<?xml version="1.0" encoding="UTF-8" standalone="no" ?>
<gpx xmlns="http://www.topografix.com/GPX/1/1" xmlns:xsi="http://www.w3.org/2001/XMLSchema-instance" xsi:schemaLocation="http://www.topografix.com/GPX/1/1 http://www.topografix.com/GPX/1/1/gpx.xsd" version="1.1" creator="VisuGPX - https://www.visugpx.com">
  <metadata>
    <name>Rando_velo_aout_2021</name>
    <desc><![CDATA[Created with GOTOES STRAVA TOOLS Version 13.5]]></desc>
  </metadata>
  <trk>
    <name><![CDATA[Rando_velo_aout_2021]]></name>
    <trkseg>
      <trkpt lat="47.57339" lon="-3.07959">
        <ele>2</ele>
        <time>2021-08-04T09:29:58Z</time>
      </trkpt>
      <trkpt lat="47.57342" lon="-3.0796">
        <ele>2</ele>
        <time>2021-08-04T09:29:59Z</time>
      </trkpt>
      <trkpt lat="47.57345" lon="-3.0796">
        <ele>2</ele>
        <time>2021-08-04T09:30:00Z</time>
      </trkpt>
      <trkpt lat="47.57348" lon="-3.07961">
        <ele>2</ele>
        <time>2021-08-04T09:30:01Z</time>
      </trkpt>
      <trkpt lat="47.57351" lon="-3.07962">
        <ele>2</ele>
        <time>2021-08-04T09:30:02Z</time>
      </trkpt>
      <trkpt lat="47.57353" lon="-3.07962">
        <ele>2</ele>
        <time>2021-08-04T09:30:03Z</time>
      </trkpt>
      <trkpt lat="47.57356" lon="-3.07963">
        <ele>1.8</ele>
        <time>2021-08-04T09:30:04Z</time>
      </trkpt>
      <trkpt lat="47.57358" lon="-3.07963">
        <ele>2</ele>
        <time>2021-08-04T09:30:05Z</time>
      </trkpt>
      <trkpt lat="47.5736" lon="-3.07962">
        <ele>2</ele>
        <time>2021-08-04T09:30:06Z</time>
      </trkpt>
      <trkpt lat="47.57362" lon="-3.07962">
        <ele>2</ele>
        <time>2021-08-04T09:30:07Z</time>
      </trkpt>
      <trkpt lat="47.57364" lon="-3.07962">
        <ele>2</ele>
        <time>2021-08-04T09:30:08Z</time>
      </trkpt>
      <trkpt lat="47.57367" lon="-3.07962">
        <ele>2</ele>
        <time>2021-08-04T09:30:09Z</time>
      </trkpt>
      <trkpt lat="47.57369" lon="-3.07962">
        <ele>2</ele>
        <time>2021-08-04T09:30:10Z</time>
      </trkpt>
      <trkpt lat="47.57369" lon="-3.07962">
        <ele>2</ele>
        <time>2021-08-04T09:30:11Z</time>
      </trkpt>
      <trkpt lat="47.57371" lon="-3.07962">
        <ele>2</ele>
        <time>2021-08-04T09:30:12Z</time>
      </trkpt>
      <trkpt lat="47.57372" lon="-3.07962">
        <ele>2.2</ele>
        <time>2021-08-04T09:30:13Z</time>
      </trkpt>
      <trkpt lat="47.57374" lon="-3.07962">
        <ele>2.2</ele>
        <time>2021-08-04T09:30:14Z</time>
      </trkpt>
      <trkpt lat="47.57377" lon="-3.07961">
        <ele>2.2</ele>
        <time>2021-08-04T09:30:15Z</time>
      </trkpt>
      <trkpt lat="47.57379" lon="-3.0796">
        <ele>2.2</ele>
        <time>2021-08-04T09:30:16Z</time>
      </trkpt>
      <trkpt lat="47.57382" lon="-3.07959">
        <ele>2.2</ele>
        <time>2021-08-04T09:30:17Z</time>
      </trkpt>
      <trkpt lat="47.57384" lon="-3.07958">
        <ele>2.2</ele>
        <time>2021-08-04T09:30:18Z</time>
      </trkpt>
      <trkpt lat="47.57387" lon="-3.07957">
        <ele>2.2</ele>
        <time>2021-08-04T09:30:19Z</time>
      </trkpt>
      <trkpt lat="47.57389" lon="-3.07955">
        <ele>2.2</ele>
        <time>2021-08-04T09:30:20Z</time>
      </trkpt>
      <trkpt lat="47.57392" lon="-3.07952">
        <ele>2.2</ele>
        <time>2021-08-04T09:30:21Z</time>
      </trkpt>
      <trkpt lat="47.57394" lon="-3.0795">
        <ele>2.2</ele>
        <time>2021-08-04T09:30:22Z</time>
      </trkpt>
      <trkpt lat="47.57397" lon="-3.07948">
        <ele>2.4</ele>
        <time>2021-08-04T09:30:23Z</time>
      </trkpt>
      <trkpt lat="47.574" lon="-3.07946">
        <ele>2.4</ele>
        <time>2021-08-04T09:30:24Z</time>
      </trkpt>
      <trkpt lat="47.57404" lon="-3.07944">
        <ele>2.4</ele>
        <time>2021-08-04T09:30:25Z</time>
      </trkpt>
      <trkpt lat="47.57407" lon="-3.07942">
        <ele>2.4</ele>
        <time>2021-08-04T09:30:26Z</time>
      </trkpt>
      <trkpt lat="47.57411" lon="-3.07941">
        <ele>2.4</ele>
        <time>2021-08-04T09:30:27Z</time>
      </trkpt>
      <trkpt lat="47.57414" lon="-3.07939">
        <ele>2.4</ele>
        <time>2021-08-04T09:30:28Z</time>
      </trkpt>
      <trkpt lat="47.57418" lon="-3.07937">
        <ele>2.4</ele>
        <time>2021-08-04T09:30:29Z</time>
      </trkpt>
      <trkpt lat="47.57422" lon="-3.07935">
        <ele>2.4</ele>
        <time>2021-08-04T09:30:30Z</time>
      </trkpt>
      <trkpt lat="47.57426" lon="-3.07933">
        <ele>2.4</ele>
        <time>2021-08-04T09:30:31Z</time>
      </trkpt>
      <trkpt lat="47.5743" lon="-3.07931">
        <ele>2.6</ele>
        <time>2021-08-04T09:30:32Z</time>
      </trkpt>
      <trkpt lat="47.57434" lon="-3.07929">
        <ele>2.6</ele>
        <time>2021-08-04T09:30:33Z</time>
      </trkpt>
      <trkpt lat="47.57437" lon="-3.07928">
        <ele>2.6</ele>
        <time>2021-08-04T09:30:34Z</time>
      </trkpt>
      <trkpt lat="47.57441" lon="-3.07926">
        <ele>2.6</ele>
        <time>2021-08-04T09:30:35Z</time>
      </trkpt>
      <trkpt lat="47.57445" lon="-3.07924">
        <ele>2.6</ele>
        <time>2021-08-04T09:30:36Z</time>
      </trkpt>
      <trkpt lat="47.57448" lon="-3.07922">
        <ele>2.6</ele>
        <time>2021-08-04T09:30:37Z</time>
      </trkpt>
      <trkpt lat="47.57452" lon="-3.0792">
        <ele>2.6</ele>
        <time>2021-08-04T09:30:38Z</time>
      </trkpt>
      <trkpt lat="47.57455" lon="-3.07918">
        <ele>2.6</ele>
        <time>2021-08-04T09:30:39Z</time>
      </trkpt>
      <trkpt lat="47.57459" lon="-3.07916">
        <ele>2.6</ele>
        <time>2021-08-04T09:30:40Z</time>
      </trkpt>
      <trkpt lat="47.57463" lon="-3.07914">
        <ele>2.6</ele>
        <time>2021-08-04T09:30:41Z</time>
      </trkpt>
      <trkpt lat="47.57466" lon="-3.07912">
        <ele>2.6</ele>
        <time>2021-08-04T09:30:42Z</time>
      </trkpt>
      <trkpt lat="47.5747" lon="-3.0791">
        <ele>2.6</ele>
        <time>2021-08-04T09:30:43Z</time>
      </trkpt>
      <trkpt lat="47.57473" lon="-3.07908">
        <ele>2.6</ele>
        <time>2021-08-04T09:30:44Z</time>
      </trkpt>
      <trkpt lat="47.57476" lon="-3.07907">
        <ele>2.4</ele>
        <time>2021-08-04T09:30:45Z</time>
      </trkpt>
      <trkpt lat="47.57479" lon="-3.07905">
        <ele>2.4</ele>
        <time>2021-08-04T09:30:46Z</time>
      </trkpt>
      <trkpt lat="47.57482" lon="-3.07904">
        <ele>2.4</ele>
        <time>2021-08-04T09:30:47Z</time>
      </trkpt>
      <trkpt lat="47.57485" lon="-3.07902">
        <ele>2.4</ele>
        <time>2021-08-04T09:30:48Z</time>
      </trkpt>
      <trkpt lat="47.57487" lon="-3.079">
        <ele>2.4</ele>
        <time>2021-08-04T09:30:49Z</time>
      </trkpt>
      <trkpt lat="47.57491" lon="-3.07898">
        <ele>2.4</ele>
        <time>2021-08-04T09:30:50Z</time>
      </trkpt>
      <trkpt lat="47.57494" lon="-3.07897">
        <ele>2.4</ele>
        <time>2021-08-04T09:30:51Z</time>
      </trkpt>
      <trkpt lat="47.57498" lon="-3.07895">
        <ele>2.4</ele>
        <time>2021-08-04T09:30:52Z</time>
      </trkpt>
      <trkpt lat="47.57502" lon="-3.07893">
        <ele>2.4</ele>
        <time>2021-08-04T09:30:53Z</time>
      </trkpt>
      <trkpt lat="47.57506" lon="-3.07891">
        <ele>2.2</ele>
        <time>2021-08-04T09:30:54Z</time>
      </trkpt>
      <trkpt lat="47.5751" lon="-3.07889">
        <ele>2.2</ele>
        <time>2021-08-04T09:30:55Z</time>
      </trkpt>
      <trkpt lat="47.57514" lon="-3.07887">
        <ele>2.2</ele>
        <time>2021-08-04T09:30:56Z</time>
      </trkpt>
      <trkpt lat="47.57517" lon="-3.07885">
        <ele>2.2</ele>
        <time>2021-08-04T09:30:57Z</time>
      </trkpt>
      <trkpt lat="47.57521" lon="-3.07883">
        <ele>2.2</ele>
        <time>2021-08-04T09:30:58Z</time>
      </trkpt>
      <trkpt lat="47.57525" lon="-3.07881">
        <ele>2.2</ele>
        <time>2021-08-04T09:30:59Z</time>
      </trkpt>
      <trkpt lat="47.57529" lon="-3.07879">
        <ele>2</ele>
        <time>2021-08-04T09:31:00Z</time>
      </trkpt>
      <trkpt lat="47.57533" lon="-3.07877">
        <ele>2</ele>
        <time>2021-08-04T09:31:01Z</time>
      </trkpt>
      <trkpt lat="47.57537" lon="-3.07875">
        <ele>1.8</ele>
        <time>2021-08-04T09:31:02Z</time>
      </trkpt>
      <trkpt lat="47.57541" lon="-3.07873">
        <ele>1.8</ele>
        <time>2021-08-04T09:31:03Z</time>
      </trkpt>
      <trkpt lat="47.57546" lon="-3.07871">
        <ele>1.8</ele>
        <time>2021-08-04T09:31:04Z</time>
      </trkpt>
      <trkpt lat="47.5755" lon="-3.07869">
        <ele>1.6</ele>
        <time>2021-08-04T09:31:05Z</time>
      </trkpt>
      <trkpt lat="47.57554" lon="-3.07866">
        <ele>1.6</ele>
        <time>2021-08-04T09:31:06Z</time>
      </trkpt>
      <trkpt lat="47.57559" lon="-3.07864">
        <ele>1.6</ele>
        <time>2021-08-04T09:31:07Z</time>
      </trkpt>
      <trkpt lat="47.57563" lon="-3.07862">
        <ele>1.6</ele>
        <time>2021-08-04T09:31:08Z</time>
      </trkpt>
      <trkpt lat="47.57567" lon="-3.07859">
        <ele>1.6</ele>
        <time>2021-08-04T09:31:09Z</time>
      </trkpt>
      <trkpt lat="47.57572" lon="-3.07857">
        <ele>1.6</ele>
        <time>2021-08-04T09:31:10Z</time>
      </trkpt>
      <trkpt lat="47.57576" lon="-3.07855">
        <ele>1.6</ele>
        <time>2021-08-04T09:31:11Z</time>
      </trkpt>
      <trkpt lat="47.5758" lon="-3.07852">
        <ele>1.6</ele>
        <time>2021-08-04T09:31:12Z</time>
      </trkpt>
      <trkpt lat="47.57584" lon="-3.0785">
        <ele>1.6</ele>
        <time>2021-08-04T09:31:13Z</time>
      </trkpt>
      <trkpt lat="47.57588" lon="-3.07848">
        <ele>1.6</ele>
        <time>2021-08-04T09:31:14Z</time>
      </trkpt>
      <trkpt lat="47.57592" lon="-3.07846">
        <ele>1.6</ele>
        <time>2021-08-04T09:31:15Z</time>
      </trkpt>
      <trkpt lat="47.57596" lon="-3.07844">
        <ele>1.6</ele>
        <time>2021-08-04T09:31:16Z</time>
      </trkpt>
      <trkpt lat="47.576" lon="-3.07842">
        <ele>1.6</ele>
        <time>2021-08-04T09:31:17Z</time>
      </trkpt>
      <trkpt lat="47.57604" lon="-3.0784">
        <ele>1.6</ele>
        <time>2021-08-04T09:31:18Z</time>
      </trkpt>
      <trkpt lat="47.57608" lon="-3.07838">
        <ele>1.6</ele>
        <time>2021-08-04T09:31:19Z</time>
      </trkpt>
      <trkpt lat="47.57611" lon="-3.07837">
        <ele>1.6</ele>
        <time>2021-08-04T09:31:20Z</time>
      </trkpt>
      <trkpt lat="47.57614" lon="-3.07835">
        <ele>1.6</ele>
        <time>2021-08-04T09:31:21Z</time>
      </trkpt>
      <trkpt lat="47.57617" lon="-3.07834">
        <ele>1.8</ele>
        <time>2021-08-04T09:31:22Z</time>
      </trkpt>
      <trkpt lat="47.57619" lon="-3.07834">
        <ele>1.8</ele>
        <time>2021-08-04T09:31:23Z</time>
      </trkpt>
      <trkpt lat="47.57621" lon="-3.07833">
        <ele>1.8</ele>
        <time>2021-08-04T09:31:24Z</time>
      </trkpt>
      <trkpt lat="47.57623" lon="-3.07832">
        <ele>1.8</ele>
        <time>2021-08-04T09:31:25Z</time>
      </trkpt>
      <trkpt lat="47.57626" lon="-3.0783">
        <ele>2</ele>
        <time>2021-08-04T09:31:26Z</time>
      </trkpt>
      <trkpt lat="47.57628" lon="-3.07829">
        <ele>2.2</ele>
        <time>2021-08-04T09:31:27Z</time>
      </trkpt>
      <trkpt lat="47.57631" lon="-3.07826">
        <ele>2.2</ele>
        <time>2021-08-04T09:31:28Z</time>
      </trkpt>
      <trkpt lat="47.57633" lon="-3.07824">
        <ele>2.2</ele>
        <time>2021-08-04T09:31:29Z</time>
      </trkpt>
      <trkpt lat="47.57636" lon="-3.07823">
        <ele>2.4</ele>
        <time>2021-08-04T09:31:30Z</time>
      </trkpt>
      <trkpt lat="47.57639" lon="-3.0782">
        <ele>2.4</ele>
        <time>2021-08-04T09:31:31Z</time>
      </trkpt>
      <trkpt lat="47.57642" lon="-3.07818">
        <ele>2.4</ele>
        <time>2021-08-04T09:31:32Z</time>
      </trkpt>
      <trkpt lat="47.57646" lon="-3.07816">
        <ele>2.4</ele>
        <time>2021-08-04T09:31:33Z</time>
      </trkpt>
      <trkpt lat="47.57649" lon="-3.07813">
        <ele>2.4</ele>
        <time>2021-08-04T09:31:34Z</time>
      </trkpt>
      <trkpt lat="47.57652" lon="-3.07811">
        <ele>2.4</ele>
        <time>2021-08-04T09:31:35Z</time>
      </trkpt>
      <trkpt lat="47.57655" lon="-3.07809">
        <ele>2.4</ele>
        <time>2021-08-04T09:31:36Z</time>
      </trkpt>
      <trkpt lat="47.57658" lon="-3.07807">
        <ele>2.4</ele>
        <time>2021-08-04T09:31:37Z</time>
      </trkpt>
      <trkpt lat="47.57662" lon="-3.07805">
        <ele>2.4</ele>
        <time>2021-08-04T09:31:38Z</time>
      </trkpt>
      <trkpt lat="47.57665" lon="-3.07804">
        <ele>2.4</ele>
        <time>2021-08-04T09:31:39Z</time>
      </trkpt>
      <trkpt lat="47.57668" lon="-3.07802">
        <ele>2.4</ele>
        <time>2021-08-04T09:31:40Z</time>
      </trkpt>
      <trkpt lat="47.57672" lon="-3.07801">
        <ele>2.4</ele>
        <time>2021-08-04T09:31:41Z</time>
      </trkpt>
      <trkpt lat="47.57675" lon="-3.078">
        <ele>2.4</ele>
        <time>2021-08-04T09:31:42Z</time>
      </trkpt>
      <trkpt lat="47.57678" lon="-3.07799">
        <ele>2.4</ele>
        <time>2021-08-04T09:31:43Z</time>
      </trkpt>
      <trkpt lat="47.57681" lon="-3.07797">
        <ele>2.4</ele>
        <time>2021-08-04T09:31:44Z</time>
      </trkpt>
      <trkpt lat="47.57684" lon="-3.07796">
        <ele>2.4</ele>
        <time>2021-08-04T09:31:45Z</time>
      </trkpt>
      <trkpt lat="47.57687" lon="-3.07795">
        <ele>2.4</ele>
        <time>2021-08-04T09:31:46Z</time>
      </trkpt>
      <trkpt lat="47.57689" lon="-3.07794">
        <ele>2.4</ele>
        <time>2021-08-04T09:31:47Z</time>
      </trkpt>
      <trkpt lat="47.57691" lon="-3.07793">
        <ele>2.4</ele>
        <time>2021-08-04T09:31:48Z</time>
      </trkpt>
      <trkpt lat="47.57693" lon="-3.07792">
        <ele>2.6</ele>
        <time>2021-08-04T09:31:49Z</time>
      </trkpt>
      <trkpt lat="47.57696" lon="-3.07791">
        <ele>2.8</ele>
        <time>2021-08-04T09:31:50Z</time>
      </trkpt>
      <trkpt lat="47.57698" lon="-3.0779">
        <ele>2.8</ele>
        <time>2021-08-04T09:31:51Z</time>
      </trkpt>
      <trkpt lat="47.577" lon="-3.07789">
        <ele>2.8</ele>
        <time>2021-08-04T09:31:52Z</time>
      </trkpt>
      <trkpt lat="47.57702" lon="-3.07788">
        <ele>3</ele>
        <time>2021-08-04T09:31:53Z</time>
      </trkpt>
      <trkpt lat="47.57704" lon="-3.07787">
        <ele>3</ele>
        <time>2021-08-04T09:31:54Z</time>
      </trkpt>
      <trkpt lat="47.57707" lon="-3.07785">
        <ele>3.2</ele>
        <time>2021-08-04T09:31:55Z</time>
      </trkpt>
      <trkpt lat="47.5771" lon="-3.07784">
        <ele>3.2</ele>
        <time>2021-08-04T09:31:56Z</time>
      </trkpt>
      <trkpt lat="47.57712" lon="-3.07783">
        <ele>3.2</ele>
        <time>2021-08-04T09:31:57Z</time>
      </trkpt>
      <trkpt lat="47.57715" lon="-3.07782">
        <ele>3.4</ele>
        <time>2021-08-04T09:31:58Z</time>
      </trkpt>
      <trkpt lat="47.57718" lon="-3.0778">
        <ele>3.4</ele>
        <time>2021-08-04T09:31:59Z</time>
      </trkpt>
      <trkpt lat="47.5772" lon="-3.07779">
        <ele>3.4</ele>
        <time>2021-08-04T09:32:00Z</time>
      </trkpt>
      <trkpt lat="47.57723" lon="-3.07778">
        <ele>3.6</ele>
        <time>2021-08-04T09:32:01Z</time>
      </trkpt>
      <trkpt lat="47.57725" lon="-3.07777">
        <ele>3.8</ele>
        <time>2021-08-04T09:32:02Z</time>
      </trkpt>
      <trkpt lat="47.57727" lon="-3.07776">
        <ele>3.8</ele>
        <time>2021-08-04T09:32:03Z</time>
      </trkpt>
      <trkpt lat="47.5773" lon="-3.07775">
        <ele>4</ele>
        <time>2021-08-04T09:32:04Z</time>
      </trkpt>
      <trkpt lat="47.57732" lon="-3.07774">
        <ele>4</ele>
        <time>2021-08-04T09:32:05Z</time>
      </trkpt>
      <trkpt lat="47.57735" lon="-3.07772">
        <ele>4</ele>
        <time>2021-08-04T09:32:06Z</time>
      </trkpt>
      <trkpt lat="47.57737" lon="-3.07771">
        <ele>4.2</ele>
        <time>2021-08-04T09:32:07Z</time>
      </trkpt>
      <trkpt lat="47.5774" lon="-3.07769">
        <ele>4.4</ele>
        <time>2021-08-04T09:32:08Z</time>
      </trkpt>
      <trkpt lat="47.57742" lon="-3.07768">
        <ele>4.4</ele>
        <time>2021-08-04T09:32:09Z</time>
      </trkpt>
      <trkpt lat="47.57745" lon="-3.07767">
        <ele>4.6</ele>
        <time>2021-08-04T09:32:10Z</time>
      </trkpt>
      <trkpt lat="47.57747" lon="-3.07765">
        <ele>4.8</ele>
        <time>2021-08-04T09:32:11Z</time>
      </trkpt>
      <trkpt lat="47.57749" lon="-3.07763">
        <ele>4.8</ele>
        <time>2021-08-04T09:32:12Z</time>
      </trkpt>
      <trkpt lat="47.57753" lon="-3.07763">
        <ele>5</ele>
        <time>2021-08-04T09:32:13Z</time>
      </trkpt>
      <trkpt lat="47.57756" lon="-3.07762">
        <ele>5</ele>
        <time>2021-08-04T09:32:14Z</time>
      </trkpt>
      <trkpt lat="47.57758" lon="-3.07761">
        <ele>5.2</ele>
        <time>2021-08-04T09:32:15Z</time>
      </trkpt>
      <trkpt lat="47.57761" lon="-3.0776">
        <ele>5.2</ele>
        <time>2021-08-04T09:32:16Z</time>
      </trkpt>
      <trkpt lat="47.57764" lon="-3.07759">
        <ele>5.4</ele>
        <time>2021-08-04T09:32:17Z</time>
      </trkpt>
      <trkpt lat="47.57767" lon="-3.07758">
        <ele>6</ele>
        <time>2021-08-04T09:32:18Z</time>
      </trkpt>
      <trkpt lat="47.5777" lon="-3.07757">
        <ele>6.2</ele>
        <time>2021-08-04T09:32:19Z</time>
      </trkpt>
      <trkpt lat="47.57773" lon="-3.07757">
        <ele>6.4</ele>
        <time>2021-08-04T09:32:20Z</time>
      </trkpt>
      <trkpt lat="47.57776" lon="-3.07756">
        <ele>6.4</ele>
        <time>2021-08-04T09:32:21Z</time>
      </trkpt>
      <trkpt lat="47.57779" lon="-3.07755">
        <ele>6.6</ele>
        <time>2021-08-04T09:32:22Z</time>
      </trkpt>
      <trkpt lat="47.57782" lon="-3.07754">
        <ele>6.6</ele>
        <time>2021-08-04T09:32:23Z</time>
      </trkpt>
      <trkpt lat="47.57785" lon="-3.07754">
        <ele>6.6</ele>
        <time>2021-08-04T09:32:24Z</time>
      </trkpt>
      <trkpt lat="47.57788" lon="-3.07754">
        <ele>6.8</ele>
        <time>2021-08-04T09:32:25Z</time>
      </trkpt>
      <trkpt lat="47.57791" lon="-3.07754">
        <ele>6.8</ele>
        <time>2021-08-04T09:32:26Z</time>
      </trkpt>
      <trkpt lat="47.57794" lon="-3.07754">
        <ele>6.8</ele>
        <time>2021-08-04T09:32:27Z</time>
      </trkpt>
      <trkpt lat="47.57797" lon="-3.07755">
        <ele>6.8</ele>
        <time>2021-08-04T09:32:28Z</time>
      </trkpt>
      <trkpt lat="47.57801" lon="-3.07756">
        <ele>7</ele>
        <time>2021-08-04T09:32:29Z</time>
      </trkpt>
      <trkpt lat="47.57805" lon="-3.07757">
        <ele>7</ele>
        <time>2021-08-04T09:32:30Z</time>
      </trkpt>
      <trkpt lat="47.57809" lon="-3.07759">
        <ele>7</ele>
        <time>2021-08-04T09:32:31Z</time>
      </trkpt>
      <trkpt lat="47.57813" lon="-3.07761">
        <ele>7</ele>
        <time>2021-08-04T09:32:32Z</time>
      </trkpt>
      <trkpt lat="47.57817" lon="-3.07763">
        <ele>7</ele>
        <time>2021-08-04T09:32:33Z</time>
      </trkpt>
      <trkpt lat="47.57821" lon="-3.07765">
        <ele>7</ele>
        <time>2021-08-04T09:32:34Z</time>
      </trkpt>
      <trkpt lat="47.57825" lon="-3.07767">
        <ele>7</ele>
        <time>2021-08-04T09:32:35Z</time>
      </trkpt>
      <trkpt lat="47.57829" lon="-3.0777">
        <ele>7</ele>
        <time>2021-08-04T09:32:36Z</time>
      </trkpt>
      <trkpt lat="47.57833" lon="-3.07772">
        <ele>7</ele>
        <time>2021-08-04T09:32:37Z</time>
      </trkpt>
      <trkpt lat="47.57837" lon="-3.07774">
        <ele>7</ele>
        <time>2021-08-04T09:32:38Z</time>
      </trkpt>
      <trkpt lat="47.57842" lon="-3.07776">
        <ele>7</ele>
        <time>2021-08-04T09:32:39Z</time>
      </trkpt>
      <trkpt lat="47.57846" lon="-3.07778">
        <ele>6.8</ele>
        <time>2021-08-04T09:32:40Z</time>
      </trkpt>
      <trkpt lat="47.5785" lon="-3.0778">
        <ele>6.8</ele>
        <time>2021-08-04T09:32:41Z</time>
      </trkpt>
      <trkpt lat="47.57854" lon="-3.07782">
        <ele>6.6</ele>
        <time>2021-08-04T09:32:42Z</time>
      </trkpt>
      <trkpt lat="47.57858" lon="-3.07783">
        <ele>6.6</ele>
        <time>2021-08-04T09:32:43Z</time>
      </trkpt>
      <trkpt lat="47.57862" lon="-3.07785">
        <ele>6.8</ele>
        <time>2021-08-04T09:32:44Z</time>
      </trkpt>
      <trkpt lat="47.57865" lon="-3.07787">
        <ele>6.8</ele>
        <time>2021-08-04T09:32:45Z</time>
      </trkpt>
      <trkpt lat="47.57869" lon="-3.07789">
        <ele>6.6</ele>
        <time>2021-08-04T09:32:46Z</time>
      </trkpt>
      <trkpt lat="47.57873" lon="-3.0779">
        <ele>6.6</ele>
        <time>2021-08-04T09:32:47Z</time>
      </trkpt>
      <trkpt lat="47.57876" lon="-3.07792">
        <ele>6.8</ele>
        <time>2021-08-04T09:32:48Z</time>
      </trkpt>
      <trkpt lat="47.5788" lon="-3.07794">
        <ele>6.8</ele>
        <time>2021-08-04T09:32:49Z</time>
      </trkpt>
      <trkpt lat="47.57883" lon="-3.07796">
        <ele>7.2</ele>
        <time>2021-08-04T09:32:50Z</time>
      </trkpt>
      <trkpt lat="47.57887" lon="-3.07797">
        <ele>7.4</ele>
        <time>2021-08-04T09:32:51Z</time>
      </trkpt>
      <trkpt lat="47.5789" lon="-3.07799">
        <ele>7.4</ele>
        <time>2021-08-04T09:32:52Z</time>
      </trkpt>
      <trkpt lat="47.57893" lon="-3.07801">
        <ele>7.6</ele>
        <time>2021-08-04T09:32:53Z</time>
      </trkpt>
      <trkpt lat="47.57897" lon="-3.07802">
        <ele>7.6</ele>
        <time>2021-08-04T09:32:54Z</time>
      </trkpt>
      <trkpt lat="47.579" lon="-3.07804">
        <ele>7.8</ele>
        <time>2021-08-04T09:32:55Z</time>
      </trkpt>
      <trkpt lat="47.57904" lon="-3.07805">
        <ele>7.8</ele>
        <time>2021-08-04T09:32:56Z</time>
      </trkpt>
      <trkpt lat="47.57907" lon="-3.07807">
        <ele>7.8</ele>
        <time>2021-08-04T09:32:57Z</time>
      </trkpt>
      <trkpt lat="47.57911" lon="-3.07809">
        <ele>7.8</ele>
        <time>2021-08-04T09:32:58Z</time>
      </trkpt>
      <trkpt lat="47.57914" lon="-3.07811">
        <ele>7.8</ele>
        <time>2021-08-04T09:32:59Z</time>
      </trkpt>
      <trkpt lat="47.57918" lon="-3.07813">
        <ele>7.8</ele>
        <time>2021-08-04T09:33:00Z</time>
      </trkpt>
      <trkpt lat="47.57922" lon="-3.07815">
        <ele>7.8</ele>
        <time>2021-08-04T09:33:01Z</time>
      </trkpt>
      <trkpt lat="47.57926" lon="-3.07817">
        <ele>7.8</ele>
        <time>2021-08-04T09:33:02Z</time>
      </trkpt>
      <trkpt lat="47.5793" lon="-3.07819">
        <ele>7.8</ele>
        <time>2021-08-04T09:33:03Z</time>
      </trkpt>
      <trkpt lat="47.57934" lon="-3.07821">
        <ele>7.8</ele>
        <time>2021-08-04T09:33:04Z</time>
      </trkpt>
      <trkpt lat="47.57938" lon="-3.07823">
        <ele>7.8</ele>
        <time>2021-08-04T09:33:05Z</time>
      </trkpt>
      <trkpt lat="47.57942" lon="-3.07825">
        <ele>7.8</ele>
        <time>2021-08-04T09:33:06Z</time>
      </trkpt>
      <trkpt lat="47.57946" lon="-3.07828">
        <ele>7.6</ele>
        <time>2021-08-04T09:33:07Z</time>
      </trkpt>
      <trkpt lat="47.5795" lon="-3.0783">
        <ele>7.6</ele>
        <time>2021-08-04T09:33:08Z</time>
      </trkpt>
      <trkpt lat="47.57955" lon="-3.07833">
        <ele>7.6</ele>
        <time>2021-08-04T09:33:09Z</time>
      </trkpt>
      <trkpt lat="47.57959" lon="-3.07835">
        <ele>7.6</ele>
        <time>2021-08-04T09:33:10Z</time>
      </trkpt>
      <trkpt lat="47.57964" lon="-3.07838">
        <ele>7.4</ele>
        <time>2021-08-04T09:33:11Z</time>
      </trkpt>
      <trkpt lat="47.57969" lon="-3.07841">
        <ele>7.2</ele>
        <time>2021-08-04T09:33:12Z</time>
      </trkpt>
      <trkpt lat="47.57974" lon="-3.07844">
        <ele>7.2</ele>
        <time>2021-08-04T09:33:13Z</time>
      </trkpt>
      <trkpt lat="47.57978" lon="-3.07847">
        <ele>7</ele>
        <time>2021-08-04T09:33:14Z</time>
      </trkpt>
      <trkpt lat="47.57983" lon="-3.07851">
        <ele>7</ele>
        <time>2021-08-04T09:33:15Z</time>
      </trkpt>
      <trkpt lat="47.57987" lon="-3.07855">
        <ele>6.8</ele>
        <time>2021-08-04T09:33:16Z</time>
      </trkpt>
      <trkpt lat="47.57992" lon="-3.07859">
        <ele>6.8</ele>
        <time>2021-08-04T09:33:17Z</time>
      </trkpt>
      <trkpt lat="47.57997" lon="-3.07862">
        <ele>6.8</ele>
        <time>2021-08-04T09:33:18Z</time>
      </trkpt>
      <trkpt lat="47.58001" lon="-3.07866">
        <ele>6.6</ele>
        <time>2021-08-04T09:33:19Z</time>
      </trkpt>
      <trkpt lat="47.58005" lon="-3.07869">
        <ele>6.4</ele>
        <time>2021-08-04T09:33:20Z</time>
      </trkpt>
      <trkpt lat="47.58009" lon="-3.07872">
        <ele>6.2</ele>
        <time>2021-08-04T09:33:21Z</time>
      </trkpt>
      <trkpt lat="47.58012" lon="-3.07875">
        <ele>6</ele>
        <time>2021-08-04T09:33:22Z</time>
      </trkpt>
      <trkpt lat="47.58015" lon="-3.07877">
        <ele>5.8</ele>
        <time>2021-08-04T09:33:23Z</time>
      </trkpt>
      <trkpt lat="47.58017" lon="-3.07879">
        <ele>5.8</ele>
        <time>2021-08-04T09:33:24Z</time>
      </trkpt>
      <trkpt lat="47.5802" lon="-3.07879">
        <ele>5.8</ele>
        <time>2021-08-04T09:33:25Z</time>
      </trkpt>
      <trkpt lat="47.58022" lon="-3.07878">
        <ele>5.6</ele>
        <time>2021-08-04T09:33:26Z</time>
      </trkpt>
      <trkpt lat="47.58024" lon="-3.07878">
        <ele>5.6</ele>
        <time>2021-08-04T09:33:27Z</time>
      </trkpt>
      <trkpt lat="47.58027" lon="-3.07879">
        <ele>5.6</ele>
        <time>2021-08-04T09:33:28Z</time>
      </trkpt>
      <trkpt lat="47.58029" lon="-3.07881">
        <ele>5.6</ele>
        <time>2021-08-04T09:33:29Z</time>
      </trkpt>
      <trkpt lat="47.58032" lon="-3.07884">
        <ele>5.6</ele>
        <time>2021-08-04T09:33:30Z</time>
      </trkpt>
      <trkpt lat="47.58034" lon="-3.07886">
        <ele>5.6</ele>
        <time>2021-08-04T09:33:31Z</time>
      </trkpt>
      <trkpt lat="47.58036" lon="-3.0789">
        <ele>5.6</ele>
        <time>2021-08-04T09:33:32Z</time>
      </trkpt>
      <trkpt lat="47.58037" lon="-3.07894">
        <ele>5.6</ele>
        <time>2021-08-04T09:33:33Z</time>
      </trkpt>
      <trkpt lat="47.58039" lon="-3.07898">
        <ele>5.4</ele>
        <time>2021-08-04T09:33:34Z</time>
      </trkpt>
      <trkpt lat="47.58041" lon="-3.07901">
        <ele>5.4</ele>
        <time>2021-08-04T09:33:35Z</time>
      </trkpt>
      <trkpt lat="47.58044" lon="-3.07903">
        <ele>5.4</ele>
        <time>2021-08-04T09:33:36Z</time>
      </trkpt>
      <trkpt lat="47.58047" lon="-3.07906">
        <ele>5.4</ele>
        <time>2021-08-04T09:33:37Z</time>
      </trkpt>
      <trkpt lat="47.5805" lon="-3.07908">
        <ele>5.4</ele>
        <time>2021-08-04T09:33:38Z</time>
      </trkpt>
      <trkpt lat="47.58052" lon="-3.07911">
        <ele>5.4</ele>
        <time>2021-08-04T09:33:39Z</time>
      </trkpt>
      <trkpt lat="47.58055" lon="-3.07913">
        <ele>5.4</ele>
        <time>2021-08-04T09:33:40Z</time>
      </trkpt>
      <trkpt lat="47.58057" lon="-3.07916">
        <ele>5.6</ele>
        <time>2021-08-04T09:33:41Z</time>
      </trkpt>
      <trkpt lat="47.58059" lon="-3.07918">
        <ele>5.6</ele>
        <time>2021-08-04T09:33:42Z</time>
      </trkpt>
      <trkpt lat="47.58062" lon="-3.0792">
        <ele>5.6</ele>
        <time>2021-08-04T09:33:43Z</time>
      </trkpt>
      <trkpt lat="47.58064" lon="-3.07922">
        <ele>5.6</ele>
        <time>2021-08-04T09:33:44Z</time>
      </trkpt>
      <trkpt lat="47.58066" lon="-3.07924">
        <ele>5.8</ele>
        <time>2021-08-04T09:33:45Z</time>
      </trkpt>
      <trkpt lat="47.58069" lon="-3.07926">
        <ele>5.8</ele>
        <time>2021-08-04T09:33:46Z</time>
      </trkpt>
      <trkpt lat="47.58071" lon="-3.07928">
        <ele>5.8</ele>
        <time>2021-08-04T09:33:47Z</time>
      </trkpt>
      <trkpt lat="47.58074" lon="-3.0793">
        <ele>5.8</ele>
        <time>2021-08-04T09:33:48Z</time>
      </trkpt>
      <trkpt lat="47.58077" lon="-3.07932">
        <ele>6</ele>
        <time>2021-08-04T09:33:49Z</time>
      </trkpt>
      <trkpt lat="47.5808" lon="-3.07933">
        <ele>6</ele>
        <time>2021-08-04T09:33:50Z</time>
      </trkpt>
      <trkpt lat="47.58084" lon="-3.07934">
        <ele>6</ele>
        <time>2021-08-04T09:33:51Z</time>
      </trkpt>
      <trkpt lat="47.58087" lon="-3.07934">
        <ele>6.2</ele>
        <time>2021-08-04T09:33:52Z</time>
      </trkpt>
      <trkpt lat="47.5809" lon="-3.07934">
        <ele>6.2</ele>
        <time>2021-08-04T09:33:53Z</time>
      </trkpt>
      <trkpt lat="47.58093" lon="-3.07935">
        <ele>6.2</ele>
        <time>2021-08-04T09:33:54Z</time>
      </trkpt>
      <trkpt lat="47.58095" lon="-3.07936">
        <ele>6.4</ele>
        <time>2021-08-04T09:33:55Z</time>
      </trkpt>
      <trkpt lat="47.58098" lon="-3.07937">
        <ele>6.4</ele>
        <time>2021-08-04T09:33:56Z</time>
      </trkpt>
      <trkpt lat="47.58101" lon="-3.07938">
        <ele>6.4</ele>
        <time>2021-08-04T09:33:57Z</time>
      </trkpt>
      <trkpt lat="47.58104" lon="-3.07939">
        <ele>6.4</ele>
        <time>2021-08-04T09:33:58Z</time>
      </trkpt>
      <trkpt lat="47.58107" lon="-3.0794">
        <ele>6.6</ele>
        <time>2021-08-04T09:33:59Z</time>
      </trkpt>
      <trkpt lat="47.5811" lon="-3.0794">
        <ele>6.6</ele>
        <time>2021-08-04T09:34:00Z</time>
      </trkpt>
      <trkpt lat="47.58113" lon="-3.07941">
        <ele>6.6</ele>
        <time>2021-08-04T09:34:01Z</time>
      </trkpt>
      <trkpt lat="47.58116" lon="-3.07942">
        <ele>6.8</ele>
        <time>2021-08-04T09:34:02Z</time>
      </trkpt>
      <trkpt lat="47.58119" lon="-3.07943">
        <ele>6.8</ele>
        <time>2021-08-04T09:34:03Z</time>
      </trkpt>
      <trkpt lat="47.58122" lon="-3.07944">
        <ele>6.8</ele>
        <time>2021-08-04T09:34:04Z</time>
      </trkpt>
      <trkpt lat="47.58125" lon="-3.07945">
        <ele>7</ele>
        <time>2021-08-04T09:34:05Z</time>
      </trkpt>
      <trkpt lat="47.58129" lon="-3.07946">
        <ele>7</ele>
        <time>2021-08-04T09:34:06Z</time>
      </trkpt>
      <trkpt lat="47.58133" lon="-3.07947">
        <ele>7</ele>
        <time>2021-08-04T09:34:07Z</time>
      </trkpt>
      <trkpt lat="47.58136" lon="-3.07948">
        <ele>7</ele>
        <time>2021-08-04T09:34:08Z</time>
      </trkpt>
      <trkpt lat="47.5814" lon="-3.07949">
        <ele>7</ele>
        <time>2021-08-04T09:34:09Z</time>
      </trkpt>
      <trkpt lat="47.58144" lon="-3.0795">
        <ele>7</ele>
        <time>2021-08-04T09:34:10Z</time>
      </trkpt>
      <trkpt lat="47.58147" lon="-3.07951">
        <ele>7</ele>
        <time>2021-08-04T09:34:11Z</time>
      </trkpt>
      <trkpt lat="47.58151" lon="-3.07951">
        <ele>7</ele>
        <time>2021-08-04T09:34:12Z</time>
      </trkpt>
      <trkpt lat="47.58154" lon="-3.07952">
        <ele>7.2</ele>
        <time>2021-08-04T09:34:13Z</time>
      </trkpt>
      <trkpt lat="47.58157" lon="-3.07953">
        <ele>7.2</ele>
        <time>2021-08-04T09:34:14Z</time>
      </trkpt>
      <trkpt lat="47.58161" lon="-3.07954">
        <ele>7.2</ele>
        <time>2021-08-04T09:34:15Z</time>
      </trkpt>
      <trkpt lat="47.58164" lon="-3.07955">
        <ele>7.2</ele>
        <time>2021-08-04T09:34:16Z</time>
      </trkpt>
      <trkpt lat="47.58168" lon="-3.07956">
        <ele>7.2</ele>
        <time>2021-08-04T09:34:17Z</time>
      </trkpt>
      <trkpt lat="47.58171" lon="-3.07957">
        <ele>7.2</ele>
        <time>2021-08-04T09:34:18Z</time>
      </trkpt>
      <trkpt lat="47.58174" lon="-3.07958">
        <ele>7.4</ele>
        <time>2021-08-04T09:34:19Z</time>
      </trkpt>
      <trkpt lat="47.58178" lon="-3.07959">
        <ele>7.4</ele>
        <time>2021-08-04T09:34:20Z</time>
      </trkpt>
      <trkpt lat="47.58181" lon="-3.07959">
        <ele>7.4</ele>
        <time>2021-08-04T09:34:21Z</time>
      </trkpt>
      <trkpt lat="47.58184" lon="-3.07959">
        <ele>7.6</ele>
        <time>2021-08-04T09:34:22Z</time>
      </trkpt>
      <trkpt lat="47.58188" lon="-3.07958">
        <ele>7.6</ele>
        <time>2021-08-04T09:34:23Z</time>
      </trkpt>
      <trkpt lat="47.58191" lon="-3.07958">
        <ele>7.8</ele>
        <time>2021-08-04T09:34:24Z</time>
      </trkpt>
      <trkpt lat="47.58194" lon="-3.07957">
        <ele>7.8</ele>
        <time>2021-08-04T09:34:25Z</time>
      </trkpt>
      <trkpt lat="47.58197" lon="-3.07957">
        <ele>8</ele>
        <time>2021-08-04T09:34:26Z</time>
      </trkpt>
      <trkpt lat="47.58199" lon="-3.07956">
        <ele>8.2</ele>
        <time>2021-08-04T09:34:27Z</time>
      </trkpt>
      <trkpt lat="47.58202" lon="-3.07956">
        <ele>8.4</ele>
        <time>2021-08-04T09:34:28Z</time>
      </trkpt>
      <trkpt lat="47.58204" lon="-3.07957">
        <ele>8.4</ele>
        <time>2021-08-04T09:34:29Z</time>
      </trkpt>
      <trkpt lat="47.58207" lon="-3.07959">
        <ele>8.6</ele>
        <time>2021-08-04T09:34:30Z</time>
      </trkpt>
      <trkpt lat="47.58209" lon="-3.07963">
        <ele>8.6</ele>
        <time>2021-08-04T09:34:31Z</time>
      </trkpt>
      <trkpt lat="47.5821" lon="-3.07967">
        <ele>8.8</ele>
        <time>2021-08-04T09:34:32Z</time>
      </trkpt>
      <trkpt lat="47.58212" lon="-3.07971">
        <ele>9</ele>
        <time>2021-08-04T09:34:33Z</time>
      </trkpt>
      <trkpt lat="47.58212" lon="-3.07976">
        <ele>9.2</ele>
        <time>2021-08-04T09:34:34Z</time>
      </trkpt>
      <trkpt lat="47.58213" lon="-3.0798">
        <ele>9.4</ele>
        <time>2021-08-04T09:34:35Z</time>
      </trkpt>
      <trkpt lat="47.58213" lon="-3.07984">
        <ele>9.6</ele>
        <time>2021-08-04T09:34:36Z</time>
      </trkpt>
      <trkpt lat="47.58213" lon="-3.07989">
        <ele>9.6</ele>
        <time>2021-08-04T09:34:37Z</time>
      </trkpt>
      <trkpt lat="47.58213" lon="-3.07994">
        <ele>9.8</ele>
        <time>2021-08-04T09:34:38Z</time>
      </trkpt>
      <trkpt lat="47.58213" lon="-3.07999">
        <ele>10.4</ele>
        <time>2021-08-04T09:34:39Z</time>
      </trkpt>
      <trkpt lat="47.58213" lon="-3.08004">
        <ele>10.6</ele>
        <time>2021-08-04T09:34:40Z</time>
      </trkpt>
      <trkpt lat="47.58213" lon="-3.08008">
        <ele>10.8</ele>
        <time>2021-08-04T09:34:41Z</time>
      </trkpt>
      <trkpt lat="47.58213" lon="-3.08012">
        <ele>11.2</ele>
        <time>2021-08-04T09:34:42Z</time>
      </trkpt>
      <trkpt lat="47.58213" lon="-3.08017">
        <ele>11.4</ele>
        <time>2021-08-04T09:34:43Z</time>
      </trkpt>
      <trkpt lat="47.58212" lon="-3.08021">
        <ele>11.6</ele>
        <time>2021-08-04T09:34:44Z</time>
      </trkpt>
      <trkpt lat="47.58212" lon="-3.08025">
        <ele>11.8</ele>
        <time>2021-08-04T09:34:45Z</time>
      </trkpt>
      <trkpt lat="47.58212" lon="-3.0803">
        <ele>12</ele>
        <time>2021-08-04T09:34:46Z</time>
      </trkpt>
      <trkpt lat="47.58211" lon="-3.08034">
        <ele>12</ele>
        <time>2021-08-04T09:34:47Z</time>
      </trkpt>
      <trkpt lat="47.58211" lon="-3.08038">
        <ele>12.2</ele>
        <time>2021-08-04T09:34:48Z</time>
      </trkpt>
      <trkpt lat="47.58211" lon="-3.08042">
        <ele>12.4</ele>
        <time>2021-08-04T09:34:49Z</time>
      </trkpt>
      <trkpt lat="47.5821" lon="-3.08046">
        <ele>12.4</ele>
        <time>2021-08-04T09:34:50Z</time>
      </trkpt>
      <trkpt lat="47.5821" lon="-3.08051">
        <ele>12.4</ele>
        <time>2021-08-04T09:34:51Z</time>
      </trkpt>
      <trkpt lat="47.58209" lon="-3.08055">
        <ele>12.4</ele>
        <time>2021-08-04T09:34:52Z</time>
      </trkpt>
      <trkpt lat="47.58209" lon="-3.0806">
        <ele>12.4</ele>
        <time>2021-08-04T09:34:53Z</time>
      </trkpt>
      <trkpt lat="47.58208" lon="-3.08065">
        <ele>12.4</ele>
        <time>2021-08-04T09:34:54Z</time>
      </trkpt>
      <trkpt lat="47.58207" lon="-3.0807">
        <ele>12.4</ele>
        <time>2021-08-04T09:34:55Z</time>
      </trkpt>
      <trkpt lat="47.58206" lon="-3.08076">
        <ele>12.4</ele>
        <time>2021-08-04T09:34:56Z</time>
      </trkpt>
      <trkpt lat="47.58205" lon="-3.08081">
        <ele>12.4</ele>
        <time>2021-08-04T09:34:57Z</time>
      </trkpt>
      <trkpt lat="47.58204" lon="-3.08087">
        <ele>12.4</ele>
        <time>2021-08-04T09:34:58Z</time>
      </trkpt>
      <trkpt lat="47.58203" lon="-3.08093">
        <ele>12.4</ele>
        <time>2021-08-04T09:34:59Z</time>
      </trkpt>
      <trkpt lat="47.58202" lon="-3.08099">
        <ele>12.4</ele>
        <time>2021-08-04T09:35:00Z</time>
      </trkpt>
      <trkpt lat="47.582" lon="-3.08105">
        <ele>12.4</ele>
        <time>2021-08-04T09:35:01Z</time>
      </trkpt>
      <trkpt lat="47.58198" lon="-3.08111">
        <ele>12.2</ele>
        <time>2021-08-04T09:35:02Z</time>
      </trkpt>
      <trkpt lat="47.58196" lon="-3.08117">
        <ele>12.2</ele>
        <time>2021-08-04T09:35:03Z</time>
      </trkpt>
      <trkpt lat="47.58194" lon="-3.08124">
        <ele>12</ele>
        <time>2021-08-04T09:35:04Z</time>
      </trkpt>
      <trkpt lat="47.58191" lon="-3.0813">
        <ele>12</ele>
        <time>2021-08-04T09:35:05Z</time>
      </trkpt>
      <trkpt lat="47.58189" lon="-3.08136">
        <ele>11.8</ele>
        <time>2021-08-04T09:35:06Z</time>
      </trkpt>
      <trkpt lat="47.58187" lon="-3.08142">
        <ele>11.8</ele>
        <time>2021-08-04T09:35:07Z</time>
      </trkpt>
      <trkpt lat="47.58186" lon="-3.08147">
        <ele>11.6</ele>
        <time>2021-08-04T09:35:08Z</time>
      </trkpt>
      <trkpt lat="47.58184" lon="-3.08152">
        <ele>11.2</ele>
        <time>2021-08-04T09:35:09Z</time>
      </trkpt>
      <trkpt lat="47.58182" lon="-3.08156">
        <ele>11</ele>
        <time>2021-08-04T09:35:10Z</time>
      </trkpt>
      <trkpt lat="47.58181" lon="-3.0816">
        <ele>10.8</ele>
        <time>2021-08-04T09:35:11Z</time>
      </trkpt>
      <trkpt lat="47.58181" lon="-3.08164">
        <ele>10.6</ele>
        <time>2021-08-04T09:35:12Z</time>
      </trkpt>
      <trkpt lat="47.58182" lon="-3.08168">
        <ele>10.4</ele>
        <time>2021-08-04T09:35:13Z</time>
      </trkpt>
      <trkpt lat="47.58184" lon="-3.0817">
        <ele>10.4</ele>
        <time>2021-08-04T09:35:14Z</time>
      </trkpt>
      <trkpt lat="47.58187" lon="-3.08171">
        <ele>10.4</ele>
        <time>2021-08-04T09:35:15Z</time>
      </trkpt>
      <trkpt lat="47.58189" lon="-3.0817">
        <ele>10.4</ele>
        <time>2021-08-04T09:35:16Z</time>
      </trkpt>
      <trkpt lat="47.58192" lon="-3.08169">
        <ele>10.4</ele>
        <time>2021-08-04T09:35:17Z</time>
      </trkpt>
      <trkpt lat="47.58194" lon="-3.08168">
        <ele>10.4</ele>
        <time>2021-08-04T09:35:18Z</time>
      </trkpt>
      <trkpt lat="47.58197" lon="-3.08168">
        <ele>10.4</ele>
        <time>2021-08-04T09:35:19Z</time>
      </trkpt>
      <trkpt lat="47.58199" lon="-3.08167">
        <ele>10.4</ele>
        <time>2021-08-04T09:35:20Z</time>
      </trkpt>
      <trkpt lat="47.58202" lon="-3.08167">
        <ele>10.4</ele>
        <time>2021-08-04T09:35:21Z</time>
      </trkpt>
      <trkpt lat="47.58205" lon="-3.08166">
        <ele>10.4</ele>
        <time>2021-08-04T09:35:22Z</time>
      </trkpt>
      <trkpt lat="47.58208" lon="-3.08166">
        <ele>10.4</ele>
        <time>2021-08-04T09:35:23Z</time>
      </trkpt>
      <trkpt lat="47.58211" lon="-3.08165">
        <ele>10.6</ele>
        <time>2021-08-04T09:35:24Z</time>
      </trkpt>
      <trkpt lat="47.58214" lon="-3.08164">
        <ele>10.6</ele>
        <time>2021-08-04T09:35:25Z</time>
      </trkpt>
      <trkpt lat="47.58217" lon="-3.08163">
        <ele>10.6</ele>
        <time>2021-08-04T09:35:26Z</time>
      </trkpt>
      <trkpt lat="47.5822" lon="-3.08162">
        <ele>10.6</ele>
        <time>2021-08-04T09:35:27Z</time>
      </trkpt>
      <trkpt lat="47.58224" lon="-3.08162">
        <ele>10.6</ele>
        <time>2021-08-04T09:35:28Z</time>
      </trkpt>
      <trkpt lat="47.58227" lon="-3.08161">
        <ele>10.8</ele>
        <time>2021-08-04T09:35:29Z</time>
      </trkpt>
      <trkpt lat="47.5823" lon="-3.08161">
        <ele>10.8</ele>
        <time>2021-08-04T09:35:30Z</time>
      </trkpt>
      <trkpt lat="47.58233" lon="-3.0816">
        <ele>10.8</ele>
        <time>2021-08-04T09:35:31Z</time>
      </trkpt>
      <trkpt lat="47.58237" lon="-3.08159">
        <ele>10.8</ele>
        <time>2021-08-04T09:35:32Z</time>
      </trkpt>
      <trkpt lat="47.5824" lon="-3.08159">
        <ele>10.8</ele>
        <time>2021-08-04T09:35:33Z</time>
      </trkpt>
      <trkpt lat="47.58243" lon="-3.08158">
        <ele>10.8</ele>
        <time>2021-08-04T09:35:34Z</time>
      </trkpt>
      <trkpt lat="47.58247" lon="-3.08157">
        <ele>11.2</ele>
        <time>2021-08-04T09:35:35Z</time>
      </trkpt>
      <trkpt lat="47.5825" lon="-3.08157">
        <ele>11.2</ele>
        <time>2021-08-04T09:35:36Z</time>
      </trkpt>
      <trkpt lat="47.58253" lon="-3.08156">
        <ele>11.4</ele>
        <time>2021-08-04T09:35:37Z</time>
      </trkpt>
      <trkpt lat="47.58257" lon="-3.08155">
        <ele>11.4</ele>
        <time>2021-08-04T09:35:38Z</time>
      </trkpt>
      <trkpt lat="47.5826" lon="-3.08155">
        <ele>11.4</ele>
        <time>2021-08-04T09:35:39Z</time>
      </trkpt>
      <trkpt lat="47.58264" lon="-3.08154">
        <ele>11.8</ele>
        <time>2021-08-04T09:35:40Z</time>
      </trkpt>
      <trkpt lat="47.58267" lon="-3.08153">
        <ele>12</ele>
        <time>2021-08-04T09:35:41Z</time>
      </trkpt>
      <trkpt lat="47.5827" lon="-3.08152">
        <ele>12.2</ele>
        <time>2021-08-04T09:35:42Z</time>
      </trkpt>
      <trkpt lat="47.58274" lon="-3.08152">
        <ele>12.4</ele>
        <time>2021-08-04T09:35:43Z</time>
      </trkpt>
      <trkpt lat="47.58277" lon="-3.08151">
        <ele>12.6</ele>
        <time>2021-08-04T09:35:44Z</time>
      </trkpt>
      <trkpt lat="47.58281" lon="-3.0815">
        <ele>12.6</ele>
        <time>2021-08-04T09:35:45Z</time>
      </trkpt>
      <trkpt lat="47.58284" lon="-3.0815">
        <ele>12.8</ele>
        <time>2021-08-04T09:35:46Z</time>
      </trkpt>
      <trkpt lat="47.58287" lon="-3.0815">
        <ele>12.8</ele>
        <time>2021-08-04T09:35:47Z</time>
      </trkpt>
      <trkpt lat="47.5829" lon="-3.08149">
        <ele>12.8</ele>
        <time>2021-08-04T09:35:48Z</time>
      </trkpt>
      <trkpt lat="47.58293" lon="-3.08149">
        <ele>13</ele>
        <time>2021-08-04T09:35:49Z</time>
      </trkpt>
      <trkpt lat="47.58296" lon="-3.08148">
        <ele>13.2</ele>
        <time>2021-08-04T09:35:50Z</time>
      </trkpt>
      <trkpt lat="47.583" lon="-3.08148">
        <ele>13.2</ele>
        <time>2021-08-04T09:35:51Z</time>
      </trkpt>
      <trkpt lat="47.58303" lon="-3.08148">
        <ele>13.4</ele>
        <time>2021-08-04T09:35:52Z</time>
      </trkpt>
      <trkpt lat="47.58307" lon="-3.08148">
        <ele>13.4</ele>
        <time>2021-08-04T09:35:53Z</time>
      </trkpt>
      <trkpt lat="47.5831" lon="-3.08148">
        <ele>13.4</ele>
        <time>2021-08-04T09:35:54Z</time>
      </trkpt>
      <trkpt lat="47.58313" lon="-3.08148">
        <ele>13.6</ele>
        <time>2021-08-04T09:35:55Z</time>
      </trkpt>
      <trkpt lat="47.58316" lon="-3.08148">
        <ele>13.6</ele>
        <time>2021-08-04T09:35:56Z</time>
      </trkpt>
      <trkpt lat="47.58318" lon="-3.08149">
        <ele>13.6</ele>
        <time>2021-08-04T09:35:57Z</time>
      </trkpt>
      <trkpt lat="47.58321" lon="-3.08149">
        <ele>13.8</ele>
        <time>2021-08-04T09:35:58Z</time>
      </trkpt>
      <trkpt lat="47.58324" lon="-3.08149">
        <ele>14</ele>
        <time>2021-08-04T09:35:59Z</time>
      </trkpt>
      <trkpt lat="47.58326" lon="-3.0815">
        <ele>14.2</ele>
        <time>2021-08-04T09:36:00Z</time>
      </trkpt>
      <trkpt lat="47.58328" lon="-3.0815">
        <ele>14.4</ele>
        <time>2021-08-04T09:36:01Z</time>
      </trkpt>
      <trkpt lat="47.58331" lon="-3.08151">
        <ele>14.6</ele>
        <time>2021-08-04T09:36:02Z</time>
      </trkpt>
      <trkpt lat="47.58332" lon="-3.08151">
        <ele>14.8</ele>
        <time>2021-08-04T09:36:03Z</time>
      </trkpt>
      <trkpt lat="47.58333" lon="-3.08151">
        <ele>14.8</ele>
        <time>2021-08-04T09:36:04Z</time>
      </trkpt>
      <trkpt lat="47.58334" lon="-3.08151">
        <ele>14.8</ele>
        <time>2021-08-04T09:36:05Z</time>
      </trkpt>
      <trkpt lat="47.58335" lon="-3.08152">
        <ele>15</ele>
        <time>2021-08-04T09:36:06Z</time>
      </trkpt>
      <trkpt lat="47.58336" lon="-3.08152">
        <ele>15</ele>
        <time>2021-08-04T09:36:07Z</time>
      </trkpt>
      <trkpt lat="47.58338" lon="-3.08154">
        <ele>15</ele>
        <time>2021-08-04T09:36:08Z</time>
      </trkpt>
      <trkpt lat="47.5834" lon="-3.08155">
        <ele>15</ele>
        <time>2021-08-04T09:36:09Z</time>
      </trkpt>
      <trkpt lat="47.58343" lon="-3.08156">
        <ele>15</ele>
        <time>2021-08-04T09:36:10Z</time>
      </trkpt>
      <trkpt lat="47.58346" lon="-3.08157">
        <ele>15.2</ele>
        <time>2021-08-04T09:36:11Z</time>
      </trkpt>
      <trkpt lat="47.58349" lon="-3.08159">
        <ele>15.2</ele>
        <time>2021-08-04T09:36:12Z</time>
      </trkpt>
      <trkpt lat="47.58352" lon="-3.08161">
        <ele>15.2</ele>
        <time>2021-08-04T09:36:13Z</time>
      </trkpt>
      <trkpt lat="47.58355" lon="-3.08163">
        <ele>15.2</ele>
        <time>2021-08-04T09:36:14Z</time>
      </trkpt>
      <trkpt lat="47.58358" lon="-3.08165">
        <ele>15.2</ele>
        <time>2021-08-04T09:36:15Z</time>
      </trkpt>
      <trkpt lat="47.58361" lon="-3.08166">
        <ele>15.2</ele>
        <time>2021-08-04T09:36:16Z</time>
      </trkpt>
      <trkpt lat="47.58363" lon="-3.08167">
        <ele>15.2</ele>
        <time>2021-08-04T09:36:17Z</time>
      </trkpt>
      <trkpt lat="47.58366" lon="-3.08168">
        <ele>15.4</ele>
        <time>2021-08-04T09:36:18Z</time>
      </trkpt>
      <trkpt lat="47.58369" lon="-3.08169">
        <ele>15.4</ele>
        <time>2021-08-04T09:36:19Z</time>
      </trkpt>
      <trkpt lat="47.58372" lon="-3.08171">
        <ele>15.4</ele>
        <time>2021-08-04T09:36:20Z</time>
      </trkpt>
      <trkpt lat="47.58375" lon="-3.08172">
        <ele>15.4</ele>
        <time>2021-08-04T09:36:21Z</time>
      </trkpt>
      <trkpt lat="47.58378" lon="-3.08173">
        <ele>15.4</ele>
        <time>2021-08-04T09:36:22Z</time>
      </trkpt>
      <trkpt lat="47.58381" lon="-3.08174">
        <ele>15.4</ele>
        <time>2021-08-04T09:36:23Z</time>
      </trkpt>
      <trkpt lat="47.58384" lon="-3.08176">
        <ele>15.6</ele>
        <time>2021-08-04T09:36:24Z</time>
      </trkpt>
      <trkpt lat="47.58386" lon="-3.08177">
        <ele>15.6</ele>
        <time>2021-08-04T09:36:25Z</time>
      </trkpt>
      <trkpt lat="47.58389" lon="-3.08179">
        <ele>15.6</ele>
        <time>2021-08-04T09:36:26Z</time>
      </trkpt>
      <trkpt lat="47.58392" lon="-3.08181">
        <ele>15.8</ele>
        <time>2021-08-04T09:36:27Z</time>
      </trkpt>
      <trkpt lat="47.58395" lon="-3.08182">
        <ele>15.8</ele>
        <time>2021-08-04T09:36:28Z</time>
      </trkpt>
      <trkpt lat="47.58397" lon="-3.08184">
        <ele>15.8</ele>
        <time>2021-08-04T09:36:29Z</time>
      </trkpt>
      <trkpt lat="47.58399" lon="-3.08184">
        <ele>16</ele>
        <time>2021-08-04T09:36:30Z</time>
      </trkpt>
      <trkpt lat="47.58402" lon="-3.08184">
        <ele>16.2</ele>
        <time>2021-08-04T09:36:31Z</time>
      </trkpt>
      <trkpt lat="47.58404" lon="-3.08185">
        <ele>16.4</ele>
        <time>2021-08-04T09:36:32Z</time>
      </trkpt>
      <trkpt lat="47.58407" lon="-3.08187">
        <ele>17</ele>
        <time>2021-08-04T09:36:33Z</time>
      </trkpt>
      <trkpt lat="47.5841" lon="-3.0819">
        <ele>17</ele>
        <time>2021-08-04T09:36:34Z</time>
      </trkpt>
      <trkpt lat="47.58412" lon="-3.08193">
        <ele>17.2</ele>
        <time>2021-08-04T09:36:35Z</time>
      </trkpt>
      <trkpt lat="47.58414" lon="-3.08197">
        <ele>17.4</ele>
        <time>2021-08-04T09:36:36Z</time>
      </trkpt>
      <trkpt lat="47.58415" lon="-3.08199">
        <ele>17.4</ele>
        <time>2021-08-04T09:36:37Z</time>
      </trkpt>
      <trkpt lat="47.58418" lon="-3.08201">
        <ele>17.4</ele>
        <time>2021-08-04T09:36:38Z</time>
      </trkpt>
      <trkpt lat="47.5842" lon="-3.08205">
        <ele>17.4</ele>
        <time>2021-08-04T09:36:39Z</time>
      </trkpt>
      <trkpt lat="47.58422" lon="-3.08209">
        <ele>17.4</ele>
        <time>2021-08-04T09:36:40Z</time>
      </trkpt>
      <trkpt lat="47.58425" lon="-3.08213">
        <ele>17.4</ele>
        <time>2021-08-04T09:36:41Z</time>
      </trkpt>
      <trkpt lat="47.58428" lon="-3.08218">
        <ele>17.4</ele>
        <time>2021-08-04T09:36:42Z</time>
      </trkpt>
      <trkpt lat="47.5843" lon="-3.08223">
        <ele>17.4</ele>
        <time>2021-08-04T09:36:43Z</time>
      </trkpt>
      <trkpt lat="47.58433" lon="-3.08228">
        <ele>17.4</ele>
        <time>2021-08-04T09:36:44Z</time>
      </trkpt>
      <trkpt lat="47.58436" lon="-3.08233">
        <ele>17.4</ele>
        <time>2021-08-04T09:36:45Z</time>
      </trkpt>
      <trkpt lat="47.58439" lon="-3.08238">
        <ele>17.4</ele>
        <time>2021-08-04T09:36:46Z</time>
      </trkpt>
      <trkpt lat="47.58441" lon="-3.08244">
        <ele>17.4</ele>
        <time>2021-08-04T09:36:47Z</time>
      </trkpt>
      <trkpt lat="47.58444" lon="-3.0825">
        <ele>17.4</ele>
        <time>2021-08-04T09:36:48Z</time>
      </trkpt>
      <trkpt lat="47.58447" lon="-3.08256">
        <ele>17.4</ele>
        <time>2021-08-04T09:36:49Z</time>
      </trkpt>
      <trkpt lat="47.5845" lon="-3.08262">
        <ele>17.4</ele>
        <time>2021-08-04T09:36:50Z</time>
      </trkpt>
      <trkpt lat="47.58453" lon="-3.08269">
        <ele>17.4</ele>
        <time>2021-08-04T09:36:51Z</time>
      </trkpt>
      <trkpt lat="47.58457" lon="-3.08275">
        <ele>17.4</ele>
        <time>2021-08-04T09:36:52Z</time>
      </trkpt>
      <trkpt lat="47.5846" lon="-3.08282">
        <ele>17.4</ele>
        <time>2021-08-04T09:36:53Z</time>
      </trkpt>
      <trkpt lat="47.58463" lon="-3.08289">
        <ele>17.2</ele>
        <time>2021-08-04T09:36:54Z</time>
      </trkpt>
      <trkpt lat="47.58466" lon="-3.08295">
        <ele>17.2</ele>
        <time>2021-08-04T09:36:55Z</time>
      </trkpt>
      <trkpt lat="47.5847" lon="-3.08302">
        <ele>17.2</ele>
        <time>2021-08-04T09:36:56Z</time>
      </trkpt>
      <trkpt lat="47.58473" lon="-3.08309">
        <ele>17</ele>
        <time>2021-08-04T09:36:57Z</time>
      </trkpt>
      <trkpt lat="47.58476" lon="-3.08316">
        <ele>17</ele>
        <time>2021-08-04T09:36:58Z</time>
      </trkpt>
      <trkpt lat="47.58479" lon="-3.08323">
        <ele>17</ele>
        <time>2021-08-04T09:36:59Z</time>
      </trkpt>
      <trkpt lat="47.58482" lon="-3.08329">
        <ele>17</ele>
        <time>2021-08-04T09:37:00Z</time>
      </trkpt>
      <trkpt lat="47.58486" lon="-3.08335">
        <ele>17</ele>
        <time>2021-08-04T09:37:01Z</time>
      </trkpt>
      <trkpt lat="47.58489" lon="-3.0834">
        <ele>17</ele>
        <time>2021-08-04T09:37:02Z</time>
      </trkpt>
      <trkpt lat="47.58493" lon="-3.08344">
        <ele>17</ele>
        <time>2021-08-04T09:37:03Z</time>
      </trkpt>
      <trkpt lat="47.58496" lon="-3.08347">
        <ele>17</ele>
        <time>2021-08-04T09:37:04Z</time>
      </trkpt>
      <trkpt lat="47.58497" lon="-3.08348">
        <ele>17</ele>
        <time>2021-08-04T09:37:05Z</time>
      </trkpt>
      <trkpt lat="47.58499" lon="-3.08349">
        <ele>17</ele>
        <time>2021-08-04T09:37:06Z</time>
      </trkpt>
      <trkpt lat="47.58499" lon="-3.08349">
        <ele>17</ele>
        <time>2021-08-04T09:37:07Z</time>
      </trkpt>
      <trkpt lat="47.58501" lon="-3.08351">
        <ele>17.2</ele>
        <time>2021-08-04T09:37:09Z</time>
      </trkpt>
      <trkpt lat="47.58501" lon="-3.08352">
        <ele>17.2</ele>
        <time>2021-08-04T09:37:10Z</time>
      </trkpt>
      <trkpt lat="47.58502" lon="-3.08353">
        <ele>17.4</ele>
        <time>2021-08-04T09:37:11Z</time>
      </trkpt>
      <trkpt lat="47.58503" lon="-3.08355">
        <ele>17.6</ele>
        <time>2021-08-04T09:37:12Z</time>
      </trkpt>
      <trkpt lat="47.58505" lon="-3.08356">
        <ele>17.8</ele>
        <time>2021-08-04T09:37:13Z</time>
      </trkpt>
      <trkpt lat="47.58507" lon="-3.08357">
        <ele>18.2</ele>
        <time>2021-08-04T09:37:14Z</time>
      </trkpt>
      <trkpt lat="47.58509" lon="-3.08358">
        <ele>18.4</ele>
        <time>2021-08-04T09:37:15Z</time>
      </trkpt>
      <trkpt lat="47.58512" lon="-3.08359">
        <ele>18.4</ele>
        <time>2021-08-04T09:37:16Z</time>
      </trkpt>
      <trkpt lat="47.58515" lon="-3.08359">
        <ele>18.6</ele>
        <time>2021-08-04T09:37:17Z</time>
      </trkpt>
      <trkpt lat="47.58518" lon="-3.0836">
        <ele>18.6</ele>
        <time>2021-08-04T09:37:18Z</time>
      </trkpt>
      <trkpt lat="47.58521" lon="-3.08361">
        <ele>18.6</ele>
        <time>2021-08-04T09:37:19Z</time>
      </trkpt>
      <trkpt lat="47.58524" lon="-3.08363">
        <ele>18.8</ele>
        <time>2021-08-04T09:37:20Z</time>
      </trkpt>
      <trkpt lat="47.58528" lon="-3.08364">
        <ele>18.8</ele>
        <time>2021-08-04T09:37:21Z</time>
      </trkpt>
      <trkpt lat="47.58532" lon="-3.08365">
        <ele>18.8</ele>
        <time>2021-08-04T09:37:22Z</time>
      </trkpt>
      <trkpt lat="47.58535" lon="-3.08366">
        <ele>18.8</ele>
        <time>2021-08-04T09:37:23Z</time>
      </trkpt>
      <trkpt lat="47.58539" lon="-3.08367">
        <ele>18.8</ele>
        <time>2021-08-04T09:37:24Z</time>
      </trkpt>
      <trkpt lat="47.58543" lon="-3.08368">
        <ele>18.8</ele>
        <time>2021-08-04T09:37:25Z</time>
      </trkpt>
      <trkpt lat="47.58547" lon="-3.08369">
        <ele>18.8</ele>
        <time>2021-08-04T09:37:26Z</time>
      </trkpt>
      <trkpt lat="47.58551" lon="-3.08369">
        <ele>18.6</ele>
        <time>2021-08-04T09:37:27Z</time>
      </trkpt>
      <trkpt lat="47.58555" lon="-3.0837">
        <ele>18.6</ele>
        <time>2021-08-04T09:37:28Z</time>
      </trkpt>
      <trkpt lat="47.58558" lon="-3.08371">
        <ele>18.6</ele>
        <time>2021-08-04T09:37:29Z</time>
      </trkpt>
      <trkpt lat="47.58562" lon="-3.08372">
        <ele>18.6</ele>
        <time>2021-08-04T09:37:30Z</time>
      </trkpt>
      <trkpt lat="47.58565" lon="-3.08372">
        <ele>18.8</ele>
        <time>2021-08-04T09:37:31Z</time>
      </trkpt>
      <trkpt lat="47.58568" lon="-3.08373">
        <ele>18.8</ele>
        <time>2021-08-04T09:37:32Z</time>
      </trkpt>
      <trkpt lat="47.58572" lon="-3.08373">
        <ele>18.8</ele>
        <time>2021-08-04T09:37:33Z</time>
      </trkpt>
      <trkpt lat="47.58575" lon="-3.08374">
        <ele>18.8</ele>
        <time>2021-08-04T09:37:34Z</time>
      </trkpt>
      <trkpt lat="47.58578" lon="-3.08375">
        <ele>18.8</ele>
        <time>2021-08-04T09:37:35Z</time>
      </trkpt>
      <trkpt lat="47.58582" lon="-3.08376">
        <ele>18.8</ele>
        <time>2021-08-04T09:37:36Z</time>
      </trkpt>
      <trkpt lat="47.58585" lon="-3.08377">
        <ele>18.8</ele>
        <time>2021-08-04T09:37:37Z</time>
      </trkpt>
      <trkpt lat="47.58589" lon="-3.08377">
        <ele>18.8</ele>
        <time>2021-08-04T09:37:38Z</time>
      </trkpt>
      <trkpt lat="47.58593" lon="-3.08378">
        <ele>18.8</ele>
        <time>2021-08-04T09:37:39Z</time>
      </trkpt>
      <trkpt lat="47.58596" lon="-3.08379">
        <ele>19.2</ele>
        <time>2021-08-04T09:37:40Z</time>
      </trkpt>
      <trkpt lat="47.586" lon="-3.08379">
        <ele>19.2</ele>
        <time>2021-08-04T09:37:41Z</time>
      </trkpt>
      <trkpt lat="47.58604" lon="-3.0838">
        <ele>19.4</ele>
        <time>2021-08-04T09:37:42Z</time>
      </trkpt>
      <trkpt lat="47.58607" lon="-3.0838">
        <ele>19.4</ele>
        <time>2021-08-04T09:37:43Z</time>
      </trkpt>
      <trkpt lat="47.58611" lon="-3.08381">
        <ele>19.6</ele>
        <time>2021-08-04T09:37:44Z</time>
      </trkpt>
      <trkpt lat="47.58614" lon="-3.08382">
        <ele>19.6</ele>
        <time>2021-08-04T09:37:45Z</time>
      </trkpt>
      <trkpt lat="47.58618" lon="-3.08383">
        <ele>19.6</ele>
        <time>2021-08-04T09:37:46Z</time>
      </trkpt>
      <trkpt lat="47.58621" lon="-3.08385">
        <ele>19.6</ele>
        <time>2021-08-04T09:37:47Z</time>
      </trkpt>
      <trkpt lat="47.58625" lon="-3.08386">
        <ele>19.6</ele>
        <time>2021-08-04T09:37:48Z</time>
      </trkpt>
      <trkpt lat="47.5863" lon="-3.08387">
        <ele>19.6</ele>
        <time>2021-08-04T09:37:49Z</time>
      </trkpt>
      <trkpt lat="47.58634" lon="-3.08388">
        <ele>19.6</ele>
        <time>2021-08-04T09:37:50Z</time>
      </trkpt>
      <trkpt lat="47.58639" lon="-3.0839">
        <ele>19.4</ele>
        <time>2021-08-04T09:37:51Z</time>
      </trkpt>
      <trkpt lat="47.58644" lon="-3.08391">
        <ele>19.4</ele>
        <time>2021-08-04T09:37:52Z</time>
      </trkpt>
      <trkpt lat="47.58648" lon="-3.08392">
        <ele>19.4</ele>
        <time>2021-08-04T09:37:53Z</time>
      </trkpt>
      <trkpt lat="47.58653" lon="-3.08393">
        <ele>19.2</ele>
        <time>2021-08-04T09:37:54Z</time>
      </trkpt>
      <trkpt lat="47.58657" lon="-3.08394">
        <ele>19.2</ele>
        <time>2021-08-04T09:37:55Z</time>
      </trkpt>
      <trkpt lat="47.58662" lon="-3.08394">
        <ele>19.2</ele>
        <time>2021-08-04T09:37:56Z</time>
      </trkpt>
      <trkpt lat="47.58667" lon="-3.08395">
        <ele>19</ele>
        <time>2021-08-04T09:37:57Z</time>
      </trkpt>
      <trkpt lat="47.58671" lon="-3.08396">
        <ele>19</ele>
        <time>2021-08-04T09:37:58Z</time>
      </trkpt>
      <trkpt lat="47.58675" lon="-3.08397">
        <ele>19</ele>
        <time>2021-08-04T09:37:59Z</time>
      </trkpt>
      <trkpt lat="47.58678" lon="-3.08398">
        <ele>19</ele>
        <time>2021-08-04T09:38:00Z</time>
      </trkpt>
      <trkpt lat="47.58682" lon="-3.08399">
        <ele>18.8</ele>
        <time>2021-08-04T09:38:01Z</time>
      </trkpt>
      <trkpt lat="47.58687" lon="-3.08399">
        <ele>18.8</ele>
        <time>2021-08-04T09:38:02Z</time>
      </trkpt>
      <trkpt lat="47.58691" lon="-3.084">
        <ele>18.8</ele>
        <time>2021-08-04T09:38:03Z</time>
      </trkpt>
      <trkpt lat="47.58696" lon="-3.08401">
        <ele>18.8</ele>
        <time>2021-08-04T09:38:04Z</time>
      </trkpt>
      <trkpt lat="47.58701" lon="-3.08402">
        <ele>18.6</ele>
        <time>2021-08-04T09:38:05Z</time>
      </trkpt>
      <trkpt lat="47.58706" lon="-3.08403">
        <ele>18.6</ele>
        <time>2021-08-04T09:38:06Z</time>
      </trkpt>
      <trkpt lat="47.58711" lon="-3.08405">
        <ele>18.6</ele>
        <time>2021-08-04T09:38:07Z</time>
      </trkpt>
      <trkpt lat="47.58716" lon="-3.08406">
        <ele>18.2</ele>
        <time>2021-08-04T09:38:08Z</time>
      </trkpt>
      <trkpt lat="47.58721" lon="-3.08408">
        <ele>18</ele>
        <time>2021-08-04T09:38:09Z</time>
      </trkpt>
      <trkpt lat="47.58726" lon="-3.08409">
        <ele>18</ele>
        <time>2021-08-04T09:38:10Z</time>
      </trkpt>
      <trkpt lat="47.58732" lon="-3.0841">
        <ele>17.8</ele>
        <time>2021-08-04T09:38:11Z</time>
      </trkpt>
      <trkpt lat="47.58737" lon="-3.08411">
        <ele>17.8</ele>
        <time>2021-08-04T09:38:12Z</time>
      </trkpt>
      <trkpt lat="47.58742" lon="-3.08412">
        <ele>17.6</ele>
        <time>2021-08-04T09:38:13Z</time>
      </trkpt>
      <trkpt lat="47.58748" lon="-3.08413">
        <ele>17.6</ele>
        <time>2021-08-04T09:38:14Z</time>
      </trkpt>
      <trkpt lat="47.58753" lon="-3.08415">
        <ele>17.4</ele>
        <time>2021-08-04T09:38:15Z</time>
      </trkpt>
      <trkpt lat="47.58758" lon="-3.08416">
        <ele>17.2</ele>
        <time>2021-08-04T09:38:16Z</time>
      </trkpt>
      <trkpt lat="47.58763" lon="-3.08417">
        <ele>17.2</ele>
        <time>2021-08-04T09:38:17Z</time>
      </trkpt>
      <trkpt lat="47.58768" lon="-3.08419">
        <ele>17</ele>
        <time>2021-08-04T09:38:18Z</time>
      </trkpt>
      <trkpt lat="47.58774" lon="-3.0842">
        <ele>17</ele>
        <time>2021-08-04T09:38:19Z</time>
      </trkpt>
      <trkpt lat="47.58779" lon="-3.08422">
        <ele>17</ele>
        <time>2021-08-04T09:38:20Z</time>
      </trkpt>
      <trkpt lat="47.58785" lon="-3.08423">
        <ele>16.8</ele>
        <time>2021-08-04T09:38:21Z</time>
      </trkpt>
      <trkpt lat="47.5879" lon="-3.08424">
        <ele>16.8</ele>
        <time>2021-08-04T09:38:22Z</time>
      </trkpt>
      <trkpt lat="47.58795" lon="-3.08426">
        <ele>16.8</ele>
        <time>2021-08-04T09:38:23Z</time>
      </trkpt>
      <trkpt lat="47.588" lon="-3.08427">
        <ele>16.8</ele>
        <time>2021-08-04T09:38:24Z</time>
      </trkpt>
      <trkpt lat="47.58805" lon="-3.08429">
        <ele>16.8</ele>
        <time>2021-08-04T09:38:25Z</time>
      </trkpt>
      <trkpt lat="47.58811" lon="-3.08431">
        <ele>16.8</ele>
        <time>2021-08-04T09:38:26Z</time>
      </trkpt>
      <trkpt lat="47.58816" lon="-3.08432">
        <ele>16.8</ele>
        <time>2021-08-04T09:38:27Z</time>
      </trkpt>
      <trkpt lat="47.58822" lon="-3.08434">
        <ele>16.6</ele>
        <time>2021-08-04T09:38:28Z</time>
      </trkpt>
      <trkpt lat="47.58827" lon="-3.08435">
        <ele>16.6</ele>
        <time>2021-08-04T09:38:29Z</time>
      </trkpt>
      <trkpt lat="47.58832" lon="-3.08437">
        <ele>16.6</ele>
        <time>2021-08-04T09:38:30Z</time>
      </trkpt>
      <trkpt lat="47.58838" lon="-3.08439">
        <ele>16.4</ele>
        <time>2021-08-04T09:38:31Z</time>
      </trkpt>
      <trkpt lat="47.58843" lon="-3.0844">
        <ele>16.4</ele>
        <time>2021-08-04T09:38:32Z</time>
      </trkpt>
      <trkpt lat="47.58848" lon="-3.08442">
        <ele>16.4</ele>
        <time>2021-08-04T09:38:33Z</time>
      </trkpt>
      <trkpt lat="47.58853" lon="-3.08443">
        <ele>16.4</ele>
        <time>2021-08-04T09:38:34Z</time>
      </trkpt>
      <trkpt lat="47.58858" lon="-3.08445">
        <ele>16.4</ele>
        <time>2021-08-04T09:38:35Z</time>
      </trkpt>
      <trkpt lat="47.58863" lon="-3.08446">
        <ele>16.4</ele>
        <time>2021-08-04T09:38:36Z</time>
      </trkpt>
      <trkpt lat="47.58868" lon="-3.08448">
        <ele>16.4</ele>
        <time>2021-08-04T09:38:37Z</time>
      </trkpt>
      <trkpt lat="47.58873" lon="-3.0845">
        <ele>16.2</ele>
        <time>2021-08-04T09:38:38Z</time>
      </trkpt>
      <trkpt lat="47.58878" lon="-3.08451">
        <ele>16.2</ele>
        <time>2021-08-04T09:38:39Z</time>
      </trkpt>
      <trkpt lat="47.58883" lon="-3.08453">
        <ele>16.2</ele>
        <time>2021-08-04T09:38:40Z</time>
      </trkpt>
      <trkpt lat="47.58889" lon="-3.08454">
        <ele>16.2</ele>
        <time>2021-08-04T09:38:41Z</time>
      </trkpt>
      <trkpt lat="47.58894" lon="-3.08456">
        <ele>16.2</ele>
        <time>2021-08-04T09:38:42Z</time>
      </trkpt>
      <trkpt lat="47.58899" lon="-3.08458">
        <ele>16.2</ele>
        <time>2021-08-04T09:38:43Z</time>
      </trkpt>
      <trkpt lat="47.58904" lon="-3.0846">
        <ele>16.2</ele>
        <time>2021-08-04T09:38:44Z</time>
      </trkpt>
      <trkpt lat="47.58909" lon="-3.08461">
        <ele>16.2</ele>
        <time>2021-08-04T09:38:45Z</time>
      </trkpt>
      <trkpt lat="47.58915" lon="-3.08463">
        <ele>16.2</ele>
        <time>2021-08-04T09:38:46Z</time>
      </trkpt>
      <trkpt lat="47.5892" lon="-3.08465">
        <ele>16.2</ele>
        <time>2021-08-04T09:38:47Z</time>
      </trkpt>
      <trkpt lat="47.58925" lon="-3.08467">
        <ele>16.2</ele>
        <time>2021-08-04T09:38:48Z</time>
      </trkpt>
      <trkpt lat="47.5893" lon="-3.08468">
        <ele>16.2</ele>
        <time>2021-08-04T09:38:49Z</time>
      </trkpt>
      <trkpt lat="47.58934" lon="-3.0847">
        <ele>16.2</ele>
        <time>2021-08-04T09:38:50Z</time>
      </trkpt>
      <trkpt lat="47.58939" lon="-3.08471">
        <ele>16.2</ele>
        <time>2021-08-04T09:38:51Z</time>
      </trkpt>
      <trkpt lat="47.58944" lon="-3.08473">
        <ele>16.2</ele>
        <time>2021-08-04T09:38:52Z</time>
      </trkpt>
      <trkpt lat="47.58949" lon="-3.08474">
        <ele>16.2</ele>
        <time>2021-08-04T09:38:53Z</time>
      </trkpt>
      <trkpt lat="47.58954" lon="-3.08476">
        <ele>16.2</ele>
        <time>2021-08-04T09:38:54Z</time>
      </trkpt>
      <trkpt lat="47.58958" lon="-3.08477">
        <ele>16.2</ele>
        <time>2021-08-04T09:38:55Z</time>
      </trkpt>
      <trkpt lat="47.58962" lon="-3.08478">
        <ele>16.2</ele>
        <time>2021-08-04T09:38:56Z</time>
      </trkpt>
      <trkpt lat="47.58966" lon="-3.08479">
        <ele>16.2</ele>
        <time>2021-08-04T09:38:57Z</time>
      </trkpt>
      <trkpt lat="47.58971" lon="-3.0848">
        <ele>16.2</ele>
        <time>2021-08-04T09:38:58Z</time>
      </trkpt>
      <trkpt lat="47.58975" lon="-3.08481">
        <ele>16</ele>
        <time>2021-08-04T09:38:59Z</time>
      </trkpt>
      <trkpt lat="47.5898" lon="-3.08482">
        <ele>16</ele>
        <time>2021-08-04T09:39:00Z</time>
      </trkpt>
      <trkpt lat="47.58985" lon="-3.08484">
        <ele>16</ele>
        <time>2021-08-04T09:39:01Z</time>
      </trkpt>
      <trkpt lat="47.5899" lon="-3.08485">
        <ele>16</ele>
        <time>2021-08-04T09:39:02Z</time>
      </trkpt>
      <trkpt lat="47.58995" lon="-3.08485">
        <ele>16.2</ele>
        <time>2021-08-04T09:39:03Z</time>
      </trkpt>
      <trkpt lat="47.59" lon="-3.08486">
        <ele>16.2</ele>
        <time>2021-08-04T09:39:04Z</time>
      </trkpt>
      <trkpt lat="47.59005" lon="-3.08485">
        <ele>16.2</ele>
        <time>2021-08-04T09:39:05Z</time>
      </trkpt>
      <trkpt lat="47.5901" lon="-3.08484">
        <ele>16</ele>
        <time>2021-08-04T09:39:06Z</time>
      </trkpt>
      <trkpt lat="47.59015" lon="-3.08483">
        <ele>16</ele>
        <time>2021-08-04T09:39:07Z</time>
      </trkpt>
      <trkpt lat="47.5902" lon="-3.08482">
        <ele>16</ele>
        <time>2021-08-04T09:39:08Z</time>
      </trkpt>
      <trkpt lat="47.59025" lon="-3.08481">
        <ele>16</ele>
        <time>2021-08-04T09:39:09Z</time>
      </trkpt>
      <trkpt lat="47.5903" lon="-3.0848">
        <ele>16</ele>
        <time>2021-08-04T09:39:10Z</time>
      </trkpt>
      <trkpt lat="47.59035" lon="-3.08478">
        <ele>16</ele>
        <time>2021-08-04T09:39:11Z</time>
      </trkpt>
      <trkpt lat="47.5904" lon="-3.08476">
        <ele>16</ele>
        <time>2021-08-04T09:39:12Z</time>
      </trkpt>
      <trkpt lat="47.59045" lon="-3.08474">
        <ele>16</ele>
        <time>2021-08-04T09:39:13Z</time>
      </trkpt>
      <trkpt lat="47.5905" lon="-3.0847">
        <ele>16</ele>
        <time>2021-08-04T09:39:14Z</time>
      </trkpt>
      <trkpt lat="47.59055" lon="-3.08467">
        <ele>16</ele>
        <time>2021-08-04T09:39:15Z</time>
      </trkpt>
      <trkpt lat="47.59059" lon="-3.08464">
        <ele>16</ele>
        <time>2021-08-04T09:39:16Z</time>
      </trkpt>
      <trkpt lat="47.59064" lon="-3.08461">
        <ele>16</ele>
        <time>2021-08-04T09:39:17Z</time>
      </trkpt>
      <trkpt lat="47.59068" lon="-3.08457">
        <ele>16</ele>
        <time>2021-08-04T09:39:18Z</time>
      </trkpt>
      <trkpt lat="47.59072" lon="-3.08453">
        <ele>16</ele>
        <time>2021-08-04T09:39:19Z</time>
      </trkpt>
      <trkpt lat="47.59076" lon="-3.0845">
        <ele>16</ele>
        <time>2021-08-04T09:39:20Z</time>
      </trkpt>
      <trkpt lat="47.59079" lon="-3.08446">
        <ele>16</ele>
        <time>2021-08-04T09:39:21Z</time>
      </trkpt>
      <trkpt lat="47.59082" lon="-3.08442">
        <ele>16</ele>
        <time>2021-08-04T09:39:22Z</time>
      </trkpt>
      <trkpt lat="47.59085" lon="-3.08438">
        <ele>16.2</ele>
        <time>2021-08-04T09:39:23Z</time>
      </trkpt>
      <trkpt lat="47.59088" lon="-3.08434">
        <ele>16.2</ele>
        <time>2021-08-04T09:39:24Z</time>
      </trkpt>
      <trkpt lat="47.59091" lon="-3.0843">
        <ele>16.4</ele>
        <time>2021-08-04T09:39:25Z</time>
      </trkpt>
      <trkpt lat="47.59093" lon="-3.08426">
        <ele>16.4</ele>
        <time>2021-08-04T09:39:26Z</time>
      </trkpt>
      <trkpt lat="47.59097" lon="-3.08422">
        <ele>16.6</ele>
        <time>2021-08-04T09:39:27Z</time>
      </trkpt>
      <trkpt lat="47.59099" lon="-3.08417">
        <ele>16.6</ele>
        <time>2021-08-04T09:39:28Z</time>
      </trkpt>
      <trkpt lat="47.59102" lon="-3.08413">
        <ele>16.6</ele>
        <time>2021-08-04T09:39:29Z</time>
      </trkpt>
      <trkpt lat="47.59104" lon="-3.08409">
        <ele>16.8</ele>
        <time>2021-08-04T09:39:30Z</time>
      </trkpt>
      <trkpt lat="47.59107" lon="-3.08404">
        <ele>16.8</ele>
        <time>2021-08-04T09:39:31Z</time>
      </trkpt>
      <trkpt lat="47.5911" lon="-3.084">
        <ele>16.8</ele>
        <time>2021-08-04T09:39:32Z</time>
      </trkpt>
      <trkpt lat="47.59113" lon="-3.08396">
        <ele>17</ele>
        <time>2021-08-04T09:39:33Z</time>
      </trkpt>
      <trkpt lat="47.59115" lon="-3.08391">
        <ele>17.2</ele>
        <time>2021-08-04T09:39:34Z</time>
      </trkpt>
      <trkpt lat="47.59119" lon="-3.08387">
        <ele>17.2</ele>
        <time>2021-08-04T09:39:35Z</time>
      </trkpt>
      <trkpt lat="47.59121" lon="-3.08384">
        <ele>17.2</ele>
        <time>2021-08-04T09:39:36Z</time>
      </trkpt>
      <trkpt lat="47.59124" lon="-3.0838">
        <ele>17.6</ele>
        <time>2021-08-04T09:39:37Z</time>
      </trkpt>
      <trkpt lat="47.59126" lon="-3.08376">
        <ele>17.8</ele>
        <time>2021-08-04T09:39:38Z</time>
      </trkpt>
      <trkpt lat="47.59128" lon="-3.08372">
        <ele>17.8</ele>
        <time>2021-08-04T09:39:39Z</time>
      </trkpt>
      <trkpt lat="47.5913" lon="-3.08369">
        <ele>18</ele>
        <time>2021-08-04T09:39:40Z</time>
      </trkpt>
      <trkpt lat="47.59133" lon="-3.08365">
        <ele>18.2</ele>
        <time>2021-08-04T09:39:41Z</time>
      </trkpt>
      <trkpt lat="47.59135" lon="-3.08362">
        <ele>18.4</ele>
        <time>2021-08-04T09:39:42Z</time>
      </trkpt>
      <trkpt lat="47.59137" lon="-3.08359">
        <ele>18.4</ele>
        <time>2021-08-04T09:39:43Z</time>
      </trkpt>
      <trkpt lat="47.59139" lon="-3.08355">
        <ele>18.6</ele>
        <time>2021-08-04T09:39:44Z</time>
      </trkpt>
      <trkpt lat="47.59141" lon="-3.08352">
        <ele>18.6</ele>
        <time>2021-08-04T09:39:45Z</time>
      </trkpt>
      <trkpt lat="47.59144" lon="-3.08348">
        <ele>18.6</ele>
        <time>2021-08-04T09:39:46Z</time>
      </trkpt>
      <trkpt lat="47.59146" lon="-3.08345">
        <ele>18.8</ele>
        <time>2021-08-04T09:39:47Z</time>
      </trkpt>
      <trkpt lat="47.59148" lon="-3.08341">
        <ele>18.8</ele>
        <time>2021-08-04T09:39:48Z</time>
      </trkpt>
      <trkpt lat="47.59151" lon="-3.08338">
        <ele>19</ele>
        <time>2021-08-04T09:39:49Z</time>
      </trkpt>
      <trkpt lat="47.59153" lon="-3.08334">
        <ele>19</ele>
        <time>2021-08-04T09:39:50Z</time>
      </trkpt>
      <trkpt lat="47.59156" lon="-3.08331">
        <ele>19.2</ele>
        <time>2021-08-04T09:39:51Z</time>
      </trkpt>
      <trkpt lat="47.59158" lon="-3.08327">
        <ele>19.2</ele>
        <time>2021-08-04T09:39:52Z</time>
      </trkpt>
      <trkpt lat="47.5916" lon="-3.08323">
        <ele>19.2</ele>
        <time>2021-08-04T09:39:53Z</time>
      </trkpt>
      <trkpt lat="47.59163" lon="-3.0832">
        <ele>19.2</ele>
        <time>2021-08-04T09:39:54Z</time>
      </trkpt>
      <trkpt lat="47.59165" lon="-3.08316">
        <ele>19.4</ele>
        <time>2021-08-04T09:39:55Z</time>
      </trkpt>
      <trkpt lat="47.59167" lon="-3.08312">
        <ele>19.4</ele>
        <time>2021-08-04T09:39:56Z</time>
      </trkpt>
      <trkpt lat="47.5917" lon="-3.08309">
        <ele>19.4</ele>
        <time>2021-08-04T09:39:57Z</time>
      </trkpt>
      <trkpt lat="47.59172" lon="-3.08305">
        <ele>19.4</ele>
        <time>2021-08-04T09:39:58Z</time>
      </trkpt>
      <trkpt lat="47.59174" lon="-3.08301">
        <ele>19.6</ele>
        <time>2021-08-04T09:39:59Z</time>
      </trkpt>
      <trkpt lat="47.59176" lon="-3.08297">
        <ele>19.8</ele>
        <time>2021-08-04T09:40:00Z</time>
      </trkpt>
      <trkpt lat="47.59178" lon="-3.08293">
        <ele>20</ele>
        <time>2021-08-04T09:40:01Z</time>
      </trkpt>
      <trkpt lat="47.5918" lon="-3.0829">
        <ele>20.2</ele>
        <time>2021-08-04T09:40:02Z</time>
      </trkpt>
      <trkpt lat="47.59182" lon="-3.08287">
        <ele>20.4</ele>
        <time>2021-08-04T09:40:03Z</time>
      </trkpt>
      <trkpt lat="47.59184" lon="-3.08285">
        <ele>20.4</ele>
        <time>2021-08-04T09:40:04Z</time>
      </trkpt>
      <trkpt lat="47.59186" lon="-3.08282">
        <ele>20.6</ele>
        <time>2021-08-04T09:40:05Z</time>
      </trkpt>
      <trkpt lat="47.59187" lon="-3.08279">
        <ele>20.6</ele>
        <time>2021-08-04T09:40:06Z</time>
      </trkpt>
      <trkpt lat="47.59188" lon="-3.08276">
        <ele>20.6</ele>
        <time>2021-08-04T09:40:07Z</time>
      </trkpt>
      <trkpt lat="47.5919" lon="-3.08273">
        <ele>20.6</ele>
        <time>2021-08-04T09:40:08Z</time>
      </trkpt>
      <trkpt lat="47.59192" lon="-3.0827">
        <ele>20.6</ele>
        <time>2021-08-04T09:40:09Z</time>
      </trkpt>
      <trkpt lat="47.59194" lon="-3.08266">
        <ele>20.6</ele>
        <time>2021-08-04T09:40:10Z</time>
      </trkpt>
      <trkpt lat="47.59196" lon="-3.08263">
        <ele>20.6</ele>
        <time>2021-08-04T09:40:11Z</time>
      </trkpt>
      <trkpt lat="47.59198" lon="-3.08259">
        <ele>20.6</ele>
        <time>2021-08-04T09:40:12Z</time>
      </trkpt>
      <trkpt lat="47.592" lon="-3.08255">
        <ele>20.6</ele>
        <time>2021-08-04T09:40:13Z</time>
      </trkpt>
      <trkpt lat="47.59202" lon="-3.08251">
        <ele>20.4</ele>
        <time>2021-08-04T09:40:14Z</time>
      </trkpt>
      <trkpt lat="47.59205" lon="-3.08247">
        <ele>20.4</ele>
        <time>2021-08-04T09:40:15Z</time>
      </trkpt>
      <trkpt lat="47.59207" lon="-3.08242">
        <ele>20.4</ele>
        <time>2021-08-04T09:40:16Z</time>
      </trkpt>
      <trkpt lat="47.59209" lon="-3.08237">
        <ele>20.4</ele>
        <time>2021-08-04T09:40:17Z</time>
      </trkpt>
      <trkpt lat="47.59212" lon="-3.08232">
        <ele>20.2</ele>
        <time>2021-08-04T09:40:18Z</time>
      </trkpt>
      <trkpt lat="47.59214" lon="-3.08227">
        <ele>20</ele>
        <time>2021-08-04T09:40:19Z</time>
      </trkpt>
      <trkpt lat="47.59216" lon="-3.08221">
        <ele>19.8</ele>
        <time>2021-08-04T09:40:20Z</time>
      </trkpt>
      <trkpt lat="47.59218" lon="-3.08216">
        <ele>19.6</ele>
        <time>2021-08-04T09:40:21Z</time>
      </trkpt>
      <trkpt lat="47.5922" lon="-3.08211">
        <ele>19.6</ele>
        <time>2021-08-04T09:40:22Z</time>
      </trkpt>
      <trkpt lat="47.59221" lon="-3.08207">
        <ele>19.4</ele>
        <time>2021-08-04T09:40:23Z</time>
      </trkpt>
      <trkpt lat="47.59222" lon="-3.08204">
        <ele>19.4</ele>
        <time>2021-08-04T09:40:24Z</time>
      </trkpt>
      <trkpt lat="47.59222" lon="-3.082">
        <ele>19.4</ele>
        <time>2021-08-04T09:40:25Z</time>
      </trkpt>
      <trkpt lat="47.59223" lon="-3.08197">
        <ele>19.2</ele>
        <time>2021-08-04T09:40:26Z</time>
      </trkpt>
      <trkpt lat="47.59224" lon="-3.08194">
        <ele>19.2</ele>
        <time>2021-08-04T09:40:27Z</time>
      </trkpt>
      <trkpt lat="47.59225" lon="-3.0819">
        <ele>19.2</ele>
        <time>2021-08-04T09:40:28Z</time>
      </trkpt>
      <trkpt lat="47.59226" lon="-3.08187">
        <ele>19.2</ele>
        <time>2021-08-04T09:40:29Z</time>
      </trkpt>
      <trkpt lat="47.59227" lon="-3.08184">
        <ele>19.2</ele>
        <time>2021-08-04T09:40:30Z</time>
      </trkpt>
      <trkpt lat="47.59228" lon="-3.08181">
        <ele>19</ele>
        <time>2021-08-04T09:40:31Z</time>
      </trkpt>
      <trkpt lat="47.59229" lon="-3.08177">
        <ele>19</ele>
        <time>2021-08-04T09:40:32Z</time>
      </trkpt>
      <trkpt lat="47.59229" lon="-3.08174">
        <ele>19</ele>
        <time>2021-08-04T09:40:33Z</time>
      </trkpt>
      <trkpt lat="47.5923" lon="-3.08171">
        <ele>19</ele>
        <time>2021-08-04T09:40:34Z</time>
      </trkpt>
      <trkpt lat="47.59231" lon="-3.08168">
        <ele>19</ele>
        <time>2021-08-04T09:40:35Z</time>
      </trkpt>
      <trkpt lat="47.59232" lon="-3.08165">
        <ele>19</ele>
        <time>2021-08-04T09:40:36Z</time>
      </trkpt>
      <trkpt lat="47.59233" lon="-3.08161">
        <ele>19.2</ele>
        <time>2021-08-04T09:40:37Z</time>
      </trkpt>
      <trkpt lat="47.59234" lon="-3.08158">
        <ele>19.2</ele>
        <time>2021-08-04T09:40:38Z</time>
      </trkpt>
      <trkpt lat="47.59235" lon="-3.08155">
        <ele>19.2</ele>
        <time>2021-08-04T09:40:39Z</time>
      </trkpt>
      <trkpt lat="47.59236" lon="-3.08151">
        <ele>19.2</ele>
        <time>2021-08-04T09:40:40Z</time>
      </trkpt>
      <trkpt lat="47.59237" lon="-3.08147">
        <ele>19.2</ele>
        <time>2021-08-04T09:40:41Z</time>
      </trkpt>
      <trkpt lat="47.59237" lon="-3.08142">
        <ele>19.2</ele>
        <time>2021-08-04T09:40:42Z</time>
      </trkpt>
      <trkpt lat="47.59238" lon="-3.08137">
        <ele>19.2</ele>
        <time>2021-08-04T09:40:43Z</time>
      </trkpt>
      <trkpt lat="47.59238" lon="-3.08132">
        <ele>19.2</ele>
        <time>2021-08-04T09:40:44Z</time>
      </trkpt>
      <trkpt lat="47.59239" lon="-3.08128">
        <ele>19.2</ele>
        <time>2021-08-04T09:40:45Z</time>
      </trkpt>
      <trkpt lat="47.5924" lon="-3.08123">
        <ele>19</ele>
        <time>2021-08-04T09:40:46Z</time>
      </trkpt>
      <trkpt lat="47.59242" lon="-3.08119">
        <ele>19</ele>
        <time>2021-08-04T09:40:47Z</time>
      </trkpt>
      <trkpt lat="47.59244" lon="-3.08115">
        <ele>18.8</ele>
        <time>2021-08-04T09:40:48Z</time>
      </trkpt>
      <trkpt lat="47.59245" lon="-3.08111">
        <ele>18.6</ele>
        <time>2021-08-04T09:40:49Z</time>
      </trkpt>
      <trkpt lat="47.59246" lon="-3.08107">
        <ele>18.4</ele>
        <time>2021-08-04T09:40:50Z</time>
      </trkpt>
      <trkpt lat="47.59247" lon="-3.08103">
        <ele>18.2</ele>
        <time>2021-08-04T09:40:51Z</time>
      </trkpt>
      <trkpt lat="47.59247" lon="-3.08099">
        <ele>18</ele>
        <time>2021-08-04T09:40:52Z</time>
      </trkpt>
      <trkpt lat="47.59248" lon="-3.08095">
        <ele>18</ele>
        <time>2021-08-04T09:40:53Z</time>
      </trkpt>
      <trkpt lat="47.59249" lon="-3.08091">
        <ele>18</ele>
        <time>2021-08-04T09:40:54Z</time>
      </trkpt>
      <trkpt lat="47.5925" lon="-3.08087">
        <ele>18</ele>
        <time>2021-08-04T09:40:55Z</time>
      </trkpt>
      <trkpt lat="47.59251" lon="-3.08084">
        <ele>18</ele>
        <time>2021-08-04T09:40:56Z</time>
      </trkpt>
      <trkpt lat="47.59252" lon="-3.08081">
        <ele>18</ele>
        <time>2021-08-04T09:40:57Z</time>
      </trkpt>
      <trkpt lat="47.59253" lon="-3.08078">
        <ele>18</ele>
        <time>2021-08-04T09:40:58Z</time>
      </trkpt>
      <trkpt lat="47.59254" lon="-3.08074">
        <ele>18</ele>
        <time>2021-08-04T09:40:59Z</time>
      </trkpt>
      <trkpt lat="47.59254" lon="-3.08071">
        <ele>18</ele>
        <time>2021-08-04T09:41:00Z</time>
      </trkpt>
      <trkpt lat="47.59254" lon="-3.08067">
        <ele>18</ele>
        <time>2021-08-04T09:41:01Z</time>
      </trkpt>
      <trkpt lat="47.59254" lon="-3.08064">
        <ele>18</ele>
        <time>2021-08-04T09:41:02Z</time>
      </trkpt>
      <trkpt lat="47.59254" lon="-3.08062">
        <ele>18</ele>
        <time>2021-08-04T09:41:03Z</time>
      </trkpt>
      <trkpt lat="47.59254" lon="-3.08061">
        <ele>18.2</ele>
        <time>2021-08-04T09:41:04Z</time>
      </trkpt>
      <trkpt lat="47.59255" lon="-3.0806">
        <ele>18.2</ele>
        <time>2021-08-04T09:41:05Z</time>
      </trkpt>
      <trkpt lat="47.59255" lon="-3.08059">
        <ele>18.2</ele>
        <time>2021-08-04T09:41:06Z</time>
      </trkpt>
      <trkpt lat="47.59255" lon="-3.08057">
        <ele>18.2</ele>
        <time>2021-08-04T09:41:07Z</time>
      </trkpt>
      <trkpt lat="47.59253" lon="-3.08044">
        <ele>17.8</ele>
        <time>2021-08-04T09:44:58Z</time>
      </trkpt>
      <trkpt lat="47.59253" lon="-3.08041">
        <ele>17.8</ele>
        <time>2021-08-04T09:44:59Z</time>
      </trkpt>
      <trkpt lat="47.59254" lon="-3.08038">
        <ele>17.8</ele>
        <time>2021-08-04T09:45:00Z</time>
      </trkpt>
      <trkpt lat="47.59256" lon="-3.08035">
        <ele>17.8</ele>
        <time>2021-08-04T09:45:01Z</time>
      </trkpt>
      <trkpt lat="47.59258" lon="-3.08032">
        <ele>17.8</ele>
        <time>2021-08-04T09:45:02Z</time>
      </trkpt>
      <trkpt lat="47.59261" lon="-3.08029">
        <ele>17.8</ele>
        <time>2021-08-04T09:45:03Z</time>
      </trkpt>
      <trkpt lat="47.59263" lon="-3.08026">
        <ele>17.8</ele>
        <time>2021-08-04T09:45:04Z</time>
      </trkpt>
      <trkpt lat="47.59265" lon="-3.08023">
        <ele>17.8</ele>
        <time>2021-08-04T09:45:05Z</time>
      </trkpt>
      <trkpt lat="47.59266" lon="-3.0802">
        <ele>17.8</ele>
        <time>2021-08-04T09:45:06Z</time>
      </trkpt>
      <trkpt lat="47.59268" lon="-3.08018">
        <ele>17.8</ele>
        <time>2021-08-04T09:45:07Z</time>
      </trkpt>
      <trkpt lat="47.59269" lon="-3.08015">
        <ele>17.8</ele>
        <time>2021-08-04T09:45:08Z</time>
      </trkpt>
      <trkpt lat="47.5927" lon="-3.08013">
        <ele>17.8</ele>
        <time>2021-08-04T09:45:09Z</time>
      </trkpt>
      <trkpt lat="47.59272" lon="-3.08009">
        <ele>17.8</ele>
        <time>2021-08-04T09:45:10Z</time>
      </trkpt>
      <trkpt lat="47.59273" lon="-3.08006">
        <ele>17.8</ele>
        <time>2021-08-04T09:45:11Z</time>
      </trkpt>
      <trkpt lat="47.59275" lon="-3.08003">
        <ele>17.8</ele>
        <time>2021-08-04T09:45:12Z</time>
      </trkpt>
      <trkpt lat="47.59276" lon="-3.07999">
        <ele>17.8</ele>
        <time>2021-08-04T09:45:13Z</time>
      </trkpt>
      <trkpt lat="47.59277" lon="-3.07995">
        <ele>18</ele>
        <time>2021-08-04T09:45:14Z</time>
      </trkpt>
      <trkpt lat="47.59278" lon="-3.07991">
        <ele>18</ele>
        <time>2021-08-04T09:45:15Z</time>
      </trkpt>
      <trkpt lat="47.59278" lon="-3.07987">
        <ele>18</ele>
        <time>2021-08-04T09:45:16Z</time>
      </trkpt>
      <trkpt lat="47.59279" lon="-3.07982">
        <ele>18</ele>
        <time>2021-08-04T09:45:17Z</time>
      </trkpt>
      <trkpt lat="47.5928" lon="-3.07978">
        <ele>18</ele>
        <time>2021-08-04T09:45:18Z</time>
      </trkpt>
      <trkpt lat="47.59281" lon="-3.07974">
        <ele>18</ele>
        <time>2021-08-04T09:45:19Z</time>
      </trkpt>
      <trkpt lat="47.59282" lon="-3.07969">
        <ele>18.2</ele>
        <time>2021-08-04T09:45:20Z</time>
      </trkpt>
      <trkpt lat="47.59283" lon="-3.07965">
        <ele>18.2</ele>
        <time>2021-08-04T09:45:21Z</time>
      </trkpt>
      <trkpt lat="47.59285" lon="-3.0796">
        <ele>18.2</ele>
        <time>2021-08-04T09:45:22Z</time>
      </trkpt>
      <trkpt lat="47.59286" lon="-3.07956">
        <ele>18.2</ele>
        <time>2021-08-04T09:45:23Z</time>
      </trkpt>
      <trkpt lat="47.59287" lon="-3.07952">
        <ele>18.2</ele>
        <time>2021-08-04T09:45:24Z</time>
      </trkpt>
      <trkpt lat="47.59288" lon="-3.07947">
        <ele>18.2</ele>
        <time>2021-08-04T09:45:25Z</time>
      </trkpt>
      <trkpt lat="47.5929" lon="-3.07943">
        <ele>18.2</ele>
        <time>2021-08-04T09:45:26Z</time>
      </trkpt>
      <trkpt lat="47.59291" lon="-3.07938">
        <ele>18.2</ele>
        <time>2021-08-04T09:45:27Z</time>
      </trkpt>
      <trkpt lat="47.59292" lon="-3.07933">
        <ele>18.2</ele>
        <time>2021-08-04T09:45:28Z</time>
      </trkpt>
      <trkpt lat="47.59294" lon="-3.07928">
        <ele>18.2</ele>
        <time>2021-08-04T09:45:29Z</time>
      </trkpt>
      <trkpt lat="47.59296" lon="-3.07923">
        <ele>18.2</ele>
        <time>2021-08-04T09:45:30Z</time>
      </trkpt>
      <trkpt lat="47.59297" lon="-3.07917">
        <ele>18.4</ele>
        <time>2021-08-04T09:45:31Z</time>
      </trkpt>
      <trkpt lat="47.59299" lon="-3.07912">
        <ele>18.4</ele>
        <time>2021-08-04T09:45:32Z</time>
      </trkpt>
      <trkpt lat="47.59301" lon="-3.07907">
        <ele>18.6</ele>
        <time>2021-08-04T09:45:33Z</time>
      </trkpt>
      <trkpt lat="47.59302" lon="-3.07902">
        <ele>18.8</ele>
        <time>2021-08-04T09:45:34Z</time>
      </trkpt>
      <trkpt lat="47.59304" lon="-3.07897">
        <ele>18.8</ele>
        <time>2021-08-04T09:45:35Z</time>
      </trkpt>
      <trkpt lat="47.59306" lon="-3.07893">
        <ele>18.8</ele>
        <time>2021-08-04T09:45:36Z</time>
      </trkpt>
      <trkpt lat="47.59308" lon="-3.07888">
        <ele>18.8</ele>
        <time>2021-08-04T09:45:37Z</time>
      </trkpt>
      <trkpt lat="47.59309" lon="-3.07884">
        <ele>18.8</ele>
        <time>2021-08-04T09:45:38Z</time>
      </trkpt>
      <trkpt lat="47.59311" lon="-3.07879">
        <ele>18.8</ele>
        <time>2021-08-04T09:45:39Z</time>
      </trkpt>
      <trkpt lat="47.59312" lon="-3.07875">
        <ele>18.8</ele>
        <time>2021-08-04T09:45:40Z</time>
      </trkpt>
      <trkpt lat="47.59314" lon="-3.0787">
        <ele>19</ele>
        <time>2021-08-04T09:45:41Z</time>
      </trkpt>
      <trkpt lat="47.59315" lon="-3.07866">
        <ele>19</ele>
        <time>2021-08-04T09:45:42Z</time>
      </trkpt>
      <trkpt lat="47.59316" lon="-3.07861">
        <ele>19</ele>
        <time>2021-08-04T09:45:43Z</time>
      </trkpt>
      <trkpt lat="47.59318" lon="-3.07857">
        <ele>19</ele>
        <time>2021-08-04T09:45:44Z</time>
      </trkpt>
      <trkpt lat="47.59319" lon="-3.07853">
        <ele>19.2</ele>
        <time>2021-08-04T09:45:45Z</time>
      </trkpt>
      <trkpt lat="47.5932" lon="-3.07849">
        <ele>19.4</ele>
        <time>2021-08-04T09:45:46Z</time>
      </trkpt>
      <trkpt lat="47.59321" lon="-3.07845">
        <ele>19.4</ele>
        <time>2021-08-04T09:45:47Z</time>
      </trkpt>
      <trkpt lat="47.59322" lon="-3.07841">
        <ele>19.6</ele>
        <time>2021-08-04T09:45:48Z</time>
      </trkpt>
      <trkpt lat="47.59323" lon="-3.07838">
        <ele>19.6</ele>
        <time>2021-08-04T09:45:49Z</time>
      </trkpt>
      <trkpt lat="47.59325" lon="-3.07834">
        <ele>19.6</ele>
        <time>2021-08-04T09:45:50Z</time>
      </trkpt>
      <trkpt lat="47.59326" lon="-3.0783">
        <ele>19.6</ele>
        <time>2021-08-04T09:45:51Z</time>
      </trkpt>
      <trkpt lat="47.59327" lon="-3.07826">
        <ele>19.6</ele>
        <time>2021-08-04T09:45:52Z</time>
      </trkpt>
      <trkpt lat="47.59328" lon="-3.07822">
        <ele>19.6</ele>
        <time>2021-08-04T09:45:53Z</time>
      </trkpt>
      <trkpt lat="47.59329" lon="-3.07818">
        <ele>19.6</ele>
        <time>2021-08-04T09:45:54Z</time>
      </trkpt>
      <trkpt lat="47.59331" lon="-3.07813">
        <ele>19.6</ele>
        <time>2021-08-04T09:45:55Z</time>
      </trkpt>
      <trkpt lat="47.59332" lon="-3.07808">
        <ele>19.6</ele>
        <time>2021-08-04T09:45:56Z</time>
      </trkpt>
      <trkpt lat="47.59333" lon="-3.07803">
        <ele>19.6</ele>
        <time>2021-08-04T09:45:57Z</time>
      </trkpt>
      <trkpt lat="47.59335" lon="-3.07798">
        <ele>19.6</ele>
        <time>2021-08-04T09:45:58Z</time>
      </trkpt>
      <trkpt lat="47.59336" lon="-3.07792">
        <ele>19.6</ele>
        <time>2021-08-04T09:45:59Z</time>
      </trkpt>
      <trkpt lat="47.59337" lon="-3.07786">
        <ele>19.6</ele>
        <time>2021-08-04T09:46:00Z</time>
      </trkpt>
      <trkpt lat="47.59339" lon="-3.07781">
        <ele>19.6</ele>
        <time>2021-08-04T09:46:01Z</time>
      </trkpt>
      <trkpt lat="47.5934" lon="-3.07775">
        <ele>19.6</ele>
        <time>2021-08-04T09:46:02Z</time>
      </trkpt>
      <trkpt lat="47.59341" lon="-3.0777">
        <ele>19.6</ele>
        <time>2021-08-04T09:46:03Z</time>
      </trkpt>
      <trkpt lat="47.59343" lon="-3.07765">
        <ele>19.6</ele>
        <time>2021-08-04T09:46:04Z</time>
      </trkpt>
      <trkpt lat="47.59344" lon="-3.07761">
        <ele>19.4</ele>
        <time>2021-08-04T09:46:05Z</time>
      </trkpt>
      <trkpt lat="47.59345" lon="-3.07756">
        <ele>19.4</ele>
        <time>2021-08-04T09:46:06Z</time>
      </trkpt>
      <trkpt lat="47.59346" lon="-3.07751">
        <ele>19.2</ele>
        <time>2021-08-04T09:46:07Z</time>
      </trkpt>
      <trkpt lat="47.59348" lon="-3.07745">
        <ele>19</ele>
        <time>2021-08-04T09:46:08Z</time>
      </trkpt>
      <trkpt lat="47.59349" lon="-3.07738">
        <ele>18.8</ele>
        <time>2021-08-04T09:46:09Z</time>
      </trkpt>
      <trkpt lat="47.59351" lon="-3.07731">
        <ele>18.8</ele>
        <time>2021-08-04T09:46:10Z</time>
      </trkpt>
      <trkpt lat="47.59353" lon="-3.07724">
        <ele>18.6</ele>
        <time>2021-08-04T09:46:11Z</time>
      </trkpt>
      <trkpt lat="47.59355" lon="-3.07716">
        <ele>18.6</ele>
        <time>2021-08-04T09:46:12Z</time>
      </trkpt>
      <trkpt lat="47.59357" lon="-3.07708">
        <ele>18.4</ele>
        <time>2021-08-04T09:46:13Z</time>
      </trkpt>
      <trkpt lat="47.59359" lon="-3.07699">
        <ele>18.4</ele>
        <time>2021-08-04T09:46:14Z</time>
      </trkpt>
      <trkpt lat="47.5936" lon="-3.07691">
        <ele>18.2</ele>
        <time>2021-08-04T09:46:15Z</time>
      </trkpt>
      <trkpt lat="47.59362" lon="-3.07682">
        <ele>18.2</ele>
        <time>2021-08-04T09:46:16Z</time>
      </trkpt>
      <trkpt lat="47.59364" lon="-3.07672">
        <ele>18</ele>
        <time>2021-08-04T09:46:17Z</time>
      </trkpt>
      <trkpt lat="47.59366" lon="-3.07663">
        <ele>17.6</ele>
        <time>2021-08-04T09:46:18Z</time>
      </trkpt>
      <trkpt lat="47.59369" lon="-3.07653">
        <ele>17.2</ele>
        <time>2021-08-04T09:46:19Z</time>
      </trkpt>
      <trkpt lat="47.59371" lon="-3.07644">
        <ele>17</ele>
        <time>2021-08-04T09:46:20Z</time>
      </trkpt>
      <trkpt lat="47.59373" lon="-3.07634">
        <ele>16.6</ele>
        <time>2021-08-04T09:46:21Z</time>
      </trkpt>
      <trkpt lat="47.59376" lon="-3.07624">
        <ele>16.4</ele>
        <time>2021-08-04T09:46:22Z</time>
      </trkpt>
      <trkpt lat="47.59379" lon="-3.07613">
        <ele>16.2</ele>
        <time>2021-08-04T09:46:23Z</time>
      </trkpt>
      <trkpt lat="47.59382" lon="-3.07603">
        <ele>15.8</ele>
        <time>2021-08-04T09:46:24Z</time>
      </trkpt>
      <trkpt lat="47.59384" lon="-3.07594">
        <ele>15.6</ele>
        <time>2021-08-04T09:46:25Z</time>
      </trkpt>
      <trkpt lat="47.59387" lon="-3.07586">
        <ele>14.8</ele>
        <time>2021-08-04T09:46:26Z</time>
      </trkpt>
      <trkpt lat="47.59389" lon="-3.07578">
        <ele>14.6</ele>
        <time>2021-08-04T09:46:27Z</time>
      </trkpt>
      <trkpt lat="47.5939" lon="-3.07571">
        <ele>14.4</ele>
        <time>2021-08-04T09:46:28Z</time>
      </trkpt>
      <trkpt lat="47.59391" lon="-3.07563">
        <ele>14.2</ele>
        <time>2021-08-04T09:46:29Z</time>
      </trkpt>
      <trkpt lat="47.59392" lon="-3.07555">
        <ele>14</ele>
        <time>2021-08-04T09:46:30Z</time>
      </trkpt>
      <trkpt lat="47.59393" lon="-3.07546">
        <ele>14</ele>
        <time>2021-08-04T09:46:31Z</time>
      </trkpt>
      <trkpt lat="47.59396" lon="-3.07539">
        <ele>13.6</ele>
        <time>2021-08-04T09:46:32Z</time>
      </trkpt>
      <trkpt lat="47.59401" lon="-3.07533">
        <ele>13.6</ele>
        <time>2021-08-04T09:46:33Z</time>
      </trkpt>
      <trkpt lat="47.59406" lon="-3.07529">
        <ele>13.6</ele>
        <time>2021-08-04T09:46:34Z</time>
      </trkpt>
      <trkpt lat="47.59412" lon="-3.07524">
        <ele>13.4</ele>
        <time>2021-08-04T09:46:35Z</time>
      </trkpt>
      <trkpt lat="47.59418" lon="-3.0752">
        <ele>13.2</ele>
        <time>2021-08-04T09:46:36Z</time>
      </trkpt>
      <trkpt lat="47.59424" lon="-3.07516">
        <ele>13</ele>
        <time>2021-08-04T09:46:37Z</time>
      </trkpt>
      <trkpt lat="47.59429" lon="-3.07512">
        <ele>13</ele>
        <time>2021-08-04T09:46:38Z</time>
      </trkpt>
      <trkpt lat="47.59435" lon="-3.07507">
        <ele>12.6</ele>
        <time>2021-08-04T09:46:39Z</time>
      </trkpt>
      <trkpt lat="47.5944" lon="-3.07502">
        <ele>12.6</ele>
        <time>2021-08-04T09:46:40Z</time>
      </trkpt>
      <trkpt lat="47.59444" lon="-3.07495">
        <ele>12.4</ele>
        <time>2021-08-04T09:46:41Z</time>
      </trkpt>
      <trkpt lat="47.59446" lon="-3.07486">
        <ele>12.6</ele>
        <time>2021-08-04T09:46:42Z</time>
      </trkpt>
      <trkpt lat="47.59449" lon="-3.07478">
        <ele>12.6</ele>
        <time>2021-08-04T09:46:43Z</time>
      </trkpt>
      <trkpt lat="47.59452" lon="-3.0747">
        <ele>12.6</ele>
        <time>2021-08-04T09:46:44Z</time>
      </trkpt>
      <trkpt lat="47.59454" lon="-3.07461">
        <ele>12.6</ele>
        <time>2021-08-04T09:46:45Z</time>
      </trkpt>
      <trkpt lat="47.59457" lon="-3.07453">
        <ele>12.6</ele>
        <time>2021-08-04T09:46:46Z</time>
      </trkpt>
      <trkpt lat="47.5946" lon="-3.07444">
        <ele>12.6</ele>
        <time>2021-08-04T09:46:47Z</time>
      </trkpt>
      <trkpt lat="47.59463" lon="-3.07436">
        <ele>12.6</ele>
        <time>2021-08-04T09:46:48Z</time>
      </trkpt>
      <trkpt lat="47.59466" lon="-3.07428">
        <ele>12.6</ele>
        <time>2021-08-04T09:46:49Z</time>
      </trkpt>
      <trkpt lat="47.59468" lon="-3.0742">
        <ele>12.6</ele>
        <time>2021-08-04T09:46:50Z</time>
      </trkpt>
      <trkpt lat="47.59471" lon="-3.07412">
        <ele>12.8</ele>
        <time>2021-08-04T09:46:51Z</time>
      </trkpt>
      <trkpt lat="47.59474" lon="-3.07404">
        <ele>12.8</ele>
        <time>2021-08-04T09:46:52Z</time>
      </trkpt>
      <trkpt lat="47.59476" lon="-3.07397">
        <ele>13</ele>
        <time>2021-08-04T09:46:53Z</time>
      </trkpt>
      <trkpt lat="47.59479" lon="-3.07391">
        <ele>13</ele>
        <time>2021-08-04T09:46:54Z</time>
      </trkpt>
      <trkpt lat="47.59481" lon="-3.07385">
        <ele>13.2</ele>
        <time>2021-08-04T09:46:55Z</time>
      </trkpt>
      <trkpt lat="47.59484" lon="-3.07379">
        <ele>13.2</ele>
        <time>2021-08-04T09:46:56Z</time>
      </trkpt>
      <trkpt lat="47.59485" lon="-3.07374">
        <ele>13.4</ele>
        <time>2021-08-04T09:46:57Z</time>
      </trkpt>
      <trkpt lat="47.59486" lon="-3.0737">
        <ele>13.4</ele>
        <time>2021-08-04T09:46:58Z</time>
      </trkpt>
      <trkpt lat="47.59487" lon="-3.07366">
        <ele>13.6</ele>
        <time>2021-08-04T09:46:59Z</time>
      </trkpt>
      <trkpt lat="47.59486" lon="-3.07364">
        <ele>14</ele>
        <time>2021-08-04T09:47:00Z</time>
      </trkpt>
      <trkpt lat="47.59486" lon="-3.07361">
        <ele>14.4</ele>
        <time>2021-08-04T09:47:01Z</time>
      </trkpt>
      <trkpt lat="47.59486" lon="-3.07359">
        <ele>14.6</ele>
        <time>2021-08-04T09:47:02Z</time>
      </trkpt>
      <trkpt lat="47.59486" lon="-3.07358">
        <ele>14.8</ele>
        <time>2021-08-04T09:47:03Z</time>
      </trkpt>
      <trkpt lat="47.59487" lon="-3.07357">
        <ele>15</ele>
        <time>2021-08-04T09:47:04Z</time>
      </trkpt>
      <trkpt lat="47.59488" lon="-3.07355">
        <ele>15.4</ele>
        <time>2021-08-04T09:47:06Z</time>
      </trkpt>
      <trkpt lat="47.59488" lon="-3.07354">
        <ele>15.8</ele>
        <time>2021-08-04T09:47:07Z</time>
      </trkpt>
      <trkpt lat="47.59489" lon="-3.07352">
        <ele>16</ele>
        <time>2021-08-04T09:47:08Z</time>
      </trkpt>
      <trkpt lat="47.5949" lon="-3.0735">
        <ele>16.2</ele>
        <time>2021-08-04T09:47:09Z</time>
      </trkpt>
      <trkpt lat="47.5949" lon="-3.07348">
        <ele>16.2</ele>
        <time>2021-08-04T09:47:10Z</time>
      </trkpt>
      <trkpt lat="47.59491" lon="-3.07345">
        <ele>16.4</ele>
        <time>2021-08-04T09:47:11Z</time>
      </trkpt>
      <trkpt lat="47.59493" lon="-3.07342">
        <ele>16.4</ele>
        <time>2021-08-04T09:47:12Z</time>
      </trkpt>
      <trkpt lat="47.59494" lon="-3.07338">
        <ele>16.4</ele>
        <time>2021-08-04T09:47:13Z</time>
      </trkpt>
      <trkpt lat="47.59496" lon="-3.07334">
        <ele>16.4</ele>
        <time>2021-08-04T09:47:14Z</time>
      </trkpt>
      <trkpt lat="47.59498" lon="-3.0733">
        <ele>16.4</ele>
        <time>2021-08-04T09:47:15Z</time>
      </trkpt>
      <trkpt lat="47.595" lon="-3.07325">
        <ele>16.4</ele>
        <time>2021-08-04T09:47:16Z</time>
      </trkpt>
      <trkpt lat="47.59503" lon="-3.0732">
        <ele>16.4</ele>
        <time>2021-08-04T09:47:17Z</time>
      </trkpt>
      <trkpt lat="47.59505" lon="-3.07315">
        <ele>16.4</ele>
        <time>2021-08-04T09:47:18Z</time>
      </trkpt>
      <trkpt lat="47.59507" lon="-3.0731">
        <ele>16.2</ele>
        <time>2021-08-04T09:47:19Z</time>
      </trkpt>
      <trkpt lat="47.5951" lon="-3.07305">
        <ele>16</ele>
        <time>2021-08-04T09:47:20Z</time>
      </trkpt>
      <trkpt lat="47.59512" lon="-3.07301">
        <ele>16</ele>
        <time>2021-08-04T09:47:21Z</time>
      </trkpt>
      <trkpt lat="47.59515" lon="-3.07296">
        <ele>16</ele>
        <time>2021-08-04T09:47:22Z</time>
      </trkpt>
      <trkpt lat="47.59518" lon="-3.07292">
        <ele>15.8</ele>
        <time>2021-08-04T09:47:23Z</time>
      </trkpt>
      <trkpt lat="47.59521" lon="-3.07288">
        <ele>15.8</ele>
        <time>2021-08-04T09:47:24Z</time>
      </trkpt>
      <trkpt lat="47.59523" lon="-3.07284">
        <ele>15.8</ele>
        <time>2021-08-04T09:47:25Z</time>
      </trkpt>
      <trkpt lat="47.59526" lon="-3.07278">
        <ele>15.8</ele>
        <time>2021-08-04T09:47:26Z</time>
      </trkpt>
      <trkpt lat="47.59529" lon="-3.07273">
        <ele>15.8</ele>
        <time>2021-08-04T09:47:27Z</time>
      </trkpt>
      <trkpt lat="47.59532" lon="-3.07268">
        <ele>15.8</ele>
        <time>2021-08-04T09:47:28Z</time>
      </trkpt>
      <trkpt lat="47.59535" lon="-3.07262">
        <ele>15.6</ele>
        <time>2021-08-04T09:47:29Z</time>
      </trkpt>
      <trkpt lat="47.59538" lon="-3.07256">
        <ele>15.6</ele>
        <time>2021-08-04T09:47:30Z</time>
      </trkpt>
      <trkpt lat="47.59541" lon="-3.0725">
        <ele>15.4</ele>
        <time>2021-08-04T09:47:31Z</time>
      </trkpt>
      <trkpt lat="47.59544" lon="-3.07244">
        <ele>15.4</ele>
        <time>2021-08-04T09:47:32Z</time>
      </trkpt>
      <trkpt lat="47.59548" lon="-3.07238">
        <ele>15.4</ele>
        <time>2021-08-04T09:47:33Z</time>
      </trkpt>
      <trkpt lat="47.59551" lon="-3.07232">
        <ele>15.2</ele>
        <time>2021-08-04T09:47:34Z</time>
      </trkpt>
      <trkpt lat="47.59554" lon="-3.07226">
        <ele>15</ele>
        <time>2021-08-04T09:47:35Z</time>
      </trkpt>
      <trkpt lat="47.59557" lon="-3.07221">
        <ele>15</ele>
        <time>2021-08-04T09:47:36Z</time>
      </trkpt>
      <trkpt lat="47.5956" lon="-3.07215">
        <ele>15</ele>
        <time>2021-08-04T09:47:37Z</time>
      </trkpt>
      <trkpt lat="47.59564" lon="-3.07209">
        <ele>15</ele>
        <time>2021-08-04T09:47:38Z</time>
      </trkpt>
      <trkpt lat="47.59567" lon="-3.07204">
        <ele>15</ele>
        <time>2021-08-04T09:47:39Z</time>
      </trkpt>
      <trkpt lat="47.59569" lon="-3.07199">
        <ele>15</ele>
        <time>2021-08-04T09:47:40Z</time>
      </trkpt>
      <trkpt lat="47.59572" lon="-3.07194">
        <ele>15</ele>
        <time>2021-08-04T09:47:41Z</time>
      </trkpt>
      <trkpt lat="47.59574" lon="-3.07188">
        <ele>15</ele>
        <time>2021-08-04T09:47:42Z</time>
      </trkpt>
      <trkpt lat="47.59576" lon="-3.07182">
        <ele>15</ele>
        <time>2021-08-04T09:47:43Z</time>
      </trkpt>
      <trkpt lat="47.59577" lon="-3.07176">
        <ele>15</ele>
        <time>2021-08-04T09:47:44Z</time>
      </trkpt>
      <trkpt lat="47.59578" lon="-3.0717">
        <ele>15</ele>
        <time>2021-08-04T09:47:45Z</time>
      </trkpt>
      <trkpt lat="47.59579" lon="-3.07164">
        <ele>14.8</ele>
        <time>2021-08-04T09:47:46Z</time>
      </trkpt>
      <trkpt lat="47.5958" lon="-3.07157">
        <ele>14.8</ele>
        <time>2021-08-04T09:47:47Z</time>
      </trkpt>
      <trkpt lat="47.5958" lon="-3.07151">
        <ele>14.8</ele>
        <time>2021-08-04T09:47:48Z</time>
      </trkpt>
      <trkpt lat="47.5958" lon="-3.07144">
        <ele>14.8</ele>
        <time>2021-08-04T09:47:49Z</time>
      </trkpt>
      <trkpt lat="47.5958" lon="-3.07137">
        <ele>14.8</ele>
        <time>2021-08-04T09:47:50Z</time>
      </trkpt>
      <trkpt lat="47.59579" lon="-3.0713">
        <ele>14.8</ele>
        <time>2021-08-04T09:47:51Z</time>
      </trkpt>
      <trkpt lat="47.59579" lon="-3.07124">
        <ele>14.8</ele>
        <time>2021-08-04T09:47:52Z</time>
      </trkpt>
      <trkpt lat="47.59579" lon="-3.07117">
        <ele>14.8</ele>
        <time>2021-08-04T09:47:53Z</time>
      </trkpt>
      <trkpt lat="47.59579" lon="-3.0711">
        <ele>14.8</ele>
        <time>2021-08-04T09:47:54Z</time>
      </trkpt>
      <trkpt lat="47.59579" lon="-3.07104">
        <ele>14.6</ele>
        <time>2021-08-04T09:47:55Z</time>
      </trkpt>
      <trkpt lat="47.59581" lon="-3.07097">
        <ele>14.6</ele>
        <time>2021-08-04T09:47:56Z</time>
      </trkpt>
      <trkpt lat="47.59583" lon="-3.0709">
        <ele>14.6</ele>
        <time>2021-08-04T09:47:57Z</time>
      </trkpt>
      <trkpt lat="47.59584" lon="-3.07083">
        <ele>14.4</ele>
        <time>2021-08-04T09:47:58Z</time>
      </trkpt>
      <trkpt lat="47.59586" lon="-3.07076">
        <ele>14.4</ele>
        <time>2021-08-04T09:47:59Z</time>
      </trkpt>
      <trkpt lat="47.59588" lon="-3.07069">
        <ele>14.4</ele>
        <time>2021-08-04T09:48:00Z</time>
      </trkpt>
      <trkpt lat="47.59589" lon="-3.07062">
        <ele>14.4</ele>
        <time>2021-08-04T09:48:01Z</time>
      </trkpt>
      <trkpt lat="47.5959" lon="-3.07056">
        <ele>14.2</ele>
        <time>2021-08-04T09:48:02Z</time>
      </trkpt>
      <trkpt lat="47.59591" lon="-3.07049">
        <ele>14.2</ele>
        <time>2021-08-04T09:48:03Z</time>
      </trkpt>
      <trkpt lat="47.59592" lon="-3.07042">
        <ele>14.2</ele>
        <time>2021-08-04T09:48:04Z</time>
      </trkpt>
      <trkpt lat="47.59593" lon="-3.07036">
        <ele>14.2</ele>
        <time>2021-08-04T09:48:05Z</time>
      </trkpt>
      <trkpt lat="47.59593" lon="-3.07029">
        <ele>14.2</ele>
        <time>2021-08-04T09:48:06Z</time>
      </trkpt>
      <trkpt lat="47.59594" lon="-3.07023">
        <ele>14.2</ele>
        <time>2021-08-04T09:48:07Z</time>
      </trkpt>
      <trkpt lat="47.59595" lon="-3.07016">
        <ele>14.6</ele>
        <time>2021-08-04T09:48:08Z</time>
      </trkpt>
      <trkpt lat="47.59596" lon="-3.07009">
        <ele>14.6</ele>
        <time>2021-08-04T09:48:09Z</time>
      </trkpt>
      <trkpt lat="47.59597" lon="-3.07002">
        <ele>14.8</ele>
        <time>2021-08-04T09:48:10Z</time>
      </trkpt>
      <trkpt lat="47.59597" lon="-3.06995">
        <ele>15</ele>
        <time>2021-08-04T09:48:11Z</time>
      </trkpt>
      <trkpt lat="47.59598" lon="-3.06988">
        <ele>15.2</ele>
        <time>2021-08-04T09:48:12Z</time>
      </trkpt>
      <trkpt lat="47.59599" lon="-3.06982">
        <ele>15.6</ele>
        <time>2021-08-04T09:48:13Z</time>
      </trkpt>
      <trkpt lat="47.59599" lon="-3.06976">
        <ele>15.8</ele>
        <time>2021-08-04T09:48:14Z</time>
      </trkpt>
      <trkpt lat="47.59601" lon="-3.06969">
        <ele>16</ele>
        <time>2021-08-04T09:48:15Z</time>
      </trkpt>
      <trkpt lat="47.59602" lon="-3.06963">
        <ele>16</ele>
        <time>2021-08-04T09:48:16Z</time>
      </trkpt>
      <trkpt lat="47.59603" lon="-3.06956">
        <ele>16</ele>
        <time>2021-08-04T09:48:17Z</time>
      </trkpt>
      <trkpt lat="47.59604" lon="-3.06949">
        <ele>16.2</ele>
        <time>2021-08-04T09:48:18Z</time>
      </trkpt>
      <trkpt lat="47.59605" lon="-3.06941">
        <ele>16.2</ele>
        <time>2021-08-04T09:48:19Z</time>
      </trkpt>
      <trkpt lat="47.59607" lon="-3.06934">
        <ele>16.2</ele>
        <time>2021-08-04T09:48:20Z</time>
      </trkpt>
      <trkpt lat="47.59608" lon="-3.06927">
        <ele>16.2</ele>
        <time>2021-08-04T09:48:21Z</time>
      </trkpt>
      <trkpt lat="47.59609" lon="-3.0692">
        <ele>16.2</ele>
        <time>2021-08-04T09:48:22Z</time>
      </trkpt>
      <trkpt lat="47.5961" lon="-3.06913">
        <ele>16.2</ele>
        <time>2021-08-04T09:48:23Z</time>
      </trkpt>
      <trkpt lat="47.59612" lon="-3.06906">
        <ele>16.2</ele>
        <time>2021-08-04T09:48:24Z</time>
      </trkpt>
      <trkpt lat="47.59613" lon="-3.06899">
        <ele>16.2</ele>
        <time>2021-08-04T09:48:25Z</time>
      </trkpt>
      <trkpt lat="47.59614" lon="-3.06893">
        <ele>16.2</ele>
        <time>2021-08-04T09:48:26Z</time>
      </trkpt>
      <trkpt lat="47.59615" lon="-3.06886">
        <ele>16.2</ele>
        <time>2021-08-04T09:48:27Z</time>
      </trkpt>
      <trkpt lat="47.59616" lon="-3.0688">
        <ele>16.2</ele>
        <time>2021-08-04T09:48:28Z</time>
      </trkpt>
      <trkpt lat="47.59617" lon="-3.06874">
        <ele>16.4</ele>
        <time>2021-08-04T09:48:29Z</time>
      </trkpt>
      <trkpt lat="47.59619" lon="-3.06868">
        <ele>16.4</ele>
        <time>2021-08-04T09:48:30Z</time>
      </trkpt>
      <trkpt lat="47.5962" lon="-3.06861">
        <ele>16.4</ele>
        <time>2021-08-04T09:48:31Z</time>
      </trkpt>
      <trkpt lat="47.59621" lon="-3.06855">
        <ele>16.4</ele>
        <time>2021-08-04T09:48:32Z</time>
      </trkpt>
      <trkpt lat="47.59622" lon="-3.06848">
        <ele>16.4</ele>
        <time>2021-08-04T09:48:33Z</time>
      </trkpt>
      <trkpt lat="47.59622" lon="-3.06841">
        <ele>16.8</ele>
        <time>2021-08-04T09:48:34Z</time>
      </trkpt>
      <trkpt lat="47.59623" lon="-3.06834">
        <ele>17</ele>
        <time>2021-08-04T09:48:35Z</time>
      </trkpt>
      <trkpt lat="47.59623" lon="-3.06827">
        <ele>17</ele>
        <time>2021-08-04T09:48:36Z</time>
      </trkpt>
      <trkpt lat="47.59623" lon="-3.0682">
        <ele>17.2</ele>
        <time>2021-08-04T09:48:37Z</time>
      </trkpt>
      <trkpt lat="47.59623" lon="-3.06813">
        <ele>17.4</ele>
        <time>2021-08-04T09:48:38Z</time>
      </trkpt>
      <trkpt lat="47.59621" lon="-3.06806">
        <ele>17.6</ele>
        <time>2021-08-04T09:48:39Z</time>
      </trkpt>
      <trkpt lat="47.5962" lon="-3.068">
        <ele>17.8</ele>
        <time>2021-08-04T09:48:40Z</time>
      </trkpt>
      <trkpt lat="47.59618" lon="-3.06794">
        <ele>18</ele>
        <time>2021-08-04T09:48:41Z</time>
      </trkpt>
      <trkpt lat="47.59615" lon="-3.06788">
        <ele>18.2</ele>
        <time>2021-08-04T09:48:42Z</time>
      </trkpt>
      <trkpt lat="47.59613" lon="-3.06783">
        <ele>18.4</ele>
        <time>2021-08-04T09:48:43Z</time>
      </trkpt>
      <trkpt lat="47.5961" lon="-3.06779">
        <ele>18.6</ele>
        <time>2021-08-04T09:48:44Z</time>
      </trkpt>
      <trkpt lat="47.59606" lon="-3.06775">
        <ele>18.6</ele>
        <time>2021-08-04T09:48:45Z</time>
      </trkpt>
      <trkpt lat="47.59603" lon="-3.06772">
        <ele>18.6</ele>
        <time>2021-08-04T09:48:46Z</time>
      </trkpt>
      <trkpt lat="47.59599" lon="-3.0677">
        <ele>18.8</ele>
        <time>2021-08-04T09:48:47Z</time>
      </trkpt>
      <trkpt lat="47.59595" lon="-3.06767">
        <ele>19</ele>
        <time>2021-08-04T09:48:48Z</time>
      </trkpt>
      <trkpt lat="47.59591" lon="-3.06765">
        <ele>19</ele>
        <time>2021-08-04T09:48:49Z</time>
      </trkpt>
      <trkpt lat="47.59587" lon="-3.06763">
        <ele>19.2</ele>
        <time>2021-08-04T09:48:50Z</time>
      </trkpt>
      <trkpt lat="47.59583" lon="-3.06761">
        <ele>19.2</ele>
        <time>2021-08-04T09:48:51Z</time>
      </trkpt>
      <trkpt lat="47.59579" lon="-3.06759">
        <ele>19.2</ele>
        <time>2021-08-04T09:48:52Z</time>
      </trkpt>
      <trkpt lat="47.59575" lon="-3.06756">
        <ele>19.2</ele>
        <time>2021-08-04T09:48:53Z</time>
      </trkpt>
      <trkpt lat="47.59571" lon="-3.06753">
        <ele>19.2</ele>
        <time>2021-08-04T09:48:54Z</time>
      </trkpt>
      <trkpt lat="47.59567" lon="-3.06749">
        <ele>19.2</ele>
        <time>2021-08-04T09:48:55Z</time>
      </trkpt>
      <trkpt lat="47.59563" lon="-3.06745">
        <ele>19.2</ele>
        <time>2021-08-04T09:48:56Z</time>
      </trkpt>
      <trkpt lat="47.5956" lon="-3.0674">
        <ele>19.2</ele>
        <time>2021-08-04T09:48:57Z</time>
      </trkpt>
      <trkpt lat="47.59557" lon="-3.06735">
        <ele>19.2</ele>
        <time>2021-08-04T09:48:58Z</time>
      </trkpt>
      <trkpt lat="47.59554" lon="-3.06729">
        <ele>18.8</ele>
        <time>2021-08-04T09:48:59Z</time>
      </trkpt>
      <trkpt lat="47.59552" lon="-3.06723">
        <ele>18.8</ele>
        <time>2021-08-04T09:49:00Z</time>
      </trkpt>
      <trkpt lat="47.59551" lon="-3.06716">
        <ele>18.6</ele>
        <time>2021-08-04T09:49:01Z</time>
      </trkpt>
      <trkpt lat="47.59551" lon="-3.06709">
        <ele>18.4</ele>
        <time>2021-08-04T09:49:02Z</time>
      </trkpt>
      <trkpt lat="47.59552" lon="-3.06703">
        <ele>18.4</ele>
        <time>2021-08-04T09:49:03Z</time>
      </trkpt>
      <trkpt lat="47.59554" lon="-3.06696">
        <ele>18.4</ele>
        <time>2021-08-04T09:49:04Z</time>
      </trkpt>
      <trkpt lat="47.59556" lon="-3.0669">
        <ele>18.2</ele>
        <time>2021-08-04T09:49:05Z</time>
      </trkpt>
      <trkpt lat="47.59558" lon="-3.06685">
        <ele>18.2</ele>
        <time>2021-08-04T09:49:06Z</time>
      </trkpt>
      <trkpt lat="47.59561" lon="-3.06679">
        <ele>18</ele>
        <time>2021-08-04T09:49:07Z</time>
      </trkpt>
      <trkpt lat="47.59563" lon="-3.06673">
        <ele>17.8</ele>
        <time>2021-08-04T09:49:08Z</time>
      </trkpt>
      <trkpt lat="47.59566" lon="-3.06668">
        <ele>17.6</ele>
        <time>2021-08-04T09:49:09Z</time>
      </trkpt>
      <trkpt lat="47.59569" lon="-3.06662">
        <ele>17.6</ele>
        <time>2021-08-04T09:49:10Z</time>
      </trkpt>
      <trkpt lat="47.59571" lon="-3.06657">
        <ele>17.4</ele>
        <time>2021-08-04T09:49:11Z</time>
      </trkpt>
      <trkpt lat="47.59574" lon="-3.06651">
        <ele>17.4</ele>
        <time>2021-08-04T09:49:12Z</time>
      </trkpt>
      <trkpt lat="47.59577" lon="-3.06646">
        <ele>17.2</ele>
        <time>2021-08-04T09:49:13Z</time>
      </trkpt>
      <trkpt lat="47.5958" lon="-3.06641">
        <ele>17.2</ele>
        <time>2021-08-04T09:49:14Z</time>
      </trkpt>
      <trkpt lat="47.59583" lon="-3.06636">
        <ele>17.2</ele>
        <time>2021-08-04T09:49:15Z</time>
      </trkpt>
      <trkpt lat="47.59586" lon="-3.0663">
        <ele>17.2</ele>
        <time>2021-08-04T09:49:16Z</time>
      </trkpt>
      <trkpt lat="47.5959" lon="-3.06625">
        <ele>17.2</ele>
        <time>2021-08-04T09:49:17Z</time>
      </trkpt>
      <trkpt lat="47.59593" lon="-3.06619">
        <ele>17.2</ele>
        <time>2021-08-04T09:49:18Z</time>
      </trkpt>
      <trkpt lat="47.59596" lon="-3.06614">
        <ele>17.2</ele>
        <time>2021-08-04T09:49:19Z</time>
      </trkpt>
      <trkpt lat="47.596" lon="-3.06608">
        <ele>17.2</ele>
        <time>2021-08-04T09:49:20Z</time>
      </trkpt>
      <trkpt lat="47.59603" lon="-3.06603">
        <ele>17.2</ele>
        <time>2021-08-04T09:49:21Z</time>
      </trkpt>
      <trkpt lat="47.59607" lon="-3.06597">
        <ele>17.2</ele>
        <time>2021-08-04T09:49:22Z</time>
      </trkpt>
      <trkpt lat="47.5961" lon="-3.06591">
        <ele>17.2</ele>
        <time>2021-08-04T09:49:23Z</time>
      </trkpt>
      <trkpt lat="47.59613" lon="-3.06586">
        <ele>17</ele>
        <time>2021-08-04T09:49:24Z</time>
      </trkpt>
      <trkpt lat="47.59617" lon="-3.0658">
        <ele>17</ele>
        <time>2021-08-04T09:49:25Z</time>
      </trkpt>
      <trkpt lat="47.5962" lon="-3.06575">
        <ele>17</ele>
        <time>2021-08-04T09:49:26Z</time>
      </trkpt>
      <trkpt lat="47.59623" lon="-3.06569">
        <ele>17</ele>
        <time>2021-08-04T09:49:27Z</time>
      </trkpt>
      <trkpt lat="47.59626" lon="-3.06563">
        <ele>17</ele>
        <time>2021-08-04T09:49:28Z</time>
      </trkpt>
      <trkpt lat="47.59629" lon="-3.06558">
        <ele>17</ele>
        <time>2021-08-04T09:49:29Z</time>
      </trkpt>
      <trkpt lat="47.59632" lon="-3.06552">
        <ele>16.8</ele>
        <time>2021-08-04T09:49:30Z</time>
      </trkpt>
      <trkpt lat="47.59635" lon="-3.06546">
        <ele>16.8</ele>
        <time>2021-08-04T09:49:31Z</time>
      </trkpt>
      <trkpt lat="47.59637" lon="-3.0654">
        <ele>16.8</ele>
        <time>2021-08-04T09:49:32Z</time>
      </trkpt>
      <trkpt lat="47.5964" lon="-3.06534">
        <ele>16.8</ele>
        <time>2021-08-04T09:49:33Z</time>
      </trkpt>
      <trkpt lat="47.59642" lon="-3.06528">
        <ele>16.6</ele>
        <time>2021-08-04T09:49:34Z</time>
      </trkpt>
      <trkpt lat="47.59644" lon="-3.06521">
        <ele>16.6</ele>
        <time>2021-08-04T09:49:35Z</time>
      </trkpt>
      <trkpt lat="47.59647" lon="-3.06514">
        <ele>16.6</ele>
        <time>2021-08-04T09:49:36Z</time>
      </trkpt>
      <trkpt lat="47.59649" lon="-3.06507">
        <ele>16.6</ele>
        <time>2021-08-04T09:49:37Z</time>
      </trkpt>
      <trkpt lat="47.59651" lon="-3.065">
        <ele>16.4</ele>
        <time>2021-08-04T09:49:38Z</time>
      </trkpt>
      <trkpt lat="47.59652" lon="-3.06493">
        <ele>16.4</ele>
        <time>2021-08-04T09:49:39Z</time>
      </trkpt>
      <trkpt lat="47.59654" lon="-3.06486">
        <ele>16.4</ele>
        <time>2021-08-04T09:49:40Z</time>
      </trkpt>
      <trkpt lat="47.59656" lon="-3.06479">
        <ele>16.4</ele>
        <time>2021-08-04T09:49:41Z</time>
      </trkpt>
      <trkpt lat="47.59658" lon="-3.06472">
        <ele>16.2</ele>
        <time>2021-08-04T09:49:42Z</time>
      </trkpt>
      <trkpt lat="47.5966" lon="-3.06465">
        <ele>16.2</ele>
        <time>2021-08-04T09:49:43Z</time>
      </trkpt>
      <trkpt lat="47.59662" lon="-3.06458">
        <ele>16.2</ele>
        <time>2021-08-04T09:49:44Z</time>
      </trkpt>
      <trkpt lat="47.59664" lon="-3.06452">
        <ele>16</ele>
        <time>2021-08-04T09:49:45Z</time>
      </trkpt>
      <trkpt lat="47.59666" lon="-3.06445">
        <ele>16</ele>
        <time>2021-08-04T09:49:46Z</time>
      </trkpt>
      <trkpt lat="47.59667" lon="-3.06438">
        <ele>16</ele>
        <time>2021-08-04T09:49:47Z</time>
      </trkpt>
      <trkpt lat="47.59669" lon="-3.06431">
        <ele>16</ele>
        <time>2021-08-04T09:49:48Z</time>
      </trkpt>
      <trkpt lat="47.59671" lon="-3.06424">
        <ele>16</ele>
        <time>2021-08-04T09:49:49Z</time>
      </trkpt>
      <trkpt lat="47.59673" lon="-3.06417">
        <ele>16</ele>
        <time>2021-08-04T09:49:50Z</time>
      </trkpt>
      <trkpt lat="47.59675" lon="-3.0641">
        <ele>16</ele>
        <time>2021-08-04T09:49:51Z</time>
      </trkpt>
      <trkpt lat="47.59677" lon="-3.06403">
        <ele>16</ele>
        <time>2021-08-04T09:49:52Z</time>
      </trkpt>
      <trkpt lat="47.59679" lon="-3.06396">
        <ele>16</ele>
        <time>2021-08-04T09:49:53Z</time>
      </trkpt>
      <trkpt lat="47.59681" lon="-3.0639">
        <ele>16</ele>
        <time>2021-08-04T09:49:54Z</time>
      </trkpt>
      <trkpt lat="47.59683" lon="-3.06383">
        <ele>16</ele>
        <time>2021-08-04T09:49:55Z</time>
      </trkpt>
      <trkpt lat="47.59685" lon="-3.06376">
        <ele>16</ele>
        <time>2021-08-04T09:49:56Z</time>
      </trkpt>
      <trkpt lat="47.59687" lon="-3.06369">
        <ele>16</ele>
        <time>2021-08-04T09:49:57Z</time>
      </trkpt>
      <trkpt lat="47.5969" lon="-3.06363">
        <ele>15.8</ele>
        <time>2021-08-04T09:49:58Z</time>
      </trkpt>
      <trkpt lat="47.59692" lon="-3.06356">
        <ele>15.8</ele>
        <time>2021-08-04T09:49:59Z</time>
      </trkpt>
      <trkpt lat="47.59695" lon="-3.0635">
        <ele>15.6</ele>
        <time>2021-08-04T09:50:00Z</time>
      </trkpt>
      <trkpt lat="47.59697" lon="-3.06344">
        <ele>15.6</ele>
        <time>2021-08-04T09:50:01Z</time>
      </trkpt>
      <trkpt lat="47.597" lon="-3.06338">
        <ele>15.6</ele>
        <time>2021-08-04T09:50:02Z</time>
      </trkpt>
      <trkpt lat="47.59703" lon="-3.06332">
        <ele>15.6</ele>
        <time>2021-08-04T09:50:03Z</time>
      </trkpt>
      <trkpt lat="47.59705" lon="-3.06326">
        <ele>15.4</ele>
        <time>2021-08-04T09:50:04Z</time>
      </trkpt>
      <trkpt lat="47.59708" lon="-3.0632">
        <ele>15.4</ele>
        <time>2021-08-04T09:50:05Z</time>
      </trkpt>
      <trkpt lat="47.5971" lon="-3.06315">
        <ele>15.4</ele>
        <time>2021-08-04T09:50:06Z</time>
      </trkpt>
      <trkpt lat="47.59713" lon="-3.06309">
        <ele>15.4</ele>
        <time>2021-08-04T09:50:07Z</time>
      </trkpt>
      <trkpt lat="47.59715" lon="-3.06304">
        <ele>15.4</ele>
        <time>2021-08-04T09:50:08Z</time>
      </trkpt>
      <trkpt lat="47.59717" lon="-3.06299">
        <ele>15.4</ele>
        <time>2021-08-04T09:50:09Z</time>
      </trkpt>
      <trkpt lat="47.5972" lon="-3.06294">
        <ele>15.4</ele>
        <time>2021-08-04T09:50:10Z</time>
      </trkpt>
      <trkpt lat="47.59722" lon="-3.06289">
        <ele>15.6</ele>
        <time>2021-08-04T09:50:11Z</time>
      </trkpt>
      <trkpt lat="47.59724" lon="-3.06284">
        <ele>15.6</ele>
        <time>2021-08-04T09:50:12Z</time>
      </trkpt>
      <trkpt lat="47.59726" lon="-3.06279">
        <ele>15.6</ele>
        <time>2021-08-04T09:50:13Z</time>
      </trkpt>
      <trkpt lat="47.59728" lon="-3.06274">
        <ele>15.8</ele>
        <time>2021-08-04T09:50:14Z</time>
      </trkpt>
      <trkpt lat="47.59731" lon="-3.06269">
        <ele>16.2</ele>
        <time>2021-08-04T09:50:15Z</time>
      </trkpt>
      <trkpt lat="47.59733" lon="-3.06264">
        <ele>16.6</ele>
        <time>2021-08-04T09:50:16Z</time>
      </trkpt>
      <trkpt lat="47.59736" lon="-3.06259">
        <ele>16.8</ele>
        <time>2021-08-04T09:50:17Z</time>
      </trkpt>
      <trkpt lat="47.59738" lon="-3.06254">
        <ele>17</ele>
        <time>2021-08-04T09:50:18Z</time>
      </trkpt>
      <trkpt lat="47.5974" lon="-3.06249">
        <ele>17.2</ele>
        <time>2021-08-04T09:50:19Z</time>
      </trkpt>
      <trkpt lat="47.59743" lon="-3.06243">
        <ele>17.4</ele>
        <time>2021-08-04T09:50:20Z</time>
      </trkpt>
      <trkpt lat="47.59745" lon="-3.06238">
        <ele>17.6</ele>
        <time>2021-08-04T09:50:21Z</time>
      </trkpt>
      <trkpt lat="47.59748" lon="-3.06232">
        <ele>17.6</ele>
        <time>2021-08-04T09:50:22Z</time>
      </trkpt>
      <trkpt lat="47.5975" lon="-3.06227">
        <ele>17.8</ele>
        <time>2021-08-04T09:50:23Z</time>
      </trkpt>
      <trkpt lat="47.59753" lon="-3.06221">
        <ele>17.8</ele>
        <time>2021-08-04T09:50:24Z</time>
      </trkpt>
      <trkpt lat="47.59755" lon="-3.06215">
        <ele>17.8</ele>
        <time>2021-08-04T09:50:25Z</time>
      </trkpt>
      <trkpt lat="47.59757" lon="-3.06209">
        <ele>17.8</ele>
        <time>2021-08-04T09:50:26Z</time>
      </trkpt>
      <trkpt lat="47.5976" lon="-3.06204">
        <ele>17.8</ele>
        <time>2021-08-04T09:50:27Z</time>
      </trkpt>
      <trkpt lat="47.59762" lon="-3.06198">
        <ele>17.8</ele>
        <time>2021-08-04T09:50:28Z</time>
      </trkpt>
      <trkpt lat="47.59765" lon="-3.06194">
        <ele>17.8</ele>
        <time>2021-08-04T09:50:29Z</time>
      </trkpt>
      <trkpt lat="47.59767" lon="-3.0619">
        <ele>17.8</ele>
        <time>2021-08-04T09:50:30Z</time>
      </trkpt>
      <trkpt lat="47.5977" lon="-3.06186">
        <ele>17.8</ele>
        <time>2021-08-04T09:50:31Z</time>
      </trkpt>
      <trkpt lat="47.59773" lon="-3.06183">
        <ele>18</ele>
        <time>2021-08-04T09:50:32Z</time>
      </trkpt>
      <trkpt lat="47.59776" lon="-3.0618">
        <ele>18</ele>
        <time>2021-08-04T09:50:33Z</time>
      </trkpt>
      <trkpt lat="47.5978" lon="-3.06178">
        <ele>18</ele>
        <time>2021-08-04T09:50:34Z</time>
      </trkpt>
      <trkpt lat="47.59783" lon="-3.06176">
        <ele>18</ele>
        <time>2021-08-04T09:50:35Z</time>
      </trkpt>
      <trkpt lat="47.59787" lon="-3.06173">
        <ele>18</ele>
        <time>2021-08-04T09:50:36Z</time>
      </trkpt>
      <trkpt lat="47.59791" lon="-3.06171">
        <ele>18.2</ele>
        <time>2021-08-04T09:50:37Z</time>
      </trkpt>
      <trkpt lat="47.59795" lon="-3.06169">
        <ele>18.4</ele>
        <time>2021-08-04T09:50:38Z</time>
      </trkpt>
      <trkpt lat="47.59799" lon="-3.06166">
        <ele>18.6</ele>
        <time>2021-08-04T09:50:39Z</time>
      </trkpt>
      <trkpt lat="47.59803" lon="-3.06164">
        <ele>19</ele>
        <time>2021-08-04T09:50:40Z</time>
      </trkpt>
      <trkpt lat="47.59807" lon="-3.0616">
        <ele>19.2</ele>
        <time>2021-08-04T09:50:41Z</time>
      </trkpt>
      <trkpt lat="47.59811" lon="-3.06157">
        <ele>19.2</ele>
        <time>2021-08-04T09:50:42Z</time>
      </trkpt>
      <trkpt lat="47.59815" lon="-3.06153">
        <ele>19.4</ele>
        <time>2021-08-04T09:50:43Z</time>
      </trkpt>
      <trkpt lat="47.59818" lon="-3.06149">
        <ele>19.6</ele>
        <time>2021-08-04T09:50:44Z</time>
      </trkpt>
      <trkpt lat="47.59821" lon="-3.06145">
        <ele>19.8</ele>
        <time>2021-08-04T09:50:45Z</time>
      </trkpt>
      <trkpt lat="47.59824" lon="-3.0614">
        <ele>19.8</ele>
        <time>2021-08-04T09:50:46Z</time>
      </trkpt>
      <trkpt lat="47.59826" lon="-3.06135">
        <ele>20</ele>
        <time>2021-08-04T09:50:47Z</time>
      </trkpt>
      <trkpt lat="47.59829" lon="-3.06129">
        <ele>20</ele>
        <time>2021-08-04T09:50:48Z</time>
      </trkpt>
      <trkpt lat="47.59831" lon="-3.06123">
        <ele>20</ele>
        <time>2021-08-04T09:50:49Z</time>
      </trkpt>
      <trkpt lat="47.59834" lon="-3.06117">
        <ele>20</ele>
        <time>2021-08-04T09:50:50Z</time>
      </trkpt>
      <trkpt lat="47.59836" lon="-3.0611">
        <ele>20</ele>
        <time>2021-08-04T09:50:51Z</time>
      </trkpt>
      <trkpt lat="47.59839" lon="-3.06104">
        <ele>20</ele>
        <time>2021-08-04T09:50:52Z</time>
      </trkpt>
      <trkpt lat="47.59841" lon="-3.06097">
        <ele>20</ele>
        <time>2021-08-04T09:50:53Z</time>
      </trkpt>
      <trkpt lat="47.59843" lon="-3.06091">
        <ele>20</ele>
        <time>2021-08-04T09:50:54Z</time>
      </trkpt>
      <trkpt lat="47.59845" lon="-3.06085">
        <ele>20</ele>
        <time>2021-08-04T09:50:55Z</time>
      </trkpt>
      <trkpt lat="47.59847" lon="-3.06079">
        <ele>20</ele>
        <time>2021-08-04T09:50:56Z</time>
      </trkpt>
      <trkpt lat="47.5985" lon="-3.06073">
        <ele>19.8</ele>
        <time>2021-08-04T09:50:57Z</time>
      </trkpt>
      <trkpt lat="47.59852" lon="-3.06067">
        <ele>19.6</ele>
        <time>2021-08-04T09:50:58Z</time>
      </trkpt>
      <trkpt lat="47.59854" lon="-3.06063">
        <ele>19.4</ele>
        <time>2021-08-04T09:50:59Z</time>
      </trkpt>
      <trkpt lat="47.59855" lon="-3.06059">
        <ele>19.2</ele>
        <time>2021-08-04T09:51:00Z</time>
      </trkpt>
      <trkpt lat="47.59856" lon="-3.06057">
        <ele>19</ele>
        <time>2021-08-04T09:51:01Z</time>
      </trkpt>
      <trkpt lat="47.59856" lon="-3.06055">
        <ele>18.8</ele>
        <time>2021-08-04T09:51:02Z</time>
      </trkpt>
      <trkpt lat="47.59857" lon="-3.06052">
        <ele>18.8</ele>
        <time>2021-08-04T09:51:03Z</time>
      </trkpt>
      <trkpt lat="47.59859" lon="-3.06049">
        <ele>18.8</ele>
        <time>2021-08-04T09:51:04Z</time>
      </trkpt>
      <trkpt lat="47.5986" lon="-3.06045">
        <ele>18.6</ele>
        <time>2021-08-04T09:51:05Z</time>
      </trkpt>
      <trkpt lat="47.59862" lon="-3.06041">
        <ele>18.6</ele>
        <time>2021-08-04T09:51:06Z</time>
      </trkpt>
      <trkpt lat="47.59863" lon="-3.06037">
        <ele>18.4</ele>
        <time>2021-08-04T09:51:07Z</time>
      </trkpt>
      <trkpt lat="47.59864" lon="-3.06033">
        <ele>18.4</ele>
        <time>2021-08-04T09:51:08Z</time>
      </trkpt>
      <trkpt lat="47.59866" lon="-3.06029">
        <ele>18.4</ele>
        <time>2021-08-04T09:51:09Z</time>
      </trkpt>
      <trkpt lat="47.59868" lon="-3.06024">
        <ele>18.2</ele>
        <time>2021-08-04T09:51:10Z</time>
      </trkpt>
      <trkpt lat="47.5987" lon="-3.06018">
        <ele>18</ele>
        <time>2021-08-04T09:51:11Z</time>
      </trkpt>
      <trkpt lat="47.59873" lon="-3.06012">
        <ele>18</ele>
        <time>2021-08-04T09:51:12Z</time>
      </trkpt>
      <trkpt lat="47.59875" lon="-3.06004">
        <ele>17.8</ele>
        <time>2021-08-04T09:51:13Z</time>
      </trkpt>
      <trkpt lat="47.59876" lon="-3.05996">
        <ele>17.8</ele>
        <time>2021-08-04T09:51:14Z</time>
      </trkpt>
      <trkpt lat="47.59878" lon="-3.05988">
        <ele>17.6</ele>
        <time>2021-08-04T09:51:15Z</time>
      </trkpt>
      <trkpt lat="47.5988" lon="-3.05979">
        <ele>17.2</ele>
        <time>2021-08-04T09:51:16Z</time>
      </trkpt>
      <trkpt lat="47.5988" lon="-3.0597">
        <ele>17</ele>
        <time>2021-08-04T09:51:17Z</time>
      </trkpt>
      <trkpt lat="47.59881" lon="-3.05962">
        <ele>16.8</ele>
        <time>2021-08-04T09:51:18Z</time>
      </trkpt>
      <trkpt lat="47.59881" lon="-3.05953">
        <ele>16.8</ele>
        <time>2021-08-04T09:51:19Z</time>
      </trkpt>
      <trkpt lat="47.59881" lon="-3.05944">
        <ele>16.6</ele>
        <time>2021-08-04T09:51:20Z</time>
      </trkpt>
      <trkpt lat="47.59881" lon="-3.05936">
        <ele>16.2</ele>
        <time>2021-08-04T09:51:21Z</time>
      </trkpt>
      <trkpt lat="47.59882" lon="-3.05928">
        <ele>16</ele>
        <time>2021-08-04T09:51:22Z</time>
      </trkpt>
      <trkpt lat="47.59882" lon="-3.05919">
        <ele>15.8</ele>
        <time>2021-08-04T09:51:23Z</time>
      </trkpt>
      <trkpt lat="47.59884" lon="-3.0591">
        <ele>15.6</ele>
        <time>2021-08-04T09:51:24Z</time>
      </trkpt>
      <trkpt lat="47.59886" lon="-3.05902">
        <ele>15.6</ele>
        <time>2021-08-04T09:51:25Z</time>
      </trkpt>
      <trkpt lat="47.59888" lon="-3.05894">
        <ele>15.4</ele>
        <time>2021-08-04T09:51:26Z</time>
      </trkpt>
      <trkpt lat="47.59891" lon="-3.05886">
        <ele>15.2</ele>
        <time>2021-08-04T09:51:27Z</time>
      </trkpt>
      <trkpt lat="47.59894" lon="-3.05878">
        <ele>15.2</ele>
        <time>2021-08-04T09:51:28Z</time>
      </trkpt>
      <trkpt lat="47.59897" lon="-3.05871">
        <ele>15.2</ele>
        <time>2021-08-04T09:51:29Z</time>
      </trkpt>
      <trkpt lat="47.599" lon="-3.05864">
        <ele>15.2</ele>
        <time>2021-08-04T09:51:30Z</time>
      </trkpt>
      <trkpt lat="47.59903" lon="-3.05858">
        <ele>15</ele>
        <time>2021-08-04T09:51:31Z</time>
      </trkpt>
      <trkpt lat="47.59907" lon="-3.05852">
        <ele>15</ele>
        <time>2021-08-04T09:51:32Z</time>
      </trkpt>
      <trkpt lat="47.5991" lon="-3.05846">
        <ele>15</ele>
        <time>2021-08-04T09:51:33Z</time>
      </trkpt>
      <trkpt lat="47.59913" lon="-3.0584">
        <ele>15</ele>
        <time>2021-08-04T09:51:34Z</time>
      </trkpt>
      <trkpt lat="47.59915" lon="-3.05835">
        <ele>14.8</ele>
        <time>2021-08-04T09:51:35Z</time>
      </trkpt>
      <trkpt lat="47.59918" lon="-3.05829">
        <ele>14.8</ele>
        <time>2021-08-04T09:51:36Z</time>
      </trkpt>
      <trkpt lat="47.59921" lon="-3.05823">
        <ele>14.8</ele>
        <time>2021-08-04T09:51:37Z</time>
      </trkpt>
      <trkpt lat="47.59925" lon="-3.05817">
        <ele>14.6</ele>
        <time>2021-08-04T09:51:38Z</time>
      </trkpt>
      <trkpt lat="47.59928" lon="-3.0581">
        <ele>14.6</ele>
        <time>2021-08-04T09:51:39Z</time>
      </trkpt>
      <trkpt lat="47.59931" lon="-3.05803">
        <ele>14.4</ele>
        <time>2021-08-04T09:51:40Z</time>
      </trkpt>
      <trkpt lat="47.59934" lon="-3.05796">
        <ele>14.4</ele>
        <time>2021-08-04T09:51:41Z</time>
      </trkpt>
      <trkpt lat="47.59938" lon="-3.05789">
        <ele>14.2</ele>
        <time>2021-08-04T09:51:42Z</time>
      </trkpt>
      <trkpt lat="47.59943" lon="-3.05783">
        <ele>14</ele>
        <time>2021-08-04T09:51:43Z</time>
      </trkpt>
      <trkpt lat="47.59947" lon="-3.05778">
        <ele>13.8</ele>
        <time>2021-08-04T09:51:44Z</time>
      </trkpt>
      <trkpt lat="47.59952" lon="-3.05773">
        <ele>13.6</ele>
        <time>2021-08-04T09:51:45Z</time>
      </trkpt>
      <trkpt lat="47.59957" lon="-3.05769">
        <ele>13.4</ele>
        <time>2021-08-04T09:51:46Z</time>
      </trkpt>
      <trkpt lat="47.59963" lon="-3.05765">
        <ele>13</ele>
        <time>2021-08-04T09:51:47Z</time>
      </trkpt>
      <trkpt lat="47.59968" lon="-3.05761">
        <ele>12.8</ele>
        <time>2021-08-04T09:51:48Z</time>
      </trkpt>
      <trkpt lat="47.59973" lon="-3.05756">
        <ele>12.6</ele>
        <time>2021-08-04T09:51:49Z</time>
      </trkpt>
      <trkpt lat="47.59979" lon="-3.0575">
        <ele>12.2</ele>
        <time>2021-08-04T09:51:50Z</time>
      </trkpt>
      <trkpt lat="47.59983" lon="-3.05745">
        <ele>11.8</ele>
        <time>2021-08-04T09:51:51Z</time>
      </trkpt>
      <trkpt lat="47.59986" lon="-3.0574">
        <ele>11.4</ele>
        <time>2021-08-04T09:51:52Z</time>
      </trkpt>
      <trkpt lat="47.59988" lon="-3.05737">
        <ele>11.2</ele>
        <time>2021-08-04T09:51:53Z</time>
      </trkpt>
      <trkpt lat="47.59989" lon="-3.05735">
        <ele>11</ele>
        <time>2021-08-04T09:51:54Z</time>
      </trkpt>
      <trkpt lat="47.5999" lon="-3.05733">
        <ele>10.8</ele>
        <time>2021-08-04T09:51:55Z</time>
      </trkpt>
      <trkpt lat="47.59991" lon="-3.05731">
        <ele>10.8</ele>
        <time>2021-08-04T09:51:56Z</time>
      </trkpt>
      <trkpt lat="47.59992" lon="-3.05731">
        <ele>10.8</ele>
        <time>2021-08-04T09:51:57Z</time>
      </trkpt>
      <trkpt lat="47.59994" lon="-3.05731">
        <ele>10.8</ele>
        <time>2021-08-04T09:51:58Z</time>
      </trkpt>
      <trkpt lat="47.59995" lon="-3.05732">
        <ele>10.8</ele>
        <time>2021-08-04T09:51:59Z</time>
      </trkpt>
      <trkpt lat="47.59997" lon="-3.05733">
        <ele>10.8</ele>
        <time>2021-08-04T09:52:00Z</time>
      </trkpt>
      <trkpt lat="47.59998" lon="-3.05734">
        <ele>10.6</ele>
        <time>2021-08-04T09:52:01Z</time>
      </trkpt>
      <trkpt lat="47.6" lon="-3.05735">
        <ele>10.6</ele>
        <time>2021-08-04T09:52:02Z</time>
      </trkpt>
      <trkpt lat="47.60002" lon="-3.05736">
        <ele>10.4</ele>
        <time>2021-08-04T09:52:03Z</time>
      </trkpt>
      <trkpt lat="47.60004" lon="-3.05738">
        <ele>10.4</ele>
        <time>2021-08-04T09:52:04Z</time>
      </trkpt>
      <trkpt lat="47.60006" lon="-3.05739">
        <ele>10.4</ele>
        <time>2021-08-04T09:52:05Z</time>
      </trkpt>
      <trkpt lat="47.60008" lon="-3.0574">
        <ele>10.4</ele>
        <time>2021-08-04T09:52:06Z</time>
      </trkpt>
      <trkpt lat="47.6001" lon="-3.05742">
        <ele>10.6</ele>
        <time>2021-08-04T09:52:07Z</time>
      </trkpt>
      <trkpt lat="47.60011" lon="-3.05743">
        <ele>10.6</ele>
        <time>2021-08-04T09:52:08Z</time>
      </trkpt>
      <trkpt lat="47.60012" lon="-3.05745">
        <ele>10.6</ele>
        <time>2021-08-04T09:52:09Z</time>
      </trkpt>
      <trkpt lat="47.60014" lon="-3.05746">
        <ele>10.6</ele>
        <time>2021-08-04T09:52:10Z</time>
      </trkpt>
      <trkpt lat="47.60016" lon="-3.05748">
        <ele>10.6</ele>
        <time>2021-08-04T09:52:11Z</time>
      </trkpt>
      <trkpt lat="47.60018" lon="-3.05751">
        <ele>10.6</ele>
        <time>2021-08-04T09:52:12Z</time>
      </trkpt>
      <trkpt lat="47.6002" lon="-3.05753">
        <ele>10.8</ele>
        <time>2021-08-04T09:52:13Z</time>
      </trkpt>
      <trkpt lat="47.60022" lon="-3.05756">
        <ele>10.8</ele>
        <time>2021-08-04T09:52:14Z</time>
      </trkpt>
      <trkpt lat="47.60024" lon="-3.0576">
        <ele>10.8</ele>
        <time>2021-08-04T09:52:15Z</time>
      </trkpt>
      <trkpt lat="47.60026" lon="-3.05762">
        <ele>10.8</ele>
        <time>2021-08-04T09:52:16Z</time>
      </trkpt>
      <trkpt lat="47.60028" lon="-3.05764">
        <ele>10.6</ele>
        <time>2021-08-04T09:52:17Z</time>
      </trkpt>
      <trkpt lat="47.6003" lon="-3.05766">
        <ele>10.6</ele>
        <time>2021-08-04T09:52:18Z</time>
      </trkpt>
      <trkpt lat="47.60032" lon="-3.05769">
        <ele>10.6</ele>
        <time>2021-08-04T09:52:19Z</time>
      </trkpt>
      <trkpt lat="47.60034" lon="-3.05771">
        <ele>10.6</ele>
        <time>2021-08-04T09:52:20Z</time>
      </trkpt>
      <trkpt lat="47.60037" lon="-3.05774">
        <ele>10.6</ele>
        <time>2021-08-04T09:52:21Z</time>
      </trkpt>
      <trkpt lat="47.60039" lon="-3.05777">
        <ele>10.6</ele>
        <time>2021-08-04T09:52:22Z</time>
      </trkpt>
      <trkpt lat="47.60042" lon="-3.0578">
        <ele>10.6</ele>
        <time>2021-08-04T09:52:23Z</time>
      </trkpt>
      <trkpt lat="47.60044" lon="-3.05782">
        <ele>10.6</ele>
        <time>2021-08-04T09:52:24Z</time>
      </trkpt>
      <trkpt lat="47.60046" lon="-3.05784">
        <ele>10.8</ele>
        <time>2021-08-04T09:52:25Z</time>
      </trkpt>
      <trkpt lat="47.60048" lon="-3.05786">
        <ele>10.8</ele>
        <time>2021-08-04T09:52:26Z</time>
      </trkpt>
      <trkpt lat="47.6005" lon="-3.05787">
        <ele>10.8</ele>
        <time>2021-08-04T09:52:27Z</time>
      </trkpt>
      <trkpt lat="47.60052" lon="-3.05789">
        <ele>10.8</ele>
        <time>2021-08-04T09:52:28Z</time>
      </trkpt>
      <trkpt lat="47.60054" lon="-3.05791">
        <ele>10.8</ele>
        <time>2021-08-04T09:52:29Z</time>
      </trkpt>
      <trkpt lat="47.60057" lon="-3.05794">
        <ele>10.8</ele>
        <time>2021-08-04T09:52:30Z</time>
      </trkpt>
      <trkpt lat="47.60058" lon="-3.05797">
        <ele>10.8</ele>
        <time>2021-08-04T09:52:31Z</time>
      </trkpt>
      <trkpt lat="47.60059" lon="-3.05799">
        <ele>10.8</ele>
        <time>2021-08-04T09:52:32Z</time>
      </trkpt>
      <trkpt lat="47.60061" lon="-3.05803">
        <ele>10.8</ele>
        <time>2021-08-04T09:52:33Z</time>
      </trkpt>
      <trkpt lat="47.60063" lon="-3.05806">
        <ele>11</ele>
        <time>2021-08-04T09:52:34Z</time>
      </trkpt>
      <trkpt lat="47.60063" lon="-3.05807">
        <ele>11</ele>
        <time>2021-08-04T09:52:35Z</time>
      </trkpt>
      <trkpt lat="47.60065" lon="-3.0581">
        <ele>11.2</ele>
        <time>2021-08-04T09:52:36Z</time>
      </trkpt>
      <trkpt lat="47.60066" lon="-3.05811">
        <ele>11.2</ele>
        <time>2021-08-04T09:52:37Z</time>
      </trkpt>
      <trkpt lat="47.60067" lon="-3.05813">
        <ele>11.2</ele>
        <time>2021-08-04T09:52:38Z</time>
      </trkpt>
      <trkpt lat="47.60068" lon="-3.05815">
        <ele>11.2</ele>
        <time>2021-08-04T09:52:39Z</time>
      </trkpt>
      <trkpt lat="47.60069" lon="-3.05817">
        <ele>11.2</ele>
        <time>2021-08-04T09:52:40Z</time>
      </trkpt>
      <trkpt lat="47.60071" lon="-3.05819">
        <ele>11.2</ele>
        <time>2021-08-04T09:52:41Z</time>
      </trkpt>
      <trkpt lat="47.60073" lon="-3.0582">
        <ele>11.2</ele>
        <time>2021-08-04T09:52:42Z</time>
      </trkpt>
      <trkpt lat="47.60075" lon="-3.05822">
        <ele>11.2</ele>
        <time>2021-08-04T09:52:43Z</time>
      </trkpt>
      <trkpt lat="47.60075" lon="-3.05826">
        <ele>11.2</ele>
        <time>2021-08-04T09:52:44Z</time>
      </trkpt>
      <trkpt lat="47.60077" lon="-3.05828">
        <ele>11.2</ele>
        <time>2021-08-04T09:52:45Z</time>
      </trkpt>
      <trkpt lat="47.60079" lon="-3.0583">
        <ele>11.2</ele>
        <time>2021-08-04T09:52:46Z</time>
      </trkpt>
      <trkpt lat="47.6008" lon="-3.05832">
        <ele>11.2</ele>
        <time>2021-08-04T09:52:47Z</time>
      </trkpt>
      <trkpt lat="47.60081" lon="-3.05834">
        <ele>11.2</ele>
        <time>2021-08-04T09:52:48Z</time>
      </trkpt>
      <trkpt lat="47.60082" lon="-3.05837">
        <ele>11.2</ele>
        <time>2021-08-04T09:52:49Z</time>
      </trkpt>
      <trkpt lat="47.60083" lon="-3.05839">
        <ele>11.2</ele>
        <time>2021-08-04T09:52:50Z</time>
      </trkpt>
      <trkpt lat="47.60084" lon="-3.05841">
        <ele>11.2</ele>
        <time>2021-08-04T09:52:51Z</time>
      </trkpt>
      <trkpt lat="47.60086" lon="-3.05842">
        <ele>11.2</ele>
        <time>2021-08-04T09:52:52Z</time>
      </trkpt>
      <trkpt lat="47.60089" lon="-3.05844">
        <ele>11.2</ele>
        <time>2021-08-04T09:52:53Z</time>
      </trkpt>
      <trkpt lat="47.60092" lon="-3.05846">
        <ele>11.2</ele>
        <time>2021-08-04T09:52:54Z</time>
      </trkpt>
      <trkpt lat="47.60093" lon="-3.05848">
        <ele>11.2</ele>
        <time>2021-08-04T09:52:55Z</time>
      </trkpt>
      <trkpt lat="47.60095" lon="-3.05849">
        <ele>11.2</ele>
        <time>2021-08-04T09:52:56Z</time>
      </trkpt>
      <trkpt lat="47.60096" lon="-3.05849">
        <ele>11.2</ele>
        <time>2021-08-04T09:52:57Z</time>
      </trkpt>
      <trkpt lat="47.60097" lon="-3.0585">
        <ele>11.2</ele>
        <time>2021-08-04T09:52:58Z</time>
      </trkpt>
      <trkpt lat="47.60098" lon="-3.0585">
        <ele>11.2</ele>
        <time>2021-08-04T09:52:59Z</time>
      </trkpt>
      <trkpt lat="47.60098" lon="-3.05849">
        <ele>11.2</ele>
        <time>2021-08-04T09:53:00Z</time>
      </trkpt>
      <trkpt lat="47.60099" lon="-3.05849">
        <ele>11.4</ele>
        <time>2021-08-04T09:53:01Z</time>
      </trkpt>
      <trkpt lat="47.60099" lon="-3.05848">
        <ele>11.4</ele>
        <time>2021-08-04T09:53:02Z</time>
      </trkpt>
      <trkpt lat="47.60099" lon="-3.05846">
        <ele>11.4</ele>
        <time>2021-08-04T09:53:03Z</time>
      </trkpt>
      <trkpt lat="47.601" lon="-3.05844">
        <ele>11.2</ele>
        <time>2021-08-04T09:53:04Z</time>
      </trkpt>
      <trkpt lat="47.60102" lon="-3.05842">
        <ele>11.4</ele>
        <time>2021-08-04T09:53:05Z</time>
      </trkpt>
      <trkpt lat="47.60102" lon="-3.05841">
        <ele>11.4</ele>
        <time>2021-08-04T09:53:06Z</time>
      </trkpt>
      <trkpt lat="47.60103" lon="-3.05839">
        <ele>11.4</ele>
        <time>2021-08-04T09:53:07Z</time>
      </trkpt>
      <trkpt lat="47.60103" lon="-3.05838">
        <ele>11.4</ele>
        <time>2021-08-04T09:53:08Z</time>
      </trkpt>
      <trkpt lat="47.60103" lon="-3.05837">
        <ele>11.4</ele>
        <time>2021-08-04T09:53:09Z</time>
      </trkpt>
      <trkpt lat="47.60104" lon="-3.05836">
        <ele>11.6</ele>
        <time>2021-08-04T09:53:10Z</time>
      </trkpt>
      <trkpt lat="47.60105" lon="-3.05835">
        <ele>11.6</ele>
        <time>2021-08-04T09:53:11Z</time>
      </trkpt>
      <trkpt lat="47.60106" lon="-3.05834">
        <ele>11.6</ele>
        <time>2021-08-04T09:53:12Z</time>
      </trkpt>
      <trkpt lat="47.60107" lon="-3.05832">
        <ele>11.6</ele>
        <time>2021-08-04T09:53:13Z</time>
      </trkpt>
      <trkpt lat="47.60108" lon="-3.05831">
        <ele>12</ele>
        <time>2021-08-04T09:53:14Z</time>
      </trkpt>
      <trkpt lat="47.60108" lon="-3.0583">
        <ele>12.2</ele>
        <time>2021-08-04T09:53:15Z</time>
      </trkpt>
      <trkpt lat="47.60109" lon="-3.05829">
        <ele>12.6</ele>
        <time>2021-08-04T09:53:16Z</time>
      </trkpt>
      <trkpt lat="47.6011" lon="-3.05829">
        <ele>12.8</ele>
        <time>2021-08-04T09:53:17Z</time>
      </trkpt>
      <trkpt lat="47.60112" lon="-3.05829">
        <ele>13</ele>
        <time>2021-08-04T09:53:18Z</time>
      </trkpt>
      <trkpt lat="47.60113" lon="-3.0583">
        <ele>13</ele>
        <time>2021-08-04T09:53:19Z</time>
      </trkpt>
      <trkpt lat="47.60114" lon="-3.0583">
        <ele>13</ele>
        <time>2021-08-04T09:53:20Z</time>
      </trkpt>
      <trkpt lat="47.60116" lon="-3.0583">
        <ele>13.2</ele>
        <time>2021-08-04T09:53:21Z</time>
      </trkpt>
      <trkpt lat="47.60118" lon="-3.05831">
        <ele>13.2</ele>
        <time>2021-08-04T09:53:22Z</time>
      </trkpt>
      <trkpt lat="47.60119" lon="-3.05831">
        <ele>13.4</ele>
        <time>2021-08-04T09:53:23Z</time>
      </trkpt>
      <trkpt lat="47.60121" lon="-3.05832">
        <ele>13.6</ele>
        <time>2021-08-04T09:53:24Z</time>
      </trkpt>
      <trkpt lat="47.60122" lon="-3.05832">
        <ele>13.6</ele>
        <time>2021-08-04T09:53:25Z</time>
      </trkpt>
      <trkpt lat="47.60125" lon="-3.05832">
        <ele>13.8</ele>
        <time>2021-08-04T09:53:26Z</time>
      </trkpt>
      <trkpt lat="47.60127" lon="-3.05833">
        <ele>13.8</ele>
        <time>2021-08-04T09:53:27Z</time>
      </trkpt>
      <trkpt lat="47.6013" lon="-3.05833">
        <ele>13.8</ele>
        <time>2021-08-04T09:53:28Z</time>
      </trkpt>
      <trkpt lat="47.60132" lon="-3.05834">
        <ele>14</ele>
        <time>2021-08-04T09:53:29Z</time>
      </trkpt>
      <trkpt lat="47.60133" lon="-3.05833">
        <ele>14</ele>
        <time>2021-08-04T09:53:30Z</time>
      </trkpt>
      <trkpt lat="47.60135" lon="-3.05833">
        <ele>14</ele>
        <time>2021-08-04T09:53:31Z</time>
      </trkpt>
      <trkpt lat="47.60136" lon="-3.05834">
        <ele>14</ele>
        <time>2021-08-04T09:53:32Z</time>
      </trkpt>
      <trkpt lat="47.60139" lon="-3.05834">
        <ele>14</ele>
        <time>2021-08-04T09:53:33Z</time>
      </trkpt>
      <trkpt lat="47.60141" lon="-3.05835">
        <ele>13.8</ele>
        <time>2021-08-04T09:53:34Z</time>
      </trkpt>
      <trkpt lat="47.60144" lon="-3.05835">
        <ele>13.8</ele>
        <time>2021-08-04T09:53:35Z</time>
      </trkpt>
      <trkpt lat="47.60146" lon="-3.05836">
        <ele>14</ele>
        <time>2021-08-04T09:53:36Z</time>
      </trkpt>
      <trkpt lat="47.60147" lon="-3.05837">
        <ele>14</ele>
        <time>2021-08-04T09:53:37Z</time>
      </trkpt>
      <trkpt lat="47.60149" lon="-3.05838">
        <ele>14</ele>
        <time>2021-08-04T09:53:38Z</time>
      </trkpt>
      <trkpt lat="47.60151" lon="-3.05837">
        <ele>13.8</ele>
        <time>2021-08-04T09:53:39Z</time>
      </trkpt>
      <trkpt lat="47.60153" lon="-3.05838">
        <ele>14</ele>
        <time>2021-08-04T09:53:40Z</time>
      </trkpt>
      <trkpt lat="47.60155" lon="-3.05838">
        <ele>13.8</ele>
        <time>2021-08-04T09:53:41Z</time>
      </trkpt>
      <trkpt lat="47.60157" lon="-3.05838">
        <ele>13.8</ele>
        <time>2021-08-04T09:53:42Z</time>
      </trkpt>
      <trkpt lat="47.60158" lon="-3.05838">
        <ele>13.8</ele>
        <time>2021-08-04T09:53:43Z</time>
      </trkpt>
      <trkpt lat="47.6016" lon="-3.05839">
        <ele>13.8</ele>
        <time>2021-08-04T09:53:44Z</time>
      </trkpt>
      <trkpt lat="47.60161" lon="-3.05839">
        <ele>13.8</ele>
        <time>2021-08-04T09:53:45Z</time>
      </trkpt>
      <trkpt lat="47.60163" lon="-3.0584">
        <ele>13.8</ele>
        <time>2021-08-04T09:53:46Z</time>
      </trkpt>
      <trkpt lat="47.60165" lon="-3.05841">
        <ele>13.8</ele>
        <time>2021-08-04T09:53:47Z</time>
      </trkpt>
      <trkpt lat="47.60168" lon="-3.05841">
        <ele>14</ele>
        <time>2021-08-04T09:53:48Z</time>
      </trkpt>
      <trkpt lat="47.60169" lon="-3.05841">
        <ele>14</ele>
        <time>2021-08-04T09:53:49Z</time>
      </trkpt>
      <trkpt lat="47.60171" lon="-3.05841">
        <ele>14</ele>
        <time>2021-08-04T09:53:50Z</time>
      </trkpt>
      <trkpt lat="47.60173" lon="-3.05841">
        <ele>14</ele>
        <time>2021-08-04T09:53:51Z</time>
      </trkpt>
      <trkpt lat="47.60175" lon="-3.05842">
        <ele>14</ele>
        <time>2021-08-04T09:53:52Z</time>
      </trkpt>
      <trkpt lat="47.60177" lon="-3.05842">
        <ele>14</ele>
        <time>2021-08-04T09:53:53Z</time>
      </trkpt>
      <trkpt lat="47.60178" lon="-3.05843">
        <ele>14.2</ele>
        <time>2021-08-04T09:53:54Z</time>
      </trkpt>
      <trkpt lat="47.6018" lon="-3.05843">
        <ele>14.2</ele>
        <time>2021-08-04T09:53:55Z</time>
      </trkpt>
      <trkpt lat="47.60181" lon="-3.05843">
        <ele>14.2</ele>
        <time>2021-08-04T09:53:56Z</time>
      </trkpt>
      <trkpt lat="47.60185" lon="-3.05844">
        <ele>14.4</ele>
        <time>2021-08-04T09:53:57Z</time>
      </trkpt>
      <trkpt lat="47.60186" lon="-3.05844">
        <ele>14.4</ele>
        <time>2021-08-04T09:53:58Z</time>
      </trkpt>
      <trkpt lat="47.60187" lon="-3.05844">
        <ele>14.4</ele>
        <time>2021-08-04T09:53:59Z</time>
      </trkpt>
      <trkpt lat="47.60189" lon="-3.05844">
        <ele>14.4</ele>
        <time>2021-08-04T09:54:00Z</time>
      </trkpt>
      <trkpt lat="47.60197" lon="-3.0585">
        <ele>14.4</ele>
        <time>2021-08-04T09:54:09Z</time>
      </trkpt>
      <trkpt lat="47.60199" lon="-3.05851">
        <ele>14.6</ele>
        <time>2021-08-04T09:54:10Z</time>
      </trkpt>
      <trkpt lat="47.602" lon="-3.05851">
        <ele>14.6</ele>
        <time>2021-08-04T09:54:11Z</time>
      </trkpt>
      <trkpt lat="47.60202" lon="-3.05851">
        <ele>14.6</ele>
        <time>2021-08-04T09:54:12Z</time>
      </trkpt>
      <trkpt lat="47.60204" lon="-3.05851">
        <ele>14.6</ele>
        <time>2021-08-04T09:54:13Z</time>
      </trkpt>
      <trkpt lat="47.60206" lon="-3.05851">
        <ele>14.6</ele>
        <time>2021-08-04T09:54:14Z</time>
      </trkpt>
      <trkpt lat="47.60208" lon="-3.05852">
        <ele>14.6</ele>
        <time>2021-08-04T09:54:15Z</time>
      </trkpt>
      <trkpt lat="47.6021" lon="-3.05852">
        <ele>14.6</ele>
        <time>2021-08-04T09:54:16Z</time>
      </trkpt>
      <trkpt lat="47.60211" lon="-3.05853">
        <ele>14.6</ele>
        <time>2021-08-04T09:54:17Z</time>
      </trkpt>
      <trkpt lat="47.60213" lon="-3.05854">
        <ele>14.6</ele>
        <time>2021-08-04T09:54:18Z</time>
      </trkpt>
      <trkpt lat="47.60215" lon="-3.05856">
        <ele>14.6</ele>
        <time>2021-08-04T09:54:19Z</time>
      </trkpt>
      <trkpt lat="47.60216" lon="-3.05857">
        <ele>14.6</ele>
        <time>2021-08-04T09:54:20Z</time>
      </trkpt>
      <trkpt lat="47.60218" lon="-3.05858">
        <ele>14.6</ele>
        <time>2021-08-04T09:54:21Z</time>
      </trkpt>
      <trkpt lat="47.6022" lon="-3.05859">
        <ele>14.6</ele>
        <time>2021-08-04T09:54:22Z</time>
      </trkpt>
      <trkpt lat="47.60221" lon="-3.0586">
        <ele>14.6</ele>
        <time>2021-08-04T09:54:23Z</time>
      </trkpt>
      <trkpt lat="47.60222" lon="-3.05861">
        <ele>14.8</ele>
        <time>2021-08-04T09:54:24Z</time>
      </trkpt>
      <trkpt lat="47.60224" lon="-3.05862">
        <ele>14.8</ele>
        <time>2021-08-04T09:54:25Z</time>
      </trkpt>
      <trkpt lat="47.60226" lon="-3.05863">
        <ele>14.8</ele>
        <time>2021-08-04T09:54:26Z</time>
      </trkpt>
      <trkpt lat="47.60228" lon="-3.05864">
        <ele>14.8</ele>
        <time>2021-08-04T09:54:27Z</time>
      </trkpt>
      <trkpt lat="47.60229" lon="-3.05865">
        <ele>15</ele>
        <time>2021-08-04T09:54:28Z</time>
      </trkpt>
      <trkpt lat="47.6023" lon="-3.05866">
        <ele>15</ele>
        <time>2021-08-04T09:54:29Z</time>
      </trkpt>
      <trkpt lat="47.60232" lon="-3.05867">
        <ele>15</ele>
        <time>2021-08-04T09:54:30Z</time>
      </trkpt>
      <trkpt lat="47.60235" lon="-3.05868">
        <ele>15</ele>
        <time>2021-08-04T09:54:31Z</time>
      </trkpt>
      <trkpt lat="47.60237" lon="-3.05869">
        <ele>15</ele>
        <time>2021-08-04T09:54:32Z</time>
      </trkpt>
      <trkpt lat="47.60239" lon="-3.05869">
        <ele>15</ele>
        <time>2021-08-04T09:54:33Z</time>
      </trkpt>
      <trkpt lat="47.6024" lon="-3.0587">
        <ele>15.2</ele>
        <time>2021-08-04T09:54:34Z</time>
      </trkpt>
      <trkpt lat="47.60242" lon="-3.0587">
        <ele>15.2</ele>
        <time>2021-08-04T09:54:35Z</time>
      </trkpt>
      <trkpt lat="47.60243" lon="-3.05871">
        <ele>15.2</ele>
        <time>2021-08-04T09:54:36Z</time>
      </trkpt>
      <trkpt lat="47.60244" lon="-3.05872">
        <ele>15.4</ele>
        <time>2021-08-04T09:54:37Z</time>
      </trkpt>
      <trkpt lat="47.60245" lon="-3.05873">
        <ele>15.4</ele>
        <time>2021-08-04T09:54:38Z</time>
      </trkpt>
      <trkpt lat="47.60247" lon="-3.05874">
        <ele>15.4</ele>
        <time>2021-08-04T09:54:39Z</time>
      </trkpt>
      <trkpt lat="47.60249" lon="-3.05875">
        <ele>15.6</ele>
        <time>2021-08-04T09:54:40Z</time>
      </trkpt>
      <trkpt lat="47.6025" lon="-3.05876">
        <ele>15.8</ele>
        <time>2021-08-04T09:54:41Z</time>
      </trkpt>
      <trkpt lat="47.60252" lon="-3.05877">
        <ele>15.8</ele>
        <time>2021-08-04T09:54:42Z</time>
      </trkpt>
      <trkpt lat="47.60253" lon="-3.05879">
        <ele>16</ele>
        <time>2021-08-04T09:54:43Z</time>
      </trkpt>
      <trkpt lat="47.60255" lon="-3.0588">
        <ele>16</ele>
        <time>2021-08-04T09:54:44Z</time>
      </trkpt>
      <trkpt lat="47.60256" lon="-3.0588">
        <ele>16.2</ele>
        <time>2021-08-04T09:54:45Z</time>
      </trkpt>
      <trkpt lat="47.60257" lon="-3.05881">
        <ele>16.2</ele>
        <time>2021-08-04T09:54:46Z</time>
      </trkpt>
      <trkpt lat="47.60258" lon="-3.05882">
        <ele>16.2</ele>
        <time>2021-08-04T09:54:47Z</time>
      </trkpt>
      <trkpt lat="47.60258" lon="-3.05882">
        <ele>16.2</ele>
        <time>2021-08-04T09:54:48Z</time>
      </trkpt>
      <trkpt lat="47.60259" lon="-3.05883">
        <ele>16.4</ele>
        <time>2021-08-04T09:54:49Z</time>
      </trkpt>
      <trkpt lat="47.60262" lon="-3.05884">
        <ele>16.4</ele>
        <time>2021-08-04T09:54:50Z</time>
      </trkpt>
      <trkpt lat="47.60266" lon="-3.05889">
        <ele>16.8</ele>
        <time>2021-08-04T09:55:35Z</time>
      </trkpt>
      <trkpt lat="47.60267" lon="-3.0589">
        <ele>16.8</ele>
        <time>2021-08-04T09:55:36Z</time>
      </trkpt>
      <trkpt lat="47.60268" lon="-3.05891">
        <ele>16.8</ele>
        <time>2021-08-04T09:55:37Z</time>
      </trkpt>
      <trkpt lat="47.60269" lon="-3.05892">
        <ele>16.8</ele>
        <time>2021-08-04T09:55:38Z</time>
      </trkpt>
      <trkpt lat="47.6027" lon="-3.05893">
        <ele>16.8</ele>
        <time>2021-08-04T09:55:39Z</time>
      </trkpt>
      <trkpt lat="47.60271" lon="-3.05894">
        <ele>16.8</ele>
        <time>2021-08-04T09:55:40Z</time>
      </trkpt>
      <trkpt lat="47.60272" lon="-3.05895">
        <ele>16.8</ele>
        <time>2021-08-04T09:55:41Z</time>
      </trkpt>
      <trkpt lat="47.60273" lon="-3.05895">
        <ele>16.8</ele>
        <time>2021-08-04T09:55:42Z</time>
      </trkpt>
      <trkpt lat="47.60274" lon="-3.05896">
        <ele>16.8</ele>
        <time>2021-08-04T09:55:43Z</time>
      </trkpt>
      <trkpt lat="47.60276" lon="-3.05897">
        <ele>16.8</ele>
        <time>2021-08-04T09:55:44Z</time>
      </trkpt>
      <trkpt lat="47.60276" lon="-3.05898">
        <ele>16.8</ele>
        <time>2021-08-04T09:55:45Z</time>
      </trkpt>
      <trkpt lat="47.60277" lon="-3.05898">
        <ele>16.8</ele>
        <time>2021-08-04T09:55:46Z</time>
      </trkpt>
      <trkpt lat="47.60277" lon="-3.05898">
        <ele>16.8</ele>
        <time>2021-08-04T09:55:47Z</time>
      </trkpt>
      <trkpt lat="47.60278" lon="-3.05899">
        <ele>16.8</ele>
        <time>2021-08-04T09:55:48Z</time>
      </trkpt>
      <trkpt lat="47.6028" lon="-3.05899">
        <ele>17.2</ele>
        <time>2021-08-04T09:55:49Z</time>
      </trkpt>
      <trkpt lat="47.60281" lon="-3.059">
        <ele>17.2</ele>
        <time>2021-08-04T09:55:50Z</time>
      </trkpt>
      <trkpt lat="47.60282" lon="-3.059">
        <ele>17.4</ele>
        <time>2021-08-04T09:55:51Z</time>
      </trkpt>
      <trkpt lat="47.60284" lon="-3.059">
        <ele>17.4</ele>
        <time>2021-08-04T09:55:52Z</time>
      </trkpt>
      <trkpt lat="47.60285" lon="-3.05901">
        <ele>17.6</ele>
        <time>2021-08-04T09:55:53Z</time>
      </trkpt>
      <trkpt lat="47.60286" lon="-3.05901">
        <ele>17.6</ele>
        <time>2021-08-04T09:55:54Z</time>
      </trkpt>
      <trkpt lat="47.60287" lon="-3.05901">
        <ele>17.8</ele>
        <time>2021-08-04T09:55:55Z</time>
      </trkpt>
      <trkpt lat="47.60288" lon="-3.05902">
        <ele>18</ele>
        <time>2021-08-04T09:55:56Z</time>
      </trkpt>
      <trkpt lat="47.60289" lon="-3.05904">
        <ele>18</ele>
        <time>2021-08-04T09:55:57Z</time>
      </trkpt>
      <trkpt lat="47.6029" lon="-3.05905">
        <ele>18</ele>
        <time>2021-08-04T09:55:58Z</time>
      </trkpt>
      <trkpt lat="47.60291" lon="-3.05906">
        <ele>18</ele>
        <time>2021-08-04T09:55:59Z</time>
      </trkpt>
      <trkpt lat="47.60291" lon="-3.05906">
        <ele>18</ele>
        <time>2021-08-04T09:56:00Z</time>
      </trkpt>
      <trkpt lat="47.60294" lon="-3.05906">
        <ele>18.2</ele>
        <time>2021-08-04T09:56:01Z</time>
      </trkpt>
      <trkpt lat="47.60295" lon="-3.05907">
        <ele>18.2</ele>
        <time>2021-08-04T09:56:02Z</time>
      </trkpt>
      <trkpt lat="47.60296" lon="-3.05907">
        <ele>18.4</ele>
        <time>2021-08-04T09:56:03Z</time>
      </trkpt>
      <trkpt lat="47.60297" lon="-3.05907">
        <ele>18.4</ele>
        <time>2021-08-04T09:56:04Z</time>
      </trkpt>
      <trkpt lat="47.60299" lon="-3.05907">
        <ele>18.6</ele>
        <time>2021-08-04T09:56:05Z</time>
      </trkpt>
      <trkpt lat="47.603" lon="-3.05907">
        <ele>18.6</ele>
        <time>2021-08-04T09:56:06Z</time>
      </trkpt>
      <trkpt lat="47.60302" lon="-3.05906">
        <ele>18.6</ele>
        <time>2021-08-04T09:56:07Z</time>
      </trkpt>
      <trkpt lat="47.60303" lon="-3.05906">
        <ele>18.8</ele>
        <time>2021-08-04T09:56:08Z</time>
      </trkpt>
      <trkpt lat="47.60304" lon="-3.05905">
        <ele>18.8</ele>
        <time>2021-08-04T09:56:09Z</time>
      </trkpt>
      <trkpt lat="47.60305" lon="-3.05904">
        <ele>18.8</ele>
        <time>2021-08-04T09:56:10Z</time>
      </trkpt>
      <trkpt lat="47.60306" lon="-3.05903">
        <ele>18.8</ele>
        <time>2021-08-04T09:56:11Z</time>
      </trkpt>
      <trkpt lat="47.60306" lon="-3.05903">
        <ele>18.8</ele>
        <time>2021-08-04T09:56:12Z</time>
      </trkpt>
      <trkpt lat="47.60307" lon="-3.05903">
        <ele>19</ele>
        <time>2021-08-04T09:56:13Z</time>
      </trkpt>
      <trkpt lat="47.60308" lon="-3.05902">
        <ele>19</ele>
        <time>2021-08-04T09:56:14Z</time>
      </trkpt>
      <trkpt lat="47.6031" lon="-3.05902">
        <ele>19</ele>
        <time>2021-08-04T09:56:15Z</time>
      </trkpt>
      <trkpt lat="47.60311" lon="-3.05901">
        <ele>19</ele>
        <time>2021-08-04T09:56:16Z</time>
      </trkpt>
      <trkpt lat="47.60312" lon="-3.05901">
        <ele>19.2</ele>
        <time>2021-08-04T09:56:17Z</time>
      </trkpt>
      <trkpt lat="47.60315" lon="-3.059">
        <ele>19.4</ele>
        <time>2021-08-04T09:56:18Z</time>
      </trkpt>
      <trkpt lat="47.60316" lon="-3.05899">
        <ele>19.4</ele>
        <time>2021-08-04T09:56:19Z</time>
      </trkpt>
      <trkpt lat="47.60318" lon="-3.05899">
        <ele>19.6</ele>
        <time>2021-08-04T09:56:20Z</time>
      </trkpt>
      <trkpt lat="47.60319" lon="-3.05898">
        <ele>19.6</ele>
        <time>2021-08-04T09:56:21Z</time>
      </trkpt>
      <trkpt lat="47.60321" lon="-3.05897">
        <ele>19.6</ele>
        <time>2021-08-04T09:56:22Z</time>
      </trkpt>
      <trkpt lat="47.60322" lon="-3.05897">
        <ele>19.6</ele>
        <time>2021-08-04T09:56:23Z</time>
      </trkpt>
      <trkpt lat="47.60323" lon="-3.05896">
        <ele>19.8</ele>
        <time>2021-08-04T09:56:24Z</time>
      </trkpt>
      <trkpt lat="47.60324" lon="-3.05895">
        <ele>20</ele>
        <time>2021-08-04T09:56:25Z</time>
      </trkpt>
      <trkpt lat="47.60326" lon="-3.05895">
        <ele>20</ele>
        <time>2021-08-04T09:56:26Z</time>
      </trkpt>
      <trkpt lat="47.60327" lon="-3.05896">
        <ele>20.2</ele>
        <time>2021-08-04T09:56:27Z</time>
      </trkpt>
      <trkpt lat="47.60328" lon="-3.05896">
        <ele>20.2</ele>
        <time>2021-08-04T09:56:28Z</time>
      </trkpt>
      <trkpt lat="47.60329" lon="-3.05897">
        <ele>20.2</ele>
        <time>2021-08-04T09:56:29Z</time>
      </trkpt>
      <trkpt lat="47.6033" lon="-3.05897">
        <ele>20.2</ele>
        <time>2021-08-04T09:56:30Z</time>
      </trkpt>
      <trkpt lat="47.60332" lon="-3.05897">
        <ele>20.2</ele>
        <time>2021-08-04T09:56:31Z</time>
      </trkpt>
      <trkpt lat="47.60334" lon="-3.05897">
        <ele>20.4</ele>
        <time>2021-08-04T09:56:32Z</time>
      </trkpt>
      <trkpt lat="47.60336" lon="-3.05898">
        <ele>20.4</ele>
        <time>2021-08-04T09:56:33Z</time>
      </trkpt>
      <trkpt lat="47.60337" lon="-3.05899">
        <ele>20.4</ele>
        <time>2021-08-04T09:56:34Z</time>
      </trkpt>
      <trkpt lat="47.6034" lon="-3.05899">
        <ele>20.4</ele>
        <time>2021-08-04T09:56:35Z</time>
      </trkpt>
      <trkpt lat="47.60342" lon="-3.05899">
        <ele>20.4</ele>
        <time>2021-08-04T09:56:36Z</time>
      </trkpt>
      <trkpt lat="47.60343" lon="-3.05899">
        <ele>20.4</ele>
        <time>2021-08-04T09:56:37Z</time>
      </trkpt>
      <trkpt lat="47.60344" lon="-3.059">
        <ele>20.2</ele>
        <time>2021-08-04T09:56:38Z</time>
      </trkpt>
      <trkpt lat="47.60345" lon="-3.059">
        <ele>20.2</ele>
        <time>2021-08-04T09:56:39Z</time>
      </trkpt>
      <trkpt lat="47.60348" lon="-3.059">
        <ele>20.2</ele>
        <time>2021-08-04T09:56:40Z</time>
      </trkpt>
      <trkpt lat="47.60348" lon="-3.059">
        <ele>20.2</ele>
        <time>2021-08-04T09:56:41Z</time>
      </trkpt>
      <trkpt lat="47.60359" lon="-3.059">
        <ele>20.2</ele>
        <time>2021-08-04T09:56:48Z</time>
      </trkpt>
      <trkpt lat="47.6036" lon="-3.059">
        <ele>20.2</ele>
        <time>2021-08-04T09:56:49Z</time>
      </trkpt>
      <trkpt lat="47.60361" lon="-3.05899">
        <ele>20.2</ele>
        <time>2021-08-04T09:56:50Z</time>
      </trkpt>
      <trkpt lat="47.60361" lon="-3.05899">
        <ele>20.2</ele>
        <time>2021-08-04T09:56:51Z</time>
      </trkpt>
      <trkpt lat="47.60362" lon="-3.05899">
        <ele>20.2</ele>
        <time>2021-08-04T09:56:52Z</time>
      </trkpt>
      <trkpt lat="47.60364" lon="-3.05897">
        <ele>20.2</ele>
        <time>2021-08-04T09:56:53Z</time>
      </trkpt>
      <trkpt lat="47.60365" lon="-3.05897">
        <ele>20.2</ele>
        <time>2021-08-04T09:56:54Z</time>
      </trkpt>
      <trkpt lat="47.60366" lon="-3.05897">
        <ele>20.2</ele>
        <time>2021-08-04T09:56:55Z</time>
      </trkpt>
      <trkpt lat="47.60367" lon="-3.05898">
        <ele>20.2</ele>
        <time>2021-08-04T09:56:56Z</time>
      </trkpt>
      <trkpt lat="47.60368" lon="-3.05898">
        <ele>20.2</ele>
        <time>2021-08-04T09:56:57Z</time>
      </trkpt>
      <trkpt lat="47.6037" lon="-3.05898">
        <ele>20.2</ele>
        <time>2021-08-04T09:56:58Z</time>
      </trkpt>
      <trkpt lat="47.60371" lon="-3.05899">
        <ele>20.2</ele>
        <time>2021-08-04T09:56:59Z</time>
      </trkpt>
      <trkpt lat="47.60372" lon="-3.05899">
        <ele>20.2</ele>
        <time>2021-08-04T09:57:00Z</time>
      </trkpt>
      <trkpt lat="47.60374" lon="-3.05898">
        <ele>20.2</ele>
        <time>2021-08-04T09:57:01Z</time>
      </trkpt>
      <trkpt lat="47.60376" lon="-3.05897">
        <ele>20.2</ele>
        <time>2021-08-04T09:57:02Z</time>
      </trkpt>
      <trkpt lat="47.60379" lon="-3.05896">
        <ele>20</ele>
        <time>2021-08-04T09:57:03Z</time>
      </trkpt>
      <trkpt lat="47.60383" lon="-3.05894">
        <ele>20</ele>
        <time>2021-08-04T09:57:04Z</time>
      </trkpt>
      <trkpt lat="47.60386" lon="-3.05892">
        <ele>19.8</ele>
        <time>2021-08-04T09:57:05Z</time>
      </trkpt>
      <trkpt lat="47.60388" lon="-3.05891">
        <ele>19.8</ele>
        <time>2021-08-04T09:57:06Z</time>
      </trkpt>
      <trkpt lat="47.60389" lon="-3.05892">
        <ele>19.8</ele>
        <time>2021-08-04T09:57:07Z</time>
      </trkpt>
      <trkpt lat="47.60391" lon="-3.05892">
        <ele>19.8</ele>
        <time>2021-08-04T09:57:08Z</time>
      </trkpt>
      <trkpt lat="47.60391" lon="-3.05892">
        <ele>19.8</ele>
        <time>2021-08-04T09:57:09Z</time>
      </trkpt>
      <trkpt lat="47.60393" lon="-3.05891">
        <ele>19.8</ele>
        <time>2021-08-04T09:57:10Z</time>
      </trkpt>
      <trkpt lat="47.60394" lon="-3.05892">
        <ele>19.8</ele>
        <time>2021-08-04T09:57:11Z</time>
      </trkpt>
      <trkpt lat="47.60396" lon="-3.05891">
        <ele>20</ele>
        <time>2021-08-04T09:57:12Z</time>
      </trkpt>
      <trkpt lat="47.60398" lon="-3.05891">
        <ele>20</ele>
        <time>2021-08-04T09:57:13Z</time>
      </trkpt>
      <trkpt lat="47.60398" lon="-3.05889">
        <ele>20</ele>
        <time>2021-08-04T09:57:14Z</time>
      </trkpt>
      <trkpt lat="47.60399" lon="-3.05889">
        <ele>20</ele>
        <time>2021-08-04T09:57:15Z</time>
      </trkpt>
      <trkpt lat="47.60401" lon="-3.05887">
        <ele>20</ele>
        <time>2021-08-04T09:57:16Z</time>
      </trkpt>
      <trkpt lat="47.60402" lon="-3.05886">
        <ele>20</ele>
        <time>2021-08-04T09:57:17Z</time>
      </trkpt>
      <trkpt lat="47.60404" lon="-3.05884">
        <ele>20</ele>
        <time>2021-08-04T09:57:18Z</time>
      </trkpt>
      <trkpt lat="47.60405" lon="-3.05883">
        <ele>20</ele>
        <time>2021-08-04T09:57:19Z</time>
      </trkpt>
      <trkpt lat="47.60406" lon="-3.05883">
        <ele>20</ele>
        <time>2021-08-04T09:57:20Z</time>
      </trkpt>
      <trkpt lat="47.60408" lon="-3.05881">
        <ele>20</ele>
        <time>2021-08-04T09:57:21Z</time>
      </trkpt>
      <trkpt lat="47.60409" lon="-3.05881">
        <ele>20</ele>
        <time>2021-08-04T09:57:22Z</time>
      </trkpt>
      <trkpt lat="47.60411" lon="-3.0588">
        <ele>20</ele>
        <time>2021-08-04T09:57:23Z</time>
      </trkpt>
      <trkpt lat="47.60414" lon="-3.05878">
        <ele>20</ele>
        <time>2021-08-04T09:57:24Z</time>
      </trkpt>
      <trkpt lat="47.60418" lon="-3.05876">
        <ele>20.2</ele>
        <time>2021-08-04T09:57:25Z</time>
      </trkpt>
      <trkpt lat="47.6042" lon="-3.05876">
        <ele>20.2</ele>
        <time>2021-08-04T09:57:26Z</time>
      </trkpt>
      <trkpt lat="47.60422" lon="-3.05875">
        <ele>20.2</ele>
        <time>2021-08-04T09:57:27Z</time>
      </trkpt>
      <trkpt lat="47.60424" lon="-3.05874">
        <ele>20.2</ele>
        <time>2021-08-04T09:57:28Z</time>
      </trkpt>
      <trkpt lat="47.60426" lon="-3.05874">
        <ele>20.2</ele>
        <time>2021-08-04T09:57:29Z</time>
      </trkpt>
      <trkpt lat="47.60428" lon="-3.05875">
        <ele>20.2</ele>
        <time>2021-08-04T09:57:30Z</time>
      </trkpt>
      <trkpt lat="47.6043" lon="-3.05875">
        <ele>20.4</ele>
        <time>2021-08-04T09:57:31Z</time>
      </trkpt>
      <trkpt lat="47.60432" lon="-3.05875">
        <ele>20.4</ele>
        <time>2021-08-04T09:57:32Z</time>
      </trkpt>
      <trkpt lat="47.60435" lon="-3.05875">
        <ele>20.4</ele>
        <time>2021-08-04T09:57:33Z</time>
      </trkpt>
      <trkpt lat="47.60438" lon="-3.05875">
        <ele>20.6</ele>
        <time>2021-08-04T09:57:34Z</time>
      </trkpt>
      <trkpt lat="47.6044" lon="-3.05875">
        <ele>20.6</ele>
        <time>2021-08-04T09:57:35Z</time>
      </trkpt>
      <trkpt lat="47.60442" lon="-3.05875">
        <ele>20.6</ele>
        <time>2021-08-04T09:57:36Z</time>
      </trkpt>
      <trkpt lat="47.60444" lon="-3.05876">
        <ele>20.6</ele>
        <time>2021-08-04T09:57:38Z</time>
      </trkpt>
      <trkpt lat="47.60446" lon="-3.05875">
        <ele>20.8</ele>
        <time>2021-08-04T09:57:39Z</time>
      </trkpt>
      <trkpt lat="47.60448" lon="-3.05874">
        <ele>20.8</ele>
        <time>2021-08-04T09:57:40Z</time>
      </trkpt>
      <trkpt lat="47.6045" lon="-3.05874">
        <ele>20.8</ele>
        <time>2021-08-04T09:57:41Z</time>
      </trkpt>
      <trkpt lat="47.60454" lon="-3.05875">
        <ele>20.8</ele>
        <time>2021-08-04T09:57:50Z</time>
      </trkpt>
      <trkpt lat="47.60454" lon="-3.05875">
        <ele>20.8</ele>
        <time>2021-08-04T09:57:51Z</time>
      </trkpt>
      <trkpt lat="47.60455" lon="-3.05876">
        <ele>20.8</ele>
        <time>2021-08-04T09:57:52Z</time>
      </trkpt>
      <trkpt lat="47.60456" lon="-3.05877">
        <ele>20.8</ele>
        <time>2021-08-04T09:57:53Z</time>
      </trkpt>
      <trkpt lat="47.60457" lon="-3.05878">
        <ele>20.8</ele>
        <time>2021-08-04T09:57:54Z</time>
      </trkpt>
      <trkpt lat="47.60458" lon="-3.05878">
        <ele>20.8</ele>
        <time>2021-08-04T09:57:55Z</time>
      </trkpt>
      <trkpt lat="47.60459" lon="-3.05879">
        <ele>20.8</ele>
        <time>2021-08-04T09:57:56Z</time>
      </trkpt>
      <trkpt lat="47.6046" lon="-3.05879">
        <ele>20.8</ele>
        <time>2021-08-04T09:57:57Z</time>
      </trkpt>
      <trkpt lat="47.60462" lon="-3.0588">
        <ele>20.8</ele>
        <time>2021-08-04T09:57:58Z</time>
      </trkpt>
      <trkpt lat="47.60463" lon="-3.0588">
        <ele>20.8</ele>
        <time>2021-08-04T09:57:59Z</time>
      </trkpt>
      <trkpt lat="47.60464" lon="-3.05881">
        <ele>20.8</ele>
        <time>2021-08-04T09:58:00Z</time>
      </trkpt>
      <trkpt lat="47.60465" lon="-3.05881">
        <ele>20.8</ele>
        <time>2021-08-04T09:58:01Z</time>
      </trkpt>
      <trkpt lat="47.60467" lon="-3.05882">
        <ele>20.8</ele>
        <time>2021-08-04T09:58:02Z</time>
      </trkpt>
      <trkpt lat="47.60469" lon="-3.05882">
        <ele>20.8</ele>
        <time>2021-08-04T09:58:03Z</time>
      </trkpt>
      <trkpt lat="47.60471" lon="-3.05883">
        <ele>20.8</ele>
        <time>2021-08-04T09:58:04Z</time>
      </trkpt>
      <trkpt lat="47.60472" lon="-3.05883">
        <ele>20.8</ele>
        <time>2021-08-04T09:58:05Z</time>
      </trkpt>
      <trkpt lat="47.60473" lon="-3.05884">
        <ele>20.8</ele>
        <time>2021-08-04T09:58:06Z</time>
      </trkpt>
      <trkpt lat="47.60476" lon="-3.05886">
        <ele>20.8</ele>
        <time>2021-08-04T09:58:07Z</time>
      </trkpt>
      <trkpt lat="47.60478" lon="-3.05887">
        <ele>20.8</ele>
        <time>2021-08-04T09:58:08Z</time>
      </trkpt>
      <trkpt lat="47.6048" lon="-3.05888">
        <ele>20.8</ele>
        <time>2021-08-04T09:58:09Z</time>
      </trkpt>
      <trkpt lat="47.60482" lon="-3.0589">
        <ele>20.8</ele>
        <time>2021-08-04T09:58:10Z</time>
      </trkpt>
      <trkpt lat="47.60483" lon="-3.05891">
        <ele>20.8</ele>
        <time>2021-08-04T09:58:11Z</time>
      </trkpt>
      <trkpt lat="47.60485" lon="-3.05893">
        <ele>20.8</ele>
        <time>2021-08-04T09:58:12Z</time>
      </trkpt>
      <trkpt lat="47.60487" lon="-3.05895">
        <ele>20.8</ele>
        <time>2021-08-04T09:58:13Z</time>
      </trkpt>
      <trkpt lat="47.60488" lon="-3.05896">
        <ele>20.8</ele>
        <time>2021-08-04T09:58:14Z</time>
      </trkpt>
      <trkpt lat="47.6049" lon="-3.05897">
        <ele>20.6</ele>
        <time>2021-08-04T09:58:15Z</time>
      </trkpt>
      <trkpt lat="47.60491" lon="-3.05898">
        <ele>20.6</ele>
        <time>2021-08-04T09:58:16Z</time>
      </trkpt>
      <trkpt lat="47.60492" lon="-3.05898">
        <ele>20.6</ele>
        <time>2021-08-04T09:58:17Z</time>
      </trkpt>
      <trkpt lat="47.60494" lon="-3.05899">
        <ele>20.4</ele>
        <time>2021-08-04T09:58:18Z</time>
      </trkpt>
      <trkpt lat="47.60495" lon="-3.059">
        <ele>20.4</ele>
        <time>2021-08-04T09:58:19Z</time>
      </trkpt>
      <trkpt lat="47.60498" lon="-3.05901">
        <ele>20.4</ele>
        <time>2021-08-04T09:58:20Z</time>
      </trkpt>
      <trkpt lat="47.60498" lon="-3.05902">
        <ele>20.4</ele>
        <time>2021-08-04T09:58:21Z</time>
      </trkpt>
      <trkpt lat="47.60503" lon="-3.05906">
        <ele>20</ele>
        <time>2021-08-04T09:59:17Z</time>
      </trkpt>
      <trkpt lat="47.60504" lon="-3.05906">
        <ele>20</ele>
        <time>2021-08-04T09:59:18Z</time>
      </trkpt>
      <trkpt lat="47.60504" lon="-3.05907">
        <ele>20</ele>
        <time>2021-08-04T09:59:19Z</time>
      </trkpt>
      <trkpt lat="47.60505" lon="-3.05907">
        <ele>20</ele>
        <time>2021-08-04T09:59:20Z</time>
      </trkpt>
      <trkpt lat="47.60506" lon="-3.05907">
        <ele>20</ele>
        <time>2021-08-04T09:59:21Z</time>
      </trkpt>
      <trkpt lat="47.60506" lon="-3.05907">
        <ele>20</ele>
        <time>2021-08-04T09:59:22Z</time>
      </trkpt>
      <trkpt lat="47.60506" lon="-3.05908">
        <ele>20</ele>
        <time>2021-08-04T09:59:23Z</time>
      </trkpt>
      <trkpt lat="47.60506" lon="-3.05909">
        <ele>20</ele>
        <time>2021-08-04T09:59:24Z</time>
      </trkpt>
      <trkpt lat="47.60506" lon="-3.05909">
        <ele>19.8</ele>
        <time>2021-08-04T09:59:25Z</time>
      </trkpt>
      <trkpt lat="47.60506" lon="-3.05909">
        <ele>19.8</ele>
        <time>2021-08-04T09:59:26Z</time>
      </trkpt>
      <trkpt lat="47.60506" lon="-3.05909">
        <ele>19.8</ele>
        <time>2021-08-04T09:59:27Z</time>
      </trkpt>
      <trkpt lat="47.60507" lon="-3.05908">
        <ele>19.8</ele>
        <time>2021-08-04T09:59:28Z</time>
      </trkpt>
      <trkpt lat="47.60507" lon="-3.05909">
        <ele>19.8</ele>
        <time>2021-08-04T09:59:29Z</time>
      </trkpt>
      <trkpt lat="47.60508" lon="-3.05909">
        <ele>19.8</ele>
        <time>2021-08-04T09:59:30Z</time>
      </trkpt>
      <trkpt lat="47.60508" lon="-3.05909">
        <ele>19.8</ele>
        <time>2021-08-04T09:59:31Z</time>
      </trkpt>
      <trkpt lat="47.60509" lon="-3.05909">
        <ele>19.8</ele>
        <time>2021-08-04T09:59:32Z</time>
      </trkpt>
      <trkpt lat="47.60509" lon="-3.05909">
        <ele>19.8</ele>
        <time>2021-08-04T09:59:33Z</time>
      </trkpt>
      <trkpt lat="47.6051" lon="-3.0591">
        <ele>19.8</ele>
        <time>2021-08-04T09:59:34Z</time>
      </trkpt>
      <trkpt lat="47.60511" lon="-3.0591">
        <ele>19.8</ele>
        <time>2021-08-04T09:59:35Z</time>
      </trkpt>
      <trkpt lat="47.60511" lon="-3.0591">
        <ele>20</ele>
        <time>2021-08-04T09:59:36Z</time>
      </trkpt>
      <trkpt lat="47.60511" lon="-3.05909">
        <ele>20</ele>
        <time>2021-08-04T09:59:37Z</time>
      </trkpt>
      <trkpt lat="47.60512" lon="-3.05909">
        <ele>20</ele>
        <time>2021-08-04T09:59:38Z</time>
      </trkpt>
      <trkpt lat="47.60511" lon="-3.05908">
        <ele>20</ele>
        <time>2021-08-04T09:59:39Z</time>
      </trkpt>
      <trkpt lat="47.60512" lon="-3.05908">
        <ele>20.2</ele>
        <time>2021-08-04T09:59:40Z</time>
      </trkpt>
      <trkpt lat="47.60512" lon="-3.05908">
        <ele>20.2</ele>
        <time>2021-08-04T09:59:41Z</time>
      </trkpt>
      <trkpt lat="47.60512" lon="-3.05907">
        <ele>20.2</ele>
        <time>2021-08-04T09:59:42Z</time>
      </trkpt>
      <trkpt lat="47.60511" lon="-3.05907">
        <ele>20.2</ele>
        <time>2021-08-04T09:59:43Z</time>
      </trkpt>
      <trkpt lat="47.6051" lon="-3.05907">
        <ele>20.2</ele>
        <time>2021-08-04T09:59:44Z</time>
      </trkpt>
      <trkpt lat="47.60509" lon="-3.05905">
        <ele>20.2</ele>
        <time>2021-08-04T09:59:45Z</time>
      </trkpt>
      <trkpt lat="47.60508" lon="-3.05904">
        <ele>20.2</ele>
        <time>2021-08-04T09:59:46Z</time>
      </trkpt>
      <trkpt lat="47.60507" lon="-3.05903">
        <ele>20.2</ele>
        <time>2021-08-04T09:59:47Z</time>
      </trkpt>
      <trkpt lat="47.60506" lon="-3.05902">
        <ele>20.2</ele>
        <time>2021-08-04T09:59:48Z</time>
      </trkpt>
      <trkpt lat="47.60505" lon="-3.05902">
        <ele>20.2</ele>
        <time>2021-08-04T09:59:49Z</time>
      </trkpt>
      <trkpt lat="47.60505" lon="-3.05902">
        <ele>20.4</ele>
        <time>2021-08-04T09:59:50Z</time>
      </trkpt>
      <trkpt lat="47.60503" lon="-3.05901">
        <ele>20.4</ele>
        <time>2021-08-04T09:59:51Z</time>
      </trkpt>
      <trkpt lat="47.60502" lon="-3.059">
        <ele>20.4</ele>
        <time>2021-08-04T09:59:52Z</time>
      </trkpt>
      <trkpt lat="47.60501" lon="-3.05899">
        <ele>20.4</ele>
        <time>2021-08-04T09:59:53Z</time>
      </trkpt>
      <trkpt lat="47.60501" lon="-3.05898">
        <ele>20.4</ele>
        <time>2021-08-04T09:59:54Z</time>
      </trkpt>
      <trkpt lat="47.60499" lon="-3.05896">
        <ele>20.6</ele>
        <time>2021-08-04T09:59:55Z</time>
      </trkpt>
      <trkpt lat="47.60497" lon="-3.05894">
        <ele>20.6</ele>
        <time>2021-08-04T09:59:56Z</time>
      </trkpt>
      <trkpt lat="47.60496" lon="-3.05893">
        <ele>20.6</ele>
        <time>2021-08-04T09:59:57Z</time>
      </trkpt>
      <trkpt lat="47.60494" lon="-3.05892">
        <ele>20.6</ele>
        <time>2021-08-04T09:59:58Z</time>
      </trkpt>
      <trkpt lat="47.60493" lon="-3.05891">
        <ele>20.6</ele>
        <time>2021-08-04T09:59:59Z</time>
      </trkpt>
      <trkpt lat="47.60491" lon="-3.0589">
        <ele>20.6</ele>
        <time>2021-08-04T10:00:00Z</time>
      </trkpt>
      <trkpt lat="47.60491" lon="-3.0589">
        <ele>20.6</ele>
        <time>2021-08-04T10:00:01Z</time>
      </trkpt>
      <trkpt lat="47.6049" lon="-3.0589">
        <ele>20.6</ele>
        <time>2021-08-04T10:00:02Z</time>
      </trkpt>
      <trkpt lat="47.60489" lon="-3.05888">
        <ele>20.6</ele>
        <time>2021-08-04T10:00:03Z</time>
      </trkpt>
      <trkpt lat="47.60487" lon="-3.05888">
        <ele>20.6</ele>
        <time>2021-08-04T10:00:04Z</time>
      </trkpt>
      <trkpt lat="47.60486" lon="-3.05887">
        <ele>20.6</ele>
        <time>2021-08-04T10:00:05Z</time>
      </trkpt>
      <trkpt lat="47.60485" lon="-3.05886">
        <ele>20.6</ele>
        <time>2021-08-04T10:00:06Z</time>
      </trkpt>
      <trkpt lat="47.60484" lon="-3.05885">
        <ele>20.6</ele>
        <time>2021-08-04T10:00:07Z</time>
      </trkpt>
      <trkpt lat="47.60482" lon="-3.05884">
        <ele>20.6</ele>
        <time>2021-08-04T10:00:08Z</time>
      </trkpt>
      <trkpt lat="47.6048" lon="-3.05882">
        <ele>20.6</ele>
        <time>2021-08-04T10:00:09Z</time>
      </trkpt>
      <trkpt lat="47.60479" lon="-3.05879">
        <ele>20.6</ele>
        <time>2021-08-04T10:00:10Z</time>
      </trkpt>
      <trkpt lat="47.60477" lon="-3.05878">
        <ele>20.6</ele>
        <time>2021-08-04T10:00:11Z</time>
      </trkpt>
      <trkpt lat="47.60478" lon="-3.05876">
        <ele>20.6</ele>
        <time>2021-08-04T10:00:12Z</time>
      </trkpt>
      <trkpt lat="47.60476" lon="-3.05874">
        <ele>20.8</ele>
        <time>2021-08-04T10:00:13Z</time>
      </trkpt>
      <trkpt lat="47.60475" lon="-3.05873">
        <ele>20.8</ele>
        <time>2021-08-04T10:00:14Z</time>
      </trkpt>
      <trkpt lat="47.60474" lon="-3.05872">
        <ele>20.8</ele>
        <time>2021-08-04T10:00:15Z</time>
      </trkpt>
      <trkpt lat="47.60473" lon="-3.0587">
        <ele>20.8</ele>
        <time>2021-08-04T10:00:16Z</time>
      </trkpt>
      <trkpt lat="47.60473" lon="-3.05869">
        <ele>20.8</ele>
        <time>2021-08-04T10:00:17Z</time>
      </trkpt>
      <trkpt lat="47.60472" lon="-3.05867">
        <ele>20.8</ele>
        <time>2021-08-04T10:00:18Z</time>
      </trkpt>
      <trkpt lat="47.60471" lon="-3.05865">
        <ele>20.8</ele>
        <time>2021-08-04T10:00:19Z</time>
      </trkpt>
      <trkpt lat="47.60471" lon="-3.05862">
        <ele>21</ele>
        <time>2021-08-04T10:00:20Z</time>
      </trkpt>
      <trkpt lat="47.6047" lon="-3.0586">
        <ele>21</ele>
        <time>2021-08-04T10:00:21Z</time>
      </trkpt>
      <trkpt lat="47.60469" lon="-3.05857">
        <ele>21</ele>
        <time>2021-08-04T10:00:22Z</time>
      </trkpt>
      <trkpt lat="47.60468" lon="-3.05854">
        <ele>21</ele>
        <time>2021-08-04T10:00:23Z</time>
      </trkpt>
      <trkpt lat="47.60467" lon="-3.05852">
        <ele>21.2</ele>
        <time>2021-08-04T10:00:24Z</time>
      </trkpt>
      <trkpt lat="47.60466" lon="-3.05849">
        <ele>21.2</ele>
        <time>2021-08-04T10:00:25Z</time>
      </trkpt>
      <trkpt lat="47.60465" lon="-3.05845">
        <ele>21.2</ele>
        <time>2021-08-04T10:00:26Z</time>
      </trkpt>
      <trkpt lat="47.60464" lon="-3.05842">
        <ele>21.4</ele>
        <time>2021-08-04T10:00:27Z</time>
      </trkpt>
      <trkpt lat="47.60463" lon="-3.05839">
        <ele>21.6</ele>
        <time>2021-08-04T10:00:28Z</time>
      </trkpt>
      <trkpt lat="47.60463" lon="-3.05836">
        <ele>21.6</ele>
        <time>2021-08-04T10:00:29Z</time>
      </trkpt>
      <trkpt lat="47.60462" lon="-3.05834">
        <ele>21.8</ele>
        <time>2021-08-04T10:00:30Z</time>
      </trkpt>
      <trkpt lat="47.60461" lon="-3.05832">
        <ele>22</ele>
        <time>2021-08-04T10:00:31Z</time>
      </trkpt>
      <trkpt lat="47.60461" lon="-3.0583">
        <ele>22.2</ele>
        <time>2021-08-04T10:00:32Z</time>
      </trkpt>
      <trkpt lat="47.6046" lon="-3.05828">
        <ele>22</ele>
        <time>2021-08-04T10:00:33Z</time>
      </trkpt>
      <trkpt lat="47.60459" lon="-3.05827">
        <ele>22</ele>
        <time>2021-08-04T10:00:34Z</time>
      </trkpt>
      <trkpt lat="47.60458" lon="-3.05825">
        <ele>22.2</ele>
        <time>2021-08-04T10:00:35Z</time>
      </trkpt>
      <trkpt lat="47.60458" lon="-3.05824">
        <ele>22.4</ele>
        <time>2021-08-04T10:00:36Z</time>
      </trkpt>
      <trkpt lat="47.60457" lon="-3.05822">
        <ele>22.4</ele>
        <time>2021-08-04T10:00:37Z</time>
      </trkpt>
      <trkpt lat="47.60456" lon="-3.05818">
        <ele>22.6</ele>
        <time>2021-08-04T10:00:38Z</time>
      </trkpt>
      <trkpt lat="47.60456" lon="-3.05816">
        <ele>22.8</ele>
        <time>2021-08-04T10:00:39Z</time>
      </trkpt>
      <trkpt lat="47.60455" lon="-3.05814">
        <ele>22.8</ele>
        <time>2021-08-04T10:00:40Z</time>
      </trkpt>
      <trkpt lat="47.60454" lon="-3.05812">
        <ele>22.8</ele>
        <time>2021-08-04T10:00:41Z</time>
      </trkpt>
      <trkpt lat="47.60453" lon="-3.0581">
        <ele>22.8</ele>
        <time>2021-08-04T10:00:42Z</time>
      </trkpt>
      <trkpt lat="47.60452" lon="-3.05808">
        <ele>23</ele>
        <time>2021-08-04T10:00:43Z</time>
      </trkpt>
      <trkpt lat="47.60452" lon="-3.05807">
        <ele>23</ele>
        <time>2021-08-04T10:00:44Z</time>
      </trkpt>
      <trkpt lat="47.60452" lon="-3.05805">
        <ele>23.2</ele>
        <time>2021-08-04T10:00:45Z</time>
      </trkpt>
      <trkpt lat="47.60451" lon="-3.05805">
        <ele>23.2</ele>
        <time>2021-08-04T10:00:46Z</time>
      </trkpt>
      <trkpt lat="47.6045" lon="-3.05804">
        <ele>23.4</ele>
        <time>2021-08-04T10:00:47Z</time>
      </trkpt>
      <trkpt lat="47.6045" lon="-3.05803">
        <ele>23.4</ele>
        <time>2021-08-04T10:00:48Z</time>
      </trkpt>
      <trkpt lat="47.60449" lon="-3.05803">
        <ele>23.4</ele>
        <time>2021-08-04T10:00:49Z</time>
      </trkpt>
      <trkpt lat="47.60448" lon="-3.05801">
        <ele>23.6</ele>
        <time>2021-08-04T10:00:50Z</time>
      </trkpt>
      <trkpt lat="47.60447" lon="-3.05799">
        <ele>23.6</ele>
        <time>2021-08-04T10:00:51Z</time>
      </trkpt>
      <trkpt lat="47.60445" lon="-3.05796">
        <ele>23.8</ele>
        <time>2021-08-04T10:00:52Z</time>
      </trkpt>
      <trkpt lat="47.60444" lon="-3.05793">
        <ele>24</ele>
        <time>2021-08-04T10:00:53Z</time>
      </trkpt>
      <trkpt lat="47.60443" lon="-3.05791">
        <ele>24</ele>
        <time>2021-08-04T10:00:54Z</time>
      </trkpt>
      <trkpt lat="47.60441" lon="-3.05789">
        <ele>24</ele>
        <time>2021-08-04T10:00:55Z</time>
      </trkpt>
      <trkpt lat="47.6044" lon="-3.05788">
        <ele>24</ele>
        <time>2021-08-04T10:00:56Z</time>
      </trkpt>
      <trkpt lat="47.60439" lon="-3.05786">
        <ele>24.2</ele>
        <time>2021-08-04T10:00:57Z</time>
      </trkpt>
      <trkpt lat="47.60437" lon="-3.05785">
        <ele>24.2</ele>
        <time>2021-08-04T10:00:58Z</time>
      </trkpt>
      <trkpt lat="47.60436" lon="-3.05784">
        <ele>24.2</ele>
        <time>2021-08-04T10:00:59Z</time>
      </trkpt>
      <trkpt lat="47.60434" lon="-3.05782">
        <ele>24.4</ele>
        <time>2021-08-04T10:01:00Z</time>
      </trkpt>
      <trkpt lat="47.60433" lon="-3.05781">
        <ele>24.4</ele>
        <time>2021-08-04T10:01:01Z</time>
      </trkpt>
      <trkpt lat="47.60433" lon="-3.05779">
        <ele>24.6</ele>
        <time>2021-08-04T10:01:02Z</time>
      </trkpt>
      <trkpt lat="47.60432" lon="-3.05776">
        <ele>24.6</ele>
        <time>2021-08-04T10:01:03Z</time>
      </trkpt>
      <trkpt lat="47.6043" lon="-3.05773">
        <ele>24.8</ele>
        <time>2021-08-04T10:01:04Z</time>
      </trkpt>
      <trkpt lat="47.60429" lon="-3.05771">
        <ele>24.8</ele>
        <time>2021-08-04T10:01:05Z</time>
      </trkpt>
      <trkpt lat="47.60428" lon="-3.05767">
        <ele>24.8</ele>
        <time>2021-08-04T10:01:06Z</time>
      </trkpt>
      <trkpt lat="47.60427" lon="-3.05764">
        <ele>24.8</ele>
        <time>2021-08-04T10:01:07Z</time>
      </trkpt>
      <trkpt lat="47.60426" lon="-3.05761">
        <ele>24.8</ele>
        <time>2021-08-04T10:01:08Z</time>
      </trkpt>
      <trkpt lat="47.60426" lon="-3.05758">
        <ele>25</ele>
        <time>2021-08-04T10:01:09Z</time>
      </trkpt>
      <trkpt lat="47.60425" lon="-3.05756">
        <ele>25</ele>
        <time>2021-08-04T10:01:10Z</time>
      </trkpt>
      <trkpt lat="47.60424" lon="-3.05754">
        <ele>25</ele>
        <time>2021-08-04T10:01:11Z</time>
      </trkpt>
      <trkpt lat="47.60423" lon="-3.05753">
        <ele>25.2</ele>
        <time>2021-08-04T10:01:12Z</time>
      </trkpt>
      <trkpt lat="47.60423" lon="-3.05751">
        <ele>25.2</ele>
        <time>2021-08-04T10:01:13Z</time>
      </trkpt>
      <trkpt lat="47.60422" lon="-3.0575">
        <ele>25.2</ele>
        <time>2021-08-04T10:01:14Z</time>
      </trkpt>
      <trkpt lat="47.60422" lon="-3.05748">
        <ele>25.4</ele>
        <time>2021-08-04T10:01:15Z</time>
      </trkpt>
      <trkpt lat="47.60422" lon="-3.05746">
        <ele>25.2</ele>
        <time>2021-08-04T10:01:16Z</time>
      </trkpt>
      <trkpt lat="47.60421" lon="-3.05745">
        <ele>25.6</ele>
        <time>2021-08-04T10:01:17Z</time>
      </trkpt>
      <trkpt lat="47.6042" lon="-3.05745">
        <ele>25.4</ele>
        <time>2021-08-04T10:01:18Z</time>
      </trkpt>
      <trkpt lat="47.60419" lon="-3.05744">
        <ele>25.4</ele>
        <time>2021-08-04T10:01:19Z</time>
      </trkpt>
      <trkpt lat="47.60418" lon="-3.05742">
        <ele>25.6</ele>
        <time>2021-08-04T10:01:20Z</time>
      </trkpt>
      <trkpt lat="47.60416" lon="-3.05741">
        <ele>25.6</ele>
        <time>2021-08-04T10:01:21Z</time>
      </trkpt>
      <trkpt lat="47.60415" lon="-3.05739">
        <ele>25.6</ele>
        <time>2021-08-04T10:01:22Z</time>
      </trkpt>
      <trkpt lat="47.60414" lon="-3.05737">
        <ele>25.6</ele>
        <time>2021-08-04T10:01:23Z</time>
      </trkpt>
      <trkpt lat="47.60413" lon="-3.05735">
        <ele>25.6</ele>
        <time>2021-08-04T10:01:24Z</time>
      </trkpt>
      <trkpt lat="47.60411" lon="-3.05733">
        <ele>25.8</ele>
        <time>2021-08-04T10:01:25Z</time>
      </trkpt>
      <trkpt lat="47.6041" lon="-3.0573">
        <ele>26</ele>
        <time>2021-08-04T10:01:26Z</time>
      </trkpt>
      <trkpt lat="47.60408" lon="-3.05728">
        <ele>26</ele>
        <time>2021-08-04T10:01:27Z</time>
      </trkpt>
      <trkpt lat="47.60407" lon="-3.05728">
        <ele>26.2</ele>
        <time>2021-08-04T10:01:28Z</time>
      </trkpt>
      <trkpt lat="47.60405" lon="-3.05725">
        <ele>26.2</ele>
        <time>2021-08-04T10:01:29Z</time>
      </trkpt>
      <trkpt lat="47.60403" lon="-3.05724">
        <ele>26.2</ele>
        <time>2021-08-04T10:01:30Z</time>
      </trkpt>
      <trkpt lat="47.60402" lon="-3.05722">
        <ele>26.2</ele>
        <time>2021-08-04T10:01:31Z</time>
      </trkpt>
      <trkpt lat="47.604" lon="-3.05718">
        <ele>26.4</ele>
        <time>2021-08-04T10:01:33Z</time>
      </trkpt>
      <trkpt lat="47.60399" lon="-3.05717">
        <ele>26.4</ele>
        <time>2021-08-04T10:01:34Z</time>
      </trkpt>
      <trkpt lat="47.60398" lon="-3.05716">
        <ele>26.4</ele>
        <time>2021-08-04T10:01:35Z</time>
      </trkpt>
      <trkpt lat="47.60398" lon="-3.05715">
        <ele>26.4</ele>
        <time>2021-08-04T10:01:36Z</time>
      </trkpt>
      <trkpt lat="47.60397" lon="-3.05713">
        <ele>26.4</ele>
        <time>2021-08-04T10:01:37Z</time>
      </trkpt>
      <trkpt lat="47.60396" lon="-3.05712">
        <ele>26.4</ele>
        <time>2021-08-04T10:01:38Z</time>
      </trkpt>
      <trkpt lat="47.60396" lon="-3.0571">
        <ele>26.4</ele>
        <time>2021-08-04T10:01:39Z</time>
      </trkpt>
      <trkpt lat="47.60395" lon="-3.05709">
        <ele>26.4</ele>
        <time>2021-08-04T10:01:40Z</time>
      </trkpt>
      <trkpt lat="47.60394" lon="-3.05709">
        <ele>26.4</ele>
        <time>2021-08-04T10:01:41Z</time>
      </trkpt>
      <trkpt lat="47.60393" lon="-3.05708">
        <ele>26.4</ele>
        <time>2021-08-04T10:01:42Z</time>
      </trkpt>
      <trkpt lat="47.60393" lon="-3.05706">
        <ele>26.2</ele>
        <time>2021-08-04T10:01:43Z</time>
      </trkpt>
      <trkpt lat="47.60392" lon="-3.05704">
        <ele>26.2</ele>
        <time>2021-08-04T10:01:44Z</time>
      </trkpt>
      <trkpt lat="47.60391" lon="-3.05702">
        <ele>26.2</ele>
        <time>2021-08-04T10:01:45Z</time>
      </trkpt>
      <trkpt lat="47.60391" lon="-3.05701">
        <ele>26.2</ele>
        <time>2021-08-04T10:01:46Z</time>
      </trkpt>
      <trkpt lat="47.60391" lon="-3.05669">
        <ele>26.6</ele>
        <time>2021-08-04T10:03:01Z</time>
      </trkpt>
      <trkpt lat="47.60392" lon="-3.05666">
        <ele>26.6</ele>
        <time>2021-08-04T10:03:02Z</time>
      </trkpt>
      <trkpt lat="47.60393" lon="-3.05663">
        <ele>26.6</ele>
        <time>2021-08-04T10:03:03Z</time>
      </trkpt>
      <trkpt lat="47.60393" lon="-3.05659">
        <ele>26.6</ele>
        <time>2021-08-04T10:03:04Z</time>
      </trkpt>
      <trkpt lat="47.60393" lon="-3.05656">
        <ele>26.6</ele>
        <time>2021-08-04T10:03:05Z</time>
      </trkpt>
      <trkpt lat="47.60394" lon="-3.05652">
        <ele>26.6</ele>
        <time>2021-08-04T10:03:06Z</time>
      </trkpt>
      <trkpt lat="47.60394" lon="-3.05649">
        <ele>26.6</ele>
        <time>2021-08-04T10:03:07Z</time>
      </trkpt>
      <trkpt lat="47.60394" lon="-3.05647">
        <ele>26.2</ele>
        <time>2021-08-04T10:03:08Z</time>
      </trkpt>
      <trkpt lat="47.60394" lon="-3.05645">
        <ele>26.2</ele>
        <time>2021-08-04T10:03:09Z</time>
      </trkpt>
      <trkpt lat="47.60393" lon="-3.05643">
        <ele>26.2</ele>
        <time>2021-08-04T10:03:10Z</time>
      </trkpt>
      <trkpt lat="47.60393" lon="-3.05641">
        <ele>26.2</ele>
        <time>2021-08-04T10:03:11Z</time>
      </trkpt>
      <trkpt lat="47.60393" lon="-3.05639">
        <ele>26.2</ele>
        <time>2021-08-04T10:03:12Z</time>
      </trkpt>
      <trkpt lat="47.60393" lon="-3.05637">
        <ele>26.2</ele>
        <time>2021-08-04T10:03:13Z</time>
      </trkpt>
      <trkpt lat="47.60393" lon="-3.05636">
        <ele>26.2</ele>
        <time>2021-08-04T10:03:14Z</time>
      </trkpt>
      <trkpt lat="47.60393" lon="-3.05636">
        <ele>26.2</ele>
        <time>2021-08-04T10:03:15Z</time>
      </trkpt>
      <trkpt lat="47.60394" lon="-3.05632">
        <ele>26.6</ele>
        <time>2021-08-04T10:03:35Z</time>
      </trkpt>
      <trkpt lat="47.60394" lon="-3.05632">
        <ele>26.6</ele>
        <time>2021-08-04T10:03:36Z</time>
      </trkpt>
      <trkpt lat="47.60395" lon="-3.05631">
        <ele>26.6</ele>
        <time>2021-08-04T10:03:37Z</time>
      </trkpt>
      <trkpt lat="47.60395" lon="-3.05631">
        <ele>26.6</ele>
        <time>2021-08-04T10:03:38Z</time>
      </trkpt>
      <trkpt lat="47.60398" lon="-3.05626">
        <ele>26.4</ele>
        <time>2021-08-04T10:05:09Z</time>
      </trkpt>
      <trkpt lat="47.60399" lon="-3.05625">
        <ele>26.4</ele>
        <time>2021-08-04T10:05:10Z</time>
      </trkpt>
      <trkpt lat="47.60401" lon="-3.05625">
        <ele>26.4</ele>
        <time>2021-08-04T10:05:11Z</time>
      </trkpt>
      <trkpt lat="47.60402" lon="-3.05625">
        <ele>26.4</ele>
        <time>2021-08-04T10:05:12Z</time>
      </trkpt>
      <trkpt lat="47.60403" lon="-3.05625">
        <ele>26.4</ele>
        <time>2021-08-04T10:05:13Z</time>
      </trkpt>
      <trkpt lat="47.60403" lon="-3.05626">
        <ele>26.4</ele>
        <time>2021-08-04T10:05:14Z</time>
      </trkpt>
      <trkpt lat="47.60403" lon="-3.05627">
        <ele>26.4</ele>
        <time>2021-08-04T10:05:15Z</time>
      </trkpt>
      <trkpt lat="47.60401" lon="-3.05627">
        <ele>26.4</ele>
        <time>2021-08-04T10:05:16Z</time>
      </trkpt>
      <trkpt lat="47.604" lon="-3.05627">
        <ele>26.4</ele>
        <time>2021-08-04T10:05:17Z</time>
      </trkpt>
      <trkpt lat="47.60399" lon="-3.05627">
        <ele>26.4</ele>
        <time>2021-08-04T10:05:18Z</time>
      </trkpt>
      <trkpt lat="47.60397" lon="-3.05627">
        <ele>26.4</ele>
        <time>2021-08-04T10:05:19Z</time>
      </trkpt>
      <trkpt lat="47.60395" lon="-3.05627">
        <ele>26.4</ele>
        <time>2021-08-04T10:05:20Z</time>
      </trkpt>
      <trkpt lat="47.60394" lon="-3.05628">
        <ele>26.4</ele>
        <time>2021-08-04T10:05:21Z</time>
      </trkpt>
      <trkpt lat="47.60393" lon="-3.05628">
        <ele>26.4</ele>
        <time>2021-08-04T10:05:22Z</time>
      </trkpt>
      <trkpt lat="47.60391" lon="-3.05628">
        <ele>26.4</ele>
        <time>2021-08-04T10:05:23Z</time>
      </trkpt>
      <trkpt lat="47.60389" lon="-3.05628">
        <ele>26.4</ele>
        <time>2021-08-04T10:05:24Z</time>
      </trkpt>
      <trkpt lat="47.60386" lon="-3.05626">
        <ele>26.4</ele>
        <time>2021-08-04T10:05:25Z</time>
      </trkpt>
      <trkpt lat="47.60384" lon="-3.05625">
        <ele>26.4</ele>
        <time>2021-08-04T10:05:26Z</time>
      </trkpt>
      <trkpt lat="47.60381" lon="-3.05625">
        <ele>26.2</ele>
        <time>2021-08-04T10:05:27Z</time>
      </trkpt>
      <trkpt lat="47.60379" lon="-3.05626">
        <ele>26.2</ele>
        <time>2021-08-04T10:05:28Z</time>
      </trkpt>
      <trkpt lat="47.60377" lon="-3.05625">
        <ele>26.2</ele>
        <time>2021-08-04T10:05:29Z</time>
      </trkpt>
      <trkpt lat="47.60375" lon="-3.05625">
        <ele>26</ele>
        <time>2021-08-04T10:05:30Z</time>
      </trkpt>
      <trkpt lat="47.60374" lon="-3.05625">
        <ele>25.6</ele>
        <time>2021-08-04T10:05:31Z</time>
      </trkpt>
      <trkpt lat="47.60372" lon="-3.05624">
        <ele>25.4</ele>
        <time>2021-08-04T10:05:32Z</time>
      </trkpt>
      <trkpt lat="47.6037" lon="-3.05624">
        <ele>25.2</ele>
        <time>2021-08-04T10:05:33Z</time>
      </trkpt>
      <trkpt lat="47.60369" lon="-3.05624">
        <ele>25</ele>
        <time>2021-08-04T10:05:34Z</time>
      </trkpt>
      <trkpt lat="47.60368" lon="-3.05623">
        <ele>25</ele>
        <time>2021-08-04T10:05:35Z</time>
      </trkpt>
      <trkpt lat="47.60367" lon="-3.05623">
        <ele>25</ele>
        <time>2021-08-04T10:05:36Z</time>
      </trkpt>
      <trkpt lat="47.60366" lon="-3.05623">
        <ele>25</ele>
        <time>2021-08-04T10:05:37Z</time>
      </trkpt>
      <trkpt lat="47.60366" lon="-3.05622">
        <ele>25</ele>
        <time>2021-08-04T10:05:38Z</time>
      </trkpt>
      <trkpt lat="47.60365" lon="-3.05622">
        <ele>25</ele>
        <time>2021-08-04T10:05:39Z</time>
      </trkpt>
      <trkpt lat="47.60365" lon="-3.05622">
        <ele>25</ele>
        <time>2021-08-04T10:05:40Z</time>
      </trkpt>
      <trkpt lat="47.60366" lon="-3.05617">
        <ele>25</ele>
        <time>2021-08-04T10:07:37Z</time>
      </trkpt>
      <trkpt lat="47.60367" lon="-3.05616">
        <ele>25</ele>
        <time>2021-08-04T10:07:38Z</time>
      </trkpt>
      <trkpt lat="47.60368" lon="-3.05615">
        <ele>25</ele>
        <time>2021-08-04T10:07:39Z</time>
      </trkpt>
      <trkpt lat="47.6037" lon="-3.05615">
        <ele>25</ele>
        <time>2021-08-04T10:07:40Z</time>
      </trkpt>
      <trkpt lat="47.60371" lon="-3.05615">
        <ele>25</ele>
        <time>2021-08-04T10:07:41Z</time>
      </trkpt>
      <trkpt lat="47.60372" lon="-3.05615">
        <ele>25</ele>
        <time>2021-08-04T10:07:42Z</time>
      </trkpt>
      <trkpt lat="47.60373" lon="-3.05616">
        <ele>25</ele>
        <time>2021-08-04T10:07:43Z</time>
      </trkpt>
      <trkpt lat="47.60374" lon="-3.05617">
        <ele>25</ele>
        <time>2021-08-04T10:07:44Z</time>
      </trkpt>
      <trkpt lat="47.60375" lon="-3.05617">
        <ele>25</ele>
        <time>2021-08-04T10:07:45Z</time>
      </trkpt>
      <trkpt lat="47.60376" lon="-3.05618">
        <ele>25</ele>
        <time>2021-08-04T10:07:46Z</time>
      </trkpt>
      <trkpt lat="47.60377" lon="-3.05618">
        <ele>25</ele>
        <time>2021-08-04T10:07:47Z</time>
      </trkpt>
      <trkpt lat="47.60378" lon="-3.05618">
        <ele>25</ele>
        <time>2021-08-04T10:07:48Z</time>
      </trkpt>
      <trkpt lat="47.6038" lon="-3.05618">
        <ele>25</ele>
        <time>2021-08-04T10:07:49Z</time>
      </trkpt>
      <trkpt lat="47.60382" lon="-3.05618">
        <ele>25</ele>
        <time>2021-08-04T10:07:50Z</time>
      </trkpt>
      <trkpt lat="47.60383" lon="-3.05618">
        <ele>25.2</ele>
        <time>2021-08-04T10:07:51Z</time>
      </trkpt>
      <trkpt lat="47.60385" lon="-3.05617">
        <ele>25.2</ele>
        <time>2021-08-04T10:07:52Z</time>
      </trkpt>
      <trkpt lat="47.60386" lon="-3.05615">
        <ele>25.4</ele>
        <time>2021-08-04T10:07:53Z</time>
      </trkpt>
      <trkpt lat="47.60387" lon="-3.05613">
        <ele>25.4</ele>
        <time>2021-08-04T10:07:54Z</time>
      </trkpt>
      <trkpt lat="47.60389" lon="-3.05612">
        <ele>25.4</ele>
        <time>2021-08-04T10:07:55Z</time>
      </trkpt>
      <trkpt lat="47.60391" lon="-3.0561">
        <ele>25.4</ele>
        <time>2021-08-04T10:07:56Z</time>
      </trkpt>
      <trkpt lat="47.60394" lon="-3.05608">
        <ele>25.4</ele>
        <time>2021-08-04T10:07:57Z</time>
      </trkpt>
      <trkpt lat="47.60397" lon="-3.05606">
        <ele>25.4</ele>
        <time>2021-08-04T10:07:58Z</time>
      </trkpt>
      <trkpt lat="47.604" lon="-3.05605">
        <ele>25.4</ele>
        <time>2021-08-04T10:07:59Z</time>
      </trkpt>
      <trkpt lat="47.60402" lon="-3.05604">
        <ele>25.4</ele>
        <time>2021-08-04T10:08:00Z</time>
      </trkpt>
      <trkpt lat="47.60404" lon="-3.05604">
        <ele>25.4</ele>
        <time>2021-08-04T10:08:01Z</time>
      </trkpt>
      <trkpt lat="47.60406" lon="-3.05603">
        <ele>25.4</ele>
        <time>2021-08-04T10:08:02Z</time>
      </trkpt>
      <trkpt lat="47.60408" lon="-3.05602">
        <ele>25.2</ele>
        <time>2021-08-04T10:08:03Z</time>
      </trkpt>
      <trkpt lat="47.6041" lon="-3.05601">
        <ele>25.2</ele>
        <time>2021-08-04T10:08:04Z</time>
      </trkpt>
      <trkpt lat="47.60411" lon="-3.05599">
        <ele>25.2</ele>
        <time>2021-08-04T10:08:05Z</time>
      </trkpt>
      <trkpt lat="47.60411" lon="-3.05598">
        <ele>25.2</ele>
        <time>2021-08-04T10:08:06Z</time>
      </trkpt>
      <trkpt lat="47.60413" lon="-3.05596">
        <ele>25.2</ele>
        <time>2021-08-04T10:08:07Z</time>
      </trkpt>
      <trkpt lat="47.60414" lon="-3.05594">
        <ele>25</ele>
        <time>2021-08-04T10:08:08Z</time>
      </trkpt>
      <trkpt lat="47.60415" lon="-3.05592">
        <ele>25</ele>
        <time>2021-08-04T10:08:09Z</time>
      </trkpt>
      <trkpt lat="47.60417" lon="-3.0559">
        <ele>25</ele>
        <time>2021-08-04T10:08:10Z</time>
      </trkpt>
      <trkpt lat="47.60418" lon="-3.05588">
        <ele>25</ele>
        <time>2021-08-04T10:08:11Z</time>
      </trkpt>
      <trkpt lat="47.6042" lon="-3.05586">
        <ele>25</ele>
        <time>2021-08-04T10:08:12Z</time>
      </trkpt>
      <trkpt lat="47.60422" lon="-3.05584">
        <ele>25</ele>
        <time>2021-08-04T10:08:13Z</time>
      </trkpt>
      <trkpt lat="47.60423" lon="-3.05582">
        <ele>25</ele>
        <time>2021-08-04T10:08:14Z</time>
      </trkpt>
      <trkpt lat="47.60424" lon="-3.0558">
        <ele>24.8</ele>
        <time>2021-08-04T10:08:15Z</time>
      </trkpt>
      <trkpt lat="47.60426" lon="-3.05577">
        <ele>24.8</ele>
        <time>2021-08-04T10:08:16Z</time>
      </trkpt>
      <trkpt lat="47.60428" lon="-3.05576">
        <ele>24.8</ele>
        <time>2021-08-04T10:08:17Z</time>
      </trkpt>
      <trkpt lat="47.60429" lon="-3.05573">
        <ele>24.8</ele>
        <time>2021-08-04T10:08:18Z</time>
      </trkpt>
      <trkpt lat="47.60433" lon="-3.05571">
        <ele>24.8</ele>
        <time>2021-08-04T10:08:19Z</time>
      </trkpt>
      <trkpt lat="47.60435" lon="-3.05569">
        <ele>24.8</ele>
        <time>2021-08-04T10:08:20Z</time>
      </trkpt>
      <trkpt lat="47.60437" lon="-3.05566">
        <ele>24.8</ele>
        <time>2021-08-04T10:08:21Z</time>
      </trkpt>
      <trkpt lat="47.60439" lon="-3.05562">
        <ele>24.8</ele>
        <time>2021-08-04T10:08:22Z</time>
      </trkpt>
      <trkpt lat="47.60439" lon="-3.0556">
        <ele>24.8</ele>
        <time>2021-08-04T10:08:23Z</time>
      </trkpt>
      <trkpt lat="47.6044" lon="-3.05558">
        <ele>24.8</ele>
        <time>2021-08-04T10:08:24Z</time>
      </trkpt>
      <trkpt lat="47.60441" lon="-3.05555">
        <ele>24.6</ele>
        <time>2021-08-04T10:08:25Z</time>
      </trkpt>
      <trkpt lat="47.60442" lon="-3.05553">
        <ele>24.6</ele>
        <time>2021-08-04T10:08:26Z</time>
      </trkpt>
      <trkpt lat="47.60443" lon="-3.05551">
        <ele>24.4</ele>
        <time>2021-08-04T10:08:27Z</time>
      </trkpt>
      <trkpt lat="47.60443" lon="-3.05549">
        <ele>24.4</ele>
        <time>2021-08-04T10:08:28Z</time>
      </trkpt>
      <trkpt lat="47.60444" lon="-3.05547">
        <ele>24.4</ele>
        <time>2021-08-04T10:08:29Z</time>
      </trkpt>
      <trkpt lat="47.60444" lon="-3.05545">
        <ele>24.4</ele>
        <time>2021-08-04T10:08:30Z</time>
      </trkpt>
      <trkpt lat="47.60445" lon="-3.05543">
        <ele>24.2</ele>
        <time>2021-08-04T10:08:31Z</time>
      </trkpt>
      <trkpt lat="47.60445" lon="-3.05543">
        <ele>24.2</ele>
        <time>2021-08-04T10:08:32Z</time>
      </trkpt>
      <trkpt lat="47.6045" lon="-3.05537">
        <ele>24</ele>
        <time>2021-08-04T10:08:39Z</time>
      </trkpt>
      <trkpt lat="47.6045" lon="-3.05537">
        <ele>24</ele>
        <time>2021-08-04T10:08:40Z</time>
      </trkpt>
      <trkpt lat="47.6045" lon="-3.05537">
        <ele>24</ele>
        <time>2021-08-04T10:08:41Z</time>
      </trkpt>
      <trkpt lat="47.6045" lon="-3.05536">
        <ele>24</ele>
        <time>2021-08-04T10:09:22Z</time>
      </trkpt>
      <trkpt lat="47.6045" lon="-3.05536">
        <ele>24</ele>
        <time>2021-08-04T10:09:23Z</time>
      </trkpt>
      <trkpt lat="47.6045" lon="-3.05535">
        <ele>24</ele>
        <time>2021-08-04T10:09:24Z</time>
      </trkpt>
      <trkpt lat="47.6045" lon="-3.05535">
        <ele>24</ele>
        <time>2021-08-04T10:09:25Z</time>
      </trkpt>
      <trkpt lat="47.6045" lon="-3.05533">
        <ele>24</ele>
        <time>2021-08-04T10:09:26Z</time>
      </trkpt>
      <trkpt lat="47.6045" lon="-3.05532">
        <ele>24</ele>
        <time>2021-08-04T10:09:27Z</time>
      </trkpt>
      <trkpt lat="47.60449" lon="-3.05531">
        <ele>24</ele>
        <time>2021-08-04T10:09:28Z</time>
      </trkpt>
      <trkpt lat="47.60449" lon="-3.05529">
        <ele>24</ele>
        <time>2021-08-04T10:09:29Z</time>
      </trkpt>
      <trkpt lat="47.60449" lon="-3.05526">
        <ele>24</ele>
        <time>2021-08-04T10:09:30Z</time>
      </trkpt>
      <trkpt lat="47.60449" lon="-3.05522">
        <ele>24</ele>
        <time>2021-08-04T10:09:31Z</time>
      </trkpt>
      <trkpt lat="47.60449" lon="-3.05518">
        <ele>23.8</ele>
        <time>2021-08-04T10:09:32Z</time>
      </trkpt>
      <trkpt lat="47.60449" lon="-3.05515">
        <ele>23.6</ele>
        <time>2021-08-04T10:09:33Z</time>
      </trkpt>
      <trkpt lat="47.60449" lon="-3.05512">
        <ele>23.4</ele>
        <time>2021-08-04T10:09:34Z</time>
      </trkpt>
      <trkpt lat="47.60449" lon="-3.0551">
        <ele>23.4</ele>
        <time>2021-08-04T10:09:35Z</time>
      </trkpt>
      <trkpt lat="47.60449" lon="-3.05508">
        <ele>23</ele>
        <time>2021-08-04T10:09:36Z</time>
      </trkpt>
      <trkpt lat="47.6045" lon="-3.05504">
        <ele>23</ele>
        <time>2021-08-04T10:09:37Z</time>
      </trkpt>
      <trkpt lat="47.6045" lon="-3.05501">
        <ele>22.8</ele>
        <time>2021-08-04T10:09:38Z</time>
      </trkpt>
      <trkpt lat="47.60451" lon="-3.05497">
        <ele>22.8</ele>
        <time>2021-08-04T10:09:39Z</time>
      </trkpt>
      <trkpt lat="47.60452" lon="-3.05495">
        <ele>22.6</ele>
        <time>2021-08-04T10:09:40Z</time>
      </trkpt>
      <trkpt lat="47.60453" lon="-3.05493">
        <ele>22.4</ele>
        <time>2021-08-04T10:09:41Z</time>
      </trkpt>
      <trkpt lat="47.60454" lon="-3.05491">
        <ele>22.4</ele>
        <time>2021-08-04T10:09:42Z</time>
      </trkpt>
      <trkpt lat="47.60454" lon="-3.05489">
        <ele>22.4</ele>
        <time>2021-08-04T10:09:43Z</time>
      </trkpt>
      <trkpt lat="47.60454" lon="-3.05486">
        <ele>22.4</ele>
        <time>2021-08-04T10:09:44Z</time>
      </trkpt>
      <trkpt lat="47.60454" lon="-3.05483">
        <ele>22.2</ele>
        <time>2021-08-04T10:09:45Z</time>
      </trkpt>
      <trkpt lat="47.60455" lon="-3.05481">
        <ele>22.2</ele>
        <time>2021-08-04T10:09:46Z</time>
      </trkpt>
      <trkpt lat="47.60455" lon="-3.05477">
        <ele>22.2</ele>
        <time>2021-08-04T10:09:47Z</time>
      </trkpt>
      <trkpt lat="47.60456" lon="-3.05474">
        <ele>22</ele>
        <time>2021-08-04T10:09:48Z</time>
      </trkpt>
      <trkpt lat="47.60456" lon="-3.05471">
        <ele>21.8</ele>
        <time>2021-08-04T10:09:49Z</time>
      </trkpt>
      <trkpt lat="47.60457" lon="-3.05467">
        <ele>21.6</ele>
        <time>2021-08-04T10:09:50Z</time>
      </trkpt>
      <trkpt lat="47.60457" lon="-3.05464">
        <ele>21.4</ele>
        <time>2021-08-04T10:09:51Z</time>
      </trkpt>
      <trkpt lat="47.60457" lon="-3.0546">
        <ele>21.4</ele>
        <time>2021-08-04T10:09:52Z</time>
      </trkpt>
      <trkpt lat="47.60458" lon="-3.05458">
        <ele>21.2</ele>
        <time>2021-08-04T10:09:53Z</time>
      </trkpt>
      <trkpt lat="47.60459" lon="-3.05454">
        <ele>21</ele>
        <time>2021-08-04T10:09:54Z</time>
      </trkpt>
      <trkpt lat="47.6046" lon="-3.05451">
        <ele>20.8</ele>
        <time>2021-08-04T10:09:55Z</time>
      </trkpt>
      <trkpt lat="47.60461" lon="-3.05446">
        <ele>20.8</ele>
        <time>2021-08-04T10:09:56Z</time>
      </trkpt>
      <trkpt lat="47.60461" lon="-3.05443">
        <ele>20.6</ele>
        <time>2021-08-04T10:09:57Z</time>
      </trkpt>
      <trkpt lat="47.60461" lon="-3.0544">
        <ele>20.4</ele>
        <time>2021-08-04T10:09:58Z</time>
      </trkpt>
      <trkpt lat="47.60462" lon="-3.05437">
        <ele>20.2</ele>
        <time>2021-08-04T10:09:59Z</time>
      </trkpt>
      <trkpt lat="47.60463" lon="-3.05434">
        <ele>19.8</ele>
        <time>2021-08-04T10:10:00Z</time>
      </trkpt>
      <trkpt lat="47.60463" lon="-3.05431">
        <ele>19.6</ele>
        <time>2021-08-04T10:10:01Z</time>
      </trkpt>
      <trkpt lat="47.60464" lon="-3.05428">
        <ele>19.4</ele>
        <time>2021-08-04T10:10:02Z</time>
      </trkpt>
      <trkpt lat="47.60464" lon="-3.05425">
        <ele>19.2</ele>
        <time>2021-08-04T10:10:03Z</time>
      </trkpt>
      <trkpt lat="47.60464" lon="-3.05421">
        <ele>19.2</ele>
        <time>2021-08-04T10:10:04Z</time>
      </trkpt>
      <trkpt lat="47.60465" lon="-3.05417">
        <ele>19</ele>
        <time>2021-08-04T10:10:05Z</time>
      </trkpt>
      <trkpt lat="47.60465" lon="-3.05413">
        <ele>19</ele>
        <time>2021-08-04T10:10:06Z</time>
      </trkpt>
      <trkpt lat="47.60467" lon="-3.0541">
        <ele>18.8</ele>
        <time>2021-08-04T10:10:07Z</time>
      </trkpt>
      <trkpt lat="47.60467" lon="-3.05407">
        <ele>18.6</ele>
        <time>2021-08-04T10:10:08Z</time>
      </trkpt>
      <trkpt lat="47.60467" lon="-3.05403">
        <ele>18.4</ele>
        <time>2021-08-04T10:10:09Z</time>
      </trkpt>
      <trkpt lat="47.60467" lon="-3.05401">
        <ele>18.2</ele>
        <time>2021-08-04T10:10:10Z</time>
      </trkpt>
      <trkpt lat="47.60467" lon="-3.05399">
        <ele>18</ele>
        <time>2021-08-04T10:10:11Z</time>
      </trkpt>
      <trkpt lat="47.60466" lon="-3.05396">
        <ele>18</ele>
        <time>2021-08-04T10:10:12Z</time>
      </trkpt>
      <trkpt lat="47.60465" lon="-3.05394">
        <ele>18</ele>
        <time>2021-08-04T10:10:13Z</time>
      </trkpt>
      <trkpt lat="47.60464" lon="-3.05392">
        <ele>17.8</ele>
        <time>2021-08-04T10:10:14Z</time>
      </trkpt>
      <trkpt lat="47.60463" lon="-3.0539">
        <ele>17.8</ele>
        <time>2021-08-04T10:10:15Z</time>
      </trkpt>
      <trkpt lat="47.60462" lon="-3.05387">
        <ele>17.8</ele>
        <time>2021-08-04T10:10:16Z</time>
      </trkpt>
      <trkpt lat="47.60461" lon="-3.05385">
        <ele>17.8</ele>
        <time>2021-08-04T10:10:17Z</time>
      </trkpt>
      <trkpt lat="47.60459" lon="-3.05382">
        <ele>17.8</ele>
        <time>2021-08-04T10:10:18Z</time>
      </trkpt>
      <trkpt lat="47.60458" lon="-3.0538">
        <ele>17.8</ele>
        <time>2021-08-04T10:10:19Z</time>
      </trkpt>
      <trkpt lat="47.60458" lon="-3.05379">
        <ele>17.6</ele>
        <time>2021-08-04T10:10:20Z</time>
      </trkpt>
      <trkpt lat="47.60457" lon="-3.05377">
        <ele>17.6</ele>
        <time>2021-08-04T10:10:21Z</time>
      </trkpt>
      <trkpt lat="47.60456" lon="-3.05376">
        <ele>17.6</ele>
        <time>2021-08-04T10:10:22Z</time>
      </trkpt>
      <trkpt lat="47.60455" lon="-3.05375">
        <ele>17.6</ele>
        <time>2021-08-04T10:10:23Z</time>
      </trkpt>
      <trkpt lat="47.60454" lon="-3.05373">
        <ele>17.6</ele>
        <time>2021-08-04T10:10:24Z</time>
      </trkpt>
      <trkpt lat="47.60453" lon="-3.05371">
        <ele>17.6</ele>
        <time>2021-08-04T10:10:25Z</time>
      </trkpt>
      <trkpt lat="47.60453" lon="-3.05369">
        <ele>17.4</ele>
        <time>2021-08-04T10:10:26Z</time>
      </trkpt>
      <trkpt lat="47.60452" lon="-3.05367">
        <ele>17.4</ele>
        <time>2021-08-04T10:10:27Z</time>
      </trkpt>
      <trkpt lat="47.60451" lon="-3.05365">
        <ele>17.4</ele>
        <time>2021-08-04T10:10:28Z</time>
      </trkpt>
      <trkpt lat="47.6045" lon="-3.05361">
        <ele>17.4</ele>
        <time>2021-08-04T10:10:29Z</time>
      </trkpt>
      <trkpt lat="47.60449" lon="-3.05358">
        <ele>17.4</ele>
        <time>2021-08-04T10:10:30Z</time>
      </trkpt>
      <trkpt lat="47.60447" lon="-3.05355">
        <ele>17.4</ele>
        <time>2021-08-04T10:10:31Z</time>
      </trkpt>
      <trkpt lat="47.60445" lon="-3.05351">
        <ele>17.4</ele>
        <time>2021-08-04T10:10:32Z</time>
      </trkpt>
      <trkpt lat="47.60443" lon="-3.05346">
        <ele>17.4</ele>
        <time>2021-08-04T10:10:33Z</time>
      </trkpt>
      <trkpt lat="47.60441" lon="-3.05342">
        <ele>17.2</ele>
        <time>2021-08-04T10:10:34Z</time>
      </trkpt>
      <trkpt lat="47.6044" lon="-3.05337">
        <ele>17.2</ele>
        <time>2021-08-04T10:10:35Z</time>
      </trkpt>
      <trkpt lat="47.60438" lon="-3.05331">
        <ele>17.2</ele>
        <time>2021-08-04T10:10:36Z</time>
      </trkpt>
      <trkpt lat="47.60437" lon="-3.05327">
        <ele>17.2</ele>
        <time>2021-08-04T10:10:37Z</time>
      </trkpt>
      <trkpt lat="47.60436" lon="-3.05323">
        <ele>17.2</ele>
        <time>2021-08-04T10:10:38Z</time>
      </trkpt>
      <trkpt lat="47.60434" lon="-3.05319">
        <ele>17.2</ele>
        <time>2021-08-04T10:10:39Z</time>
      </trkpt>
      <trkpt lat="47.60433" lon="-3.05315">
        <ele>17</ele>
        <time>2021-08-04T10:10:40Z</time>
      </trkpt>
      <trkpt lat="47.60431" lon="-3.0531">
        <ele>17</ele>
        <time>2021-08-04T10:10:41Z</time>
      </trkpt>
      <trkpt lat="47.6043" lon="-3.05308">
        <ele>17</ele>
        <time>2021-08-04T10:10:42Z</time>
      </trkpt>
      <trkpt lat="47.60429" lon="-3.05304">
        <ele>17</ele>
        <time>2021-08-04T10:10:43Z</time>
      </trkpt>
      <trkpt lat="47.60427" lon="-3.05302">
        <ele>17</ele>
        <time>2021-08-04T10:10:44Z</time>
      </trkpt>
      <trkpt lat="47.60426" lon="-3.05298">
        <ele>17</ele>
        <time>2021-08-04T10:10:45Z</time>
      </trkpt>
      <trkpt lat="47.60425" lon="-3.05296">
        <ele>17</ele>
        <time>2021-08-04T10:10:46Z</time>
      </trkpt>
      <trkpt lat="47.60424" lon="-3.05293">
        <ele>17</ele>
        <time>2021-08-04T10:10:47Z</time>
      </trkpt>
      <trkpt lat="47.60422" lon="-3.0529">
        <ele>17</ele>
        <time>2021-08-04T10:10:48Z</time>
      </trkpt>
      <trkpt lat="47.6042" lon="-3.05287">
        <ele>17</ele>
        <time>2021-08-04T10:10:49Z</time>
      </trkpt>
      <trkpt lat="47.60418" lon="-3.05285">
        <ele>17</ele>
        <time>2021-08-04T10:10:50Z</time>
      </trkpt>
      <trkpt lat="47.60417" lon="-3.05283">
        <ele>17</ele>
        <time>2021-08-04T10:10:51Z</time>
      </trkpt>
      <trkpt lat="47.60415" lon="-3.05281">
        <ele>17.2</ele>
        <time>2021-08-04T10:10:52Z</time>
      </trkpt>
      <trkpt lat="47.60414" lon="-3.05278">
        <ele>17.2</ele>
        <time>2021-08-04T10:10:53Z</time>
      </trkpt>
      <trkpt lat="47.60413" lon="-3.05275">
        <ele>17.2</ele>
        <time>2021-08-04T10:10:54Z</time>
      </trkpt>
      <trkpt lat="47.6041" lon="-3.05271">
        <ele>17.2</ele>
        <time>2021-08-04T10:10:55Z</time>
      </trkpt>
      <trkpt lat="47.60408" lon="-3.05268">
        <ele>17.2</ele>
        <time>2021-08-04T10:10:56Z</time>
      </trkpt>
      <trkpt lat="47.60405" lon="-3.05264">
        <ele>17.2</ele>
        <time>2021-08-04T10:10:57Z</time>
      </trkpt>
      <trkpt lat="47.60402" lon="-3.0526">
        <ele>17.2</ele>
        <time>2021-08-04T10:10:58Z</time>
      </trkpt>
      <trkpt lat="47.604" lon="-3.05254">
        <ele>17.2</ele>
        <time>2021-08-04T10:10:59Z</time>
      </trkpt>
      <trkpt lat="47.60397" lon="-3.0525">
        <ele>17.2</ele>
        <time>2021-08-04T10:11:00Z</time>
      </trkpt>
      <trkpt lat="47.60394" lon="-3.05246">
        <ele>17.2</ele>
        <time>2021-08-04T10:11:01Z</time>
      </trkpt>
      <trkpt lat="47.60392" lon="-3.05242">
        <ele>17</ele>
        <time>2021-08-04T10:11:02Z</time>
      </trkpt>
      <trkpt lat="47.60391" lon="-3.05241">
        <ele>17</ele>
        <time>2021-08-04T10:11:03Z</time>
      </trkpt>
      <trkpt lat="47.60389" lon="-3.05239">
        <ele>17</ele>
        <time>2021-08-04T10:11:04Z</time>
      </trkpt>
      <trkpt lat="47.60387" lon="-3.05237">
        <ele>16.8</ele>
        <time>2021-08-04T10:11:05Z</time>
      </trkpt>
      <trkpt lat="47.60386" lon="-3.05236">
        <ele>16.8</ele>
        <time>2021-08-04T10:11:06Z</time>
      </trkpt>
      <trkpt lat="47.60383" lon="-3.05234">
        <ele>16.8</ele>
        <time>2021-08-04T10:11:07Z</time>
      </trkpt>
      <trkpt lat="47.60382" lon="-3.05233">
        <ele>16.6</ele>
        <time>2021-08-04T10:11:08Z</time>
      </trkpt>
      <trkpt lat="47.60381" lon="-3.05232">
        <ele>16.6</ele>
        <time>2021-08-04T10:11:09Z</time>
      </trkpt>
      <trkpt lat="47.6038" lon="-3.05229">
        <ele>16.6</ele>
        <time>2021-08-04T10:11:10Z</time>
      </trkpt>
      <trkpt lat="47.60378" lon="-3.05228">
        <ele>16.6</ele>
        <time>2021-08-04T10:11:11Z</time>
      </trkpt>
      <trkpt lat="47.60377" lon="-3.05226">
        <ele>16.6</ele>
        <time>2021-08-04T10:11:12Z</time>
      </trkpt>
      <trkpt lat="47.60375" lon="-3.05224">
        <ele>16.6</ele>
        <time>2021-08-04T10:11:13Z</time>
      </trkpt>
      <trkpt lat="47.60375" lon="-3.05223">
        <ele>16.6</ele>
        <time>2021-08-04T10:11:14Z</time>
      </trkpt>
      <trkpt lat="47.60374" lon="-3.05221">
        <ele>16.6</ele>
        <time>2021-08-04T10:11:15Z</time>
      </trkpt>
      <trkpt lat="47.60372" lon="-3.05218">
        <ele>16.6</ele>
        <time>2021-08-04T10:11:16Z</time>
      </trkpt>
      <trkpt lat="47.60371" lon="-3.05215">
        <ele>16.6</ele>
        <time>2021-08-04T10:11:17Z</time>
      </trkpt>
      <trkpt lat="47.6037" lon="-3.05213">
        <ele>16.6</ele>
        <time>2021-08-04T10:11:18Z</time>
      </trkpt>
      <trkpt lat="47.60369" lon="-3.05211">
        <ele>16.6</ele>
        <time>2021-08-04T10:11:19Z</time>
      </trkpt>
      <trkpt lat="47.60361" lon="-3.052">
        <ele>16.6</ele>
        <time>2021-08-04T10:11:26Z</time>
      </trkpt>
      <trkpt lat="47.60359" lon="-3.05199">
        <ele>16.6</ele>
        <time>2021-08-04T10:11:27Z</time>
      </trkpt>
      <trkpt lat="47.60358" lon="-3.05197">
        <ele>16.6</ele>
        <time>2021-08-04T10:11:28Z</time>
      </trkpt>
      <trkpt lat="47.60355" lon="-3.05196">
        <ele>16.6</ele>
        <time>2021-08-04T10:11:29Z</time>
      </trkpt>
      <trkpt lat="47.60353" lon="-3.05193">
        <ele>16.6</ele>
        <time>2021-08-04T10:11:30Z</time>
      </trkpt>
      <trkpt lat="47.60351" lon="-3.05191">
        <ele>16.6</ele>
        <time>2021-08-04T10:11:31Z</time>
      </trkpt>
      <trkpt lat="47.60349" lon="-3.05189">
        <ele>16.6</ele>
        <time>2021-08-04T10:11:32Z</time>
      </trkpt>
      <trkpt lat="47.60347" lon="-3.05187">
        <ele>16.6</ele>
        <time>2021-08-04T10:11:33Z</time>
      </trkpt>
      <trkpt lat="47.60345" lon="-3.05184">
        <ele>16.6</ele>
        <time>2021-08-04T10:11:34Z</time>
      </trkpt>
      <trkpt lat="47.60344" lon="-3.05182">
        <ele>16.6</ele>
        <time>2021-08-04T10:11:35Z</time>
      </trkpt>
      <trkpt lat="47.60342" lon="-3.05179">
        <ele>16.6</ele>
        <time>2021-08-04T10:11:36Z</time>
      </trkpt>
      <trkpt lat="47.6034" lon="-3.05177">
        <ele>16.4</ele>
        <time>2021-08-04T10:11:37Z</time>
      </trkpt>
      <trkpt lat="47.60338" lon="-3.05175">
        <ele>16.4</ele>
        <time>2021-08-04T10:11:38Z</time>
      </trkpt>
      <trkpt lat="47.60336" lon="-3.05174">
        <ele>16.2</ele>
        <time>2021-08-04T10:11:39Z</time>
      </trkpt>
      <trkpt lat="47.60334" lon="-3.05172">
        <ele>16.2</ele>
        <time>2021-08-04T10:11:40Z</time>
      </trkpt>
      <trkpt lat="47.60332" lon="-3.05171">
        <ele>16.2</ele>
        <time>2021-08-04T10:11:41Z</time>
      </trkpt>
      <trkpt lat="47.60331" lon="-3.05168">
        <ele>16.2</ele>
        <time>2021-08-04T10:11:42Z</time>
      </trkpt>
      <trkpt lat="47.60328" lon="-3.05165">
        <ele>16</ele>
        <time>2021-08-04T10:11:43Z</time>
      </trkpt>
      <trkpt lat="47.60325" lon="-3.05163">
        <ele>16</ele>
        <time>2021-08-04T10:11:44Z</time>
      </trkpt>
      <trkpt lat="47.60322" lon="-3.0516">
        <ele>16</ele>
        <time>2021-08-04T10:11:45Z</time>
      </trkpt>
      <trkpt lat="47.60319" lon="-3.05158">
        <ele>16</ele>
        <time>2021-08-04T10:11:46Z</time>
      </trkpt>
      <trkpt lat="47.60317" lon="-3.05156">
        <ele>15.8</ele>
        <time>2021-08-04T10:11:47Z</time>
      </trkpt>
      <trkpt lat="47.60314" lon="-3.05154">
        <ele>15.8</ele>
        <time>2021-08-04T10:11:48Z</time>
      </trkpt>
      <trkpt lat="47.60312" lon="-3.05151">
        <ele>15.8</ele>
        <time>2021-08-04T10:11:49Z</time>
      </trkpt>
      <trkpt lat="47.6031" lon="-3.05148">
        <ele>15.6</ele>
        <time>2021-08-04T10:11:50Z</time>
      </trkpt>
      <trkpt lat="47.60308" lon="-3.05147">
        <ele>15.6</ele>
        <time>2021-08-04T10:11:51Z</time>
      </trkpt>
      <trkpt lat="47.60306" lon="-3.05145">
        <ele>15.4</ele>
        <time>2021-08-04T10:11:52Z</time>
      </trkpt>
      <trkpt lat="47.60304" lon="-3.05143">
        <ele>15.2</ele>
        <time>2021-08-04T10:11:53Z</time>
      </trkpt>
      <trkpt lat="47.60302" lon="-3.05142">
        <ele>15.2</ele>
        <time>2021-08-04T10:11:54Z</time>
      </trkpt>
      <trkpt lat="47.603" lon="-3.0514">
        <ele>15</ele>
        <time>2021-08-04T10:11:55Z</time>
      </trkpt>
      <trkpt lat="47.60298" lon="-3.05137">
        <ele>15</ele>
        <time>2021-08-04T10:11:56Z</time>
      </trkpt>
      <trkpt lat="47.60297" lon="-3.05135">
        <ele>15</ele>
        <time>2021-08-04T10:11:57Z</time>
      </trkpt>
      <trkpt lat="47.60297" lon="-3.05133">
        <ele>15</ele>
        <time>2021-08-04T10:11:58Z</time>
      </trkpt>
      <trkpt lat="47.60296" lon="-3.05132">
        <ele>15</ele>
        <time>2021-08-04T10:11:59Z</time>
      </trkpt>
      <trkpt lat="47.60295" lon="-3.05131">
        <ele>14.8</ele>
        <time>2021-08-04T10:12:00Z</time>
      </trkpt>
      <trkpt lat="47.60295" lon="-3.05131">
        <ele>14.8</ele>
        <time>2021-08-04T10:12:01Z</time>
      </trkpt>
      <trkpt lat="47.60294" lon="-3.0513">
        <ele>14.8</ele>
        <time>2021-08-04T10:12:02Z</time>
      </trkpt>
      <trkpt lat="47.60295" lon="-3.05128">
        <ele>14.4</ele>
        <time>2021-08-04T10:12:34Z</time>
      </trkpt>
      <trkpt lat="47.60295" lon="-3.05126">
        <ele>14.4</ele>
        <time>2021-08-04T10:12:35Z</time>
      </trkpt>
      <trkpt lat="47.60296" lon="-3.05125">
        <ele>14.4</ele>
        <time>2021-08-04T10:12:36Z</time>
      </trkpt>
      <trkpt lat="47.60296" lon="-3.05123">
        <ele>14.4</ele>
        <time>2021-08-04T10:12:37Z</time>
      </trkpt>
      <trkpt lat="47.60297" lon="-3.05121">
        <ele>14.4</ele>
        <time>2021-08-04T10:12:38Z</time>
      </trkpt>
      <trkpt lat="47.60298" lon="-3.05119">
        <ele>14.6</ele>
        <time>2021-08-04T10:12:39Z</time>
      </trkpt>
      <trkpt lat="47.60299" lon="-3.05116">
        <ele>14.6</ele>
        <time>2021-08-04T10:12:40Z</time>
      </trkpt>
      <trkpt lat="47.603" lon="-3.05114">
        <ele>14.6</ele>
        <time>2021-08-04T10:12:41Z</time>
      </trkpt>
      <trkpt lat="47.60301" lon="-3.05112">
        <ele>14.6</ele>
        <time>2021-08-04T10:12:42Z</time>
      </trkpt>
      <trkpt lat="47.60302" lon="-3.0511">
        <ele>14.6</ele>
        <time>2021-08-04T10:12:43Z</time>
      </trkpt>
      <trkpt lat="47.60303" lon="-3.05108">
        <ele>14.6</ele>
        <time>2021-08-04T10:12:44Z</time>
      </trkpt>
      <trkpt lat="47.60303" lon="-3.05106">
        <ele>14.6</ele>
        <time>2021-08-04T10:12:45Z</time>
      </trkpt>
      <trkpt lat="47.60304" lon="-3.05105">
        <ele>14.8</ele>
        <time>2021-08-04T10:12:46Z</time>
      </trkpt>
      <trkpt lat="47.60305" lon="-3.05103">
        <ele>15</ele>
        <time>2021-08-04T10:12:47Z</time>
      </trkpt>
      <trkpt lat="47.60307" lon="-3.05101">
        <ele>15.2</ele>
        <time>2021-08-04T10:12:48Z</time>
      </trkpt>
      <trkpt lat="47.60309" lon="-3.051">
        <ele>15.4</ele>
        <time>2021-08-04T10:12:49Z</time>
      </trkpt>
      <trkpt lat="47.60311" lon="-3.05098">
        <ele>15.6</ele>
        <time>2021-08-04T10:12:50Z</time>
      </trkpt>
      <trkpt lat="47.60313" lon="-3.05096">
        <ele>16</ele>
        <time>2021-08-04T10:12:51Z</time>
      </trkpt>
      <trkpt lat="47.60314" lon="-3.05094">
        <ele>16.2</ele>
        <time>2021-08-04T10:12:52Z</time>
      </trkpt>
      <trkpt lat="47.60316" lon="-3.05092">
        <ele>16.4</ele>
        <time>2021-08-04T10:12:53Z</time>
      </trkpt>
      <trkpt lat="47.60318" lon="-3.0509">
        <ele>16.4</ele>
        <time>2021-08-04T10:12:54Z</time>
      </trkpt>
      <trkpt lat="47.6032" lon="-3.05089">
        <ele>16.6</ele>
        <time>2021-08-04T10:12:55Z</time>
      </trkpt>
      <trkpt lat="47.60322" lon="-3.05087">
        <ele>16.8</ele>
        <time>2021-08-04T10:12:56Z</time>
      </trkpt>
      <trkpt lat="47.60325" lon="-3.05085">
        <ele>16.8</ele>
        <time>2021-08-04T10:12:57Z</time>
      </trkpt>
      <trkpt lat="47.60327" lon="-3.05083">
        <ele>16.8</ele>
        <time>2021-08-04T10:12:58Z</time>
      </trkpt>
      <trkpt lat="47.60329" lon="-3.05081">
        <ele>16.8</ele>
        <time>2021-08-04T10:12:59Z</time>
      </trkpt>
      <trkpt lat="47.60333" lon="-3.05079">
        <ele>16.8</ele>
        <time>2021-08-04T10:13:00Z</time>
      </trkpt>
      <trkpt lat="47.60335" lon="-3.05077">
        <ele>17</ele>
        <time>2021-08-04T10:13:01Z</time>
      </trkpt>
      <trkpt lat="47.60338" lon="-3.05076">
        <ele>17</ele>
        <time>2021-08-04T10:13:02Z</time>
      </trkpt>
      <trkpt lat="47.6034" lon="-3.05075">
        <ele>17.2</ele>
        <time>2021-08-04T10:13:03Z</time>
      </trkpt>
      <trkpt lat="47.60343" lon="-3.05073">
        <ele>17.2</ele>
        <time>2021-08-04T10:13:04Z</time>
      </trkpt>
      <trkpt lat="47.60345" lon="-3.05072">
        <ele>17.4</ele>
        <time>2021-08-04T10:13:05Z</time>
      </trkpt>
      <trkpt lat="47.60346" lon="-3.0507">
        <ele>17.4</ele>
        <time>2021-08-04T10:13:06Z</time>
      </trkpt>
      <trkpt lat="47.60348" lon="-3.05069">
        <ele>17.6</ele>
        <time>2021-08-04T10:13:07Z</time>
      </trkpt>
      <trkpt lat="47.6035" lon="-3.05067">
        <ele>17.6</ele>
        <time>2021-08-04T10:13:08Z</time>
      </trkpt>
      <trkpt lat="47.60352" lon="-3.05065">
        <ele>17.6</ele>
        <time>2021-08-04T10:13:09Z</time>
      </trkpt>
      <trkpt lat="47.60354" lon="-3.05062">
        <ele>17.8</ele>
        <time>2021-08-04T10:13:10Z</time>
      </trkpt>
      <trkpt lat="47.60356" lon="-3.05058">
        <ele>17.8</ele>
        <time>2021-08-04T10:13:11Z</time>
      </trkpt>
      <trkpt lat="47.60358" lon="-3.05055">
        <ele>18</ele>
        <time>2021-08-04T10:13:12Z</time>
      </trkpt>
      <trkpt lat="47.60361" lon="-3.05051">
        <ele>18</ele>
        <time>2021-08-04T10:13:13Z</time>
      </trkpt>
      <trkpt lat="47.60363" lon="-3.05047">
        <ele>18.2</ele>
        <time>2021-08-04T10:13:14Z</time>
      </trkpt>
      <trkpt lat="47.60364" lon="-3.05042">
        <ele>18.2</ele>
        <time>2021-08-04T10:13:15Z</time>
      </trkpt>
      <trkpt lat="47.60366" lon="-3.05037">
        <ele>18.2</ele>
        <time>2021-08-04T10:13:16Z</time>
      </trkpt>
      <trkpt lat="47.60367" lon="-3.05032">
        <ele>18.2</ele>
        <time>2021-08-04T10:13:17Z</time>
      </trkpt>
      <trkpt lat="47.60368" lon="-3.05026">
        <ele>18.2</ele>
        <time>2021-08-04T10:13:18Z</time>
      </trkpt>
      <trkpt lat="47.60369" lon="-3.0502">
        <ele>18.2</ele>
        <time>2021-08-04T10:13:19Z</time>
      </trkpt>
      <trkpt lat="47.6037" lon="-3.05013">
        <ele>18.2</ele>
        <time>2021-08-04T10:13:20Z</time>
      </trkpt>
      <trkpt lat="47.60371" lon="-3.05006">
        <ele>18.2</ele>
        <time>2021-08-04T10:13:21Z</time>
      </trkpt>
      <trkpt lat="47.60371" lon="-3.04998">
        <ele>18.2</ele>
        <time>2021-08-04T10:13:22Z</time>
      </trkpt>
      <trkpt lat="47.6037" lon="-3.04991">
        <ele>18.2</ele>
        <time>2021-08-04T10:13:23Z</time>
      </trkpt>
      <trkpt lat="47.6037" lon="-3.04982">
        <ele>18.2</ele>
        <time>2021-08-04T10:13:24Z</time>
      </trkpt>
      <trkpt lat="47.6037" lon="-3.04974">
        <ele>18.2</ele>
        <time>2021-08-04T10:13:25Z</time>
      </trkpt>
      <trkpt lat="47.6037" lon="-3.04966">
        <ele>18.2</ele>
        <time>2021-08-04T10:13:26Z</time>
      </trkpt>
      <trkpt lat="47.60371" lon="-3.04958">
        <ele>18</ele>
        <time>2021-08-04T10:13:27Z</time>
      </trkpt>
      <trkpt lat="47.60372" lon="-3.04949">
        <ele>17.8</ele>
        <time>2021-08-04T10:13:28Z</time>
      </trkpt>
      <trkpt lat="47.60374" lon="-3.04941">
        <ele>17.6</ele>
        <time>2021-08-04T10:13:29Z</time>
      </trkpt>
      <trkpt lat="47.60376" lon="-3.04932">
        <ele>17.4</ele>
        <time>2021-08-04T10:13:30Z</time>
      </trkpt>
      <trkpt lat="47.60379" lon="-3.04923">
        <ele>17.2</ele>
        <time>2021-08-04T10:13:31Z</time>
      </trkpt>
      <trkpt lat="47.60381" lon="-3.04915">
        <ele>17</ele>
        <time>2021-08-04T10:13:32Z</time>
      </trkpt>
      <trkpt lat="47.60383" lon="-3.04906">
        <ele>17</ele>
        <time>2021-08-04T10:13:33Z</time>
      </trkpt>
      <trkpt lat="47.60386" lon="-3.04897">
        <ele>16.8</ele>
        <time>2021-08-04T10:13:34Z</time>
      </trkpt>
      <trkpt lat="47.60389" lon="-3.04889">
        <ele>16.8</ele>
        <time>2021-08-04T10:13:35Z</time>
      </trkpt>
      <trkpt lat="47.60391" lon="-3.0488">
        <ele>16.6</ele>
        <time>2021-08-04T10:13:36Z</time>
      </trkpt>
      <trkpt lat="47.60392" lon="-3.04872">
        <ele>16.6</ele>
        <time>2021-08-04T10:13:37Z</time>
      </trkpt>
      <trkpt lat="47.60394" lon="-3.04863">
        <ele>16.4</ele>
        <time>2021-08-04T10:13:38Z</time>
      </trkpt>
      <trkpt lat="47.60395" lon="-3.04855">
        <ele>16.2</ele>
        <time>2021-08-04T10:13:39Z</time>
      </trkpt>
      <trkpt lat="47.60396" lon="-3.04846">
        <ele>16</ele>
        <time>2021-08-04T10:13:40Z</time>
      </trkpt>
      <trkpt lat="47.60398" lon="-3.04837">
        <ele>15.6</ele>
        <time>2021-08-04T10:13:41Z</time>
      </trkpt>
      <trkpt lat="47.60399" lon="-3.04828">
        <ele>15.4</ele>
        <time>2021-08-04T10:13:42Z</time>
      </trkpt>
      <trkpt lat="47.604" lon="-3.04819">
        <ele>15</ele>
        <time>2021-08-04T10:13:43Z</time>
      </trkpt>
      <trkpt lat="47.60401" lon="-3.04809">
        <ele>15</ele>
        <time>2021-08-04T10:13:44Z</time>
      </trkpt>
      <trkpt lat="47.60402" lon="-3.04799">
        <ele>15</ele>
        <time>2021-08-04T10:13:45Z</time>
      </trkpt>
      <trkpt lat="47.60403" lon="-3.04789">
        <ele>14.8</ele>
        <time>2021-08-04T10:13:46Z</time>
      </trkpt>
      <trkpt lat="47.60403" lon="-3.04778">
        <ele>14.8</ele>
        <time>2021-08-04T10:13:47Z</time>
      </trkpt>
      <trkpt lat="47.60403" lon="-3.04768">
        <ele>14.8</ele>
        <time>2021-08-04T10:13:48Z</time>
      </trkpt>
      <trkpt lat="47.60402" lon="-3.04757">
        <ele>14.8</ele>
        <time>2021-08-04T10:13:49Z</time>
      </trkpt>
      <trkpt lat="47.60401" lon="-3.04746">
        <ele>14.6</ele>
        <time>2021-08-04T10:13:50Z</time>
      </trkpt>
      <trkpt lat="47.60401" lon="-3.04735">
        <ele>14.6</ele>
        <time>2021-08-04T10:13:51Z</time>
      </trkpt>
      <trkpt lat="47.60402" lon="-3.04724">
        <ele>14.6</ele>
        <time>2021-08-04T10:13:52Z</time>
      </trkpt>
      <trkpt lat="47.60404" lon="-3.04713">
        <ele>14.4</ele>
        <time>2021-08-04T10:13:53Z</time>
      </trkpt>
      <trkpt lat="47.60406" lon="-3.04703">
        <ele>14.2</ele>
        <time>2021-08-04T10:13:54Z</time>
      </trkpt>
      <trkpt lat="47.60409" lon="-3.04692">
        <ele>13.8</ele>
        <time>2021-08-04T10:13:55Z</time>
      </trkpt>
      <trkpt lat="47.60412" lon="-3.04682">
        <ele>13.6</ele>
        <time>2021-08-04T10:13:56Z</time>
      </trkpt>
      <trkpt lat="47.60416" lon="-3.04673">
        <ele>13.4</ele>
        <time>2021-08-04T10:13:57Z</time>
      </trkpt>
      <trkpt lat="47.6042" lon="-3.04664">
        <ele>13.2</ele>
        <time>2021-08-04T10:13:58Z</time>
      </trkpt>
      <trkpt lat="47.60424" lon="-3.04657">
        <ele>13</ele>
        <time>2021-08-04T10:13:59Z</time>
      </trkpt>
      <trkpt lat="47.60427" lon="-3.04649">
        <ele>13</ele>
        <time>2021-08-04T10:14:00Z</time>
      </trkpt>
      <trkpt lat="47.60427" lon="-3.04642">
        <ele>13</ele>
        <time>2021-08-04T10:14:01Z</time>
      </trkpt>
      <trkpt lat="47.60426" lon="-3.04635">
        <ele>13</ele>
        <time>2021-08-04T10:14:02Z</time>
      </trkpt>
      <trkpt lat="47.60424" lon="-3.0463">
        <ele>13</ele>
        <time>2021-08-04T10:14:03Z</time>
      </trkpt>
      <trkpt lat="47.6042" lon="-3.04628">
        <ele>12.8</ele>
        <time>2021-08-04T10:14:04Z</time>
      </trkpt>
      <trkpt lat="47.60417" lon="-3.04626">
        <ele>12.8</ele>
        <time>2021-08-04T10:14:05Z</time>
      </trkpt>
      <trkpt lat="47.60413" lon="-3.04625">
        <ele>12.8</ele>
        <time>2021-08-04T10:14:06Z</time>
      </trkpt>
      <trkpt lat="47.6041" lon="-3.04625">
        <ele>12.8</ele>
        <time>2021-08-04T10:14:07Z</time>
      </trkpt>
      <trkpt lat="47.60407" lon="-3.04624">
        <ele>12.8</ele>
        <time>2021-08-04T10:14:08Z</time>
      </trkpt>
      <trkpt lat="47.60404" lon="-3.04623">
        <ele>12.8</ele>
        <time>2021-08-04T10:14:09Z</time>
      </trkpt>
      <trkpt lat="47.60401" lon="-3.0462">
        <ele>12.8</ele>
        <time>2021-08-04T10:14:10Z</time>
      </trkpt>
      <trkpt lat="47.60399" lon="-3.04617">
        <ele>13.2</ele>
        <time>2021-08-04T10:14:11Z</time>
      </trkpt>
      <trkpt lat="47.60398" lon="-3.04613">
        <ele>13.6</ele>
        <time>2021-08-04T10:14:12Z</time>
      </trkpt>
      <trkpt lat="47.60397" lon="-3.0461">
        <ele>14</ele>
        <time>2021-08-04T10:14:13Z</time>
      </trkpt>
      <trkpt lat="47.60397" lon="-3.04608">
        <ele>14.2</ele>
        <time>2021-08-04T10:14:14Z</time>
      </trkpt>
      <trkpt lat="47.60396" lon="-3.04605">
        <ele>14.4</ele>
        <time>2021-08-04T10:14:15Z</time>
      </trkpt>
      <trkpt lat="47.60396" lon="-3.04602">
        <ele>14.6</ele>
        <time>2021-08-04T10:14:16Z</time>
      </trkpt>
      <trkpt lat="47.60396" lon="-3.04599">
        <ele>14.6</ele>
        <time>2021-08-04T10:14:17Z</time>
      </trkpt>
      <trkpt lat="47.60395" lon="-3.04596">
        <ele>14.8</ele>
        <time>2021-08-04T10:14:18Z</time>
      </trkpt>
      <trkpt lat="47.60394" lon="-3.04593">
        <ele>15</ele>
        <time>2021-08-04T10:14:19Z</time>
      </trkpt>
      <trkpt lat="47.60393" lon="-3.04591">
        <ele>15.2</ele>
        <time>2021-08-04T10:14:20Z</time>
      </trkpt>
      <trkpt lat="47.60392" lon="-3.04588">
        <ele>15.6</ele>
        <time>2021-08-04T10:14:21Z</time>
      </trkpt>
      <trkpt lat="47.60391" lon="-3.04585">
        <ele>15.8</ele>
        <time>2021-08-04T10:14:22Z</time>
      </trkpt>
      <trkpt lat="47.60389" lon="-3.04582">
        <ele>16.2</ele>
        <time>2021-08-04T10:14:23Z</time>
      </trkpt>
      <trkpt lat="47.60388" lon="-3.04579">
        <ele>16.4</ele>
        <time>2021-08-04T10:14:24Z</time>
      </trkpt>
      <trkpt lat="47.60386" lon="-3.04577">
        <ele>16.6</ele>
        <time>2021-08-04T10:14:25Z</time>
      </trkpt>
      <trkpt lat="47.60384" lon="-3.04575">
        <ele>16.8</ele>
        <time>2021-08-04T10:14:26Z</time>
      </trkpt>
      <trkpt lat="47.60383" lon="-3.04572">
        <ele>16.8</ele>
        <time>2021-08-04T10:14:27Z</time>
      </trkpt>
      <trkpt lat="47.60383" lon="-3.04569">
        <ele>17.2</ele>
        <time>2021-08-04T10:14:28Z</time>
      </trkpt>
      <trkpt lat="47.60383" lon="-3.04565">
        <ele>17.2</ele>
        <time>2021-08-04T10:14:29Z</time>
      </trkpt>
      <trkpt lat="47.60384" lon="-3.0456">
        <ele>17.4</ele>
        <time>2021-08-04T10:14:30Z</time>
      </trkpt>
      <trkpt lat="47.60385" lon="-3.04554">
        <ele>17.4</ele>
        <time>2021-08-04T10:14:31Z</time>
      </trkpt>
      <trkpt lat="47.60386" lon="-3.04549">
        <ele>17.4</ele>
        <time>2021-08-04T10:14:32Z</time>
      </trkpt>
      <trkpt lat="47.60386" lon="-3.04542">
        <ele>17.4</ele>
        <time>2021-08-04T10:14:33Z</time>
      </trkpt>
      <trkpt lat="47.60387" lon="-3.04535">
        <ele>17.4</ele>
        <time>2021-08-04T10:14:34Z</time>
      </trkpt>
      <trkpt lat="47.60388" lon="-3.04528">
        <ele>17.4</ele>
        <time>2021-08-04T10:14:35Z</time>
      </trkpt>
      <trkpt lat="47.60388" lon="-3.04521">
        <ele>17.4</ele>
        <time>2021-08-04T10:14:36Z</time>
      </trkpt>
      <trkpt lat="47.60389" lon="-3.04514">
        <ele>17.4</ele>
        <time>2021-08-04T10:14:37Z</time>
      </trkpt>
      <trkpt lat="47.6039" lon="-3.04508">
        <ele>17.4</ele>
        <time>2021-08-04T10:14:38Z</time>
      </trkpt>
      <trkpt lat="47.6039" lon="-3.04503">
        <ele>17.2</ele>
        <time>2021-08-04T10:14:39Z</time>
      </trkpt>
      <trkpt lat="47.6039" lon="-3.04497">
        <ele>16.4</ele>
        <time>2021-08-04T10:14:40Z</time>
      </trkpt>
      <trkpt lat="47.60391" lon="-3.04492">
        <ele>16.2</ele>
        <time>2021-08-04T10:14:41Z</time>
      </trkpt>
      <trkpt lat="47.60392" lon="-3.04488">
        <ele>16.2</ele>
        <time>2021-08-04T10:14:42Z</time>
      </trkpt>
      <trkpt lat="47.60393" lon="-3.04484">
        <ele>16.2</ele>
        <time>2021-08-04T10:14:43Z</time>
      </trkpt>
      <trkpt lat="47.60394" lon="-3.04481">
        <ele>16.2</ele>
        <time>2021-08-04T10:14:44Z</time>
      </trkpt>
      <trkpt lat="47.60395" lon="-3.04478">
        <ele>16.2</ele>
        <time>2021-08-04T10:14:45Z</time>
      </trkpt>
      <trkpt lat="47.60396" lon="-3.04475">
        <ele>16.2</ele>
        <time>2021-08-04T10:14:46Z</time>
      </trkpt>
      <trkpt lat="47.60397" lon="-3.04472">
        <ele>16.2</ele>
        <time>2021-08-04T10:14:47Z</time>
      </trkpt>
      <trkpt lat="47.60398" lon="-3.0447">
        <ele>16.2</ele>
        <time>2021-08-04T10:14:48Z</time>
      </trkpt>
      <trkpt lat="47.60398" lon="-3.04468">
        <ele>16.2</ele>
        <time>2021-08-04T10:14:49Z</time>
      </trkpt>
      <trkpt lat="47.60399" lon="-3.04466">
        <ele>16.4</ele>
        <time>2021-08-04T10:14:50Z</time>
      </trkpt>
      <trkpt lat="47.60399" lon="-3.04464">
        <ele>16.4</ele>
        <time>2021-08-04T10:14:51Z</time>
      </trkpt>
      <trkpt lat="47.60399" lon="-3.04462">
        <ele>16.4</ele>
        <time>2021-08-04T10:14:52Z</time>
      </trkpt>
      <trkpt lat="47.604" lon="-3.0446">
        <ele>16.4</ele>
        <time>2021-08-04T10:14:53Z</time>
      </trkpt>
      <trkpt lat="47.604" lon="-3.04458">
        <ele>16.6</ele>
        <time>2021-08-04T10:14:54Z</time>
      </trkpt>
      <trkpt lat="47.60401" lon="-3.04456">
        <ele>16.6</ele>
        <time>2021-08-04T10:14:55Z</time>
      </trkpt>
      <trkpt lat="47.604" lon="-3.04454">
        <ele>16.6</ele>
        <time>2021-08-04T10:14:56Z</time>
      </trkpt>
      <trkpt lat="47.60401" lon="-3.04452">
        <ele>16.8</ele>
        <time>2021-08-04T10:14:57Z</time>
      </trkpt>
      <trkpt lat="47.60401" lon="-3.0445">
        <ele>16.8</ele>
        <time>2021-08-04T10:14:58Z</time>
      </trkpt>
      <trkpt lat="47.60401" lon="-3.04448">
        <ele>16.8</ele>
        <time>2021-08-04T10:14:59Z</time>
      </trkpt>
      <trkpt lat="47.60402" lon="-3.04446">
        <ele>16.8</ele>
        <time>2021-08-04T10:15:00Z</time>
      </trkpt>
      <trkpt lat="47.60402" lon="-3.04443">
        <ele>16.8</ele>
        <time>2021-08-04T10:15:01Z</time>
      </trkpt>
      <trkpt lat="47.60402" lon="-3.04441">
        <ele>16.8</ele>
        <time>2021-08-04T10:15:02Z</time>
      </trkpt>
      <trkpt lat="47.60402" lon="-3.04438">
        <ele>16.8</ele>
        <time>2021-08-04T10:15:03Z</time>
      </trkpt>
      <trkpt lat="47.60403" lon="-3.04435">
        <ele>16.8</ele>
        <time>2021-08-04T10:15:04Z</time>
      </trkpt>
      <trkpt lat="47.60403" lon="-3.04431">
        <ele>16.8</ele>
        <time>2021-08-04T10:15:05Z</time>
      </trkpt>
      <trkpt lat="47.60403" lon="-3.04427">
        <ele>16.8</ele>
        <time>2021-08-04T10:15:06Z</time>
      </trkpt>
      <trkpt lat="47.60403" lon="-3.04425">
        <ele>16.8</ele>
        <time>2021-08-04T10:15:07Z</time>
      </trkpt>
      <trkpt lat="47.60404" lon="-3.04422">
        <ele>16.8</ele>
        <time>2021-08-04T10:15:08Z</time>
      </trkpt>
      <trkpt lat="47.60404" lon="-3.0442">
        <ele>16.8</ele>
        <time>2021-08-04T10:15:09Z</time>
      </trkpt>
      <trkpt lat="47.60405" lon="-3.04418">
        <ele>16.8</ele>
        <time>2021-08-04T10:15:10Z</time>
      </trkpt>
      <trkpt lat="47.60405" lon="-3.04417">
        <ele>16.8</ele>
        <time>2021-08-04T10:15:11Z</time>
      </trkpt>
      <trkpt lat="47.60406" lon="-3.04416">
        <ele>16.8</ele>
        <time>2021-08-04T10:15:12Z</time>
      </trkpt>
      <trkpt lat="47.60414" lon="-3.04411">
        <ele>16.6</ele>
        <time>2021-08-04T10:15:43Z</time>
      </trkpt>
      <trkpt lat="47.60415" lon="-3.04411">
        <ele>16.6</ele>
        <time>2021-08-04T10:15:44Z</time>
      </trkpt>
      <trkpt lat="47.60415" lon="-3.0441">
        <ele>16.6</ele>
        <time>2021-08-04T10:15:45Z</time>
      </trkpt>
      <trkpt lat="47.60415" lon="-3.04408">
        <ele>16.6</ele>
        <time>2021-08-04T10:15:46Z</time>
      </trkpt>
      <trkpt lat="47.60416" lon="-3.04407">
        <ele>16.6</ele>
        <time>2021-08-04T10:15:47Z</time>
      </trkpt>
      <trkpt lat="47.60415" lon="-3.04404">
        <ele>16.6</ele>
        <time>2021-08-04T10:15:48Z</time>
      </trkpt>
      <trkpt lat="47.60415" lon="-3.04402">
        <ele>16.6</ele>
        <time>2021-08-04T10:15:49Z</time>
      </trkpt>
      <trkpt lat="47.60415" lon="-3.04399">
        <ele>16.6</ele>
        <time>2021-08-04T10:15:50Z</time>
      </trkpt>
      <trkpt lat="47.60415" lon="-3.04397">
        <ele>16.6</ele>
        <time>2021-08-04T10:15:51Z</time>
      </trkpt>
      <trkpt lat="47.60415" lon="-3.04395">
        <ele>16.6</ele>
        <time>2021-08-04T10:15:52Z</time>
      </trkpt>
      <trkpt lat="47.60415" lon="-3.04393">
        <ele>16.6</ele>
        <time>2021-08-04T10:15:53Z</time>
      </trkpt>
      <trkpt lat="47.60415" lon="-3.0439">
        <ele>16.6</ele>
        <time>2021-08-04T10:15:54Z</time>
      </trkpt>
      <trkpt lat="47.60415" lon="-3.04388">
        <ele>16.4</ele>
        <time>2021-08-04T10:15:55Z</time>
      </trkpt>
      <trkpt lat="47.60415" lon="-3.04385">
        <ele>16.4</ele>
        <time>2021-08-04T10:15:56Z</time>
      </trkpt>
      <trkpt lat="47.60415" lon="-3.04383">
        <ele>16.4</ele>
        <time>2021-08-04T10:15:57Z</time>
      </trkpt>
      <trkpt lat="47.60415" lon="-3.04381">
        <ele>16.4</ele>
        <time>2021-08-04T10:15:58Z</time>
      </trkpt>
      <trkpt lat="47.60415" lon="-3.0438">
        <ele>16.4</ele>
        <time>2021-08-04T10:15:59Z</time>
      </trkpt>
      <trkpt lat="47.60416" lon="-3.04378">
        <ele>16.4</ele>
        <time>2021-08-04T10:16:00Z</time>
      </trkpt>
      <trkpt lat="47.60416" lon="-3.04376">
        <ele>16.4</ele>
        <time>2021-08-04T10:16:01Z</time>
      </trkpt>
      <trkpt lat="47.60417" lon="-3.04375">
        <ele>16.4</ele>
        <time>2021-08-04T10:16:02Z</time>
      </trkpt>
      <trkpt lat="47.60417" lon="-3.04372">
        <ele>16.4</ele>
        <time>2021-08-04T10:16:03Z</time>
      </trkpt>
      <trkpt lat="47.60418" lon="-3.0437">
        <ele>16.4</ele>
        <time>2021-08-04T10:16:04Z</time>
      </trkpt>
      <trkpt lat="47.60419" lon="-3.04368">
        <ele>16.4</ele>
        <time>2021-08-04T10:16:05Z</time>
      </trkpt>
      <trkpt lat="47.6042" lon="-3.04366">
        <ele>16.6</ele>
        <time>2021-08-04T10:16:06Z</time>
      </trkpt>
      <trkpt lat="47.60421" lon="-3.04364">
        <ele>17</ele>
        <time>2021-08-04T10:16:07Z</time>
      </trkpt>
      <trkpt lat="47.60422" lon="-3.04363">
        <ele>17.2</ele>
        <time>2021-08-04T10:16:08Z</time>
      </trkpt>
      <trkpt lat="47.60423" lon="-3.04363">
        <ele>17.2</ele>
        <time>2021-08-04T10:16:09Z</time>
      </trkpt>
      <trkpt lat="47.60424" lon="-3.04362">
        <ele>17.4</ele>
        <time>2021-08-04T10:16:10Z</time>
      </trkpt>
      <trkpt lat="47.60425" lon="-3.04361">
        <ele>17.4</ele>
        <time>2021-08-04T10:16:11Z</time>
      </trkpt>
      <trkpt lat="47.60425" lon="-3.0436">
        <ele>17.4</ele>
        <time>2021-08-04T10:16:12Z</time>
      </trkpt>
      <trkpt lat="47.60426" lon="-3.04359">
        <ele>17.4</ele>
        <time>2021-08-04T10:16:13Z</time>
      </trkpt>
      <trkpt lat="47.60427" lon="-3.04358">
        <ele>17.4</ele>
        <time>2021-08-04T10:16:14Z</time>
      </trkpt>
      <trkpt lat="47.60428" lon="-3.04357">
        <ele>17.4</ele>
        <time>2021-08-04T10:16:15Z</time>
      </trkpt>
      <trkpt lat="47.6043" lon="-3.04356">
        <ele>17.6</ele>
        <time>2021-08-04T10:16:16Z</time>
      </trkpt>
      <trkpt lat="47.60431" lon="-3.04356">
        <ele>17.6</ele>
        <time>2021-08-04T10:16:17Z</time>
      </trkpt>
      <trkpt lat="47.60441" lon="-3.04351">
        <ele>17.6</ele>
        <time>2021-08-04T10:16:32Z</time>
      </trkpt>
      <trkpt lat="47.60444" lon="-3.04353">
        <ele>17.6</ele>
        <time>2021-08-04T10:16:33Z</time>
      </trkpt>
      <trkpt lat="47.60446" lon="-3.04354">
        <ele>17.6</ele>
        <time>2021-08-04T10:16:34Z</time>
      </trkpt>
      <trkpt lat="47.60449" lon="-3.04354">
        <ele>17.6</ele>
        <time>2021-08-04T10:16:35Z</time>
      </trkpt>
      <trkpt lat="47.60452" lon="-3.04355">
        <ele>17.6</ele>
        <time>2021-08-04T10:16:36Z</time>
      </trkpt>
      <trkpt lat="47.60455" lon="-3.04355">
        <ele>17.6</ele>
        <time>2021-08-04T10:16:37Z</time>
      </trkpt>
      <trkpt lat="47.60458" lon="-3.04356">
        <ele>17.6</ele>
        <time>2021-08-04T10:16:38Z</time>
      </trkpt>
      <trkpt lat="47.6046" lon="-3.04357">
        <ele>17.6</ele>
        <time>2021-08-04T10:16:39Z</time>
      </trkpt>
      <trkpt lat="47.60463" lon="-3.04357">
        <ele>17.6</ele>
        <time>2021-08-04T10:16:40Z</time>
      </trkpt>
      <trkpt lat="47.60466" lon="-3.04358">
        <ele>17.4</ele>
        <time>2021-08-04T10:16:41Z</time>
      </trkpt>
      <trkpt lat="47.60469" lon="-3.04358">
        <ele>17.4</ele>
        <time>2021-08-04T10:16:42Z</time>
      </trkpt>
      <trkpt lat="47.60472" lon="-3.04358">
        <ele>17.4</ele>
        <time>2021-08-04T10:16:43Z</time>
      </trkpt>
      <trkpt lat="47.60476" lon="-3.04357">
        <ele>17.2</ele>
        <time>2021-08-04T10:16:44Z</time>
      </trkpt>
      <trkpt lat="47.6048" lon="-3.04355">
        <ele>17.2</ele>
        <time>2021-08-04T10:16:45Z</time>
      </trkpt>
      <trkpt lat="47.60484" lon="-3.04355">
        <ele>17.2</ele>
        <time>2021-08-04T10:16:46Z</time>
      </trkpt>
      <trkpt lat="47.60487" lon="-3.04355">
        <ele>17.2</ele>
        <time>2021-08-04T10:16:47Z</time>
      </trkpt>
      <trkpt lat="47.60491" lon="-3.04356">
        <ele>17.2</ele>
        <time>2021-08-04T10:16:48Z</time>
      </trkpt>
      <trkpt lat="47.60495" lon="-3.04357">
        <ele>17.2</ele>
        <time>2021-08-04T10:16:49Z</time>
      </trkpt>
      <trkpt lat="47.605" lon="-3.04358">
        <ele>17.2</ele>
        <time>2021-08-04T10:16:50Z</time>
      </trkpt>
      <trkpt lat="47.60504" lon="-3.04359">
        <ele>17.2</ele>
        <time>2021-08-04T10:16:51Z</time>
      </trkpt>
      <trkpt lat="47.60509" lon="-3.0436">
        <ele>17.2</ele>
        <time>2021-08-04T10:16:52Z</time>
      </trkpt>
      <trkpt lat="47.60513" lon="-3.04361">
        <ele>17.2</ele>
        <time>2021-08-04T10:16:53Z</time>
      </trkpt>
      <trkpt lat="47.60518" lon="-3.04362">
        <ele>17.2</ele>
        <time>2021-08-04T10:16:54Z</time>
      </trkpt>
      <trkpt lat="47.60521" lon="-3.04363">
        <ele>17.4</ele>
        <time>2021-08-04T10:16:55Z</time>
      </trkpt>
      <trkpt lat="47.60525" lon="-3.04364">
        <ele>17.4</ele>
        <time>2021-08-04T10:16:56Z</time>
      </trkpt>
      <trkpt lat="47.60527" lon="-3.04363">
        <ele>17.4</ele>
        <time>2021-08-04T10:16:57Z</time>
      </trkpt>
      <trkpt lat="47.60528" lon="-3.04361">
        <ele>17.4</ele>
        <time>2021-08-04T10:16:58Z</time>
      </trkpt>
      <trkpt lat="47.60528" lon="-3.04357">
        <ele>17.4</ele>
        <time>2021-08-04T10:16:59Z</time>
      </trkpt>
      <trkpt lat="47.60529" lon="-3.04352">
        <ele>17.4</ele>
        <time>2021-08-04T10:17:00Z</time>
      </trkpt>
      <trkpt lat="47.6053" lon="-3.04346">
        <ele>17.4</ele>
        <time>2021-08-04T10:17:01Z</time>
      </trkpt>
      <trkpt lat="47.60531" lon="-3.04339">
        <ele>17.4</ele>
        <time>2021-08-04T10:17:02Z</time>
      </trkpt>
      <trkpt lat="47.60531" lon="-3.04333">
        <ele>17.4</ele>
        <time>2021-08-04T10:17:03Z</time>
      </trkpt>
      <trkpt lat="47.60532" lon="-3.04328">
        <ele>17.4</ele>
        <time>2021-08-04T10:17:04Z</time>
      </trkpt>
      <trkpt lat="47.60532" lon="-3.04324">
        <ele>17.2</ele>
        <time>2021-08-04T10:17:05Z</time>
      </trkpt>
      <trkpt lat="47.60532" lon="-3.0432">
        <ele>17.2</ele>
        <time>2021-08-04T10:17:06Z</time>
      </trkpt>
      <trkpt lat="47.60532" lon="-3.04318">
        <ele>16.6</ele>
        <time>2021-08-04T10:17:07Z</time>
      </trkpt>
      <trkpt lat="47.60532" lon="-3.04315">
        <ele>16.2</ele>
        <time>2021-08-04T10:17:08Z</time>
      </trkpt>
      <trkpt lat="47.60532" lon="-3.04313">
        <ele>16</ele>
        <time>2021-08-04T10:17:09Z</time>
      </trkpt>
      <trkpt lat="47.60533" lon="-3.04312">
        <ele>15.8</ele>
        <time>2021-08-04T10:17:10Z</time>
      </trkpt>
      <trkpt lat="47.60534" lon="-3.0431">
        <ele>15.8</ele>
        <time>2021-08-04T10:17:12Z</time>
      </trkpt>
      <trkpt lat="47.60534" lon="-3.04309">
        <ele>15.8</ele>
        <time>2021-08-04T10:17:13Z</time>
      </trkpt>
      <trkpt lat="47.60534" lon="-3.04308">
        <ele>15.8</ele>
        <time>2021-08-04T10:17:14Z</time>
      </trkpt>
      <trkpt lat="47.60537" lon="-3.04306">
        <ele>15.8</ele>
        <time>2021-08-04T10:17:27Z</time>
      </trkpt>
      <trkpt lat="47.60537" lon="-3.04304">
        <ele>15.8</ele>
        <time>2021-08-04T10:17:28Z</time>
      </trkpt>
      <trkpt lat="47.60536" lon="-3.04302">
        <ele>15.8</ele>
        <time>2021-08-04T10:17:29Z</time>
      </trkpt>
      <trkpt lat="47.60536" lon="-3.04299">
        <ele>15.6</ele>
        <time>2021-08-04T10:17:30Z</time>
      </trkpt>
      <trkpt lat="47.60535" lon="-3.04296">
        <ele>15.6</ele>
        <time>2021-08-04T10:17:31Z</time>
      </trkpt>
      <trkpt lat="47.60535" lon="-3.04292">
        <ele>15.6</ele>
        <time>2021-08-04T10:17:32Z</time>
      </trkpt>
      <trkpt lat="47.60535" lon="-3.04288">
        <ele>15.6</ele>
        <time>2021-08-04T10:17:33Z</time>
      </trkpt>
      <trkpt lat="47.60535" lon="-3.04284">
        <ele>15.6</ele>
        <time>2021-08-04T10:17:34Z</time>
      </trkpt>
      <trkpt lat="47.60535" lon="-3.0428">
        <ele>15.6</ele>
        <time>2021-08-04T10:17:35Z</time>
      </trkpt>
      <trkpt lat="47.60536" lon="-3.04277">
        <ele>15.4</ele>
        <time>2021-08-04T10:17:36Z</time>
      </trkpt>
      <trkpt lat="47.60536" lon="-3.04273">
        <ele>15.4</ele>
        <time>2021-08-04T10:17:37Z</time>
      </trkpt>
      <trkpt lat="47.60537" lon="-3.0427">
        <ele>15.2</ele>
        <time>2021-08-04T10:17:38Z</time>
      </trkpt>
      <trkpt lat="47.60537" lon="-3.04267">
        <ele>15.2</ele>
        <time>2021-08-04T10:17:39Z</time>
      </trkpt>
      <trkpt lat="47.60538" lon="-3.04263">
        <ele>15</ele>
        <time>2021-08-04T10:17:40Z</time>
      </trkpt>
      <trkpt lat="47.60538" lon="-3.0426">
        <ele>14.8</ele>
        <time>2021-08-04T10:17:41Z</time>
      </trkpt>
      <trkpt lat="47.60539" lon="-3.04255">
        <ele>14.8</ele>
        <time>2021-08-04T10:17:42Z</time>
      </trkpt>
      <trkpt lat="47.6054" lon="-3.04251">
        <ele>14.4</ele>
        <time>2021-08-04T10:17:43Z</time>
      </trkpt>
      <trkpt lat="47.60541" lon="-3.04246">
        <ele>14.4</ele>
        <time>2021-08-04T10:17:44Z</time>
      </trkpt>
      <trkpt lat="47.60542" lon="-3.04241">
        <ele>14.4</ele>
        <time>2021-08-04T10:17:45Z</time>
      </trkpt>
      <trkpt lat="47.60543" lon="-3.04236">
        <ele>14.4</ele>
        <time>2021-08-04T10:17:46Z</time>
      </trkpt>
      <trkpt lat="47.60546" lon="-3.04233">
        <ele>14.4</ele>
        <time>2021-08-04T10:17:47Z</time>
      </trkpt>
      <trkpt lat="47.60547" lon="-3.04229">
        <ele>14.2</ele>
        <time>2021-08-04T10:17:48Z</time>
      </trkpt>
      <trkpt lat="47.60548" lon="-3.04226">
        <ele>14.2</ele>
        <time>2021-08-04T10:17:49Z</time>
      </trkpt>
      <trkpt lat="47.6055" lon="-3.04221">
        <ele>14.2</ele>
        <time>2021-08-04T10:17:50Z</time>
      </trkpt>
      <trkpt lat="47.60551" lon="-3.04216">
        <ele>14.2</ele>
        <time>2021-08-04T10:17:51Z</time>
      </trkpt>
      <trkpt lat="47.60551" lon="-3.04211">
        <ele>14.2</ele>
        <time>2021-08-04T10:17:52Z</time>
      </trkpt>
      <trkpt lat="47.60552" lon="-3.04207">
        <ele>14.4</ele>
        <time>2021-08-04T10:17:53Z</time>
      </trkpt>
      <trkpt lat="47.60553" lon="-3.04201">
        <ele>14.6</ele>
        <time>2021-08-04T10:17:54Z</time>
      </trkpt>
      <trkpt lat="47.60554" lon="-3.04193">
        <ele>14.6</ele>
        <time>2021-08-04T10:17:55Z</time>
      </trkpt>
      <trkpt lat="47.60557" lon="-3.04184">
        <ele>14.6</ele>
        <time>2021-08-04T10:17:56Z</time>
      </trkpt>
      <trkpt lat="47.60559" lon="-3.04175">
        <ele>14.6</ele>
        <time>2021-08-04T10:17:57Z</time>
      </trkpt>
      <trkpt lat="47.60561" lon="-3.04158">
        <ele>14.4</ele>
        <time>2021-08-04T10:17:58Z</time>
      </trkpt>
      <trkpt lat="47.60563" lon="-3.04146">
        <ele>14.2</ele>
        <time>2021-08-04T10:17:59Z</time>
      </trkpt>
      <trkpt lat="47.60566" lon="-3.04138">
        <ele>14.2</ele>
        <time>2021-08-04T10:18:00Z</time>
      </trkpt>
      <trkpt lat="47.60566" lon="-3.0413">
        <ele>14.2</ele>
        <time>2021-08-04T10:18:01Z</time>
      </trkpt>
      <trkpt lat="47.60567" lon="-3.04125">
        <ele>14.2</ele>
        <time>2021-08-04T10:18:02Z</time>
      </trkpt>
      <trkpt lat="47.60567" lon="-3.04118">
        <ele>14</ele>
        <time>2021-08-04T10:18:03Z</time>
      </trkpt>
      <trkpt lat="47.60567" lon="-3.04112">
        <ele>14</ele>
        <time>2021-08-04T10:18:04Z</time>
      </trkpt>
      <trkpt lat="47.60567" lon="-3.04108">
        <ele>13.8</ele>
        <time>2021-08-04T10:18:05Z</time>
      </trkpt>
      <trkpt lat="47.60567" lon="-3.04103">
        <ele>13.8</ele>
        <time>2021-08-04T10:18:06Z</time>
      </trkpt>
      <trkpt lat="47.60568" lon="-3.04099">
        <ele>13.8</ele>
        <time>2021-08-04T10:18:07Z</time>
      </trkpt>
      <trkpt lat="47.60568" lon="-3.04094">
        <ele>13.8</ele>
        <time>2021-08-04T10:18:08Z</time>
      </trkpt>
      <trkpt lat="47.6057" lon="-3.04089">
        <ele>13.8</ele>
        <time>2021-08-04T10:18:09Z</time>
      </trkpt>
      <trkpt lat="47.60571" lon="-3.04084">
        <ele>13.8</ele>
        <time>2021-08-04T10:18:10Z</time>
      </trkpt>
      <trkpt lat="47.60572" lon="-3.04079">
        <ele>13.8</ele>
        <time>2021-08-04T10:18:11Z</time>
      </trkpt>
      <trkpt lat="47.60573" lon="-3.04073">
        <ele>13.8</ele>
        <time>2021-08-04T10:18:12Z</time>
      </trkpt>
      <trkpt lat="47.60575" lon="-3.04069">
        <ele>13.8</ele>
        <time>2021-08-04T10:18:13Z</time>
      </trkpt>
      <trkpt lat="47.60576" lon="-3.04064">
        <ele>13.8</ele>
        <time>2021-08-04T10:18:14Z</time>
      </trkpt>
      <trkpt lat="47.60576" lon="-3.04059">
        <ele>13.8</ele>
        <time>2021-08-04T10:18:15Z</time>
      </trkpt>
      <trkpt lat="47.60577" lon="-3.04054">
        <ele>14</ele>
        <time>2021-08-04T10:18:16Z</time>
      </trkpt>
      <trkpt lat="47.60577" lon="-3.04052">
        <ele>14</ele>
        <time>2021-08-04T10:18:17Z</time>
      </trkpt>
      <trkpt lat="47.60579" lon="-3.04047">
        <ele>14.2</ele>
        <time>2021-08-04T10:18:18Z</time>
      </trkpt>
      <trkpt lat="47.6058" lon="-3.04044">
        <ele>14.2</ele>
        <time>2021-08-04T10:18:19Z</time>
      </trkpt>
      <trkpt lat="47.6058" lon="-3.0404">
        <ele>14.2</ele>
        <time>2021-08-04T10:18:20Z</time>
      </trkpt>
      <trkpt lat="47.60581" lon="-3.04036">
        <ele>14.4</ele>
        <time>2021-08-04T10:18:21Z</time>
      </trkpt>
      <trkpt lat="47.60582" lon="-3.04032">
        <ele>14.6</ele>
        <time>2021-08-04T10:18:22Z</time>
      </trkpt>
      <trkpt lat="47.60582" lon="-3.04028">
        <ele>14.6</ele>
        <time>2021-08-04T10:18:23Z</time>
      </trkpt>
      <trkpt lat="47.60583" lon="-3.04023">
        <ele>14.8</ele>
        <time>2021-08-04T10:18:24Z</time>
      </trkpt>
      <trkpt lat="47.60584" lon="-3.04019">
        <ele>15</ele>
        <time>2021-08-04T10:18:25Z</time>
      </trkpt>
      <trkpt lat="47.60584" lon="-3.04015">
        <ele>15.2</ele>
        <time>2021-08-04T10:18:26Z</time>
      </trkpt>
      <trkpt lat="47.60584" lon="-3.0401">
        <ele>15.6</ele>
        <time>2021-08-04T10:18:27Z</time>
      </trkpt>
      <trkpt lat="47.60584" lon="-3.04006">
        <ele>16</ele>
        <time>2021-08-04T10:18:28Z</time>
      </trkpt>
      <trkpt lat="47.60585" lon="-3.04003">
        <ele>16.2</ele>
        <time>2021-08-04T10:18:29Z</time>
      </trkpt>
      <trkpt lat="47.60585" lon="-3.03999">
        <ele>16.2</ele>
        <time>2021-08-04T10:18:30Z</time>
      </trkpt>
      <trkpt lat="47.60585" lon="-3.03995">
        <ele>16.4</ele>
        <time>2021-08-04T10:18:31Z</time>
      </trkpt>
      <trkpt lat="47.60586" lon="-3.0399">
        <ele>16.6</ele>
        <time>2021-08-04T10:18:32Z</time>
      </trkpt>
      <trkpt lat="47.60587" lon="-3.03986">
        <ele>16.8</ele>
        <time>2021-08-04T10:18:33Z</time>
      </trkpt>
      <trkpt lat="47.60588" lon="-3.03981">
        <ele>17</ele>
        <time>2021-08-04T10:18:34Z</time>
      </trkpt>
      <trkpt lat="47.6059" lon="-3.03977">
        <ele>17.2</ele>
        <time>2021-08-04T10:18:35Z</time>
      </trkpt>
      <trkpt lat="47.60591" lon="-3.03973">
        <ele>17.4</ele>
        <time>2021-08-04T10:18:36Z</time>
      </trkpt>
      <trkpt lat="47.60593" lon="-3.03969">
        <ele>17.6</ele>
        <time>2021-08-04T10:18:37Z</time>
      </trkpt>
      <trkpt lat="47.60594" lon="-3.03966">
        <ele>17.6</ele>
        <time>2021-08-04T10:18:38Z</time>
      </trkpt>
      <trkpt lat="47.60594" lon="-3.03962">
        <ele>17.6</ele>
        <time>2021-08-04T10:18:39Z</time>
      </trkpt>
      <trkpt lat="47.60594" lon="-3.03957">
        <ele>17.6</ele>
        <time>2021-08-04T10:18:40Z</time>
      </trkpt>
      <trkpt lat="47.60594" lon="-3.03953">
        <ele>17.6</ele>
        <time>2021-08-04T10:18:41Z</time>
      </trkpt>
      <trkpt lat="47.60594" lon="-3.03948">
        <ele>17.8</ele>
        <time>2021-08-04T10:18:42Z</time>
      </trkpt>
      <trkpt lat="47.60594" lon="-3.03944">
        <ele>17.8</ele>
        <time>2021-08-04T10:18:43Z</time>
      </trkpt>
      <trkpt lat="47.60594" lon="-3.0394">
        <ele>17.8</ele>
        <time>2021-08-04T10:18:44Z</time>
      </trkpt>
      <trkpt lat="47.60594" lon="-3.03937">
        <ele>17.8</ele>
        <time>2021-08-04T10:18:45Z</time>
      </trkpt>
      <trkpt lat="47.60594" lon="-3.03934">
        <ele>17.8</ele>
        <time>2021-08-04T10:18:46Z</time>
      </trkpt>
      <trkpt lat="47.60594" lon="-3.03931">
        <ele>17.8</ele>
        <time>2021-08-04T10:18:47Z</time>
      </trkpt>
      <trkpt lat="47.60594" lon="-3.03927">
        <ele>18</ele>
        <time>2021-08-04T10:18:48Z</time>
      </trkpt>
      <trkpt lat="47.60595" lon="-3.03923">
        <ele>18</ele>
        <time>2021-08-04T10:18:49Z</time>
      </trkpt>
      <trkpt lat="47.60595" lon="-3.03919">
        <ele>18</ele>
        <time>2021-08-04T10:18:50Z</time>
      </trkpt>
      <trkpt lat="47.60595" lon="-3.03915">
        <ele>18</ele>
        <time>2021-08-04T10:18:51Z</time>
      </trkpt>
      <trkpt lat="47.60594" lon="-3.03911">
        <ele>18</ele>
        <time>2021-08-04T10:18:52Z</time>
      </trkpt>
      <trkpt lat="47.60594" lon="-3.03906">
        <ele>18</ele>
        <time>2021-08-04T10:18:53Z</time>
      </trkpt>
      <trkpt lat="47.60594" lon="-3.03901">
        <ele>18</ele>
        <time>2021-08-04T10:18:54Z</time>
      </trkpt>
      <trkpt lat="47.60594" lon="-3.03896">
        <ele>18</ele>
        <time>2021-08-04T10:18:55Z</time>
      </trkpt>
      <trkpt lat="47.60594" lon="-3.03892">
        <ele>18</ele>
        <time>2021-08-04T10:18:56Z</time>
      </trkpt>
      <trkpt lat="47.60593" lon="-3.03887">
        <ele>18</ele>
        <time>2021-08-04T10:18:57Z</time>
      </trkpt>
      <trkpt lat="47.60594" lon="-3.03883">
        <ele>18</ele>
        <time>2021-08-04T10:18:58Z</time>
      </trkpt>
      <trkpt lat="47.60594" lon="-3.03878">
        <ele>18.2</ele>
        <time>2021-08-04T10:18:59Z</time>
      </trkpt>
      <trkpt lat="47.60595" lon="-3.03872">
        <ele>18</ele>
        <time>2021-08-04T10:19:00Z</time>
      </trkpt>
      <trkpt lat="47.60596" lon="-3.03866">
        <ele>18</ele>
        <time>2021-08-04T10:19:01Z</time>
      </trkpt>
      <trkpt lat="47.60596" lon="-3.0386">
        <ele>18</ele>
        <time>2021-08-04T10:19:02Z</time>
      </trkpt>
      <trkpt lat="47.60596" lon="-3.03854">
        <ele>18</ele>
        <time>2021-08-04T10:19:03Z</time>
      </trkpt>
      <trkpt lat="47.60596" lon="-3.03848">
        <ele>18</ele>
        <time>2021-08-04T10:19:04Z</time>
      </trkpt>
      <trkpt lat="47.60595" lon="-3.03842">
        <ele>18</ele>
        <time>2021-08-04T10:19:05Z</time>
      </trkpt>
      <trkpt lat="47.60595" lon="-3.03835">
        <ele>18</ele>
        <time>2021-08-04T10:19:06Z</time>
      </trkpt>
      <trkpt lat="47.60595" lon="-3.0383">
        <ele>18</ele>
        <time>2021-08-04T10:19:07Z</time>
      </trkpt>
      <trkpt lat="47.60594" lon="-3.03824">
        <ele>18</ele>
        <time>2021-08-04T10:19:08Z</time>
      </trkpt>
      <trkpt lat="47.60594" lon="-3.0382">
        <ele>18</ele>
        <time>2021-08-04T10:19:09Z</time>
      </trkpt>
      <trkpt lat="47.60595" lon="-3.03815">
        <ele>18</ele>
        <time>2021-08-04T10:19:10Z</time>
      </trkpt>
      <trkpt lat="47.60595" lon="-3.03811">
        <ele>18</ele>
        <time>2021-08-04T10:19:11Z</time>
      </trkpt>
      <trkpt lat="47.60596" lon="-3.03808">
        <ele>18</ele>
        <time>2021-08-04T10:19:12Z</time>
      </trkpt>
      <trkpt lat="47.60596" lon="-3.03804">
        <ele>18</ele>
        <time>2021-08-04T10:19:13Z</time>
      </trkpt>
      <trkpt lat="47.60597" lon="-3.03801">
        <ele>18.2</ele>
        <time>2021-08-04T10:19:14Z</time>
      </trkpt>
      <trkpt lat="47.60597" lon="-3.03798">
        <ele>18.2</ele>
        <time>2021-08-04T10:19:15Z</time>
      </trkpt>
      <trkpt lat="47.60597" lon="-3.03795">
        <ele>18.4</ele>
        <time>2021-08-04T10:19:16Z</time>
      </trkpt>
      <trkpt lat="47.60597" lon="-3.03792">
        <ele>18.6</ele>
        <time>2021-08-04T10:19:17Z</time>
      </trkpt>
      <trkpt lat="47.60597" lon="-3.03789">
        <ele>18.6</ele>
        <time>2021-08-04T10:19:18Z</time>
      </trkpt>
      <trkpt lat="47.60597" lon="-3.03786">
        <ele>18.8</ele>
        <time>2021-08-04T10:19:19Z</time>
      </trkpt>
      <trkpt lat="47.60597" lon="-3.03783">
        <ele>18.8</ele>
        <time>2021-08-04T10:19:20Z</time>
      </trkpt>
      <trkpt lat="47.60597" lon="-3.03781">
        <ele>18.8</ele>
        <time>2021-08-04T10:19:21Z</time>
      </trkpt>
      <trkpt lat="47.60597" lon="-3.03778">
        <ele>19</ele>
        <time>2021-08-04T10:19:22Z</time>
      </trkpt>
      <trkpt lat="47.60597" lon="-3.03775">
        <ele>19.2</ele>
        <time>2021-08-04T10:19:23Z</time>
      </trkpt>
      <trkpt lat="47.60596" lon="-3.03771">
        <ele>19.4</ele>
        <time>2021-08-04T10:19:24Z</time>
      </trkpt>
      <trkpt lat="47.60596" lon="-3.03768">
        <ele>19.6</ele>
        <time>2021-08-04T10:19:25Z</time>
      </trkpt>
      <trkpt lat="47.60595" lon="-3.03765">
        <ele>19.6</ele>
        <time>2021-08-04T10:19:26Z</time>
      </trkpt>
      <trkpt lat="47.60594" lon="-3.03761">
        <ele>19.8</ele>
        <time>2021-08-04T10:19:27Z</time>
      </trkpt>
      <trkpt lat="47.60594" lon="-3.03758">
        <ele>19.8</ele>
        <time>2021-08-04T10:19:28Z</time>
      </trkpt>
      <trkpt lat="47.60594" lon="-3.03755">
        <ele>19.8</ele>
        <time>2021-08-04T10:19:29Z</time>
      </trkpt>
      <trkpt lat="47.60593" lon="-3.03751">
        <ele>19.8</ele>
        <time>2021-08-04T10:19:30Z</time>
      </trkpt>
      <trkpt lat="47.60593" lon="-3.03747">
        <ele>19.8</ele>
        <time>2021-08-04T10:19:31Z</time>
      </trkpt>
      <trkpt lat="47.60593" lon="-3.03743">
        <ele>20</ele>
        <time>2021-08-04T10:19:32Z</time>
      </trkpt>
      <trkpt lat="47.60593" lon="-3.03739">
        <ele>20</ele>
        <time>2021-08-04T10:19:33Z</time>
      </trkpt>
      <trkpt lat="47.60592" lon="-3.03735">
        <ele>20</ele>
        <time>2021-08-04T10:19:34Z</time>
      </trkpt>
      <trkpt lat="47.60592" lon="-3.03731">
        <ele>20</ele>
        <time>2021-08-04T10:19:35Z</time>
      </trkpt>
      <trkpt lat="47.60592" lon="-3.03728">
        <ele>20</ele>
        <time>2021-08-04T10:19:36Z</time>
      </trkpt>
      <trkpt lat="47.60591" lon="-3.03723">
        <ele>20</ele>
        <time>2021-08-04T10:19:37Z</time>
      </trkpt>
      <trkpt lat="47.60591" lon="-3.03717">
        <ele>20</ele>
        <time>2021-08-04T10:19:38Z</time>
      </trkpt>
      <trkpt lat="47.60591" lon="-3.03712">
        <ele>20</ele>
        <time>2021-08-04T10:19:39Z</time>
      </trkpt>
      <trkpt lat="47.60591" lon="-3.03706">
        <ele>20</ele>
        <time>2021-08-04T10:19:40Z</time>
      </trkpt>
      <trkpt lat="47.6059" lon="-3.03699">
        <ele>19.8</ele>
        <time>2021-08-04T10:19:41Z</time>
      </trkpt>
      <trkpt lat="47.60589" lon="-3.03693">
        <ele>19.8</ele>
        <time>2021-08-04T10:19:42Z</time>
      </trkpt>
      <trkpt lat="47.60589" lon="-3.03687">
        <ele>19.8</ele>
        <time>2021-08-04T10:19:43Z</time>
      </trkpt>
      <trkpt lat="47.60588" lon="-3.0368">
        <ele>19.8</ele>
        <time>2021-08-04T10:19:44Z</time>
      </trkpt>
      <trkpt lat="47.60587" lon="-3.03672">
        <ele>19.8</ele>
        <time>2021-08-04T10:19:45Z</time>
      </trkpt>
      <trkpt lat="47.60587" lon="-3.03664">
        <ele>19.6</ele>
        <time>2021-08-04T10:19:46Z</time>
      </trkpt>
      <trkpt lat="47.60587" lon="-3.03655">
        <ele>19.4</ele>
        <time>2021-08-04T10:19:47Z</time>
      </trkpt>
      <trkpt lat="47.60588" lon="-3.03646">
        <ele>19.4</ele>
        <time>2021-08-04T10:19:48Z</time>
      </trkpt>
      <trkpt lat="47.60589" lon="-3.03637">
        <ele>19.2</ele>
        <time>2021-08-04T10:19:49Z</time>
      </trkpt>
      <trkpt lat="47.60589" lon="-3.03627">
        <ele>19</ele>
        <time>2021-08-04T10:19:50Z</time>
      </trkpt>
      <trkpt lat="47.60589" lon="-3.03618">
        <ele>18.8</ele>
        <time>2021-08-04T10:19:51Z</time>
      </trkpt>
      <trkpt lat="47.60589" lon="-3.03608">
        <ele>18.6</ele>
        <time>2021-08-04T10:19:52Z</time>
      </trkpt>
      <trkpt lat="47.60588" lon="-3.03598">
        <ele>18.6</ele>
        <time>2021-08-04T10:19:53Z</time>
      </trkpt>
      <trkpt lat="47.60588" lon="-3.03588">
        <ele>18.4</ele>
        <time>2021-08-04T10:19:54Z</time>
      </trkpt>
      <trkpt lat="47.60587" lon="-3.03579">
        <ele>18.4</ele>
        <time>2021-08-04T10:19:55Z</time>
      </trkpt>
      <trkpt lat="47.60587" lon="-3.03568">
        <ele>18.4</ele>
        <time>2021-08-04T10:19:56Z</time>
      </trkpt>
      <trkpt lat="47.60586" lon="-3.03558">
        <ele>18.4</ele>
        <time>2021-08-04T10:19:57Z</time>
      </trkpt>
      <trkpt lat="47.60585" lon="-3.03548">
        <ele>18.2</ele>
        <time>2021-08-04T10:19:58Z</time>
      </trkpt>
      <trkpt lat="47.60584" lon="-3.03539">
        <ele>17.8</ele>
        <time>2021-08-04T10:19:59Z</time>
      </trkpt>
      <trkpt lat="47.60583" lon="-3.0353">
        <ele>17.6</ele>
        <time>2021-08-04T10:20:00Z</time>
      </trkpt>
      <trkpt lat="47.60582" lon="-3.03522">
        <ele>17.4</ele>
        <time>2021-08-04T10:20:01Z</time>
      </trkpt>
      <trkpt lat="47.6058" lon="-3.03514">
        <ele>17.2</ele>
        <time>2021-08-04T10:20:02Z</time>
      </trkpt>
      <trkpt lat="47.60578" lon="-3.03506">
        <ele>16.8</ele>
        <time>2021-08-04T10:20:03Z</time>
      </trkpt>
      <trkpt lat="47.60576" lon="-3.03498">
        <ele>16.4</ele>
        <time>2021-08-04T10:20:04Z</time>
      </trkpt>
      <trkpt lat="47.60574" lon="-3.0349">
        <ele>16.4</ele>
        <time>2021-08-04T10:20:05Z</time>
      </trkpt>
      <trkpt lat="47.60572" lon="-3.03482">
        <ele>16</ele>
        <time>2021-08-04T10:20:06Z</time>
      </trkpt>
      <trkpt lat="47.6057" lon="-3.03474">
        <ele>15.8</ele>
        <time>2021-08-04T10:20:07Z</time>
      </trkpt>
      <trkpt lat="47.60569" lon="-3.03465">
        <ele>15.8</ele>
        <time>2021-08-04T10:20:08Z</time>
      </trkpt>
      <trkpt lat="47.60568" lon="-3.03457">
        <ele>15.4</ele>
        <time>2021-08-04T10:20:09Z</time>
      </trkpt>
      <trkpt lat="47.60567" lon="-3.03449">
        <ele>15.2</ele>
        <time>2021-08-04T10:20:10Z</time>
      </trkpt>
      <trkpt lat="47.60566" lon="-3.03441">
        <ele>15</ele>
        <time>2021-08-04T10:20:11Z</time>
      </trkpt>
      <trkpt lat="47.60566" lon="-3.03433">
        <ele>15</ele>
        <time>2021-08-04T10:20:12Z</time>
      </trkpt>
      <trkpt lat="47.60566" lon="-3.03426">
        <ele>14.6</ele>
        <time>2021-08-04T10:20:13Z</time>
      </trkpt>
      <trkpt lat="47.60565" lon="-3.03418">
        <ele>14.4</ele>
        <time>2021-08-04T10:20:14Z</time>
      </trkpt>
      <trkpt lat="47.60565" lon="-3.0341">
        <ele>14.4</ele>
        <time>2021-08-04T10:20:15Z</time>
      </trkpt>
      <trkpt lat="47.60565" lon="-3.03403">
        <ele>14.2</ele>
        <time>2021-08-04T10:20:16Z</time>
      </trkpt>
      <trkpt lat="47.60565" lon="-3.03395">
        <ele>14.2</ele>
        <time>2021-08-04T10:20:17Z</time>
      </trkpt>
      <trkpt lat="47.60565" lon="-3.03388">
        <ele>14</ele>
        <time>2021-08-04T10:20:18Z</time>
      </trkpt>
      <trkpt lat="47.60565" lon="-3.03381">
        <ele>14</ele>
        <time>2021-08-04T10:20:19Z</time>
      </trkpt>
      <trkpt lat="47.60564" lon="-3.03374">
        <ele>14</ele>
        <time>2021-08-04T10:20:20Z</time>
      </trkpt>
      <trkpt lat="47.60564" lon="-3.03368">
        <ele>14</ele>
        <time>2021-08-04T10:20:21Z</time>
      </trkpt>
      <trkpt lat="47.60564" lon="-3.03362">
        <ele>14</ele>
        <time>2021-08-04T10:20:22Z</time>
      </trkpt>
      <trkpt lat="47.60564" lon="-3.03355">
        <ele>14</ele>
        <time>2021-08-04T10:20:23Z</time>
      </trkpt>
      <trkpt lat="47.60564" lon="-3.03349">
        <ele>14</ele>
        <time>2021-08-04T10:20:24Z</time>
      </trkpt>
      <trkpt lat="47.60564" lon="-3.03343">
        <ele>14</ele>
        <time>2021-08-04T10:20:25Z</time>
      </trkpt>
      <trkpt lat="47.60564" lon="-3.03337">
        <ele>14</ele>
        <time>2021-08-04T10:20:26Z</time>
      </trkpt>
      <trkpt lat="47.60565" lon="-3.03331">
        <ele>14.2</ele>
        <time>2021-08-04T10:20:27Z</time>
      </trkpt>
      <trkpt lat="47.60565" lon="-3.03326">
        <ele>14.2</ele>
        <time>2021-08-04T10:20:28Z</time>
      </trkpt>
      <trkpt lat="47.60565" lon="-3.0332">
        <ele>14.2</ele>
        <time>2021-08-04T10:20:29Z</time>
      </trkpt>
      <trkpt lat="47.60565" lon="-3.03315">
        <ele>14.2</ele>
        <time>2021-08-04T10:20:30Z</time>
      </trkpt>
      <trkpt lat="47.60566" lon="-3.0331">
        <ele>14.2</ele>
        <time>2021-08-04T10:20:31Z</time>
      </trkpt>
      <trkpt lat="47.60566" lon="-3.03305">
        <ele>14.2</ele>
        <time>2021-08-04T10:20:32Z</time>
      </trkpt>
      <trkpt lat="47.60566" lon="-3.033">
        <ele>14.2</ele>
        <time>2021-08-04T10:20:33Z</time>
      </trkpt>
      <trkpt lat="47.60565" lon="-3.03295">
        <ele>14.2</ele>
        <time>2021-08-04T10:20:34Z</time>
      </trkpt>
      <trkpt lat="47.60565" lon="-3.03291">
        <ele>14.2</ele>
        <time>2021-08-04T10:20:35Z</time>
      </trkpt>
      <trkpt lat="47.60564" lon="-3.03287">
        <ele>14.2</ele>
        <time>2021-08-04T10:20:36Z</time>
      </trkpt>
      <trkpt lat="47.60564" lon="-3.03284">
        <ele>14.2</ele>
        <time>2021-08-04T10:20:37Z</time>
      </trkpt>
      <trkpt lat="47.60563" lon="-3.0328">
        <ele>14.2</ele>
        <time>2021-08-04T10:20:38Z</time>
      </trkpt>
      <trkpt lat="47.60562" lon="-3.03276">
        <ele>14.4</ele>
        <time>2021-08-04T10:20:39Z</time>
      </trkpt>
      <trkpt lat="47.60562" lon="-3.03272">
        <ele>14.4</ele>
        <time>2021-08-04T10:20:40Z</time>
      </trkpt>
      <trkpt lat="47.60561" lon="-3.03268">
        <ele>14.4</ele>
        <time>2021-08-04T10:20:41Z</time>
      </trkpt>
      <trkpt lat="47.60561" lon="-3.03264">
        <ele>14.4</ele>
        <time>2021-08-04T10:20:42Z</time>
      </trkpt>
      <trkpt lat="47.6056" lon="-3.03259">
        <ele>14.4</ele>
        <time>2021-08-04T10:20:43Z</time>
      </trkpt>
      <trkpt lat="47.60559" lon="-3.03255">
        <ele>14.4</ele>
        <time>2021-08-04T10:20:44Z</time>
      </trkpt>
      <trkpt lat="47.60558" lon="-3.0325">
        <ele>14.4</ele>
        <time>2021-08-04T10:20:45Z</time>
      </trkpt>
      <trkpt lat="47.60557" lon="-3.03245">
        <ele>14.4</ele>
        <time>2021-08-04T10:20:46Z</time>
      </trkpt>
      <trkpt lat="47.60557" lon="-3.03239">
        <ele>14.4</ele>
        <time>2021-08-04T10:20:47Z</time>
      </trkpt>
      <trkpt lat="47.60556" lon="-3.03234">
        <ele>14.4</ele>
        <time>2021-08-04T10:20:48Z</time>
      </trkpt>
      <trkpt lat="47.60556" lon="-3.03229">
        <ele>14.4</ele>
        <time>2021-08-04T10:20:49Z</time>
      </trkpt>
      <trkpt lat="47.60556" lon="-3.03224">
        <ele>14.4</ele>
        <time>2021-08-04T10:20:50Z</time>
      </trkpt>
      <trkpt lat="47.60556" lon="-3.03219">
        <ele>14.4</ele>
        <time>2021-08-04T10:20:51Z</time>
      </trkpt>
      <trkpt lat="47.60557" lon="-3.03214">
        <ele>14.4</ele>
        <time>2021-08-04T10:20:52Z</time>
      </trkpt>
      <trkpt lat="47.60557" lon="-3.03209">
        <ele>14.2</ele>
        <time>2021-08-04T10:20:53Z</time>
      </trkpt>
      <trkpt lat="47.60558" lon="-3.03205">
        <ele>14.2</ele>
        <time>2021-08-04T10:20:54Z</time>
      </trkpt>
      <trkpt lat="47.60558" lon="-3.03201">
        <ele>14</ele>
        <time>2021-08-04T10:20:55Z</time>
      </trkpt>
      <trkpt lat="47.60557" lon="-3.03198">
        <ele>13.8</ele>
        <time>2021-08-04T10:20:56Z</time>
      </trkpt>
      <trkpt lat="47.60556" lon="-3.03196">
        <ele>13.8</ele>
        <time>2021-08-04T10:20:57Z</time>
      </trkpt>
      <trkpt lat="47.60555" lon="-3.03193">
        <ele>13.6</ele>
        <time>2021-08-04T10:20:58Z</time>
      </trkpt>
      <trkpt lat="47.60553" lon="-3.0319">
        <ele>13.6</ele>
        <time>2021-08-04T10:20:59Z</time>
      </trkpt>
      <trkpt lat="47.60549" lon="-3.0319">
        <ele>13.6</ele>
        <time>2021-08-04T10:21:00Z</time>
      </trkpt>
      <trkpt lat="47.60546" lon="-3.0319">
        <ele>13.4</ele>
        <time>2021-08-04T10:21:01Z</time>
      </trkpt>
      <trkpt lat="47.60542" lon="-3.03191">
        <ele>13.4</ele>
        <time>2021-08-04T10:21:02Z</time>
      </trkpt>
      <trkpt lat="47.60539" lon="-3.03193">
        <ele>13.2</ele>
        <time>2021-08-04T10:21:03Z</time>
      </trkpt>
      <trkpt lat="47.60536" lon="-3.03194">
        <ele>13</ele>
        <time>2021-08-04T10:21:04Z</time>
      </trkpt>
      <trkpt lat="47.60532" lon="-3.03194">
        <ele>12.8</ele>
        <time>2021-08-04T10:21:05Z</time>
      </trkpt>
      <trkpt lat="47.60529" lon="-3.03195">
        <ele>12.6</ele>
        <time>2021-08-04T10:21:06Z</time>
      </trkpt>
      <trkpt lat="47.60526" lon="-3.03196">
        <ele>12.2</ele>
        <time>2021-08-04T10:21:07Z</time>
      </trkpt>
      <trkpt lat="47.60522" lon="-3.03197">
        <ele>12</ele>
        <time>2021-08-04T10:21:08Z</time>
      </trkpt>
      <trkpt lat="47.60518" lon="-3.03199">
        <ele>12</ele>
        <time>2021-08-04T10:21:09Z</time>
      </trkpt>
      <trkpt lat="47.60515" lon="-3.032">
        <ele>12</ele>
        <time>2021-08-04T10:21:10Z</time>
      </trkpt>
      <trkpt lat="47.60512" lon="-3.03202">
        <ele>12</ele>
        <time>2021-08-04T10:21:11Z</time>
      </trkpt>
      <trkpt lat="47.60509" lon="-3.03204">
        <ele>12</ele>
        <time>2021-08-04T10:21:12Z</time>
      </trkpt>
      <trkpt lat="47.60506" lon="-3.03206">
        <ele>12</ele>
        <time>2021-08-04T10:21:13Z</time>
      </trkpt>
      <trkpt lat="47.60502" lon="-3.03207">
        <ele>12</ele>
        <time>2021-08-04T10:21:14Z</time>
      </trkpt>
      <trkpt lat="47.60499" lon="-3.03209">
        <ele>12</ele>
        <time>2021-08-04T10:21:15Z</time>
      </trkpt>
      <trkpt lat="47.60495" lon="-3.03211">
        <ele>12</ele>
        <time>2021-08-04T10:21:16Z</time>
      </trkpt>
      <trkpt lat="47.6049" lon="-3.03212">
        <ele>11.8</ele>
        <time>2021-08-04T10:21:17Z</time>
      </trkpt>
      <trkpt lat="47.60485" lon="-3.03214">
        <ele>11.8</ele>
        <time>2021-08-04T10:21:18Z</time>
      </trkpt>
      <trkpt lat="47.6048" lon="-3.03217">
        <ele>11.8</ele>
        <time>2021-08-04T10:21:19Z</time>
      </trkpt>
      <trkpt lat="47.60474" lon="-3.03219">
        <ele>11.8</ele>
        <time>2021-08-04T10:21:20Z</time>
      </trkpt>
      <trkpt lat="47.60469" lon="-3.03222">
        <ele>11.8</ele>
        <time>2021-08-04T10:21:21Z</time>
      </trkpt>
      <trkpt lat="47.60463" lon="-3.03225">
        <ele>11.8</ele>
        <time>2021-08-04T10:21:22Z</time>
      </trkpt>
      <trkpt lat="47.60457" lon="-3.03227">
        <ele>11.8</ele>
        <time>2021-08-04T10:21:23Z</time>
      </trkpt>
      <trkpt lat="47.60452" lon="-3.03229">
        <ele>11.8</ele>
        <time>2021-08-04T10:21:24Z</time>
      </trkpt>
      <trkpt lat="47.60446" lon="-3.03231">
        <ele>11.6</ele>
        <time>2021-08-04T10:21:25Z</time>
      </trkpt>
      <trkpt lat="47.60441" lon="-3.03232">
        <ele>11.4</ele>
        <time>2021-08-04T10:21:26Z</time>
      </trkpt>
      <trkpt lat="47.60435" lon="-3.03234">
        <ele>11</ele>
        <time>2021-08-04T10:21:27Z</time>
      </trkpt>
      <trkpt lat="47.6043" lon="-3.03235">
        <ele>10.8</ele>
        <time>2021-08-04T10:21:28Z</time>
      </trkpt>
      <trkpt lat="47.60424" lon="-3.03236">
        <ele>10.6</ele>
        <time>2021-08-04T10:21:29Z</time>
      </trkpt>
      <trkpt lat="47.60419" lon="-3.03237">
        <ele>10.4</ele>
        <time>2021-08-04T10:21:30Z</time>
      </trkpt>
      <trkpt lat="47.60413" lon="-3.03237">
        <ele>10.4</ele>
        <time>2021-08-04T10:21:31Z</time>
      </trkpt>
      <trkpt lat="47.60407" lon="-3.03238">
        <ele>10.4</ele>
        <time>2021-08-04T10:21:32Z</time>
      </trkpt>
      <trkpt lat="47.60402" lon="-3.03238">
        <ele>10.2</ele>
        <time>2021-08-04T10:21:33Z</time>
      </trkpt>
      <trkpt lat="47.60396" lon="-3.03238">
        <ele>10.2</ele>
        <time>2021-08-04T10:21:34Z</time>
      </trkpt>
      <trkpt lat="47.6039" lon="-3.03237">
        <ele>10</ele>
        <time>2021-08-04T10:21:35Z</time>
      </trkpt>
      <trkpt lat="47.60385" lon="-3.03237">
        <ele>10</ele>
        <time>2021-08-04T10:21:36Z</time>
      </trkpt>
      <trkpt lat="47.60379" lon="-3.03236">
        <ele>10</ele>
        <time>2021-08-04T10:21:37Z</time>
      </trkpt>
      <trkpt lat="47.60372" lon="-3.03234">
        <ele>10</ele>
        <time>2021-08-04T10:21:38Z</time>
      </trkpt>
      <trkpt lat="47.60366" lon="-3.03234">
        <ele>9.8</ele>
        <time>2021-08-04T10:21:39Z</time>
      </trkpt>
      <trkpt lat="47.6036" lon="-3.03235">
        <ele>9.8</ele>
        <time>2021-08-04T10:21:40Z</time>
      </trkpt>
      <trkpt lat="47.60354" lon="-3.03236">
        <ele>9.8</ele>
        <time>2021-08-04T10:21:41Z</time>
      </trkpt>
      <trkpt lat="47.60349" lon="-3.03237">
        <ele>9.6</ele>
        <time>2021-08-04T10:21:42Z</time>
      </trkpt>
      <trkpt lat="47.60343" lon="-3.03239">
        <ele>9.4</ele>
        <time>2021-08-04T10:21:43Z</time>
      </trkpt>
      <trkpt lat="47.60338" lon="-3.03241">
        <ele>9.2</ele>
        <time>2021-08-04T10:21:44Z</time>
      </trkpt>
      <trkpt lat="47.60333" lon="-3.03242">
        <ele>9.2</ele>
        <time>2021-08-04T10:21:45Z</time>
      </trkpt>
      <trkpt lat="47.60328" lon="-3.03245">
        <ele>9.2</ele>
        <time>2021-08-04T10:21:46Z</time>
      </trkpt>
      <trkpt lat="47.60323" lon="-3.03247">
        <ele>9</ele>
        <time>2021-08-04T10:21:47Z</time>
      </trkpt>
      <trkpt lat="47.60317" lon="-3.03249">
        <ele>9</ele>
        <time>2021-08-04T10:21:48Z</time>
      </trkpt>
      <trkpt lat="47.60312" lon="-3.03251">
        <ele>9</ele>
        <time>2021-08-04T10:21:49Z</time>
      </trkpt>
      <trkpt lat="47.60307" lon="-3.03254">
        <ele>9</ele>
        <time>2021-08-04T10:21:50Z</time>
      </trkpt>
      <trkpt lat="47.60302" lon="-3.03257">
        <ele>8.8</ele>
        <time>2021-08-04T10:21:51Z</time>
      </trkpt>
      <trkpt lat="47.60297" lon="-3.03259">
        <ele>9</ele>
        <time>2021-08-04T10:21:52Z</time>
      </trkpt>
      <trkpt lat="47.60291" lon="-3.03261">
        <ele>9</ele>
        <time>2021-08-04T10:21:53Z</time>
      </trkpt>
      <trkpt lat="47.60286" lon="-3.03264">
        <ele>8.6</ele>
        <time>2021-08-04T10:21:54Z</time>
      </trkpt>
      <trkpt lat="47.60281" lon="-3.03267">
        <ele>8.6</ele>
        <time>2021-08-04T10:21:55Z</time>
      </trkpt>
      <trkpt lat="47.60276" lon="-3.0327">
        <ele>8.6</ele>
        <time>2021-08-04T10:21:56Z</time>
      </trkpt>
      <trkpt lat="47.60272" lon="-3.03273">
        <ele>8.6</ele>
        <time>2021-08-04T10:21:57Z</time>
      </trkpt>
      <trkpt lat="47.60267" lon="-3.03277">
        <ele>8.4</ele>
        <time>2021-08-04T10:21:58Z</time>
      </trkpt>
      <trkpt lat="47.60263" lon="-3.03281">
        <ele>8.4</ele>
        <time>2021-08-04T10:21:59Z</time>
      </trkpt>
      <trkpt lat="47.60259" lon="-3.03285">
        <ele>8.4</ele>
        <time>2021-08-04T10:22:00Z</time>
      </trkpt>
      <trkpt lat="47.60254" lon="-3.03289">
        <ele>8.4</ele>
        <time>2021-08-04T10:22:01Z</time>
      </trkpt>
      <trkpt lat="47.6025" lon="-3.03293">
        <ele>8.4</ele>
        <time>2021-08-04T10:22:02Z</time>
      </trkpt>
      <trkpt lat="47.60246" lon="-3.03297">
        <ele>8.4</ele>
        <time>2021-08-04T10:22:03Z</time>
      </trkpt>
      <trkpt lat="47.60242" lon="-3.03301">
        <ele>8.4</ele>
        <time>2021-08-04T10:22:04Z</time>
      </trkpt>
      <trkpt lat="47.60238" lon="-3.03305">
        <ele>8.6</ele>
        <time>2021-08-04T10:22:05Z</time>
      </trkpt>
      <trkpt lat="47.60234" lon="-3.03309">
        <ele>8.6</ele>
        <time>2021-08-04T10:22:06Z</time>
      </trkpt>
      <trkpt lat="47.6023" lon="-3.03313">
        <ele>8.6</ele>
        <time>2021-08-04T10:22:07Z</time>
      </trkpt>
      <trkpt lat="47.60226" lon="-3.03318">
        <ele>8.6</ele>
        <time>2021-08-04T10:22:08Z</time>
      </trkpt>
      <trkpt lat="47.60222" lon="-3.03322">
        <ele>8.6</ele>
        <time>2021-08-04T10:22:09Z</time>
      </trkpt>
      <trkpt lat="47.60218" lon="-3.03326">
        <ele>8.6</ele>
        <time>2021-08-04T10:22:10Z</time>
      </trkpt>
      <trkpt lat="47.60214" lon="-3.03331">
        <ele>8.6</ele>
        <time>2021-08-04T10:22:11Z</time>
      </trkpt>
      <trkpt lat="47.60209" lon="-3.03335">
        <ele>8.8</ele>
        <time>2021-08-04T10:22:12Z</time>
      </trkpt>
      <trkpt lat="47.60205" lon="-3.0334">
        <ele>8.8</ele>
        <time>2021-08-04T10:22:13Z</time>
      </trkpt>
      <trkpt lat="47.60201" lon="-3.03345">
        <ele>9</ele>
        <time>2021-08-04T10:22:14Z</time>
      </trkpt>
      <trkpt lat="47.60196" lon="-3.03349">
        <ele>9</ele>
        <time>2021-08-04T10:22:15Z</time>
      </trkpt>
      <trkpt lat="47.60192" lon="-3.03354">
        <ele>9</ele>
        <time>2021-08-04T10:22:16Z</time>
      </trkpt>
      <trkpt lat="47.60188" lon="-3.03359">
        <ele>9</ele>
        <time>2021-08-04T10:22:17Z</time>
      </trkpt>
      <trkpt lat="47.60184" lon="-3.03363">
        <ele>9</ele>
        <time>2021-08-04T10:22:18Z</time>
      </trkpt>
      <trkpt lat="47.60179" lon="-3.03367">
        <ele>9</ele>
        <time>2021-08-04T10:22:19Z</time>
      </trkpt>
      <trkpt lat="47.60175" lon="-3.03371">
        <ele>9</ele>
        <time>2021-08-04T10:22:20Z</time>
      </trkpt>
      <trkpt lat="47.6017" lon="-3.03373">
        <ele>9</ele>
        <time>2021-08-04T10:22:21Z</time>
      </trkpt>
      <trkpt lat="47.60164" lon="-3.03376">
        <ele>9</ele>
        <time>2021-08-04T10:22:22Z</time>
      </trkpt>
      <trkpt lat="47.60159" lon="-3.03377">
        <ele>9</ele>
        <time>2021-08-04T10:22:23Z</time>
      </trkpt>
      <trkpt lat="47.60153" lon="-3.03378">
        <ele>9</ele>
        <time>2021-08-04T10:22:24Z</time>
      </trkpt>
      <trkpt lat="47.60148" lon="-3.0338">
        <ele>9</ele>
        <time>2021-08-04T10:22:25Z</time>
      </trkpt>
      <trkpt lat="47.60142" lon="-3.03381">
        <ele>9</ele>
        <time>2021-08-04T10:22:26Z</time>
      </trkpt>
      <trkpt lat="47.60136" lon="-3.03382">
        <ele>9</ele>
        <time>2021-08-04T10:22:27Z</time>
      </trkpt>
      <trkpt lat="47.6013" lon="-3.03382">
        <ele>9</ele>
        <time>2021-08-04T10:22:28Z</time>
      </trkpt>
      <trkpt lat="47.60124" lon="-3.03382">
        <ele>8.8</ele>
        <time>2021-08-04T10:22:29Z</time>
      </trkpt>
      <trkpt lat="47.60117" lon="-3.03382">
        <ele>8.6</ele>
        <time>2021-08-04T10:22:30Z</time>
      </trkpt>
      <trkpt lat="47.60111" lon="-3.03382">
        <ele>8.4</ele>
        <time>2021-08-04T10:22:31Z</time>
      </trkpt>
      <trkpt lat="47.60106" lon="-3.03383">
        <ele>8.4</ele>
        <time>2021-08-04T10:22:32Z</time>
      </trkpt>
      <trkpt lat="47.601" lon="-3.03383">
        <ele>8.4</ele>
        <time>2021-08-04T10:22:33Z</time>
      </trkpt>
      <trkpt lat="47.60094" lon="-3.03384">
        <ele>8.2</ele>
        <time>2021-08-04T10:22:34Z</time>
      </trkpt>
      <trkpt lat="47.60088" lon="-3.03384">
        <ele>8</ele>
        <time>2021-08-04T10:22:35Z</time>
      </trkpt>
      <trkpt lat="47.60083" lon="-3.03384">
        <ele>8</ele>
        <time>2021-08-04T10:22:36Z</time>
      </trkpt>
      <trkpt lat="47.60077" lon="-3.03384">
        <ele>8</ele>
        <time>2021-08-04T10:22:37Z</time>
      </trkpt>
      <trkpt lat="47.6007" lon="-3.03385">
        <ele>7.8</ele>
        <time>2021-08-04T10:22:38Z</time>
      </trkpt>
      <trkpt lat="47.60064" lon="-3.03386">
        <ele>7.8</ele>
        <time>2021-08-04T10:22:39Z</time>
      </trkpt>
      <trkpt lat="47.60057" lon="-3.03387">
        <ele>7.8</ele>
        <time>2021-08-04T10:22:40Z</time>
      </trkpt>
      <trkpt lat="47.6005" lon="-3.03387">
        <ele>7.6</ele>
        <time>2021-08-04T10:22:41Z</time>
      </trkpt>
      <trkpt lat="47.60043" lon="-3.03387">
        <ele>7.6</ele>
        <time>2021-08-04T10:22:42Z</time>
      </trkpt>
      <trkpt lat="47.60035" lon="-3.03387">
        <ele>7.4</ele>
        <time>2021-08-04T10:22:43Z</time>
      </trkpt>
      <trkpt lat="47.60028" lon="-3.03387">
        <ele>7.4</ele>
        <time>2021-08-04T10:22:44Z</time>
      </trkpt>
      <trkpt lat="47.6002" lon="-3.03387">
        <ele>7</ele>
        <time>2021-08-04T10:22:45Z</time>
      </trkpt>
      <trkpt lat="47.60013" lon="-3.03386">
        <ele>6.8</ele>
        <time>2021-08-04T10:22:46Z</time>
      </trkpt>
      <trkpt lat="47.60006" lon="-3.03385">
        <ele>6.6</ele>
        <time>2021-08-04T10:22:47Z</time>
      </trkpt>
      <trkpt lat="47.59998" lon="-3.03384">
        <ele>6.2</ele>
        <time>2021-08-04T10:22:48Z</time>
      </trkpt>
      <trkpt lat="47.59991" lon="-3.03384">
        <ele>5.6</ele>
        <time>2021-08-04T10:22:49Z</time>
      </trkpt>
      <trkpt lat="47.59985" lon="-3.03383">
        <ele>5.2</ele>
        <time>2021-08-04T10:22:50Z</time>
      </trkpt>
      <trkpt lat="47.59979" lon="-3.03383">
        <ele>4.8</ele>
        <time>2021-08-04T10:22:51Z</time>
      </trkpt>
      <trkpt lat="47.59974" lon="-3.03383">
        <ele>4.6</ele>
        <time>2021-08-04T10:22:52Z</time>
      </trkpt>
      <trkpt lat="47.59968" lon="-3.03383">
        <ele>4.6</ele>
        <time>2021-08-04T10:22:53Z</time>
      </trkpt>
      <trkpt lat="47.59964" lon="-3.03383">
        <ele>4.6</ele>
        <time>2021-08-04T10:22:54Z</time>
      </trkpt>
      <trkpt lat="47.5996" lon="-3.03384">
        <ele>4.6</ele>
        <time>2021-08-04T10:22:55Z</time>
      </trkpt>
      <trkpt lat="47.59955" lon="-3.03384">
        <ele>4.6</ele>
        <time>2021-08-04T10:22:56Z</time>
      </trkpt>
      <trkpt lat="47.59951" lon="-3.03383">
        <ele>4.6</ele>
        <time>2021-08-04T10:22:57Z</time>
      </trkpt>
      <trkpt lat="47.59947" lon="-3.03383">
        <ele>4.6</ele>
        <time>2021-08-04T10:22:58Z</time>
      </trkpt>
      <trkpt lat="47.59943" lon="-3.03382">
        <ele>4.6</ele>
        <time>2021-08-04T10:22:59Z</time>
      </trkpt>
      <trkpt lat="47.5994" lon="-3.03382">
        <ele>4.6</ele>
        <time>2021-08-04T10:23:00Z</time>
      </trkpt>
      <trkpt lat="47.59936" lon="-3.03381">
        <ele>4.6</ele>
        <time>2021-08-04T10:23:01Z</time>
      </trkpt>
      <trkpt lat="47.59933" lon="-3.0338">
        <ele>4.6</ele>
        <time>2021-08-04T10:23:02Z</time>
      </trkpt>
      <trkpt lat="47.5993" lon="-3.03379">
        <ele>4.8</ele>
        <time>2021-08-04T10:23:03Z</time>
      </trkpt>
      <trkpt lat="47.59927" lon="-3.03378">
        <ele>5.2</ele>
        <time>2021-08-04T10:23:04Z</time>
      </trkpt>
      <trkpt lat="47.59925" lon="-3.03377">
        <ele>5.4</ele>
        <time>2021-08-04T10:23:05Z</time>
      </trkpt>
      <trkpt lat="47.59922" lon="-3.03376">
        <ele>5.8</ele>
        <time>2021-08-04T10:23:06Z</time>
      </trkpt>
      <trkpt lat="47.5992" lon="-3.03375">
        <ele>6</ele>
        <time>2021-08-04T10:23:07Z</time>
      </trkpt>
      <trkpt lat="47.59917" lon="-3.03374">
        <ele>6.4</ele>
        <time>2021-08-04T10:23:08Z</time>
      </trkpt>
      <trkpt lat="47.59914" lon="-3.03373">
        <ele>7</ele>
        <time>2021-08-04T10:23:09Z</time>
      </trkpt>
      <trkpt lat="47.59911" lon="-3.03372">
        <ele>7.2</ele>
        <time>2021-08-04T10:23:10Z</time>
      </trkpt>
      <trkpt lat="47.59908" lon="-3.03371">
        <ele>7.4</ele>
        <time>2021-08-04T10:23:11Z</time>
      </trkpt>
      <trkpt lat="47.59905" lon="-3.03369">
        <ele>7.6</ele>
        <time>2021-08-04T10:23:12Z</time>
      </trkpt>
      <trkpt lat="47.59902" lon="-3.03368">
        <ele>7.6</ele>
        <time>2021-08-04T10:23:13Z</time>
      </trkpt>
      <trkpt lat="47.59899" lon="-3.03366">
        <ele>7.8</ele>
        <time>2021-08-04T10:23:14Z</time>
      </trkpt>
      <trkpt lat="47.59895" lon="-3.03364">
        <ele>8</ele>
        <time>2021-08-04T10:23:15Z</time>
      </trkpt>
      <trkpt lat="47.59892" lon="-3.03363">
        <ele>8</ele>
        <time>2021-08-04T10:23:16Z</time>
      </trkpt>
      <trkpt lat="47.59889" lon="-3.03361">
        <ele>8</ele>
        <time>2021-08-04T10:23:17Z</time>
      </trkpt>
      <trkpt lat="47.59885" lon="-3.03358">
        <ele>8</ele>
        <time>2021-08-04T10:23:18Z</time>
      </trkpt>
      <trkpt lat="47.59882" lon="-3.03356">
        <ele>8.2</ele>
        <time>2021-08-04T10:23:19Z</time>
      </trkpt>
      <trkpt lat="47.59879" lon="-3.03354">
        <ele>8.4</ele>
        <time>2021-08-04T10:23:20Z</time>
      </trkpt>
      <trkpt lat="47.59876" lon="-3.03351">
        <ele>8.4</ele>
        <time>2021-08-04T10:23:21Z</time>
      </trkpt>
      <trkpt lat="47.59873" lon="-3.03349">
        <ele>8.6</ele>
        <time>2021-08-04T10:23:22Z</time>
      </trkpt>
      <trkpt lat="47.5987" lon="-3.03346">
        <ele>8.6</ele>
        <time>2021-08-04T10:23:23Z</time>
      </trkpt>
      <trkpt lat="47.59867" lon="-3.03343">
        <ele>8.8</ele>
        <time>2021-08-04T10:23:24Z</time>
      </trkpt>
      <trkpt lat="47.59864" lon="-3.0334">
        <ele>8.8</ele>
        <time>2021-08-04T10:23:25Z</time>
      </trkpt>
      <trkpt lat="47.59861" lon="-3.03337">
        <ele>9</ele>
        <time>2021-08-04T10:23:26Z</time>
      </trkpt>
      <trkpt lat="47.59857" lon="-3.03335">
        <ele>9</ele>
        <time>2021-08-04T10:23:27Z</time>
      </trkpt>
      <trkpt lat="47.59854" lon="-3.03332">
        <ele>9.2</ele>
        <time>2021-08-04T10:23:28Z</time>
      </trkpt>
      <trkpt lat="47.59851" lon="-3.03328">
        <ele>9.2</ele>
        <time>2021-08-04T10:23:29Z</time>
      </trkpt>
      <trkpt lat="47.59848" lon="-3.03325">
        <ele>9.4</ele>
        <time>2021-08-04T10:23:30Z</time>
      </trkpt>
      <trkpt lat="47.59844" lon="-3.03321">
        <ele>9.6</ele>
        <time>2021-08-04T10:23:31Z</time>
      </trkpt>
      <trkpt lat="47.59841" lon="-3.03318">
        <ele>9.8</ele>
        <time>2021-08-04T10:23:32Z</time>
      </trkpt>
      <trkpt lat="47.59838" lon="-3.03314">
        <ele>10</ele>
        <time>2021-08-04T10:23:33Z</time>
      </trkpt>
      <trkpt lat="47.59835" lon="-3.0331">
        <ele>10</ele>
        <time>2021-08-04T10:23:34Z</time>
      </trkpt>
      <trkpt lat="47.59832" lon="-3.03306">
        <ele>10.2</ele>
        <time>2021-08-04T10:23:35Z</time>
      </trkpt>
      <trkpt lat="47.59829" lon="-3.03301">
        <ele>10.4</ele>
        <time>2021-08-04T10:23:36Z</time>
      </trkpt>
      <trkpt lat="47.59826" lon="-3.03297">
        <ele>10.4</ele>
        <time>2021-08-04T10:23:37Z</time>
      </trkpt>
      <trkpt lat="47.59823" lon="-3.03292">
        <ele>10.4</ele>
        <time>2021-08-04T10:23:38Z</time>
      </trkpt>
      <trkpt lat="47.5982" lon="-3.03287">
        <ele>10.4</ele>
        <time>2021-08-04T10:23:39Z</time>
      </trkpt>
      <trkpt lat="47.59817" lon="-3.03282">
        <ele>10.4</ele>
        <time>2021-08-04T10:23:40Z</time>
      </trkpt>
      <trkpt lat="47.59814" lon="-3.03277">
        <ele>10.6</ele>
        <time>2021-08-04T10:23:41Z</time>
      </trkpt>
      <trkpt lat="47.59811" lon="-3.03272">
        <ele>10.6</ele>
        <time>2021-08-04T10:23:42Z</time>
      </trkpt>
      <trkpt lat="47.59808" lon="-3.03267">
        <ele>10.6</ele>
        <time>2021-08-04T10:23:43Z</time>
      </trkpt>
      <trkpt lat="47.59805" lon="-3.03262">
        <ele>10.6</ele>
        <time>2021-08-04T10:23:44Z</time>
      </trkpt>
      <trkpt lat="47.59802" lon="-3.03257">
        <ele>10.6</ele>
        <time>2021-08-04T10:23:45Z</time>
      </trkpt>
      <trkpt lat="47.59799" lon="-3.03252">
        <ele>10.6</ele>
        <time>2021-08-04T10:23:46Z</time>
      </trkpt>
      <trkpt lat="47.59796" lon="-3.03247">
        <ele>10.8</ele>
        <time>2021-08-04T10:23:47Z</time>
      </trkpt>
      <trkpt lat="47.59793" lon="-3.03242">
        <ele>10.8</ele>
        <time>2021-08-04T10:23:48Z</time>
      </trkpt>
      <trkpt lat="47.5979" lon="-3.03237">
        <ele>10.8</ele>
        <time>2021-08-04T10:23:49Z</time>
      </trkpt>
      <trkpt lat="47.59787" lon="-3.03232">
        <ele>10.8</ele>
        <time>2021-08-04T10:23:50Z</time>
      </trkpt>
      <trkpt lat="47.59784" lon="-3.03227">
        <ele>11</ele>
        <time>2021-08-04T10:23:51Z</time>
      </trkpt>
      <trkpt lat="47.59781" lon="-3.03222">
        <ele>11.2</ele>
        <time>2021-08-04T10:23:52Z</time>
      </trkpt>
      <trkpt lat="47.59778" lon="-3.03218">
        <ele>11.2</ele>
        <time>2021-08-04T10:23:53Z</time>
      </trkpt>
      <trkpt lat="47.59775" lon="-3.03213">
        <ele>11.4</ele>
        <time>2021-08-04T10:23:54Z</time>
      </trkpt>
      <trkpt lat="47.59772" lon="-3.03209">
        <ele>11.4</ele>
        <time>2021-08-04T10:23:55Z</time>
      </trkpt>
      <trkpt lat="47.59769" lon="-3.03205">
        <ele>11.6</ele>
        <time>2021-08-04T10:23:56Z</time>
      </trkpt>
      <trkpt lat="47.59766" lon="-3.032">
        <ele>11.6</ele>
        <time>2021-08-04T10:23:57Z</time>
      </trkpt>
      <trkpt lat="47.59763" lon="-3.03196">
        <ele>11.6</ele>
        <time>2021-08-04T10:23:58Z</time>
      </trkpt>
      <trkpt lat="47.5976" lon="-3.03192">
        <ele>11.6</ele>
        <time>2021-08-04T10:23:59Z</time>
      </trkpt>
      <trkpt lat="47.59757" lon="-3.03188">
        <ele>11.8</ele>
        <time>2021-08-04T10:24:00Z</time>
      </trkpt>
      <trkpt lat="47.59753" lon="-3.03184">
        <ele>11.8</ele>
        <time>2021-08-04T10:24:01Z</time>
      </trkpt>
      <trkpt lat="47.5975" lon="-3.03181">
        <ele>11.8</ele>
        <time>2021-08-04T10:24:02Z</time>
      </trkpt>
      <trkpt lat="47.59746" lon="-3.03179">
        <ele>12</ele>
        <time>2021-08-04T10:24:03Z</time>
      </trkpt>
      <trkpt lat="47.59743" lon="-3.03177">
        <ele>12.2</ele>
        <time>2021-08-04T10:24:04Z</time>
      </trkpt>
      <trkpt lat="47.5974" lon="-3.03176">
        <ele>12.4</ele>
        <time>2021-08-04T10:24:05Z</time>
      </trkpt>
      <trkpt lat="47.59737" lon="-3.03175">
        <ele>12.6</ele>
        <time>2021-08-04T10:24:06Z</time>
      </trkpt>
      <trkpt lat="47.59733" lon="-3.03173">
        <ele>12.6</ele>
        <time>2021-08-04T10:24:07Z</time>
      </trkpt>
      <trkpt lat="47.59729" lon="-3.03172">
        <ele>12.8</ele>
        <time>2021-08-04T10:24:08Z</time>
      </trkpt>
      <trkpt lat="47.59726" lon="-3.0317">
        <ele>12.8</ele>
        <time>2021-08-04T10:24:09Z</time>
      </trkpt>
      <trkpt lat="47.59722" lon="-3.03169">
        <ele>13</ele>
        <time>2021-08-04T10:24:10Z</time>
      </trkpt>
      <trkpt lat="47.59718" lon="-3.03167">
        <ele>13</ele>
        <time>2021-08-04T10:24:11Z</time>
      </trkpt>
      <trkpt lat="47.59714" lon="-3.03166">
        <ele>13.2</ele>
        <time>2021-08-04T10:24:12Z</time>
      </trkpt>
      <trkpt lat="47.5971" lon="-3.03165">
        <ele>13.4</ele>
        <time>2021-08-04T10:24:13Z</time>
      </trkpt>
      <trkpt lat="47.59706" lon="-3.03164">
        <ele>13.6</ele>
        <time>2021-08-04T10:24:14Z</time>
      </trkpt>
      <trkpt lat="47.59702" lon="-3.03163">
        <ele>13.6</ele>
        <time>2021-08-04T10:24:15Z</time>
      </trkpt>
      <trkpt lat="47.59697" lon="-3.03162">
        <ele>13.8</ele>
        <time>2021-08-04T10:24:16Z</time>
      </trkpt>
      <trkpt lat="47.59693" lon="-3.0316">
        <ele>13.8</ele>
        <time>2021-08-04T10:24:17Z</time>
      </trkpt>
      <trkpt lat="47.59689" lon="-3.03159">
        <ele>13.8</ele>
        <time>2021-08-04T10:24:18Z</time>
      </trkpt>
      <trkpt lat="47.59685" lon="-3.03157">
        <ele>13.8</ele>
        <time>2021-08-04T10:24:19Z</time>
      </trkpt>
      <trkpt lat="47.59681" lon="-3.03155">
        <ele>13.8</ele>
        <time>2021-08-04T10:24:20Z</time>
      </trkpt>
      <trkpt lat="47.59676" lon="-3.03153">
        <ele>13.8</ele>
        <time>2021-08-04T10:24:21Z</time>
      </trkpt>
      <trkpt lat="47.59671" lon="-3.03152">
        <ele>13.8</ele>
        <time>2021-08-04T10:24:22Z</time>
      </trkpt>
      <trkpt lat="47.59666" lon="-3.0315">
        <ele>13.8</ele>
        <time>2021-08-04T10:24:23Z</time>
      </trkpt>
      <trkpt lat="47.59661" lon="-3.03148">
        <ele>13.8</ele>
        <time>2021-08-04T10:24:24Z</time>
      </trkpt>
      <trkpt lat="47.59655" lon="-3.03145">
        <ele>13.8</ele>
        <time>2021-08-04T10:24:25Z</time>
      </trkpt>
      <trkpt lat="47.59649" lon="-3.03141">
        <ele>13.8</ele>
        <time>2021-08-04T10:24:26Z</time>
      </trkpt>
      <trkpt lat="47.59643" lon="-3.03138">
        <ele>13.8</ele>
        <time>2021-08-04T10:24:27Z</time>
      </trkpt>
      <trkpt lat="47.59637" lon="-3.03134">
        <ele>13.8</ele>
        <time>2021-08-04T10:24:28Z</time>
      </trkpt>
      <trkpt lat="47.59631" lon="-3.0313">
        <ele>13.8</ele>
        <time>2021-08-04T10:24:29Z</time>
      </trkpt>
      <trkpt lat="47.59625" lon="-3.03126">
        <ele>13.8</ele>
        <time>2021-08-04T10:24:30Z</time>
      </trkpt>
      <trkpt lat="47.59619" lon="-3.03122">
        <ele>13.8</ele>
        <time>2021-08-04T10:24:31Z</time>
      </trkpt>
      <trkpt lat="47.59613" lon="-3.03118">
        <ele>13.6</ele>
        <time>2021-08-04T10:24:32Z</time>
      </trkpt>
      <trkpt lat="47.59607" lon="-3.03114">
        <ele>12.6</ele>
        <time>2021-08-04T10:24:33Z</time>
      </trkpt>
      <trkpt lat="47.596" lon="-3.03109">
        <ele>12.4</ele>
        <time>2021-08-04T10:24:34Z</time>
      </trkpt>
      <trkpt lat="47.59594" lon="-3.03105">
        <ele>12.2</ele>
        <time>2021-08-04T10:24:35Z</time>
      </trkpt>
      <trkpt lat="47.59587" lon="-3.031">
        <ele>12.2</ele>
        <time>2021-08-04T10:24:36Z</time>
      </trkpt>
      <trkpt lat="47.59581" lon="-3.03095">
        <ele>12</ele>
        <time>2021-08-04T10:24:37Z</time>
      </trkpt>
      <trkpt lat="47.59574" lon="-3.03091">
        <ele>12</ele>
        <time>2021-08-04T10:24:38Z</time>
      </trkpt>
      <trkpt lat="47.59568" lon="-3.03087">
        <ele>12</ele>
        <time>2021-08-04T10:24:39Z</time>
      </trkpt>
      <trkpt lat="47.59562" lon="-3.03084">
        <ele>12</ele>
        <time>2021-08-04T10:24:40Z</time>
      </trkpt>
      <trkpt lat="47.59556" lon="-3.03079">
        <ele>12</ele>
        <time>2021-08-04T10:24:41Z</time>
      </trkpt>
      <trkpt lat="47.5955" lon="-3.03075">
        <ele>12</ele>
        <time>2021-08-04T10:24:42Z</time>
      </trkpt>
      <trkpt lat="47.59544" lon="-3.03071">
        <ele>12</ele>
        <time>2021-08-04T10:24:43Z</time>
      </trkpt>
      <trkpt lat="47.59538" lon="-3.03067">
        <ele>12.2</ele>
        <time>2021-08-04T10:24:44Z</time>
      </trkpt>
      <trkpt lat="47.59532" lon="-3.03063">
        <ele>12.2</ele>
        <time>2021-08-04T10:24:45Z</time>
      </trkpt>
      <trkpt lat="47.59527" lon="-3.03059">
        <ele>12.4</ele>
        <time>2021-08-04T10:24:46Z</time>
      </trkpt>
      <trkpt lat="47.59521" lon="-3.03055">
        <ele>12.4</ele>
        <time>2021-08-04T10:24:47Z</time>
      </trkpt>
      <trkpt lat="47.59516" lon="-3.0305">
        <ele>12.6</ele>
        <time>2021-08-04T10:24:48Z</time>
      </trkpt>
      <trkpt lat="47.59511" lon="-3.03047">
        <ele>12.8</ele>
        <time>2021-08-04T10:24:49Z</time>
      </trkpt>
      <trkpt lat="47.59506" lon="-3.03043">
        <ele>13.2</ele>
        <time>2021-08-04T10:24:50Z</time>
      </trkpt>
      <trkpt lat="47.595" lon="-3.0304">
        <ele>13.4</ele>
        <time>2021-08-04T10:24:51Z</time>
      </trkpt>
      <trkpt lat="47.59495" lon="-3.03036">
        <ele>13.6</ele>
        <time>2021-08-04T10:24:52Z</time>
      </trkpt>
      <trkpt lat="47.59489" lon="-3.03032">
        <ele>13.6</ele>
        <time>2021-08-04T10:24:53Z</time>
      </trkpt>
      <trkpt lat="47.59483" lon="-3.03028">
        <ele>13.8</ele>
        <time>2021-08-04T10:24:54Z</time>
      </trkpt>
      <trkpt lat="47.59477" lon="-3.03024">
        <ele>13.8</ele>
        <time>2021-08-04T10:24:55Z</time>
      </trkpt>
      <trkpt lat="47.59471" lon="-3.03021">
        <ele>13.8</ele>
        <time>2021-08-04T10:24:56Z</time>
      </trkpt>
      <trkpt lat="47.59465" lon="-3.03017">
        <ele>13.8</ele>
        <time>2021-08-04T10:24:57Z</time>
      </trkpt>
      <trkpt lat="47.59458" lon="-3.03014">
        <ele>13.8</ele>
        <time>2021-08-04T10:24:58Z</time>
      </trkpt>
      <trkpt lat="47.59451" lon="-3.03011">
        <ele>13.8</ele>
        <time>2021-08-04T10:24:59Z</time>
      </trkpt>
      <trkpt lat="47.59445" lon="-3.03009">
        <ele>13.8</ele>
        <time>2021-08-04T10:25:00Z</time>
      </trkpt>
      <trkpt lat="47.59438" lon="-3.03007">
        <ele>13.8</ele>
        <time>2021-08-04T10:25:01Z</time>
      </trkpt>
      <trkpt lat="47.59432" lon="-3.03005">
        <ele>13.6</ele>
        <time>2021-08-04T10:25:02Z</time>
      </trkpt>
      <trkpt lat="47.59427" lon="-3.03003">
        <ele>13.6</ele>
        <time>2021-08-04T10:25:03Z</time>
      </trkpt>
      <trkpt lat="47.59422" lon="-3.03002">
        <ele>13.4</ele>
        <time>2021-08-04T10:25:04Z</time>
      </trkpt>
      <trkpt lat="47.59417" lon="-3.03002">
        <ele>13.4</ele>
        <time>2021-08-04T10:25:05Z</time>
      </trkpt>
      <trkpt lat="47.59411" lon="-3.03002">
        <ele>13.2</ele>
        <time>2021-08-04T10:25:06Z</time>
      </trkpt>
      <trkpt lat="47.59405" lon="-3.03001">
        <ele>13</ele>
        <time>2021-08-04T10:25:07Z</time>
      </trkpt>
      <trkpt lat="47.594" lon="-3.03001">
        <ele>12.8</ele>
        <time>2021-08-04T10:25:08Z</time>
      </trkpt>
      <trkpt lat="47.59395" lon="-3.03001">
        <ele>12.6</ele>
        <time>2021-08-04T10:25:09Z</time>
      </trkpt>
      <trkpt lat="47.59391" lon="-3.03003">
        <ele>12.6</ele>
        <time>2021-08-04T10:25:10Z</time>
      </trkpt>
      <trkpt lat="47.59387" lon="-3.03004">
        <ele>12.4</ele>
        <time>2021-08-04T10:25:11Z</time>
      </trkpt>
      <trkpt lat="47.59383" lon="-3.03004">
        <ele>12.4</ele>
        <time>2021-08-04T10:25:12Z</time>
      </trkpt>
      <trkpt lat="47.59379" lon="-3.03005">
        <ele>12.2</ele>
        <time>2021-08-04T10:25:13Z</time>
      </trkpt>
      <trkpt lat="47.59375" lon="-3.03006">
        <ele>12.2</ele>
        <time>2021-08-04T10:25:14Z</time>
      </trkpt>
      <trkpt lat="47.59371" lon="-3.03007">
        <ele>12.2</ele>
        <time>2021-08-04T10:25:15Z</time>
      </trkpt>
      <trkpt lat="47.59367" lon="-3.03008">
        <ele>12</ele>
        <time>2021-08-04T10:25:16Z</time>
      </trkpt>
      <trkpt lat="47.59363" lon="-3.03009">
        <ele>12</ele>
        <time>2021-08-04T10:25:17Z</time>
      </trkpt>
      <trkpt lat="47.59359" lon="-3.03009">
        <ele>11.8</ele>
        <time>2021-08-04T10:25:18Z</time>
      </trkpt>
      <trkpt lat="47.59354" lon="-3.0301">
        <ele>11.8</ele>
        <time>2021-08-04T10:25:19Z</time>
      </trkpt>
      <trkpt lat="47.5935" lon="-3.03011">
        <ele>11.8</ele>
        <time>2021-08-04T10:25:20Z</time>
      </trkpt>
      <trkpt lat="47.59345" lon="-3.03013">
        <ele>11.8</ele>
        <time>2021-08-04T10:25:21Z</time>
      </trkpt>
      <trkpt lat="47.5934" lon="-3.03016">
        <ele>11.8</ele>
        <time>2021-08-04T10:25:22Z</time>
      </trkpt>
      <trkpt lat="47.59336" lon="-3.0302">
        <ele>11.6</ele>
        <time>2021-08-04T10:25:23Z</time>
      </trkpt>
      <trkpt lat="47.59332" lon="-3.03025">
        <ele>11.6</ele>
        <time>2021-08-04T10:25:24Z</time>
      </trkpt>
      <trkpt lat="47.59329" lon="-3.0303">
        <ele>11.6</ele>
        <time>2021-08-04T10:25:25Z</time>
      </trkpt>
      <trkpt lat="47.59326" lon="-3.03035">
        <ele>11.6</ele>
        <time>2021-08-04T10:25:26Z</time>
      </trkpt>
      <trkpt lat="47.59324" lon="-3.0304">
        <ele>11.4</ele>
        <time>2021-08-04T10:25:27Z</time>
      </trkpt>
      <trkpt lat="47.59323" lon="-3.03045">
        <ele>11.4</ele>
        <time>2021-08-04T10:25:28Z</time>
      </trkpt>
      <trkpt lat="47.59322" lon="-3.03049">
        <ele>11.4</ele>
        <time>2021-08-04T10:25:29Z</time>
      </trkpt>
      <trkpt lat="47.59321" lon="-3.03053">
        <ele>11.4</ele>
        <time>2021-08-04T10:25:30Z</time>
      </trkpt>
      <trkpt lat="47.5932" lon="-3.03057">
        <ele>11.4</ele>
        <time>2021-08-04T10:25:31Z</time>
      </trkpt>
      <trkpt lat="47.59319" lon="-3.03059">
        <ele>11.4</ele>
        <time>2021-08-04T10:25:32Z</time>
      </trkpt>
      <trkpt lat="47.59318" lon="-3.03061">
        <ele>11.4</ele>
        <time>2021-08-04T10:25:33Z</time>
      </trkpt>
      <trkpt lat="47.59316" lon="-3.03062">
        <ele>11.4</ele>
        <time>2021-08-04T10:25:34Z</time>
      </trkpt>
      <trkpt lat="47.59314" lon="-3.03063">
        <ele>11.4</ele>
        <time>2021-08-04T10:25:35Z</time>
      </trkpt>
      <trkpt lat="47.59311" lon="-3.03064">
        <ele>11.4</ele>
        <time>2021-08-04T10:25:36Z</time>
      </trkpt>
      <trkpt lat="47.59308" lon="-3.03064">
        <ele>11.6</ele>
        <time>2021-08-04T10:25:37Z</time>
      </trkpt>
      <trkpt lat="47.59305" lon="-3.03064">
        <ele>11.8</ele>
        <time>2021-08-04T10:25:38Z</time>
      </trkpt>
      <trkpt lat="47.59301" lon="-3.03064">
        <ele>11.8</ele>
        <time>2021-08-04T10:25:39Z</time>
      </trkpt>
      <trkpt lat="47.59298" lon="-3.03064">
        <ele>12</ele>
        <time>2021-08-04T10:25:40Z</time>
      </trkpt>
      <trkpt lat="47.59294" lon="-3.03065">
        <ele>12</ele>
        <time>2021-08-04T10:25:41Z</time>
      </trkpt>
      <trkpt lat="47.59289" lon="-3.03065">
        <ele>12</ele>
        <time>2021-08-04T10:25:42Z</time>
      </trkpt>
      <trkpt lat="47.59285" lon="-3.03065">
        <ele>12</ele>
        <time>2021-08-04T10:25:43Z</time>
      </trkpt>
      <trkpt lat="47.59281" lon="-3.03066">
        <ele>12</ele>
        <time>2021-08-04T10:25:44Z</time>
      </trkpt>
      <trkpt lat="47.59276" lon="-3.03066">
        <ele>12</ele>
        <time>2021-08-04T10:25:45Z</time>
      </trkpt>
      <trkpt lat="47.59271" lon="-3.03067">
        <ele>12</ele>
        <time>2021-08-04T10:25:46Z</time>
      </trkpt>
      <trkpt lat="47.59266" lon="-3.03067">
        <ele>12</ele>
        <time>2021-08-04T10:25:47Z</time>
      </trkpt>
      <trkpt lat="47.59261" lon="-3.03068">
        <ele>12</ele>
        <time>2021-08-04T10:25:48Z</time>
      </trkpt>
      <trkpt lat="47.59256" lon="-3.03068">
        <ele>12</ele>
        <time>2021-08-04T10:25:49Z</time>
      </trkpt>
      <trkpt lat="47.59251" lon="-3.03068">
        <ele>12</ele>
        <time>2021-08-04T10:25:50Z</time>
      </trkpt>
      <trkpt lat="47.59246" lon="-3.03069">
        <ele>12</ele>
        <time>2021-08-04T10:25:51Z</time>
      </trkpt>
      <trkpt lat="47.59241" lon="-3.03069">
        <ele>11.8</ele>
        <time>2021-08-04T10:25:52Z</time>
      </trkpt>
      <trkpt lat="47.59235" lon="-3.03068">
        <ele>11.8</ele>
        <time>2021-08-04T10:25:53Z</time>
      </trkpt>
      <trkpt lat="47.59229" lon="-3.03066">
        <ele>11.6</ele>
        <time>2021-08-04T10:25:54Z</time>
      </trkpt>
      <trkpt lat="47.59224" lon="-3.03064">
        <ele>11.6</ele>
        <time>2021-08-04T10:25:55Z</time>
      </trkpt>
      <trkpt lat="47.59218" lon="-3.03062">
        <ele>11.4</ele>
        <time>2021-08-04T10:25:56Z</time>
      </trkpt>
      <trkpt lat="47.59211" lon="-3.03059">
        <ele>11.2</ele>
        <time>2021-08-04T10:25:57Z</time>
      </trkpt>
      <trkpt lat="47.59206" lon="-3.03055">
        <ele>11</ele>
        <time>2021-08-04T10:25:58Z</time>
      </trkpt>
      <trkpt lat="47.592" lon="-3.0305">
        <ele>10.8</ele>
        <time>2021-08-04T10:25:59Z</time>
      </trkpt>
      <trkpt lat="47.59194" lon="-3.03046">
        <ele>10.4</ele>
        <time>2021-08-04T10:26:00Z</time>
      </trkpt>
      <trkpt lat="47.59188" lon="-3.03042">
        <ele>10.2</ele>
        <time>2021-08-04T10:26:01Z</time>
      </trkpt>
      <trkpt lat="47.59182" lon="-3.03037">
        <ele>10</ele>
        <time>2021-08-04T10:26:02Z</time>
      </trkpt>
      <trkpt lat="47.59176" lon="-3.03032">
        <ele>9.8</ele>
        <time>2021-08-04T10:26:03Z</time>
      </trkpt>
      <trkpt lat="47.59171" lon="-3.03027">
        <ele>9.6</ele>
        <time>2021-08-04T10:26:04Z</time>
      </trkpt>
      <trkpt lat="47.59165" lon="-3.03023">
        <ele>9.6</ele>
        <time>2021-08-04T10:26:05Z</time>
      </trkpt>
      <trkpt lat="47.5916" lon="-3.03018">
        <ele>9.4</ele>
        <time>2021-08-04T10:26:06Z</time>
      </trkpt>
      <trkpt lat="47.59155" lon="-3.03013">
        <ele>9.2</ele>
        <time>2021-08-04T10:26:07Z</time>
      </trkpt>
      <trkpt lat="47.5915" lon="-3.03008">
        <ele>9</ele>
        <time>2021-08-04T10:26:08Z</time>
      </trkpt>
      <trkpt lat="47.59145" lon="-3.03003">
        <ele>8.8</ele>
        <time>2021-08-04T10:26:09Z</time>
      </trkpt>
      <trkpt lat="47.5914" lon="-3.02998">
        <ele>8.8</ele>
        <time>2021-08-04T10:26:10Z</time>
      </trkpt>
      <trkpt lat="47.59135" lon="-3.02994">
        <ele>8.6</ele>
        <time>2021-08-04T10:26:11Z</time>
      </trkpt>
      <trkpt lat="47.5913" lon="-3.0299">
        <ele>8.6</ele>
        <time>2021-08-04T10:26:12Z</time>
      </trkpt>
      <trkpt lat="47.59125" lon="-3.02987">
        <ele>8.6</ele>
        <time>2021-08-04T10:26:13Z</time>
      </trkpt>
      <trkpt lat="47.5912" lon="-3.02983">
        <ele>8.6</ele>
        <time>2021-08-04T10:26:14Z</time>
      </trkpt>
      <trkpt lat="47.59115" lon="-3.0298">
        <ele>8.6</ele>
        <time>2021-08-04T10:26:15Z</time>
      </trkpt>
      <trkpt lat="47.5911" lon="-3.02978">
        <ele>8.6</ele>
        <time>2021-08-04T10:26:16Z</time>
      </trkpt>
      <trkpt lat="47.59105" lon="-3.02975">
        <ele>8.4</ele>
        <time>2021-08-04T10:26:17Z</time>
      </trkpt>
      <trkpt lat="47.59099" lon="-3.02973">
        <ele>8.4</ele>
        <time>2021-08-04T10:26:18Z</time>
      </trkpt>
      <trkpt lat="47.59094" lon="-3.02971">
        <ele>8.4</ele>
        <time>2021-08-04T10:26:19Z</time>
      </trkpt>
      <trkpt lat="47.59088" lon="-3.02969">
        <ele>8.4</ele>
        <time>2021-08-04T10:26:20Z</time>
      </trkpt>
      <trkpt lat="47.59082" lon="-3.02968">
        <ele>8.4</ele>
        <time>2021-08-04T10:26:21Z</time>
      </trkpt>
      <trkpt lat="47.59076" lon="-3.02966">
        <ele>8.4</ele>
        <time>2021-08-04T10:26:22Z</time>
      </trkpt>
      <trkpt lat="47.5907" lon="-3.02964">
        <ele>8.4</ele>
        <time>2021-08-04T10:26:23Z</time>
      </trkpt>
      <trkpt lat="47.59064" lon="-3.02963">
        <ele>8.4</ele>
        <time>2021-08-04T10:26:24Z</time>
      </trkpt>
      <trkpt lat="47.59058" lon="-3.02962">
        <ele>8.4</ele>
        <time>2021-08-04T10:26:25Z</time>
      </trkpt>
      <trkpt lat="47.59052" lon="-3.02961">
        <ele>8.2</ele>
        <time>2021-08-04T10:26:26Z</time>
      </trkpt>
      <trkpt lat="47.59046" lon="-3.0296">
        <ele>8.2</ele>
        <time>2021-08-04T10:26:27Z</time>
      </trkpt>
      <trkpt lat="47.5904" lon="-3.02958">
        <ele>8</ele>
        <time>2021-08-04T10:26:28Z</time>
      </trkpt>
      <trkpt lat="47.59035" lon="-3.02956">
        <ele>7.6</ele>
        <time>2021-08-04T10:26:29Z</time>
      </trkpt>
      <trkpt lat="47.5903" lon="-3.02955">
        <ele>7.2</ele>
        <time>2021-08-04T10:26:30Z</time>
      </trkpt>
      <trkpt lat="47.59025" lon="-3.02954">
        <ele>6.8</ele>
        <time>2021-08-04T10:26:31Z</time>
      </trkpt>
      <trkpt lat="47.5902" lon="-3.02953">
        <ele>6.6</ele>
        <time>2021-08-04T10:26:32Z</time>
      </trkpt>
      <trkpt lat="47.59015" lon="-3.02951">
        <ele>6.6</ele>
        <time>2021-08-04T10:26:33Z</time>
      </trkpt>
      <trkpt lat="47.59012" lon="-3.0295">
        <ele>6.4</ele>
        <time>2021-08-04T10:26:34Z</time>
      </trkpt>
      <trkpt lat="47.59009" lon="-3.02949">
        <ele>6</ele>
        <time>2021-08-04T10:26:35Z</time>
      </trkpt>
      <trkpt lat="47.59007" lon="-3.02949">
        <ele>6</ele>
        <time>2021-08-04T10:26:36Z</time>
      </trkpt>
      <trkpt lat="47.59005" lon="-3.02948">
        <ele>5.8</ele>
        <time>2021-08-04T10:26:37Z</time>
      </trkpt>
      <trkpt lat="47.59003" lon="-3.02948">
        <ele>5.4</ele>
        <time>2021-08-04T10:26:38Z</time>
      </trkpt>
      <trkpt lat="47.59003" lon="-3.02948">
        <ele>5</ele>
        <time>2021-08-04T10:26:39Z</time>
      </trkpt>
      <trkpt lat="47.59002" lon="-3.02948">
        <ele>4.8</ele>
        <time>2021-08-04T10:26:40Z</time>
      </trkpt>
      <trkpt lat="47.59001" lon="-3.02948">
        <ele>4.6</ele>
        <time>2021-08-04T10:26:41Z</time>
      </trkpt>
      <trkpt lat="47.59001" lon="-3.02947">
        <ele>4.2</ele>
        <time>2021-08-04T10:26:51Z</time>
      </trkpt>
      <trkpt lat="47.59" lon="-3.02947">
        <ele>4.2</ele>
        <time>2021-08-04T10:26:52Z</time>
      </trkpt>
      <trkpt lat="47.58998" lon="-3.02947">
        <ele>4.2</ele>
        <time>2021-08-04T10:26:53Z</time>
      </trkpt>
      <trkpt lat="47.58995" lon="-3.02947">
        <ele>4.2</ele>
        <time>2021-08-04T10:26:54Z</time>
      </trkpt>
      <trkpt lat="47.58992" lon="-3.02947">
        <ele>4.2</ele>
        <time>2021-08-04T10:26:55Z</time>
      </trkpt>
      <trkpt lat="47.58989" lon="-3.02947">
        <ele>4.2</ele>
        <time>2021-08-04T10:26:56Z</time>
      </trkpt>
      <trkpt lat="47.58985" lon="-3.02948">
        <ele>4.2</ele>
        <time>2021-08-04T10:26:57Z</time>
      </trkpt>
      <trkpt lat="47.58982" lon="-3.02949">
        <ele>4</ele>
        <time>2021-08-04T10:26:58Z</time>
      </trkpt>
      <trkpt lat="47.58979" lon="-3.02951">
        <ele>4</ele>
        <time>2021-08-04T10:26:59Z</time>
      </trkpt>
      <trkpt lat="47.58975" lon="-3.02952">
        <ele>3.8</ele>
        <time>2021-08-04T10:27:00Z</time>
      </trkpt>
      <trkpt lat="47.58971" lon="-3.02953">
        <ele>3.8</ele>
        <time>2021-08-04T10:27:01Z</time>
      </trkpt>
      <trkpt lat="47.58967" lon="-3.02954">
        <ele>4</ele>
        <time>2021-08-04T10:27:02Z</time>
      </trkpt>
      <trkpt lat="47.58963" lon="-3.02955">
        <ele>3.8</ele>
        <time>2021-08-04T10:27:03Z</time>
      </trkpt>
      <trkpt lat="47.58959" lon="-3.02956">
        <ele>3.6</ele>
        <time>2021-08-04T10:27:04Z</time>
      </trkpt>
      <trkpt lat="47.58954" lon="-3.02956">
        <ele>3.6</ele>
        <time>2021-08-04T10:27:05Z</time>
      </trkpt>
      <trkpt lat="47.58949" lon="-3.02956">
        <ele>3.4</ele>
        <time>2021-08-04T10:27:06Z</time>
      </trkpt>
      <trkpt lat="47.58944" lon="-3.02955">
        <ele>3.6</ele>
        <time>2021-08-04T10:27:07Z</time>
      </trkpt>
      <trkpt lat="47.58939" lon="-3.02954">
        <ele>3.2</ele>
        <time>2021-08-04T10:27:08Z</time>
      </trkpt>
      <trkpt lat="47.58934" lon="-3.02951">
        <ele>3.2</ele>
        <time>2021-08-04T10:27:09Z</time>
      </trkpt>
      <trkpt lat="47.58929" lon="-3.02948">
        <ele>3</ele>
        <time>2021-08-04T10:27:10Z</time>
      </trkpt>
      <trkpt lat="47.58924" lon="-3.02944">
        <ele>2.8</ele>
        <time>2021-08-04T10:27:11Z</time>
      </trkpt>
      <trkpt lat="47.58919" lon="-3.0294">
        <ele>2.6</ele>
        <time>2021-08-04T10:27:12Z</time>
      </trkpt>
      <trkpt lat="47.58914" lon="-3.02936">
        <ele>2.4</ele>
        <time>2021-08-04T10:27:13Z</time>
      </trkpt>
      <trkpt lat="47.58909" lon="-3.02932">
        <ele>2.2</ele>
        <time>2021-08-04T10:27:14Z</time>
      </trkpt>
      <trkpt lat="47.58904" lon="-3.02929">
        <ele>2.2</ele>
        <time>2021-08-04T10:27:15Z</time>
      </trkpt>
      <trkpt lat="47.589" lon="-3.02925">
        <ele>2</ele>
        <time>2021-08-04T10:27:16Z</time>
      </trkpt>
      <trkpt lat="47.58895" lon="-3.02921">
        <ele>1.8</ele>
        <time>2021-08-04T10:27:17Z</time>
      </trkpt>
      <trkpt lat="47.5889" lon="-3.02917">
        <ele>1.4</ele>
        <time>2021-08-04T10:27:18Z</time>
      </trkpt>
      <trkpt lat="47.58885" lon="-3.02914">
        <ele>1</ele>
        <time>2021-08-04T10:27:19Z</time>
      </trkpt>
      <trkpt lat="47.5888" lon="-3.0291">
        <ele>0.6</ele>
        <time>2021-08-04T10:27:20Z</time>
      </trkpt>
      <trkpt lat="47.58875" lon="-3.02906">
        <ele>0.2</ele>
        <time>2021-08-04T10:27:21Z</time>
      </trkpt>
      <trkpt lat="47.58871" lon="-3.02902">
        <ele>0.2</ele>
        <time>2021-08-04T10:27:22Z</time>
      </trkpt>
      <trkpt lat="47.58866" lon="-3.02898">
        <ele>0.2</ele>
        <time>2021-08-04T10:27:23Z</time>
      </trkpt>
      <trkpt lat="47.58861" lon="-3.02895">
        <ele>0.2</ele>
        <time>2021-08-04T10:27:24Z</time>
      </trkpt>
      <trkpt lat="47.58857" lon="-3.02892">
        <ele>0.2</ele>
        <time>2021-08-04T10:27:25Z</time>
      </trkpt>
      <trkpt lat="47.58853" lon="-3.02888">
        <ele>0.2</ele>
        <time>2021-08-04T10:27:26Z</time>
      </trkpt>
      <trkpt lat="47.58849" lon="-3.02884">
        <ele>0.2</ele>
        <time>2021-08-04T10:27:27Z</time>
      </trkpt>
      <trkpt lat="47.58845" lon="-3.0288">
        <ele>0.2</ele>
        <time>2021-08-04T10:27:28Z</time>
      </trkpt>
      <trkpt lat="47.58841" lon="-3.02876">
        <ele>-0.2</ele>
        <time>2021-08-04T10:27:29Z</time>
      </trkpt>
      <trkpt lat="47.58837" lon="-3.02873">
        <ele>-0.2</ele>
        <time>2021-08-04T10:27:30Z</time>
      </trkpt>
      <trkpt lat="47.58834" lon="-3.02869">
        <ele>-0.2</ele>
        <time>2021-08-04T10:27:31Z</time>
      </trkpt>
      <trkpt lat="47.58831" lon="-3.02866">
        <ele>-0.2</ele>
        <time>2021-08-04T10:27:32Z</time>
      </trkpt>
      <trkpt lat="47.58828" lon="-3.02863">
        <ele>-0.2</ele>
        <time>2021-08-04T10:27:33Z</time>
      </trkpt>
      <trkpt lat="47.58824" lon="-3.0286">
        <ele>-0.2</ele>
        <time>2021-08-04T10:27:34Z</time>
      </trkpt>
      <trkpt lat="47.58821" lon="-3.02857">
        <ele>-0.2</ele>
        <time>2021-08-04T10:27:35Z</time>
      </trkpt>
      <trkpt lat="47.58818" lon="-3.02854">
        <ele>-0.2</ele>
        <time>2021-08-04T10:27:36Z</time>
      </trkpt>
      <trkpt lat="47.58815" lon="-3.02851">
        <ele>-0.2</ele>
        <time>2021-08-04T10:27:37Z</time>
      </trkpt>
      <trkpt lat="47.58812" lon="-3.02849">
        <ele>-0.2</ele>
        <time>2021-08-04T10:27:38Z</time>
      </trkpt>
      <trkpt lat="47.58809" lon="-3.02846">
        <ele>-0.2</ele>
        <time>2021-08-04T10:27:39Z</time>
      </trkpt>
      <trkpt lat="47.58806" lon="-3.02844">
        <ele>-0.2</ele>
        <time>2021-08-04T10:27:40Z</time>
      </trkpt>
      <trkpt lat="47.58803" lon="-3.02841">
        <ele>-0.2</ele>
        <time>2021-08-04T10:27:41Z</time>
      </trkpt>
      <trkpt lat="47.588" lon="-3.02838">
        <ele>-0.2</ele>
        <time>2021-08-04T10:27:42Z</time>
      </trkpt>
      <trkpt lat="47.58797" lon="-3.02835">
        <ele>-0.2</ele>
        <time>2021-08-04T10:27:43Z</time>
      </trkpt>
      <trkpt lat="47.58794" lon="-3.02832">
        <ele>-0.2</ele>
        <time>2021-08-04T10:27:44Z</time>
      </trkpt>
      <trkpt lat="47.5879" lon="-3.02828">
        <ele>-0.2</ele>
        <time>2021-08-04T10:27:45Z</time>
      </trkpt>
      <trkpt lat="47.58787" lon="-3.02825">
        <ele>-0.2</ele>
        <time>2021-08-04T10:27:46Z</time>
      </trkpt>
      <trkpt lat="47.58783" lon="-3.0282">
        <ele>-0.2</ele>
        <time>2021-08-04T10:27:47Z</time>
      </trkpt>
      <trkpt lat="47.5878" lon="-3.02816">
        <ele>-0.2</ele>
        <time>2021-08-04T10:27:48Z</time>
      </trkpt>
      <trkpt lat="47.58776" lon="-3.02812">
        <ele>-0.2</ele>
        <time>2021-08-04T10:27:49Z</time>
      </trkpt>
      <trkpt lat="47.58773" lon="-3.02808">
        <ele>-0.2</ele>
        <time>2021-08-04T10:27:50Z</time>
      </trkpt>
      <trkpt lat="47.5877" lon="-3.02804">
        <ele>-0.2</ele>
        <time>2021-08-04T10:27:51Z</time>
      </trkpt>
      <trkpt lat="47.58766" lon="-3.02801">
        <ele>-0.2</ele>
        <time>2021-08-04T10:27:52Z</time>
      </trkpt>
      <trkpt lat="47.58763" lon="-3.02797">
        <ele>-0.2</ele>
        <time>2021-08-04T10:27:53Z</time>
      </trkpt>
      <trkpt lat="47.58761" lon="-3.02793">
        <ele>0.2</ele>
        <time>2021-08-04T10:27:54Z</time>
      </trkpt>
      <trkpt lat="47.58758" lon="-3.02789">
        <ele>0.2</ele>
        <time>2021-08-04T10:27:55Z</time>
      </trkpt>
      <trkpt lat="47.58755" lon="-3.02786">
        <ele>0.2</ele>
        <time>2021-08-04T10:27:56Z</time>
      </trkpt>
      <trkpt lat="47.58753" lon="-3.02783">
        <ele>0.2</ele>
        <time>2021-08-04T10:27:57Z</time>
      </trkpt>
      <trkpt lat="47.5875" lon="-3.02781">
        <ele>0.2</ele>
        <time>2021-08-04T10:27:58Z</time>
      </trkpt>
      <trkpt lat="47.58748" lon="-3.02778">
        <ele>0.2</ele>
        <time>2021-08-04T10:27:59Z</time>
      </trkpt>
      <trkpt lat="47.58745" lon="-3.02775">
        <ele>0.2</ele>
        <time>2021-08-04T10:28:00Z</time>
      </trkpt>
      <trkpt lat="47.58742" lon="-3.02772">
        <ele>0.2</ele>
        <time>2021-08-04T10:28:01Z</time>
      </trkpt>
      <trkpt lat="47.5874" lon="-3.02769">
        <ele>0.2</ele>
        <time>2021-08-04T10:28:02Z</time>
      </trkpt>
      <trkpt lat="47.58737" lon="-3.02766">
        <ele>0.2</ele>
        <time>2021-08-04T10:28:03Z</time>
      </trkpt>
      <trkpt lat="47.58734" lon="-3.02763">
        <ele>0.2</ele>
        <time>2021-08-04T10:28:04Z</time>
      </trkpt>
      <trkpt lat="47.58732" lon="-3.0276">
        <ele>0.2</ele>
        <time>2021-08-04T10:28:05Z</time>
      </trkpt>
      <trkpt lat="47.58729" lon="-3.02756">
        <ele>0.2</ele>
        <time>2021-08-04T10:28:06Z</time>
      </trkpt>
      <trkpt lat="47.58727" lon="-3.02753">
        <ele>0.2</ele>
        <time>2021-08-04T10:28:07Z</time>
      </trkpt>
      <trkpt lat="47.58726" lon="-3.02748">
        <ele>0.2</ele>
        <time>2021-08-04T10:28:08Z</time>
      </trkpt>
      <trkpt lat="47.58726" lon="-3.02744">
        <ele>0.2</ele>
        <time>2021-08-04T10:28:09Z</time>
      </trkpt>
      <trkpt lat="47.58726" lon="-3.02739">
        <ele>0.2</ele>
        <time>2021-08-04T10:28:10Z</time>
      </trkpt>
      <trkpt lat="47.58727" lon="-3.02736">
        <ele>0.2</ele>
        <time>2021-08-04T10:28:11Z</time>
      </trkpt>
      <trkpt lat="47.58728" lon="-3.02732">
        <ele>0.2</ele>
        <time>2021-08-04T10:28:12Z</time>
      </trkpt>
      <trkpt lat="47.58729" lon="-3.0273">
        <ele>0.2</ele>
        <time>2021-08-04T10:28:13Z</time>
      </trkpt>
      <trkpt lat="47.58729" lon="-3.02727">
        <ele>0.2</ele>
        <time>2021-08-04T10:28:14Z</time>
      </trkpt>
      <trkpt lat="47.5873" lon="-3.02725">
        <ele>0.2</ele>
        <time>2021-08-04T10:28:15Z</time>
      </trkpt>
      <trkpt lat="47.5873" lon="-3.02724">
        <ele>0.2</ele>
        <time>2021-08-04T10:28:16Z</time>
      </trkpt>
      <trkpt lat="47.5873" lon="-3.02721">
        <ele>0.2</ele>
        <time>2021-08-04T10:28:17Z</time>
      </trkpt>
      <trkpt lat="47.5873" lon="-3.02718">
        <ele>0.2</ele>
        <time>2021-08-04T10:28:18Z</time>
      </trkpt>
      <trkpt lat="47.5873" lon="-3.02715">
        <ele>0.2</ele>
        <time>2021-08-04T10:28:19Z</time>
      </trkpt>
      <trkpt lat="47.5873" lon="-3.02711">
        <ele>0.2</ele>
        <time>2021-08-04T10:28:20Z</time>
      </trkpt>
      <trkpt lat="47.5873" lon="-3.02708">
        <ele>0.2</ele>
        <time>2021-08-04T10:28:21Z</time>
      </trkpt>
      <trkpt lat="47.58731" lon="-3.02705">
        <ele>0.2</ele>
        <time>2021-08-04T10:28:22Z</time>
      </trkpt>
      <trkpt lat="47.58731" lon="-3.02702">
        <ele>0.2</ele>
        <time>2021-08-04T10:28:23Z</time>
      </trkpt>
      <trkpt lat="47.58731" lon="-3.027">
        <ele>0.2</ele>
        <time>2021-08-04T10:28:24Z</time>
      </trkpt>
      <trkpt lat="47.58732" lon="-3.02696">
        <ele>0.2</ele>
        <time>2021-08-04T10:28:25Z</time>
      </trkpt>
      <trkpt lat="47.58733" lon="-3.02694">
        <ele>0.2</ele>
        <time>2021-08-04T10:28:26Z</time>
      </trkpt>
      <trkpt lat="47.58733" lon="-3.02692">
        <ele>0.2</ele>
        <time>2021-08-04T10:28:27Z</time>
      </trkpt>
      <trkpt lat="47.58734" lon="-3.02691">
        <ele>0.2</ele>
        <time>2021-08-04T10:28:28Z</time>
      </trkpt>
      <trkpt lat="47.58735" lon="-3.02689">
        <ele>0.2</ele>
        <time>2021-08-04T10:28:29Z</time>
      </trkpt>
      <trkpt lat="47.58736" lon="-3.02688">
        <ele>0.2</ele>
        <time>2021-08-04T10:28:30Z</time>
      </trkpt>
      <trkpt lat="47.58737" lon="-3.02685">
        <ele>0.2</ele>
        <time>2021-08-04T10:28:31Z</time>
      </trkpt>
      <trkpt lat="47.58737" lon="-3.02683">
        <ele>0.2</ele>
        <time>2021-08-04T10:28:32Z</time>
      </trkpt>
      <trkpt lat="47.58737" lon="-3.0268">
        <ele>0.4</ele>
        <time>2021-08-04T10:28:33Z</time>
      </trkpt>
      <trkpt lat="47.58737" lon="-3.02678">
        <ele>0.4</ele>
        <time>2021-08-04T10:28:34Z</time>
      </trkpt>
      <trkpt lat="47.58737" lon="-3.02675">
        <ele>0.4</ele>
        <time>2021-08-04T10:28:35Z</time>
      </trkpt>
      <trkpt lat="47.58737" lon="-3.02673">
        <ele>0.4</ele>
        <time>2021-08-04T10:28:36Z</time>
      </trkpt>
      <trkpt lat="47.58736" lon="-3.02671">
        <ele>0.4</ele>
        <time>2021-08-04T10:28:37Z</time>
      </trkpt>
      <trkpt lat="47.58736" lon="-3.02669">
        <ele>0.4</ele>
        <time>2021-08-04T10:28:38Z</time>
      </trkpt>
      <trkpt lat="47.58736" lon="-3.02667">
        <ele>0.6</ele>
        <time>2021-08-04T10:28:39Z</time>
      </trkpt>
      <trkpt lat="47.58736" lon="-3.02666">
        <ele>0.6</ele>
        <time>2021-08-04T10:28:40Z</time>
      </trkpt>
      <trkpt lat="47.58736" lon="-3.02664">
        <ele>0.6</ele>
        <time>2021-08-04T10:28:41Z</time>
      </trkpt>
      <trkpt lat="47.58735" lon="-3.02662">
        <ele>0.6</ele>
        <time>2021-08-04T10:28:42Z</time>
      </trkpt>
      <trkpt lat="47.58734" lon="-3.02661">
        <ele>0.6</ele>
        <time>2021-08-04T10:28:43Z</time>
      </trkpt>
      <trkpt lat="47.58733" lon="-3.02659">
        <ele>0.6</ele>
        <time>2021-08-04T10:28:44Z</time>
      </trkpt>
      <trkpt lat="47.58732" lon="-3.02657">
        <ele>0.6</ele>
        <time>2021-08-04T10:28:45Z</time>
      </trkpt>
      <trkpt lat="47.58731" lon="-3.02656">
        <ele>0.6</ele>
        <time>2021-08-04T10:28:46Z</time>
      </trkpt>
      <trkpt lat="47.58729" lon="-3.02655">
        <ele>0.6</ele>
        <time>2021-08-04T10:28:47Z</time>
      </trkpt>
      <trkpt lat="47.58727" lon="-3.02653">
        <ele>0.6</ele>
        <time>2021-08-04T10:28:48Z</time>
      </trkpt>
      <trkpt lat="47.58726" lon="-3.02652">
        <ele>0.6</ele>
        <time>2021-08-04T10:28:49Z</time>
      </trkpt>
      <trkpt lat="47.58725" lon="-3.0265">
        <ele>0.6</ele>
        <time>2021-08-04T10:28:50Z</time>
      </trkpt>
      <trkpt lat="47.58725" lon="-3.02648">
        <ele>0.6</ele>
        <time>2021-08-04T10:28:51Z</time>
      </trkpt>
      <trkpt lat="47.58725" lon="-3.02646">
        <ele>0.6</ele>
        <time>2021-08-04T10:28:52Z</time>
      </trkpt>
      <trkpt lat="47.58725" lon="-3.02643">
        <ele>0.6</ele>
        <time>2021-08-04T10:28:53Z</time>
      </trkpt>
      <trkpt lat="47.58726" lon="-3.02641">
        <ele>0.6</ele>
        <time>2021-08-04T10:28:54Z</time>
      </trkpt>
      <trkpt lat="47.58726" lon="-3.02639">
        <ele>0.6</ele>
        <time>2021-08-04T10:28:55Z</time>
      </trkpt>
      <trkpt lat="47.58727" lon="-3.02637">
        <ele>0.6</ele>
        <time>2021-08-04T10:28:56Z</time>
      </trkpt>
      <trkpt lat="47.58727" lon="-3.02635">
        <ele>0.6</ele>
        <time>2021-08-04T10:28:57Z</time>
      </trkpt>
      <trkpt lat="47.58728" lon="-3.02633">
        <ele>0.6</ele>
        <time>2021-08-04T10:28:58Z</time>
      </trkpt>
      <trkpt lat="47.58729" lon="-3.02631">
        <ele>0.6</ele>
        <time>2021-08-04T10:28:59Z</time>
      </trkpt>
      <trkpt lat="47.5873" lon="-3.0263">
        <ele>0.6</ele>
        <time>2021-08-04T10:29:00Z</time>
      </trkpt>
      <trkpt lat="47.5873" lon="-3.02629">
        <ele>0.8</ele>
        <time>2021-08-04T10:29:01Z</time>
      </trkpt>
      <trkpt lat="47.58731" lon="-3.02627">
        <ele>0.8</ele>
        <time>2021-08-04T10:29:02Z</time>
      </trkpt>
      <trkpt lat="47.58731" lon="-3.02625">
        <ele>0.8</ele>
        <time>2021-08-04T10:29:03Z</time>
      </trkpt>
      <trkpt lat="47.58731" lon="-3.02624">
        <ele>0.8</ele>
        <time>2021-08-04T10:29:04Z</time>
      </trkpt>
      <trkpt lat="47.58732" lon="-3.02622">
        <ele>0.8</ele>
        <time>2021-08-04T10:29:05Z</time>
      </trkpt>
      <trkpt lat="47.58738" lon="-3.02606">
        <ele>1</ele>
        <time>2021-08-04T10:30:17Z</time>
      </trkpt>
      <trkpt lat="47.58739" lon="-3.02605">
        <ele>1</ele>
        <time>2021-08-04T10:30:18Z</time>
      </trkpt>
      <trkpt lat="47.58739" lon="-3.02603">
        <ele>1</ele>
        <time>2021-08-04T10:30:19Z</time>
      </trkpt>
      <trkpt lat="47.5874" lon="-3.02601">
        <ele>1</ele>
        <time>2021-08-04T10:30:20Z</time>
      </trkpt>
      <trkpt lat="47.58741" lon="-3.02599">
        <ele>1</ele>
        <time>2021-08-04T10:30:21Z</time>
      </trkpt>
      <trkpt lat="47.58741" lon="-3.02597">
        <ele>1</ele>
        <time>2021-08-04T10:30:22Z</time>
      </trkpt>
      <trkpt lat="47.58742" lon="-3.02595">
        <ele>1</ele>
        <time>2021-08-04T10:30:23Z</time>
      </trkpt>
      <trkpt lat="47.58743" lon="-3.02594">
        <ele>1</ele>
        <time>2021-08-04T10:30:24Z</time>
      </trkpt>
      <trkpt lat="47.58743" lon="-3.02592">
        <ele>1</ele>
        <time>2021-08-04T10:30:25Z</time>
      </trkpt>
      <trkpt lat="47.58744" lon="-3.02591">
        <ele>1</ele>
        <time>2021-08-04T10:30:26Z</time>
      </trkpt>
      <trkpt lat="47.58745" lon="-3.02589">
        <ele>0.8</ele>
        <time>2021-08-04T10:30:30Z</time>
      </trkpt>
      <trkpt lat="47.58745" lon="-3.02589">
        <ele>0.8</ele>
        <time>2021-08-04T10:30:31Z</time>
      </trkpt>
      <trkpt lat="47.58745" lon="-3.02588">
        <ele>0.8</ele>
        <time>2021-08-04T10:30:32Z</time>
      </trkpt>
      <trkpt lat="47.58746" lon="-3.02587">
        <ele>0.8</ele>
        <time>2021-08-04T10:30:33Z</time>
      </trkpt>
      <trkpt lat="47.58746" lon="-3.02585">
        <ele>0.8</ele>
        <time>2021-08-04T10:30:35Z</time>
      </trkpt>
      <trkpt lat="47.58747" lon="-3.02584">
        <ele>0.8</ele>
        <time>2021-08-04T10:30:36Z</time>
      </trkpt>
      <trkpt lat="47.58748" lon="-3.02583">
        <ele>0.8</ele>
        <time>2021-08-04T10:30:37Z</time>
      </trkpt>
      <trkpt lat="47.58768" lon="-3.02529">
        <ele>0.6</ele>
        <time>2021-08-04T10:32:40Z</time>
      </trkpt>
      <trkpt lat="47.58768" lon="-3.02527">
        <ele>0.6</ele>
        <time>2021-08-04T10:32:41Z</time>
      </trkpt>
      <trkpt lat="47.58769" lon="-3.02525">
        <ele>0.6</ele>
        <time>2021-08-04T10:32:42Z</time>
      </trkpt>
      <trkpt lat="47.58769" lon="-3.02524">
        <ele>0.6</ele>
        <time>2021-08-04T10:32:43Z</time>
      </trkpt>
      <trkpt lat="47.58769" lon="-3.02522">
        <ele>0.6</ele>
        <time>2021-08-04T10:32:44Z</time>
      </trkpt>
      <trkpt lat="47.5877" lon="-3.02521">
        <ele>0.6</ele>
        <time>2021-08-04T10:32:45Z</time>
      </trkpt>
      <trkpt lat="47.58771" lon="-3.0252">
        <ele>0.6</ele>
        <time>2021-08-04T10:32:46Z</time>
      </trkpt>
      <trkpt lat="47.58771" lon="-3.02518">
        <ele>0.6</ele>
        <time>2021-08-04T10:32:47Z</time>
      </trkpt>
      <trkpt lat="47.58777" lon="-3.02505">
        <ele>0.6</ele>
        <time>2021-08-04T10:33:22Z</time>
      </trkpt>
      <trkpt lat="47.58778" lon="-3.02503">
        <ele>0.6</ele>
        <time>2021-08-04T10:33:23Z</time>
      </trkpt>
      <trkpt lat="47.58779" lon="-3.02501">
        <ele>0.6</ele>
        <time>2021-08-04T10:33:24Z</time>
      </trkpt>
      <trkpt lat="47.5878" lon="-3.02499">
        <ele>0.6</ele>
        <time>2021-08-04T10:33:25Z</time>
      </trkpt>
      <trkpt lat="47.58781" lon="-3.02498">
        <ele>0.6</ele>
        <time>2021-08-04T10:33:26Z</time>
      </trkpt>
      <trkpt lat="47.58781" lon="-3.02497">
        <ele>0.8</ele>
        <time>2021-08-04T10:33:27Z</time>
      </trkpt>
      <trkpt lat="47.58781" lon="-3.02497">
        <ele>0.8</ele>
        <time>2021-08-04T10:33:28Z</time>
      </trkpt>
      <trkpt lat="47.58781" lon="-3.02496">
        <ele>0.8</ele>
        <time>2021-08-04T10:33:31Z</time>
      </trkpt>
      <trkpt lat="47.58781" lon="-3.02495">
        <ele>0.8</ele>
        <time>2021-08-04T10:33:32Z</time>
      </trkpt>
      <trkpt lat="47.58782" lon="-3.02494">
        <ele>0.8</ele>
        <time>2021-08-04T10:33:33Z</time>
      </trkpt>
      <trkpt lat="47.58783" lon="-3.02492">
        <ele>0.8</ele>
        <time>2021-08-04T10:33:34Z</time>
      </trkpt>
      <trkpt lat="47.58783" lon="-3.0249">
        <ele>0.8</ele>
        <time>2021-08-04T10:33:35Z</time>
      </trkpt>
      <trkpt lat="47.58784" lon="-3.02488">
        <ele>0.8</ele>
        <time>2021-08-04T10:33:36Z</time>
      </trkpt>
      <trkpt lat="47.58784" lon="-3.02487">
        <ele>0.8</ele>
        <time>2021-08-04T10:33:37Z</time>
      </trkpt>
      <trkpt lat="47.58784" lon="-3.02486">
        <ele>0.8</ele>
        <time>2021-08-04T10:33:38Z</time>
      </trkpt>
      <trkpt lat="47.58784" lon="-3.02485">
        <ele>0.8</ele>
        <time>2021-08-04T10:34:03Z</time>
      </trkpt>
      <trkpt lat="47.58784" lon="-3.02486">
        <ele>0.8</ele>
        <time>2021-08-04T10:34:04Z</time>
      </trkpt>
      <trkpt lat="47.58784" lon="-3.02486">
        <ele>0.8</ele>
        <time>2021-08-04T10:34:05Z</time>
      </trkpt>
      <trkpt lat="47.58786" lon="-3.02478">
        <ele>0.2</ele>
        <time>2021-08-04T10:35:19Z</time>
      </trkpt>
      <trkpt lat="47.58787" lon="-3.02476">
        <ele>0.2</ele>
        <time>2021-08-04T10:35:20Z</time>
      </trkpt>
      <trkpt lat="47.58787" lon="-3.02475">
        <ele>0.2</ele>
        <time>2021-08-04T10:35:21Z</time>
      </trkpt>
      <trkpt lat="47.58788" lon="-3.02473">
        <ele>0.2</ele>
        <time>2021-08-04T10:35:22Z</time>
      </trkpt>
      <trkpt lat="47.58788" lon="-3.02471">
        <ele>0.2</ele>
        <time>2021-08-04T10:35:23Z</time>
      </trkpt>
      <trkpt lat="47.58789" lon="-3.02469">
        <ele>0.2</ele>
        <time>2021-08-04T10:35:24Z</time>
      </trkpt>
      <trkpt lat="47.58789" lon="-3.02468">
        <ele>0.2</ele>
        <time>2021-08-04T10:35:25Z</time>
      </trkpt>
      <trkpt lat="47.5879" lon="-3.02465">
        <ele>0.2</ele>
        <time>2021-08-04T10:35:31Z</time>
      </trkpt>
      <trkpt lat="47.5879" lon="-3.02465">
        <ele>0.2</ele>
        <time>2021-08-04T10:35:32Z</time>
      </trkpt>
      <trkpt lat="47.5879" lon="-3.02465">
        <ele>0.2</ele>
        <time>2021-08-04T10:35:33Z</time>
      </trkpt>
      <trkpt lat="47.5879" lon="-3.02465">
        <ele>0.2</ele>
        <time>2021-08-04T10:35:34Z</time>
      </trkpt>
      <trkpt lat="47.58776" lon="-3.02504">
        <ele>0.2</ele>
        <time>2021-08-04T10:36:49Z</time>
      </trkpt>
      <trkpt lat="47.58775" lon="-3.02506">
        <ele>0.2</ele>
        <time>2021-08-04T10:36:50Z</time>
      </trkpt>
      <trkpt lat="47.58775" lon="-3.02508">
        <ele>0.2</ele>
        <time>2021-08-04T10:36:51Z</time>
      </trkpt>
      <trkpt lat="47.58774" lon="-3.02511">
        <ele>0.2</ele>
        <time>2021-08-04T10:36:52Z</time>
      </trkpt>
      <trkpt lat="47.58772" lon="-3.02514">
        <ele>0.2</ele>
        <time>2021-08-04T10:36:53Z</time>
      </trkpt>
      <trkpt lat="47.58771" lon="-3.02516">
        <ele>0.2</ele>
        <time>2021-08-04T10:36:54Z</time>
      </trkpt>
      <trkpt lat="47.5877" lon="-3.02519">
        <ele>0.2</ele>
        <time>2021-08-04T10:36:55Z</time>
      </trkpt>
      <trkpt lat="47.58769" lon="-3.02521">
        <ele>0.2</ele>
        <time>2021-08-04T10:36:56Z</time>
      </trkpt>
      <trkpt lat="47.58768" lon="-3.02524">
        <ele>0.2</ele>
        <time>2021-08-04T10:36:57Z</time>
      </trkpt>
      <trkpt lat="47.58767" lon="-3.02527">
        <ele>0.2</ele>
        <time>2021-08-04T10:36:58Z</time>
      </trkpt>
      <trkpt lat="47.58766" lon="-3.0253">
        <ele>0.2</ele>
        <time>2021-08-04T10:36:59Z</time>
      </trkpt>
      <trkpt lat="47.58764" lon="-3.02533">
        <ele>0.2</ele>
        <time>2021-08-04T10:37:00Z</time>
      </trkpt>
      <trkpt lat="47.58763" lon="-3.02536">
        <ele>0.2</ele>
        <time>2021-08-04T10:37:01Z</time>
      </trkpt>
      <trkpt lat="47.58762" lon="-3.02539">
        <ele>0.2</ele>
        <time>2021-08-04T10:37:02Z</time>
      </trkpt>
      <trkpt lat="47.58761" lon="-3.02542">
        <ele>0.2</ele>
        <time>2021-08-04T10:37:03Z</time>
      </trkpt>
      <trkpt lat="47.5876" lon="-3.02545">
        <ele>0.2</ele>
        <time>2021-08-04T10:37:04Z</time>
      </trkpt>
      <trkpt lat="47.58759" lon="-3.02547">
        <ele>0.2</ele>
        <time>2021-08-04T10:37:05Z</time>
      </trkpt>
      <trkpt lat="47.58758" lon="-3.02549">
        <ele>0.2</ele>
        <time>2021-08-04T10:37:06Z</time>
      </trkpt>
      <trkpt lat="47.58757" lon="-3.0255">
        <ele>0.2</ele>
        <time>2021-08-04T10:37:07Z</time>
      </trkpt>
      <trkpt lat="47.58756" lon="-3.02552">
        <ele>0.2</ele>
        <time>2021-08-04T10:37:08Z</time>
      </trkpt>
      <trkpt lat="47.58755" lon="-3.02555">
        <ele>0.2</ele>
        <time>2021-08-04T10:37:09Z</time>
      </trkpt>
      <trkpt lat="47.58754" lon="-3.02558">
        <ele>0.2</ele>
        <time>2021-08-04T10:37:10Z</time>
      </trkpt>
      <trkpt lat="47.58753" lon="-3.02561">
        <ele>0.2</ele>
        <time>2021-08-04T10:37:11Z</time>
      </trkpt>
      <trkpt lat="47.58752" lon="-3.02563">
        <ele>0.2</ele>
        <time>2021-08-04T10:37:12Z</time>
      </trkpt>
      <trkpt lat="47.58751" lon="-3.02566">
        <ele>0.2</ele>
        <time>2021-08-04T10:37:13Z</time>
      </trkpt>
      <trkpt lat="47.5875" lon="-3.02569">
        <ele>0.2</ele>
        <time>2021-08-04T10:37:14Z</time>
      </trkpt>
      <trkpt lat="47.58749" lon="-3.02571">
        <ele>0.2</ele>
        <time>2021-08-04T10:37:15Z</time>
      </trkpt>
      <trkpt lat="47.58748" lon="-3.02574">
        <ele>0.2</ele>
        <time>2021-08-04T10:37:16Z</time>
      </trkpt>
      <trkpt lat="47.58748" lon="-3.02576">
        <ele>0.2</ele>
        <time>2021-08-04T10:37:17Z</time>
      </trkpt>
      <trkpt lat="47.58747" lon="-3.02578">
        <ele>0.2</ele>
        <time>2021-08-04T10:37:18Z</time>
      </trkpt>
      <trkpt lat="47.58746" lon="-3.0258">
        <ele>0.4</ele>
        <time>2021-08-04T10:37:19Z</time>
      </trkpt>
      <trkpt lat="47.58745" lon="-3.02582">
        <ele>0.4</ele>
        <time>2021-08-04T10:37:20Z</time>
      </trkpt>
      <trkpt lat="47.58745" lon="-3.02583">
        <ele>0.4</ele>
        <time>2021-08-04T10:37:21Z</time>
      </trkpt>
      <trkpt lat="47.58744" lon="-3.02585">
        <ele>0.4</ele>
        <time>2021-08-04T10:37:22Z</time>
      </trkpt>
      <trkpt lat="47.58743" lon="-3.02586">
        <ele>0.4</ele>
        <time>2021-08-04T10:37:23Z</time>
      </trkpt>
      <trkpt lat="47.58741" lon="-3.02588">
        <ele>0.4</ele>
        <time>2021-08-04T10:37:24Z</time>
      </trkpt>
      <trkpt lat="47.5874" lon="-3.02591">
        <ele>0.4</ele>
        <time>2021-08-04T10:37:25Z</time>
      </trkpt>
      <trkpt lat="47.58739" lon="-3.02594">
        <ele>0.4</ele>
        <time>2021-08-04T10:37:26Z</time>
      </trkpt>
      <trkpt lat="47.58738" lon="-3.02597">
        <ele>0.4</ele>
        <time>2021-08-04T10:37:27Z</time>
      </trkpt>
      <trkpt lat="47.58737" lon="-3.026">
        <ele>0.4</ele>
        <time>2021-08-04T10:37:28Z</time>
      </trkpt>
      <trkpt lat="47.58737" lon="-3.02603">
        <ele>0.4</ele>
        <time>2021-08-04T10:37:29Z</time>
      </trkpt>
      <trkpt lat="47.58736" lon="-3.02605">
        <ele>0.6</ele>
        <time>2021-08-04T10:37:30Z</time>
      </trkpt>
      <trkpt lat="47.58735" lon="-3.02608">
        <ele>0.6</ele>
        <time>2021-08-04T10:37:31Z</time>
      </trkpt>
      <trkpt lat="47.58734" lon="-3.0261">
        <ele>0.6</ele>
        <time>2021-08-04T10:37:32Z</time>
      </trkpt>
      <trkpt lat="47.58733" lon="-3.02612">
        <ele>0.6</ele>
        <time>2021-08-04T10:37:33Z</time>
      </trkpt>
      <trkpt lat="47.58732" lon="-3.02615">
        <ele>0.6</ele>
        <time>2021-08-04T10:37:34Z</time>
      </trkpt>
      <trkpt lat="47.58731" lon="-3.02617">
        <ele>0.4</ele>
        <time>2021-08-04T10:37:35Z</time>
      </trkpt>
      <trkpt lat="47.5873" lon="-3.02619">
        <ele>0.4</ele>
        <time>2021-08-04T10:37:36Z</time>
      </trkpt>
      <trkpt lat="47.58728" lon="-3.02621">
        <ele>0.4</ele>
        <time>2021-08-04T10:37:37Z</time>
      </trkpt>
      <trkpt lat="47.58728" lon="-3.02624">
        <ele>0.4</ele>
        <time>2021-08-04T10:37:38Z</time>
      </trkpt>
      <trkpt lat="47.58727" lon="-3.02626">
        <ele>0.4</ele>
        <time>2021-08-04T10:37:39Z</time>
      </trkpt>
      <trkpt lat="47.58726" lon="-3.02629">
        <ele>0.4</ele>
        <time>2021-08-04T10:37:40Z</time>
      </trkpt>
      <trkpt lat="47.58725" lon="-3.02631">
        <ele>0.4</ele>
        <time>2021-08-04T10:37:41Z</time>
      </trkpt>
      <trkpt lat="47.58724" lon="-3.02633">
        <ele>0.4</ele>
        <time>2021-08-04T10:37:42Z</time>
      </trkpt>
      <trkpt lat="47.58724" lon="-3.02636">
        <ele>0.2</ele>
        <time>2021-08-04T10:37:43Z</time>
      </trkpt>
      <trkpt lat="47.58723" lon="-3.02638">
        <ele>0.2</ele>
        <time>2021-08-04T10:37:44Z</time>
      </trkpt>
      <trkpt lat="47.58721" lon="-3.0264">
        <ele>0.2</ele>
        <time>2021-08-04T10:37:45Z</time>
      </trkpt>
      <trkpt lat="47.58721" lon="-3.02643">
        <ele>0.2</ele>
        <time>2021-08-04T10:37:46Z</time>
      </trkpt>
      <trkpt lat="47.58721" lon="-3.02645">
        <ele>0.2</ele>
        <time>2021-08-04T10:37:47Z</time>
      </trkpt>
      <trkpt lat="47.58722" lon="-3.02647">
        <ele>0.2</ele>
        <time>2021-08-04T10:37:48Z</time>
      </trkpt>
      <trkpt lat="47.58723" lon="-3.02648">
        <ele>0.2</ele>
        <time>2021-08-04T10:37:49Z</time>
      </trkpt>
      <trkpt lat="47.58725" lon="-3.02649">
        <ele>0.2</ele>
        <time>2021-08-04T10:37:50Z</time>
      </trkpt>
      <trkpt lat="47.58726" lon="-3.0265">
        <ele>0.2</ele>
        <time>2021-08-04T10:37:51Z</time>
      </trkpt>
      <trkpt lat="47.58728" lon="-3.02651">
        <ele>0.2</ele>
        <time>2021-08-04T10:37:52Z</time>
      </trkpt>
      <trkpt lat="47.58729" lon="-3.02653">
        <ele>0.2</ele>
        <time>2021-08-04T10:37:53Z</time>
      </trkpt>
      <trkpt lat="47.58731" lon="-3.02655">
        <ele>0.2</ele>
        <time>2021-08-04T10:37:54Z</time>
      </trkpt>
      <trkpt lat="47.58733" lon="-3.02658">
        <ele>0.2</ele>
        <time>2021-08-04T10:37:55Z</time>
      </trkpt>
      <trkpt lat="47.58734" lon="-3.02661">
        <ele>-0.2</ele>
        <time>2021-08-04T10:37:56Z</time>
      </trkpt>
      <trkpt lat="47.58735" lon="-3.02664">
        <ele>-0.2</ele>
        <time>2021-08-04T10:37:57Z</time>
      </trkpt>
      <trkpt lat="47.58736" lon="-3.02666">
        <ele>-0.2</ele>
        <time>2021-08-04T10:37:58Z</time>
      </trkpt>
      <trkpt lat="47.58738" lon="-3.02669">
        <ele>-0.4</ele>
        <time>2021-08-04T10:37:59Z</time>
      </trkpt>
      <trkpt lat="47.5874" lon="-3.02672">
        <ele>-0.4</ele>
        <time>2021-08-04T10:38:00Z</time>
      </trkpt>
      <trkpt lat="47.58742" lon="-3.02675">
        <ele>-0.4</ele>
        <time>2021-08-04T10:38:01Z</time>
      </trkpt>
      <trkpt lat="47.58743" lon="-3.02679">
        <ele>-0.4</ele>
        <time>2021-08-04T10:38:02Z</time>
      </trkpt>
      <trkpt lat="47.58745" lon="-3.02683">
        <ele>-0.6</ele>
        <time>2021-08-04T10:38:03Z</time>
      </trkpt>
      <trkpt lat="47.58746" lon="-3.02687">
        <ele>-0.6</ele>
        <time>2021-08-04T10:38:04Z</time>
      </trkpt>
      <trkpt lat="47.58747" lon="-3.0269">
        <ele>-0.6</ele>
        <time>2021-08-04T10:38:05Z</time>
      </trkpt>
      <trkpt lat="47.58749" lon="-3.02693">
        <ele>-0.6</ele>
        <time>2021-08-04T10:38:06Z</time>
      </trkpt>
      <trkpt lat="47.58751" lon="-3.02696">
        <ele>-0.8</ele>
        <time>2021-08-04T10:38:07Z</time>
      </trkpt>
      <trkpt lat="47.58752" lon="-3.02699">
        <ele>-0.8</ele>
        <time>2021-08-04T10:38:08Z</time>
      </trkpt>
      <trkpt lat="47.58753" lon="-3.02702">
        <ele>-0.8</ele>
        <time>2021-08-04T10:38:09Z</time>
      </trkpt>
      <trkpt lat="47.58754" lon="-3.02706">
        <ele>-0.8</ele>
        <time>2021-08-04T10:38:10Z</time>
      </trkpt>
      <trkpt lat="47.58755" lon="-3.02709">
        <ele>-0.8</ele>
        <time>2021-08-04T10:38:11Z</time>
      </trkpt>
      <trkpt lat="47.58756" lon="-3.02712">
        <ele>-0.8</ele>
        <time>2021-08-04T10:38:12Z</time>
      </trkpt>
      <trkpt lat="47.58757" lon="-3.02715">
        <ele>-0.8</ele>
        <time>2021-08-04T10:38:13Z</time>
      </trkpt>
      <trkpt lat="47.58758" lon="-3.02718">
        <ele>-0.8</ele>
        <time>2021-08-04T10:38:14Z</time>
      </trkpt>
      <trkpt lat="47.58759" lon="-3.0272">
        <ele>-0.8</ele>
        <time>2021-08-04T10:38:15Z</time>
      </trkpt>
      <trkpt lat="47.5876" lon="-3.02722">
        <ele>-0.8</ele>
        <time>2021-08-04T10:38:16Z</time>
      </trkpt>
      <trkpt lat="47.58761" lon="-3.02724">
        <ele>-0.8</ele>
        <time>2021-08-04T10:38:17Z</time>
      </trkpt>
      <trkpt lat="47.58761" lon="-3.02726">
        <ele>-1</ele>
        <time>2021-08-04T10:38:18Z</time>
      </trkpt>
      <trkpt lat="47.58761" lon="-3.02728">
        <ele>-1</ele>
        <time>2021-08-04T10:38:19Z</time>
      </trkpt>
      <trkpt lat="47.5876" lon="-3.0273">
        <ele>-0.8</ele>
        <time>2021-08-04T10:38:20Z</time>
      </trkpt>
      <trkpt lat="47.5876" lon="-3.02732">
        <ele>-0.6</ele>
        <time>2021-08-04T10:38:21Z</time>
      </trkpt>
      <trkpt lat="47.5876" lon="-3.02732">
        <ele>-0.6</ele>
        <time>2021-08-04T10:38:22Z</time>
      </trkpt>
      <trkpt lat="47.5876" lon="-3.02733">
        <ele>-0.4</ele>
        <time>2021-08-04T10:38:23Z</time>
      </trkpt>
      <trkpt lat="47.5876" lon="-3.02734">
        <ele>-0.4</ele>
        <time>2021-08-04T10:38:33Z</time>
      </trkpt>
      <trkpt lat="47.5876" lon="-3.02734">
        <ele>-0.4</ele>
        <time>2021-08-04T10:38:34Z</time>
      </trkpt>
      <trkpt lat="47.5876" lon="-3.02734">
        <ele>0.2</ele>
        <time>2021-08-04T10:38:35Z</time>
      </trkpt>
      <trkpt lat="47.5876" lon="-3.02734">
        <ele>0.2</ele>
        <time>2021-08-04T10:38:36Z</time>
      </trkpt>
      <trkpt lat="47.5876" lon="-3.02729">
        <ele>-3.8</ele>
        <time>2021-08-04T11:26:05Z</time>
      </trkpt>
      <trkpt lat="47.58761" lon="-3.02728">
        <ele>-3.8</ele>
        <time>2021-08-04T11:26:06Z</time>
      </trkpt>
      <trkpt lat="47.58763" lon="-3.02727">
        <ele>-3.8</ele>
        <time>2021-08-04T11:26:07Z</time>
      </trkpt>
      <trkpt lat="47.58765" lon="-3.02726">
        <ele>-4</ele>
        <time>2021-08-04T11:26:08Z</time>
      </trkpt>
      <trkpt lat="47.58767" lon="-3.02726">
        <ele>-4</ele>
        <time>2021-08-04T11:26:09Z</time>
      </trkpt>
      <trkpt lat="47.5877" lon="-3.02727">
        <ele>-4</ele>
        <time>2021-08-04T11:26:10Z</time>
      </trkpt>
      <trkpt lat="47.58773" lon="-3.02729">
        <ele>-4</ele>
        <time>2021-08-04T11:26:11Z</time>
      </trkpt>
      <trkpt lat="47.58775" lon="-3.02731">
        <ele>-4</ele>
        <time>2021-08-04T11:26:12Z</time>
      </trkpt>
      <trkpt lat="47.58778" lon="-3.02733">
        <ele>-4</ele>
        <time>2021-08-04T11:26:13Z</time>
      </trkpt>
      <trkpt lat="47.58781" lon="-3.02736">
        <ele>-4.2</ele>
        <time>2021-08-04T11:26:14Z</time>
      </trkpt>
      <trkpt lat="47.58784" lon="-3.02738">
        <ele>-4.4</ele>
        <time>2021-08-04T11:26:15Z</time>
      </trkpt>
      <trkpt lat="47.58787" lon="-3.0274">
        <ele>-4.6</ele>
        <time>2021-08-04T11:26:16Z</time>
      </trkpt>
      <trkpt lat="47.5879" lon="-3.02743">
        <ele>-5</ele>
        <time>2021-08-04T11:26:17Z</time>
      </trkpt>
      <trkpt lat="47.58793" lon="-3.02745">
        <ele>-5</ele>
        <time>2021-08-04T11:26:18Z</time>
      </trkpt>
      <trkpt lat="47.58796" lon="-3.02747">
        <ele>-5.2</ele>
        <time>2021-08-04T11:26:19Z</time>
      </trkpt>
      <trkpt lat="47.58798" lon="-3.02749">
        <ele>-5.2</ele>
        <time>2021-08-04T11:26:20Z</time>
      </trkpt>
      <trkpt lat="47.58801" lon="-3.02752">
        <ele>-5.2</ele>
        <time>2021-08-04T11:26:21Z</time>
      </trkpt>
      <trkpt lat="47.58803" lon="-3.02755">
        <ele>-5.2</ele>
        <time>2021-08-04T11:26:22Z</time>
      </trkpt>
      <trkpt lat="47.58806" lon="-3.02758">
        <ele>-5.2</ele>
        <time>2021-08-04T11:26:23Z</time>
      </trkpt>
      <trkpt lat="47.58809" lon="-3.02761">
        <ele>-5.2</ele>
        <time>2021-08-04T11:26:24Z</time>
      </trkpt>
      <trkpt lat="47.58811" lon="-3.02762">
        <ele>-5.2</ele>
        <time>2021-08-04T11:26:25Z</time>
      </trkpt>
      <trkpt lat="47.58814" lon="-3.02764">
        <ele>-5.2</ele>
        <time>2021-08-04T11:26:26Z</time>
      </trkpt>
      <trkpt lat="47.58816" lon="-3.02766">
        <ele>-5.2</ele>
        <time>2021-08-04T11:26:27Z</time>
      </trkpt>
      <trkpt lat="47.58818" lon="-3.02767">
        <ele>-5.2</ele>
        <time>2021-08-04T11:26:28Z</time>
      </trkpt>
      <trkpt lat="47.58821" lon="-3.02769">
        <ele>-5.2</ele>
        <time>2021-08-04T11:26:29Z</time>
      </trkpt>
      <trkpt lat="47.58824" lon="-3.0277">
        <ele>-5.2</ele>
        <time>2021-08-04T11:26:30Z</time>
      </trkpt>
      <trkpt lat="47.58827" lon="-3.02772">
        <ele>-5.2</ele>
        <time>2021-08-04T11:26:31Z</time>
      </trkpt>
      <trkpt lat="47.58829" lon="-3.02774">
        <ele>-5.2</ele>
        <time>2021-08-04T11:26:32Z</time>
      </trkpt>
      <trkpt lat="47.58832" lon="-3.02777">
        <ele>-5.2</ele>
        <time>2021-08-04T11:26:33Z</time>
      </trkpt>
      <trkpt lat="47.58835" lon="-3.0278">
        <ele>-5.2</ele>
        <time>2021-08-04T11:26:34Z</time>
      </trkpt>
      <trkpt lat="47.58838" lon="-3.02782">
        <ele>-5.2</ele>
        <time>2021-08-04T11:26:35Z</time>
      </trkpt>
      <trkpt lat="47.58841" lon="-3.02784">
        <ele>-5.4</ele>
        <time>2021-08-04T11:26:36Z</time>
      </trkpt>
      <trkpt lat="47.58844" lon="-3.02787">
        <ele>-5.4</ele>
        <time>2021-08-04T11:26:37Z</time>
      </trkpt>
      <trkpt lat="47.58847" lon="-3.02789">
        <ele>-5.6</ele>
        <time>2021-08-04T11:26:38Z</time>
      </trkpt>
      <trkpt lat="47.5885" lon="-3.02792">
        <ele>-5.8</ele>
        <time>2021-08-04T11:26:39Z</time>
      </trkpt>
      <trkpt lat="47.58853" lon="-3.02794">
        <ele>-6</ele>
        <time>2021-08-04T11:26:40Z</time>
      </trkpt>
      <trkpt lat="47.58856" lon="-3.02797">
        <ele>-6</ele>
        <time>2021-08-04T11:26:41Z</time>
      </trkpt>
      <trkpt lat="47.58859" lon="-3.028">
        <ele>-6</ele>
        <time>2021-08-04T11:26:42Z</time>
      </trkpt>
      <trkpt lat="47.58862" lon="-3.02802">
        <ele>-6.2</ele>
        <time>2021-08-04T11:26:43Z</time>
      </trkpt>
      <trkpt lat="47.58866" lon="-3.02805">
        <ele>-6.2</ele>
        <time>2021-08-04T11:26:44Z</time>
      </trkpt>
      <trkpt lat="47.58869" lon="-3.02808">
        <ele>-6.2</ele>
        <time>2021-08-04T11:26:45Z</time>
      </trkpt>
      <trkpt lat="47.58872" lon="-3.02811">
        <ele>-6.2</ele>
        <time>2021-08-04T11:26:46Z</time>
      </trkpt>
      <trkpt lat="47.58875" lon="-3.02813">
        <ele>-6.4</ele>
        <time>2021-08-04T11:26:47Z</time>
      </trkpt>
      <trkpt lat="47.58878" lon="-3.02816">
        <ele>-6.4</ele>
        <time>2021-08-04T11:26:48Z</time>
      </trkpt>
      <trkpt lat="47.58881" lon="-3.02818">
        <ele>-6.4</ele>
        <time>2021-08-04T11:26:49Z</time>
      </trkpt>
      <trkpt lat="47.58884" lon="-3.02821">
        <ele>-6.4</ele>
        <time>2021-08-04T11:26:50Z</time>
      </trkpt>
      <trkpt lat="47.58887" lon="-3.02823">
        <ele>-6.4</ele>
        <time>2021-08-04T11:26:51Z</time>
      </trkpt>
      <trkpt lat="47.58889" lon="-3.02825">
        <ele>-6.4</ele>
        <time>2021-08-04T11:26:52Z</time>
      </trkpt>
      <trkpt lat="47.58892" lon="-3.02827">
        <ele>-6.4</ele>
        <time>2021-08-04T11:26:53Z</time>
      </trkpt>
      <trkpt lat="47.58895" lon="-3.02829">
        <ele>-6.4</ele>
        <time>2021-08-04T11:26:54Z</time>
      </trkpt>
      <trkpt lat="47.58897" lon="-3.02831">
        <ele>-6.4</ele>
        <time>2021-08-04T11:26:55Z</time>
      </trkpt>
      <trkpt lat="47.589" lon="-3.02833">
        <ele>-6.4</ele>
        <time>2021-08-04T11:26:56Z</time>
      </trkpt>
      <trkpt lat="47.58902" lon="-3.02835">
        <ele>-6.2</ele>
        <time>2021-08-04T11:26:57Z</time>
      </trkpt>
      <trkpt lat="47.58905" lon="-3.02837">
        <ele>-6.2</ele>
        <time>2021-08-04T11:26:58Z</time>
      </trkpt>
      <trkpt lat="47.58907" lon="-3.02839">
        <ele>-6.2</ele>
        <time>2021-08-04T11:26:59Z</time>
      </trkpt>
      <trkpt lat="47.5891" lon="-3.0284">
        <ele>-6.2</ele>
        <time>2021-08-04T11:27:00Z</time>
      </trkpt>
      <trkpt lat="47.58913" lon="-3.02842">
        <ele>-6.2</ele>
        <time>2021-08-04T11:27:01Z</time>
      </trkpt>
      <trkpt lat="47.58916" lon="-3.02844">
        <ele>-6</ele>
        <time>2021-08-04T11:27:02Z</time>
      </trkpt>
      <trkpt lat="47.58919" lon="-3.02846">
        <ele>-6</ele>
        <time>2021-08-04T11:27:03Z</time>
      </trkpt>
      <trkpt lat="47.58921" lon="-3.02847">
        <ele>-6</ele>
        <time>2021-08-04T11:27:04Z</time>
      </trkpt>
      <trkpt lat="47.58924" lon="-3.02848">
        <ele>-6</ele>
        <time>2021-08-04T11:27:05Z</time>
      </trkpt>
      <trkpt lat="47.58927" lon="-3.02849">
        <ele>-5.8</ele>
        <time>2021-08-04T11:27:06Z</time>
      </trkpt>
      <trkpt lat="47.5893" lon="-3.0285">
        <ele>-5.8</ele>
        <time>2021-08-04T11:27:07Z</time>
      </trkpt>
      <trkpt lat="47.58932" lon="-3.02852">
        <ele>-5.6</ele>
        <time>2021-08-04T11:27:08Z</time>
      </trkpt>
      <trkpt lat="47.58935" lon="-3.02853">
        <ele>-5.4</ele>
        <time>2021-08-04T11:27:09Z</time>
      </trkpt>
      <trkpt lat="47.58938" lon="-3.02854">
        <ele>-5.6</ele>
        <time>2021-08-04T11:27:10Z</time>
      </trkpt>
      <trkpt lat="47.58941" lon="-3.02855">
        <ele>-5.4</ele>
        <time>2021-08-04T11:27:11Z</time>
      </trkpt>
      <trkpt lat="47.58944" lon="-3.02856">
        <ele>-5.4</ele>
        <time>2021-08-04T11:27:12Z</time>
      </trkpt>
      <trkpt lat="47.58946" lon="-3.02856">
        <ele>-5.4</ele>
        <time>2021-08-04T11:27:13Z</time>
      </trkpt>
      <trkpt lat="47.58949" lon="-3.02856">
        <ele>-5.4</ele>
        <time>2021-08-04T11:27:14Z</time>
      </trkpt>
      <trkpt lat="47.58952" lon="-3.02857">
        <ele>-5.2</ele>
        <time>2021-08-04T11:27:15Z</time>
      </trkpt>
      <trkpt lat="47.58955" lon="-3.02857">
        <ele>-5.2</ele>
        <time>2021-08-04T11:27:16Z</time>
      </trkpt>
      <trkpt lat="47.58959" lon="-3.02857">
        <ele>-5.2</ele>
        <time>2021-08-04T11:27:17Z</time>
      </trkpt>
      <trkpt lat="47.58962" lon="-3.02857">
        <ele>-5.2</ele>
        <time>2021-08-04T11:27:18Z</time>
      </trkpt>
      <trkpt lat="47.58964" lon="-3.02857">
        <ele>-5.2</ele>
        <time>2021-08-04T11:27:19Z</time>
      </trkpt>
      <trkpt lat="47.58967" lon="-3.02856">
        <ele>-5.2</ele>
        <time>2021-08-04T11:27:20Z</time>
      </trkpt>
      <trkpt lat="47.5897" lon="-3.02856">
        <ele>-5.2</ele>
        <time>2021-08-04T11:27:21Z</time>
      </trkpt>
      <trkpt lat="47.58973" lon="-3.02857">
        <ele>-5.2</ele>
        <time>2021-08-04T11:27:22Z</time>
      </trkpt>
      <trkpt lat="47.58975" lon="-3.02858">
        <ele>-5.2</ele>
        <time>2021-08-04T11:27:23Z</time>
      </trkpt>
      <trkpt lat="47.58977" lon="-3.0286">
        <ele>-5</ele>
        <time>2021-08-04T11:27:24Z</time>
      </trkpt>
      <trkpt lat="47.58978" lon="-3.02864">
        <ele>-5</ele>
        <time>2021-08-04T11:27:25Z</time>
      </trkpt>
      <trkpt lat="47.58978" lon="-3.02867">
        <ele>-5</ele>
        <time>2021-08-04T11:27:26Z</time>
      </trkpt>
      <trkpt lat="47.58978" lon="-3.0287">
        <ele>-5</ele>
        <time>2021-08-04T11:27:27Z</time>
      </trkpt>
      <trkpt lat="47.58978" lon="-3.02873">
        <ele>-5</ele>
        <time>2021-08-04T11:27:28Z</time>
      </trkpt>
      <trkpt lat="47.58978" lon="-3.02876">
        <ele>-4.6</ele>
        <time>2021-08-04T11:27:29Z</time>
      </trkpt>
      <trkpt lat="47.58978" lon="-3.02878">
        <ele>-4.6</ele>
        <time>2021-08-04T11:27:30Z</time>
      </trkpt>
      <trkpt lat="47.58978" lon="-3.02881">
        <ele>-4.6</ele>
        <time>2021-08-04T11:27:31Z</time>
      </trkpt>
      <trkpt lat="47.58978" lon="-3.02883">
        <ele>-4.6</ele>
        <time>2021-08-04T11:27:32Z</time>
      </trkpt>
      <trkpt lat="47.58978" lon="-3.02885">
        <ele>-4.6</ele>
        <time>2021-08-04T11:27:33Z</time>
      </trkpt>
      <trkpt lat="47.58979" lon="-3.02887">
        <ele>-4.6</ele>
        <time>2021-08-04T11:27:34Z</time>
      </trkpt>
      <trkpt lat="47.5898" lon="-3.02888">
        <ele>-4.4</ele>
        <time>2021-08-04T11:27:35Z</time>
      </trkpt>
      <trkpt lat="47.58982" lon="-3.02889">
        <ele>-4.4</ele>
        <time>2021-08-04T11:27:36Z</time>
      </trkpt>
      <trkpt lat="47.58983" lon="-3.02888">
        <ele>-4.4</ele>
        <time>2021-08-04T11:27:37Z</time>
      </trkpt>
      <trkpt lat="47.58985" lon="-3.02888">
        <ele>-4.2</ele>
        <time>2021-08-04T11:27:38Z</time>
      </trkpt>
      <trkpt lat="47.58988" lon="-3.02888">
        <ele>-4.2</ele>
        <time>2021-08-04T11:27:39Z</time>
      </trkpt>
      <trkpt lat="47.58991" lon="-3.02888">
        <ele>-4.2</ele>
        <time>2021-08-04T11:27:40Z</time>
      </trkpt>
      <trkpt lat="47.58995" lon="-3.02887">
        <ele>-4.2</ele>
        <time>2021-08-04T11:27:41Z</time>
      </trkpt>
      <trkpt lat="47.58998" lon="-3.02887">
        <ele>-4.2</ele>
        <time>2021-08-04T11:27:42Z</time>
      </trkpt>
      <trkpt lat="47.59002" lon="-3.02886">
        <ele>-4.2</ele>
        <time>2021-08-04T11:27:43Z</time>
      </trkpt>
      <trkpt lat="47.59005" lon="-3.02885">
        <ele>-4.2</ele>
        <time>2021-08-04T11:27:44Z</time>
      </trkpt>
      <trkpt lat="47.59009" lon="-3.02884">
        <ele>-4.2</ele>
        <time>2021-08-04T11:27:45Z</time>
      </trkpt>
      <trkpt lat="47.59013" lon="-3.02884">
        <ele>-4.4</ele>
        <time>2021-08-04T11:27:46Z</time>
      </trkpt>
      <trkpt lat="47.59017" lon="-3.02883">
        <ele>-4.6</ele>
        <time>2021-08-04T11:27:47Z</time>
      </trkpt>
      <trkpt lat="47.59021" lon="-3.02882">
        <ele>-4.6</ele>
        <time>2021-08-04T11:27:48Z</time>
      </trkpt>
      <trkpt lat="47.59024" lon="-3.02882">
        <ele>-4.6</ele>
        <time>2021-08-04T11:27:49Z</time>
      </trkpt>
      <trkpt lat="47.59028" lon="-3.02881">
        <ele>-4.6</ele>
        <time>2021-08-04T11:27:50Z</time>
      </trkpt>
      <trkpt lat="47.59032" lon="-3.0288">
        <ele>-4.6</ele>
        <time>2021-08-04T11:27:51Z</time>
      </trkpt>
      <trkpt lat="47.59036" lon="-3.02879">
        <ele>-4.6</ele>
        <time>2021-08-04T11:27:52Z</time>
      </trkpt>
      <trkpt lat="47.5904" lon="-3.02878">
        <ele>-4.6</ele>
        <time>2021-08-04T11:27:53Z</time>
      </trkpt>
      <trkpt lat="47.59044" lon="-3.02876">
        <ele>-5</ele>
        <time>2021-08-04T11:27:54Z</time>
      </trkpt>
      <trkpt lat="47.59048" lon="-3.02875">
        <ele>-5</ele>
        <time>2021-08-04T11:27:55Z</time>
      </trkpt>
      <trkpt lat="47.59052" lon="-3.02873">
        <ele>-5</ele>
        <time>2021-08-04T11:27:56Z</time>
      </trkpt>
      <trkpt lat="47.59056" lon="-3.02872">
        <ele>-5</ele>
        <time>2021-08-04T11:27:57Z</time>
      </trkpt>
      <trkpt lat="47.5906" lon="-3.02871">
        <ele>-5</ele>
        <time>2021-08-04T11:27:58Z</time>
      </trkpt>
      <trkpt lat="47.59063" lon="-3.0287">
        <ele>-5</ele>
        <time>2021-08-04T11:27:59Z</time>
      </trkpt>
      <trkpt lat="47.59067" lon="-3.02868">
        <ele>-5.2</ele>
        <time>2021-08-04T11:28:00Z</time>
      </trkpt>
      <trkpt lat="47.59071" lon="-3.02867">
        <ele>-5.2</ele>
        <time>2021-08-04T11:28:01Z</time>
      </trkpt>
      <trkpt lat="47.59075" lon="-3.02865">
        <ele>-5.2</ele>
        <time>2021-08-04T11:28:02Z</time>
      </trkpt>
      <trkpt lat="47.59079" lon="-3.02863">
        <ele>-5.2</ele>
        <time>2021-08-04T11:28:03Z</time>
      </trkpt>
      <trkpt lat="47.59083" lon="-3.02862">
        <ele>-5.2</ele>
        <time>2021-08-04T11:28:04Z</time>
      </trkpt>
      <trkpt lat="47.59087" lon="-3.0286">
        <ele>-5.2</ele>
        <time>2021-08-04T11:28:05Z</time>
      </trkpt>
      <trkpt lat="47.59091" lon="-3.02858">
        <ele>-5.4</ele>
        <time>2021-08-04T11:28:06Z</time>
      </trkpt>
      <trkpt lat="47.59096" lon="-3.02856">
        <ele>-5.4</ele>
        <time>2021-08-04T11:28:07Z</time>
      </trkpt>
      <trkpt lat="47.591" lon="-3.02854">
        <ele>-5.4</ele>
        <time>2021-08-04T11:28:08Z</time>
      </trkpt>
      <trkpt lat="47.59104" lon="-3.02852">
        <ele>-5.4</ele>
        <time>2021-08-04T11:28:09Z</time>
      </trkpt>
      <trkpt lat="47.59109" lon="-3.0285">
        <ele>-5.4</ele>
        <time>2021-08-04T11:28:10Z</time>
      </trkpt>
      <trkpt lat="47.59113" lon="-3.02849">
        <ele>-5.4</ele>
        <time>2021-08-04T11:28:11Z</time>
      </trkpt>
      <trkpt lat="47.59117" lon="-3.02847">
        <ele>-5.4</ele>
        <time>2021-08-04T11:28:12Z</time>
      </trkpt>
      <trkpt lat="47.59122" lon="-3.02845">
        <ele>-5.4</ele>
        <time>2021-08-04T11:28:13Z</time>
      </trkpt>
      <trkpt lat="47.59126" lon="-3.02843">
        <ele>-5.4</ele>
        <time>2021-08-04T11:28:14Z</time>
      </trkpt>
      <trkpt lat="47.59131" lon="-3.02841">
        <ele>-5.4</ele>
        <time>2021-08-04T11:28:15Z</time>
      </trkpt>
      <trkpt lat="47.59135" lon="-3.02839">
        <ele>-5.4</ele>
        <time>2021-08-04T11:28:16Z</time>
      </trkpt>
      <trkpt lat="47.5914" lon="-3.02837">
        <ele>-5.6</ele>
        <time>2021-08-04T11:28:17Z</time>
      </trkpt>
      <trkpt lat="47.59145" lon="-3.02835">
        <ele>-5.6</ele>
        <time>2021-08-04T11:28:18Z</time>
      </trkpt>
      <trkpt lat="47.59149" lon="-3.02833">
        <ele>-5.6</ele>
        <time>2021-08-04T11:28:19Z</time>
      </trkpt>
      <trkpt lat="47.59153" lon="-3.02829">
        <ele>-5.6</ele>
        <time>2021-08-04T11:28:20Z</time>
      </trkpt>
      <trkpt lat="47.59157" lon="-3.02826">
        <ele>-5.6</ele>
        <time>2021-08-04T11:28:21Z</time>
      </trkpt>
      <trkpt lat="47.59161" lon="-3.02821">
        <ele>-5.6</ele>
        <time>2021-08-04T11:28:22Z</time>
      </trkpt>
      <trkpt lat="47.59164" lon="-3.02817">
        <ele>-5.6</ele>
        <time>2021-08-04T11:28:23Z</time>
      </trkpt>
      <trkpt lat="47.59168" lon="-3.02812">
        <ele>-5.6</ele>
        <time>2021-08-04T11:28:24Z</time>
      </trkpt>
      <trkpt lat="47.59171" lon="-3.02808">
        <ele>-5.6</ele>
        <time>2021-08-04T11:28:25Z</time>
      </trkpt>
      <trkpt lat="47.59175" lon="-3.02803">
        <ele>-5.6</ele>
        <time>2021-08-04T11:28:26Z</time>
      </trkpt>
      <trkpt lat="47.59178" lon="-3.02799">
        <ele>-5.6</ele>
        <time>2021-08-04T11:28:27Z</time>
      </trkpt>
      <trkpt lat="47.59182" lon="-3.02795">
        <ele>-5.6</ele>
        <time>2021-08-04T11:28:28Z</time>
      </trkpt>
      <trkpt lat="47.59186" lon="-3.02793">
        <ele>-5.6</ele>
        <time>2021-08-04T11:28:29Z</time>
      </trkpt>
      <trkpt lat="47.5919" lon="-3.02793">
        <ele>-5.6</ele>
        <time>2021-08-04T11:28:30Z</time>
      </trkpt>
      <trkpt lat="47.59194" lon="-3.02794">
        <ele>-5.6</ele>
        <time>2021-08-04T11:28:31Z</time>
      </trkpt>
      <trkpt lat="47.59198" lon="-3.02795">
        <ele>-5.6</ele>
        <time>2021-08-04T11:28:32Z</time>
      </trkpt>
      <trkpt lat="47.59202" lon="-3.02795">
        <ele>-5.6</ele>
        <time>2021-08-04T11:28:33Z</time>
      </trkpt>
      <trkpt lat="47.59206" lon="-3.02794">
        <ele>-5.6</ele>
        <time>2021-08-04T11:28:34Z</time>
      </trkpt>
      <trkpt lat="47.59209" lon="-3.02792">
        <ele>-5.6</ele>
        <time>2021-08-04T11:28:35Z</time>
      </trkpt>
      <trkpt lat="47.59213" lon="-3.02789">
        <ele>-5.6</ele>
        <time>2021-08-04T11:28:36Z</time>
      </trkpt>
      <trkpt lat="47.59216" lon="-3.02785">
        <ele>-5.6</ele>
        <time>2021-08-04T11:28:37Z</time>
      </trkpt>
      <trkpt lat="47.59219" lon="-3.02781">
        <ele>-5.6</ele>
        <time>2021-08-04T11:28:38Z</time>
      </trkpt>
      <trkpt lat="47.59222" lon="-3.02776">
        <ele>-5.6</ele>
        <time>2021-08-04T11:28:39Z</time>
      </trkpt>
      <trkpt lat="47.59225" lon="-3.02771">
        <ele>-5.4</ele>
        <time>2021-08-04T11:28:40Z</time>
      </trkpt>
      <trkpt lat="47.59228" lon="-3.02766">
        <ele>-5.4</ele>
        <time>2021-08-04T11:28:41Z</time>
      </trkpt>
      <trkpt lat="47.5923" lon="-3.02761">
        <ele>-5.4</ele>
        <time>2021-08-04T11:28:42Z</time>
      </trkpt>
      <trkpt lat="47.59233" lon="-3.02756">
        <ele>-5.2</ele>
        <time>2021-08-04T11:28:43Z</time>
      </trkpt>
      <trkpt lat="47.59235" lon="-3.0275">
        <ele>-5.2</ele>
        <time>2021-08-04T11:28:44Z</time>
      </trkpt>
      <trkpt lat="47.59237" lon="-3.02745">
        <ele>-5.2</ele>
        <time>2021-08-04T11:28:45Z</time>
      </trkpt>
      <trkpt lat="47.59239" lon="-3.0274">
        <ele>-5.2</ele>
        <time>2021-08-04T11:28:46Z</time>
      </trkpt>
      <trkpt lat="47.59241" lon="-3.02735">
        <ele>-5.2</ele>
        <time>2021-08-04T11:28:47Z</time>
      </trkpt>
      <trkpt lat="47.59243" lon="-3.0273">
        <ele>-5.2</ele>
        <time>2021-08-04T11:28:48Z</time>
      </trkpt>
      <trkpt lat="47.59245" lon="-3.02725">
        <ele>-5.2</ele>
        <time>2021-08-04T11:28:49Z</time>
      </trkpt>
      <trkpt lat="47.59246" lon="-3.0272">
        <ele>-5.2</ele>
        <time>2021-08-04T11:28:50Z</time>
      </trkpt>
      <trkpt lat="47.59247" lon="-3.02715">
        <ele>-5</ele>
        <time>2021-08-04T11:28:51Z</time>
      </trkpt>
      <trkpt lat="47.59248" lon="-3.0271">
        <ele>-5</ele>
        <time>2021-08-04T11:28:52Z</time>
      </trkpt>
      <trkpt lat="47.59249" lon="-3.02705">
        <ele>-5</ele>
        <time>2021-08-04T11:28:53Z</time>
      </trkpt>
      <trkpt lat="47.59251" lon="-3.027">
        <ele>-5</ele>
        <time>2021-08-04T11:28:54Z</time>
      </trkpt>
      <trkpt lat="47.59252" lon="-3.02695">
        <ele>-5</ele>
        <time>2021-08-04T11:28:55Z</time>
      </trkpt>
      <trkpt lat="47.59253" lon="-3.02691">
        <ele>-5</ele>
        <time>2021-08-04T11:28:56Z</time>
      </trkpt>
      <trkpt lat="47.59255" lon="-3.02686">
        <ele>-4.8</ele>
        <time>2021-08-04T11:28:57Z</time>
      </trkpt>
      <trkpt lat="47.59257" lon="-3.02681">
        <ele>-4.6</ele>
        <time>2021-08-04T11:28:58Z</time>
      </trkpt>
      <trkpt lat="47.59258" lon="-3.02676">
        <ele>-4.4</ele>
        <time>2021-08-04T11:28:59Z</time>
      </trkpt>
      <trkpt lat="47.59259" lon="-3.02671">
        <ele>-4.4</ele>
        <time>2021-08-04T11:29:00Z</time>
      </trkpt>
      <trkpt lat="47.59261" lon="-3.02666">
        <ele>-4.2</ele>
        <time>2021-08-04T11:29:01Z</time>
      </trkpt>
      <trkpt lat="47.59262" lon="-3.02661">
        <ele>-3.8</ele>
        <time>2021-08-04T11:29:02Z</time>
      </trkpt>
      <trkpt lat="47.59263" lon="-3.02656">
        <ele>-3.4</ele>
        <time>2021-08-04T11:29:03Z</time>
      </trkpt>
      <trkpt lat="47.59264" lon="-3.02651">
        <ele>-3.2</ele>
        <time>2021-08-04T11:29:04Z</time>
      </trkpt>
      <trkpt lat="47.59266" lon="-3.02646">
        <ele>-3</ele>
        <time>2021-08-04T11:29:05Z</time>
      </trkpt>
      <trkpt lat="47.59267" lon="-3.02641">
        <ele>-2.8</ele>
        <time>2021-08-04T11:29:06Z</time>
      </trkpt>
      <trkpt lat="47.59268" lon="-3.02636">
        <ele>-2.6</ele>
        <time>2021-08-04T11:29:07Z</time>
      </trkpt>
      <trkpt lat="47.59269" lon="-3.02631">
        <ele>-2.6</ele>
        <time>2021-08-04T11:29:08Z</time>
      </trkpt>
      <trkpt lat="47.5927" lon="-3.02625">
        <ele>-2.6</ele>
        <time>2021-08-04T11:29:09Z</time>
      </trkpt>
      <trkpt lat="47.59271" lon="-3.0262">
        <ele>-2.6</ele>
        <time>2021-08-04T11:29:10Z</time>
      </trkpt>
      <trkpt lat="47.59272" lon="-3.02615">
        <ele>-2.6</ele>
        <time>2021-08-04T11:29:11Z</time>
      </trkpt>
      <trkpt lat="47.59273" lon="-3.0261">
        <ele>-2.4</ele>
        <time>2021-08-04T11:29:12Z</time>
      </trkpt>
      <trkpt lat="47.59275" lon="-3.02605">
        <ele>-2.4</ele>
        <time>2021-08-04T11:29:13Z</time>
      </trkpt>
      <trkpt lat="47.59276" lon="-3.026">
        <ele>-2.4</ele>
        <time>2021-08-04T11:29:14Z</time>
      </trkpt>
      <trkpt lat="47.59277" lon="-3.02595">
        <ele>-2.2</ele>
        <time>2021-08-04T11:29:15Z</time>
      </trkpt>
      <trkpt lat="47.59278" lon="-3.02589">
        <ele>-2.2</ele>
        <time>2021-08-04T11:29:16Z</time>
      </trkpt>
      <trkpt lat="47.5928" lon="-3.02584">
        <ele>-2.2</ele>
        <time>2021-08-04T11:29:17Z</time>
      </trkpt>
      <trkpt lat="47.59281" lon="-3.02579">
        <ele>-2.2</ele>
        <time>2021-08-04T11:29:18Z</time>
      </trkpt>
      <trkpt lat="47.59282" lon="-3.02574">
        <ele>-2</ele>
        <time>2021-08-04T11:29:19Z</time>
      </trkpt>
      <trkpt lat="47.59282" lon="-3.02568">
        <ele>-2</ele>
        <time>2021-08-04T11:29:20Z</time>
      </trkpt>
      <trkpt lat="47.59283" lon="-3.02563">
        <ele>-1.8</ele>
        <time>2021-08-04T11:29:21Z</time>
      </trkpt>
      <trkpt lat="47.59284" lon="-3.02559">
        <ele>-1.8</ele>
        <time>2021-08-04T11:29:22Z</time>
      </trkpt>
      <trkpt lat="47.59285" lon="-3.02554">
        <ele>-1.8</ele>
        <time>2021-08-04T11:29:23Z</time>
      </trkpt>
      <trkpt lat="47.59287" lon="-3.02549">
        <ele>-1.6</ele>
        <time>2021-08-04T11:29:24Z</time>
      </trkpt>
      <trkpt lat="47.59287" lon="-3.02544">
        <ele>-1.6</ele>
        <time>2021-08-04T11:29:25Z</time>
      </trkpt>
      <trkpt lat="47.59288" lon="-3.02539">
        <ele>-1.6</ele>
        <time>2021-08-04T11:29:26Z</time>
      </trkpt>
      <trkpt lat="47.59288" lon="-3.02534">
        <ele>-1.4</ele>
        <time>2021-08-04T11:29:27Z</time>
      </trkpt>
      <trkpt lat="47.59289" lon="-3.02529">
        <ele>-1.4</ele>
        <time>2021-08-04T11:29:28Z</time>
      </trkpt>
      <trkpt lat="47.59289" lon="-3.02524">
        <ele>-1.2</ele>
        <time>2021-08-04T11:29:29Z</time>
      </trkpt>
      <trkpt lat="47.59289" lon="-3.02518">
        <ele>-1</ele>
        <time>2021-08-04T11:29:30Z</time>
      </trkpt>
      <trkpt lat="47.59289" lon="-3.02513">
        <ele>-1</ele>
        <time>2021-08-04T11:29:31Z</time>
      </trkpt>
      <trkpt lat="47.5929" lon="-3.02508">
        <ele>-0.8</ele>
        <time>2021-08-04T11:29:32Z</time>
      </trkpt>
      <trkpt lat="47.5929" lon="-3.02503">
        <ele>-0.8</ele>
        <time>2021-08-04T11:29:33Z</time>
      </trkpt>
      <trkpt lat="47.59289" lon="-3.02499">
        <ele>-0.6</ele>
        <time>2021-08-04T11:29:34Z</time>
      </trkpt>
      <trkpt lat="47.59288" lon="-3.02494">
        <ele>-0.4</ele>
        <time>2021-08-04T11:29:35Z</time>
      </trkpt>
      <trkpt lat="47.59287" lon="-3.0249">
        <ele>-0.4</ele>
        <time>2021-08-04T11:29:36Z</time>
      </trkpt>
      <trkpt lat="47.59287" lon="-3.02485">
        <ele>-0.2</ele>
        <time>2021-08-04T11:29:37Z</time>
      </trkpt>
      <trkpt lat="47.59286" lon="-3.02481">
        <ele>-0.2</ele>
        <time>2021-08-04T11:29:38Z</time>
      </trkpt>
      <trkpt lat="47.59285" lon="-3.02477">
        <ele>-0.2</ele>
        <time>2021-08-04T11:29:39Z</time>
      </trkpt>
      <trkpt lat="47.59284" lon="-3.02473">
        <ele>-0.2</ele>
        <time>2021-08-04T11:29:40Z</time>
      </trkpt>
      <trkpt lat="47.59282" lon="-3.02469">
        <ele>-0.2</ele>
        <time>2021-08-04T11:29:41Z</time>
      </trkpt>
      <trkpt lat="47.59281" lon="-3.02465">
        <ele>0.2</ele>
        <time>2021-08-04T11:29:42Z</time>
      </trkpt>
      <trkpt lat="47.5928" lon="-3.02461">
        <ele>0.4</ele>
        <time>2021-08-04T11:29:43Z</time>
      </trkpt>
      <trkpt lat="47.59279" lon="-3.02458">
        <ele>0.6</ele>
        <time>2021-08-04T11:29:44Z</time>
      </trkpt>
      <trkpt lat="47.59277" lon="-3.02453">
        <ele>0.8</ele>
        <time>2021-08-04T11:29:45Z</time>
      </trkpt>
      <trkpt lat="47.59276" lon="-3.0245">
        <ele>1</ele>
        <time>2021-08-04T11:29:46Z</time>
      </trkpt>
      <trkpt lat="47.59274" lon="-3.02446">
        <ele>1.2</ele>
        <time>2021-08-04T11:29:47Z</time>
      </trkpt>
      <trkpt lat="47.59273" lon="-3.02442">
        <ele>1.2</ele>
        <time>2021-08-04T11:29:48Z</time>
      </trkpt>
      <trkpt lat="47.59271" lon="-3.02439">
        <ele>1.4</ele>
        <time>2021-08-04T11:29:49Z</time>
      </trkpt>
      <trkpt lat="47.59269" lon="-3.02436">
        <ele>1.6</ele>
        <time>2021-08-04T11:29:50Z</time>
      </trkpt>
      <trkpt lat="47.59267" lon="-3.02433">
        <ele>1.8</ele>
        <time>2021-08-04T11:29:51Z</time>
      </trkpt>
      <trkpt lat="47.59265" lon="-3.0243">
        <ele>2</ele>
        <time>2021-08-04T11:29:52Z</time>
      </trkpt>
      <trkpt lat="47.59263" lon="-3.02427">
        <ele>2.2</ele>
        <time>2021-08-04T11:29:53Z</time>
      </trkpt>
      <trkpt lat="47.59261" lon="-3.02424">
        <ele>2.2</ele>
        <time>2021-08-04T11:29:54Z</time>
      </trkpt>
      <trkpt lat="47.59259" lon="-3.02421">
        <ele>2.4</ele>
        <time>2021-08-04T11:29:55Z</time>
      </trkpt>
      <trkpt lat="47.59257" lon="-3.02418">
        <ele>2.6</ele>
        <time>2021-08-04T11:29:56Z</time>
      </trkpt>
      <trkpt lat="47.59255" lon="-3.02415">
        <ele>2.6</ele>
        <time>2021-08-04T11:29:57Z</time>
      </trkpt>
      <trkpt lat="47.59253" lon="-3.02412">
        <ele>2.8</ele>
        <time>2021-08-04T11:29:58Z</time>
      </trkpt>
      <trkpt lat="47.59251" lon="-3.02408">
        <ele>3</ele>
        <time>2021-08-04T11:29:59Z</time>
      </trkpt>
      <trkpt lat="47.59249" lon="-3.02405">
        <ele>3.2</ele>
        <time>2021-08-04T11:30:00Z</time>
      </trkpt>
      <trkpt lat="47.59247" lon="-3.02402">
        <ele>3.2</ele>
        <time>2021-08-04T11:30:01Z</time>
      </trkpt>
      <trkpt lat="47.59245" lon="-3.02399">
        <ele>3.6</ele>
        <time>2021-08-04T11:30:02Z</time>
      </trkpt>
      <trkpt lat="47.59243" lon="-3.02396">
        <ele>3.8</ele>
        <time>2021-08-04T11:30:03Z</time>
      </trkpt>
      <trkpt lat="47.59241" lon="-3.02393">
        <ele>4</ele>
        <time>2021-08-04T11:30:04Z</time>
      </trkpt>
      <trkpt lat="47.59239" lon="-3.0239">
        <ele>4.2</ele>
        <time>2021-08-04T11:30:05Z</time>
      </trkpt>
      <trkpt lat="47.59237" lon="-3.02387">
        <ele>4.2</ele>
        <time>2021-08-04T11:30:06Z</time>
      </trkpt>
      <trkpt lat="47.59235" lon="-3.02384">
        <ele>4.4</ele>
        <time>2021-08-04T11:30:07Z</time>
      </trkpt>
      <trkpt lat="47.59233" lon="-3.02381">
        <ele>4.6</ele>
        <time>2021-08-04T11:30:08Z</time>
      </trkpt>
      <trkpt lat="47.59231" lon="-3.02377">
        <ele>4.6</ele>
        <time>2021-08-04T11:30:09Z</time>
      </trkpt>
      <trkpt lat="47.59228" lon="-3.02374">
        <ele>4.8</ele>
        <time>2021-08-04T11:30:10Z</time>
      </trkpt>
      <trkpt lat="47.59226" lon="-3.02371">
        <ele>4.8</ele>
        <time>2021-08-04T11:30:11Z</time>
      </trkpt>
      <trkpt lat="47.59224" lon="-3.02368">
        <ele>4.8</ele>
        <time>2021-08-04T11:30:12Z</time>
      </trkpt>
      <trkpt lat="47.59222" lon="-3.02364">
        <ele>5</ele>
        <time>2021-08-04T11:30:13Z</time>
      </trkpt>
      <trkpt lat="47.5922" lon="-3.02361">
        <ele>5</ele>
        <time>2021-08-04T11:30:14Z</time>
      </trkpt>
      <trkpt lat="47.59218" lon="-3.02358">
        <ele>5.2</ele>
        <time>2021-08-04T11:30:15Z</time>
      </trkpt>
      <trkpt lat="47.59216" lon="-3.02355">
        <ele>5.2</ele>
        <time>2021-08-04T11:30:16Z</time>
      </trkpt>
      <trkpt lat="47.59214" lon="-3.02352">
        <ele>5.2</ele>
        <time>2021-08-04T11:30:17Z</time>
      </trkpt>
      <trkpt lat="47.59212" lon="-3.02349">
        <ele>5.4</ele>
        <time>2021-08-04T11:30:18Z</time>
      </trkpt>
      <trkpt lat="47.59209" lon="-3.02346">
        <ele>5.4</ele>
        <time>2021-08-04T11:30:19Z</time>
      </trkpt>
      <trkpt lat="47.59207" lon="-3.02342">
        <ele>5.6</ele>
        <time>2021-08-04T11:30:20Z</time>
      </trkpt>
      <trkpt lat="47.59205" lon="-3.02339">
        <ele>5.6</ele>
        <time>2021-08-04T11:30:21Z</time>
      </trkpt>
      <trkpt lat="47.59203" lon="-3.02336">
        <ele>5.8</ele>
        <time>2021-08-04T11:30:22Z</time>
      </trkpt>
      <trkpt lat="47.59201" lon="-3.02333">
        <ele>6</ele>
        <time>2021-08-04T11:30:23Z</time>
      </trkpt>
      <trkpt lat="47.59199" lon="-3.02329">
        <ele>6</ele>
        <time>2021-08-04T11:30:24Z</time>
      </trkpt>
      <trkpt lat="47.59196" lon="-3.02326">
        <ele>6.2</ele>
        <time>2021-08-04T11:30:25Z</time>
      </trkpt>
      <trkpt lat="47.59194" lon="-3.02323">
        <ele>6.6</ele>
        <time>2021-08-04T11:30:26Z</time>
      </trkpt>
      <trkpt lat="47.59192" lon="-3.0232">
        <ele>6.8</ele>
        <time>2021-08-04T11:30:27Z</time>
      </trkpt>
      <trkpt lat="47.5919" lon="-3.02317">
        <ele>6.8</ele>
        <time>2021-08-04T11:30:28Z</time>
      </trkpt>
      <trkpt lat="47.59188" lon="-3.02313">
        <ele>6.8</ele>
        <time>2021-08-04T11:30:29Z</time>
      </trkpt>
      <trkpt lat="47.59185" lon="-3.0231">
        <ele>7</ele>
        <time>2021-08-04T11:30:30Z</time>
      </trkpt>
      <trkpt lat="47.59183" lon="-3.02306">
        <ele>7.2</ele>
        <time>2021-08-04T11:30:31Z</time>
      </trkpt>
      <trkpt lat="47.59181" lon="-3.02303">
        <ele>7.2</ele>
        <time>2021-08-04T11:30:32Z</time>
      </trkpt>
      <trkpt lat="47.59179" lon="-3.023">
        <ele>7.4</ele>
        <time>2021-08-04T11:30:33Z</time>
      </trkpt>
      <trkpt lat="47.59176" lon="-3.02296">
        <ele>7.6</ele>
        <time>2021-08-04T11:30:34Z</time>
      </trkpt>
      <trkpt lat="47.59174" lon="-3.02293">
        <ele>7.6</ele>
        <time>2021-08-04T11:30:35Z</time>
      </trkpt>
      <trkpt lat="47.59172" lon="-3.02289">
        <ele>7.6</ele>
        <time>2021-08-04T11:30:36Z</time>
      </trkpt>
      <trkpt lat="47.59169" lon="-3.02286">
        <ele>7.6</ele>
        <time>2021-08-04T11:30:37Z</time>
      </trkpt>
      <trkpt lat="47.59167" lon="-3.02282">
        <ele>7.8</ele>
        <time>2021-08-04T11:30:38Z</time>
      </trkpt>
      <trkpt lat="47.59164" lon="-3.02279">
        <ele>7.8</ele>
        <time>2021-08-04T11:30:39Z</time>
      </trkpt>
      <trkpt lat="47.59162" lon="-3.02275">
        <ele>7.8</ele>
        <time>2021-08-04T11:30:40Z</time>
      </trkpt>
      <trkpt lat="47.59159" lon="-3.02271">
        <ele>7.8</ele>
        <time>2021-08-04T11:30:41Z</time>
      </trkpt>
      <trkpt lat="47.59157" lon="-3.02267">
        <ele>8</ele>
        <time>2021-08-04T11:30:42Z</time>
      </trkpt>
      <trkpt lat="47.59154" lon="-3.02263">
        <ele>8</ele>
        <time>2021-08-04T11:30:43Z</time>
      </trkpt>
      <trkpt lat="47.59151" lon="-3.02259">
        <ele>8</ele>
        <time>2021-08-04T11:30:44Z</time>
      </trkpt>
      <trkpt lat="47.59149" lon="-3.02255">
        <ele>8.2</ele>
        <time>2021-08-04T11:30:45Z</time>
      </trkpt>
      <trkpt lat="47.59146" lon="-3.02251">
        <ele>8.2</ele>
        <time>2021-08-04T11:30:46Z</time>
      </trkpt>
      <trkpt lat="47.59143" lon="-3.02247">
        <ele>8.2</ele>
        <time>2021-08-04T11:30:47Z</time>
      </trkpt>
      <trkpt lat="47.5914" lon="-3.02242">
        <ele>8.2</ele>
        <time>2021-08-04T11:30:48Z</time>
      </trkpt>
      <trkpt lat="47.59137" lon="-3.02238">
        <ele>8.2</ele>
        <time>2021-08-04T11:30:49Z</time>
      </trkpt>
      <trkpt lat="47.59134" lon="-3.02233">
        <ele>8.2</ele>
        <time>2021-08-04T11:30:50Z</time>
      </trkpt>
      <trkpt lat="47.59131" lon="-3.02229">
        <ele>8.2</ele>
        <time>2021-08-04T11:30:51Z</time>
      </trkpt>
      <trkpt lat="47.59128" lon="-3.02225">
        <ele>8.2</ele>
        <time>2021-08-04T11:30:52Z</time>
      </trkpt>
      <trkpt lat="47.59125" lon="-3.02221">
        <ele>8.4</ele>
        <time>2021-08-04T11:30:53Z</time>
      </trkpt>
      <trkpt lat="47.59122" lon="-3.02217">
        <ele>8.4</ele>
        <time>2021-08-04T11:30:54Z</time>
      </trkpt>
      <trkpt lat="47.59119" lon="-3.02213">
        <ele>8.4</ele>
        <time>2021-08-04T11:30:55Z</time>
      </trkpt>
      <trkpt lat="47.59116" lon="-3.02209">
        <ele>8.4</ele>
        <time>2021-08-04T11:30:56Z</time>
      </trkpt>
      <trkpt lat="47.59113" lon="-3.02204">
        <ele>8.4</ele>
        <time>2021-08-04T11:30:57Z</time>
      </trkpt>
      <trkpt lat="47.5911" lon="-3.022">
        <ele>8.4</ele>
        <time>2021-08-04T11:30:58Z</time>
      </trkpt>
      <trkpt lat="47.59108" lon="-3.02195">
        <ele>8.4</ele>
        <time>2021-08-04T11:30:59Z</time>
      </trkpt>
      <trkpt lat="47.59105" lon="-3.0219">
        <ele>8.4</ele>
        <time>2021-08-04T11:31:00Z</time>
      </trkpt>
      <trkpt lat="47.59102" lon="-3.02186">
        <ele>8.4</ele>
        <time>2021-08-04T11:31:01Z</time>
      </trkpt>
      <trkpt lat="47.59099" lon="-3.02181">
        <ele>8.4</ele>
        <time>2021-08-04T11:31:02Z</time>
      </trkpt>
      <trkpt lat="47.59096" lon="-3.02177">
        <ele>8.4</ele>
        <time>2021-08-04T11:31:03Z</time>
      </trkpt>
      <trkpt lat="47.59093" lon="-3.02173">
        <ele>8.6</ele>
        <time>2021-08-04T11:31:04Z</time>
      </trkpt>
      <trkpt lat="47.5909" lon="-3.02168">
        <ele>8.6</ele>
        <time>2021-08-04T11:31:05Z</time>
      </trkpt>
      <trkpt lat="47.59087" lon="-3.02164">
        <ele>8.6</ele>
        <time>2021-08-04T11:31:06Z</time>
      </trkpt>
      <trkpt lat="47.59083" lon="-3.0216">
        <ele>8.6</ele>
        <time>2021-08-04T11:31:07Z</time>
      </trkpt>
      <trkpt lat="47.5908" lon="-3.02155">
        <ele>8.6</ele>
        <time>2021-08-04T11:31:08Z</time>
      </trkpt>
      <trkpt lat="47.59077" lon="-3.02151">
        <ele>8.6</ele>
        <time>2021-08-04T11:31:09Z</time>
      </trkpt>
      <trkpt lat="47.59074" lon="-3.02146">
        <ele>8.6</ele>
        <time>2021-08-04T11:31:10Z</time>
      </trkpt>
      <trkpt lat="47.59071" lon="-3.0214">
        <ele>8.6</ele>
        <time>2021-08-04T11:31:11Z</time>
      </trkpt>
      <trkpt lat="47.59068" lon="-3.02136">
        <ele>8.6</ele>
        <time>2021-08-04T11:31:12Z</time>
      </trkpt>
      <trkpt lat="47.59064" lon="-3.02131">
        <ele>8.6</ele>
        <time>2021-08-04T11:31:13Z</time>
      </trkpt>
      <trkpt lat="47.59061" lon="-3.02126">
        <ele>8.6</ele>
        <time>2021-08-04T11:31:14Z</time>
      </trkpt>
      <trkpt lat="47.59057" lon="-3.02121">
        <ele>8.6</ele>
        <time>2021-08-04T11:31:15Z</time>
      </trkpt>
      <trkpt lat="47.59054" lon="-3.02116">
        <ele>8.6</ele>
        <time>2021-08-04T11:31:16Z</time>
      </trkpt>
      <trkpt lat="47.5905" lon="-3.0211">
        <ele>8.6</ele>
        <time>2021-08-04T11:31:17Z</time>
      </trkpt>
      <trkpt lat="47.59046" lon="-3.02105">
        <ele>8.6</ele>
        <time>2021-08-04T11:31:18Z</time>
      </trkpt>
      <trkpt lat="47.59042" lon="-3.021">
        <ele>8.6</ele>
        <time>2021-08-04T11:31:19Z</time>
      </trkpt>
      <trkpt lat="47.59038" lon="-3.02094">
        <ele>8.6</ele>
        <time>2021-08-04T11:31:20Z</time>
      </trkpt>
      <trkpt lat="47.59034" lon="-3.02088">
        <ele>8.6</ele>
        <time>2021-08-04T11:31:21Z</time>
      </trkpt>
      <trkpt lat="47.5903" lon="-3.02081">
        <ele>8.6</ele>
        <time>2021-08-04T11:31:22Z</time>
      </trkpt>
      <trkpt lat="47.59025" lon="-3.02075">
        <ele>8.6</ele>
        <time>2021-08-04T11:31:23Z</time>
      </trkpt>
      <trkpt lat="47.59021" lon="-3.02069">
        <ele>8.6</ele>
        <time>2021-08-04T11:31:24Z</time>
      </trkpt>
      <trkpt lat="47.59016" lon="-3.02062">
        <ele>8.6</ele>
        <time>2021-08-04T11:31:25Z</time>
      </trkpt>
      <trkpt lat="47.59011" lon="-3.02056">
        <ele>8.4</ele>
        <time>2021-08-04T11:31:26Z</time>
      </trkpt>
      <trkpt lat="47.59006" lon="-3.02049">
        <ele>8.4</ele>
        <time>2021-08-04T11:31:27Z</time>
      </trkpt>
      <trkpt lat="47.59001" lon="-3.02042">
        <ele>8.4</ele>
        <time>2021-08-04T11:31:28Z</time>
      </trkpt>
      <trkpt lat="47.58996" lon="-3.02034">
        <ele>8.2</ele>
        <time>2021-08-04T11:31:29Z</time>
      </trkpt>
      <trkpt lat="47.5899" lon="-3.02027">
        <ele>8</ele>
        <time>2021-08-04T11:31:30Z</time>
      </trkpt>
      <trkpt lat="47.58984" lon="-3.02018">
        <ele>7.8</ele>
        <time>2021-08-04T11:31:31Z</time>
      </trkpt>
      <trkpt lat="47.58978" lon="-3.02008">
        <ele>7.4</ele>
        <time>2021-08-04T11:31:32Z</time>
      </trkpt>
      <trkpt lat="47.58972" lon="-3.01999">
        <ele>7</ele>
        <time>2021-08-04T11:31:33Z</time>
      </trkpt>
      <trkpt lat="47.58965" lon="-3.01989">
        <ele>6.6</ele>
        <time>2021-08-04T11:31:34Z</time>
      </trkpt>
      <trkpt lat="47.58959" lon="-3.01979">
        <ele>6</ele>
        <time>2021-08-04T11:31:35Z</time>
      </trkpt>
      <trkpt lat="47.58952" lon="-3.01969">
        <ele>5.4</ele>
        <time>2021-08-04T11:31:36Z</time>
      </trkpt>
      <trkpt lat="47.58945" lon="-3.01958">
        <ele>4.8</ele>
        <time>2021-08-04T11:31:37Z</time>
      </trkpt>
      <trkpt lat="47.58939" lon="-3.01947">
        <ele>4.4</ele>
        <time>2021-08-04T11:31:38Z</time>
      </trkpt>
      <trkpt lat="47.58932" lon="-3.01935">
        <ele>3.8</ele>
        <time>2021-08-04T11:31:39Z</time>
      </trkpt>
      <trkpt lat="47.58925" lon="-3.01923">
        <ele>3</ele>
        <time>2021-08-04T11:31:40Z</time>
      </trkpt>
      <trkpt lat="47.58919" lon="-3.01911">
        <ele>2.2</ele>
        <time>2021-08-04T11:31:41Z</time>
      </trkpt>
      <trkpt lat="47.58912" lon="-3.01898">
        <ele>1.4</ele>
        <time>2021-08-04T11:31:42Z</time>
      </trkpt>
      <trkpt lat="47.58906" lon="-3.01886">
        <ele>0.6</ele>
        <time>2021-08-04T11:31:43Z</time>
      </trkpt>
      <trkpt lat="47.589" lon="-3.01873">
        <ele>-0.2</ele>
        <time>2021-08-04T11:31:44Z</time>
      </trkpt>
      <trkpt lat="47.58895" lon="-3.01861">
        <ele>-1.2</ele>
        <time>2021-08-04T11:31:45Z</time>
      </trkpt>
      <trkpt lat="47.58889" lon="-3.01849">
        <ele>-1.8</ele>
        <time>2021-08-04T11:31:46Z</time>
      </trkpt>
      <trkpt lat="47.58884" lon="-3.01836">
        <ele>-2.6</ele>
        <time>2021-08-04T11:31:47Z</time>
      </trkpt>
      <trkpt lat="47.5888" lon="-3.01824">
        <ele>-3</ele>
        <time>2021-08-04T11:31:48Z</time>
      </trkpt>
      <trkpt lat="47.58877" lon="-3.01811">
        <ele>-3.2</ele>
        <time>2021-08-04T11:31:49Z</time>
      </trkpt>
      <trkpt lat="47.58874" lon="-3.01798">
        <ele>-3.2</ele>
        <time>2021-08-04T11:31:50Z</time>
      </trkpt>
      <trkpt lat="47.58871" lon="-3.01786">
        <ele>-3.2</ele>
        <time>2021-08-04T11:31:51Z</time>
      </trkpt>
      <trkpt lat="47.58868" lon="-3.01774">
        <ele>-3.2</ele>
        <time>2021-08-04T11:31:52Z</time>
      </trkpt>
      <trkpt lat="47.58865" lon="-3.01762">
        <ele>-3.2</ele>
        <time>2021-08-04T11:31:53Z</time>
      </trkpt>
      <trkpt lat="47.58862" lon="-3.01751">
        <ele>-3.4</ele>
        <time>2021-08-04T11:31:54Z</time>
      </trkpt>
      <trkpt lat="47.58859" lon="-3.0174">
        <ele>-3.4</ele>
        <time>2021-08-04T11:31:55Z</time>
      </trkpt>
      <trkpt lat="47.58856" lon="-3.01729">
        <ele>-3.2</ele>
        <time>2021-08-04T11:31:56Z</time>
      </trkpt>
      <trkpt lat="47.58854" lon="-3.01718">
        <ele>-3.2</ele>
        <time>2021-08-04T11:31:57Z</time>
      </trkpt>
      <trkpt lat="47.58851" lon="-3.01708">
        <ele>-3.2</ele>
        <time>2021-08-04T11:31:58Z</time>
      </trkpt>
      <trkpt lat="47.58849" lon="-3.01698">
        <ele>-3</ele>
        <time>2021-08-04T11:31:59Z</time>
      </trkpt>
      <trkpt lat="47.58846" lon="-3.01688">
        <ele>-3</ele>
        <time>2021-08-04T11:32:00Z</time>
      </trkpt>
      <trkpt lat="47.58843" lon="-3.01679">
        <ele>-2.8</ele>
        <time>2021-08-04T11:32:01Z</time>
      </trkpt>
      <trkpt lat="47.58839" lon="-3.01671">
        <ele>-2.8</ele>
        <time>2021-08-04T11:32:02Z</time>
      </trkpt>
      <trkpt lat="47.58835" lon="-3.01663">
        <ele>-2.6</ele>
        <time>2021-08-04T11:32:03Z</time>
      </trkpt>
      <trkpt lat="47.58833" lon="-3.01654">
        <ele>-2.4</ele>
        <time>2021-08-04T11:32:04Z</time>
      </trkpt>
      <trkpt lat="47.58832" lon="-3.01646">
        <ele>-2.4</ele>
        <time>2021-08-04T11:32:05Z</time>
      </trkpt>
      <trkpt lat="47.58834" lon="-3.01638">
        <ele>-2.2</ele>
        <time>2021-08-04T11:32:06Z</time>
      </trkpt>
      <trkpt lat="47.58838" lon="-3.01632">
        <ele>-2.2</ele>
        <time>2021-08-04T11:32:07Z</time>
      </trkpt>
      <trkpt lat="47.58842" lon="-3.01629">
        <ele>-2.2</ele>
        <time>2021-08-04T11:32:08Z</time>
      </trkpt>
      <trkpt lat="47.58848" lon="-3.01628">
        <ele>-2.2</ele>
        <time>2021-08-04T11:32:09Z</time>
      </trkpt>
      <trkpt lat="47.58853" lon="-3.0163">
        <ele>-2.2</ele>
        <time>2021-08-04T11:32:10Z</time>
      </trkpt>
      <trkpt lat="47.58859" lon="-3.01632">
        <ele>-2</ele>
        <time>2021-08-04T11:32:11Z</time>
      </trkpt>
      <trkpt lat="47.58865" lon="-3.01633">
        <ele>-2</ele>
        <time>2021-08-04T11:32:12Z</time>
      </trkpt>
      <trkpt lat="47.58871" lon="-3.01633">
        <ele>-2</ele>
        <time>2021-08-04T11:32:13Z</time>
      </trkpt>
      <trkpt lat="47.58877" lon="-3.01631">
        <ele>-2.2</ele>
        <time>2021-08-04T11:32:14Z</time>
      </trkpt>
      <trkpt lat="47.58883" lon="-3.0163">
        <ele>-2.2</ele>
        <time>2021-08-04T11:32:15Z</time>
      </trkpt>
      <trkpt lat="47.58889" lon="-3.0163">
        <ele>-2.2</ele>
        <time>2021-08-04T11:32:16Z</time>
      </trkpt>
      <trkpt lat="47.58894" lon="-3.01631">
        <ele>-2.4</ele>
        <time>2021-08-04T11:32:17Z</time>
      </trkpt>
      <trkpt lat="47.58899" lon="-3.01631">
        <ele>-2.6</ele>
        <time>2021-08-04T11:32:18Z</time>
      </trkpt>
      <trkpt lat="47.58904" lon="-3.01632">
        <ele>-2.8</ele>
        <time>2021-08-04T11:32:19Z</time>
      </trkpt>
      <trkpt lat="47.58908" lon="-3.01633">
        <ele>-2.8</ele>
        <time>2021-08-04T11:32:20Z</time>
      </trkpt>
      <trkpt lat="47.58912" lon="-3.01634">
        <ele>-2.8</ele>
        <time>2021-08-04T11:32:21Z</time>
      </trkpt>
      <trkpt lat="47.58916" lon="-3.01635">
        <ele>-2.8</ele>
        <time>2021-08-04T11:32:22Z</time>
      </trkpt>
      <trkpt lat="47.5892" lon="-3.01636">
        <ele>-2.8</ele>
        <time>2021-08-04T11:32:23Z</time>
      </trkpt>
      <trkpt lat="47.58923" lon="-3.01637">
        <ele>-2.8</ele>
        <time>2021-08-04T11:32:24Z</time>
      </trkpt>
      <trkpt lat="47.58927" lon="-3.01638">
        <ele>-2.8</ele>
        <time>2021-08-04T11:32:25Z</time>
      </trkpt>
      <trkpt lat="47.5893" lon="-3.01639">
        <ele>-2.8</ele>
        <time>2021-08-04T11:32:26Z</time>
      </trkpt>
      <trkpt lat="47.58933" lon="-3.01639">
        <ele>-2.6</ele>
        <time>2021-08-04T11:32:27Z</time>
      </trkpt>
      <trkpt lat="47.58937" lon="-3.0164">
        <ele>-2.6</ele>
        <time>2021-08-04T11:32:28Z</time>
      </trkpt>
      <trkpt lat="47.58939" lon="-3.0164">
        <ele>-2.4</ele>
        <time>2021-08-04T11:32:29Z</time>
      </trkpt>
      <trkpt lat="47.58942" lon="-3.0164">
        <ele>-2.2</ele>
        <time>2021-08-04T11:32:30Z</time>
      </trkpt>
      <trkpt lat="47.58944" lon="-3.0164">
        <ele>-2</ele>
        <time>2021-08-04T11:32:31Z</time>
      </trkpt>
      <trkpt lat="47.58947" lon="-3.01641">
        <ele>-2</ele>
        <time>2021-08-04T11:32:32Z</time>
      </trkpt>
      <trkpt lat="47.58949" lon="-3.01642">
        <ele>-1.8</ele>
        <time>2021-08-04T11:32:33Z</time>
      </trkpt>
      <trkpt lat="47.58952" lon="-3.01642">
        <ele>-1.8</ele>
        <time>2021-08-04T11:32:34Z</time>
      </trkpt>
      <trkpt lat="47.58954" lon="-3.01642">
        <ele>-1.8</ele>
        <time>2021-08-04T11:32:35Z</time>
      </trkpt>
      <trkpt lat="47.58957" lon="-3.01642">
        <ele>-1.6</ele>
        <time>2021-08-04T11:32:36Z</time>
      </trkpt>
      <trkpt lat="47.58959" lon="-3.01642">
        <ele>-1.4</ele>
        <time>2021-08-04T11:32:37Z</time>
      </trkpt>
      <trkpt lat="47.58961" lon="-3.01641">
        <ele>-1.4</ele>
        <time>2021-08-04T11:32:38Z</time>
      </trkpt>
      <trkpt lat="47.58964" lon="-3.01641">
        <ele>-1.4</ele>
        <time>2021-08-04T11:32:39Z</time>
      </trkpt>
      <trkpt lat="47.58966" lon="-3.01641">
        <ele>-1.2</ele>
        <time>2021-08-04T11:32:40Z</time>
      </trkpt>
      <trkpt lat="47.58968" lon="-3.01641">
        <ele>-1.2</ele>
        <time>2021-08-04T11:32:41Z</time>
      </trkpt>
      <trkpt lat="47.58971" lon="-3.01641">
        <ele>-1</ele>
        <time>2021-08-04T11:32:42Z</time>
      </trkpt>
      <trkpt lat="47.58974" lon="-3.0164">
        <ele>-1</ele>
        <time>2021-08-04T11:32:43Z</time>
      </trkpt>
      <trkpt lat="47.58976" lon="-3.01639">
        <ele>-0.8</ele>
        <time>2021-08-04T11:32:44Z</time>
      </trkpt>
      <trkpt lat="47.58979" lon="-3.01638">
        <ele>-0.8</ele>
        <time>2021-08-04T11:32:45Z</time>
      </trkpt>
      <trkpt lat="47.58982" lon="-3.01638">
        <ele>-0.6</ele>
        <time>2021-08-04T11:32:46Z</time>
      </trkpt>
      <trkpt lat="47.58984" lon="-3.01637">
        <ele>-0.4</ele>
        <time>2021-08-04T11:32:47Z</time>
      </trkpt>
      <trkpt lat="47.58987" lon="-3.01636">
        <ele>-0.4</ele>
        <time>2021-08-04T11:32:48Z</time>
      </trkpt>
      <trkpt lat="47.5899" lon="-3.01635">
        <ele>-0.2</ele>
        <time>2021-08-04T11:32:49Z</time>
      </trkpt>
      <trkpt lat="47.58993" lon="-3.01634">
        <ele>-0.2</ele>
        <time>2021-08-04T11:32:50Z</time>
      </trkpt>
      <trkpt lat="47.58996" lon="-3.01633">
        <ele>-0.2</ele>
        <time>2021-08-04T11:32:51Z</time>
      </trkpt>
      <trkpt lat="47.58998" lon="-3.01632">
        <ele>0.2</ele>
        <time>2021-08-04T11:32:52Z</time>
      </trkpt>
      <trkpt lat="47.59001" lon="-3.01631">
        <ele>0.2</ele>
        <time>2021-08-04T11:32:53Z</time>
      </trkpt>
      <trkpt lat="47.59004" lon="-3.0163">
        <ele>0.4</ele>
        <time>2021-08-04T11:32:54Z</time>
      </trkpt>
      <trkpt lat="47.59006" lon="-3.01629">
        <ele>0.4</ele>
        <time>2021-08-04T11:32:55Z</time>
      </trkpt>
      <trkpt lat="47.59009" lon="-3.01628">
        <ele>0.4</ele>
        <time>2021-08-04T11:32:56Z</time>
      </trkpt>
      <trkpt lat="47.59012" lon="-3.01626">
        <ele>0.6</ele>
        <time>2021-08-04T11:32:57Z</time>
      </trkpt>
      <trkpt lat="47.59014" lon="-3.01625">
        <ele>0.6</ele>
        <time>2021-08-04T11:32:58Z</time>
      </trkpt>
      <trkpt lat="47.59017" lon="-3.01624">
        <ele>0.6</ele>
        <time>2021-08-04T11:32:59Z</time>
      </trkpt>
      <trkpt lat="47.59019" lon="-3.01623">
        <ele>0.6</ele>
        <time>2021-08-04T11:33:00Z</time>
      </trkpt>
      <trkpt lat="47.59022" lon="-3.01622">
        <ele>0.6</ele>
        <time>2021-08-04T11:33:01Z</time>
      </trkpt>
      <trkpt lat="47.59025" lon="-3.0162">
        <ele>0.8</ele>
        <time>2021-08-04T11:33:02Z</time>
      </trkpt>
      <trkpt lat="47.59027" lon="-3.01619">
        <ele>0.8</ele>
        <time>2021-08-04T11:33:03Z</time>
      </trkpt>
      <trkpt lat="47.5903" lon="-3.01618">
        <ele>0.8</ele>
        <time>2021-08-04T11:33:04Z</time>
      </trkpt>
      <trkpt lat="47.59032" lon="-3.01617">
        <ele>1</ele>
        <time>2021-08-04T11:33:05Z</time>
      </trkpt>
      <trkpt lat="47.59035" lon="-3.01615">
        <ele>1.2</ele>
        <time>2021-08-04T11:33:06Z</time>
      </trkpt>
      <trkpt lat="47.59038" lon="-3.01614">
        <ele>1.4</ele>
        <time>2021-08-04T11:33:07Z</time>
      </trkpt>
      <trkpt lat="47.59041" lon="-3.01613">
        <ele>1.6</ele>
        <time>2021-08-04T11:33:08Z</time>
      </trkpt>
      <trkpt lat="47.59044" lon="-3.01612">
        <ele>1.6</ele>
        <time>2021-08-04T11:33:09Z</time>
      </trkpt>
      <trkpt lat="47.59047" lon="-3.0161">
        <ele>1.6</ele>
        <time>2021-08-04T11:33:10Z</time>
      </trkpt>
      <trkpt lat="47.59049" lon="-3.01609">
        <ele>1.6</ele>
        <time>2021-08-04T11:33:11Z</time>
      </trkpt>
      <trkpt lat="47.59052" lon="-3.01607">
        <ele>1.6</ele>
        <time>2021-08-04T11:33:12Z</time>
      </trkpt>
      <trkpt lat="47.59055" lon="-3.01606">
        <ele>1.6</ele>
        <time>2021-08-04T11:33:13Z</time>
      </trkpt>
      <trkpt lat="47.59059" lon="-3.01605">
        <ele>1.6</ele>
        <time>2021-08-04T11:33:14Z</time>
      </trkpt>
      <trkpt lat="47.59062" lon="-3.01603">
        <ele>1.6</ele>
        <time>2021-08-04T11:33:15Z</time>
      </trkpt>
      <trkpt lat="47.59065" lon="-3.01602">
        <ele>1.6</ele>
        <time>2021-08-04T11:33:16Z</time>
      </trkpt>
      <trkpt lat="47.59069" lon="-3.016">
        <ele>1.6</ele>
        <time>2021-08-04T11:33:17Z</time>
      </trkpt>
      <trkpt lat="47.59073" lon="-3.01598">
        <ele>1.6</ele>
        <time>2021-08-04T11:33:18Z</time>
      </trkpt>
      <trkpt lat="47.59077" lon="-3.01596">
        <ele>1.6</ele>
        <time>2021-08-04T11:33:19Z</time>
      </trkpt>
      <trkpt lat="47.59082" lon="-3.01594">
        <ele>1.6</ele>
        <time>2021-08-04T11:33:20Z</time>
      </trkpt>
      <trkpt lat="47.59086" lon="-3.01591">
        <ele>1.4</ele>
        <time>2021-08-04T11:33:21Z</time>
      </trkpt>
      <trkpt lat="47.59091" lon="-3.01589">
        <ele>1.4</ele>
        <time>2021-08-04T11:33:22Z</time>
      </trkpt>
      <trkpt lat="47.59096" lon="-3.01587">
        <ele>1.4</ele>
        <time>2021-08-04T11:33:23Z</time>
      </trkpt>
      <trkpt lat="47.59101" lon="-3.01585">
        <ele>1.2</ele>
        <time>2021-08-04T11:33:24Z</time>
      </trkpt>
      <trkpt lat="47.59105" lon="-3.01584">
        <ele>1.2</ele>
        <time>2021-08-04T11:33:25Z</time>
      </trkpt>
      <trkpt lat="47.5911" lon="-3.01583">
        <ele>1.2</ele>
        <time>2021-08-04T11:33:26Z</time>
      </trkpt>
      <trkpt lat="47.59115" lon="-3.01583">
        <ele>1</ele>
        <time>2021-08-04T11:33:27Z</time>
      </trkpt>
      <trkpt lat="47.59121" lon="-3.01583">
        <ele>1</ele>
        <time>2021-08-04T11:33:28Z</time>
      </trkpt>
      <trkpt lat="47.59126" lon="-3.01584">
        <ele>0.8</ele>
        <time>2021-08-04T11:33:29Z</time>
      </trkpt>
      <trkpt lat="47.59131" lon="-3.01584">
        <ele>0.8</ele>
        <time>2021-08-04T11:33:30Z</time>
      </trkpt>
      <trkpt lat="47.59136" lon="-3.01584">
        <ele>0.4</ele>
        <time>2021-08-04T11:33:31Z</time>
      </trkpt>
      <trkpt lat="47.59142" lon="-3.01585">
        <ele>0.4</ele>
        <time>2021-08-04T11:33:32Z</time>
      </trkpt>
      <trkpt lat="47.59148" lon="-3.01586">
        <ele>0.4</ele>
        <time>2021-08-04T11:33:33Z</time>
      </trkpt>
      <trkpt lat="47.59154" lon="-3.01586">
        <ele>-0.2</ele>
        <time>2021-08-04T11:33:34Z</time>
      </trkpt>
      <trkpt lat="47.59159" lon="-3.01587">
        <ele>-0.4</ele>
        <time>2021-08-04T11:33:35Z</time>
      </trkpt>
      <trkpt lat="47.59164" lon="-3.01587">
        <ele>-0.4</ele>
        <time>2021-08-04T11:33:36Z</time>
      </trkpt>
      <trkpt lat="47.59169" lon="-3.01588">
        <ele>-0.4</ele>
        <time>2021-08-04T11:33:37Z</time>
      </trkpt>
      <trkpt lat="47.59175" lon="-3.01588">
        <ele>-0.6</ele>
        <time>2021-08-04T11:33:38Z</time>
      </trkpt>
      <trkpt lat="47.59179" lon="-3.01588">
        <ele>-0.6</ele>
        <time>2021-08-04T11:33:39Z</time>
      </trkpt>
      <trkpt lat="47.59185" lon="-3.01588">
        <ele>-0.6</ele>
        <time>2021-08-04T11:33:40Z</time>
      </trkpt>
      <trkpt lat="47.59191" lon="-3.01588">
        <ele>-0.6</ele>
        <time>2021-08-04T11:33:41Z</time>
      </trkpt>
      <trkpt lat="47.59196" lon="-3.01588">
        <ele>-0.6</ele>
        <time>2021-08-04T11:33:42Z</time>
      </trkpt>
      <trkpt lat="47.59201" lon="-3.01588">
        <ele>-0.6</ele>
        <time>2021-08-04T11:33:43Z</time>
      </trkpt>
      <trkpt lat="47.59206" lon="-3.01588">
        <ele>-0.8</ele>
        <time>2021-08-04T11:33:44Z</time>
      </trkpt>
      <trkpt lat="47.59212" lon="-3.01587">
        <ele>-0.8</ele>
        <time>2021-08-04T11:33:45Z</time>
      </trkpt>
      <trkpt lat="47.59217" lon="-3.01587">
        <ele>-0.8</ele>
        <time>2021-08-04T11:33:46Z</time>
      </trkpt>
      <trkpt lat="47.59222" lon="-3.01586">
        <ele>-0.8</ele>
        <time>2021-08-04T11:33:47Z</time>
      </trkpt>
      <trkpt lat="47.59227" lon="-3.01585">
        <ele>-0.8</ele>
        <time>2021-08-04T11:33:48Z</time>
      </trkpt>
      <trkpt lat="47.59232" lon="-3.01584">
        <ele>-0.6</ele>
        <time>2021-08-04T11:33:49Z</time>
      </trkpt>
      <trkpt lat="47.59237" lon="-3.01582">
        <ele>-0.6</ele>
        <time>2021-08-04T11:33:50Z</time>
      </trkpt>
      <trkpt lat="47.59242" lon="-3.01581">
        <ele>-0.6</ele>
        <time>2021-08-04T11:33:51Z</time>
      </trkpt>
      <trkpt lat="47.59247" lon="-3.01579">
        <ele>-0.6</ele>
        <time>2021-08-04T11:33:52Z</time>
      </trkpt>
      <trkpt lat="47.59251" lon="-3.01577">
        <ele>-0.6</ele>
        <time>2021-08-04T11:33:53Z</time>
      </trkpt>
      <trkpt lat="47.59256" lon="-3.01574">
        <ele>-0.4</ele>
        <time>2021-08-04T11:33:54Z</time>
      </trkpt>
      <trkpt lat="47.5926" lon="-3.01571">
        <ele>-0.4</ele>
        <time>2021-08-04T11:33:55Z</time>
      </trkpt>
      <trkpt lat="47.59265" lon="-3.01569">
        <ele>-0.4</ele>
        <time>2021-08-04T11:33:56Z</time>
      </trkpt>
      <trkpt lat="47.5927" lon="-3.01567">
        <ele>-0.4</ele>
        <time>2021-08-04T11:33:57Z</time>
      </trkpt>
      <trkpt lat="47.59273" lon="-3.01564">
        <ele>-0.4</ele>
        <time>2021-08-04T11:33:58Z</time>
      </trkpt>
      <trkpt lat="47.59277" lon="-3.01561">
        <ele>-0.2</ele>
        <time>2021-08-04T11:33:59Z</time>
      </trkpt>
      <trkpt lat="47.59281" lon="-3.01558">
        <ele>-0.2</ele>
        <time>2021-08-04T11:34:00Z</time>
      </trkpt>
      <trkpt lat="47.59284" lon="-3.01556">
        <ele>-0.2</ele>
        <time>2021-08-04T11:34:01Z</time>
      </trkpt>
      <trkpt lat="47.59288" lon="-3.01553">
        <ele>-0.2</ele>
        <time>2021-08-04T11:34:02Z</time>
      </trkpt>
      <trkpt lat="47.59292" lon="-3.01551">
        <ele>0.2</ele>
        <time>2021-08-04T11:34:03Z</time>
      </trkpt>
      <trkpt lat="47.59295" lon="-3.01549">
        <ele>0.2</ele>
        <time>2021-08-04T11:34:04Z</time>
      </trkpt>
      <trkpt lat="47.59298" lon="-3.01547">
        <ele>0.4</ele>
        <time>2021-08-04T11:34:05Z</time>
      </trkpt>
      <trkpt lat="47.593" lon="-3.01545">
        <ele>0.4</ele>
        <time>2021-08-04T11:34:06Z</time>
      </trkpt>
      <trkpt lat="47.59303" lon="-3.01543">
        <ele>0.6</ele>
        <time>2021-08-04T11:34:07Z</time>
      </trkpt>
      <trkpt lat="47.59305" lon="-3.01541">
        <ele>0.8</ele>
        <time>2021-08-04T11:34:08Z</time>
      </trkpt>
      <trkpt lat="47.59307" lon="-3.01538">
        <ele>1</ele>
        <time>2021-08-04T11:34:09Z</time>
      </trkpt>
      <trkpt lat="47.59309" lon="-3.01536">
        <ele>1.2</ele>
        <time>2021-08-04T11:34:10Z</time>
      </trkpt>
      <trkpt lat="47.5931" lon="-3.01533">
        <ele>1.4</ele>
        <time>2021-08-04T11:34:11Z</time>
      </trkpt>
      <trkpt lat="47.59311" lon="-3.01532">
        <ele>1.4</ele>
        <time>2021-08-04T11:34:12Z</time>
      </trkpt>
      <trkpt lat="47.59311" lon="-3.01531">
        <ele>1.6</ele>
        <time>2021-08-04T11:34:13Z</time>
      </trkpt>
      <trkpt lat="47.59313" lon="-3.01532">
        <ele>2</ele>
        <time>2021-08-04T11:34:23Z</time>
      </trkpt>
      <trkpt lat="47.59314" lon="-3.01531">
        <ele>2</ele>
        <time>2021-08-04T11:34:24Z</time>
      </trkpt>
      <trkpt lat="47.59315" lon="-3.01531">
        <ele>2.2</ele>
        <time>2021-08-04T11:34:25Z</time>
      </trkpt>
      <trkpt lat="47.59321" lon="-3.01532">
        <ele>2.4</ele>
        <time>2021-08-04T11:39:43Z</time>
      </trkpt>
      <trkpt lat="47.59322" lon="-3.01531">
        <ele>2.4</ele>
        <time>2021-08-04T11:39:44Z</time>
      </trkpt>
      <trkpt lat="47.59324" lon="-3.0153">
        <ele>2</ele>
        <time>2021-08-04T11:39:45Z</time>
      </trkpt>
      <trkpt lat="47.59326" lon="-3.01528">
        <ele>2</ele>
        <time>2021-08-04T11:39:46Z</time>
      </trkpt>
      <trkpt lat="47.59328" lon="-3.01526">
        <ele>2</ele>
        <time>2021-08-04T11:39:47Z</time>
      </trkpt>
      <trkpt lat="47.59331" lon="-3.01524">
        <ele>2</ele>
        <time>2021-08-04T11:39:48Z</time>
      </trkpt>
      <trkpt lat="47.59333" lon="-3.01522">
        <ele>2</ele>
        <time>2021-08-04T11:39:49Z</time>
      </trkpt>
      <trkpt lat="47.59336" lon="-3.0152">
        <ele>2</ele>
        <time>2021-08-04T11:39:50Z</time>
      </trkpt>
      <trkpt lat="47.59339" lon="-3.01517">
        <ele>1.8</ele>
        <time>2021-08-04T11:39:51Z</time>
      </trkpt>
      <trkpt lat="47.59343" lon="-3.01514">
        <ele>1.8</ele>
        <time>2021-08-04T11:39:52Z</time>
      </trkpt>
      <trkpt lat="47.59347" lon="-3.01512">
        <ele>1.6</ele>
        <time>2021-08-04T11:39:53Z</time>
      </trkpt>
      <trkpt lat="47.59351" lon="-3.01509">
        <ele>1.4</ele>
        <time>2021-08-04T11:39:54Z</time>
      </trkpt>
      <trkpt lat="47.59354" lon="-3.01507">
        <ele>1.2</ele>
        <time>2021-08-04T11:39:55Z</time>
      </trkpt>
      <trkpt lat="47.59358" lon="-3.01504">
        <ele>1</ele>
        <time>2021-08-04T11:39:56Z</time>
      </trkpt>
      <trkpt lat="47.59363" lon="-3.01502">
        <ele>1</ele>
        <time>2021-08-04T11:39:57Z</time>
      </trkpt>
      <trkpt lat="47.59367" lon="-3.01499">
        <ele>1</ele>
        <time>2021-08-04T11:39:58Z</time>
      </trkpt>
      <trkpt lat="47.59371" lon="-3.01497">
        <ele>0.8</ele>
        <time>2021-08-04T11:39:59Z</time>
      </trkpt>
      <trkpt lat="47.59376" lon="-3.01496">
        <ele>0.8</ele>
        <time>2021-08-04T11:40:00Z</time>
      </trkpt>
      <trkpt lat="47.5938" lon="-3.01495">
        <ele>0.8</ele>
        <time>2021-08-04T11:40:01Z</time>
      </trkpt>
      <trkpt lat="47.59385" lon="-3.01494">
        <ele>0.8</ele>
        <time>2021-08-04T11:40:02Z</time>
      </trkpt>
      <trkpt lat="47.59389" lon="-3.01493">
        <ele>0.8</ele>
        <time>2021-08-04T11:40:03Z</time>
      </trkpt>
      <trkpt lat="47.59394" lon="-3.01492">
        <ele>0.6</ele>
        <time>2021-08-04T11:40:04Z</time>
      </trkpt>
      <trkpt lat="47.59399" lon="-3.01492">
        <ele>0.6</ele>
        <time>2021-08-04T11:40:05Z</time>
      </trkpt>
      <trkpt lat="47.59404" lon="-3.01491">
        <ele>0.6</ele>
        <time>2021-08-04T11:40:06Z</time>
      </trkpt>
      <trkpt lat="47.59409" lon="-3.01492">
        <ele>0.6</ele>
        <time>2021-08-04T11:40:07Z</time>
      </trkpt>
      <trkpt lat="47.59414" lon="-3.01492">
        <ele>0.6</ele>
        <time>2021-08-04T11:40:08Z</time>
      </trkpt>
      <trkpt lat="47.59419" lon="-3.01493">
        <ele>0.6</ele>
        <time>2021-08-04T11:40:09Z</time>
      </trkpt>
      <trkpt lat="47.59425" lon="-3.01494">
        <ele>0.6</ele>
        <time>2021-08-04T11:40:10Z</time>
      </trkpt>
      <trkpt lat="47.5943" lon="-3.01495">
        <ele>0.4</ele>
        <time>2021-08-04T11:40:11Z</time>
      </trkpt>
      <trkpt lat="47.59435" lon="-3.01496">
        <ele>0.4</ele>
        <time>2021-08-04T11:40:12Z</time>
      </trkpt>
      <trkpt lat="47.59441" lon="-3.01498">
        <ele>0.4</ele>
        <time>2021-08-04T11:40:13Z</time>
      </trkpt>
      <trkpt lat="47.59447" lon="-3.015">
        <ele>0.4</ele>
        <time>2021-08-04T11:40:14Z</time>
      </trkpt>
      <trkpt lat="47.59453" lon="-3.01503">
        <ele>0.4</ele>
        <time>2021-08-04T11:40:15Z</time>
      </trkpt>
      <trkpt lat="47.59459" lon="-3.01505">
        <ele>0.4</ele>
        <time>2021-08-04T11:40:16Z</time>
      </trkpt>
      <trkpt lat="47.59466" lon="-3.01508">
        <ele>0.4</ele>
        <time>2021-08-04T11:40:17Z</time>
      </trkpt>
      <trkpt lat="47.59473" lon="-3.01511">
        <ele>0.4</ele>
        <time>2021-08-04T11:40:18Z</time>
      </trkpt>
      <trkpt lat="47.59479" lon="-3.01514">
        <ele>0.4</ele>
        <time>2021-08-04T11:40:19Z</time>
      </trkpt>
      <trkpt lat="47.59486" lon="-3.01517">
        <ele>0.2</ele>
        <time>2021-08-04T11:40:20Z</time>
      </trkpt>
      <trkpt lat="47.59493" lon="-3.0152">
        <ele>0.2</ele>
        <time>2021-08-04T11:40:21Z</time>
      </trkpt>
      <trkpt lat="47.59499" lon="-3.01522">
        <ele>-0.2</ele>
        <time>2021-08-04T11:40:22Z</time>
      </trkpt>
      <trkpt lat="47.59505" lon="-3.01524">
        <ele>-0.6</ele>
        <time>2021-08-04T11:40:23Z</time>
      </trkpt>
      <trkpt lat="47.59512" lon="-3.01525">
        <ele>-0.8</ele>
        <time>2021-08-04T11:40:24Z</time>
      </trkpt>
      <trkpt lat="47.59518" lon="-3.01526">
        <ele>-1</ele>
        <time>2021-08-04T11:40:25Z</time>
      </trkpt>
      <trkpt lat="47.59524" lon="-3.01527">
        <ele>-1.2</ele>
        <time>2021-08-04T11:40:26Z</time>
      </trkpt>
      <trkpt lat="47.5953" lon="-3.01527">
        <ele>-1.4</ele>
        <time>2021-08-04T11:40:27Z</time>
      </trkpt>
      <trkpt lat="47.59536" lon="-3.01526">
        <ele>-2</ele>
        <time>2021-08-04T11:40:28Z</time>
      </trkpt>
      <trkpt lat="47.59542" lon="-3.01525">
        <ele>-2.4</ele>
        <time>2021-08-04T11:40:29Z</time>
      </trkpt>
      <trkpt lat="47.59547" lon="-3.01524">
        <ele>-2.8</ele>
        <time>2021-08-04T11:40:30Z</time>
      </trkpt>
      <trkpt lat="47.59552" lon="-3.01522">
        <ele>-3</ele>
        <time>2021-08-04T11:40:31Z</time>
      </trkpt>
      <trkpt lat="47.59558" lon="-3.01519">
        <ele>-3.2</ele>
        <time>2021-08-04T11:40:32Z</time>
      </trkpt>
      <trkpt lat="47.59563" lon="-3.01516">
        <ele>-3.2</ele>
        <time>2021-08-04T11:40:33Z</time>
      </trkpt>
      <trkpt lat="47.59568" lon="-3.01514">
        <ele>-3.4</ele>
        <time>2021-08-04T11:40:34Z</time>
      </trkpt>
      <trkpt lat="47.59574" lon="-3.01511">
        <ele>-3.4</ele>
        <time>2021-08-04T11:40:35Z</time>
      </trkpt>
      <trkpt lat="47.59579" lon="-3.01508">
        <ele>-3.4</ele>
        <time>2021-08-04T11:40:36Z</time>
      </trkpt>
      <trkpt lat="47.59584" lon="-3.01505">
        <ele>-3.6</ele>
        <time>2021-08-04T11:40:37Z</time>
      </trkpt>
      <trkpt lat="47.5959" lon="-3.01502">
        <ele>-3.6</ele>
        <time>2021-08-04T11:40:38Z</time>
      </trkpt>
      <trkpt lat="47.59595" lon="-3.01499">
        <ele>-3.6</ele>
        <time>2021-08-04T11:40:39Z</time>
      </trkpt>
      <trkpt lat="47.59601" lon="-3.01497">
        <ele>-3.6</ele>
        <time>2021-08-04T11:40:40Z</time>
      </trkpt>
      <trkpt lat="47.59606" lon="-3.01494">
        <ele>-3.6</ele>
        <time>2021-08-04T11:40:41Z</time>
      </trkpt>
      <trkpt lat="47.59611" lon="-3.01491">
        <ele>-3.6</ele>
        <time>2021-08-04T11:40:42Z</time>
      </trkpt>
      <trkpt lat="47.59616" lon="-3.01488">
        <ele>-3.6</ele>
        <time>2021-08-04T11:40:43Z</time>
      </trkpt>
      <trkpt lat="47.5962" lon="-3.01486">
        <ele>-3.6</ele>
        <time>2021-08-04T11:40:44Z</time>
      </trkpt>
      <trkpt lat="47.59625" lon="-3.01483">
        <ele>-3.6</ele>
        <time>2021-08-04T11:40:45Z</time>
      </trkpt>
      <trkpt lat="47.5963" lon="-3.01481">
        <ele>-3.6</ele>
        <time>2021-08-04T11:40:46Z</time>
      </trkpt>
      <trkpt lat="47.59634" lon="-3.01478">
        <ele>-3.6</ele>
        <time>2021-08-04T11:40:47Z</time>
      </trkpt>
      <trkpt lat="47.59639" lon="-3.01475">
        <ele>-3.6</ele>
        <time>2021-08-04T11:40:48Z</time>
      </trkpt>
      <trkpt lat="47.59644" lon="-3.01473">
        <ele>-3.4</ele>
        <time>2021-08-04T11:40:49Z</time>
      </trkpt>
      <trkpt lat="47.59649" lon="-3.0147">
        <ele>-3.4</ele>
        <time>2021-08-04T11:40:50Z</time>
      </trkpt>
      <trkpt lat="47.59653" lon="-3.01468">
        <ele>-3.2</ele>
        <time>2021-08-04T11:40:51Z</time>
      </trkpt>
      <trkpt lat="47.59658" lon="-3.01465">
        <ele>-3.2</ele>
        <time>2021-08-04T11:40:52Z</time>
      </trkpt>
      <trkpt lat="47.59663" lon="-3.01462">
        <ele>-3.2</ele>
        <time>2021-08-04T11:40:53Z</time>
      </trkpt>
      <trkpt lat="47.59667" lon="-3.0146">
        <ele>-3.2</ele>
        <time>2021-08-04T11:40:54Z</time>
      </trkpt>
      <trkpt lat="47.59672" lon="-3.01457">
        <ele>-3</ele>
        <time>2021-08-04T11:40:55Z</time>
      </trkpt>
      <trkpt lat="47.59677" lon="-3.01455">
        <ele>-3</ele>
        <time>2021-08-04T11:40:56Z</time>
      </trkpt>
      <trkpt lat="47.59681" lon="-3.01452">
        <ele>-3</ele>
        <time>2021-08-04T11:40:57Z</time>
      </trkpt>
      <trkpt lat="47.59686" lon="-3.0145">
        <ele>-3</ele>
        <time>2021-08-04T11:40:58Z</time>
      </trkpt>
      <trkpt lat="47.59691" lon="-3.01447">
        <ele>-3</ele>
        <time>2021-08-04T11:40:59Z</time>
      </trkpt>
      <trkpt lat="47.59695" lon="-3.01445">
        <ele>-2.8</ele>
        <time>2021-08-04T11:41:00Z</time>
      </trkpt>
      <trkpt lat="47.597" lon="-3.01442">
        <ele>-2.8</ele>
        <time>2021-08-04T11:41:01Z</time>
      </trkpt>
      <trkpt lat="47.59705" lon="-3.0144">
        <ele>-2.8</ele>
        <time>2021-08-04T11:41:02Z</time>
      </trkpt>
      <trkpt lat="47.5971" lon="-3.01437">
        <ele>-2.8</ele>
        <time>2021-08-04T11:41:03Z</time>
      </trkpt>
      <trkpt lat="47.59715" lon="-3.01435">
        <ele>-2.6</ele>
        <time>2021-08-04T11:41:04Z</time>
      </trkpt>
      <trkpt lat="47.5972" lon="-3.01432">
        <ele>-2.6</ele>
        <time>2021-08-04T11:41:05Z</time>
      </trkpt>
      <trkpt lat="47.59725" lon="-3.01429">
        <ele>-2.6</ele>
        <time>2021-08-04T11:41:06Z</time>
      </trkpt>
      <trkpt lat="47.5973" lon="-3.01426">
        <ele>-2.6</ele>
        <time>2021-08-04T11:41:07Z</time>
      </trkpt>
      <trkpt lat="47.59734" lon="-3.01424">
        <ele>-2.6</ele>
        <time>2021-08-04T11:41:08Z</time>
      </trkpt>
      <trkpt lat="47.59739" lon="-3.01421">
        <ele>-2.4</ele>
        <time>2021-08-04T11:41:09Z</time>
      </trkpt>
      <trkpt lat="47.59743" lon="-3.01418">
        <ele>-2.4</ele>
        <time>2021-08-04T11:41:10Z</time>
      </trkpt>
      <trkpt lat="47.59747" lon="-3.01416">
        <ele>-2.2</ele>
        <time>2021-08-04T11:41:11Z</time>
      </trkpt>
      <trkpt lat="47.59751" lon="-3.01413">
        <ele>-2.2</ele>
        <time>2021-08-04T11:41:12Z</time>
      </trkpt>
      <trkpt lat="47.59755" lon="-3.0141">
        <ele>-2.2</ele>
        <time>2021-08-04T11:41:13Z</time>
      </trkpt>
      <trkpt lat="47.59759" lon="-3.01408">
        <ele>-2</ele>
        <time>2021-08-04T11:41:14Z</time>
      </trkpt>
      <trkpt lat="47.59764" lon="-3.01405">
        <ele>-2</ele>
        <time>2021-08-04T11:41:15Z</time>
      </trkpt>
      <trkpt lat="47.59769" lon="-3.01403">
        <ele>-2</ele>
        <time>2021-08-04T11:41:16Z</time>
      </trkpt>
      <trkpt lat="47.59774" lon="-3.01401">
        <ele>-2</ele>
        <time>2021-08-04T11:41:17Z</time>
      </trkpt>
      <trkpt lat="47.59779" lon="-3.01398">
        <ele>-1.8</ele>
        <time>2021-08-04T11:41:18Z</time>
      </trkpt>
      <trkpt lat="47.59784" lon="-3.01395">
        <ele>-1.8</ele>
        <time>2021-08-04T11:41:19Z</time>
      </trkpt>
      <trkpt lat="47.59789" lon="-3.01393">
        <ele>-1.8</ele>
        <time>2021-08-04T11:41:20Z</time>
      </trkpt>
      <trkpt lat="47.59794" lon="-3.0139">
        <ele>-1.6</ele>
        <time>2021-08-04T11:41:21Z</time>
      </trkpt>
      <trkpt lat="47.59799" lon="-3.01387">
        <ele>-1.6</ele>
        <time>2021-08-04T11:41:22Z</time>
      </trkpt>
      <trkpt lat="47.59804" lon="-3.01385">
        <ele>-1.6</ele>
        <time>2021-08-04T11:41:23Z</time>
      </trkpt>
      <trkpt lat="47.59809" lon="-3.01382">
        <ele>-1.6</ele>
        <time>2021-08-04T11:41:24Z</time>
      </trkpt>
      <trkpt lat="47.59814" lon="-3.0138">
        <ele>-1.6</ele>
        <time>2021-08-04T11:41:25Z</time>
      </trkpt>
      <trkpt lat="47.59818" lon="-3.01377">
        <ele>-1.4</ele>
        <time>2021-08-04T11:41:26Z</time>
      </trkpt>
      <trkpt lat="47.59823" lon="-3.01375">
        <ele>-1.4</ele>
        <time>2021-08-04T11:41:27Z</time>
      </trkpt>
      <trkpt lat="47.59827" lon="-3.01373">
        <ele>-1.4</ele>
        <time>2021-08-04T11:41:28Z</time>
      </trkpt>
      <trkpt lat="47.59832" lon="-3.0137">
        <ele>-1.4</ele>
        <time>2021-08-04T11:41:29Z</time>
      </trkpt>
      <trkpt lat="47.59836" lon="-3.01368">
        <ele>-1.2</ele>
        <time>2021-08-04T11:41:30Z</time>
      </trkpt>
      <trkpt lat="47.5984" lon="-3.01365">
        <ele>-1.2</ele>
        <time>2021-08-04T11:41:31Z</time>
      </trkpt>
      <trkpt lat="47.59844" lon="-3.01363">
        <ele>-1.2</ele>
        <time>2021-08-04T11:41:32Z</time>
      </trkpt>
      <trkpt lat="47.59849" lon="-3.0136">
        <ele>-1.2</ele>
        <time>2021-08-04T11:41:33Z</time>
      </trkpt>
      <trkpt lat="47.59853" lon="-3.01358">
        <ele>-1</ele>
        <time>2021-08-04T11:41:34Z</time>
      </trkpt>
      <trkpt lat="47.59857" lon="-3.01355">
        <ele>-1</ele>
        <time>2021-08-04T11:41:35Z</time>
      </trkpt>
      <trkpt lat="47.59861" lon="-3.01352">
        <ele>-0.6</ele>
        <time>2021-08-04T11:41:36Z</time>
      </trkpt>
      <trkpt lat="47.59866" lon="-3.01349">
        <ele>-0.4</ele>
        <time>2021-08-04T11:41:37Z</time>
      </trkpt>
      <trkpt lat="47.5987" lon="-3.01346">
        <ele>-0.4</ele>
        <time>2021-08-04T11:41:38Z</time>
      </trkpt>
      <trkpt lat="47.59875" lon="-3.01343">
        <ele>-0.4</ele>
        <time>2021-08-04T11:41:39Z</time>
      </trkpt>
      <trkpt lat="47.59879" lon="-3.0134">
        <ele>-0.4</ele>
        <time>2021-08-04T11:41:40Z</time>
      </trkpt>
      <trkpt lat="47.59882" lon="-3.01337">
        <ele>-0.2</ele>
        <time>2021-08-04T11:41:41Z</time>
      </trkpt>
      <trkpt lat="47.59886" lon="-3.01333">
        <ele>-0.4</ele>
        <time>2021-08-04T11:41:42Z</time>
      </trkpt>
      <trkpt lat="47.59889" lon="-3.0133">
        <ele>-0.4</ele>
        <time>2021-08-04T11:41:43Z</time>
      </trkpt>
      <trkpt lat="47.59892" lon="-3.01327">
        <ele>-0.2</ele>
        <time>2021-08-04T11:41:44Z</time>
      </trkpt>
      <trkpt lat="47.59895" lon="-3.01325">
        <ele>-0.2</ele>
        <time>2021-08-04T11:41:45Z</time>
      </trkpt>
      <trkpt lat="47.59898" lon="-3.01322">
        <ele>-0.4</ele>
        <time>2021-08-04T11:41:46Z</time>
      </trkpt>
      <trkpt lat="47.59901" lon="-3.0132">
        <ele>-0.2</ele>
        <time>2021-08-04T11:41:47Z</time>
      </trkpt>
      <trkpt lat="47.59904" lon="-3.01317">
        <ele>-0.2</ele>
        <time>2021-08-04T11:41:48Z</time>
      </trkpt>
      <trkpt lat="47.59907" lon="-3.01315">
        <ele>-0.2</ele>
        <time>2021-08-04T11:41:49Z</time>
      </trkpt>
      <trkpt lat="47.5991" lon="-3.01312">
        <ele>-0.2</ele>
        <time>2021-08-04T11:41:50Z</time>
      </trkpt>
      <trkpt lat="47.59913" lon="-3.01309">
        <ele>-0.2</ele>
        <time>2021-08-04T11:41:51Z</time>
      </trkpt>
      <trkpt lat="47.59916" lon="-3.01305">
        <ele>-0.2</ele>
        <time>2021-08-04T11:41:52Z</time>
      </trkpt>
      <trkpt lat="47.5992" lon="-3.01302">
        <ele>-0.2</ele>
        <time>2021-08-04T11:41:53Z</time>
      </trkpt>
      <trkpt lat="47.59923" lon="-3.01299">
        <ele>0.2</ele>
        <time>2021-08-04T11:41:54Z</time>
      </trkpt>
      <trkpt lat="47.59927" lon="-3.01296">
        <ele>0.2</ele>
        <time>2021-08-04T11:41:55Z</time>
      </trkpt>
      <trkpt lat="47.59931" lon="-3.01293">
        <ele>0.4</ele>
        <time>2021-08-04T11:41:56Z</time>
      </trkpt>
      <trkpt lat="47.59934" lon="-3.01289">
        <ele>0.4</ele>
        <time>2021-08-04T11:41:57Z</time>
      </trkpt>
      <trkpt lat="47.59938" lon="-3.01286">
        <ele>0.6</ele>
        <time>2021-08-04T11:41:58Z</time>
      </trkpt>
      <trkpt lat="47.59942" lon="-3.01283">
        <ele>0.6</ele>
        <time>2021-08-04T11:41:59Z</time>
      </trkpt>
      <trkpt lat="47.59946" lon="-3.0128">
        <ele>0.8</ele>
        <time>2021-08-04T11:42:00Z</time>
      </trkpt>
      <trkpt lat="47.59949" lon="-3.01276">
        <ele>0.8</ele>
        <time>2021-08-04T11:42:01Z</time>
      </trkpt>
      <trkpt lat="47.59953" lon="-3.01273">
        <ele>0.8</ele>
        <time>2021-08-04T11:42:02Z</time>
      </trkpt>
      <trkpt lat="47.59957" lon="-3.0127">
        <ele>0.8</ele>
        <time>2021-08-04T11:42:03Z</time>
      </trkpt>
      <trkpt lat="47.59961" lon="-3.01266">
        <ele>0.8</ele>
        <time>2021-08-04T11:42:04Z</time>
      </trkpt>
      <trkpt lat="47.59964" lon="-3.01263">
        <ele>1</ele>
        <time>2021-08-04T11:42:05Z</time>
      </trkpt>
      <trkpt lat="47.59968" lon="-3.01259">
        <ele>1</ele>
        <time>2021-08-04T11:42:06Z</time>
      </trkpt>
      <trkpt lat="47.59972" lon="-3.01256">
        <ele>1.2</ele>
        <time>2021-08-04T11:42:07Z</time>
      </trkpt>
      <trkpt lat="47.59976" lon="-3.01253">
        <ele>1.2</ele>
        <time>2021-08-04T11:42:08Z</time>
      </trkpt>
      <trkpt lat="47.59979" lon="-3.0125">
        <ele>1.4</ele>
        <time>2021-08-04T11:42:09Z</time>
      </trkpt>
      <trkpt lat="47.59983" lon="-3.01247">
        <ele>1.4</ele>
        <time>2021-08-04T11:42:10Z</time>
      </trkpt>
      <trkpt lat="47.59986" lon="-3.01244">
        <ele>1.4</ele>
        <time>2021-08-04T11:42:11Z</time>
      </trkpt>
      <trkpt lat="47.5999" lon="-3.01241">
        <ele>1.4</ele>
        <time>2021-08-04T11:42:12Z</time>
      </trkpt>
      <trkpt lat="47.59994" lon="-3.01237">
        <ele>1.6</ele>
        <time>2021-08-04T11:42:13Z</time>
      </trkpt>
      <trkpt lat="47.59998" lon="-3.01234">
        <ele>1.8</ele>
        <time>2021-08-04T11:42:14Z</time>
      </trkpt>
      <trkpt lat="47.60001" lon="-3.0123">
        <ele>1.8</ele>
        <time>2021-08-04T11:42:15Z</time>
      </trkpt>
      <trkpt lat="47.60005" lon="-3.01227">
        <ele>2</ele>
        <time>2021-08-04T11:42:16Z</time>
      </trkpt>
      <trkpt lat="47.60009" lon="-3.01223">
        <ele>2</ele>
        <time>2021-08-04T11:42:17Z</time>
      </trkpt>
      <trkpt lat="47.60013" lon="-3.0122">
        <ele>2</ele>
        <time>2021-08-04T11:42:18Z</time>
      </trkpt>
      <trkpt lat="47.60016" lon="-3.01217">
        <ele>2</ele>
        <time>2021-08-04T11:42:19Z</time>
      </trkpt>
      <trkpt lat="47.6002" lon="-3.01214">
        <ele>2</ele>
        <time>2021-08-04T11:42:20Z</time>
      </trkpt>
      <trkpt lat="47.60024" lon="-3.01211">
        <ele>2</ele>
        <time>2021-08-04T11:42:21Z</time>
      </trkpt>
      <trkpt lat="47.60027" lon="-3.01208">
        <ele>2</ele>
        <time>2021-08-04T11:42:22Z</time>
      </trkpt>
      <trkpt lat="47.60031" lon="-3.01204">
        <ele>2</ele>
        <time>2021-08-04T11:42:23Z</time>
      </trkpt>
      <trkpt lat="47.60034" lon="-3.01201">
        <ele>2.2</ele>
        <time>2021-08-04T11:42:24Z</time>
      </trkpt>
      <trkpt lat="47.60037" lon="-3.01198">
        <ele>2.2</ele>
        <time>2021-08-04T11:42:25Z</time>
      </trkpt>
      <trkpt lat="47.6004" lon="-3.01194">
        <ele>2.2</ele>
        <time>2021-08-04T11:42:26Z</time>
      </trkpt>
      <trkpt lat="47.60044" lon="-3.01191">
        <ele>2.2</ele>
        <time>2021-08-04T11:42:27Z</time>
      </trkpt>
      <trkpt lat="47.60048" lon="-3.01188">
        <ele>2.2</ele>
        <time>2021-08-04T11:42:28Z</time>
      </trkpt>
      <trkpt lat="47.60051" lon="-3.01185">
        <ele>2.2</ele>
        <time>2021-08-04T11:42:29Z</time>
      </trkpt>
      <trkpt lat="47.60055" lon="-3.01182">
        <ele>2.2</ele>
        <time>2021-08-04T11:42:30Z</time>
      </trkpt>
      <trkpt lat="47.60058" lon="-3.01178">
        <ele>2.4</ele>
        <time>2021-08-04T11:42:31Z</time>
      </trkpt>
      <trkpt lat="47.60062" lon="-3.01175">
        <ele>2.4</ele>
        <time>2021-08-04T11:42:32Z</time>
      </trkpt>
      <trkpt lat="47.60066" lon="-3.01172">
        <ele>2.4</ele>
        <time>2021-08-04T11:42:33Z</time>
      </trkpt>
      <trkpt lat="47.60069" lon="-3.01169">
        <ele>2.6</ele>
        <time>2021-08-04T11:42:34Z</time>
      </trkpt>
      <trkpt lat="47.60073" lon="-3.01166">
        <ele>2.6</ele>
        <time>2021-08-04T11:42:35Z</time>
      </trkpt>
      <trkpt lat="47.60076" lon="-3.01163">
        <ele>2.6</ele>
        <time>2021-08-04T11:42:36Z</time>
      </trkpt>
      <trkpt lat="47.60079" lon="-3.0116">
        <ele>2.6</ele>
        <time>2021-08-04T11:42:37Z</time>
      </trkpt>
      <trkpt lat="47.60083" lon="-3.01158">
        <ele>2.6</ele>
        <time>2021-08-04T11:42:38Z</time>
      </trkpt>
      <trkpt lat="47.60086" lon="-3.01155">
        <ele>2.8</ele>
        <time>2021-08-04T11:42:39Z</time>
      </trkpt>
      <trkpt lat="47.60089" lon="-3.01152">
        <ele>2.8</ele>
        <time>2021-08-04T11:42:40Z</time>
      </trkpt>
      <trkpt lat="47.60092" lon="-3.01149">
        <ele>2.8</ele>
        <time>2021-08-04T11:42:41Z</time>
      </trkpt>
      <trkpt lat="47.60094" lon="-3.01147">
        <ele>2.8</ele>
        <time>2021-08-04T11:42:42Z</time>
      </trkpt>
      <trkpt lat="47.60097" lon="-3.01144">
        <ele>3</ele>
        <time>2021-08-04T11:42:43Z</time>
      </trkpt>
      <trkpt lat="47.601" lon="-3.01141">
        <ele>3</ele>
        <time>2021-08-04T11:42:44Z</time>
      </trkpt>
      <trkpt lat="47.60103" lon="-3.01139">
        <ele>3</ele>
        <time>2021-08-04T11:42:45Z</time>
      </trkpt>
      <trkpt lat="47.60106" lon="-3.01136">
        <ele>3.2</ele>
        <time>2021-08-04T11:42:46Z</time>
      </trkpt>
      <trkpt lat="47.60109" lon="-3.01133">
        <ele>3.2</ele>
        <time>2021-08-04T11:42:47Z</time>
      </trkpt>
      <trkpt lat="47.60112" lon="-3.0113">
        <ele>3.2</ele>
        <time>2021-08-04T11:42:48Z</time>
      </trkpt>
      <trkpt lat="47.60116" lon="-3.01127">
        <ele>3.2</ele>
        <time>2021-08-04T11:42:49Z</time>
      </trkpt>
      <trkpt lat="47.60119" lon="-3.01124">
        <ele>3.2</ele>
        <time>2021-08-04T11:42:50Z</time>
      </trkpt>
      <trkpt lat="47.60122" lon="-3.01121">
        <ele>3.2</ele>
        <time>2021-08-04T11:42:51Z</time>
      </trkpt>
      <trkpt lat="47.60126" lon="-3.01118">
        <ele>3.2</ele>
        <time>2021-08-04T11:42:52Z</time>
      </trkpt>
      <trkpt lat="47.6013" lon="-3.01115">
        <ele>3.2</ele>
        <time>2021-08-04T11:42:53Z</time>
      </trkpt>
      <trkpt lat="47.60133" lon="-3.01111">
        <ele>3.2</ele>
        <time>2021-08-04T11:42:54Z</time>
      </trkpt>
      <trkpt lat="47.60137" lon="-3.01108">
        <ele>3.2</ele>
        <time>2021-08-04T11:42:55Z</time>
      </trkpt>
      <trkpt lat="47.60141" lon="-3.01105">
        <ele>3.2</ele>
        <time>2021-08-04T11:42:56Z</time>
      </trkpt>
      <trkpt lat="47.60145" lon="-3.01102">
        <ele>3.2</ele>
        <time>2021-08-04T11:42:57Z</time>
      </trkpt>
      <trkpt lat="47.60148" lon="-3.01099">
        <ele>3.2</ele>
        <time>2021-08-04T11:42:58Z</time>
      </trkpt>
      <trkpt lat="47.60152" lon="-3.01096">
        <ele>3.2</ele>
        <time>2021-08-04T11:42:59Z</time>
      </trkpt>
      <trkpt lat="47.60156" lon="-3.01093">
        <ele>3.2</ele>
        <time>2021-08-04T11:43:00Z</time>
      </trkpt>
      <trkpt lat="47.6016" lon="-3.0109">
        <ele>3.2</ele>
        <time>2021-08-04T11:43:01Z</time>
      </trkpt>
      <trkpt lat="47.60164" lon="-3.01087">
        <ele>3.2</ele>
        <time>2021-08-04T11:43:02Z</time>
      </trkpt>
      <trkpt lat="47.60168" lon="-3.01085">
        <ele>3.2</ele>
        <time>2021-08-04T11:43:03Z</time>
      </trkpt>
      <trkpt lat="47.60172" lon="-3.01082">
        <ele>3.2</ele>
        <time>2021-08-04T11:43:04Z</time>
      </trkpt>
      <trkpt lat="47.60177" lon="-3.0108">
        <ele>3.2</ele>
        <time>2021-08-04T11:43:05Z</time>
      </trkpt>
      <trkpt lat="47.60181" lon="-3.01079">
        <ele>3.2</ele>
        <time>2021-08-04T11:43:06Z</time>
      </trkpt>
      <trkpt lat="47.60185" lon="-3.01077">
        <ele>3.2</ele>
        <time>2021-08-04T11:43:07Z</time>
      </trkpt>
      <trkpt lat="47.6019" lon="-3.01075">
        <ele>3.2</ele>
        <time>2021-08-04T11:43:08Z</time>
      </trkpt>
      <trkpt lat="47.60195" lon="-3.01074">
        <ele>3.2</ele>
        <time>2021-08-04T11:43:09Z</time>
      </trkpt>
      <trkpt lat="47.60199" lon="-3.01073">
        <ele>3.2</ele>
        <time>2021-08-04T11:43:10Z</time>
      </trkpt>
      <trkpt lat="47.60204" lon="-3.01073">
        <ele>3.2</ele>
        <time>2021-08-04T11:43:11Z</time>
      </trkpt>
      <trkpt lat="47.60209" lon="-3.01073">
        <ele>3.2</ele>
        <time>2021-08-04T11:43:12Z</time>
      </trkpt>
      <trkpt lat="47.60213" lon="-3.01073">
        <ele>3.2</ele>
        <time>2021-08-04T11:43:13Z</time>
      </trkpt>
      <trkpt lat="47.60218" lon="-3.01074">
        <ele>3.2</ele>
        <time>2021-08-04T11:43:14Z</time>
      </trkpt>
      <trkpt lat="47.60222" lon="-3.01075">
        <ele>3.2</ele>
        <time>2021-08-04T11:43:15Z</time>
      </trkpt>
      <trkpt lat="47.60226" lon="-3.01076">
        <ele>3.2</ele>
        <time>2021-08-04T11:43:16Z</time>
      </trkpt>
      <trkpt lat="47.60231" lon="-3.01078">
        <ele>3.2</ele>
        <time>2021-08-04T11:43:17Z</time>
      </trkpt>
      <trkpt lat="47.60235" lon="-3.0108">
        <ele>3.2</ele>
        <time>2021-08-04T11:43:18Z</time>
      </trkpt>
      <trkpt lat="47.6024" lon="-3.01082">
        <ele>3.2</ele>
        <time>2021-08-04T11:43:19Z</time>
      </trkpt>
      <trkpt lat="47.60245" lon="-3.01084">
        <ele>3.4</ele>
        <time>2021-08-04T11:43:20Z</time>
      </trkpt>
      <trkpt lat="47.60249" lon="-3.01086">
        <ele>3.4</ele>
        <time>2021-08-04T11:43:21Z</time>
      </trkpt>
      <trkpt lat="47.60254" lon="-3.01088">
        <ele>3.4</ele>
        <time>2021-08-04T11:43:22Z</time>
      </trkpt>
      <trkpt lat="47.60258" lon="-3.01091">
        <ele>3.4</ele>
        <time>2021-08-04T11:43:23Z</time>
      </trkpt>
      <trkpt lat="47.60263" lon="-3.01094">
        <ele>3.4</ele>
        <time>2021-08-04T11:43:24Z</time>
      </trkpt>
      <trkpt lat="47.60267" lon="-3.01096">
        <ele>3.4</ele>
        <time>2021-08-04T11:43:25Z</time>
      </trkpt>
      <trkpt lat="47.60272" lon="-3.01099">
        <ele>3.4</ele>
        <time>2021-08-04T11:43:26Z</time>
      </trkpt>
      <trkpt lat="47.60276" lon="-3.01102">
        <ele>3.4</ele>
        <time>2021-08-04T11:43:27Z</time>
      </trkpt>
      <trkpt lat="47.6028" lon="-3.01106">
        <ele>3.4</ele>
        <time>2021-08-04T11:43:28Z</time>
      </trkpt>
      <trkpt lat="47.60284" lon="-3.01109">
        <ele>3.6</ele>
        <time>2021-08-04T11:43:29Z</time>
      </trkpt>
      <trkpt lat="47.60288" lon="-3.01112">
        <ele>3.6</ele>
        <time>2021-08-04T11:43:30Z</time>
      </trkpt>
      <trkpt lat="47.60292" lon="-3.01116">
        <ele>3.6</ele>
        <time>2021-08-04T11:43:31Z</time>
      </trkpt>
      <trkpt lat="47.60296" lon="-3.01119">
        <ele>3.6</ele>
        <time>2021-08-04T11:43:32Z</time>
      </trkpt>
      <trkpt lat="47.603" lon="-3.01122">
        <ele>3.6</ele>
        <time>2021-08-04T11:43:33Z</time>
      </trkpt>
      <trkpt lat="47.60303" lon="-3.01126">
        <ele>3.6</ele>
        <time>2021-08-04T11:43:34Z</time>
      </trkpt>
      <trkpt lat="47.60307" lon="-3.01129">
        <ele>3.8</ele>
        <time>2021-08-04T11:43:35Z</time>
      </trkpt>
      <trkpt lat="47.60311" lon="-3.01132">
        <ele>3.8</ele>
        <time>2021-08-04T11:43:36Z</time>
      </trkpt>
      <trkpt lat="47.60315" lon="-3.01135">
        <ele>3.8</ele>
        <time>2021-08-04T11:43:37Z</time>
      </trkpt>
      <trkpt lat="47.60319" lon="-3.01138">
        <ele>4</ele>
        <time>2021-08-04T11:43:38Z</time>
      </trkpt>
      <trkpt lat="47.60323" lon="-3.01142">
        <ele>4</ele>
        <time>2021-08-04T11:43:39Z</time>
      </trkpt>
      <trkpt lat="47.60327" lon="-3.01145">
        <ele>4</ele>
        <time>2021-08-04T11:43:40Z</time>
      </trkpt>
      <trkpt lat="47.60331" lon="-3.01148">
        <ele>4</ele>
        <time>2021-08-04T11:43:41Z</time>
      </trkpt>
      <trkpt lat="47.60334" lon="-3.01152">
        <ele>4.2</ele>
        <time>2021-08-04T11:43:42Z</time>
      </trkpt>
      <trkpt lat="47.60338" lon="-3.01155">
        <ele>4.2</ele>
        <time>2021-08-04T11:43:43Z</time>
      </trkpt>
      <trkpt lat="47.60342" lon="-3.01159">
        <ele>4.2</ele>
        <time>2021-08-04T11:43:44Z</time>
      </trkpt>
      <trkpt lat="47.60346" lon="-3.01162">
        <ele>4.2</ele>
        <time>2021-08-04T11:43:45Z</time>
      </trkpt>
      <trkpt lat="47.6035" lon="-3.01165">
        <ele>4.2</ele>
        <time>2021-08-04T11:43:46Z</time>
      </trkpt>
      <trkpt lat="47.60354" lon="-3.01168">
        <ele>4.4</ele>
        <time>2021-08-04T11:43:47Z</time>
      </trkpt>
      <trkpt lat="47.60359" lon="-3.0117">
        <ele>4.4</ele>
        <time>2021-08-04T11:43:48Z</time>
      </trkpt>
      <trkpt lat="47.60363" lon="-3.01172">
        <ele>4.6</ele>
        <time>2021-08-04T11:43:49Z</time>
      </trkpt>
      <trkpt lat="47.60367" lon="-3.01174">
        <ele>4.6</ele>
        <time>2021-08-04T11:43:50Z</time>
      </trkpt>
      <trkpt lat="47.60371" lon="-3.01176">
        <ele>4.8</ele>
        <time>2021-08-04T11:43:51Z</time>
      </trkpt>
      <trkpt lat="47.60375" lon="-3.01178">
        <ele>4.8</ele>
        <time>2021-08-04T11:43:52Z</time>
      </trkpt>
      <trkpt lat="47.60379" lon="-3.0118">
        <ele>4.8</ele>
        <time>2021-08-04T11:43:53Z</time>
      </trkpt>
      <trkpt lat="47.60383" lon="-3.01181">
        <ele>5</ele>
        <time>2021-08-04T11:43:54Z</time>
      </trkpt>
      <trkpt lat="47.60388" lon="-3.01183">
        <ele>5.2</ele>
        <time>2021-08-04T11:43:55Z</time>
      </trkpt>
      <trkpt lat="47.60392" lon="-3.01184">
        <ele>5</ele>
        <time>2021-08-04T11:43:56Z</time>
      </trkpt>
      <trkpt lat="47.60396" lon="-3.01185">
        <ele>5.2</ele>
        <time>2021-08-04T11:43:57Z</time>
      </trkpt>
      <trkpt lat="47.604" lon="-3.01186">
        <ele>5.2</ele>
        <time>2021-08-04T11:43:58Z</time>
      </trkpt>
      <trkpt lat="47.60404" lon="-3.01187">
        <ele>5.2</ele>
        <time>2021-08-04T11:43:59Z</time>
      </trkpt>
      <trkpt lat="47.60408" lon="-3.01188">
        <ele>5.4</ele>
        <time>2021-08-04T11:44:00Z</time>
      </trkpt>
      <trkpt lat="47.60412" lon="-3.01188">
        <ele>5.6</ele>
        <time>2021-08-04T11:44:01Z</time>
      </trkpt>
      <trkpt lat="47.60416" lon="-3.01189">
        <ele>5.6</ele>
        <time>2021-08-04T11:44:02Z</time>
      </trkpt>
      <trkpt lat="47.6042" lon="-3.0119">
        <ele>5.8</ele>
        <time>2021-08-04T11:44:03Z</time>
      </trkpt>
      <trkpt lat="47.60424" lon="-3.01191">
        <ele>5.8</ele>
        <time>2021-08-04T11:44:04Z</time>
      </trkpt>
      <trkpt lat="47.60428" lon="-3.01192">
        <ele>5.8</ele>
        <time>2021-08-04T11:44:05Z</time>
      </trkpt>
      <trkpt lat="47.60432" lon="-3.01192">
        <ele>6</ele>
        <time>2021-08-04T11:44:06Z</time>
      </trkpt>
      <trkpt lat="47.60437" lon="-3.01193">
        <ele>6.2</ele>
        <time>2021-08-04T11:44:07Z</time>
      </trkpt>
      <trkpt lat="47.60441" lon="-3.01193">
        <ele>6.4</ele>
        <time>2021-08-04T11:44:08Z</time>
      </trkpt>
      <trkpt lat="47.60446" lon="-3.01194">
        <ele>6.4</ele>
        <time>2021-08-04T11:44:09Z</time>
      </trkpt>
      <trkpt lat="47.6045" lon="-3.01194">
        <ele>6.4</ele>
        <time>2021-08-04T11:44:10Z</time>
      </trkpt>
      <trkpt lat="47.60455" lon="-3.01195">
        <ele>6.6</ele>
        <time>2021-08-04T11:44:11Z</time>
      </trkpt>
      <trkpt lat="47.60459" lon="-3.01196">
        <ele>6.6</ele>
        <time>2021-08-04T11:44:12Z</time>
      </trkpt>
      <trkpt lat="47.60464" lon="-3.01197">
        <ele>6.6</ele>
        <time>2021-08-04T11:44:13Z</time>
      </trkpt>
      <trkpt lat="47.60468" lon="-3.01198">
        <ele>6.6</ele>
        <time>2021-08-04T11:44:14Z</time>
      </trkpt>
      <trkpt lat="47.60473" lon="-3.01198">
        <ele>6.6</ele>
        <time>2021-08-04T11:44:15Z</time>
      </trkpt>
      <trkpt lat="47.60478" lon="-3.01199">
        <ele>6.6</ele>
        <time>2021-08-04T11:44:16Z</time>
      </trkpt>
      <trkpt lat="47.60482" lon="-3.01199">
        <ele>6.6</ele>
        <time>2021-08-04T11:44:17Z</time>
      </trkpt>
      <trkpt lat="47.60486" lon="-3.012">
        <ele>6.6</ele>
        <time>2021-08-04T11:44:18Z</time>
      </trkpt>
      <trkpt lat="47.6049" lon="-3.01201">
        <ele>6.6</ele>
        <time>2021-08-04T11:44:19Z</time>
      </trkpt>
      <trkpt lat="47.60494" lon="-3.01202">
        <ele>6.6</ele>
        <time>2021-08-04T11:44:20Z</time>
      </trkpt>
      <trkpt lat="47.60498" lon="-3.01202">
        <ele>6.6</ele>
        <time>2021-08-04T11:44:21Z</time>
      </trkpt>
      <trkpt lat="47.60502" lon="-3.01203">
        <ele>6.6</ele>
        <time>2021-08-04T11:44:22Z</time>
      </trkpt>
      <trkpt lat="47.60506" lon="-3.01204">
        <ele>6.6</ele>
        <time>2021-08-04T11:44:23Z</time>
      </trkpt>
      <trkpt lat="47.60509" lon="-3.01205">
        <ele>6.6</ele>
        <time>2021-08-04T11:44:24Z</time>
      </trkpt>
      <trkpt lat="47.60513" lon="-3.01205">
        <ele>6.6</ele>
        <time>2021-08-04T11:44:25Z</time>
      </trkpt>
      <trkpt lat="47.60518" lon="-3.01206">
        <ele>6.6</ele>
        <time>2021-08-04T11:44:26Z</time>
      </trkpt>
      <trkpt lat="47.60522" lon="-3.01206">
        <ele>6.6</ele>
        <time>2021-08-04T11:44:27Z</time>
      </trkpt>
      <trkpt lat="47.60527" lon="-3.01206">
        <ele>6.6</ele>
        <time>2021-08-04T11:44:28Z</time>
      </trkpt>
      <trkpt lat="47.60531" lon="-3.01207">
        <ele>6.6</ele>
        <time>2021-08-04T11:44:29Z</time>
      </trkpt>
      <trkpt lat="47.60536" lon="-3.01208">
        <ele>6.6</ele>
        <time>2021-08-04T11:44:30Z</time>
      </trkpt>
      <trkpt lat="47.6054" lon="-3.01209">
        <ele>6.6</ele>
        <time>2021-08-04T11:44:31Z</time>
      </trkpt>
      <trkpt lat="47.60544" lon="-3.01209">
        <ele>6.6</ele>
        <time>2021-08-04T11:44:32Z</time>
      </trkpt>
      <trkpt lat="47.60548" lon="-3.0121">
        <ele>6.6</ele>
        <time>2021-08-04T11:44:33Z</time>
      </trkpt>
      <trkpt lat="47.60551" lon="-3.0121">
        <ele>6.8</ele>
        <time>2021-08-04T11:44:34Z</time>
      </trkpt>
      <trkpt lat="47.60555" lon="-3.0121">
        <ele>7</ele>
        <time>2021-08-04T11:44:35Z</time>
      </trkpt>
      <trkpt lat="47.60558" lon="-3.01211">
        <ele>7.4</ele>
        <time>2021-08-04T11:44:36Z</time>
      </trkpt>
      <trkpt lat="47.60561" lon="-3.01211">
        <ele>7.6</ele>
        <time>2021-08-04T11:44:37Z</time>
      </trkpt>
      <trkpt lat="47.60564" lon="-3.01212">
        <ele>7.6</ele>
        <time>2021-08-04T11:44:38Z</time>
      </trkpt>
      <trkpt lat="47.60568" lon="-3.01212">
        <ele>7.6</ele>
        <time>2021-08-04T11:44:39Z</time>
      </trkpt>
      <trkpt lat="47.60571" lon="-3.01213">
        <ele>7.8</ele>
        <time>2021-08-04T11:44:40Z</time>
      </trkpt>
      <trkpt lat="47.60574" lon="-3.01214">
        <ele>8</ele>
        <time>2021-08-04T11:44:41Z</time>
      </trkpt>
      <trkpt lat="47.60577" lon="-3.01215">
        <ele>8.2</ele>
        <time>2021-08-04T11:44:42Z</time>
      </trkpt>
      <trkpt lat="47.60579" lon="-3.01215">
        <ele>8.4</ele>
        <time>2021-08-04T11:44:43Z</time>
      </trkpt>
      <trkpt lat="47.60582" lon="-3.01215">
        <ele>8.8</ele>
        <time>2021-08-04T11:44:44Z</time>
      </trkpt>
      <trkpt lat="47.60586" lon="-3.01215">
        <ele>9</ele>
        <time>2021-08-04T11:44:45Z</time>
      </trkpt>
      <trkpt lat="47.60589" lon="-3.01215">
        <ele>9.4</ele>
        <time>2021-08-04T11:44:46Z</time>
      </trkpt>
      <trkpt lat="47.60592" lon="-3.01216">
        <ele>9.6</ele>
        <time>2021-08-04T11:44:47Z</time>
      </trkpt>
      <trkpt lat="47.60596" lon="-3.01216">
        <ele>9.8</ele>
        <time>2021-08-04T11:44:48Z</time>
      </trkpt>
      <trkpt lat="47.60599" lon="-3.01216">
        <ele>10</ele>
        <time>2021-08-04T11:44:49Z</time>
      </trkpt>
      <trkpt lat="47.60602" lon="-3.01216">
        <ele>10</ele>
        <time>2021-08-04T11:44:50Z</time>
      </trkpt>
      <trkpt lat="47.60605" lon="-3.01216">
        <ele>10.2</ele>
        <time>2021-08-04T11:44:51Z</time>
      </trkpt>
      <trkpt lat="47.60608" lon="-3.01216">
        <ele>10.4</ele>
        <time>2021-08-04T11:44:52Z</time>
      </trkpt>
      <trkpt lat="47.60611" lon="-3.01217">
        <ele>10.6</ele>
        <time>2021-08-04T11:44:53Z</time>
      </trkpt>
      <trkpt lat="47.60615" lon="-3.01217">
        <ele>10.6</ele>
        <time>2021-08-04T11:44:54Z</time>
      </trkpt>
      <trkpt lat="47.60617" lon="-3.01217">
        <ele>10.8</ele>
        <time>2021-08-04T11:44:55Z</time>
      </trkpt>
      <trkpt lat="47.6062" lon="-3.01218">
        <ele>11</ele>
        <time>2021-08-04T11:44:56Z</time>
      </trkpt>
      <trkpt lat="47.60623" lon="-3.01218">
        <ele>11.2</ele>
        <time>2021-08-04T11:44:57Z</time>
      </trkpt>
      <trkpt lat="47.60625" lon="-3.01219">
        <ele>11.2</ele>
        <time>2021-08-04T11:44:58Z</time>
      </trkpt>
      <trkpt lat="47.60627" lon="-3.01219">
        <ele>11.4</ele>
        <time>2021-08-04T11:44:59Z</time>
      </trkpt>
      <trkpt lat="47.60629" lon="-3.01219">
        <ele>11.6</ele>
        <time>2021-08-04T11:45:00Z</time>
      </trkpt>
      <trkpt lat="47.60631" lon="-3.01218">
        <ele>11.4</ele>
        <time>2021-08-04T11:45:01Z</time>
      </trkpt>
      <trkpt lat="47.60633" lon="-3.01218">
        <ele>11.8</ele>
        <time>2021-08-04T11:45:02Z</time>
      </trkpt>
      <trkpt lat="47.60636" lon="-3.01217">
        <ele>11.8</ele>
        <time>2021-08-04T11:45:03Z</time>
      </trkpt>
      <trkpt lat="47.60639" lon="-3.01216">
        <ele>12</ele>
        <time>2021-08-04T11:45:04Z</time>
      </trkpt>
      <trkpt lat="47.60642" lon="-3.01216">
        <ele>12.4</ele>
        <time>2021-08-04T11:45:05Z</time>
      </trkpt>
      <trkpt lat="47.60645" lon="-3.01215">
        <ele>12.6</ele>
        <time>2021-08-04T11:45:06Z</time>
      </trkpt>
      <trkpt lat="47.60648" lon="-3.01214">
        <ele>12.6</ele>
        <time>2021-08-04T11:45:07Z</time>
      </trkpt>
      <trkpt lat="47.60651" lon="-3.01214">
        <ele>12.8</ele>
        <time>2021-08-04T11:45:08Z</time>
      </trkpt>
      <trkpt lat="47.60654" lon="-3.01212">
        <ele>12.8</ele>
        <time>2021-08-04T11:45:09Z</time>
      </trkpt>
      <trkpt lat="47.60657" lon="-3.01212">
        <ele>12.8</ele>
        <time>2021-08-04T11:45:10Z</time>
      </trkpt>
      <trkpt lat="47.60661" lon="-3.01211">
        <ele>13</ele>
        <time>2021-08-04T11:45:11Z</time>
      </trkpt>
      <trkpt lat="47.60664" lon="-3.0121">
        <ele>13</ele>
        <time>2021-08-04T11:45:12Z</time>
      </trkpt>
      <trkpt lat="47.60667" lon="-3.01209">
        <ele>13</ele>
        <time>2021-08-04T11:45:13Z</time>
      </trkpt>
      <trkpt lat="47.6067" lon="-3.01208">
        <ele>13</ele>
        <time>2021-08-04T11:45:14Z</time>
      </trkpt>
      <trkpt lat="47.60674" lon="-3.01207">
        <ele>13.2</ele>
        <time>2021-08-04T11:45:15Z</time>
      </trkpt>
      <trkpt lat="47.60677" lon="-3.01207">
        <ele>13.2</ele>
        <time>2021-08-04T11:45:16Z</time>
      </trkpt>
      <trkpt lat="47.6068" lon="-3.01205">
        <ele>13.2</ele>
        <time>2021-08-04T11:45:17Z</time>
      </trkpt>
      <trkpt lat="47.60683" lon="-3.01204">
        <ele>13.4</ele>
        <time>2021-08-04T11:45:18Z</time>
      </trkpt>
      <trkpt lat="47.60686" lon="-3.01203">
        <ele>13.4</ele>
        <time>2021-08-04T11:45:19Z</time>
      </trkpt>
      <trkpt lat="47.6069" lon="-3.01202">
        <ele>13.4</ele>
        <time>2021-08-04T11:45:20Z</time>
      </trkpt>
      <trkpt lat="47.60694" lon="-3.01201">
        <ele>13.6</ele>
        <time>2021-08-04T11:45:21Z</time>
      </trkpt>
      <trkpt lat="47.60698" lon="-3.012">
        <ele>13.6</ele>
        <time>2021-08-04T11:45:22Z</time>
      </trkpt>
      <trkpt lat="47.60701" lon="-3.01199">
        <ele>13.6</ele>
        <time>2021-08-04T11:45:23Z</time>
      </trkpt>
      <trkpt lat="47.60705" lon="-3.01198">
        <ele>13.6</ele>
        <time>2021-08-04T11:45:24Z</time>
      </trkpt>
      <trkpt lat="47.6071" lon="-3.01197">
        <ele>13.8</ele>
        <time>2021-08-04T11:45:25Z</time>
      </trkpt>
      <trkpt lat="47.60714" lon="-3.01196">
        <ele>13.8</ele>
        <time>2021-08-04T11:45:26Z</time>
      </trkpt>
      <trkpt lat="47.60718" lon="-3.01195">
        <ele>13.8</ele>
        <time>2021-08-04T11:45:27Z</time>
      </trkpt>
      <trkpt lat="47.60722" lon="-3.01193">
        <ele>14</ele>
        <time>2021-08-04T11:45:28Z</time>
      </trkpt>
      <trkpt lat="47.60726" lon="-3.01192">
        <ele>14</ele>
        <time>2021-08-04T11:45:29Z</time>
      </trkpt>
      <trkpt lat="47.6073" lon="-3.01191">
        <ele>14</ele>
        <time>2021-08-04T11:45:30Z</time>
      </trkpt>
      <trkpt lat="47.60734" lon="-3.0119">
        <ele>14</ele>
        <time>2021-08-04T11:45:31Z</time>
      </trkpt>
      <trkpt lat="47.60738" lon="-3.01189">
        <ele>14</ele>
        <time>2021-08-04T11:45:32Z</time>
      </trkpt>
      <trkpt lat="47.60742" lon="-3.01188">
        <ele>14</ele>
        <time>2021-08-04T11:45:33Z</time>
      </trkpt>
      <trkpt lat="47.60746" lon="-3.01187">
        <ele>14.2</ele>
        <time>2021-08-04T11:45:34Z</time>
      </trkpt>
      <trkpt lat="47.6075" lon="-3.01186">
        <ele>14.2</ele>
        <time>2021-08-04T11:45:35Z</time>
      </trkpt>
      <trkpt lat="47.60754" lon="-3.01184">
        <ele>14.2</ele>
        <time>2021-08-04T11:45:36Z</time>
      </trkpt>
      <trkpt lat="47.60758" lon="-3.01183">
        <ele>14</ele>
        <time>2021-08-04T11:45:37Z</time>
      </trkpt>
      <trkpt lat="47.60762" lon="-3.01182">
        <ele>14</ele>
        <time>2021-08-04T11:45:38Z</time>
      </trkpt>
      <trkpt lat="47.60766" lon="-3.01181">
        <ele>14</ele>
        <time>2021-08-04T11:45:39Z</time>
      </trkpt>
      <trkpt lat="47.60771" lon="-3.0118">
        <ele>14</ele>
        <time>2021-08-04T11:45:40Z</time>
      </trkpt>
      <trkpt lat="47.60775" lon="-3.01178">
        <ele>14</ele>
        <time>2021-08-04T11:45:41Z</time>
      </trkpt>
      <trkpt lat="47.60779" lon="-3.01177">
        <ele>14</ele>
        <time>2021-08-04T11:45:42Z</time>
      </trkpt>
      <trkpt lat="47.60784" lon="-3.01176">
        <ele>14</ele>
        <time>2021-08-04T11:45:43Z</time>
      </trkpt>
      <trkpt lat="47.60788" lon="-3.01174">
        <ele>14</ele>
        <time>2021-08-04T11:45:44Z</time>
      </trkpt>
      <trkpt lat="47.60793" lon="-3.01172">
        <ele>14</ele>
        <time>2021-08-04T11:45:45Z</time>
      </trkpt>
      <trkpt lat="47.60798" lon="-3.0117">
        <ele>14</ele>
        <time>2021-08-04T11:45:46Z</time>
      </trkpt>
      <trkpt lat="47.60802" lon="-3.01168">
        <ele>14</ele>
        <time>2021-08-04T11:45:47Z</time>
      </trkpt>
      <trkpt lat="47.60807" lon="-3.01166">
        <ele>14</ele>
        <time>2021-08-04T11:45:48Z</time>
      </trkpt>
      <trkpt lat="47.60812" lon="-3.01164">
        <ele>14</ele>
        <time>2021-08-04T11:45:49Z</time>
      </trkpt>
      <trkpt lat="47.60818" lon="-3.01164">
        <ele>14</ele>
        <time>2021-08-04T11:45:50Z</time>
      </trkpt>
      <trkpt lat="47.60823" lon="-3.01164">
        <ele>14</ele>
        <time>2021-08-04T11:45:51Z</time>
      </trkpt>
      <trkpt lat="47.60829" lon="-3.01165">
        <ele>14.2</ele>
        <time>2021-08-04T11:45:52Z</time>
      </trkpt>
      <trkpt lat="47.60834" lon="-3.01166">
        <ele>14</ele>
        <time>2021-08-04T11:45:53Z</time>
      </trkpt>
      <trkpt lat="47.6084" lon="-3.01167">
        <ele>14</ele>
        <time>2021-08-04T11:45:54Z</time>
      </trkpt>
      <trkpt lat="47.60846" lon="-3.01168">
        <ele>14</ele>
        <time>2021-08-04T11:45:55Z</time>
      </trkpt>
      <trkpt lat="47.60852" lon="-3.01168">
        <ele>14</ele>
        <time>2021-08-04T11:45:56Z</time>
      </trkpt>
      <trkpt lat="47.60859" lon="-3.01169">
        <ele>14</ele>
        <time>2021-08-04T11:45:57Z</time>
      </trkpt>
      <trkpt lat="47.60865" lon="-3.01168">
        <ele>14</ele>
        <time>2021-08-04T11:45:58Z</time>
      </trkpt>
      <trkpt lat="47.60871" lon="-3.01167">
        <ele>13.8</ele>
        <time>2021-08-04T11:45:59Z</time>
      </trkpt>
      <trkpt lat="47.60877" lon="-3.01166">
        <ele>13.8</ele>
        <time>2021-08-04T11:46:00Z</time>
      </trkpt>
      <trkpt lat="47.60882" lon="-3.01163">
        <ele>13.6</ele>
        <time>2021-08-04T11:46:01Z</time>
      </trkpt>
      <trkpt lat="47.60887" lon="-3.0116">
        <ele>13.6</ele>
        <time>2021-08-04T11:46:02Z</time>
      </trkpt>
      <trkpt lat="47.60892" lon="-3.01157">
        <ele>13.6</ele>
        <time>2021-08-04T11:46:03Z</time>
      </trkpt>
      <trkpt lat="47.60897" lon="-3.01153">
        <ele>13.4</ele>
        <time>2021-08-04T11:46:04Z</time>
      </trkpt>
      <trkpt lat="47.60902" lon="-3.0115">
        <ele>13.4</ele>
        <time>2021-08-04T11:46:05Z</time>
      </trkpt>
      <trkpt lat="47.60906" lon="-3.01145">
        <ele>13.4</ele>
        <time>2021-08-04T11:46:06Z</time>
      </trkpt>
      <trkpt lat="47.6091" lon="-3.01141">
        <ele>13.4</ele>
        <time>2021-08-04T11:46:07Z</time>
      </trkpt>
      <trkpt lat="47.60915" lon="-3.01136">
        <ele>13.4</ele>
        <time>2021-08-04T11:46:08Z</time>
      </trkpt>
      <trkpt lat="47.60919" lon="-3.01132">
        <ele>13.4</ele>
        <time>2021-08-04T11:46:09Z</time>
      </trkpt>
      <trkpt lat="47.60924" lon="-3.01128">
        <ele>13.2</ele>
        <time>2021-08-04T11:46:10Z</time>
      </trkpt>
      <trkpt lat="47.60929" lon="-3.01124">
        <ele>13.2</ele>
        <time>2021-08-04T11:46:11Z</time>
      </trkpt>
      <trkpt lat="47.60935" lon="-3.0112">
        <ele>13.2</ele>
        <time>2021-08-04T11:46:12Z</time>
      </trkpt>
      <trkpt lat="47.60941" lon="-3.01116">
        <ele>13.2</ele>
        <time>2021-08-04T11:46:13Z</time>
      </trkpt>
      <trkpt lat="47.60947" lon="-3.01113">
        <ele>13.2</ele>
        <time>2021-08-04T11:46:14Z</time>
      </trkpt>
      <trkpt lat="47.60954" lon="-3.0111">
        <ele>13</ele>
        <time>2021-08-04T11:46:15Z</time>
      </trkpt>
      <trkpt lat="47.60961" lon="-3.01108">
        <ele>13</ele>
        <time>2021-08-04T11:46:16Z</time>
      </trkpt>
      <trkpt lat="47.60968" lon="-3.01107">
        <ele>12.8</ele>
        <time>2021-08-04T11:46:17Z</time>
      </trkpt>
      <trkpt lat="47.60974" lon="-3.01106">
        <ele>12.6</ele>
        <time>2021-08-04T11:46:18Z</time>
      </trkpt>
      <trkpt lat="47.60981" lon="-3.01105">
        <ele>12.2</ele>
        <time>2021-08-04T11:46:19Z</time>
      </trkpt>
      <trkpt lat="47.60988" lon="-3.01105">
        <ele>11.8</ele>
        <time>2021-08-04T11:46:20Z</time>
      </trkpt>
      <trkpt lat="47.60996" lon="-3.01104">
        <ele>11.4</ele>
        <time>2021-08-04T11:46:21Z</time>
      </trkpt>
      <trkpt lat="47.61003" lon="-3.01104">
        <ele>10.8</ele>
        <time>2021-08-04T11:46:22Z</time>
      </trkpt>
      <trkpt lat="47.6101" lon="-3.01104">
        <ele>10.6</ele>
        <time>2021-08-04T11:46:23Z</time>
      </trkpt>
      <trkpt lat="47.61016" lon="-3.01104">
        <ele>10.2</ele>
        <time>2021-08-04T11:46:24Z</time>
      </trkpt>
      <trkpt lat="47.61022" lon="-3.01104">
        <ele>10.2</ele>
        <time>2021-08-04T11:46:25Z</time>
      </trkpt>
      <trkpt lat="47.61028" lon="-3.01104">
        <ele>10</ele>
        <time>2021-08-04T11:46:26Z</time>
      </trkpt>
      <trkpt lat="47.61033" lon="-3.01105">
        <ele>9.4</ele>
        <time>2021-08-04T11:46:27Z</time>
      </trkpt>
      <trkpt lat="47.61038" lon="-3.01106">
        <ele>9</ele>
        <time>2021-08-04T11:46:28Z</time>
      </trkpt>
      <trkpt lat="47.61043" lon="-3.01106">
        <ele>8.8</ele>
        <time>2021-08-04T11:46:29Z</time>
      </trkpt>
      <trkpt lat="47.61048" lon="-3.01107">
        <ele>8.4</ele>
        <time>2021-08-04T11:46:30Z</time>
      </trkpt>
      <trkpt lat="47.61052" lon="-3.01107">
        <ele>8.4</ele>
        <time>2021-08-04T11:46:31Z</time>
      </trkpt>
      <trkpt lat="47.61057" lon="-3.01106">
        <ele>8.4</ele>
        <time>2021-08-04T11:46:32Z</time>
      </trkpt>
      <trkpt lat="47.61061" lon="-3.01107">
        <ele>8.4</ele>
        <time>2021-08-04T11:46:33Z</time>
      </trkpt>
      <trkpt lat="47.61064" lon="-3.01106">
        <ele>8.4</ele>
        <time>2021-08-04T11:46:34Z</time>
      </trkpt>
      <trkpt lat="47.61067" lon="-3.01107">
        <ele>8.4</ele>
        <time>2021-08-04T11:46:35Z</time>
      </trkpt>
      <trkpt lat="47.61072" lon="-3.01107">
        <ele>8.4</ele>
        <time>2021-08-04T11:46:36Z</time>
      </trkpt>
      <trkpt lat="47.61076" lon="-3.01108">
        <ele>8.4</ele>
        <time>2021-08-04T11:46:37Z</time>
      </trkpt>
      <trkpt lat="47.6108" lon="-3.01108">
        <ele>8.4</ele>
        <time>2021-08-04T11:46:38Z</time>
      </trkpt>
      <trkpt lat="47.61085" lon="-3.0111">
        <ele>8.4</ele>
        <time>2021-08-04T11:46:39Z</time>
      </trkpt>
      <trkpt lat="47.61089" lon="-3.0111">
        <ele>8.2</ele>
        <time>2021-08-04T11:46:40Z</time>
      </trkpt>
      <trkpt lat="47.61093" lon="-3.01111">
        <ele>8.2</ele>
        <time>2021-08-04T11:46:41Z</time>
      </trkpt>
      <trkpt lat="47.61097" lon="-3.01112">
        <ele>8.4</ele>
        <time>2021-08-04T11:46:42Z</time>
      </trkpt>
      <trkpt lat="47.61101" lon="-3.01112">
        <ele>8.4</ele>
        <time>2021-08-04T11:46:43Z</time>
      </trkpt>
      <trkpt lat="47.61104" lon="-3.01112">
        <ele>8.4</ele>
        <time>2021-08-04T11:46:44Z</time>
      </trkpt>
      <trkpt lat="47.61111" lon="-3.01112">
        <ele>8.4</ele>
        <time>2021-08-04T11:46:45Z</time>
      </trkpt>
      <trkpt lat="47.61119" lon="-3.01112">
        <ele>8.4</ele>
        <time>2021-08-04T11:46:46Z</time>
      </trkpt>
      <trkpt lat="47.61126" lon="-3.01112">
        <ele>8.4</ele>
        <time>2021-08-04T11:46:47Z</time>
      </trkpt>
      <trkpt lat="47.61132" lon="-3.01112">
        <ele>8.4</ele>
        <time>2021-08-04T11:46:48Z</time>
      </trkpt>
      <trkpt lat="47.61138" lon="-3.01113">
        <ele>8.4</ele>
        <time>2021-08-04T11:46:49Z</time>
      </trkpt>
      <trkpt lat="47.61145" lon="-3.01113">
        <ele>8.4</ele>
        <time>2021-08-04T11:46:50Z</time>
      </trkpt>
      <trkpt lat="47.6115" lon="-3.01114">
        <ele>8.4</ele>
        <time>2021-08-04T11:46:51Z</time>
      </trkpt>
      <trkpt lat="47.61155" lon="-3.01114">
        <ele>8.4</ele>
        <time>2021-08-04T11:46:52Z</time>
      </trkpt>
      <trkpt lat="47.61162" lon="-3.01116">
        <ele>8.4</ele>
        <time>2021-08-04T11:46:53Z</time>
      </trkpt>
      <trkpt lat="47.61167" lon="-3.01117">
        <ele>8.4</ele>
        <time>2021-08-04T11:46:54Z</time>
      </trkpt>
      <trkpt lat="47.61174" lon="-3.01119">
        <ele>8.4</ele>
        <time>2021-08-04T11:46:55Z</time>
      </trkpt>
      <trkpt lat="47.61179" lon="-3.01119">
        <ele>8.2</ele>
        <time>2021-08-04T11:46:56Z</time>
      </trkpt>
      <trkpt lat="47.61184" lon="-3.0112">
        <ele>8.2</ele>
        <time>2021-08-04T11:46:57Z</time>
      </trkpt>
      <trkpt lat="47.61189" lon="-3.01121">
        <ele>8.4</ele>
        <time>2021-08-04T11:46:58Z</time>
      </trkpt>
      <trkpt lat="47.61194" lon="-3.01122">
        <ele>8.4</ele>
        <time>2021-08-04T11:46:59Z</time>
      </trkpt>
      <trkpt lat="47.61199" lon="-3.01123">
        <ele>8.4</ele>
        <time>2021-08-04T11:47:00Z</time>
      </trkpt>
      <trkpt lat="47.61204" lon="-3.01124">
        <ele>8.4</ele>
        <time>2021-08-04T11:47:01Z</time>
      </trkpt>
      <trkpt lat="47.61209" lon="-3.01125">
        <ele>8.2</ele>
        <time>2021-08-04T11:47:02Z</time>
      </trkpt>
      <trkpt lat="47.61214" lon="-3.01126">
        <ele>8.2</ele>
        <time>2021-08-04T11:47:03Z</time>
      </trkpt>
      <trkpt lat="47.61219" lon="-3.01127">
        <ele>8.2</ele>
        <time>2021-08-04T11:47:04Z</time>
      </trkpt>
      <trkpt lat="47.61225" lon="-3.01129">
        <ele>8.2</ele>
        <time>2021-08-04T11:47:05Z</time>
      </trkpt>
      <trkpt lat="47.6123" lon="-3.01131">
        <ele>8.2</ele>
        <time>2021-08-04T11:47:06Z</time>
      </trkpt>
      <trkpt lat="47.61234" lon="-3.01131">
        <ele>8.2</ele>
        <time>2021-08-04T11:47:07Z</time>
      </trkpt>
      <trkpt lat="47.61239" lon="-3.01133">
        <ele>8.2</ele>
        <time>2021-08-04T11:47:08Z</time>
      </trkpt>
      <trkpt lat="47.61243" lon="-3.01134">
        <ele>8.2</ele>
        <time>2021-08-04T11:47:09Z</time>
      </trkpt>
      <trkpt lat="47.61248" lon="-3.01135">
        <ele>8.2</ele>
        <time>2021-08-04T11:47:10Z</time>
      </trkpt>
      <trkpt lat="47.61253" lon="-3.01136">
        <ele>8.2</ele>
        <time>2021-08-04T11:47:11Z</time>
      </trkpt>
      <trkpt lat="47.61257" lon="-3.01135">
        <ele>8.2</ele>
        <time>2021-08-04T11:47:12Z</time>
      </trkpt>
      <trkpt lat="47.61262" lon="-3.01135">
        <ele>8.2</ele>
        <time>2021-08-04T11:47:13Z</time>
      </trkpt>
      <trkpt lat="47.61267" lon="-3.01134">
        <ele>8.2</ele>
        <time>2021-08-04T11:47:14Z</time>
      </trkpt>
      <trkpt lat="47.61273" lon="-3.01133">
        <ele>8</ele>
        <time>2021-08-04T11:47:15Z</time>
      </trkpt>
      <trkpt lat="47.61281" lon="-3.01133">
        <ele>8</ele>
        <time>2021-08-04T11:47:16Z</time>
      </trkpt>
      <trkpt lat="47.61289" lon="-3.01134">
        <ele>8</ele>
        <time>2021-08-04T11:47:17Z</time>
      </trkpt>
      <trkpt lat="47.61295" lon="-3.01136">
        <ele>8</ele>
        <time>2021-08-04T11:47:18Z</time>
      </trkpt>
      <trkpt lat="47.613" lon="-3.01138">
        <ele>8</ele>
        <time>2021-08-04T11:47:19Z</time>
      </trkpt>
      <trkpt lat="47.61306" lon="-3.01138">
        <ele>8.2</ele>
        <time>2021-08-04T11:47:20Z</time>
      </trkpt>
      <trkpt lat="47.61312" lon="-3.01138">
        <ele>8.2</ele>
        <time>2021-08-04T11:47:21Z</time>
      </trkpt>
      <trkpt lat="47.61317" lon="-3.01138">
        <ele>8.2</ele>
        <time>2021-08-04T11:47:22Z</time>
      </trkpt>
      <trkpt lat="47.61323" lon="-3.01137">
        <ele>8.2</ele>
        <time>2021-08-04T11:47:23Z</time>
      </trkpt>
      <trkpt lat="47.61328" lon="-3.01135">
        <ele>8.4</ele>
        <time>2021-08-04T11:47:24Z</time>
      </trkpt>
      <trkpt lat="47.61334" lon="-3.01133">
        <ele>8.4</ele>
        <time>2021-08-04T11:47:25Z</time>
      </trkpt>
      <trkpt lat="47.61339" lon="-3.01131">
        <ele>8.2</ele>
        <time>2021-08-04T11:47:26Z</time>
      </trkpt>
      <trkpt lat="47.61344" lon="-3.01129">
        <ele>8.2</ele>
        <time>2021-08-04T11:47:27Z</time>
      </trkpt>
      <trkpt lat="47.61349" lon="-3.01126">
        <ele>8.2</ele>
        <time>2021-08-04T11:47:28Z</time>
      </trkpt>
      <trkpt lat="47.61354" lon="-3.01124">
        <ele>8.4</ele>
        <time>2021-08-04T11:47:29Z</time>
      </trkpt>
      <trkpt lat="47.61359" lon="-3.01121">
        <ele>8.4</ele>
        <time>2021-08-04T11:47:30Z</time>
      </trkpt>
      <trkpt lat="47.61364" lon="-3.01118">
        <ele>8.4</ele>
        <time>2021-08-04T11:47:31Z</time>
      </trkpt>
      <trkpt lat="47.61369" lon="-3.01115">
        <ele>8.4</ele>
        <time>2021-08-04T11:47:32Z</time>
      </trkpt>
      <trkpt lat="47.61373" lon="-3.01112">
        <ele>8.4</ele>
        <time>2021-08-04T11:47:33Z</time>
      </trkpt>
      <trkpt lat="47.61378" lon="-3.01109">
        <ele>8.4</ele>
        <time>2021-08-04T11:47:34Z</time>
      </trkpt>
      <trkpt lat="47.61382" lon="-3.01107">
        <ele>8.6</ele>
        <time>2021-08-04T11:47:35Z</time>
      </trkpt>
      <trkpt lat="47.61387" lon="-3.01104">
        <ele>8.6</ele>
        <time>2021-08-04T11:47:36Z</time>
      </trkpt>
      <trkpt lat="47.61391" lon="-3.01101">
        <ele>8.6</ele>
        <time>2021-08-04T11:47:37Z</time>
      </trkpt>
      <trkpt lat="47.61396" lon="-3.01099">
        <ele>8.8</ele>
        <time>2021-08-04T11:47:38Z</time>
      </trkpt>
      <trkpt lat="47.614" lon="-3.01097">
        <ele>8.8</ele>
        <time>2021-08-04T11:47:39Z</time>
      </trkpt>
      <trkpt lat="47.61404" lon="-3.01096">
        <ele>9</ele>
        <time>2021-08-04T11:47:40Z</time>
      </trkpt>
      <trkpt lat="47.61409" lon="-3.01095">
        <ele>9.2</ele>
        <time>2021-08-04T11:47:41Z</time>
      </trkpt>
      <trkpt lat="47.61413" lon="-3.01094">
        <ele>9.2</ele>
        <time>2021-08-04T11:47:42Z</time>
      </trkpt>
      <trkpt lat="47.61418" lon="-3.01093">
        <ele>9.2</ele>
        <time>2021-08-04T11:47:43Z</time>
      </trkpt>
      <trkpt lat="47.61423" lon="-3.01092">
        <ele>9.2</ele>
        <time>2021-08-04T11:47:44Z</time>
      </trkpt>
      <trkpt lat="47.61427" lon="-3.01091">
        <ele>9.2</ele>
        <time>2021-08-04T11:47:45Z</time>
      </trkpt>
      <trkpt lat="47.61431" lon="-3.0109">
        <ele>9.4</ele>
        <time>2021-08-04T11:47:46Z</time>
      </trkpt>
      <trkpt lat="47.61435" lon="-3.01089">
        <ele>9.4</ele>
        <time>2021-08-04T11:47:47Z</time>
      </trkpt>
      <trkpt lat="47.6144" lon="-3.01089">
        <ele>9.4</ele>
        <time>2021-08-04T11:47:48Z</time>
      </trkpt>
      <trkpt lat="47.61444" lon="-3.01088">
        <ele>9.4</ele>
        <time>2021-08-04T11:47:49Z</time>
      </trkpt>
      <trkpt lat="47.61448" lon="-3.01088">
        <ele>9.4</ele>
        <time>2021-08-04T11:47:50Z</time>
      </trkpt>
      <trkpt lat="47.61452" lon="-3.01087">
        <ele>9.4</ele>
        <time>2021-08-04T11:47:51Z</time>
      </trkpt>
      <trkpt lat="47.61456" lon="-3.01086">
        <ele>9.4</ele>
        <time>2021-08-04T11:47:52Z</time>
      </trkpt>
      <trkpt lat="47.6146" lon="-3.01087">
        <ele>9.4</ele>
        <time>2021-08-04T11:47:53Z</time>
      </trkpt>
      <trkpt lat="47.61464" lon="-3.01087">
        <ele>9.6</ele>
        <time>2021-08-04T11:47:54Z</time>
      </trkpt>
      <trkpt lat="47.61468" lon="-3.01087">
        <ele>9.8</ele>
        <time>2021-08-04T11:47:55Z</time>
      </trkpt>
      <trkpt lat="47.61472" lon="-3.01088">
        <ele>10</ele>
        <time>2021-08-04T11:47:56Z</time>
      </trkpt>
      <trkpt lat="47.61476" lon="-3.01089">
        <ele>10.2</ele>
        <time>2021-08-04T11:47:57Z</time>
      </trkpt>
      <trkpt lat="47.6148" lon="-3.01089">
        <ele>10.4</ele>
        <time>2021-08-04T11:47:58Z</time>
      </trkpt>
      <trkpt lat="47.61484" lon="-3.0109">
        <ele>10.2</ele>
        <time>2021-08-04T11:47:59Z</time>
      </trkpt>
      <trkpt lat="47.61488" lon="-3.01091">
        <ele>10.4</ele>
        <time>2021-08-04T11:48:00Z</time>
      </trkpt>
      <trkpt lat="47.61492" lon="-3.01092">
        <ele>10.4</ele>
        <time>2021-08-04T11:48:01Z</time>
      </trkpt>
      <trkpt lat="47.61495" lon="-3.01092">
        <ele>10.6</ele>
        <time>2021-08-04T11:48:02Z</time>
      </trkpt>
      <trkpt lat="47.61499" lon="-3.01093">
        <ele>10.8</ele>
        <time>2021-08-04T11:48:03Z</time>
      </trkpt>
      <trkpt lat="47.61502" lon="-3.01094">
        <ele>10.8</ele>
        <time>2021-08-04T11:48:04Z</time>
      </trkpt>
      <trkpt lat="47.61506" lon="-3.01095">
        <ele>11</ele>
        <time>2021-08-04T11:48:05Z</time>
      </trkpt>
      <trkpt lat="47.61509" lon="-3.01095">
        <ele>11</ele>
        <time>2021-08-04T11:48:06Z</time>
      </trkpt>
      <trkpt lat="47.61513" lon="-3.01095">
        <ele>11.2</ele>
        <time>2021-08-04T11:48:07Z</time>
      </trkpt>
      <trkpt lat="47.61516" lon="-3.01095">
        <ele>11.4</ele>
        <time>2021-08-04T11:48:08Z</time>
      </trkpt>
      <trkpt lat="47.6152" lon="-3.01096">
        <ele>11.4</ele>
        <time>2021-08-04T11:48:09Z</time>
      </trkpt>
      <trkpt lat="47.61523" lon="-3.01097">
        <ele>11.6</ele>
        <time>2021-08-04T11:48:10Z</time>
      </trkpt>
      <trkpt lat="47.61527" lon="-3.01097">
        <ele>11.8</ele>
        <time>2021-08-04T11:48:11Z</time>
      </trkpt>
      <trkpt lat="47.6153" lon="-3.01097">
        <ele>11.8</ele>
        <time>2021-08-04T11:48:12Z</time>
      </trkpt>
      <trkpt lat="47.61534" lon="-3.01097">
        <ele>12</ele>
        <time>2021-08-04T11:48:13Z</time>
      </trkpt>
      <trkpt lat="47.61537" lon="-3.01096">
        <ele>12.2</ele>
        <time>2021-08-04T11:48:14Z</time>
      </trkpt>
      <trkpt lat="47.61541" lon="-3.01095">
        <ele>12.4</ele>
        <time>2021-08-04T11:48:15Z</time>
      </trkpt>
      <trkpt lat="47.61544" lon="-3.01095">
        <ele>12.4</ele>
        <time>2021-08-04T11:48:16Z</time>
      </trkpt>
      <trkpt lat="47.61548" lon="-3.01094">
        <ele>12.4</ele>
        <time>2021-08-04T11:48:17Z</time>
      </trkpt>
      <trkpt lat="47.61551" lon="-3.01092">
        <ele>12.6</ele>
        <time>2021-08-04T11:48:18Z</time>
      </trkpt>
      <trkpt lat="47.61555" lon="-3.01091">
        <ele>12.6</ele>
        <time>2021-08-04T11:48:19Z</time>
      </trkpt>
      <trkpt lat="47.61558" lon="-3.0109">
        <ele>12.6</ele>
        <time>2021-08-04T11:48:20Z</time>
      </trkpt>
      <trkpt lat="47.61561" lon="-3.01089">
        <ele>12.8</ele>
        <time>2021-08-04T11:48:21Z</time>
      </trkpt>
      <trkpt lat="47.61565" lon="-3.01088">
        <ele>12.8</ele>
        <time>2021-08-04T11:48:22Z</time>
      </trkpt>
      <trkpt lat="47.61569" lon="-3.01088">
        <ele>12.8</ele>
        <time>2021-08-04T11:48:23Z</time>
      </trkpt>
      <trkpt lat="47.61573" lon="-3.01087">
        <ele>12.8</ele>
        <time>2021-08-04T11:48:24Z</time>
      </trkpt>
      <trkpt lat="47.61577" lon="-3.01086">
        <ele>13</ele>
        <time>2021-08-04T11:48:25Z</time>
      </trkpt>
      <trkpt lat="47.61581" lon="-3.01085">
        <ele>13</ele>
        <time>2021-08-04T11:48:26Z</time>
      </trkpt>
      <trkpt lat="47.61585" lon="-3.01084">
        <ele>13</ele>
        <time>2021-08-04T11:48:27Z</time>
      </trkpt>
      <trkpt lat="47.61589" lon="-3.01082">
        <ele>13</ele>
        <time>2021-08-04T11:48:28Z</time>
      </trkpt>
      <trkpt lat="47.61593" lon="-3.01081">
        <ele>13.2</ele>
        <time>2021-08-04T11:48:29Z</time>
      </trkpt>
      <trkpt lat="47.61597" lon="-3.01079">
        <ele>13.4</ele>
        <time>2021-08-04T11:48:30Z</time>
      </trkpt>
      <trkpt lat="47.61601" lon="-3.01078">
        <ele>13.6</ele>
        <time>2021-08-04T11:48:31Z</time>
      </trkpt>
      <trkpt lat="47.61605" lon="-3.01077">
        <ele>13.8</ele>
        <time>2021-08-04T11:48:32Z</time>
      </trkpt>
      <trkpt lat="47.6161" lon="-3.01075">
        <ele>13.8</ele>
        <time>2021-08-04T11:48:33Z</time>
      </trkpt>
      <trkpt lat="47.61614" lon="-3.01074">
        <ele>13.8</ele>
        <time>2021-08-04T11:48:34Z</time>
      </trkpt>
      <trkpt lat="47.61618" lon="-3.01073">
        <ele>13.8</ele>
        <time>2021-08-04T11:48:35Z</time>
      </trkpt>
      <trkpt lat="47.61622" lon="-3.01073">
        <ele>13.8</ele>
        <time>2021-08-04T11:48:36Z</time>
      </trkpt>
      <trkpt lat="47.61625" lon="-3.01073">
        <ele>13.8</ele>
        <time>2021-08-04T11:48:37Z</time>
      </trkpt>
      <trkpt lat="47.61629" lon="-3.01073">
        <ele>13.8</ele>
        <time>2021-08-04T11:48:38Z</time>
      </trkpt>
      <trkpt lat="47.61632" lon="-3.01073">
        <ele>13.8</ele>
        <time>2021-08-04T11:48:39Z</time>
      </trkpt>
      <trkpt lat="47.61636" lon="-3.01074">
        <ele>13.8</ele>
        <time>2021-08-04T11:48:40Z</time>
      </trkpt>
      <trkpt lat="47.6164" lon="-3.01075">
        <ele>13.8</ele>
        <time>2021-08-04T11:48:41Z</time>
      </trkpt>
      <trkpt lat="47.61644" lon="-3.01076">
        <ele>13.8</ele>
        <time>2021-08-04T11:48:42Z</time>
      </trkpt>
      <trkpt lat="47.61648" lon="-3.01076">
        <ele>13.8</ele>
        <time>2021-08-04T11:48:43Z</time>
      </trkpt>
      <trkpt lat="47.61651" lon="-3.01077">
        <ele>13.8</ele>
        <time>2021-08-04T11:48:44Z</time>
      </trkpt>
      <trkpt lat="47.61655" lon="-3.01078">
        <ele>13.8</ele>
        <time>2021-08-04T11:48:45Z</time>
      </trkpt>
      <trkpt lat="47.6166" lon="-3.01079">
        <ele>13.8</ele>
        <time>2021-08-04T11:48:46Z</time>
      </trkpt>
      <trkpt lat="47.61665" lon="-3.0108">
        <ele>13.6</ele>
        <time>2021-08-04T11:48:47Z</time>
      </trkpt>
      <trkpt lat="47.6167" lon="-3.0108">
        <ele>13.6</ele>
        <time>2021-08-04T11:48:48Z</time>
      </trkpt>
      <trkpt lat="47.61675" lon="-3.01081">
        <ele>13.6</ele>
        <time>2021-08-04T11:48:49Z</time>
      </trkpt>
      <trkpt lat="47.61681" lon="-3.01082">
        <ele>13.4</ele>
        <time>2021-08-04T11:48:50Z</time>
      </trkpt>
      <trkpt lat="47.61686" lon="-3.01082">
        <ele>13.4</ele>
        <time>2021-08-04T11:48:51Z</time>
      </trkpt>
      <trkpt lat="47.61692" lon="-3.01083">
        <ele>13.4</ele>
        <time>2021-08-04T11:48:52Z</time>
      </trkpt>
      <trkpt lat="47.61698" lon="-3.01084">
        <ele>13.4</ele>
        <time>2021-08-04T11:48:53Z</time>
      </trkpt>
      <trkpt lat="47.61703" lon="-3.01085">
        <ele>13.4</ele>
        <time>2021-08-04T11:48:54Z</time>
      </trkpt>
      <trkpt lat="47.61709" lon="-3.01085">
        <ele>13.2</ele>
        <time>2021-08-04T11:48:55Z</time>
      </trkpt>
      <trkpt lat="47.61715" lon="-3.01085">
        <ele>13.2</ele>
        <time>2021-08-04T11:48:56Z</time>
      </trkpt>
      <trkpt lat="47.61721" lon="-3.01085">
        <ele>13</ele>
        <time>2021-08-04T11:48:57Z</time>
      </trkpt>
      <trkpt lat="47.61727" lon="-3.01084">
        <ele>13</ele>
        <time>2021-08-04T11:48:58Z</time>
      </trkpt>
      <trkpt lat="47.61733" lon="-3.01083">
        <ele>12.8</ele>
        <time>2021-08-04T11:48:59Z</time>
      </trkpt>
      <trkpt lat="47.61739" lon="-3.01082">
        <ele>12.8</ele>
        <time>2021-08-04T11:49:00Z</time>
      </trkpt>
      <trkpt lat="47.61745" lon="-3.0108">
        <ele>12.8</ele>
        <time>2021-08-04T11:49:01Z</time>
      </trkpt>
      <trkpt lat="47.61751" lon="-3.01078">
        <ele>12.8</ele>
        <time>2021-08-04T11:49:02Z</time>
      </trkpt>
      <trkpt lat="47.61756" lon="-3.01076">
        <ele>12.6</ele>
        <time>2021-08-04T11:49:03Z</time>
      </trkpt>
      <trkpt lat="47.61762" lon="-3.01074">
        <ele>12.4</ele>
        <time>2021-08-04T11:49:04Z</time>
      </trkpt>
      <trkpt lat="47.61767" lon="-3.01072">
        <ele>12.2</ele>
        <time>2021-08-04T11:49:05Z</time>
      </trkpt>
      <trkpt lat="47.61772" lon="-3.01071">
        <ele>12.2</ele>
        <time>2021-08-04T11:49:06Z</time>
      </trkpt>
      <trkpt lat="47.61776" lon="-3.01068">
        <ele>12.2</ele>
        <time>2021-08-04T11:49:07Z</time>
      </trkpt>
      <trkpt lat="47.6178" lon="-3.01066">
        <ele>12</ele>
        <time>2021-08-04T11:49:08Z</time>
      </trkpt>
      <trkpt lat="47.61784" lon="-3.01063">
        <ele>12</ele>
        <time>2021-08-04T11:49:09Z</time>
      </trkpt>
      <trkpt lat="47.61788" lon="-3.01061">
        <ele>12</ele>
        <time>2021-08-04T11:49:10Z</time>
      </trkpt>
      <trkpt lat="47.61792" lon="-3.0106">
        <ele>12</ele>
        <time>2021-08-04T11:49:11Z</time>
      </trkpt>
      <trkpt lat="47.61796" lon="-3.01058">
        <ele>12</ele>
        <time>2021-08-04T11:49:12Z</time>
      </trkpt>
      <trkpt lat="47.61801" lon="-3.01057">
        <ele>12</ele>
        <time>2021-08-04T11:49:13Z</time>
      </trkpt>
      <trkpt lat="47.61805" lon="-3.01055">
        <ele>12</ele>
        <time>2021-08-04T11:49:14Z</time>
      </trkpt>
      <trkpt lat="47.6181" lon="-3.01054">
        <ele>12.2</ele>
        <time>2021-08-04T11:49:15Z</time>
      </trkpt>
      <trkpt lat="47.61814" lon="-3.01052">
        <ele>12.2</ele>
        <time>2021-08-04T11:49:16Z</time>
      </trkpt>
      <trkpt lat="47.61818" lon="-3.01051">
        <ele>12.2</ele>
        <time>2021-08-04T11:49:17Z</time>
      </trkpt>
      <trkpt lat="47.61822" lon="-3.01049">
        <ele>12.2</ele>
        <time>2021-08-04T11:49:18Z</time>
      </trkpt>
      <trkpt lat="47.61826" lon="-3.01046">
        <ele>12.2</ele>
        <time>2021-08-04T11:49:19Z</time>
      </trkpt>
      <trkpt lat="47.61831" lon="-3.01044">
        <ele>12.2</ele>
        <time>2021-08-04T11:49:20Z</time>
      </trkpt>
      <trkpt lat="47.61835" lon="-3.01042">
        <ele>12</ele>
        <time>2021-08-04T11:49:21Z</time>
      </trkpt>
      <trkpt lat="47.6184" lon="-3.0104">
        <ele>12</ele>
        <time>2021-08-04T11:49:22Z</time>
      </trkpt>
      <trkpt lat="47.61845" lon="-3.01038">
        <ele>12</ele>
        <time>2021-08-04T11:49:23Z</time>
      </trkpt>
      <trkpt lat="47.6185" lon="-3.01035">
        <ele>12</ele>
        <time>2021-08-04T11:49:24Z</time>
      </trkpt>
      <trkpt lat="47.61854" lon="-3.01033">
        <ele>12</ele>
        <time>2021-08-04T11:49:25Z</time>
      </trkpt>
      <trkpt lat="47.61859" lon="-3.01031">
        <ele>12</ele>
        <time>2021-08-04T11:49:26Z</time>
      </trkpt>
      <trkpt lat="47.61864" lon="-3.01029">
        <ele>12</ele>
        <time>2021-08-04T11:49:27Z</time>
      </trkpt>
      <trkpt lat="47.61869" lon="-3.01027">
        <ele>12</ele>
        <time>2021-08-04T11:49:28Z</time>
      </trkpt>
      <trkpt lat="47.61874" lon="-3.01024">
        <ele>12</ele>
        <time>2021-08-04T11:49:29Z</time>
      </trkpt>
      <trkpt lat="47.61879" lon="-3.01022">
        <ele>12</ele>
        <time>2021-08-04T11:49:30Z</time>
      </trkpt>
      <trkpt lat="47.61884" lon="-3.0102">
        <ele>12</ele>
        <time>2021-08-04T11:49:31Z</time>
      </trkpt>
      <trkpt lat="47.61888" lon="-3.01018">
        <ele>12</ele>
        <time>2021-08-04T11:49:32Z</time>
      </trkpt>
      <trkpt lat="47.61893" lon="-3.01016">
        <ele>12</ele>
        <time>2021-08-04T11:49:33Z</time>
      </trkpt>
      <trkpt lat="47.61897" lon="-3.01014">
        <ele>12</ele>
        <time>2021-08-04T11:49:34Z</time>
      </trkpt>
      <trkpt lat="47.61902" lon="-3.01012">
        <ele>12</ele>
        <time>2021-08-04T11:49:35Z</time>
      </trkpt>
      <trkpt lat="47.61906" lon="-3.0101">
        <ele>12</ele>
        <time>2021-08-04T11:49:36Z</time>
      </trkpt>
      <trkpt lat="47.61911" lon="-3.01008">
        <ele>12</ele>
        <time>2021-08-04T11:49:37Z</time>
      </trkpt>
      <trkpt lat="47.61915" lon="-3.01006">
        <ele>12</ele>
        <time>2021-08-04T11:49:38Z</time>
      </trkpt>
      <trkpt lat="47.61919" lon="-3.01005">
        <ele>12</ele>
        <time>2021-08-04T11:49:39Z</time>
      </trkpt>
      <trkpt lat="47.61922" lon="-3.01004">
        <ele>12</ele>
        <time>2021-08-04T11:49:40Z</time>
      </trkpt>
      <trkpt lat="47.61926" lon="-3.01003">
        <ele>12</ele>
        <time>2021-08-04T11:49:41Z</time>
      </trkpt>
      <trkpt lat="47.61929" lon="-3.01001">
        <ele>12</ele>
        <time>2021-08-04T11:49:42Z</time>
      </trkpt>
      <trkpt lat="47.61933" lon="-3.00999">
        <ele>12.2</ele>
        <time>2021-08-04T11:49:43Z</time>
      </trkpt>
      <trkpt lat="47.61936" lon="-3.00997">
        <ele>12.2</ele>
        <time>2021-08-04T11:49:44Z</time>
      </trkpt>
      <trkpt lat="47.6194" lon="-3.00995">
        <ele>12.4</ele>
        <time>2021-08-04T11:49:45Z</time>
      </trkpt>
      <trkpt lat="47.61943" lon="-3.00993">
        <ele>12.4</ele>
        <time>2021-08-04T11:49:46Z</time>
      </trkpt>
      <trkpt lat="47.61947" lon="-3.0099">
        <ele>12.6</ele>
        <time>2021-08-04T11:49:47Z</time>
      </trkpt>
      <trkpt lat="47.61951" lon="-3.00989">
        <ele>12.6</ele>
        <time>2021-08-04T11:49:48Z</time>
      </trkpt>
      <trkpt lat="47.61956" lon="-3.00987">
        <ele>12.6</ele>
        <time>2021-08-04T11:49:49Z</time>
      </trkpt>
      <trkpt lat="47.6196" lon="-3.00985">
        <ele>12.8</ele>
        <time>2021-08-04T11:49:50Z</time>
      </trkpt>
      <trkpt lat="47.61965" lon="-3.00983">
        <ele>12.8</ele>
        <time>2021-08-04T11:49:51Z</time>
      </trkpt>
      <trkpt lat="47.6197" lon="-3.00981">
        <ele>12.8</ele>
        <time>2021-08-04T11:49:52Z</time>
      </trkpt>
      <trkpt lat="47.61974" lon="-3.0098">
        <ele>12.8</ele>
        <time>2021-08-04T11:49:53Z</time>
      </trkpt>
      <trkpt lat="47.61979" lon="-3.00978">
        <ele>12.8</ele>
        <time>2021-08-04T11:49:54Z</time>
      </trkpt>
      <trkpt lat="47.61983" lon="-3.00976">
        <ele>12.8</ele>
        <time>2021-08-04T11:49:55Z</time>
      </trkpt>
      <trkpt lat="47.61987" lon="-3.00974">
        <ele>12.6</ele>
        <time>2021-08-04T11:49:56Z</time>
      </trkpt>
      <trkpt lat="47.61992" lon="-3.00972">
        <ele>12.6</ele>
        <time>2021-08-04T11:49:57Z</time>
      </trkpt>
      <trkpt lat="47.61997" lon="-3.0097">
        <ele>12.6</ele>
        <time>2021-08-04T11:49:58Z</time>
      </trkpt>
      <trkpt lat="47.62002" lon="-3.00969">
        <ele>12.6</ele>
        <time>2021-08-04T11:49:59Z</time>
      </trkpt>
      <trkpt lat="47.62007" lon="-3.00967">
        <ele>12.6</ele>
        <time>2021-08-04T11:50:00Z</time>
      </trkpt>
      <trkpt lat="47.62012" lon="-3.00965">
        <ele>12.4</ele>
        <time>2021-08-04T11:50:01Z</time>
      </trkpt>
      <trkpt lat="47.62017" lon="-3.00963">
        <ele>12.4</ele>
        <time>2021-08-04T11:50:02Z</time>
      </trkpt>
      <trkpt lat="47.62022" lon="-3.00961">
        <ele>12.4</ele>
        <time>2021-08-04T11:50:03Z</time>
      </trkpt>
      <trkpt lat="47.62027" lon="-3.00959">
        <ele>12.4</ele>
        <time>2021-08-04T11:50:04Z</time>
      </trkpt>
      <trkpt lat="47.62032" lon="-3.00957">
        <ele>12.4</ele>
        <time>2021-08-04T11:50:05Z</time>
      </trkpt>
      <trkpt lat="47.62037" lon="-3.00955">
        <ele>12.4</ele>
        <time>2021-08-04T11:50:06Z</time>
      </trkpt>
      <trkpt lat="47.62042" lon="-3.00953">
        <ele>12.4</ele>
        <time>2021-08-04T11:50:07Z</time>
      </trkpt>
      <trkpt lat="47.62047" lon="-3.00951">
        <ele>12.4</ele>
        <time>2021-08-04T11:50:08Z</time>
      </trkpt>
      <trkpt lat="47.62052" lon="-3.00949">
        <ele>12.2</ele>
        <time>2021-08-04T11:50:09Z</time>
      </trkpt>
      <trkpt lat="47.62056" lon="-3.00948">
        <ele>12.2</ele>
        <time>2021-08-04T11:50:10Z</time>
      </trkpt>
      <trkpt lat="47.62061" lon="-3.00945">
        <ele>12.2</ele>
        <time>2021-08-04T11:50:11Z</time>
      </trkpt>
      <trkpt lat="47.62065" lon="-3.00943">
        <ele>12.2</ele>
        <time>2021-08-04T11:50:12Z</time>
      </trkpt>
      <trkpt lat="47.6207" lon="-3.00941">
        <ele>12.2</ele>
        <time>2021-08-04T11:50:13Z</time>
      </trkpt>
      <trkpt lat="47.62075" lon="-3.00938">
        <ele>12.2</ele>
        <time>2021-08-04T11:50:14Z</time>
      </trkpt>
      <trkpt lat="47.6208" lon="-3.00935">
        <ele>12.4</ele>
        <time>2021-08-04T11:50:15Z</time>
      </trkpt>
      <trkpt lat="47.62084" lon="-3.00933">
        <ele>12.4</ele>
        <time>2021-08-04T11:50:16Z</time>
      </trkpt>
      <trkpt lat="47.62089" lon="-3.0093">
        <ele>12.4</ele>
        <time>2021-08-04T11:50:17Z</time>
      </trkpt>
      <trkpt lat="47.62093" lon="-3.00928">
        <ele>12.4</ele>
        <time>2021-08-04T11:50:18Z</time>
      </trkpt>
      <trkpt lat="47.62097" lon="-3.00926">
        <ele>12.4</ele>
        <time>2021-08-04T11:50:19Z</time>
      </trkpt>
      <trkpt lat="47.62102" lon="-3.00924">
        <ele>12.4</ele>
        <time>2021-08-04T11:50:20Z</time>
      </trkpt>
      <trkpt lat="47.62105" lon="-3.00922">
        <ele>12.2</ele>
        <time>2021-08-04T11:50:21Z</time>
      </trkpt>
      <trkpt lat="47.62109" lon="-3.0092">
        <ele>12.2</ele>
        <time>2021-08-04T11:50:22Z</time>
      </trkpt>
      <trkpt lat="47.62113" lon="-3.00918">
        <ele>12.4</ele>
        <time>2021-08-04T11:50:23Z</time>
      </trkpt>
      <trkpt lat="47.62116" lon="-3.00915">
        <ele>12.4</ele>
        <time>2021-08-04T11:50:24Z</time>
      </trkpt>
      <trkpt lat="47.6212" lon="-3.00913">
        <ele>12.4</ele>
        <time>2021-08-04T11:50:25Z</time>
      </trkpt>
      <trkpt lat="47.62124" lon="-3.00912">
        <ele>12.4</ele>
        <time>2021-08-04T11:50:26Z</time>
      </trkpt>
      <trkpt lat="47.62128" lon="-3.0091">
        <ele>12.4</ele>
        <time>2021-08-04T11:50:27Z</time>
      </trkpt>
      <trkpt lat="47.62132" lon="-3.00908">
        <ele>12.4</ele>
        <time>2021-08-04T11:50:28Z</time>
      </trkpt>
      <trkpt lat="47.62135" lon="-3.00907">
        <ele>12.4</ele>
        <time>2021-08-04T11:50:29Z</time>
      </trkpt>
      <trkpt lat="47.62138" lon="-3.00905">
        <ele>12.2</ele>
        <time>2021-08-04T11:50:30Z</time>
      </trkpt>
      <trkpt lat="47.62141" lon="-3.00904">
        <ele>12.2</ele>
        <time>2021-08-04T11:50:31Z</time>
      </trkpt>
      <trkpt lat="47.62145" lon="-3.00902">
        <ele>12.2</ele>
        <time>2021-08-04T11:50:32Z</time>
      </trkpt>
      <trkpt lat="47.62148" lon="-3.009">
        <ele>12.2</ele>
        <time>2021-08-04T11:50:33Z</time>
      </trkpt>
      <trkpt lat="47.62152" lon="-3.00897">
        <ele>12.2</ele>
        <time>2021-08-04T11:50:34Z</time>
      </trkpt>
      <trkpt lat="47.62155" lon="-3.00896">
        <ele>12</ele>
        <time>2021-08-04T11:50:35Z</time>
      </trkpt>
      <trkpt lat="47.62159" lon="-3.00895">
        <ele>12</ele>
        <time>2021-08-04T11:50:36Z</time>
      </trkpt>
      <trkpt lat="47.62161" lon="-3.00893">
        <ele>12</ele>
        <time>2021-08-04T11:50:37Z</time>
      </trkpt>
      <trkpt lat="47.62165" lon="-3.00891">
        <ele>12</ele>
        <time>2021-08-04T11:50:38Z</time>
      </trkpt>
      <trkpt lat="47.62168" lon="-3.00888">
        <ele>12</ele>
        <time>2021-08-04T11:50:39Z</time>
      </trkpt>
      <trkpt lat="47.62172" lon="-3.00886">
        <ele>12</ele>
        <time>2021-08-04T11:50:40Z</time>
      </trkpt>
      <trkpt lat="47.62176" lon="-3.00884">
        <ele>12.2</ele>
        <time>2021-08-04T11:50:41Z</time>
      </trkpt>
      <trkpt lat="47.6218" lon="-3.00881">
        <ele>12.2</ele>
        <time>2021-08-04T11:50:42Z</time>
      </trkpt>
      <trkpt lat="47.62184" lon="-3.00879">
        <ele>12.2</ele>
        <time>2021-08-04T11:50:43Z</time>
      </trkpt>
      <trkpt lat="47.62189" lon="-3.00877">
        <ele>12.2</ele>
        <time>2021-08-04T11:50:44Z</time>
      </trkpt>
      <trkpt lat="47.62193" lon="-3.00874">
        <ele>12.4</ele>
        <time>2021-08-04T11:50:45Z</time>
      </trkpt>
      <trkpt lat="47.62197" lon="-3.00872">
        <ele>12.4</ele>
        <time>2021-08-04T11:50:46Z</time>
      </trkpt>
      <trkpt lat="47.62201" lon="-3.0087">
        <ele>12.4</ele>
        <time>2021-08-04T11:50:47Z</time>
      </trkpt>
      <trkpt lat="47.62204" lon="-3.00868">
        <ele>12.4</ele>
        <time>2021-08-04T11:50:48Z</time>
      </trkpt>
      <trkpt lat="47.62208" lon="-3.00866">
        <ele>12.4</ele>
        <time>2021-08-04T11:50:49Z</time>
      </trkpt>
      <trkpt lat="47.62212" lon="-3.00864">
        <ele>12.6</ele>
        <time>2021-08-04T11:50:50Z</time>
      </trkpt>
      <trkpt lat="47.62216" lon="-3.00862">
        <ele>12.6</ele>
        <time>2021-08-04T11:50:51Z</time>
      </trkpt>
      <trkpt lat="47.62223" lon="-3.0086">
        <ele>12.8</ele>
        <time>2021-08-04T11:50:52Z</time>
      </trkpt>
      <trkpt lat="47.62229" lon="-3.00858">
        <ele>12.8</ele>
        <time>2021-08-04T11:50:53Z</time>
      </trkpt>
      <trkpt lat="47.62234" lon="-3.00857">
        <ele>13</ele>
        <time>2021-08-04T11:50:54Z</time>
      </trkpt>
      <trkpt lat="47.62239" lon="-3.00855">
        <ele>13</ele>
        <time>2021-08-04T11:50:55Z</time>
      </trkpt>
      <trkpt lat="47.62246" lon="-3.00854">
        <ele>13.2</ele>
        <time>2021-08-04T11:50:56Z</time>
      </trkpt>
      <trkpt lat="47.62252" lon="-3.00853">
        <ele>13.2</ele>
        <time>2021-08-04T11:50:57Z</time>
      </trkpt>
      <trkpt lat="47.62258" lon="-3.00851">
        <ele>13.2</ele>
        <time>2021-08-04T11:50:58Z</time>
      </trkpt>
      <trkpt lat="47.62263" lon="-3.0085">
        <ele>13.2</ele>
        <time>2021-08-04T11:50:59Z</time>
      </trkpt>
      <trkpt lat="47.62268" lon="-3.00848">
        <ele>13.2</ele>
        <time>2021-08-04T11:51:00Z</time>
      </trkpt>
      <trkpt lat="47.62274" lon="-3.00845">
        <ele>13.2</ele>
        <time>2021-08-04T11:51:01Z</time>
      </trkpt>
      <trkpt lat="47.62279" lon="-3.00843">
        <ele>13.2</ele>
        <time>2021-08-04T11:51:02Z</time>
      </trkpt>
      <trkpt lat="47.62284" lon="-3.00841">
        <ele>13.2</ele>
        <time>2021-08-04T11:51:03Z</time>
      </trkpt>
      <trkpt lat="47.62289" lon="-3.00838">
        <ele>13.2</ele>
        <time>2021-08-04T11:51:04Z</time>
      </trkpt>
      <trkpt lat="47.62294" lon="-3.00835">
        <ele>13.2</ele>
        <time>2021-08-04T11:51:05Z</time>
      </trkpt>
      <trkpt lat="47.62299" lon="-3.00831">
        <ele>13.2</ele>
        <time>2021-08-04T11:51:06Z</time>
      </trkpt>
      <trkpt lat="47.62305" lon="-3.00827">
        <ele>13.2</ele>
        <time>2021-08-04T11:51:07Z</time>
      </trkpt>
      <trkpt lat="47.6231" lon="-3.00823">
        <ele>13.2</ele>
        <time>2021-08-04T11:51:08Z</time>
      </trkpt>
      <trkpt lat="47.62315" lon="-3.00819">
        <ele>13</ele>
        <time>2021-08-04T11:51:09Z</time>
      </trkpt>
      <trkpt lat="47.62321" lon="-3.00815">
        <ele>13</ele>
        <time>2021-08-04T11:51:10Z</time>
      </trkpt>
      <trkpt lat="47.62326" lon="-3.0081">
        <ele>13</ele>
        <time>2021-08-04T11:51:11Z</time>
      </trkpt>
      <trkpt lat="47.62331" lon="-3.00806">
        <ele>13</ele>
        <time>2021-08-04T11:51:12Z</time>
      </trkpt>
      <trkpt lat="47.62335" lon="-3.00801">
        <ele>13</ele>
        <time>2021-08-04T11:51:13Z</time>
      </trkpt>
      <trkpt lat="47.62339" lon="-3.00796">
        <ele>13</ele>
        <time>2021-08-04T11:51:14Z</time>
      </trkpt>
      <trkpt lat="47.62343" lon="-3.0079">
        <ele>13</ele>
        <time>2021-08-04T11:51:15Z</time>
      </trkpt>
      <trkpt lat="47.62347" lon="-3.00785">
        <ele>13</ele>
        <time>2021-08-04T11:51:16Z</time>
      </trkpt>
      <trkpt lat="47.62351" lon="-3.0078">
        <ele>13</ele>
        <time>2021-08-04T11:51:17Z</time>
      </trkpt>
      <trkpt lat="47.62354" lon="-3.00776">
        <ele>13</ele>
        <time>2021-08-04T11:51:18Z</time>
      </trkpt>
      <trkpt lat="47.62357" lon="-3.00772">
        <ele>13</ele>
        <time>2021-08-04T11:51:19Z</time>
      </trkpt>
      <trkpt lat="47.6236" lon="-3.00768">
        <ele>13</ele>
        <time>2021-08-04T11:51:20Z</time>
      </trkpt>
      <trkpt lat="47.62362" lon="-3.00764">
        <ele>13.2</ele>
        <time>2021-08-04T11:51:21Z</time>
      </trkpt>
      <trkpt lat="47.62365" lon="-3.00761">
        <ele>13</ele>
        <time>2021-08-04T11:51:22Z</time>
      </trkpt>
      <trkpt lat="47.62367" lon="-3.00758">
        <ele>13</ele>
        <time>2021-08-04T11:51:23Z</time>
      </trkpt>
      <trkpt lat="47.62369" lon="-3.00756">
        <ele>13.2</ele>
        <time>2021-08-04T11:51:24Z</time>
      </trkpt>
      <trkpt lat="47.6237" lon="-3.00754">
        <ele>13.2</ele>
        <time>2021-08-04T11:51:25Z</time>
      </trkpt>
      <trkpt lat="47.62372" lon="-3.00752">
        <ele>13.2</ele>
        <time>2021-08-04T11:51:26Z</time>
      </trkpt>
      <trkpt lat="47.62373" lon="-3.0075">
        <ele>13.4</ele>
        <time>2021-08-04T11:51:27Z</time>
      </trkpt>
      <trkpt lat="47.62374" lon="-3.00748">
        <ele>13.4</ele>
        <time>2021-08-04T11:51:28Z</time>
      </trkpt>
      <trkpt lat="47.62375" lon="-3.00747">
        <ele>13.4</ele>
        <time>2021-08-04T11:51:29Z</time>
      </trkpt>
      <trkpt lat="47.62376" lon="-3.00745">
        <ele>13.6</ele>
        <time>2021-08-04T11:51:30Z</time>
      </trkpt>
      <trkpt lat="47.62377" lon="-3.00743">
        <ele>13.6</ele>
        <time>2021-08-04T11:51:31Z</time>
      </trkpt>
      <trkpt lat="47.62378" lon="-3.00741">
        <ele>13.6</ele>
        <time>2021-08-04T11:51:32Z</time>
      </trkpt>
      <trkpt lat="47.62379" lon="-3.0074">
        <ele>13.8</ele>
        <time>2021-08-04T11:51:33Z</time>
      </trkpt>
      <trkpt lat="47.6238" lon="-3.0074">
        <ele>13.8</ele>
        <time>2021-08-04T11:51:35Z</time>
      </trkpt>
      <trkpt lat="47.6238" lon="-3.0074">
        <ele>13.8</ele>
        <time>2021-08-04T11:51:36Z</time>
      </trkpt>
      <trkpt lat="47.62381" lon="-3.00739">
        <ele>13.8</ele>
        <time>2021-08-04T11:51:37Z</time>
      </trkpt>
      <trkpt lat="47.62381" lon="-3.00739">
        <ele>13.8</ele>
        <time>2021-08-04T11:51:38Z</time>
      </trkpt>
      <trkpt lat="47.62386" lon="-3.00729">
        <ele>13.4</ele>
        <time>2021-08-04T11:58:46Z</time>
      </trkpt>
      <trkpt lat="47.62388" lon="-3.00727">
        <ele>13.4</ele>
        <time>2021-08-04T11:58:47Z</time>
      </trkpt>
      <trkpt lat="47.6239" lon="-3.00725">
        <ele>13.2</ele>
        <time>2021-08-04T11:58:48Z</time>
      </trkpt>
      <trkpt lat="47.62393" lon="-3.00724">
        <ele>13.2</ele>
        <time>2021-08-04T11:58:49Z</time>
      </trkpt>
      <trkpt lat="47.62396" lon="-3.00722">
        <ele>13.2</ele>
        <time>2021-08-04T11:58:50Z</time>
      </trkpt>
      <trkpt lat="47.624" lon="-3.0072">
        <ele>13.2</ele>
        <time>2021-08-04T11:58:51Z</time>
      </trkpt>
      <trkpt lat="47.62404" lon="-3.00716">
        <ele>13.2</ele>
        <time>2021-08-04T11:58:52Z</time>
      </trkpt>
      <trkpt lat="47.62407" lon="-3.00712">
        <ele>13.2</ele>
        <time>2021-08-04T11:58:53Z</time>
      </trkpt>
      <trkpt lat="47.6241" lon="-3.00707">
        <ele>13.2</ele>
        <time>2021-08-04T11:58:54Z</time>
      </trkpt>
      <trkpt lat="47.62413" lon="-3.00703">
        <ele>13.2</ele>
        <time>2021-08-04T11:58:55Z</time>
      </trkpt>
      <trkpt lat="47.62417" lon="-3.00698">
        <ele>13.2</ele>
        <time>2021-08-04T11:58:56Z</time>
      </trkpt>
      <trkpt lat="47.62421" lon="-3.00693">
        <ele>13</ele>
        <time>2021-08-04T11:58:57Z</time>
      </trkpt>
      <trkpt lat="47.62425" lon="-3.00687">
        <ele>12.6</ele>
        <time>2021-08-04T11:58:58Z</time>
      </trkpt>
      <trkpt lat="47.62428" lon="-3.00682">
        <ele>12</ele>
        <time>2021-08-04T11:58:59Z</time>
      </trkpt>
      <trkpt lat="47.62432" lon="-3.00677">
        <ele>11.8</ele>
        <time>2021-08-04T11:59:00Z</time>
      </trkpt>
      <trkpt lat="47.62435" lon="-3.00672">
        <ele>11.6</ele>
        <time>2021-08-04T11:59:01Z</time>
      </trkpt>
      <trkpt lat="47.62439" lon="-3.00667">
        <ele>11.4</ele>
        <time>2021-08-04T11:59:02Z</time>
      </trkpt>
      <trkpt lat="47.62443" lon="-3.00662">
        <ele>11.4</ele>
        <time>2021-08-04T11:59:03Z</time>
      </trkpt>
      <trkpt lat="47.62447" lon="-3.00657">
        <ele>11.4</ele>
        <time>2021-08-04T11:59:04Z</time>
      </trkpt>
      <trkpt lat="47.6245" lon="-3.00652">
        <ele>11.2</ele>
        <time>2021-08-04T11:59:05Z</time>
      </trkpt>
      <trkpt lat="47.62453" lon="-3.00646">
        <ele>11.2</ele>
        <time>2021-08-04T11:59:06Z</time>
      </trkpt>
      <trkpt lat="47.62456" lon="-3.00641">
        <ele>11.2</ele>
        <time>2021-08-04T11:59:07Z</time>
      </trkpt>
      <trkpt lat="47.6246" lon="-3.00636">
        <ele>11.2</ele>
        <time>2021-08-04T11:59:08Z</time>
      </trkpt>
      <trkpt lat="47.62463" lon="-3.00631">
        <ele>11.2</ele>
        <time>2021-08-04T11:59:09Z</time>
      </trkpt>
      <trkpt lat="47.62467" lon="-3.00625">
        <ele>11.2</ele>
        <time>2021-08-04T11:59:10Z</time>
      </trkpt>
      <trkpt lat="47.6247" lon="-3.0062">
        <ele>11.2</ele>
        <time>2021-08-04T11:59:11Z</time>
      </trkpt>
      <trkpt lat="47.62474" lon="-3.00615">
        <ele>11.4</ele>
        <time>2021-08-04T11:59:12Z</time>
      </trkpt>
      <trkpt lat="47.62477" lon="-3.00609">
        <ele>11.4</ele>
        <time>2021-08-04T11:59:13Z</time>
      </trkpt>
      <trkpt lat="47.6248" lon="-3.00603">
        <ele>11.6</ele>
        <time>2021-08-04T11:59:14Z</time>
      </trkpt>
      <trkpt lat="47.62484" lon="-3.00597">
        <ele>11.8</ele>
        <time>2021-08-04T11:59:15Z</time>
      </trkpt>
      <trkpt lat="47.62487" lon="-3.00592">
        <ele>12</ele>
        <time>2021-08-04T11:59:16Z</time>
      </trkpt>
      <trkpt lat="47.62491" lon="-3.00586">
        <ele>12.2</ele>
        <time>2021-08-04T11:59:17Z</time>
      </trkpt>
      <trkpt lat="47.62495" lon="-3.00581">
        <ele>12.2</ele>
        <time>2021-08-04T11:59:18Z</time>
      </trkpt>
      <trkpt lat="47.62499" lon="-3.00575">
        <ele>12.2</ele>
        <time>2021-08-04T11:59:19Z</time>
      </trkpt>
      <trkpt lat="47.62503" lon="-3.00569">
        <ele>12.2</ele>
        <time>2021-08-04T11:59:20Z</time>
      </trkpt>
      <trkpt lat="47.62508" lon="-3.00563">
        <ele>12.2</ele>
        <time>2021-08-04T11:59:21Z</time>
      </trkpt>
      <trkpt lat="47.62513" lon="-3.00557">
        <ele>12.2</ele>
        <time>2021-08-04T11:59:22Z</time>
      </trkpt>
      <trkpt lat="47.62518" lon="-3.00552">
        <ele>12.2</ele>
        <time>2021-08-04T11:59:23Z</time>
      </trkpt>
      <trkpt lat="47.62522" lon="-3.00546">
        <ele>12.2</ele>
        <time>2021-08-04T11:59:24Z</time>
      </trkpt>
      <trkpt lat="47.62527" lon="-3.0054">
        <ele>12.2</ele>
        <time>2021-08-04T11:59:25Z</time>
      </trkpt>
      <trkpt lat="47.62531" lon="-3.00534">
        <ele>12.2</ele>
        <time>2021-08-04T11:59:26Z</time>
      </trkpt>
      <trkpt lat="47.62535" lon="-3.00528">
        <ele>12.2</ele>
        <time>2021-08-04T11:59:27Z</time>
      </trkpt>
      <trkpt lat="47.62539" lon="-3.00523">
        <ele>12.2</ele>
        <time>2021-08-04T11:59:28Z</time>
      </trkpt>
      <trkpt lat="47.62543" lon="-3.00517">
        <ele>12.2</ele>
        <time>2021-08-04T11:59:29Z</time>
      </trkpt>
      <trkpt lat="47.62548" lon="-3.00511">
        <ele>12.2</ele>
        <time>2021-08-04T11:59:30Z</time>
      </trkpt>
      <trkpt lat="47.62552" lon="-3.00506">
        <ele>12.2</ele>
        <time>2021-08-04T11:59:31Z</time>
      </trkpt>
      <trkpt lat="47.62556" lon="-3.00501">
        <ele>12.2</ele>
        <time>2021-08-04T11:59:32Z</time>
      </trkpt>
      <trkpt lat="47.62561" lon="-3.00496">
        <ele>12.2</ele>
        <time>2021-08-04T11:59:33Z</time>
      </trkpt>
      <trkpt lat="47.62565" lon="-3.00492">
        <ele>12.2</ele>
        <time>2021-08-04T11:59:34Z</time>
      </trkpt>
      <trkpt lat="47.6257" lon="-3.00488">
        <ele>12.2</ele>
        <time>2021-08-04T11:59:35Z</time>
      </trkpt>
      <trkpt lat="47.62574" lon="-3.00484">
        <ele>12.2</ele>
        <time>2021-08-04T11:59:36Z</time>
      </trkpt>
      <trkpt lat="47.62579" lon="-3.00482">
        <ele>12</ele>
        <time>2021-08-04T11:59:37Z</time>
      </trkpt>
      <trkpt lat="47.62583" lon="-3.0048">
        <ele>12</ele>
        <time>2021-08-04T11:59:38Z</time>
      </trkpt>
      <trkpt lat="47.62588" lon="-3.00478">
        <ele>12</ele>
        <time>2021-08-04T11:59:39Z</time>
      </trkpt>
      <trkpt lat="47.62593" lon="-3.00476">
        <ele>12</ele>
        <time>2021-08-04T11:59:40Z</time>
      </trkpt>
      <trkpt lat="47.62598" lon="-3.00474">
        <ele>12</ele>
        <time>2021-08-04T11:59:41Z</time>
      </trkpt>
      <trkpt lat="47.62602" lon="-3.00473">
        <ele>12</ele>
        <time>2021-08-04T11:59:42Z</time>
      </trkpt>
      <trkpt lat="47.62606" lon="-3.00472">
        <ele>12</ele>
        <time>2021-08-04T11:59:43Z</time>
      </trkpt>
      <trkpt lat="47.6261" lon="-3.00471">
        <ele>11.8</ele>
        <time>2021-08-04T11:59:44Z</time>
      </trkpt>
      <trkpt lat="47.62613" lon="-3.00469">
        <ele>11.8</ele>
        <time>2021-08-04T11:59:45Z</time>
      </trkpt>
      <trkpt lat="47.62617" lon="-3.00468">
        <ele>12</ele>
        <time>2021-08-04T11:59:46Z</time>
      </trkpt>
      <trkpt lat="47.62622" lon="-3.00466">
        <ele>11.8</ele>
        <time>2021-08-04T11:59:47Z</time>
      </trkpt>
      <trkpt lat="47.62626" lon="-3.00465">
        <ele>11.8</ele>
        <time>2021-08-04T11:59:48Z</time>
      </trkpt>
      <trkpt lat="47.6263" lon="-3.00463">
        <ele>12</ele>
        <time>2021-08-04T11:59:49Z</time>
      </trkpt>
      <trkpt lat="47.62634" lon="-3.00461">
        <ele>11.8</ele>
        <time>2021-08-04T11:59:50Z</time>
      </trkpt>
      <trkpt lat="47.62638" lon="-3.00459">
        <ele>12</ele>
        <time>2021-08-04T11:59:51Z</time>
      </trkpt>
      <trkpt lat="47.62642" lon="-3.00456">
        <ele>12</ele>
        <time>2021-08-04T11:59:52Z</time>
      </trkpt>
      <trkpt lat="47.62647" lon="-3.00453">
        <ele>11.8</ele>
        <time>2021-08-04T11:59:53Z</time>
      </trkpt>
      <trkpt lat="47.62651" lon="-3.00449">
        <ele>11.6</ele>
        <time>2021-08-04T11:59:54Z</time>
      </trkpt>
      <trkpt lat="47.62656" lon="-3.00446">
        <ele>11.6</ele>
        <time>2021-08-04T11:59:55Z</time>
      </trkpt>
      <trkpt lat="47.62661" lon="-3.00443">
        <ele>11.6</ele>
        <time>2021-08-04T11:59:56Z</time>
      </trkpt>
      <trkpt lat="47.62665" lon="-3.00439">
        <ele>11.6</ele>
        <time>2021-08-04T11:59:57Z</time>
      </trkpt>
      <trkpt lat="47.62669" lon="-3.00436">
        <ele>11.6</ele>
        <time>2021-08-04T11:59:58Z</time>
      </trkpt>
      <trkpt lat="47.62674" lon="-3.00433">
        <ele>11.6</ele>
        <time>2021-08-04T11:59:59Z</time>
      </trkpt>
      <trkpt lat="47.62678" lon="-3.0043">
        <ele>11.8</ele>
        <time>2021-08-04T12:00:00Z</time>
      </trkpt>
      <trkpt lat="47.62682" lon="-3.00426">
        <ele>11.8</ele>
        <time>2021-08-04T12:00:01Z</time>
      </trkpt>
      <trkpt lat="47.62685" lon="-3.00423">
        <ele>12</ele>
        <time>2021-08-04T12:00:02Z</time>
      </trkpt>
      <trkpt lat="47.62689" lon="-3.0042">
        <ele>12</ele>
        <time>2021-08-04T12:00:03Z</time>
      </trkpt>
      <trkpt lat="47.62692" lon="-3.00417">
        <ele>12</ele>
        <time>2021-08-04T12:00:04Z</time>
      </trkpt>
      <trkpt lat="47.62696" lon="-3.00414">
        <ele>12.2</ele>
        <time>2021-08-04T12:00:05Z</time>
      </trkpt>
      <trkpt lat="47.627" lon="-3.00411">
        <ele>12.2</ele>
        <time>2021-08-04T12:00:06Z</time>
      </trkpt>
      <trkpt lat="47.62704" lon="-3.00408">
        <ele>12.2</ele>
        <time>2021-08-04T12:00:07Z</time>
      </trkpt>
      <trkpt lat="47.62708" lon="-3.00405">
        <ele>12.4</ele>
        <time>2021-08-04T12:00:08Z</time>
      </trkpt>
      <trkpt lat="47.62712" lon="-3.00402">
        <ele>12.8</ele>
        <time>2021-08-04T12:00:09Z</time>
      </trkpt>
      <trkpt lat="47.62716" lon="-3.004">
        <ele>13.2</ele>
        <time>2021-08-04T12:00:10Z</time>
      </trkpt>
      <trkpt lat="47.6272" lon="-3.00397">
        <ele>13.4</ele>
        <time>2021-08-04T12:00:11Z</time>
      </trkpt>
      <trkpt lat="47.62723" lon="-3.00395">
        <ele>13.4</ele>
        <time>2021-08-04T12:00:12Z</time>
      </trkpt>
      <trkpt lat="47.62726" lon="-3.00392">
        <ele>13.4</ele>
        <time>2021-08-04T12:00:13Z</time>
      </trkpt>
      <trkpt lat="47.62728" lon="-3.00389">
        <ele>13.4</ele>
        <time>2021-08-04T12:00:14Z</time>
      </trkpt>
      <trkpt lat="47.62731" lon="-3.00387">
        <ele>13.6</ele>
        <time>2021-08-04T12:00:15Z</time>
      </trkpt>
      <trkpt lat="47.62734" lon="-3.00384">
        <ele>13.6</ele>
        <time>2021-08-04T12:00:16Z</time>
      </trkpt>
      <trkpt lat="47.62736" lon="-3.00382">
        <ele>13.6</ele>
        <time>2021-08-04T12:00:17Z</time>
      </trkpt>
      <trkpt lat="47.62739" lon="-3.00379">
        <ele>13.6</ele>
        <time>2021-08-04T12:00:18Z</time>
      </trkpt>
      <trkpt lat="47.62742" lon="-3.00376">
        <ele>13.6</ele>
        <time>2021-08-04T12:00:19Z</time>
      </trkpt>
      <trkpt lat="47.62745" lon="-3.00374">
        <ele>13.8</ele>
        <time>2021-08-04T12:00:20Z</time>
      </trkpt>
      <trkpt lat="47.62749" lon="-3.00371">
        <ele>14</ele>
        <time>2021-08-04T12:00:21Z</time>
      </trkpt>
      <trkpt lat="47.62752" lon="-3.00369">
        <ele>14.2</ele>
        <time>2021-08-04T12:00:22Z</time>
      </trkpt>
      <trkpt lat="47.62755" lon="-3.00366">
        <ele>14.4</ele>
        <time>2021-08-04T12:00:23Z</time>
      </trkpt>
      <trkpt lat="47.62759" lon="-3.00363">
        <ele>14.6</ele>
        <time>2021-08-04T12:00:24Z</time>
      </trkpt>
      <trkpt lat="47.62762" lon="-3.0036">
        <ele>14.8</ele>
        <time>2021-08-04T12:00:25Z</time>
      </trkpt>
      <trkpt lat="47.62766" lon="-3.00357">
        <ele>14.8</ele>
        <time>2021-08-04T12:00:26Z</time>
      </trkpt>
      <trkpt lat="47.62769" lon="-3.00354">
        <ele>15</ele>
        <time>2021-08-04T12:00:27Z</time>
      </trkpt>
      <trkpt lat="47.62773" lon="-3.00351">
        <ele>15</ele>
        <time>2021-08-04T12:00:28Z</time>
      </trkpt>
      <trkpt lat="47.62776" lon="-3.00348">
        <ele>15</ele>
        <time>2021-08-04T12:00:29Z</time>
      </trkpt>
      <trkpt lat="47.62779" lon="-3.00345">
        <ele>15.2</ele>
        <time>2021-08-04T12:00:30Z</time>
      </trkpt>
      <trkpt lat="47.62783" lon="-3.00342">
        <ele>15.2</ele>
        <time>2021-08-04T12:00:31Z</time>
      </trkpt>
      <trkpt lat="47.62786" lon="-3.0034">
        <ele>15.4</ele>
        <time>2021-08-04T12:00:32Z</time>
      </trkpt>
      <trkpt lat="47.62789" lon="-3.00337">
        <ele>15.4</ele>
        <time>2021-08-04T12:00:33Z</time>
      </trkpt>
      <trkpt lat="47.62793" lon="-3.00334">
        <ele>15.4</ele>
        <time>2021-08-04T12:00:34Z</time>
      </trkpt>
      <trkpt lat="47.62796" lon="-3.00331">
        <ele>15.4</ele>
        <time>2021-08-04T12:00:35Z</time>
      </trkpt>
      <trkpt lat="47.628" lon="-3.00328">
        <ele>15.6</ele>
        <time>2021-08-04T12:00:36Z</time>
      </trkpt>
      <trkpt lat="47.62804" lon="-3.00324">
        <ele>15.6</ele>
        <time>2021-08-04T12:00:37Z</time>
      </trkpt>
      <trkpt lat="47.62807" lon="-3.00321">
        <ele>15.6</ele>
        <time>2021-08-04T12:00:38Z</time>
      </trkpt>
      <trkpt lat="47.62811" lon="-3.00318">
        <ele>15.8</ele>
        <time>2021-08-04T12:00:39Z</time>
      </trkpt>
      <trkpt lat="47.62814" lon="-3.00315">
        <ele>15.8</ele>
        <time>2021-08-04T12:00:40Z</time>
      </trkpt>
      <trkpt lat="47.62817" lon="-3.00311">
        <ele>16</ele>
        <time>2021-08-04T12:00:41Z</time>
      </trkpt>
      <trkpt lat="47.6282" lon="-3.00308">
        <ele>16</ele>
        <time>2021-08-04T12:00:42Z</time>
      </trkpt>
      <trkpt lat="47.62824" lon="-3.00305">
        <ele>16</ele>
        <time>2021-08-04T12:00:43Z</time>
      </trkpt>
      <trkpt lat="47.62828" lon="-3.00302">
        <ele>16</ele>
        <time>2021-08-04T12:00:44Z</time>
      </trkpt>
      <trkpt lat="47.62832" lon="-3.00299">
        <ele>16</ele>
        <time>2021-08-04T12:00:45Z</time>
      </trkpt>
      <trkpt lat="47.62836" lon="-3.00295">
        <ele>16</ele>
        <time>2021-08-04T12:00:46Z</time>
      </trkpt>
      <trkpt lat="47.6284" lon="-3.00292">
        <ele>16</ele>
        <time>2021-08-04T12:00:47Z</time>
      </trkpt>
      <trkpt lat="47.62845" lon="-3.00288">
        <ele>16</ele>
        <time>2021-08-04T12:00:48Z</time>
      </trkpt>
      <trkpt lat="47.6285" lon="-3.00285">
        <ele>16</ele>
        <time>2021-08-04T12:00:49Z</time>
      </trkpt>
      <trkpt lat="47.62855" lon="-3.00282">
        <ele>16</ele>
        <time>2021-08-04T12:00:50Z</time>
      </trkpt>
      <trkpt lat="47.62859" lon="-3.00279">
        <ele>16.2</ele>
        <time>2021-08-04T12:00:51Z</time>
      </trkpt>
      <trkpt lat="47.62864" lon="-3.00275">
        <ele>16.2</ele>
        <time>2021-08-04T12:00:52Z</time>
      </trkpt>
      <trkpt lat="47.62869" lon="-3.00272">
        <ele>16.2</ele>
        <time>2021-08-04T12:00:53Z</time>
      </trkpt>
      <trkpt lat="47.62873" lon="-3.00269">
        <ele>16.2</ele>
        <time>2021-08-04T12:00:54Z</time>
      </trkpt>
      <trkpt lat="47.62878" lon="-3.00266">
        <ele>16.4</ele>
        <time>2021-08-04T12:00:55Z</time>
      </trkpt>
      <trkpt lat="47.62883" lon="-3.00263">
        <ele>16.4</ele>
        <time>2021-08-04T12:00:56Z</time>
      </trkpt>
      <trkpt lat="47.62887" lon="-3.00259">
        <ele>16.4</ele>
        <time>2021-08-04T12:00:57Z</time>
      </trkpt>
      <trkpt lat="47.62891" lon="-3.00256">
        <ele>16.4</ele>
        <time>2021-08-04T12:00:58Z</time>
      </trkpt>
      <trkpt lat="47.62896" lon="-3.00253">
        <ele>16.4</ele>
        <time>2021-08-04T12:00:59Z</time>
      </trkpt>
      <trkpt lat="47.629" lon="-3.00251">
        <ele>16.2</ele>
        <time>2021-08-04T12:01:00Z</time>
      </trkpt>
      <trkpt lat="47.62904" lon="-3.00248">
        <ele>16.2</ele>
        <time>2021-08-04T12:01:01Z</time>
      </trkpt>
      <trkpt lat="47.62908" lon="-3.00246">
        <ele>16.2</ele>
        <time>2021-08-04T12:01:02Z</time>
      </trkpt>
      <trkpt lat="47.62912" lon="-3.00245">
        <ele>16.4</ele>
        <time>2021-08-04T12:01:03Z</time>
      </trkpt>
      <trkpt lat="47.62917" lon="-3.00243">
        <ele>16.4</ele>
        <time>2021-08-04T12:01:04Z</time>
      </trkpt>
      <trkpt lat="47.62921" lon="-3.00241">
        <ele>16.4</ele>
        <time>2021-08-04T12:01:05Z</time>
      </trkpt>
      <trkpt lat="47.62926" lon="-3.00239">
        <ele>16.4</ele>
        <time>2021-08-04T12:01:06Z</time>
      </trkpt>
      <trkpt lat="47.6293" lon="-3.00237">
        <ele>16.2</ele>
        <time>2021-08-04T12:01:07Z</time>
      </trkpt>
      <trkpt lat="47.62934" lon="-3.00235">
        <ele>16</ele>
        <time>2021-08-04T12:01:08Z</time>
      </trkpt>
      <trkpt lat="47.62937" lon="-3.00233">
        <ele>16</ele>
        <time>2021-08-04T12:01:09Z</time>
      </trkpt>
      <trkpt lat="47.62942" lon="-3.00231">
        <ele>16</ele>
        <time>2021-08-04T12:01:10Z</time>
      </trkpt>
      <trkpt lat="47.62946" lon="-3.00229">
        <ele>16</ele>
        <time>2021-08-04T12:01:11Z</time>
      </trkpt>
      <trkpt lat="47.6295" lon="-3.00226">
        <ele>16</ele>
        <time>2021-08-04T12:01:12Z</time>
      </trkpt>
      <trkpt lat="47.62955" lon="-3.00224">
        <ele>16</ele>
        <time>2021-08-04T12:01:13Z</time>
      </trkpt>
      <trkpt lat="47.62959" lon="-3.00221">
        <ele>16</ele>
        <time>2021-08-04T12:01:14Z</time>
      </trkpt>
      <trkpt lat="47.62964" lon="-3.00218">
        <ele>16</ele>
        <time>2021-08-04T12:01:15Z</time>
      </trkpt>
      <trkpt lat="47.62968" lon="-3.00215">
        <ele>16</ele>
        <time>2021-08-04T12:01:16Z</time>
      </trkpt>
      <trkpt lat="47.62972" lon="-3.00212">
        <ele>16</ele>
        <time>2021-08-04T12:01:17Z</time>
      </trkpt>
      <trkpt lat="47.62976" lon="-3.00208">
        <ele>16</ele>
        <time>2021-08-04T12:01:18Z</time>
      </trkpt>
      <trkpt lat="47.6298" lon="-3.00205">
        <ele>16</ele>
        <time>2021-08-04T12:01:19Z</time>
      </trkpt>
      <trkpt lat="47.62983" lon="-3.00201">
        <ele>16</ele>
        <time>2021-08-04T12:01:20Z</time>
      </trkpt>
      <trkpt lat="47.62987" lon="-3.00198">
        <ele>16</ele>
        <time>2021-08-04T12:01:21Z</time>
      </trkpt>
      <trkpt lat="47.6299" lon="-3.00195">
        <ele>16</ele>
        <time>2021-08-04T12:01:22Z</time>
      </trkpt>
      <trkpt lat="47.62994" lon="-3.00192">
        <ele>16</ele>
        <time>2021-08-04T12:01:23Z</time>
      </trkpt>
      <trkpt lat="47.62997" lon="-3.00189">
        <ele>16</ele>
        <time>2021-08-04T12:01:24Z</time>
      </trkpt>
      <trkpt lat="47.63" lon="-3.00187">
        <ele>16.2</ele>
        <time>2021-08-04T12:01:25Z</time>
      </trkpt>
      <trkpt lat="47.63003" lon="-3.00184">
        <ele>16.2</ele>
        <time>2021-08-04T12:01:26Z</time>
      </trkpt>
      <trkpt lat="47.63007" lon="-3.00182">
        <ele>16.2</ele>
        <time>2021-08-04T12:01:27Z</time>
      </trkpt>
      <trkpt lat="47.63011" lon="-3.00179">
        <ele>16.2</ele>
        <time>2021-08-04T12:01:28Z</time>
      </trkpt>
      <trkpt lat="47.63014" lon="-3.00177">
        <ele>16.2</ele>
        <time>2021-08-04T12:01:29Z</time>
      </trkpt>
      <trkpt lat="47.63018" lon="-3.00174">
        <ele>16.2</ele>
        <time>2021-08-04T12:01:30Z</time>
      </trkpt>
      <trkpt lat="47.63021" lon="-3.00172">
        <ele>16.6</ele>
        <time>2021-08-04T12:01:31Z</time>
      </trkpt>
      <trkpt lat="47.63025" lon="-3.00169">
        <ele>16.8</ele>
        <time>2021-08-04T12:01:32Z</time>
      </trkpt>
      <trkpt lat="47.63029" lon="-3.00167">
        <ele>17</ele>
        <time>2021-08-04T12:01:33Z</time>
      </trkpt>
      <trkpt lat="47.63032" lon="-3.00164">
        <ele>17.2</ele>
        <time>2021-08-04T12:01:34Z</time>
      </trkpt>
      <trkpt lat="47.63036" lon="-3.00162">
        <ele>17.6</ele>
        <time>2021-08-04T12:01:35Z</time>
      </trkpt>
      <trkpt lat="47.6304" lon="-3.00159">
        <ele>17.6</ele>
        <time>2021-08-04T12:01:36Z</time>
      </trkpt>
      <trkpt lat="47.63043" lon="-3.00157">
        <ele>17.8</ele>
        <time>2021-08-04T12:01:37Z</time>
      </trkpt>
      <trkpt lat="47.63047" lon="-3.00155">
        <ele>18</ele>
        <time>2021-08-04T12:01:38Z</time>
      </trkpt>
      <trkpt lat="47.63051" lon="-3.00153">
        <ele>18</ele>
        <time>2021-08-04T12:01:39Z</time>
      </trkpt>
      <trkpt lat="47.63054" lon="-3.00151">
        <ele>18</ele>
        <time>2021-08-04T12:01:40Z</time>
      </trkpt>
      <trkpt lat="47.63057" lon="-3.00148">
        <ele>18.2</ele>
        <time>2021-08-04T12:01:41Z</time>
      </trkpt>
      <trkpt lat="47.63061" lon="-3.00146">
        <ele>18.2</ele>
        <time>2021-08-04T12:01:42Z</time>
      </trkpt>
      <trkpt lat="47.63064" lon="-3.00145">
        <ele>18.2</ele>
        <time>2021-08-04T12:01:43Z</time>
      </trkpt>
      <trkpt lat="47.63067" lon="-3.00143">
        <ele>18.2</ele>
        <time>2021-08-04T12:01:44Z</time>
      </trkpt>
      <trkpt lat="47.6307" lon="-3.00141">
        <ele>18.4</ele>
        <time>2021-08-04T12:01:45Z</time>
      </trkpt>
      <trkpt lat="47.63073" lon="-3.00139">
        <ele>18.6</ele>
        <time>2021-08-04T12:01:46Z</time>
      </trkpt>
      <trkpt lat="47.63075" lon="-3.00137">
        <ele>18.6</ele>
        <time>2021-08-04T12:01:47Z</time>
      </trkpt>
      <trkpt lat="47.63078" lon="-3.00136">
        <ele>18.8</ele>
        <time>2021-08-04T12:01:48Z</time>
      </trkpt>
      <trkpt lat="47.63081" lon="-3.00134">
        <ele>19</ele>
        <time>2021-08-04T12:01:49Z</time>
      </trkpt>
      <trkpt lat="47.63084" lon="-3.00133">
        <ele>19</ele>
        <time>2021-08-04T12:01:50Z</time>
      </trkpt>
      <trkpt lat="47.63087" lon="-3.00132">
        <ele>19.2</ele>
        <time>2021-08-04T12:01:51Z</time>
      </trkpt>
      <trkpt lat="47.63091" lon="-3.00131">
        <ele>19.4</ele>
        <time>2021-08-04T12:01:52Z</time>
      </trkpt>
      <trkpt lat="47.63094" lon="-3.0013">
        <ele>19.4</ele>
        <time>2021-08-04T12:01:53Z</time>
      </trkpt>
      <trkpt lat="47.63097" lon="-3.00129">
        <ele>19.4</ele>
        <time>2021-08-04T12:01:54Z</time>
      </trkpt>
      <trkpt lat="47.63101" lon="-3.00128">
        <ele>19.6</ele>
        <time>2021-08-04T12:01:55Z</time>
      </trkpt>
      <trkpt lat="47.63104" lon="-3.00127">
        <ele>19.6</ele>
        <time>2021-08-04T12:01:56Z</time>
      </trkpt>
      <trkpt lat="47.63108" lon="-3.00125">
        <ele>19.6</ele>
        <time>2021-08-04T12:01:57Z</time>
      </trkpt>
      <trkpt lat="47.63111" lon="-3.00124">
        <ele>19.8</ele>
        <time>2021-08-04T12:01:58Z</time>
      </trkpt>
      <trkpt lat="47.63115" lon="-3.00123">
        <ele>19.8</ele>
        <time>2021-08-04T12:01:59Z</time>
      </trkpt>
      <trkpt lat="47.63119" lon="-3.00121">
        <ele>19.8</ele>
        <time>2021-08-04T12:02:00Z</time>
      </trkpt>
      <trkpt lat="47.63122" lon="-3.0012">
        <ele>20</ele>
        <time>2021-08-04T12:02:01Z</time>
      </trkpt>
      <trkpt lat="47.63126" lon="-3.00118">
        <ele>20</ele>
        <time>2021-08-04T12:02:02Z</time>
      </trkpt>
      <trkpt lat="47.6313" lon="-3.00116">
        <ele>20</ele>
        <time>2021-08-04T12:02:03Z</time>
      </trkpt>
      <trkpt lat="47.63134" lon="-3.00114">
        <ele>20</ele>
        <time>2021-08-04T12:02:04Z</time>
      </trkpt>
      <trkpt lat="47.63138" lon="-3.00112">
        <ele>20.2</ele>
        <time>2021-08-04T12:02:05Z</time>
      </trkpt>
      <trkpt lat="47.63141" lon="-3.0011">
        <ele>20.2</ele>
        <time>2021-08-04T12:02:06Z</time>
      </trkpt>
      <trkpt lat="47.63145" lon="-3.00108">
        <ele>20.2</ele>
        <time>2021-08-04T12:02:07Z</time>
      </trkpt>
      <trkpt lat="47.63148" lon="-3.00106">
        <ele>20.2</ele>
        <time>2021-08-04T12:02:08Z</time>
      </trkpt>
      <trkpt lat="47.63152" lon="-3.00104">
        <ele>20.2</ele>
        <time>2021-08-04T12:02:09Z</time>
      </trkpt>
      <trkpt lat="47.63156" lon="-3.00102">
        <ele>20.2</ele>
        <time>2021-08-04T12:02:10Z</time>
      </trkpt>
      <trkpt lat="47.63159" lon="-3.001">
        <ele>20.2</ele>
        <time>2021-08-04T12:02:11Z</time>
      </trkpt>
      <trkpt lat="47.63163" lon="-3.00098">
        <ele>20.2</ele>
        <time>2021-08-04T12:02:12Z</time>
      </trkpt>
      <trkpt lat="47.63167" lon="-3.00096">
        <ele>20.2</ele>
        <time>2021-08-04T12:02:13Z</time>
      </trkpt>
      <trkpt lat="47.63171" lon="-3.00095">
        <ele>20.2</ele>
        <time>2021-08-04T12:02:14Z</time>
      </trkpt>
      <trkpt lat="47.63175" lon="-3.00093">
        <ele>20.2</ele>
        <time>2021-08-04T12:02:15Z</time>
      </trkpt>
      <trkpt lat="47.63179" lon="-3.00091">
        <ele>20.2</ele>
        <time>2021-08-04T12:02:16Z</time>
      </trkpt>
      <trkpt lat="47.63183" lon="-3.0009">
        <ele>20.4</ele>
        <time>2021-08-04T12:02:17Z</time>
      </trkpt>
      <trkpt lat="47.63187" lon="-3.00089">
        <ele>20.4</ele>
        <time>2021-08-04T12:02:18Z</time>
      </trkpt>
      <trkpt lat="47.63192" lon="-3.00088">
        <ele>20.4</ele>
        <time>2021-08-04T12:02:19Z</time>
      </trkpt>
      <trkpt lat="47.63196" lon="-3.00087">
        <ele>20.4</ele>
        <time>2021-08-04T12:02:20Z</time>
      </trkpt>
      <trkpt lat="47.632" lon="-3.00086">
        <ele>20.8</ele>
        <time>2021-08-04T12:02:21Z</time>
      </trkpt>
      <trkpt lat="47.63204" lon="-3.00085">
        <ele>20.8</ele>
        <time>2021-08-04T12:02:22Z</time>
      </trkpt>
      <trkpt lat="47.63208" lon="-3.00084">
        <ele>21</ele>
        <time>2021-08-04T12:02:23Z</time>
      </trkpt>
      <trkpt lat="47.63212" lon="-3.00083">
        <ele>21</ele>
        <time>2021-08-04T12:02:24Z</time>
      </trkpt>
      <trkpt lat="47.63216" lon="-3.00082">
        <ele>21</ele>
        <time>2021-08-04T12:02:25Z</time>
      </trkpt>
      <trkpt lat="47.6322" lon="-3.00081">
        <ele>21</ele>
        <time>2021-08-04T12:02:26Z</time>
      </trkpt>
      <trkpt lat="47.63223" lon="-3.0008">
        <ele>21</ele>
        <time>2021-08-04T12:02:27Z</time>
      </trkpt>
      <trkpt lat="47.63227" lon="-3.00079">
        <ele>21</ele>
        <time>2021-08-04T12:02:28Z</time>
      </trkpt>
      <trkpt lat="47.6323" lon="-3.00077">
        <ele>21</ele>
        <time>2021-08-04T12:02:29Z</time>
      </trkpt>
      <trkpt lat="47.63234" lon="-3.00076">
        <ele>21</ele>
        <time>2021-08-04T12:02:30Z</time>
      </trkpt>
      <trkpt lat="47.63238" lon="-3.00075">
        <ele>21</ele>
        <time>2021-08-04T12:02:31Z</time>
      </trkpt>
      <trkpt lat="47.63243" lon="-3.00073">
        <ele>21</ele>
        <time>2021-08-04T12:02:32Z</time>
      </trkpt>
      <trkpt lat="47.63247" lon="-3.00071">
        <ele>21</ele>
        <time>2021-08-04T12:02:33Z</time>
      </trkpt>
      <trkpt lat="47.63252" lon="-3.00069">
        <ele>21</ele>
        <time>2021-08-04T12:02:34Z</time>
      </trkpt>
      <trkpt lat="47.63256" lon="-3.00067">
        <ele>21</ele>
        <time>2021-08-04T12:02:35Z</time>
      </trkpt>
      <trkpt lat="47.6326" lon="-3.00065">
        <ele>21</ele>
        <time>2021-08-04T12:02:36Z</time>
      </trkpt>
      <trkpt lat="47.63265" lon="-3.00063">
        <ele>21</ele>
        <time>2021-08-04T12:02:37Z</time>
      </trkpt>
      <trkpt lat="47.63269" lon="-3.0006">
        <ele>21</ele>
        <time>2021-08-04T12:02:38Z</time>
      </trkpt>
      <trkpt lat="47.63274" lon="-3.00059">
        <ele>21</ele>
        <time>2021-08-04T12:02:39Z</time>
      </trkpt>
      <trkpt lat="47.63278" lon="-3.00057">
        <ele>21</ele>
        <time>2021-08-04T12:02:40Z</time>
      </trkpt>
      <trkpt lat="47.63283" lon="-3.00055">
        <ele>20.8</ele>
        <time>2021-08-04T12:02:41Z</time>
      </trkpt>
      <trkpt lat="47.63288" lon="-3.00054">
        <ele>20.8</ele>
        <time>2021-08-04T12:02:42Z</time>
      </trkpt>
      <trkpt lat="47.63293" lon="-3.00052">
        <ele>20.4</ele>
        <time>2021-08-04T12:02:43Z</time>
      </trkpt>
      <trkpt lat="47.63298" lon="-3.0005">
        <ele>20.4</ele>
        <time>2021-08-04T12:02:44Z</time>
      </trkpt>
      <trkpt lat="47.63302" lon="-3.00049">
        <ele>20.2</ele>
        <time>2021-08-04T12:02:45Z</time>
      </trkpt>
      <trkpt lat="47.63306" lon="-3.00047">
        <ele>20</ele>
        <time>2021-08-04T12:02:46Z</time>
      </trkpt>
      <trkpt lat="47.6331" lon="-3.00045">
        <ele>20</ele>
        <time>2021-08-04T12:02:47Z</time>
      </trkpt>
      <trkpt lat="47.63314" lon="-3.00043">
        <ele>20</ele>
        <time>2021-08-04T12:02:48Z</time>
      </trkpt>
      <trkpt lat="47.63318" lon="-3.00041">
        <ele>20</ele>
        <time>2021-08-04T12:02:49Z</time>
      </trkpt>
      <trkpt lat="47.63323" lon="-3.00039">
        <ele>19.8</ele>
        <time>2021-08-04T12:02:50Z</time>
      </trkpt>
      <trkpt lat="47.63328" lon="-3.00037">
        <ele>19.8</ele>
        <time>2021-08-04T12:02:51Z</time>
      </trkpt>
      <trkpt lat="47.63333" lon="-3.00035">
        <ele>19.8</ele>
        <time>2021-08-04T12:02:52Z</time>
      </trkpt>
      <trkpt lat="47.63338" lon="-3.00033">
        <ele>19.8</ele>
        <time>2021-08-04T12:02:53Z</time>
      </trkpt>
      <trkpt lat="47.63344" lon="-3.00031">
        <ele>19.8</ele>
        <time>2021-08-04T12:02:54Z</time>
      </trkpt>
      <trkpt lat="47.6335" lon="-3.0003">
        <ele>19.6</ele>
        <time>2021-08-04T12:02:55Z</time>
      </trkpt>
      <trkpt lat="47.63355" lon="-3.00027">
        <ele>19.6</ele>
        <time>2021-08-04T12:02:56Z</time>
      </trkpt>
      <trkpt lat="47.63361" lon="-3.00025">
        <ele>19.6</ele>
        <time>2021-08-04T12:02:57Z</time>
      </trkpt>
      <trkpt lat="47.63366" lon="-3.00023">
        <ele>19.4</ele>
        <time>2021-08-04T12:02:58Z</time>
      </trkpt>
      <trkpt lat="47.63372" lon="-3.00021">
        <ele>19.4</ele>
        <time>2021-08-04T12:02:59Z</time>
      </trkpt>
      <trkpt lat="47.63378" lon="-3.00019">
        <ele>19.4</ele>
        <time>2021-08-04T12:03:00Z</time>
      </trkpt>
      <trkpt lat="47.63383" lon="-3.00017">
        <ele>19.4</ele>
        <time>2021-08-04T12:03:01Z</time>
      </trkpt>
      <trkpt lat="47.63389" lon="-3.00016">
        <ele>19.4</ele>
        <time>2021-08-04T12:03:02Z</time>
      </trkpt>
      <trkpt lat="47.63395" lon="-3.00014">
        <ele>19.2</ele>
        <time>2021-08-04T12:03:03Z</time>
      </trkpt>
      <trkpt lat="47.63401" lon="-3.00012">
        <ele>19.2</ele>
        <time>2021-08-04T12:03:04Z</time>
      </trkpt>
      <trkpt lat="47.63406" lon="-3.00009">
        <ele>19.2</ele>
        <time>2021-08-04T12:03:05Z</time>
      </trkpt>
      <trkpt lat="47.63411" lon="-3.00006">
        <ele>19.2</ele>
        <time>2021-08-04T12:03:06Z</time>
      </trkpt>
      <trkpt lat="47.63416" lon="-3.00003">
        <ele>19.2</ele>
        <time>2021-08-04T12:03:07Z</time>
      </trkpt>
      <trkpt lat="47.63421" lon="-3.00001">
        <ele>19.2</ele>
        <time>2021-08-04T12:03:08Z</time>
      </trkpt>
      <trkpt lat="47.63426" lon="-2.99998">
        <ele>19.2</ele>
        <time>2021-08-04T12:03:09Z</time>
      </trkpt>
      <trkpt lat="47.63432" lon="-2.99996">
        <ele>19.4</ele>
        <time>2021-08-04T12:03:10Z</time>
      </trkpt>
      <trkpt lat="47.63437" lon="-2.99994">
        <ele>19.4</ele>
        <time>2021-08-04T12:03:11Z</time>
      </trkpt>
      <trkpt lat="47.63443" lon="-2.99993">
        <ele>19.4</ele>
        <time>2021-08-04T12:03:12Z</time>
      </trkpt>
      <trkpt lat="47.63448" lon="-2.99991">
        <ele>19.4</ele>
        <time>2021-08-04T12:03:13Z</time>
      </trkpt>
      <trkpt lat="47.63454" lon="-2.9999">
        <ele>19.4</ele>
        <time>2021-08-04T12:03:14Z</time>
      </trkpt>
      <trkpt lat="47.6346" lon="-2.99988">
        <ele>19.4</ele>
        <time>2021-08-04T12:03:15Z</time>
      </trkpt>
      <trkpt lat="47.63465" lon="-2.99987">
        <ele>19.4</ele>
        <time>2021-08-04T12:03:16Z</time>
      </trkpt>
      <trkpt lat="47.6347" lon="-2.99985">
        <ele>19.4</ele>
        <time>2021-08-04T12:03:17Z</time>
      </trkpt>
      <trkpt lat="47.63475" lon="-2.99983">
        <ele>19.4</ele>
        <time>2021-08-04T12:03:18Z</time>
      </trkpt>
      <trkpt lat="47.63479" lon="-2.9998">
        <ele>19.4</ele>
        <time>2021-08-04T12:03:19Z</time>
      </trkpt>
      <trkpt lat="47.63485" lon="-2.99978">
        <ele>19.4</ele>
        <time>2021-08-04T12:03:20Z</time>
      </trkpt>
      <trkpt lat="47.6349" lon="-2.99976">
        <ele>19.2</ele>
        <time>2021-08-04T12:03:21Z</time>
      </trkpt>
      <trkpt lat="47.63495" lon="-2.99974">
        <ele>19.2</ele>
        <time>2021-08-04T12:03:22Z</time>
      </trkpt>
      <trkpt lat="47.63501" lon="-2.99972">
        <ele>19</ele>
        <time>2021-08-04T12:03:23Z</time>
      </trkpt>
      <trkpt lat="47.63506" lon="-2.9997">
        <ele>18.8</ele>
        <time>2021-08-04T12:03:24Z</time>
      </trkpt>
      <trkpt lat="47.63512" lon="-2.99968">
        <ele>18.8</ele>
        <time>2021-08-04T12:03:25Z</time>
      </trkpt>
      <trkpt lat="47.63517" lon="-2.99966">
        <ele>18.6</ele>
        <time>2021-08-04T12:03:26Z</time>
      </trkpt>
      <trkpt lat="47.63523" lon="-2.99964">
        <ele>18.8</ele>
        <time>2021-08-04T12:03:27Z</time>
      </trkpt>
      <trkpt lat="47.63529" lon="-2.99961">
        <ele>18.4</ele>
        <time>2021-08-04T12:03:28Z</time>
      </trkpt>
      <trkpt lat="47.63534" lon="-2.9996">
        <ele>18.4</ele>
        <time>2021-08-04T12:03:29Z</time>
      </trkpt>
      <trkpt lat="47.63539" lon="-2.99958">
        <ele>18.4</ele>
        <time>2021-08-04T12:03:30Z</time>
      </trkpt>
      <trkpt lat="47.63545" lon="-2.99956">
        <ele>18.4</ele>
        <time>2021-08-04T12:03:31Z</time>
      </trkpt>
      <trkpt lat="47.6355" lon="-2.99954">
        <ele>18.2</ele>
        <time>2021-08-04T12:03:32Z</time>
      </trkpt>
      <trkpt lat="47.63556" lon="-2.99952">
        <ele>18.2</ele>
        <time>2021-08-04T12:03:33Z</time>
      </trkpt>
      <trkpt lat="47.63561" lon="-2.9995">
        <ele>18.2</ele>
        <time>2021-08-04T12:03:34Z</time>
      </trkpt>
      <trkpt lat="47.63567" lon="-2.99948">
        <ele>18.2</ele>
        <time>2021-08-04T12:03:35Z</time>
      </trkpt>
      <trkpt lat="47.63572" lon="-2.99946">
        <ele>18</ele>
        <time>2021-08-04T12:03:36Z</time>
      </trkpt>
      <trkpt lat="47.63577" lon="-2.99945">
        <ele>18</ele>
        <time>2021-08-04T12:03:37Z</time>
      </trkpt>
      <trkpt lat="47.63582" lon="-2.99943">
        <ele>17.8</ele>
        <time>2021-08-04T12:03:38Z</time>
      </trkpt>
      <trkpt lat="47.63587" lon="-2.99942">
        <ele>17.6</ele>
        <time>2021-08-04T12:03:39Z</time>
      </trkpt>
      <trkpt lat="47.63592" lon="-2.99941">
        <ele>17.4</ele>
        <time>2021-08-04T12:03:40Z</time>
      </trkpt>
      <trkpt lat="47.63595" lon="-2.99939">
        <ele>17.2</ele>
        <time>2021-08-04T12:03:41Z</time>
      </trkpt>
      <trkpt lat="47.63599" lon="-2.99938">
        <ele>17</ele>
        <time>2021-08-04T12:03:42Z</time>
      </trkpt>
      <trkpt lat="47.63603" lon="-2.99936">
        <ele>17</ele>
        <time>2021-08-04T12:03:43Z</time>
      </trkpt>
      <trkpt lat="47.63608" lon="-2.99934">
        <ele>17</ele>
        <time>2021-08-04T12:03:44Z</time>
      </trkpt>
      <trkpt lat="47.63612" lon="-2.99933">
        <ele>17</ele>
        <time>2021-08-04T12:03:45Z</time>
      </trkpt>
      <trkpt lat="47.63616" lon="-2.99931">
        <ele>17</ele>
        <time>2021-08-04T12:03:46Z</time>
      </trkpt>
      <trkpt lat="47.63621" lon="-2.9993">
        <ele>17</ele>
        <time>2021-08-04T12:03:47Z</time>
      </trkpt>
      <trkpt lat="47.63625" lon="-2.99929">
        <ele>17</ele>
        <time>2021-08-04T12:03:48Z</time>
      </trkpt>
      <trkpt lat="47.6363" lon="-2.99927">
        <ele>17</ele>
        <time>2021-08-04T12:03:49Z</time>
      </trkpt>
      <trkpt lat="47.63634" lon="-2.99926">
        <ele>17</ele>
        <time>2021-08-04T12:03:50Z</time>
      </trkpt>
      <trkpt lat="47.63639" lon="-2.99925">
        <ele>17</ele>
        <time>2021-08-04T12:03:51Z</time>
      </trkpt>
      <trkpt lat="47.63643" lon="-2.99924">
        <ele>17</ele>
        <time>2021-08-04T12:03:52Z</time>
      </trkpt>
      <trkpt lat="47.63648" lon="-2.99924">
        <ele>17</ele>
        <time>2021-08-04T12:03:53Z</time>
      </trkpt>
      <trkpt lat="47.63653" lon="-2.99923">
        <ele>17</ele>
        <time>2021-08-04T12:03:54Z</time>
      </trkpt>
      <trkpt lat="47.63658" lon="-2.99923">
        <ele>17</ele>
        <time>2021-08-04T12:03:55Z</time>
      </trkpt>
      <trkpt lat="47.63663" lon="-2.99924">
        <ele>17</ele>
        <time>2021-08-04T12:03:56Z</time>
      </trkpt>
      <trkpt lat="47.63668" lon="-2.99924">
        <ele>17</ele>
        <time>2021-08-04T12:03:57Z</time>
      </trkpt>
      <trkpt lat="47.63673" lon="-2.99924">
        <ele>17.4</ele>
        <time>2021-08-04T12:03:58Z</time>
      </trkpt>
      <trkpt lat="47.63678" lon="-2.99924">
        <ele>17.6</ele>
        <time>2021-08-04T12:03:59Z</time>
      </trkpt>
      <trkpt lat="47.63683" lon="-2.99924">
        <ele>17.8</ele>
        <time>2021-08-04T12:04:00Z</time>
      </trkpt>
      <trkpt lat="47.63688" lon="-2.99925">
        <ele>17.8</ele>
        <time>2021-08-04T12:04:01Z</time>
      </trkpt>
      <trkpt lat="47.63692" lon="-2.99925">
        <ele>17.8</ele>
        <time>2021-08-04T12:04:02Z</time>
      </trkpt>
      <trkpt lat="47.63697" lon="-2.99926">
        <ele>18</ele>
        <time>2021-08-04T12:04:03Z</time>
      </trkpt>
      <trkpt lat="47.63702" lon="-2.99926">
        <ele>18</ele>
        <time>2021-08-04T12:04:04Z</time>
      </trkpt>
      <trkpt lat="47.63706" lon="-2.99926">
        <ele>18</ele>
        <time>2021-08-04T12:04:05Z</time>
      </trkpt>
      <trkpt lat="47.63711" lon="-2.99926">
        <ele>18.2</ele>
        <time>2021-08-04T12:04:06Z</time>
      </trkpt>
      <trkpt lat="47.63716" lon="-2.99927">
        <ele>18.4</ele>
        <time>2021-08-04T12:04:07Z</time>
      </trkpt>
      <trkpt lat="47.6372" lon="-2.99927">
        <ele>18.6</ele>
        <time>2021-08-04T12:04:08Z</time>
      </trkpt>
      <trkpt lat="47.63724" lon="-2.99927">
        <ele>18.6</ele>
        <time>2021-08-04T12:04:09Z</time>
      </trkpt>
      <trkpt lat="47.63729" lon="-2.99927">
        <ele>18.6</ele>
        <time>2021-08-04T12:04:10Z</time>
      </trkpt>
      <trkpt lat="47.63733" lon="-2.99927">
        <ele>18.6</ele>
        <time>2021-08-04T12:04:11Z</time>
      </trkpt>
      <trkpt lat="47.63737" lon="-2.99927">
        <ele>18.6</ele>
        <time>2021-08-04T12:04:12Z</time>
      </trkpt>
      <trkpt lat="47.63741" lon="-2.99927">
        <ele>18.8</ele>
        <time>2021-08-04T12:04:13Z</time>
      </trkpt>
      <trkpt lat="47.63745" lon="-2.99927">
        <ele>18.8</ele>
        <time>2021-08-04T12:04:14Z</time>
      </trkpt>
      <trkpt lat="47.63749" lon="-2.99927">
        <ele>18.8</ele>
        <time>2021-08-04T12:04:15Z</time>
      </trkpt>
      <trkpt lat="47.63753" lon="-2.99927">
        <ele>18.8</ele>
        <time>2021-08-04T12:04:16Z</time>
      </trkpt>
      <trkpt lat="47.63756" lon="-2.99926">
        <ele>19.2</ele>
        <time>2021-08-04T12:04:17Z</time>
      </trkpt>
      <trkpt lat="47.6376" lon="-2.99926">
        <ele>19.4</ele>
        <time>2021-08-04T12:04:18Z</time>
      </trkpt>
      <trkpt lat="47.63764" lon="-2.99925">
        <ele>19.4</ele>
        <time>2021-08-04T12:04:19Z</time>
      </trkpt>
      <trkpt lat="47.63767" lon="-2.99925">
        <ele>19.6</ele>
        <time>2021-08-04T12:04:20Z</time>
      </trkpt>
      <trkpt lat="47.63772" lon="-2.99925">
        <ele>19.8</ele>
        <time>2021-08-04T12:04:21Z</time>
      </trkpt>
      <trkpt lat="47.63776" lon="-2.99925">
        <ele>19.8</ele>
        <time>2021-08-04T12:04:22Z</time>
      </trkpt>
      <trkpt lat="47.6378" lon="-2.99925">
        <ele>20</ele>
        <time>2021-08-04T12:04:23Z</time>
      </trkpt>
      <trkpt lat="47.63784" lon="-2.99925">
        <ele>20.2</ele>
        <time>2021-08-04T12:04:24Z</time>
      </trkpt>
      <trkpt lat="47.63788" lon="-2.99925">
        <ele>20.4</ele>
        <time>2021-08-04T12:04:25Z</time>
      </trkpt>
      <trkpt lat="47.63792" lon="-2.99925">
        <ele>20.6</ele>
        <time>2021-08-04T12:04:26Z</time>
      </trkpt>
      <trkpt lat="47.63796" lon="-2.99924">
        <ele>20.6</ele>
        <time>2021-08-04T12:04:27Z</time>
      </trkpt>
      <trkpt lat="47.638" lon="-2.99924">
        <ele>20.6</ele>
        <time>2021-08-04T12:04:28Z</time>
      </trkpt>
      <trkpt lat="47.63803" lon="-2.99923">
        <ele>20.6</ele>
        <time>2021-08-04T12:04:29Z</time>
      </trkpt>
      <trkpt lat="47.63806" lon="-2.99922">
        <ele>20.8</ele>
        <time>2021-08-04T12:04:30Z</time>
      </trkpt>
      <trkpt lat="47.6381" lon="-2.99922">
        <ele>20.8</ele>
        <time>2021-08-04T12:04:31Z</time>
      </trkpt>
      <trkpt lat="47.63813" lon="-2.99921">
        <ele>20.8</ele>
        <time>2021-08-04T12:04:32Z</time>
      </trkpt>
      <trkpt lat="47.63815" lon="-2.9992">
        <ele>20.8</ele>
        <time>2021-08-04T12:04:33Z</time>
      </trkpt>
      <trkpt lat="47.63818" lon="-2.99919">
        <ele>20.8</ele>
        <time>2021-08-04T12:04:34Z</time>
      </trkpt>
      <trkpt lat="47.63821" lon="-2.99918">
        <ele>20.8</ele>
        <time>2021-08-04T12:04:35Z</time>
      </trkpt>
      <trkpt lat="47.63825" lon="-2.99916">
        <ele>20.8</ele>
        <time>2021-08-04T12:04:36Z</time>
      </trkpt>
      <trkpt lat="47.63829" lon="-2.99914">
        <ele>20.6</ele>
        <time>2021-08-04T12:04:37Z</time>
      </trkpt>
      <trkpt lat="47.63833" lon="-2.99913">
        <ele>20.6</ele>
        <time>2021-08-04T12:04:38Z</time>
      </trkpt>
      <trkpt lat="47.63837" lon="-2.99912">
        <ele>20.4</ele>
        <time>2021-08-04T12:04:39Z</time>
      </trkpt>
      <trkpt lat="47.63841" lon="-2.9991">
        <ele>20.4</ele>
        <time>2021-08-04T12:04:40Z</time>
      </trkpt>
      <trkpt lat="47.63844" lon="-2.99909">
        <ele>20.4</ele>
        <time>2021-08-04T12:04:41Z</time>
      </trkpt>
      <trkpt lat="47.63847" lon="-2.99907">
        <ele>20.2</ele>
        <time>2021-08-04T12:04:42Z</time>
      </trkpt>
      <trkpt lat="47.63851" lon="-2.99906">
        <ele>20.2</ele>
        <time>2021-08-04T12:04:43Z</time>
      </trkpt>
      <trkpt lat="47.63855" lon="-2.99904">
        <ele>20.2</ele>
        <time>2021-08-04T12:04:44Z</time>
      </trkpt>
      <trkpt lat="47.63859" lon="-2.99901">
        <ele>20.2</ele>
        <time>2021-08-04T12:04:45Z</time>
      </trkpt>
      <trkpt lat="47.63863" lon="-2.99898">
        <ele>20.2</ele>
        <time>2021-08-04T12:04:46Z</time>
      </trkpt>
      <trkpt lat="47.63867" lon="-2.99894">
        <ele>20</ele>
        <time>2021-08-04T12:04:47Z</time>
      </trkpt>
      <trkpt lat="47.63871" lon="-2.99892">
        <ele>20</ele>
        <time>2021-08-04T12:04:48Z</time>
      </trkpt>
      <trkpt lat="47.63876" lon="-2.99889">
        <ele>19.8</ele>
        <time>2021-08-04T12:04:49Z</time>
      </trkpt>
      <trkpt lat="47.63881" lon="-2.99885">
        <ele>19.6</ele>
        <time>2021-08-04T12:04:50Z</time>
      </trkpt>
      <trkpt lat="47.63886" lon="-2.99882">
        <ele>19.4</ele>
        <time>2021-08-04T12:04:51Z</time>
      </trkpt>
      <trkpt lat="47.63889" lon="-2.99878">
        <ele>19.4</ele>
        <time>2021-08-04T12:04:52Z</time>
      </trkpt>
      <trkpt lat="47.63893" lon="-2.99875">
        <ele>19.4</ele>
        <time>2021-08-04T12:04:53Z</time>
      </trkpt>
      <trkpt lat="47.63897" lon="-2.99873">
        <ele>19.2</ele>
        <time>2021-08-04T12:04:54Z</time>
      </trkpt>
      <trkpt lat="47.639" lon="-2.9987">
        <ele>19.2</ele>
        <time>2021-08-04T12:04:55Z</time>
      </trkpt>
      <trkpt lat="47.63905" lon="-2.99868">
        <ele>19.2</ele>
        <time>2021-08-04T12:04:56Z</time>
      </trkpt>
      <trkpt lat="47.63909" lon="-2.99866">
        <ele>19.2</ele>
        <time>2021-08-04T12:04:57Z</time>
      </trkpt>
      <trkpt lat="47.63913" lon="-2.99863">
        <ele>19</ele>
        <time>2021-08-04T12:04:58Z</time>
      </trkpt>
      <trkpt lat="47.63917" lon="-2.9986">
        <ele>19</ele>
        <time>2021-08-04T12:04:59Z</time>
      </trkpt>
      <trkpt lat="47.63923" lon="-2.99856">
        <ele>19</ele>
        <time>2021-08-04T12:05:00Z</time>
      </trkpt>
      <trkpt lat="47.63929" lon="-2.99851">
        <ele>19</ele>
        <time>2021-08-04T12:05:01Z</time>
      </trkpt>
      <trkpt lat="47.63935" lon="-2.99847">
        <ele>18.8</ele>
        <time>2021-08-04T12:05:02Z</time>
      </trkpt>
      <trkpt lat="47.6394" lon="-2.99844">
        <ele>18.8</ele>
        <time>2021-08-04T12:05:03Z</time>
      </trkpt>
      <trkpt lat="47.63944" lon="-2.9984">
        <ele>18.8</ele>
        <time>2021-08-04T12:05:04Z</time>
      </trkpt>
      <trkpt lat="47.6395" lon="-2.99837">
        <ele>18.6</ele>
        <time>2021-08-04T12:05:05Z</time>
      </trkpt>
      <trkpt lat="47.63955" lon="-2.99834">
        <ele>18.6</ele>
        <time>2021-08-04T12:05:06Z</time>
      </trkpt>
      <trkpt lat="47.63959" lon="-2.99831">
        <ele>18.6</ele>
        <time>2021-08-04T12:05:07Z</time>
      </trkpt>
      <trkpt lat="47.63964" lon="-2.99827">
        <ele>18.4</ele>
        <time>2021-08-04T12:05:08Z</time>
      </trkpt>
      <trkpt lat="47.6397" lon="-2.99824">
        <ele>18.4</ele>
        <time>2021-08-04T12:05:09Z</time>
      </trkpt>
      <trkpt lat="47.63976" lon="-2.9982">
        <ele>18.4</ele>
        <time>2021-08-04T12:05:10Z</time>
      </trkpt>
      <trkpt lat="47.63981" lon="-2.99816">
        <ele>18.4</ele>
        <time>2021-08-04T12:05:11Z</time>
      </trkpt>
      <trkpt lat="47.63986" lon="-2.99813">
        <ele>18.4</ele>
        <time>2021-08-04T12:05:12Z</time>
      </trkpt>
      <trkpt lat="47.63993" lon="-2.99809">
        <ele>18.2</ele>
        <time>2021-08-04T12:05:13Z</time>
      </trkpt>
      <trkpt lat="47.64" lon="-2.99804">
        <ele>18.2</ele>
        <time>2021-08-04T12:05:14Z</time>
      </trkpt>
      <trkpt lat="47.64006" lon="-2.99798">
        <ele>18</ele>
        <time>2021-08-04T12:05:15Z</time>
      </trkpt>
      <trkpt lat="47.64012" lon="-2.99792">
        <ele>18</ele>
        <time>2021-08-04T12:05:16Z</time>
      </trkpt>
      <trkpt lat="47.64017" lon="-2.99787">
        <ele>18</ele>
        <time>2021-08-04T12:05:17Z</time>
      </trkpt>
      <trkpt lat="47.64023" lon="-2.99781">
        <ele>18</ele>
        <time>2021-08-04T12:05:18Z</time>
      </trkpt>
      <trkpt lat="47.64028" lon="-2.99775">
        <ele>18</ele>
        <time>2021-08-04T12:05:19Z</time>
      </trkpt>
      <trkpt lat="47.64032" lon="-2.99769">
        <ele>18</ele>
        <time>2021-08-04T12:05:20Z</time>
      </trkpt>
      <trkpt lat="47.64036" lon="-2.99763">
        <ele>17.8</ele>
        <time>2021-08-04T12:05:21Z</time>
      </trkpt>
      <trkpt lat="47.64041" lon="-2.99758">
        <ele>17.6</ele>
        <time>2021-08-04T12:05:22Z</time>
      </trkpt>
      <trkpt lat="47.64045" lon="-2.99752">
        <ele>17.6</ele>
        <time>2021-08-04T12:05:23Z</time>
      </trkpt>
      <trkpt lat="47.64048" lon="-2.99747">
        <ele>17.6</ele>
        <time>2021-08-04T12:05:24Z</time>
      </trkpt>
      <trkpt lat="47.64052" lon="-2.99742">
        <ele>17.6</ele>
        <time>2021-08-04T12:05:25Z</time>
      </trkpt>
      <trkpt lat="47.64055" lon="-2.99736">
        <ele>17.4</ele>
        <time>2021-08-04T12:05:26Z</time>
      </trkpt>
      <trkpt lat="47.64058" lon="-2.99729">
        <ele>17.4</ele>
        <time>2021-08-04T12:05:27Z</time>
      </trkpt>
      <trkpt lat="47.64061" lon="-2.99723">
        <ele>17.4</ele>
        <time>2021-08-04T12:05:28Z</time>
      </trkpt>
      <trkpt lat="47.64065" lon="-2.99718">
        <ele>17.4</ele>
        <time>2021-08-04T12:05:29Z</time>
      </trkpt>
      <trkpt lat="47.64068" lon="-2.99712">
        <ele>17.4</ele>
        <time>2021-08-04T12:05:30Z</time>
      </trkpt>
      <trkpt lat="47.64072" lon="-2.99706">
        <ele>17.6</ele>
        <time>2021-08-04T12:05:31Z</time>
      </trkpt>
      <trkpt lat="47.64076" lon="-2.997">
        <ele>17.8</ele>
        <time>2021-08-04T12:05:32Z</time>
      </trkpt>
      <trkpt lat="47.64079" lon="-2.99694">
        <ele>17.8</ele>
        <time>2021-08-04T12:05:33Z</time>
      </trkpt>
      <trkpt lat="47.64083" lon="-2.99689">
        <ele>17.8</ele>
        <time>2021-08-04T12:05:34Z</time>
      </trkpt>
      <trkpt lat="47.64086" lon="-2.99683">
        <ele>17.8</ele>
        <time>2021-08-04T12:05:35Z</time>
      </trkpt>
      <trkpt lat="47.64089" lon="-2.99677">
        <ele>17.6</ele>
        <time>2021-08-04T12:05:36Z</time>
      </trkpt>
      <trkpt lat="47.64093" lon="-2.99671">
        <ele>17.6</ele>
        <time>2021-08-04T12:05:37Z</time>
      </trkpt>
      <trkpt lat="47.64096" lon="-2.99666">
        <ele>17.6</ele>
        <time>2021-08-04T12:05:38Z</time>
      </trkpt>
      <trkpt lat="47.64099" lon="-2.9966">
        <ele>17.8</ele>
        <time>2021-08-04T12:05:39Z</time>
      </trkpt>
      <trkpt lat="47.64103" lon="-2.99655">
        <ele>17.8</ele>
        <time>2021-08-04T12:05:40Z</time>
      </trkpt>
      <trkpt lat="47.64106" lon="-2.9965">
        <ele>17.8</ele>
        <time>2021-08-04T12:05:41Z</time>
      </trkpt>
      <trkpt lat="47.64109" lon="-2.99644">
        <ele>18</ele>
        <time>2021-08-04T12:05:42Z</time>
      </trkpt>
      <trkpt lat="47.64112" lon="-2.99639">
        <ele>18</ele>
        <time>2021-08-04T12:05:43Z</time>
      </trkpt>
      <trkpt lat="47.64115" lon="-2.99634">
        <ele>18</ele>
        <time>2021-08-04T12:05:44Z</time>
      </trkpt>
      <trkpt lat="47.64118" lon="-2.99629">
        <ele>18</ele>
        <time>2021-08-04T12:05:45Z</time>
      </trkpt>
      <trkpt lat="47.64121" lon="-2.99625">
        <ele>18</ele>
        <time>2021-08-04T12:05:46Z</time>
      </trkpt>
      <trkpt lat="47.64124" lon="-2.9962">
        <ele>18</ele>
        <time>2021-08-04T12:05:47Z</time>
      </trkpt>
      <trkpt lat="47.64127" lon="-2.99615">
        <ele>18</ele>
        <time>2021-08-04T12:05:48Z</time>
      </trkpt>
      <trkpt lat="47.6413" lon="-2.99611">
        <ele>18.2</ele>
        <time>2021-08-04T12:05:49Z</time>
      </trkpt>
      <trkpt lat="47.64133" lon="-2.99607">
        <ele>18.2</ele>
        <time>2021-08-04T12:05:50Z</time>
      </trkpt>
      <trkpt lat="47.64137" lon="-2.99602">
        <ele>18.4</ele>
        <time>2021-08-04T12:05:51Z</time>
      </trkpt>
      <trkpt lat="47.6414" lon="-2.99598">
        <ele>18.4</ele>
        <time>2021-08-04T12:05:52Z</time>
      </trkpt>
      <trkpt lat="47.64143" lon="-2.99594">
        <ele>18.6</ele>
        <time>2021-08-04T12:05:53Z</time>
      </trkpt>
      <trkpt lat="47.64146" lon="-2.9959">
        <ele>18.6</ele>
        <time>2021-08-04T12:05:54Z</time>
      </trkpt>
      <trkpt lat="47.6415" lon="-2.99586">
        <ele>18.6</ele>
        <time>2021-08-04T12:05:55Z</time>
      </trkpt>
      <trkpt lat="47.64153" lon="-2.99582">
        <ele>18.8</ele>
        <time>2021-08-04T12:05:56Z</time>
      </trkpt>
      <trkpt lat="47.64157" lon="-2.99577">
        <ele>18.8</ele>
        <time>2021-08-04T12:05:57Z</time>
      </trkpt>
      <trkpt lat="47.6416" lon="-2.99573">
        <ele>18.8</ele>
        <time>2021-08-04T12:05:58Z</time>
      </trkpt>
      <trkpt lat="47.64164" lon="-2.99568">
        <ele>18.8</ele>
        <time>2021-08-04T12:05:59Z</time>
      </trkpt>
      <trkpt lat="47.64167" lon="-2.99564">
        <ele>18.8</ele>
        <time>2021-08-04T12:06:00Z</time>
      </trkpt>
      <trkpt lat="47.6417" lon="-2.9956">
        <ele>18.8</ele>
        <time>2021-08-04T12:06:01Z</time>
      </trkpt>
      <trkpt lat="47.64173" lon="-2.99556">
        <ele>19</ele>
        <time>2021-08-04T12:06:02Z</time>
      </trkpt>
      <trkpt lat="47.64177" lon="-2.99552">
        <ele>19</ele>
        <time>2021-08-04T12:06:03Z</time>
      </trkpt>
      <trkpt lat="47.6418" lon="-2.99547">
        <ele>19</ele>
        <time>2021-08-04T12:06:04Z</time>
      </trkpt>
      <trkpt lat="47.64183" lon="-2.99542">
        <ele>19</ele>
        <time>2021-08-04T12:06:05Z</time>
      </trkpt>
      <trkpt lat="47.64187" lon="-2.99537">
        <ele>19</ele>
        <time>2021-08-04T12:06:06Z</time>
      </trkpt>
      <trkpt lat="47.64191" lon="-2.99532">
        <ele>19</ele>
        <time>2021-08-04T12:06:07Z</time>
      </trkpt>
      <trkpt lat="47.64195" lon="-2.99528">
        <ele>18.8</ele>
        <time>2021-08-04T12:06:08Z</time>
      </trkpt>
      <trkpt lat="47.642" lon="-2.99523">
        <ele>18.8</ele>
        <time>2021-08-04T12:06:09Z</time>
      </trkpt>
      <trkpt lat="47.64204" lon="-2.99519">
        <ele>18.8</ele>
        <time>2021-08-04T12:06:10Z</time>
      </trkpt>
      <trkpt lat="47.64209" lon="-2.99514">
        <ele>18.8</ele>
        <time>2021-08-04T12:06:11Z</time>
      </trkpt>
      <trkpt lat="47.64215" lon="-2.99511">
        <ele>18.8</ele>
        <time>2021-08-04T12:06:12Z</time>
      </trkpt>
      <trkpt lat="47.64221" lon="-2.99508">
        <ele>18.8</ele>
        <time>2021-08-04T12:06:13Z</time>
      </trkpt>
      <trkpt lat="47.64227" lon="-2.99506">
        <ele>18.8</ele>
        <time>2021-08-04T12:06:14Z</time>
      </trkpt>
      <trkpt lat="47.64234" lon="-2.99505">
        <ele>18.4</ele>
        <time>2021-08-04T12:06:15Z</time>
      </trkpt>
      <trkpt lat="47.6424" lon="-2.99506">
        <ele>18</ele>
        <time>2021-08-04T12:06:16Z</time>
      </trkpt>
      <trkpt lat="47.64246" lon="-2.99508">
        <ele>17.8</ele>
        <time>2021-08-04T12:06:17Z</time>
      </trkpt>
      <trkpt lat="47.64253" lon="-2.99511">
        <ele>17.6</ele>
        <time>2021-08-04T12:06:18Z</time>
      </trkpt>
      <trkpt lat="47.6426" lon="-2.99513">
        <ele>17.2</ele>
        <time>2021-08-04T12:06:19Z</time>
      </trkpt>
      <trkpt lat="47.64267" lon="-2.99515">
        <ele>17</ele>
        <time>2021-08-04T12:06:20Z</time>
      </trkpt>
      <trkpt lat="47.64274" lon="-2.99517">
        <ele>16.2</ele>
        <time>2021-08-04T12:06:21Z</time>
      </trkpt>
      <trkpt lat="47.64281" lon="-2.99519">
        <ele>15.8</ele>
        <time>2021-08-04T12:06:22Z</time>
      </trkpt>
      <trkpt lat="47.64288" lon="-2.99521">
        <ele>15.4</ele>
        <time>2021-08-04T12:06:23Z</time>
      </trkpt>
      <trkpt lat="47.64295" lon="-2.99522">
        <ele>15.2</ele>
        <time>2021-08-04T12:06:24Z</time>
      </trkpt>
      <trkpt lat="47.64301" lon="-2.99523">
        <ele>15</ele>
        <time>2021-08-04T12:06:25Z</time>
      </trkpt>
      <trkpt lat="47.64308" lon="-2.99524">
        <ele>14.8</ele>
        <time>2021-08-04T12:06:26Z</time>
      </trkpt>
      <trkpt lat="47.64314" lon="-2.99525">
        <ele>14.6</ele>
        <time>2021-08-04T12:06:27Z</time>
      </trkpt>
      <trkpt lat="47.64321" lon="-2.99525">
        <ele>14.2</ele>
        <time>2021-08-04T12:06:28Z</time>
      </trkpt>
      <trkpt lat="47.64327" lon="-2.99526">
        <ele>14</ele>
        <time>2021-08-04T12:06:29Z</time>
      </trkpt>
      <trkpt lat="47.64333" lon="-2.99526">
        <ele>13.6</ele>
        <time>2021-08-04T12:06:30Z</time>
      </trkpt>
      <trkpt lat="47.64339" lon="-2.99526">
        <ele>13.2</ele>
        <time>2021-08-04T12:06:31Z</time>
      </trkpt>
      <trkpt lat="47.64346" lon="-2.99526">
        <ele>13.2</ele>
        <time>2021-08-04T12:06:32Z</time>
      </trkpt>
      <trkpt lat="47.64352" lon="-2.99526">
        <ele>13</ele>
        <time>2021-08-04T12:06:33Z</time>
      </trkpt>
      <trkpt lat="47.64358" lon="-2.99525">
        <ele>12.6</ele>
        <time>2021-08-04T12:06:34Z</time>
      </trkpt>
      <trkpt lat="47.64364" lon="-2.99523">
        <ele>12.6</ele>
        <time>2021-08-04T12:06:35Z</time>
      </trkpt>
      <trkpt lat="47.64369" lon="-2.99521">
        <ele>12.6</ele>
        <time>2021-08-04T12:06:36Z</time>
      </trkpt>
      <trkpt lat="47.64375" lon="-2.99517">
        <ele>12.4</ele>
        <time>2021-08-04T12:06:37Z</time>
      </trkpt>
      <trkpt lat="47.64381" lon="-2.99513">
        <ele>12.4</ele>
        <time>2021-08-04T12:06:38Z</time>
      </trkpt>
      <trkpt lat="47.64387" lon="-2.99507">
        <ele>12.4</ele>
        <time>2021-08-04T12:06:39Z</time>
      </trkpt>
      <trkpt lat="47.64392" lon="-2.99501">
        <ele>12.2</ele>
        <time>2021-08-04T12:06:40Z</time>
      </trkpt>
      <trkpt lat="47.64397" lon="-2.99495">
        <ele>12.2</ele>
        <time>2021-08-04T12:06:41Z</time>
      </trkpt>
      <trkpt lat="47.64402" lon="-2.99488">
        <ele>12.2</ele>
        <time>2021-08-04T12:06:42Z</time>
      </trkpt>
      <trkpt lat="47.64406" lon="-2.99482">
        <ele>12.2</ele>
        <time>2021-08-04T12:06:43Z</time>
      </trkpt>
      <trkpt lat="47.64409" lon="-2.99476">
        <ele>12.2</ele>
        <time>2021-08-04T12:06:44Z</time>
      </trkpt>
      <trkpt lat="47.64412" lon="-2.9947">
        <ele>12</ele>
        <time>2021-08-04T12:06:45Z</time>
      </trkpt>
      <trkpt lat="47.64415" lon="-2.99463">
        <ele>12</ele>
        <time>2021-08-04T12:06:46Z</time>
      </trkpt>
      <trkpt lat="47.64418" lon="-2.99456">
        <ele>12.2</ele>
        <time>2021-08-04T12:06:47Z</time>
      </trkpt>
      <trkpt lat="47.6442" lon="-2.99449">
        <ele>12.2</ele>
        <time>2021-08-04T12:06:48Z</time>
      </trkpt>
      <trkpt lat="47.64423" lon="-2.99441">
        <ele>12.2</ele>
        <time>2021-08-04T12:06:49Z</time>
      </trkpt>
      <trkpt lat="47.64425" lon="-2.99435">
        <ele>12.2</ele>
        <time>2021-08-04T12:06:50Z</time>
      </trkpt>
      <trkpt lat="47.64427" lon="-2.99427">
        <ele>12.2</ele>
        <time>2021-08-04T12:06:51Z</time>
      </trkpt>
      <trkpt lat="47.64431" lon="-2.9942">
        <ele>12.2</ele>
        <time>2021-08-04T12:06:52Z</time>
      </trkpt>
      <trkpt lat="47.64434" lon="-2.99411">
        <ele>12.4</ele>
        <time>2021-08-04T12:06:53Z</time>
      </trkpt>
      <trkpt lat="47.64439" lon="-2.99403">
        <ele>12.4</ele>
        <time>2021-08-04T12:06:54Z</time>
      </trkpt>
      <trkpt lat="47.64443" lon="-2.99396">
        <ele>12.4</ele>
        <time>2021-08-04T12:06:55Z</time>
      </trkpt>
      <trkpt lat="47.64446" lon="-2.99389">
        <ele>12.4</ele>
        <time>2021-08-04T12:06:56Z</time>
      </trkpt>
      <trkpt lat="47.64451" lon="-2.99382">
        <ele>12.4</ele>
        <time>2021-08-04T12:06:57Z</time>
      </trkpt>
      <trkpt lat="47.64455" lon="-2.99375">
        <ele>12.4</ele>
        <time>2021-08-04T12:06:58Z</time>
      </trkpt>
      <trkpt lat="47.64459" lon="-2.99369">
        <ele>12.4</ele>
        <time>2021-08-04T12:06:59Z</time>
      </trkpt>
      <trkpt lat="47.64462" lon="-2.99362">
        <ele>12.4</ele>
        <time>2021-08-04T12:07:00Z</time>
      </trkpt>
      <trkpt lat="47.64466" lon="-2.99355">
        <ele>12.4</ele>
        <time>2021-08-04T12:07:01Z</time>
      </trkpt>
      <trkpt lat="47.64469" lon="-2.99348">
        <ele>12.6</ele>
        <time>2021-08-04T12:07:02Z</time>
      </trkpt>
      <trkpt lat="47.64472" lon="-2.99341">
        <ele>12.6</ele>
        <time>2021-08-04T12:07:03Z</time>
      </trkpt>
      <trkpt lat="47.64475" lon="-2.99334">
        <ele>12.6</ele>
        <time>2021-08-04T12:07:04Z</time>
      </trkpt>
      <trkpt lat="47.64478" lon="-2.99326">
        <ele>12.8</ele>
        <time>2021-08-04T12:07:05Z</time>
      </trkpt>
      <trkpt lat="47.6448" lon="-2.99319">
        <ele>12.8</ele>
        <time>2021-08-04T12:07:06Z</time>
      </trkpt>
      <trkpt lat="47.64481" lon="-2.99311">
        <ele>12.8</ele>
        <time>2021-08-04T12:07:07Z</time>
      </trkpt>
      <trkpt lat="47.64483" lon="-2.99303">
        <ele>12.8</ele>
        <time>2021-08-04T12:07:08Z</time>
      </trkpt>
      <trkpt lat="47.64484" lon="-2.99295">
        <ele>12.8</ele>
        <time>2021-08-04T12:07:09Z</time>
      </trkpt>
      <trkpt lat="47.64484" lon="-2.99287">
        <ele>13</ele>
        <time>2021-08-04T12:07:10Z</time>
      </trkpt>
      <trkpt lat="47.64484" lon="-2.9928">
        <ele>13</ele>
        <time>2021-08-04T12:07:11Z</time>
      </trkpt>
      <trkpt lat="47.64484" lon="-2.99273">
        <ele>13</ele>
        <time>2021-08-04T12:07:12Z</time>
      </trkpt>
      <trkpt lat="47.64484" lon="-2.99267">
        <ele>13</ele>
        <time>2021-08-04T12:07:13Z</time>
      </trkpt>
      <trkpt lat="47.64484" lon="-2.99261">
        <ele>13</ele>
        <time>2021-08-04T12:07:14Z</time>
      </trkpt>
      <trkpt lat="47.64484" lon="-2.99256">
        <ele>13</ele>
        <time>2021-08-04T12:07:15Z</time>
      </trkpt>
      <trkpt lat="47.64483" lon="-2.9925">
        <ele>13</ele>
        <time>2021-08-04T12:07:16Z</time>
      </trkpt>
      <trkpt lat="47.64483" lon="-2.99245">
        <ele>13</ele>
        <time>2021-08-04T12:07:17Z</time>
      </trkpt>
      <trkpt lat="47.64482" lon="-2.9924">
        <ele>13.2</ele>
        <time>2021-08-04T12:07:18Z</time>
      </trkpt>
      <trkpt lat="47.64482" lon="-2.99236">
        <ele>13.2</ele>
        <time>2021-08-04T12:07:19Z</time>
      </trkpt>
      <trkpt lat="47.64482" lon="-2.99231">
        <ele>13.4</ele>
        <time>2021-08-04T12:07:20Z</time>
      </trkpt>
      <trkpt lat="47.64481" lon="-2.99227">
        <ele>13.4</ele>
        <time>2021-08-04T12:07:21Z</time>
      </trkpt>
      <trkpt lat="47.64481" lon="-2.99222">
        <ele>13.6</ele>
        <time>2021-08-04T12:07:22Z</time>
      </trkpt>
      <trkpt lat="47.64481" lon="-2.99218">
        <ele>13.8</ele>
        <time>2021-08-04T12:07:23Z</time>
      </trkpt>
      <trkpt lat="47.6448" lon="-2.99213">
        <ele>14</ele>
        <time>2021-08-04T12:07:24Z</time>
      </trkpt>
      <trkpt lat="47.6448" lon="-2.99208">
        <ele>14.2</ele>
        <time>2021-08-04T12:07:25Z</time>
      </trkpt>
      <trkpt lat="47.64479" lon="-2.99204">
        <ele>14.6</ele>
        <time>2021-08-04T12:07:26Z</time>
      </trkpt>
      <trkpt lat="47.64479" lon="-2.99199">
        <ele>14.8</ele>
        <time>2021-08-04T12:07:27Z</time>
      </trkpt>
      <trkpt lat="47.64479" lon="-2.99194">
        <ele>15</ele>
        <time>2021-08-04T12:07:28Z</time>
      </trkpt>
      <trkpt lat="47.64478" lon="-2.9919">
        <ele>15.2</ele>
        <time>2021-08-04T12:07:29Z</time>
      </trkpt>
      <trkpt lat="47.64478" lon="-2.99185">
        <ele>15.2</ele>
        <time>2021-08-04T12:07:30Z</time>
      </trkpt>
      <trkpt lat="47.64478" lon="-2.99181">
        <ele>15.4</ele>
        <time>2021-08-04T12:07:31Z</time>
      </trkpt>
      <trkpt lat="47.64477" lon="-2.99177">
        <ele>15.4</ele>
        <time>2021-08-04T12:07:32Z</time>
      </trkpt>
      <trkpt lat="47.64477" lon="-2.99173">
        <ele>15.6</ele>
        <time>2021-08-04T12:07:33Z</time>
      </trkpt>
      <trkpt lat="47.64477" lon="-2.99169">
        <ele>15.8</ele>
        <time>2021-08-04T12:07:34Z</time>
      </trkpt>
      <trkpt lat="47.64477" lon="-2.99166">
        <ele>16</ele>
        <time>2021-08-04T12:07:35Z</time>
      </trkpt>
      <trkpt lat="47.64476" lon="-2.99162">
        <ele>16.2</ele>
        <time>2021-08-04T12:07:36Z</time>
      </trkpt>
      <trkpt lat="47.64476" lon="-2.99159">
        <ele>16.4</ele>
        <time>2021-08-04T12:07:37Z</time>
      </trkpt>
      <trkpt lat="47.64476" lon="-2.99155">
        <ele>16.6</ele>
        <time>2021-08-04T12:07:38Z</time>
      </trkpt>
      <trkpt lat="47.64476" lon="-2.99151">
        <ele>16.6</ele>
        <time>2021-08-04T12:07:39Z</time>
      </trkpt>
      <trkpt lat="47.64476" lon="-2.99148">
        <ele>16.8</ele>
        <time>2021-08-04T12:07:40Z</time>
      </trkpt>
      <trkpt lat="47.64475" lon="-2.99144">
        <ele>17</ele>
        <time>2021-08-04T12:07:41Z</time>
      </trkpt>
      <trkpt lat="47.64475" lon="-2.99141">
        <ele>17.2</ele>
        <time>2021-08-04T12:07:42Z</time>
      </trkpt>
      <trkpt lat="47.64475" lon="-2.99137">
        <ele>17.4</ele>
        <time>2021-08-04T12:07:43Z</time>
      </trkpt>
      <trkpt lat="47.64476" lon="-2.99132">
        <ele>17.6</ele>
        <time>2021-08-04T12:07:44Z</time>
      </trkpt>
      <trkpt lat="47.64476" lon="-2.99128">
        <ele>17.6</ele>
        <time>2021-08-04T12:07:45Z</time>
      </trkpt>
      <trkpt lat="47.64476" lon="-2.99124">
        <ele>17.8</ele>
        <time>2021-08-04T12:07:46Z</time>
      </trkpt>
      <trkpt lat="47.64476" lon="-2.9912">
        <ele>17.8</ele>
        <time>2021-08-04T12:07:47Z</time>
      </trkpt>
      <trkpt lat="47.64476" lon="-2.99116">
        <ele>17.8</ele>
        <time>2021-08-04T12:07:48Z</time>
      </trkpt>
      <trkpt lat="47.64477" lon="-2.99112">
        <ele>18</ele>
        <time>2021-08-04T12:07:49Z</time>
      </trkpt>
      <trkpt lat="47.64477" lon="-2.99108">
        <ele>18</ele>
        <time>2021-08-04T12:07:50Z</time>
      </trkpt>
      <trkpt lat="47.64477" lon="-2.99105">
        <ele>18</ele>
        <time>2021-08-04T12:07:51Z</time>
      </trkpt>
      <trkpt lat="47.64477" lon="-2.99101">
        <ele>18.2</ele>
        <time>2021-08-04T12:07:52Z</time>
      </trkpt>
      <trkpt lat="47.64477" lon="-2.99098">
        <ele>18.2</ele>
        <time>2021-08-04T12:07:53Z</time>
      </trkpt>
      <trkpt lat="47.64478" lon="-2.99094">
        <ele>18.4</ele>
        <time>2021-08-04T12:07:54Z</time>
      </trkpt>
      <trkpt lat="47.64479" lon="-2.99089">
        <ele>18.6</ele>
        <time>2021-08-04T12:07:55Z</time>
      </trkpt>
      <trkpt lat="47.64479" lon="-2.99085">
        <ele>18.8</ele>
        <time>2021-08-04T12:07:56Z</time>
      </trkpt>
      <trkpt lat="47.6448" lon="-2.9908">
        <ele>19</ele>
        <time>2021-08-04T12:07:57Z</time>
      </trkpt>
      <trkpt lat="47.64481" lon="-2.99076">
        <ele>19.2</ele>
        <time>2021-08-04T12:07:58Z</time>
      </trkpt>
      <trkpt lat="47.64482" lon="-2.99072">
        <ele>19.2</ele>
        <time>2021-08-04T12:07:59Z</time>
      </trkpt>
      <trkpt lat="47.64483" lon="-2.99068">
        <ele>19.2</ele>
        <time>2021-08-04T12:08:00Z</time>
      </trkpt>
      <trkpt lat="47.64483" lon="-2.99064">
        <ele>19.2</ele>
        <time>2021-08-04T12:08:01Z</time>
      </trkpt>
      <trkpt lat="47.64484" lon="-2.99059">
        <ele>19.2</ele>
        <time>2021-08-04T12:08:02Z</time>
      </trkpt>
      <trkpt lat="47.64484" lon="-2.99055">
        <ele>19.2</ele>
        <time>2021-08-04T12:08:03Z</time>
      </trkpt>
      <trkpt lat="47.64484" lon="-2.9905">
        <ele>19.4</ele>
        <time>2021-08-04T12:08:04Z</time>
      </trkpt>
      <trkpt lat="47.64484" lon="-2.99046">
        <ele>19.4</ele>
        <time>2021-08-04T12:08:05Z</time>
      </trkpt>
      <trkpt lat="47.64484" lon="-2.99041">
        <ele>19.4</ele>
        <time>2021-08-04T12:08:06Z</time>
      </trkpt>
      <trkpt lat="47.64484" lon="-2.99037">
        <ele>19.4</ele>
        <time>2021-08-04T12:08:07Z</time>
      </trkpt>
      <trkpt lat="47.64483" lon="-2.99032">
        <ele>19.4</ele>
        <time>2021-08-04T12:08:08Z</time>
      </trkpt>
      <trkpt lat="47.64483" lon="-2.99028">
        <ele>19.4</ele>
        <time>2021-08-04T12:08:09Z</time>
      </trkpt>
      <trkpt lat="47.64482" lon="-2.99024">
        <ele>19.4</ele>
        <time>2021-08-04T12:08:10Z</time>
      </trkpt>
      <trkpt lat="47.64482" lon="-2.99019">
        <ele>19.4</ele>
        <time>2021-08-04T12:08:11Z</time>
      </trkpt>
      <trkpt lat="47.64481" lon="-2.99014">
        <ele>19.4</ele>
        <time>2021-08-04T12:08:12Z</time>
      </trkpt>
      <trkpt lat="47.6448" lon="-2.99009">
        <ele>19.4</ele>
        <time>2021-08-04T12:08:13Z</time>
      </trkpt>
      <trkpt lat="47.64479" lon="-2.99003">
        <ele>19.4</ele>
        <time>2021-08-04T12:08:14Z</time>
      </trkpt>
      <trkpt lat="47.64478" lon="-2.98998">
        <ele>19.4</ele>
        <time>2021-08-04T12:08:15Z</time>
      </trkpt>
      <trkpt lat="47.64477" lon="-2.98993">
        <ele>19.2</ele>
        <time>2021-08-04T12:08:16Z</time>
      </trkpt>
      <trkpt lat="47.64476" lon="-2.98989">
        <ele>19.2</ele>
        <time>2021-08-04T12:08:17Z</time>
      </trkpt>
      <trkpt lat="47.64476" lon="-2.98985">
        <ele>19.2</ele>
        <time>2021-08-04T12:08:18Z</time>
      </trkpt>
      <trkpt lat="47.64476" lon="-2.98984">
        <ele>19.2</ele>
        <time>2021-08-04T12:08:19Z</time>
      </trkpt>
      <trkpt lat="47.64476" lon="-2.98983">
        <ele>19.2</ele>
        <time>2021-08-04T12:08:20Z</time>
      </trkpt>
      <trkpt lat="47.64476" lon="-2.98983">
        <ele>19</ele>
        <time>2021-08-04T12:08:58Z</time>
      </trkpt>
      <trkpt lat="47.64476" lon="-2.98982">
        <ele>19</ele>
        <time>2021-08-04T12:08:59Z</time>
      </trkpt>
      <trkpt lat="47.64476" lon="-2.9898">
        <ele>19</ele>
        <time>2021-08-04T12:09:00Z</time>
      </trkpt>
      <trkpt lat="47.64476" lon="-2.98977">
        <ele>19</ele>
        <time>2021-08-04T12:09:01Z</time>
      </trkpt>
      <trkpt lat="47.64477" lon="-2.98975">
        <ele>19</ele>
        <time>2021-08-04T12:09:02Z</time>
      </trkpt>
      <trkpt lat="47.64478" lon="-2.98973">
        <ele>19</ele>
        <time>2021-08-04T12:09:03Z</time>
      </trkpt>
      <trkpt lat="47.64481" lon="-2.98973">
        <ele>19</ele>
        <time>2021-08-04T12:09:04Z</time>
      </trkpt>
      <trkpt lat="47.64484" lon="-2.98972">
        <ele>19</ele>
        <time>2021-08-04T12:09:05Z</time>
      </trkpt>
      <trkpt lat="47.64487" lon="-2.98971">
        <ele>19</ele>
        <time>2021-08-04T12:09:06Z</time>
      </trkpt>
      <trkpt lat="47.64491" lon="-2.98971">
        <ele>19</ele>
        <time>2021-08-04T12:09:07Z</time>
      </trkpt>
      <trkpt lat="47.64495" lon="-2.9897">
        <ele>18.6</ele>
        <time>2021-08-04T12:09:08Z</time>
      </trkpt>
      <trkpt lat="47.64499" lon="-2.98969">
        <ele>18.6</ele>
        <time>2021-08-04T12:09:09Z</time>
      </trkpt>
      <trkpt lat="47.64503" lon="-2.98968">
        <ele>18.6</ele>
        <time>2021-08-04T12:09:10Z</time>
      </trkpt>
      <trkpt lat="47.64507" lon="-2.98967">
        <ele>18.6</ele>
        <time>2021-08-04T12:09:11Z</time>
      </trkpt>
      <trkpt lat="47.64511" lon="-2.98965">
        <ele>18.4</ele>
        <time>2021-08-04T12:09:12Z</time>
      </trkpt>
      <trkpt lat="47.64515" lon="-2.98964">
        <ele>18.4</ele>
        <time>2021-08-04T12:09:13Z</time>
      </trkpt>
      <trkpt lat="47.64519" lon="-2.98963">
        <ele>18.4</ele>
        <time>2021-08-04T12:09:14Z</time>
      </trkpt>
      <trkpt lat="47.64524" lon="-2.98962">
        <ele>18.4</ele>
        <time>2021-08-04T12:09:15Z</time>
      </trkpt>
      <trkpt lat="47.64528" lon="-2.9896">
        <ele>18.4</ele>
        <time>2021-08-04T12:09:16Z</time>
      </trkpt>
      <trkpt lat="47.64533" lon="-2.98959">
        <ele>18.4</ele>
        <time>2021-08-04T12:09:17Z</time>
      </trkpt>
      <trkpt lat="47.64538" lon="-2.98957">
        <ele>18.4</ele>
        <time>2021-08-04T12:09:18Z</time>
      </trkpt>
      <trkpt lat="47.64542" lon="-2.98955">
        <ele>18.4</ele>
        <time>2021-08-04T12:09:19Z</time>
      </trkpt>
      <trkpt lat="47.64547" lon="-2.98954">
        <ele>18.4</ele>
        <time>2021-08-04T12:09:20Z</time>
      </trkpt>
      <trkpt lat="47.64552" lon="-2.98952">
        <ele>18.6</ele>
        <time>2021-08-04T12:09:21Z</time>
      </trkpt>
      <trkpt lat="47.64556" lon="-2.98951">
        <ele>18.6</ele>
        <time>2021-08-04T12:09:22Z</time>
      </trkpt>
      <trkpt lat="47.6456" lon="-2.9895">
        <ele>18.6</ele>
        <time>2021-08-04T12:09:23Z</time>
      </trkpt>
      <trkpt lat="47.64564" lon="-2.98949">
        <ele>18.6</ele>
        <time>2021-08-04T12:09:24Z</time>
      </trkpt>
      <trkpt lat="47.64568" lon="-2.98948">
        <ele>18.6</ele>
        <time>2021-08-04T12:09:25Z</time>
      </trkpt>
      <trkpt lat="47.64572" lon="-2.98946">
        <ele>18.6</ele>
        <time>2021-08-04T12:09:26Z</time>
      </trkpt>
      <trkpt lat="47.64577" lon="-2.98945">
        <ele>18.6</ele>
        <time>2021-08-04T12:09:27Z</time>
      </trkpt>
      <trkpt lat="47.64581" lon="-2.98944">
        <ele>18.6</ele>
        <time>2021-08-04T12:09:28Z</time>
      </trkpt>
      <trkpt lat="47.64585" lon="-2.98943">
        <ele>18.6</ele>
        <time>2021-08-04T12:09:29Z</time>
      </trkpt>
      <trkpt lat="47.64589" lon="-2.98941">
        <ele>18.6</ele>
        <time>2021-08-04T12:09:30Z</time>
      </trkpt>
      <trkpt lat="47.64593" lon="-2.9894">
        <ele>18.8</ele>
        <time>2021-08-04T12:09:31Z</time>
      </trkpt>
      <trkpt lat="47.64597" lon="-2.98939">
        <ele>18.8</ele>
        <time>2021-08-04T12:09:32Z</time>
      </trkpt>
      <trkpt lat="47.64601" lon="-2.98938">
        <ele>18.8</ele>
        <time>2021-08-04T12:09:33Z</time>
      </trkpt>
      <trkpt lat="47.64605" lon="-2.98937">
        <ele>18.8</ele>
        <time>2021-08-04T12:09:34Z</time>
      </trkpt>
      <trkpt lat="47.64609" lon="-2.98936">
        <ele>18.8</ele>
        <time>2021-08-04T12:09:35Z</time>
      </trkpt>
      <trkpt lat="47.64613" lon="-2.98934">
        <ele>19</ele>
        <time>2021-08-04T12:09:36Z</time>
      </trkpt>
      <trkpt lat="47.64617" lon="-2.98933">
        <ele>18.8</ele>
        <time>2021-08-04T12:09:37Z</time>
      </trkpt>
      <trkpt lat="47.64622" lon="-2.98932">
        <ele>18.8</ele>
        <time>2021-08-04T12:09:38Z</time>
      </trkpt>
      <trkpt lat="47.64626" lon="-2.98931">
        <ele>19</ele>
        <time>2021-08-04T12:09:39Z</time>
      </trkpt>
      <trkpt lat="47.6463" lon="-2.9893">
        <ele>19</ele>
        <time>2021-08-04T12:09:40Z</time>
      </trkpt>
      <trkpt lat="47.64635" lon="-2.98928">
        <ele>19</ele>
        <time>2021-08-04T12:09:41Z</time>
      </trkpt>
      <trkpt lat="47.64639" lon="-2.98927">
        <ele>19</ele>
        <time>2021-08-04T12:09:42Z</time>
      </trkpt>
      <trkpt lat="47.64643" lon="-2.98926">
        <ele>19.2</ele>
        <time>2021-08-04T12:09:43Z</time>
      </trkpt>
      <trkpt lat="47.64648" lon="-2.98925">
        <ele>19.2</ele>
        <time>2021-08-04T12:09:44Z</time>
      </trkpt>
      <trkpt lat="47.64652" lon="-2.98924">
        <ele>19.2</ele>
        <time>2021-08-04T12:09:45Z</time>
      </trkpt>
      <trkpt lat="47.64656" lon="-2.98923">
        <ele>19.4</ele>
        <time>2021-08-04T12:09:46Z</time>
      </trkpt>
      <trkpt lat="47.6466" lon="-2.98921">
        <ele>19.4</ele>
        <time>2021-08-04T12:09:47Z</time>
      </trkpt>
      <trkpt lat="47.64665" lon="-2.9892">
        <ele>19.4</ele>
        <time>2021-08-04T12:09:48Z</time>
      </trkpt>
      <trkpt lat="47.64669" lon="-2.98919">
        <ele>19.4</ele>
        <time>2021-08-04T12:09:49Z</time>
      </trkpt>
      <trkpt lat="47.64673" lon="-2.98917">
        <ele>19.4</ele>
        <time>2021-08-04T12:09:50Z</time>
      </trkpt>
      <trkpt lat="47.64678" lon="-2.98916">
        <ele>19.6</ele>
        <time>2021-08-04T12:09:51Z</time>
      </trkpt>
      <trkpt lat="47.64682" lon="-2.98914">
        <ele>19.6</ele>
        <time>2021-08-04T12:09:52Z</time>
      </trkpt>
      <trkpt lat="47.64687" lon="-2.98913">
        <ele>19.8</ele>
        <time>2021-08-04T12:09:53Z</time>
      </trkpt>
      <trkpt lat="47.64691" lon="-2.98912">
        <ele>19.8</ele>
        <time>2021-08-04T12:09:54Z</time>
      </trkpt>
      <trkpt lat="47.64696" lon="-2.9891">
        <ele>20</ele>
        <time>2021-08-04T12:09:55Z</time>
      </trkpt>
      <trkpt lat="47.647" lon="-2.98909">
        <ele>20</ele>
        <time>2021-08-04T12:09:56Z</time>
      </trkpt>
      <trkpt lat="47.64705" lon="-2.98907">
        <ele>20</ele>
        <time>2021-08-04T12:09:57Z</time>
      </trkpt>
      <trkpt lat="47.64709" lon="-2.98905">
        <ele>20</ele>
        <time>2021-08-04T12:09:58Z</time>
      </trkpt>
      <trkpt lat="47.64714" lon="-2.98904">
        <ele>20.2</ele>
        <time>2021-08-04T12:09:59Z</time>
      </trkpt>
      <trkpt lat="47.64718" lon="-2.98902">
        <ele>20.2</ele>
        <time>2021-08-04T12:10:00Z</time>
      </trkpt>
      <trkpt lat="47.64723" lon="-2.989">
        <ele>20.2</ele>
        <time>2021-08-04T12:10:01Z</time>
      </trkpt>
      <trkpt lat="47.64727" lon="-2.98897">
        <ele>20.2</ele>
        <time>2021-08-04T12:10:02Z</time>
      </trkpt>
      <trkpt lat="47.64731" lon="-2.98895">
        <ele>20.2</ele>
        <time>2021-08-04T12:10:03Z</time>
      </trkpt>
      <trkpt lat="47.64736" lon="-2.98893">
        <ele>20.4</ele>
        <time>2021-08-04T12:10:04Z</time>
      </trkpt>
      <trkpt lat="47.6474" lon="-2.9889">
        <ele>20.8</ele>
        <time>2021-08-04T12:10:05Z</time>
      </trkpt>
      <trkpt lat="47.64744" lon="-2.98887">
        <ele>21</ele>
        <time>2021-08-04T12:10:06Z</time>
      </trkpt>
      <trkpt lat="47.64748" lon="-2.98884">
        <ele>21</ele>
        <time>2021-08-04T12:10:07Z</time>
      </trkpt>
      <trkpt lat="47.64752" lon="-2.98881">
        <ele>21.2</ele>
        <time>2021-08-04T12:10:08Z</time>
      </trkpt>
      <trkpt lat="47.64756" lon="-2.98878">
        <ele>21.2</ele>
        <time>2021-08-04T12:10:09Z</time>
      </trkpt>
      <trkpt lat="47.64759" lon="-2.98875">
        <ele>21.4</ele>
        <time>2021-08-04T12:10:10Z</time>
      </trkpt>
      <trkpt lat="47.64763" lon="-2.98872">
        <ele>21.4</ele>
        <time>2021-08-04T12:10:11Z</time>
      </trkpt>
      <trkpt lat="47.64766" lon="-2.98868">
        <ele>21.4</ele>
        <time>2021-08-04T12:10:12Z</time>
      </trkpt>
      <trkpt lat="47.6477" lon="-2.98865">
        <ele>21.6</ele>
        <time>2021-08-04T12:10:13Z</time>
      </trkpt>
      <trkpt lat="47.64774" lon="-2.98861">
        <ele>21.6</ele>
        <time>2021-08-04T12:10:14Z</time>
      </trkpt>
      <trkpt lat="47.64778" lon="-2.98858">
        <ele>22</ele>
        <time>2021-08-04T12:10:15Z</time>
      </trkpt>
      <trkpt lat="47.64781" lon="-2.98854">
        <ele>22.2</ele>
        <time>2021-08-04T12:10:16Z</time>
      </trkpt>
      <trkpt lat="47.64785" lon="-2.9885">
        <ele>22.6</ele>
        <time>2021-08-04T12:10:17Z</time>
      </trkpt>
      <trkpt lat="47.64789" lon="-2.98846">
        <ele>22.8</ele>
        <time>2021-08-04T12:10:18Z</time>
      </trkpt>
      <trkpt lat="47.64792" lon="-2.98842">
        <ele>23</ele>
        <time>2021-08-04T12:10:19Z</time>
      </trkpt>
      <trkpt lat="47.64796" lon="-2.98838">
        <ele>23.2</ele>
        <time>2021-08-04T12:10:20Z</time>
      </trkpt>
      <trkpt lat="47.648" lon="-2.98833">
        <ele>23.2</ele>
        <time>2021-08-04T12:10:21Z</time>
      </trkpt>
      <trkpt lat="47.64804" lon="-2.98829">
        <ele>23.4</ele>
        <time>2021-08-04T12:10:22Z</time>
      </trkpt>
      <trkpt lat="47.64807" lon="-2.98824">
        <ele>23.4</ele>
        <time>2021-08-04T12:10:23Z</time>
      </trkpt>
      <trkpt lat="47.64811" lon="-2.9882">
        <ele>23.4</ele>
        <time>2021-08-04T12:10:24Z</time>
      </trkpt>
      <trkpt lat="47.64815" lon="-2.98815">
        <ele>23.6</ele>
        <time>2021-08-04T12:10:25Z</time>
      </trkpt>
      <trkpt lat="47.64818" lon="-2.98811">
        <ele>23.6</ele>
        <time>2021-08-04T12:10:26Z</time>
      </trkpt>
      <trkpt lat="47.64822" lon="-2.98806">
        <ele>23.6</ele>
        <time>2021-08-04T12:10:27Z</time>
      </trkpt>
      <trkpt lat="47.64826" lon="-2.98802">
        <ele>23.6</ele>
        <time>2021-08-04T12:10:28Z</time>
      </trkpt>
      <trkpt lat="47.64829" lon="-2.98797">
        <ele>23.8</ele>
        <time>2021-08-04T12:10:29Z</time>
      </trkpt>
      <trkpt lat="47.64833" lon="-2.98793">
        <ele>23.8</ele>
        <time>2021-08-04T12:10:30Z</time>
      </trkpt>
      <trkpt lat="47.64837" lon="-2.98788">
        <ele>23.8</ele>
        <time>2021-08-04T12:10:31Z</time>
      </trkpt>
      <trkpt lat="47.6484" lon="-2.98784">
        <ele>23.8</ele>
        <time>2021-08-04T12:10:32Z</time>
      </trkpt>
      <trkpt lat="47.64845" lon="-2.98778">
        <ele>23.8</ele>
        <time>2021-08-04T12:10:33Z</time>
      </trkpt>
      <trkpt lat="47.64849" lon="-2.98773">
        <ele>23.8</ele>
        <time>2021-08-04T12:10:34Z</time>
      </trkpt>
      <trkpt lat="47.64853" lon="-2.98768">
        <ele>23.8</ele>
        <time>2021-08-04T12:10:35Z</time>
      </trkpt>
      <trkpt lat="47.64857" lon="-2.98763">
        <ele>23.8</ele>
        <time>2021-08-04T12:10:36Z</time>
      </trkpt>
      <trkpt lat="47.64861" lon="-2.98758">
        <ele>23.8</ele>
        <time>2021-08-04T12:10:37Z</time>
      </trkpt>
      <trkpt lat="47.64866" lon="-2.98753">
        <ele>23.8</ele>
        <time>2021-08-04T12:10:38Z</time>
      </trkpt>
      <trkpt lat="47.6487" lon="-2.98748">
        <ele>23.8</ele>
        <time>2021-08-04T12:10:39Z</time>
      </trkpt>
      <trkpt lat="47.64874" lon="-2.98742">
        <ele>23.6</ele>
        <time>2021-08-04T12:10:40Z</time>
      </trkpt>
      <trkpt lat="47.64878" lon="-2.98737">
        <ele>23.6</ele>
        <time>2021-08-04T12:10:41Z</time>
      </trkpt>
      <trkpt lat="47.64882" lon="-2.98732">
        <ele>23.4</ele>
        <time>2021-08-04T12:10:42Z</time>
      </trkpt>
      <trkpt lat="47.64887" lon="-2.98726">
        <ele>23.2</ele>
        <time>2021-08-04T12:10:43Z</time>
      </trkpt>
      <trkpt lat="47.64891" lon="-2.98721">
        <ele>23.2</ele>
        <time>2021-08-04T12:10:44Z</time>
      </trkpt>
      <trkpt lat="47.64895" lon="-2.98715">
        <ele>23.2</ele>
        <time>2021-08-04T12:10:45Z</time>
      </trkpt>
      <trkpt lat="47.64899" lon="-2.9871">
        <ele>23.2</ele>
        <time>2021-08-04T12:10:46Z</time>
      </trkpt>
      <trkpt lat="47.64904" lon="-2.98704">
        <ele>23</ele>
        <time>2021-08-04T12:10:47Z</time>
      </trkpt>
      <trkpt lat="47.64908" lon="-2.98698">
        <ele>23</ele>
        <time>2021-08-04T12:10:48Z</time>
      </trkpt>
      <trkpt lat="47.64913" lon="-2.98693">
        <ele>22.6</ele>
        <time>2021-08-04T12:10:49Z</time>
      </trkpt>
      <trkpt lat="47.64917" lon="-2.98687">
        <ele>22.4</ele>
        <time>2021-08-04T12:10:50Z</time>
      </trkpt>
      <trkpt lat="47.64922" lon="-2.98681">
        <ele>22.2</ele>
        <time>2021-08-04T12:10:51Z</time>
      </trkpt>
      <trkpt lat="47.64926" lon="-2.98675">
        <ele>22</ele>
        <time>2021-08-04T12:10:52Z</time>
      </trkpt>
      <trkpt lat="47.64931" lon="-2.9867">
        <ele>21.8</ele>
        <time>2021-08-04T12:10:53Z</time>
      </trkpt>
      <trkpt lat="47.64936" lon="-2.98664">
        <ele>21.6</ele>
        <time>2021-08-04T12:10:54Z</time>
      </trkpt>
      <trkpt lat="47.6494" lon="-2.98658">
        <ele>21.4</ele>
        <time>2021-08-04T12:10:55Z</time>
      </trkpt>
      <trkpt lat="47.64945" lon="-2.98651">
        <ele>21.4</ele>
        <time>2021-08-04T12:10:56Z</time>
      </trkpt>
      <trkpt lat="47.6495" lon="-2.98645">
        <ele>21.2</ele>
        <time>2021-08-04T12:10:57Z</time>
      </trkpt>
      <trkpt lat="47.64955" lon="-2.98639">
        <ele>21.2</ele>
        <time>2021-08-04T12:10:58Z</time>
      </trkpt>
      <trkpt lat="47.6496" lon="-2.98632">
        <ele>21.2</ele>
        <time>2021-08-04T12:10:59Z</time>
      </trkpt>
      <trkpt lat="47.64965" lon="-2.98626">
        <ele>21</ele>
        <time>2021-08-04T12:11:00Z</time>
      </trkpt>
      <trkpt lat="47.6497" lon="-2.9862">
        <ele>21</ele>
        <time>2021-08-04T12:11:01Z</time>
      </trkpt>
      <trkpt lat="47.64975" lon="-2.98614">
        <ele>20.8</ele>
        <time>2021-08-04T12:11:02Z</time>
      </trkpt>
      <trkpt lat="47.64981" lon="-2.98607">
        <ele>20.4</ele>
        <time>2021-08-04T12:11:03Z</time>
      </trkpt>
      <trkpt lat="47.64986" lon="-2.98601">
        <ele>20.2</ele>
        <time>2021-08-04T12:11:04Z</time>
      </trkpt>
      <trkpt lat="47.64991" lon="-2.98594">
        <ele>19.6</ele>
        <time>2021-08-04T12:11:05Z</time>
      </trkpt>
      <trkpt lat="47.64996" lon="-2.98588">
        <ele>19.4</ele>
        <time>2021-08-04T12:11:06Z</time>
      </trkpt>
      <trkpt lat="47.65001" lon="-2.98582">
        <ele>19.2</ele>
        <time>2021-08-04T12:11:07Z</time>
      </trkpt>
      <trkpt lat="47.65007" lon="-2.98575">
        <ele>19</ele>
        <time>2021-08-04T12:11:08Z</time>
      </trkpt>
      <trkpt lat="47.65012" lon="-2.98568">
        <ele>18.6</ele>
        <time>2021-08-04T12:11:09Z</time>
      </trkpt>
      <trkpt lat="47.65017" lon="-2.98561">
        <ele>18.4</ele>
        <time>2021-08-04T12:11:10Z</time>
      </trkpt>
      <trkpt lat="47.65023" lon="-2.98555">
        <ele>18.2</ele>
        <time>2021-08-04T12:11:11Z</time>
      </trkpt>
      <trkpt lat="47.65029" lon="-2.98548">
        <ele>18</ele>
        <time>2021-08-04T12:11:12Z</time>
      </trkpt>
      <trkpt lat="47.65035" lon="-2.98541">
        <ele>17.8</ele>
        <time>2021-08-04T12:11:13Z</time>
      </trkpt>
      <trkpt lat="47.65041" lon="-2.98535">
        <ele>17.4</ele>
        <time>2021-08-04T12:11:14Z</time>
      </trkpt>
      <trkpt lat="47.65047" lon="-2.98528">
        <ele>17</ele>
        <time>2021-08-04T12:11:15Z</time>
      </trkpt>
      <trkpt lat="47.65054" lon="-2.98522">
        <ele>16.8</ele>
        <time>2021-08-04T12:11:16Z</time>
      </trkpt>
      <trkpt lat="47.65061" lon="-2.98516">
        <ele>16.6</ele>
        <time>2021-08-04T12:11:17Z</time>
      </trkpt>
      <trkpt lat="47.65068" lon="-2.98511">
        <ele>16.4</ele>
        <time>2021-08-04T12:11:18Z</time>
      </trkpt>
      <trkpt lat="47.65076" lon="-2.98506">
        <ele>16.2</ele>
        <time>2021-08-04T12:11:19Z</time>
      </trkpt>
      <trkpt lat="47.65084" lon="-2.98501">
        <ele>15.6</ele>
        <time>2021-08-04T12:11:20Z</time>
      </trkpt>
      <trkpt lat="47.65092" lon="-2.98496">
        <ele>15</ele>
        <time>2021-08-04T12:11:21Z</time>
      </trkpt>
      <trkpt lat="47.651" lon="-2.98492">
        <ele>14.2</ele>
        <time>2021-08-04T12:11:22Z</time>
      </trkpt>
      <trkpt lat="47.65109" lon="-2.98488">
        <ele>13.8</ele>
        <time>2021-08-04T12:11:23Z</time>
      </trkpt>
      <trkpt lat="47.65118" lon="-2.98484">
        <ele>13</ele>
        <time>2021-08-04T12:11:24Z</time>
      </trkpt>
      <trkpt lat="47.65127" lon="-2.98479">
        <ele>12.6</ele>
        <time>2021-08-04T12:11:25Z</time>
      </trkpt>
      <trkpt lat="47.65135" lon="-2.98475">
        <ele>12</ele>
        <time>2021-08-04T12:11:26Z</time>
      </trkpt>
      <trkpt lat="47.65144" lon="-2.98471">
        <ele>11.4</ele>
        <time>2021-08-04T12:11:27Z</time>
      </trkpt>
      <trkpt lat="47.65153" lon="-2.98467">
        <ele>10.8</ele>
        <time>2021-08-04T12:11:28Z</time>
      </trkpt>
      <trkpt lat="47.65162" lon="-2.98464">
        <ele>9.4</ele>
        <time>2021-08-04T12:11:29Z</time>
      </trkpt>
      <trkpt lat="47.65171" lon="-2.9846">
        <ele>8.4</ele>
        <time>2021-08-04T12:11:30Z</time>
      </trkpt>
      <trkpt lat="47.6518" lon="-2.98456">
        <ele>7.6</ele>
        <time>2021-08-04T12:11:31Z</time>
      </trkpt>
      <trkpt lat="47.65189" lon="-2.98452">
        <ele>6.6</ele>
        <time>2021-08-04T12:11:32Z</time>
      </trkpt>
      <trkpt lat="47.65198" lon="-2.98448">
        <ele>4.2</ele>
        <time>2021-08-04T12:11:33Z</time>
      </trkpt>
      <trkpt lat="47.65207" lon="-2.98445">
        <ele>3.6</ele>
        <time>2021-08-04T12:11:34Z</time>
      </trkpt>
      <trkpt lat="47.65215" lon="-2.98441">
        <ele>3.2</ele>
        <time>2021-08-04T12:11:35Z</time>
      </trkpt>
      <trkpt lat="47.65223" lon="-2.98437">
        <ele>2.8</ele>
        <time>2021-08-04T12:11:36Z</time>
      </trkpt>
      <trkpt lat="47.65231" lon="-2.98434">
        <ele>2.4</ele>
        <time>2021-08-04T12:11:37Z</time>
      </trkpt>
      <trkpt lat="47.65238" lon="-2.98431">
        <ele>1.8</ele>
        <time>2021-08-04T12:11:38Z</time>
      </trkpt>
      <trkpt lat="47.65246" lon="-2.98428">
        <ele>1.4</ele>
        <time>2021-08-04T12:11:39Z</time>
      </trkpt>
      <trkpt lat="47.65253" lon="-2.98424">
        <ele>1.2</ele>
        <time>2021-08-04T12:11:40Z</time>
      </trkpt>
      <trkpt lat="47.65259" lon="-2.98421">
        <ele>1.2</ele>
        <time>2021-08-04T12:11:41Z</time>
      </trkpt>
      <trkpt lat="47.65266" lon="-2.98418">
        <ele>1.2</ele>
        <time>2021-08-04T12:11:42Z</time>
      </trkpt>
      <trkpt lat="47.65272" lon="-2.98415">
        <ele>1.2</ele>
        <time>2021-08-04T12:11:43Z</time>
      </trkpt>
      <trkpt lat="47.65279" lon="-2.98411">
        <ele>1</ele>
        <time>2021-08-04T12:11:44Z</time>
      </trkpt>
      <trkpt lat="47.65285" lon="-2.98407">
        <ele>1</ele>
        <time>2021-08-04T12:11:45Z</time>
      </trkpt>
      <trkpt lat="47.65291" lon="-2.98403">
        <ele>1</ele>
        <time>2021-08-04T12:11:46Z</time>
      </trkpt>
      <trkpt lat="47.65296" lon="-2.98399">
        <ele>0.8</ele>
        <time>2021-08-04T12:11:47Z</time>
      </trkpt>
      <trkpt lat="47.65302" lon="-2.98394">
        <ele>0.8</ele>
        <time>2021-08-04T12:11:48Z</time>
      </trkpt>
      <trkpt lat="47.65308" lon="-2.9839">
        <ele>0.8</ele>
        <time>2021-08-04T12:11:49Z</time>
      </trkpt>
      <trkpt lat="47.65314" lon="-2.98385">
        <ele>0.8</ele>
        <time>2021-08-04T12:11:50Z</time>
      </trkpt>
      <trkpt lat="47.65319" lon="-2.9838">
        <ele>0.8</ele>
        <time>2021-08-04T12:11:51Z</time>
      </trkpt>
      <trkpt lat="47.65325" lon="-2.98375">
        <ele>0.8</ele>
        <time>2021-08-04T12:11:52Z</time>
      </trkpt>
      <trkpt lat="47.65331" lon="-2.9837">
        <ele>0.8</ele>
        <time>2021-08-04T12:11:53Z</time>
      </trkpt>
      <trkpt lat="47.65337" lon="-2.98364">
        <ele>0.8</ele>
        <time>2021-08-04T12:11:54Z</time>
      </trkpt>
      <trkpt lat="47.65343" lon="-2.98358">
        <ele>0.6</ele>
        <time>2021-08-04T12:11:55Z</time>
      </trkpt>
      <trkpt lat="47.65349" lon="-2.98351">
        <ele>0.2</ele>
        <time>2021-08-04T12:11:56Z</time>
      </trkpt>
      <trkpt lat="47.65355" lon="-2.98344">
        <ele>0.2</ele>
        <time>2021-08-04T12:11:57Z</time>
      </trkpt>
      <trkpt lat="47.65361" lon="-2.98338">
        <ele>-0.2</ele>
        <time>2021-08-04T12:11:58Z</time>
      </trkpt>
      <trkpt lat="47.65367" lon="-2.98331">
        <ele>-0.4</ele>
        <time>2021-08-04T12:11:59Z</time>
      </trkpt>
      <trkpt lat="47.65372" lon="-2.98324">
        <ele>-0.8</ele>
        <time>2021-08-04T12:12:00Z</time>
      </trkpt>
      <trkpt lat="47.65378" lon="-2.98317">
        <ele>-1.2</ele>
        <time>2021-08-04T12:12:01Z</time>
      </trkpt>
      <trkpt lat="47.65383" lon="-2.9831">
        <ele>-1.8</ele>
        <time>2021-08-04T12:12:02Z</time>
      </trkpt>
      <trkpt lat="47.65388" lon="-2.98304">
        <ele>-1.8</ele>
        <time>2021-08-04T12:12:03Z</time>
      </trkpt>
      <trkpt lat="47.65393" lon="-2.98298">
        <ele>-2</ele>
        <time>2021-08-04T12:12:04Z</time>
      </trkpt>
      <trkpt lat="47.65398" lon="-2.98292">
        <ele>-2</ele>
        <time>2021-08-04T12:12:05Z</time>
      </trkpt>
      <trkpt lat="47.65403" lon="-2.98286">
        <ele>-2.2</ele>
        <time>2021-08-04T12:12:06Z</time>
      </trkpt>
      <trkpt lat="47.65407" lon="-2.9828">
        <ele>-2.2</ele>
        <time>2021-08-04T12:12:07Z</time>
      </trkpt>
      <trkpt lat="47.65412" lon="-2.98274">
        <ele>-2.4</ele>
        <time>2021-08-04T12:12:08Z</time>
      </trkpt>
      <trkpt lat="47.65417" lon="-2.98268">
        <ele>-2.4</ele>
        <time>2021-08-04T12:12:09Z</time>
      </trkpt>
      <trkpt lat="47.65422" lon="-2.98261">
        <ele>-2.4</ele>
        <time>2021-08-04T12:12:10Z</time>
      </trkpt>
      <trkpt lat="47.65426" lon="-2.98253">
        <ele>-2.6</ele>
        <time>2021-08-04T12:12:11Z</time>
      </trkpt>
      <trkpt lat="47.6543" lon="-2.98245">
        <ele>-2.8</ele>
        <time>2021-08-04T12:12:12Z</time>
      </trkpt>
      <trkpt lat="47.65432" lon="-2.98237">
        <ele>-3.2</ele>
        <time>2021-08-04T12:12:13Z</time>
      </trkpt>
      <trkpt lat="47.65434" lon="-2.98228">
        <ele>-3.2</ele>
        <time>2021-08-04T12:12:14Z</time>
      </trkpt>
      <trkpt lat="47.65437" lon="-2.98219">
        <ele>-3.6</ele>
        <time>2021-08-04T12:12:15Z</time>
      </trkpt>
      <trkpt lat="47.6544" lon="-2.98212">
        <ele>-3.6</ele>
        <time>2021-08-04T12:12:16Z</time>
      </trkpt>
      <trkpt lat="47.65446" lon="-2.98207">
        <ele>-3.8</ele>
        <time>2021-08-04T12:12:17Z</time>
      </trkpt>
      <trkpt lat="47.65452" lon="-2.98204">
        <ele>-4</ele>
        <time>2021-08-04T12:12:18Z</time>
      </trkpt>
      <trkpt lat="47.65458" lon="-2.98202">
        <ele>-4.2</ele>
        <time>2021-08-04T12:12:19Z</time>
      </trkpt>
      <trkpt lat="47.65464" lon="-2.982">
        <ele>-4.2</ele>
        <time>2021-08-04T12:12:20Z</time>
      </trkpt>
      <trkpt lat="47.6547" lon="-2.98196">
        <ele>-4.2</ele>
        <time>2021-08-04T12:12:21Z</time>
      </trkpt>
      <trkpt lat="47.65476" lon="-2.98192">
        <ele>-4.4</ele>
        <time>2021-08-04T12:12:22Z</time>
      </trkpt>
      <trkpt lat="47.65482" lon="-2.98187">
        <ele>-4.4</ele>
        <time>2021-08-04T12:12:23Z</time>
      </trkpt>
      <trkpt lat="47.65487" lon="-2.98182">
        <ele>-4.4</ele>
        <time>2021-08-04T12:12:24Z</time>
      </trkpt>
      <trkpt lat="47.65493" lon="-2.98177">
        <ele>-4.6</ele>
        <time>2021-08-04T12:12:25Z</time>
      </trkpt>
      <trkpt lat="47.65498" lon="-2.98172">
        <ele>-4.6</ele>
        <time>2021-08-04T12:12:26Z</time>
      </trkpt>
      <trkpt lat="47.65504" lon="-2.98168">
        <ele>-4.8</ele>
        <time>2021-08-04T12:12:27Z</time>
      </trkpt>
      <trkpt lat="47.6551" lon="-2.98164">
        <ele>-5.2</ele>
        <time>2021-08-04T12:12:28Z</time>
      </trkpt>
      <trkpt lat="47.65516" lon="-2.9816">
        <ele>-5.4</ele>
        <time>2021-08-04T12:12:29Z</time>
      </trkpt>
      <trkpt lat="47.65522" lon="-2.98157">
        <ele>-5.8</ele>
        <time>2021-08-04T12:12:30Z</time>
      </trkpt>
      <trkpt lat="47.65528" lon="-2.98154">
        <ele>-6</ele>
        <time>2021-08-04T12:12:31Z</time>
      </trkpt>
      <trkpt lat="47.65534" lon="-2.98151">
        <ele>-6.4</ele>
        <time>2021-08-04T12:12:32Z</time>
      </trkpt>
      <trkpt lat="47.6554" lon="-2.98148">
        <ele>-6.8</ele>
        <time>2021-08-04T12:12:33Z</time>
      </trkpt>
      <trkpt lat="47.65546" lon="-2.98145">
        <ele>-7</ele>
        <time>2021-08-04T12:12:34Z</time>
      </trkpt>
      <trkpt lat="47.65552" lon="-2.98143">
        <ele>-7.2</ele>
        <time>2021-08-04T12:12:35Z</time>
      </trkpt>
      <trkpt lat="47.65557" lon="-2.98141">
        <ele>-7.4</ele>
        <time>2021-08-04T12:12:36Z</time>
      </trkpt>
      <trkpt lat="47.65563" lon="-2.98139">
        <ele>-7.6</ele>
        <time>2021-08-04T12:12:37Z</time>
      </trkpt>
      <trkpt lat="47.65569" lon="-2.98137">
        <ele>-7.6</ele>
        <time>2021-08-04T12:12:38Z</time>
      </trkpt>
      <trkpt lat="47.65574" lon="-2.98136">
        <ele>-7.8</ele>
        <time>2021-08-04T12:12:39Z</time>
      </trkpt>
      <trkpt lat="47.65579" lon="-2.98134">
        <ele>-7.8</ele>
        <time>2021-08-04T12:12:40Z</time>
      </trkpt>
      <trkpt lat="47.65584" lon="-2.98132">
        <ele>-7.8</ele>
        <time>2021-08-04T12:12:41Z</time>
      </trkpt>
      <trkpt lat="47.65589" lon="-2.9813">
        <ele>-7.8</ele>
        <time>2021-08-04T12:12:42Z</time>
      </trkpt>
      <trkpt lat="47.65593" lon="-2.98129">
        <ele>-7.8</ele>
        <time>2021-08-04T12:12:43Z</time>
      </trkpt>
      <trkpt lat="47.65598" lon="-2.98128">
        <ele>-7.8</ele>
        <time>2021-08-04T12:12:44Z</time>
      </trkpt>
      <trkpt lat="47.65602" lon="-2.98127">
        <ele>-7.8</ele>
        <time>2021-08-04T12:12:45Z</time>
      </trkpt>
      <trkpt lat="47.65605" lon="-2.98125">
        <ele>-7.8</ele>
        <time>2021-08-04T12:12:46Z</time>
      </trkpt>
      <trkpt lat="47.65609" lon="-2.98124">
        <ele>-7.8</ele>
        <time>2021-08-04T12:12:47Z</time>
      </trkpt>
      <trkpt lat="47.65612" lon="-2.98123">
        <ele>-7.8</ele>
        <time>2021-08-04T12:12:48Z</time>
      </trkpt>
      <trkpt lat="47.65615" lon="-2.98122">
        <ele>-7.8</ele>
        <time>2021-08-04T12:12:49Z</time>
      </trkpt>
      <trkpt lat="47.65618" lon="-2.98121">
        <ele>-7.8</ele>
        <time>2021-08-04T12:12:50Z</time>
      </trkpt>
      <trkpt lat="47.65621" lon="-2.9812">
        <ele>-7.6</ele>
        <time>2021-08-04T12:12:51Z</time>
      </trkpt>
      <trkpt lat="47.65625" lon="-2.98119">
        <ele>-7.4</ele>
        <time>2021-08-04T12:12:52Z</time>
      </trkpt>
      <trkpt lat="47.65628" lon="-2.98118">
        <ele>-7</ele>
        <time>2021-08-04T12:12:53Z</time>
      </trkpt>
      <trkpt lat="47.65631" lon="-2.98117">
        <ele>-6.6</ele>
        <time>2021-08-04T12:12:54Z</time>
      </trkpt>
      <trkpt lat="47.65634" lon="-2.98116">
        <ele>-6.2</ele>
        <time>2021-08-04T12:12:55Z</time>
      </trkpt>
      <trkpt lat="47.65637" lon="-2.98115">
        <ele>-6</ele>
        <time>2021-08-04T12:12:56Z</time>
      </trkpt>
      <trkpt lat="47.6564" lon="-2.98114">
        <ele>-5.6</ele>
        <time>2021-08-04T12:12:57Z</time>
      </trkpt>
      <trkpt lat="47.65643" lon="-2.98113">
        <ele>-5.4</ele>
        <time>2021-08-04T12:12:58Z</time>
      </trkpt>
      <trkpt lat="47.65645" lon="-2.98111">
        <ele>-5.2</ele>
        <time>2021-08-04T12:12:59Z</time>
      </trkpt>
      <trkpt lat="47.65648" lon="-2.9811">
        <ele>-5.2</ele>
        <time>2021-08-04T12:13:00Z</time>
      </trkpt>
      <trkpt lat="47.65651" lon="-2.98109">
        <ele>-4.8</ele>
        <time>2021-08-04T12:13:01Z</time>
      </trkpt>
      <trkpt lat="47.65654" lon="-2.98108">
        <ele>-4.6</ele>
        <time>2021-08-04T12:13:02Z</time>
      </trkpt>
      <trkpt lat="47.65656" lon="-2.98107">
        <ele>-4.6</ele>
        <time>2021-08-04T12:13:03Z</time>
      </trkpt>
      <trkpt lat="47.65659" lon="-2.98106">
        <ele>-4.4</ele>
        <time>2021-08-04T12:13:04Z</time>
      </trkpt>
      <trkpt lat="47.65661" lon="-2.98105">
        <ele>-4.2</ele>
        <time>2021-08-04T12:13:05Z</time>
      </trkpt>
      <trkpt lat="47.65664" lon="-2.98104">
        <ele>-4</ele>
        <time>2021-08-04T12:13:06Z</time>
      </trkpt>
      <trkpt lat="47.65666" lon="-2.98102">
        <ele>-4</ele>
        <time>2021-08-04T12:13:07Z</time>
      </trkpt>
      <trkpt lat="47.65669" lon="-2.98101">
        <ele>-3.8</ele>
        <time>2021-08-04T12:13:08Z</time>
      </trkpt>
      <trkpt lat="47.65671" lon="-2.981">
        <ele>-3.6</ele>
        <time>2021-08-04T12:13:09Z</time>
      </trkpt>
      <trkpt lat="47.65673" lon="-2.98099">
        <ele>-3.2</ele>
        <time>2021-08-04T12:13:10Z</time>
      </trkpt>
      <trkpt lat="47.65675" lon="-2.98099">
        <ele>-2.8</ele>
        <time>2021-08-04T12:13:11Z</time>
      </trkpt>
      <trkpt lat="47.65677" lon="-2.98098">
        <ele>-2.2</ele>
        <time>2021-08-04T12:13:12Z</time>
      </trkpt>
      <trkpt lat="47.65679" lon="-2.98097">
        <ele>-2</ele>
        <time>2021-08-04T12:13:13Z</time>
      </trkpt>
      <trkpt lat="47.65681" lon="-2.98096">
        <ele>-1.6</ele>
        <time>2021-08-04T12:13:14Z</time>
      </trkpt>
      <trkpt lat="47.65683" lon="-2.98095">
        <ele>-1.4</ele>
        <time>2021-08-04T12:13:15Z</time>
      </trkpt>
      <trkpt lat="47.65684" lon="-2.98094">
        <ele>-1</ele>
        <time>2021-08-04T12:13:16Z</time>
      </trkpt>
      <trkpt lat="47.65686" lon="-2.98093">
        <ele>-0.8</ele>
        <time>2021-08-04T12:13:17Z</time>
      </trkpt>
      <trkpt lat="47.65687" lon="-2.98092">
        <ele>-0.6</ele>
        <time>2021-08-04T12:13:18Z</time>
      </trkpt>
      <trkpt lat="47.65689" lon="-2.98091">
        <ele>-0.6</ele>
        <time>2021-08-04T12:13:19Z</time>
      </trkpt>
      <trkpt lat="47.65691" lon="-2.9809">
        <ele>-0.4</ele>
        <time>2021-08-04T12:13:20Z</time>
      </trkpt>
      <trkpt lat="47.65692" lon="-2.98089">
        <ele>-0.4</ele>
        <time>2021-08-04T12:13:21Z</time>
      </trkpt>
      <trkpt lat="47.65694" lon="-2.98087">
        <ele>-0.2</ele>
        <time>2021-08-04T12:13:22Z</time>
      </trkpt>
      <trkpt lat="47.65696" lon="-2.98086">
        <ele>-0.2</ele>
        <time>2021-08-04T12:13:23Z</time>
      </trkpt>
      <trkpt lat="47.65698" lon="-2.98085">
        <ele>0.4</ele>
        <time>2021-08-04T12:13:24Z</time>
      </trkpt>
      <trkpt lat="47.657" lon="-2.98084">
        <ele>0.6</ele>
        <time>2021-08-04T12:13:25Z</time>
      </trkpt>
      <trkpt lat="47.65701" lon="-2.98083">
        <ele>0.8</ele>
        <time>2021-08-04T12:13:26Z</time>
      </trkpt>
      <trkpt lat="47.65703" lon="-2.98083">
        <ele>1</ele>
        <time>2021-08-04T12:13:27Z</time>
      </trkpt>
      <trkpt lat="47.65704" lon="-2.98082">
        <ele>1.4</ele>
        <time>2021-08-04T12:13:28Z</time>
      </trkpt>
      <trkpt lat="47.65706" lon="-2.9808">
        <ele>1.6</ele>
        <time>2021-08-04T12:13:29Z</time>
      </trkpt>
      <trkpt lat="47.65709" lon="-2.98079">
        <ele>1.8</ele>
        <time>2021-08-04T12:13:30Z</time>
      </trkpt>
      <trkpt lat="47.65711" lon="-2.98077">
        <ele>2</ele>
        <time>2021-08-04T12:13:31Z</time>
      </trkpt>
      <trkpt lat="47.65713" lon="-2.98076">
        <ele>2.2</ele>
        <time>2021-08-04T12:13:32Z</time>
      </trkpt>
      <trkpt lat="47.65715" lon="-2.98075">
        <ele>2.4</ele>
        <time>2021-08-04T12:13:33Z</time>
      </trkpt>
      <trkpt lat="47.65717" lon="-2.98073">
        <ele>2.6</ele>
        <time>2021-08-04T12:13:34Z</time>
      </trkpt>
      <trkpt lat="47.65719" lon="-2.98072">
        <ele>2.8</ele>
        <time>2021-08-04T12:13:35Z</time>
      </trkpt>
      <trkpt lat="47.65721" lon="-2.98071">
        <ele>3</ele>
        <time>2021-08-04T12:13:36Z</time>
      </trkpt>
      <trkpt lat="47.65723" lon="-2.9807">
        <ele>3.2</ele>
        <time>2021-08-04T12:13:37Z</time>
      </trkpt>
      <trkpt lat="47.65725" lon="-2.98068">
        <ele>3.4</ele>
        <time>2021-08-04T12:13:38Z</time>
      </trkpt>
      <trkpt lat="47.65727" lon="-2.98067">
        <ele>3.6</ele>
        <time>2021-08-04T12:13:39Z</time>
      </trkpt>
      <trkpt lat="47.6573" lon="-2.98066">
        <ele>3.8</ele>
        <time>2021-08-04T12:13:40Z</time>
      </trkpt>
      <trkpt lat="47.65732" lon="-2.98064">
        <ele>4</ele>
        <time>2021-08-04T12:13:41Z</time>
      </trkpt>
      <trkpt lat="47.65734" lon="-2.98063">
        <ele>4.2</ele>
        <time>2021-08-04T12:13:42Z</time>
      </trkpt>
      <trkpt lat="47.65735" lon="-2.98062">
        <ele>4.2</ele>
        <time>2021-08-04T12:13:43Z</time>
      </trkpt>
      <trkpt lat="47.65737" lon="-2.9806">
        <ele>4.4</ele>
        <time>2021-08-04T12:13:44Z</time>
      </trkpt>
      <trkpt lat="47.65739" lon="-2.98059">
        <ele>4.6</ele>
        <time>2021-08-04T12:13:45Z</time>
      </trkpt>
      <trkpt lat="47.65741" lon="-2.98058">
        <ele>4.6</ele>
        <time>2021-08-04T12:13:46Z</time>
      </trkpt>
      <trkpt lat="47.65743" lon="-2.98057">
        <ele>5</ele>
        <time>2021-08-04T12:13:47Z</time>
      </trkpt>
      <trkpt lat="47.65744" lon="-2.98055">
        <ele>5.2</ele>
        <time>2021-08-04T12:13:48Z</time>
      </trkpt>
      <trkpt lat="47.65745" lon="-2.98054">
        <ele>5.2</ele>
        <time>2021-08-04T12:13:49Z</time>
      </trkpt>
      <trkpt lat="47.65747" lon="-2.98053">
        <ele>5.4</ele>
        <time>2021-08-04T12:13:50Z</time>
      </trkpt>
      <trkpt lat="47.65748" lon="-2.98052">
        <ele>5.6</ele>
        <time>2021-08-04T12:13:51Z</time>
      </trkpt>
      <trkpt lat="47.6575" lon="-2.9805">
        <ele>5.6</ele>
        <time>2021-08-04T12:13:52Z</time>
      </trkpt>
      <trkpt lat="47.65751" lon="-2.98049">
        <ele>5.8</ele>
        <time>2021-08-04T12:13:53Z</time>
      </trkpt>
      <trkpt lat="47.65753" lon="-2.98049">
        <ele>5.8</ele>
        <time>2021-08-04T12:13:54Z</time>
      </trkpt>
      <trkpt lat="47.65754" lon="-2.98048">
        <ele>5.8</ele>
        <time>2021-08-04T12:13:55Z</time>
      </trkpt>
      <trkpt lat="47.65755" lon="-2.98047">
        <ele>6</ele>
        <time>2021-08-04T12:13:56Z</time>
      </trkpt>
      <trkpt lat="47.65756" lon="-2.98045">
        <ele>6.2</ele>
        <time>2021-08-04T12:13:57Z</time>
      </trkpt>
      <trkpt lat="47.65758" lon="-2.98044">
        <ele>6.4</ele>
        <time>2021-08-04T12:13:58Z</time>
      </trkpt>
      <trkpt lat="47.65759" lon="-2.98043">
        <ele>6.6</ele>
        <time>2021-08-04T12:13:59Z</time>
      </trkpt>
      <trkpt lat="47.6576" lon="-2.98042">
        <ele>6.8</ele>
        <time>2021-08-04T12:14:00Z</time>
      </trkpt>
      <trkpt lat="47.65761" lon="-2.98041">
        <ele>6.8</ele>
        <time>2021-08-04T12:14:01Z</time>
      </trkpt>
      <trkpt lat="47.65762" lon="-2.9804">
        <ele>6.8</ele>
        <time>2021-08-04T12:14:02Z</time>
      </trkpt>
      <trkpt lat="47.65764" lon="-2.98038">
        <ele>7</ele>
        <time>2021-08-04T12:14:03Z</time>
      </trkpt>
      <trkpt lat="47.65765" lon="-2.98036">
        <ele>7</ele>
        <time>2021-08-04T12:14:04Z</time>
      </trkpt>
      <trkpt lat="47.65766" lon="-2.98034">
        <ele>7.2</ele>
        <time>2021-08-04T12:14:05Z</time>
      </trkpt>
      <trkpt lat="47.65767" lon="-2.98032">
        <ele>7.2</ele>
        <time>2021-08-04T12:14:06Z</time>
      </trkpt>
      <trkpt lat="47.65769" lon="-2.98031">
        <ele>7.2</ele>
        <time>2021-08-04T12:14:07Z</time>
      </trkpt>
      <trkpt lat="47.6577" lon="-2.98029">
        <ele>7.4</ele>
        <time>2021-08-04T12:14:08Z</time>
      </trkpt>
      <trkpt lat="47.65772" lon="-2.98028">
        <ele>7.4</ele>
        <time>2021-08-04T12:14:09Z</time>
      </trkpt>
      <trkpt lat="47.65773" lon="-2.98026">
        <ele>7.6</ele>
        <time>2021-08-04T12:14:10Z</time>
      </trkpt>
      <trkpt lat="47.65774" lon="-2.98025">
        <ele>7.6</ele>
        <time>2021-08-04T12:14:11Z</time>
      </trkpt>
      <trkpt lat="47.65775" lon="-2.98024">
        <ele>7.6</ele>
        <time>2021-08-04T12:14:12Z</time>
      </trkpt>
      <trkpt lat="47.65776" lon="-2.98022">
        <ele>7.8</ele>
        <time>2021-08-04T12:14:13Z</time>
      </trkpt>
      <trkpt lat="47.65778" lon="-2.9802">
        <ele>8</ele>
        <time>2021-08-04T12:14:14Z</time>
      </trkpt>
      <trkpt lat="47.65779" lon="-2.98018">
        <ele>8</ele>
        <time>2021-08-04T12:14:15Z</time>
      </trkpt>
      <trkpt lat="47.6578" lon="-2.98015">
        <ele>8.2</ele>
        <time>2021-08-04T12:14:16Z</time>
      </trkpt>
      <trkpt lat="47.65782" lon="-2.98013">
        <ele>8.4</ele>
        <time>2021-08-04T12:14:17Z</time>
      </trkpt>
      <trkpt lat="47.65784" lon="-2.98011">
        <ele>8.4</ele>
        <time>2021-08-04T12:14:18Z</time>
      </trkpt>
      <trkpt lat="47.65786" lon="-2.98009">
        <ele>8.6</ele>
        <time>2021-08-04T12:14:19Z</time>
      </trkpt>
      <trkpt lat="47.65788" lon="-2.98007">
        <ele>8.6</ele>
        <time>2021-08-04T12:14:20Z</time>
      </trkpt>
      <trkpt lat="47.6579" lon="-2.98004">
        <ele>8.6</ele>
        <time>2021-08-04T12:14:21Z</time>
      </trkpt>
      <trkpt lat="47.65793" lon="-2.98002">
        <ele>8.8</ele>
        <time>2021-08-04T12:14:22Z</time>
      </trkpt>
      <trkpt lat="47.65797" lon="-2.98001">
        <ele>8.8</ele>
        <time>2021-08-04T12:14:23Z</time>
      </trkpt>
      <trkpt lat="47.658" lon="-2.97999">
        <ele>9</ele>
        <time>2021-08-04T12:14:24Z</time>
      </trkpt>
      <trkpt lat="47.65802" lon="-2.97997">
        <ele>9</ele>
        <time>2021-08-04T12:14:25Z</time>
      </trkpt>
      <trkpt lat="47.65804" lon="-2.97995">
        <ele>9.2</ele>
        <time>2021-08-04T12:14:26Z</time>
      </trkpt>
      <trkpt lat="47.65806" lon="-2.97992">
        <ele>9.4</ele>
        <time>2021-08-04T12:14:27Z</time>
      </trkpt>
      <trkpt lat="47.65809" lon="-2.97991">
        <ele>9.8</ele>
        <time>2021-08-04T12:14:28Z</time>
      </trkpt>
      <trkpt lat="47.65811" lon="-2.97989">
        <ele>10</ele>
        <time>2021-08-04T12:14:29Z</time>
      </trkpt>
      <trkpt lat="47.65813" lon="-2.97987">
        <ele>10</ele>
        <time>2021-08-04T12:14:30Z</time>
      </trkpt>
      <trkpt lat="47.65815" lon="-2.97985">
        <ele>10.2</ele>
        <time>2021-08-04T12:14:31Z</time>
      </trkpt>
      <trkpt lat="47.65817" lon="-2.97984">
        <ele>10.2</ele>
        <time>2021-08-04T12:14:32Z</time>
      </trkpt>
      <trkpt lat="47.65819" lon="-2.97982">
        <ele>10.2</ele>
        <time>2021-08-04T12:14:33Z</time>
      </trkpt>
      <trkpt lat="47.65821" lon="-2.97981">
        <ele>10.4</ele>
        <time>2021-08-04T12:14:34Z</time>
      </trkpt>
      <trkpt lat="47.65823" lon="-2.97979">
        <ele>10.4</ele>
        <time>2021-08-04T12:14:35Z</time>
      </trkpt>
      <trkpt lat="47.65824" lon="-2.97977">
        <ele>10.6</ele>
        <time>2021-08-04T12:14:36Z</time>
      </trkpt>
      <trkpt lat="47.65826" lon="-2.97976">
        <ele>10.6</ele>
        <time>2021-08-04T12:14:37Z</time>
      </trkpt>
      <trkpt lat="47.65828" lon="-2.97974">
        <ele>10.8</ele>
        <time>2021-08-04T12:14:38Z</time>
      </trkpt>
      <trkpt lat="47.6583" lon="-2.97972">
        <ele>10.8</ele>
        <time>2021-08-04T12:14:39Z</time>
      </trkpt>
      <trkpt lat="47.65831" lon="-2.9797">
        <ele>10.8</ele>
        <time>2021-08-04T12:14:40Z</time>
      </trkpt>
      <trkpt lat="47.65832" lon="-2.97969">
        <ele>11</ele>
        <time>2021-08-04T12:14:41Z</time>
      </trkpt>
      <trkpt lat="47.65834" lon="-2.97968">
        <ele>11</ele>
        <time>2021-08-04T12:14:42Z</time>
      </trkpt>
      <trkpt lat="47.65836" lon="-2.97968">
        <ele>11</ele>
        <time>2021-08-04T12:14:43Z</time>
      </trkpt>
      <trkpt lat="47.65837" lon="-2.97967">
        <ele>11.2</ele>
        <time>2021-08-04T12:14:44Z</time>
      </trkpt>
      <trkpt lat="47.65838" lon="-2.97967">
        <ele>11.2</ele>
        <time>2021-08-04T12:14:45Z</time>
      </trkpt>
      <trkpt lat="47.65839" lon="-2.97967">
        <ele>11.2</ele>
        <time>2021-08-04T12:14:46Z</time>
      </trkpt>
      <trkpt lat="47.6584" lon="-2.97967">
        <ele>11.4</ele>
        <time>2021-08-04T12:14:47Z</time>
      </trkpt>
      <trkpt lat="47.65842" lon="-2.97966">
        <ele>11.6</ele>
        <time>2021-08-04T12:14:49Z</time>
      </trkpt>
      <trkpt lat="47.65843" lon="-2.97966">
        <ele>11.8</ele>
        <time>2021-08-04T12:14:50Z</time>
      </trkpt>
      <trkpt lat="47.65844" lon="-2.97966">
        <ele>11.8</ele>
        <time>2021-08-04T12:14:51Z</time>
      </trkpt>
      <trkpt lat="47.65845" lon="-2.97967">
        <ele>11.8</ele>
        <time>2021-08-04T12:14:52Z</time>
      </trkpt>
      <trkpt lat="47.65846" lon="-2.97967">
        <ele>11.8</ele>
        <time>2021-08-04T12:14:53Z</time>
      </trkpt>
      <trkpt lat="47.65847" lon="-2.97967">
        <ele>11.8</ele>
        <time>2021-08-04T12:14:54Z</time>
      </trkpt>
      <trkpt lat="47.65848" lon="-2.97966">
        <ele>11.8</ele>
        <time>2021-08-04T12:14:55Z</time>
      </trkpt>
      <trkpt lat="47.6585" lon="-2.97966">
        <ele>11.8</ele>
        <time>2021-08-04T12:14:56Z</time>
      </trkpt>
      <trkpt lat="47.65851" lon="-2.97966">
        <ele>11.8</ele>
        <time>2021-08-04T12:14:57Z</time>
      </trkpt>
      <trkpt lat="47.65853" lon="-2.97966">
        <ele>12</ele>
        <time>2021-08-04T12:14:58Z</time>
      </trkpt>
      <trkpt lat="47.65855" lon="-2.97965">
        <ele>12</ele>
        <time>2021-08-04T12:14:59Z</time>
      </trkpt>
      <trkpt lat="47.65856" lon="-2.97965">
        <ele>12</ele>
        <time>2021-08-04T12:15:00Z</time>
      </trkpt>
      <trkpt lat="47.65858" lon="-2.97965">
        <ele>12</ele>
        <time>2021-08-04T12:15:01Z</time>
      </trkpt>
      <trkpt lat="47.6586" lon="-2.97964">
        <ele>12</ele>
        <time>2021-08-04T12:15:02Z</time>
      </trkpt>
      <trkpt lat="47.65862" lon="-2.97963">
        <ele>12</ele>
        <time>2021-08-04T12:15:03Z</time>
      </trkpt>
      <trkpt lat="47.65864" lon="-2.97963">
        <ele>12</ele>
        <time>2021-08-04T12:15:04Z</time>
      </trkpt>
      <trkpt lat="47.65866" lon="-2.97963">
        <ele>12</ele>
        <time>2021-08-04T12:15:05Z</time>
      </trkpt>
      <trkpt lat="47.65867" lon="-2.97963">
        <ele>12</ele>
        <time>2021-08-04T12:15:06Z</time>
      </trkpt>
      <trkpt lat="47.65869" lon="-2.97963">
        <ele>12</ele>
        <time>2021-08-04T12:15:07Z</time>
      </trkpt>
      <trkpt lat="47.65872" lon="-2.97962">
        <ele>12</ele>
        <time>2021-08-04T12:15:08Z</time>
      </trkpt>
      <trkpt lat="47.65874" lon="-2.97963">
        <ele>12</ele>
        <time>2021-08-04T12:15:09Z</time>
      </trkpt>
      <trkpt lat="47.65876" lon="-2.97963">
        <ele>12</ele>
        <time>2021-08-04T12:15:10Z</time>
      </trkpt>
      <trkpt lat="47.65878" lon="-2.97963">
        <ele>12</ele>
        <time>2021-08-04T12:15:11Z</time>
      </trkpt>
      <trkpt lat="47.6588" lon="-2.97962">
        <ele>12</ele>
        <time>2021-08-04T12:15:12Z</time>
      </trkpt>
      <trkpt lat="47.65882" lon="-2.97961">
        <ele>12</ele>
        <time>2021-08-04T12:15:13Z</time>
      </trkpt>
      <trkpt lat="47.65884" lon="-2.97961">
        <ele>12</ele>
        <time>2021-08-04T12:15:14Z</time>
      </trkpt>
      <trkpt lat="47.65885" lon="-2.9796">
        <ele>12.2</ele>
        <time>2021-08-04T12:15:15Z</time>
      </trkpt>
      <trkpt lat="47.65886" lon="-2.9796">
        <ele>12.2</ele>
        <time>2021-08-04T12:15:16Z</time>
      </trkpt>
      <trkpt lat="47.65888" lon="-2.97961">
        <ele>13</ele>
        <time>2021-08-04T12:16:02Z</time>
      </trkpt>
      <trkpt lat="47.65889" lon="-2.97962">
        <ele>13</ele>
        <time>2021-08-04T12:16:03Z</time>
      </trkpt>
      <trkpt lat="47.6589" lon="-2.97963">
        <ele>13</ele>
        <time>2021-08-04T12:16:04Z</time>
      </trkpt>
      <trkpt lat="47.65893" lon="-2.97964">
        <ele>13</ele>
        <time>2021-08-04T12:16:05Z</time>
      </trkpt>
      <trkpt lat="47.65895" lon="-2.97965">
        <ele>13</ele>
        <time>2021-08-04T12:16:06Z</time>
      </trkpt>
      <trkpt lat="47.65898" lon="-2.97965">
        <ele>13</ele>
        <time>2021-08-04T12:16:07Z</time>
      </trkpt>
      <trkpt lat="47.659" lon="-2.97966">
        <ele>13</ele>
        <time>2021-08-04T12:16:08Z</time>
      </trkpt>
      <trkpt lat="47.65903" lon="-2.97966">
        <ele>13</ele>
        <time>2021-08-04T12:16:09Z</time>
      </trkpt>
      <trkpt lat="47.65906" lon="-2.97966">
        <ele>12.8</ele>
        <time>2021-08-04T12:16:10Z</time>
      </trkpt>
      <trkpt lat="47.65909" lon="-2.97966">
        <ele>12.8</ele>
        <time>2021-08-04T12:16:11Z</time>
      </trkpt>
      <trkpt lat="47.65912" lon="-2.97966">
        <ele>12.6</ele>
        <time>2021-08-04T12:16:12Z</time>
      </trkpt>
      <trkpt lat="47.65915" lon="-2.97966">
        <ele>12.6</ele>
        <time>2021-08-04T12:16:13Z</time>
      </trkpt>
      <trkpt lat="47.65918" lon="-2.97967">
        <ele>12.4</ele>
        <time>2021-08-04T12:16:14Z</time>
      </trkpt>
      <trkpt lat="47.65921" lon="-2.97967">
        <ele>12.4</ele>
        <time>2021-08-04T12:16:15Z</time>
      </trkpt>
      <trkpt lat="47.65924" lon="-2.97967">
        <ele>12.4</ele>
        <time>2021-08-04T12:16:16Z</time>
      </trkpt>
      <trkpt lat="47.65928" lon="-2.97968">
        <ele>12.2</ele>
        <time>2021-08-04T12:16:17Z</time>
      </trkpt>
      <trkpt lat="47.65932" lon="-2.97968">
        <ele>12.2</ele>
        <time>2021-08-04T12:16:18Z</time>
      </trkpt>
      <trkpt lat="47.65936" lon="-2.97969">
        <ele>12</ele>
        <time>2021-08-04T12:16:19Z</time>
      </trkpt>
      <trkpt lat="47.65941" lon="-2.97969">
        <ele>12</ele>
        <time>2021-08-04T12:16:20Z</time>
      </trkpt>
      <trkpt lat="47.65945" lon="-2.97969">
        <ele>12</ele>
        <time>2021-08-04T12:16:21Z</time>
      </trkpt>
      <trkpt lat="47.6595" lon="-2.9797">
        <ele>12</ele>
        <time>2021-08-04T12:16:22Z</time>
      </trkpt>
      <trkpt lat="47.65955" lon="-2.9797">
        <ele>11.8</ele>
        <time>2021-08-04T12:16:23Z</time>
      </trkpt>
      <trkpt lat="47.6596" lon="-2.97971">
        <ele>11.8</ele>
        <time>2021-08-04T12:16:24Z</time>
      </trkpt>
      <trkpt lat="47.65965" lon="-2.97971">
        <ele>11.8</ele>
        <time>2021-08-04T12:16:25Z</time>
      </trkpt>
      <trkpt lat="47.65971" lon="-2.97972">
        <ele>11.4</ele>
        <time>2021-08-04T12:16:26Z</time>
      </trkpt>
      <trkpt lat="47.65976" lon="-2.97972">
        <ele>11.2</ele>
        <time>2021-08-04T12:16:27Z</time>
      </trkpt>
      <trkpt lat="47.65982" lon="-2.97973">
        <ele>11</ele>
        <time>2021-08-04T12:16:28Z</time>
      </trkpt>
      <trkpt lat="47.65988" lon="-2.97973">
        <ele>10.8</ele>
        <time>2021-08-04T12:16:29Z</time>
      </trkpt>
      <trkpt lat="47.65994" lon="-2.97974">
        <ele>10.8</ele>
        <time>2021-08-04T12:16:30Z</time>
      </trkpt>
      <trkpt lat="47.66" lon="-2.97974">
        <ele>10.8</ele>
        <time>2021-08-04T12:16:31Z</time>
      </trkpt>
      <trkpt lat="47.66006" lon="-2.97974">
        <ele>10.6</ele>
        <time>2021-08-04T12:16:32Z</time>
      </trkpt>
      <trkpt lat="47.66012" lon="-2.97975">
        <ele>10.6</ele>
        <time>2021-08-04T12:16:33Z</time>
      </trkpt>
      <trkpt lat="47.66017" lon="-2.97975">
        <ele>10.4</ele>
        <time>2021-08-04T12:16:34Z</time>
      </trkpt>
      <trkpt lat="47.66023" lon="-2.97976">
        <ele>10.4</ele>
        <time>2021-08-04T12:16:35Z</time>
      </trkpt>
      <trkpt lat="47.66028" lon="-2.97977">
        <ele>10.4</ele>
        <time>2021-08-04T12:16:36Z</time>
      </trkpt>
      <trkpt lat="47.66034" lon="-2.97978">
        <ele>10.2</ele>
        <time>2021-08-04T12:16:37Z</time>
      </trkpt>
      <trkpt lat="47.66039" lon="-2.9798">
        <ele>10.2</ele>
        <time>2021-08-04T12:16:38Z</time>
      </trkpt>
      <trkpt lat="47.66044" lon="-2.97981">
        <ele>10</ele>
        <time>2021-08-04T12:16:39Z</time>
      </trkpt>
      <trkpt lat="47.66049" lon="-2.97984">
        <ele>10</ele>
        <time>2021-08-04T12:16:40Z</time>
      </trkpt>
      <trkpt lat="47.66054" lon="-2.97986">
        <ele>10</ele>
        <time>2021-08-04T12:16:41Z</time>
      </trkpt>
      <trkpt lat="47.66059" lon="-2.97988">
        <ele>10</ele>
        <time>2021-08-04T12:16:42Z</time>
      </trkpt>
      <trkpt lat="47.66064" lon="-2.97989">
        <ele>10</ele>
        <time>2021-08-04T12:16:43Z</time>
      </trkpt>
      <trkpt lat="47.66068" lon="-2.97991">
        <ele>10</ele>
        <time>2021-08-04T12:16:44Z</time>
      </trkpt>
      <trkpt lat="47.66073" lon="-2.97993">
        <ele>10.2</ele>
        <time>2021-08-04T12:16:45Z</time>
      </trkpt>
      <trkpt lat="47.66077" lon="-2.97996">
        <ele>10.2</ele>
        <time>2021-08-04T12:16:46Z</time>
      </trkpt>
      <trkpt lat="47.66081" lon="-2.97998">
        <ele>10.4</ele>
        <time>2021-08-04T12:16:47Z</time>
      </trkpt>
      <trkpt lat="47.66084" lon="-2.98">
        <ele>10.4</ele>
        <time>2021-08-04T12:16:48Z</time>
      </trkpt>
      <trkpt lat="47.66088" lon="-2.98002">
        <ele>10.4</ele>
        <time>2021-08-04T12:16:49Z</time>
      </trkpt>
      <trkpt lat="47.66091" lon="-2.98004">
        <ele>10.6</ele>
        <time>2021-08-04T12:16:50Z</time>
      </trkpt>
      <trkpt lat="47.66095" lon="-2.98005">
        <ele>10.6</ele>
        <time>2021-08-04T12:16:51Z</time>
      </trkpt>
      <trkpt lat="47.66098" lon="-2.98006">
        <ele>10.8</ele>
        <time>2021-08-04T12:16:52Z</time>
      </trkpt>
      <trkpt lat="47.66101" lon="-2.98007">
        <ele>11</ele>
        <time>2021-08-04T12:16:53Z</time>
      </trkpt>
      <trkpt lat="47.66104" lon="-2.98009">
        <ele>11.4</ele>
        <time>2021-08-04T12:16:54Z</time>
      </trkpt>
      <trkpt lat="47.66108" lon="-2.9801">
        <ele>11.6</ele>
        <time>2021-08-04T12:16:55Z</time>
      </trkpt>
      <trkpt lat="47.66111" lon="-2.98011">
        <ele>12</ele>
        <time>2021-08-04T12:16:56Z</time>
      </trkpt>
      <trkpt lat="47.66114" lon="-2.98012">
        <ele>12.2</ele>
        <time>2021-08-04T12:16:57Z</time>
      </trkpt>
      <trkpt lat="47.66116" lon="-2.98014">
        <ele>12.2</ele>
        <time>2021-08-04T12:16:58Z</time>
      </trkpt>
      <trkpt lat="47.66119" lon="-2.98015">
        <ele>12.4</ele>
        <time>2021-08-04T12:16:59Z</time>
      </trkpt>
      <trkpt lat="47.66122" lon="-2.98016">
        <ele>12.6</ele>
        <time>2021-08-04T12:17:00Z</time>
      </trkpt>
      <trkpt lat="47.66125" lon="-2.98018">
        <ele>12.8</ele>
        <time>2021-08-04T12:17:01Z</time>
      </trkpt>
      <trkpt lat="47.66127" lon="-2.98019">
        <ele>13</ele>
        <time>2021-08-04T12:17:02Z</time>
      </trkpt>
      <trkpt lat="47.6613" lon="-2.9802">
        <ele>13.2</ele>
        <time>2021-08-04T12:17:03Z</time>
      </trkpt>
      <trkpt lat="47.66133" lon="-2.98021">
        <ele>13.4</ele>
        <time>2021-08-04T12:17:04Z</time>
      </trkpt>
      <trkpt lat="47.66135" lon="-2.98022">
        <ele>13.4</ele>
        <time>2021-08-04T12:17:05Z</time>
      </trkpt>
      <trkpt lat="47.66137" lon="-2.98023">
        <ele>13.6</ele>
        <time>2021-08-04T12:17:06Z</time>
      </trkpt>
      <trkpt lat="47.6614" lon="-2.98024">
        <ele>13.8</ele>
        <time>2021-08-04T12:17:07Z</time>
      </trkpt>
      <trkpt lat="47.66143" lon="-2.98026">
        <ele>14</ele>
        <time>2021-08-04T12:17:08Z</time>
      </trkpt>
      <trkpt lat="47.66145" lon="-2.98027">
        <ele>14.2</ele>
        <time>2021-08-04T12:17:09Z</time>
      </trkpt>
      <trkpt lat="47.66148" lon="-2.98029">
        <ele>14.4</ele>
        <time>2021-08-04T12:17:10Z</time>
      </trkpt>
      <trkpt lat="47.6615" lon="-2.9803">
        <ele>14.6</ele>
        <time>2021-08-04T12:17:11Z</time>
      </trkpt>
      <trkpt lat="47.66153" lon="-2.98031">
        <ele>14.6</ele>
        <time>2021-08-04T12:17:12Z</time>
      </trkpt>
      <trkpt lat="47.66155" lon="-2.98032">
        <ele>14.8</ele>
        <time>2021-08-04T12:17:13Z</time>
      </trkpt>
      <trkpt lat="47.66157" lon="-2.98034">
        <ele>15</ele>
        <time>2021-08-04T12:17:14Z</time>
      </trkpt>
      <trkpt lat="47.6616" lon="-2.98035">
        <ele>15</ele>
        <time>2021-08-04T12:17:15Z</time>
      </trkpt>
      <trkpt lat="47.66162" lon="-2.98036">
        <ele>15.2</ele>
        <time>2021-08-04T12:17:16Z</time>
      </trkpt>
      <trkpt lat="47.66164" lon="-2.98037">
        <ele>15.4</ele>
        <time>2021-08-04T12:17:17Z</time>
      </trkpt>
      <trkpt lat="47.66166" lon="-2.98038">
        <ele>15.6</ele>
        <time>2021-08-04T12:17:18Z</time>
      </trkpt>
      <trkpt lat="47.66168" lon="-2.98039">
        <ele>15.8</ele>
        <time>2021-08-04T12:17:19Z</time>
      </trkpt>
      <trkpt lat="47.66171" lon="-2.9804">
        <ele>16</ele>
        <time>2021-08-04T12:17:20Z</time>
      </trkpt>
      <trkpt lat="47.66173" lon="-2.98041">
        <ele>16.2</ele>
        <time>2021-08-04T12:17:21Z</time>
      </trkpt>
      <trkpt lat="47.66175" lon="-2.98043">
        <ele>16.2</ele>
        <time>2021-08-04T12:17:22Z</time>
      </trkpt>
      <trkpt lat="47.66177" lon="-2.98044">
        <ele>16.4</ele>
        <time>2021-08-04T12:17:23Z</time>
      </trkpt>
      <trkpt lat="47.66179" lon="-2.98045">
        <ele>16.6</ele>
        <time>2021-08-04T12:17:24Z</time>
      </trkpt>
      <trkpt lat="47.6618" lon="-2.98046">
        <ele>16.8</ele>
        <time>2021-08-04T12:17:25Z</time>
      </trkpt>
      <trkpt lat="47.66182" lon="-2.98047">
        <ele>17</ele>
        <time>2021-08-04T12:17:26Z</time>
      </trkpt>
      <trkpt lat="47.66183" lon="-2.98047">
        <ele>17</ele>
        <time>2021-08-04T12:17:27Z</time>
      </trkpt>
      <trkpt lat="47.66185" lon="-2.98048">
        <ele>17</ele>
        <time>2021-08-04T12:17:28Z</time>
      </trkpt>
      <trkpt lat="47.66186" lon="-2.98049">
        <ele>17.2</ele>
        <time>2021-08-04T12:17:29Z</time>
      </trkpt>
      <trkpt lat="47.66188" lon="-2.9805">
        <ele>17.2</ele>
        <time>2021-08-04T12:17:30Z</time>
      </trkpt>
      <trkpt lat="47.6619" lon="-2.98051">
        <ele>17.2</ele>
        <time>2021-08-04T12:17:31Z</time>
      </trkpt>
      <trkpt lat="47.66192" lon="-2.98052">
        <ele>17.4</ele>
        <time>2021-08-04T12:17:32Z</time>
      </trkpt>
      <trkpt lat="47.66194" lon="-2.98052">
        <ele>17.6</ele>
        <time>2021-08-04T12:17:33Z</time>
      </trkpt>
      <trkpt lat="47.66196" lon="-2.98053">
        <ele>17.6</ele>
        <time>2021-08-04T12:17:34Z</time>
      </trkpt>
      <trkpt lat="47.66198" lon="-2.98054">
        <ele>17.8</ele>
        <time>2021-08-04T12:17:35Z</time>
      </trkpt>
      <trkpt lat="47.662" lon="-2.98055">
        <ele>18</ele>
        <time>2021-08-04T12:17:36Z</time>
      </trkpt>
      <trkpt lat="47.66202" lon="-2.98056">
        <ele>18</ele>
        <time>2021-08-04T12:17:37Z</time>
      </trkpt>
      <trkpt lat="47.66203" lon="-2.98057">
        <ele>18.2</ele>
        <time>2021-08-04T12:17:38Z</time>
      </trkpt>
      <trkpt lat="47.66205" lon="-2.98059">
        <ele>18.2</ele>
        <time>2021-08-04T12:17:39Z</time>
      </trkpt>
      <trkpt lat="47.66207" lon="-2.9806">
        <ele>18.2</ele>
        <time>2021-08-04T12:17:40Z</time>
      </trkpt>
      <trkpt lat="47.6621" lon="-2.98061">
        <ele>18.4</ele>
        <time>2021-08-04T12:17:41Z</time>
      </trkpt>
      <trkpt lat="47.66213" lon="-2.98063">
        <ele>18.8</ele>
        <time>2021-08-04T12:17:42Z</time>
      </trkpt>
      <trkpt lat="47.66216" lon="-2.98064">
        <ele>18.8</ele>
        <time>2021-08-04T12:17:43Z</time>
      </trkpt>
      <trkpt lat="47.66218" lon="-2.98065">
        <ele>19</ele>
        <time>2021-08-04T12:17:44Z</time>
      </trkpt>
      <trkpt lat="47.66221" lon="-2.98067">
        <ele>19</ele>
        <time>2021-08-04T12:17:45Z</time>
      </trkpt>
      <trkpt lat="47.66223" lon="-2.98068">
        <ele>19.2</ele>
        <time>2021-08-04T12:17:46Z</time>
      </trkpt>
      <trkpt lat="47.66226" lon="-2.98069">
        <ele>19.4</ele>
        <time>2021-08-04T12:17:47Z</time>
      </trkpt>
      <trkpt lat="47.66228" lon="-2.98069">
        <ele>19.4</ele>
        <time>2021-08-04T12:17:48Z</time>
      </trkpt>
      <trkpt lat="47.6623" lon="-2.9807">
        <ele>19.4</ele>
        <time>2021-08-04T12:17:49Z</time>
      </trkpt>
      <trkpt lat="47.66232" lon="-2.98072">
        <ele>19.6</ele>
        <time>2021-08-04T12:17:50Z</time>
      </trkpt>
      <trkpt lat="47.66234" lon="-2.98072">
        <ele>19.8</ele>
        <time>2021-08-04T12:17:51Z</time>
      </trkpt>
      <trkpt lat="47.66236" lon="-2.98074">
        <ele>20.2</ele>
        <time>2021-08-04T12:17:52Z</time>
      </trkpt>
      <trkpt lat="47.66238" lon="-2.98074">
        <ele>20.4</ele>
        <time>2021-08-04T12:17:53Z</time>
      </trkpt>
      <trkpt lat="47.66239" lon="-2.98075">
        <ele>20.6</ele>
        <time>2021-08-04T12:17:54Z</time>
      </trkpt>
      <trkpt lat="47.66241" lon="-2.98076">
        <ele>20.8</ele>
        <time>2021-08-04T12:17:55Z</time>
      </trkpt>
      <trkpt lat="47.66243" lon="-2.98077">
        <ele>20.8</ele>
        <time>2021-08-04T12:17:56Z</time>
      </trkpt>
      <trkpt lat="47.66244" lon="-2.98078">
        <ele>20.8</ele>
        <time>2021-08-04T12:17:57Z</time>
      </trkpt>
      <trkpt lat="47.66246" lon="-2.98078">
        <ele>21</ele>
        <time>2021-08-04T12:17:58Z</time>
      </trkpt>
      <trkpt lat="47.66248" lon="-2.98079">
        <ele>21.2</ele>
        <time>2021-08-04T12:17:59Z</time>
      </trkpt>
      <trkpt lat="47.6625" lon="-2.9808">
        <ele>21.2</ele>
        <time>2021-08-04T12:18:00Z</time>
      </trkpt>
      <trkpt lat="47.66252" lon="-2.98081">
        <ele>21.4</ele>
        <time>2021-08-04T12:18:01Z</time>
      </trkpt>
      <trkpt lat="47.66253" lon="-2.98082">
        <ele>21.4</ele>
        <time>2021-08-04T12:18:02Z</time>
      </trkpt>
      <trkpt lat="47.66255" lon="-2.98083">
        <ele>21.6</ele>
        <time>2021-08-04T12:18:03Z</time>
      </trkpt>
      <trkpt lat="47.66257" lon="-2.98084">
        <ele>21.6</ele>
        <time>2021-08-04T12:18:04Z</time>
      </trkpt>
      <trkpt lat="47.66259" lon="-2.98085">
        <ele>21.8</ele>
        <time>2021-08-04T12:18:05Z</time>
      </trkpt>
      <trkpt lat="47.6626" lon="-2.98086">
        <ele>21.8</ele>
        <time>2021-08-04T12:18:06Z</time>
      </trkpt>
      <trkpt lat="47.66262" lon="-2.98087">
        <ele>22</ele>
        <time>2021-08-04T12:18:07Z</time>
      </trkpt>
      <trkpt lat="47.66264" lon="-2.98088">
        <ele>22</ele>
        <time>2021-08-04T12:18:08Z</time>
      </trkpt>
      <trkpt lat="47.66266" lon="-2.98089">
        <ele>22.4</ele>
        <time>2021-08-04T12:18:09Z</time>
      </trkpt>
      <trkpt lat="47.66267" lon="-2.98089">
        <ele>22.6</ele>
        <time>2021-08-04T12:18:10Z</time>
      </trkpt>
      <trkpt lat="47.66269" lon="-2.9809">
        <ele>22.8</ele>
        <time>2021-08-04T12:18:11Z</time>
      </trkpt>
      <trkpt lat="47.66271" lon="-2.98091">
        <ele>23</ele>
        <time>2021-08-04T12:18:12Z</time>
      </trkpt>
      <trkpt lat="47.66273" lon="-2.98092">
        <ele>23.2</ele>
        <time>2021-08-04T12:18:13Z</time>
      </trkpt>
      <trkpt lat="47.66274" lon="-2.98093">
        <ele>23.4</ele>
        <time>2021-08-04T12:18:14Z</time>
      </trkpt>
      <trkpt lat="47.66275" lon="-2.98093">
        <ele>23.4</ele>
        <time>2021-08-04T12:18:15Z</time>
      </trkpt>
      <trkpt lat="47.66276" lon="-2.98093">
        <ele>23.6</ele>
        <time>2021-08-04T12:18:16Z</time>
      </trkpt>
      <trkpt lat="47.66278" lon="-2.98094">
        <ele>23.6</ele>
        <time>2021-08-04T12:18:17Z</time>
      </trkpt>
      <trkpt lat="47.66279" lon="-2.98095">
        <ele>23.8</ele>
        <time>2021-08-04T12:18:18Z</time>
      </trkpt>
      <trkpt lat="47.66281" lon="-2.98096">
        <ele>24</ele>
        <time>2021-08-04T12:18:19Z</time>
      </trkpt>
      <trkpt lat="47.66283" lon="-2.98097">
        <ele>24</ele>
        <time>2021-08-04T12:18:20Z</time>
      </trkpt>
      <trkpt lat="47.66285" lon="-2.98097">
        <ele>24.2</ele>
        <time>2021-08-04T12:18:21Z</time>
      </trkpt>
      <trkpt lat="47.66287" lon="-2.98098">
        <ele>24.4</ele>
        <time>2021-08-04T12:18:22Z</time>
      </trkpt>
      <trkpt lat="47.66289" lon="-2.98099">
        <ele>24.4</ele>
        <time>2021-08-04T12:18:23Z</time>
      </trkpt>
      <trkpt lat="47.66291" lon="-2.981">
        <ele>24.4</ele>
        <time>2021-08-04T12:18:24Z</time>
      </trkpt>
      <trkpt lat="47.66293" lon="-2.98101">
        <ele>24.6</ele>
        <time>2021-08-04T12:18:25Z</time>
      </trkpt>
      <trkpt lat="47.66295" lon="-2.98102">
        <ele>24.6</ele>
        <time>2021-08-04T12:18:26Z</time>
      </trkpt>
      <trkpt lat="47.66297" lon="-2.98103">
        <ele>24.8</ele>
        <time>2021-08-04T12:18:27Z</time>
      </trkpt>
      <trkpt lat="47.663" lon="-2.98104">
        <ele>24.8</ele>
        <time>2021-08-04T12:18:28Z</time>
      </trkpt>
      <trkpt lat="47.66302" lon="-2.98105">
        <ele>24.8</ele>
        <time>2021-08-04T12:18:29Z</time>
      </trkpt>
      <trkpt lat="47.66304" lon="-2.98106">
        <ele>25</ele>
        <time>2021-08-04T12:18:30Z</time>
      </trkpt>
      <trkpt lat="47.66306" lon="-2.98107">
        <ele>25.2</ele>
        <time>2021-08-04T12:18:31Z</time>
      </trkpt>
      <trkpt lat="47.66308" lon="-2.98108">
        <ele>25.2</ele>
        <time>2021-08-04T12:18:32Z</time>
      </trkpt>
      <trkpt lat="47.66311" lon="-2.98109">
        <ele>25.4</ele>
        <time>2021-08-04T12:18:33Z</time>
      </trkpt>
      <trkpt lat="47.66313" lon="-2.9811">
        <ele>25.6</ele>
        <time>2021-08-04T12:18:34Z</time>
      </trkpt>
      <trkpt lat="47.66315" lon="-2.98112">
        <ele>25.8</ele>
        <time>2021-08-04T12:18:35Z</time>
      </trkpt>
      <trkpt lat="47.66318" lon="-2.98113">
        <ele>26</ele>
        <time>2021-08-04T12:18:36Z</time>
      </trkpt>
      <trkpt lat="47.6632" lon="-2.98114">
        <ele>26.2</ele>
        <time>2021-08-04T12:18:37Z</time>
      </trkpt>
      <trkpt lat="47.66322" lon="-2.98115">
        <ele>26.4</ele>
        <time>2021-08-04T12:18:38Z</time>
      </trkpt>
      <trkpt lat="47.66324" lon="-2.98116">
        <ele>26.4</ele>
        <time>2021-08-04T12:18:39Z</time>
      </trkpt>
      <trkpt lat="47.66327" lon="-2.98118">
        <ele>26.6</ele>
        <time>2021-08-04T12:18:40Z</time>
      </trkpt>
      <trkpt lat="47.66329" lon="-2.9812">
        <ele>26.6</ele>
        <time>2021-08-04T12:18:41Z</time>
      </trkpt>
      <trkpt lat="47.66331" lon="-2.98121">
        <ele>26.8</ele>
        <time>2021-08-04T12:18:42Z</time>
      </trkpt>
      <trkpt lat="47.66333" lon="-2.98123">
        <ele>27</ele>
        <time>2021-08-04T12:18:43Z</time>
      </trkpt>
      <trkpt lat="47.66335" lon="-2.98125">
        <ele>27</ele>
        <time>2021-08-04T12:18:44Z</time>
      </trkpt>
      <trkpt lat="47.66337" lon="-2.98127">
        <ele>27.2</ele>
        <time>2021-08-04T12:18:45Z</time>
      </trkpt>
      <trkpt lat="47.66339" lon="-2.98129">
        <ele>27.2</ele>
        <time>2021-08-04T12:18:46Z</time>
      </trkpt>
      <trkpt lat="47.66341" lon="-2.98131">
        <ele>27.4</ele>
        <time>2021-08-04T12:18:47Z</time>
      </trkpt>
      <trkpt lat="47.66343" lon="-2.98132">
        <ele>27.4</ele>
        <time>2021-08-04T12:18:48Z</time>
      </trkpt>
      <trkpt lat="47.66345" lon="-2.98134">
        <ele>27.4</ele>
        <time>2021-08-04T12:18:49Z</time>
      </trkpt>
      <trkpt lat="47.66347" lon="-2.98136">
        <ele>27.4</ele>
        <time>2021-08-04T12:18:50Z</time>
      </trkpt>
      <trkpt lat="47.66349" lon="-2.98138">
        <ele>27.6</ele>
        <time>2021-08-04T12:18:51Z</time>
      </trkpt>
      <trkpt lat="47.66352" lon="-2.9814">
        <ele>27.6</ele>
        <time>2021-08-04T12:18:52Z</time>
      </trkpt>
      <trkpt lat="47.66354" lon="-2.98142">
        <ele>27.6</ele>
        <time>2021-08-04T12:18:53Z</time>
      </trkpt>
      <trkpt lat="47.66357" lon="-2.98145">
        <ele>27.6</ele>
        <time>2021-08-04T12:18:54Z</time>
      </trkpt>
      <trkpt lat="47.6636" lon="-2.98147">
        <ele>27.6</ele>
        <time>2021-08-04T12:18:55Z</time>
      </trkpt>
      <trkpt lat="47.66363" lon="-2.9815">
        <ele>27.6</ele>
        <time>2021-08-04T12:18:56Z</time>
      </trkpt>
      <trkpt lat="47.66366" lon="-2.98153">
        <ele>27.6</ele>
        <time>2021-08-04T12:18:57Z</time>
      </trkpt>
      <trkpt lat="47.6637" lon="-2.98157">
        <ele>27.6</ele>
        <time>2021-08-04T12:18:58Z</time>
      </trkpt>
      <trkpt lat="47.66373" lon="-2.9816">
        <ele>27.6</ele>
        <time>2021-08-04T12:18:59Z</time>
      </trkpt>
      <trkpt lat="47.66377" lon="-2.98164">
        <ele>27.6</ele>
        <time>2021-08-04T12:19:00Z</time>
      </trkpt>
      <trkpt lat="47.66381" lon="-2.98168">
        <ele>27.6</ele>
        <time>2021-08-04T12:19:01Z</time>
      </trkpt>
      <trkpt lat="47.66384" lon="-2.98172">
        <ele>27.6</ele>
        <time>2021-08-04T12:19:02Z</time>
      </trkpt>
      <trkpt lat="47.66388" lon="-2.98175">
        <ele>27.6</ele>
        <time>2021-08-04T12:19:03Z</time>
      </trkpt>
      <trkpt lat="47.66392" lon="-2.98179">
        <ele>27.6</ele>
        <time>2021-08-04T12:19:04Z</time>
      </trkpt>
      <trkpt lat="47.66395" lon="-2.98182">
        <ele>27.4</ele>
        <time>2021-08-04T12:19:05Z</time>
      </trkpt>
      <trkpt lat="47.66399" lon="-2.98186">
        <ele>27</ele>
        <time>2021-08-04T12:19:06Z</time>
      </trkpt>
      <trkpt lat="47.66403" lon="-2.9819">
        <ele>26.6</ele>
        <time>2021-08-04T12:19:07Z</time>
      </trkpt>
      <trkpt lat="47.66407" lon="-2.98193">
        <ele>26.4</ele>
        <time>2021-08-04T12:19:08Z</time>
      </trkpt>
      <trkpt lat="47.66411" lon="-2.98197">
        <ele>26.4</ele>
        <time>2021-08-04T12:19:09Z</time>
      </trkpt>
      <trkpt lat="47.66415" lon="-2.98201">
        <ele>26.2</ele>
        <time>2021-08-04T12:19:10Z</time>
      </trkpt>
      <trkpt lat="47.66418" lon="-2.98205">
        <ele>26.2</ele>
        <time>2021-08-04T12:19:11Z</time>
      </trkpt>
      <trkpt lat="47.66422" lon="-2.98209">
        <ele>26</ele>
        <time>2021-08-04T12:19:12Z</time>
      </trkpt>
      <trkpt lat="47.66426" lon="-2.98212">
        <ele>26</ele>
        <time>2021-08-04T12:19:13Z</time>
      </trkpt>
      <trkpt lat="47.6643" lon="-2.98215">
        <ele>26</ele>
        <time>2021-08-04T12:19:14Z</time>
      </trkpt>
      <trkpt lat="47.66434" lon="-2.98219">
        <ele>26</ele>
        <time>2021-08-04T12:19:15Z</time>
      </trkpt>
      <trkpt lat="47.66439" lon="-2.98222">
        <ele>26</ele>
        <time>2021-08-04T12:19:16Z</time>
      </trkpt>
      <trkpt lat="47.66443" lon="-2.98224">
        <ele>25.8</ele>
        <time>2021-08-04T12:19:17Z</time>
      </trkpt>
      <trkpt lat="47.66447" lon="-2.98227">
        <ele>25.8</ele>
        <time>2021-08-04T12:19:18Z</time>
      </trkpt>
      <trkpt lat="47.66452" lon="-2.98229">
        <ele>25.6</ele>
        <time>2021-08-04T12:19:19Z</time>
      </trkpt>
      <trkpt lat="47.66457" lon="-2.98231">
        <ele>25.4</ele>
        <time>2021-08-04T12:19:20Z</time>
      </trkpt>
      <trkpt lat="47.66463" lon="-2.98233">
        <ele>25.4</ele>
        <time>2021-08-04T12:19:21Z</time>
      </trkpt>
      <trkpt lat="47.66469" lon="-2.98234">
        <ele>25.2</ele>
        <time>2021-08-04T12:19:22Z</time>
      </trkpt>
      <trkpt lat="47.66475" lon="-2.98235">
        <ele>25.2</ele>
        <time>2021-08-04T12:19:23Z</time>
      </trkpt>
      <trkpt lat="47.66481" lon="-2.98235">
        <ele>25.2</ele>
        <time>2021-08-04T12:19:24Z</time>
      </trkpt>
      <trkpt lat="47.66487" lon="-2.98235">
        <ele>25</ele>
        <time>2021-08-04T12:19:25Z</time>
      </trkpt>
      <trkpt lat="47.66492" lon="-2.98235">
        <ele>25</ele>
        <time>2021-08-04T12:19:26Z</time>
      </trkpt>
      <trkpt lat="47.66498" lon="-2.98234">
        <ele>25</ele>
        <time>2021-08-04T12:19:27Z</time>
      </trkpt>
      <trkpt lat="47.66503" lon="-2.98234">
        <ele>24.6</ele>
        <time>2021-08-04T12:19:28Z</time>
      </trkpt>
      <trkpt lat="47.66509" lon="-2.98233">
        <ele>24.2</ele>
        <time>2021-08-04T12:19:29Z</time>
      </trkpt>
      <trkpt lat="47.66514" lon="-2.98233">
        <ele>23.6</ele>
        <time>2021-08-04T12:19:30Z</time>
      </trkpt>
      <trkpt lat="47.6652" lon="-2.98232">
        <ele>23</ele>
        <time>2021-08-04T12:19:31Z</time>
      </trkpt>
      <trkpt lat="47.66526" lon="-2.98232">
        <ele>22.6</ele>
        <time>2021-08-04T12:19:32Z</time>
      </trkpt>
      <trkpt lat="47.66531" lon="-2.98231">
        <ele>22.2</ele>
        <time>2021-08-04T12:19:33Z</time>
      </trkpt>
      <trkpt lat="47.66537" lon="-2.9823">
        <ele>21.8</ele>
        <time>2021-08-04T12:19:34Z</time>
      </trkpt>
      <trkpt lat="47.66542" lon="-2.9823">
        <ele>21.8</ele>
        <time>2021-08-04T12:19:35Z</time>
      </trkpt>
      <trkpt lat="47.66547" lon="-2.9823">
        <ele>21.6</ele>
        <time>2021-08-04T12:19:36Z</time>
      </trkpt>
      <trkpt lat="47.66551" lon="-2.98229">
        <ele>21.6</ele>
        <time>2021-08-04T12:19:37Z</time>
      </trkpt>
      <trkpt lat="47.66556" lon="-2.98228">
        <ele>21</ele>
        <time>2021-08-04T12:19:38Z</time>
      </trkpt>
      <trkpt lat="47.66561" lon="-2.98227">
        <ele>20</ele>
        <time>2021-08-04T12:19:39Z</time>
      </trkpt>
      <trkpt lat="47.66566" lon="-2.98226">
        <ele>19.2</ele>
        <time>2021-08-04T12:19:40Z</time>
      </trkpt>
      <trkpt lat="47.66571" lon="-2.98226">
        <ele>18.8</ele>
        <time>2021-08-04T12:19:41Z</time>
      </trkpt>
      <trkpt lat="47.66577" lon="-2.98226">
        <ele>18.4</ele>
        <time>2021-08-04T12:19:42Z</time>
      </trkpt>
      <trkpt lat="47.66582" lon="-2.98227">
        <ele>18.2</ele>
        <time>2021-08-04T12:19:43Z</time>
      </trkpt>
      <trkpt lat="47.66588" lon="-2.98227">
        <ele>18</ele>
        <time>2021-08-04T12:19:44Z</time>
      </trkpt>
      <trkpt lat="47.66593" lon="-2.98228">
        <ele>18</ele>
        <time>2021-08-04T12:19:45Z</time>
      </trkpt>
      <trkpt lat="47.66599" lon="-2.98229">
        <ele>17.6</ele>
        <time>2021-08-04T12:19:46Z</time>
      </trkpt>
      <trkpt lat="47.66605" lon="-2.98231">
        <ele>16.8</ele>
        <time>2021-08-04T12:19:47Z</time>
      </trkpt>
      <trkpt lat="47.6661" lon="-2.98232">
        <ele>16.4</ele>
        <time>2021-08-04T12:19:48Z</time>
      </trkpt>
      <trkpt lat="47.66615" lon="-2.98235">
        <ele>16.2</ele>
        <time>2021-08-04T12:19:49Z</time>
      </trkpt>
      <trkpt lat="47.66618" lon="-2.98238">
        <ele>16</ele>
        <time>2021-08-04T12:19:50Z</time>
      </trkpt>
      <trkpt lat="47.66621" lon="-2.98243">
        <ele>16</ele>
        <time>2021-08-04T12:19:51Z</time>
      </trkpt>
      <trkpt lat="47.66623" lon="-2.98248">
        <ele>16</ele>
        <time>2021-08-04T12:19:52Z</time>
      </trkpt>
      <trkpt lat="47.66626" lon="-2.98253">
        <ele>16</ele>
        <time>2021-08-04T12:19:53Z</time>
      </trkpt>
      <trkpt lat="47.66628" lon="-2.98258">
        <ele>15.8</ele>
        <time>2021-08-04T12:19:54Z</time>
      </trkpt>
      <trkpt lat="47.66631" lon="-2.9826">
        <ele>15.8</ele>
        <time>2021-08-04T12:19:55Z</time>
      </trkpt>
      <trkpt lat="47.66635" lon="-2.98261">
        <ele>15.8</ele>
        <time>2021-08-04T12:19:56Z</time>
      </trkpt>
      <trkpt lat="47.66639" lon="-2.9826">
        <ele>15.8</ele>
        <time>2021-08-04T12:19:57Z</time>
      </trkpt>
      <trkpt lat="47.66642" lon="-2.98256">
        <ele>15.6</ele>
        <time>2021-08-04T12:19:58Z</time>
      </trkpt>
      <trkpt lat="47.66645" lon="-2.98252">
        <ele>15.6</ele>
        <time>2021-08-04T12:19:59Z</time>
      </trkpt>
      <trkpt lat="47.66647" lon="-2.98247">
        <ele>15.6</ele>
        <time>2021-08-04T12:20:00Z</time>
      </trkpt>
      <trkpt lat="47.6665" lon="-2.98242">
        <ele>15.6</ele>
        <time>2021-08-04T12:20:01Z</time>
      </trkpt>
      <trkpt lat="47.66653" lon="-2.98238">
        <ele>15.4</ele>
        <time>2021-08-04T12:20:02Z</time>
      </trkpt>
      <trkpt lat="47.66656" lon="-2.98233">
        <ele>15.4</ele>
        <time>2021-08-04T12:20:03Z</time>
      </trkpt>
      <trkpt lat="47.66659" lon="-2.98229">
        <ele>15.4</ele>
        <time>2021-08-04T12:20:04Z</time>
      </trkpt>
      <trkpt lat="47.66662" lon="-2.98226">
        <ele>15.2</ele>
        <time>2021-08-04T12:20:05Z</time>
      </trkpt>
      <trkpt lat="47.66665" lon="-2.98224">
        <ele>15.2</ele>
        <time>2021-08-04T12:20:06Z</time>
      </trkpt>
      <trkpt lat="47.66667" lon="-2.98224">
        <ele>14.8</ele>
        <time>2021-08-04T12:20:07Z</time>
      </trkpt>
      <trkpt lat="47.66669" lon="-2.98225">
        <ele>14.8</ele>
        <time>2021-08-04T12:20:08Z</time>
      </trkpt>
      <trkpt lat="47.6667" lon="-2.98226">
        <ele>14.6</ele>
        <time>2021-08-04T12:20:09Z</time>
      </trkpt>
      <trkpt lat="47.66671" lon="-2.98227">
        <ele>14.6</ele>
        <time>2021-08-04T12:20:10Z</time>
      </trkpt>
      <trkpt lat="47.66671" lon="-2.98226">
        <ele>14.6</ele>
        <time>2021-08-04T12:20:11Z</time>
      </trkpt>
      <trkpt lat="47.66672" lon="-2.98226">
        <ele>14.6</ele>
        <time>2021-08-04T12:20:12Z</time>
      </trkpt>
      <trkpt lat="47.66673" lon="-2.98225">
        <ele>14.6</ele>
        <time>2021-08-04T12:20:13Z</time>
      </trkpt>
      <trkpt lat="47.66675" lon="-2.98224">
        <ele>14.6</ele>
        <time>2021-08-04T12:20:14Z</time>
      </trkpt>
      <trkpt lat="47.66676" lon="-2.98222">
        <ele>14.6</ele>
        <time>2021-08-04T12:20:15Z</time>
      </trkpt>
      <trkpt lat="47.66678" lon="-2.98221">
        <ele>14.4</ele>
        <time>2021-08-04T12:20:16Z</time>
      </trkpt>
      <trkpt lat="47.66681" lon="-2.98219">
        <ele>14.4</ele>
        <time>2021-08-04T12:20:17Z</time>
      </trkpt>
      <trkpt lat="47.66683" lon="-2.98217">
        <ele>14.4</ele>
        <time>2021-08-04T12:20:18Z</time>
      </trkpt>
      <trkpt lat="47.66686" lon="-2.98215">
        <ele>14.4</ele>
        <time>2021-08-04T12:20:19Z</time>
      </trkpt>
      <trkpt lat="47.66688" lon="-2.98213">
        <ele>14.4</ele>
        <time>2021-08-04T12:20:20Z</time>
      </trkpt>
      <trkpt lat="47.66691" lon="-2.98211">
        <ele>14.4</ele>
        <time>2021-08-04T12:20:21Z</time>
      </trkpt>
      <trkpt lat="47.66694" lon="-2.98209">
        <ele>14.2</ele>
        <time>2021-08-04T12:20:22Z</time>
      </trkpt>
      <trkpt lat="47.66697" lon="-2.98207">
        <ele>14</ele>
        <time>2021-08-04T12:20:23Z</time>
      </trkpt>
      <trkpt lat="47.667" lon="-2.98205">
        <ele>14</ele>
        <time>2021-08-04T12:20:24Z</time>
      </trkpt>
      <trkpt lat="47.66702" lon="-2.98202">
        <ele>13.8</ele>
        <time>2021-08-04T12:20:25Z</time>
      </trkpt>
      <trkpt lat="47.66704" lon="-2.98198">
        <ele>13.8</ele>
        <time>2021-08-04T12:20:26Z</time>
      </trkpt>
      <trkpt lat="47.66707" lon="-2.98193">
        <ele>13.6</ele>
        <time>2021-08-04T12:20:27Z</time>
      </trkpt>
      <trkpt lat="47.66709" lon="-2.9819">
        <ele>13.4</ele>
        <time>2021-08-04T12:20:28Z</time>
      </trkpt>
      <trkpt lat="47.66712" lon="-2.98187">
        <ele>13.2</ele>
        <time>2021-08-04T12:20:29Z</time>
      </trkpt>
      <trkpt lat="47.66715" lon="-2.98183">
        <ele>13</ele>
        <time>2021-08-04T12:20:30Z</time>
      </trkpt>
      <trkpt lat="47.66718" lon="-2.98179">
        <ele>12.2</ele>
        <time>2021-08-04T12:20:31Z</time>
      </trkpt>
      <trkpt lat="47.66721" lon="-2.98174">
        <ele>12</ele>
        <time>2021-08-04T12:20:32Z</time>
      </trkpt>
      <trkpt lat="47.66724" lon="-2.98169">
        <ele>11.8</ele>
        <time>2021-08-04T12:20:33Z</time>
      </trkpt>
      <trkpt lat="47.66727" lon="-2.98166">
        <ele>11.4</ele>
        <time>2021-08-04T12:20:34Z</time>
      </trkpt>
      <trkpt lat="47.6673" lon="-2.98162">
        <ele>11</ele>
        <time>2021-08-04T12:20:35Z</time>
      </trkpt>
      <trkpt lat="47.66733" lon="-2.98158">
        <ele>10.6</ele>
        <time>2021-08-04T12:20:36Z</time>
      </trkpt>
      <trkpt lat="47.66735" lon="-2.98152">
        <ele>10.4</ele>
        <time>2021-08-04T12:20:37Z</time>
      </trkpt>
      <trkpt lat="47.66738" lon="-2.98147">
        <ele>10</ele>
        <time>2021-08-04T12:20:38Z</time>
      </trkpt>
      <trkpt lat="47.6674" lon="-2.98141">
        <ele>9.6</ele>
        <time>2021-08-04T12:20:39Z</time>
      </trkpt>
      <trkpt lat="47.66743" lon="-2.98136">
        <ele>9.2</ele>
        <time>2021-08-04T12:20:40Z</time>
      </trkpt>
      <trkpt lat="47.66746" lon="-2.98131">
        <ele>9</ele>
        <time>2021-08-04T12:20:41Z</time>
      </trkpt>
      <trkpt lat="47.66749" lon="-2.98124">
        <ele>9</ele>
        <time>2021-08-04T12:20:42Z</time>
      </trkpt>
      <trkpt lat="47.66752" lon="-2.98118">
        <ele>8.6</ele>
        <time>2021-08-04T12:20:43Z</time>
      </trkpt>
      <trkpt lat="47.66754" lon="-2.98111">
        <ele>8.6</ele>
        <time>2021-08-04T12:20:44Z</time>
      </trkpt>
      <trkpt lat="47.66757" lon="-2.98105">
        <ele>8.4</ele>
        <time>2021-08-04T12:20:45Z</time>
      </trkpt>
      <trkpt lat="47.6676" lon="-2.981">
        <ele>8.2</ele>
        <time>2021-08-04T12:20:46Z</time>
      </trkpt>
      <trkpt lat="47.66762" lon="-2.98094">
        <ele>8</ele>
        <time>2021-08-04T12:20:47Z</time>
      </trkpt>
      <trkpt lat="47.66765" lon="-2.98089">
        <ele>7.8</ele>
        <time>2021-08-04T12:20:48Z</time>
      </trkpt>
      <trkpt lat="47.66767" lon="-2.98083">
        <ele>7.6</ele>
        <time>2021-08-04T12:20:49Z</time>
      </trkpt>
      <trkpt lat="47.66769" lon="-2.98078">
        <ele>7.4</ele>
        <time>2021-08-04T12:20:50Z</time>
      </trkpt>
      <trkpt lat="47.66771" lon="-2.98073">
        <ele>7</ele>
        <time>2021-08-04T12:20:51Z</time>
      </trkpt>
      <trkpt lat="47.66773" lon="-2.98069">
        <ele>6.8</ele>
        <time>2021-08-04T12:20:52Z</time>
      </trkpt>
      <trkpt lat="47.66774" lon="-2.98064">
        <ele>6.4</ele>
        <time>2021-08-04T12:20:53Z</time>
      </trkpt>
      <trkpt lat="47.66776" lon="-2.98061">
        <ele>6.2</ele>
        <time>2021-08-04T12:20:54Z</time>
      </trkpt>
      <trkpt lat="47.66777" lon="-2.98058">
        <ele>5.6</ele>
        <time>2021-08-04T12:20:55Z</time>
      </trkpt>
      <trkpt lat="47.66778" lon="-2.98055">
        <ele>5.6</ele>
        <time>2021-08-04T12:20:56Z</time>
      </trkpt>
      <trkpt lat="47.66779" lon="-2.98052">
        <ele>5.2</ele>
        <time>2021-08-04T12:20:57Z</time>
      </trkpt>
      <trkpt lat="47.6678" lon="-2.98049">
        <ele>4.8</ele>
        <time>2021-08-04T12:20:58Z</time>
      </trkpt>
      <trkpt lat="47.66781" lon="-2.98046">
        <ele>4</ele>
        <time>2021-08-04T12:20:59Z</time>
      </trkpt>
      <trkpt lat="47.66782" lon="-2.98043">
        <ele>4</ele>
        <time>2021-08-04T12:21:00Z</time>
      </trkpt>
      <trkpt lat="47.66782" lon="-2.9804">
        <ele>3.8</ele>
        <time>2021-08-04T12:21:01Z</time>
      </trkpt>
      <trkpt lat="47.66783" lon="-2.98036">
        <ele>3.8</ele>
        <time>2021-08-04T12:21:02Z</time>
      </trkpt>
      <trkpt lat="47.66783" lon="-2.98033">
        <ele>3.8</ele>
        <time>2021-08-04T12:21:03Z</time>
      </trkpt>
      <trkpt lat="47.66783" lon="-2.9803">
        <ele>3.8</ele>
        <time>2021-08-04T12:21:04Z</time>
      </trkpt>
      <trkpt lat="47.66782" lon="-2.98026">
        <ele>3.8</ele>
        <time>2021-08-04T12:21:05Z</time>
      </trkpt>
      <trkpt lat="47.66781" lon="-2.98023">
        <ele>3.8</ele>
        <time>2021-08-04T12:21:06Z</time>
      </trkpt>
      <trkpt lat="47.66781" lon="-2.98019">
        <ele>3.8</ele>
        <time>2021-08-04T12:21:07Z</time>
      </trkpt>
      <trkpt lat="47.66781" lon="-2.98016">
        <ele>3.8</ele>
        <time>2021-08-04T12:21:08Z</time>
      </trkpt>
      <trkpt lat="47.6678" lon="-2.98012">
        <ele>3.8</ele>
        <time>2021-08-04T12:21:09Z</time>
      </trkpt>
      <trkpt lat="47.66779" lon="-2.98009">
        <ele>4</ele>
        <time>2021-08-04T12:21:10Z</time>
      </trkpt>
      <trkpt lat="47.66778" lon="-2.98006">
        <ele>4.2</ele>
        <time>2021-08-04T12:21:11Z</time>
      </trkpt>
      <trkpt lat="47.66778" lon="-2.98003">
        <ele>4.4</ele>
        <time>2021-08-04T12:21:12Z</time>
      </trkpt>
      <trkpt lat="47.66777" lon="-2.98">
        <ele>4.6</ele>
        <time>2021-08-04T12:21:13Z</time>
      </trkpt>
      <trkpt lat="47.66777" lon="-2.97997">
        <ele>4.8</ele>
        <time>2021-08-04T12:21:14Z</time>
      </trkpt>
      <trkpt lat="47.66776" lon="-2.97994">
        <ele>5</ele>
        <time>2021-08-04T12:21:15Z</time>
      </trkpt>
      <trkpt lat="47.66775" lon="-2.97993">
        <ele>5.2</ele>
        <time>2021-08-04T12:21:16Z</time>
      </trkpt>
      <trkpt lat="47.66774" lon="-2.97991">
        <ele>5.4</ele>
        <time>2021-08-04T12:21:17Z</time>
      </trkpt>
      <trkpt lat="47.66773" lon="-2.9799">
        <ele>5.8</ele>
        <time>2021-08-04T12:21:18Z</time>
      </trkpt>
      <trkpt lat="47.66772" lon="-2.9799">
        <ele>6</ele>
        <time>2021-08-04T12:21:19Z</time>
      </trkpt>
      <trkpt lat="47.66771" lon="-2.97992">
        <ele>6.4</ele>
        <time>2021-08-04T12:21:20Z</time>
      </trkpt>
      <trkpt lat="47.6677" lon="-2.97994">
        <ele>6.4</ele>
        <time>2021-08-04T12:21:21Z</time>
      </trkpt>
      <trkpt lat="47.66769" lon="-2.97996">
        <ele>6.6</ele>
        <time>2021-08-04T12:21:22Z</time>
      </trkpt>
      <trkpt lat="47.66769" lon="-2.97998">
        <ele>6.8</ele>
        <time>2021-08-04T12:21:23Z</time>
      </trkpt>
      <trkpt lat="47.66768" lon="-2.98">
        <ele>7.2</ele>
        <time>2021-08-04T12:21:24Z</time>
      </trkpt>
      <trkpt lat="47.66767" lon="-2.98002">
        <ele>7.2</ele>
        <time>2021-08-04T12:21:25Z</time>
      </trkpt>
      <trkpt lat="47.66766" lon="-2.98004">
        <ele>7.4</ele>
        <time>2021-08-04T12:21:26Z</time>
      </trkpt>
      <trkpt lat="47.66765" lon="-2.98007">
        <ele>7.4</ele>
        <time>2021-08-04T12:21:27Z</time>
      </trkpt>
      <trkpt lat="47.66764" lon="-2.98009">
        <ele>7.6</ele>
        <time>2021-08-04T12:21:28Z</time>
      </trkpt>
      <trkpt lat="47.66763" lon="-2.98011">
        <ele>7.6</ele>
        <time>2021-08-04T12:21:29Z</time>
      </trkpt>
      <trkpt lat="47.66762" lon="-2.98014">
        <ele>7.6</ele>
        <time>2021-08-04T12:21:30Z</time>
      </trkpt>
      <trkpt lat="47.66761" lon="-2.98016">
        <ele>7.8</ele>
        <time>2021-08-04T12:21:31Z</time>
      </trkpt>
      <trkpt lat="47.66759" lon="-2.98018">
        <ele>7.8</ele>
        <time>2021-08-04T12:21:32Z</time>
      </trkpt>
      <trkpt lat="47.66758" lon="-2.9802">
        <ele>7.8</ele>
        <time>2021-08-04T12:21:33Z</time>
      </trkpt>
      <trkpt lat="47.66757" lon="-2.98023">
        <ele>8</ele>
        <time>2021-08-04T12:21:34Z</time>
      </trkpt>
      <trkpt lat="47.66755" lon="-2.98026">
        <ele>8</ele>
        <time>2021-08-04T12:21:35Z</time>
      </trkpt>
      <trkpt lat="47.66754" lon="-2.9803">
        <ele>8</ele>
        <time>2021-08-04T12:21:36Z</time>
      </trkpt>
      <trkpt lat="47.66752" lon="-2.98034">
        <ele>8</ele>
        <time>2021-08-04T12:21:37Z</time>
      </trkpt>
      <trkpt lat="47.6675" lon="-2.98038">
        <ele>8</ele>
        <time>2021-08-04T12:21:38Z</time>
      </trkpt>
      <trkpt lat="47.66749" lon="-2.98042">
        <ele>8</ele>
        <time>2021-08-04T12:21:39Z</time>
      </trkpt>
      <trkpt lat="47.66747" lon="-2.98047">
        <ele>8</ele>
        <time>2021-08-04T12:21:40Z</time>
      </trkpt>
      <trkpt lat="47.66745" lon="-2.98051">
        <ele>8.2</ele>
        <time>2021-08-04T12:21:41Z</time>
      </trkpt>
      <trkpt lat="47.66744" lon="-2.98055">
        <ele>8.2</ele>
        <time>2021-08-04T12:21:42Z</time>
      </trkpt>
      <trkpt lat="47.66742" lon="-2.98059">
        <ele>8.2</ele>
        <time>2021-08-04T12:21:43Z</time>
      </trkpt>
      <trkpt lat="47.66741" lon="-2.98062">
        <ele>8.2</ele>
        <time>2021-08-04T12:21:44Z</time>
      </trkpt>
      <trkpt lat="47.6674" lon="-2.98065">
        <ele>8.2</ele>
        <time>2021-08-04T12:21:45Z</time>
      </trkpt>
      <trkpt lat="47.66739" lon="-2.98068">
        <ele>8.2</ele>
        <time>2021-08-04T12:21:46Z</time>
      </trkpt>
      <trkpt lat="47.66738" lon="-2.9807">
        <ele>8.4</ele>
        <time>2021-08-04T12:21:47Z</time>
      </trkpt>
      <trkpt lat="47.66737" lon="-2.98072">
        <ele>8.4</ele>
        <time>2021-08-04T12:21:48Z</time>
      </trkpt>
      <trkpt lat="47.66736" lon="-2.98072">
        <ele>8.4</ele>
        <time>2021-08-04T12:21:49Z</time>
      </trkpt>
      <trkpt lat="47.66735" lon="-2.98072">
        <ele>8.4</ele>
        <time>2021-08-04T12:21:50Z</time>
      </trkpt>
      <trkpt lat="47.66735" lon="-2.9807">
        <ele>8.6</ele>
        <time>2021-08-04T12:21:51Z</time>
      </trkpt>
      <trkpt lat="47.66735" lon="-2.98067">
        <ele>8.8</ele>
        <time>2021-08-04T12:21:52Z</time>
      </trkpt>
      <trkpt lat="47.66736" lon="-2.98063">
        <ele>9</ele>
        <time>2021-08-04T12:21:53Z</time>
      </trkpt>
      <trkpt lat="47.66737" lon="-2.9806">
        <ele>9.2</ele>
        <time>2021-08-04T12:21:54Z</time>
      </trkpt>
      <trkpt lat="47.66739" lon="-2.98056">
        <ele>9.4</ele>
        <time>2021-08-04T12:21:55Z</time>
      </trkpt>
      <trkpt lat="47.66741" lon="-2.98052">
        <ele>9.6</ele>
        <time>2021-08-04T12:21:56Z</time>
      </trkpt>
      <trkpt lat="47.66743" lon="-2.98048">
        <ele>9.6</ele>
        <time>2021-08-04T12:21:57Z</time>
      </trkpt>
      <trkpt lat="47.66745" lon="-2.98044">
        <ele>9.6</ele>
        <time>2021-08-04T12:21:58Z</time>
      </trkpt>
      <trkpt lat="47.66747" lon="-2.98039">
        <ele>9.6</ele>
        <time>2021-08-04T12:21:59Z</time>
      </trkpt>
      <trkpt lat="47.66749" lon="-2.98035">
        <ele>9.6</ele>
        <time>2021-08-04T12:22:00Z</time>
      </trkpt>
      <trkpt lat="47.66751" lon="-2.9803">
        <ele>9.6</ele>
        <time>2021-08-04T12:22:01Z</time>
      </trkpt>
      <trkpt lat="47.66753" lon="-2.98026">
        <ele>9.6</ele>
        <time>2021-08-04T12:22:02Z</time>
      </trkpt>
      <trkpt lat="47.66755" lon="-2.98021">
        <ele>9.6</ele>
        <time>2021-08-04T12:22:03Z</time>
      </trkpt>
      <trkpt lat="47.66757" lon="-2.98017">
        <ele>9.4</ele>
        <time>2021-08-04T12:22:04Z</time>
      </trkpt>
      <trkpt lat="47.6676" lon="-2.98012">
        <ele>9.2</ele>
        <time>2021-08-04T12:22:05Z</time>
      </trkpt>
      <trkpt lat="47.66762" lon="-2.98007">
        <ele>8.8</ele>
        <time>2021-08-04T12:22:06Z</time>
      </trkpt>
      <trkpt lat="47.66764" lon="-2.98001">
        <ele>8.6</ele>
        <time>2021-08-04T12:22:07Z</time>
      </trkpt>
      <trkpt lat="47.66766" lon="-2.97996">
        <ele>8.6</ele>
        <time>2021-08-04T12:22:08Z</time>
      </trkpt>
      <trkpt lat="47.66768" lon="-2.97992">
        <ele>8.4</ele>
        <time>2021-08-04T12:22:09Z</time>
      </trkpt>
      <trkpt lat="47.66769" lon="-2.97988">
        <ele>8.2</ele>
        <time>2021-08-04T12:22:10Z</time>
      </trkpt>
      <trkpt lat="47.6677" lon="-2.97985">
        <ele>8</ele>
        <time>2021-08-04T12:22:11Z</time>
      </trkpt>
      <trkpt lat="47.66772" lon="-2.97982">
        <ele>8</ele>
        <time>2021-08-04T12:22:12Z</time>
      </trkpt>
      <trkpt lat="47.66774" lon="-2.97981">
        <ele>7.8</ele>
        <time>2021-08-04T12:22:13Z</time>
      </trkpt>
      <trkpt lat="47.66776" lon="-2.97983">
        <ele>7.6</ele>
        <time>2021-08-04T12:22:14Z</time>
      </trkpt>
      <trkpt lat="47.66777" lon="-2.97986">
        <ele>7.6</ele>
        <time>2021-08-04T12:22:15Z</time>
      </trkpt>
      <trkpt lat="47.66777" lon="-2.97989">
        <ele>7.4</ele>
        <time>2021-08-04T12:22:16Z</time>
      </trkpt>
      <trkpt lat="47.66777" lon="-2.97993">
        <ele>7.2</ele>
        <time>2021-08-04T12:22:17Z</time>
      </trkpt>
      <trkpt lat="47.66778" lon="-2.97996">
        <ele>7.4</ele>
        <time>2021-08-04T12:22:18Z</time>
      </trkpt>
      <trkpt lat="47.6678" lon="-2.98">
        <ele>7.2</ele>
        <time>2021-08-04T12:22:19Z</time>
      </trkpt>
      <trkpt lat="47.66781" lon="-2.98004">
        <ele>7.2</ele>
        <time>2021-08-04T12:22:20Z</time>
      </trkpt>
      <trkpt lat="47.66781" lon="-2.98009">
        <ele>7.2</ele>
        <time>2021-08-04T12:22:21Z</time>
      </trkpt>
      <trkpt lat="47.66782" lon="-2.98015">
        <ele>7.2</ele>
        <time>2021-08-04T12:22:22Z</time>
      </trkpt>
      <trkpt lat="47.66784" lon="-2.9802">
        <ele>7.2</ele>
        <time>2021-08-04T12:22:23Z</time>
      </trkpt>
      <trkpt lat="47.66785" lon="-2.98025">
        <ele>7</ele>
        <time>2021-08-04T12:22:24Z</time>
      </trkpt>
      <trkpt lat="47.66786" lon="-2.9803">
        <ele>6.8</ele>
        <time>2021-08-04T12:22:25Z</time>
      </trkpt>
      <trkpt lat="47.66787" lon="-2.98034">
        <ele>6.6</ele>
        <time>2021-08-04T12:22:26Z</time>
      </trkpt>
      <trkpt lat="47.66788" lon="-2.98039">
        <ele>6.4</ele>
        <time>2021-08-04T12:22:27Z</time>
      </trkpt>
      <trkpt lat="47.66789" lon="-2.98042">
        <ele>6.2</ele>
        <time>2021-08-04T12:22:28Z</time>
      </trkpt>
      <trkpt lat="47.66789" lon="-2.98046">
        <ele>5.8</ele>
        <time>2021-08-04T12:22:29Z</time>
      </trkpt>
      <trkpt lat="47.66789" lon="-2.98048">
        <ele>5.4</ele>
        <time>2021-08-04T12:22:30Z</time>
      </trkpt>
      <trkpt lat="47.66789" lon="-2.9805">
        <ele>4.8</ele>
        <time>2021-08-04T12:22:31Z</time>
      </trkpt>
      <trkpt lat="47.66788" lon="-2.98051">
        <ele>4.4</ele>
        <time>2021-08-04T12:22:32Z</time>
      </trkpt>
      <trkpt lat="47.66788" lon="-2.98053">
        <ele>4</ele>
        <time>2021-08-04T12:22:33Z</time>
      </trkpt>
      <trkpt lat="47.66787" lon="-2.98054">
        <ele>4</ele>
        <time>2021-08-04T12:22:34Z</time>
      </trkpt>
      <trkpt lat="47.66786" lon="-2.98054">
        <ele>3.8</ele>
        <time>2021-08-04T12:22:35Z</time>
      </trkpt>
      <trkpt lat="47.66785" lon="-2.98055">
        <ele>3.6</ele>
        <time>2021-08-04T12:22:36Z</time>
      </trkpt>
      <trkpt lat="47.66784" lon="-2.98055">
        <ele>3.6</ele>
        <time>2021-08-04T12:22:37Z</time>
      </trkpt>
      <trkpt lat="47.66784" lon="-2.98055">
        <ele>3.6</ele>
        <time>2021-08-04T12:22:38Z</time>
      </trkpt>
      <trkpt lat="47.66783" lon="-2.98055">
        <ele>3.4</ele>
        <time>2021-08-04T12:22:39Z</time>
      </trkpt>
      <trkpt lat="47.66783" lon="-2.98055">
        <ele>3.4</ele>
        <time>2021-08-04T12:22:40Z</time>
      </trkpt>
      <trkpt lat="47.66774" lon="-2.98051">
        <ele>2.8</ele>
        <time>2021-08-04T12:23:43Z</time>
      </trkpt>
      <trkpt lat="47.66772" lon="-2.98047">
        <ele>2.8</ele>
        <time>2021-08-04T12:23:44Z</time>
      </trkpt>
      <trkpt lat="47.6677" lon="-2.98042">
        <ele>2.8</ele>
        <time>2021-08-04T12:23:45Z</time>
      </trkpt>
      <trkpt lat="47.66767" lon="-2.98035">
        <ele>2.8</ele>
        <time>2021-08-04T12:23:46Z</time>
      </trkpt>
      <trkpt lat="47.66764" lon="-2.98029">
        <ele>2.8</ele>
        <time>2021-08-04T12:23:47Z</time>
      </trkpt>
      <trkpt lat="47.66761" lon="-2.98024">
        <ele>2.8</ele>
        <time>2021-08-04T12:23:48Z</time>
      </trkpt>
      <trkpt lat="47.66758" lon="-2.9802">
        <ele>2.8</ele>
        <time>2021-08-04T12:23:49Z</time>
      </trkpt>
      <trkpt lat="47.66756" lon="-2.98015">
        <ele>2.6</ele>
        <time>2021-08-04T12:23:50Z</time>
      </trkpt>
      <trkpt lat="47.66752" lon="-2.98011">
        <ele>2.4</ele>
        <time>2021-08-04T12:23:51Z</time>
      </trkpt>
      <trkpt lat="47.66749" lon="-2.98006">
        <ele>2</ele>
        <time>2021-08-04T12:23:52Z</time>
      </trkpt>
      <trkpt lat="47.66745" lon="-2.98001">
        <ele>1.4</ele>
        <time>2021-08-04T12:23:53Z</time>
      </trkpt>
      <trkpt lat="47.66741" lon="-2.97995">
        <ele>1</ele>
        <time>2021-08-04T12:23:54Z</time>
      </trkpt>
      <trkpt lat="47.66737" lon="-2.97991">
        <ele>0.2</ele>
        <time>2021-08-04T12:23:55Z</time>
      </trkpt>
      <trkpt lat="47.66733" lon="-2.97987">
        <ele>-0.4</ele>
        <time>2021-08-04T12:23:56Z</time>
      </trkpt>
      <trkpt lat="47.66729" lon="-2.97984">
        <ele>-1</ele>
        <time>2021-08-04T12:23:57Z</time>
      </trkpt>
      <trkpt lat="47.66725" lon="-2.9798">
        <ele>-1.6</ele>
        <time>2021-08-04T12:23:58Z</time>
      </trkpt>
      <trkpt lat="47.66721" lon="-2.97976">
        <ele>-2.2</ele>
        <time>2021-08-04T12:23:59Z</time>
      </trkpt>
      <trkpt lat="47.66718" lon="-2.97973">
        <ele>-3</ele>
        <time>2021-08-04T12:24:00Z</time>
      </trkpt>
      <trkpt lat="47.66714" lon="-2.9797">
        <ele>-3.6</ele>
        <time>2021-08-04T12:24:01Z</time>
      </trkpt>
      <trkpt lat="47.6671" lon="-2.97967">
        <ele>-4.2</ele>
        <time>2021-08-04T12:24:02Z</time>
      </trkpt>
      <trkpt lat="47.66706" lon="-2.97966">
        <ele>-4.6</ele>
        <time>2021-08-04T12:24:03Z</time>
      </trkpt>
      <trkpt lat="47.66703" lon="-2.97965">
        <ele>-4.8</ele>
        <time>2021-08-04T12:24:04Z</time>
      </trkpt>
      <trkpt lat="47.667" lon="-2.97965">
        <ele>-5</ele>
        <time>2021-08-04T12:24:05Z</time>
      </trkpt>
      <trkpt lat="47.66698" lon="-2.97966">
        <ele>-5.2</ele>
        <time>2021-08-04T12:24:06Z</time>
      </trkpt>
      <trkpt lat="47.66695" lon="-2.97968">
        <ele>-5.4</ele>
        <time>2021-08-04T12:24:07Z</time>
      </trkpt>
      <trkpt lat="47.66693" lon="-2.97969">
        <ele>-5.6</ele>
        <time>2021-08-04T12:24:08Z</time>
      </trkpt>
      <trkpt lat="47.66691" lon="-2.9797">
        <ele>-5.6</ele>
        <time>2021-08-04T12:24:09Z</time>
      </trkpt>
      <trkpt lat="47.66689" lon="-2.97972">
        <ele>-5.6</ele>
        <time>2021-08-04T12:24:10Z</time>
      </trkpt>
      <trkpt lat="47.66687" lon="-2.97973">
        <ele>-5.6</ele>
        <time>2021-08-04T12:24:11Z</time>
      </trkpt>
      <trkpt lat="47.66685" lon="-2.97975">
        <ele>-5.8</ele>
        <time>2021-08-04T12:24:12Z</time>
      </trkpt>
      <trkpt lat="47.66683" lon="-2.97978">
        <ele>-5.8</ele>
        <time>2021-08-04T12:24:13Z</time>
      </trkpt>
      <trkpt lat="47.66681" lon="-2.9798">
        <ele>-5.8</ele>
        <time>2021-08-04T12:24:14Z</time>
      </trkpt>
      <trkpt lat="47.66678" lon="-2.97981">
        <ele>-5.8</ele>
        <time>2021-08-04T12:24:15Z</time>
      </trkpt>
      <trkpt lat="47.66675" lon="-2.97981">
        <ele>-5.8</ele>
        <time>2021-08-04T12:24:16Z</time>
      </trkpt>
      <trkpt lat="47.66673" lon="-2.97981">
        <ele>-5.8</ele>
        <time>2021-08-04T12:24:17Z</time>
      </trkpt>
      <trkpt lat="47.6667" lon="-2.9798">
        <ele>-5.8</ele>
        <time>2021-08-04T12:24:18Z</time>
      </trkpt>
      <trkpt lat="47.66668" lon="-2.97979">
        <ele>-5.8</ele>
        <time>2021-08-04T12:24:19Z</time>
      </trkpt>
      <trkpt lat="47.66664" lon="-2.97977">
        <ele>-5.8</ele>
        <time>2021-08-04T12:24:20Z</time>
      </trkpt>
      <trkpt lat="47.66662" lon="-2.97974">
        <ele>-6</ele>
        <time>2021-08-04T12:24:21Z</time>
      </trkpt>
      <trkpt lat="47.6666" lon="-2.97971">
        <ele>-6</ele>
        <time>2021-08-04T12:24:22Z</time>
      </trkpt>
      <trkpt lat="47.66659" lon="-2.97968">
        <ele>-6</ele>
        <time>2021-08-04T12:24:23Z</time>
      </trkpt>
      <trkpt lat="47.66658" lon="-2.97965">
        <ele>-6</ele>
        <time>2021-08-04T12:24:24Z</time>
      </trkpt>
      <trkpt lat="47.66657" lon="-2.97963">
        <ele>-6</ele>
        <time>2021-08-04T12:24:25Z</time>
      </trkpt>
      <trkpt lat="47.66656" lon="-2.97961">
        <ele>-6</ele>
        <time>2021-08-04T12:24:26Z</time>
      </trkpt>
      <trkpt lat="47.66654" lon="-2.97959">
        <ele>-6</ele>
        <time>2021-08-04T12:24:27Z</time>
      </trkpt>
      <trkpt lat="47.66652" lon="-2.97958">
        <ele>-6</ele>
        <time>2021-08-04T12:24:28Z</time>
      </trkpt>
      <trkpt lat="47.66651" lon="-2.97956">
        <ele>-6.2</ele>
        <time>2021-08-04T12:24:29Z</time>
      </trkpt>
      <trkpt lat="47.6665" lon="-2.97954">
        <ele>-6.2</ele>
        <time>2021-08-04T12:24:30Z</time>
      </trkpt>
      <trkpt lat="47.66649" lon="-2.97952">
        <ele>-6.4</ele>
        <time>2021-08-04T12:24:31Z</time>
      </trkpt>
      <trkpt lat="47.66648" lon="-2.9795">
        <ele>-6.4</ele>
        <time>2021-08-04T12:24:32Z</time>
      </trkpt>
      <trkpt lat="47.66647" lon="-2.97948">
        <ele>-6.4</ele>
        <time>2021-08-04T12:24:33Z</time>
      </trkpt>
      <trkpt lat="47.66647" lon="-2.97946">
        <ele>-6.4</ele>
        <time>2021-08-04T12:24:34Z</time>
      </trkpt>
      <trkpt lat="47.66646" lon="-2.97945">
        <ele>-6.4</ele>
        <time>2021-08-04T12:24:35Z</time>
      </trkpt>
      <trkpt lat="47.66645" lon="-2.97943">
        <ele>-6.4</ele>
        <time>2021-08-04T12:24:36Z</time>
      </trkpt>
      <trkpt lat="47.66644" lon="-2.97941">
        <ele>-6.4</ele>
        <time>2021-08-04T12:24:37Z</time>
      </trkpt>
      <trkpt lat="47.66644" lon="-2.97939">
        <ele>-6.4</ele>
        <time>2021-08-04T12:24:38Z</time>
      </trkpt>
      <trkpt lat="47.66643" lon="-2.97938">
        <ele>-6.4</ele>
        <time>2021-08-04T12:24:39Z</time>
      </trkpt>
      <trkpt lat="47.66642" lon="-2.97936">
        <ele>-6.4</ele>
        <time>2021-08-04T12:24:40Z</time>
      </trkpt>
      <trkpt lat="47.66641" lon="-2.97934">
        <ele>-6.4</ele>
        <time>2021-08-04T12:24:41Z</time>
      </trkpt>
      <trkpt lat="47.6664" lon="-2.97932">
        <ele>-6.4</ele>
        <time>2021-08-04T12:24:42Z</time>
      </trkpt>
      <trkpt lat="47.66639" lon="-2.9793">
        <ele>-6.4</ele>
        <time>2021-08-04T12:24:43Z</time>
      </trkpt>
      <trkpt lat="47.66637" lon="-2.97927">
        <ele>-6.4</ele>
        <time>2021-08-04T12:24:44Z</time>
      </trkpt>
      <trkpt lat="47.66637" lon="-2.97925">
        <ele>-6.4</ele>
        <time>2021-08-04T12:24:45Z</time>
      </trkpt>
      <trkpt lat="47.66636" lon="-2.97922">
        <ele>-6.4</ele>
        <time>2021-08-04T12:24:46Z</time>
      </trkpt>
      <trkpt lat="47.66636" lon="-2.97919">
        <ele>-6.4</ele>
        <time>2021-08-04T12:24:47Z</time>
      </trkpt>
      <trkpt lat="47.66635" lon="-2.97917">
        <ele>-6.4</ele>
        <time>2021-08-04T12:24:48Z</time>
      </trkpt>
      <trkpt lat="47.66635" lon="-2.97915">
        <ele>-6.6</ele>
        <time>2021-08-04T12:24:49Z</time>
      </trkpt>
      <trkpt lat="47.66634" lon="-2.97913">
        <ele>-6.8</ele>
        <time>2021-08-04T12:24:50Z</time>
      </trkpt>
      <trkpt lat="47.66634" lon="-2.97911">
        <ele>-6.8</ele>
        <time>2021-08-04T12:24:51Z</time>
      </trkpt>
      <trkpt lat="47.66633" lon="-2.97909">
        <ele>-7</ele>
        <time>2021-08-04T12:24:52Z</time>
      </trkpt>
      <trkpt lat="47.66632" lon="-2.97907">
        <ele>-7</ele>
        <time>2021-08-04T12:24:53Z</time>
      </trkpt>
      <trkpt lat="47.66631" lon="-2.97905">
        <ele>-7</ele>
        <time>2021-08-04T12:24:54Z</time>
      </trkpt>
      <trkpt lat="47.66629" lon="-2.97904">
        <ele>-7</ele>
        <time>2021-08-04T12:24:55Z</time>
      </trkpt>
      <trkpt lat="47.66628" lon="-2.97902">
        <ele>-7.2</ele>
        <time>2021-08-04T12:24:56Z</time>
      </trkpt>
      <trkpt lat="47.66626" lon="-2.979">
        <ele>-7.2</ele>
        <time>2021-08-04T12:24:57Z</time>
      </trkpt>
      <trkpt lat="47.66625" lon="-2.97897">
        <ele>-7.2</ele>
        <time>2021-08-04T12:24:58Z</time>
      </trkpt>
      <trkpt lat="47.66624" lon="-2.97895">
        <ele>-7.2</ele>
        <time>2021-08-04T12:24:59Z</time>
      </trkpt>
      <trkpt lat="47.66623" lon="-2.97893">
        <ele>-7.2</ele>
        <time>2021-08-04T12:25:00Z</time>
      </trkpt>
      <trkpt lat="47.66622" lon="-2.97891">
        <ele>-7.2</ele>
        <time>2021-08-04T12:25:01Z</time>
      </trkpt>
      <trkpt lat="47.6662" lon="-2.97889">
        <ele>-7.2</ele>
        <time>2021-08-04T12:25:02Z</time>
      </trkpt>
      <trkpt lat="47.66618" lon="-2.97887">
        <ele>-7.2</ele>
        <time>2021-08-04T12:25:03Z</time>
      </trkpt>
      <trkpt lat="47.66617" lon="-2.97885">
        <ele>-7.2</ele>
        <time>2021-08-04T12:25:04Z</time>
      </trkpt>
      <trkpt lat="47.66615" lon="-2.97884">
        <ele>-7.4</ele>
        <time>2021-08-04T12:25:05Z</time>
      </trkpt>
      <trkpt lat="47.66614" lon="-2.97883">
        <ele>-7.6</ele>
        <time>2021-08-04T12:25:06Z</time>
      </trkpt>
      <trkpt lat="47.66612" lon="-2.97882">
        <ele>-7.8</ele>
        <time>2021-08-04T12:25:07Z</time>
      </trkpt>
      <trkpt lat="47.66611" lon="-2.97882">
        <ele>-8</ele>
        <time>2021-08-04T12:25:08Z</time>
      </trkpt>
      <trkpt lat="47.6661" lon="-2.97882">
        <ele>-8</ele>
        <time>2021-08-04T12:25:09Z</time>
      </trkpt>
      <trkpt lat="47.66609" lon="-2.97882">
        <ele>-8</ele>
        <time>2021-08-04T12:25:10Z</time>
      </trkpt>
      <trkpt lat="47.66608" lon="-2.97882">
        <ele>-8</ele>
        <time>2021-08-04T12:25:11Z</time>
      </trkpt>
      <trkpt lat="47.66607" lon="-2.97882">
        <ele>-8</ele>
        <time>2021-08-04T12:25:12Z</time>
      </trkpt>
      <trkpt lat="47.66606" lon="-2.97883">
        <ele>-8</ele>
        <time>2021-08-04T12:25:13Z</time>
      </trkpt>
      <trkpt lat="47.66605" lon="-2.97882">
        <ele>-8.2</ele>
        <time>2021-08-04T12:25:14Z</time>
      </trkpt>
      <trkpt lat="47.66605" lon="-2.97882">
        <ele>-8.2</ele>
        <time>2021-08-04T12:25:15Z</time>
      </trkpt>
      <trkpt lat="47.66605" lon="-2.97882">
        <ele>-8.2</ele>
        <time>2021-08-04T12:25:16Z</time>
      </trkpt>
      <trkpt lat="47.66604" lon="-2.97882">
        <ele>-8.2</ele>
        <time>2021-08-04T12:25:17Z</time>
      </trkpt>
      <trkpt lat="47.66582" lon="-2.97892">
        <ele>-8.2</ele>
        <time>2021-08-04T12:25:40Z</time>
      </trkpt>
      <trkpt lat="47.66581" lon="-2.97893">
        <ele>-8.2</ele>
        <time>2021-08-04T12:25:41Z</time>
      </trkpt>
      <trkpt lat="47.6658" lon="-2.97895">
        <ele>-8.2</ele>
        <time>2021-08-04T12:25:42Z</time>
      </trkpt>
      <trkpt lat="47.66579" lon="-2.97897">
        <ele>-8.2</ele>
        <time>2021-08-04T12:25:43Z</time>
      </trkpt>
      <trkpt lat="47.66578" lon="-2.97899">
        <ele>-8.2</ele>
        <time>2021-08-04T12:25:44Z</time>
      </trkpt>
      <trkpt lat="47.66576" lon="-2.979">
        <ele>-8.2</ele>
        <time>2021-08-04T12:25:45Z</time>
      </trkpt>
      <trkpt lat="47.66574" lon="-2.97902">
        <ele>-8</ele>
        <time>2021-08-04T12:25:46Z</time>
      </trkpt>
      <trkpt lat="47.66572" lon="-2.97903">
        <ele>-8</ele>
        <time>2021-08-04T12:25:47Z</time>
      </trkpt>
      <trkpt lat="47.66569" lon="-2.97903">
        <ele>-8</ele>
        <time>2021-08-04T12:25:48Z</time>
      </trkpt>
      <trkpt lat="47.66566" lon="-2.97901">
        <ele>-7.8</ele>
        <time>2021-08-04T12:25:49Z</time>
      </trkpt>
      <trkpt lat="47.66564" lon="-2.979">
        <ele>-7.8</ele>
        <time>2021-08-04T12:25:50Z</time>
      </trkpt>
      <trkpt lat="47.66561" lon="-2.97899">
        <ele>-7.8</ele>
        <time>2021-08-04T12:25:51Z</time>
      </trkpt>
      <trkpt lat="47.66559" lon="-2.97897">
        <ele>-7.8</ele>
        <time>2021-08-04T12:25:52Z</time>
      </trkpt>
      <trkpt lat="47.66556" lon="-2.97897">
        <ele>-7.8</ele>
        <time>2021-08-04T12:25:53Z</time>
      </trkpt>
      <trkpt lat="47.66553" lon="-2.97897">
        <ele>-7.8</ele>
        <time>2021-08-04T12:25:54Z</time>
      </trkpt>
      <trkpt lat="47.66551" lon="-2.97896">
        <ele>-7.8</ele>
        <time>2021-08-04T12:25:55Z</time>
      </trkpt>
      <trkpt lat="47.66548" lon="-2.97896">
        <ele>-7.6</ele>
        <time>2021-08-04T12:25:56Z</time>
      </trkpt>
      <trkpt lat="47.66546" lon="-2.97895">
        <ele>-7.6</ele>
        <time>2021-08-04T12:25:57Z</time>
      </trkpt>
      <trkpt lat="47.66543" lon="-2.97895">
        <ele>-7.6</ele>
        <time>2021-08-04T12:25:58Z</time>
      </trkpt>
      <trkpt lat="47.6654" lon="-2.97895">
        <ele>-7.6</ele>
        <time>2021-08-04T12:25:59Z</time>
      </trkpt>
      <trkpt lat="47.66538" lon="-2.97895">
        <ele>-7.6</ele>
        <time>2021-08-04T12:26:00Z</time>
      </trkpt>
      <trkpt lat="47.66535" lon="-2.97894">
        <ele>-7.6</ele>
        <time>2021-08-04T12:26:01Z</time>
      </trkpt>
      <trkpt lat="47.66532" lon="-2.97893">
        <ele>-7.6</ele>
        <time>2021-08-04T12:26:02Z</time>
      </trkpt>
      <trkpt lat="47.66529" lon="-2.97891">
        <ele>-7.6</ele>
        <time>2021-08-04T12:26:03Z</time>
      </trkpt>
      <trkpt lat="47.66527" lon="-2.97889">
        <ele>-7.6</ele>
        <time>2021-08-04T12:26:04Z</time>
      </trkpt>
      <trkpt lat="47.66525" lon="-2.97888">
        <ele>-7.4</ele>
        <time>2021-08-04T12:26:05Z</time>
      </trkpt>
      <trkpt lat="47.66524" lon="-2.97887">
        <ele>-7.4</ele>
        <time>2021-08-04T12:26:06Z</time>
      </trkpt>
      <trkpt lat="47.66523" lon="-2.97885">
        <ele>-7.4</ele>
        <time>2021-08-04T12:26:07Z</time>
      </trkpt>
      <trkpt lat="47.66521" lon="-2.97884">
        <ele>-7.4</ele>
        <time>2021-08-04T12:26:08Z</time>
      </trkpt>
      <trkpt lat="47.6652" lon="-2.97884">
        <ele>-7.4</ele>
        <time>2021-08-04T12:26:09Z</time>
      </trkpt>
      <trkpt lat="47.66518" lon="-2.97883">
        <ele>-7.4</ele>
        <time>2021-08-04T12:26:10Z</time>
      </trkpt>
      <trkpt lat="47.66516" lon="-2.97881">
        <ele>-7.2</ele>
        <time>2021-08-04T12:26:11Z</time>
      </trkpt>
      <trkpt lat="47.66514" lon="-2.97879">
        <ele>-7.2</ele>
        <time>2021-08-04T12:26:12Z</time>
      </trkpt>
      <trkpt lat="47.66512" lon="-2.97877">
        <ele>-7.2</ele>
        <time>2021-08-04T12:26:13Z</time>
      </trkpt>
      <trkpt lat="47.6651" lon="-2.97875">
        <ele>-7.2</ele>
        <time>2021-08-04T12:26:14Z</time>
      </trkpt>
      <trkpt lat="47.66507" lon="-2.97874">
        <ele>-7.2</ele>
        <time>2021-08-04T12:26:15Z</time>
      </trkpt>
      <trkpt lat="47.66505" lon="-2.97872">
        <ele>-7.2</ele>
        <time>2021-08-04T12:26:16Z</time>
      </trkpt>
      <trkpt lat="47.66503" lon="-2.9787">
        <ele>-7.2</ele>
        <time>2021-08-04T12:26:17Z</time>
      </trkpt>
      <trkpt lat="47.665" lon="-2.97869">
        <ele>-7.2</ele>
        <time>2021-08-04T12:26:18Z</time>
      </trkpt>
      <trkpt lat="47.66498" lon="-2.97867">
        <ele>-7.2</ele>
        <time>2021-08-04T12:26:19Z</time>
      </trkpt>
      <trkpt lat="47.66495" lon="-2.97865">
        <ele>-7.4</ele>
        <time>2021-08-04T12:26:20Z</time>
      </trkpt>
      <trkpt lat="47.66493" lon="-2.97863">
        <ele>-7.4</ele>
        <time>2021-08-04T12:26:21Z</time>
      </trkpt>
      <trkpt lat="47.66491" lon="-2.9786">
        <ele>-7.4</ele>
        <time>2021-08-04T12:26:22Z</time>
      </trkpt>
      <trkpt lat="47.66489" lon="-2.97858">
        <ele>-7.4</ele>
        <time>2021-08-04T12:26:23Z</time>
      </trkpt>
      <trkpt lat="47.66487" lon="-2.97856">
        <ele>-7.6</ele>
        <time>2021-08-04T12:26:24Z</time>
      </trkpt>
      <trkpt lat="47.66485" lon="-2.97854">
        <ele>-7.6</ele>
        <time>2021-08-04T12:26:25Z</time>
      </trkpt>
      <trkpt lat="47.66483" lon="-2.97851">
        <ele>-7.6</ele>
        <time>2021-08-04T12:26:26Z</time>
      </trkpt>
      <trkpt lat="47.66481" lon="-2.97848">
        <ele>-7.6</ele>
        <time>2021-08-04T12:26:27Z</time>
      </trkpt>
      <trkpt lat="47.66479" lon="-2.97845">
        <ele>-7.6</ele>
        <time>2021-08-04T12:26:28Z</time>
      </trkpt>
      <trkpt lat="47.66477" lon="-2.97843">
        <ele>-7.6</ele>
        <time>2021-08-04T12:26:29Z</time>
      </trkpt>
      <trkpt lat="47.66475" lon="-2.9784">
        <ele>-7.6</ele>
        <time>2021-08-04T12:26:30Z</time>
      </trkpt>
      <trkpt lat="47.66473" lon="-2.97839">
        <ele>-7.8</ele>
        <time>2021-08-04T12:26:31Z</time>
      </trkpt>
      <trkpt lat="47.6647" lon="-2.97837">
        <ele>-7.8</ele>
        <time>2021-08-04T12:26:32Z</time>
      </trkpt>
      <trkpt lat="47.66468" lon="-2.97834">
        <ele>-7.8</ele>
        <time>2021-08-04T12:26:33Z</time>
      </trkpt>
      <trkpt lat="47.66467" lon="-2.97832">
        <ele>-7.8</ele>
        <time>2021-08-04T12:26:34Z</time>
      </trkpt>
      <trkpt lat="47.66465" lon="-2.9783">
        <ele>-7.8</ele>
        <time>2021-08-04T12:26:35Z</time>
      </trkpt>
      <trkpt lat="47.66463" lon="-2.97828">
        <ele>-7.8</ele>
        <time>2021-08-04T12:26:36Z</time>
      </trkpt>
      <trkpt lat="47.66461" lon="-2.97826">
        <ele>-7.8</ele>
        <time>2021-08-04T12:26:37Z</time>
      </trkpt>
      <trkpt lat="47.66459" lon="-2.97824">
        <ele>-7.8</ele>
        <time>2021-08-04T12:26:38Z</time>
      </trkpt>
      <trkpt lat="47.66457" lon="-2.97821">
        <ele>-7.8</ele>
        <time>2021-08-04T12:26:39Z</time>
      </trkpt>
      <trkpt lat="47.66455" lon="-2.97819">
        <ele>-7.8</ele>
        <time>2021-08-04T12:26:40Z</time>
      </trkpt>
      <trkpt lat="47.66452" lon="-2.97817">
        <ele>-7.8</ele>
        <time>2021-08-04T12:26:41Z</time>
      </trkpt>
      <trkpt lat="47.6645" lon="-2.97814">
        <ele>-7.8</ele>
        <time>2021-08-04T12:26:42Z</time>
      </trkpt>
      <trkpt lat="47.66448" lon="-2.97811">
        <ele>-7.8</ele>
        <time>2021-08-04T12:26:43Z</time>
      </trkpt>
      <trkpt lat="47.66446" lon="-2.97807">
        <ele>-7.8</ele>
        <time>2021-08-04T12:26:44Z</time>
      </trkpt>
      <trkpt lat="47.66445" lon="-2.97803">
        <ele>-7.8</ele>
        <time>2021-08-04T12:26:45Z</time>
      </trkpt>
      <trkpt lat="47.66444" lon="-2.978">
        <ele>-7.8</ele>
        <time>2021-08-04T12:26:46Z</time>
      </trkpt>
      <trkpt lat="47.66443" lon="-2.97796">
        <ele>-7.8</ele>
        <time>2021-08-04T12:26:47Z</time>
      </trkpt>
      <trkpt lat="47.66441" lon="-2.97792">
        <ele>-7.8</ele>
        <time>2021-08-04T12:26:48Z</time>
      </trkpt>
      <trkpt lat="47.6644" lon="-2.97789">
        <ele>-7.8</ele>
        <time>2021-08-04T12:26:49Z</time>
      </trkpt>
      <trkpt lat="47.66439" lon="-2.97786">
        <ele>-7.8</ele>
        <time>2021-08-04T12:26:50Z</time>
      </trkpt>
      <trkpt lat="47.66438" lon="-2.97784">
        <ele>-7.8</ele>
        <time>2021-08-04T12:26:51Z</time>
      </trkpt>
      <trkpt lat="47.66436" lon="-2.97782">
        <ele>-7.8</ele>
        <time>2021-08-04T12:26:52Z</time>
      </trkpt>
      <trkpt lat="47.66434" lon="-2.9778">
        <ele>-7.8</ele>
        <time>2021-08-04T12:26:53Z</time>
      </trkpt>
      <trkpt lat="47.66433" lon="-2.97777">
        <ele>-7.8</ele>
        <time>2021-08-04T12:26:54Z</time>
      </trkpt>
      <trkpt lat="47.66432" lon="-2.97775">
        <ele>-7.8</ele>
        <time>2021-08-04T12:26:55Z</time>
      </trkpt>
      <trkpt lat="47.66431" lon="-2.97772">
        <ele>-7.6</ele>
        <time>2021-08-04T12:26:56Z</time>
      </trkpt>
      <trkpt lat="47.66429" lon="-2.9777">
        <ele>-7.6</ele>
        <time>2021-08-04T12:26:57Z</time>
      </trkpt>
      <trkpt lat="47.66428" lon="-2.97768">
        <ele>-7.6</ele>
        <time>2021-08-04T12:26:58Z</time>
      </trkpt>
      <trkpt lat="47.66426" lon="-2.97765">
        <ele>-7.6</ele>
        <time>2021-08-04T12:26:59Z</time>
      </trkpt>
      <trkpt lat="47.66425" lon="-2.97763">
        <ele>-7.6</ele>
        <time>2021-08-04T12:27:00Z</time>
      </trkpt>
      <trkpt lat="47.66424" lon="-2.97762">
        <ele>-7.4</ele>
        <time>2021-08-04T12:27:01Z</time>
      </trkpt>
      <trkpt lat="47.66424" lon="-2.97762">
        <ele>-7.4</ele>
        <time>2021-08-04T12:27:02Z</time>
      </trkpt>
      <trkpt lat="47.66421" lon="-2.97757">
        <ele>-7.2</ele>
        <time>2021-08-04T12:29:54Z</time>
      </trkpt>
      <trkpt lat="47.6642" lon="-2.97755">
        <ele>-7.2</ele>
        <time>2021-08-04T12:29:55Z</time>
      </trkpt>
      <trkpt lat="47.66418" lon="-2.97752">
        <ele>-7.2</ele>
        <time>2021-08-04T12:29:56Z</time>
      </trkpt>
      <trkpt lat="47.66416" lon="-2.9775">
        <ele>-7.2</ele>
        <time>2021-08-04T12:29:57Z</time>
      </trkpt>
      <trkpt lat="47.66414" lon="-2.97746">
        <ele>-7.2</ele>
        <time>2021-08-04T12:29:58Z</time>
      </trkpt>
      <trkpt lat="47.66412" lon="-2.97743">
        <ele>-7.2</ele>
        <time>2021-08-04T12:29:59Z</time>
      </trkpt>
      <trkpt lat="47.66409" lon="-2.97739">
        <ele>-7.2</ele>
        <time>2021-08-04T12:30:00Z</time>
      </trkpt>
      <trkpt lat="47.66407" lon="-2.97735">
        <ele>-7.2</ele>
        <time>2021-08-04T12:30:01Z</time>
      </trkpt>
      <trkpt lat="47.66405" lon="-2.97731">
        <ele>-7.2</ele>
        <time>2021-08-04T12:30:02Z</time>
      </trkpt>
      <trkpt lat="47.66404" lon="-2.97727">
        <ele>-7.4</ele>
        <time>2021-08-04T12:30:03Z</time>
      </trkpt>
      <trkpt lat="47.66402" lon="-2.97722">
        <ele>-7.4</ele>
        <time>2021-08-04T12:30:04Z</time>
      </trkpt>
      <trkpt lat="47.66401" lon="-2.97718">
        <ele>-7.4</ele>
        <time>2021-08-04T12:30:05Z</time>
      </trkpt>
      <trkpt lat="47.66402" lon="-2.97713">
        <ele>-7.4</ele>
        <time>2021-08-04T12:30:06Z</time>
      </trkpt>
      <trkpt lat="47.66404" lon="-2.9771">
        <ele>-7.4</ele>
        <time>2021-08-04T12:30:07Z</time>
      </trkpt>
      <trkpt lat="47.66407" lon="-2.97708">
        <ele>-7.4</ele>
        <time>2021-08-04T12:30:08Z</time>
      </trkpt>
      <trkpt lat="47.66409" lon="-2.97706">
        <ele>-7.4</ele>
        <time>2021-08-04T12:30:09Z</time>
      </trkpt>
      <trkpt lat="47.66411" lon="-2.97704">
        <ele>-7.6</ele>
        <time>2021-08-04T12:30:10Z</time>
      </trkpt>
      <trkpt lat="47.66413" lon="-2.97702">
        <ele>-7.6</ele>
        <time>2021-08-04T12:30:11Z</time>
      </trkpt>
      <trkpt lat="47.66415" lon="-2.97702">
        <ele>-7.6</ele>
        <time>2021-08-04T12:30:12Z</time>
      </trkpt>
      <trkpt lat="47.66417" lon="-2.97701">
        <ele>-7.6</ele>
        <time>2021-08-04T12:30:13Z</time>
      </trkpt>
      <trkpt lat="47.66419" lon="-2.977">
        <ele>-7.6</ele>
        <time>2021-08-04T12:30:14Z</time>
      </trkpt>
      <trkpt lat="47.6642" lon="-2.97698">
        <ele>-7.4</ele>
        <time>2021-08-04T12:30:15Z</time>
      </trkpt>
      <trkpt lat="47.66421" lon="-2.97697">
        <ele>-7.4</ele>
        <time>2021-08-04T12:30:16Z</time>
      </trkpt>
      <trkpt lat="47.66423" lon="-2.97697">
        <ele>-7.2</ele>
        <time>2021-08-04T12:30:17Z</time>
      </trkpt>
      <trkpt lat="47.66424" lon="-2.97697">
        <ele>-7.2</ele>
        <time>2021-08-04T12:30:18Z</time>
      </trkpt>
      <trkpt lat="47.66425" lon="-2.97696">
        <ele>-7</ele>
        <time>2021-08-04T12:30:19Z</time>
      </trkpt>
      <trkpt lat="47.66426" lon="-2.97695">
        <ele>-6.8</ele>
        <time>2021-08-04T12:30:20Z</time>
      </trkpt>
      <trkpt lat="47.66427" lon="-2.97693">
        <ele>-6.6</ele>
        <time>2021-08-04T12:30:21Z</time>
      </trkpt>
      <trkpt lat="47.66428" lon="-2.97692">
        <ele>-6.6</ele>
        <time>2021-08-04T12:30:22Z</time>
      </trkpt>
      <trkpt lat="47.66428" lon="-2.9769">
        <ele>-6.6</ele>
        <time>2021-08-04T12:30:23Z</time>
      </trkpt>
      <trkpt lat="47.66429" lon="-2.97689">
        <ele>-6.4</ele>
        <time>2021-08-04T12:30:24Z</time>
      </trkpt>
      <trkpt lat="47.6643" lon="-2.97687">
        <ele>-6.4</ele>
        <time>2021-08-04T12:30:25Z</time>
      </trkpt>
      <trkpt lat="47.66431" lon="-2.97686">
        <ele>-6</ele>
        <time>2021-08-04T12:30:26Z</time>
      </trkpt>
      <trkpt lat="47.66432" lon="-2.97685">
        <ele>-6.2</ele>
        <time>2021-08-04T12:30:27Z</time>
      </trkpt>
      <trkpt lat="47.66434" lon="-2.97684">
        <ele>-6</ele>
        <time>2021-08-04T12:30:28Z</time>
      </trkpt>
      <trkpt lat="47.66435" lon="-2.97683">
        <ele>-5.8</ele>
        <time>2021-08-04T12:30:29Z</time>
      </trkpt>
      <trkpt lat="47.66436" lon="-2.97682">
        <ele>-5.6</ele>
        <time>2021-08-04T12:30:30Z</time>
      </trkpt>
      <trkpt lat="47.66437" lon="-2.9768">
        <ele>-5.4</ele>
        <time>2021-08-04T12:30:31Z</time>
      </trkpt>
      <trkpt lat="47.66438" lon="-2.97679">
        <ele>-5.2</ele>
        <time>2021-08-04T12:30:32Z</time>
      </trkpt>
      <trkpt lat="47.66439" lon="-2.97678">
        <ele>-5.2</ele>
        <time>2021-08-04T12:30:33Z</time>
      </trkpt>
      <trkpt lat="47.6644" lon="-2.97677">
        <ele>-5</ele>
        <time>2021-08-04T12:30:34Z</time>
      </trkpt>
      <trkpt lat="47.66441" lon="-2.97676">
        <ele>-4.8</ele>
        <time>2021-08-04T12:30:35Z</time>
      </trkpt>
      <trkpt lat="47.66443" lon="-2.97675">
        <ele>-4.6</ele>
        <time>2021-08-04T12:30:36Z</time>
      </trkpt>
      <trkpt lat="47.66444" lon="-2.97674">
        <ele>-4.4</ele>
        <time>2021-08-04T12:30:37Z</time>
      </trkpt>
      <trkpt lat="47.66444" lon="-2.97672">
        <ele>-4.4</ele>
        <time>2021-08-04T12:30:38Z</time>
      </trkpt>
      <trkpt lat="47.66445" lon="-2.97671">
        <ele>-4.2</ele>
        <time>2021-08-04T12:30:39Z</time>
      </trkpt>
      <trkpt lat="47.66446" lon="-2.97669">
        <ele>-4.2</ele>
        <time>2021-08-04T12:30:40Z</time>
      </trkpt>
      <trkpt lat="47.66447" lon="-2.97668">
        <ele>-4</ele>
        <time>2021-08-04T12:30:41Z</time>
      </trkpt>
      <trkpt lat="47.66448" lon="-2.97667">
        <ele>-4</ele>
        <time>2021-08-04T12:30:42Z</time>
      </trkpt>
      <trkpt lat="47.66449" lon="-2.97666">
        <ele>-3.8</ele>
        <time>2021-08-04T12:30:43Z</time>
      </trkpt>
      <trkpt lat="47.6645" lon="-2.97665">
        <ele>-3.8</ele>
        <time>2021-08-04T12:30:44Z</time>
      </trkpt>
      <trkpt lat="47.66451" lon="-2.97663">
        <ele>-3.6</ele>
        <time>2021-08-04T12:30:45Z</time>
      </trkpt>
      <trkpt lat="47.66451" lon="-2.97661">
        <ele>-3.2</ele>
        <time>2021-08-04T12:30:46Z</time>
      </trkpt>
      <trkpt lat="47.66452" lon="-2.9766">
        <ele>-2.8</ele>
        <time>2021-08-04T12:30:47Z</time>
      </trkpt>
      <trkpt lat="47.66453" lon="-2.97658">
        <ele>-2.4</ele>
        <time>2021-08-04T12:30:48Z</time>
      </trkpt>
      <trkpt lat="47.66453" lon="-2.97657">
        <ele>-2.2</ele>
        <time>2021-08-04T12:30:49Z</time>
      </trkpt>
      <trkpt lat="47.66454" lon="-2.97655">
        <ele>-2.2</ele>
        <time>2021-08-04T12:30:50Z</time>
      </trkpt>
      <trkpt lat="47.66455" lon="-2.97653">
        <ele>-2</ele>
        <time>2021-08-04T12:30:51Z</time>
      </trkpt>
      <trkpt lat="47.66456" lon="-2.97652">
        <ele>-2</ele>
        <time>2021-08-04T12:30:52Z</time>
      </trkpt>
      <trkpt lat="47.66457" lon="-2.9765">
        <ele>-1.8</ele>
        <time>2021-08-04T12:30:53Z</time>
      </trkpt>
      <trkpt lat="47.66457" lon="-2.97648">
        <ele>-1.6</ele>
        <time>2021-08-04T12:30:54Z</time>
      </trkpt>
      <trkpt lat="47.66458" lon="-2.97647">
        <ele>-1.2</ele>
        <time>2021-08-04T12:30:55Z</time>
      </trkpt>
      <trkpt lat="47.66458" lon="-2.97645">
        <ele>-1</ele>
        <time>2021-08-04T12:30:56Z</time>
      </trkpt>
      <trkpt lat="47.66459" lon="-2.97643">
        <ele>-0.8</ele>
        <time>2021-08-04T12:30:57Z</time>
      </trkpt>
      <trkpt lat="47.6646" lon="-2.97641">
        <ele>-0.6</ele>
        <time>2021-08-04T12:30:58Z</time>
      </trkpt>
      <trkpt lat="47.66461" lon="-2.9764">
        <ele>-0.4</ele>
        <time>2021-08-04T12:30:59Z</time>
      </trkpt>
      <trkpt lat="47.66461" lon="-2.97638">
        <ele>-0.4</ele>
        <time>2021-08-04T12:31:00Z</time>
      </trkpt>
      <trkpt lat="47.66462" lon="-2.97636">
        <ele>0.4</ele>
        <time>2021-08-04T12:31:01Z</time>
      </trkpt>
      <trkpt lat="47.66463" lon="-2.97635">
        <ele>0.8</ele>
        <time>2021-08-04T12:31:02Z</time>
      </trkpt>
      <trkpt lat="47.66464" lon="-2.97633">
        <ele>1.2</ele>
        <time>2021-08-04T12:31:03Z</time>
      </trkpt>
      <trkpt lat="47.66465" lon="-2.97631">
        <ele>1.6</ele>
        <time>2021-08-04T12:31:04Z</time>
      </trkpt>
      <trkpt lat="47.66465" lon="-2.97629">
        <ele>2</ele>
        <time>2021-08-04T12:31:05Z</time>
      </trkpt>
      <trkpt lat="47.66466" lon="-2.97628">
        <ele>2.2</ele>
        <time>2021-08-04T12:31:06Z</time>
      </trkpt>
      <trkpt lat="47.66466" lon="-2.97626">
        <ele>2.6</ele>
        <time>2021-08-04T12:31:07Z</time>
      </trkpt>
      <trkpt lat="47.66466" lon="-2.97624">
        <ele>2.8</ele>
        <time>2021-08-04T12:31:08Z</time>
      </trkpt>
      <trkpt lat="47.66466" lon="-2.97622">
        <ele>2.8</ele>
        <time>2021-08-04T12:31:09Z</time>
      </trkpt>
      <trkpt lat="47.66467" lon="-2.97621">
        <ele>3</ele>
        <time>2021-08-04T12:31:10Z</time>
      </trkpt>
      <trkpt lat="47.66468" lon="-2.97619">
        <ele>3.2</ele>
        <time>2021-08-04T12:31:11Z</time>
      </trkpt>
      <trkpt lat="47.66469" lon="-2.97618">
        <ele>3.4</ele>
        <time>2021-08-04T12:31:12Z</time>
      </trkpt>
      <trkpt lat="47.6647" lon="-2.97616">
        <ele>3.6</ele>
        <time>2021-08-04T12:31:13Z</time>
      </trkpt>
      <trkpt lat="47.66472" lon="-2.97615">
        <ele>3.8</ele>
        <time>2021-08-04T12:31:14Z</time>
      </trkpt>
      <trkpt lat="47.66472" lon="-2.97613">
        <ele>4</ele>
        <time>2021-08-04T12:31:15Z</time>
      </trkpt>
      <trkpt lat="47.66473" lon="-2.97611">
        <ele>4.2</ele>
        <time>2021-08-04T12:31:16Z</time>
      </trkpt>
      <trkpt lat="47.66474" lon="-2.97609">
        <ele>4.2</ele>
        <time>2021-08-04T12:31:17Z</time>
      </trkpt>
      <trkpt lat="47.66475" lon="-2.97607">
        <ele>4.4</ele>
        <time>2021-08-04T12:31:18Z</time>
      </trkpt>
      <trkpt lat="47.66476" lon="-2.97605">
        <ele>4.6</ele>
        <time>2021-08-04T12:31:19Z</time>
      </trkpt>
      <trkpt lat="47.66477" lon="-2.97603">
        <ele>4.6</ele>
        <time>2021-08-04T12:31:20Z</time>
      </trkpt>
      <trkpt lat="47.66478" lon="-2.97602">
        <ele>4.8</ele>
        <time>2021-08-04T12:31:21Z</time>
      </trkpt>
      <trkpt lat="47.66479" lon="-2.976">
        <ele>4.8</ele>
        <time>2021-08-04T12:31:22Z</time>
      </trkpt>
      <trkpt lat="47.6648" lon="-2.97598">
        <ele>5</ele>
        <time>2021-08-04T12:31:23Z</time>
      </trkpt>
      <trkpt lat="47.66481" lon="-2.97596">
        <ele>5.2</ele>
        <time>2021-08-04T12:31:24Z</time>
      </trkpt>
      <trkpt lat="47.66482" lon="-2.97595">
        <ele>5.2</ele>
        <time>2021-08-04T12:31:25Z</time>
      </trkpt>
      <trkpt lat="47.66483" lon="-2.97594">
        <ele>5.4</ele>
        <time>2021-08-04T12:31:26Z</time>
      </trkpt>
      <trkpt lat="47.66484" lon="-2.97592">
        <ele>5.4</ele>
        <time>2021-08-04T12:31:27Z</time>
      </trkpt>
      <trkpt lat="47.66485" lon="-2.97591">
        <ele>5.6</ele>
        <time>2021-08-04T12:31:28Z</time>
      </trkpt>
      <trkpt lat="47.66486" lon="-2.97589">
        <ele>5.8</ele>
        <time>2021-08-04T12:31:29Z</time>
      </trkpt>
      <trkpt lat="47.66487" lon="-2.97587">
        <ele>5.8</ele>
        <time>2021-08-04T12:31:30Z</time>
      </trkpt>
      <trkpt lat="47.66487" lon="-2.97585">
        <ele>6</ele>
        <time>2021-08-04T12:31:31Z</time>
      </trkpt>
      <trkpt lat="47.66488" lon="-2.97583">
        <ele>6</ele>
        <time>2021-08-04T12:31:32Z</time>
      </trkpt>
      <trkpt lat="47.66489" lon="-2.97581">
        <ele>6.4</ele>
        <time>2021-08-04T12:31:33Z</time>
      </trkpt>
      <trkpt lat="47.6649" lon="-2.9758">
        <ele>6.4</ele>
        <time>2021-08-04T12:31:34Z</time>
      </trkpt>
      <trkpt lat="47.66491" lon="-2.97578">
        <ele>6.6</ele>
        <time>2021-08-04T12:31:35Z</time>
      </trkpt>
      <trkpt lat="47.66492" lon="-2.97577">
        <ele>6.6</ele>
        <time>2021-08-04T12:31:36Z</time>
      </trkpt>
      <trkpt lat="47.66492" lon="-2.97575">
        <ele>6.8</ele>
        <time>2021-08-04T12:31:37Z</time>
      </trkpt>
      <trkpt lat="47.66493" lon="-2.97574">
        <ele>6.8</ele>
        <time>2021-08-04T12:31:38Z</time>
      </trkpt>
      <trkpt lat="47.66494" lon="-2.97573">
        <ele>6.8</ele>
        <time>2021-08-04T12:31:39Z</time>
      </trkpt>
      <trkpt lat="47.66496" lon="-2.97571">
        <ele>6.8</ele>
        <time>2021-08-04T12:31:40Z</time>
      </trkpt>
      <trkpt lat="47.66497" lon="-2.9757">
        <ele>7</ele>
        <time>2021-08-04T12:31:41Z</time>
      </trkpt>
      <trkpt lat="47.66498" lon="-2.97569">
        <ele>7</ele>
        <time>2021-08-04T12:31:42Z</time>
      </trkpt>
      <trkpt lat="47.66499" lon="-2.97567">
        <ele>7</ele>
        <time>2021-08-04T12:31:43Z</time>
      </trkpt>
      <trkpt lat="47.665" lon="-2.97565">
        <ele>7</ele>
        <time>2021-08-04T12:31:44Z</time>
      </trkpt>
      <trkpt lat="47.66502" lon="-2.97564">
        <ele>7.2</ele>
        <time>2021-08-04T12:31:45Z</time>
      </trkpt>
      <trkpt lat="47.66502" lon="-2.97562">
        <ele>7.2</ele>
        <time>2021-08-04T12:31:46Z</time>
      </trkpt>
      <trkpt lat="47.66503" lon="-2.97559">
        <ele>7.4</ele>
        <time>2021-08-04T12:31:47Z</time>
      </trkpt>
      <trkpt lat="47.66504" lon="-2.97558">
        <ele>7.4</ele>
        <time>2021-08-04T12:31:48Z</time>
      </trkpt>
      <trkpt lat="47.66505" lon="-2.97556">
        <ele>7.4</ele>
        <time>2021-08-04T12:31:49Z</time>
      </trkpt>
      <trkpt lat="47.66506" lon="-2.97554">
        <ele>7.6</ele>
        <time>2021-08-04T12:31:50Z</time>
      </trkpt>
      <trkpt lat="47.66507" lon="-2.97552">
        <ele>7.6</ele>
        <time>2021-08-04T12:31:51Z</time>
      </trkpt>
      <trkpt lat="47.66508" lon="-2.97551">
        <ele>7.8</ele>
        <time>2021-08-04T12:31:52Z</time>
      </trkpt>
      <trkpt lat="47.6651" lon="-2.97549">
        <ele>7.8</ele>
        <time>2021-08-04T12:31:53Z</time>
      </trkpt>
      <trkpt lat="47.66511" lon="-2.97548">
        <ele>8</ele>
        <time>2021-08-04T12:31:54Z</time>
      </trkpt>
      <trkpt lat="47.66512" lon="-2.97546">
        <ele>8.2</ele>
        <time>2021-08-04T12:31:55Z</time>
      </trkpt>
      <trkpt lat="47.66514" lon="-2.97544">
        <ele>8.2</ele>
        <time>2021-08-04T12:31:56Z</time>
      </trkpt>
      <trkpt lat="47.66515" lon="-2.97542">
        <ele>8.4</ele>
        <time>2021-08-04T12:31:57Z</time>
      </trkpt>
      <trkpt lat="47.66517" lon="-2.9754">
        <ele>8.4</ele>
        <time>2021-08-04T12:31:58Z</time>
      </trkpt>
      <trkpt lat="47.66518" lon="-2.97538">
        <ele>8.4</ele>
        <time>2021-08-04T12:31:59Z</time>
      </trkpt>
      <trkpt lat="47.6652" lon="-2.97535">
        <ele>8.6</ele>
        <time>2021-08-04T12:32:00Z</time>
      </trkpt>
      <trkpt lat="47.66521" lon="-2.97533">
        <ele>8.4</ele>
        <time>2021-08-04T12:32:01Z</time>
      </trkpt>
      <trkpt lat="47.66522" lon="-2.9753">
        <ele>8.4</ele>
        <time>2021-08-04T12:32:02Z</time>
      </trkpt>
      <trkpt lat="47.66524" lon="-2.97527">
        <ele>8.4</ele>
        <time>2021-08-04T12:32:03Z</time>
      </trkpt>
      <trkpt lat="47.66526" lon="-2.97524">
        <ele>8.6</ele>
        <time>2021-08-04T12:32:04Z</time>
      </trkpt>
      <trkpt lat="47.66528" lon="-2.97521">
        <ele>8.6</ele>
        <time>2021-08-04T12:32:05Z</time>
      </trkpt>
      <trkpt lat="47.6653" lon="-2.97518">
        <ele>8.4</ele>
        <time>2021-08-04T12:32:06Z</time>
      </trkpt>
      <trkpt lat="47.66532" lon="-2.97515">
        <ele>8.4</ele>
        <time>2021-08-04T12:32:07Z</time>
      </trkpt>
      <trkpt lat="47.66534" lon="-2.97512">
        <ele>8.4</ele>
        <time>2021-08-04T12:32:08Z</time>
      </trkpt>
      <trkpt lat="47.66536" lon="-2.97509">
        <ele>8.4</ele>
        <time>2021-08-04T12:32:09Z</time>
      </trkpt>
      <trkpt lat="47.66538" lon="-2.97505">
        <ele>8.2</ele>
        <time>2021-08-04T12:32:10Z</time>
      </trkpt>
      <trkpt lat="47.6654" lon="-2.97502">
        <ele>8</ele>
        <time>2021-08-04T12:32:11Z</time>
      </trkpt>
      <trkpt lat="47.66543" lon="-2.975">
        <ele>8</ele>
        <time>2021-08-04T12:32:12Z</time>
      </trkpt>
      <trkpt lat="47.66545" lon="-2.97498">
        <ele>7.8</ele>
        <time>2021-08-04T12:32:13Z</time>
      </trkpt>
      <trkpt lat="47.66547" lon="-2.97496">
        <ele>7.6</ele>
        <time>2021-08-04T12:32:14Z</time>
      </trkpt>
      <trkpt lat="47.66549" lon="-2.97494">
        <ele>7.4</ele>
        <time>2021-08-04T12:32:15Z</time>
      </trkpt>
      <trkpt lat="47.66551" lon="-2.97492">
        <ele>7.6</ele>
        <time>2021-08-04T12:32:16Z</time>
      </trkpt>
      <trkpt lat="47.66554" lon="-2.97489">
        <ele>7.4</ele>
        <time>2021-08-04T12:32:17Z</time>
      </trkpt>
      <trkpt lat="47.66557" lon="-2.97486">
        <ele>7</ele>
        <time>2021-08-04T12:32:18Z</time>
      </trkpt>
      <trkpt lat="47.6656" lon="-2.97483">
        <ele>7</ele>
        <time>2021-08-04T12:32:19Z</time>
      </trkpt>
      <trkpt lat="47.66563" lon="-2.9748">
        <ele>6.6</ele>
        <time>2021-08-04T12:32:20Z</time>
      </trkpt>
      <trkpt lat="47.66566" lon="-2.97477">
        <ele>6.6</ele>
        <time>2021-08-04T12:32:21Z</time>
      </trkpt>
      <trkpt lat="47.66569" lon="-2.97473">
        <ele>6.6</ele>
        <time>2021-08-04T12:32:22Z</time>
      </trkpt>
      <trkpt lat="47.66573" lon="-2.9747">
        <ele>6.2</ele>
        <time>2021-08-04T12:32:23Z</time>
      </trkpt>
      <trkpt lat="47.66578" lon="-2.97467">
        <ele>6</ele>
        <time>2021-08-04T12:32:24Z</time>
      </trkpt>
      <trkpt lat="47.66583" lon="-2.97463">
        <ele>5.6</ele>
        <time>2021-08-04T12:32:25Z</time>
      </trkpt>
      <trkpt lat="47.66588" lon="-2.9746">
        <ele>5.4</ele>
        <time>2021-08-04T12:32:26Z</time>
      </trkpt>
      <trkpt lat="47.66592" lon="-2.97457">
        <ele>5</ele>
        <time>2021-08-04T12:32:27Z</time>
      </trkpt>
      <trkpt lat="47.66597" lon="-2.97454">
        <ele>4.6</ele>
        <time>2021-08-04T12:32:28Z</time>
      </trkpt>
      <trkpt lat="47.66602" lon="-2.97451">
        <ele>4</ele>
        <time>2021-08-04T12:32:29Z</time>
      </trkpt>
      <trkpt lat="47.66607" lon="-2.97448">
        <ele>3.4</ele>
        <time>2021-08-04T12:32:30Z</time>
      </trkpt>
      <trkpt lat="47.66611" lon="-2.97446">
        <ele>2.8</ele>
        <time>2021-08-04T12:32:31Z</time>
      </trkpt>
      <trkpt lat="47.66616" lon="-2.97445">
        <ele>2</ele>
        <time>2021-08-04T12:32:32Z</time>
      </trkpt>
      <trkpt lat="47.6662" lon="-2.97444">
        <ele>0.8</ele>
        <time>2021-08-04T12:32:33Z</time>
      </trkpt>
      <trkpt lat="47.66624" lon="-2.97443">
        <ele>-0.2</ele>
        <time>2021-08-04T12:32:34Z</time>
      </trkpt>
      <trkpt lat="47.66627" lon="-2.97441">
        <ele>-1.2</ele>
        <time>2021-08-04T12:32:35Z</time>
      </trkpt>
      <trkpt lat="47.66629" lon="-2.97439">
        <ele>-2.2</ele>
        <time>2021-08-04T12:32:36Z</time>
      </trkpt>
      <trkpt lat="47.66631" lon="-2.97437">
        <ele>-3.4</ele>
        <time>2021-08-04T12:32:37Z</time>
      </trkpt>
      <trkpt lat="47.66632" lon="-2.97435">
        <ele>-4.2</ele>
        <time>2021-08-04T12:32:38Z</time>
      </trkpt>
      <trkpt lat="47.66632" lon="-2.97432">
        <ele>-5.2</ele>
        <time>2021-08-04T12:32:39Z</time>
      </trkpt>
      <trkpt lat="47.66632" lon="-2.97429">
        <ele>-5.8</ele>
        <time>2021-08-04T12:32:40Z</time>
      </trkpt>
      <trkpt lat="47.66632" lon="-2.97425">
        <ele>-6.2</ele>
        <time>2021-08-04T12:32:41Z</time>
      </trkpt>
      <trkpt lat="47.66631" lon="-2.97421">
        <ele>-6.4</ele>
        <time>2021-08-04T12:32:42Z</time>
      </trkpt>
      <trkpt lat="47.66631" lon="-2.97418">
        <ele>-6.6</ele>
        <time>2021-08-04T12:32:43Z</time>
      </trkpt>
      <trkpt lat="47.6663" lon="-2.97414">
        <ele>-6.8</ele>
        <time>2021-08-04T12:32:44Z</time>
      </trkpt>
      <trkpt lat="47.66629" lon="-2.9741">
        <ele>-6.8</ele>
        <time>2021-08-04T12:32:45Z</time>
      </trkpt>
      <trkpt lat="47.66628" lon="-2.97406">
        <ele>-6.8</ele>
        <time>2021-08-04T12:32:46Z</time>
      </trkpt>
      <trkpt lat="47.66627" lon="-2.97402">
        <ele>-7</ele>
        <time>2021-08-04T12:32:47Z</time>
      </trkpt>
      <trkpt lat="47.66626" lon="-2.97397">
        <ele>-7.2</ele>
        <time>2021-08-04T12:32:48Z</time>
      </trkpt>
      <trkpt lat="47.66625" lon="-2.97393">
        <ele>-7.2</ele>
        <time>2021-08-04T12:32:49Z</time>
      </trkpt>
      <trkpt lat="47.66624" lon="-2.97388">
        <ele>-7.2</ele>
        <time>2021-08-04T12:32:50Z</time>
      </trkpt>
      <trkpt lat="47.66623" lon="-2.97383">
        <ele>-7.2</ele>
        <time>2021-08-04T12:32:51Z</time>
      </trkpt>
      <trkpt lat="47.66623" lon="-2.97378">
        <ele>-7.2</ele>
        <time>2021-08-04T12:32:52Z</time>
      </trkpt>
      <trkpt lat="47.66622" lon="-2.97373">
        <ele>-7.2</ele>
        <time>2021-08-04T12:32:53Z</time>
      </trkpt>
      <trkpt lat="47.66621" lon="-2.97368">
        <ele>-7.2</ele>
        <time>2021-08-04T12:32:54Z</time>
      </trkpt>
      <trkpt lat="47.6662" lon="-2.97363">
        <ele>-7.2</ele>
        <time>2021-08-04T12:32:55Z</time>
      </trkpt>
      <trkpt lat="47.66619" lon="-2.97358">
        <ele>-7.4</ele>
        <time>2021-08-04T12:32:56Z</time>
      </trkpt>
      <trkpt lat="47.66618" lon="-2.97353">
        <ele>-7.4</ele>
        <time>2021-08-04T12:32:57Z</time>
      </trkpt>
      <trkpt lat="47.66618" lon="-2.97347">
        <ele>-7.4</ele>
        <time>2021-08-04T12:32:58Z</time>
      </trkpt>
      <trkpt lat="47.66617" lon="-2.97342">
        <ele>-7.4</ele>
        <time>2021-08-04T12:32:59Z</time>
      </trkpt>
      <trkpt lat="47.66616" lon="-2.97336">
        <ele>-7.4</ele>
        <time>2021-08-04T12:33:00Z</time>
      </trkpt>
      <trkpt lat="47.66615" lon="-2.97331">
        <ele>-7.6</ele>
        <time>2021-08-04T12:33:01Z</time>
      </trkpt>
      <trkpt lat="47.66614" lon="-2.97325">
        <ele>-7.6</ele>
        <time>2021-08-04T12:33:02Z</time>
      </trkpt>
      <trkpt lat="47.66613" lon="-2.9732">
        <ele>-7.6</ele>
        <time>2021-08-04T12:33:03Z</time>
      </trkpt>
      <trkpt lat="47.66612" lon="-2.97314">
        <ele>-7.6</ele>
        <time>2021-08-04T12:33:04Z</time>
      </trkpt>
      <trkpt lat="47.66612" lon="-2.97308">
        <ele>-7.6</ele>
        <time>2021-08-04T12:33:05Z</time>
      </trkpt>
      <trkpt lat="47.66611" lon="-2.97302">
        <ele>-7.6</ele>
        <time>2021-08-04T12:33:06Z</time>
      </trkpt>
      <trkpt lat="47.6661" lon="-2.97296">
        <ele>-7.6</ele>
        <time>2021-08-04T12:33:07Z</time>
      </trkpt>
      <trkpt lat="47.66609" lon="-2.9729">
        <ele>-7.6</ele>
        <time>2021-08-04T12:33:08Z</time>
      </trkpt>
      <trkpt lat="47.66608" lon="-2.97284">
        <ele>-7.4</ele>
        <time>2021-08-04T12:33:09Z</time>
      </trkpt>
      <trkpt lat="47.66607" lon="-2.97278">
        <ele>-7.4</ele>
        <time>2021-08-04T12:33:10Z</time>
      </trkpt>
      <trkpt lat="47.66605" lon="-2.97271">
        <ele>-7.4</ele>
        <time>2021-08-04T12:33:11Z</time>
      </trkpt>
      <trkpt lat="47.66604" lon="-2.97264">
        <ele>-7.4</ele>
        <time>2021-08-04T12:33:12Z</time>
      </trkpt>
      <trkpt lat="47.66603" lon="-2.97257">
        <ele>-7.4</ele>
        <time>2021-08-04T12:33:13Z</time>
      </trkpt>
      <trkpt lat="47.66602" lon="-2.9725">
        <ele>-7.4</ele>
        <time>2021-08-04T12:33:14Z</time>
      </trkpt>
      <trkpt lat="47.66601" lon="-2.97243">
        <ele>-7.4</ele>
        <time>2021-08-04T12:33:15Z</time>
      </trkpt>
      <trkpt lat="47.666" lon="-2.97235">
        <ele>-7.4</ele>
        <time>2021-08-04T12:33:16Z</time>
      </trkpt>
      <trkpt lat="47.66598" lon="-2.97228">
        <ele>-7.4</ele>
        <time>2021-08-04T12:33:17Z</time>
      </trkpt>
      <trkpt lat="47.66597" lon="-2.97221">
        <ele>-7.4</ele>
        <time>2021-08-04T12:33:18Z</time>
      </trkpt>
      <trkpt lat="47.66596" lon="-2.97213">
        <ele>-7.4</ele>
        <time>2021-08-04T12:33:19Z</time>
      </trkpt>
      <trkpt lat="47.66595" lon="-2.97205">
        <ele>-7.4</ele>
        <time>2021-08-04T12:33:20Z</time>
      </trkpt>
      <trkpt lat="47.66594" lon="-2.97198">
        <ele>-7.6</ele>
        <time>2021-08-04T12:33:21Z</time>
      </trkpt>
      <trkpt lat="47.66592" lon="-2.97191">
        <ele>-7.6</ele>
        <time>2021-08-04T12:33:22Z</time>
      </trkpt>
      <trkpt lat="47.66592" lon="-2.97184">
        <ele>-7.6</ele>
        <time>2021-08-04T12:33:23Z</time>
      </trkpt>
      <trkpt lat="47.66591" lon="-2.97177">
        <ele>-7.6</ele>
        <time>2021-08-04T12:33:24Z</time>
      </trkpt>
      <trkpt lat="47.6659" lon="-2.97171">
        <ele>-7.6</ele>
        <time>2021-08-04T12:33:25Z</time>
      </trkpt>
      <trkpt lat="47.66589" lon="-2.97165">
        <ele>-7.6</ele>
        <time>2021-08-04T12:33:26Z</time>
      </trkpt>
      <trkpt lat="47.66588" lon="-2.97159">
        <ele>-7.6</ele>
        <time>2021-08-04T12:33:27Z</time>
      </trkpt>
      <trkpt lat="47.66587" lon="-2.97153">
        <ele>-7.6</ele>
        <time>2021-08-04T12:33:28Z</time>
      </trkpt>
      <trkpt lat="47.66586" lon="-2.97148">
        <ele>-7.6</ele>
        <time>2021-08-04T12:33:29Z</time>
      </trkpt>
      <trkpt lat="47.66585" lon="-2.97143">
        <ele>-7.6</ele>
        <time>2021-08-04T12:33:30Z</time>
      </trkpt>
      <trkpt lat="47.66585" lon="-2.97138">
        <ele>-7.6</ele>
        <time>2021-08-04T12:33:31Z</time>
      </trkpt>
      <trkpt lat="47.66584" lon="-2.97133">
        <ele>-7.6</ele>
        <time>2021-08-04T12:33:32Z</time>
      </trkpt>
      <trkpt lat="47.66583" lon="-2.97129">
        <ele>-7.4</ele>
        <time>2021-08-04T12:33:33Z</time>
      </trkpt>
      <trkpt lat="47.66582" lon="-2.97124">
        <ele>-7.4</ele>
        <time>2021-08-04T12:33:34Z</time>
      </trkpt>
      <trkpt lat="47.66582" lon="-2.97119">
        <ele>-7.4</ele>
        <time>2021-08-04T12:33:35Z</time>
      </trkpt>
      <trkpt lat="47.66581" lon="-2.97114">
        <ele>-7.4</ele>
        <time>2021-08-04T12:33:36Z</time>
      </trkpt>
      <trkpt lat="47.6658" lon="-2.97109">
        <ele>-7.4</ele>
        <time>2021-08-04T12:33:37Z</time>
      </trkpt>
      <trkpt lat="47.6658" lon="-2.97104">
        <ele>-7.2</ele>
        <time>2021-08-04T12:33:38Z</time>
      </trkpt>
      <trkpt lat="47.66579" lon="-2.97099">
        <ele>-7.2</ele>
        <time>2021-08-04T12:33:39Z</time>
      </trkpt>
      <trkpt lat="47.66578" lon="-2.97095">
        <ele>-7.2</ele>
        <time>2021-08-04T12:33:40Z</time>
      </trkpt>
      <trkpt lat="47.66578" lon="-2.97089">
        <ele>-7.2</ele>
        <time>2021-08-04T12:33:41Z</time>
      </trkpt>
      <trkpt lat="47.66577" lon="-2.97085">
        <ele>-7</ele>
        <time>2021-08-04T12:33:42Z</time>
      </trkpt>
      <trkpt lat="47.66577" lon="-2.9708">
        <ele>-7</ele>
        <time>2021-08-04T12:33:43Z</time>
      </trkpt>
      <trkpt lat="47.66576" lon="-2.97075">
        <ele>-6.8</ele>
        <time>2021-08-04T12:33:44Z</time>
      </trkpt>
      <trkpt lat="47.66575" lon="-2.9707">
        <ele>-6.8</ele>
        <time>2021-08-04T12:33:45Z</time>
      </trkpt>
      <trkpt lat="47.66574" lon="-2.97065">
        <ele>-6.6</ele>
        <time>2021-08-04T12:33:46Z</time>
      </trkpt>
      <trkpt lat="47.66573" lon="-2.97061">
        <ele>-6.4</ele>
        <time>2021-08-04T12:33:47Z</time>
      </trkpt>
      <trkpt lat="47.66572" lon="-2.97057">
        <ele>-6.4</ele>
        <time>2021-08-04T12:33:48Z</time>
      </trkpt>
      <trkpt lat="47.66571" lon="-2.97053">
        <ele>-6.4</ele>
        <time>2021-08-04T12:33:49Z</time>
      </trkpt>
      <trkpt lat="47.6657" lon="-2.97049">
        <ele>-6.2</ele>
        <time>2021-08-04T12:33:50Z</time>
      </trkpt>
      <trkpt lat="47.66569" lon="-2.97044">
        <ele>-6.2</ele>
        <time>2021-08-04T12:33:51Z</time>
      </trkpt>
      <trkpt lat="47.66567" lon="-2.9704">
        <ele>-6</ele>
        <time>2021-08-04T12:33:52Z</time>
      </trkpt>
      <trkpt lat="47.66566" lon="-2.97036">
        <ele>-6</ele>
        <time>2021-08-04T12:33:53Z</time>
      </trkpt>
      <trkpt lat="47.66567" lon="-2.97032">
        <ele>-5.8</ele>
        <time>2021-08-04T12:33:54Z</time>
      </trkpt>
      <trkpt lat="47.66569" lon="-2.97029">
        <ele>-5.6</ele>
        <time>2021-08-04T12:33:55Z</time>
      </trkpt>
      <trkpt lat="47.66572" lon="-2.97027">
        <ele>-5.6</ele>
        <time>2021-08-04T12:33:56Z</time>
      </trkpt>
      <trkpt lat="47.66575" lon="-2.97024">
        <ele>-5.6</ele>
        <time>2021-08-04T12:33:57Z</time>
      </trkpt>
      <trkpt lat="47.66578" lon="-2.97021">
        <ele>-5.6</ele>
        <time>2021-08-04T12:33:58Z</time>
      </trkpt>
      <trkpt lat="47.66581" lon="-2.97019">
        <ele>-5.6</ele>
        <time>2021-08-04T12:33:59Z</time>
      </trkpt>
      <trkpt lat="47.66585" lon="-2.97016">
        <ele>-5.6</ele>
        <time>2021-08-04T12:34:00Z</time>
      </trkpt>
      <trkpt lat="47.66588" lon="-2.97014">
        <ele>-5.6</ele>
        <time>2021-08-04T12:34:01Z</time>
      </trkpt>
      <trkpt lat="47.66592" lon="-2.97012">
        <ele>-5.6</ele>
        <time>2021-08-04T12:34:02Z</time>
      </trkpt>
      <trkpt lat="47.66595" lon="-2.9701">
        <ele>-5.6</ele>
        <time>2021-08-04T12:34:03Z</time>
      </trkpt>
      <trkpt lat="47.66598" lon="-2.97008">
        <ele>-5.6</ele>
        <time>2021-08-04T12:34:04Z</time>
      </trkpt>
      <trkpt lat="47.66601" lon="-2.97006">
        <ele>-5.6</ele>
        <time>2021-08-04T12:34:05Z</time>
      </trkpt>
      <trkpt lat="47.66604" lon="-2.97004">
        <ele>-5.6</ele>
        <time>2021-08-04T12:34:06Z</time>
      </trkpt>
      <trkpt lat="47.66607" lon="-2.97003">
        <ele>-5.6</ele>
        <time>2021-08-04T12:34:07Z</time>
      </trkpt>
      <trkpt lat="47.6661" lon="-2.97001">
        <ele>-5.6</ele>
        <time>2021-08-04T12:34:08Z</time>
      </trkpt>
      <trkpt lat="47.66612" lon="-2.96999">
        <ele>-5.6</ele>
        <time>2021-08-04T12:34:09Z</time>
      </trkpt>
      <trkpt lat="47.66615" lon="-2.96998">
        <ele>-5.6</ele>
        <time>2021-08-04T12:34:10Z</time>
      </trkpt>
      <trkpt lat="47.66617" lon="-2.96996">
        <ele>-5.6</ele>
        <time>2021-08-04T12:34:11Z</time>
      </trkpt>
      <trkpt lat="47.6662" lon="-2.96995">
        <ele>-5.4</ele>
        <time>2021-08-04T12:34:12Z</time>
      </trkpt>
      <trkpt lat="47.66622" lon="-2.96993">
        <ele>-5.4</ele>
        <time>2021-08-04T12:34:13Z</time>
      </trkpt>
      <trkpt lat="47.66625" lon="-2.96992">
        <ele>-5.4</ele>
        <time>2021-08-04T12:34:14Z</time>
      </trkpt>
      <trkpt lat="47.66627" lon="-2.9699">
        <ele>-5.2</ele>
        <time>2021-08-04T12:34:15Z</time>
      </trkpt>
      <trkpt lat="47.66629" lon="-2.96989">
        <ele>-5</ele>
        <time>2021-08-04T12:34:16Z</time>
      </trkpt>
      <trkpt lat="47.66632" lon="-2.96987">
        <ele>-4.8</ele>
        <time>2021-08-04T12:34:17Z</time>
      </trkpt>
      <trkpt lat="47.66634" lon="-2.96986">
        <ele>-4.6</ele>
        <time>2021-08-04T12:34:18Z</time>
      </trkpt>
      <trkpt lat="47.66636" lon="-2.96984">
        <ele>-4.4</ele>
        <time>2021-08-04T12:34:19Z</time>
      </trkpt>
      <trkpt lat="47.66638" lon="-2.96983">
        <ele>-4.2</ele>
        <time>2021-08-04T12:34:20Z</time>
      </trkpt>
      <trkpt lat="47.6664" lon="-2.96982">
        <ele>-4.2</ele>
        <time>2021-08-04T12:34:21Z</time>
      </trkpt>
      <trkpt lat="47.66642" lon="-2.9698">
        <ele>-4</ele>
        <time>2021-08-04T12:34:22Z</time>
      </trkpt>
      <trkpt lat="47.66645" lon="-2.96979">
        <ele>-3.8</ele>
        <time>2021-08-04T12:34:23Z</time>
      </trkpt>
      <trkpt lat="47.66647" lon="-2.96978">
        <ele>-3.8</ele>
        <time>2021-08-04T12:34:24Z</time>
      </trkpt>
      <trkpt lat="47.6665" lon="-2.96976">
        <ele>-3.6</ele>
        <time>2021-08-04T12:34:25Z</time>
      </trkpt>
      <trkpt lat="47.66652" lon="-2.96973">
        <ele>-3.6</ele>
        <time>2021-08-04T12:34:26Z</time>
      </trkpt>
      <trkpt lat="47.66653" lon="-2.96969">
        <ele>-3.4</ele>
        <time>2021-08-04T12:34:27Z</time>
      </trkpt>
      <trkpt lat="47.66654" lon="-2.96965">
        <ele>-3</ele>
        <time>2021-08-04T12:34:28Z</time>
      </trkpt>
      <trkpt lat="47.66653" lon="-2.9696">
        <ele>-3</ele>
        <time>2021-08-04T12:34:29Z</time>
      </trkpt>
      <trkpt lat="47.66651" lon="-2.96956">
        <ele>-2.8</ele>
        <time>2021-08-04T12:34:30Z</time>
      </trkpt>
      <trkpt lat="47.66649" lon="-2.96952">
        <ele>-2.6</ele>
        <time>2021-08-04T12:34:31Z</time>
      </trkpt>
      <trkpt lat="47.66647" lon="-2.96948">
        <ele>-2.4</ele>
        <time>2021-08-04T12:34:32Z</time>
      </trkpt>
      <trkpt lat="47.66646" lon="-2.96944">
        <ele>-2.2</ele>
        <time>2021-08-04T12:34:33Z</time>
      </trkpt>
      <trkpt lat="47.66645" lon="-2.96941">
        <ele>-2</ele>
        <time>2021-08-04T12:34:34Z</time>
      </trkpt>
      <trkpt lat="47.66644" lon="-2.96937">
        <ele>-1.8</ele>
        <time>2021-08-04T12:34:35Z</time>
      </trkpt>
      <trkpt lat="47.66644" lon="-2.96934">
        <ele>-1.6</ele>
        <time>2021-08-04T12:34:36Z</time>
      </trkpt>
      <trkpt lat="47.66643" lon="-2.9693">
        <ele>-1.4</ele>
        <time>2021-08-04T12:34:37Z</time>
      </trkpt>
      <trkpt lat="47.66642" lon="-2.96927">
        <ele>-1.2</ele>
        <time>2021-08-04T12:34:38Z</time>
      </trkpt>
      <trkpt lat="47.66642" lon="-2.96924">
        <ele>-1</ele>
        <time>2021-08-04T12:34:39Z</time>
      </trkpt>
      <trkpt lat="47.66641" lon="-2.96922">
        <ele>-1</ele>
        <time>2021-08-04T12:34:40Z</time>
      </trkpt>
      <trkpt lat="47.6664" lon="-2.96919">
        <ele>-0.8</ele>
        <time>2021-08-04T12:34:41Z</time>
      </trkpt>
      <trkpt lat="47.6664" lon="-2.96916">
        <ele>-0.6</ele>
        <time>2021-08-04T12:34:42Z</time>
      </trkpt>
      <trkpt lat="47.66639" lon="-2.96912">
        <ele>-0.4</ele>
        <time>2021-08-04T12:34:43Z</time>
      </trkpt>
      <trkpt lat="47.66639" lon="-2.96909">
        <ele>-0.4</ele>
        <time>2021-08-04T12:34:44Z</time>
      </trkpt>
      <trkpt lat="47.66638" lon="-2.96906">
        <ele>-0.2</ele>
        <time>2021-08-04T12:34:45Z</time>
      </trkpt>
      <trkpt lat="47.66637" lon="-2.96903">
        <ele>-0.2</ele>
        <time>2021-08-04T12:34:46Z</time>
      </trkpt>
      <trkpt lat="47.66637" lon="-2.96901">
        <ele>-0.2</ele>
        <time>2021-08-04T12:34:47Z</time>
      </trkpt>
      <trkpt lat="47.66636" lon="-2.96898">
        <ele>-0.2</ele>
        <time>2021-08-04T12:34:48Z</time>
      </trkpt>
      <trkpt lat="47.66636" lon="-2.96896">
        <ele>-0.2</ele>
        <time>2021-08-04T12:34:49Z</time>
      </trkpt>
      <trkpt lat="47.66636" lon="-2.96893">
        <ele>0.2</ele>
        <time>2021-08-04T12:34:50Z</time>
      </trkpt>
      <trkpt lat="47.66635" lon="-2.96891">
        <ele>0.2</ele>
        <time>2021-08-04T12:34:51Z</time>
      </trkpt>
      <trkpt lat="47.66635" lon="-2.96888">
        <ele>0.2</ele>
        <time>2021-08-04T12:34:52Z</time>
      </trkpt>
      <trkpt lat="47.66634" lon="-2.96885">
        <ele>0.2</ele>
        <time>2021-08-04T12:34:53Z</time>
      </trkpt>
      <trkpt lat="47.66634" lon="-2.96883">
        <ele>0.4</ele>
        <time>2021-08-04T12:34:54Z</time>
      </trkpt>
      <trkpt lat="47.66633" lon="-2.9688">
        <ele>0.4</ele>
        <time>2021-08-04T12:34:55Z</time>
      </trkpt>
      <trkpt lat="47.66633" lon="-2.96878">
        <ele>0.4</ele>
        <time>2021-08-04T12:34:56Z</time>
      </trkpt>
      <trkpt lat="47.66633" lon="-2.96875">
        <ele>0.4</ele>
        <time>2021-08-04T12:34:57Z</time>
      </trkpt>
      <trkpt lat="47.66632" lon="-2.96873">
        <ele>0.6</ele>
        <time>2021-08-04T12:34:58Z</time>
      </trkpt>
      <trkpt lat="47.66632" lon="-2.96871">
        <ele>0.6</ele>
        <time>2021-08-04T12:34:59Z</time>
      </trkpt>
      <trkpt lat="47.66631" lon="-2.96868">
        <ele>0.8</ele>
        <time>2021-08-04T12:35:00Z</time>
      </trkpt>
      <trkpt lat="47.66631" lon="-2.96866">
        <ele>0.8</ele>
        <time>2021-08-04T12:35:01Z</time>
      </trkpt>
      <trkpt lat="47.66631" lon="-2.96864">
        <ele>1</ele>
        <time>2021-08-04T12:35:02Z</time>
      </trkpt>
      <trkpt lat="47.66631" lon="-2.96862">
        <ele>1</ele>
        <time>2021-08-04T12:35:03Z</time>
      </trkpt>
      <trkpt lat="47.6663" lon="-2.9686">
        <ele>1.2</ele>
        <time>2021-08-04T12:35:04Z</time>
      </trkpt>
      <trkpt lat="47.6663" lon="-2.96858">
        <ele>1.2</ele>
        <time>2021-08-04T12:35:05Z</time>
      </trkpt>
      <trkpt lat="47.6663" lon="-2.96856">
        <ele>1.2</ele>
        <time>2021-08-04T12:35:06Z</time>
      </trkpt>
      <trkpt lat="47.6663" lon="-2.96854">
        <ele>1.4</ele>
        <time>2021-08-04T12:35:07Z</time>
      </trkpt>
      <trkpt lat="47.6663" lon="-2.96852">
        <ele>1.6</ele>
        <time>2021-08-04T12:35:08Z</time>
      </trkpt>
      <trkpt lat="47.6663" lon="-2.9685">
        <ele>1.8</ele>
        <time>2021-08-04T12:35:09Z</time>
      </trkpt>
      <trkpt lat="47.6663" lon="-2.96847">
        <ele>1.8</ele>
        <time>2021-08-04T12:35:10Z</time>
      </trkpt>
      <trkpt lat="47.66629" lon="-2.96845">
        <ele>1.8</ele>
        <time>2021-08-04T12:35:11Z</time>
      </trkpt>
      <trkpt lat="47.66629" lon="-2.96843">
        <ele>2</ele>
        <time>2021-08-04T12:35:12Z</time>
      </trkpt>
      <trkpt lat="47.6663" lon="-2.96841">
        <ele>2</ele>
        <time>2021-08-04T12:35:13Z</time>
      </trkpt>
      <trkpt lat="47.6663" lon="-2.96838">
        <ele>2.2</ele>
        <time>2021-08-04T12:35:14Z</time>
      </trkpt>
      <trkpt lat="47.66629" lon="-2.96836">
        <ele>2.4</ele>
        <time>2021-08-04T12:35:15Z</time>
      </trkpt>
      <trkpt lat="47.66629" lon="-2.96834">
        <ele>2.4</ele>
        <time>2021-08-04T12:35:16Z</time>
      </trkpt>
      <trkpt lat="47.66628" lon="-2.96832">
        <ele>2.4</ele>
        <time>2021-08-04T12:35:17Z</time>
      </trkpt>
      <trkpt lat="47.66628" lon="-2.9683">
        <ele>2.6</ele>
        <time>2021-08-04T12:35:18Z</time>
      </trkpt>
      <trkpt lat="47.66627" lon="-2.96828">
        <ele>2.6</ele>
        <time>2021-08-04T12:35:19Z</time>
      </trkpt>
      <trkpt lat="47.66627" lon="-2.96825">
        <ele>2.6</ele>
        <time>2021-08-04T12:35:20Z</time>
      </trkpt>
      <trkpt lat="47.66627" lon="-2.96823">
        <ele>2.6</ele>
        <time>2021-08-04T12:35:21Z</time>
      </trkpt>
      <trkpt lat="47.66627" lon="-2.96821">
        <ele>2.6</ele>
        <time>2021-08-04T12:35:22Z</time>
      </trkpt>
      <trkpt lat="47.66627" lon="-2.96818">
        <ele>2.6</ele>
        <time>2021-08-04T12:35:23Z</time>
      </trkpt>
      <trkpt lat="47.66626" lon="-2.96816">
        <ele>2.6</ele>
        <time>2021-08-04T12:35:24Z</time>
      </trkpt>
      <trkpt lat="47.66626" lon="-2.96814">
        <ele>2.6</ele>
        <time>2021-08-04T12:35:25Z</time>
      </trkpt>
      <trkpt lat="47.66626" lon="-2.96812">
        <ele>2.8</ele>
        <time>2021-08-04T12:35:26Z</time>
      </trkpt>
      <trkpt lat="47.66626" lon="-2.9681">
        <ele>2.8</ele>
        <time>2021-08-04T12:35:27Z</time>
      </trkpt>
      <trkpt lat="47.66625" lon="-2.96808">
        <ele>3</ele>
        <time>2021-08-04T12:35:28Z</time>
      </trkpt>
      <trkpt lat="47.66625" lon="-2.96806">
        <ele>3.2</ele>
        <time>2021-08-04T12:35:29Z</time>
      </trkpt>
      <trkpt lat="47.66624" lon="-2.96804">
        <ele>3.2</ele>
        <time>2021-08-04T12:35:30Z</time>
      </trkpt>
      <trkpt lat="47.66624" lon="-2.96802">
        <ele>3.4</ele>
        <time>2021-08-04T12:35:31Z</time>
      </trkpt>
      <trkpt lat="47.66623" lon="-2.968">
        <ele>3.6</ele>
        <time>2021-08-04T12:35:32Z</time>
      </trkpt>
      <trkpt lat="47.66623" lon="-2.96798">
        <ele>3.6</ele>
        <time>2021-08-04T12:35:33Z</time>
      </trkpt>
      <trkpt lat="47.66623" lon="-2.96796">
        <ele>3.6</ele>
        <time>2021-08-04T12:35:34Z</time>
      </trkpt>
      <trkpt lat="47.66623" lon="-2.96794">
        <ele>3.6</ele>
        <time>2021-08-04T12:35:35Z</time>
      </trkpt>
      <trkpt lat="47.66622" lon="-2.96791">
        <ele>3.8</ele>
        <time>2021-08-04T12:35:36Z</time>
      </trkpt>
      <trkpt lat="47.66622" lon="-2.96789">
        <ele>3.8</ele>
        <time>2021-08-04T12:35:37Z</time>
      </trkpt>
      <trkpt lat="47.66621" lon="-2.96787">
        <ele>3.8</ele>
        <time>2021-08-04T12:35:38Z</time>
      </trkpt>
      <trkpt lat="47.66621" lon="-2.96785">
        <ele>4</ele>
        <time>2021-08-04T12:35:39Z</time>
      </trkpt>
      <trkpt lat="47.66621" lon="-2.96783">
        <ele>4</ele>
        <time>2021-08-04T12:35:40Z</time>
      </trkpt>
      <trkpt lat="47.6662" lon="-2.96781">
        <ele>4.2</ele>
        <time>2021-08-04T12:35:41Z</time>
      </trkpt>
      <trkpt lat="47.6662" lon="-2.96779">
        <ele>4.4</ele>
        <time>2021-08-04T12:35:42Z</time>
      </trkpt>
      <trkpt lat="47.66619" lon="-2.96777">
        <ele>4.4</ele>
        <time>2021-08-04T12:35:43Z</time>
      </trkpt>
      <trkpt lat="47.66619" lon="-2.96775">
        <ele>4.4</ele>
        <time>2021-08-04T12:35:44Z</time>
      </trkpt>
      <trkpt lat="47.66619" lon="-2.96772">
        <ele>4.4</ele>
        <time>2021-08-04T12:35:45Z</time>
      </trkpt>
      <trkpt lat="47.66618" lon="-2.9677">
        <ele>4.4</ele>
        <time>2021-08-04T12:35:46Z</time>
      </trkpt>
      <trkpt lat="47.66618" lon="-2.96768">
        <ele>4.4</ele>
        <time>2021-08-04T12:35:47Z</time>
      </trkpt>
      <trkpt lat="47.66617" lon="-2.96765">
        <ele>4.4</ele>
        <time>2021-08-04T12:35:48Z</time>
      </trkpt>
      <trkpt lat="47.66617" lon="-2.96763">
        <ele>4.6</ele>
        <time>2021-08-04T12:35:49Z</time>
      </trkpt>
      <trkpt lat="47.66616" lon="-2.96761">
        <ele>4.6</ele>
        <time>2021-08-04T12:35:50Z</time>
      </trkpt>
      <trkpt lat="47.66616" lon="-2.96759">
        <ele>4.8</ele>
        <time>2021-08-04T12:35:51Z</time>
      </trkpt>
      <trkpt lat="47.66615" lon="-2.96757">
        <ele>4.8</ele>
        <time>2021-08-04T12:35:52Z</time>
      </trkpt>
      <trkpt lat="47.66614" lon="-2.96755">
        <ele>5</ele>
        <time>2021-08-04T12:35:53Z</time>
      </trkpt>
      <trkpt lat="47.66614" lon="-2.96753">
        <ele>5</ele>
        <time>2021-08-04T12:35:54Z</time>
      </trkpt>
      <trkpt lat="47.66613" lon="-2.96751">
        <ele>5.2</ele>
        <time>2021-08-04T12:35:55Z</time>
      </trkpt>
      <trkpt lat="47.66612" lon="-2.9675">
        <ele>5.2</ele>
        <time>2021-08-04T12:35:56Z</time>
      </trkpt>
      <trkpt lat="47.66611" lon="-2.96748">
        <ele>5.2</ele>
        <time>2021-08-04T12:35:57Z</time>
      </trkpt>
      <trkpt lat="47.6661" lon="-2.96746">
        <ele>5.2</ele>
        <time>2021-08-04T12:35:58Z</time>
      </trkpt>
      <trkpt lat="47.6661" lon="-2.96744">
        <ele>5.2</ele>
        <time>2021-08-04T12:35:59Z</time>
      </trkpt>
      <trkpt lat="47.66608" lon="-2.96742">
        <ele>5.4</ele>
        <time>2021-08-04T12:36:00Z</time>
      </trkpt>
      <trkpt lat="47.66607" lon="-2.96739">
        <ele>5.4</ele>
        <time>2021-08-04T12:36:01Z</time>
      </trkpt>
      <trkpt lat="47.66606" lon="-2.96737">
        <ele>5.4</ele>
        <time>2021-08-04T12:36:02Z</time>
      </trkpt>
      <trkpt lat="47.66605" lon="-2.96735">
        <ele>5.4</ele>
        <time>2021-08-04T12:36:03Z</time>
      </trkpt>
      <trkpt lat="47.66603" lon="-2.96733">
        <ele>5.4</ele>
        <time>2021-08-04T12:36:04Z</time>
      </trkpt>
      <trkpt lat="47.66601" lon="-2.96731">
        <ele>5.4</ele>
        <time>2021-08-04T12:36:05Z</time>
      </trkpt>
      <trkpt lat="47.66598" lon="-2.96729">
        <ele>5.4</ele>
        <time>2021-08-04T12:36:06Z</time>
      </trkpt>
      <trkpt lat="47.66595" lon="-2.96728">
        <ele>5.4</ele>
        <time>2021-08-04T12:36:07Z</time>
      </trkpt>
      <trkpt lat="47.66592" lon="-2.96728">
        <ele>5.4</ele>
        <time>2021-08-04T12:36:08Z</time>
      </trkpt>
      <trkpt lat="47.66589" lon="-2.96728">
        <ele>5.4</ele>
        <time>2021-08-04T12:36:09Z</time>
      </trkpt>
      <trkpt lat="47.66585" lon="-2.96729">
        <ele>5.4</ele>
        <time>2021-08-04T12:36:10Z</time>
      </trkpt>
      <trkpt lat="47.66582" lon="-2.96729">
        <ele>5.4</ele>
        <time>2021-08-04T12:36:11Z</time>
      </trkpt>
      <trkpt lat="47.66578" lon="-2.96729">
        <ele>5.4</ele>
        <time>2021-08-04T12:36:12Z</time>
      </trkpt>
      <trkpt lat="47.66575" lon="-2.9673">
        <ele>5.4</ele>
        <time>2021-08-04T12:36:13Z</time>
      </trkpt>
      <trkpt lat="47.66571" lon="-2.9673">
        <ele>5.2</ele>
        <time>2021-08-04T12:36:14Z</time>
      </trkpt>
      <trkpt lat="47.66566" lon="-2.96731">
        <ele>5.2</ele>
        <time>2021-08-04T12:36:15Z</time>
      </trkpt>
      <trkpt lat="47.66562" lon="-2.96731">
        <ele>5</ele>
        <time>2021-08-04T12:36:16Z</time>
      </trkpt>
      <trkpt lat="47.66557" lon="-2.96731">
        <ele>5</ele>
        <time>2021-08-04T12:36:17Z</time>
      </trkpt>
      <trkpt lat="47.66553" lon="-2.96732">
        <ele>4.8</ele>
        <time>2021-08-04T12:36:18Z</time>
      </trkpt>
      <trkpt lat="47.66549" lon="-2.96732">
        <ele>4.6</ele>
        <time>2021-08-04T12:36:19Z</time>
      </trkpt>
      <trkpt lat="47.66544" lon="-2.96732">
        <ele>4.4</ele>
        <time>2021-08-04T12:36:20Z</time>
      </trkpt>
      <trkpt lat="47.6654" lon="-2.96733">
        <ele>4.4</ele>
        <time>2021-08-04T12:36:21Z</time>
      </trkpt>
      <trkpt lat="47.66535" lon="-2.96733">
        <ele>4.4</ele>
        <time>2021-08-04T12:36:22Z</time>
      </trkpt>
      <trkpt lat="47.6653" lon="-2.96732">
        <ele>4.2</ele>
        <time>2021-08-04T12:36:23Z</time>
      </trkpt>
      <trkpt lat="47.66526" lon="-2.96732">
        <ele>3.8</ele>
        <time>2021-08-04T12:36:24Z</time>
      </trkpt>
      <trkpt lat="47.66521" lon="-2.96732">
        <ele>3.8</ele>
        <time>2021-08-04T12:36:25Z</time>
      </trkpt>
      <trkpt lat="47.66516" lon="-2.96731">
        <ele>3.6</ele>
        <time>2021-08-04T12:36:26Z</time>
      </trkpt>
      <trkpt lat="47.66511" lon="-2.9673">
        <ele>3.6</ele>
        <time>2021-08-04T12:36:27Z</time>
      </trkpt>
      <trkpt lat="47.66507" lon="-2.96729">
        <ele>3.4</ele>
        <time>2021-08-04T12:36:28Z</time>
      </trkpt>
      <trkpt lat="47.66502" lon="-2.96727">
        <ele>3.4</ele>
        <time>2021-08-04T12:36:29Z</time>
      </trkpt>
      <trkpt lat="47.66498" lon="-2.96726">
        <ele>3.4</ele>
        <time>2021-08-04T12:36:30Z</time>
      </trkpt>
      <trkpt lat="47.66493" lon="-2.96725">
        <ele>3.4</ele>
        <time>2021-08-04T12:36:31Z</time>
      </trkpt>
      <trkpt lat="47.66489" lon="-2.96723">
        <ele>3.2</ele>
        <time>2021-08-04T12:36:32Z</time>
      </trkpt>
      <trkpt lat="47.66484" lon="-2.96722">
        <ele>3.2</ele>
        <time>2021-08-04T12:36:33Z</time>
      </trkpt>
      <trkpt lat="47.6648" lon="-2.96721">
        <ele>3.2</ele>
        <time>2021-08-04T12:36:34Z</time>
      </trkpt>
      <trkpt lat="47.66475" lon="-2.96719">
        <ele>3.2</ele>
        <time>2021-08-04T12:36:35Z</time>
      </trkpt>
      <trkpt lat="47.66471" lon="-2.96718">
        <ele>3.4</ele>
        <time>2021-08-04T12:36:36Z</time>
      </trkpt>
      <trkpt lat="47.66467" lon="-2.96717">
        <ele>3.4</ele>
        <time>2021-08-04T12:36:37Z</time>
      </trkpt>
      <trkpt lat="47.66463" lon="-2.96715">
        <ele>3.4</ele>
        <time>2021-08-04T12:36:38Z</time>
      </trkpt>
      <trkpt lat="47.66459" lon="-2.96713">
        <ele>3.4</ele>
        <time>2021-08-04T12:36:39Z</time>
      </trkpt>
      <trkpt lat="47.66455" lon="-2.96712">
        <ele>3.6</ele>
        <time>2021-08-04T12:36:40Z</time>
      </trkpt>
      <trkpt lat="47.66451" lon="-2.9671">
        <ele>3.6</ele>
        <time>2021-08-04T12:36:41Z</time>
      </trkpt>
      <trkpt lat="47.66447" lon="-2.96708">
        <ele>3.6</ele>
        <time>2021-08-04T12:36:42Z</time>
      </trkpt>
      <trkpt lat="47.66444" lon="-2.96707">
        <ele>3.8</ele>
        <time>2021-08-04T12:36:43Z</time>
      </trkpt>
      <trkpt lat="47.6644" lon="-2.96706">
        <ele>3.8</ele>
        <time>2021-08-04T12:36:44Z</time>
      </trkpt>
      <trkpt lat="47.66436" lon="-2.96704">
        <ele>3.8</ele>
        <time>2021-08-04T12:36:45Z</time>
      </trkpt>
      <trkpt lat="47.66432" lon="-2.96703">
        <ele>4</ele>
        <time>2021-08-04T12:36:46Z</time>
      </trkpt>
      <trkpt lat="47.66429" lon="-2.96701">
        <ele>4.2</ele>
        <time>2021-08-04T12:36:47Z</time>
      </trkpt>
      <trkpt lat="47.66425" lon="-2.96701">
        <ele>4.4</ele>
        <time>2021-08-04T12:36:48Z</time>
      </trkpt>
      <trkpt lat="47.66422" lon="-2.967">
        <ele>4.6</ele>
        <time>2021-08-04T12:36:49Z</time>
      </trkpt>
      <trkpt lat="47.66418" lon="-2.96699">
        <ele>4.6</ele>
        <time>2021-08-04T12:36:50Z</time>
      </trkpt>
      <trkpt lat="47.66414" lon="-2.96697">
        <ele>4.6</ele>
        <time>2021-08-04T12:36:51Z</time>
      </trkpt>
      <trkpt lat="47.66411" lon="-2.96696">
        <ele>4.6</ele>
        <time>2021-08-04T12:36:52Z</time>
      </trkpt>
      <trkpt lat="47.66407" lon="-2.96695">
        <ele>4.8</ele>
        <time>2021-08-04T12:36:53Z</time>
      </trkpt>
      <trkpt lat="47.66403" lon="-2.96693">
        <ele>5</ele>
        <time>2021-08-04T12:36:54Z</time>
      </trkpt>
      <trkpt lat="47.664" lon="-2.96692">
        <ele>5</ele>
        <time>2021-08-04T12:36:55Z</time>
      </trkpt>
      <trkpt lat="47.66396" lon="-2.9669">
        <ele>5.2</ele>
        <time>2021-08-04T12:36:56Z</time>
      </trkpt>
      <trkpt lat="47.66392" lon="-2.96689">
        <ele>5.4</ele>
        <time>2021-08-04T12:36:57Z</time>
      </trkpt>
      <trkpt lat="47.66389" lon="-2.96688">
        <ele>5.4</ele>
        <time>2021-08-04T12:36:58Z</time>
      </trkpt>
      <trkpt lat="47.66385" lon="-2.96686">
        <ele>5.4</ele>
        <time>2021-08-04T12:36:59Z</time>
      </trkpt>
      <trkpt lat="47.66381" lon="-2.96685">
        <ele>5.6</ele>
        <time>2021-08-04T12:37:00Z</time>
      </trkpt>
      <trkpt lat="47.66377" lon="-2.96684">
        <ele>5.6</ele>
        <time>2021-08-04T12:37:01Z</time>
      </trkpt>
      <trkpt lat="47.66373" lon="-2.96683">
        <ele>5.6</ele>
        <time>2021-08-04T12:37:02Z</time>
      </trkpt>
      <trkpt lat="47.66369" lon="-2.96682">
        <ele>5.6</ele>
        <time>2021-08-04T12:37:03Z</time>
      </trkpt>
      <trkpt lat="47.66365" lon="-2.96681">
        <ele>5.6</ele>
        <time>2021-08-04T12:37:04Z</time>
      </trkpt>
      <trkpt lat="47.66362" lon="-2.9668">
        <ele>5.8</ele>
        <time>2021-08-04T12:37:05Z</time>
      </trkpt>
      <trkpt lat="47.66358" lon="-2.96679">
        <ele>5.8</ele>
        <time>2021-08-04T12:37:06Z</time>
      </trkpt>
      <trkpt lat="47.66355" lon="-2.96678">
        <ele>6</ele>
        <time>2021-08-04T12:37:07Z</time>
      </trkpt>
      <trkpt lat="47.66351" lon="-2.96677">
        <ele>6</ele>
        <time>2021-08-04T12:37:08Z</time>
      </trkpt>
      <trkpt lat="47.66347" lon="-2.96675">
        <ele>6.2</ele>
        <time>2021-08-04T12:37:09Z</time>
      </trkpt>
      <trkpt lat="47.66344" lon="-2.96674">
        <ele>6.2</ele>
        <time>2021-08-04T12:37:10Z</time>
      </trkpt>
      <trkpt lat="47.6634" lon="-2.96672">
        <ele>6.4</ele>
        <time>2021-08-04T12:37:11Z</time>
      </trkpt>
      <trkpt lat="47.66337" lon="-2.96671">
        <ele>6.4</ele>
        <time>2021-08-04T12:37:12Z</time>
      </trkpt>
      <trkpt lat="47.66334" lon="-2.96669">
        <ele>6.6</ele>
        <time>2021-08-04T12:37:13Z</time>
      </trkpt>
      <trkpt lat="47.6633" lon="-2.96668">
        <ele>6.8</ele>
        <time>2021-08-04T12:37:14Z</time>
      </trkpt>
      <trkpt lat="47.66327" lon="-2.96666">
        <ele>6.8</ele>
        <time>2021-08-04T12:37:15Z</time>
      </trkpt>
      <trkpt lat="47.66324" lon="-2.96665">
        <ele>6.8</ele>
        <time>2021-08-04T12:37:16Z</time>
      </trkpt>
      <trkpt lat="47.6632" lon="-2.96663">
        <ele>7</ele>
        <time>2021-08-04T12:37:17Z</time>
      </trkpt>
      <trkpt lat="47.66317" lon="-2.96662">
        <ele>7</ele>
        <time>2021-08-04T12:37:18Z</time>
      </trkpt>
      <trkpt lat="47.66314" lon="-2.9666">
        <ele>7</ele>
        <time>2021-08-04T12:37:19Z</time>
      </trkpt>
      <trkpt lat="47.66311" lon="-2.96658">
        <ele>7</ele>
        <time>2021-08-04T12:37:20Z</time>
      </trkpt>
      <trkpt lat="47.66308" lon="-2.96657">
        <ele>7</ele>
        <time>2021-08-04T12:37:21Z</time>
      </trkpt>
      <trkpt lat="47.66305" lon="-2.96655">
        <ele>7.2</ele>
        <time>2021-08-04T12:37:22Z</time>
      </trkpt>
      <trkpt lat="47.66302" lon="-2.96654">
        <ele>7.2</ele>
        <time>2021-08-04T12:37:23Z</time>
      </trkpt>
      <trkpt lat="47.66299" lon="-2.96652">
        <ele>7.4</ele>
        <time>2021-08-04T12:37:24Z</time>
      </trkpt>
      <trkpt lat="47.66296" lon="-2.96651">
        <ele>7.4</ele>
        <time>2021-08-04T12:37:25Z</time>
      </trkpt>
      <trkpt lat="47.66293" lon="-2.9665">
        <ele>7.6</ele>
        <time>2021-08-04T12:37:26Z</time>
      </trkpt>
      <trkpt lat="47.66291" lon="-2.96648">
        <ele>7.6</ele>
        <time>2021-08-04T12:37:27Z</time>
      </trkpt>
      <trkpt lat="47.66289" lon="-2.96646">
        <ele>7.6</ele>
        <time>2021-08-04T12:37:28Z</time>
      </trkpt>
      <trkpt lat="47.66286" lon="-2.96645">
        <ele>7.8</ele>
        <time>2021-08-04T12:37:29Z</time>
      </trkpt>
      <trkpt lat="47.66284" lon="-2.96644">
        <ele>7.8</ele>
        <time>2021-08-04T12:37:30Z</time>
      </trkpt>
      <trkpt lat="47.66282" lon="-2.96643">
        <ele>8</ele>
        <time>2021-08-04T12:37:31Z</time>
      </trkpt>
      <trkpt lat="47.6628" lon="-2.96642">
        <ele>8.2</ele>
        <time>2021-08-04T12:37:32Z</time>
      </trkpt>
      <trkpt lat="47.66278" lon="-2.9664">
        <ele>8.4</ele>
        <time>2021-08-04T12:37:33Z</time>
      </trkpt>
      <trkpt lat="47.66276" lon="-2.9664">
        <ele>8.4</ele>
        <time>2021-08-04T12:37:34Z</time>
      </trkpt>
      <trkpt lat="47.66274" lon="-2.96639">
        <ele>8.6</ele>
        <time>2021-08-04T12:37:35Z</time>
      </trkpt>
      <trkpt lat="47.66272" lon="-2.96638">
        <ele>8.8</ele>
        <time>2021-08-04T12:37:36Z</time>
      </trkpt>
      <trkpt lat="47.6627" lon="-2.96637">
        <ele>8.8</ele>
        <time>2021-08-04T12:37:37Z</time>
      </trkpt>
      <trkpt lat="47.66269" lon="-2.96636">
        <ele>9</ele>
        <time>2021-08-04T12:37:38Z</time>
      </trkpt>
      <trkpt lat="47.66267" lon="-2.96635">
        <ele>9.2</ele>
        <time>2021-08-04T12:37:39Z</time>
      </trkpt>
      <trkpt lat="47.66265" lon="-2.96634">
        <ele>9.4</ele>
        <time>2021-08-04T12:37:40Z</time>
      </trkpt>
      <trkpt lat="47.66264" lon="-2.96634">
        <ele>9.4</ele>
        <time>2021-08-04T12:37:41Z</time>
      </trkpt>
      <trkpt lat="47.66262" lon="-2.96633">
        <ele>9.4</ele>
        <time>2021-08-04T12:37:42Z</time>
      </trkpt>
      <trkpt lat="47.6626" lon="-2.96632">
        <ele>9.4</ele>
        <time>2021-08-04T12:37:43Z</time>
      </trkpt>
      <trkpt lat="47.66258" lon="-2.96632">
        <ele>9.6</ele>
        <time>2021-08-04T12:37:44Z</time>
      </trkpt>
      <trkpt lat="47.66257" lon="-2.96631">
        <ele>9.6</ele>
        <time>2021-08-04T12:37:45Z</time>
      </trkpt>
      <trkpt lat="47.66255" lon="-2.9663">
        <ele>9.6</ele>
        <time>2021-08-04T12:37:46Z</time>
      </trkpt>
      <trkpt lat="47.66254" lon="-2.96629">
        <ele>9.8</ele>
        <time>2021-08-04T12:37:47Z</time>
      </trkpt>
      <trkpt lat="47.66252" lon="-2.96628">
        <ele>10</ele>
        <time>2021-08-04T12:37:48Z</time>
      </trkpt>
      <trkpt lat="47.6625" lon="-2.96627">
        <ele>10</ele>
        <time>2021-08-04T12:37:49Z</time>
      </trkpt>
      <trkpt lat="47.66249" lon="-2.96627">
        <ele>10</ele>
        <time>2021-08-04T12:37:50Z</time>
      </trkpt>
      <trkpt lat="47.66248" lon="-2.96626">
        <ele>10</ele>
        <time>2021-08-04T12:37:51Z</time>
      </trkpt>
      <trkpt lat="47.66246" lon="-2.96625">
        <ele>10.2</ele>
        <time>2021-08-04T12:37:52Z</time>
      </trkpt>
      <trkpt lat="47.66244" lon="-2.96624">
        <ele>10.2</ele>
        <time>2021-08-04T12:37:53Z</time>
      </trkpt>
      <trkpt lat="47.66243" lon="-2.96624">
        <ele>10.2</ele>
        <time>2021-08-04T12:37:54Z</time>
      </trkpt>
      <trkpt lat="47.66241" lon="-2.96623">
        <ele>10.4</ele>
        <time>2021-08-04T12:37:55Z</time>
      </trkpt>
      <trkpt lat="47.6624" lon="-2.96622">
        <ele>10.4</ele>
        <time>2021-08-04T12:37:56Z</time>
      </trkpt>
      <trkpt lat="47.66238" lon="-2.96621">
        <ele>10.4</ele>
        <time>2021-08-04T12:37:57Z</time>
      </trkpt>
      <trkpt lat="47.66237" lon="-2.9662">
        <ele>10.4</ele>
        <time>2021-08-04T12:37:58Z</time>
      </trkpt>
      <trkpt lat="47.66235" lon="-2.96619">
        <ele>10.6</ele>
        <time>2021-08-04T12:37:59Z</time>
      </trkpt>
      <trkpt lat="47.66233" lon="-2.96619">
        <ele>10.8</ele>
        <time>2021-08-04T12:38:00Z</time>
      </trkpt>
      <trkpt lat="47.66231" lon="-2.96618">
        <ele>10.8</ele>
        <time>2021-08-04T12:38:01Z</time>
      </trkpt>
      <trkpt lat="47.6623" lon="-2.96617">
        <ele>10.8</ele>
        <time>2021-08-04T12:38:02Z</time>
      </trkpt>
      <trkpt lat="47.66228" lon="-2.96616">
        <ele>11</ele>
        <time>2021-08-04T12:38:03Z</time>
      </trkpt>
      <trkpt lat="47.66226" lon="-2.96615">
        <ele>11</ele>
        <time>2021-08-04T12:38:04Z</time>
      </trkpt>
      <trkpt lat="47.66225" lon="-2.96613">
        <ele>11.2</ele>
        <time>2021-08-04T12:38:05Z</time>
      </trkpt>
      <trkpt lat="47.66223" lon="-2.96612">
        <ele>11.2</ele>
        <time>2021-08-04T12:38:06Z</time>
      </trkpt>
      <trkpt lat="47.66221" lon="-2.96612">
        <ele>11.4</ele>
        <time>2021-08-04T12:38:07Z</time>
      </trkpt>
      <trkpt lat="47.66219" lon="-2.96611">
        <ele>11.4</ele>
        <time>2021-08-04T12:38:08Z</time>
      </trkpt>
      <trkpt lat="47.66217" lon="-2.9661">
        <ele>11.4</ele>
        <time>2021-08-04T12:38:09Z</time>
      </trkpt>
      <trkpt lat="47.66215" lon="-2.96609">
        <ele>11.6</ele>
        <time>2021-08-04T12:38:10Z</time>
      </trkpt>
      <trkpt lat="47.66212" lon="-2.96608">
        <ele>11.6</ele>
        <time>2021-08-04T12:38:11Z</time>
      </trkpt>
      <trkpt lat="47.6621" lon="-2.96607">
        <ele>11.6</ele>
        <time>2021-08-04T12:38:12Z</time>
      </trkpt>
      <trkpt lat="47.66208" lon="-2.96606">
        <ele>11.8</ele>
        <time>2021-08-04T12:38:13Z</time>
      </trkpt>
      <trkpt lat="47.66206" lon="-2.96605">
        <ele>11.8</ele>
        <time>2021-08-04T12:38:14Z</time>
      </trkpt>
      <trkpt lat="47.66203" lon="-2.96603">
        <ele>11.8</ele>
        <time>2021-08-04T12:38:15Z</time>
      </trkpt>
      <trkpt lat="47.66201" lon="-2.96602">
        <ele>11.8</ele>
        <time>2021-08-04T12:38:16Z</time>
      </trkpt>
      <trkpt lat="47.66198" lon="-2.96601">
        <ele>11.8</ele>
        <time>2021-08-04T12:38:17Z</time>
      </trkpt>
      <trkpt lat="47.66196" lon="-2.96599">
        <ele>12</ele>
        <time>2021-08-04T12:38:18Z</time>
      </trkpt>
      <trkpt lat="47.66194" lon="-2.96598">
        <ele>12.2</ele>
        <time>2021-08-04T12:38:19Z</time>
      </trkpt>
      <trkpt lat="47.66191" lon="-2.96597">
        <ele>12.4</ele>
        <time>2021-08-04T12:38:20Z</time>
      </trkpt>
      <trkpt lat="47.66189" lon="-2.96595">
        <ele>12.4</ele>
        <time>2021-08-04T12:38:21Z</time>
      </trkpt>
      <trkpt lat="47.66186" lon="-2.96594">
        <ele>12.6</ele>
        <time>2021-08-04T12:38:22Z</time>
      </trkpt>
      <trkpt lat="47.66184" lon="-2.96593">
        <ele>12.8</ele>
        <time>2021-08-04T12:38:23Z</time>
      </trkpt>
      <trkpt lat="47.66182" lon="-2.96592">
        <ele>12.8</ele>
        <time>2021-08-04T12:38:24Z</time>
      </trkpt>
      <trkpt lat="47.6618" lon="-2.96591">
        <ele>13</ele>
        <time>2021-08-04T12:38:25Z</time>
      </trkpt>
      <trkpt lat="47.66178" lon="-2.96591">
        <ele>13</ele>
        <time>2021-08-04T12:38:26Z</time>
      </trkpt>
      <trkpt lat="47.66177" lon="-2.9659">
        <ele>13</ele>
        <time>2021-08-04T12:38:27Z</time>
      </trkpt>
      <trkpt lat="47.66175" lon="-2.96589">
        <ele>13</ele>
        <time>2021-08-04T12:38:28Z</time>
      </trkpt>
      <trkpt lat="47.66173" lon="-2.96588">
        <ele>13.2</ele>
        <time>2021-08-04T12:38:29Z</time>
      </trkpt>
      <trkpt lat="47.66171" lon="-2.96587">
        <ele>13.2</ele>
        <time>2021-08-04T12:38:30Z</time>
      </trkpt>
      <trkpt lat="47.66169" lon="-2.96586">
        <ele>13.4</ele>
        <time>2021-08-04T12:38:31Z</time>
      </trkpt>
      <trkpt lat="47.66167" lon="-2.96585">
        <ele>13.6</ele>
        <time>2021-08-04T12:38:32Z</time>
      </trkpt>
      <trkpt lat="47.66164" lon="-2.96584">
        <ele>13.6</ele>
        <time>2021-08-04T12:38:33Z</time>
      </trkpt>
      <trkpt lat="47.66162" lon="-2.96582">
        <ele>13.8</ele>
        <time>2021-08-04T12:38:34Z</time>
      </trkpt>
      <trkpt lat="47.66159" lon="-2.96581">
        <ele>13.8</ele>
        <time>2021-08-04T12:38:35Z</time>
      </trkpt>
      <trkpt lat="47.66156" lon="-2.9658">
        <ele>14</ele>
        <time>2021-08-04T12:38:36Z</time>
      </trkpt>
      <trkpt lat="47.66154" lon="-2.96579">
        <ele>14</ele>
        <time>2021-08-04T12:38:37Z</time>
      </trkpt>
      <trkpt lat="47.66151" lon="-2.96578">
        <ele>14.2</ele>
        <time>2021-08-04T12:38:38Z</time>
      </trkpt>
      <trkpt lat="47.66148" lon="-2.96578">
        <ele>14.2</ele>
        <time>2021-08-04T12:38:39Z</time>
      </trkpt>
      <trkpt lat="47.66146" lon="-2.96577">
        <ele>14.2</ele>
        <time>2021-08-04T12:38:40Z</time>
      </trkpt>
      <trkpt lat="47.66144" lon="-2.96575">
        <ele>14.2</ele>
        <time>2021-08-04T12:38:41Z</time>
      </trkpt>
      <trkpt lat="47.66142" lon="-2.96574">
        <ele>14.4</ele>
        <time>2021-08-04T12:38:42Z</time>
      </trkpt>
      <trkpt lat="47.66141" lon="-2.96573">
        <ele>14.4</ele>
        <time>2021-08-04T12:38:43Z</time>
      </trkpt>
      <trkpt lat="47.66139" lon="-2.96574">
        <ele>14.6</ele>
        <time>2021-08-04T12:38:44Z</time>
      </trkpt>
      <trkpt lat="47.66136" lon="-2.96573">
        <ele>14.8</ele>
        <time>2021-08-04T12:38:45Z</time>
      </trkpt>
      <trkpt lat="47.66133" lon="-2.96571">
        <ele>14.8</ele>
        <time>2021-08-04T12:38:46Z</time>
      </trkpt>
      <trkpt lat="47.6613" lon="-2.96571">
        <ele>15</ele>
        <time>2021-08-04T12:38:47Z</time>
      </trkpt>
      <trkpt lat="47.66127" lon="-2.9657">
        <ele>15.2</ele>
        <time>2021-08-04T12:38:48Z</time>
      </trkpt>
      <trkpt lat="47.66124" lon="-2.96568">
        <ele>15.4</ele>
        <time>2021-08-04T12:38:49Z</time>
      </trkpt>
      <trkpt lat="47.66121" lon="-2.96567">
        <ele>15.6</ele>
        <time>2021-08-04T12:38:50Z</time>
      </trkpt>
      <trkpt lat="47.66118" lon="-2.96566">
        <ele>15.6</ele>
        <time>2021-08-04T12:38:51Z</time>
      </trkpt>
      <trkpt lat="47.66116" lon="-2.96565">
        <ele>15.6</ele>
        <time>2021-08-04T12:38:52Z</time>
      </trkpt>
      <trkpt lat="47.66113" lon="-2.96563">
        <ele>15.8</ele>
        <time>2021-08-04T12:38:53Z</time>
      </trkpt>
      <trkpt lat="47.6611" lon="-2.96562">
        <ele>15.8</ele>
        <time>2021-08-04T12:38:54Z</time>
      </trkpt>
      <trkpt lat="47.66107" lon="-2.96561">
        <ele>16</ele>
        <time>2021-08-04T12:38:55Z</time>
      </trkpt>
      <trkpt lat="47.66105" lon="-2.96559">
        <ele>16.2</ele>
        <time>2021-08-04T12:38:56Z</time>
      </trkpt>
      <trkpt lat="47.66102" lon="-2.96558">
        <ele>16.4</ele>
        <time>2021-08-04T12:38:57Z</time>
      </trkpt>
      <trkpt lat="47.661" lon="-2.96557">
        <ele>16.6</ele>
        <time>2021-08-04T12:38:58Z</time>
      </trkpt>
      <trkpt lat="47.66097" lon="-2.96556">
        <ele>16.6</ele>
        <time>2021-08-04T12:38:59Z</time>
      </trkpt>
      <trkpt lat="47.66094" lon="-2.96555">
        <ele>16.8</ele>
        <time>2021-08-04T12:39:00Z</time>
      </trkpt>
      <trkpt lat="47.66092" lon="-2.96553">
        <ele>16.8</ele>
        <time>2021-08-04T12:39:01Z</time>
      </trkpt>
      <trkpt lat="47.66089" lon="-2.96551">
        <ele>17</ele>
        <time>2021-08-04T12:39:02Z</time>
      </trkpt>
      <trkpt lat="47.66086" lon="-2.9655">
        <ele>17</ele>
        <time>2021-08-04T12:39:03Z</time>
      </trkpt>
      <trkpt lat="47.66084" lon="-2.96548">
        <ele>17.2</ele>
        <time>2021-08-04T12:39:04Z</time>
      </trkpt>
      <trkpt lat="47.66081" lon="-2.96547">
        <ele>17.2</ele>
        <time>2021-08-04T12:39:05Z</time>
      </trkpt>
      <trkpt lat="47.66078" lon="-2.96546">
        <ele>17.6</ele>
        <time>2021-08-04T12:39:06Z</time>
      </trkpt>
      <trkpt lat="47.66075" lon="-2.96545">
        <ele>17.6</ele>
        <time>2021-08-04T12:39:07Z</time>
      </trkpt>
      <trkpt lat="47.66073" lon="-2.96543">
        <ele>17.8</ele>
        <time>2021-08-04T12:39:08Z</time>
      </trkpt>
      <trkpt lat="47.6607" lon="-2.96542">
        <ele>17.8</ele>
        <time>2021-08-04T12:39:09Z</time>
      </trkpt>
      <trkpt lat="47.66067" lon="-2.96541">
        <ele>17.8</ele>
        <time>2021-08-04T12:39:10Z</time>
      </trkpt>
      <trkpt lat="47.66065" lon="-2.96539">
        <ele>18</ele>
        <time>2021-08-04T12:39:11Z</time>
      </trkpt>
      <trkpt lat="47.66062" lon="-2.96538">
        <ele>18.2</ele>
        <time>2021-08-04T12:39:12Z</time>
      </trkpt>
      <trkpt lat="47.6606" lon="-2.96536">
        <ele>18.2</ele>
        <time>2021-08-04T12:39:13Z</time>
      </trkpt>
      <trkpt lat="47.66057" lon="-2.96535">
        <ele>18.4</ele>
        <time>2021-08-04T12:39:14Z</time>
      </trkpt>
      <trkpt lat="47.66055" lon="-2.96533">
        <ele>18.4</ele>
        <time>2021-08-04T12:39:15Z</time>
      </trkpt>
      <trkpt lat="47.66052" lon="-2.96532">
        <ele>18.6</ele>
        <time>2021-08-04T12:39:16Z</time>
      </trkpt>
      <trkpt lat="47.6605" lon="-2.9653">
        <ele>18.6</ele>
        <time>2021-08-04T12:39:17Z</time>
      </trkpt>
      <trkpt lat="47.66048" lon="-2.96529">
        <ele>18.8</ele>
        <time>2021-08-04T12:39:18Z</time>
      </trkpt>
      <trkpt lat="47.66045" lon="-2.96528">
        <ele>18.8</ele>
        <time>2021-08-04T12:39:19Z</time>
      </trkpt>
      <trkpt lat="47.66043" lon="-2.96527">
        <ele>19</ele>
        <time>2021-08-04T12:39:20Z</time>
      </trkpt>
      <trkpt lat="47.6604" lon="-2.96526">
        <ele>19.2</ele>
        <time>2021-08-04T12:39:21Z</time>
      </trkpt>
      <trkpt lat="47.66038" lon="-2.96524">
        <ele>19.2</ele>
        <time>2021-08-04T12:39:22Z</time>
      </trkpt>
      <trkpt lat="47.66035" lon="-2.96524">
        <ele>19.4</ele>
        <time>2021-08-04T12:39:23Z</time>
      </trkpt>
      <trkpt lat="47.66033" lon="-2.96523">
        <ele>19.6</ele>
        <time>2021-08-04T12:39:24Z</time>
      </trkpt>
      <trkpt lat="47.66031" lon="-2.96524">
        <ele>19.6</ele>
        <time>2021-08-04T12:39:25Z</time>
      </trkpt>
      <trkpt lat="47.66029" lon="-2.96525">
        <ele>19.8</ele>
        <time>2021-08-04T12:39:26Z</time>
      </trkpt>
      <trkpt lat="47.66027" lon="-2.96525">
        <ele>19.8</ele>
        <time>2021-08-04T12:39:27Z</time>
      </trkpt>
      <trkpt lat="47.66025" lon="-2.96526">
        <ele>20</ele>
        <time>2021-08-04T12:39:28Z</time>
      </trkpt>
      <trkpt lat="47.66023" lon="-2.96526">
        <ele>20</ele>
        <time>2021-08-04T12:39:29Z</time>
      </trkpt>
      <trkpt lat="47.66022" lon="-2.96527">
        <ele>20.2</ele>
        <time>2021-08-04T12:39:30Z</time>
      </trkpt>
      <trkpt lat="47.66021" lon="-2.96527">
        <ele>20.4</ele>
        <time>2021-08-04T12:39:31Z</time>
      </trkpt>
      <trkpt lat="47.6602" lon="-2.96527">
        <ele>20.6</ele>
        <time>2021-08-04T12:39:32Z</time>
      </trkpt>
      <trkpt lat="47.66019" lon="-2.96528">
        <ele>20.6</ele>
        <time>2021-08-04T12:39:33Z</time>
      </trkpt>
      <trkpt lat="47.66018" lon="-2.96529">
        <ele>20.8</ele>
        <time>2021-08-04T12:39:34Z</time>
      </trkpt>
      <trkpt lat="47.66018" lon="-2.96529">
        <ele>20.8</ele>
        <time>2021-08-04T12:39:35Z</time>
      </trkpt>
      <trkpt lat="47.66018" lon="-2.96529">
        <ele>21</ele>
        <time>2021-08-04T12:39:36Z</time>
      </trkpt>
      <trkpt lat="47.66018" lon="-2.96529">
        <ele>21</ele>
        <time>2021-08-04T12:39:37Z</time>
      </trkpt>
      <trkpt lat="47.66012" lon="-2.96528">
        <ele>21</ele>
        <time>2021-08-04T12:41:59Z</time>
      </trkpt>
      <trkpt lat="47.6601" lon="-2.96527">
        <ele>21</ele>
        <time>2021-08-04T12:42:00Z</time>
      </trkpt>
      <trkpt lat="47.66008" lon="-2.96525">
        <ele>21.2</ele>
        <time>2021-08-04T12:42:01Z</time>
      </trkpt>
      <trkpt lat="47.66006" lon="-2.96523">
        <ele>21.2</ele>
        <time>2021-08-04T12:42:02Z</time>
      </trkpt>
      <trkpt lat="47.66003" lon="-2.96521">
        <ele>21.2</ele>
        <time>2021-08-04T12:42:03Z</time>
      </trkpt>
      <trkpt lat="47.66" lon="-2.96519">
        <ele>21.2</ele>
        <time>2021-08-04T12:42:04Z</time>
      </trkpt>
      <trkpt lat="47.65997" lon="-2.96517">
        <ele>21.2</ele>
        <time>2021-08-04T12:42:05Z</time>
      </trkpt>
      <trkpt lat="47.65993" lon="-2.96515">
        <ele>21.2</ele>
        <time>2021-08-04T12:42:06Z</time>
      </trkpt>
      <trkpt lat="47.65989" lon="-2.96512">
        <ele>21.4</ele>
        <time>2021-08-04T12:42:07Z</time>
      </trkpt>
      <trkpt lat="47.65985" lon="-2.96509">
        <ele>21.4</ele>
        <time>2021-08-04T12:42:08Z</time>
      </trkpt>
      <trkpt lat="47.65981" lon="-2.96506">
        <ele>21.4</ele>
        <time>2021-08-04T12:42:09Z</time>
      </trkpt>
      <trkpt lat="47.65977" lon="-2.96503">
        <ele>21.4</ele>
        <time>2021-08-04T12:42:10Z</time>
      </trkpt>
      <trkpt lat="47.65972" lon="-2.965">
        <ele>21.4</ele>
        <time>2021-08-04T12:42:11Z</time>
      </trkpt>
      <trkpt lat="47.65968" lon="-2.96496">
        <ele>21.4</ele>
        <time>2021-08-04T12:42:12Z</time>
      </trkpt>
      <trkpt lat="47.65963" lon="-2.96493">
        <ele>21.4</ele>
        <time>2021-08-04T12:42:13Z</time>
      </trkpt>
      <trkpt lat="47.65958" lon="-2.96489">
        <ele>21.4</ele>
        <time>2021-08-04T12:42:14Z</time>
      </trkpt>
      <trkpt lat="47.65953" lon="-2.96486">
        <ele>21.4</ele>
        <time>2021-08-04T12:42:15Z</time>
      </trkpt>
      <trkpt lat="47.65948" lon="-2.96482">
        <ele>21.4</ele>
        <time>2021-08-04T12:42:16Z</time>
      </trkpt>
      <trkpt lat="47.65943" lon="-2.96479">
        <ele>21.4</ele>
        <time>2021-08-04T12:42:17Z</time>
      </trkpt>
      <trkpt lat="47.65938" lon="-2.96475">
        <ele>21.4</ele>
        <time>2021-08-04T12:42:18Z</time>
      </trkpt>
      <trkpt lat="47.65933" lon="-2.9647">
        <ele>21.2</ele>
        <time>2021-08-04T12:42:19Z</time>
      </trkpt>
      <trkpt lat="47.65928" lon="-2.96465">
        <ele>21.2</ele>
        <time>2021-08-04T12:42:20Z</time>
      </trkpt>
      <trkpt lat="47.65922" lon="-2.96461">
        <ele>21</ele>
        <time>2021-08-04T12:42:21Z</time>
      </trkpt>
      <trkpt lat="47.65917" lon="-2.96456">
        <ele>21</ele>
        <time>2021-08-04T12:42:22Z</time>
      </trkpt>
      <trkpt lat="47.65911" lon="-2.96452">
        <ele>21</ele>
        <time>2021-08-04T12:42:23Z</time>
      </trkpt>
      <trkpt lat="47.65905" lon="-2.96447">
        <ele>20.8</ele>
        <time>2021-08-04T12:42:24Z</time>
      </trkpt>
      <trkpt lat="47.65899" lon="-2.96443">
        <ele>20.8</ele>
        <time>2021-08-04T12:42:25Z</time>
      </trkpt>
      <trkpt lat="47.65892" lon="-2.96438">
        <ele>20.8</ele>
        <time>2021-08-04T12:42:26Z</time>
      </trkpt>
      <trkpt lat="47.65886" lon="-2.96433">
        <ele>20.8</ele>
        <time>2021-08-04T12:42:27Z</time>
      </trkpt>
      <trkpt lat="47.65879" lon="-2.96428">
        <ele>20.6</ele>
        <time>2021-08-04T12:42:28Z</time>
      </trkpt>
      <trkpt lat="47.65872" lon="-2.96423">
        <ele>20.4</ele>
        <time>2021-08-04T12:42:29Z</time>
      </trkpt>
      <trkpt lat="47.65866" lon="-2.96418">
        <ele>20.2</ele>
        <time>2021-08-04T12:42:30Z</time>
      </trkpt>
      <trkpt lat="47.65859" lon="-2.96413">
        <ele>20</ele>
        <time>2021-08-04T12:42:31Z</time>
      </trkpt>
      <trkpt lat="47.65852" lon="-2.96408">
        <ele>19.8</ele>
        <time>2021-08-04T12:42:32Z</time>
      </trkpt>
      <trkpt lat="47.65846" lon="-2.96404">
        <ele>19.6</ele>
        <time>2021-08-04T12:42:33Z</time>
      </trkpt>
      <trkpt lat="47.65839" lon="-2.96401">
        <ele>19.4</ele>
        <time>2021-08-04T12:42:34Z</time>
      </trkpt>
      <trkpt lat="47.65833" lon="-2.964">
        <ele>19</ele>
        <time>2021-08-04T12:42:35Z</time>
      </trkpt>
      <trkpt lat="47.65827" lon="-2.964">
        <ele>18.4</ele>
        <time>2021-08-04T12:42:36Z</time>
      </trkpt>
      <trkpt lat="47.65821" lon="-2.96398">
        <ele>18</ele>
        <time>2021-08-04T12:42:37Z</time>
      </trkpt>
      <trkpt lat="47.65817" lon="-2.96393">
        <ele>17.6</ele>
        <time>2021-08-04T12:42:38Z</time>
      </trkpt>
      <trkpt lat="47.65815" lon="-2.96386">
        <ele>17.6</ele>
        <time>2021-08-04T12:42:39Z</time>
      </trkpt>
      <trkpt lat="47.65811" lon="-2.9638">
        <ele>17.4</ele>
        <time>2021-08-04T12:42:40Z</time>
      </trkpt>
      <trkpt lat="47.65807" lon="-2.96376">
        <ele>17.4</ele>
        <time>2021-08-04T12:42:41Z</time>
      </trkpt>
      <trkpt lat="47.65802" lon="-2.96372">
        <ele>17.2</ele>
        <time>2021-08-04T12:42:42Z</time>
      </trkpt>
      <trkpt lat="47.65798" lon="-2.96369">
        <ele>17.4</ele>
        <time>2021-08-04T12:42:43Z</time>
      </trkpt>
      <trkpt lat="47.65793" lon="-2.96365">
        <ele>17.2</ele>
        <time>2021-08-04T12:42:44Z</time>
      </trkpt>
      <trkpt lat="47.65788" lon="-2.96362">
        <ele>17.2</ele>
        <time>2021-08-04T12:42:45Z</time>
      </trkpt>
      <trkpt lat="47.65784" lon="-2.96358">
        <ele>17</ele>
        <time>2021-08-04T12:42:46Z</time>
      </trkpt>
      <trkpt lat="47.65779" lon="-2.96355">
        <ele>17.4</ele>
        <time>2021-08-04T12:42:47Z</time>
      </trkpt>
      <trkpt lat="47.65774" lon="-2.96351">
        <ele>17.6</ele>
        <time>2021-08-04T12:42:48Z</time>
      </trkpt>
      <trkpt lat="47.6577" lon="-2.96348">
        <ele>17.8</ele>
        <time>2021-08-04T12:42:49Z</time>
      </trkpt>
      <trkpt lat="47.65765" lon="-2.96344">
        <ele>18</ele>
        <time>2021-08-04T12:42:50Z</time>
      </trkpt>
      <trkpt lat="47.65761" lon="-2.96341">
        <ele>18.2</ele>
        <time>2021-08-04T12:42:51Z</time>
      </trkpt>
      <trkpt lat="47.65757" lon="-2.96337">
        <ele>18.2</ele>
        <time>2021-08-04T12:42:52Z</time>
      </trkpt>
      <trkpt lat="47.65753" lon="-2.96334">
        <ele>18.4</ele>
        <time>2021-08-04T12:42:53Z</time>
      </trkpt>
      <trkpt lat="47.65749" lon="-2.96331">
        <ele>18.4</ele>
        <time>2021-08-04T12:42:54Z</time>
      </trkpt>
      <trkpt lat="47.65746" lon="-2.96328">
        <ele>18.4</ele>
        <time>2021-08-04T12:42:55Z</time>
      </trkpt>
      <trkpt lat="47.65742" lon="-2.96326">
        <ele>18.4</ele>
        <time>2021-08-04T12:42:56Z</time>
      </trkpt>
      <trkpt lat="47.65738" lon="-2.96323">
        <ele>18.4</ele>
        <time>2021-08-04T12:42:57Z</time>
      </trkpt>
      <trkpt lat="47.65735" lon="-2.9632">
        <ele>18.6</ele>
        <time>2021-08-04T12:42:58Z</time>
      </trkpt>
      <trkpt lat="47.65732" lon="-2.96318">
        <ele>18.6</ele>
        <time>2021-08-04T12:42:59Z</time>
      </trkpt>
      <trkpt lat="47.65728" lon="-2.96315">
        <ele>18.8</ele>
        <time>2021-08-04T12:43:00Z</time>
      </trkpt>
      <trkpt lat="47.65725" lon="-2.96312">
        <ele>18.8</ele>
        <time>2021-08-04T12:43:01Z</time>
      </trkpt>
      <trkpt lat="47.65721" lon="-2.96309">
        <ele>19</ele>
        <time>2021-08-04T12:43:02Z</time>
      </trkpt>
      <trkpt lat="47.65718" lon="-2.96307">
        <ele>19.4</ele>
        <time>2021-08-04T12:43:03Z</time>
      </trkpt>
      <trkpt lat="47.65715" lon="-2.96305">
        <ele>19.4</ele>
        <time>2021-08-04T12:43:04Z</time>
      </trkpt>
      <trkpt lat="47.65711" lon="-2.96302">
        <ele>19.6</ele>
        <time>2021-08-04T12:43:05Z</time>
      </trkpt>
      <trkpt lat="47.65708" lon="-2.96299">
        <ele>19.6</ele>
        <time>2021-08-04T12:43:06Z</time>
      </trkpt>
      <trkpt lat="47.65705" lon="-2.96297">
        <ele>19.6</ele>
        <time>2021-08-04T12:43:07Z</time>
      </trkpt>
      <trkpt lat="47.65701" lon="-2.96295">
        <ele>19.8</ele>
        <time>2021-08-04T12:43:08Z</time>
      </trkpt>
      <trkpt lat="47.65698" lon="-2.96292">
        <ele>19.8</ele>
        <time>2021-08-04T12:43:09Z</time>
      </trkpt>
      <trkpt lat="47.65695" lon="-2.9629">
        <ele>20</ele>
        <time>2021-08-04T12:43:10Z</time>
      </trkpt>
      <trkpt lat="47.65692" lon="-2.96287">
        <ele>20</ele>
        <time>2021-08-04T12:43:11Z</time>
      </trkpt>
      <trkpt lat="47.65689" lon="-2.96285">
        <ele>20</ele>
        <time>2021-08-04T12:43:12Z</time>
      </trkpt>
      <trkpt lat="47.65687" lon="-2.96283">
        <ele>20</ele>
        <time>2021-08-04T12:43:13Z</time>
      </trkpt>
      <trkpt lat="47.65684" lon="-2.96282">
        <ele>20.2</ele>
        <time>2021-08-04T12:43:14Z</time>
      </trkpt>
      <trkpt lat="47.65681" lon="-2.9628">
        <ele>20.2</ele>
        <time>2021-08-04T12:43:15Z</time>
      </trkpt>
      <trkpt lat="47.65678" lon="-2.96278">
        <ele>20.2</ele>
        <time>2021-08-04T12:43:16Z</time>
      </trkpt>
      <trkpt lat="47.65676" lon="-2.96276">
        <ele>20.4</ele>
        <time>2021-08-04T12:43:17Z</time>
      </trkpt>
      <trkpt lat="47.65673" lon="-2.96274">
        <ele>20.4</ele>
        <time>2021-08-04T12:43:18Z</time>
      </trkpt>
      <trkpt lat="47.6567" lon="-2.96272">
        <ele>20.4</ele>
        <time>2021-08-04T12:43:19Z</time>
      </trkpt>
      <trkpt lat="47.65667" lon="-2.9627">
        <ele>20.6</ele>
        <time>2021-08-04T12:43:20Z</time>
      </trkpt>
      <trkpt lat="47.65664" lon="-2.96268">
        <ele>20.6</ele>
        <time>2021-08-04T12:43:21Z</time>
      </trkpt>
      <trkpt lat="47.65662" lon="-2.96266">
        <ele>20.8</ele>
        <time>2021-08-04T12:43:22Z</time>
      </trkpt>
      <trkpt lat="47.65659" lon="-2.96264">
        <ele>20.8</ele>
        <time>2021-08-04T12:43:23Z</time>
      </trkpt>
      <trkpt lat="47.65656" lon="-2.96262">
        <ele>20.8</ele>
        <time>2021-08-04T12:43:24Z</time>
      </trkpt>
      <trkpt lat="47.65653" lon="-2.9626">
        <ele>20.8</ele>
        <time>2021-08-04T12:43:25Z</time>
      </trkpt>
      <trkpt lat="47.6565" lon="-2.96257">
        <ele>20.8</ele>
        <time>2021-08-04T12:43:26Z</time>
      </trkpt>
      <trkpt lat="47.65647" lon="-2.96255">
        <ele>20.8</ele>
        <time>2021-08-04T12:43:27Z</time>
      </trkpt>
      <trkpt lat="47.65644" lon="-2.96253">
        <ele>20.8</ele>
        <time>2021-08-04T12:43:28Z</time>
      </trkpt>
      <trkpt lat="47.65641" lon="-2.96251">
        <ele>21</ele>
        <time>2021-08-04T12:43:29Z</time>
      </trkpt>
      <trkpt lat="47.65638" lon="-2.96248">
        <ele>21</ele>
        <time>2021-08-04T12:43:30Z</time>
      </trkpt>
      <trkpt lat="47.65635" lon="-2.96246">
        <ele>21</ele>
        <time>2021-08-04T12:43:31Z</time>
      </trkpt>
      <trkpt lat="47.65632" lon="-2.96244">
        <ele>21</ele>
        <time>2021-08-04T12:43:32Z</time>
      </trkpt>
      <trkpt lat="47.65629" lon="-2.96242">
        <ele>21.2</ele>
        <time>2021-08-04T12:43:33Z</time>
      </trkpt>
      <trkpt lat="47.65626" lon="-2.96239">
        <ele>21.2</ele>
        <time>2021-08-04T12:43:34Z</time>
      </trkpt>
      <trkpt lat="47.65623" lon="-2.96237">
        <ele>21.2</ele>
        <time>2021-08-04T12:43:35Z</time>
      </trkpt>
      <trkpt lat="47.6562" lon="-2.96235">
        <ele>21.2</ele>
        <time>2021-08-04T12:43:36Z</time>
      </trkpt>
      <trkpt lat="47.65617" lon="-2.96233">
        <ele>21.2</ele>
        <time>2021-08-04T12:43:37Z</time>
      </trkpt>
      <trkpt lat="47.65613" lon="-2.9623">
        <ele>21.2</ele>
        <time>2021-08-04T12:43:38Z</time>
      </trkpt>
      <trkpt lat="47.6561" lon="-2.96228">
        <ele>21.2</ele>
        <time>2021-08-04T12:43:39Z</time>
      </trkpt>
      <trkpt lat="47.65607" lon="-2.96226">
        <ele>21.2</ele>
        <time>2021-08-04T12:43:40Z</time>
      </trkpt>
      <trkpt lat="47.65604" lon="-2.96224">
        <ele>21.4</ele>
        <time>2021-08-04T12:43:41Z</time>
      </trkpt>
      <trkpt lat="47.65601" lon="-2.96221">
        <ele>21.4</ele>
        <time>2021-08-04T12:43:42Z</time>
      </trkpt>
      <trkpt lat="47.65598" lon="-2.96219">
        <ele>21.4</ele>
        <time>2021-08-04T12:43:43Z</time>
      </trkpt>
      <trkpt lat="47.65595" lon="-2.96217">
        <ele>21.4</ele>
        <time>2021-08-04T12:43:44Z</time>
      </trkpt>
      <trkpt lat="47.65591" lon="-2.96215">
        <ele>21.4</ele>
        <time>2021-08-04T12:43:45Z</time>
      </trkpt>
      <trkpt lat="47.65588" lon="-2.96213">
        <ele>21.6</ele>
        <time>2021-08-04T12:43:46Z</time>
      </trkpt>
      <trkpt lat="47.65585" lon="-2.9621">
        <ele>21.6</ele>
        <time>2021-08-04T12:43:47Z</time>
      </trkpt>
      <trkpt lat="47.65581" lon="-2.96208">
        <ele>21.6</ele>
        <time>2021-08-04T12:43:48Z</time>
      </trkpt>
      <trkpt lat="47.65578" lon="-2.96206">
        <ele>21.6</ele>
        <time>2021-08-04T12:43:49Z</time>
      </trkpt>
      <trkpt lat="47.65574" lon="-2.96204">
        <ele>21.8</ele>
        <time>2021-08-04T12:43:50Z</time>
      </trkpt>
      <trkpt lat="47.65571" lon="-2.96202">
        <ele>21.8</ele>
        <time>2021-08-04T12:43:51Z</time>
      </trkpt>
      <trkpt lat="47.65568" lon="-2.96199">
        <ele>22</ele>
        <time>2021-08-04T12:43:52Z</time>
      </trkpt>
      <trkpt lat="47.65564" lon="-2.96197">
        <ele>22</ele>
        <time>2021-08-04T12:43:53Z</time>
      </trkpt>
      <trkpt lat="47.6556" lon="-2.96195">
        <ele>22</ele>
        <time>2021-08-04T12:43:54Z</time>
      </trkpt>
      <trkpt lat="47.65556" lon="-2.96193">
        <ele>22</ele>
        <time>2021-08-04T12:43:55Z</time>
      </trkpt>
      <trkpt lat="47.65552" lon="-2.96191">
        <ele>22</ele>
        <time>2021-08-04T12:43:56Z</time>
      </trkpt>
      <trkpt lat="47.65547" lon="-2.96189">
        <ele>22</ele>
        <time>2021-08-04T12:43:57Z</time>
      </trkpt>
      <trkpt lat="47.65543" lon="-2.96187">
        <ele>22</ele>
        <time>2021-08-04T12:43:58Z</time>
      </trkpt>
      <trkpt lat="47.65538" lon="-2.96185">
        <ele>22</ele>
        <time>2021-08-04T12:43:59Z</time>
      </trkpt>
      <trkpt lat="47.65532" lon="-2.96183">
        <ele>22</ele>
        <time>2021-08-04T12:44:00Z</time>
      </trkpt>
      <trkpt lat="47.65526" lon="-2.9618">
        <ele>22</ele>
        <time>2021-08-04T12:44:01Z</time>
      </trkpt>
      <trkpt lat="47.6552" lon="-2.96178">
        <ele>22</ele>
        <time>2021-08-04T12:44:02Z</time>
      </trkpt>
      <trkpt lat="47.65514" lon="-2.96177">
        <ele>22</ele>
        <time>2021-08-04T12:44:03Z</time>
      </trkpt>
      <trkpt lat="47.65507" lon="-2.96175">
        <ele>22</ele>
        <time>2021-08-04T12:44:04Z</time>
      </trkpt>
      <trkpt lat="47.65501" lon="-2.96173">
        <ele>21.8</ele>
        <time>2021-08-04T12:44:05Z</time>
      </trkpt>
      <trkpt lat="47.65493" lon="-2.96171">
        <ele>21.8</ele>
        <time>2021-08-04T12:44:06Z</time>
      </trkpt>
      <trkpt lat="47.65486" lon="-2.96168">
        <ele>21.8</ele>
        <time>2021-08-04T12:44:07Z</time>
      </trkpt>
      <trkpt lat="47.65478" lon="-2.96167">
        <ele>21.8</ele>
        <time>2021-08-04T12:44:08Z</time>
      </trkpt>
      <trkpt lat="47.6547" lon="-2.96165">
        <ele>21.8</ele>
        <time>2021-08-04T12:44:09Z</time>
      </trkpt>
      <trkpt lat="47.65462" lon="-2.96164">
        <ele>21.8</ele>
        <time>2021-08-04T12:44:10Z</time>
      </trkpt>
      <trkpt lat="47.65453" lon="-2.96163">
        <ele>21.8</ele>
        <time>2021-08-04T12:44:11Z</time>
      </trkpt>
      <trkpt lat="47.65444" lon="-2.96162">
        <ele>21.6</ele>
        <time>2021-08-04T12:44:12Z</time>
      </trkpt>
      <trkpt lat="47.65435" lon="-2.96161">
        <ele>21.6</ele>
        <time>2021-08-04T12:44:13Z</time>
      </trkpt>
      <trkpt lat="47.65426" lon="-2.96161">
        <ele>21.6</ele>
        <time>2021-08-04T12:44:14Z</time>
      </trkpt>
      <trkpt lat="47.65417" lon="-2.96161">
        <ele>21.6</ele>
        <time>2021-08-04T12:44:15Z</time>
      </trkpt>
      <trkpt lat="47.65408" lon="-2.96161">
        <ele>21.6</ele>
        <time>2021-08-04T12:44:16Z</time>
      </trkpt>
      <trkpt lat="47.65399" lon="-2.96161">
        <ele>21.6</ele>
        <time>2021-08-04T12:44:17Z</time>
      </trkpt>
      <trkpt lat="47.65389" lon="-2.96161">
        <ele>21.6</ele>
        <time>2021-08-04T12:44:18Z</time>
      </trkpt>
      <trkpt lat="47.6538" lon="-2.96161">
        <ele>21.4</ele>
        <time>2021-08-04T12:44:19Z</time>
      </trkpt>
      <trkpt lat="47.6537" lon="-2.96161">
        <ele>21.4</ele>
        <time>2021-08-04T12:44:20Z</time>
      </trkpt>
      <trkpt lat="47.65361" lon="-2.96161">
        <ele>21.4</ele>
        <time>2021-08-04T12:44:21Z</time>
      </trkpt>
      <trkpt lat="47.65352" lon="-2.96162">
        <ele>21.4</ele>
        <time>2021-08-04T12:44:22Z</time>
      </trkpt>
      <trkpt lat="47.65342" lon="-2.96162">
        <ele>21.4</ele>
        <time>2021-08-04T12:44:23Z</time>
      </trkpt>
      <trkpt lat="47.65334" lon="-2.96162">
        <ele>21.2</ele>
        <time>2021-08-04T12:44:24Z</time>
      </trkpt>
      <trkpt lat="47.65327" lon="-2.96162">
        <ele>21.2</ele>
        <time>2021-08-04T12:44:25Z</time>
      </trkpt>
      <trkpt lat="47.65322" lon="-2.96162">
        <ele>21.2</ele>
        <time>2021-08-04T12:44:26Z</time>
      </trkpt>
      <trkpt lat="47.65317" lon="-2.96162">
        <ele>21</ele>
        <time>2021-08-04T12:44:27Z</time>
      </trkpt>
      <trkpt lat="47.65313" lon="-2.96162">
        <ele>21</ele>
        <time>2021-08-04T12:44:28Z</time>
      </trkpt>
      <trkpt lat="47.65309" lon="-2.96162">
        <ele>21.2</ele>
        <time>2021-08-04T12:44:29Z</time>
      </trkpt>
      <trkpt lat="47.65305" lon="-2.96162">
        <ele>21.2</ele>
        <time>2021-08-04T12:44:30Z</time>
      </trkpt>
      <trkpt lat="47.65301" lon="-2.96162">
        <ele>21.4</ele>
        <time>2021-08-04T12:44:31Z</time>
      </trkpt>
      <trkpt lat="47.65297" lon="-2.96162">
        <ele>21.4</ele>
        <time>2021-08-04T12:44:32Z</time>
      </trkpt>
      <trkpt lat="47.65293" lon="-2.96162">
        <ele>21.4</ele>
        <time>2021-08-04T12:44:33Z</time>
      </trkpt>
      <trkpt lat="47.65289" lon="-2.96163">
        <ele>21.6</ele>
        <time>2021-08-04T12:44:34Z</time>
      </trkpt>
      <trkpt lat="47.65285" lon="-2.96163">
        <ele>21.6</ele>
        <time>2021-08-04T12:44:35Z</time>
      </trkpt>
      <trkpt lat="47.65281" lon="-2.96164">
        <ele>21.8</ele>
        <time>2021-08-04T12:44:36Z</time>
      </trkpt>
      <trkpt lat="47.65277" lon="-2.96164">
        <ele>21.8</ele>
        <time>2021-08-04T12:44:37Z</time>
      </trkpt>
      <trkpt lat="47.65272" lon="-2.96164">
        <ele>21.8</ele>
        <time>2021-08-04T12:44:38Z</time>
      </trkpt>
      <trkpt lat="47.65268" lon="-2.96164">
        <ele>21.8</ele>
        <time>2021-08-04T12:44:39Z</time>
      </trkpt>
      <trkpt lat="47.65264" lon="-2.96164">
        <ele>21.8</ele>
        <time>2021-08-04T12:44:40Z</time>
      </trkpt>
      <trkpt lat="47.6526" lon="-2.96164">
        <ele>21.8</ele>
        <time>2021-08-04T12:44:41Z</time>
      </trkpt>
      <trkpt lat="47.65256" lon="-2.96165">
        <ele>21.8</ele>
        <time>2021-08-04T12:44:42Z</time>
      </trkpt>
      <trkpt lat="47.65252" lon="-2.96166">
        <ele>21.8</ele>
        <time>2021-08-04T12:44:43Z</time>
      </trkpt>
      <trkpt lat="47.65247" lon="-2.96166">
        <ele>21.8</ele>
        <time>2021-08-04T12:44:44Z</time>
      </trkpt>
      <trkpt lat="47.65243" lon="-2.96166">
        <ele>21.8</ele>
        <time>2021-08-04T12:44:45Z</time>
      </trkpt>
      <trkpt lat="47.65239" lon="-2.96165">
        <ele>21.8</ele>
        <time>2021-08-04T12:44:46Z</time>
      </trkpt>
      <trkpt lat="47.65234" lon="-2.96166">
        <ele>21.8</ele>
        <time>2021-08-04T12:44:47Z</time>
      </trkpt>
      <trkpt lat="47.6523" lon="-2.96166">
        <ele>21.8</ele>
        <time>2021-08-04T12:44:48Z</time>
      </trkpt>
      <trkpt lat="47.65226" lon="-2.96166">
        <ele>21.6</ele>
        <time>2021-08-04T12:44:49Z</time>
      </trkpt>
      <trkpt lat="47.65221" lon="-2.96166">
        <ele>21.6</ele>
        <time>2021-08-04T12:44:50Z</time>
      </trkpt>
      <trkpt lat="47.65217" lon="-2.96167">
        <ele>21.6</ele>
        <time>2021-08-04T12:44:51Z</time>
      </trkpt>
      <trkpt lat="47.65213" lon="-2.96167">
        <ele>21.6</ele>
        <time>2021-08-04T12:44:52Z</time>
      </trkpt>
      <trkpt lat="47.65209" lon="-2.96167">
        <ele>21.4</ele>
        <time>2021-08-04T12:44:53Z</time>
      </trkpt>
      <trkpt lat="47.65206" lon="-2.96167">
        <ele>21.4</ele>
        <time>2021-08-04T12:44:54Z</time>
      </trkpt>
      <trkpt lat="47.65204" lon="-2.96167">
        <ele>21.4</ele>
        <time>2021-08-04T12:44:55Z</time>
      </trkpt>
      <trkpt lat="47.65202" lon="-2.96167">
        <ele>21.4</ele>
        <time>2021-08-04T12:44:56Z</time>
      </trkpt>
      <trkpt lat="47.65203" lon="-2.96168">
        <ele>21.2</ele>
        <time>2021-08-04T12:45:04Z</time>
      </trkpt>
      <trkpt lat="47.65202" lon="-2.96168">
        <ele>21.2</ele>
        <time>2021-08-04T12:45:05Z</time>
      </trkpt>
      <trkpt lat="47.65201" lon="-2.96168">
        <ele>21.2</ele>
        <time>2021-08-04T12:45:06Z</time>
      </trkpt>
      <trkpt lat="47.65199" lon="-2.96168">
        <ele>21.2</ele>
        <time>2021-08-04T12:45:07Z</time>
      </trkpt>
      <trkpt lat="47.65196" lon="-2.96167">
        <ele>21.2</ele>
        <time>2021-08-04T12:45:08Z</time>
      </trkpt>
      <trkpt lat="47.65193" lon="-2.96168">
        <ele>21.2</ele>
        <time>2021-08-04T12:45:09Z</time>
      </trkpt>
      <trkpt lat="47.6519" lon="-2.96167">
        <ele>21.2</ele>
        <time>2021-08-04T12:45:10Z</time>
      </trkpt>
      <trkpt lat="47.65186" lon="-2.96167">
        <ele>21.2</ele>
        <time>2021-08-04T12:45:11Z</time>
      </trkpt>
      <trkpt lat="47.65182" lon="-2.96167">
        <ele>21</ele>
        <time>2021-08-04T12:45:12Z</time>
      </trkpt>
      <trkpt lat="47.65177" lon="-2.96167">
        <ele>21</ele>
        <time>2021-08-04T12:45:13Z</time>
      </trkpt>
      <trkpt lat="47.65172" lon="-2.96167">
        <ele>21</ele>
        <time>2021-08-04T12:45:14Z</time>
      </trkpt>
      <trkpt lat="47.65167" lon="-2.96167">
        <ele>20.8</ele>
        <time>2021-08-04T12:45:15Z</time>
      </trkpt>
      <trkpt lat="47.65162" lon="-2.96167">
        <ele>20.8</ele>
        <time>2021-08-04T12:45:16Z</time>
      </trkpt>
      <trkpt lat="47.65157" lon="-2.96167">
        <ele>20.8</ele>
        <time>2021-08-04T12:45:17Z</time>
      </trkpt>
      <trkpt lat="47.65151" lon="-2.96167">
        <ele>20.6</ele>
        <time>2021-08-04T12:45:18Z</time>
      </trkpt>
      <trkpt lat="47.65145" lon="-2.96168">
        <ele>20.6</ele>
        <time>2021-08-04T12:45:19Z</time>
      </trkpt>
      <trkpt lat="47.65139" lon="-2.96168">
        <ele>20.6</ele>
        <time>2021-08-04T12:45:20Z</time>
      </trkpt>
      <trkpt lat="47.65133" lon="-2.96168">
        <ele>20.4</ele>
        <time>2021-08-04T12:45:21Z</time>
      </trkpt>
      <trkpt lat="47.65126" lon="-2.96168">
        <ele>20.4</ele>
        <time>2021-08-04T12:45:22Z</time>
      </trkpt>
      <trkpt lat="47.6512" lon="-2.96168">
        <ele>20.2</ele>
        <time>2021-08-04T12:45:23Z</time>
      </trkpt>
      <trkpt lat="47.65113" lon="-2.96168">
        <ele>20</ele>
        <time>2021-08-04T12:45:24Z</time>
      </trkpt>
      <trkpt lat="47.65106" lon="-2.96167">
        <ele>20</ele>
        <time>2021-08-04T12:45:25Z</time>
      </trkpt>
      <trkpt lat="47.65099" lon="-2.96166">
        <ele>20</ele>
        <time>2021-08-04T12:45:26Z</time>
      </trkpt>
      <trkpt lat="47.65092" lon="-2.96166">
        <ele>19.8</ele>
        <time>2021-08-04T12:45:27Z</time>
      </trkpt>
      <trkpt lat="47.65085" lon="-2.96165">
        <ele>19.8</ele>
        <time>2021-08-04T12:45:28Z</time>
      </trkpt>
      <trkpt lat="47.65077" lon="-2.96164">
        <ele>19.8</ele>
        <time>2021-08-04T12:45:29Z</time>
      </trkpt>
      <trkpt lat="47.6507" lon="-2.96164">
        <ele>19.6</ele>
        <time>2021-08-04T12:45:30Z</time>
      </trkpt>
      <trkpt lat="47.65063" lon="-2.96163">
        <ele>19.6</ele>
        <time>2021-08-04T12:45:31Z</time>
      </trkpt>
      <trkpt lat="47.65055" lon="-2.96161">
        <ele>19.4</ele>
        <time>2021-08-04T12:45:32Z</time>
      </trkpt>
      <trkpt lat="47.65048" lon="-2.9616">
        <ele>19.4</ele>
        <time>2021-08-04T12:45:33Z</time>
      </trkpt>
      <trkpt lat="47.65041" lon="-2.96158">
        <ele>19</ele>
        <time>2021-08-04T12:45:34Z</time>
      </trkpt>
      <trkpt lat="47.65033" lon="-2.96157">
        <ele>18.8</ele>
        <time>2021-08-04T12:45:35Z</time>
      </trkpt>
      <trkpt lat="47.65026" lon="-2.96156">
        <ele>18.2</ele>
        <time>2021-08-04T12:45:36Z</time>
      </trkpt>
      <trkpt lat="47.65018" lon="-2.96154">
        <ele>17.8</ele>
        <time>2021-08-04T12:45:37Z</time>
      </trkpt>
      <trkpt lat="47.65011" lon="-2.96153">
        <ele>17.8</ele>
        <time>2021-08-04T12:45:38Z</time>
      </trkpt>
      <trkpt lat="47.65003" lon="-2.96151">
        <ele>17.6</ele>
        <time>2021-08-04T12:45:39Z</time>
      </trkpt>
      <trkpt lat="47.64996" lon="-2.96149">
        <ele>17.6</ele>
        <time>2021-08-04T12:45:40Z</time>
      </trkpt>
      <trkpt lat="47.64988" lon="-2.96147">
        <ele>17.4</ele>
        <time>2021-08-04T12:45:41Z</time>
      </trkpt>
      <trkpt lat="47.64981" lon="-2.96146">
        <ele>17.4</ele>
        <time>2021-08-04T12:45:42Z</time>
      </trkpt>
      <trkpt lat="47.64974" lon="-2.96144">
        <ele>17.2</ele>
        <time>2021-08-04T12:45:43Z</time>
      </trkpt>
      <trkpt lat="47.64967" lon="-2.96143">
        <ele>17.2</ele>
        <time>2021-08-04T12:45:44Z</time>
      </trkpt>
      <trkpt lat="47.6496" lon="-2.96142">
        <ele>17.2</ele>
        <time>2021-08-04T12:45:45Z</time>
      </trkpt>
      <trkpt lat="47.64953" lon="-2.9614">
        <ele>17</ele>
        <time>2021-08-04T12:45:46Z</time>
      </trkpt>
      <trkpt lat="47.64947" lon="-2.96139">
        <ele>17.2</ele>
        <time>2021-08-04T12:45:47Z</time>
      </trkpt>
      <trkpt lat="47.64941" lon="-2.96138">
        <ele>17</ele>
        <time>2021-08-04T12:45:48Z</time>
      </trkpt>
      <trkpt lat="47.64934" lon="-2.96137">
        <ele>17</ele>
        <time>2021-08-04T12:45:49Z</time>
      </trkpt>
      <trkpt lat="47.64928" lon="-2.96136">
        <ele>16.8</ele>
        <time>2021-08-04T12:45:50Z</time>
      </trkpt>
      <trkpt lat="47.64922" lon="-2.96134">
        <ele>16.8</ele>
        <time>2021-08-04T12:45:51Z</time>
      </trkpt>
      <trkpt lat="47.64916" lon="-2.96133">
        <ele>16.8</ele>
        <time>2021-08-04T12:45:52Z</time>
      </trkpt>
      <trkpt lat="47.64909" lon="-2.96132">
        <ele>16.8</ele>
        <time>2021-08-04T12:45:53Z</time>
      </trkpt>
      <trkpt lat="47.64903" lon="-2.96131">
        <ele>16.8</ele>
        <time>2021-08-04T12:45:54Z</time>
      </trkpt>
      <trkpt lat="47.64896" lon="-2.9613">
        <ele>16.8</ele>
        <time>2021-08-04T12:45:55Z</time>
      </trkpt>
      <trkpt lat="47.6489" lon="-2.96128">
        <ele>16.8</ele>
        <time>2021-08-04T12:45:56Z</time>
      </trkpt>
      <trkpt lat="47.64883" lon="-2.96127">
        <ele>16.8</ele>
        <time>2021-08-04T12:45:57Z</time>
      </trkpt>
      <trkpt lat="47.64877" lon="-2.96126">
        <ele>16.8</ele>
        <time>2021-08-04T12:45:58Z</time>
      </trkpt>
      <trkpt lat="47.6487" lon="-2.96125">
        <ele>16.8</ele>
        <time>2021-08-04T12:45:59Z</time>
      </trkpt>
      <trkpt lat="47.64863" lon="-2.96124">
        <ele>16.6</ele>
        <time>2021-08-04T12:46:00Z</time>
      </trkpt>
      <trkpt lat="47.64856" lon="-2.96123">
        <ele>16.6</ele>
        <time>2021-08-04T12:46:01Z</time>
      </trkpt>
      <trkpt lat="47.64849" lon="-2.96122">
        <ele>16.4</ele>
        <time>2021-08-04T12:46:02Z</time>
      </trkpt>
      <trkpt lat="47.64843" lon="-2.96121">
        <ele>16.4</ele>
        <time>2021-08-04T12:46:03Z</time>
      </trkpt>
      <trkpt lat="47.64835" lon="-2.9612">
        <ele>16</ele>
        <time>2021-08-04T12:46:04Z</time>
      </trkpt>
      <trkpt lat="47.64828" lon="-2.96119">
        <ele>15.8</ele>
        <time>2021-08-04T12:46:05Z</time>
      </trkpt>
      <trkpt lat="47.64821" lon="-2.96119">
        <ele>15.6</ele>
        <time>2021-08-04T12:46:06Z</time>
      </trkpt>
      <trkpt lat="47.64814" lon="-2.96119">
        <ele>15.2</ele>
        <time>2021-08-04T12:46:07Z</time>
      </trkpt>
      <trkpt lat="47.64807" lon="-2.96119">
        <ele>15</ele>
        <time>2021-08-04T12:46:08Z</time>
      </trkpt>
      <trkpt lat="47.648" lon="-2.9612">
        <ele>14.8</ele>
        <time>2021-08-04T12:46:09Z</time>
      </trkpt>
      <trkpt lat="47.64793" lon="-2.9612">
        <ele>14.8</ele>
        <time>2021-08-04T12:46:10Z</time>
      </trkpt>
      <trkpt lat="47.64786" lon="-2.96121">
        <ele>14.8</ele>
        <time>2021-08-04T12:46:11Z</time>
      </trkpt>
      <trkpt lat="47.64778" lon="-2.96121">
        <ele>14.4</ele>
        <time>2021-08-04T12:46:12Z</time>
      </trkpt>
      <trkpt lat="47.64771" lon="-2.96122">
        <ele>14</ele>
        <time>2021-08-04T12:46:13Z</time>
      </trkpt>
      <trkpt lat="47.64764" lon="-2.96123">
        <ele>13.8</ele>
        <time>2021-08-04T12:46:14Z</time>
      </trkpt>
      <trkpt lat="47.64757" lon="-2.96124">
        <ele>13.6</ele>
        <time>2021-08-04T12:46:15Z</time>
      </trkpt>
      <trkpt lat="47.6475" lon="-2.96126">
        <ele>13.4</ele>
        <time>2021-08-04T12:46:16Z</time>
      </trkpt>
      <trkpt lat="47.64742" lon="-2.96127">
        <ele>13.4</ele>
        <time>2021-08-04T12:46:17Z</time>
      </trkpt>
      <trkpt lat="47.64735" lon="-2.96129">
        <ele>13.2</ele>
        <time>2021-08-04T12:46:18Z</time>
      </trkpt>
      <trkpt lat="47.64728" lon="-2.96131">
        <ele>13.2</ele>
        <time>2021-08-04T12:46:19Z</time>
      </trkpt>
      <trkpt lat="47.64721" lon="-2.96133">
        <ele>13</ele>
        <time>2021-08-04T12:46:20Z</time>
      </trkpt>
      <trkpt lat="47.64714" lon="-2.96135">
        <ele>13</ele>
        <time>2021-08-04T12:46:21Z</time>
      </trkpt>
      <trkpt lat="47.64707" lon="-2.96138">
        <ele>13</ele>
        <time>2021-08-04T12:46:22Z</time>
      </trkpt>
      <trkpt lat="47.647" lon="-2.96141">
        <ele>12.8</ele>
        <time>2021-08-04T12:46:23Z</time>
      </trkpt>
      <trkpt lat="47.64693" lon="-2.96144">
        <ele>12.6</ele>
        <time>2021-08-04T12:46:24Z</time>
      </trkpt>
      <trkpt lat="47.64686" lon="-2.96147">
        <ele>12.4</ele>
        <time>2021-08-04T12:46:25Z</time>
      </trkpt>
      <trkpt lat="47.64679" lon="-2.96149">
        <ele>11.6</ele>
        <time>2021-08-04T12:46:26Z</time>
      </trkpt>
      <trkpt lat="47.64672" lon="-2.96152">
        <ele>11.4</ele>
        <time>2021-08-04T12:46:27Z</time>
      </trkpt>
      <trkpt lat="47.64665" lon="-2.96154">
        <ele>11.2</ele>
        <time>2021-08-04T12:46:28Z</time>
      </trkpt>
      <trkpt lat="47.64658" lon="-2.96157">
        <ele>11</ele>
        <time>2021-08-04T12:46:29Z</time>
      </trkpt>
      <trkpt lat="47.64651" lon="-2.9616">
        <ele>11</ele>
        <time>2021-08-04T12:46:30Z</time>
      </trkpt>
      <trkpt lat="47.64644" lon="-2.96163">
        <ele>10.8</ele>
        <time>2021-08-04T12:46:31Z</time>
      </trkpt>
      <trkpt lat="47.64637" lon="-2.96165">
        <ele>10.8</ele>
        <time>2021-08-04T12:46:32Z</time>
      </trkpt>
      <trkpt lat="47.6463" lon="-2.96168">
        <ele>10.6</ele>
        <time>2021-08-04T12:46:33Z</time>
      </trkpt>
      <trkpt lat="47.64624" lon="-2.9617">
        <ele>10.4</ele>
        <time>2021-08-04T12:46:34Z</time>
      </trkpt>
      <trkpt lat="47.64617" lon="-2.96173">
        <ele>10</ele>
        <time>2021-08-04T12:46:35Z</time>
      </trkpt>
      <trkpt lat="47.64611" lon="-2.96175">
        <ele>9.8</ele>
        <time>2021-08-04T12:46:36Z</time>
      </trkpt>
      <trkpt lat="47.64604" lon="-2.96178">
        <ele>9.6</ele>
        <time>2021-08-04T12:46:37Z</time>
      </trkpt>
      <trkpt lat="47.64597" lon="-2.9618">
        <ele>9.6</ele>
        <time>2021-08-04T12:46:38Z</time>
      </trkpt>
      <trkpt lat="47.64591" lon="-2.96182">
        <ele>9.4</ele>
        <time>2021-08-04T12:46:39Z</time>
      </trkpt>
      <trkpt lat="47.64585" lon="-2.96185">
        <ele>9.4</ele>
        <time>2021-08-04T12:46:40Z</time>
      </trkpt>
      <trkpt lat="47.64579" lon="-2.96188">
        <ele>9.2</ele>
        <time>2021-08-04T12:46:41Z</time>
      </trkpt>
      <trkpt lat="47.64573" lon="-2.9619">
        <ele>9.2</ele>
        <time>2021-08-04T12:46:42Z</time>
      </trkpt>
      <trkpt lat="47.64567" lon="-2.96192">
        <ele>9</ele>
        <time>2021-08-04T12:46:43Z</time>
      </trkpt>
      <trkpt lat="47.64561" lon="-2.96195">
        <ele>9</ele>
        <time>2021-08-04T12:46:44Z</time>
      </trkpt>
      <trkpt lat="47.64555" lon="-2.96197">
        <ele>8.8</ele>
        <time>2021-08-04T12:46:45Z</time>
      </trkpt>
      <trkpt lat="47.64549" lon="-2.96199">
        <ele>8.8</ele>
        <time>2021-08-04T12:46:46Z</time>
      </trkpt>
      <trkpt lat="47.64544" lon="-2.96201">
        <ele>8.6</ele>
        <time>2021-08-04T12:46:47Z</time>
      </trkpt>
      <trkpt lat="47.64539" lon="-2.96204">
        <ele>8.6</ele>
        <time>2021-08-04T12:46:48Z</time>
      </trkpt>
      <trkpt lat="47.64533" lon="-2.96206">
        <ele>8.6</ele>
        <time>2021-08-04T12:46:49Z</time>
      </trkpt>
      <trkpt lat="47.64528" lon="-2.96208">
        <ele>8.6</ele>
        <time>2021-08-04T12:46:50Z</time>
      </trkpt>
      <trkpt lat="47.64523" lon="-2.96209">
        <ele>8.6</ele>
        <time>2021-08-04T12:46:51Z</time>
      </trkpt>
      <trkpt lat="47.64518" lon="-2.96211">
        <ele>8.6</ele>
        <time>2021-08-04T12:46:52Z</time>
      </trkpt>
      <trkpt lat="47.64513" lon="-2.96212">
        <ele>8.6</ele>
        <time>2021-08-04T12:46:53Z</time>
      </trkpt>
      <trkpt lat="47.64508" lon="-2.96214">
        <ele>8.6</ele>
        <time>2021-08-04T12:46:54Z</time>
      </trkpt>
      <trkpt lat="47.64503" lon="-2.96215">
        <ele>8.6</ele>
        <time>2021-08-04T12:46:55Z</time>
      </trkpt>
      <trkpt lat="47.64498" lon="-2.96216">
        <ele>8.6</ele>
        <time>2021-08-04T12:46:56Z</time>
      </trkpt>
      <trkpt lat="47.64493" lon="-2.96218">
        <ele>8.8</ele>
        <time>2021-08-04T12:46:57Z</time>
      </trkpt>
      <trkpt lat="47.64488" lon="-2.96218">
        <ele>8.8</ele>
        <time>2021-08-04T12:46:58Z</time>
      </trkpt>
      <trkpt lat="47.64483" lon="-2.96219">
        <ele>9</ele>
        <time>2021-08-04T12:46:59Z</time>
      </trkpt>
      <trkpt lat="47.64478" lon="-2.9622">
        <ele>9</ele>
        <time>2021-08-04T12:47:00Z</time>
      </trkpt>
      <trkpt lat="47.64472" lon="-2.96221">
        <ele>9</ele>
        <time>2021-08-04T12:47:01Z</time>
      </trkpt>
      <trkpt lat="47.64467" lon="-2.96222">
        <ele>9</ele>
        <time>2021-08-04T12:47:02Z</time>
      </trkpt>
      <trkpt lat="47.64461" lon="-2.96223">
        <ele>9</ele>
        <time>2021-08-04T12:47:03Z</time>
      </trkpt>
      <trkpt lat="47.64456" lon="-2.96223">
        <ele>9</ele>
        <time>2021-08-04T12:47:04Z</time>
      </trkpt>
      <trkpt lat="47.6445" lon="-2.96223">
        <ele>9.2</ele>
        <time>2021-08-04T12:47:05Z</time>
      </trkpt>
      <trkpt lat="47.64445" lon="-2.96223">
        <ele>9.2</ele>
        <time>2021-08-04T12:47:06Z</time>
      </trkpt>
      <trkpt lat="47.64439" lon="-2.96223">
        <ele>9.2</ele>
        <time>2021-08-04T12:47:07Z</time>
      </trkpt>
      <trkpt lat="47.64434" lon="-2.96223">
        <ele>9.4</ele>
        <time>2021-08-04T12:47:08Z</time>
      </trkpt>
      <trkpt lat="47.64428" lon="-2.96223">
        <ele>9.4</ele>
        <time>2021-08-04T12:47:09Z</time>
      </trkpt>
      <trkpt lat="47.64423" lon="-2.96223">
        <ele>9.4</ele>
        <time>2021-08-04T12:47:10Z</time>
      </trkpt>
      <trkpt lat="47.64417" lon="-2.96223">
        <ele>9.4</ele>
        <time>2021-08-04T12:47:11Z</time>
      </trkpt>
      <trkpt lat="47.64412" lon="-2.96223">
        <ele>9.4</ele>
        <time>2021-08-04T12:47:12Z</time>
      </trkpt>
      <trkpt lat="47.64406" lon="-2.96223">
        <ele>9.6</ele>
        <time>2021-08-04T12:47:13Z</time>
      </trkpt>
      <trkpt lat="47.64401" lon="-2.96222">
        <ele>9.6</ele>
        <time>2021-08-04T12:47:14Z</time>
      </trkpt>
      <trkpt lat="47.64395" lon="-2.96222">
        <ele>9.6</ele>
        <time>2021-08-04T12:47:15Z</time>
      </trkpt>
      <trkpt lat="47.6439" lon="-2.9622">
        <ele>9.6</ele>
        <time>2021-08-04T12:47:16Z</time>
      </trkpt>
      <trkpt lat="47.64384" lon="-2.96219">
        <ele>9.8</ele>
        <time>2021-08-04T12:47:17Z</time>
      </trkpt>
      <trkpt lat="47.64379" lon="-2.96218">
        <ele>9.8</ele>
        <time>2021-08-04T12:47:18Z</time>
      </trkpt>
      <trkpt lat="47.64374" lon="-2.96217">
        <ele>9.8</ele>
        <time>2021-08-04T12:47:19Z</time>
      </trkpt>
      <trkpt lat="47.64368" lon="-2.96217">
        <ele>9.8</ele>
        <time>2021-08-04T12:47:20Z</time>
      </trkpt>
      <trkpt lat="47.64363" lon="-2.96215">
        <ele>9.8</ele>
        <time>2021-08-04T12:47:21Z</time>
      </trkpt>
      <trkpt lat="47.64357" lon="-2.96214">
        <ele>10</ele>
        <time>2021-08-04T12:47:22Z</time>
      </trkpt>
      <trkpt lat="47.64352" lon="-2.96213">
        <ele>10</ele>
        <time>2021-08-04T12:47:23Z</time>
      </trkpt>
      <trkpt lat="47.64347" lon="-2.96212">
        <ele>10</ele>
        <time>2021-08-04T12:47:24Z</time>
      </trkpt>
      <trkpt lat="47.64342" lon="-2.9621">
        <ele>10.2</ele>
        <time>2021-08-04T12:47:25Z</time>
      </trkpt>
      <trkpt lat="47.64336" lon="-2.96208">
        <ele>10.2</ele>
        <time>2021-08-04T12:47:26Z</time>
      </trkpt>
      <trkpt lat="47.64331" lon="-2.96206">
        <ele>10.2</ele>
        <time>2021-08-04T12:47:27Z</time>
      </trkpt>
      <trkpt lat="47.64326" lon="-2.96203">
        <ele>10.4</ele>
        <time>2021-08-04T12:47:28Z</time>
      </trkpt>
      <trkpt lat="47.6432" lon="-2.96201">
        <ele>10.4</ele>
        <time>2021-08-04T12:47:29Z</time>
      </trkpt>
      <trkpt lat="47.64315" lon="-2.96198">
        <ele>10.6</ele>
        <time>2021-08-04T12:47:30Z</time>
      </trkpt>
      <trkpt lat="47.6431" lon="-2.96195">
        <ele>10.8</ele>
        <time>2021-08-04T12:47:31Z</time>
      </trkpt>
      <trkpt lat="47.64305" lon="-2.96192">
        <ele>11</ele>
        <time>2021-08-04T12:47:32Z</time>
      </trkpt>
      <trkpt lat="47.643" lon="-2.96188">
        <ele>11</ele>
        <time>2021-08-04T12:47:33Z</time>
      </trkpt>
      <trkpt lat="47.64294" lon="-2.96185">
        <ele>11.2</ele>
        <time>2021-08-04T12:47:34Z</time>
      </trkpt>
      <trkpt lat="47.64289" lon="-2.96181">
        <ele>11.2</ele>
        <time>2021-08-04T12:47:35Z</time>
      </trkpt>
      <trkpt lat="47.64284" lon="-2.96177">
        <ele>11.2</ele>
        <time>2021-08-04T12:47:36Z</time>
      </trkpt>
      <trkpt lat="47.64278" lon="-2.96173">
        <ele>11.2</ele>
        <time>2021-08-04T12:47:37Z</time>
      </trkpt>
      <trkpt lat="47.64273" lon="-2.96169">
        <ele>11.2</ele>
        <time>2021-08-04T12:47:38Z</time>
      </trkpt>
      <trkpt lat="47.64268" lon="-2.96165">
        <ele>11.4</ele>
        <time>2021-08-04T12:47:39Z</time>
      </trkpt>
      <trkpt lat="47.64257" lon="-2.96157">
        <ele>11.4</ele>
        <time>2021-08-04T12:47:41Z</time>
      </trkpt>
      <trkpt lat="47.64252" lon="-2.96152">
        <ele>11.4</ele>
        <time>2021-08-04T12:47:42Z</time>
      </trkpt>
      <trkpt lat="47.64247" lon="-2.96148">
        <ele>11.4</ele>
        <time>2021-08-04T12:47:43Z</time>
      </trkpt>
      <trkpt lat="47.64242" lon="-2.96143">
        <ele>11.4</ele>
        <time>2021-08-04T12:47:44Z</time>
      </trkpt>
      <trkpt lat="47.64237" lon="-2.96138">
        <ele>11.4</ele>
        <time>2021-08-04T12:47:45Z</time>
      </trkpt>
      <trkpt lat="47.64233" lon="-2.96133">
        <ele>11.6</ele>
        <time>2021-08-04T12:47:46Z</time>
      </trkpt>
      <trkpt lat="47.64228" lon="-2.96128">
        <ele>11.6</ele>
        <time>2021-08-04T12:47:47Z</time>
      </trkpt>
      <trkpt lat="47.64223" lon="-2.96123">
        <ele>11.6</ele>
        <time>2021-08-04T12:47:48Z</time>
      </trkpt>
      <trkpt lat="47.64218" lon="-2.96118">
        <ele>11.6</ele>
        <time>2021-08-04T12:47:49Z</time>
      </trkpt>
      <trkpt lat="47.64213" lon="-2.96113">
        <ele>11.6</ele>
        <time>2021-08-04T12:47:50Z</time>
      </trkpt>
      <trkpt lat="47.64209" lon="-2.96108">
        <ele>11.8</ele>
        <time>2021-08-04T12:47:51Z</time>
      </trkpt>
      <trkpt lat="47.64204" lon="-2.96103">
        <ele>11.8</ele>
        <time>2021-08-04T12:47:52Z</time>
      </trkpt>
      <trkpt lat="47.642" lon="-2.96096">
        <ele>11.8</ele>
        <time>2021-08-04T12:47:53Z</time>
      </trkpt>
      <trkpt lat="47.64196" lon="-2.96091">
        <ele>12</ele>
        <time>2021-08-04T12:47:54Z</time>
      </trkpt>
      <trkpt lat="47.64191" lon="-2.96085">
        <ele>12</ele>
        <time>2021-08-04T12:47:55Z</time>
      </trkpt>
      <trkpt lat="47.64187" lon="-2.9608">
        <ele>12</ele>
        <time>2021-08-04T12:47:56Z</time>
      </trkpt>
      <trkpt lat="47.64183" lon="-2.96075">
        <ele>12</ele>
        <time>2021-08-04T12:47:57Z</time>
      </trkpt>
      <trkpt lat="47.64179" lon="-2.9607">
        <ele>12</ele>
        <time>2021-08-04T12:47:58Z</time>
      </trkpt>
      <trkpt lat="47.64175" lon="-2.96065">
        <ele>12</ele>
        <time>2021-08-04T12:47:59Z</time>
      </trkpt>
      <trkpt lat="47.64172" lon="-2.96061">
        <ele>12</ele>
        <time>2021-08-04T12:48:00Z</time>
      </trkpt>
      <trkpt lat="47.64169" lon="-2.96058">
        <ele>12.4</ele>
        <time>2021-08-04T12:48:01Z</time>
      </trkpt>
      <trkpt lat="47.64167" lon="-2.96055">
        <ele>12.4</ele>
        <time>2021-08-04T12:48:02Z</time>
      </trkpt>
      <trkpt lat="47.64164" lon="-2.96053">
        <ele>12.6</ele>
        <time>2021-08-04T12:48:03Z</time>
      </trkpt>
      <trkpt lat="47.64162" lon="-2.9605">
        <ele>12.6</ele>
        <time>2021-08-04T12:48:04Z</time>
      </trkpt>
      <trkpt lat="47.6416" lon="-2.96048">
        <ele>12.8</ele>
        <time>2021-08-04T12:48:05Z</time>
      </trkpt>
      <trkpt lat="47.64158" lon="-2.96045">
        <ele>13</ele>
        <time>2021-08-04T12:48:06Z</time>
      </trkpt>
      <trkpt lat="47.64156" lon="-2.96043">
        <ele>13.2</ele>
        <time>2021-08-04T12:48:07Z</time>
      </trkpt>
      <trkpt lat="47.64153" lon="-2.96041">
        <ele>13.4</ele>
        <time>2021-08-04T12:48:08Z</time>
      </trkpt>
      <trkpt lat="47.64151" lon="-2.96038">
        <ele>13.4</ele>
        <time>2021-08-04T12:48:09Z</time>
      </trkpt>
      <trkpt lat="47.64149" lon="-2.96036">
        <ele>13.6</ele>
        <time>2021-08-04T12:48:10Z</time>
      </trkpt>
      <trkpt lat="47.64147" lon="-2.96033">
        <ele>13.8</ele>
        <time>2021-08-04T12:48:11Z</time>
      </trkpt>
      <trkpt lat="47.64144" lon="-2.9603">
        <ele>14</ele>
        <time>2021-08-04T12:48:12Z</time>
      </trkpt>
      <trkpt lat="47.64142" lon="-2.96028">
        <ele>14</ele>
        <time>2021-08-04T12:48:13Z</time>
      </trkpt>
      <trkpt lat="47.6414" lon="-2.96026">
        <ele>14</ele>
        <time>2021-08-04T12:48:14Z</time>
      </trkpt>
      <trkpt lat="47.64138" lon="-2.96024">
        <ele>14.2</ele>
        <time>2021-08-04T12:48:15Z</time>
      </trkpt>
      <trkpt lat="47.64137" lon="-2.96022">
        <ele>14.2</ele>
        <time>2021-08-04T12:48:16Z</time>
      </trkpt>
      <trkpt lat="47.64135" lon="-2.9602">
        <ele>14.2</ele>
        <time>2021-08-04T12:48:17Z</time>
      </trkpt>
      <trkpt lat="47.64134" lon="-2.96018">
        <ele>14.4</ele>
        <time>2021-08-04T12:48:18Z</time>
      </trkpt>
      <trkpt lat="47.64132" lon="-2.96017">
        <ele>14.4</ele>
        <time>2021-08-04T12:48:19Z</time>
      </trkpt>
      <trkpt lat="47.6413" lon="-2.96016">
        <ele>14.4</ele>
        <time>2021-08-04T12:48:20Z</time>
      </trkpt>
      <trkpt lat="47.64129" lon="-2.96014">
        <ele>14.4</ele>
        <time>2021-08-04T12:48:21Z</time>
      </trkpt>
      <trkpt lat="47.64128" lon="-2.96012">
        <ele>14.4</ele>
        <time>2021-08-04T12:48:22Z</time>
      </trkpt>
      <trkpt lat="47.64128" lon="-2.96011">
        <ele>14.4</ele>
        <time>2021-08-04T12:48:23Z</time>
      </trkpt>
      <trkpt lat="47.64127" lon="-2.96009">
        <ele>14.4</ele>
        <time>2021-08-04T12:48:24Z</time>
      </trkpt>
      <trkpt lat="47.64126" lon="-2.96008">
        <ele>14.4</ele>
        <time>2021-08-04T12:48:25Z</time>
      </trkpt>
      <trkpt lat="47.64126" lon="-2.96007">
        <ele>14.6</ele>
        <time>2021-08-04T12:48:26Z</time>
      </trkpt>
      <trkpt lat="47.64126" lon="-2.96007">
        <ele>14.6</ele>
        <time>2021-08-04T12:48:27Z</time>
      </trkpt>
      <trkpt lat="47.64126" lon="-2.96007">
        <ele>14.6</ele>
        <time>2021-08-04T12:48:28Z</time>
      </trkpt>
      <trkpt lat="47.64124" lon="-2.96006">
        <ele>15.4</ele>
        <time>2021-08-04T12:48:50Z</time>
      </trkpt>
      <trkpt lat="47.64123" lon="-2.96005">
        <ele>15.4</ele>
        <time>2021-08-04T12:48:51Z</time>
      </trkpt>
      <trkpt lat="47.64122" lon="-2.96004">
        <ele>15.4</ele>
        <time>2021-08-04T12:48:52Z</time>
      </trkpt>
      <trkpt lat="47.6412" lon="-2.96003">
        <ele>15.2</ele>
        <time>2021-08-04T12:48:53Z</time>
      </trkpt>
      <trkpt lat="47.64118" lon="-2.96001">
        <ele>15.2</ele>
        <time>2021-08-04T12:48:54Z</time>
      </trkpt>
      <trkpt lat="47.64116" lon="-2.95999">
        <ele>15.2</ele>
        <time>2021-08-04T12:48:55Z</time>
      </trkpt>
      <trkpt lat="47.64114" lon="-2.95996">
        <ele>15.2</ele>
        <time>2021-08-04T12:48:56Z</time>
      </trkpt>
      <trkpt lat="47.64111" lon="-2.95994">
        <ele>15.2</ele>
        <time>2021-08-04T12:48:57Z</time>
      </trkpt>
      <trkpt lat="47.64109" lon="-2.95991">
        <ele>15.2</ele>
        <time>2021-08-04T12:48:58Z</time>
      </trkpt>
      <trkpt lat="47.64106" lon="-2.95987">
        <ele>15</ele>
        <time>2021-08-04T12:48:59Z</time>
      </trkpt>
      <trkpt lat="47.64102" lon="-2.95983">
        <ele>15</ele>
        <time>2021-08-04T12:49:00Z</time>
      </trkpt>
      <trkpt lat="47.64099" lon="-2.95979">
        <ele>15</ele>
        <time>2021-08-04T12:49:01Z</time>
      </trkpt>
      <trkpt lat="47.64096" lon="-2.95975">
        <ele>15</ele>
        <time>2021-08-04T12:49:02Z</time>
      </trkpt>
      <trkpt lat="47.64092" lon="-2.95971">
        <ele>15</ele>
        <time>2021-08-04T12:49:03Z</time>
      </trkpt>
      <trkpt lat="47.64089" lon="-2.95967">
        <ele>15</ele>
        <time>2021-08-04T12:49:04Z</time>
      </trkpt>
      <trkpt lat="47.64085" lon="-2.95963">
        <ele>14.8</ele>
        <time>2021-08-04T12:49:05Z</time>
      </trkpt>
      <trkpt lat="47.64082" lon="-2.95959">
        <ele>14.8</ele>
        <time>2021-08-04T12:49:06Z</time>
      </trkpt>
      <trkpt lat="47.64078" lon="-2.95954">
        <ele>14.8</ele>
        <time>2021-08-04T12:49:07Z</time>
      </trkpt>
      <trkpt lat="47.64074" lon="-2.9595">
        <ele>14.8</ele>
        <time>2021-08-04T12:49:08Z</time>
      </trkpt>
      <trkpt lat="47.64071" lon="-2.95945">
        <ele>14.8</ele>
        <time>2021-08-04T12:49:09Z</time>
      </trkpt>
      <trkpt lat="47.64067" lon="-2.95941">
        <ele>14.8</ele>
        <time>2021-08-04T12:49:10Z</time>
      </trkpt>
      <trkpt lat="47.64064" lon="-2.95936">
        <ele>14.6</ele>
        <time>2021-08-04T12:49:11Z</time>
      </trkpt>
      <trkpt lat="47.6406" lon="-2.95931">
        <ele>14.6</ele>
        <time>2021-08-04T12:49:12Z</time>
      </trkpt>
      <trkpt lat="47.64057" lon="-2.95927">
        <ele>14.6</ele>
        <time>2021-08-04T12:49:13Z</time>
      </trkpt>
      <trkpt lat="47.64054" lon="-2.95923">
        <ele>14.6</ele>
        <time>2021-08-04T12:49:14Z</time>
      </trkpt>
      <trkpt lat="47.64052" lon="-2.95919">
        <ele>14.6</ele>
        <time>2021-08-04T12:49:15Z</time>
      </trkpt>
      <trkpt lat="47.64049" lon="-2.95917">
        <ele>14.6</ele>
        <time>2021-08-04T12:49:16Z</time>
      </trkpt>
      <trkpt lat="47.64046" lon="-2.95914">
        <ele>14.8</ele>
        <time>2021-08-04T12:49:17Z</time>
      </trkpt>
      <trkpt lat="47.64044" lon="-2.95912">
        <ele>14.8</ele>
        <time>2021-08-04T12:49:18Z</time>
      </trkpt>
      <trkpt lat="47.64042" lon="-2.9591">
        <ele>14.8</ele>
        <time>2021-08-04T12:49:19Z</time>
      </trkpt>
      <trkpt lat="47.64039" lon="-2.95909">
        <ele>14.8</ele>
        <time>2021-08-04T12:49:20Z</time>
      </trkpt>
      <trkpt lat="47.64037" lon="-2.95908">
        <ele>14.8</ele>
        <time>2021-08-04T12:49:21Z</time>
      </trkpt>
      <trkpt lat="47.64035" lon="-2.95907">
        <ele>15</ele>
        <time>2021-08-04T12:49:22Z</time>
      </trkpt>
      <trkpt lat="47.64033" lon="-2.95906">
        <ele>15.2</ele>
        <time>2021-08-04T12:49:23Z</time>
      </trkpt>
      <trkpt lat="47.64032" lon="-2.95905">
        <ele>15.2</ele>
        <time>2021-08-04T12:49:24Z</time>
      </trkpt>
      <trkpt lat="47.64031" lon="-2.95905">
        <ele>15.2</ele>
        <time>2021-08-04T12:49:25Z</time>
      </trkpt>
      <trkpt lat="47.6403" lon="-2.95905">
        <ele>15.2</ele>
        <time>2021-08-04T12:49:26Z</time>
      </trkpt>
      <trkpt lat="47.64028" lon="-2.95905">
        <ele>15.2</ele>
        <time>2021-08-04T12:49:27Z</time>
      </trkpt>
      <trkpt lat="47.64027" lon="-2.95905">
        <ele>15.2</ele>
        <time>2021-08-04T12:49:28Z</time>
      </trkpt>
      <trkpt lat="47.64026" lon="-2.95905">
        <ele>15.2</ele>
        <time>2021-08-04T12:49:29Z</time>
      </trkpt>
      <trkpt lat="47.64026" lon="-2.95904">
        <ele>15.2</ele>
        <time>2021-08-04T12:49:30Z</time>
      </trkpt>
      <trkpt lat="47.64025" lon="-2.95904">
        <ele>15.6</ele>
        <time>2021-08-04T12:49:49Z</time>
      </trkpt>
      <trkpt lat="47.64024" lon="-2.95903">
        <ele>15.6</ele>
        <time>2021-08-04T12:49:50Z</time>
      </trkpt>
      <trkpt lat="47.64022" lon="-2.95902">
        <ele>15.6</ele>
        <time>2021-08-04T12:49:51Z</time>
      </trkpt>
      <trkpt lat="47.64021" lon="-2.95901">
        <ele>15.6</ele>
        <time>2021-08-04T12:49:52Z</time>
      </trkpt>
      <trkpt lat="47.64019" lon="-2.95901">
        <ele>15.6</ele>
        <time>2021-08-04T12:49:53Z</time>
      </trkpt>
      <trkpt lat="47.64017" lon="-2.959">
        <ele>15.4</ele>
        <time>2021-08-04T12:49:54Z</time>
      </trkpt>
      <trkpt lat="47.64015" lon="-2.959">
        <ele>15.4</ele>
        <time>2021-08-04T12:49:55Z</time>
      </trkpt>
      <trkpt lat="47.64012" lon="-2.95899">
        <ele>15.4</ele>
        <time>2021-08-04T12:49:56Z</time>
      </trkpt>
      <trkpt lat="47.64009" lon="-2.95899">
        <ele>15.4</ele>
        <time>2021-08-04T12:49:57Z</time>
      </trkpt>
      <trkpt lat="47.64006" lon="-2.95898">
        <ele>15.4</ele>
        <time>2021-08-04T12:49:58Z</time>
      </trkpt>
      <trkpt lat="47.64002" lon="-2.95897">
        <ele>15.2</ele>
        <time>2021-08-04T12:49:59Z</time>
      </trkpt>
      <trkpt lat="47.63998" lon="-2.95895">
        <ele>15</ele>
        <time>2021-08-04T12:50:00Z</time>
      </trkpt>
      <trkpt lat="47.63995" lon="-2.95892">
        <ele>15</ele>
        <time>2021-08-04T12:50:01Z</time>
      </trkpt>
      <trkpt lat="47.63991" lon="-2.9589">
        <ele>15</ele>
        <time>2021-08-04T12:50:02Z</time>
      </trkpt>
      <trkpt lat="47.63988" lon="-2.95888">
        <ele>14.8</ele>
        <time>2021-08-04T12:50:03Z</time>
      </trkpt>
      <trkpt lat="47.63985" lon="-2.95886">
        <ele>14.8</ele>
        <time>2021-08-04T12:50:04Z</time>
      </trkpt>
      <trkpt lat="47.63982" lon="-2.95882">
        <ele>14.6</ele>
        <time>2021-08-04T12:50:05Z</time>
      </trkpt>
      <trkpt lat="47.63978" lon="-2.95877">
        <ele>14.6</ele>
        <time>2021-08-04T12:50:06Z</time>
      </trkpt>
      <trkpt lat="47.63974" lon="-2.95872">
        <ele>14.4</ele>
        <time>2021-08-04T12:50:07Z</time>
      </trkpt>
      <trkpt lat="47.6397" lon="-2.95867">
        <ele>14.2</ele>
        <time>2021-08-04T12:50:08Z</time>
      </trkpt>
      <trkpt lat="47.63967" lon="-2.95861">
        <ele>14</ele>
        <time>2021-08-04T12:50:09Z</time>
      </trkpt>
      <trkpt lat="47.63964" lon="-2.95854">
        <ele>13.8</ele>
        <time>2021-08-04T12:50:10Z</time>
      </trkpt>
      <trkpt lat="47.63961" lon="-2.95846">
        <ele>13.6</ele>
        <time>2021-08-04T12:50:11Z</time>
      </trkpt>
      <trkpt lat="47.63959" lon="-2.95839">
        <ele>13.6</ele>
        <time>2021-08-04T12:50:12Z</time>
      </trkpt>
      <trkpt lat="47.63957" lon="-2.95832">
        <ele>13.4</ele>
        <time>2021-08-04T12:50:13Z</time>
      </trkpt>
      <trkpt lat="47.63956" lon="-2.95823">
        <ele>13.4</ele>
        <time>2021-08-04T12:50:14Z</time>
      </trkpt>
      <trkpt lat="47.63956" lon="-2.95813">
        <ele>13.2</ele>
        <time>2021-08-04T12:50:15Z</time>
      </trkpt>
      <trkpt lat="47.63956" lon="-2.95803">
        <ele>12.8</ele>
        <time>2021-08-04T12:50:16Z</time>
      </trkpt>
      <trkpt lat="47.63957" lon="-2.95793">
        <ele>12.2</ele>
        <time>2021-08-04T12:50:17Z</time>
      </trkpt>
      <trkpt lat="47.63958" lon="-2.95784">
        <ele>11.8</ele>
        <time>2021-08-04T12:50:18Z</time>
      </trkpt>
      <trkpt lat="47.63959" lon="-2.95775">
        <ele>11.4</ele>
        <time>2021-08-04T12:50:19Z</time>
      </trkpt>
      <trkpt lat="47.63959" lon="-2.95766">
        <ele>10.8</ele>
        <time>2021-08-04T12:50:20Z</time>
      </trkpt>
      <trkpt lat="47.6396" lon="-2.95757">
        <ele>10.4</ele>
        <time>2021-08-04T12:50:21Z</time>
      </trkpt>
      <trkpt lat="47.63962" lon="-2.95749">
        <ele>9.8</ele>
        <time>2021-08-04T12:50:22Z</time>
      </trkpt>
      <trkpt lat="47.63963" lon="-2.9574">
        <ele>9.4</ele>
        <time>2021-08-04T12:50:23Z</time>
      </trkpt>
      <trkpt lat="47.63965" lon="-2.95731">
        <ele>9</ele>
        <time>2021-08-04T12:50:24Z</time>
      </trkpt>
      <trkpt lat="47.63967" lon="-2.95722">
        <ele>9</ele>
        <time>2021-08-04T12:50:25Z</time>
      </trkpt>
      <trkpt lat="47.6397" lon="-2.95713">
        <ele>8.8</ele>
        <time>2021-08-04T12:50:26Z</time>
      </trkpt>
      <trkpt lat="47.63971" lon="-2.95703">
        <ele>8.6</ele>
        <time>2021-08-04T12:50:27Z</time>
      </trkpt>
      <trkpt lat="47.63973" lon="-2.95694">
        <ele>8.2</ele>
        <time>2021-08-04T12:50:28Z</time>
      </trkpt>
      <trkpt lat="47.63975" lon="-2.95685">
        <ele>7.8</ele>
        <time>2021-08-04T12:50:29Z</time>
      </trkpt>
      <trkpt lat="47.63977" lon="-2.95675">
        <ele>7.2</ele>
        <time>2021-08-04T12:50:30Z</time>
      </trkpt>
      <trkpt lat="47.63978" lon="-2.95665">
        <ele>7</ele>
        <time>2021-08-04T12:50:31Z</time>
      </trkpt>
      <trkpt lat="47.6398" lon="-2.95656">
        <ele>6.8</ele>
        <time>2021-08-04T12:50:32Z</time>
      </trkpt>
      <trkpt lat="47.63982" lon="-2.95645">
        <ele>6.6</ele>
        <time>2021-08-04T12:50:33Z</time>
      </trkpt>
      <trkpt lat="47.63983" lon="-2.95634">
        <ele>6.4</ele>
        <time>2021-08-04T12:50:34Z</time>
      </trkpt>
      <trkpt lat="47.63985" lon="-2.95623">
        <ele>6.2</ele>
        <time>2021-08-04T12:50:35Z</time>
      </trkpt>
      <trkpt lat="47.63986" lon="-2.95611">
        <ele>6</ele>
        <time>2021-08-04T12:50:36Z</time>
      </trkpt>
      <trkpt lat="47.63987" lon="-2.95599">
        <ele>5.4</ele>
        <time>2021-08-04T12:50:37Z</time>
      </trkpt>
      <trkpt lat="47.63989" lon="-2.95585">
        <ele>4.8</ele>
        <time>2021-08-04T12:50:38Z</time>
      </trkpt>
      <trkpt lat="47.6399" lon="-2.95573">
        <ele>4.4</ele>
        <time>2021-08-04T12:50:39Z</time>
      </trkpt>
      <trkpt lat="47.63993" lon="-2.95562">
        <ele>4</ele>
        <time>2021-08-04T12:50:40Z</time>
      </trkpt>
      <trkpt lat="47.63996" lon="-2.95551">
        <ele>3.6</ele>
        <time>2021-08-04T12:50:41Z</time>
      </trkpt>
      <trkpt lat="47.64" lon="-2.95541">
        <ele>3.2</ele>
        <time>2021-08-04T12:50:42Z</time>
      </trkpt>
      <trkpt lat="47.64005" lon="-2.95532">
        <ele>2.8</ele>
        <time>2021-08-04T12:50:43Z</time>
      </trkpt>
      <trkpt lat="47.64011" lon="-2.95525">
        <ele>2.6</ele>
        <time>2021-08-04T12:50:44Z</time>
      </trkpt>
      <trkpt lat="47.64017" lon="-2.95518">
        <ele>2.2</ele>
        <time>2021-08-04T12:50:45Z</time>
      </trkpt>
      <trkpt lat="47.64024" lon="-2.95512">
        <ele>1.8</ele>
        <time>2021-08-04T12:50:46Z</time>
      </trkpt>
      <trkpt lat="47.6403" lon="-2.95506">
        <ele>1.4</ele>
        <time>2021-08-04T12:50:47Z</time>
      </trkpt>
      <trkpt lat="47.64036" lon="-2.955">
        <ele>1.2</ele>
        <time>2021-08-04T12:50:48Z</time>
      </trkpt>
      <trkpt lat="47.64041" lon="-2.95494">
        <ele>1</ele>
        <time>2021-08-04T12:50:49Z</time>
      </trkpt>
      <trkpt lat="47.64045" lon="-2.95488">
        <ele>1</ele>
        <time>2021-08-04T12:50:50Z</time>
      </trkpt>
      <trkpt lat="47.64047" lon="-2.95485">
        <ele>0.8</ele>
        <time>2021-08-04T12:50:51Z</time>
      </trkpt>
      <trkpt lat="47.64049" lon="-2.95482">
        <ele>0.6</ele>
        <time>2021-08-04T12:50:52Z</time>
      </trkpt>
      <trkpt lat="47.64051" lon="-2.95479">
        <ele>0.6</ele>
        <time>2021-08-04T12:50:53Z</time>
      </trkpt>
      <trkpt lat="47.64052" lon="-2.95477">
        <ele>0.6</ele>
        <time>2021-08-04T12:50:54Z</time>
      </trkpt>
      <trkpt lat="47.64054" lon="-2.95475">
        <ele>0.6</ele>
        <time>2021-08-04T12:50:55Z</time>
      </trkpt>
      <trkpt lat="47.64055" lon="-2.95473">
        <ele>0.6</ele>
        <time>2021-08-04T12:50:56Z</time>
      </trkpt>
      <trkpt lat="47.64056" lon="-2.95471">
        <ele>0.6</ele>
        <time>2021-08-04T12:50:57Z</time>
      </trkpt>
      <trkpt lat="47.64057" lon="-2.95469">
        <ele>0.6</ele>
        <time>2021-08-04T12:50:58Z</time>
      </trkpt>
      <trkpt lat="47.64059" lon="-2.95465">
        <ele>0.8</ele>
        <time>2021-08-04T12:51:00Z</time>
      </trkpt>
      <trkpt lat="47.64059" lon="-2.95463">
        <ele>1</ele>
        <time>2021-08-04T12:51:01Z</time>
      </trkpt>
      <trkpt lat="47.6406" lon="-2.95461">
        <ele>1.2</ele>
        <time>2021-08-04T12:51:02Z</time>
      </trkpt>
      <trkpt lat="47.6406" lon="-2.9546">
        <ele>1.2</ele>
        <time>2021-08-04T12:51:03Z</time>
      </trkpt>
      <trkpt lat="47.64061" lon="-2.9546">
        <ele>1.2</ele>
        <time>2021-08-04T12:51:04Z</time>
      </trkpt>
      <trkpt lat="47.64062" lon="-2.95459">
        <ele>1.2</ele>
        <time>2021-08-04T12:51:05Z</time>
      </trkpt>
      <trkpt lat="47.64067" lon="-2.95432">
        <ele>1.4</ele>
        <time>2021-08-04T12:51:41Z</time>
      </trkpt>
      <trkpt lat="47.64067" lon="-2.9543">
        <ele>1.4</ele>
        <time>2021-08-04T12:51:42Z</time>
      </trkpt>
      <trkpt lat="47.64068" lon="-2.95428">
        <ele>1.2</ele>
        <time>2021-08-04T12:51:43Z</time>
      </trkpt>
      <trkpt lat="47.64069" lon="-2.95425">
        <ele>1.2</ele>
        <time>2021-08-04T12:51:44Z</time>
      </trkpt>
      <trkpt lat="47.6407" lon="-2.95423">
        <ele>1.2</ele>
        <time>2021-08-04T12:51:45Z</time>
      </trkpt>
      <trkpt lat="47.6407" lon="-2.9542">
        <ele>1</ele>
        <time>2021-08-04T12:51:46Z</time>
      </trkpt>
      <trkpt lat="47.64071" lon="-2.95418">
        <ele>0.8</ele>
        <time>2021-08-04T12:51:47Z</time>
      </trkpt>
      <trkpt lat="47.64072" lon="-2.95415">
        <ele>0.8</ele>
        <time>2021-08-04T12:51:48Z</time>
      </trkpt>
      <trkpt lat="47.64073" lon="-2.95413">
        <ele>0.8</ele>
        <time>2021-08-04T12:51:49Z</time>
      </trkpt>
      <trkpt lat="47.64073" lon="-2.9541">
        <ele>0.8</ele>
        <time>2021-08-04T12:51:50Z</time>
      </trkpt>
      <trkpt lat="47.64074" lon="-2.9541">
        <ele>0.8</ele>
        <time>2021-08-04T12:51:51Z</time>
      </trkpt>
      <trkpt lat="47.64075" lon="-2.95407">
        <ele>0.8</ele>
        <time>2021-08-04T12:51:52Z</time>
      </trkpt>
      <trkpt lat="47.64075" lon="-2.95404">
        <ele>0.8</ele>
        <time>2021-08-04T12:51:53Z</time>
      </trkpt>
      <trkpt lat="47.64076" lon="-2.95402">
        <ele>0.8</ele>
        <time>2021-08-04T12:51:54Z</time>
      </trkpt>
      <trkpt lat="47.64077" lon="-2.95399">
        <ele>0.8</ele>
        <time>2021-08-04T12:51:55Z</time>
      </trkpt>
      <trkpt lat="47.64077" lon="-2.95396">
        <ele>0.8</ele>
        <time>2021-08-04T12:51:56Z</time>
      </trkpt>
      <trkpt lat="47.64078" lon="-2.95392">
        <ele>0.8</ele>
        <time>2021-08-04T12:51:57Z</time>
      </trkpt>
      <trkpt lat="47.64078" lon="-2.95389">
        <ele>0.8</ele>
        <time>2021-08-04T12:51:58Z</time>
      </trkpt>
      <trkpt lat="47.64079" lon="-2.95386">
        <ele>1</ele>
        <time>2021-08-04T12:51:59Z</time>
      </trkpt>
      <trkpt lat="47.6408" lon="-2.95384">
        <ele>1.2</ele>
        <time>2021-08-04T12:52:00Z</time>
      </trkpt>
      <trkpt lat="47.6408" lon="-2.95381">
        <ele>1.4</ele>
        <time>2021-08-04T12:52:01Z</time>
      </trkpt>
      <trkpt lat="47.64081" lon="-2.95379">
        <ele>1.4</ele>
        <time>2021-08-04T12:52:02Z</time>
      </trkpt>
      <trkpt lat="47.64081" lon="-2.95376">
        <ele>1.4</ele>
        <time>2021-08-04T12:52:03Z</time>
      </trkpt>
      <trkpt lat="47.64082" lon="-2.95374">
        <ele>1.4</ele>
        <time>2021-08-04T12:52:04Z</time>
      </trkpt>
      <trkpt lat="47.64082" lon="-2.95373">
        <ele>1.4</ele>
        <time>2021-08-04T12:52:05Z</time>
      </trkpt>
      <trkpt lat="47.64082" lon="-2.95371">
        <ele>1.4</ele>
        <time>2021-08-04T12:52:06Z</time>
      </trkpt>
      <trkpt lat="47.64083" lon="-2.95371">
        <ele>1.4</ele>
        <time>2021-08-04T12:52:07Z</time>
      </trkpt>
      <trkpt lat="47.64083" lon="-2.9537">
        <ele>1.4</ele>
        <time>2021-08-04T12:52:08Z</time>
      </trkpt>
      <trkpt lat="47.64084" lon="-2.95367">
        <ele>1.4</ele>
        <time>2021-08-04T12:52:10Z</time>
      </trkpt>
      <trkpt lat="47.64084" lon="-2.95366">
        <ele>1.4</ele>
        <time>2021-08-04T12:52:11Z</time>
      </trkpt>
      <trkpt lat="47.64084" lon="-2.95365">
        <ele>1.4</ele>
        <time>2021-08-04T12:52:12Z</time>
      </trkpt>
      <trkpt lat="47.64087" lon="-2.95349">
        <ele>1</ele>
        <time>2021-08-04T12:58:18Z</time>
      </trkpt>
      <trkpt lat="47.64087" lon="-2.95347">
        <ele>0.8</ele>
        <time>2021-08-04T12:58:19Z</time>
      </trkpt>
      <trkpt lat="47.64088" lon="-2.95344">
        <ele>0.8</ele>
        <time>2021-08-04T12:58:20Z</time>
      </trkpt>
      <trkpt lat="47.64088" lon="-2.95341">
        <ele>0.8</ele>
        <time>2021-08-04T12:58:21Z</time>
      </trkpt>
      <trkpt lat="47.64089" lon="-2.95339">
        <ele>0.8</ele>
        <time>2021-08-04T12:58:22Z</time>
      </trkpt>
      <trkpt lat="47.64089" lon="-2.95335">
        <ele>0.6</ele>
        <time>2021-08-04T12:58:23Z</time>
      </trkpt>
      <trkpt lat="47.6409" lon="-2.95332">
        <ele>0.4</ele>
        <time>2021-08-04T12:58:24Z</time>
      </trkpt>
      <trkpt lat="47.6409" lon="-2.95329">
        <ele>0.2</ele>
        <time>2021-08-04T12:58:25Z</time>
      </trkpt>
      <trkpt lat="47.64091" lon="-2.95325">
        <ele>0.2</ele>
        <time>2021-08-04T12:58:26Z</time>
      </trkpt>
      <trkpt lat="47.64091" lon="-2.95322">
        <ele>0.2</ele>
        <time>2021-08-04T12:58:27Z</time>
      </trkpt>
      <trkpt lat="47.64092" lon="-2.95319">
        <ele>0.2</ele>
        <time>2021-08-04T12:58:28Z</time>
      </trkpt>
      <trkpt lat="47.64093" lon="-2.95316">
        <ele>0.2</ele>
        <time>2021-08-04T12:58:29Z</time>
      </trkpt>
      <trkpt lat="47.64093" lon="-2.95314">
        <ele>-0.2</ele>
        <time>2021-08-04T12:58:30Z</time>
      </trkpt>
      <trkpt lat="47.64094" lon="-2.95312">
        <ele>-0.2</ele>
        <time>2021-08-04T12:58:31Z</time>
      </trkpt>
      <trkpt lat="47.64094" lon="-2.9531">
        <ele>-0.2</ele>
        <time>2021-08-04T12:58:32Z</time>
      </trkpt>
      <trkpt lat="47.64094" lon="-2.95309">
        <ele>-0.4</ele>
        <time>2021-08-04T12:58:33Z</time>
      </trkpt>
      <trkpt lat="47.64095" lon="-2.95307">
        <ele>-0.4</ele>
        <time>2021-08-04T12:58:34Z</time>
      </trkpt>
      <trkpt lat="47.64095" lon="-2.95306">
        <ele>-0.4</ele>
        <time>2021-08-04T12:58:35Z</time>
      </trkpt>
      <trkpt lat="47.64095" lon="-2.95304">
        <ele>-0.4</ele>
        <time>2021-08-04T12:58:36Z</time>
      </trkpt>
      <trkpt lat="47.64095" lon="-2.95303">
        <ele>-0.4</ele>
        <time>2021-08-04T12:58:37Z</time>
      </trkpt>
      <trkpt lat="47.64096" lon="-2.95301">
        <ele>-0.2</ele>
        <time>2021-08-04T12:58:38Z</time>
      </trkpt>
      <trkpt lat="47.64098" lon="-2.95283">
        <ele>-0.4</ele>
        <time>2021-08-04T12:58:48Z</time>
      </trkpt>
      <trkpt lat="47.64098" lon="-2.95281">
        <ele>-0.4</ele>
        <time>2021-08-04T12:58:49Z</time>
      </trkpt>
      <trkpt lat="47.64099" lon="-2.9528">
        <ele>-0.4</ele>
        <time>2021-08-04T12:58:50Z</time>
      </trkpt>
      <trkpt lat="47.64098" lon="-2.95277">
        <ele>-0.4</ele>
        <time>2021-08-04T12:58:51Z</time>
      </trkpt>
      <trkpt lat="47.64098" lon="-2.95274">
        <ele>-0.4</ele>
        <time>2021-08-04T12:58:52Z</time>
      </trkpt>
      <trkpt lat="47.64098" lon="-2.9527">
        <ele>-0.4</ele>
        <time>2021-08-04T12:58:53Z</time>
      </trkpt>
      <trkpt lat="47.64099" lon="-2.95267">
        <ele>-0.4</ele>
        <time>2021-08-04T12:58:54Z</time>
      </trkpt>
      <trkpt lat="47.641" lon="-2.95263">
        <ele>-0.4</ele>
        <time>2021-08-04T12:58:55Z</time>
      </trkpt>
      <trkpt lat="47.641" lon="-2.95259">
        <ele>-0.4</ele>
        <time>2021-08-04T12:58:56Z</time>
      </trkpt>
      <trkpt lat="47.64101" lon="-2.95254">
        <ele>-0.4</ele>
        <time>2021-08-04T12:58:57Z</time>
      </trkpt>
      <trkpt lat="47.64101" lon="-2.95249">
        <ele>-0.4</ele>
        <time>2021-08-04T12:58:58Z</time>
      </trkpt>
      <trkpt lat="47.64101" lon="-2.95244">
        <ele>-0.4</ele>
        <time>2021-08-04T12:58:59Z</time>
      </trkpt>
      <trkpt lat="47.64101" lon="-2.95239">
        <ele>-0.4</ele>
        <time>2021-08-04T12:59:00Z</time>
      </trkpt>
      <trkpt lat="47.64101" lon="-2.95234">
        <ele>-0.2</ele>
        <time>2021-08-04T12:59:01Z</time>
      </trkpt>
      <trkpt lat="47.64101" lon="-2.95228">
        <ele>-0.2</ele>
        <time>2021-08-04T12:59:02Z</time>
      </trkpt>
      <trkpt lat="47.64101" lon="-2.95222">
        <ele>-0.2</ele>
        <time>2021-08-04T12:59:03Z</time>
      </trkpt>
      <trkpt lat="47.64102" lon="-2.95216">
        <ele>-0.2</ele>
        <time>2021-08-04T12:59:04Z</time>
      </trkpt>
      <trkpt lat="47.64102" lon="-2.9521">
        <ele>-0.2</ele>
        <time>2021-08-04T12:59:05Z</time>
      </trkpt>
      <trkpt lat="47.64101" lon="-2.95204">
        <ele>-0.2</ele>
        <time>2021-08-04T12:59:06Z</time>
      </trkpt>
      <trkpt lat="47.64101" lon="-2.95198">
        <ele>-0.2</ele>
        <time>2021-08-04T12:59:07Z</time>
      </trkpt>
      <trkpt lat="47.641" lon="-2.95192">
        <ele>-0.2</ele>
        <time>2021-08-04T12:59:08Z</time>
      </trkpt>
      <trkpt lat="47.641" lon="-2.95185">
        <ele>-0.2</ele>
        <time>2021-08-04T12:59:09Z</time>
      </trkpt>
      <trkpt lat="47.64099" lon="-2.95179">
        <ele>-0.2</ele>
        <time>2021-08-04T12:59:10Z</time>
      </trkpt>
      <trkpt lat="47.64098" lon="-2.95173">
        <ele>-0.2</ele>
        <time>2021-08-04T12:59:11Z</time>
      </trkpt>
      <trkpt lat="47.64097" lon="-2.95167">
        <ele>-0.2</ele>
        <time>2021-08-04T12:59:12Z</time>
      </trkpt>
      <trkpt lat="47.64097" lon="-2.9516">
        <ele>-0.2</ele>
        <time>2021-08-04T12:59:13Z</time>
      </trkpt>
      <trkpt lat="47.64096" lon="-2.95154">
        <ele>-0.2</ele>
        <time>2021-08-04T12:59:14Z</time>
      </trkpt>
      <trkpt lat="47.64095" lon="-2.95148">
        <ele>-0.2</ele>
        <time>2021-08-04T12:59:15Z</time>
      </trkpt>
      <trkpt lat="47.64094" lon="-2.95142">
        <ele>-0.2</ele>
        <time>2021-08-04T12:59:16Z</time>
      </trkpt>
      <trkpt lat="47.64093" lon="-2.95137">
        <ele>-0.2</ele>
        <time>2021-08-04T12:59:17Z</time>
      </trkpt>
      <trkpt lat="47.64092" lon="-2.95131">
        <ele>-0.2</ele>
        <time>2021-08-04T12:59:18Z</time>
      </trkpt>
      <trkpt lat="47.64092" lon="-2.95126">
        <ele>-0.2</ele>
        <time>2021-08-04T12:59:19Z</time>
      </trkpt>
      <trkpt lat="47.6409" lon="-2.95121">
        <ele>-0.2</ele>
        <time>2021-08-04T12:59:20Z</time>
      </trkpt>
      <trkpt lat="47.64089" lon="-2.95116">
        <ele>-0.2</ele>
        <time>2021-08-04T12:59:21Z</time>
      </trkpt>
      <trkpt lat="47.64088" lon="-2.95111">
        <ele>-0.2</ele>
        <time>2021-08-04T12:59:22Z</time>
      </trkpt>
      <trkpt lat="47.64087" lon="-2.95106">
        <ele>-0.2</ele>
        <time>2021-08-04T12:59:23Z</time>
      </trkpt>
      <trkpt lat="47.64086" lon="-2.95102">
        <ele>-0.2</ele>
        <time>2021-08-04T12:59:24Z</time>
      </trkpt>
      <trkpt lat="47.64086" lon="-2.95098">
        <ele>-0.2</ele>
        <time>2021-08-04T12:59:25Z</time>
      </trkpt>
      <trkpt lat="47.64086" lon="-2.95096">
        <ele>-0.2</ele>
        <time>2021-08-04T12:59:26Z</time>
      </trkpt>
      <trkpt lat="47.64086" lon="-2.95095">
        <ele>-0.2</ele>
        <time>2021-08-04T12:59:27Z</time>
      </trkpt>
      <trkpt lat="47.64086" lon="-2.95095">
        <ele>-0.2</ele>
        <time>2021-08-04T12:59:28Z</time>
      </trkpt>
      <trkpt lat="47.64092" lon="-2.95089">
        <ele>2</ele>
        <time>2021-08-04T13:00:40Z</time>
      </trkpt>
      <trkpt lat="47.64094" lon="-2.95088">
        <ele>2</ele>
        <time>2021-08-04T13:00:41Z</time>
      </trkpt>
      <trkpt lat="47.64096" lon="-2.95087">
        <ele>2</ele>
        <time>2021-08-04T13:00:42Z</time>
      </trkpt>
      <trkpt lat="47.64098" lon="-2.95086">
        <ele>2</ele>
        <time>2021-08-04T13:00:43Z</time>
      </trkpt>
      <trkpt lat="47.641" lon="-2.95084">
        <ele>2</ele>
        <time>2021-08-04T13:00:44Z</time>
      </trkpt>
      <trkpt lat="47.64101" lon="-2.95082">
        <ele>2</ele>
        <time>2021-08-04T13:00:45Z</time>
      </trkpt>
      <trkpt lat="47.64102" lon="-2.95079">
        <ele>2</ele>
        <time>2021-08-04T13:00:46Z</time>
      </trkpt>
      <trkpt lat="47.64103" lon="-2.95077">
        <ele>2.2</ele>
        <time>2021-08-04T13:00:47Z</time>
      </trkpt>
      <trkpt lat="47.64105" lon="-2.95075">
        <ele>2.2</ele>
        <time>2021-08-04T13:00:48Z</time>
      </trkpt>
      <trkpt lat="47.64106" lon="-2.95073">
        <ele>2.2</ele>
        <time>2021-08-04T13:00:49Z</time>
      </trkpt>
      <trkpt lat="47.64107" lon="-2.95071">
        <ele>2.4</ele>
        <time>2021-08-04T13:00:50Z</time>
      </trkpt>
      <trkpt lat="47.64108" lon="-2.95069">
        <ele>2.4</ele>
        <time>2021-08-04T13:00:51Z</time>
      </trkpt>
      <trkpt lat="47.64108" lon="-2.95067">
        <ele>2.4</ele>
        <time>2021-08-04T13:00:52Z</time>
      </trkpt>
      <trkpt lat="47.64109" lon="-2.95064">
        <ele>2.6</ele>
        <time>2021-08-04T13:00:53Z</time>
      </trkpt>
      <trkpt lat="47.64109" lon="-2.95062">
        <ele>2.8</ele>
        <time>2021-08-04T13:00:54Z</time>
      </trkpt>
      <trkpt lat="47.64111" lon="-2.9506">
        <ele>3</ele>
        <time>2021-08-04T13:00:55Z</time>
      </trkpt>
      <trkpt lat="47.64112" lon="-2.95057">
        <ele>3.2</ele>
        <time>2021-08-04T13:00:56Z</time>
      </trkpt>
      <trkpt lat="47.64113" lon="-2.95054">
        <ele>3.4</ele>
        <time>2021-08-04T13:00:57Z</time>
      </trkpt>
      <trkpt lat="47.64114" lon="-2.95051">
        <ele>3.6</ele>
        <time>2021-08-04T13:00:58Z</time>
      </trkpt>
      <trkpt lat="47.64115" lon="-2.95048">
        <ele>3.6</ele>
        <time>2021-08-04T13:00:59Z</time>
      </trkpt>
      <trkpt lat="47.64117" lon="-2.95045">
        <ele>3.6</ele>
        <time>2021-08-04T13:01:00Z</time>
      </trkpt>
      <trkpt lat="47.64118" lon="-2.95042">
        <ele>3.6</ele>
        <time>2021-08-04T13:01:01Z</time>
      </trkpt>
      <trkpt lat="47.64119" lon="-2.95039">
        <ele>3.6</ele>
        <time>2021-08-04T13:01:02Z</time>
      </trkpt>
      <trkpt lat="47.6412" lon="-2.95036">
        <ele>3.8</ele>
        <time>2021-08-04T13:01:03Z</time>
      </trkpt>
      <trkpt lat="47.64121" lon="-2.95032">
        <ele>3.8</ele>
        <time>2021-08-04T13:01:04Z</time>
      </trkpt>
      <trkpt lat="47.64123" lon="-2.95029">
        <ele>3.8</ele>
        <time>2021-08-04T13:01:05Z</time>
      </trkpt>
      <trkpt lat="47.64124" lon="-2.95026">
        <ele>3.8</ele>
        <time>2021-08-04T13:01:06Z</time>
      </trkpt>
      <trkpt lat="47.64124" lon="-2.95022">
        <ele>3.8</ele>
        <time>2021-08-04T13:01:07Z</time>
      </trkpt>
      <trkpt lat="47.64124" lon="-2.95019">
        <ele>3.8</ele>
        <time>2021-08-04T13:01:08Z</time>
      </trkpt>
      <trkpt lat="47.64124" lon="-2.95015">
        <ele>4</ele>
        <time>2021-08-04T13:01:09Z</time>
      </trkpt>
      <trkpt lat="47.64124" lon="-2.95012">
        <ele>4</ele>
        <time>2021-08-04T13:01:10Z</time>
      </trkpt>
      <trkpt lat="47.64123" lon="-2.9501">
        <ele>4.2</ele>
        <time>2021-08-04T13:01:11Z</time>
      </trkpt>
      <trkpt lat="47.64122" lon="-2.95008">
        <ele>4.4</ele>
        <time>2021-08-04T13:01:12Z</time>
      </trkpt>
      <trkpt lat="47.64121" lon="-2.95005">
        <ele>4.4</ele>
        <time>2021-08-04T13:01:13Z</time>
      </trkpt>
      <trkpt lat="47.6412" lon="-2.95003">
        <ele>4.6</ele>
        <time>2021-08-04T13:01:14Z</time>
      </trkpt>
      <trkpt lat="47.64118" lon="-2.95001">
        <ele>4.6</ele>
        <time>2021-08-04T13:01:15Z</time>
      </trkpt>
      <trkpt lat="47.64116" lon="-2.94999">
        <ele>4.6</ele>
        <time>2021-08-04T13:01:16Z</time>
      </trkpt>
      <trkpt lat="47.64115" lon="-2.94997">
        <ele>4.6</ele>
        <time>2021-08-04T13:01:17Z</time>
      </trkpt>
      <trkpt lat="47.64113" lon="-2.94995">
        <ele>4.8</ele>
        <time>2021-08-04T13:01:18Z</time>
      </trkpt>
      <trkpt lat="47.64112" lon="-2.94993">
        <ele>4.8</ele>
        <time>2021-08-04T13:01:19Z</time>
      </trkpt>
      <trkpt lat="47.6411" lon="-2.94991">
        <ele>5</ele>
        <time>2021-08-04T13:01:20Z</time>
      </trkpt>
      <trkpt lat="47.64108" lon="-2.9499">
        <ele>5.2</ele>
        <time>2021-08-04T13:01:21Z</time>
      </trkpt>
      <trkpt lat="47.64107" lon="-2.94988">
        <ele>5.6</ele>
        <time>2021-08-04T13:01:22Z</time>
      </trkpt>
      <trkpt lat="47.64105" lon="-2.94986">
        <ele>5.8</ele>
        <time>2021-08-04T13:01:23Z</time>
      </trkpt>
      <trkpt lat="47.64103" lon="-2.94984">
        <ele>5.8</ele>
        <time>2021-08-04T13:01:24Z</time>
      </trkpt>
      <trkpt lat="47.64102" lon="-2.94983">
        <ele>6</ele>
        <time>2021-08-04T13:01:25Z</time>
      </trkpt>
      <trkpt lat="47.641" lon="-2.94981">
        <ele>6</ele>
        <time>2021-08-04T13:01:26Z</time>
      </trkpt>
      <trkpt lat="47.64099" lon="-2.9498">
        <ele>6.2</ele>
        <time>2021-08-04T13:01:27Z</time>
      </trkpt>
      <trkpt lat="47.64097" lon="-2.94979">
        <ele>6.2</ele>
        <time>2021-08-04T13:01:28Z</time>
      </trkpt>
      <trkpt lat="47.64096" lon="-2.94978">
        <ele>6.4</ele>
        <time>2021-08-04T13:01:29Z</time>
      </trkpt>
      <trkpt lat="47.64095" lon="-2.94977">
        <ele>6.4</ele>
        <time>2021-08-04T13:01:30Z</time>
      </trkpt>
      <trkpt lat="47.64096" lon="-2.94975">
        <ele>6.6</ele>
        <time>2021-08-04T13:01:31Z</time>
      </trkpt>
      <trkpt lat="47.64096" lon="-2.94974">
        <ele>6.8</ele>
        <time>2021-08-04T13:01:32Z</time>
      </trkpt>
      <trkpt lat="47.64097" lon="-2.94974">
        <ele>6.8</ele>
        <time>2021-08-04T13:01:33Z</time>
      </trkpt>
      <trkpt lat="47.64098" lon="-2.94975">
        <ele>6.8</ele>
        <time>2021-08-04T13:01:34Z</time>
      </trkpt>
      <trkpt lat="47.64099" lon="-2.94977">
        <ele>6.8</ele>
        <time>2021-08-04T13:01:35Z</time>
      </trkpt>
      <trkpt lat="47.641" lon="-2.94978">
        <ele>6.8</ele>
        <time>2021-08-04T13:01:36Z</time>
      </trkpt>
      <trkpt lat="47.64102" lon="-2.9498">
        <ele>6.8</ele>
        <time>2021-08-04T13:01:37Z</time>
      </trkpt>
      <trkpt lat="47.64104" lon="-2.94981">
        <ele>6.8</ele>
        <time>2021-08-04T13:01:38Z</time>
      </trkpt>
      <trkpt lat="47.64107" lon="-2.94982">
        <ele>6.8</ele>
        <time>2021-08-04T13:01:39Z</time>
      </trkpt>
      <trkpt lat="47.64109" lon="-2.94983">
        <ele>6.8</ele>
        <time>2021-08-04T13:01:40Z</time>
      </trkpt>
      <trkpt lat="47.6411" lon="-2.94982">
        <ele>6.8</ele>
        <time>2021-08-04T13:01:41Z</time>
      </trkpt>
      <trkpt lat="47.64112" lon="-2.9498">
        <ele>7</ele>
        <time>2021-08-04T13:01:42Z</time>
      </trkpt>
      <trkpt lat="47.64113" lon="-2.94977">
        <ele>7</ele>
        <time>2021-08-04T13:01:43Z</time>
      </trkpt>
      <trkpt lat="47.64115" lon="-2.94973">
        <ele>7</ele>
        <time>2021-08-04T13:01:44Z</time>
      </trkpt>
      <trkpt lat="47.64116" lon="-2.9497">
        <ele>7</ele>
        <time>2021-08-04T13:01:45Z</time>
      </trkpt>
      <trkpt lat="47.64117" lon="-2.94967">
        <ele>7</ele>
        <time>2021-08-04T13:01:46Z</time>
      </trkpt>
      <trkpt lat="47.64118" lon="-2.94963">
        <ele>7</ele>
        <time>2021-08-04T13:01:47Z</time>
      </trkpt>
      <trkpt lat="47.64119" lon="-2.94959">
        <ele>7</ele>
        <time>2021-08-04T13:01:48Z</time>
      </trkpt>
      <trkpt lat="47.6412" lon="-2.94956">
        <ele>7</ele>
        <time>2021-08-04T13:01:49Z</time>
      </trkpt>
      <trkpt lat="47.64121" lon="-2.94953">
        <ele>7</ele>
        <time>2021-08-04T13:01:50Z</time>
      </trkpt>
      <trkpt lat="47.64122" lon="-2.94951">
        <ele>7</ele>
        <time>2021-08-04T13:01:51Z</time>
      </trkpt>
      <trkpt lat="47.64123" lon="-2.94948">
        <ele>7</ele>
        <time>2021-08-04T13:01:52Z</time>
      </trkpt>
      <trkpt lat="47.64124" lon="-2.94946">
        <ele>7.2</ele>
        <time>2021-08-04T13:01:53Z</time>
      </trkpt>
      <trkpt lat="47.64126" lon="-2.94943">
        <ele>7.2</ele>
        <time>2021-08-04T13:01:54Z</time>
      </trkpt>
      <trkpt lat="47.64127" lon="-2.94941">
        <ele>7.2</ele>
        <time>2021-08-04T13:01:55Z</time>
      </trkpt>
      <trkpt lat="47.64129" lon="-2.94939">
        <ele>7.2</ele>
        <time>2021-08-04T13:01:56Z</time>
      </trkpt>
      <trkpt lat="47.6413" lon="-2.94936">
        <ele>7.4</ele>
        <time>2021-08-04T13:01:57Z</time>
      </trkpt>
      <trkpt lat="47.64131" lon="-2.94933">
        <ele>7.4</ele>
        <time>2021-08-04T13:01:58Z</time>
      </trkpt>
      <trkpt lat="47.64133" lon="-2.94931">
        <ele>7.6</ele>
        <time>2021-08-04T13:01:59Z</time>
      </trkpt>
      <trkpt lat="47.64134" lon="-2.94928">
        <ele>7.8</ele>
        <time>2021-08-04T13:02:00Z</time>
      </trkpt>
      <trkpt lat="47.64136" lon="-2.94926">
        <ele>7.8</ele>
        <time>2021-08-04T13:02:01Z</time>
      </trkpt>
      <trkpt lat="47.64137" lon="-2.94923">
        <ele>8</ele>
        <time>2021-08-04T13:02:02Z</time>
      </trkpt>
      <trkpt lat="47.64138" lon="-2.94921">
        <ele>8.4</ele>
        <time>2021-08-04T13:02:03Z</time>
      </trkpt>
      <trkpt lat="47.64139" lon="-2.94918">
        <ele>8.6</ele>
        <time>2021-08-04T13:02:04Z</time>
      </trkpt>
      <trkpt lat="47.6414" lon="-2.94915">
        <ele>8.8</ele>
        <time>2021-08-04T13:02:05Z</time>
      </trkpt>
      <trkpt lat="47.6414" lon="-2.94912">
        <ele>9</ele>
        <time>2021-08-04T13:02:06Z</time>
      </trkpt>
      <trkpt lat="47.64141" lon="-2.94909">
        <ele>9</ele>
        <time>2021-08-04T13:02:07Z</time>
      </trkpt>
      <trkpt lat="47.64141" lon="-2.94906">
        <ele>9.2</ele>
        <time>2021-08-04T13:02:08Z</time>
      </trkpt>
      <trkpt lat="47.64141" lon="-2.94903">
        <ele>9.2</ele>
        <time>2021-08-04T13:02:09Z</time>
      </trkpt>
      <trkpt lat="47.64141" lon="-2.949">
        <ele>9.2</ele>
        <time>2021-08-04T13:02:10Z</time>
      </trkpt>
      <trkpt lat="47.64142" lon="-2.94898">
        <ele>9.4</ele>
        <time>2021-08-04T13:02:11Z</time>
      </trkpt>
      <trkpt lat="47.64142" lon="-2.94895">
        <ele>9.4</ele>
        <time>2021-08-04T13:02:12Z</time>
      </trkpt>
      <trkpt lat="47.64142" lon="-2.94892">
        <ele>9.4</ele>
        <time>2021-08-04T13:02:13Z</time>
      </trkpt>
      <trkpt lat="47.64142" lon="-2.9489">
        <ele>9.4</ele>
        <time>2021-08-04T13:02:14Z</time>
      </trkpt>
      <trkpt lat="47.64142" lon="-2.94887">
        <ele>9.6</ele>
        <time>2021-08-04T13:02:15Z</time>
      </trkpt>
      <trkpt lat="47.64142" lon="-2.94884">
        <ele>9.8</ele>
        <time>2021-08-04T13:02:16Z</time>
      </trkpt>
      <trkpt lat="47.64143" lon="-2.94882">
        <ele>10</ele>
        <time>2021-08-04T13:02:17Z</time>
      </trkpt>
      <trkpt lat="47.64144" lon="-2.94879">
        <ele>10.4</ele>
        <time>2021-08-04T13:02:18Z</time>
      </trkpt>
      <trkpt lat="47.64144" lon="-2.94877">
        <ele>10.6</ele>
        <time>2021-08-04T13:02:19Z</time>
      </trkpt>
      <trkpt lat="47.64144" lon="-2.94874">
        <ele>10.6</ele>
        <time>2021-08-04T13:02:20Z</time>
      </trkpt>
      <trkpt lat="47.64145" lon="-2.94871">
        <ele>10.8</ele>
        <time>2021-08-04T13:02:21Z</time>
      </trkpt>
      <trkpt lat="47.64145" lon="-2.94868">
        <ele>11</ele>
        <time>2021-08-04T13:02:22Z</time>
      </trkpt>
      <trkpt lat="47.64145" lon="-2.94866">
        <ele>11</ele>
        <time>2021-08-04T13:02:23Z</time>
      </trkpt>
      <trkpt lat="47.64145" lon="-2.94863">
        <ele>11.2</ele>
        <time>2021-08-04T13:02:24Z</time>
      </trkpt>
      <trkpt lat="47.64145" lon="-2.94861">
        <ele>11.4</ele>
        <time>2021-08-04T13:02:25Z</time>
      </trkpt>
      <trkpt lat="47.64145" lon="-2.94858">
        <ele>11.6</ele>
        <time>2021-08-04T13:02:26Z</time>
      </trkpt>
      <trkpt lat="47.64145" lon="-2.94856">
        <ele>11.8</ele>
        <time>2021-08-04T13:02:27Z</time>
      </trkpt>
      <trkpt lat="47.64145" lon="-2.94853">
        <ele>11.8</ele>
        <time>2021-08-04T13:02:28Z</time>
      </trkpt>
      <trkpt lat="47.64146" lon="-2.94851">
        <ele>12</ele>
        <time>2021-08-04T13:02:29Z</time>
      </trkpt>
      <trkpt lat="47.64146" lon="-2.94848">
        <ele>12.2</ele>
        <time>2021-08-04T13:02:30Z</time>
      </trkpt>
      <trkpt lat="47.64146" lon="-2.94846">
        <ele>12.2</ele>
        <time>2021-08-04T13:02:31Z</time>
      </trkpt>
      <trkpt lat="47.64146" lon="-2.94843">
        <ele>12.4</ele>
        <time>2021-08-04T13:02:32Z</time>
      </trkpt>
      <trkpt lat="47.64147" lon="-2.94841">
        <ele>12.4</ele>
        <time>2021-08-04T13:02:33Z</time>
      </trkpt>
      <trkpt lat="47.64147" lon="-2.94839">
        <ele>12.4</ele>
        <time>2021-08-04T13:02:34Z</time>
      </trkpt>
      <trkpt lat="47.64147" lon="-2.94837">
        <ele>12.4</ele>
        <time>2021-08-04T13:02:35Z</time>
      </trkpt>
      <trkpt lat="47.64147" lon="-2.94835">
        <ele>12.6</ele>
        <time>2021-08-04T13:02:36Z</time>
      </trkpt>
      <trkpt lat="47.64147" lon="-2.94833">
        <ele>12.6</ele>
        <time>2021-08-04T13:02:37Z</time>
      </trkpt>
      <trkpt lat="47.64147" lon="-2.94831">
        <ele>12.8</ele>
        <time>2021-08-04T13:02:38Z</time>
      </trkpt>
      <trkpt lat="47.64147" lon="-2.9483">
        <ele>12.8</ele>
        <time>2021-08-04T13:02:39Z</time>
      </trkpt>
      <trkpt lat="47.64147" lon="-2.94829">
        <ele>13</ele>
        <time>2021-08-04T13:02:40Z</time>
      </trkpt>
      <trkpt lat="47.64147" lon="-2.94827">
        <ele>13.2</ele>
        <time>2021-08-04T13:02:41Z</time>
      </trkpt>
      <trkpt lat="47.64147" lon="-2.94825">
        <ele>13.2</ele>
        <time>2021-08-04T13:02:42Z</time>
      </trkpt>
      <trkpt lat="47.64147" lon="-2.94823">
        <ele>13.4</ele>
        <time>2021-08-04T13:02:43Z</time>
      </trkpt>
      <trkpt lat="47.64147" lon="-2.9482">
        <ele>13.4</ele>
        <time>2021-08-04T13:02:44Z</time>
      </trkpt>
      <trkpt lat="47.64149" lon="-2.94818">
        <ele>13.4</ele>
        <time>2021-08-04T13:02:45Z</time>
      </trkpt>
      <trkpt lat="47.6415" lon="-2.94815">
        <ele>13.4</ele>
        <time>2021-08-04T13:02:46Z</time>
      </trkpt>
      <trkpt lat="47.64152" lon="-2.94813">
        <ele>13.4</ele>
        <time>2021-08-04T13:02:47Z</time>
      </trkpt>
      <trkpt lat="47.64154" lon="-2.9481">
        <ele>13.4</ele>
        <time>2021-08-04T13:02:48Z</time>
      </trkpt>
      <trkpt lat="47.64156" lon="-2.94808">
        <ele>13.4</ele>
        <time>2021-08-04T13:02:49Z</time>
      </trkpt>
      <trkpt lat="47.64159" lon="-2.94805">
        <ele>13.4</ele>
        <time>2021-08-04T13:02:50Z</time>
      </trkpt>
      <trkpt lat="47.64161" lon="-2.94802">
        <ele>13.4</ele>
        <time>2021-08-04T13:02:51Z</time>
      </trkpt>
      <trkpt lat="47.64163" lon="-2.94799">
        <ele>13.2</ele>
        <time>2021-08-04T13:02:52Z</time>
      </trkpt>
      <trkpt lat="47.64166" lon="-2.94796">
        <ele>13</ele>
        <time>2021-08-04T13:02:53Z</time>
      </trkpt>
      <trkpt lat="47.64168" lon="-2.94793">
        <ele>13</ele>
        <time>2021-08-04T13:02:54Z</time>
      </trkpt>
      <trkpt lat="47.64171" lon="-2.9479">
        <ele>13</ele>
        <time>2021-08-04T13:02:55Z</time>
      </trkpt>
      <trkpt lat="47.64172" lon="-2.94785">
        <ele>12.8</ele>
        <time>2021-08-04T13:02:56Z</time>
      </trkpt>
      <trkpt lat="47.64173" lon="-2.9478">
        <ele>12.8</ele>
        <time>2021-08-04T13:02:57Z</time>
      </trkpt>
      <trkpt lat="47.64173" lon="-2.94775">
        <ele>12.6</ele>
        <time>2021-08-04T13:02:58Z</time>
      </trkpt>
      <trkpt lat="47.64174" lon="-2.9477">
        <ele>12.6</ele>
        <time>2021-08-04T13:02:59Z</time>
      </trkpt>
      <trkpt lat="47.64175" lon="-2.94765">
        <ele>12.4</ele>
        <time>2021-08-04T13:03:00Z</time>
      </trkpt>
      <trkpt lat="47.64178" lon="-2.94761">
        <ele>12.4</ele>
        <time>2021-08-04T13:03:01Z</time>
      </trkpt>
      <trkpt lat="47.64181" lon="-2.94758">
        <ele>12.4</ele>
        <time>2021-08-04T13:03:02Z</time>
      </trkpt>
      <trkpt lat="47.64184" lon="-2.94755">
        <ele>12.2</ele>
        <time>2021-08-04T13:03:03Z</time>
      </trkpt>
      <trkpt lat="47.64187" lon="-2.94752">
        <ele>12.2</ele>
        <time>2021-08-04T13:03:04Z</time>
      </trkpt>
      <trkpt lat="47.64191" lon="-2.94749">
        <ele>12.2</ele>
        <time>2021-08-04T13:03:05Z</time>
      </trkpt>
      <trkpt lat="47.64194" lon="-2.94746">
        <ele>12</ele>
        <time>2021-08-04T13:03:06Z</time>
      </trkpt>
      <trkpt lat="47.64196" lon="-2.94743">
        <ele>11.8</ele>
        <time>2021-08-04T13:03:07Z</time>
      </trkpt>
      <trkpt lat="47.642" lon="-2.9474">
        <ele>11.8</ele>
        <time>2021-08-04T13:03:08Z</time>
      </trkpt>
      <trkpt lat="47.64203" lon="-2.94737">
        <ele>11.6</ele>
        <time>2021-08-04T13:03:09Z</time>
      </trkpt>
      <trkpt lat="47.64206" lon="-2.94734">
        <ele>11.6</ele>
        <time>2021-08-04T13:03:10Z</time>
      </trkpt>
      <trkpt lat="47.64208" lon="-2.9473">
        <ele>11.4</ele>
        <time>2021-08-04T13:03:11Z</time>
      </trkpt>
      <trkpt lat="47.64211" lon="-2.94727">
        <ele>11.4</ele>
        <time>2021-08-04T13:03:12Z</time>
      </trkpt>
      <trkpt lat="47.64214" lon="-2.94724">
        <ele>11.2</ele>
        <time>2021-08-04T13:03:13Z</time>
      </trkpt>
      <trkpt lat="47.64217" lon="-2.9472">
        <ele>11.2</ele>
        <time>2021-08-04T13:03:14Z</time>
      </trkpt>
      <trkpt lat="47.64219" lon="-2.94717">
        <ele>11</ele>
        <time>2021-08-04T13:03:15Z</time>
      </trkpt>
      <trkpt lat="47.64221" lon="-2.94713">
        <ele>11</ele>
        <time>2021-08-04T13:03:16Z</time>
      </trkpt>
      <trkpt lat="47.64223" lon="-2.94708">
        <ele>11</ele>
        <time>2021-08-04T13:03:17Z</time>
      </trkpt>
      <trkpt lat="47.64225" lon="-2.94704">
        <ele>11</ele>
        <time>2021-08-04T13:03:18Z</time>
      </trkpt>
      <trkpt lat="47.64227" lon="-2.947">
        <ele>11</ele>
        <time>2021-08-04T13:03:19Z</time>
      </trkpt>
      <trkpt lat="47.6423" lon="-2.94697">
        <ele>11</ele>
        <time>2021-08-04T13:03:20Z</time>
      </trkpt>
      <trkpt lat="47.64233" lon="-2.94693">
        <ele>11</ele>
        <time>2021-08-04T13:03:21Z</time>
      </trkpt>
      <trkpt lat="47.64235" lon="-2.94689">
        <ele>11</ele>
        <time>2021-08-04T13:03:22Z</time>
      </trkpt>
      <trkpt lat="47.64238" lon="-2.94686">
        <ele>10.8</ele>
        <time>2021-08-04T13:03:23Z</time>
      </trkpt>
      <trkpt lat="47.6424" lon="-2.94682">
        <ele>10.8</ele>
        <time>2021-08-04T13:03:24Z</time>
      </trkpt>
      <trkpt lat="47.64243" lon="-2.94679">
        <ele>10.8</ele>
        <time>2021-08-04T13:03:25Z</time>
      </trkpt>
      <trkpt lat="47.64246" lon="-2.94676">
        <ele>10.8</ele>
        <time>2021-08-04T13:03:26Z</time>
      </trkpt>
      <trkpt lat="47.64248" lon="-2.94673">
        <ele>10.6</ele>
        <time>2021-08-04T13:03:27Z</time>
      </trkpt>
      <trkpt lat="47.64251" lon="-2.94669">
        <ele>10.6</ele>
        <time>2021-08-04T13:03:28Z</time>
      </trkpt>
      <trkpt lat="47.64254" lon="-2.94665">
        <ele>10.6</ele>
        <time>2021-08-04T13:03:29Z</time>
      </trkpt>
      <trkpt lat="47.64257" lon="-2.94662">
        <ele>10.4</ele>
        <time>2021-08-04T13:03:30Z</time>
      </trkpt>
      <trkpt lat="47.64259" lon="-2.94659">
        <ele>10.4</ele>
        <time>2021-08-04T13:03:31Z</time>
      </trkpt>
      <trkpt lat="47.64262" lon="-2.94655">
        <ele>10.4</ele>
        <time>2021-08-04T13:03:32Z</time>
      </trkpt>
      <trkpt lat="47.64265" lon="-2.94652">
        <ele>10.4</ele>
        <time>2021-08-04T13:03:33Z</time>
      </trkpt>
      <trkpt lat="47.64268" lon="-2.94648">
        <ele>10.4</ele>
        <time>2021-08-04T13:03:34Z</time>
      </trkpt>
      <trkpt lat="47.64271" lon="-2.94645">
        <ele>10.4</ele>
        <time>2021-08-04T13:03:35Z</time>
      </trkpt>
      <trkpt lat="47.64274" lon="-2.94642">
        <ele>10.4</ele>
        <time>2021-08-04T13:03:36Z</time>
      </trkpt>
      <trkpt lat="47.64277" lon="-2.94638">
        <ele>10.4</ele>
        <time>2021-08-04T13:03:37Z</time>
      </trkpt>
      <trkpt lat="47.6428" lon="-2.94635">
        <ele>10.4</ele>
        <time>2021-08-04T13:03:38Z</time>
      </trkpt>
      <trkpt lat="47.64283" lon="-2.94632">
        <ele>10.4</ele>
        <time>2021-08-04T13:03:39Z</time>
      </trkpt>
      <trkpt lat="47.64286" lon="-2.94629">
        <ele>10.4</ele>
        <time>2021-08-04T13:03:40Z</time>
      </trkpt>
      <trkpt lat="47.64288" lon="-2.94625">
        <ele>10.4</ele>
        <time>2021-08-04T13:03:41Z</time>
      </trkpt>
      <trkpt lat="47.64292" lon="-2.94622">
        <ele>10.4</ele>
        <time>2021-08-04T13:03:42Z</time>
      </trkpt>
      <trkpt lat="47.64295" lon="-2.9462">
        <ele>10.6</ele>
        <time>2021-08-04T13:03:43Z</time>
      </trkpt>
      <trkpt lat="47.64298" lon="-2.94617">
        <ele>10.6</ele>
        <time>2021-08-04T13:03:44Z</time>
      </trkpt>
      <trkpt lat="47.64301" lon="-2.94614">
        <ele>10.6</ele>
        <time>2021-08-04T13:03:45Z</time>
      </trkpt>
      <trkpt lat="47.64304" lon="-2.94611">
        <ele>10.6</ele>
        <time>2021-08-04T13:03:46Z</time>
      </trkpt>
      <trkpt lat="47.64308" lon="-2.94609">
        <ele>10.8</ele>
        <time>2021-08-04T13:03:47Z</time>
      </trkpt>
      <trkpt lat="47.64311" lon="-2.94607">
        <ele>10.8</ele>
        <time>2021-08-04T13:03:48Z</time>
      </trkpt>
      <trkpt lat="47.64314" lon="-2.94605">
        <ele>11.2</ele>
        <time>2021-08-04T13:03:49Z</time>
      </trkpt>
      <trkpt lat="47.64317" lon="-2.94602">
        <ele>11.6</ele>
        <time>2021-08-04T13:03:50Z</time>
      </trkpt>
      <trkpt lat="47.6432" lon="-2.946">
        <ele>11.8</ele>
        <time>2021-08-04T13:03:51Z</time>
      </trkpt>
      <trkpt lat="47.64323" lon="-2.94597">
        <ele>11.8</ele>
        <time>2021-08-04T13:03:52Z</time>
      </trkpt>
      <trkpt lat="47.64326" lon="-2.94595">
        <ele>11.8</ele>
        <time>2021-08-04T13:03:53Z</time>
      </trkpt>
      <trkpt lat="47.64329" lon="-2.94593">
        <ele>12</ele>
        <time>2021-08-04T13:03:54Z</time>
      </trkpt>
      <trkpt lat="47.64332" lon="-2.94591">
        <ele>12</ele>
        <time>2021-08-04T13:03:55Z</time>
      </trkpt>
      <trkpt lat="47.64335" lon="-2.94589">
        <ele>12</ele>
        <time>2021-08-04T13:03:56Z</time>
      </trkpt>
      <trkpt lat="47.64337" lon="-2.94587">
        <ele>12.2</ele>
        <time>2021-08-04T13:03:57Z</time>
      </trkpt>
      <trkpt lat="47.6434" lon="-2.94585">
        <ele>12.2</ele>
        <time>2021-08-04T13:03:58Z</time>
      </trkpt>
      <trkpt lat="47.64342" lon="-2.94583">
        <ele>12.4</ele>
        <time>2021-08-04T13:03:59Z</time>
      </trkpt>
      <trkpt lat="47.64345" lon="-2.94581">
        <ele>12.4</ele>
        <time>2021-08-04T13:04:00Z</time>
      </trkpt>
      <trkpt lat="47.64347" lon="-2.94579">
        <ele>12.4</ele>
        <time>2021-08-04T13:04:01Z</time>
      </trkpt>
      <trkpt lat="47.64349" lon="-2.94577">
        <ele>12.4</ele>
        <time>2021-08-04T13:04:02Z</time>
      </trkpt>
      <trkpt lat="47.6435" lon="-2.94574">
        <ele>12.4</ele>
        <time>2021-08-04T13:04:03Z</time>
      </trkpt>
      <trkpt lat="47.64351" lon="-2.94571">
        <ele>12.6</ele>
        <time>2021-08-04T13:04:04Z</time>
      </trkpt>
      <trkpt lat="47.64351" lon="-2.94567">
        <ele>12.8</ele>
        <time>2021-08-04T13:04:05Z</time>
      </trkpt>
      <trkpt lat="47.6435" lon="-2.94563">
        <ele>13.2</ele>
        <time>2021-08-04T13:04:06Z</time>
      </trkpt>
      <trkpt lat="47.6435" lon="-2.9456">
        <ele>13.2</ele>
        <time>2021-08-04T13:04:07Z</time>
      </trkpt>
      <trkpt lat="47.64349" lon="-2.94557">
        <ele>13.6</ele>
        <time>2021-08-04T13:04:08Z</time>
      </trkpt>
      <trkpt lat="47.64349" lon="-2.94554">
        <ele>13.6</ele>
        <time>2021-08-04T13:04:09Z</time>
      </trkpt>
      <trkpt lat="47.64349" lon="-2.94552">
        <ele>13.8</ele>
        <time>2021-08-04T13:04:10Z</time>
      </trkpt>
      <trkpt lat="47.64349" lon="-2.9455">
        <ele>14</ele>
        <time>2021-08-04T13:04:11Z</time>
      </trkpt>
      <trkpt lat="47.64349" lon="-2.94548">
        <ele>14</ele>
        <time>2021-08-04T13:04:12Z</time>
      </trkpt>
      <trkpt lat="47.64349" lon="-2.94546">
        <ele>14</ele>
        <time>2021-08-04T13:04:13Z</time>
      </trkpt>
      <trkpt lat="47.64349" lon="-2.94544">
        <ele>14</ele>
        <time>2021-08-04T13:04:14Z</time>
      </trkpt>
      <trkpt lat="47.64348" lon="-2.94542">
        <ele>14</ele>
        <time>2021-08-04T13:04:15Z</time>
      </trkpt>
      <trkpt lat="47.64348" lon="-2.9454">
        <ele>14</ele>
        <time>2021-08-04T13:04:16Z</time>
      </trkpt>
      <trkpt lat="47.64348" lon="-2.94537">
        <ele>14</ele>
        <time>2021-08-04T13:04:17Z</time>
      </trkpt>
      <trkpt lat="47.64348" lon="-2.94535">
        <ele>14</ele>
        <time>2021-08-04T13:04:18Z</time>
      </trkpt>
      <trkpt lat="47.64348" lon="-2.94532">
        <ele>14</ele>
        <time>2021-08-04T13:04:19Z</time>
      </trkpt>
      <trkpt lat="47.64348" lon="-2.94528">
        <ele>14</ele>
        <time>2021-08-04T13:04:20Z</time>
      </trkpt>
      <trkpt lat="47.64348" lon="-2.94524">
        <ele>14</ele>
        <time>2021-08-04T13:04:21Z</time>
      </trkpt>
      <trkpt lat="47.64347" lon="-2.94519">
        <ele>14</ele>
        <time>2021-08-04T13:04:22Z</time>
      </trkpt>
      <trkpt lat="47.64347" lon="-2.94514">
        <ele>13.8</ele>
        <time>2021-08-04T13:04:23Z</time>
      </trkpt>
      <trkpt lat="47.64346" lon="-2.94509">
        <ele>13.8</ele>
        <time>2021-08-04T13:04:24Z</time>
      </trkpt>
      <trkpt lat="47.64345" lon="-2.94503">
        <ele>13.8</ele>
        <time>2021-08-04T13:04:25Z</time>
      </trkpt>
      <trkpt lat="47.64345" lon="-2.94497">
        <ele>13.6</ele>
        <time>2021-08-04T13:04:26Z</time>
      </trkpt>
      <trkpt lat="47.64344" lon="-2.9449">
        <ele>13.6</ele>
        <time>2021-08-04T13:04:27Z</time>
      </trkpt>
      <trkpt lat="47.64343" lon="-2.94484">
        <ele>13.4</ele>
        <time>2021-08-04T13:04:28Z</time>
      </trkpt>
      <trkpt lat="47.64343" lon="-2.94477">
        <ele>13.4</ele>
        <time>2021-08-04T13:04:29Z</time>
      </trkpt>
      <trkpt lat="47.64342" lon="-2.94469">
        <ele>13.2</ele>
        <time>2021-08-04T13:04:30Z</time>
      </trkpt>
      <trkpt lat="47.64342" lon="-2.94461">
        <ele>13.2</ele>
        <time>2021-08-04T13:04:31Z</time>
      </trkpt>
      <trkpt lat="47.64341" lon="-2.94454">
        <ele>13</ele>
        <time>2021-08-04T13:04:32Z</time>
      </trkpt>
      <trkpt lat="47.6434" lon="-2.94446">
        <ele>12.8</ele>
        <time>2021-08-04T13:04:33Z</time>
      </trkpt>
      <trkpt lat="47.64337" lon="-2.94438">
        <ele>12.2</ele>
        <time>2021-08-04T13:04:34Z</time>
      </trkpt>
      <trkpt lat="47.64335" lon="-2.9443">
        <ele>11.8</ele>
        <time>2021-08-04T13:04:35Z</time>
      </trkpt>
      <trkpt lat="47.64331" lon="-2.94422">
        <ele>11.6</ele>
        <time>2021-08-04T13:04:36Z</time>
      </trkpt>
      <trkpt lat="47.64327" lon="-2.94415">
        <ele>11.4</ele>
        <time>2021-08-04T13:04:37Z</time>
      </trkpt>
      <trkpt lat="47.64323" lon="-2.94407">
        <ele>11.2</ele>
        <time>2021-08-04T13:04:38Z</time>
      </trkpt>
      <trkpt lat="47.64319" lon="-2.944">
        <ele>10.8</ele>
        <time>2021-08-04T13:04:39Z</time>
      </trkpt>
      <trkpt lat="47.64315" lon="-2.94393">
        <ele>10.2</ele>
        <time>2021-08-04T13:04:40Z</time>
      </trkpt>
      <trkpt lat="47.6431" lon="-2.94386">
        <ele>10</ele>
        <time>2021-08-04T13:04:41Z</time>
      </trkpt>
      <trkpt lat="47.64306" lon="-2.94379">
        <ele>9.8</ele>
        <time>2021-08-04T13:04:42Z</time>
      </trkpt>
      <trkpt lat="47.64301" lon="-2.94372">
        <ele>9.4</ele>
        <time>2021-08-04T13:04:43Z</time>
      </trkpt>
      <trkpt lat="47.64297" lon="-2.94365">
        <ele>9</ele>
        <time>2021-08-04T13:04:44Z</time>
      </trkpt>
      <trkpt lat="47.64292" lon="-2.94357">
        <ele>8.6</ele>
        <time>2021-08-04T13:04:45Z</time>
      </trkpt>
      <trkpt lat="47.64289" lon="-2.9435">
        <ele>8.2</ele>
        <time>2021-08-04T13:04:46Z</time>
      </trkpt>
      <trkpt lat="47.64286" lon="-2.94342">
        <ele>7.8</ele>
        <time>2021-08-04T13:04:47Z</time>
      </trkpt>
      <trkpt lat="47.64283" lon="-2.94334">
        <ele>7.6</ele>
        <time>2021-08-04T13:04:48Z</time>
      </trkpt>
      <trkpt lat="47.64282" lon="-2.94326">
        <ele>7.4</ele>
        <time>2021-08-04T13:04:49Z</time>
      </trkpt>
      <trkpt lat="47.64282" lon="-2.94318">
        <ele>7.4</ele>
        <time>2021-08-04T13:04:50Z</time>
      </trkpt>
      <trkpt lat="47.64282" lon="-2.9431">
        <ele>7.2</ele>
        <time>2021-08-04T13:04:51Z</time>
      </trkpt>
      <trkpt lat="47.64281" lon="-2.94302">
        <ele>7.2</ele>
        <time>2021-08-04T13:04:52Z</time>
      </trkpt>
      <trkpt lat="47.64281" lon="-2.94295">
        <ele>7.2</ele>
        <time>2021-08-04T13:04:53Z</time>
      </trkpt>
      <trkpt lat="47.64281" lon="-2.94288">
        <ele>7.2</ele>
        <time>2021-08-04T13:04:54Z</time>
      </trkpt>
      <trkpt lat="47.6428" lon="-2.94282">
        <ele>7.2</ele>
        <time>2021-08-04T13:04:55Z</time>
      </trkpt>
      <trkpt lat="47.64279" lon="-2.94276">
        <ele>7.2</ele>
        <time>2021-08-04T13:04:56Z</time>
      </trkpt>
      <trkpt lat="47.64279" lon="-2.9427">
        <ele>7.2</ele>
        <time>2021-08-04T13:04:57Z</time>
      </trkpt>
      <trkpt lat="47.64278" lon="-2.94264">
        <ele>7.2</ele>
        <time>2021-08-04T13:04:58Z</time>
      </trkpt>
      <trkpt lat="47.64277" lon="-2.94258">
        <ele>7.2</ele>
        <time>2021-08-04T13:04:59Z</time>
      </trkpt>
      <trkpt lat="47.64276" lon="-2.94252">
        <ele>7.4</ele>
        <time>2021-08-04T13:05:00Z</time>
      </trkpt>
      <trkpt lat="47.64275" lon="-2.94246">
        <ele>7.4</ele>
        <time>2021-08-04T13:05:01Z</time>
      </trkpt>
      <trkpt lat="47.64273" lon="-2.9424">
        <ele>7.8</ele>
        <time>2021-08-04T13:05:02Z</time>
      </trkpt>
      <trkpt lat="47.64272" lon="-2.94235">
        <ele>8</ele>
        <time>2021-08-04T13:05:03Z</time>
      </trkpt>
      <trkpt lat="47.6427" lon="-2.94229">
        <ele>8.2</ele>
        <time>2021-08-04T13:05:04Z</time>
      </trkpt>
      <trkpt lat="47.64269" lon="-2.94223">
        <ele>8.4</ele>
        <time>2021-08-04T13:05:05Z</time>
      </trkpt>
      <trkpt lat="47.64267" lon="-2.94217">
        <ele>8.6</ele>
        <time>2021-08-04T13:05:06Z</time>
      </trkpt>
      <trkpt lat="47.64266" lon="-2.94211">
        <ele>8.6</ele>
        <time>2021-08-04T13:05:07Z</time>
      </trkpt>
      <trkpt lat="47.64264" lon="-2.94205">
        <ele>8.6</ele>
        <time>2021-08-04T13:05:08Z</time>
      </trkpt>
      <trkpt lat="47.64262" lon="-2.94199">
        <ele>8.8</ele>
        <time>2021-08-04T13:05:09Z</time>
      </trkpt>
      <trkpt lat="47.64261" lon="-2.94193">
        <ele>8.8</ele>
        <time>2021-08-04T13:05:10Z</time>
      </trkpt>
      <trkpt lat="47.64259" lon="-2.94187">
        <ele>8.8</ele>
        <time>2021-08-04T13:05:11Z</time>
      </trkpt>
      <trkpt lat="47.64258" lon="-2.94181">
        <ele>8.8</ele>
        <time>2021-08-04T13:05:12Z</time>
      </trkpt>
      <trkpt lat="47.64257" lon="-2.94175">
        <ele>8.8</ele>
        <time>2021-08-04T13:05:13Z</time>
      </trkpt>
      <trkpt lat="47.64255" lon="-2.94169">
        <ele>8.8</ele>
        <time>2021-08-04T13:05:14Z</time>
      </trkpt>
      <trkpt lat="47.64254" lon="-2.94163">
        <ele>8.8</ele>
        <time>2021-08-04T13:05:15Z</time>
      </trkpt>
      <trkpt lat="47.64252" lon="-2.94156">
        <ele>8.8</ele>
        <time>2021-08-04T13:05:16Z</time>
      </trkpt>
      <trkpt lat="47.64251" lon="-2.94151">
        <ele>8.8</ele>
        <time>2021-08-04T13:05:17Z</time>
      </trkpt>
      <trkpt lat="47.6425" lon="-2.94146">
        <ele>8.8</ele>
        <time>2021-08-04T13:05:18Z</time>
      </trkpt>
      <trkpt lat="47.64248" lon="-2.94141">
        <ele>8.8</ele>
        <time>2021-08-04T13:05:19Z</time>
      </trkpt>
      <trkpt lat="47.64246" lon="-2.94137">
        <ele>8.8</ele>
        <time>2021-08-04T13:05:20Z</time>
      </trkpt>
      <trkpt lat="47.64245" lon="-2.94131">
        <ele>8.8</ele>
        <time>2021-08-04T13:05:21Z</time>
      </trkpt>
      <trkpt lat="47.64243" lon="-2.94126">
        <ele>8.8</ele>
        <time>2021-08-04T13:05:22Z</time>
      </trkpt>
      <trkpt lat="47.64242" lon="-2.94121">
        <ele>8.8</ele>
        <time>2021-08-04T13:05:23Z</time>
      </trkpt>
      <trkpt lat="47.6424" lon="-2.94116">
        <ele>8.8</ele>
        <time>2021-08-04T13:05:24Z</time>
      </trkpt>
      <trkpt lat="47.64239" lon="-2.9411">
        <ele>8.8</ele>
        <time>2021-08-04T13:05:25Z</time>
      </trkpt>
      <trkpt lat="47.64237" lon="-2.94105">
        <ele>8.8</ele>
        <time>2021-08-04T13:05:26Z</time>
      </trkpt>
      <trkpt lat="47.64235" lon="-2.941">
        <ele>8.8</ele>
        <time>2021-08-04T13:05:27Z</time>
      </trkpt>
      <trkpt lat="47.64234" lon="-2.94094">
        <ele>8.8</ele>
        <time>2021-08-04T13:05:28Z</time>
      </trkpt>
      <trkpt lat="47.64232" lon="-2.94089">
        <ele>8.8</ele>
        <time>2021-08-04T13:05:29Z</time>
      </trkpt>
      <trkpt lat="47.6423" lon="-2.94083">
        <ele>8.8</ele>
        <time>2021-08-04T13:05:30Z</time>
      </trkpt>
      <trkpt lat="47.64229" lon="-2.94078">
        <ele>9</ele>
        <time>2021-08-04T13:05:31Z</time>
      </trkpt>
      <trkpt lat="47.64227" lon="-2.94072">
        <ele>9</ele>
        <time>2021-08-04T13:05:32Z</time>
      </trkpt>
      <trkpt lat="47.64224" lon="-2.94067">
        <ele>9</ele>
        <time>2021-08-04T13:05:33Z</time>
      </trkpt>
      <trkpt lat="47.64222" lon="-2.94062">
        <ele>9</ele>
        <time>2021-08-04T13:05:34Z</time>
      </trkpt>
      <trkpt lat="47.6422" lon="-2.94057">
        <ele>9</ele>
        <time>2021-08-04T13:05:35Z</time>
      </trkpt>
      <trkpt lat="47.64218" lon="-2.94052">
        <ele>9</ele>
        <time>2021-08-04T13:05:36Z</time>
      </trkpt>
      <trkpt lat="47.64216" lon="-2.94047">
        <ele>9</ele>
        <time>2021-08-04T13:05:37Z</time>
      </trkpt>
      <trkpt lat="47.64213" lon="-2.94042">
        <ele>9</ele>
        <time>2021-08-04T13:05:38Z</time>
      </trkpt>
      <trkpt lat="47.64211" lon="-2.94038">
        <ele>9</ele>
        <time>2021-08-04T13:05:39Z</time>
      </trkpt>
      <trkpt lat="47.64209" lon="-2.94033">
        <ele>9</ele>
        <time>2021-08-04T13:05:40Z</time>
      </trkpt>
      <trkpt lat="47.64207" lon="-2.9403">
        <ele>9</ele>
        <time>2021-08-04T13:05:41Z</time>
      </trkpt>
      <trkpt lat="47.64204" lon="-2.94027">
        <ele>9</ele>
        <time>2021-08-04T13:05:42Z</time>
      </trkpt>
      <trkpt lat="47.64201" lon="-2.94024">
        <ele>9</ele>
        <time>2021-08-04T13:05:43Z</time>
      </trkpt>
      <trkpt lat="47.64199" lon="-2.9402">
        <ele>9</ele>
        <time>2021-08-04T13:05:44Z</time>
      </trkpt>
      <trkpt lat="47.64198" lon="-2.94017">
        <ele>9</ele>
        <time>2021-08-04T13:05:45Z</time>
      </trkpt>
      <trkpt lat="47.64198" lon="-2.94012">
        <ele>9</ele>
        <time>2021-08-04T13:05:46Z</time>
      </trkpt>
      <trkpt lat="47.64199" lon="-2.94008">
        <ele>9</ele>
        <time>2021-08-04T13:05:47Z</time>
      </trkpt>
      <trkpt lat="47.64201" lon="-2.94005">
        <ele>9</ele>
        <time>2021-08-04T13:05:48Z</time>
      </trkpt>
      <trkpt lat="47.64204" lon="-2.94002">
        <ele>9</ele>
        <time>2021-08-04T13:05:49Z</time>
      </trkpt>
      <trkpt lat="47.64206" lon="-2.93998">
        <ele>9</ele>
        <time>2021-08-04T13:05:50Z</time>
      </trkpt>
      <trkpt lat="47.64209" lon="-2.93994">
        <ele>9</ele>
        <time>2021-08-04T13:05:51Z</time>
      </trkpt>
      <trkpt lat="47.64211" lon="-2.93991">
        <ele>9</ele>
        <time>2021-08-04T13:05:52Z</time>
      </trkpt>
      <trkpt lat="47.64214" lon="-2.93987">
        <ele>9</ele>
        <time>2021-08-04T13:05:53Z</time>
      </trkpt>
      <trkpt lat="47.64217" lon="-2.93983">
        <ele>8.8</ele>
        <time>2021-08-04T13:05:54Z</time>
      </trkpt>
      <trkpt lat="47.6422" lon="-2.9398">
        <ele>8.8</ele>
        <time>2021-08-04T13:05:55Z</time>
      </trkpt>
      <trkpt lat="47.64222" lon="-2.93976">
        <ele>8.8</ele>
        <time>2021-08-04T13:05:56Z</time>
      </trkpt>
      <trkpt lat="47.64225" lon="-2.93972">
        <ele>8.8</ele>
        <time>2021-08-04T13:05:57Z</time>
      </trkpt>
      <trkpt lat="47.64227" lon="-2.93968">
        <ele>8.8</ele>
        <time>2021-08-04T13:05:58Z</time>
      </trkpt>
      <trkpt lat="47.6423" lon="-2.93965">
        <ele>8.8</ele>
        <time>2021-08-04T13:05:59Z</time>
      </trkpt>
      <trkpt lat="47.64232" lon="-2.93961">
        <ele>8.8</ele>
        <time>2021-08-04T13:06:00Z</time>
      </trkpt>
      <trkpt lat="47.64234" lon="-2.93957">
        <ele>8.8</ele>
        <time>2021-08-04T13:06:01Z</time>
      </trkpt>
      <trkpt lat="47.64236" lon="-2.93954">
        <ele>8.8</ele>
        <time>2021-08-04T13:06:02Z</time>
      </trkpt>
      <trkpt lat="47.64237" lon="-2.93951">
        <ele>9</ele>
        <time>2021-08-04T13:06:03Z</time>
      </trkpt>
      <trkpt lat="47.64238" lon="-2.93948">
        <ele>9</ele>
        <time>2021-08-04T13:06:04Z</time>
      </trkpt>
      <trkpt lat="47.6424" lon="-2.93945">
        <ele>9.2</ele>
        <time>2021-08-04T13:06:05Z</time>
      </trkpt>
      <trkpt lat="47.64241" lon="-2.93943">
        <ele>9.4</ele>
        <time>2021-08-04T13:06:06Z</time>
      </trkpt>
      <trkpt lat="47.64242" lon="-2.93942">
        <ele>9.4</ele>
        <time>2021-08-04T13:06:07Z</time>
      </trkpt>
      <trkpt lat="47.64242" lon="-2.9394">
        <ele>9.6</ele>
        <time>2021-08-04T13:06:08Z</time>
      </trkpt>
      <trkpt lat="47.64243" lon="-2.93939">
        <ele>9.6</ele>
        <time>2021-08-04T13:06:09Z</time>
      </trkpt>
      <trkpt lat="47.64244" lon="-2.93938">
        <ele>9.6</ele>
        <time>2021-08-04T13:06:10Z</time>
      </trkpt>
      <trkpt lat="47.64248" lon="-2.93939">
        <ele>10.4</ele>
        <time>2021-08-04T13:07:39Z</time>
      </trkpt>
      <trkpt lat="47.64249" lon="-2.93937">
        <ele>10.4</ele>
        <time>2021-08-04T13:07:40Z</time>
      </trkpt>
      <trkpt lat="47.64251" lon="-2.93936">
        <ele>10.2</ele>
        <time>2021-08-04T13:07:41Z</time>
      </trkpt>
      <trkpt lat="47.64252" lon="-2.93934">
        <ele>10.2</ele>
        <time>2021-08-04T13:07:42Z</time>
      </trkpt>
      <trkpt lat="47.64254" lon="-2.93932">
        <ele>10.2</ele>
        <time>2021-08-04T13:07:43Z</time>
      </trkpt>
      <trkpt lat="47.64255" lon="-2.9393">
        <ele>10.2</ele>
        <time>2021-08-04T13:07:44Z</time>
      </trkpt>
      <trkpt lat="47.64257" lon="-2.93927">
        <ele>10.2</ele>
        <time>2021-08-04T13:07:45Z</time>
      </trkpt>
      <trkpt lat="47.64259" lon="-2.93925">
        <ele>10.2</ele>
        <time>2021-08-04T13:07:46Z</time>
      </trkpt>
      <trkpt lat="47.64261" lon="-2.93922">
        <ele>10.2</ele>
        <time>2021-08-04T13:07:47Z</time>
      </trkpt>
      <trkpt lat="47.64263" lon="-2.9392">
        <ele>10.2</ele>
        <time>2021-08-04T13:07:48Z</time>
      </trkpt>
      <trkpt lat="47.64265" lon="-2.93917">
        <ele>10.2</ele>
        <time>2021-08-04T13:07:49Z</time>
      </trkpt>
      <trkpt lat="47.64267" lon="-2.93914">
        <ele>10</ele>
        <time>2021-08-04T13:07:50Z</time>
      </trkpt>
      <trkpt lat="47.64269" lon="-2.9391">
        <ele>10</ele>
        <time>2021-08-04T13:07:51Z</time>
      </trkpt>
      <trkpt lat="47.64272" lon="-2.93907">
        <ele>10</ele>
        <time>2021-08-04T13:07:52Z</time>
      </trkpt>
      <trkpt lat="47.64274" lon="-2.93903">
        <ele>10</ele>
        <time>2021-08-04T13:07:53Z</time>
      </trkpt>
      <trkpt lat="47.64277" lon="-2.939">
        <ele>10</ele>
        <time>2021-08-04T13:07:54Z</time>
      </trkpt>
      <trkpt lat="47.64279" lon="-2.93896">
        <ele>10</ele>
        <time>2021-08-04T13:07:55Z</time>
      </trkpt>
      <trkpt lat="47.64282" lon="-2.93893">
        <ele>10</ele>
        <time>2021-08-04T13:07:56Z</time>
      </trkpt>
      <trkpt lat="47.64285" lon="-2.93889">
        <ele>10</ele>
        <time>2021-08-04T13:07:57Z</time>
      </trkpt>
      <trkpt lat="47.64288" lon="-2.93885">
        <ele>10</ele>
        <time>2021-08-04T13:07:58Z</time>
      </trkpt>
      <trkpt lat="47.64291" lon="-2.93881">
        <ele>9.8</ele>
        <time>2021-08-04T13:07:59Z</time>
      </trkpt>
      <trkpt lat="47.64294" lon="-2.93877">
        <ele>9.8</ele>
        <time>2021-08-04T13:08:00Z</time>
      </trkpt>
      <trkpt lat="47.64296" lon="-2.93873">
        <ele>9.8</ele>
        <time>2021-08-04T13:08:01Z</time>
      </trkpt>
      <trkpt lat="47.64299" lon="-2.93869">
        <ele>10</ele>
        <time>2021-08-04T13:08:02Z</time>
      </trkpt>
      <trkpt lat="47.64302" lon="-2.93865">
        <ele>10</ele>
        <time>2021-08-04T13:08:03Z</time>
      </trkpt>
      <trkpt lat="47.64305" lon="-2.93861">
        <ele>10</ele>
        <time>2021-08-04T13:08:04Z</time>
      </trkpt>
      <trkpt lat="47.64308" lon="-2.93857">
        <ele>10</ele>
        <time>2021-08-04T13:08:05Z</time>
      </trkpt>
      <trkpt lat="47.64311" lon="-2.93853">
        <ele>10.2</ele>
        <time>2021-08-04T13:08:06Z</time>
      </trkpt>
      <trkpt lat="47.64314" lon="-2.93848">
        <ele>10.2</ele>
        <time>2021-08-04T13:08:07Z</time>
      </trkpt>
      <trkpt lat="47.64317" lon="-2.93844">
        <ele>10.2</ele>
        <time>2021-08-04T13:08:08Z</time>
      </trkpt>
      <trkpt lat="47.6432" lon="-2.9384">
        <ele>10.2</ele>
        <time>2021-08-04T13:08:09Z</time>
      </trkpt>
      <trkpt lat="47.64323" lon="-2.93836">
        <ele>10.2</ele>
        <time>2021-08-04T13:08:10Z</time>
      </trkpt>
      <trkpt lat="47.64326" lon="-2.93832">
        <ele>10.2</ele>
        <time>2021-08-04T13:08:11Z</time>
      </trkpt>
      <trkpt lat="47.64329" lon="-2.93828">
        <ele>10.2</ele>
        <time>2021-08-04T13:08:12Z</time>
      </trkpt>
      <trkpt lat="47.64332" lon="-2.93824">
        <ele>10.4</ele>
        <time>2021-08-04T13:08:13Z</time>
      </trkpt>
      <trkpt lat="47.64336" lon="-2.93821">
        <ele>10.2</ele>
        <time>2021-08-04T13:08:14Z</time>
      </trkpt>
      <trkpt lat="47.64339" lon="-2.93817">
        <ele>10.4</ele>
        <time>2021-08-04T13:08:15Z</time>
      </trkpt>
      <trkpt lat="47.64342" lon="-2.93814">
        <ele>10.6</ele>
        <time>2021-08-04T13:08:16Z</time>
      </trkpt>
      <trkpt lat="47.64346" lon="-2.9381">
        <ele>10.6</ele>
        <time>2021-08-04T13:08:17Z</time>
      </trkpt>
      <trkpt lat="47.6435" lon="-2.93807">
        <ele>10.6</ele>
        <time>2021-08-04T13:08:18Z</time>
      </trkpt>
      <trkpt lat="47.64354" lon="-2.93803">
        <ele>10.6</ele>
        <time>2021-08-04T13:08:19Z</time>
      </trkpt>
      <trkpt lat="47.64357" lon="-2.93799">
        <ele>10.6</ele>
        <time>2021-08-04T13:08:20Z</time>
      </trkpt>
      <trkpt lat="47.64361" lon="-2.93796">
        <ele>10.6</ele>
        <time>2021-08-04T13:08:21Z</time>
      </trkpt>
      <trkpt lat="47.64365" lon="-2.93792">
        <ele>11</ele>
        <time>2021-08-04T13:08:22Z</time>
      </trkpt>
      <trkpt lat="47.64369" lon="-2.93789">
        <ele>11</ele>
        <time>2021-08-04T13:08:23Z</time>
      </trkpt>
      <trkpt lat="47.64374" lon="-2.93785">
        <ele>11</ele>
        <time>2021-08-04T13:08:24Z</time>
      </trkpt>
      <trkpt lat="47.64378" lon="-2.93782">
        <ele>11</ele>
        <time>2021-08-04T13:08:25Z</time>
      </trkpt>
      <trkpt lat="47.64382" lon="-2.93779">
        <ele>11</ele>
        <time>2021-08-04T13:08:26Z</time>
      </trkpt>
      <trkpt lat="47.64386" lon="-2.93775">
        <ele>11.2</ele>
        <time>2021-08-04T13:08:27Z</time>
      </trkpt>
      <trkpt lat="47.6439" lon="-2.93771">
        <ele>11.2</ele>
        <time>2021-08-04T13:08:28Z</time>
      </trkpt>
      <trkpt lat="47.64395" lon="-2.93768">
        <ele>11.2</ele>
        <time>2021-08-04T13:08:29Z</time>
      </trkpt>
      <trkpt lat="47.64399" lon="-2.93764">
        <ele>11</ele>
        <time>2021-08-04T13:08:30Z</time>
      </trkpt>
      <trkpt lat="47.64404" lon="-2.9376">
        <ele>11</ele>
        <time>2021-08-04T13:08:31Z</time>
      </trkpt>
      <trkpt lat="47.64408" lon="-2.93757">
        <ele>10.8</ele>
        <time>2021-08-04T13:08:32Z</time>
      </trkpt>
      <trkpt lat="47.64413" lon="-2.93753">
        <ele>10.8</ele>
        <time>2021-08-04T13:08:33Z</time>
      </trkpt>
      <trkpt lat="47.64417" lon="-2.9375">
        <ele>10.8</ele>
        <time>2021-08-04T13:08:34Z</time>
      </trkpt>
      <trkpt lat="47.64422" lon="-2.93746">
        <ele>10.4</ele>
        <time>2021-08-04T13:08:35Z</time>
      </trkpt>
      <trkpt lat="47.64426" lon="-2.93742">
        <ele>10.4</ele>
        <time>2021-08-04T13:08:36Z</time>
      </trkpt>
      <trkpt lat="47.64431" lon="-2.93739">
        <ele>10.2</ele>
        <time>2021-08-04T13:08:37Z</time>
      </trkpt>
      <trkpt lat="47.64435" lon="-2.93735">
        <ele>10</ele>
        <time>2021-08-04T13:08:38Z</time>
      </trkpt>
      <trkpt lat="47.64439" lon="-2.93731">
        <ele>9.8</ele>
        <time>2021-08-04T13:08:39Z</time>
      </trkpt>
      <trkpt lat="47.64444" lon="-2.93728">
        <ele>9.6</ele>
        <time>2021-08-04T13:08:40Z</time>
      </trkpt>
      <trkpt lat="47.64448" lon="-2.93724">
        <ele>9.6</ele>
        <time>2021-08-04T13:08:41Z</time>
      </trkpt>
      <trkpt lat="47.64453" lon="-2.93721">
        <ele>9.6</ele>
        <time>2021-08-04T13:08:42Z</time>
      </trkpt>
      <trkpt lat="47.64457" lon="-2.93717">
        <ele>9.6</ele>
        <time>2021-08-04T13:08:43Z</time>
      </trkpt>
      <trkpt lat="47.64462" lon="-2.93713">
        <ele>9.4</ele>
        <time>2021-08-04T13:08:44Z</time>
      </trkpt>
      <trkpt lat="47.64466" lon="-2.9371">
        <ele>9.4</ele>
        <time>2021-08-04T13:08:45Z</time>
      </trkpt>
      <trkpt lat="47.64471" lon="-2.93706">
        <ele>9.4</ele>
        <time>2021-08-04T13:08:46Z</time>
      </trkpt>
      <trkpt lat="47.64475" lon="-2.93702">
        <ele>9</ele>
        <time>2021-08-04T13:08:47Z</time>
      </trkpt>
      <trkpt lat="47.6448" lon="-2.93698">
        <ele>9</ele>
        <time>2021-08-04T13:08:48Z</time>
      </trkpt>
      <trkpt lat="47.64485" lon="-2.93694">
        <ele>9</ele>
        <time>2021-08-04T13:08:49Z</time>
      </trkpt>
      <trkpt lat="47.6449" lon="-2.9369">
        <ele>9</ele>
        <time>2021-08-04T13:08:50Z</time>
      </trkpt>
      <trkpt lat="47.64495" lon="-2.93686">
        <ele>8.8</ele>
        <time>2021-08-04T13:08:51Z</time>
      </trkpt>
      <trkpt lat="47.645" lon="-2.93682">
        <ele>9</ele>
        <time>2021-08-04T13:08:52Z</time>
      </trkpt>
      <trkpt lat="47.64505" lon="-2.93678">
        <ele>8.8</ele>
        <time>2021-08-04T13:08:53Z</time>
      </trkpt>
      <trkpt lat="47.6451" lon="-2.93674">
        <ele>8.6</ele>
        <time>2021-08-04T13:08:54Z</time>
      </trkpt>
      <trkpt lat="47.64515" lon="-2.9367">
        <ele>8.8</ele>
        <time>2021-08-04T13:08:55Z</time>
      </trkpt>
      <trkpt lat="47.6452" lon="-2.93665">
        <ele>8.6</ele>
        <time>2021-08-04T13:08:56Z</time>
      </trkpt>
      <trkpt lat="47.64525" lon="-2.93661">
        <ele>8.6</ele>
        <time>2021-08-04T13:08:57Z</time>
      </trkpt>
      <trkpt lat="47.6453" lon="-2.93657">
        <ele>8.8</ele>
        <time>2021-08-04T13:08:58Z</time>
      </trkpt>
      <trkpt lat="47.64535" lon="-2.93652">
        <ele>8.6</ele>
        <time>2021-08-04T13:08:59Z</time>
      </trkpt>
      <trkpt lat="47.64541" lon="-2.93648">
        <ele>8.6</ele>
        <time>2021-08-04T13:09:00Z</time>
      </trkpt>
      <trkpt lat="47.64546" lon="-2.93643">
        <ele>8.6</ele>
        <time>2021-08-04T13:09:01Z</time>
      </trkpt>
      <trkpt lat="47.64551" lon="-2.93638">
        <ele>8.6</ele>
        <time>2021-08-04T13:09:02Z</time>
      </trkpt>
      <trkpt lat="47.64556" lon="-2.93634">
        <ele>8.4</ele>
        <time>2021-08-04T13:09:03Z</time>
      </trkpt>
      <trkpt lat="47.64561" lon="-2.93629">
        <ele>8.4</ele>
        <time>2021-08-04T13:09:04Z</time>
      </trkpt>
      <trkpt lat="47.64565" lon="-2.93624">
        <ele>8.4</ele>
        <time>2021-08-04T13:09:05Z</time>
      </trkpt>
      <trkpt lat="47.6457" lon="-2.9362">
        <ele>8.4</ele>
        <time>2021-08-04T13:09:06Z</time>
      </trkpt>
      <trkpt lat="47.64574" lon="-2.93615">
        <ele>8.4</ele>
        <time>2021-08-04T13:09:07Z</time>
      </trkpt>
      <trkpt lat="47.64578" lon="-2.9361">
        <ele>8.4</ele>
        <time>2021-08-04T13:09:08Z</time>
      </trkpt>
      <trkpt lat="47.64582" lon="-2.93605">
        <ele>8.4</ele>
        <time>2021-08-04T13:09:09Z</time>
      </trkpt>
      <trkpt lat="47.64587" lon="-2.936">
        <ele>8.6</ele>
        <time>2021-08-04T13:09:10Z</time>
      </trkpt>
      <trkpt lat="47.64591" lon="-2.93595">
        <ele>8.6</ele>
        <time>2021-08-04T13:09:11Z</time>
      </trkpt>
      <trkpt lat="47.64595" lon="-2.93591">
        <ele>8.4</ele>
        <time>2021-08-04T13:09:12Z</time>
      </trkpt>
      <trkpt lat="47.646" lon="-2.93586">
        <ele>8.4</ele>
        <time>2021-08-04T13:09:13Z</time>
      </trkpt>
      <trkpt lat="47.64604" lon="-2.93582">
        <ele>8.4</ele>
        <time>2021-08-04T13:09:14Z</time>
      </trkpt>
      <trkpt lat="47.64608" lon="-2.93577">
        <ele>8.4</ele>
        <time>2021-08-04T13:09:15Z</time>
      </trkpt>
      <trkpt lat="47.64613" lon="-2.93573">
        <ele>8.4</ele>
        <time>2021-08-04T13:09:16Z</time>
      </trkpt>
      <trkpt lat="47.64618" lon="-2.93569">
        <ele>8.4</ele>
        <time>2021-08-04T13:09:17Z</time>
      </trkpt>
      <trkpt lat="47.64622" lon="-2.93564">
        <ele>8.4</ele>
        <time>2021-08-04T13:09:18Z</time>
      </trkpt>
      <trkpt lat="47.64626" lon="-2.9356">
        <ele>8.4</ele>
        <time>2021-08-04T13:09:19Z</time>
      </trkpt>
      <trkpt lat="47.64629" lon="-2.93557">
        <ele>8.4</ele>
        <time>2021-08-04T13:09:20Z</time>
      </trkpt>
      <trkpt lat="47.64633" lon="-2.93553">
        <ele>8.4</ele>
        <time>2021-08-04T13:09:21Z</time>
      </trkpt>
      <trkpt lat="47.64637" lon="-2.9355">
        <ele>8.4</ele>
        <time>2021-08-04T13:09:22Z</time>
      </trkpt>
      <trkpt lat="47.6464" lon="-2.93546">
        <ele>8.4</ele>
        <time>2021-08-04T13:09:23Z</time>
      </trkpt>
      <trkpt lat="47.64643" lon="-2.93542">
        <ele>8.2</ele>
        <time>2021-08-04T13:09:24Z</time>
      </trkpt>
      <trkpt lat="47.64646" lon="-2.93538">
        <ele>8.2</ele>
        <time>2021-08-04T13:09:25Z</time>
      </trkpt>
      <trkpt lat="47.6465" lon="-2.93533">
        <ele>8.2</ele>
        <time>2021-08-04T13:09:26Z</time>
      </trkpt>
      <trkpt lat="47.64653" lon="-2.93528">
        <ele>8</ele>
        <time>2021-08-04T13:09:27Z</time>
      </trkpt>
      <trkpt lat="47.64656" lon="-2.93521">
        <ele>8</ele>
        <time>2021-08-04T13:09:28Z</time>
      </trkpt>
      <trkpt lat="47.64658" lon="-2.93514">
        <ele>8</ele>
        <time>2021-08-04T13:09:29Z</time>
      </trkpt>
      <trkpt lat="47.64659" lon="-2.93505">
        <ele>8</ele>
        <time>2021-08-04T13:09:30Z</time>
      </trkpt>
      <trkpt lat="47.6466" lon="-2.93497">
        <ele>8</ele>
        <time>2021-08-04T13:09:31Z</time>
      </trkpt>
      <trkpt lat="47.6466" lon="-2.93489">
        <ele>8</ele>
        <time>2021-08-04T13:09:32Z</time>
      </trkpt>
      <trkpt lat="47.64659" lon="-2.93481">
        <ele>8</ele>
        <time>2021-08-04T13:09:33Z</time>
      </trkpt>
      <trkpt lat="47.64659" lon="-2.93473">
        <ele>7.6</ele>
        <time>2021-08-04T13:09:34Z</time>
      </trkpt>
      <trkpt lat="47.64659" lon="-2.93465">
        <ele>7.2</ele>
        <time>2021-08-04T13:09:35Z</time>
      </trkpt>
      <trkpt lat="47.64658" lon="-2.93458">
        <ele>7</ele>
        <time>2021-08-04T13:09:36Z</time>
      </trkpt>
      <trkpt lat="47.64658" lon="-2.93451">
        <ele>6.8</ele>
        <time>2021-08-04T13:09:37Z</time>
      </trkpt>
      <trkpt lat="47.64658" lon="-2.93443">
        <ele>6.8</ele>
        <time>2021-08-04T13:09:38Z</time>
      </trkpt>
      <trkpt lat="47.64658" lon="-2.93437">
        <ele>6.8</ele>
        <time>2021-08-04T13:09:39Z</time>
      </trkpt>
      <trkpt lat="47.64658" lon="-2.9343">
        <ele>6.8</ele>
        <time>2021-08-04T13:09:40Z</time>
      </trkpt>
      <trkpt lat="47.64658" lon="-2.93423">
        <ele>6.8</ele>
        <time>2021-08-04T13:09:41Z</time>
      </trkpt>
      <trkpt lat="47.64658" lon="-2.93416">
        <ele>6.8</ele>
        <time>2021-08-04T13:09:42Z</time>
      </trkpt>
      <trkpt lat="47.64659" lon="-2.9341">
        <ele>6.8</ele>
        <time>2021-08-04T13:09:43Z</time>
      </trkpt>
      <trkpt lat="47.6466" lon="-2.93403">
        <ele>6.8</ele>
        <time>2021-08-04T13:09:44Z</time>
      </trkpt>
      <trkpt lat="47.64662" lon="-2.93396">
        <ele>6.8</ele>
        <time>2021-08-04T13:09:45Z</time>
      </trkpt>
      <trkpt lat="47.64665" lon="-2.9339">
        <ele>6.8</ele>
        <time>2021-08-04T13:09:46Z</time>
      </trkpt>
      <trkpt lat="47.64667" lon="-2.93384">
        <ele>6.8</ele>
        <time>2021-08-04T13:09:47Z</time>
      </trkpt>
      <trkpt lat="47.64671" lon="-2.93379">
        <ele>7</ele>
        <time>2021-08-04T13:09:48Z</time>
      </trkpt>
      <trkpt lat="47.64674" lon="-2.93373">
        <ele>7</ele>
        <time>2021-08-04T13:09:49Z</time>
      </trkpt>
      <trkpt lat="47.64678" lon="-2.93369">
        <ele>7</ele>
        <time>2021-08-04T13:09:50Z</time>
      </trkpt>
      <trkpt lat="47.64682" lon="-2.93364">
        <ele>7</ele>
        <time>2021-08-04T13:09:51Z</time>
      </trkpt>
      <trkpt lat="47.64687" lon="-2.9336">
        <ele>7</ele>
        <time>2021-08-04T13:09:52Z</time>
      </trkpt>
      <trkpt lat="47.64692" lon="-2.93355">
        <ele>7</ele>
        <time>2021-08-04T13:09:53Z</time>
      </trkpt>
      <trkpt lat="47.64697" lon="-2.9335">
        <ele>7</ele>
        <time>2021-08-04T13:09:54Z</time>
      </trkpt>
      <trkpt lat="47.64703" lon="-2.93345">
        <ele>7</ele>
        <time>2021-08-04T13:09:55Z</time>
      </trkpt>
      <trkpt lat="47.64709" lon="-2.9334">
        <ele>7</ele>
        <time>2021-08-04T13:09:56Z</time>
      </trkpt>
      <trkpt lat="47.64716" lon="-2.93335">
        <ele>6.6</ele>
        <time>2021-08-04T13:09:57Z</time>
      </trkpt>
      <trkpt lat="47.64722" lon="-2.93329">
        <ele>6.2</ele>
        <time>2021-08-04T13:09:58Z</time>
      </trkpt>
      <trkpt lat="47.64728" lon="-2.93323">
        <ele>5.8</ele>
        <time>2021-08-04T13:09:59Z</time>
      </trkpt>
      <trkpt lat="47.64735" lon="-2.93317">
        <ele>5.2</ele>
        <time>2021-08-04T13:10:00Z</time>
      </trkpt>
      <trkpt lat="47.64742" lon="-2.93311">
        <ele>4.6</ele>
        <time>2021-08-04T13:10:01Z</time>
      </trkpt>
      <trkpt lat="47.6475" lon="-2.93305">
        <ele>3.6</ele>
        <time>2021-08-04T13:10:02Z</time>
      </trkpt>
      <trkpt lat="47.64758" lon="-2.93298">
        <ele>3.2</ele>
        <time>2021-08-04T13:10:03Z</time>
      </trkpt>
      <trkpt lat="47.64765" lon="-2.93291">
        <ele>2.8</ele>
        <time>2021-08-04T13:10:04Z</time>
      </trkpt>
      <trkpt lat="47.64773" lon="-2.93284">
        <ele>2.6</ele>
        <time>2021-08-04T13:10:05Z</time>
      </trkpt>
      <trkpt lat="47.64782" lon="-2.93278">
        <ele>2</ele>
        <time>2021-08-04T13:10:06Z</time>
      </trkpt>
      <trkpt lat="47.64791" lon="-2.93271">
        <ele>1.4</ele>
        <time>2021-08-04T13:10:07Z</time>
      </trkpt>
      <trkpt lat="47.648" lon="-2.93265">
        <ele>1</ele>
        <time>2021-08-04T13:10:08Z</time>
      </trkpt>
      <trkpt lat="47.64808" lon="-2.93258">
        <ele>0.2</ele>
        <time>2021-08-04T13:10:09Z</time>
      </trkpt>
      <trkpt lat="47.64816" lon="-2.93252">
        <ele>-0.8</ele>
        <time>2021-08-04T13:10:10Z</time>
      </trkpt>
      <trkpt lat="47.64826" lon="-2.93244">
        <ele>-2</ele>
        <time>2021-08-04T13:10:11Z</time>
      </trkpt>
      <trkpt lat="47.64835" lon="-2.93237">
        <ele>-2.8</ele>
        <time>2021-08-04T13:10:12Z</time>
      </trkpt>
      <trkpt lat="47.64844" lon="-2.9323">
        <ele>-3.4</ele>
        <time>2021-08-04T13:10:13Z</time>
      </trkpt>
      <trkpt lat="47.64853" lon="-2.93222">
        <ele>-4.4</ele>
        <time>2021-08-04T13:10:14Z</time>
      </trkpt>
      <trkpt lat="47.64861" lon="-2.93215">
        <ele>-5.8</ele>
        <time>2021-08-04T13:10:15Z</time>
      </trkpt>
      <trkpt lat="47.6487" lon="-2.93207">
        <ele>-7</ele>
        <time>2021-08-04T13:10:16Z</time>
      </trkpt>
      <trkpt lat="47.6488" lon="-2.932">
        <ele>-8</ele>
        <time>2021-08-04T13:10:17Z</time>
      </trkpt>
      <trkpt lat="47.64889" lon="-2.93192">
        <ele>-8.6</ele>
        <time>2021-08-04T13:10:18Z</time>
      </trkpt>
      <trkpt lat="47.64898" lon="-2.93186">
        <ele>-9</ele>
        <time>2021-08-04T13:10:19Z</time>
      </trkpt>
      <trkpt lat="47.64907" lon="-2.93179">
        <ele>-9.2</ele>
        <time>2021-08-04T13:10:20Z</time>
      </trkpt>
      <trkpt lat="47.64915" lon="-2.93173">
        <ele>-9.2</ele>
        <time>2021-08-04T13:10:21Z</time>
      </trkpt>
      <trkpt lat="47.64923" lon="-2.93167">
        <ele>-9.4</ele>
        <time>2021-08-04T13:10:22Z</time>
      </trkpt>
      <trkpt lat="47.64932" lon="-2.9316">
        <ele>-9.4</ele>
        <time>2021-08-04T13:10:23Z</time>
      </trkpt>
      <trkpt lat="47.64941" lon="-2.93153">
        <ele>-9.4</ele>
        <time>2021-08-04T13:10:24Z</time>
      </trkpt>
      <trkpt lat="47.6495" lon="-2.93146">
        <ele>-9.4</ele>
        <time>2021-08-04T13:10:25Z</time>
      </trkpt>
      <trkpt lat="47.64958" lon="-2.9314">
        <ele>-9.6</ele>
        <time>2021-08-04T13:10:26Z</time>
      </trkpt>
      <trkpt lat="47.64966" lon="-2.93133">
        <ele>-9.8</ele>
        <time>2021-08-04T13:10:27Z</time>
      </trkpt>
      <trkpt lat="47.64972" lon="-2.93125">
        <ele>-9.8</ele>
        <time>2021-08-04T13:10:28Z</time>
      </trkpt>
      <trkpt lat="47.64977" lon="-2.93116">
        <ele>-9.8</ele>
        <time>2021-08-04T13:10:29Z</time>
      </trkpt>
      <trkpt lat="47.6498" lon="-2.93107">
        <ele>-9.8</ele>
        <time>2021-08-04T13:10:30Z</time>
      </trkpt>
      <trkpt lat="47.64981" lon="-2.93098">
        <ele>-9.8</ele>
        <time>2021-08-04T13:10:31Z</time>
      </trkpt>
      <trkpt lat="47.64979" lon="-2.93091">
        <ele>-9.8</ele>
        <time>2021-08-04T13:10:32Z</time>
      </trkpt>
      <trkpt lat="47.64977" lon="-2.93084">
        <ele>-9.8</ele>
        <time>2021-08-04T13:10:33Z</time>
      </trkpt>
      <trkpt lat="47.64975" lon="-2.93077">
        <ele>-9.8</ele>
        <time>2021-08-04T13:10:34Z</time>
      </trkpt>
      <trkpt lat="47.64973" lon="-2.93071">
        <ele>-9.8</ele>
        <time>2021-08-04T13:10:35Z</time>
      </trkpt>
      <trkpt lat="47.6497" lon="-2.93065">
        <ele>-9.6</ele>
        <time>2021-08-04T13:10:36Z</time>
      </trkpt>
      <trkpt lat="47.64967" lon="-2.93059">
        <ele>-9.6</ele>
        <time>2021-08-04T13:10:37Z</time>
      </trkpt>
      <trkpt lat="47.64965" lon="-2.93054">
        <ele>-9.4</ele>
        <time>2021-08-04T13:10:38Z</time>
      </trkpt>
      <trkpt lat="47.64962" lon="-2.93048">
        <ele>-9.2</ele>
        <time>2021-08-04T13:10:39Z</time>
      </trkpt>
      <trkpt lat="47.64959" lon="-2.93042">
        <ele>-8.8</ele>
        <time>2021-08-04T13:10:40Z</time>
      </trkpt>
      <trkpt lat="47.64957" lon="-2.93036">
        <ele>-8.6</ele>
        <time>2021-08-04T13:10:41Z</time>
      </trkpt>
      <trkpt lat="47.64954" lon="-2.93031">
        <ele>-8.4</ele>
        <time>2021-08-04T13:10:42Z</time>
      </trkpt>
      <trkpt lat="47.64952" lon="-2.93025">
        <ele>-8.2</ele>
        <time>2021-08-04T13:10:43Z</time>
      </trkpt>
      <trkpt lat="47.6495" lon="-2.9302">
        <ele>-8</ele>
        <time>2021-08-04T13:10:44Z</time>
      </trkpt>
      <trkpt lat="47.64948" lon="-2.93015">
        <ele>-7.8</ele>
        <time>2021-08-04T13:10:45Z</time>
      </trkpt>
      <trkpt lat="47.64946" lon="-2.93009">
        <ele>-7.6</ele>
        <time>2021-08-04T13:10:46Z</time>
      </trkpt>
      <trkpt lat="47.64945" lon="-2.93004">
        <ele>-7.6</ele>
        <time>2021-08-04T13:10:47Z</time>
      </trkpt>
      <trkpt lat="47.64944" lon="-2.92999">
        <ele>-7.4</ele>
        <time>2021-08-04T13:10:48Z</time>
      </trkpt>
      <trkpt lat="47.64944" lon="-2.92995">
        <ele>-7.4</ele>
        <time>2021-08-04T13:10:49Z</time>
      </trkpt>
      <trkpt lat="47.64942" lon="-2.9299">
        <ele>-7.4</ele>
        <time>2021-08-04T13:10:50Z</time>
      </trkpt>
      <trkpt lat="47.64942" lon="-2.92986">
        <ele>-7.2</ele>
        <time>2021-08-04T13:10:51Z</time>
      </trkpt>
      <trkpt lat="47.64942" lon="-2.92983">
        <ele>-7.2</ele>
        <time>2021-08-04T13:10:52Z</time>
      </trkpt>
      <trkpt lat="47.64944" lon="-2.92981">
        <ele>-7.2</ele>
        <time>2021-08-04T13:10:53Z</time>
      </trkpt>
      <trkpt lat="47.64945" lon="-2.92982">
        <ele>-7.2</ele>
        <time>2021-08-04T13:10:54Z</time>
      </trkpt>
      <trkpt lat="47.64945" lon="-2.92985">
        <ele>-7.2</ele>
        <time>2021-08-04T13:10:55Z</time>
      </trkpt>
      <trkpt lat="47.64946" lon="-2.92988">
        <ele>-7.2</ele>
        <time>2021-08-04T13:10:56Z</time>
      </trkpt>
      <trkpt lat="47.64946" lon="-2.9299">
        <ele>-7.2</ele>
        <time>2021-08-04T13:10:57Z</time>
      </trkpt>
      <trkpt lat="47.64947" lon="-2.92992">
        <ele>-7</ele>
        <time>2021-08-04T13:10:58Z</time>
      </trkpt>
      <trkpt lat="47.64948" lon="-2.92993">
        <ele>-7</ele>
        <time>2021-08-04T13:10:59Z</time>
      </trkpt>
      <trkpt lat="47.64948" lon="-2.92996">
        <ele>-6.6</ele>
        <time>2021-08-04T13:11:31Z</time>
      </trkpt>
      <trkpt lat="47.64948" lon="-2.92998">
        <ele>-6.6</ele>
        <time>2021-08-04T13:11:32Z</time>
      </trkpt>
      <trkpt lat="47.64948" lon="-2.93001">
        <ele>-6.6</ele>
        <time>2021-08-04T13:11:33Z</time>
      </trkpt>
      <trkpt lat="47.64949" lon="-2.93003">
        <ele>-6.6</ele>
        <time>2021-08-04T13:11:34Z</time>
      </trkpt>
      <trkpt lat="47.6495" lon="-2.93006">
        <ele>-6.6</ele>
        <time>2021-08-04T13:11:35Z</time>
      </trkpt>
      <trkpt lat="47.6495" lon="-2.93009">
        <ele>-6.6</ele>
        <time>2021-08-04T13:11:36Z</time>
      </trkpt>
      <trkpt lat="47.64952" lon="-2.93013">
        <ele>-6.6</ele>
        <time>2021-08-04T13:11:37Z</time>
      </trkpt>
      <trkpt lat="47.64953" lon="-2.93016">
        <ele>-6.6</ele>
        <time>2021-08-04T13:11:38Z</time>
      </trkpt>
      <trkpt lat="47.64954" lon="-2.93019">
        <ele>-6.6</ele>
        <time>2021-08-04T13:11:39Z</time>
      </trkpt>
      <trkpt lat="47.64956" lon="-2.93023">
        <ele>-6.6</ele>
        <time>2021-08-04T13:11:40Z</time>
      </trkpt>
      <trkpt lat="47.64958" lon="-2.93027">
        <ele>-6.6</ele>
        <time>2021-08-04T13:11:41Z</time>
      </trkpt>
      <trkpt lat="47.6496" lon="-2.93031">
        <ele>-6.6</ele>
        <time>2021-08-04T13:11:42Z</time>
      </trkpt>
      <trkpt lat="47.64962" lon="-2.93035">
        <ele>-6.6</ele>
        <time>2021-08-04T13:11:43Z</time>
      </trkpt>
      <trkpt lat="47.64964" lon="-2.93039">
        <ele>-6.8</ele>
        <time>2021-08-04T13:11:44Z</time>
      </trkpt>
      <trkpt lat="47.64966" lon="-2.93043">
        <ele>-7</ele>
        <time>2021-08-04T13:11:45Z</time>
      </trkpt>
      <trkpt lat="47.64968" lon="-2.93048">
        <ele>-7</ele>
        <time>2021-08-04T13:11:46Z</time>
      </trkpt>
      <trkpt lat="47.6497" lon="-2.93052">
        <ele>-7</ele>
        <time>2021-08-04T13:11:47Z</time>
      </trkpt>
      <trkpt lat="47.64973" lon="-2.93056">
        <ele>-7.2</ele>
        <time>2021-08-04T13:11:48Z</time>
      </trkpt>
      <trkpt lat="47.64975" lon="-2.93061">
        <ele>-7.4</ele>
        <time>2021-08-04T13:11:49Z</time>
      </trkpt>
      <trkpt lat="47.64977" lon="-2.93066">
        <ele>-7.6</ele>
        <time>2021-08-04T13:11:50Z</time>
      </trkpt>
      <trkpt lat="47.64979" lon="-2.93071">
        <ele>-7.6</ele>
        <time>2021-08-04T13:11:51Z</time>
      </trkpt>
      <trkpt lat="47.64981" lon="-2.93076">
        <ele>-7.6</ele>
        <time>2021-08-04T13:11:52Z</time>
      </trkpt>
      <trkpt lat="47.64984" lon="-2.9308">
        <ele>-7.6</ele>
        <time>2021-08-04T13:11:53Z</time>
      </trkpt>
      <trkpt lat="47.64986" lon="-2.93085">
        <ele>-7.6</ele>
        <time>2021-08-04T13:11:54Z</time>
      </trkpt>
      <trkpt lat="47.64989" lon="-2.9309">
        <ele>-7.6</ele>
        <time>2021-08-04T13:11:55Z</time>
      </trkpt>
      <trkpt lat="47.6499" lon="-2.93095">
        <ele>-7.6</ele>
        <time>2021-08-04T13:11:56Z</time>
      </trkpt>
      <trkpt lat="47.64991" lon="-2.93101">
        <ele>-7.6</ele>
        <time>2021-08-04T13:11:57Z</time>
      </trkpt>
      <trkpt lat="47.64991" lon="-2.93107">
        <ele>-7.6</ele>
        <time>2021-08-04T13:11:58Z</time>
      </trkpt>
      <trkpt lat="47.64991" lon="-2.93113">
        <ele>-7.6</ele>
        <time>2021-08-04T13:11:59Z</time>
      </trkpt>
      <trkpt lat="47.64989" lon="-2.93119">
        <ele>-7.6</ele>
        <time>2021-08-04T13:12:00Z</time>
      </trkpt>
      <trkpt lat="47.64987" lon="-2.93124">
        <ele>-7.8</ele>
        <time>2021-08-04T13:12:01Z</time>
      </trkpt>
      <trkpt lat="47.64984" lon="-2.93129">
        <ele>-7.8</ele>
        <time>2021-08-04T13:12:02Z</time>
      </trkpt>
      <trkpt lat="47.64981" lon="-2.93132">
        <ele>-7.8</ele>
        <time>2021-08-04T13:12:03Z</time>
      </trkpt>
      <trkpt lat="47.64977" lon="-2.93136">
        <ele>-8</ele>
        <time>2021-08-04T13:12:04Z</time>
      </trkpt>
      <trkpt lat="47.64974" lon="-2.93139">
        <ele>-8</ele>
        <time>2021-08-04T13:12:05Z</time>
      </trkpt>
      <trkpt lat="47.6497" lon="-2.93142">
        <ele>-8</ele>
        <time>2021-08-04T13:12:06Z</time>
      </trkpt>
      <trkpt lat="47.64966" lon="-2.93146">
        <ele>-8</ele>
        <time>2021-08-04T13:12:07Z</time>
      </trkpt>
      <trkpt lat="47.64963" lon="-2.93149">
        <ele>-8</ele>
        <time>2021-08-04T13:12:08Z</time>
      </trkpt>
      <trkpt lat="47.64959" lon="-2.93152">
        <ele>-8</ele>
        <time>2021-08-04T13:12:09Z</time>
      </trkpt>
      <trkpt lat="47.64955" lon="-2.93155">
        <ele>-8</ele>
        <time>2021-08-04T13:12:10Z</time>
      </trkpt>
      <trkpt lat="47.64952" lon="-2.93158">
        <ele>-8</ele>
        <time>2021-08-04T13:12:11Z</time>
      </trkpt>
      <trkpt lat="47.64948" lon="-2.9316">
        <ele>-8</ele>
        <time>2021-08-04T13:12:12Z</time>
      </trkpt>
      <trkpt lat="47.64945" lon="-2.93163">
        <ele>-8</ele>
        <time>2021-08-04T13:12:13Z</time>
      </trkpt>
      <trkpt lat="47.64941" lon="-2.93165">
        <ele>-8</ele>
        <time>2021-08-04T13:12:14Z</time>
      </trkpt>
      <trkpt lat="47.64938" lon="-2.93168">
        <ele>-8</ele>
        <time>2021-08-04T13:12:15Z</time>
      </trkpt>
      <trkpt lat="47.64935" lon="-2.93171">
        <ele>-8</ele>
        <time>2021-08-04T13:12:16Z</time>
      </trkpt>
      <trkpt lat="47.64932" lon="-2.93174">
        <ele>-7.8</ele>
        <time>2021-08-04T13:12:17Z</time>
      </trkpt>
      <trkpt lat="47.6493" lon="-2.93177">
        <ele>-7.8</ele>
        <time>2021-08-04T13:12:18Z</time>
      </trkpt>
      <trkpt lat="47.64928" lon="-2.9318">
        <ele>-7.6</ele>
        <time>2021-08-04T13:12:19Z</time>
      </trkpt>
      <trkpt lat="47.64926" lon="-2.93182">
        <ele>-7.6</ele>
        <time>2021-08-04T13:12:20Z</time>
      </trkpt>
      <trkpt lat="47.64924" lon="-2.93183">
        <ele>-7.6</ele>
        <time>2021-08-04T13:12:21Z</time>
      </trkpt>
      <trkpt lat="47.64922" lon="-2.93184">
        <ele>-7.6</ele>
        <time>2021-08-04T13:12:22Z</time>
      </trkpt>
      <trkpt lat="47.64921" lon="-2.93185">
        <ele>-7.4</ele>
        <time>2021-08-04T13:12:23Z</time>
      </trkpt>
      <trkpt lat="47.64919" lon="-2.93186">
        <ele>-7.4</ele>
        <time>2021-08-04T13:12:24Z</time>
      </trkpt>
      <trkpt lat="47.64918" lon="-2.93187">
        <ele>-7.4</ele>
        <time>2021-08-04T13:12:25Z</time>
      </trkpt>
      <trkpt lat="47.64917" lon="-2.93187">
        <ele>-7.2</ele>
        <time>2021-08-04T13:12:26Z</time>
      </trkpt>
      <trkpt lat="47.64917" lon="-2.93188">
        <ele>-7.2</ele>
        <time>2021-08-04T13:12:27Z</time>
      </trkpt>
      <trkpt lat="47.64916" lon="-2.93188">
        <ele>-7.2</ele>
        <time>2021-08-04T13:12:28Z</time>
      </trkpt>
      <trkpt lat="47.64915" lon="-2.93188">
        <ele>-7</ele>
        <time>2021-08-04T13:12:29Z</time>
      </trkpt>
      <trkpt lat="47.64914" lon="-2.93188">
        <ele>-7</ele>
        <time>2021-08-04T13:12:53Z</time>
      </trkpt>
      <trkpt lat="47.64914" lon="-2.93188">
        <ele>-7</ele>
        <time>2021-08-04T13:12:54Z</time>
      </trkpt>
      <trkpt lat="47.64913" lon="-2.93189">
        <ele>-7</ele>
        <time>2021-08-04T13:12:55Z</time>
      </trkpt>
      <trkpt lat="47.64913" lon="-2.93189">
        <ele>-7</ele>
        <time>2021-08-04T13:12:56Z</time>
      </trkpt>
      <trkpt lat="47.64913" lon="-2.93188">
        <ele>-6.8</ele>
        <time>2021-08-04T13:13:04Z</time>
      </trkpt>
      <trkpt lat="47.64913" lon="-2.93187">
        <ele>-6.8</ele>
        <time>2021-08-04T13:13:05Z</time>
      </trkpt>
      <trkpt lat="47.64914" lon="-2.93186">
        <ele>-6.8</ele>
        <time>2021-08-04T13:13:06Z</time>
      </trkpt>
      <trkpt lat="47.64914" lon="-2.93184">
        <ele>-6.8</ele>
        <time>2021-08-04T13:13:07Z</time>
      </trkpt>
      <trkpt lat="47.64915" lon="-2.93183">
        <ele>-6.8</ele>
        <time>2021-08-04T13:13:08Z</time>
      </trkpt>
      <trkpt lat="47.64916" lon="-2.93182">
        <ele>-6.8</ele>
        <time>2021-08-04T13:13:09Z</time>
      </trkpt>
      <trkpt lat="47.64917" lon="-2.9318">
        <ele>-7</ele>
        <time>2021-08-04T13:13:10Z</time>
      </trkpt>
      <trkpt lat="47.64918" lon="-2.93179">
        <ele>-7</ele>
        <time>2021-08-04T13:13:11Z</time>
      </trkpt>
      <trkpt lat="47.6492" lon="-2.93177">
        <ele>-7</ele>
        <time>2021-08-04T13:13:12Z</time>
      </trkpt>
      <trkpt lat="47.64922" lon="-2.93175">
        <ele>-6.8</ele>
        <time>2021-08-04T13:13:13Z</time>
      </trkpt>
      <trkpt lat="47.64923" lon="-2.93174">
        <ele>-6.8</ele>
        <time>2021-08-04T13:13:14Z</time>
      </trkpt>
      <trkpt lat="47.64925" lon="-2.93173">
        <ele>-6.8</ele>
        <time>2021-08-04T13:13:15Z</time>
      </trkpt>
      <trkpt lat="47.64926" lon="-2.93172">
        <ele>-6.8</ele>
        <time>2021-08-04T13:13:16Z</time>
      </trkpt>
      <trkpt lat="47.64928" lon="-2.93171">
        <ele>-6.8</ele>
        <time>2021-08-04T13:13:17Z</time>
      </trkpt>
      <trkpt lat="47.6493" lon="-2.93169">
        <ele>-7</ele>
        <time>2021-08-04T13:13:18Z</time>
      </trkpt>
      <trkpt lat="47.64931" lon="-2.93167">
        <ele>-7</ele>
        <time>2021-08-04T13:13:19Z</time>
      </trkpt>
      <trkpt lat="47.64934" lon="-2.93164">
        <ele>-7</ele>
        <time>2021-08-04T13:13:20Z</time>
      </trkpt>
      <trkpt lat="47.64936" lon="-2.93162">
        <ele>-7</ele>
        <time>2021-08-04T13:13:21Z</time>
      </trkpt>
      <trkpt lat="47.64939" lon="-2.93161">
        <ele>-7</ele>
        <time>2021-08-04T13:13:22Z</time>
      </trkpt>
      <trkpt lat="47.64942" lon="-2.93159">
        <ele>-7</ele>
        <time>2021-08-04T13:13:23Z</time>
      </trkpt>
      <trkpt lat="47.64944" lon="-2.93157">
        <ele>-7.2</ele>
        <time>2021-08-04T13:13:24Z</time>
      </trkpt>
      <trkpt lat="47.64947" lon="-2.93155">
        <ele>-7.2</ele>
        <time>2021-08-04T13:13:25Z</time>
      </trkpt>
      <trkpt lat="47.64951" lon="-2.93152">
        <ele>-7.2</ele>
        <time>2021-08-04T13:13:26Z</time>
      </trkpt>
      <trkpt lat="47.64955" lon="-2.93149">
        <ele>-7.2</ele>
        <time>2021-08-04T13:13:27Z</time>
      </trkpt>
      <trkpt lat="47.64959" lon="-2.93146">
        <ele>-7.2</ele>
        <time>2021-08-04T13:13:28Z</time>
      </trkpt>
      <trkpt lat="47.64963" lon="-2.93142">
        <ele>-7.2</ele>
        <time>2021-08-04T13:13:29Z</time>
      </trkpt>
      <trkpt lat="47.64967" lon="-2.93139">
        <ele>-7.2</ele>
        <time>2021-08-04T13:13:30Z</time>
      </trkpt>
      <trkpt lat="47.6497" lon="-2.93136">
        <ele>-7.4</ele>
        <time>2021-08-04T13:13:31Z</time>
      </trkpt>
      <trkpt lat="47.64974" lon="-2.93132">
        <ele>-7.4</ele>
        <time>2021-08-04T13:13:32Z</time>
      </trkpt>
      <trkpt lat="47.64977" lon="-2.93128">
        <ele>-7.6</ele>
        <time>2021-08-04T13:13:33Z</time>
      </trkpt>
      <trkpt lat="47.6498" lon="-2.93123">
        <ele>-7.6</ele>
        <time>2021-08-04T13:13:34Z</time>
      </trkpt>
      <trkpt lat="47.64983" lon="-2.93118">
        <ele>-7.6</ele>
        <time>2021-08-04T13:13:35Z</time>
      </trkpt>
      <trkpt lat="47.64984" lon="-2.93113">
        <ele>-7.6</ele>
        <time>2021-08-04T13:13:36Z</time>
      </trkpt>
      <trkpt lat="47.64986" lon="-2.93109">
        <ele>-7.8</ele>
        <time>2021-08-04T13:13:37Z</time>
      </trkpt>
      <trkpt lat="47.64986" lon="-2.93106">
        <ele>-7.8</ele>
        <time>2021-08-04T13:13:38Z</time>
      </trkpt>
      <trkpt lat="47.64985" lon="-2.93104">
        <ele>-7.8</ele>
        <time>2021-08-04T13:13:39Z</time>
      </trkpt>
      <trkpt lat="47.64985" lon="-2.93104">
        <ele>-7.8</ele>
        <time>2021-08-04T13:13:40Z</time>
      </trkpt>
      <trkpt lat="47.64984" lon="-2.93104">
        <ele>-7.8</ele>
        <time>2021-08-04T13:13:41Z</time>
      </trkpt>
      <trkpt lat="47.64986" lon="-2.93104">
        <ele>-7.6</ele>
        <time>2021-08-04T13:13:49Z</time>
      </trkpt>
      <trkpt lat="47.64986" lon="-2.93104">
        <ele>-7.6</ele>
        <time>2021-08-04T13:13:50Z</time>
      </trkpt>
      <trkpt lat="47.64986" lon="-2.93104">
        <ele>-7.4</ele>
        <time>2021-08-04T13:13:51Z</time>
      </trkpt>
      <trkpt lat="47.64986" lon="-2.93106">
        <ele>-7.4</ele>
        <time>2021-08-04T13:13:57Z</time>
      </trkpt>
      <trkpt lat="47.64986" lon="-2.93107">
        <ele>-7.4</ele>
        <time>2021-08-04T13:13:58Z</time>
      </trkpt>
      <trkpt lat="47.64985" lon="-2.93108">
        <ele>-7.4</ele>
        <time>2021-08-04T13:13:59Z</time>
      </trkpt>
      <trkpt lat="47.64985" lon="-2.93111">
        <ele>-7.4</ele>
        <time>2021-08-04T13:14:00Z</time>
      </trkpt>
      <trkpt lat="47.64984" lon="-2.93113">
        <ele>-7.4</ele>
        <time>2021-08-04T13:14:01Z</time>
      </trkpt>
      <trkpt lat="47.64983" lon="-2.93115">
        <ele>-7.4</ele>
        <time>2021-08-04T13:14:02Z</time>
      </trkpt>
      <trkpt lat="47.64982" lon="-2.93118">
        <ele>-7.4</ele>
        <time>2021-08-04T13:14:03Z</time>
      </trkpt>
      <trkpt lat="47.6498" lon="-2.93121">
        <ele>-7.4</ele>
        <time>2021-08-04T13:14:04Z</time>
      </trkpt>
      <trkpt lat="47.64978" lon="-2.93124">
        <ele>-7.4</ele>
        <time>2021-08-04T13:14:05Z</time>
      </trkpt>
      <trkpt lat="47.64976" lon="-2.93126">
        <ele>-7.6</ele>
        <time>2021-08-04T13:14:06Z</time>
      </trkpt>
      <trkpt lat="47.64973" lon="-2.93129">
        <ele>-7.8</ele>
        <time>2021-08-04T13:14:07Z</time>
      </trkpt>
      <trkpt lat="47.64971" lon="-2.93131">
        <ele>-7.8</ele>
        <time>2021-08-04T13:14:08Z</time>
      </trkpt>
      <trkpt lat="47.64968" lon="-2.93133">
        <ele>-7.8</ele>
        <time>2021-08-04T13:14:09Z</time>
      </trkpt>
      <trkpt lat="47.64965" lon="-2.93136">
        <ele>-7.8</ele>
        <time>2021-08-04T13:14:10Z</time>
      </trkpt>
      <trkpt lat="47.64962" lon="-2.93138">
        <ele>-7.8</ele>
        <time>2021-08-04T13:14:11Z</time>
      </trkpt>
      <trkpt lat="47.64959" lon="-2.93141">
        <ele>-7.8</ele>
        <time>2021-08-04T13:14:12Z</time>
      </trkpt>
      <trkpt lat="47.64956" lon="-2.93143">
        <ele>-8</ele>
        <time>2021-08-04T13:14:13Z</time>
      </trkpt>
      <trkpt lat="47.64953" lon="-2.93146">
        <ele>-8</ele>
        <time>2021-08-04T13:14:14Z</time>
      </trkpt>
      <trkpt lat="47.6495" lon="-2.93148">
        <ele>-8</ele>
        <time>2021-08-04T13:14:15Z</time>
      </trkpt>
      <trkpt lat="47.64947" lon="-2.93151">
        <ele>-8</ele>
        <time>2021-08-04T13:14:16Z</time>
      </trkpt>
      <trkpt lat="47.64944" lon="-2.93153">
        <ele>-8</ele>
        <time>2021-08-04T13:14:17Z</time>
      </trkpt>
      <trkpt lat="47.64941" lon="-2.93156">
        <ele>-8</ele>
        <time>2021-08-04T13:14:18Z</time>
      </trkpt>
      <trkpt lat="47.64938" lon="-2.93158">
        <ele>-8</ele>
        <time>2021-08-04T13:14:19Z</time>
      </trkpt>
      <trkpt lat="47.64935" lon="-2.9316">
        <ele>-8</ele>
        <time>2021-08-04T13:14:20Z</time>
      </trkpt>
      <trkpt lat="47.64932" lon="-2.93162">
        <ele>-8</ele>
        <time>2021-08-04T13:14:21Z</time>
      </trkpt>
      <trkpt lat="47.6493" lon="-2.93163">
        <ele>-8</ele>
        <time>2021-08-04T13:14:22Z</time>
      </trkpt>
      <trkpt lat="47.64927" lon="-2.93164">
        <ele>-8</ele>
        <time>2021-08-04T13:14:23Z</time>
      </trkpt>
      <trkpt lat="47.64925" lon="-2.93165">
        <ele>-8</ele>
        <time>2021-08-04T13:14:24Z</time>
      </trkpt>
      <trkpt lat="47.64922" lon="-2.93167">
        <ele>-8</ele>
        <time>2021-08-04T13:14:25Z</time>
      </trkpt>
      <trkpt lat="47.6492" lon="-2.93169">
        <ele>-8</ele>
        <time>2021-08-04T13:14:26Z</time>
      </trkpt>
      <trkpt lat="47.64918" lon="-2.9317">
        <ele>-8</ele>
        <time>2021-08-04T13:14:27Z</time>
      </trkpt>
      <trkpt lat="47.64916" lon="-2.93172">
        <ele>-8</ele>
        <time>2021-08-04T13:14:28Z</time>
      </trkpt>
      <trkpt lat="47.64914" lon="-2.93173">
        <ele>-7.8</ele>
        <time>2021-08-04T13:14:29Z</time>
      </trkpt>
      <trkpt lat="47.64913" lon="-2.93174">
        <ele>-7.8</ele>
        <time>2021-08-04T13:14:30Z</time>
      </trkpt>
      <trkpt lat="47.6492" lon="-2.93173">
        <ele>-7.8</ele>
        <time>2021-08-04T13:16:27Z</time>
      </trkpt>
      <trkpt lat="47.64922" lon="-2.93172">
        <ele>-7.8</ele>
        <time>2021-08-04T13:16:28Z</time>
      </trkpt>
      <trkpt lat="47.64924" lon="-2.93171">
        <ele>-7.6</ele>
        <time>2021-08-04T13:16:29Z</time>
      </trkpt>
      <trkpt lat="47.64926" lon="-2.93171">
        <ele>-7.6</ele>
        <time>2021-08-04T13:16:30Z</time>
      </trkpt>
      <trkpt lat="47.64928" lon="-2.9317">
        <ele>-7.6</ele>
        <time>2021-08-04T13:16:31Z</time>
      </trkpt>
      <trkpt lat="47.6493" lon="-2.93168">
        <ele>-7.6</ele>
        <time>2021-08-04T13:16:32Z</time>
      </trkpt>
      <trkpt lat="47.64933" lon="-2.93167">
        <ele>-7.6</ele>
        <time>2021-08-04T13:16:33Z</time>
      </trkpt>
      <trkpt lat="47.64936" lon="-2.93164">
        <ele>-7.6</ele>
        <time>2021-08-04T13:16:34Z</time>
      </trkpt>
      <trkpt lat="47.6494" lon="-2.93161">
        <ele>-7.6</ele>
        <time>2021-08-04T13:16:35Z</time>
      </trkpt>
      <trkpt lat="47.64943" lon="-2.93159">
        <ele>-7.6</ele>
        <time>2021-08-04T13:16:36Z</time>
      </trkpt>
      <trkpt lat="47.64946" lon="-2.93157">
        <ele>-7.6</ele>
        <time>2021-08-04T13:16:37Z</time>
      </trkpt>
      <trkpt lat="47.6495" lon="-2.93156">
        <ele>-7.6</ele>
        <time>2021-08-04T13:16:38Z</time>
      </trkpt>
      <trkpt lat="47.64954" lon="-2.93154">
        <ele>-7.6</ele>
        <time>2021-08-04T13:16:39Z</time>
      </trkpt>
      <trkpt lat="47.64957" lon="-2.93152">
        <ele>-7.6</ele>
        <time>2021-08-04T13:16:40Z</time>
      </trkpt>
      <trkpt lat="47.6496" lon="-2.9315">
        <ele>-7.6</ele>
        <time>2021-08-04T13:16:41Z</time>
      </trkpt>
      <trkpt lat="47.64962" lon="-2.93148">
        <ele>-7.6</ele>
        <time>2021-08-04T13:16:42Z</time>
      </trkpt>
      <trkpt lat="47.64965" lon="-2.93146">
        <ele>-7.6</ele>
        <time>2021-08-04T13:16:43Z</time>
      </trkpt>
      <trkpt lat="47.64968" lon="-2.93144">
        <ele>-7.6</ele>
        <time>2021-08-04T13:16:44Z</time>
      </trkpt>
      <trkpt lat="47.64971" lon="-2.93141">
        <ele>-7.6</ele>
        <time>2021-08-04T13:16:45Z</time>
      </trkpt>
      <trkpt lat="47.64973" lon="-2.93138">
        <ele>-7.6</ele>
        <time>2021-08-04T13:16:46Z</time>
      </trkpt>
      <trkpt lat="47.64976" lon="-2.93136">
        <ele>-7.6</ele>
        <time>2021-08-04T13:16:47Z</time>
      </trkpt>
      <trkpt lat="47.64979" lon="-2.93133">
        <ele>-7.6</ele>
        <time>2021-08-04T13:16:48Z</time>
      </trkpt>
      <trkpt lat="47.64981" lon="-2.9313">
        <ele>-7.6</ele>
        <time>2021-08-04T13:16:49Z</time>
      </trkpt>
      <trkpt lat="47.64983" lon="-2.93126">
        <ele>-7.6</ele>
        <time>2021-08-04T13:16:50Z</time>
      </trkpt>
      <trkpt lat="47.64985" lon="-2.93122">
        <ele>-7.6</ele>
        <time>2021-08-04T13:16:51Z</time>
      </trkpt>
      <trkpt lat="47.64986" lon="-2.93118">
        <ele>-7.6</ele>
        <time>2021-08-04T13:16:52Z</time>
      </trkpt>
      <trkpt lat="47.64986" lon="-2.93115">
        <ele>-7.6</ele>
        <time>2021-08-04T13:16:53Z</time>
      </trkpt>
      <trkpt lat="47.64987" lon="-2.93115">
        <ele>-7.6</ele>
        <time>2021-08-04T13:16:54Z</time>
      </trkpt>
      <trkpt lat="47.64988" lon="-2.93113">
        <ele>-7.6</ele>
        <time>2021-08-04T13:17:48Z</time>
      </trkpt>
      <trkpt lat="47.64988" lon="-2.93111">
        <ele>-7.6</ele>
        <time>2021-08-04T13:17:49Z</time>
      </trkpt>
      <trkpt lat="47.64989" lon="-2.9311">
        <ele>-7.6</ele>
        <time>2021-08-04T13:17:50Z</time>
      </trkpt>
      <trkpt lat="47.64989" lon="-2.93109">
        <ele>-7.6</ele>
        <time>2021-08-04T13:17:51Z</time>
      </trkpt>
      <trkpt lat="47.64989" lon="-2.93107">
        <ele>-7.6</ele>
        <time>2021-08-04T13:17:52Z</time>
      </trkpt>
      <trkpt lat="47.64989" lon="-2.93104">
        <ele>-7.6</ele>
        <time>2021-08-04T13:17:53Z</time>
      </trkpt>
      <trkpt lat="47.64989" lon="-2.93101">
        <ele>-7.6</ele>
        <time>2021-08-04T13:17:54Z</time>
      </trkpt>
      <trkpt lat="47.64988" lon="-2.93098">
        <ele>-7.6</ele>
        <time>2021-08-04T13:17:55Z</time>
      </trkpt>
      <trkpt lat="47.64987" lon="-2.93095">
        <ele>-7.6</ele>
        <time>2021-08-04T13:17:56Z</time>
      </trkpt>
      <trkpt lat="47.64985" lon="-2.93091">
        <ele>-7.6</ele>
        <time>2021-08-04T13:17:57Z</time>
      </trkpt>
      <trkpt lat="47.64984" lon="-2.93087">
        <ele>-7.6</ele>
        <time>2021-08-04T13:17:58Z</time>
      </trkpt>
      <trkpt lat="47.64982" lon="-2.93083">
        <ele>-7.6</ele>
        <time>2021-08-04T13:17:59Z</time>
      </trkpt>
      <trkpt lat="47.6498" lon="-2.93079">
        <ele>-7.4</ele>
        <time>2021-08-04T13:18:00Z</time>
      </trkpt>
      <trkpt lat="47.64978" lon="-2.93075">
        <ele>-7.4</ele>
        <time>2021-08-04T13:18:01Z</time>
      </trkpt>
      <trkpt lat="47.64976" lon="-2.93072">
        <ele>-7.4</ele>
        <time>2021-08-04T13:18:02Z</time>
      </trkpt>
      <trkpt lat="47.64973" lon="-2.93068">
        <ele>-7.2</ele>
        <time>2021-08-04T13:18:03Z</time>
      </trkpt>
      <trkpt lat="47.64972" lon="-2.93064">
        <ele>-7.2</ele>
        <time>2021-08-04T13:18:04Z</time>
      </trkpt>
      <trkpt lat="47.6497" lon="-2.93061">
        <ele>-7.2</ele>
        <time>2021-08-04T13:18:05Z</time>
      </trkpt>
      <trkpt lat="47.64968" lon="-2.93057">
        <ele>-7.2</ele>
        <time>2021-08-04T13:18:06Z</time>
      </trkpt>
      <trkpt lat="47.64966" lon="-2.93054">
        <ele>-7.2</ele>
        <time>2021-08-04T13:18:07Z</time>
      </trkpt>
      <trkpt lat="47.64964" lon="-2.9305">
        <ele>-7.2</ele>
        <time>2021-08-04T13:18:08Z</time>
      </trkpt>
      <trkpt lat="47.64962" lon="-2.93047">
        <ele>-7.2</ele>
        <time>2021-08-04T13:18:09Z</time>
      </trkpt>
      <trkpt lat="47.64961" lon="-2.93043">
        <ele>-7.2</ele>
        <time>2021-08-04T13:18:10Z</time>
      </trkpt>
      <trkpt lat="47.64959" lon="-2.93039">
        <ele>-7.2</ele>
        <time>2021-08-04T13:18:11Z</time>
      </trkpt>
      <trkpt lat="47.64958" lon="-2.93035">
        <ele>-7.2</ele>
        <time>2021-08-04T13:18:12Z</time>
      </trkpt>
      <trkpt lat="47.64956" lon="-2.93032">
        <ele>-7.2</ele>
        <time>2021-08-04T13:18:13Z</time>
      </trkpt>
      <trkpt lat="47.64954" lon="-2.93028">
        <ele>-7.2</ele>
        <time>2021-08-04T13:18:14Z</time>
      </trkpt>
      <trkpt lat="47.64952" lon="-2.93024">
        <ele>-7.2</ele>
        <time>2021-08-04T13:18:15Z</time>
      </trkpt>
      <trkpt lat="47.64951" lon="-2.9302">
        <ele>-7.2</ele>
        <time>2021-08-04T13:18:16Z</time>
      </trkpt>
      <trkpt lat="47.64949" lon="-2.93016">
        <ele>-7.2</ele>
        <time>2021-08-04T13:18:17Z</time>
      </trkpt>
      <trkpt lat="47.64948" lon="-2.93012">
        <ele>-7.2</ele>
        <time>2021-08-04T13:18:18Z</time>
      </trkpt>
      <trkpt lat="47.64947" lon="-2.93007">
        <ele>-7.4</ele>
        <time>2021-08-04T13:18:19Z</time>
      </trkpt>
      <trkpt lat="47.64946" lon="-2.93003">
        <ele>-7.4</ele>
        <time>2021-08-04T13:18:20Z</time>
      </trkpt>
      <trkpt lat="47.64945" lon="-2.92998">
        <ele>-7.4</ele>
        <time>2021-08-04T13:18:21Z</time>
      </trkpt>
      <trkpt lat="47.64944" lon="-2.92993">
        <ele>-7.4</ele>
        <time>2021-08-04T13:18:22Z</time>
      </trkpt>
      <trkpt lat="47.64944" lon="-2.92988">
        <ele>-7.4</ele>
        <time>2021-08-04T13:18:23Z</time>
      </trkpt>
      <trkpt lat="47.64944" lon="-2.92983">
        <ele>-7.6</ele>
        <time>2021-08-04T13:18:24Z</time>
      </trkpt>
      <trkpt lat="47.64944" lon="-2.92978">
        <ele>-7.6</ele>
        <time>2021-08-04T13:18:25Z</time>
      </trkpt>
      <trkpt lat="47.64944" lon="-2.92974">
        <ele>-7.6</ele>
        <time>2021-08-04T13:18:26Z</time>
      </trkpt>
      <trkpt lat="47.64944" lon="-2.9297">
        <ele>-7.6</ele>
        <time>2021-08-04T13:18:27Z</time>
      </trkpt>
      <trkpt lat="47.64945" lon="-2.92965">
        <ele>-7.6</ele>
        <time>2021-08-04T13:18:28Z</time>
      </trkpt>
      <trkpt lat="47.64945" lon="-2.92961">
        <ele>-7.6</ele>
        <time>2021-08-04T13:18:29Z</time>
      </trkpt>
      <trkpt lat="47.64945" lon="-2.92957">
        <ele>-7.6</ele>
        <time>2021-08-04T13:18:30Z</time>
      </trkpt>
      <trkpt lat="47.64945" lon="-2.92954">
        <ele>-7.6</ele>
        <time>2021-08-04T13:18:31Z</time>
      </trkpt>
      <trkpt lat="47.64946" lon="-2.9295">
        <ele>-7.4</ele>
        <time>2021-08-04T13:18:32Z</time>
      </trkpt>
      <trkpt lat="47.64946" lon="-2.92946">
        <ele>-7.4</ele>
        <time>2021-08-04T13:18:33Z</time>
      </trkpt>
      <trkpt lat="47.64947" lon="-2.92942">
        <ele>-7.4</ele>
        <time>2021-08-04T13:18:34Z</time>
      </trkpt>
      <trkpt lat="47.64948" lon="-2.92938">
        <ele>-7.2</ele>
        <time>2021-08-04T13:18:35Z</time>
      </trkpt>
      <trkpt lat="47.64948" lon="-2.92934">
        <ele>-7.2</ele>
        <time>2021-08-04T13:18:36Z</time>
      </trkpt>
      <trkpt lat="47.64948" lon="-2.92929">
        <ele>-7.2</ele>
        <time>2021-08-04T13:18:37Z</time>
      </trkpt>
      <trkpt lat="47.64948" lon="-2.92924">
        <ele>-7</ele>
        <time>2021-08-04T13:18:38Z</time>
      </trkpt>
      <trkpt lat="47.64948" lon="-2.92919">
        <ele>-7</ele>
        <time>2021-08-04T13:18:39Z</time>
      </trkpt>
      <trkpt lat="47.64949" lon="-2.92913">
        <ele>-7</ele>
        <time>2021-08-04T13:18:40Z</time>
      </trkpt>
      <trkpt lat="47.64949" lon="-2.92907">
        <ele>-7</ele>
        <time>2021-08-04T13:18:41Z</time>
      </trkpt>
      <trkpt lat="47.64949" lon="-2.929">
        <ele>-7</ele>
        <time>2021-08-04T13:18:42Z</time>
      </trkpt>
      <trkpt lat="47.6495" lon="-2.92893">
        <ele>-7</ele>
        <time>2021-08-04T13:18:43Z</time>
      </trkpt>
      <trkpt lat="47.6495" lon="-2.92885">
        <ele>-7</ele>
        <time>2021-08-04T13:18:44Z</time>
      </trkpt>
      <trkpt lat="47.6495" lon="-2.92877">
        <ele>-7</ele>
        <time>2021-08-04T13:18:45Z</time>
      </trkpt>
      <trkpt lat="47.6495" lon="-2.9287">
        <ele>-7.4</ele>
        <time>2021-08-04T13:18:46Z</time>
      </trkpt>
      <trkpt lat="47.6495" lon="-2.92863">
        <ele>-7.4</ele>
        <time>2021-08-04T13:18:47Z</time>
      </trkpt>
      <trkpt lat="47.64951" lon="-2.92857">
        <ele>-7.6</ele>
        <time>2021-08-04T13:18:48Z</time>
      </trkpt>
      <trkpt lat="47.64951" lon="-2.92852">
        <ele>-7.8</ele>
        <time>2021-08-04T13:18:49Z</time>
      </trkpt>
      <trkpt lat="47.64951" lon="-2.92848">
        <ele>-7.8</ele>
        <time>2021-08-04T13:18:50Z</time>
      </trkpt>
      <trkpt lat="47.64952" lon="-2.92846">
        <ele>-7.8</ele>
        <time>2021-08-04T13:18:51Z</time>
      </trkpt>
      <trkpt lat="47.64952" lon="-2.92844">
        <ele>-8</ele>
        <time>2021-08-04T13:18:52Z</time>
      </trkpt>
      <trkpt lat="47.64952" lon="-2.92844">
        <ele>-8</ele>
        <time>2021-08-04T13:18:53Z</time>
      </trkpt>
      <trkpt lat="47.64952" lon="-2.92842">
        <ele>-8</ele>
        <time>2021-08-04T13:19:00Z</time>
      </trkpt>
      <trkpt lat="47.64952" lon="-2.92841">
        <ele>-7.8</ele>
        <time>2021-08-04T13:19:01Z</time>
      </trkpt>
      <trkpt lat="47.64952" lon="-2.92839">
        <ele>-7.8</ele>
        <time>2021-08-04T13:19:02Z</time>
      </trkpt>
      <trkpt lat="47.64952" lon="-2.92837">
        <ele>-7.8</ele>
        <time>2021-08-04T13:19:03Z</time>
      </trkpt>
      <trkpt lat="47.64953" lon="-2.92834">
        <ele>-7.8</ele>
        <time>2021-08-04T13:19:04Z</time>
      </trkpt>
      <trkpt lat="47.64955" lon="-2.92831">
        <ele>-7.8</ele>
        <time>2021-08-04T13:19:05Z</time>
      </trkpt>
      <trkpt lat="47.64956" lon="-2.92827">
        <ele>-7.8</ele>
        <time>2021-08-04T13:19:06Z</time>
      </trkpt>
      <trkpt lat="47.64958" lon="-2.92823">
        <ele>-7.8</ele>
        <time>2021-08-04T13:19:07Z</time>
      </trkpt>
      <trkpt lat="47.6496" lon="-2.92819">
        <ele>-7.8</ele>
        <time>2021-08-04T13:19:08Z</time>
      </trkpt>
      <trkpt lat="47.64961" lon="-2.92814">
        <ele>-7.8</ele>
        <time>2021-08-04T13:19:09Z</time>
      </trkpt>
      <trkpt lat="47.64963" lon="-2.92808">
        <ele>-7.8</ele>
        <time>2021-08-04T13:19:10Z</time>
      </trkpt>
      <trkpt lat="47.64964" lon="-2.92803">
        <ele>-8</ele>
        <time>2021-08-04T13:19:11Z</time>
      </trkpt>
      <trkpt lat="47.64966" lon="-2.92797">
        <ele>-8.2</ele>
        <time>2021-08-04T13:19:12Z</time>
      </trkpt>
      <trkpt lat="47.64968" lon="-2.92791">
        <ele>-8.4</ele>
        <time>2021-08-04T13:19:13Z</time>
      </trkpt>
      <trkpt lat="47.6497" lon="-2.92785">
        <ele>-8.6</ele>
        <time>2021-08-04T13:19:14Z</time>
      </trkpt>
      <trkpt lat="47.64971" lon="-2.92779">
        <ele>-9</ele>
        <time>2021-08-04T13:19:15Z</time>
      </trkpt>
      <trkpt lat="47.64973" lon="-2.92772">
        <ele>-9.4</ele>
        <time>2021-08-04T13:19:16Z</time>
      </trkpt>
      <trkpt lat="47.64974" lon="-2.92765">
        <ele>-9.4</ele>
        <time>2021-08-04T13:19:17Z</time>
      </trkpt>
      <trkpt lat="47.64976" lon="-2.92758">
        <ele>-9.4</ele>
        <time>2021-08-04T13:19:18Z</time>
      </trkpt>
      <trkpt lat="47.64977" lon="-2.92751">
        <ele>-9.6</ele>
        <time>2021-08-04T13:19:19Z</time>
      </trkpt>
      <trkpt lat="47.64978" lon="-2.92744">
        <ele>-9.6</ele>
        <time>2021-08-04T13:19:20Z</time>
      </trkpt>
      <trkpt lat="47.64979" lon="-2.92737">
        <ele>-9.6</ele>
        <time>2021-08-04T13:19:21Z</time>
      </trkpt>
      <trkpt lat="47.6498" lon="-2.9273">
        <ele>-9.6</ele>
        <time>2021-08-04T13:19:22Z</time>
      </trkpt>
      <trkpt lat="47.64981" lon="-2.92723">
        <ele>-9.6</ele>
        <time>2021-08-04T13:19:23Z</time>
      </trkpt>
      <trkpt lat="47.64982" lon="-2.92715">
        <ele>-9.6</ele>
        <time>2021-08-04T13:19:24Z</time>
      </trkpt>
      <trkpt lat="47.64983" lon="-2.92709">
        <ele>-9.6</ele>
        <time>2021-08-04T13:19:25Z</time>
      </trkpt>
      <trkpt lat="47.64984" lon="-2.92702">
        <ele>-9.6</ele>
        <time>2021-08-04T13:19:26Z</time>
      </trkpt>
      <trkpt lat="47.64985" lon="-2.92695">
        <ele>-9.4</ele>
        <time>2021-08-04T13:19:27Z</time>
      </trkpt>
      <trkpt lat="47.64986" lon="-2.92688">
        <ele>-9.4</ele>
        <time>2021-08-04T13:19:28Z</time>
      </trkpt>
      <trkpt lat="47.64987" lon="-2.92681">
        <ele>-9.4</ele>
        <time>2021-08-04T13:19:29Z</time>
      </trkpt>
      <trkpt lat="47.64988" lon="-2.92675">
        <ele>-9.2</ele>
        <time>2021-08-04T13:19:30Z</time>
      </trkpt>
      <trkpt lat="47.64989" lon="-2.92669">
        <ele>-9.2</ele>
        <time>2021-08-04T13:19:31Z</time>
      </trkpt>
      <trkpt lat="47.6499" lon="-2.92664">
        <ele>-9.2</ele>
        <time>2021-08-04T13:19:32Z</time>
      </trkpt>
      <trkpt lat="47.6499" lon="-2.9266">
        <ele>-9.2</ele>
        <time>2021-08-04T13:19:33Z</time>
      </trkpt>
      <trkpt lat="47.64991" lon="-2.92655">
        <ele>-9</ele>
        <time>2021-08-04T13:19:34Z</time>
      </trkpt>
      <trkpt lat="47.64992" lon="-2.92651">
        <ele>-9</ele>
        <time>2021-08-04T13:19:35Z</time>
      </trkpt>
      <trkpt lat="47.64992" lon="-2.92646">
        <ele>-8.8</ele>
        <time>2021-08-04T13:19:36Z</time>
      </trkpt>
      <trkpt lat="47.64993" lon="-2.92642">
        <ele>-8.8</ele>
        <time>2021-08-04T13:19:37Z</time>
      </trkpt>
      <trkpt lat="47.64994" lon="-2.92636">
        <ele>-8.6</ele>
        <time>2021-08-04T13:19:38Z</time>
      </trkpt>
      <trkpt lat="47.64996" lon="-2.92631">
        <ele>-8.4</ele>
        <time>2021-08-04T13:19:39Z</time>
      </trkpt>
      <trkpt lat="47.64996" lon="-2.92626">
        <ele>-8</ele>
        <time>2021-08-04T13:19:40Z</time>
      </trkpt>
      <trkpt lat="47.64997" lon="-2.92621">
        <ele>-7.8</ele>
        <time>2021-08-04T13:19:41Z</time>
      </trkpt>
      <trkpt lat="47.64998" lon="-2.92617">
        <ele>-7.4</ele>
        <time>2021-08-04T13:19:42Z</time>
      </trkpt>
      <trkpt lat="47.64999" lon="-2.92612">
        <ele>-6.8</ele>
        <time>2021-08-04T13:19:43Z</time>
      </trkpt>
      <trkpt lat="47.65" lon="-2.92607">
        <ele>-6.6</ele>
        <time>2021-08-04T13:19:44Z</time>
      </trkpt>
      <trkpt lat="47.65001" lon="-2.92603">
        <ele>-6.6</ele>
        <time>2021-08-04T13:19:45Z</time>
      </trkpt>
      <trkpt lat="47.65002" lon="-2.92599">
        <ele>-6.4</ele>
        <time>2021-08-04T13:19:46Z</time>
      </trkpt>
      <trkpt lat="47.65003" lon="-2.92595">
        <ele>-6.2</ele>
        <time>2021-08-04T13:19:47Z</time>
      </trkpt>
      <trkpt lat="47.65003" lon="-2.92591">
        <ele>-6.2</ele>
        <time>2021-08-04T13:19:48Z</time>
      </trkpt>
      <trkpt lat="47.65004" lon="-2.92586">
        <ele>-6</ele>
        <time>2021-08-04T13:19:49Z</time>
      </trkpt>
      <trkpt lat="47.65005" lon="-2.92581">
        <ele>-6</ele>
        <time>2021-08-04T13:19:50Z</time>
      </trkpt>
      <trkpt lat="47.65006" lon="-2.92576">
        <ele>-6</ele>
        <time>2021-08-04T13:19:51Z</time>
      </trkpt>
      <trkpt lat="47.65007" lon="-2.92572">
        <ele>-6</ele>
        <time>2021-08-04T13:19:52Z</time>
      </trkpt>
      <trkpt lat="47.65008" lon="-2.92566">
        <ele>-5.8</ele>
        <time>2021-08-04T13:19:53Z</time>
      </trkpt>
      <trkpt lat="47.65009" lon="-2.92561">
        <ele>-5.6</ele>
        <time>2021-08-04T13:19:54Z</time>
      </trkpt>
      <trkpt lat="47.6501" lon="-2.92556">
        <ele>-5.4</ele>
        <time>2021-08-04T13:19:55Z</time>
      </trkpt>
      <trkpt lat="47.65011" lon="-2.92551">
        <ele>-5.4</ele>
        <time>2021-08-04T13:19:56Z</time>
      </trkpt>
      <trkpt lat="47.65013" lon="-2.92546">
        <ele>-5.4</ele>
        <time>2021-08-04T13:19:57Z</time>
      </trkpt>
      <trkpt lat="47.65014" lon="-2.92541">
        <ele>-5.2</ele>
        <time>2021-08-04T13:19:58Z</time>
      </trkpt>
      <trkpt lat="47.65015" lon="-2.92536">
        <ele>-5.2</ele>
        <time>2021-08-04T13:19:59Z</time>
      </trkpt>
      <trkpt lat="47.65016" lon="-2.92531">
        <ele>-5.2</ele>
        <time>2021-08-04T13:20:00Z</time>
      </trkpt>
      <trkpt lat="47.65017" lon="-2.92526">
        <ele>-5.2</ele>
        <time>2021-08-04T13:20:01Z</time>
      </trkpt>
      <trkpt lat="47.65018" lon="-2.92521">
        <ele>-5</ele>
        <time>2021-08-04T13:20:02Z</time>
      </trkpt>
      <trkpt lat="47.65019" lon="-2.92516">
        <ele>-5</ele>
        <time>2021-08-04T13:20:03Z</time>
      </trkpt>
      <trkpt lat="47.6502" lon="-2.92511">
        <ele>-5</ele>
        <time>2021-08-04T13:20:04Z</time>
      </trkpt>
      <trkpt lat="47.65021" lon="-2.92506">
        <ele>-5</ele>
        <time>2021-08-04T13:20:05Z</time>
      </trkpt>
      <trkpt lat="47.65022" lon="-2.92501">
        <ele>-5</ele>
        <time>2021-08-04T13:20:06Z</time>
      </trkpt>
      <trkpt lat="47.65022" lon="-2.92496">
        <ele>-5</ele>
        <time>2021-08-04T13:20:07Z</time>
      </trkpt>
      <trkpt lat="47.65022" lon="-2.92491">
        <ele>-5</ele>
        <time>2021-08-04T13:20:08Z</time>
      </trkpt>
      <trkpt lat="47.65022" lon="-2.92487">
        <ele>-4.8</ele>
        <time>2021-08-04T13:20:09Z</time>
      </trkpt>
      <trkpt lat="47.65023" lon="-2.92483">
        <ele>-4.6</ele>
        <time>2021-08-04T13:20:10Z</time>
      </trkpt>
      <trkpt lat="47.65023" lon="-2.92479">
        <ele>-4.4</ele>
        <time>2021-08-04T13:20:11Z</time>
      </trkpt>
      <trkpt lat="47.65023" lon="-2.92475">
        <ele>-4.2</ele>
        <time>2021-08-04T13:20:12Z</time>
      </trkpt>
      <trkpt lat="47.65023" lon="-2.92471">
        <ele>-4.2</ele>
        <time>2021-08-04T13:20:13Z</time>
      </trkpt>
      <trkpt lat="47.65024" lon="-2.92467">
        <ele>-4.2</ele>
        <time>2021-08-04T13:20:14Z</time>
      </trkpt>
      <trkpt lat="47.65024" lon="-2.92464">
        <ele>-4</ele>
        <time>2021-08-04T13:20:15Z</time>
      </trkpt>
      <trkpt lat="47.65024" lon="-2.9246">
        <ele>-3.8</ele>
        <time>2021-08-04T13:20:16Z</time>
      </trkpt>
      <trkpt lat="47.65024" lon="-2.92457">
        <ele>-3.6</ele>
        <time>2021-08-04T13:20:17Z</time>
      </trkpt>
      <trkpt lat="47.65024" lon="-2.92454">
        <ele>-3.4</ele>
        <time>2021-08-04T13:20:18Z</time>
      </trkpt>
      <trkpt lat="47.65024" lon="-2.92451">
        <ele>-3.2</ele>
        <time>2021-08-04T13:20:19Z</time>
      </trkpt>
      <trkpt lat="47.65024" lon="-2.92448">
        <ele>-3</ele>
        <time>2021-08-04T13:20:20Z</time>
      </trkpt>
      <trkpt lat="47.65024" lon="-2.92445">
        <ele>-2.8</ele>
        <time>2021-08-04T13:20:21Z</time>
      </trkpt>
      <trkpt lat="47.65024" lon="-2.92442">
        <ele>-2.8</ele>
        <time>2021-08-04T13:20:22Z</time>
      </trkpt>
      <trkpt lat="47.65024" lon="-2.92439">
        <ele>-2.6</ele>
        <time>2021-08-04T13:20:23Z</time>
      </trkpt>
      <trkpt lat="47.65024" lon="-2.92436">
        <ele>-2.4</ele>
        <time>2021-08-04T13:20:24Z</time>
      </trkpt>
      <trkpt lat="47.65024" lon="-2.92434">
        <ele>-2.2</ele>
        <time>2021-08-04T13:20:25Z</time>
      </trkpt>
      <trkpt lat="47.65024" lon="-2.92431">
        <ele>-2</ele>
        <time>2021-08-04T13:20:26Z</time>
      </trkpt>
      <trkpt lat="47.65024" lon="-2.92429">
        <ele>-1.8</ele>
        <time>2021-08-04T13:20:27Z</time>
      </trkpt>
      <trkpt lat="47.65023" lon="-2.92428">
        <ele>-1.6</ele>
        <time>2021-08-04T13:20:28Z</time>
      </trkpt>
      <trkpt lat="47.65022" lon="-2.92426">
        <ele>-1.4</ele>
        <time>2021-08-04T13:20:29Z</time>
      </trkpt>
      <trkpt lat="47.65021" lon="-2.92424">
        <ele>-1.2</ele>
        <time>2021-08-04T13:20:30Z</time>
      </trkpt>
      <trkpt lat="47.6502" lon="-2.92422">
        <ele>-1</ele>
        <time>2021-08-04T13:20:31Z</time>
      </trkpt>
      <trkpt lat="47.65019" lon="-2.92421">
        <ele>-0.8</ele>
        <time>2021-08-04T13:20:32Z</time>
      </trkpt>
      <trkpt lat="47.65017" lon="-2.9242">
        <ele>-0.4</ele>
        <time>2021-08-04T13:20:33Z</time>
      </trkpt>
      <trkpt lat="47.65016" lon="-2.9242">
        <ele>-0.4</ele>
        <time>2021-08-04T13:20:34Z</time>
      </trkpt>
      <trkpt lat="47.65014" lon="-2.9242">
        <ele>-0.2</ele>
        <time>2021-08-04T13:20:35Z</time>
      </trkpt>
      <trkpt lat="47.65013" lon="-2.92421">
        <ele>-0.2</ele>
        <time>2021-08-04T13:20:36Z</time>
      </trkpt>
      <trkpt lat="47.65012" lon="-2.92422">
        <ele>0.2</ele>
        <time>2021-08-04T13:20:37Z</time>
      </trkpt>
      <trkpt lat="47.65012" lon="-2.92422">
        <ele>0.4</ele>
        <time>2021-08-04T13:20:38Z</time>
      </trkpt>
      <trkpt lat="47.65012" lon="-2.92422">
        <ele>1.2</ele>
        <time>2021-08-04T13:20:45Z</time>
      </trkpt>
      <trkpt lat="47.65012" lon="-2.92422">
        <ele>1.2</ele>
        <time>2021-08-04T13:20:46Z</time>
      </trkpt>
      <trkpt lat="47.65012" lon="-2.92422">
        <ele>1.2</ele>
        <time>2021-08-04T13:20:47Z</time>
      </trkpt>
      <trkpt lat="47.65012" lon="-2.92421">
        <ele>1.4</ele>
        <time>2021-08-04T13:21:26Z</time>
      </trkpt>
      <trkpt lat="47.65011" lon="-2.92422">
        <ele>1.4</ele>
        <time>2021-08-04T13:21:27Z</time>
      </trkpt>
      <trkpt lat="47.6501" lon="-2.92422">
        <ele>1.4</ele>
        <time>2021-08-04T13:21:28Z</time>
      </trkpt>
      <trkpt lat="47.65008" lon="-2.92423">
        <ele>1.4</ele>
        <time>2021-08-04T13:21:29Z</time>
      </trkpt>
      <trkpt lat="47.65006" lon="-2.92424">
        <ele>1.4</ele>
        <time>2021-08-04T13:21:30Z</time>
      </trkpt>
      <trkpt lat="47.65004" lon="-2.92424">
        <ele>1.4</ele>
        <time>2021-08-04T13:21:31Z</time>
      </trkpt>
      <trkpt lat="47.65003" lon="-2.92426">
        <ele>1.4</ele>
        <time>2021-08-04T13:21:32Z</time>
      </trkpt>
      <trkpt lat="47.65001" lon="-2.92428">
        <ele>1.4</ele>
        <time>2021-08-04T13:21:33Z</time>
      </trkpt>
      <trkpt lat="47.65" lon="-2.9243">
        <ele>1.4</ele>
        <time>2021-08-04T13:21:34Z</time>
      </trkpt>
      <trkpt lat="47.64998" lon="-2.92432">
        <ele>1.4</ele>
        <time>2021-08-04T13:21:35Z</time>
      </trkpt>
      <trkpt lat="47.64996" lon="-2.92433">
        <ele>1.6</ele>
        <time>2021-08-04T13:21:36Z</time>
      </trkpt>
      <trkpt lat="47.64994" lon="-2.92435">
        <ele>1.6</ele>
        <time>2021-08-04T13:21:37Z</time>
      </trkpt>
      <trkpt lat="47.64992" lon="-2.92438">
        <ele>1.6</ele>
        <time>2021-08-04T13:21:38Z</time>
      </trkpt>
      <trkpt lat="47.64991" lon="-2.9244">
        <ele>1.6</ele>
        <time>2021-08-04T13:21:39Z</time>
      </trkpt>
      <trkpt lat="47.64989" lon="-2.92442">
        <ele>1.6</ele>
        <time>2021-08-04T13:21:40Z</time>
      </trkpt>
      <trkpt lat="47.64987" lon="-2.92444">
        <ele>1.6</ele>
        <time>2021-08-04T13:21:41Z</time>
      </trkpt>
      <trkpt lat="47.64985" lon="-2.92446">
        <ele>1.6</ele>
        <time>2021-08-04T13:21:42Z</time>
      </trkpt>
      <trkpt lat="47.64984" lon="-2.92449">
        <ele>1.6</ele>
        <time>2021-08-04T13:21:43Z</time>
      </trkpt>
      <trkpt lat="47.64982" lon="-2.92451">
        <ele>1.6</ele>
        <time>2021-08-04T13:21:44Z</time>
      </trkpt>
      <trkpt lat="47.6498" lon="-2.92454">
        <ele>1.6</ele>
        <time>2021-08-04T13:21:45Z</time>
      </trkpt>
      <trkpt lat="47.64979" lon="-2.92456">
        <ele>1.6</ele>
        <time>2021-08-04T13:21:46Z</time>
      </trkpt>
      <trkpt lat="47.64977" lon="-2.92458">
        <ele>1.8</ele>
        <time>2021-08-04T13:21:47Z</time>
      </trkpt>
      <trkpt lat="47.64975" lon="-2.92461">
        <ele>1.8</ele>
        <time>2021-08-04T13:21:48Z</time>
      </trkpt>
      <trkpt lat="47.64973" lon="-2.92463">
        <ele>1.8</ele>
        <time>2021-08-04T13:21:49Z</time>
      </trkpt>
      <trkpt lat="47.64972" lon="-2.92465">
        <ele>2</ele>
        <time>2021-08-04T13:21:50Z</time>
      </trkpt>
      <trkpt lat="47.6497" lon="-2.92468">
        <ele>2.2</ele>
        <time>2021-08-04T13:21:51Z</time>
      </trkpt>
      <trkpt lat="47.64968" lon="-2.9247">
        <ele>2.2</ele>
        <time>2021-08-04T13:21:52Z</time>
      </trkpt>
      <trkpt lat="47.64967" lon="-2.92472">
        <ele>2.4</ele>
        <time>2021-08-04T13:21:53Z</time>
      </trkpt>
      <trkpt lat="47.64965" lon="-2.92474">
        <ele>2.4</ele>
        <time>2021-08-04T13:21:54Z</time>
      </trkpt>
      <trkpt lat="47.64963" lon="-2.92477">
        <ele>2.4</ele>
        <time>2021-08-04T13:21:55Z</time>
      </trkpt>
      <trkpt lat="47.64961" lon="-2.92479">
        <ele>2.6</ele>
        <time>2021-08-04T13:21:56Z</time>
      </trkpt>
      <trkpt lat="47.64959" lon="-2.92481">
        <ele>2.6</ele>
        <time>2021-08-04T13:21:57Z</time>
      </trkpt>
      <trkpt lat="47.64957" lon="-2.92484">
        <ele>2.6</ele>
        <time>2021-08-04T13:21:58Z</time>
      </trkpt>
      <trkpt lat="47.64956" lon="-2.92487">
        <ele>2.8</ele>
        <time>2021-08-04T13:21:59Z</time>
      </trkpt>
      <trkpt lat="47.64954" lon="-2.92489">
        <ele>2.8</ele>
        <time>2021-08-04T13:22:00Z</time>
      </trkpt>
      <trkpt lat="47.64952" lon="-2.92492">
        <ele>2.8</ele>
        <time>2021-08-04T13:22:01Z</time>
      </trkpt>
      <trkpt lat="47.6495" lon="-2.92494">
        <ele>3</ele>
        <time>2021-08-04T13:22:02Z</time>
      </trkpt>
      <trkpt lat="47.64948" lon="-2.92497">
        <ele>3.2</ele>
        <time>2021-08-04T13:22:03Z</time>
      </trkpt>
      <trkpt lat="47.64946" lon="-2.92499">
        <ele>3.6</ele>
        <time>2021-08-04T13:22:04Z</time>
      </trkpt>
      <trkpt lat="47.64945" lon="-2.92502">
        <ele>3.6</ele>
        <time>2021-08-04T13:22:05Z</time>
      </trkpt>
      <trkpt lat="47.64943" lon="-2.92505">
        <ele>3.6</ele>
        <time>2021-08-04T13:22:06Z</time>
      </trkpt>
      <trkpt lat="47.64941" lon="-2.92508">
        <ele>3.6</ele>
        <time>2021-08-04T13:22:07Z</time>
      </trkpt>
      <trkpt lat="47.6494" lon="-2.9251">
        <ele>3.6</ele>
        <time>2021-08-04T13:22:08Z</time>
      </trkpt>
      <trkpt lat="47.64938" lon="-2.92512">
        <ele>3.8</ele>
        <time>2021-08-04T13:22:09Z</time>
      </trkpt>
      <trkpt lat="47.64936" lon="-2.92515">
        <ele>3.8</ele>
        <time>2021-08-04T13:22:10Z</time>
      </trkpt>
      <trkpt lat="47.64934" lon="-2.92517">
        <ele>3.8</ele>
        <time>2021-08-04T13:22:11Z</time>
      </trkpt>
      <trkpt lat="47.64932" lon="-2.92519">
        <ele>3.8</ele>
        <time>2021-08-04T13:22:12Z</time>
      </trkpt>
      <trkpt lat="47.64931" lon="-2.92521">
        <ele>3.8</ele>
        <time>2021-08-04T13:22:13Z</time>
      </trkpt>
      <trkpt lat="47.64929" lon="-2.92524">
        <ele>3.8</ele>
        <time>2021-08-04T13:22:14Z</time>
      </trkpt>
      <trkpt lat="47.64927" lon="-2.92527">
        <ele>4</ele>
        <time>2021-08-04T13:22:15Z</time>
      </trkpt>
      <trkpt lat="47.64925" lon="-2.9253">
        <ele>4</ele>
        <time>2021-08-04T13:22:16Z</time>
      </trkpt>
      <trkpt lat="47.64924" lon="-2.92533">
        <ele>4</ele>
        <time>2021-08-04T13:22:17Z</time>
      </trkpt>
      <trkpt lat="47.64922" lon="-2.92535">
        <ele>4.2</ele>
        <time>2021-08-04T13:22:18Z</time>
      </trkpt>
      <trkpt lat="47.6492" lon="-2.92538">
        <ele>4.2</ele>
        <time>2021-08-04T13:22:19Z</time>
      </trkpt>
      <trkpt lat="47.64918" lon="-2.92541">
        <ele>4.2</ele>
        <time>2021-08-04T13:22:20Z</time>
      </trkpt>
      <trkpt lat="47.64916" lon="-2.92543">
        <ele>4.4</ele>
        <time>2021-08-04T13:22:21Z</time>
      </trkpt>
      <trkpt lat="47.64914" lon="-2.92546">
        <ele>4.4</ele>
        <time>2021-08-04T13:22:22Z</time>
      </trkpt>
      <trkpt lat="47.64912" lon="-2.92548">
        <ele>4.6</ele>
        <time>2021-08-04T13:22:23Z</time>
      </trkpt>
      <trkpt lat="47.6491" lon="-2.9255">
        <ele>4.6</ele>
        <time>2021-08-04T13:22:24Z</time>
      </trkpt>
      <trkpt lat="47.64908" lon="-2.92551">
        <ele>4.8</ele>
        <time>2021-08-04T13:22:25Z</time>
      </trkpt>
      <trkpt lat="47.64906" lon="-2.92551">
        <ele>4.8</ele>
        <time>2021-08-04T13:22:26Z</time>
      </trkpt>
      <trkpt lat="47.64904" lon="-2.9255">
        <ele>4.8</ele>
        <time>2021-08-04T13:22:27Z</time>
      </trkpt>
      <trkpt lat="47.64904" lon="-2.92547">
        <ele>5</ele>
        <time>2021-08-04T13:22:28Z</time>
      </trkpt>
      <trkpt lat="47.64903" lon="-2.92546">
        <ele>5</ele>
        <time>2021-08-04T13:22:29Z</time>
      </trkpt>
      <trkpt lat="47.64903" lon="-2.92544">
        <ele>5</ele>
        <time>2021-08-04T13:22:30Z</time>
      </trkpt>
      <trkpt lat="47.64902" lon="-2.92542">
        <ele>5</ele>
        <time>2021-08-04T13:22:31Z</time>
      </trkpt>
      <trkpt lat="47.64902" lon="-2.92541">
        <ele>5</ele>
        <time>2021-08-04T13:22:32Z</time>
      </trkpt>
      <trkpt lat="47.64901" lon="-2.92539">
        <ele>5.2</ele>
        <time>2021-08-04T13:22:33Z</time>
      </trkpt>
      <trkpt lat="47.64901" lon="-2.92537">
        <ele>5.2</ele>
        <time>2021-08-04T13:22:34Z</time>
      </trkpt>
      <trkpt lat="47.649" lon="-2.92535">
        <ele>5.2</ele>
        <time>2021-08-04T13:22:35Z</time>
      </trkpt>
      <trkpt lat="47.64899" lon="-2.92532">
        <ele>5.4</ele>
        <time>2021-08-04T13:22:36Z</time>
      </trkpt>
      <trkpt lat="47.64899" lon="-2.92529">
        <ele>5.4</ele>
        <time>2021-08-04T13:22:37Z</time>
      </trkpt>
      <trkpt lat="47.64898" lon="-2.92525">
        <ele>5.6</ele>
        <time>2021-08-04T13:22:38Z</time>
      </trkpt>
      <trkpt lat="47.64897" lon="-2.92522">
        <ele>5.6</ele>
        <time>2021-08-04T13:22:39Z</time>
      </trkpt>
      <trkpt lat="47.64896" lon="-2.92519">
        <ele>5.6</ele>
        <time>2021-08-04T13:22:40Z</time>
      </trkpt>
      <trkpt lat="47.64895" lon="-2.92516">
        <ele>5.6</ele>
        <time>2021-08-04T13:22:41Z</time>
      </trkpt>
      <trkpt lat="47.64894" lon="-2.92512">
        <ele>5.6</ele>
        <time>2021-08-04T13:22:42Z</time>
      </trkpt>
      <trkpt lat="47.64894" lon="-2.92509">
        <ele>5.6</ele>
        <time>2021-08-04T13:22:43Z</time>
      </trkpt>
      <trkpt lat="47.64893" lon="-2.92505">
        <ele>5.6</ele>
        <time>2021-08-04T13:22:44Z</time>
      </trkpt>
      <trkpt lat="47.64892" lon="-2.92501">
        <ele>5.6</ele>
        <time>2021-08-04T13:22:45Z</time>
      </trkpt>
      <trkpt lat="47.64891" lon="-2.92498">
        <ele>5.8</ele>
        <time>2021-08-04T13:22:46Z</time>
      </trkpt>
      <trkpt lat="47.6489" lon="-2.92494">
        <ele>5.8</ele>
        <time>2021-08-04T13:22:47Z</time>
      </trkpt>
      <trkpt lat="47.6489" lon="-2.9249">
        <ele>6</ele>
        <time>2021-08-04T13:22:48Z</time>
      </trkpt>
      <trkpt lat="47.6489" lon="-2.92486">
        <ele>6</ele>
        <time>2021-08-04T13:22:49Z</time>
      </trkpt>
      <trkpt lat="47.64889" lon="-2.92482">
        <ele>6</ele>
        <time>2021-08-04T13:22:50Z</time>
      </trkpt>
      <trkpt lat="47.64888" lon="-2.92478">
        <ele>6</ele>
        <time>2021-08-04T13:22:51Z</time>
      </trkpt>
      <trkpt lat="47.64888" lon="-2.92473">
        <ele>6.2</ele>
        <time>2021-08-04T13:22:52Z</time>
      </trkpt>
      <trkpt lat="47.64887" lon="-2.92469">
        <ele>6.2</ele>
        <time>2021-08-04T13:22:53Z</time>
      </trkpt>
      <trkpt lat="47.64886" lon="-2.92465">
        <ele>6.2</ele>
        <time>2021-08-04T13:22:54Z</time>
      </trkpt>
      <trkpt lat="47.64885" lon="-2.92461">
        <ele>6.2</ele>
        <time>2021-08-04T13:22:55Z</time>
      </trkpt>
      <trkpt lat="47.64884" lon="-2.92457">
        <ele>6.2</ele>
        <time>2021-08-04T13:22:56Z</time>
      </trkpt>
      <trkpt lat="47.64883" lon="-2.92454">
        <ele>6.2</ele>
        <time>2021-08-04T13:22:57Z</time>
      </trkpt>
      <trkpt lat="47.64882" lon="-2.9245">
        <ele>6.2</ele>
        <time>2021-08-04T13:22:58Z</time>
      </trkpt>
      <trkpt lat="47.64882" lon="-2.92446">
        <ele>6.4</ele>
        <time>2021-08-04T13:22:59Z</time>
      </trkpt>
      <trkpt lat="47.64882" lon="-2.92442">
        <ele>6.4</ele>
        <time>2021-08-04T13:23:00Z</time>
      </trkpt>
      <trkpt lat="47.64882" lon="-2.92438">
        <ele>6.4</ele>
        <time>2021-08-04T13:23:01Z</time>
      </trkpt>
      <trkpt lat="47.64883" lon="-2.92434">
        <ele>6.6</ele>
        <time>2021-08-04T13:23:02Z</time>
      </trkpt>
      <trkpt lat="47.64884" lon="-2.92431">
        <ele>6.6</ele>
        <time>2021-08-04T13:23:03Z</time>
      </trkpt>
      <trkpt lat="47.64885" lon="-2.92428">
        <ele>6.8</ele>
        <time>2021-08-04T13:23:04Z</time>
      </trkpt>
      <trkpt lat="47.64885" lon="-2.92424">
        <ele>6.8</ele>
        <time>2021-08-04T13:23:05Z</time>
      </trkpt>
      <trkpt lat="47.64885" lon="-2.9242">
        <ele>6.8</ele>
        <time>2021-08-04T13:23:06Z</time>
      </trkpt>
      <trkpt lat="47.64885" lon="-2.92416">
        <ele>6.8</ele>
        <time>2021-08-04T13:23:07Z</time>
      </trkpt>
      <trkpt lat="47.64885" lon="-2.92412">
        <ele>7</ele>
        <time>2021-08-04T13:23:08Z</time>
      </trkpt>
      <trkpt lat="47.64885" lon="-2.92409">
        <ele>7</ele>
        <time>2021-08-04T13:23:09Z</time>
      </trkpt>
      <trkpt lat="47.64884" lon="-2.92405">
        <ele>7</ele>
        <time>2021-08-04T13:23:10Z</time>
      </trkpt>
      <trkpt lat="47.64884" lon="-2.92401">
        <ele>7</ele>
        <time>2021-08-04T13:23:11Z</time>
      </trkpt>
      <trkpt lat="47.64884" lon="-2.92398">
        <ele>7.2</ele>
        <time>2021-08-04T13:23:12Z</time>
      </trkpt>
      <trkpt lat="47.64884" lon="-2.92395">
        <ele>7.2</ele>
        <time>2021-08-04T13:23:13Z</time>
      </trkpt>
      <trkpt lat="47.64884" lon="-2.92392">
        <ele>7.2</ele>
        <time>2021-08-04T13:23:14Z</time>
      </trkpt>
      <trkpt lat="47.64884" lon="-2.92389">
        <ele>7.4</ele>
        <time>2021-08-04T13:23:15Z</time>
      </trkpt>
      <trkpt lat="47.64884" lon="-2.92387">
        <ele>7.6</ele>
        <time>2021-08-04T13:23:16Z</time>
      </trkpt>
      <trkpt lat="47.64883" lon="-2.92385">
        <ele>7.6</ele>
        <time>2021-08-04T13:23:17Z</time>
      </trkpt>
      <trkpt lat="47.64883" lon="-2.92383">
        <ele>7.8</ele>
        <time>2021-08-04T13:23:18Z</time>
      </trkpt>
      <trkpt lat="47.64883" lon="-2.92382">
        <ele>7.8</ele>
        <time>2021-08-04T13:23:19Z</time>
      </trkpt>
      <trkpt lat="47.64883" lon="-2.92381">
        <ele>8</ele>
        <time>2021-08-04T13:23:20Z</time>
      </trkpt>
      <trkpt lat="47.64884" lon="-2.9238">
        <ele>8</ele>
        <time>2021-08-04T13:23:21Z</time>
      </trkpt>
      <trkpt lat="47.64884" lon="-2.9238">
        <ele>8.2</ele>
        <time>2021-08-04T13:23:22Z</time>
      </trkpt>
      <trkpt lat="47.64884" lon="-2.92378">
        <ele>8.6</ele>
        <time>2021-08-04T13:23:30Z</time>
      </trkpt>
      <trkpt lat="47.64884" lon="-2.92378">
        <ele>8.6</ele>
        <time>2021-08-04T13:23:31Z</time>
      </trkpt>
      <trkpt lat="47.64884" lon="-2.92377">
        <ele>8.6</ele>
        <time>2021-08-04T13:23:32Z</time>
      </trkpt>
      <trkpt lat="47.64884" lon="-2.92377">
        <ele>8.6</ele>
        <time>2021-08-04T13:23:33Z</time>
      </trkpt>
      <trkpt lat="47.64883" lon="-2.92373">
        <ele>8.4</ele>
        <time>2021-08-04T13:24:57Z</time>
      </trkpt>
      <trkpt lat="47.64883" lon="-2.9237">
        <ele>8.4</ele>
        <time>2021-08-04T13:24:58Z</time>
      </trkpt>
      <trkpt lat="47.64884" lon="-2.92366">
        <ele>8.4</ele>
        <time>2021-08-04T13:24:59Z</time>
      </trkpt>
      <trkpt lat="47.64884" lon="-2.92363">
        <ele>8.2</ele>
        <time>2021-08-04T13:25:00Z</time>
      </trkpt>
      <trkpt lat="47.64884" lon="-2.92359">
        <ele>8.2</ele>
        <time>2021-08-04T13:25:01Z</time>
      </trkpt>
      <trkpt lat="47.64884" lon="-2.92355">
        <ele>8.2</ele>
        <time>2021-08-04T13:25:02Z</time>
      </trkpt>
      <trkpt lat="47.64885" lon="-2.9235">
        <ele>8.2</ele>
        <time>2021-08-04T13:25:03Z</time>
      </trkpt>
      <trkpt lat="47.64886" lon="-2.92346">
        <ele>8.2</ele>
        <time>2021-08-04T13:25:04Z</time>
      </trkpt>
      <trkpt lat="47.64886" lon="-2.92341">
        <ele>8.2</ele>
        <time>2021-08-04T13:25:05Z</time>
      </trkpt>
      <trkpt lat="47.64887" lon="-2.92336">
        <ele>8.4</ele>
        <time>2021-08-04T13:25:06Z</time>
      </trkpt>
      <trkpt lat="47.64888" lon="-2.92332">
        <ele>8.2</ele>
        <time>2021-08-04T13:25:07Z</time>
      </trkpt>
      <trkpt lat="47.64889" lon="-2.92327">
        <ele>8.2</ele>
        <time>2021-08-04T13:25:08Z</time>
      </trkpt>
      <trkpt lat="47.6489" lon="-2.92322">
        <ele>8.2</ele>
        <time>2021-08-04T13:25:09Z</time>
      </trkpt>
      <trkpt lat="47.6489" lon="-2.92318">
        <ele>8.2</ele>
        <time>2021-08-04T13:25:10Z</time>
      </trkpt>
      <trkpt lat="47.6489" lon="-2.92315">
        <ele>8.2</ele>
        <time>2021-08-04T13:25:11Z</time>
      </trkpt>
      <trkpt lat="47.6489" lon="-2.92311">
        <ele>8.2</ele>
        <time>2021-08-04T13:25:12Z</time>
      </trkpt>
      <trkpt lat="47.64889" lon="-2.92308">
        <ele>8.2</ele>
        <time>2021-08-04T13:25:13Z</time>
      </trkpt>
      <trkpt lat="47.64889" lon="-2.92305">
        <ele>8.2</ele>
        <time>2021-08-04T13:25:14Z</time>
      </trkpt>
      <trkpt lat="47.64888" lon="-2.92301">
        <ele>8.4</ele>
        <time>2021-08-04T13:25:15Z</time>
      </trkpt>
      <trkpt lat="47.64888" lon="-2.92298">
        <ele>8.6</ele>
        <time>2021-08-04T13:25:16Z</time>
      </trkpt>
      <trkpt lat="47.64887" lon="-2.92295">
        <ele>8.6</ele>
        <time>2021-08-04T13:25:17Z</time>
      </trkpt>
      <trkpt lat="47.64887" lon="-2.92292">
        <ele>8.8</ele>
        <time>2021-08-04T13:25:18Z</time>
      </trkpt>
      <trkpt lat="47.64886" lon="-2.92289">
        <ele>8.8</ele>
        <time>2021-08-04T13:25:19Z</time>
      </trkpt>
      <trkpt lat="47.64886" lon="-2.92285">
        <ele>8.8</ele>
        <time>2021-08-04T13:25:20Z</time>
      </trkpt>
      <trkpt lat="47.64886" lon="-2.9228">
        <ele>8.8</ele>
        <time>2021-08-04T13:25:21Z</time>
      </trkpt>
      <trkpt lat="47.64885" lon="-2.92275">
        <ele>8.8</ele>
        <time>2021-08-04T13:25:22Z</time>
      </trkpt>
      <trkpt lat="47.64884" lon="-2.9227">
        <ele>8.8</ele>
        <time>2021-08-04T13:25:23Z</time>
      </trkpt>
      <trkpt lat="47.64884" lon="-2.92265">
        <ele>8.8</ele>
        <time>2021-08-04T13:25:24Z</time>
      </trkpt>
      <trkpt lat="47.64884" lon="-2.92261">
        <ele>8.8</ele>
        <time>2021-08-04T13:25:25Z</time>
      </trkpt>
      <trkpt lat="47.64883" lon="-2.92256">
        <ele>8.8</ele>
        <time>2021-08-04T13:25:26Z</time>
      </trkpt>
      <trkpt lat="47.64882" lon="-2.92251">
        <ele>8.8</ele>
        <time>2021-08-04T13:25:27Z</time>
      </trkpt>
      <trkpt lat="47.64881" lon="-2.92245">
        <ele>8.8</ele>
        <time>2021-08-04T13:25:28Z</time>
      </trkpt>
      <trkpt lat="47.64881" lon="-2.9224">
        <ele>8.8</ele>
        <time>2021-08-04T13:25:29Z</time>
      </trkpt>
      <trkpt lat="47.6488" lon="-2.92236">
        <ele>8.8</ele>
        <time>2021-08-04T13:25:30Z</time>
      </trkpt>
      <trkpt lat="47.64879" lon="-2.92231">
        <ele>8.8</ele>
        <time>2021-08-04T13:25:31Z</time>
      </trkpt>
      <trkpt lat="47.64879" lon="-2.92226">
        <ele>8.8</ele>
        <time>2021-08-04T13:25:32Z</time>
      </trkpt>
      <trkpt lat="47.64878" lon="-2.92221">
        <ele>9</ele>
        <time>2021-08-04T13:25:33Z</time>
      </trkpt>
      <trkpt lat="47.64877" lon="-2.92216">
        <ele>9</ele>
        <time>2021-08-04T13:25:34Z</time>
      </trkpt>
      <trkpt lat="47.64876" lon="-2.9221">
        <ele>9</ele>
        <time>2021-08-04T13:25:35Z</time>
      </trkpt>
      <trkpt lat="47.64876" lon="-2.92205">
        <ele>9</ele>
        <time>2021-08-04T13:25:36Z</time>
      </trkpt>
      <trkpt lat="47.64875" lon="-2.922">
        <ele>9</ele>
        <time>2021-08-04T13:25:37Z</time>
      </trkpt>
      <trkpt lat="47.64874" lon="-2.92195">
        <ele>9</ele>
        <time>2021-08-04T13:25:38Z</time>
      </trkpt>
      <trkpt lat="47.64873" lon="-2.9219">
        <ele>9</ele>
        <time>2021-08-04T13:25:39Z</time>
      </trkpt>
      <trkpt lat="47.64872" lon="-2.92186">
        <ele>9</ele>
        <time>2021-08-04T13:25:40Z</time>
      </trkpt>
      <trkpt lat="47.6487" lon="-2.92181">
        <ele>9.2</ele>
        <time>2021-08-04T13:25:41Z</time>
      </trkpt>
      <trkpt lat="47.64868" lon="-2.92177">
        <ele>9.2</ele>
        <time>2021-08-04T13:25:42Z</time>
      </trkpt>
      <trkpt lat="47.64866" lon="-2.92175">
        <ele>9.2</ele>
        <time>2021-08-04T13:25:43Z</time>
      </trkpt>
      <trkpt lat="47.64864" lon="-2.92171">
        <ele>9.2</ele>
        <time>2021-08-04T13:25:44Z</time>
      </trkpt>
      <trkpt lat="47.64862" lon="-2.92168">
        <ele>9.2</ele>
        <time>2021-08-04T13:25:45Z</time>
      </trkpt>
      <trkpt lat="47.6486" lon="-2.92166">
        <ele>9.4</ele>
        <time>2021-08-04T13:25:46Z</time>
      </trkpt>
      <trkpt lat="47.64857" lon="-2.92164">
        <ele>9.6</ele>
        <time>2021-08-04T13:25:47Z</time>
      </trkpt>
      <trkpt lat="47.64855" lon="-2.92162">
        <ele>9.8</ele>
        <time>2021-08-04T13:25:48Z</time>
      </trkpt>
      <trkpt lat="47.64852" lon="-2.9216">
        <ele>9.8</ele>
        <time>2021-08-04T13:25:49Z</time>
      </trkpt>
      <trkpt lat="47.64849" lon="-2.9216">
        <ele>9.8</ele>
        <time>2021-08-04T13:25:50Z</time>
      </trkpt>
      <trkpt lat="47.64846" lon="-2.9216">
        <ele>10</ele>
        <time>2021-08-04T13:25:51Z</time>
      </trkpt>
      <trkpt lat="47.64844" lon="-2.92161">
        <ele>10</ele>
        <time>2021-08-04T13:25:52Z</time>
      </trkpt>
      <trkpt lat="47.64841" lon="-2.92162">
        <ele>10</ele>
        <time>2021-08-04T13:25:53Z</time>
      </trkpt>
      <trkpt lat="47.64837" lon="-2.92162">
        <ele>10</ele>
        <time>2021-08-04T13:25:54Z</time>
      </trkpt>
      <trkpt lat="47.64833" lon="-2.92164">
        <ele>10</ele>
        <time>2021-08-04T13:25:55Z</time>
      </trkpt>
      <trkpt lat="47.6483" lon="-2.92165">
        <ele>10</ele>
        <time>2021-08-04T13:25:56Z</time>
      </trkpt>
      <trkpt lat="47.64826" lon="-2.92167">
        <ele>10</ele>
        <time>2021-08-04T13:25:57Z</time>
      </trkpt>
      <trkpt lat="47.64822" lon="-2.92168">
        <ele>10</ele>
        <time>2021-08-04T13:25:58Z</time>
      </trkpt>
      <trkpt lat="47.64818" lon="-2.92169">
        <ele>10</ele>
        <time>2021-08-04T13:25:59Z</time>
      </trkpt>
      <trkpt lat="47.64814" lon="-2.92171">
        <ele>10</ele>
        <time>2021-08-04T13:26:00Z</time>
      </trkpt>
      <trkpt lat="47.6481" lon="-2.92174">
        <ele>10</ele>
        <time>2021-08-04T13:26:01Z</time>
      </trkpt>
      <trkpt lat="47.64806" lon="-2.92177">
        <ele>10</ele>
        <time>2021-08-04T13:26:02Z</time>
      </trkpt>
      <trkpt lat="47.64803" lon="-2.92181">
        <ele>10</ele>
        <time>2021-08-04T13:26:03Z</time>
      </trkpt>
      <trkpt lat="47.64798" lon="-2.92184">
        <ele>10</ele>
        <time>2021-08-04T13:26:04Z</time>
      </trkpt>
      <trkpt lat="47.64794" lon="-2.92186">
        <ele>9.8</ele>
        <time>2021-08-04T13:26:05Z</time>
      </trkpt>
      <trkpt lat="47.64791" lon="-2.92188">
        <ele>9.8</ele>
        <time>2021-08-04T13:26:06Z</time>
      </trkpt>
      <trkpt lat="47.64787" lon="-2.9219">
        <ele>9.8</ele>
        <time>2021-08-04T13:26:07Z</time>
      </trkpt>
      <trkpt lat="47.64783" lon="-2.92192">
        <ele>9.8</ele>
        <time>2021-08-04T13:26:08Z</time>
      </trkpt>
      <trkpt lat="47.64779" lon="-2.92191">
        <ele>9.8</ele>
        <time>2021-08-04T13:26:09Z</time>
      </trkpt>
      <trkpt lat="47.64777" lon="-2.92188">
        <ele>9.6</ele>
        <time>2021-08-04T13:26:10Z</time>
      </trkpt>
      <trkpt lat="47.64776" lon="-2.92184">
        <ele>9.4</ele>
        <time>2021-08-04T13:26:11Z</time>
      </trkpt>
      <trkpt lat="47.64778" lon="-2.9218">
        <ele>9.2</ele>
        <time>2021-08-04T13:26:12Z</time>
      </trkpt>
      <trkpt lat="47.64779" lon="-2.92177">
        <ele>9</ele>
        <time>2021-08-04T13:26:13Z</time>
      </trkpt>
      <trkpt lat="47.64781" lon="-2.92173">
        <ele>9</ele>
        <time>2021-08-04T13:26:14Z</time>
      </trkpt>
      <trkpt lat="47.64781" lon="-2.92168">
        <ele>9</ele>
        <time>2021-08-04T13:26:15Z</time>
      </trkpt>
      <trkpt lat="47.6478" lon="-2.92163">
        <ele>9</ele>
        <time>2021-08-04T13:26:16Z</time>
      </trkpt>
      <trkpt lat="47.64779" lon="-2.92158">
        <ele>8.8</ele>
        <time>2021-08-04T13:26:17Z</time>
      </trkpt>
      <trkpt lat="47.64778" lon="-2.92152">
        <ele>8.8</ele>
        <time>2021-08-04T13:26:18Z</time>
      </trkpt>
      <trkpt lat="47.64777" lon="-2.92146">
        <ele>8.8</ele>
        <time>2021-08-04T13:26:19Z</time>
      </trkpt>
      <trkpt lat="47.64776" lon="-2.9214">
        <ele>8.8</ele>
        <time>2021-08-04T13:26:20Z</time>
      </trkpt>
      <trkpt lat="47.64775" lon="-2.92134">
        <ele>8.8</ele>
        <time>2021-08-04T13:26:21Z</time>
      </trkpt>
      <trkpt lat="47.64774" lon="-2.92127">
        <ele>8.8</ele>
        <time>2021-08-04T13:26:22Z</time>
      </trkpt>
      <trkpt lat="47.64772" lon="-2.92121">
        <ele>8.6</ele>
        <time>2021-08-04T13:26:23Z</time>
      </trkpt>
      <trkpt lat="47.64771" lon="-2.92114">
        <ele>8.6</ele>
        <time>2021-08-04T13:26:24Z</time>
      </trkpt>
      <trkpt lat="47.6477" lon="-2.92107">
        <ele>8.6</ele>
        <time>2021-08-04T13:26:25Z</time>
      </trkpt>
      <trkpt lat="47.64769" lon="-2.921">
        <ele>8.6</ele>
        <time>2021-08-04T13:26:26Z</time>
      </trkpt>
      <trkpt lat="47.64768" lon="-2.92093">
        <ele>8.4</ele>
        <time>2021-08-04T13:26:27Z</time>
      </trkpt>
      <trkpt lat="47.64767" lon="-2.92086">
        <ele>8.4</ele>
        <time>2021-08-04T13:26:28Z</time>
      </trkpt>
      <trkpt lat="47.64765" lon="-2.92079">
        <ele>8.4</ele>
        <time>2021-08-04T13:26:29Z</time>
      </trkpt>
      <trkpt lat="47.64764" lon="-2.92072">
        <ele>8.4</ele>
        <time>2021-08-04T13:26:30Z</time>
      </trkpt>
      <trkpt lat="47.64763" lon="-2.92066">
        <ele>8.2</ele>
        <time>2021-08-04T13:26:31Z</time>
      </trkpt>
      <trkpt lat="47.64762" lon="-2.92059">
        <ele>8.2</ele>
        <time>2021-08-04T13:26:32Z</time>
      </trkpt>
      <trkpt lat="47.64761" lon="-2.92052">
        <ele>8.2</ele>
        <time>2021-08-04T13:26:33Z</time>
      </trkpt>
      <trkpt lat="47.6476" lon="-2.92045">
        <ele>8.2</ele>
        <time>2021-08-04T13:26:34Z</time>
      </trkpt>
      <trkpt lat="47.64759" lon="-2.92039">
        <ele>8</ele>
        <time>2021-08-04T13:26:35Z</time>
      </trkpt>
      <trkpt lat="47.64757" lon="-2.92032">
        <ele>8</ele>
        <time>2021-08-04T13:26:36Z</time>
      </trkpt>
      <trkpt lat="47.64756" lon="-2.92025">
        <ele>7.8</ele>
        <time>2021-08-04T13:26:37Z</time>
      </trkpt>
      <trkpt lat="47.64755" lon="-2.92019">
        <ele>7.8</ele>
        <time>2021-08-04T13:26:38Z</time>
      </trkpt>
      <trkpt lat="47.64754" lon="-2.92012">
        <ele>7.8</ele>
        <time>2021-08-04T13:26:39Z</time>
      </trkpt>
      <trkpt lat="47.64753" lon="-2.92006">
        <ele>7.6</ele>
        <time>2021-08-04T13:26:40Z</time>
      </trkpt>
      <trkpt lat="47.64751" lon="-2.91999">
        <ele>7.6</ele>
        <time>2021-08-04T13:26:41Z</time>
      </trkpt>
      <trkpt lat="47.6475" lon="-2.91992">
        <ele>7.6</ele>
        <time>2021-08-04T13:26:42Z</time>
      </trkpt>
      <trkpt lat="47.64749" lon="-2.91985">
        <ele>7.4</ele>
        <time>2021-08-04T13:26:43Z</time>
      </trkpt>
      <trkpt lat="47.64748" lon="-2.91978">
        <ele>7.4</ele>
        <time>2021-08-04T13:26:44Z</time>
      </trkpt>
      <trkpt lat="47.64747" lon="-2.91971">
        <ele>7.2</ele>
        <time>2021-08-04T13:26:45Z</time>
      </trkpt>
      <trkpt lat="47.64746" lon="-2.91964">
        <ele>7.2</ele>
        <time>2021-08-04T13:26:46Z</time>
      </trkpt>
      <trkpt lat="47.64745" lon="-2.91957">
        <ele>7</ele>
        <time>2021-08-04T13:26:47Z</time>
      </trkpt>
      <trkpt lat="47.64745" lon="-2.9195">
        <ele>7</ele>
        <time>2021-08-04T13:26:48Z</time>
      </trkpt>
      <trkpt lat="47.64745" lon="-2.91942">
        <ele>6.8</ele>
        <time>2021-08-04T13:26:49Z</time>
      </trkpt>
      <trkpt lat="47.64747" lon="-2.91935">
        <ele>6.8</ele>
        <time>2021-08-04T13:26:50Z</time>
      </trkpt>
      <trkpt lat="47.64749" lon="-2.91929">
        <ele>6.8</ele>
        <time>2021-08-04T13:26:51Z</time>
      </trkpt>
      <trkpt lat="47.64752" lon="-2.91924">
        <ele>6.4</ele>
        <time>2021-08-04T13:26:52Z</time>
      </trkpt>
      <trkpt lat="47.64756" lon="-2.91919">
        <ele>6.2</ele>
        <time>2021-08-04T13:26:53Z</time>
      </trkpt>
      <trkpt lat="47.6476" lon="-2.91916">
        <ele>5.8</ele>
        <time>2021-08-04T13:26:54Z</time>
      </trkpt>
      <trkpt lat="47.64764" lon="-2.91912">
        <ele>5.6</ele>
        <time>2021-08-04T13:26:55Z</time>
      </trkpt>
      <trkpt lat="47.64768" lon="-2.91909">
        <ele>5.4</ele>
        <time>2021-08-04T13:26:56Z</time>
      </trkpt>
      <trkpt lat="47.64773" lon="-2.91906">
        <ele>5.2</ele>
        <time>2021-08-04T13:26:57Z</time>
      </trkpt>
      <trkpt lat="47.64777" lon="-2.91903">
        <ele>5.2</ele>
        <time>2021-08-04T13:26:58Z</time>
      </trkpt>
      <trkpt lat="47.64781" lon="-2.91901">
        <ele>5</ele>
        <time>2021-08-04T13:26:59Z</time>
      </trkpt>
      <trkpt lat="47.64786" lon="-2.91898">
        <ele>5.2</ele>
        <time>2021-08-04T13:27:00Z</time>
      </trkpt>
      <trkpt lat="47.6479" lon="-2.91895">
        <ele>5.2</ele>
        <time>2021-08-04T13:27:01Z</time>
      </trkpt>
      <trkpt lat="47.64793" lon="-2.9189">
        <ele>5.2</ele>
        <time>2021-08-04T13:27:02Z</time>
      </trkpt>
      <trkpt lat="47.64794" lon="-2.91884">
        <ele>5.2</ele>
        <time>2021-08-04T13:27:03Z</time>
      </trkpt>
      <trkpt lat="47.64794" lon="-2.91877">
        <ele>5.2</ele>
        <time>2021-08-04T13:27:04Z</time>
      </trkpt>
      <trkpt lat="47.64792" lon="-2.91871">
        <ele>5.2</ele>
        <time>2021-08-04T13:27:05Z</time>
      </trkpt>
      <trkpt lat="47.64791" lon="-2.91864">
        <ele>5.2</ele>
        <time>2021-08-04T13:27:06Z</time>
      </trkpt>
      <trkpt lat="47.6479" lon="-2.91856">
        <ele>5.2</ele>
        <time>2021-08-04T13:27:07Z</time>
      </trkpt>
      <trkpt lat="47.64788" lon="-2.91848">
        <ele>5.2</ele>
        <time>2021-08-04T13:27:08Z</time>
      </trkpt>
      <trkpt lat="47.64787" lon="-2.9184">
        <ele>5.2</ele>
        <time>2021-08-04T13:27:09Z</time>
      </trkpt>
      <trkpt lat="47.64786" lon="-2.91831">
        <ele>5.2</ele>
        <time>2021-08-04T13:27:10Z</time>
      </trkpt>
      <trkpt lat="47.64784" lon="-2.91823">
        <ele>5.2</ele>
        <time>2021-08-04T13:27:11Z</time>
      </trkpt>
      <trkpt lat="47.64782" lon="-2.91814">
        <ele>5</ele>
        <time>2021-08-04T13:27:12Z</time>
      </trkpt>
      <trkpt lat="47.6478" lon="-2.91806">
        <ele>5</ele>
        <time>2021-08-04T13:27:13Z</time>
      </trkpt>
      <trkpt lat="47.64778" lon="-2.91798">
        <ele>4.8</ele>
        <time>2021-08-04T13:27:14Z</time>
      </trkpt>
      <trkpt lat="47.64777" lon="-2.9179">
        <ele>4.6</ele>
        <time>2021-08-04T13:27:15Z</time>
      </trkpt>
      <trkpt lat="47.64776" lon="-2.91782">
        <ele>4.2</ele>
        <time>2021-08-04T13:27:16Z</time>
      </trkpt>
      <trkpt lat="47.64775" lon="-2.91773">
        <ele>4</ele>
        <time>2021-08-04T13:27:17Z</time>
      </trkpt>
      <trkpt lat="47.64774" lon="-2.91764">
        <ele>3.8</ele>
        <time>2021-08-04T13:27:18Z</time>
      </trkpt>
      <trkpt lat="47.64773" lon="-2.91755">
        <ele>3.4</ele>
        <time>2021-08-04T13:27:19Z</time>
      </trkpt>
      <trkpt lat="47.64772" lon="-2.91746">
        <ele>3.2</ele>
        <time>2021-08-04T13:27:20Z</time>
      </trkpt>
      <trkpt lat="47.64771" lon="-2.91736">
        <ele>2.8</ele>
        <time>2021-08-04T13:27:21Z</time>
      </trkpt>
      <trkpt lat="47.64769" lon="-2.91727">
        <ele>2.6</ele>
        <time>2021-08-04T13:27:22Z</time>
      </trkpt>
      <trkpt lat="47.64768" lon="-2.91718">
        <ele>2.4</ele>
        <time>2021-08-04T13:27:23Z</time>
      </trkpt>
      <trkpt lat="47.64766" lon="-2.91709">
        <ele>2.4</ele>
        <time>2021-08-04T13:27:24Z</time>
      </trkpt>
      <trkpt lat="47.64765" lon="-2.917">
        <ele>2</ele>
        <time>2021-08-04T13:27:25Z</time>
      </trkpt>
      <trkpt lat="47.64765" lon="-2.91691">
        <ele>1.8</ele>
        <time>2021-08-04T13:27:26Z</time>
      </trkpt>
      <trkpt lat="47.64767" lon="-2.91684">
        <ele>1.4</ele>
        <time>2021-08-04T13:27:27Z</time>
      </trkpt>
      <trkpt lat="47.64771" lon="-2.91679">
        <ele>1.2</ele>
        <time>2021-08-04T13:27:28Z</time>
      </trkpt>
      <trkpt lat="47.64775" lon="-2.91676">
        <ele>0.8</ele>
        <time>2021-08-04T13:27:29Z</time>
      </trkpt>
      <trkpt lat="47.6478" lon="-2.91674">
        <ele>0.2</ele>
        <time>2021-08-04T13:27:30Z</time>
      </trkpt>
      <trkpt lat="47.64784" lon="-2.91672">
        <ele>-0.2</ele>
        <time>2021-08-04T13:27:31Z</time>
      </trkpt>
      <trkpt lat="47.64789" lon="-2.9167">
        <ele>-0.4</ele>
        <time>2021-08-04T13:27:32Z</time>
      </trkpt>
      <trkpt lat="47.64793" lon="-2.91669">
        <ele>-0.6</ele>
        <time>2021-08-04T13:27:33Z</time>
      </trkpt>
      <trkpt lat="47.64798" lon="-2.91668">
        <ele>-0.8</ele>
        <time>2021-08-04T13:27:34Z</time>
      </trkpt>
      <trkpt lat="47.64802" lon="-2.91666">
        <ele>-0.8</ele>
        <time>2021-08-04T13:27:35Z</time>
      </trkpt>
      <trkpt lat="47.64807" lon="-2.91665">
        <ele>-1.4</ele>
        <time>2021-08-04T13:27:36Z</time>
      </trkpt>
      <trkpt lat="47.64811" lon="-2.91664">
        <ele>-1.6</ele>
        <time>2021-08-04T13:27:37Z</time>
      </trkpt>
      <trkpt lat="47.64815" lon="-2.91663">
        <ele>-1.8</ele>
        <time>2021-08-04T13:27:38Z</time>
      </trkpt>
      <trkpt lat="47.64819" lon="-2.91661">
        <ele>-2</ele>
        <time>2021-08-04T13:27:39Z</time>
      </trkpt>
      <trkpt lat="47.64823" lon="-2.9166">
        <ele>-2</ele>
        <time>2021-08-04T13:27:40Z</time>
      </trkpt>
      <trkpt lat="47.64827" lon="-2.91659">
        <ele>-2</ele>
        <time>2021-08-04T13:27:41Z</time>
      </trkpt>
      <trkpt lat="47.64831" lon="-2.91657">
        <ele>-2</ele>
        <time>2021-08-04T13:27:42Z</time>
      </trkpt>
      <trkpt lat="47.64835" lon="-2.91655">
        <ele>-2</ele>
        <time>2021-08-04T13:27:43Z</time>
      </trkpt>
      <trkpt lat="47.64838" lon="-2.91652">
        <ele>-2</ele>
        <time>2021-08-04T13:27:44Z</time>
      </trkpt>
      <trkpt lat="47.6484" lon="-2.91647">
        <ele>-1.8</ele>
        <time>2021-08-04T13:27:45Z</time>
      </trkpt>
      <trkpt lat="47.64841" lon="-2.91642">
        <ele>-1.8</ele>
        <time>2021-08-04T13:27:46Z</time>
      </trkpt>
      <trkpt lat="47.64843" lon="-2.91637">
        <ele>-1.6</ele>
        <time>2021-08-04T13:27:47Z</time>
      </trkpt>
      <trkpt lat="47.64844" lon="-2.91634">
        <ele>-1.6</ele>
        <time>2021-08-04T13:27:48Z</time>
      </trkpt>
      <trkpt lat="47.64846" lon="-2.9163">
        <ele>-1.4</ele>
        <time>2021-08-04T13:27:49Z</time>
      </trkpt>
      <trkpt lat="47.64849" lon="-2.91628">
        <ele>-1.4</ele>
        <time>2021-08-04T13:27:50Z</time>
      </trkpt>
      <trkpt lat="47.64852" lon="-2.91627">
        <ele>-1.2</ele>
        <time>2021-08-04T13:27:51Z</time>
      </trkpt>
      <trkpt lat="47.64854" lon="-2.91626">
        <ele>-1</ele>
        <time>2021-08-04T13:27:52Z</time>
      </trkpt>
      <trkpt lat="47.64857" lon="-2.91625">
        <ele>-0.8</ele>
        <time>2021-08-04T13:27:53Z</time>
      </trkpt>
      <trkpt lat="47.6486" lon="-2.91625">
        <ele>-0.8</ele>
        <time>2021-08-04T13:27:54Z</time>
      </trkpt>
      <trkpt lat="47.64863" lon="-2.91625">
        <ele>-0.6</ele>
        <time>2021-08-04T13:27:55Z</time>
      </trkpt>
      <trkpt lat="47.64866" lon="-2.91625">
        <ele>-0.2</ele>
        <time>2021-08-04T13:27:56Z</time>
      </trkpt>
      <trkpt lat="47.64869" lon="-2.91625">
        <ele>-0.2</ele>
        <time>2021-08-04T13:27:57Z</time>
      </trkpt>
      <trkpt lat="47.64872" lon="-2.91626">
        <ele>0.2</ele>
        <time>2021-08-04T13:27:58Z</time>
      </trkpt>
      <trkpt lat="47.64875" lon="-2.91627">
        <ele>0.4</ele>
        <time>2021-08-04T13:27:59Z</time>
      </trkpt>
      <trkpt lat="47.64878" lon="-2.91627">
        <ele>0.6</ele>
        <time>2021-08-04T13:28:00Z</time>
      </trkpt>
      <trkpt lat="47.64881" lon="-2.91627">
        <ele>0.8</ele>
        <time>2021-08-04T13:28:01Z</time>
      </trkpt>
      <trkpt lat="47.64884" lon="-2.91628">
        <ele>0.8</ele>
        <time>2021-08-04T13:28:02Z</time>
      </trkpt>
      <trkpt lat="47.64887" lon="-2.91629">
        <ele>1</ele>
        <time>2021-08-04T13:28:03Z</time>
      </trkpt>
      <trkpt lat="47.64889" lon="-2.91631">
        <ele>1</ele>
        <time>2021-08-04T13:28:04Z</time>
      </trkpt>
      <trkpt lat="47.64892" lon="-2.91632">
        <ele>1</ele>
        <time>2021-08-04T13:28:05Z</time>
      </trkpt>
      <trkpt lat="47.64894" lon="-2.91633">
        <ele>1.2</ele>
        <time>2021-08-04T13:28:06Z</time>
      </trkpt>
      <trkpt lat="47.64897" lon="-2.91634">
        <ele>1.2</ele>
        <time>2021-08-04T13:28:07Z</time>
      </trkpt>
      <trkpt lat="47.64899" lon="-2.91635">
        <ele>1.4</ele>
        <time>2021-08-04T13:28:08Z</time>
      </trkpt>
      <trkpt lat="47.64902" lon="-2.91635">
        <ele>1.6</ele>
        <time>2021-08-04T13:28:09Z</time>
      </trkpt>
      <trkpt lat="47.64904" lon="-2.91634">
        <ele>1.8</ele>
        <time>2021-08-04T13:28:10Z</time>
      </trkpt>
      <trkpt lat="47.64905" lon="-2.91631">
        <ele>1.8</ele>
        <time>2021-08-04T13:28:11Z</time>
      </trkpt>
      <trkpt lat="47.64906" lon="-2.91628">
        <ele>2</ele>
        <time>2021-08-04T13:28:12Z</time>
      </trkpt>
      <trkpt lat="47.64907" lon="-2.91625">
        <ele>2</ele>
        <time>2021-08-04T13:28:13Z</time>
      </trkpt>
      <trkpt lat="47.64908" lon="-2.91622">
        <ele>2.2</ele>
        <time>2021-08-04T13:28:14Z</time>
      </trkpt>
      <trkpt lat="47.64909" lon="-2.91618">
        <ele>2.2</ele>
        <time>2021-08-04T13:28:15Z</time>
      </trkpt>
      <trkpt lat="47.6491" lon="-2.91615">
        <ele>2.2</ele>
        <time>2021-08-04T13:28:16Z</time>
      </trkpt>
      <trkpt lat="47.6491" lon="-2.91612">
        <ele>2.2</ele>
        <time>2021-08-04T13:28:17Z</time>
      </trkpt>
      <trkpt lat="47.64911" lon="-2.91609">
        <ele>2.4</ele>
        <time>2021-08-04T13:28:18Z</time>
      </trkpt>
      <trkpt lat="47.64912" lon="-2.91605">
        <ele>2.4</ele>
        <time>2021-08-04T13:28:19Z</time>
      </trkpt>
      <trkpt lat="47.64913" lon="-2.91602">
        <ele>2.6</ele>
        <time>2021-08-04T13:28:20Z</time>
      </trkpt>
      <trkpt lat="47.64914" lon="-2.91598">
        <ele>2.8</ele>
        <time>2021-08-04T13:28:21Z</time>
      </trkpt>
      <trkpt lat="47.64915" lon="-2.91594">
        <ele>3</ele>
        <time>2021-08-04T13:28:22Z</time>
      </trkpt>
      <trkpt lat="47.64916" lon="-2.9159">
        <ele>3.2</ele>
        <time>2021-08-04T13:28:23Z</time>
      </trkpt>
      <trkpt lat="47.64917" lon="-2.91587">
        <ele>3.2</ele>
        <time>2021-08-04T13:28:24Z</time>
      </trkpt>
      <trkpt lat="47.64918" lon="-2.91583">
        <ele>3.2</ele>
        <time>2021-08-04T13:28:25Z</time>
      </trkpt>
      <trkpt lat="47.64919" lon="-2.91579">
        <ele>3.2</ele>
        <time>2021-08-04T13:28:26Z</time>
      </trkpt>
      <trkpt lat="47.6492" lon="-2.91575">
        <ele>3.2</ele>
        <time>2021-08-04T13:28:27Z</time>
      </trkpt>
      <trkpt lat="47.64921" lon="-2.91571">
        <ele>3.2</ele>
        <time>2021-08-04T13:28:28Z</time>
      </trkpt>
      <trkpt lat="47.64922" lon="-2.91567">
        <ele>3.4</ele>
        <time>2021-08-04T13:28:29Z</time>
      </trkpt>
      <trkpt lat="47.64924" lon="-2.91563">
        <ele>3.6</ele>
        <time>2021-08-04T13:28:30Z</time>
      </trkpt>
      <trkpt lat="47.64925" lon="-2.91559">
        <ele>3.6</ele>
        <time>2021-08-04T13:28:31Z</time>
      </trkpt>
      <trkpt lat="47.64928" lon="-2.91554">
        <ele>3.6</ele>
        <time>2021-08-04T13:28:32Z</time>
      </trkpt>
      <trkpt lat="47.6493" lon="-2.9155">
        <ele>3.8</ele>
        <time>2021-08-04T13:28:33Z</time>
      </trkpt>
      <trkpt lat="47.64932" lon="-2.91546">
        <ele>3.8</ele>
        <time>2021-08-04T13:28:34Z</time>
      </trkpt>
      <trkpt lat="47.64935" lon="-2.91541">
        <ele>3.8</ele>
        <time>2021-08-04T13:28:35Z</time>
      </trkpt>
      <trkpt lat="47.64938" lon="-2.91536">
        <ele>3.8</ele>
        <time>2021-08-04T13:28:36Z</time>
      </trkpt>
      <trkpt lat="47.64941" lon="-2.91531">
        <ele>3.8</ele>
        <time>2021-08-04T13:28:37Z</time>
      </trkpt>
      <trkpt lat="47.64944" lon="-2.91526">
        <ele>3.8</ele>
        <time>2021-08-04T13:28:38Z</time>
      </trkpt>
      <trkpt lat="47.64948" lon="-2.91522">
        <ele>3.8</ele>
        <time>2021-08-04T13:28:39Z</time>
      </trkpt>
      <trkpt lat="47.64951" lon="-2.91517">
        <ele>3.8</ele>
        <time>2021-08-04T13:28:40Z</time>
      </trkpt>
      <trkpt lat="47.64955" lon="-2.91513">
        <ele>3.8</ele>
        <time>2021-08-04T13:28:41Z</time>
      </trkpt>
      <trkpt lat="47.64958" lon="-2.91508">
        <ele>3.8</ele>
        <time>2021-08-04T13:28:42Z</time>
      </trkpt>
      <trkpt lat="47.64961" lon="-2.91504">
        <ele>3.8</ele>
        <time>2021-08-04T13:28:43Z</time>
      </trkpt>
      <trkpt lat="47.64965" lon="-2.91499">
        <ele>3.8</ele>
        <time>2021-08-04T13:28:44Z</time>
      </trkpt>
      <trkpt lat="47.64968" lon="-2.91494">
        <ele>3.2</ele>
        <time>2021-08-04T13:28:45Z</time>
      </trkpt>
      <trkpt lat="47.64972" lon="-2.91489">
        <ele>3</ele>
        <time>2021-08-04T13:28:46Z</time>
      </trkpt>
      <trkpt lat="47.64975" lon="-2.91483">
        <ele>2.6</ele>
        <time>2021-08-04T13:28:47Z</time>
      </trkpt>
      <trkpt lat="47.64979" lon="-2.91478">
        <ele>2.6</ele>
        <time>2021-08-04T13:28:48Z</time>
      </trkpt>
      <trkpt lat="47.64983" lon="-2.91473">
        <ele>2.2</ele>
        <time>2021-08-04T13:28:49Z</time>
      </trkpt>
      <trkpt lat="47.64986" lon="-2.91468">
        <ele>2</ele>
        <time>2021-08-04T13:28:50Z</time>
      </trkpt>
      <trkpt lat="47.6499" lon="-2.91463">
        <ele>2</ele>
        <time>2021-08-04T13:28:51Z</time>
      </trkpt>
      <trkpt lat="47.64994" lon="-2.91458">
        <ele>1.8</ele>
        <time>2021-08-04T13:28:52Z</time>
      </trkpt>
      <trkpt lat="47.64996" lon="-2.91453">
        <ele>1.8</ele>
        <time>2021-08-04T13:28:53Z</time>
      </trkpt>
      <trkpt lat="47.64998" lon="-2.91447">
        <ele>1.6</ele>
        <time>2021-08-04T13:28:54Z</time>
      </trkpt>
      <trkpt lat="47.64999" lon="-2.91441">
        <ele>1.4</ele>
        <time>2021-08-04T13:28:55Z</time>
      </trkpt>
      <trkpt lat="47.64997" lon="-2.91434">
        <ele>1.4</ele>
        <time>2021-08-04T13:28:56Z</time>
      </trkpt>
      <trkpt lat="47.64994" lon="-2.91429">
        <ele>1.2</ele>
        <time>2021-08-04T13:28:57Z</time>
      </trkpt>
      <trkpt lat="47.6499" lon="-2.91425">
        <ele>0.8</ele>
        <time>2021-08-04T13:28:58Z</time>
      </trkpt>
      <trkpt lat="47.64986" lon="-2.9142">
        <ele>0.4</ele>
        <time>2021-08-04T13:28:59Z</time>
      </trkpt>
      <trkpt lat="47.64982" lon="-2.91414">
        <ele>0.4</ele>
        <time>2021-08-04T13:29:00Z</time>
      </trkpt>
      <trkpt lat="47.64978" lon="-2.91408">
        <ele>0.4</ele>
        <time>2021-08-04T13:29:01Z</time>
      </trkpt>
      <trkpt lat="47.64975" lon="-2.91402">
        <ele>-0.2</ele>
        <time>2021-08-04T13:29:02Z</time>
      </trkpt>
      <trkpt lat="47.64971" lon="-2.91396">
        <ele>-0.2</ele>
        <time>2021-08-04T13:29:03Z</time>
      </trkpt>
      <trkpt lat="47.64966" lon="-2.9139">
        <ele>-0.2</ele>
        <time>2021-08-04T13:29:04Z</time>
      </trkpt>
      <trkpt lat="47.64962" lon="-2.91384">
        <ele>-0.4</ele>
        <time>2021-08-04T13:29:05Z</time>
      </trkpt>
      <trkpt lat="47.64957" lon="-2.91378">
        <ele>-0.6</ele>
        <time>2021-08-04T13:29:06Z</time>
      </trkpt>
      <trkpt lat="47.64952" lon="-2.91373">
        <ele>-0.6</ele>
        <time>2021-08-04T13:29:07Z</time>
      </trkpt>
      <trkpt lat="47.64947" lon="-2.91367">
        <ele>-0.8</ele>
        <time>2021-08-04T13:29:08Z</time>
      </trkpt>
      <trkpt lat="47.64943" lon="-2.91361">
        <ele>-1</ele>
        <time>2021-08-04T13:29:09Z</time>
      </trkpt>
      <trkpt lat="47.64938" lon="-2.91355">
        <ele>-1.4</ele>
        <time>2021-08-04T13:29:10Z</time>
      </trkpt>
      <trkpt lat="47.64933" lon="-2.91349">
        <ele>-1.6</ele>
        <time>2021-08-04T13:29:11Z</time>
      </trkpt>
      <trkpt lat="47.64928" lon="-2.91344">
        <ele>-1.8</ele>
        <time>2021-08-04T13:29:12Z</time>
      </trkpt>
      <trkpt lat="47.64922" lon="-2.91339">
        <ele>-2</ele>
        <time>2021-08-04T13:29:13Z</time>
      </trkpt>
      <trkpt lat="47.64917" lon="-2.91333">
        <ele>-2.2</ele>
        <time>2021-08-04T13:29:14Z</time>
      </trkpt>
      <trkpt lat="47.64912" lon="-2.91327">
        <ele>-2.2</ele>
        <time>2021-08-04T13:29:15Z</time>
      </trkpt>
      <trkpt lat="47.64907" lon="-2.91322">
        <ele>-2.4</ele>
        <time>2021-08-04T13:29:16Z</time>
      </trkpt>
      <trkpt lat="47.64902" lon="-2.91316">
        <ele>-2.6</ele>
        <time>2021-08-04T13:29:17Z</time>
      </trkpt>
      <trkpt lat="47.64897" lon="-2.91311">
        <ele>-3</ele>
        <time>2021-08-04T13:29:18Z</time>
      </trkpt>
      <trkpt lat="47.64892" lon="-2.91306">
        <ele>-3.2</ele>
        <time>2021-08-04T13:29:19Z</time>
      </trkpt>
      <trkpt lat="47.64888" lon="-2.91301">
        <ele>-3.4</ele>
        <time>2021-08-04T13:29:20Z</time>
      </trkpt>
      <trkpt lat="47.64883" lon="-2.91296">
        <ele>-3.4</ele>
        <time>2021-08-04T13:29:21Z</time>
      </trkpt>
      <trkpt lat="47.64879" lon="-2.9129">
        <ele>-3.4</ele>
        <time>2021-08-04T13:29:22Z</time>
      </trkpt>
      <trkpt lat="47.64874" lon="-2.91285">
        <ele>-3.4</ele>
        <time>2021-08-04T13:29:23Z</time>
      </trkpt>
      <trkpt lat="47.6487" lon="-2.9128">
        <ele>-3.4</ele>
        <time>2021-08-04T13:29:24Z</time>
      </trkpt>
      <trkpt lat="47.64866" lon="-2.91275">
        <ele>-3.6</ele>
        <time>2021-08-04T13:29:25Z</time>
      </trkpt>
      <trkpt lat="47.64862" lon="-2.9127">
        <ele>-3.6</ele>
        <time>2021-08-04T13:29:26Z</time>
      </trkpt>
      <trkpt lat="47.64858" lon="-2.91266">
        <ele>-3.6</ele>
        <time>2021-08-04T13:29:27Z</time>
      </trkpt>
      <trkpt lat="47.64854" lon="-2.91262">
        <ele>-3.6</ele>
        <time>2021-08-04T13:29:28Z</time>
      </trkpt>
      <trkpt lat="47.6485" lon="-2.91258">
        <ele>-3.4</ele>
        <time>2021-08-04T13:29:29Z</time>
      </trkpt>
      <trkpt lat="47.64846" lon="-2.91255">
        <ele>-3.4</ele>
        <time>2021-08-04T13:29:30Z</time>
      </trkpt>
      <trkpt lat="47.64842" lon="-2.91251">
        <ele>-3.4</ele>
        <time>2021-08-04T13:29:31Z</time>
      </trkpt>
      <trkpt lat="47.64838" lon="-2.91248">
        <ele>-3.2</ele>
        <time>2021-08-04T13:29:32Z</time>
      </trkpt>
      <trkpt lat="47.64835" lon="-2.91246">
        <ele>-2.8</ele>
        <time>2021-08-04T13:29:33Z</time>
      </trkpt>
      <trkpt lat="47.64831" lon="-2.91244">
        <ele>-2.6</ele>
        <time>2021-08-04T13:29:34Z</time>
      </trkpt>
      <trkpt lat="47.64828" lon="-2.91242">
        <ele>-2.4</ele>
        <time>2021-08-04T13:29:35Z</time>
      </trkpt>
      <trkpt lat="47.64825" lon="-2.9124">
        <ele>-2.2</ele>
        <time>2021-08-04T13:29:36Z</time>
      </trkpt>
      <trkpt lat="47.64822" lon="-2.91238">
        <ele>-1.8</ele>
        <time>2021-08-04T13:29:37Z</time>
      </trkpt>
      <trkpt lat="47.6482" lon="-2.91236">
        <ele>-1.6</ele>
        <time>2021-08-04T13:29:38Z</time>
      </trkpt>
      <trkpt lat="47.64817" lon="-2.91235">
        <ele>-1.4</ele>
        <time>2021-08-04T13:29:39Z</time>
      </trkpt>
      <trkpt lat="47.64815" lon="-2.91233">
        <ele>-1.2</ele>
        <time>2021-08-04T13:29:40Z</time>
      </trkpt>
      <trkpt lat="47.64813" lon="-2.91232">
        <ele>-1</ele>
        <time>2021-08-04T13:29:41Z</time>
      </trkpt>
      <trkpt lat="47.64811" lon="-2.91232">
        <ele>-0.8</ele>
        <time>2021-08-04T13:29:42Z</time>
      </trkpt>
      <trkpt lat="47.64808" lon="-2.91231">
        <ele>-0.6</ele>
        <time>2021-08-04T13:29:43Z</time>
      </trkpt>
      <trkpt lat="47.64805" lon="-2.91229">
        <ele>-0.2</ele>
        <time>2021-08-04T13:29:44Z</time>
      </trkpt>
      <trkpt lat="47.64802" lon="-2.91227">
        <ele>-0.2</ele>
        <time>2021-08-04T13:29:45Z</time>
      </trkpt>
      <trkpt lat="47.64799" lon="-2.91225">
        <ele>0.2</ele>
        <time>2021-08-04T13:29:46Z</time>
      </trkpt>
      <trkpt lat="47.64797" lon="-2.91224">
        <ele>0.6</ele>
        <time>2021-08-04T13:29:47Z</time>
      </trkpt>
      <trkpt lat="47.64795" lon="-2.91222">
        <ele>0.8</ele>
        <time>2021-08-04T13:29:48Z</time>
      </trkpt>
      <trkpt lat="47.64793" lon="-2.91221">
        <ele>1</ele>
        <time>2021-08-04T13:29:49Z</time>
      </trkpt>
      <trkpt lat="47.6479" lon="-2.9122">
        <ele>1.2</ele>
        <time>2021-08-04T13:29:50Z</time>
      </trkpt>
      <trkpt lat="47.64788" lon="-2.91218">
        <ele>1.4</ele>
        <time>2021-08-04T13:29:51Z</time>
      </trkpt>
      <trkpt lat="47.64786" lon="-2.91217">
        <ele>1.4</ele>
        <time>2021-08-04T13:29:52Z</time>
      </trkpt>
      <trkpt lat="47.64784" lon="-2.91216">
        <ele>1.6</ele>
        <time>2021-08-04T13:29:53Z</time>
      </trkpt>
      <trkpt lat="47.64782" lon="-2.91215">
        <ele>1.6</ele>
        <time>2021-08-04T13:29:54Z</time>
      </trkpt>
      <trkpt lat="47.6478" lon="-2.91214">
        <ele>1.8</ele>
        <time>2021-08-04T13:29:55Z</time>
      </trkpt>
      <trkpt lat="47.64778" lon="-2.91212">
        <ele>2</ele>
        <time>2021-08-04T13:29:56Z</time>
      </trkpt>
      <trkpt lat="47.64776" lon="-2.91211">
        <ele>2</ele>
        <time>2021-08-04T13:29:57Z</time>
      </trkpt>
      <trkpt lat="47.64775" lon="-2.9121">
        <ele>2.2</ele>
        <time>2021-08-04T13:29:58Z</time>
      </trkpt>
      <trkpt lat="47.64773" lon="-2.91208">
        <ele>2.2</ele>
        <time>2021-08-04T13:29:59Z</time>
      </trkpt>
      <trkpt lat="47.64771" lon="-2.91207">
        <ele>2.2</ele>
        <time>2021-08-04T13:30:00Z</time>
      </trkpt>
      <trkpt lat="47.6477" lon="-2.91206">
        <ele>2.6</ele>
        <time>2021-08-04T13:30:01Z</time>
      </trkpt>
      <trkpt lat="47.64768" lon="-2.91204">
        <ele>2.6</ele>
        <time>2021-08-04T13:30:02Z</time>
      </trkpt>
      <trkpt lat="47.64767" lon="-2.91203">
        <ele>2.8</ele>
        <time>2021-08-04T13:30:03Z</time>
      </trkpt>
      <trkpt lat="47.64765" lon="-2.91202">
        <ele>3</ele>
        <time>2021-08-04T13:30:04Z</time>
      </trkpt>
      <trkpt lat="47.64763" lon="-2.912">
        <ele>3</ele>
        <time>2021-08-04T13:30:05Z</time>
      </trkpt>
      <trkpt lat="47.64762" lon="-2.91199">
        <ele>3.2</ele>
        <time>2021-08-04T13:30:06Z</time>
      </trkpt>
      <trkpt lat="47.6476" lon="-2.91198">
        <ele>3.2</ele>
        <time>2021-08-04T13:30:07Z</time>
      </trkpt>
      <trkpt lat="47.64759" lon="-2.91197">
        <ele>3.2</ele>
        <time>2021-08-04T13:30:08Z</time>
      </trkpt>
      <trkpt lat="47.64758" lon="-2.91195">
        <ele>3.4</ele>
        <time>2021-08-04T13:30:09Z</time>
      </trkpt>
      <trkpt lat="47.64756" lon="-2.91194">
        <ele>3.4</ele>
        <time>2021-08-04T13:30:10Z</time>
      </trkpt>
      <trkpt lat="47.64755" lon="-2.91193">
        <ele>3.6</ele>
        <time>2021-08-04T13:30:11Z</time>
      </trkpt>
      <trkpt lat="47.64754" lon="-2.91192">
        <ele>3.6</ele>
        <time>2021-08-04T13:30:12Z</time>
      </trkpt>
      <trkpt lat="47.64753" lon="-2.91191">
        <ele>3.6</ele>
        <time>2021-08-04T13:30:13Z</time>
      </trkpt>
      <trkpt lat="47.64751" lon="-2.91189">
        <ele>3.8</ele>
        <time>2021-08-04T13:30:14Z</time>
      </trkpt>
      <trkpt lat="47.6475" lon="-2.91187">
        <ele>3.8</ele>
        <time>2021-08-04T13:30:15Z</time>
      </trkpt>
      <trkpt lat="47.64749" lon="-2.91186">
        <ele>3.8</ele>
        <time>2021-08-04T13:30:16Z</time>
      </trkpt>
      <trkpt lat="47.64747" lon="-2.91185">
        <ele>3.8</ele>
        <time>2021-08-04T13:30:17Z</time>
      </trkpt>
      <trkpt lat="47.64746" lon="-2.91183">
        <ele>4</ele>
        <time>2021-08-04T13:30:18Z</time>
      </trkpt>
      <trkpt lat="47.64744" lon="-2.91182">
        <ele>4</ele>
        <time>2021-08-04T13:30:19Z</time>
      </trkpt>
      <trkpt lat="47.64743" lon="-2.9118">
        <ele>4</ele>
        <time>2021-08-04T13:30:20Z</time>
      </trkpt>
      <trkpt lat="47.64742" lon="-2.91178">
        <ele>4</ele>
        <time>2021-08-04T13:30:21Z</time>
      </trkpt>
      <trkpt lat="47.6474" lon="-2.91177">
        <ele>4</ele>
        <time>2021-08-04T13:30:22Z</time>
      </trkpt>
      <trkpt lat="47.64738" lon="-2.91175">
        <ele>4</ele>
        <time>2021-08-04T13:30:23Z</time>
      </trkpt>
      <trkpt lat="47.64736" lon="-2.91173">
        <ele>4</ele>
        <time>2021-08-04T13:30:24Z</time>
      </trkpt>
      <trkpt lat="47.64735" lon="-2.91171">
        <ele>4.2</ele>
        <time>2021-08-04T13:30:25Z</time>
      </trkpt>
      <trkpt lat="47.64733" lon="-2.9117">
        <ele>4.2</ele>
        <time>2021-08-04T13:30:26Z</time>
      </trkpt>
      <trkpt lat="47.64731" lon="-2.91168">
        <ele>4.2</ele>
        <time>2021-08-04T13:30:27Z</time>
      </trkpt>
      <trkpt lat="47.6473" lon="-2.91166">
        <ele>4.2</ele>
        <time>2021-08-04T13:30:28Z</time>
      </trkpt>
      <trkpt lat="47.64728" lon="-2.91163">
        <ele>4.2</ele>
        <time>2021-08-04T13:30:29Z</time>
      </trkpt>
      <trkpt lat="47.64727" lon="-2.91161">
        <ele>4.4</ele>
        <time>2021-08-04T13:30:30Z</time>
      </trkpt>
      <trkpt lat="47.64725" lon="-2.91159">
        <ele>4.4</ele>
        <time>2021-08-04T13:30:31Z</time>
      </trkpt>
      <trkpt lat="47.64724" lon="-2.91157">
        <ele>4.4</ele>
        <time>2021-08-04T13:30:32Z</time>
      </trkpt>
      <trkpt lat="47.64722" lon="-2.91155">
        <ele>4.6</ele>
        <time>2021-08-04T13:30:33Z</time>
      </trkpt>
      <trkpt lat="47.64721" lon="-2.91153">
        <ele>4.6</ele>
        <time>2021-08-04T13:30:34Z</time>
      </trkpt>
      <trkpt lat="47.64719" lon="-2.9115">
        <ele>4.8</ele>
        <time>2021-08-04T13:30:35Z</time>
      </trkpt>
      <trkpt lat="47.64717" lon="-2.91148">
        <ele>4.8</ele>
        <time>2021-08-04T13:30:36Z</time>
      </trkpt>
      <trkpt lat="47.64716" lon="-2.91146">
        <ele>5</ele>
        <time>2021-08-04T13:30:37Z</time>
      </trkpt>
      <trkpt lat="47.64714" lon="-2.91143">
        <ele>5</ele>
        <time>2021-08-04T13:30:38Z</time>
      </trkpt>
      <trkpt lat="47.64712" lon="-2.91141">
        <ele>5.2</ele>
        <time>2021-08-04T13:30:39Z</time>
      </trkpt>
      <trkpt lat="47.64711" lon="-2.91139">
        <ele>5.4</ele>
        <time>2021-08-04T13:30:40Z</time>
      </trkpt>
      <trkpt lat="47.64709" lon="-2.91136">
        <ele>5.4</ele>
        <time>2021-08-04T13:30:41Z</time>
      </trkpt>
      <trkpt lat="47.64708" lon="-2.91133">
        <ele>5.4</ele>
        <time>2021-08-04T13:30:42Z</time>
      </trkpt>
      <trkpt lat="47.64707" lon="-2.91131">
        <ele>5.4</ele>
        <time>2021-08-04T13:30:43Z</time>
      </trkpt>
      <trkpt lat="47.64705" lon="-2.91129">
        <ele>5.4</ele>
        <time>2021-08-04T13:30:44Z</time>
      </trkpt>
      <trkpt lat="47.64703" lon="-2.91127">
        <ele>5.4</ele>
        <time>2021-08-04T13:30:45Z</time>
      </trkpt>
      <trkpt lat="47.64702" lon="-2.91125">
        <ele>5.4</ele>
        <time>2021-08-04T13:30:46Z</time>
      </trkpt>
      <trkpt lat="47.647" lon="-2.91123">
        <ele>5.4</ele>
        <time>2021-08-04T13:30:47Z</time>
      </trkpt>
      <trkpt lat="47.64698" lon="-2.91121">
        <ele>5.4</ele>
        <time>2021-08-04T13:30:48Z</time>
      </trkpt>
      <trkpt lat="47.64696" lon="-2.91118">
        <ele>5.4</ele>
        <time>2021-08-04T13:30:49Z</time>
      </trkpt>
      <trkpt lat="47.64694" lon="-2.91114">
        <ele>5.4</ele>
        <time>2021-08-04T13:30:50Z</time>
      </trkpt>
      <trkpt lat="47.64692" lon="-2.91111">
        <ele>5.4</ele>
        <time>2021-08-04T13:30:51Z</time>
      </trkpt>
      <trkpt lat="47.64689" lon="-2.91108">
        <ele>5.4</ele>
        <time>2021-08-04T13:30:52Z</time>
      </trkpt>
      <trkpt lat="47.64687" lon="-2.91105">
        <ele>5.4</ele>
        <time>2021-08-04T13:30:53Z</time>
      </trkpt>
      <trkpt lat="47.64685" lon="-2.91101">
        <ele>5.4</ele>
        <time>2021-08-04T13:30:54Z</time>
      </trkpt>
      <trkpt lat="47.64683" lon="-2.91097">
        <ele>5.4</ele>
        <time>2021-08-04T13:30:55Z</time>
      </trkpt>
      <trkpt lat="47.64681" lon="-2.91093">
        <ele>5.4</ele>
        <time>2021-08-04T13:30:56Z</time>
      </trkpt>
      <trkpt lat="47.64679" lon="-2.9109">
        <ele>5.4</ele>
        <time>2021-08-04T13:30:57Z</time>
      </trkpt>
      <trkpt lat="47.64677" lon="-2.91087">
        <ele>5.4</ele>
        <time>2021-08-04T13:30:58Z</time>
      </trkpt>
      <trkpt lat="47.64674" lon="-2.91084">
        <ele>5.4</ele>
        <time>2021-08-04T13:30:59Z</time>
      </trkpt>
      <trkpt lat="47.64672" lon="-2.9108">
        <ele>5.4</ele>
        <time>2021-08-04T13:31:00Z</time>
      </trkpt>
      <trkpt lat="47.6467" lon="-2.91076">
        <ele>5.4</ele>
        <time>2021-08-04T13:31:01Z</time>
      </trkpt>
      <trkpt lat="47.64667" lon="-2.91072">
        <ele>5.4</ele>
        <time>2021-08-04T13:31:02Z</time>
      </trkpt>
      <trkpt lat="47.64664" lon="-2.91068">
        <ele>5.4</ele>
        <time>2021-08-04T13:31:03Z</time>
      </trkpt>
      <trkpt lat="47.64661" lon="-2.91063">
        <ele>5.4</ele>
        <time>2021-08-04T13:31:04Z</time>
      </trkpt>
      <trkpt lat="47.64658" lon="-2.91059">
        <ele>5.4</ele>
        <time>2021-08-04T13:31:05Z</time>
      </trkpt>
      <trkpt lat="47.64655" lon="-2.91054">
        <ele>5.4</ele>
        <time>2021-08-04T13:31:06Z</time>
      </trkpt>
      <trkpt lat="47.64652" lon="-2.91049">
        <ele>5.4</ele>
        <time>2021-08-04T13:31:07Z</time>
      </trkpt>
      <trkpt lat="47.64649" lon="-2.91045">
        <ele>5.4</ele>
        <time>2021-08-04T13:31:08Z</time>
      </trkpt>
      <trkpt lat="47.64646" lon="-2.91041">
        <ele>5.4</ele>
        <time>2021-08-04T13:31:09Z</time>
      </trkpt>
      <trkpt lat="47.64642" lon="-2.91036">
        <ele>5.4</ele>
        <time>2021-08-04T13:31:10Z</time>
      </trkpt>
      <trkpt lat="47.64639" lon="-2.91031">
        <ele>5.4</ele>
        <time>2021-08-04T13:31:11Z</time>
      </trkpt>
      <trkpt lat="47.64637" lon="-2.91026">
        <ele>5.2</ele>
        <time>2021-08-04T13:31:12Z</time>
      </trkpt>
      <trkpt lat="47.64634" lon="-2.91021">
        <ele>5.2</ele>
        <time>2021-08-04T13:31:13Z</time>
      </trkpt>
      <trkpt lat="47.64631" lon="-2.91016">
        <ele>5.2</ele>
        <time>2021-08-04T13:31:14Z</time>
      </trkpt>
      <trkpt lat="47.64628" lon="-2.91011">
        <ele>5.2</ele>
        <time>2021-08-04T13:31:15Z</time>
      </trkpt>
      <trkpt lat="47.64625" lon="-2.91006">
        <ele>5.2</ele>
        <time>2021-08-04T13:31:16Z</time>
      </trkpt>
      <trkpt lat="47.64622" lon="-2.91001">
        <ele>5.2</ele>
        <time>2021-08-04T13:31:17Z</time>
      </trkpt>
      <trkpt lat="47.64619" lon="-2.90997">
        <ele>5.2</ele>
        <time>2021-08-04T13:31:18Z</time>
      </trkpt>
      <trkpt lat="47.64616" lon="-2.90992">
        <ele>5.2</ele>
        <time>2021-08-04T13:31:19Z</time>
      </trkpt>
      <trkpt lat="47.64613" lon="-2.90987">
        <ele>5</ele>
        <time>2021-08-04T13:31:20Z</time>
      </trkpt>
      <trkpt lat="47.6461" lon="-2.90983">
        <ele>5</ele>
        <time>2021-08-04T13:31:21Z</time>
      </trkpt>
      <trkpt lat="47.64607" lon="-2.90978">
        <ele>5</ele>
        <time>2021-08-04T13:31:22Z</time>
      </trkpt>
      <trkpt lat="47.64604" lon="-2.90974">
        <ele>5</ele>
        <time>2021-08-04T13:31:23Z</time>
      </trkpt>
      <trkpt lat="47.64601" lon="-2.90969">
        <ele>5</ele>
        <time>2021-08-04T13:31:24Z</time>
      </trkpt>
      <trkpt lat="47.64598" lon="-2.90965">
        <ele>5</ele>
        <time>2021-08-04T13:31:25Z</time>
      </trkpt>
      <trkpt lat="47.64595" lon="-2.90961">
        <ele>5.2</ele>
        <time>2021-08-04T13:31:26Z</time>
      </trkpt>
      <trkpt lat="47.64593" lon="-2.90957">
        <ele>5.2</ele>
        <time>2021-08-04T13:31:27Z</time>
      </trkpt>
      <trkpt lat="47.6459" lon="-2.90952">
        <ele>5.2</ele>
        <time>2021-08-04T13:31:28Z</time>
      </trkpt>
      <trkpt lat="47.64587" lon="-2.90948">
        <ele>5.4</ele>
        <time>2021-08-04T13:31:29Z</time>
      </trkpt>
      <trkpt lat="47.64584" lon="-2.90944">
        <ele>5.4</ele>
        <time>2021-08-04T13:31:30Z</time>
      </trkpt>
      <trkpt lat="47.64582" lon="-2.9094">
        <ele>5.6</ele>
        <time>2021-08-04T13:31:31Z</time>
      </trkpt>
      <trkpt lat="47.64579" lon="-2.90935">
        <ele>5.8</ele>
        <time>2021-08-04T13:31:32Z</time>
      </trkpt>
      <trkpt lat="47.64576" lon="-2.90931">
        <ele>5.8</ele>
        <time>2021-08-04T13:31:33Z</time>
      </trkpt>
      <trkpt lat="47.64574" lon="-2.90927">
        <ele>6</ele>
        <time>2021-08-04T13:31:34Z</time>
      </trkpt>
      <trkpt lat="47.64571" lon="-2.90923">
        <ele>6</ele>
        <time>2021-08-04T13:31:35Z</time>
      </trkpt>
      <trkpt lat="47.64568" lon="-2.90919">
        <ele>6</ele>
        <time>2021-08-04T13:31:36Z</time>
      </trkpt>
      <trkpt lat="47.64566" lon="-2.90915">
        <ele>6</ele>
        <time>2021-08-04T13:31:37Z</time>
      </trkpt>
      <trkpt lat="47.64563" lon="-2.90911">
        <ele>6.2</ele>
        <time>2021-08-04T13:31:38Z</time>
      </trkpt>
      <trkpt lat="47.6456" lon="-2.90907">
        <ele>6.2</ele>
        <time>2021-08-04T13:31:39Z</time>
      </trkpt>
      <trkpt lat="47.64558" lon="-2.90903">
        <ele>6.2</ele>
        <time>2021-08-04T13:31:40Z</time>
      </trkpt>
      <trkpt lat="47.64555" lon="-2.909">
        <ele>6.2</ele>
        <time>2021-08-04T13:31:41Z</time>
      </trkpt>
      <trkpt lat="47.64552" lon="-2.90897">
        <ele>6.2</ele>
        <time>2021-08-04T13:31:42Z</time>
      </trkpt>
      <trkpt lat="47.64549" lon="-2.90893">
        <ele>6.2</ele>
        <time>2021-08-04T13:31:43Z</time>
      </trkpt>
      <trkpt lat="47.64547" lon="-2.9089">
        <ele>6.2</ele>
        <time>2021-08-04T13:31:44Z</time>
      </trkpt>
      <trkpt lat="47.64545" lon="-2.90886">
        <ele>6.2</ele>
        <time>2021-08-04T13:31:45Z</time>
      </trkpt>
      <trkpt lat="47.64542" lon="-2.90883">
        <ele>6.4</ele>
        <time>2021-08-04T13:31:46Z</time>
      </trkpt>
      <trkpt lat="47.6454" lon="-2.9088">
        <ele>6.4</ele>
        <time>2021-08-04T13:31:47Z</time>
      </trkpt>
      <trkpt lat="47.64537" lon="-2.90878">
        <ele>6.4</ele>
        <time>2021-08-04T13:31:48Z</time>
      </trkpt>
      <trkpt lat="47.64535" lon="-2.90875">
        <ele>6.6</ele>
        <time>2021-08-04T13:31:49Z</time>
      </trkpt>
      <trkpt lat="47.64532" lon="-2.90874">
        <ele>6.6</ele>
        <time>2021-08-04T13:31:50Z</time>
      </trkpt>
      <trkpt lat="47.64529" lon="-2.90872">
        <ele>6.8</ele>
        <time>2021-08-04T13:31:51Z</time>
      </trkpt>
      <trkpt lat="47.64526" lon="-2.90871">
        <ele>7</ele>
        <time>2021-08-04T13:31:52Z</time>
      </trkpt>
      <trkpt lat="47.64524" lon="-2.9087">
        <ele>7.2</ele>
        <time>2021-08-04T13:31:53Z</time>
      </trkpt>
      <trkpt lat="47.64521" lon="-2.90869">
        <ele>7.4</ele>
        <time>2021-08-04T13:31:54Z</time>
      </trkpt>
      <trkpt lat="47.64519" lon="-2.90869">
        <ele>7.4</ele>
        <time>2021-08-04T13:31:55Z</time>
      </trkpt>
      <trkpt lat="47.64516" lon="-2.90869">
        <ele>7.6</ele>
        <time>2021-08-04T13:31:56Z</time>
      </trkpt>
      <trkpt lat="47.64514" lon="-2.90868">
        <ele>7.6</ele>
        <time>2021-08-04T13:31:57Z</time>
      </trkpt>
      <trkpt lat="47.64511" lon="-2.90868">
        <ele>7.6</ele>
        <time>2021-08-04T13:31:58Z</time>
      </trkpt>
      <trkpt lat="47.64509" lon="-2.90868">
        <ele>7.6</ele>
        <time>2021-08-04T13:31:59Z</time>
      </trkpt>
      <trkpt lat="47.64507" lon="-2.90869">
        <ele>7.8</ele>
        <time>2021-08-04T13:32:00Z</time>
      </trkpt>
      <trkpt lat="47.64505" lon="-2.9087">
        <ele>7.8</ele>
        <time>2021-08-04T13:32:01Z</time>
      </trkpt>
      <trkpt lat="47.64503" lon="-2.9087">
        <ele>8</ele>
        <time>2021-08-04T13:32:02Z</time>
      </trkpt>
      <trkpt lat="47.64502" lon="-2.90871">
        <ele>8.2</ele>
        <time>2021-08-04T13:32:03Z</time>
      </trkpt>
      <trkpt lat="47.64499" lon="-2.90872">
        <ele>8.2</ele>
        <time>2021-08-04T13:32:04Z</time>
      </trkpt>
      <trkpt lat="47.64497" lon="-2.90872">
        <ele>8.4</ele>
        <time>2021-08-04T13:32:05Z</time>
      </trkpt>
      <trkpt lat="47.64496" lon="-2.90873">
        <ele>8.4</ele>
        <time>2021-08-04T13:32:06Z</time>
      </trkpt>
      <trkpt lat="47.64494" lon="-2.90874">
        <ele>8.6</ele>
        <time>2021-08-04T13:32:07Z</time>
      </trkpt>
      <trkpt lat="47.64493" lon="-2.90875">
        <ele>8.6</ele>
        <time>2021-08-04T13:32:08Z</time>
      </trkpt>
      <trkpt lat="47.64491" lon="-2.90876">
        <ele>8.8</ele>
        <time>2021-08-04T13:32:09Z</time>
      </trkpt>
      <trkpt lat="47.6449" lon="-2.90877">
        <ele>8.8</ele>
        <time>2021-08-04T13:32:10Z</time>
      </trkpt>
      <trkpt lat="47.64488" lon="-2.90879">
        <ele>8.8</ele>
        <time>2021-08-04T13:32:11Z</time>
      </trkpt>
      <trkpt lat="47.64486" lon="-2.9088">
        <ele>9</ele>
        <time>2021-08-04T13:32:12Z</time>
      </trkpt>
      <trkpt lat="47.64484" lon="-2.90881">
        <ele>9.2</ele>
        <time>2021-08-04T13:32:13Z</time>
      </trkpt>
      <trkpt lat="47.64482" lon="-2.90883">
        <ele>9.2</ele>
        <time>2021-08-04T13:32:14Z</time>
      </trkpt>
      <trkpt lat="47.6448" lon="-2.90884">
        <ele>9.4</ele>
        <time>2021-08-04T13:32:15Z</time>
      </trkpt>
      <trkpt lat="47.64478" lon="-2.90886">
        <ele>9.4</ele>
        <time>2021-08-04T13:32:16Z</time>
      </trkpt>
      <trkpt lat="47.64477" lon="-2.90886">
        <ele>9.4</ele>
        <time>2021-08-04T13:32:17Z</time>
      </trkpt>
      <trkpt lat="47.64475" lon="-2.90887">
        <ele>9.6</ele>
        <time>2021-08-04T13:32:18Z</time>
      </trkpt>
      <trkpt lat="47.64474" lon="-2.90889">
        <ele>9.6</ele>
        <time>2021-08-04T13:32:19Z</time>
      </trkpt>
      <trkpt lat="47.64473" lon="-2.90889">
        <ele>9.6</ele>
        <time>2021-08-04T13:32:20Z</time>
      </trkpt>
      <trkpt lat="47.64472" lon="-2.9089">
        <ele>9.6</ele>
        <time>2021-08-04T13:32:21Z</time>
      </trkpt>
      <trkpt lat="47.64471" lon="-2.90891">
        <ele>9.8</ele>
        <time>2021-08-04T13:32:22Z</time>
      </trkpt>
      <trkpt lat="47.64471" lon="-2.90892">
        <ele>9.8</ele>
        <time>2021-08-04T13:32:23Z</time>
      </trkpt>
      <trkpt lat="47.64469" lon="-2.90893">
        <ele>10</ele>
        <time>2021-08-04T13:32:24Z</time>
      </trkpt>
      <trkpt lat="47.64468" lon="-2.90894">
        <ele>10</ele>
        <time>2021-08-04T13:32:25Z</time>
      </trkpt>
      <trkpt lat="47.64467" lon="-2.90895">
        <ele>10.2</ele>
        <time>2021-08-04T13:32:26Z</time>
      </trkpt>
      <trkpt lat="47.64466" lon="-2.90895">
        <ele>10.2</ele>
        <time>2021-08-04T13:32:27Z</time>
      </trkpt>
      <trkpt lat="47.64465" lon="-2.90896">
        <ele>10.4</ele>
        <time>2021-08-04T13:32:28Z</time>
      </trkpt>
      <trkpt lat="47.64464" lon="-2.90896">
        <ele>10.4</ele>
        <time>2021-08-04T13:32:29Z</time>
      </trkpt>
      <trkpt lat="47.64463" lon="-2.90897">
        <ele>10.8</ele>
        <time>2021-08-04T13:32:30Z</time>
      </trkpt>
      <trkpt lat="47.64462" lon="-2.90897">
        <ele>10.8</ele>
        <time>2021-08-04T13:32:31Z</time>
      </trkpt>
      <trkpt lat="47.64461" lon="-2.90897">
        <ele>11.2</ele>
        <time>2021-08-04T13:32:32Z</time>
      </trkpt>
      <trkpt lat="47.64461" lon="-2.90896">
        <ele>11.2</ele>
        <time>2021-08-04T13:32:33Z</time>
      </trkpt>
      <trkpt lat="47.64462" lon="-2.90896">
        <ele>11.4</ele>
        <time>2021-08-04T13:32:34Z</time>
      </trkpt>
      <trkpt lat="47.64463" lon="-2.90896">
        <ele>11.4</ele>
        <time>2021-08-04T13:32:35Z</time>
      </trkpt>
      <trkpt lat="47.64464" lon="-2.90896">
        <ele>11.6</ele>
        <time>2021-08-04T13:32:36Z</time>
      </trkpt>
      <trkpt lat="47.64464" lon="-2.90896">
        <ele>11.6</ele>
        <time>2021-08-04T13:32:37Z</time>
      </trkpt>
      <trkpt lat="47.64463" lon="-2.90897">
        <ele>11.6</ele>
        <time>2021-08-04T13:32:39Z</time>
      </trkpt>
      <trkpt lat="47.64463" lon="-2.90898">
        <ele>11.6</ele>
        <time>2021-08-04T13:32:40Z</time>
      </trkpt>
      <trkpt lat="47.64462" lon="-2.90898">
        <ele>11.6</ele>
        <time>2021-08-04T13:32:41Z</time>
      </trkpt>
      <trkpt lat="47.64461" lon="-2.90898">
        <ele>11.8</ele>
        <time>2021-08-04T13:32:42Z</time>
      </trkpt>
      <trkpt lat="47.6446" lon="-2.90899">
        <ele>11.8</ele>
        <time>2021-08-04T13:32:43Z</time>
      </trkpt>
      <trkpt lat="47.64459" lon="-2.90899">
        <ele>11.8</ele>
        <time>2021-08-04T13:32:44Z</time>
      </trkpt>
      <trkpt lat="47.64457" lon="-2.909">
        <ele>11.8</ele>
        <time>2021-08-04T13:32:45Z</time>
      </trkpt>
      <trkpt lat="47.64456" lon="-2.90901">
        <ele>11.8</ele>
        <time>2021-08-04T13:32:46Z</time>
      </trkpt>
      <trkpt lat="47.64455" lon="-2.90902">
        <ele>11.8</ele>
        <time>2021-08-04T13:32:47Z</time>
      </trkpt>
      <trkpt lat="47.64453" lon="-2.90903">
        <ele>11.8</ele>
        <time>2021-08-04T13:32:48Z</time>
      </trkpt>
      <trkpt lat="47.64452" lon="-2.90904">
        <ele>12</ele>
        <time>2021-08-04T13:32:49Z</time>
      </trkpt>
      <trkpt lat="47.6445" lon="-2.90906">
        <ele>12</ele>
        <time>2021-08-04T13:32:50Z</time>
      </trkpt>
      <trkpt lat="47.64448" lon="-2.90907">
        <ele>12</ele>
        <time>2021-08-04T13:32:51Z</time>
      </trkpt>
      <trkpt lat="47.64446" lon="-2.90908">
        <ele>12</ele>
        <time>2021-08-04T13:32:52Z</time>
      </trkpt>
      <trkpt lat="47.64444" lon="-2.90909">
        <ele>12</ele>
        <time>2021-08-04T13:32:53Z</time>
      </trkpt>
      <trkpt lat="47.64442" lon="-2.90909">
        <ele>12.2</ele>
        <time>2021-08-04T13:32:54Z</time>
      </trkpt>
      <trkpt lat="47.64439" lon="-2.90911">
        <ele>12.2</ele>
        <time>2021-08-04T13:32:55Z</time>
      </trkpt>
      <trkpt lat="47.64437" lon="-2.90912">
        <ele>12.2</ele>
        <time>2021-08-04T13:32:56Z</time>
      </trkpt>
      <trkpt lat="47.64436" lon="-2.90913">
        <ele>12.4</ele>
        <time>2021-08-04T13:32:57Z</time>
      </trkpt>
      <trkpt lat="47.64434" lon="-2.90913">
        <ele>12.4</ele>
        <time>2021-08-04T13:32:58Z</time>
      </trkpt>
      <trkpt lat="47.64432" lon="-2.90915">
        <ele>12.4</ele>
        <time>2021-08-04T13:32:59Z</time>
      </trkpt>
      <trkpt lat="47.6443" lon="-2.90916">
        <ele>12.6</ele>
        <time>2021-08-04T13:33:00Z</time>
      </trkpt>
      <trkpt lat="47.64429" lon="-2.90917">
        <ele>12.6</ele>
        <time>2021-08-04T13:33:01Z</time>
      </trkpt>
      <trkpt lat="47.64427" lon="-2.90918">
        <ele>12.8</ele>
        <time>2021-08-04T13:33:02Z</time>
      </trkpt>
      <trkpt lat="47.64426" lon="-2.90919">
        <ele>13</ele>
        <time>2021-08-04T13:33:03Z</time>
      </trkpt>
      <trkpt lat="47.64424" lon="-2.9092">
        <ele>13</ele>
        <time>2021-08-04T13:33:04Z</time>
      </trkpt>
      <trkpt lat="47.64423" lon="-2.90921">
        <ele>13.2</ele>
        <time>2021-08-04T13:33:05Z</time>
      </trkpt>
      <trkpt lat="47.64421" lon="-2.90921">
        <ele>13.2</ele>
        <time>2021-08-04T13:33:06Z</time>
      </trkpt>
      <trkpt lat="47.6442" lon="-2.90923">
        <ele>13.2</ele>
        <time>2021-08-04T13:33:07Z</time>
      </trkpt>
      <trkpt lat="47.64419" lon="-2.90924">
        <ele>13.2</ele>
        <time>2021-08-04T13:33:08Z</time>
      </trkpt>
      <trkpt lat="47.64417" lon="-2.90924">
        <ele>13.2</ele>
        <time>2021-08-04T13:33:09Z</time>
      </trkpt>
      <trkpt lat="47.64416" lon="-2.90925">
        <ele>13.4</ele>
        <time>2021-08-04T13:33:10Z</time>
      </trkpt>
      <trkpt lat="47.64415" lon="-2.90926">
        <ele>13.6</ele>
        <time>2021-08-04T13:33:11Z</time>
      </trkpt>
      <trkpt lat="47.64413" lon="-2.90926">
        <ele>13.6</ele>
        <time>2021-08-04T13:33:12Z</time>
      </trkpt>
      <trkpt lat="47.64412" lon="-2.90927">
        <ele>13.8</ele>
        <time>2021-08-04T13:33:13Z</time>
      </trkpt>
      <trkpt lat="47.6441" lon="-2.90928">
        <ele>13.8</ele>
        <time>2021-08-04T13:33:14Z</time>
      </trkpt>
      <trkpt lat="47.64409" lon="-2.90929">
        <ele>14</ele>
        <time>2021-08-04T13:33:15Z</time>
      </trkpt>
      <trkpt lat="47.64407" lon="-2.9093">
        <ele>14</ele>
        <time>2021-08-04T13:33:16Z</time>
      </trkpt>
      <trkpt lat="47.64406" lon="-2.90931">
        <ele>14.2</ele>
        <time>2021-08-04T13:33:17Z</time>
      </trkpt>
      <trkpt lat="47.64405" lon="-2.90932">
        <ele>14.2</ele>
        <time>2021-08-04T13:33:18Z</time>
      </trkpt>
      <trkpt lat="47.64403" lon="-2.90933">
        <ele>14.2</ele>
        <time>2021-08-04T13:33:19Z</time>
      </trkpt>
      <trkpt lat="47.64402" lon="-2.90934">
        <ele>14.4</ele>
        <time>2021-08-04T13:33:20Z</time>
      </trkpt>
      <trkpt lat="47.64401" lon="-2.90934">
        <ele>14.4</ele>
        <time>2021-08-04T13:33:21Z</time>
      </trkpt>
      <trkpt lat="47.64399" lon="-2.90935">
        <ele>14.4</ele>
        <time>2021-08-04T13:33:22Z</time>
      </trkpt>
      <trkpt lat="47.64398" lon="-2.90936">
        <ele>14.4</ele>
        <time>2021-08-04T13:33:23Z</time>
      </trkpt>
      <trkpt lat="47.64396" lon="-2.90937">
        <ele>14.4</ele>
        <time>2021-08-04T13:33:24Z</time>
      </trkpt>
      <trkpt lat="47.64395" lon="-2.90938">
        <ele>14.6</ele>
        <time>2021-08-04T13:33:25Z</time>
      </trkpt>
      <trkpt lat="47.64393" lon="-2.90939">
        <ele>14.6</ele>
        <time>2021-08-04T13:33:26Z</time>
      </trkpt>
      <trkpt lat="47.64391" lon="-2.9094">
        <ele>14.6</ele>
        <time>2021-08-04T13:33:27Z</time>
      </trkpt>
      <trkpt lat="47.6439" lon="-2.90941">
        <ele>14.8</ele>
        <time>2021-08-04T13:33:28Z</time>
      </trkpt>
      <trkpt lat="47.64388" lon="-2.90942">
        <ele>14.8</ele>
        <time>2021-08-04T13:33:29Z</time>
      </trkpt>
      <trkpt lat="47.64386" lon="-2.90943">
        <ele>14.8</ele>
        <time>2021-08-04T13:33:30Z</time>
      </trkpt>
      <trkpt lat="47.64384" lon="-2.90945">
        <ele>14.8</ele>
        <time>2021-08-04T13:33:31Z</time>
      </trkpt>
      <trkpt lat="47.64382" lon="-2.90946">
        <ele>15</ele>
        <time>2021-08-04T13:33:32Z</time>
      </trkpt>
      <trkpt lat="47.64381" lon="-2.90947">
        <ele>15</ele>
        <time>2021-08-04T13:33:33Z</time>
      </trkpt>
      <trkpt lat="47.64379" lon="-2.90949">
        <ele>15.2</ele>
        <time>2021-08-04T13:33:34Z</time>
      </trkpt>
      <trkpt lat="47.64377" lon="-2.9095">
        <ele>15.2</ele>
        <time>2021-08-04T13:33:35Z</time>
      </trkpt>
      <trkpt lat="47.64375" lon="-2.90951">
        <ele>15.4</ele>
        <time>2021-08-04T13:33:36Z</time>
      </trkpt>
      <trkpt lat="47.64373" lon="-2.90952">
        <ele>15.6</ele>
        <time>2021-08-04T13:33:37Z</time>
      </trkpt>
      <trkpt lat="47.64372" lon="-2.90953">
        <ele>15.6</ele>
        <time>2021-08-04T13:33:38Z</time>
      </trkpt>
      <trkpt lat="47.6437" lon="-2.90953">
        <ele>15.8</ele>
        <time>2021-08-04T13:33:39Z</time>
      </trkpt>
      <trkpt lat="47.64368" lon="-2.90953">
        <ele>15.8</ele>
        <time>2021-08-04T13:33:40Z</time>
      </trkpt>
      <trkpt lat="47.64366" lon="-2.90953">
        <ele>16</ele>
        <time>2021-08-04T13:33:41Z</time>
      </trkpt>
      <trkpt lat="47.64364" lon="-2.90954">
        <ele>16</ele>
        <time>2021-08-04T13:33:42Z</time>
      </trkpt>
      <trkpt lat="47.64362" lon="-2.90954">
        <ele>16</ele>
        <time>2021-08-04T13:33:43Z</time>
      </trkpt>
      <trkpt lat="47.6436" lon="-2.90953">
        <ele>16</ele>
        <time>2021-08-04T13:33:44Z</time>
      </trkpt>
      <trkpt lat="47.64358" lon="-2.90953">
        <ele>16.2</ele>
        <time>2021-08-04T13:33:45Z</time>
      </trkpt>
      <trkpt lat="47.64356" lon="-2.90952">
        <ele>16.2</ele>
        <time>2021-08-04T13:33:46Z</time>
      </trkpt>
      <trkpt lat="47.64354" lon="-2.90952">
        <ele>16.2</ele>
        <time>2021-08-04T13:33:47Z</time>
      </trkpt>
      <trkpt lat="47.64352" lon="-2.90951">
        <ele>16.2</ele>
        <time>2021-08-04T13:33:48Z</time>
      </trkpt>
      <trkpt lat="47.6435" lon="-2.9095">
        <ele>16.2</ele>
        <time>2021-08-04T13:33:49Z</time>
      </trkpt>
      <trkpt lat="47.64348" lon="-2.90949">
        <ele>16.2</ele>
        <time>2021-08-04T13:33:50Z</time>
      </trkpt>
      <trkpt lat="47.64346" lon="-2.90948">
        <ele>16.2</ele>
        <time>2021-08-04T13:33:51Z</time>
      </trkpt>
      <trkpt lat="47.64344" lon="-2.90946">
        <ele>16.2</ele>
        <time>2021-08-04T13:33:52Z</time>
      </trkpt>
      <trkpt lat="47.64342" lon="-2.90945">
        <ele>16.4</ele>
        <time>2021-08-04T13:33:53Z</time>
      </trkpt>
      <trkpt lat="47.6434" lon="-2.90943">
        <ele>16.4</ele>
        <time>2021-08-04T13:33:54Z</time>
      </trkpt>
      <trkpt lat="47.64338" lon="-2.90942">
        <ele>16.4</ele>
        <time>2021-08-04T13:33:55Z</time>
      </trkpt>
      <trkpt lat="47.64336" lon="-2.9094">
        <ele>16.4</ele>
        <time>2021-08-04T13:33:56Z</time>
      </trkpt>
      <trkpt lat="47.64333" lon="-2.90938">
        <ele>16.4</ele>
        <time>2021-08-04T13:33:57Z</time>
      </trkpt>
      <trkpt lat="47.6433" lon="-2.90936">
        <ele>16.4</ele>
        <time>2021-08-04T13:33:58Z</time>
      </trkpt>
      <trkpt lat="47.64328" lon="-2.90934">
        <ele>16.4</ele>
        <time>2021-08-04T13:33:59Z</time>
      </trkpt>
      <trkpt lat="47.64325" lon="-2.90932">
        <ele>16.6</ele>
        <time>2021-08-04T13:34:00Z</time>
      </trkpt>
      <trkpt lat="47.64323" lon="-2.9093">
        <ele>16.6</ele>
        <time>2021-08-04T13:34:01Z</time>
      </trkpt>
      <trkpt lat="47.6432" lon="-2.90927">
        <ele>16.6</ele>
        <time>2021-08-04T13:34:02Z</time>
      </trkpt>
      <trkpt lat="47.64318" lon="-2.90925">
        <ele>16.6</ele>
        <time>2021-08-04T13:34:03Z</time>
      </trkpt>
      <trkpt lat="47.64315" lon="-2.90923">
        <ele>16.6</ele>
        <time>2021-08-04T13:34:04Z</time>
      </trkpt>
      <trkpt lat="47.64312" lon="-2.90921">
        <ele>16.6</ele>
        <time>2021-08-04T13:34:05Z</time>
      </trkpt>
      <trkpt lat="47.64309" lon="-2.90918">
        <ele>16.6</ele>
        <time>2021-08-04T13:34:06Z</time>
      </trkpt>
      <trkpt lat="47.64307" lon="-2.90916">
        <ele>16.8</ele>
        <time>2021-08-04T13:34:07Z</time>
      </trkpt>
      <trkpt lat="47.64304" lon="-2.90914">
        <ele>16.8</ele>
        <time>2021-08-04T13:34:08Z</time>
      </trkpt>
      <trkpt lat="47.64301" lon="-2.90912">
        <ele>16.8</ele>
        <time>2021-08-04T13:34:09Z</time>
      </trkpt>
      <trkpt lat="47.64298" lon="-2.9091">
        <ele>16.8</ele>
        <time>2021-08-04T13:34:10Z</time>
      </trkpt>
      <trkpt lat="47.64296" lon="-2.90907">
        <ele>16.8</ele>
        <time>2021-08-04T13:34:11Z</time>
      </trkpt>
      <trkpt lat="47.64293" lon="-2.90905">
        <ele>16.8</ele>
        <time>2021-08-04T13:34:12Z</time>
      </trkpt>
      <trkpt lat="47.64291" lon="-2.90903">
        <ele>16.8</ele>
        <time>2021-08-04T13:34:13Z</time>
      </trkpt>
      <trkpt lat="47.64287" lon="-2.90901">
        <ele>16.8</ele>
        <time>2021-08-04T13:34:14Z</time>
      </trkpt>
      <trkpt lat="47.64284" lon="-2.90899">
        <ele>17</ele>
        <time>2021-08-04T13:34:15Z</time>
      </trkpt>
      <trkpt lat="47.64281" lon="-2.90897">
        <ele>17</ele>
        <time>2021-08-04T13:34:16Z</time>
      </trkpt>
      <trkpt lat="47.64278" lon="-2.90895">
        <ele>17</ele>
        <time>2021-08-04T13:34:17Z</time>
      </trkpt>
      <trkpt lat="47.64274" lon="-2.90893">
        <ele>17</ele>
        <time>2021-08-04T13:34:18Z</time>
      </trkpt>
      <trkpt lat="47.64271" lon="-2.90891">
        <ele>17.2</ele>
        <time>2021-08-04T13:34:19Z</time>
      </trkpt>
      <trkpt lat="47.64268" lon="-2.90889">
        <ele>17.2</ele>
        <time>2021-08-04T13:34:20Z</time>
      </trkpt>
      <trkpt lat="47.64264" lon="-2.90888">
        <ele>17.2</ele>
        <time>2021-08-04T13:34:21Z</time>
      </trkpt>
      <trkpt lat="47.64261" lon="-2.90886">
        <ele>17.2</ele>
        <time>2021-08-04T13:34:22Z</time>
      </trkpt>
      <trkpt lat="47.64257" lon="-2.90884">
        <ele>17.2</ele>
        <time>2021-08-04T13:34:23Z</time>
      </trkpt>
      <trkpt lat="47.64254" lon="-2.90882">
        <ele>17.2</ele>
        <time>2021-08-04T13:34:24Z</time>
      </trkpt>
      <trkpt lat="47.6425" lon="-2.90881">
        <ele>17.2</ele>
        <time>2021-08-04T13:34:25Z</time>
      </trkpt>
      <trkpt lat="47.64247" lon="-2.90879">
        <ele>17.2</ele>
        <time>2021-08-04T13:34:26Z</time>
      </trkpt>
      <trkpt lat="47.64243" lon="-2.90878">
        <ele>17.2</ele>
        <time>2021-08-04T13:34:27Z</time>
      </trkpt>
      <trkpt lat="47.6424" lon="-2.90876">
        <ele>17.2</ele>
        <time>2021-08-04T13:34:28Z</time>
      </trkpt>
      <trkpt lat="47.64236" lon="-2.90875">
        <ele>17.2</ele>
        <time>2021-08-04T13:34:29Z</time>
      </trkpt>
      <trkpt lat="47.64233" lon="-2.90874">
        <ele>17.4</ele>
        <time>2021-08-04T13:34:30Z</time>
      </trkpt>
      <trkpt lat="47.6423" lon="-2.90873">
        <ele>17.4</ele>
        <time>2021-08-04T13:34:31Z</time>
      </trkpt>
      <trkpt lat="47.64226" lon="-2.90872">
        <ele>17.4</ele>
        <time>2021-08-04T13:34:32Z</time>
      </trkpt>
      <trkpt lat="47.64223" lon="-2.9087">
        <ele>17.4</ele>
        <time>2021-08-04T13:34:33Z</time>
      </trkpt>
      <trkpt lat="47.6422" lon="-2.90869">
        <ele>17.4</ele>
        <time>2021-08-04T13:34:34Z</time>
      </trkpt>
      <trkpt lat="47.64217" lon="-2.90867">
        <ele>17.4</ele>
        <time>2021-08-04T13:34:35Z</time>
      </trkpt>
      <trkpt lat="47.64213" lon="-2.90866">
        <ele>17.4</ele>
        <time>2021-08-04T13:34:36Z</time>
      </trkpt>
      <trkpt lat="47.6421" lon="-2.90865">
        <ele>17.4</ele>
        <time>2021-08-04T13:34:37Z</time>
      </trkpt>
      <trkpt lat="47.64206" lon="-2.90864">
        <ele>17.6</ele>
        <time>2021-08-04T13:34:38Z</time>
      </trkpt>
      <trkpt lat="47.64202" lon="-2.90862">
        <ele>17.6</ele>
        <time>2021-08-04T13:34:39Z</time>
      </trkpt>
      <trkpt lat="47.64199" lon="-2.90861">
        <ele>17.8</ele>
        <time>2021-08-04T13:34:40Z</time>
      </trkpt>
      <trkpt lat="47.64196" lon="-2.90859">
        <ele>18</ele>
        <time>2021-08-04T13:34:41Z</time>
      </trkpt>
      <trkpt lat="47.64192" lon="-2.90858">
        <ele>18</ele>
        <time>2021-08-04T13:34:42Z</time>
      </trkpt>
      <trkpt lat="47.64189" lon="-2.90857">
        <ele>18</ele>
        <time>2021-08-04T13:34:43Z</time>
      </trkpt>
      <trkpt lat="47.64185" lon="-2.90856">
        <ele>18</ele>
        <time>2021-08-04T13:34:44Z</time>
      </trkpt>
      <trkpt lat="47.64182" lon="-2.90855">
        <ele>18</ele>
        <time>2021-08-04T13:34:45Z</time>
      </trkpt>
      <trkpt lat="47.64179" lon="-2.90853">
        <ele>18.2</ele>
        <time>2021-08-04T13:34:46Z</time>
      </trkpt>
      <trkpt lat="47.64175" lon="-2.90852">
        <ele>18.2</ele>
        <time>2021-08-04T13:34:47Z</time>
      </trkpt>
      <trkpt lat="47.64172" lon="-2.90851">
        <ele>18.2</ele>
        <time>2021-08-04T13:34:48Z</time>
      </trkpt>
      <trkpt lat="47.64169" lon="-2.9085">
        <ele>18.2</ele>
        <time>2021-08-04T13:34:49Z</time>
      </trkpt>
      <trkpt lat="47.64165" lon="-2.90849">
        <ele>18.2</ele>
        <time>2021-08-04T13:34:50Z</time>
      </trkpt>
      <trkpt lat="47.64162" lon="-2.90847">
        <ele>18.4</ele>
        <time>2021-08-04T13:34:51Z</time>
      </trkpt>
      <trkpt lat="47.64158" lon="-2.90846">
        <ele>18.4</ele>
        <time>2021-08-04T13:34:52Z</time>
      </trkpt>
      <trkpt lat="47.64155" lon="-2.90845">
        <ele>18.4</ele>
        <time>2021-08-04T13:34:53Z</time>
      </trkpt>
      <trkpt lat="47.64151" lon="-2.90843">
        <ele>18.4</ele>
        <time>2021-08-04T13:34:54Z</time>
      </trkpt>
      <trkpt lat="47.64148" lon="-2.90841">
        <ele>18.4</ele>
        <time>2021-08-04T13:34:55Z</time>
      </trkpt>
      <trkpt lat="47.64145" lon="-2.9084">
        <ele>18.4</ele>
        <time>2021-08-04T13:34:56Z</time>
      </trkpt>
      <trkpt lat="47.64141" lon="-2.90838">
        <ele>18.6</ele>
        <time>2021-08-04T13:34:57Z</time>
      </trkpt>
      <trkpt lat="47.64138" lon="-2.90836">
        <ele>18.6</ele>
        <time>2021-08-04T13:34:58Z</time>
      </trkpt>
      <trkpt lat="47.64135" lon="-2.90834">
        <ele>18.6</ele>
        <time>2021-08-04T13:34:59Z</time>
      </trkpt>
      <trkpt lat="47.64132" lon="-2.90831">
        <ele>18.6</ele>
        <time>2021-08-04T13:35:00Z</time>
      </trkpt>
      <trkpt lat="47.64128" lon="-2.90829">
        <ele>18.8</ele>
        <time>2021-08-04T13:35:01Z</time>
      </trkpt>
      <trkpt lat="47.64125" lon="-2.90826">
        <ele>18.8</ele>
        <time>2021-08-04T13:35:02Z</time>
      </trkpt>
      <trkpt lat="47.64122" lon="-2.90824">
        <ele>18.8</ele>
        <time>2021-08-04T13:35:03Z</time>
      </trkpt>
      <trkpt lat="47.64119" lon="-2.90822">
        <ele>18.8</ele>
        <time>2021-08-04T13:35:04Z</time>
      </trkpt>
      <trkpt lat="47.64116" lon="-2.9082">
        <ele>18.8</ele>
        <time>2021-08-04T13:35:05Z</time>
      </trkpt>
      <trkpt lat="47.64112" lon="-2.90818">
        <ele>18.8</ele>
        <time>2021-08-04T13:35:06Z</time>
      </trkpt>
      <trkpt lat="47.64109" lon="-2.90815">
        <ele>18.8</ele>
        <time>2021-08-04T13:35:07Z</time>
      </trkpt>
      <trkpt lat="47.64106" lon="-2.90813">
        <ele>18.8</ele>
        <time>2021-08-04T13:35:08Z</time>
      </trkpt>
      <trkpt lat="47.64102" lon="-2.90811">
        <ele>18.8</ele>
        <time>2021-08-04T13:35:09Z</time>
      </trkpt>
      <trkpt lat="47.64098" lon="-2.90809">
        <ele>18.8</ele>
        <time>2021-08-04T13:35:10Z</time>
      </trkpt>
      <trkpt lat="47.64094" lon="-2.90807">
        <ele>18.8</ele>
        <time>2021-08-04T13:35:11Z</time>
      </trkpt>
      <trkpt lat="47.64091" lon="-2.90805">
        <ele>18.8</ele>
        <time>2021-08-04T13:35:12Z</time>
      </trkpt>
      <trkpt lat="47.64087" lon="-2.90803">
        <ele>18.8</ele>
        <time>2021-08-04T13:35:13Z</time>
      </trkpt>
      <trkpt lat="47.64083" lon="-2.908">
        <ele>18.8</ele>
        <time>2021-08-04T13:35:14Z</time>
      </trkpt>
      <trkpt lat="47.64079" lon="-2.90797">
        <ele>18.8</ele>
        <time>2021-08-04T13:35:15Z</time>
      </trkpt>
      <trkpt lat="47.64075" lon="-2.90795">
        <ele>18.8</ele>
        <time>2021-08-04T13:35:16Z</time>
      </trkpt>
      <trkpt lat="47.64072" lon="-2.90792">
        <ele>18.8</ele>
        <time>2021-08-04T13:35:17Z</time>
      </trkpt>
      <trkpt lat="47.64068" lon="-2.90789">
        <ele>18.8</ele>
        <time>2021-08-04T13:35:18Z</time>
      </trkpt>
      <trkpt lat="47.64064" lon="-2.90787">
        <ele>18.6</ele>
        <time>2021-08-04T13:35:19Z</time>
      </trkpt>
      <trkpt lat="47.6406" lon="-2.90784">
        <ele>18.6</ele>
        <time>2021-08-04T13:35:20Z</time>
      </trkpt>
      <trkpt lat="47.64056" lon="-2.90782">
        <ele>18.6</ele>
        <time>2021-08-04T13:35:21Z</time>
      </trkpt>
      <trkpt lat="47.64051" lon="-2.90779">
        <ele>18.4</ele>
        <time>2021-08-04T13:35:22Z</time>
      </trkpt>
      <trkpt lat="47.64047" lon="-2.90776">
        <ele>18.4</ele>
        <time>2021-08-04T13:35:23Z</time>
      </trkpt>
      <trkpt lat="47.64043" lon="-2.90773">
        <ele>18.4</ele>
        <time>2021-08-04T13:35:24Z</time>
      </trkpt>
      <trkpt lat="47.64038" lon="-2.9077">
        <ele>18.2</ele>
        <time>2021-08-04T13:35:25Z</time>
      </trkpt>
      <trkpt lat="47.64034" lon="-2.90766">
        <ele>18.2</ele>
        <time>2021-08-04T13:35:26Z</time>
      </trkpt>
      <trkpt lat="47.6403" lon="-2.90762">
        <ele>18.2</ele>
        <time>2021-08-04T13:35:27Z</time>
      </trkpt>
      <trkpt lat="47.64026" lon="-2.90757">
        <ele>18</ele>
        <time>2021-08-04T13:35:28Z</time>
      </trkpt>
      <trkpt lat="47.64022" lon="-2.90752">
        <ele>18</ele>
        <time>2021-08-04T13:35:29Z</time>
      </trkpt>
      <trkpt lat="47.64019" lon="-2.90748">
        <ele>18</ele>
        <time>2021-08-04T13:35:30Z</time>
      </trkpt>
      <trkpt lat="47.64015" lon="-2.90743">
        <ele>18</ele>
        <time>2021-08-04T13:35:31Z</time>
      </trkpt>
      <trkpt lat="47.64012" lon="-2.90738">
        <ele>17.8</ele>
        <time>2021-08-04T13:35:32Z</time>
      </trkpt>
      <trkpt lat="47.64009" lon="-2.90733">
        <ele>17.8</ele>
        <time>2021-08-04T13:35:33Z</time>
      </trkpt>
      <trkpt lat="47.64006" lon="-2.90729">
        <ele>17.8</ele>
        <time>2021-08-04T13:35:34Z</time>
      </trkpt>
      <trkpt lat="47.64003" lon="-2.90724">
        <ele>17.8</ele>
        <time>2021-08-04T13:35:35Z</time>
      </trkpt>
      <trkpt lat="47.64" lon="-2.9072">
        <ele>17.6</ele>
        <time>2021-08-04T13:35:36Z</time>
      </trkpt>
      <trkpt lat="47.63997" lon="-2.90715">
        <ele>17.4</ele>
        <time>2021-08-04T13:35:37Z</time>
      </trkpt>
      <trkpt lat="47.63993" lon="-2.9071">
        <ele>17.4</ele>
        <time>2021-08-04T13:35:38Z</time>
      </trkpt>
      <trkpt lat="47.63991" lon="-2.90705">
        <ele>17.4</ele>
        <time>2021-08-04T13:35:39Z</time>
      </trkpt>
      <trkpt lat="47.63988" lon="-2.907">
        <ele>17.6</ele>
        <time>2021-08-04T13:35:40Z</time>
      </trkpt>
      <trkpt lat="47.63985" lon="-2.90695">
        <ele>17.6</ele>
        <time>2021-08-04T13:35:41Z</time>
      </trkpt>
      <trkpt lat="47.63982" lon="-2.9069">
        <ele>17.6</ele>
        <time>2021-08-04T13:35:42Z</time>
      </trkpt>
      <trkpt lat="47.63979" lon="-2.90685">
        <ele>17.6</ele>
        <time>2021-08-04T13:35:43Z</time>
      </trkpt>
      <trkpt lat="47.63976" lon="-2.9068">
        <ele>17.6</ele>
        <time>2021-08-04T13:35:44Z</time>
      </trkpt>
      <trkpt lat="47.63973" lon="-2.90675">
        <ele>17.4</ele>
        <time>2021-08-04T13:35:45Z</time>
      </trkpt>
      <trkpt lat="47.6397" lon="-2.9067">
        <ele>17.4</ele>
        <time>2021-08-04T13:35:46Z</time>
      </trkpt>
      <trkpt lat="47.63967" lon="-2.90665">
        <ele>17.4</ele>
        <time>2021-08-04T13:35:47Z</time>
      </trkpt>
      <trkpt lat="47.63964" lon="-2.9066">
        <ele>17.4</ele>
        <time>2021-08-04T13:35:48Z</time>
      </trkpt>
      <trkpt lat="47.63961" lon="-2.90655">
        <ele>17.2</ele>
        <time>2021-08-04T13:35:49Z</time>
      </trkpt>
      <trkpt lat="47.63958" lon="-2.90649">
        <ele>17.2</ele>
        <time>2021-08-04T13:35:50Z</time>
      </trkpt>
      <trkpt lat="47.63955" lon="-2.90644">
        <ele>17.2</ele>
        <time>2021-08-04T13:35:51Z</time>
      </trkpt>
      <trkpt lat="47.63952" lon="-2.90639">
        <ele>17.2</ele>
        <time>2021-08-04T13:35:52Z</time>
      </trkpt>
      <trkpt lat="47.63948" lon="-2.90633">
        <ele>17.4</ele>
        <time>2021-08-04T13:35:53Z</time>
      </trkpt>
      <trkpt lat="47.63945" lon="-2.90628">
        <ele>17.4</ele>
        <time>2021-08-04T13:35:54Z</time>
      </trkpt>
      <trkpt lat="47.63942" lon="-2.90622">
        <ele>17.2</ele>
        <time>2021-08-04T13:35:55Z</time>
      </trkpt>
      <trkpt lat="47.63939" lon="-2.90616">
        <ele>17.2</ele>
        <time>2021-08-04T13:35:56Z</time>
      </trkpt>
      <trkpt lat="47.63935" lon="-2.90611">
        <ele>17.2</ele>
        <time>2021-08-04T13:35:57Z</time>
      </trkpt>
      <trkpt lat="47.63932" lon="-2.90605">
        <ele>17</ele>
        <time>2021-08-04T13:35:58Z</time>
      </trkpt>
      <trkpt lat="47.63928" lon="-2.90598">
        <ele>17</ele>
        <time>2021-08-04T13:35:59Z</time>
      </trkpt>
      <trkpt lat="47.63924" lon="-2.90592">
        <ele>17</ele>
        <time>2021-08-04T13:36:00Z</time>
      </trkpt>
      <trkpt lat="47.6392" lon="-2.90585">
        <ele>16.8</ele>
        <time>2021-08-04T13:36:01Z</time>
      </trkpt>
      <trkpt lat="47.63916" lon="-2.90578">
        <ele>16.8</ele>
        <time>2021-08-04T13:36:02Z</time>
      </trkpt>
      <trkpt lat="47.63912" lon="-2.90571">
        <ele>16.4</ele>
        <time>2021-08-04T13:36:03Z</time>
      </trkpt>
      <trkpt lat="47.63909" lon="-2.90565">
        <ele>16.2</ele>
        <time>2021-08-04T13:36:04Z</time>
      </trkpt>
      <trkpt lat="47.63906" lon="-2.90558">
        <ele>16</ele>
        <time>2021-08-04T13:36:05Z</time>
      </trkpt>
      <trkpt lat="47.63903" lon="-2.90551">
        <ele>16</ele>
        <time>2021-08-04T13:36:06Z</time>
      </trkpt>
      <trkpt lat="47.639" lon="-2.90543">
        <ele>15.6</ele>
        <time>2021-08-04T13:36:07Z</time>
      </trkpt>
      <trkpt lat="47.63898" lon="-2.90536">
        <ele>15.6</ele>
        <time>2021-08-04T13:36:08Z</time>
      </trkpt>
      <trkpt lat="47.63896" lon="-2.90529">
        <ele>15.4</ele>
        <time>2021-08-04T13:36:09Z</time>
      </trkpt>
      <trkpt lat="47.63895" lon="-2.90521">
        <ele>15.4</ele>
        <time>2021-08-04T13:36:10Z</time>
      </trkpt>
      <trkpt lat="47.63893" lon="-2.90515">
        <ele>15.2</ele>
        <time>2021-08-04T13:36:11Z</time>
      </trkpt>
      <trkpt lat="47.63892" lon="-2.90508">
        <ele>15.2</ele>
        <time>2021-08-04T13:36:12Z</time>
      </trkpt>
      <trkpt lat="47.63891" lon="-2.90502">
        <ele>15.2</ele>
        <time>2021-08-04T13:36:13Z</time>
      </trkpt>
      <trkpt lat="47.6389" lon="-2.90496">
        <ele>15.2</ele>
        <time>2021-08-04T13:36:14Z</time>
      </trkpt>
      <trkpt lat="47.63889" lon="-2.9049">
        <ele>15.2</ele>
        <time>2021-08-04T13:36:15Z</time>
      </trkpt>
      <trkpt lat="47.63888" lon="-2.90484">
        <ele>15.2</ele>
        <time>2021-08-04T13:36:16Z</time>
      </trkpt>
      <trkpt lat="47.63887" lon="-2.90478">
        <ele>15.2</ele>
        <time>2021-08-04T13:36:17Z</time>
      </trkpt>
      <trkpt lat="47.63886" lon="-2.90472">
        <ele>15.2</ele>
        <time>2021-08-04T13:36:18Z</time>
      </trkpt>
      <trkpt lat="47.63885" lon="-2.90465">
        <ele>15.2</ele>
        <time>2021-08-04T13:36:19Z</time>
      </trkpt>
      <trkpt lat="47.63884" lon="-2.90459">
        <ele>15.4</ele>
        <time>2021-08-04T13:36:20Z</time>
      </trkpt>
      <trkpt lat="47.63883" lon="-2.90453">
        <ele>15.6</ele>
        <time>2021-08-04T13:36:21Z</time>
      </trkpt>
      <trkpt lat="47.63882" lon="-2.90447">
        <ele>15.8</ele>
        <time>2021-08-04T13:36:22Z</time>
      </trkpt>
      <trkpt lat="47.63881" lon="-2.9044">
        <ele>16</ele>
        <time>2021-08-04T13:36:23Z</time>
      </trkpt>
      <trkpt lat="47.63879" lon="-2.90434">
        <ele>16</ele>
        <time>2021-08-04T13:36:24Z</time>
      </trkpt>
      <trkpt lat="47.63878" lon="-2.90428">
        <ele>16.2</ele>
        <time>2021-08-04T13:36:25Z</time>
      </trkpt>
      <trkpt lat="47.63876" lon="-2.90421">
        <ele>16.4</ele>
        <time>2021-08-04T13:36:26Z</time>
      </trkpt>
      <trkpt lat="47.63874" lon="-2.90415">
        <ele>16.4</ele>
        <time>2021-08-04T13:36:27Z</time>
      </trkpt>
      <trkpt lat="47.63871" lon="-2.90409">
        <ele>16.4</ele>
        <time>2021-08-04T13:36:28Z</time>
      </trkpt>
      <trkpt lat="47.63869" lon="-2.90404">
        <ele>16.6</ele>
        <time>2021-08-04T13:36:29Z</time>
      </trkpt>
      <trkpt lat="47.63867" lon="-2.90399">
        <ele>16.8</ele>
        <time>2021-08-04T13:36:30Z</time>
      </trkpt>
      <trkpt lat="47.63864" lon="-2.90395">
        <ele>16.8</ele>
        <time>2021-08-04T13:36:31Z</time>
      </trkpt>
      <trkpt lat="47.63861" lon="-2.90391">
        <ele>17</ele>
        <time>2021-08-04T13:36:32Z</time>
      </trkpt>
      <trkpt lat="47.63858" lon="-2.90387">
        <ele>17</ele>
        <time>2021-08-04T13:36:33Z</time>
      </trkpt>
      <trkpt lat="47.63855" lon="-2.90382">
        <ele>17.2</ele>
        <time>2021-08-04T13:36:34Z</time>
      </trkpt>
      <trkpt lat="47.63852" lon="-2.90378">
        <ele>17.2</ele>
        <time>2021-08-04T13:36:35Z</time>
      </trkpt>
      <trkpt lat="47.63849" lon="-2.90373">
        <ele>17.4</ele>
        <time>2021-08-04T13:36:36Z</time>
      </trkpt>
      <trkpt lat="47.63847" lon="-2.90369">
        <ele>17.6</ele>
        <time>2021-08-04T13:36:37Z</time>
      </trkpt>
      <trkpt lat="47.63844" lon="-2.90364">
        <ele>17.4</ele>
        <time>2021-08-04T13:36:38Z</time>
      </trkpt>
      <trkpt lat="47.63841" lon="-2.90359">
        <ele>17.6</ele>
        <time>2021-08-04T13:36:39Z</time>
      </trkpt>
      <trkpt lat="47.63838" lon="-2.90355">
        <ele>17.6</ele>
        <time>2021-08-04T13:36:40Z</time>
      </trkpt>
      <trkpt lat="47.63836" lon="-2.9035">
        <ele>17.8</ele>
        <time>2021-08-04T13:36:41Z</time>
      </trkpt>
      <trkpt lat="47.63833" lon="-2.90346">
        <ele>17.8</ele>
        <time>2021-08-04T13:36:42Z</time>
      </trkpt>
      <trkpt lat="47.6383" lon="-2.90342">
        <ele>18</ele>
        <time>2021-08-04T13:36:43Z</time>
      </trkpt>
      <trkpt lat="47.63828" lon="-2.90337">
        <ele>18</ele>
        <time>2021-08-04T13:36:44Z</time>
      </trkpt>
      <trkpt lat="47.63825" lon="-2.90333">
        <ele>18</ele>
        <time>2021-08-04T13:36:45Z</time>
      </trkpt>
      <trkpt lat="47.63823" lon="-2.90329">
        <ele>18.2</ele>
        <time>2021-08-04T13:36:46Z</time>
      </trkpt>
      <trkpt lat="47.6382" lon="-2.90325">
        <ele>18.2</ele>
        <time>2021-08-04T13:36:47Z</time>
      </trkpt>
      <trkpt lat="47.63818" lon="-2.90321">
        <ele>18.2</ele>
        <time>2021-08-04T13:36:48Z</time>
      </trkpt>
      <trkpt lat="47.63816" lon="-2.90317">
        <ele>18.2</ele>
        <time>2021-08-04T13:36:49Z</time>
      </trkpt>
      <trkpt lat="47.63814" lon="-2.90314">
        <ele>18.2</ele>
        <time>2021-08-04T13:36:50Z</time>
      </trkpt>
      <trkpt lat="47.63812" lon="-2.9031">
        <ele>18.4</ele>
        <time>2021-08-04T13:36:51Z</time>
      </trkpt>
      <trkpt lat="47.6381" lon="-2.90307">
        <ele>18.8</ele>
        <time>2021-08-04T13:36:52Z</time>
      </trkpt>
      <trkpt lat="47.63807" lon="-2.90304">
        <ele>19</ele>
        <time>2021-08-04T13:36:53Z</time>
      </trkpt>
      <trkpt lat="47.63805" lon="-2.903">
        <ele>19.2</ele>
        <time>2021-08-04T13:36:54Z</time>
      </trkpt>
      <trkpt lat="47.63803" lon="-2.90296">
        <ele>19.4</ele>
        <time>2021-08-04T13:36:55Z</time>
      </trkpt>
      <trkpt lat="47.63801" lon="-2.90293">
        <ele>19.6</ele>
        <time>2021-08-04T13:36:56Z</time>
      </trkpt>
      <trkpt lat="47.63799" lon="-2.90289">
        <ele>19.6</ele>
        <time>2021-08-04T13:36:57Z</time>
      </trkpt>
      <trkpt lat="47.63797" lon="-2.90286">
        <ele>19.6</ele>
        <time>2021-08-04T13:36:58Z</time>
      </trkpt>
      <trkpt lat="47.63795" lon="-2.90283">
        <ele>19.6</ele>
        <time>2021-08-04T13:36:59Z</time>
      </trkpt>
      <trkpt lat="47.63792" lon="-2.9028">
        <ele>19.6</ele>
        <time>2021-08-04T13:37:00Z</time>
      </trkpt>
      <trkpt lat="47.6379" lon="-2.90277">
        <ele>19.8</ele>
        <time>2021-08-04T13:37:01Z</time>
      </trkpt>
      <trkpt lat="47.63787" lon="-2.90274">
        <ele>20</ele>
        <time>2021-08-04T13:37:02Z</time>
      </trkpt>
      <trkpt lat="47.63785" lon="-2.90271">
        <ele>20</ele>
        <time>2021-08-04T13:37:03Z</time>
      </trkpt>
      <trkpt lat="47.63782" lon="-2.90269">
        <ele>20</ele>
        <time>2021-08-04T13:37:04Z</time>
      </trkpt>
      <trkpt lat="47.6378" lon="-2.90266">
        <ele>20</ele>
        <time>2021-08-04T13:37:05Z</time>
      </trkpt>
      <trkpt lat="47.63777" lon="-2.90264">
        <ele>20.2</ele>
        <time>2021-08-04T13:37:06Z</time>
      </trkpt>
      <trkpt lat="47.63774" lon="-2.90261">
        <ele>20.2</ele>
        <time>2021-08-04T13:37:07Z</time>
      </trkpt>
      <trkpt lat="47.63771" lon="-2.90259">
        <ele>20.2</ele>
        <time>2021-08-04T13:37:08Z</time>
      </trkpt>
      <trkpt lat="47.63769" lon="-2.90256">
        <ele>20.2</ele>
        <time>2021-08-04T13:37:09Z</time>
      </trkpt>
      <trkpt lat="47.63766" lon="-2.90253">
        <ele>20.4</ele>
        <time>2021-08-04T13:37:10Z</time>
      </trkpt>
      <trkpt lat="47.63763" lon="-2.90251">
        <ele>20.4</ele>
        <time>2021-08-04T13:37:11Z</time>
      </trkpt>
      <trkpt lat="47.6376" lon="-2.90248">
        <ele>20.4</ele>
        <time>2021-08-04T13:37:12Z</time>
      </trkpt>
      <trkpt lat="47.63758" lon="-2.90246">
        <ele>20.4</ele>
        <time>2021-08-04T13:37:13Z</time>
      </trkpt>
      <trkpt lat="47.63755" lon="-2.90244">
        <ele>20.4</ele>
        <time>2021-08-04T13:37:14Z</time>
      </trkpt>
      <trkpt lat="47.63753" lon="-2.90242">
        <ele>20.4</ele>
        <time>2021-08-04T13:37:15Z</time>
      </trkpt>
      <trkpt lat="47.6375" lon="-2.9024">
        <ele>20.4</ele>
        <time>2021-08-04T13:37:16Z</time>
      </trkpt>
      <trkpt lat="47.63747" lon="-2.90237">
        <ele>20.4</ele>
        <time>2021-08-04T13:37:17Z</time>
      </trkpt>
      <trkpt lat="47.63744" lon="-2.90235">
        <ele>20.4</ele>
        <time>2021-08-04T13:37:18Z</time>
      </trkpt>
      <trkpt lat="47.63741" lon="-2.90233">
        <ele>20.6</ele>
        <time>2021-08-04T13:37:19Z</time>
      </trkpt>
      <trkpt lat="47.63738" lon="-2.9023">
        <ele>20.6</ele>
        <time>2021-08-04T13:37:20Z</time>
      </trkpt>
      <trkpt lat="47.63735" lon="-2.90227">
        <ele>20.6</ele>
        <time>2021-08-04T13:37:21Z</time>
      </trkpt>
      <trkpt lat="47.63733" lon="-2.90224">
        <ele>20.8</ele>
        <time>2021-08-04T13:37:22Z</time>
      </trkpt>
      <trkpt lat="47.63731" lon="-2.90219">
        <ele>20.8</ele>
        <time>2021-08-04T13:37:23Z</time>
      </trkpt>
      <trkpt lat="47.6373" lon="-2.90214">
        <ele>20.6</ele>
        <time>2021-08-04T13:37:24Z</time>
      </trkpt>
      <trkpt lat="47.6373" lon="-2.90209">
        <ele>20.8</ele>
        <time>2021-08-04T13:37:25Z</time>
      </trkpt>
      <trkpt lat="47.6373" lon="-2.90203">
        <ele>20.8</ele>
        <time>2021-08-04T13:37:26Z</time>
      </trkpt>
      <trkpt lat="47.63731" lon="-2.90197">
        <ele>20.8</ele>
        <time>2021-08-04T13:37:27Z</time>
      </trkpt>
      <trkpt lat="47.63733" lon="-2.90191">
        <ele>20.8</ele>
        <time>2021-08-04T13:37:28Z</time>
      </trkpt>
      <trkpt lat="47.63736" lon="-2.90186">
        <ele>20.8</ele>
        <time>2021-08-04T13:37:29Z</time>
      </trkpt>
      <trkpt lat="47.63739" lon="-2.90182">
        <ele>20.8</ele>
        <time>2021-08-04T13:37:30Z</time>
      </trkpt>
      <trkpt lat="47.63743" lon="-2.90178">
        <ele>20.8</ele>
        <time>2021-08-04T13:37:31Z</time>
      </trkpt>
      <trkpt lat="47.63747" lon="-2.90174">
        <ele>20.8</ele>
        <time>2021-08-04T13:37:32Z</time>
      </trkpt>
      <trkpt lat="47.6375" lon="-2.90171">
        <ele>20.8</ele>
        <time>2021-08-04T13:37:33Z</time>
      </trkpt>
      <trkpt lat="47.63754" lon="-2.90167">
        <ele>20.6</ele>
        <time>2021-08-04T13:37:34Z</time>
      </trkpt>
      <trkpt lat="47.63758" lon="-2.90164">
        <ele>20.2</ele>
        <time>2021-08-04T13:37:35Z</time>
      </trkpt>
      <trkpt lat="47.63762" lon="-2.9016">
        <ele>20.2</ele>
        <time>2021-08-04T13:37:36Z</time>
      </trkpt>
      <trkpt lat="47.63765" lon="-2.90157">
        <ele>20</ele>
        <time>2021-08-04T13:37:37Z</time>
      </trkpt>
      <trkpt lat="47.63768" lon="-2.90154">
        <ele>20</ele>
        <time>2021-08-04T13:37:38Z</time>
      </trkpt>
      <trkpt lat="47.63772" lon="-2.9015">
        <ele>20</ele>
        <time>2021-08-04T13:37:39Z</time>
      </trkpt>
      <trkpt lat="47.63775" lon="-2.90147">
        <ele>20</ele>
        <time>2021-08-04T13:37:40Z</time>
      </trkpt>
      <trkpt lat="47.63779" lon="-2.90144">
        <ele>20</ele>
        <time>2021-08-04T13:37:41Z</time>
      </trkpt>
      <trkpt lat="47.63783" lon="-2.90141">
        <ele>20</ele>
        <time>2021-08-04T13:37:42Z</time>
      </trkpt>
      <trkpt lat="47.63786" lon="-2.90138">
        <ele>20</ele>
        <time>2021-08-04T13:37:43Z</time>
      </trkpt>
      <trkpt lat="47.63789" lon="-2.90134">
        <ele>20</ele>
        <time>2021-08-04T13:37:44Z</time>
      </trkpt>
      <trkpt lat="47.63793" lon="-2.90131">
        <ele>20</ele>
        <time>2021-08-04T13:37:45Z</time>
      </trkpt>
      <trkpt lat="47.63796" lon="-2.90128">
        <ele>20</ele>
        <time>2021-08-04T13:37:46Z</time>
      </trkpt>
      <trkpt lat="47.638" lon="-2.90125">
        <ele>20</ele>
        <time>2021-08-04T13:37:47Z</time>
      </trkpt>
      <trkpt lat="47.63803" lon="-2.90122">
        <ele>20.2</ele>
        <time>2021-08-04T13:37:48Z</time>
      </trkpt>
      <trkpt lat="47.63806" lon="-2.90119">
        <ele>20.2</ele>
        <time>2021-08-04T13:37:49Z</time>
      </trkpt>
      <trkpt lat="47.6381" lon="-2.90116">
        <ele>20.2</ele>
        <time>2021-08-04T13:37:50Z</time>
      </trkpt>
      <trkpt lat="47.63813" lon="-2.90113">
        <ele>20.2</ele>
        <time>2021-08-04T13:37:51Z</time>
      </trkpt>
      <trkpt lat="47.63816" lon="-2.90111">
        <ele>20.2</ele>
        <time>2021-08-04T13:37:52Z</time>
      </trkpt>
      <trkpt lat="47.6382" lon="-2.90108">
        <ele>20.4</ele>
        <time>2021-08-04T13:37:53Z</time>
      </trkpt>
      <trkpt lat="47.63823" lon="-2.90105">
        <ele>20.2</ele>
        <time>2021-08-04T13:37:54Z</time>
      </trkpt>
      <trkpt lat="47.63826" lon="-2.90102">
        <ele>20.2</ele>
        <time>2021-08-04T13:37:55Z</time>
      </trkpt>
      <trkpt lat="47.6383" lon="-2.90099">
        <ele>20.2</ele>
        <time>2021-08-04T13:37:56Z</time>
      </trkpt>
      <trkpt lat="47.63833" lon="-2.90097">
        <ele>20.4</ele>
        <time>2021-08-04T13:37:57Z</time>
      </trkpt>
      <trkpt lat="47.63837" lon="-2.90094">
        <ele>20.4</ele>
        <time>2021-08-04T13:37:58Z</time>
      </trkpt>
      <trkpt lat="47.63841" lon="-2.90092">
        <ele>20.6</ele>
        <time>2021-08-04T13:37:59Z</time>
      </trkpt>
      <trkpt lat="47.63845" lon="-2.9009">
        <ele>20.6</ele>
        <time>2021-08-04T13:38:00Z</time>
      </trkpt>
      <trkpt lat="47.63849" lon="-2.90088">
        <ele>20.6</ele>
        <time>2021-08-04T13:38:01Z</time>
      </trkpt>
      <trkpt lat="47.63853" lon="-2.90087">
        <ele>20.8</ele>
        <time>2021-08-04T13:38:02Z</time>
      </trkpt>
      <trkpt lat="47.63857" lon="-2.90086">
        <ele>20.8</ele>
        <time>2021-08-04T13:38:03Z</time>
      </trkpt>
      <trkpt lat="47.63861" lon="-2.90085">
        <ele>21</ele>
        <time>2021-08-04T13:38:04Z</time>
      </trkpt>
      <trkpt lat="47.63866" lon="-2.90084">
        <ele>21</ele>
        <time>2021-08-04T13:38:05Z</time>
      </trkpt>
      <trkpt lat="47.6387" lon="-2.90084">
        <ele>21</ele>
        <time>2021-08-04T13:38:06Z</time>
      </trkpt>
      <trkpt lat="47.63874" lon="-2.90083">
        <ele>21.2</ele>
        <time>2021-08-04T13:38:07Z</time>
      </trkpt>
      <trkpt lat="47.63878" lon="-2.90083">
        <ele>21.2</ele>
        <time>2021-08-04T13:38:08Z</time>
      </trkpt>
      <trkpt lat="47.63883" lon="-2.90083">
        <ele>21.2</ele>
        <time>2021-08-04T13:38:09Z</time>
      </trkpt>
      <trkpt lat="47.63887" lon="-2.90083">
        <ele>21.4</ele>
        <time>2021-08-04T13:38:10Z</time>
      </trkpt>
      <trkpt lat="47.63891" lon="-2.90083">
        <ele>21.4</ele>
        <time>2021-08-04T13:38:11Z</time>
      </trkpt>
      <trkpt lat="47.63895" lon="-2.90083">
        <ele>21.4</ele>
        <time>2021-08-04T13:38:12Z</time>
      </trkpt>
      <trkpt lat="47.63899" lon="-2.90082">
        <ele>21.6</ele>
        <time>2021-08-04T13:38:13Z</time>
      </trkpt>
      <trkpt lat="47.63903" lon="-2.90082">
        <ele>21.6</ele>
        <time>2021-08-04T13:38:14Z</time>
      </trkpt>
      <trkpt lat="47.63908" lon="-2.90082">
        <ele>21.8</ele>
        <time>2021-08-04T13:38:15Z</time>
      </trkpt>
      <trkpt lat="47.63912" lon="-2.90081">
        <ele>21.8</ele>
        <time>2021-08-04T13:38:16Z</time>
      </trkpt>
      <trkpt lat="47.63917" lon="-2.90081">
        <ele>22</ele>
        <time>2021-08-04T13:38:17Z</time>
      </trkpt>
      <trkpt lat="47.63921" lon="-2.9008">
        <ele>22.2</ele>
        <time>2021-08-04T13:38:18Z</time>
      </trkpt>
      <trkpt lat="47.63926" lon="-2.90078">
        <ele>22.2</ele>
        <time>2021-08-04T13:38:19Z</time>
      </trkpt>
      <trkpt lat="47.6393" lon="-2.90076">
        <ele>22.2</ele>
        <time>2021-08-04T13:38:20Z</time>
      </trkpt>
      <trkpt lat="47.63935" lon="-2.90075">
        <ele>22.2</ele>
        <time>2021-08-04T13:38:21Z</time>
      </trkpt>
      <trkpt lat="47.63939" lon="-2.90073">
        <ele>22.2</ele>
        <time>2021-08-04T13:38:22Z</time>
      </trkpt>
      <trkpt lat="47.63944" lon="-2.90071">
        <ele>22.2</ele>
        <time>2021-08-04T13:38:23Z</time>
      </trkpt>
      <trkpt lat="47.63948" lon="-2.90068">
        <ele>22.2</ele>
        <time>2021-08-04T13:38:24Z</time>
      </trkpt>
      <trkpt lat="47.63952" lon="-2.90065">
        <ele>22.2</ele>
        <time>2021-08-04T13:38:25Z</time>
      </trkpt>
      <trkpt lat="47.63956" lon="-2.90061">
        <ele>22.2</ele>
        <time>2021-08-04T13:38:26Z</time>
      </trkpt>
      <trkpt lat="47.6396" lon="-2.90058">
        <ele>22.4</ele>
        <time>2021-08-04T13:38:27Z</time>
      </trkpt>
      <trkpt lat="47.63964" lon="-2.90054">
        <ele>22.4</ele>
        <time>2021-08-04T13:38:28Z</time>
      </trkpt>
      <trkpt lat="47.63968" lon="-2.9005">
        <ele>22.4</ele>
        <time>2021-08-04T13:38:29Z</time>
      </trkpt>
      <trkpt lat="47.63971" lon="-2.90046">
        <ele>22.4</ele>
        <time>2021-08-04T13:38:30Z</time>
      </trkpt>
      <trkpt lat="47.63975" lon="-2.90042">
        <ele>22.4</ele>
        <time>2021-08-04T13:38:31Z</time>
      </trkpt>
      <trkpt lat="47.63979" lon="-2.90038">
        <ele>22.4</ele>
        <time>2021-08-04T13:38:32Z</time>
      </trkpt>
      <trkpt lat="47.63983" lon="-2.90034">
        <ele>22.4</ele>
        <time>2021-08-04T13:38:33Z</time>
      </trkpt>
      <trkpt lat="47.63987" lon="-2.9003">
        <ele>22.4</ele>
        <time>2021-08-04T13:38:34Z</time>
      </trkpt>
      <trkpt lat="47.6399" lon="-2.90026">
        <ele>22.2</ele>
        <time>2021-08-04T13:38:35Z</time>
      </trkpt>
      <trkpt lat="47.63994" lon="-2.90022">
        <ele>22.2</ele>
        <time>2021-08-04T13:38:36Z</time>
      </trkpt>
      <trkpt lat="47.63998" lon="-2.90018">
        <ele>22.2</ele>
        <time>2021-08-04T13:38:37Z</time>
      </trkpt>
      <trkpt lat="47.64002" lon="-2.90014">
        <ele>22.2</ele>
        <time>2021-08-04T13:38:38Z</time>
      </trkpt>
      <trkpt lat="47.64006" lon="-2.9001">
        <ele>22.2</ele>
        <time>2021-08-04T13:38:39Z</time>
      </trkpt>
      <trkpt lat="47.6401" lon="-2.90006">
        <ele>22</ele>
        <time>2021-08-04T13:38:40Z</time>
      </trkpt>
      <trkpt lat="47.64014" lon="-2.90001">
        <ele>22</ele>
        <time>2021-08-04T13:38:41Z</time>
      </trkpt>
      <trkpt lat="47.64018" lon="-2.89997">
        <ele>22</ele>
        <time>2021-08-04T13:38:42Z</time>
      </trkpt>
      <trkpt lat="47.64021" lon="-2.89993">
        <ele>22</ele>
        <time>2021-08-04T13:38:43Z</time>
      </trkpt>
      <trkpt lat="47.64025" lon="-2.89989">
        <ele>22</ele>
        <time>2021-08-04T13:38:44Z</time>
      </trkpt>
      <trkpt lat="47.64029" lon="-2.89985">
        <ele>22</ele>
        <time>2021-08-04T13:38:45Z</time>
      </trkpt>
      <trkpt lat="47.64033" lon="-2.89982">
        <ele>22</ele>
        <time>2021-08-04T13:38:46Z</time>
      </trkpt>
      <trkpt lat="47.64037" lon="-2.89978">
        <ele>22</ele>
        <time>2021-08-04T13:38:47Z</time>
      </trkpt>
      <trkpt lat="47.6404" lon="-2.89974">
        <ele>22</ele>
        <time>2021-08-04T13:38:48Z</time>
      </trkpt>
      <trkpt lat="47.64044" lon="-2.89971">
        <ele>21.8</ele>
        <time>2021-08-04T13:38:49Z</time>
      </trkpt>
      <trkpt lat="47.64048" lon="-2.89967">
        <ele>21.8</ele>
        <time>2021-08-04T13:38:50Z</time>
      </trkpt>
      <trkpt lat="47.64051" lon="-2.89963">
        <ele>21.8</ele>
        <time>2021-08-04T13:38:51Z</time>
      </trkpt>
      <trkpt lat="47.64055" lon="-2.8996">
        <ele>21.8</ele>
        <time>2021-08-04T13:38:52Z</time>
      </trkpt>
      <trkpt lat="47.64058" lon="-2.89957">
        <ele>21.8</ele>
        <time>2021-08-04T13:38:53Z</time>
      </trkpt>
      <trkpt lat="47.64062" lon="-2.89953">
        <ele>21.8</ele>
        <time>2021-08-04T13:38:54Z</time>
      </trkpt>
      <trkpt lat="47.64065" lon="-2.8995">
        <ele>22</ele>
        <time>2021-08-04T13:38:55Z</time>
      </trkpt>
      <trkpt lat="47.64068" lon="-2.89946">
        <ele>22</ele>
        <time>2021-08-04T13:38:56Z</time>
      </trkpt>
      <trkpt lat="47.64072" lon="-2.89943">
        <ele>22</ele>
        <time>2021-08-04T13:38:57Z</time>
      </trkpt>
      <trkpt lat="47.64075" lon="-2.89939">
        <ele>22.2</ele>
        <time>2021-08-04T13:38:58Z</time>
      </trkpt>
      <trkpt lat="47.64079" lon="-2.89936">
        <ele>22.2</ele>
        <time>2021-08-04T13:38:59Z</time>
      </trkpt>
      <trkpt lat="47.64082" lon="-2.89932">
        <ele>22.2</ele>
        <time>2021-08-04T13:39:00Z</time>
      </trkpt>
      <trkpt lat="47.64086" lon="-2.89929">
        <ele>22.4</ele>
        <time>2021-08-04T13:39:01Z</time>
      </trkpt>
      <trkpt lat="47.64089" lon="-2.89925">
        <ele>22.4</ele>
        <time>2021-08-04T13:39:02Z</time>
      </trkpt>
      <trkpt lat="47.64093" lon="-2.89921">
        <ele>22.4</ele>
        <time>2021-08-04T13:39:03Z</time>
      </trkpt>
      <trkpt lat="47.64097" lon="-2.89917">
        <ele>22.6</ele>
        <time>2021-08-04T13:39:04Z</time>
      </trkpt>
      <trkpt lat="47.641" lon="-2.89913">
        <ele>22.6</ele>
        <time>2021-08-04T13:39:05Z</time>
      </trkpt>
      <trkpt lat="47.64104" lon="-2.8991">
        <ele>22.6</ele>
        <time>2021-08-04T13:39:06Z</time>
      </trkpt>
      <trkpt lat="47.64107" lon="-2.89906">
        <ele>22.6</ele>
        <time>2021-08-04T13:39:07Z</time>
      </trkpt>
      <trkpt lat="47.6411" lon="-2.89902">
        <ele>22.8</ele>
        <time>2021-08-04T13:39:08Z</time>
      </trkpt>
      <trkpt lat="47.64114" lon="-2.89899">
        <ele>22.8</ele>
        <time>2021-08-04T13:39:09Z</time>
      </trkpt>
      <trkpt lat="47.64117" lon="-2.89895">
        <ele>22.8</ele>
        <time>2021-08-04T13:39:10Z</time>
      </trkpt>
      <trkpt lat="47.64121" lon="-2.89891">
        <ele>22.8</ele>
        <time>2021-08-04T13:39:11Z</time>
      </trkpt>
      <trkpt lat="47.64124" lon="-2.89887">
        <ele>23</ele>
        <time>2021-08-04T13:39:12Z</time>
      </trkpt>
      <trkpt lat="47.64128" lon="-2.89883">
        <ele>23.2</ele>
        <time>2021-08-04T13:39:13Z</time>
      </trkpt>
      <trkpt lat="47.64131" lon="-2.89878">
        <ele>23.2</ele>
        <time>2021-08-04T13:39:14Z</time>
      </trkpt>
      <trkpt lat="47.64134" lon="-2.89873">
        <ele>23.2</ele>
        <time>2021-08-04T13:39:15Z</time>
      </trkpt>
      <trkpt lat="47.64137" lon="-2.89868">
        <ele>23.2</ele>
        <time>2021-08-04T13:39:16Z</time>
      </trkpt>
      <trkpt lat="47.64141" lon="-2.89863">
        <ele>23.4</ele>
        <time>2021-08-04T13:39:17Z</time>
      </trkpt>
      <trkpt lat="47.64144" lon="-2.89858">
        <ele>23.4</ele>
        <time>2021-08-04T13:39:18Z</time>
      </trkpt>
      <trkpt lat="47.64147" lon="-2.89853">
        <ele>23.4</ele>
        <time>2021-08-04T13:39:19Z</time>
      </trkpt>
      <trkpt lat="47.6415" lon="-2.89847">
        <ele>23.4</ele>
        <time>2021-08-04T13:39:20Z</time>
      </trkpt>
      <trkpt lat="47.64152" lon="-2.89842">
        <ele>23.4</ele>
        <time>2021-08-04T13:39:21Z</time>
      </trkpt>
      <trkpt lat="47.64155" lon="-2.89837">
        <ele>23.4</ele>
        <time>2021-08-04T13:39:22Z</time>
      </trkpt>
      <trkpt lat="47.64158" lon="-2.89832">
        <ele>23.6</ele>
        <time>2021-08-04T13:39:23Z</time>
      </trkpt>
      <trkpt lat="47.64161" lon="-2.89827">
        <ele>23.6</ele>
        <time>2021-08-04T13:39:24Z</time>
      </trkpt>
      <trkpt lat="47.64164" lon="-2.89821">
        <ele>23.6</ele>
        <time>2021-08-04T13:39:25Z</time>
      </trkpt>
      <trkpt lat="47.64167" lon="-2.89816">
        <ele>23.6</ele>
        <time>2021-08-04T13:39:26Z</time>
      </trkpt>
      <trkpt lat="47.64169" lon="-2.89811">
        <ele>23.6</ele>
        <time>2021-08-04T13:39:27Z</time>
      </trkpt>
      <trkpt lat="47.64172" lon="-2.89806">
        <ele>23.6</ele>
        <time>2021-08-04T13:39:28Z</time>
      </trkpt>
      <trkpt lat="47.64175" lon="-2.89801">
        <ele>23.6</ele>
        <time>2021-08-04T13:39:29Z</time>
      </trkpt>
      <trkpt lat="47.64177" lon="-2.89796">
        <ele>23.6</ele>
        <time>2021-08-04T13:39:30Z</time>
      </trkpt>
      <trkpt lat="47.64179" lon="-2.89791">
        <ele>23.6</ele>
        <time>2021-08-04T13:39:31Z</time>
      </trkpt>
      <trkpt lat="47.64182" lon="-2.89786">
        <ele>23.6</ele>
        <time>2021-08-04T13:39:32Z</time>
      </trkpt>
      <trkpt lat="47.64184" lon="-2.89782">
        <ele>23.6</ele>
        <time>2021-08-04T13:39:33Z</time>
      </trkpt>
      <trkpt lat="47.64187" lon="-2.89777">
        <ele>23.8</ele>
        <time>2021-08-04T13:39:34Z</time>
      </trkpt>
      <trkpt lat="47.64189" lon="-2.89773">
        <ele>23.8</ele>
        <time>2021-08-04T13:39:35Z</time>
      </trkpt>
      <trkpt lat="47.64192" lon="-2.89769">
        <ele>24</ele>
        <time>2021-08-04T13:39:36Z</time>
      </trkpt>
      <trkpt lat="47.64195" lon="-2.89765">
        <ele>24.2</ele>
        <time>2021-08-04T13:39:37Z</time>
      </trkpt>
      <trkpt lat="47.64198" lon="-2.89761">
        <ele>24.4</ele>
        <time>2021-08-04T13:39:38Z</time>
      </trkpt>
      <trkpt lat="47.64202" lon="-2.89758">
        <ele>24.4</ele>
        <time>2021-08-04T13:39:39Z</time>
      </trkpt>
      <trkpt lat="47.64205" lon="-2.89755">
        <ele>24.6</ele>
        <time>2021-08-04T13:39:40Z</time>
      </trkpt>
      <trkpt lat="47.64209" lon="-2.89753">
        <ele>24.6</ele>
        <time>2021-08-04T13:39:41Z</time>
      </trkpt>
      <trkpt lat="47.64213" lon="-2.8975">
        <ele>24.6</ele>
        <time>2021-08-04T13:39:42Z</time>
      </trkpt>
      <trkpt lat="47.64217" lon="-2.89748">
        <ele>24.6</ele>
        <time>2021-08-04T13:39:43Z</time>
      </trkpt>
      <trkpt lat="47.64221" lon="-2.89746">
        <ele>24.6</ele>
        <time>2021-08-04T13:39:44Z</time>
      </trkpt>
      <trkpt lat="47.64226" lon="-2.89744">
        <ele>24.6</ele>
        <time>2021-08-04T13:39:45Z</time>
      </trkpt>
      <trkpt lat="47.6423" lon="-2.89743">
        <ele>24.6</ele>
        <time>2021-08-04T13:39:46Z</time>
      </trkpt>
      <trkpt lat="47.64235" lon="-2.89741">
        <ele>24.6</ele>
        <time>2021-08-04T13:39:47Z</time>
      </trkpt>
      <trkpt lat="47.64239" lon="-2.89738">
        <ele>24.6</ele>
        <time>2021-08-04T13:39:48Z</time>
      </trkpt>
      <trkpt lat="47.64244" lon="-2.89734">
        <ele>24.6</ele>
        <time>2021-08-04T13:39:49Z</time>
      </trkpt>
      <trkpt lat="47.64249" lon="-2.89731">
        <ele>24.6</ele>
        <time>2021-08-04T13:39:50Z</time>
      </trkpt>
      <trkpt lat="47.64254" lon="-2.89728">
        <ele>24.6</ele>
        <time>2021-08-04T13:39:51Z</time>
      </trkpt>
      <trkpt lat="47.64258" lon="-2.89725">
        <ele>24.4</ele>
        <time>2021-08-04T13:39:52Z</time>
      </trkpt>
      <trkpt lat="47.64263" lon="-2.89721">
        <ele>24.2</ele>
        <time>2021-08-04T13:39:53Z</time>
      </trkpt>
      <trkpt lat="47.64267" lon="-2.89717">
        <ele>24</ele>
        <time>2021-08-04T13:39:54Z</time>
      </trkpt>
      <trkpt lat="47.64271" lon="-2.89713">
        <ele>23.6</ele>
        <time>2021-08-04T13:39:55Z</time>
      </trkpt>
      <trkpt lat="47.64274" lon="-2.89711">
        <ele>23.4</ele>
        <time>2021-08-04T13:39:56Z</time>
      </trkpt>
      <trkpt lat="47.64279" lon="-2.89711">
        <ele>23.2</ele>
        <time>2021-08-04T13:39:57Z</time>
      </trkpt>
      <trkpt lat="47.64283" lon="-2.89713">
        <ele>23.2</ele>
        <time>2021-08-04T13:39:58Z</time>
      </trkpt>
      <trkpt lat="47.64286" lon="-2.89717">
        <ele>23</ele>
        <time>2021-08-04T13:39:59Z</time>
      </trkpt>
      <trkpt lat="47.64288" lon="-2.8972">
        <ele>23</ele>
        <time>2021-08-04T13:40:00Z</time>
      </trkpt>
      <trkpt lat="47.64291" lon="-2.89723">
        <ele>23</ele>
        <time>2021-08-04T13:40:01Z</time>
      </trkpt>
      <trkpt lat="47.64292" lon="-2.89726">
        <ele>23</ele>
        <time>2021-08-04T13:40:02Z</time>
      </trkpt>
      <trkpt lat="47.64293" lon="-2.89731">
        <ele>23</ele>
        <time>2021-08-04T13:40:03Z</time>
      </trkpt>
      <trkpt lat="47.64294" lon="-2.89736">
        <ele>23</ele>
        <time>2021-08-04T13:40:04Z</time>
      </trkpt>
      <trkpt lat="47.64295" lon="-2.89741">
        <ele>23</ele>
        <time>2021-08-04T13:40:05Z</time>
      </trkpt>
      <trkpt lat="47.64296" lon="-2.89747">
        <ele>23</ele>
        <time>2021-08-04T13:40:06Z</time>
      </trkpt>
      <trkpt lat="47.64297" lon="-2.89753">
        <ele>23</ele>
        <time>2021-08-04T13:40:07Z</time>
      </trkpt>
      <trkpt lat="47.64297" lon="-2.89759">
        <ele>23</ele>
        <time>2021-08-04T13:40:08Z</time>
      </trkpt>
      <trkpt lat="47.64298" lon="-2.89766">
        <ele>23</ele>
        <time>2021-08-04T13:40:09Z</time>
      </trkpt>
      <trkpt lat="47.64299" lon="-2.89774">
        <ele>23</ele>
        <time>2021-08-04T13:40:10Z</time>
      </trkpt>
      <trkpt lat="47.643" lon="-2.89781">
        <ele>23</ele>
        <time>2021-08-04T13:40:11Z</time>
      </trkpt>
      <trkpt lat="47.64301" lon="-2.89788">
        <ele>23</ele>
        <time>2021-08-04T13:40:12Z</time>
      </trkpt>
      <trkpt lat="47.64302" lon="-2.89795">
        <ele>23</ele>
        <time>2021-08-04T13:40:13Z</time>
      </trkpt>
      <trkpt lat="47.64303" lon="-2.89802">
        <ele>23</ele>
        <time>2021-08-04T13:40:14Z</time>
      </trkpt>
      <trkpt lat="47.64303" lon="-2.8981">
        <ele>23</ele>
        <time>2021-08-04T13:40:15Z</time>
      </trkpt>
      <trkpt lat="47.64304" lon="-2.89817">
        <ele>23</ele>
        <time>2021-08-04T13:40:16Z</time>
      </trkpt>
      <trkpt lat="47.64304" lon="-2.89824">
        <ele>23</ele>
        <time>2021-08-04T13:40:17Z</time>
      </trkpt>
      <trkpt lat="47.64304" lon="-2.8983">
        <ele>23</ele>
        <time>2021-08-04T13:40:18Z</time>
      </trkpt>
      <trkpt lat="47.64304" lon="-2.89835">
        <ele>22.8</ele>
        <time>2021-08-04T13:40:19Z</time>
      </trkpt>
      <trkpt lat="47.64304" lon="-2.89841">
        <ele>22.6</ele>
        <time>2021-08-04T13:40:20Z</time>
      </trkpt>
      <trkpt lat="47.64305" lon="-2.89846">
        <ele>22.6</ele>
        <time>2021-08-04T13:40:21Z</time>
      </trkpt>
      <trkpt lat="47.64305" lon="-2.8985">
        <ele>22.6</ele>
        <time>2021-08-04T13:40:22Z</time>
      </trkpt>
      <trkpt lat="47.64306" lon="-2.89853">
        <ele>22.6</ele>
        <time>2021-08-04T13:40:23Z</time>
      </trkpt>
      <trkpt lat="47.64307" lon="-2.89856">
        <ele>22.6</ele>
        <time>2021-08-04T13:40:24Z</time>
      </trkpt>
      <trkpt lat="47.64308" lon="-2.89859">
        <ele>22.6</ele>
        <time>2021-08-04T13:40:25Z</time>
      </trkpt>
      <trkpt lat="47.64309" lon="-2.89862">
        <ele>22.6</ele>
        <time>2021-08-04T13:40:26Z</time>
      </trkpt>
      <trkpt lat="47.6431" lon="-2.89864">
        <ele>22.6</ele>
        <time>2021-08-04T13:40:27Z</time>
      </trkpt>
      <trkpt lat="47.64312" lon="-2.89866">
        <ele>22.6</ele>
        <time>2021-08-04T13:40:28Z</time>
      </trkpt>
      <trkpt lat="47.64313" lon="-2.89867">
        <ele>22.6</ele>
        <time>2021-08-04T13:40:29Z</time>
      </trkpt>
      <trkpt lat="47.64315" lon="-2.89869">
        <ele>22.6</ele>
        <time>2021-08-04T13:40:30Z</time>
      </trkpt>
      <trkpt lat="47.64316" lon="-2.89872">
        <ele>22.6</ele>
        <time>2021-08-04T13:40:31Z</time>
      </trkpt>
      <trkpt lat="47.64318" lon="-2.89874">
        <ele>22.6</ele>
        <time>2021-08-04T13:40:32Z</time>
      </trkpt>
      <trkpt lat="47.6432" lon="-2.89876">
        <ele>22.6</ele>
        <time>2021-08-04T13:40:33Z</time>
      </trkpt>
      <trkpt lat="47.64322" lon="-2.89878">
        <ele>22.6</ele>
        <time>2021-08-04T13:40:34Z</time>
      </trkpt>
      <trkpt lat="47.64323" lon="-2.8988">
        <ele>22.6</ele>
        <time>2021-08-04T13:40:35Z</time>
      </trkpt>
      <trkpt lat="47.64325" lon="-2.89883">
        <ele>22.6</ele>
        <time>2021-08-04T13:40:36Z</time>
      </trkpt>
      <trkpt lat="47.64326" lon="-2.89886">
        <ele>22.6</ele>
        <time>2021-08-04T13:40:37Z</time>
      </trkpt>
      <trkpt lat="47.64327" lon="-2.8989">
        <ele>22.8</ele>
        <time>2021-08-04T13:40:38Z</time>
      </trkpt>
      <trkpt lat="47.64329" lon="-2.89894">
        <ele>22.8</ele>
        <time>2021-08-04T13:40:39Z</time>
      </trkpt>
      <trkpt lat="47.6433" lon="-2.89898">
        <ele>22.8</ele>
        <time>2021-08-04T13:40:40Z</time>
      </trkpt>
      <trkpt lat="47.64331" lon="-2.89902">
        <ele>22.8</ele>
        <time>2021-08-04T13:40:41Z</time>
      </trkpt>
      <trkpt lat="47.64334" lon="-2.89908">
        <ele>22.8</ele>
        <time>2021-08-04T13:40:42Z</time>
      </trkpt>
      <trkpt lat="47.64336" lon="-2.8991">
        <ele>22.8</ele>
        <time>2021-08-04T13:40:43Z</time>
      </trkpt>
      <trkpt lat="47.64339" lon="-2.89911">
        <ele>22.8</ele>
        <time>2021-08-04T13:40:44Z</time>
      </trkpt>
      <trkpt lat="47.64342" lon="-2.8991">
        <ele>22.8</ele>
        <time>2021-08-04T13:40:45Z</time>
      </trkpt>
      <trkpt lat="47.64305" lon="-2.89866">
        <ele>34.6</ele>
        <time>2021-08-05T09:04:08Z</time>
      </trkpt>
      <trkpt lat="47.64305" lon="-2.89862">
        <ele>34.6</ele>
        <time>2021-08-05T09:04:09Z</time>
      </trkpt>
      <trkpt lat="47.64305" lon="-2.89858">
        <ele>34.6</ele>
        <time>2021-08-05T09:04:10Z</time>
      </trkpt>
      <trkpt lat="47.64305" lon="-2.89851">
        <ele>34.6</ele>
        <time>2021-08-05T09:04:12Z</time>
      </trkpt>
      <trkpt lat="47.64304" lon="-2.89847">
        <ele>34.6</ele>
        <time>2021-08-05T09:04:13Z</time>
      </trkpt>
      <trkpt lat="47.64305" lon="-2.89844">
        <ele>34.6</ele>
        <time>2021-08-05T09:04:14Z</time>
      </trkpt>
      <trkpt lat="47.64304" lon="-2.89841">
        <ele>34.6</ele>
        <time>2021-08-05T09:04:15Z</time>
      </trkpt>
      <trkpt lat="47.64303" lon="-2.89838">
        <ele>34.6</ele>
        <time>2021-08-05T09:04:16Z</time>
      </trkpt>
      <trkpt lat="47.64302" lon="-2.89833">
        <ele>34.6</ele>
        <time>2021-08-05T09:04:17Z</time>
      </trkpt>
      <trkpt lat="47.64302" lon="-2.89829">
        <ele>34.6</ele>
        <time>2021-08-05T09:04:18Z</time>
      </trkpt>
      <trkpt lat="47.64301" lon="-2.89825">
        <ele>34.6</ele>
        <time>2021-08-05T09:04:19Z</time>
      </trkpt>
      <trkpt lat="47.643" lon="-2.89821">
        <ele>34.6</ele>
        <time>2021-08-05T09:04:20Z</time>
      </trkpt>
      <trkpt lat="47.64299" lon="-2.89814">
        <ele>34.8</ele>
        <time>2021-08-05T09:04:22Z</time>
      </trkpt>
      <trkpt lat="47.64298" lon="-2.89811">
        <ele>35</ele>
        <time>2021-08-05T09:04:23Z</time>
      </trkpt>
      <trkpt lat="47.64297" lon="-2.89806">
        <ele>35</ele>
        <time>2021-08-05T09:04:24Z</time>
      </trkpt>
      <trkpt lat="47.64296" lon="-2.89802">
        <ele>35.2</ele>
        <time>2021-08-05T09:04:25Z</time>
      </trkpt>
      <trkpt lat="47.64295" lon="-2.89797">
        <ele>35.2</ele>
        <time>2021-08-05T09:04:26Z</time>
      </trkpt>
      <trkpt lat="47.64294" lon="-2.89792">
        <ele>35.2</ele>
        <time>2021-08-05T09:04:27Z</time>
      </trkpt>
      <trkpt lat="47.64293" lon="-2.89788">
        <ele>35.2</ele>
        <time>2021-08-05T09:04:28Z</time>
      </trkpt>
      <trkpt lat="47.64291" lon="-2.89784">
        <ele>35.2</ele>
        <time>2021-08-05T09:04:29Z</time>
      </trkpt>
      <trkpt lat="47.6429" lon="-2.89779">
        <ele>35.4</ele>
        <time>2021-08-05T09:04:30Z</time>
      </trkpt>
      <trkpt lat="47.64289" lon="-2.89775">
        <ele>35.4</ele>
        <time>2021-08-05T09:04:31Z</time>
      </trkpt>
      <trkpt lat="47.64287" lon="-2.89769">
        <ele>35.4</ele>
        <time>2021-08-05T09:04:32Z</time>
      </trkpt>
      <trkpt lat="47.64286" lon="-2.89764">
        <ele>35.4</ele>
        <time>2021-08-05T09:04:33Z</time>
      </trkpt>
      <trkpt lat="47.64286" lon="-2.8976">
        <ele>35.4</ele>
        <time>2021-08-05T09:04:34Z</time>
      </trkpt>
      <trkpt lat="47.64286" lon="-2.89758">
        <ele>35.4</ele>
        <time>2021-08-05T09:04:35Z</time>
      </trkpt>
      <trkpt lat="47.64286" lon="-2.89756">
        <ele>35.6</ele>
        <time>2021-08-05T09:04:36Z</time>
      </trkpt>
      <trkpt lat="47.64285" lon="-2.89754">
        <ele>35.6</ele>
        <time>2021-08-05T09:04:37Z</time>
      </trkpt>
      <trkpt lat="47.64285" lon="-2.89752">
        <ele>35.6</ele>
        <time>2021-08-05T09:04:38Z</time>
      </trkpt>
      <trkpt lat="47.64284" lon="-2.8975">
        <ele>35.6</ele>
        <time>2021-08-05T09:04:39Z</time>
      </trkpt>
      <trkpt lat="47.64284" lon="-2.89748">
        <ele>35.6</ele>
        <time>2021-08-05T09:04:40Z</time>
      </trkpt>
      <trkpt lat="47.64284" lon="-2.89746">
        <ele>35.8</ele>
        <time>2021-08-05T09:04:41Z</time>
      </trkpt>
      <trkpt lat="47.64284" lon="-2.89745">
        <ele>35.8</ele>
        <time>2021-08-05T09:04:42Z</time>
      </trkpt>
      <trkpt lat="47.64284" lon="-2.89744">
        <ele>35.8</ele>
        <time>2021-08-05T09:04:43Z</time>
      </trkpt>
      <trkpt lat="47.64284" lon="-2.89742">
        <ele>35.8</ele>
        <time>2021-08-05T09:04:44Z</time>
      </trkpt>
      <trkpt lat="47.64284" lon="-2.89741">
        <ele>35.8</ele>
        <time>2021-08-05T09:04:45Z</time>
      </trkpt>
      <trkpt lat="47.64284" lon="-2.89735">
        <ele>35.8</ele>
        <time>2021-08-05T09:04:47Z</time>
      </trkpt>
      <trkpt lat="47.64285" lon="-2.89732">
        <ele>35.8</ele>
        <time>2021-08-05T09:04:48Z</time>
      </trkpt>
      <trkpt lat="47.64285" lon="-2.89728">
        <ele>35.8</ele>
        <time>2021-08-05T09:04:49Z</time>
      </trkpt>
      <trkpt lat="47.64286" lon="-2.89725">
        <ele>35.8</ele>
        <time>2021-08-05T09:04:50Z</time>
      </trkpt>
      <trkpt lat="47.64286" lon="-2.89721">
        <ele>35.8</ele>
        <time>2021-08-05T09:04:51Z</time>
      </trkpt>
      <trkpt lat="47.64287" lon="-2.89718">
        <ele>35.8</ele>
        <time>2021-08-05T09:04:52Z</time>
      </trkpt>
      <trkpt lat="47.64288" lon="-2.89714">
        <ele>35.8</ele>
        <time>2021-08-05T09:04:53Z</time>
      </trkpt>
      <trkpt lat="47.6429" lon="-2.89711">
        <ele>35.8</ele>
        <time>2021-08-05T09:04:54Z</time>
      </trkpt>
      <trkpt lat="47.64291" lon="-2.89708">
        <ele>35.8</ele>
        <time>2021-08-05T09:04:55Z</time>
      </trkpt>
      <trkpt lat="47.64293" lon="-2.89705">
        <ele>35.8</ele>
        <time>2021-08-05T09:04:56Z</time>
      </trkpt>
      <trkpt lat="47.64296" lon="-2.89702">
        <ele>35.6</ele>
        <time>2021-08-05T09:04:57Z</time>
      </trkpt>
      <trkpt lat="47.64297" lon="-2.89698">
        <ele>35.6</ele>
        <time>2021-08-05T09:04:58Z</time>
      </trkpt>
      <trkpt lat="47.64298" lon="-2.89693">
        <ele>35.6</ele>
        <time>2021-08-05T09:04:59Z</time>
      </trkpt>
      <trkpt lat="47.64298" lon="-2.89688">
        <ele>35.6</ele>
        <time>2021-08-05T09:05:00Z</time>
      </trkpt>
      <trkpt lat="47.64298" lon="-2.89683">
        <ele>35.6</ele>
        <time>2021-08-05T09:05:01Z</time>
      </trkpt>
      <trkpt lat="47.64296" lon="-2.89679">
        <ele>35.6</ele>
        <time>2021-08-05T09:05:02Z</time>
      </trkpt>
      <trkpt lat="47.64295" lon="-2.89675">
        <ele>35.4</ele>
        <time>2021-08-05T09:05:03Z</time>
      </trkpt>
      <trkpt lat="47.64293" lon="-2.8967">
        <ele>35.4</ele>
        <time>2021-08-05T09:05:04Z</time>
      </trkpt>
      <trkpt lat="47.64289" lon="-2.89662">
        <ele>35.4</ele>
        <time>2021-08-05T09:05:06Z</time>
      </trkpt>
      <trkpt lat="47.64287" lon="-2.89658">
        <ele>35.4</ele>
        <time>2021-08-05T09:05:07Z</time>
      </trkpt>
      <trkpt lat="47.64285" lon="-2.89653">
        <ele>35.4</ele>
        <time>2021-08-05T09:05:08Z</time>
      </trkpt>
      <trkpt lat="47.64284" lon="-2.89649">
        <ele>35.4</ele>
        <time>2021-08-05T09:05:09Z</time>
      </trkpt>
      <trkpt lat="47.64282" lon="-2.89645">
        <ele>35.4</ele>
        <time>2021-08-05T09:05:10Z</time>
      </trkpt>
      <trkpt lat="47.64281" lon="-2.89643">
        <ele>35.4</ele>
        <time>2021-08-05T09:05:11Z</time>
      </trkpt>
      <trkpt lat="47.6428" lon="-2.89638">
        <ele>35.2</ele>
        <time>2021-08-05T09:05:12Z</time>
      </trkpt>
      <trkpt lat="47.64278" lon="-2.89633">
        <ele>35.2</ele>
        <time>2021-08-05T09:05:13Z</time>
      </trkpt>
      <trkpt lat="47.64277" lon="-2.89629">
        <ele>35.2</ele>
        <time>2021-08-05T09:05:14Z</time>
      </trkpt>
      <trkpt lat="47.64276" lon="-2.89624">
        <ele>35.2</ele>
        <time>2021-08-05T09:05:15Z</time>
      </trkpt>
      <trkpt lat="47.64272" lon="-2.89614">
        <ele>35.4</ele>
        <time>2021-08-05T09:05:17Z</time>
      </trkpt>
      <trkpt lat="47.6427" lon="-2.89609">
        <ele>35.4</ele>
        <time>2021-08-05T09:05:18Z</time>
      </trkpt>
      <trkpt lat="47.64268" lon="-2.89605">
        <ele>35.4</ele>
        <time>2021-08-05T09:05:19Z</time>
      </trkpt>
      <trkpt lat="47.64266" lon="-2.89599">
        <ele>35.4</ele>
        <time>2021-08-05T09:05:20Z</time>
      </trkpt>
      <trkpt lat="47.64264" lon="-2.89594">
        <ele>35.4</ele>
        <time>2021-08-05T09:05:21Z</time>
      </trkpt>
      <trkpt lat="47.64262" lon="-2.89589">
        <ele>35.4</ele>
        <time>2021-08-05T09:05:22Z</time>
      </trkpt>
      <trkpt lat="47.6426" lon="-2.89584">
        <ele>35.4</ele>
        <time>2021-08-05T09:05:23Z</time>
      </trkpt>
      <trkpt lat="47.64258" lon="-2.8958">
        <ele>35.6</ele>
        <time>2021-08-05T09:05:24Z</time>
      </trkpt>
      <trkpt lat="47.64256" lon="-2.89575">
        <ele>35.6</ele>
        <time>2021-08-05T09:05:25Z</time>
      </trkpt>
      <trkpt lat="47.64254" lon="-2.89571">
        <ele>35.6</ele>
        <time>2021-08-05T09:05:26Z</time>
      </trkpt>
      <trkpt lat="47.64252" lon="-2.89567">
        <ele>35.6</ele>
        <time>2021-08-05T09:05:27Z</time>
      </trkpt>
      <trkpt lat="47.64249" lon="-2.89564">
        <ele>35.6</ele>
        <time>2021-08-05T09:05:28Z</time>
      </trkpt>
      <trkpt lat="47.64247" lon="-2.8956">
        <ele>35.8</ele>
        <time>2021-08-05T09:05:29Z</time>
      </trkpt>
      <trkpt lat="47.64244" lon="-2.89557">
        <ele>35.8</ele>
        <time>2021-08-05T09:05:30Z</time>
      </trkpt>
      <trkpt lat="47.64241" lon="-2.89553">
        <ele>35.8</ele>
        <time>2021-08-05T09:05:31Z</time>
      </trkpt>
      <trkpt lat="47.64239" lon="-2.8955">
        <ele>35.8</ele>
        <time>2021-08-05T09:05:32Z</time>
      </trkpt>
      <trkpt lat="47.64236" lon="-2.89547">
        <ele>35.8</ele>
        <time>2021-08-05T09:05:33Z</time>
      </trkpt>
      <trkpt lat="47.64233" lon="-2.89544">
        <ele>35.8</ele>
        <time>2021-08-05T09:05:34Z</time>
      </trkpt>
      <trkpt lat="47.64231" lon="-2.89541">
        <ele>35.8</ele>
        <time>2021-08-05T09:05:35Z</time>
      </trkpt>
      <trkpt lat="47.64228" lon="-2.89537">
        <ele>36</ele>
        <time>2021-08-05T09:05:36Z</time>
      </trkpt>
      <trkpt lat="47.64226" lon="-2.89534">
        <ele>36</ele>
        <time>2021-08-05T09:05:37Z</time>
      </trkpt>
      <trkpt lat="47.64222" lon="-2.89528">
        <ele>36</ele>
        <time>2021-08-05T09:05:39Z</time>
      </trkpt>
      <trkpt lat="47.64219" lon="-2.89524">
        <ele>36</ele>
        <time>2021-08-05T09:05:40Z</time>
      </trkpt>
      <trkpt lat="47.64217" lon="-2.89519">
        <ele>36</ele>
        <time>2021-08-05T09:05:41Z</time>
      </trkpt>
      <trkpt lat="47.64215" lon="-2.89514">
        <ele>36</ele>
        <time>2021-08-05T09:05:42Z</time>
      </trkpt>
      <trkpt lat="47.64212" lon="-2.8951">
        <ele>36</ele>
        <time>2021-08-05T09:05:43Z</time>
      </trkpt>
      <trkpt lat="47.64209" lon="-2.89504">
        <ele>36</ele>
        <time>2021-08-05T09:05:44Z</time>
      </trkpt>
      <trkpt lat="47.64207" lon="-2.89499">
        <ele>36</ele>
        <time>2021-08-05T09:05:45Z</time>
      </trkpt>
      <trkpt lat="47.64205" lon="-2.89494">
        <ele>36</ele>
        <time>2021-08-05T09:05:46Z</time>
      </trkpt>
      <trkpt lat="47.64202" lon="-2.89488">
        <ele>36</ele>
        <time>2021-08-05T09:05:47Z</time>
      </trkpt>
      <trkpt lat="47.64199" lon="-2.89483">
        <ele>36</ele>
        <time>2021-08-05T09:05:48Z</time>
      </trkpt>
      <trkpt lat="47.64194" lon="-2.89472">
        <ele>36</ele>
        <time>2021-08-05T09:05:50Z</time>
      </trkpt>
      <trkpt lat="47.64192" lon="-2.89467">
        <ele>36</ele>
        <time>2021-08-05T09:05:51Z</time>
      </trkpt>
      <trkpt lat="47.6419" lon="-2.89462">
        <ele>36</ele>
        <time>2021-08-05T09:05:52Z</time>
      </trkpt>
      <trkpt lat="47.64187" lon="-2.89456">
        <ele>36</ele>
        <time>2021-08-05T09:05:53Z</time>
      </trkpt>
      <trkpt lat="47.64185" lon="-2.89451">
        <ele>36</ele>
        <time>2021-08-05T09:05:54Z</time>
      </trkpt>
      <trkpt lat="47.64183" lon="-2.89446">
        <ele>36</ele>
        <time>2021-08-05T09:05:55Z</time>
      </trkpt>
      <trkpt lat="47.64181" lon="-2.89441">
        <ele>36</ele>
        <time>2021-08-05T09:05:56Z</time>
      </trkpt>
      <trkpt lat="47.64179" lon="-2.89436">
        <ele>36</ele>
        <time>2021-08-05T09:05:57Z</time>
      </trkpt>
      <trkpt lat="47.64176" lon="-2.89431">
        <ele>36</ele>
        <time>2021-08-05T09:05:58Z</time>
      </trkpt>
      <trkpt lat="47.64174" lon="-2.89427">
        <ele>36</ele>
        <time>2021-08-05T09:05:59Z</time>
      </trkpt>
      <trkpt lat="47.64171" lon="-2.89418">
        <ele>36</ele>
        <time>2021-08-05T09:06:01Z</time>
      </trkpt>
      <trkpt lat="47.6417" lon="-2.89413">
        <ele>36.2</ele>
        <time>2021-08-05T09:06:02Z</time>
      </trkpt>
      <trkpt lat="47.64168" lon="-2.89408">
        <ele>36.2</ele>
        <time>2021-08-05T09:06:03Z</time>
      </trkpt>
      <trkpt lat="47.64165" lon="-2.89404">
        <ele>36.2</ele>
        <time>2021-08-05T09:06:04Z</time>
      </trkpt>
      <trkpt lat="47.64163" lon="-2.894">
        <ele>36.2</ele>
        <time>2021-08-05T09:06:05Z</time>
      </trkpt>
      <trkpt lat="47.64161" lon="-2.89395">
        <ele>36.2</ele>
        <time>2021-08-05T09:06:06Z</time>
      </trkpt>
      <trkpt lat="47.64159" lon="-2.89391">
        <ele>36.2</ele>
        <time>2021-08-05T09:06:07Z</time>
      </trkpt>
      <trkpt lat="47.64157" lon="-2.89386">
        <ele>36.2</ele>
        <time>2021-08-05T09:06:08Z</time>
      </trkpt>
      <trkpt lat="47.64155" lon="-2.89381">
        <ele>36.4</ele>
        <time>2021-08-05T09:06:09Z</time>
      </trkpt>
      <trkpt lat="47.64153" lon="-2.89376">
        <ele>36.4</ele>
        <time>2021-08-05T09:06:10Z</time>
      </trkpt>
      <trkpt lat="47.64148" lon="-2.89367">
        <ele>36.6</ele>
        <time>2021-08-05T09:06:12Z</time>
      </trkpt>
      <trkpt lat="47.64146" lon="-2.89363">
        <ele>36.6</ele>
        <time>2021-08-05T09:06:13Z</time>
      </trkpt>
      <trkpt lat="47.64144" lon="-2.89358">
        <ele>36.6</ele>
        <time>2021-08-05T09:06:14Z</time>
      </trkpt>
      <trkpt lat="47.64142" lon="-2.89354">
        <ele>36.6</ele>
        <time>2021-08-05T09:06:15Z</time>
      </trkpt>
      <trkpt lat="47.6414" lon="-2.89349">
        <ele>36.6</ele>
        <time>2021-08-05T09:06:16Z</time>
      </trkpt>
      <trkpt lat="47.64138" lon="-2.89344">
        <ele>36.6</ele>
        <time>2021-08-05T09:06:17Z</time>
      </trkpt>
      <trkpt lat="47.64136" lon="-2.8934">
        <ele>36.6</ele>
        <time>2021-08-05T09:06:18Z</time>
      </trkpt>
      <trkpt lat="47.64134" lon="-2.89335">
        <ele>36.6</ele>
        <time>2021-08-05T09:06:19Z</time>
      </trkpt>
      <trkpt lat="47.64132" lon="-2.8933">
        <ele>36.6</ele>
        <time>2021-08-05T09:06:20Z</time>
      </trkpt>
      <trkpt lat="47.6413" lon="-2.89325">
        <ele>36.6</ele>
        <time>2021-08-05T09:06:21Z</time>
      </trkpt>
      <trkpt lat="47.64126" lon="-2.89315">
        <ele>36.6</ele>
        <time>2021-08-05T09:06:23Z</time>
      </trkpt>
      <trkpt lat="47.64124" lon="-2.89311">
        <ele>36.6</ele>
        <time>2021-08-05T09:06:24Z</time>
      </trkpt>
      <trkpt lat="47.64122" lon="-2.89306">
        <ele>36.8</ele>
        <time>2021-08-05T09:06:25Z</time>
      </trkpt>
      <trkpt lat="47.6412" lon="-2.89301">
        <ele>36.8</ele>
        <time>2021-08-05T09:06:26Z</time>
      </trkpt>
      <trkpt lat="47.64118" lon="-2.89296">
        <ele>36.8</ele>
        <time>2021-08-05T09:06:27Z</time>
      </trkpt>
      <trkpt lat="47.64116" lon="-2.89292">
        <ele>36.8</ele>
        <time>2021-08-05T09:06:28Z</time>
      </trkpt>
      <trkpt lat="47.64113" lon="-2.89287">
        <ele>36.8</ele>
        <time>2021-08-05T09:06:29Z</time>
      </trkpt>
      <trkpt lat="47.64111" lon="-2.89282">
        <ele>36.8</ele>
        <time>2021-08-05T09:06:30Z</time>
      </trkpt>
      <trkpt lat="47.64109" lon="-2.89277">
        <ele>36.8</ele>
        <time>2021-08-05T09:06:31Z</time>
      </trkpt>
      <trkpt lat="47.64107" lon="-2.89272">
        <ele>36.8</ele>
        <time>2021-08-05T09:06:32Z</time>
      </trkpt>
      <trkpt lat="47.64105" lon="-2.89267">
        <ele>36.8</ele>
        <time>2021-08-05T09:06:33Z</time>
      </trkpt>
      <trkpt lat="47.64103" lon="-2.89263">
        <ele>36.8</ele>
        <time>2021-08-05T09:06:34Z</time>
      </trkpt>
      <trkpt lat="47.64101" lon="-2.89258">
        <ele>36.8</ele>
        <time>2021-08-05T09:06:35Z</time>
      </trkpt>
      <trkpt lat="47.64099" lon="-2.89254">
        <ele>36.8</ele>
        <time>2021-08-05T09:06:36Z</time>
      </trkpt>
      <trkpt lat="47.64097" lon="-2.8925">
        <ele>36.8</ele>
        <time>2021-08-05T09:06:37Z</time>
      </trkpt>
      <trkpt lat="47.64095" lon="-2.89245">
        <ele>36.8</ele>
        <time>2021-08-05T09:06:38Z</time>
      </trkpt>
      <trkpt lat="47.64093" lon="-2.89241">
        <ele>36.8</ele>
        <time>2021-08-05T09:06:39Z</time>
      </trkpt>
      <trkpt lat="47.64091" lon="-2.89236">
        <ele>36.8</ele>
        <time>2021-08-05T09:06:40Z</time>
      </trkpt>
      <trkpt lat="47.64088" lon="-2.89231">
        <ele>36.8</ele>
        <time>2021-08-05T09:06:41Z</time>
      </trkpt>
      <trkpt lat="47.64086" lon="-2.89225">
        <ele>36.8</ele>
        <time>2021-08-05T09:06:42Z</time>
      </trkpt>
      <trkpt lat="47.64084" lon="-2.8922">
        <ele>37</ele>
        <time>2021-08-05T09:06:43Z</time>
      </trkpt>
      <trkpt lat="47.64082" lon="-2.89215">
        <ele>37</ele>
        <time>2021-08-05T09:06:44Z</time>
      </trkpt>
      <trkpt lat="47.64077" lon="-2.89205">
        <ele>37</ele>
        <time>2021-08-05T09:06:46Z</time>
      </trkpt>
      <trkpt lat="47.64075" lon="-2.892">
        <ele>37.2</ele>
        <time>2021-08-05T09:06:47Z</time>
      </trkpt>
      <trkpt lat="47.64073" lon="-2.89195">
        <ele>37.4</ele>
        <time>2021-08-05T09:06:48Z</time>
      </trkpt>
      <trkpt lat="47.64071" lon="-2.8919">
        <ele>37.4</ele>
        <time>2021-08-05T09:06:49Z</time>
      </trkpt>
      <trkpt lat="47.64069" lon="-2.89185">
        <ele>37.6</ele>
        <time>2021-08-05T09:06:50Z</time>
      </trkpt>
      <trkpt lat="47.64067" lon="-2.8918">
        <ele>37.6</ele>
        <time>2021-08-05T09:06:51Z</time>
      </trkpt>
      <trkpt lat="47.64064" lon="-2.89176">
        <ele>37.6</ele>
        <time>2021-08-05T09:06:52Z</time>
      </trkpt>
      <trkpt lat="47.64062" lon="-2.89172">
        <ele>37.6</ele>
        <time>2021-08-05T09:06:53Z</time>
      </trkpt>
      <trkpt lat="47.6406" lon="-2.89167">
        <ele>37.6</ele>
        <time>2021-08-05T09:06:54Z</time>
      </trkpt>
      <trkpt lat="47.64058" lon="-2.89163">
        <ele>37.6</ele>
        <time>2021-08-05T09:06:55Z</time>
      </trkpt>
      <trkpt lat="47.64054" lon="-2.89154">
        <ele>37.8</ele>
        <time>2021-08-05T09:06:57Z</time>
      </trkpt>
      <trkpt lat="47.64052" lon="-2.8915">
        <ele>37.8</ele>
        <time>2021-08-05T09:06:58Z</time>
      </trkpt>
      <trkpt lat="47.6405" lon="-2.89145">
        <ele>37.8</ele>
        <time>2021-08-05T09:06:59Z</time>
      </trkpt>
      <trkpt lat="47.64048" lon="-2.89141">
        <ele>37.8</ele>
        <time>2021-08-05T09:07:00Z</time>
      </trkpt>
      <trkpt lat="47.64046" lon="-2.89136">
        <ele>37.8</ele>
        <time>2021-08-05T09:07:01Z</time>
      </trkpt>
      <trkpt lat="47.64044" lon="-2.89132">
        <ele>37.8</ele>
        <time>2021-08-05T09:07:02Z</time>
      </trkpt>
      <trkpt lat="47.64042" lon="-2.89127">
        <ele>37.8</ele>
        <time>2021-08-05T09:07:03Z</time>
      </trkpt>
      <trkpt lat="47.6404" lon="-2.89122">
        <ele>37.8</ele>
        <time>2021-08-05T09:07:04Z</time>
      </trkpt>
      <trkpt lat="47.64038" lon="-2.89118">
        <ele>37.8</ele>
        <time>2021-08-05T09:07:05Z</time>
      </trkpt>
      <trkpt lat="47.64036" lon="-2.89113">
        <ele>37.8</ele>
        <time>2021-08-05T09:07:06Z</time>
      </trkpt>
      <trkpt lat="47.64032" lon="-2.89104">
        <ele>38</ele>
        <time>2021-08-05T09:07:08Z</time>
      </trkpt>
      <trkpt lat="47.6403" lon="-2.89099">
        <ele>38</ele>
        <time>2021-08-05T09:07:09Z</time>
      </trkpt>
      <trkpt lat="47.64028" lon="-2.89094">
        <ele>38</ele>
        <time>2021-08-05T09:07:10Z</time>
      </trkpt>
      <trkpt lat="47.64025" lon="-2.8909">
        <ele>38</ele>
        <time>2021-08-05T09:07:11Z</time>
      </trkpt>
      <trkpt lat="47.64023" lon="-2.89085">
        <ele>38</ele>
        <time>2021-08-05T09:07:12Z</time>
      </trkpt>
      <trkpt lat="47.64021" lon="-2.89081">
        <ele>38</ele>
        <time>2021-08-05T09:07:13Z</time>
      </trkpt>
      <trkpt lat="47.6402" lon="-2.89076">
        <ele>38</ele>
        <time>2021-08-05T09:07:14Z</time>
      </trkpt>
      <trkpt lat="47.64017" lon="-2.89071">
        <ele>38</ele>
        <time>2021-08-05T09:07:15Z</time>
      </trkpt>
      <trkpt lat="47.64015" lon="-2.89066">
        <ele>38</ele>
        <time>2021-08-05T09:07:16Z</time>
      </trkpt>
      <trkpt lat="47.64013" lon="-2.89061">
        <ele>38</ele>
        <time>2021-08-05T09:07:17Z</time>
      </trkpt>
      <trkpt lat="47.64009" lon="-2.89051">
        <ele>38</ele>
        <time>2021-08-05T09:07:19Z</time>
      </trkpt>
      <trkpt lat="47.64007" lon="-2.89046">
        <ele>38</ele>
        <time>2021-08-05T09:07:20Z</time>
      </trkpt>
      <trkpt lat="47.64004" lon="-2.89041">
        <ele>38</ele>
        <time>2021-08-05T09:07:21Z</time>
      </trkpt>
      <trkpt lat="47.64002" lon="-2.89035">
        <ele>38</ele>
        <time>2021-08-05T09:07:22Z</time>
      </trkpt>
      <trkpt lat="47.64" lon="-2.8903">
        <ele>38</ele>
        <time>2021-08-05T09:07:23Z</time>
      </trkpt>
      <trkpt lat="47.63997" lon="-2.89025">
        <ele>38</ele>
        <time>2021-08-05T09:07:24Z</time>
      </trkpt>
      <trkpt lat="47.63995" lon="-2.8902">
        <ele>38.2</ele>
        <time>2021-08-05T09:07:25Z</time>
      </trkpt>
      <trkpt lat="47.63993" lon="-2.89015">
        <ele>38.2</ele>
        <time>2021-08-05T09:07:26Z</time>
      </trkpt>
      <trkpt lat="47.6399" lon="-2.8901">
        <ele>38.2</ele>
        <time>2021-08-05T09:07:27Z</time>
      </trkpt>
      <trkpt lat="47.63988" lon="-2.89005">
        <ele>38.4</ele>
        <time>2021-08-05T09:07:28Z</time>
      </trkpt>
      <trkpt lat="47.63984" lon="-2.88995">
        <ele>38.4</ele>
        <time>2021-08-05T09:07:30Z</time>
      </trkpt>
      <trkpt lat="47.63982" lon="-2.8899">
        <ele>38.4</ele>
        <time>2021-08-05T09:07:31Z</time>
      </trkpt>
      <trkpt lat="47.6398" lon="-2.88985">
        <ele>38.4</ele>
        <time>2021-08-05T09:07:32Z</time>
      </trkpt>
      <trkpt lat="47.63978" lon="-2.88981">
        <ele>38.4</ele>
        <time>2021-08-05T09:07:33Z</time>
      </trkpt>
      <trkpt lat="47.63975" lon="-2.88976">
        <ele>38.4</ele>
        <time>2021-08-05T09:07:34Z</time>
      </trkpt>
      <trkpt lat="47.63973" lon="-2.88971">
        <ele>38.4</ele>
        <time>2021-08-05T09:07:35Z</time>
      </trkpt>
      <trkpt lat="47.63972" lon="-2.88967">
        <ele>38.4</ele>
        <time>2021-08-05T09:07:36Z</time>
      </trkpt>
      <trkpt lat="47.63969" lon="-2.88962">
        <ele>38.4</ele>
        <time>2021-08-05T09:07:37Z</time>
      </trkpt>
      <trkpt lat="47.63967" lon="-2.88957">
        <ele>38.4</ele>
        <time>2021-08-05T09:07:38Z</time>
      </trkpt>
      <trkpt lat="47.63965" lon="-2.88952">
        <ele>38.4</ele>
        <time>2021-08-05T09:07:39Z</time>
      </trkpt>
      <trkpt lat="47.6396" lon="-2.88942">
        <ele>38.2</ele>
        <time>2021-08-05T09:07:41Z</time>
      </trkpt>
      <trkpt lat="47.63958" lon="-2.88937">
        <ele>38.2</ele>
        <time>2021-08-05T09:07:42Z</time>
      </trkpt>
      <trkpt lat="47.63956" lon="-2.88932">
        <ele>38.2</ele>
        <time>2021-08-05T09:07:43Z</time>
      </trkpt>
      <trkpt lat="47.63954" lon="-2.88927">
        <ele>38</ele>
        <time>2021-08-05T09:07:44Z</time>
      </trkpt>
      <trkpt lat="47.63951" lon="-2.88922">
        <ele>38</ele>
        <time>2021-08-05T09:07:45Z</time>
      </trkpt>
      <trkpt lat="47.63949" lon="-2.88917">
        <ele>38</ele>
        <time>2021-08-05T09:07:46Z</time>
      </trkpt>
      <trkpt lat="47.63947" lon="-2.88912">
        <ele>38</ele>
        <time>2021-08-05T09:07:47Z</time>
      </trkpt>
      <trkpt lat="47.63945" lon="-2.88907">
        <ele>38</ele>
        <time>2021-08-05T09:07:48Z</time>
      </trkpt>
      <trkpt lat="47.63943" lon="-2.88901">
        <ele>38</ele>
        <time>2021-08-05T09:07:49Z</time>
      </trkpt>
      <trkpt lat="47.6394" lon="-2.88896">
        <ele>37.8</ele>
        <time>2021-08-05T09:07:50Z</time>
      </trkpt>
      <trkpt lat="47.63938" lon="-2.88891">
        <ele>37.8</ele>
        <time>2021-08-05T09:07:51Z</time>
      </trkpt>
      <trkpt lat="47.63936" lon="-2.88886">
        <ele>37.8</ele>
        <time>2021-08-05T09:07:52Z</time>
      </trkpt>
      <trkpt lat="47.63934" lon="-2.88881">
        <ele>37.8</ele>
        <time>2021-08-05T09:07:53Z</time>
      </trkpt>
      <trkpt lat="47.63932" lon="-2.88876">
        <ele>37.8</ele>
        <time>2021-08-05T09:07:54Z</time>
      </trkpt>
      <trkpt lat="47.6393" lon="-2.88871">
        <ele>37.8</ele>
        <time>2021-08-05T09:07:55Z</time>
      </trkpt>
      <trkpt lat="47.63928" lon="-2.88866">
        <ele>37.8</ele>
        <time>2021-08-05T09:07:56Z</time>
      </trkpt>
      <trkpt lat="47.63926" lon="-2.88861">
        <ele>37.8</ele>
        <time>2021-08-05T09:07:57Z</time>
      </trkpt>
      <trkpt lat="47.63924" lon="-2.88857">
        <ele>37.8</ele>
        <time>2021-08-05T09:07:58Z</time>
      </trkpt>
      <trkpt lat="47.63923" lon="-2.88852">
        <ele>37.8</ele>
        <time>2021-08-05T09:07:59Z</time>
      </trkpt>
      <trkpt lat="47.63921" lon="-2.88848">
        <ele>37.8</ele>
        <time>2021-08-05T09:08:00Z</time>
      </trkpt>
      <trkpt lat="47.6392" lon="-2.88843">
        <ele>37.8</ele>
        <time>2021-08-05T09:08:01Z</time>
      </trkpt>
      <trkpt lat="47.63917" lon="-2.88832">
        <ele>37.8</ele>
        <time>2021-08-05T09:08:03Z</time>
      </trkpt>
      <trkpt lat="47.63916" lon="-2.88827">
        <ele>38</ele>
        <time>2021-08-05T09:08:04Z</time>
      </trkpt>
      <trkpt lat="47.63914" lon="-2.88822">
        <ele>38</ele>
        <time>2021-08-05T09:08:05Z</time>
      </trkpt>
      <trkpt lat="47.63913" lon="-2.88816">
        <ele>38</ele>
        <time>2021-08-05T09:08:06Z</time>
      </trkpt>
      <trkpt lat="47.63911" lon="-2.88811">
        <ele>38</ele>
        <time>2021-08-05T09:08:07Z</time>
      </trkpt>
      <trkpt lat="47.63909" lon="-2.88806">
        <ele>38.2</ele>
        <time>2021-08-05T09:08:08Z</time>
      </trkpt>
      <trkpt lat="47.63908" lon="-2.888">
        <ele>38.2</ele>
        <time>2021-08-05T09:08:09Z</time>
      </trkpt>
      <trkpt lat="47.63906" lon="-2.88795">
        <ele>38.2</ele>
        <time>2021-08-05T09:08:10Z</time>
      </trkpt>
      <trkpt lat="47.63905" lon="-2.8879">
        <ele>38.4</ele>
        <time>2021-08-05T09:08:11Z</time>
      </trkpt>
      <trkpt lat="47.63903" lon="-2.88784">
        <ele>38.4</ele>
        <time>2021-08-05T09:08:12Z</time>
      </trkpt>
      <trkpt lat="47.639" lon="-2.88773">
        <ele>38.6</ele>
        <time>2021-08-05T09:08:14Z</time>
      </trkpt>
      <trkpt lat="47.63898" lon="-2.88768">
        <ele>38.8</ele>
        <time>2021-08-05T09:08:15Z</time>
      </trkpt>
      <trkpt lat="47.63897" lon="-2.88762">
        <ele>38.8</ele>
        <time>2021-08-05T09:08:16Z</time>
      </trkpt>
      <trkpt lat="47.63895" lon="-2.88757">
        <ele>38.8</ele>
        <time>2021-08-05T09:08:17Z</time>
      </trkpt>
      <trkpt lat="47.63894" lon="-2.88752">
        <ele>38.8</ele>
        <time>2021-08-05T09:08:18Z</time>
      </trkpt>
      <trkpt lat="47.63892" lon="-2.88746">
        <ele>39</ele>
        <time>2021-08-05T09:08:19Z</time>
      </trkpt>
      <trkpt lat="47.6389" lon="-2.8874">
        <ele>39</ele>
        <time>2021-08-05T09:08:20Z</time>
      </trkpt>
      <trkpt lat="47.63889" lon="-2.88735">
        <ele>39</ele>
        <time>2021-08-05T09:08:21Z</time>
      </trkpt>
      <trkpt lat="47.63887" lon="-2.88729">
        <ele>39.2</ele>
        <time>2021-08-05T09:08:22Z</time>
      </trkpt>
      <trkpt lat="47.63883" lon="-2.88717">
        <ele>39.2</ele>
        <time>2021-08-05T09:08:24Z</time>
      </trkpt>
      <trkpt lat="47.63881" lon="-2.88711">
        <ele>39.2</ele>
        <time>2021-08-05T09:08:25Z</time>
      </trkpt>
      <trkpt lat="47.6388" lon="-2.88705">
        <ele>39.2</ele>
        <time>2021-08-05T09:08:26Z</time>
      </trkpt>
      <trkpt lat="47.63878" lon="-2.88699">
        <ele>39.2</ele>
        <time>2021-08-05T09:08:27Z</time>
      </trkpt>
      <trkpt lat="47.63876" lon="-2.88693">
        <ele>39.2</ele>
        <time>2021-08-05T09:08:28Z</time>
      </trkpt>
      <trkpt lat="47.63874" lon="-2.88687">
        <ele>39.2</ele>
        <time>2021-08-05T09:08:29Z</time>
      </trkpt>
      <trkpt lat="47.63872" lon="-2.88681">
        <ele>39.2</ele>
        <time>2021-08-05T09:08:30Z</time>
      </trkpt>
      <trkpt lat="47.63871" lon="-2.88676">
        <ele>39.4</ele>
        <time>2021-08-05T09:08:31Z</time>
      </trkpt>
      <trkpt lat="47.63869" lon="-2.8867">
        <ele>39.4</ele>
        <time>2021-08-05T09:08:32Z</time>
      </trkpt>
      <trkpt lat="47.63868" lon="-2.88665">
        <ele>39.4</ele>
        <time>2021-08-05T09:08:33Z</time>
      </trkpt>
      <trkpt lat="47.63864" lon="-2.88654">
        <ele>39.4</ele>
        <time>2021-08-05T09:08:35Z</time>
      </trkpt>
      <trkpt lat="47.63863" lon="-2.88648">
        <ele>39.4</ele>
        <time>2021-08-05T09:08:36Z</time>
      </trkpt>
      <trkpt lat="47.63861" lon="-2.88642">
        <ele>39.4</ele>
        <time>2021-08-05T09:08:37Z</time>
      </trkpt>
      <trkpt lat="47.6386" lon="-2.88636">
        <ele>39.4</ele>
        <time>2021-08-05T09:08:38Z</time>
      </trkpt>
      <trkpt lat="47.63858" lon="-2.8863">
        <ele>39.4</ele>
        <time>2021-08-05T09:08:39Z</time>
      </trkpt>
      <trkpt lat="47.63856" lon="-2.88624">
        <ele>39.4</ele>
        <time>2021-08-05T09:08:40Z</time>
      </trkpt>
      <trkpt lat="47.63854" lon="-2.88618">
        <ele>39.4</ele>
        <time>2021-08-05T09:08:41Z</time>
      </trkpt>
      <trkpt lat="47.63852" lon="-2.88612">
        <ele>39.6</ele>
        <time>2021-08-05T09:08:42Z</time>
      </trkpt>
      <trkpt lat="47.63851" lon="-2.88606">
        <ele>39.6</ele>
        <time>2021-08-05T09:08:43Z</time>
      </trkpt>
      <trkpt lat="47.63849" lon="-2.886">
        <ele>39.6</ele>
        <time>2021-08-05T09:08:44Z</time>
      </trkpt>
      <trkpt lat="47.63847" lon="-2.88594">
        <ele>39.6</ele>
        <time>2021-08-05T09:08:45Z</time>
      </trkpt>
      <trkpt lat="47.63844" lon="-2.88583">
        <ele>39.6</ele>
        <time>2021-08-05T09:08:47Z</time>
      </trkpt>
      <trkpt lat="47.63842" lon="-2.88577">
        <ele>39.6</ele>
        <time>2021-08-05T09:08:48Z</time>
      </trkpt>
      <trkpt lat="47.6384" lon="-2.88572">
        <ele>39.6</ele>
        <time>2021-08-05T09:08:49Z</time>
      </trkpt>
      <trkpt lat="47.63839" lon="-2.88566">
        <ele>39.6</ele>
        <time>2021-08-05T09:08:50Z</time>
      </trkpt>
      <trkpt lat="47.63837" lon="-2.88561">
        <ele>39.6</ele>
        <time>2021-08-05T09:08:51Z</time>
      </trkpt>
      <trkpt lat="47.63835" lon="-2.88555">
        <ele>39.6</ele>
        <time>2021-08-05T09:08:52Z</time>
      </trkpt>
      <trkpt lat="47.63834" lon="-2.88549">
        <ele>39.6</ele>
        <time>2021-08-05T09:08:53Z</time>
      </trkpt>
      <trkpt lat="47.63832" lon="-2.88544">
        <ele>39.6</ele>
        <time>2021-08-05T09:08:54Z</time>
      </trkpt>
      <trkpt lat="47.6383" lon="-2.88538">
        <ele>39.6</ele>
        <time>2021-08-05T09:08:55Z</time>
      </trkpt>
      <trkpt lat="47.63829" lon="-2.88532">
        <ele>39.6</ele>
        <time>2021-08-05T09:08:56Z</time>
      </trkpt>
      <trkpt lat="47.63825" lon="-2.8852">
        <ele>39.6</ele>
        <time>2021-08-05T09:08:58Z</time>
      </trkpt>
      <trkpt lat="47.63823" lon="-2.88515">
        <ele>39.6</ele>
        <time>2021-08-05T09:08:59Z</time>
      </trkpt>
      <trkpt lat="47.63822" lon="-2.88509">
        <ele>39.6</ele>
        <time>2021-08-05T09:09:00Z</time>
      </trkpt>
      <trkpt lat="47.6382" lon="-2.88504">
        <ele>39.6</ele>
        <time>2021-08-05T09:09:01Z</time>
      </trkpt>
      <trkpt lat="47.63819" lon="-2.88499">
        <ele>39.6</ele>
        <time>2021-08-05T09:09:02Z</time>
      </trkpt>
      <trkpt lat="47.63817" lon="-2.88493">
        <ele>39.6</ele>
        <time>2021-08-05T09:09:03Z</time>
      </trkpt>
      <trkpt lat="47.63816" lon="-2.88488">
        <ele>39.6</ele>
        <time>2021-08-05T09:09:04Z</time>
      </trkpt>
      <trkpt lat="47.63814" lon="-2.88483">
        <ele>39.6</ele>
        <time>2021-08-05T09:09:05Z</time>
      </trkpt>
      <trkpt lat="47.63812" lon="-2.88478">
        <ele>39.6</ele>
        <time>2021-08-05T09:09:06Z</time>
      </trkpt>
      <trkpt lat="47.63809" lon="-2.88467">
        <ele>39.6</ele>
        <time>2021-08-05T09:09:08Z</time>
      </trkpt>
      <trkpt lat="47.63808" lon="-2.88462">
        <ele>39.6</ele>
        <time>2021-08-05T09:09:09Z</time>
      </trkpt>
      <trkpt lat="47.63806" lon="-2.88456">
        <ele>39.6</ele>
        <time>2021-08-05T09:09:10Z</time>
      </trkpt>
      <trkpt lat="47.63804" lon="-2.88451">
        <ele>39.8</ele>
        <time>2021-08-05T09:09:11Z</time>
      </trkpt>
      <trkpt lat="47.63803" lon="-2.88445">
        <ele>39.8</ele>
        <time>2021-08-05T09:09:12Z</time>
      </trkpt>
      <trkpt lat="47.63801" lon="-2.8844">
        <ele>39.8</ele>
        <time>2021-08-05T09:09:13Z</time>
      </trkpt>
      <trkpt lat="47.63799" lon="-2.88435">
        <ele>39.8</ele>
        <time>2021-08-05T09:09:14Z</time>
      </trkpt>
      <trkpt lat="47.63797" lon="-2.88429">
        <ele>39.8</ele>
        <time>2021-08-05T09:09:15Z</time>
      </trkpt>
      <trkpt lat="47.63796" lon="-2.88424">
        <ele>39.8</ele>
        <time>2021-08-05T09:09:16Z</time>
      </trkpt>
      <trkpt lat="47.63794" lon="-2.8842">
        <ele>39.8</ele>
        <time>2021-08-05T09:09:17Z</time>
      </trkpt>
      <trkpt lat="47.63793" lon="-2.88415">
        <ele>40</ele>
        <time>2021-08-05T09:09:18Z</time>
      </trkpt>
      <trkpt lat="47.63789" lon="-2.88406">
        <ele>40</ele>
        <time>2021-08-05T09:09:20Z</time>
      </trkpt>
      <trkpt lat="47.63788" lon="-2.88402">
        <ele>40</ele>
        <time>2021-08-05T09:09:21Z</time>
      </trkpt>
      <trkpt lat="47.63786" lon="-2.88397">
        <ele>40</ele>
        <time>2021-08-05T09:09:22Z</time>
      </trkpt>
      <trkpt lat="47.63785" lon="-2.88391">
        <ele>40</ele>
        <time>2021-08-05T09:09:23Z</time>
      </trkpt>
      <trkpt lat="47.63783" lon="-2.88386">
        <ele>40</ele>
        <time>2021-08-05T09:09:24Z</time>
      </trkpt>
      <trkpt lat="47.63782" lon="-2.8838">
        <ele>40</ele>
        <time>2021-08-05T09:09:25Z</time>
      </trkpt>
      <trkpt lat="47.6378" lon="-2.88375">
        <ele>40.2</ele>
        <time>2021-08-05T09:09:26Z</time>
      </trkpt>
      <trkpt lat="47.63778" lon="-2.88369">
        <ele>40.2</ele>
        <time>2021-08-05T09:09:27Z</time>
      </trkpt>
      <trkpt lat="47.63777" lon="-2.88363">
        <ele>40.2</ele>
        <time>2021-08-05T09:09:28Z</time>
      </trkpt>
      <trkpt lat="47.63775" lon="-2.88358">
        <ele>40</ele>
        <time>2021-08-05T09:09:29Z</time>
      </trkpt>
      <trkpt lat="47.63772" lon="-2.88346">
        <ele>39.8</ele>
        <time>2021-08-05T09:09:31Z</time>
      </trkpt>
      <trkpt lat="47.6377" lon="-2.88341">
        <ele>39.6</ele>
        <time>2021-08-05T09:09:32Z</time>
      </trkpt>
      <trkpt lat="47.63768" lon="-2.88335">
        <ele>39.4</ele>
        <time>2021-08-05T09:09:33Z</time>
      </trkpt>
      <trkpt lat="47.63766" lon="-2.88329">
        <ele>39.4</ele>
        <time>2021-08-05T09:09:34Z</time>
      </trkpt>
      <trkpt lat="47.63765" lon="-2.88323">
        <ele>39.2</ele>
        <time>2021-08-05T09:09:35Z</time>
      </trkpt>
      <trkpt lat="47.63763" lon="-2.88317">
        <ele>39.4</ele>
        <time>2021-08-05T09:09:36Z</time>
      </trkpt>
      <trkpt lat="47.63761" lon="-2.8831">
        <ele>39.2</ele>
        <time>2021-08-05T09:09:37Z</time>
      </trkpt>
      <trkpt lat="47.63759" lon="-2.88304">
        <ele>39.2</ele>
        <time>2021-08-05T09:09:38Z</time>
      </trkpt>
      <trkpt lat="47.63758" lon="-2.88298">
        <ele>39.2</ele>
        <time>2021-08-05T09:09:39Z</time>
      </trkpt>
      <trkpt lat="47.63754" lon="-2.88285">
        <ele>39.2</ele>
        <time>2021-08-05T09:09:41Z</time>
      </trkpt>
      <trkpt lat="47.63752" lon="-2.88278">
        <ele>39.4</ele>
        <time>2021-08-05T09:09:42Z</time>
      </trkpt>
      <trkpt lat="47.6375" lon="-2.88272">
        <ele>39.2</ele>
        <time>2021-08-05T09:09:43Z</time>
      </trkpt>
      <trkpt lat="47.63748" lon="-2.88265">
        <ele>39.2</ele>
        <time>2021-08-05T09:09:44Z</time>
      </trkpt>
      <trkpt lat="47.63746" lon="-2.88259">
        <ele>39.2</ele>
        <time>2021-08-05T09:09:45Z</time>
      </trkpt>
      <trkpt lat="47.63744" lon="-2.88253">
        <ele>39.2</ele>
        <time>2021-08-05T09:09:46Z</time>
      </trkpt>
      <trkpt lat="47.63742" lon="-2.88247">
        <ele>39.2</ele>
        <time>2021-08-05T09:09:47Z</time>
      </trkpt>
      <trkpt lat="47.6374" lon="-2.8824">
        <ele>39.2</ele>
        <time>2021-08-05T09:09:48Z</time>
      </trkpt>
      <trkpt lat="47.63739" lon="-2.88234">
        <ele>39.2</ele>
        <time>2021-08-05T09:09:49Z</time>
      </trkpt>
      <trkpt lat="47.63737" lon="-2.88227">
        <ele>39.2</ele>
        <time>2021-08-05T09:09:50Z</time>
      </trkpt>
      <trkpt lat="47.63735" lon="-2.88221">
        <ele>39.2</ele>
        <time>2021-08-05T09:09:51Z</time>
      </trkpt>
      <trkpt lat="47.63731" lon="-2.88207">
        <ele>39</ele>
        <time>2021-08-05T09:09:53Z</time>
      </trkpt>
      <trkpt lat="47.63729" lon="-2.88201">
        <ele>39</ele>
        <time>2021-08-05T09:09:54Z</time>
      </trkpt>
      <trkpt lat="47.63727" lon="-2.88195">
        <ele>38.8</ele>
        <time>2021-08-05T09:09:55Z</time>
      </trkpt>
      <trkpt lat="47.63725" lon="-2.88188">
        <ele>38.8</ele>
        <time>2021-08-05T09:09:56Z</time>
      </trkpt>
      <trkpt lat="47.63723" lon="-2.88182">
        <ele>38.8</ele>
        <time>2021-08-05T09:09:57Z</time>
      </trkpt>
      <trkpt lat="47.63722" lon="-2.88176">
        <ele>38.8</ele>
        <time>2021-08-05T09:09:58Z</time>
      </trkpt>
      <trkpt lat="47.6372" lon="-2.8817">
        <ele>38.8</ele>
        <time>2021-08-05T09:09:59Z</time>
      </trkpt>
      <trkpt lat="47.63718" lon="-2.88164">
        <ele>38.8</ele>
        <time>2021-08-05T09:10:00Z</time>
      </trkpt>
      <trkpt lat="47.63716" lon="-2.88158">
        <ele>38.8</ele>
        <time>2021-08-05T09:10:01Z</time>
      </trkpt>
      <trkpt lat="47.63713" lon="-2.88146">
        <ele>38.6</ele>
        <time>2021-08-05T09:10:03Z</time>
      </trkpt>
      <trkpt lat="47.63711" lon="-2.8814">
        <ele>38.6</ele>
        <time>2021-08-05T09:10:04Z</time>
      </trkpt>
      <trkpt lat="47.6371" lon="-2.88134">
        <ele>38.6</ele>
        <time>2021-08-05T09:10:05Z</time>
      </trkpt>
      <trkpt lat="47.63708" lon="-2.88129">
        <ele>38.6</ele>
        <time>2021-08-05T09:10:06Z</time>
      </trkpt>
      <trkpt lat="47.63707" lon="-2.88123">
        <ele>38.6</ele>
        <time>2021-08-05T09:10:07Z</time>
      </trkpt>
      <trkpt lat="47.63706" lon="-2.88118">
        <ele>38.4</ele>
        <time>2021-08-05T09:10:08Z</time>
      </trkpt>
      <trkpt lat="47.63704" lon="-2.88113">
        <ele>38.4</ele>
        <time>2021-08-05T09:10:09Z</time>
      </trkpt>
      <trkpt lat="47.63703" lon="-2.88107">
        <ele>38.4</ele>
        <time>2021-08-05T09:10:10Z</time>
      </trkpt>
      <trkpt lat="47.63701" lon="-2.88102">
        <ele>38.4</ele>
        <time>2021-08-05T09:10:11Z</time>
      </trkpt>
      <trkpt lat="47.637" lon="-2.88097">
        <ele>38.4</ele>
        <time>2021-08-05T09:10:12Z</time>
      </trkpt>
      <trkpt lat="47.63697" lon="-2.88089">
        <ele>38.4</ele>
        <time>2021-08-05T09:10:14Z</time>
      </trkpt>
      <trkpt lat="47.63696" lon="-2.88087">
        <ele>38.2</ele>
        <time>2021-08-05T09:10:15Z</time>
      </trkpt>
      <trkpt lat="47.63695" lon="-2.88084">
        <ele>38.2</ele>
        <time>2021-08-05T09:10:16Z</time>
      </trkpt>
      <trkpt lat="47.63695" lon="-2.88082">
        <ele>38.2</ele>
        <time>2021-08-05T09:10:17Z</time>
      </trkpt>
      <trkpt lat="47.63696" lon="-2.88079">
        <ele>38.4</ele>
        <time>2021-08-05T09:10:18Z</time>
      </trkpt>
      <trkpt lat="47.63698" lon="-2.88077">
        <ele>38.4</ele>
        <time>2021-08-05T09:10:19Z</time>
      </trkpt>
      <trkpt lat="47.63699" lon="-2.88075">
        <ele>38.4</ele>
        <time>2021-08-05T09:10:20Z</time>
      </trkpt>
      <trkpt lat="47.63702" lon="-2.88073">
        <ele>38.4</ele>
        <time>2021-08-05T09:10:21Z</time>
      </trkpt>
      <trkpt lat="47.63705" lon="-2.88071">
        <ele>38.2</ele>
        <time>2021-08-05T09:10:22Z</time>
      </trkpt>
      <trkpt lat="47.63708" lon="-2.88069">
        <ele>38.2</ele>
        <time>2021-08-05T09:10:23Z</time>
      </trkpt>
      <trkpt lat="47.63711" lon="-2.88068">
        <ele>38.2</ele>
        <time>2021-08-05T09:10:24Z</time>
      </trkpt>
      <trkpt lat="47.63715" lon="-2.88066">
        <ele>38.2</ele>
        <time>2021-08-05T09:10:25Z</time>
      </trkpt>
      <trkpt lat="47.6372" lon="-2.88064">
        <ele>38.2</ele>
        <time>2021-08-05T09:10:26Z</time>
      </trkpt>
      <trkpt lat="47.63724" lon="-2.88062">
        <ele>38.2</ele>
        <time>2021-08-05T09:10:27Z</time>
      </trkpt>
      <trkpt lat="47.63728" lon="-2.8806">
        <ele>38.2</ele>
        <time>2021-08-05T09:10:28Z</time>
      </trkpt>
      <trkpt lat="47.63732" lon="-2.88059">
        <ele>38</ele>
        <time>2021-08-05T09:10:29Z</time>
      </trkpt>
      <trkpt lat="47.63737" lon="-2.88057">
        <ele>38</ele>
        <time>2021-08-05T09:10:30Z</time>
      </trkpt>
      <trkpt lat="47.63741" lon="-2.88055">
        <ele>38</ele>
        <time>2021-08-05T09:10:31Z</time>
      </trkpt>
      <trkpt lat="47.63746" lon="-2.88053">
        <ele>38</ele>
        <time>2021-08-05T09:10:32Z</time>
      </trkpt>
      <trkpt lat="47.6375" lon="-2.88051">
        <ele>38</ele>
        <time>2021-08-05T09:10:33Z</time>
      </trkpt>
      <trkpt lat="47.63755" lon="-2.88048">
        <ele>37.8</ele>
        <time>2021-08-05T09:10:34Z</time>
      </trkpt>
      <trkpt lat="47.63759" lon="-2.88043">
        <ele>37.4</ele>
        <time>2021-08-05T09:10:35Z</time>
      </trkpt>
      <trkpt lat="47.63763" lon="-2.8803">
        <ele>36.4</ele>
        <time>2021-08-05T09:10:37Z</time>
      </trkpt>
      <trkpt lat="47.63763" lon="-2.88024">
        <ele>36.2</ele>
        <time>2021-08-05T09:10:38Z</time>
      </trkpt>
      <trkpt lat="47.63762" lon="-2.88017">
        <ele>36</ele>
        <time>2021-08-05T09:10:39Z</time>
      </trkpt>
      <trkpt lat="47.63762" lon="-2.88011">
        <ele>35.8</ele>
        <time>2021-08-05T09:10:40Z</time>
      </trkpt>
      <trkpt lat="47.63761" lon="-2.88005">
        <ele>35.6</ele>
        <time>2021-08-05T09:10:41Z</time>
      </trkpt>
      <trkpt lat="47.6376" lon="-2.87998">
        <ele>35</ele>
        <time>2021-08-05T09:10:42Z</time>
      </trkpt>
      <trkpt lat="47.6376" lon="-2.87992">
        <ele>34.8</ele>
        <time>2021-08-05T09:10:43Z</time>
      </trkpt>
      <trkpt lat="47.63759" lon="-2.87986">
        <ele>34.8</ele>
        <time>2021-08-05T09:10:44Z</time>
      </trkpt>
      <trkpt lat="47.63759" lon="-2.8798">
        <ele>34.6</ele>
        <time>2021-08-05T09:10:45Z</time>
      </trkpt>
      <trkpt lat="47.63758" lon="-2.87974">
        <ele>34.6</ele>
        <time>2021-08-05T09:10:46Z</time>
      </trkpt>
      <trkpt lat="47.63757" lon="-2.87963">
        <ele>34.6</ele>
        <time>2021-08-05T09:10:48Z</time>
      </trkpt>
      <trkpt lat="47.63756" lon="-2.87957">
        <ele>34.6</ele>
        <time>2021-08-05T09:10:49Z</time>
      </trkpt>
      <trkpt lat="47.63756" lon="-2.87952">
        <ele>34.6</ele>
        <time>2021-08-05T09:10:50Z</time>
      </trkpt>
      <trkpt lat="47.63755" lon="-2.87946">
        <ele>34.6</ele>
        <time>2021-08-05T09:10:51Z</time>
      </trkpt>
      <trkpt lat="47.63754" lon="-2.87941">
        <ele>34.6</ele>
        <time>2021-08-05T09:10:52Z</time>
      </trkpt>
      <trkpt lat="47.63753" lon="-2.87935">
        <ele>34.6</ele>
        <time>2021-08-05T09:10:53Z</time>
      </trkpt>
      <trkpt lat="47.63752" lon="-2.8793">
        <ele>34.8</ele>
        <time>2021-08-05T09:10:54Z</time>
      </trkpt>
      <trkpt lat="47.63752" lon="-2.87924">
        <ele>35</ele>
        <time>2021-08-05T09:10:55Z</time>
      </trkpt>
      <trkpt lat="47.63751" lon="-2.87918">
        <ele>35.2</ele>
        <time>2021-08-05T09:10:56Z</time>
      </trkpt>
      <trkpt lat="47.63751" lon="-2.87912">
        <ele>35.6</ele>
        <time>2021-08-05T09:10:57Z</time>
      </trkpt>
      <trkpt lat="47.63749" lon="-2.87899">
        <ele>35.6</ele>
        <time>2021-08-05T09:10:59Z</time>
      </trkpt>
      <trkpt lat="47.63747" lon="-2.87893">
        <ele>35.6</ele>
        <time>2021-08-05T09:11:00Z</time>
      </trkpt>
      <trkpt lat="47.63747" lon="-2.87886">
        <ele>35.8</ele>
        <time>2021-08-05T09:11:01Z</time>
      </trkpt>
      <trkpt lat="47.63745" lon="-2.8788">
        <ele>35.8</ele>
        <time>2021-08-05T09:11:02Z</time>
      </trkpt>
      <trkpt lat="47.63744" lon="-2.87873">
        <ele>35.8</ele>
        <time>2021-08-05T09:11:03Z</time>
      </trkpt>
      <trkpt lat="47.63744" lon="-2.87866">
        <ele>35.8</ele>
        <time>2021-08-05T09:11:04Z</time>
      </trkpt>
      <trkpt lat="47.63743" lon="-2.87859">
        <ele>35.8</ele>
        <time>2021-08-05T09:11:05Z</time>
      </trkpt>
      <trkpt lat="47.63742" lon="-2.87852">
        <ele>35.8</ele>
        <time>2021-08-05T09:11:06Z</time>
      </trkpt>
      <trkpt lat="47.63741" lon="-2.87845">
        <ele>35.8</ele>
        <time>2021-08-05T09:11:07Z</time>
      </trkpt>
      <trkpt lat="47.6374" lon="-2.87838">
        <ele>35.8</ele>
        <time>2021-08-05T09:11:08Z</time>
      </trkpt>
      <trkpt lat="47.63738" lon="-2.8783">
        <ele>35.8</ele>
        <time>2021-08-05T09:11:09Z</time>
      </trkpt>
      <trkpt lat="47.63737" lon="-2.87823">
        <ele>35.8</ele>
        <time>2021-08-05T09:11:10Z</time>
      </trkpt>
      <trkpt lat="47.63736" lon="-2.87815">
        <ele>35.6</ele>
        <time>2021-08-05T09:11:11Z</time>
      </trkpt>
      <trkpt lat="47.63735" lon="-2.87807">
        <ele>35.6</ele>
        <time>2021-08-05T09:11:12Z</time>
      </trkpt>
      <trkpt lat="47.63733" lon="-2.87799">
        <ele>35.4</ele>
        <time>2021-08-05T09:11:13Z</time>
      </trkpt>
      <trkpt lat="47.63732" lon="-2.87791">
        <ele>35.4</ele>
        <time>2021-08-05T09:11:14Z</time>
      </trkpt>
      <trkpt lat="47.63731" lon="-2.87783">
        <ele>35.2</ele>
        <time>2021-08-05T09:11:15Z</time>
      </trkpt>
      <trkpt lat="47.63729" lon="-2.87775">
        <ele>35.2</ele>
        <time>2021-08-05T09:11:16Z</time>
      </trkpt>
      <trkpt lat="47.63728" lon="-2.87767">
        <ele>35.2</ele>
        <time>2021-08-05T09:11:17Z</time>
      </trkpt>
      <trkpt lat="47.63727" lon="-2.87758">
        <ele>35</ele>
        <time>2021-08-05T09:11:18Z</time>
      </trkpt>
      <trkpt lat="47.63726" lon="-2.8775">
        <ele>35</ele>
        <time>2021-08-05T09:11:19Z</time>
      </trkpt>
      <trkpt lat="47.63723" lon="-2.87732">
        <ele>34.8</ele>
        <time>2021-08-05T09:11:21Z</time>
      </trkpt>
      <trkpt lat="47.63721" lon="-2.87723">
        <ele>34.6</ele>
        <time>2021-08-05T09:11:22Z</time>
      </trkpt>
      <trkpt lat="47.6372" lon="-2.87714">
        <ele>34.6</ele>
        <time>2021-08-05T09:11:23Z</time>
      </trkpt>
      <trkpt lat="47.63718" lon="-2.87705">
        <ele>34.6</ele>
        <time>2021-08-05T09:11:24Z</time>
      </trkpt>
      <trkpt lat="47.63717" lon="-2.87696">
        <ele>34.4</ele>
        <time>2021-08-05T09:11:25Z</time>
      </trkpt>
      <trkpt lat="47.63716" lon="-2.87687">
        <ele>34.2</ele>
        <time>2021-08-05T09:11:26Z</time>
      </trkpt>
      <trkpt lat="47.63714" lon="-2.87678">
        <ele>33.6</ele>
        <time>2021-08-05T09:11:27Z</time>
      </trkpt>
      <trkpt lat="47.63713" lon="-2.87668">
        <ele>33.2</ele>
        <time>2021-08-05T09:11:28Z</time>
      </trkpt>
      <trkpt lat="47.63711" lon="-2.87659">
        <ele>33</ele>
        <time>2021-08-05T09:11:29Z</time>
      </trkpt>
      <trkpt lat="47.6371" lon="-2.8765">
        <ele>32.8</ele>
        <time>2021-08-05T09:11:30Z</time>
      </trkpt>
      <trkpt lat="47.63707" lon="-2.87633">
        <ele>32.4</ele>
        <time>2021-08-05T09:11:32Z</time>
      </trkpt>
      <trkpt lat="47.63705" lon="-2.87624">
        <ele>32.2</ele>
        <time>2021-08-05T09:11:33Z</time>
      </trkpt>
      <trkpt lat="47.63704" lon="-2.87617">
        <ele>32</ele>
        <time>2021-08-05T09:11:34Z</time>
      </trkpt>
      <trkpt lat="47.63703" lon="-2.87609">
        <ele>31.8</ele>
        <time>2021-08-05T09:11:35Z</time>
      </trkpt>
      <trkpt lat="47.63702" lon="-2.87601">
        <ele>31.4</ele>
        <time>2021-08-05T09:11:36Z</time>
      </trkpt>
      <trkpt lat="47.63701" lon="-2.87594">
        <ele>31.4</ele>
        <time>2021-08-05T09:11:37Z</time>
      </trkpt>
      <trkpt lat="47.63699" lon="-2.87586">
        <ele>31.2</ele>
        <time>2021-08-05T09:11:38Z</time>
      </trkpt>
      <trkpt lat="47.63698" lon="-2.87578">
        <ele>31</ele>
        <time>2021-08-05T09:11:39Z</time>
      </trkpt>
      <trkpt lat="47.63695" lon="-2.87571">
        <ele>30.8</ele>
        <time>2021-08-05T09:11:40Z</time>
      </trkpt>
      <trkpt lat="47.63692" lon="-2.87565">
        <ele>30.4</ele>
        <time>2021-08-05T09:11:41Z</time>
      </trkpt>
      <trkpt lat="47.63687" lon="-2.87562">
        <ele>30</ele>
        <time>2021-08-05T09:11:42Z</time>
      </trkpt>
      <trkpt lat="47.63683" lon="-2.87561">
        <ele>30</ele>
        <time>2021-08-05T09:11:43Z</time>
      </trkpt>
      <trkpt lat="47.63678" lon="-2.87561">
        <ele>29.8</ele>
        <time>2021-08-05T09:11:44Z</time>
      </trkpt>
      <trkpt lat="47.63675" lon="-2.87562">
        <ele>29.8</ele>
        <time>2021-08-05T09:11:45Z</time>
      </trkpt>
      <trkpt lat="47.63671" lon="-2.87563">
        <ele>29.8</ele>
        <time>2021-08-05T09:11:46Z</time>
      </trkpt>
      <trkpt lat="47.63668" lon="-2.87564">
        <ele>29.8</ele>
        <time>2021-08-05T09:11:47Z</time>
      </trkpt>
      <trkpt lat="47.63666" lon="-2.87565">
        <ele>29.8</ele>
        <time>2021-08-05T09:11:48Z</time>
      </trkpt>
      <trkpt lat="47.63664" lon="-2.87566">
        <ele>29.8</ele>
        <time>2021-08-05T09:11:49Z</time>
      </trkpt>
      <trkpt lat="47.63662" lon="-2.87567">
        <ele>29.8</ele>
        <time>2021-08-05T09:11:50Z</time>
      </trkpt>
      <trkpt lat="47.6366" lon="-2.87568">
        <ele>30</ele>
        <time>2021-08-05T09:11:51Z</time>
      </trkpt>
      <trkpt lat="47.63658" lon="-2.8757">
        <ele>29.8</ele>
        <time>2021-08-05T09:11:52Z</time>
      </trkpt>
      <trkpt lat="47.63655" lon="-2.87571">
        <ele>29.8</ele>
        <time>2021-08-05T09:11:54Z</time>
      </trkpt>
      <trkpt lat="47.63653" lon="-2.87572">
        <ele>30</ele>
        <time>2021-08-05T09:11:55Z</time>
      </trkpt>
      <trkpt lat="47.63652" lon="-2.87573">
        <ele>30</ele>
        <time>2021-08-05T09:11:56Z</time>
      </trkpt>
      <trkpt lat="47.6365" lon="-2.87574">
        <ele>30.2</ele>
        <time>2021-08-05T09:11:57Z</time>
      </trkpt>
      <trkpt lat="47.63648" lon="-2.87574">
        <ele>30.2</ele>
        <time>2021-08-05T09:11:58Z</time>
      </trkpt>
      <trkpt lat="47.63647" lon="-2.87575">
        <ele>30.4</ele>
        <time>2021-08-05T09:11:59Z</time>
      </trkpt>
      <trkpt lat="47.63645" lon="-2.87575">
        <ele>30.6</ele>
        <time>2021-08-05T09:12:00Z</time>
      </trkpt>
      <trkpt lat="47.63643" lon="-2.87576">
        <ele>30.8</ele>
        <time>2021-08-05T09:12:01Z</time>
      </trkpt>
      <trkpt lat="47.63641" lon="-2.87576">
        <ele>31</ele>
        <time>2021-08-05T09:12:02Z</time>
      </trkpt>
      <trkpt lat="47.63639" lon="-2.87577">
        <ele>31.2</ele>
        <time>2021-08-05T09:12:03Z</time>
      </trkpt>
      <trkpt lat="47.63637" lon="-2.87578">
        <ele>31.4</ele>
        <time>2021-08-05T09:12:04Z</time>
      </trkpt>
      <trkpt lat="47.63636" lon="-2.87578">
        <ele>31.4</ele>
        <time>2021-08-05T09:12:05Z</time>
      </trkpt>
      <trkpt lat="47.63634" lon="-2.87579">
        <ele>31.6</ele>
        <time>2021-08-05T09:12:06Z</time>
      </trkpt>
      <trkpt lat="47.63633" lon="-2.87579">
        <ele>31.8</ele>
        <time>2021-08-05T09:12:07Z</time>
      </trkpt>
      <trkpt lat="47.63631" lon="-2.87579">
        <ele>32</ele>
        <time>2021-08-05T09:12:08Z</time>
      </trkpt>
      <trkpt lat="47.6363" lon="-2.8758">
        <ele>32.2</ele>
        <time>2021-08-05T09:12:09Z</time>
      </trkpt>
      <trkpt lat="47.63628" lon="-2.87581">
        <ele>32.4</ele>
        <time>2021-08-05T09:12:10Z</time>
      </trkpt>
      <trkpt lat="47.63626" lon="-2.87582">
        <ele>32.6</ele>
        <time>2021-08-05T09:12:11Z</time>
      </trkpt>
      <trkpt lat="47.63624" lon="-2.87582">
        <ele>32.8</ele>
        <time>2021-08-05T09:12:12Z</time>
      </trkpt>
      <trkpt lat="47.63622" lon="-2.87583">
        <ele>32.8</ele>
        <time>2021-08-05T09:12:13Z</time>
      </trkpt>
      <trkpt lat="47.6362" lon="-2.87584">
        <ele>33</ele>
        <time>2021-08-05T09:12:14Z</time>
      </trkpt>
      <trkpt lat="47.63617" lon="-2.87585">
        <ele>33.4</ele>
        <time>2021-08-05T09:12:16Z</time>
      </trkpt>
      <trkpt lat="47.63616" lon="-2.87586">
        <ele>33.6</ele>
        <time>2021-08-05T09:12:17Z</time>
      </trkpt>
      <trkpt lat="47.63614" lon="-2.87587">
        <ele>33.6</ele>
        <time>2021-08-05T09:12:18Z</time>
      </trkpt>
      <trkpt lat="47.63613" lon="-2.87587">
        <ele>33.6</ele>
        <time>2021-08-05T09:12:19Z</time>
      </trkpt>
      <trkpt lat="47.63612" lon="-2.87588">
        <ele>33.8</ele>
        <time>2021-08-05T09:12:20Z</time>
      </trkpt>
      <trkpt lat="47.6361" lon="-2.87589">
        <ele>33.8</ele>
        <time>2021-08-05T09:12:21Z</time>
      </trkpt>
      <trkpt lat="47.63609" lon="-2.87589">
        <ele>33.8</ele>
        <time>2021-08-05T09:12:22Z</time>
      </trkpt>
      <trkpt lat="47.63608" lon="-2.8759">
        <ele>34</ele>
        <time>2021-08-05T09:12:23Z</time>
      </trkpt>
      <trkpt lat="47.63606" lon="-2.8759">
        <ele>34</ele>
        <time>2021-08-05T09:12:24Z</time>
      </trkpt>
      <trkpt lat="47.63604" lon="-2.8759">
        <ele>34.2</ele>
        <time>2021-08-05T09:12:25Z</time>
      </trkpt>
      <trkpt lat="47.63601" lon="-2.87593">
        <ele>34.2</ele>
        <time>2021-08-05T09:12:27Z</time>
      </trkpt>
      <trkpt lat="47.63598" lon="-2.87594">
        <ele>34.4</ele>
        <time>2021-08-05T09:12:28Z</time>
      </trkpt>
      <trkpt lat="47.63596" lon="-2.87595">
        <ele>34.6</ele>
        <time>2021-08-05T09:12:29Z</time>
      </trkpt>
      <trkpt lat="47.63594" lon="-2.87596">
        <ele>34.6</ele>
        <time>2021-08-05T09:12:30Z</time>
      </trkpt>
      <trkpt lat="47.63591" lon="-2.87597">
        <ele>34.8</ele>
        <time>2021-08-05T09:12:31Z</time>
      </trkpt>
      <trkpt lat="47.63589" lon="-2.87598">
        <ele>34.8</ele>
        <time>2021-08-05T09:12:32Z</time>
      </trkpt>
      <trkpt lat="47.63587" lon="-2.87599">
        <ele>35</ele>
        <time>2021-08-05T09:12:33Z</time>
      </trkpt>
      <trkpt lat="47.63584" lon="-2.876">
        <ele>35</ele>
        <time>2021-08-05T09:12:34Z</time>
      </trkpt>
      <trkpt lat="47.63582" lon="-2.87601">
        <ele>35</ele>
        <time>2021-08-05T09:12:35Z</time>
      </trkpt>
      <trkpt lat="47.6358" lon="-2.87602">
        <ele>35.2</ele>
        <time>2021-08-05T09:12:36Z</time>
      </trkpt>
      <trkpt lat="47.63575" lon="-2.87604">
        <ele>35.2</ele>
        <time>2021-08-05T09:12:38Z</time>
      </trkpt>
      <trkpt lat="47.63573" lon="-2.87604">
        <ele>35.4</ele>
        <time>2021-08-05T09:12:39Z</time>
      </trkpt>
      <trkpt lat="47.6357" lon="-2.87605">
        <ele>35.4</ele>
        <time>2021-08-05T09:12:40Z</time>
      </trkpt>
      <trkpt lat="47.63568" lon="-2.87606">
        <ele>35.4</ele>
        <time>2021-08-05T09:12:41Z</time>
      </trkpt>
      <trkpt lat="47.63565" lon="-2.87607">
        <ele>35.6</ele>
        <time>2021-08-05T09:12:42Z</time>
      </trkpt>
      <trkpt lat="47.63563" lon="-2.87608">
        <ele>35.6</ele>
        <time>2021-08-05T09:12:43Z</time>
      </trkpt>
      <trkpt lat="47.63561" lon="-2.87608">
        <ele>35.6</ele>
        <time>2021-08-05T09:12:44Z</time>
      </trkpt>
      <trkpt lat="47.63558" lon="-2.8761">
        <ele>35.8</ele>
        <time>2021-08-05T09:12:45Z</time>
      </trkpt>
      <trkpt lat="47.63556" lon="-2.87611">
        <ele>36.2</ele>
        <time>2021-08-05T09:12:46Z</time>
      </trkpt>
      <trkpt lat="47.63553" lon="-2.87611">
        <ele>36.4</ele>
        <time>2021-08-05T09:12:47Z</time>
      </trkpt>
      <trkpt lat="47.63548" lon="-2.87613">
        <ele>36.6</ele>
        <time>2021-08-05T09:12:49Z</time>
      </trkpt>
      <trkpt lat="47.63546" lon="-2.87614">
        <ele>36.8</ele>
        <time>2021-08-05T09:12:50Z</time>
      </trkpt>
      <trkpt lat="47.63543" lon="-2.87615">
        <ele>37</ele>
        <time>2021-08-05T09:12:51Z</time>
      </trkpt>
      <trkpt lat="47.63541" lon="-2.87616">
        <ele>37.2</ele>
        <time>2021-08-05T09:12:52Z</time>
      </trkpt>
      <trkpt lat="47.63538" lon="-2.87617">
        <ele>37.6</ele>
        <time>2021-08-05T09:12:53Z</time>
      </trkpt>
      <trkpt lat="47.63535" lon="-2.87618">
        <ele>37.6</ele>
        <time>2021-08-05T09:12:54Z</time>
      </trkpt>
      <trkpt lat="47.63533" lon="-2.87619">
        <ele>37.6</ele>
        <time>2021-08-05T09:12:55Z</time>
      </trkpt>
      <trkpt lat="47.6353" lon="-2.8762">
        <ele>37.8</ele>
        <time>2021-08-05T09:12:56Z</time>
      </trkpt>
      <trkpt lat="47.63527" lon="-2.87621">
        <ele>37.8</ele>
        <time>2021-08-05T09:12:57Z</time>
      </trkpt>
      <trkpt lat="47.63522" lon="-2.87623">
        <ele>38</ele>
        <time>2021-08-05T09:12:59Z</time>
      </trkpt>
      <trkpt lat="47.63519" lon="-2.87625">
        <ele>38</ele>
        <time>2021-08-05T09:13:00Z</time>
      </trkpt>
      <trkpt lat="47.63516" lon="-2.87625">
        <ele>38</ele>
        <time>2021-08-05T09:13:01Z</time>
      </trkpt>
      <trkpt lat="47.63513" lon="-2.87627">
        <ele>38</ele>
        <time>2021-08-05T09:13:02Z</time>
      </trkpt>
      <trkpt lat="47.6351" lon="-2.87628">
        <ele>38</ele>
        <time>2021-08-05T09:13:03Z</time>
      </trkpt>
      <trkpt lat="47.63507" lon="-2.87629">
        <ele>38</ele>
        <time>2021-08-05T09:13:04Z</time>
      </trkpt>
      <trkpt lat="47.63504" lon="-2.8763">
        <ele>38</ele>
        <time>2021-08-05T09:13:05Z</time>
      </trkpt>
      <trkpt lat="47.635" lon="-2.87631">
        <ele>38</ele>
        <time>2021-08-05T09:13:06Z</time>
      </trkpt>
      <trkpt lat="47.63497" lon="-2.87632">
        <ele>38</ele>
        <time>2021-08-05T09:13:07Z</time>
      </trkpt>
      <trkpt lat="47.63494" lon="-2.87634">
        <ele>38</ele>
        <time>2021-08-05T09:13:08Z</time>
      </trkpt>
      <trkpt lat="47.63486" lon="-2.87636">
        <ele>38</ele>
        <time>2021-08-05T09:13:10Z</time>
      </trkpt>
      <trkpt lat="47.63482" lon="-2.87638">
        <ele>38</ele>
        <time>2021-08-05T09:13:11Z</time>
      </trkpt>
      <trkpt lat="47.63479" lon="-2.87639">
        <ele>38</ele>
        <time>2021-08-05T09:13:12Z</time>
      </trkpt>
      <trkpt lat="47.63475" lon="-2.87641">
        <ele>38</ele>
        <time>2021-08-05T09:13:13Z</time>
      </trkpt>
      <trkpt lat="47.63471" lon="-2.87642">
        <ele>38</ele>
        <time>2021-08-05T09:13:14Z</time>
      </trkpt>
      <trkpt lat="47.63466" lon="-2.87644">
        <ele>37.8</ele>
        <time>2021-08-05T09:13:15Z</time>
      </trkpt>
      <trkpt lat="47.63462" lon="-2.87646">
        <ele>37.8</ele>
        <time>2021-08-05T09:13:16Z</time>
      </trkpt>
      <trkpt lat="47.63458" lon="-2.87647">
        <ele>37.8</ele>
        <time>2021-08-05T09:13:17Z</time>
      </trkpt>
      <trkpt lat="47.63454" lon="-2.87649">
        <ele>37.8</ele>
        <time>2021-08-05T09:13:18Z</time>
      </trkpt>
      <trkpt lat="47.63449" lon="-2.87651">
        <ele>37.8</ele>
        <time>2021-08-05T09:13:19Z</time>
      </trkpt>
      <trkpt lat="47.63441" lon="-2.87654">
        <ele>37.8</ele>
        <time>2021-08-05T09:13:21Z</time>
      </trkpt>
      <trkpt lat="47.63436" lon="-2.87655">
        <ele>37.6</ele>
        <time>2021-08-05T09:13:22Z</time>
      </trkpt>
      <trkpt lat="47.63432" lon="-2.87657">
        <ele>37.6</ele>
        <time>2021-08-05T09:13:23Z</time>
      </trkpt>
      <trkpt lat="47.63428" lon="-2.87659">
        <ele>37.4</ele>
        <time>2021-08-05T09:13:24Z</time>
      </trkpt>
      <trkpt lat="47.63423" lon="-2.87661">
        <ele>37.4</ele>
        <time>2021-08-05T09:13:25Z</time>
      </trkpt>
      <trkpt lat="47.63419" lon="-2.87663">
        <ele>37.4</ele>
        <time>2021-08-05T09:13:26Z</time>
      </trkpt>
      <trkpt lat="47.63414" lon="-2.87664">
        <ele>37.4</ele>
        <time>2021-08-05T09:13:27Z</time>
      </trkpt>
      <trkpt lat="47.6341" lon="-2.87665">
        <ele>37.4</ele>
        <time>2021-08-05T09:13:28Z</time>
      </trkpt>
      <trkpt lat="47.63406" lon="-2.87665">
        <ele>37.2</ele>
        <time>2021-08-05T09:13:29Z</time>
      </trkpt>
      <trkpt lat="47.63401" lon="-2.87665">
        <ele>37.2</ele>
        <time>2021-08-05T09:13:30Z</time>
      </trkpt>
      <trkpt lat="47.63393" lon="-2.87657">
        <ele>37.2</ele>
        <time>2021-08-05T09:13:32Z</time>
      </trkpt>
      <trkpt lat="47.63391" lon="-2.87652">
        <ele>37</ele>
        <time>2021-08-05T09:13:33Z</time>
      </trkpt>
      <trkpt lat="47.63389" lon="-2.87645">
        <ele>37</ele>
        <time>2021-08-05T09:13:34Z</time>
      </trkpt>
      <trkpt lat="47.63388" lon="-2.87639">
        <ele>37</ele>
        <time>2021-08-05T09:13:35Z</time>
      </trkpt>
      <trkpt lat="47.63386" lon="-2.87632">
        <ele>36.8</ele>
        <time>2021-08-05T09:13:36Z</time>
      </trkpt>
      <trkpt lat="47.63384" lon="-2.87625">
        <ele>36.8</ele>
        <time>2021-08-05T09:13:37Z</time>
      </trkpt>
      <trkpt lat="47.63383" lon="-2.87618">
        <ele>36.8</ele>
        <time>2021-08-05T09:13:38Z</time>
      </trkpt>
      <trkpt lat="47.63381" lon="-2.87611">
        <ele>36.6</ele>
        <time>2021-08-05T09:13:39Z</time>
      </trkpt>
      <trkpt lat="47.63379" lon="-2.87604">
        <ele>36.6</ele>
        <time>2021-08-05T09:13:40Z</time>
      </trkpt>
      <trkpt lat="47.63377" lon="-2.87597">
        <ele>36.6</ele>
        <time>2021-08-05T09:13:41Z</time>
      </trkpt>
      <trkpt lat="47.63374" lon="-2.87583">
        <ele>36.6</ele>
        <time>2021-08-05T09:13:43Z</time>
      </trkpt>
      <trkpt lat="47.63372" lon="-2.87576">
        <ele>36.6</ele>
        <time>2021-08-05T09:13:44Z</time>
      </trkpt>
      <trkpt lat="47.6337" lon="-2.87569">
        <ele>36.6</ele>
        <time>2021-08-05T09:13:45Z</time>
      </trkpt>
      <trkpt lat="47.63368" lon="-2.87562">
        <ele>36.6</ele>
        <time>2021-08-05T09:13:46Z</time>
      </trkpt>
      <trkpt lat="47.63366" lon="-2.87555">
        <ele>36.8</ele>
        <time>2021-08-05T09:13:47Z</time>
      </trkpt>
      <trkpt lat="47.63364" lon="-2.87547">
        <ele>36.8</ele>
        <time>2021-08-05T09:13:48Z</time>
      </trkpt>
      <trkpt lat="47.63363" lon="-2.8754">
        <ele>36.8</ele>
        <time>2021-08-05T09:13:49Z</time>
      </trkpt>
      <trkpt lat="47.63361" lon="-2.87532">
        <ele>36.8</ele>
        <time>2021-08-05T09:13:50Z</time>
      </trkpt>
      <trkpt lat="47.63359" lon="-2.87525">
        <ele>36.8</ele>
        <time>2021-08-05T09:13:51Z</time>
      </trkpt>
      <trkpt lat="47.63357" lon="-2.87517">
        <ele>36.8</ele>
        <time>2021-08-05T09:13:52Z</time>
      </trkpt>
      <trkpt lat="47.63353" lon="-2.87503">
        <ele>36.8</ele>
        <time>2021-08-05T09:13:54Z</time>
      </trkpt>
      <trkpt lat="47.63352" lon="-2.87495">
        <ele>36.8</ele>
        <time>2021-08-05T09:13:55Z</time>
      </trkpt>
      <trkpt lat="47.6335" lon="-2.87488">
        <ele>36.8</ele>
        <time>2021-08-05T09:13:56Z</time>
      </trkpt>
      <trkpt lat="47.63348" lon="-2.87481">
        <ele>36.8</ele>
        <time>2021-08-05T09:13:57Z</time>
      </trkpt>
      <trkpt lat="47.63346" lon="-2.87474">
        <ele>36.6</ele>
        <time>2021-08-05T09:13:58Z</time>
      </trkpt>
      <trkpt lat="47.63344" lon="-2.87467">
        <ele>36.6</ele>
        <time>2021-08-05T09:13:59Z</time>
      </trkpt>
      <trkpt lat="47.63343" lon="-2.8746">
        <ele>36.6</ele>
        <time>2021-08-05T09:14:00Z</time>
      </trkpt>
      <trkpt lat="47.63341" lon="-2.87453">
        <ele>36.6</ele>
        <time>2021-08-05T09:14:01Z</time>
      </trkpt>
      <trkpt lat="47.63339" lon="-2.87446">
        <ele>36.6</ele>
        <time>2021-08-05T09:14:02Z</time>
      </trkpt>
      <trkpt lat="47.63337" lon="-2.8744">
        <ele>36.6</ele>
        <time>2021-08-05T09:14:03Z</time>
      </trkpt>
      <trkpt lat="47.63336" lon="-2.87433">
        <ele>36.6</ele>
        <time>2021-08-05T09:14:04Z</time>
      </trkpt>
      <trkpt lat="47.63334" lon="-2.87427">
        <ele>36.6</ele>
        <time>2021-08-05T09:14:05Z</time>
      </trkpt>
      <trkpt lat="47.63333" lon="-2.87421">
        <ele>36.6</ele>
        <time>2021-08-05T09:14:06Z</time>
      </trkpt>
      <trkpt lat="47.63331" lon="-2.87415">
        <ele>36.4</ele>
        <time>2021-08-05T09:14:07Z</time>
      </trkpt>
      <trkpt lat="47.6333" lon="-2.87409">
        <ele>36.4</ele>
        <time>2021-08-05T09:14:08Z</time>
      </trkpt>
      <trkpt lat="47.63328" lon="-2.87403">
        <ele>36.4</ele>
        <time>2021-08-05T09:14:09Z</time>
      </trkpt>
      <trkpt lat="47.63326" lon="-2.87397">
        <ele>36.4</ele>
        <time>2021-08-05T09:14:10Z</time>
      </trkpt>
      <trkpt lat="47.63325" lon="-2.87391">
        <ele>36.4</ele>
        <time>2021-08-05T09:14:11Z</time>
      </trkpt>
      <trkpt lat="47.63324" lon="-2.87385">
        <ele>36.4</ele>
        <time>2021-08-05T09:14:12Z</time>
      </trkpt>
      <trkpt lat="47.63322" lon="-2.87379">
        <ele>36.4</ele>
        <time>2021-08-05T09:14:13Z</time>
      </trkpt>
      <trkpt lat="47.6332" lon="-2.87373">
        <ele>36.4</ele>
        <time>2021-08-05T09:14:14Z</time>
      </trkpt>
      <trkpt lat="47.63317" lon="-2.87362">
        <ele>36.2</ele>
        <time>2021-08-05T09:14:16Z</time>
      </trkpt>
      <trkpt lat="47.63316" lon="-2.87356">
        <ele>36.2</ele>
        <time>2021-08-05T09:14:17Z</time>
      </trkpt>
      <trkpt lat="47.63315" lon="-2.8735">
        <ele>36.2</ele>
        <time>2021-08-05T09:14:18Z</time>
      </trkpt>
      <trkpt lat="47.63313" lon="-2.87344">
        <ele>36.2</ele>
        <time>2021-08-05T09:14:19Z</time>
      </trkpt>
      <trkpt lat="47.63311" lon="-2.87339">
        <ele>36.2</ele>
        <time>2021-08-05T09:14:20Z</time>
      </trkpt>
      <trkpt lat="47.6331" lon="-2.87333">
        <ele>36.2</ele>
        <time>2021-08-05T09:14:21Z</time>
      </trkpt>
      <trkpt lat="47.63308" lon="-2.87327">
        <ele>36</ele>
        <time>2021-08-05T09:14:22Z</time>
      </trkpt>
      <trkpt lat="47.63307" lon="-2.87321">
        <ele>36</ele>
        <time>2021-08-05T09:14:23Z</time>
      </trkpt>
      <trkpt lat="47.63305" lon="-2.87315">
        <ele>36</ele>
        <time>2021-08-05T09:14:24Z</time>
      </trkpt>
      <trkpt lat="47.63304" lon="-2.87309">
        <ele>36</ele>
        <time>2021-08-05T09:14:25Z</time>
      </trkpt>
      <trkpt lat="47.63303" lon="-2.87303">
        <ele>35.8</ele>
        <time>2021-08-05T09:14:26Z</time>
      </trkpt>
      <trkpt lat="47.63301" lon="-2.87296">
        <ele>35.8</ele>
        <time>2021-08-05T09:14:27Z</time>
      </trkpt>
      <trkpt lat="47.63299" lon="-2.8729">
        <ele>35.8</ele>
        <time>2021-08-05T09:14:28Z</time>
      </trkpt>
      <trkpt lat="47.63297" lon="-2.87283">
        <ele>35.8</ele>
        <time>2021-08-05T09:14:29Z</time>
      </trkpt>
      <trkpt lat="47.63296" lon="-2.87276">
        <ele>35.6</ele>
        <time>2021-08-05T09:14:30Z</time>
      </trkpt>
      <trkpt lat="47.63294" lon="-2.87269">
        <ele>35.6</ele>
        <time>2021-08-05T09:14:31Z</time>
      </trkpt>
      <trkpt lat="47.63292" lon="-2.87262">
        <ele>35.6</ele>
        <time>2021-08-05T09:14:32Z</time>
      </trkpt>
      <trkpt lat="47.6329" lon="-2.87255">
        <ele>35.4</ele>
        <time>2021-08-05T09:14:33Z</time>
      </trkpt>
      <trkpt lat="47.63287" lon="-2.87247">
        <ele>35.4</ele>
        <time>2021-08-05T09:14:34Z</time>
      </trkpt>
      <trkpt lat="47.63285" lon="-2.87239">
        <ele>35.4</ele>
        <time>2021-08-05T09:14:35Z</time>
      </trkpt>
      <trkpt lat="47.63283" lon="-2.87231">
        <ele>35.4</ele>
        <time>2021-08-05T09:14:36Z</time>
      </trkpt>
      <trkpt lat="47.63279" lon="-2.87215">
        <ele>35.2</ele>
        <time>2021-08-05T09:14:38Z</time>
      </trkpt>
      <trkpt lat="47.63277" lon="-2.87207">
        <ele>34.8</ele>
        <time>2021-08-05T09:14:39Z</time>
      </trkpt>
      <trkpt lat="47.63275" lon="-2.87199">
        <ele>34.4</ele>
        <time>2021-08-05T09:14:40Z</time>
      </trkpt>
      <trkpt lat="47.63272" lon="-2.87191">
        <ele>34.2</ele>
        <time>2021-08-05T09:14:41Z</time>
      </trkpt>
      <trkpt lat="47.6327" lon="-2.87183">
        <ele>34</ele>
        <time>2021-08-05T09:14:42Z</time>
      </trkpt>
      <trkpt lat="47.63268" lon="-2.87175">
        <ele>33.8</ele>
        <time>2021-08-05T09:14:43Z</time>
      </trkpt>
      <trkpt lat="47.63266" lon="-2.87167">
        <ele>33.8</ele>
        <time>2021-08-05T09:14:44Z</time>
      </trkpt>
      <trkpt lat="47.63264" lon="-2.8716">
        <ele>33.6</ele>
        <time>2021-08-05T09:14:45Z</time>
      </trkpt>
      <trkpt lat="47.63263" lon="-2.87153">
        <ele>33.4</ele>
        <time>2021-08-05T09:14:46Z</time>
      </trkpt>
      <trkpt lat="47.63262" lon="-2.87146">
        <ele>33.2</ele>
        <time>2021-08-05T09:14:47Z</time>
      </trkpt>
      <trkpt lat="47.63262" lon="-2.87133">
        <ele>32.4</ele>
        <time>2021-08-05T09:14:49Z</time>
      </trkpt>
      <trkpt lat="47.63262" lon="-2.87127">
        <ele>32.2</ele>
        <time>2021-08-05T09:14:50Z</time>
      </trkpt>
      <trkpt lat="47.63264" lon="-2.87121">
        <ele>32.2</ele>
        <time>2021-08-05T09:14:51Z</time>
      </trkpt>
      <trkpt lat="47.63266" lon="-2.87115">
        <ele>32</ele>
        <time>2021-08-05T09:14:52Z</time>
      </trkpt>
      <trkpt lat="47.63268" lon="-2.87108">
        <ele>32</ele>
        <time>2021-08-05T09:14:53Z</time>
      </trkpt>
      <trkpt lat="47.6327" lon="-2.87101">
        <ele>32</ele>
        <time>2021-08-05T09:14:54Z</time>
      </trkpt>
      <trkpt lat="47.63273" lon="-2.87094">
        <ele>32</ele>
        <time>2021-08-05T09:14:55Z</time>
      </trkpt>
      <trkpt lat="47.63276" lon="-2.87086">
        <ele>32</ele>
        <time>2021-08-05T09:14:56Z</time>
      </trkpt>
      <trkpt lat="47.63279" lon="-2.87078">
        <ele>31.8</ele>
        <time>2021-08-05T09:14:57Z</time>
      </trkpt>
      <trkpt lat="47.63283" lon="-2.87069">
        <ele>31.6</ele>
        <time>2021-08-05T09:14:58Z</time>
      </trkpt>
      <trkpt lat="47.63287" lon="-2.87061">
        <ele>31.6</ele>
        <time>2021-08-05T09:14:59Z</time>
      </trkpt>
      <trkpt lat="47.63291" lon="-2.87051">
        <ele>31.6</ele>
        <time>2021-08-05T09:15:00Z</time>
      </trkpt>
      <trkpt lat="47.63296" lon="-2.87042">
        <ele>31.4</ele>
        <time>2021-08-05T09:15:01Z</time>
      </trkpt>
      <trkpt lat="47.63301" lon="-2.87032">
        <ele>31.2</ele>
        <time>2021-08-05T09:15:02Z</time>
      </trkpt>
      <trkpt lat="47.63306" lon="-2.87022">
        <ele>31</ele>
        <time>2021-08-05T09:15:03Z</time>
      </trkpt>
      <trkpt lat="47.63312" lon="-2.87012">
        <ele>30.6</ele>
        <time>2021-08-05T09:15:04Z</time>
      </trkpt>
      <trkpt lat="47.63318" lon="-2.87002">
        <ele>30.4</ele>
        <time>2021-08-05T09:15:05Z</time>
      </trkpt>
      <trkpt lat="47.63324" lon="-2.86991">
        <ele>30</ele>
        <time>2021-08-05T09:15:06Z</time>
      </trkpt>
      <trkpt lat="47.6333" lon="-2.86981">
        <ele>29.8</ele>
        <time>2021-08-05T09:15:07Z</time>
      </trkpt>
      <trkpt lat="47.63334" lon="-2.86969">
        <ele>29</ele>
        <time>2021-08-05T09:15:08Z</time>
      </trkpt>
      <trkpt lat="47.63338" lon="-2.86958">
        <ele>28.4</ele>
        <time>2021-08-05T09:15:09Z</time>
      </trkpt>
      <trkpt lat="47.6334" lon="-2.86946">
        <ele>28</ele>
        <time>2021-08-05T09:15:10Z</time>
      </trkpt>
      <trkpt lat="47.63342" lon="-2.86935">
        <ele>27.8</ele>
        <time>2021-08-05T09:15:11Z</time>
      </trkpt>
      <trkpt lat="47.63343" lon="-2.86925">
        <ele>27.4</ele>
        <time>2021-08-05T09:15:12Z</time>
      </trkpt>
      <trkpt lat="47.63346" lon="-2.86915">
        <ele>26.6</ele>
        <time>2021-08-05T09:15:13Z</time>
      </trkpt>
      <trkpt lat="47.63348" lon="-2.86905">
        <ele>26</ele>
        <time>2021-08-05T09:15:14Z</time>
      </trkpt>
      <trkpt lat="47.6335" lon="-2.86897">
        <ele>25.8</ele>
        <time>2021-08-05T09:15:15Z</time>
      </trkpt>
      <trkpt lat="47.63352" lon="-2.86889">
        <ele>25.4</ele>
        <time>2021-08-05T09:15:16Z</time>
      </trkpt>
      <trkpt lat="47.63355" lon="-2.86881">
        <ele>25.4</ele>
        <time>2021-08-05T09:15:17Z</time>
      </trkpt>
      <trkpt lat="47.63357" lon="-2.86873">
        <ele>25.4</ele>
        <time>2021-08-05T09:15:18Z</time>
      </trkpt>
      <trkpt lat="47.6336" lon="-2.86866">
        <ele>25.4</ele>
        <time>2021-08-05T09:15:19Z</time>
      </trkpt>
      <trkpt lat="47.63362" lon="-2.86859">
        <ele>25.4</ele>
        <time>2021-08-05T09:15:20Z</time>
      </trkpt>
      <trkpt lat="47.63367" lon="-2.86845">
        <ele>25.4</ele>
        <time>2021-08-05T09:15:22Z</time>
      </trkpt>
      <trkpt lat="47.63368" lon="-2.86839">
        <ele>25.4</ele>
        <time>2021-08-05T09:15:23Z</time>
      </trkpt>
      <trkpt lat="47.6337" lon="-2.86832">
        <ele>25.4</ele>
        <time>2021-08-05T09:15:24Z</time>
      </trkpt>
      <trkpt lat="47.63371" lon="-2.86826">
        <ele>26</ele>
        <time>2021-08-05T09:15:25Z</time>
      </trkpt>
      <trkpt lat="47.63372" lon="-2.8682">
        <ele>26</ele>
        <time>2021-08-05T09:15:26Z</time>
      </trkpt>
      <trkpt lat="47.63373" lon="-2.86814">
        <ele>26.6</ele>
        <time>2021-08-05T09:15:27Z</time>
      </trkpt>
      <trkpt lat="47.63373" lon="-2.86808">
        <ele>26.8</ele>
        <time>2021-08-05T09:15:28Z</time>
      </trkpt>
      <trkpt lat="47.63374" lon="-2.86802">
        <ele>27</ele>
        <time>2021-08-05T09:15:29Z</time>
      </trkpt>
      <trkpt lat="47.63375" lon="-2.86796">
        <ele>27.2</ele>
        <time>2021-08-05T09:15:30Z</time>
      </trkpt>
      <trkpt lat="47.63376" lon="-2.8679">
        <ele>27.4</ele>
        <time>2021-08-05T09:15:31Z</time>
      </trkpt>
      <trkpt lat="47.63377" lon="-2.86778">
        <ele>27.8</ele>
        <time>2021-08-05T09:15:33Z</time>
      </trkpt>
      <trkpt lat="47.63378" lon="-2.86772">
        <ele>28</ele>
        <time>2021-08-05T09:15:34Z</time>
      </trkpt>
      <trkpt lat="47.63377" lon="-2.86766">
        <ele>28</ele>
        <time>2021-08-05T09:15:35Z</time>
      </trkpt>
      <trkpt lat="47.63377" lon="-2.8676">
        <ele>28</ele>
        <time>2021-08-05T09:15:36Z</time>
      </trkpt>
      <trkpt lat="47.63377" lon="-2.86754">
        <ele>28.2</ele>
        <time>2021-08-05T09:15:37Z</time>
      </trkpt>
      <trkpt lat="47.63377" lon="-2.86748">
        <ele>28.4</ele>
        <time>2021-08-05T09:15:38Z</time>
      </trkpt>
      <trkpt lat="47.63376" lon="-2.86742">
        <ele>28.4</ele>
        <time>2021-08-05T09:15:39Z</time>
      </trkpt>
      <trkpt lat="47.63376" lon="-2.86736">
        <ele>28.4</ele>
        <time>2021-08-05T09:15:40Z</time>
      </trkpt>
      <trkpt lat="47.63375" lon="-2.86731">
        <ele>28.4</ele>
        <time>2021-08-05T09:15:41Z</time>
      </trkpt>
      <trkpt lat="47.63375" lon="-2.86725">
        <ele>28.4</ele>
        <time>2021-08-05T09:15:42Z</time>
      </trkpt>
      <trkpt lat="47.63374" lon="-2.86711">
        <ele>28.4</ele>
        <time>2021-08-05T09:15:44Z</time>
      </trkpt>
      <trkpt lat="47.63374" lon="-2.86702">
        <ele>28.4</ele>
        <time>2021-08-05T09:15:45Z</time>
      </trkpt>
      <trkpt lat="47.63374" lon="-2.86692">
        <ele>28.4</ele>
        <time>2021-08-05T09:15:46Z</time>
      </trkpt>
      <trkpt lat="47.63375" lon="-2.86681">
        <ele>28.4</ele>
        <time>2021-08-05T09:15:47Z</time>
      </trkpt>
      <trkpt lat="47.63376" lon="-2.8667">
        <ele>28.2</ele>
        <time>2021-08-05T09:15:48Z</time>
      </trkpt>
      <trkpt lat="47.63378" lon="-2.86659">
        <ele>28.2</ele>
        <time>2021-08-05T09:15:49Z</time>
      </trkpt>
      <trkpt lat="47.63382" lon="-2.86647">
        <ele>28.2</ele>
        <time>2021-08-05T09:15:50Z</time>
      </trkpt>
      <trkpt lat="47.63387" lon="-2.86637">
        <ele>28</ele>
        <time>2021-08-05T09:15:51Z</time>
      </trkpt>
      <trkpt lat="47.63394" lon="-2.86628">
        <ele>28</ele>
        <time>2021-08-05T09:15:52Z</time>
      </trkpt>
      <trkpt lat="47.634" lon="-2.86619">
        <ele>27.6</ele>
        <time>2021-08-05T09:15:53Z</time>
      </trkpt>
      <trkpt lat="47.63414" lon="-2.86599">
        <ele>26.6</ele>
        <time>2021-08-05T09:15:55Z</time>
      </trkpt>
      <trkpt lat="47.6342" lon="-2.86589">
        <ele>26.2</ele>
        <time>2021-08-05T09:15:56Z</time>
      </trkpt>
      <trkpt lat="47.63426" lon="-2.86578">
        <ele>25.8</ele>
        <time>2021-08-05T09:15:57Z</time>
      </trkpt>
      <trkpt lat="47.63431" lon="-2.86565">
        <ele>25.4</ele>
        <time>2021-08-05T09:15:58Z</time>
      </trkpt>
      <trkpt lat="47.63434" lon="-2.86552">
        <ele>25.2</ele>
        <time>2021-08-05T09:15:59Z</time>
      </trkpt>
      <trkpt lat="47.63438" lon="-2.86538">
        <ele>25</ele>
        <time>2021-08-05T09:16:00Z</time>
      </trkpt>
      <trkpt lat="47.63441" lon="-2.86524">
        <ele>24.8</ele>
        <time>2021-08-05T09:16:01Z</time>
      </trkpt>
      <trkpt lat="47.63446" lon="-2.86512">
        <ele>24.4</ele>
        <time>2021-08-05T09:16:02Z</time>
      </trkpt>
      <trkpt lat="47.63453" lon="-2.865">
        <ele>24</ele>
        <time>2021-08-05T09:16:03Z</time>
      </trkpt>
      <trkpt lat="47.63461" lon="-2.86491">
        <ele>23.4</ele>
        <time>2021-08-05T09:16:04Z</time>
      </trkpt>
      <trkpt lat="47.63471" lon="-2.86485">
        <ele>22.2</ele>
        <time>2021-08-05T09:16:05Z</time>
      </trkpt>
      <trkpt lat="47.63481" lon="-2.86479">
        <ele>21</ele>
        <time>2021-08-05T09:16:06Z</time>
      </trkpt>
      <trkpt lat="47.63491" lon="-2.86473">
        <ele>19.8</ele>
        <time>2021-08-05T09:16:07Z</time>
      </trkpt>
      <trkpt lat="47.635" lon="-2.86466">
        <ele>18.8</ele>
        <time>2021-08-05T09:16:08Z</time>
      </trkpt>
      <trkpt lat="47.63508" lon="-2.86457">
        <ele>18</ele>
        <time>2021-08-05T09:16:09Z</time>
      </trkpt>
      <trkpt lat="47.63516" lon="-2.86448">
        <ele>17</ele>
        <time>2021-08-05T09:16:10Z</time>
      </trkpt>
      <trkpt lat="47.63523" lon="-2.86439">
        <ele>16.2</ele>
        <time>2021-08-05T09:16:11Z</time>
      </trkpt>
      <trkpt lat="47.6353" lon="-2.8643">
        <ele>15.6</ele>
        <time>2021-08-05T09:16:12Z</time>
      </trkpt>
      <trkpt lat="47.63537" lon="-2.86421">
        <ele>15</ele>
        <time>2021-08-05T09:16:13Z</time>
      </trkpt>
      <trkpt lat="47.63543" lon="-2.86412">
        <ele>14.4</ele>
        <time>2021-08-05T09:16:14Z</time>
      </trkpt>
      <trkpt lat="47.6355" lon="-2.86403">
        <ele>13.6</ele>
        <time>2021-08-05T09:16:15Z</time>
      </trkpt>
      <trkpt lat="47.63555" lon="-2.86394">
        <ele>13.2</ele>
        <time>2021-08-05T09:16:16Z</time>
      </trkpt>
      <trkpt lat="47.63558" lon="-2.86384">
        <ele>13</ele>
        <time>2021-08-05T09:16:17Z</time>
      </trkpt>
      <trkpt lat="47.63561" lon="-2.86375">
        <ele>12.8</ele>
        <time>2021-08-05T09:16:18Z</time>
      </trkpt>
      <trkpt lat="47.63563" lon="-2.86367">
        <ele>12.8</ele>
        <time>2021-08-05T09:16:19Z</time>
      </trkpt>
      <trkpt lat="47.63564" lon="-2.8636">
        <ele>12.8</ele>
        <time>2021-08-05T09:16:20Z</time>
      </trkpt>
      <trkpt lat="47.63564" lon="-2.86353">
        <ele>12.8</ele>
        <time>2021-08-05T09:16:21Z</time>
      </trkpt>
      <trkpt lat="47.63565" lon="-2.86346">
        <ele>12.8</ele>
        <time>2021-08-05T09:16:22Z</time>
      </trkpt>
      <trkpt lat="47.63566" lon="-2.86339">
        <ele>12.8</ele>
        <time>2021-08-05T09:16:23Z</time>
      </trkpt>
      <trkpt lat="47.63566" lon="-2.86333">
        <ele>13</ele>
        <time>2021-08-05T09:16:24Z</time>
      </trkpt>
      <trkpt lat="47.63567" lon="-2.86327">
        <ele>13.4</ele>
        <time>2021-08-05T09:16:25Z</time>
      </trkpt>
      <trkpt lat="47.63568" lon="-2.86317">
        <ele>14.2</ele>
        <time>2021-08-05T09:16:27Z</time>
      </trkpt>
      <trkpt lat="47.63569" lon="-2.86312">
        <ele>14.6</ele>
        <time>2021-08-05T09:16:28Z</time>
      </trkpt>
      <trkpt lat="47.63569" lon="-2.86308">
        <ele>15</ele>
        <time>2021-08-05T09:16:29Z</time>
      </trkpt>
      <trkpt lat="47.6357" lon="-2.86303">
        <ele>15.4</ele>
        <time>2021-08-05T09:16:30Z</time>
      </trkpt>
      <trkpt lat="47.63571" lon="-2.86297">
        <ele>15.6</ele>
        <time>2021-08-05T09:16:31Z</time>
      </trkpt>
      <trkpt lat="47.63571" lon="-2.86292">
        <ele>15.8</ele>
        <time>2021-08-05T09:16:32Z</time>
      </trkpt>
      <trkpt lat="47.63572" lon="-2.86287">
        <ele>16</ele>
        <time>2021-08-05T09:16:33Z</time>
      </trkpt>
      <trkpt lat="47.63573" lon="-2.86282">
        <ele>16.2</ele>
        <time>2021-08-05T09:16:34Z</time>
      </trkpt>
      <trkpt lat="47.63574" lon="-2.86277">
        <ele>16.4</ele>
        <time>2021-08-05T09:16:35Z</time>
      </trkpt>
      <trkpt lat="47.63575" lon="-2.86273">
        <ele>16.8</ele>
        <time>2021-08-05T09:16:36Z</time>
      </trkpt>
      <trkpt lat="47.63576" lon="-2.86269">
        <ele>17</ele>
        <time>2021-08-05T09:16:37Z</time>
      </trkpt>
      <trkpt lat="47.63579" lon="-2.86261">
        <ele>17.6</ele>
        <time>2021-08-05T09:16:39Z</time>
      </trkpt>
      <trkpt lat="47.63581" lon="-2.86257">
        <ele>17.8</ele>
        <time>2021-08-05T09:16:40Z</time>
      </trkpt>
      <trkpt lat="47.63582" lon="-2.86253">
        <ele>18</ele>
        <time>2021-08-05T09:16:41Z</time>
      </trkpt>
      <trkpt lat="47.63584" lon="-2.86248">
        <ele>18.2</ele>
        <time>2021-08-05T09:16:42Z</time>
      </trkpt>
      <trkpt lat="47.63586" lon="-2.86244">
        <ele>18.4</ele>
        <time>2021-08-05T09:16:43Z</time>
      </trkpt>
      <trkpt lat="47.63588" lon="-2.86241">
        <ele>18.4</ele>
        <time>2021-08-05T09:16:44Z</time>
      </trkpt>
      <trkpt lat="47.63589" lon="-2.86237">
        <ele>18.6</ele>
        <time>2021-08-05T09:16:45Z</time>
      </trkpt>
      <trkpt lat="47.63592" lon="-2.86233">
        <ele>19.2</ele>
        <time>2021-08-05T09:16:46Z</time>
      </trkpt>
      <trkpt lat="47.63594" lon="-2.8623">
        <ele>19.4</ele>
        <time>2021-08-05T09:16:47Z</time>
      </trkpt>
      <trkpt lat="47.63596" lon="-2.86226">
        <ele>19.8</ele>
        <time>2021-08-05T09:16:48Z</time>
      </trkpt>
      <trkpt lat="47.63601" lon="-2.8622">
        <ele>20.4</ele>
        <time>2021-08-05T09:16:50Z</time>
      </trkpt>
      <trkpt lat="47.63603" lon="-2.86217">
        <ele>20.6</ele>
        <time>2021-08-05T09:16:51Z</time>
      </trkpt>
      <trkpt lat="47.63606" lon="-2.86214">
        <ele>20.6</ele>
        <time>2021-08-05T09:16:52Z</time>
      </trkpt>
      <trkpt lat="47.63609" lon="-2.86211">
        <ele>20.8</ele>
        <time>2021-08-05T09:16:53Z</time>
      </trkpt>
      <trkpt lat="47.63611" lon="-2.86209">
        <ele>21</ele>
        <time>2021-08-05T09:16:54Z</time>
      </trkpt>
      <trkpt lat="47.63614" lon="-2.86206">
        <ele>21.2</ele>
        <time>2021-08-05T09:16:55Z</time>
      </trkpt>
      <trkpt lat="47.63617" lon="-2.86204">
        <ele>21.2</ele>
        <time>2021-08-05T09:16:56Z</time>
      </trkpt>
      <trkpt lat="47.6362" lon="-2.86202">
        <ele>21.4</ele>
        <time>2021-08-05T09:16:57Z</time>
      </trkpt>
      <trkpt lat="47.63622" lon="-2.862">
        <ele>21.6</ele>
        <time>2021-08-05T09:16:58Z</time>
      </trkpt>
      <trkpt lat="47.63625" lon="-2.86198">
        <ele>21.8</ele>
        <time>2021-08-05T09:16:59Z</time>
      </trkpt>
      <trkpt lat="47.6363" lon="-2.86194">
        <ele>22</ele>
        <time>2021-08-05T09:17:01Z</time>
      </trkpt>
      <trkpt lat="47.63633" lon="-2.86193">
        <ele>22</ele>
        <time>2021-08-05T09:17:02Z</time>
      </trkpt>
      <trkpt lat="47.63635" lon="-2.86191">
        <ele>22.2</ele>
        <time>2021-08-05T09:17:03Z</time>
      </trkpt>
      <trkpt lat="47.63638" lon="-2.86189">
        <ele>22.2</ele>
        <time>2021-08-05T09:17:04Z</time>
      </trkpt>
      <trkpt lat="47.6364" lon="-2.86188">
        <ele>22.2</ele>
        <time>2021-08-05T09:17:05Z</time>
      </trkpt>
      <trkpt lat="47.63642" lon="-2.86186">
        <ele>22.2</ele>
        <time>2021-08-05T09:17:06Z</time>
      </trkpt>
      <trkpt lat="47.63644" lon="-2.86185">
        <ele>22.2</ele>
        <time>2021-08-05T09:17:07Z</time>
      </trkpt>
      <trkpt lat="47.63646" lon="-2.86183">
        <ele>22.4</ele>
        <time>2021-08-05T09:17:08Z</time>
      </trkpt>
      <trkpt lat="47.63649" lon="-2.86182">
        <ele>22.6</ele>
        <time>2021-08-05T09:17:09Z</time>
      </trkpt>
      <trkpt lat="47.63651" lon="-2.8618">
        <ele>22.6</ele>
        <time>2021-08-05T09:17:10Z</time>
      </trkpt>
      <trkpt lat="47.63655" lon="-2.86177">
        <ele>23</ele>
        <time>2021-08-05T09:17:12Z</time>
      </trkpt>
      <trkpt lat="47.63657" lon="-2.86176">
        <ele>23</ele>
        <time>2021-08-05T09:17:13Z</time>
      </trkpt>
      <trkpt lat="47.63659" lon="-2.86175">
        <ele>23.2</ele>
        <time>2021-08-05T09:17:14Z</time>
      </trkpt>
      <trkpt lat="47.63661" lon="-2.86174">
        <ele>23.6</ele>
        <time>2021-08-05T09:17:15Z</time>
      </trkpt>
      <trkpt lat="47.63663" lon="-2.86172">
        <ele>23.6</ele>
        <time>2021-08-05T09:17:16Z</time>
      </trkpt>
      <trkpt lat="47.63665" lon="-2.86171">
        <ele>23.8</ele>
        <time>2021-08-05T09:17:17Z</time>
      </trkpt>
      <trkpt lat="47.63667" lon="-2.86169">
        <ele>23.8</ele>
        <time>2021-08-05T09:17:18Z</time>
      </trkpt>
      <trkpt lat="47.63669" lon="-2.86168">
        <ele>24</ele>
        <time>2021-08-05T09:17:19Z</time>
      </trkpt>
      <trkpt lat="47.63671" lon="-2.86166">
        <ele>24.2</ele>
        <time>2021-08-05T09:17:20Z</time>
      </trkpt>
      <trkpt lat="47.63674" lon="-2.86165">
        <ele>24.6</ele>
        <time>2021-08-05T09:17:21Z</time>
      </trkpt>
      <trkpt lat="47.63678" lon="-2.86162">
        <ele>24.8</ele>
        <time>2021-08-05T09:17:23Z</time>
      </trkpt>
      <trkpt lat="47.6368" lon="-2.86161">
        <ele>25</ele>
        <time>2021-08-05T09:17:24Z</time>
      </trkpt>
      <trkpt lat="47.63682" lon="-2.86159">
        <ele>25</ele>
        <time>2021-08-05T09:17:25Z</time>
      </trkpt>
      <trkpt lat="47.63684" lon="-2.86157">
        <ele>25</ele>
        <time>2021-08-05T09:17:26Z</time>
      </trkpt>
      <trkpt lat="47.63686" lon="-2.86156">
        <ele>25.2</ele>
        <time>2021-08-05T09:17:27Z</time>
      </trkpt>
      <trkpt lat="47.63688" lon="-2.86155">
        <ele>25.2</ele>
        <time>2021-08-05T09:17:28Z</time>
      </trkpt>
      <trkpt lat="47.63691" lon="-2.86153">
        <ele>25.2</ele>
        <time>2021-08-05T09:17:29Z</time>
      </trkpt>
      <trkpt lat="47.63693" lon="-2.86152">
        <ele>25.2</ele>
        <time>2021-08-05T09:17:30Z</time>
      </trkpt>
      <trkpt lat="47.63695" lon="-2.8615">
        <ele>25.2</ele>
        <time>2021-08-05T09:17:31Z</time>
      </trkpt>
      <trkpt lat="47.63697" lon="-2.86149">
        <ele>25.2</ele>
        <time>2021-08-05T09:17:32Z</time>
      </trkpt>
      <trkpt lat="47.63699" lon="-2.86148">
        <ele>25.4</ele>
        <time>2021-08-05T09:17:33Z</time>
      </trkpt>
      <trkpt lat="47.63702" lon="-2.86146">
        <ele>25.4</ele>
        <time>2021-08-05T09:17:34Z</time>
      </trkpt>
      <trkpt lat="47.63704" lon="-2.86145">
        <ele>25.6</ele>
        <time>2021-08-05T09:17:35Z</time>
      </trkpt>
      <trkpt lat="47.63706" lon="-2.86143">
        <ele>25.8</ele>
        <time>2021-08-05T09:17:36Z</time>
      </trkpt>
      <trkpt lat="47.63709" lon="-2.86142">
        <ele>26</ele>
        <time>2021-08-05T09:17:37Z</time>
      </trkpt>
      <trkpt lat="47.63711" lon="-2.8614">
        <ele>26.2</ele>
        <time>2021-08-05T09:17:38Z</time>
      </trkpt>
      <trkpt lat="47.63714" lon="-2.86138">
        <ele>26.4</ele>
        <time>2021-08-05T09:17:39Z</time>
      </trkpt>
      <trkpt lat="47.63716" lon="-2.86137">
        <ele>26.6</ele>
        <time>2021-08-05T09:17:40Z</time>
      </trkpt>
      <trkpt lat="47.63719" lon="-2.86135">
        <ele>26.6</ele>
        <time>2021-08-05T09:17:41Z</time>
      </trkpt>
      <trkpt lat="47.63721" lon="-2.86132">
        <ele>26.8</ele>
        <time>2021-08-05T09:17:42Z</time>
      </trkpt>
      <trkpt lat="47.63724" lon="-2.8613">
        <ele>26.8</ele>
        <time>2021-08-05T09:17:43Z</time>
      </trkpt>
      <trkpt lat="47.63729" lon="-2.86124">
        <ele>26.8</ele>
        <time>2021-08-05T09:17:45Z</time>
      </trkpt>
      <trkpt lat="47.63732" lon="-2.8612">
        <ele>26.8</ele>
        <time>2021-08-05T09:17:46Z</time>
      </trkpt>
      <trkpt lat="47.63734" lon="-2.86116">
        <ele>26.8</ele>
        <time>2021-08-05T09:17:47Z</time>
      </trkpt>
      <trkpt lat="47.63737" lon="-2.86112">
        <ele>26.8</ele>
        <time>2021-08-05T09:17:48Z</time>
      </trkpt>
      <trkpt lat="47.6374" lon="-2.86107">
        <ele>26.8</ele>
        <time>2021-08-05T09:17:49Z</time>
      </trkpt>
      <trkpt lat="47.63743" lon="-2.86101">
        <ele>26.8</ele>
        <time>2021-08-05T09:17:50Z</time>
      </trkpt>
      <trkpt lat="47.63747" lon="-2.86095">
        <ele>26.8</ele>
        <time>2021-08-05T09:17:51Z</time>
      </trkpt>
      <trkpt lat="47.6375" lon="-2.86088">
        <ele>26.8</ele>
        <time>2021-08-05T09:17:52Z</time>
      </trkpt>
      <trkpt lat="47.63753" lon="-2.86082">
        <ele>26.6</ele>
        <time>2021-08-05T09:17:53Z</time>
      </trkpt>
      <trkpt lat="47.63756" lon="-2.86075">
        <ele>26.6</ele>
        <time>2021-08-05T09:17:54Z</time>
      </trkpt>
      <trkpt lat="47.6376" lon="-2.86062">
        <ele>26.4</ele>
        <time>2021-08-05T09:17:56Z</time>
      </trkpt>
      <trkpt lat="47.63762" lon="-2.86056">
        <ele>26.4</ele>
        <time>2021-08-05T09:17:57Z</time>
      </trkpt>
      <trkpt lat="47.63764" lon="-2.86051">
        <ele>26.2</ele>
        <time>2021-08-05T09:17:58Z</time>
      </trkpt>
      <trkpt lat="47.63766" lon="-2.86045">
        <ele>25.8</ele>
        <time>2021-08-05T09:17:59Z</time>
      </trkpt>
      <trkpt lat="47.63768" lon="-2.86039">
        <ele>25.6</ele>
        <time>2021-08-05T09:18:00Z</time>
      </trkpt>
      <trkpt lat="47.6377" lon="-2.86034">
        <ele>25.4</ele>
        <time>2021-08-05T09:18:01Z</time>
      </trkpt>
      <trkpt lat="47.63771" lon="-2.86028">
        <ele>25.4</ele>
        <time>2021-08-05T09:18:02Z</time>
      </trkpt>
      <trkpt lat="47.63773" lon="-2.86023">
        <ele>25.4</ele>
        <time>2021-08-05T09:18:03Z</time>
      </trkpt>
      <trkpt lat="47.63775" lon="-2.86018">
        <ele>25.4</ele>
        <time>2021-08-05T09:18:04Z</time>
      </trkpt>
      <trkpt lat="47.63777" lon="-2.86014">
        <ele>25.2</ele>
        <time>2021-08-05T09:18:05Z</time>
      </trkpt>
      <trkpt lat="47.63781" lon="-2.86005">
        <ele>25.2</ele>
        <time>2021-08-05T09:18:07Z</time>
      </trkpt>
      <trkpt lat="47.63783" lon="-2.86001">
        <ele>25.2</ele>
        <time>2021-08-05T09:18:08Z</time>
      </trkpt>
      <trkpt lat="47.63785" lon="-2.85998">
        <ele>25.2</ele>
        <time>2021-08-05T09:18:09Z</time>
      </trkpt>
      <trkpt lat="47.63787" lon="-2.85994">
        <ele>25.4</ele>
        <time>2021-08-05T09:18:10Z</time>
      </trkpt>
      <trkpt lat="47.63789" lon="-2.8599">
        <ele>25.4</ele>
        <time>2021-08-05T09:18:11Z</time>
      </trkpt>
      <trkpt lat="47.6379" lon="-2.85986">
        <ele>25.8</ele>
        <time>2021-08-05T09:18:12Z</time>
      </trkpt>
      <trkpt lat="47.63792" lon="-2.85983">
        <ele>25.8</ele>
        <time>2021-08-05T09:18:13Z</time>
      </trkpt>
      <trkpt lat="47.63794" lon="-2.85979">
        <ele>26.4</ele>
        <time>2021-08-05T09:18:14Z</time>
      </trkpt>
      <trkpt lat="47.63795" lon="-2.85975">
        <ele>26.6</ele>
        <time>2021-08-05T09:18:15Z</time>
      </trkpt>
      <trkpt lat="47.63797" lon="-2.85972">
        <ele>27</ele>
        <time>2021-08-05T09:18:16Z</time>
      </trkpt>
      <trkpt lat="47.63801" lon="-2.85965">
        <ele>27.4</ele>
        <time>2021-08-05T09:18:18Z</time>
      </trkpt>
      <trkpt lat="47.63802" lon="-2.85962">
        <ele>27.6</ele>
        <time>2021-08-05T09:18:19Z</time>
      </trkpt>
      <trkpt lat="47.63804" lon="-2.85958">
        <ele>27.8</ele>
        <time>2021-08-05T09:18:20Z</time>
      </trkpt>
      <trkpt lat="47.63806" lon="-2.85955">
        <ele>28</ele>
        <time>2021-08-05T09:18:21Z</time>
      </trkpt>
      <trkpt lat="47.63808" lon="-2.85952">
        <ele>28.2</ele>
        <time>2021-08-05T09:18:22Z</time>
      </trkpt>
      <trkpt lat="47.6381" lon="-2.85949">
        <ele>28.4</ele>
        <time>2021-08-05T09:18:23Z</time>
      </trkpt>
      <trkpt lat="47.63811" lon="-2.85946">
        <ele>28.4</ele>
        <time>2021-08-05T09:18:24Z</time>
      </trkpt>
      <trkpt lat="47.63813" lon="-2.85943">
        <ele>28.6</ele>
        <time>2021-08-05T09:18:25Z</time>
      </trkpt>
      <trkpt lat="47.63814" lon="-2.8594">
        <ele>28.6</ele>
        <time>2021-08-05T09:18:26Z</time>
      </trkpt>
      <trkpt lat="47.63816" lon="-2.85937">
        <ele>28.6</ele>
        <time>2021-08-05T09:18:27Z</time>
      </trkpt>
      <trkpt lat="47.63819" lon="-2.85932">
        <ele>28.8</ele>
        <time>2021-08-05T09:18:29Z</time>
      </trkpt>
      <trkpt lat="47.63821" lon="-2.85929">
        <ele>29</ele>
        <time>2021-08-05T09:18:30Z</time>
      </trkpt>
      <trkpt lat="47.63822" lon="-2.85926">
        <ele>29</ele>
        <time>2021-08-05T09:18:31Z</time>
      </trkpt>
      <trkpt lat="47.63824" lon="-2.85923">
        <ele>29.2</ele>
        <time>2021-08-05T09:18:32Z</time>
      </trkpt>
      <trkpt lat="47.63826" lon="-2.8592">
        <ele>29.4</ele>
        <time>2021-08-05T09:18:33Z</time>
      </trkpt>
      <trkpt lat="47.63828" lon="-2.85917">
        <ele>29.6</ele>
        <time>2021-08-05T09:18:34Z</time>
      </trkpt>
      <trkpt lat="47.6383" lon="-2.85915">
        <ele>29.8</ele>
        <time>2021-08-05T09:18:35Z</time>
      </trkpt>
      <trkpt lat="47.63831" lon="-2.85912">
        <ele>30</ele>
        <time>2021-08-05T09:18:36Z</time>
      </trkpt>
      <trkpt lat="47.63833" lon="-2.85909">
        <ele>30.2</ele>
        <time>2021-08-05T09:18:37Z</time>
      </trkpt>
      <trkpt lat="47.63834" lon="-2.85907">
        <ele>30.2</ele>
        <time>2021-08-05T09:18:38Z</time>
      </trkpt>
      <trkpt lat="47.63838" lon="-2.85902">
        <ele>30.4</ele>
        <time>2021-08-05T09:18:40Z</time>
      </trkpt>
      <trkpt lat="47.6384" lon="-2.859">
        <ele>30.6</ele>
        <time>2021-08-05T09:18:41Z</time>
      </trkpt>
      <trkpt lat="47.63842" lon="-2.85897">
        <ele>30.8</ele>
        <time>2021-08-05T09:18:42Z</time>
      </trkpt>
      <trkpt lat="47.63844" lon="-2.85895">
        <ele>30.8</ele>
        <time>2021-08-05T09:18:43Z</time>
      </trkpt>
      <trkpt lat="47.63846" lon="-2.85892">
        <ele>31</ele>
        <time>2021-08-05T09:18:44Z</time>
      </trkpt>
      <trkpt lat="47.63848" lon="-2.85889">
        <ele>31</ele>
        <time>2021-08-05T09:18:45Z</time>
      </trkpt>
      <trkpt lat="47.6385" lon="-2.85887">
        <ele>31</ele>
        <time>2021-08-05T09:18:46Z</time>
      </trkpt>
      <trkpt lat="47.63853" lon="-2.85884">
        <ele>31</ele>
        <time>2021-08-05T09:18:47Z</time>
      </trkpt>
      <trkpt lat="47.63855" lon="-2.85882">
        <ele>31.2</ele>
        <time>2021-08-05T09:18:48Z</time>
      </trkpt>
      <trkpt lat="47.63857" lon="-2.85879">
        <ele>31.2</ele>
        <time>2021-08-05T09:18:49Z</time>
      </trkpt>
      <trkpt lat="47.63858" lon="-2.85877">
        <ele>31.4</ele>
        <time>2021-08-05T09:18:50Z</time>
      </trkpt>
      <trkpt lat="47.6386" lon="-2.85874">
        <ele>31.4</ele>
        <time>2021-08-05T09:18:51Z</time>
      </trkpt>
      <trkpt lat="47.63861" lon="-2.85871">
        <ele>31.6</ele>
        <time>2021-08-05T09:18:52Z</time>
      </trkpt>
      <trkpt lat="47.63863" lon="-2.85869">
        <ele>31.6</ele>
        <time>2021-08-05T09:18:53Z</time>
      </trkpt>
      <trkpt lat="47.63865" lon="-2.85866">
        <ele>31.8</ele>
        <time>2021-08-05T09:18:54Z</time>
      </trkpt>
      <trkpt lat="47.63867" lon="-2.85863">
        <ele>31.8</ele>
        <time>2021-08-05T09:18:55Z</time>
      </trkpt>
      <trkpt lat="47.63869" lon="-2.85861">
        <ele>31.8</ele>
        <time>2021-08-05T09:18:56Z</time>
      </trkpt>
      <trkpt lat="47.63872" lon="-2.85858">
        <ele>32</ele>
        <time>2021-08-05T09:18:57Z</time>
      </trkpt>
      <trkpt lat="47.63874" lon="-2.85856">
        <ele>32</ele>
        <time>2021-08-05T09:18:58Z</time>
      </trkpt>
      <trkpt lat="47.63877" lon="-2.85852">
        <ele>32.2</ele>
        <time>2021-08-05T09:18:59Z</time>
      </trkpt>
      <trkpt lat="47.63879" lon="-2.85849">
        <ele>32.2</ele>
        <time>2021-08-05T09:19:00Z</time>
      </trkpt>
      <trkpt lat="47.63883" lon="-2.85843">
        <ele>32.2</ele>
        <time>2021-08-05T09:19:02Z</time>
      </trkpt>
      <trkpt lat="47.63885" lon="-2.8584">
        <ele>32.2</ele>
        <time>2021-08-05T09:19:03Z</time>
      </trkpt>
      <trkpt lat="47.63887" lon="-2.85837">
        <ele>32.2</ele>
        <time>2021-08-05T09:19:04Z</time>
      </trkpt>
      <trkpt lat="47.63889" lon="-2.85834">
        <ele>32.4</ele>
        <time>2021-08-05T09:19:05Z</time>
      </trkpt>
      <trkpt lat="47.63891" lon="-2.85831">
        <ele>32.6</ele>
        <time>2021-08-05T09:19:06Z</time>
      </trkpt>
      <trkpt lat="47.63893" lon="-2.85828">
        <ele>32.8</ele>
        <time>2021-08-05T09:19:07Z</time>
      </trkpt>
      <trkpt lat="47.63895" lon="-2.85825">
        <ele>32.8</ele>
        <time>2021-08-05T09:19:08Z</time>
      </trkpt>
      <trkpt lat="47.63896" lon="-2.85821">
        <ele>32.8</ele>
        <time>2021-08-05T09:19:09Z</time>
      </trkpt>
      <trkpt lat="47.63898" lon="-2.85817">
        <ele>33</ele>
        <time>2021-08-05T09:19:10Z</time>
      </trkpt>
      <trkpt lat="47.63899" lon="-2.85813">
        <ele>33</ele>
        <time>2021-08-05T09:19:11Z</time>
      </trkpt>
      <trkpt lat="47.63901" lon="-2.8581">
        <ele>33.2</ele>
        <time>2021-08-05T09:19:12Z</time>
      </trkpt>
      <trkpt lat="47.63902" lon="-2.85806">
        <ele>33.4</ele>
        <time>2021-08-05T09:19:13Z</time>
      </trkpt>
      <trkpt lat="47.63903" lon="-2.85802">
        <ele>33.6</ele>
        <time>2021-08-05T09:19:14Z</time>
      </trkpt>
      <trkpt lat="47.63905" lon="-2.85799">
        <ele>33.6</ele>
        <time>2021-08-05T09:19:15Z</time>
      </trkpt>
      <trkpt lat="47.63906" lon="-2.85795">
        <ele>33.8</ele>
        <time>2021-08-05T09:19:16Z</time>
      </trkpt>
      <trkpt lat="47.63907" lon="-2.85791">
        <ele>34</ele>
        <time>2021-08-05T09:19:17Z</time>
      </trkpt>
      <trkpt lat="47.63908" lon="-2.85786">
        <ele>34.2</ele>
        <time>2021-08-05T09:19:18Z</time>
      </trkpt>
      <trkpt lat="47.63909" lon="-2.85782">
        <ele>34.4</ele>
        <time>2021-08-05T09:19:19Z</time>
      </trkpt>
      <trkpt lat="47.63911" lon="-2.85778">
        <ele>34.4</ele>
        <time>2021-08-05T09:19:20Z</time>
      </trkpt>
      <trkpt lat="47.63912" lon="-2.85774">
        <ele>34.6</ele>
        <time>2021-08-05T09:19:21Z</time>
      </trkpt>
      <trkpt lat="47.63913" lon="-2.85769">
        <ele>34.6</ele>
        <time>2021-08-05T09:19:22Z</time>
      </trkpt>
      <trkpt lat="47.63914" lon="-2.85761">
        <ele>34.8</ele>
        <time>2021-08-05T09:19:24Z</time>
      </trkpt>
      <trkpt lat="47.63915" lon="-2.85757">
        <ele>34.8</ele>
        <time>2021-08-05T09:19:25Z</time>
      </trkpt>
      <trkpt lat="47.63916" lon="-2.85753">
        <ele>34.8</ele>
        <time>2021-08-05T09:19:26Z</time>
      </trkpt>
      <trkpt lat="47.63917" lon="-2.8575">
        <ele>34.8</ele>
        <time>2021-08-05T09:19:27Z</time>
      </trkpt>
      <trkpt lat="47.63919" lon="-2.85747">
        <ele>34.8</ele>
        <time>2021-08-05T09:19:28Z</time>
      </trkpt>
      <trkpt lat="47.6392" lon="-2.85745">
        <ele>34.8</ele>
        <time>2021-08-05T09:19:29Z</time>
      </trkpt>
      <trkpt lat="47.63921" lon="-2.85743">
        <ele>34.8</ele>
        <time>2021-08-05T09:19:30Z</time>
      </trkpt>
      <trkpt lat="47.63922" lon="-2.85742">
        <ele>35</ele>
        <time>2021-08-05T09:19:31Z</time>
      </trkpt>
      <trkpt lat="47.63923" lon="-2.85741">
        <ele>35</ele>
        <time>2021-08-05T09:19:32Z</time>
      </trkpt>
      <trkpt lat="47.63924" lon="-2.85739">
        <ele>35.2</ele>
        <time>2021-08-05T09:19:33Z</time>
      </trkpt>
      <trkpt lat="47.63927" lon="-2.85734">
        <ele>35.2</ele>
        <time>2021-08-05T09:19:35Z</time>
      </trkpt>
      <trkpt lat="47.63928" lon="-2.85731">
        <ele>35.4</ele>
        <time>2021-08-05T09:19:36Z</time>
      </trkpt>
      <trkpt lat="47.6393" lon="-2.85728">
        <ele>35.4</ele>
        <time>2021-08-05T09:19:37Z</time>
      </trkpt>
      <trkpt lat="47.63933" lon="-2.85724">
        <ele>35.4</ele>
        <time>2021-08-05T09:19:38Z</time>
      </trkpt>
      <trkpt lat="47.63935" lon="-2.85721">
        <ele>35.4</ele>
        <time>2021-08-05T09:19:39Z</time>
      </trkpt>
      <trkpt lat="47.63937" lon="-2.85717">
        <ele>35.4</ele>
        <time>2021-08-05T09:19:40Z</time>
      </trkpt>
      <trkpt lat="47.6394" lon="-2.85713">
        <ele>35.6</ele>
        <time>2021-08-05T09:19:41Z</time>
      </trkpt>
      <trkpt lat="47.63942" lon="-2.85709">
        <ele>35.6</ele>
        <time>2021-08-05T09:19:42Z</time>
      </trkpt>
      <trkpt lat="47.63945" lon="-2.85705">
        <ele>35.6</ele>
        <time>2021-08-05T09:19:43Z</time>
      </trkpt>
      <trkpt lat="47.63947" lon="-2.857">
        <ele>35.6</ele>
        <time>2021-08-05T09:19:44Z</time>
      </trkpt>
      <trkpt lat="47.63952" lon="-2.85691">
        <ele>35.8</ele>
        <time>2021-08-05T09:19:46Z</time>
      </trkpt>
      <trkpt lat="47.63955" lon="-2.85687">
        <ele>36</ele>
        <time>2021-08-05T09:19:47Z</time>
      </trkpt>
      <trkpt lat="47.63958" lon="-2.85682">
        <ele>36</ele>
        <time>2021-08-05T09:19:48Z</time>
      </trkpt>
      <trkpt lat="47.6396" lon="-2.85678">
        <ele>36</ele>
        <time>2021-08-05T09:19:49Z</time>
      </trkpt>
      <trkpt lat="47.63962" lon="-2.85673">
        <ele>36</ele>
        <time>2021-08-05T09:19:50Z</time>
      </trkpt>
      <trkpt lat="47.63965" lon="-2.85668">
        <ele>36</ele>
        <time>2021-08-05T09:19:51Z</time>
      </trkpt>
      <trkpt lat="47.63967" lon="-2.85663">
        <ele>36.2</ele>
        <time>2021-08-05T09:19:52Z</time>
      </trkpt>
      <trkpt lat="47.63969" lon="-2.85657">
        <ele>36.2</ele>
        <time>2021-08-05T09:19:53Z</time>
      </trkpt>
      <trkpt lat="47.63972" lon="-2.85652">
        <ele>36.2</ele>
        <time>2021-08-05T09:19:54Z</time>
      </trkpt>
      <trkpt lat="47.63974" lon="-2.85647">
        <ele>36.2</ele>
        <time>2021-08-05T09:19:55Z</time>
      </trkpt>
      <trkpt lat="47.63976" lon="-2.85642">
        <ele>36.4</ele>
        <time>2021-08-05T09:19:56Z</time>
      </trkpt>
      <trkpt lat="47.63977" lon="-2.85636">
        <ele>36.4</ele>
        <time>2021-08-05T09:19:57Z</time>
      </trkpt>
      <trkpt lat="47.63979" lon="-2.8563">
        <ele>36.6</ele>
        <time>2021-08-05T09:19:58Z</time>
      </trkpt>
      <trkpt lat="47.63981" lon="-2.85625">
        <ele>36.6</ele>
        <time>2021-08-05T09:19:59Z</time>
      </trkpt>
      <trkpt lat="47.63984" lon="-2.85619">
        <ele>36.6</ele>
        <time>2021-08-05T09:20:00Z</time>
      </trkpt>
      <trkpt lat="47.63986" lon="-2.85613">
        <ele>36.6</ele>
        <time>2021-08-05T09:20:01Z</time>
      </trkpt>
      <trkpt lat="47.63988" lon="-2.85607">
        <ele>36.6</ele>
        <time>2021-08-05T09:20:02Z</time>
      </trkpt>
      <trkpt lat="47.63989" lon="-2.85601">
        <ele>36.6</ele>
        <time>2021-08-05T09:20:03Z</time>
      </trkpt>
      <trkpt lat="47.63991" lon="-2.85595">
        <ele>36.6</ele>
        <time>2021-08-05T09:20:04Z</time>
      </trkpt>
      <trkpt lat="47.63992" lon="-2.85588">
        <ele>36.6</ele>
        <time>2021-08-05T09:20:05Z</time>
      </trkpt>
      <trkpt lat="47.63994" lon="-2.85582">
        <ele>36.6</ele>
        <time>2021-08-05T09:20:06Z</time>
      </trkpt>
      <trkpt lat="47.63998" lon="-2.8557">
        <ele>36.6</ele>
        <time>2021-08-05T09:20:08Z</time>
      </trkpt>
      <trkpt lat="47.64" lon="-2.85564">
        <ele>36.6</ele>
        <time>2021-08-05T09:20:09Z</time>
      </trkpt>
      <trkpt lat="47.64002" lon="-2.85558">
        <ele>36.4</ele>
        <time>2021-08-05T09:20:10Z</time>
      </trkpt>
      <trkpt lat="47.64004" lon="-2.85552">
        <ele>36.4</ele>
        <time>2021-08-05T09:20:11Z</time>
      </trkpt>
      <trkpt lat="47.64006" lon="-2.85547">
        <ele>36.4</ele>
        <time>2021-08-05T09:20:12Z</time>
      </trkpt>
      <trkpt lat="47.64008" lon="-2.85541">
        <ele>36.4</ele>
        <time>2021-08-05T09:20:13Z</time>
      </trkpt>
      <trkpt lat="47.64009" lon="-2.85536">
        <ele>36.4</ele>
        <time>2021-08-05T09:20:14Z</time>
      </trkpt>
      <trkpt lat="47.64011" lon="-2.8553">
        <ele>36.4</ele>
        <time>2021-08-05T09:20:15Z</time>
      </trkpt>
      <trkpt lat="47.64013" lon="-2.85525">
        <ele>36.4</ele>
        <time>2021-08-05T09:20:16Z</time>
      </trkpt>
      <trkpt lat="47.64015" lon="-2.85519">
        <ele>36.4</ele>
        <time>2021-08-05T09:20:17Z</time>
      </trkpt>
      <trkpt lat="47.64019" lon="-2.85508">
        <ele>36.4</ele>
        <time>2021-08-05T09:20:19Z</time>
      </trkpt>
      <trkpt lat="47.64022" lon="-2.85503">
        <ele>36.6</ele>
        <time>2021-08-05T09:20:20Z</time>
      </trkpt>
      <trkpt lat="47.64024" lon="-2.85498">
        <ele>36.6</ele>
        <time>2021-08-05T09:20:21Z</time>
      </trkpt>
      <trkpt lat="47.64026" lon="-2.85493">
        <ele>36.6</ele>
        <time>2021-08-05T09:20:22Z</time>
      </trkpt>
      <trkpt lat="47.64029" lon="-2.85488">
        <ele>36.6</ele>
        <time>2021-08-05T09:20:23Z</time>
      </trkpt>
      <trkpt lat="47.64032" lon="-2.85483">
        <ele>36.6</ele>
        <time>2021-08-05T09:20:24Z</time>
      </trkpt>
      <trkpt lat="47.64034" lon="-2.85478">
        <ele>36.6</ele>
        <time>2021-08-05T09:20:25Z</time>
      </trkpt>
      <trkpt lat="47.64037" lon="-2.85474">
        <ele>36.8</ele>
        <time>2021-08-05T09:20:26Z</time>
      </trkpt>
      <trkpt lat="47.6404" lon="-2.8547">
        <ele>36.8</ele>
        <time>2021-08-05T09:20:27Z</time>
      </trkpt>
      <trkpt lat="47.64042" lon="-2.85466">
        <ele>36.8</ele>
        <time>2021-08-05T09:20:28Z</time>
      </trkpt>
      <trkpt lat="47.64045" lon="-2.85462">
        <ele>36.8</ele>
        <time>2021-08-05T09:20:29Z</time>
      </trkpt>
      <trkpt lat="47.64048" lon="-2.85458">
        <ele>36.8</ele>
        <time>2021-08-05T09:20:30Z</time>
      </trkpt>
      <trkpt lat="47.64051" lon="-2.85454">
        <ele>36.8</ele>
        <time>2021-08-05T09:20:31Z</time>
      </trkpt>
      <trkpt lat="47.64053" lon="-2.85451">
        <ele>37</ele>
        <time>2021-08-05T09:20:32Z</time>
      </trkpt>
      <trkpt lat="47.64056" lon="-2.85447">
        <ele>37</ele>
        <time>2021-08-05T09:20:33Z</time>
      </trkpt>
      <trkpt lat="47.64059" lon="-2.85444">
        <ele>37</ele>
        <time>2021-08-05T09:20:34Z</time>
      </trkpt>
      <trkpt lat="47.64062" lon="-2.8544">
        <ele>37.2</ele>
        <time>2021-08-05T09:20:35Z</time>
      </trkpt>
      <trkpt lat="47.64064" lon="-2.85438">
        <ele>37.2</ele>
        <time>2021-08-05T09:20:36Z</time>
      </trkpt>
      <trkpt lat="47.64067" lon="-2.85435">
        <ele>37.4</ele>
        <time>2021-08-05T09:20:37Z</time>
      </trkpt>
      <trkpt lat="47.64068" lon="-2.85433">
        <ele>37.6</ele>
        <time>2021-08-05T09:20:38Z</time>
      </trkpt>
      <trkpt lat="47.6407" lon="-2.85431">
        <ele>37.6</ele>
        <time>2021-08-05T09:20:39Z</time>
      </trkpt>
      <trkpt lat="47.64075" lon="-2.85428">
        <ele>37.8</ele>
        <time>2021-08-05T09:20:41Z</time>
      </trkpt>
      <trkpt lat="47.64077" lon="-2.85426">
        <ele>37.8</ele>
        <time>2021-08-05T09:20:42Z</time>
      </trkpt>
      <trkpt lat="47.64079" lon="-2.85424">
        <ele>38</ele>
        <time>2021-08-05T09:20:43Z</time>
      </trkpt>
      <trkpt lat="47.64081" lon="-2.85422">
        <ele>38</ele>
        <time>2021-08-05T09:20:44Z</time>
      </trkpt>
      <trkpt lat="47.64083" lon="-2.8542">
        <ele>38</ele>
        <time>2021-08-05T09:20:45Z</time>
      </trkpt>
      <trkpt lat="47.64085" lon="-2.85418">
        <ele>38.2</ele>
        <time>2021-08-05T09:20:46Z</time>
      </trkpt>
      <trkpt lat="47.64086" lon="-2.85415">
        <ele>38.2</ele>
        <time>2021-08-05T09:20:47Z</time>
      </trkpt>
      <trkpt lat="47.64088" lon="-2.85413">
        <ele>38.2</ele>
        <time>2021-08-05T09:20:48Z</time>
      </trkpt>
      <trkpt lat="47.6409" lon="-2.85411">
        <ele>38.4</ele>
        <time>2021-08-05T09:20:49Z</time>
      </trkpt>
      <trkpt lat="47.64092" lon="-2.85409">
        <ele>38.4</ele>
        <time>2021-08-05T09:20:50Z</time>
      </trkpt>
      <trkpt lat="47.64095" lon="-2.85407">
        <ele>38.4</ele>
        <time>2021-08-05T09:20:51Z</time>
      </trkpt>
      <trkpt lat="47.64096" lon="-2.85405">
        <ele>38.6</ele>
        <time>2021-08-05T09:20:52Z</time>
      </trkpt>
      <trkpt lat="47.64098" lon="-2.85403">
        <ele>38.6</ele>
        <time>2021-08-05T09:20:53Z</time>
      </trkpt>
      <trkpt lat="47.641" lon="-2.85401">
        <ele>38.6</ele>
        <time>2021-08-05T09:20:54Z</time>
      </trkpt>
      <trkpt lat="47.64102" lon="-2.85399">
        <ele>38.6</ele>
        <time>2021-08-05T09:20:55Z</time>
      </trkpt>
      <trkpt lat="47.64104" lon="-2.85397">
        <ele>38.8</ele>
        <time>2021-08-05T09:20:56Z</time>
      </trkpt>
      <trkpt lat="47.64106" lon="-2.85395">
        <ele>38.8</ele>
        <time>2021-08-05T09:20:57Z</time>
      </trkpt>
      <trkpt lat="47.64108" lon="-2.85393">
        <ele>38.8</ele>
        <time>2021-08-05T09:20:58Z</time>
      </trkpt>
      <trkpt lat="47.6411" lon="-2.85391">
        <ele>38.8</ele>
        <time>2021-08-05T09:20:59Z</time>
      </trkpt>
      <trkpt lat="47.64112" lon="-2.8539">
        <ele>39</ele>
        <time>2021-08-05T09:21:00Z</time>
      </trkpt>
      <trkpt lat="47.64114" lon="-2.85388">
        <ele>39</ele>
        <time>2021-08-05T09:21:01Z</time>
      </trkpt>
      <trkpt lat="47.64118" lon="-2.85383">
        <ele>39.2</ele>
        <time>2021-08-05T09:21:03Z</time>
      </trkpt>
      <trkpt lat="47.6412" lon="-2.85381">
        <ele>39.2</ele>
        <time>2021-08-05T09:21:04Z</time>
      </trkpt>
      <trkpt lat="47.64123" lon="-2.85379">
        <ele>39.4</ele>
        <time>2021-08-05T09:21:05Z</time>
      </trkpt>
      <trkpt lat="47.64125" lon="-2.85377">
        <ele>39.4</ele>
        <time>2021-08-05T09:21:06Z</time>
      </trkpt>
      <trkpt lat="47.64126" lon="-2.85375">
        <ele>39.6</ele>
        <time>2021-08-05T09:21:07Z</time>
      </trkpt>
      <trkpt lat="47.64128" lon="-2.85373">
        <ele>39.6</ele>
        <time>2021-08-05T09:21:08Z</time>
      </trkpt>
      <trkpt lat="47.64129" lon="-2.85371">
        <ele>39.8</ele>
        <time>2021-08-05T09:21:09Z</time>
      </trkpt>
      <trkpt lat="47.64131" lon="-2.85368">
        <ele>40</ele>
        <time>2021-08-05T09:21:10Z</time>
      </trkpt>
      <trkpt lat="47.64133" lon="-2.85365">
        <ele>40</ele>
        <time>2021-08-05T09:21:11Z</time>
      </trkpt>
      <trkpt lat="47.64135" lon="-2.85362">
        <ele>40.2</ele>
        <time>2021-08-05T09:21:12Z</time>
      </trkpt>
      <trkpt lat="47.64138" lon="-2.85356">
        <ele>40.2</ele>
        <time>2021-08-05T09:21:14Z</time>
      </trkpt>
      <trkpt lat="47.6414" lon="-2.85353">
        <ele>40.4</ele>
        <time>2021-08-05T09:21:15Z</time>
      </trkpt>
      <trkpt lat="47.64142" lon="-2.8535">
        <ele>40.6</ele>
        <time>2021-08-05T09:21:16Z</time>
      </trkpt>
      <trkpt lat="47.64144" lon="-2.85346">
        <ele>40.8</ele>
        <time>2021-08-05T09:21:17Z</time>
      </trkpt>
      <trkpt lat="47.64145" lon="-2.85342">
        <ele>40.8</ele>
        <time>2021-08-05T09:21:18Z</time>
      </trkpt>
      <trkpt lat="47.64147" lon="-2.85337">
        <ele>41</ele>
        <time>2021-08-05T09:21:19Z</time>
      </trkpt>
      <trkpt lat="47.64148" lon="-2.85332">
        <ele>41</ele>
        <time>2021-08-05T09:21:20Z</time>
      </trkpt>
      <trkpt lat="47.6415" lon="-2.85327">
        <ele>41.2</ele>
        <time>2021-08-05T09:21:21Z</time>
      </trkpt>
      <trkpt lat="47.64151" lon="-2.85322">
        <ele>41.2</ele>
        <time>2021-08-05T09:21:22Z</time>
      </trkpt>
      <trkpt lat="47.64152" lon="-2.85317">
        <ele>41.4</ele>
        <time>2021-08-05T09:21:23Z</time>
      </trkpt>
      <trkpt lat="47.64154" lon="-2.85305">
        <ele>41.4</ele>
        <time>2021-08-05T09:21:25Z</time>
      </trkpt>
      <trkpt lat="47.64155" lon="-2.85299">
        <ele>41.4</ele>
        <time>2021-08-05T09:21:26Z</time>
      </trkpt>
      <trkpt lat="47.64156" lon="-2.85293">
        <ele>41.4</ele>
        <time>2021-08-05T09:21:27Z</time>
      </trkpt>
      <trkpt lat="47.64156" lon="-2.85286">
        <ele>41.4</ele>
        <time>2021-08-05T09:21:28Z</time>
      </trkpt>
      <trkpt lat="47.64156" lon="-2.8528">
        <ele>41.4</ele>
        <time>2021-08-05T09:21:29Z</time>
      </trkpt>
      <trkpt lat="47.64157" lon="-2.85274">
        <ele>41.4</ele>
        <time>2021-08-05T09:21:30Z</time>
      </trkpt>
      <trkpt lat="47.64157" lon="-2.85267">
        <ele>41.6</ele>
        <time>2021-08-05T09:21:31Z</time>
      </trkpt>
      <trkpt lat="47.64157" lon="-2.85261">
        <ele>41.6</ele>
        <time>2021-08-05T09:21:32Z</time>
      </trkpt>
      <trkpt lat="47.64158" lon="-2.85255">
        <ele>41.6</ele>
        <time>2021-08-05T09:21:33Z</time>
      </trkpt>
      <trkpt lat="47.64159" lon="-2.85247">
        <ele>41.6</ele>
        <time>2021-08-05T09:21:34Z</time>
      </trkpt>
      <trkpt lat="47.64159" lon="-2.85233">
        <ele>41.6</ele>
        <time>2021-08-05T09:21:36Z</time>
      </trkpt>
      <trkpt lat="47.6416" lon="-2.85225">
        <ele>41.6</ele>
        <time>2021-08-05T09:21:37Z</time>
      </trkpt>
      <trkpt lat="47.6416" lon="-2.85218">
        <ele>41.6</ele>
        <time>2021-08-05T09:21:38Z</time>
      </trkpt>
      <trkpt lat="47.64161" lon="-2.8521">
        <ele>41.6</ele>
        <time>2021-08-05T09:21:39Z</time>
      </trkpt>
      <trkpt lat="47.64162" lon="-2.85203">
        <ele>41.6</ele>
        <time>2021-08-05T09:21:40Z</time>
      </trkpt>
      <trkpt lat="47.64163" lon="-2.85196">
        <ele>41.6</ele>
        <time>2021-08-05T09:21:41Z</time>
      </trkpt>
      <trkpt lat="47.64164" lon="-2.85189">
        <ele>41.6</ele>
        <time>2021-08-05T09:21:42Z</time>
      </trkpt>
      <trkpt lat="47.64164" lon="-2.85182">
        <ele>41.6</ele>
        <time>2021-08-05T09:21:43Z</time>
      </trkpt>
      <trkpt lat="47.64165" lon="-2.85176">
        <ele>41.6</ele>
        <time>2021-08-05T09:21:44Z</time>
      </trkpt>
      <trkpt lat="47.64166" lon="-2.8517">
        <ele>41.6</ele>
        <time>2021-08-05T09:21:45Z</time>
      </trkpt>
      <trkpt lat="47.64167" lon="-2.85164">
        <ele>41.6</ele>
        <time>2021-08-05T09:21:46Z</time>
      </trkpt>
      <trkpt lat="47.64168" lon="-2.85158">
        <ele>41.6</ele>
        <time>2021-08-05T09:21:47Z</time>
      </trkpt>
      <trkpt lat="47.6417" lon="-2.85152">
        <ele>41.8</ele>
        <time>2021-08-05T09:21:48Z</time>
      </trkpt>
      <trkpt lat="47.64171" lon="-2.85146">
        <ele>41.8</ele>
        <time>2021-08-05T09:21:49Z</time>
      </trkpt>
      <trkpt lat="47.64172" lon="-2.85141">
        <ele>41.8</ele>
        <time>2021-08-05T09:21:50Z</time>
      </trkpt>
      <trkpt lat="47.64173" lon="-2.85135">
        <ele>41.8</ele>
        <time>2021-08-05T09:21:51Z</time>
      </trkpt>
      <trkpt lat="47.64174" lon="-2.85129">
        <ele>41.8</ele>
        <time>2021-08-05T09:21:52Z</time>
      </trkpt>
      <trkpt lat="47.64174" lon="-2.85124">
        <ele>42</ele>
        <time>2021-08-05T09:21:53Z</time>
      </trkpt>
      <trkpt lat="47.64175" lon="-2.8512">
        <ele>42</ele>
        <time>2021-08-05T09:21:54Z</time>
      </trkpt>
      <trkpt lat="47.64175" lon="-2.85115">
        <ele>42</ele>
        <time>2021-08-05T09:21:55Z</time>
      </trkpt>
      <trkpt lat="47.64176" lon="-2.85111">
        <ele>42</ele>
        <time>2021-08-05T09:21:56Z</time>
      </trkpt>
      <trkpt lat="47.64178" lon="-2.85103">
        <ele>42</ele>
        <time>2021-08-05T09:21:58Z</time>
      </trkpt>
      <trkpt lat="47.64179" lon="-2.85099">
        <ele>42</ele>
        <time>2021-08-05T09:21:59Z</time>
      </trkpt>
      <trkpt lat="47.6418" lon="-2.85095">
        <ele>42</ele>
        <time>2021-08-05T09:22:00Z</time>
      </trkpt>
      <trkpt lat="47.6418" lon="-2.85092">
        <ele>42</ele>
        <time>2021-08-05T09:22:01Z</time>
      </trkpt>
      <trkpt lat="47.64181" lon="-2.85089">
        <ele>42.2</ele>
        <time>2021-08-05T09:22:02Z</time>
      </trkpt>
      <trkpt lat="47.64182" lon="-2.85086">
        <ele>42.2</ele>
        <time>2021-08-05T09:22:03Z</time>
      </trkpt>
      <trkpt lat="47.64183" lon="-2.85083">
        <ele>42.2</ele>
        <time>2021-08-05T09:22:04Z</time>
      </trkpt>
      <trkpt lat="47.64184" lon="-2.85079">
        <ele>42.2</ele>
        <time>2021-08-05T09:22:05Z</time>
      </trkpt>
      <trkpt lat="47.64185" lon="-2.85076">
        <ele>42.2</ele>
        <time>2021-08-05T09:22:06Z</time>
      </trkpt>
      <trkpt lat="47.64186" lon="-2.85072">
        <ele>42.4</ele>
        <time>2021-08-05T09:22:07Z</time>
      </trkpt>
      <trkpt lat="47.64187" lon="-2.85064">
        <ele>42.6</ele>
        <time>2021-08-05T09:22:09Z</time>
      </trkpt>
      <trkpt lat="47.64188" lon="-2.8506">
        <ele>42.8</ele>
        <time>2021-08-05T09:22:10Z</time>
      </trkpt>
      <trkpt lat="47.64189" lon="-2.85056">
        <ele>43</ele>
        <time>2021-08-05T09:22:11Z</time>
      </trkpt>
      <trkpt lat="47.6419" lon="-2.85053">
        <ele>43.2</ele>
        <time>2021-08-05T09:22:12Z</time>
      </trkpt>
      <trkpt lat="47.6419" lon="-2.85049">
        <ele>43.4</ele>
        <time>2021-08-05T09:22:13Z</time>
      </trkpt>
      <trkpt lat="47.64191" lon="-2.85045">
        <ele>43.8</ele>
        <time>2021-08-05T09:22:14Z</time>
      </trkpt>
      <trkpt lat="47.64192" lon="-2.85041">
        <ele>44</ele>
        <time>2021-08-05T09:22:15Z</time>
      </trkpt>
      <trkpt lat="47.64193" lon="-2.85036">
        <ele>44.2</ele>
        <time>2021-08-05T09:22:16Z</time>
      </trkpt>
      <trkpt lat="47.64194" lon="-2.85032">
        <ele>44.2</ele>
        <time>2021-08-05T09:22:17Z</time>
      </trkpt>
      <trkpt lat="47.64194" lon="-2.85028">
        <ele>44.2</ele>
        <time>2021-08-05T09:22:18Z</time>
      </trkpt>
      <trkpt lat="47.64196" lon="-2.85019">
        <ele>44.6</ele>
        <time>2021-08-05T09:22:20Z</time>
      </trkpt>
      <trkpt lat="47.64197" lon="-2.85015">
        <ele>44.6</ele>
        <time>2021-08-05T09:22:21Z</time>
      </trkpt>
      <trkpt lat="47.64197" lon="-2.85011">
        <ele>44.8</ele>
        <time>2021-08-05T09:22:22Z</time>
      </trkpt>
      <trkpt lat="47.64198" lon="-2.85008">
        <ele>44.8</ele>
        <time>2021-08-05T09:22:23Z</time>
      </trkpt>
      <trkpt lat="47.64199" lon="-2.85004">
        <ele>44.8</ele>
        <time>2021-08-05T09:22:24Z</time>
      </trkpt>
      <trkpt lat="47.64199" lon="-2.85">
        <ele>44.8</ele>
        <time>2021-08-05T09:22:25Z</time>
      </trkpt>
      <trkpt lat="47.642" lon="-2.84997">
        <ele>44.8</ele>
        <time>2021-08-05T09:22:26Z</time>
      </trkpt>
      <trkpt lat="47.64201" lon="-2.84993">
        <ele>45</ele>
        <time>2021-08-05T09:22:27Z</time>
      </trkpt>
      <trkpt lat="47.64202" lon="-2.84989">
        <ele>45</ele>
        <time>2021-08-05T09:22:28Z</time>
      </trkpt>
      <trkpt lat="47.64203" lon="-2.84985">
        <ele>45.2</ele>
        <time>2021-08-05T09:22:29Z</time>
      </trkpt>
      <trkpt lat="47.64204" lon="-2.84978">
        <ele>45.6</ele>
        <time>2021-08-05T09:22:31Z</time>
      </trkpt>
      <trkpt lat="47.64205" lon="-2.84975">
        <ele>45.6</ele>
        <time>2021-08-05T09:22:32Z</time>
      </trkpt>
      <trkpt lat="47.64206" lon="-2.84971">
        <ele>45.8</ele>
        <time>2021-08-05T09:22:33Z</time>
      </trkpt>
      <trkpt lat="47.64206" lon="-2.84968">
        <ele>45.8</ele>
        <time>2021-08-05T09:22:34Z</time>
      </trkpt>
      <trkpt lat="47.64207" lon="-2.84965">
        <ele>46</ele>
        <time>2021-08-05T09:22:35Z</time>
      </trkpt>
      <trkpt lat="47.64207" lon="-2.84962">
        <ele>46</ele>
        <time>2021-08-05T09:22:36Z</time>
      </trkpt>
      <trkpt lat="47.64208" lon="-2.84959">
        <ele>46.2</ele>
        <time>2021-08-05T09:22:37Z</time>
      </trkpt>
      <trkpt lat="47.64208" lon="-2.84955">
        <ele>46.2</ele>
        <time>2021-08-05T09:22:38Z</time>
      </trkpt>
      <trkpt lat="47.64209" lon="-2.84952">
        <ele>46.2</ele>
        <time>2021-08-05T09:22:39Z</time>
      </trkpt>
      <trkpt lat="47.6421" lon="-2.84949">
        <ele>46.4</ele>
        <time>2021-08-05T09:22:40Z</time>
      </trkpt>
      <trkpt lat="47.64211" lon="-2.84941">
        <ele>46.8</ele>
        <time>2021-08-05T09:22:42Z</time>
      </trkpt>
      <trkpt lat="47.64212" lon="-2.84938">
        <ele>46.8</ele>
        <time>2021-08-05T09:22:43Z</time>
      </trkpt>
      <trkpt lat="47.64212" lon="-2.84934">
        <ele>47</ele>
        <time>2021-08-05T09:22:44Z</time>
      </trkpt>
      <trkpt lat="47.64213" lon="-2.84931">
        <ele>47</ele>
        <time>2021-08-05T09:22:45Z</time>
      </trkpt>
      <trkpt lat="47.64214" lon="-2.84927">
        <ele>47</ele>
        <time>2021-08-05T09:22:46Z</time>
      </trkpt>
      <trkpt lat="47.64214" lon="-2.84923">
        <ele>47.2</ele>
        <time>2021-08-05T09:22:47Z</time>
      </trkpt>
      <trkpt lat="47.64215" lon="-2.84919">
        <ele>47.4</ele>
        <time>2021-08-05T09:22:48Z</time>
      </trkpt>
      <trkpt lat="47.64216" lon="-2.84916">
        <ele>47.4</ele>
        <time>2021-08-05T09:22:49Z</time>
      </trkpt>
      <trkpt lat="47.64216" lon="-2.84912">
        <ele>47.6</ele>
        <time>2021-08-05T09:22:50Z</time>
      </trkpt>
      <trkpt lat="47.64217" lon="-2.84909">
        <ele>47.6</ele>
        <time>2021-08-05T09:22:51Z</time>
      </trkpt>
      <trkpt lat="47.64218" lon="-2.84901">
        <ele>47.8</ele>
        <time>2021-08-05T09:22:53Z</time>
      </trkpt>
      <trkpt lat="47.64219" lon="-2.84897">
        <ele>47.8</ele>
        <time>2021-08-05T09:22:54Z</time>
      </trkpt>
      <trkpt lat="47.6422" lon="-2.84892">
        <ele>47.8</ele>
        <time>2021-08-05T09:22:55Z</time>
      </trkpt>
      <trkpt lat="47.64221" lon="-2.84888">
        <ele>47.8</ele>
        <time>2021-08-05T09:22:56Z</time>
      </trkpt>
      <trkpt lat="47.64222" lon="-2.84884">
        <ele>48</ele>
        <time>2021-08-05T09:22:57Z</time>
      </trkpt>
      <trkpt lat="47.64223" lon="-2.84879">
        <ele>48</ele>
        <time>2021-08-05T09:22:58Z</time>
      </trkpt>
      <trkpt lat="47.64223" lon="-2.84875">
        <ele>48</ele>
        <time>2021-08-05T09:22:59Z</time>
      </trkpt>
      <trkpt lat="47.64224" lon="-2.8487">
        <ele>48</ele>
        <time>2021-08-05T09:23:00Z</time>
      </trkpt>
      <trkpt lat="47.64225" lon="-2.84866">
        <ele>48</ele>
        <time>2021-08-05T09:23:01Z</time>
      </trkpt>
      <trkpt lat="47.64226" lon="-2.84861">
        <ele>48.2</ele>
        <time>2021-08-05T09:23:02Z</time>
      </trkpt>
      <trkpt lat="47.64227" lon="-2.84853">
        <ele>48.2</ele>
        <time>2021-08-05T09:23:04Z</time>
      </trkpt>
      <trkpt lat="47.64228" lon="-2.84848">
        <ele>48.2</ele>
        <time>2021-08-05T09:23:05Z</time>
      </trkpt>
      <trkpt lat="47.64229" lon="-2.84844">
        <ele>48.2</ele>
        <time>2021-08-05T09:23:06Z</time>
      </trkpt>
      <trkpt lat="47.6423" lon="-2.8484">
        <ele>48.2</ele>
        <time>2021-08-05T09:23:07Z</time>
      </trkpt>
      <trkpt lat="47.64231" lon="-2.84836">
        <ele>48.2</ele>
        <time>2021-08-05T09:23:08Z</time>
      </trkpt>
      <trkpt lat="47.64232" lon="-2.84831">
        <ele>48.4</ele>
        <time>2021-08-05T09:23:09Z</time>
      </trkpt>
      <trkpt lat="47.64233" lon="-2.84827">
        <ele>48.6</ele>
        <time>2021-08-05T09:23:10Z</time>
      </trkpt>
      <trkpt lat="47.64233" lon="-2.84822">
        <ele>48.6</ele>
        <time>2021-08-05T09:23:11Z</time>
      </trkpt>
      <trkpt lat="47.64234" lon="-2.84817">
        <ele>48.6</ele>
        <time>2021-08-05T09:23:12Z</time>
      </trkpt>
      <trkpt lat="47.64234" lon="-2.84813">
        <ele>48.4</ele>
        <time>2021-08-05T09:23:13Z</time>
      </trkpt>
      <trkpt lat="47.64235" lon="-2.84808">
        <ele>48.8</ele>
        <time>2021-08-05T09:23:14Z</time>
      </trkpt>
      <trkpt lat="47.64235" lon="-2.84804">
        <ele>48.8</ele>
        <time>2021-08-05T09:23:15Z</time>
      </trkpt>
      <trkpt lat="47.64235" lon="-2.848">
        <ele>48.8</ele>
        <time>2021-08-05T09:23:16Z</time>
      </trkpt>
      <trkpt lat="47.64236" lon="-2.84796">
        <ele>48.8</ele>
        <time>2021-08-05T09:23:17Z</time>
      </trkpt>
      <trkpt lat="47.64237" lon="-2.84792">
        <ele>48.8</ele>
        <time>2021-08-05T09:23:18Z</time>
      </trkpt>
      <trkpt lat="47.64237" lon="-2.84788">
        <ele>48.8</ele>
        <time>2021-08-05T09:23:19Z</time>
      </trkpt>
      <trkpt lat="47.64237" lon="-2.84783">
        <ele>48.8</ele>
        <time>2021-08-05T09:23:20Z</time>
      </trkpt>
      <trkpt lat="47.64238" lon="-2.84778">
        <ele>49</ele>
        <time>2021-08-05T09:23:21Z</time>
      </trkpt>
      <trkpt lat="47.64238" lon="-2.84773">
        <ele>49</ele>
        <time>2021-08-05T09:23:22Z</time>
      </trkpt>
      <trkpt lat="47.64239" lon="-2.84768">
        <ele>49</ele>
        <time>2021-08-05T09:23:23Z</time>
      </trkpt>
      <trkpt lat="47.64239" lon="-2.84764">
        <ele>49</ele>
        <time>2021-08-05T09:23:24Z</time>
      </trkpt>
      <trkpt lat="47.64239" lon="-2.84754">
        <ele>49.2</ele>
        <time>2021-08-05T09:23:26Z</time>
      </trkpt>
      <trkpt lat="47.6424" lon="-2.84749">
        <ele>49.2</ele>
        <time>2021-08-05T09:23:27Z</time>
      </trkpt>
      <trkpt lat="47.6424" lon="-2.84745">
        <ele>49.2</ele>
        <time>2021-08-05T09:23:28Z</time>
      </trkpt>
      <trkpt lat="47.6424" lon="-2.84741">
        <ele>49.4</ele>
        <time>2021-08-05T09:23:29Z</time>
      </trkpt>
      <trkpt lat="47.6424" lon="-2.84736">
        <ele>49.4</ele>
        <time>2021-08-05T09:23:30Z</time>
      </trkpt>
      <trkpt lat="47.64241" lon="-2.84731">
        <ele>49.4</ele>
        <time>2021-08-05T09:23:31Z</time>
      </trkpt>
      <trkpt lat="47.64241" lon="-2.84726">
        <ele>49.4</ele>
        <time>2021-08-05T09:23:32Z</time>
      </trkpt>
      <trkpt lat="47.64241" lon="-2.84721">
        <ele>49.4</ele>
        <time>2021-08-05T09:23:33Z</time>
      </trkpt>
      <trkpt lat="47.64241" lon="-2.84716">
        <ele>49.4</ele>
        <time>2021-08-05T09:23:34Z</time>
      </trkpt>
      <trkpt lat="47.64241" lon="-2.84711">
        <ele>49.4</ele>
        <time>2021-08-05T09:23:35Z</time>
      </trkpt>
      <trkpt lat="47.64241" lon="-2.84706">
        <ele>49.4</ele>
        <time>2021-08-05T09:23:36Z</time>
      </trkpt>
      <trkpt lat="47.64242" lon="-2.847">
        <ele>49.4</ele>
        <time>2021-08-05T09:23:37Z</time>
      </trkpt>
      <trkpt lat="47.64242" lon="-2.84693">
        <ele>49.4</ele>
        <time>2021-08-05T09:23:38Z</time>
      </trkpt>
      <trkpt lat="47.64242" lon="-2.84687">
        <ele>49.4</ele>
        <time>2021-08-05T09:23:39Z</time>
      </trkpt>
      <trkpt lat="47.64243" lon="-2.8468">
        <ele>49.4</ele>
        <time>2021-08-05T09:23:40Z</time>
      </trkpt>
      <trkpt lat="47.64243" lon="-2.84673">
        <ele>49.4</ele>
        <time>2021-08-05T09:23:41Z</time>
      </trkpt>
      <trkpt lat="47.64243" lon="-2.84666">
        <ele>49.4</ele>
        <time>2021-08-05T09:23:42Z</time>
      </trkpt>
      <trkpt lat="47.64243" lon="-2.8466">
        <ele>49.4</ele>
        <time>2021-08-05T09:23:43Z</time>
      </trkpt>
      <trkpt lat="47.64243" lon="-2.84654">
        <ele>49.4</ele>
        <time>2021-08-05T09:23:44Z</time>
      </trkpt>
      <trkpt lat="47.64243" lon="-2.84648">
        <ele>49.4</ele>
        <time>2021-08-05T09:23:45Z</time>
      </trkpt>
      <trkpt lat="47.64243" lon="-2.84642">
        <ele>49.4</ele>
        <time>2021-08-05T09:23:46Z</time>
      </trkpt>
      <trkpt lat="47.64243" lon="-2.84628">
        <ele>49.4</ele>
        <time>2021-08-05T09:23:48Z</time>
      </trkpt>
      <trkpt lat="47.64242" lon="-2.84622">
        <ele>49.4</ele>
        <time>2021-08-05T09:23:49Z</time>
      </trkpt>
      <trkpt lat="47.64242" lon="-2.84616">
        <ele>49.4</ele>
        <time>2021-08-05T09:23:50Z</time>
      </trkpt>
      <trkpt lat="47.64241" lon="-2.84609">
        <ele>49.2</ele>
        <time>2021-08-05T09:23:51Z</time>
      </trkpt>
      <trkpt lat="47.64241" lon="-2.84602">
        <ele>49.2</ele>
        <time>2021-08-05T09:23:52Z</time>
      </trkpt>
      <trkpt lat="47.64241" lon="-2.84595">
        <ele>49.2</ele>
        <time>2021-08-05T09:23:53Z</time>
      </trkpt>
      <trkpt lat="47.64242" lon="-2.84588">
        <ele>49.2</ele>
        <time>2021-08-05T09:23:54Z</time>
      </trkpt>
      <trkpt lat="47.64242" lon="-2.84581">
        <ele>49.2</ele>
        <time>2021-08-05T09:23:55Z</time>
      </trkpt>
      <trkpt lat="47.64242" lon="-2.84573">
        <ele>49.2</ele>
        <time>2021-08-05T09:23:56Z</time>
      </trkpt>
      <trkpt lat="47.64242" lon="-2.84566">
        <ele>49.2</ele>
        <time>2021-08-05T09:23:57Z</time>
      </trkpt>
      <trkpt lat="47.64241" lon="-2.84553">
        <ele>49.2</ele>
        <time>2021-08-05T09:23:59Z</time>
      </trkpt>
      <trkpt lat="47.64241" lon="-2.84547">
        <ele>49.2</ele>
        <time>2021-08-05T09:24:00Z</time>
      </trkpt>
      <trkpt lat="47.64241" lon="-2.84541">
        <ele>49.2</ele>
        <time>2021-08-05T09:24:01Z</time>
      </trkpt>
      <trkpt lat="47.64242" lon="-2.84534">
        <ele>49.2</ele>
        <time>2021-08-05T09:24:02Z</time>
      </trkpt>
      <trkpt lat="47.64241" lon="-2.84528">
        <ele>49.2</ele>
        <time>2021-08-05T09:24:03Z</time>
      </trkpt>
      <trkpt lat="47.64241" lon="-2.84521">
        <ele>49.2</ele>
        <time>2021-08-05T09:24:04Z</time>
      </trkpt>
      <trkpt lat="47.64241" lon="-2.84514">
        <ele>49.4</ele>
        <time>2021-08-05T09:24:05Z</time>
      </trkpt>
      <trkpt lat="47.64241" lon="-2.84506">
        <ele>49.4</ele>
        <time>2021-08-05T09:24:06Z</time>
      </trkpt>
      <trkpt lat="47.64241" lon="-2.84499">
        <ele>49.4</ele>
        <time>2021-08-05T09:24:07Z</time>
      </trkpt>
      <trkpt lat="47.64241" lon="-2.84492">
        <ele>49.4</ele>
        <time>2021-08-05T09:24:08Z</time>
      </trkpt>
      <trkpt lat="47.64241" lon="-2.84479">
        <ele>49.4</ele>
        <time>2021-08-05T09:24:10Z</time>
      </trkpt>
      <trkpt lat="47.64241" lon="-2.84472">
        <ele>49.6</ele>
        <time>2021-08-05T09:24:11Z</time>
      </trkpt>
      <trkpt lat="47.6424" lon="-2.84466">
        <ele>49.6</ele>
        <time>2021-08-05T09:24:12Z</time>
      </trkpt>
      <trkpt lat="47.6424" lon="-2.84459">
        <ele>49.6</ele>
        <time>2021-08-05T09:24:13Z</time>
      </trkpt>
      <trkpt lat="47.6424" lon="-2.84453">
        <ele>49.8</ele>
        <time>2021-08-05T09:24:14Z</time>
      </trkpt>
      <trkpt lat="47.6424" lon="-2.84447">
        <ele>49.8</ele>
        <time>2021-08-05T09:24:15Z</time>
      </trkpt>
      <trkpt lat="47.6424" lon="-2.84441">
        <ele>49.8</ele>
        <time>2021-08-05T09:24:16Z</time>
      </trkpt>
      <trkpt lat="47.6424" lon="-2.84434">
        <ele>49.8</ele>
        <time>2021-08-05T09:24:17Z</time>
      </trkpt>
      <trkpt lat="47.6424" lon="-2.84428">
        <ele>49.8</ele>
        <time>2021-08-05T09:24:18Z</time>
      </trkpt>
      <trkpt lat="47.6424" lon="-2.84422">
        <ele>50</ele>
        <time>2021-08-05T09:24:19Z</time>
      </trkpt>
      <trkpt lat="47.6424" lon="-2.84416">
        <ele>50</ele>
        <time>2021-08-05T09:24:20Z</time>
      </trkpt>
      <trkpt lat="47.6424" lon="-2.8441">
        <ele>50</ele>
        <time>2021-08-05T09:24:21Z</time>
      </trkpt>
      <trkpt lat="47.64241" lon="-2.84404">
        <ele>50</ele>
        <time>2021-08-05T09:24:22Z</time>
      </trkpt>
      <trkpt lat="47.64241" lon="-2.84398">
        <ele>50</ele>
        <time>2021-08-05T09:24:23Z</time>
      </trkpt>
      <trkpt lat="47.64241" lon="-2.84391">
        <ele>50.2</ele>
        <time>2021-08-05T09:24:24Z</time>
      </trkpt>
      <trkpt lat="47.64241" lon="-2.84385">
        <ele>50.2</ele>
        <time>2021-08-05T09:24:25Z</time>
      </trkpt>
      <trkpt lat="47.64242" lon="-2.84379">
        <ele>50.2</ele>
        <time>2021-08-05T09:24:26Z</time>
      </trkpt>
      <trkpt lat="47.64242" lon="-2.84372">
        <ele>50.2</ele>
        <time>2021-08-05T09:24:27Z</time>
      </trkpt>
      <trkpt lat="47.64242" lon="-2.84365">
        <ele>50.2</ele>
        <time>2021-08-05T09:24:28Z</time>
      </trkpt>
      <trkpt lat="47.64243" lon="-2.84358">
        <ele>50.4</ele>
        <time>2021-08-05T09:24:29Z</time>
      </trkpt>
      <trkpt lat="47.64243" lon="-2.84352">
        <ele>50.4</ele>
        <time>2021-08-05T09:24:30Z</time>
      </trkpt>
      <trkpt lat="47.64244" lon="-2.84345">
        <ele>50.4</ele>
        <time>2021-08-05T09:24:31Z</time>
      </trkpt>
      <trkpt lat="47.64244" lon="-2.84338">
        <ele>50.6</ele>
        <time>2021-08-05T09:24:32Z</time>
      </trkpt>
      <trkpt lat="47.64245" lon="-2.84331">
        <ele>50.6</ele>
        <time>2021-08-05T09:24:33Z</time>
      </trkpt>
      <trkpt lat="47.64245" lon="-2.84324">
        <ele>50.6</ele>
        <time>2021-08-05T09:24:34Z</time>
      </trkpt>
      <trkpt lat="47.64245" lon="-2.84317">
        <ele>50.6</ele>
        <time>2021-08-05T09:24:35Z</time>
      </trkpt>
      <trkpt lat="47.64246" lon="-2.8431">
        <ele>50.6</ele>
        <time>2021-08-05T09:24:36Z</time>
      </trkpt>
      <trkpt lat="47.64246" lon="-2.84303">
        <ele>50.6</ele>
        <time>2021-08-05T09:24:37Z</time>
      </trkpt>
      <trkpt lat="47.64246" lon="-2.84295">
        <ele>50.8</ele>
        <time>2021-08-05T09:24:38Z</time>
      </trkpt>
      <trkpt lat="47.64246" lon="-2.84288">
        <ele>50.8</ele>
        <time>2021-08-05T09:24:39Z</time>
      </trkpt>
      <trkpt lat="47.64246" lon="-2.84281">
        <ele>50.8</ele>
        <time>2021-08-05T09:24:40Z</time>
      </trkpt>
      <trkpt lat="47.64246" lon="-2.84274">
        <ele>50.8</ele>
        <time>2021-08-05T09:24:41Z</time>
      </trkpt>
      <trkpt lat="47.64245" lon="-2.8426">
        <ele>50.8</ele>
        <time>2021-08-05T09:24:43Z</time>
      </trkpt>
      <trkpt lat="47.64245" lon="-2.84253">
        <ele>50.8</ele>
        <time>2021-08-05T09:24:44Z</time>
      </trkpt>
      <trkpt lat="47.64244" lon="-2.84247">
        <ele>50.8</ele>
        <time>2021-08-05T09:24:45Z</time>
      </trkpt>
      <trkpt lat="47.64243" lon="-2.8424">
        <ele>50.8</ele>
        <time>2021-08-05T09:24:46Z</time>
      </trkpt>
      <trkpt lat="47.64242" lon="-2.84234">
        <ele>50.8</ele>
        <time>2021-08-05T09:24:47Z</time>
      </trkpt>
      <trkpt lat="47.64241" lon="-2.84228">
        <ele>50.8</ele>
        <time>2021-08-05T09:24:48Z</time>
      </trkpt>
      <trkpt lat="47.6424" lon="-2.84221">
        <ele>50.8</ele>
        <time>2021-08-05T09:24:49Z</time>
      </trkpt>
      <trkpt lat="47.64239" lon="-2.84215">
        <ele>50.8</ele>
        <time>2021-08-05T09:24:50Z</time>
      </trkpt>
      <trkpt lat="47.64238" lon="-2.84208">
        <ele>50.8</ele>
        <time>2021-08-05T09:24:51Z</time>
      </trkpt>
      <trkpt lat="47.64237" lon="-2.84202">
        <ele>50.8</ele>
        <time>2021-08-05T09:24:52Z</time>
      </trkpt>
      <trkpt lat="47.64235" lon="-2.84188">
        <ele>50.8</ele>
        <time>2021-08-05T09:24:54Z</time>
      </trkpt>
      <trkpt lat="47.64234" lon="-2.84182">
        <ele>50.8</ele>
        <time>2021-08-05T09:24:55Z</time>
      </trkpt>
      <trkpt lat="47.64233" lon="-2.84176">
        <ele>50.8</ele>
        <time>2021-08-05T09:24:56Z</time>
      </trkpt>
      <trkpt lat="47.64232" lon="-2.8417">
        <ele>50.8</ele>
        <time>2021-08-05T09:24:57Z</time>
      </trkpt>
      <trkpt lat="47.64231" lon="-2.84163">
        <ele>51</ele>
        <time>2021-08-05T09:24:58Z</time>
      </trkpt>
      <trkpt lat="47.6423" lon="-2.84156">
        <ele>51</ele>
        <time>2021-08-05T09:24:59Z</time>
      </trkpt>
      <trkpt lat="47.64229" lon="-2.8415">
        <ele>51</ele>
        <time>2021-08-05T09:25:00Z</time>
      </trkpt>
      <trkpt lat="47.64228" lon="-2.84143">
        <ele>51.2</ele>
        <time>2021-08-05T09:25:01Z</time>
      </trkpt>
      <trkpt lat="47.64226" lon="-2.84136">
        <ele>51.2</ele>
        <time>2021-08-05T09:25:02Z</time>
      </trkpt>
      <trkpt lat="47.64225" lon="-2.84129">
        <ele>51.2</ele>
        <time>2021-08-05T09:25:03Z</time>
      </trkpt>
      <trkpt lat="47.64223" lon="-2.84115">
        <ele>51.4</ele>
        <time>2021-08-05T09:25:05Z</time>
      </trkpt>
      <trkpt lat="47.64222" lon="-2.84108">
        <ele>51.4</ele>
        <time>2021-08-05T09:25:06Z</time>
      </trkpt>
      <trkpt lat="47.64221" lon="-2.84101">
        <ele>51.4</ele>
        <time>2021-08-05T09:25:07Z</time>
      </trkpt>
      <trkpt lat="47.6422" lon="-2.84094">
        <ele>51.4</ele>
        <time>2021-08-05T09:25:08Z</time>
      </trkpt>
      <trkpt lat="47.64219" lon="-2.84088">
        <ele>51.4</ele>
        <time>2021-08-05T09:25:09Z</time>
      </trkpt>
      <trkpt lat="47.64217" lon="-2.84081">
        <ele>51.4</ele>
        <time>2021-08-05T09:25:10Z</time>
      </trkpt>
      <trkpt lat="47.64217" lon="-2.84075">
        <ele>51.2</ele>
        <time>2021-08-05T09:25:11Z</time>
      </trkpt>
      <trkpt lat="47.64215" lon="-2.84069">
        <ele>51.2</ele>
        <time>2021-08-05T09:25:12Z</time>
      </trkpt>
      <trkpt lat="47.64214" lon="-2.84063">
        <ele>51.2</ele>
        <time>2021-08-05T09:25:13Z</time>
      </trkpt>
      <trkpt lat="47.64213" lon="-2.84057">
        <ele>51.2</ele>
        <time>2021-08-05T09:25:14Z</time>
      </trkpt>
      <trkpt lat="47.6421" lon="-2.84045">
        <ele>51.2</ele>
        <time>2021-08-05T09:25:16Z</time>
      </trkpt>
      <trkpt lat="47.64209" lon="-2.84039">
        <ele>51.2</ele>
        <time>2021-08-05T09:25:17Z</time>
      </trkpt>
      <trkpt lat="47.64208" lon="-2.84033">
        <ele>51.2</ele>
        <time>2021-08-05T09:25:18Z</time>
      </trkpt>
      <trkpt lat="47.64207" lon="-2.84028">
        <ele>51.2</ele>
        <time>2021-08-05T09:25:19Z</time>
      </trkpt>
      <trkpt lat="47.64206" lon="-2.84022">
        <ele>51.2</ele>
        <time>2021-08-05T09:25:20Z</time>
      </trkpt>
      <trkpt lat="47.64205" lon="-2.84015">
        <ele>51.2</ele>
        <time>2021-08-05T09:25:21Z</time>
      </trkpt>
      <trkpt lat="47.64205" lon="-2.84008">
        <ele>51.2</ele>
        <time>2021-08-05T09:25:22Z</time>
      </trkpt>
      <trkpt lat="47.64204" lon="-2.84">
        <ele>51.2</ele>
        <time>2021-08-05T09:25:23Z</time>
      </trkpt>
      <trkpt lat="47.64204" lon="-2.83993">
        <ele>51.2</ele>
        <time>2021-08-05T09:25:24Z</time>
      </trkpt>
      <trkpt lat="47.64203" lon="-2.83985">
        <ele>51.2</ele>
        <time>2021-08-05T09:25:25Z</time>
      </trkpt>
      <trkpt lat="47.64202" lon="-2.83972">
        <ele>51.2</ele>
        <time>2021-08-05T09:25:27Z</time>
      </trkpt>
      <trkpt lat="47.64201" lon="-2.83965">
        <ele>51.2</ele>
        <time>2021-08-05T09:25:28Z</time>
      </trkpt>
      <trkpt lat="47.64201" lon="-2.83958">
        <ele>51.4</ele>
        <time>2021-08-05T09:25:29Z</time>
      </trkpt>
      <trkpt lat="47.642" lon="-2.83951">
        <ele>51.4</ele>
        <time>2021-08-05T09:25:30Z</time>
      </trkpt>
      <trkpt lat="47.64199" lon="-2.83944">
        <ele>51.4</ele>
        <time>2021-08-05T09:25:31Z</time>
      </trkpt>
      <trkpt lat="47.64199" lon="-2.83937">
        <ele>51.4</ele>
        <time>2021-08-05T09:25:32Z</time>
      </trkpt>
      <trkpt lat="47.64199" lon="-2.83931">
        <ele>51.4</ele>
        <time>2021-08-05T09:25:33Z</time>
      </trkpt>
      <trkpt lat="47.64199" lon="-2.83924">
        <ele>51.4</ele>
        <time>2021-08-05T09:25:34Z</time>
      </trkpt>
      <trkpt lat="47.64199" lon="-2.83918">
        <ele>51.4</ele>
        <time>2021-08-05T09:25:35Z</time>
      </trkpt>
      <trkpt lat="47.64198" lon="-2.83911">
        <ele>51.4</ele>
        <time>2021-08-05T09:25:36Z</time>
      </trkpt>
      <trkpt lat="47.64198" lon="-2.83898">
        <ele>51.4</ele>
        <time>2021-08-05T09:25:38Z</time>
      </trkpt>
      <trkpt lat="47.64197" lon="-2.83892">
        <ele>51.4</ele>
        <time>2021-08-05T09:25:39Z</time>
      </trkpt>
      <trkpt lat="47.64197" lon="-2.83887">
        <ele>51.4</ele>
        <time>2021-08-05T09:25:40Z</time>
      </trkpt>
      <trkpt lat="47.64197" lon="-2.83881">
        <ele>51.4</ele>
        <time>2021-08-05T09:25:41Z</time>
      </trkpt>
      <trkpt lat="47.64196" lon="-2.83876">
        <ele>51.4</ele>
        <time>2021-08-05T09:25:42Z</time>
      </trkpt>
      <trkpt lat="47.64195" lon="-2.8387">
        <ele>51.4</ele>
        <time>2021-08-05T09:25:43Z</time>
      </trkpt>
      <trkpt lat="47.64195" lon="-2.83865">
        <ele>51.4</ele>
        <time>2021-08-05T09:25:44Z</time>
      </trkpt>
      <trkpt lat="47.64194" lon="-2.83859">
        <ele>51.4</ele>
        <time>2021-08-05T09:25:45Z</time>
      </trkpt>
      <trkpt lat="47.64194" lon="-2.83853">
        <ele>51.4</ele>
        <time>2021-08-05T09:25:46Z</time>
      </trkpt>
      <trkpt lat="47.64193" lon="-2.83847">
        <ele>51.4</ele>
        <time>2021-08-05T09:25:47Z</time>
      </trkpt>
      <trkpt lat="47.64192" lon="-2.83835">
        <ele>51.4</ele>
        <time>2021-08-05T09:25:49Z</time>
      </trkpt>
      <trkpt lat="47.64191" lon="-2.83829">
        <ele>51.6</ele>
        <time>2021-08-05T09:25:50Z</time>
      </trkpt>
      <trkpt lat="47.6419" lon="-2.83824">
        <ele>51.8</ele>
        <time>2021-08-05T09:25:51Z</time>
      </trkpt>
      <trkpt lat="47.6419" lon="-2.83818">
        <ele>51.8</ele>
        <time>2021-08-05T09:25:52Z</time>
      </trkpt>
      <trkpt lat="47.64189" lon="-2.83812">
        <ele>52</ele>
        <time>2021-08-05T09:25:53Z</time>
      </trkpt>
      <trkpt lat="47.64188" lon="-2.83806">
        <ele>52.4</ele>
        <time>2021-08-05T09:25:54Z</time>
      </trkpt>
      <trkpt lat="47.64187" lon="-2.838">
        <ele>52.6</ele>
        <time>2021-08-05T09:25:55Z</time>
      </trkpt>
      <trkpt lat="47.64186" lon="-2.83795">
        <ele>52.8</ele>
        <time>2021-08-05T09:25:56Z</time>
      </trkpt>
      <trkpt lat="47.64185" lon="-2.83789">
        <ele>53</ele>
        <time>2021-08-05T09:25:57Z</time>
      </trkpt>
      <trkpt lat="47.64185" lon="-2.83784">
        <ele>53.2</ele>
        <time>2021-08-05T09:25:58Z</time>
      </trkpt>
      <trkpt lat="47.64183" lon="-2.83773">
        <ele>53.2</ele>
        <time>2021-08-05T09:26:00Z</time>
      </trkpt>
      <trkpt lat="47.64182" lon="-2.83768">
        <ele>53.4</ele>
        <time>2021-08-05T09:26:01Z</time>
      </trkpt>
      <trkpt lat="47.64181" lon="-2.83762">
        <ele>53.4</ele>
        <time>2021-08-05T09:26:02Z</time>
      </trkpt>
      <trkpt lat="47.6418" lon="-2.83757">
        <ele>53.4</ele>
        <time>2021-08-05T09:26:03Z</time>
      </trkpt>
      <trkpt lat="47.64179" lon="-2.83752">
        <ele>53.4</ele>
        <time>2021-08-05T09:26:04Z</time>
      </trkpt>
      <trkpt lat="47.64178" lon="-2.83746">
        <ele>53.4</ele>
        <time>2021-08-05T09:26:05Z</time>
      </trkpt>
      <trkpt lat="47.64177" lon="-2.83741">
        <ele>53.4</ele>
        <time>2021-08-05T09:26:06Z</time>
      </trkpt>
      <trkpt lat="47.64176" lon="-2.83736">
        <ele>53.4</ele>
        <time>2021-08-05T09:26:07Z</time>
      </trkpt>
      <trkpt lat="47.64175" lon="-2.8373">
        <ele>53.4</ele>
        <time>2021-08-05T09:26:08Z</time>
      </trkpt>
      <trkpt lat="47.64175" lon="-2.83725">
        <ele>53.4</ele>
        <time>2021-08-05T09:26:09Z</time>
      </trkpt>
      <trkpt lat="47.64173" lon="-2.83713">
        <ele>53.4</ele>
        <time>2021-08-05T09:26:11Z</time>
      </trkpt>
      <trkpt lat="47.64172" lon="-2.83708">
        <ele>53.4</ele>
        <time>2021-08-05T09:26:12Z</time>
      </trkpt>
      <trkpt lat="47.64171" lon="-2.83702">
        <ele>53.4</ele>
        <time>2021-08-05T09:26:13Z</time>
      </trkpt>
      <trkpt lat="47.6417" lon="-2.83697">
        <ele>53.6</ele>
        <time>2021-08-05T09:26:14Z</time>
      </trkpt>
      <trkpt lat="47.64169" lon="-2.83691">
        <ele>53.6</ele>
        <time>2021-08-05T09:26:15Z</time>
      </trkpt>
      <trkpt lat="47.64168" lon="-2.83685">
        <ele>53.6</ele>
        <time>2021-08-05T09:26:16Z</time>
      </trkpt>
      <trkpt lat="47.64167" lon="-2.83679">
        <ele>53.6</ele>
        <time>2021-08-05T09:26:17Z</time>
      </trkpt>
      <trkpt lat="47.64166" lon="-2.83673">
        <ele>53.6</ele>
        <time>2021-08-05T09:26:18Z</time>
      </trkpt>
      <trkpt lat="47.64165" lon="-2.83667">
        <ele>53.6</ele>
        <time>2021-08-05T09:26:19Z</time>
      </trkpt>
      <trkpt lat="47.64164" lon="-2.83661">
        <ele>53.6</ele>
        <time>2021-08-05T09:26:20Z</time>
      </trkpt>
      <trkpt lat="47.64163" lon="-2.83656">
        <ele>53.6</ele>
        <time>2021-08-05T09:26:21Z</time>
      </trkpt>
      <trkpt lat="47.64161" lon="-2.8365">
        <ele>53.6</ele>
        <time>2021-08-05T09:26:22Z</time>
      </trkpt>
      <trkpt lat="47.6416" lon="-2.83646">
        <ele>53.6</ele>
        <time>2021-08-05T09:26:23Z</time>
      </trkpt>
      <trkpt lat="47.64158" lon="-2.83641">
        <ele>53.6</ele>
        <time>2021-08-05T09:26:24Z</time>
      </trkpt>
      <trkpt lat="47.64157" lon="-2.83636">
        <ele>53.6</ele>
        <time>2021-08-05T09:26:25Z</time>
      </trkpt>
      <trkpt lat="47.64156" lon="-2.83631">
        <ele>53.6</ele>
        <time>2021-08-05T09:26:26Z</time>
      </trkpt>
      <trkpt lat="47.64155" lon="-2.83626">
        <ele>53.8</ele>
        <time>2021-08-05T09:26:27Z</time>
      </trkpt>
      <trkpt lat="47.64154" lon="-2.83622">
        <ele>53.8</ele>
        <time>2021-08-05T09:26:28Z</time>
      </trkpt>
      <trkpt lat="47.64153" lon="-2.83617">
        <ele>53.8</ele>
        <time>2021-08-05T09:26:29Z</time>
      </trkpt>
      <trkpt lat="47.64152" lon="-2.83612">
        <ele>53.8</ele>
        <time>2021-08-05T09:26:30Z</time>
      </trkpt>
      <trkpt lat="47.6415" lon="-2.83607">
        <ele>54</ele>
        <time>2021-08-05T09:26:31Z</time>
      </trkpt>
      <trkpt lat="47.64147" lon="-2.83597">
        <ele>54</ele>
        <time>2021-08-05T09:26:33Z</time>
      </trkpt>
      <trkpt lat="47.64146" lon="-2.83591">
        <ele>54</ele>
        <time>2021-08-05T09:26:34Z</time>
      </trkpt>
      <trkpt lat="47.64144" lon="-2.83586">
        <ele>54</ele>
        <time>2021-08-05T09:26:35Z</time>
      </trkpt>
      <trkpt lat="47.64142" lon="-2.8358">
        <ele>54</ele>
        <time>2021-08-05T09:26:36Z</time>
      </trkpt>
      <trkpt lat="47.6414" lon="-2.83574">
        <ele>54</ele>
        <time>2021-08-05T09:26:37Z</time>
      </trkpt>
      <trkpt lat="47.64138" lon="-2.83567">
        <ele>54.2</ele>
        <time>2021-08-05T09:26:38Z</time>
      </trkpt>
      <trkpt lat="47.64136" lon="-2.83561">
        <ele>54.2</ele>
        <time>2021-08-05T09:26:39Z</time>
      </trkpt>
      <trkpt lat="47.64135" lon="-2.83555">
        <ele>54.2</ele>
        <time>2021-08-05T09:26:40Z</time>
      </trkpt>
      <trkpt lat="47.64133" lon="-2.83549">
        <ele>54.2</ele>
        <time>2021-08-05T09:26:41Z</time>
      </trkpt>
      <trkpt lat="47.64131" lon="-2.83543">
        <ele>54.2</ele>
        <time>2021-08-05T09:26:42Z</time>
      </trkpt>
      <trkpt lat="47.64129" lon="-2.83538">
        <ele>54.4</ele>
        <time>2021-08-05T09:26:43Z</time>
      </trkpt>
      <trkpt lat="47.64127" lon="-2.83532">
        <ele>54.4</ele>
        <time>2021-08-05T09:26:44Z</time>
      </trkpt>
      <trkpt lat="47.64126" lon="-2.83526">
        <ele>54.4</ele>
        <time>2021-08-05T09:26:45Z</time>
      </trkpt>
      <trkpt lat="47.64124" lon="-2.83521">
        <ele>54.4</ele>
        <time>2021-08-05T09:26:46Z</time>
      </trkpt>
      <trkpt lat="47.64122" lon="-2.83515">
        <ele>54.6</ele>
        <time>2021-08-05T09:26:47Z</time>
      </trkpt>
      <trkpt lat="47.64121" lon="-2.83509">
        <ele>54.6</ele>
        <time>2021-08-05T09:26:48Z</time>
      </trkpt>
      <trkpt lat="47.64119" lon="-2.83504">
        <ele>54.6</ele>
        <time>2021-08-05T09:26:49Z</time>
      </trkpt>
      <trkpt lat="47.64117" lon="-2.83499">
        <ele>54.6</ele>
        <time>2021-08-05T09:26:50Z</time>
      </trkpt>
      <trkpt lat="47.64115" lon="-2.83494">
        <ele>54.6</ele>
        <time>2021-08-05T09:26:51Z</time>
      </trkpt>
      <trkpt lat="47.64113" lon="-2.83489">
        <ele>54.8</ele>
        <time>2021-08-05T09:26:52Z</time>
      </trkpt>
      <trkpt lat="47.64112" lon="-2.83484">
        <ele>54.8</ele>
        <time>2021-08-05T09:26:53Z</time>
      </trkpt>
      <trkpt lat="47.6411" lon="-2.83479">
        <ele>55</ele>
        <time>2021-08-05T09:26:54Z</time>
      </trkpt>
      <trkpt lat="47.64108" lon="-2.83475">
        <ele>55</ele>
        <time>2021-08-05T09:26:55Z</time>
      </trkpt>
      <trkpt lat="47.64106" lon="-2.8347">
        <ele>55</ele>
        <time>2021-08-05T09:26:56Z</time>
      </trkpt>
      <trkpt lat="47.64104" lon="-2.83465">
        <ele>55</ele>
        <time>2021-08-05T09:26:57Z</time>
      </trkpt>
      <trkpt lat="47.64103" lon="-2.8346">
        <ele>55</ele>
        <time>2021-08-05T09:26:58Z</time>
      </trkpt>
      <trkpt lat="47.64101" lon="-2.83455">
        <ele>55</ele>
        <time>2021-08-05T09:26:59Z</time>
      </trkpt>
      <trkpt lat="47.64099" lon="-2.8345">
        <ele>55</ele>
        <time>2021-08-05T09:27:00Z</time>
      </trkpt>
      <trkpt lat="47.64097" lon="-2.83446">
        <ele>55.2</ele>
        <time>2021-08-05T09:27:01Z</time>
      </trkpt>
      <trkpt lat="47.64096" lon="-2.83442">
        <ele>55.2</ele>
        <time>2021-08-05T09:27:02Z</time>
      </trkpt>
      <trkpt lat="47.64094" lon="-2.83437">
        <ele>55.2</ele>
        <time>2021-08-05T09:27:03Z</time>
      </trkpt>
      <trkpt lat="47.64091" lon="-2.83432">
        <ele>55.4</ele>
        <time>2021-08-05T09:27:04Z</time>
      </trkpt>
      <trkpt lat="47.64087" lon="-2.83421">
        <ele>55.4</ele>
        <time>2021-08-05T09:27:06Z</time>
      </trkpt>
      <trkpt lat="47.64085" lon="-2.83416">
        <ele>55.6</ele>
        <time>2021-08-05T09:27:07Z</time>
      </trkpt>
      <trkpt lat="47.64082" lon="-2.8341">
        <ele>55.6</ele>
        <time>2021-08-05T09:27:08Z</time>
      </trkpt>
      <trkpt lat="47.6408" lon="-2.83405">
        <ele>55.6</ele>
        <time>2021-08-05T09:27:09Z</time>
      </trkpt>
      <trkpt lat="47.64078" lon="-2.83399">
        <ele>55.6</ele>
        <time>2021-08-05T09:27:10Z</time>
      </trkpt>
      <trkpt lat="47.64076" lon="-2.83394">
        <ele>55.6</ele>
        <time>2021-08-05T09:27:11Z</time>
      </trkpt>
      <trkpt lat="47.64073" lon="-2.83389">
        <ele>55.6</ele>
        <time>2021-08-05T09:27:12Z</time>
      </trkpt>
      <trkpt lat="47.64071" lon="-2.83383">
        <ele>55.6</ele>
        <time>2021-08-05T09:27:13Z</time>
      </trkpt>
      <trkpt lat="47.64069" lon="-2.83377">
        <ele>55.6</ele>
        <time>2021-08-05T09:27:14Z</time>
      </trkpt>
      <trkpt lat="47.64067" lon="-2.83372">
        <ele>55.6</ele>
        <time>2021-08-05T09:27:15Z</time>
      </trkpt>
      <trkpt lat="47.64062" lon="-2.8336">
        <ele>55.4</ele>
        <time>2021-08-05T09:27:17Z</time>
      </trkpt>
      <trkpt lat="47.64059" lon="-2.83353">
        <ele>55.2</ele>
        <time>2021-08-05T09:27:18Z</time>
      </trkpt>
      <trkpt lat="47.64057" lon="-2.83347">
        <ele>55.2</ele>
        <time>2021-08-05T09:27:19Z</time>
      </trkpt>
      <trkpt lat="47.64054" lon="-2.8334">
        <ele>55</ele>
        <time>2021-08-05T09:27:20Z</time>
      </trkpt>
      <trkpt lat="47.64051" lon="-2.83333">
        <ele>55</ele>
        <time>2021-08-05T09:27:21Z</time>
      </trkpt>
      <trkpt lat="47.64049" lon="-2.83326">
        <ele>54.6</ele>
        <time>2021-08-05T09:27:22Z</time>
      </trkpt>
      <trkpt lat="47.64046" lon="-2.83319">
        <ele>54.4</ele>
        <time>2021-08-05T09:27:23Z</time>
      </trkpt>
      <trkpt lat="47.64044" lon="-2.83312">
        <ele>54.2</ele>
        <time>2021-08-05T09:27:24Z</time>
      </trkpt>
      <trkpt lat="47.64042" lon="-2.83304">
        <ele>54.2</ele>
        <time>2021-08-05T09:27:25Z</time>
      </trkpt>
      <trkpt lat="47.6404" lon="-2.83297">
        <ele>54.2</ele>
        <time>2021-08-05T09:27:26Z</time>
      </trkpt>
      <trkpt lat="47.64036" lon="-2.83281">
        <ele>54.2</ele>
        <time>2021-08-05T09:27:28Z</time>
      </trkpt>
      <trkpt lat="47.64035" lon="-2.83273">
        <ele>54.2</ele>
        <time>2021-08-05T09:27:29Z</time>
      </trkpt>
      <trkpt lat="47.64034" lon="-2.83266">
        <ele>54.2</ele>
        <time>2021-08-05T09:27:30Z</time>
      </trkpt>
      <trkpt lat="47.64032" lon="-2.83258">
        <ele>54.2</ele>
        <time>2021-08-05T09:27:31Z</time>
      </trkpt>
      <trkpt lat="47.64031" lon="-2.83251">
        <ele>54.2</ele>
        <time>2021-08-05T09:27:32Z</time>
      </trkpt>
      <trkpt lat="47.6403" lon="-2.83243">
        <ele>54.2</ele>
        <time>2021-08-05T09:27:33Z</time>
      </trkpt>
      <trkpt lat="47.6403" lon="-2.83236">
        <ele>54.2</ele>
        <time>2021-08-05T09:27:34Z</time>
      </trkpt>
      <trkpt lat="47.64029" lon="-2.8323">
        <ele>54.2</ele>
        <time>2021-08-05T09:27:35Z</time>
      </trkpt>
      <trkpt lat="47.64028" lon="-2.83223">
        <ele>54.2</ele>
        <time>2021-08-05T09:27:36Z</time>
      </trkpt>
      <trkpt lat="47.64027" lon="-2.83217">
        <ele>54.2</ele>
        <time>2021-08-05T09:27:37Z</time>
      </trkpt>
      <trkpt lat="47.64026" lon="-2.83205">
        <ele>54.4</ele>
        <time>2021-08-05T09:27:39Z</time>
      </trkpt>
      <trkpt lat="47.64025" lon="-2.83199">
        <ele>54.4</ele>
        <time>2021-08-05T09:27:40Z</time>
      </trkpt>
      <trkpt lat="47.64025" lon="-2.83194">
        <ele>54.4</ele>
        <time>2021-08-05T09:27:41Z</time>
      </trkpt>
      <trkpt lat="47.64024" lon="-2.83189">
        <ele>54.4</ele>
        <time>2021-08-05T09:27:42Z</time>
      </trkpt>
      <trkpt lat="47.64024" lon="-2.83184">
        <ele>54.4</ele>
        <time>2021-08-05T09:27:43Z</time>
      </trkpt>
      <trkpt lat="47.64024" lon="-2.83179">
        <ele>54.4</ele>
        <time>2021-08-05T09:27:44Z</time>
      </trkpt>
      <trkpt lat="47.64024" lon="-2.83176">
        <ele>54.4</ele>
        <time>2021-08-05T09:27:45Z</time>
      </trkpt>
      <trkpt lat="47.64025" lon="-2.83172">
        <ele>54.4</ele>
        <time>2021-08-05T09:27:46Z</time>
      </trkpt>
      <trkpt lat="47.64025" lon="-2.83169">
        <ele>54.4</ele>
        <time>2021-08-05T09:27:47Z</time>
      </trkpt>
      <trkpt lat="47.64025" lon="-2.83167">
        <ele>54.6</ele>
        <time>2021-08-05T09:27:48Z</time>
      </trkpt>
      <trkpt lat="47.64025" lon="-2.83165">
        <ele>54.6</ele>
        <time>2021-08-05T09:27:49Z</time>
      </trkpt>
      <trkpt lat="47.64026" lon="-2.83164">
        <ele>54.6</ele>
        <time>2021-08-05T09:27:50Z</time>
      </trkpt>
      <trkpt lat="47.64026" lon="-2.83164">
        <ele>54.6</ele>
        <time>2021-08-05T09:27:51Z</time>
      </trkpt>
      <trkpt lat="47.64026" lon="-2.83164">
        <ele>54.8</ele>
        <time>2021-08-05T09:28:05Z</time>
      </trkpt>
      <trkpt lat="47.64026" lon="-2.83165">
        <ele>54.8</ele>
        <time>2021-08-05T09:28:06Z</time>
      </trkpt>
      <trkpt lat="47.64026" lon="-2.83165">
        <ele>54.8</ele>
        <time>2021-08-05T09:28:07Z</time>
      </trkpt>
      <trkpt lat="47.64027" lon="-2.83165">
        <ele>54.8</ele>
        <time>2021-08-05T09:28:09Z</time>
      </trkpt>
      <trkpt lat="47.64028" lon="-2.83165">
        <ele>54.8</ele>
        <time>2021-08-05T09:28:10Z</time>
      </trkpt>
      <trkpt lat="47.64028" lon="-2.83164">
        <ele>54.8</ele>
        <time>2021-08-05T09:28:11Z</time>
      </trkpt>
      <trkpt lat="47.64029" lon="-2.83153">
        <ele>54.8</ele>
        <time>2021-08-05T09:29:25Z</time>
      </trkpt>
      <trkpt lat="47.64029" lon="-2.8315">
        <ele>54.8</ele>
        <time>2021-08-05T09:29:26Z</time>
      </trkpt>
      <trkpt lat="47.64028" lon="-2.83147">
        <ele>54.8</ele>
        <time>2021-08-05T09:29:27Z</time>
      </trkpt>
      <trkpt lat="47.64027" lon="-2.83143">
        <ele>54.8</ele>
        <time>2021-08-05T09:29:28Z</time>
      </trkpt>
      <trkpt lat="47.64025" lon="-2.83139">
        <ele>54.8</ele>
        <time>2021-08-05T09:29:29Z</time>
      </trkpt>
      <trkpt lat="47.64022" lon="-2.83135">
        <ele>54.8</ele>
        <time>2021-08-05T09:29:30Z</time>
      </trkpt>
      <trkpt lat="47.64019" lon="-2.83131">
        <ele>54.8</ele>
        <time>2021-08-05T09:29:31Z</time>
      </trkpt>
      <trkpt lat="47.64013" lon="-2.83122">
        <ele>54.6</ele>
        <time>2021-08-05T09:29:33Z</time>
      </trkpt>
      <trkpt lat="47.64009" lon="-2.83117">
        <ele>54.6</ele>
        <time>2021-08-05T09:29:34Z</time>
      </trkpt>
      <trkpt lat="47.64006" lon="-2.83111">
        <ele>54.6</ele>
        <time>2021-08-05T09:29:35Z</time>
      </trkpt>
      <trkpt lat="47.64002" lon="-2.83105">
        <ele>54.6</ele>
        <time>2021-08-05T09:29:36Z</time>
      </trkpt>
      <trkpt lat="47.63995" lon="-2.83093">
        <ele>54.4</ele>
        <time>2021-08-05T09:29:38Z</time>
      </trkpt>
      <trkpt lat="47.63988" lon="-2.8308">
        <ele>54.2</ele>
        <time>2021-08-05T09:29:40Z</time>
      </trkpt>
      <trkpt lat="47.63981" lon="-2.83065">
        <ele>53.6</ele>
        <time>2021-08-05T09:29:42Z</time>
      </trkpt>
      <trkpt lat="47.63977" lon="-2.83058">
        <ele>53.4</ele>
        <time>2021-08-05T09:29:43Z</time>
      </trkpt>
      <trkpt lat="47.63974" lon="-2.8305">
        <ele>53.2</ele>
        <time>2021-08-05T09:29:44Z</time>
      </trkpt>
      <trkpt lat="47.63967" lon="-2.83035">
        <ele>53</ele>
        <time>2021-08-05T09:29:46Z</time>
      </trkpt>
      <trkpt lat="47.63961" lon="-2.83019">
        <ele>52.8</ele>
        <time>2021-08-05T09:29:48Z</time>
      </trkpt>
      <trkpt lat="47.63954" lon="-2.83003">
        <ele>52.6</ele>
        <time>2021-08-05T09:29:50Z</time>
      </trkpt>
      <trkpt lat="47.63949" lon="-2.82989">
        <ele>52.4</ele>
        <time>2021-08-05T09:29:52Z</time>
      </trkpt>
      <trkpt lat="47.63943" lon="-2.82975">
        <ele>52.2</ele>
        <time>2021-08-05T09:29:54Z</time>
      </trkpt>
      <trkpt lat="47.63941" lon="-2.82967">
        <ele>52.2</ele>
        <time>2021-08-05T09:29:55Z</time>
      </trkpt>
      <trkpt lat="47.63935" lon="-2.82953">
        <ele>52</ele>
        <time>2021-08-05T09:29:57Z</time>
      </trkpt>
      <trkpt lat="47.6393" lon="-2.8294">
        <ele>52</ele>
        <time>2021-08-05T09:29:59Z</time>
      </trkpt>
      <trkpt lat="47.63925" lon="-2.82928">
        <ele>52</ele>
        <time>2021-08-05T09:30:01Z</time>
      </trkpt>
      <trkpt lat="47.63923" lon="-2.82921">
        <ele>51.8</ele>
        <time>2021-08-05T09:30:02Z</time>
      </trkpt>
      <trkpt lat="47.6392" lon="-2.82915">
        <ele>51.8</ele>
        <time>2021-08-05T09:30:03Z</time>
      </trkpt>
      <trkpt lat="47.63915" lon="-2.82902">
        <ele>51.6</ele>
        <time>2021-08-05T09:30:05Z</time>
      </trkpt>
      <trkpt lat="47.6391" lon="-2.8289">
        <ele>51.4</ele>
        <time>2021-08-05T09:30:07Z</time>
      </trkpt>
      <trkpt lat="47.63907" lon="-2.82884">
        <ele>51.4</ele>
        <time>2021-08-05T09:30:08Z</time>
      </trkpt>
      <trkpt lat="47.63904" lon="-2.82879">
        <ele>51.2</ele>
        <time>2021-08-05T09:30:09Z</time>
      </trkpt>
      <trkpt lat="47.63901" lon="-2.82874">
        <ele>51.4</ele>
        <time>2021-08-05T09:30:10Z</time>
      </trkpt>
      <trkpt lat="47.63898" lon="-2.82869">
        <ele>51.4</ele>
        <time>2021-08-05T09:30:11Z</time>
      </trkpt>
      <trkpt lat="47.63893" lon="-2.82862">
        <ele>51.2</ele>
        <time>2021-08-05T09:30:13Z</time>
      </trkpt>
      <trkpt lat="47.6389" lon="-2.8286">
        <ele>51.2</ele>
        <time>2021-08-05T09:30:14Z</time>
      </trkpt>
      <trkpt lat="47.63887" lon="-2.82859">
        <ele>51</ele>
        <time>2021-08-05T09:30:15Z</time>
      </trkpt>
      <trkpt lat="47.63884" lon="-2.82858">
        <ele>50.8</ele>
        <time>2021-08-05T09:30:16Z</time>
      </trkpt>
      <trkpt lat="47.6388" lon="-2.82857">
        <ele>50.8</ele>
        <time>2021-08-05T09:30:17Z</time>
      </trkpt>
      <trkpt lat="47.63876" lon="-2.82856">
        <ele>50.8</ele>
        <time>2021-08-05T09:30:18Z</time>
      </trkpt>
      <trkpt lat="47.63872" lon="-2.82853">
        <ele>50.6</ele>
        <time>2021-08-05T09:30:19Z</time>
      </trkpt>
      <trkpt lat="47.63869" lon="-2.8285">
        <ele>50.6</ele>
        <time>2021-08-05T09:30:20Z</time>
      </trkpt>
      <trkpt lat="47.63865" lon="-2.82845">
        <ele>50.6</ele>
        <time>2021-08-05T09:30:21Z</time>
      </trkpt>
      <trkpt lat="47.63863" lon="-2.82839">
        <ele>50.6</ele>
        <time>2021-08-05T09:30:22Z</time>
      </trkpt>
      <trkpt lat="47.63861" lon="-2.82833">
        <ele>50.6</ele>
        <time>2021-08-05T09:30:23Z</time>
      </trkpt>
      <trkpt lat="47.6386" lon="-2.82826">
        <ele>50.6</ele>
        <time>2021-08-05T09:30:24Z</time>
      </trkpt>
      <trkpt lat="47.63859" lon="-2.8282">
        <ele>50.6</ele>
        <time>2021-08-05T09:30:25Z</time>
      </trkpt>
      <trkpt lat="47.6386" lon="-2.82813">
        <ele>50.6</ele>
        <time>2021-08-05T09:30:26Z</time>
      </trkpt>
      <trkpt lat="47.63862" lon="-2.82806">
        <ele>50.6</ele>
        <time>2021-08-05T09:30:27Z</time>
      </trkpt>
      <trkpt lat="47.63864" lon="-2.828">
        <ele>50.6</ele>
        <time>2021-08-05T09:30:28Z</time>
      </trkpt>
      <trkpt lat="47.63867" lon="-2.82795">
        <ele>50.6</ele>
        <time>2021-08-05T09:30:29Z</time>
      </trkpt>
      <trkpt lat="47.63874" lon="-2.82787">
        <ele>50.6</ele>
        <time>2021-08-05T09:30:31Z</time>
      </trkpt>
      <trkpt lat="47.63878" lon="-2.82783">
        <ele>50.6</ele>
        <time>2021-08-05T09:30:32Z</time>
      </trkpt>
      <trkpt lat="47.63882" lon="-2.82781">
        <ele>50.8</ele>
        <time>2021-08-05T09:30:33Z</time>
      </trkpt>
      <trkpt lat="47.63886" lon="-2.82778">
        <ele>50.8</ele>
        <time>2021-08-05T09:30:34Z</time>
      </trkpt>
      <trkpt lat="47.6389" lon="-2.82774">
        <ele>51</ele>
        <time>2021-08-05T09:30:35Z</time>
      </trkpt>
      <trkpt lat="47.63893" lon="-2.82768">
        <ele>51</ele>
        <time>2021-08-05T09:30:36Z</time>
      </trkpt>
      <trkpt lat="47.63898" lon="-2.82755">
        <ele>51.2</ele>
        <time>2021-08-05T09:30:38Z</time>
      </trkpt>
      <trkpt lat="47.639" lon="-2.82749">
        <ele>51.4</ele>
        <time>2021-08-05T09:30:39Z</time>
      </trkpt>
      <trkpt lat="47.63902" lon="-2.82742">
        <ele>51.4</ele>
        <time>2021-08-05T09:30:40Z</time>
      </trkpt>
      <trkpt lat="47.63904" lon="-2.82736">
        <ele>51.4</ele>
        <time>2021-08-05T09:30:41Z</time>
      </trkpt>
      <trkpt lat="47.63906" lon="-2.8273">
        <ele>51.6</ele>
        <time>2021-08-05T09:30:42Z</time>
      </trkpt>
      <trkpt lat="47.6391" lon="-2.82717">
        <ele>51.6</ele>
        <time>2021-08-05T09:30:44Z</time>
      </trkpt>
      <trkpt lat="47.63914" lon="-2.82704">
        <ele>51.8</ele>
        <time>2021-08-05T09:30:46Z</time>
      </trkpt>
      <trkpt lat="47.63919" lon="-2.82691">
        <ele>51.8</ele>
        <time>2021-08-05T09:30:48Z</time>
      </trkpt>
      <trkpt lat="47.63921" lon="-2.82684">
        <ele>51.8</ele>
        <time>2021-08-05T09:30:49Z</time>
      </trkpt>
      <trkpt lat="47.63926" lon="-2.82671">
        <ele>51.8</ele>
        <time>2021-08-05T09:30:51Z</time>
      </trkpt>
      <trkpt lat="47.63931" lon="-2.82658">
        <ele>51.6</ele>
        <time>2021-08-05T09:30:53Z</time>
      </trkpt>
      <trkpt lat="47.63935" lon="-2.82645">
        <ele>51.6</ele>
        <time>2021-08-05T09:30:55Z</time>
      </trkpt>
      <trkpt lat="47.6394" lon="-2.82633">
        <ele>51.6</ele>
        <time>2021-08-05T09:30:57Z</time>
      </trkpt>
      <trkpt lat="47.63944" lon="-2.82621">
        <ele>51.6</ele>
        <time>2021-08-05T09:30:59Z</time>
      </trkpt>
      <trkpt lat="47.63946" lon="-2.82614">
        <ele>51.6</ele>
        <time>2021-08-05T09:31:00Z</time>
      </trkpt>
      <trkpt lat="47.63948" lon="-2.82608">
        <ele>51.6</ele>
        <time>2021-08-05T09:31:01Z</time>
      </trkpt>
      <trkpt lat="47.63953" lon="-2.82595">
        <ele>51.4</ele>
        <time>2021-08-05T09:31:03Z</time>
      </trkpt>
      <trkpt lat="47.63958" lon="-2.82581">
        <ele>51.4</ele>
        <time>2021-08-05T09:31:05Z</time>
      </trkpt>
      <trkpt lat="47.63963" lon="-2.82567">
        <ele>51.4</ele>
        <time>2021-08-05T09:31:07Z</time>
      </trkpt>
      <trkpt lat="47.63966" lon="-2.82559">
        <ele>51.6</ele>
        <time>2021-08-05T09:31:08Z</time>
      </trkpt>
      <trkpt lat="47.63969" lon="-2.82552">
        <ele>51.6</ele>
        <time>2021-08-05T09:31:09Z</time>
      </trkpt>
      <trkpt lat="47.63972" lon="-2.82544">
        <ele>51.6</ele>
        <time>2021-08-05T09:31:10Z</time>
      </trkpt>
      <trkpt lat="47.63977" lon="-2.82529">
        <ele>51.6</ele>
        <time>2021-08-05T09:31:12Z</time>
      </trkpt>
      <trkpt lat="47.63982" lon="-2.82514">
        <ele>51.6</ele>
        <time>2021-08-05T09:31:14Z</time>
      </trkpt>
      <trkpt lat="47.63988" lon="-2.82499">
        <ele>51.4</ele>
        <time>2021-08-05T09:31:16Z</time>
      </trkpt>
      <trkpt lat="47.63993" lon="-2.82484">
        <ele>51.2</ele>
        <time>2021-08-05T09:31:18Z</time>
      </trkpt>
      <trkpt lat="47.63996" lon="-2.82476">
        <ele>51.2</ele>
        <time>2021-08-05T09:31:19Z</time>
      </trkpt>
      <trkpt lat="47.63999" lon="-2.82468">
        <ele>51</ele>
        <time>2021-08-05T09:31:20Z</time>
      </trkpt>
      <trkpt lat="47.64004" lon="-2.82452">
        <ele>50.8</ele>
        <time>2021-08-05T09:31:22Z</time>
      </trkpt>
      <trkpt lat="47.64011" lon="-2.82436">
        <ele>50.6</ele>
        <time>2021-08-05T09:31:24Z</time>
      </trkpt>
      <trkpt lat="47.64014" lon="-2.82428">
        <ele>50.4</ele>
        <time>2021-08-05T09:31:25Z</time>
      </trkpt>
      <trkpt lat="47.64017" lon="-2.82419">
        <ele>50.2</ele>
        <time>2021-08-05T09:31:26Z</time>
      </trkpt>
      <trkpt lat="47.6402" lon="-2.82411">
        <ele>50</ele>
        <time>2021-08-05T09:31:27Z</time>
      </trkpt>
      <trkpt lat="47.64023" lon="-2.82402">
        <ele>49.8</ele>
        <time>2021-08-05T09:31:28Z</time>
      </trkpt>
      <trkpt lat="47.64032" lon="-2.82376">
        <ele>49.4</ele>
        <time>2021-08-05T09:31:31Z</time>
      </trkpt>
      <trkpt lat="47.64035" lon="-2.82368">
        <ele>49.4</ele>
        <time>2021-08-05T09:31:32Z</time>
      </trkpt>
      <trkpt lat="47.64039" lon="-2.82359">
        <ele>49.4</ele>
        <time>2021-08-05T09:31:33Z</time>
      </trkpt>
      <trkpt lat="47.64045" lon="-2.82341">
        <ele>49</ele>
        <time>2021-08-05T09:31:35Z</time>
      </trkpt>
      <trkpt lat="47.64052" lon="-2.82323">
        <ele>48.6</ele>
        <time>2021-08-05T09:31:37Z</time>
      </trkpt>
      <trkpt lat="47.64059" lon="-2.82304">
        <ele>48.4</ele>
        <time>2021-08-05T09:31:39Z</time>
      </trkpt>
      <trkpt lat="47.64063" lon="-2.82294">
        <ele>48.4</ele>
        <time>2021-08-05T09:31:40Z</time>
      </trkpt>
      <trkpt lat="47.64067" lon="-2.82284">
        <ele>48.2</ele>
        <time>2021-08-05T09:31:41Z</time>
      </trkpt>
      <trkpt lat="47.64074" lon="-2.82265">
        <ele>48</ele>
        <time>2021-08-05T09:31:43Z</time>
      </trkpt>
      <trkpt lat="47.64081" lon="-2.82246">
        <ele>48</ele>
        <time>2021-08-05T09:31:45Z</time>
      </trkpt>
      <trkpt lat="47.64085" lon="-2.82237">
        <ele>47.8</ele>
        <time>2021-08-05T09:31:46Z</time>
      </trkpt>
      <trkpt lat="47.64088" lon="-2.82227">
        <ele>47.8</ele>
        <time>2021-08-05T09:31:47Z</time>
      </trkpt>
      <trkpt lat="47.64096" lon="-2.82207">
        <ele>47.4</ele>
        <time>2021-08-05T09:31:49Z</time>
      </trkpt>
      <trkpt lat="47.641" lon="-2.82197">
        <ele>47</ele>
        <time>2021-08-05T09:31:50Z</time>
      </trkpt>
      <trkpt lat="47.64107" lon="-2.82178">
        <ele>46.6</ele>
        <time>2021-08-05T09:31:52Z</time>
      </trkpt>
      <trkpt lat="47.64114" lon="-2.82159">
        <ele>46.2</ele>
        <time>2021-08-05T09:31:54Z</time>
      </trkpt>
      <trkpt lat="47.64117" lon="-2.8215">
        <ele>46</ele>
        <time>2021-08-05T09:31:55Z</time>
      </trkpt>
      <trkpt lat="47.64121" lon="-2.82141">
        <ele>45.6</ele>
        <time>2021-08-05T09:31:56Z</time>
      </trkpt>
      <trkpt lat="47.64128" lon="-2.82123">
        <ele>45.4</ele>
        <time>2021-08-05T09:31:58Z</time>
      </trkpt>
      <trkpt lat="47.64134" lon="-2.82106">
        <ele>45</ele>
        <time>2021-08-05T09:32:00Z</time>
      </trkpt>
      <trkpt lat="47.64138" lon="-2.82097">
        <ele>45</ele>
        <time>2021-08-05T09:32:01Z</time>
      </trkpt>
      <trkpt lat="47.64141" lon="-2.82089">
        <ele>44.8</ele>
        <time>2021-08-05T09:32:02Z</time>
      </trkpt>
      <trkpt lat="47.64148" lon="-2.82071">
        <ele>44.6</ele>
        <time>2021-08-05T09:32:04Z</time>
      </trkpt>
      <trkpt lat="47.64154" lon="-2.82054">
        <ele>44.4</ele>
        <time>2021-08-05T09:32:06Z</time>
      </trkpt>
      <trkpt lat="47.64161" lon="-2.82036">
        <ele>44.2</ele>
        <time>2021-08-05T09:32:08Z</time>
      </trkpt>
      <trkpt lat="47.64167" lon="-2.8202">
        <ele>44</ele>
        <time>2021-08-05T09:32:10Z</time>
      </trkpt>
      <trkpt lat="47.64173" lon="-2.82004">
        <ele>43.8</ele>
        <time>2021-08-05T09:32:12Z</time>
      </trkpt>
      <trkpt lat="47.64176" lon="-2.81996">
        <ele>43.8</ele>
        <time>2021-08-05T09:32:13Z</time>
      </trkpt>
      <trkpt lat="47.64182" lon="-2.8198">
        <ele>43.8</ele>
        <time>2021-08-05T09:32:15Z</time>
      </trkpt>
      <trkpt lat="47.64188" lon="-2.81963">
        <ele>43.6</ele>
        <time>2021-08-05T09:32:17Z</time>
      </trkpt>
      <trkpt lat="47.64193" lon="-2.81946">
        <ele>43.6</ele>
        <time>2021-08-05T09:32:19Z</time>
      </trkpt>
      <trkpt lat="47.64199" lon="-2.8193">
        <ele>43.6</ele>
        <time>2021-08-05T09:32:21Z</time>
      </trkpt>
      <trkpt lat="47.64201" lon="-2.81922">
        <ele>43.6</ele>
        <time>2021-08-05T09:32:22Z</time>
      </trkpt>
      <trkpt lat="47.64204" lon="-2.81915">
        <ele>43.6</ele>
        <time>2021-08-05T09:32:23Z</time>
      </trkpt>
      <trkpt lat="47.64209" lon="-2.81899">
        <ele>43.4</ele>
        <time>2021-08-05T09:32:25Z</time>
      </trkpt>
      <trkpt lat="47.64214" lon="-2.81885">
        <ele>43.4</ele>
        <time>2021-08-05T09:32:27Z</time>
      </trkpt>
      <trkpt lat="47.64219" lon="-2.81871">
        <ele>43.4</ele>
        <time>2021-08-05T09:32:29Z</time>
      </trkpt>
      <trkpt lat="47.64223" lon="-2.81856">
        <ele>43.2</ele>
        <time>2021-08-05T09:32:31Z</time>
      </trkpt>
      <trkpt lat="47.64228" lon="-2.81842">
        <ele>43.2</ele>
        <time>2021-08-05T09:32:33Z</time>
      </trkpt>
      <trkpt lat="47.64236" lon="-2.81819">
        <ele>43</ele>
        <time>2021-08-05T09:32:36Z</time>
      </trkpt>
      <trkpt lat="47.64241" lon="-2.81804">
        <ele>43</ele>
        <time>2021-08-05T09:32:38Z</time>
      </trkpt>
      <trkpt lat="47.64244" lon="-2.81796">
        <ele>42.8</ele>
        <time>2021-08-05T09:32:39Z</time>
      </trkpt>
      <trkpt lat="47.64246" lon="-2.81788">
        <ele>42.8</ele>
        <time>2021-08-05T09:32:40Z</time>
      </trkpt>
      <trkpt lat="47.64249" lon="-2.81781">
        <ele>42.8</ele>
        <time>2021-08-05T09:32:41Z</time>
      </trkpt>
      <trkpt lat="47.64252" lon="-2.81773">
        <ele>42.8</ele>
        <time>2021-08-05T09:32:42Z</time>
      </trkpt>
      <trkpt lat="47.64257" lon="-2.81757">
        <ele>42.8</ele>
        <time>2021-08-05T09:32:44Z</time>
      </trkpt>
      <trkpt lat="47.64262" lon="-2.8174">
        <ele>42.6</ele>
        <time>2021-08-05T09:32:46Z</time>
      </trkpt>
      <trkpt lat="47.64268" lon="-2.81724">
        <ele>42.6</ele>
        <time>2021-08-05T09:32:48Z</time>
      </trkpt>
      <trkpt lat="47.6427" lon="-2.81716">
        <ele>42.6</ele>
        <time>2021-08-05T09:32:49Z</time>
      </trkpt>
      <trkpt lat="47.64276" lon="-2.81699">
        <ele>42.6</ele>
        <time>2021-08-05T09:32:51Z</time>
      </trkpt>
      <trkpt lat="47.64279" lon="-2.81691">
        <ele>42.6</ele>
        <time>2021-08-05T09:32:52Z</time>
      </trkpt>
      <trkpt lat="47.64282" lon="-2.81683">
        <ele>42.4</ele>
        <time>2021-08-05T09:32:53Z</time>
      </trkpt>
      <trkpt lat="47.64285" lon="-2.81674">
        <ele>42.4</ele>
        <time>2021-08-05T09:32:54Z</time>
      </trkpt>
      <trkpt lat="47.64288" lon="-2.81666">
        <ele>42.4</ele>
        <time>2021-08-05T09:32:55Z</time>
      </trkpt>
      <trkpt lat="47.64291" lon="-2.81657">
        <ele>42.4</ele>
        <time>2021-08-05T09:32:56Z</time>
      </trkpt>
      <trkpt lat="47.64294" lon="-2.81649">
        <ele>42.2</ele>
        <time>2021-08-05T09:32:57Z</time>
      </trkpt>
      <trkpt lat="47.64297" lon="-2.81641">
        <ele>42.2</ele>
        <time>2021-08-05T09:32:58Z</time>
      </trkpt>
      <trkpt lat="47.643" lon="-2.81633">
        <ele>42</ele>
        <time>2021-08-05T09:32:59Z</time>
      </trkpt>
      <trkpt lat="47.64303" lon="-2.81624">
        <ele>41.8</ele>
        <time>2021-08-05T09:33:00Z</time>
      </trkpt>
      <trkpt lat="47.64306" lon="-2.81616">
        <ele>41.6</ele>
        <time>2021-08-05T09:33:01Z</time>
      </trkpt>
      <trkpt lat="47.64308" lon="-2.81607">
        <ele>41.6</ele>
        <time>2021-08-05T09:33:02Z</time>
      </trkpt>
      <trkpt lat="47.6431" lon="-2.81599">
        <ele>41.6</ele>
        <time>2021-08-05T09:33:03Z</time>
      </trkpt>
      <trkpt lat="47.64313" lon="-2.81591">
        <ele>41.6</ele>
        <time>2021-08-05T09:33:04Z</time>
      </trkpt>
      <trkpt lat="47.64316" lon="-2.81584">
        <ele>41.4</ele>
        <time>2021-08-05T09:33:05Z</time>
      </trkpt>
      <trkpt lat="47.64318" lon="-2.81578">
        <ele>41.4</ele>
        <time>2021-08-05T09:33:06Z</time>
      </trkpt>
      <trkpt lat="47.64321" lon="-2.81572">
        <ele>41.4</ele>
        <time>2021-08-05T09:33:07Z</time>
      </trkpt>
      <trkpt lat="47.64323" lon="-2.81566">
        <ele>41.4</ele>
        <time>2021-08-05T09:33:08Z</time>
      </trkpt>
      <trkpt lat="47.64325" lon="-2.81561">
        <ele>41.4</ele>
        <time>2021-08-05T09:33:09Z</time>
      </trkpt>
      <trkpt lat="47.6433" lon="-2.8155">
        <ele>41.4</ele>
        <time>2021-08-05T09:33:11Z</time>
      </trkpt>
      <trkpt lat="47.64331" lon="-2.81546">
        <ele>41.4</ele>
        <time>2021-08-05T09:33:12Z</time>
      </trkpt>
      <trkpt lat="47.64332" lon="-2.81544">
        <ele>41.2</ele>
        <time>2021-08-05T09:33:13Z</time>
      </trkpt>
      <trkpt lat="47.64332" lon="-2.81542">
        <ele>41.2</ele>
        <time>2021-08-05T09:33:14Z</time>
      </trkpt>
      <trkpt lat="47.64332" lon="-2.81542">
        <ele>41.2</ele>
        <time>2021-08-05T09:33:17Z</time>
      </trkpt>
      <trkpt lat="47.64332" lon="-2.81542">
        <ele>41.2</ele>
        <time>2021-08-05T09:33:18Z</time>
      </trkpt>
      <trkpt lat="47.64333" lon="-2.81539">
        <ele>41</ele>
        <time>2021-08-05T09:33:49Z</time>
      </trkpt>
      <trkpt lat="47.64332" lon="-2.81537">
        <ele>41</ele>
        <time>2021-08-05T09:33:50Z</time>
      </trkpt>
      <trkpt lat="47.64332" lon="-2.81535">
        <ele>41</ele>
        <time>2021-08-05T09:33:51Z</time>
      </trkpt>
      <trkpt lat="47.64333" lon="-2.8153">
        <ele>41</ele>
        <time>2021-08-05T09:33:53Z</time>
      </trkpt>
      <trkpt lat="47.64334" lon="-2.81528">
        <ele>41</ele>
        <time>2021-08-05T09:33:54Z</time>
      </trkpt>
      <trkpt lat="47.64334" lon="-2.81526">
        <ele>41</ele>
        <time>2021-08-05T09:33:55Z</time>
      </trkpt>
      <trkpt lat="47.64334" lon="-2.81524">
        <ele>41</ele>
        <time>2021-08-05T09:33:56Z</time>
      </trkpt>
      <trkpt lat="47.64334" lon="-2.81522">
        <ele>41</ele>
        <time>2021-08-05T09:33:57Z</time>
      </trkpt>
      <trkpt lat="47.64331" lon="-2.81518">
        <ele>41</ele>
        <time>2021-08-05T09:33:59Z</time>
      </trkpt>
      <trkpt lat="47.64329" lon="-2.81514">
        <ele>41</ele>
        <time>2021-08-05T09:34:01Z</time>
      </trkpt>
      <trkpt lat="47.64329" lon="-2.81507">
        <ele>41</ele>
        <time>2021-08-05T09:34:03Z</time>
      </trkpt>
      <trkpt lat="47.6433" lon="-2.81503">
        <ele>41</ele>
        <time>2021-08-05T09:34:04Z</time>
      </trkpt>
      <trkpt lat="47.64332" lon="-2.81496">
        <ele>41</ele>
        <time>2021-08-05T09:34:06Z</time>
      </trkpt>
      <trkpt lat="47.64335" lon="-2.8149">
        <ele>40.8</ele>
        <time>2021-08-05T09:34:08Z</time>
      </trkpt>
      <trkpt lat="47.64337" lon="-2.81488">
        <ele>40.8</ele>
        <time>2021-08-05T09:34:09Z</time>
      </trkpt>
      <trkpt lat="47.64341" lon="-2.81482">
        <ele>40.6</ele>
        <time>2021-08-05T09:34:11Z</time>
      </trkpt>
      <trkpt lat="47.64347" lon="-2.81477">
        <ele>40.6</ele>
        <time>2021-08-05T09:34:13Z</time>
      </trkpt>
      <trkpt lat="47.64351" lon="-2.81475">
        <ele>40.4</ele>
        <time>2021-08-05T09:34:14Z</time>
      </trkpt>
      <trkpt lat="47.64357" lon="-2.81468">
        <ele>40.4</ele>
        <time>2021-08-05T09:34:16Z</time>
      </trkpt>
      <trkpt lat="47.64363" lon="-2.81457">
        <ele>40.4</ele>
        <time>2021-08-05T09:34:18Z</time>
      </trkpt>
      <trkpt lat="47.64365" lon="-2.8145">
        <ele>40.4</ele>
        <time>2021-08-05T09:34:19Z</time>
      </trkpt>
      <trkpt lat="47.6437" lon="-2.81437">
        <ele>40.2</ele>
        <time>2021-08-05T09:34:21Z</time>
      </trkpt>
      <trkpt lat="47.64374" lon="-2.81424">
        <ele>40</ele>
        <time>2021-08-05T09:34:23Z</time>
      </trkpt>
      <trkpt lat="47.64376" lon="-2.81417">
        <ele>39.8</ele>
        <time>2021-08-05T09:34:24Z</time>
      </trkpt>
      <trkpt lat="47.64379" lon="-2.81411">
        <ele>39.6</ele>
        <time>2021-08-05T09:34:25Z</time>
      </trkpt>
      <trkpt lat="47.64381" lon="-2.81404">
        <ele>39.4</ele>
        <time>2021-08-05T09:34:26Z</time>
      </trkpt>
      <trkpt lat="47.64387" lon="-2.8139">
        <ele>39.2</ele>
        <time>2021-08-05T09:34:28Z</time>
      </trkpt>
      <trkpt lat="47.6439" lon="-2.81383">
        <ele>39</ele>
        <time>2021-08-05T09:34:29Z</time>
      </trkpt>
      <trkpt lat="47.64396" lon="-2.81369">
        <ele>39</ele>
        <time>2021-08-05T09:34:31Z</time>
      </trkpt>
      <trkpt lat="47.64402" lon="-2.81355">
        <ele>38.8</ele>
        <time>2021-08-05T09:34:33Z</time>
      </trkpt>
      <trkpt lat="47.64405" lon="-2.81348">
        <ele>38.8</ele>
        <time>2021-08-05T09:34:34Z</time>
      </trkpt>
      <trkpt lat="47.64412" lon="-2.81334">
        <ele>38.6</ele>
        <time>2021-08-05T09:34:36Z</time>
      </trkpt>
      <trkpt lat="47.64418" lon="-2.81319">
        <ele>38.4</ele>
        <time>2021-08-05T09:34:38Z</time>
      </trkpt>
      <trkpt lat="47.64422" lon="-2.81312">
        <ele>38.2</ele>
        <time>2021-08-05T09:34:39Z</time>
      </trkpt>
      <trkpt lat="47.64428" lon="-2.81297">
        <ele>38.2</ele>
        <time>2021-08-05T09:34:41Z</time>
      </trkpt>
      <trkpt lat="47.64435" lon="-2.81281">
        <ele>38</ele>
        <time>2021-08-05T09:34:43Z</time>
      </trkpt>
      <trkpt lat="47.64438" lon="-2.81273">
        <ele>38</ele>
        <time>2021-08-05T09:34:44Z</time>
      </trkpt>
      <trkpt lat="47.64445" lon="-2.81258">
        <ele>37.6</ele>
        <time>2021-08-05T09:34:46Z</time>
      </trkpt>
      <trkpt lat="47.64448" lon="-2.8125">
        <ele>37.4</ele>
        <time>2021-08-05T09:34:47Z</time>
      </trkpt>
      <trkpt lat="47.64451" lon="-2.81242">
        <ele>37.2</ele>
        <time>2021-08-05T09:34:48Z</time>
      </trkpt>
      <trkpt lat="47.64454" lon="-2.81234">
        <ele>37.2</ele>
        <time>2021-08-05T09:34:49Z</time>
      </trkpt>
      <trkpt lat="47.64461" lon="-2.81219">
        <ele>36.8</ele>
        <time>2021-08-05T09:34:51Z</time>
      </trkpt>
      <trkpt lat="47.64467" lon="-2.81204">
        <ele>36.6</ele>
        <time>2021-08-05T09:34:53Z</time>
      </trkpt>
      <trkpt lat="47.6447" lon="-2.81196">
        <ele>36.4</ele>
        <time>2021-08-05T09:34:54Z</time>
      </trkpt>
      <trkpt lat="47.64473" lon="-2.81189">
        <ele>36.4</ele>
        <time>2021-08-05T09:34:55Z</time>
      </trkpt>
      <trkpt lat="47.64476" lon="-2.81181">
        <ele>36.2</ele>
        <time>2021-08-05T09:34:56Z</time>
      </trkpt>
      <trkpt lat="47.64482" lon="-2.81166">
        <ele>36.2</ele>
        <time>2021-08-05T09:34:58Z</time>
      </trkpt>
      <trkpt lat="47.64485" lon="-2.81158">
        <ele>36.2</ele>
        <time>2021-08-05T09:34:59Z</time>
      </trkpt>
      <trkpt lat="47.64491" lon="-2.81143">
        <ele>36</ele>
        <time>2021-08-05T09:35:01Z</time>
      </trkpt>
      <trkpt lat="47.64501" lon="-2.81119">
        <ele>35.8</ele>
        <time>2021-08-05T09:35:04Z</time>
      </trkpt>
      <trkpt lat="47.64507" lon="-2.81104">
        <ele>35.8</ele>
        <time>2021-08-05T09:35:06Z</time>
      </trkpt>
      <trkpt lat="47.64509" lon="-2.81096">
        <ele>35.6</ele>
        <time>2021-08-05T09:35:07Z</time>
      </trkpt>
      <trkpt lat="47.64514" lon="-2.8108">
        <ele>35.6</ele>
        <time>2021-08-05T09:35:09Z</time>
      </trkpt>
      <trkpt lat="47.64518" lon="-2.81063">
        <ele>35.6</ele>
        <time>2021-08-05T09:35:11Z</time>
      </trkpt>
      <trkpt lat="47.64523" lon="-2.81047">
        <ele>35.6</ele>
        <time>2021-08-05T09:35:13Z</time>
      </trkpt>
      <trkpt lat="47.64525" lon="-2.81038">
        <ele>35.6</ele>
        <time>2021-08-05T09:35:14Z</time>
      </trkpt>
      <trkpt lat="47.64528" lon="-2.81021">
        <ele>35.6</ele>
        <time>2021-08-05T09:35:16Z</time>
      </trkpt>
      <trkpt lat="47.64532" lon="-2.81006">
        <ele>35.4</ele>
        <time>2021-08-05T09:35:18Z</time>
      </trkpt>
      <trkpt lat="47.64534" lon="-2.80999">
        <ele>35.4</ele>
        <time>2021-08-05T09:35:19Z</time>
      </trkpt>
      <trkpt lat="47.64538" lon="-2.80984">
        <ele>35.4</ele>
        <time>2021-08-05T09:35:21Z</time>
      </trkpt>
      <trkpt lat="47.6454" lon="-2.80977">
        <ele>35.4</ele>
        <time>2021-08-05T09:35:22Z</time>
      </trkpt>
      <trkpt lat="47.64542" lon="-2.8097">
        <ele>35.4</ele>
        <time>2021-08-05T09:35:23Z</time>
      </trkpt>
      <trkpt lat="47.64545" lon="-2.80963">
        <ele>35.4</ele>
        <time>2021-08-05T09:35:24Z</time>
      </trkpt>
      <trkpt lat="47.64547" lon="-2.80957">
        <ele>35.4</ele>
        <time>2021-08-05T09:35:25Z</time>
      </trkpt>
      <trkpt lat="47.6455" lon="-2.8095">
        <ele>35.4</ele>
        <time>2021-08-05T09:35:26Z</time>
      </trkpt>
      <trkpt lat="47.64553" lon="-2.80944">
        <ele>35.4</ele>
        <time>2021-08-05T09:35:27Z</time>
      </trkpt>
      <trkpt lat="47.64556" lon="-2.80939">
        <ele>35.4</ele>
        <time>2021-08-05T09:35:28Z</time>
      </trkpt>
      <trkpt lat="47.6456" lon="-2.80933">
        <ele>35.2</ele>
        <time>2021-08-05T09:35:29Z</time>
      </trkpt>
      <trkpt lat="47.64563" lon="-2.80928">
        <ele>35.2</ele>
        <time>2021-08-05T09:35:30Z</time>
      </trkpt>
      <trkpt lat="47.64566" lon="-2.80922">
        <ele>35</ele>
        <time>2021-08-05T09:35:31Z</time>
      </trkpt>
      <trkpt lat="47.64569" lon="-2.80916">
        <ele>34.8</ele>
        <time>2021-08-05T09:35:32Z</time>
      </trkpt>
      <trkpt lat="47.64573" lon="-2.8091">
        <ele>34.8</ele>
        <time>2021-08-05T09:35:33Z</time>
      </trkpt>
      <trkpt lat="47.64575" lon="-2.80904">
        <ele>34.8</ele>
        <time>2021-08-05T09:35:34Z</time>
      </trkpt>
      <trkpt lat="47.64578" lon="-2.80897">
        <ele>34.8</ele>
        <time>2021-08-05T09:35:35Z</time>
      </trkpt>
      <trkpt lat="47.64579" lon="-2.80891">
        <ele>34.8</ele>
        <time>2021-08-05T09:35:36Z</time>
      </trkpt>
      <trkpt lat="47.64577" lon="-2.80884">
        <ele>34.6</ele>
        <time>2021-08-05T09:35:37Z</time>
      </trkpt>
      <trkpt lat="47.64575" lon="-2.80877">
        <ele>34.6</ele>
        <time>2021-08-05T09:35:38Z</time>
      </trkpt>
      <trkpt lat="47.64572" lon="-2.8087">
        <ele>34.6</ele>
        <time>2021-08-05T09:35:39Z</time>
      </trkpt>
      <trkpt lat="47.6457" lon="-2.80855">
        <ele>34.4</ele>
        <time>2021-08-05T09:35:41Z</time>
      </trkpt>
      <trkpt lat="47.6457" lon="-2.80847">
        <ele>34.4</ele>
        <time>2021-08-05T09:35:42Z</time>
      </trkpt>
      <trkpt lat="47.64571" lon="-2.80839">
        <ele>34</ele>
        <time>2021-08-05T09:35:43Z</time>
      </trkpt>
      <trkpt lat="47.64573" lon="-2.80832">
        <ele>34</ele>
        <time>2021-08-05T09:35:44Z</time>
      </trkpt>
      <trkpt lat="47.64576" lon="-2.80826">
        <ele>33.8</ele>
        <time>2021-08-05T09:35:45Z</time>
      </trkpt>
      <trkpt lat="47.6458" lon="-2.80821">
        <ele>33.6</ele>
        <time>2021-08-05T09:35:46Z</time>
      </trkpt>
      <trkpt lat="47.64588" lon="-2.80814">
        <ele>33.4</ele>
        <time>2021-08-05T09:35:48Z</time>
      </trkpt>
      <trkpt lat="47.64592" lon="-2.80812">
        <ele>33.4</ele>
        <time>2021-08-05T09:35:49Z</time>
      </trkpt>
      <trkpt lat="47.64596" lon="-2.80811">
        <ele>33.4</ele>
        <time>2021-08-05T09:35:50Z</time>
      </trkpt>
      <trkpt lat="47.64605" lon="-2.80812">
        <ele>33.4</ele>
        <time>2021-08-05T09:35:52Z</time>
      </trkpt>
      <trkpt lat="47.64609" lon="-2.80811">
        <ele>33.4</ele>
        <time>2021-08-05T09:35:53Z</time>
      </trkpt>
      <trkpt lat="47.64617" lon="-2.80806">
        <ele>33.4</ele>
        <time>2021-08-05T09:35:55Z</time>
      </trkpt>
      <trkpt lat="47.64623" lon="-2.80797">
        <ele>33.4</ele>
        <time>2021-08-05T09:35:57Z</time>
      </trkpt>
      <trkpt lat="47.64626" lon="-2.80792">
        <ele>33.4</ele>
        <time>2021-08-05T09:35:58Z</time>
      </trkpt>
      <trkpt lat="47.64629" lon="-2.80787">
        <ele>33.6</ele>
        <time>2021-08-05T09:35:59Z</time>
      </trkpt>
      <trkpt lat="47.64632" lon="-2.80781">
        <ele>33.6</ele>
        <time>2021-08-05T09:36:00Z</time>
      </trkpt>
      <trkpt lat="47.64637" lon="-2.80769">
        <ele>33.8</ele>
        <time>2021-08-05T09:36:02Z</time>
      </trkpt>
      <trkpt lat="47.64641" lon="-2.80755">
        <ele>34</ele>
        <time>2021-08-05T09:36:04Z</time>
      </trkpt>
      <trkpt lat="47.64643" lon="-2.80749">
        <ele>34.2</ele>
        <time>2021-08-05T09:36:05Z</time>
      </trkpt>
      <trkpt lat="47.64647" lon="-2.80735">
        <ele>34.6</ele>
        <time>2021-08-05T09:36:07Z</time>
      </trkpt>
      <trkpt lat="47.64652" lon="-2.80721">
        <ele>34.8</ele>
        <time>2021-08-05T09:36:09Z</time>
      </trkpt>
      <trkpt lat="47.64654" lon="-2.80714">
        <ele>34.8</ele>
        <time>2021-08-05T09:36:10Z</time>
      </trkpt>
      <trkpt lat="47.64658" lon="-2.807">
        <ele>35</ele>
        <time>2021-08-05T09:36:12Z</time>
      </trkpt>
      <trkpt lat="47.64662" lon="-2.80686">
        <ele>35.2</ele>
        <time>2021-08-05T09:36:14Z</time>
      </trkpt>
      <trkpt lat="47.64664" lon="-2.80679">
        <ele>35.4</ele>
        <time>2021-08-05T09:36:15Z</time>
      </trkpt>
      <trkpt lat="47.64668" lon="-2.80665">
        <ele>35.6</ele>
        <time>2021-08-05T09:36:17Z</time>
      </trkpt>
      <trkpt lat="47.64671" lon="-2.80651">
        <ele>35.6</ele>
        <time>2021-08-05T09:36:19Z</time>
      </trkpt>
      <trkpt lat="47.64674" lon="-2.80644">
        <ele>35.6</ele>
        <time>2021-08-05T09:36:20Z</time>
      </trkpt>
      <trkpt lat="47.64678" lon="-2.80629">
        <ele>35.6</ele>
        <time>2021-08-05T09:36:22Z</time>
      </trkpt>
      <trkpt lat="47.64683" lon="-2.80614">
        <ele>35.6</ele>
        <time>2021-08-05T09:36:24Z</time>
      </trkpt>
      <trkpt lat="47.64685" lon="-2.80606">
        <ele>35.6</ele>
        <time>2021-08-05T09:36:25Z</time>
      </trkpt>
      <trkpt lat="47.64688" lon="-2.80598">
        <ele>35.6</ele>
        <time>2021-08-05T09:36:26Z</time>
      </trkpt>
      <trkpt lat="47.6469" lon="-2.80589">
        <ele>35.6</ele>
        <time>2021-08-05T09:36:27Z</time>
      </trkpt>
      <trkpt lat="47.64692" lon="-2.80581">
        <ele>35.6</ele>
        <time>2021-08-05T09:36:28Z</time>
      </trkpt>
      <trkpt lat="47.64697" lon="-2.80564">
        <ele>35.4</ele>
        <time>2021-08-05T09:36:30Z</time>
      </trkpt>
      <trkpt lat="47.64702" lon="-2.80547">
        <ele>35.2</ele>
        <time>2021-08-05T09:36:32Z</time>
      </trkpt>
      <trkpt lat="47.64704" lon="-2.80539">
        <ele>35</ele>
        <time>2021-08-05T09:36:33Z</time>
      </trkpt>
      <trkpt lat="47.64707" lon="-2.8053">
        <ele>34.8</ele>
        <time>2021-08-05T09:36:34Z</time>
      </trkpt>
      <trkpt lat="47.64709" lon="-2.80521">
        <ele>34.6</ele>
        <time>2021-08-05T09:36:35Z</time>
      </trkpt>
      <trkpt lat="47.64714" lon="-2.80503">
        <ele>34.6</ele>
        <time>2021-08-05T09:36:37Z</time>
      </trkpt>
      <trkpt lat="47.64717" lon="-2.80495">
        <ele>34.4</ele>
        <time>2021-08-05T09:36:38Z</time>
      </trkpt>
      <trkpt lat="47.64722" lon="-2.80477">
        <ele>34.2</ele>
        <time>2021-08-05T09:36:40Z</time>
      </trkpt>
      <trkpt lat="47.64728" lon="-2.80459">
        <ele>33.8</ele>
        <time>2021-08-05T09:36:42Z</time>
      </trkpt>
      <trkpt lat="47.64731" lon="-2.8045">
        <ele>33.2</ele>
        <time>2021-08-05T09:36:43Z</time>
      </trkpt>
      <trkpt lat="47.64733" lon="-2.8044">
        <ele>33</ele>
        <time>2021-08-05T09:36:44Z</time>
      </trkpt>
      <trkpt lat="47.64739" lon="-2.80421">
        <ele>32.6</ele>
        <time>2021-08-05T09:36:46Z</time>
      </trkpt>
      <trkpt lat="47.64748" lon="-2.80392">
        <ele>32</ele>
        <time>2021-08-05T09:36:49Z</time>
      </trkpt>
      <trkpt lat="47.64751" lon="-2.80382">
        <ele>31.8</ele>
        <time>2021-08-05T09:36:50Z</time>
      </trkpt>
      <trkpt lat="47.64758" lon="-2.80361">
        <ele>31.4</ele>
        <time>2021-08-05T09:36:52Z</time>
      </trkpt>
      <trkpt lat="47.64765" lon="-2.80339">
        <ele>31.2</ele>
        <time>2021-08-05T09:36:54Z</time>
      </trkpt>
      <trkpt lat="47.64768" lon="-2.80328">
        <ele>30.8</ele>
        <time>2021-08-05T09:36:55Z</time>
      </trkpt>
      <trkpt lat="47.64771" lon="-2.80318">
        <ele>30.6</ele>
        <time>2021-08-05T09:36:56Z</time>
      </trkpt>
      <trkpt lat="47.64777" lon="-2.80299">
        <ele>30</ele>
        <time>2021-08-05T09:36:58Z</time>
      </trkpt>
      <trkpt lat="47.64782" lon="-2.80281">
        <ele>29.6</ele>
        <time>2021-08-05T09:37:00Z</time>
      </trkpt>
      <trkpt lat="47.64788" lon="-2.80262">
        <ele>28</ele>
        <time>2021-08-05T09:37:02Z</time>
      </trkpt>
      <trkpt lat="47.64793" lon="-2.80242">
        <ele>27</ele>
        <time>2021-08-05T09:37:04Z</time>
      </trkpt>
      <trkpt lat="47.64796" lon="-2.80232">
        <ele>26.4</ele>
        <time>2021-08-05T09:37:05Z</time>
      </trkpt>
      <trkpt lat="47.64799" lon="-2.80222">
        <ele>25.8</ele>
        <time>2021-08-05T09:37:06Z</time>
      </trkpt>
      <trkpt lat="47.64805" lon="-2.80202">
        <ele>25.2</ele>
        <time>2021-08-05T09:37:08Z</time>
      </trkpt>
      <trkpt lat="47.64812" lon="-2.80181">
        <ele>24.6</ele>
        <time>2021-08-05T09:37:10Z</time>
      </trkpt>
      <trkpt lat="47.64815" lon="-2.80171">
        <ele>24.2</ele>
        <time>2021-08-05T09:37:11Z</time>
      </trkpt>
      <trkpt lat="47.64818" lon="-2.80161">
        <ele>24</ele>
        <time>2021-08-05T09:37:12Z</time>
      </trkpt>
      <trkpt lat="47.64824" lon="-2.8014">
        <ele>23.4</ele>
        <time>2021-08-05T09:37:14Z</time>
      </trkpt>
      <trkpt lat="47.64827" lon="-2.80129">
        <ele>22.8</ele>
        <time>2021-08-05T09:37:15Z</time>
      </trkpt>
      <trkpt lat="47.6483" lon="-2.80119">
        <ele>22</ele>
        <time>2021-08-05T09:37:16Z</time>
      </trkpt>
      <trkpt lat="47.64833" lon="-2.80108">
        <ele>21.4</ele>
        <time>2021-08-05T09:37:17Z</time>
      </trkpt>
      <trkpt lat="47.64836" lon="-2.80097">
        <ele>20.8</ele>
        <time>2021-08-05T09:37:18Z</time>
      </trkpt>
      <trkpt lat="47.64839" lon="-2.80087">
        <ele>20.2</ele>
        <time>2021-08-05T09:37:19Z</time>
      </trkpt>
      <trkpt lat="47.64846" lon="-2.80066">
        <ele>19.6</ele>
        <time>2021-08-05T09:37:21Z</time>
      </trkpt>
      <trkpt lat="47.64851" lon="-2.80047">
        <ele>19</ele>
        <time>2021-08-05T09:37:23Z</time>
      </trkpt>
      <trkpt lat="47.64854" lon="-2.80038">
        <ele>18.6</ele>
        <time>2021-08-05T09:37:24Z</time>
      </trkpt>
      <trkpt lat="47.64856" lon="-2.80029">
        <ele>18.2</ele>
        <time>2021-08-05T09:37:25Z</time>
      </trkpt>
      <trkpt lat="47.64861" lon="-2.80012">
        <ele>17.4</ele>
        <time>2021-08-05T09:37:27Z</time>
      </trkpt>
      <trkpt lat="47.64866" lon="-2.79995">
        <ele>16.6</ele>
        <time>2021-08-05T09:37:29Z</time>
      </trkpt>
      <trkpt lat="47.64868" lon="-2.79987">
        <ele>16.2</ele>
        <time>2021-08-05T09:37:30Z</time>
      </trkpt>
      <trkpt lat="47.64871" lon="-2.79979">
        <ele>15.8</ele>
        <time>2021-08-05T09:37:31Z</time>
      </trkpt>
      <trkpt lat="47.64876" lon="-2.79963">
        <ele>15.2</ele>
        <time>2021-08-05T09:37:33Z</time>
      </trkpt>
      <trkpt lat="47.6488" lon="-2.79946">
        <ele>14.2</ele>
        <time>2021-08-05T09:37:35Z</time>
      </trkpt>
      <trkpt lat="47.64882" lon="-2.79939">
        <ele>13.4</ele>
        <time>2021-08-05T09:37:36Z</time>
      </trkpt>
      <trkpt lat="47.64885" lon="-2.79926">
        <ele>12.6</ele>
        <time>2021-08-05T09:37:38Z</time>
      </trkpt>
      <trkpt lat="47.64887" lon="-2.79915">
        <ele>12.2</ele>
        <time>2021-08-05T09:37:40Z</time>
      </trkpt>
      <trkpt lat="47.64889" lon="-2.79907">
        <ele>12</ele>
        <time>2021-08-05T09:37:42Z</time>
      </trkpt>
      <trkpt lat="47.6489" lon="-2.79901">
        <ele>11.2</ele>
        <time>2021-08-05T09:37:44Z</time>
      </trkpt>
      <trkpt lat="47.6489" lon="-2.79893">
        <ele>10.4</ele>
        <time>2021-08-05T09:37:46Z</time>
      </trkpt>
      <trkpt lat="47.64889" lon="-2.79888">
        <ele>10.2</ele>
        <time>2021-08-05T09:37:47Z</time>
      </trkpt>
      <trkpt lat="47.64888" lon="-2.79883">
        <ele>10</ele>
        <time>2021-08-05T09:37:48Z</time>
      </trkpt>
      <trkpt lat="47.64888" lon="-2.79874">
        <ele>9.4</ele>
        <time>2021-08-05T09:37:50Z</time>
      </trkpt>
      <trkpt lat="47.6489" lon="-2.79867">
        <ele>9.2</ele>
        <time>2021-08-05T09:37:52Z</time>
      </trkpt>
      <trkpt lat="47.64891" lon="-2.79864">
        <ele>9.2</ele>
        <time>2021-08-05T09:37:53Z</time>
      </trkpt>
      <trkpt lat="47.64892" lon="-2.7986">
        <ele>9</ele>
        <time>2021-08-05T09:37:54Z</time>
      </trkpt>
      <trkpt lat="47.64894" lon="-2.79854">
        <ele>8.6</ele>
        <time>2021-08-05T09:37:56Z</time>
      </trkpt>
      <trkpt lat="47.64894" lon="-2.79851">
        <ele>8.4</ele>
        <time>2021-08-05T09:37:57Z</time>
      </trkpt>
      <trkpt lat="47.64894" lon="-2.79849">
        <ele>8</ele>
        <time>2021-08-05T09:37:58Z</time>
      </trkpt>
      <trkpt lat="47.64894" lon="-2.79846">
        <ele>7.8</ele>
        <time>2021-08-05T09:37:59Z</time>
      </trkpt>
      <trkpt lat="47.64895" lon="-2.79843">
        <ele>7.8</ele>
        <time>2021-08-05T09:38:01Z</time>
      </trkpt>
      <trkpt lat="47.64896" lon="-2.79841">
        <ele>7.6</ele>
        <time>2021-08-05T09:38:03Z</time>
      </trkpt>
      <trkpt lat="47.64896" lon="-2.79841">
        <ele>7.6</ele>
        <time>2021-08-05T09:38:04Z</time>
      </trkpt>
      <trkpt lat="47.64898" lon="-2.79838">
        <ele>7.6</ele>
        <time>2021-08-05T09:38:08Z</time>
      </trkpt>
      <trkpt lat="47.64899" lon="-2.79836">
        <ele>7.6</ele>
        <time>2021-08-05T09:38:09Z</time>
      </trkpt>
      <trkpt lat="47.64901" lon="-2.79833">
        <ele>7.6</ele>
        <time>2021-08-05T09:38:11Z</time>
      </trkpt>
      <trkpt lat="47.64901" lon="-2.79831">
        <ele>7.6</ele>
        <time>2021-08-05T09:38:12Z</time>
      </trkpt>
      <trkpt lat="47.64903" lon="-2.79827">
        <ele>7.6</ele>
        <time>2021-08-05T09:38:14Z</time>
      </trkpt>
      <trkpt lat="47.64904" lon="-2.79824">
        <ele>7.6</ele>
        <time>2021-08-05T09:38:15Z</time>
      </trkpt>
      <trkpt lat="47.64905" lon="-2.7982">
        <ele>7.6</ele>
        <time>2021-08-05T09:38:16Z</time>
      </trkpt>
      <trkpt lat="47.64906" lon="-2.79811">
        <ele>7.6</ele>
        <time>2021-08-05T09:38:18Z</time>
      </trkpt>
      <trkpt lat="47.64908" lon="-2.79801">
        <ele>7.6</ele>
        <time>2021-08-05T09:38:20Z</time>
      </trkpt>
      <trkpt lat="47.64909" lon="-2.79795">
        <ele>7.6</ele>
        <time>2021-08-05T09:38:21Z</time>
      </trkpt>
      <trkpt lat="47.64912" lon="-2.79783">
        <ele>7.6</ele>
        <time>2021-08-05T09:38:23Z</time>
      </trkpt>
      <trkpt lat="47.64914" lon="-2.79771">
        <ele>7.4</ele>
        <time>2021-08-05T09:38:25Z</time>
      </trkpt>
      <trkpt lat="47.64916" lon="-2.79758">
        <ele>7.4</ele>
        <time>2021-08-05T09:38:27Z</time>
      </trkpt>
      <trkpt lat="47.64919" lon="-2.79748">
        <ele>7.4</ele>
        <time>2021-08-05T09:38:29Z</time>
      </trkpt>
      <trkpt lat="47.6492" lon="-2.79743">
        <ele>7.4</ele>
        <time>2021-08-05T09:38:30Z</time>
      </trkpt>
      <trkpt lat="47.64921" lon="-2.79736">
        <ele>7.2</ele>
        <time>2021-08-05T09:38:32Z</time>
      </trkpt>
      <trkpt lat="47.64923" lon="-2.79729">
        <ele>7.2</ele>
        <time>2021-08-05T09:38:34Z</time>
      </trkpt>
      <trkpt lat="47.64923" lon="-2.79725">
        <ele>7.4</ele>
        <time>2021-08-05T09:38:35Z</time>
      </trkpt>
      <trkpt lat="47.64924" lon="-2.79722">
        <ele>7.6</ele>
        <time>2021-08-05T09:38:36Z</time>
      </trkpt>
      <trkpt lat="47.64924" lon="-2.79716">
        <ele>7.8</ele>
        <time>2021-08-05T09:38:38Z</time>
      </trkpt>
      <trkpt lat="47.64925" lon="-2.79713">
        <ele>8</ele>
        <time>2021-08-05T09:38:39Z</time>
      </trkpt>
      <trkpt lat="47.64925" lon="-2.79708">
        <ele>8.4</ele>
        <time>2021-08-05T09:38:41Z</time>
      </trkpt>
      <trkpt lat="47.64925" lon="-2.79706">
        <ele>8.8</ele>
        <time>2021-08-05T09:38:42Z</time>
      </trkpt>
      <trkpt lat="47.64926" lon="-2.79703">
        <ele>9</ele>
        <time>2021-08-05T09:38:43Z</time>
      </trkpt>
      <trkpt lat="47.64926" lon="-2.79699">
        <ele>9</ele>
        <time>2021-08-05T09:38:44Z</time>
      </trkpt>
      <trkpt lat="47.64926" lon="-2.79696">
        <ele>9.4</ele>
        <time>2021-08-05T09:38:45Z</time>
      </trkpt>
      <trkpt lat="47.64926" lon="-2.7969">
        <ele>10</ele>
        <time>2021-08-05T09:38:47Z</time>
      </trkpt>
      <trkpt lat="47.64926" lon="-2.79687">
        <ele>10</ele>
        <time>2021-08-05T09:38:48Z</time>
      </trkpt>
      <trkpt lat="47.64927" lon="-2.79684">
        <ele>10.2</ele>
        <time>2021-08-05T09:38:49Z</time>
      </trkpt>
      <trkpt lat="47.64927" lon="-2.79681">
        <ele>10.4</ele>
        <time>2021-08-05T09:38:50Z</time>
      </trkpt>
      <trkpt lat="47.64927" lon="-2.79675">
        <ele>10.8</ele>
        <time>2021-08-05T09:38:52Z</time>
      </trkpt>
      <trkpt lat="47.64928" lon="-2.79669">
        <ele>11.2</ele>
        <time>2021-08-05T09:38:54Z</time>
      </trkpt>
      <trkpt lat="47.64929" lon="-2.79665">
        <ele>11.4</ele>
        <time>2021-08-05T09:38:55Z</time>
      </trkpt>
      <trkpt lat="47.6493" lon="-2.79659">
        <ele>11.8</ele>
        <time>2021-08-05T09:38:57Z</time>
      </trkpt>
      <trkpt lat="47.6493" lon="-2.79656">
        <ele>12</ele>
        <time>2021-08-05T09:38:58Z</time>
      </trkpt>
      <trkpt lat="47.64931" lon="-2.79652">
        <ele>12</ele>
        <time>2021-08-05T09:38:59Z</time>
      </trkpt>
      <trkpt lat="47.64931" lon="-2.79649">
        <ele>12.2</ele>
        <time>2021-08-05T09:39:00Z</time>
      </trkpt>
      <trkpt lat="47.64931" lon="-2.79645">
        <ele>12.4</ele>
        <time>2021-08-05T09:39:01Z</time>
      </trkpt>
      <trkpt lat="47.64931" lon="-2.79643">
        <ele>12.6</ele>
        <time>2021-08-05T09:39:02Z</time>
      </trkpt>
      <trkpt lat="47.64931" lon="-2.7964">
        <ele>12.6</ele>
        <time>2021-08-05T09:39:03Z</time>
      </trkpt>
      <trkpt lat="47.64932" lon="-2.79635">
        <ele>12.8</ele>
        <time>2021-08-05T09:39:05Z</time>
      </trkpt>
      <trkpt lat="47.64933" lon="-2.79629">
        <ele>13</ele>
        <time>2021-08-05T09:39:07Z</time>
      </trkpt>
      <trkpt lat="47.64933" lon="-2.79624">
        <ele>13.2</ele>
        <time>2021-08-05T09:39:09Z</time>
      </trkpt>
      <trkpt lat="47.64934" lon="-2.79621">
        <ele>13.4</ele>
        <time>2021-08-05T09:39:10Z</time>
      </trkpt>
      <trkpt lat="47.64934" lon="-2.79619">
        <ele>13.4</ele>
        <time>2021-08-05T09:39:11Z</time>
      </trkpt>
      <trkpt lat="47.64935" lon="-2.79616">
        <ele>13.6</ele>
        <time>2021-08-05T09:39:12Z</time>
      </trkpt>
      <trkpt lat="47.64937" lon="-2.7961">
        <ele>14</ele>
        <time>2021-08-05T09:39:14Z</time>
      </trkpt>
      <trkpt lat="47.64937" lon="-2.79604">
        <ele>14.2</ele>
        <time>2021-08-05T09:39:16Z</time>
      </trkpt>
      <trkpt lat="47.64938" lon="-2.79601">
        <ele>14.4</ele>
        <time>2021-08-05T09:39:17Z</time>
      </trkpt>
      <trkpt lat="47.64939" lon="-2.79598">
        <ele>14.4</ele>
        <time>2021-08-05T09:39:18Z</time>
      </trkpt>
      <trkpt lat="47.64939" lon="-2.79595">
        <ele>14.6</ele>
        <time>2021-08-05T09:39:19Z</time>
      </trkpt>
      <trkpt lat="47.64942" lon="-2.79589">
        <ele>15</ele>
        <time>2021-08-05T09:39:21Z</time>
      </trkpt>
      <trkpt lat="47.64943" lon="-2.79583">
        <ele>15.4</ele>
        <time>2021-08-05T09:39:23Z</time>
      </trkpt>
      <trkpt lat="47.64944" lon="-2.7958">
        <ele>15.6</ele>
        <time>2021-08-05T09:39:24Z</time>
      </trkpt>
      <trkpt lat="47.64946" lon="-2.79574">
        <ele>16</ele>
        <time>2021-08-05T09:39:26Z</time>
      </trkpt>
      <trkpt lat="47.64947" lon="-2.79568">
        <ele>16.4</ele>
        <time>2021-08-05T09:39:28Z</time>
      </trkpt>
      <trkpt lat="47.64948" lon="-2.79566">
        <ele>16.6</ele>
        <time>2021-08-05T09:39:29Z</time>
      </trkpt>
      <trkpt lat="47.64948" lon="-2.79563">
        <ele>16.8</ele>
        <time>2021-08-05T09:39:30Z</time>
      </trkpt>
      <trkpt lat="47.64949" lon="-2.7956">
        <ele>17</ele>
        <time>2021-08-05T09:39:31Z</time>
      </trkpt>
      <trkpt lat="47.64952" lon="-2.79554">
        <ele>17.2</ele>
        <time>2021-08-05T09:39:33Z</time>
      </trkpt>
      <trkpt lat="47.64954" lon="-2.79548">
        <ele>17.4</ele>
        <time>2021-08-05T09:39:35Z</time>
      </trkpt>
      <trkpt lat="47.64956" lon="-2.79542">
        <ele>17.6</ele>
        <time>2021-08-05T09:39:37Z</time>
      </trkpt>
      <trkpt lat="47.64957" lon="-2.79539">
        <ele>17.8</ele>
        <time>2021-08-05T09:39:38Z</time>
      </trkpt>
      <trkpt lat="47.64958" lon="-2.79533">
        <ele>18</ele>
        <time>2021-08-05T09:39:40Z</time>
      </trkpt>
      <trkpt lat="47.6496" lon="-2.79527">
        <ele>18.2</ele>
        <time>2021-08-05T09:39:42Z</time>
      </trkpt>
      <trkpt lat="47.64962" lon="-2.79521">
        <ele>18.6</ele>
        <time>2021-08-05T09:39:44Z</time>
      </trkpt>
      <trkpt lat="47.64963" lon="-2.79519">
        <ele>18.8</ele>
        <time>2021-08-05T09:39:45Z</time>
      </trkpt>
      <trkpt lat="47.64964" lon="-2.79513">
        <ele>19.2</ele>
        <time>2021-08-05T09:39:47Z</time>
      </trkpt>
      <trkpt lat="47.64965" lon="-2.7951">
        <ele>19.6</ele>
        <time>2021-08-05T09:39:48Z</time>
      </trkpt>
      <trkpt lat="47.64966" lon="-2.79507">
        <ele>19.8</ele>
        <time>2021-08-05T09:39:49Z</time>
      </trkpt>
      <trkpt lat="47.64969" lon="-2.795">
        <ele>20</ele>
        <time>2021-08-05T09:39:51Z</time>
      </trkpt>
      <trkpt lat="47.6497" lon="-2.79497">
        <ele>20.2</ele>
        <time>2021-08-05T09:39:52Z</time>
      </trkpt>
      <trkpt lat="47.64972" lon="-2.79491">
        <ele>20.6</ele>
        <time>2021-08-05T09:39:54Z</time>
      </trkpt>
      <trkpt lat="47.64974" lon="-2.79485">
        <ele>20.6</ele>
        <time>2021-08-05T09:39:56Z</time>
      </trkpt>
      <trkpt lat="47.64975" lon="-2.79482">
        <ele>20.8</ele>
        <time>2021-08-05T09:39:57Z</time>
      </trkpt>
      <trkpt lat="47.64977" lon="-2.79475">
        <ele>21</ele>
        <time>2021-08-05T09:39:59Z</time>
      </trkpt>
      <trkpt lat="47.64979" lon="-2.79469">
        <ele>21.2</ele>
        <time>2021-08-05T09:40:01Z</time>
      </trkpt>
      <trkpt lat="47.64981" lon="-2.79462">
        <ele>21.6</ele>
        <time>2021-08-05T09:40:03Z</time>
      </trkpt>
      <trkpt lat="47.64982" lon="-2.79459">
        <ele>22</ele>
        <time>2021-08-05T09:40:04Z</time>
      </trkpt>
      <trkpt lat="47.64983" lon="-2.79452">
        <ele>22.4</ele>
        <time>2021-08-05T09:40:06Z</time>
      </trkpt>
      <trkpt lat="47.64986" lon="-2.79446">
        <ele>22.6</ele>
        <time>2021-08-05T09:40:08Z</time>
      </trkpt>
      <trkpt lat="47.64987" lon="-2.79442">
        <ele>22.8</ele>
        <time>2021-08-05T09:40:09Z</time>
      </trkpt>
      <trkpt lat="47.64989" lon="-2.79438">
        <ele>23</ele>
        <time>2021-08-05T09:40:10Z</time>
      </trkpt>
      <trkpt lat="47.6499" lon="-2.79435">
        <ele>23.2</ele>
        <time>2021-08-05T09:40:11Z</time>
      </trkpt>
      <trkpt lat="47.64992" lon="-2.79427">
        <ele>23.4</ele>
        <time>2021-08-05T09:40:13Z</time>
      </trkpt>
      <trkpt lat="47.64993" lon="-2.79423">
        <ele>23.4</ele>
        <time>2021-08-05T09:40:14Z</time>
      </trkpt>
      <trkpt lat="47.64994" lon="-2.7942">
        <ele>23.4</ele>
        <time>2021-08-05T09:40:15Z</time>
      </trkpt>
      <trkpt lat="47.64996" lon="-2.79416">
        <ele>23.4</ele>
        <time>2021-08-05T09:40:16Z</time>
      </trkpt>
      <trkpt lat="47.64998" lon="-2.79407">
        <ele>23.6</ele>
        <time>2021-08-05T09:40:18Z</time>
      </trkpt>
      <trkpt lat="47.65001" lon="-2.79398">
        <ele>23.6</ele>
        <time>2021-08-05T09:40:20Z</time>
      </trkpt>
      <trkpt lat="47.65002" lon="-2.79394">
        <ele>23.6</ele>
        <time>2021-08-05T09:40:21Z</time>
      </trkpt>
      <trkpt lat="47.65005" lon="-2.79383">
        <ele>23.6</ele>
        <time>2021-08-05T09:40:23Z</time>
      </trkpt>
      <trkpt lat="47.65008" lon="-2.79372">
        <ele>23.8</ele>
        <time>2021-08-05T09:40:25Z</time>
      </trkpt>
      <trkpt lat="47.65012" lon="-2.79359">
        <ele>23.8</ele>
        <time>2021-08-05T09:40:27Z</time>
      </trkpt>
      <trkpt lat="47.65014" lon="-2.79352">
        <ele>23.8</ele>
        <time>2021-08-05T09:40:28Z</time>
      </trkpt>
      <trkpt lat="47.65018" lon="-2.79337">
        <ele>23.8</ele>
        <time>2021-08-05T09:40:30Z</time>
      </trkpt>
      <trkpt lat="47.6502" lon="-2.7933">
        <ele>23.8</ele>
        <time>2021-08-05T09:40:31Z</time>
      </trkpt>
      <trkpt lat="47.65025" lon="-2.79314">
        <ele>23.8</ele>
        <time>2021-08-05T09:40:33Z</time>
      </trkpt>
      <trkpt lat="47.6503" lon="-2.79297">
        <ele>23.6</ele>
        <time>2021-08-05T09:40:35Z</time>
      </trkpt>
      <trkpt lat="47.65032" lon="-2.79288">
        <ele>23.6</ele>
        <time>2021-08-05T09:40:36Z</time>
      </trkpt>
      <trkpt lat="47.65038" lon="-2.79271">
        <ele>23.4</ele>
        <time>2021-08-05T09:40:38Z</time>
      </trkpt>
      <trkpt lat="47.6504" lon="-2.79262">
        <ele>23.2</ele>
        <time>2021-08-05T09:40:39Z</time>
      </trkpt>
      <trkpt lat="47.65045" lon="-2.79245">
        <ele>22.4</ele>
        <time>2021-08-05T09:40:41Z</time>
      </trkpt>
      <trkpt lat="47.65051" lon="-2.79227">
        <ele>21.6</ele>
        <time>2021-08-05T09:40:43Z</time>
      </trkpt>
      <trkpt lat="47.65054" lon="-2.79218">
        <ele>21.2</ele>
        <time>2021-08-05T09:40:44Z</time>
      </trkpt>
      <trkpt lat="47.65059" lon="-2.792">
        <ele>20.6</ele>
        <time>2021-08-05T09:40:46Z</time>
      </trkpt>
      <trkpt lat="47.65062" lon="-2.79191">
        <ele>20.4</ele>
        <time>2021-08-05T09:40:47Z</time>
      </trkpt>
      <trkpt lat="47.65065" lon="-2.79182">
        <ele>20.2</ele>
        <time>2021-08-05T09:40:48Z</time>
      </trkpt>
      <trkpt lat="47.65068" lon="-2.79173">
        <ele>20</ele>
        <time>2021-08-05T09:40:49Z</time>
      </trkpt>
      <trkpt lat="47.65074" lon="-2.79156">
        <ele>19.8</ele>
        <time>2021-08-05T09:40:51Z</time>
      </trkpt>
      <trkpt lat="47.65077" lon="-2.79147">
        <ele>19.6</ele>
        <time>2021-08-05T09:40:52Z</time>
      </trkpt>
      <trkpt lat="47.65079" lon="-2.79139">
        <ele>19.4</ele>
        <time>2021-08-05T09:40:53Z</time>
      </trkpt>
      <trkpt lat="47.65082" lon="-2.79131">
        <ele>19.2</ele>
        <time>2021-08-05T09:40:54Z</time>
      </trkpt>
      <trkpt lat="47.65086" lon="-2.79114">
        <ele>19</ele>
        <time>2021-08-05T09:40:56Z</time>
      </trkpt>
      <trkpt lat="47.6509" lon="-2.79098">
        <ele>18.8</ele>
        <time>2021-08-05T09:40:58Z</time>
      </trkpt>
      <trkpt lat="47.65096" lon="-2.79082">
        <ele>18.6</ele>
        <time>2021-08-05T09:41:00Z</time>
      </trkpt>
      <trkpt lat="47.65101" lon="-2.79067">
        <ele>18.6</ele>
        <time>2021-08-05T09:41:02Z</time>
      </trkpt>
      <trkpt lat="47.65103" lon="-2.79059">
        <ele>18.6</ele>
        <time>2021-08-05T09:41:03Z</time>
      </trkpt>
      <trkpt lat="47.65106" lon="-2.79051">
        <ele>18.4</ele>
        <time>2021-08-05T09:41:04Z</time>
      </trkpt>
      <trkpt lat="47.65111" lon="-2.79035">
        <ele>18.4</ele>
        <time>2021-08-05T09:41:06Z</time>
      </trkpt>
      <trkpt lat="47.65116" lon="-2.7902">
        <ele>18.4</ele>
        <time>2021-08-05T09:41:08Z</time>
      </trkpt>
      <trkpt lat="47.65121" lon="-2.79005">
        <ele>18.4</ele>
        <time>2021-08-05T09:41:10Z</time>
      </trkpt>
      <trkpt lat="47.65126" lon="-2.7899">
        <ele>18.4</ele>
        <time>2021-08-05T09:41:12Z</time>
      </trkpt>
      <trkpt lat="47.65128" lon="-2.78983">
        <ele>18.6</ele>
        <time>2021-08-05T09:41:13Z</time>
      </trkpt>
      <trkpt lat="47.6513" lon="-2.78976">
        <ele>18.6</ele>
        <time>2021-08-05T09:41:14Z</time>
      </trkpt>
      <trkpt lat="47.65134" lon="-2.78961">
        <ele>18.6</ele>
        <time>2021-08-05T09:41:16Z</time>
      </trkpt>
      <trkpt lat="47.65138" lon="-2.78948">
        <ele>19</ele>
        <time>2021-08-05T09:41:18Z</time>
      </trkpt>
      <trkpt lat="47.65142" lon="-2.78934">
        <ele>19.2</ele>
        <time>2021-08-05T09:41:20Z</time>
      </trkpt>
      <trkpt lat="47.65144" lon="-2.78928">
        <ele>19.2</ele>
        <time>2021-08-05T09:41:21Z</time>
      </trkpt>
      <trkpt lat="47.65146" lon="-2.78921">
        <ele>19.2</ele>
        <time>2021-08-05T09:41:22Z</time>
      </trkpt>
      <trkpt lat="47.65149" lon="-2.78908">
        <ele>19.4</ele>
        <time>2021-08-05T09:41:24Z</time>
      </trkpt>
      <trkpt lat="47.65151" lon="-2.78896">
        <ele>19.6</ele>
        <time>2021-08-05T09:41:26Z</time>
      </trkpt>
      <trkpt lat="47.65154" lon="-2.78883">
        <ele>19.8</ele>
        <time>2021-08-05T09:41:28Z</time>
      </trkpt>
      <trkpt lat="47.65156" lon="-2.78871">
        <ele>20.2</ele>
        <time>2021-08-05T09:41:30Z</time>
      </trkpt>
      <trkpt lat="47.6516" lon="-2.7886">
        <ele>20.4</ele>
        <time>2021-08-05T09:41:32Z</time>
      </trkpt>
      <trkpt lat="47.65162" lon="-2.78854">
        <ele>20.4</ele>
        <time>2021-08-05T09:41:33Z</time>
      </trkpt>
      <trkpt lat="47.65163" lon="-2.78849">
        <ele>20.4</ele>
        <time>2021-08-05T09:41:34Z</time>
      </trkpt>
      <trkpt lat="47.65166" lon="-2.78839">
        <ele>20.6</ele>
        <time>2021-08-05T09:41:36Z</time>
      </trkpt>
      <trkpt lat="47.65167" lon="-2.78831">
        <ele>21.2</ele>
        <time>2021-08-05T09:41:38Z</time>
      </trkpt>
      <trkpt lat="47.65168" lon="-2.78827">
        <ele>21.4</ele>
        <time>2021-08-05T09:41:40Z</time>
      </trkpt>
      <trkpt lat="47.65168" lon="-2.78825">
        <ele>21.6</ele>
        <time>2021-08-05T09:41:41Z</time>
      </trkpt>
      <trkpt lat="47.65168" lon="-2.78824">
        <ele>21.6</ele>
        <time>2021-08-05T09:41:42Z</time>
      </trkpt>
      <trkpt lat="47.65167" lon="-2.78821">
        <ele>22</ele>
        <time>2021-08-05T09:41:44Z</time>
      </trkpt>
      <trkpt lat="47.65167" lon="-2.78819">
        <ele>22.4</ele>
        <time>2021-08-05T09:41:45Z</time>
      </trkpt>
      <trkpt lat="47.65168" lon="-2.78817">
        <ele>22.6</ele>
        <time>2021-08-05T09:41:46Z</time>
      </trkpt>
      <trkpt lat="47.65169" lon="-2.78815">
        <ele>23</ele>
        <time>2021-08-05T09:41:47Z</time>
      </trkpt>
      <trkpt lat="47.6517" lon="-2.78812">
        <ele>23.2</ele>
        <time>2021-08-05T09:41:48Z</time>
      </trkpt>
      <trkpt lat="47.65171" lon="-2.78806">
        <ele>23.6</ele>
        <time>2021-08-05T09:41:50Z</time>
      </trkpt>
      <trkpt lat="47.65172" lon="-2.78802">
        <ele>23.6</ele>
        <time>2021-08-05T09:41:51Z</time>
      </trkpt>
      <trkpt lat="47.65174" lon="-2.78799">
        <ele>23.6</ele>
        <time>2021-08-05T09:41:52Z</time>
      </trkpt>
      <trkpt lat="47.65176" lon="-2.78796">
        <ele>23.8</ele>
        <time>2021-08-05T09:41:53Z</time>
      </trkpt>
      <trkpt lat="47.65178" lon="-2.78793">
        <ele>23.8</ele>
        <time>2021-08-05T09:41:54Z</time>
      </trkpt>
      <trkpt lat="47.6518" lon="-2.78789">
        <ele>24</ele>
        <time>2021-08-05T09:41:55Z</time>
      </trkpt>
      <trkpt lat="47.65182" lon="-2.78784">
        <ele>24</ele>
        <time>2021-08-05T09:41:56Z</time>
      </trkpt>
      <trkpt lat="47.65183" lon="-2.78779">
        <ele>24.2</ele>
        <time>2021-08-05T09:41:57Z</time>
      </trkpt>
      <trkpt lat="47.65186" lon="-2.78769">
        <ele>24.2</ele>
        <time>2021-08-05T09:41:59Z</time>
      </trkpt>
      <trkpt lat="47.65187" lon="-2.78763">
        <ele>24.2</ele>
        <time>2021-08-05T09:42:00Z</time>
      </trkpt>
      <trkpt lat="47.65191" lon="-2.78753">
        <ele>24.4</ele>
        <time>2021-08-05T09:42:02Z</time>
      </trkpt>
      <trkpt lat="47.65193" lon="-2.78748">
        <ele>24.4</ele>
        <time>2021-08-05T09:42:03Z</time>
      </trkpt>
      <trkpt lat="47.65195" lon="-2.78743">
        <ele>24.4</ele>
        <time>2021-08-05T09:42:04Z</time>
      </trkpt>
      <trkpt lat="47.65199" lon="-2.78734">
        <ele>24.6</ele>
        <time>2021-08-05T09:42:06Z</time>
      </trkpt>
      <trkpt lat="47.65201" lon="-2.78729">
        <ele>24.6</ele>
        <time>2021-08-05T09:42:07Z</time>
      </trkpt>
      <trkpt lat="47.65204" lon="-2.78719">
        <ele>24.8</ele>
        <time>2021-08-05T09:42:09Z</time>
      </trkpt>
      <trkpt lat="47.65207" lon="-2.78709">
        <ele>24.8</ele>
        <time>2021-08-05T09:42:11Z</time>
      </trkpt>
      <trkpt lat="47.65209" lon="-2.78704">
        <ele>24.8</ele>
        <time>2021-08-05T09:42:12Z</time>
      </trkpt>
      <trkpt lat="47.6521" lon="-2.787">
        <ele>25</ele>
        <time>2021-08-05T09:42:13Z</time>
      </trkpt>
      <trkpt lat="47.65212" lon="-2.78695">
        <ele>25</ele>
        <time>2021-08-05T09:42:14Z</time>
      </trkpt>
      <trkpt lat="47.65215" lon="-2.78686">
        <ele>25.2</ele>
        <time>2021-08-05T09:42:16Z</time>
      </trkpt>
      <trkpt lat="47.65216" lon="-2.78681">
        <ele>25.4</ele>
        <time>2021-08-05T09:42:17Z</time>
      </trkpt>
      <trkpt lat="47.65218" lon="-2.78676">
        <ele>25.4</ele>
        <time>2021-08-05T09:42:18Z</time>
      </trkpt>
      <trkpt lat="47.65219" lon="-2.78671">
        <ele>25.4</ele>
        <time>2021-08-05T09:42:19Z</time>
      </trkpt>
      <trkpt lat="47.6522" lon="-2.78666">
        <ele>25.4</ele>
        <time>2021-08-05T09:42:20Z</time>
      </trkpt>
      <trkpt lat="47.65222" lon="-2.78661">
        <ele>25.4</ele>
        <time>2021-08-05T09:42:21Z</time>
      </trkpt>
      <trkpt lat="47.65223" lon="-2.78656">
        <ele>25.4</ele>
        <time>2021-08-05T09:42:22Z</time>
      </trkpt>
      <trkpt lat="47.65225" lon="-2.7865">
        <ele>25.6</ele>
        <time>2021-08-05T09:42:23Z</time>
      </trkpt>
      <trkpt lat="47.65226" lon="-2.78645">
        <ele>25.6</ele>
        <time>2021-08-05T09:42:24Z</time>
      </trkpt>
      <trkpt lat="47.65228" lon="-2.7864">
        <ele>25.8</ele>
        <time>2021-08-05T09:42:25Z</time>
      </trkpt>
      <trkpt lat="47.65231" lon="-2.78629">
        <ele>26.4</ele>
        <time>2021-08-05T09:42:27Z</time>
      </trkpt>
      <trkpt lat="47.65233" lon="-2.78623">
        <ele>26.4</ele>
        <time>2021-08-05T09:42:28Z</time>
      </trkpt>
      <trkpt lat="47.65234" lon="-2.78618">
        <ele>26.4</ele>
        <time>2021-08-05T09:42:29Z</time>
      </trkpt>
      <trkpt lat="47.65235" lon="-2.78612">
        <ele>26.6</ele>
        <time>2021-08-05T09:42:30Z</time>
      </trkpt>
      <trkpt lat="47.65237" lon="-2.78607">
        <ele>26.6</ele>
        <time>2021-08-05T09:42:31Z</time>
      </trkpt>
      <trkpt lat="47.65238" lon="-2.78602">
        <ele>26.6</ele>
        <time>2021-08-05T09:42:32Z</time>
      </trkpt>
      <trkpt lat="47.6524" lon="-2.78596">
        <ele>26.8</ele>
        <time>2021-08-05T09:42:33Z</time>
      </trkpt>
      <trkpt lat="47.65242" lon="-2.78591">
        <ele>26.8</ele>
        <time>2021-08-05T09:42:34Z</time>
      </trkpt>
      <trkpt lat="47.65243" lon="-2.78585">
        <ele>26.8</ele>
        <time>2021-08-05T09:42:35Z</time>
      </trkpt>
      <trkpt lat="47.65246" lon="-2.78572">
        <ele>26.8</ele>
        <time>2021-08-05T09:42:37Z</time>
      </trkpt>
      <trkpt lat="47.65248" lon="-2.78566">
        <ele>27</ele>
        <time>2021-08-05T09:42:38Z</time>
      </trkpt>
      <trkpt lat="47.6525" lon="-2.78559">
        <ele>27</ele>
        <time>2021-08-05T09:42:39Z</time>
      </trkpt>
      <trkpt lat="47.65251" lon="-2.78553">
        <ele>27</ele>
        <time>2021-08-05T09:42:40Z</time>
      </trkpt>
      <trkpt lat="47.65253" lon="-2.78547">
        <ele>27.2</ele>
        <time>2021-08-05T09:42:41Z</time>
      </trkpt>
      <trkpt lat="47.65254" lon="-2.78541">
        <ele>27.2</ele>
        <time>2021-08-05T09:42:42Z</time>
      </trkpt>
      <trkpt lat="47.65256" lon="-2.78535">
        <ele>27.2</ele>
        <time>2021-08-05T09:42:43Z</time>
      </trkpt>
      <trkpt lat="47.65258" lon="-2.78528">
        <ele>27.2</ele>
        <time>2021-08-05T09:42:44Z</time>
      </trkpt>
      <trkpt lat="47.65259" lon="-2.78522">
        <ele>27.2</ele>
        <time>2021-08-05T09:42:45Z</time>
      </trkpt>
      <trkpt lat="47.65261" lon="-2.78516">
        <ele>27.4</ele>
        <time>2021-08-05T09:42:46Z</time>
      </trkpt>
      <trkpt lat="47.65264" lon="-2.78503">
        <ele>27.4</ele>
        <time>2021-08-05T09:42:48Z</time>
      </trkpt>
      <trkpt lat="47.65265" lon="-2.78497">
        <ele>27.4</ele>
        <time>2021-08-05T09:42:49Z</time>
      </trkpt>
      <trkpt lat="47.65267" lon="-2.7849">
        <ele>27.4</ele>
        <time>2021-08-05T09:42:50Z</time>
      </trkpt>
      <trkpt lat="47.65268" lon="-2.78484">
        <ele>27.4</ele>
        <time>2021-08-05T09:42:51Z</time>
      </trkpt>
      <trkpt lat="47.6527" lon="-2.78477">
        <ele>27.4</ele>
        <time>2021-08-05T09:42:52Z</time>
      </trkpt>
      <trkpt lat="47.65272" lon="-2.78471">
        <ele>27.4</ele>
        <time>2021-08-05T09:42:53Z</time>
      </trkpt>
      <trkpt lat="47.65272" lon="-2.78466">
        <ele>27.4</ele>
        <time>2021-08-05T09:42:54Z</time>
      </trkpt>
      <trkpt lat="47.65273" lon="-2.78461">
        <ele>27.4</ele>
        <time>2021-08-05T09:42:55Z</time>
      </trkpt>
      <trkpt lat="47.65274" lon="-2.78456">
        <ele>27.4</ele>
        <time>2021-08-05T09:42:56Z</time>
      </trkpt>
      <trkpt lat="47.65275" lon="-2.78451">
        <ele>27.4</ele>
        <time>2021-08-05T09:42:57Z</time>
      </trkpt>
      <trkpt lat="47.65276" lon="-2.78446">
        <ele>27.4</ele>
        <time>2021-08-05T09:42:58Z</time>
      </trkpt>
      <trkpt lat="47.65279" lon="-2.78436">
        <ele>27.4</ele>
        <time>2021-08-05T09:43:00Z</time>
      </trkpt>
      <trkpt lat="47.65281" lon="-2.78431">
        <ele>27.4</ele>
        <time>2021-08-05T09:43:01Z</time>
      </trkpt>
      <trkpt lat="47.65282" lon="-2.78425">
        <ele>27.4</ele>
        <time>2021-08-05T09:43:02Z</time>
      </trkpt>
      <trkpt lat="47.65284" lon="-2.7842">
        <ele>27.4</ele>
        <time>2021-08-05T09:43:03Z</time>
      </trkpt>
      <trkpt lat="47.65285" lon="-2.78415">
        <ele>27.4</ele>
        <time>2021-08-05T09:43:04Z</time>
      </trkpt>
      <trkpt lat="47.65286" lon="-2.7841">
        <ele>27.4</ele>
        <time>2021-08-05T09:43:05Z</time>
      </trkpt>
      <trkpt lat="47.65286" lon="-2.78405">
        <ele>27.4</ele>
        <time>2021-08-05T09:43:06Z</time>
      </trkpt>
      <trkpt lat="47.65286" lon="-2.78399">
        <ele>27.4</ele>
        <time>2021-08-05T09:43:07Z</time>
      </trkpt>
      <trkpt lat="47.65285" lon="-2.78394">
        <ele>27.4</ele>
        <time>2021-08-05T09:43:08Z</time>
      </trkpt>
      <trkpt lat="47.65284" lon="-2.78389">
        <ele>27.4</ele>
        <time>2021-08-05T09:43:09Z</time>
      </trkpt>
      <trkpt lat="47.6528" lon="-2.7838">
        <ele>27.6</ele>
        <time>2021-08-05T09:43:11Z</time>
      </trkpt>
      <trkpt lat="47.65277" lon="-2.78376">
        <ele>27.6</ele>
        <time>2021-08-05T09:43:12Z</time>
      </trkpt>
      <trkpt lat="47.65274" lon="-2.78372">
        <ele>27.6</ele>
        <time>2021-08-05T09:43:13Z</time>
      </trkpt>
      <trkpt lat="47.6527" lon="-2.7837">
        <ele>27.6</ele>
        <time>2021-08-05T09:43:14Z</time>
      </trkpt>
      <trkpt lat="47.65266" lon="-2.7837">
        <ele>27.6</ele>
        <time>2021-08-05T09:43:15Z</time>
      </trkpt>
      <trkpt lat="47.65262" lon="-2.78369">
        <ele>27.8</ele>
        <time>2021-08-05T09:43:16Z</time>
      </trkpt>
      <trkpt lat="47.65259" lon="-2.78368">
        <ele>27.8</ele>
        <time>2021-08-05T09:43:17Z</time>
      </trkpt>
      <trkpt lat="47.65256" lon="-2.78368">
        <ele>27.8</ele>
        <time>2021-08-05T09:43:18Z</time>
      </trkpt>
      <trkpt lat="47.65253" lon="-2.78368">
        <ele>28</ele>
        <time>2021-08-05T09:43:19Z</time>
      </trkpt>
      <trkpt lat="47.6525" lon="-2.78368">
        <ele>28</ele>
        <time>2021-08-05T09:43:20Z</time>
      </trkpt>
      <trkpt lat="47.65247" lon="-2.78367">
        <ele>28.2</ele>
        <time>2021-08-05T09:43:21Z</time>
      </trkpt>
      <trkpt lat="47.65245" lon="-2.78367">
        <ele>28.2</ele>
        <time>2021-08-05T09:43:22Z</time>
      </trkpt>
      <trkpt lat="47.65242" lon="-2.78367">
        <ele>28.4</ele>
        <time>2021-08-05T09:43:23Z</time>
      </trkpt>
      <trkpt lat="47.65239" lon="-2.78367">
        <ele>28.6</ele>
        <time>2021-08-05T09:43:24Z</time>
      </trkpt>
      <trkpt lat="47.65236" lon="-2.78368">
        <ele>28.6</ele>
        <time>2021-08-05T09:43:25Z</time>
      </trkpt>
      <trkpt lat="47.65233" lon="-2.78368">
        <ele>28.8</ele>
        <time>2021-08-05T09:43:26Z</time>
      </trkpt>
      <trkpt lat="47.65229" lon="-2.78368">
        <ele>29</ele>
        <time>2021-08-05T09:43:27Z</time>
      </trkpt>
      <trkpt lat="47.65225" lon="-2.78368">
        <ele>29</ele>
        <time>2021-08-05T09:43:28Z</time>
      </trkpt>
      <trkpt lat="47.65221" lon="-2.78369">
        <ele>29.2</ele>
        <time>2021-08-05T09:43:29Z</time>
      </trkpt>
      <trkpt lat="47.65217" lon="-2.78369">
        <ele>29.4</ele>
        <time>2021-08-05T09:43:30Z</time>
      </trkpt>
      <trkpt lat="47.65209" lon="-2.78368">
        <ele>29.4</ele>
        <time>2021-08-05T09:43:32Z</time>
      </trkpt>
      <trkpt lat="47.65205" lon="-2.78368">
        <ele>29.4</ele>
        <time>2021-08-05T09:43:33Z</time>
      </trkpt>
      <trkpt lat="47.65202" lon="-2.78368">
        <ele>29.6</ele>
        <time>2021-08-05T09:43:34Z</time>
      </trkpt>
      <trkpt lat="47.65198" lon="-2.78366">
        <ele>29.6</ele>
        <time>2021-08-05T09:43:35Z</time>
      </trkpt>
      <trkpt lat="47.65194" lon="-2.78364">
        <ele>29.8</ele>
        <time>2021-08-05T09:43:36Z</time>
      </trkpt>
      <trkpt lat="47.6519" lon="-2.78363">
        <ele>30</ele>
        <time>2021-08-05T09:43:37Z</time>
      </trkpt>
      <trkpt lat="47.65186" lon="-2.78361">
        <ele>30</ele>
        <time>2021-08-05T09:43:38Z</time>
      </trkpt>
      <trkpt lat="47.65183" lon="-2.78359">
        <ele>30</ele>
        <time>2021-08-05T09:43:39Z</time>
      </trkpt>
      <trkpt lat="47.6518" lon="-2.78357">
        <ele>30.2</ele>
        <time>2021-08-05T09:43:40Z</time>
      </trkpt>
      <trkpt lat="47.65176" lon="-2.78355">
        <ele>30.4</ele>
        <time>2021-08-05T09:43:41Z</time>
      </trkpt>
      <trkpt lat="47.65169" lon="-2.78353">
        <ele>30.4</ele>
        <time>2021-08-05T09:43:43Z</time>
      </trkpt>
      <trkpt lat="47.65166" lon="-2.78352">
        <ele>30.6</ele>
        <time>2021-08-05T09:43:44Z</time>
      </trkpt>
      <trkpt lat="47.65162" lon="-2.78352">
        <ele>30.8</ele>
        <time>2021-08-05T09:43:45Z</time>
      </trkpt>
      <trkpt lat="47.65159" lon="-2.78352">
        <ele>31</ele>
        <time>2021-08-05T09:43:46Z</time>
      </trkpt>
      <trkpt lat="47.65156" lon="-2.78352">
        <ele>31.2</ele>
        <time>2021-08-05T09:43:47Z</time>
      </trkpt>
      <trkpt lat="47.65153" lon="-2.78353">
        <ele>31.4</ele>
        <time>2021-08-05T09:43:48Z</time>
      </trkpt>
      <trkpt lat="47.65149" lon="-2.78355">
        <ele>31.4</ele>
        <time>2021-08-05T09:43:49Z</time>
      </trkpt>
      <trkpt lat="47.65146" lon="-2.78356">
        <ele>31.4</ele>
        <time>2021-08-05T09:43:50Z</time>
      </trkpt>
      <trkpt lat="47.65143" lon="-2.78357">
        <ele>31.6</ele>
        <time>2021-08-05T09:43:51Z</time>
      </trkpt>
      <trkpt lat="47.6514" lon="-2.78358">
        <ele>31.8</ele>
        <time>2021-08-05T09:43:52Z</time>
      </trkpt>
      <trkpt lat="47.65137" lon="-2.78357">
        <ele>31.8</ele>
        <time>2021-08-05T09:43:53Z</time>
      </trkpt>
      <trkpt lat="47.65135" lon="-2.78356">
        <ele>32</ele>
        <time>2021-08-05T09:43:54Z</time>
      </trkpt>
      <trkpt lat="47.65134" lon="-2.78355">
        <ele>32</ele>
        <time>2021-08-05T09:43:55Z</time>
      </trkpt>
      <trkpt lat="47.65134" lon="-2.78353">
        <ele>32.2</ele>
        <time>2021-08-05T09:43:56Z</time>
      </trkpt>
      <trkpt lat="47.65134" lon="-2.78352">
        <ele>32.4</ele>
        <time>2021-08-05T09:43:57Z</time>
      </trkpt>
      <trkpt lat="47.65133" lon="-2.78349">
        <ele>32.6</ele>
        <time>2021-08-05T09:43:58Z</time>
      </trkpt>
      <trkpt lat="47.65133" lon="-2.78347">
        <ele>32.6</ele>
        <time>2021-08-05T09:43:59Z</time>
      </trkpt>
      <trkpt lat="47.65132" lon="-2.78345">
        <ele>32.8</ele>
        <time>2021-08-05T09:44:00Z</time>
      </trkpt>
      <trkpt lat="47.65131" lon="-2.78342">
        <ele>32.8</ele>
        <time>2021-08-05T09:44:01Z</time>
      </trkpt>
      <trkpt lat="47.65131" lon="-2.78339">
        <ele>32.8</ele>
        <time>2021-08-05T09:44:02Z</time>
      </trkpt>
      <trkpt lat="47.65131" lon="-2.78337">
        <ele>33</ele>
        <time>2021-08-05T09:44:03Z</time>
      </trkpt>
      <trkpt lat="47.65129" lon="-2.78334">
        <ele>33.2</ele>
        <time>2021-08-05T09:44:05Z</time>
      </trkpt>
      <trkpt lat="47.65129" lon="-2.78334">
        <ele>33.4</ele>
        <time>2021-08-05T09:44:06Z</time>
      </trkpt>
      <trkpt lat="47.65129" lon="-2.78334">
        <ele>33.4</ele>
        <time>2021-08-05T09:44:07Z</time>
      </trkpt>
      <trkpt lat="47.65129" lon="-2.78334">
        <ele>33.6</ele>
        <time>2021-08-05T09:44:08Z</time>
      </trkpt>
      <trkpt lat="47.65128" lon="-2.78331">
        <ele>33.6</ele>
        <time>2021-08-05T09:44:17Z</time>
      </trkpt>
      <trkpt lat="47.65127" lon="-2.78329">
        <ele>33.6</ele>
        <time>2021-08-05T09:44:18Z</time>
      </trkpt>
      <trkpt lat="47.65125" lon="-2.78326">
        <ele>33.6</ele>
        <time>2021-08-05T09:44:19Z</time>
      </trkpt>
      <trkpt lat="47.6512" lon="-2.78322">
        <ele>33.6</ele>
        <time>2021-08-05T09:44:21Z</time>
      </trkpt>
      <trkpt lat="47.65114" lon="-2.78319">
        <ele>33.4</ele>
        <time>2021-08-05T09:44:23Z</time>
      </trkpt>
      <trkpt lat="47.65111" lon="-2.78318">
        <ele>33.2</ele>
        <time>2021-08-05T09:44:24Z</time>
      </trkpt>
      <trkpt lat="47.65108" lon="-2.78317">
        <ele>33</ele>
        <time>2021-08-05T09:44:25Z</time>
      </trkpt>
      <trkpt lat="47.65105" lon="-2.78316">
        <ele>32.8</ele>
        <time>2021-08-05T09:44:26Z</time>
      </trkpt>
      <trkpt lat="47.65102" lon="-2.78315">
        <ele>32.8</ele>
        <time>2021-08-05T09:44:27Z</time>
      </trkpt>
      <trkpt lat="47.65099" lon="-2.78314">
        <ele>32.8</ele>
        <time>2021-08-05T09:44:28Z</time>
      </trkpt>
      <trkpt lat="47.65097" lon="-2.78311">
        <ele>32.6</ele>
        <time>2021-08-05T09:44:29Z</time>
      </trkpt>
      <trkpt lat="47.65094" lon="-2.78307">
        <ele>32.6</ele>
        <time>2021-08-05T09:44:30Z</time>
      </trkpt>
      <trkpt lat="47.65092" lon="-2.78304">
        <ele>32.4</ele>
        <time>2021-08-05T09:44:31Z</time>
      </trkpt>
      <trkpt lat="47.65089" lon="-2.78302">
        <ele>32.4</ele>
        <time>2021-08-05T09:44:32Z</time>
      </trkpt>
      <trkpt lat="47.65083" lon="-2.783">
        <ele>32.4</ele>
        <time>2021-08-05T09:44:34Z</time>
      </trkpt>
      <trkpt lat="47.6508" lon="-2.78299">
        <ele>32.4</ele>
        <time>2021-08-05T09:44:35Z</time>
      </trkpt>
      <trkpt lat="47.65077" lon="-2.78298">
        <ele>32.4</ele>
        <time>2021-08-05T09:44:36Z</time>
      </trkpt>
      <trkpt lat="47.65073" lon="-2.78297">
        <ele>32.4</ele>
        <time>2021-08-05T09:44:37Z</time>
      </trkpt>
      <trkpt lat="47.65069" lon="-2.78296">
        <ele>32.4</ele>
        <time>2021-08-05T09:44:38Z</time>
      </trkpt>
      <trkpt lat="47.65065" lon="-2.78295">
        <ele>32.4</ele>
        <time>2021-08-05T09:44:39Z</time>
      </trkpt>
      <trkpt lat="47.65061" lon="-2.78294">
        <ele>32.4</ele>
        <time>2021-08-05T09:44:40Z</time>
      </trkpt>
      <trkpt lat="47.65057" lon="-2.78293">
        <ele>32.4</ele>
        <time>2021-08-05T09:44:41Z</time>
      </trkpt>
      <trkpt lat="47.65052" lon="-2.78291">
        <ele>32.4</ele>
        <time>2021-08-05T09:44:42Z</time>
      </trkpt>
      <trkpt lat="47.65048" lon="-2.78289">
        <ele>32.4</ele>
        <time>2021-08-05T09:44:43Z</time>
      </trkpt>
      <trkpt lat="47.65038" lon="-2.78286">
        <ele>32.4</ele>
        <time>2021-08-05T09:44:45Z</time>
      </trkpt>
      <trkpt lat="47.65034" lon="-2.78285">
        <ele>32.4</ele>
        <time>2021-08-05T09:44:46Z</time>
      </trkpt>
      <trkpt lat="47.65029" lon="-2.78284">
        <ele>32.4</ele>
        <time>2021-08-05T09:44:47Z</time>
      </trkpt>
      <trkpt lat="47.65024" lon="-2.78282">
        <ele>32.4</ele>
        <time>2021-08-05T09:44:48Z</time>
      </trkpt>
      <trkpt lat="47.65019" lon="-2.7828">
        <ele>32.4</ele>
        <time>2021-08-05T09:44:49Z</time>
      </trkpt>
      <trkpt lat="47.65014" lon="-2.78278">
        <ele>32.6</ele>
        <time>2021-08-05T09:44:50Z</time>
      </trkpt>
      <trkpt lat="47.65009" lon="-2.78276">
        <ele>32.6</ele>
        <time>2021-08-05T09:44:51Z</time>
      </trkpt>
      <trkpt lat="47.65004" lon="-2.78274">
        <ele>32.6</ele>
        <time>2021-08-05T09:44:52Z</time>
      </trkpt>
      <trkpt lat="47.64999" lon="-2.78272">
        <ele>32.6</ele>
        <time>2021-08-05T09:44:53Z</time>
      </trkpt>
      <trkpt lat="47.64994" lon="-2.7827">
        <ele>32.8</ele>
        <time>2021-08-05T09:44:54Z</time>
      </trkpt>
      <trkpt lat="47.64984" lon="-2.78266">
        <ele>33</ele>
        <time>2021-08-05T09:44:56Z</time>
      </trkpt>
      <trkpt lat="47.64978" lon="-2.78264">
        <ele>33</ele>
        <time>2021-08-05T09:44:57Z</time>
      </trkpt>
      <trkpt lat="47.64972" lon="-2.78261">
        <ele>33.2</ele>
        <time>2021-08-05T09:44:58Z</time>
      </trkpt>
      <trkpt lat="47.64967" lon="-2.78259">
        <ele>33.2</ele>
        <time>2021-08-05T09:44:59Z</time>
      </trkpt>
      <trkpt lat="47.64962" lon="-2.78257">
        <ele>33.2</ele>
        <time>2021-08-05T09:45:00Z</time>
      </trkpt>
      <trkpt lat="47.64957" lon="-2.78256">
        <ele>33.4</ele>
        <time>2021-08-05T09:45:01Z</time>
      </trkpt>
      <trkpt lat="47.64952" lon="-2.78253">
        <ele>33.6</ele>
        <time>2021-08-05T09:45:02Z</time>
      </trkpt>
      <trkpt lat="47.64946" lon="-2.78251">
        <ele>33.6</ele>
        <time>2021-08-05T09:45:03Z</time>
      </trkpt>
      <trkpt lat="47.64941" lon="-2.78248">
        <ele>33.8</ele>
        <time>2021-08-05T09:45:04Z</time>
      </trkpt>
      <trkpt lat="47.64936" lon="-2.78245">
        <ele>34</ele>
        <time>2021-08-05T09:45:05Z</time>
      </trkpt>
      <trkpt lat="47.64925" lon="-2.7824">
        <ele>34.4</ele>
        <time>2021-08-05T09:45:07Z</time>
      </trkpt>
      <trkpt lat="47.6492" lon="-2.78238">
        <ele>34.4</ele>
        <time>2021-08-05T09:45:08Z</time>
      </trkpt>
      <trkpt lat="47.64916" lon="-2.78235">
        <ele>34.4</ele>
        <time>2021-08-05T09:45:09Z</time>
      </trkpt>
      <trkpt lat="47.64912" lon="-2.78233">
        <ele>34.6</ele>
        <time>2021-08-05T09:45:10Z</time>
      </trkpt>
      <trkpt lat="47.64908" lon="-2.78231">
        <ele>34.6</ele>
        <time>2021-08-05T09:45:11Z</time>
      </trkpt>
      <trkpt lat="47.64905" lon="-2.7823">
        <ele>34.8</ele>
        <time>2021-08-05T09:45:12Z</time>
      </trkpt>
      <trkpt lat="47.64901" lon="-2.78228">
        <ele>34.8</ele>
        <time>2021-08-05T09:45:13Z</time>
      </trkpt>
      <trkpt lat="47.64897" lon="-2.78226">
        <ele>35</ele>
        <time>2021-08-05T09:45:14Z</time>
      </trkpt>
      <trkpt lat="47.64893" lon="-2.78223">
        <ele>35</ele>
        <time>2021-08-05T09:45:15Z</time>
      </trkpt>
      <trkpt lat="47.64889" lon="-2.78221">
        <ele>35.2</ele>
        <time>2021-08-05T09:45:16Z</time>
      </trkpt>
      <trkpt lat="47.64881" lon="-2.78216">
        <ele>35.4</ele>
        <time>2021-08-05T09:45:18Z</time>
      </trkpt>
      <trkpt lat="47.64876" lon="-2.78215">
        <ele>35.4</ele>
        <time>2021-08-05T09:45:19Z</time>
      </trkpt>
      <trkpt lat="47.64871" lon="-2.78213">
        <ele>35.6</ele>
        <time>2021-08-05T09:45:20Z</time>
      </trkpt>
      <trkpt lat="47.64865" lon="-2.7821">
        <ele>35.6</ele>
        <time>2021-08-05T09:45:21Z</time>
      </trkpt>
      <trkpt lat="47.6486" lon="-2.78207">
        <ele>35.8</ele>
        <time>2021-08-05T09:45:22Z</time>
      </trkpt>
      <trkpt lat="47.64855" lon="-2.78205">
        <ele>35.8</ele>
        <time>2021-08-05T09:45:23Z</time>
      </trkpt>
      <trkpt lat="47.6485" lon="-2.78202">
        <ele>36.2</ele>
        <time>2021-08-05T09:45:24Z</time>
      </trkpt>
      <trkpt lat="47.64844" lon="-2.78198">
        <ele>36.2</ele>
        <time>2021-08-05T09:45:25Z</time>
      </trkpt>
      <trkpt lat="47.64839" lon="-2.78194">
        <ele>36.4</ele>
        <time>2021-08-05T09:45:26Z</time>
      </trkpt>
      <trkpt lat="47.64833" lon="-2.7819">
        <ele>36.8</ele>
        <time>2021-08-05T09:45:27Z</time>
      </trkpt>
      <trkpt lat="47.64824" lon="-2.78184">
        <ele>36.8</ele>
        <time>2021-08-05T09:45:29Z</time>
      </trkpt>
      <trkpt lat="47.64819" lon="-2.78182">
        <ele>36.8</ele>
        <time>2021-08-05T09:45:30Z</time>
      </trkpt>
      <trkpt lat="47.64816" lon="-2.7818">
        <ele>37</ele>
        <time>2021-08-05T09:45:31Z</time>
      </trkpt>
      <trkpt lat="47.64813" lon="-2.78178">
        <ele>37</ele>
        <time>2021-08-05T09:45:32Z</time>
      </trkpt>
      <trkpt lat="47.6481" lon="-2.78175">
        <ele>37</ele>
        <time>2021-08-05T09:45:33Z</time>
      </trkpt>
      <trkpt lat="47.64807" lon="-2.78172">
        <ele>37.2</ele>
        <time>2021-08-05T09:45:34Z</time>
      </trkpt>
      <trkpt lat="47.64803" lon="-2.7817">
        <ele>37.2</ele>
        <time>2021-08-05T09:45:35Z</time>
      </trkpt>
      <trkpt lat="47.648" lon="-2.78168">
        <ele>37.4</ele>
        <time>2021-08-05T09:45:36Z</time>
      </trkpt>
      <trkpt lat="47.64796" lon="-2.78167">
        <ele>37.4</ele>
        <time>2021-08-05T09:45:37Z</time>
      </trkpt>
      <trkpt lat="47.64792" lon="-2.78166">
        <ele>37.6</ele>
        <time>2021-08-05T09:45:38Z</time>
      </trkpt>
      <trkpt lat="47.64787" lon="-2.78164">
        <ele>37.6</ele>
        <time>2021-08-05T09:45:39Z</time>
      </trkpt>
      <trkpt lat="47.64782" lon="-2.78161">
        <ele>37.6</ele>
        <time>2021-08-05T09:45:40Z</time>
      </trkpt>
      <trkpt lat="47.64777" lon="-2.78158">
        <ele>37.8</ele>
        <time>2021-08-05T09:45:41Z</time>
      </trkpt>
      <trkpt lat="47.64772" lon="-2.78154">
        <ele>37.8</ele>
        <time>2021-08-05T09:45:42Z</time>
      </trkpt>
      <trkpt lat="47.64767" lon="-2.78151">
        <ele>37.8</ele>
        <time>2021-08-05T09:45:43Z</time>
      </trkpt>
      <trkpt lat="47.64761" lon="-2.78147">
        <ele>37.8</ele>
        <time>2021-08-05T09:45:44Z</time>
      </trkpt>
      <trkpt lat="47.64756" lon="-2.78143">
        <ele>37.8</ele>
        <time>2021-08-05T09:45:45Z</time>
      </trkpt>
      <trkpt lat="47.64751" lon="-2.7814">
        <ele>38</ele>
        <time>2021-08-05T09:45:46Z</time>
      </trkpt>
      <trkpt lat="47.64745" lon="-2.78136">
        <ele>38</ele>
        <time>2021-08-05T09:45:47Z</time>
      </trkpt>
      <trkpt lat="47.64739" lon="-2.78132">
        <ele>38</ele>
        <time>2021-08-05T09:45:48Z</time>
      </trkpt>
      <trkpt lat="47.64734" lon="-2.78129">
        <ele>38</ele>
        <time>2021-08-05T09:45:49Z</time>
      </trkpt>
      <trkpt lat="47.64728" lon="-2.78125">
        <ele>38</ele>
        <time>2021-08-05T09:45:50Z</time>
      </trkpt>
      <trkpt lat="47.64723" lon="-2.78121">
        <ele>38</ele>
        <time>2021-08-05T09:45:51Z</time>
      </trkpt>
      <trkpt lat="47.64718" lon="-2.78116">
        <ele>38</ele>
        <time>2021-08-05T09:45:52Z</time>
      </trkpt>
      <trkpt lat="47.64713" lon="-2.78112">
        <ele>38.2</ele>
        <time>2021-08-05T09:45:53Z</time>
      </trkpt>
      <trkpt lat="47.64708" lon="-2.78107">
        <ele>38.4</ele>
        <time>2021-08-05T09:45:54Z</time>
      </trkpt>
      <trkpt lat="47.64703" lon="-2.78101">
        <ele>38.4</ele>
        <time>2021-08-05T09:45:55Z</time>
      </trkpt>
      <trkpt lat="47.64699" lon="-2.78096">
        <ele>38.4</ele>
        <time>2021-08-05T09:45:56Z</time>
      </trkpt>
      <trkpt lat="47.64694" lon="-2.78091">
        <ele>38.4</ele>
        <time>2021-08-05T09:45:57Z</time>
      </trkpt>
      <trkpt lat="47.6469" lon="-2.78086">
        <ele>38.4</ele>
        <time>2021-08-05T09:45:58Z</time>
      </trkpt>
      <trkpt lat="47.64685" lon="-2.78082">
        <ele>38.4</ele>
        <time>2021-08-05T09:45:59Z</time>
      </trkpt>
      <trkpt lat="47.64681" lon="-2.78078">
        <ele>38.6</ele>
        <time>2021-08-05T09:46:00Z</time>
      </trkpt>
      <trkpt lat="47.64677" lon="-2.78075">
        <ele>38.6</ele>
        <time>2021-08-05T09:46:01Z</time>
      </trkpt>
      <trkpt lat="47.64673" lon="-2.78071">
        <ele>38.6</ele>
        <time>2021-08-05T09:46:02Z</time>
      </trkpt>
      <trkpt lat="47.64671" lon="-2.78068">
        <ele>38.8</ele>
        <time>2021-08-05T09:46:03Z</time>
      </trkpt>
      <trkpt lat="47.64668" lon="-2.78064">
        <ele>38.8</ele>
        <time>2021-08-05T09:46:04Z</time>
      </trkpt>
      <trkpt lat="47.64667" lon="-2.78059">
        <ele>38.8</ele>
        <time>2021-08-05T09:46:05Z</time>
      </trkpt>
      <trkpt lat="47.64665" lon="-2.78055">
        <ele>39</ele>
        <time>2021-08-05T09:46:06Z</time>
      </trkpt>
      <trkpt lat="47.64663" lon="-2.78052">
        <ele>39.2</ele>
        <time>2021-08-05T09:46:07Z</time>
      </trkpt>
      <trkpt lat="47.64661" lon="-2.78049">
        <ele>39.2</ele>
        <time>2021-08-05T09:46:08Z</time>
      </trkpt>
      <trkpt lat="47.64658" lon="-2.78046">
        <ele>39.2</ele>
        <time>2021-08-05T09:46:09Z</time>
      </trkpt>
      <trkpt lat="47.64656" lon="-2.78044">
        <ele>39.2</ele>
        <time>2021-08-05T09:46:10Z</time>
      </trkpt>
      <trkpt lat="47.64653" lon="-2.78042">
        <ele>39.2</ele>
        <time>2021-08-05T09:46:11Z</time>
      </trkpt>
      <trkpt lat="47.64649" lon="-2.78037">
        <ele>39.2</ele>
        <time>2021-08-05T09:46:13Z</time>
      </trkpt>
      <trkpt lat="47.64647" lon="-2.78035">
        <ele>39.4</ele>
        <time>2021-08-05T09:46:14Z</time>
      </trkpt>
      <trkpt lat="47.64645" lon="-2.78034">
        <ele>39.4</ele>
        <time>2021-08-05T09:46:15Z</time>
      </trkpt>
      <trkpt lat="47.64644" lon="-2.78031">
        <ele>39.6</ele>
        <time>2021-08-05T09:46:16Z</time>
      </trkpt>
      <trkpt lat="47.64643" lon="-2.78029">
        <ele>39.6</ele>
        <time>2021-08-05T09:46:17Z</time>
      </trkpt>
      <trkpt lat="47.64641" lon="-2.78028">
        <ele>39.6</ele>
        <time>2021-08-05T09:46:18Z</time>
      </trkpt>
      <trkpt lat="47.6464" lon="-2.78027">
        <ele>39.6</ele>
        <time>2021-08-05T09:46:19Z</time>
      </trkpt>
      <trkpt lat="47.64639" lon="-2.78025">
        <ele>39.8</ele>
        <time>2021-08-05T09:46:20Z</time>
      </trkpt>
      <trkpt lat="47.64638" lon="-2.78024">
        <ele>39.8</ele>
        <time>2021-08-05T09:46:21Z</time>
      </trkpt>
      <trkpt lat="47.64637" lon="-2.78023">
        <ele>40</ele>
        <time>2021-08-05T09:46:22Z</time>
      </trkpt>
      <trkpt lat="47.64635" lon="-2.7802">
        <ele>40</ele>
        <time>2021-08-05T09:46:24Z</time>
      </trkpt>
      <trkpt lat="47.64633" lon="-2.78019">
        <ele>40</ele>
        <time>2021-08-05T09:46:25Z</time>
      </trkpt>
      <trkpt lat="47.64632" lon="-2.78017">
        <ele>40</ele>
        <time>2021-08-05T09:46:26Z</time>
      </trkpt>
      <trkpt lat="47.6463" lon="-2.78015">
        <ele>40</ele>
        <time>2021-08-05T09:46:27Z</time>
      </trkpt>
      <trkpt lat="47.64629" lon="-2.78014">
        <ele>40</ele>
        <time>2021-08-05T09:46:28Z</time>
      </trkpt>
      <trkpt lat="47.64627" lon="-2.78011">
        <ele>40</ele>
        <time>2021-08-05T09:46:29Z</time>
      </trkpt>
      <trkpt lat="47.64625" lon="-2.7801">
        <ele>40</ele>
        <time>2021-08-05T09:46:30Z</time>
      </trkpt>
      <trkpt lat="47.64624" lon="-2.78008">
        <ele>40</ele>
        <time>2021-08-05T09:46:31Z</time>
      </trkpt>
      <trkpt lat="47.64623" lon="-2.78007">
        <ele>40</ele>
        <time>2021-08-05T09:46:32Z</time>
      </trkpt>
      <trkpt lat="47.64622" lon="-2.78005">
        <ele>40</ele>
        <time>2021-08-05T09:46:33Z</time>
      </trkpt>
      <trkpt lat="47.64621" lon="-2.78004">
        <ele>40.2</ele>
        <time>2021-08-05T09:46:34Z</time>
      </trkpt>
      <trkpt lat="47.64619" lon="-2.78002">
        <ele>40.2</ele>
        <time>2021-08-05T09:46:35Z</time>
      </trkpt>
      <trkpt lat="47.64617" lon="-2.77999">
        <ele>40.2</ele>
        <time>2021-08-05T09:46:36Z</time>
      </trkpt>
      <trkpt lat="47.64615" lon="-2.77997">
        <ele>40.2</ele>
        <time>2021-08-05T09:46:37Z</time>
      </trkpt>
      <trkpt lat="47.64613" lon="-2.77994">
        <ele>40.2</ele>
        <time>2021-08-05T09:46:38Z</time>
      </trkpt>
      <trkpt lat="47.6461" lon="-2.77992">
        <ele>40.2</ele>
        <time>2021-08-05T09:46:39Z</time>
      </trkpt>
      <trkpt lat="47.64608" lon="-2.7799">
        <ele>40.2</ele>
        <time>2021-08-05T09:46:40Z</time>
      </trkpt>
      <trkpt lat="47.64605" lon="-2.77988">
        <ele>40.4</ele>
        <time>2021-08-05T09:46:41Z</time>
      </trkpt>
      <trkpt lat="47.64602" lon="-2.77985">
        <ele>40.4</ele>
        <time>2021-08-05T09:46:42Z</time>
      </trkpt>
      <trkpt lat="47.646" lon="-2.77982">
        <ele>40.4</ele>
        <time>2021-08-05T09:46:43Z</time>
      </trkpt>
      <trkpt lat="47.64597" lon="-2.77979">
        <ele>40.6</ele>
        <time>2021-08-05T09:46:44Z</time>
      </trkpt>
      <trkpt lat="47.64591" lon="-2.77973">
        <ele>40.6</ele>
        <time>2021-08-05T09:46:46Z</time>
      </trkpt>
      <trkpt lat="47.64589" lon="-2.7797">
        <ele>40.6</ele>
        <time>2021-08-05T09:46:47Z</time>
      </trkpt>
      <trkpt lat="47.64586" lon="-2.77967">
        <ele>40.8</ele>
        <time>2021-08-05T09:46:48Z</time>
      </trkpt>
      <trkpt lat="47.64584" lon="-2.77963">
        <ele>40.8</ele>
        <time>2021-08-05T09:46:49Z</time>
      </trkpt>
      <trkpt lat="47.64581" lon="-2.77961">
        <ele>40.8</ele>
        <time>2021-08-05T09:46:50Z</time>
      </trkpt>
      <trkpt lat="47.64578" lon="-2.77958">
        <ele>41</ele>
        <time>2021-08-05T09:46:51Z</time>
      </trkpt>
      <trkpt lat="47.64575" lon="-2.77956">
        <ele>41.2</ele>
        <time>2021-08-05T09:46:52Z</time>
      </trkpt>
      <trkpt lat="47.64573" lon="-2.77953">
        <ele>41.2</ele>
        <time>2021-08-05T09:46:53Z</time>
      </trkpt>
      <trkpt lat="47.6457" lon="-2.7795">
        <ele>41.2</ele>
        <time>2021-08-05T09:46:54Z</time>
      </trkpt>
      <trkpt lat="47.64568" lon="-2.77947">
        <ele>41.4</ele>
        <time>2021-08-05T09:46:55Z</time>
      </trkpt>
      <trkpt lat="47.64562" lon="-2.77941">
        <ele>41.4</ele>
        <time>2021-08-05T09:46:57Z</time>
      </trkpt>
      <trkpt lat="47.6456" lon="-2.77938">
        <ele>41.4</ele>
        <time>2021-08-05T09:46:58Z</time>
      </trkpt>
      <trkpt lat="47.64557" lon="-2.77935">
        <ele>41.4</ele>
        <time>2021-08-05T09:46:59Z</time>
      </trkpt>
      <trkpt lat="47.64554" lon="-2.77932">
        <ele>41.4</ele>
        <time>2021-08-05T09:47:00Z</time>
      </trkpt>
      <trkpt lat="47.64551" lon="-2.77929">
        <ele>41.6</ele>
        <time>2021-08-05T09:47:01Z</time>
      </trkpt>
      <trkpt lat="47.64549" lon="-2.77926">
        <ele>41.6</ele>
        <time>2021-08-05T09:47:02Z</time>
      </trkpt>
      <trkpt lat="47.64546" lon="-2.77923">
        <ele>42</ele>
        <time>2021-08-05T09:47:03Z</time>
      </trkpt>
      <trkpt lat="47.64544" lon="-2.7792">
        <ele>42</ele>
        <time>2021-08-05T09:47:04Z</time>
      </trkpt>
      <trkpt lat="47.64541" lon="-2.77917">
        <ele>42</ele>
        <time>2021-08-05T09:47:05Z</time>
      </trkpt>
      <trkpt lat="47.64538" lon="-2.77914">
        <ele>42</ele>
        <time>2021-08-05T09:47:06Z</time>
      </trkpt>
      <trkpt lat="47.64533" lon="-2.77908">
        <ele>42.2</ele>
        <time>2021-08-05T09:47:08Z</time>
      </trkpt>
      <trkpt lat="47.6453" lon="-2.77905">
        <ele>42.2</ele>
        <time>2021-08-05T09:47:09Z</time>
      </trkpt>
      <trkpt lat="47.64527" lon="-2.77902">
        <ele>42.2</ele>
        <time>2021-08-05T09:47:10Z</time>
      </trkpt>
      <trkpt lat="47.64524" lon="-2.77899">
        <ele>42.2</ele>
        <time>2021-08-05T09:47:11Z</time>
      </trkpt>
      <trkpt lat="47.64521" lon="-2.77896">
        <ele>42.2</ele>
        <time>2021-08-05T09:47:12Z</time>
      </trkpt>
      <trkpt lat="47.64519" lon="-2.77892">
        <ele>42.2</ele>
        <time>2021-08-05T09:47:13Z</time>
      </trkpt>
      <trkpt lat="47.64516" lon="-2.77889">
        <ele>42.4</ele>
        <time>2021-08-05T09:47:14Z</time>
      </trkpt>
      <trkpt lat="47.64513" lon="-2.77886">
        <ele>42.4</ele>
        <time>2021-08-05T09:47:15Z</time>
      </trkpt>
      <trkpt lat="47.6451" lon="-2.77883">
        <ele>42.4</ele>
        <time>2021-08-05T09:47:16Z</time>
      </trkpt>
      <trkpt lat="47.64507" lon="-2.7788">
        <ele>42.4</ele>
        <time>2021-08-05T09:47:17Z</time>
      </trkpt>
      <trkpt lat="47.64501" lon="-2.77873">
        <ele>42.4</ele>
        <time>2021-08-05T09:47:19Z</time>
      </trkpt>
      <trkpt lat="47.64498" lon="-2.7787">
        <ele>42.4</ele>
        <time>2021-08-05T09:47:20Z</time>
      </trkpt>
      <trkpt lat="47.64495" lon="-2.77867">
        <ele>42.4</ele>
        <time>2021-08-05T09:47:21Z</time>
      </trkpt>
      <trkpt lat="47.64492" lon="-2.77863">
        <ele>42.4</ele>
        <time>2021-08-05T09:47:22Z</time>
      </trkpt>
      <trkpt lat="47.64489" lon="-2.7786">
        <ele>42.4</ele>
        <time>2021-08-05T09:47:23Z</time>
      </trkpt>
      <trkpt lat="47.64487" lon="-2.77857">
        <ele>42.4</ele>
        <time>2021-08-05T09:47:24Z</time>
      </trkpt>
      <trkpt lat="47.64484" lon="-2.77854">
        <ele>42.4</ele>
        <time>2021-08-05T09:47:25Z</time>
      </trkpt>
      <trkpt lat="47.64481" lon="-2.77851">
        <ele>42.4</ele>
        <time>2021-08-05T09:47:26Z</time>
      </trkpt>
      <trkpt lat="47.64478" lon="-2.77847">
        <ele>42.4</ele>
        <time>2021-08-05T09:47:27Z</time>
      </trkpt>
      <trkpt lat="47.64475" lon="-2.77844">
        <ele>42.4</ele>
        <time>2021-08-05T09:47:28Z</time>
      </trkpt>
      <trkpt lat="47.64469" lon="-2.77838">
        <ele>42.4</ele>
        <time>2021-08-05T09:47:30Z</time>
      </trkpt>
      <trkpt lat="47.64466" lon="-2.77834">
        <ele>42.4</ele>
        <time>2021-08-05T09:47:31Z</time>
      </trkpt>
      <trkpt lat="47.64463" lon="-2.77831">
        <ele>42.4</ele>
        <time>2021-08-05T09:47:32Z</time>
      </trkpt>
      <trkpt lat="47.6446" lon="-2.77828">
        <ele>42.2</ele>
        <time>2021-08-05T09:47:33Z</time>
      </trkpt>
      <trkpt lat="47.64457" lon="-2.77825">
        <ele>42.2</ele>
        <time>2021-08-05T09:47:34Z</time>
      </trkpt>
      <trkpt lat="47.64453" lon="-2.77822">
        <ele>42.2</ele>
        <time>2021-08-05T09:47:35Z</time>
      </trkpt>
      <trkpt lat="47.6445" lon="-2.77819">
        <ele>42.2</ele>
        <time>2021-08-05T09:47:36Z</time>
      </trkpt>
      <trkpt lat="47.64447" lon="-2.77817">
        <ele>42.2</ele>
        <time>2021-08-05T09:47:37Z</time>
      </trkpt>
      <trkpt lat="47.64444" lon="-2.77814">
        <ele>42.2</ele>
        <time>2021-08-05T09:47:38Z</time>
      </trkpt>
      <trkpt lat="47.64441" lon="-2.77812">
        <ele>42.2</ele>
        <time>2021-08-05T09:47:39Z</time>
      </trkpt>
      <trkpt lat="47.64439" lon="-2.77809">
        <ele>42.2</ele>
        <time>2021-08-05T09:47:40Z</time>
      </trkpt>
      <trkpt lat="47.64433" lon="-2.77803">
        <ele>42.2</ele>
        <time>2021-08-05T09:47:42Z</time>
      </trkpt>
      <trkpt lat="47.6443" lon="-2.77801">
        <ele>42.2</ele>
        <time>2021-08-05T09:47:43Z</time>
      </trkpt>
      <trkpt lat="47.64427" lon="-2.77798">
        <ele>42.2</ele>
        <time>2021-08-05T09:47:44Z</time>
      </trkpt>
      <trkpt lat="47.64425" lon="-2.77796">
        <ele>42.2</ele>
        <time>2021-08-05T09:47:45Z</time>
      </trkpt>
      <trkpt lat="47.64422" lon="-2.77794">
        <ele>42.2</ele>
        <time>2021-08-05T09:47:46Z</time>
      </trkpt>
      <trkpt lat="47.64419" lon="-2.77791">
        <ele>42.2</ele>
        <time>2021-08-05T09:47:47Z</time>
      </trkpt>
      <trkpt lat="47.64416" lon="-2.77788">
        <ele>42.2</ele>
        <time>2021-08-05T09:47:48Z</time>
      </trkpt>
      <trkpt lat="47.64413" lon="-2.77784">
        <ele>42.2</ele>
        <time>2021-08-05T09:47:49Z</time>
      </trkpt>
      <trkpt lat="47.6441" lon="-2.77781">
        <ele>42.2</ele>
        <time>2021-08-05T09:47:50Z</time>
      </trkpt>
      <trkpt lat="47.64407" lon="-2.77778">
        <ele>42.2</ele>
        <time>2021-08-05T09:47:51Z</time>
      </trkpt>
      <trkpt lat="47.64404" lon="-2.77775">
        <ele>42.2</ele>
        <time>2021-08-05T09:47:52Z</time>
      </trkpt>
      <trkpt lat="47.64401" lon="-2.77772">
        <ele>42.2</ele>
        <time>2021-08-05T09:47:53Z</time>
      </trkpt>
      <trkpt lat="47.64399" lon="-2.77769">
        <ele>42.2</ele>
        <time>2021-08-05T09:47:54Z</time>
      </trkpt>
      <trkpt lat="47.64396" lon="-2.77765">
        <ele>42.4</ele>
        <time>2021-08-05T09:47:55Z</time>
      </trkpt>
      <trkpt lat="47.64392" lon="-2.77762">
        <ele>42.6</ele>
        <time>2021-08-05T09:47:56Z</time>
      </trkpt>
      <trkpt lat="47.64389" lon="-2.77758">
        <ele>42.6</ele>
        <time>2021-08-05T09:47:57Z</time>
      </trkpt>
      <trkpt lat="47.64386" lon="-2.77755">
        <ele>42.6</ele>
        <time>2021-08-05T09:47:58Z</time>
      </trkpt>
      <trkpt lat="47.64382" lon="-2.77751">
        <ele>42.6</ele>
        <time>2021-08-05T09:47:59Z</time>
      </trkpt>
      <trkpt lat="47.6438" lon="-2.77747">
        <ele>42.6</ele>
        <time>2021-08-05T09:48:00Z</time>
      </trkpt>
      <trkpt lat="47.64377" lon="-2.77743">
        <ele>42.6</ele>
        <time>2021-08-05T09:48:01Z</time>
      </trkpt>
      <trkpt lat="47.64373" lon="-2.7774">
        <ele>42.8</ele>
        <time>2021-08-05T09:48:02Z</time>
      </trkpt>
      <trkpt lat="47.64367" lon="-2.77734">
        <ele>42.8</ele>
        <time>2021-08-05T09:48:04Z</time>
      </trkpt>
      <trkpt lat="47.64364" lon="-2.77731">
        <ele>43</ele>
        <time>2021-08-05T09:48:05Z</time>
      </trkpt>
      <trkpt lat="47.64361" lon="-2.77728">
        <ele>43.2</ele>
        <time>2021-08-05T09:48:06Z</time>
      </trkpt>
      <trkpt lat="47.64357" lon="-2.77724">
        <ele>43.2</ele>
        <time>2021-08-05T09:48:07Z</time>
      </trkpt>
      <trkpt lat="47.64355" lon="-2.77721">
        <ele>43.4</ele>
        <time>2021-08-05T09:48:08Z</time>
      </trkpt>
      <trkpt lat="47.64352" lon="-2.77718">
        <ele>43.6</ele>
        <time>2021-08-05T09:48:09Z</time>
      </trkpt>
      <trkpt lat="47.64349" lon="-2.77715">
        <ele>43.6</ele>
        <time>2021-08-05T09:48:10Z</time>
      </trkpt>
      <trkpt lat="47.64346" lon="-2.77712">
        <ele>43.6</ele>
        <time>2021-08-05T09:48:11Z</time>
      </trkpt>
      <trkpt lat="47.64344" lon="-2.77709">
        <ele>43.8</ele>
        <time>2021-08-05T09:48:12Z</time>
      </trkpt>
      <trkpt lat="47.64342" lon="-2.77705">
        <ele>43.8</ele>
        <time>2021-08-05T09:48:13Z</time>
      </trkpt>
      <trkpt lat="47.64337" lon="-2.77698">
        <ele>43.8</ele>
        <time>2021-08-05T09:48:15Z</time>
      </trkpt>
      <trkpt lat="47.64335" lon="-2.77695">
        <ele>44.2</ele>
        <time>2021-08-05T09:48:16Z</time>
      </trkpt>
      <trkpt lat="47.64333" lon="-2.77693">
        <ele>44.4</ele>
        <time>2021-08-05T09:48:17Z</time>
      </trkpt>
      <trkpt lat="47.6433" lon="-2.7769">
        <ele>44.4</ele>
        <time>2021-08-05T09:48:18Z</time>
      </trkpt>
      <trkpt lat="47.64328" lon="-2.77688">
        <ele>44.6</ele>
        <time>2021-08-05T09:48:19Z</time>
      </trkpt>
      <trkpt lat="47.64326" lon="-2.77685">
        <ele>44.8</ele>
        <time>2021-08-05T09:48:20Z</time>
      </trkpt>
      <trkpt lat="47.64324" lon="-2.77683">
        <ele>44.8</ele>
        <time>2021-08-05T09:48:21Z</time>
      </trkpt>
      <trkpt lat="47.64322" lon="-2.77681">
        <ele>44.8</ele>
        <time>2021-08-05T09:48:22Z</time>
      </trkpt>
      <trkpt lat="47.64319" lon="-2.77679">
        <ele>45</ele>
        <time>2021-08-05T09:48:23Z</time>
      </trkpt>
      <trkpt lat="47.64314" lon="-2.77673">
        <ele>45</ele>
        <time>2021-08-05T09:48:25Z</time>
      </trkpt>
      <trkpt lat="47.64311" lon="-2.77671">
        <ele>45.2</ele>
        <time>2021-08-05T09:48:26Z</time>
      </trkpt>
      <trkpt lat="47.64308" lon="-2.77668">
        <ele>45.2</ele>
        <time>2021-08-05T09:48:27Z</time>
      </trkpt>
      <trkpt lat="47.64305" lon="-2.77665">
        <ele>45.2</ele>
        <time>2021-08-05T09:48:28Z</time>
      </trkpt>
      <trkpt lat="47.64302" lon="-2.77661">
        <ele>45.4</ele>
        <time>2021-08-05T09:48:29Z</time>
      </trkpt>
      <trkpt lat="47.64299" lon="-2.77658">
        <ele>45.6</ele>
        <time>2021-08-05T09:48:30Z</time>
      </trkpt>
      <trkpt lat="47.64296" lon="-2.77655">
        <ele>45.8</ele>
        <time>2021-08-05T09:48:31Z</time>
      </trkpt>
      <trkpt lat="47.64293" lon="-2.77652">
        <ele>45.8</ele>
        <time>2021-08-05T09:48:32Z</time>
      </trkpt>
      <trkpt lat="47.6429" lon="-2.77648">
        <ele>45.8</ele>
        <time>2021-08-05T09:48:33Z</time>
      </trkpt>
      <trkpt lat="47.64286" lon="-2.77644">
        <ele>46</ele>
        <time>2021-08-05T09:48:34Z</time>
      </trkpt>
      <trkpt lat="47.6428" lon="-2.77636">
        <ele>46.2</ele>
        <time>2021-08-05T09:48:36Z</time>
      </trkpt>
      <trkpt lat="47.64276" lon="-2.77632">
        <ele>46.2</ele>
        <time>2021-08-05T09:48:37Z</time>
      </trkpt>
      <trkpt lat="47.64273" lon="-2.77629">
        <ele>46.4</ele>
        <time>2021-08-05T09:48:38Z</time>
      </trkpt>
      <trkpt lat="47.6427" lon="-2.77625">
        <ele>46.4</ele>
        <time>2021-08-05T09:48:39Z</time>
      </trkpt>
      <trkpt lat="47.64267" lon="-2.77621">
        <ele>46.4</ele>
        <time>2021-08-05T09:48:40Z</time>
      </trkpt>
      <trkpt lat="47.64264" lon="-2.77618">
        <ele>46.6</ele>
        <time>2021-08-05T09:48:41Z</time>
      </trkpt>
      <trkpt lat="47.64262" lon="-2.77614">
        <ele>46.6</ele>
        <time>2021-08-05T09:48:42Z</time>
      </trkpt>
      <trkpt lat="47.64259" lon="-2.77611">
        <ele>46.8</ele>
        <time>2021-08-05T09:48:43Z</time>
      </trkpt>
      <trkpt lat="47.64257" lon="-2.77608">
        <ele>47</ele>
        <time>2021-08-05T09:48:44Z</time>
      </trkpt>
      <trkpt lat="47.64255" lon="-2.77605">
        <ele>47</ele>
        <time>2021-08-05T09:48:45Z</time>
      </trkpt>
      <trkpt lat="47.64252" lon="-2.77601">
        <ele>47</ele>
        <time>2021-08-05T09:48:46Z</time>
      </trkpt>
      <trkpt lat="47.6425" lon="-2.77598">
        <ele>47.2</ele>
        <time>2021-08-05T09:48:47Z</time>
      </trkpt>
      <trkpt lat="47.64247" lon="-2.77595">
        <ele>47.2</ele>
        <time>2021-08-05T09:48:48Z</time>
      </trkpt>
      <trkpt lat="47.64245" lon="-2.77591">
        <ele>47.2</ele>
        <time>2021-08-05T09:48:49Z</time>
      </trkpt>
      <trkpt lat="47.64243" lon="-2.77588">
        <ele>47.2</ele>
        <time>2021-08-05T09:48:50Z</time>
      </trkpt>
      <trkpt lat="47.64241" lon="-2.77585">
        <ele>47.2</ele>
        <time>2021-08-05T09:48:51Z</time>
      </trkpt>
      <trkpt lat="47.64239" lon="-2.77582">
        <ele>47.2</ele>
        <time>2021-08-05T09:48:52Z</time>
      </trkpt>
      <trkpt lat="47.64237" lon="-2.77578">
        <ele>47.2</ele>
        <time>2021-08-05T09:48:53Z</time>
      </trkpt>
      <trkpt lat="47.64235" lon="-2.77575">
        <ele>47.2</ele>
        <time>2021-08-05T09:48:54Z</time>
      </trkpt>
      <trkpt lat="47.64233" lon="-2.77571">
        <ele>47.2</ele>
        <time>2021-08-05T09:48:55Z</time>
      </trkpt>
      <trkpt lat="47.64231" lon="-2.77568">
        <ele>47.2</ele>
        <time>2021-08-05T09:48:56Z</time>
      </trkpt>
      <trkpt lat="47.64229" lon="-2.77565">
        <ele>47.2</ele>
        <time>2021-08-05T09:48:57Z</time>
      </trkpt>
      <trkpt lat="47.64227" lon="-2.77561">
        <ele>47.4</ele>
        <time>2021-08-05T09:48:58Z</time>
      </trkpt>
      <trkpt lat="47.64225" lon="-2.77558">
        <ele>47.4</ele>
        <time>2021-08-05T09:48:59Z</time>
      </trkpt>
      <trkpt lat="47.64223" lon="-2.77555">
        <ele>47.4</ele>
        <time>2021-08-05T09:49:00Z</time>
      </trkpt>
      <trkpt lat="47.64221" lon="-2.77552">
        <ele>47.4</ele>
        <time>2021-08-05T09:49:01Z</time>
      </trkpt>
      <trkpt lat="47.64219" lon="-2.77548">
        <ele>47.4</ele>
        <time>2021-08-05T09:49:02Z</time>
      </trkpt>
      <trkpt lat="47.64217" lon="-2.77544">
        <ele>47.4</ele>
        <time>2021-08-05T09:49:03Z</time>
      </trkpt>
      <trkpt lat="47.64216" lon="-2.7754">
        <ele>47.4</ele>
        <time>2021-08-05T09:49:04Z</time>
      </trkpt>
      <trkpt lat="47.64214" lon="-2.77537">
        <ele>47.4</ele>
        <time>2021-08-05T09:49:05Z</time>
      </trkpt>
      <trkpt lat="47.64212" lon="-2.77533">
        <ele>47.4</ele>
        <time>2021-08-05T09:49:06Z</time>
      </trkpt>
      <trkpt lat="47.6421" lon="-2.77528">
        <ele>47.8</ele>
        <time>2021-08-05T09:49:07Z</time>
      </trkpt>
      <trkpt lat="47.64207" lon="-2.77519">
        <ele>47.8</ele>
        <time>2021-08-05T09:49:09Z</time>
      </trkpt>
      <trkpt lat="47.64205" lon="-2.77514">
        <ele>47.8</ele>
        <time>2021-08-05T09:49:10Z</time>
      </trkpt>
      <trkpt lat="47.64203" lon="-2.77508">
        <ele>47.8</ele>
        <time>2021-08-05T09:49:11Z</time>
      </trkpt>
      <trkpt lat="47.64201" lon="-2.77503">
        <ele>47.8</ele>
        <time>2021-08-05T09:49:12Z</time>
      </trkpt>
      <trkpt lat="47.642" lon="-2.77498">
        <ele>47.8</ele>
        <time>2021-08-05T09:49:13Z</time>
      </trkpt>
      <trkpt lat="47.64198" lon="-2.77493">
        <ele>47.8</ele>
        <time>2021-08-05T09:49:14Z</time>
      </trkpt>
      <trkpt lat="47.64196" lon="-2.77488">
        <ele>47.8</ele>
        <time>2021-08-05T09:49:15Z</time>
      </trkpt>
      <trkpt lat="47.64195" lon="-2.77482">
        <ele>47.8</ele>
        <time>2021-08-05T09:49:16Z</time>
      </trkpt>
      <trkpt lat="47.64193" lon="-2.77476">
        <ele>47.8</ele>
        <time>2021-08-05T09:49:17Z</time>
      </trkpt>
      <trkpt lat="47.64192" lon="-2.7747">
        <ele>47.8</ele>
        <time>2021-08-05T09:49:18Z</time>
      </trkpt>
      <trkpt lat="47.64189" lon="-2.77456">
        <ele>47.8</ele>
        <time>2021-08-05T09:49:20Z</time>
      </trkpt>
      <trkpt lat="47.64188" lon="-2.77449">
        <ele>47.8</ele>
        <time>2021-08-05T09:49:21Z</time>
      </trkpt>
      <trkpt lat="47.64186" lon="-2.77441">
        <ele>47.8</ele>
        <time>2021-08-05T09:49:22Z</time>
      </trkpt>
      <trkpt lat="47.64185" lon="-2.77434">
        <ele>48</ele>
        <time>2021-08-05T09:49:23Z</time>
      </trkpt>
      <trkpt lat="47.64184" lon="-2.77426">
        <ele>47.8</ele>
        <time>2021-08-05T09:49:24Z</time>
      </trkpt>
      <trkpt lat="47.64183" lon="-2.77417">
        <ele>47.8</ele>
        <time>2021-08-05T09:49:25Z</time>
      </trkpt>
      <trkpt lat="47.64182" lon="-2.77409">
        <ele>47.8</ele>
        <time>2021-08-05T09:49:26Z</time>
      </trkpt>
      <trkpt lat="47.64181" lon="-2.774">
        <ele>47.8</ele>
        <time>2021-08-05T09:49:27Z</time>
      </trkpt>
      <trkpt lat="47.6418" lon="-2.77391">
        <ele>47.8</ele>
        <time>2021-08-05T09:49:28Z</time>
      </trkpt>
      <trkpt lat="47.64179" lon="-2.77381">
        <ele>47.8</ele>
        <time>2021-08-05T09:49:29Z</time>
      </trkpt>
      <trkpt lat="47.64176" lon="-2.77362">
        <ele>47.8</ele>
        <time>2021-08-05T09:49:31Z</time>
      </trkpt>
      <trkpt lat="47.64175" lon="-2.77352">
        <ele>47.8</ele>
        <time>2021-08-05T09:49:32Z</time>
      </trkpt>
      <trkpt lat="47.64174" lon="-2.77341">
        <ele>47.8</ele>
        <time>2021-08-05T09:49:33Z</time>
      </trkpt>
      <trkpt lat="47.64173" lon="-2.77331">
        <ele>47.8</ele>
        <time>2021-08-05T09:49:34Z</time>
      </trkpt>
      <trkpt lat="47.64171" lon="-2.77321">
        <ele>47.8</ele>
        <time>2021-08-05T09:49:35Z</time>
      </trkpt>
      <trkpt lat="47.6417" lon="-2.7731">
        <ele>47.8</ele>
        <time>2021-08-05T09:49:36Z</time>
      </trkpt>
      <trkpt lat="47.64169" lon="-2.773">
        <ele>47.8</ele>
        <time>2021-08-05T09:49:37Z</time>
      </trkpt>
      <trkpt lat="47.64168" lon="-2.77289">
        <ele>47.8</ele>
        <time>2021-08-05T09:49:38Z</time>
      </trkpt>
      <trkpt lat="47.64167" lon="-2.77279">
        <ele>47.8</ele>
        <time>2021-08-05T09:49:39Z</time>
      </trkpt>
      <trkpt lat="47.64165" lon="-2.77268">
        <ele>47.8</ele>
        <time>2021-08-05T09:49:40Z</time>
      </trkpt>
      <trkpt lat="47.64163" lon="-2.77249">
        <ele>48</ele>
        <time>2021-08-05T09:49:42Z</time>
      </trkpt>
      <trkpt lat="47.64161" lon="-2.77239">
        <ele>48</ele>
        <time>2021-08-05T09:49:43Z</time>
      </trkpt>
      <trkpt lat="47.6416" lon="-2.7723">
        <ele>48</ele>
        <time>2021-08-05T09:49:44Z</time>
      </trkpt>
      <trkpt lat="47.64159" lon="-2.77221">
        <ele>48</ele>
        <time>2021-08-05T09:49:45Z</time>
      </trkpt>
      <trkpt lat="47.64158" lon="-2.77212">
        <ele>48</ele>
        <time>2021-08-05T09:49:46Z</time>
      </trkpt>
      <trkpt lat="47.64157" lon="-2.77203">
        <ele>48</ele>
        <time>2021-08-05T09:49:47Z</time>
      </trkpt>
      <trkpt lat="47.64156" lon="-2.77196">
        <ele>48</ele>
        <time>2021-08-05T09:49:48Z</time>
      </trkpt>
      <trkpt lat="47.64155" lon="-2.77189">
        <ele>47.8</ele>
        <time>2021-08-05T09:49:49Z</time>
      </trkpt>
      <trkpt lat="47.64154" lon="-2.77182">
        <ele>47.8</ele>
        <time>2021-08-05T09:49:50Z</time>
      </trkpt>
      <trkpt lat="47.64154" lon="-2.77176">
        <ele>47.8</ele>
        <time>2021-08-05T09:49:51Z</time>
      </trkpt>
      <trkpt lat="47.64154" lon="-2.77168">
        <ele>48</ele>
        <time>2021-08-05T09:49:53Z</time>
      </trkpt>
      <trkpt lat="47.64153" lon="-2.77165">
        <ele>48</ele>
        <time>2021-08-05T09:49:54Z</time>
      </trkpt>
      <trkpt lat="47.64152" lon="-2.77163">
        <ele>47.8</ele>
        <time>2021-08-05T09:49:55Z</time>
      </trkpt>
      <trkpt lat="47.64151" lon="-2.77162">
        <ele>47.8</ele>
        <time>2021-08-05T09:49:56Z</time>
      </trkpt>
      <trkpt lat="47.6415" lon="-2.77161">
        <ele>47.8</ele>
        <time>2021-08-05T09:49:57Z</time>
      </trkpt>
      <trkpt lat="47.64149" lon="-2.77161">
        <ele>47.8</ele>
        <time>2021-08-05T09:49:58Z</time>
      </trkpt>
      <trkpt lat="47.64147" lon="-2.77161">
        <ele>47.6</ele>
        <time>2021-08-05T09:49:59Z</time>
      </trkpt>
      <trkpt lat="47.64145" lon="-2.77161">
        <ele>47.6</ele>
        <time>2021-08-05T09:50:00Z</time>
      </trkpt>
      <trkpt lat="47.64143" lon="-2.77161">
        <ele>47.6</ele>
        <time>2021-08-05T09:50:01Z</time>
      </trkpt>
      <trkpt lat="47.6414" lon="-2.77162">
        <ele>47.8</ele>
        <time>2021-08-05T09:50:02Z</time>
      </trkpt>
      <trkpt lat="47.64134" lon="-2.77164">
        <ele>47.6</ele>
        <time>2021-08-05T09:50:04Z</time>
      </trkpt>
      <trkpt lat="47.64131" lon="-2.77166">
        <ele>47.6</ele>
        <time>2021-08-05T09:50:05Z</time>
      </trkpt>
      <trkpt lat="47.64128" lon="-2.77168">
        <ele>47.8</ele>
        <time>2021-08-05T09:50:06Z</time>
      </trkpt>
      <trkpt lat="47.64125" lon="-2.77169">
        <ele>47.6</ele>
        <time>2021-08-05T09:50:07Z</time>
      </trkpt>
      <trkpt lat="47.64123" lon="-2.77168">
        <ele>47.6</ele>
        <time>2021-08-05T09:50:08Z</time>
      </trkpt>
      <trkpt lat="47.64121" lon="-2.77165">
        <ele>47.6</ele>
        <time>2021-08-05T09:50:09Z</time>
      </trkpt>
      <trkpt lat="47.6412" lon="-2.77161">
        <ele>47.6</ele>
        <time>2021-08-05T09:50:10Z</time>
      </trkpt>
      <trkpt lat="47.64119" lon="-2.77156">
        <ele>47.6</ele>
        <time>2021-08-05T09:50:11Z</time>
      </trkpt>
      <trkpt lat="47.64119" lon="-2.77151">
        <ele>47.6</ele>
        <time>2021-08-05T09:50:12Z</time>
      </trkpt>
      <trkpt lat="47.64118" lon="-2.77145">
        <ele>47.4</ele>
        <time>2021-08-05T09:50:13Z</time>
      </trkpt>
      <trkpt lat="47.64118" lon="-2.7714">
        <ele>47.4</ele>
        <time>2021-08-05T09:50:14Z</time>
      </trkpt>
      <trkpt lat="47.64117" lon="-2.7713">
        <ele>47.4</ele>
        <time>2021-08-05T09:50:16Z</time>
      </trkpt>
      <trkpt lat="47.64116" lon="-2.77125">
        <ele>47.2</ele>
        <time>2021-08-05T09:50:17Z</time>
      </trkpt>
      <trkpt lat="47.64116" lon="-2.7712">
        <ele>47.2</ele>
        <time>2021-08-05T09:50:18Z</time>
      </trkpt>
      <trkpt lat="47.64115" lon="-2.77116">
        <ele>47.4</ele>
        <time>2021-08-05T09:50:19Z</time>
      </trkpt>
      <trkpt lat="47.64114" lon="-2.77111">
        <ele>47.2</ele>
        <time>2021-08-05T09:50:20Z</time>
      </trkpt>
      <trkpt lat="47.64113" lon="-2.77107">
        <ele>47.2</ele>
        <time>2021-08-05T09:50:21Z</time>
      </trkpt>
      <trkpt lat="47.64112" lon="-2.77103">
        <ele>47.2</ele>
        <time>2021-08-05T09:50:22Z</time>
      </trkpt>
      <trkpt lat="47.64112" lon="-2.77101">
        <ele>47.2</ele>
        <time>2021-08-05T09:50:23Z</time>
      </trkpt>
      <trkpt lat="47.64112" lon="-2.77099">
        <ele>47.2</ele>
        <time>2021-08-05T09:50:24Z</time>
      </trkpt>
      <trkpt lat="47.64112" lon="-2.77097">
        <ele>47.2</ele>
        <time>2021-08-05T09:50:25Z</time>
      </trkpt>
      <trkpt lat="47.64112" lon="-2.77096">
        <ele>47</ele>
        <time>2021-08-05T09:50:26Z</time>
      </trkpt>
      <trkpt lat="47.64112" lon="-2.77095">
        <ele>45.6</ele>
        <time>2021-08-05T09:50:53Z</time>
      </trkpt>
      <trkpt lat="47.64112" lon="-2.77093">
        <ele>45.6</ele>
        <time>2021-08-05T09:50:54Z</time>
      </trkpt>
      <trkpt lat="47.64112" lon="-2.77092">
        <ele>45.6</ele>
        <time>2021-08-05T09:50:55Z</time>
      </trkpt>
      <trkpt lat="47.64111" lon="-2.7709">
        <ele>45.4</ele>
        <time>2021-08-05T09:50:56Z</time>
      </trkpt>
      <trkpt lat="47.6411" lon="-2.77086">
        <ele>45.4</ele>
        <time>2021-08-05T09:50:58Z</time>
      </trkpt>
      <trkpt lat="47.64109" lon="-2.77084">
        <ele>45.4</ele>
        <time>2021-08-05T09:50:59Z</time>
      </trkpt>
      <trkpt lat="47.64107" lon="-2.77081">
        <ele>45.4</ele>
        <time>2021-08-05T09:51:00Z</time>
      </trkpt>
      <trkpt lat="47.64103" lon="-2.77073">
        <ele>45.4</ele>
        <time>2021-08-05T09:51:02Z</time>
      </trkpt>
      <trkpt lat="47.64101" lon="-2.7707">
        <ele>45.4</ele>
        <time>2021-08-05T09:51:03Z</time>
      </trkpt>
      <trkpt lat="47.64098" lon="-2.77066">
        <ele>45.2</ele>
        <time>2021-08-05T09:51:04Z</time>
      </trkpt>
      <trkpt lat="47.64095" lon="-2.77063">
        <ele>45.2</ele>
        <time>2021-08-05T09:51:05Z</time>
      </trkpt>
      <trkpt lat="47.64092" lon="-2.77059">
        <ele>45</ele>
        <time>2021-08-05T09:51:06Z</time>
      </trkpt>
      <trkpt lat="47.64089" lon="-2.77055">
        <ele>45</ele>
        <time>2021-08-05T09:51:07Z</time>
      </trkpt>
      <trkpt lat="47.64086" lon="-2.77051">
        <ele>45</ele>
        <time>2021-08-05T09:51:08Z</time>
      </trkpt>
      <trkpt lat="47.64082" lon="-2.77047">
        <ele>44.8</ele>
        <time>2021-08-05T09:51:09Z</time>
      </trkpt>
      <trkpt lat="47.64078" lon="-2.77042">
        <ele>44.8</ele>
        <time>2021-08-05T09:51:10Z</time>
      </trkpt>
      <trkpt lat="47.64074" lon="-2.77038">
        <ele>44.6</ele>
        <time>2021-08-05T09:51:11Z</time>
      </trkpt>
      <trkpt lat="47.64067" lon="-2.77029">
        <ele>44.4</ele>
        <time>2021-08-05T09:51:13Z</time>
      </trkpt>
      <trkpt lat="47.64062" lon="-2.77025">
        <ele>44.4</ele>
        <time>2021-08-05T09:51:14Z</time>
      </trkpt>
      <trkpt lat="47.64058" lon="-2.7702">
        <ele>44.4</ele>
        <time>2021-08-05T09:51:15Z</time>
      </trkpt>
      <trkpt lat="47.64054" lon="-2.77014">
        <ele>44.2</ele>
        <time>2021-08-05T09:51:16Z</time>
      </trkpt>
      <trkpt lat="47.64049" lon="-2.77009">
        <ele>44.2</ele>
        <time>2021-08-05T09:51:17Z</time>
      </trkpt>
      <trkpt lat="47.64045" lon="-2.77004">
        <ele>44.2</ele>
        <time>2021-08-05T09:51:18Z</time>
      </trkpt>
      <trkpt lat="47.6404" lon="-2.76999">
        <ele>44</ele>
        <time>2021-08-05T09:51:19Z</time>
      </trkpt>
      <trkpt lat="47.64036" lon="-2.76995">
        <ele>43.8</ele>
        <time>2021-08-05T09:51:20Z</time>
      </trkpt>
      <trkpt lat="47.64033" lon="-2.76992">
        <ele>43.8</ele>
        <time>2021-08-05T09:51:21Z</time>
      </trkpt>
      <trkpt lat="47.6403" lon="-2.76989">
        <ele>43.8</ele>
        <time>2021-08-05T09:51:22Z</time>
      </trkpt>
      <trkpt lat="47.64028" lon="-2.76987">
        <ele>43.8</ele>
        <time>2021-08-05T09:51:23Z</time>
      </trkpt>
      <trkpt lat="47.64026" lon="-2.76987">
        <ele>43.6</ele>
        <time>2021-08-05T09:51:24Z</time>
      </trkpt>
      <trkpt lat="47.64025" lon="-2.76987">
        <ele>43.6</ele>
        <time>2021-08-05T09:51:25Z</time>
      </trkpt>
      <trkpt lat="47.64024" lon="-2.76987">
        <ele>43.6</ele>
        <time>2021-08-05T09:51:26Z</time>
      </trkpt>
      <trkpt lat="47.64025" lon="-2.76987">
        <ele>43.6</ele>
        <time>2021-08-05T09:51:27Z</time>
      </trkpt>
      <trkpt lat="47.64025" lon="-2.76986">
        <ele>43.6</ele>
        <time>2021-08-05T09:51:28Z</time>
      </trkpt>
      <trkpt lat="47.64024" lon="-2.76986">
        <ele>43.6</ele>
        <time>2021-08-05T09:51:32Z</time>
      </trkpt>
      <trkpt lat="47.64024" lon="-2.76985">
        <ele>43.6</ele>
        <time>2021-08-05T09:51:33Z</time>
      </trkpt>
      <trkpt lat="47.64023" lon="-2.76984">
        <ele>43.6</ele>
        <time>2021-08-05T09:51:34Z</time>
      </trkpt>
      <trkpt lat="47.64022" lon="-2.76983">
        <ele>43.6</ele>
        <time>2021-08-05T09:51:35Z</time>
      </trkpt>
      <trkpt lat="47.6402" lon="-2.76981">
        <ele>43.6</ele>
        <time>2021-08-05T09:51:36Z</time>
      </trkpt>
      <trkpt lat="47.64019" lon="-2.76981">
        <ele>43.6</ele>
        <time>2021-08-05T09:51:37Z</time>
      </trkpt>
      <trkpt lat="47.64017" lon="-2.7698">
        <ele>43.6</ele>
        <time>2021-08-05T09:51:38Z</time>
      </trkpt>
      <trkpt lat="47.64016" lon="-2.76978">
        <ele>43.4</ele>
        <time>2021-08-05T09:51:39Z</time>
      </trkpt>
      <trkpt lat="47.64013" lon="-2.76976">
        <ele>43.4</ele>
        <time>2021-08-05T09:51:40Z</time>
      </trkpt>
      <trkpt lat="47.64011" lon="-2.76974">
        <ele>43.2</ele>
        <time>2021-08-05T09:51:41Z</time>
      </trkpt>
      <trkpt lat="47.64008" lon="-2.76973">
        <ele>43</ele>
        <time>2021-08-05T09:51:42Z</time>
      </trkpt>
      <trkpt lat="47.64005" lon="-2.76972">
        <ele>43.2</ele>
        <time>2021-08-05T09:51:43Z</time>
      </trkpt>
      <trkpt lat="47.64001" lon="-2.76969">
        <ele>43</ele>
        <time>2021-08-05T09:51:44Z</time>
      </trkpt>
      <trkpt lat="47.63998" lon="-2.76963">
        <ele>42.8</ele>
        <time>2021-08-05T09:51:45Z</time>
      </trkpt>
      <trkpt lat="47.63996" lon="-2.76957">
        <ele>42.8</ele>
        <time>2021-08-05T09:51:46Z</time>
      </trkpt>
      <trkpt lat="47.63993" lon="-2.76951">
        <ele>42.6</ele>
        <time>2021-08-05T09:51:47Z</time>
      </trkpt>
      <trkpt lat="47.6399" lon="-2.76945">
        <ele>42.4</ele>
        <time>2021-08-05T09:51:48Z</time>
      </trkpt>
      <trkpt lat="47.63987" lon="-2.76939">
        <ele>42.2</ele>
        <time>2021-08-05T09:51:49Z</time>
      </trkpt>
      <trkpt lat="47.63983" lon="-2.76933">
        <ele>42.2</ele>
        <time>2021-08-05T09:51:50Z</time>
      </trkpt>
      <trkpt lat="47.63978" lon="-2.76927">
        <ele>42</ele>
        <time>2021-08-05T09:51:51Z</time>
      </trkpt>
      <trkpt lat="47.63974" lon="-2.7692">
        <ele>42</ele>
        <time>2021-08-05T09:51:52Z</time>
      </trkpt>
      <trkpt lat="47.63968" lon="-2.76913">
        <ele>41.8</ele>
        <time>2021-08-05T09:51:53Z</time>
      </trkpt>
      <trkpt lat="47.63963" lon="-2.76907">
        <ele>41.6</ele>
        <time>2021-08-05T09:51:54Z</time>
      </trkpt>
      <trkpt lat="47.63951" lon="-2.76894">
        <ele>41.4</ele>
        <time>2021-08-05T09:51:56Z</time>
      </trkpt>
      <trkpt lat="47.63945" lon="-2.76887">
        <ele>41.2</ele>
        <time>2021-08-05T09:51:57Z</time>
      </trkpt>
      <trkpt lat="47.6394" lon="-2.76881">
        <ele>41.2</ele>
        <time>2021-08-05T09:51:58Z</time>
      </trkpt>
      <trkpt lat="47.63933" lon="-2.76874">
        <ele>41</ele>
        <time>2021-08-05T09:51:59Z</time>
      </trkpt>
      <trkpt lat="47.63927" lon="-2.76867">
        <ele>41</ele>
        <time>2021-08-05T09:52:00Z</time>
      </trkpt>
      <trkpt lat="47.63921" lon="-2.7686">
        <ele>40.8</ele>
        <time>2021-08-05T09:52:01Z</time>
      </trkpt>
      <trkpt lat="47.63915" lon="-2.76853">
        <ele>41</ele>
        <time>2021-08-05T09:52:02Z</time>
      </trkpt>
      <trkpt lat="47.6391" lon="-2.76847">
        <ele>41</ele>
        <time>2021-08-05T09:52:03Z</time>
      </trkpt>
      <trkpt lat="47.63905" lon="-2.76841">
        <ele>41</ele>
        <time>2021-08-05T09:52:04Z</time>
      </trkpt>
      <trkpt lat="47.639" lon="-2.76835">
        <ele>41</ele>
        <time>2021-08-05T09:52:05Z</time>
      </trkpt>
      <trkpt lat="47.63895" lon="-2.76828">
        <ele>40.8</ele>
        <time>2021-08-05T09:52:06Z</time>
      </trkpt>
      <trkpt lat="47.63892" lon="-2.76822">
        <ele>40.6</ele>
        <time>2021-08-05T09:52:07Z</time>
      </trkpt>
      <trkpt lat="47.63889" lon="-2.76817">
        <ele>40.4</ele>
        <time>2021-08-05T09:52:08Z</time>
      </trkpt>
      <trkpt lat="47.63887" lon="-2.76812">
        <ele>40.4</ele>
        <time>2021-08-05T09:52:09Z</time>
      </trkpt>
      <trkpt lat="47.63885" lon="-2.76808">
        <ele>40.2</ele>
        <time>2021-08-05T09:52:10Z</time>
      </trkpt>
      <trkpt lat="47.63884" lon="-2.76804">
        <ele>40.2</ele>
        <time>2021-08-05T09:52:11Z</time>
      </trkpt>
      <trkpt lat="47.63885" lon="-2.768">
        <ele>40.2</ele>
        <time>2021-08-05T09:52:12Z</time>
      </trkpt>
      <trkpt lat="47.63887" lon="-2.76797">
        <ele>40.2</ele>
        <time>2021-08-05T09:52:13Z</time>
      </trkpt>
      <trkpt lat="47.63889" lon="-2.76794">
        <ele>40.2</ele>
        <time>2021-08-05T09:52:14Z</time>
      </trkpt>
      <trkpt lat="47.63891" lon="-2.76791">
        <ele>40.2</ele>
        <time>2021-08-05T09:52:15Z</time>
      </trkpt>
      <trkpt lat="47.63893" lon="-2.76789">
        <ele>40.2</ele>
        <time>2021-08-05T09:52:16Z</time>
      </trkpt>
      <trkpt lat="47.63898" lon="-2.76788">
        <ele>40</ele>
        <time>2021-08-05T09:52:18Z</time>
      </trkpt>
      <trkpt lat="47.639" lon="-2.76788">
        <ele>40</ele>
        <time>2021-08-05T09:52:19Z</time>
      </trkpt>
      <trkpt lat="47.63902" lon="-2.76786">
        <ele>40</ele>
        <time>2021-08-05T09:52:20Z</time>
      </trkpt>
      <trkpt lat="47.63902" lon="-2.76783">
        <ele>40</ele>
        <time>2021-08-05T09:52:21Z</time>
      </trkpt>
      <trkpt lat="47.63902" lon="-2.76779">
        <ele>40</ele>
        <time>2021-08-05T09:52:22Z</time>
      </trkpt>
      <trkpt lat="47.63901" lon="-2.76775">
        <ele>40</ele>
        <time>2021-08-05T09:52:23Z</time>
      </trkpt>
      <trkpt lat="47.639" lon="-2.76771">
        <ele>39.8</ele>
        <time>2021-08-05T09:52:24Z</time>
      </trkpt>
      <trkpt lat="47.63899" lon="-2.76766">
        <ele>40</ele>
        <time>2021-08-05T09:52:25Z</time>
      </trkpt>
      <trkpt lat="47.63898" lon="-2.7676">
        <ele>40</ele>
        <time>2021-08-05T09:52:26Z</time>
      </trkpt>
      <trkpt lat="47.63897" lon="-2.76755">
        <ele>40</ele>
        <time>2021-08-05T09:52:27Z</time>
      </trkpt>
      <trkpt lat="47.63895" lon="-2.76746">
        <ele>40</ele>
        <time>2021-08-05T09:52:29Z</time>
      </trkpt>
      <trkpt lat="47.63894" lon="-2.76742">
        <ele>40</ele>
        <time>2021-08-05T09:52:30Z</time>
      </trkpt>
      <trkpt lat="47.63893" lon="-2.76738">
        <ele>40</ele>
        <time>2021-08-05T09:52:31Z</time>
      </trkpt>
      <trkpt lat="47.63892" lon="-2.76734">
        <ele>40</ele>
        <time>2021-08-05T09:52:32Z</time>
      </trkpt>
      <trkpt lat="47.63891" lon="-2.76731">
        <ele>40</ele>
        <time>2021-08-05T09:52:33Z</time>
      </trkpt>
      <trkpt lat="47.6389" lon="-2.76729">
        <ele>40</ele>
        <time>2021-08-05T09:52:34Z</time>
      </trkpt>
      <trkpt lat="47.63889" lon="-2.76728">
        <ele>39.8</ele>
        <time>2021-08-05T09:52:35Z</time>
      </trkpt>
      <trkpt lat="47.63888" lon="-2.76728">
        <ele>39.8</ele>
        <time>2021-08-05T09:52:36Z</time>
      </trkpt>
      <trkpt lat="47.63887" lon="-2.76726">
        <ele>39.8</ele>
        <time>2021-08-05T09:52:37Z</time>
      </trkpt>
      <trkpt lat="47.63886" lon="-2.76725">
        <ele>39.8</ele>
        <time>2021-08-05T09:52:38Z</time>
      </trkpt>
      <trkpt lat="47.63883" lon="-2.76722">
        <ele>39.8</ele>
        <time>2021-08-05T09:52:40Z</time>
      </trkpt>
      <trkpt lat="47.63881" lon="-2.7672">
        <ele>39.8</ele>
        <time>2021-08-05T09:52:41Z</time>
      </trkpt>
      <trkpt lat="47.63878" lon="-2.76718">
        <ele>39.8</ele>
        <time>2021-08-05T09:52:42Z</time>
      </trkpt>
      <trkpt lat="47.63875" lon="-2.76717">
        <ele>39.6</ele>
        <time>2021-08-05T09:52:43Z</time>
      </trkpt>
      <trkpt lat="47.63872" lon="-2.76716">
        <ele>39.8</ele>
        <time>2021-08-05T09:52:44Z</time>
      </trkpt>
      <trkpt lat="47.63869" lon="-2.76717">
        <ele>39.8</ele>
        <time>2021-08-05T09:52:45Z</time>
      </trkpt>
      <trkpt lat="47.63865" lon="-2.76718">
        <ele>39.8</ele>
        <time>2021-08-05T09:52:46Z</time>
      </trkpt>
      <trkpt lat="47.63862" lon="-2.76719">
        <ele>39.6</ele>
        <time>2021-08-05T09:52:47Z</time>
      </trkpt>
      <trkpt lat="47.63855" lon="-2.7672">
        <ele>39.6</ele>
        <time>2021-08-05T09:52:49Z</time>
      </trkpt>
      <trkpt lat="47.63851" lon="-2.76718">
        <ele>39.6</ele>
        <time>2021-08-05T09:52:50Z</time>
      </trkpt>
      <trkpt lat="47.63848" lon="-2.76717">
        <ele>39.4</ele>
        <time>2021-08-05T09:52:51Z</time>
      </trkpt>
      <trkpt lat="47.63844" lon="-2.76716">
        <ele>39.4</ele>
        <time>2021-08-05T09:52:52Z</time>
      </trkpt>
      <trkpt lat="47.6384" lon="-2.76715">
        <ele>39.6</ele>
        <time>2021-08-05T09:52:53Z</time>
      </trkpt>
      <trkpt lat="47.63838" lon="-2.76714">
        <ele>39.6</ele>
        <time>2021-08-05T09:52:54Z</time>
      </trkpt>
      <trkpt lat="47.63835" lon="-2.76713">
        <ele>39.4</ele>
        <time>2021-08-05T09:52:55Z</time>
      </trkpt>
      <trkpt lat="47.63833" lon="-2.76712">
        <ele>39.4</ele>
        <time>2021-08-05T09:52:56Z</time>
      </trkpt>
      <trkpt lat="47.6383" lon="-2.76711">
        <ele>39.4</ele>
        <time>2021-08-05T09:52:57Z</time>
      </trkpt>
      <trkpt lat="47.63828" lon="-2.7671">
        <ele>39.4</ele>
        <time>2021-08-05T09:52:58Z</time>
      </trkpt>
      <trkpt lat="47.63825" lon="-2.7671">
        <ele>39.4</ele>
        <time>2021-08-05T09:52:59Z</time>
      </trkpt>
      <trkpt lat="47.63822" lon="-2.76709">
        <ele>39.4</ele>
        <time>2021-08-05T09:53:00Z</time>
      </trkpt>
      <trkpt lat="47.63816" lon="-2.76706">
        <ele>39.2</ele>
        <time>2021-08-05T09:53:02Z</time>
      </trkpt>
      <trkpt lat="47.63813" lon="-2.76704">
        <ele>39.2</ele>
        <time>2021-08-05T09:53:03Z</time>
      </trkpt>
      <trkpt lat="47.6381" lon="-2.76702">
        <ele>39.2</ele>
        <time>2021-08-05T09:53:04Z</time>
      </trkpt>
      <trkpt lat="47.63808" lon="-2.767">
        <ele>39</ele>
        <time>2021-08-05T09:53:05Z</time>
      </trkpt>
      <trkpt lat="47.63806" lon="-2.76697">
        <ele>39</ele>
        <time>2021-08-05T09:53:06Z</time>
      </trkpt>
      <trkpt lat="47.63803" lon="-2.76694">
        <ele>38.8</ele>
        <time>2021-08-05T09:53:07Z</time>
      </trkpt>
      <trkpt lat="47.63801" lon="-2.76691">
        <ele>39</ele>
        <time>2021-08-05T09:53:08Z</time>
      </trkpt>
      <trkpt lat="47.63799" lon="-2.76688">
        <ele>39</ele>
        <time>2021-08-05T09:53:09Z</time>
      </trkpt>
      <trkpt lat="47.63798" lon="-2.76685">
        <ele>38.8</ele>
        <time>2021-08-05T09:53:10Z</time>
      </trkpt>
      <trkpt lat="47.63794" lon="-2.76679">
        <ele>38.8</ele>
        <time>2021-08-05T09:53:12Z</time>
      </trkpt>
      <trkpt lat="47.63793" lon="-2.76675">
        <ele>38.8</ele>
        <time>2021-08-05T09:53:13Z</time>
      </trkpt>
      <trkpt lat="47.63792" lon="-2.76671">
        <ele>38.8</ele>
        <time>2021-08-05T09:53:14Z</time>
      </trkpt>
      <trkpt lat="47.63791" lon="-2.76667">
        <ele>38.6</ele>
        <time>2021-08-05T09:53:15Z</time>
      </trkpt>
      <trkpt lat="47.63791" lon="-2.76663">
        <ele>38.6</ele>
        <time>2021-08-05T09:53:16Z</time>
      </trkpt>
      <trkpt lat="47.63791" lon="-2.76659">
        <ele>38.8</ele>
        <time>2021-08-05T09:53:17Z</time>
      </trkpt>
      <trkpt lat="47.63791" lon="-2.76655">
        <ele>38.6</ele>
        <time>2021-08-05T09:53:18Z</time>
      </trkpt>
      <trkpt lat="47.63791" lon="-2.76652">
        <ele>38.6</ele>
        <time>2021-08-05T09:53:19Z</time>
      </trkpt>
      <trkpt lat="47.63791" lon="-2.76649">
        <ele>38.6</ele>
        <time>2021-08-05T09:53:20Z</time>
      </trkpt>
      <trkpt lat="47.63792" lon="-2.76646">
        <ele>38.6</ele>
        <time>2021-08-05T09:53:21Z</time>
      </trkpt>
      <trkpt lat="47.63793" lon="-2.76639">
        <ele>38.8</ele>
        <time>2021-08-05T09:53:23Z</time>
      </trkpt>
      <trkpt lat="47.63792" lon="-2.76636">
        <ele>38.8</ele>
        <time>2021-08-05T09:53:24Z</time>
      </trkpt>
      <trkpt lat="47.63792" lon="-2.76632">
        <ele>38.8</ele>
        <time>2021-08-05T09:53:25Z</time>
      </trkpt>
      <trkpt lat="47.63792" lon="-2.76629">
        <ele>39</ele>
        <time>2021-08-05T09:53:26Z</time>
      </trkpt>
      <trkpt lat="47.63793" lon="-2.76627">
        <ele>39</ele>
        <time>2021-08-05T09:53:27Z</time>
      </trkpt>
      <trkpt lat="47.63795" lon="-2.76624">
        <ele>39</ele>
        <time>2021-08-05T09:53:28Z</time>
      </trkpt>
      <trkpt lat="47.63796" lon="-2.76622">
        <ele>39</ele>
        <time>2021-08-05T09:53:29Z</time>
      </trkpt>
      <trkpt lat="47.63798" lon="-2.7662">
        <ele>39</ele>
        <time>2021-08-05T09:53:30Z</time>
      </trkpt>
      <trkpt lat="47.638" lon="-2.76618">
        <ele>39</ele>
        <time>2021-08-05T09:53:31Z</time>
      </trkpt>
      <trkpt lat="47.63802" lon="-2.76616">
        <ele>39</ele>
        <time>2021-08-05T09:53:32Z</time>
      </trkpt>
      <trkpt lat="47.63804" lon="-2.76614">
        <ele>39</ele>
        <time>2021-08-05T09:53:33Z</time>
      </trkpt>
      <trkpt lat="47.63811" lon="-2.7661">
        <ele>39.2</ele>
        <time>2021-08-05T09:53:35Z</time>
      </trkpt>
      <trkpt lat="47.63814" lon="-2.76606">
        <ele>39</ele>
        <time>2021-08-05T09:53:36Z</time>
      </trkpt>
      <trkpt lat="47.63817" lon="-2.76602">
        <ele>39</ele>
        <time>2021-08-05T09:53:37Z</time>
      </trkpt>
      <trkpt lat="47.6382" lon="-2.76599">
        <ele>39</ele>
        <time>2021-08-05T09:53:38Z</time>
      </trkpt>
      <trkpt lat="47.63824" lon="-2.76596">
        <ele>39</ele>
        <time>2021-08-05T09:53:39Z</time>
      </trkpt>
      <trkpt lat="47.63828" lon="-2.76593">
        <ele>39</ele>
        <time>2021-08-05T09:53:40Z</time>
      </trkpt>
      <trkpt lat="47.63831" lon="-2.76589">
        <ele>39</ele>
        <time>2021-08-05T09:53:41Z</time>
      </trkpt>
      <trkpt lat="47.63835" lon="-2.76587">
        <ele>39</ele>
        <time>2021-08-05T09:53:42Z</time>
      </trkpt>
      <trkpt lat="47.63838" lon="-2.76585">
        <ele>38.8</ele>
        <time>2021-08-05T09:53:43Z</time>
      </trkpt>
      <trkpt lat="47.63841" lon="-2.76582">
        <ele>38.8</ele>
        <time>2021-08-05T09:53:44Z</time>
      </trkpt>
      <trkpt lat="47.63847" lon="-2.76579">
        <ele>38.6</ele>
        <time>2021-08-05T09:53:46Z</time>
      </trkpt>
      <trkpt lat="47.63849" lon="-2.76577">
        <ele>38.6</ele>
        <time>2021-08-05T09:53:47Z</time>
      </trkpt>
      <trkpt lat="47.63852" lon="-2.76576">
        <ele>38.4</ele>
        <time>2021-08-05T09:53:48Z</time>
      </trkpt>
      <trkpt lat="47.63854" lon="-2.76576">
        <ele>38.4</ele>
        <time>2021-08-05T09:53:49Z</time>
      </trkpt>
      <trkpt lat="47.63857" lon="-2.76575">
        <ele>38.4</ele>
        <time>2021-08-05T09:53:50Z</time>
      </trkpt>
      <trkpt lat="47.6386" lon="-2.76575">
        <ele>38.4</ele>
        <time>2021-08-05T09:53:51Z</time>
      </trkpt>
      <trkpt lat="47.63862" lon="-2.76574">
        <ele>38.4</ele>
        <time>2021-08-05T09:53:52Z</time>
      </trkpt>
      <trkpt lat="47.63865" lon="-2.76573">
        <ele>38.4</ele>
        <time>2021-08-05T09:53:53Z</time>
      </trkpt>
      <trkpt lat="47.63868" lon="-2.76572">
        <ele>38.2</ele>
        <time>2021-08-05T09:53:54Z</time>
      </trkpt>
      <trkpt lat="47.63872" lon="-2.7657">
        <ele>38.2</ele>
        <time>2021-08-05T09:53:55Z</time>
      </trkpt>
      <trkpt lat="47.63874" lon="-2.76567">
        <ele>38.2</ele>
        <time>2021-08-05T09:53:56Z</time>
      </trkpt>
      <trkpt lat="47.63876" lon="-2.76562">
        <ele>38</ele>
        <time>2021-08-05T09:53:57Z</time>
      </trkpt>
      <trkpt lat="47.63876" lon="-2.76556">
        <ele>38</ele>
        <time>2021-08-05T09:53:58Z</time>
      </trkpt>
      <trkpt lat="47.63876" lon="-2.7655">
        <ele>38</ele>
        <time>2021-08-05T09:53:59Z</time>
      </trkpt>
      <trkpt lat="47.63875" lon="-2.76544">
        <ele>38</ele>
        <time>2021-08-05T09:54:00Z</time>
      </trkpt>
      <trkpt lat="47.63874" lon="-2.76537">
        <ele>38</ele>
        <time>2021-08-05T09:54:01Z</time>
      </trkpt>
      <trkpt lat="47.63873" lon="-2.76531">
        <ele>38</ele>
        <time>2021-08-05T09:54:02Z</time>
      </trkpt>
      <trkpt lat="47.63872" lon="-2.76524">
        <ele>38</ele>
        <time>2021-08-05T09:54:03Z</time>
      </trkpt>
      <trkpt lat="47.63871" lon="-2.76518">
        <ele>38</ele>
        <time>2021-08-05T09:54:04Z</time>
      </trkpt>
      <trkpt lat="47.63869" lon="-2.76511">
        <ele>37.8</ele>
        <time>2021-08-05T09:54:05Z</time>
      </trkpt>
      <trkpt lat="47.63868" lon="-2.76504">
        <ele>37.8</ele>
        <time>2021-08-05T09:54:06Z</time>
      </trkpt>
      <trkpt lat="47.63865" lon="-2.76498">
        <ele>37.6</ele>
        <time>2021-08-05T09:54:07Z</time>
      </trkpt>
      <trkpt lat="47.63862" lon="-2.76493">
        <ele>37.4</ele>
        <time>2021-08-05T09:54:08Z</time>
      </trkpt>
      <trkpt lat="47.63859" lon="-2.76488">
        <ele>37.4</ele>
        <time>2021-08-05T09:54:09Z</time>
      </trkpt>
      <trkpt lat="47.63856" lon="-2.76482">
        <ele>37.2</ele>
        <time>2021-08-05T09:54:10Z</time>
      </trkpt>
      <trkpt lat="47.63855" lon="-2.76476">
        <ele>37.2</ele>
        <time>2021-08-05T09:54:11Z</time>
      </trkpt>
      <trkpt lat="47.63854" lon="-2.76469">
        <ele>37</ele>
        <time>2021-08-05T09:54:12Z</time>
      </trkpt>
      <trkpt lat="47.63854" lon="-2.76463">
        <ele>36.8</ele>
        <time>2021-08-05T09:54:13Z</time>
      </trkpt>
      <trkpt lat="47.63855" lon="-2.76457">
        <ele>36.8</ele>
        <time>2021-08-05T09:54:14Z</time>
      </trkpt>
      <trkpt lat="47.63856" lon="-2.76452">
        <ele>36.6</ele>
        <time>2021-08-05T09:54:15Z</time>
      </trkpt>
      <trkpt lat="47.63858" lon="-2.76447">
        <ele>36.4</ele>
        <time>2021-08-05T09:54:16Z</time>
      </trkpt>
      <trkpt lat="47.63863" lon="-2.76439">
        <ele>36.2</ele>
        <time>2021-08-05T09:54:18Z</time>
      </trkpt>
      <trkpt lat="47.63866" lon="-2.76437">
        <ele>36.2</ele>
        <time>2021-08-05T09:54:19Z</time>
      </trkpt>
      <trkpt lat="47.63868" lon="-2.76435">
        <ele>36</ele>
        <time>2021-08-05T09:54:20Z</time>
      </trkpt>
      <trkpt lat="47.63869" lon="-2.76432">
        <ele>36.2</ele>
        <time>2021-08-05T09:54:21Z</time>
      </trkpt>
      <trkpt lat="47.6387" lon="-2.76431">
        <ele>36</ele>
        <time>2021-08-05T09:54:22Z</time>
      </trkpt>
      <trkpt lat="47.6387" lon="-2.76429">
        <ele>36</ele>
        <time>2021-08-05T09:54:23Z</time>
      </trkpt>
      <trkpt lat="47.6387" lon="-2.76429">
        <ele>36</ele>
        <time>2021-08-05T09:54:24Z</time>
      </trkpt>
      <trkpt lat="47.6387" lon="-2.76429">
        <ele>35.8</ele>
        <time>2021-08-05T09:54:25Z</time>
      </trkpt>
      <trkpt lat="47.6387" lon="-2.76429">
        <ele>35.8</ele>
        <time>2021-08-05T09:54:26Z</time>
      </trkpt>
      <trkpt lat="47.63873" lon="-2.76428">
        <ele>35</ele>
        <time>2021-08-05T09:54:38Z</time>
      </trkpt>
      <trkpt lat="47.63875" lon="-2.76429">
        <ele>35</ele>
        <time>2021-08-05T09:54:39Z</time>
      </trkpt>
      <trkpt lat="47.63879" lon="-2.76429">
        <ele>34.8</ele>
        <time>2021-08-05T09:54:41Z</time>
      </trkpt>
      <trkpt lat="47.63884" lon="-2.76429">
        <ele>34.6</ele>
        <time>2021-08-05T09:54:43Z</time>
      </trkpt>
      <trkpt lat="47.63886" lon="-2.76429">
        <ele>34.6</ele>
        <time>2021-08-05T09:54:44Z</time>
      </trkpt>
      <trkpt lat="47.63889" lon="-2.76428">
        <ele>34.4</ele>
        <time>2021-08-05T09:54:45Z</time>
      </trkpt>
      <trkpt lat="47.6389" lon="-2.76425">
        <ele>34.4</ele>
        <time>2021-08-05T09:54:46Z</time>
      </trkpt>
      <trkpt lat="47.63891" lon="-2.76422">
        <ele>34.2</ele>
        <time>2021-08-05T09:54:47Z</time>
      </trkpt>
      <trkpt lat="47.63892" lon="-2.76419">
        <ele>34.2</ele>
        <time>2021-08-05T09:54:48Z</time>
      </trkpt>
      <trkpt lat="47.63895" lon="-2.76413">
        <ele>34</ele>
        <time>2021-08-05T09:54:50Z</time>
      </trkpt>
      <trkpt lat="47.63896" lon="-2.76409">
        <ele>34</ele>
        <time>2021-08-05T09:54:51Z</time>
      </trkpt>
      <trkpt lat="47.63898" lon="-2.76406">
        <ele>33.8</ele>
        <time>2021-08-05T09:54:52Z</time>
      </trkpt>
      <trkpt lat="47.639" lon="-2.76402">
        <ele>33.6</ele>
        <time>2021-08-05T09:54:53Z</time>
      </trkpt>
      <trkpt lat="47.63902" lon="-2.76398">
        <ele>33.4</ele>
        <time>2021-08-05T09:54:54Z</time>
      </trkpt>
      <trkpt lat="47.63905" lon="-2.76395">
        <ele>33.2</ele>
        <time>2021-08-05T09:54:55Z</time>
      </trkpt>
      <trkpt lat="47.63908" lon="-2.76391">
        <ele>33.2</ele>
        <time>2021-08-05T09:54:56Z</time>
      </trkpt>
      <trkpt lat="47.6391" lon="-2.76387">
        <ele>33</ele>
        <time>2021-08-05T09:54:57Z</time>
      </trkpt>
      <trkpt lat="47.63913" lon="-2.76383">
        <ele>33</ele>
        <time>2021-08-05T09:54:58Z</time>
      </trkpt>
      <trkpt lat="47.63916" lon="-2.76379">
        <ele>32.8</ele>
        <time>2021-08-05T09:54:59Z</time>
      </trkpt>
      <trkpt lat="47.63919" lon="-2.76375">
        <ele>32.6</ele>
        <time>2021-08-05T09:55:00Z</time>
      </trkpt>
      <trkpt lat="47.63923" lon="-2.7637">
        <ele>32.6</ele>
        <time>2021-08-05T09:55:01Z</time>
      </trkpt>
      <trkpt lat="47.63926" lon="-2.76365">
        <ele>32.4</ele>
        <time>2021-08-05T09:55:02Z</time>
      </trkpt>
      <trkpt lat="47.6393" lon="-2.76359">
        <ele>32.4</ele>
        <time>2021-08-05T09:55:03Z</time>
      </trkpt>
      <trkpt lat="47.63934" lon="-2.76354">
        <ele>32.2</ele>
        <time>2021-08-05T09:55:04Z</time>
      </trkpt>
      <trkpt lat="47.63938" lon="-2.76347">
        <ele>32</ele>
        <time>2021-08-05T09:55:05Z</time>
      </trkpt>
      <trkpt lat="47.63943" lon="-2.7634">
        <ele>32</ele>
        <time>2021-08-05T09:55:06Z</time>
      </trkpt>
      <trkpt lat="47.63947" lon="-2.76332">
        <ele>31.8</ele>
        <time>2021-08-05T09:55:07Z</time>
      </trkpt>
      <trkpt lat="47.63952" lon="-2.76324">
        <ele>31.8</ele>
        <time>2021-08-05T09:55:08Z</time>
      </trkpt>
      <trkpt lat="47.63956" lon="-2.76315">
        <ele>31.8</ele>
        <time>2021-08-05T09:55:09Z</time>
      </trkpt>
      <trkpt lat="47.63966" lon="-2.76296">
        <ele>31.6</ele>
        <time>2021-08-05T09:55:11Z</time>
      </trkpt>
      <trkpt lat="47.63971" lon="-2.76285">
        <ele>31.8</ele>
        <time>2021-08-05T09:55:12Z</time>
      </trkpt>
      <trkpt lat="47.63976" lon="-2.76274">
        <ele>31.8</ele>
        <time>2021-08-05T09:55:13Z</time>
      </trkpt>
      <trkpt lat="47.63981" lon="-2.76263">
        <ele>31.6</ele>
        <time>2021-08-05T09:55:14Z</time>
      </trkpt>
      <trkpt lat="47.63985" lon="-2.76252">
        <ele>31.8</ele>
        <time>2021-08-05T09:55:15Z</time>
      </trkpt>
      <trkpt lat="47.6399" lon="-2.76242">
        <ele>31.8</ele>
        <time>2021-08-05T09:55:16Z</time>
      </trkpt>
      <trkpt lat="47.63994" lon="-2.76231">
        <ele>31.6</ele>
        <time>2021-08-05T09:55:17Z</time>
      </trkpt>
      <trkpt lat="47.63998" lon="-2.7622">
        <ele>31.6</ele>
        <time>2021-08-05T09:55:18Z</time>
      </trkpt>
      <trkpt lat="47.64002" lon="-2.7621">
        <ele>31.6</ele>
        <time>2021-08-05T09:55:19Z</time>
      </trkpt>
      <trkpt lat="47.64002" lon="-2.7621">
        <ele>31.6</ele>
        <time>2021-08-05T09:55:20Z</time>
      </trkpt>
      <trkpt lat="47.64002" lon="-2.7621">
        <ele>31.6</ele>
        <time>2021-08-05T09:55:21Z</time>
      </trkpt>
      <trkpt lat="47.64002" lon="-2.7621">
        <ele>31.6</ele>
        <time>2021-08-05T09:55:23Z</time>
      </trkpt>
      <trkpt lat="47.64002" lon="-2.7621">
        <ele>31.6</ele>
        <time>2021-08-05T09:55:24Z</time>
      </trkpt>
      <trkpt lat="47.64002" lon="-2.7621">
        <ele>31.6</ele>
        <time>2021-08-05T09:55:26Z</time>
      </trkpt>
      <trkpt lat="47.64002" lon="-2.7621">
        <ele>31.6</ele>
        <time>2021-08-05T09:55:27Z</time>
      </trkpt>
      <trkpt lat="47.64002" lon="-2.7621">
        <ele>31.6</ele>
        <time>2021-08-05T09:55:28Z</time>
      </trkpt>
      <trkpt lat="47.64002" lon="-2.7621">
        <ele>31.8</ele>
        <time>2021-08-05T09:55:29Z</time>
      </trkpt>
      <trkpt lat="47.64002" lon="-2.7621">
        <ele>31.8</ele>
        <time>2021-08-05T09:55:30Z</time>
      </trkpt>
      <trkpt lat="47.64002" lon="-2.7621">
        <ele>32</ele>
        <time>2021-08-05T09:55:31Z</time>
      </trkpt>
      <trkpt lat="47.64002" lon="-2.7621">
        <ele>32</ele>
        <time>2021-08-05T09:55:33Z</time>
      </trkpt>
      <trkpt lat="47.64002" lon="-2.7621">
        <ele>32.2</ele>
        <time>2021-08-05T09:55:34Z</time>
      </trkpt>
      <trkpt lat="47.64002" lon="-2.7621">
        <ele>32.2</ele>
        <time>2021-08-05T09:55:35Z</time>
      </trkpt>
      <trkpt lat="47.64002" lon="-2.7621">
        <ele>32.4</ele>
        <time>2021-08-05T09:55:36Z</time>
      </trkpt>
      <trkpt lat="47.64002" lon="-2.7621">
        <ele>32.4</ele>
        <time>2021-08-05T09:55:37Z</time>
      </trkpt>
      <trkpt lat="47.64002" lon="-2.7621">
        <ele>32.6</ele>
        <time>2021-08-05T09:55:38Z</time>
      </trkpt>
      <trkpt lat="47.64002" lon="-2.7621">
        <ele>32.6</ele>
        <time>2021-08-05T09:55:39Z</time>
      </trkpt>
      <trkpt lat="47.64002" lon="-2.7621">
        <ele>32.6</ele>
        <time>2021-08-05T09:55:40Z</time>
      </trkpt>
      <trkpt lat="47.64002" lon="-2.7621">
        <ele>32.6</ele>
        <time>2021-08-05T09:55:41Z</time>
      </trkpt>
      <trkpt lat="47.64002" lon="-2.7621">
        <ele>32.8</ele>
        <time>2021-08-05T09:55:42Z</time>
      </trkpt>
      <trkpt lat="47.64002" lon="-2.7621">
        <ele>33</ele>
        <time>2021-08-05T09:55:44Z</time>
      </trkpt>
      <trkpt lat="47.64002" lon="-2.7621">
        <ele>33</ele>
        <time>2021-08-05T09:55:45Z</time>
      </trkpt>
      <trkpt lat="47.64002" lon="-2.7621">
        <ele>33.2</ele>
        <time>2021-08-05T09:55:46Z</time>
      </trkpt>
      <trkpt lat="47.64002" lon="-2.7621">
        <ele>33.2</ele>
        <time>2021-08-05T09:55:47Z</time>
      </trkpt>
      <trkpt lat="47.64002" lon="-2.7621">
        <ele>33.4</ele>
        <time>2021-08-05T09:55:48Z</time>
      </trkpt>
      <trkpt lat="47.6402" lon="-2.75938">
        <ele>33.4</ele>
        <time>2021-08-05T09:55:50Z</time>
      </trkpt>
      <trkpt lat="47.64021" lon="-2.75929">
        <ele>33.6</ele>
        <time>2021-08-05T09:55:51Z</time>
      </trkpt>
      <trkpt lat="47.64022" lon="-2.75925">
        <ele>33.6</ele>
        <time>2021-08-05T09:55:52Z</time>
      </trkpt>
      <trkpt lat="47.64022" lon="-2.75916">
        <ele>34</ele>
        <time>2021-08-05T09:55:54Z</time>
      </trkpt>
      <trkpt lat="47.64021" lon="-2.75907">
        <ele>34</ele>
        <time>2021-08-05T09:55:56Z</time>
      </trkpt>
      <trkpt lat="47.64022" lon="-2.75903">
        <ele>34</ele>
        <time>2021-08-05T09:55:57Z</time>
      </trkpt>
      <trkpt lat="47.64022" lon="-2.75899">
        <ele>34</ele>
        <time>2021-08-05T09:55:58Z</time>
      </trkpt>
      <trkpt lat="47.64023" lon="-2.75895">
        <ele>34</ele>
        <time>2021-08-05T09:55:59Z</time>
      </trkpt>
      <trkpt lat="47.64023" lon="-2.75891">
        <ele>34</ele>
        <time>2021-08-05T09:56:00Z</time>
      </trkpt>
      <trkpt lat="47.64024" lon="-2.75887">
        <ele>34</ele>
        <time>2021-08-05T09:56:01Z</time>
      </trkpt>
      <trkpt lat="47.64024" lon="-2.75884">
        <ele>33.8</ele>
        <time>2021-08-05T09:56:02Z</time>
      </trkpt>
      <trkpt lat="47.64025" lon="-2.7588">
        <ele>33.8</ele>
        <time>2021-08-05T09:56:03Z</time>
      </trkpt>
      <trkpt lat="47.64025" lon="-2.75876">
        <ele>33.6</ele>
        <time>2021-08-05T09:56:04Z</time>
      </trkpt>
      <trkpt lat="47.64026" lon="-2.75872">
        <ele>33.6</ele>
        <time>2021-08-05T09:56:05Z</time>
      </trkpt>
      <trkpt lat="47.64027" lon="-2.75868">
        <ele>33.4</ele>
        <time>2021-08-05T09:56:06Z</time>
      </trkpt>
      <trkpt lat="47.64028" lon="-2.75865">
        <ele>33.4</ele>
        <time>2021-08-05T09:56:07Z</time>
      </trkpt>
      <trkpt lat="47.64028" lon="-2.75861">
        <ele>33.2</ele>
        <time>2021-08-05T09:56:08Z</time>
      </trkpt>
      <trkpt lat="47.64029" lon="-2.75857">
        <ele>33.2</ele>
        <time>2021-08-05T09:56:09Z</time>
      </trkpt>
      <trkpt lat="47.64029" lon="-2.75853">
        <ele>33</ele>
        <time>2021-08-05T09:56:10Z</time>
      </trkpt>
      <trkpt lat="47.6403" lon="-2.7585">
        <ele>32.8</ele>
        <time>2021-08-05T09:56:11Z</time>
      </trkpt>
      <trkpt lat="47.64031" lon="-2.75846">
        <ele>32.8</ele>
        <time>2021-08-05T09:56:12Z</time>
      </trkpt>
      <trkpt lat="47.64032" lon="-2.75842">
        <ele>32.6</ele>
        <time>2021-08-05T09:56:13Z</time>
      </trkpt>
      <trkpt lat="47.64032" lon="-2.75839">
        <ele>32.6</ele>
        <time>2021-08-05T09:56:14Z</time>
      </trkpt>
      <trkpt lat="47.64033" lon="-2.75835">
        <ele>32.4</ele>
        <time>2021-08-05T09:56:15Z</time>
      </trkpt>
      <trkpt lat="47.64034" lon="-2.75831">
        <ele>32.2</ele>
        <time>2021-08-05T09:56:16Z</time>
      </trkpt>
      <trkpt lat="47.64036" lon="-2.75824">
        <ele>32.2</ele>
        <time>2021-08-05T09:56:18Z</time>
      </trkpt>
      <trkpt lat="47.64037" lon="-2.7582">
        <ele>32.2</ele>
        <time>2021-08-05T09:56:19Z</time>
      </trkpt>
      <trkpt lat="47.64037" lon="-2.75816">
        <ele>32</ele>
        <time>2021-08-05T09:56:20Z</time>
      </trkpt>
      <trkpt lat="47.64038" lon="-2.75812">
        <ele>32</ele>
        <time>2021-08-05T09:56:21Z</time>
      </trkpt>
      <trkpt lat="47.64039" lon="-2.75809">
        <ele>32</ele>
        <time>2021-08-05T09:56:22Z</time>
      </trkpt>
      <trkpt lat="47.6404" lon="-2.75805">
        <ele>32.2</ele>
        <time>2021-08-05T09:56:23Z</time>
      </trkpt>
      <trkpt lat="47.6404" lon="-2.75801">
        <ele>32.2</ele>
        <time>2021-08-05T09:56:24Z</time>
      </trkpt>
      <trkpt lat="47.64041" lon="-2.75797">
        <ele>32.2</ele>
        <time>2021-08-05T09:56:25Z</time>
      </trkpt>
      <trkpt lat="47.64042" lon="-2.75794">
        <ele>32.2</ele>
        <time>2021-08-05T09:56:26Z</time>
      </trkpt>
      <trkpt lat="47.64043" lon="-2.7579">
        <ele>32.2</ele>
        <time>2021-08-05T09:56:27Z</time>
      </trkpt>
      <trkpt lat="47.64045" lon="-2.75783">
        <ele>32</ele>
        <time>2021-08-05T09:56:29Z</time>
      </trkpt>
      <trkpt lat="47.64046" lon="-2.75779">
        <ele>32</ele>
        <time>2021-08-05T09:56:30Z</time>
      </trkpt>
      <trkpt lat="47.64046" lon="-2.75776">
        <ele>32</ele>
        <time>2021-08-05T09:56:31Z</time>
      </trkpt>
      <trkpt lat="47.64047" lon="-2.75772">
        <ele>32</ele>
        <time>2021-08-05T09:56:32Z</time>
      </trkpt>
      <trkpt lat="47.64048" lon="-2.75769">
        <ele>32</ele>
        <time>2021-08-05T09:56:33Z</time>
      </trkpt>
      <trkpt lat="47.64049" lon="-2.75765">
        <ele>32</ele>
        <time>2021-08-05T09:56:34Z</time>
      </trkpt>
      <trkpt lat="47.6405" lon="-2.75762">
        <ele>32.2</ele>
        <time>2021-08-05T09:56:35Z</time>
      </trkpt>
      <trkpt lat="47.64051" lon="-2.75758">
        <ele>31.8</ele>
        <time>2021-08-05T09:56:36Z</time>
      </trkpt>
      <trkpt lat="47.64052" lon="-2.75754">
        <ele>31.8</ele>
        <time>2021-08-05T09:56:37Z</time>
      </trkpt>
      <trkpt lat="47.64053" lon="-2.75751">
        <ele>32</ele>
        <time>2021-08-05T09:56:38Z</time>
      </trkpt>
      <trkpt lat="47.64056" lon="-2.75747">
        <ele>32</ele>
        <time>2021-08-05T09:56:40Z</time>
      </trkpt>
      <trkpt lat="47.64057" lon="-2.75746">
        <ele>32</ele>
        <time>2021-08-05T09:56:41Z</time>
      </trkpt>
      <trkpt lat="47.64058" lon="-2.75744">
        <ele>32</ele>
        <time>2021-08-05T09:56:42Z</time>
      </trkpt>
      <trkpt lat="47.6406" lon="-2.75742">
        <ele>32</ele>
        <time>2021-08-05T09:56:43Z</time>
      </trkpt>
      <trkpt lat="47.64061" lon="-2.7574">
        <ele>32</ele>
        <time>2021-08-05T09:56:44Z</time>
      </trkpt>
      <trkpt lat="47.64063" lon="-2.75739">
        <ele>32</ele>
        <time>2021-08-05T09:56:45Z</time>
      </trkpt>
      <trkpt lat="47.64064" lon="-2.75736">
        <ele>32</ele>
        <time>2021-08-05T09:56:46Z</time>
      </trkpt>
      <trkpt lat="47.64065" lon="-2.75733">
        <ele>31.8</ele>
        <time>2021-08-05T09:56:47Z</time>
      </trkpt>
      <trkpt lat="47.64066" lon="-2.7573">
        <ele>31.8</ele>
        <time>2021-08-05T09:56:48Z</time>
      </trkpt>
      <trkpt lat="47.64067" lon="-2.75728">
        <ele>31.8</ele>
        <time>2021-08-05T09:56:49Z</time>
      </trkpt>
      <trkpt lat="47.64067" lon="-2.75722">
        <ele>31.6</ele>
        <time>2021-08-05T09:56:51Z</time>
      </trkpt>
      <trkpt lat="47.64068" lon="-2.7572">
        <ele>31.6</ele>
        <time>2021-08-05T09:56:52Z</time>
      </trkpt>
      <trkpt lat="47.64068" lon="-2.75717">
        <ele>31.6</ele>
        <time>2021-08-05T09:56:53Z</time>
      </trkpt>
      <trkpt lat="47.64069" lon="-2.75714">
        <ele>31.6</ele>
        <time>2021-08-05T09:56:54Z</time>
      </trkpt>
      <trkpt lat="47.6407" lon="-2.75711">
        <ele>31.4</ele>
        <time>2021-08-05T09:56:55Z</time>
      </trkpt>
      <trkpt lat="47.64071" lon="-2.75708">
        <ele>31.4</ele>
        <time>2021-08-05T09:56:56Z</time>
      </trkpt>
      <trkpt lat="47.64072" lon="-2.75705">
        <ele>31.4</ele>
        <time>2021-08-05T09:56:57Z</time>
      </trkpt>
      <trkpt lat="47.64073" lon="-2.75702">
        <ele>31.4</ele>
        <time>2021-08-05T09:56:58Z</time>
      </trkpt>
      <trkpt lat="47.64074" lon="-2.75699">
        <ele>31.4</ele>
        <time>2021-08-05T09:56:59Z</time>
      </trkpt>
      <trkpt lat="47.64076" lon="-2.75695">
        <ele>31.4</ele>
        <time>2021-08-05T09:57:00Z</time>
      </trkpt>
      <trkpt lat="47.64079" lon="-2.75689">
        <ele>31.2</ele>
        <time>2021-08-05T09:57:02Z</time>
      </trkpt>
      <trkpt lat="47.6408" lon="-2.75686">
        <ele>31.2</ele>
        <time>2021-08-05T09:57:03Z</time>
      </trkpt>
      <trkpt lat="47.64082" lon="-2.75683">
        <ele>31.2</ele>
        <time>2021-08-05T09:57:04Z</time>
      </trkpt>
      <trkpt lat="47.64083" lon="-2.7568">
        <ele>31.2</ele>
        <time>2021-08-05T09:57:05Z</time>
      </trkpt>
      <trkpt lat="47.64084" lon="-2.75677">
        <ele>31</ele>
        <time>2021-08-05T09:57:06Z</time>
      </trkpt>
      <trkpt lat="47.64086" lon="-2.75674">
        <ele>31</ele>
        <time>2021-08-05T09:57:07Z</time>
      </trkpt>
      <trkpt lat="47.64088" lon="-2.75671">
        <ele>31</ele>
        <time>2021-08-05T09:57:08Z</time>
      </trkpt>
      <trkpt lat="47.64089" lon="-2.75668">
        <ele>30.8</ele>
        <time>2021-08-05T09:57:09Z</time>
      </trkpt>
      <trkpt lat="47.64091" lon="-2.75665">
        <ele>30.6</ele>
        <time>2021-08-05T09:57:10Z</time>
      </trkpt>
      <trkpt lat="47.64093" lon="-2.75662">
        <ele>30.6</ele>
        <time>2021-08-05T09:57:11Z</time>
      </trkpt>
      <trkpt lat="47.64097" lon="-2.75657">
        <ele>30.4</ele>
        <time>2021-08-05T09:57:13Z</time>
      </trkpt>
      <trkpt lat="47.64099" lon="-2.75654">
        <ele>30.4</ele>
        <time>2021-08-05T09:57:14Z</time>
      </trkpt>
      <trkpt lat="47.64101" lon="-2.75651">
        <ele>30.4</ele>
        <time>2021-08-05T09:57:15Z</time>
      </trkpt>
      <trkpt lat="47.64103" lon="-2.75649">
        <ele>30.4</ele>
        <time>2021-08-05T09:57:16Z</time>
      </trkpt>
      <trkpt lat="47.64104" lon="-2.75646">
        <ele>30.4</ele>
        <time>2021-08-05T09:57:17Z</time>
      </trkpt>
      <trkpt lat="47.64106" lon="-2.75643">
        <ele>30.4</ele>
        <time>2021-08-05T09:57:18Z</time>
      </trkpt>
      <trkpt lat="47.64108" lon="-2.75641">
        <ele>30.4</ele>
        <time>2021-08-05T09:57:19Z</time>
      </trkpt>
      <trkpt lat="47.6411" lon="-2.75639">
        <ele>30.4</ele>
        <time>2021-08-05T09:57:20Z</time>
      </trkpt>
      <trkpt lat="47.64112" lon="-2.75637">
        <ele>30.4</ele>
        <time>2021-08-05T09:57:21Z</time>
      </trkpt>
      <trkpt lat="47.64114" lon="-2.75634">
        <ele>30.4</ele>
        <time>2021-08-05T09:57:22Z</time>
      </trkpt>
      <trkpt lat="47.64115" lon="-2.75633">
        <ele>30.4</ele>
        <time>2021-08-05T09:57:23Z</time>
      </trkpt>
      <trkpt lat="47.64118" lon="-2.7563">
        <ele>30.4</ele>
        <time>2021-08-05T09:57:24Z</time>
      </trkpt>
      <trkpt lat="47.6412" lon="-2.75628">
        <ele>30.4</ele>
        <time>2021-08-05T09:57:25Z</time>
      </trkpt>
      <trkpt lat="47.64123" lon="-2.75626">
        <ele>30.4</ele>
        <time>2021-08-05T09:57:26Z</time>
      </trkpt>
      <trkpt lat="47.64125" lon="-2.75623">
        <ele>30.4</ele>
        <time>2021-08-05T09:57:27Z</time>
      </trkpt>
      <trkpt lat="47.64128" lon="-2.7562">
        <ele>30.4</ele>
        <time>2021-08-05T09:57:28Z</time>
      </trkpt>
      <trkpt lat="47.64131" lon="-2.75617">
        <ele>30.4</ele>
        <time>2021-08-05T09:57:29Z</time>
      </trkpt>
      <trkpt lat="47.64133" lon="-2.75614">
        <ele>30.4</ele>
        <time>2021-08-05T09:57:30Z</time>
      </trkpt>
      <trkpt lat="47.64136" lon="-2.75611">
        <ele>30.4</ele>
        <time>2021-08-05T09:57:31Z</time>
      </trkpt>
      <trkpt lat="47.64139" lon="-2.75608">
        <ele>30.4</ele>
        <time>2021-08-05T09:57:32Z</time>
      </trkpt>
      <trkpt lat="47.64142" lon="-2.75605">
        <ele>30.6</ele>
        <time>2021-08-05T09:57:33Z</time>
      </trkpt>
      <trkpt lat="47.64148" lon="-2.75599">
        <ele>30.8</ele>
        <time>2021-08-05T09:57:35Z</time>
      </trkpt>
      <trkpt lat="47.64151" lon="-2.75596">
        <ele>30.6</ele>
        <time>2021-08-05T09:57:36Z</time>
      </trkpt>
      <trkpt lat="47.64154" lon="-2.75593">
        <ele>30.8</ele>
        <time>2021-08-05T09:57:37Z</time>
      </trkpt>
      <trkpt lat="47.64157" lon="-2.75591">
        <ele>30.8</ele>
        <time>2021-08-05T09:57:38Z</time>
      </trkpt>
      <trkpt lat="47.6416" lon="-2.75589">
        <ele>30.8</ele>
        <time>2021-08-05T09:57:39Z</time>
      </trkpt>
      <trkpt lat="47.64163" lon="-2.75586">
        <ele>30.8</ele>
        <time>2021-08-05T09:57:40Z</time>
      </trkpt>
      <trkpt lat="47.64166" lon="-2.75583">
        <ele>31</ele>
        <time>2021-08-05T09:57:41Z</time>
      </trkpt>
      <trkpt lat="47.64169" lon="-2.75581">
        <ele>31</ele>
        <time>2021-08-05T09:57:42Z</time>
      </trkpt>
      <trkpt lat="47.64173" lon="-2.75578">
        <ele>31</ele>
        <time>2021-08-05T09:57:43Z</time>
      </trkpt>
      <trkpt lat="47.64176" lon="-2.75575">
        <ele>31</ele>
        <time>2021-08-05T09:57:44Z</time>
      </trkpt>
      <trkpt lat="47.64182" lon="-2.7557">
        <ele>31</ele>
        <time>2021-08-05T09:57:46Z</time>
      </trkpt>
      <trkpt lat="47.64185" lon="-2.75567">
        <ele>31.2</ele>
        <time>2021-08-05T09:57:47Z</time>
      </trkpt>
      <trkpt lat="47.64192" lon="-2.75562">
        <ele>31.2</ele>
        <time>2021-08-05T09:57:49Z</time>
      </trkpt>
      <trkpt lat="47.64194" lon="-2.75559">
        <ele>31.2</ele>
        <time>2021-08-05T09:57:50Z</time>
      </trkpt>
      <trkpt lat="47.64197" lon="-2.75556">
        <ele>31.2</ele>
        <time>2021-08-05T09:57:51Z</time>
      </trkpt>
      <trkpt lat="47.642" lon="-2.75554">
        <ele>31.2</ele>
        <time>2021-08-05T09:57:52Z</time>
      </trkpt>
      <trkpt lat="47.64203" lon="-2.75552">
        <ele>31.2</ele>
        <time>2021-08-05T09:57:53Z</time>
      </trkpt>
      <trkpt lat="47.64206" lon="-2.75551">
        <ele>31.2</ele>
        <time>2021-08-05T09:57:54Z</time>
      </trkpt>
      <trkpt lat="47.64208" lon="-2.7555">
        <ele>31.2</ele>
        <time>2021-08-05T09:57:55Z</time>
      </trkpt>
      <trkpt lat="47.6421" lon="-2.75548">
        <ele>31.2</ele>
        <time>2021-08-05T09:57:56Z</time>
      </trkpt>
      <trkpt lat="47.64213" lon="-2.75546">
        <ele>31.2</ele>
        <time>2021-08-05T09:57:58Z</time>
      </trkpt>
      <trkpt lat="47.64214" lon="-2.75545">
        <ele>31.2</ele>
        <time>2021-08-05T09:57:59Z</time>
      </trkpt>
      <trkpt lat="47.64215" lon="-2.75545">
        <ele>31.2</ele>
        <time>2021-08-05T09:58:00Z</time>
      </trkpt>
      <trkpt lat="47.64215" lon="-2.75545">
        <ele>31.2</ele>
        <time>2021-08-05T09:58:01Z</time>
      </trkpt>
      <trkpt lat="47.64216" lon="-2.75544">
        <ele>30.4</ele>
        <time>2021-08-05T09:58:52Z</time>
      </trkpt>
      <trkpt lat="47.64217" lon="-2.75543">
        <ele>30.4</ele>
        <time>2021-08-05T09:58:53Z</time>
      </trkpt>
      <trkpt lat="47.64219" lon="-2.75542">
        <ele>30.4</ele>
        <time>2021-08-05T09:58:54Z</time>
      </trkpt>
      <trkpt lat="47.64221" lon="-2.7554">
        <ele>30.4</ele>
        <time>2021-08-05T09:58:55Z</time>
      </trkpt>
      <trkpt lat="47.64225" lon="-2.75537">
        <ele>30.4</ele>
        <time>2021-08-05T09:58:57Z</time>
      </trkpt>
      <trkpt lat="47.64227" lon="-2.75535">
        <ele>30.4</ele>
        <time>2021-08-05T09:58:58Z</time>
      </trkpt>
      <trkpt lat="47.6423" lon="-2.75533">
        <ele>30.4</ele>
        <time>2021-08-05T09:58:59Z</time>
      </trkpt>
      <trkpt lat="47.64231" lon="-2.7553">
        <ele>30.4</ele>
        <time>2021-08-05T09:59:00Z</time>
      </trkpt>
      <trkpt lat="47.64232" lon="-2.75526">
        <ele>30.4</ele>
        <time>2021-08-05T09:59:01Z</time>
      </trkpt>
      <trkpt lat="47.64232" lon="-2.75523">
        <ele>30.4</ele>
        <time>2021-08-05T09:59:02Z</time>
      </trkpt>
      <trkpt lat="47.64233" lon="-2.7552">
        <ele>30.2</ele>
        <time>2021-08-05T09:59:03Z</time>
      </trkpt>
      <trkpt lat="47.64234" lon="-2.75516">
        <ele>30.2</ele>
        <time>2021-08-05T09:59:04Z</time>
      </trkpt>
      <trkpt lat="47.64235" lon="-2.75512">
        <ele>30</ele>
        <time>2021-08-05T09:59:05Z</time>
      </trkpt>
      <trkpt lat="47.64238" lon="-2.75506">
        <ele>30</ele>
        <time>2021-08-05T09:59:07Z</time>
      </trkpt>
      <trkpt lat="47.64239" lon="-2.75503">
        <ele>29.8</ele>
        <time>2021-08-05T09:59:08Z</time>
      </trkpt>
      <trkpt lat="47.64241" lon="-2.755">
        <ele>29.6</ele>
        <time>2021-08-05T09:59:09Z</time>
      </trkpt>
      <trkpt lat="47.64243" lon="-2.75498">
        <ele>29.6</ele>
        <time>2021-08-05T09:59:10Z</time>
      </trkpt>
      <trkpt lat="47.64245" lon="-2.75495">
        <ele>29.6</ele>
        <time>2021-08-05T09:59:11Z</time>
      </trkpt>
      <trkpt lat="47.64247" lon="-2.75492">
        <ele>29.4</ele>
        <time>2021-08-05T09:59:12Z</time>
      </trkpt>
      <trkpt lat="47.64249" lon="-2.7549">
        <ele>29.4</ele>
        <time>2021-08-05T09:59:13Z</time>
      </trkpt>
      <trkpt lat="47.64251" lon="-2.75487">
        <ele>29.4</ele>
        <time>2021-08-05T09:59:14Z</time>
      </trkpt>
      <trkpt lat="47.64252" lon="-2.75484">
        <ele>29.4</ele>
        <time>2021-08-05T09:59:15Z</time>
      </trkpt>
      <trkpt lat="47.64256" lon="-2.75477">
        <ele>29.2</ele>
        <time>2021-08-05T09:59:17Z</time>
      </trkpt>
      <trkpt lat="47.64258" lon="-2.75474">
        <ele>29.2</ele>
        <time>2021-08-05T09:59:18Z</time>
      </trkpt>
      <trkpt lat="47.64261" lon="-2.75471">
        <ele>29.4</ele>
        <time>2021-08-05T09:59:19Z</time>
      </trkpt>
      <trkpt lat="47.64263" lon="-2.75469">
        <ele>29.2</ele>
        <time>2021-08-05T09:59:20Z</time>
      </trkpt>
      <trkpt lat="47.64265" lon="-2.75466">
        <ele>29.2</ele>
        <time>2021-08-05T09:59:21Z</time>
      </trkpt>
      <trkpt lat="47.64268" lon="-2.75463">
        <ele>29.2</ele>
        <time>2021-08-05T09:59:22Z</time>
      </trkpt>
      <trkpt lat="47.6427" lon="-2.75459">
        <ele>29.2</ele>
        <time>2021-08-05T09:59:23Z</time>
      </trkpt>
      <trkpt lat="47.64272" lon="-2.75456">
        <ele>29.2</ele>
        <time>2021-08-05T09:59:24Z</time>
      </trkpt>
      <trkpt lat="47.64273" lon="-2.75452">
        <ele>29.4</ele>
        <time>2021-08-05T09:59:25Z</time>
      </trkpt>
      <trkpt lat="47.64274" lon="-2.75449">
        <ele>29.4</ele>
        <time>2021-08-05T09:59:26Z</time>
      </trkpt>
      <trkpt lat="47.64277" lon="-2.75442">
        <ele>29.6</ele>
        <time>2021-08-05T09:59:28Z</time>
      </trkpt>
      <trkpt lat="47.64278" lon="-2.75439">
        <ele>29.6</ele>
        <time>2021-08-05T09:59:29Z</time>
      </trkpt>
      <trkpt lat="47.64279" lon="-2.75435">
        <ele>29.6</ele>
        <time>2021-08-05T09:59:30Z</time>
      </trkpt>
      <trkpt lat="47.64281" lon="-2.75432">
        <ele>29.6</ele>
        <time>2021-08-05T09:59:31Z</time>
      </trkpt>
      <trkpt lat="47.64282" lon="-2.75429">
        <ele>29.6</ele>
        <time>2021-08-05T09:59:32Z</time>
      </trkpt>
      <trkpt lat="47.64284" lon="-2.75425">
        <ele>29.6</ele>
        <time>2021-08-05T09:59:33Z</time>
      </trkpt>
      <trkpt lat="47.64285" lon="-2.75421">
        <ele>29.8</ele>
        <time>2021-08-05T09:59:34Z</time>
      </trkpt>
      <trkpt lat="47.64286" lon="-2.75418">
        <ele>29.8</ele>
        <time>2021-08-05T09:59:35Z</time>
      </trkpt>
      <trkpt lat="47.64287" lon="-2.75414">
        <ele>30</ele>
        <time>2021-08-05T09:59:36Z</time>
      </trkpt>
      <trkpt lat="47.64288" lon="-2.75411">
        <ele>30</ele>
        <time>2021-08-05T09:59:37Z</time>
      </trkpt>
      <trkpt lat="47.64291" lon="-2.75404">
        <ele>30.2</ele>
        <time>2021-08-05T09:59:39Z</time>
      </trkpt>
      <trkpt lat="47.64292" lon="-2.754">
        <ele>30.2</ele>
        <time>2021-08-05T09:59:40Z</time>
      </trkpt>
      <trkpt lat="47.64293" lon="-2.75396">
        <ele>30.4</ele>
        <time>2021-08-05T09:59:41Z</time>
      </trkpt>
      <trkpt lat="47.64294" lon="-2.75393">
        <ele>30.4</ele>
        <time>2021-08-05T09:59:42Z</time>
      </trkpt>
      <trkpt lat="47.64295" lon="-2.75389">
        <ele>30.6</ele>
        <time>2021-08-05T09:59:43Z</time>
      </trkpt>
      <trkpt lat="47.64295" lon="-2.75386">
        <ele>30.6</ele>
        <time>2021-08-05T09:59:44Z</time>
      </trkpt>
      <trkpt lat="47.64296" lon="-2.75383">
        <ele>30.8</ele>
        <time>2021-08-05T09:59:45Z</time>
      </trkpt>
      <trkpt lat="47.64297" lon="-2.75379">
        <ele>30.8</ele>
        <time>2021-08-05T09:59:46Z</time>
      </trkpt>
      <trkpt lat="47.64298" lon="-2.75376">
        <ele>30.8</ele>
        <time>2021-08-05T09:59:47Z</time>
      </trkpt>
      <trkpt lat="47.64298" lon="-2.75373">
        <ele>30.8</ele>
        <time>2021-08-05T09:59:48Z</time>
      </trkpt>
      <trkpt lat="47.643" lon="-2.75366">
        <ele>31.2</ele>
        <time>2021-08-05T09:59:50Z</time>
      </trkpt>
      <trkpt lat="47.64301" lon="-2.75362">
        <ele>31.2</ele>
        <time>2021-08-05T09:59:51Z</time>
      </trkpt>
      <trkpt lat="47.64302" lon="-2.75359">
        <ele>31.2</ele>
        <time>2021-08-05T09:59:52Z</time>
      </trkpt>
      <trkpt lat="47.64303" lon="-2.75356">
        <ele>31.4</ele>
        <time>2021-08-05T09:59:53Z</time>
      </trkpt>
      <trkpt lat="47.64303" lon="-2.75352">
        <ele>31.4</ele>
        <time>2021-08-05T09:59:54Z</time>
      </trkpt>
      <trkpt lat="47.64304" lon="-2.75349">
        <ele>31.4</ele>
        <time>2021-08-05T09:59:55Z</time>
      </trkpt>
      <trkpt lat="47.64305" lon="-2.75345">
        <ele>31.4</ele>
        <time>2021-08-05T09:59:56Z</time>
      </trkpt>
      <trkpt lat="47.64305" lon="-2.75341">
        <ele>31.4</ele>
        <time>2021-08-05T09:59:57Z</time>
      </trkpt>
      <trkpt lat="47.64306" lon="-2.75338">
        <ele>31.6</ele>
        <time>2021-08-05T09:59:58Z</time>
      </trkpt>
      <trkpt lat="47.64307" lon="-2.75334">
        <ele>31.6</ele>
        <time>2021-08-05T09:59:59Z</time>
      </trkpt>
      <trkpt lat="47.64309" lon="-2.75326">
        <ele>31.6</ele>
        <time>2021-08-05T10:00:01Z</time>
      </trkpt>
      <trkpt lat="47.64309" lon="-2.75322">
        <ele>31.6</ele>
        <time>2021-08-05T10:00:02Z</time>
      </trkpt>
      <trkpt lat="47.6431" lon="-2.75318">
        <ele>31.6</ele>
        <time>2021-08-05T10:00:03Z</time>
      </trkpt>
      <trkpt lat="47.64311" lon="-2.75314">
        <ele>31.6</ele>
        <time>2021-08-05T10:00:04Z</time>
      </trkpt>
      <trkpt lat="47.64312" lon="-2.75309">
        <ele>31.6</ele>
        <time>2021-08-05T10:00:05Z</time>
      </trkpt>
      <trkpt lat="47.64313" lon="-2.75305">
        <ele>31.6</ele>
        <time>2021-08-05T10:00:06Z</time>
      </trkpt>
      <trkpt lat="47.64313" lon="-2.753">
        <ele>31.8</ele>
        <time>2021-08-05T10:00:07Z</time>
      </trkpt>
      <trkpt lat="47.64314" lon="-2.75296">
        <ele>31.8</ele>
        <time>2021-08-05T10:00:08Z</time>
      </trkpt>
      <trkpt lat="47.64316" lon="-2.75293">
        <ele>31.8</ele>
        <time>2021-08-05T10:00:09Z</time>
      </trkpt>
      <trkpt lat="47.64318" lon="-2.75291">
        <ele>31.8</ele>
        <time>2021-08-05T10:00:10Z</time>
      </trkpt>
      <trkpt lat="47.64322" lon="-2.75289">
        <ele>31.8</ele>
        <time>2021-08-05T10:00:12Z</time>
      </trkpt>
      <trkpt lat="47.64325" lon="-2.75288">
        <ele>31.8</ele>
        <time>2021-08-05T10:00:13Z</time>
      </trkpt>
      <trkpt lat="47.64328" lon="-2.75286">
        <ele>31.8</ele>
        <time>2021-08-05T10:00:14Z</time>
      </trkpt>
      <trkpt lat="47.6433" lon="-2.75284">
        <ele>31.8</ele>
        <time>2021-08-05T10:00:15Z</time>
      </trkpt>
      <trkpt lat="47.64332" lon="-2.75283">
        <ele>31.8</ele>
        <time>2021-08-05T10:00:16Z</time>
      </trkpt>
      <trkpt lat="47.64335" lon="-2.75281">
        <ele>31.8</ele>
        <time>2021-08-05T10:00:17Z</time>
      </trkpt>
      <trkpt lat="47.64338" lon="-2.7528">
        <ele>31.8</ele>
        <time>2021-08-05T10:00:18Z</time>
      </trkpt>
      <trkpt lat="47.64341" lon="-2.75278">
        <ele>31.8</ele>
        <time>2021-08-05T10:00:19Z</time>
      </trkpt>
      <trkpt lat="47.64344" lon="-2.75276">
        <ele>31.8</ele>
        <time>2021-08-05T10:00:20Z</time>
      </trkpt>
      <trkpt lat="47.64347" lon="-2.75274">
        <ele>31.8</ele>
        <time>2021-08-05T10:00:21Z</time>
      </trkpt>
      <trkpt lat="47.64354" lon="-2.7527">
        <ele>32</ele>
        <time>2021-08-05T10:00:23Z</time>
      </trkpt>
      <trkpt lat="47.64357" lon="-2.75268">
        <ele>32</ele>
        <time>2021-08-05T10:00:24Z</time>
      </trkpt>
      <trkpt lat="47.64361" lon="-2.75266">
        <ele>32</ele>
        <time>2021-08-05T10:00:25Z</time>
      </trkpt>
      <trkpt lat="47.64364" lon="-2.75264">
        <ele>32</ele>
        <time>2021-08-05T10:00:26Z</time>
      </trkpt>
      <trkpt lat="47.64367" lon="-2.75262">
        <ele>32</ele>
        <time>2021-08-05T10:00:27Z</time>
      </trkpt>
      <trkpt lat="47.64369" lon="-2.7526">
        <ele>32.2</ele>
        <time>2021-08-05T10:00:28Z</time>
      </trkpt>
      <trkpt lat="47.64372" lon="-2.75258">
        <ele>32.2</ele>
        <time>2021-08-05T10:00:29Z</time>
      </trkpt>
      <trkpt lat="47.64374" lon="-2.75256">
        <ele>32.2</ele>
        <time>2021-08-05T10:00:30Z</time>
      </trkpt>
      <trkpt lat="47.64377" lon="-2.75254">
        <ele>32.2</ele>
        <time>2021-08-05T10:00:31Z</time>
      </trkpt>
      <trkpt lat="47.64379" lon="-2.75252">
        <ele>32.2</ele>
        <time>2021-08-05T10:00:32Z</time>
      </trkpt>
      <trkpt lat="47.64382" lon="-2.75247">
        <ele>32.2</ele>
        <time>2021-08-05T10:00:34Z</time>
      </trkpt>
      <trkpt lat="47.64383" lon="-2.75244">
        <ele>32.2</ele>
        <time>2021-08-05T10:00:35Z</time>
      </trkpt>
      <trkpt lat="47.64384" lon="-2.7524">
        <ele>32.2</ele>
        <time>2021-08-05T10:00:36Z</time>
      </trkpt>
      <trkpt lat="47.64384" lon="-2.75236">
        <ele>32.2</ele>
        <time>2021-08-05T10:00:37Z</time>
      </trkpt>
      <trkpt lat="47.64383" lon="-2.75232">
        <ele>32.2</ele>
        <time>2021-08-05T10:00:38Z</time>
      </trkpt>
      <trkpt lat="47.64381" lon="-2.75229">
        <ele>32.2</ele>
        <time>2021-08-05T10:00:39Z</time>
      </trkpt>
      <trkpt lat="47.64378" lon="-2.75226">
        <ele>32.2</ele>
        <time>2021-08-05T10:00:40Z</time>
      </trkpt>
      <trkpt lat="47.64375" lon="-2.75222">
        <ele>32.2</ele>
        <time>2021-08-05T10:00:41Z</time>
      </trkpt>
      <trkpt lat="47.64373" lon="-2.75218">
        <ele>32.2</ele>
        <time>2021-08-05T10:00:42Z</time>
      </trkpt>
      <trkpt lat="47.6437" lon="-2.75214">
        <ele>32.2</ele>
        <time>2021-08-05T10:00:43Z</time>
      </trkpt>
      <trkpt lat="47.64364" lon="-2.75206">
        <ele>32.2</ele>
        <time>2021-08-05T10:00:45Z</time>
      </trkpt>
      <trkpt lat="47.6436" lon="-2.75202">
        <ele>32.2</ele>
        <time>2021-08-05T10:00:46Z</time>
      </trkpt>
      <trkpt lat="47.64357" lon="-2.75198">
        <ele>32.4</ele>
        <time>2021-08-05T10:00:47Z</time>
      </trkpt>
      <trkpt lat="47.64354" lon="-2.75193">
        <ele>32.4</ele>
        <time>2021-08-05T10:00:48Z</time>
      </trkpt>
      <trkpt lat="47.64352" lon="-2.75187">
        <ele>32.4</ele>
        <time>2021-08-05T10:00:49Z</time>
      </trkpt>
      <trkpt lat="47.6435" lon="-2.75181">
        <ele>32.4</ele>
        <time>2021-08-05T10:00:50Z</time>
      </trkpt>
      <trkpt lat="47.64349" lon="-2.75174">
        <ele>32.4</ele>
        <time>2021-08-05T10:00:51Z</time>
      </trkpt>
      <trkpt lat="47.64347" lon="-2.75167">
        <ele>32.4</ele>
        <time>2021-08-05T10:00:52Z</time>
      </trkpt>
      <trkpt lat="47.64346" lon="-2.7516">
        <ele>32.4</ele>
        <time>2021-08-05T10:00:53Z</time>
      </trkpt>
      <trkpt lat="47.64346" lon="-2.75153">
        <ele>32.4</ele>
        <time>2021-08-05T10:00:54Z</time>
      </trkpt>
      <trkpt lat="47.64346" lon="-2.75145">
        <ele>32.4</ele>
        <time>2021-08-05T10:00:55Z</time>
      </trkpt>
      <trkpt lat="47.64348" lon="-2.75138">
        <ele>32.6</ele>
        <time>2021-08-05T10:00:56Z</time>
      </trkpt>
      <trkpt lat="47.64349" lon="-2.7513">
        <ele>32.6</ele>
        <time>2021-08-05T10:00:57Z</time>
      </trkpt>
      <trkpt lat="47.64351" lon="-2.75122">
        <ele>32.6</ele>
        <time>2021-08-05T10:00:58Z</time>
      </trkpt>
      <trkpt lat="47.64353" lon="-2.75115">
        <ele>32.8</ele>
        <time>2021-08-05T10:00:59Z</time>
      </trkpt>
      <trkpt lat="47.64355" lon="-2.75107">
        <ele>32.8</ele>
        <time>2021-08-05T10:01:00Z</time>
      </trkpt>
      <trkpt lat="47.64358" lon="-2.75099">
        <ele>32.8</ele>
        <time>2021-08-05T10:01:01Z</time>
      </trkpt>
      <trkpt lat="47.6436" lon="-2.75091">
        <ele>33</ele>
        <time>2021-08-05T10:01:02Z</time>
      </trkpt>
      <trkpt lat="47.64363" lon="-2.75083">
        <ele>33</ele>
        <time>2021-08-05T10:01:03Z</time>
      </trkpt>
      <trkpt lat="47.64365" lon="-2.75075">
        <ele>33</ele>
        <time>2021-08-05T10:01:04Z</time>
      </trkpt>
      <trkpt lat="47.64367" lon="-2.75068">
        <ele>33</ele>
        <time>2021-08-05T10:01:05Z</time>
      </trkpt>
      <trkpt lat="47.64372" lon="-2.75052">
        <ele>33</ele>
        <time>2021-08-05T10:01:07Z</time>
      </trkpt>
      <trkpt lat="47.64374" lon="-2.75044">
        <ele>33</ele>
        <time>2021-08-05T10:01:08Z</time>
      </trkpt>
      <trkpt lat="47.64376" lon="-2.75037">
        <ele>33</ele>
        <time>2021-08-05T10:01:09Z</time>
      </trkpt>
      <trkpt lat="47.64377" lon="-2.75029">
        <ele>33</ele>
        <time>2021-08-05T10:01:10Z</time>
      </trkpt>
      <trkpt lat="47.64379" lon="-2.75022">
        <ele>33</ele>
        <time>2021-08-05T10:01:11Z</time>
      </trkpt>
      <trkpt lat="47.64381" lon="-2.75014">
        <ele>33.2</ele>
        <time>2021-08-05T10:01:12Z</time>
      </trkpt>
      <trkpt lat="47.64383" lon="-2.75006">
        <ele>33.2</ele>
        <time>2021-08-05T10:01:13Z</time>
      </trkpt>
      <trkpt lat="47.64385" lon="-2.74999">
        <ele>33.2</ele>
        <time>2021-08-05T10:01:14Z</time>
      </trkpt>
      <trkpt lat="47.64387" lon="-2.74992">
        <ele>33.2</ele>
        <time>2021-08-05T10:01:15Z</time>
      </trkpt>
      <trkpt lat="47.64389" lon="-2.74985">
        <ele>33.2</ele>
        <time>2021-08-05T10:01:16Z</time>
      </trkpt>
      <trkpt lat="47.64393" lon="-2.7497">
        <ele>33.2</ele>
        <time>2021-08-05T10:01:18Z</time>
      </trkpt>
      <trkpt lat="47.64395" lon="-2.74963">
        <ele>33.4</ele>
        <time>2021-08-05T10:01:19Z</time>
      </trkpt>
      <trkpt lat="47.64397" lon="-2.74956">
        <ele>33.4</ele>
        <time>2021-08-05T10:01:20Z</time>
      </trkpt>
      <trkpt lat="47.64399" lon="-2.74948">
        <ele>33.4</ele>
        <time>2021-08-05T10:01:21Z</time>
      </trkpt>
      <trkpt lat="47.64401" lon="-2.7494">
        <ele>33.6</ele>
        <time>2021-08-05T10:01:22Z</time>
      </trkpt>
      <trkpt lat="47.64403" lon="-2.74932">
        <ele>33.6</ele>
        <time>2021-08-05T10:01:23Z</time>
      </trkpt>
      <trkpt lat="47.64405" lon="-2.74924">
        <ele>33.8</ele>
        <time>2021-08-05T10:01:24Z</time>
      </trkpt>
      <trkpt lat="47.64407" lon="-2.74916">
        <ele>33.8</ele>
        <time>2021-08-05T10:01:25Z</time>
      </trkpt>
      <trkpt lat="47.64409" lon="-2.74908">
        <ele>33.8</ele>
        <time>2021-08-05T10:01:26Z</time>
      </trkpt>
      <trkpt lat="47.6441" lon="-2.74899">
        <ele>33.8</ele>
        <time>2021-08-05T10:01:27Z</time>
      </trkpt>
      <trkpt lat="47.64414" lon="-2.74882">
        <ele>34</ele>
        <time>2021-08-05T10:01:29Z</time>
      </trkpt>
      <trkpt lat="47.64415" lon="-2.74874">
        <ele>34</ele>
        <time>2021-08-05T10:01:30Z</time>
      </trkpt>
      <trkpt lat="47.64416" lon="-2.74865">
        <ele>34</ele>
        <time>2021-08-05T10:01:31Z</time>
      </trkpt>
      <trkpt lat="47.64417" lon="-2.74857">
        <ele>34</ele>
        <time>2021-08-05T10:01:32Z</time>
      </trkpt>
      <trkpt lat="47.64418" lon="-2.74848">
        <ele>34</ele>
        <time>2021-08-05T10:01:33Z</time>
      </trkpt>
      <trkpt lat="47.64419" lon="-2.7484">
        <ele>34</ele>
        <time>2021-08-05T10:01:34Z</time>
      </trkpt>
      <trkpt lat="47.6442" lon="-2.74831">
        <ele>34</ele>
        <time>2021-08-05T10:01:35Z</time>
      </trkpt>
      <trkpt lat="47.6442" lon="-2.74823">
        <ele>34</ele>
        <time>2021-08-05T10:01:36Z</time>
      </trkpt>
      <trkpt lat="47.64421" lon="-2.74815">
        <ele>34</ele>
        <time>2021-08-05T10:01:37Z</time>
      </trkpt>
      <trkpt lat="47.64421" lon="-2.74806">
        <ele>34</ele>
        <time>2021-08-05T10:01:38Z</time>
      </trkpt>
      <trkpt lat="47.64422" lon="-2.74789">
        <ele>34</ele>
        <time>2021-08-05T10:01:40Z</time>
      </trkpt>
      <trkpt lat="47.64422" lon="-2.74781">
        <ele>33.8</ele>
        <time>2021-08-05T10:01:41Z</time>
      </trkpt>
      <trkpt lat="47.64422" lon="-2.74773">
        <ele>33.8</ele>
        <time>2021-08-05T10:01:42Z</time>
      </trkpt>
      <trkpt lat="47.64422" lon="-2.74765">
        <ele>33.8</ele>
        <time>2021-08-05T10:01:43Z</time>
      </trkpt>
      <trkpt lat="47.64422" lon="-2.74757">
        <ele>33.8</ele>
        <time>2021-08-05T10:01:44Z</time>
      </trkpt>
      <trkpt lat="47.64422" lon="-2.74748">
        <ele>33.8</ele>
        <time>2021-08-05T10:01:45Z</time>
      </trkpt>
      <trkpt lat="47.64422" lon="-2.7474">
        <ele>33.8</ele>
        <time>2021-08-05T10:01:46Z</time>
      </trkpt>
      <trkpt lat="47.64423" lon="-2.74732">
        <ele>33.8</ele>
        <time>2021-08-05T10:01:47Z</time>
      </trkpt>
      <trkpt lat="47.64423" lon="-2.74724">
        <ele>33.8</ele>
        <time>2021-08-05T10:01:48Z</time>
      </trkpt>
      <trkpt lat="47.64423" lon="-2.74716">
        <ele>33.8</ele>
        <time>2021-08-05T10:01:49Z</time>
      </trkpt>
      <trkpt lat="47.64424" lon="-2.747">
        <ele>33.8</ele>
        <time>2021-08-05T10:01:51Z</time>
      </trkpt>
      <trkpt lat="47.64424" lon="-2.74692">
        <ele>33.8</ele>
        <time>2021-08-05T10:01:52Z</time>
      </trkpt>
      <trkpt lat="47.64424" lon="-2.74684">
        <ele>33.8</ele>
        <time>2021-08-05T10:01:53Z</time>
      </trkpt>
      <trkpt lat="47.64425" lon="-2.74676">
        <ele>33.8</ele>
        <time>2021-08-05T10:01:54Z</time>
      </trkpt>
      <trkpt lat="47.64425" lon="-2.74669">
        <ele>33.8</ele>
        <time>2021-08-05T10:01:55Z</time>
      </trkpt>
      <trkpt lat="47.64425" lon="-2.74661">
        <ele>33.8</ele>
        <time>2021-08-05T10:01:56Z</time>
      </trkpt>
      <trkpt lat="47.64425" lon="-2.74653">
        <ele>33.8</ele>
        <time>2021-08-05T10:01:57Z</time>
      </trkpt>
      <trkpt lat="47.64426" lon="-2.74646">
        <ele>33.8</ele>
        <time>2021-08-05T10:01:58Z</time>
      </trkpt>
      <trkpt lat="47.64426" lon="-2.74638">
        <ele>33.8</ele>
        <time>2021-08-05T10:01:59Z</time>
      </trkpt>
      <trkpt lat="47.64426" lon="-2.7463">
        <ele>33.8</ele>
        <time>2021-08-05T10:02:00Z</time>
      </trkpt>
      <trkpt lat="47.64427" lon="-2.74613">
        <ele>33.8</ele>
        <time>2021-08-05T10:02:02Z</time>
      </trkpt>
      <trkpt lat="47.64427" lon="-2.74605">
        <ele>34.2</ele>
        <time>2021-08-05T10:02:03Z</time>
      </trkpt>
      <trkpt lat="47.64427" lon="-2.74596">
        <ele>34.2</ele>
        <time>2021-08-05T10:02:04Z</time>
      </trkpt>
      <trkpt lat="47.64428" lon="-2.74587">
        <ele>34.2</ele>
        <time>2021-08-05T10:02:05Z</time>
      </trkpt>
      <trkpt lat="47.64428" lon="-2.74579">
        <ele>34.2</ele>
        <time>2021-08-05T10:02:06Z</time>
      </trkpt>
      <trkpt lat="47.64428" lon="-2.7457">
        <ele>34.2</ele>
        <time>2021-08-05T10:02:07Z</time>
      </trkpt>
      <trkpt lat="47.64428" lon="-2.74562">
        <ele>34.2</ele>
        <time>2021-08-05T10:02:08Z</time>
      </trkpt>
      <trkpt lat="47.64429" lon="-2.74554">
        <ele>34.2</ele>
        <time>2021-08-05T10:02:09Z</time>
      </trkpt>
      <trkpt lat="47.6443" lon="-2.74546">
        <ele>34.2</ele>
        <time>2021-08-05T10:02:10Z</time>
      </trkpt>
      <trkpt lat="47.6443" lon="-2.74538">
        <ele>34.2</ele>
        <time>2021-08-05T10:02:11Z</time>
      </trkpt>
      <trkpt lat="47.64431" lon="-2.74522">
        <ele>34.2</ele>
        <time>2021-08-05T10:02:13Z</time>
      </trkpt>
      <trkpt lat="47.64431" lon="-2.74514">
        <ele>34.2</ele>
        <time>2021-08-05T10:02:14Z</time>
      </trkpt>
      <trkpt lat="47.64432" lon="-2.74506">
        <ele>34.4</ele>
        <time>2021-08-05T10:02:15Z</time>
      </trkpt>
      <trkpt lat="47.64433" lon="-2.74498">
        <ele>34.4</ele>
        <time>2021-08-05T10:02:16Z</time>
      </trkpt>
      <trkpt lat="47.64433" lon="-2.74489">
        <ele>34.4</ele>
        <time>2021-08-05T10:02:17Z</time>
      </trkpt>
      <trkpt lat="47.64433" lon="-2.74481">
        <ele>34.4</ele>
        <time>2021-08-05T10:02:18Z</time>
      </trkpt>
      <trkpt lat="47.64433" lon="-2.74474">
        <ele>34.4</ele>
        <time>2021-08-05T10:02:19Z</time>
      </trkpt>
      <trkpt lat="47.64433" lon="-2.74467">
        <ele>34.4</ele>
        <time>2021-08-05T10:02:20Z</time>
      </trkpt>
      <trkpt lat="47.64434" lon="-2.7446">
        <ele>34.4</ele>
        <time>2021-08-05T10:02:21Z</time>
      </trkpt>
      <trkpt lat="47.64435" lon="-2.74454">
        <ele>34.4</ele>
        <time>2021-08-05T10:02:22Z</time>
      </trkpt>
      <trkpt lat="47.64438" lon="-2.74441">
        <ele>34.4</ele>
        <time>2021-08-05T10:02:24Z</time>
      </trkpt>
      <trkpt lat="47.64441" lon="-2.74436">
        <ele>34.4</ele>
        <time>2021-08-05T10:02:25Z</time>
      </trkpt>
      <trkpt lat="47.64444" lon="-2.74431">
        <ele>34.4</ele>
        <time>2021-08-05T10:02:26Z</time>
      </trkpt>
      <trkpt lat="47.64448" lon="-2.74426">
        <ele>34.4</ele>
        <time>2021-08-05T10:02:27Z</time>
      </trkpt>
      <trkpt lat="47.6445" lon="-2.74421">
        <ele>34.4</ele>
        <time>2021-08-05T10:02:28Z</time>
      </trkpt>
      <trkpt lat="47.64453" lon="-2.74416">
        <ele>34.4</ele>
        <time>2021-08-05T10:02:29Z</time>
      </trkpt>
      <trkpt lat="47.64454" lon="-2.7441">
        <ele>34.4</ele>
        <time>2021-08-05T10:02:30Z</time>
      </trkpt>
      <trkpt lat="47.64454" lon="-2.74405">
        <ele>34.4</ele>
        <time>2021-08-05T10:02:31Z</time>
      </trkpt>
      <trkpt lat="47.64454" lon="-2.74401">
        <ele>34.4</ele>
        <time>2021-08-05T10:02:32Z</time>
      </trkpt>
      <trkpt lat="47.64453" lon="-2.74396">
        <ele>34.4</ele>
        <time>2021-08-05T10:02:33Z</time>
      </trkpt>
      <trkpt lat="47.64453" lon="-2.74388">
        <ele>34.2</ele>
        <time>2021-08-05T10:02:35Z</time>
      </trkpt>
      <trkpt lat="47.64453" lon="-2.74383">
        <ele>34.2</ele>
        <time>2021-08-05T10:02:36Z</time>
      </trkpt>
      <trkpt lat="47.64453" lon="-2.74378">
        <ele>34.2</ele>
        <time>2021-08-05T10:02:37Z</time>
      </trkpt>
      <trkpt lat="47.64451" lon="-2.74373">
        <ele>34.2</ele>
        <time>2021-08-05T10:02:38Z</time>
      </trkpt>
      <trkpt lat="47.64449" lon="-2.7437">
        <ele>34.2</ele>
        <time>2021-08-05T10:02:39Z</time>
      </trkpt>
      <trkpt lat="47.64445" lon="-2.74366">
        <ele>34.2</ele>
        <time>2021-08-05T10:02:40Z</time>
      </trkpt>
      <trkpt lat="47.64443" lon="-2.74361">
        <ele>34.2</ele>
        <time>2021-08-05T10:02:41Z</time>
      </trkpt>
      <trkpt lat="47.64441" lon="-2.74356">
        <ele>34.2</ele>
        <time>2021-08-05T10:02:42Z</time>
      </trkpt>
      <trkpt lat="47.64439" lon="-2.74351">
        <ele>34.2</ele>
        <time>2021-08-05T10:02:43Z</time>
      </trkpt>
      <trkpt lat="47.64438" lon="-2.74345">
        <ele>34.2</ele>
        <time>2021-08-05T10:02:44Z</time>
      </trkpt>
      <trkpt lat="47.64436" lon="-2.74333">
        <ele>34</ele>
        <time>2021-08-05T10:02:46Z</time>
      </trkpt>
      <trkpt lat="47.64436" lon="-2.74327">
        <ele>34</ele>
        <time>2021-08-05T10:02:47Z</time>
      </trkpt>
      <trkpt lat="47.64436" lon="-2.74321">
        <ele>34</ele>
        <time>2021-08-05T10:02:48Z</time>
      </trkpt>
      <trkpt lat="47.64436" lon="-2.74315">
        <ele>34</ele>
        <time>2021-08-05T10:02:49Z</time>
      </trkpt>
      <trkpt lat="47.64435" lon="-2.74309">
        <ele>34</ele>
        <time>2021-08-05T10:02:50Z</time>
      </trkpt>
      <trkpt lat="47.64435" lon="-2.74302">
        <ele>34</ele>
        <time>2021-08-05T10:02:51Z</time>
      </trkpt>
      <trkpt lat="47.64435" lon="-2.74296">
        <ele>34</ele>
        <time>2021-08-05T10:02:52Z</time>
      </trkpt>
      <trkpt lat="47.64435" lon="-2.7429">
        <ele>34</ele>
        <time>2021-08-05T10:02:53Z</time>
      </trkpt>
      <trkpt lat="47.64435" lon="-2.74284">
        <ele>34</ele>
        <time>2021-08-05T10:02:54Z</time>
      </trkpt>
      <trkpt lat="47.64435" lon="-2.74278">
        <ele>33.8</ele>
        <time>2021-08-05T10:02:55Z</time>
      </trkpt>
      <trkpt lat="47.64435" lon="-2.74266">
        <ele>34</ele>
        <time>2021-08-05T10:02:57Z</time>
      </trkpt>
      <trkpt lat="47.64435" lon="-2.7426">
        <ele>34</ele>
        <time>2021-08-05T10:02:58Z</time>
      </trkpt>
      <trkpt lat="47.64436" lon="-2.74254">
        <ele>33.8</ele>
        <time>2021-08-05T10:02:59Z</time>
      </trkpt>
      <trkpt lat="47.64436" lon="-2.74248">
        <ele>33.8</ele>
        <time>2021-08-05T10:03:00Z</time>
      </trkpt>
      <trkpt lat="47.64436" lon="-2.74242">
        <ele>33.8</ele>
        <time>2021-08-05T10:03:01Z</time>
      </trkpt>
      <trkpt lat="47.64436" lon="-2.74235">
        <ele>33.8</ele>
        <time>2021-08-05T10:03:02Z</time>
      </trkpt>
      <trkpt lat="47.64436" lon="-2.74228">
        <ele>33.6</ele>
        <time>2021-08-05T10:03:03Z</time>
      </trkpt>
      <trkpt lat="47.64436" lon="-2.74222">
        <ele>33.6</ele>
        <time>2021-08-05T10:03:04Z</time>
      </trkpt>
      <trkpt lat="47.64437" lon="-2.74214">
        <ele>33.6</ele>
        <time>2021-08-05T10:03:05Z</time>
      </trkpt>
      <trkpt lat="47.64437" lon="-2.74207">
        <ele>33.6</ele>
        <time>2021-08-05T10:03:06Z</time>
      </trkpt>
      <trkpt lat="47.64437" lon="-2.74199">
        <ele>33.6</ele>
        <time>2021-08-05T10:03:07Z</time>
      </trkpt>
      <trkpt lat="47.64437" lon="-2.7419">
        <ele>33.6</ele>
        <time>2021-08-05T10:03:08Z</time>
      </trkpt>
      <trkpt lat="47.64438" lon="-2.74182">
        <ele>33.4</ele>
        <time>2021-08-05T10:03:09Z</time>
      </trkpt>
      <trkpt lat="47.64438" lon="-2.74173">
        <ele>33.4</ele>
        <time>2021-08-05T10:03:10Z</time>
      </trkpt>
      <trkpt lat="47.64438" lon="-2.74164">
        <ele>33.4</ele>
        <time>2021-08-05T10:03:11Z</time>
      </trkpt>
      <trkpt lat="47.64438" lon="-2.74155">
        <ele>33.4</ele>
        <time>2021-08-05T10:03:12Z</time>
      </trkpt>
      <trkpt lat="47.64438" lon="-2.74146">
        <ele>33.2</ele>
        <time>2021-08-05T10:03:13Z</time>
      </trkpt>
      <trkpt lat="47.64437" lon="-2.74137">
        <ele>33.2</ele>
        <time>2021-08-05T10:03:14Z</time>
      </trkpt>
      <trkpt lat="47.64437" lon="-2.74129">
        <ele>33.2</ele>
        <time>2021-08-05T10:03:15Z</time>
      </trkpt>
      <trkpt lat="47.64437" lon="-2.7412">
        <ele>33</ele>
        <time>2021-08-05T10:03:16Z</time>
      </trkpt>
      <trkpt lat="47.64436" lon="-2.74112">
        <ele>33</ele>
        <time>2021-08-05T10:03:17Z</time>
      </trkpt>
      <trkpt lat="47.64435" lon="-2.74104">
        <ele>33</ele>
        <time>2021-08-05T10:03:18Z</time>
      </trkpt>
      <trkpt lat="47.64435" lon="-2.74096">
        <ele>32.8</ele>
        <time>2021-08-05T10:03:19Z</time>
      </trkpt>
      <trkpt lat="47.64434" lon="-2.74088">
        <ele>32.8</ele>
        <time>2021-08-05T10:03:20Z</time>
      </trkpt>
      <trkpt lat="47.64433" lon="-2.7408">
        <ele>32.8</ele>
        <time>2021-08-05T10:03:21Z</time>
      </trkpt>
      <trkpt lat="47.64433" lon="-2.74071">
        <ele>33</ele>
        <time>2021-08-05T10:03:22Z</time>
      </trkpt>
      <trkpt lat="47.64432" lon="-2.74063">
        <ele>33</ele>
        <time>2021-08-05T10:03:23Z</time>
      </trkpt>
      <trkpt lat="47.6443" lon="-2.74055">
        <ele>32.8</ele>
        <time>2021-08-05T10:03:24Z</time>
      </trkpt>
      <trkpt lat="47.64429" lon="-2.74046">
        <ele>32.8</ele>
        <time>2021-08-05T10:03:25Z</time>
      </trkpt>
      <trkpt lat="47.64428" lon="-2.74038">
        <ele>33</ele>
        <time>2021-08-05T10:03:26Z</time>
      </trkpt>
      <trkpt lat="47.64426" lon="-2.7403">
        <ele>33</ele>
        <time>2021-08-05T10:03:27Z</time>
      </trkpt>
      <trkpt lat="47.64425" lon="-2.74022">
        <ele>33</ele>
        <time>2021-08-05T10:03:28Z</time>
      </trkpt>
      <trkpt lat="47.64422" lon="-2.74006">
        <ele>32.8</ele>
        <time>2021-08-05T10:03:30Z</time>
      </trkpt>
      <trkpt lat="47.6442" lon="-2.73998">
        <ele>32.8</ele>
        <time>2021-08-05T10:03:31Z</time>
      </trkpt>
      <trkpt lat="47.64418" lon="-2.73991">
        <ele>32.8</ele>
        <time>2021-08-05T10:03:32Z</time>
      </trkpt>
      <trkpt lat="47.64417" lon="-2.73983">
        <ele>32.8</ele>
        <time>2021-08-05T10:03:33Z</time>
      </trkpt>
      <trkpt lat="47.64415" lon="-2.73976">
        <ele>32.8</ele>
        <time>2021-08-05T10:03:34Z</time>
      </trkpt>
      <trkpt lat="47.64413" lon="-2.73969">
        <ele>32.8</ele>
        <time>2021-08-05T10:03:35Z</time>
      </trkpt>
      <trkpt lat="47.64412" lon="-2.73962">
        <ele>32.8</ele>
        <time>2021-08-05T10:03:36Z</time>
      </trkpt>
      <trkpt lat="47.6441" lon="-2.73955">
        <ele>32.8</ele>
        <time>2021-08-05T10:03:37Z</time>
      </trkpt>
      <trkpt lat="47.64409" lon="-2.73948">
        <ele>32.8</ele>
        <time>2021-08-05T10:03:38Z</time>
      </trkpt>
      <trkpt lat="47.64407" lon="-2.73941">
        <ele>32.8</ele>
        <time>2021-08-05T10:03:39Z</time>
      </trkpt>
      <trkpt lat="47.64403" lon="-2.73927">
        <ele>32.8</ele>
        <time>2021-08-05T10:03:41Z</time>
      </trkpt>
      <trkpt lat="47.64401" lon="-2.7392">
        <ele>32.8</ele>
        <time>2021-08-05T10:03:42Z</time>
      </trkpt>
      <trkpt lat="47.64399" lon="-2.73914">
        <ele>32.6</ele>
        <time>2021-08-05T10:03:43Z</time>
      </trkpt>
      <trkpt lat="47.64397" lon="-2.73907">
        <ele>32.6</ele>
        <time>2021-08-05T10:03:44Z</time>
      </trkpt>
      <trkpt lat="47.64395" lon="-2.73901">
        <ele>32.6</ele>
        <time>2021-08-05T10:03:45Z</time>
      </trkpt>
      <trkpt lat="47.64393" lon="-2.73895">
        <ele>32.6</ele>
        <time>2021-08-05T10:03:46Z</time>
      </trkpt>
      <trkpt lat="47.64391" lon="-2.73889">
        <ele>32.6</ele>
        <time>2021-08-05T10:03:47Z</time>
      </trkpt>
      <trkpt lat="47.64389" lon="-2.73883">
        <ele>32.6</ele>
        <time>2021-08-05T10:03:48Z</time>
      </trkpt>
      <trkpt lat="47.64386" lon="-2.73877">
        <ele>32.6</ele>
        <time>2021-08-05T10:03:49Z</time>
      </trkpt>
      <trkpt lat="47.64384" lon="-2.73872">
        <ele>32.6</ele>
        <time>2021-08-05T10:03:50Z</time>
      </trkpt>
      <trkpt lat="47.64378" lon="-2.73861">
        <ele>32.6</ele>
        <time>2021-08-05T10:03:52Z</time>
      </trkpt>
      <trkpt lat="47.64376" lon="-2.73855">
        <ele>32.6</ele>
        <time>2021-08-05T10:03:53Z</time>
      </trkpt>
      <trkpt lat="47.64373" lon="-2.73849">
        <ele>32.6</ele>
        <time>2021-08-05T10:03:54Z</time>
      </trkpt>
      <trkpt lat="47.6437" lon="-2.73842">
        <ele>32.6</ele>
        <time>2021-08-05T10:03:55Z</time>
      </trkpt>
      <trkpt lat="47.64367" lon="-2.73836">
        <ele>32.6</ele>
        <time>2021-08-05T10:03:56Z</time>
      </trkpt>
      <trkpt lat="47.64364" lon="-2.73829">
        <ele>32.6</ele>
        <time>2021-08-05T10:03:57Z</time>
      </trkpt>
      <trkpt lat="47.64361" lon="-2.73823">
        <ele>32.6</ele>
        <time>2021-08-05T10:03:58Z</time>
      </trkpt>
      <trkpt lat="47.64359" lon="-2.73816">
        <ele>32.6</ele>
        <time>2021-08-05T10:03:59Z</time>
      </trkpt>
      <trkpt lat="47.64353" lon="-2.73802">
        <ele>32.8</ele>
        <time>2021-08-05T10:04:01Z</time>
      </trkpt>
      <trkpt lat="47.6435" lon="-2.73794">
        <ele>32.8</ele>
        <time>2021-08-05T10:04:02Z</time>
      </trkpt>
      <trkpt lat="47.64347" lon="-2.73788">
        <ele>32.8</ele>
        <time>2021-08-05T10:04:03Z</time>
      </trkpt>
      <trkpt lat="47.64344" lon="-2.73781">
        <ele>32.8</ele>
        <time>2021-08-05T10:04:04Z</time>
      </trkpt>
      <trkpt lat="47.64342" lon="-2.73775">
        <ele>32.8</ele>
        <time>2021-08-05T10:04:05Z</time>
      </trkpt>
      <trkpt lat="47.64339" lon="-2.73768">
        <ele>32.6</ele>
        <time>2021-08-05T10:04:06Z</time>
      </trkpt>
      <trkpt lat="47.64336" lon="-2.73762">
        <ele>32.6</ele>
        <time>2021-08-05T10:04:07Z</time>
      </trkpt>
      <trkpt lat="47.64333" lon="-2.73756">
        <ele>32.8</ele>
        <time>2021-08-05T10:04:08Z</time>
      </trkpt>
      <trkpt lat="47.6433" lon="-2.73749">
        <ele>32.8</ele>
        <time>2021-08-05T10:04:09Z</time>
      </trkpt>
      <trkpt lat="47.64328" lon="-2.73742">
        <ele>32.8</ele>
        <time>2021-08-05T10:04:10Z</time>
      </trkpt>
      <trkpt lat="47.64322" lon="-2.7373">
        <ele>32.6</ele>
        <time>2021-08-05T10:04:12Z</time>
      </trkpt>
      <trkpt lat="47.64319" lon="-2.73723">
        <ele>32.6</ele>
        <time>2021-08-05T10:04:13Z</time>
      </trkpt>
      <trkpt lat="47.64316" lon="-2.73717">
        <ele>32.6</ele>
        <time>2021-08-05T10:04:14Z</time>
      </trkpt>
      <trkpt lat="47.64314" lon="-2.7371">
        <ele>32.6</ele>
        <time>2021-08-05T10:04:15Z</time>
      </trkpt>
      <trkpt lat="47.64311" lon="-2.73704">
        <ele>32.6</ele>
        <time>2021-08-05T10:04:16Z</time>
      </trkpt>
      <trkpt lat="47.64308" lon="-2.73697">
        <ele>32.6</ele>
        <time>2021-08-05T10:04:17Z</time>
      </trkpt>
      <trkpt lat="47.64305" lon="-2.73691">
        <ele>32.6</ele>
        <time>2021-08-05T10:04:18Z</time>
      </trkpt>
      <trkpt lat="47.64303" lon="-2.73684">
        <ele>32.6</ele>
        <time>2021-08-05T10:04:19Z</time>
      </trkpt>
      <trkpt lat="47.643" lon="-2.73678">
        <ele>32.6</ele>
        <time>2021-08-05T10:04:20Z</time>
      </trkpt>
      <trkpt lat="47.64297" lon="-2.73671">
        <ele>32.6</ele>
        <time>2021-08-05T10:04:21Z</time>
      </trkpt>
      <trkpt lat="47.64292" lon="-2.73659">
        <ele>32.6</ele>
        <time>2021-08-05T10:04:23Z</time>
      </trkpt>
      <trkpt lat="47.64289" lon="-2.73653">
        <ele>32.6</ele>
        <time>2021-08-05T10:04:24Z</time>
      </trkpt>
      <trkpt lat="47.64286" lon="-2.73646">
        <ele>32.6</ele>
        <time>2021-08-05T10:04:25Z</time>
      </trkpt>
      <trkpt lat="47.64283" lon="-2.7364">
        <ele>32.8</ele>
        <time>2021-08-05T10:04:26Z</time>
      </trkpt>
      <trkpt lat="47.6428" lon="-2.73633">
        <ele>32.8</ele>
        <time>2021-08-05T10:04:27Z</time>
      </trkpt>
      <trkpt lat="47.64278" lon="-2.73627">
        <ele>32.8</ele>
        <time>2021-08-05T10:04:28Z</time>
      </trkpt>
      <trkpt lat="47.64275" lon="-2.73621">
        <ele>32.8</ele>
        <time>2021-08-05T10:04:29Z</time>
      </trkpt>
      <trkpt lat="47.64273" lon="-2.73614">
        <ele>32.8</ele>
        <time>2021-08-05T10:04:30Z</time>
      </trkpt>
      <trkpt lat="47.64271" lon="-2.73609">
        <ele>32.8</ele>
        <time>2021-08-05T10:04:31Z</time>
      </trkpt>
      <trkpt lat="47.64268" lon="-2.73603">
        <ele>32.8</ele>
        <time>2021-08-05T10:04:32Z</time>
      </trkpt>
      <trkpt lat="47.64264" lon="-2.73592">
        <ele>32.8</ele>
        <time>2021-08-05T10:04:34Z</time>
      </trkpt>
      <trkpt lat="47.64262" lon="-2.73586">
        <ele>32.8</ele>
        <time>2021-08-05T10:04:35Z</time>
      </trkpt>
      <trkpt lat="47.6426" lon="-2.7358">
        <ele>32.8</ele>
        <time>2021-08-05T10:04:36Z</time>
      </trkpt>
      <trkpt lat="47.64258" lon="-2.73574">
        <ele>32.8</ele>
        <time>2021-08-05T10:04:37Z</time>
      </trkpt>
      <trkpt lat="47.64256" lon="-2.73569">
        <ele>32.8</ele>
        <time>2021-08-05T10:04:38Z</time>
      </trkpt>
      <trkpt lat="47.64253" lon="-2.73563">
        <ele>32.8</ele>
        <time>2021-08-05T10:04:39Z</time>
      </trkpt>
      <trkpt lat="47.64251" lon="-2.73557">
        <ele>32.8</ele>
        <time>2021-08-05T10:04:40Z</time>
      </trkpt>
      <trkpt lat="47.64249" lon="-2.7355">
        <ele>32.8</ele>
        <time>2021-08-05T10:04:41Z</time>
      </trkpt>
      <trkpt lat="47.64247" lon="-2.73544">
        <ele>33</ele>
        <time>2021-08-05T10:04:42Z</time>
      </trkpt>
      <trkpt lat="47.64245" lon="-2.73538">
        <ele>33</ele>
        <time>2021-08-05T10:04:43Z</time>
      </trkpt>
      <trkpt lat="47.64242" lon="-2.73525">
        <ele>33</ele>
        <time>2021-08-05T10:04:45Z</time>
      </trkpt>
      <trkpt lat="47.6424" lon="-2.73518">
        <ele>33</ele>
        <time>2021-08-05T10:04:46Z</time>
      </trkpt>
      <trkpt lat="47.64239" lon="-2.73512">
        <ele>33</ele>
        <time>2021-08-05T10:04:47Z</time>
      </trkpt>
      <trkpt lat="47.64237" lon="-2.73505">
        <ele>33.2</ele>
        <time>2021-08-05T10:04:48Z</time>
      </trkpt>
      <trkpt lat="47.64235" lon="-2.73499">
        <ele>33.4</ele>
        <time>2021-08-05T10:04:49Z</time>
      </trkpt>
      <trkpt lat="47.64234" lon="-2.73492">
        <ele>33.4</ele>
        <time>2021-08-05T10:04:50Z</time>
      </trkpt>
      <trkpt lat="47.64232" lon="-2.73485">
        <ele>33.6</ele>
        <time>2021-08-05T10:04:51Z</time>
      </trkpt>
      <trkpt lat="47.64231" lon="-2.73478">
        <ele>33.6</ele>
        <time>2021-08-05T10:04:52Z</time>
      </trkpt>
      <trkpt lat="47.6423" lon="-2.73472">
        <ele>33.6</ele>
        <time>2021-08-05T10:04:53Z</time>
      </trkpt>
      <trkpt lat="47.64229" lon="-2.73465">
        <ele>33.6</ele>
        <time>2021-08-05T10:04:54Z</time>
      </trkpt>
      <trkpt lat="47.64227" lon="-2.73451">
        <ele>33.8</ele>
        <time>2021-08-05T10:04:56Z</time>
      </trkpt>
      <trkpt lat="47.64226" lon="-2.73444">
        <ele>34</ele>
        <time>2021-08-05T10:04:57Z</time>
      </trkpt>
      <trkpt lat="47.64225" lon="-2.73437">
        <ele>34</ele>
        <time>2021-08-05T10:04:58Z</time>
      </trkpt>
      <trkpt lat="47.64224" lon="-2.73431">
        <ele>34</ele>
        <time>2021-08-05T10:04:59Z</time>
      </trkpt>
      <trkpt lat="47.64223" lon="-2.73424">
        <ele>34</ele>
        <time>2021-08-05T10:05:00Z</time>
      </trkpt>
      <trkpt lat="47.64222" lon="-2.73418">
        <ele>34</ele>
        <time>2021-08-05T10:05:01Z</time>
      </trkpt>
      <trkpt lat="47.64222" lon="-2.73412">
        <ele>34</ele>
        <time>2021-08-05T10:05:02Z</time>
      </trkpt>
      <trkpt lat="47.64221" lon="-2.73405">
        <ele>34</ele>
        <time>2021-08-05T10:05:03Z</time>
      </trkpt>
      <trkpt lat="47.6422" lon="-2.73399">
        <ele>34</ele>
        <time>2021-08-05T10:05:04Z</time>
      </trkpt>
      <trkpt lat="47.6422" lon="-2.73393">
        <ele>34</ele>
        <time>2021-08-05T10:05:05Z</time>
      </trkpt>
      <trkpt lat="47.64219" lon="-2.7338">
        <ele>34.2</ele>
        <time>2021-08-05T10:05:07Z</time>
      </trkpt>
      <trkpt lat="47.64219" lon="-2.73374">
        <ele>34.2</ele>
        <time>2021-08-05T10:05:08Z</time>
      </trkpt>
      <trkpt lat="47.64219" lon="-2.73367">
        <ele>34.2</ele>
        <time>2021-08-05T10:05:09Z</time>
      </trkpt>
      <trkpt lat="47.64218" lon="-2.73361">
        <ele>34.2</ele>
        <time>2021-08-05T10:05:10Z</time>
      </trkpt>
      <trkpt lat="47.64218" lon="-2.73354">
        <ele>34.2</ele>
        <time>2021-08-05T10:05:11Z</time>
      </trkpt>
      <trkpt lat="47.64218" lon="-2.73347">
        <ele>34.2</ele>
        <time>2021-08-05T10:05:12Z</time>
      </trkpt>
      <trkpt lat="47.64218" lon="-2.73341">
        <ele>34.2</ele>
        <time>2021-08-05T10:05:13Z</time>
      </trkpt>
      <trkpt lat="47.64218" lon="-2.73334">
        <ele>34.2</ele>
        <time>2021-08-05T10:05:14Z</time>
      </trkpt>
      <trkpt lat="47.64218" lon="-2.73327">
        <ele>34.2</ele>
        <time>2021-08-05T10:05:15Z</time>
      </trkpt>
      <trkpt lat="47.64218" lon="-2.7332">
        <ele>34.2</ele>
        <time>2021-08-05T10:05:16Z</time>
      </trkpt>
      <trkpt lat="47.64218" lon="-2.73306">
        <ele>34.4</ele>
        <time>2021-08-05T10:05:18Z</time>
      </trkpt>
      <trkpt lat="47.64219" lon="-2.73299">
        <ele>34.4</ele>
        <time>2021-08-05T10:05:19Z</time>
      </trkpt>
      <trkpt lat="47.64219" lon="-2.73292">
        <ele>34.6</ele>
        <time>2021-08-05T10:05:20Z</time>
      </trkpt>
      <trkpt lat="47.64219" lon="-2.73285">
        <ele>34.6</ele>
        <time>2021-08-05T10:05:21Z</time>
      </trkpt>
      <trkpt lat="47.6422" lon="-2.73278">
        <ele>34.6</ele>
        <time>2021-08-05T10:05:22Z</time>
      </trkpt>
      <trkpt lat="47.6422" lon="-2.73271">
        <ele>34.6</ele>
        <time>2021-08-05T10:05:23Z</time>
      </trkpt>
      <trkpt lat="47.64221" lon="-2.73264">
        <ele>34.6</ele>
        <time>2021-08-05T10:05:24Z</time>
      </trkpt>
      <trkpt lat="47.64222" lon="-2.73257">
        <ele>34.6</ele>
        <time>2021-08-05T10:05:25Z</time>
      </trkpt>
      <trkpt lat="47.64222" lon="-2.7325">
        <ele>34.6</ele>
        <time>2021-08-05T10:05:26Z</time>
      </trkpt>
      <trkpt lat="47.64223" lon="-2.73243">
        <ele>34.6</ele>
        <time>2021-08-05T10:05:27Z</time>
      </trkpt>
      <trkpt lat="47.64225" lon="-2.73229">
        <ele>34.6</ele>
        <time>2021-08-05T10:05:29Z</time>
      </trkpt>
      <trkpt lat="47.64226" lon="-2.73222">
        <ele>34.6</ele>
        <time>2021-08-05T10:05:30Z</time>
      </trkpt>
      <trkpt lat="47.64227" lon="-2.73216">
        <ele>34.6</ele>
        <time>2021-08-05T10:05:31Z</time>
      </trkpt>
      <trkpt lat="47.64228" lon="-2.73209">
        <ele>34.6</ele>
        <time>2021-08-05T10:05:32Z</time>
      </trkpt>
      <trkpt lat="47.64229" lon="-2.73202">
        <ele>34.6</ele>
        <time>2021-08-05T10:05:33Z</time>
      </trkpt>
      <trkpt lat="47.6423" lon="-2.73196">
        <ele>34.6</ele>
        <time>2021-08-05T10:05:34Z</time>
      </trkpt>
      <trkpt lat="47.64231" lon="-2.7319">
        <ele>34.6</ele>
        <time>2021-08-05T10:05:35Z</time>
      </trkpt>
      <trkpt lat="47.64232" lon="-2.73184">
        <ele>34.4</ele>
        <time>2021-08-05T10:05:36Z</time>
      </trkpt>
      <trkpt lat="47.64232" lon="-2.73178">
        <ele>34.4</ele>
        <time>2021-08-05T10:05:37Z</time>
      </trkpt>
      <trkpt lat="47.64233" lon="-2.73173">
        <ele>34.4</ele>
        <time>2021-08-05T10:05:38Z</time>
      </trkpt>
      <trkpt lat="47.64235" lon="-2.73161">
        <ele>34.6</ele>
        <time>2021-08-05T10:05:40Z</time>
      </trkpt>
      <trkpt lat="47.64236" lon="-2.73156">
        <ele>34.4</ele>
        <time>2021-08-05T10:05:41Z</time>
      </trkpt>
      <trkpt lat="47.64238" lon="-2.73152">
        <ele>34.4</ele>
        <time>2021-08-05T10:05:42Z</time>
      </trkpt>
      <trkpt lat="47.64241" lon="-2.73148">
        <ele>34.4</ele>
        <time>2021-08-05T10:05:43Z</time>
      </trkpt>
      <trkpt lat="47.64243" lon="-2.73143">
        <ele>34.2</ele>
        <time>2021-08-05T10:05:44Z</time>
      </trkpt>
      <trkpt lat="47.64245" lon="-2.73139">
        <ele>34.2</ele>
        <time>2021-08-05T10:05:45Z</time>
      </trkpt>
      <trkpt lat="47.64248" lon="-2.73135">
        <ele>34.2</ele>
        <time>2021-08-05T10:05:46Z</time>
      </trkpt>
      <trkpt lat="47.64251" lon="-2.73132">
        <ele>34.2</ele>
        <time>2021-08-05T10:05:47Z</time>
      </trkpt>
      <trkpt lat="47.64253" lon="-2.73128">
        <ele>34.2</ele>
        <time>2021-08-05T10:05:48Z</time>
      </trkpt>
      <trkpt lat="47.64254" lon="-2.73123">
        <ele>34.2</ele>
        <time>2021-08-05T10:05:49Z</time>
      </trkpt>
      <trkpt lat="47.64254" lon="-2.73113">
        <ele>34</ele>
        <time>2021-08-05T10:05:51Z</time>
      </trkpt>
      <trkpt lat="47.64253" lon="-2.73108">
        <ele>33.8</ele>
        <time>2021-08-05T10:05:52Z</time>
      </trkpt>
      <trkpt lat="47.64252" lon="-2.73104">
        <ele>33.8</ele>
        <time>2021-08-05T10:05:53Z</time>
      </trkpt>
      <trkpt lat="47.6425" lon="-2.73101">
        <ele>33.8</ele>
        <time>2021-08-05T10:05:54Z</time>
      </trkpt>
      <trkpt lat="47.64247" lon="-2.73097">
        <ele>33.6</ele>
        <time>2021-08-05T10:05:55Z</time>
      </trkpt>
      <trkpt lat="47.64245" lon="-2.73093">
        <ele>33.6</ele>
        <time>2021-08-05T10:05:56Z</time>
      </trkpt>
      <trkpt lat="47.64245" lon="-2.73087">
        <ele>33.6</ele>
        <time>2021-08-05T10:05:57Z</time>
      </trkpt>
      <trkpt lat="47.64245" lon="-2.73081">
        <ele>33.6</ele>
        <time>2021-08-05T10:05:58Z</time>
      </trkpt>
      <trkpt lat="47.64246" lon="-2.73076">
        <ele>33.6</ele>
        <time>2021-08-05T10:05:59Z</time>
      </trkpt>
      <trkpt lat="47.64247" lon="-2.73071">
        <ele>33.6</ele>
        <time>2021-08-05T10:06:00Z</time>
      </trkpt>
      <trkpt lat="47.64248" lon="-2.73066">
        <ele>33.6</ele>
        <time>2021-08-05T10:06:01Z</time>
      </trkpt>
      <trkpt lat="47.64249" lon="-2.73063">
        <ele>33.6</ele>
        <time>2021-08-05T10:06:02Z</time>
      </trkpt>
      <trkpt lat="47.64249" lon="-2.73059">
        <ele>33.6</ele>
        <time>2021-08-05T10:06:03Z</time>
      </trkpt>
      <trkpt lat="47.6425" lon="-2.73056">
        <ele>33.6</ele>
        <time>2021-08-05T10:06:04Z</time>
      </trkpt>
      <trkpt lat="47.64251" lon="-2.73053">
        <ele>33.6</ele>
        <time>2021-08-05T10:06:05Z</time>
      </trkpt>
      <trkpt lat="47.64251" lon="-2.7305">
        <ele>33.6</ele>
        <time>2021-08-05T10:06:06Z</time>
      </trkpt>
      <trkpt lat="47.64252" lon="-2.73048">
        <ele>33.6</ele>
        <time>2021-08-05T10:06:07Z</time>
      </trkpt>
      <trkpt lat="47.64252" lon="-2.73044">
        <ele>33.6</ele>
        <time>2021-08-05T10:06:08Z</time>
      </trkpt>
      <trkpt lat="47.64252" lon="-2.73041">
        <ele>33.6</ele>
        <time>2021-08-05T10:06:09Z</time>
      </trkpt>
      <trkpt lat="47.64253" lon="-2.73037">
        <ele>33.6</ele>
        <time>2021-08-05T10:06:10Z</time>
      </trkpt>
      <trkpt lat="47.64253" lon="-2.73033">
        <ele>33.6</ele>
        <time>2021-08-05T10:06:11Z</time>
      </trkpt>
      <trkpt lat="47.64254" lon="-2.73022">
        <ele>33.8</ele>
        <time>2021-08-05T10:06:13Z</time>
      </trkpt>
      <trkpt lat="47.64255" lon="-2.73017">
        <ele>33.8</ele>
        <time>2021-08-05T10:06:14Z</time>
      </trkpt>
      <trkpt lat="47.64255" lon="-2.73011">
        <ele>33.8</ele>
        <time>2021-08-05T10:06:15Z</time>
      </trkpt>
      <trkpt lat="47.64256" lon="-2.73004">
        <ele>33.8</ele>
        <time>2021-08-05T10:06:16Z</time>
      </trkpt>
      <trkpt lat="47.64257" lon="-2.72997">
        <ele>33.8</ele>
        <time>2021-08-05T10:06:17Z</time>
      </trkpt>
      <trkpt lat="47.64257" lon="-2.72991">
        <ele>33.8</ele>
        <time>2021-08-05T10:06:18Z</time>
      </trkpt>
      <trkpt lat="47.64258" lon="-2.72983">
        <ele>33.8</ele>
        <time>2021-08-05T10:06:19Z</time>
      </trkpt>
      <trkpt lat="47.64259" lon="-2.72976">
        <ele>33.8</ele>
        <time>2021-08-05T10:06:20Z</time>
      </trkpt>
      <trkpt lat="47.6426" lon="-2.72969">
        <ele>33.8</ele>
        <time>2021-08-05T10:06:21Z</time>
      </trkpt>
      <trkpt lat="47.64261" lon="-2.72961">
        <ele>34</ele>
        <time>2021-08-05T10:06:22Z</time>
      </trkpt>
      <trkpt lat="47.64261" lon="-2.72953">
        <ele>34</ele>
        <time>2021-08-05T10:06:23Z</time>
      </trkpt>
      <trkpt lat="47.64263" lon="-2.72938">
        <ele>34</ele>
        <time>2021-08-05T10:06:25Z</time>
      </trkpt>
      <trkpt lat="47.64264" lon="-2.7293">
        <ele>34</ele>
        <time>2021-08-05T10:06:26Z</time>
      </trkpt>
      <trkpt lat="47.64265" lon="-2.72922">
        <ele>34</ele>
        <time>2021-08-05T10:06:27Z</time>
      </trkpt>
      <trkpt lat="47.64266" lon="-2.72914">
        <ele>34</ele>
        <time>2021-08-05T10:06:28Z</time>
      </trkpt>
      <trkpt lat="47.64267" lon="-2.72906">
        <ele>34</ele>
        <time>2021-08-05T10:06:29Z</time>
      </trkpt>
      <trkpt lat="47.64268" lon="-2.72898">
        <ele>34</ele>
        <time>2021-08-05T10:06:30Z</time>
      </trkpt>
      <trkpt lat="47.64269" lon="-2.72891">
        <ele>34</ele>
        <time>2021-08-05T10:06:31Z</time>
      </trkpt>
      <trkpt lat="47.6427" lon="-2.72883">
        <ele>34</ele>
        <time>2021-08-05T10:06:32Z</time>
      </trkpt>
      <trkpt lat="47.64271" lon="-2.72875">
        <ele>34</ele>
        <time>2021-08-05T10:06:33Z</time>
      </trkpt>
      <trkpt lat="47.64273" lon="-2.72859">
        <ele>34.2</ele>
        <time>2021-08-05T10:06:35Z</time>
      </trkpt>
      <trkpt lat="47.64275" lon="-2.72852">
        <ele>34.2</ele>
        <time>2021-08-05T10:06:36Z</time>
      </trkpt>
      <trkpt lat="47.64276" lon="-2.72844">
        <ele>34.2</ele>
        <time>2021-08-05T10:06:37Z</time>
      </trkpt>
      <trkpt lat="47.64277" lon="-2.72837">
        <ele>34.2</ele>
        <time>2021-08-05T10:06:38Z</time>
      </trkpt>
      <trkpt lat="47.64277" lon="-2.7283">
        <ele>34.2</ele>
        <time>2021-08-05T10:06:39Z</time>
      </trkpt>
      <trkpt lat="47.64278" lon="-2.72823">
        <ele>34.2</ele>
        <time>2021-08-05T10:06:40Z</time>
      </trkpt>
      <trkpt lat="47.6428" lon="-2.72815">
        <ele>34.2</ele>
        <time>2021-08-05T10:06:41Z</time>
      </trkpt>
      <trkpt lat="47.64281" lon="-2.72808">
        <ele>34.2</ele>
        <time>2021-08-05T10:06:42Z</time>
      </trkpt>
      <trkpt lat="47.64282" lon="-2.72801">
        <ele>34.2</ele>
        <time>2021-08-05T10:06:43Z</time>
      </trkpt>
      <trkpt lat="47.64283" lon="-2.72794">
        <ele>34.2</ele>
        <time>2021-08-05T10:06:44Z</time>
      </trkpt>
      <trkpt lat="47.64284" lon="-2.72781">
        <ele>34.2</ele>
        <time>2021-08-05T10:06:46Z</time>
      </trkpt>
      <trkpt lat="47.64285" lon="-2.72774">
        <ele>34.2</ele>
        <time>2021-08-05T10:06:47Z</time>
      </trkpt>
      <trkpt lat="47.64286" lon="-2.72768">
        <ele>34.4</ele>
        <time>2021-08-05T10:06:48Z</time>
      </trkpt>
      <trkpt lat="47.64287" lon="-2.72761">
        <ele>34.6</ele>
        <time>2021-08-05T10:06:49Z</time>
      </trkpt>
      <trkpt lat="47.64288" lon="-2.72755">
        <ele>34.6</ele>
        <time>2021-08-05T10:06:50Z</time>
      </trkpt>
      <trkpt lat="47.64289" lon="-2.72749">
        <ele>34.6</ele>
        <time>2021-08-05T10:06:51Z</time>
      </trkpt>
      <trkpt lat="47.64289" lon="-2.72743">
        <ele>34.6</ele>
        <time>2021-08-05T10:06:52Z</time>
      </trkpt>
      <trkpt lat="47.6429" lon="-2.72737">
        <ele>34.6</ele>
        <time>2021-08-05T10:06:53Z</time>
      </trkpt>
      <trkpt lat="47.64291" lon="-2.72731">
        <ele>34.8</ele>
        <time>2021-08-05T10:06:54Z</time>
      </trkpt>
      <trkpt lat="47.64291" lon="-2.72725">
        <ele>34.8</ele>
        <time>2021-08-05T10:06:55Z</time>
      </trkpt>
      <trkpt lat="47.64293" lon="-2.72713">
        <ele>34.8</ele>
        <time>2021-08-05T10:06:57Z</time>
      </trkpt>
      <trkpt lat="47.64293" lon="-2.72707">
        <ele>34.8</ele>
        <time>2021-08-05T10:06:58Z</time>
      </trkpt>
      <trkpt lat="47.64294" lon="-2.72702">
        <ele>34.8</ele>
        <time>2021-08-05T10:06:59Z</time>
      </trkpt>
      <trkpt lat="47.64295" lon="-2.72696">
        <ele>34.8</ele>
        <time>2021-08-05T10:07:00Z</time>
      </trkpt>
      <trkpt lat="47.64295" lon="-2.7269">
        <ele>35</ele>
        <time>2021-08-05T10:07:01Z</time>
      </trkpt>
      <trkpt lat="47.64296" lon="-2.72685">
        <ele>35</ele>
        <time>2021-08-05T10:07:02Z</time>
      </trkpt>
      <trkpt lat="47.64296" lon="-2.72679">
        <ele>35</ele>
        <time>2021-08-05T10:07:03Z</time>
      </trkpt>
      <trkpt lat="47.64296" lon="-2.72673">
        <ele>35</ele>
        <time>2021-08-05T10:07:04Z</time>
      </trkpt>
      <trkpt lat="47.64297" lon="-2.72667">
        <ele>35</ele>
        <time>2021-08-05T10:07:05Z</time>
      </trkpt>
      <trkpt lat="47.64297" lon="-2.72662">
        <ele>35</ele>
        <time>2021-08-05T10:07:06Z</time>
      </trkpt>
      <trkpt lat="47.64298" lon="-2.7265">
        <ele>35</ele>
        <time>2021-08-05T10:07:08Z</time>
      </trkpt>
      <trkpt lat="47.64298" lon="-2.72644">
        <ele>35</ele>
        <time>2021-08-05T10:07:09Z</time>
      </trkpt>
      <trkpt lat="47.64299" lon="-2.72637">
        <ele>35.2</ele>
        <time>2021-08-05T10:07:10Z</time>
      </trkpt>
      <trkpt lat="47.64299" lon="-2.72631">
        <ele>35.2</ele>
        <time>2021-08-05T10:07:11Z</time>
      </trkpt>
      <trkpt lat="47.64299" lon="-2.72625">
        <ele>35.2</ele>
        <time>2021-08-05T10:07:12Z</time>
      </trkpt>
      <trkpt lat="47.643" lon="-2.72619">
        <ele>35.2</ele>
        <time>2021-08-05T10:07:13Z</time>
      </trkpt>
      <trkpt lat="47.643" lon="-2.72612">
        <ele>35.2</ele>
        <time>2021-08-05T10:07:14Z</time>
      </trkpt>
      <trkpt lat="47.64301" lon="-2.72605">
        <ele>35.2</ele>
        <time>2021-08-05T10:07:15Z</time>
      </trkpt>
      <trkpt lat="47.64301" lon="-2.72599">
        <ele>35.2</ele>
        <time>2021-08-05T10:07:16Z</time>
      </trkpt>
      <trkpt lat="47.64302" lon="-2.72592">
        <ele>35.2</ele>
        <time>2021-08-05T10:07:17Z</time>
      </trkpt>
      <trkpt lat="47.64302" lon="-2.72586">
        <ele>35.2</ele>
        <time>2021-08-05T10:07:18Z</time>
      </trkpt>
      <trkpt lat="47.64302" lon="-2.7258">
        <ele>35.2</ele>
        <time>2021-08-05T10:07:19Z</time>
      </trkpt>
      <trkpt lat="47.64303" lon="-2.72574">
        <ele>35.2</ele>
        <time>2021-08-05T10:07:20Z</time>
      </trkpt>
      <trkpt lat="47.64303" lon="-2.72567">
        <ele>35.2</ele>
        <time>2021-08-05T10:07:21Z</time>
      </trkpt>
      <trkpt lat="47.64304" lon="-2.72561">
        <ele>35.2</ele>
        <time>2021-08-05T10:07:22Z</time>
      </trkpt>
      <trkpt lat="47.64305" lon="-2.72555">
        <ele>35.2</ele>
        <time>2021-08-05T10:07:23Z</time>
      </trkpt>
      <trkpt lat="47.64306" lon="-2.72549">
        <ele>35.2</ele>
        <time>2021-08-05T10:07:24Z</time>
      </trkpt>
      <trkpt lat="47.64306" lon="-2.72543">
        <ele>35.2</ele>
        <time>2021-08-05T10:07:25Z</time>
      </trkpt>
      <trkpt lat="47.64307" lon="-2.72537">
        <ele>35.2</ele>
        <time>2021-08-05T10:07:26Z</time>
      </trkpt>
      <trkpt lat="47.64307" lon="-2.72533">
        <ele>35.2</ele>
        <time>2021-08-05T10:07:27Z</time>
      </trkpt>
      <trkpt lat="47.64307" lon="-2.72528">
        <ele>35.2</ele>
        <time>2021-08-05T10:07:28Z</time>
      </trkpt>
      <trkpt lat="47.64308" lon="-2.72518">
        <ele>35.2</ele>
        <time>2021-08-05T10:07:30Z</time>
      </trkpt>
      <trkpt lat="47.6431" lon="-2.72514">
        <ele>35.2</ele>
        <time>2021-08-05T10:07:31Z</time>
      </trkpt>
      <trkpt lat="47.64313" lon="-2.7251">
        <ele>35.2</ele>
        <time>2021-08-05T10:07:32Z</time>
      </trkpt>
      <trkpt lat="47.64317" lon="-2.72508">
        <ele>35.2</ele>
        <time>2021-08-05T10:07:33Z</time>
      </trkpt>
      <trkpt lat="47.6432" lon="-2.72507">
        <ele>35.2</ele>
        <time>2021-08-05T10:07:34Z</time>
      </trkpt>
      <trkpt lat="47.64324" lon="-2.72506">
        <ele>35.2</ele>
        <time>2021-08-05T10:07:35Z</time>
      </trkpt>
      <trkpt lat="47.64327" lon="-2.72504">
        <ele>35.2</ele>
        <time>2021-08-05T10:07:36Z</time>
      </trkpt>
      <trkpt lat="47.6433" lon="-2.72502">
        <ele>35.2</ele>
        <time>2021-08-05T10:07:37Z</time>
      </trkpt>
      <trkpt lat="47.64332" lon="-2.725">
        <ele>35.2</ele>
        <time>2021-08-05T10:07:38Z</time>
      </trkpt>
      <trkpt lat="47.64334" lon="-2.72499">
        <ele>35.2</ele>
        <time>2021-08-05T10:07:39Z</time>
      </trkpt>
      <trkpt lat="47.64337" lon="-2.72496">
        <ele>35.2</ele>
        <time>2021-08-05T10:07:41Z</time>
      </trkpt>
      <trkpt lat="47.64338" lon="-2.72494">
        <ele>35.2</ele>
        <time>2021-08-05T10:07:42Z</time>
      </trkpt>
      <trkpt lat="47.64338" lon="-2.72493">
        <ele>35.2</ele>
        <time>2021-08-05T10:07:43Z</time>
      </trkpt>
      <trkpt lat="47.64338" lon="-2.72492">
        <ele>35.2</ele>
        <time>2021-08-05T10:07:44Z</time>
      </trkpt>
      <trkpt lat="47.64338" lon="-2.72491">
        <ele>35.2</ele>
        <time>2021-08-05T10:07:45Z</time>
      </trkpt>
      <trkpt lat="47.64339" lon="-2.7249">
        <ele>35.2</ele>
        <time>2021-08-05T10:07:46Z</time>
      </trkpt>
      <trkpt lat="47.64338" lon="-2.72487">
        <ele>35.2</ele>
        <time>2021-08-05T10:07:48Z</time>
      </trkpt>
      <trkpt lat="47.64337" lon="-2.72487">
        <ele>35.2</ele>
        <time>2021-08-05T10:07:49Z</time>
      </trkpt>
      <trkpt lat="47.64336" lon="-2.72488">
        <ele>35.2</ele>
        <time>2021-08-05T10:07:50Z</time>
      </trkpt>
      <trkpt lat="47.64335" lon="-2.72491">
        <ele>35.2</ele>
        <time>2021-08-05T10:07:52Z</time>
      </trkpt>
      <trkpt lat="47.64334" lon="-2.72493">
        <ele>35.2</ele>
        <time>2021-08-05T10:07:53Z</time>
      </trkpt>
      <trkpt lat="47.64332" lon="-2.72493">
        <ele>35.2</ele>
        <time>2021-08-05T10:07:54Z</time>
      </trkpt>
      <trkpt lat="47.6433" lon="-2.72494">
        <ele>35.2</ele>
        <time>2021-08-05T10:07:55Z</time>
      </trkpt>
      <trkpt lat="47.64328" lon="-2.72494">
        <ele>35.2</ele>
        <time>2021-08-05T10:07:56Z</time>
      </trkpt>
      <trkpt lat="47.64327" lon="-2.72493">
        <ele>35.2</ele>
        <time>2021-08-05T10:07:57Z</time>
      </trkpt>
      <trkpt lat="47.64325" lon="-2.72493">
        <ele>35.2</ele>
        <time>2021-08-05T10:07:58Z</time>
      </trkpt>
      <trkpt lat="47.64323" lon="-2.72493">
        <ele>35.2</ele>
        <time>2021-08-05T10:07:59Z</time>
      </trkpt>
      <trkpt lat="47.64321" lon="-2.72493">
        <ele>35</ele>
        <time>2021-08-05T10:08:00Z</time>
      </trkpt>
      <trkpt lat="47.64318" lon="-2.72492">
        <ele>35</ele>
        <time>2021-08-05T10:08:01Z</time>
      </trkpt>
      <trkpt lat="47.64315" lon="-2.72492">
        <ele>34.8</ele>
        <time>2021-08-05T10:08:02Z</time>
      </trkpt>
      <trkpt lat="47.64313" lon="-2.72491">
        <ele>34.8</ele>
        <time>2021-08-05T10:08:03Z</time>
      </trkpt>
      <trkpt lat="47.6431" lon="-2.7249">
        <ele>34.8</ele>
        <time>2021-08-05T10:08:04Z</time>
      </trkpt>
      <trkpt lat="47.64308" lon="-2.72488">
        <ele>34.8</ele>
        <time>2021-08-05T10:08:05Z</time>
      </trkpt>
      <trkpt lat="47.64306" lon="-2.72485">
        <ele>34.8</ele>
        <time>2021-08-05T10:08:06Z</time>
      </trkpt>
      <trkpt lat="47.64304" lon="-2.72481">
        <ele>34.6</ele>
        <time>2021-08-05T10:08:07Z</time>
      </trkpt>
      <trkpt lat="47.64303" lon="-2.72477">
        <ele>34.6</ele>
        <time>2021-08-05T10:08:08Z</time>
      </trkpt>
      <trkpt lat="47.64302" lon="-2.72474">
        <ele>34.6</ele>
        <time>2021-08-05T10:08:09Z</time>
      </trkpt>
      <trkpt lat="47.64301" lon="-2.72469">
        <ele>34.4</ele>
        <time>2021-08-05T10:08:10Z</time>
      </trkpt>
      <trkpt lat="47.64301" lon="-2.72465">
        <ele>34.4</ele>
        <time>2021-08-05T10:08:11Z</time>
      </trkpt>
      <trkpt lat="47.64301" lon="-2.72461">
        <ele>34.4</ele>
        <time>2021-08-05T10:08:12Z</time>
      </trkpt>
      <trkpt lat="47.64301" lon="-2.72457">
        <ele>34.4</ele>
        <time>2021-08-05T10:08:13Z</time>
      </trkpt>
      <trkpt lat="47.643" lon="-2.7245">
        <ele>34.4</ele>
        <time>2021-08-05T10:08:15Z</time>
      </trkpt>
      <trkpt lat="47.643" lon="-2.72446">
        <ele>34.4</ele>
        <time>2021-08-05T10:08:16Z</time>
      </trkpt>
      <trkpt lat="47.643" lon="-2.72443">
        <ele>34.4</ele>
        <time>2021-08-05T10:08:17Z</time>
      </trkpt>
      <trkpt lat="47.643" lon="-2.7244">
        <ele>34.4</ele>
        <time>2021-08-05T10:08:18Z</time>
      </trkpt>
      <trkpt lat="47.643" lon="-2.72437">
        <ele>34.4</ele>
        <time>2021-08-05T10:08:19Z</time>
      </trkpt>
      <trkpt lat="47.643" lon="-2.72434">
        <ele>34.4</ele>
        <time>2021-08-05T10:08:20Z</time>
      </trkpt>
      <trkpt lat="47.643" lon="-2.7243">
        <ele>34.4</ele>
        <time>2021-08-05T10:08:21Z</time>
      </trkpt>
      <trkpt lat="47.643" lon="-2.72427">
        <ele>34.4</ele>
        <time>2021-08-05T10:08:22Z</time>
      </trkpt>
      <trkpt lat="47.643" lon="-2.72423">
        <ele>34.4</ele>
        <time>2021-08-05T10:08:23Z</time>
      </trkpt>
      <trkpt lat="47.643" lon="-2.72418">
        <ele>34.4</ele>
        <time>2021-08-05T10:08:24Z</time>
      </trkpt>
      <trkpt lat="47.64299" lon="-2.72408">
        <ele>34.4</ele>
        <time>2021-08-05T10:08:26Z</time>
      </trkpt>
      <trkpt lat="47.64299" lon="-2.72402">
        <ele>34.4</ele>
        <time>2021-08-05T10:08:27Z</time>
      </trkpt>
      <trkpt lat="47.64299" lon="-2.72396">
        <ele>34.4</ele>
        <time>2021-08-05T10:08:28Z</time>
      </trkpt>
      <trkpt lat="47.64299" lon="-2.7239">
        <ele>34.4</ele>
        <time>2021-08-05T10:08:29Z</time>
      </trkpt>
      <trkpt lat="47.64298" lon="-2.72384">
        <ele>34.4</ele>
        <time>2021-08-05T10:08:30Z</time>
      </trkpt>
      <trkpt lat="47.64298" lon="-2.72378">
        <ele>34.4</ele>
        <time>2021-08-05T10:08:31Z</time>
      </trkpt>
      <trkpt lat="47.64299" lon="-2.72373">
        <ele>34.4</ele>
        <time>2021-08-05T10:08:32Z</time>
      </trkpt>
      <trkpt lat="47.64299" lon="-2.72367">
        <ele>34.4</ele>
        <time>2021-08-05T10:08:33Z</time>
      </trkpt>
      <trkpt lat="47.64298" lon="-2.72361">
        <ele>34.4</ele>
        <time>2021-08-05T10:08:34Z</time>
      </trkpt>
      <trkpt lat="47.64298" lon="-2.72354">
        <ele>34.4</ele>
        <time>2021-08-05T10:08:35Z</time>
      </trkpt>
      <trkpt lat="47.64297" lon="-2.72341">
        <ele>34.4</ele>
        <time>2021-08-05T10:08:37Z</time>
      </trkpt>
      <trkpt lat="47.64297" lon="-2.72334">
        <ele>34.6</ele>
        <time>2021-08-05T10:08:38Z</time>
      </trkpt>
      <trkpt lat="47.64297" lon="-2.72328">
        <ele>34.6</ele>
        <time>2021-08-05T10:08:39Z</time>
      </trkpt>
      <trkpt lat="47.64297" lon="-2.72321">
        <ele>34.6</ele>
        <time>2021-08-05T10:08:40Z</time>
      </trkpt>
      <trkpt lat="47.64297" lon="-2.72315">
        <ele>34.6</ele>
        <time>2021-08-05T10:08:41Z</time>
      </trkpt>
      <trkpt lat="47.64296" lon="-2.72309">
        <ele>34.6</ele>
        <time>2021-08-05T10:08:42Z</time>
      </trkpt>
      <trkpt lat="47.64296" lon="-2.72302">
        <ele>34.6</ele>
        <time>2021-08-05T10:08:43Z</time>
      </trkpt>
      <trkpt lat="47.64296" lon="-2.72295">
        <ele>34.6</ele>
        <time>2021-08-05T10:08:44Z</time>
      </trkpt>
      <trkpt lat="47.64296" lon="-2.72288">
        <ele>34.6</ele>
        <time>2021-08-05T10:08:45Z</time>
      </trkpt>
      <trkpt lat="47.64296" lon="-2.72281">
        <ele>34.6</ele>
        <time>2021-08-05T10:08:46Z</time>
      </trkpt>
      <trkpt lat="47.64295" lon="-2.72274">
        <ele>34.6</ele>
        <time>2021-08-05T10:08:47Z</time>
      </trkpt>
      <trkpt lat="47.64294" lon="-2.72268">
        <ele>34.6</ele>
        <time>2021-08-05T10:08:48Z</time>
      </trkpt>
      <trkpt lat="47.64293" lon="-2.72261">
        <ele>34.6</ele>
        <time>2021-08-05T10:08:49Z</time>
      </trkpt>
      <trkpt lat="47.64293" lon="-2.72256">
        <ele>34.6</ele>
        <time>2021-08-05T10:08:50Z</time>
      </trkpt>
      <trkpt lat="47.64293" lon="-2.7225">
        <ele>34.6</ele>
        <time>2021-08-05T10:08:51Z</time>
      </trkpt>
      <trkpt lat="47.64293" lon="-2.72244">
        <ele>34.6</ele>
        <time>2021-08-05T10:08:52Z</time>
      </trkpt>
      <trkpt lat="47.64295" lon="-2.72239">
        <ele>34.6</ele>
        <time>2021-08-05T10:08:53Z</time>
      </trkpt>
      <trkpt lat="47.64297" lon="-2.72234">
        <ele>34.6</ele>
        <time>2021-08-05T10:08:54Z</time>
      </trkpt>
      <trkpt lat="47.64299" lon="-2.72231">
        <ele>34.6</ele>
        <time>2021-08-05T10:08:55Z</time>
      </trkpt>
      <trkpt lat="47.64302" lon="-2.72227">
        <ele>34.6</ele>
        <time>2021-08-05T10:08:56Z</time>
      </trkpt>
      <trkpt lat="47.64304" lon="-2.72224">
        <ele>34.6</ele>
        <time>2021-08-05T10:08:57Z</time>
      </trkpt>
      <trkpt lat="47.64308" lon="-2.72217">
        <ele>34.6</ele>
        <time>2021-08-05T10:08:59Z</time>
      </trkpt>
      <trkpt lat="47.64311" lon="-2.72214">
        <ele>34.6</ele>
        <time>2021-08-05T10:09:00Z</time>
      </trkpt>
      <trkpt lat="47.64313" lon="-2.72211">
        <ele>34.6</ele>
        <time>2021-08-05T10:09:01Z</time>
      </trkpt>
      <trkpt lat="47.64316" lon="-2.72208">
        <ele>34.6</ele>
        <time>2021-08-05T10:09:02Z</time>
      </trkpt>
      <trkpt lat="47.6432" lon="-2.72206">
        <ele>34.6</ele>
        <time>2021-08-05T10:09:03Z</time>
      </trkpt>
      <trkpt lat="47.64324" lon="-2.72205">
        <ele>34.4</ele>
        <time>2021-08-05T10:09:04Z</time>
      </trkpt>
      <trkpt lat="47.64328" lon="-2.72206">
        <ele>34.4</ele>
        <time>2021-08-05T10:09:05Z</time>
      </trkpt>
      <trkpt lat="47.64331" lon="-2.72207">
        <ele>34.4</ele>
        <time>2021-08-05T10:09:06Z</time>
      </trkpt>
      <trkpt lat="47.64335" lon="-2.72208">
        <ele>34.4</ele>
        <time>2021-08-05T10:09:07Z</time>
      </trkpt>
      <trkpt lat="47.64338" lon="-2.72208">
        <ele>34.4</ele>
        <time>2021-08-05T10:09:08Z</time>
      </trkpt>
      <trkpt lat="47.64344" lon="-2.7221">
        <ele>34.4</ele>
        <time>2021-08-05T10:09:10Z</time>
      </trkpt>
      <trkpt lat="47.64347" lon="-2.72211">
        <ele>34.4</ele>
        <time>2021-08-05T10:09:11Z</time>
      </trkpt>
      <trkpt lat="47.64351" lon="-2.72212">
        <ele>34.4</ele>
        <time>2021-08-05T10:09:12Z</time>
      </trkpt>
      <trkpt lat="47.64354" lon="-2.72213">
        <ele>34.4</ele>
        <time>2021-08-05T10:09:13Z</time>
      </trkpt>
      <trkpt lat="47.64358" lon="-2.72214">
        <ele>34.4</ele>
        <time>2021-08-05T10:09:14Z</time>
      </trkpt>
      <trkpt lat="47.64361" lon="-2.72215">
        <ele>34.4</ele>
        <time>2021-08-05T10:09:15Z</time>
      </trkpt>
      <trkpt lat="47.64365" lon="-2.72216">
        <ele>34.4</ele>
        <time>2021-08-05T10:09:16Z</time>
      </trkpt>
      <trkpt lat="47.64368" lon="-2.72217">
        <ele>34.4</ele>
        <time>2021-08-05T10:09:17Z</time>
      </trkpt>
      <trkpt lat="47.64371" lon="-2.72218">
        <ele>34.4</ele>
        <time>2021-08-05T10:09:18Z</time>
      </trkpt>
      <trkpt lat="47.64374" lon="-2.72219">
        <ele>34.4</ele>
        <time>2021-08-05T10:09:19Z</time>
      </trkpt>
      <trkpt lat="47.64381" lon="-2.72221">
        <ele>34.4</ele>
        <time>2021-08-05T10:09:21Z</time>
      </trkpt>
      <trkpt lat="47.64385" lon="-2.72222">
        <ele>34.4</ele>
        <time>2021-08-05T10:09:22Z</time>
      </trkpt>
      <trkpt lat="47.64388" lon="-2.72223">
        <ele>34.6</ele>
        <time>2021-08-05T10:09:23Z</time>
      </trkpt>
      <trkpt lat="47.64392" lon="-2.72224">
        <ele>34.6</ele>
        <time>2021-08-05T10:09:24Z</time>
      </trkpt>
      <trkpt lat="47.64395" lon="-2.72226">
        <ele>34.6</ele>
        <time>2021-08-05T10:09:25Z</time>
      </trkpt>
      <trkpt lat="47.64399" lon="-2.72227">
        <ele>34.8</ele>
        <time>2021-08-05T10:09:26Z</time>
      </trkpt>
      <trkpt lat="47.64403" lon="-2.72228">
        <ele>34.8</ele>
        <time>2021-08-05T10:09:27Z</time>
      </trkpt>
      <trkpt lat="47.64406" lon="-2.72229">
        <ele>34.8</ele>
        <time>2021-08-05T10:09:28Z</time>
      </trkpt>
      <trkpt lat="47.6441" lon="-2.72231">
        <ele>34.8</ele>
        <time>2021-08-05T10:09:29Z</time>
      </trkpt>
      <trkpt lat="47.64414" lon="-2.72232">
        <ele>34.8</ele>
        <time>2021-08-05T10:09:30Z</time>
      </trkpt>
      <trkpt lat="47.64421" lon="-2.72234">
        <ele>34.8</ele>
        <time>2021-08-05T10:09:32Z</time>
      </trkpt>
      <trkpt lat="47.64425" lon="-2.72235">
        <ele>35</ele>
        <time>2021-08-05T10:09:33Z</time>
      </trkpt>
      <trkpt lat="47.64429" lon="-2.72236">
        <ele>35</ele>
        <time>2021-08-05T10:09:34Z</time>
      </trkpt>
      <trkpt lat="47.64433" lon="-2.72238">
        <ele>35</ele>
        <time>2021-08-05T10:09:35Z</time>
      </trkpt>
      <trkpt lat="47.64437" lon="-2.72239">
        <ele>35</ele>
        <time>2021-08-05T10:09:36Z</time>
      </trkpt>
      <trkpt lat="47.6444" lon="-2.7224">
        <ele>35</ele>
        <time>2021-08-05T10:09:37Z</time>
      </trkpt>
      <trkpt lat="47.64444" lon="-2.72241">
        <ele>35</ele>
        <time>2021-08-05T10:09:38Z</time>
      </trkpt>
      <trkpt lat="47.64448" lon="-2.72243">
        <ele>35</ele>
        <time>2021-08-05T10:09:39Z</time>
      </trkpt>
      <trkpt lat="47.64452" lon="-2.72244">
        <ele>35</ele>
        <time>2021-08-05T10:09:40Z</time>
      </trkpt>
      <trkpt lat="47.64456" lon="-2.72245">
        <ele>35</ele>
        <time>2021-08-05T10:09:41Z</time>
      </trkpt>
      <trkpt lat="47.64463" lon="-2.72248">
        <ele>35</ele>
        <time>2021-08-05T10:09:43Z</time>
      </trkpt>
      <trkpt lat="47.64467" lon="-2.72249">
        <ele>35</ele>
        <time>2021-08-05T10:09:44Z</time>
      </trkpt>
      <trkpt lat="47.64471" lon="-2.7225">
        <ele>35.2</ele>
        <time>2021-08-05T10:09:45Z</time>
      </trkpt>
      <trkpt lat="47.64475" lon="-2.72251">
        <ele>35.2</ele>
        <time>2021-08-05T10:09:46Z</time>
      </trkpt>
      <trkpt lat="47.64479" lon="-2.72253">
        <ele>35.2</ele>
        <time>2021-08-05T10:09:47Z</time>
      </trkpt>
      <trkpt lat="47.64484" lon="-2.72254">
        <ele>35.2</ele>
        <time>2021-08-05T10:09:48Z</time>
      </trkpt>
      <trkpt lat="47.64488" lon="-2.72255">
        <ele>35.2</ele>
        <time>2021-08-05T10:09:49Z</time>
      </trkpt>
      <trkpt lat="47.64492" lon="-2.72257">
        <ele>35.4</ele>
        <time>2021-08-05T10:09:50Z</time>
      </trkpt>
      <trkpt lat="47.64496" lon="-2.72258">
        <ele>35.6</ele>
        <time>2021-08-05T10:09:51Z</time>
      </trkpt>
      <trkpt lat="47.645" lon="-2.72259">
        <ele>35.6</ele>
        <time>2021-08-05T10:09:52Z</time>
      </trkpt>
      <trkpt lat="47.64508" lon="-2.72262">
        <ele>35.6</ele>
        <time>2021-08-05T10:09:54Z</time>
      </trkpt>
      <trkpt lat="47.64512" lon="-2.72264">
        <ele>35.6</ele>
        <time>2021-08-05T10:09:55Z</time>
      </trkpt>
      <trkpt lat="47.64516" lon="-2.72265">
        <ele>35.6</ele>
        <time>2021-08-05T10:09:56Z</time>
      </trkpt>
      <trkpt lat="47.6452" lon="-2.72267">
        <ele>35.6</ele>
        <time>2021-08-05T10:09:57Z</time>
      </trkpt>
      <trkpt lat="47.64525" lon="-2.72269">
        <ele>35.6</ele>
        <time>2021-08-05T10:09:58Z</time>
      </trkpt>
      <trkpt lat="47.64529" lon="-2.7227">
        <ele>35.6</ele>
        <time>2021-08-05T10:09:59Z</time>
      </trkpt>
      <trkpt lat="47.64533" lon="-2.72272">
        <ele>35.6</ele>
        <time>2021-08-05T10:10:00Z</time>
      </trkpt>
      <trkpt lat="47.64537" lon="-2.72274">
        <ele>35.6</ele>
        <time>2021-08-05T10:10:01Z</time>
      </trkpt>
      <trkpt lat="47.64541" lon="-2.72275">
        <ele>35.6</ele>
        <time>2021-08-05T10:10:02Z</time>
      </trkpt>
      <trkpt lat="47.64545" lon="-2.72277">
        <ele>35.6</ele>
        <time>2021-08-05T10:10:03Z</time>
      </trkpt>
      <trkpt lat="47.64549" lon="-2.72278">
        <ele>35.6</ele>
        <time>2021-08-05T10:10:04Z</time>
      </trkpt>
      <trkpt lat="47.64553" lon="-2.7228">
        <ele>35.6</ele>
        <time>2021-08-05T10:10:05Z</time>
      </trkpt>
      <trkpt lat="47.64556" lon="-2.72281">
        <ele>35.6</ele>
        <time>2021-08-05T10:10:06Z</time>
      </trkpt>
      <trkpt lat="47.6456" lon="-2.72283">
        <ele>35.6</ele>
        <time>2021-08-05T10:10:07Z</time>
      </trkpt>
      <trkpt lat="47.64564" lon="-2.72284">
        <ele>35.6</ele>
        <time>2021-08-05T10:10:08Z</time>
      </trkpt>
      <trkpt lat="47.64568" lon="-2.72286">
        <ele>35.6</ele>
        <time>2021-08-05T10:10:09Z</time>
      </trkpt>
      <trkpt lat="47.64571" lon="-2.72288">
        <ele>35.6</ele>
        <time>2021-08-05T10:10:10Z</time>
      </trkpt>
      <trkpt lat="47.64574" lon="-2.72291">
        <ele>35.6</ele>
        <time>2021-08-05T10:10:11Z</time>
      </trkpt>
      <trkpt lat="47.64576" lon="-2.72294">
        <ele>35.6</ele>
        <time>2021-08-05T10:10:12Z</time>
      </trkpt>
      <trkpt lat="47.64579" lon="-2.72296">
        <ele>35.6</ele>
        <time>2021-08-05T10:10:13Z</time>
      </trkpt>
      <trkpt lat="47.64581" lon="-2.72298">
        <ele>35.6</ele>
        <time>2021-08-05T10:10:14Z</time>
      </trkpt>
      <trkpt lat="47.64586" lon="-2.723">
        <ele>35.4</ele>
        <time>2021-08-05T10:10:16Z</time>
      </trkpt>
      <trkpt lat="47.64588" lon="-2.72301">
        <ele>35.4</ele>
        <time>2021-08-05T10:10:17Z</time>
      </trkpt>
      <trkpt lat="47.64591" lon="-2.72302">
        <ele>35.4</ele>
        <time>2021-08-05T10:10:18Z</time>
      </trkpt>
      <trkpt lat="47.64593" lon="-2.72304">
        <ele>35.4</ele>
        <time>2021-08-05T10:10:19Z</time>
      </trkpt>
      <trkpt lat="47.64595" lon="-2.72306">
        <ele>35.4</ele>
        <time>2021-08-05T10:10:20Z</time>
      </trkpt>
      <trkpt lat="47.64598" lon="-2.72308">
        <ele>35.4</ele>
        <time>2021-08-05T10:10:21Z</time>
      </trkpt>
      <trkpt lat="47.64601" lon="-2.72309">
        <ele>35.4</ele>
        <time>2021-08-05T10:10:22Z</time>
      </trkpt>
      <trkpt lat="47.64603" lon="-2.72309">
        <ele>35.4</ele>
        <time>2021-08-05T10:10:23Z</time>
      </trkpt>
      <trkpt lat="47.64606" lon="-2.7231">
        <ele>35.4</ele>
        <time>2021-08-05T10:10:24Z</time>
      </trkpt>
      <trkpt lat="47.64609" lon="-2.72311">
        <ele>35.6</ele>
        <time>2021-08-05T10:10:25Z</time>
      </trkpt>
      <trkpt lat="47.64615" lon="-2.72313">
        <ele>35.6</ele>
        <time>2021-08-05T10:10:27Z</time>
      </trkpt>
      <trkpt lat="47.64619" lon="-2.72313">
        <ele>35.6</ele>
        <time>2021-08-05T10:10:28Z</time>
      </trkpt>
      <trkpt lat="47.64622" lon="-2.72313">
        <ele>35.6</ele>
        <time>2021-08-05T10:10:29Z</time>
      </trkpt>
      <trkpt lat="47.64625" lon="-2.72313">
        <ele>35.6</ele>
        <time>2021-08-05T10:10:30Z</time>
      </trkpt>
      <trkpt lat="47.64629" lon="-2.72312">
        <ele>35.6</ele>
        <time>2021-08-05T10:10:31Z</time>
      </trkpt>
      <trkpt lat="47.64633" lon="-2.7231">
        <ele>35.6</ele>
        <time>2021-08-05T10:10:32Z</time>
      </trkpt>
      <trkpt lat="47.64637" lon="-2.72308">
        <ele>35.6</ele>
        <time>2021-08-05T10:10:33Z</time>
      </trkpt>
      <trkpt lat="47.64641" lon="-2.72307">
        <ele>35.6</ele>
        <time>2021-08-05T10:10:34Z</time>
      </trkpt>
      <trkpt lat="47.64645" lon="-2.72307">
        <ele>35.6</ele>
        <time>2021-08-05T10:10:35Z</time>
      </trkpt>
      <trkpt lat="47.64649" lon="-2.72308">
        <ele>35.6</ele>
        <time>2021-08-05T10:10:36Z</time>
      </trkpt>
      <trkpt lat="47.64657" lon="-2.7231">
        <ele>35.6</ele>
        <time>2021-08-05T10:10:38Z</time>
      </trkpt>
      <trkpt lat="47.64661" lon="-2.72311">
        <ele>35.6</ele>
        <time>2021-08-05T10:10:39Z</time>
      </trkpt>
      <trkpt lat="47.64665" lon="-2.72312">
        <ele>35.6</ele>
        <time>2021-08-05T10:10:40Z</time>
      </trkpt>
      <trkpt lat="47.64668" lon="-2.72313">
        <ele>35.6</ele>
        <time>2021-08-05T10:10:41Z</time>
      </trkpt>
      <trkpt lat="47.64672" lon="-2.72314">
        <ele>35.6</ele>
        <time>2021-08-05T10:10:42Z</time>
      </trkpt>
      <trkpt lat="47.64676" lon="-2.72315">
        <ele>35.6</ele>
        <time>2021-08-05T10:10:43Z</time>
      </trkpt>
      <trkpt lat="47.6468" lon="-2.72316">
        <ele>35.6</ele>
        <time>2021-08-05T10:10:44Z</time>
      </trkpt>
      <trkpt lat="47.64684" lon="-2.72316">
        <ele>35.6</ele>
        <time>2021-08-05T10:10:45Z</time>
      </trkpt>
      <trkpt lat="47.64688" lon="-2.72317">
        <ele>35.6</ele>
        <time>2021-08-05T10:10:46Z</time>
      </trkpt>
      <trkpt lat="47.64692" lon="-2.72318">
        <ele>35.6</ele>
        <time>2021-08-05T10:10:47Z</time>
      </trkpt>
      <trkpt lat="47.64696" lon="-2.72319">
        <ele>35.6</ele>
        <time>2021-08-05T10:10:48Z</time>
      </trkpt>
      <trkpt lat="47.647" lon="-2.72321">
        <ele>35.4</ele>
        <time>2021-08-05T10:10:49Z</time>
      </trkpt>
      <trkpt lat="47.64704" lon="-2.72322">
        <ele>35.4</ele>
        <time>2021-08-05T10:10:50Z</time>
      </trkpt>
      <trkpt lat="47.64708" lon="-2.72324">
        <ele>35.4</ele>
        <time>2021-08-05T10:10:51Z</time>
      </trkpt>
      <trkpt lat="47.64713" lon="-2.72325">
        <ele>35.4</ele>
        <time>2021-08-05T10:10:52Z</time>
      </trkpt>
      <trkpt lat="47.64717" lon="-2.72326">
        <ele>35.2</ele>
        <time>2021-08-05T10:10:53Z</time>
      </trkpt>
      <trkpt lat="47.64721" lon="-2.72327">
        <ele>35.2</ele>
        <time>2021-08-05T10:10:54Z</time>
      </trkpt>
      <trkpt lat="47.64724" lon="-2.72329">
        <ele>35</ele>
        <time>2021-08-05T10:10:55Z</time>
      </trkpt>
      <trkpt lat="47.64728" lon="-2.7233">
        <ele>35</ele>
        <time>2021-08-05T10:10:56Z</time>
      </trkpt>
      <trkpt lat="47.64732" lon="-2.72332">
        <ele>35</ele>
        <time>2021-08-05T10:10:57Z</time>
      </trkpt>
      <trkpt lat="47.64735" lon="-2.72332">
        <ele>35</ele>
        <time>2021-08-05T10:10:58Z</time>
      </trkpt>
      <trkpt lat="47.64743" lon="-2.72334">
        <ele>34.8</ele>
        <time>2021-08-05T10:11:00Z</time>
      </trkpt>
      <trkpt lat="47.64746" lon="-2.72335">
        <ele>34.8</ele>
        <time>2021-08-05T10:11:01Z</time>
      </trkpt>
      <trkpt lat="47.6475" lon="-2.72335">
        <ele>34.8</ele>
        <time>2021-08-05T10:11:02Z</time>
      </trkpt>
      <trkpt lat="47.64754" lon="-2.72336">
        <ele>34.8</ele>
        <time>2021-08-05T10:11:03Z</time>
      </trkpt>
      <trkpt lat="47.64758" lon="-2.72337">
        <ele>34.8</ele>
        <time>2021-08-05T10:11:04Z</time>
      </trkpt>
      <trkpt lat="47.64762" lon="-2.72338">
        <ele>34.8</ele>
        <time>2021-08-05T10:11:05Z</time>
      </trkpt>
      <trkpt lat="47.64765" lon="-2.72339">
        <ele>34.8</ele>
        <time>2021-08-05T10:11:06Z</time>
      </trkpt>
      <trkpt lat="47.64769" lon="-2.7234">
        <ele>34.6</ele>
        <time>2021-08-05T10:11:07Z</time>
      </trkpt>
      <trkpt lat="47.64773" lon="-2.72341">
        <ele>34.6</ele>
        <time>2021-08-05T10:11:08Z</time>
      </trkpt>
      <trkpt lat="47.64777" lon="-2.72341">
        <ele>34.6</ele>
        <time>2021-08-05T10:11:09Z</time>
      </trkpt>
      <trkpt lat="47.64786" lon="-2.72343">
        <ele>34.6</ele>
        <time>2021-08-05T10:11:11Z</time>
      </trkpt>
      <trkpt lat="47.6479" lon="-2.72344">
        <ele>34.6</ele>
        <time>2021-08-05T10:11:12Z</time>
      </trkpt>
      <trkpt lat="47.64794" lon="-2.72345">
        <ele>34.6</ele>
        <time>2021-08-05T10:11:13Z</time>
      </trkpt>
      <trkpt lat="47.64798" lon="-2.72346">
        <ele>34.4</ele>
        <time>2021-08-05T10:11:14Z</time>
      </trkpt>
      <trkpt lat="47.64803" lon="-2.72346">
        <ele>34.4</ele>
        <time>2021-08-05T10:11:15Z</time>
      </trkpt>
      <trkpt lat="47.64807" lon="-2.72347">
        <ele>34.4</ele>
        <time>2021-08-05T10:11:16Z</time>
      </trkpt>
      <trkpt lat="47.64812" lon="-2.72348">
        <ele>34.4</ele>
        <time>2021-08-05T10:11:17Z</time>
      </trkpt>
      <trkpt lat="47.64816" lon="-2.72348">
        <ele>34.4</ele>
        <time>2021-08-05T10:11:18Z</time>
      </trkpt>
      <trkpt lat="47.64821" lon="-2.72349">
        <ele>34.4</ele>
        <time>2021-08-05T10:11:19Z</time>
      </trkpt>
      <trkpt lat="47.64825" lon="-2.72349">
        <ele>34.4</ele>
        <time>2021-08-05T10:11:20Z</time>
      </trkpt>
      <trkpt lat="47.64832" lon="-2.72349">
        <ele>34.4</ele>
        <time>2021-08-05T10:11:22Z</time>
      </trkpt>
      <trkpt lat="47.64836" lon="-2.72349">
        <ele>34.4</ele>
        <time>2021-08-05T10:11:23Z</time>
      </trkpt>
      <trkpt lat="47.64839" lon="-2.72349">
        <ele>34.4</ele>
        <time>2021-08-05T10:11:24Z</time>
      </trkpt>
      <trkpt lat="47.64843" lon="-2.72349">
        <ele>34.4</ele>
        <time>2021-08-05T10:11:25Z</time>
      </trkpt>
      <trkpt lat="47.64847" lon="-2.7235">
        <ele>34.4</ele>
        <time>2021-08-05T10:11:26Z</time>
      </trkpt>
      <trkpt lat="47.6485" lon="-2.7235">
        <ele>34.4</ele>
        <time>2021-08-05T10:11:27Z</time>
      </trkpt>
      <trkpt lat="47.64854" lon="-2.7235">
        <ele>34.4</ele>
        <time>2021-08-05T10:11:28Z</time>
      </trkpt>
      <trkpt lat="47.64858" lon="-2.7235">
        <ele>34.4</ele>
        <time>2021-08-05T10:11:29Z</time>
      </trkpt>
      <trkpt lat="47.64863" lon="-2.7235">
        <ele>34.4</ele>
        <time>2021-08-05T10:11:30Z</time>
      </trkpt>
      <trkpt lat="47.64867" lon="-2.7235">
        <ele>34.4</ele>
        <time>2021-08-05T10:11:31Z</time>
      </trkpt>
      <trkpt lat="47.64875" lon="-2.7235">
        <ele>34.4</ele>
        <time>2021-08-05T10:11:33Z</time>
      </trkpt>
      <trkpt lat="47.64878" lon="-2.7235">
        <ele>34.4</ele>
        <time>2021-08-05T10:11:34Z</time>
      </trkpt>
      <trkpt lat="47.64882" lon="-2.72351">
        <ele>34.4</ele>
        <time>2021-08-05T10:11:35Z</time>
      </trkpt>
      <trkpt lat="47.64886" lon="-2.72351">
        <ele>34.4</ele>
        <time>2021-08-05T10:11:36Z</time>
      </trkpt>
      <trkpt lat="47.64889" lon="-2.72351">
        <ele>34.6</ele>
        <time>2021-08-05T10:11:37Z</time>
      </trkpt>
      <trkpt lat="47.64893" lon="-2.72351">
        <ele>34.6</ele>
        <time>2021-08-05T10:11:38Z</time>
      </trkpt>
      <trkpt lat="47.64897" lon="-2.72351">
        <ele>34.6</ele>
        <time>2021-08-05T10:11:39Z</time>
      </trkpt>
      <trkpt lat="47.64901" lon="-2.72352">
        <ele>34.8</ele>
        <time>2021-08-05T10:11:40Z</time>
      </trkpt>
      <trkpt lat="47.64904" lon="-2.72353">
        <ele>34.8</ele>
        <time>2021-08-05T10:11:41Z</time>
      </trkpt>
      <trkpt lat="47.64908" lon="-2.72354">
        <ele>34.8</ele>
        <time>2021-08-05T10:11:42Z</time>
      </trkpt>
      <trkpt lat="47.64912" lon="-2.72355">
        <ele>34.8</ele>
        <time>2021-08-05T10:11:43Z</time>
      </trkpt>
      <trkpt lat="47.64916" lon="-2.72355">
        <ele>34.8</ele>
        <time>2021-08-05T10:11:44Z</time>
      </trkpt>
      <trkpt lat="47.6492" lon="-2.72355">
        <ele>34.8</ele>
        <time>2021-08-05T10:11:45Z</time>
      </trkpt>
      <trkpt lat="47.64924" lon="-2.72354">
        <ele>34.8</ele>
        <time>2021-08-05T10:11:46Z</time>
      </trkpt>
      <trkpt lat="47.64929" lon="-2.72353">
        <ele>34.8</ele>
        <time>2021-08-05T10:11:47Z</time>
      </trkpt>
      <trkpt lat="47.64933" lon="-2.72352">
        <ele>34.8</ele>
        <time>2021-08-05T10:11:48Z</time>
      </trkpt>
      <trkpt lat="47.64938" lon="-2.72351">
        <ele>35</ele>
        <time>2021-08-05T10:11:49Z</time>
      </trkpt>
      <trkpt lat="47.64944" lon="-2.7235">
        <ele>35</ele>
        <time>2021-08-05T10:11:50Z</time>
      </trkpt>
      <trkpt lat="47.64949" lon="-2.7235">
        <ele>35</ele>
        <time>2021-08-05T10:11:51Z</time>
      </trkpt>
      <trkpt lat="47.64955" lon="-2.7235">
        <ele>35</ele>
        <time>2021-08-05T10:11:52Z</time>
      </trkpt>
      <trkpt lat="47.6496" lon="-2.72349">
        <ele>35</ele>
        <time>2021-08-05T10:11:53Z</time>
      </trkpt>
      <trkpt lat="47.64965" lon="-2.72348">
        <ele>35</ele>
        <time>2021-08-05T10:11:54Z</time>
      </trkpt>
      <trkpt lat="47.6497" lon="-2.72348">
        <ele>35</ele>
        <time>2021-08-05T10:11:55Z</time>
      </trkpt>
      <trkpt lat="47.64975" lon="-2.72347">
        <ele>35</ele>
        <time>2021-08-05T10:11:56Z</time>
      </trkpt>
      <trkpt lat="47.64979" lon="-2.72347">
        <ele>35</ele>
        <time>2021-08-05T10:11:57Z</time>
      </trkpt>
      <trkpt lat="47.64983" lon="-2.72346">
        <ele>35</ele>
        <time>2021-08-05T10:11:58Z</time>
      </trkpt>
      <trkpt lat="47.64986" lon="-2.72344">
        <ele>35</ele>
        <time>2021-08-05T10:11:59Z</time>
      </trkpt>
      <trkpt lat="47.64989" lon="-2.72343">
        <ele>35</ele>
        <time>2021-08-05T10:12:00Z</time>
      </trkpt>
      <trkpt lat="47.64992" lon="-2.72341">
        <ele>35</ele>
        <time>2021-08-05T10:12:01Z</time>
      </trkpt>
      <trkpt lat="47.64995" lon="-2.72339">
        <ele>35</ele>
        <time>2021-08-05T10:12:02Z</time>
      </trkpt>
      <trkpt lat="47.64998" lon="-2.72337">
        <ele>34.8</ele>
        <time>2021-08-05T10:12:03Z</time>
      </trkpt>
      <trkpt lat="47.65" lon="-2.72335">
        <ele>34.8</ele>
        <time>2021-08-05T10:12:04Z</time>
      </trkpt>
      <trkpt lat="47.65006" lon="-2.72331">
        <ele>34.8</ele>
        <time>2021-08-05T10:12:06Z</time>
      </trkpt>
      <trkpt lat="47.65008" lon="-2.72329">
        <ele>34.8</ele>
        <time>2021-08-05T10:12:07Z</time>
      </trkpt>
      <trkpt lat="47.6501" lon="-2.72327">
        <ele>34.8</ele>
        <time>2021-08-05T10:12:08Z</time>
      </trkpt>
      <trkpt lat="47.65012" lon="-2.72325">
        <ele>34.8</ele>
        <time>2021-08-05T10:12:09Z</time>
      </trkpt>
      <trkpt lat="47.65013" lon="-2.72324">
        <ele>34.8</ele>
        <time>2021-08-05T10:12:10Z</time>
      </trkpt>
      <trkpt lat="47.65014" lon="-2.72322">
        <ele>34.8</ele>
        <time>2021-08-05T10:12:11Z</time>
      </trkpt>
      <trkpt lat="47.65015" lon="-2.7232">
        <ele>34.8</ele>
        <time>2021-08-05T10:12:12Z</time>
      </trkpt>
      <trkpt lat="47.65015" lon="-2.72319">
        <ele>34.8</ele>
        <time>2021-08-05T10:12:13Z</time>
      </trkpt>
      <trkpt lat="47.65015" lon="-2.72319">
        <ele>34.8</ele>
        <time>2021-08-05T10:12:14Z</time>
      </trkpt>
      <trkpt lat="47.65015" lon="-2.72318">
        <ele>34.4</ele>
        <time>2021-08-05T10:12:20Z</time>
      </trkpt>
      <trkpt lat="47.65015" lon="-2.72316">
        <ele>34.4</ele>
        <time>2021-08-05T10:12:21Z</time>
      </trkpt>
      <trkpt lat="47.65015" lon="-2.72314">
        <ele>34.6</ele>
        <time>2021-08-05T10:12:22Z</time>
      </trkpt>
      <trkpt lat="47.65015" lon="-2.7231">
        <ele>34.6</ele>
        <time>2021-08-05T10:12:23Z</time>
      </trkpt>
      <trkpt lat="47.65014" lon="-2.72301">
        <ele>34.4</ele>
        <time>2021-08-05T10:12:25Z</time>
      </trkpt>
      <trkpt lat="47.65013" lon="-2.72297">
        <ele>34.4</ele>
        <time>2021-08-05T10:12:26Z</time>
      </trkpt>
      <trkpt lat="47.65014" lon="-2.72292">
        <ele>34.4</ele>
        <time>2021-08-05T10:12:27Z</time>
      </trkpt>
      <trkpt lat="47.65017" lon="-2.72288">
        <ele>34.2</ele>
        <time>2021-08-05T10:12:28Z</time>
      </trkpt>
      <trkpt lat="47.65019" lon="-2.72285">
        <ele>34.2</ele>
        <time>2021-08-05T10:12:29Z</time>
      </trkpt>
      <trkpt lat="47.65021" lon="-2.72281">
        <ele>34</ele>
        <time>2021-08-05T10:12:30Z</time>
      </trkpt>
      <trkpt lat="47.65022" lon="-2.72277">
        <ele>33.8</ele>
        <time>2021-08-05T10:12:31Z</time>
      </trkpt>
      <trkpt lat="47.65023" lon="-2.72271">
        <ele>33.8</ele>
        <time>2021-08-05T10:12:32Z</time>
      </trkpt>
      <trkpt lat="47.65025" lon="-2.72266">
        <ele>33.6</ele>
        <time>2021-08-05T10:12:33Z</time>
      </trkpt>
      <trkpt lat="47.65027" lon="-2.72261">
        <ele>33.6</ele>
        <time>2021-08-05T10:12:34Z</time>
      </trkpt>
      <trkpt lat="47.65029" lon="-2.72256">
        <ele>33.6</ele>
        <time>2021-08-05T10:12:35Z</time>
      </trkpt>
      <trkpt lat="47.65031" lon="-2.7225">
        <ele>33.4</ele>
        <time>2021-08-05T10:12:36Z</time>
      </trkpt>
      <trkpt lat="47.65032" lon="-2.72243">
        <ele>33.4</ele>
        <time>2021-08-05T10:12:37Z</time>
      </trkpt>
      <trkpt lat="47.65033" lon="-2.72236">
        <ele>33.4</ele>
        <time>2021-08-05T10:12:38Z</time>
      </trkpt>
      <trkpt lat="47.65032" lon="-2.7223">
        <ele>33.4</ele>
        <time>2021-08-05T10:12:39Z</time>
      </trkpt>
      <trkpt lat="47.65031" lon="-2.72223">
        <ele>33.2</ele>
        <time>2021-08-05T10:12:40Z</time>
      </trkpt>
      <trkpt lat="47.6503" lon="-2.72217">
        <ele>33</ele>
        <time>2021-08-05T10:12:41Z</time>
      </trkpt>
      <trkpt lat="47.65028" lon="-2.7221">
        <ele>33</ele>
        <time>2021-08-05T10:12:42Z</time>
      </trkpt>
      <trkpt lat="47.65028" lon="-2.72204">
        <ele>33</ele>
        <time>2021-08-05T10:12:43Z</time>
      </trkpt>
      <trkpt lat="47.65027" lon="-2.72197">
        <ele>32.8</ele>
        <time>2021-08-05T10:12:44Z</time>
      </trkpt>
      <trkpt lat="47.65026" lon="-2.72191">
        <ele>32.6</ele>
        <time>2021-08-05T10:12:45Z</time>
      </trkpt>
      <trkpt lat="47.65025" lon="-2.72185">
        <ele>32.6</ele>
        <time>2021-08-05T10:12:46Z</time>
      </trkpt>
      <trkpt lat="47.65024" lon="-2.72178">
        <ele>32.6</ele>
        <time>2021-08-05T10:12:47Z</time>
      </trkpt>
      <trkpt lat="47.65023" lon="-2.72172">
        <ele>32.6</ele>
        <time>2021-08-05T10:12:48Z</time>
      </trkpt>
      <trkpt lat="47.65022" lon="-2.72166">
        <ele>32.4</ele>
        <time>2021-08-05T10:12:49Z</time>
      </trkpt>
      <trkpt lat="47.65021" lon="-2.7216">
        <ele>32.4</ele>
        <time>2021-08-05T10:12:50Z</time>
      </trkpt>
      <trkpt lat="47.6502" lon="-2.72154">
        <ele>32.4</ele>
        <time>2021-08-05T10:12:51Z</time>
      </trkpt>
      <trkpt lat="47.65019" lon="-2.72148">
        <ele>32.4</ele>
        <time>2021-08-05T10:12:52Z</time>
      </trkpt>
      <trkpt lat="47.65019" lon="-2.72142">
        <ele>32.4</ele>
        <time>2021-08-05T10:12:53Z</time>
      </trkpt>
      <trkpt lat="47.65018" lon="-2.72136">
        <ele>32.4</ele>
        <time>2021-08-05T10:12:54Z</time>
      </trkpt>
      <trkpt lat="47.65017" lon="-2.7213">
        <ele>32.4</ele>
        <time>2021-08-05T10:12:55Z</time>
      </trkpt>
      <trkpt lat="47.65016" lon="-2.72124">
        <ele>32.4</ele>
        <time>2021-08-05T10:12:56Z</time>
      </trkpt>
      <trkpt lat="47.65016" lon="-2.72118">
        <ele>32.4</ele>
        <time>2021-08-05T10:12:57Z</time>
      </trkpt>
      <trkpt lat="47.65014" lon="-2.72105">
        <ele>32.4</ele>
        <time>2021-08-05T10:12:59Z</time>
      </trkpt>
      <trkpt lat="47.65014" lon="-2.72099">
        <ele>32.4</ele>
        <time>2021-08-05T10:13:00Z</time>
      </trkpt>
      <trkpt lat="47.65013" lon="-2.72092">
        <ele>32.4</ele>
        <time>2021-08-05T10:13:01Z</time>
      </trkpt>
      <trkpt lat="47.65012" lon="-2.72086">
        <ele>32.4</ele>
        <time>2021-08-05T10:13:02Z</time>
      </trkpt>
      <trkpt lat="47.65012" lon="-2.72079">
        <ele>32.4</ele>
        <time>2021-08-05T10:13:03Z</time>
      </trkpt>
      <trkpt lat="47.65011" lon="-2.72073">
        <ele>32.6</ele>
        <time>2021-08-05T10:13:04Z</time>
      </trkpt>
      <trkpt lat="47.6501" lon="-2.72067">
        <ele>32.6</ele>
        <time>2021-08-05T10:13:05Z</time>
      </trkpt>
      <trkpt lat="47.6501" lon="-2.7206">
        <ele>32.6</ele>
        <time>2021-08-05T10:13:06Z</time>
      </trkpt>
      <trkpt lat="47.65009" lon="-2.72054">
        <ele>32.6</ele>
        <time>2021-08-05T10:13:07Z</time>
      </trkpt>
      <trkpt lat="47.65008" lon="-2.72048">
        <ele>32.6</ele>
        <time>2021-08-05T10:13:08Z</time>
      </trkpt>
      <trkpt lat="47.65006" lon="-2.72036">
        <ele>32.8</ele>
        <time>2021-08-05T10:13:10Z</time>
      </trkpt>
      <trkpt lat="47.65005" lon="-2.72029">
        <ele>32.8</ele>
        <time>2021-08-05T10:13:11Z</time>
      </trkpt>
      <trkpt lat="47.65005" lon="-2.72023">
        <ele>32.8</ele>
        <time>2021-08-05T10:13:12Z</time>
      </trkpt>
      <trkpt lat="47.65004" lon="-2.72017">
        <ele>32.8</ele>
        <time>2021-08-05T10:13:13Z</time>
      </trkpt>
      <trkpt lat="47.65004" lon="-2.72012">
        <ele>33</ele>
        <time>2021-08-05T10:13:14Z</time>
      </trkpt>
      <trkpt lat="47.65003" lon="-2.72006">
        <ele>33</ele>
        <time>2021-08-05T10:13:15Z</time>
      </trkpt>
      <trkpt lat="47.65002" lon="-2.72">
        <ele>33</ele>
        <time>2021-08-05T10:13:16Z</time>
      </trkpt>
      <trkpt lat="47.65001" lon="-2.71995">
        <ele>33</ele>
        <time>2021-08-05T10:13:17Z</time>
      </trkpt>
      <trkpt lat="47.65001" lon="-2.71989">
        <ele>33.2</ele>
        <time>2021-08-05T10:13:18Z</time>
      </trkpt>
      <trkpt lat="47.65" lon="-2.71983">
        <ele>33.2</ele>
        <time>2021-08-05T10:13:19Z</time>
      </trkpt>
      <trkpt lat="47.64999" lon="-2.71971">
        <ele>33.2</ele>
        <time>2021-08-05T10:13:21Z</time>
      </trkpt>
      <trkpt lat="47.64998" lon="-2.71964">
        <ele>33.4</ele>
        <time>2021-08-05T10:13:22Z</time>
      </trkpt>
      <trkpt lat="47.64997" lon="-2.71958">
        <ele>33.4</ele>
        <time>2021-08-05T10:13:23Z</time>
      </trkpt>
      <trkpt lat="47.64996" lon="-2.71952">
        <ele>33.4</ele>
        <time>2021-08-05T10:13:24Z</time>
      </trkpt>
      <trkpt lat="47.64996" lon="-2.71946">
        <ele>33.4</ele>
        <time>2021-08-05T10:13:25Z</time>
      </trkpt>
      <trkpt lat="47.64995" lon="-2.7194">
        <ele>33.4</ele>
        <time>2021-08-05T10:13:26Z</time>
      </trkpt>
      <trkpt lat="47.64995" lon="-2.71934">
        <ele>33.4</ele>
        <time>2021-08-05T10:13:27Z</time>
      </trkpt>
      <trkpt lat="47.64994" lon="-2.71928">
        <ele>33.4</ele>
        <time>2021-08-05T10:13:28Z</time>
      </trkpt>
      <trkpt lat="47.64994" lon="-2.71922">
        <ele>33.4</ele>
        <time>2021-08-05T10:13:29Z</time>
      </trkpt>
      <trkpt lat="47.64993" lon="-2.71916">
        <ele>33.4</ele>
        <time>2021-08-05T10:13:30Z</time>
      </trkpt>
      <trkpt lat="47.64992" lon="-2.71911">
        <ele>33.6</ele>
        <time>2021-08-05T10:13:31Z</time>
      </trkpt>
      <trkpt lat="47.64992" lon="-2.71905">
        <ele>33.6</ele>
        <time>2021-08-05T10:13:32Z</time>
      </trkpt>
      <trkpt lat="47.64991" lon="-2.719">
        <ele>33.6</ele>
        <time>2021-08-05T10:13:33Z</time>
      </trkpt>
      <trkpt lat="47.6499" lon="-2.71894">
        <ele>33.6</ele>
        <time>2021-08-05T10:13:34Z</time>
      </trkpt>
      <trkpt lat="47.64989" lon="-2.71889">
        <ele>33.8</ele>
        <time>2021-08-05T10:13:35Z</time>
      </trkpt>
      <trkpt lat="47.64989" lon="-2.71884">
        <ele>33.8</ele>
        <time>2021-08-05T10:13:36Z</time>
      </trkpt>
      <trkpt lat="47.64989" lon="-2.71879">
        <ele>33.8</ele>
        <time>2021-08-05T10:13:37Z</time>
      </trkpt>
      <trkpt lat="47.64988" lon="-2.71873">
        <ele>33.8</ele>
        <time>2021-08-05T10:13:38Z</time>
      </trkpt>
      <trkpt lat="47.64988" lon="-2.71868">
        <ele>33.8</ele>
        <time>2021-08-05T10:13:39Z</time>
      </trkpt>
      <trkpt lat="47.64987" lon="-2.71862">
        <ele>34</ele>
        <time>2021-08-05T10:13:40Z</time>
      </trkpt>
      <trkpt lat="47.64987" lon="-2.71857">
        <ele>34.2</ele>
        <time>2021-08-05T10:13:41Z</time>
      </trkpt>
      <trkpt lat="47.64986" lon="-2.71846">
        <ele>34.2</ele>
        <time>2021-08-05T10:13:43Z</time>
      </trkpt>
      <trkpt lat="47.64985" lon="-2.7184">
        <ele>34.2</ele>
        <time>2021-08-05T10:13:44Z</time>
      </trkpt>
      <trkpt lat="47.64984" lon="-2.71835">
        <ele>34.4</ele>
        <time>2021-08-05T10:13:45Z</time>
      </trkpt>
      <trkpt lat="47.64984" lon="-2.71829">
        <ele>34.4</ele>
        <time>2021-08-05T10:13:46Z</time>
      </trkpt>
      <trkpt lat="47.64983" lon="-2.71824">
        <ele>34.4</ele>
        <time>2021-08-05T10:13:47Z</time>
      </trkpt>
      <trkpt lat="47.64982" lon="-2.71819">
        <ele>34.4</ele>
        <time>2021-08-05T10:13:48Z</time>
      </trkpt>
      <trkpt lat="47.64982" lon="-2.71813">
        <ele>34.4</ele>
        <time>2021-08-05T10:13:49Z</time>
      </trkpt>
      <trkpt lat="47.64981" lon="-2.71808">
        <ele>34.4</ele>
        <time>2021-08-05T10:13:50Z</time>
      </trkpt>
      <trkpt lat="47.6498" lon="-2.71803">
        <ele>34.4</ele>
        <time>2021-08-05T10:13:51Z</time>
      </trkpt>
      <trkpt lat="47.6498" lon="-2.71798">
        <ele>34.4</ele>
        <time>2021-08-05T10:13:52Z</time>
      </trkpt>
      <trkpt lat="47.64978" lon="-2.71789">
        <ele>34.6</ele>
        <time>2021-08-05T10:13:54Z</time>
      </trkpt>
      <trkpt lat="47.64978" lon="-2.71784">
        <ele>34.6</ele>
        <time>2021-08-05T10:13:55Z</time>
      </trkpt>
      <trkpt lat="47.64977" lon="-2.71779">
        <ele>34.6</ele>
        <time>2021-08-05T10:13:56Z</time>
      </trkpt>
      <trkpt lat="47.64976" lon="-2.71775">
        <ele>34.8</ele>
        <time>2021-08-05T10:13:57Z</time>
      </trkpt>
      <trkpt lat="47.64976" lon="-2.71771">
        <ele>34.8</ele>
        <time>2021-08-05T10:13:58Z</time>
      </trkpt>
      <trkpt lat="47.64975" lon="-2.71766">
        <ele>34.8</ele>
        <time>2021-08-05T10:13:59Z</time>
      </trkpt>
      <trkpt lat="47.64975" lon="-2.71762">
        <ele>35</ele>
        <time>2021-08-05T10:14:00Z</time>
      </trkpt>
      <trkpt lat="47.64974" lon="-2.71757">
        <ele>35</ele>
        <time>2021-08-05T10:14:01Z</time>
      </trkpt>
      <trkpt lat="47.64974" lon="-2.71753">
        <ele>35</ele>
        <time>2021-08-05T10:14:02Z</time>
      </trkpt>
      <trkpt lat="47.64973" lon="-2.71749">
        <ele>35</ele>
        <time>2021-08-05T10:14:03Z</time>
      </trkpt>
      <trkpt lat="47.64973" lon="-2.71744">
        <ele>35</ele>
        <time>2021-08-05T10:14:04Z</time>
      </trkpt>
      <trkpt lat="47.64972" lon="-2.7174">
        <ele>35</ele>
        <time>2021-08-05T10:14:05Z</time>
      </trkpt>
      <trkpt lat="47.64972" lon="-2.71735">
        <ele>35.2</ele>
        <time>2021-08-05T10:14:06Z</time>
      </trkpt>
      <trkpt lat="47.64971" lon="-2.7173">
        <ele>35.2</ele>
        <time>2021-08-05T10:14:07Z</time>
      </trkpt>
      <trkpt lat="47.6497" lon="-2.71726">
        <ele>35.2</ele>
        <time>2021-08-05T10:14:08Z</time>
      </trkpt>
      <trkpt lat="47.6497" lon="-2.71721">
        <ele>35.2</ele>
        <time>2021-08-05T10:14:09Z</time>
      </trkpt>
      <trkpt lat="47.64969" lon="-2.71716">
        <ele>35.2</ele>
        <time>2021-08-05T10:14:10Z</time>
      </trkpt>
      <trkpt lat="47.64969" lon="-2.71711">
        <ele>35.4</ele>
        <time>2021-08-05T10:14:11Z</time>
      </trkpt>
      <trkpt lat="47.64968" lon="-2.71706">
        <ele>35.4</ele>
        <time>2021-08-05T10:14:12Z</time>
      </trkpt>
      <trkpt lat="47.64968" lon="-2.71701">
        <ele>35.4</ele>
        <time>2021-08-05T10:14:13Z</time>
      </trkpt>
      <trkpt lat="47.64967" lon="-2.71696">
        <ele>35.4</ele>
        <time>2021-08-05T10:14:14Z</time>
      </trkpt>
      <trkpt lat="47.64966" lon="-2.71686">
        <ele>35.4</ele>
        <time>2021-08-05T10:14:16Z</time>
      </trkpt>
      <trkpt lat="47.64965" lon="-2.7168">
        <ele>35.4</ele>
        <time>2021-08-05T10:14:17Z</time>
      </trkpt>
      <trkpt lat="47.64964" lon="-2.71675">
        <ele>35.4</ele>
        <time>2021-08-05T10:14:18Z</time>
      </trkpt>
      <trkpt lat="47.64964" lon="-2.7167">
        <ele>35.4</ele>
        <time>2021-08-05T10:14:19Z</time>
      </trkpt>
      <trkpt lat="47.64963" lon="-2.71664">
        <ele>35.4</ele>
        <time>2021-08-05T10:14:20Z</time>
      </trkpt>
      <trkpt lat="47.64962" lon="-2.71659">
        <ele>35.6</ele>
        <time>2021-08-05T10:14:21Z</time>
      </trkpt>
      <trkpt lat="47.64962" lon="-2.71653">
        <ele>35.6</ele>
        <time>2021-08-05T10:14:22Z</time>
      </trkpt>
      <trkpt lat="47.64961" lon="-2.71648">
        <ele>35.6</ele>
        <time>2021-08-05T10:14:23Z</time>
      </trkpt>
      <trkpt lat="47.6496" lon="-2.71642">
        <ele>35.6</ele>
        <time>2021-08-05T10:14:24Z</time>
      </trkpt>
      <trkpt lat="47.6496" lon="-2.71636">
        <ele>35.6</ele>
        <time>2021-08-05T10:14:25Z</time>
      </trkpt>
      <trkpt lat="47.64958" lon="-2.71624">
        <ele>35.6</ele>
        <time>2021-08-05T10:14:27Z</time>
      </trkpt>
      <trkpt lat="47.64957" lon="-2.71617">
        <ele>35.6</ele>
        <time>2021-08-05T10:14:28Z</time>
      </trkpt>
      <trkpt lat="47.64956" lon="-2.71611">
        <ele>35.6</ele>
        <time>2021-08-05T10:14:29Z</time>
      </trkpt>
      <trkpt lat="47.64956" lon="-2.71605">
        <ele>35.6</ele>
        <time>2021-08-05T10:14:30Z</time>
      </trkpt>
      <trkpt lat="47.64955" lon="-2.71599">
        <ele>35.6</ele>
        <time>2021-08-05T10:14:31Z</time>
      </trkpt>
      <trkpt lat="47.64954" lon="-2.71593">
        <ele>35.6</ele>
        <time>2021-08-05T10:14:32Z</time>
      </trkpt>
      <trkpt lat="47.64953" lon="-2.71587">
        <ele>35.6</ele>
        <time>2021-08-05T10:14:33Z</time>
      </trkpt>
      <trkpt lat="47.64952" lon="-2.7158">
        <ele>35.6</ele>
        <time>2021-08-05T10:14:34Z</time>
      </trkpt>
      <trkpt lat="47.64951" lon="-2.71574">
        <ele>35.6</ele>
        <time>2021-08-05T10:14:35Z</time>
      </trkpt>
      <trkpt lat="47.6495" lon="-2.71567">
        <ele>35.6</ele>
        <time>2021-08-05T10:14:36Z</time>
      </trkpt>
      <trkpt lat="47.64949" lon="-2.71552">
        <ele>35.6</ele>
        <time>2021-08-05T10:14:38Z</time>
      </trkpt>
      <trkpt lat="47.64948" lon="-2.71545">
        <ele>35.6</ele>
        <time>2021-08-05T10:14:39Z</time>
      </trkpt>
      <trkpt lat="47.64947" lon="-2.71537">
        <ele>35.6</ele>
        <time>2021-08-05T10:14:40Z</time>
      </trkpt>
      <trkpt lat="47.64946" lon="-2.7153">
        <ele>35.6</ele>
        <time>2021-08-05T10:14:41Z</time>
      </trkpt>
      <trkpt lat="47.64945" lon="-2.71523">
        <ele>35.6</ele>
        <time>2021-08-05T10:14:42Z</time>
      </trkpt>
      <trkpt lat="47.64944" lon="-2.71515">
        <ele>35.6</ele>
        <time>2021-08-05T10:14:43Z</time>
      </trkpt>
      <trkpt lat="47.64943" lon="-2.71508">
        <ele>35.6</ele>
        <time>2021-08-05T10:14:44Z</time>
      </trkpt>
      <trkpt lat="47.64942" lon="-2.71501">
        <ele>35.6</ele>
        <time>2021-08-05T10:14:45Z</time>
      </trkpt>
      <trkpt lat="47.64941" lon="-2.71493">
        <ele>35.4</ele>
        <time>2021-08-05T10:14:46Z</time>
      </trkpt>
      <trkpt lat="47.64941" lon="-2.71485">
        <ele>35.4</ele>
        <time>2021-08-05T10:14:47Z</time>
      </trkpt>
      <trkpt lat="47.6494" lon="-2.71477">
        <ele>35.4</ele>
        <time>2021-08-05T10:14:48Z</time>
      </trkpt>
      <trkpt lat="47.64939" lon="-2.71469">
        <ele>35.4</ele>
        <time>2021-08-05T10:14:49Z</time>
      </trkpt>
      <trkpt lat="47.64938" lon="-2.7146">
        <ele>35.4</ele>
        <time>2021-08-05T10:14:50Z</time>
      </trkpt>
      <trkpt lat="47.64937" lon="-2.7145">
        <ele>35.2</ele>
        <time>2021-08-05T10:14:51Z</time>
      </trkpt>
      <trkpt lat="47.64936" lon="-2.71441">
        <ele>35.2</ele>
        <time>2021-08-05T10:14:52Z</time>
      </trkpt>
      <trkpt lat="47.64935" lon="-2.71431">
        <ele>35.4</ele>
        <time>2021-08-05T10:14:53Z</time>
      </trkpt>
      <trkpt lat="47.64934" lon="-2.71421">
        <ele>35.4</ele>
        <time>2021-08-05T10:14:54Z</time>
      </trkpt>
      <trkpt lat="47.64932" lon="-2.7141">
        <ele>35.4</ele>
        <time>2021-08-05T10:14:55Z</time>
      </trkpt>
      <trkpt lat="47.64931" lon="-2.714">
        <ele>35.4</ele>
        <time>2021-08-05T10:14:56Z</time>
      </trkpt>
      <trkpt lat="47.6493" lon="-2.71389">
        <ele>35.4</ele>
        <time>2021-08-05T10:14:57Z</time>
      </trkpt>
      <trkpt lat="47.64929" lon="-2.71378">
        <ele>35.4</ele>
        <time>2021-08-05T10:14:58Z</time>
      </trkpt>
      <trkpt lat="47.64928" lon="-2.71357">
        <ele>35.4</ele>
        <time>2021-08-05T10:15:00Z</time>
      </trkpt>
      <trkpt lat="47.64927" lon="-2.71347">
        <ele>35.4</ele>
        <time>2021-08-05T10:15:01Z</time>
      </trkpt>
      <trkpt lat="47.64926" lon="-2.71336">
        <ele>35.4</ele>
        <time>2021-08-05T10:15:02Z</time>
      </trkpt>
      <trkpt lat="47.64926" lon="-2.71326">
        <ele>35.4</ele>
        <time>2021-08-05T10:15:03Z</time>
      </trkpt>
      <trkpt lat="47.64925" lon="-2.71316">
        <ele>35.4</ele>
        <time>2021-08-05T10:15:04Z</time>
      </trkpt>
      <trkpt lat="47.64925" lon="-2.71307">
        <ele>35.4</ele>
        <time>2021-08-05T10:15:05Z</time>
      </trkpt>
      <trkpt lat="47.64925" lon="-2.71297">
        <ele>35.4</ele>
        <time>2021-08-05T10:15:06Z</time>
      </trkpt>
      <trkpt lat="47.64924" lon="-2.71288">
        <ele>35.4</ele>
        <time>2021-08-05T10:15:07Z</time>
      </trkpt>
      <trkpt lat="47.64924" lon="-2.71279">
        <ele>35.4</ele>
        <time>2021-08-05T10:15:08Z</time>
      </trkpt>
      <trkpt lat="47.64924" lon="-2.71271">
        <ele>35.2</ele>
        <time>2021-08-05T10:15:09Z</time>
      </trkpt>
      <trkpt lat="47.64924" lon="-2.7126">
        <ele>35.2</ele>
        <time>2021-08-05T10:15:11Z</time>
      </trkpt>
      <trkpt lat="47.64924" lon="-2.71255">
        <ele>35.2</ele>
        <time>2021-08-05T10:15:12Z</time>
      </trkpt>
      <trkpt lat="47.64924" lon="-2.71251">
        <ele>35</ele>
        <time>2021-08-05T10:15:13Z</time>
      </trkpt>
      <trkpt lat="47.64924" lon="-2.71248">
        <ele>35</ele>
        <time>2021-08-05T10:15:14Z</time>
      </trkpt>
      <trkpt lat="47.64923" lon="-2.71245">
        <ele>35</ele>
        <time>2021-08-05T10:15:15Z</time>
      </trkpt>
      <trkpt lat="47.64922" lon="-2.71243">
        <ele>35</ele>
        <time>2021-08-05T10:15:16Z</time>
      </trkpt>
      <trkpt lat="47.64922" lon="-2.71242">
        <ele>34.8</ele>
        <time>2021-08-05T10:15:17Z</time>
      </trkpt>
      <trkpt lat="47.64922" lon="-2.71242">
        <ele>34.8</ele>
        <time>2021-08-05T10:15:18Z</time>
      </trkpt>
      <trkpt lat="47.64923" lon="-2.71238">
        <ele>34.6</ele>
        <time>2021-08-05T10:15:31Z</time>
      </trkpt>
      <trkpt lat="47.64923" lon="-2.71236">
        <ele>34.6</ele>
        <time>2021-08-05T10:15:32Z</time>
      </trkpt>
      <trkpt lat="47.64924" lon="-2.71234">
        <ele>34.6</ele>
        <time>2021-08-05T10:15:33Z</time>
      </trkpt>
      <trkpt lat="47.64924" lon="-2.71225">
        <ele>34.4</ele>
        <time>2021-08-05T10:15:35Z</time>
      </trkpt>
      <trkpt lat="47.64924" lon="-2.7122">
        <ele>34.4</ele>
        <time>2021-08-05T10:15:36Z</time>
      </trkpt>
      <trkpt lat="47.64924" lon="-2.71214">
        <ele>34.2</ele>
        <time>2021-08-05T10:15:37Z</time>
      </trkpt>
      <trkpt lat="47.64924" lon="-2.71207">
        <ele>34.2</ele>
        <time>2021-08-05T10:15:38Z</time>
      </trkpt>
      <trkpt lat="47.64924" lon="-2.712">
        <ele>34.2</ele>
        <time>2021-08-05T10:15:39Z</time>
      </trkpt>
      <trkpt lat="47.64923" lon="-2.71193">
        <ele>34.2</ele>
        <time>2021-08-05T10:15:40Z</time>
      </trkpt>
      <trkpt lat="47.64923" lon="-2.71185">
        <ele>34</ele>
        <time>2021-08-05T10:15:41Z</time>
      </trkpt>
      <trkpt lat="47.64922" lon="-2.71177">
        <ele>33.8</ele>
        <time>2021-08-05T10:15:42Z</time>
      </trkpt>
      <trkpt lat="47.64922" lon="-2.71169">
        <ele>33.6</ele>
        <time>2021-08-05T10:15:43Z</time>
      </trkpt>
      <trkpt lat="47.64922" lon="-2.71161">
        <ele>33.6</ele>
        <time>2021-08-05T10:15:44Z</time>
      </trkpt>
      <trkpt lat="47.64921" lon="-2.71152">
        <ele>33.4</ele>
        <time>2021-08-05T10:15:45Z</time>
      </trkpt>
      <trkpt lat="47.64921" lon="-2.71144">
        <ele>33.2</ele>
        <time>2021-08-05T10:15:46Z</time>
      </trkpt>
      <trkpt lat="47.64919" lon="-2.71127">
        <ele>33</ele>
        <time>2021-08-05T10:15:48Z</time>
      </trkpt>
      <trkpt lat="47.64919" lon="-2.71119">
        <ele>33</ele>
        <time>2021-08-05T10:15:49Z</time>
      </trkpt>
      <trkpt lat="47.64918" lon="-2.71112">
        <ele>33</ele>
        <time>2021-08-05T10:15:50Z</time>
      </trkpt>
      <trkpt lat="47.64917" lon="-2.71104">
        <ele>32.8</ele>
        <time>2021-08-05T10:15:51Z</time>
      </trkpt>
      <trkpt lat="47.64916" lon="-2.71097">
        <ele>32.8</ele>
        <time>2021-08-05T10:15:52Z</time>
      </trkpt>
      <trkpt lat="47.64916" lon="-2.71089">
        <ele>32.6</ele>
        <time>2021-08-05T10:15:53Z</time>
      </trkpt>
      <trkpt lat="47.64915" lon="-2.71082">
        <ele>32.6</ele>
        <time>2021-08-05T10:15:54Z</time>
      </trkpt>
      <trkpt lat="47.64914" lon="-2.71075">
        <ele>32.6</ele>
        <time>2021-08-05T10:15:55Z</time>
      </trkpt>
      <trkpt lat="47.64913" lon="-2.71068">
        <ele>32.6</ele>
        <time>2021-08-05T10:15:56Z</time>
      </trkpt>
      <trkpt lat="47.64912" lon="-2.7106">
        <ele>32.6</ele>
        <time>2021-08-05T10:15:57Z</time>
      </trkpt>
      <trkpt lat="47.6491" lon="-2.71054">
        <ele>32.6</ele>
        <time>2021-08-05T10:15:58Z</time>
      </trkpt>
      <trkpt lat="47.64909" lon="-2.71047">
        <ele>32.6</ele>
        <time>2021-08-05T10:15:59Z</time>
      </trkpt>
      <trkpt lat="47.64908" lon="-2.7104">
        <ele>32.6</ele>
        <time>2021-08-05T10:16:00Z</time>
      </trkpt>
      <trkpt lat="47.64907" lon="-2.71034">
        <ele>32.6</ele>
        <time>2021-08-05T10:16:01Z</time>
      </trkpt>
      <trkpt lat="47.64906" lon="-2.7103">
        <ele>32.6</ele>
        <time>2021-08-05T10:16:02Z</time>
      </trkpt>
      <trkpt lat="47.64905" lon="-2.71026">
        <ele>32.6</ele>
        <time>2021-08-05T10:16:03Z</time>
      </trkpt>
      <trkpt lat="47.64904" lon="-2.71024">
        <ele>32.6</ele>
        <time>2021-08-05T10:16:04Z</time>
      </trkpt>
      <trkpt lat="47.64903" lon="-2.71023">
        <ele>32.6</ele>
        <time>2021-08-05T10:16:05Z</time>
      </trkpt>
      <trkpt lat="47.64901" lon="-2.71023">
        <ele>32.6</ele>
        <time>2021-08-05T10:16:06Z</time>
      </trkpt>
      <trkpt lat="47.64899" lon="-2.71024">
        <ele>32.6</ele>
        <time>2021-08-05T10:16:07Z</time>
      </trkpt>
      <trkpt lat="47.64897" lon="-2.71026">
        <ele>32.6</ele>
        <time>2021-08-05T10:16:08Z</time>
      </trkpt>
      <trkpt lat="47.64894" lon="-2.71028">
        <ele>32.6</ele>
        <time>2021-08-05T10:16:10Z</time>
      </trkpt>
      <trkpt lat="47.64893" lon="-2.71029">
        <ele>32.6</ele>
        <time>2021-08-05T10:16:11Z</time>
      </trkpt>
      <trkpt lat="47.64891" lon="-2.7103">
        <ele>32.8</ele>
        <time>2021-08-05T10:16:12Z</time>
      </trkpt>
      <trkpt lat="47.6489" lon="-2.71031">
        <ele>32.8</ele>
        <time>2021-08-05T10:16:13Z</time>
      </trkpt>
      <trkpt lat="47.64889" lon="-2.71033">
        <ele>32.8</ele>
        <time>2021-08-05T10:16:14Z</time>
      </trkpt>
      <trkpt lat="47.64887" lon="-2.71034">
        <ele>32.8</ele>
        <time>2021-08-05T10:16:15Z</time>
      </trkpt>
      <trkpt lat="47.64885" lon="-2.71036">
        <ele>32.8</ele>
        <time>2021-08-05T10:16:16Z</time>
      </trkpt>
      <trkpt lat="47.64882" lon="-2.71037">
        <ele>33</ele>
        <time>2021-08-05T10:16:17Z</time>
      </trkpt>
      <trkpt lat="47.6488" lon="-2.71038">
        <ele>33</ele>
        <time>2021-08-05T10:16:18Z</time>
      </trkpt>
      <trkpt lat="47.64877" lon="-2.7104">
        <ele>33</ele>
        <time>2021-08-05T10:16:19Z</time>
      </trkpt>
      <trkpt lat="47.64873" lon="-2.71042">
        <ele>33</ele>
        <time>2021-08-05T10:16:21Z</time>
      </trkpt>
      <trkpt lat="47.64871" lon="-2.71044">
        <ele>33.2</ele>
        <time>2021-08-05T10:16:22Z</time>
      </trkpt>
      <trkpt lat="47.64869" lon="-2.71045">
        <ele>33.2</ele>
        <time>2021-08-05T10:16:23Z</time>
      </trkpt>
      <trkpt lat="47.64867" lon="-2.71046">
        <ele>33.2</ele>
        <time>2021-08-05T10:16:24Z</time>
      </trkpt>
      <trkpt lat="47.64865" lon="-2.71047">
        <ele>33.2</ele>
        <time>2021-08-05T10:16:25Z</time>
      </trkpt>
      <trkpt lat="47.64863" lon="-2.71048">
        <ele>33.2</ele>
        <time>2021-08-05T10:16:26Z</time>
      </trkpt>
      <trkpt lat="47.64861" lon="-2.71049">
        <ele>33.2</ele>
        <time>2021-08-05T10:16:27Z</time>
      </trkpt>
      <trkpt lat="47.64859" lon="-2.7105">
        <ele>33.4</ele>
        <time>2021-08-05T10:16:28Z</time>
      </trkpt>
      <trkpt lat="47.64857" lon="-2.71051">
        <ele>33.4</ele>
        <time>2021-08-05T10:16:29Z</time>
      </trkpt>
      <trkpt lat="47.64855" lon="-2.71052">
        <ele>33.4</ele>
        <time>2021-08-05T10:16:30Z</time>
      </trkpt>
      <trkpt lat="47.6485" lon="-2.71056">
        <ele>33.6</ele>
        <time>2021-08-05T10:16:32Z</time>
      </trkpt>
      <trkpt lat="47.64847" lon="-2.71058">
        <ele>33.8</ele>
        <time>2021-08-05T10:16:33Z</time>
      </trkpt>
      <trkpt lat="47.64845" lon="-2.71059">
        <ele>33.8</ele>
        <time>2021-08-05T10:16:34Z</time>
      </trkpt>
      <trkpt lat="47.64842" lon="-2.71061">
        <ele>34</ele>
        <time>2021-08-05T10:16:35Z</time>
      </trkpt>
      <trkpt lat="47.64838" lon="-2.71063">
        <ele>34</ele>
        <time>2021-08-05T10:16:36Z</time>
      </trkpt>
      <trkpt lat="47.64835" lon="-2.71064">
        <ele>34.2</ele>
        <time>2021-08-05T10:16:37Z</time>
      </trkpt>
      <trkpt lat="47.64832" lon="-2.71066">
        <ele>34.4</ele>
        <time>2021-08-05T10:16:38Z</time>
      </trkpt>
      <trkpt lat="47.64829" lon="-2.71067">
        <ele>34.6</ele>
        <time>2021-08-05T10:16:39Z</time>
      </trkpt>
      <trkpt lat="47.64826" lon="-2.71068">
        <ele>34.6</ele>
        <time>2021-08-05T10:16:40Z</time>
      </trkpt>
      <trkpt lat="47.64824" lon="-2.71069">
        <ele>34.8</ele>
        <time>2021-08-05T10:16:41Z</time>
      </trkpt>
      <trkpt lat="47.64819" lon="-2.71071">
        <ele>34.8</ele>
        <time>2021-08-05T10:16:43Z</time>
      </trkpt>
      <trkpt lat="47.64815" lon="-2.71072">
        <ele>34.8</ele>
        <time>2021-08-05T10:16:44Z</time>
      </trkpt>
      <trkpt lat="47.64812" lon="-2.71072">
        <ele>34.8</ele>
        <time>2021-08-05T10:16:45Z</time>
      </trkpt>
      <trkpt lat="47.64808" lon="-2.71073">
        <ele>35.2</ele>
        <time>2021-08-05T10:16:46Z</time>
      </trkpt>
      <trkpt lat="47.64804" lon="-2.71073">
        <ele>35.2</ele>
        <time>2021-08-05T10:16:47Z</time>
      </trkpt>
      <trkpt lat="47.648" lon="-2.71073">
        <ele>35.2</ele>
        <time>2021-08-05T10:16:48Z</time>
      </trkpt>
      <trkpt lat="47.64797" lon="-2.71073">
        <ele>35.4</ele>
        <time>2021-08-05T10:16:49Z</time>
      </trkpt>
      <trkpt lat="47.64793" lon="-2.71073">
        <ele>35.4</ele>
        <time>2021-08-05T10:16:50Z</time>
      </trkpt>
      <trkpt lat="47.6479" lon="-2.71072">
        <ele>35.4</ele>
        <time>2021-08-05T10:16:51Z</time>
      </trkpt>
      <trkpt lat="47.64787" lon="-2.71072">
        <ele>35.6</ele>
        <time>2021-08-05T10:16:52Z</time>
      </trkpt>
      <trkpt lat="47.64781" lon="-2.71072">
        <ele>35.8</ele>
        <time>2021-08-05T10:16:54Z</time>
      </trkpt>
      <trkpt lat="47.64778" lon="-2.71072">
        <ele>36</ele>
        <time>2021-08-05T10:16:55Z</time>
      </trkpt>
      <trkpt lat="47.64775" lon="-2.71072">
        <ele>36</ele>
        <time>2021-08-05T10:16:56Z</time>
      </trkpt>
      <trkpt lat="47.64772" lon="-2.71072">
        <ele>36.2</ele>
        <time>2021-08-05T10:16:57Z</time>
      </trkpt>
      <trkpt lat="47.64769" lon="-2.71071">
        <ele>36.4</ele>
        <time>2021-08-05T10:16:58Z</time>
      </trkpt>
      <trkpt lat="47.64765" lon="-2.7107">
        <ele>36.4</ele>
        <time>2021-08-05T10:16:59Z</time>
      </trkpt>
      <trkpt lat="47.64761" lon="-2.71069">
        <ele>36.4</ele>
        <time>2021-08-05T10:17:00Z</time>
      </trkpt>
      <trkpt lat="47.64757" lon="-2.71068">
        <ele>36.6</ele>
        <time>2021-08-05T10:17:01Z</time>
      </trkpt>
      <trkpt lat="47.64753" lon="-2.71066">
        <ele>36.6</ele>
        <time>2021-08-05T10:17:02Z</time>
      </trkpt>
      <trkpt lat="47.64748" lon="-2.71064">
        <ele>36.6</ele>
        <time>2021-08-05T10:17:03Z</time>
      </trkpt>
      <trkpt lat="47.64744" lon="-2.71063">
        <ele>36.6</ele>
        <time>2021-08-05T10:17:04Z</time>
      </trkpt>
      <trkpt lat="47.6474" lon="-2.71061">
        <ele>36.8</ele>
        <time>2021-08-05T10:17:05Z</time>
      </trkpt>
      <trkpt lat="47.64737" lon="-2.71059">
        <ele>36.8</ele>
        <time>2021-08-05T10:17:06Z</time>
      </trkpt>
      <trkpt lat="47.64732" lon="-2.71057">
        <ele>37</ele>
        <time>2021-08-05T10:17:07Z</time>
      </trkpt>
      <trkpt lat="47.64728" lon="-2.71055">
        <ele>37.2</ele>
        <time>2021-08-05T10:17:08Z</time>
      </trkpt>
      <trkpt lat="47.64724" lon="-2.71052">
        <ele>37.2</ele>
        <time>2021-08-05T10:17:09Z</time>
      </trkpt>
      <trkpt lat="47.64719" lon="-2.71049">
        <ele>37.4</ele>
        <time>2021-08-05T10:17:10Z</time>
      </trkpt>
      <trkpt lat="47.64716" lon="-2.71046">
        <ele>37.4</ele>
        <time>2021-08-05T10:17:11Z</time>
      </trkpt>
      <trkpt lat="47.64712" lon="-2.71043">
        <ele>37.4</ele>
        <time>2021-08-05T10:17:12Z</time>
      </trkpt>
      <trkpt lat="47.64708" lon="-2.71039">
        <ele>37.6</ele>
        <time>2021-08-05T10:17:13Z</time>
      </trkpt>
      <trkpt lat="47.64704" lon="-2.71035">
        <ele>37.6</ele>
        <time>2021-08-05T10:17:14Z</time>
      </trkpt>
      <trkpt lat="47.64696" lon="-2.71026">
        <ele>37.8</ele>
        <time>2021-08-05T10:17:16Z</time>
      </trkpt>
      <trkpt lat="47.64693" lon="-2.71021">
        <ele>37.8</ele>
        <time>2021-08-05T10:17:17Z</time>
      </trkpt>
      <trkpt lat="47.64689" lon="-2.71018">
        <ele>38</ele>
        <time>2021-08-05T10:17:18Z</time>
      </trkpt>
      <trkpt lat="47.64684" lon="-2.71014">
        <ele>38</ele>
        <time>2021-08-05T10:17:19Z</time>
      </trkpt>
      <trkpt lat="47.6468" lon="-2.7101">
        <ele>38</ele>
        <time>2021-08-05T10:17:20Z</time>
      </trkpt>
      <trkpt lat="47.64677" lon="-2.71006">
        <ele>38.2</ele>
        <time>2021-08-05T10:17:21Z</time>
      </trkpt>
      <trkpt lat="47.64673" lon="-2.71002">
        <ele>38.4</ele>
        <time>2021-08-05T10:17:22Z</time>
      </trkpt>
      <trkpt lat="47.64669" lon="-2.70999">
        <ele>38.4</ele>
        <time>2021-08-05T10:17:23Z</time>
      </trkpt>
      <trkpt lat="47.64665" lon="-2.70995">
        <ele>38.6</ele>
        <time>2021-08-05T10:17:24Z</time>
      </trkpt>
      <trkpt lat="47.64661" lon="-2.70992">
        <ele>38.6</ele>
        <time>2021-08-05T10:17:25Z</time>
      </trkpt>
      <trkpt lat="47.64658" lon="-2.70988">
        <ele>38.6</ele>
        <time>2021-08-05T10:17:26Z</time>
      </trkpt>
      <trkpt lat="47.64655" lon="-2.70984">
        <ele>38.6</ele>
        <time>2021-08-05T10:17:27Z</time>
      </trkpt>
      <trkpt lat="47.64651" lon="-2.7098">
        <ele>38.6</ele>
        <time>2021-08-05T10:17:28Z</time>
      </trkpt>
      <trkpt lat="47.64648" lon="-2.70976">
        <ele>38.6</ele>
        <time>2021-08-05T10:17:29Z</time>
      </trkpt>
      <trkpt lat="47.64646" lon="-2.70972">
        <ele>38.6</ele>
        <time>2021-08-05T10:17:30Z</time>
      </trkpt>
      <trkpt lat="47.64643" lon="-2.70968">
        <ele>38.6</ele>
        <time>2021-08-05T10:17:31Z</time>
      </trkpt>
      <trkpt lat="47.6464" lon="-2.70965">
        <ele>38.6</ele>
        <time>2021-08-05T10:17:32Z</time>
      </trkpt>
      <trkpt lat="47.64638" lon="-2.70961">
        <ele>38.6</ele>
        <time>2021-08-05T10:17:33Z</time>
      </trkpt>
      <trkpt lat="47.64635" lon="-2.70958">
        <ele>38.6</ele>
        <time>2021-08-05T10:17:34Z</time>
      </trkpt>
      <trkpt lat="47.64632" lon="-2.70955">
        <ele>38.6</ele>
        <time>2021-08-05T10:17:35Z</time>
      </trkpt>
      <trkpt lat="47.64629" lon="-2.70951">
        <ele>38.6</ele>
        <time>2021-08-05T10:17:36Z</time>
      </trkpt>
      <trkpt lat="47.64624" lon="-2.70944">
        <ele>38.6</ele>
        <time>2021-08-05T10:17:38Z</time>
      </trkpt>
      <trkpt lat="47.64621" lon="-2.7094">
        <ele>38.8</ele>
        <time>2021-08-05T10:17:39Z</time>
      </trkpt>
      <trkpt lat="47.64618" lon="-2.70936">
        <ele>38.8</ele>
        <time>2021-08-05T10:17:40Z</time>
      </trkpt>
      <trkpt lat="47.64616" lon="-2.70932">
        <ele>38.8</ele>
        <time>2021-08-05T10:17:41Z</time>
      </trkpt>
      <trkpt lat="47.64613" lon="-2.70929">
        <ele>38.8</ele>
        <time>2021-08-05T10:17:42Z</time>
      </trkpt>
      <trkpt lat="47.6461" lon="-2.70925">
        <ele>38.8</ele>
        <time>2021-08-05T10:17:43Z</time>
      </trkpt>
      <trkpt lat="47.64608" lon="-2.70922">
        <ele>38.8</ele>
        <time>2021-08-05T10:17:44Z</time>
      </trkpt>
      <trkpt lat="47.64605" lon="-2.70918">
        <ele>38.8</ele>
        <time>2021-08-05T10:17:45Z</time>
      </trkpt>
      <trkpt lat="47.64602" lon="-2.70915">
        <ele>38.8</ele>
        <time>2021-08-05T10:17:46Z</time>
      </trkpt>
      <trkpt lat="47.646" lon="-2.70911">
        <ele>38.8</ele>
        <time>2021-08-05T10:17:47Z</time>
      </trkpt>
      <trkpt lat="47.64595" lon="-2.70904">
        <ele>38.8</ele>
        <time>2021-08-05T10:17:49Z</time>
      </trkpt>
      <trkpt lat="47.64593" lon="-2.709">
        <ele>38.8</ele>
        <time>2021-08-05T10:17:50Z</time>
      </trkpt>
      <trkpt lat="47.6459" lon="-2.70897">
        <ele>38.8</ele>
        <time>2021-08-05T10:17:51Z</time>
      </trkpt>
      <trkpt lat="47.64587" lon="-2.70893">
        <ele>38.6</ele>
        <time>2021-08-05T10:17:52Z</time>
      </trkpt>
      <trkpt lat="47.64585" lon="-2.7089">
        <ele>38.6</ele>
        <time>2021-08-05T10:17:53Z</time>
      </trkpt>
      <trkpt lat="47.64582" lon="-2.70886">
        <ele>38.6</ele>
        <time>2021-08-05T10:17:54Z</time>
      </trkpt>
      <trkpt lat="47.6458" lon="-2.70882">
        <ele>38.6</ele>
        <time>2021-08-05T10:17:55Z</time>
      </trkpt>
      <trkpt lat="47.64577" lon="-2.70879">
        <ele>38.6</ele>
        <time>2021-08-05T10:17:56Z</time>
      </trkpt>
      <trkpt lat="47.64574" lon="-2.70875">
        <ele>38.8</ele>
        <time>2021-08-05T10:17:57Z</time>
      </trkpt>
      <trkpt lat="47.64572" lon="-2.70871">
        <ele>38.6</ele>
        <time>2021-08-05T10:17:58Z</time>
      </trkpt>
      <trkpt lat="47.64567" lon="-2.70863">
        <ele>38.6</ele>
        <time>2021-08-05T10:18:00Z</time>
      </trkpt>
      <trkpt lat="47.64564" lon="-2.70859">
        <ele>38.6</ele>
        <time>2021-08-05T10:18:01Z</time>
      </trkpt>
      <trkpt lat="47.64561" lon="-2.70855">
        <ele>38.4</ele>
        <time>2021-08-05T10:18:02Z</time>
      </trkpt>
      <trkpt lat="47.64558" lon="-2.70851">
        <ele>38.4</ele>
        <time>2021-08-05T10:18:03Z</time>
      </trkpt>
      <trkpt lat="47.64556" lon="-2.70847">
        <ele>38.4</ele>
        <time>2021-08-05T10:18:04Z</time>
      </trkpt>
      <trkpt lat="47.64553" lon="-2.70844">
        <ele>38.4</ele>
        <time>2021-08-05T10:18:05Z</time>
      </trkpt>
      <trkpt lat="47.6455" lon="-2.7084">
        <ele>38.4</ele>
        <time>2021-08-05T10:18:06Z</time>
      </trkpt>
      <trkpt lat="47.64548" lon="-2.70836">
        <ele>38.4</ele>
        <time>2021-08-05T10:18:07Z</time>
      </trkpt>
      <trkpt lat="47.64545" lon="-2.70832">
        <ele>38.4</ele>
        <time>2021-08-05T10:18:08Z</time>
      </trkpt>
      <trkpt lat="47.64542" lon="-2.70829">
        <ele>38.4</ele>
        <time>2021-08-05T10:18:09Z</time>
      </trkpt>
      <trkpt lat="47.64537" lon="-2.70821">
        <ele>38.4</ele>
        <time>2021-08-05T10:18:11Z</time>
      </trkpt>
      <trkpt lat="47.64534" lon="-2.70817">
        <ele>38.4</ele>
        <time>2021-08-05T10:18:12Z</time>
      </trkpt>
      <trkpt lat="47.64532" lon="-2.70814">
        <ele>38.4</ele>
        <time>2021-08-05T10:18:13Z</time>
      </trkpt>
      <trkpt lat="47.64529" lon="-2.7081">
        <ele>38.4</ele>
        <time>2021-08-05T10:18:14Z</time>
      </trkpt>
      <trkpt lat="47.64527" lon="-2.70807">
        <ele>38.4</ele>
        <time>2021-08-05T10:18:15Z</time>
      </trkpt>
      <trkpt lat="47.64524" lon="-2.70803">
        <ele>38.4</ele>
        <time>2021-08-05T10:18:16Z</time>
      </trkpt>
      <trkpt lat="47.64521" lon="-2.70799">
        <ele>38.6</ele>
        <time>2021-08-05T10:18:17Z</time>
      </trkpt>
      <trkpt lat="47.64519" lon="-2.70796">
        <ele>38.4</ele>
        <time>2021-08-05T10:18:18Z</time>
      </trkpt>
      <trkpt lat="47.64516" lon="-2.70792">
        <ele>38.2</ele>
        <time>2021-08-05T10:18:19Z</time>
      </trkpt>
      <trkpt lat="47.64513" lon="-2.70788">
        <ele>38.2</ele>
        <time>2021-08-05T10:18:20Z</time>
      </trkpt>
      <trkpt lat="47.64511" lon="-2.70785">
        <ele>38.2</ele>
        <time>2021-08-05T10:18:21Z</time>
      </trkpt>
      <trkpt lat="47.64508" lon="-2.70782">
        <ele>38.2</ele>
        <time>2021-08-05T10:18:22Z</time>
      </trkpt>
      <trkpt lat="47.64505" lon="-2.70779">
        <ele>38.4</ele>
        <time>2021-08-05T10:18:23Z</time>
      </trkpt>
      <trkpt lat="47.64502" lon="-2.70776">
        <ele>38.4</ele>
        <time>2021-08-05T10:18:24Z</time>
      </trkpt>
      <trkpt lat="47.645" lon="-2.70772">
        <ele>38.4</ele>
        <time>2021-08-05T10:18:25Z</time>
      </trkpt>
      <trkpt lat="47.64497" lon="-2.70768">
        <ele>38.4</ele>
        <time>2021-08-05T10:18:26Z</time>
      </trkpt>
      <trkpt lat="47.64495" lon="-2.70765">
        <ele>38.4</ele>
        <time>2021-08-05T10:18:27Z</time>
      </trkpt>
      <trkpt lat="47.64492" lon="-2.70762">
        <ele>38.4</ele>
        <time>2021-08-05T10:18:28Z</time>
      </trkpt>
      <trkpt lat="47.6449" lon="-2.70759">
        <ele>38.4</ele>
        <time>2021-08-05T10:18:29Z</time>
      </trkpt>
      <trkpt lat="47.64487" lon="-2.70756">
        <ele>38.4</ele>
        <time>2021-08-05T10:18:30Z</time>
      </trkpt>
      <trkpt lat="47.64485" lon="-2.70753">
        <ele>38.4</ele>
        <time>2021-08-05T10:18:31Z</time>
      </trkpt>
      <trkpt lat="47.6448" lon="-2.70746">
        <ele>38.4</ele>
        <time>2021-08-05T10:18:33Z</time>
      </trkpt>
      <trkpt lat="47.64477" lon="-2.70742">
        <ele>38.4</ele>
        <time>2021-08-05T10:18:34Z</time>
      </trkpt>
      <trkpt lat="47.64475" lon="-2.70739">
        <ele>38.4</ele>
        <time>2021-08-05T10:18:35Z</time>
      </trkpt>
      <trkpt lat="47.64472" lon="-2.70736">
        <ele>38.2</ele>
        <time>2021-08-05T10:18:36Z</time>
      </trkpt>
      <trkpt lat="47.64469" lon="-2.70733">
        <ele>38.2</ele>
        <time>2021-08-05T10:18:37Z</time>
      </trkpt>
      <trkpt lat="47.64467" lon="-2.7073">
        <ele>38.4</ele>
        <time>2021-08-05T10:18:38Z</time>
      </trkpt>
      <trkpt lat="47.64464" lon="-2.70727">
        <ele>38.4</ele>
        <time>2021-08-05T10:18:39Z</time>
      </trkpt>
      <trkpt lat="47.64461" lon="-2.70724">
        <ele>38.4</ele>
        <time>2021-08-05T10:18:40Z</time>
      </trkpt>
      <trkpt lat="47.64458" lon="-2.70721">
        <ele>38.4</ele>
        <time>2021-08-05T10:18:41Z</time>
      </trkpt>
      <trkpt lat="47.64455" lon="-2.70717">
        <ele>38.4</ele>
        <time>2021-08-05T10:18:42Z</time>
      </trkpt>
      <trkpt lat="47.64449" lon="-2.70709">
        <ele>38.4</ele>
        <time>2021-08-05T10:18:44Z</time>
      </trkpt>
      <trkpt lat="47.64446" lon="-2.70704">
        <ele>38.4</ele>
        <time>2021-08-05T10:18:45Z</time>
      </trkpt>
      <trkpt lat="47.64443" lon="-2.707">
        <ele>38.4</ele>
        <time>2021-08-05T10:18:46Z</time>
      </trkpt>
      <trkpt lat="47.6444" lon="-2.70695">
        <ele>38.4</ele>
        <time>2021-08-05T10:18:47Z</time>
      </trkpt>
      <trkpt lat="47.64436" lon="-2.70691">
        <ele>38.4</ele>
        <time>2021-08-05T10:18:48Z</time>
      </trkpt>
      <trkpt lat="47.64434" lon="-2.70686">
        <ele>38.4</ele>
        <time>2021-08-05T10:18:49Z</time>
      </trkpt>
      <trkpt lat="47.64431" lon="-2.70681">
        <ele>38.4</ele>
        <time>2021-08-05T10:18:50Z</time>
      </trkpt>
      <trkpt lat="47.64428" lon="-2.70677">
        <ele>38.4</ele>
        <time>2021-08-05T10:18:51Z</time>
      </trkpt>
      <trkpt lat="47.64426" lon="-2.70673">
        <ele>38.6</ele>
        <time>2021-08-05T10:18:52Z</time>
      </trkpt>
      <trkpt lat="47.64423" lon="-2.70669">
        <ele>38.6</ele>
        <time>2021-08-05T10:18:53Z</time>
      </trkpt>
      <trkpt lat="47.64421" lon="-2.70666">
        <ele>38.6</ele>
        <time>2021-08-05T10:18:54Z</time>
      </trkpt>
      <trkpt lat="47.64419" lon="-2.70662">
        <ele>38.6</ele>
        <time>2021-08-05T10:18:55Z</time>
      </trkpt>
      <trkpt lat="47.64417" lon="-2.70659">
        <ele>38.8</ele>
        <time>2021-08-05T10:18:56Z</time>
      </trkpt>
      <trkpt lat="47.64415" lon="-2.70656">
        <ele>38.8</ele>
        <time>2021-08-05T10:18:57Z</time>
      </trkpt>
      <trkpt lat="47.64412" lon="-2.70653">
        <ele>38.8</ele>
        <time>2021-08-05T10:18:58Z</time>
      </trkpt>
      <trkpt lat="47.6441" lon="-2.7065">
        <ele>38.8</ele>
        <time>2021-08-05T10:18:59Z</time>
      </trkpt>
      <trkpt lat="47.64408" lon="-2.70646">
        <ele>38.8</ele>
        <time>2021-08-05T10:19:00Z</time>
      </trkpt>
      <trkpt lat="47.64406" lon="-2.70643">
        <ele>38.8</ele>
        <time>2021-08-05T10:19:01Z</time>
      </trkpt>
      <trkpt lat="47.64403" lon="-2.70639">
        <ele>38.8</ele>
        <time>2021-08-05T10:19:02Z</time>
      </trkpt>
      <trkpt lat="47.64401" lon="-2.70635">
        <ele>38.8</ele>
        <time>2021-08-05T10:19:03Z</time>
      </trkpt>
      <trkpt lat="47.64398" lon="-2.70631">
        <ele>38.8</ele>
        <time>2021-08-05T10:19:04Z</time>
      </trkpt>
      <trkpt lat="47.64393" lon="-2.70624">
        <ele>38.8</ele>
        <time>2021-08-05T10:19:06Z</time>
      </trkpt>
      <trkpt lat="47.64391" lon="-2.7062">
        <ele>38.8</ele>
        <time>2021-08-05T10:19:07Z</time>
      </trkpt>
      <trkpt lat="47.64389" lon="-2.70617">
        <ele>38.6</ele>
        <time>2021-08-05T10:19:08Z</time>
      </trkpt>
      <trkpt lat="47.64387" lon="-2.70613">
        <ele>38.6</ele>
        <time>2021-08-05T10:19:09Z</time>
      </trkpt>
      <trkpt lat="47.64385" lon="-2.70609">
        <ele>38.6</ele>
        <time>2021-08-05T10:19:10Z</time>
      </trkpt>
      <trkpt lat="47.64383" lon="-2.70606">
        <ele>38.6</ele>
        <time>2021-08-05T10:19:11Z</time>
      </trkpt>
      <trkpt lat="47.64381" lon="-2.70602">
        <ele>38.6</ele>
        <time>2021-08-05T10:19:12Z</time>
      </trkpt>
      <trkpt lat="47.64379" lon="-2.70598">
        <ele>38.8</ele>
        <time>2021-08-05T10:19:13Z</time>
      </trkpt>
      <trkpt lat="47.64377" lon="-2.70595">
        <ele>38.8</ele>
        <time>2021-08-05T10:19:14Z</time>
      </trkpt>
      <trkpt lat="47.64375" lon="-2.70593">
        <ele>38.8</ele>
        <time>2021-08-05T10:19:15Z</time>
      </trkpt>
      <trkpt lat="47.6437" lon="-2.70587">
        <ele>38.8</ele>
        <time>2021-08-05T10:19:17Z</time>
      </trkpt>
      <trkpt lat="47.64368" lon="-2.70584">
        <ele>38.8</ele>
        <time>2021-08-05T10:19:18Z</time>
      </trkpt>
      <trkpt lat="47.64366" lon="-2.70581">
        <ele>38.8</ele>
        <time>2021-08-05T10:19:19Z</time>
      </trkpt>
      <trkpt lat="47.64364" lon="-2.70577">
        <ele>38.8</ele>
        <time>2021-08-05T10:19:20Z</time>
      </trkpt>
      <trkpt lat="47.64362" lon="-2.70573">
        <ele>38.8</ele>
        <time>2021-08-05T10:19:21Z</time>
      </trkpt>
      <trkpt lat="47.6436" lon="-2.7057">
        <ele>38.8</ele>
        <time>2021-08-05T10:19:22Z</time>
      </trkpt>
      <trkpt lat="47.64357" lon="-2.70567">
        <ele>38.8</ele>
        <time>2021-08-05T10:19:23Z</time>
      </trkpt>
      <trkpt lat="47.64354" lon="-2.70563">
        <ele>38.8</ele>
        <time>2021-08-05T10:19:24Z</time>
      </trkpt>
      <trkpt lat="47.64352" lon="-2.70562">
        <ele>38.8</ele>
        <time>2021-08-05T10:19:25Z</time>
      </trkpt>
      <trkpt lat="47.6435" lon="-2.7056">
        <ele>38.8</ele>
        <time>2021-08-05T10:19:26Z</time>
      </trkpt>
      <trkpt lat="47.64346" lon="-2.70555">
        <ele>39</ele>
        <time>2021-08-05T10:19:28Z</time>
      </trkpt>
      <trkpt lat="47.64344" lon="-2.70552">
        <ele>39</ele>
        <time>2021-08-05T10:19:29Z</time>
      </trkpt>
      <trkpt lat="47.64343" lon="-2.70549">
        <ele>39</ele>
        <time>2021-08-05T10:19:30Z</time>
      </trkpt>
      <trkpt lat="47.64341" lon="-2.70545">
        <ele>39.2</ele>
        <time>2021-08-05T10:19:31Z</time>
      </trkpt>
      <trkpt lat="47.64339" lon="-2.70542">
        <ele>39.4</ele>
        <time>2021-08-05T10:19:32Z</time>
      </trkpt>
      <trkpt lat="47.64337" lon="-2.70539">
        <ele>39.4</ele>
        <time>2021-08-05T10:19:33Z</time>
      </trkpt>
      <trkpt lat="47.64335" lon="-2.70535">
        <ele>39.4</ele>
        <time>2021-08-05T10:19:34Z</time>
      </trkpt>
      <trkpt lat="47.64333" lon="-2.70531">
        <ele>39.6</ele>
        <time>2021-08-05T10:19:35Z</time>
      </trkpt>
      <trkpt lat="47.6433" lon="-2.70528">
        <ele>39.6</ele>
        <time>2021-08-05T10:19:36Z</time>
      </trkpt>
      <trkpt lat="47.64328" lon="-2.70525">
        <ele>39.6</ele>
        <time>2021-08-05T10:19:37Z</time>
      </trkpt>
      <trkpt lat="47.64323" lon="-2.70519">
        <ele>39.8</ele>
        <time>2021-08-05T10:19:39Z</time>
      </trkpt>
      <trkpt lat="47.64321" lon="-2.70516">
        <ele>39.8</ele>
        <time>2021-08-05T10:19:40Z</time>
      </trkpt>
      <trkpt lat="47.64319" lon="-2.70512">
        <ele>39.8</ele>
        <time>2021-08-05T10:19:41Z</time>
      </trkpt>
      <trkpt lat="47.64317" lon="-2.70509">
        <ele>39.8</ele>
        <time>2021-08-05T10:19:42Z</time>
      </trkpt>
      <trkpt lat="47.64315" lon="-2.70506">
        <ele>39.8</ele>
        <time>2021-08-05T10:19:43Z</time>
      </trkpt>
      <trkpt lat="47.64312" lon="-2.70503">
        <ele>39.8</ele>
        <time>2021-08-05T10:19:44Z</time>
      </trkpt>
      <trkpt lat="47.6431" lon="-2.70498">
        <ele>39.8</ele>
        <time>2021-08-05T10:19:45Z</time>
      </trkpt>
      <trkpt lat="47.64307" lon="-2.70494">
        <ele>40</ele>
        <time>2021-08-05T10:19:46Z</time>
      </trkpt>
      <trkpt lat="47.64304" lon="-2.70489">
        <ele>40</ele>
        <time>2021-08-05T10:19:47Z</time>
      </trkpt>
      <trkpt lat="47.64302" lon="-2.70485">
        <ele>40</ele>
        <time>2021-08-05T10:19:48Z</time>
      </trkpt>
      <trkpt lat="47.64296" lon="-2.70476">
        <ele>40</ele>
        <time>2021-08-05T10:19:50Z</time>
      </trkpt>
      <trkpt lat="47.64294" lon="-2.70472">
        <ele>40</ele>
        <time>2021-08-05T10:19:51Z</time>
      </trkpt>
      <trkpt lat="47.64292" lon="-2.70468">
        <ele>40</ele>
        <time>2021-08-05T10:19:52Z</time>
      </trkpt>
      <trkpt lat="47.64289" lon="-2.70464">
        <ele>40</ele>
        <time>2021-08-05T10:19:53Z</time>
      </trkpt>
      <trkpt lat="47.64287" lon="-2.7046">
        <ele>40</ele>
        <time>2021-08-05T10:19:54Z</time>
      </trkpt>
      <trkpt lat="47.64285" lon="-2.70457">
        <ele>40</ele>
        <time>2021-08-05T10:19:55Z</time>
      </trkpt>
      <trkpt lat="47.64282" lon="-2.70453">
        <ele>40</ele>
        <time>2021-08-05T10:19:56Z</time>
      </trkpt>
      <trkpt lat="47.64279" lon="-2.7045">
        <ele>40.2</ele>
        <time>2021-08-05T10:19:57Z</time>
      </trkpt>
      <trkpt lat="47.64277" lon="-2.70446">
        <ele>40.2</ele>
        <time>2021-08-05T10:19:58Z</time>
      </trkpt>
      <trkpt lat="47.64274" lon="-2.70443">
        <ele>40</ele>
        <time>2021-08-05T10:19:59Z</time>
      </trkpt>
      <trkpt lat="47.64272" lon="-2.7044">
        <ele>40</ele>
        <time>2021-08-05T10:20:00Z</time>
      </trkpt>
      <trkpt lat="47.6427" lon="-2.70437">
        <ele>40</ele>
        <time>2021-08-05T10:20:01Z</time>
      </trkpt>
      <trkpt lat="47.64268" lon="-2.70433">
        <ele>40</ele>
        <time>2021-08-05T10:20:02Z</time>
      </trkpt>
      <trkpt lat="47.64266" lon="-2.7043">
        <ele>39.8</ele>
        <time>2021-08-05T10:20:03Z</time>
      </trkpt>
      <trkpt lat="47.64264" lon="-2.70427">
        <ele>39.6</ele>
        <time>2021-08-05T10:20:04Z</time>
      </trkpt>
      <trkpt lat="47.64262" lon="-2.70423">
        <ele>39.6</ele>
        <time>2021-08-05T10:20:05Z</time>
      </trkpt>
      <trkpt lat="47.6426" lon="-2.7042">
        <ele>39.6</ele>
        <time>2021-08-05T10:20:06Z</time>
      </trkpt>
      <trkpt lat="47.64257" lon="-2.70417">
        <ele>39.6</ele>
        <time>2021-08-05T10:20:07Z</time>
      </trkpt>
      <trkpt lat="47.64255" lon="-2.70413">
        <ele>39.6</ele>
        <time>2021-08-05T10:20:08Z</time>
      </trkpt>
      <trkpt lat="47.64253" lon="-2.7041">
        <ele>39.6</ele>
        <time>2021-08-05T10:20:09Z</time>
      </trkpt>
      <trkpt lat="47.64251" lon="-2.70406">
        <ele>39.6</ele>
        <time>2021-08-05T10:20:10Z</time>
      </trkpt>
      <trkpt lat="47.64246" lon="-2.70398">
        <ele>39.4</ele>
        <time>2021-08-05T10:20:12Z</time>
      </trkpt>
      <trkpt lat="47.64243" lon="-2.70395">
        <ele>39.4</ele>
        <time>2021-08-05T10:20:13Z</time>
      </trkpt>
      <trkpt lat="47.64241" lon="-2.70392">
        <ele>39.4</ele>
        <time>2021-08-05T10:20:14Z</time>
      </trkpt>
      <trkpt lat="47.64239" lon="-2.70389">
        <ele>39.4</ele>
        <time>2021-08-05T10:20:15Z</time>
      </trkpt>
      <trkpt lat="47.64238" lon="-2.70388">
        <ele>39.4</ele>
        <time>2021-08-05T10:20:16Z</time>
      </trkpt>
      <trkpt lat="47.64237" lon="-2.70387">
        <ele>39.4</ele>
        <time>2021-08-05T10:20:17Z</time>
      </trkpt>
      <trkpt lat="47.64236" lon="-2.70386">
        <ele>39.4</ele>
        <time>2021-08-05T10:20:18Z</time>
      </trkpt>
      <trkpt lat="47.64235" lon="-2.70385">
        <ele>39.4</ele>
        <time>2021-08-05T10:20:19Z</time>
      </trkpt>
      <trkpt lat="47.64234" lon="-2.70384">
        <ele>39.2</ele>
        <time>2021-08-05T10:20:20Z</time>
      </trkpt>
      <trkpt lat="47.64234" lon="-2.70383">
        <ele>39.2</ele>
        <time>2021-08-05T10:20:21Z</time>
      </trkpt>
      <trkpt lat="47.64234" lon="-2.70382">
        <ele>39.2</ele>
        <time>2021-08-05T10:20:32Z</time>
      </trkpt>
      <trkpt lat="47.64233" lon="-2.70381">
        <ele>39.2</ele>
        <time>2021-08-05T10:20:33Z</time>
      </trkpt>
      <trkpt lat="47.64232" lon="-2.7038">
        <ele>39</ele>
        <time>2021-08-05T10:20:34Z</time>
      </trkpt>
      <trkpt lat="47.64231" lon="-2.70378">
        <ele>38.8</ele>
        <time>2021-08-05T10:20:35Z</time>
      </trkpt>
      <trkpt lat="47.64227" lon="-2.70374">
        <ele>38.8</ele>
        <time>2021-08-05T10:20:37Z</time>
      </trkpt>
      <trkpt lat="47.64225" lon="-2.70371">
        <ele>38.8</ele>
        <time>2021-08-05T10:20:38Z</time>
      </trkpt>
      <trkpt lat="47.64223" lon="-2.70368">
        <ele>38.6</ele>
        <time>2021-08-05T10:20:39Z</time>
      </trkpt>
      <trkpt lat="47.64221" lon="-2.70364">
        <ele>38.4</ele>
        <time>2021-08-05T10:20:40Z</time>
      </trkpt>
      <trkpt lat="47.64219" lon="-2.70361">
        <ele>38.4</ele>
        <time>2021-08-05T10:20:41Z</time>
      </trkpt>
      <trkpt lat="47.64217" lon="-2.70357">
        <ele>38.2</ele>
        <time>2021-08-05T10:20:42Z</time>
      </trkpt>
      <trkpt lat="47.64214" lon="-2.70353">
        <ele>38.2</ele>
        <time>2021-08-05T10:20:43Z</time>
      </trkpt>
      <trkpt lat="47.64211" lon="-2.7035">
        <ele>38.2</ele>
        <time>2021-08-05T10:20:44Z</time>
      </trkpt>
      <trkpt lat="47.64209" lon="-2.70347">
        <ele>38</ele>
        <time>2021-08-05T10:20:45Z</time>
      </trkpt>
      <trkpt lat="47.64206" lon="-2.70344">
        <ele>38</ele>
        <time>2021-08-05T10:20:46Z</time>
      </trkpt>
      <trkpt lat="47.64204" lon="-2.70341">
        <ele>37.8</ele>
        <time>2021-08-05T10:20:47Z</time>
      </trkpt>
      <trkpt lat="47.64202" lon="-2.70337">
        <ele>37.8</ele>
        <time>2021-08-05T10:20:48Z</time>
      </trkpt>
      <trkpt lat="47.64198" lon="-2.70331">
        <ele>37.8</ele>
        <time>2021-08-05T10:20:50Z</time>
      </trkpt>
      <trkpt lat="47.64196" lon="-2.70329">
        <ele>37.6</ele>
        <time>2021-08-05T10:20:51Z</time>
      </trkpt>
      <trkpt lat="47.64194" lon="-2.70327">
        <ele>37.6</ele>
        <time>2021-08-05T10:20:52Z</time>
      </trkpt>
      <trkpt lat="47.64193" lon="-2.70325">
        <ele>37.6</ele>
        <time>2021-08-05T10:20:53Z</time>
      </trkpt>
      <trkpt lat="47.64191" lon="-2.70324">
        <ele>37.6</ele>
        <time>2021-08-05T10:20:54Z</time>
      </trkpt>
      <trkpt lat="47.6419" lon="-2.70322">
        <ele>37.6</ele>
        <time>2021-08-05T10:20:55Z</time>
      </trkpt>
      <trkpt lat="47.64188" lon="-2.70321">
        <ele>37.6</ele>
        <time>2021-08-05T10:20:56Z</time>
      </trkpt>
      <trkpt lat="47.64187" lon="-2.7032">
        <ele>37.6</ele>
        <time>2021-08-05T10:20:57Z</time>
      </trkpt>
      <trkpt lat="47.64187" lon="-2.7032">
        <ele>37.6</ele>
        <time>2021-08-05T10:20:58Z</time>
      </trkpt>
      <trkpt lat="47.64187" lon="-2.7032">
        <ele>37.6</ele>
        <time>2021-08-05T10:20:59Z</time>
      </trkpt>
      <trkpt lat="47.64187" lon="-2.7032">
        <ele>37.6</ele>
        <time>2021-08-05T10:21:00Z</time>
      </trkpt>
      <trkpt lat="47.64186" lon="-2.70317">
        <ele>37.6</ele>
        <time>2021-08-05T10:21:14Z</time>
      </trkpt>
      <trkpt lat="47.64185" lon="-2.70316">
        <ele>37.6</ele>
        <time>2021-08-05T10:21:15Z</time>
      </trkpt>
      <trkpt lat="47.64185" lon="-2.70314">
        <ele>37.6</ele>
        <time>2021-08-05T10:21:16Z</time>
      </trkpt>
      <trkpt lat="47.64182" lon="-2.7031">
        <ele>37.4</ele>
        <time>2021-08-05T10:21:18Z</time>
      </trkpt>
      <trkpt lat="47.6418" lon="-2.70307">
        <ele>37.6</ele>
        <time>2021-08-05T10:21:19Z</time>
      </trkpt>
      <trkpt lat="47.64177" lon="-2.70304">
        <ele>37.6</ele>
        <time>2021-08-05T10:21:20Z</time>
      </trkpt>
      <trkpt lat="47.64175" lon="-2.703">
        <ele>37.4</ele>
        <time>2021-08-05T10:21:21Z</time>
      </trkpt>
      <trkpt lat="47.64172" lon="-2.70296">
        <ele>37.4</ele>
        <time>2021-08-05T10:21:22Z</time>
      </trkpt>
      <trkpt lat="47.64169" lon="-2.70292">
        <ele>37.4</ele>
        <time>2021-08-05T10:21:23Z</time>
      </trkpt>
      <trkpt lat="47.64166" lon="-2.70287">
        <ele>37.2</ele>
        <time>2021-08-05T10:21:24Z</time>
      </trkpt>
      <trkpt lat="47.64163" lon="-2.70283">
        <ele>37.2</ele>
        <time>2021-08-05T10:21:25Z</time>
      </trkpt>
      <trkpt lat="47.64159" lon="-2.70277">
        <ele>37</ele>
        <time>2021-08-05T10:21:26Z</time>
      </trkpt>
      <trkpt lat="47.64156" lon="-2.70271">
        <ele>37</ele>
        <time>2021-08-05T10:21:27Z</time>
      </trkpt>
      <trkpt lat="47.64152" lon="-2.70265">
        <ele>37</ele>
        <time>2021-08-05T10:21:28Z</time>
      </trkpt>
      <trkpt lat="47.64148" lon="-2.7026">
        <ele>36.8</ele>
        <time>2021-08-05T10:21:29Z</time>
      </trkpt>
      <trkpt lat="47.64144" lon="-2.70254">
        <ele>36.8</ele>
        <time>2021-08-05T10:21:30Z</time>
      </trkpt>
      <trkpt lat="47.6414" lon="-2.70248">
        <ele>36.6</ele>
        <time>2021-08-05T10:21:31Z</time>
      </trkpt>
      <trkpt lat="47.64136" lon="-2.70242">
        <ele>36.6</ele>
        <time>2021-08-05T10:21:32Z</time>
      </trkpt>
      <trkpt lat="47.64132" lon="-2.70237">
        <ele>36.6</ele>
        <time>2021-08-05T10:21:33Z</time>
      </trkpt>
      <trkpt lat="47.64129" lon="-2.70232">
        <ele>36.6</ele>
        <time>2021-08-05T10:21:34Z</time>
      </trkpt>
      <trkpt lat="47.64126" lon="-2.70228">
        <ele>36.6</ele>
        <time>2021-08-05T10:21:35Z</time>
      </trkpt>
      <trkpt lat="47.64122" lon="-2.70223">
        <ele>36.6</ele>
        <time>2021-08-05T10:21:36Z</time>
      </trkpt>
      <trkpt lat="47.64119" lon="-2.70219">
        <ele>36.4</ele>
        <time>2021-08-05T10:21:37Z</time>
      </trkpt>
      <trkpt lat="47.64116" lon="-2.70213">
        <ele>36.4</ele>
        <time>2021-08-05T10:21:38Z</time>
      </trkpt>
      <trkpt lat="47.64112" lon="-2.70208">
        <ele>36.4</ele>
        <time>2021-08-05T10:21:39Z</time>
      </trkpt>
      <trkpt lat="47.64108" lon="-2.70202">
        <ele>36.4</ele>
        <time>2021-08-05T10:21:40Z</time>
      </trkpt>
      <trkpt lat="47.64104" lon="-2.70196">
        <ele>36.4</ele>
        <time>2021-08-05T10:21:41Z</time>
      </trkpt>
      <trkpt lat="47.641" lon="-2.70191">
        <ele>36.4</ele>
        <time>2021-08-05T10:21:42Z</time>
      </trkpt>
      <trkpt lat="47.64096" lon="-2.70185">
        <ele>36.4</ele>
        <time>2021-08-05T10:21:43Z</time>
      </trkpt>
      <trkpt lat="47.64092" lon="-2.70179">
        <ele>36.4</ele>
        <time>2021-08-05T10:21:44Z</time>
      </trkpt>
      <trkpt lat="47.64088" lon="-2.70173">
        <ele>36.4</ele>
        <time>2021-08-05T10:21:45Z</time>
      </trkpt>
      <trkpt lat="47.64084" lon="-2.70167">
        <ele>36.4</ele>
        <time>2021-08-05T10:21:46Z</time>
      </trkpt>
      <trkpt lat="47.64077" lon="-2.70156">
        <ele>36.6</ele>
        <time>2021-08-05T10:21:48Z</time>
      </trkpt>
      <trkpt lat="47.64073" lon="-2.7015">
        <ele>36.6</ele>
        <time>2021-08-05T10:21:49Z</time>
      </trkpt>
      <trkpt lat="47.6407" lon="-2.70144">
        <ele>36.6</ele>
        <time>2021-08-05T10:21:50Z</time>
      </trkpt>
      <trkpt lat="47.64067" lon="-2.7014">
        <ele>36.8</ele>
        <time>2021-08-05T10:21:51Z</time>
      </trkpt>
      <trkpt lat="47.64064" lon="-2.70135">
        <ele>37</ele>
        <time>2021-08-05T10:21:52Z</time>
      </trkpt>
      <trkpt lat="47.6406" lon="-2.70131">
        <ele>37</ele>
        <time>2021-08-05T10:21:53Z</time>
      </trkpt>
      <trkpt lat="47.64057" lon="-2.70126">
        <ele>37</ele>
        <time>2021-08-05T10:21:54Z</time>
      </trkpt>
      <trkpt lat="47.64053" lon="-2.70121">
        <ele>37</ele>
        <time>2021-08-05T10:21:55Z</time>
      </trkpt>
      <trkpt lat="47.6405" lon="-2.70117">
        <ele>37.2</ele>
        <time>2021-08-05T10:21:56Z</time>
      </trkpt>
      <trkpt lat="47.64046" lon="-2.70113">
        <ele>37.2</ele>
        <time>2021-08-05T10:21:57Z</time>
      </trkpt>
      <trkpt lat="47.6404" lon="-2.70104">
        <ele>37.2</ele>
        <time>2021-08-05T10:21:59Z</time>
      </trkpt>
      <trkpt lat="47.64037" lon="-2.701">
        <ele>37.2</ele>
        <time>2021-08-05T10:22:00Z</time>
      </trkpt>
      <trkpt lat="47.64034" lon="-2.70095">
        <ele>37.2</ele>
        <time>2021-08-05T10:22:01Z</time>
      </trkpt>
      <trkpt lat="47.64031" lon="-2.70091">
        <ele>37.4</ele>
        <time>2021-08-05T10:22:02Z</time>
      </trkpt>
      <trkpt lat="47.64028" lon="-2.70087">
        <ele>37.4</ele>
        <time>2021-08-05T10:22:03Z</time>
      </trkpt>
      <trkpt lat="47.64025" lon="-2.70083">
        <ele>37.6</ele>
        <time>2021-08-05T10:22:04Z</time>
      </trkpt>
      <trkpt lat="47.64022" lon="-2.70079">
        <ele>37.6</ele>
        <time>2021-08-05T10:22:05Z</time>
      </trkpt>
      <trkpt lat="47.64019" lon="-2.70075">
        <ele>37.8</ele>
        <time>2021-08-05T10:22:06Z</time>
      </trkpt>
      <trkpt lat="47.64017" lon="-2.70072">
        <ele>37.8</ele>
        <time>2021-08-05T10:22:07Z</time>
      </trkpt>
      <trkpt lat="47.64015" lon="-2.70068">
        <ele>37.8</ele>
        <time>2021-08-05T10:22:08Z</time>
      </trkpt>
      <trkpt lat="47.6401" lon="-2.70061">
        <ele>38</ele>
        <time>2021-08-05T10:22:10Z</time>
      </trkpt>
      <trkpt lat="47.64008" lon="-2.70058">
        <ele>38</ele>
        <time>2021-08-05T10:22:11Z</time>
      </trkpt>
      <trkpt lat="47.64006" lon="-2.70055">
        <ele>38</ele>
        <time>2021-08-05T10:22:12Z</time>
      </trkpt>
      <trkpt lat="47.64003" lon="-2.70052">
        <ele>38</ele>
        <time>2021-08-05T10:22:13Z</time>
      </trkpt>
      <trkpt lat="47.64002" lon="-2.70049">
        <ele>38</ele>
        <time>2021-08-05T10:22:14Z</time>
      </trkpt>
      <trkpt lat="47.64" lon="-2.70045">
        <ele>38</ele>
        <time>2021-08-05T10:22:15Z</time>
      </trkpt>
      <trkpt lat="47.63998" lon="-2.70042">
        <ele>38</ele>
        <time>2021-08-05T10:22:16Z</time>
      </trkpt>
      <trkpt lat="47.63995" lon="-2.7004">
        <ele>38.2</ele>
        <time>2021-08-05T10:22:17Z</time>
      </trkpt>
      <trkpt lat="47.63994" lon="-2.70037">
        <ele>38.2</ele>
        <time>2021-08-05T10:22:18Z</time>
      </trkpt>
      <trkpt lat="47.63992" lon="-2.70034">
        <ele>38.2</ele>
        <time>2021-08-05T10:22:19Z</time>
      </trkpt>
      <trkpt lat="47.63987" lon="-2.70028">
        <ele>38.4</ele>
        <time>2021-08-05T10:22:21Z</time>
      </trkpt>
      <trkpt lat="47.63985" lon="-2.70024">
        <ele>38.4</ele>
        <time>2021-08-05T10:22:22Z</time>
      </trkpt>
      <trkpt lat="47.63983" lon="-2.7002">
        <ele>38.6</ele>
        <time>2021-08-05T10:22:23Z</time>
      </trkpt>
      <trkpt lat="47.63981" lon="-2.70016">
        <ele>38.6</ele>
        <time>2021-08-05T10:22:24Z</time>
      </trkpt>
      <trkpt lat="47.63979" lon="-2.70012">
        <ele>38.6</ele>
        <time>2021-08-05T10:22:25Z</time>
      </trkpt>
      <trkpt lat="47.63977" lon="-2.70008">
        <ele>38.8</ele>
        <time>2021-08-05T10:22:26Z</time>
      </trkpt>
      <trkpt lat="47.63974" lon="-2.70005">
        <ele>38.8</ele>
        <time>2021-08-05T10:22:27Z</time>
      </trkpt>
      <trkpt lat="47.63972" lon="-2.70001">
        <ele>39</ele>
        <time>2021-08-05T10:22:28Z</time>
      </trkpt>
      <trkpt lat="47.63971" lon="-2.69998">
        <ele>39</ele>
        <time>2021-08-05T10:22:29Z</time>
      </trkpt>
      <trkpt lat="47.63969" lon="-2.69994">
        <ele>39</ele>
        <time>2021-08-05T10:22:30Z</time>
      </trkpt>
      <trkpt lat="47.63965" lon="-2.69987">
        <ele>39.2</ele>
        <time>2021-08-05T10:22:32Z</time>
      </trkpt>
      <trkpt lat="47.63963" lon="-2.69983">
        <ele>39.2</ele>
        <time>2021-08-05T10:22:33Z</time>
      </trkpt>
      <trkpt lat="47.63962" lon="-2.69979">
        <ele>39.2</ele>
        <time>2021-08-05T10:22:34Z</time>
      </trkpt>
      <trkpt lat="47.6396" lon="-2.69975">
        <ele>39.4</ele>
        <time>2021-08-05T10:22:35Z</time>
      </trkpt>
      <trkpt lat="47.63959" lon="-2.69972">
        <ele>39.4</ele>
        <time>2021-08-05T10:22:36Z</time>
      </trkpt>
      <trkpt lat="47.63957" lon="-2.69968">
        <ele>39.4</ele>
        <time>2021-08-05T10:22:37Z</time>
      </trkpt>
      <trkpt lat="47.63956" lon="-2.69964">
        <ele>39.6</ele>
        <time>2021-08-05T10:22:38Z</time>
      </trkpt>
      <trkpt lat="47.63955" lon="-2.69959">
        <ele>39.6</ele>
        <time>2021-08-05T10:22:39Z</time>
      </trkpt>
      <trkpt lat="47.63953" lon="-2.69955">
        <ele>39.6</ele>
        <time>2021-08-05T10:22:40Z</time>
      </trkpt>
      <trkpt lat="47.63951" lon="-2.69949">
        <ele>39.6</ele>
        <time>2021-08-05T10:22:41Z</time>
      </trkpt>
      <trkpt lat="47.63948" lon="-2.6994">
        <ele>39.8</ele>
        <time>2021-08-05T10:22:43Z</time>
      </trkpt>
      <trkpt lat="47.63947" lon="-2.69936">
        <ele>40</ele>
        <time>2021-08-05T10:22:44Z</time>
      </trkpt>
      <trkpt lat="47.63945" lon="-2.69931">
        <ele>40</ele>
        <time>2021-08-05T10:22:45Z</time>
      </trkpt>
      <trkpt lat="47.63944" lon="-2.69927">
        <ele>40.2</ele>
        <time>2021-08-05T10:22:46Z</time>
      </trkpt>
      <trkpt lat="47.63943" lon="-2.69923">
        <ele>40.2</ele>
        <time>2021-08-05T10:22:47Z</time>
      </trkpt>
      <trkpt lat="47.63941" lon="-2.69918">
        <ele>40.2</ele>
        <time>2021-08-05T10:22:48Z</time>
      </trkpt>
      <trkpt lat="47.6394" lon="-2.69914">
        <ele>40.2</ele>
        <time>2021-08-05T10:22:49Z</time>
      </trkpt>
      <trkpt lat="47.63939" lon="-2.6991">
        <ele>40.2</ele>
        <time>2021-08-05T10:22:50Z</time>
      </trkpt>
      <trkpt lat="47.63938" lon="-2.69906">
        <ele>40.2</ele>
        <time>2021-08-05T10:22:51Z</time>
      </trkpt>
      <trkpt lat="47.63937" lon="-2.69901">
        <ele>40.4</ele>
        <time>2021-08-05T10:22:52Z</time>
      </trkpt>
      <trkpt lat="47.63935" lon="-2.69892">
        <ele>40.4</ele>
        <time>2021-08-05T10:22:54Z</time>
      </trkpt>
      <trkpt lat="47.63934" lon="-2.69887">
        <ele>40.4</ele>
        <time>2021-08-05T10:22:55Z</time>
      </trkpt>
      <trkpt lat="47.63933" lon="-2.69882">
        <ele>40.4</ele>
        <time>2021-08-05T10:22:56Z</time>
      </trkpt>
      <trkpt lat="47.63933" lon="-2.69877">
        <ele>40.6</ele>
        <time>2021-08-05T10:22:57Z</time>
      </trkpt>
      <trkpt lat="47.63932" lon="-2.69871">
        <ele>40.6</ele>
        <time>2021-08-05T10:22:58Z</time>
      </trkpt>
      <trkpt lat="47.6393" lon="-2.69865">
        <ele>40.6</ele>
        <time>2021-08-05T10:22:59Z</time>
      </trkpt>
      <trkpt lat="47.63929" lon="-2.6986">
        <ele>40.8</ele>
        <time>2021-08-05T10:23:00Z</time>
      </trkpt>
      <trkpt lat="47.63927" lon="-2.69854">
        <ele>40.6</ele>
        <time>2021-08-05T10:23:01Z</time>
      </trkpt>
      <trkpt lat="47.63926" lon="-2.69847">
        <ele>40.6</ele>
        <time>2021-08-05T10:23:02Z</time>
      </trkpt>
      <trkpt lat="47.63924" lon="-2.69841">
        <ele>40.8</ele>
        <time>2021-08-05T10:23:03Z</time>
      </trkpt>
      <trkpt lat="47.63921" lon="-2.69826">
        <ele>41</ele>
        <time>2021-08-05T10:23:05Z</time>
      </trkpt>
      <trkpt lat="47.6392" lon="-2.69819">
        <ele>41</ele>
        <time>2021-08-05T10:23:06Z</time>
      </trkpt>
      <trkpt lat="47.63919" lon="-2.69812">
        <ele>41</ele>
        <time>2021-08-05T10:23:07Z</time>
      </trkpt>
      <trkpt lat="47.63919" lon="-2.69805">
        <ele>41</ele>
        <time>2021-08-05T10:23:08Z</time>
      </trkpt>
      <trkpt lat="47.63918" lon="-2.69798">
        <ele>41</ele>
        <time>2021-08-05T10:23:09Z</time>
      </trkpt>
      <trkpt lat="47.63918" lon="-2.69791">
        <ele>41</ele>
        <time>2021-08-05T10:23:10Z</time>
      </trkpt>
      <trkpt lat="47.63917" lon="-2.69784">
        <ele>41</ele>
        <time>2021-08-05T10:23:11Z</time>
      </trkpt>
      <trkpt lat="47.63917" lon="-2.69778">
        <ele>41</ele>
        <time>2021-08-05T10:23:12Z</time>
      </trkpt>
      <trkpt lat="47.63916" lon="-2.69771">
        <ele>41</ele>
        <time>2021-08-05T10:23:13Z</time>
      </trkpt>
      <trkpt lat="47.63916" lon="-2.69765">
        <ele>41</ele>
        <time>2021-08-05T10:23:14Z</time>
      </trkpt>
      <trkpt lat="47.63916" lon="-2.69752">
        <ele>41</ele>
        <time>2021-08-05T10:23:16Z</time>
      </trkpt>
      <trkpt lat="47.63916" lon="-2.69746">
        <ele>41</ele>
        <time>2021-08-05T10:23:17Z</time>
      </trkpt>
      <trkpt lat="47.63916" lon="-2.69739">
        <ele>41</ele>
        <time>2021-08-05T10:23:18Z</time>
      </trkpt>
      <trkpt lat="47.63916" lon="-2.69732">
        <ele>41</ele>
        <time>2021-08-05T10:23:19Z</time>
      </trkpt>
      <trkpt lat="47.63916" lon="-2.69725">
        <ele>41</ele>
        <time>2021-08-05T10:23:20Z</time>
      </trkpt>
      <trkpt lat="47.63916" lon="-2.69718">
        <ele>41</ele>
        <time>2021-08-05T10:23:21Z</time>
      </trkpt>
      <trkpt lat="47.63917" lon="-2.69711">
        <ele>41</ele>
        <time>2021-08-05T10:23:22Z</time>
      </trkpt>
      <trkpt lat="47.63917" lon="-2.69704">
        <ele>41</ele>
        <time>2021-08-05T10:23:23Z</time>
      </trkpt>
      <trkpt lat="47.63917" lon="-2.69697">
        <ele>41.2</ele>
        <time>2021-08-05T10:23:24Z</time>
      </trkpt>
      <trkpt lat="47.63917" lon="-2.69691">
        <ele>41.2</ele>
        <time>2021-08-05T10:23:25Z</time>
      </trkpt>
      <trkpt lat="47.63917" lon="-2.69678">
        <ele>41.2</ele>
        <time>2021-08-05T10:23:27Z</time>
      </trkpt>
      <trkpt lat="47.63917" lon="-2.69672">
        <ele>41.2</ele>
        <time>2021-08-05T10:23:28Z</time>
      </trkpt>
      <trkpt lat="47.63917" lon="-2.69666">
        <ele>41.2</ele>
        <time>2021-08-05T10:23:29Z</time>
      </trkpt>
      <trkpt lat="47.63918" lon="-2.6966">
        <ele>41.2</ele>
        <time>2021-08-05T10:23:30Z</time>
      </trkpt>
      <trkpt lat="47.63918" lon="-2.69654">
        <ele>41.2</ele>
        <time>2021-08-05T10:23:31Z</time>
      </trkpt>
      <trkpt lat="47.63919" lon="-2.69648">
        <ele>41.2</ele>
        <time>2021-08-05T10:23:32Z</time>
      </trkpt>
      <trkpt lat="47.63919" lon="-2.69641">
        <ele>41.2</ele>
        <time>2021-08-05T10:23:33Z</time>
      </trkpt>
      <trkpt lat="47.6392" lon="-2.69636">
        <ele>41.2</ele>
        <time>2021-08-05T10:23:34Z</time>
      </trkpt>
      <trkpt lat="47.63921" lon="-2.6963">
        <ele>41.4</ele>
        <time>2021-08-05T10:23:35Z</time>
      </trkpt>
      <trkpt lat="47.63922" lon="-2.69624">
        <ele>41.4</ele>
        <time>2021-08-05T10:23:36Z</time>
      </trkpt>
      <trkpt lat="47.63924" lon="-2.69612">
        <ele>41.4</ele>
        <time>2021-08-05T10:23:38Z</time>
      </trkpt>
      <trkpt lat="47.63924" lon="-2.69607">
        <ele>41.4</ele>
        <time>2021-08-05T10:23:39Z</time>
      </trkpt>
      <trkpt lat="47.63925" lon="-2.69602">
        <ele>41.4</ele>
        <time>2021-08-05T10:23:40Z</time>
      </trkpt>
      <trkpt lat="47.63925" lon="-2.69596">
        <ele>41.4</ele>
        <time>2021-08-05T10:23:41Z</time>
      </trkpt>
      <trkpt lat="47.63926" lon="-2.69591">
        <ele>41.4</ele>
        <time>2021-08-05T10:23:42Z</time>
      </trkpt>
      <trkpt lat="47.63926" lon="-2.69586">
        <ele>41.4</ele>
        <time>2021-08-05T10:23:43Z</time>
      </trkpt>
      <trkpt lat="47.63927" lon="-2.69581">
        <ele>41.4</ele>
        <time>2021-08-05T10:23:44Z</time>
      </trkpt>
      <trkpt lat="47.63927" lon="-2.69575">
        <ele>41.4</ele>
        <time>2021-08-05T10:23:45Z</time>
      </trkpt>
      <trkpt lat="47.63927" lon="-2.6957">
        <ele>41.4</ele>
        <time>2021-08-05T10:23:46Z</time>
      </trkpt>
      <trkpt lat="47.63927" lon="-2.69564">
        <ele>41.6</ele>
        <time>2021-08-05T10:23:47Z</time>
      </trkpt>
      <trkpt lat="47.63928" lon="-2.69553">
        <ele>41.8</ele>
        <time>2021-08-05T10:23:49Z</time>
      </trkpt>
      <trkpt lat="47.63928" lon="-2.69547">
        <ele>41.8</ele>
        <time>2021-08-05T10:23:50Z</time>
      </trkpt>
      <trkpt lat="47.63929" lon="-2.69542">
        <ele>41.8</ele>
        <time>2021-08-05T10:23:51Z</time>
      </trkpt>
      <trkpt lat="47.6393" lon="-2.69537">
        <ele>41.8</ele>
        <time>2021-08-05T10:23:52Z</time>
      </trkpt>
      <trkpt lat="47.6393" lon="-2.69531">
        <ele>41.8</ele>
        <time>2021-08-05T10:23:53Z</time>
      </trkpt>
      <trkpt lat="47.63931" lon="-2.69526">
        <ele>41.8</ele>
        <time>2021-08-05T10:23:54Z</time>
      </trkpt>
      <trkpt lat="47.63932" lon="-2.6952">
        <ele>41.8</ele>
        <time>2021-08-05T10:23:55Z</time>
      </trkpt>
      <trkpt lat="47.63933" lon="-2.69515">
        <ele>41.8</ele>
        <time>2021-08-05T10:23:56Z</time>
      </trkpt>
      <trkpt lat="47.63933" lon="-2.69509">
        <ele>41.8</ele>
        <time>2021-08-05T10:23:57Z</time>
      </trkpt>
      <trkpt lat="47.63934" lon="-2.69503">
        <ele>41.8</ele>
        <time>2021-08-05T10:23:58Z</time>
      </trkpt>
      <trkpt lat="47.63935" lon="-2.69497">
        <ele>41.8</ele>
        <time>2021-08-05T10:23:59Z</time>
      </trkpt>
      <trkpt lat="47.63936" lon="-2.69484">
        <ele>41.8</ele>
        <time>2021-08-05T10:24:01Z</time>
      </trkpt>
      <trkpt lat="47.63937" lon="-2.69478">
        <ele>41.8</ele>
        <time>2021-08-05T10:24:02Z</time>
      </trkpt>
      <trkpt lat="47.63937" lon="-2.69472">
        <ele>41.8</ele>
        <time>2021-08-05T10:24:03Z</time>
      </trkpt>
      <trkpt lat="47.63938" lon="-2.69465">
        <ele>41.8</ele>
        <time>2021-08-05T10:24:04Z</time>
      </trkpt>
      <trkpt lat="47.63939" lon="-2.69459">
        <ele>41.8</ele>
        <time>2021-08-05T10:24:05Z</time>
      </trkpt>
      <trkpt lat="47.63939" lon="-2.69453">
        <ele>41.8</ele>
        <time>2021-08-05T10:24:06Z</time>
      </trkpt>
      <trkpt lat="47.6394" lon="-2.69447">
        <ele>41.8</ele>
        <time>2021-08-05T10:24:07Z</time>
      </trkpt>
      <trkpt lat="47.63941" lon="-2.69442">
        <ele>41.8</ele>
        <time>2021-08-05T10:24:08Z</time>
      </trkpt>
      <trkpt lat="47.63942" lon="-2.69436">
        <ele>41.8</ele>
        <time>2021-08-05T10:24:09Z</time>
      </trkpt>
      <trkpt lat="47.63943" lon="-2.6943">
        <ele>42</ele>
        <time>2021-08-05T10:24:10Z</time>
      </trkpt>
      <trkpt lat="47.63944" lon="-2.69417">
        <ele>42</ele>
        <time>2021-08-05T10:24:12Z</time>
      </trkpt>
      <trkpt lat="47.63945" lon="-2.69411">
        <ele>42</ele>
        <time>2021-08-05T10:24:13Z</time>
      </trkpt>
      <trkpt lat="47.63946" lon="-2.69404">
        <ele>42</ele>
        <time>2021-08-05T10:24:14Z</time>
      </trkpt>
      <trkpt lat="47.63946" lon="-2.69398">
        <ele>42</ele>
        <time>2021-08-05T10:24:15Z</time>
      </trkpt>
      <trkpt lat="47.63947" lon="-2.69392">
        <ele>42</ele>
        <time>2021-08-05T10:24:16Z</time>
      </trkpt>
      <trkpt lat="47.63947" lon="-2.69385">
        <ele>42</ele>
        <time>2021-08-05T10:24:17Z</time>
      </trkpt>
      <trkpt lat="47.63948" lon="-2.69379">
        <ele>42</ele>
        <time>2021-08-05T10:24:18Z</time>
      </trkpt>
      <trkpt lat="47.63949" lon="-2.69373">
        <ele>42</ele>
        <time>2021-08-05T10:24:19Z</time>
      </trkpt>
      <trkpt lat="47.63949" lon="-2.69367">
        <ele>42</ele>
        <time>2021-08-05T10:24:20Z</time>
      </trkpt>
      <trkpt lat="47.6395" lon="-2.69361">
        <ele>42</ele>
        <time>2021-08-05T10:24:21Z</time>
      </trkpt>
      <trkpt lat="47.63951" lon="-2.69355">
        <ele>42</ele>
        <time>2021-08-05T10:24:22Z</time>
      </trkpt>
      <trkpt lat="47.63952" lon="-2.69349">
        <ele>42</ele>
        <time>2021-08-05T10:24:23Z</time>
      </trkpt>
      <trkpt lat="47.63952" lon="-2.69343">
        <ele>42</ele>
        <time>2021-08-05T10:24:24Z</time>
      </trkpt>
      <trkpt lat="47.63953" lon="-2.69337">
        <ele>42</ele>
        <time>2021-08-05T10:24:25Z</time>
      </trkpt>
      <trkpt lat="47.63953" lon="-2.69332">
        <ele>42</ele>
        <time>2021-08-05T10:24:26Z</time>
      </trkpt>
      <trkpt lat="47.63953" lon="-2.69327">
        <ele>42</ele>
        <time>2021-08-05T10:24:27Z</time>
      </trkpt>
      <trkpt lat="47.63953" lon="-2.69321">
        <ele>42</ele>
        <time>2021-08-05T10:24:28Z</time>
      </trkpt>
      <trkpt lat="47.63953" lon="-2.69316">
        <ele>42</ele>
        <time>2021-08-05T10:24:29Z</time>
      </trkpt>
      <trkpt lat="47.63953" lon="-2.69311">
        <ele>42</ele>
        <time>2021-08-05T10:24:30Z</time>
      </trkpt>
      <trkpt lat="47.63953" lon="-2.69306">
        <ele>42</ele>
        <time>2021-08-05T10:24:31Z</time>
      </trkpt>
      <trkpt lat="47.63954" lon="-2.69302">
        <ele>42</ele>
        <time>2021-08-05T10:24:32Z</time>
      </trkpt>
      <trkpt lat="47.63954" lon="-2.69298">
        <ele>42</ele>
        <time>2021-08-05T10:24:33Z</time>
      </trkpt>
      <trkpt lat="47.63953" lon="-2.69292">
        <ele>42</ele>
        <time>2021-08-05T10:24:34Z</time>
      </trkpt>
      <trkpt lat="47.63953" lon="-2.69287">
        <ele>42.2</ele>
        <time>2021-08-05T10:24:35Z</time>
      </trkpt>
      <trkpt lat="47.63952" lon="-2.69281">
        <ele>42.2</ele>
        <time>2021-08-05T10:24:36Z</time>
      </trkpt>
      <trkpt lat="47.63952" lon="-2.69274">
        <ele>42.2</ele>
        <time>2021-08-05T10:24:37Z</time>
      </trkpt>
      <trkpt lat="47.63951" lon="-2.69267">
        <ele>42.2</ele>
        <time>2021-08-05T10:24:38Z</time>
      </trkpt>
      <trkpt lat="47.63949" lon="-2.6926">
        <ele>42.2</ele>
        <time>2021-08-05T10:24:39Z</time>
      </trkpt>
      <trkpt lat="47.63948" lon="-2.69253">
        <ele>42.2</ele>
        <time>2021-08-05T10:24:40Z</time>
      </trkpt>
      <trkpt lat="47.63946" lon="-2.69247">
        <ele>42.2</ele>
        <time>2021-08-05T10:24:41Z</time>
      </trkpt>
      <trkpt lat="47.63945" lon="-2.69241">
        <ele>42.2</ele>
        <time>2021-08-05T10:24:42Z</time>
      </trkpt>
      <trkpt lat="47.63944" lon="-2.6923">
        <ele>42.2</ele>
        <time>2021-08-05T10:24:44Z</time>
      </trkpt>
      <trkpt lat="47.63943" lon="-2.69225">
        <ele>42.2</ele>
        <time>2021-08-05T10:24:45Z</time>
      </trkpt>
      <trkpt lat="47.63941" lon="-2.6922">
        <ele>42.2</ele>
        <time>2021-08-05T10:24:46Z</time>
      </trkpt>
      <trkpt lat="47.6394" lon="-2.69215">
        <ele>42.2</ele>
        <time>2021-08-05T10:24:47Z</time>
      </trkpt>
      <trkpt lat="47.63938" lon="-2.69211">
        <ele>42.2</ele>
        <time>2021-08-05T10:24:48Z</time>
      </trkpt>
      <trkpt lat="47.63937" lon="-2.69206">
        <ele>42</ele>
        <time>2021-08-05T10:24:49Z</time>
      </trkpt>
      <trkpt lat="47.63935" lon="-2.69202">
        <ele>42</ele>
        <time>2021-08-05T10:24:50Z</time>
      </trkpt>
      <trkpt lat="47.63934" lon="-2.69198">
        <ele>42</ele>
        <time>2021-08-05T10:24:51Z</time>
      </trkpt>
      <trkpt lat="47.63932" lon="-2.69193">
        <ele>42.2</ele>
        <time>2021-08-05T10:24:52Z</time>
      </trkpt>
      <trkpt lat="47.63929" lon="-2.6919">
        <ele>42.2</ele>
        <time>2021-08-05T10:24:53Z</time>
      </trkpt>
      <trkpt lat="47.63927" lon="-2.69185">
        <ele>42.2</ele>
        <time>2021-08-05T10:24:54Z</time>
      </trkpt>
      <trkpt lat="47.63926" lon="-2.69181">
        <ele>42.2</ele>
        <time>2021-08-05T10:24:55Z</time>
      </trkpt>
      <trkpt lat="47.63924" lon="-2.69177">
        <ele>42.2</ele>
        <time>2021-08-05T10:24:56Z</time>
      </trkpt>
      <trkpt lat="47.63922" lon="-2.69174">
        <ele>42.2</ele>
        <time>2021-08-05T10:24:57Z</time>
      </trkpt>
      <trkpt lat="47.63921" lon="-2.69169">
        <ele>42.2</ele>
        <time>2021-08-05T10:24:58Z</time>
      </trkpt>
      <trkpt lat="47.63919" lon="-2.69165">
        <ele>42.2</ele>
        <time>2021-08-05T10:24:59Z</time>
      </trkpt>
      <trkpt lat="47.63917" lon="-2.69161">
        <ele>42.2</ele>
        <time>2021-08-05T10:25:00Z</time>
      </trkpt>
      <trkpt lat="47.63914" lon="-2.69156">
        <ele>42.2</ele>
        <time>2021-08-05T10:25:01Z</time>
      </trkpt>
      <trkpt lat="47.63912" lon="-2.69152">
        <ele>42.2</ele>
        <time>2021-08-05T10:25:02Z</time>
      </trkpt>
      <trkpt lat="47.63909" lon="-2.69146">
        <ele>42.2</ele>
        <time>2021-08-05T10:25:03Z</time>
      </trkpt>
      <trkpt lat="47.63906" lon="-2.69142">
        <ele>42.2</ele>
        <time>2021-08-05T10:25:04Z</time>
      </trkpt>
      <trkpt lat="47.639" lon="-2.69134">
        <ele>42.2</ele>
        <time>2021-08-05T10:25:06Z</time>
      </trkpt>
      <trkpt lat="47.63896" lon="-2.6913">
        <ele>42.2</ele>
        <time>2021-08-05T10:25:07Z</time>
      </trkpt>
      <trkpt lat="47.63893" lon="-2.69126">
        <ele>42.2</ele>
        <time>2021-08-05T10:25:08Z</time>
      </trkpt>
      <trkpt lat="47.6389" lon="-2.69122">
        <ele>42.2</ele>
        <time>2021-08-05T10:25:09Z</time>
      </trkpt>
      <trkpt lat="47.63887" lon="-2.69118">
        <ele>42.4</ele>
        <time>2021-08-05T10:25:10Z</time>
      </trkpt>
      <trkpt lat="47.63884" lon="-2.69114">
        <ele>42.4</ele>
        <time>2021-08-05T10:25:11Z</time>
      </trkpt>
      <trkpt lat="47.63882" lon="-2.69111">
        <ele>42.4</ele>
        <time>2021-08-05T10:25:12Z</time>
      </trkpt>
      <trkpt lat="47.63879" lon="-2.69107">
        <ele>42.4</ele>
        <time>2021-08-05T10:25:13Z</time>
      </trkpt>
      <trkpt lat="47.63877" lon="-2.69104">
        <ele>42.4</ele>
        <time>2021-08-05T10:25:14Z</time>
      </trkpt>
      <trkpt lat="47.63874" lon="-2.691">
        <ele>42.4</ele>
        <time>2021-08-05T10:25:15Z</time>
      </trkpt>
      <trkpt lat="47.63868" lon="-2.69094">
        <ele>42.4</ele>
        <time>2021-08-05T10:25:17Z</time>
      </trkpt>
      <trkpt lat="47.63865" lon="-2.6909">
        <ele>42.4</ele>
        <time>2021-08-05T10:25:18Z</time>
      </trkpt>
      <trkpt lat="47.63863" lon="-2.69087">
        <ele>42.4</ele>
        <time>2021-08-05T10:25:19Z</time>
      </trkpt>
      <trkpt lat="47.6386" lon="-2.69084">
        <ele>42.4</ele>
        <time>2021-08-05T10:25:20Z</time>
      </trkpt>
      <trkpt lat="47.63858" lon="-2.69081">
        <ele>42.4</ele>
        <time>2021-08-05T10:25:21Z</time>
      </trkpt>
      <trkpt lat="47.63855" lon="-2.69079">
        <ele>42.4</ele>
        <time>2021-08-05T10:25:22Z</time>
      </trkpt>
      <trkpt lat="47.63853" lon="-2.69076">
        <ele>42.4</ele>
        <time>2021-08-05T10:25:23Z</time>
      </trkpt>
      <trkpt lat="47.6385" lon="-2.69074">
        <ele>42.4</ele>
        <time>2021-08-05T10:25:24Z</time>
      </trkpt>
      <trkpt lat="47.63848" lon="-2.69072">
        <ele>42.4</ele>
        <time>2021-08-05T10:25:25Z</time>
      </trkpt>
      <trkpt lat="47.63845" lon="-2.6907">
        <ele>42.4</ele>
        <time>2021-08-05T10:25:26Z</time>
      </trkpt>
      <trkpt lat="47.6384" lon="-2.69065">
        <ele>42.4</ele>
        <time>2021-08-05T10:25:28Z</time>
      </trkpt>
      <trkpt lat="47.63837" lon="-2.69063">
        <ele>42.4</ele>
        <time>2021-08-05T10:25:29Z</time>
      </trkpt>
      <trkpt lat="47.63834" lon="-2.6906">
        <ele>42.4</ele>
        <time>2021-08-05T10:25:30Z</time>
      </trkpt>
      <trkpt lat="47.63832" lon="-2.69057">
        <ele>42.4</ele>
        <time>2021-08-05T10:25:31Z</time>
      </trkpt>
      <trkpt lat="47.63829" lon="-2.69054">
        <ele>42.4</ele>
        <time>2021-08-05T10:25:32Z</time>
      </trkpt>
      <trkpt lat="47.63826" lon="-2.69051">
        <ele>42.4</ele>
        <time>2021-08-05T10:25:33Z</time>
      </trkpt>
      <trkpt lat="47.63823" lon="-2.69047">
        <ele>42.6</ele>
        <time>2021-08-05T10:25:34Z</time>
      </trkpt>
      <trkpt lat="47.63819" lon="-2.69044">
        <ele>42.6</ele>
        <time>2021-08-05T10:25:35Z</time>
      </trkpt>
      <trkpt lat="47.63816" lon="-2.6904">
        <ele>42.6</ele>
        <time>2021-08-05T10:25:36Z</time>
      </trkpt>
      <trkpt lat="47.63812" lon="-2.69037">
        <ele>42.6</ele>
        <time>2021-08-05T10:25:37Z</time>
      </trkpt>
      <trkpt lat="47.63805" lon="-2.6903">
        <ele>42.6</ele>
        <time>2021-08-05T10:25:39Z</time>
      </trkpt>
      <trkpt lat="47.63802" lon="-2.69026">
        <ele>42.6</ele>
        <time>2021-08-05T10:25:40Z</time>
      </trkpt>
      <trkpt lat="47.63799" lon="-2.69022">
        <ele>42.6</ele>
        <time>2021-08-05T10:25:41Z</time>
      </trkpt>
      <trkpt lat="47.63796" lon="-2.69019">
        <ele>42.6</ele>
        <time>2021-08-05T10:25:42Z</time>
      </trkpt>
      <trkpt lat="47.63793" lon="-2.69015">
        <ele>42.6</ele>
        <time>2021-08-05T10:25:43Z</time>
      </trkpt>
      <trkpt lat="47.6379" lon="-2.69012">
        <ele>42.6</ele>
        <time>2021-08-05T10:25:44Z</time>
      </trkpt>
      <trkpt lat="47.63787" lon="-2.69008">
        <ele>42.6</ele>
        <time>2021-08-05T10:25:45Z</time>
      </trkpt>
      <trkpt lat="47.63784" lon="-2.69005">
        <ele>42.6</ele>
        <time>2021-08-05T10:25:46Z</time>
      </trkpt>
      <trkpt lat="47.63781" lon="-2.69001">
        <ele>42.6</ele>
        <time>2021-08-05T10:25:47Z</time>
      </trkpt>
      <trkpt lat="47.63778" lon="-2.68998">
        <ele>42.6</ele>
        <time>2021-08-05T10:25:48Z</time>
      </trkpt>
      <trkpt lat="47.63773" lon="-2.6899">
        <ele>42.6</ele>
        <time>2021-08-05T10:25:50Z</time>
      </trkpt>
      <trkpt lat="47.6377" lon="-2.68986">
        <ele>42.6</ele>
        <time>2021-08-05T10:25:51Z</time>
      </trkpt>
      <trkpt lat="47.63767" lon="-2.68983">
        <ele>42.6</ele>
        <time>2021-08-05T10:25:52Z</time>
      </trkpt>
      <trkpt lat="47.63765" lon="-2.68979">
        <ele>42.6</ele>
        <time>2021-08-05T10:25:53Z</time>
      </trkpt>
      <trkpt lat="47.63762" lon="-2.68975">
        <ele>42.6</ele>
        <time>2021-08-05T10:25:54Z</time>
      </trkpt>
      <trkpt lat="47.63759" lon="-2.68971">
        <ele>42.6</ele>
        <time>2021-08-05T10:25:55Z</time>
      </trkpt>
      <trkpt lat="47.63756" lon="-2.68967">
        <ele>42.6</ele>
        <time>2021-08-05T10:25:56Z</time>
      </trkpt>
      <trkpt lat="47.63754" lon="-2.68964">
        <ele>42.6</ele>
        <time>2021-08-05T10:25:57Z</time>
      </trkpt>
      <trkpt lat="47.63751" lon="-2.6896">
        <ele>42.6</ele>
        <time>2021-08-05T10:25:58Z</time>
      </trkpt>
      <trkpt lat="47.63749" lon="-2.68956">
        <ele>42.6</ele>
        <time>2021-08-05T10:25:59Z</time>
      </trkpt>
      <trkpt lat="47.63744" lon="-2.68949">
        <ele>42.4</ele>
        <time>2021-08-05T10:26:01Z</time>
      </trkpt>
      <trkpt lat="47.63741" lon="-2.68945">
        <ele>42.4</ele>
        <time>2021-08-05T10:26:02Z</time>
      </trkpt>
      <trkpt lat="47.63739" lon="-2.68941">
        <ele>42.4</ele>
        <time>2021-08-05T10:26:03Z</time>
      </trkpt>
      <trkpt lat="47.63736" lon="-2.68936">
        <ele>42.4</ele>
        <time>2021-08-05T10:26:04Z</time>
      </trkpt>
      <trkpt lat="47.63733" lon="-2.68932">
        <ele>42.4</ele>
        <time>2021-08-05T10:26:05Z</time>
      </trkpt>
      <trkpt lat="47.6373" lon="-2.68927">
        <ele>42.4</ele>
        <time>2021-08-05T10:26:06Z</time>
      </trkpt>
      <trkpt lat="47.63727" lon="-2.68923">
        <ele>42.4</ele>
        <time>2021-08-05T10:26:07Z</time>
      </trkpt>
      <trkpt lat="47.63725" lon="-2.68919">
        <ele>42.4</ele>
        <time>2021-08-05T10:26:08Z</time>
      </trkpt>
      <trkpt lat="47.63722" lon="-2.68915">
        <ele>42.4</ele>
        <time>2021-08-05T10:26:09Z</time>
      </trkpt>
      <trkpt lat="47.6372" lon="-2.68911">
        <ele>42.4</ele>
        <time>2021-08-05T10:26:10Z</time>
      </trkpt>
      <trkpt lat="47.63715" lon="-2.68903">
        <ele>42.4</ele>
        <time>2021-08-05T10:26:12Z</time>
      </trkpt>
      <trkpt lat="47.63712" lon="-2.689">
        <ele>42.4</ele>
        <time>2021-08-05T10:26:13Z</time>
      </trkpt>
      <trkpt lat="47.6371" lon="-2.68896">
        <ele>42.4</ele>
        <time>2021-08-05T10:26:14Z</time>
      </trkpt>
      <trkpt lat="47.63708" lon="-2.68892">
        <ele>42.4</ele>
        <time>2021-08-05T10:26:15Z</time>
      </trkpt>
      <trkpt lat="47.63705" lon="-2.68889">
        <ele>42.4</ele>
        <time>2021-08-05T10:26:16Z</time>
      </trkpt>
      <trkpt lat="47.63703" lon="-2.68887">
        <ele>42.4</ele>
        <time>2021-08-05T10:26:17Z</time>
      </trkpt>
      <trkpt lat="47.637" lon="-2.68886">
        <ele>42.2</ele>
        <time>2021-08-05T10:26:18Z</time>
      </trkpt>
      <trkpt lat="47.63698" lon="-2.68885">
        <ele>42.2</ele>
        <time>2021-08-05T10:26:19Z</time>
      </trkpt>
      <trkpt lat="47.63696" lon="-2.68882">
        <ele>42.2</ele>
        <time>2021-08-05T10:26:20Z</time>
      </trkpt>
      <trkpt lat="47.63694" lon="-2.68878">
        <ele>42.2</ele>
        <time>2021-08-05T10:26:21Z</time>
      </trkpt>
      <trkpt lat="47.6369" lon="-2.68871">
        <ele>42.2</ele>
        <time>2021-08-05T10:26:23Z</time>
      </trkpt>
      <trkpt lat="47.63689" lon="-2.68867">
        <ele>42.2</ele>
        <time>2021-08-05T10:26:24Z</time>
      </trkpt>
      <trkpt lat="47.63687" lon="-2.68863">
        <ele>42.2</ele>
        <time>2021-08-05T10:26:25Z</time>
      </trkpt>
      <trkpt lat="47.63685" lon="-2.68859">
        <ele>42.2</ele>
        <time>2021-08-05T10:26:26Z</time>
      </trkpt>
      <trkpt lat="47.63683" lon="-2.68856">
        <ele>42.2</ele>
        <time>2021-08-05T10:26:27Z</time>
      </trkpt>
      <trkpt lat="47.63681" lon="-2.68852">
        <ele>42.2</ele>
        <time>2021-08-05T10:26:28Z</time>
      </trkpt>
      <trkpt lat="47.63679" lon="-2.68849">
        <ele>42.2</ele>
        <time>2021-08-05T10:26:29Z</time>
      </trkpt>
      <trkpt lat="47.63677" lon="-2.68846">
        <ele>42.2</ele>
        <time>2021-08-05T10:26:30Z</time>
      </trkpt>
      <trkpt lat="47.63675" lon="-2.68842">
        <ele>42</ele>
        <time>2021-08-05T10:26:31Z</time>
      </trkpt>
      <trkpt lat="47.63674" lon="-2.68839">
        <ele>42</ele>
        <time>2021-08-05T10:26:32Z</time>
      </trkpt>
      <trkpt lat="47.6367" lon="-2.68832">
        <ele>42</ele>
        <time>2021-08-05T10:26:34Z</time>
      </trkpt>
      <trkpt lat="47.63668" lon="-2.68828">
        <ele>42</ele>
        <time>2021-08-05T10:26:35Z</time>
      </trkpt>
      <trkpt lat="47.63667" lon="-2.68824">
        <ele>42</ele>
        <time>2021-08-05T10:26:36Z</time>
      </trkpt>
      <trkpt lat="47.63665" lon="-2.68821">
        <ele>41.8</ele>
        <time>2021-08-05T10:26:37Z</time>
      </trkpt>
      <trkpt lat="47.63663" lon="-2.68817">
        <ele>41.8</ele>
        <time>2021-08-05T10:26:38Z</time>
      </trkpt>
      <trkpt lat="47.63662" lon="-2.68814">
        <ele>41.8</ele>
        <time>2021-08-05T10:26:39Z</time>
      </trkpt>
      <trkpt lat="47.6366" lon="-2.6881">
        <ele>41.8</ele>
        <time>2021-08-05T10:26:40Z</time>
      </trkpt>
      <trkpt lat="47.63658" lon="-2.68806">
        <ele>41.8</ele>
        <time>2021-08-05T10:26:41Z</time>
      </trkpt>
      <trkpt lat="47.63656" lon="-2.68803">
        <ele>41.6</ele>
        <time>2021-08-05T10:26:42Z</time>
      </trkpt>
      <trkpt lat="47.63655" lon="-2.68799">
        <ele>41.6</ele>
        <time>2021-08-05T10:26:43Z</time>
      </trkpt>
      <trkpt lat="47.63651" lon="-2.68793">
        <ele>41.6</ele>
        <time>2021-08-05T10:26:45Z</time>
      </trkpt>
      <trkpt lat="47.6365" lon="-2.68789">
        <ele>41.6</ele>
        <time>2021-08-05T10:26:46Z</time>
      </trkpt>
      <trkpt lat="47.63648" lon="-2.68786">
        <ele>41.6</ele>
        <time>2021-08-05T10:26:47Z</time>
      </trkpt>
      <trkpt lat="47.63646" lon="-2.68783">
        <ele>41.6</ele>
        <time>2021-08-05T10:26:48Z</time>
      </trkpt>
      <trkpt lat="47.63644" lon="-2.68779">
        <ele>41.6</ele>
        <time>2021-08-05T10:26:49Z</time>
      </trkpt>
      <trkpt lat="47.63642" lon="-2.68776">
        <ele>41.6</ele>
        <time>2021-08-05T10:26:50Z</time>
      </trkpt>
      <trkpt lat="47.63641" lon="-2.68773">
        <ele>41.6</ele>
        <time>2021-08-05T10:26:51Z</time>
      </trkpt>
      <trkpt lat="47.63639" lon="-2.6877">
        <ele>41.6</ele>
        <time>2021-08-05T10:26:52Z</time>
      </trkpt>
      <trkpt lat="47.63638" lon="-2.68767">
        <ele>41.4</ele>
        <time>2021-08-05T10:26:53Z</time>
      </trkpt>
      <trkpt lat="47.63636" lon="-2.68763">
        <ele>41.4</ele>
        <time>2021-08-05T10:26:54Z</time>
      </trkpt>
      <trkpt lat="47.63632" lon="-2.68755">
        <ele>41.4</ele>
        <time>2021-08-05T10:26:56Z</time>
      </trkpt>
      <trkpt lat="47.6363" lon="-2.68752">
        <ele>41.4</ele>
        <time>2021-08-05T10:26:57Z</time>
      </trkpt>
      <trkpt lat="47.63628" lon="-2.68749">
        <ele>41.4</ele>
        <time>2021-08-05T10:26:58Z</time>
      </trkpt>
      <trkpt lat="47.63626" lon="-2.68746">
        <ele>41.4</ele>
        <time>2021-08-05T10:26:59Z</time>
      </trkpt>
      <trkpt lat="47.63624" lon="-2.68743">
        <ele>41.4</ele>
        <time>2021-08-05T10:27:00Z</time>
      </trkpt>
      <trkpt lat="47.63622" lon="-2.68739">
        <ele>41.4</ele>
        <time>2021-08-05T10:27:01Z</time>
      </trkpt>
      <trkpt lat="47.6362" lon="-2.68736">
        <ele>41.4</ele>
        <time>2021-08-05T10:27:02Z</time>
      </trkpt>
      <trkpt lat="47.63619" lon="-2.68732">
        <ele>41.4</ele>
        <time>2021-08-05T10:27:03Z</time>
      </trkpt>
      <trkpt lat="47.63618" lon="-2.68729">
        <ele>41.4</ele>
        <time>2021-08-05T10:27:04Z</time>
      </trkpt>
      <trkpt lat="47.63617" lon="-2.68725">
        <ele>41.4</ele>
        <time>2021-08-05T10:27:05Z</time>
      </trkpt>
      <trkpt lat="47.63615" lon="-2.68716">
        <ele>41.4</ele>
        <time>2021-08-05T10:27:07Z</time>
      </trkpt>
      <trkpt lat="47.63614" lon="-2.68711">
        <ele>41.4</ele>
        <time>2021-08-05T10:27:08Z</time>
      </trkpt>
      <trkpt lat="47.63612" lon="-2.68707">
        <ele>41.4</ele>
        <time>2021-08-05T10:27:09Z</time>
      </trkpt>
      <trkpt lat="47.6361" lon="-2.68701">
        <ele>41.4</ele>
        <time>2021-08-05T10:27:10Z</time>
      </trkpt>
      <trkpt lat="47.63608" lon="-2.68696">
        <ele>41.4</ele>
        <time>2021-08-05T10:27:11Z</time>
      </trkpt>
      <trkpt lat="47.63606" lon="-2.68691">
        <ele>41.4</ele>
        <time>2021-08-05T10:27:12Z</time>
      </trkpt>
      <trkpt lat="47.63604" lon="-2.68685">
        <ele>41.4</ele>
        <time>2021-08-05T10:27:13Z</time>
      </trkpt>
      <trkpt lat="47.63602" lon="-2.68679">
        <ele>41.4</ele>
        <time>2021-08-05T10:27:14Z</time>
      </trkpt>
      <trkpt lat="47.636" lon="-2.68673">
        <ele>41.4</ele>
        <time>2021-08-05T10:27:15Z</time>
      </trkpt>
      <trkpt lat="47.63598" lon="-2.68667">
        <ele>41.4</ele>
        <time>2021-08-05T10:27:16Z</time>
      </trkpt>
      <trkpt lat="47.63595" lon="-2.68655">
        <ele>41.4</ele>
        <time>2021-08-05T10:27:18Z</time>
      </trkpt>
      <trkpt lat="47.63593" lon="-2.68649">
        <ele>41.4</ele>
        <time>2021-08-05T10:27:19Z</time>
      </trkpt>
      <trkpt lat="47.63591" lon="-2.68644">
        <ele>41.4</ele>
        <time>2021-08-05T10:27:20Z</time>
      </trkpt>
      <trkpt lat="47.63589" lon="-2.68638">
        <ele>41.2</ele>
        <time>2021-08-05T10:27:21Z</time>
      </trkpt>
      <trkpt lat="47.63588" lon="-2.68633">
        <ele>41.4</ele>
        <time>2021-08-05T10:27:22Z</time>
      </trkpt>
      <trkpt lat="47.63586" lon="-2.68627">
        <ele>41.4</ele>
        <time>2021-08-05T10:27:23Z</time>
      </trkpt>
      <trkpt lat="47.63585" lon="-2.68622">
        <ele>41.4</ele>
        <time>2021-08-05T10:27:24Z</time>
      </trkpt>
      <trkpt lat="47.63584" lon="-2.68617">
        <ele>41.4</ele>
        <time>2021-08-05T10:27:25Z</time>
      </trkpt>
      <trkpt lat="47.63582" lon="-2.68611">
        <ele>41.4</ele>
        <time>2021-08-05T10:27:26Z</time>
      </trkpt>
      <trkpt lat="47.63581" lon="-2.68606">
        <ele>41.4</ele>
        <time>2021-08-05T10:27:27Z</time>
      </trkpt>
      <trkpt lat="47.63578" lon="-2.68596">
        <ele>41.2</ele>
        <time>2021-08-05T10:27:29Z</time>
      </trkpt>
      <trkpt lat="47.63577" lon="-2.68591">
        <ele>41.2</ele>
        <time>2021-08-05T10:27:30Z</time>
      </trkpt>
      <trkpt lat="47.63576" lon="-2.68586">
        <ele>41.2</ele>
        <time>2021-08-05T10:27:31Z</time>
      </trkpt>
      <trkpt lat="47.63575" lon="-2.68581">
        <ele>41</ele>
        <time>2021-08-05T10:27:32Z</time>
      </trkpt>
      <trkpt lat="47.63574" lon="-2.68576">
        <ele>41</ele>
        <time>2021-08-05T10:27:33Z</time>
      </trkpt>
      <trkpt lat="47.63573" lon="-2.68571">
        <ele>40.8</ele>
        <time>2021-08-05T10:27:34Z</time>
      </trkpt>
      <trkpt lat="47.63572" lon="-2.68566">
        <ele>40.8</ele>
        <time>2021-08-05T10:27:35Z</time>
      </trkpt>
      <trkpt lat="47.63571" lon="-2.68561">
        <ele>40.8</ele>
        <time>2021-08-05T10:27:36Z</time>
      </trkpt>
      <trkpt lat="47.63569" lon="-2.68556">
        <ele>40.6</ele>
        <time>2021-08-05T10:27:37Z</time>
      </trkpt>
      <trkpt lat="47.63568" lon="-2.68551">
        <ele>40.6</ele>
        <time>2021-08-05T10:27:38Z</time>
      </trkpt>
      <trkpt lat="47.63567" lon="-2.68547">
        <ele>40.6</ele>
        <time>2021-08-05T10:27:39Z</time>
      </trkpt>
      <trkpt lat="47.63566" lon="-2.68542">
        <ele>40.6</ele>
        <time>2021-08-05T10:27:40Z</time>
      </trkpt>
      <trkpt lat="47.63565" lon="-2.68537">
        <ele>40.6</ele>
        <time>2021-08-05T10:27:41Z</time>
      </trkpt>
      <trkpt lat="47.6356" lon="-2.68518">
        <ele>40.4</ele>
        <time>2021-08-05T10:27:45Z</time>
      </trkpt>
      <trkpt lat="47.6356" lon="-2.68513">
        <ele>40.4</ele>
        <time>2021-08-05T10:27:46Z</time>
      </trkpt>
      <trkpt lat="47.63559" lon="-2.68508">
        <ele>40.4</ele>
        <time>2021-08-05T10:27:47Z</time>
      </trkpt>
      <trkpt lat="47.63558" lon="-2.68503">
        <ele>40.4</ele>
        <time>2021-08-05T10:27:48Z</time>
      </trkpt>
      <trkpt lat="47.63556" lon="-2.68493">
        <ele>40.2</ele>
        <time>2021-08-05T10:27:50Z</time>
      </trkpt>
      <trkpt lat="47.63555" lon="-2.68482">
        <ele>39.8</ele>
        <time>2021-08-05T10:27:52Z</time>
      </trkpt>
      <trkpt lat="47.63554" lon="-2.68477">
        <ele>39.8</ele>
        <time>2021-08-05T10:27:53Z</time>
      </trkpt>
      <trkpt lat="47.63553" lon="-2.68472">
        <ele>39.6</ele>
        <time>2021-08-05T10:27:54Z</time>
      </trkpt>
      <trkpt lat="47.63552" lon="-2.68466">
        <ele>39.4</ele>
        <time>2021-08-05T10:27:55Z</time>
      </trkpt>
      <trkpt lat="47.6355" lon="-2.68456">
        <ele>39</ele>
        <time>2021-08-05T10:27:57Z</time>
      </trkpt>
      <trkpt lat="47.63549" lon="-2.68451">
        <ele>38.8</ele>
        <time>2021-08-05T10:27:58Z</time>
      </trkpt>
      <trkpt lat="47.63549" lon="-2.68446">
        <ele>38.6</ele>
        <time>2021-08-05T10:27:59Z</time>
      </trkpt>
      <trkpt lat="47.63547" lon="-2.68436">
        <ele>38.2</ele>
        <time>2021-08-05T10:28:01Z</time>
      </trkpt>
      <trkpt lat="47.63546" lon="-2.68431">
        <ele>38</ele>
        <time>2021-08-05T10:28:02Z</time>
      </trkpt>
      <trkpt lat="47.63545" lon="-2.68426">
        <ele>37.8</ele>
        <time>2021-08-05T10:28:03Z</time>
      </trkpt>
      <trkpt lat="47.63545" lon="-2.68421">
        <ele>37.4</ele>
        <time>2021-08-05T10:28:04Z</time>
      </trkpt>
      <trkpt lat="47.63543" lon="-2.68411">
        <ele>37</ele>
        <time>2021-08-05T10:28:06Z</time>
      </trkpt>
      <trkpt lat="47.63542" lon="-2.68401">
        <ele>36.6</ele>
        <time>2021-08-05T10:28:08Z</time>
      </trkpt>
      <trkpt lat="47.63541" lon="-2.68391">
        <ele>36.4</ele>
        <time>2021-08-05T10:28:10Z</time>
      </trkpt>
      <trkpt lat="47.6354" lon="-2.68386">
        <ele>36</ele>
        <time>2021-08-05T10:28:11Z</time>
      </trkpt>
      <trkpt lat="47.6354" lon="-2.68377">
        <ele>35.6</ele>
        <time>2021-08-05T10:28:13Z</time>
      </trkpt>
      <trkpt lat="47.63539" lon="-2.68372">
        <ele>35.4</ele>
        <time>2021-08-05T10:28:14Z</time>
      </trkpt>
      <trkpt lat="47.63539" lon="-2.68368">
        <ele>35.2</ele>
        <time>2021-08-05T10:28:15Z</time>
      </trkpt>
      <trkpt lat="47.63538" lon="-2.68359">
        <ele>35</ele>
        <time>2021-08-05T10:28:17Z</time>
      </trkpt>
      <trkpt lat="47.63537" lon="-2.68351">
        <ele>34.6</ele>
        <time>2021-08-05T10:28:19Z</time>
      </trkpt>
      <trkpt lat="47.63537" lon="-2.68346">
        <ele>34.6</ele>
        <time>2021-08-05T10:28:20Z</time>
      </trkpt>
      <trkpt lat="47.63536" lon="-2.68343">
        <ele>34.4</ele>
        <time>2021-08-05T10:28:21Z</time>
      </trkpt>
      <trkpt lat="47.63536" lon="-2.68339">
        <ele>34.2</ele>
        <time>2021-08-05T10:28:22Z</time>
      </trkpt>
      <trkpt lat="47.63536" lon="-2.68335">
        <ele>34</ele>
        <time>2021-08-05T10:28:23Z</time>
      </trkpt>
      <trkpt lat="47.63537" lon="-2.68332">
        <ele>34</ele>
        <time>2021-08-05T10:28:24Z</time>
      </trkpt>
      <trkpt lat="47.63539" lon="-2.68326">
        <ele>33.6</ele>
        <time>2021-08-05T10:28:26Z</time>
      </trkpt>
      <trkpt lat="47.6354" lon="-2.68321">
        <ele>33.4</ele>
        <time>2021-08-05T10:28:28Z</time>
      </trkpt>
      <trkpt lat="47.6354" lon="-2.68318">
        <ele>33.2</ele>
        <time>2021-08-05T10:28:29Z</time>
      </trkpt>
      <trkpt lat="47.6354" lon="-2.68314">
        <ele>33</ele>
        <time>2021-08-05T10:28:31Z</time>
      </trkpt>
      <trkpt lat="47.63539" lon="-2.68309">
        <ele>32.6</ele>
        <time>2021-08-05T10:28:33Z</time>
      </trkpt>
      <trkpt lat="47.63538" lon="-2.68305">
        <ele>32.4</ele>
        <time>2021-08-05T10:28:35Z</time>
      </trkpt>
      <trkpt lat="47.63537" lon="-2.68301">
        <ele>32.4</ele>
        <time>2021-08-05T10:28:37Z</time>
      </trkpt>
      <trkpt lat="47.63537" lon="-2.68299">
        <ele>32.2</ele>
        <time>2021-08-05T10:28:38Z</time>
      </trkpt>
      <trkpt lat="47.63536" lon="-2.68296">
        <ele>31.8</ele>
        <time>2021-08-05T10:28:40Z</time>
      </trkpt>
      <trkpt lat="47.63536" lon="-2.68295">
        <ele>31.2</ele>
        <time>2021-08-05T10:28:42Z</time>
      </trkpt>
      <trkpt lat="47.63535" lon="-2.6829">
        <ele>22</ele>
        <time>2021-08-05T10:29:31Z</time>
      </trkpt>
      <trkpt lat="47.63535" lon="-2.68289">
        <ele>21.8</ele>
        <time>2021-08-05T10:29:33Z</time>
      </trkpt>
      <trkpt lat="47.63535" lon="-2.68289">
        <ele>21.8</ele>
        <time>2021-08-05T10:29:34Z</time>
      </trkpt>
      <trkpt lat="47.63535" lon="-2.68289">
        <ele>18.2</ele>
        <time>2021-08-05T10:30:04Z</time>
      </trkpt>
      <trkpt lat="47.63535" lon="-2.6829">
        <ele>18</ele>
        <time>2021-08-05T10:30:06Z</time>
      </trkpt>
      <trkpt lat="47.63535" lon="-2.6829">
        <ele>17.8</ele>
        <time>2021-08-05T10:30:07Z</time>
      </trkpt>
      <trkpt lat="47.63539" lon="-2.68304">
        <ele>16.6</ele>
        <time>2021-08-05T10:30:22Z</time>
      </trkpt>
      <trkpt lat="47.63539" lon="-2.68308">
        <ele>16.4</ele>
        <time>2021-08-05T10:30:23Z</time>
      </trkpt>
      <trkpt lat="47.63541" lon="-2.68312">
        <ele>16.2</ele>
        <time>2021-08-05T10:30:24Z</time>
      </trkpt>
      <trkpt lat="47.63542" lon="-2.68315">
        <ele>16.2</ele>
        <time>2021-08-05T10:30:25Z</time>
      </trkpt>
      <trkpt lat="47.63545" lon="-2.68317">
        <ele>16</ele>
        <time>2021-08-05T10:30:26Z</time>
      </trkpt>
      <trkpt lat="47.63548" lon="-2.68317">
        <ele>15.8</ele>
        <time>2021-08-05T10:30:27Z</time>
      </trkpt>
      <trkpt lat="47.63551" lon="-2.68316">
        <ele>15.6</ele>
        <time>2021-08-05T10:30:28Z</time>
      </trkpt>
      <trkpt lat="47.63558" lon="-2.68313">
        <ele>15.4</ele>
        <time>2021-08-05T10:30:30Z</time>
      </trkpt>
      <trkpt lat="47.63561" lon="-2.68312">
        <ele>15.2</ele>
        <time>2021-08-05T10:30:31Z</time>
      </trkpt>
      <trkpt lat="47.63564" lon="-2.68312">
        <ele>15.2</ele>
        <time>2021-08-05T10:30:32Z</time>
      </trkpt>
      <trkpt lat="47.63568" lon="-2.68313">
        <ele>15</ele>
        <time>2021-08-05T10:30:33Z</time>
      </trkpt>
      <trkpt lat="47.63575" lon="-2.68312">
        <ele>14.8</ele>
        <time>2021-08-05T10:30:35Z</time>
      </trkpt>
      <trkpt lat="47.63583" lon="-2.68313">
        <ele>14.4</ele>
        <time>2021-08-05T10:30:37Z</time>
      </trkpt>
      <trkpt lat="47.63587" lon="-2.68315">
        <ele>14.2</ele>
        <time>2021-08-05T10:30:38Z</time>
      </trkpt>
      <trkpt lat="47.6359" lon="-2.68316">
        <ele>14.2</ele>
        <time>2021-08-05T10:30:39Z</time>
      </trkpt>
      <trkpt lat="47.63594" lon="-2.68317">
        <ele>14.2</ele>
        <time>2021-08-05T10:30:40Z</time>
      </trkpt>
      <trkpt lat="47.63601" lon="-2.68322">
        <ele>14</ele>
        <time>2021-08-05T10:30:42Z</time>
      </trkpt>
      <trkpt lat="47.63604" lon="-2.68324">
        <ele>13.8</ele>
        <time>2021-08-05T10:30:43Z</time>
      </trkpt>
      <trkpt lat="47.63607" lon="-2.68326">
        <ele>13.6</ele>
        <time>2021-08-05T10:30:44Z</time>
      </trkpt>
      <trkpt lat="47.63611" lon="-2.6833">
        <ele>13.6</ele>
        <time>2021-08-05T10:30:46Z</time>
      </trkpt>
      <trkpt lat="47.63613" lon="-2.6833">
        <ele>13.4</ele>
        <time>2021-08-05T10:30:47Z</time>
      </trkpt>
      <trkpt lat="47.63614" lon="-2.6833">
        <ele>13.2</ele>
        <time>2021-08-05T10:30:48Z</time>
      </trkpt>
      <trkpt lat="47.63614" lon="-2.6833">
        <ele>13.2</ele>
        <time>2021-08-05T10:30:49Z</time>
      </trkpt>
      <trkpt lat="47.63615" lon="-2.68329">
        <ele>13.2</ele>
        <time>2021-08-05T10:30:50Z</time>
      </trkpt>
      <trkpt lat="47.63616" lon="-2.68328">
        <ele>13</ele>
        <time>2021-08-05T10:30:52Z</time>
      </trkpt>
      <trkpt lat="47.63616" lon="-2.68328">
        <ele>13</ele>
        <time>2021-08-05T10:30:53Z</time>
      </trkpt>
      <trkpt lat="47.63617" lon="-2.68328">
        <ele>13</ele>
        <time>2021-08-05T10:30:55Z</time>
      </trkpt>
      <trkpt lat="47.63618" lon="-2.68329">
        <ele>13</ele>
        <time>2021-08-05T10:30:56Z</time>
      </trkpt>
      <trkpt lat="47.63618" lon="-2.68329">
        <ele>13</ele>
        <time>2021-08-05T10:30:57Z</time>
      </trkpt>
      <trkpt lat="47.63622" lon="-2.68328">
        <ele>14.6</ele>
        <time>2021-08-05T10:32:05Z</time>
      </trkpt>
      <trkpt lat="47.63623" lon="-2.68327">
        <ele>14.8</ele>
        <time>2021-08-05T10:32:06Z</time>
      </trkpt>
      <trkpt lat="47.63624" lon="-2.68326">
        <ele>14.8</ele>
        <time>2021-08-05T10:32:07Z</time>
      </trkpt>
      <trkpt lat="47.63626" lon="-2.68324">
        <ele>14.8</ele>
        <time>2021-08-05T10:32:08Z</time>
      </trkpt>
      <trkpt lat="47.63627" lon="-2.6832">
        <ele>14.8</ele>
        <time>2021-08-05T10:32:09Z</time>
      </trkpt>
      <trkpt lat="47.63628" lon="-2.6831">
        <ele>15</ele>
        <time>2021-08-05T10:32:11Z</time>
      </trkpt>
      <trkpt lat="47.6363" lon="-2.683">
        <ele>15</ele>
        <time>2021-08-05T10:32:13Z</time>
      </trkpt>
      <trkpt lat="47.63632" lon="-2.68289">
        <ele>15</ele>
        <time>2021-08-05T10:32:15Z</time>
      </trkpt>
      <trkpt lat="47.63632" lon="-2.68279">
        <ele>15</ele>
        <time>2021-08-05T10:32:17Z</time>
      </trkpt>
      <trkpt lat="47.63632" lon="-2.68268">
        <ele>14.8</ele>
        <time>2021-08-05T10:32:19Z</time>
      </trkpt>
      <trkpt lat="47.63634" lon="-2.68258">
        <ele>14.8</ele>
        <time>2021-08-05T10:32:21Z</time>
      </trkpt>
      <trkpt lat="47.63636" lon="-2.68249">
        <ele>14.6</ele>
        <time>2021-08-05T10:32:23Z</time>
      </trkpt>
      <trkpt lat="47.63639" lon="-2.68242">
        <ele>14.6</ele>
        <time>2021-08-05T10:32:25Z</time>
      </trkpt>
      <trkpt lat="47.6364" lon="-2.68239">
        <ele>14.6</ele>
        <time>2021-08-05T10:32:26Z</time>
      </trkpt>
      <trkpt lat="47.6364" lon="-2.68237">
        <ele>14.4</ele>
        <time>2021-08-05T10:32:27Z</time>
      </trkpt>
      <trkpt lat="47.6364" lon="-2.68235">
        <ele>14.4</ele>
        <time>2021-08-05T10:32:28Z</time>
      </trkpt>
      <trkpt lat="47.6364" lon="-2.68235">
        <ele>14.4</ele>
        <time>2021-08-05T10:32:29Z</time>
      </trkpt>
      <trkpt lat="47.63645" lon="-2.68232">
        <ele>1.4</ele>
        <time>2021-08-05T10:34:50Z</time>
      </trkpt>
      <trkpt lat="47.63646" lon="-2.68231">
        <ele>1.4</ele>
        <time>2021-08-05T10:34:51Z</time>
      </trkpt>
      <trkpt lat="47.63652" lon="-2.68231">
        <ele>1.4</ele>
        <time>2021-08-05T10:34:53Z</time>
      </trkpt>
      <trkpt lat="47.63656" lon="-2.68231">
        <ele>1.2</ele>
        <time>2021-08-05T10:34:54Z</time>
      </trkpt>
      <trkpt lat="47.63659" lon="-2.68232">
        <ele>1.2</ele>
        <time>2021-08-05T10:34:55Z</time>
      </trkpt>
      <trkpt lat="47.63668" lon="-2.68231">
        <ele>1</ele>
        <time>2021-08-05T10:34:57Z</time>
      </trkpt>
      <trkpt lat="47.63673" lon="-2.6823">
        <ele>1</ele>
        <time>2021-08-05T10:34:58Z</time>
      </trkpt>
      <trkpt lat="47.63678" lon="-2.6823">
        <ele>1</ele>
        <time>2021-08-05T10:34:59Z</time>
      </trkpt>
      <trkpt lat="47.63683" lon="-2.68229">
        <ele>1</ele>
        <time>2021-08-05T10:35:00Z</time>
      </trkpt>
      <trkpt lat="47.63694" lon="-2.68226">
        <ele>0.8</ele>
        <time>2021-08-05T10:35:02Z</time>
      </trkpt>
      <trkpt lat="47.63704" lon="-2.68224">
        <ele>0.6</ele>
        <time>2021-08-05T10:35:04Z</time>
      </trkpt>
      <trkpt lat="47.6371" lon="-2.6822">
        <ele>0.4</ele>
        <time>2021-08-05T10:35:05Z</time>
      </trkpt>
      <trkpt lat="47.63714" lon="-2.68216">
        <ele>0.4</ele>
        <time>2021-08-05T10:35:06Z</time>
      </trkpt>
      <trkpt lat="47.63721" lon="-2.68205">
        <ele>0.2</ele>
        <time>2021-08-05T10:35:08Z</time>
      </trkpt>
      <trkpt lat="47.63724" lon="-2.68192">
        <ele>0.2</ele>
        <time>2021-08-05T10:35:10Z</time>
      </trkpt>
      <trkpt lat="47.63725" lon="-2.68186">
        <ele>0.2</ele>
        <time>2021-08-05T10:35:11Z</time>
      </trkpt>
      <trkpt lat="47.63725" lon="-2.68179">
        <ele>0.2</ele>
        <time>2021-08-05T10:35:12Z</time>
      </trkpt>
      <trkpt lat="47.63725" lon="-2.68166">
        <ele>0.2</ele>
        <time>2021-08-05T10:35:14Z</time>
      </trkpt>
      <trkpt lat="47.63722" lon="-2.68154">
        <ele>0.2</ele>
        <time>2021-08-05T10:35:16Z</time>
      </trkpt>
      <trkpt lat="47.63719" lon="-2.68149">
        <ele>0.2</ele>
        <time>2021-08-05T10:35:17Z</time>
      </trkpt>
      <trkpt lat="47.63717" lon="-2.68144">
        <ele>0.2</ele>
        <time>2021-08-05T10:35:18Z</time>
      </trkpt>
      <trkpt lat="47.63714" lon="-2.6814">
        <ele>0.2</ele>
        <time>2021-08-05T10:35:19Z</time>
      </trkpt>
      <trkpt lat="47.63711" lon="-2.68136">
        <ele>0.2</ele>
        <time>2021-08-05T10:35:20Z</time>
      </trkpt>
      <trkpt lat="47.63707" lon="-2.68129">
        <ele>0.2</ele>
        <time>2021-08-05T10:35:22Z</time>
      </trkpt>
      <trkpt lat="47.63704" lon="-2.68126">
        <ele>0.2</ele>
        <time>2021-08-05T10:35:23Z</time>
      </trkpt>
      <trkpt lat="47.63702" lon="-2.68124">
        <ele>0.2</ele>
        <time>2021-08-05T10:35:24Z</time>
      </trkpt>
      <trkpt lat="47.63699" lon="-2.68121">
        <ele>0.2</ele>
        <time>2021-08-05T10:35:25Z</time>
      </trkpt>
      <trkpt lat="47.63697" lon="-2.68118">
        <ele>0.2</ele>
        <time>2021-08-05T10:35:26Z</time>
      </trkpt>
      <trkpt lat="47.63695" lon="-2.68116">
        <ele>0.2</ele>
        <time>2021-08-05T10:35:27Z</time>
      </trkpt>
      <trkpt lat="47.63692" lon="-2.68113">
        <ele>0.2</ele>
        <time>2021-08-05T10:35:28Z</time>
      </trkpt>
      <trkpt lat="47.6369" lon="-2.68111">
        <ele>0.4</ele>
        <time>2021-08-05T10:35:29Z</time>
      </trkpt>
      <trkpt lat="47.63688" lon="-2.68109">
        <ele>0.2</ele>
        <time>2021-08-05T10:35:30Z</time>
      </trkpt>
      <trkpt lat="47.63686" lon="-2.68107">
        <ele>0.2</ele>
        <time>2021-08-05T10:35:31Z</time>
      </trkpt>
      <trkpt lat="47.63684" lon="-2.68105">
        <ele>0.4</ele>
        <time>2021-08-05T10:35:32Z</time>
      </trkpt>
      <trkpt lat="47.63682" lon="-2.68102">
        <ele>0.4</ele>
        <time>2021-08-05T10:35:33Z</time>
      </trkpt>
      <trkpt lat="47.6368" lon="-2.681">
        <ele>0.4</ele>
        <time>2021-08-05T10:35:34Z</time>
      </trkpt>
      <trkpt lat="47.63679" lon="-2.68098">
        <ele>0.4</ele>
        <time>2021-08-05T10:35:35Z</time>
      </trkpt>
      <trkpt lat="47.63677" lon="-2.68096">
        <ele>0.4</ele>
        <time>2021-08-05T10:35:36Z</time>
      </trkpt>
      <trkpt lat="47.63676" lon="-2.68094">
        <ele>0.6</ele>
        <time>2021-08-05T10:35:37Z</time>
      </trkpt>
      <trkpt lat="47.63674" lon="-2.68092">
        <ele>0.6</ele>
        <time>2021-08-05T10:35:38Z</time>
      </trkpt>
      <trkpt lat="47.63672" lon="-2.68091">
        <ele>0.6</ele>
        <time>2021-08-05T10:35:39Z</time>
      </trkpt>
      <trkpt lat="47.63671" lon="-2.68089">
        <ele>0.4</ele>
        <time>2021-08-05T10:35:40Z</time>
      </trkpt>
      <trkpt lat="47.63667" lon="-2.68087">
        <ele>0.6</ele>
        <time>2021-08-05T10:35:42Z</time>
      </trkpt>
      <trkpt lat="47.63664" lon="-2.68084">
        <ele>1</ele>
        <time>2021-08-05T10:35:44Z</time>
      </trkpt>
      <trkpt lat="47.63662" lon="-2.68083">
        <ele>1</ele>
        <time>2021-08-05T10:35:45Z</time>
      </trkpt>
      <trkpt lat="47.6366" lon="-2.68081">
        <ele>1.2</ele>
        <time>2021-08-05T10:35:46Z</time>
      </trkpt>
      <trkpt lat="47.63656" lon="-2.68078">
        <ele>1.8</ele>
        <time>2021-08-05T10:35:48Z</time>
      </trkpt>
      <trkpt lat="47.63652" lon="-2.68075">
        <ele>2</ele>
        <time>2021-08-05T10:35:50Z</time>
      </trkpt>
      <trkpt lat="47.63649" lon="-2.68073">
        <ele>2.2</ele>
        <time>2021-08-05T10:35:51Z</time>
      </trkpt>
      <trkpt lat="47.63647" lon="-2.68071">
        <ele>2.2</ele>
        <time>2021-08-05T10:35:52Z</time>
      </trkpt>
      <trkpt lat="47.63641" lon="-2.68068">
        <ele>2.2</ele>
        <time>2021-08-05T10:35:54Z</time>
      </trkpt>
      <trkpt lat="47.63636" lon="-2.68065">
        <ele>2.2</ele>
        <time>2021-08-05T10:35:56Z</time>
      </trkpt>
      <trkpt lat="47.6363" lon="-2.68061">
        <ele>2.4</ele>
        <time>2021-08-05T10:35:58Z</time>
      </trkpt>
      <trkpt lat="47.63627" lon="-2.68059">
        <ele>2.4</ele>
        <time>2021-08-05T10:35:59Z</time>
      </trkpt>
      <trkpt lat="47.63621" lon="-2.68055">
        <ele>2.2</ele>
        <time>2021-08-05T10:36:01Z</time>
      </trkpt>
      <trkpt lat="47.63615" lon="-2.68051">
        <ele>2.2</ele>
        <time>2021-08-05T10:36:03Z</time>
      </trkpt>
      <trkpt lat="47.63609" lon="-2.68047">
        <ele>2.2</ele>
        <time>2021-08-05T10:36:05Z</time>
      </trkpt>
      <trkpt lat="47.63603" lon="-2.68043">
        <ele>2.4</ele>
        <time>2021-08-05T10:36:07Z</time>
      </trkpt>
      <trkpt lat="47.636" lon="-2.68042">
        <ele>2.4</ele>
        <time>2021-08-05T10:36:08Z</time>
      </trkpt>
      <trkpt lat="47.63597" lon="-2.6804">
        <ele>2.4</ele>
        <time>2021-08-05T10:36:09Z</time>
      </trkpt>
      <trkpt lat="47.63591" lon="-2.68036">
        <ele>2.6</ele>
        <time>2021-08-05T10:36:11Z</time>
      </trkpt>
      <trkpt lat="47.63584" lon="-2.68032">
        <ele>2.6</ele>
        <time>2021-08-05T10:36:13Z</time>
      </trkpt>
      <trkpt lat="47.63578" lon="-2.68029">
        <ele>2.8</ele>
        <time>2021-08-05T10:36:15Z</time>
      </trkpt>
      <trkpt lat="47.63575" lon="-2.68027">
        <ele>3</ele>
        <time>2021-08-05T10:36:16Z</time>
      </trkpt>
      <trkpt lat="47.63571" lon="-2.68025">
        <ele>3</ele>
        <time>2021-08-05T10:36:17Z</time>
      </trkpt>
      <trkpt lat="47.63565" lon="-2.68021">
        <ele>3</ele>
        <time>2021-08-05T10:36:19Z</time>
      </trkpt>
      <trkpt lat="47.63559" lon="-2.68017">
        <ele>3</ele>
        <time>2021-08-05T10:36:21Z</time>
      </trkpt>
      <trkpt lat="47.63553" lon="-2.68012">
        <ele>3.2</ele>
        <time>2021-08-05T10:36:23Z</time>
      </trkpt>
      <trkpt lat="47.6355" lon="-2.68009">
        <ele>3.2</ele>
        <time>2021-08-05T10:36:24Z</time>
      </trkpt>
      <trkpt lat="47.63548" lon="-2.68007">
        <ele>3.4</ele>
        <time>2021-08-05T10:36:25Z</time>
      </trkpt>
      <trkpt lat="47.63545" lon="-2.68004">
        <ele>3.4</ele>
        <time>2021-08-05T10:36:26Z</time>
      </trkpt>
      <trkpt lat="47.63538" lon="-2.67999">
        <ele>3.6</ele>
        <time>2021-08-05T10:36:28Z</time>
      </trkpt>
      <trkpt lat="47.6353" lon="-2.6799">
        <ele>3.6</ele>
        <time>2021-08-05T10:36:31Z</time>
      </trkpt>
      <trkpt lat="47.63527" lon="-2.67987">
        <ele>3.6</ele>
        <time>2021-08-05T10:36:32Z</time>
      </trkpt>
      <trkpt lat="47.63524" lon="-2.67984">
        <ele>3.6</ele>
        <time>2021-08-05T10:36:33Z</time>
      </trkpt>
      <trkpt lat="47.63522" lon="-2.67981">
        <ele>3.6</ele>
        <time>2021-08-05T10:36:34Z</time>
      </trkpt>
      <trkpt lat="47.63519" lon="-2.67978">
        <ele>3.6</ele>
        <time>2021-08-05T10:36:35Z</time>
      </trkpt>
      <trkpt lat="47.63517" lon="-2.67975">
        <ele>3.8</ele>
        <time>2021-08-05T10:36:36Z</time>
      </trkpt>
      <trkpt lat="47.63514" lon="-2.67972">
        <ele>3.8</ele>
        <time>2021-08-05T10:36:37Z</time>
      </trkpt>
      <trkpt lat="47.6351" lon="-2.67965">
        <ele>3.8</ele>
        <time>2021-08-05T10:36:39Z</time>
      </trkpt>
      <trkpt lat="47.63507" lon="-2.67962">
        <ele>3.6</ele>
        <time>2021-08-05T10:36:40Z</time>
      </trkpt>
      <trkpt lat="47.63505" lon="-2.67958">
        <ele>3.4</ele>
        <time>2021-08-05T10:36:41Z</time>
      </trkpt>
      <trkpt lat="47.635" lon="-2.67952">
        <ele>3.4</ele>
        <time>2021-08-05T10:36:43Z</time>
      </trkpt>
      <trkpt lat="47.63498" lon="-2.67948">
        <ele>3.4</ele>
        <time>2021-08-05T10:36:44Z</time>
      </trkpt>
      <trkpt lat="47.63496" lon="-2.67945">
        <ele>3.4</ele>
        <time>2021-08-05T10:36:45Z</time>
      </trkpt>
      <trkpt lat="47.63494" lon="-2.67941">
        <ele>3.4</ele>
        <time>2021-08-05T10:36:46Z</time>
      </trkpt>
      <trkpt lat="47.63492" lon="-2.67938">
        <ele>3.4</ele>
        <time>2021-08-05T10:36:47Z</time>
      </trkpt>
      <trkpt lat="47.6349" lon="-2.67934">
        <ele>3.4</ele>
        <time>2021-08-05T10:36:48Z</time>
      </trkpt>
      <trkpt lat="47.63488" lon="-2.67931">
        <ele>3.4</ele>
        <time>2021-08-05T10:36:49Z</time>
      </trkpt>
      <trkpt lat="47.63486" lon="-2.67928">
        <ele>3.2</ele>
        <time>2021-08-05T10:36:50Z</time>
      </trkpt>
      <trkpt lat="47.63484" lon="-2.67924">
        <ele>3.4</ele>
        <time>2021-08-05T10:36:51Z</time>
      </trkpt>
      <trkpt lat="47.63482" lon="-2.67921">
        <ele>3.4</ele>
        <time>2021-08-05T10:36:52Z</time>
      </trkpt>
      <trkpt lat="47.63481" lon="-2.67918">
        <ele>3.6</ele>
        <time>2021-08-05T10:36:53Z</time>
      </trkpt>
      <trkpt lat="47.63479" lon="-2.67915">
        <ele>3.8</ele>
        <time>2021-08-05T10:36:54Z</time>
      </trkpt>
      <trkpt lat="47.63478" lon="-2.67911">
        <ele>4</ele>
        <time>2021-08-05T10:36:55Z</time>
      </trkpt>
      <trkpt lat="47.63477" lon="-2.67908">
        <ele>4</ele>
        <time>2021-08-05T10:36:56Z</time>
      </trkpt>
      <trkpt lat="47.63475" lon="-2.67904">
        <ele>4.2</ele>
        <time>2021-08-05T10:36:57Z</time>
      </trkpt>
      <trkpt lat="47.63472" lon="-2.67897">
        <ele>4.2</ele>
        <time>2021-08-05T10:36:59Z</time>
      </trkpt>
      <trkpt lat="47.63471" lon="-2.67894">
        <ele>4.2</ele>
        <time>2021-08-05T10:37:00Z</time>
      </trkpt>
      <trkpt lat="47.6347" lon="-2.6789">
        <ele>4.2</ele>
        <time>2021-08-05T10:37:01Z</time>
      </trkpt>
      <trkpt lat="47.63469" lon="-2.67886">
        <ele>4.4</ele>
        <time>2021-08-05T10:37:02Z</time>
      </trkpt>
      <trkpt lat="47.63466" lon="-2.67879">
        <ele>4.4</ele>
        <time>2021-08-05T10:37:04Z</time>
      </trkpt>
      <trkpt lat="47.63464" lon="-2.67876">
        <ele>4.4</ele>
        <time>2021-08-05T10:37:05Z</time>
      </trkpt>
      <trkpt lat="47.63461" lon="-2.67868">
        <ele>4.2</ele>
        <time>2021-08-05T10:37:07Z</time>
      </trkpt>
      <trkpt lat="47.63459" lon="-2.67861">
        <ele>4.2</ele>
        <time>2021-08-05T10:37:09Z</time>
      </trkpt>
      <trkpt lat="47.63456" lon="-2.67854">
        <ele>4.2</ele>
        <time>2021-08-05T10:37:11Z</time>
      </trkpt>
      <trkpt lat="47.63454" lon="-2.67848">
        <ele>4.6</ele>
        <time>2021-08-05T10:37:13Z</time>
      </trkpt>
      <trkpt lat="47.63452" lon="-2.67841">
        <ele>4.8</ele>
        <time>2021-08-05T10:37:15Z</time>
      </trkpt>
      <trkpt lat="47.63451" lon="-2.67835">
        <ele>4.8</ele>
        <time>2021-08-05T10:37:17Z</time>
      </trkpt>
      <trkpt lat="47.6345" lon="-2.67833">
        <ele>4.6</ele>
        <time>2021-08-05T10:37:18Z</time>
      </trkpt>
      <trkpt lat="47.6345" lon="-2.67832">
        <ele>4.6</ele>
        <time>2021-08-05T10:37:19Z</time>
      </trkpt>
      <trkpt lat="47.6345" lon="-2.67831">
        <ele>3.4</ele>
        <time>2021-08-05T10:37:48Z</time>
      </trkpt>
      <trkpt lat="47.6345" lon="-2.67831">
        <ele>3.4</ele>
        <time>2021-08-05T10:37:49Z</time>
      </trkpt>
      <trkpt lat="47.6345" lon="-2.67831">
        <ele>3.4</ele>
        <time>2021-08-05T10:37:50Z</time>
      </trkpt>
      <trkpt lat="47.63447" lon="-2.67826">
        <ele>-16.4</ele>
        <time>2021-08-05T10:42:50Z</time>
      </trkpt>
      <trkpt lat="47.63446" lon="-2.67823">
        <ele>-16.6</ele>
        <time>2021-08-05T10:42:51Z</time>
      </trkpt>
      <trkpt lat="47.63445" lon="-2.67821">
        <ele>-16.6</ele>
        <time>2021-08-05T10:42:52Z</time>
      </trkpt>
      <trkpt lat="47.63444" lon="-2.67815">
        <ele>-16.8</ele>
        <time>2021-08-05T10:42:54Z</time>
      </trkpt>
      <trkpt lat="47.63442" lon="-2.67808">
        <ele>-17</ele>
        <time>2021-08-05T10:42:56Z</time>
      </trkpt>
      <trkpt lat="47.63439" lon="-2.678">
        <ele>-17</ele>
        <time>2021-08-05T10:42:58Z</time>
      </trkpt>
      <trkpt lat="47.63437" lon="-2.67791">
        <ele>-17.2</ele>
        <time>2021-08-05T10:43:00Z</time>
      </trkpt>
      <trkpt lat="47.63434" lon="-2.67782">
        <ele>-17.2</ele>
        <time>2021-08-05T10:43:02Z</time>
      </trkpt>
      <trkpt lat="47.63433" lon="-2.67777">
        <ele>-17.4</ele>
        <time>2021-08-05T10:43:03Z</time>
      </trkpt>
      <trkpt lat="47.6343" lon="-2.67768">
        <ele>-17.4</ele>
        <time>2021-08-05T10:43:05Z</time>
      </trkpt>
      <trkpt lat="47.63428" lon="-2.67759">
        <ele>-17.8</ele>
        <time>2021-08-05T10:43:07Z</time>
      </trkpt>
      <trkpt lat="47.63425" lon="-2.67751">
        <ele>-18</ele>
        <time>2021-08-05T10:43:09Z</time>
      </trkpt>
      <trkpt lat="47.63423" lon="-2.67742">
        <ele>-18.2</ele>
        <time>2021-08-05T10:43:11Z</time>
      </trkpt>
      <trkpt lat="47.6342" lon="-2.67732">
        <ele>-18.2</ele>
        <time>2021-08-05T10:43:13Z</time>
      </trkpt>
      <trkpt lat="47.63418" lon="-2.67723">
        <ele>-18.4</ele>
        <time>2021-08-05T10:43:15Z</time>
      </trkpt>
      <trkpt lat="47.63415" lon="-2.67714">
        <ele>-18.4</ele>
        <time>2021-08-05T10:43:17Z</time>
      </trkpt>
      <trkpt lat="47.63414" lon="-2.67708">
        <ele>-18.4</ele>
        <time>2021-08-05T10:43:18Z</time>
      </trkpt>
      <trkpt lat="47.63412" lon="-2.67703">
        <ele>-18.6</ele>
        <time>2021-08-05T10:43:19Z</time>
      </trkpt>
      <trkpt lat="47.6341" lon="-2.67693">
        <ele>-18.4</ele>
        <time>2021-08-05T10:43:21Z</time>
      </trkpt>
      <trkpt lat="47.63407" lon="-2.67682">
        <ele>-18.4</ele>
        <time>2021-08-05T10:43:23Z</time>
      </trkpt>
      <trkpt lat="47.63404" lon="-2.67672">
        <ele>-18.4</ele>
        <time>2021-08-05T10:43:25Z</time>
      </trkpt>
      <trkpt lat="47.63401" lon="-2.67661">
        <ele>-18.6</ele>
        <time>2021-08-05T10:43:27Z</time>
      </trkpt>
      <trkpt lat="47.63399" lon="-2.67655">
        <ele>-18.6</ele>
        <time>2021-08-05T10:43:28Z</time>
      </trkpt>
      <trkpt lat="47.63398" lon="-2.6765">
        <ele>-18.6</ele>
        <time>2021-08-05T10:43:29Z</time>
      </trkpt>
      <trkpt lat="47.63396" lon="-2.67644">
        <ele>-18.6</ele>
        <time>2021-08-05T10:43:30Z</time>
      </trkpt>
      <trkpt lat="47.63393" lon="-2.67633">
        <ele>-18.8</ele>
        <time>2021-08-05T10:43:32Z</time>
      </trkpt>
      <trkpt lat="47.6339" lon="-2.67621">
        <ele>-19</ele>
        <time>2021-08-05T10:43:34Z</time>
      </trkpt>
      <trkpt lat="47.63387" lon="-2.67609">
        <ele>-19</ele>
        <time>2021-08-05T10:43:36Z</time>
      </trkpt>
      <trkpt lat="47.63384" lon="-2.67598">
        <ele>-19</ele>
        <time>2021-08-05T10:43:38Z</time>
      </trkpt>
      <trkpt lat="47.63382" lon="-2.67592">
        <ele>-19.2</ele>
        <time>2021-08-05T10:43:39Z</time>
      </trkpt>
      <trkpt lat="47.63381" lon="-2.67587">
        <ele>-19.2</ele>
        <time>2021-08-05T10:43:40Z</time>
      </trkpt>
      <trkpt lat="47.63378" lon="-2.67575">
        <ele>-19.2</ele>
        <time>2021-08-05T10:43:42Z</time>
      </trkpt>
      <trkpt lat="47.63375" lon="-2.67563">
        <ele>-19.2</ele>
        <time>2021-08-05T10:43:44Z</time>
      </trkpt>
      <trkpt lat="47.63371" lon="-2.67551">
        <ele>-19.6</ele>
        <time>2021-08-05T10:43:46Z</time>
      </trkpt>
      <trkpt lat="47.63369" lon="-2.67545">
        <ele>-19.6</ele>
        <time>2021-08-05T10:43:47Z</time>
      </trkpt>
      <trkpt lat="47.63368" lon="-2.67539">
        <ele>-19.6</ele>
        <time>2021-08-05T10:43:48Z</time>
      </trkpt>
      <trkpt lat="47.63364" lon="-2.67526">
        <ele>-19.6</ele>
        <time>2021-08-05T10:43:50Z</time>
      </trkpt>
      <trkpt lat="47.6336" lon="-2.67514">
        <ele>-19.6</ele>
        <time>2021-08-05T10:43:52Z</time>
      </trkpt>
      <trkpt lat="47.63357" lon="-2.67502">
        <ele>-19.6</ele>
        <time>2021-08-05T10:43:54Z</time>
      </trkpt>
      <trkpt lat="47.63356" lon="-2.67496">
        <ele>-19.6</ele>
        <time>2021-08-05T10:43:55Z</time>
      </trkpt>
      <trkpt lat="47.63354" lon="-2.6749">
        <ele>-19.8</ele>
        <time>2021-08-05T10:43:56Z</time>
      </trkpt>
      <trkpt lat="47.6335" lon="-2.67477">
        <ele>-19.8</ele>
        <time>2021-08-05T10:43:58Z</time>
      </trkpt>
      <trkpt lat="47.63347" lon="-2.67464">
        <ele>-20</ele>
        <time>2021-08-05T10:44:00Z</time>
      </trkpt>
      <trkpt lat="47.63345" lon="-2.67458">
        <ele>-20</ele>
        <time>2021-08-05T10:44:01Z</time>
      </trkpt>
      <trkpt lat="47.63343" lon="-2.67451">
        <ele>-20</ele>
        <time>2021-08-05T10:44:02Z</time>
      </trkpt>
      <trkpt lat="47.63341" lon="-2.67445">
        <ele>-20</ele>
        <time>2021-08-05T10:44:03Z</time>
      </trkpt>
      <trkpt lat="47.63337" lon="-2.67431">
        <ele>-20</ele>
        <time>2021-08-05T10:44:05Z</time>
      </trkpt>
      <trkpt lat="47.63334" lon="-2.67418">
        <ele>-20</ele>
        <time>2021-08-05T10:44:07Z</time>
      </trkpt>
      <trkpt lat="47.6333" lon="-2.67404">
        <ele>-20</ele>
        <time>2021-08-05T10:44:09Z</time>
      </trkpt>
      <trkpt lat="47.63326" lon="-2.6739">
        <ele>-20.2</ele>
        <time>2021-08-05T10:44:11Z</time>
      </trkpt>
      <trkpt lat="47.63322" lon="-2.67377">
        <ele>-20</ele>
        <time>2021-08-05T10:44:13Z</time>
      </trkpt>
      <trkpt lat="47.63319" lon="-2.67363">
        <ele>-20.2</ele>
        <time>2021-08-05T10:44:15Z</time>
      </trkpt>
      <trkpt lat="47.63316" lon="-2.67351">
        <ele>-20.2</ele>
        <time>2021-08-05T10:44:17Z</time>
      </trkpt>
      <trkpt lat="47.63313" lon="-2.67339">
        <ele>-20.2</ele>
        <time>2021-08-05T10:44:19Z</time>
      </trkpt>
      <trkpt lat="47.6331" lon="-2.67327">
        <ele>-20.2</ele>
        <time>2021-08-05T10:44:21Z</time>
      </trkpt>
      <trkpt lat="47.63307" lon="-2.67316">
        <ele>-20.2</ele>
        <time>2021-08-05T10:44:23Z</time>
      </trkpt>
      <trkpt lat="47.63303" lon="-2.67304">
        <ele>-20.4</ele>
        <time>2021-08-05T10:44:25Z</time>
      </trkpt>
      <trkpt lat="47.63302" lon="-2.67299">
        <ele>-20.4</ele>
        <time>2021-08-05T10:44:26Z</time>
      </trkpt>
      <trkpt lat="47.63301" lon="-2.67293">
        <ele>-20.6</ele>
        <time>2021-08-05T10:44:27Z</time>
      </trkpt>
      <trkpt lat="47.63299" lon="-2.67287">
        <ele>-20.6</ele>
        <time>2021-08-05T10:44:28Z</time>
      </trkpt>
      <trkpt lat="47.63297" lon="-2.67275">
        <ele>-20.8</ele>
        <time>2021-08-05T10:44:30Z</time>
      </trkpt>
      <trkpt lat="47.63296" lon="-2.67263">
        <ele>-20.8</ele>
        <time>2021-08-05T10:44:32Z</time>
      </trkpt>
      <trkpt lat="47.63295" lon="-2.67258">
        <ele>-21</ele>
        <time>2021-08-05T10:44:33Z</time>
      </trkpt>
      <trkpt lat="47.63294" lon="-2.67252">
        <ele>-21.2</ele>
        <time>2021-08-05T10:44:34Z</time>
      </trkpt>
      <trkpt lat="47.63293" lon="-2.67247">
        <ele>-21.2</ele>
        <time>2021-08-05T10:44:35Z</time>
      </trkpt>
      <trkpt lat="47.63293" lon="-2.67242">
        <ele>-21.4</ele>
        <time>2021-08-05T10:44:36Z</time>
      </trkpt>
      <trkpt lat="47.63292" lon="-2.67231">
        <ele>-21.6</ele>
        <time>2021-08-05T10:44:38Z</time>
      </trkpt>
      <trkpt lat="47.6329" lon="-2.6722">
        <ele>-22</ele>
        <time>2021-08-05T10:44:40Z</time>
      </trkpt>
      <trkpt lat="47.63288" lon="-2.67207">
        <ele>-22.4</ele>
        <time>2021-08-05T10:44:42Z</time>
      </trkpt>
      <trkpt lat="47.63287" lon="-2.672">
        <ele>-22.6</ele>
        <time>2021-08-05T10:44:43Z</time>
      </trkpt>
      <trkpt lat="47.63286" lon="-2.67193">
        <ele>-22.6</ele>
        <time>2021-08-05T10:44:44Z</time>
      </trkpt>
      <trkpt lat="47.63284" lon="-2.67179">
        <ele>-22.6</ele>
        <time>2021-08-05T10:44:46Z</time>
      </trkpt>
      <trkpt lat="47.63284" lon="-2.67172">
        <ele>-22.8</ele>
        <time>2021-08-05T10:44:47Z</time>
      </trkpt>
      <trkpt lat="47.63282" lon="-2.67156">
        <ele>-23</ele>
        <time>2021-08-05T10:44:49Z</time>
      </trkpt>
      <trkpt lat="47.6328" lon="-2.67141">
        <ele>-23.2</ele>
        <time>2021-08-05T10:44:51Z</time>
      </trkpt>
      <trkpt lat="47.63279" lon="-2.67124">
        <ele>-23.4</ele>
        <time>2021-08-05T10:44:53Z</time>
      </trkpt>
      <trkpt lat="47.63277" lon="-2.67107">
        <ele>-23.4</ele>
        <time>2021-08-05T10:44:55Z</time>
      </trkpt>
      <trkpt lat="47.63276" lon="-2.6709">
        <ele>-23.4</ele>
        <time>2021-08-05T10:44:57Z</time>
      </trkpt>
      <trkpt lat="47.63274" lon="-2.67073">
        <ele>-23.4</ele>
        <time>2021-08-05T10:44:59Z</time>
      </trkpt>
      <trkpt lat="47.63272" lon="-2.67057">
        <ele>-23.4</ele>
        <time>2021-08-05T10:45:01Z</time>
      </trkpt>
      <trkpt lat="47.6327" lon="-2.67041">
        <ele>-23.4</ele>
        <time>2021-08-05T10:45:03Z</time>
      </trkpt>
      <trkpt lat="47.63269" lon="-2.67025">
        <ele>-23.4</ele>
        <time>2021-08-05T10:45:05Z</time>
      </trkpt>
      <trkpt lat="47.63268" lon="-2.67017">
        <ele>-23.2</ele>
        <time>2021-08-05T10:45:06Z</time>
      </trkpt>
      <trkpt lat="47.63266" lon="-2.67001">
        <ele>-23.4</ele>
        <time>2021-08-05T10:45:08Z</time>
      </trkpt>
      <trkpt lat="47.63265" lon="-2.66985">
        <ele>-23.6</ele>
        <time>2021-08-05T10:45:10Z</time>
      </trkpt>
      <trkpt lat="47.63264" lon="-2.6697">
        <ele>-23.6</ele>
        <time>2021-08-05T10:45:12Z</time>
      </trkpt>
      <trkpt lat="47.63263" lon="-2.66955">
        <ele>-23.4</ele>
        <time>2021-08-05T10:45:14Z</time>
      </trkpt>
      <trkpt lat="47.63263" lon="-2.66947">
        <ele>-23.4</ele>
        <time>2021-08-05T10:45:15Z</time>
      </trkpt>
      <trkpt lat="47.63263" lon="-2.66939">
        <ele>-23.4</ele>
        <time>2021-08-05T10:45:16Z</time>
      </trkpt>
      <trkpt lat="47.63263" lon="-2.66924">
        <ele>-23.6</ele>
        <time>2021-08-05T10:45:18Z</time>
      </trkpt>
      <trkpt lat="47.6326" lon="-2.66912">
        <ele>-23.6</ele>
        <time>2021-08-05T10:45:20Z</time>
      </trkpt>
      <trkpt lat="47.63254" lon="-2.66903">
        <ele>-23.6</ele>
        <time>2021-08-05T10:45:22Z</time>
      </trkpt>
      <trkpt lat="47.6325" lon="-2.6689">
        <ele>-23.6</ele>
        <time>2021-08-05T10:45:24Z</time>
      </trkpt>
      <trkpt lat="47.63249" lon="-2.66876">
        <ele>-23.6</ele>
        <time>2021-08-05T10:45:26Z</time>
      </trkpt>
      <trkpt lat="47.63248" lon="-2.66861">
        <ele>-23.8</ele>
        <time>2021-08-05T10:45:28Z</time>
      </trkpt>
      <trkpt lat="47.63248" lon="-2.66854">
        <ele>-23.8</ele>
        <time>2021-08-05T10:45:29Z</time>
      </trkpt>
      <trkpt lat="47.63248" lon="-2.66841">
        <ele>-23.8</ele>
        <time>2021-08-05T10:45:31Z</time>
      </trkpt>
      <trkpt lat="47.63247" lon="-2.66828">
        <ele>-23.8</ele>
        <time>2021-08-05T10:45:33Z</time>
      </trkpt>
      <trkpt lat="47.63247" lon="-2.66814">
        <ele>-24.2</ele>
        <time>2021-08-05T10:45:35Z</time>
      </trkpt>
      <trkpt lat="47.63247" lon="-2.66807">
        <ele>-24.2</ele>
        <time>2021-08-05T10:45:36Z</time>
      </trkpt>
      <trkpt lat="47.63247" lon="-2.668">
        <ele>-24.2</ele>
        <time>2021-08-05T10:45:37Z</time>
      </trkpt>
      <trkpt lat="47.63246" lon="-2.66785">
        <ele>-24.4</ele>
        <time>2021-08-05T10:45:39Z</time>
      </trkpt>
      <trkpt lat="47.63244" lon="-2.66768">
        <ele>-24.6</ele>
        <time>2021-08-05T10:45:41Z</time>
      </trkpt>
      <trkpt lat="47.63242" lon="-2.66751">
        <ele>-25</ele>
        <time>2021-08-05T10:45:43Z</time>
      </trkpt>
      <trkpt lat="47.63242" lon="-2.66735">
        <ele>-25</ele>
        <time>2021-08-05T10:45:45Z</time>
      </trkpt>
      <trkpt lat="47.63241" lon="-2.66727">
        <ele>-25.2</ele>
        <time>2021-08-05T10:45:46Z</time>
      </trkpt>
      <trkpt lat="47.6324" lon="-2.66719">
        <ele>-25.4</ele>
        <time>2021-08-05T10:45:47Z</time>
      </trkpt>
      <trkpt lat="47.63238" lon="-2.66713">
        <ele>-25.4</ele>
        <time>2021-08-05T10:45:48Z</time>
      </trkpt>
      <trkpt lat="47.63237" lon="-2.66706">
        <ele>-25.6</ele>
        <time>2021-08-05T10:45:49Z</time>
      </trkpt>
      <trkpt lat="47.63237" lon="-2.667">
        <ele>-25.6</ele>
        <time>2021-08-05T10:45:50Z</time>
      </trkpt>
      <trkpt lat="47.63234" lon="-2.66688">
        <ele>-26</ele>
        <time>2021-08-05T10:45:52Z</time>
      </trkpt>
      <trkpt lat="47.63231" lon="-2.66676">
        <ele>-26.4</ele>
        <time>2021-08-05T10:45:54Z</time>
      </trkpt>
      <trkpt lat="47.6323" lon="-2.66671">
        <ele>-26.4</ele>
        <time>2021-08-05T10:45:55Z</time>
      </trkpt>
      <trkpt lat="47.63229" lon="-2.66665">
        <ele>-26.4</ele>
        <time>2021-08-05T10:45:56Z</time>
      </trkpt>
      <trkpt lat="47.63229" lon="-2.6666">
        <ele>-26.6</ele>
        <time>2021-08-05T10:45:57Z</time>
      </trkpt>
      <trkpt lat="47.63229" lon="-2.66654">
        <ele>-26.8</ele>
        <time>2021-08-05T10:45:58Z</time>
      </trkpt>
      <trkpt lat="47.63231" lon="-2.66644">
        <ele>-26.8</ele>
        <time>2021-08-05T10:46:00Z</time>
      </trkpt>
      <trkpt lat="47.63232" lon="-2.66639">
        <ele>-26.8</ele>
        <time>2021-08-05T10:46:01Z</time>
      </trkpt>
      <trkpt lat="47.63234" lon="-2.66635">
        <ele>-26.8</ele>
        <time>2021-08-05T10:46:02Z</time>
      </trkpt>
      <trkpt lat="47.63236" lon="-2.66626">
        <ele>-27</ele>
        <time>2021-08-05T10:46:04Z</time>
      </trkpt>
      <trkpt lat="47.63235" lon="-2.66616">
        <ele>-27</ele>
        <time>2021-08-05T10:46:06Z</time>
      </trkpt>
      <trkpt lat="47.63232" lon="-2.66605">
        <ele>-27</ele>
        <time>2021-08-05T10:46:08Z</time>
      </trkpt>
      <trkpt lat="47.63231" lon="-2.66599">
        <ele>-27</ele>
        <time>2021-08-05T10:46:09Z</time>
      </trkpt>
      <trkpt lat="47.6323" lon="-2.66592">
        <ele>-27</ele>
        <time>2021-08-05T10:46:10Z</time>
      </trkpt>
      <trkpt lat="47.63229" lon="-2.66585">
        <ele>-27</ele>
        <time>2021-08-05T10:46:11Z</time>
      </trkpt>
      <trkpt lat="47.63228" lon="-2.66577">
        <ele>-27</ele>
        <time>2021-08-05T10:46:12Z</time>
      </trkpt>
      <trkpt lat="47.63227" lon="-2.6657">
        <ele>-27</ele>
        <time>2021-08-05T10:46:13Z</time>
      </trkpt>
      <trkpt lat="47.63226" lon="-2.66556">
        <ele>-27</ele>
        <time>2021-08-05T10:46:15Z</time>
      </trkpt>
      <trkpt lat="47.63223" lon="-2.6655">
        <ele>-27</ele>
        <time>2021-08-05T10:46:16Z</time>
      </trkpt>
      <trkpt lat="47.6322" lon="-2.66544">
        <ele>-27</ele>
        <time>2021-08-05T10:46:17Z</time>
      </trkpt>
      <trkpt lat="47.63214" lon="-2.66531">
        <ele>-27</ele>
        <time>2021-08-05T10:46:19Z</time>
      </trkpt>
      <trkpt lat="47.63212" lon="-2.66522">
        <ele>-27</ele>
        <time>2021-08-05T10:46:20Z</time>
      </trkpt>
      <trkpt lat="47.6321" lon="-2.66513">
        <ele>-27</ele>
        <time>2021-08-05T10:46:21Z</time>
      </trkpt>
      <trkpt lat="47.63209" lon="-2.66495">
        <ele>-27</ele>
        <time>2021-08-05T10:46:23Z</time>
      </trkpt>
      <trkpt lat="47.63208" lon="-2.66478">
        <ele>-27</ele>
        <time>2021-08-05T10:46:25Z</time>
      </trkpt>
      <trkpt lat="47.63208" lon="-2.6647">
        <ele>-27</ele>
        <time>2021-08-05T10:46:26Z</time>
      </trkpt>
      <trkpt lat="47.63209" lon="-2.66462">
        <ele>-27</ele>
        <time>2021-08-05T10:46:27Z</time>
      </trkpt>
      <trkpt lat="47.63209" lon="-2.66445">
        <ele>-27</ele>
        <time>2021-08-05T10:46:29Z</time>
      </trkpt>
      <trkpt lat="47.63207" lon="-2.66427">
        <ele>-27</ele>
        <time>2021-08-05T10:46:31Z</time>
      </trkpt>
      <trkpt lat="47.63207" lon="-2.66418">
        <ele>-27.2</ele>
        <time>2021-08-05T10:46:32Z</time>
      </trkpt>
      <trkpt lat="47.63206" lon="-2.66409">
        <ele>-27.2</ele>
        <time>2021-08-05T10:46:33Z</time>
      </trkpt>
      <trkpt lat="47.63206" lon="-2.664">
        <ele>-27.2</ele>
        <time>2021-08-05T10:46:34Z</time>
      </trkpt>
      <trkpt lat="47.63205" lon="-2.66392">
        <ele>-27</ele>
        <time>2021-08-05T10:46:35Z</time>
      </trkpt>
      <trkpt lat="47.63204" lon="-2.66383">
        <ele>-27</ele>
        <time>2021-08-05T10:46:36Z</time>
      </trkpt>
      <trkpt lat="47.63202" lon="-2.66365">
        <ele>-27.2</ele>
        <time>2021-08-05T10:46:38Z</time>
      </trkpt>
      <trkpt lat="47.63199" lon="-2.66347">
        <ele>-27.2</ele>
        <time>2021-08-05T10:46:40Z</time>
      </trkpt>
      <trkpt lat="47.63197" lon="-2.6633">
        <ele>-27.2</ele>
        <time>2021-08-05T10:46:42Z</time>
      </trkpt>
      <trkpt lat="47.63195" lon="-2.66313">
        <ele>-27</ele>
        <time>2021-08-05T10:46:44Z</time>
      </trkpt>
      <trkpt lat="47.63194" lon="-2.66305">
        <ele>-27</ele>
        <time>2021-08-05T10:46:45Z</time>
      </trkpt>
      <trkpt lat="47.63193" lon="-2.66297">
        <ele>-27</ele>
        <time>2021-08-05T10:46:46Z</time>
      </trkpt>
      <trkpt lat="47.63191" lon="-2.66281">
        <ele>-27</ele>
        <time>2021-08-05T10:46:48Z</time>
      </trkpt>
      <trkpt lat="47.63193" lon="-2.66266">
        <ele>-27</ele>
        <time>2021-08-05T10:46:50Z</time>
      </trkpt>
      <trkpt lat="47.63195" lon="-2.66252">
        <ele>-26.8</ele>
        <time>2021-08-05T10:46:52Z</time>
      </trkpt>
      <trkpt lat="47.63197" lon="-2.66245">
        <ele>-26.8</ele>
        <time>2021-08-05T10:46:53Z</time>
      </trkpt>
      <trkpt lat="47.63199" lon="-2.66241">
        <ele>-26.8</ele>
        <time>2021-08-05T10:46:54Z</time>
      </trkpt>
      <trkpt lat="47.63204" lon="-2.66232">
        <ele>-27</ele>
        <time>2021-08-05T10:46:56Z</time>
      </trkpt>
      <trkpt lat="47.63205" lon="-2.66227">
        <ele>-27</ele>
        <time>2021-08-05T10:46:57Z</time>
      </trkpt>
      <trkpt lat="47.63207" lon="-2.66217">
        <ele>-26.8</ele>
        <time>2021-08-05T10:46:59Z</time>
      </trkpt>
      <trkpt lat="47.63206" lon="-2.66212">
        <ele>-26.8</ele>
        <time>2021-08-05T10:47:00Z</time>
      </trkpt>
      <trkpt lat="47.63205" lon="-2.66208">
        <ele>-26.8</ele>
        <time>2021-08-05T10:47:01Z</time>
      </trkpt>
      <trkpt lat="47.63202" lon="-2.66203">
        <ele>-26.8</ele>
        <time>2021-08-05T10:47:03Z</time>
      </trkpt>
      <trkpt lat="47.63197" lon="-2.66198">
        <ele>-27</ele>
        <time>2021-08-05T10:47:05Z</time>
      </trkpt>
      <trkpt lat="47.63195" lon="-2.66196">
        <ele>-27</ele>
        <time>2021-08-05T10:47:06Z</time>
      </trkpt>
      <trkpt lat="47.63191" lon="-2.66189">
        <ele>-27.4</ele>
        <time>2021-08-05T10:47:08Z</time>
      </trkpt>
      <trkpt lat="47.63187" lon="-2.66178">
        <ele>-27.6</ele>
        <time>2021-08-05T10:47:10Z</time>
      </trkpt>
      <trkpt lat="47.63185" lon="-2.66171">
        <ele>-27.6</ele>
        <time>2021-08-05T10:47:11Z</time>
      </trkpt>
      <trkpt lat="47.63185" lon="-2.66158">
        <ele>-27.6</ele>
        <time>2021-08-05T10:47:13Z</time>
      </trkpt>
      <trkpt lat="47.63185" lon="-2.66144">
        <ele>-27.6</ele>
        <time>2021-08-05T10:47:15Z</time>
      </trkpt>
      <trkpt lat="47.63181" lon="-2.66132">
        <ele>-27.8</ele>
        <time>2021-08-05T10:47:17Z</time>
      </trkpt>
      <trkpt lat="47.63179" lon="-2.66126">
        <ele>-27.8</ele>
        <time>2021-08-05T10:47:18Z</time>
      </trkpt>
      <trkpt lat="47.63177" lon="-2.66121">
        <ele>-27.8</ele>
        <time>2021-08-05T10:47:19Z</time>
      </trkpt>
      <trkpt lat="47.63175" lon="-2.66115">
        <ele>-27.8</ele>
        <time>2021-08-05T10:47:20Z</time>
      </trkpt>
      <trkpt lat="47.63172" lon="-2.66103">
        <ele>-28</ele>
        <time>2021-08-05T10:47:22Z</time>
      </trkpt>
      <trkpt lat="47.6317" lon="-2.66097">
        <ele>-28</ele>
        <time>2021-08-05T10:47:23Z</time>
      </trkpt>
      <trkpt lat="47.63167" lon="-2.66084">
        <ele>-28.2</ele>
        <time>2021-08-05T10:47:25Z</time>
      </trkpt>
      <trkpt lat="47.63165" lon="-2.66078">
        <ele>-28.2</ele>
        <time>2021-08-05T10:47:26Z</time>
      </trkpt>
      <trkpt lat="47.63163" lon="-2.66072">
        <ele>-28.4</ele>
        <time>2021-08-05T10:47:27Z</time>
      </trkpt>
      <trkpt lat="47.63162" lon="-2.66066">
        <ele>-28.4</ele>
        <time>2021-08-05T10:47:28Z</time>
      </trkpt>
      <trkpt lat="47.63159" lon="-2.66053">
        <ele>-28.6</ele>
        <time>2021-08-05T10:47:30Z</time>
      </trkpt>
      <trkpt lat="47.63157" lon="-2.66047">
        <ele>-28.8</ele>
        <time>2021-08-05T10:47:31Z</time>
      </trkpt>
      <trkpt lat="47.63155" lon="-2.66042">
        <ele>-28.8</ele>
        <time>2021-08-05T10:47:32Z</time>
      </trkpt>
      <trkpt lat="47.63154" lon="-2.66036">
        <ele>-29</ele>
        <time>2021-08-05T10:47:33Z</time>
      </trkpt>
      <trkpt lat="47.6315" lon="-2.66024">
        <ele>-29.2</ele>
        <time>2021-08-05T10:47:35Z</time>
      </trkpt>
      <trkpt lat="47.63147" lon="-2.66012">
        <ele>-29.6</ele>
        <time>2021-08-05T10:47:37Z</time>
      </trkpt>
      <trkpt lat="47.63145" lon="-2.66005">
        <ele>-29.8</ele>
        <time>2021-08-05T10:47:38Z</time>
      </trkpt>
      <trkpt lat="47.63144" lon="-2.65999">
        <ele>-30</ele>
        <time>2021-08-05T10:47:39Z</time>
      </trkpt>
      <trkpt lat="47.63142" lon="-2.65993">
        <ele>-30.2</ele>
        <time>2021-08-05T10:47:40Z</time>
      </trkpt>
      <trkpt lat="47.63137" lon="-2.65981">
        <ele>-30.6</ele>
        <time>2021-08-05T10:47:42Z</time>
      </trkpt>
      <trkpt lat="47.63135" lon="-2.65975">
        <ele>-30.8</ele>
        <time>2021-08-05T10:47:43Z</time>
      </trkpt>
      <trkpt lat="47.63131" lon="-2.65963">
        <ele>-31</ele>
        <time>2021-08-05T10:47:45Z</time>
      </trkpt>
      <trkpt lat="47.63128" lon="-2.65952">
        <ele>-31.2</ele>
        <time>2021-08-05T10:47:47Z</time>
      </trkpt>
      <trkpt lat="47.63126" lon="-2.65946">
        <ele>-31.2</ele>
        <time>2021-08-05T10:47:48Z</time>
      </trkpt>
      <trkpt lat="47.63124" lon="-2.6594">
        <ele>-31.6</ele>
        <time>2021-08-05T10:47:49Z</time>
      </trkpt>
      <trkpt lat="47.63123" lon="-2.65934">
        <ele>-31.6</ele>
        <time>2021-08-05T10:47:50Z</time>
      </trkpt>
      <trkpt lat="47.63119" lon="-2.65921">
        <ele>-32.4</ele>
        <time>2021-08-05T10:47:52Z</time>
      </trkpt>
      <trkpt lat="47.63117" lon="-2.65915">
        <ele>-32.6</ele>
        <time>2021-08-05T10:47:53Z</time>
      </trkpt>
      <trkpt lat="47.63113" lon="-2.65903">
        <ele>-32.8</ele>
        <time>2021-08-05T10:47:55Z</time>
      </trkpt>
      <trkpt lat="47.63111" lon="-2.65897">
        <ele>-33</ele>
        <time>2021-08-05T10:47:56Z</time>
      </trkpt>
      <trkpt lat="47.6311" lon="-2.65891">
        <ele>-33</ele>
        <time>2021-08-05T10:47:57Z</time>
      </trkpt>
      <trkpt lat="47.63108" lon="-2.65885">
        <ele>-33.4</ele>
        <time>2021-08-05T10:47:58Z</time>
      </trkpt>
      <trkpt lat="47.63104" lon="-2.65874">
        <ele>-33.4</ele>
        <time>2021-08-05T10:48:00Z</time>
      </trkpt>
      <trkpt lat="47.63098" lon="-2.65862">
        <ele>-33.8</ele>
        <time>2021-08-05T10:48:02Z</time>
      </trkpt>
      <trkpt lat="47.63096" lon="-2.65856">
        <ele>-33.8</ele>
        <time>2021-08-05T10:48:03Z</time>
      </trkpt>
      <trkpt lat="47.63091" lon="-2.65844">
        <ele>-34</ele>
        <time>2021-08-05T10:48:05Z</time>
      </trkpt>
      <trkpt lat="47.63086" lon="-2.65833">
        <ele>-34.4</ele>
        <time>2021-08-05T10:48:07Z</time>
      </trkpt>
      <trkpt lat="47.63084" lon="-2.65828">
        <ele>-34.4</ele>
        <time>2021-08-05T10:48:08Z</time>
      </trkpt>
      <trkpt lat="47.6308" lon="-2.65819">
        <ele>-34.6</ele>
        <time>2021-08-05T10:48:10Z</time>
      </trkpt>
      <trkpt lat="47.63076" lon="-2.65812">
        <ele>-34.6</ele>
        <time>2021-08-05T10:48:12Z</time>
      </trkpt>
      <trkpt lat="47.63074" lon="-2.65809">
        <ele>-34.8</ele>
        <time>2021-08-05T10:48:13Z</time>
      </trkpt>
      <trkpt lat="47.63071" lon="-2.65803">
        <ele>-35</ele>
        <time>2021-08-05T10:48:15Z</time>
      </trkpt>
      <trkpt lat="47.63069" lon="-2.658">
        <ele>-35.2</ele>
        <time>2021-08-05T10:48:16Z</time>
      </trkpt>
      <trkpt lat="47.63067" lon="-2.65798">
        <ele>-35.4</ele>
        <time>2021-08-05T10:48:17Z</time>
      </trkpt>
      <trkpt lat="47.63065" lon="-2.65796">
        <ele>-35.4</ele>
        <time>2021-08-05T10:48:18Z</time>
      </trkpt>
      <trkpt lat="47.63062" lon="-2.65791">
        <ele>-35.8</ele>
        <time>2021-08-05T10:48:20Z</time>
      </trkpt>
      <trkpt lat="47.63061" lon="-2.65789">
        <ele>-36</ele>
        <time>2021-08-05T10:48:21Z</time>
      </trkpt>
      <trkpt lat="47.63059" lon="-2.65785">
        <ele>-36.4</ele>
        <time>2021-08-05T10:48:23Z</time>
      </trkpt>
      <trkpt lat="47.63058" lon="-2.65783">
        <ele>-36.4</ele>
        <time>2021-08-05T10:48:24Z</time>
      </trkpt>
      <trkpt lat="47.63058" lon="-2.65782">
        <ele>-36.6</ele>
        <time>2021-08-05T10:48:25Z</time>
      </trkpt>
      <trkpt lat="47.63057" lon="-2.65781">
        <ele>-36.6</ele>
        <time>2021-08-05T10:48:26Z</time>
      </trkpt>
      <trkpt lat="47.63057" lon="-2.6578">
        <ele>-36.8</ele>
        <time>2021-08-05T10:48:27Z</time>
      </trkpt>
      <trkpt lat="47.63057" lon="-2.6578">
        <ele>-36.8</ele>
        <time>2021-08-05T10:48:29Z</time>
      </trkpt>
      <trkpt lat="47.63057" lon="-2.6578">
        <ele>-37</ele>
        <time>2021-08-05T10:48:30Z</time>
      </trkpt>
      <trkpt lat="47.63057" lon="-2.6578">
        <ele>-37</ele>
        <time>2021-08-05T10:48:31Z</time>
      </trkpt>
      <trkpt lat="47.63051" lon="-2.65773">
        <ele>-51.4</ele>
        <time>2021-08-05T10:50:07Z</time>
      </trkpt>
      <trkpt lat="47.6305" lon="-2.65771">
        <ele>-52</ele>
        <time>2021-08-05T10:50:08Z</time>
      </trkpt>
      <trkpt lat="47.63047" lon="-2.65766">
        <ele>-52.4</ele>
        <time>2021-08-05T10:50:10Z</time>
      </trkpt>
      <trkpt lat="47.63046" lon="-2.65763">
        <ele>-52.8</ele>
        <time>2021-08-05T10:50:11Z</time>
      </trkpt>
      <trkpt lat="47.63043" lon="-2.65758">
        <ele>-53.2</ele>
        <time>2021-08-05T10:50:13Z</time>
      </trkpt>
      <trkpt lat="47.6304" lon="-2.65752">
        <ele>-53.6</ele>
        <time>2021-08-05T10:50:15Z</time>
      </trkpt>
      <trkpt lat="47.63038" lon="-2.65748">
        <ele>-54</ele>
        <time>2021-08-05T10:50:16Z</time>
      </trkpt>
      <trkpt lat="47.63036" lon="-2.65745">
        <ele>-54</ele>
        <time>2021-08-05T10:50:17Z</time>
      </trkpt>
      <trkpt lat="47.63034" lon="-2.65742">
        <ele>-54.2</ele>
        <time>2021-08-05T10:50:18Z</time>
      </trkpt>
      <trkpt lat="47.6303" lon="-2.65735">
        <ele>-54.4</ele>
        <time>2021-08-05T10:50:20Z</time>
      </trkpt>
      <trkpt lat="47.63028" lon="-2.65731">
        <ele>-54.6</ele>
        <time>2021-08-05T10:50:21Z</time>
      </trkpt>
      <trkpt lat="47.63024" lon="-2.65724">
        <ele>-55</ele>
        <time>2021-08-05T10:50:23Z</time>
      </trkpt>
      <trkpt lat="47.63022" lon="-2.65721">
        <ele>-55.2</ele>
        <time>2021-08-05T10:50:24Z</time>
      </trkpt>
      <trkpt lat="47.6302" lon="-2.65717">
        <ele>-55.4</ele>
        <time>2021-08-05T10:50:25Z</time>
      </trkpt>
      <trkpt lat="47.63017" lon="-2.65714">
        <ele>-55.6</ele>
        <time>2021-08-05T10:50:26Z</time>
      </trkpt>
      <trkpt lat="47.63013" lon="-2.65706">
        <ele>-55.6</ele>
        <time>2021-08-05T10:50:28Z</time>
      </trkpt>
      <trkpt lat="47.63011" lon="-2.65703">
        <ele>-55.8</ele>
        <time>2021-08-05T10:50:29Z</time>
      </trkpt>
      <trkpt lat="47.63007" lon="-2.65695">
        <ele>-56</ele>
        <time>2021-08-05T10:50:31Z</time>
      </trkpt>
      <trkpt lat="47.63003" lon="-2.65688">
        <ele>-56</ele>
        <time>2021-08-05T10:50:33Z</time>
      </trkpt>
      <trkpt lat="47.63" lon="-2.65685">
        <ele>-56.4</ele>
        <time>2021-08-05T10:50:34Z</time>
      </trkpt>
      <trkpt lat="47.62996" lon="-2.65678">
        <ele>-56.6</ele>
        <time>2021-08-05T10:50:36Z</time>
      </trkpt>
      <trkpt lat="47.62991" lon="-2.65671">
        <ele>-56.6</ele>
        <time>2021-08-05T10:50:38Z</time>
      </trkpt>
      <trkpt lat="47.62989" lon="-2.65667">
        <ele>-56.6</ele>
        <time>2021-08-05T10:50:39Z</time>
      </trkpt>
      <trkpt lat="47.62985" lon="-2.65661">
        <ele>-56.6</ele>
        <time>2021-08-05T10:50:41Z</time>
      </trkpt>
      <trkpt lat="47.62983" lon="-2.65657">
        <ele>-56.6</ele>
        <time>2021-08-05T10:50:42Z</time>
      </trkpt>
      <trkpt lat="47.62978" lon="-2.65651">
        <ele>-56.6</ele>
        <time>2021-08-05T10:50:44Z</time>
      </trkpt>
      <trkpt lat="47.62973" lon="-2.65645">
        <ele>-56.6</ele>
        <time>2021-08-05T10:50:46Z</time>
      </trkpt>
      <trkpt lat="47.62971" lon="-2.65643">
        <ele>-56.6</ele>
        <time>2021-08-05T10:50:47Z</time>
      </trkpt>
      <trkpt lat="47.62966" lon="-2.65637">
        <ele>-56.8</ele>
        <time>2021-08-05T10:50:49Z</time>
      </trkpt>
      <trkpt lat="47.62962" lon="-2.6563">
        <ele>-56.8</ele>
        <time>2021-08-05T10:50:51Z</time>
      </trkpt>
      <trkpt lat="47.6296" lon="-2.65627">
        <ele>-56.8</ele>
        <time>2021-08-05T10:50:52Z</time>
      </trkpt>
      <trkpt lat="47.62956" lon="-2.6562">
        <ele>-57</ele>
        <time>2021-08-05T10:50:54Z</time>
      </trkpt>
      <trkpt lat="47.62952" lon="-2.65613">
        <ele>-56.6</ele>
        <time>2021-08-05T10:50:56Z</time>
      </trkpt>
      <trkpt lat="47.6295" lon="-2.6561">
        <ele>-56.6</ele>
        <time>2021-08-05T10:50:57Z</time>
      </trkpt>
      <trkpt lat="47.62946" lon="-2.65603">
        <ele>-56.6</ele>
        <time>2021-08-05T10:50:59Z</time>
      </trkpt>
      <trkpt lat="47.62943" lon="-2.656">
        <ele>-56.6</ele>
        <time>2021-08-05T10:51:00Z</time>
      </trkpt>
      <trkpt lat="47.62938" lon="-2.65592">
        <ele>-47.4</ele>
        <time>2021-08-05T10:51:02Z</time>
      </trkpt>
      <trkpt lat="47.62936" lon="-2.65589">
        <ele>-26.6</ele>
        <time>2021-08-05T10:51:03Z</time>
      </trkpt>
      <trkpt lat="47.62934" lon="-2.65585">
        <ele>-9.4</ele>
        <time>2021-08-05T10:51:04Z</time>
      </trkpt>
      <trkpt lat="47.62932" lon="-2.65581">
        <ele>2</ele>
        <time>2021-08-05T10:51:05Z</time>
      </trkpt>
      <trkpt lat="47.6293" lon="-2.65578">
        <ele>9.2</ele>
        <time>2021-08-05T10:51:06Z</time>
      </trkpt>
      <trkpt lat="47.62927" lon="-2.65574">
        <ele>13.2</ele>
        <time>2021-08-05T10:51:07Z</time>
      </trkpt>
      <trkpt lat="47.62925" lon="-2.65571">
        <ele>15.2</ele>
        <time>2021-08-05T10:51:08Z</time>
      </trkpt>
      <trkpt lat="47.62923" lon="-2.65568">
        <ele>16.4</ele>
        <time>2021-08-05T10:51:09Z</time>
      </trkpt>
      <trkpt lat="47.6292" lon="-2.65564">
        <ele>16.8</ele>
        <time>2021-08-05T10:51:10Z</time>
      </trkpt>
      <trkpt lat="47.62918" lon="-2.6556">
        <ele>17.2</ele>
        <time>2021-08-05T10:51:11Z</time>
      </trkpt>
      <trkpt lat="47.62916" lon="-2.65556">
        <ele>17.4</ele>
        <time>2021-08-05T10:51:12Z</time>
      </trkpt>
      <trkpt lat="47.62912" lon="-2.65549">
        <ele>17.8</ele>
        <time>2021-08-05T10:51:14Z</time>
      </trkpt>
      <trkpt lat="47.62907" lon="-2.65542">
        <ele>18.2</ele>
        <time>2021-08-05T10:51:16Z</time>
      </trkpt>
      <trkpt lat="47.62905" lon="-2.65539">
        <ele>18.4</ele>
        <time>2021-08-05T10:51:17Z</time>
      </trkpt>
      <trkpt lat="47.62901" lon="-2.65533">
        <ele>18.4</ele>
        <time>2021-08-05T10:51:19Z</time>
      </trkpt>
      <trkpt lat="47.62898" lon="-2.65527">
        <ele>18.6</ele>
        <time>2021-08-05T10:51:21Z</time>
      </trkpt>
      <trkpt lat="47.62896" lon="-2.65524">
        <ele>18.6</ele>
        <time>2021-08-05T10:51:22Z</time>
      </trkpt>
      <trkpt lat="47.62894" lon="-2.65523">
        <ele>18.6</ele>
        <time>2021-08-05T10:51:23Z</time>
      </trkpt>
      <trkpt lat="47.62892" lon="-2.65523">
        <ele>18.6</ele>
        <time>2021-08-05T10:51:24Z</time>
      </trkpt>
      <trkpt lat="47.62888" lon="-2.65523">
        <ele>18.6</ele>
        <time>2021-08-05T10:51:26Z</time>
      </trkpt>
      <trkpt lat="47.62885" lon="-2.65522">
        <ele>18.6</ele>
        <time>2021-08-05T10:51:27Z</time>
      </trkpt>
      <trkpt lat="47.62882" lon="-2.65521">
        <ele>18.6</ele>
        <time>2021-08-05T10:51:28Z</time>
      </trkpt>
      <trkpt lat="47.62879" lon="-2.6552">
        <ele>18.8</ele>
        <time>2021-08-05T10:51:29Z</time>
      </trkpt>
      <trkpt lat="47.62874" lon="-2.65519">
        <ele>18.8</ele>
        <time>2021-08-05T10:51:31Z</time>
      </trkpt>
      <trkpt lat="47.62868" lon="-2.65514">
        <ele>18.8</ele>
        <time>2021-08-05T10:51:33Z</time>
      </trkpt>
      <trkpt lat="47.62867" lon="-2.65509">
        <ele>18.8</ele>
        <time>2021-08-05T10:51:34Z</time>
      </trkpt>
      <trkpt lat="47.62863" lon="-2.65501">
        <ele>18.8</ele>
        <time>2021-08-05T10:51:36Z</time>
      </trkpt>
      <trkpt lat="47.62859" lon="-2.65494">
        <ele>19</ele>
        <time>2021-08-05T10:51:38Z</time>
      </trkpt>
      <trkpt lat="47.62856" lon="-2.65493">
        <ele>19</ele>
        <time>2021-08-05T10:51:39Z</time>
      </trkpt>
      <trkpt lat="47.62854" lon="-2.65494">
        <ele>19</ele>
        <time>2021-08-05T10:51:40Z</time>
      </trkpt>
      <trkpt lat="47.6285" lon="-2.65494">
        <ele>19.4</ele>
        <time>2021-08-05T10:51:42Z</time>
      </trkpt>
      <trkpt lat="47.62849" lon="-2.65492">
        <ele>19.2</ele>
        <time>2021-08-05T10:51:43Z</time>
      </trkpt>
      <trkpt lat="47.62851" lon="-2.65488">
        <ele>19.2</ele>
        <time>2021-08-05T10:51:45Z</time>
      </trkpt>
      <trkpt lat="47.62851" lon="-2.65487">
        <ele>19.2</ele>
        <time>2021-08-05T10:51:46Z</time>
      </trkpt>
      <trkpt lat="47.62851" lon="-2.65487">
        <ele>19.4</ele>
        <time>2021-08-05T10:51:47Z</time>
      </trkpt>
      <trkpt lat="47.62851" lon="-2.65486">
        <ele>19.6</ele>
        <time>2021-08-05T10:51:48Z</time>
      </trkpt>
      <trkpt lat="47.62853" lon="-2.65486">
        <ele>20</ele>
        <time>2021-08-05T10:52:17Z</time>
      </trkpt>
      <trkpt lat="47.62854" lon="-2.65486">
        <ele>20</ele>
        <time>2021-08-05T10:52:18Z</time>
      </trkpt>
      <trkpt lat="47.62855" lon="-2.65486">
        <ele>20.2</ele>
        <time>2021-08-05T10:52:19Z</time>
      </trkpt>
      <trkpt lat="47.62858" lon="-2.65487">
        <ele>20.2</ele>
        <time>2021-08-05T10:52:21Z</time>
      </trkpt>
      <trkpt lat="47.62862" lon="-2.65488">
        <ele>20.2</ele>
        <time>2021-08-05T10:52:23Z</time>
      </trkpt>
      <trkpt lat="47.62864" lon="-2.65489">
        <ele>20.2</ele>
        <time>2021-08-05T10:52:24Z</time>
      </trkpt>
      <trkpt lat="47.62866" lon="-2.6549">
        <ele>20.2</ele>
        <time>2021-08-05T10:52:25Z</time>
      </trkpt>
      <trkpt lat="47.62869" lon="-2.6549">
        <ele>20.2</ele>
        <time>2021-08-05T10:52:26Z</time>
      </trkpt>
      <trkpt lat="47.62871" lon="-2.6549">
        <ele>20.2</ele>
        <time>2021-08-05T10:52:27Z</time>
      </trkpt>
      <trkpt lat="47.62877" lon="-2.65491">
        <ele>20.2</ele>
        <time>2021-08-05T10:52:29Z</time>
      </trkpt>
      <trkpt lat="47.6288" lon="-2.65492">
        <ele>20.2</ele>
        <time>2021-08-05T10:52:30Z</time>
      </trkpt>
      <trkpt lat="47.62883" lon="-2.65494">
        <ele>20.2</ele>
        <time>2021-08-05T10:52:31Z</time>
      </trkpt>
      <trkpt lat="47.62887" lon="-2.65502">
        <ele>20</ele>
        <time>2021-08-05T10:52:33Z</time>
      </trkpt>
      <trkpt lat="47.62889" lon="-2.65507">
        <ele>20</ele>
        <time>2021-08-05T10:52:34Z</time>
      </trkpt>
      <trkpt lat="47.6289" lon="-2.65512">
        <ele>20</ele>
        <time>2021-08-05T10:52:35Z</time>
      </trkpt>
      <trkpt lat="47.62894" lon="-2.65524">
        <ele>20</ele>
        <time>2021-08-05T10:52:37Z</time>
      </trkpt>
      <trkpt lat="47.62898" lon="-2.65535">
        <ele>19.8</ele>
        <time>2021-08-05T10:52:39Z</time>
      </trkpt>
      <trkpt lat="47.62901" lon="-2.6554">
        <ele>19.8</ele>
        <time>2021-08-05T10:52:40Z</time>
      </trkpt>
      <trkpt lat="47.62907" lon="-2.65551">
        <ele>19.6</ele>
        <time>2021-08-05T10:52:42Z</time>
      </trkpt>
      <trkpt lat="47.6291" lon="-2.65556">
        <ele>19.4</ele>
        <time>2021-08-05T10:52:43Z</time>
      </trkpt>
      <trkpt lat="47.62916" lon="-2.65566">
        <ele>19.2</ele>
        <time>2021-08-05T10:52:45Z</time>
      </trkpt>
      <trkpt lat="47.62919" lon="-2.65571">
        <ele>19.2</ele>
        <time>2021-08-05T10:52:46Z</time>
      </trkpt>
      <trkpt lat="47.62922" lon="-2.65576">
        <ele>19</ele>
        <time>2021-08-05T10:52:47Z</time>
      </trkpt>
      <trkpt lat="47.62925" lon="-2.65581">
        <ele>19</ele>
        <time>2021-08-05T10:52:48Z</time>
      </trkpt>
      <trkpt lat="47.62928" lon="-2.65586">
        <ele>19</ele>
        <time>2021-08-05T10:52:49Z</time>
      </trkpt>
      <trkpt lat="47.62931" lon="-2.65591">
        <ele>18.8</ele>
        <time>2021-08-05T10:52:50Z</time>
      </trkpt>
      <trkpt lat="47.62934" lon="-2.65596">
        <ele>18.8</ele>
        <time>2021-08-05T10:52:51Z</time>
      </trkpt>
      <trkpt lat="47.6294" lon="-2.65606">
        <ele>18.8</ele>
        <time>2021-08-05T10:52:53Z</time>
      </trkpt>
      <trkpt lat="47.62944" lon="-2.65611">
        <ele>18.8</ele>
        <time>2021-08-05T10:52:54Z</time>
      </trkpt>
      <trkpt lat="47.62951" lon="-2.65621">
        <ele>18.6</ele>
        <time>2021-08-05T10:52:56Z</time>
      </trkpt>
      <trkpt lat="47.62954" lon="-2.65627">
        <ele>18.6</ele>
        <time>2021-08-05T10:52:57Z</time>
      </trkpt>
      <trkpt lat="47.62958" lon="-2.65632">
        <ele>18.4</ele>
        <time>2021-08-05T10:52:58Z</time>
      </trkpt>
      <trkpt lat="47.62962" lon="-2.65637">
        <ele>18.4</ele>
        <time>2021-08-05T10:52:59Z</time>
      </trkpt>
      <trkpt lat="47.6297" lon="-2.65648">
        <ele>18.2</ele>
        <time>2021-08-05T10:53:01Z</time>
      </trkpt>
      <trkpt lat="47.62974" lon="-2.65654">
        <ele>18</ele>
        <time>2021-08-05T10:53:02Z</time>
      </trkpt>
      <trkpt lat="47.62981" lon="-2.65665">
        <ele>17.6</ele>
        <time>2021-08-05T10:53:04Z</time>
      </trkpt>
      <trkpt lat="47.62985" lon="-2.6567">
        <ele>17.6</ele>
        <time>2021-08-05T10:53:05Z</time>
      </trkpt>
      <trkpt lat="47.62989" lon="-2.65676">
        <ele>17.6</ele>
        <time>2021-08-05T10:53:06Z</time>
      </trkpt>
      <trkpt lat="47.62993" lon="-2.65682">
        <ele>17.6</ele>
        <time>2021-08-05T10:53:07Z</time>
      </trkpt>
      <trkpt lat="47.63001" lon="-2.65696">
        <ele>17.4</ele>
        <time>2021-08-05T10:53:09Z</time>
      </trkpt>
      <trkpt lat="47.63009" lon="-2.6571">
        <ele>17.4</ele>
        <time>2021-08-05T10:53:11Z</time>
      </trkpt>
      <trkpt lat="47.63013" lon="-2.65717">
        <ele>17.4</ele>
        <time>2021-08-05T10:53:12Z</time>
      </trkpt>
      <trkpt lat="47.63018" lon="-2.65724">
        <ele>17.2</ele>
        <time>2021-08-05T10:53:13Z</time>
      </trkpt>
      <trkpt lat="47.63026" lon="-2.65739">
        <ele>17</ele>
        <time>2021-08-05T10:53:15Z</time>
      </trkpt>
      <trkpt lat="47.63035" lon="-2.65754">
        <ele>16.8</ele>
        <time>2021-08-05T10:53:17Z</time>
      </trkpt>
      <trkpt lat="47.63043" lon="-2.65769">
        <ele>16.6</ele>
        <time>2021-08-05T10:53:19Z</time>
      </trkpt>
      <trkpt lat="47.63047" lon="-2.65777">
        <ele>16.2</ele>
        <time>2021-08-05T10:53:20Z</time>
      </trkpt>
      <trkpt lat="47.63051" lon="-2.65783">
        <ele>16.2</ele>
        <time>2021-08-05T10:53:21Z</time>
      </trkpt>
      <trkpt lat="47.63054" lon="-2.6579">
        <ele>16</ele>
        <time>2021-08-05T10:53:22Z</time>
      </trkpt>
      <trkpt lat="47.63057" lon="-2.65797">
        <ele>15.8</ele>
        <time>2021-08-05T10:53:23Z</time>
      </trkpt>
      <trkpt lat="47.63058" lon="-2.65804">
        <ele>15.6</ele>
        <time>2021-08-05T10:53:24Z</time>
      </trkpt>
      <trkpt lat="47.63054" lon="-2.65814">
        <ele>15.4</ele>
        <time>2021-08-05T10:53:26Z</time>
      </trkpt>
      <trkpt lat="47.6305" lon="-2.65818">
        <ele>15.2</ele>
        <time>2021-08-05T10:53:27Z</time>
      </trkpt>
      <trkpt lat="47.63046" lon="-2.65821">
        <ele>15</ele>
        <time>2021-08-05T10:53:28Z</time>
      </trkpt>
      <trkpt lat="47.63042" lon="-2.65824">
        <ele>14.8</ele>
        <time>2021-08-05T10:53:29Z</time>
      </trkpt>
      <trkpt lat="47.63037" lon="-2.65826">
        <ele>14.6</ele>
        <time>2021-08-05T10:53:30Z</time>
      </trkpt>
      <trkpt lat="47.63033" lon="-2.65829">
        <ele>14.4</ele>
        <time>2021-08-05T10:53:31Z</time>
      </trkpt>
      <trkpt lat="47.63028" lon="-2.65831">
        <ele>14</ele>
        <time>2021-08-05T10:53:32Z</time>
      </trkpt>
      <trkpt lat="47.63024" lon="-2.65835">
        <ele>13.8</ele>
        <time>2021-08-05T10:53:33Z</time>
      </trkpt>
      <trkpt lat="47.6302" lon="-2.65839">
        <ele>13.6</ele>
        <time>2021-08-05T10:53:34Z</time>
      </trkpt>
      <trkpt lat="47.63016" lon="-2.65843">
        <ele>13.4</ele>
        <time>2021-08-05T10:53:35Z</time>
      </trkpt>
      <trkpt lat="47.63012" lon="-2.65846">
        <ele>13.2</ele>
        <time>2021-08-05T10:53:36Z</time>
      </trkpt>
      <trkpt lat="47.63009" lon="-2.65849">
        <ele>13</ele>
        <time>2021-08-05T10:53:37Z</time>
      </trkpt>
      <trkpt lat="47.63" lon="-2.65854">
        <ele>12.8</ele>
        <time>2021-08-05T10:53:39Z</time>
      </trkpt>
      <trkpt lat="47.62996" lon="-2.65857">
        <ele>12.8</ele>
        <time>2021-08-05T10:53:40Z</time>
      </trkpt>
      <trkpt lat="47.62992" lon="-2.6586">
        <ele>12.6</ele>
        <time>2021-08-05T10:53:41Z</time>
      </trkpt>
      <trkpt lat="47.62989" lon="-2.65863">
        <ele>12.6</ele>
        <time>2021-08-05T10:53:42Z</time>
      </trkpt>
      <trkpt lat="47.62985" lon="-2.65867">
        <ele>12.4</ele>
        <time>2021-08-05T10:53:43Z</time>
      </trkpt>
      <trkpt lat="47.62978" lon="-2.65874">
        <ele>12.4</ele>
        <time>2021-08-05T10:53:45Z</time>
      </trkpt>
      <trkpt lat="47.62974" lon="-2.65877">
        <ele>12.4</ele>
        <time>2021-08-05T10:53:46Z</time>
      </trkpt>
      <trkpt lat="47.6297" lon="-2.65879">
        <ele>12.4</ele>
        <time>2021-08-05T10:53:47Z</time>
      </trkpt>
      <trkpt lat="47.62962" lon="-2.65885">
        <ele>12.2</ele>
        <time>2021-08-05T10:53:49Z</time>
      </trkpt>
      <trkpt lat="47.62954" lon="-2.65891">
        <ele>12.2</ele>
        <time>2021-08-05T10:53:51Z</time>
      </trkpt>
      <trkpt lat="47.62947" lon="-2.65897">
        <ele>12.2</ele>
        <time>2021-08-05T10:53:53Z</time>
      </trkpt>
      <trkpt lat="47.62943" lon="-2.65899">
        <ele>12.2</ele>
        <time>2021-08-05T10:53:54Z</time>
      </trkpt>
      <trkpt lat="47.62939" lon="-2.65901">
        <ele>12.2</ele>
        <time>2021-08-05T10:53:55Z</time>
      </trkpt>
      <trkpt lat="47.62932" lon="-2.65906">
        <ele>12</ele>
        <time>2021-08-05T10:53:57Z</time>
      </trkpt>
      <trkpt lat="47.62928" lon="-2.65909">
        <ele>12</ele>
        <time>2021-08-05T10:53:58Z</time>
      </trkpt>
      <trkpt lat="47.6292" lon="-2.65914">
        <ele>12</ele>
        <time>2021-08-05T10:54:00Z</time>
      </trkpt>
      <trkpt lat="47.62916" lon="-2.65917">
        <ele>12</ele>
        <time>2021-08-05T10:54:01Z</time>
      </trkpt>
      <trkpt lat="47.62912" lon="-2.6592">
        <ele>12</ele>
        <time>2021-08-05T10:54:02Z</time>
      </trkpt>
      <trkpt lat="47.62904" lon="-2.65927">
        <ele>12</ele>
        <time>2021-08-05T10:54:04Z</time>
      </trkpt>
      <trkpt lat="47.62895" lon="-2.65933">
        <ele>11.8</ele>
        <time>2021-08-05T10:54:06Z</time>
      </trkpt>
      <trkpt lat="47.62887" lon="-2.65939">
        <ele>11.6</ele>
        <time>2021-08-05T10:54:08Z</time>
      </trkpt>
      <trkpt lat="47.62882" lon="-2.65943">
        <ele>11.6</ele>
        <time>2021-08-05T10:54:09Z</time>
      </trkpt>
      <trkpt lat="47.62878" lon="-2.65946">
        <ele>11.4</ele>
        <time>2021-08-05T10:54:10Z</time>
      </trkpt>
      <trkpt lat="47.62869" lon="-2.65953">
        <ele>11.2</ele>
        <time>2021-08-05T10:54:12Z</time>
      </trkpt>
      <trkpt lat="47.62865" lon="-2.65956">
        <ele>11.2</ele>
        <time>2021-08-05T10:54:13Z</time>
      </trkpt>
      <trkpt lat="47.62861" lon="-2.65959">
        <ele>11</ele>
        <time>2021-08-05T10:54:14Z</time>
      </trkpt>
      <trkpt lat="47.62853" lon="-2.65965">
        <ele>11</ele>
        <time>2021-08-05T10:54:16Z</time>
      </trkpt>
      <trkpt lat="47.62845" lon="-2.65971">
        <ele>11.2</ele>
        <time>2021-08-05T10:54:18Z</time>
      </trkpt>
      <trkpt lat="47.62836" lon="-2.65977">
        <ele>11.4</ele>
        <time>2021-08-05T10:54:20Z</time>
      </trkpt>
      <trkpt lat="47.62832" lon="-2.65981">
        <ele>11.4</ele>
        <time>2021-08-05T10:54:21Z</time>
      </trkpt>
      <trkpt lat="47.62829" lon="-2.65986">
        <ele>11.6</ele>
        <time>2021-08-05T10:54:22Z</time>
      </trkpt>
      <trkpt lat="47.62826" lon="-2.6599">
        <ele>11.6</ele>
        <time>2021-08-05T10:54:23Z</time>
      </trkpt>
      <trkpt lat="47.6282" lon="-2.65996">
        <ele>11.6</ele>
        <time>2021-08-05T10:54:25Z</time>
      </trkpt>
      <trkpt lat="47.62814" lon="-2.65999">
        <ele>11.6</ele>
        <time>2021-08-05T10:54:27Z</time>
      </trkpt>
      <trkpt lat="47.62812" lon="-2.66001">
        <ele>11.6</ele>
        <time>2021-08-05T10:54:28Z</time>
      </trkpt>
      <trkpt lat="47.62809" lon="-2.66003">
        <ele>11.8</ele>
        <time>2021-08-05T10:54:30Z</time>
      </trkpt>
      <trkpt lat="47.62808" lon="-2.66004">
        <ele>11.8</ele>
        <time>2021-08-05T10:54:31Z</time>
      </trkpt>
      <trkpt lat="47.62806" lon="-2.66005">
        <ele>12</ele>
        <time>2021-08-05T10:54:33Z</time>
      </trkpt>
      <trkpt lat="47.62805" lon="-2.66006">
        <ele>12</ele>
        <time>2021-08-05T10:54:34Z</time>
      </trkpt>
      <trkpt lat="47.62805" lon="-2.66008">
        <ele>12</ele>
        <time>2021-08-05T10:54:36Z</time>
      </trkpt>
      <trkpt lat="47.62803" lon="-2.66009">
        <ele>12</ele>
        <time>2021-08-05T10:54:38Z</time>
      </trkpt>
      <trkpt lat="47.62802" lon="-2.66009">
        <ele>12.2</ele>
        <time>2021-08-05T10:54:39Z</time>
      </trkpt>
      <trkpt lat="47.628" lon="-2.66009">
        <ele>12.6</ele>
        <time>2021-08-05T10:54:40Z</time>
      </trkpt>
      <trkpt lat="47.62798" lon="-2.66009">
        <ele>12.8</ele>
        <time>2021-08-05T10:54:41Z</time>
      </trkpt>
      <trkpt lat="47.62796" lon="-2.66008">
        <ele>12.8</ele>
        <time>2021-08-05T10:54:42Z</time>
      </trkpt>
      <trkpt lat="47.62794" lon="-2.66007">
        <ele>12.8</ele>
        <time>2021-08-05T10:54:43Z</time>
      </trkpt>
      <trkpt lat="47.62791" lon="-2.66007">
        <ele>13</ele>
        <time>2021-08-05T10:54:44Z</time>
      </trkpt>
      <trkpt lat="47.62788" lon="-2.66007">
        <ele>13</ele>
        <time>2021-08-05T10:54:45Z</time>
      </trkpt>
      <trkpt lat="47.62786" lon="-2.66006">
        <ele>13</ele>
        <time>2021-08-05T10:54:46Z</time>
      </trkpt>
      <trkpt lat="47.62783" lon="-2.66004">
        <ele>13</ele>
        <time>2021-08-05T10:54:47Z</time>
      </trkpt>
      <trkpt lat="47.6278" lon="-2.66003">
        <ele>13</ele>
        <time>2021-08-05T10:54:48Z</time>
      </trkpt>
      <trkpt lat="47.62777" lon="-2.66002">
        <ele>12.8</ele>
        <time>2021-08-05T10:54:49Z</time>
      </trkpt>
      <trkpt lat="47.62773" lon="-2.66">
        <ele>12.8</ele>
        <time>2021-08-05T10:54:50Z</time>
      </trkpt>
      <trkpt lat="47.62767" lon="-2.65998">
        <ele>12.6</ele>
        <time>2021-08-05T10:54:52Z</time>
      </trkpt>
      <trkpt lat="47.62763" lon="-2.65997">
        <ele>12.6</ele>
        <time>2021-08-05T10:54:53Z</time>
      </trkpt>
      <trkpt lat="47.6276" lon="-2.65996">
        <ele>12.6</ele>
        <time>2021-08-05T10:54:54Z</time>
      </trkpt>
      <trkpt lat="47.62757" lon="-2.65995">
        <ele>12.4</ele>
        <time>2021-08-05T10:54:55Z</time>
      </trkpt>
      <trkpt lat="47.62755" lon="-2.65994">
        <ele>12.2</ele>
        <time>2021-08-05T10:54:56Z</time>
      </trkpt>
      <trkpt lat="47.62753" lon="-2.65993">
        <ele>12.2</ele>
        <time>2021-08-05T10:54:57Z</time>
      </trkpt>
      <trkpt lat="47.6275" lon="-2.65992">
        <ele>12</ele>
        <time>2021-08-05T10:54:58Z</time>
      </trkpt>
      <trkpt lat="47.62748" lon="-2.65991">
        <ele>11.8</ele>
        <time>2021-08-05T10:54:59Z</time>
      </trkpt>
      <trkpt lat="47.62745" lon="-2.65991">
        <ele>11.8</ele>
        <time>2021-08-05T10:55:00Z</time>
      </trkpt>
      <trkpt lat="47.6274" lon="-2.65989">
        <ele>11.8</ele>
        <time>2021-08-05T10:55:02Z</time>
      </trkpt>
      <trkpt lat="47.62737" lon="-2.65988">
        <ele>11.6</ele>
        <time>2021-08-05T10:55:03Z</time>
      </trkpt>
      <trkpt lat="47.62734" lon="-2.65987">
        <ele>11.8</ele>
        <time>2021-08-05T10:55:04Z</time>
      </trkpt>
      <trkpt lat="47.62731" lon="-2.65987">
        <ele>11.8</ele>
        <time>2021-08-05T10:55:05Z</time>
      </trkpt>
      <trkpt lat="47.62728" lon="-2.65986">
        <ele>11.8</ele>
        <time>2021-08-05T10:55:06Z</time>
      </trkpt>
      <trkpt lat="47.62724" lon="-2.65984">
        <ele>11.8</ele>
        <time>2021-08-05T10:55:07Z</time>
      </trkpt>
      <trkpt lat="47.6272" lon="-2.65983">
        <ele>11.8</ele>
        <time>2021-08-05T10:55:08Z</time>
      </trkpt>
      <trkpt lat="47.62717" lon="-2.65982">
        <ele>11.8</ele>
        <time>2021-08-05T10:55:09Z</time>
      </trkpt>
      <trkpt lat="47.62714" lon="-2.65981">
        <ele>11.8</ele>
        <time>2021-08-05T10:55:10Z</time>
      </trkpt>
      <trkpt lat="47.62711" lon="-2.65979">
        <ele>11.8</ele>
        <time>2021-08-05T10:55:11Z</time>
      </trkpt>
      <trkpt lat="47.62703" lon="-2.65977">
        <ele>11.6</ele>
        <time>2021-08-05T10:55:13Z</time>
      </trkpt>
      <trkpt lat="47.62699" lon="-2.65976">
        <ele>11.6</ele>
        <time>2021-08-05T10:55:14Z</time>
      </trkpt>
      <trkpt lat="47.62696" lon="-2.65975">
        <ele>11.6</ele>
        <time>2021-08-05T10:55:15Z</time>
      </trkpt>
      <trkpt lat="47.62692" lon="-2.65975">
        <ele>11.4</ele>
        <time>2021-08-05T10:55:16Z</time>
      </trkpt>
      <trkpt lat="47.62688" lon="-2.65974">
        <ele>11.4</ele>
        <time>2021-08-05T10:55:17Z</time>
      </trkpt>
      <trkpt lat="47.62684" lon="-2.65975">
        <ele>11.4</ele>
        <time>2021-08-05T10:55:18Z</time>
      </trkpt>
      <trkpt lat="47.62681" lon="-2.65976">
        <ele>11.4</ele>
        <time>2021-08-05T10:55:19Z</time>
      </trkpt>
      <trkpt lat="47.62677" lon="-2.65978">
        <ele>11.2</ele>
        <time>2021-08-05T10:55:20Z</time>
      </trkpt>
      <trkpt lat="47.62672" lon="-2.65981">
        <ele>11.2</ele>
        <time>2021-08-05T10:55:22Z</time>
      </trkpt>
      <trkpt lat="47.62669" lon="-2.65984">
        <ele>11.2</ele>
        <time>2021-08-05T10:55:23Z</time>
      </trkpt>
      <trkpt lat="47.62667" lon="-2.65986">
        <ele>11.2</ele>
        <time>2021-08-05T10:55:24Z</time>
      </trkpt>
      <trkpt lat="47.62664" lon="-2.65988">
        <ele>11.2</ele>
        <time>2021-08-05T10:55:25Z</time>
      </trkpt>
      <trkpt lat="47.6266" lon="-2.6599">
        <ele>11.2</ele>
        <time>2021-08-05T10:55:26Z</time>
      </trkpt>
      <trkpt lat="47.62656" lon="-2.65992">
        <ele>11.2</ele>
        <time>2021-08-05T10:55:27Z</time>
      </trkpt>
      <trkpt lat="47.62653" lon="-2.65993">
        <ele>11.2</ele>
        <time>2021-08-05T10:55:28Z</time>
      </trkpt>
      <trkpt lat="47.62649" lon="-2.65996">
        <ele>11</ele>
        <time>2021-08-05T10:55:29Z</time>
      </trkpt>
      <trkpt lat="47.62646" lon="-2.65998">
        <ele>11</ele>
        <time>2021-08-05T10:55:30Z</time>
      </trkpt>
      <trkpt lat="47.6264" lon="-2.66002">
        <ele>11</ele>
        <time>2021-08-05T10:55:32Z</time>
      </trkpt>
      <trkpt lat="47.62636" lon="-2.66004">
        <ele>11</ele>
        <time>2021-08-05T10:55:33Z</time>
      </trkpt>
      <trkpt lat="47.62633" lon="-2.66006">
        <ele>11.2</ele>
        <time>2021-08-05T10:55:34Z</time>
      </trkpt>
      <trkpt lat="47.62628" lon="-2.66007">
        <ele>11.2</ele>
        <time>2021-08-05T10:55:35Z</time>
      </trkpt>
      <trkpt lat="47.62625" lon="-2.66009">
        <ele>11.2</ele>
        <time>2021-08-05T10:55:36Z</time>
      </trkpt>
      <trkpt lat="47.62621" lon="-2.66011">
        <ele>11.2</ele>
        <time>2021-08-05T10:55:37Z</time>
      </trkpt>
      <trkpt lat="47.62617" lon="-2.66012">
        <ele>11.2</ele>
        <time>2021-08-05T10:55:38Z</time>
      </trkpt>
      <trkpt lat="47.62612" lon="-2.66013">
        <ele>11.2</ele>
        <time>2021-08-05T10:55:39Z</time>
      </trkpt>
      <trkpt lat="47.62608" lon="-2.66014">
        <ele>11.2</ele>
        <time>2021-08-05T10:55:40Z</time>
      </trkpt>
      <trkpt lat="47.62603" lon="-2.66015">
        <ele>11.2</ele>
        <time>2021-08-05T10:55:41Z</time>
      </trkpt>
      <trkpt lat="47.62597" lon="-2.66017">
        <ele>11</ele>
        <time>2021-08-05T10:55:42Z</time>
      </trkpt>
      <trkpt lat="47.62592" lon="-2.66018">
        <ele>11</ele>
        <time>2021-08-05T10:55:43Z</time>
      </trkpt>
      <trkpt lat="47.62587" lon="-2.66019">
        <ele>11</ele>
        <time>2021-08-05T10:55:44Z</time>
      </trkpt>
      <trkpt lat="47.62581" lon="-2.66019">
        <ele>11</ele>
        <time>2021-08-05T10:55:45Z</time>
      </trkpt>
      <trkpt lat="47.62577" lon="-2.6602">
        <ele>11.2</ele>
        <time>2021-08-05T10:55:46Z</time>
      </trkpt>
      <trkpt lat="47.62572" lon="-2.6602">
        <ele>11.2</ele>
        <time>2021-08-05T10:55:47Z</time>
      </trkpt>
      <trkpt lat="47.62568" lon="-2.6602">
        <ele>11.2</ele>
        <time>2021-08-05T10:55:48Z</time>
      </trkpt>
      <trkpt lat="47.62564" lon="-2.66019">
        <ele>11</ele>
        <time>2021-08-05T10:55:49Z</time>
      </trkpt>
      <trkpt lat="47.6256" lon="-2.66018">
        <ele>11</ele>
        <time>2021-08-05T10:55:50Z</time>
      </trkpt>
      <trkpt lat="47.62552" lon="-2.66016">
        <ele>11</ele>
        <time>2021-08-05T10:55:52Z</time>
      </trkpt>
      <trkpt lat="47.62548" lon="-2.66014">
        <ele>11</ele>
        <time>2021-08-05T10:55:53Z</time>
      </trkpt>
      <trkpt lat="47.62545" lon="-2.66012">
        <ele>11</ele>
        <time>2021-08-05T10:55:54Z</time>
      </trkpt>
      <trkpt lat="47.62541" lon="-2.6601">
        <ele>11</ele>
        <time>2021-08-05T10:55:55Z</time>
      </trkpt>
      <trkpt lat="47.62537" lon="-2.66008">
        <ele>11</ele>
        <time>2021-08-05T10:55:56Z</time>
      </trkpt>
      <trkpt lat="47.62534" lon="-2.66006">
        <ele>11</ele>
        <time>2021-08-05T10:55:57Z</time>
      </trkpt>
      <trkpt lat="47.6253" lon="-2.66004">
        <ele>11</ele>
        <time>2021-08-05T10:55:58Z</time>
      </trkpt>
      <trkpt lat="47.62526" lon="-2.66003">
        <ele>11</ele>
        <time>2021-08-05T10:55:59Z</time>
      </trkpt>
      <trkpt lat="47.62523" lon="-2.66002">
        <ele>11</ele>
        <time>2021-08-05T10:56:00Z</time>
      </trkpt>
      <trkpt lat="47.62519" lon="-2.66002">
        <ele>11</ele>
        <time>2021-08-05T10:56:01Z</time>
      </trkpt>
      <trkpt lat="47.62516" lon="-2.66002">
        <ele>11.2</ele>
        <time>2021-08-05T10:56:02Z</time>
      </trkpt>
      <trkpt lat="47.62509" lon="-2.66002">
        <ele>11.2</ele>
        <time>2021-08-05T10:56:04Z</time>
      </trkpt>
      <trkpt lat="47.62507" lon="-2.66002">
        <ele>11.4</ele>
        <time>2021-08-05T10:56:05Z</time>
      </trkpt>
      <trkpt lat="47.62504" lon="-2.66002">
        <ele>11.4</ele>
        <time>2021-08-05T10:56:06Z</time>
      </trkpt>
      <trkpt lat="47.62503" lon="-2.66003">
        <ele>11.4</ele>
        <time>2021-08-05T10:56:07Z</time>
      </trkpt>
      <trkpt lat="47.62501" lon="-2.66004">
        <ele>11.4</ele>
        <time>2021-08-05T10:56:08Z</time>
      </trkpt>
      <trkpt lat="47.625" lon="-2.66006">
        <ele>11.6</ele>
        <time>2021-08-05T10:56:09Z</time>
      </trkpt>
      <trkpt lat="47.625" lon="-2.66007">
        <ele>11.6</ele>
        <time>2021-08-05T10:56:10Z</time>
      </trkpt>
      <trkpt lat="47.62499" lon="-2.66007">
        <ele>11.6</ele>
        <time>2021-08-05T10:56:11Z</time>
      </trkpt>
      <trkpt lat="47.62499" lon="-2.66008">
        <ele>11.6</ele>
        <time>2021-08-05T10:56:12Z</time>
      </trkpt>
      <trkpt lat="47.62498" lon="-2.66009">
        <ele>11.8</ele>
        <time>2021-08-05T10:56:13Z</time>
      </trkpt>
      <trkpt lat="47.62498" lon="-2.66009">
        <ele>12.2</ele>
        <time>2021-08-05T10:56:14Z</time>
      </trkpt>
      <trkpt lat="47.62496" lon="-2.66009">
        <ele>12.6</ele>
        <time>2021-08-05T10:57:11Z</time>
      </trkpt>
      <trkpt lat="47.62495" lon="-2.66008">
        <ele>12.6</ele>
        <time>2021-08-05T10:57:12Z</time>
      </trkpt>
      <trkpt lat="47.62495" lon="-2.66007">
        <ele>12.6</ele>
        <time>2021-08-05T10:57:13Z</time>
      </trkpt>
      <trkpt lat="47.62493" lon="-2.66007">
        <ele>12.6</ele>
        <time>2021-08-05T10:57:14Z</time>
      </trkpt>
      <trkpt lat="47.62492" lon="-2.66007">
        <ele>12.8</ele>
        <time>2021-08-05T10:57:15Z</time>
      </trkpt>
      <trkpt lat="47.6249" lon="-2.66007">
        <ele>12.8</ele>
        <time>2021-08-05T10:57:16Z</time>
      </trkpt>
      <trkpt lat="47.62489" lon="-2.66007">
        <ele>12.8</ele>
        <time>2021-08-05T10:57:17Z</time>
      </trkpt>
      <trkpt lat="47.62488" lon="-2.66007">
        <ele>12.8</ele>
        <time>2021-08-05T10:57:18Z</time>
      </trkpt>
      <trkpt lat="47.62487" lon="-2.66007">
        <ele>12.8</ele>
        <time>2021-08-05T10:57:19Z</time>
      </trkpt>
      <trkpt lat="47.62486" lon="-2.66006">
        <ele>12.8</ele>
        <time>2021-08-05T10:57:20Z</time>
      </trkpt>
      <trkpt lat="47.62487" lon="-2.66005">
        <ele>12.8</ele>
        <time>2021-08-05T10:57:22Z</time>
      </trkpt>
      <trkpt lat="47.62488" lon="-2.66005">
        <ele>12.8</ele>
        <time>2021-08-05T10:57:23Z</time>
      </trkpt>
      <trkpt lat="47.62489" lon="-2.66006">
        <ele>12.8</ele>
        <time>2021-08-05T10:57:24Z</time>
      </trkpt>
      <trkpt lat="47.6249" lon="-2.66006">
        <ele>13</ele>
        <time>2021-08-05T10:57:25Z</time>
      </trkpt>
      <trkpt lat="47.62491" lon="-2.66008">
        <ele>13</ele>
        <time>2021-08-05T10:57:26Z</time>
      </trkpt>
      <trkpt lat="47.62492" lon="-2.66009">
        <ele>13</ele>
        <time>2021-08-05T10:57:27Z</time>
      </trkpt>
      <trkpt lat="47.62493" lon="-2.66011">
        <ele>13</ele>
        <time>2021-08-05T10:57:28Z</time>
      </trkpt>
      <trkpt lat="47.62493" lon="-2.66013">
        <ele>13</ele>
        <time>2021-08-05T10:57:29Z</time>
      </trkpt>
      <trkpt lat="47.62493" lon="-2.66015">
        <ele>13</ele>
        <time>2021-08-05T10:57:30Z</time>
      </trkpt>
      <trkpt lat="47.62492" lon="-2.6602">
        <ele>13</ele>
        <time>2021-08-05T10:57:32Z</time>
      </trkpt>
      <trkpt lat="47.62492" lon="-2.66023">
        <ele>13</ele>
        <time>2021-08-05T10:57:33Z</time>
      </trkpt>
      <trkpt lat="47.62492" lon="-2.66025">
        <ele>13</ele>
        <time>2021-08-05T10:57:34Z</time>
      </trkpt>
      <trkpt lat="47.62492" lon="-2.66027">
        <ele>13.2</ele>
        <time>2021-08-05T10:57:35Z</time>
      </trkpt>
      <trkpt lat="47.62491" lon="-2.6603">
        <ele>13.4</ele>
        <time>2021-08-05T10:57:36Z</time>
      </trkpt>
      <trkpt lat="47.62491" lon="-2.66032">
        <ele>13.4</ele>
        <time>2021-08-05T10:57:37Z</time>
      </trkpt>
      <trkpt lat="47.62491" lon="-2.66034">
        <ele>13.6</ele>
        <time>2021-08-05T10:57:38Z</time>
      </trkpt>
      <trkpt lat="47.62491" lon="-2.66036">
        <ele>13.8</ele>
        <time>2021-08-05T10:57:39Z</time>
      </trkpt>
      <trkpt lat="47.6249" lon="-2.6604">
        <ele>14</ele>
        <time>2021-08-05T10:57:41Z</time>
      </trkpt>
      <trkpt lat="47.62489" lon="-2.66043">
        <ele>14</ele>
        <time>2021-08-05T10:57:42Z</time>
      </trkpt>
      <trkpt lat="47.62489" lon="-2.66045">
        <ele>14.2</ele>
        <time>2021-08-05T10:57:43Z</time>
      </trkpt>
      <trkpt lat="47.62488" lon="-2.66047">
        <ele>14.4</ele>
        <time>2021-08-05T10:57:44Z</time>
      </trkpt>
      <trkpt lat="47.62487" lon="-2.66049">
        <ele>14.4</ele>
        <time>2021-08-05T10:57:45Z</time>
      </trkpt>
      <trkpt lat="47.62486" lon="-2.66051">
        <ele>14.4</ele>
        <time>2021-08-05T10:57:46Z</time>
      </trkpt>
      <trkpt lat="47.62485" lon="-2.66053">
        <ele>14.6</ele>
        <time>2021-08-05T10:57:47Z</time>
      </trkpt>
      <trkpt lat="47.62484" lon="-2.66054">
        <ele>15</ele>
        <time>2021-08-05T10:57:48Z</time>
      </trkpt>
      <trkpt lat="47.62483" lon="-2.66056">
        <ele>15.2</ele>
        <time>2021-08-05T10:57:49Z</time>
      </trkpt>
      <trkpt lat="47.62482" lon="-2.66058">
        <ele>15.4</ele>
        <time>2021-08-05T10:57:50Z</time>
      </trkpt>
      <trkpt lat="47.6248" lon="-2.6606">
        <ele>16</ele>
        <time>2021-08-05T10:57:52Z</time>
      </trkpt>
      <trkpt lat="47.62479" lon="-2.66061">
        <ele>16</ele>
        <time>2021-08-05T10:57:53Z</time>
      </trkpt>
      <trkpt lat="47.62477" lon="-2.66062">
        <ele>16</ele>
        <time>2021-08-05T10:57:54Z</time>
      </trkpt>
      <trkpt lat="47.62476" lon="-2.66063">
        <ele>16.2</ele>
        <time>2021-08-05T10:57:55Z</time>
      </trkpt>
      <trkpt lat="47.62474" lon="-2.66064">
        <ele>16.2</ele>
        <time>2021-08-05T10:57:56Z</time>
      </trkpt>
      <trkpt lat="47.62472" lon="-2.66064">
        <ele>16.4</ele>
        <time>2021-08-05T10:57:57Z</time>
      </trkpt>
      <trkpt lat="47.62471" lon="-2.66065">
        <ele>16.6</ele>
        <time>2021-08-05T10:57:58Z</time>
      </trkpt>
      <trkpt lat="47.62469" lon="-2.66065">
        <ele>16.8</ele>
        <time>2021-08-05T10:57:59Z</time>
      </trkpt>
      <trkpt lat="47.62467" lon="-2.66065">
        <ele>17</ele>
        <time>2021-08-05T10:58:00Z</time>
      </trkpt>
      <trkpt lat="47.62464" lon="-2.66065">
        <ele>17.2</ele>
        <time>2021-08-05T10:58:02Z</time>
      </trkpt>
      <trkpt lat="47.62461" lon="-2.66065">
        <ele>17.4</ele>
        <time>2021-08-05T10:58:03Z</time>
      </trkpt>
      <trkpt lat="47.62459" lon="-2.66065">
        <ele>17.4</ele>
        <time>2021-08-05T10:58:04Z</time>
      </trkpt>
      <trkpt lat="47.62457" lon="-2.66065">
        <ele>17.4</ele>
        <time>2021-08-05T10:58:05Z</time>
      </trkpt>
      <trkpt lat="47.62455" lon="-2.66066">
        <ele>17.6</ele>
        <time>2021-08-05T10:58:06Z</time>
      </trkpt>
      <trkpt lat="47.62452" lon="-2.66066">
        <ele>17.6</ele>
        <time>2021-08-05T10:58:07Z</time>
      </trkpt>
      <trkpt lat="47.6245" lon="-2.66065">
        <ele>17.8</ele>
        <time>2021-08-05T10:58:08Z</time>
      </trkpt>
      <trkpt lat="47.62447" lon="-2.66065">
        <ele>17.8</ele>
        <time>2021-08-05T10:58:09Z</time>
      </trkpt>
      <trkpt lat="47.62445" lon="-2.66064">
        <ele>18</ele>
        <time>2021-08-05T10:58:10Z</time>
      </trkpt>
      <trkpt lat="47.62441" lon="-2.66063">
        <ele>18</ele>
        <time>2021-08-05T10:58:12Z</time>
      </trkpt>
      <trkpt lat="47.62438" lon="-2.66062">
        <ele>18.2</ele>
        <time>2021-08-05T10:58:13Z</time>
      </trkpt>
      <trkpt lat="47.62435" lon="-2.66062">
        <ele>18.2</ele>
        <time>2021-08-05T10:58:14Z</time>
      </trkpt>
      <trkpt lat="47.62433" lon="-2.66062">
        <ele>18.2</ele>
        <time>2021-08-05T10:58:15Z</time>
      </trkpt>
      <trkpt lat="47.6243" lon="-2.66062">
        <ele>18.4</ele>
        <time>2021-08-05T10:58:16Z</time>
      </trkpt>
      <trkpt lat="47.62427" lon="-2.66062">
        <ele>18.4</ele>
        <time>2021-08-05T10:58:17Z</time>
      </trkpt>
      <trkpt lat="47.62424" lon="-2.66062">
        <ele>18.4</ele>
        <time>2021-08-05T10:58:18Z</time>
      </trkpt>
      <trkpt lat="47.62421" lon="-2.66063">
        <ele>18.4</ele>
        <time>2021-08-05T10:58:19Z</time>
      </trkpt>
      <trkpt lat="47.62419" lon="-2.66063">
        <ele>18.4</ele>
        <time>2021-08-05T10:58:20Z</time>
      </trkpt>
      <trkpt lat="47.62417" lon="-2.66064">
        <ele>18.4</ele>
        <time>2021-08-05T10:58:21Z</time>
      </trkpt>
      <trkpt lat="47.62416" lon="-2.66065">
        <ele>18.4</ele>
        <time>2021-08-05T10:58:22Z</time>
      </trkpt>
      <trkpt lat="47.62414" lon="-2.66065">
        <ele>18.4</ele>
        <time>2021-08-05T10:58:23Z</time>
      </trkpt>
      <trkpt lat="47.62412" lon="-2.66066">
        <ele>18.4</ele>
        <time>2021-08-05T10:58:24Z</time>
      </trkpt>
      <trkpt lat="47.6241" lon="-2.66067">
        <ele>18.6</ele>
        <time>2021-08-05T10:58:25Z</time>
      </trkpt>
      <trkpt lat="47.62409" lon="-2.66068">
        <ele>18.6</ele>
        <time>2021-08-05T10:58:26Z</time>
      </trkpt>
      <trkpt lat="47.62407" lon="-2.66069">
        <ele>18.6</ele>
        <time>2021-08-05T10:58:27Z</time>
      </trkpt>
      <trkpt lat="47.62405" lon="-2.66071">
        <ele>18.6</ele>
        <time>2021-08-05T10:58:28Z</time>
      </trkpt>
      <trkpt lat="47.62404" lon="-2.66072">
        <ele>18.8</ele>
        <time>2021-08-05T10:58:29Z</time>
      </trkpt>
      <trkpt lat="47.62403" lon="-2.66072">
        <ele>19</ele>
        <time>2021-08-05T10:58:30Z</time>
      </trkpt>
      <trkpt lat="47.62403" lon="-2.66074">
        <ele>19.2</ele>
        <time>2021-08-05T10:58:31Z</time>
      </trkpt>
      <trkpt lat="47.62402" lon="-2.66076">
        <ele>19.2</ele>
        <time>2021-08-05T10:58:32Z</time>
      </trkpt>
      <trkpt lat="47.62401" lon="-2.66078">
        <ele>19.2</ele>
        <time>2021-08-05T10:58:33Z</time>
      </trkpt>
      <trkpt lat="47.62399" lon="-2.6608">
        <ele>19.2</ele>
        <time>2021-08-05T10:58:34Z</time>
      </trkpt>
      <trkpt lat="47.62398" lon="-2.66082">
        <ele>19.2</ele>
        <time>2021-08-05T10:58:35Z</time>
      </trkpt>
      <trkpt lat="47.62396" lon="-2.66085">
        <ele>19.6</ele>
        <time>2021-08-05T10:58:36Z</time>
      </trkpt>
      <trkpt lat="47.62394" lon="-2.66087">
        <ele>19.6</ele>
        <time>2021-08-05T10:58:37Z</time>
      </trkpt>
      <trkpt lat="47.62392" lon="-2.6609">
        <ele>19.8</ele>
        <time>2021-08-05T10:58:38Z</time>
      </trkpt>
      <trkpt lat="47.62391" lon="-2.66093">
        <ele>20.2</ele>
        <time>2021-08-05T10:58:39Z</time>
      </trkpt>
      <trkpt lat="47.62389" lon="-2.66097">
        <ele>20.2</ele>
        <time>2021-08-05T10:58:40Z</time>
      </trkpt>
      <trkpt lat="47.62387" lon="-2.661">
        <ele>20.4</ele>
        <time>2021-08-05T10:58:41Z</time>
      </trkpt>
      <trkpt lat="47.62385" lon="-2.66103">
        <ele>20.4</ele>
        <time>2021-08-05T10:58:42Z</time>
      </trkpt>
      <trkpt lat="47.62383" lon="-2.6611">
        <ele>20.6</ele>
        <time>2021-08-05T10:58:44Z</time>
      </trkpt>
      <trkpt lat="47.62382" lon="-2.66114">
        <ele>20.6</ele>
        <time>2021-08-05T10:58:45Z</time>
      </trkpt>
      <trkpt lat="47.6238" lon="-2.66118">
        <ele>20.6</ele>
        <time>2021-08-05T10:58:46Z</time>
      </trkpt>
      <trkpt lat="47.62379" lon="-2.66121">
        <ele>20.6</ele>
        <time>2021-08-05T10:58:47Z</time>
      </trkpt>
      <trkpt lat="47.62378" lon="-2.66125">
        <ele>20.8</ele>
        <time>2021-08-05T10:58:48Z</time>
      </trkpt>
      <trkpt lat="47.62377" lon="-2.66128">
        <ele>20.8</ele>
        <time>2021-08-05T10:58:49Z</time>
      </trkpt>
      <trkpt lat="47.62375" lon="-2.66132">
        <ele>20.8</ele>
        <time>2021-08-05T10:58:50Z</time>
      </trkpt>
      <trkpt lat="47.62374" lon="-2.66136">
        <ele>21</ele>
        <time>2021-08-05T10:58:51Z</time>
      </trkpt>
      <trkpt lat="47.62373" lon="-2.6614">
        <ele>21</ele>
        <time>2021-08-05T10:58:52Z</time>
      </trkpt>
      <trkpt lat="47.62371" lon="-2.66144">
        <ele>21.2</ele>
        <time>2021-08-05T10:58:53Z</time>
      </trkpt>
      <trkpt lat="47.6237" lon="-2.66149">
        <ele>21.4</ele>
        <time>2021-08-05T10:58:54Z</time>
      </trkpt>
      <trkpt lat="47.62369" lon="-2.66153">
        <ele>21.6</ele>
        <time>2021-08-05T10:58:55Z</time>
      </trkpt>
      <trkpt lat="47.62368" lon="-2.66157">
        <ele>21.8</ele>
        <time>2021-08-05T10:58:56Z</time>
      </trkpt>
      <trkpt lat="47.62367" lon="-2.66161">
        <ele>21.8</ele>
        <time>2021-08-05T10:58:57Z</time>
      </trkpt>
      <trkpt lat="47.62367" lon="-2.66165">
        <ele>21.8</ele>
        <time>2021-08-05T10:58:58Z</time>
      </trkpt>
      <trkpt lat="47.62366" lon="-2.66169">
        <ele>21.8</ele>
        <time>2021-08-05T10:58:59Z</time>
      </trkpt>
      <trkpt lat="47.62365" lon="-2.66173">
        <ele>21.8</ele>
        <time>2021-08-05T10:59:00Z</time>
      </trkpt>
      <trkpt lat="47.62364" lon="-2.66178">
        <ele>21.8</ele>
        <time>2021-08-05T10:59:01Z</time>
      </trkpt>
      <trkpt lat="47.62364" lon="-2.66183">
        <ele>21.8</ele>
        <time>2021-08-05T10:59:02Z</time>
      </trkpt>
      <trkpt lat="47.62362" lon="-2.66194">
        <ele>22</ele>
        <time>2021-08-05T10:59:04Z</time>
      </trkpt>
      <trkpt lat="47.62361" lon="-2.662">
        <ele>22</ele>
        <time>2021-08-05T10:59:05Z</time>
      </trkpt>
      <trkpt lat="47.6236" lon="-2.66206">
        <ele>22</ele>
        <time>2021-08-05T10:59:06Z</time>
      </trkpt>
      <trkpt lat="47.6236" lon="-2.66211">
        <ele>22</ele>
        <time>2021-08-05T10:59:07Z</time>
      </trkpt>
      <trkpt lat="47.62359" lon="-2.66216">
        <ele>22</ele>
        <time>2021-08-05T10:59:08Z</time>
      </trkpt>
      <trkpt lat="47.62357" lon="-2.6622">
        <ele>22</ele>
        <time>2021-08-05T10:59:09Z</time>
      </trkpt>
      <trkpt lat="47.62354" lon="-2.66224">
        <ele>22</ele>
        <time>2021-08-05T10:59:10Z</time>
      </trkpt>
      <trkpt lat="47.62351" lon="-2.66228">
        <ele>22</ele>
        <time>2021-08-05T10:59:11Z</time>
      </trkpt>
      <trkpt lat="47.62348" lon="-2.66231">
        <ele>22</ele>
        <time>2021-08-05T10:59:12Z</time>
      </trkpt>
      <trkpt lat="47.62345" lon="-2.66235">
        <ele>22.2</ele>
        <time>2021-08-05T10:59:13Z</time>
      </trkpt>
      <trkpt lat="47.62339" lon="-2.66242">
        <ele>22.4</ele>
        <time>2021-08-05T10:59:15Z</time>
      </trkpt>
      <trkpt lat="47.62337" lon="-2.66245">
        <ele>22.4</ele>
        <time>2021-08-05T10:59:16Z</time>
      </trkpt>
      <trkpt lat="47.62334" lon="-2.66249">
        <ele>22.6</ele>
        <time>2021-08-05T10:59:17Z</time>
      </trkpt>
      <trkpt lat="47.62333" lon="-2.66252">
        <ele>22.6</ele>
        <time>2021-08-05T10:59:18Z</time>
      </trkpt>
      <trkpt lat="47.62331" lon="-2.66256">
        <ele>22.8</ele>
        <time>2021-08-05T10:59:19Z</time>
      </trkpt>
      <trkpt lat="47.62329" lon="-2.6626">
        <ele>22.8</ele>
        <time>2021-08-05T10:59:20Z</time>
      </trkpt>
      <trkpt lat="47.62327" lon="-2.66264">
        <ele>22.8</ele>
        <time>2021-08-05T10:59:21Z</time>
      </trkpt>
      <trkpt lat="47.62325" lon="-2.66268">
        <ele>23</ele>
        <time>2021-08-05T10:59:22Z</time>
      </trkpt>
      <trkpt lat="47.62322" lon="-2.66275">
        <ele>23</ele>
        <time>2021-08-05T10:59:24Z</time>
      </trkpt>
      <trkpt lat="47.62321" lon="-2.66279">
        <ele>23</ele>
        <time>2021-08-05T10:59:25Z</time>
      </trkpt>
      <trkpt lat="47.62321" lon="-2.66282">
        <ele>23.4</ele>
        <time>2021-08-05T10:59:26Z</time>
      </trkpt>
      <trkpt lat="47.6232" lon="-2.66285">
        <ele>23.8</ele>
        <time>2021-08-05T10:59:27Z</time>
      </trkpt>
      <trkpt lat="47.62319" lon="-2.6629">
        <ele>24.2</ele>
        <time>2021-08-05T10:59:28Z</time>
      </trkpt>
      <trkpt lat="47.62318" lon="-2.66293">
        <ele>24.6</ele>
        <time>2021-08-05T10:59:29Z</time>
      </trkpt>
      <trkpt lat="47.62317" lon="-2.66297">
        <ele>24.8</ele>
        <time>2021-08-05T10:59:30Z</time>
      </trkpt>
      <trkpt lat="47.62316" lon="-2.66301">
        <ele>24.8</ele>
        <time>2021-08-05T10:59:31Z</time>
      </trkpt>
      <trkpt lat="47.62313" lon="-2.66309">
        <ele>25</ele>
        <time>2021-08-05T10:59:33Z</time>
      </trkpt>
      <trkpt lat="47.62312" lon="-2.66312">
        <ele>25.2</ele>
        <time>2021-08-05T10:59:34Z</time>
      </trkpt>
      <trkpt lat="47.6231" lon="-2.66316">
        <ele>25.4</ele>
        <time>2021-08-05T10:59:35Z</time>
      </trkpt>
      <trkpt lat="47.62308" lon="-2.66319">
        <ele>25.6</ele>
        <time>2021-08-05T10:59:36Z</time>
      </trkpt>
      <trkpt lat="47.62307" lon="-2.66323">
        <ele>25.8</ele>
        <time>2021-08-05T10:59:37Z</time>
      </trkpt>
      <trkpt lat="47.62305" lon="-2.66326">
        <ele>26</ele>
        <time>2021-08-05T10:59:38Z</time>
      </trkpt>
      <trkpt lat="47.62303" lon="-2.6633">
        <ele>26</ele>
        <time>2021-08-05T10:59:39Z</time>
      </trkpt>
      <trkpt lat="47.62302" lon="-2.66333">
        <ele>26</ele>
        <time>2021-08-05T10:59:40Z</time>
      </trkpt>
      <trkpt lat="47.623" lon="-2.66337">
        <ele>26</ele>
        <time>2021-08-05T10:59:41Z</time>
      </trkpt>
      <trkpt lat="47.62298" lon="-2.6634">
        <ele>26</ele>
        <time>2021-08-05T10:59:42Z</time>
      </trkpt>
      <trkpt lat="47.62296" lon="-2.66347">
        <ele>26.2</ele>
        <time>2021-08-05T10:59:44Z</time>
      </trkpt>
      <trkpt lat="47.62295" lon="-2.6635">
        <ele>26.2</ele>
        <time>2021-08-05T10:59:45Z</time>
      </trkpt>
      <trkpt lat="47.62294" lon="-2.66354">
        <ele>26.2</ele>
        <time>2021-08-05T10:59:46Z</time>
      </trkpt>
      <trkpt lat="47.62293" lon="-2.66358">
        <ele>26.2</ele>
        <time>2021-08-05T10:59:47Z</time>
      </trkpt>
      <trkpt lat="47.62292" lon="-2.66362">
        <ele>26.2</ele>
        <time>2021-08-05T10:59:48Z</time>
      </trkpt>
      <trkpt lat="47.62291" lon="-2.66366">
        <ele>26.4</ele>
        <time>2021-08-05T10:59:49Z</time>
      </trkpt>
      <trkpt lat="47.62291" lon="-2.6637">
        <ele>26.4</ele>
        <time>2021-08-05T10:59:50Z</time>
      </trkpt>
      <trkpt lat="47.62291" lon="-2.66374">
        <ele>26.4</ele>
        <time>2021-08-05T10:59:51Z</time>
      </trkpt>
      <trkpt lat="47.6229" lon="-2.66378">
        <ele>26.4</ele>
        <time>2021-08-05T10:59:52Z</time>
      </trkpt>
      <trkpt lat="47.62289" lon="-2.66386">
        <ele>26.6</ele>
        <time>2021-08-05T10:59:54Z</time>
      </trkpt>
      <trkpt lat="47.62288" lon="-2.66391">
        <ele>26.8</ele>
        <time>2021-08-05T10:59:55Z</time>
      </trkpt>
      <trkpt lat="47.62287" lon="-2.66395">
        <ele>26.8</ele>
        <time>2021-08-05T10:59:56Z</time>
      </trkpt>
      <trkpt lat="47.62287" lon="-2.66399">
        <ele>27</ele>
        <time>2021-08-05T10:59:57Z</time>
      </trkpt>
      <trkpt lat="47.62286" lon="-2.66403">
        <ele>27</ele>
        <time>2021-08-05T10:59:58Z</time>
      </trkpt>
      <trkpt lat="47.62286" lon="-2.66407">
        <ele>27</ele>
        <time>2021-08-05T10:59:59Z</time>
      </trkpt>
      <trkpt lat="47.62285" lon="-2.66412">
        <ele>27</ele>
        <time>2021-08-05T11:00:00Z</time>
      </trkpt>
      <trkpt lat="47.62284" lon="-2.66415">
        <ele>27</ele>
        <time>2021-08-05T11:00:01Z</time>
      </trkpt>
      <trkpt lat="47.62282" lon="-2.66419">
        <ele>27</ele>
        <time>2021-08-05T11:00:02Z</time>
      </trkpt>
      <trkpt lat="47.62278" lon="-2.66426">
        <ele>27</ele>
        <time>2021-08-05T11:00:04Z</time>
      </trkpt>
      <trkpt lat="47.62275" lon="-2.66428">
        <ele>27</ele>
        <time>2021-08-05T11:00:05Z</time>
      </trkpt>
      <trkpt lat="47.62272" lon="-2.66429">
        <ele>27</ele>
        <time>2021-08-05T11:00:06Z</time>
      </trkpt>
      <trkpt lat="47.62268" lon="-2.66429">
        <ele>27</ele>
        <time>2021-08-05T11:00:07Z</time>
      </trkpt>
      <trkpt lat="47.62264" lon="-2.66428">
        <ele>27</ele>
        <time>2021-08-05T11:00:08Z</time>
      </trkpt>
      <trkpt lat="47.6226" lon="-2.66428">
        <ele>26.8</ele>
        <time>2021-08-05T11:00:09Z</time>
      </trkpt>
      <trkpt lat="47.62255" lon="-2.66428">
        <ele>26.8</ele>
        <time>2021-08-05T11:00:10Z</time>
      </trkpt>
      <trkpt lat="47.62251" lon="-2.66429">
        <ele>26.6</ele>
        <time>2021-08-05T11:00:11Z</time>
      </trkpt>
      <trkpt lat="47.62247" lon="-2.66429">
        <ele>26.2</ele>
        <time>2021-08-05T11:00:12Z</time>
      </trkpt>
      <trkpt lat="47.62241" lon="-2.6643">
        <ele>25.8</ele>
        <time>2021-08-05T11:00:13Z</time>
      </trkpt>
      <trkpt lat="47.62227" lon="-2.66431">
        <ele>25.2</ele>
        <time>2021-08-05T11:00:15Z</time>
      </trkpt>
      <trkpt lat="47.6222" lon="-2.66432">
        <ele>24.6</ele>
        <time>2021-08-05T11:00:16Z</time>
      </trkpt>
      <trkpt lat="47.62214" lon="-2.66433">
        <ele>24.4</ele>
        <time>2021-08-05T11:00:17Z</time>
      </trkpt>
      <trkpt lat="47.62207" lon="-2.66433">
        <ele>24</ele>
        <time>2021-08-05T11:00:18Z</time>
      </trkpt>
      <trkpt lat="47.62201" lon="-2.66434">
        <ele>23.6</ele>
        <time>2021-08-05T11:00:19Z</time>
      </trkpt>
      <trkpt lat="47.62195" lon="-2.66434">
        <ele>23.2</ele>
        <time>2021-08-05T11:00:20Z</time>
      </trkpt>
      <trkpt lat="47.62189" lon="-2.66434">
        <ele>22.8</ele>
        <time>2021-08-05T11:00:21Z</time>
      </trkpt>
      <trkpt lat="47.62185" lon="-2.66434">
        <ele>22.2</ele>
        <time>2021-08-05T11:00:22Z</time>
      </trkpt>
      <trkpt lat="47.6218" lon="-2.66434">
        <ele>21.8</ele>
        <time>2021-08-05T11:00:23Z</time>
      </trkpt>
      <trkpt lat="47.62176" lon="-2.66434">
        <ele>21.2</ele>
        <time>2021-08-05T11:00:24Z</time>
      </trkpt>
      <trkpt lat="47.62172" lon="-2.66434">
        <ele>20.6</ele>
        <time>2021-08-05T11:00:25Z</time>
      </trkpt>
      <trkpt lat="47.62169" lon="-2.66434">
        <ele>19.8</ele>
        <time>2021-08-05T11:00:26Z</time>
      </trkpt>
      <trkpt lat="47.62165" lon="-2.66434">
        <ele>19.4</ele>
        <time>2021-08-05T11:00:27Z</time>
      </trkpt>
      <trkpt lat="47.62162" lon="-2.66434">
        <ele>19.2</ele>
        <time>2021-08-05T11:00:28Z</time>
      </trkpt>
      <trkpt lat="47.6216" lon="-2.66435">
        <ele>18.8</ele>
        <time>2021-08-05T11:00:29Z</time>
      </trkpt>
      <trkpt lat="47.62157" lon="-2.66437">
        <ele>18.6</ele>
        <time>2021-08-05T11:00:30Z</time>
      </trkpt>
      <trkpt lat="47.62156" lon="-2.6644">
        <ele>18.6</ele>
        <time>2021-08-05T11:00:31Z</time>
      </trkpt>
      <trkpt lat="47.62156" lon="-2.66443">
        <ele>18.4</ele>
        <time>2021-08-05T11:00:32Z</time>
      </trkpt>
      <trkpt lat="47.62155" lon="-2.66447">
        <ele>18</ele>
        <time>2021-08-05T11:00:33Z</time>
      </trkpt>
      <trkpt lat="47.62155" lon="-2.66451">
        <ele>17.8</ele>
        <time>2021-08-05T11:00:34Z</time>
      </trkpt>
      <trkpt lat="47.62154" lon="-2.66455">
        <ele>17.6</ele>
        <time>2021-08-05T11:00:35Z</time>
      </trkpt>
      <trkpt lat="47.62153" lon="-2.66459">
        <ele>17.4</ele>
        <time>2021-08-05T11:00:36Z</time>
      </trkpt>
      <trkpt lat="47.62153" lon="-2.66463">
        <ele>17.2</ele>
        <time>2021-08-05T11:00:37Z</time>
      </trkpt>
      <trkpt lat="47.62153" lon="-2.66467">
        <ele>17.2</ele>
        <time>2021-08-05T11:00:38Z</time>
      </trkpt>
      <trkpt lat="47.62151" lon="-2.66475">
        <ele>17.2</ele>
        <time>2021-08-05T11:00:40Z</time>
      </trkpt>
      <trkpt lat="47.62151" lon="-2.66479">
        <ele>17.2</ele>
        <time>2021-08-05T11:00:41Z</time>
      </trkpt>
      <trkpt lat="47.6215" lon="-2.66482">
        <ele>17.2</ele>
        <time>2021-08-05T11:00:42Z</time>
      </trkpt>
      <trkpt lat="47.6215" lon="-2.66486">
        <ele>17.2</ele>
        <time>2021-08-05T11:00:43Z</time>
      </trkpt>
      <trkpt lat="47.62149" lon="-2.6649">
        <ele>17.2</ele>
        <time>2021-08-05T11:00:44Z</time>
      </trkpt>
      <trkpt lat="47.62148" lon="-2.66498">
        <ele>17.2</ele>
        <time>2021-08-05T11:00:46Z</time>
      </trkpt>
      <trkpt lat="47.62147" lon="-2.66502">
        <ele>17.4</ele>
        <time>2021-08-05T11:00:47Z</time>
      </trkpt>
      <trkpt lat="47.62146" lon="-2.6651">
        <ele>17.8</ele>
        <time>2021-08-05T11:00:49Z</time>
      </trkpt>
      <trkpt lat="47.62146" lon="-2.66514">
        <ele>18.2</ele>
        <time>2021-08-05T11:00:50Z</time>
      </trkpt>
      <trkpt lat="47.62145" lon="-2.66519">
        <ele>18.4</ele>
        <time>2021-08-05T11:00:51Z</time>
      </trkpt>
      <trkpt lat="47.62145" lon="-2.66523">
        <ele>18.6</ele>
        <time>2021-08-05T11:00:52Z</time>
      </trkpt>
      <trkpt lat="47.62144" lon="-2.66527">
        <ele>18.8</ele>
        <time>2021-08-05T11:00:53Z</time>
      </trkpt>
      <trkpt lat="47.62143" lon="-2.66536">
        <ele>19</ele>
        <time>2021-08-05T11:00:55Z</time>
      </trkpt>
      <trkpt lat="47.62143" lon="-2.6654">
        <ele>19.4</ele>
        <time>2021-08-05T11:00:56Z</time>
      </trkpt>
      <trkpt lat="47.62142" lon="-2.66549">
        <ele>19.6</ele>
        <time>2021-08-05T11:00:58Z</time>
      </trkpt>
      <trkpt lat="47.62141" lon="-2.66553">
        <ele>20</ele>
        <time>2021-08-05T11:00:59Z</time>
      </trkpt>
      <trkpt lat="47.62141" lon="-2.66561">
        <ele>20.4</ele>
        <time>2021-08-05T11:01:01Z</time>
      </trkpt>
      <trkpt lat="47.6214" lon="-2.66565">
        <ele>20.6</ele>
        <time>2021-08-05T11:01:02Z</time>
      </trkpt>
      <trkpt lat="47.62139" lon="-2.66573">
        <ele>21.2</ele>
        <time>2021-08-05T11:01:04Z</time>
      </trkpt>
      <trkpt lat="47.62139" lon="-2.66578">
        <ele>21.2</ele>
        <time>2021-08-05T11:01:05Z</time>
      </trkpt>
      <trkpt lat="47.62138" lon="-2.66586">
        <ele>21.4</ele>
        <time>2021-08-05T11:01:07Z</time>
      </trkpt>
      <trkpt lat="47.62137" lon="-2.6659">
        <ele>21.6</ele>
        <time>2021-08-05T11:01:08Z</time>
      </trkpt>
      <trkpt lat="47.62137" lon="-2.66594">
        <ele>21.6</ele>
        <time>2021-08-05T11:01:09Z</time>
      </trkpt>
      <trkpt lat="47.62137" lon="-2.66598">
        <ele>21.6</ele>
        <time>2021-08-05T11:01:10Z</time>
      </trkpt>
      <trkpt lat="47.62137" lon="-2.66602">
        <ele>21.8</ele>
        <time>2021-08-05T11:01:11Z</time>
      </trkpt>
      <trkpt lat="47.62136" lon="-2.6661">
        <ele>21.8</ele>
        <time>2021-08-05T11:01:13Z</time>
      </trkpt>
      <trkpt lat="47.62136" lon="-2.66613">
        <ele>22</ele>
        <time>2021-08-05T11:01:14Z</time>
      </trkpt>
      <trkpt lat="47.62135" lon="-2.6662">
        <ele>22.2</ele>
        <time>2021-08-05T11:01:16Z</time>
      </trkpt>
      <trkpt lat="47.62135" lon="-2.66624">
        <ele>22.2</ele>
        <time>2021-08-05T11:01:17Z</time>
      </trkpt>
      <trkpt lat="47.62135" lon="-2.66629">
        <ele>22.4</ele>
        <time>2021-08-05T11:01:18Z</time>
      </trkpt>
      <trkpt lat="47.62135" lon="-2.66632">
        <ele>22.4</ele>
        <time>2021-08-05T11:01:19Z</time>
      </trkpt>
      <trkpt lat="47.62134" lon="-2.66636">
        <ele>22.4</ele>
        <time>2021-08-05T11:01:20Z</time>
      </trkpt>
      <trkpt lat="47.62134" lon="-2.66643">
        <ele>22.6</ele>
        <time>2021-08-05T11:01:22Z</time>
      </trkpt>
      <trkpt lat="47.62134" lon="-2.66647">
        <ele>22.6</ele>
        <time>2021-08-05T11:01:23Z</time>
      </trkpt>
      <trkpt lat="47.62133" lon="-2.66651">
        <ele>22.6</ele>
        <time>2021-08-05T11:01:24Z</time>
      </trkpt>
      <trkpt lat="47.62132" lon="-2.66654">
        <ele>22.6</ele>
        <time>2021-08-05T11:01:25Z</time>
      </trkpt>
      <trkpt lat="47.62132" lon="-2.66658">
        <ele>22.8</ele>
        <time>2021-08-05T11:01:26Z</time>
      </trkpt>
      <trkpt lat="47.62131" lon="-2.66666">
        <ele>22.8</ele>
        <time>2021-08-05T11:01:28Z</time>
      </trkpt>
      <trkpt lat="47.6213" lon="-2.6667">
        <ele>22.8</ele>
        <time>2021-08-05T11:01:29Z</time>
      </trkpt>
      <trkpt lat="47.62129" lon="-2.66674">
        <ele>22.8</ele>
        <time>2021-08-05T11:01:30Z</time>
      </trkpt>
      <trkpt lat="47.62128" lon="-2.66679">
        <ele>23</ele>
        <time>2021-08-05T11:01:31Z</time>
      </trkpt>
      <trkpt lat="47.62128" lon="-2.66684">
        <ele>23</ele>
        <time>2021-08-05T11:01:32Z</time>
      </trkpt>
      <trkpt lat="47.62125" lon="-2.66694">
        <ele>23</ele>
        <time>2021-08-05T11:01:34Z</time>
      </trkpt>
      <trkpt lat="47.62124" lon="-2.66699">
        <ele>23</ele>
        <time>2021-08-05T11:01:35Z</time>
      </trkpt>
      <trkpt lat="47.62122" lon="-2.66705">
        <ele>22.8</ele>
        <time>2021-08-05T11:01:36Z</time>
      </trkpt>
      <trkpt lat="47.6212" lon="-2.66711">
        <ele>22.8</ele>
        <time>2021-08-05T11:01:37Z</time>
      </trkpt>
      <trkpt lat="47.62115" lon="-2.66723">
        <ele>22.6</ele>
        <time>2021-08-05T11:01:39Z</time>
      </trkpt>
      <trkpt lat="47.62113" lon="-2.66729">
        <ele>22.6</ele>
        <time>2021-08-05T11:01:40Z</time>
      </trkpt>
      <trkpt lat="47.62108" lon="-2.66742">
        <ele>22.6</ele>
        <time>2021-08-05T11:01:42Z</time>
      </trkpt>
      <trkpt lat="47.62105" lon="-2.66748">
        <ele>22.6</ele>
        <time>2021-08-05T11:01:43Z</time>
      </trkpt>
      <trkpt lat="47.621" lon="-2.66761">
        <ele>22.2</ele>
        <time>2021-08-05T11:01:45Z</time>
      </trkpt>
      <trkpt lat="47.62097" lon="-2.66767">
        <ele>22</ele>
        <time>2021-08-05T11:01:46Z</time>
      </trkpt>
      <trkpt lat="47.62092" lon="-2.66779">
        <ele>21.2</ele>
        <time>2021-08-05T11:01:48Z</time>
      </trkpt>
      <trkpt lat="47.62089" lon="-2.66785">
        <ele>21</ele>
        <time>2021-08-05T11:01:49Z</time>
      </trkpt>
      <trkpt lat="47.62087" lon="-2.66791">
        <ele>20.6</ele>
        <time>2021-08-05T11:01:50Z</time>
      </trkpt>
      <trkpt lat="47.62085" lon="-2.66797">
        <ele>20.4</ele>
        <time>2021-08-05T11:01:51Z</time>
      </trkpt>
      <trkpt lat="47.62084" lon="-2.66803">
        <ele>20.2</ele>
        <time>2021-08-05T11:01:52Z</time>
      </trkpt>
      <trkpt lat="47.62083" lon="-2.66809">
        <ele>19.8</ele>
        <time>2021-08-05T11:01:53Z</time>
      </trkpt>
      <trkpt lat="47.62082" lon="-2.66816">
        <ele>19.8</ele>
        <time>2021-08-05T11:01:54Z</time>
      </trkpt>
      <trkpt lat="47.6208" lon="-2.66822">
        <ele>19.6</ele>
        <time>2021-08-05T11:01:55Z</time>
      </trkpt>
      <trkpt lat="47.62079" lon="-2.66828">
        <ele>19.6</ele>
        <time>2021-08-05T11:01:56Z</time>
      </trkpt>
      <trkpt lat="47.62077" lon="-2.66835">
        <ele>19.6</ele>
        <time>2021-08-05T11:01:57Z</time>
      </trkpt>
      <trkpt lat="47.62076" lon="-2.66841">
        <ele>19.6</ele>
        <time>2021-08-05T11:01:58Z</time>
      </trkpt>
      <trkpt lat="47.62075" lon="-2.66847">
        <ele>19.6</ele>
        <time>2021-08-05T11:01:59Z</time>
      </trkpt>
      <trkpt lat="47.62074" lon="-2.66853">
        <ele>19.6</ele>
        <time>2021-08-05T11:02:00Z</time>
      </trkpt>
      <trkpt lat="47.62073" lon="-2.6686">
        <ele>19.6</ele>
        <time>2021-08-05T11:02:01Z</time>
      </trkpt>
      <trkpt lat="47.62073" lon="-2.66866">
        <ele>19.8</ele>
        <time>2021-08-05T11:02:02Z</time>
      </trkpt>
      <trkpt lat="47.62072" lon="-2.66872">
        <ele>19.8</ele>
        <time>2021-08-05T11:02:03Z</time>
      </trkpt>
      <trkpt lat="47.6207" lon="-2.66884">
        <ele>20</ele>
        <time>2021-08-05T11:02:05Z</time>
      </trkpt>
      <trkpt lat="47.6207" lon="-2.6689">
        <ele>20</ele>
        <time>2021-08-05T11:02:06Z</time>
      </trkpt>
      <trkpt lat="47.62069" lon="-2.66902">
        <ele>20</ele>
        <time>2021-08-05T11:02:08Z</time>
      </trkpt>
      <trkpt lat="47.62069" lon="-2.66909">
        <ele>20</ele>
        <time>2021-08-05T11:02:09Z</time>
      </trkpt>
      <trkpt lat="47.62068" lon="-2.66922">
        <ele>20</ele>
        <time>2021-08-05T11:02:11Z</time>
      </trkpt>
      <trkpt lat="47.62067" lon="-2.66929">
        <ele>20</ele>
        <time>2021-08-05T11:02:12Z</time>
      </trkpt>
      <trkpt lat="47.62066" lon="-2.66945">
        <ele>19.8</ele>
        <time>2021-08-05T11:02:14Z</time>
      </trkpt>
      <trkpt lat="47.62066" lon="-2.66953">
        <ele>19.6</ele>
        <time>2021-08-05T11:02:15Z</time>
      </trkpt>
      <trkpt lat="47.62064" lon="-2.6697">
        <ele>19.6</ele>
        <time>2021-08-05T11:02:17Z</time>
      </trkpt>
      <trkpt lat="47.62064" lon="-2.66979">
        <ele>19.4</ele>
        <time>2021-08-05T11:02:18Z</time>
      </trkpt>
      <trkpt lat="47.62063" lon="-2.66997">
        <ele>19.2</ele>
        <time>2021-08-05T11:02:20Z</time>
      </trkpt>
      <trkpt lat="47.62063" lon="-2.67008">
        <ele>19.2</ele>
        <time>2021-08-05T11:02:21Z</time>
      </trkpt>
      <trkpt lat="47.62063" lon="-2.67029">
        <ele>18.6</ele>
        <time>2021-08-05T11:02:23Z</time>
      </trkpt>
      <trkpt lat="47.62064" lon="-2.67039">
        <ele>18.2</ele>
        <time>2021-08-05T11:02:24Z</time>
      </trkpt>
      <trkpt lat="47.62065" lon="-2.67061">
        <ele>16.6</ele>
        <time>2021-08-05T11:02:26Z</time>
      </trkpt>
      <trkpt lat="47.62068" lon="-2.67081">
        <ele>15.6</ele>
        <time>2021-08-05T11:02:28Z</time>
      </trkpt>
      <trkpt lat="47.62069" lon="-2.67091">
        <ele>15.4</ele>
        <time>2021-08-05T11:02:29Z</time>
      </trkpt>
      <trkpt lat="47.62071" lon="-2.67101">
        <ele>15.2</ele>
        <time>2021-08-05T11:02:30Z</time>
      </trkpt>
      <trkpt lat="47.62072" lon="-2.67111">
        <ele>14.6</ele>
        <time>2021-08-05T11:02:31Z</time>
      </trkpt>
      <trkpt lat="47.62073" lon="-2.6712">
        <ele>14</ele>
        <time>2021-08-05T11:02:32Z</time>
      </trkpt>
      <trkpt lat="47.62076" lon="-2.67137">
        <ele>13.2</ele>
        <time>2021-08-05T11:02:34Z</time>
      </trkpt>
      <trkpt lat="47.62078" lon="-2.67146">
        <ele>13.2</ele>
        <time>2021-08-05T11:02:35Z</time>
      </trkpt>
      <trkpt lat="47.62079" lon="-2.67154">
        <ele>13</ele>
        <time>2021-08-05T11:02:36Z</time>
      </trkpt>
      <trkpt lat="47.6208" lon="-2.67161">
        <ele>13</ele>
        <time>2021-08-05T11:02:37Z</time>
      </trkpt>
      <trkpt lat="47.62081" lon="-2.67169">
        <ele>13</ele>
        <time>2021-08-05T11:02:38Z</time>
      </trkpt>
      <trkpt lat="47.62084" lon="-2.67183">
        <ele>13</ele>
        <time>2021-08-05T11:02:40Z</time>
      </trkpt>
      <trkpt lat="47.62085" lon="-2.6719">
        <ele>13</ele>
        <time>2021-08-05T11:02:41Z</time>
      </trkpt>
      <trkpt lat="47.62087" lon="-2.67204">
        <ele>13</ele>
        <time>2021-08-05T11:02:43Z</time>
      </trkpt>
      <trkpt lat="47.62088" lon="-2.6721">
        <ele>13.2</ele>
        <time>2021-08-05T11:02:44Z</time>
      </trkpt>
      <trkpt lat="47.62091" lon="-2.67222">
        <ele>13.4</ele>
        <time>2021-08-05T11:02:46Z</time>
      </trkpt>
      <trkpt lat="47.62092" lon="-2.67228">
        <ele>13.4</ele>
        <time>2021-08-05T11:02:47Z</time>
      </trkpt>
      <trkpt lat="47.62094" lon="-2.67234">
        <ele>13.6</ele>
        <time>2021-08-05T11:02:48Z</time>
      </trkpt>
      <trkpt lat="47.62095" lon="-2.67241">
        <ele>13.8</ele>
        <time>2021-08-05T11:02:49Z</time>
      </trkpt>
      <trkpt lat="47.62096" lon="-2.67247">
        <ele>13.8</ele>
        <time>2021-08-05T11:02:50Z</time>
      </trkpt>
      <trkpt lat="47.62099" lon="-2.6726">
        <ele>14</ele>
        <time>2021-08-05T11:02:52Z</time>
      </trkpt>
      <trkpt lat="47.62101" lon="-2.67267">
        <ele>14.2</ele>
        <time>2021-08-05T11:02:53Z</time>
      </trkpt>
      <trkpt lat="47.62105" lon="-2.6728">
        <ele>14.2</ele>
        <time>2021-08-05T11:02:55Z</time>
      </trkpt>
      <trkpt lat="47.62106" lon="-2.67287">
        <ele>14.4</ele>
        <time>2021-08-05T11:02:56Z</time>
      </trkpt>
      <trkpt lat="47.6211" lon="-2.67299">
        <ele>14.4</ele>
        <time>2021-08-05T11:02:58Z</time>
      </trkpt>
      <trkpt lat="47.62112" lon="-2.67306">
        <ele>14.4</ele>
        <time>2021-08-05T11:02:59Z</time>
      </trkpt>
      <trkpt lat="47.62116" lon="-2.67317">
        <ele>14.4</ele>
        <time>2021-08-05T11:03:01Z</time>
      </trkpt>
      <trkpt lat="47.62117" lon="-2.67321">
        <ele>14.4</ele>
        <time>2021-08-05T11:03:02Z</time>
      </trkpt>
      <trkpt lat="47.62119" lon="-2.67329">
        <ele>14.4</ele>
        <time>2021-08-05T11:03:04Z</time>
      </trkpt>
      <trkpt lat="47.62123" lon="-2.67338">
        <ele>14.6</ele>
        <time>2021-08-05T11:03:06Z</time>
      </trkpt>
      <trkpt lat="47.62124" lon="-2.67342">
        <ele>14.6</ele>
        <time>2021-08-05T11:03:07Z</time>
      </trkpt>
      <trkpt lat="47.62129" lon="-2.67351">
        <ele>14.8</ele>
        <time>2021-08-05T11:03:09Z</time>
      </trkpt>
      <trkpt lat="47.62131" lon="-2.67356">
        <ele>14.8</ele>
        <time>2021-08-05T11:03:10Z</time>
      </trkpt>
      <trkpt lat="47.62135" lon="-2.67366">
        <ele>14.8</ele>
        <time>2021-08-05T11:03:12Z</time>
      </trkpt>
      <trkpt lat="47.62137" lon="-2.67371">
        <ele>14.8</ele>
        <time>2021-08-05T11:03:13Z</time>
      </trkpt>
      <trkpt lat="47.62141" lon="-2.67381">
        <ele>15</ele>
        <time>2021-08-05T11:03:15Z</time>
      </trkpt>
      <trkpt lat="47.62144" lon="-2.67386">
        <ele>15.4</ele>
        <time>2021-08-05T11:03:16Z</time>
      </trkpt>
      <trkpt lat="47.62148" lon="-2.67397">
        <ele>15.8</ele>
        <time>2021-08-05T11:03:18Z</time>
      </trkpt>
      <trkpt lat="47.6215" lon="-2.67402">
        <ele>15.8</ele>
        <time>2021-08-05T11:03:19Z</time>
      </trkpt>
      <trkpt lat="47.62154" lon="-2.67412">
        <ele>15.8</ele>
        <time>2021-08-05T11:03:21Z</time>
      </trkpt>
      <trkpt lat="47.62156" lon="-2.67417">
        <ele>15.8</ele>
        <time>2021-08-05T11:03:22Z</time>
      </trkpt>
      <trkpt lat="47.62158" lon="-2.67422">
        <ele>15.8</ele>
        <time>2021-08-05T11:03:23Z</time>
      </trkpt>
      <trkpt lat="47.6216" lon="-2.67428">
        <ele>15.8</ele>
        <time>2021-08-05T11:03:24Z</time>
      </trkpt>
      <trkpt lat="47.62163" lon="-2.67433">
        <ele>16</ele>
        <time>2021-08-05T11:03:25Z</time>
      </trkpt>
      <trkpt lat="47.62165" lon="-2.67438">
        <ele>16</ele>
        <time>2021-08-05T11:03:26Z</time>
      </trkpt>
      <trkpt lat="47.62168" lon="-2.67443">
        <ele>16</ele>
        <time>2021-08-05T11:03:27Z</time>
      </trkpt>
      <trkpt lat="47.62172" lon="-2.67453">
        <ele>16</ele>
        <time>2021-08-05T11:03:29Z</time>
      </trkpt>
      <trkpt lat="47.62174" lon="-2.67458">
        <ele>16</ele>
        <time>2021-08-05T11:03:30Z</time>
      </trkpt>
      <trkpt lat="47.62178" lon="-2.67469">
        <ele>16</ele>
        <time>2021-08-05T11:03:32Z</time>
      </trkpt>
      <trkpt lat="47.6218" lon="-2.67474">
        <ele>16</ele>
        <time>2021-08-05T11:03:33Z</time>
      </trkpt>
      <trkpt lat="47.62184" lon="-2.67484">
        <ele>16</ele>
        <time>2021-08-05T11:03:35Z</time>
      </trkpt>
      <trkpt lat="47.62186" lon="-2.67489">
        <ele>16</ele>
        <time>2021-08-05T11:03:36Z</time>
      </trkpt>
      <trkpt lat="47.62191" lon="-2.67498">
        <ele>16.2</ele>
        <time>2021-08-05T11:03:38Z</time>
      </trkpt>
      <trkpt lat="47.62192" lon="-2.67503">
        <ele>16.2</ele>
        <time>2021-08-05T11:03:39Z</time>
      </trkpt>
      <trkpt lat="47.62196" lon="-2.67513">
        <ele>16.2</ele>
        <time>2021-08-05T11:03:41Z</time>
      </trkpt>
      <trkpt lat="47.62197" lon="-2.67518">
        <ele>16.4</ele>
        <time>2021-08-05T11:03:42Z</time>
      </trkpt>
      <trkpt lat="47.62201" lon="-2.67527">
        <ele>16.4</ele>
        <time>2021-08-05T11:03:44Z</time>
      </trkpt>
      <trkpt lat="47.62203" lon="-2.67532">
        <ele>16.4</ele>
        <time>2021-08-05T11:03:45Z</time>
      </trkpt>
      <trkpt lat="47.62206" lon="-2.6754">
        <ele>16.4</ele>
        <time>2021-08-05T11:03:47Z</time>
      </trkpt>
      <trkpt lat="47.62208" lon="-2.67545">
        <ele>16.6</ele>
        <time>2021-08-05T11:03:48Z</time>
      </trkpt>
      <trkpt lat="47.6221" lon="-2.67549">
        <ele>16.6</ele>
        <time>2021-08-05T11:03:49Z</time>
      </trkpt>
      <trkpt lat="47.62212" lon="-2.67554">
        <ele>16.6</ele>
        <time>2021-08-05T11:03:50Z</time>
      </trkpt>
      <trkpt lat="47.62214" lon="-2.67559">
        <ele>16.6</ele>
        <time>2021-08-05T11:03:51Z</time>
      </trkpt>
      <trkpt lat="47.62217" lon="-2.67568">
        <ele>16.8</ele>
        <time>2021-08-05T11:03:53Z</time>
      </trkpt>
      <trkpt lat="47.62219" lon="-2.67572">
        <ele>17</ele>
        <time>2021-08-05T11:03:54Z</time>
      </trkpt>
      <trkpt lat="47.62222" lon="-2.67581">
        <ele>17.4</ele>
        <time>2021-08-05T11:03:56Z</time>
      </trkpt>
      <trkpt lat="47.62224" lon="-2.67585">
        <ele>17.4</ele>
        <time>2021-08-05T11:03:57Z</time>
      </trkpt>
      <trkpt lat="47.62227" lon="-2.67594">
        <ele>17.6</ele>
        <time>2021-08-05T11:03:59Z</time>
      </trkpt>
      <trkpt lat="47.62229" lon="-2.67599">
        <ele>17.6</ele>
        <time>2021-08-05T11:04:00Z</time>
      </trkpt>
      <trkpt lat="47.62232" lon="-2.67608">
        <ele>17.6</ele>
        <time>2021-08-05T11:04:02Z</time>
      </trkpt>
      <trkpt lat="47.62233" lon="-2.67613">
        <ele>17.6</ele>
        <time>2021-08-05T11:04:03Z</time>
      </trkpt>
      <trkpt lat="47.62237" lon="-2.67622">
        <ele>17.6</ele>
        <time>2021-08-05T11:04:05Z</time>
      </trkpt>
      <trkpt lat="47.6224" lon="-2.67631">
        <ele>17.8</ele>
        <time>2021-08-05T11:04:07Z</time>
      </trkpt>
      <trkpt lat="47.62242" lon="-2.67635">
        <ele>17.8</ele>
        <time>2021-08-05T11:04:08Z</time>
      </trkpt>
      <trkpt lat="47.62244" lon="-2.67644">
        <ele>17.8</ele>
        <time>2021-08-05T11:04:10Z</time>
      </trkpt>
      <trkpt lat="47.62246" lon="-2.67648">
        <ele>17.8</ele>
        <time>2021-08-05T11:04:11Z</time>
      </trkpt>
      <trkpt lat="47.62249" lon="-2.67657">
        <ele>18</ele>
        <time>2021-08-05T11:04:13Z</time>
      </trkpt>
      <trkpt lat="47.62251" lon="-2.67661">
        <ele>18</ele>
        <time>2021-08-05T11:04:14Z</time>
      </trkpt>
      <trkpt lat="47.62252" lon="-2.67665">
        <ele>19</ele>
        <time>2021-08-05T11:04:15Z</time>
      </trkpt>
      <trkpt lat="47.62254" lon="-2.67669">
        <ele>19</ele>
        <time>2021-08-05T11:04:16Z</time>
      </trkpt>
      <trkpt lat="47.62255" lon="-2.67674">
        <ele>19.2</ele>
        <time>2021-08-05T11:04:17Z</time>
      </trkpt>
      <trkpt lat="47.62257" lon="-2.67683">
        <ele>19.2</ele>
        <time>2021-08-05T11:04:19Z</time>
      </trkpt>
      <trkpt lat="47.62259" lon="-2.67687">
        <ele>19.4</ele>
        <time>2021-08-05T11:04:20Z</time>
      </trkpt>
      <trkpt lat="47.6226" lon="-2.67692">
        <ele>19.4</ele>
        <time>2021-08-05T11:04:21Z</time>
      </trkpt>
      <trkpt lat="47.62261" lon="-2.67696">
        <ele>19.4</ele>
        <time>2021-08-05T11:04:22Z</time>
      </trkpt>
      <trkpt lat="47.62261" lon="-2.677">
        <ele>19.4</ele>
        <time>2021-08-05T11:04:23Z</time>
      </trkpt>
      <trkpt lat="47.62261" lon="-2.67703">
        <ele>19.4</ele>
        <time>2021-08-05T11:04:24Z</time>
      </trkpt>
      <trkpt lat="47.6226" lon="-2.67705">
        <ele>19.4</ele>
        <time>2021-08-05T11:04:25Z</time>
      </trkpt>
      <trkpt lat="47.62258" lon="-2.67707">
        <ele>19.4</ele>
        <time>2021-08-05T11:04:27Z</time>
      </trkpt>
      <trkpt lat="47.62257" lon="-2.67707">
        <ele>19.4</ele>
        <time>2021-08-05T11:04:28Z</time>
      </trkpt>
      <trkpt lat="47.62257" lon="-2.67708">
        <ele>19.4</ele>
        <time>2021-08-05T11:04:29Z</time>
      </trkpt>
      <trkpt lat="47.62257" lon="-2.67708">
        <ele>19.4</ele>
        <time>2021-08-05T11:04:30Z</time>
      </trkpt>
      <trkpt lat="47.62257" lon="-2.67708">
        <ele>19.4</ele>
        <time>2021-08-05T11:04:31Z</time>
      </trkpt>
      <trkpt lat="47.62257" lon="-2.67708">
        <ele>20.6</ele>
        <time>2021-08-05T11:05:04Z</time>
      </trkpt>
      <trkpt lat="47.62257" lon="-2.67709">
        <ele>20.6</ele>
        <time>2021-08-05T11:05:05Z</time>
      </trkpt>
      <trkpt lat="47.62258" lon="-2.6771">
        <ele>20.6</ele>
        <time>2021-08-05T11:05:06Z</time>
      </trkpt>
      <trkpt lat="47.62258" lon="-2.6771">
        <ele>20.6</ele>
        <time>2021-08-05T11:05:07Z</time>
      </trkpt>
      <trkpt lat="47.6225" lon="-2.67718">
        <ele>20.4</ele>
        <time>2021-08-05T11:05:20Z</time>
      </trkpt>
      <trkpt lat="47.62248" lon="-2.67721">
        <ele>20.4</ele>
        <time>2021-08-05T11:05:21Z</time>
      </trkpt>
      <trkpt lat="47.62246" lon="-2.67723">
        <ele>20.4</ele>
        <time>2021-08-05T11:05:22Z</time>
      </trkpt>
      <trkpt lat="47.62244" lon="-2.67726">
        <ele>20.2</ele>
        <time>2021-08-05T11:05:23Z</time>
      </trkpt>
      <trkpt lat="47.62238" lon="-2.67733">
        <ele>20</ele>
        <time>2021-08-05T11:05:25Z</time>
      </trkpt>
      <trkpt lat="47.62235" lon="-2.67736">
        <ele>20</ele>
        <time>2021-08-05T11:05:26Z</time>
      </trkpt>
      <trkpt lat="47.62232" lon="-2.6774">
        <ele>19.8</ele>
        <time>2021-08-05T11:05:27Z</time>
      </trkpt>
      <trkpt lat="47.62228" lon="-2.67743">
        <ele>19.6</ele>
        <time>2021-08-05T11:05:28Z</time>
      </trkpt>
      <trkpt lat="47.62225" lon="-2.67747">
        <ele>19.4</ele>
        <time>2021-08-05T11:05:29Z</time>
      </trkpt>
      <trkpt lat="47.62221" lon="-2.67751">
        <ele>19.4</ele>
        <time>2021-08-05T11:05:30Z</time>
      </trkpt>
      <trkpt lat="47.62218" lon="-2.67755">
        <ele>19.2</ele>
        <time>2021-08-05T11:05:31Z</time>
      </trkpt>
      <trkpt lat="47.62214" lon="-2.67759">
        <ele>19</ele>
        <time>2021-08-05T11:05:32Z</time>
      </trkpt>
      <trkpt lat="47.62208" lon="-2.67767">
        <ele>18.8</ele>
        <time>2021-08-05T11:05:34Z</time>
      </trkpt>
      <trkpt lat="47.62204" lon="-2.67771">
        <ele>18.6</ele>
        <time>2021-08-05T11:05:35Z</time>
      </trkpt>
      <trkpt lat="47.62201" lon="-2.67775">
        <ele>18.4</ele>
        <time>2021-08-05T11:05:36Z</time>
      </trkpt>
      <trkpt lat="47.62197" lon="-2.6778">
        <ele>18.2</ele>
        <time>2021-08-05T11:05:37Z</time>
      </trkpt>
      <trkpt lat="47.62194" lon="-2.67784">
        <ele>18.2</ele>
        <time>2021-08-05T11:05:38Z</time>
      </trkpt>
      <trkpt lat="47.62191" lon="-2.67788">
        <ele>18.2</ele>
        <time>2021-08-05T11:05:39Z</time>
      </trkpt>
      <trkpt lat="47.62187" lon="-2.67793">
        <ele>18</ele>
        <time>2021-08-05T11:05:40Z</time>
      </trkpt>
      <trkpt lat="47.62184" lon="-2.67797">
        <ele>18</ele>
        <time>2021-08-05T11:05:41Z</time>
      </trkpt>
      <trkpt lat="47.6218" lon="-2.67801">
        <ele>17.8</ele>
        <time>2021-08-05T11:05:42Z</time>
      </trkpt>
      <trkpt lat="47.62176" lon="-2.67805">
        <ele>17.6</ele>
        <time>2021-08-05T11:05:43Z</time>
      </trkpt>
      <trkpt lat="47.62168" lon="-2.67814">
        <ele>17.6</ele>
        <time>2021-08-05T11:05:45Z</time>
      </trkpt>
      <trkpt lat="47.62164" lon="-2.67819">
        <ele>17.6</ele>
        <time>2021-08-05T11:05:46Z</time>
      </trkpt>
      <trkpt lat="47.6216" lon="-2.67824">
        <ele>17.6</ele>
        <time>2021-08-05T11:05:47Z</time>
      </trkpt>
      <trkpt lat="47.62156" lon="-2.67828">
        <ele>17.4</ele>
        <time>2021-08-05T11:05:48Z</time>
      </trkpt>
      <trkpt lat="47.62152" lon="-2.67833">
        <ele>17.4</ele>
        <time>2021-08-05T11:05:49Z</time>
      </trkpt>
      <trkpt lat="47.62148" lon="-2.67838">
        <ele>17.4</ele>
        <time>2021-08-05T11:05:50Z</time>
      </trkpt>
      <trkpt lat="47.62144" lon="-2.67842">
        <ele>17.6</ele>
        <time>2021-08-05T11:05:51Z</time>
      </trkpt>
      <trkpt lat="47.6214" lon="-2.67847">
        <ele>17.4</ele>
        <time>2021-08-05T11:05:52Z</time>
      </trkpt>
      <trkpt lat="47.62137" lon="-2.67851">
        <ele>17.4</ele>
        <time>2021-08-05T11:05:53Z</time>
      </trkpt>
      <trkpt lat="47.62133" lon="-2.67855">
        <ele>17.4</ele>
        <time>2021-08-05T11:05:54Z</time>
      </trkpt>
      <trkpt lat="47.62125" lon="-2.67864">
        <ele>17.2</ele>
        <time>2021-08-05T11:05:56Z</time>
      </trkpt>
      <trkpt lat="47.62122" lon="-2.67868">
        <ele>17.2</ele>
        <time>2021-08-05T11:05:57Z</time>
      </trkpt>
      <trkpt lat="47.62118" lon="-2.67872">
        <ele>17</ele>
        <time>2021-08-05T11:05:58Z</time>
      </trkpt>
      <trkpt lat="47.62115" lon="-2.67876">
        <ele>17</ele>
        <time>2021-08-05T11:05:59Z</time>
      </trkpt>
      <trkpt lat="47.62111" lon="-2.6788">
        <ele>16.8</ele>
        <time>2021-08-05T11:06:00Z</time>
      </trkpt>
      <trkpt lat="47.62108" lon="-2.67884">
        <ele>16.8</ele>
        <time>2021-08-05T11:06:01Z</time>
      </trkpt>
      <trkpt lat="47.62105" lon="-2.67887">
        <ele>16.8</ele>
        <time>2021-08-05T11:06:02Z</time>
      </trkpt>
      <trkpt lat="47.62102" lon="-2.67891">
        <ele>16.8</ele>
        <time>2021-08-05T11:06:03Z</time>
      </trkpt>
      <trkpt lat="47.62098" lon="-2.67894">
        <ele>16.8</ele>
        <time>2021-08-05T11:06:04Z</time>
      </trkpt>
      <trkpt lat="47.62096" lon="-2.67897">
        <ele>16.6</ele>
        <time>2021-08-05T11:06:05Z</time>
      </trkpt>
      <trkpt lat="47.62093" lon="-2.679">
        <ele>16.6</ele>
        <time>2021-08-05T11:06:06Z</time>
      </trkpt>
      <trkpt lat="47.62091" lon="-2.67902">
        <ele>16.6</ele>
        <time>2021-08-05T11:06:07Z</time>
      </trkpt>
      <trkpt lat="47.62089" lon="-2.67904">
        <ele>16.8</ele>
        <time>2021-08-05T11:06:08Z</time>
      </trkpt>
      <trkpt lat="47.62088" lon="-2.67906">
        <ele>16.8</ele>
        <time>2021-08-05T11:06:09Z</time>
      </trkpt>
      <trkpt lat="47.62086" lon="-2.67907">
        <ele>16.8</ele>
        <time>2021-08-05T11:06:10Z</time>
      </trkpt>
      <trkpt lat="47.62084" lon="-2.6791">
        <ele>16.8</ele>
        <time>2021-08-05T11:06:11Z</time>
      </trkpt>
      <trkpt lat="47.62084" lon="-2.67912">
        <ele>17</ele>
        <time>2021-08-05T11:06:12Z</time>
      </trkpt>
      <trkpt lat="47.62084" lon="-2.67914">
        <ele>17.2</ele>
        <time>2021-08-05T11:06:13Z</time>
      </trkpt>
      <trkpt lat="47.62084" lon="-2.67916">
        <ele>17.4</ele>
        <time>2021-08-05T11:06:14Z</time>
      </trkpt>
      <trkpt lat="47.62084" lon="-2.67919">
        <ele>17.8</ele>
        <time>2021-08-05T11:06:15Z</time>
      </trkpt>
      <trkpt lat="47.62085" lon="-2.67921">
        <ele>17.8</ele>
        <time>2021-08-05T11:06:16Z</time>
      </trkpt>
      <trkpt lat="47.62087" lon="-2.67923">
        <ele>18</ele>
        <time>2021-08-05T11:06:17Z</time>
      </trkpt>
      <trkpt lat="47.62088" lon="-2.67926">
        <ele>18</ele>
        <time>2021-08-05T11:06:18Z</time>
      </trkpt>
      <trkpt lat="47.62089" lon="-2.67929">
        <ele>18</ele>
        <time>2021-08-05T11:06:19Z</time>
      </trkpt>
      <trkpt lat="47.62089" lon="-2.67933">
        <ele>18.2</ele>
        <time>2021-08-05T11:06:20Z</time>
      </trkpt>
      <trkpt lat="47.62087" lon="-2.67936">
        <ele>18.2</ele>
        <time>2021-08-05T11:06:21Z</time>
      </trkpt>
      <trkpt lat="47.62085" lon="-2.67939">
        <ele>18.2</ele>
        <time>2021-08-05T11:06:22Z</time>
      </trkpt>
      <trkpt lat="47.62082" lon="-2.67941">
        <ele>18.2</ele>
        <time>2021-08-05T11:06:23Z</time>
      </trkpt>
      <trkpt lat="47.6208" lon="-2.67944">
        <ele>18.2</ele>
        <time>2021-08-05T11:06:24Z</time>
      </trkpt>
      <trkpt lat="47.62077" lon="-2.67947">
        <ele>18.2</ele>
        <time>2021-08-05T11:06:25Z</time>
      </trkpt>
      <trkpt lat="47.62074" lon="-2.67951">
        <ele>18.2</ele>
        <time>2021-08-05T11:06:26Z</time>
      </trkpt>
      <trkpt lat="47.62071" lon="-2.67954">
        <ele>18.2</ele>
        <time>2021-08-05T11:06:27Z</time>
      </trkpt>
      <trkpt lat="47.62066" lon="-2.6796">
        <ele>18.2</ele>
        <time>2021-08-05T11:06:29Z</time>
      </trkpt>
      <trkpt lat="47.62063" lon="-2.67964">
        <ele>18.2</ele>
        <time>2021-08-05T11:06:30Z</time>
      </trkpt>
      <trkpt lat="47.6206" lon="-2.67967">
        <ele>18.2</ele>
        <time>2021-08-05T11:06:31Z</time>
      </trkpt>
      <trkpt lat="47.62057" lon="-2.6797">
        <ele>18.2</ele>
        <time>2021-08-05T11:06:32Z</time>
      </trkpt>
      <trkpt lat="47.62054" lon="-2.67974">
        <ele>18.2</ele>
        <time>2021-08-05T11:06:33Z</time>
      </trkpt>
      <trkpt lat="47.62052" lon="-2.67979">
        <ele>18</ele>
        <time>2021-08-05T11:06:34Z</time>
      </trkpt>
      <trkpt lat="47.62052" lon="-2.67985">
        <ele>17.8</ele>
        <time>2021-08-05T11:06:35Z</time>
      </trkpt>
      <trkpt lat="47.62054" lon="-2.6799">
        <ele>17.8</ele>
        <time>2021-08-05T11:06:36Z</time>
      </trkpt>
      <trkpt lat="47.62056" lon="-2.67994">
        <ele>17.6</ele>
        <time>2021-08-05T11:06:37Z</time>
      </trkpt>
      <trkpt lat="47.62058" lon="-2.67997">
        <ele>17.6</ele>
        <time>2021-08-05T11:06:38Z</time>
      </trkpt>
      <trkpt lat="47.62062" lon="-2.68005">
        <ele>17.4</ele>
        <time>2021-08-05T11:06:40Z</time>
      </trkpt>
      <trkpt lat="47.62064" lon="-2.68008">
        <ele>17.4</ele>
        <time>2021-08-05T11:06:41Z</time>
      </trkpt>
      <trkpt lat="47.62066" lon="-2.68012">
        <ele>17.4</ele>
        <time>2021-08-05T11:06:42Z</time>
      </trkpt>
      <trkpt lat="47.62068" lon="-2.68015">
        <ele>17.4</ele>
        <time>2021-08-05T11:06:43Z</time>
      </trkpt>
      <trkpt lat="47.6207" lon="-2.68019">
        <ele>17.4</ele>
        <time>2021-08-05T11:06:44Z</time>
      </trkpt>
      <trkpt lat="47.62072" lon="-2.68023">
        <ele>17.4</ele>
        <time>2021-08-05T11:06:45Z</time>
      </trkpt>
      <trkpt lat="47.62073" lon="-2.68027">
        <ele>17.4</ele>
        <time>2021-08-05T11:06:46Z</time>
      </trkpt>
      <trkpt lat="47.62075" lon="-2.68031">
        <ele>17.4</ele>
        <time>2021-08-05T11:06:47Z</time>
      </trkpt>
      <trkpt lat="47.62077" lon="-2.68035">
        <ele>17.4</ele>
        <time>2021-08-05T11:06:48Z</time>
      </trkpt>
      <trkpt lat="47.6208" lon="-2.68039">
        <ele>17.4</ele>
        <time>2021-08-05T11:06:49Z</time>
      </trkpt>
      <trkpt lat="47.62085" lon="-2.68047">
        <ele>17.4</ele>
        <time>2021-08-05T11:06:51Z</time>
      </trkpt>
      <trkpt lat="47.62087" lon="-2.68052">
        <ele>17.4</ele>
        <time>2021-08-05T11:06:52Z</time>
      </trkpt>
      <trkpt lat="47.6209" lon="-2.68057">
        <ele>17.4</ele>
        <time>2021-08-05T11:06:53Z</time>
      </trkpt>
      <trkpt lat="47.62092" lon="-2.68062">
        <ele>17.4</ele>
        <time>2021-08-05T11:06:54Z</time>
      </trkpt>
      <trkpt lat="47.62095" lon="-2.68067">
        <ele>17.6</ele>
        <time>2021-08-05T11:06:55Z</time>
      </trkpt>
      <trkpt lat="47.62097" lon="-2.68072">
        <ele>17.8</ele>
        <time>2021-08-05T11:06:56Z</time>
      </trkpt>
      <trkpt lat="47.621" lon="-2.68076">
        <ele>17.8</ele>
        <time>2021-08-05T11:06:57Z</time>
      </trkpt>
      <trkpt lat="47.62102" lon="-2.68081">
        <ele>17.8</ele>
        <time>2021-08-05T11:06:58Z</time>
      </trkpt>
      <trkpt lat="47.62104" lon="-2.68085">
        <ele>17.8</ele>
        <time>2021-08-05T11:06:59Z</time>
      </trkpt>
      <trkpt lat="47.62106" lon="-2.68089">
        <ele>17.8</ele>
        <time>2021-08-05T11:07:00Z</time>
      </trkpt>
      <trkpt lat="47.6211" lon="-2.68097">
        <ele>17.8</ele>
        <time>2021-08-05T11:07:02Z</time>
      </trkpt>
      <trkpt lat="47.62112" lon="-2.68101">
        <ele>17.8</ele>
        <time>2021-08-05T11:07:03Z</time>
      </trkpt>
      <trkpt lat="47.62114" lon="-2.68105">
        <ele>17.8</ele>
        <time>2021-08-05T11:07:04Z</time>
      </trkpt>
      <trkpt lat="47.62117" lon="-2.68109">
        <ele>17.8</ele>
        <time>2021-08-05T11:07:05Z</time>
      </trkpt>
      <trkpt lat="47.62119" lon="-2.68113">
        <ele>18</ele>
        <time>2021-08-05T11:07:06Z</time>
      </trkpt>
      <trkpt lat="47.62121" lon="-2.68118">
        <ele>18</ele>
        <time>2021-08-05T11:07:07Z</time>
      </trkpt>
      <trkpt lat="47.62123" lon="-2.68122">
        <ele>18</ele>
        <time>2021-08-05T11:07:08Z</time>
      </trkpt>
      <trkpt lat="47.62125" lon="-2.68126">
        <ele>18</ele>
        <time>2021-08-05T11:07:09Z</time>
      </trkpt>
      <trkpt lat="47.62127" lon="-2.6813">
        <ele>18.2</ele>
        <time>2021-08-05T11:07:10Z</time>
      </trkpt>
      <trkpt lat="47.62129" lon="-2.68134">
        <ele>18.2</ele>
        <time>2021-08-05T11:07:11Z</time>
      </trkpt>
      <trkpt lat="47.62133" lon="-2.68142">
        <ele>18.2</ele>
        <time>2021-08-05T11:07:13Z</time>
      </trkpt>
      <trkpt lat="47.62135" lon="-2.68145">
        <ele>18.6</ele>
        <time>2021-08-05T11:07:14Z</time>
      </trkpt>
      <trkpt lat="47.62137" lon="-2.68149">
        <ele>18.6</ele>
        <time>2021-08-05T11:07:15Z</time>
      </trkpt>
      <trkpt lat="47.62139" lon="-2.68153">
        <ele>18.6</ele>
        <time>2021-08-05T11:07:16Z</time>
      </trkpt>
      <trkpt lat="47.62141" lon="-2.68157">
        <ele>18.6</ele>
        <time>2021-08-05T11:07:17Z</time>
      </trkpt>
      <trkpt lat="47.62143" lon="-2.6816">
        <ele>18.6</ele>
        <time>2021-08-05T11:07:18Z</time>
      </trkpt>
      <trkpt lat="47.62145" lon="-2.68164">
        <ele>18.6</ele>
        <time>2021-08-05T11:07:19Z</time>
      </trkpt>
      <trkpt lat="47.62147" lon="-2.68168">
        <ele>18.6</ele>
        <time>2021-08-05T11:07:20Z</time>
      </trkpt>
      <trkpt lat="47.62149" lon="-2.68172">
        <ele>18.6</ele>
        <time>2021-08-05T11:07:21Z</time>
      </trkpt>
      <trkpt lat="47.62153" lon="-2.68179">
        <ele>18.8</ele>
        <time>2021-08-05T11:07:23Z</time>
      </trkpt>
      <trkpt lat="47.62155" lon="-2.68183">
        <ele>18.8</ele>
        <time>2021-08-05T11:07:24Z</time>
      </trkpt>
      <trkpt lat="47.62157" lon="-2.68187">
        <ele>18.8</ele>
        <time>2021-08-05T11:07:25Z</time>
      </trkpt>
      <trkpt lat="47.62158" lon="-2.68191">
        <ele>19</ele>
        <time>2021-08-05T11:07:26Z</time>
      </trkpt>
      <trkpt lat="47.6216" lon="-2.68195">
        <ele>19.2</ele>
        <time>2021-08-05T11:07:27Z</time>
      </trkpt>
      <trkpt lat="47.62162" lon="-2.68199">
        <ele>19.2</ele>
        <time>2021-08-05T11:07:28Z</time>
      </trkpt>
      <trkpt lat="47.62164" lon="-2.68202">
        <ele>19.4</ele>
        <time>2021-08-05T11:07:29Z</time>
      </trkpt>
      <trkpt lat="47.62166" lon="-2.68206">
        <ele>19.4</ele>
        <time>2021-08-05T11:07:30Z</time>
      </trkpt>
      <trkpt lat="47.62168" lon="-2.6821">
        <ele>19.4</ele>
        <time>2021-08-05T11:07:31Z</time>
      </trkpt>
      <trkpt lat="47.6217" lon="-2.68214">
        <ele>19.4</ele>
        <time>2021-08-05T11:07:32Z</time>
      </trkpt>
      <trkpt lat="47.62174" lon="-2.68222">
        <ele>19.6</ele>
        <time>2021-08-05T11:07:34Z</time>
      </trkpt>
      <trkpt lat="47.62177" lon="-2.68226">
        <ele>19.6</ele>
        <time>2021-08-05T11:07:35Z</time>
      </trkpt>
      <trkpt lat="47.62179" lon="-2.6823">
        <ele>19.6</ele>
        <time>2021-08-05T11:07:36Z</time>
      </trkpt>
      <trkpt lat="47.62181" lon="-2.68234">
        <ele>19.6</ele>
        <time>2021-08-05T11:07:37Z</time>
      </trkpt>
      <trkpt lat="47.62183" lon="-2.68239">
        <ele>19.8</ele>
        <time>2021-08-05T11:07:38Z</time>
      </trkpt>
      <trkpt lat="47.62185" lon="-2.68243">
        <ele>20</ele>
        <time>2021-08-05T11:07:39Z</time>
      </trkpt>
      <trkpt lat="47.62187" lon="-2.68246">
        <ele>20.2</ele>
        <time>2021-08-05T11:07:40Z</time>
      </trkpt>
      <trkpt lat="47.62188" lon="-2.6825">
        <ele>20.4</ele>
        <time>2021-08-05T11:07:41Z</time>
      </trkpt>
      <trkpt lat="47.6219" lon="-2.68253">
        <ele>20.4</ele>
        <time>2021-08-05T11:07:42Z</time>
      </trkpt>
      <trkpt lat="47.62192" lon="-2.68256">
        <ele>20.4</ele>
        <time>2021-08-05T11:07:43Z</time>
      </trkpt>
      <trkpt lat="47.62193" lon="-2.68264">
        <ele>20.6</ele>
        <time>2021-08-05T11:07:45Z</time>
      </trkpt>
      <trkpt lat="47.62193" lon="-2.68268">
        <ele>20.6</ele>
        <time>2021-08-05T11:07:46Z</time>
      </trkpt>
      <trkpt lat="47.62191" lon="-2.68271">
        <ele>20.6</ele>
        <time>2021-08-05T11:07:47Z</time>
      </trkpt>
      <trkpt lat="47.62189" lon="-2.68274">
        <ele>20.6</ele>
        <time>2021-08-05T11:07:48Z</time>
      </trkpt>
      <trkpt lat="47.62187" lon="-2.68277">
        <ele>20.6</ele>
        <time>2021-08-05T11:07:49Z</time>
      </trkpt>
      <trkpt lat="47.62184" lon="-2.6828">
        <ele>20.6</ele>
        <time>2021-08-05T11:07:50Z</time>
      </trkpt>
      <trkpt lat="47.62181" lon="-2.68284">
        <ele>20.6</ele>
        <time>2021-08-05T11:07:51Z</time>
      </trkpt>
      <trkpt lat="47.62178" lon="-2.68287">
        <ele>20.6</ele>
        <time>2021-08-05T11:07:52Z</time>
      </trkpt>
      <trkpt lat="47.62175" lon="-2.68291">
        <ele>20.6</ele>
        <time>2021-08-05T11:07:53Z</time>
      </trkpt>
      <trkpt lat="47.62172" lon="-2.68294">
        <ele>20.6</ele>
        <time>2021-08-05T11:07:54Z</time>
      </trkpt>
      <trkpt lat="47.62165" lon="-2.68302">
        <ele>20.6</ele>
        <time>2021-08-05T11:07:56Z</time>
      </trkpt>
      <trkpt lat="47.62162" lon="-2.68305">
        <ele>20.2</ele>
        <time>2021-08-05T11:07:57Z</time>
      </trkpt>
      <trkpt lat="47.62159" lon="-2.68309">
        <ele>20.2</ele>
        <time>2021-08-05T11:07:58Z</time>
      </trkpt>
      <trkpt lat="47.62155" lon="-2.68313">
        <ele>20</ele>
        <time>2021-08-05T11:07:59Z</time>
      </trkpt>
      <trkpt lat="47.62152" lon="-2.68316">
        <ele>19.8</ele>
        <time>2021-08-05T11:08:00Z</time>
      </trkpt>
      <trkpt lat="47.62149" lon="-2.6832">
        <ele>19.6</ele>
        <time>2021-08-05T11:08:01Z</time>
      </trkpt>
      <trkpt lat="47.62146" lon="-2.68324">
        <ele>19.6</ele>
        <time>2021-08-05T11:08:02Z</time>
      </trkpt>
      <trkpt lat="47.62142" lon="-2.68327">
        <ele>19.4</ele>
        <time>2021-08-05T11:08:03Z</time>
      </trkpt>
      <trkpt lat="47.62139" lon="-2.68331">
        <ele>19.4</ele>
        <time>2021-08-05T11:08:04Z</time>
      </trkpt>
      <trkpt lat="47.62136" lon="-2.68334">
        <ele>19.2</ele>
        <time>2021-08-05T11:08:05Z</time>
      </trkpt>
      <trkpt lat="47.6213" lon="-2.68341">
        <ele>18.6</ele>
        <time>2021-08-05T11:08:07Z</time>
      </trkpt>
      <trkpt lat="47.62127" lon="-2.68345">
        <ele>18.4</ele>
        <time>2021-08-05T11:08:08Z</time>
      </trkpt>
      <trkpt lat="47.62123" lon="-2.68348">
        <ele>18</ele>
        <time>2021-08-05T11:08:09Z</time>
      </trkpt>
      <trkpt lat="47.6212" lon="-2.68351">
        <ele>17.8</ele>
        <time>2021-08-05T11:08:10Z</time>
      </trkpt>
      <trkpt lat="47.62116" lon="-2.68355">
        <ele>17.8</ele>
        <time>2021-08-05T11:08:11Z</time>
      </trkpt>
      <trkpt lat="47.62113" lon="-2.68359">
        <ele>17.6</ele>
        <time>2021-08-05T11:08:12Z</time>
      </trkpt>
      <trkpt lat="47.62109" lon="-2.68364">
        <ele>17.6</ele>
        <time>2021-08-05T11:08:13Z</time>
      </trkpt>
      <trkpt lat="47.62105" lon="-2.68368">
        <ele>17.4</ele>
        <time>2021-08-05T11:08:14Z</time>
      </trkpt>
      <trkpt lat="47.62101" lon="-2.68372">
        <ele>17.4</ele>
        <time>2021-08-05T11:08:15Z</time>
      </trkpt>
      <trkpt lat="47.62097" lon="-2.68376">
        <ele>17.2</ele>
        <time>2021-08-05T11:08:16Z</time>
      </trkpt>
      <trkpt lat="47.62093" lon="-2.68381">
        <ele>17</ele>
        <time>2021-08-05T11:08:17Z</time>
      </trkpt>
      <trkpt lat="47.62089" lon="-2.68386">
        <ele>17</ele>
        <time>2021-08-05T11:08:18Z</time>
      </trkpt>
      <trkpt lat="47.62085" lon="-2.6839">
        <ele>16.8</ele>
        <time>2021-08-05T11:08:19Z</time>
      </trkpt>
      <trkpt lat="47.62081" lon="-2.68395">
        <ele>16.6</ele>
        <time>2021-08-05T11:08:20Z</time>
      </trkpt>
      <trkpt lat="47.62077" lon="-2.684">
        <ele>16.6</ele>
        <time>2021-08-05T11:08:21Z</time>
      </trkpt>
      <trkpt lat="47.62073" lon="-2.68405">
        <ele>16.2</ele>
        <time>2021-08-05T11:08:22Z</time>
      </trkpt>
      <trkpt lat="47.62068" lon="-2.68409">
        <ele>16.2</ele>
        <time>2021-08-05T11:08:23Z</time>
      </trkpt>
      <trkpt lat="47.62064" lon="-2.68414">
        <ele>16.2</ele>
        <time>2021-08-05T11:08:24Z</time>
      </trkpt>
      <trkpt lat="47.6206" lon="-2.68418">
        <ele>16</ele>
        <time>2021-08-05T11:08:25Z</time>
      </trkpt>
      <trkpt lat="47.62057" lon="-2.68423">
        <ele>15.8</ele>
        <time>2021-08-05T11:08:26Z</time>
      </trkpt>
      <trkpt lat="47.62053" lon="-2.68427">
        <ele>15.6</ele>
        <time>2021-08-05T11:08:27Z</time>
      </trkpt>
      <trkpt lat="47.62046" lon="-2.68434">
        <ele>15.4</ele>
        <time>2021-08-05T11:08:29Z</time>
      </trkpt>
      <trkpt lat="47.62043" lon="-2.68438">
        <ele>15.4</ele>
        <time>2021-08-05T11:08:30Z</time>
      </trkpt>
      <trkpt lat="47.6204" lon="-2.68442">
        <ele>15.2</ele>
        <time>2021-08-05T11:08:31Z</time>
      </trkpt>
      <trkpt lat="47.62037" lon="-2.68445">
        <ele>15.2</ele>
        <time>2021-08-05T11:08:32Z</time>
      </trkpt>
      <trkpt lat="47.62034" lon="-2.68449">
        <ele>15.2</ele>
        <time>2021-08-05T11:08:33Z</time>
      </trkpt>
      <trkpt lat="47.62031" lon="-2.68452">
        <ele>15.2</ele>
        <time>2021-08-05T11:08:34Z</time>
      </trkpt>
      <trkpt lat="47.62028" lon="-2.68456">
        <ele>15</ele>
        <time>2021-08-05T11:08:35Z</time>
      </trkpt>
      <trkpt lat="47.62025" lon="-2.68459">
        <ele>15</ele>
        <time>2021-08-05T11:08:36Z</time>
      </trkpt>
      <trkpt lat="47.62023" lon="-2.68462">
        <ele>15</ele>
        <time>2021-08-05T11:08:37Z</time>
      </trkpt>
      <trkpt lat="47.62021" lon="-2.68464">
        <ele>15</ele>
        <time>2021-08-05T11:08:38Z</time>
      </trkpt>
      <trkpt lat="47.62019" lon="-2.68467">
        <ele>15</ele>
        <time>2021-08-05T11:08:39Z</time>
      </trkpt>
      <trkpt lat="47.62018" lon="-2.68469">
        <ele>15</ele>
        <time>2021-08-05T11:08:40Z</time>
      </trkpt>
      <trkpt lat="47.62017" lon="-2.6847">
        <ele>15</ele>
        <time>2021-08-05T11:08:41Z</time>
      </trkpt>
      <trkpt lat="47.62016" lon="-2.6847">
        <ele>15</ele>
        <time>2021-08-05T11:08:42Z</time>
      </trkpt>
      <trkpt lat="47.62014" lon="-2.6847">
        <ele>15</ele>
        <time>2021-08-05T11:08:43Z</time>
      </trkpt>
      <trkpt lat="47.62013" lon="-2.6847">
        <ele>15</ele>
        <time>2021-08-05T11:08:44Z</time>
      </trkpt>
      <trkpt lat="47.62012" lon="-2.68471">
        <ele>15</ele>
        <time>2021-08-05T11:08:45Z</time>
      </trkpt>
      <trkpt lat="47.6201" lon="-2.68473">
        <ele>15</ele>
        <time>2021-08-05T11:08:46Z</time>
      </trkpt>
      <trkpt lat="47.62008" lon="-2.68474">
        <ele>15</ele>
        <time>2021-08-05T11:08:47Z</time>
      </trkpt>
      <trkpt lat="47.62006" lon="-2.68474">
        <ele>15</ele>
        <time>2021-08-05T11:08:48Z</time>
      </trkpt>
      <trkpt lat="47.62003" lon="-2.68473">
        <ele>15</ele>
        <time>2021-08-05T11:08:49Z</time>
      </trkpt>
      <trkpt lat="47.61998" lon="-2.68469">
        <ele>15</ele>
        <time>2021-08-05T11:08:51Z</time>
      </trkpt>
      <trkpt lat="47.61995" lon="-2.68466">
        <ele>15</ele>
        <time>2021-08-05T11:08:52Z</time>
      </trkpt>
      <trkpt lat="47.61992" lon="-2.68464">
        <ele>15</ele>
        <time>2021-08-05T11:08:53Z</time>
      </trkpt>
      <trkpt lat="47.61989" lon="-2.68462">
        <ele>15</ele>
        <time>2021-08-05T11:08:54Z</time>
      </trkpt>
      <trkpt lat="47.61985" lon="-2.68459">
        <ele>15</ele>
        <time>2021-08-05T11:08:55Z</time>
      </trkpt>
      <trkpt lat="47.61982" lon="-2.68457">
        <ele>15</ele>
        <time>2021-08-05T11:08:56Z</time>
      </trkpt>
      <trkpt lat="47.61978" lon="-2.68454">
        <ele>15</ele>
        <time>2021-08-05T11:08:57Z</time>
      </trkpt>
      <trkpt lat="47.61974" lon="-2.68451">
        <ele>15</ele>
        <time>2021-08-05T11:08:58Z</time>
      </trkpt>
      <trkpt lat="47.61971" lon="-2.68449">
        <ele>15</ele>
        <time>2021-08-05T11:08:59Z</time>
      </trkpt>
      <trkpt lat="47.61967" lon="-2.68447">
        <ele>15</ele>
        <time>2021-08-05T11:09:00Z</time>
      </trkpt>
      <trkpt lat="47.61959" lon="-2.68442">
        <ele>14.8</ele>
        <time>2021-08-05T11:09:02Z</time>
      </trkpt>
      <trkpt lat="47.61955" lon="-2.68439">
        <ele>15</ele>
        <time>2021-08-05T11:09:03Z</time>
      </trkpt>
      <trkpt lat="47.61951" lon="-2.68437">
        <ele>14.8</ele>
        <time>2021-08-05T11:09:04Z</time>
      </trkpt>
      <trkpt lat="47.61947" lon="-2.68434">
        <ele>14.8</ele>
        <time>2021-08-05T11:09:05Z</time>
      </trkpt>
      <trkpt lat="47.61943" lon="-2.68432">
        <ele>14.8</ele>
        <time>2021-08-05T11:09:06Z</time>
      </trkpt>
      <trkpt lat="47.61939" lon="-2.68429">
        <ele>14.8</ele>
        <time>2021-08-05T11:09:07Z</time>
      </trkpt>
      <trkpt lat="47.61935" lon="-2.68427">
        <ele>14.8</ele>
        <time>2021-08-05T11:09:08Z</time>
      </trkpt>
      <trkpt lat="47.6193" lon="-2.68424">
        <ele>14.8</ele>
        <time>2021-08-05T11:09:09Z</time>
      </trkpt>
      <trkpt lat="47.61926" lon="-2.68422">
        <ele>14.8</ele>
        <time>2021-08-05T11:09:10Z</time>
      </trkpt>
      <trkpt lat="47.61921" lon="-2.68419">
        <ele>14.8</ele>
        <time>2021-08-05T11:09:11Z</time>
      </trkpt>
      <trkpt lat="47.61912" lon="-2.68413">
        <ele>14.6</ele>
        <time>2021-08-05T11:09:13Z</time>
      </trkpt>
      <trkpt lat="47.61908" lon="-2.68411">
        <ele>14.4</ele>
        <time>2021-08-05T11:09:14Z</time>
      </trkpt>
      <trkpt lat="47.61904" lon="-2.68409">
        <ele>14.4</ele>
        <time>2021-08-05T11:09:15Z</time>
      </trkpt>
      <trkpt lat="47.619" lon="-2.68407">
        <ele>14.4</ele>
        <time>2021-08-05T11:09:16Z</time>
      </trkpt>
      <trkpt lat="47.61896" lon="-2.68404">
        <ele>14.2</ele>
        <time>2021-08-05T11:09:17Z</time>
      </trkpt>
      <trkpt lat="47.61893" lon="-2.68402">
        <ele>14.2</ele>
        <time>2021-08-05T11:09:18Z</time>
      </trkpt>
      <trkpt lat="47.61889" lon="-2.684">
        <ele>14</ele>
        <time>2021-08-05T11:09:19Z</time>
      </trkpt>
      <trkpt lat="47.61885" lon="-2.68398">
        <ele>14</ele>
        <time>2021-08-05T11:09:20Z</time>
      </trkpt>
      <trkpt lat="47.61881" lon="-2.68397">
        <ele>14</ele>
        <time>2021-08-05T11:09:21Z</time>
      </trkpt>
      <trkpt lat="47.61873" lon="-2.68394">
        <ele>13.6</ele>
        <time>2021-08-05T11:09:23Z</time>
      </trkpt>
      <trkpt lat="47.61869" lon="-2.68392">
        <ele>13.4</ele>
        <time>2021-08-05T11:09:24Z</time>
      </trkpt>
      <trkpt lat="47.61865" lon="-2.68391">
        <ele>13.2</ele>
        <time>2021-08-05T11:09:25Z</time>
      </trkpt>
      <trkpt lat="47.6186" lon="-2.68391">
        <ele>13</ele>
        <time>2021-08-05T11:09:26Z</time>
      </trkpt>
      <trkpt lat="47.61856" lon="-2.6839">
        <ele>12.8</ele>
        <time>2021-08-05T11:09:27Z</time>
      </trkpt>
      <trkpt lat="47.61852" lon="-2.68389">
        <ele>12.6</ele>
        <time>2021-08-05T11:09:28Z</time>
      </trkpt>
      <trkpt lat="47.61847" lon="-2.68389">
        <ele>12.4</ele>
        <time>2021-08-05T11:09:29Z</time>
      </trkpt>
      <trkpt lat="47.61843" lon="-2.68388">
        <ele>12.2</ele>
        <time>2021-08-05T11:09:30Z</time>
      </trkpt>
      <trkpt lat="47.61839" lon="-2.68387">
        <ele>12</ele>
        <time>2021-08-05T11:09:31Z</time>
      </trkpt>
      <trkpt lat="47.61835" lon="-2.68386">
        <ele>11.8</ele>
        <time>2021-08-05T11:09:32Z</time>
      </trkpt>
      <trkpt lat="47.61827" lon="-2.68384">
        <ele>11.8</ele>
        <time>2021-08-05T11:09:34Z</time>
      </trkpt>
      <trkpt lat="47.61823" lon="-2.68385">
        <ele>11.8</ele>
        <time>2021-08-05T11:09:35Z</time>
      </trkpt>
      <trkpt lat="47.61819" lon="-2.68386">
        <ele>11.8</ele>
        <time>2021-08-05T11:09:36Z</time>
      </trkpt>
      <trkpt lat="47.61816" lon="-2.68387">
        <ele>11.8</ele>
        <time>2021-08-05T11:09:37Z</time>
      </trkpt>
      <trkpt lat="47.61812" lon="-2.68387">
        <ele>11.8</ele>
        <time>2021-08-05T11:09:38Z</time>
      </trkpt>
      <trkpt lat="47.61808" lon="-2.68387">
        <ele>11.8</ele>
        <time>2021-08-05T11:09:39Z</time>
      </trkpt>
      <trkpt lat="47.61804" lon="-2.68387">
        <ele>11.8</ele>
        <time>2021-08-05T11:09:40Z</time>
      </trkpt>
      <trkpt lat="47.618" lon="-2.68387">
        <ele>11.8</ele>
        <time>2021-08-05T11:09:41Z</time>
      </trkpt>
      <trkpt lat="47.61796" lon="-2.68387">
        <ele>11.8</ele>
        <time>2021-08-05T11:09:42Z</time>
      </trkpt>
      <trkpt lat="47.61792" lon="-2.68387">
        <ele>11.8</ele>
        <time>2021-08-05T11:09:43Z</time>
      </trkpt>
      <trkpt lat="47.61784" lon="-2.68387">
        <ele>12</ele>
        <time>2021-08-05T11:09:45Z</time>
      </trkpt>
      <trkpt lat="47.61781" lon="-2.68386">
        <ele>12</ele>
        <time>2021-08-05T11:09:46Z</time>
      </trkpt>
      <trkpt lat="47.61777" lon="-2.68386">
        <ele>12</ele>
        <time>2021-08-05T11:09:47Z</time>
      </trkpt>
      <trkpt lat="47.61774" lon="-2.68386">
        <ele>12</ele>
        <time>2021-08-05T11:09:48Z</time>
      </trkpt>
      <trkpt lat="47.6177" lon="-2.68386">
        <ele>12</ele>
        <time>2021-08-05T11:09:49Z</time>
      </trkpt>
      <trkpt lat="47.61767" lon="-2.68386">
        <ele>12</ele>
        <time>2021-08-05T11:09:50Z</time>
      </trkpt>
      <trkpt lat="47.61763" lon="-2.68385">
        <ele>12.2</ele>
        <time>2021-08-05T11:09:51Z</time>
      </trkpt>
      <trkpt lat="47.6176" lon="-2.68385">
        <ele>12.2</ele>
        <time>2021-08-05T11:09:52Z</time>
      </trkpt>
      <trkpt lat="47.61756" lon="-2.68385">
        <ele>12.2</ele>
        <time>2021-08-05T11:09:53Z</time>
      </trkpt>
      <trkpt lat="47.61753" lon="-2.68384">
        <ele>12.2</ele>
        <time>2021-08-05T11:09:54Z</time>
      </trkpt>
      <trkpt lat="47.61746" lon="-2.68383">
        <ele>12.4</ele>
        <time>2021-08-05T11:09:56Z</time>
      </trkpt>
      <trkpt lat="47.61742" lon="-2.68383">
        <ele>12.4</ele>
        <time>2021-08-05T11:09:57Z</time>
      </trkpt>
      <trkpt lat="47.61739" lon="-2.68382">
        <ele>12.6</ele>
        <time>2021-08-05T11:09:58Z</time>
      </trkpt>
      <trkpt lat="47.61735" lon="-2.68382">
        <ele>12.6</ele>
        <time>2021-08-05T11:09:59Z</time>
      </trkpt>
      <trkpt lat="47.61731" lon="-2.68382">
        <ele>12.6</ele>
        <time>2021-08-05T11:10:00Z</time>
      </trkpt>
      <trkpt lat="47.61727" lon="-2.68382">
        <ele>12.8</ele>
        <time>2021-08-05T11:10:01Z</time>
      </trkpt>
      <trkpt lat="47.61723" lon="-2.68381">
        <ele>12.8</ele>
        <time>2021-08-05T11:10:02Z</time>
      </trkpt>
      <trkpt lat="47.61719" lon="-2.68381">
        <ele>12.8</ele>
        <time>2021-08-05T11:10:03Z</time>
      </trkpt>
      <trkpt lat="47.61715" lon="-2.6838">
        <ele>12.8</ele>
        <time>2021-08-05T11:10:04Z</time>
      </trkpt>
      <trkpt lat="47.61711" lon="-2.6838">
        <ele>12.8</ele>
        <time>2021-08-05T11:10:05Z</time>
      </trkpt>
      <trkpt lat="47.61705" lon="-2.68382">
        <ele>12.8</ele>
        <time>2021-08-05T11:10:07Z</time>
      </trkpt>
      <trkpt lat="47.61703" lon="-2.68384">
        <ele>12.6</ele>
        <time>2021-08-05T11:10:08Z</time>
      </trkpt>
      <trkpt lat="47.61702" lon="-2.68386">
        <ele>12.6</ele>
        <time>2021-08-05T11:10:09Z</time>
      </trkpt>
      <trkpt lat="47.61702" lon="-2.68388">
        <ele>12.4</ele>
        <time>2021-08-05T11:10:10Z</time>
      </trkpt>
      <trkpt lat="47.61702" lon="-2.6839">
        <ele>12.4</ele>
        <time>2021-08-05T11:10:11Z</time>
      </trkpt>
      <trkpt lat="47.61702" lon="-2.68391">
        <ele>12.2</ele>
        <time>2021-08-05T11:10:12Z</time>
      </trkpt>
      <trkpt lat="47.61702" lon="-2.68391">
        <ele>12.2</ele>
        <time>2021-08-05T11:10:13Z</time>
      </trkpt>
      <trkpt lat="47.61702" lon="-2.68391">
        <ele>12.2</ele>
        <time>2021-08-05T11:10:14Z</time>
      </trkpt>
      <trkpt lat="47.61702" lon="-2.68392">
        <ele>12.2</ele>
        <time>2021-08-05T11:10:26Z</time>
      </trkpt>
      <trkpt lat="47.61702" lon="-2.68393">
        <ele>12.2</ele>
        <time>2021-08-05T11:10:27Z</time>
      </trkpt>
      <trkpt lat="47.61703" lon="-2.68393">
        <ele>12.2</ele>
        <time>2021-08-05T11:10:28Z</time>
      </trkpt>
      <trkpt lat="47.61703" lon="-2.68395">
        <ele>12.2</ele>
        <time>2021-08-05T11:10:29Z</time>
      </trkpt>
      <trkpt lat="47.61704" lon="-2.68396">
        <ele>12.2</ele>
        <time>2021-08-05T11:10:31Z</time>
      </trkpt>
      <trkpt lat="47.61597" lon="-2.68432">
        <ele>4.6</ele>
        <time>2021-08-05T12:15:47Z</time>
      </trkpt>
      <trkpt lat="47.61593" lon="-2.68434">
        <ele>5</ele>
        <time>2021-08-05T12:15:48Z</time>
      </trkpt>
      <trkpt lat="47.6159" lon="-2.68435">
        <ele>5.2</ele>
        <time>2021-08-05T12:15:49Z</time>
      </trkpt>
      <trkpt lat="47.61587" lon="-2.68436">
        <ele>4.8</ele>
        <time>2021-08-05T12:15:50Z</time>
      </trkpt>
      <trkpt lat="47.61584" lon="-2.68436">
        <ele>4.6</ele>
        <time>2021-08-05T12:15:51Z</time>
      </trkpt>
      <trkpt lat="47.6158" lon="-2.68437">
        <ele>4.6</ele>
        <time>2021-08-05T12:15:52Z</time>
      </trkpt>
      <trkpt lat="47.61577" lon="-2.68437">
        <ele>4.4</ele>
        <time>2021-08-05T12:15:53Z</time>
      </trkpt>
      <trkpt lat="47.61575" lon="-2.68437">
        <ele>4.4</ele>
        <time>2021-08-05T12:15:54Z</time>
      </trkpt>
      <trkpt lat="47.61572" lon="-2.68436">
        <ele>4.4</ele>
        <time>2021-08-05T12:15:55Z</time>
      </trkpt>
      <trkpt lat="47.61569" lon="-2.68436">
        <ele>4.6</ele>
        <time>2021-08-05T12:15:56Z</time>
      </trkpt>
      <trkpt lat="47.61566" lon="-2.68435">
        <ele>4.6</ele>
        <time>2021-08-05T12:15:57Z</time>
      </trkpt>
      <trkpt lat="47.61563" lon="-2.68434">
        <ele>4.6</ele>
        <time>2021-08-05T12:15:58Z</time>
      </trkpt>
      <trkpt lat="47.6156" lon="-2.68434">
        <ele>4.8</ele>
        <time>2021-08-05T12:15:59Z</time>
      </trkpt>
      <trkpt lat="47.61558" lon="-2.68433">
        <ele>5</ele>
        <time>2021-08-05T12:16:00Z</time>
      </trkpt>
      <trkpt lat="47.61555" lon="-2.68433">
        <ele>5.2</ele>
        <time>2021-08-05T12:16:01Z</time>
      </trkpt>
      <trkpt lat="47.61553" lon="-2.68432">
        <ele>5.4</ele>
        <time>2021-08-05T12:16:02Z</time>
      </trkpt>
      <trkpt lat="47.61551" lon="-2.68431">
        <ele>5.4</ele>
        <time>2021-08-05T12:16:03Z</time>
      </trkpt>
      <trkpt lat="47.61548" lon="-2.68431">
        <ele>5.4</ele>
        <time>2021-08-05T12:16:04Z</time>
      </trkpt>
      <trkpt lat="47.61546" lon="-2.6843">
        <ele>5.4</ele>
        <time>2021-08-05T12:16:05Z</time>
      </trkpt>
      <trkpt lat="47.61544" lon="-2.6843">
        <ele>5.6</ele>
        <time>2021-08-05T12:16:06Z</time>
      </trkpt>
      <trkpt lat="47.61542" lon="-2.68429">
        <ele>5.6</ele>
        <time>2021-08-05T12:16:07Z</time>
      </trkpt>
      <trkpt lat="47.6154" lon="-2.68428">
        <ele>5.6</ele>
        <time>2021-08-05T12:16:08Z</time>
      </trkpt>
      <trkpt lat="47.61537" lon="-2.68428">
        <ele>5.6</ele>
        <time>2021-08-05T12:16:09Z</time>
      </trkpt>
      <trkpt lat="47.61535" lon="-2.68427">
        <ele>5.8</ele>
        <time>2021-08-05T12:16:10Z</time>
      </trkpt>
      <trkpt lat="47.61532" lon="-2.68426">
        <ele>6</ele>
        <time>2021-08-05T12:16:11Z</time>
      </trkpt>
      <trkpt lat="47.6153" lon="-2.68426">
        <ele>6.2</ele>
        <time>2021-08-05T12:16:12Z</time>
      </trkpt>
      <trkpt lat="47.61528" lon="-2.68425">
        <ele>6.8</ele>
        <time>2021-08-05T12:16:13Z</time>
      </trkpt>
      <trkpt lat="47.61525" lon="-2.68424">
        <ele>7</ele>
        <time>2021-08-05T12:16:14Z</time>
      </trkpt>
      <trkpt lat="47.61523" lon="-2.68423">
        <ele>7.4</ele>
        <time>2021-08-05T12:16:15Z</time>
      </trkpt>
      <trkpt lat="47.61521" lon="-2.68423">
        <ele>7.6</ele>
        <time>2021-08-05T12:16:16Z</time>
      </trkpt>
      <trkpt lat="47.61519" lon="-2.68422">
        <ele>7.8</ele>
        <time>2021-08-05T12:16:17Z</time>
      </trkpt>
      <trkpt lat="47.61516" lon="-2.68421">
        <ele>8</ele>
        <time>2021-08-05T12:16:18Z</time>
      </trkpt>
      <trkpt lat="47.61514" lon="-2.68419">
        <ele>8</ele>
        <time>2021-08-05T12:16:19Z</time>
      </trkpt>
      <trkpt lat="47.61511" lon="-2.68418">
        <ele>8.2</ele>
        <time>2021-08-05T12:16:20Z</time>
      </trkpt>
      <trkpt lat="47.61509" lon="-2.68417">
        <ele>8.2</ele>
        <time>2021-08-05T12:16:21Z</time>
      </trkpt>
      <trkpt lat="47.61506" lon="-2.68416">
        <ele>8.2</ele>
        <time>2021-08-05T12:16:22Z</time>
      </trkpt>
      <trkpt lat="47.61503" lon="-2.68414">
        <ele>8.8</ele>
        <time>2021-08-05T12:16:23Z</time>
      </trkpt>
      <trkpt lat="47.61501" lon="-2.68413">
        <ele>9</ele>
        <time>2021-08-05T12:16:24Z</time>
      </trkpt>
      <trkpt lat="47.61498" lon="-2.68411">
        <ele>9.2</ele>
        <time>2021-08-05T12:16:25Z</time>
      </trkpt>
      <trkpt lat="47.61495" lon="-2.6841">
        <ele>9.4</ele>
        <time>2021-08-05T12:16:26Z</time>
      </trkpt>
      <trkpt lat="47.61493" lon="-2.68408">
        <ele>9.4</ele>
        <time>2021-08-05T12:16:27Z</time>
      </trkpt>
      <trkpt lat="47.6149" lon="-2.68407">
        <ele>9.6</ele>
        <time>2021-08-05T12:16:28Z</time>
      </trkpt>
      <trkpt lat="47.61487" lon="-2.68405">
        <ele>9.8</ele>
        <time>2021-08-05T12:16:29Z</time>
      </trkpt>
      <trkpt lat="47.61485" lon="-2.68403">
        <ele>9.8</ele>
        <time>2021-08-05T12:16:30Z</time>
      </trkpt>
      <trkpt lat="47.61482" lon="-2.68402">
        <ele>10</ele>
        <time>2021-08-05T12:16:31Z</time>
      </trkpt>
      <trkpt lat="47.6148" lon="-2.684">
        <ele>10</ele>
        <time>2021-08-05T12:16:32Z</time>
      </trkpt>
      <trkpt lat="47.61477" lon="-2.68399">
        <ele>10</ele>
        <time>2021-08-05T12:16:33Z</time>
      </trkpt>
      <trkpt lat="47.61474" lon="-2.68398">
        <ele>10</ele>
        <time>2021-08-05T12:16:34Z</time>
      </trkpt>
      <trkpt lat="47.61471" lon="-2.68396">
        <ele>10</ele>
        <time>2021-08-05T12:16:35Z</time>
      </trkpt>
      <trkpt lat="47.61469" lon="-2.68395">
        <ele>10</ele>
        <time>2021-08-05T12:16:36Z</time>
      </trkpt>
      <trkpt lat="47.61466" lon="-2.68394">
        <ele>10.2</ele>
        <time>2021-08-05T12:16:37Z</time>
      </trkpt>
      <trkpt lat="47.61463" lon="-2.68393">
        <ele>10.2</ele>
        <time>2021-08-05T12:16:38Z</time>
      </trkpt>
      <trkpt lat="47.6146" lon="-2.68392">
        <ele>10.2</ele>
        <time>2021-08-05T12:16:39Z</time>
      </trkpt>
      <trkpt lat="47.61458" lon="-2.68391">
        <ele>10.4</ele>
        <time>2021-08-05T12:16:40Z</time>
      </trkpt>
      <trkpt lat="47.61455" lon="-2.68389">
        <ele>10.4</ele>
        <time>2021-08-05T12:16:41Z</time>
      </trkpt>
      <trkpt lat="47.61452" lon="-2.68388">
        <ele>10.4</ele>
        <time>2021-08-05T12:16:42Z</time>
      </trkpt>
      <trkpt lat="47.6145" lon="-2.68387">
        <ele>10.4</ele>
        <time>2021-08-05T12:16:43Z</time>
      </trkpt>
      <trkpt lat="47.61447" lon="-2.68386">
        <ele>10.4</ele>
        <time>2021-08-05T12:16:44Z</time>
      </trkpt>
      <trkpt lat="47.61444" lon="-2.68384">
        <ele>10.6</ele>
        <time>2021-08-05T12:16:45Z</time>
      </trkpt>
      <trkpt lat="47.61442" lon="-2.68383">
        <ele>10.8</ele>
        <time>2021-08-05T12:16:46Z</time>
      </trkpt>
      <trkpt lat="47.61439" lon="-2.68382">
        <ele>10.8</ele>
        <time>2021-08-05T12:16:47Z</time>
      </trkpt>
      <trkpt lat="47.61436" lon="-2.68381">
        <ele>10.8</ele>
        <time>2021-08-05T12:16:48Z</time>
      </trkpt>
      <trkpt lat="47.61433" lon="-2.6838">
        <ele>11</ele>
        <time>2021-08-05T12:16:49Z</time>
      </trkpt>
      <trkpt lat="47.6143" lon="-2.68379">
        <ele>11</ele>
        <time>2021-08-05T12:16:50Z</time>
      </trkpt>
      <trkpt lat="47.61428" lon="-2.68378">
        <ele>11</ele>
        <time>2021-08-05T12:16:51Z</time>
      </trkpt>
      <trkpt lat="47.61425" lon="-2.68377">
        <ele>11.2</ele>
        <time>2021-08-05T12:16:52Z</time>
      </trkpt>
      <trkpt lat="47.61422" lon="-2.68376">
        <ele>11.4</ele>
        <time>2021-08-05T12:16:53Z</time>
      </trkpt>
      <trkpt lat="47.61419" lon="-2.68375">
        <ele>11.4</ele>
        <time>2021-08-05T12:16:54Z</time>
      </trkpt>
      <trkpt lat="47.61416" lon="-2.68374">
        <ele>11.4</ele>
        <time>2021-08-05T12:16:55Z</time>
      </trkpt>
      <trkpt lat="47.61412" lon="-2.68373">
        <ele>11.4</ele>
        <time>2021-08-05T12:16:56Z</time>
      </trkpt>
      <trkpt lat="47.61409" lon="-2.68372">
        <ele>11.4</ele>
        <time>2021-08-05T12:16:57Z</time>
      </trkpt>
      <trkpt lat="47.61406" lon="-2.68371">
        <ele>11.4</ele>
        <time>2021-08-05T12:16:58Z</time>
      </trkpt>
      <trkpt lat="47.61403" lon="-2.6837">
        <ele>11.4</ele>
        <time>2021-08-05T12:16:59Z</time>
      </trkpt>
      <trkpt lat="47.614" lon="-2.68369">
        <ele>11.4</ele>
        <time>2021-08-05T12:17:00Z</time>
      </trkpt>
      <trkpt lat="47.61397" lon="-2.68368">
        <ele>11.4</ele>
        <time>2021-08-05T12:17:01Z</time>
      </trkpt>
      <trkpt lat="47.61393" lon="-2.68367">
        <ele>11.4</ele>
        <time>2021-08-05T12:17:02Z</time>
      </trkpt>
      <trkpt lat="47.6139" lon="-2.68366">
        <ele>11.4</ele>
        <time>2021-08-05T12:17:03Z</time>
      </trkpt>
      <trkpt lat="47.61386" lon="-2.68365">
        <ele>11.4</ele>
        <time>2021-08-05T12:17:04Z</time>
      </trkpt>
      <trkpt lat="47.61383" lon="-2.68364">
        <ele>11.4</ele>
        <time>2021-08-05T12:17:05Z</time>
      </trkpt>
      <trkpt lat="47.61379" lon="-2.68363">
        <ele>11.4</ele>
        <time>2021-08-05T12:17:06Z</time>
      </trkpt>
      <trkpt lat="47.61376" lon="-2.68363">
        <ele>11.4</ele>
        <time>2021-08-05T12:17:07Z</time>
      </trkpt>
      <trkpt lat="47.61372" lon="-2.68362">
        <ele>11.4</ele>
        <time>2021-08-05T12:17:08Z</time>
      </trkpt>
      <trkpt lat="47.61369" lon="-2.68361">
        <ele>11.4</ele>
        <time>2021-08-05T12:17:09Z</time>
      </trkpt>
      <trkpt lat="47.61365" lon="-2.6836">
        <ele>11.4</ele>
        <time>2021-08-05T12:17:10Z</time>
      </trkpt>
      <trkpt lat="47.61362" lon="-2.68359">
        <ele>11.4</ele>
        <time>2021-08-05T12:17:11Z</time>
      </trkpt>
      <trkpt lat="47.61358" lon="-2.68359">
        <ele>11.2</ele>
        <time>2021-08-05T12:17:12Z</time>
      </trkpt>
      <trkpt lat="47.61354" lon="-2.68358">
        <ele>11.2</ele>
        <time>2021-08-05T12:17:13Z</time>
      </trkpt>
      <trkpt lat="47.6135" lon="-2.68358">
        <ele>11.2</ele>
        <time>2021-08-05T12:17:14Z</time>
      </trkpt>
      <trkpt lat="47.61346" lon="-2.68358">
        <ele>11.2</ele>
        <time>2021-08-05T12:17:15Z</time>
      </trkpt>
      <trkpt lat="47.61342" lon="-2.68358">
        <ele>11.2</ele>
        <time>2021-08-05T12:17:16Z</time>
      </trkpt>
      <trkpt lat="47.61338" lon="-2.68358">
        <ele>11.2</ele>
        <time>2021-08-05T12:17:17Z</time>
      </trkpt>
      <trkpt lat="47.61334" lon="-2.68357">
        <ele>11.2</ele>
        <time>2021-08-05T12:17:18Z</time>
      </trkpt>
      <trkpt lat="47.6133" lon="-2.68356">
        <ele>11.2</ele>
        <time>2021-08-05T12:17:19Z</time>
      </trkpt>
      <trkpt lat="47.61326" lon="-2.68355">
        <ele>11.2</ele>
        <time>2021-08-05T12:17:20Z</time>
      </trkpt>
      <trkpt lat="47.61322" lon="-2.68354">
        <ele>11.2</ele>
        <time>2021-08-05T12:17:21Z</time>
      </trkpt>
      <trkpt lat="47.61318" lon="-2.68353">
        <ele>11.2</ele>
        <time>2021-08-05T12:17:22Z</time>
      </trkpt>
      <trkpt lat="47.61315" lon="-2.68352">
        <ele>11.2</ele>
        <time>2021-08-05T12:17:23Z</time>
      </trkpt>
      <trkpt lat="47.61311" lon="-2.6835">
        <ele>11.2</ele>
        <time>2021-08-05T12:17:24Z</time>
      </trkpt>
      <trkpt lat="47.61308" lon="-2.68348">
        <ele>11.2</ele>
        <time>2021-08-05T12:17:25Z</time>
      </trkpt>
      <trkpt lat="47.61305" lon="-2.68347">
        <ele>11.4</ele>
        <time>2021-08-05T12:17:26Z</time>
      </trkpt>
      <trkpt lat="47.61301" lon="-2.68346">
        <ele>11.4</ele>
        <time>2021-08-05T12:17:27Z</time>
      </trkpt>
      <trkpt lat="47.61298" lon="-2.68345">
        <ele>11.6</ele>
        <time>2021-08-05T12:17:28Z</time>
      </trkpt>
      <trkpt lat="47.61295" lon="-2.68343">
        <ele>11.8</ele>
        <time>2021-08-05T12:17:29Z</time>
      </trkpt>
      <trkpt lat="47.61291" lon="-2.68342">
        <ele>12</ele>
        <time>2021-08-05T12:17:30Z</time>
      </trkpt>
      <trkpt lat="47.61288" lon="-2.68341">
        <ele>12</ele>
        <time>2021-08-05T12:17:31Z</time>
      </trkpt>
      <trkpt lat="47.61285" lon="-2.68341">
        <ele>12.2</ele>
        <time>2021-08-05T12:17:32Z</time>
      </trkpt>
      <trkpt lat="47.61281" lon="-2.6834">
        <ele>12.2</ele>
        <time>2021-08-05T12:17:33Z</time>
      </trkpt>
      <trkpt lat="47.61278" lon="-2.6834">
        <ele>12.2</ele>
        <time>2021-08-05T12:17:34Z</time>
      </trkpt>
      <trkpt lat="47.61275" lon="-2.68339">
        <ele>12.2</ele>
        <time>2021-08-05T12:17:35Z</time>
      </trkpt>
      <trkpt lat="47.61271" lon="-2.68338">
        <ele>12.2</ele>
        <time>2021-08-05T12:17:36Z</time>
      </trkpt>
      <trkpt lat="47.61268" lon="-2.68338">
        <ele>12.2</ele>
        <time>2021-08-05T12:17:37Z</time>
      </trkpt>
      <trkpt lat="47.61264" lon="-2.68337">
        <ele>12.2</ele>
        <time>2021-08-05T12:17:38Z</time>
      </trkpt>
      <trkpt lat="47.61261" lon="-2.68336">
        <ele>12.2</ele>
        <time>2021-08-05T12:17:39Z</time>
      </trkpt>
      <trkpt lat="47.61257" lon="-2.68336">
        <ele>12.2</ele>
        <time>2021-08-05T12:17:40Z</time>
      </trkpt>
      <trkpt lat="47.61253" lon="-2.68335">
        <ele>12.2</ele>
        <time>2021-08-05T12:17:41Z</time>
      </trkpt>
      <trkpt lat="47.61249" lon="-2.68334">
        <ele>12.4</ele>
        <time>2021-08-05T12:17:42Z</time>
      </trkpt>
      <trkpt lat="47.61245" lon="-2.68333">
        <ele>12.4</ele>
        <time>2021-08-05T12:17:43Z</time>
      </trkpt>
      <trkpt lat="47.6124" lon="-2.68332">
        <ele>12.4</ele>
        <time>2021-08-05T12:17:44Z</time>
      </trkpt>
      <trkpt lat="47.61236" lon="-2.68331">
        <ele>12.6</ele>
        <time>2021-08-05T12:17:45Z</time>
      </trkpt>
      <trkpt lat="47.61232" lon="-2.6833">
        <ele>12.6</ele>
        <time>2021-08-05T12:17:46Z</time>
      </trkpt>
      <trkpt lat="47.61228" lon="-2.68329">
        <ele>12.6</ele>
        <time>2021-08-05T12:17:47Z</time>
      </trkpt>
      <trkpt lat="47.61224" lon="-2.68328">
        <ele>12.6</ele>
        <time>2021-08-05T12:17:48Z</time>
      </trkpt>
      <trkpt lat="47.61221" lon="-2.68327">
        <ele>12.6</ele>
        <time>2021-08-05T12:17:49Z</time>
      </trkpt>
      <trkpt lat="47.61216" lon="-2.68326">
        <ele>12.4</ele>
        <time>2021-08-05T12:17:50Z</time>
      </trkpt>
      <trkpt lat="47.61212" lon="-2.68325">
        <ele>12.4</ele>
        <time>2021-08-05T12:17:51Z</time>
      </trkpt>
      <trkpt lat="47.61208" lon="-2.68324">
        <ele>12.4</ele>
        <time>2021-08-05T12:17:52Z</time>
      </trkpt>
      <trkpt lat="47.61204" lon="-2.68323">
        <ele>12.4</ele>
        <time>2021-08-05T12:17:53Z</time>
      </trkpt>
      <trkpt lat="47.612" lon="-2.68322">
        <ele>12.4</ele>
        <time>2021-08-05T12:17:54Z</time>
      </trkpt>
      <trkpt lat="47.61196" lon="-2.6832">
        <ele>12.6</ele>
        <time>2021-08-05T12:17:55Z</time>
      </trkpt>
      <trkpt lat="47.61193" lon="-2.68319">
        <ele>12.6</ele>
        <time>2021-08-05T12:17:56Z</time>
      </trkpt>
      <trkpt lat="47.61189" lon="-2.68317">
        <ele>12.6</ele>
        <time>2021-08-05T12:17:57Z</time>
      </trkpt>
      <trkpt lat="47.61185" lon="-2.68315">
        <ele>12.6</ele>
        <time>2021-08-05T12:17:58Z</time>
      </trkpt>
      <trkpt lat="47.61181" lon="-2.68313">
        <ele>12.6</ele>
        <time>2021-08-05T12:17:59Z</time>
      </trkpt>
      <trkpt lat="47.61177" lon="-2.68311">
        <ele>12.6</ele>
        <time>2021-08-05T12:18:00Z</time>
      </trkpt>
      <trkpt lat="47.61173" lon="-2.6831">
        <ele>12.6</ele>
        <time>2021-08-05T12:18:01Z</time>
      </trkpt>
      <trkpt lat="47.6117" lon="-2.68308">
        <ele>12.6</ele>
        <time>2021-08-05T12:18:02Z</time>
      </trkpt>
      <trkpt lat="47.61166" lon="-2.68307">
        <ele>12.6</ele>
        <time>2021-08-05T12:18:03Z</time>
      </trkpt>
      <trkpt lat="47.61162" lon="-2.68305">
        <ele>12.6</ele>
        <time>2021-08-05T12:18:04Z</time>
      </trkpt>
      <trkpt lat="47.61159" lon="-2.68303">
        <ele>12.6</ele>
        <time>2021-08-05T12:18:05Z</time>
      </trkpt>
      <trkpt lat="47.61156" lon="-2.68301">
        <ele>12.8</ele>
        <time>2021-08-05T12:18:06Z</time>
      </trkpt>
      <trkpt lat="47.61152" lon="-2.68299">
        <ele>12.8</ele>
        <time>2021-08-05T12:18:07Z</time>
      </trkpt>
      <trkpt lat="47.61149" lon="-2.68298">
        <ele>12.8</ele>
        <time>2021-08-05T12:18:08Z</time>
      </trkpt>
      <trkpt lat="47.61145" lon="-2.68296">
        <ele>12.8</ele>
        <time>2021-08-05T12:18:09Z</time>
      </trkpt>
      <trkpt lat="47.61142" lon="-2.68295">
        <ele>12.8</ele>
        <time>2021-08-05T12:18:10Z</time>
      </trkpt>
      <trkpt lat="47.61139" lon="-2.68293">
        <ele>12.8</ele>
        <time>2021-08-05T12:18:11Z</time>
      </trkpt>
      <trkpt lat="47.61135" lon="-2.68291">
        <ele>12.8</ele>
        <time>2021-08-05T12:18:12Z</time>
      </trkpt>
      <trkpt lat="47.61132" lon="-2.68289">
        <ele>12.8</ele>
        <time>2021-08-05T12:18:13Z</time>
      </trkpt>
      <trkpt lat="47.61129" lon="-2.68288">
        <ele>13</ele>
        <time>2021-08-05T12:18:14Z</time>
      </trkpt>
      <trkpt lat="47.61125" lon="-2.68286">
        <ele>13</ele>
        <time>2021-08-05T12:18:15Z</time>
      </trkpt>
      <trkpt lat="47.61122" lon="-2.68284">
        <ele>13.2</ele>
        <time>2021-08-05T12:18:16Z</time>
      </trkpt>
      <trkpt lat="47.61119" lon="-2.68282">
        <ele>13.4</ele>
        <time>2021-08-05T12:18:17Z</time>
      </trkpt>
      <trkpt lat="47.61115" lon="-2.68281">
        <ele>13.4</ele>
        <time>2021-08-05T12:18:18Z</time>
      </trkpt>
      <trkpt lat="47.61112" lon="-2.68279">
        <ele>13.6</ele>
        <time>2021-08-05T12:18:19Z</time>
      </trkpt>
      <trkpt lat="47.61108" lon="-2.68277">
        <ele>13.6</ele>
        <time>2021-08-05T12:18:20Z</time>
      </trkpt>
      <trkpt lat="47.61105" lon="-2.68276">
        <ele>13.6</ele>
        <time>2021-08-05T12:18:21Z</time>
      </trkpt>
      <trkpt lat="47.61101" lon="-2.68274">
        <ele>13.6</ele>
        <time>2021-08-05T12:18:22Z</time>
      </trkpt>
      <trkpt lat="47.61098" lon="-2.68272">
        <ele>13.6</ele>
        <time>2021-08-05T12:18:23Z</time>
      </trkpt>
      <trkpt lat="47.61095" lon="-2.68269">
        <ele>13.6</ele>
        <time>2021-08-05T12:18:24Z</time>
      </trkpt>
      <trkpt lat="47.61092" lon="-2.68266">
        <ele>13.6</ele>
        <time>2021-08-05T12:18:25Z</time>
      </trkpt>
      <trkpt lat="47.6109" lon="-2.68263">
        <ele>13.8</ele>
        <time>2021-08-05T12:18:26Z</time>
      </trkpt>
      <trkpt lat="47.61087" lon="-2.68259">
        <ele>13.8</ele>
        <time>2021-08-05T12:18:27Z</time>
      </trkpt>
      <trkpt lat="47.61085" lon="-2.68256">
        <ele>13.8</ele>
        <time>2021-08-05T12:18:28Z</time>
      </trkpt>
      <trkpt lat="47.61083" lon="-2.68252">
        <ele>13.8</ele>
        <time>2021-08-05T12:18:29Z</time>
      </trkpt>
      <trkpt lat="47.61081" lon="-2.68248">
        <ele>14</ele>
        <time>2021-08-05T12:18:30Z</time>
      </trkpt>
      <trkpt lat="47.61079" lon="-2.68244">
        <ele>14</ele>
        <time>2021-08-05T12:18:31Z</time>
      </trkpt>
      <trkpt lat="47.61077" lon="-2.68239">
        <ele>14</ele>
        <time>2021-08-05T12:18:32Z</time>
      </trkpt>
      <trkpt lat="47.61075" lon="-2.68234">
        <ele>14.2</ele>
        <time>2021-08-05T12:18:33Z</time>
      </trkpt>
      <trkpt lat="47.61073" lon="-2.68228">
        <ele>14.2</ele>
        <time>2021-08-05T12:18:34Z</time>
      </trkpt>
      <trkpt lat="47.61072" lon="-2.68223">
        <ele>14.4</ele>
        <time>2021-08-05T12:18:35Z</time>
      </trkpt>
      <trkpt lat="47.6107" lon="-2.68218">
        <ele>14.6</ele>
        <time>2021-08-05T12:18:36Z</time>
      </trkpt>
      <trkpt lat="47.61068" lon="-2.68212">
        <ele>14.6</ele>
        <time>2021-08-05T12:18:37Z</time>
      </trkpt>
      <trkpt lat="47.61066" lon="-2.68206">
        <ele>14.8</ele>
        <time>2021-08-05T12:18:38Z</time>
      </trkpt>
      <trkpt lat="47.61065" lon="-2.682">
        <ele>14.8</ele>
        <time>2021-08-05T12:18:39Z</time>
      </trkpt>
      <trkpt lat="47.61063" lon="-2.68193">
        <ele>14.8</ele>
        <time>2021-08-05T12:18:40Z</time>
      </trkpt>
      <trkpt lat="47.61061" lon="-2.68187">
        <ele>15</ele>
        <time>2021-08-05T12:18:41Z</time>
      </trkpt>
      <trkpt lat="47.61059" lon="-2.6818">
        <ele>15</ele>
        <time>2021-08-05T12:18:42Z</time>
      </trkpt>
      <trkpt lat="47.61056" lon="-2.68174">
        <ele>15</ele>
        <time>2021-08-05T12:18:43Z</time>
      </trkpt>
      <trkpt lat="47.61054" lon="-2.68167">
        <ele>15</ele>
        <time>2021-08-05T12:18:44Z</time>
      </trkpt>
      <trkpt lat="47.61051" lon="-2.68161">
        <ele>15</ele>
        <time>2021-08-05T12:18:45Z</time>
      </trkpt>
      <trkpt lat="47.61049" lon="-2.68154">
        <ele>14.8</ele>
        <time>2021-08-05T12:18:46Z</time>
      </trkpt>
      <trkpt lat="47.61046" lon="-2.68147">
        <ele>14.8</ele>
        <time>2021-08-05T12:18:47Z</time>
      </trkpt>
      <trkpt lat="47.61044" lon="-2.68139">
        <ele>14.8</ele>
        <time>2021-08-05T12:18:48Z</time>
      </trkpt>
      <trkpt lat="47.61041" lon="-2.68132">
        <ele>14.6</ele>
        <time>2021-08-05T12:18:49Z</time>
      </trkpt>
      <trkpt lat="47.61038" lon="-2.68124">
        <ele>14.2</ele>
        <time>2021-08-05T12:18:50Z</time>
      </trkpt>
      <trkpt lat="47.61035" lon="-2.68116">
        <ele>14</ele>
        <time>2021-08-05T12:18:51Z</time>
      </trkpt>
      <trkpt lat="47.61033" lon="-2.68108">
        <ele>13.6</ele>
        <time>2021-08-05T12:18:52Z</time>
      </trkpt>
      <trkpt lat="47.6103" lon="-2.681">
        <ele>13.4</ele>
        <time>2021-08-05T12:18:53Z</time>
      </trkpt>
      <trkpt lat="47.61027" lon="-2.68093">
        <ele>13</ele>
        <time>2021-08-05T12:18:54Z</time>
      </trkpt>
      <trkpt lat="47.61024" lon="-2.68085">
        <ele>12.8</ele>
        <time>2021-08-05T12:18:55Z</time>
      </trkpt>
      <trkpt lat="47.61021" lon="-2.68078">
        <ele>12.6</ele>
        <time>2021-08-05T12:18:56Z</time>
      </trkpt>
      <trkpt lat="47.61018" lon="-2.68072">
        <ele>12.2</ele>
        <time>2021-08-05T12:18:57Z</time>
      </trkpt>
      <trkpt lat="47.61015" lon="-2.68065">
        <ele>11.8</ele>
        <time>2021-08-05T12:18:58Z</time>
      </trkpt>
      <trkpt lat="47.61012" lon="-2.68059">
        <ele>11.4</ele>
        <time>2021-08-05T12:18:59Z</time>
      </trkpt>
      <trkpt lat="47.61008" lon="-2.68053">
        <ele>11.2</ele>
        <time>2021-08-05T12:19:00Z</time>
      </trkpt>
      <trkpt lat="47.61004" lon="-2.68048">
        <ele>11.2</ele>
        <time>2021-08-05T12:19:01Z</time>
      </trkpt>
      <trkpt lat="47.61" lon="-2.68044">
        <ele>11</ele>
        <time>2021-08-05T12:19:02Z</time>
      </trkpt>
      <trkpt lat="47.60996" lon="-2.68042">
        <ele>10.8</ele>
        <time>2021-08-05T12:19:03Z</time>
      </trkpt>
      <trkpt lat="47.60991" lon="-2.6804">
        <ele>10.8</ele>
        <time>2021-08-05T12:19:04Z</time>
      </trkpt>
      <trkpt lat="47.60987" lon="-2.68039">
        <ele>10.8</ele>
        <time>2021-08-05T12:19:05Z</time>
      </trkpt>
      <trkpt lat="47.60983" lon="-2.68038">
        <ele>10.6</ele>
        <time>2021-08-05T12:19:06Z</time>
      </trkpt>
      <trkpt lat="47.60978" lon="-2.68038">
        <ele>10.6</ele>
        <time>2021-08-05T12:19:07Z</time>
      </trkpt>
      <trkpt lat="47.60974" lon="-2.68037">
        <ele>10.6</ele>
        <time>2021-08-05T12:19:08Z</time>
      </trkpt>
      <trkpt lat="47.6097" lon="-2.68037">
        <ele>10.6</ele>
        <time>2021-08-05T12:19:09Z</time>
      </trkpt>
      <trkpt lat="47.60967" lon="-2.68037">
        <ele>10.6</ele>
        <time>2021-08-05T12:19:10Z</time>
      </trkpt>
      <trkpt lat="47.60963" lon="-2.68037">
        <ele>10.4</ele>
        <time>2021-08-05T12:19:11Z</time>
      </trkpt>
      <trkpt lat="47.60959" lon="-2.68036">
        <ele>10.4</ele>
        <time>2021-08-05T12:19:12Z</time>
      </trkpt>
      <trkpt lat="47.60955" lon="-2.68036">
        <ele>10.6</ele>
        <time>2021-08-05T12:19:13Z</time>
      </trkpt>
      <trkpt lat="47.60951" lon="-2.68035">
        <ele>10.6</ele>
        <time>2021-08-05T12:19:14Z</time>
      </trkpt>
      <trkpt lat="47.60947" lon="-2.68035">
        <ele>10.6</ele>
        <time>2021-08-05T12:19:15Z</time>
      </trkpt>
      <trkpt lat="47.60943" lon="-2.68035">
        <ele>10.6</ele>
        <time>2021-08-05T12:19:16Z</time>
      </trkpt>
      <trkpt lat="47.60939" lon="-2.68035">
        <ele>10.6</ele>
        <time>2021-08-05T12:19:17Z</time>
      </trkpt>
      <trkpt lat="47.60936" lon="-2.68034">
        <ele>10.8</ele>
        <time>2021-08-05T12:19:18Z</time>
      </trkpt>
      <trkpt lat="47.60933" lon="-2.68032">
        <ele>10.8</ele>
        <time>2021-08-05T12:19:19Z</time>
      </trkpt>
      <trkpt lat="47.6093" lon="-2.68031">
        <ele>10.8</ele>
        <time>2021-08-05T12:19:20Z</time>
      </trkpt>
      <trkpt lat="47.60927" lon="-2.68031">
        <ele>10.6</ele>
        <time>2021-08-05T12:19:21Z</time>
      </trkpt>
      <trkpt lat="47.60923" lon="-2.6803">
        <ele>10.8</ele>
        <time>2021-08-05T12:19:22Z</time>
      </trkpt>
      <trkpt lat="47.6092" lon="-2.68029">
        <ele>10.8</ele>
        <time>2021-08-05T12:19:23Z</time>
      </trkpt>
      <trkpt lat="47.60916" lon="-2.68028">
        <ele>10.8</ele>
        <time>2021-08-05T12:19:24Z</time>
      </trkpt>
      <trkpt lat="47.60913" lon="-2.68026">
        <ele>10.8</ele>
        <time>2021-08-05T12:19:25Z</time>
      </trkpt>
      <trkpt lat="47.60909" lon="-2.68025">
        <ele>10.8</ele>
        <time>2021-08-05T12:19:26Z</time>
      </trkpt>
      <trkpt lat="47.60905" lon="-2.68023">
        <ele>10.8</ele>
        <time>2021-08-05T12:19:27Z</time>
      </trkpt>
      <trkpt lat="47.60901" lon="-2.68022">
        <ele>10.8</ele>
        <time>2021-08-05T12:19:28Z</time>
      </trkpt>
      <trkpt lat="47.60896" lon="-2.6802">
        <ele>10.8</ele>
        <time>2021-08-05T12:19:29Z</time>
      </trkpt>
      <trkpt lat="47.60892" lon="-2.68018">
        <ele>10.8</ele>
        <time>2021-08-05T12:19:30Z</time>
      </trkpt>
      <trkpt lat="47.60888" lon="-2.68017">
        <ele>10.8</ele>
        <time>2021-08-05T12:19:31Z</time>
      </trkpt>
      <trkpt lat="47.60883" lon="-2.68015">
        <ele>10.8</ele>
        <time>2021-08-05T12:19:32Z</time>
      </trkpt>
      <trkpt lat="47.60879" lon="-2.68013">
        <ele>10.8</ele>
        <time>2021-08-05T12:19:33Z</time>
      </trkpt>
      <trkpt lat="47.60874" lon="-2.68011">
        <ele>10.8</ele>
        <time>2021-08-05T12:19:34Z</time>
      </trkpt>
      <trkpt lat="47.6087" lon="-2.68009">
        <ele>10.8</ele>
        <time>2021-08-05T12:19:35Z</time>
      </trkpt>
      <trkpt lat="47.60865" lon="-2.68007">
        <ele>10.6</ele>
        <time>2021-08-05T12:19:36Z</time>
      </trkpt>
      <trkpt lat="47.6086" lon="-2.68005">
        <ele>10.6</ele>
        <time>2021-08-05T12:19:37Z</time>
      </trkpt>
      <trkpt lat="47.60856" lon="-2.68003">
        <ele>10.6</ele>
        <time>2021-08-05T12:19:38Z</time>
      </trkpt>
      <trkpt lat="47.60851" lon="-2.68001">
        <ele>10.6</ele>
        <time>2021-08-05T12:19:39Z</time>
      </trkpt>
      <trkpt lat="47.60846" lon="-2.67999">
        <ele>10.6</ele>
        <time>2021-08-05T12:19:40Z</time>
      </trkpt>
      <trkpt lat="47.60842" lon="-2.67997">
        <ele>10.6</ele>
        <time>2021-08-05T12:19:41Z</time>
      </trkpt>
      <trkpt lat="47.60837" lon="-2.67995">
        <ele>10.6</ele>
        <time>2021-08-05T12:19:42Z</time>
      </trkpt>
      <trkpt lat="47.60833" lon="-2.67993">
        <ele>10.8</ele>
        <time>2021-08-05T12:19:43Z</time>
      </trkpt>
      <trkpt lat="47.60829" lon="-2.67991">
        <ele>10.8</ele>
        <time>2021-08-05T12:19:44Z</time>
      </trkpt>
      <trkpt lat="47.60825" lon="-2.67989">
        <ele>10.8</ele>
        <time>2021-08-05T12:19:45Z</time>
      </trkpt>
      <trkpt lat="47.60821" lon="-2.67987">
        <ele>10.8</ele>
        <time>2021-08-05T12:19:46Z</time>
      </trkpt>
      <trkpt lat="47.60817" lon="-2.67985">
        <ele>10.8</ele>
        <time>2021-08-05T12:19:47Z</time>
      </trkpt>
      <trkpt lat="47.60813" lon="-2.67983">
        <ele>10.8</ele>
        <time>2021-08-05T12:19:48Z</time>
      </trkpt>
      <trkpt lat="47.6081" lon="-2.67981">
        <ele>10.8</ele>
        <time>2021-08-05T12:19:49Z</time>
      </trkpt>
      <trkpt lat="47.60806" lon="-2.67979">
        <ele>10.8</ele>
        <time>2021-08-05T12:19:50Z</time>
      </trkpt>
      <trkpt lat="47.60803" lon="-2.67977">
        <ele>11</ele>
        <time>2021-08-05T12:19:51Z</time>
      </trkpt>
      <trkpt lat="47.608" lon="-2.67976">
        <ele>11</ele>
        <time>2021-08-05T12:19:52Z</time>
      </trkpt>
      <trkpt lat="47.60796" lon="-2.67974">
        <ele>11</ele>
        <time>2021-08-05T12:19:53Z</time>
      </trkpt>
      <trkpt lat="47.60793" lon="-2.67972">
        <ele>11</ele>
        <time>2021-08-05T12:19:54Z</time>
      </trkpt>
      <trkpt lat="47.6079" lon="-2.6797">
        <ele>11</ele>
        <time>2021-08-05T12:19:55Z</time>
      </trkpt>
      <trkpt lat="47.60786" lon="-2.67968">
        <ele>11</ele>
        <time>2021-08-05T12:19:56Z</time>
      </trkpt>
      <trkpt lat="47.60783" lon="-2.67966">
        <ele>11</ele>
        <time>2021-08-05T12:19:57Z</time>
      </trkpt>
      <trkpt lat="47.6078" lon="-2.67964">
        <ele>11.2</ele>
        <time>2021-08-05T12:19:58Z</time>
      </trkpt>
      <trkpt lat="47.60777" lon="-2.67962">
        <ele>11.2</ele>
        <time>2021-08-05T12:19:59Z</time>
      </trkpt>
      <trkpt lat="47.60774" lon="-2.6796">
        <ele>11.4</ele>
        <time>2021-08-05T12:20:00Z</time>
      </trkpt>
      <trkpt lat="47.60771" lon="-2.67958">
        <ele>11.4</ele>
        <time>2021-08-05T12:20:01Z</time>
      </trkpt>
      <trkpt lat="47.60767" lon="-2.67956">
        <ele>11.4</ele>
        <time>2021-08-05T12:20:02Z</time>
      </trkpt>
      <trkpt lat="47.60764" lon="-2.67954">
        <ele>11.6</ele>
        <time>2021-08-05T12:20:03Z</time>
      </trkpt>
      <trkpt lat="47.60761" lon="-2.67953">
        <ele>11.6</ele>
        <time>2021-08-05T12:20:04Z</time>
      </trkpt>
      <trkpt lat="47.60758" lon="-2.67951">
        <ele>11.8</ele>
        <time>2021-08-05T12:20:05Z</time>
      </trkpt>
      <trkpt lat="47.60755" lon="-2.67949">
        <ele>12</ele>
        <time>2021-08-05T12:20:06Z</time>
      </trkpt>
      <trkpt lat="47.60752" lon="-2.67948">
        <ele>12.2</ele>
        <time>2021-08-05T12:20:07Z</time>
      </trkpt>
      <trkpt lat="47.60749" lon="-2.67946">
        <ele>12.2</ele>
        <time>2021-08-05T12:20:08Z</time>
      </trkpt>
      <trkpt lat="47.60747" lon="-2.67944">
        <ele>12.4</ele>
        <time>2021-08-05T12:20:09Z</time>
      </trkpt>
      <trkpt lat="47.60744" lon="-2.67943">
        <ele>12.4</ele>
        <time>2021-08-05T12:20:10Z</time>
      </trkpt>
      <trkpt lat="47.60741" lon="-2.67941">
        <ele>12.4</ele>
        <time>2021-08-05T12:20:11Z</time>
      </trkpt>
      <trkpt lat="47.60737" lon="-2.67939">
        <ele>12.4</ele>
        <time>2021-08-05T12:20:12Z</time>
      </trkpt>
      <trkpt lat="47.60734" lon="-2.67937">
        <ele>12.4</ele>
        <time>2021-08-05T12:20:13Z</time>
      </trkpt>
      <trkpt lat="47.60731" lon="-2.67936">
        <ele>12.4</ele>
        <time>2021-08-05T12:20:14Z</time>
      </trkpt>
      <trkpt lat="47.60727" lon="-2.67934">
        <ele>12.8</ele>
        <time>2021-08-05T12:20:15Z</time>
      </trkpt>
      <trkpt lat="47.60724" lon="-2.67932">
        <ele>12.8</ele>
        <time>2021-08-05T12:20:16Z</time>
      </trkpt>
      <trkpt lat="47.6072" lon="-2.6793">
        <ele>12.8</ele>
        <time>2021-08-05T12:20:17Z</time>
      </trkpt>
      <trkpt lat="47.60717" lon="-2.67928">
        <ele>12.8</ele>
        <time>2021-08-05T12:20:18Z</time>
      </trkpt>
      <trkpt lat="47.60713" lon="-2.67926">
        <ele>12.8</ele>
        <time>2021-08-05T12:20:19Z</time>
      </trkpt>
      <trkpt lat="47.6071" lon="-2.67924">
        <ele>12.8</ele>
        <time>2021-08-05T12:20:20Z</time>
      </trkpt>
      <trkpt lat="47.60707" lon="-2.67922">
        <ele>12.8</ele>
        <time>2021-08-05T12:20:21Z</time>
      </trkpt>
      <trkpt lat="47.60703" lon="-2.6792">
        <ele>13</ele>
        <time>2021-08-05T12:20:22Z</time>
      </trkpt>
      <trkpt lat="47.60699" lon="-2.67918">
        <ele>13.2</ele>
        <time>2021-08-05T12:20:23Z</time>
      </trkpt>
      <trkpt lat="47.60696" lon="-2.67916">
        <ele>13.4</ele>
        <time>2021-08-05T12:20:24Z</time>
      </trkpt>
      <trkpt lat="47.60692" lon="-2.67914">
        <ele>13.6</ele>
        <time>2021-08-05T12:20:25Z</time>
      </trkpt>
      <trkpt lat="47.60689" lon="-2.67913">
        <ele>13.6</ele>
        <time>2021-08-05T12:20:26Z</time>
      </trkpt>
      <trkpt lat="47.60686" lon="-2.67911">
        <ele>13.8</ele>
        <time>2021-08-05T12:20:27Z</time>
      </trkpt>
      <trkpt lat="47.60682" lon="-2.67909">
        <ele>13.8</ele>
        <time>2021-08-05T12:20:28Z</time>
      </trkpt>
      <trkpt lat="47.60679" lon="-2.67907">
        <ele>14</ele>
        <time>2021-08-05T12:20:29Z</time>
      </trkpt>
      <trkpt lat="47.60675" lon="-2.67905">
        <ele>14</ele>
        <time>2021-08-05T12:20:30Z</time>
      </trkpt>
      <trkpt lat="47.60671" lon="-2.67903">
        <ele>14</ele>
        <time>2021-08-05T12:20:31Z</time>
      </trkpt>
      <trkpt lat="47.60668" lon="-2.67901">
        <ele>14</ele>
        <time>2021-08-05T12:20:32Z</time>
      </trkpt>
      <trkpt lat="47.60664" lon="-2.67899">
        <ele>14</ele>
        <time>2021-08-05T12:20:33Z</time>
      </trkpt>
      <trkpt lat="47.6066" lon="-2.67897">
        <ele>14</ele>
        <time>2021-08-05T12:20:34Z</time>
      </trkpt>
      <trkpt lat="47.60656" lon="-2.67895">
        <ele>14</ele>
        <time>2021-08-05T12:20:35Z</time>
      </trkpt>
      <trkpt lat="47.60652" lon="-2.67893">
        <ele>14</ele>
        <time>2021-08-05T12:20:36Z</time>
      </trkpt>
      <trkpt lat="47.60648" lon="-2.67892">
        <ele>14</ele>
        <time>2021-08-05T12:20:37Z</time>
      </trkpt>
      <trkpt lat="47.60643" lon="-2.6789">
        <ele>14</ele>
        <time>2021-08-05T12:20:38Z</time>
      </trkpt>
      <trkpt lat="47.60639" lon="-2.67888">
        <ele>14</ele>
        <time>2021-08-05T12:20:39Z</time>
      </trkpt>
      <trkpt lat="47.60634" lon="-2.67887">
        <ele>14</ele>
        <time>2021-08-05T12:20:40Z</time>
      </trkpt>
      <trkpt lat="47.6063" lon="-2.67886">
        <ele>14</ele>
        <time>2021-08-05T12:20:41Z</time>
      </trkpt>
      <trkpt lat="47.60625" lon="-2.67886">
        <ele>14</ele>
        <time>2021-08-05T12:20:42Z</time>
      </trkpt>
      <trkpt lat="47.6062" lon="-2.67885">
        <ele>14</ele>
        <time>2021-08-05T12:20:43Z</time>
      </trkpt>
      <trkpt lat="47.60616" lon="-2.67885">
        <ele>13.8</ele>
        <time>2021-08-05T12:20:44Z</time>
      </trkpt>
      <trkpt lat="47.60611" lon="-2.67884">
        <ele>13.8</ele>
        <time>2021-08-05T12:20:45Z</time>
      </trkpt>
      <trkpt lat="47.60607" lon="-2.67884">
        <ele>13.8</ele>
        <time>2021-08-05T12:20:46Z</time>
      </trkpt>
      <trkpt lat="47.60602" lon="-2.67884">
        <ele>13.8</ele>
        <time>2021-08-05T12:20:47Z</time>
      </trkpt>
      <trkpt lat="47.60598" lon="-2.67884">
        <ele>13.4</ele>
        <time>2021-08-05T12:20:48Z</time>
      </trkpt>
      <trkpt lat="47.60594" lon="-2.67885">
        <ele>13.2</ele>
        <time>2021-08-05T12:20:49Z</time>
      </trkpt>
      <trkpt lat="47.60589" lon="-2.67884">
        <ele>13</ele>
        <time>2021-08-05T12:20:50Z</time>
      </trkpt>
      <trkpt lat="47.60585" lon="-2.67884">
        <ele>12.8</ele>
        <time>2021-08-05T12:20:51Z</time>
      </trkpt>
      <trkpt lat="47.60581" lon="-2.67884">
        <ele>12.8</ele>
        <time>2021-08-05T12:20:52Z</time>
      </trkpt>
      <trkpt lat="47.60577" lon="-2.67884">
        <ele>12.8</ele>
        <time>2021-08-05T12:20:53Z</time>
      </trkpt>
      <trkpt lat="47.60573" lon="-2.67884">
        <ele>12.8</ele>
        <time>2021-08-05T12:20:54Z</time>
      </trkpt>
      <trkpt lat="47.60569" lon="-2.67883">
        <ele>12.8</ele>
        <time>2021-08-05T12:20:55Z</time>
      </trkpt>
      <trkpt lat="47.60565" lon="-2.67883">
        <ele>12.8</ele>
        <time>2021-08-05T12:20:56Z</time>
      </trkpt>
      <trkpt lat="47.60561" lon="-2.67882">
        <ele>12.8</ele>
        <time>2021-08-05T12:20:57Z</time>
      </trkpt>
      <trkpt lat="47.60557" lon="-2.67882">
        <ele>12.6</ele>
        <time>2021-08-05T12:20:58Z</time>
      </trkpt>
      <trkpt lat="47.60553" lon="-2.67881">
        <ele>12.6</ele>
        <time>2021-08-05T12:20:59Z</time>
      </trkpt>
      <trkpt lat="47.60549" lon="-2.6788">
        <ele>12.6</ele>
        <time>2021-08-05T12:21:00Z</time>
      </trkpt>
      <trkpt lat="47.60544" lon="-2.67879">
        <ele>12.6</ele>
        <time>2021-08-05T12:21:01Z</time>
      </trkpt>
      <trkpt lat="47.6054" lon="-2.67879">
        <ele>12.6</ele>
        <time>2021-08-05T12:21:02Z</time>
      </trkpt>
      <trkpt lat="47.60535" lon="-2.67878">
        <ele>12.6</ele>
        <time>2021-08-05T12:21:03Z</time>
      </trkpt>
      <trkpt lat="47.6053" lon="-2.67877">
        <ele>12.6</ele>
        <time>2021-08-05T12:21:04Z</time>
      </trkpt>
      <trkpt lat="47.60526" lon="-2.67877">
        <ele>12.6</ele>
        <time>2021-08-05T12:21:05Z</time>
      </trkpt>
      <trkpt lat="47.60521" lon="-2.67877">
        <ele>12.6</ele>
        <time>2021-08-05T12:21:06Z</time>
      </trkpt>
      <trkpt lat="47.60516" lon="-2.67877">
        <ele>12.6</ele>
        <time>2021-08-05T12:21:07Z</time>
      </trkpt>
      <trkpt lat="47.60511" lon="-2.67877">
        <ele>12.6</ele>
        <time>2021-08-05T12:21:08Z</time>
      </trkpt>
      <trkpt lat="47.60506" lon="-2.67878">
        <ele>12.6</ele>
        <time>2021-08-05T12:21:09Z</time>
      </trkpt>
      <trkpt lat="47.60502" lon="-2.67879">
        <ele>12.6</ele>
        <time>2021-08-05T12:21:10Z</time>
      </trkpt>
      <trkpt lat="47.60497" lon="-2.6788">
        <ele>12.4</ele>
        <time>2021-08-05T12:21:11Z</time>
      </trkpt>
      <trkpt lat="47.60493" lon="-2.67881">
        <ele>12.2</ele>
        <time>2021-08-05T12:21:12Z</time>
      </trkpt>
      <trkpt lat="47.60488" lon="-2.67883">
        <ele>12.2</ele>
        <time>2021-08-05T12:21:13Z</time>
      </trkpt>
      <trkpt lat="47.60484" lon="-2.67884">
        <ele>12.2</ele>
        <time>2021-08-05T12:21:14Z</time>
      </trkpt>
      <trkpt lat="47.6048" lon="-2.67886">
        <ele>12.2</ele>
        <time>2021-08-05T12:21:15Z</time>
      </trkpt>
      <trkpt lat="47.60476" lon="-2.67888">
        <ele>12.2</ele>
        <time>2021-08-05T12:21:16Z</time>
      </trkpt>
      <trkpt lat="47.60472" lon="-2.67889">
        <ele>12.2</ele>
        <time>2021-08-05T12:21:17Z</time>
      </trkpt>
      <trkpt lat="47.60468" lon="-2.67891">
        <ele>12.2</ele>
        <time>2021-08-05T12:21:18Z</time>
      </trkpt>
      <trkpt lat="47.60464" lon="-2.67892">
        <ele>12.2</ele>
        <time>2021-08-05T12:21:19Z</time>
      </trkpt>
      <trkpt lat="47.6046" lon="-2.67894">
        <ele>12</ele>
        <time>2021-08-05T12:21:20Z</time>
      </trkpt>
      <trkpt lat="47.60456" lon="-2.67895">
        <ele>12</ele>
        <time>2021-08-05T12:21:21Z</time>
      </trkpt>
      <trkpt lat="47.60452" lon="-2.67896">
        <ele>12</ele>
        <time>2021-08-05T12:21:22Z</time>
      </trkpt>
      <trkpt lat="47.60448" lon="-2.67897">
        <ele>12</ele>
        <time>2021-08-05T12:21:23Z</time>
      </trkpt>
      <trkpt lat="47.60444" lon="-2.67898">
        <ele>12</ele>
        <time>2021-08-05T12:21:24Z</time>
      </trkpt>
      <trkpt lat="47.6044" lon="-2.67899">
        <ele>12</ele>
        <time>2021-08-05T12:21:25Z</time>
      </trkpt>
      <trkpt lat="47.60437" lon="-2.67899">
        <ele>12.4</ele>
        <time>2021-08-05T12:21:26Z</time>
      </trkpt>
      <trkpt lat="47.60433" lon="-2.679">
        <ele>12.4</ele>
        <time>2021-08-05T12:21:27Z</time>
      </trkpt>
      <trkpt lat="47.60429" lon="-2.67901">
        <ele>12.6</ele>
        <time>2021-08-05T12:21:28Z</time>
      </trkpt>
      <trkpt lat="47.60424" lon="-2.67901">
        <ele>12.6</ele>
        <time>2021-08-05T12:21:29Z</time>
      </trkpt>
      <trkpt lat="47.6042" lon="-2.67902">
        <ele>12.6</ele>
        <time>2021-08-05T12:21:30Z</time>
      </trkpt>
      <trkpt lat="47.60416" lon="-2.67902">
        <ele>12.6</ele>
        <time>2021-08-05T12:21:31Z</time>
      </trkpt>
      <trkpt lat="47.60412" lon="-2.67902">
        <ele>12.8</ele>
        <time>2021-08-05T12:21:32Z</time>
      </trkpt>
      <trkpt lat="47.60408" lon="-2.67902">
        <ele>12.8</ele>
        <time>2021-08-05T12:21:33Z</time>
      </trkpt>
      <trkpt lat="47.60404" lon="-2.67903">
        <ele>12.8</ele>
        <time>2021-08-05T12:21:34Z</time>
      </trkpt>
      <trkpt lat="47.604" lon="-2.67903">
        <ele>12.8</ele>
        <time>2021-08-05T12:21:35Z</time>
      </trkpt>
      <trkpt lat="47.60396" lon="-2.67903">
        <ele>12.8</ele>
        <time>2021-08-05T12:21:36Z</time>
      </trkpt>
      <trkpt lat="47.60391" lon="-2.67903">
        <ele>12.8</ele>
        <time>2021-08-05T12:21:37Z</time>
      </trkpt>
      <trkpt lat="47.60387" lon="-2.67903">
        <ele>12.8</ele>
        <time>2021-08-05T12:21:38Z</time>
      </trkpt>
      <trkpt lat="47.60384" lon="-2.67904">
        <ele>12.8</ele>
        <time>2021-08-05T12:21:39Z</time>
      </trkpt>
      <trkpt lat="47.6038" lon="-2.67904">
        <ele>12.8</ele>
        <time>2021-08-05T12:21:40Z</time>
      </trkpt>
      <trkpt lat="47.60376" lon="-2.67904">
        <ele>12.6</ele>
        <time>2021-08-05T12:21:41Z</time>
      </trkpt>
      <trkpt lat="47.60372" lon="-2.67904">
        <ele>12.6</ele>
        <time>2021-08-05T12:21:42Z</time>
      </trkpt>
      <trkpt lat="47.60368" lon="-2.67905">
        <ele>12.6</ele>
        <time>2021-08-05T12:21:43Z</time>
      </trkpt>
      <trkpt lat="47.60365" lon="-2.67905">
        <ele>12.6</ele>
        <time>2021-08-05T12:21:44Z</time>
      </trkpt>
      <trkpt lat="47.60361" lon="-2.67905">
        <ele>12.6</ele>
        <time>2021-08-05T12:21:45Z</time>
      </trkpt>
      <trkpt lat="47.60357" lon="-2.67905">
        <ele>12.6</ele>
        <time>2021-08-05T12:21:46Z</time>
      </trkpt>
      <trkpt lat="47.60354" lon="-2.67906">
        <ele>12.6</ele>
        <time>2021-08-05T12:21:47Z</time>
      </trkpt>
      <trkpt lat="47.6035" lon="-2.67906">
        <ele>12.6</ele>
        <time>2021-08-05T12:21:48Z</time>
      </trkpt>
      <trkpt lat="47.60346" lon="-2.67907">
        <ele>12.6</ele>
        <time>2021-08-05T12:21:49Z</time>
      </trkpt>
      <trkpt lat="47.60342" lon="-2.67907">
        <ele>12.4</ele>
        <time>2021-08-05T12:21:50Z</time>
      </trkpt>
      <trkpt lat="47.60339" lon="-2.67908">
        <ele>12.4</ele>
        <time>2021-08-05T12:21:51Z</time>
      </trkpt>
      <trkpt lat="47.60335" lon="-2.67909">
        <ele>12.4</ele>
        <time>2021-08-05T12:21:52Z</time>
      </trkpt>
      <trkpt lat="47.60331" lon="-2.67909">
        <ele>12.4</ele>
        <time>2021-08-05T12:21:53Z</time>
      </trkpt>
      <trkpt lat="47.60328" lon="-2.6791">
        <ele>12.4</ele>
        <time>2021-08-05T12:21:54Z</time>
      </trkpt>
      <trkpt lat="47.60324" lon="-2.6791">
        <ele>12.4</ele>
        <time>2021-08-05T12:21:55Z</time>
      </trkpt>
      <trkpt lat="47.6032" lon="-2.67911">
        <ele>12.4</ele>
        <time>2021-08-05T12:21:56Z</time>
      </trkpt>
      <trkpt lat="47.60316" lon="-2.67912">
        <ele>12.4</ele>
        <time>2021-08-05T12:21:57Z</time>
      </trkpt>
      <trkpt lat="47.60313" lon="-2.67913">
        <ele>12.4</ele>
        <time>2021-08-05T12:21:58Z</time>
      </trkpt>
      <trkpt lat="47.60309" lon="-2.67913">
        <ele>12.4</ele>
        <time>2021-08-05T12:21:59Z</time>
      </trkpt>
      <trkpt lat="47.60305" lon="-2.67914">
        <ele>12.4</ele>
        <time>2021-08-05T12:22:00Z</time>
      </trkpt>
      <trkpt lat="47.60301" lon="-2.67915">
        <ele>12.4</ele>
        <time>2021-08-05T12:22:01Z</time>
      </trkpt>
      <trkpt lat="47.60298" lon="-2.67916">
        <ele>12.4</ele>
        <time>2021-08-05T12:22:02Z</time>
      </trkpt>
      <trkpt lat="47.60294" lon="-2.67917">
        <ele>12.4</ele>
        <time>2021-08-05T12:22:03Z</time>
      </trkpt>
      <trkpt lat="47.6029" lon="-2.67918">
        <ele>12.4</ele>
        <time>2021-08-05T12:22:04Z</time>
      </trkpt>
      <trkpt lat="47.60286" lon="-2.67919">
        <ele>12.4</ele>
        <time>2021-08-05T12:22:05Z</time>
      </trkpt>
      <trkpt lat="47.60283" lon="-2.6792">
        <ele>12.6</ele>
        <time>2021-08-05T12:22:06Z</time>
      </trkpt>
      <trkpt lat="47.60279" lon="-2.67921">
        <ele>12.6</ele>
        <time>2021-08-05T12:22:07Z</time>
      </trkpt>
      <trkpt lat="47.60276" lon="-2.67921">
        <ele>12.8</ele>
        <time>2021-08-05T12:22:08Z</time>
      </trkpt>
      <trkpt lat="47.60273" lon="-2.67922">
        <ele>12.8</ele>
        <time>2021-08-05T12:22:09Z</time>
      </trkpt>
      <trkpt lat="47.6027" lon="-2.67923">
        <ele>12.8</ele>
        <time>2021-08-05T12:22:10Z</time>
      </trkpt>
      <trkpt lat="47.60267" lon="-2.67924">
        <ele>12.8</ele>
        <time>2021-08-05T12:22:11Z</time>
      </trkpt>
      <trkpt lat="47.60264" lon="-2.67924">
        <ele>12.8</ele>
        <time>2021-08-05T12:22:12Z</time>
      </trkpt>
      <trkpt lat="47.60261" lon="-2.67925">
        <ele>12.8</ele>
        <time>2021-08-05T12:22:13Z</time>
      </trkpt>
      <trkpt lat="47.60258" lon="-2.67925">
        <ele>12.8</ele>
        <time>2021-08-05T12:22:14Z</time>
      </trkpt>
      <trkpt lat="47.60255" lon="-2.67926">
        <ele>12.8</ele>
        <time>2021-08-05T12:22:15Z</time>
      </trkpt>
      <trkpt lat="47.60252" lon="-2.67926">
        <ele>13</ele>
        <time>2021-08-05T12:22:16Z</time>
      </trkpt>
      <trkpt lat="47.60249" lon="-2.67927">
        <ele>13</ele>
        <time>2021-08-05T12:22:17Z</time>
      </trkpt>
      <trkpt lat="47.60246" lon="-2.67928">
        <ele>13</ele>
        <time>2021-08-05T12:22:18Z</time>
      </trkpt>
      <trkpt lat="47.60243" lon="-2.67928">
        <ele>13</ele>
        <time>2021-08-05T12:22:19Z</time>
      </trkpt>
      <trkpt lat="47.6024" lon="-2.67929">
        <ele>13</ele>
        <time>2021-08-05T12:22:20Z</time>
      </trkpt>
      <trkpt lat="47.60237" lon="-2.67929">
        <ele>13</ele>
        <time>2021-08-05T12:22:21Z</time>
      </trkpt>
      <trkpt lat="47.60234" lon="-2.67929">
        <ele>13.2</ele>
        <time>2021-08-05T12:22:22Z</time>
      </trkpt>
      <trkpt lat="47.60231" lon="-2.67929">
        <ele>13.2</ele>
        <time>2021-08-05T12:22:23Z</time>
      </trkpt>
      <trkpt lat="47.60227" lon="-2.6793">
        <ele>13.2</ele>
        <time>2021-08-05T12:22:24Z</time>
      </trkpt>
      <trkpt lat="47.60224" lon="-2.6793">
        <ele>13</ele>
        <time>2021-08-05T12:22:25Z</time>
      </trkpt>
      <trkpt lat="47.60221" lon="-2.6793">
        <ele>13</ele>
        <time>2021-08-05T12:22:26Z</time>
      </trkpt>
      <trkpt lat="47.60218" lon="-2.6793">
        <ele>13</ele>
        <time>2021-08-05T12:22:27Z</time>
      </trkpt>
      <trkpt lat="47.60215" lon="-2.6793">
        <ele>13</ele>
        <time>2021-08-05T12:22:28Z</time>
      </trkpt>
      <trkpt lat="47.60213" lon="-2.6793">
        <ele>13.2</ele>
        <time>2021-08-05T12:22:29Z</time>
      </trkpt>
      <trkpt lat="47.6021" lon="-2.6793">
        <ele>13.2</ele>
        <time>2021-08-05T12:22:30Z</time>
      </trkpt>
      <trkpt lat="47.60207" lon="-2.6793">
        <ele>13.2</ele>
        <time>2021-08-05T12:22:31Z</time>
      </trkpt>
      <trkpt lat="47.60204" lon="-2.6793">
        <ele>13.4</ele>
        <time>2021-08-05T12:22:32Z</time>
      </trkpt>
      <trkpt lat="47.60201" lon="-2.67931">
        <ele>13.4</ele>
        <time>2021-08-05T12:22:33Z</time>
      </trkpt>
      <trkpt lat="47.60198" lon="-2.67931">
        <ele>13.4</ele>
        <time>2021-08-05T12:22:34Z</time>
      </trkpt>
      <trkpt lat="47.60195" lon="-2.67931">
        <ele>13.4</ele>
        <time>2021-08-05T12:22:35Z</time>
      </trkpt>
      <trkpt lat="47.60192" lon="-2.67931">
        <ele>13.4</ele>
        <time>2021-08-05T12:22:36Z</time>
      </trkpt>
      <trkpt lat="47.60189" lon="-2.67932">
        <ele>13.6</ele>
        <time>2021-08-05T12:22:37Z</time>
      </trkpt>
      <trkpt lat="47.60186" lon="-2.67932">
        <ele>13.6</ele>
        <time>2021-08-05T12:22:38Z</time>
      </trkpt>
      <trkpt lat="47.60183" lon="-2.67932">
        <ele>13.6</ele>
        <time>2021-08-05T12:22:39Z</time>
      </trkpt>
      <trkpt lat="47.6018" lon="-2.67933">
        <ele>13.8</ele>
        <time>2021-08-05T12:22:40Z</time>
      </trkpt>
      <trkpt lat="47.60177" lon="-2.67933">
        <ele>13.8</ele>
        <time>2021-08-05T12:22:41Z</time>
      </trkpt>
      <trkpt lat="47.60175" lon="-2.67934">
        <ele>13.8</ele>
        <time>2021-08-05T12:22:42Z</time>
      </trkpt>
      <trkpt lat="47.60172" lon="-2.67934">
        <ele>14</ele>
        <time>2021-08-05T12:22:43Z</time>
      </trkpt>
      <trkpt lat="47.60169" lon="-2.67935">
        <ele>14</ele>
        <time>2021-08-05T12:22:44Z</time>
      </trkpt>
      <trkpt lat="47.60166" lon="-2.67936">
        <ele>14</ele>
        <time>2021-08-05T12:22:45Z</time>
      </trkpt>
      <trkpt lat="47.60164" lon="-2.67937">
        <ele>14</ele>
        <time>2021-08-05T12:22:46Z</time>
      </trkpt>
      <trkpt lat="47.60161" lon="-2.67938">
        <ele>14</ele>
        <time>2021-08-05T12:22:47Z</time>
      </trkpt>
      <trkpt lat="47.60158" lon="-2.67939">
        <ele>14.2</ele>
        <time>2021-08-05T12:22:48Z</time>
      </trkpt>
      <trkpt lat="47.60155" lon="-2.6794">
        <ele>14.2</ele>
        <time>2021-08-05T12:22:49Z</time>
      </trkpt>
      <trkpt lat="47.60152" lon="-2.67941">
        <ele>14.2</ele>
        <time>2021-08-05T12:22:50Z</time>
      </trkpt>
      <trkpt lat="47.60148" lon="-2.67941">
        <ele>14.2</ele>
        <time>2021-08-05T12:22:51Z</time>
      </trkpt>
      <trkpt lat="47.60145" lon="-2.67943">
        <ele>14.2</ele>
        <time>2021-08-05T12:22:52Z</time>
      </trkpt>
      <trkpt lat="47.60142" lon="-2.67944">
        <ele>14.2</ele>
        <time>2021-08-05T12:22:53Z</time>
      </trkpt>
      <trkpt lat="47.60139" lon="-2.67945">
        <ele>14.4</ele>
        <time>2021-08-05T12:22:54Z</time>
      </trkpt>
      <trkpt lat="47.60136" lon="-2.67946">
        <ele>14.4</ele>
        <time>2021-08-05T12:22:55Z</time>
      </trkpt>
      <trkpt lat="47.60133" lon="-2.67948">
        <ele>14.4</ele>
        <time>2021-08-05T12:22:56Z</time>
      </trkpt>
      <trkpt lat="47.6013" lon="-2.67949">
        <ele>14.4</ele>
        <time>2021-08-05T12:22:57Z</time>
      </trkpt>
      <trkpt lat="47.60127" lon="-2.67951">
        <ele>14.4</ele>
        <time>2021-08-05T12:22:58Z</time>
      </trkpt>
      <trkpt lat="47.60124" lon="-2.67952">
        <ele>14.4</ele>
        <time>2021-08-05T12:22:59Z</time>
      </trkpt>
      <trkpt lat="47.60121" lon="-2.67954">
        <ele>14.6</ele>
        <time>2021-08-05T12:23:00Z</time>
      </trkpt>
      <trkpt lat="47.60118" lon="-2.67956">
        <ele>14.6</ele>
        <time>2021-08-05T12:23:01Z</time>
      </trkpt>
      <trkpt lat="47.60115" lon="-2.67958">
        <ele>14.6</ele>
        <time>2021-08-05T12:23:02Z</time>
      </trkpt>
      <trkpt lat="47.60112" lon="-2.6796">
        <ele>14.6</ele>
        <time>2021-08-05T12:23:03Z</time>
      </trkpt>
      <trkpt lat="47.60109" lon="-2.67963">
        <ele>14.6</ele>
        <time>2021-08-05T12:23:04Z</time>
      </trkpt>
      <trkpt lat="47.60106" lon="-2.67965">
        <ele>14.6</ele>
        <time>2021-08-05T12:23:05Z</time>
      </trkpt>
      <trkpt lat="47.60102" lon="-2.67967">
        <ele>14.6</ele>
        <time>2021-08-05T12:23:06Z</time>
      </trkpt>
      <trkpt lat="47.60099" lon="-2.6797">
        <ele>14.8</ele>
        <time>2021-08-05T12:23:07Z</time>
      </trkpt>
      <trkpt lat="47.60096" lon="-2.67972">
        <ele>14.8</ele>
        <time>2021-08-05T12:23:08Z</time>
      </trkpt>
      <trkpt lat="47.60093" lon="-2.67975">
        <ele>14.8</ele>
        <time>2021-08-05T12:23:09Z</time>
      </trkpt>
      <trkpt lat="47.6009" lon="-2.67977">
        <ele>14.8</ele>
        <time>2021-08-05T12:23:10Z</time>
      </trkpt>
      <trkpt lat="47.60087" lon="-2.6798">
        <ele>14.6</ele>
        <time>2021-08-05T12:23:11Z</time>
      </trkpt>
      <trkpt lat="47.60084" lon="-2.67983">
        <ele>14.6</ele>
        <time>2021-08-05T12:23:12Z</time>
      </trkpt>
      <trkpt lat="47.60081" lon="-2.67985">
        <ele>14.6</ele>
        <time>2021-08-05T12:23:13Z</time>
      </trkpt>
      <trkpt lat="47.60078" lon="-2.67987">
        <ele>14.4</ele>
        <time>2021-08-05T12:23:14Z</time>
      </trkpt>
      <trkpt lat="47.60075" lon="-2.6799">
        <ele>14</ele>
        <time>2021-08-05T12:23:15Z</time>
      </trkpt>
      <trkpt lat="47.60072" lon="-2.67993">
        <ele>13.6</ele>
        <time>2021-08-05T12:23:16Z</time>
      </trkpt>
      <trkpt lat="47.60069" lon="-2.67995">
        <ele>13.2</ele>
        <time>2021-08-05T12:23:17Z</time>
      </trkpt>
      <trkpt lat="47.60066" lon="-2.67998">
        <ele>13</ele>
        <time>2021-08-05T12:23:18Z</time>
      </trkpt>
      <trkpt lat="47.60064" lon="-2.68">
        <ele>13</ele>
        <time>2021-08-05T12:23:19Z</time>
      </trkpt>
      <trkpt lat="47.60061" lon="-2.68003">
        <ele>13</ele>
        <time>2021-08-05T12:23:20Z</time>
      </trkpt>
      <trkpt lat="47.60058" lon="-2.68005">
        <ele>12.8</ele>
        <time>2021-08-05T12:23:21Z</time>
      </trkpt>
      <trkpt lat="47.60055" lon="-2.68007">
        <ele>12.8</ele>
        <time>2021-08-05T12:23:22Z</time>
      </trkpt>
      <trkpt lat="47.60052" lon="-2.68009">
        <ele>12.8</ele>
        <time>2021-08-05T12:23:23Z</time>
      </trkpt>
      <trkpt lat="47.60049" lon="-2.68011">
        <ele>12.8</ele>
        <time>2021-08-05T12:23:24Z</time>
      </trkpt>
      <trkpt lat="47.60047" lon="-2.68012">
        <ele>12.8</ele>
        <time>2021-08-05T12:23:25Z</time>
      </trkpt>
      <trkpt lat="47.60044" lon="-2.68014">
        <ele>12.8</ele>
        <time>2021-08-05T12:23:26Z</time>
      </trkpt>
      <trkpt lat="47.60041" lon="-2.68016">
        <ele>12.6</ele>
        <time>2021-08-05T12:23:27Z</time>
      </trkpt>
      <trkpt lat="47.60038" lon="-2.68018">
        <ele>12.6</ele>
        <time>2021-08-05T12:23:28Z</time>
      </trkpt>
      <trkpt lat="47.60036" lon="-2.6802">
        <ele>12.6</ele>
        <time>2021-08-05T12:23:29Z</time>
      </trkpt>
      <trkpt lat="47.60033" lon="-2.68022">
        <ele>12.6</ele>
        <time>2021-08-05T12:23:30Z</time>
      </trkpt>
      <trkpt lat="47.6003" lon="-2.68023">
        <ele>12.6</ele>
        <time>2021-08-05T12:23:31Z</time>
      </trkpt>
      <trkpt lat="47.60027" lon="-2.68025">
        <ele>12.6</ele>
        <time>2021-08-05T12:23:32Z</time>
      </trkpt>
      <trkpt lat="47.60025" lon="-2.68028">
        <ele>12.6</ele>
        <time>2021-08-05T12:23:33Z</time>
      </trkpt>
      <trkpt lat="47.60023" lon="-2.6803">
        <ele>12.6</ele>
        <time>2021-08-05T12:23:34Z</time>
      </trkpt>
      <trkpt lat="47.6002" lon="-2.68032">
        <ele>12.6</ele>
        <time>2021-08-05T12:23:35Z</time>
      </trkpt>
      <trkpt lat="47.60018" lon="-2.68033">
        <ele>12.6</ele>
        <time>2021-08-05T12:23:36Z</time>
      </trkpt>
      <trkpt lat="47.60015" lon="-2.68033">
        <ele>12.8</ele>
        <time>2021-08-05T12:23:37Z</time>
      </trkpt>
      <trkpt lat="47.60013" lon="-2.68034">
        <ele>12.8</ele>
        <time>2021-08-05T12:23:38Z</time>
      </trkpt>
      <trkpt lat="47.6001" lon="-2.68034">
        <ele>12.8</ele>
        <time>2021-08-05T12:23:39Z</time>
      </trkpt>
      <trkpt lat="47.60008" lon="-2.68033">
        <ele>12.8</ele>
        <time>2021-08-05T12:23:40Z</time>
      </trkpt>
      <trkpt lat="47.60005" lon="-2.68033">
        <ele>13</ele>
        <time>2021-08-05T12:23:41Z</time>
      </trkpt>
      <trkpt lat="47.60002" lon="-2.68032">
        <ele>13.2</ele>
        <time>2021-08-05T12:23:42Z</time>
      </trkpt>
      <trkpt lat="47.6" lon="-2.68031">
        <ele>13.6</ele>
        <time>2021-08-05T12:23:43Z</time>
      </trkpt>
      <trkpt lat="47.59997" lon="-2.6803">
        <ele>14</ele>
        <time>2021-08-05T12:23:44Z</time>
      </trkpt>
      <trkpt lat="47.59995" lon="-2.6803">
        <ele>14.6</ele>
        <time>2021-08-05T12:23:45Z</time>
      </trkpt>
      <trkpt lat="47.59992" lon="-2.6803">
        <ele>15</ele>
        <time>2021-08-05T12:23:46Z</time>
      </trkpt>
      <trkpt lat="47.59989" lon="-2.6803">
        <ele>15.2</ele>
        <time>2021-08-05T12:23:47Z</time>
      </trkpt>
      <trkpt lat="47.59987" lon="-2.68031">
        <ele>15.2</ele>
        <time>2021-08-05T12:23:48Z</time>
      </trkpt>
      <trkpt lat="47.59984" lon="-2.68031">
        <ele>15.4</ele>
        <time>2021-08-05T12:23:49Z</time>
      </trkpt>
      <trkpt lat="47.59981" lon="-2.68033">
        <ele>15.8</ele>
        <time>2021-08-05T12:23:50Z</time>
      </trkpt>
      <trkpt lat="47.59979" lon="-2.68034">
        <ele>15.8</ele>
        <time>2021-08-05T12:23:51Z</time>
      </trkpt>
      <trkpt lat="47.59976" lon="-2.68036">
        <ele>16</ele>
        <time>2021-08-05T12:23:52Z</time>
      </trkpt>
      <trkpt lat="47.59973" lon="-2.68037">
        <ele>16</ele>
        <time>2021-08-05T12:23:53Z</time>
      </trkpt>
      <trkpt lat="47.59971" lon="-2.68037">
        <ele>16.2</ele>
        <time>2021-08-05T12:23:54Z</time>
      </trkpt>
      <trkpt lat="47.59968" lon="-2.68038">
        <ele>16.2</ele>
        <time>2021-08-05T12:23:55Z</time>
      </trkpt>
      <trkpt lat="47.59965" lon="-2.68039">
        <ele>16.2</ele>
        <time>2021-08-05T12:23:56Z</time>
      </trkpt>
      <trkpt lat="47.59963" lon="-2.68041">
        <ele>16.2</ele>
        <time>2021-08-05T12:23:57Z</time>
      </trkpt>
      <trkpt lat="47.5996" lon="-2.68042">
        <ele>16.2</ele>
        <time>2021-08-05T12:23:58Z</time>
      </trkpt>
      <trkpt lat="47.59958" lon="-2.68044">
        <ele>16.2</ele>
        <time>2021-08-05T12:23:59Z</time>
      </trkpt>
      <trkpt lat="47.59956" lon="-2.68045">
        <ele>16.2</ele>
        <time>2021-08-05T12:24:00Z</time>
      </trkpt>
      <trkpt lat="47.59953" lon="-2.68046">
        <ele>16.2</ele>
        <time>2021-08-05T12:24:01Z</time>
      </trkpt>
      <trkpt lat="47.59951" lon="-2.68048">
        <ele>16.2</ele>
        <time>2021-08-05T12:24:02Z</time>
      </trkpt>
      <trkpt lat="47.59948" lon="-2.6805">
        <ele>16.2</ele>
        <time>2021-08-05T12:24:03Z</time>
      </trkpt>
      <trkpt lat="47.59945" lon="-2.68051">
        <ele>16.2</ele>
        <time>2021-08-05T12:24:04Z</time>
      </trkpt>
      <trkpt lat="47.59943" lon="-2.68053">
        <ele>16</ele>
        <time>2021-08-05T12:24:05Z</time>
      </trkpt>
      <trkpt lat="47.5994" lon="-2.68055">
        <ele>16</ele>
        <time>2021-08-05T12:24:06Z</time>
      </trkpt>
      <trkpt lat="47.59937" lon="-2.68056">
        <ele>16</ele>
        <time>2021-08-05T12:24:07Z</time>
      </trkpt>
      <trkpt lat="47.59934" lon="-2.68058">
        <ele>16</ele>
        <time>2021-08-05T12:24:08Z</time>
      </trkpt>
      <trkpt lat="47.59932" lon="-2.68059">
        <ele>15.8</ele>
        <time>2021-08-05T12:24:09Z</time>
      </trkpt>
      <trkpt lat="47.59929" lon="-2.68061">
        <ele>15.8</ele>
        <time>2021-08-05T12:24:10Z</time>
      </trkpt>
      <trkpt lat="47.59927" lon="-2.68063">
        <ele>15.8</ele>
        <time>2021-08-05T12:24:11Z</time>
      </trkpt>
      <trkpt lat="47.59924" lon="-2.68065">
        <ele>15.8</ele>
        <time>2021-08-05T12:24:12Z</time>
      </trkpt>
      <trkpt lat="47.59922" lon="-2.68066">
        <ele>15.8</ele>
        <time>2021-08-05T12:24:13Z</time>
      </trkpt>
      <trkpt lat="47.59919" lon="-2.68068">
        <ele>15.8</ele>
        <time>2021-08-05T12:24:14Z</time>
      </trkpt>
      <trkpt lat="47.59917" lon="-2.68069">
        <ele>15.6</ele>
        <time>2021-08-05T12:24:15Z</time>
      </trkpt>
      <trkpt lat="47.59914" lon="-2.68071">
        <ele>15.6</ele>
        <time>2021-08-05T12:24:16Z</time>
      </trkpt>
      <trkpt lat="47.59912" lon="-2.68072">
        <ele>15.6</ele>
        <time>2021-08-05T12:24:17Z</time>
      </trkpt>
      <trkpt lat="47.59909" lon="-2.68074">
        <ele>15.8</ele>
        <time>2021-08-05T12:24:18Z</time>
      </trkpt>
      <trkpt lat="47.59907" lon="-2.68075">
        <ele>15.8</ele>
        <time>2021-08-05T12:24:19Z</time>
      </trkpt>
      <trkpt lat="47.59904" lon="-2.68076">
        <ele>15.8</ele>
        <time>2021-08-05T12:24:20Z</time>
      </trkpt>
      <trkpt lat="47.59901" lon="-2.68078">
        <ele>15.6</ele>
        <time>2021-08-05T12:24:21Z</time>
      </trkpt>
      <trkpt lat="47.59898" lon="-2.68079">
        <ele>15.6</ele>
        <time>2021-08-05T12:24:22Z</time>
      </trkpt>
      <trkpt lat="47.59895" lon="-2.6808">
        <ele>15.6</ele>
        <time>2021-08-05T12:24:23Z</time>
      </trkpt>
      <trkpt lat="47.59892" lon="-2.68082">
        <ele>15.6</ele>
        <time>2021-08-05T12:24:24Z</time>
      </trkpt>
      <trkpt lat="47.59889" lon="-2.68083">
        <ele>15.6</ele>
        <time>2021-08-05T12:24:25Z</time>
      </trkpt>
      <trkpt lat="47.59886" lon="-2.68085">
        <ele>15.4</ele>
        <time>2021-08-05T12:24:26Z</time>
      </trkpt>
      <trkpt lat="47.59883" lon="-2.68087">
        <ele>15.4</ele>
        <time>2021-08-05T12:24:27Z</time>
      </trkpt>
      <trkpt lat="47.5988" lon="-2.68089">
        <ele>15.4</ele>
        <time>2021-08-05T12:24:28Z</time>
      </trkpt>
      <trkpt lat="47.59877" lon="-2.68091">
        <ele>15.4</ele>
        <time>2021-08-05T12:24:29Z</time>
      </trkpt>
      <trkpt lat="47.59873" lon="-2.68093">
        <ele>15.4</ele>
        <time>2021-08-05T12:24:30Z</time>
      </trkpt>
      <trkpt lat="47.5987" lon="-2.68096">
        <ele>15.2</ele>
        <time>2021-08-05T12:24:31Z</time>
      </trkpt>
      <trkpt lat="47.59866" lon="-2.68099">
        <ele>15.2</ele>
        <time>2021-08-05T12:24:32Z</time>
      </trkpt>
      <trkpt lat="47.59863" lon="-2.68101">
        <ele>15.2</ele>
        <time>2021-08-05T12:24:33Z</time>
      </trkpt>
      <trkpt lat="47.59859" lon="-2.68103">
        <ele>15.2</ele>
        <time>2021-08-05T12:24:34Z</time>
      </trkpt>
      <trkpt lat="47.59854" lon="-2.68105">
        <ele>15</ele>
        <time>2021-08-05T12:24:35Z</time>
      </trkpt>
      <trkpt lat="47.5985" lon="-2.68106">
        <ele>15</ele>
        <time>2021-08-05T12:24:36Z</time>
      </trkpt>
      <trkpt lat="47.59845" lon="-2.68108">
        <ele>15</ele>
        <time>2021-08-05T12:24:37Z</time>
      </trkpt>
      <trkpt lat="47.5984" lon="-2.68109">
        <ele>15</ele>
        <time>2021-08-05T12:24:38Z</time>
      </trkpt>
      <trkpt lat="47.59835" lon="-2.6811">
        <ele>14.8</ele>
        <time>2021-08-05T12:24:39Z</time>
      </trkpt>
      <trkpt lat="47.5983" lon="-2.68111">
        <ele>14.6</ele>
        <time>2021-08-05T12:24:40Z</time>
      </trkpt>
      <trkpt lat="47.59824" lon="-2.68112">
        <ele>14.6</ele>
        <time>2021-08-05T12:24:41Z</time>
      </trkpt>
      <trkpt lat="47.59819" lon="-2.68113">
        <ele>14.6</ele>
        <time>2021-08-05T12:24:42Z</time>
      </trkpt>
      <trkpt lat="47.59813" lon="-2.68114">
        <ele>14.4</ele>
        <time>2021-08-05T12:24:43Z</time>
      </trkpt>
      <trkpt lat="47.59807" lon="-2.68115">
        <ele>14</ele>
        <time>2021-08-05T12:24:44Z</time>
      </trkpt>
      <trkpt lat="47.59801" lon="-2.68115">
        <ele>13.8</ele>
        <time>2021-08-05T12:24:45Z</time>
      </trkpt>
      <trkpt lat="47.59796" lon="-2.68116">
        <ele>13.6</ele>
        <time>2021-08-05T12:24:46Z</time>
      </trkpt>
      <trkpt lat="47.59791" lon="-2.68118">
        <ele>13.4</ele>
        <time>2021-08-05T12:24:47Z</time>
      </trkpt>
      <trkpt lat="47.59786" lon="-2.68119">
        <ele>13.2</ele>
        <time>2021-08-05T12:24:48Z</time>
      </trkpt>
      <trkpt lat="47.59781" lon="-2.6812">
        <ele>13.2</ele>
        <time>2021-08-05T12:24:49Z</time>
      </trkpt>
      <trkpt lat="47.59777" lon="-2.68121">
        <ele>13.2</ele>
        <time>2021-08-05T12:24:50Z</time>
      </trkpt>
      <trkpt lat="47.59772" lon="-2.68122">
        <ele>13</ele>
        <time>2021-08-05T12:24:51Z</time>
      </trkpt>
      <trkpt lat="47.59768" lon="-2.68123">
        <ele>13</ele>
        <time>2021-08-05T12:24:52Z</time>
      </trkpt>
      <trkpt lat="47.59764" lon="-2.68124">
        <ele>13</ele>
        <time>2021-08-05T12:24:53Z</time>
      </trkpt>
      <trkpt lat="47.5976" lon="-2.68125">
        <ele>13</ele>
        <time>2021-08-05T12:24:54Z</time>
      </trkpt>
      <trkpt lat="47.59756" lon="-2.68126">
        <ele>13.2</ele>
        <time>2021-08-05T12:24:55Z</time>
      </trkpt>
      <trkpt lat="47.59753" lon="-2.68127">
        <ele>13.2</ele>
        <time>2021-08-05T12:24:56Z</time>
      </trkpt>
      <trkpt lat="47.59749" lon="-2.68128">
        <ele>13.2</ele>
        <time>2021-08-05T12:24:57Z</time>
      </trkpt>
      <trkpt lat="47.59745" lon="-2.68129">
        <ele>13.2</ele>
        <time>2021-08-05T12:24:58Z</time>
      </trkpt>
      <trkpt lat="47.59742" lon="-2.6813">
        <ele>13.4</ele>
        <time>2021-08-05T12:24:59Z</time>
      </trkpt>
      <trkpt lat="47.59738" lon="-2.68131">
        <ele>13.6</ele>
        <time>2021-08-05T12:25:00Z</time>
      </trkpt>
      <trkpt lat="47.59735" lon="-2.68132">
        <ele>13.8</ele>
        <time>2021-08-05T12:25:01Z</time>
      </trkpt>
      <trkpt lat="47.59731" lon="-2.68133">
        <ele>14</ele>
        <time>2021-08-05T12:25:02Z</time>
      </trkpt>
      <trkpt lat="47.59728" lon="-2.68134">
        <ele>14</ele>
        <time>2021-08-05T12:25:03Z</time>
      </trkpt>
      <trkpt lat="47.59724" lon="-2.68135">
        <ele>14.2</ele>
        <time>2021-08-05T12:25:04Z</time>
      </trkpt>
      <trkpt lat="47.59721" lon="-2.68135">
        <ele>14.4</ele>
        <time>2021-08-05T12:25:05Z</time>
      </trkpt>
      <trkpt lat="47.59718" lon="-2.68136">
        <ele>14.4</ele>
        <time>2021-08-05T12:25:06Z</time>
      </trkpt>
      <trkpt lat="47.59714" lon="-2.68137">
        <ele>14.8</ele>
        <time>2021-08-05T12:25:07Z</time>
      </trkpt>
      <trkpt lat="47.59711" lon="-2.68137">
        <ele>15</ele>
        <time>2021-08-05T12:25:08Z</time>
      </trkpt>
      <trkpt lat="47.59708" lon="-2.68138">
        <ele>15.2</ele>
        <time>2021-08-05T12:25:09Z</time>
      </trkpt>
      <trkpt lat="47.59704" lon="-2.68139">
        <ele>15.4</ele>
        <time>2021-08-05T12:25:10Z</time>
      </trkpt>
      <trkpt lat="47.59701" lon="-2.68139">
        <ele>15.6</ele>
        <time>2021-08-05T12:25:11Z</time>
      </trkpt>
      <trkpt lat="47.59697" lon="-2.68139">
        <ele>15.8</ele>
        <time>2021-08-05T12:25:12Z</time>
      </trkpt>
      <trkpt lat="47.59694" lon="-2.6814">
        <ele>15.8</ele>
        <time>2021-08-05T12:25:13Z</time>
      </trkpt>
      <trkpt lat="47.5969" lon="-2.68141">
        <ele>16</ele>
        <time>2021-08-05T12:25:14Z</time>
      </trkpt>
      <trkpt lat="47.59687" lon="-2.68141">
        <ele>16</ele>
        <time>2021-08-05T12:25:15Z</time>
      </trkpt>
      <trkpt lat="47.59683" lon="-2.68142">
        <ele>16</ele>
        <time>2021-08-05T12:25:16Z</time>
      </trkpt>
      <trkpt lat="47.59679" lon="-2.68143">
        <ele>16</ele>
        <time>2021-08-05T12:25:17Z</time>
      </trkpt>
      <trkpt lat="47.59675" lon="-2.68143">
        <ele>16</ele>
        <time>2021-08-05T12:25:18Z</time>
      </trkpt>
      <trkpt lat="47.59671" lon="-2.68144">
        <ele>16.2</ele>
        <time>2021-08-05T12:25:19Z</time>
      </trkpt>
      <trkpt lat="47.59667" lon="-2.68145">
        <ele>16.2</ele>
        <time>2021-08-05T12:25:20Z</time>
      </trkpt>
      <trkpt lat="47.59663" lon="-2.68146">
        <ele>16.2</ele>
        <time>2021-08-05T12:25:21Z</time>
      </trkpt>
      <trkpt lat="47.59659" lon="-2.68147">
        <ele>16.4</ele>
        <time>2021-08-05T12:25:22Z</time>
      </trkpt>
      <trkpt lat="47.59655" lon="-2.68147">
        <ele>16.4</ele>
        <time>2021-08-05T12:25:23Z</time>
      </trkpt>
      <trkpt lat="47.59651" lon="-2.68148">
        <ele>16.4</ele>
        <time>2021-08-05T12:25:24Z</time>
      </trkpt>
      <trkpt lat="47.59647" lon="-2.68149">
        <ele>16.4</ele>
        <time>2021-08-05T12:25:25Z</time>
      </trkpt>
      <trkpt lat="47.59643" lon="-2.6815">
        <ele>16.4</ele>
        <time>2021-08-05T12:25:26Z</time>
      </trkpt>
      <trkpt lat="47.59639" lon="-2.68151">
        <ele>16.6</ele>
        <time>2021-08-05T12:25:27Z</time>
      </trkpt>
      <trkpt lat="47.59636" lon="-2.68152">
        <ele>16.6</ele>
        <time>2021-08-05T12:25:28Z</time>
      </trkpt>
      <trkpt lat="47.59632" lon="-2.68152">
        <ele>16.6</ele>
        <time>2021-08-05T12:25:29Z</time>
      </trkpt>
      <trkpt lat="47.59628" lon="-2.68153">
        <ele>16.6</ele>
        <time>2021-08-05T12:25:30Z</time>
      </trkpt>
      <trkpt lat="47.59625" lon="-2.68154">
        <ele>16.8</ele>
        <time>2021-08-05T12:25:31Z</time>
      </trkpt>
      <trkpt lat="47.59622" lon="-2.68155">
        <ele>16.8</ele>
        <time>2021-08-05T12:25:32Z</time>
      </trkpt>
      <trkpt lat="47.59619" lon="-2.68156">
        <ele>16.8</ele>
        <time>2021-08-05T12:25:33Z</time>
      </trkpt>
      <trkpt lat="47.59615" lon="-2.68157">
        <ele>16.8</ele>
        <time>2021-08-05T12:25:34Z</time>
      </trkpt>
      <trkpt lat="47.59612" lon="-2.68158">
        <ele>16.8</ele>
        <time>2021-08-05T12:25:35Z</time>
      </trkpt>
      <trkpt lat="47.59609" lon="-2.68159">
        <ele>16.8</ele>
        <time>2021-08-05T12:25:36Z</time>
      </trkpt>
      <trkpt lat="47.59605" lon="-2.68159">
        <ele>16.8</ele>
        <time>2021-08-05T12:25:37Z</time>
      </trkpt>
      <trkpt lat="47.59602" lon="-2.6816">
        <ele>16.8</ele>
        <time>2021-08-05T12:25:38Z</time>
      </trkpt>
      <trkpt lat="47.59598" lon="-2.68161">
        <ele>16.6</ele>
        <time>2021-08-05T12:25:39Z</time>
      </trkpt>
      <trkpt lat="47.59595" lon="-2.68162">
        <ele>16.6</ele>
        <time>2021-08-05T12:25:40Z</time>
      </trkpt>
      <trkpt lat="47.59591" lon="-2.68163">
        <ele>16.6</ele>
        <time>2021-08-05T12:25:41Z</time>
      </trkpt>
      <trkpt lat="47.59588" lon="-2.68164">
        <ele>16.6</ele>
        <time>2021-08-05T12:25:42Z</time>
      </trkpt>
      <trkpt lat="47.59584" lon="-2.68165">
        <ele>16.6</ele>
        <time>2021-08-05T12:25:43Z</time>
      </trkpt>
      <trkpt lat="47.59581" lon="-2.68166">
        <ele>16.6</ele>
        <time>2021-08-05T12:25:44Z</time>
      </trkpt>
      <trkpt lat="47.59578" lon="-2.68167">
        <ele>16.6</ele>
        <time>2021-08-05T12:25:45Z</time>
      </trkpt>
      <trkpt lat="47.59574" lon="-2.68168">
        <ele>16.6</ele>
        <time>2021-08-05T12:25:46Z</time>
      </trkpt>
      <trkpt lat="47.59571" lon="-2.68169">
        <ele>16.4</ele>
        <time>2021-08-05T12:25:47Z</time>
      </trkpt>
      <trkpt lat="47.59568" lon="-2.6817">
        <ele>16.4</ele>
        <time>2021-08-05T12:25:48Z</time>
      </trkpt>
      <trkpt lat="47.59564" lon="-2.68171">
        <ele>16.4</ele>
        <time>2021-08-05T12:25:49Z</time>
      </trkpt>
      <trkpt lat="47.59561" lon="-2.68172">
        <ele>16.4</ele>
        <time>2021-08-05T12:25:50Z</time>
      </trkpt>
      <trkpt lat="47.59558" lon="-2.68173">
        <ele>16.2</ele>
        <time>2021-08-05T12:25:51Z</time>
      </trkpt>
      <trkpt lat="47.59555" lon="-2.68174">
        <ele>16.2</ele>
        <time>2021-08-05T12:25:52Z</time>
      </trkpt>
      <trkpt lat="47.59551" lon="-2.68175">
        <ele>16.2</ele>
        <time>2021-08-05T12:25:53Z</time>
      </trkpt>
      <trkpt lat="47.59548" lon="-2.68176">
        <ele>16.2</ele>
        <time>2021-08-05T12:25:54Z</time>
      </trkpt>
      <trkpt lat="47.59544" lon="-2.68178">
        <ele>16.2</ele>
        <time>2021-08-05T12:25:55Z</time>
      </trkpt>
      <trkpt lat="47.5954" lon="-2.68179">
        <ele>16</ele>
        <time>2021-08-05T12:25:56Z</time>
      </trkpt>
      <trkpt lat="47.59537" lon="-2.6818">
        <ele>16</ele>
        <time>2021-08-05T12:25:57Z</time>
      </trkpt>
      <trkpt lat="47.59533" lon="-2.68182">
        <ele>15.8</ele>
        <time>2021-08-05T12:25:58Z</time>
      </trkpt>
      <trkpt lat="47.59529" lon="-2.68183">
        <ele>15.8</ele>
        <time>2021-08-05T12:25:59Z</time>
      </trkpt>
      <trkpt lat="47.59525" lon="-2.68184">
        <ele>15.6</ele>
        <time>2021-08-05T12:26:00Z</time>
      </trkpt>
      <trkpt lat="47.59522" lon="-2.68186">
        <ele>15.6</ele>
        <time>2021-08-05T12:26:01Z</time>
      </trkpt>
      <trkpt lat="47.59518" lon="-2.68187">
        <ele>15.6</ele>
        <time>2021-08-05T12:26:02Z</time>
      </trkpt>
      <trkpt lat="47.59514" lon="-2.68188">
        <ele>15.4</ele>
        <time>2021-08-05T12:26:03Z</time>
      </trkpt>
      <trkpt lat="47.5951" lon="-2.6819">
        <ele>15.4</ele>
        <time>2021-08-05T12:26:04Z</time>
      </trkpt>
      <trkpt lat="47.59505" lon="-2.68191">
        <ele>15.2</ele>
        <time>2021-08-05T12:26:05Z</time>
      </trkpt>
      <trkpt lat="47.59501" lon="-2.68193">
        <ele>15.2</ele>
        <time>2021-08-05T12:26:06Z</time>
      </trkpt>
      <trkpt lat="47.59497" lon="-2.68195">
        <ele>15</ele>
        <time>2021-08-05T12:26:07Z</time>
      </trkpt>
      <trkpt lat="47.59492" lon="-2.68196">
        <ele>15</ele>
        <time>2021-08-05T12:26:08Z</time>
      </trkpt>
      <trkpt lat="47.59487" lon="-2.68198">
        <ele>15</ele>
        <time>2021-08-05T12:26:09Z</time>
      </trkpt>
      <trkpt lat="47.59482" lon="-2.682">
        <ele>15</ele>
        <time>2021-08-05T12:26:10Z</time>
      </trkpt>
      <trkpt lat="47.59477" lon="-2.68201">
        <ele>14.8</ele>
        <time>2021-08-05T12:26:11Z</time>
      </trkpt>
      <trkpt lat="47.59472" lon="-2.68203">
        <ele>14.8</ele>
        <time>2021-08-05T12:26:12Z</time>
      </trkpt>
      <trkpt lat="47.59467" lon="-2.68205">
        <ele>14.6</ele>
        <time>2021-08-05T12:26:13Z</time>
      </trkpt>
      <trkpt lat="47.59462" lon="-2.68207">
        <ele>14.2</ele>
        <time>2021-08-05T12:26:14Z</time>
      </trkpt>
      <trkpt lat="47.59457" lon="-2.68209">
        <ele>14</ele>
        <time>2021-08-05T12:26:15Z</time>
      </trkpt>
      <trkpt lat="47.59452" lon="-2.68211">
        <ele>13.6</ele>
        <time>2021-08-05T12:26:16Z</time>
      </trkpt>
      <trkpt lat="47.59447" lon="-2.68213">
        <ele>13.4</ele>
        <time>2021-08-05T12:26:17Z</time>
      </trkpt>
      <trkpt lat="47.59441" lon="-2.68215">
        <ele>13.4</ele>
        <time>2021-08-05T12:26:18Z</time>
      </trkpt>
      <trkpt lat="47.59436" lon="-2.68218">
        <ele>13.2</ele>
        <time>2021-08-05T12:26:19Z</time>
      </trkpt>
      <trkpt lat="47.59431" lon="-2.6822">
        <ele>13.2</ele>
        <time>2021-08-05T12:26:20Z</time>
      </trkpt>
      <trkpt lat="47.59426" lon="-2.68223">
        <ele>13.2</ele>
        <time>2021-08-05T12:26:21Z</time>
      </trkpt>
      <trkpt lat="47.59421" lon="-2.68226">
        <ele>13</ele>
        <time>2021-08-05T12:26:22Z</time>
      </trkpt>
      <trkpt lat="47.59416" lon="-2.68228">
        <ele>13</ele>
        <time>2021-08-05T12:26:23Z</time>
      </trkpt>
      <trkpt lat="47.59411" lon="-2.68231">
        <ele>12.8</ele>
        <time>2021-08-05T12:26:24Z</time>
      </trkpt>
      <trkpt lat="47.59407" lon="-2.68234">
        <ele>12.8</ele>
        <time>2021-08-05T12:26:25Z</time>
      </trkpt>
      <trkpt lat="47.59402" lon="-2.68236">
        <ele>12.6</ele>
        <time>2021-08-05T12:26:26Z</time>
      </trkpt>
      <trkpt lat="47.59398" lon="-2.68239">
        <ele>12.6</ele>
        <time>2021-08-05T12:26:27Z</time>
      </trkpt>
      <trkpt lat="47.59394" lon="-2.68241">
        <ele>12.6</ele>
        <time>2021-08-05T12:26:28Z</time>
      </trkpt>
      <trkpt lat="47.5939" lon="-2.68243">
        <ele>12.6</ele>
        <time>2021-08-05T12:26:29Z</time>
      </trkpt>
      <trkpt lat="47.59386" lon="-2.68246">
        <ele>12.6</ele>
        <time>2021-08-05T12:26:30Z</time>
      </trkpt>
      <trkpt lat="47.59382" lon="-2.68249">
        <ele>12.6</ele>
        <time>2021-08-05T12:26:31Z</time>
      </trkpt>
      <trkpt lat="47.59378" lon="-2.68252">
        <ele>12.6</ele>
        <time>2021-08-05T12:26:32Z</time>
      </trkpt>
      <trkpt lat="47.59374" lon="-2.68255">
        <ele>12.6</ele>
        <time>2021-08-05T12:26:33Z</time>
      </trkpt>
      <trkpt lat="47.5937" lon="-2.68257">
        <ele>12.6</ele>
        <time>2021-08-05T12:26:34Z</time>
      </trkpt>
      <trkpt lat="47.59366" lon="-2.6826">
        <ele>12.6</ele>
        <time>2021-08-05T12:26:35Z</time>
      </trkpt>
      <trkpt lat="47.59362" lon="-2.68262">
        <ele>12.6</ele>
        <time>2021-08-05T12:26:36Z</time>
      </trkpt>
      <trkpt lat="47.59358" lon="-2.68265">
        <ele>12.6</ele>
        <time>2021-08-05T12:26:37Z</time>
      </trkpt>
      <trkpt lat="47.59354" lon="-2.68268">
        <ele>12.6</ele>
        <time>2021-08-05T12:26:38Z</time>
      </trkpt>
      <trkpt lat="47.5935" lon="-2.68271">
        <ele>12.8</ele>
        <time>2021-08-05T12:26:39Z</time>
      </trkpt>
      <trkpt lat="47.59347" lon="-2.68274">
        <ele>12.8</ele>
        <time>2021-08-05T12:26:40Z</time>
      </trkpt>
      <trkpt lat="47.59343" lon="-2.68277">
        <ele>12.8</ele>
        <time>2021-08-05T12:26:41Z</time>
      </trkpt>
      <trkpt lat="47.5934" lon="-2.68279">
        <ele>12.8</ele>
        <time>2021-08-05T12:26:42Z</time>
      </trkpt>
      <trkpt lat="47.59337" lon="-2.68282">
        <ele>12.8</ele>
        <time>2021-08-05T12:26:43Z</time>
      </trkpt>
      <trkpt lat="47.59333" lon="-2.68285">
        <ele>13</ele>
        <time>2021-08-05T12:26:44Z</time>
      </trkpt>
      <trkpt lat="47.5933" lon="-2.68287">
        <ele>13</ele>
        <time>2021-08-05T12:26:45Z</time>
      </trkpt>
      <trkpt lat="47.59327" lon="-2.6829">
        <ele>13.2</ele>
        <time>2021-08-05T12:26:46Z</time>
      </trkpt>
      <trkpt lat="47.59324" lon="-2.68292">
        <ele>13.2</ele>
        <time>2021-08-05T12:26:47Z</time>
      </trkpt>
      <trkpt lat="47.59321" lon="-2.68294">
        <ele>13.2</ele>
        <time>2021-08-05T12:26:48Z</time>
      </trkpt>
      <trkpt lat="47.59318" lon="-2.68297">
        <ele>13.4</ele>
        <time>2021-08-05T12:26:49Z</time>
      </trkpt>
      <trkpt lat="47.59315" lon="-2.68299">
        <ele>13.4</ele>
        <time>2021-08-05T12:26:50Z</time>
      </trkpt>
      <trkpt lat="47.59312" lon="-2.68301">
        <ele>13.4</ele>
        <time>2021-08-05T12:26:51Z</time>
      </trkpt>
      <trkpt lat="47.59309" lon="-2.68303">
        <ele>13.6</ele>
        <time>2021-08-05T12:26:52Z</time>
      </trkpt>
      <trkpt lat="47.59306" lon="-2.68305">
        <ele>13.6</ele>
        <time>2021-08-05T12:26:53Z</time>
      </trkpt>
      <trkpt lat="47.59303" lon="-2.68307">
        <ele>13.6</ele>
        <time>2021-08-05T12:26:54Z</time>
      </trkpt>
      <trkpt lat="47.593" lon="-2.68309">
        <ele>13.6</ele>
        <time>2021-08-05T12:26:55Z</time>
      </trkpt>
      <trkpt lat="47.59298" lon="-2.68312">
        <ele>13.8</ele>
        <time>2021-08-05T12:26:56Z</time>
      </trkpt>
      <trkpt lat="47.59295" lon="-2.68313">
        <ele>13.8</ele>
        <time>2021-08-05T12:26:57Z</time>
      </trkpt>
      <trkpt lat="47.59292" lon="-2.68315">
        <ele>14</ele>
        <time>2021-08-05T12:26:58Z</time>
      </trkpt>
      <trkpt lat="47.59289" lon="-2.68317">
        <ele>14.2</ele>
        <time>2021-08-05T12:26:59Z</time>
      </trkpt>
      <trkpt lat="47.59287" lon="-2.68318">
        <ele>14.4</ele>
        <time>2021-08-05T12:27:00Z</time>
      </trkpt>
      <trkpt lat="47.59284" lon="-2.6832">
        <ele>14.4</ele>
        <time>2021-08-05T12:27:01Z</time>
      </trkpt>
      <trkpt lat="47.59281" lon="-2.68322">
        <ele>14.8</ele>
        <time>2021-08-05T12:27:02Z</time>
      </trkpt>
      <trkpt lat="47.59278" lon="-2.68324">
        <ele>14.8</ele>
        <time>2021-08-05T12:27:03Z</time>
      </trkpt>
      <trkpt lat="47.59275" lon="-2.68326">
        <ele>15</ele>
        <time>2021-08-05T12:27:04Z</time>
      </trkpt>
      <trkpt lat="47.59273" lon="-2.68328">
        <ele>15.2</ele>
        <time>2021-08-05T12:27:05Z</time>
      </trkpt>
      <trkpt lat="47.5927" lon="-2.68331">
        <ele>15.2</ele>
        <time>2021-08-05T12:27:06Z</time>
      </trkpt>
      <trkpt lat="47.59267" lon="-2.68333">
        <ele>15.4</ele>
        <time>2021-08-05T12:27:07Z</time>
      </trkpt>
      <trkpt lat="47.59264" lon="-2.68335">
        <ele>15.6</ele>
        <time>2021-08-05T12:27:08Z</time>
      </trkpt>
      <trkpt lat="47.59261" lon="-2.68337">
        <ele>15.6</ele>
        <time>2021-08-05T12:27:09Z</time>
      </trkpt>
      <trkpt lat="47.59259" lon="-2.68339">
        <ele>15.6</ele>
        <time>2021-08-05T12:27:10Z</time>
      </trkpt>
      <trkpt lat="47.59256" lon="-2.68342">
        <ele>15.8</ele>
        <time>2021-08-05T12:27:11Z</time>
      </trkpt>
      <trkpt lat="47.59253" lon="-2.68344">
        <ele>16</ele>
        <time>2021-08-05T12:27:12Z</time>
      </trkpt>
      <trkpt lat="47.5925" lon="-2.68346">
        <ele>16</ele>
        <time>2021-08-05T12:27:13Z</time>
      </trkpt>
      <trkpt lat="47.59248" lon="-2.68348">
        <ele>16.2</ele>
        <time>2021-08-05T12:27:14Z</time>
      </trkpt>
      <trkpt lat="47.59245" lon="-2.68349">
        <ele>16.2</ele>
        <time>2021-08-05T12:27:15Z</time>
      </trkpt>
      <trkpt lat="47.59242" lon="-2.68351">
        <ele>16.2</ele>
        <time>2021-08-05T12:27:16Z</time>
      </trkpt>
      <trkpt lat="47.5924" lon="-2.68353">
        <ele>16.4</ele>
        <time>2021-08-05T12:27:17Z</time>
      </trkpt>
      <trkpt lat="47.59237" lon="-2.68355">
        <ele>16.4</ele>
        <time>2021-08-05T12:27:18Z</time>
      </trkpt>
      <trkpt lat="47.59234" lon="-2.68357">
        <ele>16.6</ele>
        <time>2021-08-05T12:27:19Z</time>
      </trkpt>
      <trkpt lat="47.59232" lon="-2.68359">
        <ele>16.6</ele>
        <time>2021-08-05T12:27:20Z</time>
      </trkpt>
      <trkpt lat="47.59229" lon="-2.68361">
        <ele>16.8</ele>
        <time>2021-08-05T12:27:21Z</time>
      </trkpt>
      <trkpt lat="47.59226" lon="-2.68363">
        <ele>16.8</ele>
        <time>2021-08-05T12:27:22Z</time>
      </trkpt>
      <trkpt lat="47.59224" lon="-2.68365">
        <ele>17</ele>
        <time>2021-08-05T12:27:23Z</time>
      </trkpt>
      <trkpt lat="47.59221" lon="-2.68367">
        <ele>17.2</ele>
        <time>2021-08-05T12:27:24Z</time>
      </trkpt>
      <trkpt lat="47.59219" lon="-2.68369">
        <ele>17.4</ele>
        <time>2021-08-05T12:27:25Z</time>
      </trkpt>
      <trkpt lat="47.59216" lon="-2.68371">
        <ele>17.6</ele>
        <time>2021-08-05T12:27:26Z</time>
      </trkpt>
      <trkpt lat="47.59214" lon="-2.68372">
        <ele>17.8</ele>
        <time>2021-08-05T12:27:27Z</time>
      </trkpt>
      <trkpt lat="47.59212" lon="-2.68374">
        <ele>17.8</ele>
        <time>2021-08-05T12:27:28Z</time>
      </trkpt>
      <trkpt lat="47.59209" lon="-2.68375">
        <ele>18</ele>
        <time>2021-08-05T12:27:29Z</time>
      </trkpt>
      <trkpt lat="47.59207" lon="-2.68376">
        <ele>18</ele>
        <time>2021-08-05T12:27:30Z</time>
      </trkpt>
      <trkpt lat="47.59205" lon="-2.68378">
        <ele>18.2</ele>
        <time>2021-08-05T12:27:31Z</time>
      </trkpt>
      <trkpt lat="47.59202" lon="-2.6838">
        <ele>18.4</ele>
        <time>2021-08-05T12:27:32Z</time>
      </trkpt>
      <trkpt lat="47.59199" lon="-2.68382">
        <ele>18.6</ele>
        <time>2021-08-05T12:27:33Z</time>
      </trkpt>
      <trkpt lat="47.59197" lon="-2.68384">
        <ele>18.6</ele>
        <time>2021-08-05T12:27:34Z</time>
      </trkpt>
      <trkpt lat="47.59193" lon="-2.68386">
        <ele>18.6</ele>
        <time>2021-08-05T12:27:35Z</time>
      </trkpt>
      <trkpt lat="47.5919" lon="-2.68387">
        <ele>18.8</ele>
        <time>2021-08-05T12:27:36Z</time>
      </trkpt>
      <trkpt lat="47.59186" lon="-2.68388">
        <ele>18.8</ele>
        <time>2021-08-05T12:27:37Z</time>
      </trkpt>
      <trkpt lat="47.59182" lon="-2.68389">
        <ele>18.8</ele>
        <time>2021-08-05T12:27:38Z</time>
      </trkpt>
      <trkpt lat="47.59177" lon="-2.6839">
        <ele>18.8</ele>
        <time>2021-08-05T12:27:39Z</time>
      </trkpt>
      <trkpt lat="47.59172" lon="-2.68391">
        <ele>18.8</ele>
        <time>2021-08-05T12:27:40Z</time>
      </trkpt>
      <trkpt lat="47.59167" lon="-2.68392">
        <ele>18.8</ele>
        <time>2021-08-05T12:27:41Z</time>
      </trkpt>
      <trkpt lat="47.59162" lon="-2.68394">
        <ele>18.8</ele>
        <time>2021-08-05T12:27:42Z</time>
      </trkpt>
      <trkpt lat="47.59156" lon="-2.68395">
        <ele>18.8</ele>
        <time>2021-08-05T12:27:43Z</time>
      </trkpt>
      <trkpt lat="47.59151" lon="-2.68397">
        <ele>18.8</ele>
        <time>2021-08-05T12:27:44Z</time>
      </trkpt>
      <trkpt lat="47.59145" lon="-2.68399">
        <ele>18.6</ele>
        <time>2021-08-05T12:27:45Z</time>
      </trkpt>
      <trkpt lat="47.59139" lon="-2.68401">
        <ele>18.4</ele>
        <time>2021-08-05T12:27:46Z</time>
      </trkpt>
      <trkpt lat="47.59133" lon="-2.68402">
        <ele>18.2</ele>
        <time>2021-08-05T12:27:47Z</time>
      </trkpt>
      <trkpt lat="47.59127" lon="-2.68404">
        <ele>17.8</ele>
        <time>2021-08-05T12:27:48Z</time>
      </trkpt>
      <trkpt lat="47.59121" lon="-2.68406">
        <ele>17.4</ele>
        <time>2021-08-05T12:27:49Z</time>
      </trkpt>
      <trkpt lat="47.59114" lon="-2.68409">
        <ele>17</ele>
        <time>2021-08-05T12:27:50Z</time>
      </trkpt>
      <trkpt lat="47.59108" lon="-2.68412">
        <ele>16.6</ele>
        <time>2021-08-05T12:27:51Z</time>
      </trkpt>
      <trkpt lat="47.59103" lon="-2.68417">
        <ele>16.2</ele>
        <time>2021-08-05T12:27:52Z</time>
      </trkpt>
      <trkpt lat="47.59097" lon="-2.68422">
        <ele>15.8</ele>
        <time>2021-08-05T12:27:53Z</time>
      </trkpt>
      <trkpt lat="47.59092" lon="-2.68428">
        <ele>15.4</ele>
        <time>2021-08-05T12:27:54Z</time>
      </trkpt>
      <trkpt lat="47.59086" lon="-2.68434">
        <ele>15</ele>
        <time>2021-08-05T12:27:55Z</time>
      </trkpt>
      <trkpt lat="47.59081" lon="-2.68441">
        <ele>14.6</ele>
        <time>2021-08-05T12:27:56Z</time>
      </trkpt>
      <trkpt lat="47.59075" lon="-2.68447">
        <ele>14.6</ele>
        <time>2021-08-05T12:27:57Z</time>
      </trkpt>
      <trkpt lat="47.5907" lon="-2.68454">
        <ele>14.4</ele>
        <time>2021-08-05T12:27:58Z</time>
      </trkpt>
      <trkpt lat="47.59065" lon="-2.6846">
        <ele>13.8</ele>
        <time>2021-08-05T12:27:59Z</time>
      </trkpt>
      <trkpt lat="47.5906" lon="-2.68466">
        <ele>13.4</ele>
        <time>2021-08-05T12:28:00Z</time>
      </trkpt>
      <trkpt lat="47.59055" lon="-2.68472">
        <ele>12.8</ele>
        <time>2021-08-05T12:28:01Z</time>
      </trkpt>
      <trkpt lat="47.5905" lon="-2.68479">
        <ele>12</ele>
        <time>2021-08-05T12:28:02Z</time>
      </trkpt>
      <trkpt lat="47.59046" lon="-2.68485">
        <ele>11.6</ele>
        <time>2021-08-05T12:28:03Z</time>
      </trkpt>
      <trkpt lat="47.59042" lon="-2.6849">
        <ele>11.4</ele>
        <time>2021-08-05T12:28:04Z</time>
      </trkpt>
      <trkpt lat="47.59037" lon="-2.68496">
        <ele>11.2</ele>
        <time>2021-08-05T12:28:05Z</time>
      </trkpt>
      <trkpt lat="47.59033" lon="-2.68502">
        <ele>11.2</ele>
        <time>2021-08-05T12:28:06Z</time>
      </trkpt>
      <trkpt lat="47.59029" lon="-2.68507">
        <ele>11.2</ele>
        <time>2021-08-05T12:28:07Z</time>
      </trkpt>
      <trkpt lat="47.59025" lon="-2.68513">
        <ele>11.2</ele>
        <time>2021-08-05T12:28:08Z</time>
      </trkpt>
      <trkpt lat="47.59021" lon="-2.68518">
        <ele>11.2</ele>
        <time>2021-08-05T12:28:09Z</time>
      </trkpt>
      <trkpt lat="47.59018" lon="-2.68523">
        <ele>11.2</ele>
        <time>2021-08-05T12:28:10Z</time>
      </trkpt>
      <trkpt lat="47.59014" lon="-2.68529">
        <ele>11.2</ele>
        <time>2021-08-05T12:28:11Z</time>
      </trkpt>
      <trkpt lat="47.5901" lon="-2.68533">
        <ele>11.2</ele>
        <time>2021-08-05T12:28:12Z</time>
      </trkpt>
      <trkpt lat="47.59007" lon="-2.68538">
        <ele>11.2</ele>
        <time>2021-08-05T12:28:13Z</time>
      </trkpt>
      <trkpt lat="47.59003" lon="-2.68542">
        <ele>11.4</ele>
        <time>2021-08-05T12:28:14Z</time>
      </trkpt>
      <trkpt lat="47.59" lon="-2.68547">
        <ele>11.4</ele>
        <time>2021-08-05T12:28:15Z</time>
      </trkpt>
      <trkpt lat="47.58997" lon="-2.68551">
        <ele>11.4</ele>
        <time>2021-08-05T12:28:16Z</time>
      </trkpt>
      <trkpt lat="47.58994" lon="-2.68556">
        <ele>11.4</ele>
        <time>2021-08-05T12:28:17Z</time>
      </trkpt>
      <trkpt lat="47.5899" lon="-2.6856">
        <ele>11.4</ele>
        <time>2021-08-05T12:28:18Z</time>
      </trkpt>
      <trkpt lat="47.58987" lon="-2.68564">
        <ele>11.4</ele>
        <time>2021-08-05T12:28:19Z</time>
      </trkpt>
      <trkpt lat="47.58984" lon="-2.68567">
        <ele>11.4</ele>
        <time>2021-08-05T12:28:20Z</time>
      </trkpt>
      <trkpt lat="47.58981" lon="-2.68571">
        <ele>11.6</ele>
        <time>2021-08-05T12:28:21Z</time>
      </trkpt>
      <trkpt lat="47.58977" lon="-2.68575">
        <ele>11.8</ele>
        <time>2021-08-05T12:28:22Z</time>
      </trkpt>
      <trkpt lat="47.58974" lon="-2.68579">
        <ele>12</ele>
        <time>2021-08-05T12:28:23Z</time>
      </trkpt>
      <trkpt lat="47.5897" lon="-2.68582">
        <ele>12</ele>
        <time>2021-08-05T12:28:24Z</time>
      </trkpt>
      <trkpt lat="47.58966" lon="-2.68586">
        <ele>12</ele>
        <time>2021-08-05T12:28:25Z</time>
      </trkpt>
      <trkpt lat="47.58962" lon="-2.68589">
        <ele>11.6</ele>
        <time>2021-08-05T12:28:26Z</time>
      </trkpt>
      <trkpt lat="47.58958" lon="-2.68593">
        <ele>11.6</ele>
        <time>2021-08-05T12:28:27Z</time>
      </trkpt>
      <trkpt lat="47.58954" lon="-2.68596">
        <ele>11.4</ele>
        <time>2021-08-05T12:28:28Z</time>
      </trkpt>
      <trkpt lat="47.5895" lon="-2.68599">
        <ele>11.4</ele>
        <time>2021-08-05T12:28:29Z</time>
      </trkpt>
      <trkpt lat="47.58946" lon="-2.68602">
        <ele>11.4</ele>
        <time>2021-08-05T12:28:30Z</time>
      </trkpt>
      <trkpt lat="47.58942" lon="-2.68605">
        <ele>11.4</ele>
        <time>2021-08-05T12:28:31Z</time>
      </trkpt>
      <trkpt lat="47.58938" lon="-2.68608">
        <ele>11.8</ele>
        <time>2021-08-05T12:28:32Z</time>
      </trkpt>
      <trkpt lat="47.58934" lon="-2.68611">
        <ele>12</ele>
        <time>2021-08-05T12:28:33Z</time>
      </trkpt>
      <trkpt lat="47.5893" lon="-2.68614">
        <ele>12.2</ele>
        <time>2021-08-05T12:28:34Z</time>
      </trkpt>
      <trkpt lat="47.58926" lon="-2.68617">
        <ele>12.2</ele>
        <time>2021-08-05T12:28:35Z</time>
      </trkpt>
      <trkpt lat="47.58922" lon="-2.68619">
        <ele>12.2</ele>
        <time>2021-08-05T12:28:36Z</time>
      </trkpt>
      <trkpt lat="47.58918" lon="-2.68622">
        <ele>12.4</ele>
        <time>2021-08-05T12:28:37Z</time>
      </trkpt>
      <trkpt lat="47.58914" lon="-2.68625">
        <ele>12.4</ele>
        <time>2021-08-05T12:28:38Z</time>
      </trkpt>
      <trkpt lat="47.58909" lon="-2.68628">
        <ele>12.4</ele>
        <time>2021-08-05T12:28:39Z</time>
      </trkpt>
      <trkpt lat="47.58905" lon="-2.6863">
        <ele>12.6</ele>
        <time>2021-08-05T12:28:40Z</time>
      </trkpt>
      <trkpt lat="47.58901" lon="-2.68633">
        <ele>12.6</ele>
        <time>2021-08-05T12:28:41Z</time>
      </trkpt>
      <trkpt lat="47.58897" lon="-2.68636">
        <ele>12.6</ele>
        <time>2021-08-05T12:28:42Z</time>
      </trkpt>
      <trkpt lat="47.58894" lon="-2.68638">
        <ele>12.8</ele>
        <time>2021-08-05T12:28:43Z</time>
      </trkpt>
      <trkpt lat="47.58889" lon="-2.6864">
        <ele>13</ele>
        <time>2021-08-05T12:28:44Z</time>
      </trkpt>
      <trkpt lat="47.58885" lon="-2.68642">
        <ele>13.2</ele>
        <time>2021-08-05T12:28:45Z</time>
      </trkpt>
      <trkpt lat="47.58881" lon="-2.68644">
        <ele>13.4</ele>
        <time>2021-08-05T12:28:46Z</time>
      </trkpt>
      <trkpt lat="47.58877" lon="-2.68647">
        <ele>13.4</ele>
        <time>2021-08-05T12:28:47Z</time>
      </trkpt>
      <trkpt lat="47.58873" lon="-2.68649">
        <ele>13.6</ele>
        <time>2021-08-05T12:28:48Z</time>
      </trkpt>
      <trkpt lat="47.58869" lon="-2.68652">
        <ele>13.6</ele>
        <time>2021-08-05T12:28:49Z</time>
      </trkpt>
      <trkpt lat="47.58865" lon="-2.68654">
        <ele>13.6</ele>
        <time>2021-08-05T12:28:50Z</time>
      </trkpt>
      <trkpt lat="47.58861" lon="-2.68656">
        <ele>13.6</ele>
        <time>2021-08-05T12:28:51Z</time>
      </trkpt>
      <trkpt lat="47.58857" lon="-2.68659">
        <ele>13.6</ele>
        <time>2021-08-05T12:28:52Z</time>
      </trkpt>
      <trkpt lat="47.58853" lon="-2.68661">
        <ele>13.8</ele>
        <time>2021-08-05T12:28:53Z</time>
      </trkpt>
      <trkpt lat="47.58849" lon="-2.68663">
        <ele>13.8</ele>
        <time>2021-08-05T12:28:54Z</time>
      </trkpt>
      <trkpt lat="47.58846" lon="-2.68664">
        <ele>13.8</ele>
        <time>2021-08-05T12:28:55Z</time>
      </trkpt>
      <trkpt lat="47.58842" lon="-2.68665">
        <ele>13.8</ele>
        <time>2021-08-05T12:28:56Z</time>
      </trkpt>
      <trkpt lat="47.58838" lon="-2.68667">
        <ele>13.8</ele>
        <time>2021-08-05T12:28:57Z</time>
      </trkpt>
      <trkpt lat="47.58835" lon="-2.68668">
        <ele>13.6</ele>
        <time>2021-08-05T12:28:58Z</time>
      </trkpt>
      <trkpt lat="47.58831" lon="-2.6867">
        <ele>13.6</ele>
        <time>2021-08-05T12:28:59Z</time>
      </trkpt>
      <trkpt lat="47.58827" lon="-2.68671">
        <ele>13.6</ele>
        <time>2021-08-05T12:29:00Z</time>
      </trkpt>
      <trkpt lat="47.58823" lon="-2.68672">
        <ele>13.6</ele>
        <time>2021-08-05T12:29:01Z</time>
      </trkpt>
      <trkpt lat="47.58819" lon="-2.68673">
        <ele>13.6</ele>
        <time>2021-08-05T12:29:02Z</time>
      </trkpt>
      <trkpt lat="47.58815" lon="-2.68674">
        <ele>13.6</ele>
        <time>2021-08-05T12:29:03Z</time>
      </trkpt>
      <trkpt lat="47.5881" lon="-2.68675">
        <ele>13.6</ele>
        <time>2021-08-05T12:29:04Z</time>
      </trkpt>
      <trkpt lat="47.58806" lon="-2.68676">
        <ele>13.6</ele>
        <time>2021-08-05T12:29:05Z</time>
      </trkpt>
      <trkpt lat="47.58801" lon="-2.68677">
        <ele>13.6</ele>
        <time>2021-08-05T12:29:06Z</time>
      </trkpt>
      <trkpt lat="47.58797" lon="-2.68678">
        <ele>13.6</ele>
        <time>2021-08-05T12:29:07Z</time>
      </trkpt>
      <trkpt lat="47.58792" lon="-2.6868">
        <ele>13.6</ele>
        <time>2021-08-05T12:29:08Z</time>
      </trkpt>
      <trkpt lat="47.58787" lon="-2.68682">
        <ele>13.6</ele>
        <time>2021-08-05T12:29:09Z</time>
      </trkpt>
      <trkpt lat="47.58782" lon="-2.68685">
        <ele>13.6</ele>
        <time>2021-08-05T12:29:10Z</time>
      </trkpt>
      <trkpt lat="47.58777" lon="-2.68688">
        <ele>13.4</ele>
        <time>2021-08-05T12:29:11Z</time>
      </trkpt>
      <trkpt lat="47.58772" lon="-2.6869">
        <ele>13.4</ele>
        <time>2021-08-05T12:29:12Z</time>
      </trkpt>
      <trkpt lat="47.58766" lon="-2.68693">
        <ele>13.4</ele>
        <time>2021-08-05T12:29:13Z</time>
      </trkpt>
      <trkpt lat="47.58761" lon="-2.68696">
        <ele>13.4</ele>
        <time>2021-08-05T12:29:14Z</time>
      </trkpt>
      <trkpt lat="47.58755" lon="-2.68698">
        <ele>13.2</ele>
        <time>2021-08-05T12:29:15Z</time>
      </trkpt>
      <trkpt lat="47.58749" lon="-2.68701">
        <ele>13.2</ele>
        <time>2021-08-05T12:29:16Z</time>
      </trkpt>
      <trkpt lat="47.58743" lon="-2.68704">
        <ele>13</ele>
        <time>2021-08-05T12:29:17Z</time>
      </trkpt>
      <trkpt lat="47.58737" lon="-2.68708">
        <ele>12.6</ele>
        <time>2021-08-05T12:29:18Z</time>
      </trkpt>
      <trkpt lat="47.58731" lon="-2.68711">
        <ele>12.2</ele>
        <time>2021-08-05T12:29:19Z</time>
      </trkpt>
      <trkpt lat="47.58725" lon="-2.68715">
        <ele>11.6</ele>
        <time>2021-08-05T12:29:20Z</time>
      </trkpt>
      <trkpt lat="47.58719" lon="-2.68718">
        <ele>11.2</ele>
        <time>2021-08-05T12:29:21Z</time>
      </trkpt>
      <trkpt lat="47.58713" lon="-2.68721">
        <ele>11</ele>
        <time>2021-08-05T12:29:22Z</time>
      </trkpt>
      <trkpt lat="47.58707" lon="-2.68725">
        <ele>10.6</ele>
        <time>2021-08-05T12:29:23Z</time>
      </trkpt>
      <trkpt lat="47.58701" lon="-2.68729">
        <ele>10.6</ele>
        <time>2021-08-05T12:29:24Z</time>
      </trkpt>
      <trkpt lat="47.58694" lon="-2.68733">
        <ele>10.2</ele>
        <time>2021-08-05T12:29:25Z</time>
      </trkpt>
      <trkpt lat="47.58688" lon="-2.68736">
        <ele>9.6</ele>
        <time>2021-08-05T12:29:26Z</time>
      </trkpt>
      <trkpt lat="47.58682" lon="-2.6874">
        <ele>9.6</ele>
        <time>2021-08-05T12:29:27Z</time>
      </trkpt>
      <trkpt lat="47.58677" lon="-2.68743">
        <ele>9.2</ele>
        <time>2021-08-05T12:29:28Z</time>
      </trkpt>
      <trkpt lat="47.58671" lon="-2.68747">
        <ele>9.2</ele>
        <time>2021-08-05T12:29:29Z</time>
      </trkpt>
      <trkpt lat="47.58665" lon="-2.68751">
        <ele>9</ele>
        <time>2021-08-05T12:29:30Z</time>
      </trkpt>
      <trkpt lat="47.5866" lon="-2.68755">
        <ele>9</ele>
        <time>2021-08-05T12:29:31Z</time>
      </trkpt>
      <trkpt lat="47.58655" lon="-2.68759">
        <ele>8.8</ele>
        <time>2021-08-05T12:29:32Z</time>
      </trkpt>
      <trkpt lat="47.5865" lon="-2.68763">
        <ele>8.8</ele>
        <time>2021-08-05T12:29:33Z</time>
      </trkpt>
      <trkpt lat="47.58646" lon="-2.68767">
        <ele>8.8</ele>
        <time>2021-08-05T12:29:34Z</time>
      </trkpt>
      <trkpt lat="47.58641" lon="-2.68772">
        <ele>8.6</ele>
        <time>2021-08-05T12:29:35Z</time>
      </trkpt>
      <trkpt lat="47.58637" lon="-2.68776">
        <ele>8.6</ele>
        <time>2021-08-05T12:29:36Z</time>
      </trkpt>
      <trkpt lat="47.58632" lon="-2.6878">
        <ele>8.4</ele>
        <time>2021-08-05T12:29:37Z</time>
      </trkpt>
      <trkpt lat="47.58627" lon="-2.68785">
        <ele>8.6</ele>
        <time>2021-08-05T12:29:38Z</time>
      </trkpt>
      <trkpt lat="47.58623" lon="-2.68789">
        <ele>8.4</ele>
        <time>2021-08-05T12:29:39Z</time>
      </trkpt>
      <trkpt lat="47.58618" lon="-2.68793">
        <ele>8.4</ele>
        <time>2021-08-05T12:29:40Z</time>
      </trkpt>
      <trkpt lat="47.58613" lon="-2.68798">
        <ele>8.4</ele>
        <time>2021-08-05T12:29:41Z</time>
      </trkpt>
      <trkpt lat="47.58609" lon="-2.68802">
        <ele>8.6</ele>
        <time>2021-08-05T12:29:42Z</time>
      </trkpt>
      <trkpt lat="47.58604" lon="-2.68806">
        <ele>8.6</ele>
        <time>2021-08-05T12:29:43Z</time>
      </trkpt>
      <trkpt lat="47.586" lon="-2.68809">
        <ele>8.6</ele>
        <time>2021-08-05T12:29:44Z</time>
      </trkpt>
      <trkpt lat="47.58595" lon="-2.68813">
        <ele>8.6</ele>
        <time>2021-08-05T12:29:45Z</time>
      </trkpt>
      <trkpt lat="47.5859" lon="-2.68817">
        <ele>8.6</ele>
        <time>2021-08-05T12:29:46Z</time>
      </trkpt>
      <trkpt lat="47.58586" lon="-2.68821">
        <ele>8.6</ele>
        <time>2021-08-05T12:29:47Z</time>
      </trkpt>
      <trkpt lat="47.58582" lon="-2.68826">
        <ele>8.8</ele>
        <time>2021-08-05T12:29:48Z</time>
      </trkpt>
      <trkpt lat="47.58577" lon="-2.6883">
        <ele>8.8</ele>
        <time>2021-08-05T12:29:49Z</time>
      </trkpt>
      <trkpt lat="47.58572" lon="-2.68834">
        <ele>8.8</ele>
        <time>2021-08-05T12:29:50Z</time>
      </trkpt>
      <trkpt lat="47.58568" lon="-2.68838">
        <ele>8.8</ele>
        <time>2021-08-05T12:29:51Z</time>
      </trkpt>
      <trkpt lat="47.58563" lon="-2.68841">
        <ele>8.8</ele>
        <time>2021-08-05T12:29:52Z</time>
      </trkpt>
      <trkpt lat="47.58558" lon="-2.68845">
        <ele>9</ele>
        <time>2021-08-05T12:29:53Z</time>
      </trkpt>
      <trkpt lat="47.58554" lon="-2.68848">
        <ele>9</ele>
        <time>2021-08-05T12:29:54Z</time>
      </trkpt>
      <trkpt lat="47.58549" lon="-2.68852">
        <ele>9</ele>
        <time>2021-08-05T12:29:55Z</time>
      </trkpt>
      <trkpt lat="47.58544" lon="-2.68855">
        <ele>9</ele>
        <time>2021-08-05T12:29:56Z</time>
      </trkpt>
      <trkpt lat="47.5854" lon="-2.68859">
        <ele>9</ele>
        <time>2021-08-05T12:29:57Z</time>
      </trkpt>
      <trkpt lat="47.58536" lon="-2.68863">
        <ele>9</ele>
        <time>2021-08-05T12:29:58Z</time>
      </trkpt>
      <trkpt lat="47.58531" lon="-2.68866">
        <ele>9.2</ele>
        <time>2021-08-05T12:29:59Z</time>
      </trkpt>
      <trkpt lat="47.58527" lon="-2.6887">
        <ele>9.2</ele>
        <time>2021-08-05T12:30:00Z</time>
      </trkpt>
      <trkpt lat="47.58522" lon="-2.68874">
        <ele>9.2</ele>
        <time>2021-08-05T12:30:01Z</time>
      </trkpt>
      <trkpt lat="47.58518" lon="-2.68877">
        <ele>9.2</ele>
        <time>2021-08-05T12:30:02Z</time>
      </trkpt>
      <trkpt lat="47.58513" lon="-2.68881">
        <ele>9.2</ele>
        <time>2021-08-05T12:30:03Z</time>
      </trkpt>
      <trkpt lat="47.58509" lon="-2.68885">
        <ele>9.2</ele>
        <time>2021-08-05T12:30:04Z</time>
      </trkpt>
      <trkpt lat="47.58505" lon="-2.68889">
        <ele>9.2</ele>
        <time>2021-08-05T12:30:05Z</time>
      </trkpt>
      <trkpt lat="47.58501" lon="-2.68892">
        <ele>9.4</ele>
        <time>2021-08-05T12:30:06Z</time>
      </trkpt>
      <trkpt lat="47.58497" lon="-2.68896">
        <ele>9.2</ele>
        <time>2021-08-05T12:30:07Z</time>
      </trkpt>
      <trkpt lat="47.58493" lon="-2.689">
        <ele>9.2</ele>
        <time>2021-08-05T12:30:08Z</time>
      </trkpt>
      <trkpt lat="47.58489" lon="-2.68904">
        <ele>9.2</ele>
        <time>2021-08-05T12:30:09Z</time>
      </trkpt>
      <trkpt lat="47.58485" lon="-2.68908">
        <ele>9.2</ele>
        <time>2021-08-05T12:30:10Z</time>
      </trkpt>
      <trkpt lat="47.58481" lon="-2.68911">
        <ele>9.2</ele>
        <time>2021-08-05T12:30:11Z</time>
      </trkpt>
      <trkpt lat="47.58477" lon="-2.68915">
        <ele>9</ele>
        <time>2021-08-05T12:30:12Z</time>
      </trkpt>
      <trkpt lat="47.58473" lon="-2.68919">
        <ele>9</ele>
        <time>2021-08-05T12:30:13Z</time>
      </trkpt>
      <trkpt lat="47.5847" lon="-2.68923">
        <ele>9</ele>
        <time>2021-08-05T12:30:14Z</time>
      </trkpt>
      <trkpt lat="47.58466" lon="-2.68927">
        <ele>9</ele>
        <time>2021-08-05T12:30:15Z</time>
      </trkpt>
      <trkpt lat="47.58463" lon="-2.68931">
        <ele>8.8</ele>
        <time>2021-08-05T12:30:16Z</time>
      </trkpt>
      <trkpt lat="47.58459" lon="-2.68935">
        <ele>8.8</ele>
        <time>2021-08-05T12:30:17Z</time>
      </trkpt>
      <trkpt lat="47.58456" lon="-2.6894">
        <ele>8.8</ele>
        <time>2021-08-05T12:30:18Z</time>
      </trkpt>
      <trkpt lat="47.58452" lon="-2.68944">
        <ele>8.8</ele>
        <time>2021-08-05T12:30:19Z</time>
      </trkpt>
      <trkpt lat="47.58449" lon="-2.68949">
        <ele>8.8</ele>
        <time>2021-08-05T12:30:20Z</time>
      </trkpt>
      <trkpt lat="47.58446" lon="-2.68953">
        <ele>8.8</ele>
        <time>2021-08-05T12:30:21Z</time>
      </trkpt>
      <trkpt lat="47.58442" lon="-2.68957">
        <ele>8.8</ele>
        <time>2021-08-05T12:30:22Z</time>
      </trkpt>
      <trkpt lat="47.58439" lon="-2.68961">
        <ele>8.8</ele>
        <time>2021-08-05T12:30:23Z</time>
      </trkpt>
      <trkpt lat="47.58435" lon="-2.68965">
        <ele>8.8</ele>
        <time>2021-08-05T12:30:24Z</time>
      </trkpt>
      <trkpt lat="47.58432" lon="-2.6897">
        <ele>8.8</ele>
        <time>2021-08-05T12:30:25Z</time>
      </trkpt>
      <trkpt lat="47.58429" lon="-2.68974">
        <ele>8.8</ele>
        <time>2021-08-05T12:30:26Z</time>
      </trkpt>
      <trkpt lat="47.58426" lon="-2.68979">
        <ele>8.8</ele>
        <time>2021-08-05T12:30:27Z</time>
      </trkpt>
      <trkpt lat="47.58423" lon="-2.68985">
        <ele>9</ele>
        <time>2021-08-05T12:30:28Z</time>
      </trkpt>
      <trkpt lat="47.5842" lon="-2.6899">
        <ele>9</ele>
        <time>2021-08-05T12:30:29Z</time>
      </trkpt>
      <trkpt lat="47.58417" lon="-2.68996">
        <ele>9</ele>
        <time>2021-08-05T12:30:30Z</time>
      </trkpt>
      <trkpt lat="47.58415" lon="-2.69002">
        <ele>9</ele>
        <time>2021-08-05T12:30:31Z</time>
      </trkpt>
      <trkpt lat="47.58412" lon="-2.69009">
        <ele>9</ele>
        <time>2021-08-05T12:30:32Z</time>
      </trkpt>
      <trkpt lat="47.5841" lon="-2.69015">
        <ele>9</ele>
        <time>2021-08-05T12:30:33Z</time>
      </trkpt>
      <trkpt lat="47.58407" lon="-2.69021">
        <ele>9</ele>
        <time>2021-08-05T12:30:34Z</time>
      </trkpt>
      <trkpt lat="47.58405" lon="-2.69027">
        <ele>9</ele>
        <time>2021-08-05T12:30:35Z</time>
      </trkpt>
      <trkpt lat="47.58403" lon="-2.69034">
        <ele>9</ele>
        <time>2021-08-05T12:30:36Z</time>
      </trkpt>
      <trkpt lat="47.58401" lon="-2.6904">
        <ele>9</ele>
        <time>2021-08-05T12:30:37Z</time>
      </trkpt>
      <trkpt lat="47.58399" lon="-2.69047">
        <ele>9</ele>
        <time>2021-08-05T12:30:38Z</time>
      </trkpt>
      <trkpt lat="47.58396" lon="-2.69053">
        <ele>9</ele>
        <time>2021-08-05T12:30:39Z</time>
      </trkpt>
      <trkpt lat="47.58394" lon="-2.69059">
        <ele>8.8</ele>
        <time>2021-08-05T12:30:40Z</time>
      </trkpt>
      <trkpt lat="47.58391" lon="-2.69065">
        <ele>8.8</ele>
        <time>2021-08-05T12:30:41Z</time>
      </trkpt>
      <trkpt lat="47.58388" lon="-2.69071">
        <ele>8.6</ele>
        <time>2021-08-05T12:30:42Z</time>
      </trkpt>
      <trkpt lat="47.58385" lon="-2.69076">
        <ele>8.6</ele>
        <time>2021-08-05T12:30:43Z</time>
      </trkpt>
      <trkpt lat="47.58382" lon="-2.69082">
        <ele>8.4</ele>
        <time>2021-08-05T12:30:44Z</time>
      </trkpt>
      <trkpt lat="47.58379" lon="-2.69088">
        <ele>8.4</ele>
        <time>2021-08-05T12:30:45Z</time>
      </trkpt>
      <trkpt lat="47.58376" lon="-2.69093">
        <ele>8.4</ele>
        <time>2021-08-05T12:30:46Z</time>
      </trkpt>
      <trkpt lat="47.58372" lon="-2.69098">
        <ele>8.2</ele>
        <time>2021-08-05T12:30:47Z</time>
      </trkpt>
      <trkpt lat="47.58369" lon="-2.69103">
        <ele>7.8</ele>
        <time>2021-08-05T12:30:48Z</time>
      </trkpt>
      <trkpt lat="47.58365" lon="-2.69107">
        <ele>7.6</ele>
        <time>2021-08-05T12:30:49Z</time>
      </trkpt>
      <trkpt lat="47.5836" lon="-2.6911">
        <ele>7.4</ele>
        <time>2021-08-05T12:30:50Z</time>
      </trkpt>
      <trkpt lat="47.58356" lon="-2.69113">
        <ele>7.4</ele>
        <time>2021-08-05T12:30:51Z</time>
      </trkpt>
      <trkpt lat="47.58352" lon="-2.69117">
        <ele>7.4</ele>
        <time>2021-08-05T12:30:52Z</time>
      </trkpt>
      <trkpt lat="47.58348" lon="-2.6912">
        <ele>7.2</ele>
        <time>2021-08-05T12:30:53Z</time>
      </trkpt>
      <trkpt lat="47.58343" lon="-2.69123">
        <ele>7</ele>
        <time>2021-08-05T12:30:54Z</time>
      </trkpt>
      <trkpt lat="47.58339" lon="-2.69127">
        <ele>7</ele>
        <time>2021-08-05T12:30:55Z</time>
      </trkpt>
      <trkpt lat="47.58334" lon="-2.6913">
        <ele>7</ele>
        <time>2021-08-05T12:30:56Z</time>
      </trkpt>
      <trkpt lat="47.58329" lon="-2.69134">
        <ele>7</ele>
        <time>2021-08-05T12:30:57Z</time>
      </trkpt>
      <trkpt lat="47.58324" lon="-2.69137">
        <ele>6.8</ele>
        <time>2021-08-05T12:30:58Z</time>
      </trkpt>
      <trkpt lat="47.58319" lon="-2.69139">
        <ele>6.8</ele>
        <time>2021-08-05T12:30:59Z</time>
      </trkpt>
      <trkpt lat="47.58314" lon="-2.69141">
        <ele>6.4</ele>
        <time>2021-08-05T12:31:00Z</time>
      </trkpt>
      <trkpt lat="47.58309" lon="-2.69144">
        <ele>6.2</ele>
        <time>2021-08-05T12:31:01Z</time>
      </trkpt>
      <trkpt lat="47.58303" lon="-2.69145">
        <ele>6</ele>
        <time>2021-08-05T12:31:02Z</time>
      </trkpt>
      <trkpt lat="47.58298" lon="-2.69146">
        <ele>5.8</ele>
        <time>2021-08-05T12:31:03Z</time>
      </trkpt>
      <trkpt lat="47.58292" lon="-2.69147">
        <ele>5.6</ele>
        <time>2021-08-05T12:31:04Z</time>
      </trkpt>
      <trkpt lat="47.58287" lon="-2.69146">
        <ele>5.6</ele>
        <time>2021-08-05T12:31:05Z</time>
      </trkpt>
      <trkpt lat="47.58281" lon="-2.69144">
        <ele>5.4</ele>
        <time>2021-08-05T12:31:06Z</time>
      </trkpt>
      <trkpt lat="47.58276" lon="-2.69143">
        <ele>5.4</ele>
        <time>2021-08-05T12:31:07Z</time>
      </trkpt>
      <trkpt lat="47.5827" lon="-2.69141">
        <ele>5.4</ele>
        <time>2021-08-05T12:31:08Z</time>
      </trkpt>
      <trkpt lat="47.58266" lon="-2.69138">
        <ele>5.4</ele>
        <time>2021-08-05T12:31:09Z</time>
      </trkpt>
      <trkpt lat="47.58261" lon="-2.69136">
        <ele>5.2</ele>
        <time>2021-08-05T12:31:10Z</time>
      </trkpt>
      <trkpt lat="47.58258" lon="-2.69135">
        <ele>5.2</ele>
        <time>2021-08-05T12:31:11Z</time>
      </trkpt>
      <trkpt lat="47.58255" lon="-2.69133">
        <ele>5.2</ele>
        <time>2021-08-05T12:31:12Z</time>
      </trkpt>
      <trkpt lat="47.58252" lon="-2.69132">
        <ele>5.2</ele>
        <time>2021-08-05T12:31:13Z</time>
      </trkpt>
      <trkpt lat="47.5825" lon="-2.69132">
        <ele>5.2</ele>
        <time>2021-08-05T12:31:14Z</time>
      </trkpt>
      <trkpt lat="47.58247" lon="-2.69132">
        <ele>5.2</ele>
        <time>2021-08-05T12:31:15Z</time>
      </trkpt>
      <trkpt lat="47.58244" lon="-2.69132">
        <ele>5.2</ele>
        <time>2021-08-05T12:31:16Z</time>
      </trkpt>
      <trkpt lat="47.58242" lon="-2.69131">
        <ele>5.2</ele>
        <time>2021-08-05T12:31:17Z</time>
      </trkpt>
      <trkpt lat="47.58239" lon="-2.69131">
        <ele>5.2</ele>
        <time>2021-08-05T12:31:18Z</time>
      </trkpt>
      <trkpt lat="47.58236" lon="-2.69131">
        <ele>5.4</ele>
        <time>2021-08-05T12:31:19Z</time>
      </trkpt>
      <trkpt lat="47.58233" lon="-2.6913">
        <ele>5.6</ele>
        <time>2021-08-05T12:31:20Z</time>
      </trkpt>
      <trkpt lat="47.5823" lon="-2.6913">
        <ele>5.6</ele>
        <time>2021-08-05T12:31:21Z</time>
      </trkpt>
      <trkpt lat="47.58228" lon="-2.69131">
        <ele>5.8</ele>
        <time>2021-08-05T12:31:22Z</time>
      </trkpt>
      <trkpt lat="47.58225" lon="-2.69132">
        <ele>5.8</ele>
        <time>2021-08-05T12:31:23Z</time>
      </trkpt>
      <trkpt lat="47.58222" lon="-2.69133">
        <ele>5.8</ele>
        <time>2021-08-05T12:31:24Z</time>
      </trkpt>
      <trkpt lat="47.58219" lon="-2.69134">
        <ele>5.8</ele>
        <time>2021-08-05T12:31:25Z</time>
      </trkpt>
      <trkpt lat="47.58215" lon="-2.69136">
        <ele>5.8</ele>
        <time>2021-08-05T12:31:26Z</time>
      </trkpt>
      <trkpt lat="47.58212" lon="-2.69138">
        <ele>6</ele>
        <time>2021-08-05T12:31:27Z</time>
      </trkpt>
      <trkpt lat="47.58209" lon="-2.69141">
        <ele>6</ele>
        <time>2021-08-05T12:31:28Z</time>
      </trkpt>
      <trkpt lat="47.58207" lon="-2.69145">
        <ele>6.2</ele>
        <time>2021-08-05T12:31:29Z</time>
      </trkpt>
      <trkpt lat="47.58204" lon="-2.6915">
        <ele>6.2</ele>
        <time>2021-08-05T12:31:30Z</time>
      </trkpt>
      <trkpt lat="47.58202" lon="-2.69155">
        <ele>6.2</ele>
        <time>2021-08-05T12:31:31Z</time>
      </trkpt>
      <trkpt lat="47.582" lon="-2.69161">
        <ele>6.4</ele>
        <time>2021-08-05T12:31:32Z</time>
      </trkpt>
      <trkpt lat="47.58199" lon="-2.69167">
        <ele>6.2</ele>
        <time>2021-08-05T12:31:33Z</time>
      </trkpt>
      <trkpt lat="47.58198" lon="-2.69173">
        <ele>6.2</ele>
        <time>2021-08-05T12:31:34Z</time>
      </trkpt>
      <trkpt lat="47.58197" lon="-2.6918">
        <ele>6.2</ele>
        <time>2021-08-05T12:31:35Z</time>
      </trkpt>
      <trkpt lat="47.58196" lon="-2.69187">
        <ele>6.4</ele>
        <time>2021-08-05T12:31:36Z</time>
      </trkpt>
      <trkpt lat="47.58195" lon="-2.69194">
        <ele>6.4</ele>
        <time>2021-08-05T12:31:37Z</time>
      </trkpt>
      <trkpt lat="47.58195" lon="-2.69202">
        <ele>6.4</ele>
        <time>2021-08-05T12:31:38Z</time>
      </trkpt>
      <trkpt lat="47.58195" lon="-2.69209">
        <ele>6.4</ele>
        <time>2021-08-05T12:31:39Z</time>
      </trkpt>
      <trkpt lat="47.58194" lon="-2.69217">
        <ele>6.4</ele>
        <time>2021-08-05T12:31:40Z</time>
      </trkpt>
      <trkpt lat="47.58193" lon="-2.69225">
        <ele>6.4</ele>
        <time>2021-08-05T12:31:41Z</time>
      </trkpt>
      <trkpt lat="47.58193" lon="-2.69232">
        <ele>6.4</ele>
        <time>2021-08-05T12:31:42Z</time>
      </trkpt>
      <trkpt lat="47.58192" lon="-2.6924">
        <ele>6.4</ele>
        <time>2021-08-05T12:31:43Z</time>
      </trkpt>
      <trkpt lat="47.58191" lon="-2.69248">
        <ele>6.4</ele>
        <time>2021-08-05T12:31:44Z</time>
      </trkpt>
      <trkpt lat="47.5819" lon="-2.69255">
        <ele>6.4</ele>
        <time>2021-08-05T12:31:45Z</time>
      </trkpt>
      <trkpt lat="47.58188" lon="-2.69263">
        <ele>6.4</ele>
        <time>2021-08-05T12:31:46Z</time>
      </trkpt>
      <trkpt lat="47.58185" lon="-2.6927">
        <ele>6.4</ele>
        <time>2021-08-05T12:31:47Z</time>
      </trkpt>
      <trkpt lat="47.58182" lon="-2.69276">
        <ele>6.4</ele>
        <time>2021-08-05T12:31:48Z</time>
      </trkpt>
      <trkpt lat="47.58179" lon="-2.69282">
        <ele>6.2</ele>
        <time>2021-08-05T12:31:49Z</time>
      </trkpt>
      <trkpt lat="47.58176" lon="-2.69287">
        <ele>6.2</ele>
        <time>2021-08-05T12:31:50Z</time>
      </trkpt>
      <trkpt lat="47.58172" lon="-2.69292">
        <ele>6.2</ele>
        <time>2021-08-05T12:31:51Z</time>
      </trkpt>
      <trkpt lat="47.58168" lon="-2.69297">
        <ele>6.2</ele>
        <time>2021-08-05T12:31:52Z</time>
      </trkpt>
      <trkpt lat="47.58164" lon="-2.69301">
        <ele>6.2</ele>
        <time>2021-08-05T12:31:53Z</time>
      </trkpt>
      <trkpt lat="47.5816" lon="-2.69305">
        <ele>6</ele>
        <time>2021-08-05T12:31:54Z</time>
      </trkpt>
      <trkpt lat="47.58156" lon="-2.69308">
        <ele>5.8</ele>
        <time>2021-08-05T12:31:55Z</time>
      </trkpt>
      <trkpt lat="47.58152" lon="-2.69312">
        <ele>5.4</ele>
        <time>2021-08-05T12:31:56Z</time>
      </trkpt>
      <trkpt lat="47.58148" lon="-2.69315">
        <ele>5.2</ele>
        <time>2021-08-05T12:31:57Z</time>
      </trkpt>
      <trkpt lat="47.58145" lon="-2.69318">
        <ele>4.8</ele>
        <time>2021-08-05T12:31:58Z</time>
      </trkpt>
      <trkpt lat="47.58142" lon="-2.69321">
        <ele>4.6</ele>
        <time>2021-08-05T12:31:59Z</time>
      </trkpt>
      <trkpt lat="47.58138" lon="-2.69325">
        <ele>4.6</ele>
        <time>2021-08-05T12:32:00Z</time>
      </trkpt>
      <trkpt lat="47.58135" lon="-2.69328">
        <ele>4.6</ele>
        <time>2021-08-05T12:32:01Z</time>
      </trkpt>
      <trkpt lat="47.58131" lon="-2.69331">
        <ele>4.6</ele>
        <time>2021-08-05T12:32:02Z</time>
      </trkpt>
      <trkpt lat="47.58127" lon="-2.69334">
        <ele>4.6</ele>
        <time>2021-08-05T12:32:03Z</time>
      </trkpt>
      <trkpt lat="47.58123" lon="-2.69338">
        <ele>4.6</ele>
        <time>2021-08-05T12:32:04Z</time>
      </trkpt>
      <trkpt lat="47.58119" lon="-2.69341">
        <ele>4.4</ele>
        <time>2021-08-05T12:32:05Z</time>
      </trkpt>
      <trkpt lat="47.58115" lon="-2.69345">
        <ele>4.4</ele>
        <time>2021-08-05T12:32:06Z</time>
      </trkpt>
      <trkpt lat="47.58112" lon="-2.69349">
        <ele>4.2</ele>
        <time>2021-08-05T12:32:07Z</time>
      </trkpt>
      <trkpt lat="47.58108" lon="-2.69354">
        <ele>4.2</ele>
        <time>2021-08-05T12:32:08Z</time>
      </trkpt>
      <trkpt lat="47.58105" lon="-2.69358">
        <ele>4.2</ele>
        <time>2021-08-05T12:32:09Z</time>
      </trkpt>
      <trkpt lat="47.58102" lon="-2.69364">
        <ele>4</ele>
        <time>2021-08-05T12:32:10Z</time>
      </trkpt>
      <trkpt lat="47.58098" lon="-2.69369">
        <ele>4</ele>
        <time>2021-08-05T12:32:11Z</time>
      </trkpt>
      <trkpt lat="47.58095" lon="-2.69374">
        <ele>4.2</ele>
        <time>2021-08-05T12:32:12Z</time>
      </trkpt>
      <trkpt lat="47.58092" lon="-2.69378">
        <ele>4.2</ele>
        <time>2021-08-05T12:32:13Z</time>
      </trkpt>
      <trkpt lat="47.58088" lon="-2.69383">
        <ele>4.2</ele>
        <time>2021-08-05T12:32:14Z</time>
      </trkpt>
      <trkpt lat="47.58085" lon="-2.69388">
        <ele>4.2</ele>
        <time>2021-08-05T12:32:15Z</time>
      </trkpt>
      <trkpt lat="47.58082" lon="-2.69392">
        <ele>4.2</ele>
        <time>2021-08-05T12:32:16Z</time>
      </trkpt>
      <trkpt lat="47.58079" lon="-2.69397">
        <ele>4.2</ele>
        <time>2021-08-05T12:32:17Z</time>
      </trkpt>
      <trkpt lat="47.58076" lon="-2.69401">
        <ele>4.2</ele>
        <time>2021-08-05T12:32:18Z</time>
      </trkpt>
      <trkpt lat="47.58073" lon="-2.69405">
        <ele>4.2</ele>
        <time>2021-08-05T12:32:19Z</time>
      </trkpt>
      <trkpt lat="47.5807" lon="-2.69409">
        <ele>4</ele>
        <time>2021-08-05T12:32:20Z</time>
      </trkpt>
      <trkpt lat="47.58066" lon="-2.69413">
        <ele>4</ele>
        <time>2021-08-05T12:32:21Z</time>
      </trkpt>
      <trkpt lat="47.58063" lon="-2.69417">
        <ele>4</ele>
        <time>2021-08-05T12:32:22Z</time>
      </trkpt>
      <trkpt lat="47.58059" lon="-2.69421">
        <ele>4</ele>
        <time>2021-08-05T12:32:23Z</time>
      </trkpt>
      <trkpt lat="47.58055" lon="-2.69424">
        <ele>3.8</ele>
        <time>2021-08-05T12:32:24Z</time>
      </trkpt>
      <trkpt lat="47.58051" lon="-2.69427">
        <ele>3.8</ele>
        <time>2021-08-05T12:32:25Z</time>
      </trkpt>
      <trkpt lat="47.58047" lon="-2.6943">
        <ele>3.8</ele>
        <time>2021-08-05T12:32:26Z</time>
      </trkpt>
      <trkpt lat="47.58042" lon="-2.69432">
        <ele>3.8</ele>
        <time>2021-08-05T12:32:27Z</time>
      </trkpt>
      <trkpt lat="47.58039" lon="-2.69435">
        <ele>3.6</ele>
        <time>2021-08-05T12:32:28Z</time>
      </trkpt>
      <trkpt lat="47.58035" lon="-2.69438">
        <ele>3.6</ele>
        <time>2021-08-05T12:32:29Z</time>
      </trkpt>
      <trkpt lat="47.58031" lon="-2.69442">
        <ele>3.6</ele>
        <time>2021-08-05T12:32:30Z</time>
      </trkpt>
      <trkpt lat="47.58028" lon="-2.69446">
        <ele>3.6</ele>
        <time>2021-08-05T12:32:31Z</time>
      </trkpt>
      <trkpt lat="47.58025" lon="-2.6945">
        <ele>3.6</ele>
        <time>2021-08-05T12:32:32Z</time>
      </trkpt>
      <trkpt lat="47.58021" lon="-2.69454">
        <ele>3.6</ele>
        <time>2021-08-05T12:32:33Z</time>
      </trkpt>
      <trkpt lat="47.58018" lon="-2.69458">
        <ele>3.6</ele>
        <time>2021-08-05T12:32:34Z</time>
      </trkpt>
      <trkpt lat="47.58015" lon="-2.69461">
        <ele>3.4</ele>
        <time>2021-08-05T12:32:35Z</time>
      </trkpt>
      <trkpt lat="47.58013" lon="-2.69465">
        <ele>3.4</ele>
        <time>2021-08-05T12:32:36Z</time>
      </trkpt>
      <trkpt lat="47.5801" lon="-2.69469">
        <ele>3.4</ele>
        <time>2021-08-05T12:32:37Z</time>
      </trkpt>
      <trkpt lat="47.58008" lon="-2.69473">
        <ele>3.4</ele>
        <time>2021-08-05T12:32:38Z</time>
      </trkpt>
      <trkpt lat="47.58005" lon="-2.69477">
        <ele>3.4</ele>
        <time>2021-08-05T12:32:39Z</time>
      </trkpt>
      <trkpt lat="47.58002" lon="-2.6948">
        <ele>3.2</ele>
        <time>2021-08-05T12:32:40Z</time>
      </trkpt>
      <trkpt lat="47.57999" lon="-2.69484">
        <ele>3.2</ele>
        <time>2021-08-05T12:32:41Z</time>
      </trkpt>
      <trkpt lat="47.57996" lon="-2.69488">
        <ele>3.2</ele>
        <time>2021-08-05T12:32:42Z</time>
      </trkpt>
      <trkpt lat="47.57993" lon="-2.69491">
        <ele>3.2</ele>
        <time>2021-08-05T12:32:43Z</time>
      </trkpt>
      <trkpt lat="47.57991" lon="-2.69494">
        <ele>3.2</ele>
        <time>2021-08-05T12:32:44Z</time>
      </trkpt>
      <trkpt lat="47.57988" lon="-2.69497">
        <ele>3.2</ele>
        <time>2021-08-05T12:32:45Z</time>
      </trkpt>
      <trkpt lat="47.57986" lon="-2.695">
        <ele>3.4</ele>
        <time>2021-08-05T12:32:46Z</time>
      </trkpt>
      <trkpt lat="47.57984" lon="-2.69503">
        <ele>3.4</ele>
        <time>2021-08-05T12:32:47Z</time>
      </trkpt>
      <trkpt lat="47.57982" lon="-2.69506">
        <ele>3.4</ele>
        <time>2021-08-05T12:32:48Z</time>
      </trkpt>
      <trkpt lat="47.57979" lon="-2.69509">
        <ele>3.4</ele>
        <time>2021-08-05T12:32:49Z</time>
      </trkpt>
      <trkpt lat="47.57977" lon="-2.69511">
        <ele>3.6</ele>
        <time>2021-08-05T12:32:50Z</time>
      </trkpt>
      <trkpt lat="47.57976" lon="-2.69514">
        <ele>3.6</ele>
        <time>2021-08-05T12:32:51Z</time>
      </trkpt>
      <trkpt lat="47.57974" lon="-2.69516">
        <ele>3.6</ele>
        <time>2021-08-05T12:32:52Z</time>
      </trkpt>
      <trkpt lat="47.57972" lon="-2.69519">
        <ele>3.6</ele>
        <time>2021-08-05T12:32:53Z</time>
      </trkpt>
      <trkpt lat="47.5797" lon="-2.69521">
        <ele>3.8</ele>
        <time>2021-08-05T12:32:54Z</time>
      </trkpt>
      <trkpt lat="47.57968" lon="-2.69524">
        <ele>3.8</ele>
        <time>2021-08-05T12:32:55Z</time>
      </trkpt>
      <trkpt lat="47.57967" lon="-2.69526">
        <ele>4</ele>
        <time>2021-08-05T12:32:56Z</time>
      </trkpt>
      <trkpt lat="47.57965" lon="-2.69528">
        <ele>4.2</ele>
        <time>2021-08-05T12:32:57Z</time>
      </trkpt>
      <trkpt lat="47.57963" lon="-2.6953">
        <ele>4.4</ele>
        <time>2021-08-05T12:32:58Z</time>
      </trkpt>
      <trkpt lat="47.57961" lon="-2.69532">
        <ele>4.6</ele>
        <time>2021-08-05T12:32:59Z</time>
      </trkpt>
      <trkpt lat="47.57959" lon="-2.69534">
        <ele>5</ele>
        <time>2021-08-05T12:33:00Z</time>
      </trkpt>
      <trkpt lat="47.57957" lon="-2.69537">
        <ele>5.2</ele>
        <time>2021-08-05T12:33:01Z</time>
      </trkpt>
      <trkpt lat="47.57955" lon="-2.69539">
        <ele>5.6</ele>
        <time>2021-08-05T12:33:02Z</time>
      </trkpt>
      <trkpt lat="47.57953" lon="-2.69542">
        <ele>6</ele>
        <time>2021-08-05T12:33:03Z</time>
      </trkpt>
      <trkpt lat="47.57951" lon="-2.69544">
        <ele>6.2</ele>
        <time>2021-08-05T12:33:04Z</time>
      </trkpt>
      <trkpt lat="47.57948" lon="-2.69547">
        <ele>6.2</ele>
        <time>2021-08-05T12:33:05Z</time>
      </trkpt>
      <trkpt lat="47.57946" lon="-2.69549">
        <ele>6.4</ele>
        <time>2021-08-05T12:33:06Z</time>
      </trkpt>
      <trkpt lat="47.57944" lon="-2.69552">
        <ele>6.6</ele>
        <time>2021-08-05T12:33:07Z</time>
      </trkpt>
      <trkpt lat="47.57942" lon="-2.69554">
        <ele>6.8</ele>
        <time>2021-08-05T12:33:08Z</time>
      </trkpt>
      <trkpt lat="47.5794" lon="-2.69557">
        <ele>6.8</ele>
        <time>2021-08-05T12:33:09Z</time>
      </trkpt>
      <trkpt lat="47.57937" lon="-2.69559">
        <ele>7</ele>
        <time>2021-08-05T12:33:10Z</time>
      </trkpt>
      <trkpt lat="47.57935" lon="-2.69562">
        <ele>7</ele>
        <time>2021-08-05T12:33:11Z</time>
      </trkpt>
      <trkpt lat="47.57933" lon="-2.69564">
        <ele>7</ele>
        <time>2021-08-05T12:33:12Z</time>
      </trkpt>
      <trkpt lat="47.57931" lon="-2.69567">
        <ele>7</ele>
        <time>2021-08-05T12:33:13Z</time>
      </trkpt>
      <trkpt lat="47.57928" lon="-2.6957">
        <ele>7.4</ele>
        <time>2021-08-05T12:33:14Z</time>
      </trkpt>
      <trkpt lat="47.57926" lon="-2.69573">
        <ele>7.6</ele>
        <time>2021-08-05T12:33:15Z</time>
      </trkpt>
      <trkpt lat="47.57924" lon="-2.69575">
        <ele>7.6</ele>
        <time>2021-08-05T12:33:16Z</time>
      </trkpt>
      <trkpt lat="47.57921" lon="-2.69578">
        <ele>7.8</ele>
        <time>2021-08-05T12:33:17Z</time>
      </trkpt>
      <trkpt lat="47.57919" lon="-2.69581">
        <ele>7.8</ele>
        <time>2021-08-05T12:33:18Z</time>
      </trkpt>
      <trkpt lat="47.57916" lon="-2.69584">
        <ele>7.8</ele>
        <time>2021-08-05T12:33:19Z</time>
      </trkpt>
      <trkpt lat="47.57914" lon="-2.69587">
        <ele>7.8</ele>
        <time>2021-08-05T12:33:20Z</time>
      </trkpt>
      <trkpt lat="47.57911" lon="-2.69591">
        <ele>7.8</ele>
        <time>2021-08-05T12:33:21Z</time>
      </trkpt>
      <trkpt lat="47.57909" lon="-2.69594">
        <ele>8</ele>
        <time>2021-08-05T12:33:22Z</time>
      </trkpt>
      <trkpt lat="47.57906" lon="-2.69596">
        <ele>8</ele>
        <time>2021-08-05T12:33:23Z</time>
      </trkpt>
      <trkpt lat="47.57903" lon="-2.69599">
        <ele>8</ele>
        <time>2021-08-05T12:33:24Z</time>
      </trkpt>
      <trkpt lat="47.57901" lon="-2.69603">
        <ele>8</ele>
        <time>2021-08-05T12:33:25Z</time>
      </trkpt>
      <trkpt lat="47.57898" lon="-2.69606">
        <ele>8</ele>
        <time>2021-08-05T12:33:26Z</time>
      </trkpt>
      <trkpt lat="47.57896" lon="-2.69609">
        <ele>8</ele>
        <time>2021-08-05T12:33:27Z</time>
      </trkpt>
      <trkpt lat="47.57893" lon="-2.69612">
        <ele>8</ele>
        <time>2021-08-05T12:33:28Z</time>
      </trkpt>
      <trkpt lat="47.57891" lon="-2.69616">
        <ele>8</ele>
        <time>2021-08-05T12:33:29Z</time>
      </trkpt>
      <trkpt lat="47.57888" lon="-2.69619">
        <ele>8</ele>
        <time>2021-08-05T12:33:30Z</time>
      </trkpt>
      <trkpt lat="47.57886" lon="-2.69622">
        <ele>8</ele>
        <time>2021-08-05T12:33:31Z</time>
      </trkpt>
      <trkpt lat="47.57883" lon="-2.69625">
        <ele>8</ele>
        <time>2021-08-05T12:33:32Z</time>
      </trkpt>
      <trkpt lat="47.57881" lon="-2.69629">
        <ele>7.8</ele>
        <time>2021-08-05T12:33:33Z</time>
      </trkpt>
      <trkpt lat="47.57878" lon="-2.69632">
        <ele>7.8</ele>
        <time>2021-08-05T12:33:34Z</time>
      </trkpt>
      <trkpt lat="47.57876" lon="-2.69636">
        <ele>7.8</ele>
        <time>2021-08-05T12:33:35Z</time>
      </trkpt>
      <trkpt lat="47.57873" lon="-2.69639">
        <ele>7.8</ele>
        <time>2021-08-05T12:33:36Z</time>
      </trkpt>
      <trkpt lat="47.5787" lon="-2.69643">
        <ele>7.8</ele>
        <time>2021-08-05T12:33:37Z</time>
      </trkpt>
      <trkpt lat="47.57868" lon="-2.69646">
        <ele>7.8</ele>
        <time>2021-08-05T12:33:38Z</time>
      </trkpt>
      <trkpt lat="47.57865" lon="-2.69649">
        <ele>8</ele>
        <time>2021-08-05T12:33:39Z</time>
      </trkpt>
      <trkpt lat="47.57863" lon="-2.69653">
        <ele>8</ele>
        <time>2021-08-05T12:33:40Z</time>
      </trkpt>
      <trkpt lat="47.5786" lon="-2.69656">
        <ele>8</ele>
        <time>2021-08-05T12:33:41Z</time>
      </trkpt>
      <trkpt lat="47.57858" lon="-2.6966">
        <ele>8</ele>
        <time>2021-08-05T12:33:42Z</time>
      </trkpt>
      <trkpt lat="47.57855" lon="-2.69663">
        <ele>8.2</ele>
        <time>2021-08-05T12:33:43Z</time>
      </trkpt>
      <trkpt lat="47.57853" lon="-2.69667">
        <ele>8.2</ele>
        <time>2021-08-05T12:33:44Z</time>
      </trkpt>
      <trkpt lat="47.5785" lon="-2.6967">
        <ele>8.2</ele>
        <time>2021-08-05T12:33:45Z</time>
      </trkpt>
      <trkpt lat="47.57848" lon="-2.69674">
        <ele>8.2</ele>
        <time>2021-08-05T12:33:46Z</time>
      </trkpt>
      <trkpt lat="47.57845" lon="-2.69677">
        <ele>8.4</ele>
        <time>2021-08-05T12:33:47Z</time>
      </trkpt>
      <trkpt lat="47.57843" lon="-2.6968">
        <ele>8.6</ele>
        <time>2021-08-05T12:33:48Z</time>
      </trkpt>
      <trkpt lat="47.5784" lon="-2.69683">
        <ele>8.6</ele>
        <time>2021-08-05T12:33:49Z</time>
      </trkpt>
      <trkpt lat="47.57838" lon="-2.69686">
        <ele>8.8</ele>
        <time>2021-08-05T12:33:50Z</time>
      </trkpt>
      <trkpt lat="47.57836" lon="-2.69689">
        <ele>8.8</ele>
        <time>2021-08-05T12:33:51Z</time>
      </trkpt>
      <trkpt lat="47.57833" lon="-2.69692">
        <ele>8.8</ele>
        <time>2021-08-05T12:33:52Z</time>
      </trkpt>
      <trkpt lat="47.57831" lon="-2.69695">
        <ele>9</ele>
        <time>2021-08-05T12:33:53Z</time>
      </trkpt>
      <trkpt lat="47.57828" lon="-2.69699">
        <ele>9.2</ele>
        <time>2021-08-05T12:33:54Z</time>
      </trkpt>
      <trkpt lat="47.57826" lon="-2.69702">
        <ele>9.4</ele>
        <time>2021-08-05T12:33:55Z</time>
      </trkpt>
      <trkpt lat="47.57823" lon="-2.69705">
        <ele>9.6</ele>
        <time>2021-08-05T12:33:56Z</time>
      </trkpt>
      <trkpt lat="47.57821" lon="-2.69709">
        <ele>9.6</ele>
        <time>2021-08-05T12:33:57Z</time>
      </trkpt>
      <trkpt lat="47.57818" lon="-2.69712">
        <ele>9.8</ele>
        <time>2021-08-05T12:33:58Z</time>
      </trkpt>
      <trkpt lat="47.57816" lon="-2.69716">
        <ele>9.8</ele>
        <time>2021-08-05T12:33:59Z</time>
      </trkpt>
      <trkpt lat="47.57814" lon="-2.69719">
        <ele>9.8</ele>
        <time>2021-08-05T12:34:00Z</time>
      </trkpt>
      <trkpt lat="47.57811" lon="-2.69722">
        <ele>9.8</ele>
        <time>2021-08-05T12:34:01Z</time>
      </trkpt>
      <trkpt lat="47.57809" lon="-2.69726">
        <ele>9.8</ele>
        <time>2021-08-05T12:34:02Z</time>
      </trkpt>
      <trkpt lat="47.57806" lon="-2.69729">
        <ele>9.8</ele>
        <time>2021-08-05T12:34:03Z</time>
      </trkpt>
      <trkpt lat="47.57804" lon="-2.69732">
        <ele>9.8</ele>
        <time>2021-08-05T12:34:04Z</time>
      </trkpt>
      <trkpt lat="47.57801" lon="-2.69736">
        <ele>10</ele>
        <time>2021-08-05T12:34:05Z</time>
      </trkpt>
      <trkpt lat="47.57799" lon="-2.69739">
        <ele>10</ele>
        <time>2021-08-05T12:34:06Z</time>
      </trkpt>
      <trkpt lat="47.57796" lon="-2.69742">
        <ele>10</ele>
        <time>2021-08-05T12:34:07Z</time>
      </trkpt>
      <trkpt lat="47.57794" lon="-2.69745">
        <ele>10</ele>
        <time>2021-08-05T12:34:08Z</time>
      </trkpt>
      <trkpt lat="47.57791" lon="-2.69748">
        <ele>10</ele>
        <time>2021-08-05T12:34:09Z</time>
      </trkpt>
      <trkpt lat="47.57789" lon="-2.69751">
        <ele>10</ele>
        <time>2021-08-05T12:34:10Z</time>
      </trkpt>
      <trkpt lat="47.57787" lon="-2.69754">
        <ele>10.2</ele>
        <time>2021-08-05T12:34:11Z</time>
      </trkpt>
      <trkpt lat="47.57784" lon="-2.69758">
        <ele>10.2</ele>
        <time>2021-08-05T12:34:12Z</time>
      </trkpt>
      <trkpt lat="47.57782" lon="-2.69761">
        <ele>10.2</ele>
        <time>2021-08-05T12:34:13Z</time>
      </trkpt>
      <trkpt lat="47.5778" lon="-2.69764">
        <ele>10.2</ele>
        <time>2021-08-05T12:34:14Z</time>
      </trkpt>
      <trkpt lat="47.57777" lon="-2.69767">
        <ele>10.2</ele>
        <time>2021-08-05T12:34:15Z</time>
      </trkpt>
      <trkpt lat="47.57775" lon="-2.69769">
        <ele>10.2</ele>
        <time>2021-08-05T12:34:16Z</time>
      </trkpt>
      <trkpt lat="47.57773" lon="-2.69772">
        <ele>10.2</ele>
        <time>2021-08-05T12:34:17Z</time>
      </trkpt>
      <trkpt lat="47.57771" lon="-2.69774">
        <ele>10.2</ele>
        <time>2021-08-05T12:34:18Z</time>
      </trkpt>
      <trkpt lat="47.57769" lon="-2.69777">
        <ele>10.2</ele>
        <time>2021-08-05T12:34:19Z</time>
      </trkpt>
      <trkpt lat="47.57766" lon="-2.6978">
        <ele>10.2</ele>
        <time>2021-08-05T12:34:20Z</time>
      </trkpt>
      <trkpt lat="47.57764" lon="-2.69782">
        <ele>10.4</ele>
        <time>2021-08-05T12:34:21Z</time>
      </trkpt>
      <trkpt lat="47.57762" lon="-2.69785">
        <ele>10.4</ele>
        <time>2021-08-05T12:34:22Z</time>
      </trkpt>
      <trkpt lat="47.5776" lon="-2.69788">
        <ele>10.4</ele>
        <time>2021-08-05T12:34:23Z</time>
      </trkpt>
      <trkpt lat="47.57757" lon="-2.69791">
        <ele>10.4</ele>
        <time>2021-08-05T12:34:24Z</time>
      </trkpt>
      <trkpt lat="47.57755" lon="-2.69794">
        <ele>10.4</ele>
        <time>2021-08-05T12:34:25Z</time>
      </trkpt>
      <trkpt lat="47.57753" lon="-2.69797">
        <ele>10.4</ele>
        <time>2021-08-05T12:34:26Z</time>
      </trkpt>
      <trkpt lat="47.5775" lon="-2.69799">
        <ele>10.4</ele>
        <time>2021-08-05T12:34:27Z</time>
      </trkpt>
      <trkpt lat="47.57748" lon="-2.69802">
        <ele>10.4</ele>
        <time>2021-08-05T12:34:28Z</time>
      </trkpt>
      <trkpt lat="47.57746" lon="-2.69805">
        <ele>10.6</ele>
        <time>2021-08-05T12:34:29Z</time>
      </trkpt>
      <trkpt lat="47.57744" lon="-2.69808">
        <ele>10.6</ele>
        <time>2021-08-05T12:34:30Z</time>
      </trkpt>
      <trkpt lat="47.57741" lon="-2.69811">
        <ele>10.6</ele>
        <time>2021-08-05T12:34:31Z</time>
      </trkpt>
      <trkpt lat="47.57739" lon="-2.69814">
        <ele>10.8</ele>
        <time>2021-08-05T12:34:32Z</time>
      </trkpt>
      <trkpt lat="47.57737" lon="-2.69817">
        <ele>10.8</ele>
        <time>2021-08-05T12:34:33Z</time>
      </trkpt>
      <trkpt lat="47.57735" lon="-2.6982">
        <ele>11</ele>
        <time>2021-08-05T12:34:34Z</time>
      </trkpt>
      <trkpt lat="47.57732" lon="-2.69823">
        <ele>11.2</ele>
        <time>2021-08-05T12:34:35Z</time>
      </trkpt>
      <trkpt lat="47.5773" lon="-2.69826">
        <ele>11.4</ele>
        <time>2021-08-05T12:34:36Z</time>
      </trkpt>
      <trkpt lat="47.57728" lon="-2.69829">
        <ele>11.6</ele>
        <time>2021-08-05T12:34:37Z</time>
      </trkpt>
      <trkpt lat="47.57726" lon="-2.69832">
        <ele>11.8</ele>
        <time>2021-08-05T12:34:38Z</time>
      </trkpt>
      <trkpt lat="47.57724" lon="-2.69834">
        <ele>12</ele>
        <time>2021-08-05T12:34:39Z</time>
      </trkpt>
      <trkpt lat="47.57721" lon="-2.69837">
        <ele>12</ele>
        <time>2021-08-05T12:34:40Z</time>
      </trkpt>
      <trkpt lat="47.57719" lon="-2.6984">
        <ele>12</ele>
        <time>2021-08-05T12:34:41Z</time>
      </trkpt>
      <trkpt lat="47.57717" lon="-2.69843">
        <ele>12.2</ele>
        <time>2021-08-05T12:34:42Z</time>
      </trkpt>
      <trkpt lat="47.57715" lon="-2.69846">
        <ele>12.4</ele>
        <time>2021-08-05T12:34:43Z</time>
      </trkpt>
      <trkpt lat="47.57713" lon="-2.69849">
        <ele>12.4</ele>
        <time>2021-08-05T12:34:44Z</time>
      </trkpt>
      <trkpt lat="47.57711" lon="-2.69851">
        <ele>12.8</ele>
        <time>2021-08-05T12:34:45Z</time>
      </trkpt>
      <trkpt lat="47.57709" lon="-2.69854">
        <ele>13</ele>
        <time>2021-08-05T12:34:46Z</time>
      </trkpt>
      <trkpt lat="47.57707" lon="-2.69857">
        <ele>13</ele>
        <time>2021-08-05T12:34:47Z</time>
      </trkpt>
      <trkpt lat="47.57705" lon="-2.6986">
        <ele>13.2</ele>
        <time>2021-08-05T12:34:48Z</time>
      </trkpt>
      <trkpt lat="47.57702" lon="-2.69862">
        <ele>13.2</ele>
        <time>2021-08-05T12:34:49Z</time>
      </trkpt>
      <trkpt lat="47.577" lon="-2.69865">
        <ele>13.2</ele>
        <time>2021-08-05T12:34:50Z</time>
      </trkpt>
      <trkpt lat="47.57698" lon="-2.69868">
        <ele>13.2</ele>
        <time>2021-08-05T12:34:51Z</time>
      </trkpt>
      <trkpt lat="47.57696" lon="-2.69871">
        <ele>13.2</ele>
        <time>2021-08-05T12:34:52Z</time>
      </trkpt>
      <trkpt lat="47.57694" lon="-2.69874">
        <ele>13.2</ele>
        <time>2021-08-05T12:34:53Z</time>
      </trkpt>
      <trkpt lat="47.57692" lon="-2.69877">
        <ele>13.4</ele>
        <time>2021-08-05T12:34:54Z</time>
      </trkpt>
      <trkpt lat="47.5769" lon="-2.6988">
        <ele>13.6</ele>
        <time>2021-08-05T12:34:55Z</time>
      </trkpt>
      <trkpt lat="47.57688" lon="-2.69882">
        <ele>13.8</ele>
        <time>2021-08-05T12:34:56Z</time>
      </trkpt>
      <trkpt lat="47.57686" lon="-2.69885">
        <ele>14</ele>
        <time>2021-08-05T12:34:57Z</time>
      </trkpt>
      <trkpt lat="47.57684" lon="-2.69888">
        <ele>14</ele>
        <time>2021-08-05T12:34:58Z</time>
      </trkpt>
      <trkpt lat="47.57682" lon="-2.6989">
        <ele>14.2</ele>
        <time>2021-08-05T12:34:59Z</time>
      </trkpt>
      <trkpt lat="47.5768" lon="-2.69893">
        <ele>14.2</ele>
        <time>2021-08-05T12:35:00Z</time>
      </trkpt>
      <trkpt lat="47.57678" lon="-2.69896">
        <ele>14.2</ele>
        <time>2021-08-05T12:35:01Z</time>
      </trkpt>
      <trkpt lat="47.57676" lon="-2.69898">
        <ele>14.2</ele>
        <time>2021-08-05T12:35:02Z</time>
      </trkpt>
      <trkpt lat="47.57674" lon="-2.69901">
        <ele>14.4</ele>
        <time>2021-08-05T12:35:03Z</time>
      </trkpt>
      <trkpt lat="47.57672" lon="-2.69904">
        <ele>14.4</ele>
        <time>2021-08-05T12:35:04Z</time>
      </trkpt>
      <trkpt lat="47.5767" lon="-2.69907">
        <ele>14.4</ele>
        <time>2021-08-05T12:35:05Z</time>
      </trkpt>
      <trkpt lat="47.57667" lon="-2.6991">
        <ele>14.4</ele>
        <time>2021-08-05T12:35:06Z</time>
      </trkpt>
      <trkpt lat="47.57665" lon="-2.69912">
        <ele>14.4</ele>
        <time>2021-08-05T12:35:07Z</time>
      </trkpt>
      <trkpt lat="47.57663" lon="-2.69915">
        <ele>14.6</ele>
        <time>2021-08-05T12:35:08Z</time>
      </trkpt>
      <trkpt lat="47.57661" lon="-2.69918">
        <ele>14.6</ele>
        <time>2021-08-05T12:35:09Z</time>
      </trkpt>
      <trkpt lat="47.57659" lon="-2.6992">
        <ele>14.6</ele>
        <time>2021-08-05T12:35:10Z</time>
      </trkpt>
      <trkpt lat="47.57656" lon="-2.69923">
        <ele>14.8</ele>
        <time>2021-08-05T12:35:11Z</time>
      </trkpt>
      <trkpt lat="47.57654" lon="-2.69926">
        <ele>14.8</ele>
        <time>2021-08-05T12:35:12Z</time>
      </trkpt>
      <trkpt lat="47.57652" lon="-2.6993">
        <ele>14.8</ele>
        <time>2021-08-05T12:35:13Z</time>
      </trkpt>
      <trkpt lat="47.5765" lon="-2.69933">
        <ele>15</ele>
        <time>2021-08-05T12:35:14Z</time>
      </trkpt>
      <trkpt lat="47.57647" lon="-2.69936">
        <ele>15</ele>
        <time>2021-08-05T12:35:15Z</time>
      </trkpt>
      <trkpt lat="47.57645" lon="-2.69939">
        <ele>15</ele>
        <time>2021-08-05T12:35:16Z</time>
      </trkpt>
      <trkpt lat="47.57642" lon="-2.69942">
        <ele>15.2</ele>
        <time>2021-08-05T12:35:17Z</time>
      </trkpt>
      <trkpt lat="47.5764" lon="-2.69945">
        <ele>15.2</ele>
        <time>2021-08-05T12:35:18Z</time>
      </trkpt>
      <trkpt lat="47.57638" lon="-2.69948">
        <ele>15.4</ele>
        <time>2021-08-05T12:35:19Z</time>
      </trkpt>
      <trkpt lat="47.57635" lon="-2.69951">
        <ele>15.6</ele>
        <time>2021-08-05T12:35:20Z</time>
      </trkpt>
      <trkpt lat="47.57633" lon="-2.69955">
        <ele>15.8</ele>
        <time>2021-08-05T12:35:21Z</time>
      </trkpt>
      <trkpt lat="47.5763" lon="-2.69958">
        <ele>15.8</ele>
        <time>2021-08-05T12:35:22Z</time>
      </trkpt>
      <trkpt lat="47.57628" lon="-2.69961">
        <ele>15.8</ele>
        <time>2021-08-05T12:35:23Z</time>
      </trkpt>
      <trkpt lat="47.57626" lon="-2.69964">
        <ele>15.8</ele>
        <time>2021-08-05T12:35:24Z</time>
      </trkpt>
      <trkpt lat="47.57623" lon="-2.69967">
        <ele>15.8</ele>
        <time>2021-08-05T12:35:25Z</time>
      </trkpt>
      <trkpt lat="47.57621" lon="-2.69971">
        <ele>16</ele>
        <time>2021-08-05T12:35:26Z</time>
      </trkpt>
      <trkpt lat="47.57619" lon="-2.69974">
        <ele>16</ele>
        <time>2021-08-05T12:35:27Z</time>
      </trkpt>
      <trkpt lat="47.57616" lon="-2.69978">
        <ele>16</ele>
        <time>2021-08-05T12:35:28Z</time>
      </trkpt>
      <trkpt lat="47.57614" lon="-2.69981">
        <ele>16</ele>
        <time>2021-08-05T12:35:29Z</time>
      </trkpt>
      <trkpt lat="47.57611" lon="-2.69985">
        <ele>16</ele>
        <time>2021-08-05T12:35:30Z</time>
      </trkpt>
      <trkpt lat="47.57609" lon="-2.69988">
        <ele>16</ele>
        <time>2021-08-05T12:35:31Z</time>
      </trkpt>
      <trkpt lat="47.57606" lon="-2.69992">
        <ele>16</ele>
        <time>2021-08-05T12:35:32Z</time>
      </trkpt>
      <trkpt lat="47.57603" lon="-2.69995">
        <ele>16</ele>
        <time>2021-08-05T12:35:33Z</time>
      </trkpt>
      <trkpt lat="47.57601" lon="-2.69999">
        <ele>16</ele>
        <time>2021-08-05T12:35:34Z</time>
      </trkpt>
      <trkpt lat="47.57598" lon="-2.70003">
        <ele>16</ele>
        <time>2021-08-05T12:35:35Z</time>
      </trkpt>
      <trkpt lat="47.57596" lon="-2.70007">
        <ele>16</ele>
        <time>2021-08-05T12:35:36Z</time>
      </trkpt>
      <trkpt lat="47.57593" lon="-2.70011">
        <ele>16</ele>
        <time>2021-08-05T12:35:37Z</time>
      </trkpt>
      <trkpt lat="47.5759" lon="-2.70015">
        <ele>16</ele>
        <time>2021-08-05T12:35:38Z</time>
      </trkpt>
      <trkpt lat="47.57587" lon="-2.70019">
        <ele>16</ele>
        <time>2021-08-05T12:35:39Z</time>
      </trkpt>
      <trkpt lat="47.57584" lon="-2.70022">
        <ele>16</ele>
        <time>2021-08-05T12:35:40Z</time>
      </trkpt>
      <trkpt lat="47.57581" lon="-2.70027">
        <ele>16</ele>
        <time>2021-08-05T12:35:41Z</time>
      </trkpt>
      <trkpt lat="47.57578" lon="-2.70031">
        <ele>16</ele>
        <time>2021-08-05T12:35:42Z</time>
      </trkpt>
      <trkpt lat="47.57575" lon="-2.70036">
        <ele>16</ele>
        <time>2021-08-05T12:35:43Z</time>
      </trkpt>
      <trkpt lat="47.57572" lon="-2.70041">
        <ele>15.8</ele>
        <time>2021-08-05T12:35:44Z</time>
      </trkpt>
      <trkpt lat="47.57569" lon="-2.70046">
        <ele>15.6</ele>
        <time>2021-08-05T12:35:45Z</time>
      </trkpt>
      <trkpt lat="47.57565" lon="-2.7005">
        <ele>15.6</ele>
        <time>2021-08-05T12:35:46Z</time>
      </trkpt>
      <trkpt lat="47.57562" lon="-2.70055">
        <ele>15.4</ele>
        <time>2021-08-05T12:35:47Z</time>
      </trkpt>
      <trkpt lat="47.57558" lon="-2.7006">
        <ele>15.2</ele>
        <time>2021-08-05T12:35:48Z</time>
      </trkpt>
      <trkpt lat="47.57554" lon="-2.70065">
        <ele>15.2</ele>
        <time>2021-08-05T12:35:49Z</time>
      </trkpt>
      <trkpt lat="47.5755" lon="-2.7007">
        <ele>15.2</ele>
        <time>2021-08-05T12:35:50Z</time>
      </trkpt>
      <trkpt lat="47.57547" lon="-2.70076">
        <ele>15.2</ele>
        <time>2021-08-05T12:35:51Z</time>
      </trkpt>
      <trkpt lat="47.57543" lon="-2.70081">
        <ele>15.2</ele>
        <time>2021-08-05T12:35:52Z</time>
      </trkpt>
      <trkpt lat="47.57539" lon="-2.70086">
        <ele>15.2</ele>
        <time>2021-08-05T12:35:53Z</time>
      </trkpt>
      <trkpt lat="47.57535" lon="-2.70092">
        <ele>15</ele>
        <time>2021-08-05T12:35:54Z</time>
      </trkpt>
      <trkpt lat="47.57531" lon="-2.70098">
        <ele>15</ele>
        <time>2021-08-05T12:35:55Z</time>
      </trkpt>
      <trkpt lat="47.57527" lon="-2.70103">
        <ele>15</ele>
        <time>2021-08-05T12:35:56Z</time>
      </trkpt>
      <trkpt lat="47.57523" lon="-2.70109">
        <ele>14.8</ele>
        <time>2021-08-05T12:35:57Z</time>
      </trkpt>
      <trkpt lat="47.57519" lon="-2.70114">
        <ele>14.8</ele>
        <time>2021-08-05T12:35:58Z</time>
      </trkpt>
      <trkpt lat="47.57515" lon="-2.7012">
        <ele>14.8</ele>
        <time>2021-08-05T12:35:59Z</time>
      </trkpt>
      <trkpt lat="47.57511" lon="-2.70125">
        <ele>14.6</ele>
        <time>2021-08-05T12:36:00Z</time>
      </trkpt>
      <trkpt lat="47.57507" lon="-2.7013">
        <ele>14.6</ele>
        <time>2021-08-05T12:36:01Z</time>
      </trkpt>
      <trkpt lat="47.57504" lon="-2.70136">
        <ele>14.6</ele>
        <time>2021-08-05T12:36:02Z</time>
      </trkpt>
      <trkpt lat="47.575" lon="-2.70142">
        <ele>14.4</ele>
        <time>2021-08-05T12:36:03Z</time>
      </trkpt>
      <trkpt lat="47.57496" lon="-2.70147">
        <ele>14.4</ele>
        <time>2021-08-05T12:36:04Z</time>
      </trkpt>
      <trkpt lat="47.57492" lon="-2.70152">
        <ele>14.4</ele>
        <time>2021-08-05T12:36:05Z</time>
      </trkpt>
      <trkpt lat="47.57488" lon="-2.70158">
        <ele>14.2</ele>
        <time>2021-08-05T12:36:06Z</time>
      </trkpt>
      <trkpt lat="47.57484" lon="-2.70163">
        <ele>14</ele>
        <time>2021-08-05T12:36:07Z</time>
      </trkpt>
      <trkpt lat="47.5748" lon="-2.70169">
        <ele>13.8</ele>
        <time>2021-08-05T12:36:08Z</time>
      </trkpt>
      <trkpt lat="47.57476" lon="-2.70174">
        <ele>13.8</ele>
        <time>2021-08-05T12:36:09Z</time>
      </trkpt>
      <trkpt lat="47.57471" lon="-2.7018">
        <ele>13.6</ele>
        <time>2021-08-05T12:36:10Z</time>
      </trkpt>
      <trkpt lat="47.57467" lon="-2.70186">
        <ele>13.6</ele>
        <time>2021-08-05T12:36:11Z</time>
      </trkpt>
      <trkpt lat="47.57462" lon="-2.70192">
        <ele>13.4</ele>
        <time>2021-08-05T12:36:12Z</time>
      </trkpt>
      <trkpt lat="47.57458" lon="-2.70197">
        <ele>13</ele>
        <time>2021-08-05T12:36:13Z</time>
      </trkpt>
      <trkpt lat="47.57453" lon="-2.70203">
        <ele>13</ele>
        <time>2021-08-05T12:36:14Z</time>
      </trkpt>
      <trkpt lat="47.57449" lon="-2.70209">
        <ele>12.8</ele>
        <time>2021-08-05T12:36:15Z</time>
      </trkpt>
      <trkpt lat="47.57445" lon="-2.70214">
        <ele>12.6</ele>
        <time>2021-08-05T12:36:16Z</time>
      </trkpt>
      <trkpt lat="47.57441" lon="-2.70218">
        <ele>12.4</ele>
        <time>2021-08-05T12:36:17Z</time>
      </trkpt>
      <trkpt lat="47.57437" lon="-2.70223">
        <ele>12.2</ele>
        <time>2021-08-05T12:36:18Z</time>
      </trkpt>
      <trkpt lat="47.57432" lon="-2.70227">
        <ele>12.2</ele>
        <time>2021-08-05T12:36:19Z</time>
      </trkpt>
      <trkpt lat="47.57428" lon="-2.70232">
        <ele>12.2</ele>
        <time>2021-08-05T12:36:20Z</time>
      </trkpt>
      <trkpt lat="47.57424" lon="-2.70237">
        <ele>12.2</ele>
        <time>2021-08-05T12:36:21Z</time>
      </trkpt>
      <trkpt lat="47.5742" lon="-2.70242">
        <ele>12</ele>
        <time>2021-08-05T12:36:22Z</time>
      </trkpt>
      <trkpt lat="47.57416" lon="-2.70247">
        <ele>12</ele>
        <time>2021-08-05T12:36:23Z</time>
      </trkpt>
      <trkpt lat="47.57412" lon="-2.70252">
        <ele>12</ele>
        <time>2021-08-05T12:36:24Z</time>
      </trkpt>
      <trkpt lat="47.57407" lon="-2.70258">
        <ele>12</ele>
        <time>2021-08-05T12:36:25Z</time>
      </trkpt>
      <trkpt lat="47.57403" lon="-2.70263">
        <ele>12</ele>
        <time>2021-08-05T12:36:26Z</time>
      </trkpt>
      <trkpt lat="47.57399" lon="-2.70268">
        <ele>12</ele>
        <time>2021-08-05T12:36:27Z</time>
      </trkpt>
      <trkpt lat="47.57395" lon="-2.70273">
        <ele>12</ele>
        <time>2021-08-05T12:36:28Z</time>
      </trkpt>
      <trkpt lat="47.5739" lon="-2.70278">
        <ele>12</ele>
        <time>2021-08-05T12:36:29Z</time>
      </trkpt>
      <trkpt lat="47.57385" lon="-2.70283">
        <ele>12</ele>
        <time>2021-08-05T12:36:30Z</time>
      </trkpt>
      <trkpt lat="47.57381" lon="-2.70288">
        <ele>11.8</ele>
        <time>2021-08-05T12:36:31Z</time>
      </trkpt>
      <trkpt lat="47.57376" lon="-2.70293">
        <ele>11.8</ele>
        <time>2021-08-05T12:36:32Z</time>
      </trkpt>
      <trkpt lat="47.57371" lon="-2.70299">
        <ele>11.8</ele>
        <time>2021-08-05T12:36:33Z</time>
      </trkpt>
      <trkpt lat="47.57366" lon="-2.70303">
        <ele>11.8</ele>
        <time>2021-08-05T12:36:34Z</time>
      </trkpt>
      <trkpt lat="47.57361" lon="-2.70308">
        <ele>11.8</ele>
        <time>2021-08-05T12:36:35Z</time>
      </trkpt>
      <trkpt lat="47.57356" lon="-2.70313">
        <ele>11.6</ele>
        <time>2021-08-05T12:36:36Z</time>
      </trkpt>
      <trkpt lat="47.57351" lon="-2.70317">
        <ele>11.6</ele>
        <time>2021-08-05T12:36:37Z</time>
      </trkpt>
      <trkpt lat="47.57346" lon="-2.7032">
        <ele>11.4</ele>
        <time>2021-08-05T12:36:38Z</time>
      </trkpt>
      <trkpt lat="47.57341" lon="-2.70324">
        <ele>11.4</ele>
        <time>2021-08-05T12:36:39Z</time>
      </trkpt>
      <trkpt lat="47.57337" lon="-2.70329">
        <ele>11.2</ele>
        <time>2021-08-05T12:36:40Z</time>
      </trkpt>
      <trkpt lat="47.57333" lon="-2.70334">
        <ele>10.8</ele>
        <time>2021-08-05T12:36:41Z</time>
      </trkpt>
      <trkpt lat="47.57329" lon="-2.70339">
        <ele>10.8</ele>
        <time>2021-08-05T12:36:42Z</time>
      </trkpt>
      <trkpt lat="47.57324" lon="-2.70343">
        <ele>10.8</ele>
        <time>2021-08-05T12:36:43Z</time>
      </trkpt>
      <trkpt lat="47.5732" lon="-2.70347">
        <ele>10.8</ele>
        <time>2021-08-05T12:36:44Z</time>
      </trkpt>
      <trkpt lat="47.57316" lon="-2.7035">
        <ele>10.8</ele>
        <time>2021-08-05T12:36:45Z</time>
      </trkpt>
      <trkpt lat="47.57313" lon="-2.70354">
        <ele>10.8</ele>
        <time>2021-08-05T12:36:46Z</time>
      </trkpt>
      <trkpt lat="47.57309" lon="-2.70358">
        <ele>10.8</ele>
        <time>2021-08-05T12:36:47Z</time>
      </trkpt>
      <trkpt lat="47.57306" lon="-2.70361">
        <ele>10.8</ele>
        <time>2021-08-05T12:36:48Z</time>
      </trkpt>
      <trkpt lat="47.57303" lon="-2.70364">
        <ele>10.8</ele>
        <time>2021-08-05T12:36:49Z</time>
      </trkpt>
      <trkpt lat="47.573" lon="-2.70367">
        <ele>10.8</ele>
        <time>2021-08-05T12:36:50Z</time>
      </trkpt>
      <trkpt lat="47.57297" lon="-2.7037">
        <ele>11.4</ele>
        <time>2021-08-05T12:36:51Z</time>
      </trkpt>
      <trkpt lat="47.57294" lon="-2.70373">
        <ele>11.8</ele>
        <time>2021-08-05T12:36:52Z</time>
      </trkpt>
      <trkpt lat="47.57291" lon="-2.70376">
        <ele>12</ele>
        <time>2021-08-05T12:36:53Z</time>
      </trkpt>
      <trkpt lat="47.57288" lon="-2.70379">
        <ele>12.2</ele>
        <time>2021-08-05T12:36:54Z</time>
      </trkpt>
      <trkpt lat="47.57285" lon="-2.70381">
        <ele>12.2</ele>
        <time>2021-08-05T12:36:55Z</time>
      </trkpt>
      <trkpt lat="47.57282" lon="-2.70384">
        <ele>12.4</ele>
        <time>2021-08-05T12:36:56Z</time>
      </trkpt>
      <trkpt lat="47.57279" lon="-2.70387">
        <ele>12.6</ele>
        <time>2021-08-05T12:36:57Z</time>
      </trkpt>
      <trkpt lat="47.57276" lon="-2.7039">
        <ele>12.6</ele>
        <time>2021-08-05T12:36:58Z</time>
      </trkpt>
      <trkpt lat="47.57273" lon="-2.70393">
        <ele>12.8</ele>
        <time>2021-08-05T12:36:59Z</time>
      </trkpt>
      <trkpt lat="47.5727" lon="-2.70396">
        <ele>12.8</ele>
        <time>2021-08-05T12:37:00Z</time>
      </trkpt>
      <trkpt lat="47.57267" lon="-2.70399">
        <ele>13</ele>
        <time>2021-08-05T12:37:01Z</time>
      </trkpt>
      <trkpt lat="47.57263" lon="-2.70402">
        <ele>13</ele>
        <time>2021-08-05T12:37:02Z</time>
      </trkpt>
      <trkpt lat="47.5726" lon="-2.70406">
        <ele>13</ele>
        <time>2021-08-05T12:37:03Z</time>
      </trkpt>
      <trkpt lat="47.57257" lon="-2.7041">
        <ele>13</ele>
        <time>2021-08-05T12:37:04Z</time>
      </trkpt>
      <trkpt lat="47.57254" lon="-2.70413">
        <ele>13</ele>
        <time>2021-08-05T12:37:05Z</time>
      </trkpt>
      <trkpt lat="47.5725" lon="-2.70416">
        <ele>13.2</ele>
        <time>2021-08-05T12:37:06Z</time>
      </trkpt>
      <trkpt lat="47.57247" lon="-2.70419">
        <ele>13.2</ele>
        <time>2021-08-05T12:37:07Z</time>
      </trkpt>
      <trkpt lat="47.57243" lon="-2.70423">
        <ele>13</ele>
        <time>2021-08-05T12:37:08Z</time>
      </trkpt>
      <trkpt lat="47.5724" lon="-2.70426">
        <ele>13</ele>
        <time>2021-08-05T12:37:09Z</time>
      </trkpt>
      <trkpt lat="47.57236" lon="-2.70429">
        <ele>13</ele>
        <time>2021-08-05T12:37:10Z</time>
      </trkpt>
      <trkpt lat="47.57232" lon="-2.70432">
        <ele>13</ele>
        <time>2021-08-05T12:37:11Z</time>
      </trkpt>
      <trkpt lat="47.57229" lon="-2.70436">
        <ele>13</ele>
        <time>2021-08-05T12:37:12Z</time>
      </trkpt>
      <trkpt lat="47.57225" lon="-2.70439">
        <ele>12.8</ele>
        <time>2021-08-05T12:37:13Z</time>
      </trkpt>
      <trkpt lat="47.57221" lon="-2.70443">
        <ele>12.8</ele>
        <time>2021-08-05T12:37:14Z</time>
      </trkpt>
      <trkpt lat="47.57217" lon="-2.70446">
        <ele>12.8</ele>
        <time>2021-08-05T12:37:15Z</time>
      </trkpt>
      <trkpt lat="47.57213" lon="-2.7045">
        <ele>12.8</ele>
        <time>2021-08-05T12:37:16Z</time>
      </trkpt>
      <trkpt lat="47.57209" lon="-2.70453">
        <ele>12.6</ele>
        <time>2021-08-05T12:37:17Z</time>
      </trkpt>
      <trkpt lat="47.57205" lon="-2.70456">
        <ele>12.6</ele>
        <time>2021-08-05T12:37:18Z</time>
      </trkpt>
      <trkpt lat="47.572" lon="-2.70459">
        <ele>12.6</ele>
        <time>2021-08-05T12:37:19Z</time>
      </trkpt>
      <trkpt lat="47.57196" lon="-2.70462">
        <ele>12.4</ele>
        <time>2021-08-05T12:37:20Z</time>
      </trkpt>
      <trkpt lat="47.57192" lon="-2.70466">
        <ele>12.4</ele>
        <time>2021-08-05T12:37:21Z</time>
      </trkpt>
      <trkpt lat="47.57188" lon="-2.70469">
        <ele>12.4</ele>
        <time>2021-08-05T12:37:22Z</time>
      </trkpt>
      <trkpt lat="47.57184" lon="-2.70472">
        <ele>12.4</ele>
        <time>2021-08-05T12:37:23Z</time>
      </trkpt>
      <trkpt lat="47.5718" lon="-2.70475">
        <ele>12.2</ele>
        <time>2021-08-05T12:37:24Z</time>
      </trkpt>
      <trkpt lat="47.57176" lon="-2.70478">
        <ele>12</ele>
        <time>2021-08-05T12:37:25Z</time>
      </trkpt>
      <trkpt lat="47.57173" lon="-2.7048">
        <ele>11.8</ele>
        <time>2021-08-05T12:37:26Z</time>
      </trkpt>
      <trkpt lat="47.57169" lon="-2.70483">
        <ele>11.6</ele>
        <time>2021-08-05T12:37:27Z</time>
      </trkpt>
      <trkpt lat="47.57165" lon="-2.70486">
        <ele>11.6</ele>
        <time>2021-08-05T12:37:28Z</time>
      </trkpt>
      <trkpt lat="47.57161" lon="-2.70489">
        <ele>11.2</ele>
        <time>2021-08-05T12:37:29Z</time>
      </trkpt>
      <trkpt lat="47.57157" lon="-2.70492">
        <ele>10.8</ele>
        <time>2021-08-05T12:37:30Z</time>
      </trkpt>
      <trkpt lat="47.57154" lon="-2.70494">
        <ele>10.6</ele>
        <time>2021-08-05T12:37:31Z</time>
      </trkpt>
      <trkpt lat="47.5715" lon="-2.70497">
        <ele>10.2</ele>
        <time>2021-08-05T12:37:32Z</time>
      </trkpt>
      <trkpt lat="47.57146" lon="-2.70499">
        <ele>10</ele>
        <time>2021-08-05T12:37:33Z</time>
      </trkpt>
      <trkpt lat="47.57142" lon="-2.70502">
        <ele>10</ele>
        <time>2021-08-05T12:37:34Z</time>
      </trkpt>
      <trkpt lat="47.57139" lon="-2.70504">
        <ele>10</ele>
        <time>2021-08-05T12:37:35Z</time>
      </trkpt>
      <trkpt lat="47.57135" lon="-2.70506">
        <ele>9.8</ele>
        <time>2021-08-05T12:37:36Z</time>
      </trkpt>
      <trkpt lat="47.57131" lon="-2.70508">
        <ele>9.8</ele>
        <time>2021-08-05T12:37:37Z</time>
      </trkpt>
      <trkpt lat="47.57127" lon="-2.7051">
        <ele>9.8</ele>
        <time>2021-08-05T12:37:38Z</time>
      </trkpt>
      <trkpt lat="47.57123" lon="-2.70512">
        <ele>9.8</ele>
        <time>2021-08-05T12:37:39Z</time>
      </trkpt>
      <trkpt lat="47.57119" lon="-2.70514">
        <ele>9.8</ele>
        <time>2021-08-05T12:37:40Z</time>
      </trkpt>
      <trkpt lat="47.57116" lon="-2.70516">
        <ele>10</ele>
        <time>2021-08-05T12:37:41Z</time>
      </trkpt>
      <trkpt lat="47.57112" lon="-2.70519">
        <ele>10</ele>
        <time>2021-08-05T12:37:42Z</time>
      </trkpt>
      <trkpt lat="47.57108" lon="-2.70521">
        <ele>10</ele>
        <time>2021-08-05T12:37:43Z</time>
      </trkpt>
      <trkpt lat="47.57104" lon="-2.70524">
        <ele>10</ele>
        <time>2021-08-05T12:37:44Z</time>
      </trkpt>
      <trkpt lat="47.571" lon="-2.70526">
        <ele>10</ele>
        <time>2021-08-05T12:37:45Z</time>
      </trkpt>
      <trkpt lat="47.57097" lon="-2.70528">
        <ele>10</ele>
        <time>2021-08-05T12:37:46Z</time>
      </trkpt>
      <trkpt lat="47.57093" lon="-2.70531">
        <ele>10</ele>
        <time>2021-08-05T12:37:47Z</time>
      </trkpt>
      <trkpt lat="47.57089" lon="-2.70533">
        <ele>10</ele>
        <time>2021-08-05T12:37:48Z</time>
      </trkpt>
      <trkpt lat="47.57086" lon="-2.70535">
        <ele>10</ele>
        <time>2021-08-05T12:37:49Z</time>
      </trkpt>
      <trkpt lat="47.57082" lon="-2.70537">
        <ele>10</ele>
        <time>2021-08-05T12:37:50Z</time>
      </trkpt>
      <trkpt lat="47.57079" lon="-2.70539">
        <ele>10</ele>
        <time>2021-08-05T12:37:51Z</time>
      </trkpt>
      <trkpt lat="47.57075" lon="-2.70541">
        <ele>10</ele>
        <time>2021-08-05T12:37:52Z</time>
      </trkpt>
      <trkpt lat="47.57072" lon="-2.70543">
        <ele>10</ele>
        <time>2021-08-05T12:37:53Z</time>
      </trkpt>
      <trkpt lat="47.57068" lon="-2.70545">
        <ele>9.8</ele>
        <time>2021-08-05T12:37:54Z</time>
      </trkpt>
      <trkpt lat="47.57065" lon="-2.70547">
        <ele>9.8</ele>
        <time>2021-08-05T12:37:55Z</time>
      </trkpt>
      <trkpt lat="47.57061" lon="-2.70549">
        <ele>9.8</ele>
        <time>2021-08-05T12:37:56Z</time>
      </trkpt>
      <trkpt lat="47.57058" lon="-2.70551">
        <ele>9.6</ele>
        <time>2021-08-05T12:37:57Z</time>
      </trkpt>
      <trkpt lat="47.57054" lon="-2.70553">
        <ele>9.4</ele>
        <time>2021-08-05T12:37:58Z</time>
      </trkpt>
      <trkpt lat="47.57051" lon="-2.70555">
        <ele>9.2</ele>
        <time>2021-08-05T12:37:59Z</time>
      </trkpt>
      <trkpt lat="47.57047" lon="-2.70556">
        <ele>9.2</ele>
        <time>2021-08-05T12:38:00Z</time>
      </trkpt>
      <trkpt lat="47.57043" lon="-2.70558">
        <ele>9.2</ele>
        <time>2021-08-05T12:38:01Z</time>
      </trkpt>
      <trkpt lat="47.5704" lon="-2.7056">
        <ele>9.2</ele>
        <time>2021-08-05T12:38:02Z</time>
      </trkpt>
      <trkpt lat="47.57036" lon="-2.70562">
        <ele>9.2</ele>
        <time>2021-08-05T12:38:03Z</time>
      </trkpt>
      <trkpt lat="47.57032" lon="-2.70563">
        <ele>9</ele>
        <time>2021-08-05T12:38:04Z</time>
      </trkpt>
      <trkpt lat="47.57029" lon="-2.70565">
        <ele>9</ele>
        <time>2021-08-05T12:38:05Z</time>
      </trkpt>
      <trkpt lat="47.57025" lon="-2.70568">
        <ele>9</ele>
        <time>2021-08-05T12:38:06Z</time>
      </trkpt>
      <trkpt lat="47.57021" lon="-2.7057">
        <ele>9</ele>
        <time>2021-08-05T12:38:07Z</time>
      </trkpt>
      <trkpt lat="47.57018" lon="-2.70572">
        <ele>9</ele>
        <time>2021-08-05T12:38:08Z</time>
      </trkpt>
      <trkpt lat="47.57014" lon="-2.70573">
        <ele>9</ele>
        <time>2021-08-05T12:38:09Z</time>
      </trkpt>
      <trkpt lat="47.5701" lon="-2.70575">
        <ele>8.8</ele>
        <time>2021-08-05T12:38:10Z</time>
      </trkpt>
      <trkpt lat="47.57007" lon="-2.70578">
        <ele>9</ele>
        <time>2021-08-05T12:38:11Z</time>
      </trkpt>
      <trkpt lat="47.57004" lon="-2.7058">
        <ele>9</ele>
        <time>2021-08-05T12:38:12Z</time>
      </trkpt>
      <trkpt lat="47.57" lon="-2.70582">
        <ele>9</ele>
        <time>2021-08-05T12:38:13Z</time>
      </trkpt>
      <trkpt lat="47.56996" lon="-2.70584">
        <ele>8.8</ele>
        <time>2021-08-05T12:38:14Z</time>
      </trkpt>
      <trkpt lat="47.56993" lon="-2.70586">
        <ele>8.8</ele>
        <time>2021-08-05T12:38:15Z</time>
      </trkpt>
      <trkpt lat="47.56989" lon="-2.70588">
        <ele>8.8</ele>
        <time>2021-08-05T12:38:16Z</time>
      </trkpt>
      <trkpt lat="47.56986" lon="-2.70591">
        <ele>8.6</ele>
        <time>2021-08-05T12:38:17Z</time>
      </trkpt>
      <trkpt lat="47.56982" lon="-2.70593">
        <ele>8.6</ele>
        <time>2021-08-05T12:38:18Z</time>
      </trkpt>
      <trkpt lat="47.56979" lon="-2.70595">
        <ele>8.6</ele>
        <time>2021-08-05T12:38:19Z</time>
      </trkpt>
      <trkpt lat="47.56975" lon="-2.70598">
        <ele>8.6</ele>
        <time>2021-08-05T12:38:20Z</time>
      </trkpt>
      <trkpt lat="47.56972" lon="-2.706">
        <ele>8.4</ele>
        <time>2021-08-05T12:38:21Z</time>
      </trkpt>
      <trkpt lat="47.56968" lon="-2.70603">
        <ele>8.4</ele>
        <time>2021-08-05T12:38:22Z</time>
      </trkpt>
      <trkpt lat="47.56965" lon="-2.70605">
        <ele>8.4</ele>
        <time>2021-08-05T12:38:23Z</time>
      </trkpt>
      <trkpt lat="47.56961" lon="-2.70607">
        <ele>8.4</ele>
        <time>2021-08-05T12:38:24Z</time>
      </trkpt>
      <trkpt lat="47.56958" lon="-2.70609">
        <ele>8.2</ele>
        <time>2021-08-05T12:38:25Z</time>
      </trkpt>
      <trkpt lat="47.56955" lon="-2.70611">
        <ele>8.2</ele>
        <time>2021-08-05T12:38:26Z</time>
      </trkpt>
      <trkpt lat="47.56951" lon="-2.70613">
        <ele>8.2</ele>
        <time>2021-08-05T12:38:27Z</time>
      </trkpt>
      <trkpt lat="47.56948" lon="-2.70615">
        <ele>8.4</ele>
        <time>2021-08-05T12:38:28Z</time>
      </trkpt>
      <trkpt lat="47.56945" lon="-2.70617">
        <ele>8.4</ele>
        <time>2021-08-05T12:38:29Z</time>
      </trkpt>
      <trkpt lat="47.56942" lon="-2.70619">
        <ele>8.4</ele>
        <time>2021-08-05T12:38:30Z</time>
      </trkpt>
      <trkpt lat="47.56938" lon="-2.70621">
        <ele>8.4</ele>
        <time>2021-08-05T12:38:31Z</time>
      </trkpt>
      <trkpt lat="47.56935" lon="-2.70623">
        <ele>8.4</ele>
        <time>2021-08-05T12:38:32Z</time>
      </trkpt>
      <trkpt lat="47.56931" lon="-2.70625">
        <ele>8.2</ele>
        <time>2021-08-05T12:38:33Z</time>
      </trkpt>
      <trkpt lat="47.56928" lon="-2.70627">
        <ele>8.2</ele>
        <time>2021-08-05T12:38:34Z</time>
      </trkpt>
      <trkpt lat="47.56925" lon="-2.70629">
        <ele>8.2</ele>
        <time>2021-08-05T12:38:35Z</time>
      </trkpt>
      <trkpt lat="47.56921" lon="-2.7063">
        <ele>8</ele>
        <time>2021-08-05T12:38:36Z</time>
      </trkpt>
      <trkpt lat="47.56918" lon="-2.70632">
        <ele>8.2</ele>
        <time>2021-08-05T12:38:37Z</time>
      </trkpt>
      <trkpt lat="47.56914" lon="-2.70633">
        <ele>8.2</ele>
        <time>2021-08-05T12:38:38Z</time>
      </trkpt>
      <trkpt lat="47.5691" lon="-2.70634">
        <ele>8.2</ele>
        <time>2021-08-05T12:38:39Z</time>
      </trkpt>
      <trkpt lat="47.56907" lon="-2.70636">
        <ele>8.2</ele>
        <time>2021-08-05T12:38:40Z</time>
      </trkpt>
      <trkpt lat="47.56903" lon="-2.70638">
        <ele>8.4</ele>
        <time>2021-08-05T12:38:41Z</time>
      </trkpt>
      <trkpt lat="47.56899" lon="-2.70639">
        <ele>8.6</ele>
        <time>2021-08-05T12:38:42Z</time>
      </trkpt>
      <trkpt lat="47.56895" lon="-2.7064">
        <ele>8.8</ele>
        <time>2021-08-05T12:38:43Z</time>
      </trkpt>
      <trkpt lat="47.56892" lon="-2.70641">
        <ele>8.8</ele>
        <time>2021-08-05T12:38:44Z</time>
      </trkpt>
      <trkpt lat="47.56888" lon="-2.70642">
        <ele>8.8</ele>
        <time>2021-08-05T12:38:45Z</time>
      </trkpt>
      <trkpt lat="47.56884" lon="-2.70643">
        <ele>9</ele>
        <time>2021-08-05T12:38:46Z</time>
      </trkpt>
      <trkpt lat="47.5688" lon="-2.70643">
        <ele>9</ele>
        <time>2021-08-05T12:38:47Z</time>
      </trkpt>
      <trkpt lat="47.56876" lon="-2.70644">
        <ele>9</ele>
        <time>2021-08-05T12:38:48Z</time>
      </trkpt>
      <trkpt lat="47.56873" lon="-2.70645">
        <ele>9</ele>
        <time>2021-08-05T12:38:49Z</time>
      </trkpt>
      <trkpt lat="47.56869" lon="-2.70646">
        <ele>8.8</ele>
        <time>2021-08-05T12:38:50Z</time>
      </trkpt>
      <trkpt lat="47.56865" lon="-2.70646">
        <ele>9</ele>
        <time>2021-08-05T12:38:51Z</time>
      </trkpt>
      <trkpt lat="47.56862" lon="-2.70646">
        <ele>9</ele>
        <time>2021-08-05T12:38:52Z</time>
      </trkpt>
      <trkpt lat="47.56858" lon="-2.70646">
        <ele>9</ele>
        <time>2021-08-05T12:38:53Z</time>
      </trkpt>
      <trkpt lat="47.56854" lon="-2.70647">
        <ele>9</ele>
        <time>2021-08-05T12:38:54Z</time>
      </trkpt>
      <trkpt lat="47.56851" lon="-2.70647">
        <ele>9</ele>
        <time>2021-08-05T12:38:55Z</time>
      </trkpt>
      <trkpt lat="47.56847" lon="-2.70648">
        <ele>9</ele>
        <time>2021-08-05T12:38:56Z</time>
      </trkpt>
      <trkpt lat="47.56843" lon="-2.70649">
        <ele>9</ele>
        <time>2021-08-05T12:38:57Z</time>
      </trkpt>
      <trkpt lat="47.56839" lon="-2.70649">
        <ele>9</ele>
        <time>2021-08-05T12:38:58Z</time>
      </trkpt>
      <trkpt lat="47.56836" lon="-2.7065">
        <ele>9</ele>
        <time>2021-08-05T12:38:59Z</time>
      </trkpt>
      <trkpt lat="47.56832" lon="-2.7065">
        <ele>9</ele>
        <time>2021-08-05T12:39:00Z</time>
      </trkpt>
      <trkpt lat="47.56828" lon="-2.7065">
        <ele>9</ele>
        <time>2021-08-05T12:39:01Z</time>
      </trkpt>
      <trkpt lat="47.56825" lon="-2.70649">
        <ele>9</ele>
        <time>2021-08-05T12:39:02Z</time>
      </trkpt>
      <trkpt lat="47.56821" lon="-2.70648">
        <ele>9</ele>
        <time>2021-08-05T12:39:03Z</time>
      </trkpt>
      <trkpt lat="47.56818" lon="-2.70647">
        <ele>8.6</ele>
        <time>2021-08-05T12:39:04Z</time>
      </trkpt>
      <trkpt lat="47.56814" lon="-2.70646">
        <ele>8.4</ele>
        <time>2021-08-05T12:39:05Z</time>
      </trkpt>
      <trkpt lat="47.56811" lon="-2.70645">
        <ele>8.2</ele>
        <time>2021-08-05T12:39:06Z</time>
      </trkpt>
      <trkpt lat="47.56808" lon="-2.70644">
        <ele>8.2</ele>
        <time>2021-08-05T12:39:07Z</time>
      </trkpt>
      <trkpt lat="47.56804" lon="-2.70643">
        <ele>8.2</ele>
        <time>2021-08-05T12:39:08Z</time>
      </trkpt>
      <trkpt lat="47.56801" lon="-2.70642">
        <ele>8.2</ele>
        <time>2021-08-05T12:39:09Z</time>
      </trkpt>
      <trkpt lat="47.56797" lon="-2.70641">
        <ele>8.2</ele>
        <time>2021-08-05T12:39:10Z</time>
      </trkpt>
      <trkpt lat="47.56794" lon="-2.7064">
        <ele>8.2</ele>
        <time>2021-08-05T12:39:11Z</time>
      </trkpt>
      <trkpt lat="47.56791" lon="-2.70638">
        <ele>8.2</ele>
        <time>2021-08-05T12:39:12Z</time>
      </trkpt>
      <trkpt lat="47.56788" lon="-2.70637">
        <ele>8.2</ele>
        <time>2021-08-05T12:39:13Z</time>
      </trkpt>
      <trkpt lat="47.56786" lon="-2.70635">
        <ele>8.2</ele>
        <time>2021-08-05T12:39:14Z</time>
      </trkpt>
      <trkpt lat="47.56783" lon="-2.70634">
        <ele>8.2</ele>
        <time>2021-08-05T12:39:15Z</time>
      </trkpt>
      <trkpt lat="47.56781" lon="-2.70632">
        <ele>8.2</ele>
        <time>2021-08-05T12:39:16Z</time>
      </trkpt>
      <trkpt lat="47.56779" lon="-2.70632">
        <ele>8.4</ele>
        <time>2021-08-05T12:39:17Z</time>
      </trkpt>
      <trkpt lat="47.56777" lon="-2.70632">
        <ele>8.4</ele>
        <time>2021-08-05T12:39:18Z</time>
      </trkpt>
      <trkpt lat="47.56775" lon="-2.70633">
        <ele>8.4</ele>
        <time>2021-08-05T12:39:19Z</time>
      </trkpt>
      <trkpt lat="47.56773" lon="-2.70633">
        <ele>8.6</ele>
        <time>2021-08-05T12:39:20Z</time>
      </trkpt>
      <trkpt lat="47.56771" lon="-2.70633">
        <ele>8.8</ele>
        <time>2021-08-05T12:39:21Z</time>
      </trkpt>
      <trkpt lat="47.56769" lon="-2.70632">
        <ele>8.8</ele>
        <time>2021-08-05T12:39:22Z</time>
      </trkpt>
      <trkpt lat="47.56767" lon="-2.70631">
        <ele>9</ele>
        <time>2021-08-05T12:39:23Z</time>
      </trkpt>
      <trkpt lat="47.56764" lon="-2.7063">
        <ele>9.2</ele>
        <time>2021-08-05T12:39:24Z</time>
      </trkpt>
      <trkpt lat="47.56762" lon="-2.70629">
        <ele>9.2</ele>
        <time>2021-08-05T12:39:25Z</time>
      </trkpt>
      <trkpt lat="47.56759" lon="-2.70628">
        <ele>9.4</ele>
        <time>2021-08-05T12:39:26Z</time>
      </trkpt>
      <trkpt lat="47.56757" lon="-2.70627">
        <ele>9.6</ele>
        <time>2021-08-05T12:39:27Z</time>
      </trkpt>
      <trkpt lat="47.56754" lon="-2.70625">
        <ele>9.8</ele>
        <time>2021-08-05T12:39:28Z</time>
      </trkpt>
      <trkpt lat="47.56751" lon="-2.70625">
        <ele>9.8</ele>
        <time>2021-08-05T12:39:29Z</time>
      </trkpt>
      <trkpt lat="47.56748" lon="-2.70625">
        <ele>10</ele>
        <time>2021-08-05T12:39:30Z</time>
      </trkpt>
      <trkpt lat="47.56745" lon="-2.70628">
        <ele>10</ele>
        <time>2021-08-05T12:39:31Z</time>
      </trkpt>
      <trkpt lat="47.56743" lon="-2.70631">
        <ele>10.2</ele>
        <time>2021-08-05T12:39:32Z</time>
      </trkpt>
      <trkpt lat="47.56741" lon="-2.70634">
        <ele>10.2</ele>
        <time>2021-08-05T12:39:33Z</time>
      </trkpt>
      <trkpt lat="47.56739" lon="-2.70636">
        <ele>10.4</ele>
        <time>2021-08-05T12:39:34Z</time>
      </trkpt>
      <trkpt lat="47.56736" lon="-2.70637">
        <ele>10.4</ele>
        <time>2021-08-05T12:39:35Z</time>
      </trkpt>
      <trkpt lat="47.56733" lon="-2.70638">
        <ele>10.4</ele>
        <time>2021-08-05T12:39:36Z</time>
      </trkpt>
      <trkpt lat="47.56731" lon="-2.70639">
        <ele>10.4</ele>
        <time>2021-08-05T12:39:37Z</time>
      </trkpt>
      <trkpt lat="47.56729" lon="-2.7064">
        <ele>10.6</ele>
        <time>2021-08-05T12:39:38Z</time>
      </trkpt>
      <trkpt lat="47.56728" lon="-2.70642">
        <ele>10.6</ele>
        <time>2021-08-05T12:39:39Z</time>
      </trkpt>
      <trkpt lat="47.56727" lon="-2.70643">
        <ele>10.6</ele>
        <time>2021-08-05T12:39:40Z</time>
      </trkpt>
      <trkpt lat="47.56726" lon="-2.70645">
        <ele>10.6</ele>
        <time>2021-08-05T12:39:41Z</time>
      </trkpt>
      <trkpt lat="47.56725" lon="-2.70648">
        <ele>10.6</ele>
        <time>2021-08-05T12:39:42Z</time>
      </trkpt>
      <trkpt lat="47.56724" lon="-2.7065">
        <ele>10.8</ele>
        <time>2021-08-05T12:39:43Z</time>
      </trkpt>
      <trkpt lat="47.56723" lon="-2.70652">
        <ele>10.8</ele>
        <time>2021-08-05T12:39:44Z</time>
      </trkpt>
      <trkpt lat="47.56722" lon="-2.70654">
        <ele>10.8</ele>
        <time>2021-08-05T12:39:45Z</time>
      </trkpt>
      <trkpt lat="47.56721" lon="-2.70656">
        <ele>10.8</ele>
        <time>2021-08-05T12:39:46Z</time>
      </trkpt>
      <trkpt lat="47.56719" lon="-2.70658">
        <ele>10.8</ele>
        <time>2021-08-05T12:39:47Z</time>
      </trkpt>
      <trkpt lat="47.56718" lon="-2.70661">
        <ele>10.8</ele>
        <time>2021-08-05T12:39:48Z</time>
      </trkpt>
      <trkpt lat="47.56717" lon="-2.70665">
        <ele>10.8</ele>
        <time>2021-08-05T12:39:49Z</time>
      </trkpt>
      <trkpt lat="47.56716" lon="-2.7067">
        <ele>11</ele>
        <time>2021-08-05T12:39:50Z</time>
      </trkpt>
      <trkpt lat="47.56716" lon="-2.70675">
        <ele>11</ele>
        <time>2021-08-05T12:39:51Z</time>
      </trkpt>
      <trkpt lat="47.56716" lon="-2.7068">
        <ele>11</ele>
        <time>2021-08-05T12:39:52Z</time>
      </trkpt>
      <trkpt lat="47.56715" lon="-2.70685">
        <ele>11</ele>
        <time>2021-08-05T12:39:53Z</time>
      </trkpt>
      <trkpt lat="47.56713" lon="-2.7069">
        <ele>11</ele>
        <time>2021-08-05T12:39:54Z</time>
      </trkpt>
      <trkpt lat="47.56711" lon="-2.70694">
        <ele>10.8</ele>
        <time>2021-08-05T12:39:55Z</time>
      </trkpt>
      <trkpt lat="47.56709" lon="-2.70698">
        <ele>10.8</ele>
        <time>2021-08-05T12:39:56Z</time>
      </trkpt>
      <trkpt lat="47.56706" lon="-2.70702">
        <ele>10.8</ele>
        <time>2021-08-05T12:39:57Z</time>
      </trkpt>
      <trkpt lat="47.56703" lon="-2.70706">
        <ele>10.8</ele>
        <time>2021-08-05T12:39:58Z</time>
      </trkpt>
      <trkpt lat="47.567" lon="-2.7071">
        <ele>10.8</ele>
        <time>2021-08-05T12:39:59Z</time>
      </trkpt>
      <trkpt lat="47.56697" lon="-2.70715">
        <ele>10.8</ele>
        <time>2021-08-05T12:40:00Z</time>
      </trkpt>
      <trkpt lat="47.56694" lon="-2.70719">
        <ele>10.8</ele>
        <time>2021-08-05T12:40:01Z</time>
      </trkpt>
      <trkpt lat="47.56691" lon="-2.70723">
        <ele>10.8</ele>
        <time>2021-08-05T12:40:02Z</time>
      </trkpt>
      <trkpt lat="47.56687" lon="-2.70727">
        <ele>10.8</ele>
        <time>2021-08-05T12:40:03Z</time>
      </trkpt>
      <trkpt lat="47.56684" lon="-2.70732">
        <ele>10.8</ele>
        <time>2021-08-05T12:40:04Z</time>
      </trkpt>
      <trkpt lat="47.56681" lon="-2.70736">
        <ele>10.8</ele>
        <time>2021-08-05T12:40:05Z</time>
      </trkpt>
      <trkpt lat="47.56678" lon="-2.7074">
        <ele>10.8</ele>
        <time>2021-08-05T12:40:06Z</time>
      </trkpt>
      <trkpt lat="47.56674" lon="-2.70745">
        <ele>10.8</ele>
        <time>2021-08-05T12:40:07Z</time>
      </trkpt>
      <trkpt lat="47.56671" lon="-2.70749">
        <ele>10.8</ele>
        <time>2021-08-05T12:40:08Z</time>
      </trkpt>
      <trkpt lat="47.56668" lon="-2.70753">
        <ele>10.8</ele>
        <time>2021-08-05T12:40:09Z</time>
      </trkpt>
      <trkpt lat="47.56665" lon="-2.70758">
        <ele>10.8</ele>
        <time>2021-08-05T12:40:10Z</time>
      </trkpt>
      <trkpt lat="47.56661" lon="-2.70762">
        <ele>10.8</ele>
        <time>2021-08-05T12:40:11Z</time>
      </trkpt>
      <trkpt lat="47.56658" lon="-2.70766">
        <ele>10.8</ele>
        <time>2021-08-05T12:40:12Z</time>
      </trkpt>
      <trkpt lat="47.56655" lon="-2.70771">
        <ele>10.8</ele>
        <time>2021-08-05T12:40:13Z</time>
      </trkpt>
      <trkpt lat="47.56651" lon="-2.70775">
        <ele>11</ele>
        <time>2021-08-05T12:40:14Z</time>
      </trkpt>
      <trkpt lat="47.56648" lon="-2.70779">
        <ele>11</ele>
        <time>2021-08-05T12:40:15Z</time>
      </trkpt>
      <trkpt lat="47.56644" lon="-2.70783">
        <ele>11</ele>
        <time>2021-08-05T12:40:16Z</time>
      </trkpt>
      <trkpt lat="47.56641" lon="-2.70787">
        <ele>11</ele>
        <time>2021-08-05T12:40:17Z</time>
      </trkpt>
      <trkpt lat="47.56637" lon="-2.70791">
        <ele>11</ele>
        <time>2021-08-05T12:40:18Z</time>
      </trkpt>
      <trkpt lat="47.56633" lon="-2.70795">
        <ele>11.2</ele>
        <time>2021-08-05T12:40:19Z</time>
      </trkpt>
      <trkpt lat="47.5663" lon="-2.70798">
        <ele>11.2</ele>
        <time>2021-08-05T12:40:20Z</time>
      </trkpt>
      <trkpt lat="47.56626" lon="-2.70802">
        <ele>11.2</ele>
        <time>2021-08-05T12:40:21Z</time>
      </trkpt>
      <trkpt lat="47.56622" lon="-2.70806">
        <ele>11.2</ele>
        <time>2021-08-05T12:40:22Z</time>
      </trkpt>
      <trkpt lat="47.56618" lon="-2.7081">
        <ele>11.2</ele>
        <time>2021-08-05T12:40:23Z</time>
      </trkpt>
      <trkpt lat="47.56615" lon="-2.70813">
        <ele>11.4</ele>
        <time>2021-08-05T12:40:24Z</time>
      </trkpt>
      <trkpt lat="47.56611" lon="-2.70817">
        <ele>11.4</ele>
        <time>2021-08-05T12:40:25Z</time>
      </trkpt>
      <trkpt lat="47.56607" lon="-2.7082">
        <ele>11.4</ele>
        <time>2021-08-05T12:40:26Z</time>
      </trkpt>
      <trkpt lat="47.56604" lon="-2.70822">
        <ele>11.6</ele>
        <time>2021-08-05T12:40:27Z</time>
      </trkpt>
      <trkpt lat="47.566" lon="-2.70825">
        <ele>11.6</ele>
        <time>2021-08-05T12:40:28Z</time>
      </trkpt>
      <trkpt lat="47.56597" lon="-2.70827">
        <ele>11.8</ele>
        <time>2021-08-05T12:40:29Z</time>
      </trkpt>
      <trkpt lat="47.56593" lon="-2.70829">
        <ele>11.8</ele>
        <time>2021-08-05T12:40:30Z</time>
      </trkpt>
      <trkpt lat="47.5659" lon="-2.70831">
        <ele>11.8</ele>
        <time>2021-08-05T12:40:31Z</time>
      </trkpt>
      <trkpt lat="47.56587" lon="-2.70833">
        <ele>12</ele>
        <time>2021-08-05T12:40:32Z</time>
      </trkpt>
      <trkpt lat="47.56583" lon="-2.70835">
        <ele>12</ele>
        <time>2021-08-05T12:40:33Z</time>
      </trkpt>
      <trkpt lat="47.5658" lon="-2.70837">
        <ele>12.2</ele>
        <time>2021-08-05T12:40:34Z</time>
      </trkpt>
      <trkpt lat="47.56576" lon="-2.70839">
        <ele>12.2</ele>
        <time>2021-08-05T12:40:35Z</time>
      </trkpt>
      <trkpt lat="47.56572" lon="-2.70842">
        <ele>12.2</ele>
        <time>2021-08-05T12:40:36Z</time>
      </trkpt>
      <trkpt lat="47.56568" lon="-2.70844">
        <ele>12.4</ele>
        <time>2021-08-05T12:40:37Z</time>
      </trkpt>
      <trkpt lat="47.56564" lon="-2.70847">
        <ele>12.4</ele>
        <time>2021-08-05T12:40:38Z</time>
      </trkpt>
      <trkpt lat="47.5656" lon="-2.70849">
        <ele>12.4</ele>
        <time>2021-08-05T12:40:39Z</time>
      </trkpt>
      <trkpt lat="47.56556" lon="-2.70852">
        <ele>12.6</ele>
        <time>2021-08-05T12:40:40Z</time>
      </trkpt>
      <trkpt lat="47.56552" lon="-2.70854">
        <ele>12.6</ele>
        <time>2021-08-05T12:40:41Z</time>
      </trkpt>
      <trkpt lat="47.56548" lon="-2.70857">
        <ele>12.8</ele>
        <time>2021-08-05T12:40:42Z</time>
      </trkpt>
      <trkpt lat="47.56544" lon="-2.70859">
        <ele>12.8</ele>
        <time>2021-08-05T12:40:43Z</time>
      </trkpt>
      <trkpt lat="47.5654" lon="-2.70861">
        <ele>12.8</ele>
        <time>2021-08-05T12:40:44Z</time>
      </trkpt>
      <trkpt lat="47.56536" lon="-2.70864">
        <ele>12.8</ele>
        <time>2021-08-05T12:40:45Z</time>
      </trkpt>
      <trkpt lat="47.56532" lon="-2.70867">
        <ele>13.2</ele>
        <time>2021-08-05T12:40:46Z</time>
      </trkpt>
      <trkpt lat="47.56528" lon="-2.70869">
        <ele>13.2</ele>
        <time>2021-08-05T12:40:47Z</time>
      </trkpt>
      <trkpt lat="47.56523" lon="-2.70871">
        <ele>13.2</ele>
        <time>2021-08-05T12:40:48Z</time>
      </trkpt>
      <trkpt lat="47.56519" lon="-2.70873">
        <ele>13.4</ele>
        <time>2021-08-05T12:40:49Z</time>
      </trkpt>
      <trkpt lat="47.56514" lon="-2.70876">
        <ele>13.4</ele>
        <time>2021-08-05T12:40:50Z</time>
      </trkpt>
      <trkpt lat="47.5651" lon="-2.70879">
        <ele>13.6</ele>
        <time>2021-08-05T12:40:51Z</time>
      </trkpt>
      <trkpt lat="47.56506" lon="-2.70882">
        <ele>13.6</ele>
        <time>2021-08-05T12:40:52Z</time>
      </trkpt>
      <trkpt lat="47.56502" lon="-2.70885">
        <ele>13.6</ele>
        <time>2021-08-05T12:40:53Z</time>
      </trkpt>
      <trkpt lat="47.56498" lon="-2.70887">
        <ele>13.6</ele>
        <time>2021-08-05T12:40:54Z</time>
      </trkpt>
      <trkpt lat="47.56494" lon="-2.7089">
        <ele>13.8</ele>
        <time>2021-08-05T12:40:55Z</time>
      </trkpt>
      <trkpt lat="47.5649" lon="-2.70892">
        <ele>13.8</ele>
        <time>2021-08-05T12:40:56Z</time>
      </trkpt>
      <trkpt lat="47.56486" lon="-2.70894">
        <ele>13.8</ele>
        <time>2021-08-05T12:40:57Z</time>
      </trkpt>
      <trkpt lat="47.56482" lon="-2.70897">
        <ele>13.8</ele>
        <time>2021-08-05T12:40:58Z</time>
      </trkpt>
      <trkpt lat="47.56478" lon="-2.70899">
        <ele>13.8</ele>
        <time>2021-08-05T12:40:59Z</time>
      </trkpt>
      <trkpt lat="47.56475" lon="-2.70902">
        <ele>14</ele>
        <time>2021-08-05T12:41:00Z</time>
      </trkpt>
      <trkpt lat="47.56471" lon="-2.70904">
        <ele>14.2</ele>
        <time>2021-08-05T12:41:01Z</time>
      </trkpt>
      <trkpt lat="47.56466" lon="-2.70906">
        <ele>14.2</ele>
        <time>2021-08-05T12:41:02Z</time>
      </trkpt>
      <trkpt lat="47.56462" lon="-2.70909">
        <ele>14.4</ele>
        <time>2021-08-05T12:41:03Z</time>
      </trkpt>
      <trkpt lat="47.56459" lon="-2.70911">
        <ele>14.4</ele>
        <time>2021-08-05T12:41:04Z</time>
      </trkpt>
      <trkpt lat="47.56455" lon="-2.70913">
        <ele>14.6</ele>
        <time>2021-08-05T12:41:05Z</time>
      </trkpt>
      <trkpt lat="47.56451" lon="-2.70916">
        <ele>14.8</ele>
        <time>2021-08-05T12:41:06Z</time>
      </trkpt>
      <trkpt lat="47.56447" lon="-2.70918">
        <ele>14.8</ele>
        <time>2021-08-05T12:41:07Z</time>
      </trkpt>
      <trkpt lat="47.56443" lon="-2.70921">
        <ele>15</ele>
        <time>2021-08-05T12:41:08Z</time>
      </trkpt>
      <trkpt lat="47.56439" lon="-2.70923">
        <ele>15</ele>
        <time>2021-08-05T12:41:09Z</time>
      </trkpt>
      <trkpt lat="47.56435" lon="-2.70925">
        <ele>15.2</ele>
        <time>2021-08-05T12:41:10Z</time>
      </trkpt>
      <trkpt lat="47.5643" lon="-2.70928">
        <ele>15.4</ele>
        <time>2021-08-05T12:41:11Z</time>
      </trkpt>
      <trkpt lat="47.56426" lon="-2.70931">
        <ele>15.4</ele>
        <time>2021-08-05T12:41:12Z</time>
      </trkpt>
      <trkpt lat="47.56422" lon="-2.70933">
        <ele>15.4</ele>
        <time>2021-08-05T12:41:13Z</time>
      </trkpt>
      <trkpt lat="47.56419" lon="-2.70936">
        <ele>15.6</ele>
        <time>2021-08-05T12:41:14Z</time>
      </trkpt>
      <trkpt lat="47.56415" lon="-2.70939">
        <ele>15.6</ele>
        <time>2021-08-05T12:41:15Z</time>
      </trkpt>
      <trkpt lat="47.56411" lon="-2.70942">
        <ele>15.6</ele>
        <time>2021-08-05T12:41:16Z</time>
      </trkpt>
      <trkpt lat="47.56408" lon="-2.70944">
        <ele>15.8</ele>
        <time>2021-08-05T12:41:17Z</time>
      </trkpt>
      <trkpt lat="47.56404" lon="-2.70946">
        <ele>15.8</ele>
        <time>2021-08-05T12:41:18Z</time>
      </trkpt>
      <trkpt lat="47.564" lon="-2.70949">
        <ele>15.8</ele>
        <time>2021-08-05T12:41:19Z</time>
      </trkpt>
      <trkpt lat="47.56396" lon="-2.70951">
        <ele>16</ele>
        <time>2021-08-05T12:41:20Z</time>
      </trkpt>
      <trkpt lat="47.56392" lon="-2.70953">
        <ele>16</ele>
        <time>2021-08-05T12:41:21Z</time>
      </trkpt>
      <trkpt lat="47.56388" lon="-2.70956">
        <ele>16</ele>
        <time>2021-08-05T12:41:22Z</time>
      </trkpt>
      <trkpt lat="47.56384" lon="-2.70958">
        <ele>16.2</ele>
        <time>2021-08-05T12:41:23Z</time>
      </trkpt>
      <trkpt lat="47.56381" lon="-2.70961">
        <ele>16.4</ele>
        <time>2021-08-05T12:41:24Z</time>
      </trkpt>
      <trkpt lat="47.56377" lon="-2.70963">
        <ele>16.6</ele>
        <time>2021-08-05T12:41:25Z</time>
      </trkpt>
      <trkpt lat="47.56374" lon="-2.70965">
        <ele>16.8</ele>
        <time>2021-08-05T12:41:26Z</time>
      </trkpt>
      <trkpt lat="47.5637" lon="-2.70967">
        <ele>17</ele>
        <time>2021-08-05T12:41:27Z</time>
      </trkpt>
      <trkpt lat="47.56367" lon="-2.70969">
        <ele>17</ele>
        <time>2021-08-05T12:41:28Z</time>
      </trkpt>
      <trkpt lat="47.56363" lon="-2.7097">
        <ele>17</ele>
        <time>2021-08-05T12:41:29Z</time>
      </trkpt>
      <trkpt lat="47.5636" lon="-2.70972">
        <ele>17.2</ele>
        <time>2021-08-05T12:41:30Z</time>
      </trkpt>
      <trkpt lat="47.56357" lon="-2.70973">
        <ele>17.2</ele>
        <time>2021-08-05T12:41:31Z</time>
      </trkpt>
      <trkpt lat="47.56354" lon="-2.70974">
        <ele>17.2</ele>
        <time>2021-08-05T12:41:32Z</time>
      </trkpt>
      <trkpt lat="47.56351" lon="-2.70976">
        <ele>17.4</ele>
        <time>2021-08-05T12:41:33Z</time>
      </trkpt>
      <trkpt lat="47.56347" lon="-2.70978">
        <ele>17.4</ele>
        <time>2021-08-05T12:41:34Z</time>
      </trkpt>
      <trkpt lat="47.56344" lon="-2.70981">
        <ele>17.6</ele>
        <time>2021-08-05T12:41:35Z</time>
      </trkpt>
      <trkpt lat="47.5634" lon="-2.70983">
        <ele>17.6</ele>
        <time>2021-08-05T12:41:36Z</time>
      </trkpt>
      <trkpt lat="47.56335" lon="-2.70986">
        <ele>17.8</ele>
        <time>2021-08-05T12:41:37Z</time>
      </trkpt>
      <trkpt lat="47.56332" lon="-2.70988">
        <ele>17.8</ele>
        <time>2021-08-05T12:41:38Z</time>
      </trkpt>
      <trkpt lat="47.56327" lon="-2.70991">
        <ele>18</ele>
        <time>2021-08-05T12:41:39Z</time>
      </trkpt>
      <trkpt lat="47.56323" lon="-2.70993">
        <ele>18</ele>
        <time>2021-08-05T12:41:40Z</time>
      </trkpt>
      <trkpt lat="47.56319" lon="-2.70995">
        <ele>18.2</ele>
        <time>2021-08-05T12:41:41Z</time>
      </trkpt>
      <trkpt lat="47.56315" lon="-2.70998">
        <ele>18.4</ele>
        <time>2021-08-05T12:41:42Z</time>
      </trkpt>
      <trkpt lat="47.56311" lon="-2.71">
        <ele>18.6</ele>
        <time>2021-08-05T12:41:43Z</time>
      </trkpt>
      <trkpt lat="47.56307" lon="-2.71003">
        <ele>18.8</ele>
        <time>2021-08-05T12:41:44Z</time>
      </trkpt>
      <trkpt lat="47.56303" lon="-2.71006">
        <ele>18.8</ele>
        <time>2021-08-05T12:41:45Z</time>
      </trkpt>
      <trkpt lat="47.56299" lon="-2.71008">
        <ele>19</ele>
        <time>2021-08-05T12:41:46Z</time>
      </trkpt>
      <trkpt lat="47.56294" lon="-2.7101">
        <ele>19</ele>
        <time>2021-08-05T12:41:47Z</time>
      </trkpt>
      <trkpt lat="47.5629" lon="-2.71012">
        <ele>19</ele>
        <time>2021-08-05T12:41:48Z</time>
      </trkpt>
      <trkpt lat="47.56286" lon="-2.71015">
        <ele>19</ele>
        <time>2021-08-05T12:41:49Z</time>
      </trkpt>
      <trkpt lat="47.56282" lon="-2.71017">
        <ele>19.2</ele>
        <time>2021-08-05T12:41:50Z</time>
      </trkpt>
      <trkpt lat="47.56278" lon="-2.7102">
        <ele>19.2</ele>
        <time>2021-08-05T12:41:51Z</time>
      </trkpt>
      <trkpt lat="47.56274" lon="-2.71022">
        <ele>19.2</ele>
        <time>2021-08-05T12:41:52Z</time>
      </trkpt>
      <trkpt lat="47.5627" lon="-2.71025">
        <ele>19.2</ele>
        <time>2021-08-05T12:41:53Z</time>
      </trkpt>
      <trkpt lat="47.56266" lon="-2.71027">
        <ele>19.4</ele>
        <time>2021-08-05T12:41:54Z</time>
      </trkpt>
      <trkpt lat="47.56262" lon="-2.7103">
        <ele>19.6</ele>
        <time>2021-08-05T12:41:55Z</time>
      </trkpt>
      <trkpt lat="47.56259" lon="-2.71032">
        <ele>19.6</ele>
        <time>2021-08-05T12:41:56Z</time>
      </trkpt>
      <trkpt lat="47.56255" lon="-2.71034">
        <ele>19.6</ele>
        <time>2021-08-05T12:41:57Z</time>
      </trkpt>
      <trkpt lat="47.56251" lon="-2.71037">
        <ele>19.8</ele>
        <time>2021-08-05T12:41:58Z</time>
      </trkpt>
      <trkpt lat="47.56247" lon="-2.71039">
        <ele>19.8</ele>
        <time>2021-08-05T12:41:59Z</time>
      </trkpt>
      <trkpt lat="47.56244" lon="-2.71041">
        <ele>20</ele>
        <time>2021-08-05T12:42:00Z</time>
      </trkpt>
      <trkpt lat="47.5624" lon="-2.71043">
        <ele>20</ele>
        <time>2021-08-05T12:42:01Z</time>
      </trkpt>
      <trkpt lat="47.56237" lon="-2.71045">
        <ele>20.2</ele>
        <time>2021-08-05T12:42:02Z</time>
      </trkpt>
      <trkpt lat="47.56233" lon="-2.71047">
        <ele>20.2</ele>
        <time>2021-08-05T12:42:03Z</time>
      </trkpt>
      <trkpt lat="47.5623" lon="-2.71049">
        <ele>20.2</ele>
        <time>2021-08-05T12:42:04Z</time>
      </trkpt>
      <trkpt lat="47.56227" lon="-2.71051">
        <ele>20.2</ele>
        <time>2021-08-05T12:42:05Z</time>
      </trkpt>
      <trkpt lat="47.56223" lon="-2.71053">
        <ele>20.2</ele>
        <time>2021-08-05T12:42:06Z</time>
      </trkpt>
      <trkpt lat="47.5622" lon="-2.71055">
        <ele>20.4</ele>
        <time>2021-08-05T12:42:07Z</time>
      </trkpt>
      <trkpt lat="47.56217" lon="-2.71057">
        <ele>20.4</ele>
        <time>2021-08-05T12:42:08Z</time>
      </trkpt>
      <trkpt lat="47.56214" lon="-2.71059">
        <ele>20.4</ele>
        <time>2021-08-05T12:42:09Z</time>
      </trkpt>
      <trkpt lat="47.56211" lon="-2.7106">
        <ele>20.4</ele>
        <time>2021-08-05T12:42:10Z</time>
      </trkpt>
      <trkpt lat="47.56207" lon="-2.71062">
        <ele>20.6</ele>
        <time>2021-08-05T12:42:11Z</time>
      </trkpt>
      <trkpt lat="47.56204" lon="-2.71064">
        <ele>20.8</ele>
        <time>2021-08-05T12:42:12Z</time>
      </trkpt>
      <trkpt lat="47.56201" lon="-2.71066">
        <ele>21</ele>
        <time>2021-08-05T12:42:13Z</time>
      </trkpt>
      <trkpt lat="47.56197" lon="-2.71068">
        <ele>21</ele>
        <time>2021-08-05T12:42:14Z</time>
      </trkpt>
      <trkpt lat="47.56194" lon="-2.7107">
        <ele>21.2</ele>
        <time>2021-08-05T12:42:15Z</time>
      </trkpt>
      <trkpt lat="47.56191" lon="-2.71072">
        <ele>21.2</ele>
        <time>2021-08-05T12:42:16Z</time>
      </trkpt>
      <trkpt lat="47.56187" lon="-2.71074">
        <ele>21.2</ele>
        <time>2021-08-05T12:42:17Z</time>
      </trkpt>
      <trkpt lat="47.56184" lon="-2.71076">
        <ele>21.4</ele>
        <time>2021-08-05T12:42:18Z</time>
      </trkpt>
      <trkpt lat="47.56181" lon="-2.71078">
        <ele>21.6</ele>
        <time>2021-08-05T12:42:19Z</time>
      </trkpt>
      <trkpt lat="47.56178" lon="-2.7108">
        <ele>21.8</ele>
        <time>2021-08-05T12:42:20Z</time>
      </trkpt>
      <trkpt lat="47.56174" lon="-2.71082">
        <ele>21.8</ele>
        <time>2021-08-05T12:42:21Z</time>
      </trkpt>
      <trkpt lat="47.56171" lon="-2.71084">
        <ele>22</ele>
        <time>2021-08-05T12:42:22Z</time>
      </trkpt>
      <trkpt lat="47.56168" lon="-2.71086">
        <ele>22</ele>
        <time>2021-08-05T12:42:23Z</time>
      </trkpt>
      <trkpt lat="47.56164" lon="-2.71088">
        <ele>22</ele>
        <time>2021-08-05T12:42:24Z</time>
      </trkpt>
      <trkpt lat="47.56161" lon="-2.7109">
        <ele>22</ele>
        <time>2021-08-05T12:42:25Z</time>
      </trkpt>
      <trkpt lat="47.56158" lon="-2.71093">
        <ele>22.2</ele>
        <time>2021-08-05T12:42:26Z</time>
      </trkpt>
      <trkpt lat="47.56155" lon="-2.71095">
        <ele>22.2</ele>
        <time>2021-08-05T12:42:27Z</time>
      </trkpt>
      <trkpt lat="47.56152" lon="-2.71098">
        <ele>22.4</ele>
        <time>2021-08-05T12:42:28Z</time>
      </trkpt>
      <trkpt lat="47.56149" lon="-2.711">
        <ele>22.4</ele>
        <time>2021-08-05T12:42:29Z</time>
      </trkpt>
      <trkpt lat="47.56146" lon="-2.71102">
        <ele>22.4</ele>
        <time>2021-08-05T12:42:30Z</time>
      </trkpt>
      <trkpt lat="47.56143" lon="-2.71103">
        <ele>22.6</ele>
        <time>2021-08-05T12:42:31Z</time>
      </trkpt>
      <trkpt lat="47.5614" lon="-2.71105">
        <ele>22.6</ele>
        <time>2021-08-05T12:42:32Z</time>
      </trkpt>
      <trkpt lat="47.56137" lon="-2.71107">
        <ele>22.6</ele>
        <time>2021-08-05T12:42:33Z</time>
      </trkpt>
      <trkpt lat="47.56135" lon="-2.71108">
        <ele>22.8</ele>
        <time>2021-08-05T12:42:34Z</time>
      </trkpt>
      <trkpt lat="47.56133" lon="-2.71109">
        <ele>23</ele>
        <time>2021-08-05T12:42:35Z</time>
      </trkpt>
      <trkpt lat="47.56131" lon="-2.7111">
        <ele>23</ele>
        <time>2021-08-05T12:42:36Z</time>
      </trkpt>
      <trkpt lat="47.56129" lon="-2.71112">
        <ele>23.2</ele>
        <time>2021-08-05T12:42:37Z</time>
      </trkpt>
      <trkpt lat="47.56126" lon="-2.71114">
        <ele>23.2</ele>
        <time>2021-08-05T12:42:38Z</time>
      </trkpt>
      <trkpt lat="47.56124" lon="-2.71116">
        <ele>23.4</ele>
        <time>2021-08-05T12:42:39Z</time>
      </trkpt>
      <trkpt lat="47.56121" lon="-2.71118">
        <ele>23.4</ele>
        <time>2021-08-05T12:42:40Z</time>
      </trkpt>
      <trkpt lat="47.56119" lon="-2.7112">
        <ele>23.4</ele>
        <time>2021-08-05T12:42:41Z</time>
      </trkpt>
      <trkpt lat="47.56116" lon="-2.71121">
        <ele>23.6</ele>
        <time>2021-08-05T12:42:42Z</time>
      </trkpt>
      <trkpt lat="47.56113" lon="-2.71123">
        <ele>23.6</ele>
        <time>2021-08-05T12:42:43Z</time>
      </trkpt>
      <trkpt lat="47.5611" lon="-2.71125">
        <ele>23.6</ele>
        <time>2021-08-05T12:42:44Z</time>
      </trkpt>
      <trkpt lat="47.56107" lon="-2.71128">
        <ele>23.8</ele>
        <time>2021-08-05T12:42:45Z</time>
      </trkpt>
      <trkpt lat="47.56104" lon="-2.7113">
        <ele>23.8</ele>
        <time>2021-08-05T12:42:46Z</time>
      </trkpt>
      <trkpt lat="47.56101" lon="-2.71132">
        <ele>23.8</ele>
        <time>2021-08-05T12:42:47Z</time>
      </trkpt>
      <trkpt lat="47.56097" lon="-2.71134">
        <ele>24</ele>
        <time>2021-08-05T12:42:48Z</time>
      </trkpt>
      <trkpt lat="47.56094" lon="-2.71137">
        <ele>24.2</ele>
        <time>2021-08-05T12:42:49Z</time>
      </trkpt>
      <trkpt lat="47.5609" lon="-2.71139">
        <ele>24.2</ele>
        <time>2021-08-05T12:42:50Z</time>
      </trkpt>
      <trkpt lat="47.56086" lon="-2.71141">
        <ele>24.4</ele>
        <time>2021-08-05T12:42:51Z</time>
      </trkpt>
      <trkpt lat="47.56082" lon="-2.71143">
        <ele>24.4</ele>
        <time>2021-08-05T12:42:52Z</time>
      </trkpt>
      <trkpt lat="47.56078" lon="-2.71145">
        <ele>24.4</ele>
        <time>2021-08-05T12:42:53Z</time>
      </trkpt>
      <trkpt lat="47.56074" lon="-2.71148">
        <ele>24.6</ele>
        <time>2021-08-05T12:42:54Z</time>
      </trkpt>
      <trkpt lat="47.5607" lon="-2.7115">
        <ele>24.6</ele>
        <time>2021-08-05T12:42:55Z</time>
      </trkpt>
      <trkpt lat="47.56066" lon="-2.71152">
        <ele>24.8</ele>
        <time>2021-08-05T12:42:56Z</time>
      </trkpt>
      <trkpt lat="47.56064" lon="-2.71155">
        <ele>24.8</ele>
        <time>2021-08-05T12:42:57Z</time>
      </trkpt>
      <trkpt lat="47.56063" lon="-2.71159">
        <ele>25</ele>
        <time>2021-08-05T12:42:58Z</time>
      </trkpt>
      <trkpt lat="47.56064" lon="-2.71162">
        <ele>25</ele>
        <time>2021-08-05T12:42:59Z</time>
      </trkpt>
      <trkpt lat="47.56064" lon="-2.71164">
        <ele>25.2</ele>
        <time>2021-08-05T12:43:00Z</time>
      </trkpt>
      <trkpt lat="47.56065" lon="-2.71166">
        <ele>25.2</ele>
        <time>2021-08-05T12:43:01Z</time>
      </trkpt>
      <trkpt lat="47.56065" lon="-2.71167">
        <ele>25.2</ele>
        <time>2021-08-05T12:43:03Z</time>
      </trkpt>
      <trkpt lat="47.56065" lon="-2.71167">
        <ele>25.4</ele>
        <time>2021-08-05T12:43:04Z</time>
      </trkpt>
      <trkpt lat="47.56065" lon="-2.71167">
        <ele>25.4</ele>
        <time>2021-08-05T12:43:05Z</time>
      </trkpt>
      <trkpt lat="47.56064" lon="-2.71165">
        <ele>25.8</ele>
        <time>2021-08-05T12:43:14Z</time>
      </trkpt>
      <trkpt lat="47.56064" lon="-2.71165">
        <ele>25.8</ele>
        <time>2021-08-05T12:43:15Z</time>
      </trkpt>
      <trkpt lat="47.56064" lon="-2.71165">
        <ele>25.8</ele>
        <time>2021-08-05T12:43:16Z</time>
      </trkpt>
      <trkpt lat="47.56069" lon="-2.71185">
        <ele>28.2</ele>
        <time>2021-08-05T12:50:40Z</time>
      </trkpt>
      <trkpt lat="47.56069" lon="-2.71185">
        <ele>28.4</ele>
        <time>2021-08-05T12:50:41Z</time>
      </trkpt>
      <trkpt lat="47.56067" lon="-2.71183">
        <ele>28.4</ele>
        <time>2021-08-05T12:50:42Z</time>
      </trkpt>
      <trkpt lat="47.56066" lon="-2.7118">
        <ele>28.4</ele>
        <time>2021-08-05T12:50:43Z</time>
      </trkpt>
      <trkpt lat="47.56064" lon="-2.71177">
        <ele>28.4</ele>
        <time>2021-08-05T12:50:44Z</time>
      </trkpt>
      <trkpt lat="47.56062" lon="-2.71174">
        <ele>28.4</ele>
        <time>2021-08-05T12:50:45Z</time>
      </trkpt>
      <trkpt lat="47.5606" lon="-2.71172">
        <ele>28.4</ele>
        <time>2021-08-05T12:50:46Z</time>
      </trkpt>
      <trkpt lat="47.56057" lon="-2.71172">
        <ele>28.4</ele>
        <time>2021-08-05T12:50:47Z</time>
      </trkpt>
      <trkpt lat="47.56055" lon="-2.71172">
        <ele>28.4</ele>
        <time>2021-08-05T12:50:48Z</time>
      </trkpt>
      <trkpt lat="47.56053" lon="-2.71172">
        <ele>28.4</ele>
        <time>2021-08-05T12:50:49Z</time>
      </trkpt>
      <trkpt lat="47.5605" lon="-2.71172">
        <ele>28.4</ele>
        <time>2021-08-05T12:50:50Z</time>
      </trkpt>
      <trkpt lat="47.56048" lon="-2.71173">
        <ele>28.4</ele>
        <time>2021-08-05T12:50:51Z</time>
      </trkpt>
      <trkpt lat="47.56046" lon="-2.71173">
        <ele>28.4</ele>
        <time>2021-08-05T12:50:52Z</time>
      </trkpt>
      <trkpt lat="47.56043" lon="-2.71174">
        <ele>28.4</ele>
        <time>2021-08-05T12:50:53Z</time>
      </trkpt>
      <trkpt lat="47.56041" lon="-2.71175">
        <ele>28.4</ele>
        <time>2021-08-05T12:50:54Z</time>
      </trkpt>
      <trkpt lat="47.56039" lon="-2.71175">
        <ele>28.2</ele>
        <time>2021-08-05T12:50:55Z</time>
      </trkpt>
      <trkpt lat="47.56038" lon="-2.71175">
        <ele>28</ele>
        <time>2021-08-05T12:50:56Z</time>
      </trkpt>
      <trkpt lat="47.56036" lon="-2.71175">
        <ele>28</ele>
        <time>2021-08-05T12:50:57Z</time>
      </trkpt>
      <trkpt lat="47.56034" lon="-2.71176">
        <ele>28</ele>
        <time>2021-08-05T12:50:58Z</time>
      </trkpt>
      <trkpt lat="47.56032" lon="-2.71177">
        <ele>27.8</ele>
        <time>2021-08-05T12:50:59Z</time>
      </trkpt>
      <trkpt lat="47.56029" lon="-2.71178">
        <ele>28</ele>
        <time>2021-08-05T12:51:00Z</time>
      </trkpt>
      <trkpt lat="47.56027" lon="-2.71178">
        <ele>27.8</ele>
        <time>2021-08-05T12:51:01Z</time>
      </trkpt>
      <trkpt lat="47.56025" lon="-2.71179">
        <ele>27.6</ele>
        <time>2021-08-05T12:51:02Z</time>
      </trkpt>
      <trkpt lat="47.56023" lon="-2.7118">
        <ele>27.6</ele>
        <time>2021-08-05T12:51:03Z</time>
      </trkpt>
      <trkpt lat="47.5602" lon="-2.71181">
        <ele>27.4</ele>
        <time>2021-08-05T12:51:04Z</time>
      </trkpt>
      <trkpt lat="47.56018" lon="-2.71182">
        <ele>27.4</ele>
        <time>2021-08-05T12:51:05Z</time>
      </trkpt>
      <trkpt lat="47.56016" lon="-2.71183">
        <ele>27.2</ele>
        <time>2021-08-05T12:51:06Z</time>
      </trkpt>
      <trkpt lat="47.56013" lon="-2.71183">
        <ele>27.2</ele>
        <time>2021-08-05T12:51:07Z</time>
      </trkpt>
      <trkpt lat="47.56011" lon="-2.71184">
        <ele>27</ele>
        <time>2021-08-05T12:51:08Z</time>
      </trkpt>
      <trkpt lat="47.56008" lon="-2.71185">
        <ele>27</ele>
        <time>2021-08-05T12:51:09Z</time>
      </trkpt>
      <trkpt lat="47.56006" lon="-2.71186">
        <ele>27</ele>
        <time>2021-08-05T12:51:10Z</time>
      </trkpt>
      <trkpt lat="47.56003" lon="-2.71188">
        <ele>27</ele>
        <time>2021-08-05T12:51:11Z</time>
      </trkpt>
      <trkpt lat="47.56001" lon="-2.71189">
        <ele>27</ele>
        <time>2021-08-05T12:51:12Z</time>
      </trkpt>
      <trkpt lat="47.55998" lon="-2.7119">
        <ele>27</ele>
        <time>2021-08-05T12:51:13Z</time>
      </trkpt>
      <trkpt lat="47.55995" lon="-2.71191">
        <ele>27</ele>
        <time>2021-08-05T12:51:14Z</time>
      </trkpt>
      <trkpt lat="47.55992" lon="-2.71193">
        <ele>27</ele>
        <time>2021-08-05T12:51:15Z</time>
      </trkpt>
      <trkpt lat="47.5599" lon="-2.71195">
        <ele>27</ele>
        <time>2021-08-05T12:51:16Z</time>
      </trkpt>
      <trkpt lat="47.55987" lon="-2.71196">
        <ele>27</ele>
        <time>2021-08-05T12:51:17Z</time>
      </trkpt>
      <trkpt lat="47.55984" lon="-2.71198">
        <ele>27</ele>
        <time>2021-08-05T12:51:18Z</time>
      </trkpt>
      <trkpt lat="47.55981" lon="-2.71199">
        <ele>27</ele>
        <time>2021-08-05T12:51:19Z</time>
      </trkpt>
      <trkpt lat="47.55978" lon="-2.71201">
        <ele>27</ele>
        <time>2021-08-05T12:51:20Z</time>
      </trkpt>
      <trkpt lat="47.55975" lon="-2.71202">
        <ele>27</ele>
        <time>2021-08-05T12:51:21Z</time>
      </trkpt>
      <trkpt lat="47.55973" lon="-2.71204">
        <ele>27</ele>
        <time>2021-08-05T12:51:22Z</time>
      </trkpt>
      <trkpt lat="47.5597" lon="-2.71206">
        <ele>27</ele>
        <time>2021-08-05T12:51:23Z</time>
      </trkpt>
      <trkpt lat="47.55967" lon="-2.71208">
        <ele>27</ele>
        <time>2021-08-05T12:51:24Z</time>
      </trkpt>
      <trkpt lat="47.55964" lon="-2.7121">
        <ele>26.8</ele>
        <time>2021-08-05T12:51:25Z</time>
      </trkpt>
      <trkpt lat="47.55961" lon="-2.71212">
        <ele>26.8</ele>
        <time>2021-08-05T12:51:26Z</time>
      </trkpt>
      <trkpt lat="47.55958" lon="-2.71214">
        <ele>26.8</ele>
        <time>2021-08-05T12:51:27Z</time>
      </trkpt>
      <trkpt lat="47.55955" lon="-2.71215">
        <ele>26.8</ele>
        <time>2021-08-05T12:51:28Z</time>
      </trkpt>
      <trkpt lat="47.55952" lon="-2.71217">
        <ele>27</ele>
        <time>2021-08-05T12:51:29Z</time>
      </trkpt>
      <trkpt lat="47.55949" lon="-2.71219">
        <ele>27</ele>
        <time>2021-08-05T12:51:30Z</time>
      </trkpt>
      <trkpt lat="47.55946" lon="-2.7122">
        <ele>27</ele>
        <time>2021-08-05T12:51:31Z</time>
      </trkpt>
      <trkpt lat="47.55943" lon="-2.71222">
        <ele>27</ele>
        <time>2021-08-05T12:51:32Z</time>
      </trkpt>
      <trkpt lat="47.5594" lon="-2.71224">
        <ele>27</ele>
        <time>2021-08-05T12:51:33Z</time>
      </trkpt>
      <trkpt lat="47.55937" lon="-2.71227">
        <ele>27</ele>
        <time>2021-08-05T12:51:34Z</time>
      </trkpt>
      <trkpt lat="47.55933" lon="-2.71229">
        <ele>27</ele>
        <time>2021-08-05T12:51:35Z</time>
      </trkpt>
      <trkpt lat="47.5593" lon="-2.7123">
        <ele>27</ele>
        <time>2021-08-05T12:51:36Z</time>
      </trkpt>
      <trkpt lat="47.55926" lon="-2.71232">
        <ele>26.8</ele>
        <time>2021-08-05T12:51:37Z</time>
      </trkpt>
      <trkpt lat="47.55923" lon="-2.71234">
        <ele>26.8</ele>
        <time>2021-08-05T12:51:38Z</time>
      </trkpt>
      <trkpt lat="47.55919" lon="-2.71236">
        <ele>26.8</ele>
        <time>2021-08-05T12:51:39Z</time>
      </trkpt>
      <trkpt lat="47.55916" lon="-2.71238">
        <ele>26.8</ele>
        <time>2021-08-05T12:51:40Z</time>
      </trkpt>
      <trkpt lat="47.55912" lon="-2.71241">
        <ele>26.8</ele>
        <time>2021-08-05T12:51:41Z</time>
      </trkpt>
      <trkpt lat="47.55909" lon="-2.71243">
        <ele>26.8</ele>
        <time>2021-08-05T12:51:42Z</time>
      </trkpt>
      <trkpt lat="47.55905" lon="-2.71245">
        <ele>26.6</ele>
        <time>2021-08-05T12:51:43Z</time>
      </trkpt>
      <trkpt lat="47.55902" lon="-2.71247">
        <ele>26.6</ele>
        <time>2021-08-05T12:51:44Z</time>
      </trkpt>
      <trkpt lat="47.55898" lon="-2.71249">
        <ele>26.6</ele>
        <time>2021-08-05T12:51:45Z</time>
      </trkpt>
      <trkpt lat="47.55894" lon="-2.71251">
        <ele>26.6</ele>
        <time>2021-08-05T12:51:46Z</time>
      </trkpt>
      <trkpt lat="47.55891" lon="-2.71254">
        <ele>26.4</ele>
        <time>2021-08-05T12:51:47Z</time>
      </trkpt>
      <trkpt lat="47.55887" lon="-2.71256">
        <ele>26.4</ele>
        <time>2021-08-05T12:51:48Z</time>
      </trkpt>
      <trkpt lat="47.55884" lon="-2.71258">
        <ele>26.2</ele>
        <time>2021-08-05T12:51:49Z</time>
      </trkpt>
      <trkpt lat="47.5588" lon="-2.7126">
        <ele>26.2</ele>
        <time>2021-08-05T12:51:50Z</time>
      </trkpt>
      <trkpt lat="47.55876" lon="-2.71262">
        <ele>26.2</ele>
        <time>2021-08-05T12:51:51Z</time>
      </trkpt>
      <trkpt lat="47.55872" lon="-2.71265">
        <ele>26.2</ele>
        <time>2021-08-05T12:51:52Z</time>
      </trkpt>
      <trkpt lat="47.55869" lon="-2.71267">
        <ele>26.2</ele>
        <time>2021-08-05T12:51:53Z</time>
      </trkpt>
      <trkpt lat="47.55865" lon="-2.71269">
        <ele>26.4</ele>
        <time>2021-08-05T12:51:54Z</time>
      </trkpt>
      <trkpt lat="47.55861" lon="-2.71271">
        <ele>26.4</ele>
        <time>2021-08-05T12:51:55Z</time>
      </trkpt>
      <trkpt lat="47.55858" lon="-2.71273">
        <ele>26.4</ele>
        <time>2021-08-05T12:51:56Z</time>
      </trkpt>
      <trkpt lat="47.55854" lon="-2.71276">
        <ele>26.4</ele>
        <time>2021-08-05T12:51:57Z</time>
      </trkpt>
      <trkpt lat="47.5585" lon="-2.71278">
        <ele>26.4</ele>
        <time>2021-08-05T12:51:58Z</time>
      </trkpt>
      <trkpt lat="47.55846" lon="-2.7128">
        <ele>26.4</ele>
        <time>2021-08-05T12:51:59Z</time>
      </trkpt>
      <trkpt lat="47.55843" lon="-2.71283">
        <ele>26.4</ele>
        <time>2021-08-05T12:52:00Z</time>
      </trkpt>
      <trkpt lat="47.55839" lon="-2.71285">
        <ele>26.4</ele>
        <time>2021-08-05T12:52:01Z</time>
      </trkpt>
      <trkpt lat="47.55835" lon="-2.71287">
        <ele>26.4</ele>
        <time>2021-08-05T12:52:02Z</time>
      </trkpt>
      <trkpt lat="47.55831" lon="-2.71289">
        <ele>26.4</ele>
        <time>2021-08-05T12:52:03Z</time>
      </trkpt>
      <trkpt lat="47.55827" lon="-2.71292">
        <ele>26.4</ele>
        <time>2021-08-05T12:52:04Z</time>
      </trkpt>
      <trkpt lat="47.55823" lon="-2.71294">
        <ele>26.4</ele>
        <time>2021-08-05T12:52:05Z</time>
      </trkpt>
      <trkpt lat="47.5582" lon="-2.71297">
        <ele>26.4</ele>
        <time>2021-08-05T12:52:06Z</time>
      </trkpt>
      <trkpt lat="47.55816" lon="-2.71299">
        <ele>26.2</ele>
        <time>2021-08-05T12:52:07Z</time>
      </trkpt>
      <trkpt lat="47.55812" lon="-2.71301">
        <ele>26.2</ele>
        <time>2021-08-05T12:52:08Z</time>
      </trkpt>
      <trkpt lat="47.55808" lon="-2.71304">
        <ele>26.2</ele>
        <time>2021-08-05T12:52:09Z</time>
      </trkpt>
      <trkpt lat="47.55804" lon="-2.71306">
        <ele>26</ele>
        <time>2021-08-05T12:52:10Z</time>
      </trkpt>
      <trkpt lat="47.558" lon="-2.71308">
        <ele>25.8</ele>
        <time>2021-08-05T12:52:11Z</time>
      </trkpt>
      <trkpt lat="47.55796" lon="-2.71311">
        <ele>25.8</ele>
        <time>2021-08-05T12:52:12Z</time>
      </trkpt>
      <trkpt lat="47.55792" lon="-2.71313">
        <ele>25.8</ele>
        <time>2021-08-05T12:52:13Z</time>
      </trkpt>
      <trkpt lat="47.55788" lon="-2.71315">
        <ele>25.8</ele>
        <time>2021-08-05T12:52:14Z</time>
      </trkpt>
      <trkpt lat="47.55784" lon="-2.71317">
        <ele>25.8</ele>
        <time>2021-08-05T12:52:15Z</time>
      </trkpt>
      <trkpt lat="47.5578" lon="-2.7132">
        <ele>25.6</ele>
        <time>2021-08-05T12:52:16Z</time>
      </trkpt>
      <trkpt lat="47.55776" lon="-2.71322">
        <ele>25.6</ele>
        <time>2021-08-05T12:52:17Z</time>
      </trkpt>
      <trkpt lat="47.55772" lon="-2.71325">
        <ele>25.6</ele>
        <time>2021-08-05T12:52:18Z</time>
      </trkpt>
      <trkpt lat="47.55768" lon="-2.71327">
        <ele>25.6</ele>
        <time>2021-08-05T12:52:19Z</time>
      </trkpt>
      <trkpt lat="47.55764" lon="-2.7133">
        <ele>25.4</ele>
        <time>2021-08-05T12:52:20Z</time>
      </trkpt>
      <trkpt lat="47.5576" lon="-2.71332">
        <ele>25.4</ele>
        <time>2021-08-05T12:52:21Z</time>
      </trkpt>
      <trkpt lat="47.55756" lon="-2.71335">
        <ele>25.2</ele>
        <time>2021-08-05T12:52:22Z</time>
      </trkpt>
      <trkpt lat="47.55752" lon="-2.71337">
        <ele>25.2</ele>
        <time>2021-08-05T12:52:23Z</time>
      </trkpt>
      <trkpt lat="47.55748" lon="-2.7134">
        <ele>25.2</ele>
        <time>2021-08-05T12:52:24Z</time>
      </trkpt>
      <trkpt lat="47.55744" lon="-2.71342">
        <ele>25.2</ele>
        <time>2021-08-05T12:52:25Z</time>
      </trkpt>
      <trkpt lat="47.5574" lon="-2.71344">
        <ele>25.2</ele>
        <time>2021-08-05T12:52:26Z</time>
      </trkpt>
      <trkpt lat="47.55736" lon="-2.71347">
        <ele>25.2</ele>
        <time>2021-08-05T12:52:27Z</time>
      </trkpt>
      <trkpt lat="47.55732" lon="-2.71349">
        <ele>25.2</ele>
        <time>2021-08-05T12:52:28Z</time>
      </trkpt>
      <trkpt lat="47.55728" lon="-2.71352">
        <ele>25.2</ele>
        <time>2021-08-05T12:52:29Z</time>
      </trkpt>
      <trkpt lat="47.55724" lon="-2.71354">
        <ele>25.2</ele>
        <time>2021-08-05T12:52:30Z</time>
      </trkpt>
      <trkpt lat="47.55719" lon="-2.71356">
        <ele>25</ele>
        <time>2021-08-05T12:52:31Z</time>
      </trkpt>
      <trkpt lat="47.55715" lon="-2.71359">
        <ele>25</ele>
        <time>2021-08-05T12:52:32Z</time>
      </trkpt>
      <trkpt lat="47.55711" lon="-2.71362">
        <ele>25</ele>
        <time>2021-08-05T12:52:33Z</time>
      </trkpt>
      <trkpt lat="47.55707" lon="-2.71364">
        <ele>25</ele>
        <time>2021-08-05T12:52:34Z</time>
      </trkpt>
      <trkpt lat="47.55703" lon="-2.71367">
        <ele>25</ele>
        <time>2021-08-05T12:52:35Z</time>
      </trkpt>
      <trkpt lat="47.55699" lon="-2.71369">
        <ele>25.2</ele>
        <time>2021-08-05T12:52:36Z</time>
      </trkpt>
      <trkpt lat="47.55695" lon="-2.71372">
        <ele>25.2</ele>
        <time>2021-08-05T12:52:37Z</time>
      </trkpt>
      <trkpt lat="47.5569" lon="-2.71374">
        <ele>25.4</ele>
        <time>2021-08-05T12:52:38Z</time>
      </trkpt>
      <trkpt lat="47.55686" lon="-2.71377">
        <ele>25.4</ele>
        <time>2021-08-05T12:52:39Z</time>
      </trkpt>
      <trkpt lat="47.55682" lon="-2.71379">
        <ele>25.4</ele>
        <time>2021-08-05T12:52:40Z</time>
      </trkpt>
      <trkpt lat="47.55678" lon="-2.71382">
        <ele>25.2</ele>
        <time>2021-08-05T12:52:41Z</time>
      </trkpt>
      <trkpt lat="47.55674" lon="-2.71385">
        <ele>25.4</ele>
        <time>2021-08-05T12:52:42Z</time>
      </trkpt>
      <trkpt lat="47.5567" lon="-2.71387">
        <ele>25.4</ele>
        <time>2021-08-05T12:52:43Z</time>
      </trkpt>
      <trkpt lat="47.55666" lon="-2.7139">
        <ele>25.4</ele>
        <time>2021-08-05T12:52:44Z</time>
      </trkpt>
      <trkpt lat="47.55662" lon="-2.71392">
        <ele>25.4</ele>
        <time>2021-08-05T12:52:45Z</time>
      </trkpt>
      <trkpt lat="47.55658" lon="-2.71394">
        <ele>25.4</ele>
        <time>2021-08-05T12:52:46Z</time>
      </trkpt>
      <trkpt lat="47.55653" lon="-2.71396">
        <ele>25.4</ele>
        <time>2021-08-05T12:52:47Z</time>
      </trkpt>
      <trkpt lat="47.55649" lon="-2.71399">
        <ele>25.4</ele>
        <time>2021-08-05T12:52:48Z</time>
      </trkpt>
      <trkpt lat="47.55645" lon="-2.71401">
        <ele>25.4</ele>
        <time>2021-08-05T12:52:49Z</time>
      </trkpt>
      <trkpt lat="47.55641" lon="-2.71403">
        <ele>25.4</ele>
        <time>2021-08-05T12:52:50Z</time>
      </trkpt>
      <trkpt lat="47.55637" lon="-2.71405">
        <ele>25.4</ele>
        <time>2021-08-05T12:52:51Z</time>
      </trkpt>
      <trkpt lat="47.55633" lon="-2.71408">
        <ele>25.4</ele>
        <time>2021-08-05T12:52:52Z</time>
      </trkpt>
      <trkpt lat="47.55629" lon="-2.7141">
        <ele>25.4</ele>
        <time>2021-08-05T12:52:53Z</time>
      </trkpt>
      <trkpt lat="47.55625" lon="-2.71413">
        <ele>25.6</ele>
        <time>2021-08-05T12:52:54Z</time>
      </trkpt>
      <trkpt lat="47.55621" lon="-2.71416">
        <ele>25.6</ele>
        <time>2021-08-05T12:52:55Z</time>
      </trkpt>
      <trkpt lat="47.55617" lon="-2.71419">
        <ele>25.6</ele>
        <time>2021-08-05T12:52:56Z</time>
      </trkpt>
      <trkpt lat="47.55613" lon="-2.71421">
        <ele>25.6</ele>
        <time>2021-08-05T12:52:57Z</time>
      </trkpt>
      <trkpt lat="47.55609" lon="-2.71424">
        <ele>25.6</ele>
        <time>2021-08-05T12:52:58Z</time>
      </trkpt>
      <trkpt lat="47.55604" lon="-2.71426">
        <ele>25.6</ele>
        <time>2021-08-05T12:52:59Z</time>
      </trkpt>
      <trkpt lat="47.556" lon="-2.71429">
        <ele>25.6</ele>
        <time>2021-08-05T12:53:00Z</time>
      </trkpt>
      <trkpt lat="47.55596" lon="-2.71431">
        <ele>25.6</ele>
        <time>2021-08-05T12:53:01Z</time>
      </trkpt>
      <trkpt lat="47.55591" lon="-2.71433">
        <ele>25.6</ele>
        <time>2021-08-05T12:53:02Z</time>
      </trkpt>
      <trkpt lat="47.55587" lon="-2.71436">
        <ele>25.6</ele>
        <time>2021-08-05T12:53:03Z</time>
      </trkpt>
      <trkpt lat="47.55583" lon="-2.71439">
        <ele>25.4</ele>
        <time>2021-08-05T12:53:04Z</time>
      </trkpt>
      <trkpt lat="47.55579" lon="-2.71442">
        <ele>25.4</ele>
        <time>2021-08-05T12:53:05Z</time>
      </trkpt>
      <trkpt lat="47.55575" lon="-2.71445">
        <ele>25.4</ele>
        <time>2021-08-05T12:53:06Z</time>
      </trkpt>
      <trkpt lat="47.55571" lon="-2.71448">
        <ele>25.4</ele>
        <time>2021-08-05T12:53:07Z</time>
      </trkpt>
      <trkpt lat="47.55566" lon="-2.7145">
        <ele>25.4</ele>
        <time>2021-08-05T12:53:08Z</time>
      </trkpt>
      <trkpt lat="47.55561" lon="-2.71453">
        <ele>25.4</ele>
        <time>2021-08-05T12:53:09Z</time>
      </trkpt>
      <trkpt lat="47.55557" lon="-2.71455">
        <ele>25.4</ele>
        <time>2021-08-05T12:53:10Z</time>
      </trkpt>
      <trkpt lat="47.55552" lon="-2.71458">
        <ele>25.4</ele>
        <time>2021-08-05T12:53:11Z</time>
      </trkpt>
      <trkpt lat="47.55547" lon="-2.71461">
        <ele>25.4</ele>
        <time>2021-08-05T12:53:12Z</time>
      </trkpt>
      <trkpt lat="47.55542" lon="-2.71464">
        <ele>25.6</ele>
        <time>2021-08-05T12:53:13Z</time>
      </trkpt>
      <trkpt lat="47.55537" lon="-2.71467">
        <ele>25.6</ele>
        <time>2021-08-05T12:53:14Z</time>
      </trkpt>
      <trkpt lat="47.55532" lon="-2.7147">
        <ele>25.6</ele>
        <time>2021-08-05T12:53:15Z</time>
      </trkpt>
      <trkpt lat="47.55527" lon="-2.71472">
        <ele>25.6</ele>
        <time>2021-08-05T12:53:16Z</time>
      </trkpt>
      <trkpt lat="47.55522" lon="-2.71475">
        <ele>25.6</ele>
        <time>2021-08-05T12:53:17Z</time>
      </trkpt>
      <trkpt lat="47.55517" lon="-2.71478">
        <ele>25.8</ele>
        <time>2021-08-05T12:53:18Z</time>
      </trkpt>
      <trkpt lat="47.55512" lon="-2.71481">
        <ele>25.8</ele>
        <time>2021-08-05T12:53:19Z</time>
      </trkpt>
      <trkpt lat="47.55507" lon="-2.71484">
        <ele>25.8</ele>
        <time>2021-08-05T12:53:20Z</time>
      </trkpt>
      <trkpt lat="47.55502" lon="-2.71488">
        <ele>26</ele>
        <time>2021-08-05T12:53:21Z</time>
      </trkpt>
      <trkpt lat="47.55498" lon="-2.71491">
        <ele>26</ele>
        <time>2021-08-05T12:53:22Z</time>
      </trkpt>
      <trkpt lat="47.55493" lon="-2.71494">
        <ele>26</ele>
        <time>2021-08-05T12:53:23Z</time>
      </trkpt>
      <trkpt lat="47.55488" lon="-2.71497">
        <ele>26</ele>
        <time>2021-08-05T12:53:24Z</time>
      </trkpt>
      <trkpt lat="47.55483" lon="-2.715">
        <ele>26</ele>
        <time>2021-08-05T12:53:25Z</time>
      </trkpt>
      <trkpt lat="47.55478" lon="-2.71503">
        <ele>26</ele>
        <time>2021-08-05T12:53:26Z</time>
      </trkpt>
      <trkpt lat="47.55472" lon="-2.71506">
        <ele>26.2</ele>
        <time>2021-08-05T12:53:27Z</time>
      </trkpt>
      <trkpt lat="47.55467" lon="-2.71509">
        <ele>26.2</ele>
        <time>2021-08-05T12:53:28Z</time>
      </trkpt>
      <trkpt lat="47.55462" lon="-2.71512">
        <ele>26.2</ele>
        <time>2021-08-05T12:53:29Z</time>
      </trkpt>
      <trkpt lat="47.55457" lon="-2.71515">
        <ele>26.2</ele>
        <time>2021-08-05T12:53:30Z</time>
      </trkpt>
      <trkpt lat="47.55452" lon="-2.71518">
        <ele>26.2</ele>
        <time>2021-08-05T12:53:31Z</time>
      </trkpt>
      <trkpt lat="47.55447" lon="-2.71521">
        <ele>26.4</ele>
        <time>2021-08-05T12:53:32Z</time>
      </trkpt>
      <trkpt lat="47.55442" lon="-2.71524">
        <ele>26.4</ele>
        <time>2021-08-05T12:53:33Z</time>
      </trkpt>
      <trkpt lat="47.55437" lon="-2.71528">
        <ele>26.4</ele>
        <time>2021-08-05T12:53:34Z</time>
      </trkpt>
      <trkpt lat="47.55432" lon="-2.71531">
        <ele>26.4</ele>
        <time>2021-08-05T12:53:35Z</time>
      </trkpt>
      <trkpt lat="47.55428" lon="-2.71533">
        <ele>26.4</ele>
        <time>2021-08-05T12:53:36Z</time>
      </trkpt>
      <trkpt lat="47.55423" lon="-2.71536">
        <ele>26.4</ele>
        <time>2021-08-05T12:53:37Z</time>
      </trkpt>
      <trkpt lat="47.55419" lon="-2.71539">
        <ele>26.4</ele>
        <time>2021-08-05T12:53:38Z</time>
      </trkpt>
      <trkpt lat="47.55414" lon="-2.71542">
        <ele>26.6</ele>
        <time>2021-08-05T12:53:39Z</time>
      </trkpt>
      <trkpt lat="47.5541" lon="-2.71544">
        <ele>26.6</ele>
        <time>2021-08-05T12:53:40Z</time>
      </trkpt>
      <trkpt lat="47.55406" lon="-2.71547">
        <ele>26.6</ele>
        <time>2021-08-05T12:53:41Z</time>
      </trkpt>
      <trkpt lat="47.55401" lon="-2.71549">
        <ele>26.8</ele>
        <time>2021-08-05T12:53:42Z</time>
      </trkpt>
      <trkpt lat="47.55397" lon="-2.71552">
        <ele>26.8</ele>
        <time>2021-08-05T12:53:43Z</time>
      </trkpt>
      <trkpt lat="47.55393" lon="-2.71555">
        <ele>26.8</ele>
        <time>2021-08-05T12:53:44Z</time>
      </trkpt>
      <trkpt lat="47.55388" lon="-2.71557">
        <ele>26.8</ele>
        <time>2021-08-05T12:53:45Z</time>
      </trkpt>
      <trkpt lat="47.55384" lon="-2.71559">
        <ele>27</ele>
        <time>2021-08-05T12:53:46Z</time>
      </trkpt>
      <trkpt lat="47.5538" lon="-2.71561">
        <ele>27</ele>
        <time>2021-08-05T12:53:47Z</time>
      </trkpt>
      <trkpt lat="47.55376" lon="-2.71563">
        <ele>27</ele>
        <time>2021-08-05T12:53:48Z</time>
      </trkpt>
      <trkpt lat="47.55372" lon="-2.71566">
        <ele>27</ele>
        <time>2021-08-05T12:53:49Z</time>
      </trkpt>
      <trkpt lat="47.55368" lon="-2.71568">
        <ele>27.2</ele>
        <time>2021-08-05T12:53:50Z</time>
      </trkpt>
      <trkpt lat="47.55365" lon="-2.7157">
        <ele>27.2</ele>
        <time>2021-08-05T12:53:51Z</time>
      </trkpt>
      <trkpt lat="47.55361" lon="-2.71572">
        <ele>27.2</ele>
        <time>2021-08-05T12:53:52Z</time>
      </trkpt>
      <trkpt lat="47.55358" lon="-2.71574">
        <ele>27.4</ele>
        <time>2021-08-05T12:53:53Z</time>
      </trkpt>
      <trkpt lat="47.55354" lon="-2.71576">
        <ele>27.4</ele>
        <time>2021-08-05T12:53:54Z</time>
      </trkpt>
      <trkpt lat="47.55351" lon="-2.71579">
        <ele>27.4</ele>
        <time>2021-08-05T12:53:55Z</time>
      </trkpt>
      <trkpt lat="47.55347" lon="-2.71581">
        <ele>27.4</ele>
        <time>2021-08-05T12:53:56Z</time>
      </trkpt>
      <trkpt lat="47.55343" lon="-2.71584">
        <ele>27.6</ele>
        <time>2021-08-05T12:53:57Z</time>
      </trkpt>
      <trkpt lat="47.5534" lon="-2.71586">
        <ele>27.6</ele>
        <time>2021-08-05T12:53:58Z</time>
      </trkpt>
      <trkpt lat="47.55336" lon="-2.71589">
        <ele>27.6</ele>
        <time>2021-08-05T12:53:59Z</time>
      </trkpt>
      <trkpt lat="47.55332" lon="-2.71591">
        <ele>27.6</ele>
        <time>2021-08-05T12:54:00Z</time>
      </trkpt>
      <trkpt lat="47.55328" lon="-2.71594">
        <ele>27.6</ele>
        <time>2021-08-05T12:54:01Z</time>
      </trkpt>
      <trkpt lat="47.55324" lon="-2.71596">
        <ele>27.6</ele>
        <time>2021-08-05T12:54:02Z</time>
      </trkpt>
      <trkpt lat="47.55319" lon="-2.71599">
        <ele>27.6</ele>
        <time>2021-08-05T12:54:03Z</time>
      </trkpt>
      <trkpt lat="47.55315" lon="-2.71601">
        <ele>27.6</ele>
        <time>2021-08-05T12:54:04Z</time>
      </trkpt>
      <trkpt lat="47.55311" lon="-2.71603">
        <ele>27.6</ele>
        <time>2021-08-05T12:54:05Z</time>
      </trkpt>
      <trkpt lat="47.55307" lon="-2.71606">
        <ele>27.6</ele>
        <time>2021-08-05T12:54:06Z</time>
      </trkpt>
      <trkpt lat="47.55302" lon="-2.71609">
        <ele>27.6</ele>
        <time>2021-08-05T12:54:07Z</time>
      </trkpt>
      <trkpt lat="47.55298" lon="-2.71612">
        <ele>27.6</ele>
        <time>2021-08-05T12:54:08Z</time>
      </trkpt>
      <trkpt lat="47.55293" lon="-2.71615">
        <ele>27.6</ele>
        <time>2021-08-05T12:54:09Z</time>
      </trkpt>
      <trkpt lat="47.55288" lon="-2.71618">
        <ele>27.6</ele>
        <time>2021-08-05T12:54:10Z</time>
      </trkpt>
      <trkpt lat="47.55283" lon="-2.71621">
        <ele>27.6</ele>
        <time>2021-08-05T12:54:11Z</time>
      </trkpt>
      <trkpt lat="47.55278" lon="-2.71623">
        <ele>27.6</ele>
        <time>2021-08-05T12:54:12Z</time>
      </trkpt>
      <trkpt lat="47.55273" lon="-2.71626">
        <ele>27.6</ele>
        <time>2021-08-05T12:54:13Z</time>
      </trkpt>
      <trkpt lat="47.55269" lon="-2.7163">
        <ele>27.6</ele>
        <time>2021-08-05T12:54:14Z</time>
      </trkpt>
      <trkpt lat="47.55264" lon="-2.71632">
        <ele>27.6</ele>
        <time>2021-08-05T12:54:15Z</time>
      </trkpt>
      <trkpt lat="47.55259" lon="-2.71635">
        <ele>27.6</ele>
        <time>2021-08-05T12:54:16Z</time>
      </trkpt>
      <trkpt lat="47.55255" lon="-2.71637">
        <ele>27.6</ele>
        <time>2021-08-05T12:54:17Z</time>
      </trkpt>
      <trkpt lat="47.55251" lon="-2.7164">
        <ele>27.6</ele>
        <time>2021-08-05T12:54:18Z</time>
      </trkpt>
      <trkpt lat="47.55246" lon="-2.71642">
        <ele>27.6</ele>
        <time>2021-08-05T12:54:19Z</time>
      </trkpt>
      <trkpt lat="47.55242" lon="-2.71644">
        <ele>27.6</ele>
        <time>2021-08-05T12:54:20Z</time>
      </trkpt>
      <trkpt lat="47.55237" lon="-2.71646">
        <ele>27.6</ele>
        <time>2021-08-05T12:54:21Z</time>
      </trkpt>
      <trkpt lat="47.55232" lon="-2.71648">
        <ele>27.6</ele>
        <time>2021-08-05T12:54:22Z</time>
      </trkpt>
      <trkpt lat="47.55227" lon="-2.71649">
        <ele>27.8</ele>
        <time>2021-08-05T12:54:23Z</time>
      </trkpt>
      <trkpt lat="47.55221" lon="-2.7165">
        <ele>27.8</ele>
        <time>2021-08-05T12:54:24Z</time>
      </trkpt>
      <trkpt lat="47.55216" lon="-2.71649">
        <ele>28</ele>
        <time>2021-08-05T12:54:25Z</time>
      </trkpt>
      <trkpt lat="47.55211" lon="-2.71648">
        <ele>28</ele>
        <time>2021-08-05T12:54:26Z</time>
      </trkpt>
      <trkpt lat="47.55206" lon="-2.71647">
        <ele>28</ele>
        <time>2021-08-05T12:54:27Z</time>
      </trkpt>
      <trkpt lat="47.55201" lon="-2.71646">
        <ele>28</ele>
        <time>2021-08-05T12:54:28Z</time>
      </trkpt>
      <trkpt lat="47.55196" lon="-2.71645">
        <ele>28</ele>
        <time>2021-08-05T12:54:29Z</time>
      </trkpt>
      <trkpt lat="47.55191" lon="-2.71643">
        <ele>28.2</ele>
        <time>2021-08-05T12:54:30Z</time>
      </trkpt>
      <trkpt lat="47.55186" lon="-2.71641">
        <ele>28.2</ele>
        <time>2021-08-05T12:54:31Z</time>
      </trkpt>
      <trkpt lat="47.55181" lon="-2.7164">
        <ele>28.2</ele>
        <time>2021-08-05T12:54:32Z</time>
      </trkpt>
      <trkpt lat="47.55176" lon="-2.71638">
        <ele>28.4</ele>
        <time>2021-08-05T12:54:33Z</time>
      </trkpt>
      <trkpt lat="47.55172" lon="-2.71637">
        <ele>28.4</ele>
        <time>2021-08-05T12:54:34Z</time>
      </trkpt>
      <trkpt lat="47.55167" lon="-2.71636">
        <ele>28.4</ele>
        <time>2021-08-05T12:54:35Z</time>
      </trkpt>
      <trkpt lat="47.55163" lon="-2.71634">
        <ele>28.4</ele>
        <time>2021-08-05T12:54:36Z</time>
      </trkpt>
      <trkpt lat="47.55158" lon="-2.71633">
        <ele>28.4</ele>
        <time>2021-08-05T12:54:37Z</time>
      </trkpt>
      <trkpt lat="47.55154" lon="-2.71633">
        <ele>28.6</ele>
        <time>2021-08-05T12:54:38Z</time>
      </trkpt>
      <trkpt lat="47.55151" lon="-2.71632">
        <ele>28.6</ele>
        <time>2021-08-05T12:54:39Z</time>
      </trkpt>
      <trkpt lat="47.55148" lon="-2.71631">
        <ele>28.6</ele>
        <time>2021-08-05T12:54:40Z</time>
      </trkpt>
      <trkpt lat="47.55145" lon="-2.7163">
        <ele>28.6</ele>
        <time>2021-08-05T12:54:41Z</time>
      </trkpt>
      <trkpt lat="47.55142" lon="-2.71629">
        <ele>28.6</ele>
        <time>2021-08-05T12:54:42Z</time>
      </trkpt>
      <trkpt lat="47.5514" lon="-2.71629">
        <ele>28.6</ele>
        <time>2021-08-05T12:54:43Z</time>
      </trkpt>
      <trkpt lat="47.55138" lon="-2.71629">
        <ele>28.8</ele>
        <time>2021-08-05T12:54:44Z</time>
      </trkpt>
      <trkpt lat="47.55136" lon="-2.71629">
        <ele>28.8</ele>
        <time>2021-08-05T12:54:45Z</time>
      </trkpt>
      <trkpt lat="47.55134" lon="-2.71629">
        <ele>28.8</ele>
        <time>2021-08-05T12:54:46Z</time>
      </trkpt>
      <trkpt lat="47.55132" lon="-2.71628">
        <ele>28.8</ele>
        <time>2021-08-05T12:54:47Z</time>
      </trkpt>
      <trkpt lat="47.5513" lon="-2.71628">
        <ele>28.8</ele>
        <time>2021-08-05T12:54:48Z</time>
      </trkpt>
      <trkpt lat="47.55127" lon="-2.71627">
        <ele>28.8</ele>
        <time>2021-08-05T12:54:49Z</time>
      </trkpt>
      <trkpt lat="47.55124" lon="-2.71626">
        <ele>28.8</ele>
        <time>2021-08-05T12:54:50Z</time>
      </trkpt>
      <trkpt lat="47.55121" lon="-2.71627">
        <ele>28.8</ele>
        <time>2021-08-05T12:54:51Z</time>
      </trkpt>
      <trkpt lat="47.55119" lon="-2.71629">
        <ele>28.8</ele>
        <time>2021-08-05T12:54:52Z</time>
      </trkpt>
      <trkpt lat="47.55116" lon="-2.71632">
        <ele>28.8</ele>
        <time>2021-08-05T12:54:53Z</time>
      </trkpt>
      <trkpt lat="47.55115" lon="-2.71636">
        <ele>28.8</ele>
        <time>2021-08-05T12:54:54Z</time>
      </trkpt>
      <trkpt lat="47.55115" lon="-2.71641">
        <ele>28.8</ele>
        <time>2021-08-05T12:54:55Z</time>
      </trkpt>
      <trkpt lat="47.55114" lon="-2.71645">
        <ele>28.8</ele>
        <time>2021-08-05T12:54:56Z</time>
      </trkpt>
      <trkpt lat="47.55113" lon="-2.71649">
        <ele>28.8</ele>
        <time>2021-08-05T12:54:57Z</time>
      </trkpt>
      <trkpt lat="47.55112" lon="-2.71653">
        <ele>28.8</ele>
        <time>2021-08-05T12:54:58Z</time>
      </trkpt>
      <trkpt lat="47.55109" lon="-2.71656">
        <ele>28.8</ele>
        <time>2021-08-05T12:54:59Z</time>
      </trkpt>
      <trkpt lat="47.55106" lon="-2.71657">
        <ele>28.8</ele>
        <time>2021-08-05T12:55:00Z</time>
      </trkpt>
      <trkpt lat="47.55103" lon="-2.71657">
        <ele>28.8</ele>
        <time>2021-08-05T12:55:01Z</time>
      </trkpt>
      <trkpt lat="47.55099" lon="-2.71656">
        <ele>28.8</ele>
        <time>2021-08-05T12:55:02Z</time>
      </trkpt>
      <trkpt lat="47.55096" lon="-2.71654">
        <ele>28.8</ele>
        <time>2021-08-05T12:55:03Z</time>
      </trkpt>
      <trkpt lat="47.55092" lon="-2.71653">
        <ele>28.8</ele>
        <time>2021-08-05T12:55:04Z</time>
      </trkpt>
      <trkpt lat="47.55088" lon="-2.71651">
        <ele>28.8</ele>
        <time>2021-08-05T12:55:05Z</time>
      </trkpt>
      <trkpt lat="47.55084" lon="-2.71649">
        <ele>28.8</ele>
        <time>2021-08-05T12:55:06Z</time>
      </trkpt>
      <trkpt lat="47.5508" lon="-2.71647">
        <ele>28.8</ele>
        <time>2021-08-05T12:55:07Z</time>
      </trkpt>
      <trkpt lat="47.55076" lon="-2.71646">
        <ele>28.8</ele>
        <time>2021-08-05T12:55:08Z</time>
      </trkpt>
      <trkpt lat="47.55072" lon="-2.71645">
        <ele>29</ele>
        <time>2021-08-05T12:55:09Z</time>
      </trkpt>
      <trkpt lat="47.55068" lon="-2.71644">
        <ele>28.8</ele>
        <time>2021-08-05T12:55:10Z</time>
      </trkpt>
      <trkpt lat="47.55064" lon="-2.71643">
        <ele>29</ele>
        <time>2021-08-05T12:55:11Z</time>
      </trkpt>
      <trkpt lat="47.55061" lon="-2.71642">
        <ele>29</ele>
        <time>2021-08-05T12:55:12Z</time>
      </trkpt>
      <trkpt lat="47.55059" lon="-2.71643">
        <ele>29</ele>
        <time>2021-08-05T12:55:13Z</time>
      </trkpt>
      <trkpt lat="47.55057" lon="-2.71644">
        <ele>29</ele>
        <time>2021-08-05T12:55:14Z</time>
      </trkpt>
      <trkpt lat="47.55056" lon="-2.71646">
        <ele>29</ele>
        <time>2021-08-05T12:55:15Z</time>
      </trkpt>
      <trkpt lat="47.55055" lon="-2.71648">
        <ele>29</ele>
        <time>2021-08-05T12:55:16Z</time>
      </trkpt>
      <trkpt lat="47.55055" lon="-2.7165">
        <ele>29</ele>
        <time>2021-08-05T12:55:17Z</time>
      </trkpt>
      <trkpt lat="47.55056" lon="-2.71651">
        <ele>29</ele>
        <time>2021-08-05T12:55:18Z</time>
      </trkpt>
      <trkpt lat="47.55056" lon="-2.71652">
        <ele>29</ele>
        <time>2021-08-05T12:55:19Z</time>
      </trkpt>
      <trkpt lat="47.55055" lon="-2.71654">
        <ele>29</ele>
        <time>2021-08-05T12:55:20Z</time>
      </trkpt>
      <trkpt lat="47.55056" lon="-2.71656">
        <ele>29</ele>
        <time>2021-08-05T12:55:21Z</time>
      </trkpt>
      <trkpt lat="47.55056" lon="-2.71659">
        <ele>29</ele>
        <time>2021-08-05T12:55:22Z</time>
      </trkpt>
      <trkpt lat="47.55057" lon="-2.71662">
        <ele>28.8</ele>
        <time>2021-08-05T12:55:23Z</time>
      </trkpt>
      <trkpt lat="47.55057" lon="-2.71665">
        <ele>28.8</ele>
        <time>2021-08-05T12:55:24Z</time>
      </trkpt>
      <trkpt lat="47.55058" lon="-2.71668">
        <ele>28.8</ele>
        <time>2021-08-05T12:55:25Z</time>
      </trkpt>
      <trkpt lat="47.55057" lon="-2.71672">
        <ele>28.8</ele>
        <time>2021-08-05T12:55:26Z</time>
      </trkpt>
      <trkpt lat="47.55056" lon="-2.71675">
        <ele>28.8</ele>
        <time>2021-08-05T12:55:27Z</time>
      </trkpt>
      <trkpt lat="47.55054" lon="-2.71677">
        <ele>28.6</ele>
        <time>2021-08-05T12:55:28Z</time>
      </trkpt>
      <trkpt lat="47.55052" lon="-2.71679">
        <ele>28.6</ele>
        <time>2021-08-05T12:55:29Z</time>
      </trkpt>
      <trkpt lat="47.5505" lon="-2.71681">
        <ele>28.4</ele>
        <time>2021-08-05T12:55:30Z</time>
      </trkpt>
      <trkpt lat="47.55048" lon="-2.71684">
        <ele>28.4</ele>
        <time>2021-08-05T12:55:31Z</time>
      </trkpt>
      <trkpt lat="47.55048" lon="-2.71688">
        <ele>28.2</ele>
        <time>2021-08-05T12:55:32Z</time>
      </trkpt>
      <trkpt lat="47.55049" lon="-2.71693">
        <ele>28.2</ele>
        <time>2021-08-05T12:55:33Z</time>
      </trkpt>
      <trkpt lat="47.5505" lon="-2.71697">
        <ele>28.2</ele>
        <time>2021-08-05T12:55:34Z</time>
      </trkpt>
      <trkpt lat="47.55052" lon="-2.71702">
        <ele>28.2</ele>
        <time>2021-08-05T12:55:35Z</time>
      </trkpt>
      <trkpt lat="47.55053" lon="-2.71706">
        <ele>28</ele>
        <time>2021-08-05T12:55:36Z</time>
      </trkpt>
      <trkpt lat="47.55053" lon="-2.71711">
        <ele>27.8</ele>
        <time>2021-08-05T12:55:37Z</time>
      </trkpt>
      <trkpt lat="47.55053" lon="-2.71716">
        <ele>27.8</ele>
        <time>2021-08-05T12:55:38Z</time>
      </trkpt>
      <trkpt lat="47.55054" lon="-2.71722">
        <ele>27.6</ele>
        <time>2021-08-05T12:55:39Z</time>
      </trkpt>
      <trkpt lat="47.55053" lon="-2.71727">
        <ele>27.4</ele>
        <time>2021-08-05T12:55:40Z</time>
      </trkpt>
      <trkpt lat="47.55051" lon="-2.71732">
        <ele>27.4</ele>
        <time>2021-08-05T12:55:41Z</time>
      </trkpt>
      <trkpt lat="47.55049" lon="-2.71736">
        <ele>27.4</ele>
        <time>2021-08-05T12:55:42Z</time>
      </trkpt>
      <trkpt lat="47.55046" lon="-2.7174">
        <ele>27.2</ele>
        <time>2021-08-05T12:55:43Z</time>
      </trkpt>
      <trkpt lat="47.55042" lon="-2.71744">
        <ele>27.2</ele>
        <time>2021-08-05T12:55:44Z</time>
      </trkpt>
      <trkpt lat="47.55039" lon="-2.71747">
        <ele>27.2</ele>
        <time>2021-08-05T12:55:45Z</time>
      </trkpt>
      <trkpt lat="47.55036" lon="-2.7175">
        <ele>27.2</ele>
        <time>2021-08-05T12:55:46Z</time>
      </trkpt>
      <trkpt lat="47.55032" lon="-2.71753">
        <ele>27.2</ele>
        <time>2021-08-05T12:55:47Z</time>
      </trkpt>
      <trkpt lat="47.55028" lon="-2.71756">
        <ele>27.2</ele>
        <time>2021-08-05T12:55:48Z</time>
      </trkpt>
      <trkpt lat="47.55024" lon="-2.71758">
        <ele>27.2</ele>
        <time>2021-08-05T12:55:49Z</time>
      </trkpt>
      <trkpt lat="47.5502" lon="-2.71761">
        <ele>27.2</ele>
        <time>2021-08-05T12:55:50Z</time>
      </trkpt>
      <trkpt lat="47.55017" lon="-2.71763">
        <ele>27.2</ele>
        <time>2021-08-05T12:55:51Z</time>
      </trkpt>
      <trkpt lat="47.55013" lon="-2.71766">
        <ele>27.2</ele>
        <time>2021-08-05T12:55:52Z</time>
      </trkpt>
      <trkpt lat="47.55009" lon="-2.71768">
        <ele>27.2</ele>
        <time>2021-08-05T12:55:53Z</time>
      </trkpt>
      <trkpt lat="47.55005" lon="-2.7177">
        <ele>27.2</ele>
        <time>2021-08-05T12:55:54Z</time>
      </trkpt>
      <trkpt lat="47.55001" lon="-2.71772">
        <ele>27.2</ele>
        <time>2021-08-05T12:55:55Z</time>
      </trkpt>
      <trkpt lat="47.54998" lon="-2.71774">
        <ele>27.4</ele>
        <time>2021-08-05T12:55:56Z</time>
      </trkpt>
      <trkpt lat="47.54994" lon="-2.71776">
        <ele>27.4</ele>
        <time>2021-08-05T12:55:57Z</time>
      </trkpt>
      <trkpt lat="47.54991" lon="-2.71777">
        <ele>27.4</ele>
        <time>2021-08-05T12:55:58Z</time>
      </trkpt>
      <trkpt lat="47.54987" lon="-2.71779">
        <ele>27.4</ele>
        <time>2021-08-05T12:55:59Z</time>
      </trkpt>
      <trkpt lat="47.54984" lon="-2.7178">
        <ele>27.4</ele>
        <time>2021-08-05T12:56:00Z</time>
      </trkpt>
      <trkpt lat="47.54981" lon="-2.71781">
        <ele>27.4</ele>
        <time>2021-08-05T12:56:01Z</time>
      </trkpt>
      <trkpt lat="47.54978" lon="-2.71782">
        <ele>27.4</ele>
        <time>2021-08-05T12:56:02Z</time>
      </trkpt>
      <trkpt lat="47.54975" lon="-2.71783">
        <ele>27.4</ele>
        <time>2021-08-05T12:56:03Z</time>
      </trkpt>
      <trkpt lat="47.54972" lon="-2.71784">
        <ele>27.4</ele>
        <time>2021-08-05T12:56:04Z</time>
      </trkpt>
      <trkpt lat="47.54969" lon="-2.71786">
        <ele>27.4</ele>
        <time>2021-08-05T12:56:05Z</time>
      </trkpt>
      <trkpt lat="47.54966" lon="-2.71788">
        <ele>27.6</ele>
        <time>2021-08-05T12:56:06Z</time>
      </trkpt>
      <trkpt lat="47.54963" lon="-2.7179">
        <ele>27.6</ele>
        <time>2021-08-05T12:56:07Z</time>
      </trkpt>
      <trkpt lat="47.5496" lon="-2.71791">
        <ele>27.6</ele>
        <time>2021-08-05T12:56:08Z</time>
      </trkpt>
      <trkpt lat="47.54957" lon="-2.71793">
        <ele>27.6</ele>
        <time>2021-08-05T12:56:09Z</time>
      </trkpt>
      <trkpt lat="47.54954" lon="-2.71795">
        <ele>27.6</ele>
        <time>2021-08-05T12:56:10Z</time>
      </trkpt>
      <trkpt lat="47.54951" lon="-2.71797">
        <ele>27.8</ele>
        <time>2021-08-05T12:56:11Z</time>
      </trkpt>
      <trkpt lat="47.54948" lon="-2.71799">
        <ele>27.8</ele>
        <time>2021-08-05T12:56:12Z</time>
      </trkpt>
      <trkpt lat="47.54944" lon="-2.71802">
        <ele>27.8</ele>
        <time>2021-08-05T12:56:13Z</time>
      </trkpt>
      <trkpt lat="47.54941" lon="-2.71804">
        <ele>27.8</ele>
        <time>2021-08-05T12:56:14Z</time>
      </trkpt>
      <trkpt lat="47.54938" lon="-2.71805">
        <ele>27.8</ele>
        <time>2021-08-05T12:56:15Z</time>
      </trkpt>
      <trkpt lat="47.54934" lon="-2.71807">
        <ele>27.8</ele>
        <time>2021-08-05T12:56:16Z</time>
      </trkpt>
      <trkpt lat="47.54931" lon="-2.71809">
        <ele>28</ele>
        <time>2021-08-05T12:56:17Z</time>
      </trkpt>
      <trkpt lat="47.54928" lon="-2.71811">
        <ele>28</ele>
        <time>2021-08-05T12:56:18Z</time>
      </trkpt>
      <trkpt lat="47.54925" lon="-2.71813">
        <ele>28</ele>
        <time>2021-08-05T12:56:19Z</time>
      </trkpt>
      <trkpt lat="47.54921" lon="-2.71816">
        <ele>28</ele>
        <time>2021-08-05T12:56:20Z</time>
      </trkpt>
      <trkpt lat="47.54918" lon="-2.71818">
        <ele>28</ele>
        <time>2021-08-05T12:56:21Z</time>
      </trkpt>
      <trkpt lat="47.54914" lon="-2.7182">
        <ele>28</ele>
        <time>2021-08-05T12:56:22Z</time>
      </trkpt>
      <trkpt lat="47.5491" lon="-2.71822">
        <ele>28</ele>
        <time>2021-08-05T12:56:23Z</time>
      </trkpt>
      <trkpt lat="47.54907" lon="-2.71824">
        <ele>28</ele>
        <time>2021-08-05T12:56:24Z</time>
      </trkpt>
      <trkpt lat="47.54903" lon="-2.71826">
        <ele>28</ele>
        <time>2021-08-05T12:56:25Z</time>
      </trkpt>
      <trkpt lat="47.549" lon="-2.71827">
        <ele>28</ele>
        <time>2021-08-05T12:56:26Z</time>
      </trkpt>
      <trkpt lat="47.54896" lon="-2.71829">
        <ele>28</ele>
        <time>2021-08-05T12:56:27Z</time>
      </trkpt>
      <trkpt lat="47.54893" lon="-2.71831">
        <ele>28.2</ele>
        <time>2021-08-05T12:56:28Z</time>
      </trkpt>
      <trkpt lat="47.5489" lon="-2.71833">
        <ele>28</ele>
        <time>2021-08-05T12:56:29Z</time>
      </trkpt>
      <trkpt lat="47.54887" lon="-2.71835">
        <ele>28</ele>
        <time>2021-08-05T12:56:30Z</time>
      </trkpt>
      <trkpt lat="47.54883" lon="-2.71837">
        <ele>28</ele>
        <time>2021-08-05T12:56:31Z</time>
      </trkpt>
      <trkpt lat="47.5488" lon="-2.71838">
        <ele>28</ele>
        <time>2021-08-05T12:56:32Z</time>
      </trkpt>
      <trkpt lat="47.54877" lon="-2.7184">
        <ele>28.2</ele>
        <time>2021-08-05T12:56:33Z</time>
      </trkpt>
      <trkpt lat="47.54874" lon="-2.71842">
        <ele>28.2</ele>
        <time>2021-08-05T12:56:34Z</time>
      </trkpt>
      <trkpt lat="47.54871" lon="-2.71843">
        <ele>28.4</ele>
        <time>2021-08-05T12:56:35Z</time>
      </trkpt>
      <trkpt lat="47.54868" lon="-2.71845">
        <ele>28.4</ele>
        <time>2021-08-05T12:56:36Z</time>
      </trkpt>
      <trkpt lat="47.54865" lon="-2.71846">
        <ele>28.4</ele>
        <time>2021-08-05T12:56:37Z</time>
      </trkpt>
      <trkpt lat="47.54862" lon="-2.71847">
        <ele>28.6</ele>
        <time>2021-08-05T12:56:38Z</time>
      </trkpt>
      <trkpt lat="47.54859" lon="-2.71849">
        <ele>28.6</ele>
        <time>2021-08-05T12:56:39Z</time>
      </trkpt>
      <trkpt lat="47.54856" lon="-2.7185">
        <ele>28.6</ele>
        <time>2021-08-05T12:56:40Z</time>
      </trkpt>
      <trkpt lat="47.54853" lon="-2.71852">
        <ele>28.6</ele>
        <time>2021-08-05T12:56:41Z</time>
      </trkpt>
      <trkpt lat="47.54849" lon="-2.71853">
        <ele>28.6</ele>
        <time>2021-08-05T12:56:42Z</time>
      </trkpt>
      <trkpt lat="47.54846" lon="-2.71854">
        <ele>28.6</ele>
        <time>2021-08-05T12:56:43Z</time>
      </trkpt>
      <trkpt lat="47.54843" lon="-2.71855">
        <ele>28.6</ele>
        <time>2021-08-05T12:56:44Z</time>
      </trkpt>
      <trkpt lat="47.5484" lon="-2.71856">
        <ele>28.6</ele>
        <time>2021-08-05T12:56:45Z</time>
      </trkpt>
      <trkpt lat="47.54837" lon="-2.71858">
        <ele>28.6</ele>
        <time>2021-08-05T12:56:46Z</time>
      </trkpt>
      <trkpt lat="47.54834" lon="-2.71859">
        <ele>28.6</ele>
        <time>2021-08-05T12:56:47Z</time>
      </trkpt>
      <trkpt lat="47.54832" lon="-2.7186">
        <ele>28.6</ele>
        <time>2021-08-05T12:56:48Z</time>
      </trkpt>
      <trkpt lat="47.54829" lon="-2.71861">
        <ele>28.8</ele>
        <time>2021-08-05T12:56:49Z</time>
      </trkpt>
      <trkpt lat="47.54826" lon="-2.71862">
        <ele>28.8</ele>
        <time>2021-08-05T12:56:50Z</time>
      </trkpt>
      <trkpt lat="47.54822" lon="-2.71863">
        <ele>28.8</ele>
        <time>2021-08-05T12:56:51Z</time>
      </trkpt>
      <trkpt lat="47.54819" lon="-2.71865">
        <ele>28.8</ele>
        <time>2021-08-05T12:56:52Z</time>
      </trkpt>
      <trkpt lat="47.54816" lon="-2.71867">
        <ele>29</ele>
        <time>2021-08-05T12:56:53Z</time>
      </trkpt>
      <trkpt lat="47.54813" lon="-2.71868">
        <ele>29</ele>
        <time>2021-08-05T12:56:54Z</time>
      </trkpt>
      <trkpt lat="47.5481" lon="-2.71869">
        <ele>29.2</ele>
        <time>2021-08-05T12:56:55Z</time>
      </trkpt>
      <trkpt lat="47.54806" lon="-2.7187">
        <ele>29.2</ele>
        <time>2021-08-05T12:56:56Z</time>
      </trkpt>
      <trkpt lat="47.54803" lon="-2.71871">
        <ele>29.2</ele>
        <time>2021-08-05T12:56:57Z</time>
      </trkpt>
      <trkpt lat="47.548" lon="-2.71872">
        <ele>29.4</ele>
        <time>2021-08-05T12:56:58Z</time>
      </trkpt>
      <trkpt lat="47.54796" lon="-2.71873">
        <ele>29.4</ele>
        <time>2021-08-05T12:56:59Z</time>
      </trkpt>
      <trkpt lat="47.54793" lon="-2.71875">
        <ele>29.4</ele>
        <time>2021-08-05T12:57:00Z</time>
      </trkpt>
      <trkpt lat="47.5479" lon="-2.71876">
        <ele>29.6</ele>
        <time>2021-08-05T12:57:01Z</time>
      </trkpt>
      <trkpt lat="47.54787" lon="-2.71877">
        <ele>29.8</ele>
        <time>2021-08-05T12:57:02Z</time>
      </trkpt>
      <trkpt lat="47.54784" lon="-2.71878">
        <ele>29.8</ele>
        <time>2021-08-05T12:57:03Z</time>
      </trkpt>
      <trkpt lat="47.54781" lon="-2.71879">
        <ele>29.8</ele>
        <time>2021-08-05T12:57:04Z</time>
      </trkpt>
      <trkpt lat="47.54778" lon="-2.7188">
        <ele>29.8</ele>
        <time>2021-08-05T12:57:05Z</time>
      </trkpt>
      <trkpt lat="47.54776" lon="-2.71881">
        <ele>29.8</ele>
        <time>2021-08-05T12:57:06Z</time>
      </trkpt>
      <trkpt lat="47.54773" lon="-2.71882">
        <ele>29.8</ele>
        <time>2021-08-05T12:57:07Z</time>
      </trkpt>
      <trkpt lat="47.5477" lon="-2.71883">
        <ele>29.8</ele>
        <time>2021-08-05T12:57:08Z</time>
      </trkpt>
      <trkpt lat="47.54768" lon="-2.71884">
        <ele>30</ele>
        <time>2021-08-05T12:57:09Z</time>
      </trkpt>
      <trkpt lat="47.54765" lon="-2.71885">
        <ele>30</ele>
        <time>2021-08-05T12:57:10Z</time>
      </trkpt>
      <trkpt lat="47.54762" lon="-2.71886">
        <ele>30</ele>
        <time>2021-08-05T12:57:11Z</time>
      </trkpt>
      <trkpt lat="47.54759" lon="-2.71887">
        <ele>30</ele>
        <time>2021-08-05T12:57:12Z</time>
      </trkpt>
      <trkpt lat="47.54756" lon="-2.71888">
        <ele>30</ele>
        <time>2021-08-05T12:57:13Z</time>
      </trkpt>
      <trkpt lat="47.54754" lon="-2.7189">
        <ele>30</ele>
        <time>2021-08-05T12:57:14Z</time>
      </trkpt>
      <trkpt lat="47.54751" lon="-2.71891">
        <ele>30</ele>
        <time>2021-08-05T12:57:15Z</time>
      </trkpt>
      <trkpt lat="47.54748" lon="-2.71892">
        <ele>30</ele>
        <time>2021-08-05T12:57:16Z</time>
      </trkpt>
      <trkpt lat="47.54746" lon="-2.71892">
        <ele>30</ele>
        <time>2021-08-05T12:57:17Z</time>
      </trkpt>
      <trkpt lat="47.54744" lon="-2.71892">
        <ele>30</ele>
        <time>2021-08-05T12:57:18Z</time>
      </trkpt>
      <trkpt lat="47.54741" lon="-2.71892">
        <ele>30</ele>
        <time>2021-08-05T12:57:19Z</time>
      </trkpt>
      <trkpt lat="47.54738" lon="-2.71891">
        <ele>30</ele>
        <time>2021-08-05T12:57:20Z</time>
      </trkpt>
      <trkpt lat="47.54735" lon="-2.71892">
        <ele>30</ele>
        <time>2021-08-05T12:57:21Z</time>
      </trkpt>
      <trkpt lat="47.54731" lon="-2.71893">
        <ele>30</ele>
        <time>2021-08-05T12:57:22Z</time>
      </trkpt>
      <trkpt lat="47.54728" lon="-2.71895">
        <ele>30</ele>
        <time>2021-08-05T12:57:23Z</time>
      </trkpt>
      <trkpt lat="47.54725" lon="-2.71898">
        <ele>30</ele>
        <time>2021-08-05T12:57:24Z</time>
      </trkpt>
      <trkpt lat="47.54721" lon="-2.719">
        <ele>30</ele>
        <time>2021-08-05T12:57:25Z</time>
      </trkpt>
      <trkpt lat="47.54718" lon="-2.71902">
        <ele>30</ele>
        <time>2021-08-05T12:57:26Z</time>
      </trkpt>
      <trkpt lat="47.54714" lon="-2.71904">
        <ele>30</ele>
        <time>2021-08-05T12:57:27Z</time>
      </trkpt>
      <trkpt lat="47.54711" lon="-2.71905">
        <ele>30</ele>
        <time>2021-08-05T12:57:28Z</time>
      </trkpt>
      <trkpt lat="47.54708" lon="-2.71907">
        <ele>30</ele>
        <time>2021-08-05T12:57:29Z</time>
      </trkpt>
      <trkpt lat="47.54705" lon="-2.71909">
        <ele>30</ele>
        <time>2021-08-05T12:57:30Z</time>
      </trkpt>
      <trkpt lat="47.54703" lon="-2.71911">
        <ele>30</ele>
        <time>2021-08-05T12:57:31Z</time>
      </trkpt>
      <trkpt lat="47.547" lon="-2.71913">
        <ele>30</ele>
        <time>2021-08-05T12:57:32Z</time>
      </trkpt>
      <trkpt lat="47.54698" lon="-2.71915">
        <ele>30</ele>
        <time>2021-08-05T12:57:33Z</time>
      </trkpt>
      <trkpt lat="47.54695" lon="-2.71917">
        <ele>30</ele>
        <time>2021-08-05T12:57:34Z</time>
      </trkpt>
      <trkpt lat="47.54692" lon="-2.71918">
        <ele>30</ele>
        <time>2021-08-05T12:57:35Z</time>
      </trkpt>
      <trkpt lat="47.5469" lon="-2.7192">
        <ele>30</ele>
        <time>2021-08-05T12:57:36Z</time>
      </trkpt>
      <trkpt lat="47.54687" lon="-2.71922">
        <ele>30</ele>
        <time>2021-08-05T12:57:37Z</time>
      </trkpt>
      <trkpt lat="47.54685" lon="-2.71924">
        <ele>30</ele>
        <time>2021-08-05T12:57:38Z</time>
      </trkpt>
      <trkpt lat="47.54683" lon="-2.71927">
        <ele>30</ele>
        <time>2021-08-05T12:57:39Z</time>
      </trkpt>
      <trkpt lat="47.54681" lon="-2.71928">
        <ele>30</ele>
        <time>2021-08-05T12:57:40Z</time>
      </trkpt>
      <trkpt lat="47.5468" lon="-2.7193">
        <ele>30</ele>
        <time>2021-08-05T12:57:41Z</time>
      </trkpt>
      <trkpt lat="47.54679" lon="-2.7193">
        <ele>30</ele>
        <time>2021-08-05T12:57:42Z</time>
      </trkpt>
      <trkpt lat="47.54678" lon="-2.71931">
        <ele>30</ele>
        <time>2021-08-05T12:57:43Z</time>
      </trkpt>
      <trkpt lat="47.54677" lon="-2.71931">
        <ele>30</ele>
        <time>2021-08-05T12:57:44Z</time>
      </trkpt>
      <trkpt lat="47.54677" lon="-2.71931">
        <ele>30</ele>
        <time>2021-08-05T12:57:45Z</time>
      </trkpt>
      <trkpt lat="47.54676" lon="-2.71932">
        <ele>30.2</ele>
        <time>2021-08-05T12:57:46Z</time>
      </trkpt>
      <trkpt lat="47.54676" lon="-2.71933">
        <ele>30.2</ele>
        <time>2021-08-05T12:57:47Z</time>
      </trkpt>
      <trkpt lat="47.54675" lon="-2.71934">
        <ele>30.2</ele>
        <time>2021-08-05T12:57:48Z</time>
      </trkpt>
      <trkpt lat="47.54676" lon="-2.71936">
        <ele>30.2</ele>
        <time>2021-08-05T12:57:49Z</time>
      </trkpt>
      <trkpt lat="47.54677" lon="-2.71938">
        <ele>30.2</ele>
        <time>2021-08-05T12:57:50Z</time>
      </trkpt>
      <trkpt lat="47.54679" lon="-2.71938">
        <ele>30.2</ele>
        <time>2021-08-05T12:57:51Z</time>
      </trkpt>
      <trkpt lat="47.5468" lon="-2.71938">
        <ele>30.4</ele>
        <time>2021-08-05T12:57:52Z</time>
      </trkpt>
      <trkpt lat="47.54682" lon="-2.71938">
        <ele>30.4</ele>
        <time>2021-08-05T12:57:53Z</time>
      </trkpt>
      <trkpt lat="47.54684" lon="-2.71937">
        <ele>30.4</ele>
        <time>2021-08-05T12:57:54Z</time>
      </trkpt>
      <trkpt lat="47.54686" lon="-2.71936">
        <ele>30.4</ele>
        <time>2021-08-05T12:57:55Z</time>
      </trkpt>
      <trkpt lat="47.54687" lon="-2.71934">
        <ele>30.4</ele>
        <time>2021-08-05T12:57:56Z</time>
      </trkpt>
      <trkpt lat="47.54689" lon="-2.71933">
        <ele>30.4</ele>
        <time>2021-08-05T12:57:57Z</time>
      </trkpt>
      <trkpt lat="47.54691" lon="-2.71932">
        <ele>30.4</ele>
        <time>2021-08-05T12:57:58Z</time>
      </trkpt>
      <trkpt lat="47.54692" lon="-2.71931">
        <ele>30.4</ele>
        <time>2021-08-05T12:57:59Z</time>
      </trkpt>
      <trkpt lat="47.54693" lon="-2.7193">
        <ele>30.4</ele>
        <time>2021-08-05T12:58:00Z</time>
      </trkpt>
      <trkpt lat="47.54695" lon="-2.71929">
        <ele>30.2</ele>
        <time>2021-08-05T12:58:01Z</time>
      </trkpt>
      <trkpt lat="47.54696" lon="-2.71928">
        <ele>30.2</ele>
        <time>2021-08-05T12:58:02Z</time>
      </trkpt>
      <trkpt lat="47.54698" lon="-2.71926">
        <ele>30</ele>
        <time>2021-08-05T12:58:03Z</time>
      </trkpt>
      <trkpt lat="47.547" lon="-2.71925">
        <ele>30</ele>
        <time>2021-08-05T12:58:04Z</time>
      </trkpt>
      <trkpt lat="47.54702" lon="-2.71924">
        <ele>30</ele>
        <time>2021-08-05T12:58:05Z</time>
      </trkpt>
      <trkpt lat="47.54704" lon="-2.71922">
        <ele>30</ele>
        <time>2021-08-05T12:58:06Z</time>
      </trkpt>
      <trkpt lat="47.54706" lon="-2.71921">
        <ele>30</ele>
        <time>2021-08-05T12:58:07Z</time>
      </trkpt>
      <trkpt lat="47.54708" lon="-2.71919">
        <ele>30</ele>
        <time>2021-08-05T12:58:08Z</time>
      </trkpt>
      <trkpt lat="47.54711" lon="-2.71918">
        <ele>30</ele>
        <time>2021-08-05T12:58:09Z</time>
      </trkpt>
      <trkpt lat="47.54713" lon="-2.71916">
        <ele>30</ele>
        <time>2021-08-05T12:58:10Z</time>
      </trkpt>
      <trkpt lat="47.54716" lon="-2.71914">
        <ele>30</ele>
        <time>2021-08-05T12:58:11Z</time>
      </trkpt>
      <trkpt lat="47.54718" lon="-2.71912">
        <ele>30</ele>
        <time>2021-08-05T12:58:12Z</time>
      </trkpt>
      <trkpt lat="47.54721" lon="-2.7191">
        <ele>30</ele>
        <time>2021-08-05T12:58:13Z</time>
      </trkpt>
      <trkpt lat="47.54723" lon="-2.71908">
        <ele>30</ele>
        <time>2021-08-05T12:58:14Z</time>
      </trkpt>
      <trkpt lat="47.54725" lon="-2.71907">
        <ele>30</ele>
        <time>2021-08-05T12:58:15Z</time>
      </trkpt>
      <trkpt lat="47.54727" lon="-2.71905">
        <ele>30.2</ele>
        <time>2021-08-05T12:58:16Z</time>
      </trkpt>
      <trkpt lat="47.5473" lon="-2.71904">
        <ele>30.2</ele>
        <time>2021-08-05T12:58:17Z</time>
      </trkpt>
      <trkpt lat="47.54732" lon="-2.71902">
        <ele>30.2</ele>
        <time>2021-08-05T12:58:18Z</time>
      </trkpt>
      <trkpt lat="47.54734" lon="-2.71901">
        <ele>30.2</ele>
        <time>2021-08-05T12:58:19Z</time>
      </trkpt>
      <trkpt lat="47.54737" lon="-2.71901">
        <ele>30.2</ele>
        <time>2021-08-05T12:58:20Z</time>
      </trkpt>
      <trkpt lat="47.54739" lon="-2.71902">
        <ele>30.4</ele>
        <time>2021-08-05T12:58:21Z</time>
      </trkpt>
      <trkpt lat="47.54741" lon="-2.71905">
        <ele>30.4</ele>
        <time>2021-08-05T12:58:22Z</time>
      </trkpt>
      <trkpt lat="47.54742" lon="-2.71908">
        <ele>30.6</ele>
        <time>2021-08-05T12:58:23Z</time>
      </trkpt>
      <trkpt lat="47.54743" lon="-2.71912">
        <ele>30.6</ele>
        <time>2021-08-05T12:58:24Z</time>
      </trkpt>
      <trkpt lat="47.54744" lon="-2.71915">
        <ele>30.8</ele>
        <time>2021-08-05T12:58:25Z</time>
      </trkpt>
      <trkpt lat="47.54745" lon="-2.71918">
        <ele>30.8</ele>
        <time>2021-08-05T12:58:26Z</time>
      </trkpt>
      <trkpt lat="47.54746" lon="-2.71921">
        <ele>30.8</ele>
        <time>2021-08-05T12:58:27Z</time>
      </trkpt>
      <trkpt lat="47.54747" lon="-2.71924">
        <ele>30.8</ele>
        <time>2021-08-05T12:58:28Z</time>
      </trkpt>
      <trkpt lat="47.54748" lon="-2.71927">
        <ele>31</ele>
        <time>2021-08-05T12:58:29Z</time>
      </trkpt>
      <trkpt lat="47.54749" lon="-2.7193">
        <ele>31</ele>
        <time>2021-08-05T12:58:30Z</time>
      </trkpt>
      <trkpt lat="47.5475" lon="-2.71934">
        <ele>31</ele>
        <time>2021-08-05T12:58:31Z</time>
      </trkpt>
      <trkpt lat="47.54751" lon="-2.71937">
        <ele>31</ele>
        <time>2021-08-05T12:58:32Z</time>
      </trkpt>
      <trkpt lat="47.54752" lon="-2.71941">
        <ele>31</ele>
        <time>2021-08-05T12:58:33Z</time>
      </trkpt>
      <trkpt lat="47.54754" lon="-2.71944">
        <ele>31</ele>
        <time>2021-08-05T12:58:34Z</time>
      </trkpt>
      <trkpt lat="47.54755" lon="-2.71948">
        <ele>31</ele>
        <time>2021-08-05T12:58:35Z</time>
      </trkpt>
      <trkpt lat="47.54756" lon="-2.71952">
        <ele>31.2</ele>
        <time>2021-08-05T12:58:36Z</time>
      </trkpt>
      <trkpt lat="47.54757" lon="-2.71956">
        <ele>31.2</ele>
        <time>2021-08-05T12:58:37Z</time>
      </trkpt>
      <trkpt lat="47.54758" lon="-2.7196">
        <ele>31.2</ele>
        <time>2021-08-05T12:58:38Z</time>
      </trkpt>
      <trkpt lat="47.5476" lon="-2.71964">
        <ele>31.2</ele>
        <time>2021-08-05T12:58:39Z</time>
      </trkpt>
      <trkpt lat="47.54761" lon="-2.71969">
        <ele>31.4</ele>
        <time>2021-08-05T12:58:40Z</time>
      </trkpt>
      <trkpt lat="47.54763" lon="-2.71973">
        <ele>31.4</ele>
        <time>2021-08-05T12:58:41Z</time>
      </trkpt>
      <trkpt lat="47.54765" lon="-2.71978">
        <ele>31.6</ele>
        <time>2021-08-05T12:58:42Z</time>
      </trkpt>
      <trkpt lat="47.54766" lon="-2.71983">
        <ele>31.6</ele>
        <time>2021-08-05T12:58:43Z</time>
      </trkpt>
      <trkpt lat="47.54768" lon="-2.71989">
        <ele>31.6</ele>
        <time>2021-08-05T12:58:44Z</time>
      </trkpt>
      <trkpt lat="47.5477" lon="-2.71995">
        <ele>31.8</ele>
        <time>2021-08-05T12:58:45Z</time>
      </trkpt>
      <trkpt lat="47.54771" lon="-2.72001">
        <ele>31.8</ele>
        <time>2021-08-05T12:58:46Z</time>
      </trkpt>
      <trkpt lat="47.54772" lon="-2.72007">
        <ele>31.8</ele>
        <time>2021-08-05T12:58:47Z</time>
      </trkpt>
      <trkpt lat="47.54771" lon="-2.72012">
        <ele>31.8</ele>
        <time>2021-08-05T12:58:48Z</time>
      </trkpt>
      <trkpt lat="47.5477" lon="-2.72018">
        <ele>32</ele>
        <time>2021-08-05T12:58:49Z</time>
      </trkpt>
      <trkpt lat="47.54768" lon="-2.72023">
        <ele>32</ele>
        <time>2021-08-05T12:58:50Z</time>
      </trkpt>
      <trkpt lat="47.54766" lon="-2.72029">
        <ele>32.2</ele>
        <time>2021-08-05T12:58:51Z</time>
      </trkpt>
      <trkpt lat="47.54764" lon="-2.72035">
        <ele>32.4</ele>
        <time>2021-08-05T12:58:52Z</time>
      </trkpt>
      <trkpt lat="47.54763" lon="-2.7204">
        <ele>32.6</ele>
        <time>2021-08-05T12:58:53Z</time>
      </trkpt>
      <trkpt lat="47.54761" lon="-2.72046">
        <ele>32.6</ele>
        <time>2021-08-05T12:58:54Z</time>
      </trkpt>
      <trkpt lat="47.54759" lon="-2.72052">
        <ele>32.8</ele>
        <time>2021-08-05T12:58:55Z</time>
      </trkpt>
      <trkpt lat="47.54757" lon="-2.72057">
        <ele>32.8</ele>
        <time>2021-08-05T12:58:56Z</time>
      </trkpt>
      <trkpt lat="47.54755" lon="-2.72062">
        <ele>32.8</ele>
        <time>2021-08-05T12:58:57Z</time>
      </trkpt>
      <trkpt lat="47.54753" lon="-2.72067">
        <ele>33</ele>
        <time>2021-08-05T12:58:58Z</time>
      </trkpt>
      <trkpt lat="47.5475" lon="-2.72071">
        <ele>33</ele>
        <time>2021-08-05T12:58:59Z</time>
      </trkpt>
      <trkpt lat="47.54746" lon="-2.72075">
        <ele>33.2</ele>
        <time>2021-08-05T12:59:00Z</time>
      </trkpt>
      <trkpt lat="47.54743" lon="-2.72079">
        <ele>33.2</ele>
        <time>2021-08-05T12:59:01Z</time>
      </trkpt>
      <trkpt lat="47.5474" lon="-2.72082">
        <ele>33.4</ele>
        <time>2021-08-05T12:59:02Z</time>
      </trkpt>
      <trkpt lat="47.54738" lon="-2.72086">
        <ele>33.4</ele>
        <time>2021-08-05T12:59:03Z</time>
      </trkpt>
      <trkpt lat="47.54736" lon="-2.72089">
        <ele>33.6</ele>
        <time>2021-08-05T12:59:04Z</time>
      </trkpt>
      <trkpt lat="47.54734" lon="-2.72092">
        <ele>33.6</ele>
        <time>2021-08-05T12:59:05Z</time>
      </trkpt>
      <trkpt lat="47.54732" lon="-2.72095">
        <ele>33.6</ele>
        <time>2021-08-05T12:59:06Z</time>
      </trkpt>
      <trkpt lat="47.54729" lon="-2.72098">
        <ele>33.6</ele>
        <time>2021-08-05T12:59:07Z</time>
      </trkpt>
      <trkpt lat="47.54727" lon="-2.72099">
        <ele>33.8</ele>
        <time>2021-08-05T12:59:08Z</time>
      </trkpt>
      <trkpt lat="47.54726" lon="-2.72101">
        <ele>33.8</ele>
        <time>2021-08-05T12:59:09Z</time>
      </trkpt>
      <trkpt lat="47.54725" lon="-2.72103">
        <ele>33.8</ele>
        <time>2021-08-05T12:59:10Z</time>
      </trkpt>
      <trkpt lat="47.54725" lon="-2.72105">
        <ele>34</ele>
        <time>2021-08-05T12:59:11Z</time>
      </trkpt>
      <trkpt lat="47.54726" lon="-2.72106">
        <ele>34</ele>
        <time>2021-08-05T12:59:12Z</time>
      </trkpt>
      <trkpt lat="47.54728" lon="-2.72105">
        <ele>34.2</ele>
        <time>2021-08-05T12:59:13Z</time>
      </trkpt>
      <trkpt lat="47.54729" lon="-2.72102">
        <ele>34.2</ele>
        <time>2021-08-05T12:59:14Z</time>
      </trkpt>
      <trkpt lat="47.54731" lon="-2.72099">
        <ele>34.2</ele>
        <time>2021-08-05T12:59:15Z</time>
      </trkpt>
      <trkpt lat="47.54733" lon="-2.72096">
        <ele>34.2</ele>
        <time>2021-08-05T12:59:16Z</time>
      </trkpt>
      <trkpt lat="47.54735" lon="-2.72092">
        <ele>34.4</ele>
        <time>2021-08-05T12:59:17Z</time>
      </trkpt>
      <trkpt lat="47.54737" lon="-2.72088">
        <ele>34.4</ele>
        <time>2021-08-05T12:59:18Z</time>
      </trkpt>
      <trkpt lat="47.54739" lon="-2.72084">
        <ele>34.4</ele>
        <time>2021-08-05T12:59:19Z</time>
      </trkpt>
      <trkpt lat="47.54741" lon="-2.7208">
        <ele>34.6</ele>
        <time>2021-08-05T12:59:20Z</time>
      </trkpt>
      <trkpt lat="47.54744" lon="-2.72077">
        <ele>34.6</ele>
        <time>2021-08-05T12:59:21Z</time>
      </trkpt>
      <trkpt lat="47.54745" lon="-2.72073">
        <ele>34.6</ele>
        <time>2021-08-05T12:59:22Z</time>
      </trkpt>
      <trkpt lat="47.54747" lon="-2.72069">
        <ele>34.6</ele>
        <time>2021-08-05T12:59:23Z</time>
      </trkpt>
      <trkpt lat="47.54748" lon="-2.72066">
        <ele>34.6</ele>
        <time>2021-08-05T12:59:24Z</time>
      </trkpt>
      <trkpt lat="47.5475" lon="-2.72066">
        <ele>34.6</ele>
        <time>2021-08-05T12:59:25Z</time>
      </trkpt>
      <trkpt lat="47.54751" lon="-2.72066">
        <ele>34.6</ele>
        <time>2021-08-05T12:59:26Z</time>
      </trkpt>
      <trkpt lat="47.54752" lon="-2.72065">
        <ele>34.6</ele>
        <time>2021-08-05T12:59:27Z</time>
      </trkpt>
      <trkpt lat="47.54753" lon="-2.72065">
        <ele>34.6</ele>
        <time>2021-08-05T12:59:28Z</time>
      </trkpt>
      <trkpt lat="47.54753" lon="-2.72065">
        <ele>29.4</ele>
        <time>2021-08-05T13:01:09Z</time>
      </trkpt>
      <trkpt lat="47.54752" lon="-2.72067">
        <ele>29.4</ele>
        <time>2021-08-05T13:01:10Z</time>
      </trkpt>
      <trkpt lat="47.54751" lon="-2.72069">
        <ele>29.4</ele>
        <time>2021-08-05T13:01:11Z</time>
      </trkpt>
      <trkpt lat="47.5475" lon="-2.72071">
        <ele>29.4</ele>
        <time>2021-08-05T13:01:12Z</time>
      </trkpt>
      <trkpt lat="47.54748" lon="-2.72073">
        <ele>29.4</ele>
        <time>2021-08-05T13:01:13Z</time>
      </trkpt>
      <trkpt lat="47.54746" lon="-2.72075">
        <ele>29.2</ele>
        <time>2021-08-05T13:01:14Z</time>
      </trkpt>
      <trkpt lat="47.54744" lon="-2.72078">
        <ele>29.2</ele>
        <time>2021-08-05T13:01:15Z</time>
      </trkpt>
      <trkpt lat="47.54743" lon="-2.7208">
        <ele>29.2</ele>
        <time>2021-08-05T13:01:16Z</time>
      </trkpt>
      <trkpt lat="47.54741" lon="-2.72083">
        <ele>29.2</ele>
        <time>2021-08-05T13:01:17Z</time>
      </trkpt>
      <trkpt lat="47.54738" lon="-2.72086">
        <ele>29.2</ele>
        <time>2021-08-05T13:01:18Z</time>
      </trkpt>
      <trkpt lat="47.54736" lon="-2.72088">
        <ele>29.2</ele>
        <time>2021-08-05T13:01:19Z</time>
      </trkpt>
      <trkpt lat="47.54734" lon="-2.72091">
        <ele>29.2</ele>
        <time>2021-08-05T13:01:20Z</time>
      </trkpt>
      <trkpt lat="47.54732" lon="-2.72094">
        <ele>29</ele>
        <time>2021-08-05T13:01:21Z</time>
      </trkpt>
      <trkpt lat="47.5473" lon="-2.72097">
        <ele>29</ele>
        <time>2021-08-05T13:01:22Z</time>
      </trkpt>
      <trkpt lat="47.54728" lon="-2.721">
        <ele>29</ele>
        <time>2021-08-05T13:01:23Z</time>
      </trkpt>
      <trkpt lat="47.54726" lon="-2.72103">
        <ele>28.8</ele>
        <time>2021-08-05T13:01:24Z</time>
      </trkpt>
      <trkpt lat="47.54724" lon="-2.72106">
        <ele>28.8</ele>
        <time>2021-08-05T13:01:25Z</time>
      </trkpt>
      <trkpt lat="47.54722" lon="-2.72109">
        <ele>28.8</ele>
        <time>2021-08-05T13:01:26Z</time>
      </trkpt>
      <trkpt lat="47.54721" lon="-2.72112">
        <ele>28.6</ele>
        <time>2021-08-05T13:01:27Z</time>
      </trkpt>
      <trkpt lat="47.54719" lon="-2.72115">
        <ele>28.6</ele>
        <time>2021-08-05T13:01:28Z</time>
      </trkpt>
      <trkpt lat="47.54717" lon="-2.72118">
        <ele>28.6</ele>
        <time>2021-08-05T13:01:29Z</time>
      </trkpt>
      <trkpt lat="47.54716" lon="-2.72121">
        <ele>28.6</ele>
        <time>2021-08-05T13:01:30Z</time>
      </trkpt>
      <trkpt lat="47.54714" lon="-2.72125">
        <ele>28.6</ele>
        <time>2021-08-05T13:01:31Z</time>
      </trkpt>
      <trkpt lat="47.54712" lon="-2.72127">
        <ele>28.6</ele>
        <time>2021-08-05T13:01:32Z</time>
      </trkpt>
      <trkpt lat="47.5471" lon="-2.7213">
        <ele>28.6</ele>
        <time>2021-08-05T13:01:33Z</time>
      </trkpt>
      <trkpt lat="47.54708" lon="-2.72132">
        <ele>28.6</ele>
        <time>2021-08-05T13:01:34Z</time>
      </trkpt>
      <trkpt lat="47.54705" lon="-2.72135">
        <ele>28.6</ele>
        <time>2021-08-05T13:01:35Z</time>
      </trkpt>
      <trkpt lat="47.54704" lon="-2.72138">
        <ele>28.6</ele>
        <time>2021-08-05T13:01:36Z</time>
      </trkpt>
      <trkpt lat="47.54702" lon="-2.72141">
        <ele>28.6</ele>
        <time>2021-08-05T13:01:37Z</time>
      </trkpt>
      <trkpt lat="47.54701" lon="-2.72145">
        <ele>28.6</ele>
        <time>2021-08-05T13:01:38Z</time>
      </trkpt>
      <trkpt lat="47.54699" lon="-2.72149">
        <ele>28.6</ele>
        <time>2021-08-05T13:01:39Z</time>
      </trkpt>
      <trkpt lat="47.54698" lon="-2.72153">
        <ele>28.8</ele>
        <time>2021-08-05T13:01:40Z</time>
      </trkpt>
      <trkpt lat="47.54697" lon="-2.72157">
        <ele>28.8</ele>
        <time>2021-08-05T13:01:41Z</time>
      </trkpt>
      <trkpt lat="47.54697" lon="-2.72161">
        <ele>29</ele>
        <time>2021-08-05T13:01:42Z</time>
      </trkpt>
      <trkpt lat="47.54696" lon="-2.72165">
        <ele>29</ele>
        <time>2021-08-05T13:01:43Z</time>
      </trkpt>
      <trkpt lat="47.54696" lon="-2.72168">
        <ele>29.2</ele>
        <time>2021-08-05T13:01:44Z</time>
      </trkpt>
      <trkpt lat="47.54696" lon="-2.72172">
        <ele>29.4</ele>
        <time>2021-08-05T13:01:45Z</time>
      </trkpt>
      <trkpt lat="47.54696" lon="-2.72175">
        <ele>29.4</ele>
        <time>2021-08-05T13:01:46Z</time>
      </trkpt>
      <trkpt lat="47.54696" lon="-2.72177">
        <ele>29.4</ele>
        <time>2021-08-05T13:01:47Z</time>
      </trkpt>
      <trkpt lat="47.54696" lon="-2.7218">
        <ele>29.4</ele>
        <time>2021-08-05T13:01:48Z</time>
      </trkpt>
      <trkpt lat="47.54696" lon="-2.72183">
        <ele>29.4</ele>
        <time>2021-08-05T13:01:49Z</time>
      </trkpt>
      <trkpt lat="47.54695" lon="-2.72186">
        <ele>29.4</ele>
        <time>2021-08-05T13:01:50Z</time>
      </trkpt>
      <trkpt lat="47.54695" lon="-2.72188">
        <ele>29.4</ele>
        <time>2021-08-05T13:01:51Z</time>
      </trkpt>
      <trkpt lat="47.54695" lon="-2.72191">
        <ele>29.6</ele>
        <time>2021-08-05T13:01:52Z</time>
      </trkpt>
      <trkpt lat="47.54695" lon="-2.72194">
        <ele>29.6</ele>
        <time>2021-08-05T13:01:53Z</time>
      </trkpt>
      <trkpt lat="47.54695" lon="-2.72197">
        <ele>29.6</ele>
        <time>2021-08-05T13:01:54Z</time>
      </trkpt>
      <trkpt lat="47.54695" lon="-2.722">
        <ele>29.6</ele>
        <time>2021-08-05T13:01:55Z</time>
      </trkpt>
      <trkpt lat="47.54695" lon="-2.72203">
        <ele>29.6</ele>
        <time>2021-08-05T13:01:56Z</time>
      </trkpt>
      <trkpt lat="47.54696" lon="-2.72205">
        <ele>29.6</ele>
        <time>2021-08-05T13:01:57Z</time>
      </trkpt>
      <trkpt lat="47.54696" lon="-2.72208">
        <ele>29.8</ele>
        <time>2021-08-05T13:01:58Z</time>
      </trkpt>
      <trkpt lat="47.54695" lon="-2.7221">
        <ele>29.8</ele>
        <time>2021-08-05T13:01:59Z</time>
      </trkpt>
      <trkpt lat="47.54694" lon="-2.72212">
        <ele>30</ele>
        <time>2021-08-05T13:02:00Z</time>
      </trkpt>
      <trkpt lat="47.54694" lon="-2.72215">
        <ele>30</ele>
        <time>2021-08-05T13:02:01Z</time>
      </trkpt>
      <trkpt lat="47.54693" lon="-2.72217">
        <ele>30</ele>
        <time>2021-08-05T13:02:02Z</time>
      </trkpt>
      <trkpt lat="47.54692" lon="-2.7222">
        <ele>30</ele>
        <time>2021-08-05T13:02:03Z</time>
      </trkpt>
      <trkpt lat="47.54691" lon="-2.72223">
        <ele>30</ele>
        <time>2021-08-05T13:02:04Z</time>
      </trkpt>
      <trkpt lat="47.5469" lon="-2.72226">
        <ele>30.2</ele>
        <time>2021-08-05T13:02:05Z</time>
      </trkpt>
      <trkpt lat="47.54689" lon="-2.72229">
        <ele>30.2</ele>
        <time>2021-08-05T13:02:06Z</time>
      </trkpt>
      <trkpt lat="47.54687" lon="-2.72232">
        <ele>30.2</ele>
        <time>2021-08-05T13:02:07Z</time>
      </trkpt>
      <trkpt lat="47.54685" lon="-2.72235">
        <ele>30.4</ele>
        <time>2021-08-05T13:02:08Z</time>
      </trkpt>
      <trkpt lat="47.54683" lon="-2.72238">
        <ele>30.4</ele>
        <time>2021-08-05T13:02:09Z</time>
      </trkpt>
      <trkpt lat="47.54681" lon="-2.72241">
        <ele>30.6</ele>
        <time>2021-08-05T13:02:10Z</time>
      </trkpt>
      <trkpt lat="47.54679" lon="-2.72244">
        <ele>30.6</ele>
        <time>2021-08-05T13:02:11Z</time>
      </trkpt>
      <trkpt lat="47.54677" lon="-2.72247">
        <ele>30.8</ele>
        <time>2021-08-05T13:02:12Z</time>
      </trkpt>
      <trkpt lat="47.54675" lon="-2.7225">
        <ele>31</ele>
        <time>2021-08-05T13:02:13Z</time>
      </trkpt>
      <trkpt lat="47.54673" lon="-2.72253">
        <ele>31</ele>
        <time>2021-08-05T13:02:14Z</time>
      </trkpt>
      <trkpt lat="47.54671" lon="-2.72256">
        <ele>31.2</ele>
        <time>2021-08-05T13:02:15Z</time>
      </trkpt>
      <trkpt lat="47.54669" lon="-2.7226">
        <ele>31.2</ele>
        <time>2021-08-05T13:02:16Z</time>
      </trkpt>
      <trkpt lat="47.54668" lon="-2.72264">
        <ele>31.2</ele>
        <time>2021-08-05T13:02:17Z</time>
      </trkpt>
      <trkpt lat="47.54666" lon="-2.72268">
        <ele>31.4</ele>
        <time>2021-08-05T13:02:18Z</time>
      </trkpt>
      <trkpt lat="47.54665" lon="-2.72272">
        <ele>31.4</ele>
        <time>2021-08-05T13:02:19Z</time>
      </trkpt>
      <trkpt lat="47.54663" lon="-2.72276">
        <ele>31.4</ele>
        <time>2021-08-05T13:02:20Z</time>
      </trkpt>
      <trkpt lat="47.54661" lon="-2.72279">
        <ele>31.6</ele>
        <time>2021-08-05T13:02:21Z</time>
      </trkpt>
      <trkpt lat="47.5466" lon="-2.72283">
        <ele>31.6</ele>
        <time>2021-08-05T13:02:22Z</time>
      </trkpt>
      <trkpt lat="47.54658" lon="-2.72287">
        <ele>31.8</ele>
        <time>2021-08-05T13:02:23Z</time>
      </trkpt>
      <trkpt lat="47.54657" lon="-2.7229">
        <ele>31.8</ele>
        <time>2021-08-05T13:02:24Z</time>
      </trkpt>
      <trkpt lat="47.54656" lon="-2.72294">
        <ele>32</ele>
        <time>2021-08-05T13:02:25Z</time>
      </trkpt>
      <trkpt lat="47.54656" lon="-2.72298">
        <ele>32.2</ele>
        <time>2021-08-05T13:02:26Z</time>
      </trkpt>
      <trkpt lat="47.54656" lon="-2.72302">
        <ele>32.2</ele>
        <time>2021-08-05T13:02:27Z</time>
      </trkpt>
      <trkpt lat="47.54657" lon="-2.72306">
        <ele>32.2</ele>
        <time>2021-08-05T13:02:28Z</time>
      </trkpt>
      <trkpt lat="47.54658" lon="-2.72309">
        <ele>32.4</ele>
        <time>2021-08-05T13:02:29Z</time>
      </trkpt>
      <trkpt lat="47.54659" lon="-2.72313">
        <ele>32.4</ele>
        <time>2021-08-05T13:02:30Z</time>
      </trkpt>
      <trkpt lat="47.5466" lon="-2.72317">
        <ele>32.6</ele>
        <time>2021-08-05T13:02:31Z</time>
      </trkpt>
      <trkpt lat="47.54661" lon="-2.72321">
        <ele>32.6</ele>
        <time>2021-08-05T13:02:32Z</time>
      </trkpt>
      <trkpt lat="47.54662" lon="-2.72325">
        <ele>32.6</ele>
        <time>2021-08-05T13:02:33Z</time>
      </trkpt>
      <trkpt lat="47.54663" lon="-2.7233">
        <ele>32.8</ele>
        <time>2021-08-05T13:02:34Z</time>
      </trkpt>
      <trkpt lat="47.54664" lon="-2.72334">
        <ele>32.8</ele>
        <time>2021-08-05T13:02:35Z</time>
      </trkpt>
      <trkpt lat="47.54665" lon="-2.72339">
        <ele>33</ele>
        <time>2021-08-05T13:02:36Z</time>
      </trkpt>
      <trkpt lat="47.54666" lon="-2.72343">
        <ele>33</ele>
        <time>2021-08-05T13:02:37Z</time>
      </trkpt>
      <trkpt lat="47.54666" lon="-2.72348">
        <ele>33.2</ele>
        <time>2021-08-05T13:02:38Z</time>
      </trkpt>
      <trkpt lat="47.54667" lon="-2.72353">
        <ele>33.2</ele>
        <time>2021-08-05T13:02:39Z</time>
      </trkpt>
      <trkpt lat="47.54668" lon="-2.72357">
        <ele>33.4</ele>
        <time>2021-08-05T13:02:40Z</time>
      </trkpt>
      <trkpt lat="47.5467" lon="-2.72362">
        <ele>33.4</ele>
        <time>2021-08-05T13:02:41Z</time>
      </trkpt>
      <trkpt lat="47.54671" lon="-2.72366">
        <ele>33.4</ele>
        <time>2021-08-05T13:02:42Z</time>
      </trkpt>
      <trkpt lat="47.54672" lon="-2.72371">
        <ele>33.4</ele>
        <time>2021-08-05T13:02:43Z</time>
      </trkpt>
      <trkpt lat="47.54673" lon="-2.72376">
        <ele>33.6</ele>
        <time>2021-08-05T13:02:44Z</time>
      </trkpt>
      <trkpt lat="47.54675" lon="-2.7238">
        <ele>33.6</ele>
        <time>2021-08-05T13:02:45Z</time>
      </trkpt>
      <trkpt lat="47.54677" lon="-2.72384">
        <ele>33.6</ele>
        <time>2021-08-05T13:02:46Z</time>
      </trkpt>
      <trkpt lat="47.54678" lon="-2.72389">
        <ele>33.8</ele>
        <time>2021-08-05T13:02:47Z</time>
      </trkpt>
      <trkpt lat="47.5468" lon="-2.72393">
        <ele>33.8</ele>
        <time>2021-08-05T13:02:48Z</time>
      </trkpt>
      <trkpt lat="47.54682" lon="-2.72398">
        <ele>34</ele>
        <time>2021-08-05T13:02:49Z</time>
      </trkpt>
      <trkpt lat="47.54684" lon="-2.72403">
        <ele>34.2</ele>
        <time>2021-08-05T13:02:50Z</time>
      </trkpt>
      <trkpt lat="47.54686" lon="-2.72408">
        <ele>34.2</ele>
        <time>2021-08-05T13:02:51Z</time>
      </trkpt>
      <trkpt lat="47.54687" lon="-2.72413">
        <ele>34.4</ele>
        <time>2021-08-05T13:02:52Z</time>
      </trkpt>
      <trkpt lat="47.54689" lon="-2.72418">
        <ele>34.4</ele>
        <time>2021-08-05T13:02:53Z</time>
      </trkpt>
      <trkpt lat="47.5469" lon="-2.72424">
        <ele>34.6</ele>
        <time>2021-08-05T13:02:54Z</time>
      </trkpt>
      <trkpt lat="47.54692" lon="-2.72429">
        <ele>34.6</ele>
        <time>2021-08-05T13:02:55Z</time>
      </trkpt>
      <trkpt lat="47.54694" lon="-2.72434">
        <ele>34.6</ele>
        <time>2021-08-05T13:02:56Z</time>
      </trkpt>
      <trkpt lat="47.54696" lon="-2.7244">
        <ele>34.8</ele>
        <time>2021-08-05T13:02:57Z</time>
      </trkpt>
      <trkpt lat="47.54698" lon="-2.72445">
        <ele>34.8</ele>
        <time>2021-08-05T13:02:58Z</time>
      </trkpt>
      <trkpt lat="47.54699" lon="-2.7245">
        <ele>34.8</ele>
        <time>2021-08-05T13:02:59Z</time>
      </trkpt>
      <trkpt lat="47.54701" lon="-2.72455">
        <ele>35</ele>
        <time>2021-08-05T13:03:00Z</time>
      </trkpt>
      <trkpt lat="47.54701" lon="-2.72458">
        <ele>35</ele>
        <time>2021-08-05T13:03:01Z</time>
      </trkpt>
      <trkpt lat="47.54701" lon="-2.72461">
        <ele>35</ele>
        <time>2021-08-05T13:03:02Z</time>
      </trkpt>
      <trkpt lat="47.54699" lon="-2.72463">
        <ele>35.2</ele>
        <time>2021-08-05T13:03:03Z</time>
      </trkpt>
      <trkpt lat="47.54697" lon="-2.72463">
        <ele>35.2</ele>
        <time>2021-08-05T13:03:04Z</time>
      </trkpt>
      <trkpt lat="47.54695" lon="-2.72462">
        <ele>35.4</ele>
        <time>2021-08-05T13:03:05Z</time>
      </trkpt>
      <trkpt lat="47.54693" lon="-2.72463">
        <ele>35.4</ele>
        <time>2021-08-05T13:03:06Z</time>
      </trkpt>
      <trkpt lat="47.54692" lon="-2.72464">
        <ele>35.6</ele>
        <time>2021-08-05T13:03:07Z</time>
      </trkpt>
      <trkpt lat="47.54691" lon="-2.72465">
        <ele>35.6</ele>
        <time>2021-08-05T13:03:08Z</time>
      </trkpt>
      <trkpt lat="47.54689" lon="-2.72466">
        <ele>35.8</ele>
        <time>2021-08-05T13:03:09Z</time>
      </trkpt>
      <trkpt lat="47.54688" lon="-2.72467">
        <ele>36</ele>
        <time>2021-08-05T13:03:10Z</time>
      </trkpt>
      <trkpt lat="47.54687" lon="-2.72468">
        <ele>36</ele>
        <time>2021-08-05T13:03:11Z</time>
      </trkpt>
      <trkpt lat="47.54685" lon="-2.7247">
        <ele>36.2</ele>
        <time>2021-08-05T13:03:12Z</time>
      </trkpt>
      <trkpt lat="47.54683" lon="-2.72471">
        <ele>36.2</ele>
        <time>2021-08-05T13:03:13Z</time>
      </trkpt>
      <trkpt lat="47.54682" lon="-2.72473">
        <ele>36.2</ele>
        <time>2021-08-05T13:03:14Z</time>
      </trkpt>
      <trkpt lat="47.5468" lon="-2.72475">
        <ele>36.2</ele>
        <time>2021-08-05T13:03:15Z</time>
      </trkpt>
      <trkpt lat="47.54677" lon="-2.72476">
        <ele>36.2</ele>
        <time>2021-08-05T13:03:16Z</time>
      </trkpt>
      <trkpt lat="47.54675" lon="-2.72478">
        <ele>36.2</ele>
        <time>2021-08-05T13:03:17Z</time>
      </trkpt>
      <trkpt lat="47.54673" lon="-2.7248">
        <ele>36.2</ele>
        <time>2021-08-05T13:03:18Z</time>
      </trkpt>
      <trkpt lat="47.54671" lon="-2.72483">
        <ele>36.4</ele>
        <time>2021-08-05T13:03:19Z</time>
      </trkpt>
      <trkpt lat="47.54669" lon="-2.72485">
        <ele>36.4</ele>
        <time>2021-08-05T13:03:20Z</time>
      </trkpt>
      <trkpt lat="47.54667" lon="-2.72488">
        <ele>36.4</ele>
        <time>2021-08-05T13:03:21Z</time>
      </trkpt>
      <trkpt lat="47.54665" lon="-2.72491">
        <ele>36.6</ele>
        <time>2021-08-05T13:03:22Z</time>
      </trkpt>
      <trkpt lat="47.54664" lon="-2.72494">
        <ele>36.6</ele>
        <time>2021-08-05T13:03:23Z</time>
      </trkpt>
      <trkpt lat="47.54662" lon="-2.72497">
        <ele>36.6</ele>
        <time>2021-08-05T13:03:24Z</time>
      </trkpt>
      <trkpt lat="47.5466" lon="-2.72501">
        <ele>36.6</ele>
        <time>2021-08-05T13:03:25Z</time>
      </trkpt>
      <trkpt lat="47.54658" lon="-2.72505">
        <ele>36.6</ele>
        <time>2021-08-05T13:03:26Z</time>
      </trkpt>
      <trkpt lat="47.54656" lon="-2.72509">
        <ele>36.6</ele>
        <time>2021-08-05T13:03:27Z</time>
      </trkpt>
      <trkpt lat="47.54654" lon="-2.72512">
        <ele>36.6</ele>
        <time>2021-08-05T13:03:28Z</time>
      </trkpt>
      <trkpt lat="47.54652" lon="-2.72516">
        <ele>36.6</ele>
        <time>2021-08-05T13:03:29Z</time>
      </trkpt>
      <trkpt lat="47.5465" lon="-2.72519">
        <ele>36.8</ele>
        <time>2021-08-05T13:03:30Z</time>
      </trkpt>
      <trkpt lat="47.54647" lon="-2.72524">
        <ele>36.8</ele>
        <time>2021-08-05T13:03:31Z</time>
      </trkpt>
      <trkpt lat="47.54645" lon="-2.72528">
        <ele>36.8</ele>
        <time>2021-08-05T13:03:32Z</time>
      </trkpt>
      <trkpt lat="47.54642" lon="-2.72532">
        <ele>36.8</ele>
        <time>2021-08-05T13:03:33Z</time>
      </trkpt>
      <trkpt lat="47.5464" lon="-2.72536">
        <ele>36.8</ele>
        <time>2021-08-05T13:03:34Z</time>
      </trkpt>
      <trkpt lat="47.54637" lon="-2.72539">
        <ele>36.8</ele>
        <time>2021-08-05T13:03:35Z</time>
      </trkpt>
      <trkpt lat="47.54634" lon="-2.72543">
        <ele>37</ele>
        <time>2021-08-05T13:03:36Z</time>
      </trkpt>
      <trkpt lat="47.54631" lon="-2.72546">
        <ele>37</ele>
        <time>2021-08-05T13:03:37Z</time>
      </trkpt>
      <trkpt lat="47.54627" lon="-2.72548">
        <ele>37.2</ele>
        <time>2021-08-05T13:03:38Z</time>
      </trkpt>
      <trkpt lat="47.54624" lon="-2.72551">
        <ele>37.4</ele>
        <time>2021-08-05T13:03:39Z</time>
      </trkpt>
      <trkpt lat="47.54622" lon="-2.72554">
        <ele>37.4</ele>
        <time>2021-08-05T13:03:40Z</time>
      </trkpt>
      <trkpt lat="47.54619" lon="-2.72558">
        <ele>37.4</ele>
        <time>2021-08-05T13:03:41Z</time>
      </trkpt>
      <trkpt lat="47.54617" lon="-2.72563">
        <ele>37.6</ele>
        <time>2021-08-05T13:03:42Z</time>
      </trkpt>
      <trkpt lat="47.54615" lon="-2.72568">
        <ele>37.6</ele>
        <time>2021-08-05T13:03:43Z</time>
      </trkpt>
      <trkpt lat="47.54612" lon="-2.72573">
        <ele>37.8</ele>
        <time>2021-08-05T13:03:44Z</time>
      </trkpt>
      <trkpt lat="47.5461" lon="-2.72578">
        <ele>37.8</ele>
        <time>2021-08-05T13:03:45Z</time>
      </trkpt>
      <trkpt lat="47.54608" lon="-2.72583">
        <ele>37.8</ele>
        <time>2021-08-05T13:03:46Z</time>
      </trkpt>
      <trkpt lat="47.54605" lon="-2.72588">
        <ele>37.8</ele>
        <time>2021-08-05T13:03:47Z</time>
      </trkpt>
      <trkpt lat="47.54602" lon="-2.72593">
        <ele>37.8</ele>
        <time>2021-08-05T13:03:48Z</time>
      </trkpt>
      <trkpt lat="47.54599" lon="-2.72597">
        <ele>37.8</ele>
        <time>2021-08-05T13:03:49Z</time>
      </trkpt>
      <trkpt lat="47.54595" lon="-2.72601">
        <ele>37.8</ele>
        <time>2021-08-05T13:03:50Z</time>
      </trkpt>
      <trkpt lat="47.54592" lon="-2.72605">
        <ele>37.8</ele>
        <time>2021-08-05T13:03:51Z</time>
      </trkpt>
      <trkpt lat="47.54589" lon="-2.72609">
        <ele>37.8</ele>
        <time>2021-08-05T13:03:52Z</time>
      </trkpt>
      <trkpt lat="47.54587" lon="-2.72612">
        <ele>37.8</ele>
        <time>2021-08-05T13:03:53Z</time>
      </trkpt>
      <trkpt lat="47.54585" lon="-2.72615">
        <ele>37.8</ele>
        <time>2021-08-05T13:03:54Z</time>
      </trkpt>
      <trkpt lat="47.54584" lon="-2.72617">
        <ele>37.8</ele>
        <time>2021-08-05T13:03:55Z</time>
      </trkpt>
      <trkpt lat="47.54582" lon="-2.72619">
        <ele>37.8</ele>
        <time>2021-08-05T13:03:56Z</time>
      </trkpt>
      <trkpt lat="47.5458" lon="-2.72621">
        <ele>37.8</ele>
        <time>2021-08-05T13:03:57Z</time>
      </trkpt>
      <trkpt lat="47.54577" lon="-2.72623">
        <ele>37.8</ele>
        <time>2021-08-05T13:03:58Z</time>
      </trkpt>
      <trkpt lat="47.54575" lon="-2.72625">
        <ele>37.8</ele>
        <time>2021-08-05T13:03:59Z</time>
      </trkpt>
      <trkpt lat="47.54572" lon="-2.72628">
        <ele>37.8</ele>
        <time>2021-08-05T13:04:00Z</time>
      </trkpt>
      <trkpt lat="47.54569" lon="-2.72631">
        <ele>37.8</ele>
        <time>2021-08-05T13:04:01Z</time>
      </trkpt>
      <trkpt lat="47.54565" lon="-2.72633">
        <ele>37.8</ele>
        <time>2021-08-05T13:04:02Z</time>
      </trkpt>
      <trkpt lat="47.54562" lon="-2.72637">
        <ele>38</ele>
        <time>2021-08-05T13:04:03Z</time>
      </trkpt>
      <trkpt lat="47.54558" lon="-2.7264">
        <ele>38</ele>
        <time>2021-08-05T13:04:04Z</time>
      </trkpt>
      <trkpt lat="47.54554" lon="-2.72644">
        <ele>38</ele>
        <time>2021-08-05T13:04:05Z</time>
      </trkpt>
      <trkpt lat="47.54549" lon="-2.72648">
        <ele>38</ele>
        <time>2021-08-05T13:04:06Z</time>
      </trkpt>
      <trkpt lat="47.54544" lon="-2.72652">
        <ele>38</ele>
        <time>2021-08-05T13:04:07Z</time>
      </trkpt>
      <trkpt lat="47.5454" lon="-2.72656">
        <ele>38</ele>
        <time>2021-08-05T13:04:08Z</time>
      </trkpt>
      <trkpt lat="47.54535" lon="-2.7266">
        <ele>38</ele>
        <time>2021-08-05T13:04:09Z</time>
      </trkpt>
      <trkpt lat="47.5453" lon="-2.72665">
        <ele>38</ele>
        <time>2021-08-05T13:04:10Z</time>
      </trkpt>
      <trkpt lat="47.54526" lon="-2.72669">
        <ele>38</ele>
        <time>2021-08-05T13:04:11Z</time>
      </trkpt>
      <trkpt lat="47.54521" lon="-2.72673">
        <ele>38</ele>
        <time>2021-08-05T13:04:12Z</time>
      </trkpt>
      <trkpt lat="47.54517" lon="-2.72678">
        <ele>38</ele>
        <time>2021-08-05T13:04:13Z</time>
      </trkpt>
      <trkpt lat="47.54513" lon="-2.72683">
        <ele>38</ele>
        <time>2021-08-05T13:04:14Z</time>
      </trkpt>
      <trkpt lat="47.5451" lon="-2.72688">
        <ele>38</ele>
        <time>2021-08-05T13:04:15Z</time>
      </trkpt>
      <trkpt lat="47.54507" lon="-2.72693">
        <ele>38</ele>
        <time>2021-08-05T13:04:16Z</time>
      </trkpt>
      <trkpt lat="47.54504" lon="-2.72699">
        <ele>38</ele>
        <time>2021-08-05T13:04:17Z</time>
      </trkpt>
      <trkpt lat="47.54501" lon="-2.72704">
        <ele>38</ele>
        <time>2021-08-05T13:04:18Z</time>
      </trkpt>
      <trkpt lat="47.54498" lon="-2.7271">
        <ele>38</ele>
        <time>2021-08-05T13:04:19Z</time>
      </trkpt>
      <trkpt lat="47.54496" lon="-2.72716">
        <ele>38</ele>
        <time>2021-08-05T13:04:20Z</time>
      </trkpt>
      <trkpt lat="47.54493" lon="-2.72721">
        <ele>38</ele>
        <time>2021-08-05T13:04:21Z</time>
      </trkpt>
      <trkpt lat="47.54491" lon="-2.72726">
        <ele>38</ele>
        <time>2021-08-05T13:04:22Z</time>
      </trkpt>
      <trkpt lat="47.5449" lon="-2.72731">
        <ele>38</ele>
        <time>2021-08-05T13:04:23Z</time>
      </trkpt>
      <trkpt lat="47.54488" lon="-2.72737">
        <ele>38</ele>
        <time>2021-08-05T13:04:24Z</time>
      </trkpt>
      <trkpt lat="47.54485" lon="-2.72742">
        <ele>38</ele>
        <time>2021-08-05T13:04:25Z</time>
      </trkpt>
      <trkpt lat="47.54483" lon="-2.72747">
        <ele>37.8</ele>
        <time>2021-08-05T13:04:26Z</time>
      </trkpt>
      <trkpt lat="47.54481" lon="-2.72753">
        <ele>37.8</ele>
        <time>2021-08-05T13:04:27Z</time>
      </trkpt>
      <trkpt lat="47.54479" lon="-2.72759">
        <ele>37.8</ele>
        <time>2021-08-05T13:04:28Z</time>
      </trkpt>
      <trkpt lat="47.54477" lon="-2.72764">
        <ele>37.8</ele>
        <time>2021-08-05T13:04:29Z</time>
      </trkpt>
      <trkpt lat="47.54474" lon="-2.7277">
        <ele>37.8</ele>
        <time>2021-08-05T13:04:30Z</time>
      </trkpt>
      <trkpt lat="47.54472" lon="-2.72776">
        <ele>37.6</ele>
        <time>2021-08-05T13:04:31Z</time>
      </trkpt>
      <trkpt lat="47.5447" lon="-2.72781">
        <ele>37.8</ele>
        <time>2021-08-05T13:04:32Z</time>
      </trkpt>
      <trkpt lat="47.54467" lon="-2.72787">
        <ele>37.8</ele>
        <time>2021-08-05T13:04:33Z</time>
      </trkpt>
      <trkpt lat="47.54464" lon="-2.72792">
        <ele>37.8</ele>
        <time>2021-08-05T13:04:34Z</time>
      </trkpt>
      <trkpt lat="47.54461" lon="-2.72797">
        <ele>37.8</ele>
        <time>2021-08-05T13:04:35Z</time>
      </trkpt>
      <trkpt lat="47.54457" lon="-2.72802">
        <ele>37.8</ele>
        <time>2021-08-05T13:04:36Z</time>
      </trkpt>
      <trkpt lat="47.54453" lon="-2.72807">
        <ele>37.8</ele>
        <time>2021-08-05T13:04:37Z</time>
      </trkpt>
      <trkpt lat="47.5445" lon="-2.72812">
        <ele>37.6</ele>
        <time>2021-08-05T13:04:38Z</time>
      </trkpt>
      <trkpt lat="47.54446" lon="-2.72817">
        <ele>37.6</ele>
        <time>2021-08-05T13:04:39Z</time>
      </trkpt>
      <trkpt lat="47.54442" lon="-2.72822">
        <ele>37.6</ele>
        <time>2021-08-05T13:04:40Z</time>
      </trkpt>
      <trkpt lat="47.54439" lon="-2.72827">
        <ele>37.6</ele>
        <time>2021-08-05T13:04:41Z</time>
      </trkpt>
      <trkpt lat="47.54435" lon="-2.72832">
        <ele>37.6</ele>
        <time>2021-08-05T13:04:42Z</time>
      </trkpt>
      <trkpt lat="47.54431" lon="-2.72836">
        <ele>37.4</ele>
        <time>2021-08-05T13:04:43Z</time>
      </trkpt>
      <trkpt lat="47.54427" lon="-2.72841">
        <ele>37.4</ele>
        <time>2021-08-05T13:04:44Z</time>
      </trkpt>
      <trkpt lat="47.54424" lon="-2.72846">
        <ele>37.4</ele>
        <time>2021-08-05T13:04:45Z</time>
      </trkpt>
      <trkpt lat="47.5442" lon="-2.7285">
        <ele>37.2</ele>
        <time>2021-08-05T13:04:46Z</time>
      </trkpt>
      <trkpt lat="47.54416" lon="-2.72855">
        <ele>37.2</ele>
        <time>2021-08-05T13:04:47Z</time>
      </trkpt>
      <trkpt lat="47.54412" lon="-2.72859">
        <ele>37.2</ele>
        <time>2021-08-05T13:04:48Z</time>
      </trkpt>
      <trkpt lat="47.54409" lon="-2.72864">
        <ele>37</ele>
        <time>2021-08-05T13:04:49Z</time>
      </trkpt>
      <trkpt lat="47.54405" lon="-2.72868">
        <ele>37.2</ele>
        <time>2021-08-05T13:04:50Z</time>
      </trkpt>
      <trkpt lat="47.54401" lon="-2.72872">
        <ele>37</ele>
        <time>2021-08-05T13:04:51Z</time>
      </trkpt>
      <trkpt lat="47.54397" lon="-2.72876">
        <ele>37</ele>
        <time>2021-08-05T13:04:52Z</time>
      </trkpt>
      <trkpt lat="47.54393" lon="-2.72881">
        <ele>36.8</ele>
        <time>2021-08-05T13:04:53Z</time>
      </trkpt>
      <trkpt lat="47.54389" lon="-2.72886">
        <ele>36.8</ele>
        <time>2021-08-05T13:04:54Z</time>
      </trkpt>
      <trkpt lat="47.54385" lon="-2.72891">
        <ele>36.6</ele>
        <time>2021-08-05T13:04:55Z</time>
      </trkpt>
      <trkpt lat="47.54381" lon="-2.72896">
        <ele>36.6</ele>
        <time>2021-08-05T13:04:56Z</time>
      </trkpt>
      <trkpt lat="47.54377" lon="-2.72902">
        <ele>36.4</ele>
        <time>2021-08-05T13:04:57Z</time>
      </trkpt>
      <trkpt lat="47.54373" lon="-2.72909">
        <ele>36.4</ele>
        <time>2021-08-05T13:04:58Z</time>
      </trkpt>
      <trkpt lat="47.54369" lon="-2.72916">
        <ele>36.4</ele>
        <time>2021-08-05T13:04:59Z</time>
      </trkpt>
      <trkpt lat="47.54366" lon="-2.72923">
        <ele>36.2</ele>
        <time>2021-08-05T13:05:00Z</time>
      </trkpt>
      <trkpt lat="47.54362" lon="-2.7293">
        <ele>36.2</ele>
        <time>2021-08-05T13:05:01Z</time>
      </trkpt>
      <trkpt lat="47.54359" lon="-2.72937">
        <ele>36</ele>
        <time>2021-08-05T13:05:02Z</time>
      </trkpt>
      <trkpt lat="47.54356" lon="-2.72945">
        <ele>36</ele>
        <time>2021-08-05T13:05:03Z</time>
      </trkpt>
      <trkpt lat="47.54353" lon="-2.72952">
        <ele>36</ele>
        <time>2021-08-05T13:05:04Z</time>
      </trkpt>
      <trkpt lat="47.5435" lon="-2.72959">
        <ele>36</ele>
        <time>2021-08-05T13:05:05Z</time>
      </trkpt>
      <trkpt lat="47.54348" lon="-2.72966">
        <ele>36</ele>
        <time>2021-08-05T13:05:06Z</time>
      </trkpt>
      <trkpt lat="47.54345" lon="-2.72974">
        <ele>35.6</ele>
        <time>2021-08-05T13:05:07Z</time>
      </trkpt>
      <trkpt lat="47.54343" lon="-2.72982">
        <ele>35.8</ele>
        <time>2021-08-05T13:05:08Z</time>
      </trkpt>
      <trkpt lat="47.5434" lon="-2.72989">
        <ele>35.6</ele>
        <time>2021-08-05T13:05:09Z</time>
      </trkpt>
      <trkpt lat="47.54336" lon="-2.72996">
        <ele>35.6</ele>
        <time>2021-08-05T13:05:10Z</time>
      </trkpt>
      <trkpt lat="47.54332" lon="-2.73003">
        <ele>35.4</ele>
        <time>2021-08-05T13:05:11Z</time>
      </trkpt>
      <trkpt lat="47.54328" lon="-2.73008">
        <ele>35.4</ele>
        <time>2021-08-05T13:05:12Z</time>
      </trkpt>
      <trkpt lat="47.54323" lon="-2.73013">
        <ele>35.2</ele>
        <time>2021-08-05T13:05:13Z</time>
      </trkpt>
      <trkpt lat="47.54318" lon="-2.73017">
        <ele>35</ele>
        <time>2021-08-05T13:05:14Z</time>
      </trkpt>
      <trkpt lat="47.54312" lon="-2.73021">
        <ele>34.8</ele>
        <time>2021-08-05T13:05:15Z</time>
      </trkpt>
      <trkpt lat="47.54307" lon="-2.73023">
        <ele>34.6</ele>
        <time>2021-08-05T13:05:16Z</time>
      </trkpt>
      <trkpt lat="47.54301" lon="-2.73024">
        <ele>34.4</ele>
        <time>2021-08-05T13:05:17Z</time>
      </trkpt>
      <trkpt lat="47.54296" lon="-2.73023">
        <ele>34.2</ele>
        <time>2021-08-05T13:05:18Z</time>
      </trkpt>
      <trkpt lat="47.54291" lon="-2.73022">
        <ele>33.8</ele>
        <time>2021-08-05T13:05:19Z</time>
      </trkpt>
      <trkpt lat="47.54286" lon="-2.73021">
        <ele>33.6</ele>
        <time>2021-08-05T13:05:20Z</time>
      </trkpt>
      <trkpt lat="47.54282" lon="-2.73019">
        <ele>33.2</ele>
        <time>2021-08-05T13:05:21Z</time>
      </trkpt>
      <trkpt lat="47.54277" lon="-2.73017">
        <ele>32.8</ele>
        <time>2021-08-05T13:05:22Z</time>
      </trkpt>
      <trkpt lat="47.54273" lon="-2.73015">
        <ele>32.6</ele>
        <time>2021-08-05T13:05:23Z</time>
      </trkpt>
      <trkpt lat="47.54269" lon="-2.73013">
        <ele>32.2</ele>
        <time>2021-08-05T13:05:24Z</time>
      </trkpt>
      <trkpt lat="47.54266" lon="-2.73012">
        <ele>32</ele>
        <time>2021-08-05T13:05:25Z</time>
      </trkpt>
      <trkpt lat="47.54263" lon="-2.7301">
        <ele>31.6</ele>
        <time>2021-08-05T13:05:26Z</time>
      </trkpt>
      <trkpt lat="47.5426" lon="-2.73008">
        <ele>31.2</ele>
        <time>2021-08-05T13:05:27Z</time>
      </trkpt>
      <trkpt lat="47.54258" lon="-2.73007">
        <ele>30.8</ele>
        <time>2021-08-05T13:05:28Z</time>
      </trkpt>
      <trkpt lat="47.54256" lon="-2.73005">
        <ele>30.4</ele>
        <time>2021-08-05T13:05:29Z</time>
      </trkpt>
      <trkpt lat="47.54254" lon="-2.73003">
        <ele>30.4</ele>
        <time>2021-08-05T13:05:30Z</time>
      </trkpt>
      <trkpt lat="47.54253" lon="-2.73002">
        <ele>30</ele>
        <time>2021-08-05T13:05:31Z</time>
      </trkpt>
      <trkpt lat="47.54251" lon="-2.73002">
        <ele>29.6</ele>
        <time>2021-08-05T13:05:32Z</time>
      </trkpt>
      <trkpt lat="47.54249" lon="-2.73002">
        <ele>29.4</ele>
        <time>2021-08-05T13:05:33Z</time>
      </trkpt>
      <trkpt lat="47.54247" lon="-2.73004">
        <ele>29</ele>
        <time>2021-08-05T13:05:34Z</time>
      </trkpt>
      <trkpt lat="47.54245" lon="-2.73005">
        <ele>28.8</ele>
        <time>2021-08-05T13:05:35Z</time>
      </trkpt>
      <trkpt lat="47.54244" lon="-2.73005">
        <ele>28.2</ele>
        <time>2021-08-05T13:05:36Z</time>
      </trkpt>
      <trkpt lat="47.54242" lon="-2.73004">
        <ele>28</ele>
        <time>2021-08-05T13:05:37Z</time>
      </trkpt>
      <trkpt lat="47.5424" lon="-2.73003">
        <ele>27.6</ele>
        <time>2021-08-05T13:05:38Z</time>
      </trkpt>
      <trkpt lat="47.54239" lon="-2.73003">
        <ele>27.4</ele>
        <time>2021-08-05T13:05:39Z</time>
      </trkpt>
      <trkpt lat="47.54237" lon="-2.73003">
        <ele>27</ele>
        <time>2021-08-05T13:05:40Z</time>
      </trkpt>
      <trkpt lat="47.54235" lon="-2.73003">
        <ele>26.6</ele>
        <time>2021-08-05T13:05:41Z</time>
      </trkpt>
      <trkpt lat="47.54234" lon="-2.73002">
        <ele>26.4</ele>
        <time>2021-08-05T13:05:42Z</time>
      </trkpt>
      <trkpt lat="47.54232" lon="-2.73002">
        <ele>26</ele>
        <time>2021-08-05T13:05:43Z</time>
      </trkpt>
      <trkpt lat="47.5423" lon="-2.73002">
        <ele>25.6</ele>
        <time>2021-08-05T13:05:44Z</time>
      </trkpt>
      <trkpt lat="47.54228" lon="-2.73002">
        <ele>25.4</ele>
        <time>2021-08-05T13:05:45Z</time>
      </trkpt>
      <trkpt lat="47.54226" lon="-2.73003">
        <ele>25</ele>
        <time>2021-08-05T13:05:46Z</time>
      </trkpt>
      <trkpt lat="47.54224" lon="-2.73004">
        <ele>24.6</ele>
        <time>2021-08-05T13:05:47Z</time>
      </trkpt>
      <trkpt lat="47.54222" lon="-2.73005">
        <ele>24.4</ele>
        <time>2021-08-05T13:05:48Z</time>
      </trkpt>
      <trkpt lat="47.5422" lon="-2.73007">
        <ele>24.2</ele>
        <time>2021-08-05T13:05:49Z</time>
      </trkpt>
      <trkpt lat="47.54219" lon="-2.73009">
        <ele>24</ele>
        <time>2021-08-05T13:05:50Z</time>
      </trkpt>
      <trkpt lat="47.54217" lon="-2.73011">
        <ele>23.6</ele>
        <time>2021-08-05T13:05:51Z</time>
      </trkpt>
      <trkpt lat="47.54215" lon="-2.73015">
        <ele>23.4</ele>
        <time>2021-08-05T13:05:52Z</time>
      </trkpt>
      <trkpt lat="47.54214" lon="-2.73019">
        <ele>23</ele>
        <time>2021-08-05T13:05:53Z</time>
      </trkpt>
      <trkpt lat="47.54213" lon="-2.73023">
        <ele>22.6</ele>
        <time>2021-08-05T13:05:54Z</time>
      </trkpt>
      <trkpt lat="47.54212" lon="-2.73027">
        <ele>22.2</ele>
        <time>2021-08-05T13:05:55Z</time>
      </trkpt>
      <trkpt lat="47.54211" lon="-2.73031">
        <ele>22</ele>
        <time>2021-08-05T13:05:56Z</time>
      </trkpt>
      <trkpt lat="47.5421" lon="-2.73036">
        <ele>21.6</ele>
        <time>2021-08-05T13:05:57Z</time>
      </trkpt>
      <trkpt lat="47.54208" lon="-2.7304">
        <ele>21.2</ele>
        <time>2021-08-05T13:05:58Z</time>
      </trkpt>
      <trkpt lat="47.54207" lon="-2.73044">
        <ele>21</ele>
        <time>2021-08-05T13:05:59Z</time>
      </trkpt>
      <trkpt lat="47.54205" lon="-2.73048">
        <ele>20.6</ele>
        <time>2021-08-05T13:06:00Z</time>
      </trkpt>
      <trkpt lat="47.54203" lon="-2.73053">
        <ele>20.2</ele>
        <time>2021-08-05T13:06:01Z</time>
      </trkpt>
      <trkpt lat="47.54201" lon="-2.73057">
        <ele>19.8</ele>
        <time>2021-08-05T13:06:02Z</time>
      </trkpt>
      <trkpt lat="47.542" lon="-2.73061">
        <ele>19.4</ele>
        <time>2021-08-05T13:06:03Z</time>
      </trkpt>
      <trkpt lat="47.54198" lon="-2.73065">
        <ele>18.8</ele>
        <time>2021-08-05T13:06:04Z</time>
      </trkpt>
      <trkpt lat="47.54196" lon="-2.73069">
        <ele>18.2</ele>
        <time>2021-08-05T13:06:05Z</time>
      </trkpt>
      <trkpt lat="47.54195" lon="-2.73074">
        <ele>17.8</ele>
        <time>2021-08-05T13:06:06Z</time>
      </trkpt>
      <trkpt lat="47.54193" lon="-2.73078">
        <ele>17.6</ele>
        <time>2021-08-05T13:06:07Z</time>
      </trkpt>
      <trkpt lat="47.54191" lon="-2.73083">
        <ele>17.2</ele>
        <time>2021-08-05T13:06:08Z</time>
      </trkpt>
      <trkpt lat="47.5419" lon="-2.73087">
        <ele>17</ele>
        <time>2021-08-05T13:06:09Z</time>
      </trkpt>
      <trkpt lat="47.54189" lon="-2.73092">
        <ele>16.6</ele>
        <time>2021-08-05T13:06:10Z</time>
      </trkpt>
      <trkpt lat="47.54187" lon="-2.73097">
        <ele>16.2</ele>
        <time>2021-08-05T13:06:11Z</time>
      </trkpt>
      <trkpt lat="47.54187" lon="-2.73102">
        <ele>16</ele>
        <time>2021-08-05T13:06:12Z</time>
      </trkpt>
      <trkpt lat="47.54186" lon="-2.73107">
        <ele>15.6</ele>
        <time>2021-08-05T13:06:13Z</time>
      </trkpt>
      <trkpt lat="47.54185" lon="-2.73112">
        <ele>15.4</ele>
        <time>2021-08-05T13:06:14Z</time>
      </trkpt>
      <trkpt lat="47.54184" lon="-2.73117">
        <ele>15</ele>
        <time>2021-08-05T13:06:15Z</time>
      </trkpt>
      <trkpt lat="47.54183" lon="-2.73122">
        <ele>14.8</ele>
        <time>2021-08-05T13:06:16Z</time>
      </trkpt>
      <trkpt lat="47.54183" lon="-2.73127">
        <ele>14.2</ele>
        <time>2021-08-05T13:06:17Z</time>
      </trkpt>
      <trkpt lat="47.54182" lon="-2.73132">
        <ele>14</ele>
        <time>2021-08-05T13:06:18Z</time>
      </trkpt>
      <trkpt lat="47.54181" lon="-2.73138">
        <ele>13.8</ele>
        <time>2021-08-05T13:06:19Z</time>
      </trkpt>
      <trkpt lat="47.5418" lon="-2.73143">
        <ele>13.4</ele>
        <time>2021-08-05T13:06:20Z</time>
      </trkpt>
      <trkpt lat="47.54179" lon="-2.73148">
        <ele>13.2</ele>
        <time>2021-08-05T13:06:21Z</time>
      </trkpt>
      <trkpt lat="47.54177" lon="-2.73153">
        <ele>13.2</ele>
        <time>2021-08-05T13:06:22Z</time>
      </trkpt>
      <trkpt lat="47.54176" lon="-2.73158">
        <ele>13</ele>
        <time>2021-08-05T13:06:23Z</time>
      </trkpt>
      <trkpt lat="47.54174" lon="-2.73163">
        <ele>12.8</ele>
        <time>2021-08-05T13:06:24Z</time>
      </trkpt>
      <trkpt lat="47.54172" lon="-2.73168">
        <ele>12.6</ele>
        <time>2021-08-05T13:06:25Z</time>
      </trkpt>
      <trkpt lat="47.54171" lon="-2.73173">
        <ele>12.4</ele>
        <time>2021-08-05T13:06:26Z</time>
      </trkpt>
      <trkpt lat="47.54169" lon="-2.73178">
        <ele>12.2</ele>
        <time>2021-08-05T13:06:27Z</time>
      </trkpt>
      <trkpt lat="47.54168" lon="-2.73183">
        <ele>12.2</ele>
        <time>2021-08-05T13:06:28Z</time>
      </trkpt>
      <trkpt lat="47.54166" lon="-2.73188">
        <ele>12</ele>
        <time>2021-08-05T13:06:29Z</time>
      </trkpt>
      <trkpt lat="47.54164" lon="-2.73193">
        <ele>11.8</ele>
        <time>2021-08-05T13:06:30Z</time>
      </trkpt>
      <trkpt lat="47.54163" lon="-2.73198">
        <ele>11.6</ele>
        <time>2021-08-05T13:06:31Z</time>
      </trkpt>
      <trkpt lat="47.54161" lon="-2.73203">
        <ele>11.4</ele>
        <time>2021-08-05T13:06:32Z</time>
      </trkpt>
      <trkpt lat="47.5416" lon="-2.73208">
        <ele>11.4</ele>
        <time>2021-08-05T13:06:33Z</time>
      </trkpt>
      <trkpt lat="47.54158" lon="-2.73213">
        <ele>11</ele>
        <time>2021-08-05T13:06:34Z</time>
      </trkpt>
      <trkpt lat="47.54156" lon="-2.73218">
        <ele>10.8</ele>
        <time>2021-08-05T13:06:35Z</time>
      </trkpt>
      <trkpt lat="47.54154" lon="-2.73222">
        <ele>10.8</ele>
        <time>2021-08-05T13:06:36Z</time>
      </trkpt>
      <trkpt lat="47.54151" lon="-2.73227">
        <ele>10.6</ele>
        <time>2021-08-05T13:06:37Z</time>
      </trkpt>
      <trkpt lat="47.54149" lon="-2.73231">
        <ele>10.4</ele>
        <time>2021-08-05T13:06:38Z</time>
      </trkpt>
      <trkpt lat="47.54146" lon="-2.73236">
        <ele>10.2</ele>
        <time>2021-08-05T13:06:39Z</time>
      </trkpt>
      <trkpt lat="47.54144" lon="-2.73241">
        <ele>10</ele>
        <time>2021-08-05T13:06:40Z</time>
      </trkpt>
      <trkpt lat="47.54142" lon="-2.73246">
        <ele>9.8</ele>
        <time>2021-08-05T13:06:41Z</time>
      </trkpt>
      <trkpt lat="47.5414" lon="-2.73251">
        <ele>9.8</ele>
        <time>2021-08-05T13:06:42Z</time>
      </trkpt>
      <trkpt lat="47.54139" lon="-2.73256">
        <ele>9.6</ele>
        <time>2021-08-05T13:06:43Z</time>
      </trkpt>
      <trkpt lat="47.54137" lon="-2.73262">
        <ele>9.6</ele>
        <time>2021-08-05T13:06:44Z</time>
      </trkpt>
      <trkpt lat="47.54136" lon="-2.73267">
        <ele>9.4</ele>
        <time>2021-08-05T13:06:45Z</time>
      </trkpt>
      <trkpt lat="47.54134" lon="-2.73272">
        <ele>9.2</ele>
        <time>2021-08-05T13:06:46Z</time>
      </trkpt>
      <trkpt lat="47.54133" lon="-2.73278">
        <ele>9</ele>
        <time>2021-08-05T13:06:47Z</time>
      </trkpt>
      <trkpt lat="47.54132" lon="-2.73283">
        <ele>8.8</ele>
        <time>2021-08-05T13:06:48Z</time>
      </trkpt>
      <trkpt lat="47.54131" lon="-2.73289">
        <ele>8.6</ele>
        <time>2021-08-05T13:06:49Z</time>
      </trkpt>
      <trkpt lat="47.5413" lon="-2.73294">
        <ele>8.4</ele>
        <time>2021-08-05T13:06:50Z</time>
      </trkpt>
      <trkpt lat="47.54129" lon="-2.733">
        <ele>8.4</ele>
        <time>2021-08-05T13:06:51Z</time>
      </trkpt>
      <trkpt lat="47.54128" lon="-2.73305">
        <ele>8.2</ele>
        <time>2021-08-05T13:06:52Z</time>
      </trkpt>
      <trkpt lat="47.54127" lon="-2.73311">
        <ele>8.2</ele>
        <time>2021-08-05T13:06:53Z</time>
      </trkpt>
      <trkpt lat="47.54126" lon="-2.73317">
        <ele>8</ele>
        <time>2021-08-05T13:06:54Z</time>
      </trkpt>
      <trkpt lat="47.54124" lon="-2.73323">
        <ele>8</ele>
        <time>2021-08-05T13:06:55Z</time>
      </trkpt>
      <trkpt lat="47.54123" lon="-2.73328">
        <ele>7.8</ele>
        <time>2021-08-05T13:06:56Z</time>
      </trkpt>
      <trkpt lat="47.54121" lon="-2.73334">
        <ele>7.6</ele>
        <time>2021-08-05T13:06:57Z</time>
      </trkpt>
      <trkpt lat="47.54119" lon="-2.7334">
        <ele>7.6</ele>
        <time>2021-08-05T13:06:58Z</time>
      </trkpt>
      <trkpt lat="47.54117" lon="-2.73346">
        <ele>7.4</ele>
        <time>2021-08-05T13:06:59Z</time>
      </trkpt>
      <trkpt lat="47.54115" lon="-2.73351">
        <ele>7.4</ele>
        <time>2021-08-05T13:07:00Z</time>
      </trkpt>
      <trkpt lat="47.54113" lon="-2.73357">
        <ele>7.2</ele>
        <time>2021-08-05T13:07:01Z</time>
      </trkpt>
      <trkpt lat="47.5411" lon="-2.73362">
        <ele>7.2</ele>
        <time>2021-08-05T13:07:02Z</time>
      </trkpt>
      <trkpt lat="47.54108" lon="-2.73368">
        <ele>7</ele>
        <time>2021-08-05T13:07:03Z</time>
      </trkpt>
      <trkpt lat="47.54106" lon="-2.73374">
        <ele>6.8</ele>
        <time>2021-08-05T13:07:04Z</time>
      </trkpt>
      <trkpt lat="47.54105" lon="-2.73379">
        <ele>6.6</ele>
        <time>2021-08-05T13:07:05Z</time>
      </trkpt>
      <trkpt lat="47.54103" lon="-2.73385">
        <ele>6.4</ele>
        <time>2021-08-05T13:07:06Z</time>
      </trkpt>
      <trkpt lat="47.54101" lon="-2.73391">
        <ele>6.2</ele>
        <time>2021-08-05T13:07:07Z</time>
      </trkpt>
      <trkpt lat="47.54099" lon="-2.73396">
        <ele>6</ele>
        <time>2021-08-05T13:07:08Z</time>
      </trkpt>
      <trkpt lat="47.54098" lon="-2.73402">
        <ele>5.8</ele>
        <time>2021-08-05T13:07:09Z</time>
      </trkpt>
      <trkpt lat="47.54096" lon="-2.73407">
        <ele>5.8</ele>
        <time>2021-08-05T13:07:10Z</time>
      </trkpt>
      <trkpt lat="47.54095" lon="-2.73413">
        <ele>5.6</ele>
        <time>2021-08-05T13:07:11Z</time>
      </trkpt>
      <trkpt lat="47.54093" lon="-2.73419">
        <ele>5.6</ele>
        <time>2021-08-05T13:07:12Z</time>
      </trkpt>
      <trkpt lat="47.54092" lon="-2.73425">
        <ele>5.4</ele>
        <time>2021-08-05T13:07:13Z</time>
      </trkpt>
      <trkpt lat="47.5409" lon="-2.73431">
        <ele>5.4</ele>
        <time>2021-08-05T13:07:14Z</time>
      </trkpt>
      <trkpt lat="47.54088" lon="-2.73436">
        <ele>5.2</ele>
        <time>2021-08-05T13:07:15Z</time>
      </trkpt>
      <trkpt lat="47.54087" lon="-2.73442">
        <ele>5</ele>
        <time>2021-08-05T13:07:16Z</time>
      </trkpt>
      <trkpt lat="47.54085" lon="-2.73447">
        <ele>5</ele>
        <time>2021-08-05T13:07:17Z</time>
      </trkpt>
      <trkpt lat="47.54084" lon="-2.73453">
        <ele>5</ele>
        <time>2021-08-05T13:07:18Z</time>
      </trkpt>
      <trkpt lat="47.54083" lon="-2.73458">
        <ele>4.8</ele>
        <time>2021-08-05T13:07:19Z</time>
      </trkpt>
      <trkpt lat="47.54081" lon="-2.73464">
        <ele>4.8</ele>
        <time>2021-08-05T13:07:20Z</time>
      </trkpt>
      <trkpt lat="47.5408" lon="-2.73469">
        <ele>4.6</ele>
        <time>2021-08-05T13:07:21Z</time>
      </trkpt>
      <trkpt lat="47.54079" lon="-2.73474">
        <ele>4.6</ele>
        <time>2021-08-05T13:07:22Z</time>
      </trkpt>
      <trkpt lat="47.54077" lon="-2.73478">
        <ele>4.4</ele>
        <time>2021-08-05T13:07:23Z</time>
      </trkpt>
      <trkpt lat="47.54076" lon="-2.73483">
        <ele>4.2</ele>
        <time>2021-08-05T13:07:24Z</time>
      </trkpt>
      <trkpt lat="47.54074" lon="-2.73488">
        <ele>4</ele>
        <time>2021-08-05T13:07:25Z</time>
      </trkpt>
      <trkpt lat="47.54073" lon="-2.73493">
        <ele>3.8</ele>
        <time>2021-08-05T13:07:26Z</time>
      </trkpt>
      <trkpt lat="47.54072" lon="-2.73498">
        <ele>3.8</ele>
        <time>2021-08-05T13:07:27Z</time>
      </trkpt>
      <trkpt lat="47.5407" lon="-2.73504">
        <ele>3.8</ele>
        <time>2021-08-05T13:07:28Z</time>
      </trkpt>
      <trkpt lat="47.54069" lon="-2.73509">
        <ele>3.6</ele>
        <time>2021-08-05T13:07:29Z</time>
      </trkpt>
      <trkpt lat="47.54068" lon="-2.73514">
        <ele>3.6</ele>
        <time>2021-08-05T13:07:30Z</time>
      </trkpt>
      <trkpt lat="47.54067" lon="-2.73519">
        <ele>3.4</ele>
        <time>2021-08-05T13:07:31Z</time>
      </trkpt>
      <trkpt lat="47.54066" lon="-2.73524">
        <ele>3.2</ele>
        <time>2021-08-05T13:07:32Z</time>
      </trkpt>
      <trkpt lat="47.54065" lon="-2.73529">
        <ele>3</ele>
        <time>2021-08-05T13:07:33Z</time>
      </trkpt>
      <trkpt lat="47.54064" lon="-2.73534">
        <ele>3</ele>
        <time>2021-08-05T13:07:34Z</time>
      </trkpt>
      <trkpt lat="47.54063" lon="-2.73538">
        <ele>3</ele>
        <time>2021-08-05T13:07:35Z</time>
      </trkpt>
      <trkpt lat="47.54062" lon="-2.73542">
        <ele>2.8</ele>
        <time>2021-08-05T13:07:36Z</time>
      </trkpt>
      <trkpt lat="47.54061" lon="-2.73546">
        <ele>2.8</ele>
        <time>2021-08-05T13:07:37Z</time>
      </trkpt>
      <trkpt lat="47.5406" lon="-2.73551">
        <ele>2.6</ele>
        <time>2021-08-05T13:07:38Z</time>
      </trkpt>
      <trkpt lat="47.54059" lon="-2.73555">
        <ele>2.6</ele>
        <time>2021-08-05T13:07:39Z</time>
      </trkpt>
      <trkpt lat="47.54059" lon="-2.73559">
        <ele>2.4</ele>
        <time>2021-08-05T13:07:40Z</time>
      </trkpt>
      <trkpt lat="47.54058" lon="-2.73562">
        <ele>2.4</ele>
        <time>2021-08-05T13:07:41Z</time>
      </trkpt>
      <trkpt lat="47.54057" lon="-2.73566">
        <ele>2.2</ele>
        <time>2021-08-05T13:07:42Z</time>
      </trkpt>
      <trkpt lat="47.54057" lon="-2.73569">
        <ele>2.2</ele>
        <time>2021-08-05T13:07:43Z</time>
      </trkpt>
      <trkpt lat="47.54057" lon="-2.73573">
        <ele>2</ele>
        <time>2021-08-05T13:07:44Z</time>
      </trkpt>
      <trkpt lat="47.54056" lon="-2.73576">
        <ele>1.8</ele>
        <time>2021-08-05T13:07:45Z</time>
      </trkpt>
      <trkpt lat="47.54055" lon="-2.7358">
        <ele>1.8</ele>
        <time>2021-08-05T13:07:46Z</time>
      </trkpt>
      <trkpt lat="47.54055" lon="-2.73583">
        <ele>1.6</ele>
        <time>2021-08-05T13:07:47Z</time>
      </trkpt>
      <trkpt lat="47.54055" lon="-2.73587">
        <ele>1.6</ele>
        <time>2021-08-05T13:07:48Z</time>
      </trkpt>
      <trkpt lat="47.54054" lon="-2.7359">
        <ele>1.4</ele>
        <time>2021-08-05T13:07:49Z</time>
      </trkpt>
      <trkpt lat="47.54054" lon="-2.73594">
        <ele>1.2</ele>
        <time>2021-08-05T13:07:50Z</time>
      </trkpt>
      <trkpt lat="47.54053" lon="-2.73597">
        <ele>1.2</ele>
        <time>2021-08-05T13:07:51Z</time>
      </trkpt>
      <trkpt lat="47.54053" lon="-2.736">
        <ele>1.2</ele>
        <time>2021-08-05T13:07:52Z</time>
      </trkpt>
      <trkpt lat="47.54052" lon="-2.73604">
        <ele>1</ele>
        <time>2021-08-05T13:07:53Z</time>
      </trkpt>
      <trkpt lat="47.54052" lon="-2.73607">
        <ele>1</ele>
        <time>2021-08-05T13:07:54Z</time>
      </trkpt>
      <trkpt lat="47.54051" lon="-2.7361">
        <ele>0.8</ele>
        <time>2021-08-05T13:07:55Z</time>
      </trkpt>
      <trkpt lat="47.54051" lon="-2.73614">
        <ele>0.8</ele>
        <time>2021-08-05T13:07:56Z</time>
      </trkpt>
      <trkpt lat="47.5405" lon="-2.73617">
        <ele>0.6</ele>
        <time>2021-08-05T13:07:57Z</time>
      </trkpt>
      <trkpt lat="47.54049" lon="-2.7362">
        <ele>0.4</ele>
        <time>2021-08-05T13:07:58Z</time>
      </trkpt>
      <trkpt lat="47.54049" lon="-2.73624">
        <ele>0.4</ele>
        <time>2021-08-05T13:07:59Z</time>
      </trkpt>
      <trkpt lat="47.54048" lon="-2.73628">
        <ele>0.2</ele>
        <time>2021-08-05T13:08:00Z</time>
      </trkpt>
      <trkpt lat="47.54048" lon="-2.73632">
        <ele>0.2</ele>
        <time>2021-08-05T13:08:01Z</time>
      </trkpt>
      <trkpt lat="47.54047" lon="-2.73637">
        <ele>-0.2</ele>
        <time>2021-08-05T13:08:02Z</time>
      </trkpt>
      <trkpt lat="47.54047" lon="-2.73641">
        <ele>-0.4</ele>
        <time>2021-08-05T13:08:03Z</time>
      </trkpt>
      <trkpt lat="47.54046" lon="-2.73646">
        <ele>-0.8</ele>
        <time>2021-08-05T13:08:04Z</time>
      </trkpt>
      <trkpt lat="47.54046" lon="-2.7365">
        <ele>-1</ele>
        <time>2021-08-05T13:08:05Z</time>
      </trkpt>
      <trkpt lat="47.54045" lon="-2.73653">
        <ele>-1.2</ele>
        <time>2021-08-05T13:08:06Z</time>
      </trkpt>
      <trkpt lat="47.54045" lon="-2.73657">
        <ele>-1.2</ele>
        <time>2021-08-05T13:08:07Z</time>
      </trkpt>
      <trkpt lat="47.54044" lon="-2.7366">
        <ele>-1.4</ele>
        <time>2021-08-05T13:08:08Z</time>
      </trkpt>
      <trkpt lat="47.54044" lon="-2.73664">
        <ele>-1.6</ele>
        <time>2021-08-05T13:08:09Z</time>
      </trkpt>
      <trkpt lat="47.54043" lon="-2.73668">
        <ele>-1.6</ele>
        <time>2021-08-05T13:08:10Z</time>
      </trkpt>
      <trkpt lat="47.54042" lon="-2.73671">
        <ele>-2</ele>
        <time>2021-08-05T13:08:11Z</time>
      </trkpt>
      <trkpt lat="47.54042" lon="-2.73675">
        <ele>-2.2</ele>
        <time>2021-08-05T13:08:12Z</time>
      </trkpt>
      <trkpt lat="47.54041" lon="-2.7368">
        <ele>-2.4</ele>
        <time>2021-08-05T13:08:13Z</time>
      </trkpt>
      <trkpt lat="47.54041" lon="-2.73684">
        <ele>-2.4</ele>
        <time>2021-08-05T13:08:14Z</time>
      </trkpt>
      <trkpt lat="47.54041" lon="-2.73688">
        <ele>-2.6</ele>
        <time>2021-08-05T13:08:15Z</time>
      </trkpt>
      <trkpt lat="47.5404" lon="-2.73692">
        <ele>-2.6</ele>
        <time>2021-08-05T13:08:16Z</time>
      </trkpt>
      <trkpt lat="47.5404" lon="-2.73696">
        <ele>-2.8</ele>
        <time>2021-08-05T13:08:17Z</time>
      </trkpt>
      <trkpt lat="47.54039" lon="-2.737">
        <ele>-2.8</ele>
        <time>2021-08-05T13:08:18Z</time>
      </trkpt>
      <trkpt lat="47.54038" lon="-2.73704">
        <ele>-3</ele>
        <time>2021-08-05T13:08:19Z</time>
      </trkpt>
      <trkpt lat="47.54037" lon="-2.73708">
        <ele>-3.2</ele>
        <time>2021-08-05T13:08:20Z</time>
      </trkpt>
      <trkpt lat="47.54036" lon="-2.73712">
        <ele>-3.4</ele>
        <time>2021-08-05T13:08:21Z</time>
      </trkpt>
      <trkpt lat="47.54035" lon="-2.73716">
        <ele>-3.6</ele>
        <time>2021-08-05T13:08:22Z</time>
      </trkpt>
      <trkpt lat="47.54034" lon="-2.7372">
        <ele>-3.6</ele>
        <time>2021-08-05T13:08:23Z</time>
      </trkpt>
      <trkpt lat="47.54032" lon="-2.73723">
        <ele>-3.6</ele>
        <time>2021-08-05T13:08:24Z</time>
      </trkpt>
      <trkpt lat="47.54031" lon="-2.73727">
        <ele>-3.8</ele>
        <time>2021-08-05T13:08:25Z</time>
      </trkpt>
      <trkpt lat="47.54029" lon="-2.73731">
        <ele>-4</ele>
        <time>2021-08-05T13:08:26Z</time>
      </trkpt>
      <trkpt lat="47.54028" lon="-2.73734">
        <ele>-4</ele>
        <time>2021-08-05T13:08:27Z</time>
      </trkpt>
      <trkpt lat="47.54026" lon="-2.73738">
        <ele>-4.2</ele>
        <time>2021-08-05T13:08:28Z</time>
      </trkpt>
      <trkpt lat="47.54025" lon="-2.73741">
        <ele>-4.2</ele>
        <time>2021-08-05T13:08:29Z</time>
      </trkpt>
      <trkpt lat="47.54024" lon="-2.73745">
        <ele>-4.4</ele>
        <time>2021-08-05T13:08:30Z</time>
      </trkpt>
      <trkpt lat="47.54023" lon="-2.73748">
        <ele>-4.6</ele>
        <time>2021-08-05T13:08:31Z</time>
      </trkpt>
      <trkpt lat="47.54021" lon="-2.73752">
        <ele>-4.8</ele>
        <time>2021-08-05T13:08:32Z</time>
      </trkpt>
      <trkpt lat="47.5402" lon="-2.73755">
        <ele>-4.8</ele>
        <time>2021-08-05T13:08:33Z</time>
      </trkpt>
      <trkpt lat="47.54019" lon="-2.73758">
        <ele>-5</ele>
        <time>2021-08-05T13:08:34Z</time>
      </trkpt>
      <trkpt lat="47.54018" lon="-2.73762">
        <ele>-5.2</ele>
        <time>2021-08-05T13:08:35Z</time>
      </trkpt>
      <trkpt lat="47.54017" lon="-2.73765">
        <ele>-5.4</ele>
        <time>2021-08-05T13:08:36Z</time>
      </trkpt>
      <trkpt lat="47.54016" lon="-2.73768">
        <ele>-5.8</ele>
        <time>2021-08-05T13:08:37Z</time>
      </trkpt>
      <trkpt lat="47.54015" lon="-2.73772">
        <ele>-5.8</ele>
        <time>2021-08-05T13:08:38Z</time>
      </trkpt>
      <trkpt lat="47.54015" lon="-2.73776">
        <ele>-6</ele>
        <time>2021-08-05T13:08:39Z</time>
      </trkpt>
      <trkpt lat="47.54014" lon="-2.73779">
        <ele>-6.2</ele>
        <time>2021-08-05T13:08:40Z</time>
      </trkpt>
      <trkpt lat="47.54013" lon="-2.73783">
        <ele>-6.4</ele>
        <time>2021-08-05T13:08:41Z</time>
      </trkpt>
      <trkpt lat="47.54013" lon="-2.73787">
        <ele>-6.6</ele>
        <time>2021-08-05T13:08:42Z</time>
      </trkpt>
      <trkpt lat="47.54012" lon="-2.7379">
        <ele>-6.8</ele>
        <time>2021-08-05T13:08:43Z</time>
      </trkpt>
      <trkpt lat="47.54011" lon="-2.73793">
        <ele>-6.8</ele>
        <time>2021-08-05T13:08:44Z</time>
      </trkpt>
      <trkpt lat="47.5401" lon="-2.73797">
        <ele>-7</ele>
        <time>2021-08-05T13:08:45Z</time>
      </trkpt>
      <trkpt lat="47.54008" lon="-2.73801">
        <ele>-7</ele>
        <time>2021-08-05T13:08:46Z</time>
      </trkpt>
      <trkpt lat="47.54007" lon="-2.73804">
        <ele>-7.2</ele>
        <time>2021-08-05T13:08:47Z</time>
      </trkpt>
      <trkpt lat="47.54006" lon="-2.73808">
        <ele>-7.4</ele>
        <time>2021-08-05T13:08:48Z</time>
      </trkpt>
      <trkpt lat="47.54004" lon="-2.73812">
        <ele>-7.4</ele>
        <time>2021-08-05T13:08:49Z</time>
      </trkpt>
      <trkpt lat="47.54003" lon="-2.73815">
        <ele>-7.4</ele>
        <time>2021-08-05T13:08:50Z</time>
      </trkpt>
      <trkpt lat="47.54001" lon="-2.73819">
        <ele>-7.4</ele>
        <time>2021-08-05T13:08:51Z</time>
      </trkpt>
      <trkpt lat="47.54" lon="-2.73822">
        <ele>-7.4</ele>
        <time>2021-08-05T13:08:52Z</time>
      </trkpt>
      <trkpt lat="47.53999" lon="-2.73825">
        <ele>-7.4</ele>
        <time>2021-08-05T13:08:53Z</time>
      </trkpt>
      <trkpt lat="47.53998" lon="-2.73828">
        <ele>-7.4</ele>
        <time>2021-08-05T13:08:54Z</time>
      </trkpt>
      <trkpt lat="47.53996" lon="-2.73831">
        <ele>-7.4</ele>
        <time>2021-08-05T13:08:55Z</time>
      </trkpt>
      <trkpt lat="47.53995" lon="-2.73833">
        <ele>-7.4</ele>
        <time>2021-08-05T13:08:56Z</time>
      </trkpt>
      <trkpt lat="47.53994" lon="-2.73837">
        <ele>-7.4</ele>
        <time>2021-08-05T13:08:57Z</time>
      </trkpt>
      <trkpt lat="47.53992" lon="-2.7384">
        <ele>-7.4</ele>
        <time>2021-08-05T13:08:58Z</time>
      </trkpt>
      <trkpt lat="47.53991" lon="-2.73843">
        <ele>-7.4</ele>
        <time>2021-08-05T13:08:59Z</time>
      </trkpt>
      <trkpt lat="47.53989" lon="-2.73846">
        <ele>-7.4</ele>
        <time>2021-08-05T13:09:00Z</time>
      </trkpt>
      <trkpt lat="47.53987" lon="-2.73849">
        <ele>-7.4</ele>
        <time>2021-08-05T13:09:01Z</time>
      </trkpt>
      <trkpt lat="47.53985" lon="-2.73852">
        <ele>-7.4</ele>
        <time>2021-08-05T13:09:02Z</time>
      </trkpt>
      <trkpt lat="47.53983" lon="-2.73855">
        <ele>-7.4</ele>
        <time>2021-08-05T13:09:03Z</time>
      </trkpt>
      <trkpt lat="47.53981" lon="-2.73858">
        <ele>-7.4</ele>
        <time>2021-08-05T13:09:04Z</time>
      </trkpt>
      <trkpt lat="47.53979" lon="-2.73861">
        <ele>-7.4</ele>
        <time>2021-08-05T13:09:05Z</time>
      </trkpt>
      <trkpt lat="47.53978" lon="-2.73863">
        <ele>-7.2</ele>
        <time>2021-08-05T13:09:06Z</time>
      </trkpt>
      <trkpt lat="47.53976" lon="-2.73866">
        <ele>-7.2</ele>
        <time>2021-08-05T13:09:07Z</time>
      </trkpt>
      <trkpt lat="47.53974" lon="-2.73869">
        <ele>-7.2</ele>
        <time>2021-08-05T13:09:08Z</time>
      </trkpt>
      <trkpt lat="47.53973" lon="-2.73872">
        <ele>-7.2</ele>
        <time>2021-08-05T13:09:09Z</time>
      </trkpt>
      <trkpt lat="47.53971" lon="-2.73874">
        <ele>-7</ele>
        <time>2021-08-05T13:09:10Z</time>
      </trkpt>
      <trkpt lat="47.5397" lon="-2.73877">
        <ele>-7</ele>
        <time>2021-08-05T13:09:11Z</time>
      </trkpt>
      <trkpt lat="47.53969" lon="-2.73878">
        <ele>-7</ele>
        <time>2021-08-05T13:09:12Z</time>
      </trkpt>
      <trkpt lat="47.53968" lon="-2.73881">
        <ele>-7</ele>
        <time>2021-08-05T13:09:13Z</time>
      </trkpt>
      <trkpt lat="47.53967" lon="-2.73882">
        <ele>-6.8</ele>
        <time>2021-08-05T13:09:14Z</time>
      </trkpt>
      <trkpt lat="47.53966" lon="-2.73885">
        <ele>-6.8</ele>
        <time>2021-08-05T13:09:15Z</time>
      </trkpt>
      <trkpt lat="47.53964" lon="-2.73887">
        <ele>-6.6</ele>
        <time>2021-08-05T13:09:16Z</time>
      </trkpt>
      <trkpt lat="47.53963" lon="-2.7389">
        <ele>-6.6</ele>
        <time>2021-08-05T13:09:17Z</time>
      </trkpt>
      <trkpt lat="47.53961" lon="-2.73892">
        <ele>-6.4</ele>
        <time>2021-08-05T13:09:18Z</time>
      </trkpt>
      <trkpt lat="47.5396" lon="-2.73895">
        <ele>-6.4</ele>
        <time>2021-08-05T13:09:19Z</time>
      </trkpt>
      <trkpt lat="47.53959" lon="-2.73898">
        <ele>-6</ele>
        <time>2021-08-05T13:09:20Z</time>
      </trkpt>
      <trkpt lat="47.53957" lon="-2.739">
        <ele>-6</ele>
        <time>2021-08-05T13:09:21Z</time>
      </trkpt>
      <trkpt lat="47.53956" lon="-2.73903">
        <ele>-6</ele>
        <time>2021-08-05T13:09:22Z</time>
      </trkpt>
      <trkpt lat="47.53955" lon="-2.73905">
        <ele>-5.8</ele>
        <time>2021-08-05T13:09:23Z</time>
      </trkpt>
      <trkpt lat="47.53954" lon="-2.73908">
        <ele>-5.6</ele>
        <time>2021-08-05T13:09:24Z</time>
      </trkpt>
      <trkpt lat="47.53953" lon="-2.73911">
        <ele>-5.6</ele>
        <time>2021-08-05T13:09:25Z</time>
      </trkpt>
      <trkpt lat="47.53951" lon="-2.73914">
        <ele>-5.4</ele>
        <time>2021-08-05T13:09:26Z</time>
      </trkpt>
      <trkpt lat="47.5395" lon="-2.73917">
        <ele>-5.2</ele>
        <time>2021-08-05T13:09:27Z</time>
      </trkpt>
      <trkpt lat="47.53949" lon="-2.7392">
        <ele>-5.2</ele>
        <time>2021-08-05T13:09:28Z</time>
      </trkpt>
      <trkpt lat="47.53948" lon="-2.73923">
        <ele>-4.8</ele>
        <time>2021-08-05T13:09:29Z</time>
      </trkpt>
      <trkpt lat="47.53947" lon="-2.73925">
        <ele>-4.6</ele>
        <time>2021-08-05T13:09:30Z</time>
      </trkpt>
      <trkpt lat="47.53945" lon="-2.73928">
        <ele>-4.4</ele>
        <time>2021-08-05T13:09:31Z</time>
      </trkpt>
      <trkpt lat="47.53944" lon="-2.73931">
        <ele>-4.4</ele>
        <time>2021-08-05T13:09:32Z</time>
      </trkpt>
      <trkpt lat="47.53942" lon="-2.73934">
        <ele>-4.4</ele>
        <time>2021-08-05T13:09:33Z</time>
      </trkpt>
      <trkpt lat="47.53941" lon="-2.73937">
        <ele>-4.2</ele>
        <time>2021-08-05T13:09:34Z</time>
      </trkpt>
      <trkpt lat="47.53939" lon="-2.7394">
        <ele>-4.2</ele>
        <time>2021-08-05T13:09:35Z</time>
      </trkpt>
      <trkpt lat="47.53937" lon="-2.73942">
        <ele>-4</ele>
        <time>2021-08-05T13:09:36Z</time>
      </trkpt>
      <trkpt lat="47.53935" lon="-2.73945">
        <ele>-3.8</ele>
        <time>2021-08-05T13:09:37Z</time>
      </trkpt>
      <trkpt lat="47.53934" lon="-2.73948">
        <ele>-3.6</ele>
        <time>2021-08-05T13:09:38Z</time>
      </trkpt>
      <trkpt lat="47.5393" lon="-2.73948">
        <ele>-3.4</ele>
        <time>2021-08-05T13:09:39Z</time>
      </trkpt>
      <trkpt lat="47.53928" lon="-2.7395">
        <ele>-3.4</ele>
        <time>2021-08-05T13:09:40Z</time>
      </trkpt>
      <trkpt lat="47.53926" lon="-2.7395">
        <ele>-3.2</ele>
        <time>2021-08-05T13:09:41Z</time>
      </trkpt>
      <trkpt lat="47.53924" lon="-2.73951">
        <ele>-3</ele>
        <time>2021-08-05T13:09:42Z</time>
      </trkpt>
      <trkpt lat="47.53922" lon="-2.73952">
        <ele>-2.8</ele>
        <time>2021-08-05T13:09:43Z</time>
      </trkpt>
      <trkpt lat="47.5392" lon="-2.73952">
        <ele>-2.6</ele>
        <time>2021-08-05T13:09:44Z</time>
      </trkpt>
      <trkpt lat="47.53919" lon="-2.73952">
        <ele>-2.6</ele>
        <time>2021-08-05T13:09:45Z</time>
      </trkpt>
      <trkpt lat="47.53918" lon="-2.73952">
        <ele>-2.4</ele>
        <time>2021-08-05T13:09:46Z</time>
      </trkpt>
      <trkpt lat="47.53916" lon="-2.73952">
        <ele>-2.4</ele>
        <time>2021-08-05T13:09:47Z</time>
      </trkpt>
      <trkpt lat="47.53914" lon="-2.73954">
        <ele>-2.2</ele>
        <time>2021-08-05T13:09:48Z</time>
      </trkpt>
      <trkpt lat="47.53913" lon="-2.73957">
        <ele>-2.2</ele>
        <time>2021-08-05T13:09:49Z</time>
      </trkpt>
      <trkpt lat="47.53912" lon="-2.7396">
        <ele>-2</ele>
        <time>2021-08-05T13:09:50Z</time>
      </trkpt>
      <trkpt lat="47.53912" lon="-2.73964">
        <ele>-2</ele>
        <time>2021-08-05T13:09:51Z</time>
      </trkpt>
      <trkpt lat="47.53912" lon="-2.73967">
        <ele>-1.8</ele>
        <time>2021-08-05T13:09:52Z</time>
      </trkpt>
      <trkpt lat="47.53912" lon="-2.73971">
        <ele>-2</ele>
        <time>2021-08-05T13:09:53Z</time>
      </trkpt>
      <trkpt lat="47.53912" lon="-2.73976">
        <ele>-2</ele>
        <time>2021-08-05T13:09:54Z</time>
      </trkpt>
      <trkpt lat="47.53912" lon="-2.73979">
        <ele>-2</ele>
        <time>2021-08-05T13:09:55Z</time>
      </trkpt>
      <trkpt lat="47.53912" lon="-2.73983">
        <ele>-1.8</ele>
        <time>2021-08-05T13:09:56Z</time>
      </trkpt>
      <trkpt lat="47.53913" lon="-2.73986">
        <ele>-1.8</ele>
        <time>2021-08-05T13:09:57Z</time>
      </trkpt>
      <trkpt lat="47.53914" lon="-2.73988">
        <ele>-1.8</ele>
        <time>2021-08-05T13:09:58Z</time>
      </trkpt>
      <trkpt lat="47.53915" lon="-2.73991">
        <ele>-1.8</ele>
        <time>2021-08-05T13:09:59Z</time>
      </trkpt>
      <trkpt lat="47.53916" lon="-2.73994">
        <ele>-1.8</ele>
        <time>2021-08-05T13:10:00Z</time>
      </trkpt>
      <trkpt lat="47.53916" lon="-2.73997">
        <ele>-1.8</ele>
        <time>2021-08-05T13:10:01Z</time>
      </trkpt>
      <trkpt lat="47.53917" lon="-2.74001">
        <ele>-1.8</ele>
        <time>2021-08-05T13:10:02Z</time>
      </trkpt>
      <trkpt lat="47.53918" lon="-2.74005">
        <ele>-1.8</ele>
        <time>2021-08-05T13:10:03Z</time>
      </trkpt>
      <trkpt lat="47.5392" lon="-2.74009">
        <ele>-1.8</ele>
        <time>2021-08-05T13:10:04Z</time>
      </trkpt>
      <trkpt lat="47.53922" lon="-2.74013">
        <ele>-1.8</ele>
        <time>2021-08-05T13:10:05Z</time>
      </trkpt>
      <trkpt lat="47.53924" lon="-2.74017">
        <ele>-1.8</ele>
        <time>2021-08-05T13:10:06Z</time>
      </trkpt>
      <trkpt lat="47.53926" lon="-2.74022">
        <ele>-1.8</ele>
        <time>2021-08-05T13:10:07Z</time>
      </trkpt>
      <trkpt lat="47.53929" lon="-2.74027">
        <ele>-1.8</ele>
        <time>2021-08-05T13:10:08Z</time>
      </trkpt>
      <trkpt lat="47.53931" lon="-2.74032">
        <ele>-2</ele>
        <time>2021-08-05T13:10:09Z</time>
      </trkpt>
      <trkpt lat="47.53933" lon="-2.74038">
        <ele>-2</ele>
        <time>2021-08-05T13:10:10Z</time>
      </trkpt>
      <trkpt lat="47.53935" lon="-2.74043">
        <ele>-2.2</ele>
        <time>2021-08-05T13:10:11Z</time>
      </trkpt>
      <trkpt lat="47.53938" lon="-2.74049">
        <ele>-2.4</ele>
        <time>2021-08-05T13:10:12Z</time>
      </trkpt>
      <trkpt lat="47.5394" lon="-2.74055">
        <ele>-2.4</ele>
        <time>2021-08-05T13:10:13Z</time>
      </trkpt>
      <trkpt lat="47.53943" lon="-2.74061">
        <ele>-2.4</ele>
        <time>2021-08-05T13:10:14Z</time>
      </trkpt>
      <trkpt lat="47.53945" lon="-2.74067">
        <ele>-2.4</ele>
        <time>2021-08-05T13:10:15Z</time>
      </trkpt>
      <trkpt lat="47.53947" lon="-2.74074">
        <ele>-2.4</ele>
        <time>2021-08-05T13:10:16Z</time>
      </trkpt>
      <trkpt lat="47.53949" lon="-2.74081">
        <ele>-2.4</ele>
        <time>2021-08-05T13:10:17Z</time>
      </trkpt>
      <trkpt lat="47.53951" lon="-2.74088">
        <ele>-2.4</ele>
        <time>2021-08-05T13:10:18Z</time>
      </trkpt>
      <trkpt lat="47.53953" lon="-2.74094">
        <ele>-2.4</ele>
        <time>2021-08-05T13:10:19Z</time>
      </trkpt>
      <trkpt lat="47.53954" lon="-2.74101">
        <ele>-2.4</ele>
        <time>2021-08-05T13:10:20Z</time>
      </trkpt>
      <trkpt lat="47.53955" lon="-2.74108">
        <ele>-2.4</ele>
        <time>2021-08-05T13:10:21Z</time>
      </trkpt>
      <trkpt lat="47.53956" lon="-2.74114">
        <ele>-2.4</ele>
        <time>2021-08-05T13:10:22Z</time>
      </trkpt>
      <trkpt lat="47.53956" lon="-2.7412">
        <ele>-2.4</ele>
        <time>2021-08-05T13:10:23Z</time>
      </trkpt>
      <trkpt lat="47.53956" lon="-2.74126">
        <ele>-2.4</ele>
        <time>2021-08-05T13:10:24Z</time>
      </trkpt>
      <trkpt lat="47.53957" lon="-2.74131">
        <ele>-2.4</ele>
        <time>2021-08-05T13:10:25Z</time>
      </trkpt>
      <trkpt lat="47.53957" lon="-2.74135">
        <ele>-2.4</ele>
        <time>2021-08-05T13:10:26Z</time>
      </trkpt>
      <trkpt lat="47.53957" lon="-2.74139">
        <ele>-2.4</ele>
        <time>2021-08-05T13:10:27Z</time>
      </trkpt>
      <trkpt lat="47.53957" lon="-2.74143">
        <ele>-2.4</ele>
        <time>2021-08-05T13:10:28Z</time>
      </trkpt>
      <trkpt lat="47.53957" lon="-2.74146">
        <ele>-2.4</ele>
        <time>2021-08-05T13:10:29Z</time>
      </trkpt>
      <trkpt lat="47.53957" lon="-2.74149">
        <ele>-2.4</ele>
        <time>2021-08-05T13:10:30Z</time>
      </trkpt>
      <trkpt lat="47.53956" lon="-2.74152">
        <ele>-2.4</ele>
        <time>2021-08-05T13:10:31Z</time>
      </trkpt>
      <trkpt lat="47.53956" lon="-2.74155">
        <ele>-2.4</ele>
        <time>2021-08-05T13:10:32Z</time>
      </trkpt>
      <trkpt lat="47.53956" lon="-2.74158">
        <ele>-2.4</ele>
        <time>2021-08-05T13:10:33Z</time>
      </trkpt>
      <trkpt lat="47.53956" lon="-2.74162">
        <ele>-2.6</ele>
        <time>2021-08-05T13:10:34Z</time>
      </trkpt>
      <trkpt lat="47.53956" lon="-2.74166">
        <ele>-2.6</ele>
        <time>2021-08-05T13:10:35Z</time>
      </trkpt>
      <trkpt lat="47.53956" lon="-2.74169">
        <ele>-2.6</ele>
        <time>2021-08-05T13:10:36Z</time>
      </trkpt>
      <trkpt lat="47.53956" lon="-2.74173">
        <ele>-2.6</ele>
        <time>2021-08-05T13:10:37Z</time>
      </trkpt>
      <trkpt lat="47.53956" lon="-2.74177">
        <ele>-2.6</ele>
        <time>2021-08-05T13:10:38Z</time>
      </trkpt>
      <trkpt lat="47.53956" lon="-2.7418">
        <ele>-2.6</ele>
        <time>2021-08-05T13:10:39Z</time>
      </trkpt>
      <trkpt lat="47.53955" lon="-2.74184">
        <ele>-2.8</ele>
        <time>2021-08-05T13:10:40Z</time>
      </trkpt>
      <trkpt lat="47.53956" lon="-2.74188">
        <ele>-3</ele>
        <time>2021-08-05T13:10:41Z</time>
      </trkpt>
      <trkpt lat="47.53956" lon="-2.74192">
        <ele>-3</ele>
        <time>2021-08-05T13:10:42Z</time>
      </trkpt>
      <trkpt lat="47.53955" lon="-2.74196">
        <ele>-3.2</ele>
        <time>2021-08-05T13:10:43Z</time>
      </trkpt>
      <trkpt lat="47.53955" lon="-2.742">
        <ele>-3.4</ele>
        <time>2021-08-05T13:10:44Z</time>
      </trkpt>
      <trkpt lat="47.53954" lon="-2.74204">
        <ele>-3.6</ele>
        <time>2021-08-05T13:10:45Z</time>
      </trkpt>
      <trkpt lat="47.53953" lon="-2.74208">
        <ele>-4.2</ele>
        <time>2021-08-05T13:10:46Z</time>
      </trkpt>
      <trkpt lat="47.53953" lon="-2.74213">
        <ele>-4.4</ele>
        <time>2021-08-05T13:10:47Z</time>
      </trkpt>
      <trkpt lat="47.53952" lon="-2.74217">
        <ele>-4.6</ele>
        <time>2021-08-05T13:10:48Z</time>
      </trkpt>
      <trkpt lat="47.53952" lon="-2.74222">
        <ele>-4.8</ele>
        <time>2021-08-05T13:10:49Z</time>
      </trkpt>
      <trkpt lat="47.53951" lon="-2.74226">
        <ele>-5</ele>
        <time>2021-08-05T13:10:50Z</time>
      </trkpt>
      <trkpt lat="47.53951" lon="-2.74231">
        <ele>-5</ele>
        <time>2021-08-05T13:10:51Z</time>
      </trkpt>
      <trkpt lat="47.53951" lon="-2.74235">
        <ele>-5.2</ele>
        <time>2021-08-05T13:10:52Z</time>
      </trkpt>
      <trkpt lat="47.53951" lon="-2.7424">
        <ele>-5.4</ele>
        <time>2021-08-05T13:10:53Z</time>
      </trkpt>
      <trkpt lat="47.5395" lon="-2.74244">
        <ele>-6</ele>
        <time>2021-08-05T13:10:54Z</time>
      </trkpt>
      <trkpt lat="47.5395" lon="-2.74248">
        <ele>-6.2</ele>
        <time>2021-08-05T13:10:55Z</time>
      </trkpt>
      <trkpt lat="47.5395" lon="-2.74252">
        <ele>-6.4</ele>
        <time>2021-08-05T13:10:56Z</time>
      </trkpt>
      <trkpt lat="47.53949" lon="-2.74256">
        <ele>-6.6</ele>
        <time>2021-08-05T13:10:57Z</time>
      </trkpt>
      <trkpt lat="47.53949" lon="-2.74259">
        <ele>-6.8</ele>
        <time>2021-08-05T13:10:58Z</time>
      </trkpt>
      <trkpt lat="47.53948" lon="-2.74263">
        <ele>-7</ele>
        <time>2021-08-05T13:10:59Z</time>
      </trkpt>
      <trkpt lat="47.53947" lon="-2.74267">
        <ele>-7.2</ele>
        <time>2021-08-05T13:11:00Z</time>
      </trkpt>
      <trkpt lat="47.53946" lon="-2.74271">
        <ele>-7.4</ele>
        <time>2021-08-05T13:11:01Z</time>
      </trkpt>
      <trkpt lat="47.53945" lon="-2.74275">
        <ele>-7.6</ele>
        <time>2021-08-05T13:11:02Z</time>
      </trkpt>
      <trkpt lat="47.53944" lon="-2.74279">
        <ele>-7.8</ele>
        <time>2021-08-05T13:11:03Z</time>
      </trkpt>
      <trkpt lat="47.53942" lon="-2.74282">
        <ele>-8</ele>
        <time>2021-08-05T13:11:04Z</time>
      </trkpt>
      <trkpt lat="47.5394" lon="-2.74284">
        <ele>-8.2</ele>
        <time>2021-08-05T13:11:05Z</time>
      </trkpt>
      <trkpt lat="47.53937" lon="-2.74286">
        <ele>-8.2</ele>
        <time>2021-08-05T13:11:06Z</time>
      </trkpt>
      <trkpt lat="47.53934" lon="-2.74286">
        <ele>-8.4</ele>
        <time>2021-08-05T13:11:07Z</time>
      </trkpt>
      <trkpt lat="47.53931" lon="-2.74287">
        <ele>-8.6</ele>
        <time>2021-08-05T13:11:08Z</time>
      </trkpt>
      <trkpt lat="47.53928" lon="-2.74286">
        <ele>-8.6</ele>
        <time>2021-08-05T13:11:09Z</time>
      </trkpt>
      <trkpt lat="47.53925" lon="-2.74286">
        <ele>-9</ele>
        <time>2021-08-05T13:11:10Z</time>
      </trkpt>
      <trkpt lat="47.53922" lon="-2.74285">
        <ele>-9.2</ele>
        <time>2021-08-05T13:11:11Z</time>
      </trkpt>
      <trkpt lat="47.53919" lon="-2.74285">
        <ele>-9.4</ele>
        <time>2021-08-05T13:11:12Z</time>
      </trkpt>
      <trkpt lat="47.53916" lon="-2.74284">
        <ele>-9.6</ele>
        <time>2021-08-05T13:11:13Z</time>
      </trkpt>
      <trkpt lat="47.53913" lon="-2.74284">
        <ele>-9.8</ele>
        <time>2021-08-05T13:11:14Z</time>
      </trkpt>
      <trkpt lat="47.53909" lon="-2.74283">
        <ele>-10</ele>
        <time>2021-08-05T13:11:15Z</time>
      </trkpt>
      <trkpt lat="47.53906" lon="-2.74283">
        <ele>-10</ele>
        <time>2021-08-05T13:11:16Z</time>
      </trkpt>
      <trkpt lat="47.53903" lon="-2.74282">
        <ele>-10.2</ele>
        <time>2021-08-05T13:11:17Z</time>
      </trkpt>
      <trkpt lat="47.539" lon="-2.74282">
        <ele>-10.4</ele>
        <time>2021-08-05T13:11:18Z</time>
      </trkpt>
      <trkpt lat="47.53897" lon="-2.74281">
        <ele>-10.4</ele>
        <time>2021-08-05T13:11:19Z</time>
      </trkpt>
      <trkpt lat="47.53894" lon="-2.74281">
        <ele>-10.6</ele>
        <time>2021-08-05T13:11:20Z</time>
      </trkpt>
      <trkpt lat="47.53891" lon="-2.7428">
        <ele>-10.6</ele>
        <time>2021-08-05T13:11:21Z</time>
      </trkpt>
      <trkpt lat="47.53887" lon="-2.7428">
        <ele>-10.8</ele>
        <time>2021-08-05T13:11:22Z</time>
      </trkpt>
      <trkpt lat="47.53884" lon="-2.74279">
        <ele>-10.8</ele>
        <time>2021-08-05T13:11:23Z</time>
      </trkpt>
      <trkpt lat="47.53881" lon="-2.74279">
        <ele>-10.8</ele>
        <time>2021-08-05T13:11:24Z</time>
      </trkpt>
      <trkpt lat="47.53878" lon="-2.74278">
        <ele>-11</ele>
        <time>2021-08-05T13:11:25Z</time>
      </trkpt>
      <trkpt lat="47.53875" lon="-2.74277">
        <ele>-11</ele>
        <time>2021-08-05T13:11:26Z</time>
      </trkpt>
      <trkpt lat="47.53872" lon="-2.74276">
        <ele>-11</ele>
        <time>2021-08-05T13:11:27Z</time>
      </trkpt>
      <trkpt lat="47.53869" lon="-2.74275">
        <ele>-11.2</ele>
        <time>2021-08-05T13:11:28Z</time>
      </trkpt>
      <trkpt lat="47.53866" lon="-2.74274">
        <ele>-11.2</ele>
        <time>2021-08-05T13:11:29Z</time>
      </trkpt>
      <trkpt lat="47.53863" lon="-2.74273">
        <ele>-11.6</ele>
        <time>2021-08-05T13:11:30Z</time>
      </trkpt>
      <trkpt lat="47.5386" lon="-2.74272">
        <ele>-11.8</ele>
        <time>2021-08-05T13:11:31Z</time>
      </trkpt>
      <trkpt lat="47.53857" lon="-2.74271">
        <ele>-12</ele>
        <time>2021-08-05T13:11:32Z</time>
      </trkpt>
      <trkpt lat="47.53854" lon="-2.7427">
        <ele>-12.2</ele>
        <time>2021-08-05T13:11:33Z</time>
      </trkpt>
      <trkpt lat="47.53851" lon="-2.74269">
        <ele>-12.4</ele>
        <time>2021-08-05T13:11:34Z</time>
      </trkpt>
      <trkpt lat="47.53848" lon="-2.74267">
        <ele>-12.6</ele>
        <time>2021-08-05T13:11:35Z</time>
      </trkpt>
      <trkpt lat="47.53845" lon="-2.74266">
        <ele>-12.8</ele>
        <time>2021-08-05T13:11:36Z</time>
      </trkpt>
      <trkpt lat="47.53842" lon="-2.74265">
        <ele>-12.8</ele>
        <time>2021-08-05T13:11:37Z</time>
      </trkpt>
      <trkpt lat="47.5384" lon="-2.74264">
        <ele>-13</ele>
        <time>2021-08-05T13:11:38Z</time>
      </trkpt>
      <trkpt lat="47.53838" lon="-2.74264">
        <ele>-13.2</ele>
        <time>2021-08-05T13:11:39Z</time>
      </trkpt>
      <trkpt lat="47.53836" lon="-2.74263">
        <ele>-13.4</ele>
        <time>2021-08-05T13:11:40Z</time>
      </trkpt>
      <trkpt lat="47.53835" lon="-2.74263">
        <ele>-13.6</ele>
        <time>2021-08-05T13:11:41Z</time>
      </trkpt>
      <trkpt lat="47.53834" lon="-2.74262">
        <ele>-13.8</ele>
        <time>2021-08-05T13:11:42Z</time>
      </trkpt>
      <trkpt lat="47.53833" lon="-2.74261">
        <ele>-14</ele>
        <time>2021-08-05T13:11:43Z</time>
      </trkpt>
      <trkpt lat="47.53832" lon="-2.74261">
        <ele>-14.2</ele>
        <time>2021-08-05T13:11:44Z</time>
      </trkpt>
      <trkpt lat="47.53831" lon="-2.7426">
        <ele>-14.2</ele>
        <time>2021-08-05T13:11:45Z</time>
      </trkpt>
      <trkpt lat="47.5383" lon="-2.7426">
        <ele>-14.6</ele>
        <time>2021-08-05T13:11:46Z</time>
      </trkpt>
      <trkpt lat="47.53829" lon="-2.7426">
        <ele>-14.8</ele>
        <time>2021-08-05T13:11:47Z</time>
      </trkpt>
      <trkpt lat="47.53828" lon="-2.7426">
        <ele>-15</ele>
        <time>2021-08-05T13:11:48Z</time>
      </trkpt>
      <trkpt lat="47.53827" lon="-2.74259">
        <ele>-15.2</ele>
        <time>2021-08-05T13:11:49Z</time>
      </trkpt>
      <trkpt lat="47.53818" lon="-2.74254">
        <ele>-23.4</ele>
        <time>2021-08-05T13:13:03Z</time>
      </trkpt>
      <trkpt lat="47.53816" lon="-2.74253">
        <ele>-23.6</ele>
        <time>2021-08-05T13:13:04Z</time>
      </trkpt>
      <trkpt lat="47.53814" lon="-2.74253">
        <ele>-23.6</ele>
        <time>2021-08-05T13:13:05Z</time>
      </trkpt>
      <trkpt lat="47.53812" lon="-2.74252">
        <ele>-23.6</ele>
        <time>2021-08-05T13:13:06Z</time>
      </trkpt>
      <trkpt lat="47.53809" lon="-2.74251">
        <ele>-23.8</ele>
        <time>2021-08-05T13:13:07Z</time>
      </trkpt>
      <trkpt lat="47.53807" lon="-2.74249">
        <ele>-23.8</ele>
        <time>2021-08-05T13:13:08Z</time>
      </trkpt>
      <trkpt lat="47.53804" lon="-2.74248">
        <ele>-24</ele>
        <time>2021-08-05T13:13:09Z</time>
      </trkpt>
      <trkpt lat="47.53802" lon="-2.74246">
        <ele>-24</ele>
        <time>2021-08-05T13:13:10Z</time>
      </trkpt>
      <trkpt lat="47.53799" lon="-2.74245">
        <ele>-24</ele>
        <time>2021-08-05T13:13:11Z</time>
      </trkpt>
      <trkpt lat="47.53796" lon="-2.74243">
        <ele>-24.2</ele>
        <time>2021-08-05T13:13:12Z</time>
      </trkpt>
      <trkpt lat="47.53794" lon="-2.7424">
        <ele>-24.4</ele>
        <time>2021-08-05T13:13:13Z</time>
      </trkpt>
      <trkpt lat="47.53792" lon="-2.74238">
        <ele>-24.4</ele>
        <time>2021-08-05T13:13:14Z</time>
      </trkpt>
      <trkpt lat="47.5379" lon="-2.74235">
        <ele>-24.6</ele>
        <time>2021-08-05T13:13:15Z</time>
      </trkpt>
      <trkpt lat="47.53788" lon="-2.74232">
        <ele>-24.6</ele>
        <time>2021-08-05T13:13:16Z</time>
      </trkpt>
      <trkpt lat="47.53786" lon="-2.74229">
        <ele>-24.8</ele>
        <time>2021-08-05T13:13:17Z</time>
      </trkpt>
      <trkpt lat="47.53784" lon="-2.74226">
        <ele>-25</ele>
        <time>2021-08-05T13:13:18Z</time>
      </trkpt>
      <trkpt lat="47.53782" lon="-2.74222">
        <ele>-25.2</ele>
        <time>2021-08-05T13:13:19Z</time>
      </trkpt>
      <trkpt lat="47.5378" lon="-2.74218">
        <ele>-25.2</ele>
        <time>2021-08-05T13:13:20Z</time>
      </trkpt>
      <trkpt lat="47.53778" lon="-2.74215">
        <ele>-25.4</ele>
        <time>2021-08-05T13:13:21Z</time>
      </trkpt>
      <trkpt lat="47.53775" lon="-2.74211">
        <ele>-25.4</ele>
        <time>2021-08-05T13:13:22Z</time>
      </trkpt>
      <trkpt lat="47.53773" lon="-2.74207">
        <ele>-25.4</ele>
        <time>2021-08-05T13:13:23Z</time>
      </trkpt>
      <trkpt lat="47.53771" lon="-2.74203">
        <ele>-25.6</ele>
        <time>2021-08-05T13:13:24Z</time>
      </trkpt>
      <trkpt lat="47.53768" lon="-2.742">
        <ele>-25.6</ele>
        <time>2021-08-05T13:13:25Z</time>
      </trkpt>
      <trkpt lat="47.53764" lon="-2.74199">
        <ele>-25.6</ele>
        <time>2021-08-05T13:13:26Z</time>
      </trkpt>
      <trkpt lat="47.5376" lon="-2.74198">
        <ele>-25.6</ele>
        <time>2021-08-05T13:13:27Z</time>
      </trkpt>
      <trkpt lat="47.53757" lon="-2.74198">
        <ele>-25.8</ele>
        <time>2021-08-05T13:13:28Z</time>
      </trkpt>
      <trkpt lat="47.53754" lon="-2.74198">
        <ele>-25.8</ele>
        <time>2021-08-05T13:13:29Z</time>
      </trkpt>
      <trkpt lat="47.53751" lon="-2.74198">
        <ele>-25.8</ele>
        <time>2021-08-05T13:13:30Z</time>
      </trkpt>
      <trkpt lat="47.53748" lon="-2.74199">
        <ele>-25.8</ele>
        <time>2021-08-05T13:13:31Z</time>
      </trkpt>
      <trkpt lat="47.53745" lon="-2.74199">
        <ele>-25.8</ele>
        <time>2021-08-05T13:13:32Z</time>
      </trkpt>
      <trkpt lat="47.53742" lon="-2.74199">
        <ele>-25.8</ele>
        <time>2021-08-05T13:13:33Z</time>
      </trkpt>
      <trkpt lat="47.5374" lon="-2.742">
        <ele>-25.8</ele>
        <time>2021-08-05T13:13:34Z</time>
      </trkpt>
      <trkpt lat="47.53738" lon="-2.742">
        <ele>-25.8</ele>
        <time>2021-08-05T13:13:35Z</time>
      </trkpt>
      <trkpt lat="47.53736" lon="-2.742">
        <ele>-25.8</ele>
        <time>2021-08-05T13:13:36Z</time>
      </trkpt>
      <trkpt lat="47.53734" lon="-2.74201">
        <ele>-26</ele>
        <time>2021-08-05T13:13:37Z</time>
      </trkpt>
      <trkpt lat="47.53732" lon="-2.74201">
        <ele>-26</ele>
        <time>2021-08-05T13:13:38Z</time>
      </trkpt>
      <trkpt lat="47.5373" lon="-2.74202">
        <ele>-26.2</ele>
        <time>2021-08-05T13:13:39Z</time>
      </trkpt>
      <trkpt lat="47.53728" lon="-2.74203">
        <ele>-26.2</ele>
        <time>2021-08-05T13:13:40Z</time>
      </trkpt>
      <trkpt lat="47.53726" lon="-2.74203">
        <ele>-26.2</ele>
        <time>2021-08-05T13:13:41Z</time>
      </trkpt>
      <trkpt lat="47.53724" lon="-2.74204">
        <ele>-26.2</ele>
        <time>2021-08-05T13:13:42Z</time>
      </trkpt>
      <trkpt lat="47.53722" lon="-2.74205">
        <ele>-26.2</ele>
        <time>2021-08-05T13:13:43Z</time>
      </trkpt>
      <trkpt lat="47.53721" lon="-2.74206">
        <ele>-26.4</ele>
        <time>2021-08-05T13:13:44Z</time>
      </trkpt>
      <trkpt lat="47.53719" lon="-2.74206">
        <ele>-26.6</ele>
        <time>2021-08-05T13:13:45Z</time>
      </trkpt>
      <trkpt lat="47.53717" lon="-2.74207">
        <ele>-26.6</ele>
        <time>2021-08-05T13:13:46Z</time>
      </trkpt>
      <trkpt lat="47.53716" lon="-2.74208">
        <ele>-26.6</ele>
        <time>2021-08-05T13:13:47Z</time>
      </trkpt>
      <trkpt lat="47.53714" lon="-2.74209">
        <ele>-26.6</ele>
        <time>2021-08-05T13:13:48Z</time>
      </trkpt>
      <trkpt lat="47.53712" lon="-2.7421">
        <ele>-26.6</ele>
        <time>2021-08-05T13:13:49Z</time>
      </trkpt>
      <trkpt lat="47.5371" lon="-2.74211">
        <ele>-26.6</ele>
        <time>2021-08-05T13:13:50Z</time>
      </trkpt>
      <trkpt lat="47.53709" lon="-2.74213">
        <ele>-26.6</ele>
        <time>2021-08-05T13:13:51Z</time>
      </trkpt>
      <trkpt lat="47.53707" lon="-2.74215">
        <ele>-26.6</ele>
        <time>2021-08-05T13:13:52Z</time>
      </trkpt>
      <trkpt lat="47.53706" lon="-2.74217">
        <ele>-26.6</ele>
        <time>2021-08-05T13:13:53Z</time>
      </trkpt>
      <trkpt lat="47.53704" lon="-2.74219">
        <ele>-26.6</ele>
        <time>2021-08-05T13:13:54Z</time>
      </trkpt>
      <trkpt lat="47.53703" lon="-2.74221">
        <ele>-26.6</ele>
        <time>2021-08-05T13:13:55Z</time>
      </trkpt>
      <trkpt lat="47.53701" lon="-2.74223">
        <ele>-26.6</ele>
        <time>2021-08-05T13:13:56Z</time>
      </trkpt>
      <trkpt lat="47.537" lon="-2.74225">
        <ele>-26.6</ele>
        <time>2021-08-05T13:13:57Z</time>
      </trkpt>
      <trkpt lat="47.53698" lon="-2.74228">
        <ele>-26.6</ele>
        <time>2021-08-05T13:13:58Z</time>
      </trkpt>
      <trkpt lat="47.53697" lon="-2.7423">
        <ele>-26.8</ele>
        <time>2021-08-05T13:13:59Z</time>
      </trkpt>
      <trkpt lat="47.53696" lon="-2.74233">
        <ele>-26.8</ele>
        <time>2021-08-05T13:14:00Z</time>
      </trkpt>
      <trkpt lat="47.53694" lon="-2.74236">
        <ele>-26.8</ele>
        <time>2021-08-05T13:14:01Z</time>
      </trkpt>
      <trkpt lat="47.53693" lon="-2.74238">
        <ele>-26.8</ele>
        <time>2021-08-05T13:14:02Z</time>
      </trkpt>
      <trkpt lat="47.53692" lon="-2.74241">
        <ele>-26.8</ele>
        <time>2021-08-05T13:14:03Z</time>
      </trkpt>
      <trkpt lat="47.53691" lon="-2.74244">
        <ele>-27</ele>
        <time>2021-08-05T13:14:04Z</time>
      </trkpt>
      <trkpt lat="47.53689" lon="-2.74247">
        <ele>-27</ele>
        <time>2021-08-05T13:14:05Z</time>
      </trkpt>
      <trkpt lat="47.53688" lon="-2.7425">
        <ele>-27</ele>
        <time>2021-08-05T13:14:06Z</time>
      </trkpt>
      <trkpt lat="47.53687" lon="-2.74253">
        <ele>-27</ele>
        <time>2021-08-05T13:14:07Z</time>
      </trkpt>
      <trkpt lat="47.53686" lon="-2.74256">
        <ele>-27.2</ele>
        <time>2021-08-05T13:14:08Z</time>
      </trkpt>
      <trkpt lat="47.53685" lon="-2.74259">
        <ele>-27.2</ele>
        <time>2021-08-05T13:14:09Z</time>
      </trkpt>
      <trkpt lat="47.53684" lon="-2.74262">
        <ele>-27.2</ele>
        <time>2021-08-05T13:14:10Z</time>
      </trkpt>
      <trkpt lat="47.53682" lon="-2.74265">
        <ele>-27.2</ele>
        <time>2021-08-05T13:14:11Z</time>
      </trkpt>
      <trkpt lat="47.53681" lon="-2.74269">
        <ele>-27.2</ele>
        <time>2021-08-05T13:14:12Z</time>
      </trkpt>
      <trkpt lat="47.5368" lon="-2.74272">
        <ele>-27.2</ele>
        <time>2021-08-05T13:14:13Z</time>
      </trkpt>
      <trkpt lat="47.53678" lon="-2.74275">
        <ele>-27.2</ele>
        <time>2021-08-05T13:14:14Z</time>
      </trkpt>
      <trkpt lat="47.53677" lon="-2.74279">
        <ele>-27.2</ele>
        <time>2021-08-05T13:14:15Z</time>
      </trkpt>
      <trkpt lat="47.53675" lon="-2.74282">
        <ele>-27.2</ele>
        <time>2021-08-05T13:14:16Z</time>
      </trkpt>
      <trkpt lat="47.53674" lon="-2.74286">
        <ele>-27.2</ele>
        <time>2021-08-05T13:14:17Z</time>
      </trkpt>
      <trkpt lat="47.53672" lon="-2.7429">
        <ele>-27.2</ele>
        <time>2021-08-05T13:14:18Z</time>
      </trkpt>
      <trkpt lat="47.53671" lon="-2.74293">
        <ele>-27.2</ele>
        <time>2021-08-05T13:14:19Z</time>
      </trkpt>
      <trkpt lat="47.53669" lon="-2.74297">
        <ele>-27.2</ele>
        <time>2021-08-05T13:14:20Z</time>
      </trkpt>
      <trkpt lat="47.53668" lon="-2.74301">
        <ele>-27.2</ele>
        <time>2021-08-05T13:14:21Z</time>
      </trkpt>
      <trkpt lat="47.53666" lon="-2.74305">
        <ele>-27.2</ele>
        <time>2021-08-05T13:14:22Z</time>
      </trkpt>
      <trkpt lat="47.53664" lon="-2.74308">
        <ele>-27.2</ele>
        <time>2021-08-05T13:14:23Z</time>
      </trkpt>
      <trkpt lat="47.53662" lon="-2.74312">
        <ele>-27.2</ele>
        <time>2021-08-05T13:14:24Z</time>
      </trkpt>
      <trkpt lat="47.53661" lon="-2.74316">
        <ele>-27.2</ele>
        <time>2021-08-05T13:14:25Z</time>
      </trkpt>
      <trkpt lat="47.53659" lon="-2.74321">
        <ele>-27.2</ele>
        <time>2021-08-05T13:14:26Z</time>
      </trkpt>
      <trkpt lat="47.53657" lon="-2.74325">
        <ele>-27.2</ele>
        <time>2021-08-05T13:14:27Z</time>
      </trkpt>
      <trkpt lat="47.53655" lon="-2.7433">
        <ele>-27.2</ele>
        <time>2021-08-05T13:14:28Z</time>
      </trkpt>
      <trkpt lat="47.53653" lon="-2.74335">
        <ele>-27.2</ele>
        <time>2021-08-05T13:14:29Z</time>
      </trkpt>
      <trkpt lat="47.53651" lon="-2.7434">
        <ele>-27.2</ele>
        <time>2021-08-05T13:14:30Z</time>
      </trkpt>
      <trkpt lat="47.53649" lon="-2.74346">
        <ele>-27.4</ele>
        <time>2021-08-05T13:14:31Z</time>
      </trkpt>
      <trkpt lat="47.53648" lon="-2.74352">
        <ele>-27.4</ele>
        <time>2021-08-05T13:14:32Z</time>
      </trkpt>
      <trkpt lat="47.53647" lon="-2.74357">
        <ele>-27.4</ele>
        <time>2021-08-05T13:14:33Z</time>
      </trkpt>
      <trkpt lat="47.53646" lon="-2.74362">
        <ele>-27.4</ele>
        <time>2021-08-05T13:14:34Z</time>
      </trkpt>
      <trkpt lat="47.53646" lon="-2.74366">
        <ele>-27.6</ele>
        <time>2021-08-05T13:14:35Z</time>
      </trkpt>
      <trkpt lat="47.53646" lon="-2.74371">
        <ele>-27.6</ele>
        <time>2021-08-05T13:14:36Z</time>
      </trkpt>
      <trkpt lat="47.53646" lon="-2.74376">
        <ele>-27.6</ele>
        <time>2021-08-05T13:14:37Z</time>
      </trkpt>
      <trkpt lat="47.53646" lon="-2.74381">
        <ele>-27.6</ele>
        <time>2021-08-05T13:14:38Z</time>
      </trkpt>
      <trkpt lat="47.53646" lon="-2.74386">
        <ele>-27.6</ele>
        <time>2021-08-05T13:14:39Z</time>
      </trkpt>
      <trkpt lat="47.53646" lon="-2.74391">
        <ele>-27.6</ele>
        <time>2021-08-05T13:14:40Z</time>
      </trkpt>
      <trkpt lat="47.53646" lon="-2.74396">
        <ele>-27.4</ele>
        <time>2021-08-05T13:14:41Z</time>
      </trkpt>
      <trkpt lat="47.53646" lon="-2.744">
        <ele>-27.4</ele>
        <time>2021-08-05T13:14:42Z</time>
      </trkpt>
      <trkpt lat="47.53646" lon="-2.74405">
        <ele>-27.4</ele>
        <time>2021-08-05T13:14:43Z</time>
      </trkpt>
      <trkpt lat="47.53646" lon="-2.7441">
        <ele>-27.4</ele>
        <time>2021-08-05T13:14:44Z</time>
      </trkpt>
      <trkpt lat="47.53646" lon="-2.74414">
        <ele>-27.4</ele>
        <time>2021-08-05T13:14:45Z</time>
      </trkpt>
      <trkpt lat="47.53646" lon="-2.74419">
        <ele>-27.4</ele>
        <time>2021-08-05T13:14:46Z</time>
      </trkpt>
      <trkpt lat="47.53646" lon="-2.74423">
        <ele>-27.4</ele>
        <time>2021-08-05T13:14:47Z</time>
      </trkpt>
      <trkpt lat="47.53647" lon="-2.74427">
        <ele>-27.4</ele>
        <time>2021-08-05T13:14:48Z</time>
      </trkpt>
      <trkpt lat="47.53647" lon="-2.74432">
        <ele>-27.4</ele>
        <time>2021-08-05T13:14:49Z</time>
      </trkpt>
      <trkpt lat="47.53647" lon="-2.74436">
        <ele>-27.4</ele>
        <time>2021-08-05T13:14:50Z</time>
      </trkpt>
      <trkpt lat="47.53647" lon="-2.7444">
        <ele>-27.2</ele>
        <time>2021-08-05T13:14:51Z</time>
      </trkpt>
      <trkpt lat="47.53647" lon="-2.74445">
        <ele>-27.2</ele>
        <time>2021-08-05T13:14:52Z</time>
      </trkpt>
      <trkpt lat="47.53647" lon="-2.74449">
        <ele>-27.2</ele>
        <time>2021-08-05T13:14:53Z</time>
      </trkpt>
      <trkpt lat="47.53647" lon="-2.74454">
        <ele>-27</ele>
        <time>2021-08-05T13:14:54Z</time>
      </trkpt>
      <trkpt lat="47.53647" lon="-2.74458">
        <ele>-27</ele>
        <time>2021-08-05T13:14:55Z</time>
      </trkpt>
      <trkpt lat="47.53647" lon="-2.74463">
        <ele>-26.8</ele>
        <time>2021-08-05T13:14:56Z</time>
      </trkpt>
      <trkpt lat="47.53648" lon="-2.74468">
        <ele>-26.6</ele>
        <time>2021-08-05T13:14:57Z</time>
      </trkpt>
      <trkpt lat="47.53648" lon="-2.74473">
        <ele>-26.4</ele>
        <time>2021-08-05T13:14:58Z</time>
      </trkpt>
      <trkpt lat="47.53648" lon="-2.74478">
        <ele>-26.4</ele>
        <time>2021-08-05T13:14:59Z</time>
      </trkpt>
      <trkpt lat="47.53648" lon="-2.74483">
        <ele>-26.4</ele>
        <time>2021-08-05T13:15:00Z</time>
      </trkpt>
      <trkpt lat="47.53648" lon="-2.74487">
        <ele>-26.4</ele>
        <time>2021-08-05T13:15:01Z</time>
      </trkpt>
      <trkpt lat="47.53648" lon="-2.74492">
        <ele>-26.4</ele>
        <time>2021-08-05T13:15:02Z</time>
      </trkpt>
      <trkpt lat="47.53649" lon="-2.74497">
        <ele>-26.2</ele>
        <time>2021-08-05T13:15:03Z</time>
      </trkpt>
      <trkpt lat="47.53649" lon="-2.74501">
        <ele>-26.2</ele>
        <time>2021-08-05T13:15:04Z</time>
      </trkpt>
      <trkpt lat="47.53649" lon="-2.74506">
        <ele>-26</ele>
        <time>2021-08-05T13:15:05Z</time>
      </trkpt>
      <trkpt lat="47.53649" lon="-2.74511">
        <ele>-26</ele>
        <time>2021-08-05T13:15:06Z</time>
      </trkpt>
      <trkpt lat="47.53649" lon="-2.74516">
        <ele>-25.8</ele>
        <time>2021-08-05T13:15:07Z</time>
      </trkpt>
      <trkpt lat="47.5365" lon="-2.7452">
        <ele>-25.8</ele>
        <time>2021-08-05T13:15:08Z</time>
      </trkpt>
      <trkpt lat="47.5365" lon="-2.74525">
        <ele>-25.8</ele>
        <time>2021-08-05T13:15:09Z</time>
      </trkpt>
      <trkpt lat="47.5365" lon="-2.7453">
        <ele>-25.8</ele>
        <time>2021-08-05T13:15:10Z</time>
      </trkpt>
      <trkpt lat="47.5365" lon="-2.74534">
        <ele>-25.6</ele>
        <time>2021-08-05T13:15:11Z</time>
      </trkpt>
      <trkpt lat="47.5365" lon="-2.74539">
        <ele>-25.4</ele>
        <time>2021-08-05T13:15:12Z</time>
      </trkpt>
      <trkpt lat="47.5365" lon="-2.74543">
        <ele>-25.2</ele>
        <time>2021-08-05T13:15:13Z</time>
      </trkpt>
      <trkpt lat="47.5365" lon="-2.74548">
        <ele>-25.2</ele>
        <time>2021-08-05T13:15:14Z</time>
      </trkpt>
      <trkpt lat="47.5365" lon="-2.74552">
        <ele>-25</ele>
        <time>2021-08-05T13:15:15Z</time>
      </trkpt>
      <trkpt lat="47.5365" lon="-2.74556">
        <ele>-25.2</ele>
        <time>2021-08-05T13:15:16Z</time>
      </trkpt>
      <trkpt lat="47.5365" lon="-2.7456">
        <ele>-25</ele>
        <time>2021-08-05T13:15:17Z</time>
      </trkpt>
      <trkpt lat="47.5365" lon="-2.74565">
        <ele>-25</ele>
        <time>2021-08-05T13:15:18Z</time>
      </trkpt>
      <trkpt lat="47.5365" lon="-2.74569">
        <ele>-25</ele>
        <time>2021-08-05T13:15:19Z</time>
      </trkpt>
      <trkpt lat="47.5365" lon="-2.74573">
        <ele>-24.8</ele>
        <time>2021-08-05T13:15:20Z</time>
      </trkpt>
      <trkpt lat="47.5365" lon="-2.74577">
        <ele>-24.6</ele>
        <time>2021-08-05T13:15:21Z</time>
      </trkpt>
      <trkpt lat="47.53649" lon="-2.74582">
        <ele>-24.6</ele>
        <time>2021-08-05T13:15:22Z</time>
      </trkpt>
      <trkpt lat="47.53649" lon="-2.74586">
        <ele>-24.6</ele>
        <time>2021-08-05T13:15:23Z</time>
      </trkpt>
      <trkpt lat="47.53649" lon="-2.7459">
        <ele>-24.4</ele>
        <time>2021-08-05T13:15:24Z</time>
      </trkpt>
      <trkpt lat="47.53648" lon="-2.74593">
        <ele>-24.4</ele>
        <time>2021-08-05T13:15:25Z</time>
      </trkpt>
      <trkpt lat="47.53648" lon="-2.74597">
        <ele>-24.4</ele>
        <time>2021-08-05T13:15:26Z</time>
      </trkpt>
      <trkpt lat="47.53647" lon="-2.74601">
        <ele>-24</ele>
        <time>2021-08-05T13:15:27Z</time>
      </trkpt>
      <trkpt lat="47.53646" lon="-2.74605">
        <ele>-23.8</ele>
        <time>2021-08-05T13:15:28Z</time>
      </trkpt>
      <trkpt lat="47.53646" lon="-2.74609">
        <ele>-23.6</ele>
        <time>2021-08-05T13:15:29Z</time>
      </trkpt>
      <trkpt lat="47.53645" lon="-2.74613">
        <ele>-23.4</ele>
        <time>2021-08-05T13:15:30Z</time>
      </trkpt>
      <trkpt lat="47.53644" lon="-2.74617">
        <ele>-23.2</ele>
        <time>2021-08-05T13:15:31Z</time>
      </trkpt>
      <trkpt lat="47.53643" lon="-2.74621">
        <ele>-23</ele>
        <time>2021-08-05T13:15:32Z</time>
      </trkpt>
      <trkpt lat="47.53642" lon="-2.74625">
        <ele>-23</ele>
        <time>2021-08-05T13:15:33Z</time>
      </trkpt>
      <trkpt lat="47.53642" lon="-2.74629">
        <ele>-22.8</ele>
        <time>2021-08-05T13:15:34Z</time>
      </trkpt>
      <trkpt lat="47.53641" lon="-2.74633">
        <ele>-22.6</ele>
        <time>2021-08-05T13:15:35Z</time>
      </trkpt>
      <trkpt lat="47.5364" lon="-2.74637">
        <ele>-22.4</ele>
        <time>2021-08-05T13:15:36Z</time>
      </trkpt>
      <trkpt lat="47.53639" lon="-2.74641">
        <ele>-22.2</ele>
        <time>2021-08-05T13:15:37Z</time>
      </trkpt>
      <trkpt lat="47.53638" lon="-2.74645">
        <ele>-22.2</ele>
        <time>2021-08-05T13:15:38Z</time>
      </trkpt>
      <trkpt lat="47.53637" lon="-2.74649">
        <ele>-22</ele>
        <time>2021-08-05T13:15:39Z</time>
      </trkpt>
      <trkpt lat="47.53636" lon="-2.74653">
        <ele>-21.8</ele>
        <time>2021-08-05T13:15:40Z</time>
      </trkpt>
      <trkpt lat="47.53635" lon="-2.74657">
        <ele>-21.6</ele>
        <time>2021-08-05T13:15:41Z</time>
      </trkpt>
      <trkpt lat="47.53634" lon="-2.74661">
        <ele>-21.2</ele>
        <time>2021-08-05T13:15:42Z</time>
      </trkpt>
      <trkpt lat="47.53633" lon="-2.74664">
        <ele>-21.4</ele>
        <time>2021-08-05T13:15:43Z</time>
      </trkpt>
      <trkpt lat="47.53632" lon="-2.74668">
        <ele>-21.2</ele>
        <time>2021-08-05T13:15:44Z</time>
      </trkpt>
      <trkpt lat="47.53631" lon="-2.74672">
        <ele>-21</ele>
        <time>2021-08-05T13:15:45Z</time>
      </trkpt>
      <trkpt lat="47.5363" lon="-2.74676">
        <ele>-21</ele>
        <time>2021-08-05T13:15:46Z</time>
      </trkpt>
      <trkpt lat="47.53629" lon="-2.7468">
        <ele>-20.8</ele>
        <time>2021-08-05T13:15:47Z</time>
      </trkpt>
      <trkpt lat="47.53628" lon="-2.74684">
        <ele>-20.6</ele>
        <time>2021-08-05T13:15:48Z</time>
      </trkpt>
      <trkpt lat="47.53626" lon="-2.74688">
        <ele>-20.6</ele>
        <time>2021-08-05T13:15:49Z</time>
      </trkpt>
      <trkpt lat="47.53625" lon="-2.74692">
        <ele>-20.4</ele>
        <time>2021-08-05T13:15:50Z</time>
      </trkpt>
      <trkpt lat="47.53624" lon="-2.74696">
        <ele>-20.2</ele>
        <time>2021-08-05T13:15:51Z</time>
      </trkpt>
      <trkpt lat="47.53623" lon="-2.747">
        <ele>-20.4</ele>
        <time>2021-08-05T13:15:52Z</time>
      </trkpt>
      <trkpt lat="47.53621" lon="-2.74704">
        <ele>-20.2</ele>
        <time>2021-08-05T13:15:53Z</time>
      </trkpt>
      <trkpt lat="47.5362" lon="-2.74708">
        <ele>-20.2</ele>
        <time>2021-08-05T13:15:54Z</time>
      </trkpt>
      <trkpt lat="47.53619" lon="-2.74712">
        <ele>-20</ele>
        <time>2021-08-05T13:15:55Z</time>
      </trkpt>
      <trkpt lat="47.53618" lon="-2.74716">
        <ele>-19.8</ele>
        <time>2021-08-05T13:15:56Z</time>
      </trkpt>
      <trkpt lat="47.53616" lon="-2.7472">
        <ele>-19.6</ele>
        <time>2021-08-05T13:15:57Z</time>
      </trkpt>
      <trkpt lat="47.53615" lon="-2.74724">
        <ele>-19.8</ele>
        <time>2021-08-05T13:15:58Z</time>
      </trkpt>
      <trkpt lat="47.53613" lon="-2.74728">
        <ele>-19.6</ele>
        <time>2021-08-05T13:15:59Z</time>
      </trkpt>
      <trkpt lat="47.53612" lon="-2.74732">
        <ele>-19.6</ele>
        <time>2021-08-05T13:16:00Z</time>
      </trkpt>
      <trkpt lat="47.5361" lon="-2.74736">
        <ele>-19.6</ele>
        <time>2021-08-05T13:16:01Z</time>
      </trkpt>
      <trkpt lat="47.53609" lon="-2.7474">
        <ele>-19.4</ele>
        <time>2021-08-05T13:16:02Z</time>
      </trkpt>
      <trkpt lat="47.53607" lon="-2.74744">
        <ele>-19.2</ele>
        <time>2021-08-05T13:16:03Z</time>
      </trkpt>
      <trkpt lat="47.53605" lon="-2.74747">
        <ele>-19</ele>
        <time>2021-08-05T13:16:04Z</time>
      </trkpt>
      <trkpt lat="47.53604" lon="-2.74751">
        <ele>-19</ele>
        <time>2021-08-05T13:16:05Z</time>
      </trkpt>
      <trkpt lat="47.53602" lon="-2.74754">
        <ele>-18.8</ele>
        <time>2021-08-05T13:16:06Z</time>
      </trkpt>
      <trkpt lat="47.53601" lon="-2.74758">
        <ele>-18.8</ele>
        <time>2021-08-05T13:16:07Z</time>
      </trkpt>
      <trkpt lat="47.536" lon="-2.74761">
        <ele>-18.6</ele>
        <time>2021-08-05T13:16:08Z</time>
      </trkpt>
      <trkpt lat="47.53598" lon="-2.74764">
        <ele>-18.6</ele>
        <time>2021-08-05T13:16:09Z</time>
      </trkpt>
      <trkpt lat="47.53597" lon="-2.74768">
        <ele>-18.4</ele>
        <time>2021-08-05T13:16:10Z</time>
      </trkpt>
      <trkpt lat="47.53596" lon="-2.74772">
        <ele>-18.4</ele>
        <time>2021-08-05T13:16:11Z</time>
      </trkpt>
      <trkpt lat="47.53594" lon="-2.74775">
        <ele>-18.2</ele>
        <time>2021-08-05T13:16:12Z</time>
      </trkpt>
      <trkpt lat="47.53593" lon="-2.74779">
        <ele>-18.2</ele>
        <time>2021-08-05T13:16:13Z</time>
      </trkpt>
      <trkpt lat="47.53592" lon="-2.74782">
        <ele>-18</ele>
        <time>2021-08-05T13:16:14Z</time>
      </trkpt>
      <trkpt lat="47.5359" lon="-2.74786">
        <ele>-17.8</ele>
        <time>2021-08-05T13:16:15Z</time>
      </trkpt>
      <trkpt lat="47.53589" lon="-2.74789">
        <ele>-17.8</ele>
        <time>2021-08-05T13:16:16Z</time>
      </trkpt>
      <trkpt lat="47.53588" lon="-2.74793">
        <ele>-17.8</ele>
        <time>2021-08-05T13:16:17Z</time>
      </trkpt>
      <trkpt lat="47.53586" lon="-2.74796">
        <ele>-17.6</ele>
        <time>2021-08-05T13:16:18Z</time>
      </trkpt>
      <trkpt lat="47.53585" lon="-2.748">
        <ele>-17.6</ele>
        <time>2021-08-05T13:16:19Z</time>
      </trkpt>
      <trkpt lat="47.53584" lon="-2.74803">
        <ele>-17.6</ele>
        <time>2021-08-05T13:16:20Z</time>
      </trkpt>
      <trkpt lat="47.53583" lon="-2.74807">
        <ele>-17.6</ele>
        <time>2021-08-05T13:16:21Z</time>
      </trkpt>
      <trkpt lat="47.53582" lon="-2.7481">
        <ele>-17.4</ele>
        <time>2021-08-05T13:16:22Z</time>
      </trkpt>
      <trkpt lat="47.53581" lon="-2.74814">
        <ele>-17.4</ele>
        <time>2021-08-05T13:16:23Z</time>
      </trkpt>
      <trkpt lat="47.5358" lon="-2.74817">
        <ele>-17.2</ele>
        <time>2021-08-05T13:16:24Z</time>
      </trkpt>
      <trkpt lat="47.53579" lon="-2.74821">
        <ele>-17</ele>
        <time>2021-08-05T13:16:25Z</time>
      </trkpt>
      <trkpt lat="47.53578" lon="-2.74824">
        <ele>-16.8</ele>
        <time>2021-08-05T13:16:26Z</time>
      </trkpt>
      <trkpt lat="47.53577" lon="-2.74828">
        <ele>-16.6</ele>
        <time>2021-08-05T13:16:27Z</time>
      </trkpt>
      <trkpt lat="47.53576" lon="-2.74832">
        <ele>-16.4</ele>
        <time>2021-08-05T13:16:28Z</time>
      </trkpt>
      <trkpt lat="47.53575" lon="-2.74836">
        <ele>-16.2</ele>
        <time>2021-08-05T13:16:29Z</time>
      </trkpt>
      <trkpt lat="47.53573" lon="-2.7484">
        <ele>-16.2</ele>
        <time>2021-08-05T13:16:30Z</time>
      </trkpt>
      <trkpt lat="47.53572" lon="-2.74845">
        <ele>-16.2</ele>
        <time>2021-08-05T13:16:31Z</time>
      </trkpt>
      <trkpt lat="47.5357" lon="-2.74849">
        <ele>-16</ele>
        <time>2021-08-05T13:16:32Z</time>
      </trkpt>
      <trkpt lat="47.53568" lon="-2.74854">
        <ele>-15.8</ele>
        <time>2021-08-05T13:16:33Z</time>
      </trkpt>
      <trkpt lat="47.53567" lon="-2.74859">
        <ele>-15.6</ele>
        <time>2021-08-05T13:16:34Z</time>
      </trkpt>
      <trkpt lat="47.53566" lon="-2.74864">
        <ele>-15.4</ele>
        <time>2021-08-05T13:16:35Z</time>
      </trkpt>
      <trkpt lat="47.53564" lon="-2.74869">
        <ele>-15.4</ele>
        <time>2021-08-05T13:16:36Z</time>
      </trkpt>
      <trkpt lat="47.53563" lon="-2.74874">
        <ele>-15.2</ele>
        <time>2021-08-05T13:16:37Z</time>
      </trkpt>
      <trkpt lat="47.53561" lon="-2.74879">
        <ele>-15</ele>
        <time>2021-08-05T13:16:38Z</time>
      </trkpt>
      <trkpt lat="47.5356" lon="-2.74884">
        <ele>-15</ele>
        <time>2021-08-05T13:16:39Z</time>
      </trkpt>
      <trkpt lat="47.53559" lon="-2.74888">
        <ele>-14.8</ele>
        <time>2021-08-05T13:16:40Z</time>
      </trkpt>
      <trkpt lat="47.53557" lon="-2.74893">
        <ele>-14.6</ele>
        <time>2021-08-05T13:16:41Z</time>
      </trkpt>
      <trkpt lat="47.53556" lon="-2.74898">
        <ele>-14.4</ele>
        <time>2021-08-05T13:16:42Z</time>
      </trkpt>
      <trkpt lat="47.53555" lon="-2.74904">
        <ele>-14.2</ele>
        <time>2021-08-05T13:16:43Z</time>
      </trkpt>
      <trkpt lat="47.53554" lon="-2.74909">
        <ele>-14</ele>
        <time>2021-08-05T13:16:44Z</time>
      </trkpt>
      <trkpt lat="47.53552" lon="-2.74915">
        <ele>-14</ele>
        <time>2021-08-05T13:16:45Z</time>
      </trkpt>
      <trkpt lat="47.53551" lon="-2.74921">
        <ele>-13.8</ele>
        <time>2021-08-05T13:16:46Z</time>
      </trkpt>
      <trkpt lat="47.53549" lon="-2.74927">
        <ele>-13.8</ele>
        <time>2021-08-05T13:16:47Z</time>
      </trkpt>
      <trkpt lat="47.53548" lon="-2.74933">
        <ele>-13.6</ele>
        <time>2021-08-05T13:16:48Z</time>
      </trkpt>
      <trkpt lat="47.53546" lon="-2.74939">
        <ele>-13.6</ele>
        <time>2021-08-05T13:16:49Z</time>
      </trkpt>
      <trkpt lat="47.53545" lon="-2.74945">
        <ele>-13.2</ele>
        <time>2021-08-05T13:16:50Z</time>
      </trkpt>
      <trkpt lat="47.53544" lon="-2.74951">
        <ele>-13.2</ele>
        <time>2021-08-05T13:16:51Z</time>
      </trkpt>
      <trkpt lat="47.53543" lon="-2.74957">
        <ele>-13</ele>
        <time>2021-08-05T13:16:52Z</time>
      </trkpt>
      <trkpt lat="47.53542" lon="-2.74963">
        <ele>-12.8</ele>
        <time>2021-08-05T13:16:53Z</time>
      </trkpt>
      <trkpt lat="47.53541" lon="-2.74968">
        <ele>-12.8</ele>
        <time>2021-08-05T13:16:54Z</time>
      </trkpt>
      <trkpt lat="47.5354" lon="-2.74974">
        <ele>-12.8</ele>
        <time>2021-08-05T13:16:55Z</time>
      </trkpt>
      <trkpt lat="47.53539" lon="-2.7498">
        <ele>-12.6</ele>
        <time>2021-08-05T13:16:56Z</time>
      </trkpt>
      <trkpt lat="47.53537" lon="-2.74986">
        <ele>-12.6</ele>
        <time>2021-08-05T13:16:57Z</time>
      </trkpt>
      <trkpt lat="47.53537" lon="-2.74992">
        <ele>-12.6</ele>
        <time>2021-08-05T13:16:58Z</time>
      </trkpt>
      <trkpt lat="47.53536" lon="-2.74998">
        <ele>-12.4</ele>
        <time>2021-08-05T13:16:59Z</time>
      </trkpt>
      <trkpt lat="47.53535" lon="-2.75004">
        <ele>-12.6</ele>
        <time>2021-08-05T13:17:00Z</time>
      </trkpt>
      <trkpt lat="47.53533" lon="-2.75011">
        <ele>-12.4</ele>
        <time>2021-08-05T13:17:01Z</time>
      </trkpt>
      <trkpt lat="47.53532" lon="-2.75017">
        <ele>-12.2</ele>
        <time>2021-08-05T13:17:02Z</time>
      </trkpt>
      <trkpt lat="47.53531" lon="-2.75022">
        <ele>-12</ele>
        <time>2021-08-05T13:17:03Z</time>
      </trkpt>
      <trkpt lat="47.5353" lon="-2.75028">
        <ele>-11.8</ele>
        <time>2021-08-05T13:17:04Z</time>
      </trkpt>
      <trkpt lat="47.53529" lon="-2.75033">
        <ele>-11.8</ele>
        <time>2021-08-05T13:17:05Z</time>
      </trkpt>
      <trkpt lat="47.53528" lon="-2.75039">
        <ele>-11.6</ele>
        <time>2021-08-05T13:17:06Z</time>
      </trkpt>
      <trkpt lat="47.53526" lon="-2.75045">
        <ele>-11.6</ele>
        <time>2021-08-05T13:17:07Z</time>
      </trkpt>
      <trkpt lat="47.53525" lon="-2.7505">
        <ele>-11.4</ele>
        <time>2021-08-05T13:17:08Z</time>
      </trkpt>
      <trkpt lat="47.53523" lon="-2.75056">
        <ele>-11.4</ele>
        <time>2021-08-05T13:17:09Z</time>
      </trkpt>
      <trkpt lat="47.53522" lon="-2.75061">
        <ele>-11.2</ele>
        <time>2021-08-05T13:17:10Z</time>
      </trkpt>
      <trkpt lat="47.53521" lon="-2.75067">
        <ele>-11.2</ele>
        <time>2021-08-05T13:17:11Z</time>
      </trkpt>
      <trkpt lat="47.5352" lon="-2.75072">
        <ele>-11.2</ele>
        <time>2021-08-05T13:17:12Z</time>
      </trkpt>
      <trkpt lat="47.53519" lon="-2.75077">
        <ele>-11</ele>
        <time>2021-08-05T13:17:13Z</time>
      </trkpt>
      <trkpt lat="47.53518" lon="-2.75083">
        <ele>-10.8</ele>
        <time>2021-08-05T13:17:14Z</time>
      </trkpt>
      <trkpt lat="47.53516" lon="-2.75089">
        <ele>-10.6</ele>
        <time>2021-08-05T13:17:15Z</time>
      </trkpt>
      <trkpt lat="47.53514" lon="-2.75094">
        <ele>-10.4</ele>
        <time>2021-08-05T13:17:16Z</time>
      </trkpt>
      <trkpt lat="47.53513" lon="-2.751">
        <ele>-10.4</ele>
        <time>2021-08-05T13:17:17Z</time>
      </trkpt>
      <trkpt lat="47.53512" lon="-2.75106">
        <ele>-10</ele>
        <time>2021-08-05T13:17:18Z</time>
      </trkpt>
      <trkpt lat="47.5351" lon="-2.75112">
        <ele>-9.8</ele>
        <time>2021-08-05T13:17:19Z</time>
      </trkpt>
      <trkpt lat="47.53509" lon="-2.75117">
        <ele>-9.4</ele>
        <time>2021-08-05T13:17:20Z</time>
      </trkpt>
      <trkpt lat="47.53507" lon="-2.75122">
        <ele>-9.2</ele>
        <time>2021-08-05T13:17:21Z</time>
      </trkpt>
      <trkpt lat="47.53505" lon="-2.75127">
        <ele>-9</ele>
        <time>2021-08-05T13:17:22Z</time>
      </trkpt>
      <trkpt lat="47.53504" lon="-2.75132">
        <ele>-9</ele>
        <time>2021-08-05T13:17:23Z</time>
      </trkpt>
      <trkpt lat="47.53502" lon="-2.75138">
        <ele>-9</ele>
        <time>2021-08-05T13:17:24Z</time>
      </trkpt>
      <trkpt lat="47.53501" lon="-2.75143">
        <ele>-8.8</ele>
        <time>2021-08-05T13:17:25Z</time>
      </trkpt>
      <trkpt lat="47.53499" lon="-2.75149">
        <ele>-8.8</ele>
        <time>2021-08-05T13:17:26Z</time>
      </trkpt>
      <trkpt lat="47.53498" lon="-2.75155">
        <ele>-8.6</ele>
        <time>2021-08-05T13:17:27Z</time>
      </trkpt>
      <trkpt lat="47.53496" lon="-2.7516">
        <ele>-8.4</ele>
        <time>2021-08-05T13:17:28Z</time>
      </trkpt>
      <trkpt lat="47.53494" lon="-2.75166">
        <ele>-8</ele>
        <time>2021-08-05T13:17:29Z</time>
      </trkpt>
      <trkpt lat="47.53492" lon="-2.75171">
        <ele>-7.8</ele>
        <time>2021-08-05T13:17:30Z</time>
      </trkpt>
      <trkpt lat="47.5349" lon="-2.75177">
        <ele>-7.8</ele>
        <time>2021-08-05T13:17:31Z</time>
      </trkpt>
      <trkpt lat="47.53488" lon="-2.75183">
        <ele>-7.6</ele>
        <time>2021-08-05T13:17:32Z</time>
      </trkpt>
      <trkpt lat="47.53485" lon="-2.75188">
        <ele>-7.6</ele>
        <time>2021-08-05T13:17:33Z</time>
      </trkpt>
      <trkpt lat="47.53482" lon="-2.75194">
        <ele>-7.6</ele>
        <time>2021-08-05T13:17:34Z</time>
      </trkpt>
      <trkpt lat="47.5348" lon="-2.75199">
        <ele>-7.4</ele>
        <time>2021-08-05T13:17:35Z</time>
      </trkpt>
      <trkpt lat="47.53477" lon="-2.75205">
        <ele>-7.2</ele>
        <time>2021-08-05T13:17:36Z</time>
      </trkpt>
      <trkpt lat="47.53474" lon="-2.75211">
        <ele>-7.2</ele>
        <time>2021-08-05T13:17:37Z</time>
      </trkpt>
      <trkpt lat="47.53471" lon="-2.75216">
        <ele>-7</ele>
        <time>2021-08-05T13:17:38Z</time>
      </trkpt>
      <trkpt lat="47.53468" lon="-2.75222">
        <ele>-7</ele>
        <time>2021-08-05T13:17:39Z</time>
      </trkpt>
      <trkpt lat="47.53466" lon="-2.75228">
        <ele>-6.8</ele>
        <time>2021-08-05T13:17:40Z</time>
      </trkpt>
      <trkpt lat="47.53463" lon="-2.75234">
        <ele>-6.8</ele>
        <time>2021-08-05T13:17:41Z</time>
      </trkpt>
      <trkpt lat="47.5346" lon="-2.7524">
        <ele>-7</ele>
        <time>2021-08-05T13:17:42Z</time>
      </trkpt>
      <trkpt lat="47.53457" lon="-2.75245">
        <ele>-7</ele>
        <time>2021-08-05T13:17:43Z</time>
      </trkpt>
      <trkpt lat="47.53454" lon="-2.75251">
        <ele>-6.8</ele>
        <time>2021-08-05T13:17:44Z</time>
      </trkpt>
      <trkpt lat="47.53451" lon="-2.75256">
        <ele>-6.8</ele>
        <time>2021-08-05T13:17:45Z</time>
      </trkpt>
      <trkpt lat="47.53448" lon="-2.75262">
        <ele>-6.8</ele>
        <time>2021-08-05T13:17:46Z</time>
      </trkpt>
      <trkpt lat="47.53445" lon="-2.75268">
        <ele>-6.8</ele>
        <time>2021-08-05T13:17:47Z</time>
      </trkpt>
      <trkpt lat="47.53443" lon="-2.75273">
        <ele>-6.8</ele>
        <time>2021-08-05T13:17:48Z</time>
      </trkpt>
      <trkpt lat="47.5344" lon="-2.75279">
        <ele>-6.8</ele>
        <time>2021-08-05T13:17:49Z</time>
      </trkpt>
      <trkpt lat="47.53437" lon="-2.75285">
        <ele>-6.8</ele>
        <time>2021-08-05T13:17:50Z</time>
      </trkpt>
      <trkpt lat="47.53434" lon="-2.7529">
        <ele>-6.8</ele>
        <time>2021-08-05T13:17:51Z</time>
      </trkpt>
      <trkpt lat="47.53432" lon="-2.75296">
        <ele>-6.6</ele>
        <time>2021-08-05T13:17:52Z</time>
      </trkpt>
      <trkpt lat="47.53428" lon="-2.75301">
        <ele>-6.6</ele>
        <time>2021-08-05T13:17:53Z</time>
      </trkpt>
      <trkpt lat="47.53425" lon="-2.75307">
        <ele>-6.6</ele>
        <time>2021-08-05T13:17:54Z</time>
      </trkpt>
      <trkpt lat="47.53422" lon="-2.75313">
        <ele>-6.6</ele>
        <time>2021-08-05T13:17:55Z</time>
      </trkpt>
      <trkpt lat="47.53419" lon="-2.75318">
        <ele>-6.6</ele>
        <time>2021-08-05T13:17:56Z</time>
      </trkpt>
      <trkpt lat="47.53416" lon="-2.75324">
        <ele>-6.8</ele>
        <time>2021-08-05T13:17:57Z</time>
      </trkpt>
      <trkpt lat="47.53413" lon="-2.75329">
        <ele>-6.8</ele>
        <time>2021-08-05T13:17:58Z</time>
      </trkpt>
      <trkpt lat="47.53409" lon="-2.75334">
        <ele>-6.8</ele>
        <time>2021-08-05T13:17:59Z</time>
      </trkpt>
      <trkpt lat="47.53406" lon="-2.75339">
        <ele>-6.8</ele>
        <time>2021-08-05T13:18:00Z</time>
      </trkpt>
      <trkpt lat="47.53403" lon="-2.75344">
        <ele>-6.8</ele>
        <time>2021-08-05T13:18:01Z</time>
      </trkpt>
      <trkpt lat="47.534" lon="-2.7535">
        <ele>-6.8</ele>
        <time>2021-08-05T13:18:02Z</time>
      </trkpt>
      <trkpt lat="47.53396" lon="-2.75354">
        <ele>-6.8</ele>
        <time>2021-08-05T13:18:03Z</time>
      </trkpt>
      <trkpt lat="47.53393" lon="-2.75359">
        <ele>-6.8</ele>
        <time>2021-08-05T13:18:04Z</time>
      </trkpt>
      <trkpt lat="47.53389" lon="-2.75365">
        <ele>-6.8</ele>
        <time>2021-08-05T13:18:05Z</time>
      </trkpt>
      <trkpt lat="47.53386" lon="-2.75369">
        <ele>-6.8</ele>
        <time>2021-08-05T13:18:06Z</time>
      </trkpt>
      <trkpt lat="47.53383" lon="-2.75374">
        <ele>-6.6</ele>
        <time>2021-08-05T13:18:07Z</time>
      </trkpt>
      <trkpt lat="47.5338" lon="-2.75379">
        <ele>-6.6</ele>
        <time>2021-08-05T13:18:08Z</time>
      </trkpt>
      <trkpt lat="47.53377" lon="-2.75384">
        <ele>-6.6</ele>
        <time>2021-08-05T13:18:09Z</time>
      </trkpt>
      <trkpt lat="47.53374" lon="-2.75388">
        <ele>-6.6</ele>
        <time>2021-08-05T13:18:10Z</time>
      </trkpt>
      <trkpt lat="47.53371" lon="-2.75392">
        <ele>-6.6</ele>
        <time>2021-08-05T13:18:11Z</time>
      </trkpt>
      <trkpt lat="47.53369" lon="-2.75396">
        <ele>-6.8</ele>
        <time>2021-08-05T13:18:12Z</time>
      </trkpt>
      <trkpt lat="47.53367" lon="-2.754">
        <ele>-6.8</ele>
        <time>2021-08-05T13:18:13Z</time>
      </trkpt>
      <trkpt lat="47.53368" lon="-2.75405">
        <ele>-6.8</ele>
        <time>2021-08-05T13:18:14Z</time>
      </trkpt>
      <trkpt lat="47.53371" lon="-2.75407">
        <ele>-7</ele>
        <time>2021-08-05T13:18:15Z</time>
      </trkpt>
      <trkpt lat="47.53375" lon="-2.7541">
        <ele>-7</ele>
        <time>2021-08-05T13:18:16Z</time>
      </trkpt>
      <trkpt lat="47.53379" lon="-2.75412">
        <ele>-7</ele>
        <time>2021-08-05T13:18:17Z</time>
      </trkpt>
      <trkpt lat="47.53382" lon="-2.75416">
        <ele>-7</ele>
        <time>2021-08-05T13:18:18Z</time>
      </trkpt>
      <trkpt lat="47.53385" lon="-2.75421">
        <ele>-7.2</ele>
        <time>2021-08-05T13:18:19Z</time>
      </trkpt>
      <trkpt lat="47.53388" lon="-2.75427">
        <ele>-7.2</ele>
        <time>2021-08-05T13:18:20Z</time>
      </trkpt>
      <trkpt lat="47.5339" lon="-2.75432">
        <ele>-7.2</ele>
        <time>2021-08-05T13:18:21Z</time>
      </trkpt>
      <trkpt lat="47.53394" lon="-2.75437">
        <ele>-7.2</ele>
        <time>2021-08-05T13:18:22Z</time>
      </trkpt>
      <trkpt lat="47.53397" lon="-2.75443">
        <ele>-7.4</ele>
        <time>2021-08-05T13:18:23Z</time>
      </trkpt>
      <trkpt lat="47.53401" lon="-2.75448">
        <ele>-7.4</ele>
        <time>2021-08-05T13:18:24Z</time>
      </trkpt>
      <trkpt lat="47.53404" lon="-2.75453">
        <ele>-7.4</ele>
        <time>2021-08-05T13:18:25Z</time>
      </trkpt>
      <trkpt lat="47.53408" lon="-2.7546">
        <ele>-7.6</ele>
        <time>2021-08-05T13:18:26Z</time>
      </trkpt>
      <trkpt lat="47.53412" lon="-2.75467">
        <ele>-7.6</ele>
        <time>2021-08-05T13:18:27Z</time>
      </trkpt>
      <trkpt lat="47.53415" lon="-2.75474">
        <ele>-7.8</ele>
        <time>2021-08-05T13:18:28Z</time>
      </trkpt>
      <trkpt lat="47.53419" lon="-2.75481">
        <ele>-7.8</ele>
        <time>2021-08-05T13:18:29Z</time>
      </trkpt>
      <trkpt lat="47.53422" lon="-2.75487">
        <ele>-7.8</ele>
        <time>2021-08-05T13:18:30Z</time>
      </trkpt>
      <trkpt lat="47.53425" lon="-2.75493">
        <ele>-7.8</ele>
        <time>2021-08-05T13:18:31Z</time>
      </trkpt>
      <trkpt lat="47.5343" lon="-2.75501">
        <ele>-7.8</ele>
        <time>2021-08-05T13:18:32Z</time>
      </trkpt>
      <trkpt lat="47.53434" lon="-2.75509">
        <ele>-7.8</ele>
        <time>2021-08-05T13:18:33Z</time>
      </trkpt>
      <trkpt lat="47.53439" lon="-2.75516">
        <ele>-7.8</ele>
        <time>2021-08-05T13:18:34Z</time>
      </trkpt>
      <trkpt lat="47.53443" lon="-2.75523">
        <ele>-7.8</ele>
        <time>2021-08-05T13:18:35Z</time>
      </trkpt>
      <trkpt lat="47.53447" lon="-2.75531">
        <ele>-7.8</ele>
        <time>2021-08-05T13:18:36Z</time>
      </trkpt>
      <trkpt lat="47.5345" lon="-2.75538">
        <ele>-7.8</ele>
        <time>2021-08-05T13:18:37Z</time>
      </trkpt>
      <trkpt lat="47.53454" lon="-2.75545">
        <ele>-7.8</ele>
        <time>2021-08-05T13:18:38Z</time>
      </trkpt>
      <trkpt lat="47.53458" lon="-2.75552">
        <ele>-7.8</ele>
        <time>2021-08-05T13:18:39Z</time>
      </trkpt>
      <trkpt lat="47.53461" lon="-2.75558">
        <ele>-7.8</ele>
        <time>2021-08-05T13:18:40Z</time>
      </trkpt>
      <trkpt lat="47.53465" lon="-2.75564">
        <ele>-7.8</ele>
        <time>2021-08-05T13:18:41Z</time>
      </trkpt>
      <trkpt lat="47.53468" lon="-2.7557">
        <ele>-7.8</ele>
        <time>2021-08-05T13:18:42Z</time>
      </trkpt>
      <trkpt lat="47.53472" lon="-2.75575">
        <ele>-7.8</ele>
        <time>2021-08-05T13:18:43Z</time>
      </trkpt>
      <trkpt lat="47.53475" lon="-2.75581">
        <ele>-7.8</ele>
        <time>2021-08-05T13:18:44Z</time>
      </trkpt>
      <trkpt lat="47.53477" lon="-2.75586">
        <ele>-7.8</ele>
        <time>2021-08-05T13:18:45Z</time>
      </trkpt>
      <trkpt lat="47.5348" lon="-2.75591">
        <ele>-8</ele>
        <time>2021-08-05T13:18:46Z</time>
      </trkpt>
      <trkpt lat="47.53483" lon="-2.75596">
        <ele>-8</ele>
        <time>2021-08-05T13:18:47Z</time>
      </trkpt>
      <trkpt lat="47.53485" lon="-2.756">
        <ele>-8</ele>
        <time>2021-08-05T13:18:48Z</time>
      </trkpt>
      <trkpt lat="47.53486" lon="-2.75605">
        <ele>-8.2</ele>
        <time>2021-08-05T13:18:49Z</time>
      </trkpt>
      <trkpt lat="47.53487" lon="-2.7561">
        <ele>-8.2</ele>
        <time>2021-08-05T13:18:50Z</time>
      </trkpt>
      <trkpt lat="47.53488" lon="-2.75615">
        <ele>-8.4</ele>
        <time>2021-08-05T13:18:51Z</time>
      </trkpt>
      <trkpt lat="47.53488" lon="-2.75619">
        <ele>-8.4</ele>
        <time>2021-08-05T13:18:52Z</time>
      </trkpt>
      <trkpt lat="47.53488" lon="-2.75624">
        <ele>-8.6</ele>
        <time>2021-08-05T13:18:53Z</time>
      </trkpt>
      <trkpt lat="47.53488" lon="-2.7563">
        <ele>-8.8</ele>
        <time>2021-08-05T13:18:54Z</time>
      </trkpt>
      <trkpt lat="47.53488" lon="-2.75635">
        <ele>-8.8</ele>
        <time>2021-08-05T13:18:55Z</time>
      </trkpt>
      <trkpt lat="47.53487" lon="-2.7564">
        <ele>-9</ele>
        <time>2021-08-05T13:18:56Z</time>
      </trkpt>
      <trkpt lat="47.53487" lon="-2.75645">
        <ele>-9.2</ele>
        <time>2021-08-05T13:18:57Z</time>
      </trkpt>
      <trkpt lat="47.53486" lon="-2.7565">
        <ele>-9.4</ele>
        <time>2021-08-05T13:18:58Z</time>
      </trkpt>
      <trkpt lat="47.53485" lon="-2.75655">
        <ele>-9.8</ele>
        <time>2021-08-05T13:18:59Z</time>
      </trkpt>
      <trkpt lat="47.53483" lon="-2.75659">
        <ele>-10</ele>
        <time>2021-08-05T13:19:00Z</time>
      </trkpt>
      <trkpt lat="47.53482" lon="-2.75664">
        <ele>-10.4</ele>
        <time>2021-08-05T13:19:01Z</time>
      </trkpt>
      <trkpt lat="47.53481" lon="-2.75669">
        <ele>-10.6</ele>
        <time>2021-08-05T13:19:02Z</time>
      </trkpt>
      <trkpt lat="47.53479" lon="-2.75675">
        <ele>-10.8</ele>
        <time>2021-08-05T13:19:03Z</time>
      </trkpt>
      <trkpt lat="47.53478" lon="-2.7568">
        <ele>-11</ele>
        <time>2021-08-05T13:19:04Z</time>
      </trkpt>
      <trkpt lat="47.53476" lon="-2.75684">
        <ele>-11.2</ele>
        <time>2021-08-05T13:19:05Z</time>
      </trkpt>
      <trkpt lat="47.53475" lon="-2.75689">
        <ele>-11.6</ele>
        <time>2021-08-05T13:19:06Z</time>
      </trkpt>
      <trkpt lat="47.53474" lon="-2.75694">
        <ele>-11.8</ele>
        <time>2021-08-05T13:19:07Z</time>
      </trkpt>
      <trkpt lat="47.53472" lon="-2.75699">
        <ele>-12.2</ele>
        <time>2021-08-05T13:19:08Z</time>
      </trkpt>
      <trkpt lat="47.5347" lon="-2.75704">
        <ele>-12.6</ele>
        <time>2021-08-05T13:19:09Z</time>
      </trkpt>
      <trkpt lat="47.53469" lon="-2.75709">
        <ele>-12.8</ele>
        <time>2021-08-05T13:19:10Z</time>
      </trkpt>
      <trkpt lat="47.53468" lon="-2.75713">
        <ele>-13</ele>
        <time>2021-08-05T13:19:11Z</time>
      </trkpt>
      <trkpt lat="47.53469" lon="-2.75717">
        <ele>-13.4</ele>
        <time>2021-08-05T13:19:12Z</time>
      </trkpt>
      <trkpt lat="47.5347" lon="-2.7572">
        <ele>-13.6</ele>
        <time>2021-08-05T13:19:13Z</time>
      </trkpt>
      <trkpt lat="47.53471" lon="-2.75723">
        <ele>-13.8</ele>
        <time>2021-08-05T13:19:14Z</time>
      </trkpt>
      <trkpt lat="47.53473" lon="-2.75727">
        <ele>-14.2</ele>
        <time>2021-08-05T13:19:15Z</time>
      </trkpt>
      <trkpt lat="47.53475" lon="-2.7573">
        <ele>-14.4</ele>
        <time>2021-08-05T13:19:16Z</time>
      </trkpt>
      <trkpt lat="47.53477" lon="-2.75734">
        <ele>-14.6</ele>
        <time>2021-08-05T13:19:17Z</time>
      </trkpt>
      <trkpt lat="47.5348" lon="-2.75736">
        <ele>-14.8</ele>
        <time>2021-08-05T13:19:18Z</time>
      </trkpt>
      <trkpt lat="47.53483" lon="-2.75739">
        <ele>-15.2</ele>
        <time>2021-08-05T13:19:19Z</time>
      </trkpt>
      <trkpt lat="47.53488" lon="-2.75746">
        <ele>-15.6</ele>
        <time>2021-08-05T13:19:21Z</time>
      </trkpt>
      <trkpt lat="47.53489" lon="-2.7575">
        <ele>-15.6</ele>
        <time>2021-08-05T13:19:22Z</time>
      </trkpt>
      <trkpt lat="47.53492" lon="-2.75755">
        <ele>-15.8</ele>
        <time>2021-08-05T13:19:23Z</time>
      </trkpt>
      <trkpt lat="47.53494" lon="-2.7576">
        <ele>-15.8</ele>
        <time>2021-08-05T13:19:24Z</time>
      </trkpt>
      <trkpt lat="47.53498" lon="-2.7577">
        <ele>-16.4</ele>
        <time>2021-08-05T13:19:26Z</time>
      </trkpt>
      <trkpt lat="47.535" lon="-2.75776">
        <ele>-16.6</ele>
        <time>2021-08-05T13:19:27Z</time>
      </trkpt>
      <trkpt lat="47.53503" lon="-2.75789">
        <ele>-17</ele>
        <time>2021-08-05T13:19:29Z</time>
      </trkpt>
      <trkpt lat="47.53505" lon="-2.75802">
        <ele>-17.4</ele>
        <time>2021-08-05T13:19:31Z</time>
      </trkpt>
      <trkpt lat="47.53506" lon="-2.75808">
        <ele>-17.6</ele>
        <time>2021-08-05T13:19:32Z</time>
      </trkpt>
      <trkpt lat="47.53508" lon="-2.75822">
        <ele>-17.8</ele>
        <time>2021-08-05T13:19:34Z</time>
      </trkpt>
      <trkpt lat="47.5351" lon="-2.75828">
        <ele>-17.8</ele>
        <time>2021-08-05T13:19:35Z</time>
      </trkpt>
      <trkpt lat="47.53512" lon="-2.75835">
        <ele>-18</ele>
        <time>2021-08-05T13:19:36Z</time>
      </trkpt>
      <trkpt lat="47.53513" lon="-2.75842">
        <ele>-18</ele>
        <time>2021-08-05T13:19:37Z</time>
      </trkpt>
      <trkpt lat="47.53516" lon="-2.75856">
        <ele>-18</ele>
        <time>2021-08-05T13:19:39Z</time>
      </trkpt>
      <trkpt lat="47.53517" lon="-2.75863">
        <ele>-18</ele>
        <time>2021-08-05T13:19:40Z</time>
      </trkpt>
      <trkpt lat="47.53518" lon="-2.7587">
        <ele>-18</ele>
        <time>2021-08-05T13:19:41Z</time>
      </trkpt>
      <trkpt lat="47.5352" lon="-2.75876">
        <ele>-18.2</ele>
        <time>2021-08-05T13:19:42Z</time>
      </trkpt>
      <trkpt lat="47.53521" lon="-2.75883">
        <ele>-18.2</ele>
        <time>2021-08-05T13:19:43Z</time>
      </trkpt>
      <trkpt lat="47.53523" lon="-2.75889">
        <ele>-18.4</ele>
        <time>2021-08-05T13:19:44Z</time>
      </trkpt>
      <trkpt lat="47.53526" lon="-2.75902">
        <ele>-18.6</ele>
        <time>2021-08-05T13:19:46Z</time>
      </trkpt>
      <trkpt lat="47.53528" lon="-2.75908">
        <ele>-19.2</ele>
        <time>2021-08-05T13:19:47Z</time>
      </trkpt>
      <trkpt lat="47.5353" lon="-2.75914">
        <ele>-19.4</ele>
        <time>2021-08-05T13:19:48Z</time>
      </trkpt>
      <trkpt lat="47.53532" lon="-2.7592">
        <ele>-19.6</ele>
        <time>2021-08-05T13:19:49Z</time>
      </trkpt>
      <trkpt lat="47.53533" lon="-2.75925">
        <ele>-19.8</ele>
        <time>2021-08-05T13:19:50Z</time>
      </trkpt>
      <trkpt lat="47.53535" lon="-2.75931">
        <ele>-20</ele>
        <time>2021-08-05T13:19:51Z</time>
      </trkpt>
      <trkpt lat="47.53536" lon="-2.75937">
        <ele>-20.2</ele>
        <time>2021-08-05T13:19:52Z</time>
      </trkpt>
      <trkpt lat="47.53538" lon="-2.7595">
        <ele>-20.6</ele>
        <time>2021-08-05T13:19:54Z</time>
      </trkpt>
      <trkpt lat="47.53538" lon="-2.75961">
        <ele>-21</ele>
        <time>2021-08-05T13:19:56Z</time>
      </trkpt>
      <trkpt lat="47.53538" lon="-2.75966">
        <ele>-21.2</ele>
        <time>2021-08-05T13:19:57Z</time>
      </trkpt>
      <trkpt lat="47.53538" lon="-2.75973">
        <ele>-22</ele>
        <time>2021-08-05T13:19:59Z</time>
      </trkpt>
      <trkpt lat="47.53539" lon="-2.75975">
        <ele>-22</ele>
        <time>2021-08-05T13:20:00Z</time>
      </trkpt>
      <trkpt lat="47.53539" lon="-2.75978">
        <ele>-22.2</ele>
        <time>2021-08-05T13:20:01Z</time>
      </trkpt>
      <trkpt lat="47.53539" lon="-2.75981">
        <ele>-22.6</ele>
        <time>2021-08-05T13:20:02Z</time>
      </trkpt>
      <trkpt lat="47.53539" lon="-2.75987">
        <ele>-22.6</ele>
        <time>2021-08-05T13:20:04Z</time>
      </trkpt>
      <trkpt lat="47.53539" lon="-2.7599">
        <ele>-22.6</ele>
        <time>2021-08-05T13:20:05Z</time>
      </trkpt>
      <trkpt lat="47.53539" lon="-2.75992">
        <ele>-22.8</ele>
        <time>2021-08-05T13:20:06Z</time>
      </trkpt>
      <trkpt lat="47.53539" lon="-2.75995">
        <ele>-22.8</ele>
        <time>2021-08-05T13:20:07Z</time>
      </trkpt>
      <trkpt lat="47.53538" lon="-2.76">
        <ele>-22.8</ele>
        <time>2021-08-05T13:20:09Z</time>
      </trkpt>
      <trkpt lat="47.53538" lon="-2.76005">
        <ele>-22.8</ele>
        <time>2021-08-05T13:20:11Z</time>
      </trkpt>
      <trkpt lat="47.53538" lon="-2.76008">
        <ele>-22.8</ele>
        <time>2021-08-05T13:20:12Z</time>
      </trkpt>
      <trkpt lat="47.53537" lon="-2.76013">
        <ele>-22.8</ele>
        <time>2021-08-05T13:20:14Z</time>
      </trkpt>
      <trkpt lat="47.53536" lon="-2.76018">
        <ele>-22.8</ele>
        <time>2021-08-05T13:20:16Z</time>
      </trkpt>
      <trkpt lat="47.53536" lon="-2.76021">
        <ele>-22.6</ele>
        <time>2021-08-05T13:20:17Z</time>
      </trkpt>
      <trkpt lat="47.53536" lon="-2.76022">
        <ele>-22.6</ele>
        <time>2021-08-05T13:20:18Z</time>
      </trkpt>
      <trkpt lat="47.53536" lon="-2.76025">
        <ele>-22.6</ele>
        <time>2021-08-05T13:20:19Z</time>
      </trkpt>
      <trkpt lat="47.53536" lon="-2.7603">
        <ele>-22.8</ele>
        <time>2021-08-05T13:20:21Z</time>
      </trkpt>
      <trkpt lat="47.53535" lon="-2.76032">
        <ele>-22.6</ele>
        <time>2021-08-05T13:20:22Z</time>
      </trkpt>
      <trkpt lat="47.53534" lon="-2.76035">
        <ele>-22.6</ele>
        <time>2021-08-05T13:20:23Z</time>
      </trkpt>
      <trkpt lat="47.53534" lon="-2.76038">
        <ele>-22.6</ele>
        <time>2021-08-05T13:20:24Z</time>
      </trkpt>
      <trkpt lat="47.53533" lon="-2.76045">
        <ele>-22.6</ele>
        <time>2021-08-05T13:20:26Z</time>
      </trkpt>
      <trkpt lat="47.53532" lon="-2.76048">
        <ele>-22.6</ele>
        <time>2021-08-05T13:20:27Z</time>
      </trkpt>
      <trkpt lat="47.53532" lon="-2.7605">
        <ele>-22.6</ele>
        <time>2021-08-05T13:20:28Z</time>
      </trkpt>
      <trkpt lat="47.53531" lon="-2.76053">
        <ele>-22.6</ele>
        <time>2021-08-05T13:20:29Z</time>
      </trkpt>
      <trkpt lat="47.53531" lon="-2.76058">
        <ele>-22.6</ele>
        <time>2021-08-05T13:20:31Z</time>
      </trkpt>
      <trkpt lat="47.53531" lon="-2.76061">
        <ele>-22.8</ele>
        <time>2021-08-05T13:20:32Z</time>
      </trkpt>
      <trkpt lat="47.5353" lon="-2.76065">
        <ele>-22.6</ele>
        <time>2021-08-05T13:20:34Z</time>
      </trkpt>
      <trkpt lat="47.5353" lon="-2.76067">
        <ele>-22.6</ele>
        <time>2021-08-05T13:20:35Z</time>
      </trkpt>
      <trkpt lat="47.5353" lon="-2.76068">
        <ele>-22.6</ele>
        <time>2021-08-05T13:20:36Z</time>
      </trkpt>
      <trkpt lat="47.53531" lon="-2.7607">
        <ele>-22.6</ele>
        <time>2021-08-05T13:20:37Z</time>
      </trkpt>
      <trkpt lat="47.53531" lon="-2.76074">
        <ele>-22.6</ele>
        <time>2021-08-05T13:20:39Z</time>
      </trkpt>
      <trkpt lat="47.5353" lon="-2.76077">
        <ele>-22.6</ele>
        <time>2021-08-05T13:20:40Z</time>
      </trkpt>
      <trkpt lat="47.5353" lon="-2.76079">
        <ele>-22.4</ele>
        <time>2021-08-05T13:20:41Z</time>
      </trkpt>
      <trkpt lat="47.5353" lon="-2.76081">
        <ele>-22.4</ele>
        <time>2021-08-05T13:20:42Z</time>
      </trkpt>
      <trkpt lat="47.5353" lon="-2.76087">
        <ele>-22.4</ele>
        <time>2021-08-05T13:20:44Z</time>
      </trkpt>
      <trkpt lat="47.53529" lon="-2.76091">
        <ele>-22.2</ele>
        <time>2021-08-05T13:20:45Z</time>
      </trkpt>
      <trkpt lat="47.53529" lon="-2.76094">
        <ele>-22.4</ele>
        <time>2021-08-05T13:20:46Z</time>
      </trkpt>
      <trkpt lat="47.53528" lon="-2.76098">
        <ele>-22.4</ele>
        <time>2021-08-05T13:20:47Z</time>
      </trkpt>
      <trkpt lat="47.53528" lon="-2.76105">
        <ele>-22.2</ele>
        <time>2021-08-05T13:20:49Z</time>
      </trkpt>
      <trkpt lat="47.53528" lon="-2.76108">
        <ele>-22</ele>
        <time>2021-08-05T13:20:50Z</time>
      </trkpt>
      <trkpt lat="47.53529" lon="-2.76112">
        <ele>-22</ele>
        <time>2021-08-05T13:20:51Z</time>
      </trkpt>
      <trkpt lat="47.53529" lon="-2.76115">
        <ele>-21.8</ele>
        <time>2021-08-05T13:20:52Z</time>
      </trkpt>
      <trkpt lat="47.53529" lon="-2.76119">
        <ele>-21.6</ele>
        <time>2021-08-05T13:20:53Z</time>
      </trkpt>
      <trkpt lat="47.5353" lon="-2.76122">
        <ele>-21.6</ele>
        <time>2021-08-05T13:20:54Z</time>
      </trkpt>
      <trkpt lat="47.5353" lon="-2.76126">
        <ele>-21.4</ele>
        <time>2021-08-05T13:20:55Z</time>
      </trkpt>
      <trkpt lat="47.5353" lon="-2.7613">
        <ele>-21.4</ele>
        <time>2021-08-05T13:20:56Z</time>
      </trkpt>
      <trkpt lat="47.53532" lon="-2.76132">
        <ele>-21.2</ele>
        <time>2021-08-05T13:20:57Z</time>
      </trkpt>
      <trkpt lat="47.53533" lon="-2.76134">
        <ele>-21</ele>
        <time>2021-08-05T13:20:58Z</time>
      </trkpt>
      <trkpt lat="47.53534" lon="-2.76137">
        <ele>-20.8</ele>
        <time>2021-08-05T13:20:59Z</time>
      </trkpt>
      <trkpt lat="47.53535" lon="-2.7614">
        <ele>-20.8</ele>
        <time>2021-08-05T13:21:00Z</time>
      </trkpt>
      <trkpt lat="47.53535" lon="-2.76143">
        <ele>-20.8</ele>
        <time>2021-08-05T13:21:01Z</time>
      </trkpt>
      <trkpt lat="47.53535" lon="-2.76146">
        <ele>-20.6</ele>
        <time>2021-08-05T13:21:02Z</time>
      </trkpt>
      <trkpt lat="47.53538" lon="-2.76154">
        <ele>-20.6</ele>
        <time>2021-08-05T13:21:04Z</time>
      </trkpt>
      <trkpt lat="47.5354" lon="-2.76159">
        <ele>-20.6</ele>
        <time>2021-08-05T13:21:05Z</time>
      </trkpt>
      <trkpt lat="47.5354" lon="-2.76163">
        <ele>-20.6</ele>
        <time>2021-08-05T13:21:06Z</time>
      </trkpt>
      <trkpt lat="47.5354" lon="-2.76166">
        <ele>-20.6</ele>
        <time>2021-08-05T13:21:07Z</time>
      </trkpt>
      <trkpt lat="47.5354" lon="-2.76174">
        <ele>-20.6</ele>
        <time>2021-08-05T13:21:09Z</time>
      </trkpt>
      <trkpt lat="47.5354" lon="-2.76177">
        <ele>-20.6</ele>
        <time>2021-08-05T13:21:10Z</time>
      </trkpt>
      <trkpt lat="47.53539" lon="-2.76181">
        <ele>-20.4</ele>
        <time>2021-08-05T13:21:11Z</time>
      </trkpt>
      <trkpt lat="47.53539" lon="-2.76184">
        <ele>-20.4</ele>
        <time>2021-08-05T13:21:12Z</time>
      </trkpt>
      <trkpt lat="47.53537" lon="-2.76189">
        <ele>-20.4</ele>
        <time>2021-08-05T13:21:14Z</time>
      </trkpt>
      <trkpt lat="47.53537" lon="-2.76193">
        <ele>-20.2</ele>
        <time>2021-08-05T13:21:15Z</time>
      </trkpt>
      <trkpt lat="47.53536" lon="-2.76197">
        <ele>-20.2</ele>
        <time>2021-08-05T13:21:16Z</time>
      </trkpt>
      <trkpt lat="47.53535" lon="-2.762">
        <ele>-20.2</ele>
        <time>2021-08-05T13:21:17Z</time>
      </trkpt>
      <trkpt lat="47.53534" lon="-2.76207">
        <ele>-20</ele>
        <time>2021-08-05T13:21:19Z</time>
      </trkpt>
      <trkpt lat="47.53534" lon="-2.7621">
        <ele>-20</ele>
        <time>2021-08-05T13:21:20Z</time>
      </trkpt>
      <trkpt lat="47.53534" lon="-2.76213">
        <ele>-20.2</ele>
        <time>2021-08-05T13:21:21Z</time>
      </trkpt>
      <trkpt lat="47.53533" lon="-2.76216">
        <ele>-20.2</ele>
        <time>2021-08-05T13:21:22Z</time>
      </trkpt>
      <trkpt lat="47.53533" lon="-2.76223">
        <ele>-20</ele>
        <time>2021-08-05T13:21:24Z</time>
      </trkpt>
      <trkpt lat="47.53532" lon="-2.76225">
        <ele>-20</ele>
        <time>2021-08-05T13:21:25Z</time>
      </trkpt>
      <trkpt lat="47.53532" lon="-2.76227">
        <ele>-20</ele>
        <time>2021-08-05T13:21:26Z</time>
      </trkpt>
      <trkpt lat="47.53532" lon="-2.7623">
        <ele>-20</ele>
        <time>2021-08-05T13:21:27Z</time>
      </trkpt>
      <trkpt lat="47.53532" lon="-2.76237">
        <ele>-20</ele>
        <time>2021-08-05T13:21:29Z</time>
      </trkpt>
      <trkpt lat="47.53532" lon="-2.76242">
        <ele>-19.8</ele>
        <time>2021-08-05T13:21:30Z</time>
      </trkpt>
      <trkpt lat="47.53532" lon="-2.76247">
        <ele>-19.8</ele>
        <time>2021-08-05T13:21:31Z</time>
      </trkpt>
      <trkpt lat="47.53531" lon="-2.76252">
        <ele>-19.8</ele>
        <time>2021-08-05T13:21:32Z</time>
      </trkpt>
      <trkpt lat="47.53531" lon="-2.76263">
        <ele>-19.8</ele>
        <time>2021-08-05T13:21:34Z</time>
      </trkpt>
      <trkpt lat="47.53531" lon="-2.76268">
        <ele>-19.8</ele>
        <time>2021-08-05T13:21:35Z</time>
      </trkpt>
      <trkpt lat="47.53531" lon="-2.76273">
        <ele>-19.6</ele>
        <time>2021-08-05T13:21:36Z</time>
      </trkpt>
      <trkpt lat="47.5353" lon="-2.76278">
        <ele>-19.6</ele>
        <time>2021-08-05T13:21:37Z</time>
      </trkpt>
      <trkpt lat="47.53529" lon="-2.76283">
        <ele>-19.6</ele>
        <time>2021-08-05T13:21:38Z</time>
      </trkpt>
      <trkpt lat="47.53529" lon="-2.76287">
        <ele>-19.6</ele>
        <time>2021-08-05T13:21:39Z</time>
      </trkpt>
      <trkpt lat="47.53528" lon="-2.76291">
        <ele>-19.6</ele>
        <time>2021-08-05T13:21:40Z</time>
      </trkpt>
      <trkpt lat="47.53527" lon="-2.76295">
        <ele>-19.6</ele>
        <time>2021-08-05T13:21:41Z</time>
      </trkpt>
      <trkpt lat="47.53527" lon="-2.76299">
        <ele>-19.4</ele>
        <time>2021-08-05T13:21:42Z</time>
      </trkpt>
      <trkpt lat="47.53526" lon="-2.76303">
        <ele>-19.4</ele>
        <time>2021-08-05T13:21:43Z</time>
      </trkpt>
      <trkpt lat="47.53526" lon="-2.76307">
        <ele>-19.4</ele>
        <time>2021-08-05T13:21:44Z</time>
      </trkpt>
      <trkpt lat="47.53526" lon="-2.76311">
        <ele>-19.4</ele>
        <time>2021-08-05T13:21:45Z</time>
      </trkpt>
      <trkpt lat="47.53525" lon="-2.76315">
        <ele>-19.2</ele>
        <time>2021-08-05T13:21:46Z</time>
      </trkpt>
      <trkpt lat="47.53525" lon="-2.76319">
        <ele>-19.2</ele>
        <time>2021-08-05T13:21:47Z</time>
      </trkpt>
      <trkpt lat="47.53524" lon="-2.76327">
        <ele>-19.2</ele>
        <time>2021-08-05T13:21:49Z</time>
      </trkpt>
      <trkpt lat="47.53524" lon="-2.76329">
        <ele>-19.2</ele>
        <time>2021-08-05T13:21:50Z</time>
      </trkpt>
      <trkpt lat="47.53524" lon="-2.76332">
        <ele>-19.2</ele>
        <time>2021-08-05T13:21:51Z</time>
      </trkpt>
      <trkpt lat="47.53524" lon="-2.76336">
        <ele>-19.4</ele>
        <time>2021-08-05T13:21:52Z</time>
      </trkpt>
      <trkpt lat="47.53523" lon="-2.76343">
        <ele>-19.2</ele>
        <time>2021-08-05T13:21:54Z</time>
      </trkpt>
      <trkpt lat="47.53522" lon="-2.76347">
        <ele>-19.2</ele>
        <time>2021-08-05T13:21:55Z</time>
      </trkpt>
      <trkpt lat="47.53521" lon="-2.76352">
        <ele>-19.2</ele>
        <time>2021-08-05T13:21:56Z</time>
      </trkpt>
      <trkpt lat="47.5352" lon="-2.76358">
        <ele>-19.2</ele>
        <time>2021-08-05T13:21:57Z</time>
      </trkpt>
      <trkpt lat="47.53518" lon="-2.76371">
        <ele>-19.2</ele>
        <time>2021-08-05T13:21:59Z</time>
      </trkpt>
      <trkpt lat="47.53517" lon="-2.76378">
        <ele>-19</ele>
        <time>2021-08-05T13:22:00Z</time>
      </trkpt>
      <trkpt lat="47.53515" lon="-2.76392">
        <ele>-19</ele>
        <time>2021-08-05T13:22:02Z</time>
      </trkpt>
      <trkpt lat="47.53512" lon="-2.76404">
        <ele>-19</ele>
        <time>2021-08-05T13:22:04Z</time>
      </trkpt>
      <trkpt lat="47.5351" lon="-2.7641">
        <ele>-19</ele>
        <time>2021-08-05T13:22:05Z</time>
      </trkpt>
      <trkpt lat="47.53509" lon="-2.76414">
        <ele>-19</ele>
        <time>2021-08-05T13:22:06Z</time>
      </trkpt>
      <trkpt lat="47.53508" lon="-2.76419">
        <ele>-19</ele>
        <time>2021-08-05T13:22:07Z</time>
      </trkpt>
      <trkpt lat="47.53508" lon="-2.76427">
        <ele>-19</ele>
        <time>2021-08-05T13:22:09Z</time>
      </trkpt>
      <trkpt lat="47.53507" lon="-2.76432">
        <ele>-19</ele>
        <time>2021-08-05T13:22:10Z</time>
      </trkpt>
      <trkpt lat="47.53505" lon="-2.76442">
        <ele>-19.2</ele>
        <time>2021-08-05T13:22:12Z</time>
      </trkpt>
      <trkpt lat="47.53503" lon="-2.76451">
        <ele>-19.6</ele>
        <time>2021-08-05T13:22:14Z</time>
      </trkpt>
      <trkpt lat="47.53502" lon="-2.76456">
        <ele>-19.8</ele>
        <time>2021-08-05T13:22:15Z</time>
      </trkpt>
      <trkpt lat="47.53501" lon="-2.76464">
        <ele>-20</ele>
        <time>2021-08-05T13:22:17Z</time>
      </trkpt>
      <trkpt lat="47.535" lon="-2.76468">
        <ele>-20.2</ele>
        <time>2021-08-05T13:22:18Z</time>
      </trkpt>
      <trkpt lat="47.53499" lon="-2.76473">
        <ele>-20.4</ele>
        <time>2021-08-05T13:22:19Z</time>
      </trkpt>
      <trkpt lat="47.53498" lon="-2.76477">
        <ele>-20.8</ele>
        <time>2021-08-05T13:22:20Z</time>
      </trkpt>
      <trkpt lat="47.53497" lon="-2.76482">
        <ele>-21.2</ele>
        <time>2021-08-05T13:22:21Z</time>
      </trkpt>
      <trkpt lat="47.53495" lon="-2.76486">
        <ele>-21.4</ele>
        <time>2021-08-05T13:22:22Z</time>
      </trkpt>
      <trkpt lat="47.53494" lon="-2.76496">
        <ele>-21.8</ele>
        <time>2021-08-05T13:22:24Z</time>
      </trkpt>
      <trkpt lat="47.53493" lon="-2.765">
        <ele>-22</ele>
        <time>2021-08-05T13:22:25Z</time>
      </trkpt>
      <trkpt lat="47.53492" lon="-2.76508">
        <ele>-22.2</ele>
        <time>2021-08-05T13:22:27Z</time>
      </trkpt>
      <trkpt lat="47.53491" lon="-2.76515">
        <ele>-22.4</ele>
        <time>2021-08-05T13:22:29Z</time>
      </trkpt>
      <trkpt lat="47.5349" lon="-2.76518">
        <ele>-22.4</ele>
        <time>2021-08-05T13:22:30Z</time>
      </trkpt>
      <trkpt lat="47.5349" lon="-2.76521">
        <ele>-22.6</ele>
        <time>2021-08-05T13:22:31Z</time>
      </trkpt>
      <trkpt lat="47.53489" lon="-2.76525">
        <ele>-22.6</ele>
        <time>2021-08-05T13:22:32Z</time>
      </trkpt>
      <trkpt lat="47.5349" lon="-2.76532">
        <ele>-22.8</ele>
        <time>2021-08-05T13:22:34Z</time>
      </trkpt>
      <trkpt lat="47.5349" lon="-2.76537">
        <ele>-22.8</ele>
        <time>2021-08-05T13:22:35Z</time>
      </trkpt>
      <trkpt lat="47.5349" lon="-2.76546">
        <ele>-22.8</ele>
        <time>2021-08-05T13:22:37Z</time>
      </trkpt>
      <trkpt lat="47.53492" lon="-2.76556">
        <ele>-22.8</ele>
        <time>2021-08-05T13:22:39Z</time>
      </trkpt>
      <trkpt lat="47.53492" lon="-2.76561">
        <ele>-22.8</ele>
        <time>2021-08-05T13:22:40Z</time>
      </trkpt>
      <trkpt lat="47.53492" lon="-2.76565">
        <ele>-22.8</ele>
        <time>2021-08-05T13:22:41Z</time>
      </trkpt>
      <trkpt lat="47.53492" lon="-2.76569">
        <ele>-23</ele>
        <time>2021-08-05T13:22:42Z</time>
      </trkpt>
      <trkpt lat="47.53492" lon="-2.76578">
        <ele>-23</ele>
        <time>2021-08-05T13:22:44Z</time>
      </trkpt>
      <trkpt lat="47.53492" lon="-2.76582">
        <ele>-23</ele>
        <time>2021-08-05T13:22:45Z</time>
      </trkpt>
      <trkpt lat="47.53491" lon="-2.76587">
        <ele>-23</ele>
        <time>2021-08-05T13:22:46Z</time>
      </trkpt>
      <trkpt lat="47.53491" lon="-2.76591">
        <ele>-23</ele>
        <time>2021-08-05T13:22:47Z</time>
      </trkpt>
      <trkpt lat="47.53491" lon="-2.766">
        <ele>-23</ele>
        <time>2021-08-05T13:22:49Z</time>
      </trkpt>
      <trkpt lat="47.53491" lon="-2.76605">
        <ele>-23</ele>
        <time>2021-08-05T13:22:50Z</time>
      </trkpt>
      <trkpt lat="47.5349" lon="-2.76609">
        <ele>-23</ele>
        <time>2021-08-05T13:22:51Z</time>
      </trkpt>
      <trkpt lat="47.5349" lon="-2.76613">
        <ele>-22.8</ele>
        <time>2021-08-05T13:22:52Z</time>
      </trkpt>
      <trkpt lat="47.53491" lon="-2.76622">
        <ele>-22.8</ele>
        <time>2021-08-05T13:22:54Z</time>
      </trkpt>
      <trkpt lat="47.53492" lon="-2.76627">
        <ele>-23</ele>
        <time>2021-08-05T13:22:55Z</time>
      </trkpt>
      <trkpt lat="47.53492" lon="-2.76633">
        <ele>-23</ele>
        <time>2021-08-05T13:22:56Z</time>
      </trkpt>
      <trkpt lat="47.53493" lon="-2.76637">
        <ele>-22.8</ele>
        <time>2021-08-05T13:22:57Z</time>
      </trkpt>
      <trkpt lat="47.53495" lon="-2.76645">
        <ele>-22.8</ele>
        <time>2021-08-05T13:22:59Z</time>
      </trkpt>
      <trkpt lat="47.53496" lon="-2.76648">
        <ele>-22.8</ele>
        <time>2021-08-05T13:23:00Z</time>
      </trkpt>
      <trkpt lat="47.53496" lon="-2.7665">
        <ele>-22.8</ele>
        <time>2021-08-05T13:23:01Z</time>
      </trkpt>
      <trkpt lat="47.53497" lon="-2.76653">
        <ele>-22.8</ele>
        <time>2021-08-05T13:23:02Z</time>
      </trkpt>
      <trkpt lat="47.53499" lon="-2.76659">
        <ele>-22.8</ele>
        <time>2021-08-05T13:23:04Z</time>
      </trkpt>
      <trkpt lat="47.53499" lon="-2.76663">
        <ele>-22.8</ele>
        <time>2021-08-05T13:23:05Z</time>
      </trkpt>
      <trkpt lat="47.535" lon="-2.76666">
        <ele>-22.8</ele>
        <time>2021-08-05T13:23:06Z</time>
      </trkpt>
      <trkpt lat="47.53501" lon="-2.76669">
        <ele>-22.8</ele>
        <time>2021-08-05T13:23:07Z</time>
      </trkpt>
      <trkpt lat="47.53502" lon="-2.76676">
        <ele>-22.8</ele>
        <time>2021-08-05T13:23:09Z</time>
      </trkpt>
      <trkpt lat="47.53502" lon="-2.7668">
        <ele>-22.8</ele>
        <time>2021-08-05T13:23:10Z</time>
      </trkpt>
      <trkpt lat="47.53501" lon="-2.76687">
        <ele>-23</ele>
        <time>2021-08-05T13:23:12Z</time>
      </trkpt>
      <trkpt lat="47.53502" lon="-2.76694">
        <ele>-23</ele>
        <time>2021-08-05T13:23:14Z</time>
      </trkpt>
      <trkpt lat="47.53501" lon="-2.76699">
        <ele>-23</ele>
        <time>2021-08-05T13:23:15Z</time>
      </trkpt>
      <trkpt lat="47.53502" lon="-2.76709">
        <ele>-23</ele>
        <time>2021-08-05T13:23:17Z</time>
      </trkpt>
      <trkpt lat="47.53502" lon="-2.76714">
        <ele>-23</ele>
        <time>2021-08-05T13:23:18Z</time>
      </trkpt>
      <trkpt lat="47.53503" lon="-2.76718">
        <ele>-23</ele>
        <time>2021-08-05T13:23:19Z</time>
      </trkpt>
      <trkpt lat="47.53503" lon="-2.76724">
        <ele>-23</ele>
        <time>2021-08-05T13:23:20Z</time>
      </trkpt>
      <trkpt lat="47.53503" lon="-2.76734">
        <ele>-23</ele>
        <time>2021-08-05T13:23:22Z</time>
      </trkpt>
      <trkpt lat="47.53504" lon="-2.76746">
        <ele>-23</ele>
        <time>2021-08-05T13:23:24Z</time>
      </trkpt>
      <trkpt lat="47.53505" lon="-2.76752">
        <ele>-23</ele>
        <time>2021-08-05T13:23:25Z</time>
      </trkpt>
      <trkpt lat="47.53507" lon="-2.76762">
        <ele>-23</ele>
        <time>2021-08-05T13:23:27Z</time>
      </trkpt>
      <trkpt lat="47.53509" lon="-2.76773">
        <ele>-23</ele>
        <time>2021-08-05T13:23:29Z</time>
      </trkpt>
      <trkpt lat="47.5351" lon="-2.76778">
        <ele>-23</ele>
        <time>2021-08-05T13:23:30Z</time>
      </trkpt>
      <trkpt lat="47.53511" lon="-2.76782">
        <ele>-23</ele>
        <time>2021-08-05T13:23:31Z</time>
      </trkpt>
      <trkpt lat="47.53512" lon="-2.76786">
        <ele>-23</ele>
        <time>2021-08-05T13:23:32Z</time>
      </trkpt>
      <trkpt lat="47.53511" lon="-2.76794">
        <ele>-22.8</ele>
        <time>2021-08-05T13:23:34Z</time>
      </trkpt>
      <trkpt lat="47.53511" lon="-2.76798">
        <ele>-22.8</ele>
        <time>2021-08-05T13:23:35Z</time>
      </trkpt>
      <trkpt lat="47.53511" lon="-2.76807">
        <ele>-22.8</ele>
        <time>2021-08-05T13:23:37Z</time>
      </trkpt>
      <trkpt lat="47.53511" lon="-2.76816">
        <ele>-22.8</ele>
        <time>2021-08-05T13:23:39Z</time>
      </trkpt>
      <trkpt lat="47.53511" lon="-2.7682">
        <ele>-22.8</ele>
        <time>2021-08-05T13:23:40Z</time>
      </trkpt>
      <trkpt lat="47.53511" lon="-2.76826">
        <ele>-23</ele>
        <time>2021-08-05T13:23:42Z</time>
      </trkpt>
      <trkpt lat="47.53511" lon="-2.76828">
        <ele>-23</ele>
        <time>2021-08-05T13:23:43Z</time>
      </trkpt>
      <trkpt lat="47.53512" lon="-2.76829">
        <ele>-23</ele>
        <time>2021-08-05T13:23:44Z</time>
      </trkpt>
      <trkpt lat="47.53512" lon="-2.76834">
        <ele>-29.2</ele>
        <time>2021-08-05T13:24:35Z</time>
      </trkpt>
      <trkpt lat="47.53512" lon="-2.76835">
        <ele>-29.2</ele>
        <time>2021-08-05T13:24:36Z</time>
      </trkpt>
      <trkpt lat="47.53512" lon="-2.76837">
        <ele>-29.4</ele>
        <time>2021-08-05T13:24:37Z</time>
      </trkpt>
      <trkpt lat="47.53512" lon="-2.76839">
        <ele>-29.6</ele>
        <time>2021-08-05T13:24:38Z</time>
      </trkpt>
      <trkpt lat="47.53513" lon="-2.76841">
        <ele>-29.8</ele>
        <time>2021-08-05T13:24:39Z</time>
      </trkpt>
      <trkpt lat="47.53513" lon="-2.76844">
        <ele>-30</ele>
        <time>2021-08-05T13:24:40Z</time>
      </trkpt>
      <trkpt lat="47.53513" lon="-2.76847">
        <ele>-30</ele>
        <time>2021-08-05T13:24:41Z</time>
      </trkpt>
      <trkpt lat="47.53514" lon="-2.7685">
        <ele>-30.4</ele>
        <time>2021-08-05T13:24:42Z</time>
      </trkpt>
      <trkpt lat="47.53514" lon="-2.76852">
        <ele>-30.4</ele>
        <time>2021-08-05T13:24:43Z</time>
      </trkpt>
      <trkpt lat="47.53514" lon="-2.76854">
        <ele>-30.4</ele>
        <time>2021-08-05T13:24:44Z</time>
      </trkpt>
      <trkpt lat="47.53514" lon="-2.76856">
        <ele>-30.6</ele>
        <time>2021-08-05T13:24:45Z</time>
      </trkpt>
      <trkpt lat="47.53514" lon="-2.76859">
        <ele>-30.6</ele>
        <time>2021-08-05T13:24:46Z</time>
      </trkpt>
      <trkpt lat="47.53515" lon="-2.76862">
        <ele>-30.6</ele>
        <time>2021-08-05T13:24:47Z</time>
      </trkpt>
      <trkpt lat="47.53515" lon="-2.76866">
        <ele>-30.6</ele>
        <time>2021-08-05T13:24:48Z</time>
      </trkpt>
      <trkpt lat="47.53516" lon="-2.7687">
        <ele>-30.6</ele>
        <time>2021-08-05T13:24:49Z</time>
      </trkpt>
      <trkpt lat="47.53516" lon="-2.76874">
        <ele>-30.8</ele>
        <time>2021-08-05T13:24:50Z</time>
      </trkpt>
      <trkpt lat="47.53516" lon="-2.76879">
        <ele>-30.8</ele>
        <time>2021-08-05T13:24:51Z</time>
      </trkpt>
      <trkpt lat="47.53516" lon="-2.76884">
        <ele>-30.8</ele>
        <time>2021-08-05T13:24:52Z</time>
      </trkpt>
      <trkpt lat="47.53516" lon="-2.76892">
        <ele>-31</ele>
        <time>2021-08-05T13:24:54Z</time>
      </trkpt>
      <trkpt lat="47.53515" lon="-2.76897">
        <ele>-31</ele>
        <time>2021-08-05T13:24:55Z</time>
      </trkpt>
      <trkpt lat="47.53516" lon="-2.769">
        <ele>-31.2</ele>
        <time>2021-08-05T13:24:56Z</time>
      </trkpt>
      <trkpt lat="47.53516" lon="-2.76904">
        <ele>-31.2</ele>
        <time>2021-08-05T13:24:57Z</time>
      </trkpt>
      <trkpt lat="47.53515" lon="-2.76913">
        <ele>-31.2</ele>
        <time>2021-08-05T13:24:59Z</time>
      </trkpt>
      <trkpt lat="47.53515" lon="-2.76918">
        <ele>-31.2</ele>
        <time>2021-08-05T13:25:00Z</time>
      </trkpt>
      <trkpt lat="47.53515" lon="-2.76922">
        <ele>-31.2</ele>
        <time>2021-08-05T13:25:01Z</time>
      </trkpt>
      <trkpt lat="47.53516" lon="-2.76927">
        <ele>-31.2</ele>
        <time>2021-08-05T13:25:02Z</time>
      </trkpt>
      <trkpt lat="47.53516" lon="-2.76937">
        <ele>-31</ele>
        <time>2021-08-05T13:25:04Z</time>
      </trkpt>
      <trkpt lat="47.53515" lon="-2.76942">
        <ele>-31</ele>
        <time>2021-08-05T13:25:05Z</time>
      </trkpt>
      <trkpt lat="47.53515" lon="-2.76948">
        <ele>-31.2</ele>
        <time>2021-08-05T13:25:06Z</time>
      </trkpt>
      <trkpt lat="47.53514" lon="-2.76954">
        <ele>-31.2</ele>
        <time>2021-08-05T13:25:07Z</time>
      </trkpt>
      <trkpt lat="47.53514" lon="-2.76964">
        <ele>-31.2</ele>
        <time>2021-08-05T13:25:09Z</time>
      </trkpt>
      <trkpt lat="47.53514" lon="-2.7697">
        <ele>-31.2</ele>
        <time>2021-08-05T13:25:10Z</time>
      </trkpt>
      <trkpt lat="47.53514" lon="-2.76976">
        <ele>-31.2</ele>
        <time>2021-08-05T13:25:11Z</time>
      </trkpt>
      <trkpt lat="47.53514" lon="-2.76982">
        <ele>-31.2</ele>
        <time>2021-08-05T13:25:12Z</time>
      </trkpt>
      <trkpt lat="47.53513" lon="-2.76994">
        <ele>-31.2</ele>
        <time>2021-08-05T13:25:14Z</time>
      </trkpt>
      <trkpt lat="47.53512" lon="-2.77">
        <ele>-31.2</ele>
        <time>2021-08-05T13:25:15Z</time>
      </trkpt>
      <trkpt lat="47.53511" lon="-2.77006">
        <ele>-31.6</ele>
        <time>2021-08-05T13:25:16Z</time>
      </trkpt>
      <trkpt lat="47.5351" lon="-2.77012">
        <ele>-31.6</ele>
        <time>2021-08-05T13:25:17Z</time>
      </trkpt>
      <trkpt lat="47.53507" lon="-2.77025">
        <ele>-31.6</ele>
        <time>2021-08-05T13:25:19Z</time>
      </trkpt>
      <trkpt lat="47.53506" lon="-2.77031">
        <ele>-31.6</ele>
        <time>2021-08-05T13:25:20Z</time>
      </trkpt>
      <trkpt lat="47.53505" lon="-2.77037">
        <ele>-31.8</ele>
        <time>2021-08-05T13:25:21Z</time>
      </trkpt>
      <trkpt lat="47.53504" lon="-2.77043">
        <ele>-31.8</ele>
        <time>2021-08-05T13:25:22Z</time>
      </trkpt>
      <trkpt lat="47.53502" lon="-2.77054">
        <ele>-31.8</ele>
        <time>2021-08-05T13:25:24Z</time>
      </trkpt>
      <trkpt lat="47.53501" lon="-2.77059">
        <ele>-31.8</ele>
        <time>2021-08-05T13:25:25Z</time>
      </trkpt>
      <trkpt lat="47.53499" lon="-2.77064">
        <ele>-32</ele>
        <time>2021-08-05T13:25:26Z</time>
      </trkpt>
      <trkpt lat="47.53498" lon="-2.7707">
        <ele>-32</ele>
        <time>2021-08-05T13:25:27Z</time>
      </trkpt>
      <trkpt lat="47.53496" lon="-2.77075">
        <ele>-32</ele>
        <time>2021-08-05T13:25:28Z</time>
      </trkpt>
      <trkpt lat="47.53495" lon="-2.77081">
        <ele>-32.2</ele>
        <time>2021-08-05T13:25:29Z</time>
      </trkpt>
      <trkpt lat="47.53493" lon="-2.77086">
        <ele>-32.2</ele>
        <time>2021-08-05T13:25:30Z</time>
      </trkpt>
      <trkpt lat="47.53491" lon="-2.77091">
        <ele>-32.6</ele>
        <time>2021-08-05T13:25:31Z</time>
      </trkpt>
      <trkpt lat="47.53489" lon="-2.77096">
        <ele>-32.6</ele>
        <time>2021-08-05T13:25:32Z</time>
      </trkpt>
      <trkpt lat="47.53487" lon="-2.77102">
        <ele>-32.6</ele>
        <time>2021-08-05T13:25:33Z</time>
      </trkpt>
      <trkpt lat="47.53486" lon="-2.77108">
        <ele>-32.6</ele>
        <time>2021-08-05T13:25:34Z</time>
      </trkpt>
      <trkpt lat="47.53485" lon="-2.77113">
        <ele>-32.8</ele>
        <time>2021-08-05T13:25:35Z</time>
      </trkpt>
      <trkpt lat="47.53484" lon="-2.77119">
        <ele>-32.8</ele>
        <time>2021-08-05T13:25:36Z</time>
      </trkpt>
      <trkpt lat="47.53483" lon="-2.77125">
        <ele>-33</ele>
        <time>2021-08-05T13:25:37Z</time>
      </trkpt>
      <trkpt lat="47.53481" lon="-2.77137">
        <ele>-33.2</ele>
        <time>2021-08-05T13:25:39Z</time>
      </trkpt>
      <trkpt lat="47.53481" lon="-2.77143">
        <ele>-33.4</ele>
        <time>2021-08-05T13:25:40Z</time>
      </trkpt>
      <trkpt lat="47.5348" lon="-2.77149">
        <ele>-33.6</ele>
        <time>2021-08-05T13:25:41Z</time>
      </trkpt>
      <trkpt lat="47.53479" lon="-2.77155">
        <ele>-34</ele>
        <time>2021-08-05T13:25:42Z</time>
      </trkpt>
      <trkpt lat="47.53477" lon="-2.77166">
        <ele>-34.2</ele>
        <time>2021-08-05T13:25:44Z</time>
      </trkpt>
      <trkpt lat="47.53477" lon="-2.77172">
        <ele>-34.4</ele>
        <time>2021-08-05T13:25:45Z</time>
      </trkpt>
      <trkpt lat="47.53477" lon="-2.77178">
        <ele>-34.4</ele>
        <time>2021-08-05T13:25:46Z</time>
      </trkpt>
      <trkpt lat="47.53476" lon="-2.77184">
        <ele>-34.6</ele>
        <time>2021-08-05T13:25:47Z</time>
      </trkpt>
      <trkpt lat="47.53475" lon="-2.77195">
        <ele>-34.8</ele>
        <time>2021-08-05T13:25:49Z</time>
      </trkpt>
      <trkpt lat="47.53475" lon="-2.772">
        <ele>-35</ele>
        <time>2021-08-05T13:25:50Z</time>
      </trkpt>
      <trkpt lat="47.53474" lon="-2.77205">
        <ele>-35.2</ele>
        <time>2021-08-05T13:25:51Z</time>
      </trkpt>
      <trkpt lat="47.53474" lon="-2.77209">
        <ele>-35.6</ele>
        <time>2021-08-05T13:25:52Z</time>
      </trkpt>
      <trkpt lat="47.53474" lon="-2.77214">
        <ele>-35.6</ele>
        <time>2021-08-05T13:25:53Z</time>
      </trkpt>
      <trkpt lat="47.53474" lon="-2.77219">
        <ele>-35.6</ele>
        <time>2021-08-05T13:25:54Z</time>
      </trkpt>
      <trkpt lat="47.53473" lon="-2.77224">
        <ele>-35.6</ele>
        <time>2021-08-05T13:25:55Z</time>
      </trkpt>
      <trkpt lat="47.53473" lon="-2.77229">
        <ele>-35.6</ele>
        <time>2021-08-05T13:25:56Z</time>
      </trkpt>
      <trkpt lat="47.53473" lon="-2.77233">
        <ele>-35.6</ele>
        <time>2021-08-05T13:25:57Z</time>
      </trkpt>
      <trkpt lat="47.53472" lon="-2.77243">
        <ele>-35.6</ele>
        <time>2021-08-05T13:25:59Z</time>
      </trkpt>
      <trkpt lat="47.53472" lon="-2.77248">
        <ele>-35.6</ele>
        <time>2021-08-05T13:26:00Z</time>
      </trkpt>
      <trkpt lat="47.53471" lon="-2.77253">
        <ele>-35.6</ele>
        <time>2021-08-05T13:26:01Z</time>
      </trkpt>
      <trkpt lat="47.53471" lon="-2.77258">
        <ele>-35.6</ele>
        <time>2021-08-05T13:26:02Z</time>
      </trkpt>
      <trkpt lat="47.53471" lon="-2.77268">
        <ele>-35.4</ele>
        <time>2021-08-05T13:26:04Z</time>
      </trkpt>
      <trkpt lat="47.5347" lon="-2.77273">
        <ele>-35.6</ele>
        <time>2021-08-05T13:26:05Z</time>
      </trkpt>
      <trkpt lat="47.5347" lon="-2.77278">
        <ele>-35.4</ele>
        <time>2021-08-05T13:26:06Z</time>
      </trkpt>
      <trkpt lat="47.5347" lon="-2.77283">
        <ele>-35.4</ele>
        <time>2021-08-05T13:26:07Z</time>
      </trkpt>
      <trkpt lat="47.53469" lon="-2.77293">
        <ele>-35.4</ele>
        <time>2021-08-05T13:26:09Z</time>
      </trkpt>
      <trkpt lat="47.53469" lon="-2.77298">
        <ele>-35.4</ele>
        <time>2021-08-05T13:26:10Z</time>
      </trkpt>
      <trkpt lat="47.53469" lon="-2.77304">
        <ele>-35.4</ele>
        <time>2021-08-05T13:26:11Z</time>
      </trkpt>
      <trkpt lat="47.53469" lon="-2.77309">
        <ele>-35.4</ele>
        <time>2021-08-05T13:26:12Z</time>
      </trkpt>
      <trkpt lat="47.53468" lon="-2.77319">
        <ele>-35.4</ele>
        <time>2021-08-05T13:26:14Z</time>
      </trkpt>
      <trkpt lat="47.53468" lon="-2.77325">
        <ele>-35.4</ele>
        <time>2021-08-05T13:26:15Z</time>
      </trkpt>
      <trkpt lat="47.53467" lon="-2.7733">
        <ele>-35.6</ele>
        <time>2021-08-05T13:26:16Z</time>
      </trkpt>
      <trkpt lat="47.53467" lon="-2.77336">
        <ele>-35.8</ele>
        <time>2021-08-05T13:26:17Z</time>
      </trkpt>
      <trkpt lat="47.53467" lon="-2.77346">
        <ele>-35.8</ele>
        <time>2021-08-05T13:26:19Z</time>
      </trkpt>
      <trkpt lat="47.53466" lon="-2.77352">
        <ele>-36</ele>
        <time>2021-08-05T13:26:20Z</time>
      </trkpt>
      <trkpt lat="47.53466" lon="-2.77357">
        <ele>-36</ele>
        <time>2021-08-05T13:26:21Z</time>
      </trkpt>
      <trkpt lat="47.53466" lon="-2.77363">
        <ele>-36.2</ele>
        <time>2021-08-05T13:26:22Z</time>
      </trkpt>
      <trkpt lat="47.53466" lon="-2.77369">
        <ele>-36.4</ele>
        <time>2021-08-05T13:26:23Z</time>
      </trkpt>
      <trkpt lat="47.53465" lon="-2.77374">
        <ele>-36.8</ele>
        <time>2021-08-05T13:26:24Z</time>
      </trkpt>
      <trkpt lat="47.53465" lon="-2.77379">
        <ele>-36.8</ele>
        <time>2021-08-05T13:26:25Z</time>
      </trkpt>
      <trkpt lat="47.53465" lon="-2.77384">
        <ele>-37.2</ele>
        <time>2021-08-05T13:26:26Z</time>
      </trkpt>
      <trkpt lat="47.53465" lon="-2.7739">
        <ele>-37.6</ele>
        <time>2021-08-05T13:26:27Z</time>
      </trkpt>
      <trkpt lat="47.53464" lon="-2.77395">
        <ele>-37.8</ele>
        <time>2021-08-05T13:26:28Z</time>
      </trkpt>
      <trkpt lat="47.53464" lon="-2.774">
        <ele>-38.2</ele>
        <time>2021-08-05T13:26:29Z</time>
      </trkpt>
      <trkpt lat="47.53464" lon="-2.77405">
        <ele>-38.4</ele>
        <time>2021-08-05T13:26:30Z</time>
      </trkpt>
      <trkpt lat="47.53463" lon="-2.7741">
        <ele>-38.6</ele>
        <time>2021-08-05T13:26:31Z</time>
      </trkpt>
      <trkpt lat="47.53463" lon="-2.77415">
        <ele>-39</ele>
        <time>2021-08-05T13:26:32Z</time>
      </trkpt>
      <trkpt lat="47.53462" lon="-2.77425">
        <ele>-39.8</ele>
        <time>2021-08-05T13:26:34Z</time>
      </trkpt>
      <trkpt lat="47.53462" lon="-2.7743">
        <ele>-40.2</ele>
        <time>2021-08-05T13:26:35Z</time>
      </trkpt>
      <trkpt lat="47.53462" lon="-2.77435">
        <ele>-40.8</ele>
        <time>2021-08-05T13:26:36Z</time>
      </trkpt>
      <trkpt lat="47.53462" lon="-2.7744">
        <ele>-41</ele>
        <time>2021-08-05T13:26:37Z</time>
      </trkpt>
      <trkpt lat="47.53462" lon="-2.77444">
        <ele>-41.2</ele>
        <time>2021-08-05T13:26:38Z</time>
      </trkpt>
      <trkpt lat="47.53461" lon="-2.77449">
        <ele>-41.6</ele>
        <time>2021-08-05T13:26:39Z</time>
      </trkpt>
      <trkpt lat="47.53461" lon="-2.77453">
        <ele>-42</ele>
        <time>2021-08-05T13:26:40Z</time>
      </trkpt>
      <trkpt lat="47.53461" lon="-2.77458">
        <ele>-42.2</ele>
        <time>2021-08-05T13:26:41Z</time>
      </trkpt>
      <trkpt lat="47.5346" lon="-2.77462">
        <ele>-42.4</ele>
        <time>2021-08-05T13:26:42Z</time>
      </trkpt>
      <trkpt lat="47.5346" lon="-2.77471">
        <ele>-42.8</ele>
        <time>2021-08-05T13:26:44Z</time>
      </trkpt>
      <trkpt lat="47.53459" lon="-2.77476">
        <ele>-43</ele>
        <time>2021-08-05T13:26:45Z</time>
      </trkpt>
      <trkpt lat="47.53459" lon="-2.77481">
        <ele>-43.2</ele>
        <time>2021-08-05T13:26:46Z</time>
      </trkpt>
      <trkpt lat="47.53459" lon="-2.77485">
        <ele>-43.2</ele>
        <time>2021-08-05T13:26:47Z</time>
      </trkpt>
      <trkpt lat="47.53458" lon="-2.77495">
        <ele>-43.6</ele>
        <time>2021-08-05T13:26:49Z</time>
      </trkpt>
      <trkpt lat="47.53457" lon="-2.775">
        <ele>-43.8</ele>
        <time>2021-08-05T13:26:50Z</time>
      </trkpt>
      <trkpt lat="47.53456" lon="-2.77505">
        <ele>-44</ele>
        <time>2021-08-05T13:26:51Z</time>
      </trkpt>
      <trkpt lat="47.53456" lon="-2.7751">
        <ele>-44</ele>
        <time>2021-08-05T13:26:52Z</time>
      </trkpt>
      <trkpt lat="47.53454" lon="-2.7752">
        <ele>-44.6</ele>
        <time>2021-08-05T13:26:54Z</time>
      </trkpt>
      <trkpt lat="47.53453" lon="-2.77525">
        <ele>-44.8</ele>
        <time>2021-08-05T13:26:55Z</time>
      </trkpt>
      <trkpt lat="47.53452" lon="-2.77529">
        <ele>-45</ele>
        <time>2021-08-05T13:26:56Z</time>
      </trkpt>
      <trkpt lat="47.5345" lon="-2.77534">
        <ele>-45.2</ele>
        <time>2021-08-05T13:26:57Z</time>
      </trkpt>
      <trkpt lat="47.53448" lon="-2.77542">
        <ele>-45.6</ele>
        <time>2021-08-05T13:26:59Z</time>
      </trkpt>
      <trkpt lat="47.53446" lon="-2.77546">
        <ele>-45.8</ele>
        <time>2021-08-05T13:27:00Z</time>
      </trkpt>
      <trkpt lat="47.53445" lon="-2.77549">
        <ele>-46</ele>
        <time>2021-08-05T13:27:01Z</time>
      </trkpt>
      <trkpt lat="47.53444" lon="-2.77552">
        <ele>-46.4</ele>
        <time>2021-08-05T13:27:02Z</time>
      </trkpt>
      <trkpt lat="47.53441" lon="-2.77558">
        <ele>-47</ele>
        <time>2021-08-05T13:27:04Z</time>
      </trkpt>
      <trkpt lat="47.5344" lon="-2.77562">
        <ele>-47.2</ele>
        <time>2021-08-05T13:27:05Z</time>
      </trkpt>
      <trkpt lat="47.53439" lon="-2.77565">
        <ele>-47.4</ele>
        <time>2021-08-05T13:27:06Z</time>
      </trkpt>
      <trkpt lat="47.53437" lon="-2.77569">
        <ele>-47.4</ele>
        <time>2021-08-05T13:27:07Z</time>
      </trkpt>
      <trkpt lat="47.53436" lon="-2.77573">
        <ele>-47.8</ele>
        <time>2021-08-05T13:27:08Z</time>
      </trkpt>
      <trkpt lat="47.53434" lon="-2.77577">
        <ele>-48</ele>
        <time>2021-08-05T13:27:09Z</time>
      </trkpt>
      <trkpt lat="47.53432" lon="-2.77582">
        <ele>-48.2</ele>
        <time>2021-08-05T13:27:10Z</time>
      </trkpt>
      <trkpt lat="47.5343" lon="-2.77586">
        <ele>-48.4</ele>
        <time>2021-08-05T13:27:11Z</time>
      </trkpt>
      <trkpt lat="47.53428" lon="-2.7759">
        <ele>-48.6</ele>
        <time>2021-08-05T13:27:12Z</time>
      </trkpt>
      <trkpt lat="47.53424" lon="-2.776">
        <ele>-48.8</ele>
        <time>2021-08-05T13:27:14Z</time>
      </trkpt>
      <trkpt lat="47.53422" lon="-2.77604">
        <ele>-49</ele>
        <time>2021-08-05T13:27:15Z</time>
      </trkpt>
      <trkpt lat="47.53419" lon="-2.77609">
        <ele>-49</ele>
        <time>2021-08-05T13:27:16Z</time>
      </trkpt>
      <trkpt lat="47.53417" lon="-2.77614">
        <ele>-49.2</ele>
        <time>2021-08-05T13:27:17Z</time>
      </trkpt>
      <trkpt lat="47.53413" lon="-2.77624">
        <ele>-49.6</ele>
        <time>2021-08-05T13:27:19Z</time>
      </trkpt>
      <trkpt lat="47.53411" lon="-2.77628">
        <ele>-49.8</ele>
        <time>2021-08-05T13:27:20Z</time>
      </trkpt>
      <trkpt lat="47.53409" lon="-2.77633">
        <ele>-50.2</ele>
        <time>2021-08-05T13:27:21Z</time>
      </trkpt>
      <trkpt lat="47.53407" lon="-2.77638">
        <ele>-50.4</ele>
        <time>2021-08-05T13:27:22Z</time>
      </trkpt>
      <trkpt lat="47.53403" lon="-2.77646">
        <ele>-50.8</ele>
        <time>2021-08-05T13:27:24Z</time>
      </trkpt>
      <trkpt lat="47.53401" lon="-2.7765">
        <ele>-51</ele>
        <time>2021-08-05T13:27:25Z</time>
      </trkpt>
      <trkpt lat="47.53399" lon="-2.77653">
        <ele>-51.2</ele>
        <time>2021-08-05T13:27:26Z</time>
      </trkpt>
      <trkpt lat="47.53398" lon="-2.77656">
        <ele>-51.2</ele>
        <time>2021-08-05T13:27:27Z</time>
      </trkpt>
      <trkpt lat="47.53397" lon="-2.7766">
        <ele>-51.4</ele>
        <time>2021-08-05T13:27:28Z</time>
      </trkpt>
      <trkpt lat="47.53397" lon="-2.77662">
        <ele>-51.6</ele>
        <time>2021-08-05T13:27:29Z</time>
      </trkpt>
      <trkpt lat="47.53397" lon="-2.77665">
        <ele>-51.8</ele>
        <time>2021-08-05T13:27:30Z</time>
      </trkpt>
      <trkpt lat="47.53397" lon="-2.77668">
        <ele>-52</ele>
        <time>2021-08-05T13:27:32Z</time>
      </trkpt>
      <trkpt lat="47.53397" lon="-2.77668">
        <ele>-52.2</ele>
        <time>2021-08-05T13:27:33Z</time>
      </trkpt>
      <trkpt lat="47.53396" lon="-2.77668">
        <ele>-52.4</ele>
        <time>2021-08-05T13:27:34Z</time>
      </trkpt>
      <trkpt lat="47.53396" lon="-2.77668">
        <ele>-57.4</ele>
        <time>2021-08-05T13:27:55Z</time>
      </trkpt>
      <trkpt lat="47.53396" lon="-2.77669">
        <ele>-57.8</ele>
        <time>2021-08-05T13:27:56Z</time>
      </trkpt>
      <trkpt lat="47.53395" lon="-2.7767">
        <ele>-58.2</ele>
        <time>2021-08-05T13:27:57Z</time>
      </trkpt>
      <trkpt lat="47.53394" lon="-2.77671">
        <ele>-58.8</ele>
        <time>2021-08-05T13:27:58Z</time>
      </trkpt>
      <trkpt lat="47.53394" lon="-2.77674">
        <ele>-59.2</ele>
        <time>2021-08-05T13:27:59Z</time>
      </trkpt>
      <trkpt lat="47.53394" lon="-2.77677">
        <ele>-59.4</ele>
        <time>2021-08-05T13:28:00Z</time>
      </trkpt>
      <trkpt lat="47.53395" lon="-2.7768">
        <ele>-59.8</ele>
        <time>2021-08-05T13:28:01Z</time>
      </trkpt>
      <trkpt lat="47.53396" lon="-2.77684">
        <ele>-60.2</ele>
        <time>2021-08-05T13:28:02Z</time>
      </trkpt>
      <trkpt lat="47.53397" lon="-2.77688">
        <ele>-60.6</ele>
        <time>2021-08-05T13:28:03Z</time>
      </trkpt>
      <trkpt lat="47.53397" lon="-2.77692">
        <ele>-61</ele>
        <time>2021-08-05T13:28:04Z</time>
      </trkpt>
      <trkpt lat="47.53396" lon="-2.77696">
        <ele>-61.6</ele>
        <time>2021-08-05T13:28:05Z</time>
      </trkpt>
      <trkpt lat="47.53395" lon="-2.777">
        <ele>-62</ele>
        <time>2021-08-05T13:28:06Z</time>
      </trkpt>
      <trkpt lat="47.53393" lon="-2.77703">
        <ele>-62.4</ele>
        <time>2021-08-05T13:28:07Z</time>
      </trkpt>
      <trkpt lat="47.53392" lon="-2.77707">
        <ele>-62.8</ele>
        <time>2021-08-05T13:28:08Z</time>
      </trkpt>
      <trkpt lat="47.53391" lon="-2.7771">
        <ele>-63</ele>
        <time>2021-08-05T13:28:09Z</time>
      </trkpt>
      <trkpt lat="47.53391" lon="-2.77714">
        <ele>-63.8</ele>
        <time>2021-08-05T13:28:10Z</time>
      </trkpt>
      <trkpt lat="47.5339" lon="-2.77718">
        <ele>-64</ele>
        <time>2021-08-05T13:28:11Z</time>
      </trkpt>
      <trkpt lat="47.5339" lon="-2.77722">
        <ele>-64.4</ele>
        <time>2021-08-05T13:28:12Z</time>
      </trkpt>
      <trkpt lat="47.53389" lon="-2.77727">
        <ele>-64.6</ele>
        <time>2021-08-05T13:28:13Z</time>
      </trkpt>
      <trkpt lat="47.53389" lon="-2.77731">
        <ele>-64.8</ele>
        <time>2021-08-05T13:28:14Z</time>
      </trkpt>
      <trkpt lat="47.53389" lon="-2.77736">
        <ele>-65.2</ele>
        <time>2021-08-05T13:28:15Z</time>
      </trkpt>
      <trkpt lat="47.5339" lon="-2.77741">
        <ele>-65.4</ele>
        <time>2021-08-05T13:28:16Z</time>
      </trkpt>
      <trkpt lat="47.5339" lon="-2.77745">
        <ele>-65.4</ele>
        <time>2021-08-05T13:28:17Z</time>
      </trkpt>
      <trkpt lat="47.53391" lon="-2.7775">
        <ele>-65.4</ele>
        <time>2021-08-05T13:28:18Z</time>
      </trkpt>
      <trkpt lat="47.53391" lon="-2.77754">
        <ele>-65.6</ele>
        <time>2021-08-05T13:28:19Z</time>
      </trkpt>
      <trkpt lat="47.53392" lon="-2.77759">
        <ele>-65.6</ele>
        <time>2021-08-05T13:28:20Z</time>
      </trkpt>
      <trkpt lat="47.53392" lon="-2.77762">
        <ele>-65.6</ele>
        <time>2021-08-05T13:28:21Z</time>
      </trkpt>
      <trkpt lat="47.53393" lon="-2.77766">
        <ele>-65.8</ele>
        <time>2021-08-05T13:28:22Z</time>
      </trkpt>
      <trkpt lat="47.53394" lon="-2.7777">
        <ele>-66</ele>
        <time>2021-08-05T13:28:23Z</time>
      </trkpt>
      <trkpt lat="47.53395" lon="-2.77773">
        <ele>-66</ele>
        <time>2021-08-05T13:28:24Z</time>
      </trkpt>
      <trkpt lat="47.53396" lon="-2.77777">
        <ele>-66.2</ele>
        <time>2021-08-05T13:28:25Z</time>
      </trkpt>
      <trkpt lat="47.53397" lon="-2.7778">
        <ele>-66.2</ele>
        <time>2021-08-05T13:28:26Z</time>
      </trkpt>
      <trkpt lat="47.53398" lon="-2.77784">
        <ele>-66.2</ele>
        <time>2021-08-05T13:28:27Z</time>
      </trkpt>
      <trkpt lat="47.53399" lon="-2.77787">
        <ele>-66.2</ele>
        <time>2021-08-05T13:28:28Z</time>
      </trkpt>
      <trkpt lat="47.534" lon="-2.7779">
        <ele>-66.2</ele>
        <time>2021-08-05T13:28:29Z</time>
      </trkpt>
      <trkpt lat="47.53401" lon="-2.77793">
        <ele>-66.2</ele>
        <time>2021-08-05T13:28:30Z</time>
      </trkpt>
      <trkpt lat="47.53402" lon="-2.77797">
        <ele>-66.2</ele>
        <time>2021-08-05T13:28:31Z</time>
      </trkpt>
      <trkpt lat="47.53404" lon="-2.77799">
        <ele>-66.2</ele>
        <time>2021-08-05T13:28:32Z</time>
      </trkpt>
      <trkpt lat="47.53405" lon="-2.77803">
        <ele>-66.2</ele>
        <time>2021-08-05T13:28:33Z</time>
      </trkpt>
      <trkpt lat="47.53407" lon="-2.77806">
        <ele>-66.2</ele>
        <time>2021-08-05T13:28:34Z</time>
      </trkpt>
      <trkpt lat="47.53408" lon="-2.77809">
        <ele>-66.4</ele>
        <time>2021-08-05T13:28:35Z</time>
      </trkpt>
      <trkpt lat="47.5341" lon="-2.77812">
        <ele>-66.4</ele>
        <time>2021-08-05T13:28:36Z</time>
      </trkpt>
      <trkpt lat="47.53411" lon="-2.77815">
        <ele>-66.2</ele>
        <time>2021-08-05T13:28:37Z</time>
      </trkpt>
      <trkpt lat="47.53412" lon="-2.77818">
        <ele>-66.4</ele>
        <time>2021-08-05T13:28:38Z</time>
      </trkpt>
      <trkpt lat="47.53413" lon="-2.77821">
        <ele>-66.4</ele>
        <time>2021-08-05T13:28:39Z</time>
      </trkpt>
      <trkpt lat="47.53414" lon="-2.77824">
        <ele>-66.2</ele>
        <time>2021-08-05T13:28:40Z</time>
      </trkpt>
      <trkpt lat="47.53414" lon="-2.77827">
        <ele>-66.2</ele>
        <time>2021-08-05T13:28:41Z</time>
      </trkpt>
      <trkpt lat="47.53415" lon="-2.77831">
        <ele>-66.2</ele>
        <time>2021-08-05T13:28:42Z</time>
      </trkpt>
      <trkpt lat="47.53416" lon="-2.77834">
        <ele>-66.4</ele>
        <time>2021-08-05T13:28:43Z</time>
      </trkpt>
      <trkpt lat="47.53416" lon="-2.77839">
        <ele>-66.4</ele>
        <time>2021-08-05T13:28:44Z</time>
      </trkpt>
      <trkpt lat="47.53417" lon="-2.77844">
        <ele>-66.2</ele>
        <time>2021-08-05T13:28:45Z</time>
      </trkpt>
      <trkpt lat="47.53418" lon="-2.7785">
        <ele>-66.2</ele>
        <time>2021-08-05T13:28:46Z</time>
      </trkpt>
      <trkpt lat="47.53418" lon="-2.77855">
        <ele>-66.2</ele>
        <time>2021-08-05T13:28:47Z</time>
      </trkpt>
      <trkpt lat="47.53419" lon="-2.77861">
        <ele>-66.4</ele>
        <time>2021-08-05T13:28:48Z</time>
      </trkpt>
      <trkpt lat="47.53419" lon="-2.77867">
        <ele>-66.2</ele>
        <time>2021-08-05T13:28:49Z</time>
      </trkpt>
      <trkpt lat="47.5342" lon="-2.77873">
        <ele>-66.2</ele>
        <time>2021-08-05T13:28:50Z</time>
      </trkpt>
      <trkpt lat="47.5342" lon="-2.77879">
        <ele>-66.2</ele>
        <time>2021-08-05T13:28:51Z</time>
      </trkpt>
      <trkpt lat="47.5342" lon="-2.77884">
        <ele>-66.4</ele>
        <time>2021-08-05T13:28:52Z</time>
      </trkpt>
      <trkpt lat="47.53419" lon="-2.7789">
        <ele>-66.4</ele>
        <time>2021-08-05T13:28:53Z</time>
      </trkpt>
      <trkpt lat="47.53419" lon="-2.77896">
        <ele>-66.4</ele>
        <time>2021-08-05T13:28:54Z</time>
      </trkpt>
      <trkpt lat="47.53418" lon="-2.77902">
        <ele>-66.4</ele>
        <time>2021-08-05T13:28:55Z</time>
      </trkpt>
      <trkpt lat="47.53418" lon="-2.77907">
        <ele>-66.4</ele>
        <time>2021-08-05T13:28:56Z</time>
      </trkpt>
      <trkpt lat="47.53417" lon="-2.77913">
        <ele>-66.2</ele>
        <time>2021-08-05T13:28:57Z</time>
      </trkpt>
      <trkpt lat="47.53417" lon="-2.77918">
        <ele>-66.2</ele>
        <time>2021-08-05T13:28:58Z</time>
      </trkpt>
      <trkpt lat="47.53417" lon="-2.77923">
        <ele>-66.2</ele>
        <time>2021-08-05T13:28:59Z</time>
      </trkpt>
      <trkpt lat="47.53416" lon="-2.77928">
        <ele>-66.2</ele>
        <time>2021-08-05T13:29:00Z</time>
      </trkpt>
      <trkpt lat="47.53415" lon="-2.77933">
        <ele>-66.2</ele>
        <time>2021-08-05T13:29:01Z</time>
      </trkpt>
      <trkpt lat="47.53415" lon="-2.77939">
        <ele>-66.4</ele>
        <time>2021-08-05T13:29:02Z</time>
      </trkpt>
      <trkpt lat="47.53414" lon="-2.77944">
        <ele>-66.4</ele>
        <time>2021-08-05T13:29:03Z</time>
      </trkpt>
      <trkpt lat="47.53413" lon="-2.77949">
        <ele>-66.2</ele>
        <time>2021-08-05T13:29:04Z</time>
      </trkpt>
      <trkpt lat="47.53413" lon="-2.77955">
        <ele>-66.2</ele>
        <time>2021-08-05T13:29:05Z</time>
      </trkpt>
      <trkpt lat="47.53413" lon="-2.7796">
        <ele>-66.2</ele>
        <time>2021-08-05T13:29:06Z</time>
      </trkpt>
      <trkpt lat="47.53413" lon="-2.77965">
        <ele>-66.2</ele>
        <time>2021-08-05T13:29:07Z</time>
      </trkpt>
      <trkpt lat="47.53412" lon="-2.7797">
        <ele>-66.2</ele>
        <time>2021-08-05T13:29:08Z</time>
      </trkpt>
      <trkpt lat="47.53412" lon="-2.77975">
        <ele>-66</ele>
        <time>2021-08-05T13:29:09Z</time>
      </trkpt>
      <trkpt lat="47.53411" lon="-2.7798">
        <ele>-66.2</ele>
        <time>2021-08-05T13:29:10Z</time>
      </trkpt>
      <trkpt lat="47.5341" lon="-2.77986">
        <ele>-66.2</ele>
        <time>2021-08-05T13:29:11Z</time>
      </trkpt>
      <trkpt lat="47.53409" lon="-2.77991">
        <ele>-66.2</ele>
        <time>2021-08-05T13:29:12Z</time>
      </trkpt>
      <trkpt lat="47.53408" lon="-2.77996">
        <ele>-66</ele>
        <time>2021-08-05T13:29:13Z</time>
      </trkpt>
      <trkpt lat="47.53407" lon="-2.78">
        <ele>-66</ele>
        <time>2021-08-05T13:29:14Z</time>
      </trkpt>
      <trkpt lat="47.53407" lon="-2.78005">
        <ele>-66</ele>
        <time>2021-08-05T13:29:15Z</time>
      </trkpt>
      <trkpt lat="47.53406" lon="-2.78009">
        <ele>-66</ele>
        <time>2021-08-05T13:29:16Z</time>
      </trkpt>
      <trkpt lat="47.53405" lon="-2.78013">
        <ele>-66</ele>
        <time>2021-08-05T13:29:17Z</time>
      </trkpt>
      <trkpt lat="47.53404" lon="-2.78017">
        <ele>-66</ele>
        <time>2021-08-05T13:29:18Z</time>
      </trkpt>
      <trkpt lat="47.53403" lon="-2.78021">
        <ele>-66</ele>
        <time>2021-08-05T13:29:19Z</time>
      </trkpt>
      <trkpt lat="47.53402" lon="-2.78024">
        <ele>-66</ele>
        <time>2021-08-05T13:29:20Z</time>
      </trkpt>
      <trkpt lat="47.53402" lon="-2.78028">
        <ele>-66</ele>
        <time>2021-08-05T13:29:21Z</time>
      </trkpt>
      <trkpt lat="47.53401" lon="-2.78032">
        <ele>-66</ele>
        <time>2021-08-05T13:29:22Z</time>
      </trkpt>
      <trkpt lat="47.534" lon="-2.78035">
        <ele>-66.2</ele>
        <time>2021-08-05T13:29:23Z</time>
      </trkpt>
      <trkpt lat="47.53399" lon="-2.7804">
        <ele>-66.2</ele>
        <time>2021-08-05T13:29:24Z</time>
      </trkpt>
      <trkpt lat="47.53398" lon="-2.78044">
        <ele>-66.2</ele>
        <time>2021-08-05T13:29:25Z</time>
      </trkpt>
      <trkpt lat="47.53397" lon="-2.7805">
        <ele>-66.2</ele>
        <time>2021-08-05T13:29:26Z</time>
      </trkpt>
      <trkpt lat="47.53396" lon="-2.78055">
        <ele>-66.2</ele>
        <time>2021-08-05T13:29:27Z</time>
      </trkpt>
      <trkpt lat="47.53395" lon="-2.78061">
        <ele>-66.6</ele>
        <time>2021-08-05T13:29:28Z</time>
      </trkpt>
      <trkpt lat="47.53394" lon="-2.78066">
        <ele>-66.6</ele>
        <time>2021-08-05T13:29:29Z</time>
      </trkpt>
      <trkpt lat="47.53392" lon="-2.78071">
        <ele>-66.8</ele>
        <time>2021-08-05T13:29:30Z</time>
      </trkpt>
      <trkpt lat="47.53391" lon="-2.78076">
        <ele>-67</ele>
        <time>2021-08-05T13:29:31Z</time>
      </trkpt>
      <trkpt lat="47.5339" lon="-2.78081">
        <ele>-67.2</ele>
        <time>2021-08-05T13:29:32Z</time>
      </trkpt>
      <trkpt lat="47.5339" lon="-2.78086">
        <ele>-67.2</ele>
        <time>2021-08-05T13:29:33Z</time>
      </trkpt>
      <trkpt lat="47.53389" lon="-2.7809">
        <ele>-67.4</ele>
        <time>2021-08-05T13:29:34Z</time>
      </trkpt>
      <trkpt lat="47.53388" lon="-2.78095">
        <ele>-67.8</ele>
        <time>2021-08-05T13:29:35Z</time>
      </trkpt>
      <trkpt lat="47.53387" lon="-2.78099">
        <ele>-68</ele>
        <time>2021-08-05T13:29:36Z</time>
      </trkpt>
      <trkpt lat="47.53386" lon="-2.78102">
        <ele>-68.4</ele>
        <time>2021-08-05T13:29:37Z</time>
      </trkpt>
      <trkpt lat="47.53385" lon="-2.78106">
        <ele>-68.8</ele>
        <time>2021-08-05T13:29:38Z</time>
      </trkpt>
      <trkpt lat="47.53384" lon="-2.78109">
        <ele>-68.8</ele>
        <time>2021-08-05T13:29:39Z</time>
      </trkpt>
      <trkpt lat="47.53384" lon="-2.78112">
        <ele>-69</ele>
        <time>2021-08-05T13:29:40Z</time>
      </trkpt>
      <trkpt lat="47.53383" lon="-2.78115">
        <ele>-69.2</ele>
        <time>2021-08-05T13:29:41Z</time>
      </trkpt>
      <trkpt lat="47.53382" lon="-2.78118">
        <ele>-69.2</ele>
        <time>2021-08-05T13:29:42Z</time>
      </trkpt>
      <trkpt lat="47.53381" lon="-2.78122">
        <ele>-69.2</ele>
        <time>2021-08-05T13:29:43Z</time>
      </trkpt>
      <trkpt lat="47.5338" lon="-2.78126">
        <ele>-69.4</ele>
        <time>2021-08-05T13:29:44Z</time>
      </trkpt>
      <trkpt lat="47.53379" lon="-2.78131">
        <ele>-69.4</ele>
        <time>2021-08-05T13:29:45Z</time>
      </trkpt>
      <trkpt lat="47.53378" lon="-2.78135">
        <ele>-69.8</ele>
        <time>2021-08-05T13:29:46Z</time>
      </trkpt>
      <trkpt lat="47.53377" lon="-2.7814">
        <ele>-70</ele>
        <time>2021-08-05T13:29:47Z</time>
      </trkpt>
      <trkpt lat="47.53376" lon="-2.78144">
        <ele>-70</ele>
        <time>2021-08-05T13:29:48Z</time>
      </trkpt>
      <trkpt lat="47.53375" lon="-2.78149">
        <ele>-70.2</ele>
        <time>2021-08-05T13:29:49Z</time>
      </trkpt>
      <trkpt lat="47.53374" lon="-2.78152">
        <ele>-70.6</ele>
        <time>2021-08-05T13:29:50Z</time>
      </trkpt>
      <trkpt lat="47.53374" lon="-2.78155">
        <ele>-70.6</ele>
        <time>2021-08-05T13:29:51Z</time>
      </trkpt>
      <trkpt lat="47.53374" lon="-2.78157">
        <ele>-70.8</ele>
        <time>2021-08-05T13:29:52Z</time>
      </trkpt>
      <trkpt lat="47.53374" lon="-2.7816">
        <ele>-71</ele>
        <time>2021-08-05T13:29:53Z</time>
      </trkpt>
      <trkpt lat="47.53373" lon="-2.78163">
        <ele>-71</ele>
        <time>2021-08-05T13:29:54Z</time>
      </trkpt>
      <trkpt lat="47.53373" lon="-2.78165">
        <ele>-71.2</ele>
        <time>2021-08-05T13:29:55Z</time>
      </trkpt>
      <trkpt lat="47.53373" lon="-2.78168">
        <ele>-71.4</ele>
        <time>2021-08-05T13:29:56Z</time>
      </trkpt>
      <trkpt lat="47.53373" lon="-2.7817">
        <ele>-71.8</ele>
        <time>2021-08-05T13:29:57Z</time>
      </trkpt>
      <trkpt lat="47.53373" lon="-2.78172">
        <ele>-71.8</ele>
        <time>2021-08-05T13:29:58Z</time>
      </trkpt>
      <trkpt lat="47.53372" lon="-2.78174">
        <ele>-71.8</ele>
        <time>2021-08-05T13:29:59Z</time>
      </trkpt>
      <trkpt lat="47.53372" lon="-2.78177">
        <ele>-72</ele>
        <time>2021-08-05T13:30:00Z</time>
      </trkpt>
      <trkpt lat="47.53371" lon="-2.78179">
        <ele>-72</ele>
        <time>2021-08-05T13:30:01Z</time>
      </trkpt>
      <trkpt lat="47.5337" lon="-2.78182">
        <ele>-72</ele>
        <time>2021-08-05T13:30:02Z</time>
      </trkpt>
      <trkpt lat="47.5337" lon="-2.78185">
        <ele>-72</ele>
        <time>2021-08-05T13:30:03Z</time>
      </trkpt>
      <trkpt lat="47.53369" lon="-2.78189">
        <ele>-72</ele>
        <time>2021-08-05T13:30:04Z</time>
      </trkpt>
      <trkpt lat="47.53369" lon="-2.78192">
        <ele>-72</ele>
        <time>2021-08-05T13:30:05Z</time>
      </trkpt>
      <trkpt lat="47.53368" lon="-2.78195">
        <ele>-72</ele>
        <time>2021-08-05T13:30:06Z</time>
      </trkpt>
      <trkpt lat="47.53367" lon="-2.782">
        <ele>-72</ele>
        <time>2021-08-05T13:30:07Z</time>
      </trkpt>
      <trkpt lat="47.53366" lon="-2.78204">
        <ele>-72.2</ele>
        <time>2021-08-05T13:30:08Z</time>
      </trkpt>
      <trkpt lat="47.53366" lon="-2.78208">
        <ele>-72</ele>
        <time>2021-08-05T13:30:09Z</time>
      </trkpt>
      <trkpt lat="47.53365" lon="-2.78212">
        <ele>-72</ele>
        <time>2021-08-05T13:30:10Z</time>
      </trkpt>
      <trkpt lat="47.53364" lon="-2.78217">
        <ele>-72</ele>
        <time>2021-08-05T13:30:11Z</time>
      </trkpt>
      <trkpt lat="47.53362" lon="-2.78221">
        <ele>-71.8</ele>
        <time>2021-08-05T13:30:12Z</time>
      </trkpt>
      <trkpt lat="47.53361" lon="-2.78225">
        <ele>-71.8</ele>
        <time>2021-08-05T13:30:13Z</time>
      </trkpt>
      <trkpt lat="47.5336" lon="-2.78229">
        <ele>-71.8</ele>
        <time>2021-08-05T13:30:14Z</time>
      </trkpt>
      <trkpt lat="47.53359" lon="-2.78234">
        <ele>-71.6</ele>
        <time>2021-08-05T13:30:15Z</time>
      </trkpt>
      <trkpt lat="47.53358" lon="-2.78237">
        <ele>-71.2</ele>
        <time>2021-08-05T13:30:16Z</time>
      </trkpt>
      <trkpt lat="47.53358" lon="-2.78242">
        <ele>-71.4</ele>
        <time>2021-08-05T13:30:17Z</time>
      </trkpt>
      <trkpt lat="47.53357" lon="-2.78247">
        <ele>-71.2</ele>
        <time>2021-08-05T13:30:18Z</time>
      </trkpt>
      <trkpt lat="47.53355" lon="-2.78253">
        <ele>-70.8</ele>
        <time>2021-08-05T13:30:19Z</time>
      </trkpt>
      <trkpt lat="47.53354" lon="-2.78258">
        <ele>-70.6</ele>
        <time>2021-08-05T13:30:20Z</time>
      </trkpt>
      <trkpt lat="47.53353" lon="-2.78264">
        <ele>-70.6</ele>
        <time>2021-08-05T13:30:21Z</time>
      </trkpt>
      <trkpt lat="47.53353" lon="-2.7827">
        <ele>-70</ele>
        <time>2021-08-05T13:30:22Z</time>
      </trkpt>
      <trkpt lat="47.53352" lon="-2.78276">
        <ele>-69.8</ele>
        <time>2021-08-05T13:30:23Z</time>
      </trkpt>
      <trkpt lat="47.53351" lon="-2.78282">
        <ele>-69.8</ele>
        <time>2021-08-05T13:30:24Z</time>
      </trkpt>
      <trkpt lat="47.5335" lon="-2.78288">
        <ele>-69.4</ele>
        <time>2021-08-05T13:30:25Z</time>
      </trkpt>
      <trkpt lat="47.53349" lon="-2.78293">
        <ele>-69.4</ele>
        <time>2021-08-05T13:30:26Z</time>
      </trkpt>
      <trkpt lat="47.53348" lon="-2.78299">
        <ele>-69.4</ele>
        <time>2021-08-05T13:30:27Z</time>
      </trkpt>
      <trkpt lat="47.53347" lon="-2.78304">
        <ele>-69.2</ele>
        <time>2021-08-05T13:30:28Z</time>
      </trkpt>
      <trkpt lat="47.53346" lon="-2.78309">
        <ele>-69.4</ele>
        <time>2021-08-05T13:30:29Z</time>
      </trkpt>
      <trkpt lat="47.53346" lon="-2.78314">
        <ele>-69.4</ele>
        <time>2021-08-05T13:30:30Z</time>
      </trkpt>
      <trkpt lat="47.53345" lon="-2.78319">
        <ele>-69.2</ele>
        <time>2021-08-05T13:30:31Z</time>
      </trkpt>
      <trkpt lat="47.53345" lon="-2.78323">
        <ele>-69.2</ele>
        <time>2021-08-05T13:30:32Z</time>
      </trkpt>
      <trkpt lat="47.53344" lon="-2.78327">
        <ele>-69.2</ele>
        <time>2021-08-05T13:30:33Z</time>
      </trkpt>
      <trkpt lat="47.53343" lon="-2.78331">
        <ele>-69</ele>
        <time>2021-08-05T13:30:34Z</time>
      </trkpt>
      <trkpt lat="47.53343" lon="-2.78335">
        <ele>-69</ele>
        <time>2021-08-05T13:30:35Z</time>
      </trkpt>
      <trkpt lat="47.53343" lon="-2.78338">
        <ele>-69</ele>
        <time>2021-08-05T13:30:36Z</time>
      </trkpt>
      <trkpt lat="47.53343" lon="-2.78342">
        <ele>-69</ele>
        <time>2021-08-05T13:30:37Z</time>
      </trkpt>
      <trkpt lat="47.53343" lon="-2.78346">
        <ele>-69</ele>
        <time>2021-08-05T13:30:38Z</time>
      </trkpt>
      <trkpt lat="47.53343" lon="-2.7835">
        <ele>-69</ele>
        <time>2021-08-05T13:30:39Z</time>
      </trkpt>
      <trkpt lat="47.53343" lon="-2.78354">
        <ele>-69</ele>
        <time>2021-08-05T13:30:40Z</time>
      </trkpt>
      <trkpt lat="47.53343" lon="-2.78358">
        <ele>-69</ele>
        <time>2021-08-05T13:30:41Z</time>
      </trkpt>
      <trkpt lat="47.53343" lon="-2.78362">
        <ele>-69</ele>
        <time>2021-08-05T13:30:42Z</time>
      </trkpt>
      <trkpt lat="47.53343" lon="-2.78366">
        <ele>-69</ele>
        <time>2021-08-05T13:30:43Z</time>
      </trkpt>
      <trkpt lat="47.53343" lon="-2.78369">
        <ele>-68.8</ele>
        <time>2021-08-05T13:30:44Z</time>
      </trkpt>
      <trkpt lat="47.53342" lon="-2.78373">
        <ele>-69</ele>
        <time>2021-08-05T13:30:45Z</time>
      </trkpt>
      <trkpt lat="47.53342" lon="-2.78377">
        <ele>-68.8</ele>
        <time>2021-08-05T13:30:46Z</time>
      </trkpt>
      <trkpt lat="47.53342" lon="-2.7838">
        <ele>-68.8</ele>
        <time>2021-08-05T13:30:47Z</time>
      </trkpt>
      <trkpt lat="47.53341" lon="-2.78384">
        <ele>-68.8</ele>
        <time>2021-08-05T13:30:48Z</time>
      </trkpt>
      <trkpt lat="47.5334" lon="-2.78388">
        <ele>-68.8</ele>
        <time>2021-08-05T13:30:49Z</time>
      </trkpt>
      <trkpt lat="47.5334" lon="-2.78392">
        <ele>-68.8</ele>
        <time>2021-08-05T13:30:50Z</time>
      </trkpt>
      <trkpt lat="47.5334" lon="-2.78396">
        <ele>-68.8</ele>
        <time>2021-08-05T13:30:51Z</time>
      </trkpt>
      <trkpt lat="47.53339" lon="-2.784">
        <ele>-68.8</ele>
        <time>2021-08-05T13:30:52Z</time>
      </trkpt>
      <trkpt lat="47.53339" lon="-2.78405">
        <ele>-68.6</ele>
        <time>2021-08-05T13:30:53Z</time>
      </trkpt>
      <trkpt lat="47.5334" lon="-2.78409">
        <ele>-68.6</ele>
        <time>2021-08-05T13:30:54Z</time>
      </trkpt>
      <trkpt lat="47.5334" lon="-2.78414">
        <ele>-68.6</ele>
        <time>2021-08-05T13:30:55Z</time>
      </trkpt>
      <trkpt lat="47.53341" lon="-2.78418">
        <ele>-68.6</ele>
        <time>2021-08-05T13:30:56Z</time>
      </trkpt>
      <trkpt lat="47.53343" lon="-2.78422">
        <ele>-68.6</ele>
        <time>2021-08-05T13:30:57Z</time>
      </trkpt>
      <trkpt lat="47.53344" lon="-2.78425">
        <ele>-68.4</ele>
        <time>2021-08-05T13:30:58Z</time>
      </trkpt>
      <trkpt lat="47.53346" lon="-2.78428">
        <ele>-68.4</ele>
        <time>2021-08-05T13:30:59Z</time>
      </trkpt>
      <trkpt lat="47.53347" lon="-2.78431">
        <ele>-68.6</ele>
        <time>2021-08-05T13:31:00Z</time>
      </trkpt>
      <trkpt lat="47.53349" lon="-2.78434">
        <ele>-68.6</ele>
        <time>2021-08-05T13:31:01Z</time>
      </trkpt>
      <trkpt lat="47.5335" lon="-2.78437">
        <ele>-68.6</ele>
        <time>2021-08-05T13:31:02Z</time>
      </trkpt>
      <trkpt lat="47.53352" lon="-2.7844">
        <ele>-68.6</ele>
        <time>2021-08-05T13:31:03Z</time>
      </trkpt>
      <trkpt lat="47.53353" lon="-2.78443">
        <ele>-68.6</ele>
        <time>2021-08-05T13:31:04Z</time>
      </trkpt>
      <trkpt lat="47.53354" lon="-2.78446">
        <ele>-68.8</ele>
        <time>2021-08-05T13:31:05Z</time>
      </trkpt>
      <trkpt lat="47.53356" lon="-2.78449">
        <ele>-68.8</ele>
        <time>2021-08-05T13:31:06Z</time>
      </trkpt>
      <trkpt lat="47.53357" lon="-2.78452">
        <ele>-68.8</ele>
        <time>2021-08-05T13:31:07Z</time>
      </trkpt>
      <trkpt lat="47.53359" lon="-2.78456">
        <ele>-68.8</ele>
        <time>2021-08-05T13:31:08Z</time>
      </trkpt>
      <trkpt lat="47.5336" lon="-2.78459">
        <ele>-69</ele>
        <time>2021-08-05T13:31:09Z</time>
      </trkpt>
      <trkpt lat="47.53362" lon="-2.78463">
        <ele>-69.2</ele>
        <time>2021-08-05T13:31:10Z</time>
      </trkpt>
      <trkpt lat="47.53363" lon="-2.78466">
        <ele>-69.6</ele>
        <time>2021-08-05T13:31:11Z</time>
      </trkpt>
      <trkpt lat="47.53365" lon="-2.78469">
        <ele>-69.8</ele>
        <time>2021-08-05T13:31:12Z</time>
      </trkpt>
      <trkpt lat="47.53366" lon="-2.78473">
        <ele>-69.8</ele>
        <time>2021-08-05T13:31:13Z</time>
      </trkpt>
      <trkpt lat="47.53368" lon="-2.78476">
        <ele>-70</ele>
        <time>2021-08-05T13:31:14Z</time>
      </trkpt>
      <trkpt lat="47.5337" lon="-2.7848">
        <ele>-70.4</ele>
        <time>2021-08-05T13:31:15Z</time>
      </trkpt>
      <trkpt lat="47.53371" lon="-2.78483">
        <ele>-70.4</ele>
        <time>2021-08-05T13:31:16Z</time>
      </trkpt>
      <trkpt lat="47.53374" lon="-2.78487">
        <ele>-70.4</ele>
        <time>2021-08-05T13:31:17Z</time>
      </trkpt>
      <trkpt lat="47.53376" lon="-2.7849">
        <ele>-70.6</ele>
        <time>2021-08-05T13:31:18Z</time>
      </trkpt>
      <trkpt lat="47.53379" lon="-2.78493">
        <ele>-70.6</ele>
        <time>2021-08-05T13:31:19Z</time>
      </trkpt>
      <trkpt lat="47.53382" lon="-2.78497">
        <ele>-70.8</ele>
        <time>2021-08-05T13:31:20Z</time>
      </trkpt>
      <trkpt lat="47.53385" lon="-2.78499">
        <ele>-70.8</ele>
        <time>2021-08-05T13:31:21Z</time>
      </trkpt>
      <trkpt lat="47.53388" lon="-2.78502">
        <ele>-71.4</ele>
        <time>2021-08-05T13:31:22Z</time>
      </trkpt>
      <trkpt lat="47.53391" lon="-2.78506">
        <ele>-71.4</ele>
        <time>2021-08-05T13:31:23Z</time>
      </trkpt>
      <trkpt lat="47.53394" lon="-2.78509">
        <ele>-71.6</ele>
        <time>2021-08-05T13:31:24Z</time>
      </trkpt>
      <trkpt lat="47.53397" lon="-2.78513">
        <ele>-71.6</ele>
        <time>2021-08-05T13:31:25Z</time>
      </trkpt>
      <trkpt lat="47.534" lon="-2.78516">
        <ele>-72</ele>
        <time>2021-08-05T13:31:26Z</time>
      </trkpt>
      <trkpt lat="47.53404" lon="-2.78519">
        <ele>-72.2</ele>
        <time>2021-08-05T13:31:27Z</time>
      </trkpt>
      <trkpt lat="47.53407" lon="-2.78522">
        <ele>-72.4</ele>
        <time>2021-08-05T13:31:28Z</time>
      </trkpt>
      <trkpt lat="47.53409" lon="-2.78525">
        <ele>-72.8</ele>
        <time>2021-08-05T13:31:29Z</time>
      </trkpt>
      <trkpt lat="47.53411" lon="-2.78529">
        <ele>-72.8</ele>
        <time>2021-08-05T13:31:30Z</time>
      </trkpt>
      <trkpt lat="47.53414" lon="-2.78532">
        <ele>-73</ele>
        <time>2021-08-05T13:31:31Z</time>
      </trkpt>
      <trkpt lat="47.53417" lon="-2.78535">
        <ele>-73</ele>
        <time>2021-08-05T13:31:32Z</time>
      </trkpt>
      <trkpt lat="47.5342" lon="-2.78537">
        <ele>-73</ele>
        <time>2021-08-05T13:31:33Z</time>
      </trkpt>
      <trkpt lat="47.53424" lon="-2.78539">
        <ele>-73</ele>
        <time>2021-08-05T13:31:34Z</time>
      </trkpt>
      <trkpt lat="47.53427" lon="-2.78541">
        <ele>-73.2</ele>
        <time>2021-08-05T13:31:35Z</time>
      </trkpt>
      <trkpt lat="47.53431" lon="-2.78543">
        <ele>-73.2</ele>
        <time>2021-08-05T13:31:36Z</time>
      </trkpt>
      <trkpt lat="47.53434" lon="-2.78545">
        <ele>-73.2</ele>
        <time>2021-08-05T13:31:37Z</time>
      </trkpt>
      <trkpt lat="47.53438" lon="-2.78547">
        <ele>-73.2</ele>
        <time>2021-08-05T13:31:38Z</time>
      </trkpt>
      <trkpt lat="47.53441" lon="-2.78549">
        <ele>-73.2</ele>
        <time>2021-08-05T13:31:39Z</time>
      </trkpt>
      <trkpt lat="47.53445" lon="-2.78551">
        <ele>-73.6</ele>
        <time>2021-08-05T13:31:40Z</time>
      </trkpt>
      <trkpt lat="47.53448" lon="-2.78552">
        <ele>-73.6</ele>
        <time>2021-08-05T13:31:41Z</time>
      </trkpt>
      <trkpt lat="47.53451" lon="-2.78554">
        <ele>-73.6</ele>
        <time>2021-08-05T13:31:42Z</time>
      </trkpt>
      <trkpt lat="47.53454" lon="-2.78556">
        <ele>-73.6</ele>
        <time>2021-08-05T13:31:43Z</time>
      </trkpt>
      <trkpt lat="47.53457" lon="-2.78558">
        <ele>-73.6</ele>
        <time>2021-08-05T13:31:44Z</time>
      </trkpt>
      <trkpt lat="47.5346" lon="-2.7856">
        <ele>-73.8</ele>
        <time>2021-08-05T13:31:45Z</time>
      </trkpt>
      <trkpt lat="47.53463" lon="-2.78562">
        <ele>-73.8</ele>
        <time>2021-08-05T13:31:46Z</time>
      </trkpt>
      <trkpt lat="47.53466" lon="-2.78564">
        <ele>-73.8</ele>
        <time>2021-08-05T13:31:47Z</time>
      </trkpt>
      <trkpt lat="47.53469" lon="-2.78565">
        <ele>-73.8</ele>
        <time>2021-08-05T13:31:48Z</time>
      </trkpt>
      <trkpt lat="47.53471" lon="-2.78566">
        <ele>-73.8</ele>
        <time>2021-08-05T13:31:49Z</time>
      </trkpt>
      <trkpt lat="47.53474" lon="-2.78568">
        <ele>-74</ele>
        <time>2021-08-05T13:31:50Z</time>
      </trkpt>
      <trkpt lat="47.53477" lon="-2.7857">
        <ele>-74</ele>
        <time>2021-08-05T13:31:51Z</time>
      </trkpt>
      <trkpt lat="47.53479" lon="-2.78573">
        <ele>-74.2</ele>
        <time>2021-08-05T13:31:52Z</time>
      </trkpt>
      <trkpt lat="47.53482" lon="-2.78575">
        <ele>-74.2</ele>
        <time>2021-08-05T13:31:53Z</time>
      </trkpt>
      <trkpt lat="47.53485" lon="-2.78578">
        <ele>-74.4</ele>
        <time>2021-08-05T13:31:54Z</time>
      </trkpt>
      <trkpt lat="47.53489" lon="-2.78582">
        <ele>-74.4</ele>
        <time>2021-08-05T13:31:55Z</time>
      </trkpt>
      <trkpt lat="47.53493" lon="-2.78586">
        <ele>-74.4</ele>
        <time>2021-08-05T13:31:56Z</time>
      </trkpt>
      <trkpt lat="47.53497" lon="-2.7859">
        <ele>-74.4</ele>
        <time>2021-08-05T13:31:57Z</time>
      </trkpt>
      <trkpt lat="47.53502" lon="-2.78595">
        <ele>-74.4</ele>
        <time>2021-08-05T13:31:58Z</time>
      </trkpt>
      <trkpt lat="47.53507" lon="-2.786">
        <ele>-74.4</ele>
        <time>2021-08-05T13:31:59Z</time>
      </trkpt>
      <trkpt lat="47.53512" lon="-2.78606">
        <ele>-74.2</ele>
        <time>2021-08-05T13:32:00Z</time>
      </trkpt>
      <trkpt lat="47.53517" lon="-2.78613">
        <ele>-74.2</ele>
        <time>2021-08-05T13:32:01Z</time>
      </trkpt>
      <trkpt lat="47.53522" lon="-2.78619">
        <ele>-74.2</ele>
        <time>2021-08-05T13:32:02Z</time>
      </trkpt>
      <trkpt lat="47.53527" lon="-2.78625">
        <ele>-74.4</ele>
        <time>2021-08-05T13:32:03Z</time>
      </trkpt>
      <trkpt lat="47.53534" lon="-2.7863">
        <ele>-74.4</ele>
        <time>2021-08-05T13:32:04Z</time>
      </trkpt>
      <trkpt lat="47.5354" lon="-2.78635">
        <ele>-74.4</ele>
        <time>2021-08-05T13:32:05Z</time>
      </trkpt>
      <trkpt lat="47.53547" lon="-2.78638">
        <ele>-74.2</ele>
        <time>2021-08-05T13:32:06Z</time>
      </trkpt>
      <trkpt lat="47.53555" lon="-2.78641">
        <ele>-74.4</ele>
        <time>2021-08-05T13:32:07Z</time>
      </trkpt>
      <trkpt lat="47.53563" lon="-2.78643">
        <ele>-74.4</ele>
        <time>2021-08-05T13:32:08Z</time>
      </trkpt>
      <trkpt lat="47.5357" lon="-2.78645">
        <ele>-74.4</ele>
        <time>2021-08-05T13:32:09Z</time>
      </trkpt>
      <trkpt lat="47.53578" lon="-2.78648">
        <ele>-74.4</ele>
        <time>2021-08-05T13:32:10Z</time>
      </trkpt>
      <trkpt lat="47.53585" lon="-2.78651">
        <ele>-74.4</ele>
        <time>2021-08-05T13:32:11Z</time>
      </trkpt>
      <trkpt lat="47.53592" lon="-2.78655">
        <ele>-74.6</ele>
        <time>2021-08-05T13:32:12Z</time>
      </trkpt>
      <trkpt lat="47.53599" lon="-2.78659">
        <ele>-74.6</ele>
        <time>2021-08-05T13:32:13Z</time>
      </trkpt>
      <trkpt lat="47.53605" lon="-2.78663">
        <ele>-74.6</ele>
        <time>2021-08-05T13:32:14Z</time>
      </trkpt>
      <trkpt lat="47.53611" lon="-2.78668">
        <ele>-74.6</ele>
        <time>2021-08-05T13:32:15Z</time>
      </trkpt>
      <trkpt lat="47.53616" lon="-2.78674">
        <ele>-74.6</ele>
        <time>2021-08-05T13:32:16Z</time>
      </trkpt>
      <trkpt lat="47.5362" lon="-2.7868">
        <ele>-74.6</ele>
        <time>2021-08-05T13:32:17Z</time>
      </trkpt>
      <trkpt lat="47.53623" lon="-2.78687">
        <ele>-74.6</ele>
        <time>2021-08-05T13:32:18Z</time>
      </trkpt>
      <trkpt lat="47.53626" lon="-2.78694">
        <ele>-74.6</ele>
        <time>2021-08-05T13:32:19Z</time>
      </trkpt>
      <trkpt lat="47.53629" lon="-2.787">
        <ele>-74.6</ele>
        <time>2021-08-05T13:32:20Z</time>
      </trkpt>
      <trkpt lat="47.53631" lon="-2.78706">
        <ele>-74.6</ele>
        <time>2021-08-05T13:32:21Z</time>
      </trkpt>
      <trkpt lat="47.53633" lon="-2.78711">
        <ele>-74.8</ele>
        <time>2021-08-05T13:32:22Z</time>
      </trkpt>
      <trkpt lat="47.53636" lon="-2.78715">
        <ele>-74.6</ele>
        <time>2021-08-05T13:32:23Z</time>
      </trkpt>
      <trkpt lat="47.5364" lon="-2.78718">
        <ele>-74.6</ele>
        <time>2021-08-05T13:32:24Z</time>
      </trkpt>
      <trkpt lat="47.53643" lon="-2.7872">
        <ele>-74.8</ele>
        <time>2021-08-05T13:32:25Z</time>
      </trkpt>
      <trkpt lat="47.53647" lon="-2.78722">
        <ele>-74.6</ele>
        <time>2021-08-05T13:32:26Z</time>
      </trkpt>
      <trkpt lat="47.53651" lon="-2.78724">
        <ele>-74.4</ele>
        <time>2021-08-05T13:32:27Z</time>
      </trkpt>
      <trkpt lat="47.53654" lon="-2.78726">
        <ele>-74.2</ele>
        <time>2021-08-05T13:32:28Z</time>
      </trkpt>
      <trkpt lat="47.53657" lon="-2.78727">
        <ele>-74</ele>
        <time>2021-08-05T13:32:29Z</time>
      </trkpt>
      <trkpt lat="47.5366" lon="-2.78728">
        <ele>-73.8</ele>
        <time>2021-08-05T13:32:30Z</time>
      </trkpt>
      <trkpt lat="47.53663" lon="-2.7873">
        <ele>-73.8</ele>
        <time>2021-08-05T13:32:31Z</time>
      </trkpt>
      <trkpt lat="47.53665" lon="-2.78731">
        <ele>-73.6</ele>
        <time>2021-08-05T13:32:32Z</time>
      </trkpt>
      <trkpt lat="47.53668" lon="-2.78732">
        <ele>-73.4</ele>
        <time>2021-08-05T13:32:33Z</time>
      </trkpt>
      <trkpt lat="47.5367" lon="-2.78733">
        <ele>-73.4</ele>
        <time>2021-08-05T13:32:34Z</time>
      </trkpt>
      <trkpt lat="47.53672" lon="-2.78734">
        <ele>-73</ele>
        <time>2021-08-05T13:32:35Z</time>
      </trkpt>
      <trkpt lat="47.53675" lon="-2.78736">
        <ele>-73</ele>
        <time>2021-08-05T13:32:36Z</time>
      </trkpt>
      <trkpt lat="47.53677" lon="-2.78738">
        <ele>-72.6</ele>
        <time>2021-08-05T13:32:37Z</time>
      </trkpt>
      <trkpt lat="47.53679" lon="-2.78741">
        <ele>-72.4</ele>
        <time>2021-08-05T13:32:38Z</time>
      </trkpt>
      <trkpt lat="47.5368" lon="-2.78743">
        <ele>-72.2</ele>
        <time>2021-08-05T13:32:39Z</time>
      </trkpt>
      <trkpt lat="47.53682" lon="-2.78745">
        <ele>-72</ele>
        <time>2021-08-05T13:32:40Z</time>
      </trkpt>
      <trkpt lat="47.53683" lon="-2.78747">
        <ele>-72</ele>
        <time>2021-08-05T13:32:41Z</time>
      </trkpt>
      <trkpt lat="47.53685" lon="-2.7875">
        <ele>-71.6</ele>
        <time>2021-08-05T13:32:42Z</time>
      </trkpt>
      <trkpt lat="47.53685" lon="-2.78753">
        <ele>-71.6</ele>
        <time>2021-08-05T13:32:43Z</time>
      </trkpt>
      <trkpt lat="47.53686" lon="-2.78756">
        <ele>-71.2</ele>
        <time>2021-08-05T13:32:44Z</time>
      </trkpt>
      <trkpt lat="47.53687" lon="-2.78759">
        <ele>-71</ele>
        <time>2021-08-05T13:32:45Z</time>
      </trkpt>
      <trkpt lat="47.53688" lon="-2.78763">
        <ele>-70.6</ele>
        <time>2021-08-05T13:32:46Z</time>
      </trkpt>
      <trkpt lat="47.53689" lon="-2.78767">
        <ele>-70.2</ele>
        <time>2021-08-05T13:32:47Z</time>
      </trkpt>
      <trkpt lat="47.5369" lon="-2.7877">
        <ele>-69.8</ele>
        <time>2021-08-05T13:32:48Z</time>
      </trkpt>
      <trkpt lat="47.53691" lon="-2.78774">
        <ele>-69.6</ele>
        <time>2021-08-05T13:32:49Z</time>
      </trkpt>
      <trkpt lat="47.53692" lon="-2.78777">
        <ele>-69.4</ele>
        <time>2021-08-05T13:32:50Z</time>
      </trkpt>
      <trkpt lat="47.53694" lon="-2.78781">
        <ele>-69</ele>
        <time>2021-08-05T13:32:51Z</time>
      </trkpt>
      <trkpt lat="47.53695" lon="-2.78784">
        <ele>-68.8</ele>
        <time>2021-08-05T13:32:52Z</time>
      </trkpt>
      <trkpt lat="47.53696" lon="-2.78787">
        <ele>-68.8</ele>
        <time>2021-08-05T13:32:53Z</time>
      </trkpt>
      <trkpt lat="47.53698" lon="-2.7879">
        <ele>-68.6</ele>
        <time>2021-08-05T13:32:54Z</time>
      </trkpt>
      <trkpt lat="47.53699" lon="-2.78793">
        <ele>-68.4</ele>
        <time>2021-08-05T13:32:55Z</time>
      </trkpt>
      <trkpt lat="47.53701" lon="-2.78795">
        <ele>-68.2</ele>
        <time>2021-08-05T13:32:56Z</time>
      </trkpt>
      <trkpt lat="47.53703" lon="-2.78798">
        <ele>-68.2</ele>
        <time>2021-08-05T13:32:57Z</time>
      </trkpt>
      <trkpt lat="47.53704" lon="-2.788">
        <ele>-68.2</ele>
        <time>2021-08-05T13:32:58Z</time>
      </trkpt>
      <trkpt lat="47.53705" lon="-2.78803">
        <ele>-68.2</ele>
        <time>2021-08-05T13:32:59Z</time>
      </trkpt>
      <trkpt lat="47.53707" lon="-2.78806">
        <ele>-68.2</ele>
        <time>2021-08-05T13:33:00Z</time>
      </trkpt>
      <trkpt lat="47.53708" lon="-2.78809">
        <ele>-68.2</ele>
        <time>2021-08-05T13:33:01Z</time>
      </trkpt>
      <trkpt lat="47.53709" lon="-2.78812">
        <ele>-68.2</ele>
        <time>2021-08-05T13:33:02Z</time>
      </trkpt>
      <trkpt lat="47.53711" lon="-2.78814">
        <ele>-68</ele>
        <time>2021-08-05T13:33:03Z</time>
      </trkpt>
      <trkpt lat="47.53712" lon="-2.78818">
        <ele>-68</ele>
        <time>2021-08-05T13:33:04Z</time>
      </trkpt>
      <trkpt lat="47.53714" lon="-2.78821">
        <ele>-68</ele>
        <time>2021-08-05T13:33:05Z</time>
      </trkpt>
      <trkpt lat="47.53716" lon="-2.78824">
        <ele>-68</ele>
        <time>2021-08-05T13:33:06Z</time>
      </trkpt>
      <trkpt lat="47.53718" lon="-2.78828">
        <ele>-68</ele>
        <time>2021-08-05T13:33:07Z</time>
      </trkpt>
      <trkpt lat="47.5372" lon="-2.78832">
        <ele>-68</ele>
        <time>2021-08-05T13:33:08Z</time>
      </trkpt>
      <trkpt lat="47.53721" lon="-2.78836">
        <ele>-67.8</ele>
        <time>2021-08-05T13:33:09Z</time>
      </trkpt>
      <trkpt lat="47.53723" lon="-2.7884">
        <ele>-67.6</ele>
        <time>2021-08-05T13:33:10Z</time>
      </trkpt>
      <trkpt lat="47.53725" lon="-2.78844">
        <ele>-67.2</ele>
        <time>2021-08-05T13:33:11Z</time>
      </trkpt>
      <trkpt lat="47.53727" lon="-2.78848">
        <ele>-67.4</ele>
        <time>2021-08-05T13:33:12Z</time>
      </trkpt>
      <trkpt lat="47.53729" lon="-2.78852">
        <ele>-67.2</ele>
        <time>2021-08-05T13:33:13Z</time>
      </trkpt>
      <trkpt lat="47.5373" lon="-2.78856">
        <ele>-67.2</ele>
        <time>2021-08-05T13:33:14Z</time>
      </trkpt>
      <trkpt lat="47.53732" lon="-2.7886">
        <ele>-67.2</ele>
        <time>2021-08-05T13:33:15Z</time>
      </trkpt>
      <trkpt lat="47.53734" lon="-2.78864">
        <ele>-67.2</ele>
        <time>2021-08-05T13:33:16Z</time>
      </trkpt>
      <trkpt lat="47.53736" lon="-2.78868">
        <ele>-67.2</ele>
        <time>2021-08-05T13:33:17Z</time>
      </trkpt>
      <trkpt lat="47.53738" lon="-2.78871">
        <ele>-67.2</ele>
        <time>2021-08-05T13:33:18Z</time>
      </trkpt>
      <trkpt lat="47.53739" lon="-2.78875">
        <ele>-67.2</ele>
        <time>2021-08-05T13:33:19Z</time>
      </trkpt>
      <trkpt lat="47.53741" lon="-2.78879">
        <ele>-67.2</ele>
        <time>2021-08-05T13:33:20Z</time>
      </trkpt>
      <trkpt lat="47.53742" lon="-2.78883">
        <ele>-67.2</ele>
        <time>2021-08-05T13:33:21Z</time>
      </trkpt>
      <trkpt lat="47.53744" lon="-2.78887">
        <ele>-67.2</ele>
        <time>2021-08-05T13:33:22Z</time>
      </trkpt>
      <trkpt lat="47.53745" lon="-2.78891">
        <ele>-67.2</ele>
        <time>2021-08-05T13:33:23Z</time>
      </trkpt>
      <trkpt lat="47.53747" lon="-2.78895">
        <ele>-67.2</ele>
        <time>2021-08-05T13:33:24Z</time>
      </trkpt>
      <trkpt lat="47.53748" lon="-2.78899">
        <ele>-67.4</ele>
        <time>2021-08-05T13:33:25Z</time>
      </trkpt>
      <trkpt lat="47.5375" lon="-2.78903">
        <ele>-67.4</ele>
        <time>2021-08-05T13:33:26Z</time>
      </trkpt>
      <trkpt lat="47.53751" lon="-2.78907">
        <ele>-67.4</ele>
        <time>2021-08-05T13:33:27Z</time>
      </trkpt>
      <trkpt lat="47.53752" lon="-2.78911">
        <ele>-67.4</ele>
        <time>2021-08-05T13:33:28Z</time>
      </trkpt>
      <trkpt lat="47.53753" lon="-2.78914">
        <ele>-67.4</ele>
        <time>2021-08-05T13:33:29Z</time>
      </trkpt>
      <trkpt lat="47.53754" lon="-2.78918">
        <ele>-67.4</ele>
        <time>2021-08-05T13:33:30Z</time>
      </trkpt>
      <trkpt lat="47.53756" lon="-2.78921">
        <ele>-67.4</ele>
        <time>2021-08-05T13:33:31Z</time>
      </trkpt>
      <trkpt lat="47.53757" lon="-2.78925">
        <ele>-67.4</ele>
        <time>2021-08-05T13:33:32Z</time>
      </trkpt>
      <trkpt lat="47.53758" lon="-2.78928">
        <ele>-67.4</ele>
        <time>2021-08-05T13:33:33Z</time>
      </trkpt>
      <trkpt lat="47.53759" lon="-2.78932">
        <ele>-67.4</ele>
        <time>2021-08-05T13:33:34Z</time>
      </trkpt>
      <trkpt lat="47.5376" lon="-2.78935">
        <ele>-67.6</ele>
        <time>2021-08-05T13:33:35Z</time>
      </trkpt>
      <trkpt lat="47.53761" lon="-2.78938">
        <ele>-67.8</ele>
        <time>2021-08-05T13:33:36Z</time>
      </trkpt>
      <trkpt lat="47.53762" lon="-2.78941">
        <ele>-68</ele>
        <time>2021-08-05T13:33:37Z</time>
      </trkpt>
      <trkpt lat="47.53763" lon="-2.78945">
        <ele>-68</ele>
        <time>2021-08-05T13:33:38Z</time>
      </trkpt>
      <trkpt lat="47.53765" lon="-2.78948">
        <ele>-68</ele>
        <time>2021-08-05T13:33:39Z</time>
      </trkpt>
      <trkpt lat="47.53766" lon="-2.78952">
        <ele>-68</ele>
        <time>2021-08-05T13:33:40Z</time>
      </trkpt>
      <trkpt lat="47.53767" lon="-2.78955">
        <ele>-68</ele>
        <time>2021-08-05T13:33:41Z</time>
      </trkpt>
      <trkpt lat="47.53768" lon="-2.78958">
        <ele>-68</ele>
        <time>2021-08-05T13:33:42Z</time>
      </trkpt>
      <trkpt lat="47.53769" lon="-2.78962">
        <ele>-68</ele>
        <time>2021-08-05T13:33:43Z</time>
      </trkpt>
      <trkpt lat="47.5377" lon="-2.78966">
        <ele>-68</ele>
        <time>2021-08-05T13:33:44Z</time>
      </trkpt>
      <trkpt lat="47.53771" lon="-2.7897">
        <ele>-68</ele>
        <time>2021-08-05T13:33:45Z</time>
      </trkpt>
      <trkpt lat="47.53773" lon="-2.78974">
        <ele>-68</ele>
        <time>2021-08-05T13:33:46Z</time>
      </trkpt>
      <trkpt lat="47.53774" lon="-2.78978">
        <ele>-68.2</ele>
        <time>2021-08-05T13:33:47Z</time>
      </trkpt>
      <trkpt lat="47.53775" lon="-2.78982">
        <ele>-68.4</ele>
        <time>2021-08-05T13:33:48Z</time>
      </trkpt>
      <trkpt lat="47.53776" lon="-2.78985">
        <ele>-68.4</ele>
        <time>2021-08-05T13:33:49Z</time>
      </trkpt>
      <trkpt lat="47.53777" lon="-2.78989">
        <ele>-68.4</ele>
        <time>2021-08-05T13:33:50Z</time>
      </trkpt>
      <trkpt lat="47.53779" lon="-2.78992">
        <ele>-68.6</ele>
        <time>2021-08-05T13:33:51Z</time>
      </trkpt>
      <trkpt lat="47.5378" lon="-2.78996">
        <ele>-68.6</ele>
        <time>2021-08-05T13:33:52Z</time>
      </trkpt>
      <trkpt lat="47.53781" lon="-2.79">
        <ele>-69</ele>
        <time>2021-08-05T13:33:53Z</time>
      </trkpt>
      <trkpt lat="47.53783" lon="-2.79004">
        <ele>-69.2</ele>
        <time>2021-08-05T13:33:54Z</time>
      </trkpt>
      <trkpt lat="47.53784" lon="-2.79008">
        <ele>-69.2</ele>
        <time>2021-08-05T13:33:55Z</time>
      </trkpt>
      <trkpt lat="47.53786" lon="-2.79012">
        <ele>-69.6</ele>
        <time>2021-08-05T13:33:56Z</time>
      </trkpt>
      <trkpt lat="47.53787" lon="-2.79017">
        <ele>-69.6</ele>
        <time>2021-08-05T13:33:57Z</time>
      </trkpt>
      <trkpt lat="47.53789" lon="-2.79021">
        <ele>-69.6</ele>
        <time>2021-08-05T13:33:58Z</time>
      </trkpt>
      <trkpt lat="47.5379" lon="-2.79025">
        <ele>-69.6</ele>
        <time>2021-08-05T13:33:59Z</time>
      </trkpt>
      <trkpt lat="47.53791" lon="-2.79029">
        <ele>-69.8</ele>
        <time>2021-08-05T13:34:00Z</time>
      </trkpt>
      <trkpt lat="47.53792" lon="-2.79033">
        <ele>-69.8</ele>
        <time>2021-08-05T13:34:01Z</time>
      </trkpt>
      <trkpt lat="47.53793" lon="-2.79037">
        <ele>-69.8</ele>
        <time>2021-08-05T13:34:02Z</time>
      </trkpt>
      <trkpt lat="47.53795" lon="-2.79041">
        <ele>-69.8</ele>
        <time>2021-08-05T13:34:03Z</time>
      </trkpt>
      <trkpt lat="47.53796" lon="-2.79045">
        <ele>-69.8</ele>
        <time>2021-08-05T13:34:04Z</time>
      </trkpt>
      <trkpt lat="47.53798" lon="-2.79049">
        <ele>-69.8</ele>
        <time>2021-08-05T13:34:05Z</time>
      </trkpt>
      <trkpt lat="47.538" lon="-2.79054">
        <ele>-70</ele>
        <time>2021-08-05T13:34:06Z</time>
      </trkpt>
      <trkpt lat="47.53802" lon="-2.79058">
        <ele>-70.2</ele>
        <time>2021-08-05T13:34:07Z</time>
      </trkpt>
      <trkpt lat="47.53804" lon="-2.79063">
        <ele>-70.2</ele>
        <time>2021-08-05T13:34:08Z</time>
      </trkpt>
      <trkpt lat="47.53806" lon="-2.79068">
        <ele>-70.2</ele>
        <time>2021-08-05T13:34:09Z</time>
      </trkpt>
      <trkpt lat="47.53809" lon="-2.79073">
        <ele>-70.2</ele>
        <time>2021-08-05T13:34:10Z</time>
      </trkpt>
      <trkpt lat="47.53811" lon="-2.79078">
        <ele>-70.4</ele>
        <time>2021-08-05T13:34:11Z</time>
      </trkpt>
      <trkpt lat="47.53813" lon="-2.79083">
        <ele>-70.6</ele>
        <time>2021-08-05T13:34:12Z</time>
      </trkpt>
      <trkpt lat="47.53815" lon="-2.79087">
        <ele>-70.6</ele>
        <time>2021-08-05T13:34:13Z</time>
      </trkpt>
      <trkpt lat="47.53817" lon="-2.79092">
        <ele>-70.8</ele>
        <time>2021-08-05T13:34:14Z</time>
      </trkpt>
      <trkpt lat="47.5382" lon="-2.79097">
        <ele>-70.8</ele>
        <time>2021-08-05T13:34:15Z</time>
      </trkpt>
      <trkpt lat="47.53822" lon="-2.79101">
        <ele>-70.8</ele>
        <time>2021-08-05T13:34:16Z</time>
      </trkpt>
      <trkpt lat="47.53824" lon="-2.79105">
        <ele>-71</ele>
        <time>2021-08-05T13:34:17Z</time>
      </trkpt>
      <trkpt lat="47.53826" lon="-2.79109">
        <ele>-71.4</ele>
        <time>2021-08-05T13:34:18Z</time>
      </trkpt>
      <trkpt lat="47.53827" lon="-2.79112">
        <ele>-71.4</ele>
        <time>2021-08-05T13:34:19Z</time>
      </trkpt>
      <trkpt lat="47.53829" lon="-2.79115">
        <ele>-71.6</ele>
        <time>2021-08-05T13:34:20Z</time>
      </trkpt>
      <trkpt lat="47.5383" lon="-2.79118">
        <ele>-71.6</ele>
        <time>2021-08-05T13:34:21Z</time>
      </trkpt>
      <trkpt lat="47.53831" lon="-2.7912">
        <ele>-71.8</ele>
        <time>2021-08-05T13:34:22Z</time>
      </trkpt>
      <trkpt lat="47.53833" lon="-2.79123">
        <ele>-71.8</ele>
        <time>2021-08-05T13:34:23Z</time>
      </trkpt>
      <trkpt lat="47.53834" lon="-2.79126">
        <ele>-72.4</ele>
        <time>2021-08-05T13:34:24Z</time>
      </trkpt>
      <trkpt lat="47.53835" lon="-2.79129">
        <ele>-72.4</ele>
        <time>2021-08-05T13:34:25Z</time>
      </trkpt>
      <trkpt lat="47.53837" lon="-2.79132">
        <ele>-72.6</ele>
        <time>2021-08-05T13:34:26Z</time>
      </trkpt>
      <trkpt lat="47.53838" lon="-2.79136">
        <ele>-72.8</ele>
        <time>2021-08-05T13:34:27Z</time>
      </trkpt>
      <trkpt lat="47.5384" lon="-2.79139">
        <ele>-73.2</ele>
        <time>2021-08-05T13:34:28Z</time>
      </trkpt>
      <trkpt lat="47.53841" lon="-2.79143">
        <ele>-73.4</ele>
        <time>2021-08-05T13:34:29Z</time>
      </trkpt>
      <trkpt lat="47.53843" lon="-2.79147">
        <ele>-73.4</ele>
        <time>2021-08-05T13:34:30Z</time>
      </trkpt>
      <trkpt lat="47.53845" lon="-2.79152">
        <ele>-73.6</ele>
        <time>2021-08-05T13:34:31Z</time>
      </trkpt>
      <trkpt lat="47.53846" lon="-2.79156">
        <ele>-73.6</ele>
        <time>2021-08-05T13:34:32Z</time>
      </trkpt>
      <trkpt lat="47.53848" lon="-2.7916">
        <ele>-73.8</ele>
        <time>2021-08-05T13:34:33Z</time>
      </trkpt>
      <trkpt lat="47.5385" lon="-2.79163">
        <ele>-73.8</ele>
        <time>2021-08-05T13:34:34Z</time>
      </trkpt>
      <trkpt lat="47.53852" lon="-2.79167">
        <ele>-74</ele>
        <time>2021-08-05T13:34:35Z</time>
      </trkpt>
      <trkpt lat="47.53853" lon="-2.7917">
        <ele>-74.2</ele>
        <time>2021-08-05T13:34:36Z</time>
      </trkpt>
      <trkpt lat="47.53855" lon="-2.79173">
        <ele>-74.4</ele>
        <time>2021-08-05T13:34:37Z</time>
      </trkpt>
      <trkpt lat="47.53856" lon="-2.79176">
        <ele>-74.4</ele>
        <time>2021-08-05T13:34:38Z</time>
      </trkpt>
      <trkpt lat="47.53858" lon="-2.79179">
        <ele>-74.6</ele>
        <time>2021-08-05T13:34:39Z</time>
      </trkpt>
      <trkpt lat="47.5386" lon="-2.79182">
        <ele>-74.8</ele>
        <time>2021-08-05T13:34:40Z</time>
      </trkpt>
      <trkpt lat="47.53862" lon="-2.79185">
        <ele>-75</ele>
        <time>2021-08-05T13:34:41Z</time>
      </trkpt>
      <trkpt lat="47.53865" lon="-2.79188">
        <ele>-75</ele>
        <time>2021-08-05T13:34:42Z</time>
      </trkpt>
      <trkpt lat="47.53866" lon="-2.79191">
        <ele>-75</ele>
        <time>2021-08-05T13:34:43Z</time>
      </trkpt>
      <trkpt lat="47.53869" lon="-2.79194">
        <ele>-75</ele>
        <time>2021-08-05T13:34:44Z</time>
      </trkpt>
      <trkpt lat="47.53871" lon="-2.79196">
        <ele>-75</ele>
        <time>2021-08-05T13:34:45Z</time>
      </trkpt>
      <trkpt lat="47.53873" lon="-2.79199">
        <ele>-75.2</ele>
        <time>2021-08-05T13:34:46Z</time>
      </trkpt>
      <trkpt lat="47.53875" lon="-2.79202">
        <ele>-75.2</ele>
        <time>2021-08-05T13:34:47Z</time>
      </trkpt>
      <trkpt lat="47.53878" lon="-2.79205">
        <ele>-75.2</ele>
        <time>2021-08-05T13:34:48Z</time>
      </trkpt>
      <trkpt lat="47.5388" lon="-2.79208">
        <ele>-75.2</ele>
        <time>2021-08-05T13:34:49Z</time>
      </trkpt>
      <trkpt lat="47.53883" lon="-2.79211">
        <ele>-75.2</ele>
        <time>2021-08-05T13:34:50Z</time>
      </trkpt>
      <trkpt lat="47.53885" lon="-2.79213">
        <ele>-75.2</ele>
        <time>2021-08-05T13:34:51Z</time>
      </trkpt>
      <trkpt lat="47.53888" lon="-2.79216">
        <ele>-75.2</ele>
        <time>2021-08-05T13:34:52Z</time>
      </trkpt>
      <trkpt lat="47.5389" lon="-2.79218">
        <ele>-75.2</ele>
        <time>2021-08-05T13:34:53Z</time>
      </trkpt>
      <trkpt lat="47.53893" lon="-2.79221">
        <ele>-75.2</ele>
        <time>2021-08-05T13:34:54Z</time>
      </trkpt>
      <trkpt lat="47.53896" lon="-2.79223">
        <ele>-75.2</ele>
        <time>2021-08-05T13:34:55Z</time>
      </trkpt>
      <trkpt lat="47.53899" lon="-2.79226">
        <ele>-75.2</ele>
        <time>2021-08-05T13:34:56Z</time>
      </trkpt>
      <trkpt lat="47.53901" lon="-2.79229">
        <ele>-75.6</ele>
        <time>2021-08-05T13:34:57Z</time>
      </trkpt>
      <trkpt lat="47.53904" lon="-2.79231">
        <ele>-75.6</ele>
        <time>2021-08-05T13:34:58Z</time>
      </trkpt>
      <trkpt lat="47.53907" lon="-2.79234">
        <ele>-76</ele>
        <time>2021-08-05T13:34:59Z</time>
      </trkpt>
      <trkpt lat="47.53909" lon="-2.79237">
        <ele>-76.2</ele>
        <time>2021-08-05T13:35:00Z</time>
      </trkpt>
      <trkpt lat="47.53912" lon="-2.7924">
        <ele>-76.2</ele>
        <time>2021-08-05T13:35:01Z</time>
      </trkpt>
      <trkpt lat="47.53915" lon="-2.79243">
        <ele>-76.2</ele>
        <time>2021-08-05T13:35:02Z</time>
      </trkpt>
      <trkpt lat="47.53917" lon="-2.79246">
        <ele>-76.2</ele>
        <time>2021-08-05T13:35:03Z</time>
      </trkpt>
      <trkpt lat="47.53919" lon="-2.79248">
        <ele>-76.6</ele>
        <time>2021-08-05T13:35:04Z</time>
      </trkpt>
      <trkpt lat="47.53921" lon="-2.79251">
        <ele>-76.8</ele>
        <time>2021-08-05T13:35:05Z</time>
      </trkpt>
      <trkpt lat="47.53923" lon="-2.79254">
        <ele>-77</ele>
        <time>2021-08-05T13:35:06Z</time>
      </trkpt>
      <trkpt lat="47.53924" lon="-2.79257">
        <ele>-77</ele>
        <time>2021-08-05T13:35:07Z</time>
      </trkpt>
      <trkpt lat="47.53926" lon="-2.7926">
        <ele>-77.4</ele>
        <time>2021-08-05T13:35:08Z</time>
      </trkpt>
      <trkpt lat="47.53927" lon="-2.79264">
        <ele>-77.6</ele>
        <time>2021-08-05T13:35:09Z</time>
      </trkpt>
      <trkpt lat="47.53929" lon="-2.79267">
        <ele>-77.8</ele>
        <time>2021-08-05T13:35:10Z</time>
      </trkpt>
      <trkpt lat="47.53929" lon="-2.79271">
        <ele>-78</ele>
        <time>2021-08-05T13:35:11Z</time>
      </trkpt>
      <trkpt lat="47.53929" lon="-2.79276">
        <ele>-78.2</ele>
        <time>2021-08-05T13:35:12Z</time>
      </trkpt>
      <trkpt lat="47.53929" lon="-2.7928">
        <ele>-78.6</ele>
        <time>2021-08-05T13:35:13Z</time>
      </trkpt>
      <trkpt lat="47.53929" lon="-2.79285">
        <ele>-78.6</ele>
        <time>2021-08-05T13:35:14Z</time>
      </trkpt>
      <trkpt lat="47.53929" lon="-2.7929">
        <ele>-79</ele>
        <time>2021-08-05T13:35:15Z</time>
      </trkpt>
      <trkpt lat="47.5393" lon="-2.79295">
        <ele>-79.2</ele>
        <time>2021-08-05T13:35:16Z</time>
      </trkpt>
      <trkpt lat="47.53931" lon="-2.79299">
        <ele>-79.4</ele>
        <time>2021-08-05T13:35:17Z</time>
      </trkpt>
      <trkpt lat="47.53933" lon="-2.79303">
        <ele>-79.6</ele>
        <time>2021-08-05T13:35:18Z</time>
      </trkpt>
      <trkpt lat="47.53936" lon="-2.79304">
        <ele>-79.6</ele>
        <time>2021-08-05T13:35:19Z</time>
      </trkpt>
      <trkpt lat="47.53938" lon="-2.79306">
        <ele>-80</ele>
        <time>2021-08-05T13:35:20Z</time>
      </trkpt>
      <trkpt lat="47.53941" lon="-2.79306">
        <ele>-80.2</ele>
        <time>2021-08-05T13:35:21Z</time>
      </trkpt>
      <trkpt lat="47.53944" lon="-2.79307">
        <ele>-80.4</ele>
        <time>2021-08-05T13:35:22Z</time>
      </trkpt>
      <trkpt lat="47.53947" lon="-2.79307">
        <ele>-80.6</ele>
        <time>2021-08-05T13:35:23Z</time>
      </trkpt>
      <trkpt lat="47.5395" lon="-2.79307">
        <ele>-80.6</ele>
        <time>2021-08-05T13:35:24Z</time>
      </trkpt>
      <trkpt lat="47.53953" lon="-2.79308">
        <ele>-80.6</ele>
        <time>2021-08-05T13:35:25Z</time>
      </trkpt>
      <trkpt lat="47.53957" lon="-2.79308">
        <ele>-80.8</ele>
        <time>2021-08-05T13:35:26Z</time>
      </trkpt>
      <trkpt lat="47.5396" lon="-2.79309">
        <ele>-80.8</ele>
        <time>2021-08-05T13:35:27Z</time>
      </trkpt>
      <trkpt lat="47.53963" lon="-2.79309">
        <ele>-80.8</ele>
        <time>2021-08-05T13:35:28Z</time>
      </trkpt>
      <trkpt lat="47.53967" lon="-2.7931">
        <ele>-80.8</ele>
        <time>2021-08-05T13:35:29Z</time>
      </trkpt>
      <trkpt lat="47.5397" lon="-2.79311">
        <ele>-80.8</ele>
        <time>2021-08-05T13:35:30Z</time>
      </trkpt>
      <trkpt lat="47.53973" lon="-2.79312">
        <ele>-80.8</ele>
        <time>2021-08-05T13:35:31Z</time>
      </trkpt>
      <trkpt lat="47.53974" lon="-2.79314">
        <ele>-81</ele>
        <time>2021-08-05T13:35:32Z</time>
      </trkpt>
      <trkpt lat="47.53975" lon="-2.79318">
        <ele>-81</ele>
        <time>2021-08-05T13:35:33Z</time>
      </trkpt>
      <trkpt lat="47.53976" lon="-2.79321">
        <ele>-81</ele>
        <time>2021-08-05T13:35:34Z</time>
      </trkpt>
      <trkpt lat="47.53975" lon="-2.79325">
        <ele>-81.2</ele>
        <time>2021-08-05T13:35:35Z</time>
      </trkpt>
      <trkpt lat="47.53974" lon="-2.79329">
        <ele>-81.4</ele>
        <time>2021-08-05T13:35:36Z</time>
      </trkpt>
      <trkpt lat="47.53972" lon="-2.79331">
        <ele>-81.4</ele>
        <time>2021-08-05T13:35:37Z</time>
      </trkpt>
      <trkpt lat="47.5397" lon="-2.79334">
        <ele>-81.4</ele>
        <time>2021-08-05T13:35:38Z</time>
      </trkpt>
      <trkpt lat="47.53968" lon="-2.79337">
        <ele>-81.4</ele>
        <time>2021-08-05T13:35:39Z</time>
      </trkpt>
      <trkpt lat="47.53966" lon="-2.7934">
        <ele>-81.6</ele>
        <time>2021-08-05T13:35:40Z</time>
      </trkpt>
      <trkpt lat="47.53965" lon="-2.79343">
        <ele>-81.8</ele>
        <time>2021-08-05T13:35:41Z</time>
      </trkpt>
      <trkpt lat="47.53962" lon="-2.79346">
        <ele>-81.8</ele>
        <time>2021-08-05T13:35:42Z</time>
      </trkpt>
      <trkpt lat="47.5396" lon="-2.79349">
        <ele>-81.8</ele>
        <time>2021-08-05T13:35:43Z</time>
      </trkpt>
      <trkpt lat="47.53959" lon="-2.79353">
        <ele>-81.8</ele>
        <time>2021-08-05T13:35:44Z</time>
      </trkpt>
      <trkpt lat="47.53957" lon="-2.79357">
        <ele>-81.8</ele>
        <time>2021-08-05T13:35:45Z</time>
      </trkpt>
      <trkpt lat="47.53955" lon="-2.7936">
        <ele>-81.8</ele>
        <time>2021-08-05T13:35:46Z</time>
      </trkpt>
      <trkpt lat="47.53953" lon="-2.79364">
        <ele>-82.2</ele>
        <time>2021-08-05T13:35:47Z</time>
      </trkpt>
      <trkpt lat="47.53951" lon="-2.79368">
        <ele>-82.2</ele>
        <time>2021-08-05T13:35:48Z</time>
      </trkpt>
      <trkpt lat="47.53948" lon="-2.79372">
        <ele>-82.2</ele>
        <time>2021-08-05T13:35:49Z</time>
      </trkpt>
      <trkpt lat="47.53946" lon="-2.79376">
        <ele>-82.2</ele>
        <time>2021-08-05T13:35:50Z</time>
      </trkpt>
      <trkpt lat="47.53944" lon="-2.79381">
        <ele>-82.6</ele>
        <time>2021-08-05T13:35:51Z</time>
      </trkpt>
      <trkpt lat="47.53942" lon="-2.79386">
        <ele>-82.6</ele>
        <time>2021-08-05T13:35:52Z</time>
      </trkpt>
      <trkpt lat="47.53939" lon="-2.7939">
        <ele>-82.6</ele>
        <time>2021-08-05T13:35:53Z</time>
      </trkpt>
      <trkpt lat="47.53937" lon="-2.79395">
        <ele>-82.8</ele>
        <time>2021-08-05T13:35:54Z</time>
      </trkpt>
      <trkpt lat="47.53934" lon="-2.794">
        <ele>-83</ele>
        <time>2021-08-05T13:35:55Z</time>
      </trkpt>
      <trkpt lat="47.53931" lon="-2.79404">
        <ele>-83</ele>
        <time>2021-08-05T13:35:56Z</time>
      </trkpt>
      <trkpt lat="47.53928" lon="-2.79409">
        <ele>-83.2</ele>
        <time>2021-08-05T13:35:57Z</time>
      </trkpt>
      <trkpt lat="47.53926" lon="-2.79415">
        <ele>-83.4</ele>
        <time>2021-08-05T13:35:58Z</time>
      </trkpt>
      <trkpt lat="47.53923" lon="-2.7942">
        <ele>-83.4</ele>
        <time>2021-08-05T13:35:59Z</time>
      </trkpt>
      <trkpt lat="47.53919" lon="-2.79425">
        <ele>-83.4</ele>
        <time>2021-08-05T13:36:00Z</time>
      </trkpt>
      <trkpt lat="47.53916" lon="-2.7943">
        <ele>-83.6</ele>
        <time>2021-08-05T13:36:01Z</time>
      </trkpt>
      <trkpt lat="47.53914" lon="-2.79436">
        <ele>-83.8</ele>
        <time>2021-08-05T13:36:02Z</time>
      </trkpt>
      <trkpt lat="47.53911" lon="-2.79443">
        <ele>-84</ele>
        <time>2021-08-05T13:36:03Z</time>
      </trkpt>
      <trkpt lat="47.53908" lon="-2.7945">
        <ele>-84</ele>
        <time>2021-08-05T13:36:04Z</time>
      </trkpt>
      <trkpt lat="47.53906" lon="-2.79457">
        <ele>-84.2</ele>
        <time>2021-08-05T13:36:05Z</time>
      </trkpt>
      <trkpt lat="47.53903" lon="-2.79464">
        <ele>-84.2</ele>
        <time>2021-08-05T13:36:06Z</time>
      </trkpt>
      <trkpt lat="47.539" lon="-2.7947">
        <ele>-84.6</ele>
        <time>2021-08-05T13:36:07Z</time>
      </trkpt>
      <trkpt lat="47.53897" lon="-2.79477">
        <ele>-84.6</ele>
        <time>2021-08-05T13:36:08Z</time>
      </trkpt>
      <trkpt lat="47.53894" lon="-2.79484">
        <ele>-84.8</ele>
        <time>2021-08-05T13:36:09Z</time>
      </trkpt>
      <trkpt lat="47.53891" lon="-2.79491">
        <ele>-84.8</ele>
        <time>2021-08-05T13:36:10Z</time>
      </trkpt>
      <trkpt lat="47.53888" lon="-2.79497">
        <ele>-85</ele>
        <time>2021-08-05T13:36:11Z</time>
      </trkpt>
      <trkpt lat="47.53884" lon="-2.79503">
        <ele>-85.2</ele>
        <time>2021-08-05T13:36:12Z</time>
      </trkpt>
      <trkpt lat="47.53881" lon="-2.79509">
        <ele>-85.2</ele>
        <time>2021-08-05T13:36:13Z</time>
      </trkpt>
      <trkpt lat="47.53877" lon="-2.79514">
        <ele>-85.6</ele>
        <time>2021-08-05T13:36:14Z</time>
      </trkpt>
      <trkpt lat="47.53873" lon="-2.79518">
        <ele>-85.6</ele>
        <time>2021-08-05T13:36:15Z</time>
      </trkpt>
      <trkpt lat="47.53869" lon="-2.79522">
        <ele>-85.8</ele>
        <time>2021-08-05T13:36:16Z</time>
      </trkpt>
      <trkpt lat="47.53865" lon="-2.79525">
        <ele>-85.8</ele>
        <time>2021-08-05T13:36:17Z</time>
      </trkpt>
      <trkpt lat="47.5386" lon="-2.79528">
        <ele>-85.8</ele>
        <time>2021-08-05T13:36:18Z</time>
      </trkpt>
      <trkpt lat="47.53855" lon="-2.7953">
        <ele>-85.8</ele>
        <time>2021-08-05T13:36:19Z</time>
      </trkpt>
      <trkpt lat="47.5385" lon="-2.79533">
        <ele>-85.8</ele>
        <time>2021-08-05T13:36:20Z</time>
      </trkpt>
      <trkpt lat="47.53846" lon="-2.79535">
        <ele>-85.8</ele>
        <time>2021-08-05T13:36:21Z</time>
      </trkpt>
      <trkpt lat="47.53841" lon="-2.79538">
        <ele>-85.8</ele>
        <time>2021-08-05T13:36:22Z</time>
      </trkpt>
      <trkpt lat="47.53836" lon="-2.7954">
        <ele>-85.8</ele>
        <time>2021-08-05T13:36:23Z</time>
      </trkpt>
      <trkpt lat="47.53832" lon="-2.79544">
        <ele>-85.8</ele>
        <time>2021-08-05T13:36:24Z</time>
      </trkpt>
      <trkpt lat="47.53828" lon="-2.79547">
        <ele>-86</ele>
        <time>2021-08-05T13:36:25Z</time>
      </trkpt>
      <trkpt lat="47.53824" lon="-2.79552">
        <ele>-85.8</ele>
        <time>2021-08-05T13:36:26Z</time>
      </trkpt>
      <trkpt lat="47.5382" lon="-2.79556">
        <ele>-86</ele>
        <time>2021-08-05T13:36:27Z</time>
      </trkpt>
      <trkpt lat="47.53817" lon="-2.7956">
        <ele>-86</ele>
        <time>2021-08-05T13:36:28Z</time>
      </trkpt>
      <trkpt lat="47.53813" lon="-2.79565">
        <ele>-86</ele>
        <time>2021-08-05T13:36:29Z</time>
      </trkpt>
      <trkpt lat="47.5381" lon="-2.79569">
        <ele>-86</ele>
        <time>2021-08-05T13:36:30Z</time>
      </trkpt>
      <trkpt lat="47.53807" lon="-2.79574">
        <ele>-86</ele>
        <time>2021-08-05T13:36:31Z</time>
      </trkpt>
      <trkpt lat="47.53805" lon="-2.79579">
        <ele>-86</ele>
        <time>2021-08-05T13:36:32Z</time>
      </trkpt>
      <trkpt lat="47.53802" lon="-2.79584">
        <ele>-86</ele>
        <time>2021-08-05T13:36:33Z</time>
      </trkpt>
      <trkpt lat="47.538" lon="-2.79589">
        <ele>-86.2</ele>
        <time>2021-08-05T13:36:34Z</time>
      </trkpt>
      <trkpt lat="47.53798" lon="-2.79594">
        <ele>-86.2</ele>
        <time>2021-08-05T13:36:35Z</time>
      </trkpt>
      <trkpt lat="47.53796" lon="-2.79599">
        <ele>-86.2</ele>
        <time>2021-08-05T13:36:36Z</time>
      </trkpt>
      <trkpt lat="47.53793" lon="-2.79604">
        <ele>-86.2</ele>
        <time>2021-08-05T13:36:37Z</time>
      </trkpt>
      <trkpt lat="47.53791" lon="-2.79609">
        <ele>-86.2</ele>
        <time>2021-08-05T13:36:38Z</time>
      </trkpt>
      <trkpt lat="47.53788" lon="-2.79614">
        <ele>-86.2</ele>
        <time>2021-08-05T13:36:39Z</time>
      </trkpt>
      <trkpt lat="47.53786" lon="-2.79618">
        <ele>-86</ele>
        <time>2021-08-05T13:36:40Z</time>
      </trkpt>
      <trkpt lat="47.53784" lon="-2.79623">
        <ele>-86</ele>
        <time>2021-08-05T13:36:41Z</time>
      </trkpt>
      <trkpt lat="47.53781" lon="-2.79628">
        <ele>-86</ele>
        <time>2021-08-05T13:36:42Z</time>
      </trkpt>
      <trkpt lat="47.53779" lon="-2.79633">
        <ele>-86</ele>
        <time>2021-08-05T13:36:43Z</time>
      </trkpt>
      <trkpt lat="47.53776" lon="-2.79637">
        <ele>-86</ele>
        <time>2021-08-05T13:36:44Z</time>
      </trkpt>
      <trkpt lat="47.53774" lon="-2.79642">
        <ele>-86</ele>
        <time>2021-08-05T13:36:45Z</time>
      </trkpt>
      <trkpt lat="47.53772" lon="-2.79647">
        <ele>-86.2</ele>
        <time>2021-08-05T13:36:46Z</time>
      </trkpt>
      <trkpt lat="47.53769" lon="-2.79652">
        <ele>-86</ele>
        <time>2021-08-05T13:36:47Z</time>
      </trkpt>
      <trkpt lat="47.53767" lon="-2.79657">
        <ele>-86</ele>
        <time>2021-08-05T13:36:48Z</time>
      </trkpt>
      <trkpt lat="47.53765" lon="-2.79662">
        <ele>-86</ele>
        <time>2021-08-05T13:36:49Z</time>
      </trkpt>
      <trkpt lat="47.53763" lon="-2.79667">
        <ele>-85.8</ele>
        <time>2021-08-05T13:36:50Z</time>
      </trkpt>
      <trkpt lat="47.53761" lon="-2.79672">
        <ele>-86</ele>
        <time>2021-08-05T13:36:51Z</time>
      </trkpt>
      <trkpt lat="47.53759" lon="-2.79677">
        <ele>-86</ele>
        <time>2021-08-05T13:36:52Z</time>
      </trkpt>
      <trkpt lat="47.53757" lon="-2.79683">
        <ele>-86</ele>
        <time>2021-08-05T13:36:53Z</time>
      </trkpt>
      <trkpt lat="47.53755" lon="-2.79689">
        <ele>-86</ele>
        <time>2021-08-05T13:36:54Z</time>
      </trkpt>
      <trkpt lat="47.53753" lon="-2.79695">
        <ele>-86</ele>
        <time>2021-08-05T13:36:55Z</time>
      </trkpt>
      <trkpt lat="47.53751" lon="-2.79701">
        <ele>-86</ele>
        <time>2021-08-05T13:36:56Z</time>
      </trkpt>
      <trkpt lat="47.53749" lon="-2.79707">
        <ele>-86</ele>
        <time>2021-08-05T13:36:57Z</time>
      </trkpt>
      <trkpt lat="47.53747" lon="-2.79714">
        <ele>-86.2</ele>
        <time>2021-08-05T13:36:58Z</time>
      </trkpt>
      <trkpt lat="47.53745" lon="-2.7972">
        <ele>-86.2</ele>
        <time>2021-08-05T13:36:59Z</time>
      </trkpt>
      <trkpt lat="47.53743" lon="-2.79727">
        <ele>-86.2</ele>
        <time>2021-08-05T13:37:00Z</time>
      </trkpt>
      <trkpt lat="47.53741" lon="-2.79733">
        <ele>-86.2</ele>
        <time>2021-08-05T13:37:01Z</time>
      </trkpt>
      <trkpt lat="47.53739" lon="-2.7974">
        <ele>-86.4</ele>
        <time>2021-08-05T13:37:02Z</time>
      </trkpt>
      <trkpt lat="47.53737" lon="-2.79747">
        <ele>-86.4</ele>
        <time>2021-08-05T13:37:03Z</time>
      </trkpt>
      <trkpt lat="47.53735" lon="-2.79754">
        <ele>-86.4</ele>
        <time>2021-08-05T13:37:04Z</time>
      </trkpt>
      <trkpt lat="47.53734" lon="-2.79762">
        <ele>-86.6</ele>
        <time>2021-08-05T13:37:05Z</time>
      </trkpt>
      <trkpt lat="47.53732" lon="-2.79769">
        <ele>-86.6</ele>
        <time>2021-08-05T13:37:06Z</time>
      </trkpt>
      <trkpt lat="47.53731" lon="-2.79777">
        <ele>-86.8</ele>
        <time>2021-08-05T13:37:07Z</time>
      </trkpt>
      <trkpt lat="47.5373" lon="-2.79786">
        <ele>-86.8</ele>
        <time>2021-08-05T13:37:08Z</time>
      </trkpt>
      <trkpt lat="47.53728" lon="-2.79795">
        <ele>-86.8</ele>
        <time>2021-08-05T13:37:09Z</time>
      </trkpt>
      <trkpt lat="47.53727" lon="-2.79804">
        <ele>-86.8</ele>
        <time>2021-08-05T13:37:10Z</time>
      </trkpt>
      <trkpt lat="47.53725" lon="-2.79813">
        <ele>-86.8</ele>
        <time>2021-08-05T13:37:11Z</time>
      </trkpt>
      <trkpt lat="47.53723" lon="-2.79822">
        <ele>-86.8</ele>
        <time>2021-08-05T13:37:12Z</time>
      </trkpt>
      <trkpt lat="47.53722" lon="-2.79831">
        <ele>-86.8</ele>
        <time>2021-08-05T13:37:13Z</time>
      </trkpt>
      <trkpt lat="47.5372" lon="-2.7984">
        <ele>-87</ele>
        <time>2021-08-05T13:37:14Z</time>
      </trkpt>
      <trkpt lat="47.53719" lon="-2.79849">
        <ele>-87</ele>
        <time>2021-08-05T13:37:15Z</time>
      </trkpt>
      <trkpt lat="47.53717" lon="-2.79859">
        <ele>-86.8</ele>
        <time>2021-08-05T13:37:16Z</time>
      </trkpt>
      <trkpt lat="47.53716" lon="-2.79868">
        <ele>-86.8</ele>
        <time>2021-08-05T13:37:17Z</time>
      </trkpt>
      <trkpt lat="47.53715" lon="-2.79877">
        <ele>-86.8</ele>
        <time>2021-08-05T13:37:18Z</time>
      </trkpt>
      <trkpt lat="47.53714" lon="-2.79887">
        <ele>-86.8</ele>
        <time>2021-08-05T13:37:19Z</time>
      </trkpt>
      <trkpt lat="47.53713" lon="-2.79896">
        <ele>-87</ele>
        <time>2021-08-05T13:37:20Z</time>
      </trkpt>
      <trkpt lat="47.53712" lon="-2.79905">
        <ele>-87</ele>
        <time>2021-08-05T13:37:21Z</time>
      </trkpt>
      <trkpt lat="47.53711" lon="-2.79914">
        <ele>-87</ele>
        <time>2021-08-05T13:37:22Z</time>
      </trkpt>
      <trkpt lat="47.5371" lon="-2.79922">
        <ele>-86.8</ele>
        <time>2021-08-05T13:37:23Z</time>
      </trkpt>
      <trkpt lat="47.53709" lon="-2.79931">
        <ele>-86.8</ele>
        <time>2021-08-05T13:37:24Z</time>
      </trkpt>
      <trkpt lat="47.53708" lon="-2.7994">
        <ele>-86.8</ele>
        <time>2021-08-05T13:37:25Z</time>
      </trkpt>
      <trkpt lat="47.53708" lon="-2.79948">
        <ele>-86.8</ele>
        <time>2021-08-05T13:37:26Z</time>
      </trkpt>
      <trkpt lat="47.53708" lon="-2.79956">
        <ele>-86.8</ele>
        <time>2021-08-05T13:37:27Z</time>
      </trkpt>
      <trkpt lat="47.5371" lon="-2.79963">
        <ele>-87</ele>
        <time>2021-08-05T13:37:28Z</time>
      </trkpt>
      <trkpt lat="47.53713" lon="-2.79968">
        <ele>-87</ele>
        <time>2021-08-05T13:37:29Z</time>
      </trkpt>
      <trkpt lat="47.53716" lon="-2.79973">
        <ele>-87</ele>
        <time>2021-08-05T13:37:30Z</time>
      </trkpt>
      <trkpt lat="47.5372" lon="-2.79977">
        <ele>-87</ele>
        <time>2021-08-05T13:37:31Z</time>
      </trkpt>
      <trkpt lat="47.53723" lon="-2.79981">
        <ele>-87</ele>
        <time>2021-08-05T13:37:32Z</time>
      </trkpt>
      <trkpt lat="47.53727" lon="-2.79984">
        <ele>-87</ele>
        <time>2021-08-05T13:37:33Z</time>
      </trkpt>
      <trkpt lat="47.5373" lon="-2.79988">
        <ele>-87.2</ele>
        <time>2021-08-05T13:37:34Z</time>
      </trkpt>
      <trkpt lat="47.53734" lon="-2.79992">
        <ele>-87.2</ele>
        <time>2021-08-05T13:37:35Z</time>
      </trkpt>
      <trkpt lat="47.53737" lon="-2.79996">
        <ele>-87.2</ele>
        <time>2021-08-05T13:37:36Z</time>
      </trkpt>
      <trkpt lat="47.5374" lon="-2.8">
        <ele>-87.2</ele>
        <time>2021-08-05T13:37:37Z</time>
      </trkpt>
      <trkpt lat="47.53743" lon="-2.80004">
        <ele>-87.2</ele>
        <time>2021-08-05T13:37:38Z</time>
      </trkpt>
      <trkpt lat="47.53746" lon="-2.80008">
        <ele>-87.4</ele>
        <time>2021-08-05T13:37:39Z</time>
      </trkpt>
      <trkpt lat="47.53748" lon="-2.80013">
        <ele>-87.4</ele>
        <time>2021-08-05T13:37:40Z</time>
      </trkpt>
      <trkpt lat="47.5375" lon="-2.80017">
        <ele>-87.4</ele>
        <time>2021-08-05T13:37:41Z</time>
      </trkpt>
      <trkpt lat="47.53752" lon="-2.80022">
        <ele>-87.4</ele>
        <time>2021-08-05T13:37:42Z</time>
      </trkpt>
      <trkpt lat="47.53754" lon="-2.80027">
        <ele>-87.4</ele>
        <time>2021-08-05T13:37:43Z</time>
      </trkpt>
      <trkpt lat="47.53756" lon="-2.80031">
        <ele>-87.4</ele>
        <time>2021-08-05T13:37:44Z</time>
      </trkpt>
      <trkpt lat="47.53757" lon="-2.80036">
        <ele>-87.4</ele>
        <time>2021-08-05T13:37:45Z</time>
      </trkpt>
      <trkpt lat="47.53759" lon="-2.80041">
        <ele>-87.4</ele>
        <time>2021-08-05T13:37:46Z</time>
      </trkpt>
      <trkpt lat="47.53761" lon="-2.80045">
        <ele>-87.4</ele>
        <time>2021-08-05T13:37:47Z</time>
      </trkpt>
      <trkpt lat="47.53763" lon="-2.80048">
        <ele>-87.4</ele>
        <time>2021-08-05T13:37:48Z</time>
      </trkpt>
      <trkpt lat="47.53764" lon="-2.80051">
        <ele>-87.4</ele>
        <time>2021-08-05T13:37:49Z</time>
      </trkpt>
      <trkpt lat="47.53765" lon="-2.80054">
        <ele>-87.2</ele>
        <time>2021-08-05T13:37:50Z</time>
      </trkpt>
      <trkpt lat="47.53766" lon="-2.80056">
        <ele>-87.4</ele>
        <time>2021-08-05T13:37:51Z</time>
      </trkpt>
      <trkpt lat="47.53766" lon="-2.80059">
        <ele>-87.4</ele>
        <time>2021-08-05T13:37:52Z</time>
      </trkpt>
      <trkpt lat="47.53765" lon="-2.8006">
        <ele>-87.4</ele>
        <time>2021-08-05T13:37:53Z</time>
      </trkpt>
      <trkpt lat="47.53764" lon="-2.8006">
        <ele>-87.4</ele>
        <time>2021-08-05T13:37:54Z</time>
      </trkpt>
      <trkpt lat="47.53763" lon="-2.80059">
        <ele>-87.4</ele>
        <time>2021-08-05T13:37:55Z</time>
      </trkpt>
      <trkpt lat="47.53762" lon="-2.80057">
        <ele>-87.4</ele>
        <time>2021-08-05T13:37:56Z</time>
      </trkpt>
      <trkpt lat="47.53761" lon="-2.80055">
        <ele>-87.4</ele>
        <time>2021-08-05T13:37:57Z</time>
      </trkpt>
      <trkpt lat="47.53761" lon="-2.80052">
        <ele>-87.4</ele>
        <time>2021-08-05T13:37:58Z</time>
      </trkpt>
      <trkpt lat="47.5376" lon="-2.8005">
        <ele>-87.4</ele>
        <time>2021-08-05T13:37:59Z</time>
      </trkpt>
      <trkpt lat="47.53759" lon="-2.80047">
        <ele>-87.4</ele>
        <time>2021-08-05T13:38:00Z</time>
      </trkpt>
      <trkpt lat="47.53758" lon="-2.80044">
        <ele>-87.4</ele>
        <time>2021-08-05T13:38:01Z</time>
      </trkpt>
      <trkpt lat="47.53757" lon="-2.80041">
        <ele>-87.6</ele>
        <time>2021-08-05T13:38:02Z</time>
      </trkpt>
      <trkpt lat="47.53756" lon="-2.80039">
        <ele>-88</ele>
        <time>2021-08-05T13:38:03Z</time>
      </trkpt>
      <trkpt lat="47.53755" lon="-2.80037">
        <ele>-88</ele>
        <time>2021-08-05T13:38:04Z</time>
      </trkpt>
      <trkpt lat="47.53754" lon="-2.80035">
        <ele>-88</ele>
        <time>2021-08-05T13:38:05Z</time>
      </trkpt>
      <trkpt lat="47.53754" lon="-2.80033">
        <ele>-88.2</ele>
        <time>2021-08-05T13:38:06Z</time>
      </trkpt>
      <trkpt lat="47.53753" lon="-2.80031">
        <ele>-88.4</ele>
        <time>2021-08-05T13:38:07Z</time>
      </trkpt>
      <trkpt lat="47.53752" lon="-2.80029">
        <ele>-89</ele>
        <time>2021-08-05T13:38:08Z</time>
      </trkpt>
      <trkpt lat="47.53751" lon="-2.80027">
        <ele>-89.2</ele>
        <time>2021-08-05T13:38:09Z</time>
      </trkpt>
      <trkpt lat="47.53751" lon="-2.80025">
        <ele>-89.4</ele>
        <time>2021-08-05T13:38:10Z</time>
      </trkpt>
      <trkpt lat="47.5375" lon="-2.80023">
        <ele>-89.4</ele>
        <time>2021-08-05T13:38:11Z</time>
      </trkpt>
      <trkpt lat="47.5375" lon="-2.80021">
        <ele>-89.6</ele>
        <time>2021-08-05T13:38:12Z</time>
      </trkpt>
      <trkpt lat="47.53751" lon="-2.80019">
        <ele>-90</ele>
        <time>2021-08-05T13:38:13Z</time>
      </trkpt>
      <trkpt lat="47.53752" lon="-2.80019">
        <ele>-90.2</ele>
        <time>2021-08-05T13:38:14Z</time>
      </trkpt>
      <trkpt lat="47.53753" lon="-2.80019">
        <ele>-90.2</ele>
        <time>2021-08-05T13:38:15Z</time>
      </trkpt>
      <trkpt lat="47.53754" lon="-2.8002">
        <ele>-90.4</ele>
        <time>2021-08-05T13:38:16Z</time>
      </trkpt>
      <trkpt lat="47.53754" lon="-2.8002">
        <ele>-90.4</ele>
        <time>2021-08-05T13:38:17Z</time>
      </trkpt>
      <trkpt lat="47.53754" lon="-2.80021">
        <ele>-91.4</ele>
        <time>2021-08-05T13:38:27Z</time>
      </trkpt>
      <trkpt lat="47.53754" lon="-2.80021">
        <ele>-91.4</ele>
        <time>2021-08-05T13:38:28Z</time>
      </trkpt>
      <trkpt lat="47.53754" lon="-2.80021">
        <ele>-91.6</ele>
        <time>2021-08-05T13:38:29Z</time>
      </trkpt>
      <trkpt lat="47.53756" lon="-2.80031">
        <ele>-112.8</ele>
        <time>2021-08-05T13:41:56Z</time>
      </trkpt>
      <trkpt lat="47.53757" lon="-2.80033">
        <ele>-113.2</ele>
        <time>2021-08-05T13:41:57Z</time>
      </trkpt>
      <trkpt lat="47.53758" lon="-2.80035">
        <ele>-113.2</ele>
        <time>2021-08-05T13:41:58Z</time>
      </trkpt>
      <trkpt lat="47.53759" lon="-2.80038">
        <ele>-113.2</ele>
        <time>2021-08-05T13:41:59Z</time>
      </trkpt>
      <trkpt lat="47.53759" lon="-2.80041">
        <ele>-113.4</ele>
        <time>2021-08-05T13:42:00Z</time>
      </trkpt>
      <trkpt lat="47.5376" lon="-2.80044">
        <ele>-113.6</ele>
        <time>2021-08-05T13:42:01Z</time>
      </trkpt>
      <trkpt lat="47.53761" lon="-2.80047">
        <ele>-113.6</ele>
        <time>2021-08-05T13:42:02Z</time>
      </trkpt>
      <trkpt lat="47.53763" lon="-2.80051">
        <ele>-113.8</ele>
        <time>2021-08-05T13:42:03Z</time>
      </trkpt>
      <trkpt lat="47.53765" lon="-2.80055">
        <ele>-113.8</ele>
        <time>2021-08-05T13:42:04Z</time>
      </trkpt>
      <trkpt lat="47.53766" lon="-2.80059">
        <ele>-114</ele>
        <time>2021-08-05T13:42:05Z</time>
      </trkpt>
      <trkpt lat="47.53767" lon="-2.80063">
        <ele>-114</ele>
        <time>2021-08-05T13:42:06Z</time>
      </trkpt>
      <trkpt lat="47.53769" lon="-2.80067">
        <ele>-114.2</ele>
        <time>2021-08-05T13:42:07Z</time>
      </trkpt>
      <trkpt lat="47.5377" lon="-2.80072">
        <ele>-114.4</ele>
        <time>2021-08-05T13:42:08Z</time>
      </trkpt>
      <trkpt lat="47.53772" lon="-2.80076">
        <ele>-114.6</ele>
        <time>2021-08-05T13:42:09Z</time>
      </trkpt>
      <trkpt lat="47.53774" lon="-2.80081">
        <ele>-114.8</ele>
        <time>2021-08-05T13:42:10Z</time>
      </trkpt>
      <trkpt lat="47.53775" lon="-2.80086">
        <ele>-115.2</ele>
        <time>2021-08-05T13:42:11Z</time>
      </trkpt>
      <trkpt lat="47.53777" lon="-2.80091">
        <ele>-115.4</ele>
        <time>2021-08-05T13:42:12Z</time>
      </trkpt>
      <trkpt lat="47.53779" lon="-2.80096">
        <ele>-115.6</ele>
        <time>2021-08-05T13:42:13Z</time>
      </trkpt>
      <trkpt lat="47.5378" lon="-2.80101">
        <ele>-116</ele>
        <time>2021-08-05T13:42:14Z</time>
      </trkpt>
      <trkpt lat="47.53782" lon="-2.80106">
        <ele>-116.4</ele>
        <time>2021-08-05T13:42:15Z</time>
      </trkpt>
      <trkpt lat="47.53784" lon="-2.80111">
        <ele>-116.6</ele>
        <time>2021-08-05T13:42:16Z</time>
      </trkpt>
      <trkpt lat="47.53786" lon="-2.80116">
        <ele>-116.8</ele>
        <time>2021-08-05T13:42:17Z</time>
      </trkpt>
      <trkpt lat="47.53787" lon="-2.80121">
        <ele>-116.8</ele>
        <time>2021-08-05T13:42:18Z</time>
      </trkpt>
      <trkpt lat="47.53788" lon="-2.80127">
        <ele>-117.2</ele>
        <time>2021-08-05T13:42:19Z</time>
      </trkpt>
      <trkpt lat="47.5379" lon="-2.80132">
        <ele>-117.2</ele>
        <time>2021-08-05T13:42:20Z</time>
      </trkpt>
      <trkpt lat="47.53792" lon="-2.80136">
        <ele>-117.4</ele>
        <time>2021-08-05T13:42:21Z</time>
      </trkpt>
      <trkpt lat="47.53794" lon="-2.80141">
        <ele>-117.4</ele>
        <time>2021-08-05T13:42:22Z</time>
      </trkpt>
      <trkpt lat="47.53795" lon="-2.80146">
        <ele>-117.4</ele>
        <time>2021-08-05T13:42:23Z</time>
      </trkpt>
      <trkpt lat="47.53797" lon="-2.8015">
        <ele>-117.4</ele>
        <time>2021-08-05T13:42:24Z</time>
      </trkpt>
      <trkpt lat="47.53798" lon="-2.80154">
        <ele>-117.4</ele>
        <time>2021-08-05T13:42:25Z</time>
      </trkpt>
      <trkpt lat="47.538" lon="-2.80158">
        <ele>-117.4</ele>
        <time>2021-08-05T13:42:26Z</time>
      </trkpt>
      <trkpt lat="47.53801" lon="-2.80162">
        <ele>-117.4</ele>
        <time>2021-08-05T13:42:27Z</time>
      </trkpt>
      <trkpt lat="47.53802" lon="-2.80166">
        <ele>-117.4</ele>
        <time>2021-08-05T13:42:28Z</time>
      </trkpt>
      <trkpt lat="47.53803" lon="-2.8017">
        <ele>-117.6</ele>
        <time>2021-08-05T13:42:29Z</time>
      </trkpt>
      <trkpt lat="47.53804" lon="-2.80174">
        <ele>-117.4</ele>
        <time>2021-08-05T13:42:30Z</time>
      </trkpt>
      <trkpt lat="47.53806" lon="-2.80177">
        <ele>-117.4</ele>
        <time>2021-08-05T13:42:31Z</time>
      </trkpt>
      <trkpt lat="47.53807" lon="-2.80181">
        <ele>-117.2</ele>
        <time>2021-08-05T13:42:32Z</time>
      </trkpt>
      <trkpt lat="47.53808" lon="-2.80184">
        <ele>-117.2</ele>
        <time>2021-08-05T13:42:33Z</time>
      </trkpt>
      <trkpt lat="47.53809" lon="-2.80187">
        <ele>-117</ele>
        <time>2021-08-05T13:42:34Z</time>
      </trkpt>
      <trkpt lat="47.5381" lon="-2.8019">
        <ele>-117</ele>
        <time>2021-08-05T13:42:35Z</time>
      </trkpt>
      <trkpt lat="47.5381" lon="-2.80194">
        <ele>-116.8</ele>
        <time>2021-08-05T13:42:36Z</time>
      </trkpt>
      <trkpt lat="47.53811" lon="-2.80197">
        <ele>-116.8</ele>
        <time>2021-08-05T13:42:37Z</time>
      </trkpt>
      <trkpt lat="47.53812" lon="-2.802">
        <ele>-116.6</ele>
        <time>2021-08-05T13:42:38Z</time>
      </trkpt>
      <trkpt lat="47.53813" lon="-2.80203">
        <ele>-116.6</ele>
        <time>2021-08-05T13:42:39Z</time>
      </trkpt>
      <trkpt lat="47.53814" lon="-2.80206">
        <ele>-116.2</ele>
        <time>2021-08-05T13:42:40Z</time>
      </trkpt>
      <trkpt lat="47.53814" lon="-2.80209">
        <ele>-116</ele>
        <time>2021-08-05T13:42:41Z</time>
      </trkpt>
      <trkpt lat="47.53815" lon="-2.80212">
        <ele>-115.8</ele>
        <time>2021-08-05T13:42:42Z</time>
      </trkpt>
      <trkpt lat="47.53816" lon="-2.80215">
        <ele>-115.4</ele>
        <time>2021-08-05T13:42:43Z</time>
      </trkpt>
      <trkpt lat="47.53816" lon="-2.80218">
        <ele>-115.2</ele>
        <time>2021-08-05T13:42:44Z</time>
      </trkpt>
      <trkpt lat="47.53817" lon="-2.80222">
        <ele>-114.8</ele>
        <time>2021-08-05T13:42:45Z</time>
      </trkpt>
      <trkpt lat="47.53818" lon="-2.80225">
        <ele>-114.8</ele>
        <time>2021-08-05T13:42:46Z</time>
      </trkpt>
      <trkpt lat="47.53819" lon="-2.80228">
        <ele>-114.4</ele>
        <time>2021-08-05T13:42:47Z</time>
      </trkpt>
      <trkpt lat="47.5382" lon="-2.80231">
        <ele>-114.2</ele>
        <time>2021-08-05T13:42:48Z</time>
      </trkpt>
      <trkpt lat="47.53821" lon="-2.80235">
        <ele>-114</ele>
        <time>2021-08-05T13:42:49Z</time>
      </trkpt>
      <trkpt lat="47.53821" lon="-2.80238">
        <ele>-113.6</ele>
        <time>2021-08-05T13:42:50Z</time>
      </trkpt>
      <trkpt lat="47.53822" lon="-2.80242">
        <ele>-113.6</ele>
        <time>2021-08-05T13:42:51Z</time>
      </trkpt>
      <trkpt lat="47.53824" lon="-2.80246">
        <ele>-113.4</ele>
        <time>2021-08-05T13:42:52Z</time>
      </trkpt>
      <trkpt lat="47.53825" lon="-2.80249">
        <ele>-113.2</ele>
        <time>2021-08-05T13:42:53Z</time>
      </trkpt>
      <trkpt lat="47.53826" lon="-2.80253">
        <ele>-113</ele>
        <time>2021-08-05T13:42:54Z</time>
      </trkpt>
      <trkpt lat="47.53827" lon="-2.80257">
        <ele>-113</ele>
        <time>2021-08-05T13:42:55Z</time>
      </trkpt>
      <trkpt lat="47.53828" lon="-2.80261">
        <ele>-112.8</ele>
        <time>2021-08-05T13:42:56Z</time>
      </trkpt>
      <trkpt lat="47.53829" lon="-2.80266">
        <ele>-112.6</ele>
        <time>2021-08-05T13:42:57Z</time>
      </trkpt>
      <trkpt lat="47.5383" lon="-2.8027">
        <ele>-112.2</ele>
        <time>2021-08-05T13:42:58Z</time>
      </trkpt>
      <trkpt lat="47.53831" lon="-2.80275">
        <ele>-112.2</ele>
        <time>2021-08-05T13:42:59Z</time>
      </trkpt>
      <trkpt lat="47.53832" lon="-2.8028">
        <ele>-112</ele>
        <time>2021-08-05T13:43:00Z</time>
      </trkpt>
      <trkpt lat="47.53833" lon="-2.80284">
        <ele>-112</ele>
        <time>2021-08-05T13:43:01Z</time>
      </trkpt>
      <trkpt lat="47.53834" lon="-2.80289">
        <ele>-111.8</ele>
        <time>2021-08-05T13:43:02Z</time>
      </trkpt>
      <trkpt lat="47.53836" lon="-2.80294">
        <ele>-111.6</ele>
        <time>2021-08-05T13:43:03Z</time>
      </trkpt>
      <trkpt lat="47.53837" lon="-2.80299">
        <ele>-111.6</ele>
        <time>2021-08-05T13:43:04Z</time>
      </trkpt>
      <trkpt lat="47.53838" lon="-2.80304">
        <ele>-111.4</ele>
        <time>2021-08-05T13:43:05Z</time>
      </trkpt>
      <trkpt lat="47.53839" lon="-2.8031">
        <ele>-111.2</ele>
        <time>2021-08-05T13:43:06Z</time>
      </trkpt>
      <trkpt lat="47.5384" lon="-2.80315">
        <ele>-111</ele>
        <time>2021-08-05T13:43:07Z</time>
      </trkpt>
      <trkpt lat="47.53841" lon="-2.80321">
        <ele>-111</ele>
        <time>2021-08-05T13:43:08Z</time>
      </trkpt>
      <trkpt lat="47.53841" lon="-2.80327">
        <ele>-110.6</ele>
        <time>2021-08-05T13:43:09Z</time>
      </trkpt>
      <trkpt lat="47.53842" lon="-2.80332">
        <ele>-110.2</ele>
        <time>2021-08-05T13:43:10Z</time>
      </trkpt>
      <trkpt lat="47.53843" lon="-2.80339">
        <ele>-110</ele>
        <time>2021-08-05T13:43:11Z</time>
      </trkpt>
      <trkpt lat="47.53843" lon="-2.80345">
        <ele>-109.8</ele>
        <time>2021-08-05T13:43:12Z</time>
      </trkpt>
      <trkpt lat="47.53844" lon="-2.80352">
        <ele>-109.6</ele>
        <time>2021-08-05T13:43:13Z</time>
      </trkpt>
      <trkpt lat="47.53846" lon="-2.80359">
        <ele>-109.6</ele>
        <time>2021-08-05T13:43:14Z</time>
      </trkpt>
      <trkpt lat="47.53847" lon="-2.80367">
        <ele>-109.4</ele>
        <time>2021-08-05T13:43:15Z</time>
      </trkpt>
      <trkpt lat="47.53848" lon="-2.80375">
        <ele>-109.2</ele>
        <time>2021-08-05T13:43:16Z</time>
      </trkpt>
      <trkpt lat="47.5385" lon="-2.80383">
        <ele>-109</ele>
        <time>2021-08-05T13:43:17Z</time>
      </trkpt>
      <trkpt lat="47.53852" lon="-2.80391">
        <ele>-109.2</ele>
        <time>2021-08-05T13:43:18Z</time>
      </trkpt>
      <trkpt lat="47.53855" lon="-2.80399">
        <ele>-109</ele>
        <time>2021-08-05T13:43:19Z</time>
      </trkpt>
      <trkpt lat="47.53858" lon="-2.80407">
        <ele>-108.8</ele>
        <time>2021-08-05T13:43:20Z</time>
      </trkpt>
      <trkpt lat="47.53861" lon="-2.80416">
        <ele>-108.8</ele>
        <time>2021-08-05T13:43:21Z</time>
      </trkpt>
      <trkpt lat="47.53865" lon="-2.80425">
        <ele>-108.6</ele>
        <time>2021-08-05T13:43:22Z</time>
      </trkpt>
      <trkpt lat="47.53869" lon="-2.80434">
        <ele>-108.4</ele>
        <time>2021-08-05T13:43:23Z</time>
      </trkpt>
      <trkpt lat="47.53874" lon="-2.80442">
        <ele>-108.2</ele>
        <time>2021-08-05T13:43:24Z</time>
      </trkpt>
      <trkpt lat="47.53879" lon="-2.8045">
        <ele>-108</ele>
        <time>2021-08-05T13:43:25Z</time>
      </trkpt>
      <trkpt lat="47.53885" lon="-2.80457">
        <ele>-107.8</ele>
        <time>2021-08-05T13:43:26Z</time>
      </trkpt>
      <trkpt lat="47.53891" lon="-2.80463">
        <ele>-107.8</ele>
        <time>2021-08-05T13:43:27Z</time>
      </trkpt>
      <trkpt lat="47.53896" lon="-2.80469">
        <ele>-107.8</ele>
        <time>2021-08-05T13:43:28Z</time>
      </trkpt>
      <trkpt lat="47.53902" lon="-2.80474">
        <ele>-107.6</ele>
        <time>2021-08-05T13:43:29Z</time>
      </trkpt>
      <trkpt lat="47.53907" lon="-2.80479">
        <ele>-107.4</ele>
        <time>2021-08-05T13:43:30Z</time>
      </trkpt>
      <trkpt lat="47.53913" lon="-2.80484">
        <ele>-107</ele>
        <time>2021-08-05T13:43:31Z</time>
      </trkpt>
      <trkpt lat="47.5392" lon="-2.80489">
        <ele>-107</ele>
        <time>2021-08-05T13:43:32Z</time>
      </trkpt>
      <trkpt lat="47.53926" lon="-2.80495">
        <ele>-106.8</ele>
        <time>2021-08-05T13:43:33Z</time>
      </trkpt>
      <trkpt lat="47.53931" lon="-2.80501">
        <ele>-106.4</ele>
        <time>2021-08-05T13:43:34Z</time>
      </trkpt>
      <trkpt lat="47.53936" lon="-2.80507">
        <ele>-106.2</ele>
        <time>2021-08-05T13:43:35Z</time>
      </trkpt>
      <trkpt lat="47.53941" lon="-2.80513">
        <ele>-105.8</ele>
        <time>2021-08-05T13:43:36Z</time>
      </trkpt>
      <trkpt lat="47.53946" lon="-2.8052">
        <ele>-105.4</ele>
        <time>2021-08-05T13:43:37Z</time>
      </trkpt>
      <trkpt lat="47.5395" lon="-2.80528">
        <ele>-105</ele>
        <time>2021-08-05T13:43:38Z</time>
      </trkpt>
      <trkpt lat="47.53954" lon="-2.80535">
        <ele>-104.4</ele>
        <time>2021-08-05T13:43:39Z</time>
      </trkpt>
      <trkpt lat="47.53957" lon="-2.80543">
        <ele>-104.2</ele>
        <time>2021-08-05T13:43:40Z</time>
      </trkpt>
      <trkpt lat="47.53961" lon="-2.8055">
        <ele>-103.8</ele>
        <time>2021-08-05T13:43:41Z</time>
      </trkpt>
      <trkpt lat="47.53965" lon="-2.80557">
        <ele>-103.8</ele>
        <time>2021-08-05T13:43:42Z</time>
      </trkpt>
      <trkpt lat="47.53969" lon="-2.80563">
        <ele>-103.6</ele>
        <time>2021-08-05T13:43:43Z</time>
      </trkpt>
      <trkpt lat="47.53974" lon="-2.8057">
        <ele>-103.4</ele>
        <time>2021-08-05T13:43:44Z</time>
      </trkpt>
      <trkpt lat="47.53978" lon="-2.80576">
        <ele>-103</ele>
        <time>2021-08-05T13:43:45Z</time>
      </trkpt>
      <trkpt lat="47.53982" lon="-2.80583">
        <ele>-102.8</ele>
        <time>2021-08-05T13:43:46Z</time>
      </trkpt>
      <trkpt lat="47.53987" lon="-2.80589">
        <ele>-102.4</ele>
        <time>2021-08-05T13:43:47Z</time>
      </trkpt>
      <trkpt lat="47.53991" lon="-2.80596">
        <ele>-102.2</ele>
        <time>2021-08-05T13:43:48Z</time>
      </trkpt>
      <trkpt lat="47.53995" lon="-2.80603">
        <ele>-102.2</ele>
        <time>2021-08-05T13:43:49Z</time>
      </trkpt>
      <trkpt lat="47.54" lon="-2.80609">
        <ele>-101.8</ele>
        <time>2021-08-05T13:43:50Z</time>
      </trkpt>
      <trkpt lat="47.54004" lon="-2.80616">
        <ele>-101.6</ele>
        <time>2021-08-05T13:43:51Z</time>
      </trkpt>
      <trkpt lat="47.54009" lon="-2.80622">
        <ele>-101.2</ele>
        <time>2021-08-05T13:43:52Z</time>
      </trkpt>
      <trkpt lat="47.54014" lon="-2.80629">
        <ele>-101</ele>
        <time>2021-08-05T13:43:53Z</time>
      </trkpt>
      <trkpt lat="47.54019" lon="-2.80636">
        <ele>-100.8</ele>
        <time>2021-08-05T13:43:54Z</time>
      </trkpt>
      <trkpt lat="47.54024" lon="-2.80642">
        <ele>-100.4</ele>
        <time>2021-08-05T13:43:55Z</time>
      </trkpt>
      <trkpt lat="47.54028" lon="-2.80649">
        <ele>-100.2</ele>
        <time>2021-08-05T13:43:56Z</time>
      </trkpt>
      <trkpt lat="47.54032" lon="-2.80656">
        <ele>-100</ele>
        <time>2021-08-05T13:43:57Z</time>
      </trkpt>
      <trkpt lat="47.54036" lon="-2.80662">
        <ele>-99.6</ele>
        <time>2021-08-05T13:43:58Z</time>
      </trkpt>
      <trkpt lat="47.5404" lon="-2.80668">
        <ele>-99.4</ele>
        <time>2021-08-05T13:43:59Z</time>
      </trkpt>
      <trkpt lat="47.54044" lon="-2.80674">
        <ele>-99.2</ele>
        <time>2021-08-05T13:44:00Z</time>
      </trkpt>
      <trkpt lat="47.54048" lon="-2.8068">
        <ele>-98.8</ele>
        <time>2021-08-05T13:44:01Z</time>
      </trkpt>
      <trkpt lat="47.54051" lon="-2.80687">
        <ele>-98.6</ele>
        <time>2021-08-05T13:44:02Z</time>
      </trkpt>
      <trkpt lat="47.54054" lon="-2.80693">
        <ele>-98.4</ele>
        <time>2021-08-05T13:44:03Z</time>
      </trkpt>
      <trkpt lat="47.54057" lon="-2.80699">
        <ele>-98.2</ele>
        <time>2021-08-05T13:44:04Z</time>
      </trkpt>
      <trkpt lat="47.5406" lon="-2.80705">
        <ele>-98</ele>
        <time>2021-08-05T13:44:05Z</time>
      </trkpt>
      <trkpt lat="47.54063" lon="-2.80711">
        <ele>-97.8</ele>
        <time>2021-08-05T13:44:06Z</time>
      </trkpt>
      <trkpt lat="47.54065" lon="-2.80717">
        <ele>-97.8</ele>
        <time>2021-08-05T13:44:07Z</time>
      </trkpt>
      <trkpt lat="47.54068" lon="-2.80723">
        <ele>-97.6</ele>
        <time>2021-08-05T13:44:08Z</time>
      </trkpt>
      <trkpt lat="47.5407" lon="-2.80728">
        <ele>-97.4</ele>
        <time>2021-08-05T13:44:09Z</time>
      </trkpt>
      <trkpt lat="47.54072" lon="-2.80734">
        <ele>-97.6</ele>
        <time>2021-08-05T13:44:10Z</time>
      </trkpt>
      <trkpt lat="47.54073" lon="-2.8074">
        <ele>-97.6</ele>
        <time>2021-08-05T13:44:11Z</time>
      </trkpt>
      <trkpt lat="47.54075" lon="-2.80746">
        <ele>-97.4</ele>
        <time>2021-08-05T13:44:12Z</time>
      </trkpt>
      <trkpt lat="47.54076" lon="-2.80752">
        <ele>-97.4</ele>
        <time>2021-08-05T13:44:13Z</time>
      </trkpt>
      <trkpt lat="47.54078" lon="-2.80757">
        <ele>-97.4</ele>
        <time>2021-08-05T13:44:14Z</time>
      </trkpt>
      <trkpt lat="47.54079" lon="-2.80762">
        <ele>-97.4</ele>
        <time>2021-08-05T13:44:15Z</time>
      </trkpt>
      <trkpt lat="47.5408" lon="-2.80767">
        <ele>-97.4</ele>
        <time>2021-08-05T13:44:16Z</time>
      </trkpt>
      <trkpt lat="47.54081" lon="-2.80772">
        <ele>-97.4</ele>
        <time>2021-08-05T13:44:17Z</time>
      </trkpt>
      <trkpt lat="47.54082" lon="-2.80776">
        <ele>-97.4</ele>
        <time>2021-08-05T13:44:18Z</time>
      </trkpt>
      <trkpt lat="47.54083" lon="-2.8078">
        <ele>-97.2</ele>
        <time>2021-08-05T13:44:19Z</time>
      </trkpt>
      <trkpt lat="47.54083" lon="-2.80784">
        <ele>-97.2</ele>
        <time>2021-08-05T13:44:20Z</time>
      </trkpt>
      <trkpt lat="47.54084" lon="-2.80788">
        <ele>-97.2</ele>
        <time>2021-08-05T13:44:21Z</time>
      </trkpt>
      <trkpt lat="47.54084" lon="-2.80793">
        <ele>-97.2</ele>
        <time>2021-08-05T13:44:22Z</time>
      </trkpt>
      <trkpt lat="47.54083" lon="-2.80797">
        <ele>-97.2</ele>
        <time>2021-08-05T13:44:23Z</time>
      </trkpt>
      <trkpt lat="47.54082" lon="-2.80801">
        <ele>-97.2</ele>
        <time>2021-08-05T13:44:24Z</time>
      </trkpt>
      <trkpt lat="47.54082" lon="-2.80806">
        <ele>-97.4</ele>
        <time>2021-08-05T13:44:25Z</time>
      </trkpt>
      <trkpt lat="47.54082" lon="-2.8081">
        <ele>-97.4</ele>
        <time>2021-08-05T13:44:26Z</time>
      </trkpt>
      <trkpt lat="47.54082" lon="-2.80815">
        <ele>-97.4</ele>
        <time>2021-08-05T13:44:27Z</time>
      </trkpt>
      <trkpt lat="47.54082" lon="-2.8082">
        <ele>-97.4</ele>
        <time>2021-08-05T13:44:28Z</time>
      </trkpt>
      <trkpt lat="47.54082" lon="-2.80825">
        <ele>-97.4</ele>
        <time>2021-08-05T13:44:29Z</time>
      </trkpt>
      <trkpt lat="47.54083" lon="-2.8083">
        <ele>-97.4</ele>
        <time>2021-08-05T13:44:30Z</time>
      </trkpt>
      <trkpt lat="47.54084" lon="-2.80834">
        <ele>-97.2</ele>
        <time>2021-08-05T13:44:31Z</time>
      </trkpt>
      <trkpt lat="47.54086" lon="-2.80839">
        <ele>-97.2</ele>
        <time>2021-08-05T13:44:32Z</time>
      </trkpt>
      <trkpt lat="47.54088" lon="-2.80843">
        <ele>-97.2</ele>
        <time>2021-08-05T13:44:33Z</time>
      </trkpt>
      <trkpt lat="47.5409" lon="-2.80848">
        <ele>-97.4</ele>
        <time>2021-08-05T13:44:34Z</time>
      </trkpt>
      <trkpt lat="47.54092" lon="-2.80852">
        <ele>-97.4</ele>
        <time>2021-08-05T13:44:35Z</time>
      </trkpt>
      <trkpt lat="47.54093" lon="-2.80856">
        <ele>-97.2</ele>
        <time>2021-08-05T13:44:36Z</time>
      </trkpt>
      <trkpt lat="47.54095" lon="-2.80859">
        <ele>-97.2</ele>
        <time>2021-08-05T13:44:37Z</time>
      </trkpt>
      <trkpt lat="47.54098" lon="-2.80863">
        <ele>-97.2</ele>
        <time>2021-08-05T13:44:38Z</time>
      </trkpt>
      <trkpt lat="47.541" lon="-2.80867">
        <ele>-97.2</ele>
        <time>2021-08-05T13:44:39Z</time>
      </trkpt>
      <trkpt lat="47.54102" lon="-2.8087">
        <ele>-97.2</ele>
        <time>2021-08-05T13:44:40Z</time>
      </trkpt>
      <trkpt lat="47.54104" lon="-2.80874">
        <ele>-97.2</ele>
        <time>2021-08-05T13:44:41Z</time>
      </trkpt>
      <trkpt lat="47.54106" lon="-2.80878">
        <ele>-97.2</ele>
        <time>2021-08-05T13:44:42Z</time>
      </trkpt>
      <trkpt lat="47.54108" lon="-2.80882">
        <ele>-97.4</ele>
        <time>2021-08-05T13:44:43Z</time>
      </trkpt>
      <trkpt lat="47.54111" lon="-2.80885">
        <ele>-97.2</ele>
        <time>2021-08-05T13:44:44Z</time>
      </trkpt>
      <trkpt lat="47.54113" lon="-2.80889">
        <ele>-97.2</ele>
        <time>2021-08-05T13:44:45Z</time>
      </trkpt>
      <trkpt lat="47.54115" lon="-2.80893">
        <ele>-97.2</ele>
        <time>2021-08-05T13:44:46Z</time>
      </trkpt>
      <trkpt lat="47.54117" lon="-2.80897">
        <ele>-97.4</ele>
        <time>2021-08-05T13:44:47Z</time>
      </trkpt>
      <trkpt lat="47.54119" lon="-2.80901">
        <ele>-97.4</ele>
        <time>2021-08-05T13:44:48Z</time>
      </trkpt>
      <trkpt lat="47.54121" lon="-2.80905">
        <ele>-97.2</ele>
        <time>2021-08-05T13:44:49Z</time>
      </trkpt>
      <trkpt lat="47.54123" lon="-2.80908">
        <ele>-97.2</ele>
        <time>2021-08-05T13:44:50Z</time>
      </trkpt>
      <trkpt lat="47.54125" lon="-2.80912">
        <ele>-97.2</ele>
        <time>2021-08-05T13:44:51Z</time>
      </trkpt>
      <trkpt lat="47.54126" lon="-2.80916">
        <ele>-97.2</ele>
        <time>2021-08-05T13:44:52Z</time>
      </trkpt>
      <trkpt lat="47.54128" lon="-2.8092">
        <ele>-97.2</ele>
        <time>2021-08-05T13:44:53Z</time>
      </trkpt>
      <trkpt lat="47.5413" lon="-2.80924">
        <ele>-97</ele>
        <time>2021-08-05T13:44:54Z</time>
      </trkpt>
      <trkpt lat="47.54131" lon="-2.80928">
        <ele>-97.2</ele>
        <time>2021-08-05T13:44:55Z</time>
      </trkpt>
      <trkpt lat="47.54133" lon="-2.80933">
        <ele>-97.2</ele>
        <time>2021-08-05T13:44:56Z</time>
      </trkpt>
      <trkpt lat="47.54134" lon="-2.80937">
        <ele>-97</ele>
        <time>2021-08-05T13:44:57Z</time>
      </trkpt>
      <trkpt lat="47.54135" lon="-2.80941">
        <ele>-97</ele>
        <time>2021-08-05T13:44:58Z</time>
      </trkpt>
      <trkpt lat="47.54136" lon="-2.80946">
        <ele>-97</ele>
        <time>2021-08-05T13:44:59Z</time>
      </trkpt>
      <trkpt lat="47.54137" lon="-2.8095">
        <ele>-96.8</ele>
        <time>2021-08-05T13:45:00Z</time>
      </trkpt>
      <trkpt lat="47.54137" lon="-2.80955">
        <ele>-97</ele>
        <time>2021-08-05T13:45:01Z</time>
      </trkpt>
      <trkpt lat="47.54138" lon="-2.8096">
        <ele>-97</ele>
        <time>2021-08-05T13:45:02Z</time>
      </trkpt>
      <trkpt lat="47.54138" lon="-2.80964">
        <ele>-96.8</ele>
        <time>2021-08-05T13:45:03Z</time>
      </trkpt>
      <trkpt lat="47.54138" lon="-2.80969">
        <ele>-96.8</ele>
        <time>2021-08-05T13:45:04Z</time>
      </trkpt>
      <trkpt lat="47.54139" lon="-2.80974">
        <ele>-96.8</ele>
        <time>2021-08-05T13:45:05Z</time>
      </trkpt>
      <trkpt lat="47.54139" lon="-2.80978">
        <ele>-96.8</ele>
        <time>2021-08-05T13:45:06Z</time>
      </trkpt>
      <trkpt lat="47.54139" lon="-2.80983">
        <ele>-96.6</ele>
        <time>2021-08-05T13:45:07Z</time>
      </trkpt>
      <trkpt lat="47.5414" lon="-2.80987">
        <ele>-96.6</ele>
        <time>2021-08-05T13:45:08Z</time>
      </trkpt>
      <trkpt lat="47.5414" lon="-2.80992">
        <ele>-96.8</ele>
        <time>2021-08-05T13:45:09Z</time>
      </trkpt>
      <trkpt lat="47.5414" lon="-2.80996">
        <ele>-96.8</ele>
        <time>2021-08-05T13:45:10Z</time>
      </trkpt>
      <trkpt lat="47.5414" lon="-2.81001">
        <ele>-96.6</ele>
        <time>2021-08-05T13:45:11Z</time>
      </trkpt>
      <trkpt lat="47.5414" lon="-2.81006">
        <ele>-96.6</ele>
        <time>2021-08-05T13:45:12Z</time>
      </trkpt>
      <trkpt lat="47.5414" lon="-2.81011">
        <ele>-96.4</ele>
        <time>2021-08-05T13:45:13Z</time>
      </trkpt>
      <trkpt lat="47.54141" lon="-2.81016">
        <ele>-96.4</ele>
        <time>2021-08-05T13:45:14Z</time>
      </trkpt>
      <trkpt lat="47.54141" lon="-2.81021">
        <ele>-96.2</ele>
        <time>2021-08-05T13:45:15Z</time>
      </trkpt>
      <trkpt lat="47.54141" lon="-2.81025">
        <ele>-96.2</ele>
        <time>2021-08-05T13:45:16Z</time>
      </trkpt>
      <trkpt lat="47.54142" lon="-2.8103">
        <ele>-96</ele>
        <time>2021-08-05T13:45:17Z</time>
      </trkpt>
      <trkpt lat="47.54143" lon="-2.81034">
        <ele>-95.8</ele>
        <time>2021-08-05T13:45:18Z</time>
      </trkpt>
      <trkpt lat="47.54144" lon="-2.81039">
        <ele>-95.8</ele>
        <time>2021-08-05T13:45:19Z</time>
      </trkpt>
      <trkpt lat="47.54145" lon="-2.81043">
        <ele>-95.8</ele>
        <time>2021-08-05T13:45:20Z</time>
      </trkpt>
      <trkpt lat="47.54146" lon="-2.81047">
        <ele>-95.8</ele>
        <time>2021-08-05T13:45:21Z</time>
      </trkpt>
      <trkpt lat="47.54147" lon="-2.81051">
        <ele>-95.8</ele>
        <time>2021-08-05T13:45:22Z</time>
      </trkpt>
      <trkpt lat="47.54148" lon="-2.81055">
        <ele>-95.6</ele>
        <time>2021-08-05T13:45:23Z</time>
      </trkpt>
      <trkpt lat="47.54149" lon="-2.81059">
        <ele>-95.6</ele>
        <time>2021-08-05T13:45:24Z</time>
      </trkpt>
      <trkpt lat="47.5415" lon="-2.81063">
        <ele>-95.6</ele>
        <time>2021-08-05T13:45:25Z</time>
      </trkpt>
      <trkpt lat="47.54151" lon="-2.81067">
        <ele>-95.6</ele>
        <time>2021-08-05T13:45:26Z</time>
      </trkpt>
      <trkpt lat="47.54152" lon="-2.81071">
        <ele>-95.6</ele>
        <time>2021-08-05T13:45:27Z</time>
      </trkpt>
      <trkpt lat="47.54153" lon="-2.81075">
        <ele>-95.6</ele>
        <time>2021-08-05T13:45:28Z</time>
      </trkpt>
      <trkpt lat="47.54155" lon="-2.8108">
        <ele>-95.6</ele>
        <time>2021-08-05T13:45:29Z</time>
      </trkpt>
      <trkpt lat="47.54155" lon="-2.81084">
        <ele>-95.4</ele>
        <time>2021-08-05T13:45:30Z</time>
      </trkpt>
      <trkpt lat="47.54156" lon="-2.81088">
        <ele>-95.6</ele>
        <time>2021-08-05T13:45:31Z</time>
      </trkpt>
      <trkpt lat="47.54158" lon="-2.81092">
        <ele>-95.6</ele>
        <time>2021-08-05T13:45:32Z</time>
      </trkpt>
      <trkpt lat="47.54159" lon="-2.81096">
        <ele>-95.6</ele>
        <time>2021-08-05T13:45:33Z</time>
      </trkpt>
      <trkpt lat="47.5416" lon="-2.811">
        <ele>-95.6</ele>
        <time>2021-08-05T13:45:34Z</time>
      </trkpt>
      <trkpt lat="47.54161" lon="-2.81104">
        <ele>-95.6</ele>
        <time>2021-08-05T13:45:35Z</time>
      </trkpt>
      <trkpt lat="47.54162" lon="-2.81108">
        <ele>-95.4</ele>
        <time>2021-08-05T13:45:36Z</time>
      </trkpt>
      <trkpt lat="47.54163" lon="-2.81113">
        <ele>-95.4</ele>
        <time>2021-08-05T13:45:37Z</time>
      </trkpt>
      <trkpt lat="47.54165" lon="-2.81117">
        <ele>-95.4</ele>
        <time>2021-08-05T13:45:38Z</time>
      </trkpt>
      <trkpt lat="47.54166" lon="-2.81122">
        <ele>-95.4</ele>
        <time>2021-08-05T13:45:39Z</time>
      </trkpt>
      <trkpt lat="47.54167" lon="-2.81127">
        <ele>-95.4</ele>
        <time>2021-08-05T13:45:40Z</time>
      </trkpt>
      <trkpt lat="47.54168" lon="-2.81132">
        <ele>-95.4</ele>
        <time>2021-08-05T13:45:41Z</time>
      </trkpt>
      <trkpt lat="47.54169" lon="-2.81137">
        <ele>-95.4</ele>
        <time>2021-08-05T13:45:42Z</time>
      </trkpt>
      <trkpt lat="47.5417" lon="-2.81143">
        <ele>-95.4</ele>
        <time>2021-08-05T13:45:43Z</time>
      </trkpt>
      <trkpt lat="47.54172" lon="-2.81149">
        <ele>-95.4</ele>
        <time>2021-08-05T13:45:44Z</time>
      </trkpt>
      <trkpt lat="47.54173" lon="-2.81156">
        <ele>-95.4</ele>
        <time>2021-08-05T13:45:45Z</time>
      </trkpt>
      <trkpt lat="47.54174" lon="-2.81163">
        <ele>-95.6</ele>
        <time>2021-08-05T13:45:46Z</time>
      </trkpt>
      <trkpt lat="47.54175" lon="-2.8117">
        <ele>-95.8</ele>
        <time>2021-08-05T13:45:47Z</time>
      </trkpt>
      <trkpt lat="47.54176" lon="-2.81178">
        <ele>-96</ele>
        <time>2021-08-05T13:45:48Z</time>
      </trkpt>
      <trkpt lat="47.54177" lon="-2.81185">
        <ele>-96</ele>
        <time>2021-08-05T13:45:49Z</time>
      </trkpt>
      <trkpt lat="47.54178" lon="-2.81193">
        <ele>-96</ele>
        <time>2021-08-05T13:45:50Z</time>
      </trkpt>
      <trkpt lat="47.54179" lon="-2.81201">
        <ele>-96</ele>
        <time>2021-08-05T13:45:51Z</time>
      </trkpt>
      <trkpt lat="47.5418" lon="-2.81209">
        <ele>-96.2</ele>
        <time>2021-08-05T13:45:52Z</time>
      </trkpt>
      <trkpt lat="47.54181" lon="-2.81217">
        <ele>-96.2</ele>
        <time>2021-08-05T13:45:53Z</time>
      </trkpt>
      <trkpt lat="47.54182" lon="-2.81225">
        <ele>-96.4</ele>
        <time>2021-08-05T13:45:54Z</time>
      </trkpt>
      <trkpt lat="47.54184" lon="-2.81232">
        <ele>-96.4</ele>
        <time>2021-08-05T13:45:55Z</time>
      </trkpt>
      <trkpt lat="47.54185" lon="-2.8124">
        <ele>-96.4</ele>
        <time>2021-08-05T13:45:56Z</time>
      </trkpt>
      <trkpt lat="47.54186" lon="-2.81247">
        <ele>-96.6</ele>
        <time>2021-08-05T13:45:57Z</time>
      </trkpt>
      <trkpt lat="47.54188" lon="-2.81254">
        <ele>-96.6</ele>
        <time>2021-08-05T13:45:58Z</time>
      </trkpt>
      <trkpt lat="47.54189" lon="-2.8126">
        <ele>-96.6</ele>
        <time>2021-08-05T13:45:59Z</time>
      </trkpt>
      <trkpt lat="47.5419" lon="-2.81267">
        <ele>-96.6</ele>
        <time>2021-08-05T13:46:00Z</time>
      </trkpt>
      <trkpt lat="47.54192" lon="-2.81273">
        <ele>-96.8</ele>
        <time>2021-08-05T13:46:01Z</time>
      </trkpt>
      <trkpt lat="47.54193" lon="-2.81279">
        <ele>-97</ele>
        <time>2021-08-05T13:46:02Z</time>
      </trkpt>
      <trkpt lat="47.54194" lon="-2.81285">
        <ele>-97.2</ele>
        <time>2021-08-05T13:46:03Z</time>
      </trkpt>
      <trkpt lat="47.54195" lon="-2.81291">
        <ele>-97.2</ele>
        <time>2021-08-05T13:46:04Z</time>
      </trkpt>
      <trkpt lat="47.54196" lon="-2.81297">
        <ele>-97.2</ele>
        <time>2021-08-05T13:46:05Z</time>
      </trkpt>
      <trkpt lat="47.54197" lon="-2.81304">
        <ele>-97.4</ele>
        <time>2021-08-05T13:46:06Z</time>
      </trkpt>
      <trkpt lat="47.54197" lon="-2.8131">
        <ele>-97.6</ele>
        <time>2021-08-05T13:46:07Z</time>
      </trkpt>
      <trkpt lat="47.54198" lon="-2.81316">
        <ele>-97.8</ele>
        <time>2021-08-05T13:46:08Z</time>
      </trkpt>
      <trkpt lat="47.54199" lon="-2.81322">
        <ele>-97.8</ele>
        <time>2021-08-05T13:46:09Z</time>
      </trkpt>
      <trkpt lat="47.542" lon="-2.81327">
        <ele>-98</ele>
        <time>2021-08-05T13:46:10Z</time>
      </trkpt>
      <trkpt lat="47.54201" lon="-2.81333">
        <ele>-98.2</ele>
        <time>2021-08-05T13:46:11Z</time>
      </trkpt>
      <trkpt lat="47.54202" lon="-2.81338">
        <ele>-98.2</ele>
        <time>2021-08-05T13:46:12Z</time>
      </trkpt>
      <trkpt lat="47.54203" lon="-2.81343">
        <ele>-98.2</ele>
        <time>2021-08-05T13:46:13Z</time>
      </trkpt>
      <trkpt lat="47.54204" lon="-2.81349">
        <ele>-98.2</ele>
        <time>2021-08-05T13:46:14Z</time>
      </trkpt>
      <trkpt lat="47.54205" lon="-2.81354">
        <ele>-98.4</ele>
        <time>2021-08-05T13:46:15Z</time>
      </trkpt>
      <trkpt lat="47.54206" lon="-2.81359">
        <ele>-98.8</ele>
        <time>2021-08-05T13:46:16Z</time>
      </trkpt>
      <trkpt lat="47.54207" lon="-2.81364">
        <ele>-98.8</ele>
        <time>2021-08-05T13:46:17Z</time>
      </trkpt>
      <trkpt lat="47.54208" lon="-2.81369">
        <ele>-99</ele>
        <time>2021-08-05T13:46:18Z</time>
      </trkpt>
      <trkpt lat="47.54208" lon="-2.81374">
        <ele>-99</ele>
        <time>2021-08-05T13:46:19Z</time>
      </trkpt>
      <trkpt lat="47.54209" lon="-2.81379">
        <ele>-99.2</ele>
        <time>2021-08-05T13:46:20Z</time>
      </trkpt>
      <trkpt lat="47.5421" lon="-2.81384">
        <ele>-99.4</ele>
        <time>2021-08-05T13:46:21Z</time>
      </trkpt>
      <trkpt lat="47.54211" lon="-2.81388">
        <ele>-99.4</ele>
        <time>2021-08-05T13:46:22Z</time>
      </trkpt>
      <trkpt lat="47.54212" lon="-2.81393">
        <ele>-99.6</ele>
        <time>2021-08-05T13:46:23Z</time>
      </trkpt>
      <trkpt lat="47.54212" lon="-2.81397">
        <ele>-99.6</ele>
        <time>2021-08-05T13:46:24Z</time>
      </trkpt>
      <trkpt lat="47.54213" lon="-2.81401">
        <ele>-100</ele>
        <time>2021-08-05T13:46:25Z</time>
      </trkpt>
      <trkpt lat="47.54213" lon="-2.81406">
        <ele>-100.2</ele>
        <time>2021-08-05T13:46:26Z</time>
      </trkpt>
      <trkpt lat="47.54214" lon="-2.8141">
        <ele>-100.4</ele>
        <time>2021-08-05T13:46:27Z</time>
      </trkpt>
      <trkpt lat="47.54214" lon="-2.81414">
        <ele>-100.4</ele>
        <time>2021-08-05T13:46:28Z</time>
      </trkpt>
      <trkpt lat="47.54213" lon="-2.81418">
        <ele>-100.4</ele>
        <time>2021-08-05T13:46:29Z</time>
      </trkpt>
      <trkpt lat="47.54213" lon="-2.81423">
        <ele>-100.6</ele>
        <time>2021-08-05T13:46:30Z</time>
      </trkpt>
      <trkpt lat="47.54212" lon="-2.81427">
        <ele>-100.8</ele>
        <time>2021-08-05T13:46:31Z</time>
      </trkpt>
      <trkpt lat="47.54211" lon="-2.81432">
        <ele>-100.8</ele>
        <time>2021-08-05T13:46:32Z</time>
      </trkpt>
      <trkpt lat="47.5421" lon="-2.81436">
        <ele>-101.2</ele>
        <time>2021-08-05T13:46:33Z</time>
      </trkpt>
      <trkpt lat="47.54209" lon="-2.81441">
        <ele>-101.6</ele>
        <time>2021-08-05T13:46:34Z</time>
      </trkpt>
      <trkpt lat="47.54207" lon="-2.81445">
        <ele>-101.8</ele>
        <time>2021-08-05T13:46:35Z</time>
      </trkpt>
      <trkpt lat="47.54205" lon="-2.81449">
        <ele>-102</ele>
        <time>2021-08-05T13:46:36Z</time>
      </trkpt>
      <trkpt lat="47.54204" lon="-2.81453">
        <ele>-102</ele>
        <time>2021-08-05T13:46:37Z</time>
      </trkpt>
      <trkpt lat="47.54202" lon="-2.81456">
        <ele>-102.2</ele>
        <time>2021-08-05T13:46:38Z</time>
      </trkpt>
      <trkpt lat="47.542" lon="-2.8146">
        <ele>-102.4</ele>
        <time>2021-08-05T13:46:39Z</time>
      </trkpt>
      <trkpt lat="47.54198" lon="-2.81463">
        <ele>-102.8</ele>
        <time>2021-08-05T13:46:40Z</time>
      </trkpt>
      <trkpt lat="47.54196" lon="-2.81467">
        <ele>-103</ele>
        <time>2021-08-05T13:46:41Z</time>
      </trkpt>
      <trkpt lat="47.54194" lon="-2.81471">
        <ele>-103.2</ele>
        <time>2021-08-05T13:46:42Z</time>
      </trkpt>
      <trkpt lat="47.54192" lon="-2.81474">
        <ele>-103.4</ele>
        <time>2021-08-05T13:46:43Z</time>
      </trkpt>
      <trkpt lat="47.5419" lon="-2.81477">
        <ele>-103.4</ele>
        <time>2021-08-05T13:46:44Z</time>
      </trkpt>
      <trkpt lat="47.54189" lon="-2.8148">
        <ele>-103.6</ele>
        <time>2021-08-05T13:46:45Z</time>
      </trkpt>
      <trkpt lat="47.54187" lon="-2.81483">
        <ele>-103.6</ele>
        <time>2021-08-05T13:46:46Z</time>
      </trkpt>
      <trkpt lat="47.54186" lon="-2.81487">
        <ele>-103.6</ele>
        <time>2021-08-05T13:46:47Z</time>
      </trkpt>
      <trkpt lat="47.54184" lon="-2.8149">
        <ele>-104</ele>
        <time>2021-08-05T13:46:48Z</time>
      </trkpt>
      <trkpt lat="47.54183" lon="-2.81493">
        <ele>-104</ele>
        <time>2021-08-05T13:46:49Z</time>
      </trkpt>
      <trkpt lat="47.54181" lon="-2.81496">
        <ele>-104</ele>
        <time>2021-08-05T13:46:50Z</time>
      </trkpt>
      <trkpt lat="47.5418" lon="-2.81499">
        <ele>-104.2</ele>
        <time>2021-08-05T13:46:51Z</time>
      </trkpt>
      <trkpt lat="47.54179" lon="-2.81502">
        <ele>-104.2</ele>
        <time>2021-08-05T13:46:52Z</time>
      </trkpt>
      <trkpt lat="47.54178" lon="-2.81505">
        <ele>-104.2</ele>
        <time>2021-08-05T13:46:53Z</time>
      </trkpt>
      <trkpt lat="47.54177" lon="-2.81508">
        <ele>-104.6</ele>
        <time>2021-08-05T13:46:54Z</time>
      </trkpt>
      <trkpt lat="47.54176" lon="-2.81511">
        <ele>-104.6</ele>
        <time>2021-08-05T13:46:55Z</time>
      </trkpt>
      <trkpt lat="47.54176" lon="-2.81514">
        <ele>-104.8</ele>
        <time>2021-08-05T13:46:56Z</time>
      </trkpt>
      <trkpt lat="47.54175" lon="-2.81517">
        <ele>-105</ele>
        <time>2021-08-05T13:46:57Z</time>
      </trkpt>
      <trkpt lat="47.54175" lon="-2.81521">
        <ele>-105.2</ele>
        <time>2021-08-05T13:46:58Z</time>
      </trkpt>
      <trkpt lat="47.54174" lon="-2.81524">
        <ele>-105.4</ele>
        <time>2021-08-05T13:46:59Z</time>
      </trkpt>
      <trkpt lat="47.54173" lon="-2.81527">
        <ele>-105.4</ele>
        <time>2021-08-05T13:47:00Z</time>
      </trkpt>
      <trkpt lat="47.54172" lon="-2.81531">
        <ele>-105.6</ele>
        <time>2021-08-05T13:47:01Z</time>
      </trkpt>
      <trkpt lat="47.54171" lon="-2.81535">
        <ele>-105.8</ele>
        <time>2021-08-05T13:47:02Z</time>
      </trkpt>
      <trkpt lat="47.5417" lon="-2.8154">
        <ele>-106</ele>
        <time>2021-08-05T13:47:03Z</time>
      </trkpt>
      <trkpt lat="47.54169" lon="-2.81545">
        <ele>-106</ele>
        <time>2021-08-05T13:47:04Z</time>
      </trkpt>
      <trkpt lat="47.54168" lon="-2.8155">
        <ele>-106.4</ele>
        <time>2021-08-05T13:47:05Z</time>
      </trkpt>
      <trkpt lat="47.54167" lon="-2.81555">
        <ele>-106.6</ele>
        <time>2021-08-05T13:47:06Z</time>
      </trkpt>
      <trkpt lat="47.54165" lon="-2.81559">
        <ele>-107</ele>
        <time>2021-08-05T13:47:07Z</time>
      </trkpt>
      <trkpt lat="47.54163" lon="-2.81564">
        <ele>-107.2</ele>
        <time>2021-08-05T13:47:08Z</time>
      </trkpt>
      <trkpt lat="47.54161" lon="-2.81569">
        <ele>-107.4</ele>
        <time>2021-08-05T13:47:09Z</time>
      </trkpt>
      <trkpt lat="47.54159" lon="-2.81574">
        <ele>-107.4</ele>
        <time>2021-08-05T13:47:10Z</time>
      </trkpt>
      <trkpt lat="47.54156" lon="-2.81579">
        <ele>-107.8</ele>
        <time>2021-08-05T13:47:11Z</time>
      </trkpt>
      <trkpt lat="47.54154" lon="-2.81584">
        <ele>-108</ele>
        <time>2021-08-05T13:47:12Z</time>
      </trkpt>
      <trkpt lat="47.54151" lon="-2.81589">
        <ele>-108.2</ele>
        <time>2021-08-05T13:47:13Z</time>
      </trkpt>
      <trkpt lat="47.54149" lon="-2.81594">
        <ele>-108.4</ele>
        <time>2021-08-05T13:47:14Z</time>
      </trkpt>
      <trkpt lat="47.54146" lon="-2.816">
        <ele>-108.6</ele>
        <time>2021-08-05T13:47:15Z</time>
      </trkpt>
      <trkpt lat="47.54144" lon="-2.81606">
        <ele>-108.8</ele>
        <time>2021-08-05T13:47:16Z</time>
      </trkpt>
      <trkpt lat="47.54141" lon="-2.81613">
        <ele>-108.8</ele>
        <time>2021-08-05T13:47:17Z</time>
      </trkpt>
      <trkpt lat="47.54139" lon="-2.8162">
        <ele>-109.2</ele>
        <time>2021-08-05T13:47:18Z</time>
      </trkpt>
      <trkpt lat="47.54137" lon="-2.81627">
        <ele>-109.2</ele>
        <time>2021-08-05T13:47:19Z</time>
      </trkpt>
      <trkpt lat="47.54135" lon="-2.81634">
        <ele>-109.4</ele>
        <time>2021-08-05T13:47:20Z</time>
      </trkpt>
      <trkpt lat="47.54134" lon="-2.81641">
        <ele>-109.4</ele>
        <time>2021-08-05T13:47:21Z</time>
      </trkpt>
      <trkpt lat="47.54133" lon="-2.81648">
        <ele>-109.6</ele>
        <time>2021-08-05T13:47:22Z</time>
      </trkpt>
      <trkpt lat="47.54132" lon="-2.81656">
        <ele>-109.6</ele>
        <time>2021-08-05T13:47:23Z</time>
      </trkpt>
      <trkpt lat="47.54132" lon="-2.81663">
        <ele>-109.8</ele>
        <time>2021-08-05T13:47:24Z</time>
      </trkpt>
      <trkpt lat="47.54132" lon="-2.8167">
        <ele>-109.8</ele>
        <time>2021-08-05T13:47:25Z</time>
      </trkpt>
      <trkpt lat="47.54132" lon="-2.81678">
        <ele>-110</ele>
        <time>2021-08-05T13:47:26Z</time>
      </trkpt>
      <trkpt lat="47.54131" lon="-2.81685">
        <ele>-110.2</ele>
        <time>2021-08-05T13:47:27Z</time>
      </trkpt>
      <trkpt lat="47.54131" lon="-2.81692">
        <ele>-110.4</ele>
        <time>2021-08-05T13:47:28Z</time>
      </trkpt>
      <trkpt lat="47.54131" lon="-2.817">
        <ele>-110.6</ele>
        <time>2021-08-05T13:47:29Z</time>
      </trkpt>
      <trkpt lat="47.54131" lon="-2.81707">
        <ele>-110.8</ele>
        <time>2021-08-05T13:47:30Z</time>
      </trkpt>
      <trkpt lat="47.54131" lon="-2.81715">
        <ele>-111</ele>
        <time>2021-08-05T13:47:31Z</time>
      </trkpt>
      <trkpt lat="47.54131" lon="-2.81722">
        <ele>-111</ele>
        <time>2021-08-05T13:47:32Z</time>
      </trkpt>
      <trkpt lat="47.54131" lon="-2.8173">
        <ele>-111</ele>
        <time>2021-08-05T13:47:33Z</time>
      </trkpt>
      <trkpt lat="47.54131" lon="-2.81738">
        <ele>-111</ele>
        <time>2021-08-05T13:47:34Z</time>
      </trkpt>
      <trkpt lat="47.54131" lon="-2.81746">
        <ele>-111</ele>
        <time>2021-08-05T13:47:35Z</time>
      </trkpt>
      <trkpt lat="47.54131" lon="-2.81754">
        <ele>-111</ele>
        <time>2021-08-05T13:47:36Z</time>
      </trkpt>
      <trkpt lat="47.54132" lon="-2.81762">
        <ele>-111</ele>
        <time>2021-08-05T13:47:37Z</time>
      </trkpt>
      <trkpt lat="47.54134" lon="-2.8177">
        <ele>-111</ele>
        <time>2021-08-05T13:47:38Z</time>
      </trkpt>
      <trkpt lat="47.54136" lon="-2.81777">
        <ele>-111</ele>
        <time>2021-08-05T13:47:39Z</time>
      </trkpt>
      <trkpt lat="47.54138" lon="-2.81785">
        <ele>-111</ele>
        <time>2021-08-05T13:47:40Z</time>
      </trkpt>
      <trkpt lat="47.5414" lon="-2.81792">
        <ele>-111</ele>
        <time>2021-08-05T13:47:41Z</time>
      </trkpt>
      <trkpt lat="47.54142" lon="-2.818">
        <ele>-110.8</ele>
        <time>2021-08-05T13:47:42Z</time>
      </trkpt>
      <trkpt lat="47.54144" lon="-2.81807">
        <ele>-110.8</ele>
        <time>2021-08-05T13:47:43Z</time>
      </trkpt>
      <trkpt lat="47.54146" lon="-2.81815">
        <ele>-110.6</ele>
        <time>2021-08-05T13:47:44Z</time>
      </trkpt>
      <trkpt lat="47.54149" lon="-2.81822">
        <ele>-110.6</ele>
        <time>2021-08-05T13:47:45Z</time>
      </trkpt>
      <trkpt lat="47.54151" lon="-2.81828">
        <ele>-110.8</ele>
        <time>2021-08-05T13:47:46Z</time>
      </trkpt>
      <trkpt lat="47.54154" lon="-2.81835">
        <ele>-110.6</ele>
        <time>2021-08-05T13:47:47Z</time>
      </trkpt>
      <trkpt lat="47.54156" lon="-2.81842">
        <ele>-110.4</ele>
        <time>2021-08-05T13:47:48Z</time>
      </trkpt>
      <trkpt lat="47.54158" lon="-2.81849">
        <ele>-110.2</ele>
        <time>2021-08-05T13:47:49Z</time>
      </trkpt>
      <trkpt lat="47.54161" lon="-2.81855">
        <ele>-110.2</ele>
        <time>2021-08-05T13:47:50Z</time>
      </trkpt>
      <trkpt lat="47.54164" lon="-2.81862">
        <ele>-110</ele>
        <time>2021-08-05T13:47:51Z</time>
      </trkpt>
      <trkpt lat="47.54166" lon="-2.81868">
        <ele>-110</ele>
        <time>2021-08-05T13:47:52Z</time>
      </trkpt>
      <trkpt lat="47.54169" lon="-2.81874">
        <ele>-109.8</ele>
        <time>2021-08-05T13:47:53Z</time>
      </trkpt>
      <trkpt lat="47.54171" lon="-2.81881">
        <ele>-109.6</ele>
        <time>2021-08-05T13:47:54Z</time>
      </trkpt>
      <trkpt lat="47.54174" lon="-2.81887">
        <ele>-109.6</ele>
        <time>2021-08-05T13:47:55Z</time>
      </trkpt>
      <trkpt lat="47.54176" lon="-2.81894">
        <ele>-109.4</ele>
        <time>2021-08-05T13:47:56Z</time>
      </trkpt>
      <trkpt lat="47.54178" lon="-2.81901">
        <ele>-109.4</ele>
        <time>2021-08-05T13:47:57Z</time>
      </trkpt>
      <trkpt lat="47.54181" lon="-2.81908">
        <ele>-109.2</ele>
        <time>2021-08-05T13:47:58Z</time>
      </trkpt>
      <trkpt lat="47.54183" lon="-2.81914">
        <ele>-109</ele>
        <time>2021-08-05T13:47:59Z</time>
      </trkpt>
      <trkpt lat="47.54186" lon="-2.81921">
        <ele>-108.6</ele>
        <time>2021-08-05T13:48:00Z</time>
      </trkpt>
      <trkpt lat="47.54188" lon="-2.81927">
        <ele>-108.6</ele>
        <time>2021-08-05T13:48:01Z</time>
      </trkpt>
      <trkpt lat="47.54191" lon="-2.81934">
        <ele>-108.4</ele>
        <time>2021-08-05T13:48:02Z</time>
      </trkpt>
      <trkpt lat="47.54193" lon="-2.8194">
        <ele>-108.2</ele>
        <time>2021-08-05T13:48:03Z</time>
      </trkpt>
      <trkpt lat="47.54195" lon="-2.81945">
        <ele>-108.2</ele>
        <time>2021-08-05T13:48:04Z</time>
      </trkpt>
      <trkpt lat="47.54198" lon="-2.81951">
        <ele>-108.2</ele>
        <time>2021-08-05T13:48:05Z</time>
      </trkpt>
      <trkpt lat="47.542" lon="-2.81957">
        <ele>-108</ele>
        <time>2021-08-05T13:48:06Z</time>
      </trkpt>
      <trkpt lat="47.54202" lon="-2.81962">
        <ele>-107.8</ele>
        <time>2021-08-05T13:48:07Z</time>
      </trkpt>
      <trkpt lat="47.54205" lon="-2.81968">
        <ele>-108</ele>
        <time>2021-08-05T13:48:08Z</time>
      </trkpt>
      <trkpt lat="47.54208" lon="-2.81973">
        <ele>-107.8</ele>
        <time>2021-08-05T13:48:09Z</time>
      </trkpt>
      <trkpt lat="47.5421" lon="-2.81979">
        <ele>-107.6</ele>
        <time>2021-08-05T13:48:10Z</time>
      </trkpt>
      <trkpt lat="47.54213" lon="-2.81984">
        <ele>-107.6</ele>
        <time>2021-08-05T13:48:11Z</time>
      </trkpt>
      <trkpt lat="47.54216" lon="-2.81989">
        <ele>-107.4</ele>
        <time>2021-08-05T13:48:12Z</time>
      </trkpt>
      <trkpt lat="47.54219" lon="-2.81994">
        <ele>-107.4</ele>
        <time>2021-08-05T13:48:13Z</time>
      </trkpt>
      <trkpt lat="47.54221" lon="-2.81999">
        <ele>-107.2</ele>
        <time>2021-08-05T13:48:14Z</time>
      </trkpt>
      <trkpt lat="47.54224" lon="-2.82004">
        <ele>-107.2</ele>
        <time>2021-08-05T13:48:15Z</time>
      </trkpt>
      <trkpt lat="47.54227" lon="-2.82009">
        <ele>-107.2</ele>
        <time>2021-08-05T13:48:16Z</time>
      </trkpt>
      <trkpt lat="47.5423" lon="-2.82013">
        <ele>-107</ele>
        <time>2021-08-05T13:48:17Z</time>
      </trkpt>
      <trkpt lat="47.54232" lon="-2.82018">
        <ele>-106.8</ele>
        <time>2021-08-05T13:48:18Z</time>
      </trkpt>
      <trkpt lat="47.54235" lon="-2.82023">
        <ele>-106.6</ele>
        <time>2021-08-05T13:48:19Z</time>
      </trkpt>
      <trkpt lat="47.54237" lon="-2.82028">
        <ele>-106.4</ele>
        <time>2021-08-05T13:48:20Z</time>
      </trkpt>
      <trkpt lat="47.54239" lon="-2.82033">
        <ele>-106.4</ele>
        <time>2021-08-05T13:48:21Z</time>
      </trkpt>
      <trkpt lat="47.5424" lon="-2.82038">
        <ele>-106.2</ele>
        <time>2021-08-05T13:48:22Z</time>
      </trkpt>
      <trkpt lat="47.54242" lon="-2.82043">
        <ele>-106</ele>
        <time>2021-08-05T13:48:23Z</time>
      </trkpt>
      <trkpt lat="47.54243" lon="-2.82049">
        <ele>-106</ele>
        <time>2021-08-05T13:48:24Z</time>
      </trkpt>
      <trkpt lat="47.54244" lon="-2.82054">
        <ele>-106</ele>
        <time>2021-08-05T13:48:25Z</time>
      </trkpt>
      <trkpt lat="47.54245" lon="-2.82059">
        <ele>-105.8</ele>
        <time>2021-08-05T13:48:26Z</time>
      </trkpt>
      <trkpt lat="47.54246" lon="-2.82064">
        <ele>-105.6</ele>
        <time>2021-08-05T13:48:27Z</time>
      </trkpt>
      <trkpt lat="47.54247" lon="-2.82069">
        <ele>-105.4</ele>
        <time>2021-08-05T13:48:28Z</time>
      </trkpt>
      <trkpt lat="47.54247" lon="-2.82074">
        <ele>-105.2</ele>
        <time>2021-08-05T13:48:29Z</time>
      </trkpt>
      <trkpt lat="47.54248" lon="-2.82079">
        <ele>-105</ele>
        <time>2021-08-05T13:48:30Z</time>
      </trkpt>
      <trkpt lat="47.54249" lon="-2.82085">
        <ele>-105</ele>
        <time>2021-08-05T13:48:31Z</time>
      </trkpt>
      <trkpt lat="47.54249" lon="-2.8209">
        <ele>-104.8</ele>
        <time>2021-08-05T13:48:32Z</time>
      </trkpt>
      <trkpt lat="47.5425" lon="-2.82096">
        <ele>-104.6</ele>
        <time>2021-08-05T13:48:33Z</time>
      </trkpt>
      <trkpt lat="47.54251" lon="-2.82102">
        <ele>-104.6</ele>
        <time>2021-08-05T13:48:34Z</time>
      </trkpt>
      <trkpt lat="47.54251" lon="-2.82108">
        <ele>-104.4</ele>
        <time>2021-08-05T13:48:35Z</time>
      </trkpt>
      <trkpt lat="47.54252" lon="-2.82114">
        <ele>-104.2</ele>
        <time>2021-08-05T13:48:36Z</time>
      </trkpt>
      <trkpt lat="47.54252" lon="-2.82121">
        <ele>-104</ele>
        <time>2021-08-05T13:48:37Z</time>
      </trkpt>
      <trkpt lat="47.54252" lon="-2.82127">
        <ele>-103.8</ele>
        <time>2021-08-05T13:48:38Z</time>
      </trkpt>
      <trkpt lat="47.54251" lon="-2.82134">
        <ele>-103.6</ele>
        <time>2021-08-05T13:48:39Z</time>
      </trkpt>
      <trkpt lat="47.54251" lon="-2.8214">
        <ele>-103.4</ele>
        <time>2021-08-05T13:48:40Z</time>
      </trkpt>
      <trkpt lat="47.5425" lon="-2.82147">
        <ele>-103.4</ele>
        <time>2021-08-05T13:48:41Z</time>
      </trkpt>
      <trkpt lat="47.54249" lon="-2.82153">
        <ele>-103.2</ele>
        <time>2021-08-05T13:48:42Z</time>
      </trkpt>
      <trkpt lat="47.54248" lon="-2.82159">
        <ele>-103.2</ele>
        <time>2021-08-05T13:48:43Z</time>
      </trkpt>
      <trkpt lat="47.54247" lon="-2.82165">
        <ele>-103</ele>
        <time>2021-08-05T13:48:44Z</time>
      </trkpt>
      <trkpt lat="47.54246" lon="-2.82172">
        <ele>-102.8</ele>
        <time>2021-08-05T13:48:45Z</time>
      </trkpt>
      <trkpt lat="47.54245" lon="-2.82178">
        <ele>-102.6</ele>
        <time>2021-08-05T13:48:46Z</time>
      </trkpt>
      <trkpt lat="47.54244" lon="-2.82184">
        <ele>-102.4</ele>
        <time>2021-08-05T13:48:47Z</time>
      </trkpt>
      <trkpt lat="47.54243" lon="-2.82191">
        <ele>-102.4</ele>
        <time>2021-08-05T13:48:48Z</time>
      </trkpt>
      <trkpt lat="47.54242" lon="-2.82198">
        <ele>-102.2</ele>
        <time>2021-08-05T13:48:49Z</time>
      </trkpt>
      <trkpt lat="47.54241" lon="-2.82204">
        <ele>-102.2</ele>
        <time>2021-08-05T13:48:50Z</time>
      </trkpt>
      <trkpt lat="47.5424" lon="-2.82211">
        <ele>-101.8</ele>
        <time>2021-08-05T13:48:51Z</time>
      </trkpt>
      <trkpt lat="47.54239" lon="-2.82217">
        <ele>-101.6</ele>
        <time>2021-08-05T13:48:52Z</time>
      </trkpt>
      <trkpt lat="47.54237" lon="-2.82223">
        <ele>-101.4</ele>
        <time>2021-08-05T13:48:53Z</time>
      </trkpt>
      <trkpt lat="47.54236" lon="-2.82229">
        <ele>-101.2</ele>
        <time>2021-08-05T13:48:54Z</time>
      </trkpt>
      <trkpt lat="47.54235" lon="-2.82235">
        <ele>-101</ele>
        <time>2021-08-05T13:48:55Z</time>
      </trkpt>
      <trkpt lat="47.54235" lon="-2.82241">
        <ele>-100.8</ele>
        <time>2021-08-05T13:48:56Z</time>
      </trkpt>
      <trkpt lat="47.54234" lon="-2.82246">
        <ele>-100.6</ele>
        <time>2021-08-05T13:48:57Z</time>
      </trkpt>
      <trkpt lat="47.54233" lon="-2.82252">
        <ele>-100.4</ele>
        <time>2021-08-05T13:48:58Z</time>
      </trkpt>
      <trkpt lat="47.54233" lon="-2.82257">
        <ele>-99.8</ele>
        <time>2021-08-05T13:48:59Z</time>
      </trkpt>
      <trkpt lat="47.54232" lon="-2.82262">
        <ele>-99.6</ele>
        <time>2021-08-05T13:49:00Z</time>
      </trkpt>
      <trkpt lat="47.54231" lon="-2.82267">
        <ele>-99.4</ele>
        <time>2021-08-05T13:49:01Z</time>
      </trkpt>
      <trkpt lat="47.5423" lon="-2.82272">
        <ele>-99</ele>
        <time>2021-08-05T13:49:02Z</time>
      </trkpt>
      <trkpt lat="47.54229" lon="-2.82277">
        <ele>-98.8</ele>
        <time>2021-08-05T13:49:03Z</time>
      </trkpt>
      <trkpt lat="47.54229" lon="-2.82283">
        <ele>-98.4</ele>
        <time>2021-08-05T13:49:04Z</time>
      </trkpt>
      <trkpt lat="47.54229" lon="-2.82288">
        <ele>-98</ele>
        <time>2021-08-05T13:49:05Z</time>
      </trkpt>
      <trkpt lat="47.54228" lon="-2.82294">
        <ele>-98</ele>
        <time>2021-08-05T13:49:06Z</time>
      </trkpt>
      <trkpt lat="47.54228" lon="-2.82299">
        <ele>-97.8</ele>
        <time>2021-08-05T13:49:07Z</time>
      </trkpt>
      <trkpt lat="47.54228" lon="-2.82303">
        <ele>-97.6</ele>
        <time>2021-08-05T13:49:08Z</time>
      </trkpt>
      <trkpt lat="47.54228" lon="-2.82308">
        <ele>-97.4</ele>
        <time>2021-08-05T13:49:09Z</time>
      </trkpt>
      <trkpt lat="47.54227" lon="-2.82312">
        <ele>-97.2</ele>
        <time>2021-08-05T13:49:10Z</time>
      </trkpt>
      <trkpt lat="47.54227" lon="-2.82316">
        <ele>-97</ele>
        <time>2021-08-05T13:49:11Z</time>
      </trkpt>
      <trkpt lat="47.54227" lon="-2.82321">
        <ele>-96.8</ele>
        <time>2021-08-05T13:49:12Z</time>
      </trkpt>
      <trkpt lat="47.54227" lon="-2.82325">
        <ele>-96.6</ele>
        <time>2021-08-05T13:49:13Z</time>
      </trkpt>
      <trkpt lat="47.54227" lon="-2.82328">
        <ele>-96.4</ele>
        <time>2021-08-05T13:49:14Z</time>
      </trkpt>
      <trkpt lat="47.54227" lon="-2.82332">
        <ele>-96.2</ele>
        <time>2021-08-05T13:49:15Z</time>
      </trkpt>
      <trkpt lat="47.54227" lon="-2.82335">
        <ele>-96</ele>
        <time>2021-08-05T13:49:16Z</time>
      </trkpt>
      <trkpt lat="47.54227" lon="-2.82339">
        <ele>-95.8</ele>
        <time>2021-08-05T13:49:17Z</time>
      </trkpt>
      <trkpt lat="47.54227" lon="-2.82343">
        <ele>-95.6</ele>
        <time>2021-08-05T13:49:18Z</time>
      </trkpt>
      <trkpt lat="47.54227" lon="-2.82347">
        <ele>-95.2</ele>
        <time>2021-08-05T13:49:19Z</time>
      </trkpt>
      <trkpt lat="47.54227" lon="-2.82352">
        <ele>-95</ele>
        <time>2021-08-05T13:49:20Z</time>
      </trkpt>
      <trkpt lat="47.54227" lon="-2.82356">
        <ele>-94.8</ele>
        <time>2021-08-05T13:49:21Z</time>
      </trkpt>
      <trkpt lat="47.54226" lon="-2.82361">
        <ele>-94.6</ele>
        <time>2021-08-05T13:49:22Z</time>
      </trkpt>
      <trkpt lat="47.54226" lon="-2.82365">
        <ele>-94.4</ele>
        <time>2021-08-05T13:49:23Z</time>
      </trkpt>
      <trkpt lat="47.54226" lon="-2.8237">
        <ele>-94.2</ele>
        <time>2021-08-05T13:49:24Z</time>
      </trkpt>
      <trkpt lat="47.54225" lon="-2.82374">
        <ele>-93.8</ele>
        <time>2021-08-05T13:49:25Z</time>
      </trkpt>
      <trkpt lat="47.54225" lon="-2.82378">
        <ele>-93.6</ele>
        <time>2021-08-05T13:49:26Z</time>
      </trkpt>
      <trkpt lat="47.54225" lon="-2.82383">
        <ele>-93.2</ele>
        <time>2021-08-05T13:49:27Z</time>
      </trkpt>
      <trkpt lat="47.54225" lon="-2.82387">
        <ele>-92.8</ele>
        <time>2021-08-05T13:49:28Z</time>
      </trkpt>
      <trkpt lat="47.54225" lon="-2.82392">
        <ele>-92.4</ele>
        <time>2021-08-05T13:49:29Z</time>
      </trkpt>
      <trkpt lat="47.54225" lon="-2.82396">
        <ele>-92</ele>
        <time>2021-08-05T13:49:30Z</time>
      </trkpt>
      <trkpt lat="47.54225" lon="-2.824">
        <ele>-91.8</ele>
        <time>2021-08-05T13:49:31Z</time>
      </trkpt>
      <trkpt lat="47.54225" lon="-2.82405">
        <ele>-91.6</ele>
        <time>2021-08-05T13:49:32Z</time>
      </trkpt>
      <trkpt lat="47.54224" lon="-2.82409">
        <ele>-91.2</ele>
        <time>2021-08-05T13:49:33Z</time>
      </trkpt>
      <trkpt lat="47.54224" lon="-2.82413">
        <ele>-91</ele>
        <time>2021-08-05T13:49:34Z</time>
      </trkpt>
      <trkpt lat="47.54224" lon="-2.82418">
        <ele>-90.8</ele>
        <time>2021-08-05T13:49:35Z</time>
      </trkpt>
      <trkpt lat="47.54224" lon="-2.82422">
        <ele>-90.8</ele>
        <time>2021-08-05T13:49:36Z</time>
      </trkpt>
      <trkpt lat="47.54224" lon="-2.82427">
        <ele>-90.6</ele>
        <time>2021-08-05T13:49:37Z</time>
      </trkpt>
      <trkpt lat="47.54224" lon="-2.82431">
        <ele>-90.4</ele>
        <time>2021-08-05T13:49:38Z</time>
      </trkpt>
      <trkpt lat="47.54224" lon="-2.82436">
        <ele>-90</ele>
        <time>2021-08-05T13:49:39Z</time>
      </trkpt>
      <trkpt lat="47.54224" lon="-2.8244">
        <ele>-89.8</ele>
        <time>2021-08-05T13:49:40Z</time>
      </trkpt>
      <trkpt lat="47.54224" lon="-2.82445">
        <ele>-89.6</ele>
        <time>2021-08-05T13:49:41Z</time>
      </trkpt>
      <trkpt lat="47.54224" lon="-2.82449">
        <ele>-89.2</ele>
        <time>2021-08-05T13:49:42Z</time>
      </trkpt>
      <trkpt lat="47.54223" lon="-2.82454">
        <ele>-89</ele>
        <time>2021-08-05T13:49:43Z</time>
      </trkpt>
      <trkpt lat="47.54223" lon="-2.82458">
        <ele>-88.8</ele>
        <time>2021-08-05T13:49:44Z</time>
      </trkpt>
      <trkpt lat="47.54223" lon="-2.82463">
        <ele>-88.4</ele>
        <time>2021-08-05T13:49:45Z</time>
      </trkpt>
      <trkpt lat="47.54222" lon="-2.82467">
        <ele>-88.2</ele>
        <time>2021-08-05T13:49:46Z</time>
      </trkpt>
      <trkpt lat="47.54222" lon="-2.82471">
        <ele>-88.2</ele>
        <time>2021-08-05T13:49:47Z</time>
      </trkpt>
      <trkpt lat="47.54222" lon="-2.82476">
        <ele>-88</ele>
        <time>2021-08-05T13:49:48Z</time>
      </trkpt>
      <trkpt lat="47.54222" lon="-2.8248">
        <ele>-87.8</ele>
        <time>2021-08-05T13:49:49Z</time>
      </trkpt>
      <trkpt lat="47.54222" lon="-2.82484">
        <ele>-87.4</ele>
        <time>2021-08-05T13:49:50Z</time>
      </trkpt>
      <trkpt lat="47.54222" lon="-2.82488">
        <ele>-87.2</ele>
        <time>2021-08-05T13:49:51Z</time>
      </trkpt>
      <trkpt lat="47.54222" lon="-2.82491">
        <ele>-87</ele>
        <time>2021-08-05T13:49:52Z</time>
      </trkpt>
      <trkpt lat="47.54222" lon="-2.82495">
        <ele>-86.6</ele>
        <time>2021-08-05T13:49:53Z</time>
      </trkpt>
      <trkpt lat="47.54222" lon="-2.82499">
        <ele>-86.4</ele>
        <time>2021-08-05T13:49:54Z</time>
      </trkpt>
      <trkpt lat="47.54222" lon="-2.82503">
        <ele>-86.2</ele>
        <time>2021-08-05T13:49:55Z</time>
      </trkpt>
      <trkpt lat="47.54223" lon="-2.82507">
        <ele>-86</ele>
        <time>2021-08-05T13:49:56Z</time>
      </trkpt>
      <trkpt lat="47.54222" lon="-2.82512">
        <ele>-85.4</ele>
        <time>2021-08-05T13:49:57Z</time>
      </trkpt>
      <trkpt lat="47.54222" lon="-2.82517">
        <ele>-85.2</ele>
        <time>2021-08-05T13:49:58Z</time>
      </trkpt>
      <trkpt lat="47.54222" lon="-2.82523">
        <ele>-85</ele>
        <time>2021-08-05T13:49:59Z</time>
      </trkpt>
      <trkpt lat="47.54222" lon="-2.82529">
        <ele>-84.8</ele>
        <time>2021-08-05T13:50:00Z</time>
      </trkpt>
      <trkpt lat="47.54221" lon="-2.82536">
        <ele>-84.6</ele>
        <time>2021-08-05T13:50:01Z</time>
      </trkpt>
      <trkpt lat="47.54221" lon="-2.82542">
        <ele>-84.2</ele>
        <time>2021-08-05T13:50:02Z</time>
      </trkpt>
      <trkpt lat="47.5422" lon="-2.82549">
        <ele>-84</ele>
        <time>2021-08-05T13:50:03Z</time>
      </trkpt>
      <trkpt lat="47.5422" lon="-2.82555">
        <ele>-83.6</ele>
        <time>2021-08-05T13:50:04Z</time>
      </trkpt>
      <trkpt lat="47.54218" lon="-2.82562">
        <ele>-83.4</ele>
        <time>2021-08-05T13:50:05Z</time>
      </trkpt>
      <trkpt lat="47.54217" lon="-2.82568">
        <ele>-83.2</ele>
        <time>2021-08-05T13:50:06Z</time>
      </trkpt>
      <trkpt lat="47.54215" lon="-2.82574">
        <ele>-83</ele>
        <time>2021-08-05T13:50:07Z</time>
      </trkpt>
      <trkpt lat="47.54213" lon="-2.82581">
        <ele>-82.8</ele>
        <time>2021-08-05T13:50:08Z</time>
      </trkpt>
      <trkpt lat="47.54212" lon="-2.82587">
        <ele>-82.6</ele>
        <time>2021-08-05T13:50:09Z</time>
      </trkpt>
      <trkpt lat="47.5421" lon="-2.82594">
        <ele>-82.4</ele>
        <time>2021-08-05T13:50:10Z</time>
      </trkpt>
      <trkpt lat="47.54208" lon="-2.826">
        <ele>-82.2</ele>
        <time>2021-08-05T13:50:11Z</time>
      </trkpt>
      <trkpt lat="47.54206" lon="-2.82606">
        <ele>-82</ele>
        <time>2021-08-05T13:50:12Z</time>
      </trkpt>
      <trkpt lat="47.54204" lon="-2.82613">
        <ele>-81.6</ele>
        <time>2021-08-05T13:50:13Z</time>
      </trkpt>
      <trkpt lat="47.54202" lon="-2.82619">
        <ele>-81.4</ele>
        <time>2021-08-05T13:50:14Z</time>
      </trkpt>
      <trkpt lat="47.54201" lon="-2.82625">
        <ele>-81.2</ele>
        <time>2021-08-05T13:50:15Z</time>
      </trkpt>
      <trkpt lat="47.54199" lon="-2.82631">
        <ele>-81</ele>
        <time>2021-08-05T13:50:16Z</time>
      </trkpt>
      <trkpt lat="47.54198" lon="-2.82638">
        <ele>-81</ele>
        <time>2021-08-05T13:50:17Z</time>
      </trkpt>
      <trkpt lat="47.54197" lon="-2.82644">
        <ele>-80.8</ele>
        <time>2021-08-05T13:50:18Z</time>
      </trkpt>
      <trkpt lat="47.54196" lon="-2.82651">
        <ele>-80.6</ele>
        <time>2021-08-05T13:50:19Z</time>
      </trkpt>
      <trkpt lat="47.54196" lon="-2.82658">
        <ele>-80.6</ele>
        <time>2021-08-05T13:50:20Z</time>
      </trkpt>
      <trkpt lat="47.54196" lon="-2.82664">
        <ele>-80.4</ele>
        <time>2021-08-05T13:50:21Z</time>
      </trkpt>
      <trkpt lat="47.54197" lon="-2.82671">
        <ele>-80.2</ele>
        <time>2021-08-05T13:50:22Z</time>
      </trkpt>
      <trkpt lat="47.54198" lon="-2.82678">
        <ele>-80</ele>
        <time>2021-08-05T13:50:23Z</time>
      </trkpt>
      <trkpt lat="47.54198" lon="-2.82684">
        <ele>-79.8</ele>
        <time>2021-08-05T13:50:24Z</time>
      </trkpt>
      <trkpt lat="47.54199" lon="-2.8269">
        <ele>-79.6</ele>
        <time>2021-08-05T13:50:25Z</time>
      </trkpt>
      <trkpt lat="47.542" lon="-2.82697">
        <ele>-79.4</ele>
        <time>2021-08-05T13:50:26Z</time>
      </trkpt>
      <trkpt lat="47.54201" lon="-2.82703">
        <ele>-79.2</ele>
        <time>2021-08-05T13:50:27Z</time>
      </trkpt>
      <trkpt lat="47.54202" lon="-2.82709">
        <ele>-79</ele>
        <time>2021-08-05T13:50:28Z</time>
      </trkpt>
      <trkpt lat="47.54203" lon="-2.82715">
        <ele>-78.8</ele>
        <time>2021-08-05T13:50:29Z</time>
      </trkpt>
      <trkpt lat="47.54203" lon="-2.82721">
        <ele>-78.6</ele>
        <time>2021-08-05T13:50:30Z</time>
      </trkpt>
      <trkpt lat="47.54203" lon="-2.82727">
        <ele>-78.4</ele>
        <time>2021-08-05T13:50:31Z</time>
      </trkpt>
      <trkpt lat="47.54203" lon="-2.82732">
        <ele>-78.4</ele>
        <time>2021-08-05T13:50:32Z</time>
      </trkpt>
      <trkpt lat="47.54202" lon="-2.82738">
        <ele>-78.2</ele>
        <time>2021-08-05T13:50:33Z</time>
      </trkpt>
      <trkpt lat="47.54202" lon="-2.82742">
        <ele>-78</ele>
        <time>2021-08-05T13:50:34Z</time>
      </trkpt>
      <trkpt lat="47.54201" lon="-2.82746">
        <ele>-77.8</ele>
        <time>2021-08-05T13:50:35Z</time>
      </trkpt>
      <trkpt lat="47.542" lon="-2.8275">
        <ele>-77.6</ele>
        <time>2021-08-05T13:50:36Z</time>
      </trkpt>
      <trkpt lat="47.54199" lon="-2.82754">
        <ele>-77.4</ele>
        <time>2021-08-05T13:50:37Z</time>
      </trkpt>
      <trkpt lat="47.54198" lon="-2.82757">
        <ele>-77.2</ele>
        <time>2021-08-05T13:50:38Z</time>
      </trkpt>
      <trkpt lat="47.54196" lon="-2.8276">
        <ele>-76.8</ele>
        <time>2021-08-05T13:50:39Z</time>
      </trkpt>
      <trkpt lat="47.54194" lon="-2.82763">
        <ele>-76.6</ele>
        <time>2021-08-05T13:50:40Z</time>
      </trkpt>
      <trkpt lat="47.54191" lon="-2.82765">
        <ele>-76.6</ele>
        <time>2021-08-05T13:50:41Z</time>
      </trkpt>
      <trkpt lat="47.54189" lon="-2.82767">
        <ele>-76.4</ele>
        <time>2021-08-05T13:50:42Z</time>
      </trkpt>
      <trkpt lat="47.54188" lon="-2.82769">
        <ele>-76.2</ele>
        <time>2021-08-05T13:50:43Z</time>
      </trkpt>
      <trkpt lat="47.54186" lon="-2.82771">
        <ele>-76.2</ele>
        <time>2021-08-05T13:50:44Z</time>
      </trkpt>
      <trkpt lat="47.54185" lon="-2.82773">
        <ele>-76</ele>
        <time>2021-08-05T13:50:45Z</time>
      </trkpt>
      <trkpt lat="47.54184" lon="-2.82775">
        <ele>-76</ele>
        <time>2021-08-05T13:50:46Z</time>
      </trkpt>
      <trkpt lat="47.54183" lon="-2.82778">
        <ele>-76</ele>
        <time>2021-08-05T13:50:47Z</time>
      </trkpt>
      <trkpt lat="47.54182" lon="-2.82781">
        <ele>-76</ele>
        <time>2021-08-05T13:50:48Z</time>
      </trkpt>
      <trkpt lat="47.54181" lon="-2.82783">
        <ele>-76</ele>
        <time>2021-08-05T13:50:49Z</time>
      </trkpt>
      <trkpt lat="47.54181" lon="-2.82785">
        <ele>-75.8</ele>
        <time>2021-08-05T13:50:50Z</time>
      </trkpt>
      <trkpt lat="47.54181" lon="-2.82787">
        <ele>-75.6</ele>
        <time>2021-08-05T13:50:51Z</time>
      </trkpt>
      <trkpt lat="47.54181" lon="-2.82789">
        <ele>-75.4</ele>
        <time>2021-08-05T13:50:52Z</time>
      </trkpt>
      <trkpt lat="47.54181" lon="-2.82792">
        <ele>-75.2</ele>
        <time>2021-08-05T13:50:53Z</time>
      </trkpt>
      <trkpt lat="47.54181" lon="-2.82794">
        <ele>-75</ele>
        <time>2021-08-05T13:50:54Z</time>
      </trkpt>
      <trkpt lat="47.54181" lon="-2.82797">
        <ele>-74.8</ele>
        <time>2021-08-05T13:50:55Z</time>
      </trkpt>
      <trkpt lat="47.54181" lon="-2.828">
        <ele>-74.4</ele>
        <time>2021-08-05T13:50:56Z</time>
      </trkpt>
      <trkpt lat="47.54182" lon="-2.82802">
        <ele>-74.2</ele>
        <time>2021-08-05T13:50:57Z</time>
      </trkpt>
      <trkpt lat="47.54182" lon="-2.82805">
        <ele>-74.2</ele>
        <time>2021-08-05T13:50:58Z</time>
      </trkpt>
      <trkpt lat="47.54182" lon="-2.82807">
        <ele>-73.8</ele>
        <time>2021-08-05T13:50:59Z</time>
      </trkpt>
      <trkpt lat="47.54183" lon="-2.8281">
        <ele>-73.8</ele>
        <time>2021-08-05T13:51:00Z</time>
      </trkpt>
      <trkpt lat="47.54184" lon="-2.82812">
        <ele>-73.4</ele>
        <time>2021-08-05T13:51:01Z</time>
      </trkpt>
      <trkpt lat="47.54184" lon="-2.82815">
        <ele>-73.2</ele>
        <time>2021-08-05T13:51:02Z</time>
      </trkpt>
      <trkpt lat="47.54184" lon="-2.82819">
        <ele>-73</ele>
        <time>2021-08-05T13:51:03Z</time>
      </trkpt>
      <trkpt lat="47.54185" lon="-2.82823">
        <ele>-72.8</ele>
        <time>2021-08-05T13:51:04Z</time>
      </trkpt>
      <trkpt lat="47.54185" lon="-2.82826">
        <ele>-72.6</ele>
        <time>2021-08-05T13:51:05Z</time>
      </trkpt>
      <trkpt lat="47.54186" lon="-2.8283">
        <ele>-72.2</ele>
        <time>2021-08-05T13:51:06Z</time>
      </trkpt>
      <trkpt lat="47.54187" lon="-2.82834">
        <ele>-72.2</ele>
        <time>2021-08-05T13:51:07Z</time>
      </trkpt>
      <trkpt lat="47.54188" lon="-2.82838">
        <ele>-72</ele>
        <time>2021-08-05T13:51:08Z</time>
      </trkpt>
      <trkpt lat="47.54189" lon="-2.82843">
        <ele>-71.8</ele>
        <time>2021-08-05T13:51:09Z</time>
      </trkpt>
      <trkpt lat="47.54189" lon="-2.82848">
        <ele>-71.4</ele>
        <time>2021-08-05T13:51:10Z</time>
      </trkpt>
      <trkpt lat="47.5419" lon="-2.82853">
        <ele>-71.2</ele>
        <time>2021-08-05T13:51:11Z</time>
      </trkpt>
      <trkpt lat="47.54191" lon="-2.82858">
        <ele>-71</ele>
        <time>2021-08-05T13:51:12Z</time>
      </trkpt>
      <trkpt lat="47.54192" lon="-2.82862">
        <ele>-70.8</ele>
        <time>2021-08-05T13:51:13Z</time>
      </trkpt>
      <trkpt lat="47.54193" lon="-2.82867">
        <ele>-70.6</ele>
        <time>2021-08-05T13:51:14Z</time>
      </trkpt>
      <trkpt lat="47.54193" lon="-2.82872">
        <ele>-70.4</ele>
        <time>2021-08-05T13:51:15Z</time>
      </trkpt>
      <trkpt lat="47.54193" lon="-2.82876">
        <ele>-70.2</ele>
        <time>2021-08-05T13:51:16Z</time>
      </trkpt>
      <trkpt lat="47.54194" lon="-2.82881">
        <ele>-70</ele>
        <time>2021-08-05T13:51:17Z</time>
      </trkpt>
      <trkpt lat="47.54196" lon="-2.82886">
        <ele>-69.8</ele>
        <time>2021-08-05T13:51:18Z</time>
      </trkpt>
      <trkpt lat="47.54196" lon="-2.82891">
        <ele>-69.8</ele>
        <time>2021-08-05T13:51:19Z</time>
      </trkpt>
      <trkpt lat="47.54196" lon="-2.82897">
        <ele>-69.6</ele>
        <time>2021-08-05T13:51:20Z</time>
      </trkpt>
      <trkpt lat="47.54196" lon="-2.82902">
        <ele>-69.4</ele>
        <time>2021-08-05T13:51:21Z</time>
      </trkpt>
      <trkpt lat="47.54196" lon="-2.82907">
        <ele>-69.2</ele>
        <time>2021-08-05T13:51:22Z</time>
      </trkpt>
      <trkpt lat="47.54197" lon="-2.82912">
        <ele>-69</ele>
        <time>2021-08-05T13:51:23Z</time>
      </trkpt>
      <trkpt lat="47.54196" lon="-2.82918">
        <ele>-68.8</ele>
        <time>2021-08-05T13:51:24Z</time>
      </trkpt>
      <trkpt lat="47.54196" lon="-2.82923">
        <ele>-68.4</ele>
        <time>2021-08-05T13:51:25Z</time>
      </trkpt>
      <trkpt lat="47.54195" lon="-2.82928">
        <ele>-68.4</ele>
        <time>2021-08-05T13:51:26Z</time>
      </trkpt>
      <trkpt lat="47.54195" lon="-2.82933">
        <ele>-68.2</ele>
        <time>2021-08-05T13:51:27Z</time>
      </trkpt>
      <trkpt lat="47.54194" lon="-2.82938">
        <ele>-68</ele>
        <time>2021-08-05T13:51:28Z</time>
      </trkpt>
      <trkpt lat="47.54194" lon="-2.82942">
        <ele>-68</ele>
        <time>2021-08-05T13:51:29Z</time>
      </trkpt>
      <trkpt lat="47.54194" lon="-2.82947">
        <ele>-68</ele>
        <time>2021-08-05T13:51:30Z</time>
      </trkpt>
      <trkpt lat="47.54194" lon="-2.82952">
        <ele>-68</ele>
        <time>2021-08-05T13:51:31Z</time>
      </trkpt>
      <trkpt lat="47.54193" lon="-2.82956">
        <ele>-67.8</ele>
        <time>2021-08-05T13:51:32Z</time>
      </trkpt>
      <trkpt lat="47.54193" lon="-2.8296">
        <ele>-67.8</ele>
        <time>2021-08-05T13:51:33Z</time>
      </trkpt>
      <trkpt lat="47.54193" lon="-2.82964">
        <ele>-67.8</ele>
        <time>2021-08-05T13:51:34Z</time>
      </trkpt>
      <trkpt lat="47.54193" lon="-2.82969">
        <ele>-67.8</ele>
        <time>2021-08-05T13:51:35Z</time>
      </trkpt>
      <trkpt lat="47.54192" lon="-2.82975">
        <ele>-67.8</ele>
        <time>2021-08-05T13:51:36Z</time>
      </trkpt>
      <trkpt lat="47.54192" lon="-2.82981">
        <ele>-67.6</ele>
        <time>2021-08-05T13:51:37Z</time>
      </trkpt>
      <trkpt lat="47.54192" lon="-2.82988">
        <ele>-67.6</ele>
        <time>2021-08-05T13:51:38Z</time>
      </trkpt>
      <trkpt lat="47.54191" lon="-2.82995">
        <ele>-67.4</ele>
        <time>2021-08-05T13:51:39Z</time>
      </trkpt>
      <trkpt lat="47.54191" lon="-2.83001">
        <ele>-67.4</ele>
        <time>2021-08-05T13:51:40Z</time>
      </trkpt>
      <trkpt lat="47.54191" lon="-2.83008">
        <ele>-67.2</ele>
        <time>2021-08-05T13:51:41Z</time>
      </trkpt>
      <trkpt lat="47.54191" lon="-2.83015">
        <ele>-67.2</ele>
        <time>2021-08-05T13:51:42Z</time>
      </trkpt>
      <trkpt lat="47.5419" lon="-2.83023">
        <ele>-67</ele>
        <time>2021-08-05T13:51:43Z</time>
      </trkpt>
      <trkpt lat="47.5419" lon="-2.8303">
        <ele>-67</ele>
        <time>2021-08-05T13:51:44Z</time>
      </trkpt>
      <trkpt lat="47.5419" lon="-2.83037">
        <ele>-66.8</ele>
        <time>2021-08-05T13:51:45Z</time>
      </trkpt>
      <trkpt lat="47.5419" lon="-2.83044">
        <ele>-66.6</ele>
        <time>2021-08-05T13:51:46Z</time>
      </trkpt>
      <trkpt lat="47.5419" lon="-2.83051">
        <ele>-66.6</ele>
        <time>2021-08-05T13:51:47Z</time>
      </trkpt>
      <trkpt lat="47.54191" lon="-2.83058">
        <ele>-66.4</ele>
        <time>2021-08-05T13:51:48Z</time>
      </trkpt>
      <trkpt lat="47.54191" lon="-2.83066">
        <ele>-66.4</ele>
        <time>2021-08-05T13:51:49Z</time>
      </trkpt>
      <trkpt lat="47.54193" lon="-2.83073">
        <ele>-66.2</ele>
        <time>2021-08-05T13:51:50Z</time>
      </trkpt>
      <trkpt lat="47.54195" lon="-2.8308">
        <ele>-66.2</ele>
        <time>2021-08-05T13:51:51Z</time>
      </trkpt>
      <trkpt lat="47.54197" lon="-2.83086">
        <ele>-66.2</ele>
        <time>2021-08-05T13:51:52Z</time>
      </trkpt>
      <trkpt lat="47.54199" lon="-2.83092">
        <ele>-66.2</ele>
        <time>2021-08-05T13:51:53Z</time>
      </trkpt>
      <trkpt lat="47.54202" lon="-2.83097">
        <ele>-66</ele>
        <time>2021-08-05T13:51:54Z</time>
      </trkpt>
      <trkpt lat="47.54204" lon="-2.83103">
        <ele>-66</ele>
        <time>2021-08-05T13:51:55Z</time>
      </trkpt>
      <trkpt lat="47.54207" lon="-2.83108">
        <ele>-66</ele>
        <time>2021-08-05T13:51:56Z</time>
      </trkpt>
      <trkpt lat="47.54209" lon="-2.83113">
        <ele>-66</ele>
        <time>2021-08-05T13:51:57Z</time>
      </trkpt>
      <trkpt lat="47.54211" lon="-2.83119">
        <ele>-66</ele>
        <time>2021-08-05T13:51:58Z</time>
      </trkpt>
      <trkpt lat="47.54213" lon="-2.83124">
        <ele>-66</ele>
        <time>2021-08-05T13:51:59Z</time>
      </trkpt>
      <trkpt lat="47.54216" lon="-2.8313">
        <ele>-66</ele>
        <time>2021-08-05T13:52:00Z</time>
      </trkpt>
      <trkpt lat="47.54218" lon="-2.83135">
        <ele>-65.8</ele>
        <time>2021-08-05T13:52:01Z</time>
      </trkpt>
      <trkpt lat="47.54221" lon="-2.8314">
        <ele>-66</ele>
        <time>2021-08-05T13:52:02Z</time>
      </trkpt>
      <trkpt lat="47.54223" lon="-2.83145">
        <ele>-65.8</ele>
        <time>2021-08-05T13:52:03Z</time>
      </trkpt>
      <trkpt lat="47.54225" lon="-2.8315">
        <ele>-65.8</ele>
        <time>2021-08-05T13:52:04Z</time>
      </trkpt>
      <trkpt lat="47.54228" lon="-2.83155">
        <ele>-65.6</ele>
        <time>2021-08-05T13:52:05Z</time>
      </trkpt>
      <trkpt lat="47.5423" lon="-2.83159">
        <ele>-65.6</ele>
        <time>2021-08-05T13:52:06Z</time>
      </trkpt>
      <trkpt lat="47.54231" lon="-2.83164">
        <ele>-65.6</ele>
        <time>2021-08-05T13:52:07Z</time>
      </trkpt>
      <trkpt lat="47.54233" lon="-2.83168">
        <ele>-65.6</ele>
        <time>2021-08-05T13:52:08Z</time>
      </trkpt>
      <trkpt lat="47.54235" lon="-2.83173">
        <ele>-65.6</ele>
        <time>2021-08-05T13:52:09Z</time>
      </trkpt>
      <trkpt lat="47.54236" lon="-2.83178">
        <ele>-65.6</ele>
        <time>2021-08-05T13:52:10Z</time>
      </trkpt>
      <trkpt lat="47.54237" lon="-2.83182">
        <ele>-65.6</ele>
        <time>2021-08-05T13:52:11Z</time>
      </trkpt>
      <trkpt lat="47.54237" lon="-2.83187">
        <ele>-65.6</ele>
        <time>2021-08-05T13:52:12Z</time>
      </trkpt>
      <trkpt lat="47.54237" lon="-2.83192">
        <ele>-65.6</ele>
        <time>2021-08-05T13:52:13Z</time>
      </trkpt>
      <trkpt lat="47.54237" lon="-2.83197">
        <ele>-65.6</ele>
        <time>2021-08-05T13:52:14Z</time>
      </trkpt>
      <trkpt lat="47.54236" lon="-2.83201">
        <ele>-65.6</ele>
        <time>2021-08-05T13:52:15Z</time>
      </trkpt>
      <trkpt lat="47.54234" lon="-2.83205">
        <ele>-65.8</ele>
        <time>2021-08-05T13:52:16Z</time>
      </trkpt>
      <trkpt lat="47.54233" lon="-2.83209">
        <ele>-65.8</ele>
        <time>2021-08-05T13:52:17Z</time>
      </trkpt>
      <trkpt lat="47.54231" lon="-2.83213">
        <ele>-65.8</ele>
        <time>2021-08-05T13:52:18Z</time>
      </trkpt>
      <trkpt lat="47.54229" lon="-2.83217">
        <ele>-66</ele>
        <time>2021-08-05T13:52:19Z</time>
      </trkpt>
      <trkpt lat="47.54226" lon="-2.8322">
        <ele>-66.2</ele>
        <time>2021-08-05T13:52:20Z</time>
      </trkpt>
      <trkpt lat="47.54224" lon="-2.83224">
        <ele>-66.2</ele>
        <time>2021-08-05T13:52:21Z</time>
      </trkpt>
      <trkpt lat="47.54221" lon="-2.83229">
        <ele>-66.6</ele>
        <time>2021-08-05T13:52:22Z</time>
      </trkpt>
      <trkpt lat="47.54219" lon="-2.83233">
        <ele>-66.8</ele>
        <time>2021-08-05T13:52:23Z</time>
      </trkpt>
      <trkpt lat="47.54216" lon="-2.83237">
        <ele>-67</ele>
        <time>2021-08-05T13:52:24Z</time>
      </trkpt>
      <trkpt lat="47.54214" lon="-2.83242">
        <ele>-67.2</ele>
        <time>2021-08-05T13:52:25Z</time>
      </trkpt>
      <trkpt lat="47.54211" lon="-2.83246">
        <ele>-67.4</ele>
        <time>2021-08-05T13:52:26Z</time>
      </trkpt>
      <trkpt lat="47.54209" lon="-2.83251">
        <ele>-67.4</ele>
        <time>2021-08-05T13:52:27Z</time>
      </trkpt>
      <trkpt lat="47.54207" lon="-2.83255">
        <ele>-67.6</ele>
        <time>2021-08-05T13:52:28Z</time>
      </trkpt>
      <trkpt lat="47.54204" lon="-2.8326">
        <ele>-67.8</ele>
        <time>2021-08-05T13:52:29Z</time>
      </trkpt>
      <trkpt lat="47.54202" lon="-2.83264">
        <ele>-67.8</ele>
        <time>2021-08-05T13:52:30Z</time>
      </trkpt>
      <trkpt lat="47.542" lon="-2.83269">
        <ele>-68</ele>
        <time>2021-08-05T13:52:31Z</time>
      </trkpt>
      <trkpt lat="47.54198" lon="-2.83273">
        <ele>-68</ele>
        <time>2021-08-05T13:52:32Z</time>
      </trkpt>
      <trkpt lat="47.54195" lon="-2.83278">
        <ele>-68.2</ele>
        <time>2021-08-05T13:52:33Z</time>
      </trkpt>
      <trkpt lat="47.54193" lon="-2.83283">
        <ele>-68.2</ele>
        <time>2021-08-05T13:52:34Z</time>
      </trkpt>
      <trkpt lat="47.54191" lon="-2.83287">
        <ele>-68.4</ele>
        <time>2021-08-05T13:52:35Z</time>
      </trkpt>
      <trkpt lat="47.54189" lon="-2.83292">
        <ele>-68.6</ele>
        <time>2021-08-05T13:52:36Z</time>
      </trkpt>
      <trkpt lat="47.54187" lon="-2.83297">
        <ele>-68.6</ele>
        <time>2021-08-05T13:52:37Z</time>
      </trkpt>
      <trkpt lat="47.54185" lon="-2.83302">
        <ele>-68.8</ele>
        <time>2021-08-05T13:52:38Z</time>
      </trkpt>
      <trkpt lat="47.54183" lon="-2.83307">
        <ele>-69</ele>
        <time>2021-08-05T13:52:39Z</time>
      </trkpt>
      <trkpt lat="47.54182" lon="-2.83312">
        <ele>-69</ele>
        <time>2021-08-05T13:52:40Z</time>
      </trkpt>
      <trkpt lat="47.5418" lon="-2.83316">
        <ele>-69.2</ele>
        <time>2021-08-05T13:52:41Z</time>
      </trkpt>
      <trkpt lat="47.54179" lon="-2.83321">
        <ele>-69.2</ele>
        <time>2021-08-05T13:52:42Z</time>
      </trkpt>
      <trkpt lat="47.54177" lon="-2.83326">
        <ele>-69.4</ele>
        <time>2021-08-05T13:52:43Z</time>
      </trkpt>
      <trkpt lat="47.54176" lon="-2.8333">
        <ele>-69.6</ele>
        <time>2021-08-05T13:52:44Z</time>
      </trkpt>
      <trkpt lat="47.54174" lon="-2.83334">
        <ele>-69.8</ele>
        <time>2021-08-05T13:52:45Z</time>
      </trkpt>
      <trkpt lat="47.54171" lon="-2.83342">
        <ele>-70.4</ele>
        <time>2021-08-05T13:52:47Z</time>
      </trkpt>
      <trkpt lat="47.5417" lon="-2.83346">
        <ele>-70.8</ele>
        <time>2021-08-05T13:52:48Z</time>
      </trkpt>
      <trkpt lat="47.54169" lon="-2.8335">
        <ele>-71</ele>
        <time>2021-08-05T13:52:49Z</time>
      </trkpt>
      <trkpt lat="47.54168" lon="-2.83354">
        <ele>-71</ele>
        <time>2021-08-05T13:52:50Z</time>
      </trkpt>
      <trkpt lat="47.54168" lon="-2.83358">
        <ele>-71.2</ele>
        <time>2021-08-05T13:52:51Z</time>
      </trkpt>
      <trkpt lat="47.54167" lon="-2.83362">
        <ele>-71.6</ele>
        <time>2021-08-05T13:52:52Z</time>
      </trkpt>
      <trkpt lat="47.54165" lon="-2.8337">
        <ele>-72.2</ele>
        <time>2021-08-05T13:52:54Z</time>
      </trkpt>
      <trkpt lat="47.54165" lon="-2.83374">
        <ele>-72.4</ele>
        <time>2021-08-05T13:52:55Z</time>
      </trkpt>
      <trkpt lat="47.54164" lon="-2.83378">
        <ele>-72.6</ele>
        <time>2021-08-05T13:52:56Z</time>
      </trkpt>
      <trkpt lat="47.54164" lon="-2.83382">
        <ele>-72.8</ele>
        <time>2021-08-05T13:52:57Z</time>
      </trkpt>
      <trkpt lat="47.54163" lon="-2.83391">
        <ele>-73.4</ele>
        <time>2021-08-05T13:52:59Z</time>
      </trkpt>
      <trkpt lat="47.54164" lon="-2.83399">
        <ele>-74</ele>
        <time>2021-08-05T13:53:01Z</time>
      </trkpt>
      <trkpt lat="47.54165" lon="-2.83404">
        <ele>-74.4</ele>
        <time>2021-08-05T13:53:02Z</time>
      </trkpt>
      <trkpt lat="47.54165" lon="-2.83408">
        <ele>-74.8</ele>
        <time>2021-08-05T13:53:03Z</time>
      </trkpt>
      <trkpt lat="47.54166" lon="-2.83413">
        <ele>-75</ele>
        <time>2021-08-05T13:53:04Z</time>
      </trkpt>
      <trkpt lat="47.54167" lon="-2.83422">
        <ele>-75.8</ele>
        <time>2021-08-05T13:53:06Z</time>
      </trkpt>
      <trkpt lat="47.54169" lon="-2.83432">
        <ele>-76.8</ele>
        <time>2021-08-05T13:53:08Z</time>
      </trkpt>
      <trkpt lat="47.54171" lon="-2.83437">
        <ele>-77.2</ele>
        <time>2021-08-05T13:53:09Z</time>
      </trkpt>
      <trkpt lat="47.54172" lon="-2.83442">
        <ele>-77.6</ele>
        <time>2021-08-05T13:53:10Z</time>
      </trkpt>
      <trkpt lat="47.54173" lon="-2.83447">
        <ele>-78.2</ele>
        <time>2021-08-05T13:53:11Z</time>
      </trkpt>
      <trkpt lat="47.54175" lon="-2.83452">
        <ele>-78.8</ele>
        <time>2021-08-05T13:53:12Z</time>
      </trkpt>
      <trkpt lat="47.54177" lon="-2.83457">
        <ele>-79.2</ele>
        <time>2021-08-05T13:53:13Z</time>
      </trkpt>
      <trkpt lat="47.54178" lon="-2.83461">
        <ele>-79.6</ele>
        <time>2021-08-05T13:53:14Z</time>
      </trkpt>
      <trkpt lat="47.5418" lon="-2.83466">
        <ele>-79.8</ele>
        <time>2021-08-05T13:53:15Z</time>
      </trkpt>
      <trkpt lat="47.54182" lon="-2.8347">
        <ele>-80.2</ele>
        <time>2021-08-05T13:53:16Z</time>
      </trkpt>
      <trkpt lat="47.54186" lon="-2.8348">
        <ele>-80.8</ele>
        <time>2021-08-05T13:53:18Z</time>
      </trkpt>
      <trkpt lat="47.54191" lon="-2.83489">
        <ele>-82</ele>
        <time>2021-08-05T13:53:20Z</time>
      </trkpt>
      <trkpt lat="47.54193" lon="-2.83494">
        <ele>-82.4</ele>
        <time>2021-08-05T13:53:21Z</time>
      </trkpt>
      <trkpt lat="47.54195" lon="-2.83499">
        <ele>-82.8</ele>
        <time>2021-08-05T13:53:22Z</time>
      </trkpt>
      <trkpt lat="47.54197" lon="-2.83504">
        <ele>-83</ele>
        <time>2021-08-05T13:53:23Z</time>
      </trkpt>
      <trkpt lat="47.54199" lon="-2.83509">
        <ele>-83.2</ele>
        <time>2021-08-05T13:53:24Z</time>
      </trkpt>
      <trkpt lat="47.54201" lon="-2.83514">
        <ele>-83.6</ele>
        <time>2021-08-05T13:53:25Z</time>
      </trkpt>
      <trkpt lat="47.54203" lon="-2.83519">
        <ele>-84</ele>
        <time>2021-08-05T13:53:26Z</time>
      </trkpt>
      <trkpt lat="47.54205" lon="-2.83525">
        <ele>-84.4</ele>
        <time>2021-08-05T13:53:27Z</time>
      </trkpt>
      <trkpt lat="47.54207" lon="-2.8353">
        <ele>-84.8</ele>
        <time>2021-08-05T13:53:28Z</time>
      </trkpt>
      <trkpt lat="47.5421" lon="-2.83535">
        <ele>-85</ele>
        <time>2021-08-05T13:53:29Z</time>
      </trkpt>
      <trkpt lat="47.54212" lon="-2.83541">
        <ele>-85.4</ele>
        <time>2021-08-05T13:53:30Z</time>
      </trkpt>
      <trkpt lat="47.54214" lon="-2.83546">
        <ele>-85.6</ele>
        <time>2021-08-05T13:53:31Z</time>
      </trkpt>
      <trkpt lat="47.54216" lon="-2.83551">
        <ele>-85.8</ele>
        <time>2021-08-05T13:53:32Z</time>
      </trkpt>
      <trkpt lat="47.54218" lon="-2.83556">
        <ele>-86</ele>
        <time>2021-08-05T13:53:33Z</time>
      </trkpt>
      <trkpt lat="47.54219" lon="-2.8356">
        <ele>-86.4</ele>
        <time>2021-08-05T13:53:34Z</time>
      </trkpt>
      <trkpt lat="47.54221" lon="-2.83565">
        <ele>-86.8</ele>
        <time>2021-08-05T13:53:35Z</time>
      </trkpt>
      <trkpt lat="47.54223" lon="-2.83569">
        <ele>-87.2</ele>
        <time>2021-08-05T13:53:36Z</time>
      </trkpt>
      <trkpt lat="47.54225" lon="-2.83574">
        <ele>-87.6</ele>
        <time>2021-08-05T13:53:37Z</time>
      </trkpt>
      <trkpt lat="47.54226" lon="-2.83578">
        <ele>-88</ele>
        <time>2021-08-05T13:53:38Z</time>
      </trkpt>
      <trkpt lat="47.54227" lon="-2.83583">
        <ele>-88.2</ele>
        <time>2021-08-05T13:53:39Z</time>
      </trkpt>
      <trkpt lat="47.54229" lon="-2.83587">
        <ele>-88.4</ele>
        <time>2021-08-05T13:53:40Z</time>
      </trkpt>
      <trkpt lat="47.54231" lon="-2.83591">
        <ele>-88.6</ele>
        <time>2021-08-05T13:53:41Z</time>
      </trkpt>
      <trkpt lat="47.54232" lon="-2.83595">
        <ele>-89</ele>
        <time>2021-08-05T13:53:42Z</time>
      </trkpt>
      <trkpt lat="47.54234" lon="-2.83599">
        <ele>-89.2</ele>
        <time>2021-08-05T13:53:43Z</time>
      </trkpt>
      <trkpt lat="47.54236" lon="-2.83602">
        <ele>-89.6</ele>
        <time>2021-08-05T13:53:44Z</time>
      </trkpt>
      <trkpt lat="47.54237" lon="-2.83606">
        <ele>-89.6</ele>
        <time>2021-08-05T13:53:45Z</time>
      </trkpt>
      <trkpt lat="47.54238" lon="-2.83609">
        <ele>-90</ele>
        <time>2021-08-05T13:53:46Z</time>
      </trkpt>
      <trkpt lat="47.54239" lon="-2.83613">
        <ele>-90.2</ele>
        <time>2021-08-05T13:53:47Z</time>
      </trkpt>
      <trkpt lat="47.5424" lon="-2.83617">
        <ele>-90.2</ele>
        <time>2021-08-05T13:53:48Z</time>
      </trkpt>
      <trkpt lat="47.54241" lon="-2.83621">
        <ele>-90.2</ele>
        <time>2021-08-05T13:53:49Z</time>
      </trkpt>
      <trkpt lat="47.54242" lon="-2.83626">
        <ele>-90.2</ele>
        <time>2021-08-05T13:53:50Z</time>
      </trkpt>
      <trkpt lat="47.54243" lon="-2.83629">
        <ele>-90.4</ele>
        <time>2021-08-05T13:53:51Z</time>
      </trkpt>
      <trkpt lat="47.54244" lon="-2.83634">
        <ele>-90.6</ele>
        <time>2021-08-05T13:53:52Z</time>
      </trkpt>
      <trkpt lat="47.54244" lon="-2.83638">
        <ele>-90.8</ele>
        <time>2021-08-05T13:53:53Z</time>
      </trkpt>
      <trkpt lat="47.54245" lon="-2.83642">
        <ele>-91.2</ele>
        <time>2021-08-05T13:53:54Z</time>
      </trkpt>
      <trkpt lat="47.54245" lon="-2.83646">
        <ele>-91.4</ele>
        <time>2021-08-05T13:53:55Z</time>
      </trkpt>
      <trkpt lat="47.54245" lon="-2.83651">
        <ele>-91.4</ele>
        <time>2021-08-05T13:53:56Z</time>
      </trkpt>
      <trkpt lat="47.54245" lon="-2.83656">
        <ele>-91.6</ele>
        <time>2021-08-05T13:53:57Z</time>
      </trkpt>
      <trkpt lat="47.54245" lon="-2.8366">
        <ele>-91.8</ele>
        <time>2021-08-05T13:53:58Z</time>
      </trkpt>
      <trkpt lat="47.54245" lon="-2.83666">
        <ele>-92</ele>
        <time>2021-08-05T13:53:59Z</time>
      </trkpt>
      <trkpt lat="47.54244" lon="-2.83671">
        <ele>-92</ele>
        <time>2021-08-05T13:54:00Z</time>
      </trkpt>
      <trkpt lat="47.54244" lon="-2.83677">
        <ele>-92.4</ele>
        <time>2021-08-05T13:54:01Z</time>
      </trkpt>
      <trkpt lat="47.54243" lon="-2.83682">
        <ele>-92.4</ele>
        <time>2021-08-05T13:54:02Z</time>
      </trkpt>
      <trkpt lat="47.54243" lon="-2.83687">
        <ele>-92.6</ele>
        <time>2021-08-05T13:54:03Z</time>
      </trkpt>
      <trkpt lat="47.54242" lon="-2.83693">
        <ele>-92.8</ele>
        <time>2021-08-05T13:54:04Z</time>
      </trkpt>
      <trkpt lat="47.54241" lon="-2.83698">
        <ele>-92.8</ele>
        <time>2021-08-05T13:54:05Z</time>
      </trkpt>
      <trkpt lat="47.54241" lon="-2.83704">
        <ele>-93</ele>
        <time>2021-08-05T13:54:06Z</time>
      </trkpt>
      <trkpt lat="47.5424" lon="-2.83709">
        <ele>-93</ele>
        <time>2021-08-05T13:54:07Z</time>
      </trkpt>
      <trkpt lat="47.54239" lon="-2.83715">
        <ele>-93.2</ele>
        <time>2021-08-05T13:54:08Z</time>
      </trkpt>
      <trkpt lat="47.54238" lon="-2.83721">
        <ele>-93.2</ele>
        <time>2021-08-05T13:54:09Z</time>
      </trkpt>
      <trkpt lat="47.54237" lon="-2.83726">
        <ele>-93.4</ele>
        <time>2021-08-05T13:54:10Z</time>
      </trkpt>
      <trkpt lat="47.54236" lon="-2.83732">
        <ele>-93.8</ele>
        <time>2021-08-05T13:54:11Z</time>
      </trkpt>
      <trkpt lat="47.54236" lon="-2.83737">
        <ele>-93.8</ele>
        <time>2021-08-05T13:54:12Z</time>
      </trkpt>
      <trkpt lat="47.54234" lon="-2.83747">
        <ele>-94.2</ele>
        <time>2021-08-05T13:54:14Z</time>
      </trkpt>
      <trkpt lat="47.54233" lon="-2.83752">
        <ele>-94.4</ele>
        <time>2021-08-05T13:54:15Z</time>
      </trkpt>
      <trkpt lat="47.54233" lon="-2.83756">
        <ele>-94.6</ele>
        <time>2021-08-05T13:54:16Z</time>
      </trkpt>
      <trkpt lat="47.54232" lon="-2.83761">
        <ele>-94.8</ele>
        <time>2021-08-05T13:54:17Z</time>
      </trkpt>
      <trkpt lat="47.54231" lon="-2.83765">
        <ele>-94.8</ele>
        <time>2021-08-05T13:54:18Z</time>
      </trkpt>
      <trkpt lat="47.5423" lon="-2.8377">
        <ele>-95</ele>
        <time>2021-08-05T13:54:19Z</time>
      </trkpt>
      <trkpt lat="47.54229" lon="-2.83775">
        <ele>-95</ele>
        <time>2021-08-05T13:54:20Z</time>
      </trkpt>
      <trkpt lat="47.54228" lon="-2.83779">
        <ele>-95.4</ele>
        <time>2021-08-05T13:54:21Z</time>
      </trkpt>
      <trkpt lat="47.54225" lon="-2.83789">
        <ele>-95.4</ele>
        <time>2021-08-05T13:54:23Z</time>
      </trkpt>
      <trkpt lat="47.54223" lon="-2.83794">
        <ele>-95.4</ele>
        <time>2021-08-05T13:54:24Z</time>
      </trkpt>
      <trkpt lat="47.54222" lon="-2.83799">
        <ele>-95.4</ele>
        <time>2021-08-05T13:54:25Z</time>
      </trkpt>
      <trkpt lat="47.5422" lon="-2.83805">
        <ele>-95.4</ele>
        <time>2021-08-05T13:54:26Z</time>
      </trkpt>
      <trkpt lat="47.54219" lon="-2.8381">
        <ele>-95.4</ele>
        <time>2021-08-05T13:54:27Z</time>
      </trkpt>
      <trkpt lat="47.54217" lon="-2.83815">
        <ele>-95.4</ele>
        <time>2021-08-05T13:54:28Z</time>
      </trkpt>
      <trkpt lat="47.54216" lon="-2.8382">
        <ele>-95.4</ele>
        <time>2021-08-05T13:54:29Z</time>
      </trkpt>
      <trkpt lat="47.54215" lon="-2.83826">
        <ele>-95.4</ele>
        <time>2021-08-05T13:54:30Z</time>
      </trkpt>
      <trkpt lat="47.54213" lon="-2.83831">
        <ele>-95.4</ele>
        <time>2021-08-05T13:54:31Z</time>
      </trkpt>
      <trkpt lat="47.54212" lon="-2.83836">
        <ele>-95.4</ele>
        <time>2021-08-05T13:54:32Z</time>
      </trkpt>
      <trkpt lat="47.54211" lon="-2.83841">
        <ele>-95.4</ele>
        <time>2021-08-05T13:54:33Z</time>
      </trkpt>
      <trkpt lat="47.5421" lon="-2.83846">
        <ele>-95.6</ele>
        <time>2021-08-05T13:54:34Z</time>
      </trkpt>
      <trkpt lat="47.54209" lon="-2.83851">
        <ele>-95.6</ele>
        <time>2021-08-05T13:54:35Z</time>
      </trkpt>
      <trkpt lat="47.54208" lon="-2.83855">
        <ele>-95.6</ele>
        <time>2021-08-05T13:54:36Z</time>
      </trkpt>
      <trkpt lat="47.54208" lon="-2.8386">
        <ele>-95.6</ele>
        <time>2021-08-05T13:54:37Z</time>
      </trkpt>
      <trkpt lat="47.54207" lon="-2.83865">
        <ele>-95.6</ele>
        <time>2021-08-05T13:54:38Z</time>
      </trkpt>
      <trkpt lat="47.54207" lon="-2.8387">
        <ele>-95.6</ele>
        <time>2021-08-05T13:54:39Z</time>
      </trkpt>
      <trkpt lat="47.54206" lon="-2.83875">
        <ele>-95.8</ele>
        <time>2021-08-05T13:54:40Z</time>
      </trkpt>
      <trkpt lat="47.54205" lon="-2.83881">
        <ele>-95.8</ele>
        <time>2021-08-05T13:54:41Z</time>
      </trkpt>
      <trkpt lat="47.54205" lon="-2.83886">
        <ele>-95.8</ele>
        <time>2021-08-05T13:54:42Z</time>
      </trkpt>
      <trkpt lat="47.54206" lon="-2.83892">
        <ele>-95.8</ele>
        <time>2021-08-05T13:54:43Z</time>
      </trkpt>
      <trkpt lat="47.54207" lon="-2.83897">
        <ele>-95.8</ele>
        <time>2021-08-05T13:54:44Z</time>
      </trkpt>
      <trkpt lat="47.54209" lon="-2.83902">
        <ele>-95.8</ele>
        <time>2021-08-05T13:54:45Z</time>
      </trkpt>
      <trkpt lat="47.5421" lon="-2.83907">
        <ele>-96</ele>
        <time>2021-08-05T13:54:46Z</time>
      </trkpt>
      <trkpt lat="47.54212" lon="-2.83912">
        <ele>-96</ele>
        <time>2021-08-05T13:54:47Z</time>
      </trkpt>
      <trkpt lat="47.54213" lon="-2.83917">
        <ele>-96.4</ele>
        <time>2021-08-05T13:54:48Z</time>
      </trkpt>
      <trkpt lat="47.54214" lon="-2.83922">
        <ele>-97</ele>
        <time>2021-08-05T13:54:49Z</time>
      </trkpt>
      <trkpt lat="47.54216" lon="-2.83926">
        <ele>-97.2</ele>
        <time>2021-08-05T13:54:50Z</time>
      </trkpt>
      <trkpt lat="47.54217" lon="-2.83931">
        <ele>-97.4</ele>
        <time>2021-08-05T13:54:51Z</time>
      </trkpt>
      <trkpt lat="47.54219" lon="-2.83936">
        <ele>-97.4</ele>
        <time>2021-08-05T13:54:52Z</time>
      </trkpt>
      <trkpt lat="47.5422" lon="-2.83942">
        <ele>-97.4</ele>
        <time>2021-08-05T13:54:53Z</time>
      </trkpt>
      <trkpt lat="47.54221" lon="-2.83948">
        <ele>-97.4</ele>
        <time>2021-08-05T13:54:54Z</time>
      </trkpt>
      <trkpt lat="47.54222" lon="-2.83954">
        <ele>-97.6</ele>
        <time>2021-08-05T13:54:55Z</time>
      </trkpt>
      <trkpt lat="47.54223" lon="-2.8396">
        <ele>-97.8</ele>
        <time>2021-08-05T13:54:56Z</time>
      </trkpt>
      <trkpt lat="47.54224" lon="-2.83966">
        <ele>-97.6</ele>
        <time>2021-08-05T13:54:57Z</time>
      </trkpt>
      <trkpt lat="47.54224" lon="-2.83973">
        <ele>-97.8</ele>
        <time>2021-08-05T13:54:58Z</time>
      </trkpt>
      <trkpt lat="47.54225" lon="-2.8398">
        <ele>-98</ele>
        <time>2021-08-05T13:54:59Z</time>
      </trkpt>
      <trkpt lat="47.54225" lon="-2.83986">
        <ele>-98</ele>
        <time>2021-08-05T13:55:00Z</time>
      </trkpt>
      <trkpt lat="47.54226" lon="-2.83993">
        <ele>-98</ele>
        <time>2021-08-05T13:55:01Z</time>
      </trkpt>
      <trkpt lat="47.54227" lon="-2.83999">
        <ele>-98</ele>
        <time>2021-08-05T13:55:02Z</time>
      </trkpt>
      <trkpt lat="47.54227" lon="-2.84006">
        <ele>-98</ele>
        <time>2021-08-05T13:55:03Z</time>
      </trkpt>
      <trkpt lat="47.54228" lon="-2.84013">
        <ele>-98</ele>
        <time>2021-08-05T13:55:04Z</time>
      </trkpt>
      <trkpt lat="47.54229" lon="-2.84019">
        <ele>-98</ele>
        <time>2021-08-05T13:55:05Z</time>
      </trkpt>
      <trkpt lat="47.5423" lon="-2.84025">
        <ele>-98</ele>
        <time>2021-08-05T13:55:06Z</time>
      </trkpt>
      <trkpt lat="47.5423" lon="-2.84032">
        <ele>-98</ele>
        <time>2021-08-05T13:55:07Z</time>
      </trkpt>
      <trkpt lat="47.54231" lon="-2.84038">
        <ele>-98</ele>
        <time>2021-08-05T13:55:08Z</time>
      </trkpt>
      <trkpt lat="47.54232" lon="-2.84044">
        <ele>-98.2</ele>
        <time>2021-08-05T13:55:09Z</time>
      </trkpt>
      <trkpt lat="47.54233" lon="-2.84051">
        <ele>-98.2</ele>
        <time>2021-08-05T13:55:10Z</time>
      </trkpt>
      <trkpt lat="47.54233" lon="-2.84057">
        <ele>-98.2</ele>
        <time>2021-08-05T13:55:11Z</time>
      </trkpt>
      <trkpt lat="47.54234" lon="-2.84064">
        <ele>-98.2</ele>
        <time>2021-08-05T13:55:12Z</time>
      </trkpt>
      <trkpt lat="47.54235" lon="-2.8407">
        <ele>-98.2</ele>
        <time>2021-08-05T13:55:13Z</time>
      </trkpt>
      <trkpt lat="47.54236" lon="-2.84076">
        <ele>-98</ele>
        <time>2021-08-05T13:55:14Z</time>
      </trkpt>
      <trkpt lat="47.54237" lon="-2.84083">
        <ele>-97.8</ele>
        <time>2021-08-05T13:55:15Z</time>
      </trkpt>
      <trkpt lat="47.54238" lon="-2.84089">
        <ele>-97.8</ele>
        <time>2021-08-05T13:55:16Z</time>
      </trkpt>
      <trkpt lat="47.54238" lon="-2.84095">
        <ele>-97.8</ele>
        <time>2021-08-05T13:55:17Z</time>
      </trkpt>
      <trkpt lat="47.54239" lon="-2.84101">
        <ele>-97.4</ele>
        <time>2021-08-05T13:55:18Z</time>
      </trkpt>
      <trkpt lat="47.5424" lon="-2.84106">
        <ele>-97.2</ele>
        <time>2021-08-05T13:55:19Z</time>
      </trkpt>
      <trkpt lat="47.54241" lon="-2.84112">
        <ele>-97.2</ele>
        <time>2021-08-05T13:55:20Z</time>
      </trkpt>
      <trkpt lat="47.54242" lon="-2.84118">
        <ele>-96.8</ele>
        <time>2021-08-05T13:55:21Z</time>
      </trkpt>
      <trkpt lat="47.54243" lon="-2.84124">
        <ele>-96.6</ele>
        <time>2021-08-05T13:55:22Z</time>
      </trkpt>
      <trkpt lat="47.54244" lon="-2.8413">
        <ele>-96.4</ele>
        <time>2021-08-05T13:55:23Z</time>
      </trkpt>
      <trkpt lat="47.54245" lon="-2.84136">
        <ele>-96.4</ele>
        <time>2021-08-05T13:55:24Z</time>
      </trkpt>
      <trkpt lat="47.54246" lon="-2.84142">
        <ele>-96.4</ele>
        <time>2021-08-05T13:55:25Z</time>
      </trkpt>
      <trkpt lat="47.54248" lon="-2.84148">
        <ele>-96.2</ele>
        <time>2021-08-05T13:55:26Z</time>
      </trkpt>
      <trkpt lat="47.54249" lon="-2.84154">
        <ele>-96</ele>
        <time>2021-08-05T13:55:27Z</time>
      </trkpt>
      <trkpt lat="47.54251" lon="-2.8416">
        <ele>-95.8</ele>
        <time>2021-08-05T13:55:28Z</time>
      </trkpt>
      <trkpt lat="47.54253" lon="-2.84167">
        <ele>-95.8</ele>
        <time>2021-08-05T13:55:29Z</time>
      </trkpt>
      <trkpt lat="47.54254" lon="-2.84174">
        <ele>-95.4</ele>
        <time>2021-08-05T13:55:30Z</time>
      </trkpt>
      <trkpt lat="47.54256" lon="-2.8418">
        <ele>-95.4</ele>
        <time>2021-08-05T13:55:31Z</time>
      </trkpt>
      <trkpt lat="47.54257" lon="-2.84187">
        <ele>-95.2</ele>
        <time>2021-08-05T13:55:32Z</time>
      </trkpt>
      <trkpt lat="47.54258" lon="-2.84194">
        <ele>-95</ele>
        <time>2021-08-05T13:55:33Z</time>
      </trkpt>
      <trkpt lat="47.5426" lon="-2.84201">
        <ele>-94.8</ele>
        <time>2021-08-05T13:55:34Z</time>
      </trkpt>
      <trkpt lat="47.54261" lon="-2.84207">
        <ele>-94.6</ele>
        <time>2021-08-05T13:55:35Z</time>
      </trkpt>
      <trkpt lat="47.54263" lon="-2.84214">
        <ele>-94.2</ele>
        <time>2021-08-05T13:55:36Z</time>
      </trkpt>
      <trkpt lat="47.54264" lon="-2.84221">
        <ele>-93.8</ele>
        <time>2021-08-05T13:55:37Z</time>
      </trkpt>
      <trkpt lat="47.54266" lon="-2.84228">
        <ele>-93.6</ele>
        <time>2021-08-05T13:55:38Z</time>
      </trkpt>
      <trkpt lat="47.54268" lon="-2.84234">
        <ele>-92.8</ele>
        <time>2021-08-05T13:55:39Z</time>
      </trkpt>
      <trkpt lat="47.5427" lon="-2.8424">
        <ele>-92.8</ele>
        <time>2021-08-05T13:55:40Z</time>
      </trkpt>
      <trkpt lat="47.54271" lon="-2.84246">
        <ele>-92.6</ele>
        <time>2021-08-05T13:55:41Z</time>
      </trkpt>
      <trkpt lat="47.54272" lon="-2.84252">
        <ele>-92.4</ele>
        <time>2021-08-05T13:55:42Z</time>
      </trkpt>
      <trkpt lat="47.54273" lon="-2.8426">
        <ele>-92.4</ele>
        <time>2021-08-05T13:55:43Z</time>
      </trkpt>
      <trkpt lat="47.54274" lon="-2.84267">
        <ele>-92.4</ele>
        <time>2021-08-05T13:55:44Z</time>
      </trkpt>
      <trkpt lat="47.54275" lon="-2.84274">
        <ele>-92</ele>
        <time>2021-08-05T13:55:45Z</time>
      </trkpt>
      <trkpt lat="47.54276" lon="-2.84281">
        <ele>-91.8</ele>
        <time>2021-08-05T13:55:46Z</time>
      </trkpt>
      <trkpt lat="47.54276" lon="-2.84288">
        <ele>-91.6</ele>
        <time>2021-08-05T13:55:47Z</time>
      </trkpt>
      <trkpt lat="47.54277" lon="-2.84295">
        <ele>-91.4</ele>
        <time>2021-08-05T13:55:48Z</time>
      </trkpt>
      <trkpt lat="47.54277" lon="-2.84302">
        <ele>-91.2</ele>
        <time>2021-08-05T13:55:49Z</time>
      </trkpt>
      <trkpt lat="47.54278" lon="-2.84309">
        <ele>-91</ele>
        <time>2021-08-05T13:55:50Z</time>
      </trkpt>
      <trkpt lat="47.54278" lon="-2.84316">
        <ele>-90.6</ele>
        <time>2021-08-05T13:55:51Z</time>
      </trkpt>
      <trkpt lat="47.54279" lon="-2.84322">
        <ele>-90.4</ele>
        <time>2021-08-05T13:55:52Z</time>
      </trkpt>
      <trkpt lat="47.54279" lon="-2.84329">
        <ele>-90.2</ele>
        <time>2021-08-05T13:55:53Z</time>
      </trkpt>
      <trkpt lat="47.5428" lon="-2.84336">
        <ele>-90</ele>
        <time>2021-08-05T13:55:54Z</time>
      </trkpt>
      <trkpt lat="47.5428" lon="-2.84343">
        <ele>-89.8</ele>
        <time>2021-08-05T13:55:55Z</time>
      </trkpt>
      <trkpt lat="47.54281" lon="-2.84349">
        <ele>-89.8</ele>
        <time>2021-08-05T13:55:56Z</time>
      </trkpt>
      <trkpt lat="47.54281" lon="-2.84356">
        <ele>-89.4</ele>
        <time>2021-08-05T13:55:57Z</time>
      </trkpt>
      <trkpt lat="47.54281" lon="-2.84362">
        <ele>-89.2</ele>
        <time>2021-08-05T13:55:58Z</time>
      </trkpt>
      <trkpt lat="47.54281" lon="-2.84368">
        <ele>-89</ele>
        <time>2021-08-05T13:55:59Z</time>
      </trkpt>
      <trkpt lat="47.54281" lon="-2.84373">
        <ele>-89</ele>
        <time>2021-08-05T13:56:00Z</time>
      </trkpt>
      <trkpt lat="47.54281" lon="-2.84378">
        <ele>-88.8</ele>
        <time>2021-08-05T13:56:01Z</time>
      </trkpt>
      <trkpt lat="47.54281" lon="-2.84382">
        <ele>-88.4</ele>
        <time>2021-08-05T13:56:02Z</time>
      </trkpt>
      <trkpt lat="47.54281" lon="-2.84387">
        <ele>-88.2</ele>
        <time>2021-08-05T13:56:03Z</time>
      </trkpt>
      <trkpt lat="47.54282" lon="-2.84391">
        <ele>-88</ele>
        <time>2021-08-05T13:56:04Z</time>
      </trkpt>
      <trkpt lat="47.54282" lon="-2.84395">
        <ele>-87.8</ele>
        <time>2021-08-05T13:56:05Z</time>
      </trkpt>
      <trkpt lat="47.54282" lon="-2.844">
        <ele>-87.4</ele>
        <time>2021-08-05T13:56:06Z</time>
      </trkpt>
      <trkpt lat="47.54282" lon="-2.84405">
        <ele>-87.4</ele>
        <time>2021-08-05T13:56:07Z</time>
      </trkpt>
      <trkpt lat="47.54281" lon="-2.8441">
        <ele>-87.2</ele>
        <time>2021-08-05T13:56:08Z</time>
      </trkpt>
      <trkpt lat="47.54281" lon="-2.84415">
        <ele>-86.6</ele>
        <time>2021-08-05T13:56:09Z</time>
      </trkpt>
      <trkpt lat="47.54282" lon="-2.84421">
        <ele>-86.4</ele>
        <time>2021-08-05T13:56:10Z</time>
      </trkpt>
      <trkpt lat="47.54283" lon="-2.84426">
        <ele>-86.2</ele>
        <time>2021-08-05T13:56:11Z</time>
      </trkpt>
      <trkpt lat="47.54283" lon="-2.84431">
        <ele>-85.8</ele>
        <time>2021-08-05T13:56:12Z</time>
      </trkpt>
      <trkpt lat="47.54282" lon="-2.84435">
        <ele>-85.4</ele>
        <time>2021-08-05T13:56:13Z</time>
      </trkpt>
      <trkpt lat="47.5428" lon="-2.84439">
        <ele>-85.2</ele>
        <time>2021-08-05T13:56:14Z</time>
      </trkpt>
      <trkpt lat="47.54278" lon="-2.8444">
        <ele>-85</ele>
        <time>2021-08-05T13:56:15Z</time>
      </trkpt>
      <trkpt lat="47.54277" lon="-2.84441">
        <ele>-84.8</ele>
        <time>2021-08-05T13:56:16Z</time>
      </trkpt>
      <trkpt lat="47.54277" lon="-2.84441">
        <ele>-80.6</ele>
        <time>2021-08-05T13:57:04Z</time>
      </trkpt>
      <trkpt lat="47.54276" lon="-2.84441">
        <ele>-80.6</ele>
        <time>2021-08-05T13:57:05Z</time>
      </trkpt>
      <trkpt lat="47.54274" lon="-2.84442">
        <ele>-80.6</ele>
        <time>2021-08-05T13:57:06Z</time>
      </trkpt>
      <trkpt lat="47.54272" lon="-2.84442">
        <ele>-80.6</ele>
        <time>2021-08-05T13:57:07Z</time>
      </trkpt>
      <trkpt lat="47.5427" lon="-2.84442">
        <ele>-80.8</ele>
        <time>2021-08-05T13:57:08Z</time>
      </trkpt>
      <trkpt lat="47.54267" lon="-2.84441">
        <ele>-80.8</ele>
        <time>2021-08-05T13:57:09Z</time>
      </trkpt>
      <trkpt lat="47.54264" lon="-2.84441">
        <ele>-81.2</ele>
        <time>2021-08-05T13:57:10Z</time>
      </trkpt>
      <trkpt lat="47.5426" lon="-2.84441">
        <ele>-81.4</ele>
        <time>2021-08-05T13:57:11Z</time>
      </trkpt>
      <trkpt lat="47.54256" lon="-2.84441">
        <ele>-81.6</ele>
        <time>2021-08-05T13:57:12Z</time>
      </trkpt>
      <trkpt lat="47.54252" lon="-2.84442">
        <ele>-82</ele>
        <time>2021-08-05T13:57:13Z</time>
      </trkpt>
      <trkpt lat="47.54249" lon="-2.84442">
        <ele>-82.2</ele>
        <time>2021-08-05T13:57:14Z</time>
      </trkpt>
      <trkpt lat="47.54245" lon="-2.84443">
        <ele>-82.6</ele>
        <time>2021-08-05T13:57:15Z</time>
      </trkpt>
      <trkpt lat="47.54241" lon="-2.84444">
        <ele>-82.8</ele>
        <time>2021-08-05T13:57:16Z</time>
      </trkpt>
      <trkpt lat="47.54236" lon="-2.84444">
        <ele>-82.8</ele>
        <time>2021-08-05T13:57:17Z</time>
      </trkpt>
      <trkpt lat="47.54232" lon="-2.84445">
        <ele>-83</ele>
        <time>2021-08-05T13:57:18Z</time>
      </trkpt>
      <trkpt lat="47.54228" lon="-2.84445">
        <ele>-83.2</ele>
        <time>2021-08-05T13:57:19Z</time>
      </trkpt>
      <trkpt lat="47.54223" lon="-2.84446">
        <ele>-83.4</ele>
        <time>2021-08-05T13:57:20Z</time>
      </trkpt>
      <trkpt lat="47.54219" lon="-2.84446">
        <ele>-83.4</ele>
        <time>2021-08-05T13:57:21Z</time>
      </trkpt>
      <trkpt lat="47.54215" lon="-2.84447">
        <ele>-83.6</ele>
        <time>2021-08-05T13:57:22Z</time>
      </trkpt>
      <trkpt lat="47.5421" lon="-2.84448">
        <ele>-83.6</ele>
        <time>2021-08-05T13:57:23Z</time>
      </trkpt>
      <trkpt lat="47.54201" lon="-2.84449">
        <ele>-84</ele>
        <time>2021-08-05T13:57:25Z</time>
      </trkpt>
      <trkpt lat="47.54197" lon="-2.8445">
        <ele>-84</ele>
        <time>2021-08-05T13:57:26Z</time>
      </trkpt>
      <trkpt lat="47.54192" lon="-2.84451">
        <ele>-84</ele>
        <time>2021-08-05T13:57:27Z</time>
      </trkpt>
      <trkpt lat="47.54187" lon="-2.84451">
        <ele>-84</ele>
        <time>2021-08-05T13:57:28Z</time>
      </trkpt>
      <trkpt lat="47.54182" lon="-2.84452">
        <ele>-84</ele>
        <time>2021-08-05T13:57:29Z</time>
      </trkpt>
      <trkpt lat="47.54178" lon="-2.84453">
        <ele>-84</ele>
        <time>2021-08-05T13:57:30Z</time>
      </trkpt>
      <trkpt lat="47.54173" lon="-2.84453">
        <ele>-84</ele>
        <time>2021-08-05T13:57:31Z</time>
      </trkpt>
      <trkpt lat="47.54168" lon="-2.84454">
        <ele>-84</ele>
        <time>2021-08-05T13:57:32Z</time>
      </trkpt>
      <trkpt lat="47.54163" lon="-2.84455">
        <ele>-84</ele>
        <time>2021-08-05T13:57:33Z</time>
      </trkpt>
      <trkpt lat="47.54158" lon="-2.84456">
        <ele>-84</ele>
        <time>2021-08-05T13:57:34Z</time>
      </trkpt>
      <trkpt lat="47.54153" lon="-2.84457">
        <ele>-84</ele>
        <time>2021-08-05T13:57:35Z</time>
      </trkpt>
      <trkpt lat="47.54148" lon="-2.84459">
        <ele>-83.8</ele>
        <time>2021-08-05T13:57:36Z</time>
      </trkpt>
      <trkpt lat="47.54142" lon="-2.84461">
        <ele>-84</ele>
        <time>2021-08-05T13:57:37Z</time>
      </trkpt>
      <trkpt lat="47.54136" lon="-2.84464">
        <ele>-84</ele>
        <time>2021-08-05T13:57:38Z</time>
      </trkpt>
      <trkpt lat="47.54131" lon="-2.84468">
        <ele>-84</ele>
        <time>2021-08-05T13:57:39Z</time>
      </trkpt>
      <trkpt lat="47.54126" lon="-2.84473">
        <ele>-83.8</ele>
        <time>2021-08-05T13:57:40Z</time>
      </trkpt>
      <trkpt lat="47.54121" lon="-2.84478">
        <ele>-83.8</ele>
        <time>2021-08-05T13:57:41Z</time>
      </trkpt>
      <trkpt lat="47.54116" lon="-2.84485">
        <ele>-83.8</ele>
        <time>2021-08-05T13:57:42Z</time>
      </trkpt>
      <trkpt lat="47.5411" lon="-2.84491">
        <ele>-83.8</ele>
        <time>2021-08-05T13:57:43Z</time>
      </trkpt>
      <trkpt lat="47.54105" lon="-2.84496">
        <ele>-83.8</ele>
        <time>2021-08-05T13:57:44Z</time>
      </trkpt>
      <trkpt lat="47.54099" lon="-2.845">
        <ele>-83.8</ele>
        <time>2021-08-05T13:57:45Z</time>
      </trkpt>
      <trkpt lat="47.54092" lon="-2.84502">
        <ele>-83.8</ele>
        <time>2021-08-05T13:57:46Z</time>
      </trkpt>
      <trkpt lat="47.54086" lon="-2.84502">
        <ele>-83.8</ele>
        <time>2021-08-05T13:57:47Z</time>
      </trkpt>
      <trkpt lat="47.5408" lon="-2.84501">
        <ele>-83.8</ele>
        <time>2021-08-05T13:57:48Z</time>
      </trkpt>
      <trkpt lat="47.54074" lon="-2.84498">
        <ele>-83.8</ele>
        <time>2021-08-05T13:57:49Z</time>
      </trkpt>
      <trkpt lat="47.54069" lon="-2.84496">
        <ele>-83.8</ele>
        <time>2021-08-05T13:57:50Z</time>
      </trkpt>
      <trkpt lat="47.54063" lon="-2.84493">
        <ele>-83.8</ele>
        <time>2021-08-05T13:57:51Z</time>
      </trkpt>
      <trkpt lat="47.54059" lon="-2.8449">
        <ele>-83.8</ele>
        <time>2021-08-05T13:57:52Z</time>
      </trkpt>
      <trkpt lat="47.54054" lon="-2.84488">
        <ele>-83.8</ele>
        <time>2021-08-05T13:57:53Z</time>
      </trkpt>
      <trkpt lat="47.54049" lon="-2.84485">
        <ele>-83.6</ele>
        <time>2021-08-05T13:57:54Z</time>
      </trkpt>
      <trkpt lat="47.54044" lon="-2.84483">
        <ele>-83.6</ele>
        <time>2021-08-05T13:57:55Z</time>
      </trkpt>
      <trkpt lat="47.5404" lon="-2.8448">
        <ele>-83.6</ele>
        <time>2021-08-05T13:57:56Z</time>
      </trkpt>
      <trkpt lat="47.54035" lon="-2.84478">
        <ele>-83.6</ele>
        <time>2021-08-05T13:57:57Z</time>
      </trkpt>
      <trkpt lat="47.5403" lon="-2.84475">
        <ele>-83.6</ele>
        <time>2021-08-05T13:57:58Z</time>
      </trkpt>
      <trkpt lat="47.54025" lon="-2.84472">
        <ele>-83.6</ele>
        <time>2021-08-05T13:57:59Z</time>
      </trkpt>
      <trkpt lat="47.5402" lon="-2.8447">
        <ele>-83.6</ele>
        <time>2021-08-05T13:58:00Z</time>
      </trkpt>
      <trkpt lat="47.54015" lon="-2.84467">
        <ele>-83.4</ele>
        <time>2021-08-05T13:58:01Z</time>
      </trkpt>
      <trkpt lat="47.54011" lon="-2.84465">
        <ele>-83.4</ele>
        <time>2021-08-05T13:58:02Z</time>
      </trkpt>
      <trkpt lat="47.54006" lon="-2.84463">
        <ele>-83.4</ele>
        <time>2021-08-05T13:58:03Z</time>
      </trkpt>
      <trkpt lat="47.54001" lon="-2.84462">
        <ele>-83.4</ele>
        <time>2021-08-05T13:58:04Z</time>
      </trkpt>
      <trkpt lat="47.53996" lon="-2.84462">
        <ele>-83.4</ele>
        <time>2021-08-05T13:58:05Z</time>
      </trkpt>
      <trkpt lat="47.53991" lon="-2.84461">
        <ele>-83.4</ele>
        <time>2021-08-05T13:58:06Z</time>
      </trkpt>
      <trkpt lat="47.53986" lon="-2.84461">
        <ele>-83.2</ele>
        <time>2021-08-05T13:58:07Z</time>
      </trkpt>
      <trkpt lat="47.53981" lon="-2.84462">
        <ele>-83.2</ele>
        <time>2021-08-05T13:58:08Z</time>
      </trkpt>
      <trkpt lat="47.53976" lon="-2.84462">
        <ele>-83.2</ele>
        <time>2021-08-05T13:58:09Z</time>
      </trkpt>
      <trkpt lat="47.5397" lon="-2.84463">
        <ele>-83</ele>
        <time>2021-08-05T13:58:10Z</time>
      </trkpt>
      <trkpt lat="47.53965" lon="-2.84464">
        <ele>-83</ele>
        <time>2021-08-05T13:58:11Z</time>
      </trkpt>
      <trkpt lat="47.53959" lon="-2.84465">
        <ele>-83</ele>
        <time>2021-08-05T13:58:12Z</time>
      </trkpt>
      <trkpt lat="47.53954" lon="-2.84466">
        <ele>-83</ele>
        <time>2021-08-05T13:58:13Z</time>
      </trkpt>
      <trkpt lat="47.53948" lon="-2.84466">
        <ele>-83</ele>
        <time>2021-08-05T13:58:14Z</time>
      </trkpt>
      <trkpt lat="47.53942" lon="-2.84467">
        <ele>-82.8</ele>
        <time>2021-08-05T13:58:15Z</time>
      </trkpt>
      <trkpt lat="47.53935" lon="-2.84467">
        <ele>-82.8</ele>
        <time>2021-08-05T13:58:16Z</time>
      </trkpt>
      <trkpt lat="47.53929" lon="-2.84466">
        <ele>-82.8</ele>
        <time>2021-08-05T13:58:17Z</time>
      </trkpt>
      <trkpt lat="47.53923" lon="-2.84465">
        <ele>-82.8</ele>
        <time>2021-08-05T13:58:18Z</time>
      </trkpt>
      <trkpt lat="47.53917" lon="-2.84463">
        <ele>-82.8</ele>
        <time>2021-08-05T13:58:19Z</time>
      </trkpt>
      <trkpt lat="47.5391" lon="-2.84461">
        <ele>-82.8</ele>
        <time>2021-08-05T13:58:20Z</time>
      </trkpt>
      <trkpt lat="47.53904" lon="-2.84459">
        <ele>-82.8</ele>
        <time>2021-08-05T13:58:21Z</time>
      </trkpt>
      <trkpt lat="47.53898" lon="-2.84456">
        <ele>-82.8</ele>
        <time>2021-08-05T13:58:22Z</time>
      </trkpt>
      <trkpt lat="47.53892" lon="-2.84453">
        <ele>-82.8</ele>
        <time>2021-08-05T13:58:23Z</time>
      </trkpt>
      <trkpt lat="47.53886" lon="-2.8445">
        <ele>-82.8</ele>
        <time>2021-08-05T13:58:24Z</time>
      </trkpt>
      <trkpt lat="47.5388" lon="-2.84447">
        <ele>-83</ele>
        <time>2021-08-05T13:58:25Z</time>
      </trkpt>
      <trkpt lat="47.53874" lon="-2.84444">
        <ele>-83</ele>
        <time>2021-08-05T13:58:26Z</time>
      </trkpt>
      <trkpt lat="47.53867" lon="-2.8444">
        <ele>-83</ele>
        <time>2021-08-05T13:58:27Z</time>
      </trkpt>
      <trkpt lat="47.53861" lon="-2.84437">
        <ele>-83</ele>
        <time>2021-08-05T13:58:28Z</time>
      </trkpt>
      <trkpt lat="47.53855" lon="-2.84434">
        <ele>-83</ele>
        <time>2021-08-05T13:58:29Z</time>
      </trkpt>
      <trkpt lat="47.53849" lon="-2.84431">
        <ele>-83</ele>
        <time>2021-08-05T13:58:30Z</time>
      </trkpt>
      <trkpt lat="47.53844" lon="-2.84429">
        <ele>-83</ele>
        <time>2021-08-05T13:58:31Z</time>
      </trkpt>
      <trkpt lat="47.53838" lon="-2.84427">
        <ele>-83</ele>
        <time>2021-08-05T13:58:32Z</time>
      </trkpt>
      <trkpt lat="47.53832" lon="-2.84426">
        <ele>-83</ele>
        <time>2021-08-05T13:58:33Z</time>
      </trkpt>
      <trkpt lat="47.53827" lon="-2.84425">
        <ele>-83</ele>
        <time>2021-08-05T13:58:34Z</time>
      </trkpt>
      <trkpt lat="47.53822" lon="-2.84426">
        <ele>-83</ele>
        <time>2021-08-05T13:58:35Z</time>
      </trkpt>
      <trkpt lat="47.53816" lon="-2.84427">
        <ele>-83</ele>
        <time>2021-08-05T13:58:36Z</time>
      </trkpt>
      <trkpt lat="47.53812" lon="-2.84429">
        <ele>-83</ele>
        <time>2021-08-05T13:58:37Z</time>
      </trkpt>
      <trkpt lat="47.53807" lon="-2.84432">
        <ele>-83.2</ele>
        <time>2021-08-05T13:58:38Z</time>
      </trkpt>
      <trkpt lat="47.53802" lon="-2.84436">
        <ele>-83.2</ele>
        <time>2021-08-05T13:58:39Z</time>
      </trkpt>
      <trkpt lat="47.53798" lon="-2.8444">
        <ele>-83.2</ele>
        <time>2021-08-05T13:58:40Z</time>
      </trkpt>
      <trkpt lat="47.53795" lon="-2.84446">
        <ele>-83.2</ele>
        <time>2021-08-05T13:58:41Z</time>
      </trkpt>
      <trkpt lat="47.53792" lon="-2.84452">
        <ele>-83.2</ele>
        <time>2021-08-05T13:58:42Z</time>
      </trkpt>
      <trkpt lat="47.5379" lon="-2.84458">
        <ele>-83.2</ele>
        <time>2021-08-05T13:58:43Z</time>
      </trkpt>
      <trkpt lat="47.53788" lon="-2.84464">
        <ele>-83.2</ele>
        <time>2021-08-05T13:58:44Z</time>
      </trkpt>
      <trkpt lat="47.53787" lon="-2.8447">
        <ele>-83.2</ele>
        <time>2021-08-05T13:58:45Z</time>
      </trkpt>
      <trkpt lat="47.53786" lon="-2.84476">
        <ele>-83.2</ele>
        <time>2021-08-05T13:58:46Z</time>
      </trkpt>
      <trkpt lat="47.53785" lon="-2.84481">
        <ele>-83.2</ele>
        <time>2021-08-05T13:58:47Z</time>
      </trkpt>
      <trkpt lat="47.53785" lon="-2.84487">
        <ele>-83.2</ele>
        <time>2021-08-05T13:58:48Z</time>
      </trkpt>
      <trkpt lat="47.53784" lon="-2.84492">
        <ele>-83.2</ele>
        <time>2021-08-05T13:58:49Z</time>
      </trkpt>
      <trkpt lat="47.53784" lon="-2.84498">
        <ele>-83.2</ele>
        <time>2021-08-05T13:58:50Z</time>
      </trkpt>
      <trkpt lat="47.53783" lon="-2.84504">
        <ele>-83.2</ele>
        <time>2021-08-05T13:58:51Z</time>
      </trkpt>
      <trkpt lat="47.53783" lon="-2.8451">
        <ele>-83.2</ele>
        <time>2021-08-05T13:58:52Z</time>
      </trkpt>
      <trkpt lat="47.53783" lon="-2.84516">
        <ele>-83.2</ele>
        <time>2021-08-05T13:58:53Z</time>
      </trkpt>
      <trkpt lat="47.53783" lon="-2.84522">
        <ele>-83</ele>
        <time>2021-08-05T13:58:54Z</time>
      </trkpt>
      <trkpt lat="47.53783" lon="-2.84528">
        <ele>-83.2</ele>
        <time>2021-08-05T13:58:55Z</time>
      </trkpt>
      <trkpt lat="47.53782" lon="-2.84534">
        <ele>-83.2</ele>
        <time>2021-08-05T13:58:56Z</time>
      </trkpt>
      <trkpt lat="47.53782" lon="-2.8454">
        <ele>-83</ele>
        <time>2021-08-05T13:58:57Z</time>
      </trkpt>
      <trkpt lat="47.53781" lon="-2.84546">
        <ele>-83</ele>
        <time>2021-08-05T13:58:58Z</time>
      </trkpt>
      <trkpt lat="47.53781" lon="-2.84553">
        <ele>-83</ele>
        <time>2021-08-05T13:58:59Z</time>
      </trkpt>
      <trkpt lat="47.53781" lon="-2.84559">
        <ele>-83</ele>
        <time>2021-08-05T13:59:00Z</time>
      </trkpt>
      <trkpt lat="47.53781" lon="-2.84565">
        <ele>-83</ele>
        <time>2021-08-05T13:59:01Z</time>
      </trkpt>
      <trkpt lat="47.53781" lon="-2.84572">
        <ele>-82.8</ele>
        <time>2021-08-05T13:59:02Z</time>
      </trkpt>
      <trkpt lat="47.53781" lon="-2.84578">
        <ele>-82.8</ele>
        <time>2021-08-05T13:59:03Z</time>
      </trkpt>
      <trkpt lat="47.5378" lon="-2.84584">
        <ele>-82.8</ele>
        <time>2021-08-05T13:59:04Z</time>
      </trkpt>
      <trkpt lat="47.5378" lon="-2.8459">
        <ele>-82.8</ele>
        <time>2021-08-05T13:59:05Z</time>
      </trkpt>
      <trkpt lat="47.5378" lon="-2.84595">
        <ele>-82.8</ele>
        <time>2021-08-05T13:59:06Z</time>
      </trkpt>
      <trkpt lat="47.5378" lon="-2.846">
        <ele>-82.8</ele>
        <time>2021-08-05T13:59:07Z</time>
      </trkpt>
      <trkpt lat="47.5378" lon="-2.84605">
        <ele>-82.8</ele>
        <time>2021-08-05T13:59:08Z</time>
      </trkpt>
      <trkpt lat="47.5378" lon="-2.8461">
        <ele>-82.8</ele>
        <time>2021-08-05T13:59:09Z</time>
      </trkpt>
      <trkpt lat="47.5378" lon="-2.84614">
        <ele>-82.8</ele>
        <time>2021-08-05T13:59:10Z</time>
      </trkpt>
      <trkpt lat="47.5378" lon="-2.84619">
        <ele>-82.8</ele>
        <time>2021-08-05T13:59:11Z</time>
      </trkpt>
      <trkpt lat="47.53779" lon="-2.84623">
        <ele>-82.8</ele>
        <time>2021-08-05T13:59:12Z</time>
      </trkpt>
      <trkpt lat="47.53779" lon="-2.84628">
        <ele>-82.8</ele>
        <time>2021-08-05T13:59:13Z</time>
      </trkpt>
      <trkpt lat="47.53779" lon="-2.84633">
        <ele>-82.8</ele>
        <time>2021-08-05T13:59:14Z</time>
      </trkpt>
      <trkpt lat="47.53779" lon="-2.84638">
        <ele>-82.8</ele>
        <time>2021-08-05T13:59:15Z</time>
      </trkpt>
      <trkpt lat="47.53779" lon="-2.84643">
        <ele>-82.8</ele>
        <time>2021-08-05T13:59:16Z</time>
      </trkpt>
      <trkpt lat="47.53778" lon="-2.84648">
        <ele>-83</ele>
        <time>2021-08-05T13:59:17Z</time>
      </trkpt>
      <trkpt lat="47.53778" lon="-2.84654">
        <ele>-83.2</ele>
        <time>2021-08-05T13:59:18Z</time>
      </trkpt>
      <trkpt lat="47.53778" lon="-2.84659">
        <ele>-83.2</ele>
        <time>2021-08-05T13:59:19Z</time>
      </trkpt>
      <trkpt lat="47.53777" lon="-2.84664">
        <ele>-83.2</ele>
        <time>2021-08-05T13:59:20Z</time>
      </trkpt>
      <trkpt lat="47.53777" lon="-2.84669">
        <ele>-83.2</ele>
        <time>2021-08-05T13:59:21Z</time>
      </trkpt>
      <trkpt lat="47.53776" lon="-2.84674">
        <ele>-83.2</ele>
        <time>2021-08-05T13:59:22Z</time>
      </trkpt>
      <trkpt lat="47.53776" lon="-2.84679">
        <ele>-83.4</ele>
        <time>2021-08-05T13:59:23Z</time>
      </trkpt>
      <trkpt lat="47.53776" lon="-2.84684">
        <ele>-83.4</ele>
        <time>2021-08-05T13:59:24Z</time>
      </trkpt>
      <trkpt lat="47.53776" lon="-2.84689">
        <ele>-83.4</ele>
        <time>2021-08-05T13:59:25Z</time>
      </trkpt>
      <trkpt lat="47.53776" lon="-2.84694">
        <ele>-83.6</ele>
        <time>2021-08-05T13:59:26Z</time>
      </trkpt>
      <trkpt lat="47.53776" lon="-2.847">
        <ele>-83.8</ele>
        <time>2021-08-05T13:59:27Z</time>
      </trkpt>
      <trkpt lat="47.53776" lon="-2.84704">
        <ele>-84</ele>
        <time>2021-08-05T13:59:28Z</time>
      </trkpt>
      <trkpt lat="47.53776" lon="-2.84709">
        <ele>-84</ele>
        <time>2021-08-05T13:59:29Z</time>
      </trkpt>
      <trkpt lat="47.53776" lon="-2.84714">
        <ele>-84.2</ele>
        <time>2021-08-05T13:59:30Z</time>
      </trkpt>
      <trkpt lat="47.53776" lon="-2.84719">
        <ele>-84.4</ele>
        <time>2021-08-05T13:59:31Z</time>
      </trkpt>
      <trkpt lat="47.53776" lon="-2.84725">
        <ele>-84.6</ele>
        <time>2021-08-05T13:59:32Z</time>
      </trkpt>
      <trkpt lat="47.53776" lon="-2.8473">
        <ele>-84.6</ele>
        <time>2021-08-05T13:59:33Z</time>
      </trkpt>
      <trkpt lat="47.53776" lon="-2.84735">
        <ele>-84.8</ele>
        <time>2021-08-05T13:59:34Z</time>
      </trkpt>
      <trkpt lat="47.53776" lon="-2.8474">
        <ele>-84.8</ele>
        <time>2021-08-05T13:59:35Z</time>
      </trkpt>
      <trkpt lat="47.53777" lon="-2.84745">
        <ele>-84.8</ele>
        <time>2021-08-05T13:59:36Z</time>
      </trkpt>
      <trkpt lat="47.53777" lon="-2.8475">
        <ele>-84.8</ele>
        <time>2021-08-05T13:59:37Z</time>
      </trkpt>
      <trkpt lat="47.53776" lon="-2.84755">
        <ele>-84.8</ele>
        <time>2021-08-05T13:59:38Z</time>
      </trkpt>
      <trkpt lat="47.53776" lon="-2.8476">
        <ele>-84.8</ele>
        <time>2021-08-05T13:59:39Z</time>
      </trkpt>
      <trkpt lat="47.53776" lon="-2.84765">
        <ele>-85</ele>
        <time>2021-08-05T13:59:40Z</time>
      </trkpt>
      <trkpt lat="47.53775" lon="-2.84769">
        <ele>-85</ele>
        <time>2021-08-05T13:59:41Z</time>
      </trkpt>
      <trkpt lat="47.53775" lon="-2.84774">
        <ele>-85.2</ele>
        <time>2021-08-05T13:59:42Z</time>
      </trkpt>
      <trkpt lat="47.53774" lon="-2.84779">
        <ele>-85.2</ele>
        <time>2021-08-05T13:59:43Z</time>
      </trkpt>
      <trkpt lat="47.53773" lon="-2.84784">
        <ele>-85.4</ele>
        <time>2021-08-05T13:59:44Z</time>
      </trkpt>
      <trkpt lat="47.53772" lon="-2.84789">
        <ele>-85.6</ele>
        <time>2021-08-05T13:59:45Z</time>
      </trkpt>
      <trkpt lat="47.53772" lon="-2.84794">
        <ele>-85.6</ele>
        <time>2021-08-05T13:59:46Z</time>
      </trkpt>
      <trkpt lat="47.53771" lon="-2.84799">
        <ele>-85.8</ele>
        <time>2021-08-05T13:59:47Z</time>
      </trkpt>
      <trkpt lat="47.53771" lon="-2.84804">
        <ele>-85.8</ele>
        <time>2021-08-05T13:59:48Z</time>
      </trkpt>
      <trkpt lat="47.53771" lon="-2.84809">
        <ele>-86</ele>
        <time>2021-08-05T13:59:49Z</time>
      </trkpt>
      <trkpt lat="47.5377" lon="-2.84814">
        <ele>-86</ele>
        <time>2021-08-05T13:59:50Z</time>
      </trkpt>
      <trkpt lat="47.5377" lon="-2.84819">
        <ele>-86</ele>
        <time>2021-08-05T13:59:51Z</time>
      </trkpt>
      <trkpt lat="47.5377" lon="-2.84824">
        <ele>-86</ele>
        <time>2021-08-05T13:59:52Z</time>
      </trkpt>
      <trkpt lat="47.53769" lon="-2.84829">
        <ele>-86.2</ele>
        <time>2021-08-05T13:59:53Z</time>
      </trkpt>
      <trkpt lat="47.53769" lon="-2.84834">
        <ele>-86.2</ele>
        <time>2021-08-05T13:59:54Z</time>
      </trkpt>
      <trkpt lat="47.53769" lon="-2.84839">
        <ele>-86.2</ele>
        <time>2021-08-05T13:59:55Z</time>
      </trkpt>
      <trkpt lat="47.53769" lon="-2.84844">
        <ele>-86.2</ele>
        <time>2021-08-05T13:59:56Z</time>
      </trkpt>
      <trkpt lat="47.53768" lon="-2.84849">
        <ele>-86.2</ele>
        <time>2021-08-05T13:59:57Z</time>
      </trkpt>
      <trkpt lat="47.53768" lon="-2.84854">
        <ele>-86.2</ele>
        <time>2021-08-05T13:59:58Z</time>
      </trkpt>
      <trkpt lat="47.53768" lon="-2.84859">
        <ele>-86.2</ele>
        <time>2021-08-05T13:59:59Z</time>
      </trkpt>
      <trkpt lat="47.53767" lon="-2.84864">
        <ele>-86.4</ele>
        <time>2021-08-05T14:00:00Z</time>
      </trkpt>
      <trkpt lat="47.53767" lon="-2.84869">
        <ele>-86.4</ele>
        <time>2021-08-05T14:00:01Z</time>
      </trkpt>
      <trkpt lat="47.53767" lon="-2.84874">
        <ele>-86.4</ele>
        <time>2021-08-05T14:00:02Z</time>
      </trkpt>
      <trkpt lat="47.53767" lon="-2.84878">
        <ele>-86.4</ele>
        <time>2021-08-05T14:00:03Z</time>
      </trkpt>
      <trkpt lat="47.53767" lon="-2.84881">
        <ele>-86.4</ele>
        <time>2021-08-05T14:00:04Z</time>
      </trkpt>
      <trkpt lat="47.53768" lon="-2.84885">
        <ele>-86.4</ele>
        <time>2021-08-05T14:00:05Z</time>
      </trkpt>
      <trkpt lat="47.53767" lon="-2.84889">
        <ele>-86.4</ele>
        <time>2021-08-05T14:00:06Z</time>
      </trkpt>
      <trkpt lat="47.53767" lon="-2.84893">
        <ele>-86.4</ele>
        <time>2021-08-05T14:00:07Z</time>
      </trkpt>
      <trkpt lat="47.53767" lon="-2.84897">
        <ele>-86.4</ele>
        <time>2021-08-05T14:00:08Z</time>
      </trkpt>
      <trkpt lat="47.53766" lon="-2.84901">
        <ele>-86.4</ele>
        <time>2021-08-05T14:00:09Z</time>
      </trkpt>
      <trkpt lat="47.53766" lon="-2.84905">
        <ele>-86.4</ele>
        <time>2021-08-05T14:00:10Z</time>
      </trkpt>
      <trkpt lat="47.53765" lon="-2.84909">
        <ele>-86.4</ele>
        <time>2021-08-05T14:00:11Z</time>
      </trkpt>
      <trkpt lat="47.53765" lon="-2.84913">
        <ele>-86.2</ele>
        <time>2021-08-05T14:00:12Z</time>
      </trkpt>
      <trkpt lat="47.53764" lon="-2.84917">
        <ele>-86.4</ele>
        <time>2021-08-05T14:00:13Z</time>
      </trkpt>
      <trkpt lat="47.53763" lon="-2.84921">
        <ele>-86.4</ele>
        <time>2021-08-05T14:00:14Z</time>
      </trkpt>
      <trkpt lat="47.53762" lon="-2.84925">
        <ele>-86.2</ele>
        <time>2021-08-05T14:00:15Z</time>
      </trkpt>
      <trkpt lat="47.5376" lon="-2.84928">
        <ele>-86.2</ele>
        <time>2021-08-05T14:00:16Z</time>
      </trkpt>
      <trkpt lat="47.53759" lon="-2.84931">
        <ele>-86.2</ele>
        <time>2021-08-05T14:00:17Z</time>
      </trkpt>
      <trkpt lat="47.53757" lon="-2.84935">
        <ele>-86.2</ele>
        <time>2021-08-05T14:00:18Z</time>
      </trkpt>
      <trkpt lat="47.53755" lon="-2.84938">
        <ele>-86</ele>
        <time>2021-08-05T14:00:19Z</time>
      </trkpt>
      <trkpt lat="47.53753" lon="-2.84941">
        <ele>-86</ele>
        <time>2021-08-05T14:00:20Z</time>
      </trkpt>
      <trkpt lat="47.53751" lon="-2.84945">
        <ele>-86</ele>
        <time>2021-08-05T14:00:21Z</time>
      </trkpt>
      <trkpt lat="47.53748" lon="-2.84948">
        <ele>-85.8</ele>
        <time>2021-08-05T14:00:22Z</time>
      </trkpt>
      <trkpt lat="47.53746" lon="-2.84952">
        <ele>-85.6</ele>
        <time>2021-08-05T14:00:23Z</time>
      </trkpt>
      <trkpt lat="47.53743" lon="-2.84955">
        <ele>-85.6</ele>
        <time>2021-08-05T14:00:24Z</time>
      </trkpt>
      <trkpt lat="47.5374" lon="-2.84957">
        <ele>-85.4</ele>
        <time>2021-08-05T14:00:25Z</time>
      </trkpt>
      <trkpt lat="47.53738" lon="-2.8496">
        <ele>-85.4</ele>
        <time>2021-08-05T14:00:26Z</time>
      </trkpt>
      <trkpt lat="47.53735" lon="-2.84962">
        <ele>-85.2</ele>
        <time>2021-08-05T14:00:27Z</time>
      </trkpt>
      <trkpt lat="47.53732" lon="-2.84963">
        <ele>-85.2</ele>
        <time>2021-08-05T14:00:28Z</time>
      </trkpt>
      <trkpt lat="47.53729" lon="-2.84965">
        <ele>-85</ele>
        <time>2021-08-05T14:00:29Z</time>
      </trkpt>
      <trkpt lat="47.53727" lon="-2.84966">
        <ele>-85</ele>
        <time>2021-08-05T14:00:30Z</time>
      </trkpt>
      <trkpt lat="47.53724" lon="-2.84967">
        <ele>-84.8</ele>
        <time>2021-08-05T14:00:31Z</time>
      </trkpt>
      <trkpt lat="47.53722" lon="-2.84969">
        <ele>-84.8</ele>
        <time>2021-08-05T14:00:32Z</time>
      </trkpt>
      <trkpt lat="47.53719" lon="-2.8497">
        <ele>-84.6</ele>
        <time>2021-08-05T14:00:33Z</time>
      </trkpt>
      <trkpt lat="47.53716" lon="-2.84971">
        <ele>-84.4</ele>
        <time>2021-08-05T14:00:34Z</time>
      </trkpt>
      <trkpt lat="47.53713" lon="-2.84972">
        <ele>-84.2</ele>
        <time>2021-08-05T14:00:35Z</time>
      </trkpt>
      <trkpt lat="47.5371" lon="-2.84972">
        <ele>-84</ele>
        <time>2021-08-05T14:00:36Z</time>
      </trkpt>
      <trkpt lat="47.53707" lon="-2.84973">
        <ele>-84</ele>
        <time>2021-08-05T14:00:37Z</time>
      </trkpt>
      <trkpt lat="47.53705" lon="-2.84974">
        <ele>-83.8</ele>
        <time>2021-08-05T14:00:38Z</time>
      </trkpt>
      <trkpt lat="47.53702" lon="-2.84976">
        <ele>-83.6</ele>
        <time>2021-08-05T14:00:39Z</time>
      </trkpt>
      <trkpt lat="47.53699" lon="-2.84977">
        <ele>-83.6</ele>
        <time>2021-08-05T14:00:40Z</time>
      </trkpt>
      <trkpt lat="47.53696" lon="-2.84978">
        <ele>-83.4</ele>
        <time>2021-08-05T14:00:41Z</time>
      </trkpt>
      <trkpt lat="47.53693" lon="-2.84979">
        <ele>-83.2</ele>
        <time>2021-08-05T14:00:42Z</time>
      </trkpt>
      <trkpt lat="47.5369" lon="-2.8498">
        <ele>-83.2</ele>
        <time>2021-08-05T14:00:43Z</time>
      </trkpt>
      <trkpt lat="47.53687" lon="-2.84981">
        <ele>-83</ele>
        <time>2021-08-05T14:00:44Z</time>
      </trkpt>
      <trkpt lat="47.53683" lon="-2.84982">
        <ele>-83</ele>
        <time>2021-08-05T14:00:45Z</time>
      </trkpt>
      <trkpt lat="47.5368" lon="-2.84983">
        <ele>-83</ele>
        <time>2021-08-05T14:00:46Z</time>
      </trkpt>
      <trkpt lat="47.53676" lon="-2.84984">
        <ele>-82.8</ele>
        <time>2021-08-05T14:00:47Z</time>
      </trkpt>
      <trkpt lat="47.53672" lon="-2.84984">
        <ele>-82.8</ele>
        <time>2021-08-05T14:00:48Z</time>
      </trkpt>
      <trkpt lat="47.53669" lon="-2.84985">
        <ele>-82.8</ele>
        <time>2021-08-05T14:00:49Z</time>
      </trkpt>
      <trkpt lat="47.53666" lon="-2.84985">
        <ele>-82.8</ele>
        <time>2021-08-05T14:00:50Z</time>
      </trkpt>
      <trkpt lat="47.53663" lon="-2.84986">
        <ele>-82.8</ele>
        <time>2021-08-05T14:00:51Z</time>
      </trkpt>
      <trkpt lat="47.5366" lon="-2.84986">
        <ele>-83</ele>
        <time>2021-08-05T14:00:52Z</time>
      </trkpt>
      <trkpt lat="47.53657" lon="-2.84986">
        <ele>-82.8</ele>
        <time>2021-08-05T14:00:53Z</time>
      </trkpt>
      <trkpt lat="47.53654" lon="-2.84986">
        <ele>-82.8</ele>
        <time>2021-08-05T14:00:54Z</time>
      </trkpt>
      <trkpt lat="47.53652" lon="-2.84986">
        <ele>-82.8</ele>
        <time>2021-08-05T14:00:55Z</time>
      </trkpt>
      <trkpt lat="47.53649" lon="-2.84986">
        <ele>-82.8</ele>
        <time>2021-08-05T14:00:56Z</time>
      </trkpt>
      <trkpt lat="47.53647" lon="-2.84987">
        <ele>-82.8</ele>
        <time>2021-08-05T14:00:57Z</time>
      </trkpt>
      <trkpt lat="47.53645" lon="-2.84987">
        <ele>-82.8</ele>
        <time>2021-08-05T14:00:58Z</time>
      </trkpt>
      <trkpt lat="47.53642" lon="-2.84987">
        <ele>-82.8</ele>
        <time>2021-08-05T14:00:59Z</time>
      </trkpt>
      <trkpt lat="47.53639" lon="-2.84987">
        <ele>-82.8</ele>
        <time>2021-08-05T14:01:00Z</time>
      </trkpt>
      <trkpt lat="47.53635" lon="-2.84987">
        <ele>-82.8</ele>
        <time>2021-08-05T14:01:01Z</time>
      </trkpt>
      <trkpt lat="47.53632" lon="-2.84987">
        <ele>-82.8</ele>
        <time>2021-08-05T14:01:02Z</time>
      </trkpt>
      <trkpt lat="47.53628" lon="-2.84986">
        <ele>-82.6</ele>
        <time>2021-08-05T14:01:03Z</time>
      </trkpt>
      <trkpt lat="47.53624" lon="-2.84986">
        <ele>-82.6</ele>
        <time>2021-08-05T14:01:04Z</time>
      </trkpt>
      <trkpt lat="47.5362" lon="-2.84985">
        <ele>-82.6</ele>
        <time>2021-08-05T14:01:05Z</time>
      </trkpt>
      <trkpt lat="47.53616" lon="-2.84985">
        <ele>-82.6</ele>
        <time>2021-08-05T14:01:06Z</time>
      </trkpt>
      <trkpt lat="47.53613" lon="-2.84984">
        <ele>-82.4</ele>
        <time>2021-08-05T14:01:07Z</time>
      </trkpt>
      <trkpt lat="47.53609" lon="-2.84984">
        <ele>-82.4</ele>
        <time>2021-08-05T14:01:08Z</time>
      </trkpt>
      <trkpt lat="47.53605" lon="-2.84983">
        <ele>-82.4</ele>
        <time>2021-08-05T14:01:09Z</time>
      </trkpt>
      <trkpt lat="47.53601" lon="-2.84983">
        <ele>-82.6</ele>
        <time>2021-08-05T14:01:10Z</time>
      </trkpt>
      <trkpt lat="47.53596" lon="-2.84982">
        <ele>-82.4</ele>
        <time>2021-08-05T14:01:11Z</time>
      </trkpt>
      <trkpt lat="47.53592" lon="-2.84982">
        <ele>-82.4</ele>
        <time>2021-08-05T14:01:12Z</time>
      </trkpt>
      <trkpt lat="47.53587" lon="-2.84981">
        <ele>-82.4</ele>
        <time>2021-08-05T14:01:13Z</time>
      </trkpt>
      <trkpt lat="47.53582" lon="-2.84981">
        <ele>-82.4</ele>
        <time>2021-08-05T14:01:14Z</time>
      </trkpt>
      <trkpt lat="47.53578" lon="-2.8498">
        <ele>-82.4</ele>
        <time>2021-08-05T14:01:15Z</time>
      </trkpt>
      <trkpt lat="47.53573" lon="-2.84979">
        <ele>-82.4</ele>
        <time>2021-08-05T14:01:16Z</time>
      </trkpt>
      <trkpt lat="47.53569" lon="-2.84979">
        <ele>-82.4</ele>
        <time>2021-08-05T14:01:17Z</time>
      </trkpt>
      <trkpt lat="47.53564" lon="-2.84978">
        <ele>-82.4</ele>
        <time>2021-08-05T14:01:18Z</time>
      </trkpt>
      <trkpt lat="47.5356" lon="-2.84978">
        <ele>-82.4</ele>
        <time>2021-08-05T14:01:19Z</time>
      </trkpt>
      <trkpt lat="47.53555" lon="-2.84977">
        <ele>-82.4</ele>
        <time>2021-08-05T14:01:20Z</time>
      </trkpt>
      <trkpt lat="47.5355" lon="-2.84976">
        <ele>-82.4</ele>
        <time>2021-08-05T14:01:21Z</time>
      </trkpt>
      <trkpt lat="47.53546" lon="-2.84976">
        <ele>-82.4</ele>
        <time>2021-08-05T14:01:22Z</time>
      </trkpt>
      <trkpt lat="47.53541" lon="-2.84975">
        <ele>-82.6</ele>
        <time>2021-08-05T14:01:23Z</time>
      </trkpt>
      <trkpt lat="47.53536" lon="-2.84974">
        <ele>-82.6</ele>
        <time>2021-08-05T14:01:24Z</time>
      </trkpt>
      <trkpt lat="47.53532" lon="-2.84974">
        <ele>-82.6</ele>
        <time>2021-08-05T14:01:25Z</time>
      </trkpt>
      <trkpt lat="47.53527" lon="-2.84973">
        <ele>-82.6</ele>
        <time>2021-08-05T14:01:26Z</time>
      </trkpt>
      <trkpt lat="47.53523" lon="-2.84973">
        <ele>-82.6</ele>
        <time>2021-08-05T14:01:27Z</time>
      </trkpt>
      <trkpt lat="47.53519" lon="-2.84972">
        <ele>-82.6</ele>
        <time>2021-08-05T14:01:28Z</time>
      </trkpt>
      <trkpt lat="47.53514" lon="-2.84972">
        <ele>-82.8</ele>
        <time>2021-08-05T14:01:29Z</time>
      </trkpt>
      <trkpt lat="47.5351" lon="-2.84972">
        <ele>-82.8</ele>
        <time>2021-08-05T14:01:30Z</time>
      </trkpt>
      <trkpt lat="47.53506" lon="-2.84971">
        <ele>-82.8</ele>
        <time>2021-08-05T14:01:31Z</time>
      </trkpt>
      <trkpt lat="47.53502" lon="-2.8497">
        <ele>-82.8</ele>
        <time>2021-08-05T14:01:32Z</time>
      </trkpt>
      <trkpt lat="47.53498" lon="-2.8497">
        <ele>-82.8</ele>
        <time>2021-08-05T14:01:33Z</time>
      </trkpt>
      <trkpt lat="47.53494" lon="-2.84973">
        <ele>-82.8</ele>
        <time>2021-08-05T14:01:34Z</time>
      </trkpt>
      <trkpt lat="47.53492" lon="-2.84979">
        <ele>-82.8</ele>
        <time>2021-08-05T14:01:35Z</time>
      </trkpt>
      <trkpt lat="47.53492" lon="-2.84986">
        <ele>-82.8</ele>
        <time>2021-08-05T14:01:36Z</time>
      </trkpt>
      <trkpt lat="47.53493" lon="-2.84993">
        <ele>-82.8</ele>
        <time>2021-08-05T14:01:37Z</time>
      </trkpt>
      <trkpt lat="47.53494" lon="-2.85">
        <ele>-82.8</ele>
        <time>2021-08-05T14:01:38Z</time>
      </trkpt>
      <trkpt lat="47.53494" lon="-2.85008">
        <ele>-82.8</ele>
        <time>2021-08-05T14:01:39Z</time>
      </trkpt>
      <trkpt lat="47.53495" lon="-2.85016">
        <ele>-83</ele>
        <time>2021-08-05T14:01:40Z</time>
      </trkpt>
      <trkpt lat="47.53496" lon="-2.85024">
        <ele>-83.2</ele>
        <time>2021-08-05T14:01:41Z</time>
      </trkpt>
      <trkpt lat="47.53496" lon="-2.85032">
        <ele>-83.2</ele>
        <time>2021-08-05T14:01:42Z</time>
      </trkpt>
      <trkpt lat="47.53497" lon="-2.85041">
        <ele>-83.2</ele>
        <time>2021-08-05T14:01:43Z</time>
      </trkpt>
      <trkpt lat="47.53497" lon="-2.85049">
        <ele>-83.2</ele>
        <time>2021-08-05T14:01:44Z</time>
      </trkpt>
      <trkpt lat="47.53497" lon="-2.85057">
        <ele>-83.2</ele>
        <time>2021-08-05T14:01:45Z</time>
      </trkpt>
      <trkpt lat="47.53496" lon="-2.85065">
        <ele>-83.2</ele>
        <time>2021-08-05T14:01:46Z</time>
      </trkpt>
      <trkpt lat="47.53496" lon="-2.85073">
        <ele>-83.2</ele>
        <time>2021-08-05T14:01:47Z</time>
      </trkpt>
      <trkpt lat="47.53495" lon="-2.8508">
        <ele>-83.2</ele>
        <time>2021-08-05T14:01:48Z</time>
      </trkpt>
      <trkpt lat="47.53495" lon="-2.85088">
        <ele>-83.2</ele>
        <time>2021-08-05T14:01:49Z</time>
      </trkpt>
      <trkpt lat="47.53494" lon="-2.85096">
        <ele>-83.2</ele>
        <time>2021-08-05T14:01:50Z</time>
      </trkpt>
      <trkpt lat="47.53494" lon="-2.85103">
        <ele>-83.2</ele>
        <time>2021-08-05T14:01:51Z</time>
      </trkpt>
      <trkpt lat="47.53493" lon="-2.85111">
        <ele>-83</ele>
        <time>2021-08-05T14:01:52Z</time>
      </trkpt>
      <trkpt lat="47.53492" lon="-2.85119">
        <ele>-83</ele>
        <time>2021-08-05T14:01:53Z</time>
      </trkpt>
      <trkpt lat="47.53491" lon="-2.85126">
        <ele>-83</ele>
        <time>2021-08-05T14:01:54Z</time>
      </trkpt>
      <trkpt lat="47.5349" lon="-2.85134">
        <ele>-82.8</ele>
        <time>2021-08-05T14:01:55Z</time>
      </trkpt>
      <trkpt lat="47.53489" lon="-2.85142">
        <ele>-82.6</ele>
        <time>2021-08-05T14:01:56Z</time>
      </trkpt>
      <trkpt lat="47.53488" lon="-2.85149">
        <ele>-82.6</ele>
        <time>2021-08-05T14:01:57Z</time>
      </trkpt>
      <trkpt lat="47.53487" lon="-2.85156">
        <ele>-82.4</ele>
        <time>2021-08-05T14:01:58Z</time>
      </trkpt>
      <trkpt lat="47.53485" lon="-2.85171">
        <ele>-82.2</ele>
        <time>2021-08-05T14:02:00Z</time>
      </trkpt>
      <trkpt lat="47.53483" lon="-2.85177">
        <ele>-82.2</ele>
        <time>2021-08-05T14:02:01Z</time>
      </trkpt>
      <trkpt lat="47.53481" lon="-2.85184">
        <ele>-82.2</ele>
        <time>2021-08-05T14:02:02Z</time>
      </trkpt>
      <trkpt lat="47.53479" lon="-2.8519">
        <ele>-82.2</ele>
        <time>2021-08-05T14:02:03Z</time>
      </trkpt>
      <trkpt lat="47.53477" lon="-2.85197">
        <ele>-82.2</ele>
        <time>2021-08-05T14:02:04Z</time>
      </trkpt>
      <trkpt lat="47.53476" lon="-2.85204">
        <ele>-82</ele>
        <time>2021-08-05T14:02:05Z</time>
      </trkpt>
      <trkpt lat="47.53475" lon="-2.8521">
        <ele>-82.2</ele>
        <time>2021-08-05T14:02:06Z</time>
      </trkpt>
      <trkpt lat="47.53474" lon="-2.85217">
        <ele>-82.2</ele>
        <time>2021-08-05T14:02:07Z</time>
      </trkpt>
      <trkpt lat="47.53471" lon="-2.85229">
        <ele>-82.2</ele>
        <time>2021-08-05T14:02:09Z</time>
      </trkpt>
      <trkpt lat="47.53469" lon="-2.85235">
        <ele>-82.2</ele>
        <time>2021-08-05T14:02:10Z</time>
      </trkpt>
      <trkpt lat="47.53467" lon="-2.85242">
        <ele>-82.2</ele>
        <time>2021-08-05T14:02:11Z</time>
      </trkpt>
      <trkpt lat="47.53465" lon="-2.85248">
        <ele>-82.2</ele>
        <time>2021-08-05T14:02:12Z</time>
      </trkpt>
      <trkpt lat="47.53464" lon="-2.85254">
        <ele>-82.2</ele>
        <time>2021-08-05T14:02:13Z</time>
      </trkpt>
      <trkpt lat="47.53462" lon="-2.85261">
        <ele>-82.2</ele>
        <time>2021-08-05T14:02:14Z</time>
      </trkpt>
      <trkpt lat="47.5346" lon="-2.85267">
        <ele>-82.2</ele>
        <time>2021-08-05T14:02:15Z</time>
      </trkpt>
      <trkpt lat="47.53458" lon="-2.85274">
        <ele>-82.2</ele>
        <time>2021-08-05T14:02:16Z</time>
      </trkpt>
      <trkpt lat="47.53456" lon="-2.85279">
        <ele>-82.2</ele>
        <time>2021-08-05T14:02:17Z</time>
      </trkpt>
      <trkpt lat="47.53453" lon="-2.85284">
        <ele>-82.2</ele>
        <time>2021-08-05T14:02:18Z</time>
      </trkpt>
      <trkpt lat="47.53449" lon="-2.85288">
        <ele>-82.2</ele>
        <time>2021-08-05T14:02:19Z</time>
      </trkpt>
      <trkpt lat="47.53446" lon="-2.8529">
        <ele>-82.2</ele>
        <time>2021-08-05T14:02:20Z</time>
      </trkpt>
      <trkpt lat="47.53442" lon="-2.85291">
        <ele>-82.2</ele>
        <time>2021-08-05T14:02:21Z</time>
      </trkpt>
      <trkpt lat="47.53437" lon="-2.85292">
        <ele>-82.2</ele>
        <time>2021-08-05T14:02:22Z</time>
      </trkpt>
      <trkpt lat="47.53433" lon="-2.85293">
        <ele>-82.2</ele>
        <time>2021-08-05T14:02:23Z</time>
      </trkpt>
      <trkpt lat="47.53429" lon="-2.85293">
        <ele>-82.4</ele>
        <time>2021-08-05T14:02:24Z</time>
      </trkpt>
      <trkpt lat="47.53425" lon="-2.8529">
        <ele>-82.4</ele>
        <time>2021-08-05T14:02:25Z</time>
      </trkpt>
      <trkpt lat="47.53421" lon="-2.85286">
        <ele>-82.4</ele>
        <time>2021-08-05T14:02:26Z</time>
      </trkpt>
      <trkpt lat="47.53418" lon="-2.85281">
        <ele>-82.4</ele>
        <time>2021-08-05T14:02:27Z</time>
      </trkpt>
      <trkpt lat="47.53416" lon="-2.85275">
        <ele>-82.4</ele>
        <time>2021-08-05T14:02:28Z</time>
      </trkpt>
      <trkpt lat="47.53414" lon="-2.8527">
        <ele>-82.4</ele>
        <time>2021-08-05T14:02:29Z</time>
      </trkpt>
      <trkpt lat="47.53412" lon="-2.85264">
        <ele>-82.6</ele>
        <time>2021-08-05T14:02:30Z</time>
      </trkpt>
      <trkpt lat="47.5341" lon="-2.85258">
        <ele>-82.6</ele>
        <time>2021-08-05T14:02:31Z</time>
      </trkpt>
      <trkpt lat="47.53407" lon="-2.85252">
        <ele>-82.8</ele>
        <time>2021-08-05T14:02:32Z</time>
      </trkpt>
      <trkpt lat="47.53405" lon="-2.85246">
        <ele>-83.2</ele>
        <time>2021-08-05T14:02:33Z</time>
      </trkpt>
      <trkpt lat="47.53403" lon="-2.8524">
        <ele>-83.2</ele>
        <time>2021-08-05T14:02:34Z</time>
      </trkpt>
      <trkpt lat="47.53401" lon="-2.85234">
        <ele>-83.4</ele>
        <time>2021-08-05T14:02:35Z</time>
      </trkpt>
      <trkpt lat="47.53399" lon="-2.85228">
        <ele>-83.6</ele>
        <time>2021-08-05T14:02:36Z</time>
      </trkpt>
      <trkpt lat="47.53398" lon="-2.85222">
        <ele>-83.8</ele>
        <time>2021-08-05T14:02:37Z</time>
      </trkpt>
      <trkpt lat="47.53396" lon="-2.85216">
        <ele>-84</ele>
        <time>2021-08-05T14:02:38Z</time>
      </trkpt>
      <trkpt lat="47.53394" lon="-2.8521">
        <ele>-84.2</ele>
        <time>2021-08-05T14:02:39Z</time>
      </trkpt>
      <trkpt lat="47.53392" lon="-2.85204">
        <ele>-84.4</ele>
        <time>2021-08-05T14:02:40Z</time>
      </trkpt>
      <trkpt lat="47.5339" lon="-2.85198">
        <ele>-84.4</ele>
        <time>2021-08-05T14:02:41Z</time>
      </trkpt>
      <trkpt lat="47.53388" lon="-2.85192">
        <ele>-84.4</ele>
        <time>2021-08-05T14:02:42Z</time>
      </trkpt>
      <trkpt lat="47.53386" lon="-2.85186">
        <ele>-84.8</ele>
        <time>2021-08-05T14:02:43Z</time>
      </trkpt>
      <trkpt lat="47.53385" lon="-2.8518">
        <ele>-85</ele>
        <time>2021-08-05T14:02:44Z</time>
      </trkpt>
      <trkpt lat="47.53383" lon="-2.85175">
        <ele>-85</ele>
        <time>2021-08-05T14:02:45Z</time>
      </trkpt>
      <trkpt lat="47.53381" lon="-2.85169">
        <ele>-85.2</ele>
        <time>2021-08-05T14:02:46Z</time>
      </trkpt>
      <trkpt lat="47.53379" lon="-2.85163">
        <ele>-85.2</ele>
        <time>2021-08-05T14:02:47Z</time>
      </trkpt>
      <trkpt lat="47.53376" lon="-2.85157">
        <ele>-85.6</ele>
        <time>2021-08-05T14:02:48Z</time>
      </trkpt>
      <trkpt lat="47.53373" lon="-2.85152">
        <ele>-85.8</ele>
        <time>2021-08-05T14:02:49Z</time>
      </trkpt>
      <trkpt lat="47.5337" lon="-2.85147">
        <ele>-86</ele>
        <time>2021-08-05T14:02:50Z</time>
      </trkpt>
      <trkpt lat="47.53367" lon="-2.85143">
        <ele>-86.2</ele>
        <time>2021-08-05T14:02:51Z</time>
      </trkpt>
      <trkpt lat="47.53364" lon="-2.85139">
        <ele>-86.4</ele>
        <time>2021-08-05T14:02:52Z</time>
      </trkpt>
      <trkpt lat="47.53361" lon="-2.85136">
        <ele>-86.4</ele>
        <time>2021-08-05T14:02:53Z</time>
      </trkpt>
      <trkpt lat="47.53358" lon="-2.85134">
        <ele>-86.6</ele>
        <time>2021-08-05T14:02:54Z</time>
      </trkpt>
      <trkpt lat="47.53354" lon="-2.85131">
        <ele>-86.8</ele>
        <time>2021-08-05T14:02:55Z</time>
      </trkpt>
      <trkpt lat="47.53351" lon="-2.85128">
        <ele>-86.8</ele>
        <time>2021-08-05T14:02:56Z</time>
      </trkpt>
      <trkpt lat="47.53347" lon="-2.85125">
        <ele>-87</ele>
        <time>2021-08-05T14:02:57Z</time>
      </trkpt>
      <trkpt lat="47.53344" lon="-2.85121">
        <ele>-87.4</ele>
        <time>2021-08-05T14:02:58Z</time>
      </trkpt>
      <trkpt lat="47.5334" lon="-2.85118">
        <ele>-87.4</ele>
        <time>2021-08-05T14:02:59Z</time>
      </trkpt>
      <trkpt lat="47.53337" lon="-2.85115">
        <ele>-87.8</ele>
        <time>2021-08-05T14:03:00Z</time>
      </trkpt>
      <trkpt lat="47.53334" lon="-2.85111">
        <ele>-87.8</ele>
        <time>2021-08-05T14:03:01Z</time>
      </trkpt>
      <trkpt lat="47.53328" lon="-2.85104">
        <ele>-87.8</ele>
        <time>2021-08-05T14:03:03Z</time>
      </trkpt>
      <trkpt lat="47.53326" lon="-2.851">
        <ele>-88</ele>
        <time>2021-08-05T14:03:04Z</time>
      </trkpt>
      <trkpt lat="47.53324" lon="-2.85096">
        <ele>-88</ele>
        <time>2021-08-05T14:03:05Z</time>
      </trkpt>
      <trkpt lat="47.53322" lon="-2.85092">
        <ele>-88</ele>
        <time>2021-08-05T14:03:06Z</time>
      </trkpt>
      <trkpt lat="47.5332" lon="-2.85087">
        <ele>-88.2</ele>
        <time>2021-08-05T14:03:07Z</time>
      </trkpt>
      <trkpt lat="47.53319" lon="-2.85082">
        <ele>-88.4</ele>
        <time>2021-08-05T14:03:08Z</time>
      </trkpt>
      <trkpt lat="47.53317" lon="-2.85078">
        <ele>-88.4</ele>
        <time>2021-08-05T14:03:09Z</time>
      </trkpt>
      <trkpt lat="47.53316" lon="-2.85073">
        <ele>-88.6</ele>
        <time>2021-08-05T14:03:10Z</time>
      </trkpt>
      <trkpt lat="47.53314" lon="-2.85069">
        <ele>-88.8</ele>
        <time>2021-08-05T14:03:11Z</time>
      </trkpt>
      <trkpt lat="47.53313" lon="-2.85065">
        <ele>-88.8</ele>
        <time>2021-08-05T14:03:12Z</time>
      </trkpt>
      <trkpt lat="47.53311" lon="-2.8506">
        <ele>-89</ele>
        <time>2021-08-05T14:03:13Z</time>
      </trkpt>
      <trkpt lat="47.5331" lon="-2.85056">
        <ele>-89</ele>
        <time>2021-08-05T14:03:14Z</time>
      </trkpt>
      <trkpt lat="47.53308" lon="-2.85052">
        <ele>-89.2</ele>
        <time>2021-08-05T14:03:15Z</time>
      </trkpt>
      <trkpt lat="47.53306" lon="-2.85048">
        <ele>-89.4</ele>
        <time>2021-08-05T14:03:16Z</time>
      </trkpt>
      <trkpt lat="47.53305" lon="-2.85043">
        <ele>-89.4</ele>
        <time>2021-08-05T14:03:17Z</time>
      </trkpt>
      <trkpt lat="47.53304" lon="-2.85039">
        <ele>-89.6</ele>
        <time>2021-08-05T14:03:18Z</time>
      </trkpt>
      <trkpt lat="47.53302" lon="-2.85035">
        <ele>-89.8</ele>
        <time>2021-08-05T14:03:19Z</time>
      </trkpt>
      <trkpt lat="47.53301" lon="-2.8503">
        <ele>-90</ele>
        <time>2021-08-05T14:03:20Z</time>
      </trkpt>
      <trkpt lat="47.533" lon="-2.85026">
        <ele>-90.4</ele>
        <time>2021-08-05T14:03:21Z</time>
      </trkpt>
      <trkpt lat="47.53299" lon="-2.85022">
        <ele>-90.6</ele>
        <time>2021-08-05T14:03:22Z</time>
      </trkpt>
      <trkpt lat="47.53297" lon="-2.85018">
        <ele>-90.8</ele>
        <time>2021-08-05T14:03:23Z</time>
      </trkpt>
      <trkpt lat="47.53294" lon="-2.85015">
        <ele>-90.8</ele>
        <time>2021-08-05T14:03:24Z</time>
      </trkpt>
      <trkpt lat="47.53291" lon="-2.85012">
        <ele>-91</ele>
        <time>2021-08-05T14:03:25Z</time>
      </trkpt>
      <trkpt lat="47.53288" lon="-2.8501">
        <ele>-91.2</ele>
        <time>2021-08-05T14:03:26Z</time>
      </trkpt>
      <trkpt lat="47.53284" lon="-2.8501">
        <ele>-91.6</ele>
        <time>2021-08-05T14:03:27Z</time>
      </trkpt>
      <trkpt lat="47.5328" lon="-2.85009">
        <ele>-91.8</ele>
        <time>2021-08-05T14:03:28Z</time>
      </trkpt>
      <trkpt lat="47.53276" lon="-2.85009">
        <ele>-91.8</ele>
        <time>2021-08-05T14:03:29Z</time>
      </trkpt>
      <trkpt lat="47.53272" lon="-2.8501">
        <ele>-92</ele>
        <time>2021-08-05T14:03:30Z</time>
      </trkpt>
      <trkpt lat="47.5327" lon="-2.85013">
        <ele>-92.4</ele>
        <time>2021-08-05T14:03:31Z</time>
      </trkpt>
      <trkpt lat="47.53266" lon="-2.85016">
        <ele>-92.4</ele>
        <time>2021-08-05T14:03:32Z</time>
      </trkpt>
      <trkpt lat="47.53263" lon="-2.85018">
        <ele>-92.6</ele>
        <time>2021-08-05T14:03:33Z</time>
      </trkpt>
      <trkpt lat="47.5326" lon="-2.85019">
        <ele>-92.6</ele>
        <time>2021-08-05T14:03:34Z</time>
      </trkpt>
      <trkpt lat="47.53257" lon="-2.85021">
        <ele>-92.6</ele>
        <time>2021-08-05T14:03:35Z</time>
      </trkpt>
      <trkpt lat="47.53255" lon="-2.85023">
        <ele>-92.8</ele>
        <time>2021-08-05T14:03:36Z</time>
      </trkpt>
      <trkpt lat="47.53253" lon="-2.85025">
        <ele>-92.8</ele>
        <time>2021-08-05T14:03:37Z</time>
      </trkpt>
      <trkpt lat="47.53252" lon="-2.85027">
        <ele>-92.8</ele>
        <time>2021-08-05T14:03:38Z</time>
      </trkpt>
      <trkpt lat="47.53252" lon="-2.8503">
        <ele>-93</ele>
        <time>2021-08-05T14:03:39Z</time>
      </trkpt>
      <trkpt lat="47.53251" lon="-2.85033">
        <ele>-93</ele>
        <time>2021-08-05T14:03:40Z</time>
      </trkpt>
      <trkpt lat="47.53251" lon="-2.85037">
        <ele>-93</ele>
        <time>2021-08-05T14:03:41Z</time>
      </trkpt>
      <trkpt lat="47.53251" lon="-2.8504">
        <ele>-93</ele>
        <time>2021-08-05T14:03:42Z</time>
      </trkpt>
      <trkpt lat="47.53252" lon="-2.85045">
        <ele>-93.2</ele>
        <time>2021-08-05T14:03:43Z</time>
      </trkpt>
      <trkpt lat="47.53252" lon="-2.85049">
        <ele>-93.2</ele>
        <time>2021-08-05T14:03:44Z</time>
      </trkpt>
      <trkpt lat="47.53253" lon="-2.85053">
        <ele>-93.4</ele>
        <time>2021-08-05T14:03:45Z</time>
      </trkpt>
      <trkpt lat="47.53254" lon="-2.85057">
        <ele>-94</ele>
        <time>2021-08-05T14:03:46Z</time>
      </trkpt>
      <trkpt lat="47.53255" lon="-2.85062">
        <ele>-94.2</ele>
        <time>2021-08-05T14:03:47Z</time>
      </trkpt>
      <trkpt lat="47.53255" lon="-2.85067">
        <ele>-94.2</ele>
        <time>2021-08-05T14:03:48Z</time>
      </trkpt>
      <trkpt lat="47.53255" lon="-2.85072">
        <ele>-94.6</ele>
        <time>2021-08-05T14:03:49Z</time>
      </trkpt>
      <trkpt lat="47.53254" lon="-2.85076">
        <ele>-94.8</ele>
        <time>2021-08-05T14:03:50Z</time>
      </trkpt>
      <trkpt lat="47.53252" lon="-2.8508">
        <ele>-95</ele>
        <time>2021-08-05T14:03:51Z</time>
      </trkpt>
      <trkpt lat="47.53249" lon="-2.85082">
        <ele>-95.2</ele>
        <time>2021-08-05T14:03:52Z</time>
      </trkpt>
      <trkpt lat="47.53247" lon="-2.85083">
        <ele>-95.6</ele>
        <time>2021-08-05T14:03:53Z</time>
      </trkpt>
      <trkpt lat="47.53245" lon="-2.85081">
        <ele>-95.8</ele>
        <time>2021-08-05T14:03:54Z</time>
      </trkpt>
      <trkpt lat="47.53245" lon="-2.85078">
        <ele>-96.8</ele>
        <time>2021-08-05T14:03:55Z</time>
      </trkpt>
      <trkpt lat="47.53244" lon="-2.85074">
        <ele>-97</ele>
        <time>2021-08-05T14:03:56Z</time>
      </trkpt>
      <trkpt lat="47.53243" lon="-2.85071">
        <ele>-97.2</ele>
        <time>2021-08-05T14:03:57Z</time>
      </trkpt>
      <trkpt lat="47.53243" lon="-2.85067">
        <ele>-97.6</ele>
        <time>2021-08-05T14:03:58Z</time>
      </trkpt>
      <trkpt lat="47.53242" lon="-2.85063">
        <ele>-97.8</ele>
        <time>2021-08-05T14:03:59Z</time>
      </trkpt>
      <trkpt lat="47.53242" lon="-2.8506">
        <ele>-98</ele>
        <time>2021-08-05T14:04:00Z</time>
      </trkpt>
      <trkpt lat="47.53241" lon="-2.85056">
        <ele>-98.2</ele>
        <time>2021-08-05T14:04:01Z</time>
      </trkpt>
      <trkpt lat="47.53241" lon="-2.85052">
        <ele>-98.4</ele>
        <time>2021-08-05T14:04:02Z</time>
      </trkpt>
      <trkpt lat="47.5324" lon="-2.85048">
        <ele>-98.4</ele>
        <time>2021-08-05T14:04:03Z</time>
      </trkpt>
      <trkpt lat="47.53239" lon="-2.85045">
        <ele>-98.6</ele>
        <time>2021-08-05T14:04:04Z</time>
      </trkpt>
      <trkpt lat="47.53239" lon="-2.85041">
        <ele>-99.2</ele>
        <time>2021-08-05T14:04:05Z</time>
      </trkpt>
      <trkpt lat="47.53238" lon="-2.85037">
        <ele>-99.4</ele>
        <time>2021-08-05T14:04:06Z</time>
      </trkpt>
      <trkpt lat="47.53238" lon="-2.85033">
        <ele>-99.8</ele>
        <time>2021-08-05T14:04:07Z</time>
      </trkpt>
      <trkpt lat="47.53237" lon="-2.85029">
        <ele>-100.2</ele>
        <time>2021-08-05T14:04:08Z</time>
      </trkpt>
      <trkpt lat="47.53236" lon="-2.85025">
        <ele>-100.8</ele>
        <time>2021-08-05T14:04:09Z</time>
      </trkpt>
      <trkpt lat="47.53236" lon="-2.85021">
        <ele>-101.2</ele>
        <time>2021-08-05T14:04:10Z</time>
      </trkpt>
      <trkpt lat="47.53235" lon="-2.85017">
        <ele>-101.8</ele>
        <time>2021-08-05T14:04:11Z</time>
      </trkpt>
      <trkpt lat="47.53235" lon="-2.85013">
        <ele>-102.2</ele>
        <time>2021-08-05T14:04:12Z</time>
      </trkpt>
      <trkpt lat="47.53234" lon="-2.85009">
        <ele>-102.6</ele>
        <time>2021-08-05T14:04:13Z</time>
      </trkpt>
      <trkpt lat="47.53234" lon="-2.85005">
        <ele>-103</ele>
        <time>2021-08-05T14:04:14Z</time>
      </trkpt>
      <trkpt lat="47.53233" lon="-2.85001">
        <ele>-103.6</ele>
        <time>2021-08-05T14:04:15Z</time>
      </trkpt>
      <trkpt lat="47.53232" lon="-2.84997">
        <ele>-104</ele>
        <time>2021-08-05T14:04:16Z</time>
      </trkpt>
      <trkpt lat="47.53232" lon="-2.84993">
        <ele>-104.6</ele>
        <time>2021-08-05T14:04:17Z</time>
      </trkpt>
      <trkpt lat="47.53231" lon="-2.84989">
        <ele>-105.2</ele>
        <time>2021-08-05T14:04:18Z</time>
      </trkpt>
      <trkpt lat="47.53231" lon="-2.84985">
        <ele>-105.6</ele>
        <time>2021-08-05T14:04:19Z</time>
      </trkpt>
      <trkpt lat="47.5323" lon="-2.84981">
        <ele>-106</ele>
        <time>2021-08-05T14:04:20Z</time>
      </trkpt>
      <trkpt lat="47.5323" lon="-2.84977">
        <ele>-106.2</ele>
        <time>2021-08-05T14:04:21Z</time>
      </trkpt>
      <trkpt lat="47.53229" lon="-2.84973">
        <ele>-107</ele>
        <time>2021-08-05T14:04:22Z</time>
      </trkpt>
      <trkpt lat="47.53229" lon="-2.84968">
        <ele>-107.4</ele>
        <time>2021-08-05T14:04:23Z</time>
      </trkpt>
      <trkpt lat="47.53228" lon="-2.84964">
        <ele>-108.2</ele>
        <time>2021-08-05T14:04:24Z</time>
      </trkpt>
      <trkpt lat="47.53228" lon="-2.8496">
        <ele>-108.6</ele>
        <time>2021-08-05T14:04:25Z</time>
      </trkpt>
      <trkpt lat="47.53227" lon="-2.84955">
        <ele>-109</ele>
        <time>2021-08-05T14:04:26Z</time>
      </trkpt>
      <trkpt lat="47.53226" lon="-2.84951">
        <ele>-109.6</ele>
        <time>2021-08-05T14:04:27Z</time>
      </trkpt>
      <trkpt lat="47.53226" lon="-2.84947">
        <ele>-110</ele>
        <time>2021-08-05T14:04:28Z</time>
      </trkpt>
      <trkpt lat="47.53225" lon="-2.84942">
        <ele>-110.4</ele>
        <time>2021-08-05T14:04:29Z</time>
      </trkpt>
      <trkpt lat="47.53224" lon="-2.84938">
        <ele>-111</ele>
        <time>2021-08-05T14:04:30Z</time>
      </trkpt>
      <trkpt lat="47.53224" lon="-2.84933">
        <ele>-111.4</ele>
        <time>2021-08-05T14:04:31Z</time>
      </trkpt>
      <trkpt lat="47.53223" lon="-2.84928">
        <ele>-112.2</ele>
        <time>2021-08-05T14:04:32Z</time>
      </trkpt>
      <trkpt lat="47.53222" lon="-2.84923">
        <ele>-112.6</ele>
        <time>2021-08-05T14:04:33Z</time>
      </trkpt>
      <trkpt lat="47.53221" lon="-2.84919">
        <ele>-113</ele>
        <time>2021-08-05T14:04:34Z</time>
      </trkpt>
      <trkpt lat="47.53221" lon="-2.84914">
        <ele>-113.4</ele>
        <time>2021-08-05T14:04:35Z</time>
      </trkpt>
      <trkpt lat="47.5322" lon="-2.84909">
        <ele>-113.8</ele>
        <time>2021-08-05T14:04:36Z</time>
      </trkpt>
      <trkpt lat="47.53219" lon="-2.84904">
        <ele>-114.4</ele>
        <time>2021-08-05T14:04:37Z</time>
      </trkpt>
      <trkpt lat="47.53218" lon="-2.84899">
        <ele>-114.8</ele>
        <time>2021-08-05T14:04:38Z</time>
      </trkpt>
      <trkpt lat="47.53218" lon="-2.84894">
        <ele>-115.2</ele>
        <time>2021-08-05T14:04:39Z</time>
      </trkpt>
      <trkpt lat="47.53217" lon="-2.84889">
        <ele>-115.6</ele>
        <time>2021-08-05T14:04:40Z</time>
      </trkpt>
      <trkpt lat="47.53216" lon="-2.84884">
        <ele>-116.2</ele>
        <time>2021-08-05T14:04:41Z</time>
      </trkpt>
      <trkpt lat="47.53216" lon="-2.84879">
        <ele>-116.6</ele>
        <time>2021-08-05T14:04:42Z</time>
      </trkpt>
      <trkpt lat="47.53215" lon="-2.84875">
        <ele>-117</ele>
        <time>2021-08-05T14:04:43Z</time>
      </trkpt>
      <trkpt lat="47.53213" lon="-2.8487">
        <ele>-117.2</ele>
        <time>2021-08-05T14:04:44Z</time>
      </trkpt>
      <trkpt lat="47.53211" lon="-2.84866">
        <ele>-117.4</ele>
        <time>2021-08-05T14:04:45Z</time>
      </trkpt>
      <trkpt lat="47.53208" lon="-2.84863">
        <ele>-118</ele>
        <time>2021-08-05T14:04:46Z</time>
      </trkpt>
      <trkpt lat="47.53206" lon="-2.84861">
        <ele>-118.4</ele>
        <time>2021-08-05T14:04:47Z</time>
      </trkpt>
      <trkpt lat="47.53203" lon="-2.8486">
        <ele>-118.8</ele>
        <time>2021-08-05T14:04:48Z</time>
      </trkpt>
      <trkpt lat="47.532" lon="-2.84859">
        <ele>-119.6</ele>
        <time>2021-08-05T14:04:49Z</time>
      </trkpt>
      <trkpt lat="47.53197" lon="-2.84858">
        <ele>-119.8</ele>
        <time>2021-08-05T14:04:50Z</time>
      </trkpt>
      <trkpt lat="47.53194" lon="-2.84857">
        <ele>-120</ele>
        <time>2021-08-05T14:04:51Z</time>
      </trkpt>
      <trkpt lat="47.53192" lon="-2.84856">
        <ele>-120.4</ele>
        <time>2021-08-05T14:04:52Z</time>
      </trkpt>
      <trkpt lat="47.53189" lon="-2.84856">
        <ele>-120.8</ele>
        <time>2021-08-05T14:04:53Z</time>
      </trkpt>
      <trkpt lat="47.53187" lon="-2.84856">
        <ele>-121.2</ele>
        <time>2021-08-05T14:04:54Z</time>
      </trkpt>
      <trkpt lat="47.53185" lon="-2.84855">
        <ele>-121.4</ele>
        <time>2021-08-05T14:04:55Z</time>
      </trkpt>
      <trkpt lat="47.53182" lon="-2.84855">
        <ele>-121.6</ele>
        <time>2021-08-05T14:04:56Z</time>
      </trkpt>
      <trkpt lat="47.5318" lon="-2.84855">
        <ele>-121.8</ele>
        <time>2021-08-05T14:04:57Z</time>
      </trkpt>
      <trkpt lat="47.53178" lon="-2.84855">
        <ele>-122.2</ele>
        <time>2021-08-05T14:04:58Z</time>
      </trkpt>
      <trkpt lat="47.53175" lon="-2.84854">
        <ele>-122.4</ele>
        <time>2021-08-05T14:04:59Z</time>
      </trkpt>
      <trkpt lat="47.53173" lon="-2.84854">
        <ele>-122.6</ele>
        <time>2021-08-05T14:05:00Z</time>
      </trkpt>
      <trkpt lat="47.53171" lon="-2.84853">
        <ele>-122.8</ele>
        <time>2021-08-05T14:05:01Z</time>
      </trkpt>
      <trkpt lat="47.53169" lon="-2.84853">
        <ele>-122.8</ele>
        <time>2021-08-05T14:05:02Z</time>
      </trkpt>
      <trkpt lat="47.53166" lon="-2.84853">
        <ele>-123.2</ele>
        <time>2021-08-05T14:05:03Z</time>
      </trkpt>
      <trkpt lat="47.53164" lon="-2.84853">
        <ele>-123.2</ele>
        <time>2021-08-05T14:05:04Z</time>
      </trkpt>
      <trkpt lat="47.53161" lon="-2.84853">
        <ele>-123.4</ele>
        <time>2021-08-05T14:05:05Z</time>
      </trkpt>
      <trkpt lat="47.53159" lon="-2.84853">
        <ele>-123.4</ele>
        <time>2021-08-05T14:05:06Z</time>
      </trkpt>
      <trkpt lat="47.53156" lon="-2.84853">
        <ele>-123.4</ele>
        <time>2021-08-05T14:05:07Z</time>
      </trkpt>
      <trkpt lat="47.53154" lon="-2.84853">
        <ele>-123.6</ele>
        <time>2021-08-05T14:05:08Z</time>
      </trkpt>
      <trkpt lat="47.53151" lon="-2.84854">
        <ele>-123.8</ele>
        <time>2021-08-05T14:05:09Z</time>
      </trkpt>
      <trkpt lat="47.53148" lon="-2.84854">
        <ele>-123.8</ele>
        <time>2021-08-05T14:05:10Z</time>
      </trkpt>
      <trkpt lat="47.53146" lon="-2.84854">
        <ele>-123.8</ele>
        <time>2021-08-05T14:05:11Z</time>
      </trkpt>
      <trkpt lat="47.53142" lon="-2.84854">
        <ele>-124</ele>
        <time>2021-08-05T14:05:12Z</time>
      </trkpt>
      <trkpt lat="47.53139" lon="-2.84854">
        <ele>-124</ele>
        <time>2021-08-05T14:05:13Z</time>
      </trkpt>
      <trkpt lat="47.53136" lon="-2.84855">
        <ele>-124</ele>
        <time>2021-08-05T14:05:14Z</time>
      </trkpt>
      <trkpt lat="47.53132" lon="-2.84855">
        <ele>-124</ele>
        <time>2021-08-05T14:05:15Z</time>
      </trkpt>
      <trkpt lat="47.53129" lon="-2.84854">
        <ele>-124.2</ele>
        <time>2021-08-05T14:05:16Z</time>
      </trkpt>
      <trkpt lat="47.53125" lon="-2.84854">
        <ele>-124.2</ele>
        <time>2021-08-05T14:05:17Z</time>
      </trkpt>
      <trkpt lat="47.53122" lon="-2.84854">
        <ele>-124.2</ele>
        <time>2021-08-05T14:05:18Z</time>
      </trkpt>
      <trkpt lat="47.53118" lon="-2.84854">
        <ele>-124.2</ele>
        <time>2021-08-05T14:05:19Z</time>
      </trkpt>
      <trkpt lat="47.53115" lon="-2.84853">
        <ele>-124.2</ele>
        <time>2021-08-05T14:05:20Z</time>
      </trkpt>
      <trkpt lat="47.53111" lon="-2.84853">
        <ele>-124.4</ele>
        <time>2021-08-05T14:05:21Z</time>
      </trkpt>
      <trkpt lat="47.53108" lon="-2.84853">
        <ele>-124.4</ele>
        <time>2021-08-05T14:05:22Z</time>
      </trkpt>
      <trkpt lat="47.53104" lon="-2.84853">
        <ele>-124.4</ele>
        <time>2021-08-05T14:05:23Z</time>
      </trkpt>
      <trkpt lat="47.531" lon="-2.84853">
        <ele>-124.4</ele>
        <time>2021-08-05T14:05:24Z</time>
      </trkpt>
      <trkpt lat="47.53097" lon="-2.84853">
        <ele>-124.4</ele>
        <time>2021-08-05T14:05:25Z</time>
      </trkpt>
      <trkpt lat="47.53093" lon="-2.84852">
        <ele>-124.6</ele>
        <time>2021-08-05T14:05:26Z</time>
      </trkpt>
      <trkpt lat="47.53089" lon="-2.84852">
        <ele>-124.6</ele>
        <time>2021-08-05T14:05:27Z</time>
      </trkpt>
      <trkpt lat="47.53085" lon="-2.84851">
        <ele>-124.6</ele>
        <time>2021-08-05T14:05:28Z</time>
      </trkpt>
      <trkpt lat="47.5308" lon="-2.8485">
        <ele>-124.6</ele>
        <time>2021-08-05T14:05:29Z</time>
      </trkpt>
      <trkpt lat="47.53076" lon="-2.84849">
        <ele>-124.4</ele>
        <time>2021-08-05T14:05:30Z</time>
      </trkpt>
      <trkpt lat="47.53072" lon="-2.84848">
        <ele>-124.4</ele>
        <time>2021-08-05T14:05:31Z</time>
      </trkpt>
      <trkpt lat="47.53068" lon="-2.84846">
        <ele>-124.4</ele>
        <time>2021-08-05T14:05:32Z</time>
      </trkpt>
      <trkpt lat="47.53064" lon="-2.84845">
        <ele>-124.4</ele>
        <time>2021-08-05T14:05:33Z</time>
      </trkpt>
      <trkpt lat="47.53059" lon="-2.84843">
        <ele>-124.6</ele>
        <time>2021-08-05T14:05:34Z</time>
      </trkpt>
      <trkpt lat="47.53054" lon="-2.84842">
        <ele>-124.4</ele>
        <time>2021-08-05T14:05:35Z</time>
      </trkpt>
      <trkpt lat="47.53049" lon="-2.8484">
        <ele>-124.2</ele>
        <time>2021-08-05T14:05:36Z</time>
      </trkpt>
      <trkpt lat="47.53044" lon="-2.84839">
        <ele>-124.4</ele>
        <time>2021-08-05T14:05:37Z</time>
      </trkpt>
      <trkpt lat="47.53038" lon="-2.84837">
        <ele>-124.2</ele>
        <time>2021-08-05T14:05:38Z</time>
      </trkpt>
      <trkpt lat="47.53033" lon="-2.84835">
        <ele>-124.2</ele>
        <time>2021-08-05T14:05:39Z</time>
      </trkpt>
      <trkpt lat="47.53027" lon="-2.84833">
        <ele>-124.2</ele>
        <time>2021-08-05T14:05:40Z</time>
      </trkpt>
      <trkpt lat="47.53021" lon="-2.84831">
        <ele>-124.2</ele>
        <time>2021-08-05T14:05:41Z</time>
      </trkpt>
      <trkpt lat="47.53016" lon="-2.8483">
        <ele>-124.2</ele>
        <time>2021-08-05T14:05:42Z</time>
      </trkpt>
      <trkpt lat="47.5301" lon="-2.84828">
        <ele>-124.2</ele>
        <time>2021-08-05T14:05:43Z</time>
      </trkpt>
      <trkpt lat="47.53004" lon="-2.84826">
        <ele>-124.2</ele>
        <time>2021-08-05T14:05:44Z</time>
      </trkpt>
      <trkpt lat="47.52998" lon="-2.84824">
        <ele>-124.2</ele>
        <time>2021-08-05T14:05:45Z</time>
      </trkpt>
      <trkpt lat="47.52992" lon="-2.84822">
        <ele>-124.2</ele>
        <time>2021-08-05T14:05:46Z</time>
      </trkpt>
      <trkpt lat="47.52987" lon="-2.8482">
        <ele>-124.2</ele>
        <time>2021-08-05T14:05:47Z</time>
      </trkpt>
      <trkpt lat="47.52981" lon="-2.84817">
        <ele>-124.2</ele>
        <time>2021-08-05T14:05:48Z</time>
      </trkpt>
      <trkpt lat="47.52975" lon="-2.84814">
        <ele>-124.2</ele>
        <time>2021-08-05T14:05:49Z</time>
      </trkpt>
      <trkpt lat="47.52969" lon="-2.84811">
        <ele>-124.2</ele>
        <time>2021-08-05T14:05:50Z</time>
      </trkpt>
      <trkpt lat="47.52963" lon="-2.84809">
        <ele>-124.2</ele>
        <time>2021-08-05T14:05:51Z</time>
      </trkpt>
      <trkpt lat="47.52958" lon="-2.84805">
        <ele>-124.2</ele>
        <time>2021-08-05T14:05:52Z</time>
      </trkpt>
      <trkpt lat="47.52952" lon="-2.84802">
        <ele>-124.2</ele>
        <time>2021-08-05T14:05:53Z</time>
      </trkpt>
      <trkpt lat="47.52946" lon="-2.848">
        <ele>-124.2</ele>
        <time>2021-08-05T14:05:54Z</time>
      </trkpt>
      <trkpt lat="47.5294" lon="-2.84796">
        <ele>-124.2</ele>
        <time>2021-08-05T14:05:55Z</time>
      </trkpt>
      <trkpt lat="47.52935" lon="-2.84793">
        <ele>-124.4</ele>
        <time>2021-08-05T14:05:56Z</time>
      </trkpt>
      <trkpt lat="47.52929" lon="-2.8479">
        <ele>-124.2</ele>
        <time>2021-08-05T14:05:57Z</time>
      </trkpt>
      <trkpt lat="47.52923" lon="-2.84786">
        <ele>-124.2</ele>
        <time>2021-08-05T14:05:58Z</time>
      </trkpt>
      <trkpt lat="47.52917" lon="-2.84784">
        <ele>-124.4</ele>
        <time>2021-08-05T14:05:59Z</time>
      </trkpt>
      <trkpt lat="47.52911" lon="-2.84781">
        <ele>-124.4</ele>
        <time>2021-08-05T14:06:00Z</time>
      </trkpt>
      <trkpt lat="47.52905" lon="-2.84778">
        <ele>-124.4</ele>
        <time>2021-08-05T14:06:01Z</time>
      </trkpt>
      <trkpt lat="47.52899" lon="-2.84774">
        <ele>-124.2</ele>
        <time>2021-08-05T14:06:02Z</time>
      </trkpt>
      <trkpt lat="47.52894" lon="-2.8477">
        <ele>-124.2</ele>
        <time>2021-08-05T14:06:03Z</time>
      </trkpt>
      <trkpt lat="47.52889" lon="-2.84766">
        <ele>-124.2</ele>
        <time>2021-08-05T14:06:04Z</time>
      </trkpt>
      <trkpt lat="47.52884" lon="-2.84763">
        <ele>-123.8</ele>
        <time>2021-08-05T14:06:05Z</time>
      </trkpt>
      <trkpt lat="47.52845" lon="-2.8478">
        <ele>6</ele>
        <time>2021-08-06T09:00:21Z</time>
      </trkpt>
      <trkpt lat="47.52845" lon="-2.84777">
        <ele>5.8</ele>
        <time>2021-08-06T09:00:22Z</time>
      </trkpt>
      <trkpt lat="47.52843" lon="-2.84774">
        <ele>5.8</ele>
        <time>2021-08-06T09:00:23Z</time>
      </trkpt>
      <trkpt lat="47.52842" lon="-2.8477">
        <ele>5.6</ele>
        <time>2021-08-06T09:00:24Z</time>
      </trkpt>
      <trkpt lat="47.52839" lon="-2.84766">
        <ele>5.6</ele>
        <time>2021-08-06T09:00:25Z</time>
      </trkpt>
      <trkpt lat="47.52837" lon="-2.84763">
        <ele>5.4</ele>
        <time>2021-08-06T09:00:26Z</time>
      </trkpt>
      <trkpt lat="47.52855" lon="-2.84749">
        <ele>5.2</ele>
        <time>2021-08-06T09:00:27Z</time>
      </trkpt>
      <trkpt lat="47.52855" lon="-2.84749">
        <ele>5.2</ele>
        <time>2021-08-06T09:00:28Z</time>
      </trkpt>
      <trkpt lat="47.52852" lon="-2.84744">
        <ele>5.4</ele>
        <time>2021-08-06T09:00:29Z</time>
      </trkpt>
      <trkpt lat="47.5285" lon="-2.84741">
        <ele>5.6</ele>
        <time>2021-08-06T09:00:30Z</time>
      </trkpt>
      <trkpt lat="47.52848" lon="-2.84736">
        <ele>5.6</ele>
        <time>2021-08-06T09:00:31Z</time>
      </trkpt>
      <trkpt lat="47.52845" lon="-2.84732">
        <ele>5.6</ele>
        <time>2021-08-06T09:00:32Z</time>
      </trkpt>
      <trkpt lat="47.52842" lon="-2.8473">
        <ele>5.4</ele>
        <time>2021-08-06T09:00:33Z</time>
      </trkpt>
      <trkpt lat="47.52838" lon="-2.84727">
        <ele>5.4</ele>
        <time>2021-08-06T09:00:34Z</time>
      </trkpt>
      <trkpt lat="47.52834" lon="-2.84724">
        <ele>5.2</ele>
        <time>2021-08-06T09:00:35Z</time>
      </trkpt>
      <trkpt lat="47.5283" lon="-2.84721">
        <ele>5.2</ele>
        <time>2021-08-06T09:00:36Z</time>
      </trkpt>
      <trkpt lat="47.52826" lon="-2.84718">
        <ele>5.2</ele>
        <time>2021-08-06T09:00:37Z</time>
      </trkpt>
      <trkpt lat="47.52821" lon="-2.84716">
        <ele>5</ele>
        <time>2021-08-06T09:00:38Z</time>
      </trkpt>
      <trkpt lat="47.52817" lon="-2.84712">
        <ele>5</ele>
        <time>2021-08-06T09:00:39Z</time>
      </trkpt>
      <trkpt lat="47.52812" lon="-2.84709">
        <ele>5</ele>
        <time>2021-08-06T09:00:40Z</time>
      </trkpt>
      <trkpt lat="47.52807" lon="-2.84704">
        <ele>4.8</ele>
        <time>2021-08-06T09:00:41Z</time>
      </trkpt>
      <trkpt lat="47.52803" lon="-2.847">
        <ele>4.6</ele>
        <time>2021-08-06T09:00:42Z</time>
      </trkpt>
      <trkpt lat="47.52798" lon="-2.84696">
        <ele>4.4</ele>
        <time>2021-08-06T09:00:43Z</time>
      </trkpt>
      <trkpt lat="47.52793" lon="-2.84692">
        <ele>4.2</ele>
        <time>2021-08-06T09:00:44Z</time>
      </trkpt>
      <trkpt lat="47.52788" lon="-2.84688">
        <ele>3.8</ele>
        <time>2021-08-06T09:00:45Z</time>
      </trkpt>
      <trkpt lat="47.52784" lon="-2.84683">
        <ele>3.6</ele>
        <time>2021-08-06T09:00:46Z</time>
      </trkpt>
      <trkpt lat="47.52779" lon="-2.84677">
        <ele>3.4</ele>
        <time>2021-08-06T09:00:47Z</time>
      </trkpt>
      <trkpt lat="47.52775" lon="-2.84671">
        <ele>3.2</ele>
        <time>2021-08-06T09:00:48Z</time>
      </trkpt>
      <trkpt lat="47.5277" lon="-2.84666">
        <ele>3</ele>
        <time>2021-08-06T09:00:49Z</time>
      </trkpt>
      <trkpt lat="47.52766" lon="-2.84661">
        <ele>3</ele>
        <time>2021-08-06T09:00:50Z</time>
      </trkpt>
      <trkpt lat="47.52761" lon="-2.84655">
        <ele>2.8</ele>
        <time>2021-08-06T09:00:51Z</time>
      </trkpt>
      <trkpt lat="47.52757" lon="-2.84649">
        <ele>2.8</ele>
        <time>2021-08-06T09:00:52Z</time>
      </trkpt>
      <trkpt lat="47.52752" lon="-2.84643">
        <ele>2.8</ele>
        <time>2021-08-06T09:00:53Z</time>
      </trkpt>
      <trkpt lat="47.52748" lon="-2.84636">
        <ele>2.6</ele>
        <time>2021-08-06T09:00:54Z</time>
      </trkpt>
      <trkpt lat="47.52744" lon="-2.8463">
        <ele>2.4</ele>
        <time>2021-08-06T09:00:55Z</time>
      </trkpt>
      <trkpt lat="47.52739" lon="-2.84624">
        <ele>2.4</ele>
        <time>2021-08-06T09:00:56Z</time>
      </trkpt>
      <trkpt lat="47.52734" lon="-2.84617">
        <ele>2.4</ele>
        <time>2021-08-06T09:00:57Z</time>
      </trkpt>
      <trkpt lat="47.5273" lon="-2.84611">
        <ele>2.2</ele>
        <time>2021-08-06T09:00:58Z</time>
      </trkpt>
      <trkpt lat="47.52724" lon="-2.84606">
        <ele>2.2</ele>
        <time>2021-08-06T09:00:59Z</time>
      </trkpt>
      <trkpt lat="47.52719" lon="-2.846">
        <ele>2.2</ele>
        <time>2021-08-06T09:01:00Z</time>
      </trkpt>
      <trkpt lat="47.52714" lon="-2.84596">
        <ele>2.2</ele>
        <time>2021-08-06T09:01:01Z</time>
      </trkpt>
      <trkpt lat="47.52708" lon="-2.84592">
        <ele>2.2</ele>
        <time>2021-08-06T09:01:02Z</time>
      </trkpt>
      <trkpt lat="47.52702" lon="-2.84589">
        <ele>2.2</ele>
        <time>2021-08-06T09:01:03Z</time>
      </trkpt>
      <trkpt lat="47.52696" lon="-2.84585">
        <ele>2.2</ele>
        <time>2021-08-06T09:01:04Z</time>
      </trkpt>
      <trkpt lat="47.5269" lon="-2.84582">
        <ele>2.2</ele>
        <time>2021-08-06T09:01:05Z</time>
      </trkpt>
      <trkpt lat="47.52684" lon="-2.8458">
        <ele>2.2</ele>
        <time>2021-08-06T09:01:06Z</time>
      </trkpt>
      <trkpt lat="47.52678" lon="-2.84578">
        <ele>2.2</ele>
        <time>2021-08-06T09:01:07Z</time>
      </trkpt>
      <trkpt lat="47.52672" lon="-2.84577">
        <ele>2.2</ele>
        <time>2021-08-06T09:01:08Z</time>
      </trkpt>
      <trkpt lat="47.52666" lon="-2.84576">
        <ele>2.2</ele>
        <time>2021-08-06T09:01:09Z</time>
      </trkpt>
      <trkpt lat="47.5266" lon="-2.84575">
        <ele>2.2</ele>
        <time>2021-08-06T09:01:10Z</time>
      </trkpt>
      <trkpt lat="47.52654" lon="-2.84574">
        <ele>2.2</ele>
        <time>2021-08-06T09:01:11Z</time>
      </trkpt>
      <trkpt lat="47.52648" lon="-2.84574">
        <ele>2.2</ele>
        <time>2021-08-06T09:01:12Z</time>
      </trkpt>
      <trkpt lat="47.52642" lon="-2.84572">
        <ele>2.4</ele>
        <time>2021-08-06T09:01:13Z</time>
      </trkpt>
      <trkpt lat="47.52636" lon="-2.84571">
        <ele>2.4</ele>
        <time>2021-08-06T09:01:14Z</time>
      </trkpt>
      <trkpt lat="47.5263" lon="-2.84571">
        <ele>2.4</ele>
        <time>2021-08-06T09:01:15Z</time>
      </trkpt>
      <trkpt lat="47.52625" lon="-2.84571">
        <ele>2.4</ele>
        <time>2021-08-06T09:01:16Z</time>
      </trkpt>
      <trkpt lat="47.52619" lon="-2.8457">
        <ele>2.4</ele>
        <time>2021-08-06T09:01:17Z</time>
      </trkpt>
      <trkpt lat="47.52614" lon="-2.84569">
        <ele>2.6</ele>
        <time>2021-08-06T09:01:18Z</time>
      </trkpt>
      <trkpt lat="47.52609" lon="-2.84568">
        <ele>2.4</ele>
        <time>2021-08-06T09:01:19Z</time>
      </trkpt>
      <trkpt lat="47.52604" lon="-2.84568">
        <ele>2.4</ele>
        <time>2021-08-06T09:01:20Z</time>
      </trkpt>
      <trkpt lat="47.526" lon="-2.84568">
        <ele>2.4</ele>
        <time>2021-08-06T09:01:21Z</time>
      </trkpt>
      <trkpt lat="47.52596" lon="-2.84568">
        <ele>2.6</ele>
        <time>2021-08-06T09:01:22Z</time>
      </trkpt>
      <trkpt lat="47.52592" lon="-2.84569">
        <ele>2.8</ele>
        <time>2021-08-06T09:01:23Z</time>
      </trkpt>
      <trkpt lat="47.52589" lon="-2.8457">
        <ele>3</ele>
        <time>2021-08-06T09:01:24Z</time>
      </trkpt>
      <trkpt lat="47.52585" lon="-2.8457">
        <ele>3</ele>
        <time>2021-08-06T09:01:25Z</time>
      </trkpt>
      <trkpt lat="47.52582" lon="-2.84569">
        <ele>3.2</ele>
        <time>2021-08-06T09:01:26Z</time>
      </trkpt>
      <trkpt lat="47.52579" lon="-2.84568">
        <ele>3.8</ele>
        <time>2021-08-06T09:01:27Z</time>
      </trkpt>
      <trkpt lat="47.52576" lon="-2.84567">
        <ele>4.2</ele>
        <time>2021-08-06T09:01:28Z</time>
      </trkpt>
      <trkpt lat="47.52573" lon="-2.84566">
        <ele>4.4</ele>
        <time>2021-08-06T09:01:29Z</time>
      </trkpt>
      <trkpt lat="47.52571" lon="-2.84563">
        <ele>4.6</ele>
        <time>2021-08-06T09:01:30Z</time>
      </trkpt>
      <trkpt lat="47.5257" lon="-2.8456">
        <ele>4.8</ele>
        <time>2021-08-06T09:01:31Z</time>
      </trkpt>
      <trkpt lat="47.5257" lon="-2.84556">
        <ele>4.8</ele>
        <time>2021-08-06T09:01:32Z</time>
      </trkpt>
      <trkpt lat="47.52571" lon="-2.84553">
        <ele>4.8</ele>
        <time>2021-08-06T09:01:33Z</time>
      </trkpt>
      <trkpt lat="47.52572" lon="-2.84549">
        <ele>5</ele>
        <time>2021-08-06T09:01:34Z</time>
      </trkpt>
      <trkpt lat="47.52573" lon="-2.84545">
        <ele>5</ele>
        <time>2021-08-06T09:01:35Z</time>
      </trkpt>
      <trkpt lat="47.52574" lon="-2.84541">
        <ele>5</ele>
        <time>2021-08-06T09:01:36Z</time>
      </trkpt>
      <trkpt lat="47.52576" lon="-2.84538">
        <ele>5.2</ele>
        <time>2021-08-06T09:01:37Z</time>
      </trkpt>
      <trkpt lat="47.52577" lon="-2.84534">
        <ele>5.2</ele>
        <time>2021-08-06T09:01:38Z</time>
      </trkpt>
      <trkpt lat="47.52577" lon="-2.84531">
        <ele>5.2</ele>
        <time>2021-08-06T09:01:39Z</time>
      </trkpt>
      <trkpt lat="47.52578" lon="-2.84527">
        <ele>5.2</ele>
        <time>2021-08-06T09:01:40Z</time>
      </trkpt>
      <trkpt lat="47.52579" lon="-2.84523">
        <ele>5.2</ele>
        <time>2021-08-06T09:01:41Z</time>
      </trkpt>
      <trkpt lat="47.52579" lon="-2.84519">
        <ele>5.2</ele>
        <time>2021-08-06T09:01:42Z</time>
      </trkpt>
      <trkpt lat="47.5258" lon="-2.84516">
        <ele>5.4</ele>
        <time>2021-08-06T09:01:43Z</time>
      </trkpt>
      <trkpt lat="47.5258" lon="-2.84513">
        <ele>5.4</ele>
        <time>2021-08-06T09:01:44Z</time>
      </trkpt>
      <trkpt lat="47.52579" lon="-2.8451">
        <ele>5.4</ele>
        <time>2021-08-06T09:01:45Z</time>
      </trkpt>
      <trkpt lat="47.52579" lon="-2.84507">
        <ele>5.4</ele>
        <time>2021-08-06T09:01:46Z</time>
      </trkpt>
      <trkpt lat="47.52579" lon="-2.84505">
        <ele>5.6</ele>
        <time>2021-08-06T09:01:47Z</time>
      </trkpt>
      <trkpt lat="47.52578" lon="-2.84503">
        <ele>5.6</ele>
        <time>2021-08-06T09:01:48Z</time>
      </trkpt>
      <trkpt lat="47.52578" lon="-2.84502">
        <ele>5.6</ele>
        <time>2021-08-06T09:01:49Z</time>
      </trkpt>
      <trkpt lat="47.52578" lon="-2.845">
        <ele>5.6</ele>
        <time>2021-08-06T09:01:50Z</time>
      </trkpt>
      <trkpt lat="47.52577" lon="-2.84499">
        <ele>5.6</ele>
        <time>2021-08-06T09:01:51Z</time>
      </trkpt>
      <trkpt lat="47.52577" lon="-2.84495">
        <ele>5.8</ele>
        <time>2021-08-06T09:01:54Z</time>
      </trkpt>
      <trkpt lat="47.52577" lon="-2.84493">
        <ele>5.8</ele>
        <time>2021-08-06T09:01:55Z</time>
      </trkpt>
      <trkpt lat="47.52577" lon="-2.84491">
        <ele>5.8</ele>
        <time>2021-08-06T09:01:56Z</time>
      </trkpt>
      <trkpt lat="47.52577" lon="-2.84489">
        <ele>6</ele>
        <time>2021-08-06T09:01:57Z</time>
      </trkpt>
      <trkpt lat="47.52577" lon="-2.84486">
        <ele>6</ele>
        <time>2021-08-06T09:01:58Z</time>
      </trkpt>
      <trkpt lat="47.52578" lon="-2.84483">
        <ele>6.2</ele>
        <time>2021-08-06T09:01:59Z</time>
      </trkpt>
      <trkpt lat="47.5258" lon="-2.84481">
        <ele>6.2</ele>
        <time>2021-08-06T09:02:00Z</time>
      </trkpt>
      <trkpt lat="47.52582" lon="-2.84478">
        <ele>6.2</ele>
        <time>2021-08-06T09:02:01Z</time>
      </trkpt>
      <trkpt lat="47.52584" lon="-2.84475">
        <ele>6.2</ele>
        <time>2021-08-06T09:02:02Z</time>
      </trkpt>
      <trkpt lat="47.52587" lon="-2.84472">
        <ele>6.2</ele>
        <time>2021-08-06T09:02:03Z</time>
      </trkpt>
      <trkpt lat="47.5259" lon="-2.84468">
        <ele>6.2</ele>
        <time>2021-08-06T09:02:04Z</time>
      </trkpt>
      <trkpt lat="47.52593" lon="-2.84465">
        <ele>6.2</ele>
        <time>2021-08-06T09:02:05Z</time>
      </trkpt>
      <trkpt lat="47.52596" lon="-2.8446">
        <ele>6.2</ele>
        <time>2021-08-06T09:02:06Z</time>
      </trkpt>
      <trkpt lat="47.52598" lon="-2.84454">
        <ele>6.2</ele>
        <time>2021-08-06T09:02:07Z</time>
      </trkpt>
      <trkpt lat="47.526" lon="-2.84449">
        <ele>6.2</ele>
        <time>2021-08-06T09:02:08Z</time>
      </trkpt>
      <trkpt lat="47.52601" lon="-2.84442">
        <ele>6.2</ele>
        <time>2021-08-06T09:02:09Z</time>
      </trkpt>
      <trkpt lat="47.52602" lon="-2.84437">
        <ele>6</ele>
        <time>2021-08-06T09:02:10Z</time>
      </trkpt>
      <trkpt lat="47.52603" lon="-2.84431">
        <ele>6</ele>
        <time>2021-08-06T09:02:11Z</time>
      </trkpt>
      <trkpt lat="47.52604" lon="-2.84425">
        <ele>6</ele>
        <time>2021-08-06T09:02:12Z</time>
      </trkpt>
      <trkpt lat="47.52604" lon="-2.84419">
        <ele>6</ele>
        <time>2021-08-06T09:02:13Z</time>
      </trkpt>
      <trkpt lat="47.52605" lon="-2.84414">
        <ele>6</ele>
        <time>2021-08-06T09:02:14Z</time>
      </trkpt>
      <trkpt lat="47.52605" lon="-2.84409">
        <ele>6</ele>
        <time>2021-08-06T09:02:15Z</time>
      </trkpt>
      <trkpt lat="47.52605" lon="-2.84404">
        <ele>6</ele>
        <time>2021-08-06T09:02:16Z</time>
      </trkpt>
      <trkpt lat="47.52605" lon="-2.84399">
        <ele>6</ele>
        <time>2021-08-06T09:02:17Z</time>
      </trkpt>
      <trkpt lat="47.52605" lon="-2.84394">
        <ele>6</ele>
        <time>2021-08-06T09:02:18Z</time>
      </trkpt>
      <trkpt lat="47.52606" lon="-2.84389">
        <ele>6.2</ele>
        <time>2021-08-06T09:02:19Z</time>
      </trkpt>
      <trkpt lat="47.52606" lon="-2.84385">
        <ele>6.2</ele>
        <time>2021-08-06T09:02:20Z</time>
      </trkpt>
      <trkpt lat="47.52606" lon="-2.84381">
        <ele>6.4</ele>
        <time>2021-08-06T09:02:21Z</time>
      </trkpt>
      <trkpt lat="47.52606" lon="-2.84377">
        <ele>6.4</ele>
        <time>2021-08-06T09:02:22Z</time>
      </trkpt>
      <trkpt lat="47.52606" lon="-2.84373">
        <ele>6.6</ele>
        <time>2021-08-06T09:02:23Z</time>
      </trkpt>
      <trkpt lat="47.52606" lon="-2.84368">
        <ele>6.6</ele>
        <time>2021-08-06T09:02:24Z</time>
      </trkpt>
      <trkpt lat="47.52606" lon="-2.84363">
        <ele>6.8</ele>
        <time>2021-08-06T09:02:25Z</time>
      </trkpt>
      <trkpt lat="47.52607" lon="-2.84357">
        <ele>6.8</ele>
        <time>2021-08-06T09:02:26Z</time>
      </trkpt>
      <trkpt lat="47.52607" lon="-2.84352">
        <ele>7</ele>
        <time>2021-08-06T09:02:27Z</time>
      </trkpt>
      <trkpt lat="47.52607" lon="-2.84346">
        <ele>7</ele>
        <time>2021-08-06T09:02:28Z</time>
      </trkpt>
      <trkpt lat="47.52608" lon="-2.8434">
        <ele>7.2</ele>
        <time>2021-08-06T09:02:29Z</time>
      </trkpt>
      <trkpt lat="47.52608" lon="-2.84334">
        <ele>7.4</ele>
        <time>2021-08-06T09:02:30Z</time>
      </trkpt>
      <trkpt lat="47.52609" lon="-2.84328">
        <ele>7.4</ele>
        <time>2021-08-06T09:02:31Z</time>
      </trkpt>
      <trkpt lat="47.52609" lon="-2.84322">
        <ele>7.6</ele>
        <time>2021-08-06T09:02:32Z</time>
      </trkpt>
      <trkpt lat="47.5261" lon="-2.84316">
        <ele>7.6</ele>
        <time>2021-08-06T09:02:33Z</time>
      </trkpt>
      <trkpt lat="47.5261" lon="-2.8431">
        <ele>7.6</ele>
        <time>2021-08-06T09:02:34Z</time>
      </trkpt>
      <trkpt lat="47.5261" lon="-2.84304">
        <ele>7.8</ele>
        <time>2021-08-06T09:02:35Z</time>
      </trkpt>
      <trkpt lat="47.52611" lon="-2.84298">
        <ele>7.8</ele>
        <time>2021-08-06T09:02:36Z</time>
      </trkpt>
      <trkpt lat="47.52611" lon="-2.84292">
        <ele>7.8</ele>
        <time>2021-08-06T09:02:37Z</time>
      </trkpt>
      <trkpt lat="47.52611" lon="-2.84286">
        <ele>7.8</ele>
        <time>2021-08-06T09:02:38Z</time>
      </trkpt>
      <trkpt lat="47.52611" lon="-2.8428">
        <ele>7.8</ele>
        <time>2021-08-06T09:02:39Z</time>
      </trkpt>
      <trkpt lat="47.52611" lon="-2.84274">
        <ele>7.8</ele>
        <time>2021-08-06T09:02:40Z</time>
      </trkpt>
      <trkpt lat="47.52611" lon="-2.84268">
        <ele>7.8</ele>
        <time>2021-08-06T09:02:41Z</time>
      </trkpt>
      <trkpt lat="47.52611" lon="-2.84262">
        <ele>7.8</ele>
        <time>2021-08-06T09:02:42Z</time>
      </trkpt>
      <trkpt lat="47.52611" lon="-2.84256">
        <ele>7.8</ele>
        <time>2021-08-06T09:02:43Z</time>
      </trkpt>
      <trkpt lat="47.52611" lon="-2.84249">
        <ele>7.8</ele>
        <time>2021-08-06T09:02:44Z</time>
      </trkpt>
      <trkpt lat="47.52611" lon="-2.84243">
        <ele>7.8</ele>
        <time>2021-08-06T09:02:45Z</time>
      </trkpt>
      <trkpt lat="47.5261" lon="-2.84237">
        <ele>7.8</ele>
        <time>2021-08-06T09:02:46Z</time>
      </trkpt>
      <trkpt lat="47.5261" lon="-2.8423">
        <ele>8</ele>
        <time>2021-08-06T09:02:47Z</time>
      </trkpt>
      <trkpt lat="47.5261" lon="-2.84224">
        <ele>8</ele>
        <time>2021-08-06T09:02:48Z</time>
      </trkpt>
      <trkpt lat="47.52609" lon="-2.84217">
        <ele>8</ele>
        <time>2021-08-06T09:02:49Z</time>
      </trkpt>
      <trkpt lat="47.52608" lon="-2.84209">
        <ele>8</ele>
        <time>2021-08-06T09:02:50Z</time>
      </trkpt>
      <trkpt lat="47.52606" lon="-2.84201">
        <ele>8</ele>
        <time>2021-08-06T09:02:51Z</time>
      </trkpt>
      <trkpt lat="47.52605" lon="-2.84194">
        <ele>8</ele>
        <time>2021-08-06T09:02:52Z</time>
      </trkpt>
      <trkpt lat="47.52604" lon="-2.84187">
        <ele>8</ele>
        <time>2021-08-06T09:02:53Z</time>
      </trkpt>
      <trkpt lat="47.52603" lon="-2.8418">
        <ele>8</ele>
        <time>2021-08-06T09:02:54Z</time>
      </trkpt>
      <trkpt lat="47.52602" lon="-2.84173">
        <ele>8</ele>
        <time>2021-08-06T09:02:55Z</time>
      </trkpt>
      <trkpt lat="47.526" lon="-2.84167">
        <ele>8</ele>
        <time>2021-08-06T09:02:56Z</time>
      </trkpt>
      <trkpt lat="47.52599" lon="-2.84162">
        <ele>8</ele>
        <time>2021-08-06T09:02:57Z</time>
      </trkpt>
      <trkpt lat="47.52598" lon="-2.84156">
        <ele>8</ele>
        <time>2021-08-06T09:02:58Z</time>
      </trkpt>
      <trkpt lat="47.52596" lon="-2.8415">
        <ele>8</ele>
        <time>2021-08-06T09:02:59Z</time>
      </trkpt>
      <trkpt lat="47.52595" lon="-2.84144">
        <ele>8</ele>
        <time>2021-08-06T09:03:00Z</time>
      </trkpt>
      <trkpt lat="47.52593" lon="-2.84139">
        <ele>8</ele>
        <time>2021-08-06T09:03:01Z</time>
      </trkpt>
      <trkpt lat="47.5259" lon="-2.84133">
        <ele>8</ele>
        <time>2021-08-06T09:03:02Z</time>
      </trkpt>
      <trkpt lat="47.52588" lon="-2.84128">
        <ele>8</ele>
        <time>2021-08-06T09:03:03Z</time>
      </trkpt>
      <trkpt lat="47.52585" lon="-2.84122">
        <ele>8</ele>
        <time>2021-08-06T09:03:04Z</time>
      </trkpt>
      <trkpt lat="47.52582" lon="-2.84117">
        <ele>8</ele>
        <time>2021-08-06T09:03:05Z</time>
      </trkpt>
      <trkpt lat="47.52579" lon="-2.84112">
        <ele>8</ele>
        <time>2021-08-06T09:03:06Z</time>
      </trkpt>
      <trkpt lat="47.52576" lon="-2.84107">
        <ele>8</ele>
        <time>2021-08-06T09:03:07Z</time>
      </trkpt>
      <trkpt lat="47.52572" lon="-2.84101">
        <ele>8</ele>
        <time>2021-08-06T09:03:08Z</time>
      </trkpt>
      <trkpt lat="47.52569" lon="-2.84096">
        <ele>8</ele>
        <time>2021-08-06T09:03:09Z</time>
      </trkpt>
      <trkpt lat="47.52565" lon="-2.84091">
        <ele>8</ele>
        <time>2021-08-06T09:03:10Z</time>
      </trkpt>
      <trkpt lat="47.52561" lon="-2.84086">
        <ele>8</ele>
        <time>2021-08-06T09:03:11Z</time>
      </trkpt>
      <trkpt lat="47.52558" lon="-2.84082">
        <ele>8</ele>
        <time>2021-08-06T09:03:12Z</time>
      </trkpt>
      <trkpt lat="47.52554" lon="-2.84078">
        <ele>8</ele>
        <time>2021-08-06T09:03:13Z</time>
      </trkpt>
      <trkpt lat="47.52551" lon="-2.84074">
        <ele>8</ele>
        <time>2021-08-06T09:03:14Z</time>
      </trkpt>
      <trkpt lat="47.52547" lon="-2.84071">
        <ele>8</ele>
        <time>2021-08-06T09:03:15Z</time>
      </trkpt>
      <trkpt lat="47.52543" lon="-2.84067">
        <ele>8</ele>
        <time>2021-08-06T09:03:16Z</time>
      </trkpt>
      <trkpt lat="47.52539" lon="-2.84063">
        <ele>8</ele>
        <time>2021-08-06T09:03:17Z</time>
      </trkpt>
      <trkpt lat="47.52535" lon="-2.8406">
        <ele>8</ele>
        <time>2021-08-06T09:03:18Z</time>
      </trkpt>
      <trkpt lat="47.52531" lon="-2.84057">
        <ele>7.8</ele>
        <time>2021-08-06T09:03:19Z</time>
      </trkpt>
      <trkpt lat="47.52527" lon="-2.84053">
        <ele>7.8</ele>
        <time>2021-08-06T09:03:20Z</time>
      </trkpt>
      <trkpt lat="47.52524" lon="-2.8405">
        <ele>8</ele>
        <time>2021-08-06T09:03:21Z</time>
      </trkpt>
      <trkpt lat="47.52521" lon="-2.84048">
        <ele>8</ele>
        <time>2021-08-06T09:03:22Z</time>
      </trkpt>
      <trkpt lat="47.52517" lon="-2.84045">
        <ele>8</ele>
        <time>2021-08-06T09:03:23Z</time>
      </trkpt>
      <trkpt lat="47.52514" lon="-2.84043">
        <ele>8</ele>
        <time>2021-08-06T09:03:24Z</time>
      </trkpt>
      <trkpt lat="47.52512" lon="-2.84041">
        <ele>8</ele>
        <time>2021-08-06T09:03:25Z</time>
      </trkpt>
      <trkpt lat="47.52509" lon="-2.84039">
        <ele>8</ele>
        <time>2021-08-06T09:03:26Z</time>
      </trkpt>
      <trkpt lat="47.52506" lon="-2.84036">
        <ele>8</ele>
        <time>2021-08-06T09:03:27Z</time>
      </trkpt>
      <trkpt lat="47.52502" lon="-2.84033">
        <ele>8</ele>
        <time>2021-08-06T09:03:28Z</time>
      </trkpt>
      <trkpt lat="47.52499" lon="-2.84028">
        <ele>8</ele>
        <time>2021-08-06T09:03:29Z</time>
      </trkpt>
      <trkpt lat="47.52495" lon="-2.84024">
        <ele>8</ele>
        <time>2021-08-06T09:03:30Z</time>
      </trkpt>
      <trkpt lat="47.52491" lon="-2.8402">
        <ele>8</ele>
        <time>2021-08-06T09:03:31Z</time>
      </trkpt>
      <trkpt lat="47.52487" lon="-2.84015">
        <ele>8</ele>
        <time>2021-08-06T09:03:32Z</time>
      </trkpt>
      <trkpt lat="47.52483" lon="-2.8401">
        <ele>8</ele>
        <time>2021-08-06T09:03:33Z</time>
      </trkpt>
      <trkpt lat="47.52479" lon="-2.84006">
        <ele>8</ele>
        <time>2021-08-06T09:03:34Z</time>
      </trkpt>
      <trkpt lat="47.52475" lon="-2.84001">
        <ele>8</ele>
        <time>2021-08-06T09:03:35Z</time>
      </trkpt>
      <trkpt lat="47.52471" lon="-2.83996">
        <ele>8</ele>
        <time>2021-08-06T09:03:36Z</time>
      </trkpt>
      <trkpt lat="47.52468" lon="-2.83991">
        <ele>8</ele>
        <time>2021-08-06T09:03:37Z</time>
      </trkpt>
      <trkpt lat="47.52464" lon="-2.83986">
        <ele>8</ele>
        <time>2021-08-06T09:03:38Z</time>
      </trkpt>
      <trkpt lat="47.52461" lon="-2.8398">
        <ele>8</ele>
        <time>2021-08-06T09:03:39Z</time>
      </trkpt>
      <trkpt lat="47.52458" lon="-2.83974">
        <ele>7.8</ele>
        <time>2021-08-06T09:03:40Z</time>
      </trkpt>
      <trkpt lat="47.52454" lon="-2.83969">
        <ele>8</ele>
        <time>2021-08-06T09:03:41Z</time>
      </trkpt>
      <trkpt lat="47.52451" lon="-2.83963">
        <ele>8</ele>
        <time>2021-08-06T09:03:42Z</time>
      </trkpt>
      <trkpt lat="47.52449" lon="-2.83958">
        <ele>8</ele>
        <time>2021-08-06T09:03:43Z</time>
      </trkpt>
      <trkpt lat="47.52446" lon="-2.83952">
        <ele>8</ele>
        <time>2021-08-06T09:03:44Z</time>
      </trkpt>
      <trkpt lat="47.52443" lon="-2.83945">
        <ele>8</ele>
        <time>2021-08-06T09:03:45Z</time>
      </trkpt>
      <trkpt lat="47.5244" lon="-2.83938">
        <ele>8.2</ele>
        <time>2021-08-06T09:03:46Z</time>
      </trkpt>
      <trkpt lat="47.52438" lon="-2.83931">
        <ele>8.2</ele>
        <time>2021-08-06T09:03:47Z</time>
      </trkpt>
      <trkpt lat="47.52435" lon="-2.83924">
        <ele>8.2</ele>
        <time>2021-08-06T09:03:48Z</time>
      </trkpt>
      <trkpt lat="47.52433" lon="-2.83916">
        <ele>8.2</ele>
        <time>2021-08-06T09:03:49Z</time>
      </trkpt>
      <trkpt lat="47.52431" lon="-2.83909">
        <ele>8.2</ele>
        <time>2021-08-06T09:03:50Z</time>
      </trkpt>
      <trkpt lat="47.52429" lon="-2.83901">
        <ele>8.2</ele>
        <time>2021-08-06T09:03:51Z</time>
      </trkpt>
      <trkpt lat="47.52428" lon="-2.83892">
        <ele>8.2</ele>
        <time>2021-08-06T09:03:52Z</time>
      </trkpt>
      <trkpt lat="47.52427" lon="-2.83884">
        <ele>8.2</ele>
        <time>2021-08-06T09:03:53Z</time>
      </trkpt>
      <trkpt lat="47.52426" lon="-2.83875">
        <ele>8.2</ele>
        <time>2021-08-06T09:03:54Z</time>
      </trkpt>
      <trkpt lat="47.52425" lon="-2.83866">
        <ele>8.2</ele>
        <time>2021-08-06T09:03:55Z</time>
      </trkpt>
      <trkpt lat="47.52425" lon="-2.83858">
        <ele>8.2</ele>
        <time>2021-08-06T09:03:56Z</time>
      </trkpt>
      <trkpt lat="47.52425" lon="-2.8385">
        <ele>8.2</ele>
        <time>2021-08-06T09:03:57Z</time>
      </trkpt>
      <trkpt lat="47.52425" lon="-2.83841">
        <ele>8.2</ele>
        <time>2021-08-06T09:03:58Z</time>
      </trkpt>
      <trkpt lat="47.52425" lon="-2.83834">
        <ele>8.2</ele>
        <time>2021-08-06T09:03:59Z</time>
      </trkpt>
      <trkpt lat="47.52425" lon="-2.83826">
        <ele>8.2</ele>
        <time>2021-08-06T09:04:00Z</time>
      </trkpt>
      <trkpt lat="47.52425" lon="-2.83818">
        <ele>8.2</ele>
        <time>2021-08-06T09:04:01Z</time>
      </trkpt>
      <trkpt lat="47.52425" lon="-2.83811">
        <ele>8.2</ele>
        <time>2021-08-06T09:04:02Z</time>
      </trkpt>
      <trkpt lat="47.52425" lon="-2.83803">
        <ele>8.2</ele>
        <time>2021-08-06T09:04:03Z</time>
      </trkpt>
      <trkpt lat="47.52425" lon="-2.83796">
        <ele>8</ele>
        <time>2021-08-06T09:04:04Z</time>
      </trkpt>
      <trkpt lat="47.52425" lon="-2.83789">
        <ele>8</ele>
        <time>2021-08-06T09:04:05Z</time>
      </trkpt>
      <trkpt lat="47.52425" lon="-2.83782">
        <ele>8</ele>
        <time>2021-08-06T09:04:06Z</time>
      </trkpt>
      <trkpt lat="47.52425" lon="-2.83775">
        <ele>8.2</ele>
        <time>2021-08-06T09:04:07Z</time>
      </trkpt>
      <trkpt lat="47.52425" lon="-2.83769">
        <ele>8.2</ele>
        <time>2021-08-06T09:04:08Z</time>
      </trkpt>
      <trkpt lat="47.52425" lon="-2.83762">
        <ele>8.2</ele>
        <time>2021-08-06T09:04:09Z</time>
      </trkpt>
      <trkpt lat="47.52426" lon="-2.83756">
        <ele>8.2</ele>
        <time>2021-08-06T09:04:10Z</time>
      </trkpt>
      <trkpt lat="47.52426" lon="-2.8375">
        <ele>8.2</ele>
        <time>2021-08-06T09:04:11Z</time>
      </trkpt>
      <trkpt lat="47.52426" lon="-2.83743">
        <ele>8.2</ele>
        <time>2021-08-06T09:04:12Z</time>
      </trkpt>
      <trkpt lat="47.52426" lon="-2.83737">
        <ele>8.2</ele>
        <time>2021-08-06T09:04:13Z</time>
      </trkpt>
      <trkpt lat="47.52426" lon="-2.8373">
        <ele>8.2</ele>
        <time>2021-08-06T09:04:14Z</time>
      </trkpt>
      <trkpt lat="47.52426" lon="-2.83724">
        <ele>8.4</ele>
        <time>2021-08-06T09:04:15Z</time>
      </trkpt>
      <trkpt lat="47.52426" lon="-2.83717">
        <ele>8.4</ele>
        <time>2021-08-06T09:04:16Z</time>
      </trkpt>
      <trkpt lat="47.52426" lon="-2.83711">
        <ele>8.4</ele>
        <time>2021-08-06T09:04:17Z</time>
      </trkpt>
      <trkpt lat="47.52425" lon="-2.83705">
        <ele>8.4</ele>
        <time>2021-08-06T09:04:18Z</time>
      </trkpt>
      <trkpt lat="47.52425" lon="-2.83698">
        <ele>8.4</ele>
        <time>2021-08-06T09:04:19Z</time>
      </trkpt>
      <trkpt lat="47.52425" lon="-2.83693">
        <ele>8.4</ele>
        <time>2021-08-06T09:04:20Z</time>
      </trkpt>
      <trkpt lat="47.52424" lon="-2.83687">
        <ele>8.4</ele>
        <time>2021-08-06T09:04:21Z</time>
      </trkpt>
      <trkpt lat="47.52423" lon="-2.83681">
        <ele>8.4</ele>
        <time>2021-08-06T09:04:22Z</time>
      </trkpt>
      <trkpt lat="47.52423" lon="-2.83675">
        <ele>8.4</ele>
        <time>2021-08-06T09:04:23Z</time>
      </trkpt>
      <trkpt lat="47.52422" lon="-2.83668">
        <ele>8.4</ele>
        <time>2021-08-06T09:04:24Z</time>
      </trkpt>
      <trkpt lat="47.52421" lon="-2.83662">
        <ele>8.4</ele>
        <time>2021-08-06T09:04:25Z</time>
      </trkpt>
      <trkpt lat="47.52421" lon="-2.83656">
        <ele>8.4</ele>
        <time>2021-08-06T09:04:26Z</time>
      </trkpt>
      <trkpt lat="47.5242" lon="-2.83649">
        <ele>8.4</ele>
        <time>2021-08-06T09:04:27Z</time>
      </trkpt>
      <trkpt lat="47.52419" lon="-2.83642">
        <ele>8.4</ele>
        <time>2021-08-06T09:04:28Z</time>
      </trkpt>
      <trkpt lat="47.52418" lon="-2.83635">
        <ele>8.4</ele>
        <time>2021-08-06T09:04:29Z</time>
      </trkpt>
      <trkpt lat="47.52418" lon="-2.83628">
        <ele>8.4</ele>
        <time>2021-08-06T09:04:30Z</time>
      </trkpt>
      <trkpt lat="47.52417" lon="-2.8362">
        <ele>8.4</ele>
        <time>2021-08-06T09:04:31Z</time>
      </trkpt>
      <trkpt lat="47.52416" lon="-2.83612">
        <ele>8.4</ele>
        <time>2021-08-06T09:04:32Z</time>
      </trkpt>
      <trkpt lat="47.52415" lon="-2.83604">
        <ele>8.4</ele>
        <time>2021-08-06T09:04:33Z</time>
      </trkpt>
      <trkpt lat="47.52414" lon="-2.83596">
        <ele>8.4</ele>
        <time>2021-08-06T09:04:34Z</time>
      </trkpt>
      <trkpt lat="47.52413" lon="-2.83588">
        <ele>8.4</ele>
        <time>2021-08-06T09:04:35Z</time>
      </trkpt>
      <trkpt lat="47.52412" lon="-2.8358">
        <ele>8.2</ele>
        <time>2021-08-06T09:04:36Z</time>
      </trkpt>
      <trkpt lat="47.52411" lon="-2.83572">
        <ele>8.2</ele>
        <time>2021-08-06T09:04:37Z</time>
      </trkpt>
      <trkpt lat="47.5241" lon="-2.83563">
        <ele>8.2</ele>
        <time>2021-08-06T09:04:38Z</time>
      </trkpt>
      <trkpt lat="47.52409" lon="-2.83555">
        <ele>8</ele>
        <time>2021-08-06T09:04:39Z</time>
      </trkpt>
      <trkpt lat="47.52407" lon="-2.83547">
        <ele>7.8</ele>
        <time>2021-08-06T09:04:40Z</time>
      </trkpt>
      <trkpt lat="47.52406" lon="-2.8354">
        <ele>7.6</ele>
        <time>2021-08-06T09:04:41Z</time>
      </trkpt>
      <trkpt lat="47.52404" lon="-2.83532">
        <ele>7.6</ele>
        <time>2021-08-06T09:04:42Z</time>
      </trkpt>
      <trkpt lat="47.52402" lon="-2.83525">
        <ele>7.4</ele>
        <time>2021-08-06T09:04:43Z</time>
      </trkpt>
      <trkpt lat="47.524" lon="-2.83518">
        <ele>7.4</ele>
        <time>2021-08-06T09:04:44Z</time>
      </trkpt>
      <trkpt lat="47.52398" lon="-2.83511">
        <ele>7.4</ele>
        <time>2021-08-06T09:04:45Z</time>
      </trkpt>
      <trkpt lat="47.52396" lon="-2.83504">
        <ele>7.4</ele>
        <time>2021-08-06T09:04:46Z</time>
      </trkpt>
      <trkpt lat="47.52394" lon="-2.83497">
        <ele>7.4</ele>
        <time>2021-08-06T09:04:47Z</time>
      </trkpt>
      <trkpt lat="47.52392" lon="-2.83489">
        <ele>7.2</ele>
        <time>2021-08-06T09:04:48Z</time>
      </trkpt>
      <trkpt lat="47.5239" lon="-2.83482">
        <ele>7.2</ele>
        <time>2021-08-06T09:04:49Z</time>
      </trkpt>
      <trkpt lat="47.52388" lon="-2.83475">
        <ele>7.2</ele>
        <time>2021-08-06T09:04:50Z</time>
      </trkpt>
      <trkpt lat="47.52385" lon="-2.83468">
        <ele>7</ele>
        <time>2021-08-06T09:04:51Z</time>
      </trkpt>
      <trkpt lat="47.52383" lon="-2.8346">
        <ele>7</ele>
        <time>2021-08-06T09:04:52Z</time>
      </trkpt>
      <trkpt lat="47.5238" lon="-2.83453">
        <ele>6.8</ele>
        <time>2021-08-06T09:04:53Z</time>
      </trkpt>
      <trkpt lat="47.52377" lon="-2.83446">
        <ele>6.6</ele>
        <time>2021-08-06T09:04:54Z</time>
      </trkpt>
      <trkpt lat="47.52374" lon="-2.83439">
        <ele>6.6</ele>
        <time>2021-08-06T09:04:55Z</time>
      </trkpt>
      <trkpt lat="47.52372" lon="-2.83431">
        <ele>6.6</ele>
        <time>2021-08-06T09:04:56Z</time>
      </trkpt>
      <trkpt lat="47.52369" lon="-2.83423">
        <ele>6.4</ele>
        <time>2021-08-06T09:04:57Z</time>
      </trkpt>
      <trkpt lat="47.52366" lon="-2.83415">
        <ele>6.4</ele>
        <time>2021-08-06T09:04:58Z</time>
      </trkpt>
      <trkpt lat="47.52363" lon="-2.83407">
        <ele>6.4</ele>
        <time>2021-08-06T09:04:59Z</time>
      </trkpt>
      <trkpt lat="47.5236" lon="-2.834">
        <ele>6.2</ele>
        <time>2021-08-06T09:05:00Z</time>
      </trkpt>
      <trkpt lat="47.52356" lon="-2.83393">
        <ele>6.2</ele>
        <time>2021-08-06T09:05:01Z</time>
      </trkpt>
      <trkpt lat="47.52351" lon="-2.83387">
        <ele>6.2</ele>
        <time>2021-08-06T09:05:02Z</time>
      </trkpt>
      <trkpt lat="47.52347" lon="-2.83381">
        <ele>6</ele>
        <time>2021-08-06T09:05:03Z</time>
      </trkpt>
      <trkpt lat="47.52343" lon="-2.83375">
        <ele>5.8</ele>
        <time>2021-08-06T09:05:04Z</time>
      </trkpt>
      <trkpt lat="47.52339" lon="-2.83369">
        <ele>5.6</ele>
        <time>2021-08-06T09:05:05Z</time>
      </trkpt>
      <trkpt lat="47.52335" lon="-2.83364">
        <ele>5.6</ele>
        <time>2021-08-06T09:05:06Z</time>
      </trkpt>
      <trkpt lat="47.52331" lon="-2.83358">
        <ele>5.4</ele>
        <time>2021-08-06T09:05:07Z</time>
      </trkpt>
      <trkpt lat="47.52327" lon="-2.83351">
        <ele>5.2</ele>
        <time>2021-08-06T09:05:08Z</time>
      </trkpt>
      <trkpt lat="47.52324" lon="-2.83345">
        <ele>5.2</ele>
        <time>2021-08-06T09:05:09Z</time>
      </trkpt>
      <trkpt lat="47.5232" lon="-2.83338">
        <ele>5</ele>
        <time>2021-08-06T09:05:10Z</time>
      </trkpt>
      <trkpt lat="47.52317" lon="-2.83332">
        <ele>4.8</ele>
        <time>2021-08-06T09:05:11Z</time>
      </trkpt>
      <trkpt lat="47.52314" lon="-2.83325">
        <ele>4.8</ele>
        <time>2021-08-06T09:05:12Z</time>
      </trkpt>
      <trkpt lat="47.52312" lon="-2.83318">
        <ele>4.8</ele>
        <time>2021-08-06T09:05:13Z</time>
      </trkpt>
      <trkpt lat="47.5231" lon="-2.83311">
        <ele>4.8</ele>
        <time>2021-08-06T09:05:14Z</time>
      </trkpt>
      <trkpt lat="47.52308" lon="-2.83305">
        <ele>4.8</ele>
        <time>2021-08-06T09:05:15Z</time>
      </trkpt>
      <trkpt lat="47.52307" lon="-2.83299">
        <ele>4.6</ele>
        <time>2021-08-06T09:05:16Z</time>
      </trkpt>
      <trkpt lat="47.52306" lon="-2.83293">
        <ele>4.6</ele>
        <time>2021-08-06T09:05:17Z</time>
      </trkpt>
      <trkpt lat="47.52306" lon="-2.83287">
        <ele>4.6</ele>
        <time>2021-08-06T09:05:18Z</time>
      </trkpt>
      <trkpt lat="47.52305" lon="-2.83282">
        <ele>4.6</ele>
        <time>2021-08-06T09:05:19Z</time>
      </trkpt>
      <trkpt lat="47.52305" lon="-2.83276">
        <ele>4.8</ele>
        <time>2021-08-06T09:05:20Z</time>
      </trkpt>
      <trkpt lat="47.52304" lon="-2.8327">
        <ele>4.8</ele>
        <time>2021-08-06T09:05:21Z</time>
      </trkpt>
      <trkpt lat="47.52303" lon="-2.83264">
        <ele>4.8</ele>
        <time>2021-08-06T09:05:22Z</time>
      </trkpt>
      <trkpt lat="47.52302" lon="-2.83257">
        <ele>4.8</ele>
        <time>2021-08-06T09:05:23Z</time>
      </trkpt>
      <trkpt lat="47.52301" lon="-2.83252">
        <ele>4.8</ele>
        <time>2021-08-06T09:05:24Z</time>
      </trkpt>
      <trkpt lat="47.52301" lon="-2.83246">
        <ele>4.8</ele>
        <time>2021-08-06T09:05:25Z</time>
      </trkpt>
      <trkpt lat="47.523" lon="-2.8324">
        <ele>5</ele>
        <time>2021-08-06T09:05:26Z</time>
      </trkpt>
      <trkpt lat="47.52299" lon="-2.83234">
        <ele>5</ele>
        <time>2021-08-06T09:05:27Z</time>
      </trkpt>
      <trkpt lat="47.52298" lon="-2.83228">
        <ele>5</ele>
        <time>2021-08-06T09:05:28Z</time>
      </trkpt>
      <trkpt lat="47.52297" lon="-2.83221">
        <ele>5</ele>
        <time>2021-08-06T09:05:29Z</time>
      </trkpt>
      <trkpt lat="47.52296" lon="-2.83214">
        <ele>5</ele>
        <time>2021-08-06T09:05:30Z</time>
      </trkpt>
      <trkpt lat="47.52295" lon="-2.83206">
        <ele>5.2</ele>
        <time>2021-08-06T09:05:31Z</time>
      </trkpt>
      <trkpt lat="47.52295" lon="-2.83199">
        <ele>5.2</ele>
        <time>2021-08-06T09:05:32Z</time>
      </trkpt>
      <trkpt lat="47.52294" lon="-2.83191">
        <ele>5.2</ele>
        <time>2021-08-06T09:05:33Z</time>
      </trkpt>
      <trkpt lat="47.52293" lon="-2.83184">
        <ele>5.2</ele>
        <time>2021-08-06T09:05:34Z</time>
      </trkpt>
      <trkpt lat="47.52293" lon="-2.83177">
        <ele>5.2</ele>
        <time>2021-08-06T09:05:35Z</time>
      </trkpt>
      <trkpt lat="47.52292" lon="-2.83171">
        <ele>5.2</ele>
        <time>2021-08-06T09:05:36Z</time>
      </trkpt>
      <trkpt lat="47.52291" lon="-2.83164">
        <ele>5.2</ele>
        <time>2021-08-06T09:05:37Z</time>
      </trkpt>
      <trkpt lat="47.5229" lon="-2.83157">
        <ele>5.2</ele>
        <time>2021-08-06T09:05:38Z</time>
      </trkpt>
      <trkpt lat="47.52289" lon="-2.8315">
        <ele>5.2</ele>
        <time>2021-08-06T09:05:39Z</time>
      </trkpt>
      <trkpt lat="47.52288" lon="-2.83143">
        <ele>5.2</ele>
        <time>2021-08-06T09:05:40Z</time>
      </trkpt>
      <trkpt lat="47.52288" lon="-2.83136">
        <ele>5.2</ele>
        <time>2021-08-06T09:05:41Z</time>
      </trkpt>
      <trkpt lat="47.52287" lon="-2.83129">
        <ele>5.4</ele>
        <time>2021-08-06T09:05:42Z</time>
      </trkpt>
      <trkpt lat="47.52286" lon="-2.83121">
        <ele>5.4</ele>
        <time>2021-08-06T09:05:43Z</time>
      </trkpt>
      <trkpt lat="47.52285" lon="-2.83114">
        <ele>5.4</ele>
        <time>2021-08-06T09:05:44Z</time>
      </trkpt>
      <trkpt lat="47.52285" lon="-2.83107">
        <ele>5.4</ele>
        <time>2021-08-06T09:05:45Z</time>
      </trkpt>
      <trkpt lat="47.52284" lon="-2.83101">
        <ele>5.4</ele>
        <time>2021-08-06T09:05:46Z</time>
      </trkpt>
      <trkpt lat="47.52283" lon="-2.83095">
        <ele>5.4</ele>
        <time>2021-08-06T09:05:47Z</time>
      </trkpt>
      <trkpt lat="47.52282" lon="-2.8309">
        <ele>5.6</ele>
        <time>2021-08-06T09:05:48Z</time>
      </trkpt>
      <trkpt lat="47.52282" lon="-2.83084">
        <ele>5.6</ele>
        <time>2021-08-06T09:05:49Z</time>
      </trkpt>
      <trkpt lat="47.52281" lon="-2.83078">
        <ele>5.6</ele>
        <time>2021-08-06T09:05:50Z</time>
      </trkpt>
      <trkpt lat="47.5228" lon="-2.83072">
        <ele>5.8</ele>
        <time>2021-08-06T09:05:51Z</time>
      </trkpt>
      <trkpt lat="47.52279" lon="-2.83066">
        <ele>6</ele>
        <time>2021-08-06T09:05:52Z</time>
      </trkpt>
      <trkpt lat="47.52277" lon="-2.83059">
        <ele>6</ele>
        <time>2021-08-06T09:05:53Z</time>
      </trkpt>
      <trkpt lat="47.52276" lon="-2.83053">
        <ele>6.2</ele>
        <time>2021-08-06T09:05:54Z</time>
      </trkpt>
      <trkpt lat="47.52274" lon="-2.83047">
        <ele>6.4</ele>
        <time>2021-08-06T09:05:55Z</time>
      </trkpt>
      <trkpt lat="47.52272" lon="-2.83042">
        <ele>6.4</ele>
        <time>2021-08-06T09:05:56Z</time>
      </trkpt>
      <trkpt lat="47.52269" lon="-2.83037">
        <ele>6.6</ele>
        <time>2021-08-06T09:05:57Z</time>
      </trkpt>
      <trkpt lat="47.52267" lon="-2.83033">
        <ele>6.8</ele>
        <time>2021-08-06T09:05:58Z</time>
      </trkpt>
      <trkpt lat="47.52264" lon="-2.83029">
        <ele>7</ele>
        <time>2021-08-06T09:05:59Z</time>
      </trkpt>
      <trkpt lat="47.5226" lon="-2.83025">
        <ele>6.8</ele>
        <time>2021-08-06T09:06:00Z</time>
      </trkpt>
      <trkpt lat="47.52257" lon="-2.83021">
        <ele>7.2</ele>
        <time>2021-08-06T09:06:01Z</time>
      </trkpt>
      <trkpt lat="47.52254" lon="-2.83018">
        <ele>7</ele>
        <time>2021-08-06T09:06:02Z</time>
      </trkpt>
      <trkpt lat="47.52251" lon="-2.83016">
        <ele>7</ele>
        <time>2021-08-06T09:06:03Z</time>
      </trkpt>
      <trkpt lat="47.52248" lon="-2.83013">
        <ele>7.2</ele>
        <time>2021-08-06T09:06:04Z</time>
      </trkpt>
      <trkpt lat="47.52245" lon="-2.8301">
        <ele>7.4</ele>
        <time>2021-08-06T09:06:05Z</time>
      </trkpt>
      <trkpt lat="47.52242" lon="-2.83008">
        <ele>7.4</ele>
        <time>2021-08-06T09:06:06Z</time>
      </trkpt>
      <trkpt lat="47.52239" lon="-2.83005">
        <ele>7.4</ele>
        <time>2021-08-06T09:06:07Z</time>
      </trkpt>
      <trkpt lat="47.52235" lon="-2.83002">
        <ele>7.6</ele>
        <time>2021-08-06T09:06:08Z</time>
      </trkpt>
      <trkpt lat="47.52232" lon="-2.82998">
        <ele>7.6</ele>
        <time>2021-08-06T09:06:09Z</time>
      </trkpt>
      <trkpt lat="47.52229" lon="-2.82995">
        <ele>7.8</ele>
        <time>2021-08-06T09:06:10Z</time>
      </trkpt>
      <trkpt lat="47.52226" lon="-2.82991">
        <ele>7.8</ele>
        <time>2021-08-06T09:06:11Z</time>
      </trkpt>
      <trkpt lat="47.52223" lon="-2.82987">
        <ele>7.8</ele>
        <time>2021-08-06T09:06:12Z</time>
      </trkpt>
      <trkpt lat="47.52219" lon="-2.82984">
        <ele>8</ele>
        <time>2021-08-06T09:06:13Z</time>
      </trkpt>
      <trkpt lat="47.52216" lon="-2.82981">
        <ele>8.4</ele>
        <time>2021-08-06T09:06:14Z</time>
      </trkpt>
      <trkpt lat="47.52213" lon="-2.82978">
        <ele>8.8</ele>
        <time>2021-08-06T09:06:15Z</time>
      </trkpt>
      <trkpt lat="47.5221" lon="-2.82975">
        <ele>8.8</ele>
        <time>2021-08-06T09:06:16Z</time>
      </trkpt>
      <trkpt lat="47.52207" lon="-2.82971">
        <ele>9</ele>
        <time>2021-08-06T09:06:17Z</time>
      </trkpt>
      <trkpt lat="47.52203" lon="-2.82968">
        <ele>9</ele>
        <time>2021-08-06T09:06:18Z</time>
      </trkpt>
      <trkpt lat="47.522" lon="-2.82965">
        <ele>9</ele>
        <time>2021-08-06T09:06:19Z</time>
      </trkpt>
      <trkpt lat="47.52197" lon="-2.82961">
        <ele>9.2</ele>
        <time>2021-08-06T09:06:20Z</time>
      </trkpt>
      <trkpt lat="47.52194" lon="-2.82958">
        <ele>9.2</ele>
        <time>2021-08-06T09:06:21Z</time>
      </trkpt>
      <trkpt lat="47.52191" lon="-2.82955">
        <ele>9.4</ele>
        <time>2021-08-06T09:06:22Z</time>
      </trkpt>
      <trkpt lat="47.52188" lon="-2.82952">
        <ele>9.2</ele>
        <time>2021-08-06T09:06:23Z</time>
      </trkpt>
      <trkpt lat="47.52184" lon="-2.8295">
        <ele>9.4</ele>
        <time>2021-08-06T09:06:24Z</time>
      </trkpt>
      <trkpt lat="47.52181" lon="-2.82947">
        <ele>9.2</ele>
        <time>2021-08-06T09:06:25Z</time>
      </trkpt>
      <trkpt lat="47.52178" lon="-2.82945">
        <ele>9.4</ele>
        <time>2021-08-06T09:06:26Z</time>
      </trkpt>
      <trkpt lat="47.52174" lon="-2.82942">
        <ele>9.4</ele>
        <time>2021-08-06T09:06:27Z</time>
      </trkpt>
      <trkpt lat="47.52171" lon="-2.82942">
        <ele>9.4</ele>
        <time>2021-08-06T09:06:28Z</time>
      </trkpt>
      <trkpt lat="47.52168" lon="-2.8294">
        <ele>9.4</ele>
        <time>2021-08-06T09:06:29Z</time>
      </trkpt>
      <trkpt lat="47.52164" lon="-2.82938">
        <ele>9.6</ele>
        <time>2021-08-06T09:06:30Z</time>
      </trkpt>
      <trkpt lat="47.52161" lon="-2.82936">
        <ele>9.6</ele>
        <time>2021-08-06T09:06:31Z</time>
      </trkpt>
      <trkpt lat="47.52158" lon="-2.82934">
        <ele>9.6</ele>
        <time>2021-08-06T09:06:32Z</time>
      </trkpt>
      <trkpt lat="47.52155" lon="-2.82932">
        <ele>9.8</ele>
        <time>2021-08-06T09:06:33Z</time>
      </trkpt>
      <trkpt lat="47.52152" lon="-2.82931">
        <ele>9.8</ele>
        <time>2021-08-06T09:06:34Z</time>
      </trkpt>
      <trkpt lat="47.52149" lon="-2.82929">
        <ele>10</ele>
        <time>2021-08-06T09:06:35Z</time>
      </trkpt>
      <trkpt lat="47.52146" lon="-2.82928">
        <ele>10.2</ele>
        <time>2021-08-06T09:06:36Z</time>
      </trkpt>
      <trkpt lat="47.52143" lon="-2.82926">
        <ele>10.2</ele>
        <time>2021-08-06T09:06:37Z</time>
      </trkpt>
      <trkpt lat="47.5214" lon="-2.82924">
        <ele>10.4</ele>
        <time>2021-08-06T09:06:38Z</time>
      </trkpt>
      <trkpt lat="47.52137" lon="-2.82923">
        <ele>10.6</ele>
        <time>2021-08-06T09:06:39Z</time>
      </trkpt>
      <trkpt lat="47.52135" lon="-2.82921">
        <ele>10.8</ele>
        <time>2021-08-06T09:06:40Z</time>
      </trkpt>
      <trkpt lat="47.52132" lon="-2.8292">
        <ele>11</ele>
        <time>2021-08-06T09:06:41Z</time>
      </trkpt>
      <trkpt lat="47.52129" lon="-2.82918">
        <ele>11.2</ele>
        <time>2021-08-06T09:06:42Z</time>
      </trkpt>
      <trkpt lat="47.52127" lon="-2.82916">
        <ele>11.4</ele>
        <time>2021-08-06T09:06:43Z</time>
      </trkpt>
      <trkpt lat="47.52124" lon="-2.82914">
        <ele>11.6</ele>
        <time>2021-08-06T09:06:44Z</time>
      </trkpt>
      <trkpt lat="47.52122" lon="-2.82912">
        <ele>11.6</ele>
        <time>2021-08-06T09:06:45Z</time>
      </trkpt>
      <trkpt lat="47.5212" lon="-2.8291">
        <ele>11.8</ele>
        <time>2021-08-06T09:06:46Z</time>
      </trkpt>
      <trkpt lat="47.52117" lon="-2.82907">
        <ele>11.8</ele>
        <time>2021-08-06T09:06:47Z</time>
      </trkpt>
      <trkpt lat="47.52115" lon="-2.82905">
        <ele>12</ele>
        <time>2021-08-06T09:06:48Z</time>
      </trkpt>
      <trkpt lat="47.52113" lon="-2.82902">
        <ele>12.2</ele>
        <time>2021-08-06T09:06:49Z</time>
      </trkpt>
      <trkpt lat="47.52111" lon="-2.82899">
        <ele>12.2</ele>
        <time>2021-08-06T09:06:50Z</time>
      </trkpt>
      <trkpt lat="47.52109" lon="-2.82896">
        <ele>12.4</ele>
        <time>2021-08-06T09:06:51Z</time>
      </trkpt>
      <trkpt lat="47.52107" lon="-2.82894">
        <ele>12.6</ele>
        <time>2021-08-06T09:06:52Z</time>
      </trkpt>
      <trkpt lat="47.52106" lon="-2.82891">
        <ele>12.8</ele>
        <time>2021-08-06T09:06:53Z</time>
      </trkpt>
      <trkpt lat="47.52104" lon="-2.82888">
        <ele>12.8</ele>
        <time>2021-08-06T09:06:54Z</time>
      </trkpt>
      <trkpt lat="47.52103" lon="-2.82885">
        <ele>13</ele>
        <time>2021-08-06T09:06:55Z</time>
      </trkpt>
      <trkpt lat="47.52101" lon="-2.82882">
        <ele>13.4</ele>
        <time>2021-08-06T09:06:56Z</time>
      </trkpt>
      <trkpt lat="47.521" lon="-2.82879">
        <ele>13.6</ele>
        <time>2021-08-06T09:06:57Z</time>
      </trkpt>
      <trkpt lat="47.52098" lon="-2.82876">
        <ele>13.8</ele>
        <time>2021-08-06T09:06:58Z</time>
      </trkpt>
      <trkpt lat="47.52097" lon="-2.82872">
        <ele>14</ele>
        <time>2021-08-06T09:06:59Z</time>
      </trkpt>
      <trkpt lat="47.52095" lon="-2.82868">
        <ele>14.2</ele>
        <time>2021-08-06T09:07:00Z</time>
      </trkpt>
      <trkpt lat="47.52093" lon="-2.82864">
        <ele>14.4</ele>
        <time>2021-08-06T09:07:01Z</time>
      </trkpt>
      <trkpt lat="47.52091" lon="-2.8286">
        <ele>14.2</ele>
        <time>2021-08-06T09:07:02Z</time>
      </trkpt>
      <trkpt lat="47.52089" lon="-2.82856">
        <ele>14.4</ele>
        <time>2021-08-06T09:07:03Z</time>
      </trkpt>
      <trkpt lat="47.52088" lon="-2.82852">
        <ele>14.4</ele>
        <time>2021-08-06T09:07:04Z</time>
      </trkpt>
      <trkpt lat="47.52086" lon="-2.82848">
        <ele>14.6</ele>
        <time>2021-08-06T09:07:05Z</time>
      </trkpt>
      <trkpt lat="47.52084" lon="-2.82844">
        <ele>14.8</ele>
        <time>2021-08-06T09:07:06Z</time>
      </trkpt>
      <trkpt lat="47.52082" lon="-2.8284">
        <ele>14.8</ele>
        <time>2021-08-06T09:07:07Z</time>
      </trkpt>
      <trkpt lat="47.5208" lon="-2.82836">
        <ele>15</ele>
        <time>2021-08-06T09:07:08Z</time>
      </trkpt>
      <trkpt lat="47.52079" lon="-2.82833">
        <ele>15</ele>
        <time>2021-08-06T09:07:09Z</time>
      </trkpt>
      <trkpt lat="47.52077" lon="-2.82828">
        <ele>15</ele>
        <time>2021-08-06T09:07:10Z</time>
      </trkpt>
      <trkpt lat="47.52075" lon="-2.82824">
        <ele>15</ele>
        <time>2021-08-06T09:07:11Z</time>
      </trkpt>
      <trkpt lat="47.52074" lon="-2.8282">
        <ele>15.2</ele>
        <time>2021-08-06T09:07:12Z</time>
      </trkpt>
      <trkpt lat="47.52072" lon="-2.82816">
        <ele>15.2</ele>
        <time>2021-08-06T09:07:13Z</time>
      </trkpt>
      <trkpt lat="47.5207" lon="-2.82813">
        <ele>15.4</ele>
        <time>2021-08-06T09:07:14Z</time>
      </trkpt>
      <trkpt lat="47.52069" lon="-2.82809">
        <ele>15.4</ele>
        <time>2021-08-06T09:07:15Z</time>
      </trkpt>
      <trkpt lat="47.52067" lon="-2.82805">
        <ele>15.4</ele>
        <time>2021-08-06T09:07:16Z</time>
      </trkpt>
      <trkpt lat="47.52065" lon="-2.82802">
        <ele>15.6</ele>
        <time>2021-08-06T09:07:17Z</time>
      </trkpt>
      <trkpt lat="47.52064" lon="-2.82798">
        <ele>15.8</ele>
        <time>2021-08-06T09:07:18Z</time>
      </trkpt>
      <trkpt lat="47.52062" lon="-2.82794">
        <ele>15.8</ele>
        <time>2021-08-06T09:07:19Z</time>
      </trkpt>
      <trkpt lat="47.52061" lon="-2.8279">
        <ele>16</ele>
        <time>2021-08-06T09:07:20Z</time>
      </trkpt>
      <trkpt lat="47.52059" lon="-2.82787">
        <ele>16</ele>
        <time>2021-08-06T09:07:21Z</time>
      </trkpt>
      <trkpt lat="47.52057" lon="-2.82783">
        <ele>16.2</ele>
        <time>2021-08-06T09:07:22Z</time>
      </trkpt>
      <trkpt lat="47.52055" lon="-2.8278">
        <ele>16.4</ele>
        <time>2021-08-06T09:07:23Z</time>
      </trkpt>
      <trkpt lat="47.52053" lon="-2.82776">
        <ele>16.4</ele>
        <time>2021-08-06T09:07:24Z</time>
      </trkpt>
      <trkpt lat="47.52052" lon="-2.82772">
        <ele>16.6</ele>
        <time>2021-08-06T09:07:25Z</time>
      </trkpt>
      <trkpt lat="47.5205" lon="-2.82768">
        <ele>16.6</ele>
        <time>2021-08-06T09:07:26Z</time>
      </trkpt>
      <trkpt lat="47.52048" lon="-2.82765">
        <ele>16.8</ele>
        <time>2021-08-06T09:07:27Z</time>
      </trkpt>
      <trkpt lat="47.52046" lon="-2.82761">
        <ele>17</ele>
        <time>2021-08-06T09:07:28Z</time>
      </trkpt>
      <trkpt lat="47.52045" lon="-2.82758">
        <ele>16.8</ele>
        <time>2021-08-06T09:07:29Z</time>
      </trkpt>
      <trkpt lat="47.52043" lon="-2.82754">
        <ele>17</ele>
        <time>2021-08-06T09:07:30Z</time>
      </trkpt>
      <trkpt lat="47.52042" lon="-2.8275">
        <ele>17</ele>
        <time>2021-08-06T09:07:31Z</time>
      </trkpt>
      <trkpt lat="47.5204" lon="-2.82747">
        <ele>17.2</ele>
        <time>2021-08-06T09:07:32Z</time>
      </trkpt>
      <trkpt lat="47.52038" lon="-2.82743">
        <ele>17.2</ele>
        <time>2021-08-06T09:07:33Z</time>
      </trkpt>
      <trkpt lat="47.52036" lon="-2.82739">
        <ele>17.4</ele>
        <time>2021-08-06T09:07:34Z</time>
      </trkpt>
      <trkpt lat="47.52035" lon="-2.82735">
        <ele>17.6</ele>
        <time>2021-08-06T09:07:35Z</time>
      </trkpt>
      <trkpt lat="47.52034" lon="-2.82731">
        <ele>17.8</ele>
        <time>2021-08-06T09:07:36Z</time>
      </trkpt>
      <trkpt lat="47.52032" lon="-2.82727">
        <ele>18</ele>
        <time>2021-08-06T09:07:37Z</time>
      </trkpt>
      <trkpt lat="47.52031" lon="-2.82723">
        <ele>18.2</ele>
        <time>2021-08-06T09:07:38Z</time>
      </trkpt>
      <trkpt lat="47.5203" lon="-2.82719">
        <ele>18.4</ele>
        <time>2021-08-06T09:07:39Z</time>
      </trkpt>
      <trkpt lat="47.52029" lon="-2.82715">
        <ele>18.8</ele>
        <time>2021-08-06T09:07:40Z</time>
      </trkpt>
      <trkpt lat="47.52028" lon="-2.82711">
        <ele>18.8</ele>
        <time>2021-08-06T09:07:41Z</time>
      </trkpt>
      <trkpt lat="47.52027" lon="-2.82707">
        <ele>18.8</ele>
        <time>2021-08-06T09:07:42Z</time>
      </trkpt>
      <trkpt lat="47.52027" lon="-2.82703">
        <ele>19</ele>
        <time>2021-08-06T09:07:43Z</time>
      </trkpt>
      <trkpt lat="47.52026" lon="-2.82699">
        <ele>19.2</ele>
        <time>2021-08-06T09:07:44Z</time>
      </trkpt>
      <trkpt lat="47.52025" lon="-2.82694">
        <ele>19.2</ele>
        <time>2021-08-06T09:07:45Z</time>
      </trkpt>
      <trkpt lat="47.52025" lon="-2.8269">
        <ele>19.2</ele>
        <time>2021-08-06T09:07:46Z</time>
      </trkpt>
      <trkpt lat="47.52024" lon="-2.82686">
        <ele>19.4</ele>
        <time>2021-08-06T09:07:47Z</time>
      </trkpt>
      <trkpt lat="47.52023" lon="-2.82681">
        <ele>19.6</ele>
        <time>2021-08-06T09:07:48Z</time>
      </trkpt>
      <trkpt lat="47.52023" lon="-2.82677">
        <ele>19.8</ele>
        <time>2021-08-06T09:07:49Z</time>
      </trkpt>
      <trkpt lat="47.52022" lon="-2.82673">
        <ele>19.8</ele>
        <time>2021-08-06T09:07:50Z</time>
      </trkpt>
      <trkpt lat="47.52022" lon="-2.82668">
        <ele>20</ele>
        <time>2021-08-06T09:07:51Z</time>
      </trkpt>
      <trkpt lat="47.52021" lon="-2.82664">
        <ele>20</ele>
        <time>2021-08-06T09:07:52Z</time>
      </trkpt>
      <trkpt lat="47.5202" lon="-2.82659">
        <ele>20.2</ele>
        <time>2021-08-06T09:07:53Z</time>
      </trkpt>
      <trkpt lat="47.52019" lon="-2.82655">
        <ele>20.4</ele>
        <time>2021-08-06T09:07:54Z</time>
      </trkpt>
      <trkpt lat="47.52018" lon="-2.82651">
        <ele>20.6</ele>
        <time>2021-08-06T09:07:55Z</time>
      </trkpt>
      <trkpt lat="47.52017" lon="-2.82647">
        <ele>20.6</ele>
        <time>2021-08-06T09:07:56Z</time>
      </trkpt>
      <trkpt lat="47.52015" lon="-2.82643">
        <ele>20.8</ele>
        <time>2021-08-06T09:07:57Z</time>
      </trkpt>
      <trkpt lat="47.52014" lon="-2.82639">
        <ele>20.8</ele>
        <time>2021-08-06T09:07:58Z</time>
      </trkpt>
      <trkpt lat="47.52013" lon="-2.82635">
        <ele>21</ele>
        <time>2021-08-06T09:07:59Z</time>
      </trkpt>
      <trkpt lat="47.52011" lon="-2.82632">
        <ele>21</ele>
        <time>2021-08-06T09:08:00Z</time>
      </trkpt>
      <trkpt lat="47.5201" lon="-2.82628">
        <ele>21.2</ele>
        <time>2021-08-06T09:08:01Z</time>
      </trkpt>
      <trkpt lat="47.52008" lon="-2.82624">
        <ele>21.2</ele>
        <time>2021-08-06T09:08:02Z</time>
      </trkpt>
      <trkpt lat="47.52006" lon="-2.8262">
        <ele>21.4</ele>
        <time>2021-08-06T09:08:03Z</time>
      </trkpt>
      <trkpt lat="47.52005" lon="-2.82617">
        <ele>21.6</ele>
        <time>2021-08-06T09:08:04Z</time>
      </trkpt>
      <trkpt lat="47.52003" lon="-2.82613">
        <ele>21.4</ele>
        <time>2021-08-06T09:08:05Z</time>
      </trkpt>
      <trkpt lat="47.52002" lon="-2.82609">
        <ele>21.4</ele>
        <time>2021-08-06T09:08:06Z</time>
      </trkpt>
      <trkpt lat="47.52" lon="-2.82605">
        <ele>21.6</ele>
        <time>2021-08-06T09:08:07Z</time>
      </trkpt>
      <trkpt lat="47.51999" lon="-2.82601">
        <ele>21.8</ele>
        <time>2021-08-06T09:08:08Z</time>
      </trkpt>
      <trkpt lat="47.51997" lon="-2.82597">
        <ele>22</ele>
        <time>2021-08-06T09:08:09Z</time>
      </trkpt>
      <trkpt lat="47.51996" lon="-2.82594">
        <ele>22.2</ele>
        <time>2021-08-06T09:08:10Z</time>
      </trkpt>
      <trkpt lat="47.51995" lon="-2.82591">
        <ele>22.2</ele>
        <time>2021-08-06T09:08:11Z</time>
      </trkpt>
      <trkpt lat="47.51994" lon="-2.82589">
        <ele>22.4</ele>
        <time>2021-08-06T09:08:12Z</time>
      </trkpt>
      <trkpt lat="47.51992" lon="-2.82585">
        <ele>22.4</ele>
        <time>2021-08-06T09:08:13Z</time>
      </trkpt>
      <trkpt lat="47.51991" lon="-2.82582">
        <ele>22.4</ele>
        <time>2021-08-06T09:08:14Z</time>
      </trkpt>
      <trkpt lat="47.51989" lon="-2.82579">
        <ele>22.6</ele>
        <time>2021-08-06T09:08:15Z</time>
      </trkpt>
      <trkpt lat="47.51987" lon="-2.82575">
        <ele>22.6</ele>
        <time>2021-08-06T09:08:16Z</time>
      </trkpt>
      <trkpt lat="47.51985" lon="-2.82571">
        <ele>22.6</ele>
        <time>2021-08-06T09:08:17Z</time>
      </trkpt>
      <trkpt lat="47.51984" lon="-2.82567">
        <ele>22.8</ele>
        <time>2021-08-06T09:08:18Z</time>
      </trkpt>
      <trkpt lat="47.51982" lon="-2.82562">
        <ele>22.8</ele>
        <time>2021-08-06T09:08:19Z</time>
      </trkpt>
      <trkpt lat="47.5198" lon="-2.82557">
        <ele>22.8</ele>
        <time>2021-08-06T09:08:20Z</time>
      </trkpt>
      <trkpt lat="47.51979" lon="-2.82552">
        <ele>22.8</ele>
        <time>2021-08-06T09:08:21Z</time>
      </trkpt>
      <trkpt lat="47.51977" lon="-2.82547">
        <ele>22.8</ele>
        <time>2021-08-06T09:08:22Z</time>
      </trkpt>
      <trkpt lat="47.51976" lon="-2.82541">
        <ele>23</ele>
        <time>2021-08-06T09:08:23Z</time>
      </trkpt>
      <trkpt lat="47.51974" lon="-2.82535">
        <ele>23</ele>
        <time>2021-08-06T09:08:24Z</time>
      </trkpt>
      <trkpt lat="47.51973" lon="-2.82529">
        <ele>23</ele>
        <time>2021-08-06T09:08:25Z</time>
      </trkpt>
      <trkpt lat="47.51971" lon="-2.82523">
        <ele>23</ele>
        <time>2021-08-06T09:08:26Z</time>
      </trkpt>
      <trkpt lat="47.5197" lon="-2.82517">
        <ele>23</ele>
        <time>2021-08-06T09:08:27Z</time>
      </trkpt>
      <trkpt lat="47.51968" lon="-2.82511">
        <ele>23</ele>
        <time>2021-08-06T09:08:28Z</time>
      </trkpt>
      <trkpt lat="47.51967" lon="-2.82505">
        <ele>23</ele>
        <time>2021-08-06T09:08:29Z</time>
      </trkpt>
      <trkpt lat="47.51966" lon="-2.82499">
        <ele>23</ele>
        <time>2021-08-06T09:08:30Z</time>
      </trkpt>
      <trkpt lat="47.51965" lon="-2.82493">
        <ele>23</ele>
        <time>2021-08-06T09:08:31Z</time>
      </trkpt>
      <trkpt lat="47.51963" lon="-2.82486">
        <ele>22.8</ele>
        <time>2021-08-06T09:08:32Z</time>
      </trkpt>
      <trkpt lat="47.51962" lon="-2.82479">
        <ele>22.8</ele>
        <time>2021-08-06T09:08:33Z</time>
      </trkpt>
      <trkpt lat="47.51961" lon="-2.82473">
        <ele>22.8</ele>
        <time>2021-08-06T09:08:34Z</time>
      </trkpt>
      <trkpt lat="47.5196" lon="-2.82466">
        <ele>22.8</ele>
        <time>2021-08-06T09:08:35Z</time>
      </trkpt>
      <trkpt lat="47.51959" lon="-2.8246">
        <ele>22.8</ele>
        <time>2021-08-06T09:08:36Z</time>
      </trkpt>
      <trkpt lat="47.51958" lon="-2.82452">
        <ele>23</ele>
        <time>2021-08-06T09:08:37Z</time>
      </trkpt>
      <trkpt lat="47.51957" lon="-2.82445">
        <ele>23</ele>
        <time>2021-08-06T09:08:38Z</time>
      </trkpt>
      <trkpt lat="47.51956" lon="-2.82438">
        <ele>23</ele>
        <time>2021-08-06T09:08:39Z</time>
      </trkpt>
      <trkpt lat="47.51955" lon="-2.82431">
        <ele>23</ele>
        <time>2021-08-06T09:08:40Z</time>
      </trkpt>
      <trkpt lat="47.51954" lon="-2.82425">
        <ele>23</ele>
        <time>2021-08-06T09:08:41Z</time>
      </trkpt>
      <trkpt lat="47.51953" lon="-2.82418">
        <ele>23</ele>
        <time>2021-08-06T09:08:42Z</time>
      </trkpt>
      <trkpt lat="47.51951" lon="-2.82411">
        <ele>23</ele>
        <time>2021-08-06T09:08:43Z</time>
      </trkpt>
      <trkpt lat="47.5195" lon="-2.82405">
        <ele>23</ele>
        <time>2021-08-06T09:08:44Z</time>
      </trkpt>
      <trkpt lat="47.51949" lon="-2.82398">
        <ele>23</ele>
        <time>2021-08-06T09:08:45Z</time>
      </trkpt>
      <trkpt lat="47.51948" lon="-2.82392">
        <ele>23</ele>
        <time>2021-08-06T09:08:46Z</time>
      </trkpt>
      <trkpt lat="47.51947" lon="-2.82385">
        <ele>23</ele>
        <time>2021-08-06T09:08:47Z</time>
      </trkpt>
      <trkpt lat="47.51945" lon="-2.8238">
        <ele>23</ele>
        <time>2021-08-06T09:08:48Z</time>
      </trkpt>
      <trkpt lat="47.51944" lon="-2.82373">
        <ele>23</ele>
        <time>2021-08-06T09:08:49Z</time>
      </trkpt>
      <trkpt lat="47.51943" lon="-2.82368">
        <ele>23</ele>
        <time>2021-08-06T09:08:50Z</time>
      </trkpt>
      <trkpt lat="47.51942" lon="-2.82363">
        <ele>23</ele>
        <time>2021-08-06T09:08:51Z</time>
      </trkpt>
      <trkpt lat="47.51942" lon="-2.82359">
        <ele>23</ele>
        <time>2021-08-06T09:08:52Z</time>
      </trkpt>
      <trkpt lat="47.51941" lon="-2.82355">
        <ele>23</ele>
        <time>2021-08-06T09:08:53Z</time>
      </trkpt>
      <trkpt lat="47.5194" lon="-2.82349">
        <ele>22.8</ele>
        <time>2021-08-06T09:08:54Z</time>
      </trkpt>
      <trkpt lat="47.51939" lon="-2.82343">
        <ele>22.8</ele>
        <time>2021-08-06T09:08:55Z</time>
      </trkpt>
      <trkpt lat="47.51937" lon="-2.82337">
        <ele>22.8</ele>
        <time>2021-08-06T09:08:56Z</time>
      </trkpt>
      <trkpt lat="47.51936" lon="-2.82331">
        <ele>22.8</ele>
        <time>2021-08-06T09:08:57Z</time>
      </trkpt>
      <trkpt lat="47.51935" lon="-2.82324">
        <ele>22.8</ele>
        <time>2021-08-06T09:08:58Z</time>
      </trkpt>
      <trkpt lat="47.51934" lon="-2.82317">
        <ele>22.8</ele>
        <time>2021-08-06T09:08:59Z</time>
      </trkpt>
      <trkpt lat="47.51933" lon="-2.8231">
        <ele>22.8</ele>
        <time>2021-08-06T09:09:00Z</time>
      </trkpt>
      <trkpt lat="47.51932" lon="-2.82303">
        <ele>22.8</ele>
        <time>2021-08-06T09:09:01Z</time>
      </trkpt>
      <trkpt lat="47.51931" lon="-2.82295">
        <ele>22.8</ele>
        <time>2021-08-06T09:09:02Z</time>
      </trkpt>
      <trkpt lat="47.5193" lon="-2.82288">
        <ele>22.6</ele>
        <time>2021-08-06T09:09:03Z</time>
      </trkpt>
      <trkpt lat="47.51929" lon="-2.82279">
        <ele>22.4</ele>
        <time>2021-08-06T09:09:04Z</time>
      </trkpt>
      <trkpt lat="47.51927" lon="-2.82271">
        <ele>22.2</ele>
        <time>2021-08-06T09:09:05Z</time>
      </trkpt>
      <trkpt lat="47.51926" lon="-2.82263">
        <ele>22.2</ele>
        <time>2021-08-06T09:09:06Z</time>
      </trkpt>
      <trkpt lat="47.51925" lon="-2.82255">
        <ele>22.2</ele>
        <time>2021-08-06T09:09:07Z</time>
      </trkpt>
      <trkpt lat="47.51924" lon="-2.82247">
        <ele>22.2</ele>
        <time>2021-08-06T09:09:08Z</time>
      </trkpt>
      <trkpt lat="47.51923" lon="-2.82239">
        <ele>22.2</ele>
        <time>2021-08-06T09:09:09Z</time>
      </trkpt>
      <trkpt lat="47.51921" lon="-2.82231">
        <ele>22.2</ele>
        <time>2021-08-06T09:09:10Z</time>
      </trkpt>
      <trkpt lat="47.5192" lon="-2.82223">
        <ele>22</ele>
        <time>2021-08-06T09:09:11Z</time>
      </trkpt>
      <trkpt lat="47.51919" lon="-2.82215">
        <ele>22</ele>
        <time>2021-08-06T09:09:12Z</time>
      </trkpt>
      <trkpt lat="47.51917" lon="-2.82208">
        <ele>22</ele>
        <time>2021-08-06T09:09:13Z</time>
      </trkpt>
      <trkpt lat="47.51916" lon="-2.822">
        <ele>22</ele>
        <time>2021-08-06T09:09:14Z</time>
      </trkpt>
      <trkpt lat="47.51915" lon="-2.82193">
        <ele>21.8</ele>
        <time>2021-08-06T09:09:15Z</time>
      </trkpt>
      <trkpt lat="47.51915" lon="-2.82186">
        <ele>21.8</ele>
        <time>2021-08-06T09:09:16Z</time>
      </trkpt>
      <trkpt lat="47.51914" lon="-2.82179">
        <ele>21.6</ele>
        <time>2021-08-06T09:09:17Z</time>
      </trkpt>
      <trkpt lat="47.51915" lon="-2.82173">
        <ele>21.6</ele>
        <time>2021-08-06T09:09:18Z</time>
      </trkpt>
      <trkpt lat="47.51918" lon="-2.82168">
        <ele>21.6</ele>
        <time>2021-08-06T09:09:19Z</time>
      </trkpt>
      <trkpt lat="47.51921" lon="-2.82165">
        <ele>21.4</ele>
        <time>2021-08-06T09:09:20Z</time>
      </trkpt>
      <trkpt lat="47.51924" lon="-2.82163">
        <ele>21.4</ele>
        <time>2021-08-06T09:09:21Z</time>
      </trkpt>
      <trkpt lat="47.51928" lon="-2.82162">
        <ele>21.4</ele>
        <time>2021-08-06T09:09:22Z</time>
      </trkpt>
      <trkpt lat="47.51932" lon="-2.82161">
        <ele>21.4</ele>
        <time>2021-08-06T09:09:23Z</time>
      </trkpt>
      <trkpt lat="47.51935" lon="-2.8216">
        <ele>21.4</ele>
        <time>2021-08-06T09:09:24Z</time>
      </trkpt>
      <trkpt lat="47.51939" lon="-2.82159">
        <ele>21.4</ele>
        <time>2021-08-06T09:09:25Z</time>
      </trkpt>
      <trkpt lat="47.51942" lon="-2.82158">
        <ele>21.4</ele>
        <time>2021-08-06T09:09:26Z</time>
      </trkpt>
      <trkpt lat="47.51946" lon="-2.82156">
        <ele>21.4</ele>
        <time>2021-08-06T09:09:27Z</time>
      </trkpt>
      <trkpt lat="47.5195" lon="-2.82155">
        <ele>21.4</ele>
        <time>2021-08-06T09:09:28Z</time>
      </trkpt>
      <trkpt lat="47.51953" lon="-2.82154">
        <ele>21.4</ele>
        <time>2021-08-06T09:09:29Z</time>
      </trkpt>
      <trkpt lat="47.51957" lon="-2.82153">
        <ele>21.4</ele>
        <time>2021-08-06T09:09:30Z</time>
      </trkpt>
      <trkpt lat="47.5196" lon="-2.82152">
        <ele>21.6</ele>
        <time>2021-08-06T09:09:31Z</time>
      </trkpt>
      <trkpt lat="47.51964" lon="-2.82151">
        <ele>21.8</ele>
        <time>2021-08-06T09:09:32Z</time>
      </trkpt>
      <trkpt lat="47.51968" lon="-2.8215">
        <ele>22</ele>
        <time>2021-08-06T09:09:33Z</time>
      </trkpt>
      <trkpt lat="47.51971" lon="-2.82148">
        <ele>22.2</ele>
        <time>2021-08-06T09:09:34Z</time>
      </trkpt>
      <trkpt lat="47.51974" lon="-2.82146">
        <ele>22.4</ele>
        <time>2021-08-06T09:09:35Z</time>
      </trkpt>
      <trkpt lat="47.51977" lon="-2.82142">
        <ele>22.6</ele>
        <time>2021-08-06T09:09:36Z</time>
      </trkpt>
      <trkpt lat="47.51979" lon="-2.82138">
        <ele>22.6</ele>
        <time>2021-08-06T09:09:37Z</time>
      </trkpt>
      <trkpt lat="47.51982" lon="-2.82134">
        <ele>22.6</ele>
        <time>2021-08-06T09:09:38Z</time>
      </trkpt>
      <trkpt lat="47.51984" lon="-2.82129">
        <ele>22.8</ele>
        <time>2021-08-06T09:09:39Z</time>
      </trkpt>
      <trkpt lat="47.51986" lon="-2.82125">
        <ele>22.8</ele>
        <time>2021-08-06T09:09:40Z</time>
      </trkpt>
      <trkpt lat="47.51988" lon="-2.8212">
        <ele>22.8</ele>
        <time>2021-08-06T09:09:41Z</time>
      </trkpt>
      <trkpt lat="47.51991" lon="-2.82116">
        <ele>22.8</ele>
        <time>2021-08-06T09:09:42Z</time>
      </trkpt>
      <trkpt lat="47.51993" lon="-2.82113">
        <ele>23</ele>
        <time>2021-08-06T09:09:43Z</time>
      </trkpt>
      <trkpt lat="47.51996" lon="-2.8211">
        <ele>23</ele>
        <time>2021-08-06T09:09:44Z</time>
      </trkpt>
      <trkpt lat="47.51999" lon="-2.82107">
        <ele>23</ele>
        <time>2021-08-06T09:09:45Z</time>
      </trkpt>
      <trkpt lat="47.52002" lon="-2.82105">
        <ele>23</ele>
        <time>2021-08-06T09:09:46Z</time>
      </trkpt>
      <trkpt lat="47.52005" lon="-2.82102">
        <ele>23</ele>
        <time>2021-08-06T09:09:47Z</time>
      </trkpt>
      <trkpt lat="47.52009" lon="-2.821">
        <ele>23.2</ele>
        <time>2021-08-06T09:09:48Z</time>
      </trkpt>
      <trkpt lat="47.52012" lon="-2.82098">
        <ele>23.4</ele>
        <time>2021-08-06T09:09:49Z</time>
      </trkpt>
      <trkpt lat="47.52015" lon="-2.82096">
        <ele>23.6</ele>
        <time>2021-08-06T09:09:50Z</time>
      </trkpt>
      <trkpt lat="47.52018" lon="-2.82094">
        <ele>23.6</ele>
        <time>2021-08-06T09:09:51Z</time>
      </trkpt>
      <trkpt lat="47.52021" lon="-2.82091">
        <ele>24</ele>
        <time>2021-08-06T09:09:52Z</time>
      </trkpt>
      <trkpt lat="47.52024" lon="-2.82089">
        <ele>24.2</ele>
        <time>2021-08-06T09:09:53Z</time>
      </trkpt>
      <trkpt lat="47.52027" lon="-2.82086">
        <ele>24.2</ele>
        <time>2021-08-06T09:09:54Z</time>
      </trkpt>
      <trkpt lat="47.5203" lon="-2.82084">
        <ele>24.2</ele>
        <time>2021-08-06T09:09:55Z</time>
      </trkpt>
      <trkpt lat="47.52033" lon="-2.82082">
        <ele>24.4</ele>
        <time>2021-08-06T09:09:56Z</time>
      </trkpt>
      <trkpt lat="47.52036" lon="-2.82079">
        <ele>24.4</ele>
        <time>2021-08-06T09:09:57Z</time>
      </trkpt>
      <trkpt lat="47.52039" lon="-2.82076">
        <ele>24.4</ele>
        <time>2021-08-06T09:09:58Z</time>
      </trkpt>
      <trkpt lat="47.52042" lon="-2.82073">
        <ele>24.4</ele>
        <time>2021-08-06T09:09:59Z</time>
      </trkpt>
      <trkpt lat="47.52045" lon="-2.8207">
        <ele>24.8</ele>
        <time>2021-08-06T09:10:00Z</time>
      </trkpt>
      <trkpt lat="47.52048" lon="-2.82067">
        <ele>24.6</ele>
        <time>2021-08-06T09:10:01Z</time>
      </trkpt>
      <trkpt lat="47.52051" lon="-2.82063">
        <ele>25</ele>
        <time>2021-08-06T09:10:02Z</time>
      </trkpt>
      <trkpt lat="47.52054" lon="-2.8206">
        <ele>25</ele>
        <time>2021-08-06T09:10:03Z</time>
      </trkpt>
      <trkpt lat="47.52057" lon="-2.82057">
        <ele>25</ele>
        <time>2021-08-06T09:10:04Z</time>
      </trkpt>
      <trkpt lat="47.52059" lon="-2.82053">
        <ele>25.2</ele>
        <time>2021-08-06T09:10:05Z</time>
      </trkpt>
      <trkpt lat="47.52062" lon="-2.8205">
        <ele>25.2</ele>
        <time>2021-08-06T09:10:06Z</time>
      </trkpt>
      <trkpt lat="47.52065" lon="-2.82046">
        <ele>25.2</ele>
        <time>2021-08-06T09:10:07Z</time>
      </trkpt>
      <trkpt lat="47.52068" lon="-2.82042">
        <ele>25.4</ele>
        <time>2021-08-06T09:10:08Z</time>
      </trkpt>
      <trkpt lat="47.52071" lon="-2.82039">
        <ele>25.4</ele>
        <time>2021-08-06T09:10:09Z</time>
      </trkpt>
      <trkpt lat="47.52074" lon="-2.82035">
        <ele>25.4</ele>
        <time>2021-08-06T09:10:10Z</time>
      </trkpt>
      <trkpt lat="47.52076" lon="-2.82031">
        <ele>25.4</ele>
        <time>2021-08-06T09:10:11Z</time>
      </trkpt>
      <trkpt lat="47.52079" lon="-2.82027">
        <ele>25.6</ele>
        <time>2021-08-06T09:10:12Z</time>
      </trkpt>
      <trkpt lat="47.52081" lon="-2.82023">
        <ele>25.6</ele>
        <time>2021-08-06T09:10:13Z</time>
      </trkpt>
      <trkpt lat="47.52084" lon="-2.8202">
        <ele>25.6</ele>
        <time>2021-08-06T09:10:14Z</time>
      </trkpt>
      <trkpt lat="47.52086" lon="-2.82016">
        <ele>25.6</ele>
        <time>2021-08-06T09:10:15Z</time>
      </trkpt>
      <trkpt lat="47.52088" lon="-2.82013">
        <ele>25.8</ele>
        <time>2021-08-06T09:10:16Z</time>
      </trkpt>
      <trkpt lat="47.52091" lon="-2.8201">
        <ele>25.8</ele>
        <time>2021-08-06T09:10:17Z</time>
      </trkpt>
      <trkpt lat="47.52094" lon="-2.82006">
        <ele>25.8</ele>
        <time>2021-08-06T09:10:18Z</time>
      </trkpt>
      <trkpt lat="47.52097" lon="-2.82003">
        <ele>25.8</ele>
        <time>2021-08-06T09:10:19Z</time>
      </trkpt>
      <trkpt lat="47.521" lon="-2.81999">
        <ele>26</ele>
        <time>2021-08-06T09:10:20Z</time>
      </trkpt>
      <trkpt lat="47.52102" lon="-2.81996">
        <ele>26</ele>
        <time>2021-08-06T09:10:21Z</time>
      </trkpt>
      <trkpt lat="47.52105" lon="-2.81992">
        <ele>26</ele>
        <time>2021-08-06T09:10:22Z</time>
      </trkpt>
      <trkpt lat="47.52108" lon="-2.81988">
        <ele>26</ele>
        <time>2021-08-06T09:10:23Z</time>
      </trkpt>
      <trkpt lat="47.52111" lon="-2.81984">
        <ele>26</ele>
        <time>2021-08-06T09:10:24Z</time>
      </trkpt>
      <trkpt lat="47.52114" lon="-2.81979">
        <ele>26.2</ele>
        <time>2021-08-06T09:10:25Z</time>
      </trkpt>
      <trkpt lat="47.52117" lon="-2.81975">
        <ele>26.2</ele>
        <time>2021-08-06T09:10:26Z</time>
      </trkpt>
      <trkpt lat="47.5212" lon="-2.8197">
        <ele>26.2</ele>
        <time>2021-08-06T09:10:27Z</time>
      </trkpt>
      <trkpt lat="47.52123" lon="-2.81966">
        <ele>26.2</ele>
        <time>2021-08-06T09:10:28Z</time>
      </trkpt>
      <trkpt lat="47.52126" lon="-2.81962">
        <ele>26.4</ele>
        <time>2021-08-06T09:10:29Z</time>
      </trkpt>
      <trkpt lat="47.52129" lon="-2.81957">
        <ele>26.4</ele>
        <time>2021-08-06T09:10:30Z</time>
      </trkpt>
      <trkpt lat="47.52132" lon="-2.81953">
        <ele>26.6</ele>
        <time>2021-08-06T09:10:31Z</time>
      </trkpt>
      <trkpt lat="47.52135" lon="-2.81948">
        <ele>26.6</ele>
        <time>2021-08-06T09:10:32Z</time>
      </trkpt>
      <trkpt lat="47.52138" lon="-2.81944">
        <ele>26.6</ele>
        <time>2021-08-06T09:10:33Z</time>
      </trkpt>
      <trkpt lat="47.52141" lon="-2.8194">
        <ele>26.6</ele>
        <time>2021-08-06T09:10:34Z</time>
      </trkpt>
      <trkpt lat="47.52144" lon="-2.81936">
        <ele>26.6</ele>
        <time>2021-08-06T09:10:35Z</time>
      </trkpt>
      <trkpt lat="47.52147" lon="-2.81932">
        <ele>26.6</ele>
        <time>2021-08-06T09:10:36Z</time>
      </trkpt>
      <trkpt lat="47.5215" lon="-2.81927">
        <ele>26.6</ele>
        <time>2021-08-06T09:10:37Z</time>
      </trkpt>
      <trkpt lat="47.52153" lon="-2.81923">
        <ele>26.6</ele>
        <time>2021-08-06T09:10:38Z</time>
      </trkpt>
      <trkpt lat="47.52155" lon="-2.81918">
        <ele>26.6</ele>
        <time>2021-08-06T09:10:39Z</time>
      </trkpt>
      <trkpt lat="47.52158" lon="-2.81913">
        <ele>26.6</ele>
        <time>2021-08-06T09:10:40Z</time>
      </trkpt>
      <trkpt lat="47.5216" lon="-2.81907">
        <ele>26.6</ele>
        <time>2021-08-06T09:10:41Z</time>
      </trkpt>
      <trkpt lat="47.52162" lon="-2.81901">
        <ele>26.6</ele>
        <time>2021-08-06T09:10:42Z</time>
      </trkpt>
      <trkpt lat="47.52163" lon="-2.81895">
        <ele>26.6</ele>
        <time>2021-08-06T09:10:43Z</time>
      </trkpt>
      <trkpt lat="47.52163" lon="-2.81888">
        <ele>26.6</ele>
        <time>2021-08-06T09:10:44Z</time>
      </trkpt>
      <trkpt lat="47.52164" lon="-2.81882">
        <ele>26.4</ele>
        <time>2021-08-06T09:10:45Z</time>
      </trkpt>
      <trkpt lat="47.52164" lon="-2.81876">
        <ele>26.4</ele>
        <time>2021-08-06T09:10:46Z</time>
      </trkpt>
      <trkpt lat="47.52163" lon="-2.81869">
        <ele>26.4</ele>
        <time>2021-08-06T09:10:47Z</time>
      </trkpt>
      <trkpt lat="47.52163" lon="-2.81864">
        <ele>26.4</ele>
        <time>2021-08-06T09:10:48Z</time>
      </trkpt>
      <trkpt lat="47.52163" lon="-2.81858">
        <ele>26.4</ele>
        <time>2021-08-06T09:10:49Z</time>
      </trkpt>
      <trkpt lat="47.52162" lon="-2.81852">
        <ele>26.4</ele>
        <time>2021-08-06T09:10:50Z</time>
      </trkpt>
      <trkpt lat="47.52161" lon="-2.81846">
        <ele>26.4</ele>
        <time>2021-08-06T09:10:51Z</time>
      </trkpt>
      <trkpt lat="47.52161" lon="-2.8184">
        <ele>26.4</ele>
        <time>2021-08-06T09:10:52Z</time>
      </trkpt>
      <trkpt lat="47.5216" lon="-2.81835">
        <ele>26.6</ele>
        <time>2021-08-06T09:10:53Z</time>
      </trkpt>
      <trkpt lat="47.52159" lon="-2.81829">
        <ele>26.6</ele>
        <time>2021-08-06T09:10:54Z</time>
      </trkpt>
      <trkpt lat="47.52159" lon="-2.81824">
        <ele>27</ele>
        <time>2021-08-06T09:10:55Z</time>
      </trkpt>
      <trkpt lat="47.52158" lon="-2.81818">
        <ele>27.2</ele>
        <time>2021-08-06T09:10:56Z</time>
      </trkpt>
      <trkpt lat="47.52158" lon="-2.81813">
        <ele>27.2</ele>
        <time>2021-08-06T09:10:57Z</time>
      </trkpt>
      <trkpt lat="47.52157" lon="-2.81807">
        <ele>27.4</ele>
        <time>2021-08-06T09:10:58Z</time>
      </trkpt>
      <trkpt lat="47.52156" lon="-2.81802">
        <ele>27.4</ele>
        <time>2021-08-06T09:10:59Z</time>
      </trkpt>
      <trkpt lat="47.52156" lon="-2.81797">
        <ele>27.4</ele>
        <time>2021-08-06T09:11:00Z</time>
      </trkpt>
      <trkpt lat="47.52155" lon="-2.81792">
        <ele>27.6</ele>
        <time>2021-08-06T09:11:01Z</time>
      </trkpt>
      <trkpt lat="47.52154" lon="-2.81787">
        <ele>27.6</ele>
        <time>2021-08-06T09:11:02Z</time>
      </trkpt>
      <trkpt lat="47.52154" lon="-2.81781">
        <ele>27.8</ele>
        <time>2021-08-06T09:11:03Z</time>
      </trkpt>
      <trkpt lat="47.52153" lon="-2.81776">
        <ele>27.8</ele>
        <time>2021-08-06T09:11:04Z</time>
      </trkpt>
      <trkpt lat="47.52153" lon="-2.8177">
        <ele>28</ele>
        <time>2021-08-06T09:11:05Z</time>
      </trkpt>
      <trkpt lat="47.52152" lon="-2.81765">
        <ele>28</ele>
        <time>2021-08-06T09:11:06Z</time>
      </trkpt>
      <trkpt lat="47.52151" lon="-2.81759">
        <ele>28.2</ele>
        <time>2021-08-06T09:11:07Z</time>
      </trkpt>
      <trkpt lat="47.52151" lon="-2.81754">
        <ele>28.2</ele>
        <time>2021-08-06T09:11:08Z</time>
      </trkpt>
      <trkpt lat="47.5215" lon="-2.81748">
        <ele>28.4</ele>
        <time>2021-08-06T09:11:09Z</time>
      </trkpt>
      <trkpt lat="47.5215" lon="-2.81743">
        <ele>28.6</ele>
        <time>2021-08-06T09:11:10Z</time>
      </trkpt>
      <trkpt lat="47.52149" lon="-2.81738">
        <ele>28.6</ele>
        <time>2021-08-06T09:11:11Z</time>
      </trkpt>
      <trkpt lat="47.52149" lon="-2.81733">
        <ele>28.4</ele>
        <time>2021-08-06T09:11:12Z</time>
      </trkpt>
      <trkpt lat="47.52148" lon="-2.81727">
        <ele>28.6</ele>
        <time>2021-08-06T09:11:13Z</time>
      </trkpt>
      <trkpt lat="47.52148" lon="-2.81722">
        <ele>28.8</ele>
        <time>2021-08-06T09:11:14Z</time>
      </trkpt>
      <trkpt lat="47.52147" lon="-2.81717">
        <ele>29</ele>
        <time>2021-08-06T09:11:15Z</time>
      </trkpt>
      <trkpt lat="47.52147" lon="-2.81712">
        <ele>29</ele>
        <time>2021-08-06T09:11:16Z</time>
      </trkpt>
      <trkpt lat="47.52146" lon="-2.81706">
        <ele>29</ele>
        <time>2021-08-06T09:11:17Z</time>
      </trkpt>
      <trkpt lat="47.52146" lon="-2.81701">
        <ele>29.2</ele>
        <time>2021-08-06T09:11:18Z</time>
      </trkpt>
      <trkpt lat="47.52145" lon="-2.81695">
        <ele>29.2</ele>
        <time>2021-08-06T09:11:19Z</time>
      </trkpt>
      <trkpt lat="47.52144" lon="-2.8169">
        <ele>29.2</ele>
        <time>2021-08-06T09:11:20Z</time>
      </trkpt>
      <trkpt lat="47.52144" lon="-2.81684">
        <ele>29.4</ele>
        <time>2021-08-06T09:11:21Z</time>
      </trkpt>
      <trkpt lat="47.52143" lon="-2.81679">
        <ele>29.4</ele>
        <time>2021-08-06T09:11:22Z</time>
      </trkpt>
      <trkpt lat="47.52143" lon="-2.81673">
        <ele>29.6</ele>
        <time>2021-08-06T09:11:23Z</time>
      </trkpt>
      <trkpt lat="47.52142" lon="-2.81668">
        <ele>29.6</ele>
        <time>2021-08-06T09:11:24Z</time>
      </trkpt>
      <trkpt lat="47.52142" lon="-2.81662">
        <ele>29.8</ele>
        <time>2021-08-06T09:11:25Z</time>
      </trkpt>
      <trkpt lat="47.52141" lon="-2.81657">
        <ele>29.8</ele>
        <time>2021-08-06T09:11:26Z</time>
      </trkpt>
      <trkpt lat="47.52141" lon="-2.81652">
        <ele>29.8</ele>
        <time>2021-08-06T09:11:27Z</time>
      </trkpt>
      <trkpt lat="47.5214" lon="-2.81647">
        <ele>29.8</ele>
        <time>2021-08-06T09:11:28Z</time>
      </trkpt>
      <trkpt lat="47.52139" lon="-2.81641">
        <ele>29.8</ele>
        <time>2021-08-06T09:11:29Z</time>
      </trkpt>
      <trkpt lat="47.52139" lon="-2.81636">
        <ele>30</ele>
        <time>2021-08-06T09:11:30Z</time>
      </trkpt>
      <trkpt lat="47.52138" lon="-2.8163">
        <ele>30</ele>
        <time>2021-08-06T09:11:31Z</time>
      </trkpt>
      <trkpt lat="47.52137" lon="-2.81625">
        <ele>30</ele>
        <time>2021-08-06T09:11:32Z</time>
      </trkpt>
      <trkpt lat="47.52137" lon="-2.81619">
        <ele>30</ele>
        <time>2021-08-06T09:11:33Z</time>
      </trkpt>
      <trkpt lat="47.52136" lon="-2.81614">
        <ele>30</ele>
        <time>2021-08-06T09:11:34Z</time>
      </trkpt>
      <trkpt lat="47.52136" lon="-2.81608">
        <ele>30.2</ele>
        <time>2021-08-06T09:11:35Z</time>
      </trkpt>
      <trkpt lat="47.52135" lon="-2.81602">
        <ele>30.2</ele>
        <time>2021-08-06T09:11:36Z</time>
      </trkpt>
      <trkpt lat="47.52134" lon="-2.81595">
        <ele>30.4</ele>
        <time>2021-08-06T09:11:37Z</time>
      </trkpt>
      <trkpt lat="47.52134" lon="-2.81589">
        <ele>30.4</ele>
        <time>2021-08-06T09:11:38Z</time>
      </trkpt>
      <trkpt lat="47.52133" lon="-2.81583">
        <ele>30.4</ele>
        <time>2021-08-06T09:11:39Z</time>
      </trkpt>
      <trkpt lat="47.52133" lon="-2.81577">
        <ele>30.6</ele>
        <time>2021-08-06T09:11:40Z</time>
      </trkpt>
      <trkpt lat="47.52132" lon="-2.81571">
        <ele>30.6</ele>
        <time>2021-08-06T09:11:41Z</time>
      </trkpt>
      <trkpt lat="47.52132" lon="-2.81565">
        <ele>30.6</ele>
        <time>2021-08-06T09:11:42Z</time>
      </trkpt>
      <trkpt lat="47.52132" lon="-2.81559">
        <ele>30.8</ele>
        <time>2021-08-06T09:11:43Z</time>
      </trkpt>
      <trkpt lat="47.52133" lon="-2.81553">
        <ele>30.8</ele>
        <time>2021-08-06T09:11:44Z</time>
      </trkpt>
      <trkpt lat="47.52134" lon="-2.81548">
        <ele>30.8</ele>
        <time>2021-08-06T09:11:45Z</time>
      </trkpt>
      <trkpt lat="47.52136" lon="-2.81542">
        <ele>30.8</ele>
        <time>2021-08-06T09:11:46Z</time>
      </trkpt>
      <trkpt lat="47.52138" lon="-2.81537">
        <ele>30.8</ele>
        <time>2021-08-06T09:11:47Z</time>
      </trkpt>
      <trkpt lat="47.52141" lon="-2.81532">
        <ele>30.8</ele>
        <time>2021-08-06T09:11:48Z</time>
      </trkpt>
      <trkpt lat="47.52144" lon="-2.81528">
        <ele>30.8</ele>
        <time>2021-08-06T09:11:49Z</time>
      </trkpt>
      <trkpt lat="47.52147" lon="-2.81525">
        <ele>30.8</ele>
        <time>2021-08-06T09:11:50Z</time>
      </trkpt>
      <trkpt lat="47.52151" lon="-2.81522">
        <ele>30.8</ele>
        <time>2021-08-06T09:11:51Z</time>
      </trkpt>
      <trkpt lat="47.52156" lon="-2.8152">
        <ele>30.8</ele>
        <time>2021-08-06T09:11:52Z</time>
      </trkpt>
      <trkpt lat="47.52161" lon="-2.81518">
        <ele>30.8</ele>
        <time>2021-08-06T09:11:53Z</time>
      </trkpt>
      <trkpt lat="47.52166" lon="-2.81516">
        <ele>30.8</ele>
        <time>2021-08-06T09:11:54Z</time>
      </trkpt>
      <trkpt lat="47.52171" lon="-2.81514">
        <ele>30.8</ele>
        <time>2021-08-06T09:11:55Z</time>
      </trkpt>
      <trkpt lat="47.52176" lon="-2.81512">
        <ele>30.8</ele>
        <time>2021-08-06T09:11:56Z</time>
      </trkpt>
      <trkpt lat="47.52181" lon="-2.81511">
        <ele>30.6</ele>
        <time>2021-08-06T09:11:57Z</time>
      </trkpt>
      <trkpt lat="47.52186" lon="-2.81509">
        <ele>30.6</ele>
        <time>2021-08-06T09:11:58Z</time>
      </trkpt>
      <trkpt lat="47.52191" lon="-2.81507">
        <ele>30.6</ele>
        <time>2021-08-06T09:11:59Z</time>
      </trkpt>
      <trkpt lat="47.52196" lon="-2.81504">
        <ele>30.4</ele>
        <time>2021-08-06T09:12:00Z</time>
      </trkpt>
      <trkpt lat="47.52201" lon="-2.81502">
        <ele>30.4</ele>
        <time>2021-08-06T09:12:01Z</time>
      </trkpt>
      <trkpt lat="47.52206" lon="-2.815">
        <ele>30.2</ele>
        <time>2021-08-06T09:12:02Z</time>
      </trkpt>
      <trkpt lat="47.52211" lon="-2.81499">
        <ele>30</ele>
        <time>2021-08-06T09:12:03Z</time>
      </trkpt>
      <trkpt lat="47.52217" lon="-2.81497">
        <ele>29.8</ele>
        <time>2021-08-06T09:12:04Z</time>
      </trkpt>
      <trkpt lat="47.52222" lon="-2.81495">
        <ele>29.8</ele>
        <time>2021-08-06T09:12:05Z</time>
      </trkpt>
      <trkpt lat="47.52228" lon="-2.81493">
        <ele>29.6</ele>
        <time>2021-08-06T09:12:06Z</time>
      </trkpt>
      <trkpt lat="47.52233" lon="-2.8149">
        <ele>29.6</ele>
        <time>2021-08-06T09:12:07Z</time>
      </trkpt>
      <trkpt lat="47.52239" lon="-2.81488">
        <ele>29.6</ele>
        <time>2021-08-06T09:12:08Z</time>
      </trkpt>
      <trkpt lat="47.52245" lon="-2.81486">
        <ele>29.6</ele>
        <time>2021-08-06T09:12:09Z</time>
      </trkpt>
      <trkpt lat="47.52251" lon="-2.81484">
        <ele>29.4</ele>
        <time>2021-08-06T09:12:10Z</time>
      </trkpt>
      <trkpt lat="47.52257" lon="-2.81482">
        <ele>29.2</ele>
        <time>2021-08-06T09:12:11Z</time>
      </trkpt>
      <trkpt lat="47.52263" lon="-2.8148">
        <ele>28.8</ele>
        <time>2021-08-06T09:12:12Z</time>
      </trkpt>
      <trkpt lat="47.52269" lon="-2.81478">
        <ele>28.4</ele>
        <time>2021-08-06T09:12:13Z</time>
      </trkpt>
      <trkpt lat="47.52275" lon="-2.81475">
        <ele>28.4</ele>
        <time>2021-08-06T09:12:14Z</time>
      </trkpt>
      <trkpt lat="47.5228" lon="-2.81473">
        <ele>28.2</ele>
        <time>2021-08-06T09:12:15Z</time>
      </trkpt>
      <trkpt lat="47.52284" lon="-2.81468">
        <ele>28</ele>
        <time>2021-08-06T09:12:16Z</time>
      </trkpt>
      <trkpt lat="47.52287" lon="-2.81461">
        <ele>28</ele>
        <time>2021-08-06T09:12:17Z</time>
      </trkpt>
      <trkpt lat="47.52289" lon="-2.81454">
        <ele>27.8</ele>
        <time>2021-08-06T09:12:18Z</time>
      </trkpt>
      <trkpt lat="47.52289" lon="-2.81446">
        <ele>27.6</ele>
        <time>2021-08-06T09:12:19Z</time>
      </trkpt>
      <trkpt lat="47.52289" lon="-2.81438">
        <ele>27.6</ele>
        <time>2021-08-06T09:12:20Z</time>
      </trkpt>
      <trkpt lat="47.52288" lon="-2.8143">
        <ele>27.6</ele>
        <time>2021-08-06T09:12:21Z</time>
      </trkpt>
      <trkpt lat="47.52286" lon="-2.81423">
        <ele>27.6</ele>
        <time>2021-08-06T09:12:22Z</time>
      </trkpt>
      <trkpt lat="47.52284" lon="-2.81417">
        <ele>27.6</ele>
        <time>2021-08-06T09:12:23Z</time>
      </trkpt>
      <trkpt lat="47.5228" lon="-2.81412">
        <ele>27.6</ele>
        <time>2021-08-06T09:12:24Z</time>
      </trkpt>
      <trkpt lat="47.52276" lon="-2.81409">
        <ele>27.6</ele>
        <time>2021-08-06T09:12:25Z</time>
      </trkpt>
      <trkpt lat="47.52272" lon="-2.81405">
        <ele>27.6</ele>
        <time>2021-08-06T09:12:26Z</time>
      </trkpt>
      <trkpt lat="47.52268" lon="-2.81402">
        <ele>27.6</ele>
        <time>2021-08-06T09:12:27Z</time>
      </trkpt>
      <trkpt lat="47.52264" lon="-2.81399">
        <ele>27.6</ele>
        <time>2021-08-06T09:12:28Z</time>
      </trkpt>
      <trkpt lat="47.5226" lon="-2.81396">
        <ele>27.6</ele>
        <time>2021-08-06T09:12:29Z</time>
      </trkpt>
      <trkpt lat="47.52256" lon="-2.81393">
        <ele>27.6</ele>
        <time>2021-08-06T09:12:30Z</time>
      </trkpt>
      <trkpt lat="47.52252" lon="-2.8139">
        <ele>27.4</ele>
        <time>2021-08-06T09:12:31Z</time>
      </trkpt>
      <trkpt lat="47.52248" lon="-2.81387">
        <ele>27.4</ele>
        <time>2021-08-06T09:12:32Z</time>
      </trkpt>
      <trkpt lat="47.52244" lon="-2.81384">
        <ele>27.4</ele>
        <time>2021-08-06T09:12:33Z</time>
      </trkpt>
      <trkpt lat="47.5224" lon="-2.81381">
        <ele>27.4</ele>
        <time>2021-08-06T09:12:34Z</time>
      </trkpt>
      <trkpt lat="47.52236" lon="-2.81379">
        <ele>27.4</ele>
        <time>2021-08-06T09:12:35Z</time>
      </trkpt>
      <trkpt lat="47.52232" lon="-2.81376">
        <ele>27.6</ele>
        <time>2021-08-06T09:12:36Z</time>
      </trkpt>
      <trkpt lat="47.52228" lon="-2.81373">
        <ele>27.8</ele>
        <time>2021-08-06T09:12:37Z</time>
      </trkpt>
      <trkpt lat="47.52225" lon="-2.8137">
        <ele>28</ele>
        <time>2021-08-06T09:12:38Z</time>
      </trkpt>
      <trkpt lat="47.52221" lon="-2.81367">
        <ele>28.4</ele>
        <time>2021-08-06T09:12:39Z</time>
      </trkpt>
      <trkpt lat="47.52217" lon="-2.81364">
        <ele>28.4</ele>
        <time>2021-08-06T09:12:40Z</time>
      </trkpt>
      <trkpt lat="47.52213" lon="-2.81361">
        <ele>28.6</ele>
        <time>2021-08-06T09:12:41Z</time>
      </trkpt>
      <trkpt lat="47.5221" lon="-2.81359">
        <ele>28.6</ele>
        <time>2021-08-06T09:12:42Z</time>
      </trkpt>
      <trkpt lat="47.52206" lon="-2.81356">
        <ele>28.6</ele>
        <time>2021-08-06T09:12:43Z</time>
      </trkpt>
      <trkpt lat="47.52202" lon="-2.81354">
        <ele>28.8</ele>
        <time>2021-08-06T09:12:44Z</time>
      </trkpt>
      <trkpt lat="47.52199" lon="-2.81351">
        <ele>29</ele>
        <time>2021-08-06T09:12:45Z</time>
      </trkpt>
      <trkpt lat="47.52196" lon="-2.81349">
        <ele>29</ele>
        <time>2021-08-06T09:12:46Z</time>
      </trkpt>
      <trkpt lat="47.52193" lon="-2.81347">
        <ele>29</ele>
        <time>2021-08-06T09:12:47Z</time>
      </trkpt>
      <trkpt lat="47.52189" lon="-2.81344">
        <ele>29.2</ele>
        <time>2021-08-06T09:12:48Z</time>
      </trkpt>
      <trkpt lat="47.52186" lon="-2.81342">
        <ele>29.2</ele>
        <time>2021-08-06T09:12:49Z</time>
      </trkpt>
      <trkpt lat="47.52183" lon="-2.8134">
        <ele>29.4</ele>
        <time>2021-08-06T09:12:50Z</time>
      </trkpt>
      <trkpt lat="47.5218" lon="-2.81338">
        <ele>29.6</ele>
        <time>2021-08-06T09:12:51Z</time>
      </trkpt>
      <trkpt lat="47.52177" lon="-2.81335">
        <ele>29.6</ele>
        <time>2021-08-06T09:12:52Z</time>
      </trkpt>
      <trkpt lat="47.52174" lon="-2.81332">
        <ele>29.8</ele>
        <time>2021-08-06T09:12:53Z</time>
      </trkpt>
      <trkpt lat="47.52171" lon="-2.81329">
        <ele>30</ele>
        <time>2021-08-06T09:12:54Z</time>
      </trkpt>
      <trkpt lat="47.52168" lon="-2.81325">
        <ele>29.8</ele>
        <time>2021-08-06T09:12:55Z</time>
      </trkpt>
      <trkpt lat="47.52165" lon="-2.81321">
        <ele>30</ele>
        <time>2021-08-06T09:12:56Z</time>
      </trkpt>
      <trkpt lat="47.52162" lon="-2.81317">
        <ele>30</ele>
        <time>2021-08-06T09:12:57Z</time>
      </trkpt>
      <trkpt lat="47.5216" lon="-2.81313">
        <ele>30.2</ele>
        <time>2021-08-06T09:12:58Z</time>
      </trkpt>
      <trkpt lat="47.52157" lon="-2.81309">
        <ele>30.4</ele>
        <time>2021-08-06T09:12:59Z</time>
      </trkpt>
      <trkpt lat="47.52154" lon="-2.81305">
        <ele>30.6</ele>
        <time>2021-08-06T09:13:00Z</time>
      </trkpt>
      <trkpt lat="47.52152" lon="-2.81301">
        <ele>30.6</ele>
        <time>2021-08-06T09:13:01Z</time>
      </trkpt>
      <trkpt lat="47.5215" lon="-2.81297">
        <ele>30.6</ele>
        <time>2021-08-06T09:13:02Z</time>
      </trkpt>
      <trkpt lat="47.52147" lon="-2.81293">
        <ele>30.6</ele>
        <time>2021-08-06T09:13:03Z</time>
      </trkpt>
      <trkpt lat="47.52145" lon="-2.81289">
        <ele>30.6</ele>
        <time>2021-08-06T09:13:04Z</time>
      </trkpt>
      <trkpt lat="47.52143" lon="-2.81285">
        <ele>30.8</ele>
        <time>2021-08-06T09:13:05Z</time>
      </trkpt>
      <trkpt lat="47.52141" lon="-2.81282">
        <ele>30.8</ele>
        <time>2021-08-06T09:13:06Z</time>
      </trkpt>
      <trkpt lat="47.52139" lon="-2.81279">
        <ele>31</ele>
        <time>2021-08-06T09:13:07Z</time>
      </trkpt>
      <trkpt lat="47.52137" lon="-2.81276">
        <ele>31.2</ele>
        <time>2021-08-06T09:13:08Z</time>
      </trkpt>
      <trkpt lat="47.52135" lon="-2.81273">
        <ele>31.6</ele>
        <time>2021-08-06T09:13:09Z</time>
      </trkpt>
      <trkpt lat="47.52133" lon="-2.8127">
        <ele>31.8</ele>
        <time>2021-08-06T09:13:10Z</time>
      </trkpt>
      <trkpt lat="47.52131" lon="-2.81265">
        <ele>32</ele>
        <time>2021-08-06T09:13:11Z</time>
      </trkpt>
      <trkpt lat="47.52129" lon="-2.81261">
        <ele>32</ele>
        <time>2021-08-06T09:13:12Z</time>
      </trkpt>
      <trkpt lat="47.52127" lon="-2.81257">
        <ele>32.2</ele>
        <time>2021-08-06T09:13:13Z</time>
      </trkpt>
      <trkpt lat="47.52126" lon="-2.81253">
        <ele>32.4</ele>
        <time>2021-08-06T09:13:14Z</time>
      </trkpt>
      <trkpt lat="47.52124" lon="-2.81249">
        <ele>32.6</ele>
        <time>2021-08-06T09:13:15Z</time>
      </trkpt>
      <trkpt lat="47.52122" lon="-2.81243">
        <ele>33</ele>
        <time>2021-08-06T09:13:16Z</time>
      </trkpt>
      <trkpt lat="47.52121" lon="-2.81238">
        <ele>33.2</ele>
        <time>2021-08-06T09:13:17Z</time>
      </trkpt>
      <trkpt lat="47.52119" lon="-2.81233">
        <ele>33.4</ele>
        <time>2021-08-06T09:13:18Z</time>
      </trkpt>
      <trkpt lat="47.52118" lon="-2.81227">
        <ele>33.6</ele>
        <time>2021-08-06T09:13:19Z</time>
      </trkpt>
      <trkpt lat="47.52116" lon="-2.81222">
        <ele>33.6</ele>
        <time>2021-08-06T09:13:20Z</time>
      </trkpt>
      <trkpt lat="47.52115" lon="-2.81217">
        <ele>33.8</ele>
        <time>2021-08-06T09:13:21Z</time>
      </trkpt>
      <trkpt lat="47.52114" lon="-2.81213">
        <ele>34</ele>
        <time>2021-08-06T09:13:22Z</time>
      </trkpt>
      <trkpt lat="47.52113" lon="-2.81208">
        <ele>34</ele>
        <time>2021-08-06T09:13:23Z</time>
      </trkpt>
      <trkpt lat="47.52112" lon="-2.81204">
        <ele>34.2</ele>
        <time>2021-08-06T09:13:24Z</time>
      </trkpt>
      <trkpt lat="47.52111" lon="-2.81199">
        <ele>34.2</ele>
        <time>2021-08-06T09:13:25Z</time>
      </trkpt>
      <trkpt lat="47.5211" lon="-2.81195">
        <ele>34.2</ele>
        <time>2021-08-06T09:13:26Z</time>
      </trkpt>
      <trkpt lat="47.52109" lon="-2.81191">
        <ele>34.4</ele>
        <time>2021-08-06T09:13:27Z</time>
      </trkpt>
      <trkpt lat="47.52108" lon="-2.81186">
        <ele>34.4</ele>
        <time>2021-08-06T09:13:28Z</time>
      </trkpt>
      <trkpt lat="47.52107" lon="-2.81182">
        <ele>34.6</ele>
        <time>2021-08-06T09:13:29Z</time>
      </trkpt>
      <trkpt lat="47.52106" lon="-2.81178">
        <ele>34.8</ele>
        <time>2021-08-06T09:13:30Z</time>
      </trkpt>
      <trkpt lat="47.52105" lon="-2.81174">
        <ele>35</ele>
        <time>2021-08-06T09:13:31Z</time>
      </trkpt>
      <trkpt lat="47.52105" lon="-2.8117">
        <ele>35</ele>
        <time>2021-08-06T09:13:32Z</time>
      </trkpt>
      <trkpt lat="47.52104" lon="-2.81166">
        <ele>35</ele>
        <time>2021-08-06T09:13:33Z</time>
      </trkpt>
      <trkpt lat="47.52103" lon="-2.81161">
        <ele>35.2</ele>
        <time>2021-08-06T09:13:34Z</time>
      </trkpt>
      <trkpt lat="47.52103" lon="-2.81156">
        <ele>35.2</ele>
        <time>2021-08-06T09:13:35Z</time>
      </trkpt>
      <trkpt lat="47.52102" lon="-2.81152">
        <ele>35.2</ele>
        <time>2021-08-06T09:13:36Z</time>
      </trkpt>
      <trkpt lat="47.52102" lon="-2.81147">
        <ele>35.2</ele>
        <time>2021-08-06T09:13:37Z</time>
      </trkpt>
      <trkpt lat="47.52101" lon="-2.81142">
        <ele>35.4</ele>
        <time>2021-08-06T09:13:38Z</time>
      </trkpt>
      <trkpt lat="47.521" lon="-2.81138">
        <ele>35.6</ele>
        <time>2021-08-06T09:13:39Z</time>
      </trkpt>
      <trkpt lat="47.521" lon="-2.81133">
        <ele>35.6</ele>
        <time>2021-08-06T09:13:40Z</time>
      </trkpt>
      <trkpt lat="47.521" lon="-2.81129">
        <ele>35.6</ele>
        <time>2021-08-06T09:13:41Z</time>
      </trkpt>
      <trkpt lat="47.52099" lon="-2.81125">
        <ele>35.4</ele>
        <time>2021-08-06T09:13:42Z</time>
      </trkpt>
      <trkpt lat="47.52099" lon="-2.8112">
        <ele>35.6</ele>
        <time>2021-08-06T09:13:43Z</time>
      </trkpt>
      <trkpt lat="47.52099" lon="-2.81115">
        <ele>35.6</ele>
        <time>2021-08-06T09:13:44Z</time>
      </trkpt>
      <trkpt lat="47.52099" lon="-2.81109">
        <ele>35.6</ele>
        <time>2021-08-06T09:13:45Z</time>
      </trkpt>
      <trkpt lat="47.52099" lon="-2.81103">
        <ele>35.6</ele>
        <time>2021-08-06T09:13:46Z</time>
      </trkpt>
      <trkpt lat="47.52098" lon="-2.81097">
        <ele>35.6</ele>
        <time>2021-08-06T09:13:47Z</time>
      </trkpt>
      <trkpt lat="47.52098" lon="-2.81091">
        <ele>35.8</ele>
        <time>2021-08-06T09:13:48Z</time>
      </trkpt>
      <trkpt lat="47.52098" lon="-2.81085">
        <ele>35.8</ele>
        <time>2021-08-06T09:13:49Z</time>
      </trkpt>
      <trkpt lat="47.52097" lon="-2.81079">
        <ele>35.8</ele>
        <time>2021-08-06T09:13:50Z</time>
      </trkpt>
      <trkpt lat="47.52097" lon="-2.81072">
        <ele>35.8</ele>
        <time>2021-08-06T09:13:51Z</time>
      </trkpt>
      <trkpt lat="47.52097" lon="-2.81066">
        <ele>35.8</ele>
        <time>2021-08-06T09:13:52Z</time>
      </trkpt>
      <trkpt lat="47.52096" lon="-2.8106">
        <ele>35.8</ele>
        <time>2021-08-06T09:13:53Z</time>
      </trkpt>
      <trkpt lat="47.52096" lon="-2.81054">
        <ele>35.8</ele>
        <time>2021-08-06T09:13:54Z</time>
      </trkpt>
      <trkpt lat="47.52095" lon="-2.81047">
        <ele>35.8</ele>
        <time>2021-08-06T09:13:55Z</time>
      </trkpt>
      <trkpt lat="47.52095" lon="-2.8104">
        <ele>35.8</ele>
        <time>2021-08-06T09:13:56Z</time>
      </trkpt>
      <trkpt lat="47.52095" lon="-2.81033">
        <ele>35.8</ele>
        <time>2021-08-06T09:13:57Z</time>
      </trkpt>
      <trkpt lat="47.52094" lon="-2.81026">
        <ele>35.8</ele>
        <time>2021-08-06T09:13:58Z</time>
      </trkpt>
      <trkpt lat="47.52094" lon="-2.8102">
        <ele>35.8</ele>
        <time>2021-08-06T09:13:59Z</time>
      </trkpt>
      <trkpt lat="47.52094" lon="-2.81013">
        <ele>35.8</ele>
        <time>2021-08-06T09:14:00Z</time>
      </trkpt>
      <trkpt lat="47.52094" lon="-2.81006">
        <ele>35.8</ele>
        <time>2021-08-06T09:14:01Z</time>
      </trkpt>
      <trkpt lat="47.52094" lon="-2.80999">
        <ele>35.8</ele>
        <time>2021-08-06T09:14:02Z</time>
      </trkpt>
      <trkpt lat="47.52094" lon="-2.80991">
        <ele>35.6</ele>
        <time>2021-08-06T09:14:03Z</time>
      </trkpt>
      <trkpt lat="47.52094" lon="-2.80984">
        <ele>35.6</ele>
        <time>2021-08-06T09:14:04Z</time>
      </trkpt>
      <trkpt lat="47.52094" lon="-2.80976">
        <ele>35.6</ele>
        <time>2021-08-06T09:14:05Z</time>
      </trkpt>
      <trkpt lat="47.52094" lon="-2.80968">
        <ele>35.6</ele>
        <time>2021-08-06T09:14:06Z</time>
      </trkpt>
      <trkpt lat="47.52094" lon="-2.80961">
        <ele>35.6</ele>
        <time>2021-08-06T09:14:07Z</time>
      </trkpt>
      <trkpt lat="47.52095" lon="-2.80953">
        <ele>35.6</ele>
        <time>2021-08-06T09:14:08Z</time>
      </trkpt>
      <trkpt lat="47.52095" lon="-2.80945">
        <ele>35.4</ele>
        <time>2021-08-06T09:14:09Z</time>
      </trkpt>
      <trkpt lat="47.52096" lon="-2.80937">
        <ele>35.2</ele>
        <time>2021-08-06T09:14:10Z</time>
      </trkpt>
      <trkpt lat="47.52096" lon="-2.80929">
        <ele>35</ele>
        <time>2021-08-06T09:14:11Z</time>
      </trkpt>
      <trkpt lat="47.52096" lon="-2.8092">
        <ele>35</ele>
        <time>2021-08-06T09:14:12Z</time>
      </trkpt>
      <trkpt lat="47.52096" lon="-2.80912">
        <ele>35</ele>
        <time>2021-08-06T09:14:13Z</time>
      </trkpt>
      <trkpt lat="47.52096" lon="-2.80904">
        <ele>34.6</ele>
        <time>2021-08-06T09:14:14Z</time>
      </trkpt>
      <trkpt lat="47.52097" lon="-2.80895">
        <ele>34.6</ele>
        <time>2021-08-06T09:14:15Z</time>
      </trkpt>
      <trkpt lat="47.52097" lon="-2.80887">
        <ele>34.4</ele>
        <time>2021-08-06T09:14:16Z</time>
      </trkpt>
      <trkpt lat="47.52097" lon="-2.80879">
        <ele>34</ele>
        <time>2021-08-06T09:14:17Z</time>
      </trkpt>
      <trkpt lat="47.52097" lon="-2.80871">
        <ele>33.8</ele>
        <time>2021-08-06T09:14:18Z</time>
      </trkpt>
      <trkpt lat="47.52097" lon="-2.80862">
        <ele>33.6</ele>
        <time>2021-08-06T09:14:19Z</time>
      </trkpt>
      <trkpt lat="47.52097" lon="-2.80854">
        <ele>33.6</ele>
        <time>2021-08-06T09:14:20Z</time>
      </trkpt>
      <trkpt lat="47.52097" lon="-2.80846">
        <ele>33.4</ele>
        <time>2021-08-06T09:14:21Z</time>
      </trkpt>
      <trkpt lat="47.52097" lon="-2.80838">
        <ele>33.2</ele>
        <time>2021-08-06T09:14:22Z</time>
      </trkpt>
      <trkpt lat="47.52098" lon="-2.8083">
        <ele>33.2</ele>
        <time>2021-08-06T09:14:23Z</time>
      </trkpt>
      <trkpt lat="47.52098" lon="-2.80822">
        <ele>33.2</ele>
        <time>2021-08-06T09:14:24Z</time>
      </trkpt>
      <trkpt lat="47.52097" lon="-2.80813">
        <ele>33</ele>
        <time>2021-08-06T09:14:25Z</time>
      </trkpt>
      <trkpt lat="47.52097" lon="-2.80804">
        <ele>33</ele>
        <time>2021-08-06T09:14:26Z</time>
      </trkpt>
      <trkpt lat="47.52097" lon="-2.80796">
        <ele>33</ele>
        <time>2021-08-06T09:14:27Z</time>
      </trkpt>
      <trkpt lat="47.52097" lon="-2.80788">
        <ele>33</ele>
        <time>2021-08-06T09:14:28Z</time>
      </trkpt>
      <trkpt lat="47.52097" lon="-2.8078">
        <ele>33</ele>
        <time>2021-08-06T09:14:29Z</time>
      </trkpt>
      <trkpt lat="47.52097" lon="-2.80772">
        <ele>33</ele>
        <time>2021-08-06T09:14:30Z</time>
      </trkpt>
      <trkpt lat="47.52097" lon="-2.80765">
        <ele>33</ele>
        <time>2021-08-06T09:14:31Z</time>
      </trkpt>
      <trkpt lat="47.52096" lon="-2.80757">
        <ele>33</ele>
        <time>2021-08-06T09:14:32Z</time>
      </trkpt>
      <trkpt lat="47.52096" lon="-2.8075">
        <ele>33</ele>
        <time>2021-08-06T09:14:33Z</time>
      </trkpt>
      <trkpt lat="47.52096" lon="-2.80742">
        <ele>33</ele>
        <time>2021-08-06T09:14:34Z</time>
      </trkpt>
      <trkpt lat="47.52096" lon="-2.80734">
        <ele>33</ele>
        <time>2021-08-06T09:14:35Z</time>
      </trkpt>
      <trkpt lat="47.52096" lon="-2.80726">
        <ele>33</ele>
        <time>2021-08-06T09:14:36Z</time>
      </trkpt>
      <trkpt lat="47.52096" lon="-2.80718">
        <ele>33</ele>
        <time>2021-08-06T09:14:37Z</time>
      </trkpt>
      <trkpt lat="47.52096" lon="-2.8071">
        <ele>33</ele>
        <time>2021-08-06T09:14:38Z</time>
      </trkpt>
      <trkpt lat="47.52097" lon="-2.80703">
        <ele>33</ele>
        <time>2021-08-06T09:14:39Z</time>
      </trkpt>
      <trkpt lat="47.52097" lon="-2.80695">
        <ele>33</ele>
        <time>2021-08-06T09:14:40Z</time>
      </trkpt>
      <trkpt lat="47.52098" lon="-2.80687">
        <ele>33</ele>
        <time>2021-08-06T09:14:41Z</time>
      </trkpt>
      <trkpt lat="47.52098" lon="-2.80679">
        <ele>33.2</ele>
        <time>2021-08-06T09:14:42Z</time>
      </trkpt>
      <trkpt lat="47.52099" lon="-2.80672">
        <ele>33.2</ele>
        <time>2021-08-06T09:14:43Z</time>
      </trkpt>
      <trkpt lat="47.521" lon="-2.80664">
        <ele>33.4</ele>
        <time>2021-08-06T09:14:44Z</time>
      </trkpt>
      <trkpt lat="47.52101" lon="-2.80657">
        <ele>33.4</ele>
        <time>2021-08-06T09:14:45Z</time>
      </trkpt>
      <trkpt lat="47.52102" lon="-2.8065">
        <ele>33.4</ele>
        <time>2021-08-06T09:14:46Z</time>
      </trkpt>
      <trkpt lat="47.52103" lon="-2.80643">
        <ele>33.4</ele>
        <time>2021-08-06T09:14:47Z</time>
      </trkpt>
      <trkpt lat="47.52104" lon="-2.80636">
        <ele>33.4</ele>
        <time>2021-08-06T09:14:48Z</time>
      </trkpt>
      <trkpt lat="47.52106" lon="-2.80628">
        <ele>33.6</ele>
        <time>2021-08-06T09:14:49Z</time>
      </trkpt>
      <trkpt lat="47.52108" lon="-2.80622">
        <ele>33.6</ele>
        <time>2021-08-06T09:14:50Z</time>
      </trkpt>
      <trkpt lat="47.5211" lon="-2.80615">
        <ele>33.6</ele>
        <time>2021-08-06T09:14:51Z</time>
      </trkpt>
      <trkpt lat="47.52112" lon="-2.80608">
        <ele>33.6</ele>
        <time>2021-08-06T09:14:52Z</time>
      </trkpt>
      <trkpt lat="47.52114" lon="-2.80601">
        <ele>34</ele>
        <time>2021-08-06T09:14:53Z</time>
      </trkpt>
      <trkpt lat="47.52116" lon="-2.80594">
        <ele>34.2</ele>
        <time>2021-08-06T09:14:54Z</time>
      </trkpt>
      <trkpt lat="47.52118" lon="-2.80587">
        <ele>34.2</ele>
        <time>2021-08-06T09:14:55Z</time>
      </trkpt>
      <trkpt lat="47.52119" lon="-2.80579">
        <ele>34.4</ele>
        <time>2021-08-06T09:14:56Z</time>
      </trkpt>
      <trkpt lat="47.52121" lon="-2.80572">
        <ele>34.4</ele>
        <time>2021-08-06T09:14:57Z</time>
      </trkpt>
      <trkpt lat="47.52123" lon="-2.80565">
        <ele>34.6</ele>
        <time>2021-08-06T09:14:58Z</time>
      </trkpt>
      <trkpt lat="47.52124" lon="-2.80557">
        <ele>34.6</ele>
        <time>2021-08-06T09:14:59Z</time>
      </trkpt>
      <trkpt lat="47.52125" lon="-2.80549">
        <ele>34.6</ele>
        <time>2021-08-06T09:15:00Z</time>
      </trkpt>
      <trkpt lat="47.52126" lon="-2.80542">
        <ele>34.8</ele>
        <time>2021-08-06T09:15:01Z</time>
      </trkpt>
      <trkpt lat="47.52127" lon="-2.80534">
        <ele>34.8</ele>
        <time>2021-08-06T09:15:02Z</time>
      </trkpt>
      <trkpt lat="47.52128" lon="-2.80526">
        <ele>34.8</ele>
        <time>2021-08-06T09:15:03Z</time>
      </trkpt>
      <trkpt lat="47.52129" lon="-2.80519">
        <ele>34.8</ele>
        <time>2021-08-06T09:15:04Z</time>
      </trkpt>
      <trkpt lat="47.52129" lon="-2.80512">
        <ele>34.8</ele>
        <time>2021-08-06T09:15:05Z</time>
      </trkpt>
      <trkpt lat="47.5213" lon="-2.80506">
        <ele>34.8</ele>
        <time>2021-08-06T09:15:06Z</time>
      </trkpt>
      <trkpt lat="47.5213" lon="-2.805">
        <ele>34.8</ele>
        <time>2021-08-06T09:15:07Z</time>
      </trkpt>
      <trkpt lat="47.52131" lon="-2.80494">
        <ele>34.8</ele>
        <time>2021-08-06T09:15:08Z</time>
      </trkpt>
      <trkpt lat="47.52131" lon="-2.80488">
        <ele>34.8</ele>
        <time>2021-08-06T09:15:09Z</time>
      </trkpt>
      <trkpt lat="47.52132" lon="-2.80482">
        <ele>35</ele>
        <time>2021-08-06T09:15:10Z</time>
      </trkpt>
      <trkpt lat="47.52133" lon="-2.80475">
        <ele>34.8</ele>
        <time>2021-08-06T09:15:11Z</time>
      </trkpt>
      <trkpt lat="47.52134" lon="-2.80468">
        <ele>34.8</ele>
        <time>2021-08-06T09:15:12Z</time>
      </trkpt>
      <trkpt lat="47.52134" lon="-2.80462">
        <ele>34.8</ele>
        <time>2021-08-06T09:15:13Z</time>
      </trkpt>
      <trkpt lat="47.52135" lon="-2.80455">
        <ele>34.8</ele>
        <time>2021-08-06T09:15:14Z</time>
      </trkpt>
      <trkpt lat="47.52136" lon="-2.80449">
        <ele>34.8</ele>
        <time>2021-08-06T09:15:15Z</time>
      </trkpt>
      <trkpt lat="47.52137" lon="-2.80442">
        <ele>34.8</ele>
        <time>2021-08-06T09:15:16Z</time>
      </trkpt>
      <trkpt lat="47.52137" lon="-2.80435">
        <ele>34.8</ele>
        <time>2021-08-06T09:15:17Z</time>
      </trkpt>
      <trkpt lat="47.52138" lon="-2.80428">
        <ele>34.8</ele>
        <time>2021-08-06T09:15:18Z</time>
      </trkpt>
      <trkpt lat="47.52139" lon="-2.80421">
        <ele>35</ele>
        <time>2021-08-06T09:15:19Z</time>
      </trkpt>
      <trkpt lat="47.52139" lon="-2.80415">
        <ele>35</ele>
        <time>2021-08-06T09:15:20Z</time>
      </trkpt>
      <trkpt lat="47.5214" lon="-2.80408">
        <ele>35</ele>
        <time>2021-08-06T09:15:21Z</time>
      </trkpt>
      <trkpt lat="47.52141" lon="-2.80402">
        <ele>35</ele>
        <time>2021-08-06T09:15:22Z</time>
      </trkpt>
      <trkpt lat="47.52142" lon="-2.80395">
        <ele>35.2</ele>
        <time>2021-08-06T09:15:23Z</time>
      </trkpt>
      <trkpt lat="47.52144" lon="-2.80388">
        <ele>35.2</ele>
        <time>2021-08-06T09:15:24Z</time>
      </trkpt>
      <trkpt lat="47.52145" lon="-2.80381">
        <ele>35.2</ele>
        <time>2021-08-06T09:15:25Z</time>
      </trkpt>
      <trkpt lat="47.52146" lon="-2.80374">
        <ele>35.4</ele>
        <time>2021-08-06T09:15:26Z</time>
      </trkpt>
      <trkpt lat="47.52148" lon="-2.80367">
        <ele>35.4</ele>
        <time>2021-08-06T09:15:27Z</time>
      </trkpt>
      <trkpt lat="47.52149" lon="-2.8036">
        <ele>35.4</ele>
        <time>2021-08-06T09:15:28Z</time>
      </trkpt>
      <trkpt lat="47.5215" lon="-2.80353">
        <ele>35.6</ele>
        <time>2021-08-06T09:15:29Z</time>
      </trkpt>
      <trkpt lat="47.52151" lon="-2.80346">
        <ele>35.6</ele>
        <time>2021-08-06T09:15:30Z</time>
      </trkpt>
      <trkpt lat="47.52151" lon="-2.80339">
        <ele>35.6</ele>
        <time>2021-08-06T09:15:31Z</time>
      </trkpt>
      <trkpt lat="47.52152" lon="-2.80333">
        <ele>35.6</ele>
        <time>2021-08-06T09:15:32Z</time>
      </trkpt>
      <trkpt lat="47.52152" lon="-2.80326">
        <ele>35.6</ele>
        <time>2021-08-06T09:15:33Z</time>
      </trkpt>
      <trkpt lat="47.52152" lon="-2.80318">
        <ele>35.6</ele>
        <time>2021-08-06T09:15:34Z</time>
      </trkpt>
      <trkpt lat="47.52152" lon="-2.80312">
        <ele>35.6</ele>
        <time>2021-08-06T09:15:35Z</time>
      </trkpt>
      <trkpt lat="47.52151" lon="-2.80305">
        <ele>35.6</ele>
        <time>2021-08-06T09:15:36Z</time>
      </trkpt>
      <trkpt lat="47.52151" lon="-2.80299">
        <ele>35.6</ele>
        <time>2021-08-06T09:15:37Z</time>
      </trkpt>
      <trkpt lat="47.52151" lon="-2.80292">
        <ele>35.6</ele>
        <time>2021-08-06T09:15:38Z</time>
      </trkpt>
      <trkpt lat="47.52151" lon="-2.80285">
        <ele>35.6</ele>
        <time>2021-08-06T09:15:39Z</time>
      </trkpt>
      <trkpt lat="47.52151" lon="-2.80278">
        <ele>35.8</ele>
        <time>2021-08-06T09:15:40Z</time>
      </trkpt>
      <trkpt lat="47.52151" lon="-2.80271">
        <ele>35.8</ele>
        <time>2021-08-06T09:15:41Z</time>
      </trkpt>
      <trkpt lat="47.52151" lon="-2.80264">
        <ele>35.8</ele>
        <time>2021-08-06T09:15:42Z</time>
      </trkpt>
      <trkpt lat="47.52151" lon="-2.80257">
        <ele>35.8</ele>
        <time>2021-08-06T09:15:43Z</time>
      </trkpt>
      <trkpt lat="47.52151" lon="-2.8025">
        <ele>35.8</ele>
        <time>2021-08-06T09:15:44Z</time>
      </trkpt>
      <trkpt lat="47.52151" lon="-2.80242">
        <ele>35.8</ele>
        <time>2021-08-06T09:15:45Z</time>
      </trkpt>
      <trkpt lat="47.52151" lon="-2.80235">
        <ele>35.8</ele>
        <time>2021-08-06T09:15:46Z</time>
      </trkpt>
      <trkpt lat="47.5215" lon="-2.80228">
        <ele>35.8</ele>
        <time>2021-08-06T09:15:47Z</time>
      </trkpt>
      <trkpt lat="47.52151" lon="-2.80221">
        <ele>35.8</ele>
        <time>2021-08-06T09:15:48Z</time>
      </trkpt>
      <trkpt lat="47.52151" lon="-2.80214">
        <ele>35.8</ele>
        <time>2021-08-06T09:15:49Z</time>
      </trkpt>
      <trkpt lat="47.52151" lon="-2.80208">
        <ele>35.6</ele>
        <time>2021-08-06T09:15:50Z</time>
      </trkpt>
      <trkpt lat="47.52151" lon="-2.80202">
        <ele>35.6</ele>
        <time>2021-08-06T09:15:51Z</time>
      </trkpt>
      <trkpt lat="47.52152" lon="-2.80196">
        <ele>35.6</ele>
        <time>2021-08-06T09:15:52Z</time>
      </trkpt>
      <trkpt lat="47.52153" lon="-2.8019">
        <ele>35.6</ele>
        <time>2021-08-06T09:15:53Z</time>
      </trkpt>
      <trkpt lat="47.52153" lon="-2.80183">
        <ele>35.6</ele>
        <time>2021-08-06T09:15:54Z</time>
      </trkpt>
      <trkpt lat="47.52154" lon="-2.80176">
        <ele>35.8</ele>
        <time>2021-08-06T09:15:55Z</time>
      </trkpt>
      <trkpt lat="47.52155" lon="-2.80169">
        <ele>35.8</ele>
        <time>2021-08-06T09:15:56Z</time>
      </trkpt>
      <trkpt lat="47.52155" lon="-2.80163">
        <ele>35.8</ele>
        <time>2021-08-06T09:15:57Z</time>
      </trkpt>
      <trkpt lat="47.52155" lon="-2.80156">
        <ele>36</ele>
        <time>2021-08-06T09:15:58Z</time>
      </trkpt>
      <trkpt lat="47.52155" lon="-2.80148">
        <ele>36</ele>
        <time>2021-08-06T09:15:59Z</time>
      </trkpt>
      <trkpt lat="47.52155" lon="-2.80141">
        <ele>36</ele>
        <time>2021-08-06T09:16:00Z</time>
      </trkpt>
      <trkpt lat="47.52156" lon="-2.80133">
        <ele>36</ele>
        <time>2021-08-06T09:16:01Z</time>
      </trkpt>
      <trkpt lat="47.52156" lon="-2.80125">
        <ele>36</ele>
        <time>2021-08-06T09:16:02Z</time>
      </trkpt>
      <trkpt lat="47.52157" lon="-2.80118">
        <ele>36.2</ele>
        <time>2021-08-06T09:16:03Z</time>
      </trkpt>
      <trkpt lat="47.52157" lon="-2.8011">
        <ele>36.2</ele>
        <time>2021-08-06T09:16:04Z</time>
      </trkpt>
      <trkpt lat="47.52157" lon="-2.80101">
        <ele>36.2</ele>
        <time>2021-08-06T09:16:05Z</time>
      </trkpt>
      <trkpt lat="47.52158" lon="-2.80093">
        <ele>36.2</ele>
        <time>2021-08-06T09:16:06Z</time>
      </trkpt>
      <trkpt lat="47.52158" lon="-2.80085">
        <ele>36.2</ele>
        <time>2021-08-06T09:16:07Z</time>
      </trkpt>
      <trkpt lat="47.52159" lon="-2.80077">
        <ele>36</ele>
        <time>2021-08-06T09:16:08Z</time>
      </trkpt>
      <trkpt lat="47.52159" lon="-2.80069">
        <ele>36</ele>
        <time>2021-08-06T09:16:09Z</time>
      </trkpt>
      <trkpt lat="47.52159" lon="-2.80061">
        <ele>36</ele>
        <time>2021-08-06T09:16:10Z</time>
      </trkpt>
      <trkpt lat="47.52158" lon="-2.80053">
        <ele>35.8</ele>
        <time>2021-08-06T09:16:11Z</time>
      </trkpt>
      <trkpt lat="47.52158" lon="-2.80045">
        <ele>35.6</ele>
        <time>2021-08-06T09:16:12Z</time>
      </trkpt>
      <trkpt lat="47.52158" lon="-2.80037">
        <ele>35.6</ele>
        <time>2021-08-06T09:16:13Z</time>
      </trkpt>
      <trkpt lat="47.52157" lon="-2.80029">
        <ele>35.6</ele>
        <time>2021-08-06T09:16:14Z</time>
      </trkpt>
      <trkpt lat="47.52156" lon="-2.8002">
        <ele>35.4</ele>
        <time>2021-08-06T09:16:15Z</time>
      </trkpt>
      <trkpt lat="47.52156" lon="-2.80012">
        <ele>35.4</ele>
        <time>2021-08-06T09:16:16Z</time>
      </trkpt>
      <trkpt lat="47.52155" lon="-2.80004">
        <ele>35.4</ele>
        <time>2021-08-06T09:16:17Z</time>
      </trkpt>
      <trkpt lat="47.52154" lon="-2.79996">
        <ele>35.2</ele>
        <time>2021-08-06T09:16:18Z</time>
      </trkpt>
      <trkpt lat="47.52152" lon="-2.79988">
        <ele>35.2</ele>
        <time>2021-08-06T09:16:19Z</time>
      </trkpt>
      <trkpt lat="47.52151" lon="-2.7998">
        <ele>35.2</ele>
        <time>2021-08-06T09:16:20Z</time>
      </trkpt>
      <trkpt lat="47.5215" lon="-2.79973">
        <ele>35</ele>
        <time>2021-08-06T09:16:21Z</time>
      </trkpt>
      <trkpt lat="47.52149" lon="-2.79966">
        <ele>35</ele>
        <time>2021-08-06T09:16:22Z</time>
      </trkpt>
      <trkpt lat="47.52148" lon="-2.79959">
        <ele>34.8</ele>
        <time>2021-08-06T09:16:23Z</time>
      </trkpt>
      <trkpt lat="47.52147" lon="-2.79952">
        <ele>34.8</ele>
        <time>2021-08-06T09:16:24Z</time>
      </trkpt>
      <trkpt lat="47.52146" lon="-2.79945">
        <ele>34.8</ele>
        <time>2021-08-06T09:16:25Z</time>
      </trkpt>
      <trkpt lat="47.52145" lon="-2.79938">
        <ele>34.8</ele>
        <time>2021-08-06T09:16:26Z</time>
      </trkpt>
      <trkpt lat="47.52145" lon="-2.79931">
        <ele>34.6</ele>
        <time>2021-08-06T09:16:27Z</time>
      </trkpt>
      <trkpt lat="47.52144" lon="-2.79924">
        <ele>34.6</ele>
        <time>2021-08-06T09:16:28Z</time>
      </trkpt>
      <trkpt lat="47.52143" lon="-2.79917">
        <ele>34.6</ele>
        <time>2021-08-06T09:16:29Z</time>
      </trkpt>
      <trkpt lat="47.52142" lon="-2.7991">
        <ele>34.4</ele>
        <time>2021-08-06T09:16:30Z</time>
      </trkpt>
      <trkpt lat="47.52142" lon="-2.79903">
        <ele>34.4</ele>
        <time>2021-08-06T09:16:31Z</time>
      </trkpt>
      <trkpt lat="47.52141" lon="-2.79895">
        <ele>34.2</ele>
        <time>2021-08-06T09:16:32Z</time>
      </trkpt>
      <trkpt lat="47.52141" lon="-2.79888">
        <ele>34.2</ele>
        <time>2021-08-06T09:16:33Z</time>
      </trkpt>
      <trkpt lat="47.52141" lon="-2.7988">
        <ele>34</ele>
        <time>2021-08-06T09:16:34Z</time>
      </trkpt>
      <trkpt lat="47.52141" lon="-2.79873">
        <ele>34</ele>
        <time>2021-08-06T09:16:35Z</time>
      </trkpt>
      <trkpt lat="47.52141" lon="-2.79866">
        <ele>33.8</ele>
        <time>2021-08-06T09:16:36Z</time>
      </trkpt>
      <trkpt lat="47.52141" lon="-2.79858">
        <ele>33.8</ele>
        <time>2021-08-06T09:16:37Z</time>
      </trkpt>
      <trkpt lat="47.52141" lon="-2.79851">
        <ele>33.6</ele>
        <time>2021-08-06T09:16:38Z</time>
      </trkpt>
      <trkpt lat="47.5214" lon="-2.79843">
        <ele>33.6</ele>
        <time>2021-08-06T09:16:39Z</time>
      </trkpt>
      <trkpt lat="47.52139" lon="-2.79836">
        <ele>33.6</ele>
        <time>2021-08-06T09:16:40Z</time>
      </trkpt>
      <trkpt lat="47.52138" lon="-2.7983">
        <ele>33.4</ele>
        <time>2021-08-06T09:16:41Z</time>
      </trkpt>
      <trkpt lat="47.52138" lon="-2.79823">
        <ele>33.2</ele>
        <time>2021-08-06T09:16:42Z</time>
      </trkpt>
      <trkpt lat="47.52137" lon="-2.79817">
        <ele>33.2</ele>
        <time>2021-08-06T09:16:43Z</time>
      </trkpt>
      <trkpt lat="47.52136" lon="-2.79811">
        <ele>33</ele>
        <time>2021-08-06T09:16:44Z</time>
      </trkpt>
      <trkpt lat="47.52135" lon="-2.79805">
        <ele>33</ele>
        <time>2021-08-06T09:16:45Z</time>
      </trkpt>
      <trkpt lat="47.52135" lon="-2.79799">
        <ele>33</ele>
        <time>2021-08-06T09:16:46Z</time>
      </trkpt>
      <trkpt lat="47.52134" lon="-2.79793">
        <ele>32.8</ele>
        <time>2021-08-06T09:16:47Z</time>
      </trkpt>
      <trkpt lat="47.52133" lon="-2.79786">
        <ele>32.8</ele>
        <time>2021-08-06T09:16:48Z</time>
      </trkpt>
      <trkpt lat="47.52133" lon="-2.79779">
        <ele>32.8</ele>
        <time>2021-08-06T09:16:49Z</time>
      </trkpt>
      <trkpt lat="47.52133" lon="-2.79771">
        <ele>32.6</ele>
        <time>2021-08-06T09:16:50Z</time>
      </trkpt>
      <trkpt lat="47.52132" lon="-2.79763">
        <ele>32.6</ele>
        <time>2021-08-06T09:16:51Z</time>
      </trkpt>
      <trkpt lat="47.52133" lon="-2.79755">
        <ele>32.6</ele>
        <time>2021-08-06T09:16:52Z</time>
      </trkpt>
      <trkpt lat="47.52133" lon="-2.79746">
        <ele>32.4</ele>
        <time>2021-08-06T09:16:53Z</time>
      </trkpt>
      <trkpt lat="47.52133" lon="-2.79738">
        <ele>32.4</ele>
        <time>2021-08-06T09:16:54Z</time>
      </trkpt>
      <trkpt lat="47.52134" lon="-2.7973">
        <ele>32.4</ele>
        <time>2021-08-06T09:16:55Z</time>
      </trkpt>
      <trkpt lat="47.52134" lon="-2.79722">
        <ele>32.4</ele>
        <time>2021-08-06T09:16:56Z</time>
      </trkpt>
      <trkpt lat="47.52134" lon="-2.79716">
        <ele>32.4</ele>
        <time>2021-08-06T09:16:57Z</time>
      </trkpt>
      <trkpt lat="47.52134" lon="-2.7971">
        <ele>32.4</ele>
        <time>2021-08-06T09:16:58Z</time>
      </trkpt>
      <trkpt lat="47.52134" lon="-2.79705">
        <ele>32.2</ele>
        <time>2021-08-06T09:16:59Z</time>
      </trkpt>
      <trkpt lat="47.52136" lon="-2.797">
        <ele>32.2</ele>
        <time>2021-08-06T09:17:00Z</time>
      </trkpt>
      <trkpt lat="47.52137" lon="-2.79696">
        <ele>32.2</ele>
        <time>2021-08-06T09:17:01Z</time>
      </trkpt>
      <trkpt lat="47.52139" lon="-2.79691">
        <ele>32.2</ele>
        <time>2021-08-06T09:17:02Z</time>
      </trkpt>
      <trkpt lat="47.52141" lon="-2.79687">
        <ele>32.2</ele>
        <time>2021-08-06T09:17:03Z</time>
      </trkpt>
      <trkpt lat="47.52144" lon="-2.79683">
        <ele>32.2</ele>
        <time>2021-08-06T09:17:04Z</time>
      </trkpt>
      <trkpt lat="47.52147" lon="-2.79679">
        <ele>32</ele>
        <time>2021-08-06T09:17:05Z</time>
      </trkpt>
      <trkpt lat="47.5215" lon="-2.79676">
        <ele>32</ele>
        <time>2021-08-06T09:17:06Z</time>
      </trkpt>
      <trkpt lat="47.52153" lon="-2.79672">
        <ele>32</ele>
        <time>2021-08-06T09:17:07Z</time>
      </trkpt>
      <trkpt lat="47.52156" lon="-2.79668">
        <ele>32</ele>
        <time>2021-08-06T09:17:08Z</time>
      </trkpt>
      <trkpt lat="47.52159" lon="-2.79664">
        <ele>32</ele>
        <time>2021-08-06T09:17:09Z</time>
      </trkpt>
      <trkpt lat="47.52163" lon="-2.79661">
        <ele>31.8</ele>
        <time>2021-08-06T09:17:10Z</time>
      </trkpt>
      <trkpt lat="47.52167" lon="-2.79657">
        <ele>31.6</ele>
        <time>2021-08-06T09:17:11Z</time>
      </trkpt>
      <trkpt lat="47.52171" lon="-2.79652">
        <ele>31.6</ele>
        <time>2021-08-06T09:17:12Z</time>
      </trkpt>
      <trkpt lat="47.52175" lon="-2.79647">
        <ele>31.6</ele>
        <time>2021-08-06T09:17:13Z</time>
      </trkpt>
      <trkpt lat="47.5218" lon="-2.79642">
        <ele>31.6</ele>
        <time>2021-08-06T09:17:14Z</time>
      </trkpt>
      <trkpt lat="47.52184" lon="-2.79638">
        <ele>31.4</ele>
        <time>2021-08-06T09:17:15Z</time>
      </trkpt>
      <trkpt lat="47.52188" lon="-2.79633">
        <ele>31.4</ele>
        <time>2021-08-06T09:17:16Z</time>
      </trkpt>
      <trkpt lat="47.52192" lon="-2.79628">
        <ele>31.4</ele>
        <time>2021-08-06T09:17:17Z</time>
      </trkpt>
      <trkpt lat="47.52196" lon="-2.79624">
        <ele>31.2</ele>
        <time>2021-08-06T09:17:18Z</time>
      </trkpt>
      <trkpt lat="47.522" lon="-2.79619">
        <ele>31</ele>
        <time>2021-08-06T09:17:19Z</time>
      </trkpt>
      <trkpt lat="47.52204" lon="-2.79614">
        <ele>30.8</ele>
        <time>2021-08-06T09:17:20Z</time>
      </trkpt>
      <trkpt lat="47.52208" lon="-2.7961">
        <ele>30.4</ele>
        <time>2021-08-06T09:17:21Z</time>
      </trkpt>
      <trkpt lat="47.52212" lon="-2.79605">
        <ele>30.4</ele>
        <time>2021-08-06T09:17:22Z</time>
      </trkpt>
      <trkpt lat="47.52216" lon="-2.79601">
        <ele>30.2</ele>
        <time>2021-08-06T09:17:23Z</time>
      </trkpt>
      <trkpt lat="47.5222" lon="-2.79596">
        <ele>30</ele>
        <time>2021-08-06T09:17:24Z</time>
      </trkpt>
      <trkpt lat="47.52224" lon="-2.79591">
        <ele>29.6</ele>
        <time>2021-08-06T09:17:25Z</time>
      </trkpt>
      <trkpt lat="47.52229" lon="-2.79586">
        <ele>29.2</ele>
        <time>2021-08-06T09:17:26Z</time>
      </trkpt>
      <trkpt lat="47.52233" lon="-2.79581">
        <ele>29.2</ele>
        <time>2021-08-06T09:17:27Z</time>
      </trkpt>
      <trkpt lat="47.52238" lon="-2.79576">
        <ele>29</ele>
        <time>2021-08-06T09:17:28Z</time>
      </trkpt>
      <trkpt lat="47.52243" lon="-2.79571">
        <ele>29</ele>
        <time>2021-08-06T09:17:29Z</time>
      </trkpt>
      <trkpt lat="47.52249" lon="-2.79566">
        <ele>29</ele>
        <time>2021-08-06T09:17:30Z</time>
      </trkpt>
      <trkpt lat="47.52254" lon="-2.7956">
        <ele>28.8</ele>
        <time>2021-08-06T09:17:31Z</time>
      </trkpt>
      <trkpt lat="47.52259" lon="-2.79555">
        <ele>28.8</ele>
        <time>2021-08-06T09:17:32Z</time>
      </trkpt>
      <trkpt lat="47.52264" lon="-2.79549">
        <ele>28.8</ele>
        <time>2021-08-06T09:17:33Z</time>
      </trkpt>
      <trkpt lat="47.52269" lon="-2.79543">
        <ele>28.8</ele>
        <time>2021-08-06T09:17:34Z</time>
      </trkpt>
      <trkpt lat="47.52275" lon="-2.79536">
        <ele>28.6</ele>
        <time>2021-08-06T09:17:35Z</time>
      </trkpt>
      <trkpt lat="47.5228" lon="-2.7953">
        <ele>28.6</ele>
        <time>2021-08-06T09:17:36Z</time>
      </trkpt>
      <trkpt lat="47.52286" lon="-2.79523">
        <ele>28.4</ele>
        <time>2021-08-06T09:17:37Z</time>
      </trkpt>
      <trkpt lat="47.52292" lon="-2.79516">
        <ele>28.4</ele>
        <time>2021-08-06T09:17:38Z</time>
      </trkpt>
      <trkpt lat="47.52298" lon="-2.79508">
        <ele>28.2</ele>
        <time>2021-08-06T09:17:39Z</time>
      </trkpt>
      <trkpt lat="47.52304" lon="-2.795">
        <ele>28</ele>
        <time>2021-08-06T09:17:40Z</time>
      </trkpt>
      <trkpt lat="47.5231" lon="-2.79493">
        <ele>27.4</ele>
        <time>2021-08-06T09:17:41Z</time>
      </trkpt>
      <trkpt lat="47.52317" lon="-2.79485">
        <ele>27</ele>
        <time>2021-08-06T09:17:42Z</time>
      </trkpt>
      <trkpt lat="47.52323" lon="-2.79477">
        <ele>26.8</ele>
        <time>2021-08-06T09:17:43Z</time>
      </trkpt>
      <trkpt lat="47.52329" lon="-2.79469">
        <ele>26.6</ele>
        <time>2021-08-06T09:17:44Z</time>
      </trkpt>
      <trkpt lat="47.52336" lon="-2.79461">
        <ele>26</ele>
        <time>2021-08-06T09:17:45Z</time>
      </trkpt>
      <trkpt lat="47.52342" lon="-2.79453">
        <ele>25.6</ele>
        <time>2021-08-06T09:17:46Z</time>
      </trkpt>
      <trkpt lat="47.52349" lon="-2.79445">
        <ele>24.6</ele>
        <time>2021-08-06T09:17:47Z</time>
      </trkpt>
      <trkpt lat="47.52355" lon="-2.79437">
        <ele>24</ele>
        <time>2021-08-06T09:17:48Z</time>
      </trkpt>
      <trkpt lat="47.52361" lon="-2.79429">
        <ele>23.8</ele>
        <time>2021-08-06T09:17:49Z</time>
      </trkpt>
      <trkpt lat="47.52368" lon="-2.79422">
        <ele>23.4</ele>
        <time>2021-08-06T09:17:50Z</time>
      </trkpt>
      <trkpt lat="47.52374" lon="-2.79416">
        <ele>23</ele>
        <time>2021-08-06T09:17:51Z</time>
      </trkpt>
      <trkpt lat="47.5238" lon="-2.79411">
        <ele>22.2</ele>
        <time>2021-08-06T09:17:52Z</time>
      </trkpt>
      <trkpt lat="47.52385" lon="-2.79407">
        <ele>21.8</ele>
        <time>2021-08-06T09:17:53Z</time>
      </trkpt>
      <trkpt lat="47.52389" lon="-2.79404">
        <ele>21.6</ele>
        <time>2021-08-06T09:17:54Z</time>
      </trkpt>
      <trkpt lat="47.52394" lon="-2.79403">
        <ele>21.6</ele>
        <time>2021-08-06T09:17:55Z</time>
      </trkpt>
      <trkpt lat="47.52398" lon="-2.79401">
        <ele>21.4</ele>
        <time>2021-08-06T09:17:56Z</time>
      </trkpt>
      <trkpt lat="47.52403" lon="-2.79399">
        <ele>21.4</ele>
        <time>2021-08-06T09:17:57Z</time>
      </trkpt>
      <trkpt lat="47.52406" lon="-2.79395">
        <ele>21.4</ele>
        <time>2021-08-06T09:17:58Z</time>
      </trkpt>
      <trkpt lat="47.52407" lon="-2.7939">
        <ele>21.4</ele>
        <time>2021-08-06T09:17:59Z</time>
      </trkpt>
      <trkpt lat="47.52408" lon="-2.79385">
        <ele>21.4</ele>
        <time>2021-08-06T09:18:00Z</time>
      </trkpt>
      <trkpt lat="47.52408" lon="-2.79381">
        <ele>21.4</ele>
        <time>2021-08-06T09:18:01Z</time>
      </trkpt>
      <trkpt lat="47.52408" lon="-2.79376">
        <ele>22.4</ele>
        <time>2021-08-06T09:18:02Z</time>
      </trkpt>
      <trkpt lat="47.52408" lon="-2.79372">
        <ele>23.2</ele>
        <time>2021-08-06T09:18:03Z</time>
      </trkpt>
      <trkpt lat="47.52408" lon="-2.79368">
        <ele>23.8</ele>
        <time>2021-08-06T09:18:04Z</time>
      </trkpt>
      <trkpt lat="47.52408" lon="-2.79364">
        <ele>24.6</ele>
        <time>2021-08-06T09:18:05Z</time>
      </trkpt>
      <trkpt lat="47.52408" lon="-2.7936">
        <ele>25.4</ele>
        <time>2021-08-06T09:18:06Z</time>
      </trkpt>
      <trkpt lat="47.52408" lon="-2.79356">
        <ele>25.8</ele>
        <time>2021-08-06T09:18:07Z</time>
      </trkpt>
      <trkpt lat="47.52408" lon="-2.79352">
        <ele>26.2</ele>
        <time>2021-08-06T09:18:08Z</time>
      </trkpt>
      <trkpt lat="47.52409" lon="-2.79348">
        <ele>26.4</ele>
        <time>2021-08-06T09:18:09Z</time>
      </trkpt>
      <trkpt lat="47.52408" lon="-2.79344">
        <ele>26.6</ele>
        <time>2021-08-06T09:18:10Z</time>
      </trkpt>
      <trkpt lat="47.52408" lon="-2.7934">
        <ele>26.6</ele>
        <time>2021-08-06T09:18:11Z</time>
      </trkpt>
      <trkpt lat="47.52408" lon="-2.79335">
        <ele>26.8</ele>
        <time>2021-08-06T09:18:12Z</time>
      </trkpt>
      <trkpt lat="47.52408" lon="-2.79331">
        <ele>27.2</ele>
        <time>2021-08-06T09:18:13Z</time>
      </trkpt>
      <trkpt lat="47.52408" lon="-2.79327">
        <ele>27.4</ele>
        <time>2021-08-06T09:18:14Z</time>
      </trkpt>
      <trkpt lat="47.52408" lon="-2.79322">
        <ele>27.6</ele>
        <time>2021-08-06T09:18:15Z</time>
      </trkpt>
      <trkpt lat="47.52407" lon="-2.79318">
        <ele>27.8</ele>
        <time>2021-08-06T09:18:16Z</time>
      </trkpt>
      <trkpt lat="47.52406" lon="-2.79313">
        <ele>28</ele>
        <time>2021-08-06T09:18:17Z</time>
      </trkpt>
      <trkpt lat="47.52406" lon="-2.79309">
        <ele>28.2</ele>
        <time>2021-08-06T09:18:18Z</time>
      </trkpt>
      <trkpt lat="47.52405" lon="-2.79304">
        <ele>28.2</ele>
        <time>2021-08-06T09:18:19Z</time>
      </trkpt>
      <trkpt lat="47.52404" lon="-2.79299">
        <ele>28.4</ele>
        <time>2021-08-06T09:18:20Z</time>
      </trkpt>
      <trkpt lat="47.52403" lon="-2.79294">
        <ele>28.4</ele>
        <time>2021-08-06T09:18:21Z</time>
      </trkpt>
      <trkpt lat="47.52402" lon="-2.79289">
        <ele>28.6</ele>
        <time>2021-08-06T09:18:22Z</time>
      </trkpt>
      <trkpt lat="47.52401" lon="-2.79284">
        <ele>28.6</ele>
        <time>2021-08-06T09:18:23Z</time>
      </trkpt>
      <trkpt lat="47.524" lon="-2.79279">
        <ele>28.6</ele>
        <time>2021-08-06T09:18:24Z</time>
      </trkpt>
      <trkpt lat="47.52399" lon="-2.79274">
        <ele>28.6</ele>
        <time>2021-08-06T09:18:25Z</time>
      </trkpt>
      <trkpt lat="47.52398" lon="-2.79269">
        <ele>28.8</ele>
        <time>2021-08-06T09:18:26Z</time>
      </trkpt>
      <trkpt lat="47.52397" lon="-2.79264">
        <ele>28.8</ele>
        <time>2021-08-06T09:18:27Z</time>
      </trkpt>
      <trkpt lat="47.52396" lon="-2.79259">
        <ele>29</ele>
        <time>2021-08-06T09:18:28Z</time>
      </trkpt>
      <trkpt lat="47.52395" lon="-2.79254">
        <ele>29</ele>
        <time>2021-08-06T09:18:29Z</time>
      </trkpt>
      <trkpt lat="47.52394" lon="-2.79249">
        <ele>29.2</ele>
        <time>2021-08-06T09:18:30Z</time>
      </trkpt>
      <trkpt lat="47.52393" lon="-2.79244">
        <ele>29.2</ele>
        <time>2021-08-06T09:18:31Z</time>
      </trkpt>
      <trkpt lat="47.52393" lon="-2.79239">
        <ele>29.4</ele>
        <time>2021-08-06T09:18:32Z</time>
      </trkpt>
      <trkpt lat="47.52392" lon="-2.79234">
        <ele>29.4</ele>
        <time>2021-08-06T09:18:33Z</time>
      </trkpt>
      <trkpt lat="47.52392" lon="-2.79229">
        <ele>29.4</ele>
        <time>2021-08-06T09:18:34Z</time>
      </trkpt>
      <trkpt lat="47.52391" lon="-2.79224">
        <ele>29.6</ele>
        <time>2021-08-06T09:18:35Z</time>
      </trkpt>
      <trkpt lat="47.52391" lon="-2.79219">
        <ele>29.6</ele>
        <time>2021-08-06T09:18:36Z</time>
      </trkpt>
      <trkpt lat="47.5239" lon="-2.79214">
        <ele>29.8</ele>
        <time>2021-08-06T09:18:37Z</time>
      </trkpt>
      <trkpt lat="47.5239" lon="-2.79209">
        <ele>29.8</ele>
        <time>2021-08-06T09:18:38Z</time>
      </trkpt>
      <trkpt lat="47.52389" lon="-2.79204">
        <ele>30</ele>
        <time>2021-08-06T09:18:39Z</time>
      </trkpt>
      <trkpt lat="47.52389" lon="-2.79199">
        <ele>30</ele>
        <time>2021-08-06T09:18:40Z</time>
      </trkpt>
      <trkpt lat="47.52389" lon="-2.79193">
        <ele>30.2</ele>
        <time>2021-08-06T09:18:41Z</time>
      </trkpt>
      <trkpt lat="47.52389" lon="-2.79188">
        <ele>30.2</ele>
        <time>2021-08-06T09:18:42Z</time>
      </trkpt>
      <trkpt lat="47.52388" lon="-2.79183">
        <ele>30.2</ele>
        <time>2021-08-06T09:18:43Z</time>
      </trkpt>
      <trkpt lat="47.52388" lon="-2.79178">
        <ele>30.4</ele>
        <time>2021-08-06T09:18:44Z</time>
      </trkpt>
      <trkpt lat="47.52387" lon="-2.79173">
        <ele>30.4</ele>
        <time>2021-08-06T09:18:45Z</time>
      </trkpt>
      <trkpt lat="47.52386" lon="-2.79167">
        <ele>30.4</ele>
        <time>2021-08-06T09:18:46Z</time>
      </trkpt>
      <trkpt lat="47.52386" lon="-2.79162">
        <ele>30.6</ele>
        <time>2021-08-06T09:18:47Z</time>
      </trkpt>
      <trkpt lat="47.52385" lon="-2.79157">
        <ele>30.8</ele>
        <time>2021-08-06T09:18:48Z</time>
      </trkpt>
      <trkpt lat="47.52384" lon="-2.79151">
        <ele>30.8</ele>
        <time>2021-08-06T09:18:49Z</time>
      </trkpt>
      <trkpt lat="47.52383" lon="-2.79146">
        <ele>30.8</ele>
        <time>2021-08-06T09:18:50Z</time>
      </trkpt>
      <trkpt lat="47.52383" lon="-2.7914">
        <ele>31</ele>
        <time>2021-08-06T09:18:51Z</time>
      </trkpt>
      <trkpt lat="47.52382" lon="-2.79135">
        <ele>31</ele>
        <time>2021-08-06T09:18:52Z</time>
      </trkpt>
      <trkpt lat="47.52381" lon="-2.79129">
        <ele>31.2</ele>
        <time>2021-08-06T09:18:53Z</time>
      </trkpt>
      <trkpt lat="47.5238" lon="-2.79124">
        <ele>31.2</ele>
        <time>2021-08-06T09:18:54Z</time>
      </trkpt>
      <trkpt lat="47.52379" lon="-2.79118">
        <ele>31.2</ele>
        <time>2021-08-06T09:18:55Z</time>
      </trkpt>
      <trkpt lat="47.52378" lon="-2.79113">
        <ele>31.2</ele>
        <time>2021-08-06T09:18:56Z</time>
      </trkpt>
      <trkpt lat="47.52377" lon="-2.79107">
        <ele>31.4</ele>
        <time>2021-08-06T09:18:57Z</time>
      </trkpt>
      <trkpt lat="47.52376" lon="-2.79102">
        <ele>31.4</ele>
        <time>2021-08-06T09:18:58Z</time>
      </trkpt>
      <trkpt lat="47.52374" lon="-2.79096">
        <ele>31.4</ele>
        <time>2021-08-06T09:18:59Z</time>
      </trkpt>
      <trkpt lat="47.52374" lon="-2.79091">
        <ele>31.4</ele>
        <time>2021-08-06T09:19:00Z</time>
      </trkpt>
      <trkpt lat="47.52373" lon="-2.79086">
        <ele>31.4</ele>
        <time>2021-08-06T09:19:01Z</time>
      </trkpt>
      <trkpt lat="47.52372" lon="-2.7908">
        <ele>31.4</ele>
        <time>2021-08-06T09:19:02Z</time>
      </trkpt>
      <trkpt lat="47.52371" lon="-2.79075">
        <ele>31.6</ele>
        <time>2021-08-06T09:19:03Z</time>
      </trkpt>
      <trkpt lat="47.52371" lon="-2.79069">
        <ele>31.6</ele>
        <time>2021-08-06T09:19:04Z</time>
      </trkpt>
      <trkpt lat="47.5237" lon="-2.79064">
        <ele>31.8</ele>
        <time>2021-08-06T09:19:05Z</time>
      </trkpt>
      <trkpt lat="47.52369" lon="-2.79058">
        <ele>31.8</ele>
        <time>2021-08-06T09:19:06Z</time>
      </trkpt>
      <trkpt lat="47.52368" lon="-2.79053">
        <ele>31.8</ele>
        <time>2021-08-06T09:19:07Z</time>
      </trkpt>
      <trkpt lat="47.52367" lon="-2.79047">
        <ele>31.8</ele>
        <time>2021-08-06T09:19:08Z</time>
      </trkpt>
      <trkpt lat="47.52367" lon="-2.79041">
        <ele>32</ele>
        <time>2021-08-06T09:19:09Z</time>
      </trkpt>
      <trkpt lat="47.52366" lon="-2.79035">
        <ele>32</ele>
        <time>2021-08-06T09:19:10Z</time>
      </trkpt>
      <trkpt lat="47.52365" lon="-2.79029">
        <ele>32</ele>
        <time>2021-08-06T09:19:11Z</time>
      </trkpt>
      <trkpt lat="47.52365" lon="-2.79024">
        <ele>32.2</ele>
        <time>2021-08-06T09:19:12Z</time>
      </trkpt>
      <trkpt lat="47.52364" lon="-2.79017">
        <ele>32.2</ele>
        <time>2021-08-06T09:19:13Z</time>
      </trkpt>
      <trkpt lat="47.52364" lon="-2.79011">
        <ele>32.2</ele>
        <time>2021-08-06T09:19:14Z</time>
      </trkpt>
      <trkpt lat="47.52364" lon="-2.79005">
        <ele>32.4</ele>
        <time>2021-08-06T09:19:15Z</time>
      </trkpt>
      <trkpt lat="47.52364" lon="-2.78999">
        <ele>32.4</ele>
        <time>2021-08-06T09:19:16Z</time>
      </trkpt>
      <trkpt lat="47.52364" lon="-2.78993">
        <ele>32.4</ele>
        <time>2021-08-06T09:19:17Z</time>
      </trkpt>
      <trkpt lat="47.52365" lon="-2.78987">
        <ele>32.6</ele>
        <time>2021-08-06T09:19:18Z</time>
      </trkpt>
      <trkpt lat="47.52365" lon="-2.78981">
        <ele>32.6</ele>
        <time>2021-08-06T09:19:19Z</time>
      </trkpt>
      <trkpt lat="47.52367" lon="-2.78976">
        <ele>32.6</ele>
        <time>2021-08-06T09:19:20Z</time>
      </trkpt>
      <trkpt lat="47.52368" lon="-2.7897">
        <ele>32.6</ele>
        <time>2021-08-06T09:19:21Z</time>
      </trkpt>
      <trkpt lat="47.52369" lon="-2.78964">
        <ele>32.6</ele>
        <time>2021-08-06T09:19:22Z</time>
      </trkpt>
      <trkpt lat="47.52371" lon="-2.78958">
        <ele>32.6</ele>
        <time>2021-08-06T09:19:23Z</time>
      </trkpt>
      <trkpt lat="47.52372" lon="-2.78951">
        <ele>32.6</ele>
        <time>2021-08-06T09:19:24Z</time>
      </trkpt>
      <trkpt lat="47.52375" lon="-2.78946">
        <ele>32.6</ele>
        <time>2021-08-06T09:19:25Z</time>
      </trkpt>
      <trkpt lat="47.52377" lon="-2.78941">
        <ele>32.6</ele>
        <time>2021-08-06T09:19:26Z</time>
      </trkpt>
      <trkpt lat="47.5238" lon="-2.78936">
        <ele>32.6</ele>
        <time>2021-08-06T09:19:27Z</time>
      </trkpt>
      <trkpt lat="47.52383" lon="-2.78931">
        <ele>32.4</ele>
        <time>2021-08-06T09:19:28Z</time>
      </trkpt>
      <trkpt lat="47.52386" lon="-2.78927">
        <ele>32.4</ele>
        <time>2021-08-06T09:19:29Z</time>
      </trkpt>
      <trkpt lat="47.52389" lon="-2.78923">
        <ele>32.2</ele>
        <time>2021-08-06T09:19:30Z</time>
      </trkpt>
      <trkpt lat="47.52392" lon="-2.78918">
        <ele>32.2</ele>
        <time>2021-08-06T09:19:31Z</time>
      </trkpt>
      <trkpt lat="47.52395" lon="-2.78913">
        <ele>32.2</ele>
        <time>2021-08-06T09:19:32Z</time>
      </trkpt>
      <trkpt lat="47.52398" lon="-2.78909">
        <ele>32.2</ele>
        <time>2021-08-06T09:19:33Z</time>
      </trkpt>
      <trkpt lat="47.52401" lon="-2.78904">
        <ele>32.2</ele>
        <time>2021-08-06T09:19:34Z</time>
      </trkpt>
      <trkpt lat="47.52404" lon="-2.789">
        <ele>32.2</ele>
        <time>2021-08-06T09:19:35Z</time>
      </trkpt>
      <trkpt lat="47.52407" lon="-2.78896">
        <ele>32.2</ele>
        <time>2021-08-06T09:19:36Z</time>
      </trkpt>
      <trkpt lat="47.52409" lon="-2.78891">
        <ele>32.2</ele>
        <time>2021-08-06T09:19:37Z</time>
      </trkpt>
      <trkpt lat="47.52412" lon="-2.78886">
        <ele>32.2</ele>
        <time>2021-08-06T09:19:38Z</time>
      </trkpt>
      <trkpt lat="47.52414" lon="-2.7888">
        <ele>32.2</ele>
        <time>2021-08-06T09:19:39Z</time>
      </trkpt>
      <trkpt lat="47.52416" lon="-2.78874">
        <ele>32.2</ele>
        <time>2021-08-06T09:19:40Z</time>
      </trkpt>
      <trkpt lat="47.52416" lon="-2.78866">
        <ele>32.2</ele>
        <time>2021-08-06T09:19:41Z</time>
      </trkpt>
      <trkpt lat="47.52417" lon="-2.78858">
        <ele>32.2</ele>
        <time>2021-08-06T09:19:42Z</time>
      </trkpt>
      <trkpt lat="47.52416" lon="-2.78849">
        <ele>32.2</ele>
        <time>2021-08-06T09:19:43Z</time>
      </trkpt>
      <trkpt lat="47.52416" lon="-2.7884">
        <ele>32.2</ele>
        <time>2021-08-06T09:19:44Z</time>
      </trkpt>
      <trkpt lat="47.52417" lon="-2.78831">
        <ele>32.2</ele>
        <time>2021-08-06T09:19:45Z</time>
      </trkpt>
      <trkpt lat="47.52418" lon="-2.78822">
        <ele>32.2</ele>
        <time>2021-08-06T09:19:46Z</time>
      </trkpt>
      <trkpt lat="47.52418" lon="-2.78815">
        <ele>32.2</ele>
        <time>2021-08-06T09:19:47Z</time>
      </trkpt>
      <trkpt lat="47.52419" lon="-2.78807">
        <ele>32.2</ele>
        <time>2021-08-06T09:19:48Z</time>
      </trkpt>
      <trkpt lat="47.52419" lon="-2.78799">
        <ele>31.8</ele>
        <time>2021-08-06T09:19:49Z</time>
      </trkpt>
      <trkpt lat="47.5242" lon="-2.78791">
        <ele>31.4</ele>
        <time>2021-08-06T09:19:50Z</time>
      </trkpt>
      <trkpt lat="47.52421" lon="-2.78784">
        <ele>31</ele>
        <time>2021-08-06T09:19:51Z</time>
      </trkpt>
      <trkpt lat="47.52423" lon="-2.78778">
        <ele>30.8</ele>
        <time>2021-08-06T09:19:52Z</time>
      </trkpt>
      <trkpt lat="47.52425" lon="-2.78772">
        <ele>30.6</ele>
        <time>2021-08-06T09:19:53Z</time>
      </trkpt>
      <trkpt lat="47.52427" lon="-2.78766">
        <ele>30.6</ele>
        <time>2021-08-06T09:19:54Z</time>
      </trkpt>
      <trkpt lat="47.52428" lon="-2.78761">
        <ele>30.4</ele>
        <time>2021-08-06T09:19:55Z</time>
      </trkpt>
      <trkpt lat="47.52429" lon="-2.78755">
        <ele>30.4</ele>
        <time>2021-08-06T09:19:56Z</time>
      </trkpt>
      <trkpt lat="47.52431" lon="-2.7875">
        <ele>30.4</ele>
        <time>2021-08-06T09:19:57Z</time>
      </trkpt>
      <trkpt lat="47.52432" lon="-2.78745">
        <ele>30.4</ele>
        <time>2021-08-06T09:19:58Z</time>
      </trkpt>
      <trkpt lat="47.52433" lon="-2.78741">
        <ele>30.4</ele>
        <time>2021-08-06T09:19:59Z</time>
      </trkpt>
      <trkpt lat="47.52435" lon="-2.78737">
        <ele>30.6</ele>
        <time>2021-08-06T09:20:00Z</time>
      </trkpt>
      <trkpt lat="47.52436" lon="-2.78733">
        <ele>31</ele>
        <time>2021-08-06T09:20:01Z</time>
      </trkpt>
      <trkpt lat="47.52437" lon="-2.78729">
        <ele>31.2</ele>
        <time>2021-08-06T09:20:02Z</time>
      </trkpt>
      <trkpt lat="47.52439" lon="-2.78726">
        <ele>31.6</ele>
        <time>2021-08-06T09:20:03Z</time>
      </trkpt>
      <trkpt lat="47.5244" lon="-2.78722">
        <ele>32</ele>
        <time>2021-08-06T09:20:04Z</time>
      </trkpt>
      <trkpt lat="47.52441" lon="-2.78718">
        <ele>32.4</ele>
        <time>2021-08-06T09:20:05Z</time>
      </trkpt>
      <trkpt lat="47.52442" lon="-2.78715">
        <ele>32.6</ele>
        <time>2021-08-06T09:20:06Z</time>
      </trkpt>
      <trkpt lat="47.52443" lon="-2.78711">
        <ele>32.8</ele>
        <time>2021-08-06T09:20:07Z</time>
      </trkpt>
      <trkpt lat="47.52444" lon="-2.78708">
        <ele>33</ele>
        <time>2021-08-06T09:20:08Z</time>
      </trkpt>
      <trkpt lat="47.52445" lon="-2.78704">
        <ele>33.4</ele>
        <time>2021-08-06T09:20:09Z</time>
      </trkpt>
      <trkpt lat="47.52445" lon="-2.78699">
        <ele>33.6</ele>
        <time>2021-08-06T09:20:10Z</time>
      </trkpt>
      <trkpt lat="47.52446" lon="-2.78694">
        <ele>34</ele>
        <time>2021-08-06T09:20:11Z</time>
      </trkpt>
      <trkpt lat="47.52446" lon="-2.7869">
        <ele>34.2</ele>
        <time>2021-08-06T09:20:12Z</time>
      </trkpt>
      <trkpt lat="47.52446" lon="-2.78685">
        <ele>34.4</ele>
        <time>2021-08-06T09:20:13Z</time>
      </trkpt>
      <trkpt lat="47.52446" lon="-2.7868">
        <ele>34.6</ele>
        <time>2021-08-06T09:20:14Z</time>
      </trkpt>
      <trkpt lat="47.52447" lon="-2.78675">
        <ele>34.6</ele>
        <time>2021-08-06T09:20:15Z</time>
      </trkpt>
      <trkpt lat="47.52447" lon="-2.7867">
        <ele>34.8</ele>
        <time>2021-08-06T09:20:16Z</time>
      </trkpt>
      <trkpt lat="47.52447" lon="-2.78665">
        <ele>34.8</ele>
        <time>2021-08-06T09:20:17Z</time>
      </trkpt>
      <trkpt lat="47.52447" lon="-2.7866">
        <ele>34.8</ele>
        <time>2021-08-06T09:20:18Z</time>
      </trkpt>
      <trkpt lat="47.52448" lon="-2.78654">
        <ele>34.8</ele>
        <time>2021-08-06T09:20:19Z</time>
      </trkpt>
      <trkpt lat="47.52448" lon="-2.78649">
        <ele>34.8</ele>
        <time>2021-08-06T09:20:20Z</time>
      </trkpt>
      <trkpt lat="47.52449" lon="-2.78643">
        <ele>34.8</ele>
        <time>2021-08-06T09:20:21Z</time>
      </trkpt>
      <trkpt lat="47.52449" lon="-2.78638">
        <ele>35</ele>
        <time>2021-08-06T09:20:22Z</time>
      </trkpt>
      <trkpt lat="47.5245" lon="-2.78633">
        <ele>35</ele>
        <time>2021-08-06T09:20:23Z</time>
      </trkpt>
      <trkpt lat="47.5245" lon="-2.78627">
        <ele>35</ele>
        <time>2021-08-06T09:20:24Z</time>
      </trkpt>
      <trkpt lat="47.52451" lon="-2.78621">
        <ele>35</ele>
        <time>2021-08-06T09:20:25Z</time>
      </trkpt>
      <trkpt lat="47.52451" lon="-2.78616">
        <ele>35</ele>
        <time>2021-08-06T09:20:26Z</time>
      </trkpt>
      <trkpt lat="47.52451" lon="-2.7861">
        <ele>35</ele>
        <time>2021-08-06T09:20:27Z</time>
      </trkpt>
      <trkpt lat="47.52452" lon="-2.78604">
        <ele>35</ele>
        <time>2021-08-06T09:20:28Z</time>
      </trkpt>
      <trkpt lat="47.52452" lon="-2.78598">
        <ele>35</ele>
        <time>2021-08-06T09:20:29Z</time>
      </trkpt>
      <trkpt lat="47.52453" lon="-2.78592">
        <ele>35.2</ele>
        <time>2021-08-06T09:20:30Z</time>
      </trkpt>
      <trkpt lat="47.52453" lon="-2.78586">
        <ele>35.2</ele>
        <time>2021-08-06T09:20:31Z</time>
      </trkpt>
      <trkpt lat="47.52454" lon="-2.7858">
        <ele>35.2</ele>
        <time>2021-08-06T09:20:32Z</time>
      </trkpt>
      <trkpt lat="47.52455" lon="-2.78574">
        <ele>35.2</ele>
        <time>2021-08-06T09:20:33Z</time>
      </trkpt>
      <trkpt lat="47.52456" lon="-2.78568">
        <ele>35.2</ele>
        <time>2021-08-06T09:20:34Z</time>
      </trkpt>
      <trkpt lat="47.52457" lon="-2.78562">
        <ele>35.2</ele>
        <time>2021-08-06T09:20:35Z</time>
      </trkpt>
      <trkpt lat="47.52457" lon="-2.78556">
        <ele>35.2</ele>
        <time>2021-08-06T09:20:36Z</time>
      </trkpt>
      <trkpt lat="47.52458" lon="-2.7855">
        <ele>35.2</ele>
        <time>2021-08-06T09:20:37Z</time>
      </trkpt>
      <trkpt lat="47.5246" lon="-2.78544">
        <ele>35.2</ele>
        <time>2021-08-06T09:20:38Z</time>
      </trkpt>
      <trkpt lat="47.52461" lon="-2.78538">
        <ele>35.4</ele>
        <time>2021-08-06T09:20:39Z</time>
      </trkpt>
      <trkpt lat="47.52462" lon="-2.78532">
        <ele>35.4</ele>
        <time>2021-08-06T09:20:40Z</time>
      </trkpt>
      <trkpt lat="47.52463" lon="-2.78526">
        <ele>35.4</ele>
        <time>2021-08-06T09:20:41Z</time>
      </trkpt>
      <trkpt lat="47.52464" lon="-2.7852">
        <ele>35.4</ele>
        <time>2021-08-06T09:20:42Z</time>
      </trkpt>
      <trkpt lat="47.52465" lon="-2.78514">
        <ele>35.4</ele>
        <time>2021-08-06T09:20:43Z</time>
      </trkpt>
      <trkpt lat="47.52466" lon="-2.78508">
        <ele>35.4</ele>
        <time>2021-08-06T09:20:44Z</time>
      </trkpt>
      <trkpt lat="47.52468" lon="-2.78501">
        <ele>35.6</ele>
        <time>2021-08-06T09:20:45Z</time>
      </trkpt>
      <trkpt lat="47.52469" lon="-2.78495">
        <ele>35.6</ele>
        <time>2021-08-06T09:20:46Z</time>
      </trkpt>
      <trkpt lat="47.5247" lon="-2.78489">
        <ele>35.6</ele>
        <time>2021-08-06T09:20:47Z</time>
      </trkpt>
      <trkpt lat="47.52472" lon="-2.78483">
        <ele>35.6</ele>
        <time>2021-08-06T09:20:48Z</time>
      </trkpt>
      <trkpt lat="47.52473" lon="-2.78476">
        <ele>35.6</ele>
        <time>2021-08-06T09:20:49Z</time>
      </trkpt>
      <trkpt lat="47.52475" lon="-2.7847">
        <ele>35.6</ele>
        <time>2021-08-06T09:20:50Z</time>
      </trkpt>
      <trkpt lat="47.52477" lon="-2.78464">
        <ele>35.8</ele>
        <time>2021-08-06T09:20:51Z</time>
      </trkpt>
      <trkpt lat="47.52479" lon="-2.78459">
        <ele>35.8</ele>
        <time>2021-08-06T09:20:52Z</time>
      </trkpt>
      <trkpt lat="47.52481" lon="-2.78453">
        <ele>35.8</ele>
        <time>2021-08-06T09:20:53Z</time>
      </trkpt>
      <trkpt lat="47.52483" lon="-2.78447">
        <ele>35.8</ele>
        <time>2021-08-06T09:20:54Z</time>
      </trkpt>
      <trkpt lat="47.52485" lon="-2.78442">
        <ele>35.8</ele>
        <time>2021-08-06T09:20:55Z</time>
      </trkpt>
      <trkpt lat="47.52488" lon="-2.78438">
        <ele>35.8</ele>
        <time>2021-08-06T09:20:56Z</time>
      </trkpt>
      <trkpt lat="47.52491" lon="-2.78433">
        <ele>36</ele>
        <time>2021-08-06T09:20:57Z</time>
      </trkpt>
      <trkpt lat="47.52493" lon="-2.78428">
        <ele>36</ele>
        <time>2021-08-06T09:20:58Z</time>
      </trkpt>
      <trkpt lat="47.52496" lon="-2.78424">
        <ele>36</ele>
        <time>2021-08-06T09:20:59Z</time>
      </trkpt>
      <trkpt lat="47.52499" lon="-2.78419">
        <ele>36</ele>
        <time>2021-08-06T09:21:00Z</time>
      </trkpt>
      <trkpt lat="47.52502" lon="-2.78415">
        <ele>36</ele>
        <time>2021-08-06T09:21:01Z</time>
      </trkpt>
      <trkpt lat="47.52505" lon="-2.7841">
        <ele>36</ele>
        <time>2021-08-06T09:21:02Z</time>
      </trkpt>
      <trkpt lat="47.52508" lon="-2.78406">
        <ele>36</ele>
        <time>2021-08-06T09:21:03Z</time>
      </trkpt>
      <trkpt lat="47.52511" lon="-2.78402">
        <ele>36</ele>
        <time>2021-08-06T09:21:04Z</time>
      </trkpt>
      <trkpt lat="47.52514" lon="-2.78397">
        <ele>36.2</ele>
        <time>2021-08-06T09:21:05Z</time>
      </trkpt>
      <trkpt lat="47.52517" lon="-2.78393">
        <ele>36.2</ele>
        <time>2021-08-06T09:21:06Z</time>
      </trkpt>
      <trkpt lat="47.5252" lon="-2.78388">
        <ele>36.4</ele>
        <time>2021-08-06T09:21:07Z</time>
      </trkpt>
      <trkpt lat="47.52523" lon="-2.78384">
        <ele>36.4</ele>
        <time>2021-08-06T09:21:08Z</time>
      </trkpt>
      <trkpt lat="47.52526" lon="-2.7838">
        <ele>36.6</ele>
        <time>2021-08-06T09:21:09Z</time>
      </trkpt>
      <trkpt lat="47.52529" lon="-2.78376">
        <ele>36.6</ele>
        <time>2021-08-06T09:21:10Z</time>
      </trkpt>
      <trkpt lat="47.52532" lon="-2.78373">
        <ele>36.6</ele>
        <time>2021-08-06T09:21:11Z</time>
      </trkpt>
      <trkpt lat="47.52535" lon="-2.78369">
        <ele>36.8</ele>
        <time>2021-08-06T09:21:12Z</time>
      </trkpt>
      <trkpt lat="47.52539" lon="-2.78365">
        <ele>36.8</ele>
        <time>2021-08-06T09:21:13Z</time>
      </trkpt>
      <trkpt lat="47.52542" lon="-2.78361">
        <ele>36.8</ele>
        <time>2021-08-06T09:21:14Z</time>
      </trkpt>
      <trkpt lat="47.52545" lon="-2.78357">
        <ele>36.8</ele>
        <time>2021-08-06T09:21:15Z</time>
      </trkpt>
      <trkpt lat="47.52548" lon="-2.78352">
        <ele>36.8</ele>
        <time>2021-08-06T09:21:16Z</time>
      </trkpt>
      <trkpt lat="47.5255" lon="-2.78346">
        <ele>36.8</ele>
        <time>2021-08-06T09:21:17Z</time>
      </trkpt>
      <trkpt lat="47.52553" lon="-2.78341">
        <ele>36.8</ele>
        <time>2021-08-06T09:21:18Z</time>
      </trkpt>
      <trkpt lat="47.52555" lon="-2.78335">
        <ele>36.6</ele>
        <time>2021-08-06T09:21:19Z</time>
      </trkpt>
      <trkpt lat="47.52557" lon="-2.78329">
        <ele>36.6</ele>
        <time>2021-08-06T09:21:20Z</time>
      </trkpt>
      <trkpt lat="47.52559" lon="-2.78323">
        <ele>36.2</ele>
        <time>2021-08-06T09:21:21Z</time>
      </trkpt>
      <trkpt lat="47.5256" lon="-2.78317">
        <ele>36.2</ele>
        <time>2021-08-06T09:21:22Z</time>
      </trkpt>
      <trkpt lat="47.52561" lon="-2.78311">
        <ele>36.2</ele>
        <time>2021-08-06T09:21:23Z</time>
      </trkpt>
      <trkpt lat="47.52561" lon="-2.78306">
        <ele>36.2</ele>
        <time>2021-08-06T09:21:24Z</time>
      </trkpt>
      <trkpt lat="47.52561" lon="-2.78302">
        <ele>36.2</ele>
        <time>2021-08-06T09:21:25Z</time>
      </trkpt>
      <trkpt lat="47.5256" lon="-2.78299">
        <ele>36.2</ele>
        <time>2021-08-06T09:21:26Z</time>
      </trkpt>
      <trkpt lat="47.5256" lon="-2.78295">
        <ele>36.2</ele>
        <time>2021-08-06T09:21:27Z</time>
      </trkpt>
      <trkpt lat="47.5256" lon="-2.78293">
        <ele>36.2</ele>
        <time>2021-08-06T09:21:28Z</time>
      </trkpt>
      <trkpt lat="47.52559" lon="-2.7829">
        <ele>36.2</ele>
        <time>2021-08-06T09:21:29Z</time>
      </trkpt>
      <trkpt lat="47.52559" lon="-2.78287">
        <ele>36.2</ele>
        <time>2021-08-06T09:21:30Z</time>
      </trkpt>
      <trkpt lat="47.52559" lon="-2.78285">
        <ele>36.2</ele>
        <time>2021-08-06T09:21:31Z</time>
      </trkpt>
      <trkpt lat="47.52559" lon="-2.78281">
        <ele>36.2</ele>
        <time>2021-08-06T09:21:32Z</time>
      </trkpt>
      <trkpt lat="47.52558" lon="-2.78278">
        <ele>36.2</ele>
        <time>2021-08-06T09:21:33Z</time>
      </trkpt>
      <trkpt lat="47.52558" lon="-2.78274">
        <ele>36.2</ele>
        <time>2021-08-06T09:21:34Z</time>
      </trkpt>
      <trkpt lat="47.52557" lon="-2.7827">
        <ele>36.4</ele>
        <time>2021-08-06T09:21:35Z</time>
      </trkpt>
      <trkpt lat="47.52557" lon="-2.78266">
        <ele>36.4</ele>
        <time>2021-08-06T09:21:36Z</time>
      </trkpt>
      <trkpt lat="47.52557" lon="-2.78261">
        <ele>36.4</ele>
        <time>2021-08-06T09:21:37Z</time>
      </trkpt>
      <trkpt lat="47.52557" lon="-2.78256">
        <ele>36.6</ele>
        <time>2021-08-06T09:21:38Z</time>
      </trkpt>
      <trkpt lat="47.52556" lon="-2.78251">
        <ele>36.6</ele>
        <time>2021-08-06T09:21:39Z</time>
      </trkpt>
      <trkpt lat="47.52556" lon="-2.78246">
        <ele>36.6</ele>
        <time>2021-08-06T09:21:40Z</time>
      </trkpt>
      <trkpt lat="47.52556" lon="-2.7824">
        <ele>36.6</ele>
        <time>2021-08-06T09:21:41Z</time>
      </trkpt>
      <trkpt lat="47.52556" lon="-2.78235">
        <ele>36.6</ele>
        <time>2021-08-06T09:21:42Z</time>
      </trkpt>
      <trkpt lat="47.52555" lon="-2.78229">
        <ele>36.8</ele>
        <time>2021-08-06T09:21:43Z</time>
      </trkpt>
      <trkpt lat="47.52555" lon="-2.78223">
        <ele>36.8</ele>
        <time>2021-08-06T09:21:44Z</time>
      </trkpt>
      <trkpt lat="47.52554" lon="-2.78217">
        <ele>36.8</ele>
        <time>2021-08-06T09:21:45Z</time>
      </trkpt>
      <trkpt lat="47.52554" lon="-2.78211">
        <ele>36.8</ele>
        <time>2021-08-06T09:21:46Z</time>
      </trkpt>
      <trkpt lat="47.52554" lon="-2.78205">
        <ele>36.8</ele>
        <time>2021-08-06T09:21:47Z</time>
      </trkpt>
      <trkpt lat="47.52554" lon="-2.78199">
        <ele>37</ele>
        <time>2021-08-06T09:21:48Z</time>
      </trkpt>
      <trkpt lat="47.52553" lon="-2.78193">
        <ele>37</ele>
        <time>2021-08-06T09:21:49Z</time>
      </trkpt>
      <trkpt lat="47.52553" lon="-2.78187">
        <ele>37</ele>
        <time>2021-08-06T09:21:50Z</time>
      </trkpt>
      <trkpt lat="47.52553" lon="-2.7818">
        <ele>37</ele>
        <time>2021-08-06T09:21:51Z</time>
      </trkpt>
      <trkpt lat="47.52553" lon="-2.78174">
        <ele>37</ele>
        <time>2021-08-06T09:21:52Z</time>
      </trkpt>
      <trkpt lat="47.52552" lon="-2.78168">
        <ele>37.2</ele>
        <time>2021-08-06T09:21:53Z</time>
      </trkpt>
      <trkpt lat="47.52552" lon="-2.78161">
        <ele>37.2</ele>
        <time>2021-08-06T09:21:54Z</time>
      </trkpt>
      <trkpt lat="47.52552" lon="-2.78155">
        <ele>37.2</ele>
        <time>2021-08-06T09:21:55Z</time>
      </trkpt>
      <trkpt lat="47.52551" lon="-2.78148">
        <ele>37.2</ele>
        <time>2021-08-06T09:21:56Z</time>
      </trkpt>
      <trkpt lat="47.52551" lon="-2.78142">
        <ele>37.2</ele>
        <time>2021-08-06T09:21:57Z</time>
      </trkpt>
      <trkpt lat="47.5255" lon="-2.78135">
        <ele>37.4</ele>
        <time>2021-08-06T09:21:58Z</time>
      </trkpt>
      <trkpt lat="47.5255" lon="-2.78129">
        <ele>37.4</ele>
        <time>2021-08-06T09:21:59Z</time>
      </trkpt>
      <trkpt lat="47.5255" lon="-2.78122">
        <ele>37.4</ele>
        <time>2021-08-06T09:22:00Z</time>
      </trkpt>
      <trkpt lat="47.5255" lon="-2.78116">
        <ele>37.4</ele>
        <time>2021-08-06T09:22:01Z</time>
      </trkpt>
      <trkpt lat="47.52549" lon="-2.78109">
        <ele>37.6</ele>
        <time>2021-08-06T09:22:02Z</time>
      </trkpt>
      <trkpt lat="47.52549" lon="-2.78103">
        <ele>37.6</ele>
        <time>2021-08-06T09:22:03Z</time>
      </trkpt>
      <trkpt lat="47.52549" lon="-2.78096">
        <ele>37.6</ele>
        <time>2021-08-06T09:22:04Z</time>
      </trkpt>
      <trkpt lat="47.52549" lon="-2.7809">
        <ele>37.8</ele>
        <time>2021-08-06T09:22:05Z</time>
      </trkpt>
      <trkpt lat="47.52548" lon="-2.78084">
        <ele>37.8</ele>
        <time>2021-08-06T09:22:06Z</time>
      </trkpt>
      <trkpt lat="47.52548" lon="-2.78077">
        <ele>37.8</ele>
        <time>2021-08-06T09:22:07Z</time>
      </trkpt>
      <trkpt lat="47.52548" lon="-2.78071">
        <ele>37.8</ele>
        <time>2021-08-06T09:22:08Z</time>
      </trkpt>
      <trkpt lat="47.52548" lon="-2.78064">
        <ele>37.8</ele>
        <time>2021-08-06T09:22:09Z</time>
      </trkpt>
      <trkpt lat="47.52548" lon="-2.78058">
        <ele>37.8</ele>
        <time>2021-08-06T09:22:10Z</time>
      </trkpt>
      <trkpt lat="47.52547" lon="-2.78052">
        <ele>37.8</ele>
        <time>2021-08-06T09:22:11Z</time>
      </trkpt>
      <trkpt lat="47.52547" lon="-2.78045">
        <ele>38</ele>
        <time>2021-08-06T09:22:12Z</time>
      </trkpt>
      <trkpt lat="47.52547" lon="-2.78039">
        <ele>38</ele>
        <time>2021-08-06T09:22:13Z</time>
      </trkpt>
      <trkpt lat="47.52547" lon="-2.78032">
        <ele>38</ele>
        <time>2021-08-06T09:22:14Z</time>
      </trkpt>
      <trkpt lat="47.52546" lon="-2.78026">
        <ele>38.2</ele>
        <time>2021-08-06T09:22:15Z</time>
      </trkpt>
      <trkpt lat="47.52546" lon="-2.78019">
        <ele>38.2</ele>
        <time>2021-08-06T09:22:16Z</time>
      </trkpt>
      <trkpt lat="47.52546" lon="-2.78013">
        <ele>38.4</ele>
        <time>2021-08-06T09:22:17Z</time>
      </trkpt>
      <trkpt lat="47.52546" lon="-2.78006">
        <ele>38.4</ele>
        <time>2021-08-06T09:22:18Z</time>
      </trkpt>
      <trkpt lat="47.52546" lon="-2.77999">
        <ele>38.4</ele>
        <time>2021-08-06T09:22:19Z</time>
      </trkpt>
      <trkpt lat="47.52546" lon="-2.77993">
        <ele>38.4</ele>
        <time>2021-08-06T09:22:20Z</time>
      </trkpt>
      <trkpt lat="47.52545" lon="-2.77986">
        <ele>38.4</ele>
        <time>2021-08-06T09:22:21Z</time>
      </trkpt>
      <trkpt lat="47.52545" lon="-2.77979">
        <ele>38.4</ele>
        <time>2021-08-06T09:22:22Z</time>
      </trkpt>
      <trkpt lat="47.52544" lon="-2.77973">
        <ele>38.6</ele>
        <time>2021-08-06T09:22:23Z</time>
      </trkpt>
      <trkpt lat="47.52543" lon="-2.77967">
        <ele>38.6</ele>
        <time>2021-08-06T09:22:24Z</time>
      </trkpt>
      <trkpt lat="47.52542" lon="-2.77961">
        <ele>38.6</ele>
        <time>2021-08-06T09:22:25Z</time>
      </trkpt>
      <trkpt lat="47.52542" lon="-2.77954">
        <ele>38.6</ele>
        <time>2021-08-06T09:22:26Z</time>
      </trkpt>
      <trkpt lat="47.52542" lon="-2.77948">
        <ele>38.6</ele>
        <time>2021-08-06T09:22:27Z</time>
      </trkpt>
      <trkpt lat="47.52541" lon="-2.77941">
        <ele>38.6</ele>
        <time>2021-08-06T09:22:28Z</time>
      </trkpt>
      <trkpt lat="47.52541" lon="-2.77935">
        <ele>38.8</ele>
        <time>2021-08-06T09:22:29Z</time>
      </trkpt>
      <trkpt lat="47.52541" lon="-2.77929">
        <ele>38.8</ele>
        <time>2021-08-06T09:22:30Z</time>
      </trkpt>
      <trkpt lat="47.5254" lon="-2.77923">
        <ele>39</ele>
        <time>2021-08-06T09:22:31Z</time>
      </trkpt>
      <trkpt lat="47.5254" lon="-2.77917">
        <ele>39.2</ele>
        <time>2021-08-06T09:22:32Z</time>
      </trkpt>
      <trkpt lat="47.5254" lon="-2.77911">
        <ele>39.2</ele>
        <time>2021-08-06T09:22:33Z</time>
      </trkpt>
      <trkpt lat="47.5254" lon="-2.77906">
        <ele>39.4</ele>
        <time>2021-08-06T09:22:34Z</time>
      </trkpt>
      <trkpt lat="47.5254" lon="-2.77901">
        <ele>39.4</ele>
        <time>2021-08-06T09:22:35Z</time>
      </trkpt>
      <trkpt lat="47.5254" lon="-2.77895">
        <ele>39.4</ele>
        <time>2021-08-06T09:22:36Z</time>
      </trkpt>
      <trkpt lat="47.5254" lon="-2.77889">
        <ele>39.4</ele>
        <time>2021-08-06T09:22:37Z</time>
      </trkpt>
      <trkpt lat="47.52539" lon="-2.77883">
        <ele>39.6</ele>
        <time>2021-08-06T09:22:38Z</time>
      </trkpt>
      <trkpt lat="47.52539" lon="-2.77876">
        <ele>39.6</ele>
        <time>2021-08-06T09:22:39Z</time>
      </trkpt>
      <trkpt lat="47.52539" lon="-2.77868">
        <ele>39.8</ele>
        <time>2021-08-06T09:22:40Z</time>
      </trkpt>
      <trkpt lat="47.52538" lon="-2.77861">
        <ele>39.8</ele>
        <time>2021-08-06T09:22:41Z</time>
      </trkpt>
      <trkpt lat="47.52538" lon="-2.77854">
        <ele>39.8</ele>
        <time>2021-08-06T09:22:42Z</time>
      </trkpt>
      <trkpt lat="47.52538" lon="-2.77847">
        <ele>40</ele>
        <time>2021-08-06T09:22:43Z</time>
      </trkpt>
      <trkpt lat="47.52537" lon="-2.7784">
        <ele>40</ele>
        <time>2021-08-06T09:22:44Z</time>
      </trkpt>
      <trkpt lat="47.52536" lon="-2.77833">
        <ele>40</ele>
        <time>2021-08-06T09:22:45Z</time>
      </trkpt>
      <trkpt lat="47.52536" lon="-2.77826">
        <ele>40</ele>
        <time>2021-08-06T09:22:46Z</time>
      </trkpt>
      <trkpt lat="47.52535" lon="-2.7782">
        <ele>40</ele>
        <time>2021-08-06T09:22:47Z</time>
      </trkpt>
      <trkpt lat="47.52535" lon="-2.77813">
        <ele>40</ele>
        <time>2021-08-06T09:22:48Z</time>
      </trkpt>
      <trkpt lat="47.52534" lon="-2.77807">
        <ele>40</ele>
        <time>2021-08-06T09:22:49Z</time>
      </trkpt>
      <trkpt lat="47.52534" lon="-2.778">
        <ele>40</ele>
        <time>2021-08-06T09:22:50Z</time>
      </trkpt>
      <trkpt lat="47.52533" lon="-2.77793">
        <ele>40</ele>
        <time>2021-08-06T09:22:51Z</time>
      </trkpt>
      <trkpt lat="47.52533" lon="-2.77786">
        <ele>40</ele>
        <time>2021-08-06T09:22:52Z</time>
      </trkpt>
      <trkpt lat="47.52533" lon="-2.77778">
        <ele>40</ele>
        <time>2021-08-06T09:22:53Z</time>
      </trkpt>
      <trkpt lat="47.52533" lon="-2.77771">
        <ele>39.6</ele>
        <time>2021-08-06T09:22:54Z</time>
      </trkpt>
      <trkpt lat="47.52533" lon="-2.77763">
        <ele>39.6</ele>
        <time>2021-08-06T09:22:55Z</time>
      </trkpt>
      <trkpt lat="47.52533" lon="-2.77755">
        <ele>39.6</ele>
        <time>2021-08-06T09:22:56Z</time>
      </trkpt>
      <trkpt lat="47.52534" lon="-2.77747">
        <ele>39.6</ele>
        <time>2021-08-06T09:22:57Z</time>
      </trkpt>
      <trkpt lat="47.52535" lon="-2.77739">
        <ele>39.4</ele>
        <time>2021-08-06T09:22:58Z</time>
      </trkpt>
      <trkpt lat="47.52536" lon="-2.77731">
        <ele>39.4</ele>
        <time>2021-08-06T09:22:59Z</time>
      </trkpt>
      <trkpt lat="47.52536" lon="-2.77722">
        <ele>39.4</ele>
        <time>2021-08-06T09:23:00Z</time>
      </trkpt>
      <trkpt lat="47.52538" lon="-2.77713">
        <ele>39.2</ele>
        <time>2021-08-06T09:23:01Z</time>
      </trkpt>
      <trkpt lat="47.52539" lon="-2.77704">
        <ele>39.2</ele>
        <time>2021-08-06T09:23:02Z</time>
      </trkpt>
      <trkpt lat="47.5254" lon="-2.77696">
        <ele>38.8</ele>
        <time>2021-08-06T09:23:03Z</time>
      </trkpt>
      <trkpt lat="47.52541" lon="-2.77687">
        <ele>38.8</ele>
        <time>2021-08-06T09:23:04Z</time>
      </trkpt>
      <trkpt lat="47.52542" lon="-2.77677">
        <ele>38.6</ele>
        <time>2021-08-06T09:23:05Z</time>
      </trkpt>
      <trkpt lat="47.52544" lon="-2.77668">
        <ele>38.4</ele>
        <time>2021-08-06T09:23:06Z</time>
      </trkpt>
      <trkpt lat="47.52546" lon="-2.77658">
        <ele>38.2</ele>
        <time>2021-08-06T09:23:07Z</time>
      </trkpt>
      <trkpt lat="47.52548" lon="-2.77648">
        <ele>38</ele>
        <time>2021-08-06T09:23:08Z</time>
      </trkpt>
      <trkpt lat="47.52549" lon="-2.77637">
        <ele>37.8</ele>
        <time>2021-08-06T09:23:09Z</time>
      </trkpt>
      <trkpt lat="47.52551" lon="-2.77626">
        <ele>37.4</ele>
        <time>2021-08-06T09:23:10Z</time>
      </trkpt>
      <trkpt lat="47.52552" lon="-2.77616">
        <ele>36.8</ele>
        <time>2021-08-06T09:23:11Z</time>
      </trkpt>
      <trkpt lat="47.52554" lon="-2.77605">
        <ele>36.4</ele>
        <time>2021-08-06T09:23:12Z</time>
      </trkpt>
      <trkpt lat="47.52556" lon="-2.77593">
        <ele>36.2</ele>
        <time>2021-08-06T09:23:13Z</time>
      </trkpt>
      <trkpt lat="47.52559" lon="-2.77581">
        <ele>36</ele>
        <time>2021-08-06T09:23:14Z</time>
      </trkpt>
      <trkpt lat="47.52561" lon="-2.7757">
        <ele>35.8</ele>
        <time>2021-08-06T09:23:15Z</time>
      </trkpt>
      <trkpt lat="47.52563" lon="-2.77558">
        <ele>35.4</ele>
        <time>2021-08-06T09:23:16Z</time>
      </trkpt>
      <trkpt lat="47.52565" lon="-2.77545">
        <ele>35</ele>
        <time>2021-08-06T09:23:17Z</time>
      </trkpt>
      <trkpt lat="47.52567" lon="-2.77533">
        <ele>34.4</ele>
        <time>2021-08-06T09:23:18Z</time>
      </trkpt>
      <trkpt lat="47.52569" lon="-2.7752">
        <ele>34</ele>
        <time>2021-08-06T09:23:19Z</time>
      </trkpt>
      <trkpt lat="47.52571" lon="-2.77508">
        <ele>33.6</ele>
        <time>2021-08-06T09:23:20Z</time>
      </trkpt>
      <trkpt lat="47.52573" lon="-2.77496">
        <ele>33.4</ele>
        <time>2021-08-06T09:23:21Z</time>
      </trkpt>
      <trkpt lat="47.52575" lon="-2.77483">
        <ele>32.8</ele>
        <time>2021-08-06T09:23:22Z</time>
      </trkpt>
      <trkpt lat="47.52576" lon="-2.77471">
        <ele>32.4</ele>
        <time>2021-08-06T09:23:23Z</time>
      </trkpt>
      <trkpt lat="47.52578" lon="-2.77459">
        <ele>32</ele>
        <time>2021-08-06T09:23:24Z</time>
      </trkpt>
      <trkpt lat="47.5258" lon="-2.77447">
        <ele>31.8</ele>
        <time>2021-08-06T09:23:25Z</time>
      </trkpt>
      <trkpt lat="47.52582" lon="-2.77435">
        <ele>31.6</ele>
        <time>2021-08-06T09:23:26Z</time>
      </trkpt>
      <trkpt lat="47.52584" lon="-2.77423">
        <ele>31.2</ele>
        <time>2021-08-06T09:23:27Z</time>
      </trkpt>
      <trkpt lat="47.52585" lon="-2.77411">
        <ele>31</ele>
        <time>2021-08-06T09:23:28Z</time>
      </trkpt>
      <trkpt lat="47.52587" lon="-2.77399">
        <ele>30.8</ele>
        <time>2021-08-06T09:23:29Z</time>
      </trkpt>
      <trkpt lat="47.52589" lon="-2.77387">
        <ele>30.4</ele>
        <time>2021-08-06T09:23:30Z</time>
      </trkpt>
      <trkpt lat="47.52591" lon="-2.77376">
        <ele>30</ele>
        <time>2021-08-06T09:23:31Z</time>
      </trkpt>
      <trkpt lat="47.52592" lon="-2.77364">
        <ele>29.8</ele>
        <time>2021-08-06T09:23:32Z</time>
      </trkpt>
      <trkpt lat="47.52594" lon="-2.77352">
        <ele>29.8</ele>
        <time>2021-08-06T09:23:33Z</time>
      </trkpt>
      <trkpt lat="47.52596" lon="-2.77341">
        <ele>29.8</ele>
        <time>2021-08-06T09:23:34Z</time>
      </trkpt>
      <trkpt lat="47.52597" lon="-2.77332">
        <ele>29.6</ele>
        <time>2021-08-06T09:23:35Z</time>
      </trkpt>
      <trkpt lat="47.52597" lon="-2.77324">
        <ele>29.4</ele>
        <time>2021-08-06T09:23:36Z</time>
      </trkpt>
      <trkpt lat="47.52598" lon="-2.77318">
        <ele>29.4</ele>
        <time>2021-08-06T09:23:37Z</time>
      </trkpt>
      <trkpt lat="47.526" lon="-2.77314">
        <ele>29.4</ele>
        <time>2021-08-06T09:23:38Z</time>
      </trkpt>
      <trkpt lat="47.52601" lon="-2.7731">
        <ele>29.4</ele>
        <time>2021-08-06T09:23:39Z</time>
      </trkpt>
      <trkpt lat="47.52602" lon="-2.77306">
        <ele>29.4</ele>
        <time>2021-08-06T09:23:40Z</time>
      </trkpt>
      <trkpt lat="47.52604" lon="-2.77302">
        <ele>29.6</ele>
        <time>2021-08-06T09:23:41Z</time>
      </trkpt>
      <trkpt lat="47.52605" lon="-2.77299">
        <ele>29.6</ele>
        <time>2021-08-06T09:23:42Z</time>
      </trkpt>
      <trkpt lat="47.52605" lon="-2.77296">
        <ele>29.6</ele>
        <time>2021-08-06T09:23:43Z</time>
      </trkpt>
      <trkpt lat="47.52604" lon="-2.77295">
        <ele>29.8</ele>
        <time>2021-08-06T09:23:44Z</time>
      </trkpt>
      <trkpt lat="47.52604" lon="-2.77295">
        <ele>29.8</ele>
        <time>2021-08-06T09:23:45Z</time>
      </trkpt>
      <trkpt lat="47.52604" lon="-2.77296">
        <ele>30.2</ele>
        <time>2021-08-06T09:23:49Z</time>
      </trkpt>
      <trkpt lat="47.52604" lon="-2.77295">
        <ele>30.2</ele>
        <time>2021-08-06T09:23:50Z</time>
      </trkpt>
      <trkpt lat="47.52604" lon="-2.77296">
        <ele>30.2</ele>
        <time>2021-08-06T09:23:51Z</time>
      </trkpt>
      <trkpt lat="47.52603" lon="-2.77291">
        <ele>30</ele>
        <time>2021-08-06T09:25:45Z</time>
      </trkpt>
      <trkpt lat="47.52603" lon="-2.77289">
        <ele>30.2</ele>
        <time>2021-08-06T09:25:46Z</time>
      </trkpt>
      <trkpt lat="47.52603" lon="-2.77286">
        <ele>30.2</ele>
        <time>2021-08-06T09:25:47Z</time>
      </trkpt>
      <trkpt lat="47.52604" lon="-2.77283">
        <ele>30.2</ele>
        <time>2021-08-06T09:25:48Z</time>
      </trkpt>
      <trkpt lat="47.52605" lon="-2.77279">
        <ele>30.2</ele>
        <time>2021-08-06T09:25:49Z</time>
      </trkpt>
      <trkpt lat="47.52607" lon="-2.77275">
        <ele>30.2</ele>
        <time>2021-08-06T09:25:50Z</time>
      </trkpt>
      <trkpt lat="47.52608" lon="-2.7727">
        <ele>30.4</ele>
        <time>2021-08-06T09:25:51Z</time>
      </trkpt>
      <trkpt lat="47.5261" lon="-2.77265">
        <ele>30.4</ele>
        <time>2021-08-06T09:25:52Z</time>
      </trkpt>
      <trkpt lat="47.52612" lon="-2.77259">
        <ele>30.4</ele>
        <time>2021-08-06T09:25:53Z</time>
      </trkpt>
      <trkpt lat="47.52613" lon="-2.77254">
        <ele>30.4</ele>
        <time>2021-08-06T09:25:54Z</time>
      </trkpt>
      <trkpt lat="47.52615" lon="-2.77248">
        <ele>30.4</ele>
        <time>2021-08-06T09:25:55Z</time>
      </trkpt>
      <trkpt lat="47.52617" lon="-2.77242">
        <ele>30.4</ele>
        <time>2021-08-06T09:25:56Z</time>
      </trkpt>
      <trkpt lat="47.52619" lon="-2.77236">
        <ele>30.2</ele>
        <time>2021-08-06T09:25:57Z</time>
      </trkpt>
      <trkpt lat="47.52621" lon="-2.7723">
        <ele>30</ele>
        <time>2021-08-06T09:25:58Z</time>
      </trkpt>
      <trkpt lat="47.52623" lon="-2.77224">
        <ele>29.8</ele>
        <time>2021-08-06T09:25:59Z</time>
      </trkpt>
      <trkpt lat="47.52625" lon="-2.77218">
        <ele>29.4</ele>
        <time>2021-08-06T09:26:00Z</time>
      </trkpt>
      <trkpt lat="47.52626" lon="-2.77212">
        <ele>29.2</ele>
        <time>2021-08-06T09:26:01Z</time>
      </trkpt>
      <trkpt lat="47.52628" lon="-2.77206">
        <ele>29.2</ele>
        <time>2021-08-06T09:26:02Z</time>
      </trkpt>
      <trkpt lat="47.52629" lon="-2.772">
        <ele>29.2</ele>
        <time>2021-08-06T09:26:03Z</time>
      </trkpt>
      <trkpt lat="47.5263" lon="-2.77194">
        <ele>29</ele>
        <time>2021-08-06T09:26:04Z</time>
      </trkpt>
      <trkpt lat="47.52632" lon="-2.77188">
        <ele>29</ele>
        <time>2021-08-06T09:26:05Z</time>
      </trkpt>
      <trkpt lat="47.52633" lon="-2.77181">
        <ele>29</ele>
        <time>2021-08-06T09:26:06Z</time>
      </trkpt>
      <trkpt lat="47.52634" lon="-2.77175">
        <ele>28.8</ele>
        <time>2021-08-06T09:26:07Z</time>
      </trkpt>
      <trkpt lat="47.52636" lon="-2.77168">
        <ele>28.8</ele>
        <time>2021-08-06T09:26:08Z</time>
      </trkpt>
      <trkpt lat="47.52637" lon="-2.77162">
        <ele>28.8</ele>
        <time>2021-08-06T09:26:09Z</time>
      </trkpt>
      <trkpt lat="47.52638" lon="-2.77155">
        <ele>28.8</ele>
        <time>2021-08-06T09:26:10Z</time>
      </trkpt>
      <trkpt lat="47.5264" lon="-2.77149">
        <ele>28.8</ele>
        <time>2021-08-06T09:26:11Z</time>
      </trkpt>
      <trkpt lat="47.52641" lon="-2.77143">
        <ele>28.8</ele>
        <time>2021-08-06T09:26:12Z</time>
      </trkpt>
      <trkpt lat="47.52642" lon="-2.77138">
        <ele>28.8</ele>
        <time>2021-08-06T09:26:13Z</time>
      </trkpt>
      <trkpt lat="47.52642" lon="-2.77133">
        <ele>28.8</ele>
        <time>2021-08-06T09:26:14Z</time>
      </trkpt>
      <trkpt lat="47.52643" lon="-2.77129">
        <ele>28.8</ele>
        <time>2021-08-06T09:26:15Z</time>
      </trkpt>
      <trkpt lat="47.52644" lon="-2.77126">
        <ele>28.8</ele>
        <time>2021-08-06T09:26:16Z</time>
      </trkpt>
      <trkpt lat="47.52645" lon="-2.77123">
        <ele>28.6</ele>
        <time>2021-08-06T09:26:17Z</time>
      </trkpt>
      <trkpt lat="47.52646" lon="-2.77121">
        <ele>28.6</ele>
        <time>2021-08-06T09:26:18Z</time>
      </trkpt>
      <trkpt lat="47.52646" lon="-2.77119">
        <ele>28.6</ele>
        <time>2021-08-06T09:26:19Z</time>
      </trkpt>
      <trkpt lat="47.52647" lon="-2.77118">
        <ele>28.8</ele>
        <time>2021-08-06T09:26:20Z</time>
      </trkpt>
      <trkpt lat="47.52647" lon="-2.77116">
        <ele>28.8</ele>
        <time>2021-08-06T09:26:21Z</time>
      </trkpt>
      <trkpt lat="47.52648" lon="-2.77114">
        <ele>28.8</ele>
        <time>2021-08-06T09:26:22Z</time>
      </trkpt>
      <trkpt lat="47.52648" lon="-2.77113">
        <ele>28.8</ele>
        <time>2021-08-06T09:26:23Z</time>
      </trkpt>
      <trkpt lat="47.52648" lon="-2.77111">
        <ele>28.8</ele>
        <time>2021-08-06T09:26:24Z</time>
      </trkpt>
      <trkpt lat="47.52649" lon="-2.77108">
        <ele>28.8</ele>
        <time>2021-08-06T09:26:25Z</time>
      </trkpt>
      <trkpt lat="47.52649" lon="-2.77106">
        <ele>28.8</ele>
        <time>2021-08-06T09:26:26Z</time>
      </trkpt>
      <trkpt lat="47.5265" lon="-2.77102">
        <ele>28.8</ele>
        <time>2021-08-06T09:26:27Z</time>
      </trkpt>
      <trkpt lat="47.5265" lon="-2.77098">
        <ele>28.8</ele>
        <time>2021-08-06T09:26:28Z</time>
      </trkpt>
      <trkpt lat="47.52651" lon="-2.77094">
        <ele>28.8</ele>
        <time>2021-08-06T09:26:29Z</time>
      </trkpt>
      <trkpt lat="47.52652" lon="-2.7709">
        <ele>28.8</ele>
        <time>2021-08-06T09:26:30Z</time>
      </trkpt>
      <trkpt lat="47.52653" lon="-2.77085">
        <ele>28.8</ele>
        <time>2021-08-06T09:26:31Z</time>
      </trkpt>
      <trkpt lat="47.52654" lon="-2.7708">
        <ele>28.8</ele>
        <time>2021-08-06T09:26:32Z</time>
      </trkpt>
      <trkpt lat="47.52654" lon="-2.77075">
        <ele>28.8</ele>
        <time>2021-08-06T09:26:33Z</time>
      </trkpt>
      <trkpt lat="47.52655" lon="-2.7707">
        <ele>28.8</ele>
        <time>2021-08-06T09:26:34Z</time>
      </trkpt>
      <trkpt lat="47.52656" lon="-2.77065">
        <ele>28.8</ele>
        <time>2021-08-06T09:26:35Z</time>
      </trkpt>
      <trkpt lat="47.52657" lon="-2.7706">
        <ele>28.8</ele>
        <time>2021-08-06T09:26:36Z</time>
      </trkpt>
      <trkpt lat="47.52658" lon="-2.77055">
        <ele>28.8</ele>
        <time>2021-08-06T09:26:37Z</time>
      </trkpt>
      <trkpt lat="47.52659" lon="-2.77051">
        <ele>28.8</ele>
        <time>2021-08-06T09:26:38Z</time>
      </trkpt>
      <trkpt lat="47.5266" lon="-2.77046">
        <ele>28.8</ele>
        <time>2021-08-06T09:26:39Z</time>
      </trkpt>
      <trkpt lat="47.52661" lon="-2.77042">
        <ele>28.8</ele>
        <time>2021-08-06T09:26:40Z</time>
      </trkpt>
      <trkpt lat="47.52661" lon="-2.77037">
        <ele>28.8</ele>
        <time>2021-08-06T09:26:41Z</time>
      </trkpt>
      <trkpt lat="47.52662" lon="-2.77033">
        <ele>28.8</ele>
        <time>2021-08-06T09:26:42Z</time>
      </trkpt>
      <trkpt lat="47.52662" lon="-2.77029">
        <ele>28.8</ele>
        <time>2021-08-06T09:26:43Z</time>
      </trkpt>
      <trkpt lat="47.52663" lon="-2.77026">
        <ele>29</ele>
        <time>2021-08-06T09:26:44Z</time>
      </trkpt>
      <trkpt lat="47.52663" lon="-2.77022">
        <ele>29</ele>
        <time>2021-08-06T09:26:45Z</time>
      </trkpt>
      <trkpt lat="47.52664" lon="-2.77019">
        <ele>28.8</ele>
        <time>2021-08-06T09:26:46Z</time>
      </trkpt>
      <trkpt lat="47.52664" lon="-2.77015">
        <ele>28.8</ele>
        <time>2021-08-06T09:26:47Z</time>
      </trkpt>
      <trkpt lat="47.52663" lon="-2.77011">
        <ele>29</ele>
        <time>2021-08-06T09:26:48Z</time>
      </trkpt>
      <trkpt lat="47.52662" lon="-2.77008">
        <ele>29</ele>
        <time>2021-08-06T09:26:49Z</time>
      </trkpt>
      <trkpt lat="47.52659" lon="-2.77006">
        <ele>29</ele>
        <time>2021-08-06T09:26:50Z</time>
      </trkpt>
      <trkpt lat="47.52657" lon="-2.77005">
        <ele>29</ele>
        <time>2021-08-06T09:26:51Z</time>
      </trkpt>
      <trkpt lat="47.52654" lon="-2.77004">
        <ele>29</ele>
        <time>2021-08-06T09:26:52Z</time>
      </trkpt>
      <trkpt lat="47.52651" lon="-2.77003">
        <ele>29</ele>
        <time>2021-08-06T09:26:53Z</time>
      </trkpt>
      <trkpt lat="47.52649" lon="-2.77002">
        <ele>29</ele>
        <time>2021-08-06T09:26:54Z</time>
      </trkpt>
      <trkpt lat="47.52646" lon="-2.77001">
        <ele>29</ele>
        <time>2021-08-06T09:26:55Z</time>
      </trkpt>
      <trkpt lat="47.52643" lon="-2.77">
        <ele>29</ele>
        <time>2021-08-06T09:26:56Z</time>
      </trkpt>
      <trkpt lat="47.5264" lon="-2.76999">
        <ele>29</ele>
        <time>2021-08-06T09:26:57Z</time>
      </trkpt>
      <trkpt lat="47.52637" lon="-2.76999">
        <ele>29</ele>
        <time>2021-08-06T09:26:58Z</time>
      </trkpt>
      <trkpt lat="47.52634" lon="-2.76998">
        <ele>29</ele>
        <time>2021-08-06T09:26:59Z</time>
      </trkpt>
      <trkpt lat="47.5263" lon="-2.76997">
        <ele>29</ele>
        <time>2021-08-06T09:27:00Z</time>
      </trkpt>
      <trkpt lat="47.52627" lon="-2.76996">
        <ele>29</ele>
        <time>2021-08-06T09:27:01Z</time>
      </trkpt>
      <trkpt lat="47.52624" lon="-2.76994">
        <ele>29</ele>
        <time>2021-08-06T09:27:02Z</time>
      </trkpt>
      <trkpt lat="47.52621" lon="-2.76993">
        <ele>29</ele>
        <time>2021-08-06T09:27:03Z</time>
      </trkpt>
      <trkpt lat="47.52617" lon="-2.76992">
        <ele>29</ele>
        <time>2021-08-06T09:27:04Z</time>
      </trkpt>
      <trkpt lat="47.52614" lon="-2.76991">
        <ele>29</ele>
        <time>2021-08-06T09:27:05Z</time>
      </trkpt>
      <trkpt lat="47.5261" lon="-2.76989">
        <ele>29</ele>
        <time>2021-08-06T09:27:06Z</time>
      </trkpt>
      <trkpt lat="47.52606" lon="-2.76988">
        <ele>29</ele>
        <time>2021-08-06T09:27:07Z</time>
      </trkpt>
      <trkpt lat="47.52602" lon="-2.76986">
        <ele>29</ele>
        <time>2021-08-06T09:27:08Z</time>
      </trkpt>
      <trkpt lat="47.52598" lon="-2.76984">
        <ele>29</ele>
        <time>2021-08-06T09:27:09Z</time>
      </trkpt>
      <trkpt lat="47.52594" lon="-2.76983">
        <ele>29</ele>
        <time>2021-08-06T09:27:10Z</time>
      </trkpt>
      <trkpt lat="47.5259" lon="-2.76981">
        <ele>29</ele>
        <time>2021-08-06T09:27:11Z</time>
      </trkpt>
      <trkpt lat="47.52586" lon="-2.7698">
        <ele>29</ele>
        <time>2021-08-06T09:27:12Z</time>
      </trkpt>
      <trkpt lat="47.52582" lon="-2.76978">
        <ele>29</ele>
        <time>2021-08-06T09:27:13Z</time>
      </trkpt>
      <trkpt lat="47.52578" lon="-2.76977">
        <ele>28.8</ele>
        <time>2021-08-06T09:27:14Z</time>
      </trkpt>
      <trkpt lat="47.52574" lon="-2.76976">
        <ele>28.8</ele>
        <time>2021-08-06T09:27:15Z</time>
      </trkpt>
      <trkpt lat="47.5257" lon="-2.76975">
        <ele>28.8</ele>
        <time>2021-08-06T09:27:16Z</time>
      </trkpt>
      <trkpt lat="47.52567" lon="-2.76974">
        <ele>28.4</ele>
        <time>2021-08-06T09:27:17Z</time>
      </trkpt>
      <trkpt lat="47.52563" lon="-2.76974">
        <ele>28.4</ele>
        <time>2021-08-06T09:27:18Z</time>
      </trkpt>
      <trkpt lat="47.52559" lon="-2.76974">
        <ele>28.2</ele>
        <time>2021-08-06T09:27:19Z</time>
      </trkpt>
      <trkpt lat="47.52555" lon="-2.76975">
        <ele>28.2</ele>
        <time>2021-08-06T09:27:20Z</time>
      </trkpt>
      <trkpt lat="47.52551" lon="-2.76976">
        <ele>28.2</ele>
        <time>2021-08-06T09:27:21Z</time>
      </trkpt>
      <trkpt lat="47.52546" lon="-2.76977">
        <ele>28.2</ele>
        <time>2021-08-06T09:27:22Z</time>
      </trkpt>
      <trkpt lat="47.52542" lon="-2.76978">
        <ele>28</ele>
        <time>2021-08-06T09:27:23Z</time>
      </trkpt>
      <trkpt lat="47.52537" lon="-2.76978">
        <ele>28</ele>
        <time>2021-08-06T09:27:24Z</time>
      </trkpt>
      <trkpt lat="47.52532" lon="-2.76979">
        <ele>28</ele>
        <time>2021-08-06T09:27:25Z</time>
      </trkpt>
      <trkpt lat="47.52528" lon="-2.76981">
        <ele>28</ele>
        <time>2021-08-06T09:27:26Z</time>
      </trkpt>
      <trkpt lat="47.52523" lon="-2.76981">
        <ele>27.6</ele>
        <time>2021-08-06T09:27:27Z</time>
      </trkpt>
      <trkpt lat="47.52518" lon="-2.76982">
        <ele>27.4</ele>
        <time>2021-08-06T09:27:28Z</time>
      </trkpt>
      <trkpt lat="47.52514" lon="-2.76982">
        <ele>27.4</ele>
        <time>2021-08-06T09:27:29Z</time>
      </trkpt>
      <trkpt lat="47.5251" lon="-2.76982">
        <ele>27.2</ele>
        <time>2021-08-06T09:27:30Z</time>
      </trkpt>
      <trkpt lat="47.52505" lon="-2.76983">
        <ele>27</ele>
        <time>2021-08-06T09:27:31Z</time>
      </trkpt>
      <trkpt lat="47.52501" lon="-2.76983">
        <ele>27</ele>
        <time>2021-08-06T09:27:32Z</time>
      </trkpt>
      <trkpt lat="47.52496" lon="-2.76982">
        <ele>26.8</ele>
        <time>2021-08-06T09:27:33Z</time>
      </trkpt>
      <trkpt lat="47.52491" lon="-2.76981">
        <ele>26.6</ele>
        <time>2021-08-06T09:27:34Z</time>
      </trkpt>
      <trkpt lat="47.52486" lon="-2.76979">
        <ele>26.4</ele>
        <time>2021-08-06T09:27:35Z</time>
      </trkpt>
      <trkpt lat="47.52481" lon="-2.76978">
        <ele>26</ele>
        <time>2021-08-06T09:27:36Z</time>
      </trkpt>
      <trkpt lat="47.52477" lon="-2.76977">
        <ele>25.8</ele>
        <time>2021-08-06T09:27:37Z</time>
      </trkpt>
      <trkpt lat="47.52472" lon="-2.76975">
        <ele>25.2</ele>
        <time>2021-08-06T09:27:38Z</time>
      </trkpt>
      <trkpt lat="47.52468" lon="-2.76972">
        <ele>25</ele>
        <time>2021-08-06T09:27:39Z</time>
      </trkpt>
      <trkpt lat="47.52464" lon="-2.76967">
        <ele>24.8</ele>
        <time>2021-08-06T09:27:40Z</time>
      </trkpt>
      <trkpt lat="47.5246" lon="-2.76962">
        <ele>24.8</ele>
        <time>2021-08-06T09:27:41Z</time>
      </trkpt>
      <trkpt lat="47.52456" lon="-2.76957">
        <ele>24.2</ele>
        <time>2021-08-06T09:27:42Z</time>
      </trkpt>
      <trkpt lat="47.52452" lon="-2.76952">
        <ele>23.6</ele>
        <time>2021-08-06T09:27:43Z</time>
      </trkpt>
      <trkpt lat="47.52448" lon="-2.76946">
        <ele>23</ele>
        <time>2021-08-06T09:27:44Z</time>
      </trkpt>
      <trkpt lat="47.52443" lon="-2.76941">
        <ele>22.8</ele>
        <time>2021-08-06T09:27:45Z</time>
      </trkpt>
      <trkpt lat="47.52439" lon="-2.76935">
        <ele>22.6</ele>
        <time>2021-08-06T09:27:46Z</time>
      </trkpt>
      <trkpt lat="47.52435" lon="-2.76929">
        <ele>22.6</ele>
        <time>2021-08-06T09:27:47Z</time>
      </trkpt>
      <trkpt lat="47.52431" lon="-2.76924">
        <ele>22.4</ele>
        <time>2021-08-06T09:27:48Z</time>
      </trkpt>
      <trkpt lat="47.52426" lon="-2.76919">
        <ele>22.4</ele>
        <time>2021-08-06T09:27:49Z</time>
      </trkpt>
      <trkpt lat="47.52422" lon="-2.76916">
        <ele>22.4</ele>
        <time>2021-08-06T09:27:50Z</time>
      </trkpt>
      <trkpt lat="47.52417" lon="-2.76914">
        <ele>22.2</ele>
        <time>2021-08-06T09:27:51Z</time>
      </trkpt>
      <trkpt lat="47.52413" lon="-2.76911">
        <ele>22.2</ele>
        <time>2021-08-06T09:27:52Z</time>
      </trkpt>
      <trkpt lat="47.52409" lon="-2.76906">
        <ele>22.2</ele>
        <time>2021-08-06T09:27:53Z</time>
      </trkpt>
      <trkpt lat="47.52408" lon="-2.76899">
        <ele>22</ele>
        <time>2021-08-06T09:27:54Z</time>
      </trkpt>
      <trkpt lat="47.52409" lon="-2.76893">
        <ele>21.8</ele>
        <time>2021-08-06T09:27:55Z</time>
      </trkpt>
      <trkpt lat="47.52412" lon="-2.76888">
        <ele>21.6</ele>
        <time>2021-08-06T09:27:56Z</time>
      </trkpt>
      <trkpt lat="47.52415" lon="-2.76884">
        <ele>21.4</ele>
        <time>2021-08-06T09:27:57Z</time>
      </trkpt>
      <trkpt lat="47.52419" lon="-2.7688">
        <ele>21.2</ele>
        <time>2021-08-06T09:27:58Z</time>
      </trkpt>
      <trkpt lat="47.52422" lon="-2.76874">
        <ele>21</ele>
        <time>2021-08-06T09:27:59Z</time>
      </trkpt>
      <trkpt lat="47.52423" lon="-2.76868">
        <ele>21</ele>
        <time>2021-08-06T09:28:00Z</time>
      </trkpt>
      <trkpt lat="47.52425" lon="-2.76861">
        <ele>21</ele>
        <time>2021-08-06T09:28:01Z</time>
      </trkpt>
      <trkpt lat="47.52426" lon="-2.76855">
        <ele>21</ele>
        <time>2021-08-06T09:28:02Z</time>
      </trkpt>
      <trkpt lat="47.52428" lon="-2.76849">
        <ele>21</ele>
        <time>2021-08-06T09:28:03Z</time>
      </trkpt>
      <trkpt lat="47.5243" lon="-2.76844">
        <ele>21</ele>
        <time>2021-08-06T09:28:04Z</time>
      </trkpt>
      <trkpt lat="47.52432" lon="-2.76838">
        <ele>21</ele>
        <time>2021-08-06T09:28:05Z</time>
      </trkpt>
      <trkpt lat="47.52434" lon="-2.76832">
        <ele>21</ele>
        <time>2021-08-06T09:28:06Z</time>
      </trkpt>
      <trkpt lat="47.52435" lon="-2.76826">
        <ele>21</ele>
        <time>2021-08-06T09:28:07Z</time>
      </trkpt>
      <trkpt lat="47.52437" lon="-2.7682">
        <ele>21</ele>
        <time>2021-08-06T09:28:08Z</time>
      </trkpt>
      <trkpt lat="47.52439" lon="-2.76814">
        <ele>20.8</ele>
        <time>2021-08-06T09:28:09Z</time>
      </trkpt>
      <trkpt lat="47.52441" lon="-2.76808">
        <ele>20.8</ele>
        <time>2021-08-06T09:28:10Z</time>
      </trkpt>
      <trkpt lat="47.52443" lon="-2.76802">
        <ele>21</ele>
        <time>2021-08-06T09:28:11Z</time>
      </trkpt>
      <trkpt lat="47.52445" lon="-2.76795">
        <ele>21</ele>
        <time>2021-08-06T09:28:12Z</time>
      </trkpt>
      <trkpt lat="47.52448" lon="-2.76789">
        <ele>21</ele>
        <time>2021-08-06T09:28:13Z</time>
      </trkpt>
      <trkpt lat="47.5245" lon="-2.76783">
        <ele>21</ele>
        <time>2021-08-06T09:28:14Z</time>
      </trkpt>
      <trkpt lat="47.52453" lon="-2.76777">
        <ele>21</ele>
        <time>2021-08-06T09:28:15Z</time>
      </trkpt>
      <trkpt lat="47.52457" lon="-2.76772">
        <ele>21</ele>
        <time>2021-08-06T09:28:16Z</time>
      </trkpt>
      <trkpt lat="47.5246" lon="-2.76767">
        <ele>21</ele>
        <time>2021-08-06T09:28:17Z</time>
      </trkpt>
      <trkpt lat="47.52464" lon="-2.76762">
        <ele>21</ele>
        <time>2021-08-06T09:28:18Z</time>
      </trkpt>
      <trkpt lat="47.52468" lon="-2.76758">
        <ele>20.8</ele>
        <time>2021-08-06T09:28:19Z</time>
      </trkpt>
      <trkpt lat="47.52472" lon="-2.76754">
        <ele>20.8</ele>
        <time>2021-08-06T09:28:20Z</time>
      </trkpt>
      <trkpt lat="47.52475" lon="-2.76748">
        <ele>20.8</ele>
        <time>2021-08-06T09:28:21Z</time>
      </trkpt>
      <trkpt lat="47.52477" lon="-2.76742">
        <ele>20.8</ele>
        <time>2021-08-06T09:28:22Z</time>
      </trkpt>
      <trkpt lat="47.52479" lon="-2.76735">
        <ele>20.8</ele>
        <time>2021-08-06T09:28:23Z</time>
      </trkpt>
      <trkpt lat="47.5248" lon="-2.76728">
        <ele>20.8</ele>
        <time>2021-08-06T09:28:24Z</time>
      </trkpt>
      <trkpt lat="47.52482" lon="-2.76721">
        <ele>20.8</ele>
        <time>2021-08-06T09:28:25Z</time>
      </trkpt>
      <trkpt lat="47.52485" lon="-2.76715">
        <ele>20.8</ele>
        <time>2021-08-06T09:28:26Z</time>
      </trkpt>
      <trkpt lat="47.52487" lon="-2.76708">
        <ele>20.8</ele>
        <time>2021-08-06T09:28:27Z</time>
      </trkpt>
      <trkpt lat="47.52488" lon="-2.76702">
        <ele>20.8</ele>
        <time>2021-08-06T09:28:28Z</time>
      </trkpt>
      <trkpt lat="47.5249" lon="-2.76696">
        <ele>20.8</ele>
        <time>2021-08-06T09:28:29Z</time>
      </trkpt>
      <trkpt lat="47.52492" lon="-2.7669">
        <ele>20.8</ele>
        <time>2021-08-06T09:28:30Z</time>
      </trkpt>
      <trkpt lat="47.52494" lon="-2.76684">
        <ele>20.8</ele>
        <time>2021-08-06T09:28:31Z</time>
      </trkpt>
      <trkpt lat="47.52496" lon="-2.76677">
        <ele>20.8</ele>
        <time>2021-08-06T09:28:32Z</time>
      </trkpt>
      <trkpt lat="47.52497" lon="-2.76671">
        <ele>20.8</ele>
        <time>2021-08-06T09:28:33Z</time>
      </trkpt>
      <trkpt lat="47.52499" lon="-2.76665">
        <ele>20.8</ele>
        <time>2021-08-06T09:28:34Z</time>
      </trkpt>
      <trkpt lat="47.52501" lon="-2.76659">
        <ele>20.8</ele>
        <time>2021-08-06T09:28:35Z</time>
      </trkpt>
      <trkpt lat="47.52502" lon="-2.76653">
        <ele>20.8</ele>
        <time>2021-08-06T09:28:36Z</time>
      </trkpt>
      <trkpt lat="47.52503" lon="-2.76647">
        <ele>20.8</ele>
        <time>2021-08-06T09:28:37Z</time>
      </trkpt>
      <trkpt lat="47.52504" lon="-2.76642">
        <ele>20.8</ele>
        <time>2021-08-06T09:28:38Z</time>
      </trkpt>
      <trkpt lat="47.52505" lon="-2.76637">
        <ele>20.8</ele>
        <time>2021-08-06T09:28:39Z</time>
      </trkpt>
      <trkpt lat="47.52506" lon="-2.76631">
        <ele>20.8</ele>
        <time>2021-08-06T09:28:40Z</time>
      </trkpt>
      <trkpt lat="47.52507" lon="-2.76624">
        <ele>20.8</ele>
        <time>2021-08-06T09:28:41Z</time>
      </trkpt>
      <trkpt lat="47.52507" lon="-2.76618">
        <ele>20.8</ele>
        <time>2021-08-06T09:28:42Z</time>
      </trkpt>
      <trkpt lat="47.52508" lon="-2.76611">
        <ele>20.8</ele>
        <time>2021-08-06T09:28:43Z</time>
      </trkpt>
      <trkpt lat="47.52508" lon="-2.76604">
        <ele>20.8</ele>
        <time>2021-08-06T09:28:44Z</time>
      </trkpt>
      <trkpt lat="47.52509" lon="-2.76597">
        <ele>20.8</ele>
        <time>2021-08-06T09:28:45Z</time>
      </trkpt>
      <trkpt lat="47.5251" lon="-2.7659">
        <ele>21</ele>
        <time>2021-08-06T09:28:46Z</time>
      </trkpt>
      <trkpt lat="47.52511" lon="-2.76582">
        <ele>21</ele>
        <time>2021-08-06T09:28:47Z</time>
      </trkpt>
      <trkpt lat="47.52511" lon="-2.76575">
        <ele>21</ele>
        <time>2021-08-06T09:28:48Z</time>
      </trkpt>
      <trkpt lat="47.52512" lon="-2.76567">
        <ele>21</ele>
        <time>2021-08-06T09:28:49Z</time>
      </trkpt>
      <trkpt lat="47.52513" lon="-2.7656">
        <ele>21</ele>
        <time>2021-08-06T09:28:50Z</time>
      </trkpt>
      <trkpt lat="47.52514" lon="-2.76553">
        <ele>21</ele>
        <time>2021-08-06T09:28:51Z</time>
      </trkpt>
      <trkpt lat="47.52515" lon="-2.76545">
        <ele>21</ele>
        <time>2021-08-06T09:28:52Z</time>
      </trkpt>
      <trkpt lat="47.52516" lon="-2.76538">
        <ele>21</ele>
        <time>2021-08-06T09:28:53Z</time>
      </trkpt>
      <trkpt lat="47.52517" lon="-2.76531">
        <ele>21</ele>
        <time>2021-08-06T09:28:54Z</time>
      </trkpt>
      <trkpt lat="47.52519" lon="-2.76524">
        <ele>21</ele>
        <time>2021-08-06T09:28:55Z</time>
      </trkpt>
      <trkpt lat="47.5252" lon="-2.76516">
        <ele>20.8</ele>
        <time>2021-08-06T09:28:56Z</time>
      </trkpt>
      <trkpt lat="47.52521" lon="-2.76508">
        <ele>20.8</ele>
        <time>2021-08-06T09:28:57Z</time>
      </trkpt>
      <trkpt lat="47.52523" lon="-2.76501">
        <ele>20.8</ele>
        <time>2021-08-06T09:28:58Z</time>
      </trkpt>
      <trkpt lat="47.52525" lon="-2.76494">
        <ele>20.8</ele>
        <time>2021-08-06T09:28:59Z</time>
      </trkpt>
      <trkpt lat="47.52527" lon="-2.76487">
        <ele>20.8</ele>
        <time>2021-08-06T09:29:00Z</time>
      </trkpt>
      <trkpt lat="47.52529" lon="-2.7648">
        <ele>20.8</ele>
        <time>2021-08-06T09:29:01Z</time>
      </trkpt>
      <trkpt lat="47.52531" lon="-2.76472">
        <ele>20.8</ele>
        <time>2021-08-06T09:29:02Z</time>
      </trkpt>
      <trkpt lat="47.52533" lon="-2.76465">
        <ele>20.6</ele>
        <time>2021-08-06T09:29:03Z</time>
      </trkpt>
      <trkpt lat="47.52535" lon="-2.76457">
        <ele>20.6</ele>
        <time>2021-08-06T09:29:04Z</time>
      </trkpt>
      <trkpt lat="47.52537" lon="-2.7645">
        <ele>20.4</ele>
        <time>2021-08-06T09:29:05Z</time>
      </trkpt>
      <trkpt lat="47.52539" lon="-2.76443">
        <ele>20.2</ele>
        <time>2021-08-06T09:29:06Z</time>
      </trkpt>
      <trkpt lat="47.52541" lon="-2.76436">
        <ele>20</ele>
        <time>2021-08-06T09:29:07Z</time>
      </trkpt>
      <trkpt lat="47.52543" lon="-2.76429">
        <ele>19.8</ele>
        <time>2021-08-06T09:29:08Z</time>
      </trkpt>
      <trkpt lat="47.52545" lon="-2.76421">
        <ele>19.6</ele>
        <time>2021-08-06T09:29:09Z</time>
      </trkpt>
      <trkpt lat="47.52547" lon="-2.76414">
        <ele>19.4</ele>
        <time>2021-08-06T09:29:10Z</time>
      </trkpt>
      <trkpt lat="47.52549" lon="-2.76406">
        <ele>19.4</ele>
        <time>2021-08-06T09:29:11Z</time>
      </trkpt>
      <trkpt lat="47.52551" lon="-2.76398">
        <ele>19.4</ele>
        <time>2021-08-06T09:29:12Z</time>
      </trkpt>
      <trkpt lat="47.52553" lon="-2.7639">
        <ele>19.4</ele>
        <time>2021-08-06T09:29:13Z</time>
      </trkpt>
      <trkpt lat="47.52555" lon="-2.76383">
        <ele>19.6</ele>
        <time>2021-08-06T09:29:14Z</time>
      </trkpt>
      <trkpt lat="47.52557" lon="-2.76376">
        <ele>19.4</ele>
        <time>2021-08-06T09:29:15Z</time>
      </trkpt>
      <trkpt lat="47.52559" lon="-2.7637">
        <ele>19.4</ele>
        <time>2021-08-06T09:29:16Z</time>
      </trkpt>
      <trkpt lat="47.52561" lon="-2.76363">
        <ele>19.4</ele>
        <time>2021-08-06T09:29:17Z</time>
      </trkpt>
      <trkpt lat="47.52563" lon="-2.76357">
        <ele>19.4</ele>
        <time>2021-08-06T09:29:18Z</time>
      </trkpt>
      <trkpt lat="47.52564" lon="-2.76351">
        <ele>19.4</ele>
        <time>2021-08-06T09:29:19Z</time>
      </trkpt>
      <trkpt lat="47.52566" lon="-2.76345">
        <ele>19.4</ele>
        <time>2021-08-06T09:29:20Z</time>
      </trkpt>
      <trkpt lat="47.52568" lon="-2.76339">
        <ele>19.6</ele>
        <time>2021-08-06T09:29:21Z</time>
      </trkpt>
      <trkpt lat="47.5257" lon="-2.76333">
        <ele>19.6</ele>
        <time>2021-08-06T09:29:22Z</time>
      </trkpt>
      <trkpt lat="47.52572" lon="-2.76327">
        <ele>19.6</ele>
        <time>2021-08-06T09:29:23Z</time>
      </trkpt>
      <trkpt lat="47.52574" lon="-2.76321">
        <ele>19.8</ele>
        <time>2021-08-06T09:29:24Z</time>
      </trkpt>
      <trkpt lat="47.52575" lon="-2.76315">
        <ele>19.8</ele>
        <time>2021-08-06T09:29:25Z</time>
      </trkpt>
      <trkpt lat="47.52576" lon="-2.76309">
        <ele>20</ele>
        <time>2021-08-06T09:29:26Z</time>
      </trkpt>
      <trkpt lat="47.52577" lon="-2.76303">
        <ele>20</ele>
        <time>2021-08-06T09:29:27Z</time>
      </trkpt>
      <trkpt lat="47.52578" lon="-2.76296">
        <ele>20</ele>
        <time>2021-08-06T09:29:28Z</time>
      </trkpt>
      <trkpt lat="47.52579" lon="-2.7629">
        <ele>20.2</ele>
        <time>2021-08-06T09:29:29Z</time>
      </trkpt>
      <trkpt lat="47.52579" lon="-2.76283">
        <ele>20.2</ele>
        <time>2021-08-06T09:29:30Z</time>
      </trkpt>
      <trkpt lat="47.52579" lon="-2.76276">
        <ele>20.2</ele>
        <time>2021-08-06T09:29:31Z</time>
      </trkpt>
      <trkpt lat="47.52579" lon="-2.76269">
        <ele>20.2</ele>
        <time>2021-08-06T09:29:32Z</time>
      </trkpt>
      <trkpt lat="47.52579" lon="-2.76263">
        <ele>20.2</ele>
        <time>2021-08-06T09:29:33Z</time>
      </trkpt>
      <trkpt lat="47.52579" lon="-2.76256">
        <ele>20.4</ele>
        <time>2021-08-06T09:29:34Z</time>
      </trkpt>
      <trkpt lat="47.52578" lon="-2.7625">
        <ele>20.4</ele>
        <time>2021-08-06T09:29:35Z</time>
      </trkpt>
      <trkpt lat="47.52578" lon="-2.76243">
        <ele>20.4</ele>
        <time>2021-08-06T09:29:36Z</time>
      </trkpt>
      <trkpt lat="47.52579" lon="-2.76237">
        <ele>20.6</ele>
        <time>2021-08-06T09:29:37Z</time>
      </trkpt>
      <trkpt lat="47.52579" lon="-2.76231">
        <ele>20.6</ele>
        <time>2021-08-06T09:29:38Z</time>
      </trkpt>
      <trkpt lat="47.52579" lon="-2.76224">
        <ele>20.6</ele>
        <time>2021-08-06T09:29:39Z</time>
      </trkpt>
      <trkpt lat="47.52578" lon="-2.76218">
        <ele>20.8</ele>
        <time>2021-08-06T09:29:40Z</time>
      </trkpt>
      <trkpt lat="47.52578" lon="-2.76212">
        <ele>20.8</ele>
        <time>2021-08-06T09:29:41Z</time>
      </trkpt>
      <trkpt lat="47.52577" lon="-2.76206">
        <ele>20.8</ele>
        <time>2021-08-06T09:29:42Z</time>
      </trkpt>
      <trkpt lat="47.52577" lon="-2.76199">
        <ele>20.8</ele>
        <time>2021-08-06T09:29:43Z</time>
      </trkpt>
      <trkpt lat="47.52577" lon="-2.76192">
        <ele>21</ele>
        <time>2021-08-06T09:29:44Z</time>
      </trkpt>
      <trkpt lat="47.52577" lon="-2.76185">
        <ele>21</ele>
        <time>2021-08-06T09:29:45Z</time>
      </trkpt>
      <trkpt lat="47.52576" lon="-2.76178">
        <ele>21</ele>
        <time>2021-08-06T09:29:46Z</time>
      </trkpt>
      <trkpt lat="47.52576" lon="-2.7617">
        <ele>21.2</ele>
        <time>2021-08-06T09:29:47Z</time>
      </trkpt>
      <trkpt lat="47.52576" lon="-2.76163">
        <ele>21.2</ele>
        <time>2021-08-06T09:29:48Z</time>
      </trkpt>
      <trkpt lat="47.52576" lon="-2.76156">
        <ele>21.2</ele>
        <time>2021-08-06T09:29:49Z</time>
      </trkpt>
      <trkpt lat="47.52576" lon="-2.76149">
        <ele>21.2</ele>
        <time>2021-08-06T09:29:50Z</time>
      </trkpt>
      <trkpt lat="47.52576" lon="-2.76142">
        <ele>21.2</ele>
        <time>2021-08-06T09:29:51Z</time>
      </trkpt>
      <trkpt lat="47.52576" lon="-2.76135">
        <ele>21.2</ele>
        <time>2021-08-06T09:29:52Z</time>
      </trkpt>
      <trkpt lat="47.52576" lon="-2.76128">
        <ele>21.2</ele>
        <time>2021-08-06T09:29:53Z</time>
      </trkpt>
      <trkpt lat="47.52576" lon="-2.76121">
        <ele>21.2</ele>
        <time>2021-08-06T09:29:54Z</time>
      </trkpt>
      <trkpt lat="47.52576" lon="-2.76114">
        <ele>21.2</ele>
        <time>2021-08-06T09:29:55Z</time>
      </trkpt>
      <trkpt lat="47.52576" lon="-2.76107">
        <ele>21.2</ele>
        <time>2021-08-06T09:29:56Z</time>
      </trkpt>
      <trkpt lat="47.52575" lon="-2.761">
        <ele>21.2</ele>
        <time>2021-08-06T09:29:57Z</time>
      </trkpt>
      <trkpt lat="47.52576" lon="-2.76094">
        <ele>21.2</ele>
        <time>2021-08-06T09:29:58Z</time>
      </trkpt>
      <trkpt lat="47.52576" lon="-2.76087">
        <ele>21.2</ele>
        <time>2021-08-06T09:29:59Z</time>
      </trkpt>
      <trkpt lat="47.52575" lon="-2.76081">
        <ele>21.2</ele>
        <time>2021-08-06T09:30:00Z</time>
      </trkpt>
      <trkpt lat="47.52573" lon="-2.76075">
        <ele>21.2</ele>
        <time>2021-08-06T09:30:01Z</time>
      </trkpt>
      <trkpt lat="47.5257" lon="-2.76069">
        <ele>21</ele>
        <time>2021-08-06T09:30:02Z</time>
      </trkpt>
      <trkpt lat="47.52567" lon="-2.76063">
        <ele>21</ele>
        <time>2021-08-06T09:30:03Z</time>
      </trkpt>
      <trkpt lat="47.52563" lon="-2.76057">
        <ele>21</ele>
        <time>2021-08-06T09:30:04Z</time>
      </trkpt>
      <trkpt lat="47.52559" lon="-2.76051">
        <ele>21</ele>
        <time>2021-08-06T09:30:05Z</time>
      </trkpt>
      <trkpt lat="47.52554" lon="-2.76045">
        <ele>20.8</ele>
        <time>2021-08-06T09:30:06Z</time>
      </trkpt>
      <trkpt lat="47.5255" lon="-2.76039">
        <ele>20.8</ele>
        <time>2021-08-06T09:30:07Z</time>
      </trkpt>
      <trkpt lat="47.52545" lon="-2.76034">
        <ele>20.8</ele>
        <time>2021-08-06T09:30:08Z</time>
      </trkpt>
      <trkpt lat="47.5254" lon="-2.76028">
        <ele>20.6</ele>
        <time>2021-08-06T09:30:09Z</time>
      </trkpt>
      <trkpt lat="47.52536" lon="-2.76023">
        <ele>20.6</ele>
        <time>2021-08-06T09:30:10Z</time>
      </trkpt>
      <trkpt lat="47.52531" lon="-2.76017">
        <ele>20.4</ele>
        <time>2021-08-06T09:30:11Z</time>
      </trkpt>
      <trkpt lat="47.52526" lon="-2.76011">
        <ele>20</ele>
        <time>2021-08-06T09:30:12Z</time>
      </trkpt>
      <trkpt lat="47.52522" lon="-2.76006">
        <ele>20</ele>
        <time>2021-08-06T09:30:13Z</time>
      </trkpt>
      <trkpt lat="47.52517" lon="-2.76001">
        <ele>19.8</ele>
        <time>2021-08-06T09:30:14Z</time>
      </trkpt>
      <trkpt lat="47.52512" lon="-2.75996">
        <ele>19.6</ele>
        <time>2021-08-06T09:30:15Z</time>
      </trkpt>
      <trkpt lat="47.52507" lon="-2.75992">
        <ele>19.2</ele>
        <time>2021-08-06T09:30:16Z</time>
      </trkpt>
      <trkpt lat="47.52502" lon="-2.75987">
        <ele>19</ele>
        <time>2021-08-06T09:30:17Z</time>
      </trkpt>
      <trkpt lat="47.52497" lon="-2.75982">
        <ele>18.8</ele>
        <time>2021-08-06T09:30:18Z</time>
      </trkpt>
      <trkpt lat="47.52493" lon="-2.75978">
        <ele>18.8</ele>
        <time>2021-08-06T09:30:19Z</time>
      </trkpt>
      <trkpt lat="47.52489" lon="-2.75973">
        <ele>18.6</ele>
        <time>2021-08-06T09:30:20Z</time>
      </trkpt>
      <trkpt lat="47.52485" lon="-2.75969">
        <ele>18.6</ele>
        <time>2021-08-06T09:30:21Z</time>
      </trkpt>
      <trkpt lat="47.52482" lon="-2.75966">
        <ele>18.4</ele>
        <time>2021-08-06T09:30:22Z</time>
      </trkpt>
      <trkpt lat="47.5248" lon="-2.75962">
        <ele>18.4</ele>
        <time>2021-08-06T09:30:23Z</time>
      </trkpt>
      <trkpt lat="47.52479" lon="-2.7596">
        <ele>18.2</ele>
        <time>2021-08-06T09:30:24Z</time>
      </trkpt>
      <trkpt lat="47.52477" lon="-2.75957">
        <ele>18.2</ele>
        <time>2021-08-06T09:30:25Z</time>
      </trkpt>
      <trkpt lat="47.52476" lon="-2.75955">
        <ele>18.2</ele>
        <time>2021-08-06T09:30:26Z</time>
      </trkpt>
      <trkpt lat="47.52475" lon="-2.75954">
        <ele>18.2</ele>
        <time>2021-08-06T09:30:27Z</time>
      </trkpt>
      <trkpt lat="47.52474" lon="-2.75953">
        <ele>18.2</ele>
        <time>2021-08-06T09:30:28Z</time>
      </trkpt>
      <trkpt lat="47.52473" lon="-2.75951">
        <ele>18.2</ele>
        <time>2021-08-06T09:30:29Z</time>
      </trkpt>
      <trkpt lat="47.52474" lon="-2.75949">
        <ele>18.2</ele>
        <time>2021-08-06T09:30:30Z</time>
      </trkpt>
      <trkpt lat="47.52475" lon="-2.75949">
        <ele>18</ele>
        <time>2021-08-06T09:30:31Z</time>
      </trkpt>
      <trkpt lat="47.52476" lon="-2.75949">
        <ele>18</ele>
        <time>2021-08-06T09:30:32Z</time>
      </trkpt>
      <trkpt lat="47.52477" lon="-2.7595">
        <ele>18</ele>
        <time>2021-08-06T09:30:33Z</time>
      </trkpt>
      <trkpt lat="47.52478" lon="-2.75952">
        <ele>18</ele>
        <time>2021-08-06T09:30:34Z</time>
      </trkpt>
      <trkpt lat="47.52479" lon="-2.75954">
        <ele>18</ele>
        <time>2021-08-06T09:30:35Z</time>
      </trkpt>
      <trkpt lat="47.5248" lon="-2.75956">
        <ele>18</ele>
        <time>2021-08-06T09:30:36Z</time>
      </trkpt>
      <trkpt lat="47.52482" lon="-2.75959">
        <ele>18</ele>
        <time>2021-08-06T09:30:37Z</time>
      </trkpt>
      <trkpt lat="47.52484" lon="-2.75961">
        <ele>18</ele>
        <time>2021-08-06T09:30:38Z</time>
      </trkpt>
      <trkpt lat="47.52486" lon="-2.75964">
        <ele>18</ele>
        <time>2021-08-06T09:30:39Z</time>
      </trkpt>
      <trkpt lat="47.52488" lon="-2.75967">
        <ele>18</ele>
        <time>2021-08-06T09:30:40Z</time>
      </trkpt>
      <trkpt lat="47.5249" lon="-2.7597">
        <ele>17.8</ele>
        <time>2021-08-06T09:30:41Z</time>
      </trkpt>
      <trkpt lat="47.52493" lon="-2.75972">
        <ele>17.6</ele>
        <time>2021-08-06T09:30:42Z</time>
      </trkpt>
      <trkpt lat="47.52495" lon="-2.75975">
        <ele>17.4</ele>
        <time>2021-08-06T09:30:43Z</time>
      </trkpt>
      <trkpt lat="47.52498" lon="-2.75978">
        <ele>17.4</ele>
        <time>2021-08-06T09:30:44Z</time>
      </trkpt>
      <trkpt lat="47.52501" lon="-2.75981">
        <ele>17.4</ele>
        <time>2021-08-06T09:30:45Z</time>
      </trkpt>
      <trkpt lat="47.52503" lon="-2.75985">
        <ele>17.4</ele>
        <time>2021-08-06T09:30:46Z</time>
      </trkpt>
      <trkpt lat="47.52505" lon="-2.75988">
        <ele>17.4</ele>
        <time>2021-08-06T09:30:47Z</time>
      </trkpt>
      <trkpt lat="47.52508" lon="-2.75989">
        <ele>17.4</ele>
        <time>2021-08-06T09:30:48Z</time>
      </trkpt>
      <trkpt lat="47.5251" lon="-2.75987">
        <ele>17.4</ele>
        <time>2021-08-06T09:30:49Z</time>
      </trkpt>
      <trkpt lat="47.5251" lon="-2.75985">
        <ele>17.6</ele>
        <time>2021-08-06T09:30:50Z</time>
      </trkpt>
      <trkpt lat="47.52508" lon="-2.75982">
        <ele>17.6</ele>
        <time>2021-08-06T09:30:51Z</time>
      </trkpt>
      <trkpt lat="47.52506" lon="-2.7598">
        <ele>17.6</ele>
        <time>2021-08-06T09:30:52Z</time>
      </trkpt>
      <trkpt lat="47.52504" lon="-2.75978">
        <ele>17.6</ele>
        <time>2021-08-06T09:30:53Z</time>
      </trkpt>
      <trkpt lat="47.52501" lon="-2.75975">
        <ele>17.6</ele>
        <time>2021-08-06T09:30:54Z</time>
      </trkpt>
      <trkpt lat="47.52497" lon="-2.75972">
        <ele>17.6</ele>
        <time>2021-08-06T09:30:55Z</time>
      </trkpt>
      <trkpt lat="47.52494" lon="-2.75968">
        <ele>17.4</ele>
        <time>2021-08-06T09:30:56Z</time>
      </trkpt>
      <trkpt lat="47.52491" lon="-2.75964">
        <ele>17.6</ele>
        <time>2021-08-06T09:30:57Z</time>
      </trkpt>
      <trkpt lat="47.52487" lon="-2.7596">
        <ele>17.6</ele>
        <time>2021-08-06T09:30:58Z</time>
      </trkpt>
      <trkpt lat="47.52484" lon="-2.75956">
        <ele>17.6</ele>
        <time>2021-08-06T09:30:59Z</time>
      </trkpt>
      <trkpt lat="47.52481" lon="-2.75951">
        <ele>17.8</ele>
        <time>2021-08-06T09:31:00Z</time>
      </trkpt>
      <trkpt lat="47.52478" lon="-2.75945">
        <ele>17.8</ele>
        <time>2021-08-06T09:31:01Z</time>
      </trkpt>
      <trkpt lat="47.52476" lon="-2.75939">
        <ele>17.6</ele>
        <time>2021-08-06T09:31:02Z</time>
      </trkpt>
      <trkpt lat="47.52474" lon="-2.75931">
        <ele>17.6</ele>
        <time>2021-08-06T09:31:03Z</time>
      </trkpt>
      <trkpt lat="47.52471" lon="-2.75923">
        <ele>17.6</ele>
        <time>2021-08-06T09:31:04Z</time>
      </trkpt>
      <trkpt lat="47.52469" lon="-2.75913">
        <ele>17.6</ele>
        <time>2021-08-06T09:31:05Z</time>
      </trkpt>
      <trkpt lat="47.52466" lon="-2.75903">
        <ele>17.4</ele>
        <time>2021-08-06T09:31:06Z</time>
      </trkpt>
      <trkpt lat="47.52464" lon="-2.75893">
        <ele>17.2</ele>
        <time>2021-08-06T09:31:07Z</time>
      </trkpt>
      <trkpt lat="47.52463" lon="-2.75883">
        <ele>17</ele>
        <time>2021-08-06T09:31:08Z</time>
      </trkpt>
      <trkpt lat="47.52462" lon="-2.75873">
        <ele>16.6</ele>
        <time>2021-08-06T09:31:09Z</time>
      </trkpt>
      <trkpt lat="47.52461" lon="-2.75864">
        <ele>16.4</ele>
        <time>2021-08-06T09:31:10Z</time>
      </trkpt>
      <trkpt lat="47.5246" lon="-2.75855">
        <ele>15.6</ele>
        <time>2021-08-06T09:31:11Z</time>
      </trkpt>
      <trkpt lat="47.52458" lon="-2.75845">
        <ele>14.8</ele>
        <time>2021-08-06T09:31:12Z</time>
      </trkpt>
      <trkpt lat="47.52453" lon="-2.75837">
        <ele>13.8</ele>
        <time>2021-08-06T09:31:13Z</time>
      </trkpt>
      <trkpt lat="47.52448" lon="-2.75831">
        <ele>13.4</ele>
        <time>2021-08-06T09:31:14Z</time>
      </trkpt>
      <trkpt lat="47.52443" lon="-2.75827">
        <ele>13.2</ele>
        <time>2021-08-06T09:31:15Z</time>
      </trkpt>
      <trkpt lat="47.52437" lon="-2.75826">
        <ele>13</ele>
        <time>2021-08-06T09:31:16Z</time>
      </trkpt>
      <trkpt lat="47.52432" lon="-2.75825">
        <ele>13</ele>
        <time>2021-08-06T09:31:17Z</time>
      </trkpt>
      <trkpt lat="47.52428" lon="-2.75824">
        <ele>13</ele>
        <time>2021-08-06T09:31:18Z</time>
      </trkpt>
      <trkpt lat="47.52426" lon="-2.75821">
        <ele>13</ele>
        <time>2021-08-06T09:31:19Z</time>
      </trkpt>
      <trkpt lat="47.52425" lon="-2.75818">
        <ele>13</ele>
        <time>2021-08-06T09:31:20Z</time>
      </trkpt>
      <trkpt lat="47.52426" lon="-2.75815">
        <ele>13</ele>
        <time>2021-08-06T09:31:21Z</time>
      </trkpt>
      <trkpt lat="47.52427" lon="-2.75814">
        <ele>13</ele>
        <time>2021-08-06T09:31:22Z</time>
      </trkpt>
      <trkpt lat="47.52428" lon="-2.75814">
        <ele>13.4</ele>
        <time>2021-08-06T09:31:23Z</time>
      </trkpt>
      <trkpt lat="47.5243" lon="-2.75814">
        <ele>13.8</ele>
        <time>2021-08-06T09:31:24Z</time>
      </trkpt>
      <trkpt lat="47.52431" lon="-2.75813">
        <ele>14</ele>
        <time>2021-08-06T09:31:25Z</time>
      </trkpt>
      <trkpt lat="47.52433" lon="-2.75812">
        <ele>14.4</ele>
        <time>2021-08-06T09:31:26Z</time>
      </trkpt>
      <trkpt lat="47.52434" lon="-2.75812">
        <ele>15</ele>
        <time>2021-08-06T09:31:27Z</time>
      </trkpt>
      <trkpt lat="47.52436" lon="-2.75811">
        <ele>15.4</ele>
        <time>2021-08-06T09:31:28Z</time>
      </trkpt>
      <trkpt lat="47.52438" lon="-2.7581">
        <ele>15.8</ele>
        <time>2021-08-06T09:31:29Z</time>
      </trkpt>
      <trkpt lat="47.52439" lon="-2.75809">
        <ele>16</ele>
        <time>2021-08-06T09:31:30Z</time>
      </trkpt>
      <trkpt lat="47.52441" lon="-2.75809">
        <ele>16</ele>
        <time>2021-08-06T09:31:31Z</time>
      </trkpt>
      <trkpt lat="47.52443" lon="-2.75808">
        <ele>16.2</ele>
        <time>2021-08-06T09:31:32Z</time>
      </trkpt>
      <trkpt lat="47.52444" lon="-2.75807">
        <ele>16.4</ele>
        <time>2021-08-06T09:31:33Z</time>
      </trkpt>
      <trkpt lat="47.52446" lon="-2.75806">
        <ele>16.4</ele>
        <time>2021-08-06T09:31:34Z</time>
      </trkpt>
      <trkpt lat="47.52448" lon="-2.75805">
        <ele>16.6</ele>
        <time>2021-08-06T09:31:35Z</time>
      </trkpt>
      <trkpt lat="47.5245" lon="-2.75804">
        <ele>16.6</ele>
        <time>2021-08-06T09:31:36Z</time>
      </trkpt>
      <trkpt lat="47.52453" lon="-2.75803">
        <ele>16.6</ele>
        <time>2021-08-06T09:31:37Z</time>
      </trkpt>
      <trkpt lat="47.52455" lon="-2.75802">
        <ele>16.6</ele>
        <time>2021-08-06T09:31:38Z</time>
      </trkpt>
      <trkpt lat="47.52458" lon="-2.75801">
        <ele>16.8</ele>
        <time>2021-08-06T09:31:39Z</time>
      </trkpt>
      <trkpt lat="47.52462" lon="-2.758">
        <ele>17</ele>
        <time>2021-08-06T09:31:40Z</time>
      </trkpt>
      <trkpt lat="47.52465" lon="-2.75798">
        <ele>17.2</ele>
        <time>2021-08-06T09:31:41Z</time>
      </trkpt>
      <trkpt lat="47.52468" lon="-2.75797">
        <ele>17.4</ele>
        <time>2021-08-06T09:31:42Z</time>
      </trkpt>
      <trkpt lat="47.52471" lon="-2.75795">
        <ele>17.4</ele>
        <time>2021-08-06T09:31:43Z</time>
      </trkpt>
      <trkpt lat="47.52474" lon="-2.75792">
        <ele>17.6</ele>
        <time>2021-08-06T09:31:44Z</time>
      </trkpt>
      <trkpt lat="47.52476" lon="-2.75789">
        <ele>17.6</ele>
        <time>2021-08-06T09:31:45Z</time>
      </trkpt>
      <trkpt lat="47.52476" lon="-2.75784">
        <ele>17.8</ele>
        <time>2021-08-06T09:31:46Z</time>
      </trkpt>
      <trkpt lat="47.52476" lon="-2.75778">
        <ele>18</ele>
        <time>2021-08-06T09:31:47Z</time>
      </trkpt>
      <trkpt lat="47.52475" lon="-2.75772">
        <ele>18</ele>
        <time>2021-08-06T09:31:48Z</time>
      </trkpt>
      <trkpt lat="47.52474" lon="-2.75766">
        <ele>18.2</ele>
        <time>2021-08-06T09:31:49Z</time>
      </trkpt>
      <trkpt lat="47.52473" lon="-2.7576">
        <ele>18.4</ele>
        <time>2021-08-06T09:31:50Z</time>
      </trkpt>
      <trkpt lat="47.52473" lon="-2.75753">
        <ele>18.4</ele>
        <time>2021-08-06T09:31:51Z</time>
      </trkpt>
      <trkpt lat="47.52472" lon="-2.75746">
        <ele>18.4</ele>
        <time>2021-08-06T09:31:52Z</time>
      </trkpt>
      <trkpt lat="47.52472" lon="-2.75738">
        <ele>18.4</ele>
        <time>2021-08-06T09:31:53Z</time>
      </trkpt>
      <trkpt lat="47.52471" lon="-2.75731">
        <ele>18.4</ele>
        <time>2021-08-06T09:31:54Z</time>
      </trkpt>
      <trkpt lat="47.5247" lon="-2.75723">
        <ele>18.4</ele>
        <time>2021-08-06T09:31:55Z</time>
      </trkpt>
      <trkpt lat="47.52469" lon="-2.75715">
        <ele>18.4</ele>
        <time>2021-08-06T09:31:56Z</time>
      </trkpt>
      <trkpt lat="47.52469" lon="-2.75706">
        <ele>18.4</ele>
        <time>2021-08-06T09:31:57Z</time>
      </trkpt>
      <trkpt lat="47.52468" lon="-2.75698">
        <ele>18.4</ele>
        <time>2021-08-06T09:31:58Z</time>
      </trkpt>
      <trkpt lat="47.52467" lon="-2.7569">
        <ele>18.4</ele>
        <time>2021-08-06T09:31:59Z</time>
      </trkpt>
      <trkpt lat="47.52466" lon="-2.75681">
        <ele>18.4</ele>
        <time>2021-08-06T09:32:00Z</time>
      </trkpt>
      <trkpt lat="47.52465" lon="-2.75673">
        <ele>18.2</ele>
        <time>2021-08-06T09:32:01Z</time>
      </trkpt>
      <trkpt lat="47.52464" lon="-2.75664">
        <ele>17.8</ele>
        <time>2021-08-06T09:32:02Z</time>
      </trkpt>
      <trkpt lat="47.52463" lon="-2.75655">
        <ele>17.4</ele>
        <time>2021-08-06T09:32:03Z</time>
      </trkpt>
      <trkpt lat="47.52461" lon="-2.75647">
        <ele>17.2</ele>
        <time>2021-08-06T09:32:04Z</time>
      </trkpt>
      <trkpt lat="47.52459" lon="-2.75638">
        <ele>17</ele>
        <time>2021-08-06T09:32:05Z</time>
      </trkpt>
      <trkpt lat="47.52457" lon="-2.7563">
        <ele>16.8</ele>
        <time>2021-08-06T09:32:06Z</time>
      </trkpt>
      <trkpt lat="47.52454" lon="-2.75621">
        <ele>16.8</ele>
        <time>2021-08-06T09:32:07Z</time>
      </trkpt>
      <trkpt lat="47.52451" lon="-2.75612">
        <ele>16.6</ele>
        <time>2021-08-06T09:32:08Z</time>
      </trkpt>
      <trkpt lat="47.52449" lon="-2.75604">
        <ele>16.4</ele>
        <time>2021-08-06T09:32:09Z</time>
      </trkpt>
      <trkpt lat="47.52446" lon="-2.75596">
        <ele>16.2</ele>
        <time>2021-08-06T09:32:10Z</time>
      </trkpt>
      <trkpt lat="47.52443" lon="-2.75589">
        <ele>15.8</ele>
        <time>2021-08-06T09:32:11Z</time>
      </trkpt>
      <trkpt lat="47.5244" lon="-2.75583">
        <ele>15.2</ele>
        <time>2021-08-06T09:32:12Z</time>
      </trkpt>
      <trkpt lat="47.52437" lon="-2.75577">
        <ele>15</ele>
        <time>2021-08-06T09:32:13Z</time>
      </trkpt>
      <trkpt lat="47.52435" lon="-2.75571">
        <ele>14.8</ele>
        <time>2021-08-06T09:32:14Z</time>
      </trkpt>
      <trkpt lat="47.52433" lon="-2.75566">
        <ele>14.6</ele>
        <time>2021-08-06T09:32:15Z</time>
      </trkpt>
      <trkpt lat="47.52432" lon="-2.75561">
        <ele>14.6</ele>
        <time>2021-08-06T09:32:16Z</time>
      </trkpt>
      <trkpt lat="47.52432" lon="-2.75556">
        <ele>14.6</ele>
        <time>2021-08-06T09:32:17Z</time>
      </trkpt>
      <trkpt lat="47.52431" lon="-2.75551">
        <ele>14.6</ele>
        <time>2021-08-06T09:32:18Z</time>
      </trkpt>
      <trkpt lat="47.52431" lon="-2.75546">
        <ele>14.4</ele>
        <time>2021-08-06T09:32:19Z</time>
      </trkpt>
      <trkpt lat="47.52431" lon="-2.75543">
        <ele>14.4</ele>
        <time>2021-08-06T09:32:20Z</time>
      </trkpt>
      <trkpt lat="47.52431" lon="-2.75539">
        <ele>14.4</ele>
        <time>2021-08-06T09:32:21Z</time>
      </trkpt>
      <trkpt lat="47.52433" lon="-2.75535">
        <ele>14.4</ele>
        <time>2021-08-06T09:32:22Z</time>
      </trkpt>
      <trkpt lat="47.52434" lon="-2.75531">
        <ele>14.4</ele>
        <time>2021-08-06T09:32:23Z</time>
      </trkpt>
      <trkpt lat="47.52436" lon="-2.75527">
        <ele>14.4</ele>
        <time>2021-08-06T09:32:24Z</time>
      </trkpt>
      <trkpt lat="47.52438" lon="-2.75522">
        <ele>14.4</ele>
        <time>2021-08-06T09:32:25Z</time>
      </trkpt>
      <trkpt lat="47.5244" lon="-2.75516">
        <ele>14.4</ele>
        <time>2021-08-06T09:32:26Z</time>
      </trkpt>
      <trkpt lat="47.52442" lon="-2.7551">
        <ele>14.4</ele>
        <time>2021-08-06T09:32:27Z</time>
      </trkpt>
      <trkpt lat="47.52444" lon="-2.75505">
        <ele>14.6</ele>
        <time>2021-08-06T09:32:28Z</time>
      </trkpt>
      <trkpt lat="47.52445" lon="-2.755">
        <ele>14.4</ele>
        <time>2021-08-06T09:32:29Z</time>
      </trkpt>
      <trkpt lat="47.52446" lon="-2.75495">
        <ele>14.4</ele>
        <time>2021-08-06T09:32:30Z</time>
      </trkpt>
      <trkpt lat="47.52448" lon="-2.75489">
        <ele>14.6</ele>
        <time>2021-08-06T09:32:31Z</time>
      </trkpt>
      <trkpt lat="47.52449" lon="-2.75484">
        <ele>14.4</ele>
        <time>2021-08-06T09:32:32Z</time>
      </trkpt>
      <trkpt lat="47.52451" lon="-2.7548">
        <ele>14.8</ele>
        <time>2021-08-06T09:32:33Z</time>
      </trkpt>
      <trkpt lat="47.52452" lon="-2.75476">
        <ele>14.8</ele>
        <time>2021-08-06T09:32:34Z</time>
      </trkpt>
      <trkpt lat="47.52453" lon="-2.75472">
        <ele>14.8</ele>
        <time>2021-08-06T09:32:35Z</time>
      </trkpt>
      <trkpt lat="47.52455" lon="-2.75468">
        <ele>15</ele>
        <time>2021-08-06T09:32:36Z</time>
      </trkpt>
      <trkpt lat="47.52457" lon="-2.75464">
        <ele>15</ele>
        <time>2021-08-06T09:32:37Z</time>
      </trkpt>
      <trkpt lat="47.52459" lon="-2.7546">
        <ele>15</ele>
        <time>2021-08-06T09:32:38Z</time>
      </trkpt>
      <trkpt lat="47.52461" lon="-2.75456">
        <ele>15.2</ele>
        <time>2021-08-06T09:32:39Z</time>
      </trkpt>
      <trkpt lat="47.52463" lon="-2.75451">
        <ele>15.2</ele>
        <time>2021-08-06T09:32:40Z</time>
      </trkpt>
      <trkpt lat="47.52465" lon="-2.75447">
        <ele>15.4</ele>
        <time>2021-08-06T09:32:41Z</time>
      </trkpt>
      <trkpt lat="47.52468" lon="-2.75442">
        <ele>15.6</ele>
        <time>2021-08-06T09:32:42Z</time>
      </trkpt>
      <trkpt lat="47.52471" lon="-2.75438">
        <ele>15.6</ele>
        <time>2021-08-06T09:32:43Z</time>
      </trkpt>
      <trkpt lat="47.52473" lon="-2.75433">
        <ele>15.6</ele>
        <time>2021-08-06T09:32:44Z</time>
      </trkpt>
      <trkpt lat="47.52476" lon="-2.75429">
        <ele>16</ele>
        <time>2021-08-06T09:32:45Z</time>
      </trkpt>
      <trkpt lat="47.5248" lon="-2.75425">
        <ele>16.4</ele>
        <time>2021-08-06T09:32:46Z</time>
      </trkpt>
      <trkpt lat="47.52484" lon="-2.7542">
        <ele>16.6</ele>
        <time>2021-08-06T09:32:47Z</time>
      </trkpt>
      <trkpt lat="47.52486" lon="-2.75416">
        <ele>16.8</ele>
        <time>2021-08-06T09:32:48Z</time>
      </trkpt>
      <trkpt lat="47.52488" lon="-2.75412">
        <ele>16.8</ele>
        <time>2021-08-06T09:32:49Z</time>
      </trkpt>
      <trkpt lat="47.52488" lon="-2.75408">
        <ele>17</ele>
        <time>2021-08-06T09:32:50Z</time>
      </trkpt>
      <trkpt lat="47.52488" lon="-2.75405">
        <ele>17.2</ele>
        <time>2021-08-06T09:32:51Z</time>
      </trkpt>
      <trkpt lat="47.52487" lon="-2.75402">
        <ele>17.6</ele>
        <time>2021-08-06T09:32:52Z</time>
      </trkpt>
      <trkpt lat="47.52486" lon="-2.75399">
        <ele>18</ele>
        <time>2021-08-06T09:32:53Z</time>
      </trkpt>
      <trkpt lat="47.52485" lon="-2.75396">
        <ele>18.2</ele>
        <time>2021-08-06T09:32:54Z</time>
      </trkpt>
      <trkpt lat="47.52484" lon="-2.75392">
        <ele>18.4</ele>
        <time>2021-08-06T09:32:55Z</time>
      </trkpt>
      <trkpt lat="47.52483" lon="-2.75388">
        <ele>18.4</ele>
        <time>2021-08-06T09:32:56Z</time>
      </trkpt>
      <trkpt lat="47.52482" lon="-2.75384">
        <ele>18.6</ele>
        <time>2021-08-06T09:32:57Z</time>
      </trkpt>
      <trkpt lat="47.5248" lon="-2.75381">
        <ele>18.6</ele>
        <time>2021-08-06T09:32:58Z</time>
      </trkpt>
      <trkpt lat="47.52479" lon="-2.75379">
        <ele>18.6</ele>
        <time>2021-08-06T09:32:59Z</time>
      </trkpt>
      <trkpt lat="47.52478" lon="-2.75377">
        <ele>18.6</ele>
        <time>2021-08-06T09:33:00Z</time>
      </trkpt>
      <trkpt lat="47.52477" lon="-2.75375">
        <ele>18.6</ele>
        <time>2021-08-06T09:33:01Z</time>
      </trkpt>
      <trkpt lat="47.52476" lon="-2.75372">
        <ele>18.8</ele>
        <time>2021-08-06T09:33:02Z</time>
      </trkpt>
      <trkpt lat="47.52475" lon="-2.7537">
        <ele>18.8</ele>
        <time>2021-08-06T09:33:03Z</time>
      </trkpt>
      <trkpt lat="47.52474" lon="-2.75367">
        <ele>18.8</ele>
        <time>2021-08-06T09:33:04Z</time>
      </trkpt>
      <trkpt lat="47.52473" lon="-2.75363">
        <ele>18.8</ele>
        <time>2021-08-06T09:33:05Z</time>
      </trkpt>
      <trkpt lat="47.52473" lon="-2.75359">
        <ele>18.8</ele>
        <time>2021-08-06T09:33:06Z</time>
      </trkpt>
      <trkpt lat="47.52471" lon="-2.75356">
        <ele>18.8</ele>
        <time>2021-08-06T09:33:07Z</time>
      </trkpt>
      <trkpt lat="47.5247" lon="-2.75353">
        <ele>18.8</ele>
        <time>2021-08-06T09:33:08Z</time>
      </trkpt>
      <trkpt lat="47.52469" lon="-2.75349">
        <ele>18.8</ele>
        <time>2021-08-06T09:33:09Z</time>
      </trkpt>
      <trkpt lat="47.52468" lon="-2.75346">
        <ele>18.8</ele>
        <time>2021-08-06T09:33:10Z</time>
      </trkpt>
      <trkpt lat="47.52466" lon="-2.75342">
        <ele>18.8</ele>
        <time>2021-08-06T09:33:11Z</time>
      </trkpt>
      <trkpt lat="47.52464" lon="-2.75339">
        <ele>18.8</ele>
        <time>2021-08-06T09:33:12Z</time>
      </trkpt>
      <trkpt lat="47.52463" lon="-2.75336">
        <ele>18.8</ele>
        <time>2021-08-06T09:33:13Z</time>
      </trkpt>
      <trkpt lat="47.52461" lon="-2.75333">
        <ele>18.8</ele>
        <time>2021-08-06T09:33:14Z</time>
      </trkpt>
      <trkpt lat="47.52459" lon="-2.7533">
        <ele>18.8</ele>
        <time>2021-08-06T09:33:15Z</time>
      </trkpt>
      <trkpt lat="47.52457" lon="-2.75326">
        <ele>18.8</ele>
        <time>2021-08-06T09:33:16Z</time>
      </trkpt>
      <trkpt lat="47.52455" lon="-2.75323">
        <ele>18.8</ele>
        <time>2021-08-06T09:33:17Z</time>
      </trkpt>
      <trkpt lat="47.52453" lon="-2.75319">
        <ele>18.8</ele>
        <time>2021-08-06T09:33:18Z</time>
      </trkpt>
      <trkpt lat="47.52451" lon="-2.75315">
        <ele>19</ele>
        <time>2021-08-06T09:33:19Z</time>
      </trkpt>
      <trkpt lat="47.52449" lon="-2.75312">
        <ele>19</ele>
        <time>2021-08-06T09:33:20Z</time>
      </trkpt>
      <trkpt lat="47.52448" lon="-2.75309">
        <ele>19</ele>
        <time>2021-08-06T09:33:21Z</time>
      </trkpt>
      <trkpt lat="47.52447" lon="-2.75306">
        <ele>19</ele>
        <time>2021-08-06T09:33:22Z</time>
      </trkpt>
      <trkpt lat="47.52446" lon="-2.75303">
        <ele>19</ele>
        <time>2021-08-06T09:33:23Z</time>
      </trkpt>
      <trkpt lat="47.52444" lon="-2.753">
        <ele>19</ele>
        <time>2021-08-06T09:33:24Z</time>
      </trkpt>
      <trkpt lat="47.52443" lon="-2.75297">
        <ele>19</ele>
        <time>2021-08-06T09:33:25Z</time>
      </trkpt>
      <trkpt lat="47.52442" lon="-2.75295">
        <ele>19</ele>
        <time>2021-08-06T09:33:26Z</time>
      </trkpt>
      <trkpt lat="47.52441" lon="-2.75293">
        <ele>19</ele>
        <time>2021-08-06T09:33:27Z</time>
      </trkpt>
      <trkpt lat="47.5244" lon="-2.7529">
        <ele>19</ele>
        <time>2021-08-06T09:33:28Z</time>
      </trkpt>
      <trkpt lat="47.52439" lon="-2.75288">
        <ele>19</ele>
        <time>2021-08-06T09:33:29Z</time>
      </trkpt>
      <trkpt lat="47.52438" lon="-2.75284">
        <ele>19.2</ele>
        <time>2021-08-06T09:33:30Z</time>
      </trkpt>
      <trkpt lat="47.52437" lon="-2.7528">
        <ele>19.2</ele>
        <time>2021-08-06T09:33:31Z</time>
      </trkpt>
      <trkpt lat="47.52436" lon="-2.75276">
        <ele>19.2</ele>
        <time>2021-08-06T09:33:32Z</time>
      </trkpt>
      <trkpt lat="47.52436" lon="-2.75271">
        <ele>19.4</ele>
        <time>2021-08-06T09:33:33Z</time>
      </trkpt>
      <trkpt lat="47.52435" lon="-2.75266">
        <ele>19.4</ele>
        <time>2021-08-06T09:33:34Z</time>
      </trkpt>
      <trkpt lat="47.52434" lon="-2.7526">
        <ele>19.4</ele>
        <time>2021-08-06T09:33:35Z</time>
      </trkpt>
      <trkpt lat="47.52434" lon="-2.75256">
        <ele>19.4</ele>
        <time>2021-08-06T09:33:36Z</time>
      </trkpt>
      <trkpt lat="47.52433" lon="-2.75251">
        <ele>19.4</ele>
        <time>2021-08-06T09:33:37Z</time>
      </trkpt>
      <trkpt lat="47.52433" lon="-2.75248">
        <ele>19.4</ele>
        <time>2021-08-06T09:33:38Z</time>
      </trkpt>
      <trkpt lat="47.52433" lon="-2.75245">
        <ele>19.4</ele>
        <time>2021-08-06T09:33:39Z</time>
      </trkpt>
      <trkpt lat="47.52432" lon="-2.75242">
        <ele>19.4</ele>
        <time>2021-08-06T09:33:40Z</time>
      </trkpt>
      <trkpt lat="47.52432" lon="-2.75238">
        <ele>19.4</ele>
        <time>2021-08-06T09:33:41Z</time>
      </trkpt>
      <trkpt lat="47.52432" lon="-2.75235">
        <ele>19.2</ele>
        <time>2021-08-06T09:33:42Z</time>
      </trkpt>
      <trkpt lat="47.52432" lon="-2.75231">
        <ele>19</ele>
        <time>2021-08-06T09:33:43Z</time>
      </trkpt>
      <trkpt lat="47.52432" lon="-2.75227">
        <ele>19</ele>
        <time>2021-08-06T09:33:44Z</time>
      </trkpt>
      <trkpt lat="47.52433" lon="-2.75224">
        <ele>19</ele>
        <time>2021-08-06T09:33:45Z</time>
      </trkpt>
      <trkpt lat="47.52432" lon="-2.7522">
        <ele>19</ele>
        <time>2021-08-06T09:33:46Z</time>
      </trkpt>
      <trkpt lat="47.52433" lon="-2.75216">
        <ele>19</ele>
        <time>2021-08-06T09:33:47Z</time>
      </trkpt>
      <trkpt lat="47.52434" lon="-2.75213">
        <ele>19</ele>
        <time>2021-08-06T09:33:48Z</time>
      </trkpt>
      <trkpt lat="47.52434" lon="-2.75209">
        <ele>19</ele>
        <time>2021-08-06T09:33:49Z</time>
      </trkpt>
      <trkpt lat="47.52434" lon="-2.75206">
        <ele>19</ele>
        <time>2021-08-06T09:33:50Z</time>
      </trkpt>
      <trkpt lat="47.52435" lon="-2.75201">
        <ele>19</ele>
        <time>2021-08-06T09:33:51Z</time>
      </trkpt>
      <trkpt lat="47.52436" lon="-2.75196">
        <ele>19</ele>
        <time>2021-08-06T09:33:52Z</time>
      </trkpt>
      <trkpt lat="47.52436" lon="-2.75192">
        <ele>19</ele>
        <time>2021-08-06T09:33:53Z</time>
      </trkpt>
      <trkpt lat="47.52436" lon="-2.75189">
        <ele>19</ele>
        <time>2021-08-06T09:33:54Z</time>
      </trkpt>
      <trkpt lat="47.52436" lon="-2.75185">
        <ele>19</ele>
        <time>2021-08-06T09:33:55Z</time>
      </trkpt>
      <trkpt lat="47.52436" lon="-2.75181">
        <ele>19</ele>
        <time>2021-08-06T09:33:56Z</time>
      </trkpt>
      <trkpt lat="47.52437" lon="-2.75177">
        <ele>19</ele>
        <time>2021-08-06T09:33:57Z</time>
      </trkpt>
      <trkpt lat="47.52436" lon="-2.75173">
        <ele>19</ele>
        <time>2021-08-06T09:33:58Z</time>
      </trkpt>
      <trkpt lat="47.52436" lon="-2.75169">
        <ele>19.2</ele>
        <time>2021-08-06T09:33:59Z</time>
      </trkpt>
      <trkpt lat="47.52436" lon="-2.75165">
        <ele>19.2</ele>
        <time>2021-08-06T09:34:00Z</time>
      </trkpt>
      <trkpt lat="47.52437" lon="-2.7516">
        <ele>19.2</ele>
        <time>2021-08-06T09:34:01Z</time>
      </trkpt>
      <trkpt lat="47.52437" lon="-2.75155">
        <ele>19.2</ele>
        <time>2021-08-06T09:34:02Z</time>
      </trkpt>
      <trkpt lat="47.52437" lon="-2.7515">
        <ele>19.4</ele>
        <time>2021-08-06T09:34:03Z</time>
      </trkpt>
      <trkpt lat="47.52436" lon="-2.75145">
        <ele>19.4</ele>
        <time>2021-08-06T09:34:04Z</time>
      </trkpt>
      <trkpt lat="47.52435" lon="-2.75141">
        <ele>19.4</ele>
        <time>2021-08-06T09:34:05Z</time>
      </trkpt>
      <trkpt lat="47.52434" lon="-2.75137">
        <ele>19.4</ele>
        <time>2021-08-06T09:34:06Z</time>
      </trkpt>
      <trkpt lat="47.52432" lon="-2.75134">
        <ele>19.4</ele>
        <time>2021-08-06T09:34:07Z</time>
      </trkpt>
      <trkpt lat="47.52429" lon="-2.75131">
        <ele>19.4</ele>
        <time>2021-08-06T09:34:08Z</time>
      </trkpt>
      <trkpt lat="47.52427" lon="-2.75127">
        <ele>19.4</ele>
        <time>2021-08-06T09:34:09Z</time>
      </trkpt>
      <trkpt lat="47.52425" lon="-2.75123">
        <ele>19.4</ele>
        <time>2021-08-06T09:34:10Z</time>
      </trkpt>
      <trkpt lat="47.52422" lon="-2.75119">
        <ele>19.4</ele>
        <time>2021-08-06T09:34:11Z</time>
      </trkpt>
      <trkpt lat="47.52418" lon="-2.75115">
        <ele>19.4</ele>
        <time>2021-08-06T09:34:12Z</time>
      </trkpt>
      <trkpt lat="47.52415" lon="-2.75111">
        <ele>19.4</ele>
        <time>2021-08-06T09:34:13Z</time>
      </trkpt>
      <trkpt lat="47.52412" lon="-2.75107">
        <ele>19.2</ele>
        <time>2021-08-06T09:34:14Z</time>
      </trkpt>
      <trkpt lat="47.52408" lon="-2.75102">
        <ele>19.2</ele>
        <time>2021-08-06T09:34:15Z</time>
      </trkpt>
      <trkpt lat="47.52405" lon="-2.75096">
        <ele>19</ele>
        <time>2021-08-06T09:34:16Z</time>
      </trkpt>
      <trkpt lat="47.52402" lon="-2.75091">
        <ele>18.8</ele>
        <time>2021-08-06T09:34:17Z</time>
      </trkpt>
      <trkpt lat="47.52398" lon="-2.75086">
        <ele>18.6</ele>
        <time>2021-08-06T09:34:18Z</time>
      </trkpt>
      <trkpt lat="47.52396" lon="-2.75081">
        <ele>18.6</ele>
        <time>2021-08-06T09:34:19Z</time>
      </trkpt>
      <trkpt lat="47.52393" lon="-2.75076">
        <ele>18.6</ele>
        <time>2021-08-06T09:34:20Z</time>
      </trkpt>
      <trkpt lat="47.5239" lon="-2.75072">
        <ele>18.4</ele>
        <time>2021-08-06T09:34:21Z</time>
      </trkpt>
      <trkpt lat="47.52387" lon="-2.75067">
        <ele>18.2</ele>
        <time>2021-08-06T09:34:22Z</time>
      </trkpt>
      <trkpt lat="47.52384" lon="-2.75061">
        <ele>18.2</ele>
        <time>2021-08-06T09:34:23Z</time>
      </trkpt>
      <trkpt lat="47.52381" lon="-2.75056">
        <ele>17.8</ele>
        <time>2021-08-06T09:34:24Z</time>
      </trkpt>
      <trkpt lat="47.52378" lon="-2.7505">
        <ele>17.8</ele>
        <time>2021-08-06T09:34:25Z</time>
      </trkpt>
      <trkpt lat="47.52375" lon="-2.75045">
        <ele>17.6</ele>
        <time>2021-08-06T09:34:26Z</time>
      </trkpt>
      <trkpt lat="47.52371" lon="-2.7504">
        <ele>17.6</ele>
        <time>2021-08-06T09:34:27Z</time>
      </trkpt>
      <trkpt lat="47.52368" lon="-2.75035">
        <ele>17.6</ele>
        <time>2021-08-06T09:34:28Z</time>
      </trkpt>
      <trkpt lat="47.52365" lon="-2.7503">
        <ele>17.6</ele>
        <time>2021-08-06T09:34:29Z</time>
      </trkpt>
      <trkpt lat="47.52362" lon="-2.75024">
        <ele>17.4</ele>
        <time>2021-08-06T09:34:30Z</time>
      </trkpt>
      <trkpt lat="47.52359" lon="-2.7502">
        <ele>17.2</ele>
        <time>2021-08-06T09:34:31Z</time>
      </trkpt>
      <trkpt lat="47.52355" lon="-2.75015">
        <ele>17.2</ele>
        <time>2021-08-06T09:34:32Z</time>
      </trkpt>
      <trkpt lat="47.52353" lon="-2.7501">
        <ele>17</ele>
        <time>2021-08-06T09:34:33Z</time>
      </trkpt>
      <trkpt lat="47.5235" lon="-2.75006">
        <ele>16.8</ele>
        <time>2021-08-06T09:34:34Z</time>
      </trkpt>
      <trkpt lat="47.52347" lon="-2.75001">
        <ele>16.6</ele>
        <time>2021-08-06T09:34:35Z</time>
      </trkpt>
      <trkpt lat="47.52345" lon="-2.74995">
        <ele>16.4</ele>
        <time>2021-08-06T09:34:36Z</time>
      </trkpt>
      <trkpt lat="47.52345" lon="-2.74989">
        <ele>16.2</ele>
        <time>2021-08-06T09:34:37Z</time>
      </trkpt>
      <trkpt lat="47.52345" lon="-2.74982">
        <ele>16</ele>
        <time>2021-08-06T09:34:38Z</time>
      </trkpt>
      <trkpt lat="47.52346" lon="-2.74977">
        <ele>16</ele>
        <time>2021-08-06T09:34:39Z</time>
      </trkpt>
      <trkpt lat="47.52346" lon="-2.7497">
        <ele>16</ele>
        <time>2021-08-06T09:34:40Z</time>
      </trkpt>
      <trkpt lat="47.52347" lon="-2.74964">
        <ele>16</ele>
        <time>2021-08-06T09:34:41Z</time>
      </trkpt>
      <trkpt lat="47.52348" lon="-2.74958">
        <ele>15.8</ele>
        <time>2021-08-06T09:34:42Z</time>
      </trkpt>
      <trkpt lat="47.52348" lon="-2.74951">
        <ele>15.8</ele>
        <time>2021-08-06T09:34:43Z</time>
      </trkpt>
      <trkpt lat="47.52349" lon="-2.74946">
        <ele>15.8</ele>
        <time>2021-08-06T09:34:44Z</time>
      </trkpt>
      <trkpt lat="47.52351" lon="-2.74939">
        <ele>15.8</ele>
        <time>2021-08-06T09:34:45Z</time>
      </trkpt>
      <trkpt lat="47.52352" lon="-2.74931">
        <ele>15.8</ele>
        <time>2021-08-06T09:34:46Z</time>
      </trkpt>
      <trkpt lat="47.52354" lon="-2.74924">
        <ele>15.8</ele>
        <time>2021-08-06T09:34:47Z</time>
      </trkpt>
      <trkpt lat="47.52356" lon="-2.74917">
        <ele>15.8</ele>
        <time>2021-08-06T09:34:48Z</time>
      </trkpt>
      <trkpt lat="47.52357" lon="-2.7491">
        <ele>15.6</ele>
        <time>2021-08-06T09:34:49Z</time>
      </trkpt>
      <trkpt lat="47.52359" lon="-2.74903">
        <ele>15.6</ele>
        <time>2021-08-06T09:34:50Z</time>
      </trkpt>
      <trkpt lat="47.52361" lon="-2.74896">
        <ele>15.6</ele>
        <time>2021-08-06T09:34:51Z</time>
      </trkpt>
      <trkpt lat="47.52363" lon="-2.74889">
        <ele>15.6</ele>
        <time>2021-08-06T09:34:52Z</time>
      </trkpt>
      <trkpt lat="47.52364" lon="-2.74882">
        <ele>15.6</ele>
        <time>2021-08-06T09:34:53Z</time>
      </trkpt>
      <trkpt lat="47.52366" lon="-2.74875">
        <ele>15.6</ele>
        <time>2021-08-06T09:34:54Z</time>
      </trkpt>
      <trkpt lat="47.52368" lon="-2.74869">
        <ele>15.6</ele>
        <time>2021-08-06T09:34:55Z</time>
      </trkpt>
      <trkpt lat="47.5237" lon="-2.74862">
        <ele>15.6</ele>
        <time>2021-08-06T09:34:56Z</time>
      </trkpt>
      <trkpt lat="47.52372" lon="-2.74856">
        <ele>15.6</ele>
        <time>2021-08-06T09:34:57Z</time>
      </trkpt>
      <trkpt lat="47.52375" lon="-2.74851">
        <ele>15.6</ele>
        <time>2021-08-06T09:34:58Z</time>
      </trkpt>
      <trkpt lat="47.52377" lon="-2.74845">
        <ele>15.4</ele>
        <time>2021-08-06T09:34:59Z</time>
      </trkpt>
      <trkpt lat="47.52378" lon="-2.7484">
        <ele>15.4</ele>
        <time>2021-08-06T09:35:00Z</time>
      </trkpt>
      <trkpt lat="47.5238" lon="-2.74835">
        <ele>15.4</ele>
        <time>2021-08-06T09:35:01Z</time>
      </trkpt>
      <trkpt lat="47.52382" lon="-2.74829">
        <ele>15.4</ele>
        <time>2021-08-06T09:35:02Z</time>
      </trkpt>
      <trkpt lat="47.52383" lon="-2.74825">
        <ele>15.4</ele>
        <time>2021-08-06T09:35:03Z</time>
      </trkpt>
      <trkpt lat="47.52385" lon="-2.7482">
        <ele>15.4</ele>
        <time>2021-08-06T09:35:04Z</time>
      </trkpt>
      <trkpt lat="47.52386" lon="-2.74814">
        <ele>15.4</ele>
        <time>2021-08-06T09:35:05Z</time>
      </trkpt>
      <trkpt lat="47.52387" lon="-2.74809">
        <ele>15.4</ele>
        <time>2021-08-06T09:35:06Z</time>
      </trkpt>
      <trkpt lat="47.52388" lon="-2.74804">
        <ele>15.6</ele>
        <time>2021-08-06T09:35:07Z</time>
      </trkpt>
      <trkpt lat="47.52389" lon="-2.74799">
        <ele>15.6</ele>
        <time>2021-08-06T09:35:08Z</time>
      </trkpt>
      <trkpt lat="47.52391" lon="-2.74794">
        <ele>15.6</ele>
        <time>2021-08-06T09:35:09Z</time>
      </trkpt>
      <trkpt lat="47.52393" lon="-2.74788">
        <ele>15.6</ele>
        <time>2021-08-06T09:35:10Z</time>
      </trkpt>
      <trkpt lat="47.52395" lon="-2.74782">
        <ele>15.6</ele>
        <time>2021-08-06T09:35:11Z</time>
      </trkpt>
      <trkpt lat="47.52398" lon="-2.74775">
        <ele>15.6</ele>
        <time>2021-08-06T09:35:12Z</time>
      </trkpt>
      <trkpt lat="47.52401" lon="-2.74769">
        <ele>15.8</ele>
        <time>2021-08-06T09:35:13Z</time>
      </trkpt>
      <trkpt lat="47.52403" lon="-2.74764">
        <ele>15.8</ele>
        <time>2021-08-06T09:35:14Z</time>
      </trkpt>
      <trkpt lat="47.52406" lon="-2.74758">
        <ele>15.8</ele>
        <time>2021-08-06T09:35:15Z</time>
      </trkpt>
      <trkpt lat="47.52407" lon="-2.74753">
        <ele>15.8</ele>
        <time>2021-08-06T09:35:16Z</time>
      </trkpt>
      <trkpt lat="47.5241" lon="-2.74747">
        <ele>15.8</ele>
        <time>2021-08-06T09:35:17Z</time>
      </trkpt>
      <trkpt lat="47.52412" lon="-2.74741">
        <ele>15.8</ele>
        <time>2021-08-06T09:35:18Z</time>
      </trkpt>
      <trkpt lat="47.52414" lon="-2.74735">
        <ele>15.8</ele>
        <time>2021-08-06T09:35:19Z</time>
      </trkpt>
      <trkpt lat="47.52417" lon="-2.74729">
        <ele>15.8</ele>
        <time>2021-08-06T09:35:20Z</time>
      </trkpt>
      <trkpt lat="47.52419" lon="-2.74723">
        <ele>15.6</ele>
        <time>2021-08-06T09:35:21Z</time>
      </trkpt>
      <trkpt lat="47.52421" lon="-2.74718">
        <ele>15.6</ele>
        <time>2021-08-06T09:35:22Z</time>
      </trkpt>
      <trkpt lat="47.52423" lon="-2.74712">
        <ele>15.4</ele>
        <time>2021-08-06T09:35:23Z</time>
      </trkpt>
      <trkpt lat="47.52427" lon="-2.74706">
        <ele>15.4</ele>
        <time>2021-08-06T09:35:24Z</time>
      </trkpt>
      <trkpt lat="47.52429" lon="-2.74701">
        <ele>15.4</ele>
        <time>2021-08-06T09:35:25Z</time>
      </trkpt>
      <trkpt lat="47.52433" lon="-2.74695">
        <ele>15.4</ele>
        <time>2021-08-06T09:35:26Z</time>
      </trkpt>
      <trkpt lat="47.52435" lon="-2.7469">
        <ele>15.4</ele>
        <time>2021-08-06T09:35:27Z</time>
      </trkpt>
      <trkpt lat="47.52438" lon="-2.74685">
        <ele>15.4</ele>
        <time>2021-08-06T09:35:28Z</time>
      </trkpt>
      <trkpt lat="47.5244" lon="-2.74679">
        <ele>15.4</ele>
        <time>2021-08-06T09:35:29Z</time>
      </trkpt>
      <trkpt lat="47.52443" lon="-2.74674">
        <ele>15.4</ele>
        <time>2021-08-06T09:35:30Z</time>
      </trkpt>
      <trkpt lat="47.52445" lon="-2.74669">
        <ele>15.4</ele>
        <time>2021-08-06T09:35:31Z</time>
      </trkpt>
      <trkpt lat="47.52447" lon="-2.74664">
        <ele>15.6</ele>
        <time>2021-08-06T09:35:32Z</time>
      </trkpt>
      <trkpt lat="47.5245" lon="-2.74659">
        <ele>15.6</ele>
        <time>2021-08-06T09:35:33Z</time>
      </trkpt>
      <trkpt lat="47.52451" lon="-2.74655">
        <ele>15.8</ele>
        <time>2021-08-06T09:35:34Z</time>
      </trkpt>
      <trkpt lat="47.52454" lon="-2.7465">
        <ele>15.8</ele>
        <time>2021-08-06T09:35:35Z</time>
      </trkpt>
      <trkpt lat="47.52456" lon="-2.74646">
        <ele>16</ele>
        <time>2021-08-06T09:35:36Z</time>
      </trkpt>
      <trkpt lat="47.52458" lon="-2.74642">
        <ele>16</ele>
        <time>2021-08-06T09:35:37Z</time>
      </trkpt>
      <trkpt lat="47.52459" lon="-2.74638">
        <ele>16</ele>
        <time>2021-08-06T09:35:38Z</time>
      </trkpt>
      <trkpt lat="47.52463" lon="-2.74628">
        <ele>16</ele>
        <time>2021-08-06T09:35:39Z</time>
      </trkpt>
      <trkpt lat="47.52466" lon="-2.74622">
        <ele>16</ele>
        <time>2021-08-06T09:35:40Z</time>
      </trkpt>
      <trkpt lat="47.52467" lon="-2.74619">
        <ele>16</ele>
        <time>2021-08-06T09:35:41Z</time>
      </trkpt>
      <trkpt lat="47.52469" lon="-2.74614">
        <ele>16</ele>
        <time>2021-08-06T09:35:42Z</time>
      </trkpt>
      <trkpt lat="47.52471" lon="-2.74609">
        <ele>16.2</ele>
        <time>2021-08-06T09:35:43Z</time>
      </trkpt>
      <trkpt lat="47.52475" lon="-2.74604">
        <ele>16.2</ele>
        <time>2021-08-06T09:35:44Z</time>
      </trkpt>
      <trkpt lat="47.52477" lon="-2.74599">
        <ele>16.2</ele>
        <time>2021-08-06T09:35:45Z</time>
      </trkpt>
      <trkpt lat="47.52481" lon="-2.74594">
        <ele>16.2</ele>
        <time>2021-08-06T09:35:46Z</time>
      </trkpt>
      <trkpt lat="47.52484" lon="-2.7459">
        <ele>16.2</ele>
        <time>2021-08-06T09:35:47Z</time>
      </trkpt>
      <trkpt lat="47.52487" lon="-2.74585">
        <ele>16.2</ele>
        <time>2021-08-06T09:35:48Z</time>
      </trkpt>
      <trkpt lat="47.5249" lon="-2.74579">
        <ele>16.2</ele>
        <time>2021-08-06T09:35:49Z</time>
      </trkpt>
      <trkpt lat="47.52495" lon="-2.74572">
        <ele>16.2</ele>
        <time>2021-08-06T09:35:50Z</time>
      </trkpt>
      <trkpt lat="47.52498" lon="-2.74566">
        <ele>16.2</ele>
        <time>2021-08-06T09:35:51Z</time>
      </trkpt>
      <trkpt lat="47.52501" lon="-2.7456">
        <ele>16.2</ele>
        <time>2021-08-06T09:35:52Z</time>
      </trkpt>
      <trkpt lat="47.52505" lon="-2.74555">
        <ele>16.4</ele>
        <time>2021-08-06T09:35:53Z</time>
      </trkpt>
      <trkpt lat="47.52508" lon="-2.74549">
        <ele>16.4</ele>
        <time>2021-08-06T09:35:54Z</time>
      </trkpt>
      <trkpt lat="47.52509" lon="-2.74545">
        <ele>16.4</ele>
        <time>2021-08-06T09:35:55Z</time>
      </trkpt>
      <trkpt lat="47.52511" lon="-2.74541">
        <ele>16.4</ele>
        <time>2021-08-06T09:35:56Z</time>
      </trkpt>
      <trkpt lat="47.52513" lon="-2.74536">
        <ele>16.4</ele>
        <time>2021-08-06T09:35:57Z</time>
      </trkpt>
      <trkpt lat="47.52516" lon="-2.74531">
        <ele>16.4</ele>
        <time>2021-08-06T09:35:58Z</time>
      </trkpt>
      <trkpt lat="47.52518" lon="-2.74525">
        <ele>16.4</ele>
        <time>2021-08-06T09:35:59Z</time>
      </trkpt>
      <trkpt lat="47.52521" lon="-2.7452">
        <ele>16.6</ele>
        <time>2021-08-06T09:36:00Z</time>
      </trkpt>
      <trkpt lat="47.52524" lon="-2.74514">
        <ele>16.6</ele>
        <time>2021-08-06T09:36:01Z</time>
      </trkpt>
      <trkpt lat="47.52527" lon="-2.74509">
        <ele>16.8</ele>
        <time>2021-08-06T09:36:02Z</time>
      </trkpt>
      <trkpt lat="47.52531" lon="-2.74503">
        <ele>16.8</ele>
        <time>2021-08-06T09:36:03Z</time>
      </trkpt>
      <trkpt lat="47.52534" lon="-2.74498">
        <ele>16.8</ele>
        <time>2021-08-06T09:36:04Z</time>
      </trkpt>
      <trkpt lat="47.52537" lon="-2.74493">
        <ele>16.8</ele>
        <time>2021-08-06T09:36:05Z</time>
      </trkpt>
      <trkpt lat="47.52539" lon="-2.74488">
        <ele>17</ele>
        <time>2021-08-06T09:36:06Z</time>
      </trkpt>
      <trkpt lat="47.52542" lon="-2.74484">
        <ele>17</ele>
        <time>2021-08-06T09:36:07Z</time>
      </trkpt>
      <trkpt lat="47.52545" lon="-2.74479">
        <ele>17</ele>
        <time>2021-08-06T09:36:08Z</time>
      </trkpt>
      <trkpt lat="47.52548" lon="-2.74474">
        <ele>17</ele>
        <time>2021-08-06T09:36:09Z</time>
      </trkpt>
      <trkpt lat="47.52551" lon="-2.7447">
        <ele>17</ele>
        <time>2021-08-06T09:36:10Z</time>
      </trkpt>
      <trkpt lat="47.52554" lon="-2.74467">
        <ele>17</ele>
        <time>2021-08-06T09:36:11Z</time>
      </trkpt>
      <trkpt lat="47.52557" lon="-2.74464">
        <ele>17</ele>
        <time>2021-08-06T09:36:12Z</time>
      </trkpt>
      <trkpt lat="47.52559" lon="-2.74461">
        <ele>17</ele>
        <time>2021-08-06T09:36:13Z</time>
      </trkpt>
      <trkpt lat="47.52561" lon="-2.74458">
        <ele>17</ele>
        <time>2021-08-06T09:36:14Z</time>
      </trkpt>
      <trkpt lat="47.52562" lon="-2.74456">
        <ele>17</ele>
        <time>2021-08-06T09:36:15Z</time>
      </trkpt>
      <trkpt lat="47.52563" lon="-2.74454">
        <ele>17</ele>
        <time>2021-08-06T09:36:16Z</time>
      </trkpt>
      <trkpt lat="47.52564" lon="-2.74454">
        <ele>17.2</ele>
        <time>2021-08-06T09:36:17Z</time>
      </trkpt>
      <trkpt lat="47.52567" lon="-2.74451">
        <ele>17.8</ele>
        <time>2021-08-06T09:36:25Z</time>
      </trkpt>
      <trkpt lat="47.52567" lon="-2.7445">
        <ele>17.8</ele>
        <time>2021-08-06T09:36:26Z</time>
      </trkpt>
      <trkpt lat="47.52568" lon="-2.74449">
        <ele>17.8</ele>
        <time>2021-08-06T09:36:27Z</time>
      </trkpt>
      <trkpt lat="47.52568" lon="-2.74447">
        <ele>17.8</ele>
        <time>2021-08-06T09:36:28Z</time>
      </trkpt>
      <trkpt lat="47.52569" lon="-2.74445">
        <ele>17.8</ele>
        <time>2021-08-06T09:36:29Z</time>
      </trkpt>
      <trkpt lat="47.52569" lon="-2.74442">
        <ele>17.8</ele>
        <time>2021-08-06T09:36:30Z</time>
      </trkpt>
      <trkpt lat="47.5257" lon="-2.74439">
        <ele>17.8</ele>
        <time>2021-08-06T09:36:31Z</time>
      </trkpt>
      <trkpt lat="47.52573" lon="-2.74437">
        <ele>17.8</ele>
        <time>2021-08-06T09:36:32Z</time>
      </trkpt>
      <trkpt lat="47.52575" lon="-2.74435">
        <ele>17.8</ele>
        <time>2021-08-06T09:36:33Z</time>
      </trkpt>
      <trkpt lat="47.52578" lon="-2.74432">
        <ele>17.8</ele>
        <time>2021-08-06T09:36:34Z</time>
      </trkpt>
      <trkpt lat="47.52578" lon="-2.74429">
        <ele>17.8</ele>
        <time>2021-08-06T09:36:35Z</time>
      </trkpt>
      <trkpt lat="47.52578" lon="-2.74426">
        <ele>17.8</ele>
        <time>2021-08-06T09:36:36Z</time>
      </trkpt>
      <trkpt lat="47.52578" lon="-2.74423">
        <ele>17.8</ele>
        <time>2021-08-06T09:36:37Z</time>
      </trkpt>
      <trkpt lat="47.52579" lon="-2.74419">
        <ele>17.8</ele>
        <time>2021-08-06T09:36:38Z</time>
      </trkpt>
      <trkpt lat="47.5258" lon="-2.74416">
        <ele>17.8</ele>
        <time>2021-08-06T09:36:39Z</time>
      </trkpt>
      <trkpt lat="47.52581" lon="-2.74412">
        <ele>17.8</ele>
        <time>2021-08-06T09:36:40Z</time>
      </trkpt>
      <trkpt lat="47.52582" lon="-2.74409">
        <ele>17.8</ele>
        <time>2021-08-06T09:36:41Z</time>
      </trkpt>
      <trkpt lat="47.52583" lon="-2.74406">
        <ele>17.8</ele>
        <time>2021-08-06T09:36:42Z</time>
      </trkpt>
      <trkpt lat="47.52585" lon="-2.74403">
        <ele>17.8</ele>
        <time>2021-08-06T09:36:43Z</time>
      </trkpt>
      <trkpt lat="47.52588" lon="-2.74403">
        <ele>17.8</ele>
        <time>2021-08-06T09:36:44Z</time>
      </trkpt>
      <trkpt lat="47.52591" lon="-2.74403">
        <ele>17.8</ele>
        <time>2021-08-06T09:36:45Z</time>
      </trkpt>
      <trkpt lat="47.52594" lon="-2.74404">
        <ele>17.8</ele>
        <time>2021-08-06T09:36:46Z</time>
      </trkpt>
      <trkpt lat="47.52597" lon="-2.74404">
        <ele>18</ele>
        <time>2021-08-06T09:36:47Z</time>
      </trkpt>
      <trkpt lat="47.526" lon="-2.74404">
        <ele>18</ele>
        <time>2021-08-06T09:36:48Z</time>
      </trkpt>
      <trkpt lat="47.52603" lon="-2.74404">
        <ele>18.2</ele>
        <time>2021-08-06T09:36:49Z</time>
      </trkpt>
      <trkpt lat="47.52607" lon="-2.74404">
        <ele>18.2</ele>
        <time>2021-08-06T09:36:50Z</time>
      </trkpt>
      <trkpt lat="47.5261" lon="-2.74404">
        <ele>18.2</ele>
        <time>2021-08-06T09:36:51Z</time>
      </trkpt>
      <trkpt lat="47.52613" lon="-2.74405">
        <ele>18.2</ele>
        <time>2021-08-06T09:36:52Z</time>
      </trkpt>
      <trkpt lat="47.52617" lon="-2.74406">
        <ele>18.2</ele>
        <time>2021-08-06T09:36:53Z</time>
      </trkpt>
      <trkpt lat="47.5262" lon="-2.74407">
        <ele>18.2</ele>
        <time>2021-08-06T09:36:54Z</time>
      </trkpt>
      <trkpt lat="47.52624" lon="-2.74408">
        <ele>18.2</ele>
        <time>2021-08-06T09:36:55Z</time>
      </trkpt>
      <trkpt lat="47.52627" lon="-2.74407">
        <ele>18.2</ele>
        <time>2021-08-06T09:36:56Z</time>
      </trkpt>
      <trkpt lat="47.5263" lon="-2.74408">
        <ele>18.2</ele>
        <time>2021-08-06T09:36:57Z</time>
      </trkpt>
      <trkpt lat="47.52633" lon="-2.74409">
        <ele>18.2</ele>
        <time>2021-08-06T09:36:58Z</time>
      </trkpt>
      <trkpt lat="47.52637" lon="-2.74409">
        <ele>18.2</ele>
        <time>2021-08-06T09:36:59Z</time>
      </trkpt>
      <trkpt lat="47.5264" lon="-2.7441">
        <ele>18.4</ele>
        <time>2021-08-06T09:37:00Z</time>
      </trkpt>
      <trkpt lat="47.52644" lon="-2.7441">
        <ele>18.4</ele>
        <time>2021-08-06T09:37:01Z</time>
      </trkpt>
      <trkpt lat="47.52647" lon="-2.7441">
        <ele>18.4</ele>
        <time>2021-08-06T09:37:02Z</time>
      </trkpt>
      <trkpt lat="47.5265" lon="-2.74409">
        <ele>18.4</ele>
        <time>2021-08-06T09:37:03Z</time>
      </trkpt>
      <trkpt lat="47.52654" lon="-2.74408">
        <ele>18.4</ele>
        <time>2021-08-06T09:37:04Z</time>
      </trkpt>
      <trkpt lat="47.52658" lon="-2.74406">
        <ele>18.4</ele>
        <time>2021-08-06T09:37:05Z</time>
      </trkpt>
      <trkpt lat="47.52663" lon="-2.74404">
        <ele>18.4</ele>
        <time>2021-08-06T09:37:06Z</time>
      </trkpt>
      <trkpt lat="47.52667" lon="-2.74403">
        <ele>18.4</ele>
        <time>2021-08-06T09:37:07Z</time>
      </trkpt>
      <trkpt lat="47.52671" lon="-2.74401">
        <ele>18.2</ele>
        <time>2021-08-06T09:37:08Z</time>
      </trkpt>
      <trkpt lat="47.52674" lon="-2.744">
        <ele>18.2</ele>
        <time>2021-08-06T09:37:09Z</time>
      </trkpt>
      <trkpt lat="47.52677" lon="-2.74399">
        <ele>18.2</ele>
        <time>2021-08-06T09:37:10Z</time>
      </trkpt>
      <trkpt lat="47.5268" lon="-2.74398">
        <ele>18.2</ele>
        <time>2021-08-06T09:37:11Z</time>
      </trkpt>
      <trkpt lat="47.52684" lon="-2.74398">
        <ele>18.2</ele>
        <time>2021-08-06T09:37:12Z</time>
      </trkpt>
      <trkpt lat="47.52687" lon="-2.74398">
        <ele>18.2</ele>
        <time>2021-08-06T09:37:13Z</time>
      </trkpt>
      <trkpt lat="47.5269" lon="-2.74397">
        <ele>18.2</ele>
        <time>2021-08-06T09:37:14Z</time>
      </trkpt>
      <trkpt lat="47.52692" lon="-2.74395">
        <ele>18.2</ele>
        <time>2021-08-06T09:37:15Z</time>
      </trkpt>
      <trkpt lat="47.52695" lon="-2.74392">
        <ele>18.2</ele>
        <time>2021-08-06T09:37:16Z</time>
      </trkpt>
      <trkpt lat="47.52698" lon="-2.7439">
        <ele>18.2</ele>
        <time>2021-08-06T09:37:17Z</time>
      </trkpt>
      <trkpt lat="47.52701" lon="-2.74388">
        <ele>18.2</ele>
        <time>2021-08-06T09:37:18Z</time>
      </trkpt>
      <trkpt lat="47.52705" lon="-2.74385">
        <ele>18.2</ele>
        <time>2021-08-06T09:37:19Z</time>
      </trkpt>
      <trkpt lat="47.52708" lon="-2.74384">
        <ele>18.2</ele>
        <time>2021-08-06T09:37:20Z</time>
      </trkpt>
      <trkpt lat="47.52711" lon="-2.74382">
        <ele>18.2</ele>
        <time>2021-08-06T09:37:21Z</time>
      </trkpt>
      <trkpt lat="47.52714" lon="-2.7438">
        <ele>18.2</ele>
        <time>2021-08-06T09:37:22Z</time>
      </trkpt>
      <trkpt lat="47.52718" lon="-2.74379">
        <ele>18.2</ele>
        <time>2021-08-06T09:37:23Z</time>
      </trkpt>
      <trkpt lat="47.52721" lon="-2.74376">
        <ele>18.2</ele>
        <time>2021-08-06T09:37:24Z</time>
      </trkpt>
      <trkpt lat="47.52725" lon="-2.74374">
        <ele>18.2</ele>
        <time>2021-08-06T09:37:25Z</time>
      </trkpt>
      <trkpt lat="47.52729" lon="-2.74372">
        <ele>18.2</ele>
        <time>2021-08-06T09:37:26Z</time>
      </trkpt>
      <trkpt lat="47.52733" lon="-2.7437">
        <ele>18.2</ele>
        <time>2021-08-06T09:37:27Z</time>
      </trkpt>
      <trkpt lat="47.52736" lon="-2.74368">
        <ele>18.2</ele>
        <time>2021-08-06T09:37:28Z</time>
      </trkpt>
      <trkpt lat="47.5274" lon="-2.74366">
        <ele>18.2</ele>
        <time>2021-08-06T09:37:29Z</time>
      </trkpt>
      <trkpt lat="47.52743" lon="-2.74364">
        <ele>18.2</ele>
        <time>2021-08-06T09:37:30Z</time>
      </trkpt>
      <trkpt lat="47.52747" lon="-2.74362">
        <ele>18.2</ele>
        <time>2021-08-06T09:37:31Z</time>
      </trkpt>
      <trkpt lat="47.52751" lon="-2.74359">
        <ele>18.2</ele>
        <time>2021-08-06T09:37:32Z</time>
      </trkpt>
      <trkpt lat="47.52755" lon="-2.74356">
        <ele>18.2</ele>
        <time>2021-08-06T09:37:33Z</time>
      </trkpt>
      <trkpt lat="47.52759" lon="-2.74354">
        <ele>18.2</ele>
        <time>2021-08-06T09:37:34Z</time>
      </trkpt>
      <trkpt lat="47.52762" lon="-2.74352">
        <ele>18.2</ele>
        <time>2021-08-06T09:37:35Z</time>
      </trkpt>
      <trkpt lat="47.52766" lon="-2.7435">
        <ele>18.2</ele>
        <time>2021-08-06T09:37:36Z</time>
      </trkpt>
      <trkpt lat="47.5277" lon="-2.74347">
        <ele>18.2</ele>
        <time>2021-08-06T09:37:37Z</time>
      </trkpt>
      <trkpt lat="47.52773" lon="-2.74344">
        <ele>18.2</ele>
        <time>2021-08-06T09:37:38Z</time>
      </trkpt>
      <trkpt lat="47.52777" lon="-2.74341">
        <ele>18.2</ele>
        <time>2021-08-06T09:37:39Z</time>
      </trkpt>
      <trkpt lat="47.52781" lon="-2.74338">
        <ele>18.2</ele>
        <time>2021-08-06T09:37:40Z</time>
      </trkpt>
      <trkpt lat="47.52784" lon="-2.74336">
        <ele>18.2</ele>
        <time>2021-08-06T09:37:41Z</time>
      </trkpt>
      <trkpt lat="47.52788" lon="-2.74334">
        <ele>18.2</ele>
        <time>2021-08-06T09:37:42Z</time>
      </trkpt>
      <trkpt lat="47.52792" lon="-2.74331">
        <ele>18.4</ele>
        <time>2021-08-06T09:37:43Z</time>
      </trkpt>
      <trkpt lat="47.52796" lon="-2.74329">
        <ele>18.4</ele>
        <time>2021-08-06T09:37:44Z</time>
      </trkpt>
      <trkpt lat="47.528" lon="-2.74326">
        <ele>18.4</ele>
        <time>2021-08-06T09:37:45Z</time>
      </trkpt>
      <trkpt lat="47.52804" lon="-2.74324">
        <ele>18.4</ele>
        <time>2021-08-06T09:37:46Z</time>
      </trkpt>
      <trkpt lat="47.52808" lon="-2.74321">
        <ele>18.4</ele>
        <time>2021-08-06T09:37:47Z</time>
      </trkpt>
      <trkpt lat="47.52812" lon="-2.74319">
        <ele>18.4</ele>
        <time>2021-08-06T09:37:48Z</time>
      </trkpt>
      <trkpt lat="47.52816" lon="-2.74316">
        <ele>18.4</ele>
        <time>2021-08-06T09:37:49Z</time>
      </trkpt>
      <trkpt lat="47.52819" lon="-2.74314">
        <ele>18.4</ele>
        <time>2021-08-06T09:37:50Z</time>
      </trkpt>
      <trkpt lat="47.52822" lon="-2.74311">
        <ele>18.6</ele>
        <time>2021-08-06T09:37:51Z</time>
      </trkpt>
      <trkpt lat="47.52825" lon="-2.74309">
        <ele>18.6</ele>
        <time>2021-08-06T09:37:52Z</time>
      </trkpt>
      <trkpt lat="47.52829" lon="-2.74306">
        <ele>18.6</ele>
        <time>2021-08-06T09:37:53Z</time>
      </trkpt>
      <trkpt lat="47.52832" lon="-2.74304">
        <ele>18.8</ele>
        <time>2021-08-06T09:37:54Z</time>
      </trkpt>
      <trkpt lat="47.52835" lon="-2.74302">
        <ele>18.8</ele>
        <time>2021-08-06T09:37:55Z</time>
      </trkpt>
      <trkpt lat="47.52837" lon="-2.743">
        <ele>18.8</ele>
        <time>2021-08-06T09:37:56Z</time>
      </trkpt>
      <trkpt lat="47.5284" lon="-2.74298">
        <ele>19</ele>
        <time>2021-08-06T09:37:57Z</time>
      </trkpt>
      <trkpt lat="47.52843" lon="-2.74295">
        <ele>19</ele>
        <time>2021-08-06T09:37:58Z</time>
      </trkpt>
      <trkpt lat="47.52846" lon="-2.74293">
        <ele>19</ele>
        <time>2021-08-06T09:37:59Z</time>
      </trkpt>
      <trkpt lat="47.52849" lon="-2.74291">
        <ele>19</ele>
        <time>2021-08-06T09:38:00Z</time>
      </trkpt>
      <trkpt lat="47.52852" lon="-2.74288">
        <ele>19</ele>
        <time>2021-08-06T09:38:01Z</time>
      </trkpt>
      <trkpt lat="47.52856" lon="-2.74286">
        <ele>19</ele>
        <time>2021-08-06T09:38:02Z</time>
      </trkpt>
      <trkpt lat="47.52859" lon="-2.74283">
        <ele>19</ele>
        <time>2021-08-06T09:38:03Z</time>
      </trkpt>
      <trkpt lat="47.52863" lon="-2.7428">
        <ele>19</ele>
        <time>2021-08-06T09:38:04Z</time>
      </trkpt>
      <trkpt lat="47.52867" lon="-2.74276">
        <ele>19</ele>
        <time>2021-08-06T09:38:05Z</time>
      </trkpt>
      <trkpt lat="47.52871" lon="-2.74273">
        <ele>19</ele>
        <time>2021-08-06T09:38:06Z</time>
      </trkpt>
      <trkpt lat="47.52874" lon="-2.7427">
        <ele>18.8</ele>
        <time>2021-08-06T09:38:07Z</time>
      </trkpt>
      <trkpt lat="47.52877" lon="-2.74267">
        <ele>18.8</ele>
        <time>2021-08-06T09:38:08Z</time>
      </trkpt>
      <trkpt lat="47.52881" lon="-2.74263">
        <ele>18.8</ele>
        <time>2021-08-06T09:38:09Z</time>
      </trkpt>
      <trkpt lat="47.52884" lon="-2.74259">
        <ele>18.8</ele>
        <time>2021-08-06T09:38:10Z</time>
      </trkpt>
      <trkpt lat="47.52888" lon="-2.74256">
        <ele>18.8</ele>
        <time>2021-08-06T09:38:11Z</time>
      </trkpt>
      <trkpt lat="47.52891" lon="-2.74253">
        <ele>18.8</ele>
        <time>2021-08-06T09:38:12Z</time>
      </trkpt>
      <trkpt lat="47.52894" lon="-2.7425">
        <ele>18.8</ele>
        <time>2021-08-06T09:38:13Z</time>
      </trkpt>
      <trkpt lat="47.52897" lon="-2.74247">
        <ele>18.8</ele>
        <time>2021-08-06T09:38:14Z</time>
      </trkpt>
      <trkpt lat="47.529" lon="-2.74244">
        <ele>18.8</ele>
        <time>2021-08-06T09:38:15Z</time>
      </trkpt>
      <trkpt lat="47.52904" lon="-2.7424">
        <ele>18.8</ele>
        <time>2021-08-06T09:38:16Z</time>
      </trkpt>
      <trkpt lat="47.52909" lon="-2.74236">
        <ele>18.8</ele>
        <time>2021-08-06T09:38:17Z</time>
      </trkpt>
      <trkpt lat="47.52913" lon="-2.74231">
        <ele>18.8</ele>
        <time>2021-08-06T09:38:18Z</time>
      </trkpt>
      <trkpt lat="47.52916" lon="-2.74227">
        <ele>18.8</ele>
        <time>2021-08-06T09:38:19Z</time>
      </trkpt>
      <trkpt lat="47.5292" lon="-2.74222">
        <ele>18.8</ele>
        <time>2021-08-06T09:38:20Z</time>
      </trkpt>
      <trkpt lat="47.52923" lon="-2.74218">
        <ele>18.6</ele>
        <time>2021-08-06T09:38:21Z</time>
      </trkpt>
      <trkpt lat="47.52926" lon="-2.74213">
        <ele>18.6</ele>
        <time>2021-08-06T09:38:22Z</time>
      </trkpt>
      <trkpt lat="47.52929" lon="-2.74209">
        <ele>18.6</ele>
        <time>2021-08-06T09:38:23Z</time>
      </trkpt>
      <trkpt lat="47.52932" lon="-2.74205">
        <ele>18.6</ele>
        <time>2021-08-06T09:38:24Z</time>
      </trkpt>
      <trkpt lat="47.52935" lon="-2.74201">
        <ele>18.4</ele>
        <time>2021-08-06T09:38:25Z</time>
      </trkpt>
      <trkpt lat="47.52938" lon="-2.74196">
        <ele>18.4</ele>
        <time>2021-08-06T09:38:26Z</time>
      </trkpt>
      <trkpt lat="47.52941" lon="-2.74192">
        <ele>18.2</ele>
        <time>2021-08-06T09:38:27Z</time>
      </trkpt>
      <trkpt lat="47.52945" lon="-2.74188">
        <ele>18.2</ele>
        <time>2021-08-06T09:38:28Z</time>
      </trkpt>
      <trkpt lat="47.52947" lon="-2.74184">
        <ele>18.2</ele>
        <time>2021-08-06T09:38:29Z</time>
      </trkpt>
      <trkpt lat="47.5295" lon="-2.7418">
        <ele>18.2</ele>
        <time>2021-08-06T09:38:30Z</time>
      </trkpt>
      <trkpt lat="47.52952" lon="-2.74176">
        <ele>18.2</ele>
        <time>2021-08-06T09:38:31Z</time>
      </trkpt>
      <trkpt lat="47.52954" lon="-2.74171">
        <ele>18.2</ele>
        <time>2021-08-06T09:38:32Z</time>
      </trkpt>
      <trkpt lat="47.52955" lon="-2.74167">
        <ele>18.2</ele>
        <time>2021-08-06T09:38:33Z</time>
      </trkpt>
      <trkpt lat="47.52958" lon="-2.74162">
        <ele>18.2</ele>
        <time>2021-08-06T09:38:34Z</time>
      </trkpt>
      <trkpt lat="47.52961" lon="-2.74157">
        <ele>18.2</ele>
        <time>2021-08-06T09:38:35Z</time>
      </trkpt>
      <trkpt lat="47.52965" lon="-2.74152">
        <ele>18.2</ele>
        <time>2021-08-06T09:38:36Z</time>
      </trkpt>
      <trkpt lat="47.52968" lon="-2.74147">
        <ele>18</ele>
        <time>2021-08-06T09:38:37Z</time>
      </trkpt>
      <trkpt lat="47.5297" lon="-2.74143">
        <ele>18</ele>
        <time>2021-08-06T09:38:38Z</time>
      </trkpt>
      <trkpt lat="47.52972" lon="-2.74138">
        <ele>18</ele>
        <time>2021-08-06T09:38:39Z</time>
      </trkpt>
      <trkpt lat="47.52974" lon="-2.74133">
        <ele>17.6</ele>
        <time>2021-08-06T09:38:40Z</time>
      </trkpt>
      <trkpt lat="47.52976" lon="-2.74129">
        <ele>17.6</ele>
        <time>2021-08-06T09:38:41Z</time>
      </trkpt>
      <trkpt lat="47.52977" lon="-2.74125">
        <ele>17.6</ele>
        <time>2021-08-06T09:38:42Z</time>
      </trkpt>
      <trkpt lat="47.52978" lon="-2.7412">
        <ele>17.6</ele>
        <time>2021-08-06T09:38:43Z</time>
      </trkpt>
      <trkpt lat="47.5298" lon="-2.74115">
        <ele>17.8</ele>
        <time>2021-08-06T09:38:44Z</time>
      </trkpt>
      <trkpt lat="47.52982" lon="-2.74111">
        <ele>17.4</ele>
        <time>2021-08-06T09:38:45Z</time>
      </trkpt>
      <trkpt lat="47.52983" lon="-2.74106">
        <ele>17.4</ele>
        <time>2021-08-06T09:38:46Z</time>
      </trkpt>
      <trkpt lat="47.52984" lon="-2.74101">
        <ele>17.4</ele>
        <time>2021-08-06T09:38:47Z</time>
      </trkpt>
      <trkpt lat="47.52986" lon="-2.74096">
        <ele>17.2</ele>
        <time>2021-08-06T09:38:48Z</time>
      </trkpt>
      <trkpt lat="47.52988" lon="-2.7409">
        <ele>17.2</ele>
        <time>2021-08-06T09:38:49Z</time>
      </trkpt>
      <trkpt lat="47.5299" lon="-2.74085">
        <ele>17.2</ele>
        <time>2021-08-06T09:38:50Z</time>
      </trkpt>
      <trkpt lat="47.52991" lon="-2.7408">
        <ele>17.2</ele>
        <time>2021-08-06T09:38:51Z</time>
      </trkpt>
      <trkpt lat="47.52992" lon="-2.74074">
        <ele>17.2</ele>
        <time>2021-08-06T09:38:52Z</time>
      </trkpt>
      <trkpt lat="47.52994" lon="-2.74069">
        <ele>17.2</ele>
        <time>2021-08-06T09:38:53Z</time>
      </trkpt>
      <trkpt lat="47.52994" lon="-2.74064">
        <ele>17</ele>
        <time>2021-08-06T09:38:54Z</time>
      </trkpt>
      <trkpt lat="47.52998" lon="-2.74059">
        <ele>17</ele>
        <time>2021-08-06T09:38:55Z</time>
      </trkpt>
      <trkpt lat="47.53" lon="-2.74055">
        <ele>17</ele>
        <time>2021-08-06T09:38:56Z</time>
      </trkpt>
      <trkpt lat="47.53002" lon="-2.74051">
        <ele>17</ele>
        <time>2021-08-06T09:38:57Z</time>
      </trkpt>
      <trkpt lat="47.53003" lon="-2.74046">
        <ele>17</ele>
        <time>2021-08-06T09:38:58Z</time>
      </trkpt>
      <trkpt lat="47.53004" lon="-2.74041">
        <ele>17</ele>
        <time>2021-08-06T09:38:59Z</time>
      </trkpt>
      <trkpt lat="47.53006" lon="-2.74036">
        <ele>16.8</ele>
        <time>2021-08-06T09:39:00Z</time>
      </trkpt>
      <trkpt lat="47.53009" lon="-2.74031">
        <ele>16.8</ele>
        <time>2021-08-06T09:39:01Z</time>
      </trkpt>
      <trkpt lat="47.53011" lon="-2.74026">
        <ele>16.8</ele>
        <time>2021-08-06T09:39:02Z</time>
      </trkpt>
      <trkpt lat="47.53014" lon="-2.74021">
        <ele>16.8</ele>
        <time>2021-08-06T09:39:03Z</time>
      </trkpt>
      <trkpt lat="47.53017" lon="-2.74017">
        <ele>16.8</ele>
        <time>2021-08-06T09:39:04Z</time>
      </trkpt>
      <trkpt lat="47.53018" lon="-2.74013">
        <ele>16.8</ele>
        <time>2021-08-06T09:39:05Z</time>
      </trkpt>
      <trkpt lat="47.53021" lon="-2.74008">
        <ele>16.8</ele>
        <time>2021-08-06T09:39:06Z</time>
      </trkpt>
      <trkpt lat="47.53023" lon="-2.74002">
        <ele>16.8</ele>
        <time>2021-08-06T09:39:07Z</time>
      </trkpt>
      <trkpt lat="47.53025" lon="-2.73997">
        <ele>16.8</ele>
        <time>2021-08-06T09:39:08Z</time>
      </trkpt>
      <trkpt lat="47.53028" lon="-2.73992">
        <ele>16.8</ele>
        <time>2021-08-06T09:39:09Z</time>
      </trkpt>
      <trkpt lat="47.53031" lon="-2.73988">
        <ele>16.8</ele>
        <time>2021-08-06T09:39:10Z</time>
      </trkpt>
      <trkpt lat="47.53034" lon="-2.73983">
        <ele>16.8</ele>
        <time>2021-08-06T09:39:11Z</time>
      </trkpt>
      <trkpt lat="47.53036" lon="-2.73977">
        <ele>16.8</ele>
        <time>2021-08-06T09:39:12Z</time>
      </trkpt>
      <trkpt lat="47.53037" lon="-2.73971">
        <ele>16.8</ele>
        <time>2021-08-06T09:39:13Z</time>
      </trkpt>
      <trkpt lat="47.53039" lon="-2.73964">
        <ele>16.8</ele>
        <time>2021-08-06T09:39:14Z</time>
      </trkpt>
      <trkpt lat="47.5304" lon="-2.73958">
        <ele>16.8</ele>
        <time>2021-08-06T09:39:15Z</time>
      </trkpt>
      <trkpt lat="47.53041" lon="-2.73953">
        <ele>16.8</ele>
        <time>2021-08-06T09:39:16Z</time>
      </trkpt>
      <trkpt lat="47.53043" lon="-2.73949">
        <ele>17</ele>
        <time>2021-08-06T09:39:17Z</time>
      </trkpt>
      <trkpt lat="47.53042" lon="-2.73944">
        <ele>17</ele>
        <time>2021-08-06T09:39:18Z</time>
      </trkpt>
      <trkpt lat="47.53043" lon="-2.7394">
        <ele>17</ele>
        <time>2021-08-06T09:39:19Z</time>
      </trkpt>
      <trkpt lat="47.53044" lon="-2.73936">
        <ele>17</ele>
        <time>2021-08-06T09:39:20Z</time>
      </trkpt>
      <trkpt lat="47.53045" lon="-2.73931">
        <ele>17</ele>
        <time>2021-08-06T09:39:21Z</time>
      </trkpt>
      <trkpt lat="47.53045" lon="-2.73926">
        <ele>17</ele>
        <time>2021-08-06T09:39:22Z</time>
      </trkpt>
      <trkpt lat="47.53046" lon="-2.73922">
        <ele>17</ele>
        <time>2021-08-06T09:39:23Z</time>
      </trkpt>
      <trkpt lat="47.53048" lon="-2.73918">
        <ele>17</ele>
        <time>2021-08-06T09:39:24Z</time>
      </trkpt>
      <trkpt lat="47.5305" lon="-2.73912">
        <ele>17</ele>
        <time>2021-08-06T09:39:25Z</time>
      </trkpt>
      <trkpt lat="47.53053" lon="-2.73907">
        <ele>16.8</ele>
        <time>2021-08-06T09:39:26Z</time>
      </trkpt>
      <trkpt lat="47.53056" lon="-2.73901">
        <ele>17</ele>
        <time>2021-08-06T09:39:27Z</time>
      </trkpt>
      <trkpt lat="47.53059" lon="-2.73896">
        <ele>17</ele>
        <time>2021-08-06T09:39:28Z</time>
      </trkpt>
      <trkpt lat="47.5306" lon="-2.73892">
        <ele>17</ele>
        <time>2021-08-06T09:39:29Z</time>
      </trkpt>
      <trkpt lat="47.53063" lon="-2.73888">
        <ele>17</ele>
        <time>2021-08-06T09:39:30Z</time>
      </trkpt>
      <trkpt lat="47.53064" lon="-2.73884">
        <ele>16.8</ele>
        <time>2021-08-06T09:39:31Z</time>
      </trkpt>
      <trkpt lat="47.53065" lon="-2.7388">
        <ele>17</ele>
        <time>2021-08-06T09:39:32Z</time>
      </trkpt>
      <trkpt lat="47.53066" lon="-2.73876">
        <ele>16.8</ele>
        <time>2021-08-06T09:39:33Z</time>
      </trkpt>
      <trkpt lat="47.53067" lon="-2.73872">
        <ele>16.8</ele>
        <time>2021-08-06T09:39:34Z</time>
      </trkpt>
      <trkpt lat="47.53068" lon="-2.73868">
        <ele>16.8</ele>
        <time>2021-08-06T09:39:35Z</time>
      </trkpt>
      <trkpt lat="47.53068" lon="-2.73865">
        <ele>16.8</ele>
        <time>2021-08-06T09:39:36Z</time>
      </trkpt>
      <trkpt lat="47.53069" lon="-2.73861">
        <ele>16.8</ele>
        <time>2021-08-06T09:39:37Z</time>
      </trkpt>
      <trkpt lat="47.53069" lon="-2.73858">
        <ele>16.8</ele>
        <time>2021-08-06T09:39:38Z</time>
      </trkpt>
      <trkpt lat="47.5307" lon="-2.73853">
        <ele>16.8</ele>
        <time>2021-08-06T09:39:39Z</time>
      </trkpt>
      <trkpt lat="47.5307" lon="-2.73849">
        <ele>17</ele>
        <time>2021-08-06T09:39:40Z</time>
      </trkpt>
      <trkpt lat="47.5307" lon="-2.73845">
        <ele>17</ele>
        <time>2021-08-06T09:39:41Z</time>
      </trkpt>
      <trkpt lat="47.5307" lon="-2.73841">
        <ele>17</ele>
        <time>2021-08-06T09:39:42Z</time>
      </trkpt>
      <trkpt lat="47.53071" lon="-2.73836">
        <ele>17</ele>
        <time>2021-08-06T09:39:43Z</time>
      </trkpt>
      <trkpt lat="47.53071" lon="-2.73833">
        <ele>17</ele>
        <time>2021-08-06T09:39:44Z</time>
      </trkpt>
      <trkpt lat="47.53071" lon="-2.73828">
        <ele>17</ele>
        <time>2021-08-06T09:39:45Z</time>
      </trkpt>
      <trkpt lat="47.53072" lon="-2.73823">
        <ele>17</ele>
        <time>2021-08-06T09:39:46Z</time>
      </trkpt>
      <trkpt lat="47.53072" lon="-2.73818">
        <ele>17</ele>
        <time>2021-08-06T09:39:47Z</time>
      </trkpt>
      <trkpt lat="47.53073" lon="-2.73811">
        <ele>17</ele>
        <time>2021-08-06T09:39:48Z</time>
      </trkpt>
      <trkpt lat="47.53075" lon="-2.73807">
        <ele>17</ele>
        <time>2021-08-06T09:39:49Z</time>
      </trkpt>
      <trkpt lat="47.53076" lon="-2.73802">
        <ele>17</ele>
        <time>2021-08-06T09:39:50Z</time>
      </trkpt>
      <trkpt lat="47.53077" lon="-2.73796">
        <ele>17</ele>
        <time>2021-08-06T09:39:51Z</time>
      </trkpt>
      <trkpt lat="47.53078" lon="-2.7379">
        <ele>17.2</ele>
        <time>2021-08-06T09:39:52Z</time>
      </trkpt>
      <trkpt lat="47.53081" lon="-2.73784">
        <ele>17.2</ele>
        <time>2021-08-06T09:39:53Z</time>
      </trkpt>
      <trkpt lat="47.53083" lon="-2.73777">
        <ele>17.2</ele>
        <time>2021-08-06T09:39:54Z</time>
      </trkpt>
      <trkpt lat="47.53085" lon="-2.73772">
        <ele>17.2</ele>
        <time>2021-08-06T09:39:55Z</time>
      </trkpt>
      <trkpt lat="47.53085" lon="-2.73766">
        <ele>17.2</ele>
        <time>2021-08-06T09:39:56Z</time>
      </trkpt>
      <trkpt lat="47.53086" lon="-2.73761">
        <ele>17.4</ele>
        <time>2021-08-06T09:39:57Z</time>
      </trkpt>
      <trkpt lat="47.53087" lon="-2.73755">
        <ele>17.4</ele>
        <time>2021-08-06T09:39:58Z</time>
      </trkpt>
      <trkpt lat="47.5309" lon="-2.73748">
        <ele>17.4</ele>
        <time>2021-08-06T09:39:59Z</time>
      </trkpt>
      <trkpt lat="47.53091" lon="-2.73742">
        <ele>17.4</ele>
        <time>2021-08-06T09:40:00Z</time>
      </trkpt>
      <trkpt lat="47.53095" lon="-2.73735">
        <ele>17.2</ele>
        <time>2021-08-06T09:40:01Z</time>
      </trkpt>
      <trkpt lat="47.53099" lon="-2.73726">
        <ele>17.2</ele>
        <time>2021-08-06T09:40:02Z</time>
      </trkpt>
      <trkpt lat="47.53106" lon="-2.73718">
        <ele>17.2</ele>
        <time>2021-08-06T09:40:03Z</time>
      </trkpt>
      <trkpt lat="47.53109" lon="-2.73713">
        <ele>17.4</ele>
        <time>2021-08-06T09:40:04Z</time>
      </trkpt>
      <trkpt lat="47.53111" lon="-2.73708">
        <ele>17.4</ele>
        <time>2021-08-06T09:40:05Z</time>
      </trkpt>
      <trkpt lat="47.53115" lon="-2.73703">
        <ele>17.4</ele>
        <time>2021-08-06T09:40:06Z</time>
      </trkpt>
      <trkpt lat="47.53117" lon="-2.73698">
        <ele>17.4</ele>
        <time>2021-08-06T09:40:07Z</time>
      </trkpt>
      <trkpt lat="47.5312" lon="-2.73692">
        <ele>17.4</ele>
        <time>2021-08-06T09:40:08Z</time>
      </trkpt>
      <trkpt lat="47.53131" lon="-2.73678">
        <ele>17.4</ele>
        <time>2021-08-06T09:40:09Z</time>
      </trkpt>
      <trkpt lat="47.53132" lon="-2.73672">
        <ele>17.4</ele>
        <time>2021-08-06T09:40:10Z</time>
      </trkpt>
      <trkpt lat="47.53138" lon="-2.73667">
        <ele>17.4</ele>
        <time>2021-08-06T09:40:11Z</time>
      </trkpt>
      <trkpt lat="47.53143" lon="-2.73662">
        <ele>17.4</ele>
        <time>2021-08-06T09:40:12Z</time>
      </trkpt>
      <trkpt lat="47.53143" lon="-2.7365">
        <ele>17.4</ele>
        <time>2021-08-06T09:40:13Z</time>
      </trkpt>
      <trkpt lat="47.53145" lon="-2.73646">
        <ele>17.4</ele>
        <time>2021-08-06T09:40:14Z</time>
      </trkpt>
      <trkpt lat="47.53148" lon="-2.73643">
        <ele>17.4</ele>
        <time>2021-08-06T09:40:15Z</time>
      </trkpt>
      <trkpt lat="47.53152" lon="-2.73638">
        <ele>17.4</ele>
        <time>2021-08-06T09:40:16Z</time>
      </trkpt>
      <trkpt lat="47.53152" lon="-2.73633">
        <ele>17.4</ele>
        <time>2021-08-06T09:40:17Z</time>
      </trkpt>
      <trkpt lat="47.53155" lon="-2.73629">
        <ele>17.6</ele>
        <time>2021-08-06T09:40:18Z</time>
      </trkpt>
      <trkpt lat="47.53156" lon="-2.73623">
        <ele>17.6</ele>
        <time>2021-08-06T09:40:19Z</time>
      </trkpt>
      <trkpt lat="47.53157" lon="-2.73618">
        <ele>17.6</ele>
        <time>2021-08-06T09:40:20Z</time>
      </trkpt>
      <trkpt lat="47.5316" lon="-2.73612">
        <ele>17.6</ele>
        <time>2021-08-06T09:40:21Z</time>
      </trkpt>
      <trkpt lat="47.53163" lon="-2.73607">
        <ele>17.6</ele>
        <time>2021-08-06T09:40:22Z</time>
      </trkpt>
      <trkpt lat="47.53164" lon="-2.73602">
        <ele>17.6</ele>
        <time>2021-08-06T09:40:23Z</time>
      </trkpt>
      <trkpt lat="47.53166" lon="-2.73598">
        <ele>17.8</ele>
        <time>2021-08-06T09:40:24Z</time>
      </trkpt>
      <trkpt lat="47.53168" lon="-2.73594">
        <ele>17.8</ele>
        <time>2021-08-06T09:40:25Z</time>
      </trkpt>
      <trkpt lat="47.53169" lon="-2.73589">
        <ele>17.8</ele>
        <time>2021-08-06T09:40:26Z</time>
      </trkpt>
      <trkpt lat="47.53171" lon="-2.73585">
        <ele>18</ele>
        <time>2021-08-06T09:40:27Z</time>
      </trkpt>
      <trkpt lat="47.53173" lon="-2.73581">
        <ele>18</ele>
        <time>2021-08-06T09:40:28Z</time>
      </trkpt>
      <trkpt lat="47.53173" lon="-2.73577">
        <ele>18</ele>
        <time>2021-08-06T09:40:29Z</time>
      </trkpt>
      <trkpt lat="47.53175" lon="-2.73573">
        <ele>18.2</ele>
        <time>2021-08-06T09:40:30Z</time>
      </trkpt>
      <trkpt lat="47.53176" lon="-2.73568">
        <ele>18.2</ele>
        <time>2021-08-06T09:40:31Z</time>
      </trkpt>
      <trkpt lat="47.53177" lon="-2.73564">
        <ele>18.2</ele>
        <time>2021-08-06T09:40:32Z</time>
      </trkpt>
      <trkpt lat="47.53179" lon="-2.73559">
        <ele>18.4</ele>
        <time>2021-08-06T09:40:33Z</time>
      </trkpt>
      <trkpt lat="47.5318" lon="-2.73555">
        <ele>18.4</ele>
        <time>2021-08-06T09:40:34Z</time>
      </trkpt>
      <trkpt lat="47.53181" lon="-2.73551">
        <ele>18.6</ele>
        <time>2021-08-06T09:40:35Z</time>
      </trkpt>
      <trkpt lat="47.53182" lon="-2.73547">
        <ele>18.8</ele>
        <time>2021-08-06T09:40:36Z</time>
      </trkpt>
      <trkpt lat="47.53184" lon="-2.73544">
        <ele>18.8</ele>
        <time>2021-08-06T09:40:37Z</time>
      </trkpt>
      <trkpt lat="47.53185" lon="-2.7354">
        <ele>18.8</ele>
        <time>2021-08-06T09:40:38Z</time>
      </trkpt>
      <trkpt lat="47.53186" lon="-2.73537">
        <ele>18.8</ele>
        <time>2021-08-06T09:40:39Z</time>
      </trkpt>
      <trkpt lat="47.53187" lon="-2.73533">
        <ele>19</ele>
        <time>2021-08-06T09:40:40Z</time>
      </trkpt>
      <trkpt lat="47.53189" lon="-2.73529">
        <ele>19</ele>
        <time>2021-08-06T09:40:41Z</time>
      </trkpt>
      <trkpt lat="47.53191" lon="-2.73525">
        <ele>19.2</ele>
        <time>2021-08-06T09:40:42Z</time>
      </trkpt>
      <trkpt lat="47.53193" lon="-2.73521">
        <ele>19</ele>
        <time>2021-08-06T09:40:43Z</time>
      </trkpt>
      <trkpt lat="47.53194" lon="-2.73517">
        <ele>19</ele>
        <time>2021-08-06T09:40:44Z</time>
      </trkpt>
      <trkpt lat="47.53195" lon="-2.73513">
        <ele>19.2</ele>
        <time>2021-08-06T09:40:45Z</time>
      </trkpt>
      <trkpt lat="47.53196" lon="-2.7351">
        <ele>19.4</ele>
        <time>2021-08-06T09:40:46Z</time>
      </trkpt>
      <trkpt lat="47.53197" lon="-2.73506">
        <ele>19.6</ele>
        <time>2021-08-06T09:40:47Z</time>
      </trkpt>
      <trkpt lat="47.53199" lon="-2.73503">
        <ele>19.8</ele>
        <time>2021-08-06T09:40:48Z</time>
      </trkpt>
      <trkpt lat="47.53201" lon="-2.735">
        <ele>19.8</ele>
        <time>2021-08-06T09:40:49Z</time>
      </trkpt>
      <trkpt lat="47.53202" lon="-2.73497">
        <ele>19.8</ele>
        <time>2021-08-06T09:40:50Z</time>
      </trkpt>
      <trkpt lat="47.53203" lon="-2.73494">
        <ele>20</ele>
        <time>2021-08-06T09:40:51Z</time>
      </trkpt>
      <trkpt lat="47.53204" lon="-2.73491">
        <ele>20</ele>
        <time>2021-08-06T09:40:52Z</time>
      </trkpt>
      <trkpt lat="47.53205" lon="-2.73488">
        <ele>20.2</ele>
        <time>2021-08-06T09:40:53Z</time>
      </trkpt>
      <trkpt lat="47.53207" lon="-2.73484">
        <ele>20.2</ele>
        <time>2021-08-06T09:40:54Z</time>
      </trkpt>
      <trkpt lat="47.53207" lon="-2.73481">
        <ele>20.4</ele>
        <time>2021-08-06T09:40:55Z</time>
      </trkpt>
      <trkpt lat="47.53209" lon="-2.73477">
        <ele>20.4</ele>
        <time>2021-08-06T09:40:56Z</time>
      </trkpt>
      <trkpt lat="47.5321" lon="-2.73474">
        <ele>20.4</ele>
        <time>2021-08-06T09:40:57Z</time>
      </trkpt>
      <trkpt lat="47.5321" lon="-2.73469">
        <ele>20.4</ele>
        <time>2021-08-06T09:40:58Z</time>
      </trkpt>
      <trkpt lat="47.53211" lon="-2.73464">
        <ele>20.6</ele>
        <time>2021-08-06T09:40:59Z</time>
      </trkpt>
      <trkpt lat="47.53213" lon="-2.73459">
        <ele>20.6</ele>
        <time>2021-08-06T09:41:00Z</time>
      </trkpt>
      <trkpt lat="47.53214" lon="-2.73454">
        <ele>20.6</ele>
        <time>2021-08-06T09:41:01Z</time>
      </trkpt>
      <trkpt lat="47.53215" lon="-2.73449">
        <ele>20.6</ele>
        <time>2021-08-06T09:41:02Z</time>
      </trkpt>
      <trkpt lat="47.53217" lon="-2.73444">
        <ele>20.6</ele>
        <time>2021-08-06T09:41:03Z</time>
      </trkpt>
      <trkpt lat="47.53219" lon="-2.73438">
        <ele>20.6</ele>
        <time>2021-08-06T09:41:04Z</time>
      </trkpt>
      <trkpt lat="47.5322" lon="-2.73434">
        <ele>20.8</ele>
        <time>2021-08-06T09:41:05Z</time>
      </trkpt>
      <trkpt lat="47.53223" lon="-2.73429">
        <ele>20.8</ele>
        <time>2021-08-06T09:41:06Z</time>
      </trkpt>
      <trkpt lat="47.53225" lon="-2.73424">
        <ele>20.8</ele>
        <time>2021-08-06T09:41:07Z</time>
      </trkpt>
      <trkpt lat="47.53228" lon="-2.73419">
        <ele>21</ele>
        <time>2021-08-06T09:41:08Z</time>
      </trkpt>
      <trkpt lat="47.5323" lon="-2.73415">
        <ele>21</ele>
        <time>2021-08-06T09:41:09Z</time>
      </trkpt>
      <trkpt lat="47.53232" lon="-2.73411">
        <ele>21</ele>
        <time>2021-08-06T09:41:10Z</time>
      </trkpt>
      <trkpt lat="47.53234" lon="-2.73406">
        <ele>21</ele>
        <time>2021-08-06T09:41:11Z</time>
      </trkpt>
      <trkpt lat="47.53237" lon="-2.73401">
        <ele>21.2</ele>
        <time>2021-08-06T09:41:12Z</time>
      </trkpt>
      <trkpt lat="47.53239" lon="-2.73396">
        <ele>21.2</ele>
        <time>2021-08-06T09:41:13Z</time>
      </trkpt>
      <trkpt lat="47.5324" lon="-2.73392">
        <ele>21.2</ele>
        <time>2021-08-06T09:41:14Z</time>
      </trkpt>
      <trkpt lat="47.53242" lon="-2.73387">
        <ele>21.2</ele>
        <time>2021-08-06T09:41:15Z</time>
      </trkpt>
      <trkpt lat="47.53244" lon="-2.73383">
        <ele>21.4</ele>
        <time>2021-08-06T09:41:16Z</time>
      </trkpt>
      <trkpt lat="47.53246" lon="-2.73379">
        <ele>21.4</ele>
        <time>2021-08-06T09:41:17Z</time>
      </trkpt>
      <trkpt lat="47.53248" lon="-2.73376">
        <ele>21.4</ele>
        <time>2021-08-06T09:41:18Z</time>
      </trkpt>
      <trkpt lat="47.5325" lon="-2.73372">
        <ele>21.4</ele>
        <time>2021-08-06T09:41:19Z</time>
      </trkpt>
      <trkpt lat="47.53251" lon="-2.73368">
        <ele>21.6</ele>
        <time>2021-08-06T09:41:20Z</time>
      </trkpt>
      <trkpt lat="47.53253" lon="-2.73364">
        <ele>21.6</ele>
        <time>2021-08-06T09:41:21Z</time>
      </trkpt>
      <trkpt lat="47.53254" lon="-2.7336">
        <ele>21.6</ele>
        <time>2021-08-06T09:41:22Z</time>
      </trkpt>
      <trkpt lat="47.53256" lon="-2.73356">
        <ele>21.6</ele>
        <time>2021-08-06T09:41:23Z</time>
      </trkpt>
      <trkpt lat="47.53257" lon="-2.73351">
        <ele>21.6</ele>
        <time>2021-08-06T09:41:24Z</time>
      </trkpt>
      <trkpt lat="47.53259" lon="-2.73346">
        <ele>21.6</ele>
        <time>2021-08-06T09:41:25Z</time>
      </trkpt>
      <trkpt lat="47.53261" lon="-2.73341">
        <ele>21.6</ele>
        <time>2021-08-06T09:41:26Z</time>
      </trkpt>
      <trkpt lat="47.53263" lon="-2.73336">
        <ele>21.6</ele>
        <time>2021-08-06T09:41:27Z</time>
      </trkpt>
      <trkpt lat="47.53265" lon="-2.7333">
        <ele>21.6</ele>
        <time>2021-08-06T09:41:28Z</time>
      </trkpt>
      <trkpt lat="47.53266" lon="-2.73325">
        <ele>21.6</ele>
        <time>2021-08-06T09:41:29Z</time>
      </trkpt>
      <trkpt lat="47.53268" lon="-2.73319">
        <ele>21.6</ele>
        <time>2021-08-06T09:41:30Z</time>
      </trkpt>
      <trkpt lat="47.5327" lon="-2.73314">
        <ele>21.4</ele>
        <time>2021-08-06T09:41:31Z</time>
      </trkpt>
      <trkpt lat="47.53271" lon="-2.73308">
        <ele>21.4</ele>
        <time>2021-08-06T09:41:32Z</time>
      </trkpt>
      <trkpt lat="47.53274" lon="-2.73302">
        <ele>21.2</ele>
        <time>2021-08-06T09:41:33Z</time>
      </trkpt>
      <trkpt lat="47.53276" lon="-2.73296">
        <ele>21.2</ele>
        <time>2021-08-06T09:41:34Z</time>
      </trkpt>
      <trkpt lat="47.53278" lon="-2.7329">
        <ele>21.2</ele>
        <time>2021-08-06T09:41:35Z</time>
      </trkpt>
      <trkpt lat="47.5328" lon="-2.73283">
        <ele>21.2</ele>
        <time>2021-08-06T09:41:36Z</time>
      </trkpt>
      <trkpt lat="47.53282" lon="-2.73277">
        <ele>21</ele>
        <time>2021-08-06T09:41:37Z</time>
      </trkpt>
      <trkpt lat="47.53284" lon="-2.73272">
        <ele>21</ele>
        <time>2021-08-06T09:41:38Z</time>
      </trkpt>
      <trkpt lat="47.53285" lon="-2.73266">
        <ele>21</ele>
        <time>2021-08-06T09:41:39Z</time>
      </trkpt>
      <trkpt lat="47.53288" lon="-2.7326">
        <ele>21</ele>
        <time>2021-08-06T09:41:40Z</time>
      </trkpt>
      <trkpt lat="47.5329" lon="-2.73254">
        <ele>20.6</ele>
        <time>2021-08-06T09:41:41Z</time>
      </trkpt>
      <trkpt lat="47.53292" lon="-2.73248">
        <ele>20.6</ele>
        <time>2021-08-06T09:41:42Z</time>
      </trkpt>
      <trkpt lat="47.53293" lon="-2.73242">
        <ele>20.6</ele>
        <time>2021-08-06T09:41:43Z</time>
      </trkpt>
      <trkpt lat="47.53294" lon="-2.73237">
        <ele>20.6</ele>
        <time>2021-08-06T09:41:44Z</time>
      </trkpt>
      <trkpt lat="47.53295" lon="-2.73231">
        <ele>20.6</ele>
        <time>2021-08-06T09:41:45Z</time>
      </trkpt>
      <trkpt lat="47.53297" lon="-2.73225">
        <ele>20.6</ele>
        <time>2021-08-06T09:41:46Z</time>
      </trkpt>
      <trkpt lat="47.53299" lon="-2.73218">
        <ele>20.6</ele>
        <time>2021-08-06T09:41:47Z</time>
      </trkpt>
      <trkpt lat="47.53302" lon="-2.73213">
        <ele>20.6</ele>
        <time>2021-08-06T09:41:48Z</time>
      </trkpt>
      <trkpt lat="47.53304" lon="-2.73207">
        <ele>20.6</ele>
        <time>2021-08-06T09:41:49Z</time>
      </trkpt>
      <trkpt lat="47.53307" lon="-2.732">
        <ele>20.6</ele>
        <time>2021-08-06T09:41:50Z</time>
      </trkpt>
      <trkpt lat="47.5331" lon="-2.73195">
        <ele>20.6</ele>
        <time>2021-08-06T09:41:51Z</time>
      </trkpt>
      <trkpt lat="47.53312" lon="-2.73189">
        <ele>20.6</ele>
        <time>2021-08-06T09:41:52Z</time>
      </trkpt>
      <trkpt lat="47.53314" lon="-2.73184">
        <ele>20.6</ele>
        <time>2021-08-06T09:41:53Z</time>
      </trkpt>
      <trkpt lat="47.53316" lon="-2.73178">
        <ele>20.6</ele>
        <time>2021-08-06T09:41:54Z</time>
      </trkpt>
      <trkpt lat="47.53318" lon="-2.73173">
        <ele>20.6</ele>
        <time>2021-08-06T09:41:55Z</time>
      </trkpt>
      <trkpt lat="47.5332" lon="-2.73167">
        <ele>20.6</ele>
        <time>2021-08-06T09:41:56Z</time>
      </trkpt>
      <trkpt lat="47.53323" lon="-2.73163">
        <ele>20.6</ele>
        <time>2021-08-06T09:41:57Z</time>
      </trkpt>
      <trkpt lat="47.53324" lon="-2.73158">
        <ele>20.6</ele>
        <time>2021-08-06T09:41:58Z</time>
      </trkpt>
      <trkpt lat="47.53326" lon="-2.73153">
        <ele>20.8</ele>
        <time>2021-08-06T09:41:59Z</time>
      </trkpt>
      <trkpt lat="47.53328" lon="-2.73148">
        <ele>20.8</ele>
        <time>2021-08-06T09:42:00Z</time>
      </trkpt>
      <trkpt lat="47.53329" lon="-2.73143">
        <ele>21</ele>
        <time>2021-08-06T09:42:01Z</time>
      </trkpt>
      <trkpt lat="47.53331" lon="-2.73138">
        <ele>21</ele>
        <time>2021-08-06T09:42:02Z</time>
      </trkpt>
      <trkpt lat="47.53333" lon="-2.73133">
        <ele>21</ele>
        <time>2021-08-06T09:42:03Z</time>
      </trkpt>
      <trkpt lat="47.53335" lon="-2.73128">
        <ele>21</ele>
        <time>2021-08-06T09:42:04Z</time>
      </trkpt>
      <trkpt lat="47.53337" lon="-2.73123">
        <ele>21.2</ele>
        <time>2021-08-06T09:42:05Z</time>
      </trkpt>
      <trkpt lat="47.53339" lon="-2.73118">
        <ele>21.2</ele>
        <time>2021-08-06T09:42:06Z</time>
      </trkpt>
      <trkpt lat="47.53341" lon="-2.73113">
        <ele>21.2</ele>
        <time>2021-08-06T09:42:07Z</time>
      </trkpt>
      <trkpt lat="47.53343" lon="-2.73108">
        <ele>21.4</ele>
        <time>2021-08-06T09:42:08Z</time>
      </trkpt>
      <trkpt lat="47.53344" lon="-2.73104">
        <ele>21.6</ele>
        <time>2021-08-06T09:42:09Z</time>
      </trkpt>
      <trkpt lat="47.53346" lon="-2.73099">
        <ele>21.6</ele>
        <time>2021-08-06T09:42:10Z</time>
      </trkpt>
      <trkpt lat="47.53347" lon="-2.73094">
        <ele>21.6</ele>
        <time>2021-08-06T09:42:11Z</time>
      </trkpt>
      <trkpt lat="47.53348" lon="-2.7309">
        <ele>21.8</ele>
        <time>2021-08-06T09:42:12Z</time>
      </trkpt>
      <trkpt lat="47.53349" lon="-2.73085">
        <ele>21.8</ele>
        <time>2021-08-06T09:42:13Z</time>
      </trkpt>
      <trkpt lat="47.53351" lon="-2.7308">
        <ele>21.8</ele>
        <time>2021-08-06T09:42:14Z</time>
      </trkpt>
      <trkpt lat="47.53352" lon="-2.73076">
        <ele>21.8</ele>
        <time>2021-08-06T09:42:15Z</time>
      </trkpt>
      <trkpt lat="47.53353" lon="-2.73071">
        <ele>22</ele>
        <time>2021-08-06T09:42:16Z</time>
      </trkpt>
      <trkpt lat="47.53354" lon="-2.73067">
        <ele>22.2</ele>
        <time>2021-08-06T09:42:17Z</time>
      </trkpt>
      <trkpt lat="47.53355" lon="-2.73063">
        <ele>22.4</ele>
        <time>2021-08-06T09:42:18Z</time>
      </trkpt>
      <trkpt lat="47.53356" lon="-2.73059">
        <ele>22.6</ele>
        <time>2021-08-06T09:42:19Z</time>
      </trkpt>
      <trkpt lat="47.53357" lon="-2.73056">
        <ele>22.8</ele>
        <time>2021-08-06T09:42:20Z</time>
      </trkpt>
      <trkpt lat="47.53357" lon="-2.73053">
        <ele>22.8</ele>
        <time>2021-08-06T09:42:21Z</time>
      </trkpt>
      <trkpt lat="47.53358" lon="-2.73049">
        <ele>23</ele>
        <time>2021-08-06T09:42:22Z</time>
      </trkpt>
      <trkpt lat="47.53358" lon="-2.73045">
        <ele>23.2</ele>
        <time>2021-08-06T09:42:23Z</time>
      </trkpt>
      <trkpt lat="47.53359" lon="-2.73041">
        <ele>23.2</ele>
        <time>2021-08-06T09:42:24Z</time>
      </trkpt>
      <trkpt lat="47.5336" lon="-2.73037">
        <ele>23.2</ele>
        <time>2021-08-06T09:42:25Z</time>
      </trkpt>
      <trkpt lat="47.53361" lon="-2.73033">
        <ele>23.2</ele>
        <time>2021-08-06T09:42:26Z</time>
      </trkpt>
      <trkpt lat="47.53364" lon="-2.73028">
        <ele>23.2</ele>
        <time>2021-08-06T09:42:27Z</time>
      </trkpt>
      <trkpt lat="47.53365" lon="-2.73024">
        <ele>23.2</ele>
        <time>2021-08-06T09:42:28Z</time>
      </trkpt>
      <trkpt lat="47.53367" lon="-2.73019">
        <ele>23.2</ele>
        <time>2021-08-06T09:42:29Z</time>
      </trkpt>
      <trkpt lat="47.53368" lon="-2.73013">
        <ele>23.2</ele>
        <time>2021-08-06T09:42:30Z</time>
      </trkpt>
      <trkpt lat="47.53369" lon="-2.73008">
        <ele>23.2</ele>
        <time>2021-08-06T09:42:31Z</time>
      </trkpt>
      <trkpt lat="47.53371" lon="-2.73002">
        <ele>23.2</ele>
        <time>2021-08-06T09:42:32Z</time>
      </trkpt>
      <trkpt lat="47.53372" lon="-2.72996">
        <ele>23.2</ele>
        <time>2021-08-06T09:42:33Z</time>
      </trkpt>
      <trkpt lat="47.53374" lon="-2.7299">
        <ele>23.2</ele>
        <time>2021-08-06T09:42:34Z</time>
      </trkpt>
      <trkpt lat="47.53375" lon="-2.72985">
        <ele>23.2</ele>
        <time>2021-08-06T09:42:35Z</time>
      </trkpt>
      <trkpt lat="47.53376" lon="-2.7298">
        <ele>23.2</ele>
        <time>2021-08-06T09:42:36Z</time>
      </trkpt>
      <trkpt lat="47.53378" lon="-2.72975">
        <ele>23.2</ele>
        <time>2021-08-06T09:42:37Z</time>
      </trkpt>
      <trkpt lat="47.53378" lon="-2.72969">
        <ele>23.2</ele>
        <time>2021-08-06T09:42:38Z</time>
      </trkpt>
      <trkpt lat="47.53378" lon="-2.72964">
        <ele>23</ele>
        <time>2021-08-06T09:42:39Z</time>
      </trkpt>
      <trkpt lat="47.5338" lon="-2.72959">
        <ele>23</ele>
        <time>2021-08-06T09:42:40Z</time>
      </trkpt>
      <trkpt lat="47.53382" lon="-2.72955">
        <ele>23</ele>
        <time>2021-08-06T09:42:41Z</time>
      </trkpt>
      <trkpt lat="47.53383" lon="-2.7295">
        <ele>23</ele>
        <time>2021-08-06T09:42:42Z</time>
      </trkpt>
      <trkpt lat="47.53386" lon="-2.72945">
        <ele>23</ele>
        <time>2021-08-06T09:42:43Z</time>
      </trkpt>
      <trkpt lat="47.53387" lon="-2.7294">
        <ele>23</ele>
        <time>2021-08-06T09:42:44Z</time>
      </trkpt>
      <trkpt lat="47.53389" lon="-2.72935">
        <ele>23</ele>
        <time>2021-08-06T09:42:45Z</time>
      </trkpt>
      <trkpt lat="47.5339" lon="-2.7293">
        <ele>22.8</ele>
        <time>2021-08-06T09:42:46Z</time>
      </trkpt>
      <trkpt lat="47.53391" lon="-2.72922">
        <ele>22.8</ele>
        <time>2021-08-06T09:42:47Z</time>
      </trkpt>
      <trkpt lat="47.53393" lon="-2.72915">
        <ele>22.6</ele>
        <time>2021-08-06T09:42:48Z</time>
      </trkpt>
      <trkpt lat="47.53397" lon="-2.72907">
        <ele>22.4</ele>
        <time>2021-08-06T09:42:49Z</time>
      </trkpt>
      <trkpt lat="47.53399" lon="-2.72899">
        <ele>22.4</ele>
        <time>2021-08-06T09:42:50Z</time>
      </trkpt>
      <trkpt lat="47.53403" lon="-2.72892">
        <ele>22.2</ele>
        <time>2021-08-06T09:42:51Z</time>
      </trkpt>
      <trkpt lat="47.53407" lon="-2.72884">
        <ele>22</ele>
        <time>2021-08-06T09:42:52Z</time>
      </trkpt>
      <trkpt lat="47.53411" lon="-2.72875">
        <ele>22</ele>
        <time>2021-08-06T09:42:53Z</time>
      </trkpt>
      <trkpt lat="47.53413" lon="-2.72867">
        <ele>22</ele>
        <time>2021-08-06T09:42:54Z</time>
      </trkpt>
      <trkpt lat="47.53415" lon="-2.72861">
        <ele>22</ele>
        <time>2021-08-06T09:42:55Z</time>
      </trkpt>
      <trkpt lat="47.53417" lon="-2.72853">
        <ele>21.8</ele>
        <time>2021-08-06T09:42:56Z</time>
      </trkpt>
      <trkpt lat="47.53421" lon="-2.72845">
        <ele>21.8</ele>
        <time>2021-08-06T09:42:57Z</time>
      </trkpt>
      <trkpt lat="47.53424" lon="-2.72837">
        <ele>21.8</ele>
        <time>2021-08-06T09:42:58Z</time>
      </trkpt>
      <trkpt lat="47.53427" lon="-2.7283">
        <ele>21.6</ele>
        <time>2021-08-06T09:42:59Z</time>
      </trkpt>
      <trkpt lat="47.53432" lon="-2.72822">
        <ele>21.4</ele>
        <time>2021-08-06T09:43:00Z</time>
      </trkpt>
      <trkpt lat="47.53435" lon="-2.72814">
        <ele>21.2</ele>
        <time>2021-08-06T09:43:01Z</time>
      </trkpt>
      <trkpt lat="47.53438" lon="-2.72808">
        <ele>21.2</ele>
        <time>2021-08-06T09:43:02Z</time>
      </trkpt>
      <trkpt lat="47.5344" lon="-2.72801">
        <ele>21</ele>
        <time>2021-08-06T09:43:03Z</time>
      </trkpt>
      <trkpt lat="47.53444" lon="-2.72794">
        <ele>21</ele>
        <time>2021-08-06T09:43:04Z</time>
      </trkpt>
      <trkpt lat="47.53447" lon="-2.72786">
        <ele>21</ele>
        <time>2021-08-06T09:43:05Z</time>
      </trkpt>
      <trkpt lat="47.5345" lon="-2.7278">
        <ele>21</ele>
        <time>2021-08-06T09:43:06Z</time>
      </trkpt>
      <trkpt lat="47.53453" lon="-2.72773">
        <ele>21</ele>
        <time>2021-08-06T09:43:07Z</time>
      </trkpt>
      <trkpt lat="47.53456" lon="-2.72766">
        <ele>21.2</ele>
        <time>2021-08-06T09:43:08Z</time>
      </trkpt>
      <trkpt lat="47.53458" lon="-2.72759">
        <ele>21</ele>
        <time>2021-08-06T09:43:09Z</time>
      </trkpt>
      <trkpt lat="47.53461" lon="-2.72753">
        <ele>21</ele>
        <time>2021-08-06T09:43:10Z</time>
      </trkpt>
      <trkpt lat="47.53464" lon="-2.72746">
        <ele>21</ele>
        <time>2021-08-06T09:43:11Z</time>
      </trkpt>
      <trkpt lat="47.53467" lon="-2.72738">
        <ele>21.2</ele>
        <time>2021-08-06T09:43:12Z</time>
      </trkpt>
      <trkpt lat="47.5347" lon="-2.72731">
        <ele>21.2</ele>
        <time>2021-08-06T09:43:13Z</time>
      </trkpt>
      <trkpt lat="47.53472" lon="-2.72724">
        <ele>21.2</ele>
        <time>2021-08-06T09:43:14Z</time>
      </trkpt>
      <trkpt lat="47.53475" lon="-2.72717">
        <ele>21.2</ele>
        <time>2021-08-06T09:43:15Z</time>
      </trkpt>
      <trkpt lat="47.53478" lon="-2.72709">
        <ele>21.2</ele>
        <time>2021-08-06T09:43:16Z</time>
      </trkpt>
      <trkpt lat="47.5348" lon="-2.72702">
        <ele>21.2</ele>
        <time>2021-08-06T09:43:17Z</time>
      </trkpt>
      <trkpt lat="47.53483" lon="-2.72695">
        <ele>21.2</ele>
        <time>2021-08-06T09:43:18Z</time>
      </trkpt>
      <trkpt lat="47.53485" lon="-2.72688">
        <ele>21.2</ele>
        <time>2021-08-06T09:43:19Z</time>
      </trkpt>
      <trkpt lat="47.53488" lon="-2.72681">
        <ele>21</ele>
        <time>2021-08-06T09:43:20Z</time>
      </trkpt>
      <trkpt lat="47.5349" lon="-2.72674">
        <ele>21</ele>
        <time>2021-08-06T09:43:21Z</time>
      </trkpt>
      <trkpt lat="47.53493" lon="-2.72667">
        <ele>21</ele>
        <time>2021-08-06T09:43:22Z</time>
      </trkpt>
      <trkpt lat="47.53496" lon="-2.7266">
        <ele>21</ele>
        <time>2021-08-06T09:43:23Z</time>
      </trkpt>
      <trkpt lat="47.53498" lon="-2.72653">
        <ele>20.8</ele>
        <time>2021-08-06T09:43:24Z</time>
      </trkpt>
      <trkpt lat="47.53501" lon="-2.72646">
        <ele>20.8</ele>
        <time>2021-08-06T09:43:25Z</time>
      </trkpt>
      <trkpt lat="47.53503" lon="-2.72639">
        <ele>20.8</ele>
        <time>2021-08-06T09:43:26Z</time>
      </trkpt>
      <trkpt lat="47.53506" lon="-2.72632">
        <ele>20.8</ele>
        <time>2021-08-06T09:43:27Z</time>
      </trkpt>
      <trkpt lat="47.53508" lon="-2.72625">
        <ele>20.8</ele>
        <time>2021-08-06T09:43:28Z</time>
      </trkpt>
      <trkpt lat="47.53511" lon="-2.72619">
        <ele>20.8</ele>
        <time>2021-08-06T09:43:29Z</time>
      </trkpt>
      <trkpt lat="47.53512" lon="-2.72612">
        <ele>20.8</ele>
        <time>2021-08-06T09:43:30Z</time>
      </trkpt>
      <trkpt lat="47.53514" lon="-2.72607">
        <ele>20.6</ele>
        <time>2021-08-06T09:43:31Z</time>
      </trkpt>
      <trkpt lat="47.53515" lon="-2.72602">
        <ele>20.6</ele>
        <time>2021-08-06T09:43:32Z</time>
      </trkpt>
      <trkpt lat="47.53517" lon="-2.72596">
        <ele>20.6</ele>
        <time>2021-08-06T09:43:33Z</time>
      </trkpt>
      <trkpt lat="47.5352" lon="-2.72591">
        <ele>20.6</ele>
        <time>2021-08-06T09:43:34Z</time>
      </trkpt>
      <trkpt lat="47.53523" lon="-2.72586">
        <ele>20.6</ele>
        <time>2021-08-06T09:43:35Z</time>
      </trkpt>
      <trkpt lat="47.53527" lon="-2.72581">
        <ele>20.4</ele>
        <time>2021-08-06T09:43:36Z</time>
      </trkpt>
      <trkpt lat="47.5353" lon="-2.72575">
        <ele>20.4</ele>
        <time>2021-08-06T09:43:37Z</time>
      </trkpt>
      <trkpt lat="47.53534" lon="-2.7257">
        <ele>20.2</ele>
        <time>2021-08-06T09:43:38Z</time>
      </trkpt>
      <trkpt lat="47.53538" lon="-2.72564">
        <ele>20</ele>
        <time>2021-08-06T09:43:39Z</time>
      </trkpt>
      <trkpt lat="47.53542" lon="-2.72559">
        <ele>20</ele>
        <time>2021-08-06T09:43:40Z</time>
      </trkpt>
      <trkpt lat="47.53546" lon="-2.72553">
        <ele>20</ele>
        <time>2021-08-06T09:43:41Z</time>
      </trkpt>
      <trkpt lat="47.5355" lon="-2.72548">
        <ele>19.8</ele>
        <time>2021-08-06T09:43:42Z</time>
      </trkpt>
      <trkpt lat="47.53554" lon="-2.72543">
        <ele>19.8</ele>
        <time>2021-08-06T09:43:43Z</time>
      </trkpt>
      <trkpt lat="47.53558" lon="-2.72538">
        <ele>19.8</ele>
        <time>2021-08-06T09:43:44Z</time>
      </trkpt>
      <trkpt lat="47.53562" lon="-2.72533">
        <ele>19.6</ele>
        <time>2021-08-06T09:43:45Z</time>
      </trkpt>
      <trkpt lat="47.53566" lon="-2.72528">
        <ele>19.4</ele>
        <time>2021-08-06T09:43:46Z</time>
      </trkpt>
      <trkpt lat="47.53571" lon="-2.72523">
        <ele>19.2</ele>
        <time>2021-08-06T09:43:47Z</time>
      </trkpt>
      <trkpt lat="47.53575" lon="-2.72518">
        <ele>19</ele>
        <time>2021-08-06T09:43:48Z</time>
      </trkpt>
      <trkpt lat="47.5358" lon="-2.72513">
        <ele>19</ele>
        <time>2021-08-06T09:43:49Z</time>
      </trkpt>
      <trkpt lat="47.53585" lon="-2.72509">
        <ele>19</ele>
        <time>2021-08-06T09:43:50Z</time>
      </trkpt>
      <trkpt lat="47.5359" lon="-2.72505">
        <ele>18.8</ele>
        <time>2021-08-06T09:43:51Z</time>
      </trkpt>
      <trkpt lat="47.53595" lon="-2.72501">
        <ele>18.8</ele>
        <time>2021-08-06T09:43:52Z</time>
      </trkpt>
      <trkpt lat="47.53601" lon="-2.72496">
        <ele>18.6</ele>
        <time>2021-08-06T09:43:53Z</time>
      </trkpt>
      <trkpt lat="47.53606" lon="-2.72492">
        <ele>18.4</ele>
        <time>2021-08-06T09:43:54Z</time>
      </trkpt>
      <trkpt lat="47.53612" lon="-2.72489">
        <ele>18</ele>
        <time>2021-08-06T09:43:55Z</time>
      </trkpt>
      <trkpt lat="47.53617" lon="-2.72486">
        <ele>18</ele>
        <time>2021-08-06T09:43:56Z</time>
      </trkpt>
      <trkpt lat="47.53623" lon="-2.72483">
        <ele>17.8</ele>
        <time>2021-08-06T09:43:57Z</time>
      </trkpt>
      <trkpt lat="47.53628" lon="-2.7248">
        <ele>17.8</ele>
        <time>2021-08-06T09:43:58Z</time>
      </trkpt>
      <trkpt lat="47.53634" lon="-2.72478">
        <ele>17.6</ele>
        <time>2021-08-06T09:43:59Z</time>
      </trkpt>
      <trkpt lat="47.53639" lon="-2.72475">
        <ele>17.4</ele>
        <time>2021-08-06T09:44:00Z</time>
      </trkpt>
      <trkpt lat="47.53645" lon="-2.72473">
        <ele>17.2</ele>
        <time>2021-08-06T09:44:01Z</time>
      </trkpt>
      <trkpt lat="47.53651" lon="-2.72471">
        <ele>17</ele>
        <time>2021-08-06T09:44:02Z</time>
      </trkpt>
      <trkpt lat="47.53657" lon="-2.72469">
        <ele>16.8</ele>
        <time>2021-08-06T09:44:03Z</time>
      </trkpt>
      <trkpt lat="47.53663" lon="-2.72467">
        <ele>16.6</ele>
        <time>2021-08-06T09:44:04Z</time>
      </trkpt>
      <trkpt lat="47.53669" lon="-2.72466">
        <ele>16.4</ele>
        <time>2021-08-06T09:44:05Z</time>
      </trkpt>
      <trkpt lat="47.53675" lon="-2.72464">
        <ele>16.2</ele>
        <time>2021-08-06T09:44:06Z</time>
      </trkpt>
      <trkpt lat="47.53681" lon="-2.72462">
        <ele>16</ele>
        <time>2021-08-06T09:44:07Z</time>
      </trkpt>
      <trkpt lat="47.53687" lon="-2.72461">
        <ele>15.8</ele>
        <time>2021-08-06T09:44:08Z</time>
      </trkpt>
      <trkpt lat="47.53693" lon="-2.72459">
        <ele>15.8</ele>
        <time>2021-08-06T09:44:09Z</time>
      </trkpt>
      <trkpt lat="47.53699" lon="-2.72457">
        <ele>15.4</ele>
        <time>2021-08-06T09:44:10Z</time>
      </trkpt>
      <trkpt lat="47.53704" lon="-2.72456">
        <ele>15</ele>
        <time>2021-08-06T09:44:11Z</time>
      </trkpt>
      <trkpt lat="47.5371" lon="-2.72455">
        <ele>14.8</ele>
        <time>2021-08-06T09:44:12Z</time>
      </trkpt>
      <trkpt lat="47.53716" lon="-2.72453">
        <ele>14.8</ele>
        <time>2021-08-06T09:44:13Z</time>
      </trkpt>
      <trkpt lat="47.53722" lon="-2.72452">
        <ele>14.6</ele>
        <time>2021-08-06T09:44:14Z</time>
      </trkpt>
      <trkpt lat="47.53728" lon="-2.7245">
        <ele>14.6</ele>
        <time>2021-08-06T09:44:15Z</time>
      </trkpt>
      <trkpt lat="47.53734" lon="-2.72448">
        <ele>14.4</ele>
        <time>2021-08-06T09:44:16Z</time>
      </trkpt>
      <trkpt lat="47.53739" lon="-2.72447">
        <ele>13.8</ele>
        <time>2021-08-06T09:44:17Z</time>
      </trkpt>
      <trkpt lat="47.53745" lon="-2.72445">
        <ele>13.8</ele>
        <time>2021-08-06T09:44:18Z</time>
      </trkpt>
      <trkpt lat="47.5375" lon="-2.72444">
        <ele>13.6</ele>
        <time>2021-08-06T09:44:19Z</time>
      </trkpt>
      <trkpt lat="47.53756" lon="-2.72443">
        <ele>13.6</ele>
        <time>2021-08-06T09:44:20Z</time>
      </trkpt>
      <trkpt lat="47.53761" lon="-2.72441">
        <ele>13.6</ele>
        <time>2021-08-06T09:44:21Z</time>
      </trkpt>
      <trkpt lat="47.53766" lon="-2.7244">
        <ele>13.4</ele>
        <time>2021-08-06T09:44:22Z</time>
      </trkpt>
      <trkpt lat="47.53771" lon="-2.72439">
        <ele>13.4</ele>
        <time>2021-08-06T09:44:23Z</time>
      </trkpt>
      <trkpt lat="47.53776" lon="-2.72439">
        <ele>13.4</ele>
        <time>2021-08-06T09:44:24Z</time>
      </trkpt>
      <trkpt lat="47.5378" lon="-2.72438">
        <ele>13.4</ele>
        <time>2021-08-06T09:44:25Z</time>
      </trkpt>
      <trkpt lat="47.53785" lon="-2.72437">
        <ele>13.4</ele>
        <time>2021-08-06T09:44:26Z</time>
      </trkpt>
      <trkpt lat="47.53789" lon="-2.72436">
        <ele>13.4</ele>
        <time>2021-08-06T09:44:27Z</time>
      </trkpt>
      <trkpt lat="47.53793" lon="-2.72435">
        <ele>13.4</ele>
        <time>2021-08-06T09:44:28Z</time>
      </trkpt>
      <trkpt lat="47.53797" lon="-2.72434">
        <ele>13.4</ele>
        <time>2021-08-06T09:44:29Z</time>
      </trkpt>
      <trkpt lat="47.538" lon="-2.72433">
        <ele>13.4</ele>
        <time>2021-08-06T09:44:30Z</time>
      </trkpt>
      <trkpt lat="47.53803" lon="-2.72432">
        <ele>13.4</ele>
        <time>2021-08-06T09:44:31Z</time>
      </trkpt>
      <trkpt lat="47.53808" lon="-2.72431">
        <ele>13.4</ele>
        <time>2021-08-06T09:44:32Z</time>
      </trkpt>
      <trkpt lat="47.53812" lon="-2.72431">
        <ele>13.4</ele>
        <time>2021-08-06T09:44:33Z</time>
      </trkpt>
      <trkpt lat="47.53817" lon="-2.7243">
        <ele>13.4</ele>
        <time>2021-08-06T09:44:34Z</time>
      </trkpt>
      <trkpt lat="47.53822" lon="-2.72429">
        <ele>13.4</ele>
        <time>2021-08-06T09:44:35Z</time>
      </trkpt>
      <trkpt lat="47.53827" lon="-2.72428">
        <ele>13.4</ele>
        <time>2021-08-06T09:44:36Z</time>
      </trkpt>
      <trkpt lat="47.53833" lon="-2.72427">
        <ele>13.4</ele>
        <time>2021-08-06T09:44:37Z</time>
      </trkpt>
      <trkpt lat="47.53839" lon="-2.72425">
        <ele>13.4</ele>
        <time>2021-08-06T09:44:38Z</time>
      </trkpt>
      <trkpt lat="47.53845" lon="-2.72424">
        <ele>13.4</ele>
        <time>2021-08-06T09:44:39Z</time>
      </trkpt>
      <trkpt lat="47.5385" lon="-2.72423">
        <ele>13.4</ele>
        <time>2021-08-06T09:44:40Z</time>
      </trkpt>
      <trkpt lat="47.53856" lon="-2.72422">
        <ele>13.2</ele>
        <time>2021-08-06T09:44:41Z</time>
      </trkpt>
      <trkpt lat="47.53861" lon="-2.72421">
        <ele>13.2</ele>
        <time>2021-08-06T09:44:42Z</time>
      </trkpt>
      <trkpt lat="47.53867" lon="-2.7242">
        <ele>13.2</ele>
        <time>2021-08-06T09:44:43Z</time>
      </trkpt>
      <trkpt lat="47.53873" lon="-2.72418">
        <ele>13.2</ele>
        <time>2021-08-06T09:44:44Z</time>
      </trkpt>
      <trkpt lat="47.53879" lon="-2.72417">
        <ele>13</ele>
        <time>2021-08-06T09:44:45Z</time>
      </trkpt>
      <trkpt lat="47.53885" lon="-2.72416">
        <ele>13</ele>
        <time>2021-08-06T09:44:46Z</time>
      </trkpt>
      <trkpt lat="47.53891" lon="-2.72415">
        <ele>12.8</ele>
        <time>2021-08-06T09:44:47Z</time>
      </trkpt>
      <trkpt lat="47.53896" lon="-2.72413">
        <ele>12.6</ele>
        <time>2021-08-06T09:44:48Z</time>
      </trkpt>
      <trkpt lat="47.53902" lon="-2.72412">
        <ele>12.4</ele>
        <time>2021-08-06T09:44:49Z</time>
      </trkpt>
      <trkpt lat="47.53907" lon="-2.72411">
        <ele>12.4</ele>
        <time>2021-08-06T09:44:50Z</time>
      </trkpt>
      <trkpt lat="47.53911" lon="-2.7241">
        <ele>12.4</ele>
        <time>2021-08-06T09:44:51Z</time>
      </trkpt>
      <trkpt lat="47.53916" lon="-2.72409">
        <ele>12.2</ele>
        <time>2021-08-06T09:44:52Z</time>
      </trkpt>
      <trkpt lat="47.53921" lon="-2.72408">
        <ele>12</ele>
        <time>2021-08-06T09:44:53Z</time>
      </trkpt>
      <trkpt lat="47.53925" lon="-2.72407">
        <ele>12</ele>
        <time>2021-08-06T09:44:54Z</time>
      </trkpt>
      <trkpt lat="47.5393" lon="-2.72405">
        <ele>11.8</ele>
        <time>2021-08-06T09:44:55Z</time>
      </trkpt>
      <trkpt lat="47.53935" lon="-2.72404">
        <ele>11.6</ele>
        <time>2021-08-06T09:44:56Z</time>
      </trkpt>
      <trkpt lat="47.53941" lon="-2.72403">
        <ele>11.4</ele>
        <time>2021-08-06T09:44:57Z</time>
      </trkpt>
      <trkpt lat="47.53946" lon="-2.72401">
        <ele>11</ele>
        <time>2021-08-06T09:44:58Z</time>
      </trkpt>
      <trkpt lat="47.53953" lon="-2.724">
        <ele>10.8</ele>
        <time>2021-08-06T09:44:59Z</time>
      </trkpt>
      <trkpt lat="47.53958" lon="-2.72399">
        <ele>10.6</ele>
        <time>2021-08-06T09:45:00Z</time>
      </trkpt>
      <trkpt lat="47.53963" lon="-2.72397">
        <ele>10.4</ele>
        <time>2021-08-06T09:45:01Z</time>
      </trkpt>
      <trkpt lat="47.53967" lon="-2.72395">
        <ele>10.4</ele>
        <time>2021-08-06T09:45:02Z</time>
      </trkpt>
      <trkpt lat="47.53972" lon="-2.72393">
        <ele>10.2</ele>
        <time>2021-08-06T09:45:03Z</time>
      </trkpt>
      <trkpt lat="47.53976" lon="-2.72391">
        <ele>10</ele>
        <time>2021-08-06T09:45:04Z</time>
      </trkpt>
      <trkpt lat="47.5398" lon="-2.72389">
        <ele>9.8</ele>
        <time>2021-08-06T09:45:05Z</time>
      </trkpt>
      <trkpt lat="47.53985" lon="-2.72388">
        <ele>9.6</ele>
        <time>2021-08-06T09:45:06Z</time>
      </trkpt>
      <trkpt lat="47.53991" lon="-2.72387">
        <ele>9.6</ele>
        <time>2021-08-06T09:45:07Z</time>
      </trkpt>
      <trkpt lat="47.53996" lon="-2.72386">
        <ele>9.6</ele>
        <time>2021-08-06T09:45:08Z</time>
      </trkpt>
      <trkpt lat="47.54001" lon="-2.72384">
        <ele>9.4</ele>
        <time>2021-08-06T09:45:09Z</time>
      </trkpt>
      <trkpt lat="47.54006" lon="-2.72382">
        <ele>9.4</ele>
        <time>2021-08-06T09:45:10Z</time>
      </trkpt>
      <trkpt lat="47.54013" lon="-2.7238">
        <ele>9.4</ele>
        <time>2021-08-06T09:45:11Z</time>
      </trkpt>
      <trkpt lat="47.54018" lon="-2.72379">
        <ele>9</ele>
        <time>2021-08-06T09:45:12Z</time>
      </trkpt>
      <trkpt lat="47.54023" lon="-2.72378">
        <ele>8.6</ele>
        <time>2021-08-06T09:45:13Z</time>
      </trkpt>
      <trkpt lat="47.54029" lon="-2.72377">
        <ele>8.4</ele>
        <time>2021-08-06T09:45:14Z</time>
      </trkpt>
      <trkpt lat="47.54035" lon="-2.72376">
        <ele>8.4</ele>
        <time>2021-08-06T09:45:15Z</time>
      </trkpt>
      <trkpt lat="47.54041" lon="-2.72375">
        <ele>8.2</ele>
        <time>2021-08-06T09:45:16Z</time>
      </trkpt>
      <trkpt lat="47.54048" lon="-2.72373">
        <ele>8.2</ele>
        <time>2021-08-06T09:45:17Z</time>
      </trkpt>
      <trkpt lat="47.54055" lon="-2.72372">
        <ele>8.2</ele>
        <time>2021-08-06T09:45:18Z</time>
      </trkpt>
      <trkpt lat="47.54062" lon="-2.72371">
        <ele>8.2</ele>
        <time>2021-08-06T09:45:19Z</time>
      </trkpt>
      <trkpt lat="47.54069" lon="-2.72369">
        <ele>8</ele>
        <time>2021-08-06T09:45:20Z</time>
      </trkpt>
      <trkpt lat="47.54074" lon="-2.72367">
        <ele>8</ele>
        <time>2021-08-06T09:45:21Z</time>
      </trkpt>
      <trkpt lat="47.5408" lon="-2.72367">
        <ele>8</ele>
        <time>2021-08-06T09:45:22Z</time>
      </trkpt>
      <trkpt lat="47.54084" lon="-2.72366">
        <ele>8</ele>
        <time>2021-08-06T09:45:23Z</time>
      </trkpt>
      <trkpt lat="47.54089" lon="-2.72365">
        <ele>8</ele>
        <time>2021-08-06T09:45:24Z</time>
      </trkpt>
      <trkpt lat="47.54093" lon="-2.72364">
        <ele>8</ele>
        <time>2021-08-06T09:45:25Z</time>
      </trkpt>
      <trkpt lat="47.54099" lon="-2.72362">
        <ele>8</ele>
        <time>2021-08-06T09:45:26Z</time>
      </trkpt>
      <trkpt lat="47.54104" lon="-2.72361">
        <ele>7.8</ele>
        <time>2021-08-06T09:45:27Z</time>
      </trkpt>
      <trkpt lat="47.5411" lon="-2.7236">
        <ele>7.6</ele>
        <time>2021-08-06T09:45:28Z</time>
      </trkpt>
      <trkpt lat="47.54115" lon="-2.72359">
        <ele>7.6</ele>
        <time>2021-08-06T09:45:29Z</time>
      </trkpt>
      <trkpt lat="47.54121" lon="-2.72358">
        <ele>7.6</ele>
        <time>2021-08-06T09:45:30Z</time>
      </trkpt>
      <trkpt lat="47.54126" lon="-2.72356">
        <ele>7.6</ele>
        <time>2021-08-06T09:45:31Z</time>
      </trkpt>
      <trkpt lat="47.54131" lon="-2.72355">
        <ele>7.4</ele>
        <time>2021-08-06T09:45:32Z</time>
      </trkpt>
      <trkpt lat="47.54136" lon="-2.72354">
        <ele>7.4</ele>
        <time>2021-08-06T09:45:33Z</time>
      </trkpt>
      <trkpt lat="47.54141" lon="-2.72352">
        <ele>7.4</ele>
        <time>2021-08-06T09:45:34Z</time>
      </trkpt>
      <trkpt lat="47.54145" lon="-2.72352">
        <ele>7.4</ele>
        <time>2021-08-06T09:45:35Z</time>
      </trkpt>
      <trkpt lat="47.54149" lon="-2.72351">
        <ele>7.4</ele>
        <time>2021-08-06T09:45:36Z</time>
      </trkpt>
      <trkpt lat="47.54153" lon="-2.7235">
        <ele>7.4</ele>
        <time>2021-08-06T09:45:37Z</time>
      </trkpt>
      <trkpt lat="47.54158" lon="-2.72349">
        <ele>7.4</ele>
        <time>2021-08-06T09:45:38Z</time>
      </trkpt>
      <trkpt lat="47.54162" lon="-2.72348">
        <ele>7.6</ele>
        <time>2021-08-06T09:45:39Z</time>
      </trkpt>
      <trkpt lat="47.54167" lon="-2.72347">
        <ele>7.8</ele>
        <time>2021-08-06T09:45:40Z</time>
      </trkpt>
      <trkpt lat="47.54172" lon="-2.72345">
        <ele>8</ele>
        <time>2021-08-06T09:45:41Z</time>
      </trkpt>
      <trkpt lat="47.54177" lon="-2.72344">
        <ele>8</ele>
        <time>2021-08-06T09:45:42Z</time>
      </trkpt>
      <trkpt lat="47.54182" lon="-2.72342">
        <ele>8</ele>
        <time>2021-08-06T09:45:43Z</time>
      </trkpt>
      <trkpt lat="47.54187" lon="-2.72341">
        <ele>8</ele>
        <time>2021-08-06T09:45:44Z</time>
      </trkpt>
      <trkpt lat="47.54191" lon="-2.7234">
        <ele>8</ele>
        <time>2021-08-06T09:45:45Z</time>
      </trkpt>
      <trkpt lat="47.54196" lon="-2.72338">
        <ele>8</ele>
        <time>2021-08-06T09:45:46Z</time>
      </trkpt>
      <trkpt lat="47.54201" lon="-2.72337">
        <ele>8.2</ele>
        <time>2021-08-06T09:45:47Z</time>
      </trkpt>
      <trkpt lat="47.54206" lon="-2.72336">
        <ele>8.2</ele>
        <time>2021-08-06T09:45:48Z</time>
      </trkpt>
      <trkpt lat="47.5421" lon="-2.72335">
        <ele>8.2</ele>
        <time>2021-08-06T09:45:49Z</time>
      </trkpt>
      <trkpt lat="47.54215" lon="-2.72334">
        <ele>8.4</ele>
        <time>2021-08-06T09:45:50Z</time>
      </trkpt>
      <trkpt lat="47.54219" lon="-2.72333">
        <ele>8.4</ele>
        <time>2021-08-06T09:45:51Z</time>
      </trkpt>
      <trkpt lat="47.54223" lon="-2.72332">
        <ele>8.4</ele>
        <time>2021-08-06T09:45:52Z</time>
      </trkpt>
      <trkpt lat="47.54226" lon="-2.72332">
        <ele>8.4</ele>
        <time>2021-08-06T09:45:53Z</time>
      </trkpt>
      <trkpt lat="47.5423" lon="-2.72331">
        <ele>8.4</ele>
        <time>2021-08-06T09:45:54Z</time>
      </trkpt>
      <trkpt lat="47.54234" lon="-2.7233">
        <ele>8.4</ele>
        <time>2021-08-06T09:45:55Z</time>
      </trkpt>
      <trkpt lat="47.54238" lon="-2.72329">
        <ele>8.4</ele>
        <time>2021-08-06T09:45:56Z</time>
      </trkpt>
      <trkpt lat="47.54242" lon="-2.72328">
        <ele>8.4</ele>
        <time>2021-08-06T09:45:57Z</time>
      </trkpt>
      <trkpt lat="47.54246" lon="-2.72327">
        <ele>8.4</ele>
        <time>2021-08-06T09:45:58Z</time>
      </trkpt>
      <trkpt lat="47.5425" lon="-2.72327">
        <ele>8.4</ele>
        <time>2021-08-06T09:45:59Z</time>
      </trkpt>
      <trkpt lat="47.54253" lon="-2.72326">
        <ele>8.6</ele>
        <time>2021-08-06T09:46:00Z</time>
      </trkpt>
      <trkpt lat="47.54257" lon="-2.72326">
        <ele>8.6</ele>
        <time>2021-08-06T09:46:01Z</time>
      </trkpt>
      <trkpt lat="47.5426" lon="-2.72325">
        <ele>8.6</ele>
        <time>2021-08-06T09:46:02Z</time>
      </trkpt>
      <trkpt lat="47.54264" lon="-2.72325">
        <ele>8.6</ele>
        <time>2021-08-06T09:46:03Z</time>
      </trkpt>
      <trkpt lat="47.54268" lon="-2.72324">
        <ele>8.6</ele>
        <time>2021-08-06T09:46:04Z</time>
      </trkpt>
      <trkpt lat="47.54271" lon="-2.72323">
        <ele>8.8</ele>
        <time>2021-08-06T09:46:05Z</time>
      </trkpt>
      <trkpt lat="47.54275" lon="-2.72322">
        <ele>8.8</ele>
        <time>2021-08-06T09:46:06Z</time>
      </trkpt>
      <trkpt lat="47.54279" lon="-2.72322">
        <ele>8.8</ele>
        <time>2021-08-06T09:46:07Z</time>
      </trkpt>
      <trkpt lat="47.54283" lon="-2.72321">
        <ele>8.8</ele>
        <time>2021-08-06T09:46:08Z</time>
      </trkpt>
      <trkpt lat="47.54286" lon="-2.7232">
        <ele>8.8</ele>
        <time>2021-08-06T09:46:09Z</time>
      </trkpt>
      <trkpt lat="47.5429" lon="-2.7232">
        <ele>8.8</ele>
        <time>2021-08-06T09:46:10Z</time>
      </trkpt>
      <trkpt lat="47.54293" lon="-2.72319">
        <ele>8.8</ele>
        <time>2021-08-06T09:46:11Z</time>
      </trkpt>
      <trkpt lat="47.54296" lon="-2.72319">
        <ele>9</ele>
        <time>2021-08-06T09:46:12Z</time>
      </trkpt>
      <trkpt lat="47.543" lon="-2.72318">
        <ele>9</ele>
        <time>2021-08-06T09:46:13Z</time>
      </trkpt>
      <trkpt lat="47.54304" lon="-2.72317">
        <ele>8.8</ele>
        <time>2021-08-06T09:46:14Z</time>
      </trkpt>
      <trkpt lat="47.54307" lon="-2.72316">
        <ele>8.8</ele>
        <time>2021-08-06T09:46:15Z</time>
      </trkpt>
      <trkpt lat="47.54311" lon="-2.72315">
        <ele>9</ele>
        <time>2021-08-06T09:46:16Z</time>
      </trkpt>
      <trkpt lat="47.54314" lon="-2.72314">
        <ele>9</ele>
        <time>2021-08-06T09:46:17Z</time>
      </trkpt>
      <trkpt lat="47.54318" lon="-2.72313">
        <ele>9.2</ele>
        <time>2021-08-06T09:46:18Z</time>
      </trkpt>
      <trkpt lat="47.54321" lon="-2.72312">
        <ele>9</ele>
        <time>2021-08-06T09:46:19Z</time>
      </trkpt>
      <trkpt lat="47.54325" lon="-2.72311">
        <ele>9.4</ele>
        <time>2021-08-06T09:46:20Z</time>
      </trkpt>
      <trkpt lat="47.54329" lon="-2.7231">
        <ele>9.4</ele>
        <time>2021-08-06T09:46:21Z</time>
      </trkpt>
      <trkpt lat="47.54332" lon="-2.72309">
        <ele>9.6</ele>
        <time>2021-08-06T09:46:22Z</time>
      </trkpt>
      <trkpt lat="47.54336" lon="-2.72308">
        <ele>9.6</ele>
        <time>2021-08-06T09:46:23Z</time>
      </trkpt>
      <trkpt lat="47.54339" lon="-2.72307">
        <ele>9.6</ele>
        <time>2021-08-06T09:46:24Z</time>
      </trkpt>
      <trkpt lat="47.54343" lon="-2.72306">
        <ele>9.6</ele>
        <time>2021-08-06T09:46:25Z</time>
      </trkpt>
      <trkpt lat="47.54347" lon="-2.72305">
        <ele>9.8</ele>
        <time>2021-08-06T09:46:26Z</time>
      </trkpt>
      <trkpt lat="47.54351" lon="-2.72304">
        <ele>9.8</ele>
        <time>2021-08-06T09:46:27Z</time>
      </trkpt>
      <trkpt lat="47.54355" lon="-2.72303">
        <ele>9.8</ele>
        <time>2021-08-06T09:46:28Z</time>
      </trkpt>
      <trkpt lat="47.54359" lon="-2.72302">
        <ele>10</ele>
        <time>2021-08-06T09:46:29Z</time>
      </trkpt>
      <trkpt lat="47.54363" lon="-2.72301">
        <ele>10</ele>
        <time>2021-08-06T09:46:30Z</time>
      </trkpt>
      <trkpt lat="47.54367" lon="-2.723">
        <ele>10</ele>
        <time>2021-08-06T09:46:31Z</time>
      </trkpt>
      <trkpt lat="47.54371" lon="-2.72299">
        <ele>10.2</ele>
        <time>2021-08-06T09:46:32Z</time>
      </trkpt>
      <trkpt lat="47.54374" lon="-2.72298">
        <ele>10.2</ele>
        <time>2021-08-06T09:46:33Z</time>
      </trkpt>
      <trkpt lat="47.54378" lon="-2.72297">
        <ele>10.2</ele>
        <time>2021-08-06T09:46:34Z</time>
      </trkpt>
      <trkpt lat="47.54382" lon="-2.72296">
        <ele>10.4</ele>
        <time>2021-08-06T09:46:35Z</time>
      </trkpt>
      <trkpt lat="47.54385" lon="-2.72295">
        <ele>10.4</ele>
        <time>2021-08-06T09:46:36Z</time>
      </trkpt>
      <trkpt lat="47.54389" lon="-2.72294">
        <ele>10.4</ele>
        <time>2021-08-06T09:46:37Z</time>
      </trkpt>
      <trkpt lat="47.54393" lon="-2.72294">
        <ele>10.4</ele>
        <time>2021-08-06T09:46:38Z</time>
      </trkpt>
      <trkpt lat="47.54396" lon="-2.72293">
        <ele>10.4</ele>
        <time>2021-08-06T09:46:39Z</time>
      </trkpt>
      <trkpt lat="47.544" lon="-2.72292">
        <ele>10.4</ele>
        <time>2021-08-06T09:46:40Z</time>
      </trkpt>
      <trkpt lat="47.54404" lon="-2.72291">
        <ele>10.4</ele>
        <time>2021-08-06T09:46:41Z</time>
      </trkpt>
      <trkpt lat="47.54408" lon="-2.7229">
        <ele>10.4</ele>
        <time>2021-08-06T09:46:42Z</time>
      </trkpt>
      <trkpt lat="47.54412" lon="-2.72289">
        <ele>10.4</ele>
        <time>2021-08-06T09:46:43Z</time>
      </trkpt>
      <trkpt lat="47.54416" lon="-2.72288">
        <ele>10.4</ele>
        <time>2021-08-06T09:46:44Z</time>
      </trkpt>
      <trkpt lat="47.5442" lon="-2.72285">
        <ele>10.4</ele>
        <time>2021-08-06T09:46:45Z</time>
      </trkpt>
      <trkpt lat="47.54423" lon="-2.72281">
        <ele>10.6</ele>
        <time>2021-08-06T09:46:46Z</time>
      </trkpt>
      <trkpt lat="47.54426" lon="-2.72277">
        <ele>10.6</ele>
        <time>2021-08-06T09:46:47Z</time>
      </trkpt>
      <trkpt lat="47.54429" lon="-2.72272">
        <ele>10.6</ele>
        <time>2021-08-06T09:46:48Z</time>
      </trkpt>
      <trkpt lat="47.54431" lon="-2.72268">
        <ele>10.6</ele>
        <time>2021-08-06T09:46:49Z</time>
      </trkpt>
      <trkpt lat="47.54434" lon="-2.72263">
        <ele>10.6</ele>
        <time>2021-08-06T09:46:50Z</time>
      </trkpt>
      <trkpt lat="47.54437" lon="-2.72258">
        <ele>10.8</ele>
        <time>2021-08-06T09:46:51Z</time>
      </trkpt>
      <trkpt lat="47.5444" lon="-2.72253">
        <ele>10.8</ele>
        <time>2021-08-06T09:46:52Z</time>
      </trkpt>
      <trkpt lat="47.54443" lon="-2.72248">
        <ele>11</ele>
        <time>2021-08-06T09:46:53Z</time>
      </trkpt>
      <trkpt lat="47.54445" lon="-2.72242">
        <ele>11</ele>
        <time>2021-08-06T09:46:54Z</time>
      </trkpt>
      <trkpt lat="47.54448" lon="-2.72237">
        <ele>11</ele>
        <time>2021-08-06T09:46:55Z</time>
      </trkpt>
      <trkpt lat="47.54451" lon="-2.72232">
        <ele>11</ele>
        <time>2021-08-06T09:46:56Z</time>
      </trkpt>
      <trkpt lat="47.54454" lon="-2.72227">
        <ele>11</ele>
        <time>2021-08-06T09:46:57Z</time>
      </trkpt>
      <trkpt lat="47.54458" lon="-2.72221">
        <ele>11</ele>
        <time>2021-08-06T09:46:58Z</time>
      </trkpt>
      <trkpt lat="47.54461" lon="-2.72216">
        <ele>11</ele>
        <time>2021-08-06T09:46:59Z</time>
      </trkpt>
      <trkpt lat="47.54464" lon="-2.7221">
        <ele>11</ele>
        <time>2021-08-06T09:47:00Z</time>
      </trkpt>
      <trkpt lat="47.54468" lon="-2.72205">
        <ele>11.2</ele>
        <time>2021-08-06T09:47:01Z</time>
      </trkpt>
      <trkpt lat="47.54471" lon="-2.722">
        <ele>11.2</ele>
        <time>2021-08-06T09:47:02Z</time>
      </trkpt>
      <trkpt lat="47.54474" lon="-2.72195">
        <ele>11.2</ele>
        <time>2021-08-06T09:47:03Z</time>
      </trkpt>
      <trkpt lat="47.54477" lon="-2.7219">
        <ele>11.2</ele>
        <time>2021-08-06T09:47:04Z</time>
      </trkpt>
      <trkpt lat="47.54481" lon="-2.72186">
        <ele>11.2</ele>
        <time>2021-08-06T09:47:05Z</time>
      </trkpt>
      <trkpt lat="47.54484" lon="-2.72181">
        <ele>11.2</ele>
        <time>2021-08-06T09:47:06Z</time>
      </trkpt>
      <trkpt lat="47.54487" lon="-2.72176">
        <ele>11.2</ele>
        <time>2021-08-06T09:47:07Z</time>
      </trkpt>
      <trkpt lat="47.5449" lon="-2.72172">
        <ele>11.2</ele>
        <time>2021-08-06T09:47:08Z</time>
      </trkpt>
      <trkpt lat="47.54493" lon="-2.72167">
        <ele>11.2</ele>
        <time>2021-08-06T09:47:09Z</time>
      </trkpt>
      <trkpt lat="47.54496" lon="-2.72162">
        <ele>11.2</ele>
        <time>2021-08-06T09:47:10Z</time>
      </trkpt>
      <trkpt lat="47.545" lon="-2.72157">
        <ele>11.4</ele>
        <time>2021-08-06T09:47:11Z</time>
      </trkpt>
      <trkpt lat="47.54503" lon="-2.72152">
        <ele>11.4</ele>
        <time>2021-08-06T09:47:12Z</time>
      </trkpt>
      <trkpt lat="47.54506" lon="-2.72146">
        <ele>11.4</ele>
        <time>2021-08-06T09:47:13Z</time>
      </trkpt>
      <trkpt lat="47.54509" lon="-2.7214">
        <ele>11.4</ele>
        <time>2021-08-06T09:47:14Z</time>
      </trkpt>
      <trkpt lat="47.54512" lon="-2.72134">
        <ele>11.4</ele>
        <time>2021-08-06T09:47:15Z</time>
      </trkpt>
      <trkpt lat="47.54515" lon="-2.72128">
        <ele>11.4</ele>
        <time>2021-08-06T09:47:16Z</time>
      </trkpt>
      <trkpt lat="47.54519" lon="-2.72123">
        <ele>11.4</ele>
        <time>2021-08-06T09:47:17Z</time>
      </trkpt>
      <trkpt lat="47.54522" lon="-2.72118">
        <ele>11.4</ele>
        <time>2021-08-06T09:47:18Z</time>
      </trkpt>
      <trkpt lat="47.54526" lon="-2.72113">
        <ele>11.4</ele>
        <time>2021-08-06T09:47:19Z</time>
      </trkpt>
      <trkpt lat="47.54529" lon="-2.72109">
        <ele>11.4</ele>
        <time>2021-08-06T09:47:20Z</time>
      </trkpt>
      <trkpt lat="47.54533" lon="-2.72104">
        <ele>11.4</ele>
        <time>2021-08-06T09:47:21Z</time>
      </trkpt>
      <trkpt lat="47.54537" lon="-2.72099">
        <ele>11.4</ele>
        <time>2021-08-06T09:47:22Z</time>
      </trkpt>
      <trkpt lat="47.5454" lon="-2.72094">
        <ele>11.4</ele>
        <time>2021-08-06T09:47:23Z</time>
      </trkpt>
      <trkpt lat="47.54543" lon="-2.72089">
        <ele>11.4</ele>
        <time>2021-08-06T09:47:24Z</time>
      </trkpt>
      <trkpt lat="47.54546" lon="-2.72084">
        <ele>11.4</ele>
        <time>2021-08-06T09:47:25Z</time>
      </trkpt>
      <trkpt lat="47.5455" lon="-2.7208">
        <ele>11.4</ele>
        <time>2021-08-06T09:47:26Z</time>
      </trkpt>
      <trkpt lat="47.54553" lon="-2.72076">
        <ele>11.4</ele>
        <time>2021-08-06T09:47:27Z</time>
      </trkpt>
      <trkpt lat="47.54556" lon="-2.72072">
        <ele>11.6</ele>
        <time>2021-08-06T09:47:28Z</time>
      </trkpt>
      <trkpt lat="47.5456" lon="-2.72067">
        <ele>11.6</ele>
        <time>2021-08-06T09:47:29Z</time>
      </trkpt>
      <trkpt lat="47.54563" lon="-2.72063">
        <ele>11.6</ele>
        <time>2021-08-06T09:47:30Z</time>
      </trkpt>
      <trkpt lat="47.54566" lon="-2.72058">
        <ele>11.8</ele>
        <time>2021-08-06T09:47:31Z</time>
      </trkpt>
      <trkpt lat="47.5457" lon="-2.72054">
        <ele>11.8</ele>
        <time>2021-08-06T09:47:32Z</time>
      </trkpt>
      <trkpt lat="47.54574" lon="-2.7205">
        <ele>11.8</ele>
        <time>2021-08-06T09:47:33Z</time>
      </trkpt>
      <trkpt lat="47.54577" lon="-2.72046">
        <ele>12</ele>
        <time>2021-08-06T09:47:34Z</time>
      </trkpt>
      <trkpt lat="47.54581" lon="-2.72041">
        <ele>12</ele>
        <time>2021-08-06T09:47:35Z</time>
      </trkpt>
      <trkpt lat="47.54584" lon="-2.72037">
        <ele>12</ele>
        <time>2021-08-06T09:47:36Z</time>
      </trkpt>
      <trkpt lat="47.54588" lon="-2.72033">
        <ele>12</ele>
        <time>2021-08-06T09:47:37Z</time>
      </trkpt>
      <trkpt lat="47.54591" lon="-2.72029">
        <ele>12</ele>
        <time>2021-08-06T09:47:38Z</time>
      </trkpt>
      <trkpt lat="47.54594" lon="-2.72025">
        <ele>12</ele>
        <time>2021-08-06T09:47:39Z</time>
      </trkpt>
      <trkpt lat="47.54598" lon="-2.72021">
        <ele>12</ele>
        <time>2021-08-06T09:47:40Z</time>
      </trkpt>
      <trkpt lat="47.54601" lon="-2.72017">
        <ele>12</ele>
        <time>2021-08-06T09:47:41Z</time>
      </trkpt>
      <trkpt lat="47.54605" lon="-2.72013">
        <ele>12</ele>
        <time>2021-08-06T09:47:42Z</time>
      </trkpt>
      <trkpt lat="47.54608" lon="-2.72009">
        <ele>12</ele>
        <time>2021-08-06T09:47:43Z</time>
      </trkpt>
      <trkpt lat="47.54611" lon="-2.72005">
        <ele>12</ele>
        <time>2021-08-06T09:47:44Z</time>
      </trkpt>
      <trkpt lat="47.54615" lon="-2.72001">
        <ele>12.2</ele>
        <time>2021-08-06T09:47:45Z</time>
      </trkpt>
      <trkpt lat="47.54618" lon="-2.71997">
        <ele>12.2</ele>
        <time>2021-08-06T09:47:46Z</time>
      </trkpt>
      <trkpt lat="47.54621" lon="-2.71994">
        <ele>12.2</ele>
        <time>2021-08-06T09:47:47Z</time>
      </trkpt>
      <trkpt lat="47.54624" lon="-2.7199">
        <ele>12</ele>
        <time>2021-08-06T09:47:48Z</time>
      </trkpt>
      <trkpt lat="47.54628" lon="-2.71987">
        <ele>12</ele>
        <time>2021-08-06T09:47:49Z</time>
      </trkpt>
      <trkpt lat="47.54631" lon="-2.71983">
        <ele>12</ele>
        <time>2021-08-06T09:47:50Z</time>
      </trkpt>
      <trkpt lat="47.54634" lon="-2.71978">
        <ele>12.2</ele>
        <time>2021-08-06T09:47:51Z</time>
      </trkpt>
      <trkpt lat="47.54636" lon="-2.71973">
        <ele>12.2</ele>
        <time>2021-08-06T09:47:52Z</time>
      </trkpt>
      <trkpt lat="47.54639" lon="-2.71968">
        <ele>12.2</ele>
        <time>2021-08-06T09:47:53Z</time>
      </trkpt>
      <trkpt lat="47.54639" lon="-2.71961">
        <ele>12.2</ele>
        <time>2021-08-06T09:47:54Z</time>
      </trkpt>
      <trkpt lat="47.54638" lon="-2.71955">
        <ele>12.2</ele>
        <time>2021-08-06T09:47:55Z</time>
      </trkpt>
      <trkpt lat="47.54636" lon="-2.7195">
        <ele>12.2</ele>
        <time>2021-08-06T09:47:56Z</time>
      </trkpt>
      <trkpt lat="47.54634" lon="-2.71945">
        <ele>12.2</ele>
        <time>2021-08-06T09:47:57Z</time>
      </trkpt>
      <trkpt lat="47.54632" lon="-2.71941">
        <ele>12</ele>
        <time>2021-08-06T09:47:58Z</time>
      </trkpt>
      <trkpt lat="47.5463" lon="-2.71938">
        <ele>12</ele>
        <time>2021-08-06T09:47:59Z</time>
      </trkpt>
      <trkpt lat="47.54629" lon="-2.71934">
        <ele>12</ele>
        <time>2021-08-06T09:48:00Z</time>
      </trkpt>
      <trkpt lat="47.54628" lon="-2.7193">
        <ele>12</ele>
        <time>2021-08-06T09:48:01Z</time>
      </trkpt>
      <trkpt lat="47.54627" lon="-2.71925">
        <ele>12</ele>
        <time>2021-08-06T09:48:02Z</time>
      </trkpt>
      <trkpt lat="47.54627" lon="-2.71921">
        <ele>11.8</ele>
        <time>2021-08-06T09:48:03Z</time>
      </trkpt>
      <trkpt lat="47.54628" lon="-2.71916">
        <ele>11.8</ele>
        <time>2021-08-06T09:48:04Z</time>
      </trkpt>
      <trkpt lat="47.54629" lon="-2.71911">
        <ele>11.8</ele>
        <time>2021-08-06T09:48:05Z</time>
      </trkpt>
      <trkpt lat="47.5463" lon="-2.71906">
        <ele>11.6</ele>
        <time>2021-08-06T09:48:06Z</time>
      </trkpt>
      <trkpt lat="47.54631" lon="-2.71902">
        <ele>11.6</ele>
        <time>2021-08-06T09:48:07Z</time>
      </trkpt>
      <trkpt lat="47.54634" lon="-2.71899">
        <ele>11.6</ele>
        <time>2021-08-06T09:48:08Z</time>
      </trkpt>
      <trkpt lat="47.54636" lon="-2.71898">
        <ele>11.4</ele>
        <time>2021-08-06T09:48:09Z</time>
      </trkpt>
      <trkpt lat="47.54638" lon="-2.71899">
        <ele>11.4</ele>
        <time>2021-08-06T09:48:10Z</time>
      </trkpt>
      <trkpt lat="47.5464" lon="-2.71901">
        <ele>11.4</ele>
        <time>2021-08-06T09:48:11Z</time>
      </trkpt>
      <trkpt lat="47.54642" lon="-2.71904">
        <ele>11.6</ele>
        <time>2021-08-06T09:48:12Z</time>
      </trkpt>
      <trkpt lat="47.54643" lon="-2.71906">
        <ele>11.6</ele>
        <time>2021-08-06T09:48:13Z</time>
      </trkpt>
      <trkpt lat="47.54646" lon="-2.71908">
        <ele>11.6</ele>
        <time>2021-08-06T09:48:14Z</time>
      </trkpt>
      <trkpt lat="47.54648" lon="-2.7191">
        <ele>11.8</ele>
        <time>2021-08-06T09:48:15Z</time>
      </trkpt>
      <trkpt lat="47.54651" lon="-2.71911">
        <ele>11.6</ele>
        <time>2021-08-06T09:48:16Z</time>
      </trkpt>
      <trkpt lat="47.54655" lon="-2.71911">
        <ele>11.6</ele>
        <time>2021-08-06T09:48:17Z</time>
      </trkpt>
      <trkpt lat="47.54658" lon="-2.7191">
        <ele>11.6</ele>
        <time>2021-08-06T09:48:18Z</time>
      </trkpt>
      <trkpt lat="47.54662" lon="-2.71911">
        <ele>11.6</ele>
        <time>2021-08-06T09:48:19Z</time>
      </trkpt>
      <trkpt lat="47.54665" lon="-2.71913">
        <ele>11.6</ele>
        <time>2021-08-06T09:48:20Z</time>
      </trkpt>
      <trkpt lat="47.54667" lon="-2.71917">
        <ele>11.6</ele>
        <time>2021-08-06T09:48:21Z</time>
      </trkpt>
      <trkpt lat="47.54668" lon="-2.7192">
        <ele>11.6</ele>
        <time>2021-08-06T09:48:22Z</time>
      </trkpt>
      <trkpt lat="47.5467" lon="-2.71924">
        <ele>11.6</ele>
        <time>2021-08-06T09:48:23Z</time>
      </trkpt>
      <trkpt lat="47.54672" lon="-2.71927">
        <ele>11.6</ele>
        <time>2021-08-06T09:48:24Z</time>
      </trkpt>
      <trkpt lat="47.54674" lon="-2.71926">
        <ele>11.6</ele>
        <time>2021-08-06T09:48:25Z</time>
      </trkpt>
      <trkpt lat="47.54676" lon="-2.71924">
        <ele>11.6</ele>
        <time>2021-08-06T09:48:26Z</time>
      </trkpt>
      <trkpt lat="47.54679" lon="-2.71922">
        <ele>11.6</ele>
        <time>2021-08-06T09:48:27Z</time>
      </trkpt>
      <trkpt lat="47.54681" lon="-2.7192">
        <ele>11.8</ele>
        <time>2021-08-06T09:48:28Z</time>
      </trkpt>
      <trkpt lat="47.54684" lon="-2.71918">
        <ele>11.8</ele>
        <time>2021-08-06T09:48:29Z</time>
      </trkpt>
      <trkpt lat="47.54687" lon="-2.71916">
        <ele>11.8</ele>
        <time>2021-08-06T09:48:30Z</time>
      </trkpt>
      <trkpt lat="47.5469" lon="-2.71913">
        <ele>11.8</ele>
        <time>2021-08-06T09:48:31Z</time>
      </trkpt>
      <trkpt lat="47.54693" lon="-2.71911">
        <ele>11.8</ele>
        <time>2021-08-06T09:48:32Z</time>
      </trkpt>
      <trkpt lat="47.54696" lon="-2.71909">
        <ele>12</ele>
        <time>2021-08-06T09:48:33Z</time>
      </trkpt>
      <trkpt lat="47.54699" lon="-2.71907">
        <ele>12.2</ele>
        <time>2021-08-06T09:48:34Z</time>
      </trkpt>
      <trkpt lat="47.54702" lon="-2.71905">
        <ele>12.4</ele>
        <time>2021-08-06T09:48:35Z</time>
      </trkpt>
      <trkpt lat="47.54706" lon="-2.71903">
        <ele>12.4</ele>
        <time>2021-08-06T09:48:36Z</time>
      </trkpt>
      <trkpt lat="47.54709" lon="-2.719">
        <ele>12.4</ele>
        <time>2021-08-06T09:48:37Z</time>
      </trkpt>
      <trkpt lat="47.54713" lon="-2.71897">
        <ele>12.4</ele>
        <time>2021-08-06T09:48:38Z</time>
      </trkpt>
      <trkpt lat="47.54717" lon="-2.71895">
        <ele>12.4</ele>
        <time>2021-08-06T09:48:39Z</time>
      </trkpt>
      <trkpt lat="47.54721" lon="-2.71893">
        <ele>12.4</ele>
        <time>2021-08-06T09:48:40Z</time>
      </trkpt>
      <trkpt lat="47.54725" lon="-2.7189">
        <ele>12.4</ele>
        <time>2021-08-06T09:48:41Z</time>
      </trkpt>
      <trkpt lat="47.54729" lon="-2.71887">
        <ele>12.6</ele>
        <time>2021-08-06T09:48:42Z</time>
      </trkpt>
      <trkpt lat="47.54734" lon="-2.71886">
        <ele>12.6</ele>
        <time>2021-08-06T09:48:43Z</time>
      </trkpt>
      <trkpt lat="47.54738" lon="-2.71886">
        <ele>12.6</ele>
        <time>2021-08-06T09:48:44Z</time>
      </trkpt>
      <trkpt lat="47.54742" lon="-2.71887">
        <ele>12.6</ele>
        <time>2021-08-06T09:48:45Z</time>
      </trkpt>
      <trkpt lat="47.54746" lon="-2.71886">
        <ele>12.6</ele>
        <time>2021-08-06T09:48:46Z</time>
      </trkpt>
      <trkpt lat="47.5475" lon="-2.71884">
        <ele>12.6</ele>
        <time>2021-08-06T09:48:47Z</time>
      </trkpt>
      <trkpt lat="47.54754" lon="-2.71882">
        <ele>12.6</ele>
        <time>2021-08-06T09:48:48Z</time>
      </trkpt>
      <trkpt lat="47.54759" lon="-2.7188">
        <ele>12.6</ele>
        <time>2021-08-06T09:48:49Z</time>
      </trkpt>
      <trkpt lat="47.54763" lon="-2.71878">
        <ele>12.6</ele>
        <time>2021-08-06T09:48:50Z</time>
      </trkpt>
      <trkpt lat="47.54768" lon="-2.71877">
        <ele>12.4</ele>
        <time>2021-08-06T09:48:51Z</time>
      </trkpt>
      <trkpt lat="47.54773" lon="-2.71875">
        <ele>12.4</ele>
        <time>2021-08-06T09:48:52Z</time>
      </trkpt>
      <trkpt lat="47.54778" lon="-2.71873">
        <ele>12.4</ele>
        <time>2021-08-06T09:48:53Z</time>
      </trkpt>
      <trkpt lat="47.54783" lon="-2.71871">
        <ele>12.4</ele>
        <time>2021-08-06T09:48:54Z</time>
      </trkpt>
      <trkpt lat="47.54788" lon="-2.71869">
        <ele>12.2</ele>
        <time>2021-08-06T09:48:55Z</time>
      </trkpt>
      <trkpt lat="47.54793" lon="-2.71868">
        <ele>12.2</ele>
        <time>2021-08-06T09:48:56Z</time>
      </trkpt>
      <trkpt lat="47.54798" lon="-2.71866">
        <ele>12</ele>
        <time>2021-08-06T09:48:57Z</time>
      </trkpt>
      <trkpt lat="47.54804" lon="-2.71864">
        <ele>12</ele>
        <time>2021-08-06T09:48:58Z</time>
      </trkpt>
      <trkpt lat="47.54809" lon="-2.71861">
        <ele>12</ele>
        <time>2021-08-06T09:48:59Z</time>
      </trkpt>
      <trkpt lat="47.54815" lon="-2.71859">
        <ele>11.8</ele>
        <time>2021-08-06T09:49:00Z</time>
      </trkpt>
      <trkpt lat="47.54821" lon="-2.71857">
        <ele>11.6</ele>
        <time>2021-08-06T09:49:01Z</time>
      </trkpt>
      <trkpt lat="47.54826" lon="-2.71855">
        <ele>11.2</ele>
        <time>2021-08-06T09:49:02Z</time>
      </trkpt>
      <trkpt lat="47.54832" lon="-2.71853">
        <ele>11</ele>
        <time>2021-08-06T09:49:03Z</time>
      </trkpt>
      <trkpt lat="47.54838" lon="-2.7185">
        <ele>10.8</ele>
        <time>2021-08-06T09:49:04Z</time>
      </trkpt>
      <trkpt lat="47.54844" lon="-2.71848">
        <ele>10.8</ele>
        <time>2021-08-06T09:49:05Z</time>
      </trkpt>
      <trkpt lat="47.5485" lon="-2.71845">
        <ele>10.4</ele>
        <time>2021-08-06T09:49:06Z</time>
      </trkpt>
      <trkpt lat="47.54856" lon="-2.71843">
        <ele>10.2</ele>
        <time>2021-08-06T09:49:07Z</time>
      </trkpt>
      <trkpt lat="47.54862" lon="-2.7184">
        <ele>10</ele>
        <time>2021-08-06T09:49:08Z</time>
      </trkpt>
      <trkpt lat="47.54868" lon="-2.71838">
        <ele>10</ele>
        <time>2021-08-06T09:49:09Z</time>
      </trkpt>
      <trkpt lat="47.54874" lon="-2.71834">
        <ele>9.8</ele>
        <time>2021-08-06T09:49:10Z</time>
      </trkpt>
      <trkpt lat="47.5488" lon="-2.71831">
        <ele>9.6</ele>
        <time>2021-08-06T09:49:11Z</time>
      </trkpt>
      <trkpt lat="47.54886" lon="-2.71827">
        <ele>9.4</ele>
        <time>2021-08-06T09:49:12Z</time>
      </trkpt>
      <trkpt lat="47.54892" lon="-2.71824">
        <ele>9.2</ele>
        <time>2021-08-06T09:49:13Z</time>
      </trkpt>
      <trkpt lat="47.54898" lon="-2.71821">
        <ele>8.8</ele>
        <time>2021-08-06T09:49:14Z</time>
      </trkpt>
      <trkpt lat="47.54904" lon="-2.71818">
        <ele>8.6</ele>
        <time>2021-08-06T09:49:15Z</time>
      </trkpt>
      <trkpt lat="47.5491" lon="-2.71815">
        <ele>8.6</ele>
        <time>2021-08-06T09:49:16Z</time>
      </trkpt>
      <trkpt lat="47.54915" lon="-2.71811">
        <ele>8.4</ele>
        <time>2021-08-06T09:49:17Z</time>
      </trkpt>
      <trkpt lat="47.54921" lon="-2.71808">
        <ele>8.2</ele>
        <time>2021-08-06T09:49:18Z</time>
      </trkpt>
      <trkpt lat="47.54926" lon="-2.71805">
        <ele>8.2</ele>
        <time>2021-08-06T09:49:19Z</time>
      </trkpt>
      <trkpt lat="47.54931" lon="-2.71802">
        <ele>8.2</ele>
        <time>2021-08-06T09:49:20Z</time>
      </trkpt>
      <trkpt lat="47.54936" lon="-2.71799">
        <ele>8.2</ele>
        <time>2021-08-06T09:49:21Z</time>
      </trkpt>
      <trkpt lat="47.54941" lon="-2.71796">
        <ele>8.2</ele>
        <time>2021-08-06T09:49:22Z</time>
      </trkpt>
      <trkpt lat="47.54946" lon="-2.71793">
        <ele>8.2</ele>
        <time>2021-08-06T09:49:23Z</time>
      </trkpt>
      <trkpt lat="47.5495" lon="-2.7179">
        <ele>8.2</ele>
        <time>2021-08-06T09:49:24Z</time>
      </trkpt>
      <trkpt lat="47.54955" lon="-2.71787">
        <ele>8.2</ele>
        <time>2021-08-06T09:49:25Z</time>
      </trkpt>
      <trkpt lat="47.5496" lon="-2.71784">
        <ele>8.2</ele>
        <time>2021-08-06T09:49:26Z</time>
      </trkpt>
      <trkpt lat="47.54965" lon="-2.71781">
        <ele>8</ele>
        <time>2021-08-06T09:49:27Z</time>
      </trkpt>
      <trkpt lat="47.54969" lon="-2.71778">
        <ele>8</ele>
        <time>2021-08-06T09:49:28Z</time>
      </trkpt>
      <trkpt lat="47.54974" lon="-2.71776">
        <ele>8</ele>
        <time>2021-08-06T09:49:29Z</time>
      </trkpt>
      <trkpt lat="47.5498" lon="-2.71775">
        <ele>8</ele>
        <time>2021-08-06T09:49:30Z</time>
      </trkpt>
      <trkpt lat="47.54985" lon="-2.71772">
        <ele>8</ele>
        <time>2021-08-06T09:49:31Z</time>
      </trkpt>
      <trkpt lat="47.54991" lon="-2.7177">
        <ele>8</ele>
        <time>2021-08-06T09:49:32Z</time>
      </trkpt>
      <trkpt lat="47.54998" lon="-2.71767">
        <ele>8</ele>
        <time>2021-08-06T09:49:33Z</time>
      </trkpt>
      <trkpt lat="47.55004" lon="-2.71764">
        <ele>8</ele>
        <time>2021-08-06T09:49:34Z</time>
      </trkpt>
      <trkpt lat="47.5501" lon="-2.71761">
        <ele>8</ele>
        <time>2021-08-06T09:49:35Z</time>
      </trkpt>
      <trkpt lat="47.55016" lon="-2.71757">
        <ele>8</ele>
        <time>2021-08-06T09:49:36Z</time>
      </trkpt>
      <trkpt lat="47.55022" lon="-2.71753">
        <ele>8</ele>
        <time>2021-08-06T09:49:37Z</time>
      </trkpt>
      <trkpt lat="47.55028" lon="-2.71749">
        <ele>7.6</ele>
        <time>2021-08-06T09:49:38Z</time>
      </trkpt>
      <trkpt lat="47.55034" lon="-2.71744">
        <ele>7.2</ele>
        <time>2021-08-06T09:49:39Z</time>
      </trkpt>
      <trkpt lat="47.55039" lon="-2.7174">
        <ele>6.8</ele>
        <time>2021-08-06T09:49:40Z</time>
      </trkpt>
      <trkpt lat="47.55044" lon="-2.71735">
        <ele>6.6</ele>
        <time>2021-08-06T09:49:41Z</time>
      </trkpt>
      <trkpt lat="47.55049" lon="-2.71729">
        <ele>6.2</ele>
        <time>2021-08-06T09:49:42Z</time>
      </trkpt>
      <trkpt lat="47.55052" lon="-2.71722">
        <ele>6</ele>
        <time>2021-08-06T09:49:43Z</time>
      </trkpt>
      <trkpt lat="47.55054" lon="-2.71714">
        <ele>6</ele>
        <time>2021-08-06T09:49:44Z</time>
      </trkpt>
      <trkpt lat="47.55053" lon="-2.71706">
        <ele>5.8</ele>
        <time>2021-08-06T09:49:45Z</time>
      </trkpt>
      <trkpt lat="47.55051" lon="-2.71699">
        <ele>5.8</ele>
        <time>2021-08-06T09:49:46Z</time>
      </trkpt>
      <trkpt lat="47.55049" lon="-2.71692">
        <ele>5.8</ele>
        <time>2021-08-06T09:49:47Z</time>
      </trkpt>
      <trkpt lat="47.55048" lon="-2.71685">
        <ele>5.8</ele>
        <time>2021-08-06T09:49:48Z</time>
      </trkpt>
      <trkpt lat="47.55048" lon="-2.71678">
        <ele>5.8</ele>
        <time>2021-08-06T09:49:49Z</time>
      </trkpt>
      <trkpt lat="47.55049" lon="-2.71674">
        <ele>5.8</ele>
        <time>2021-08-06T09:49:50Z</time>
      </trkpt>
      <trkpt lat="47.55052" lon="-2.71671">
        <ele>5.8</ele>
        <time>2021-08-06T09:49:51Z</time>
      </trkpt>
      <trkpt lat="47.55055" lon="-2.7167">
        <ele>5.8</ele>
        <time>2021-08-06T09:49:52Z</time>
      </trkpt>
      <trkpt lat="47.55057" lon="-2.71669">
        <ele>5.8</ele>
        <time>2021-08-06T09:49:53Z</time>
      </trkpt>
      <trkpt lat="47.55058" lon="-2.71666">
        <ele>5.8</ele>
        <time>2021-08-06T09:49:54Z</time>
      </trkpt>
      <trkpt lat="47.55057" lon="-2.71662">
        <ele>5.8</ele>
        <time>2021-08-06T09:49:55Z</time>
      </trkpt>
      <trkpt lat="47.55057" lon="-2.71659">
        <ele>5.8</ele>
        <time>2021-08-06T09:49:56Z</time>
      </trkpt>
      <trkpt lat="47.55056" lon="-2.71654">
        <ele>5.8</ele>
        <time>2021-08-06T09:49:57Z</time>
      </trkpt>
      <trkpt lat="47.55056" lon="-2.71649">
        <ele>6</ele>
        <time>2021-08-06T09:49:58Z</time>
      </trkpt>
      <trkpt lat="47.55056" lon="-2.71645">
        <ele>6</ele>
        <time>2021-08-06T09:49:59Z</time>
      </trkpt>
      <trkpt lat="47.55057" lon="-2.7164">
        <ele>6</ele>
        <time>2021-08-06T09:50:00Z</time>
      </trkpt>
      <trkpt lat="47.55059" lon="-2.71638">
        <ele>6.2</ele>
        <time>2021-08-06T09:50:01Z</time>
      </trkpt>
      <trkpt lat="47.55062" lon="-2.71637">
        <ele>6.2</ele>
        <time>2021-08-06T09:50:02Z</time>
      </trkpt>
      <trkpt lat="47.55066" lon="-2.71637">
        <ele>6.2</ele>
        <time>2021-08-06T09:50:03Z</time>
      </trkpt>
      <trkpt lat="47.55069" lon="-2.71639">
        <ele>6.4</ele>
        <time>2021-08-06T09:50:04Z</time>
      </trkpt>
      <trkpt lat="47.55072" lon="-2.7164">
        <ele>6.4</ele>
        <time>2021-08-06T09:50:05Z</time>
      </trkpt>
      <trkpt lat="47.55076" lon="-2.71642">
        <ele>6.4</ele>
        <time>2021-08-06T09:50:06Z</time>
      </trkpt>
      <trkpt lat="47.5508" lon="-2.71643">
        <ele>6.6</ele>
        <time>2021-08-06T09:50:07Z</time>
      </trkpt>
      <trkpt lat="47.55084" lon="-2.71644">
        <ele>6.6</ele>
        <time>2021-08-06T09:50:08Z</time>
      </trkpt>
      <trkpt lat="47.55087" lon="-2.71645">
        <ele>6.6</ele>
        <time>2021-08-06T09:50:09Z</time>
      </trkpt>
      <trkpt lat="47.55091" lon="-2.71646">
        <ele>6.6</ele>
        <time>2021-08-06T09:50:10Z</time>
      </trkpt>
      <trkpt lat="47.55095" lon="-2.71648">
        <ele>6.6</ele>
        <time>2021-08-06T09:50:11Z</time>
      </trkpt>
      <trkpt lat="47.55098" lon="-2.7165">
        <ele>6.6</ele>
        <time>2021-08-06T09:50:12Z</time>
      </trkpt>
      <trkpt lat="47.55102" lon="-2.71652">
        <ele>6.6</ele>
        <time>2021-08-06T09:50:13Z</time>
      </trkpt>
      <trkpt lat="47.55106" lon="-2.71652">
        <ele>6.6</ele>
        <time>2021-08-06T09:50:14Z</time>
      </trkpt>
      <trkpt lat="47.5511" lon="-2.7165">
        <ele>6.8</ele>
        <time>2021-08-06T09:50:15Z</time>
      </trkpt>
      <trkpt lat="47.55112" lon="-2.71646">
        <ele>6.8</ele>
        <time>2021-08-06T09:50:16Z</time>
      </trkpt>
      <trkpt lat="47.55113" lon="-2.7164">
        <ele>6.8</ele>
        <time>2021-08-06T09:50:17Z</time>
      </trkpt>
      <trkpt lat="47.55114" lon="-2.71635">
        <ele>6.8</ele>
        <time>2021-08-06T09:50:18Z</time>
      </trkpt>
      <trkpt lat="47.55115" lon="-2.7163">
        <ele>6.8</ele>
        <time>2021-08-06T09:50:19Z</time>
      </trkpt>
      <trkpt lat="47.55117" lon="-2.71626">
        <ele>6.8</ele>
        <time>2021-08-06T09:50:20Z</time>
      </trkpt>
      <trkpt lat="47.55119" lon="-2.71623">
        <ele>6.8</ele>
        <time>2021-08-06T09:50:21Z</time>
      </trkpt>
      <trkpt lat="47.55123" lon="-2.71621">
        <ele>6.8</ele>
        <time>2021-08-06T09:50:22Z</time>
      </trkpt>
      <trkpt lat="47.55126" lon="-2.71621">
        <ele>6.8</ele>
        <time>2021-08-06T09:50:23Z</time>
      </trkpt>
      <trkpt lat="47.55129" lon="-2.71621">
        <ele>7</ele>
        <time>2021-08-06T09:50:24Z</time>
      </trkpt>
      <trkpt lat="47.55132" lon="-2.71622">
        <ele>7</ele>
        <time>2021-08-06T09:50:25Z</time>
      </trkpt>
      <trkpt lat="47.55135" lon="-2.71622">
        <ele>7</ele>
        <time>2021-08-06T09:50:26Z</time>
      </trkpt>
      <trkpt lat="47.55138" lon="-2.71623">
        <ele>7</ele>
        <time>2021-08-06T09:50:27Z</time>
      </trkpt>
      <trkpt lat="47.55141" lon="-2.71624">
        <ele>7</ele>
        <time>2021-08-06T09:50:28Z</time>
      </trkpt>
      <trkpt lat="47.55145" lon="-2.71625">
        <ele>7</ele>
        <time>2021-08-06T09:50:29Z</time>
      </trkpt>
      <trkpt lat="47.55149" lon="-2.71626">
        <ele>7</ele>
        <time>2021-08-06T09:50:30Z</time>
      </trkpt>
      <trkpt lat="47.55154" lon="-2.71627">
        <ele>7</ele>
        <time>2021-08-06T09:50:31Z</time>
      </trkpt>
      <trkpt lat="47.55158" lon="-2.71627">
        <ele>7</ele>
        <time>2021-08-06T09:50:32Z</time>
      </trkpt>
      <trkpt lat="47.55162" lon="-2.71628">
        <ele>7</ele>
        <time>2021-08-06T09:50:33Z</time>
      </trkpt>
      <trkpt lat="47.55167" lon="-2.71629">
        <ele>7</ele>
        <time>2021-08-06T09:50:34Z</time>
      </trkpt>
      <trkpt lat="47.55171" lon="-2.7163">
        <ele>7</ele>
        <time>2021-08-06T09:50:35Z</time>
      </trkpt>
      <trkpt lat="47.55175" lon="-2.71631">
        <ele>6.8</ele>
        <time>2021-08-06T09:50:36Z</time>
      </trkpt>
      <trkpt lat="47.5518" lon="-2.71633">
        <ele>6.8</ele>
        <time>2021-08-06T09:50:37Z</time>
      </trkpt>
      <trkpt lat="47.55184" lon="-2.71634">
        <ele>6.8</ele>
        <time>2021-08-06T09:50:38Z</time>
      </trkpt>
      <trkpt lat="47.55188" lon="-2.71636">
        <ele>6.6</ele>
        <time>2021-08-06T09:50:39Z</time>
      </trkpt>
      <trkpt lat="47.55193" lon="-2.71637">
        <ele>6.6</ele>
        <time>2021-08-06T09:50:40Z</time>
      </trkpt>
      <trkpt lat="47.55197" lon="-2.71638">
        <ele>6.6</ele>
        <time>2021-08-06T09:50:41Z</time>
      </trkpt>
      <trkpt lat="47.55201" lon="-2.7164">
        <ele>6.6</ele>
        <time>2021-08-06T09:50:42Z</time>
      </trkpt>
      <trkpt lat="47.55206" lon="-2.71641">
        <ele>6.6</ele>
        <time>2021-08-06T09:50:43Z</time>
      </trkpt>
      <trkpt lat="47.5521" lon="-2.71642">
        <ele>6.6</ele>
        <time>2021-08-06T09:50:44Z</time>
      </trkpt>
      <trkpt lat="47.55214" lon="-2.71643">
        <ele>6.6</ele>
        <time>2021-08-06T09:50:45Z</time>
      </trkpt>
      <trkpt lat="47.55218" lon="-2.71644">
        <ele>6.6</ele>
        <time>2021-08-06T09:50:46Z</time>
      </trkpt>
      <trkpt lat="47.55223" lon="-2.71645">
        <ele>6.6</ele>
        <time>2021-08-06T09:50:47Z</time>
      </trkpt>
      <trkpt lat="47.55227" lon="-2.71645">
        <ele>6.6</ele>
        <time>2021-08-06T09:50:48Z</time>
      </trkpt>
      <trkpt lat="47.55231" lon="-2.71644">
        <ele>6.8</ele>
        <time>2021-08-06T09:50:49Z</time>
      </trkpt>
      <trkpt lat="47.55235" lon="-2.71642">
        <ele>6.8</ele>
        <time>2021-08-06T09:50:50Z</time>
      </trkpt>
      <trkpt lat="47.55239" lon="-2.7164">
        <ele>6.8</ele>
        <time>2021-08-06T09:50:51Z</time>
      </trkpt>
      <trkpt lat="47.55243" lon="-2.71638">
        <ele>6.8</ele>
        <time>2021-08-06T09:50:52Z</time>
      </trkpt>
      <trkpt lat="47.55246" lon="-2.71635">
        <ele>6.8</ele>
        <time>2021-08-06T09:50:53Z</time>
      </trkpt>
      <trkpt lat="47.5525" lon="-2.71633">
        <ele>6.8</ele>
        <time>2021-08-06T09:50:54Z</time>
      </trkpt>
      <trkpt lat="47.55253" lon="-2.7163">
        <ele>6.8</ele>
        <time>2021-08-06T09:50:55Z</time>
      </trkpt>
      <trkpt lat="47.55256" lon="-2.71628">
        <ele>7</ele>
        <time>2021-08-06T09:50:56Z</time>
      </trkpt>
      <trkpt lat="47.5526" lon="-2.71625">
        <ele>7</ele>
        <time>2021-08-06T09:50:57Z</time>
      </trkpt>
      <trkpt lat="47.55264" lon="-2.71623">
        <ele>7.4</ele>
        <time>2021-08-06T09:50:58Z</time>
      </trkpt>
      <trkpt lat="47.55267" lon="-2.71621">
        <ele>7.6</ele>
        <time>2021-08-06T09:50:59Z</time>
      </trkpt>
      <trkpt lat="47.55271" lon="-2.71619">
        <ele>7.8</ele>
        <time>2021-08-06T09:51:00Z</time>
      </trkpt>
      <trkpt lat="47.55275" lon="-2.71617">
        <ele>8</ele>
        <time>2021-08-06T09:51:01Z</time>
      </trkpt>
      <trkpt lat="47.55279" lon="-2.71614">
        <ele>8.2</ele>
        <time>2021-08-06T09:51:02Z</time>
      </trkpt>
      <trkpt lat="47.55283" lon="-2.71612">
        <ele>8.2</ele>
        <time>2021-08-06T09:51:03Z</time>
      </trkpt>
      <trkpt lat="47.55286" lon="-2.7161">
        <ele>8.4</ele>
        <time>2021-08-06T09:51:04Z</time>
      </trkpt>
      <trkpt lat="47.5529" lon="-2.71607">
        <ele>8.4</ele>
        <time>2021-08-06T09:51:05Z</time>
      </trkpt>
      <trkpt lat="47.55294" lon="-2.71605">
        <ele>8.6</ele>
        <time>2021-08-06T09:51:06Z</time>
      </trkpt>
      <trkpt lat="47.55297" lon="-2.71602">
        <ele>8.6</ele>
        <time>2021-08-06T09:51:07Z</time>
      </trkpt>
      <trkpt lat="47.55301" lon="-2.716">
        <ele>8.6</ele>
        <time>2021-08-06T09:51:08Z</time>
      </trkpt>
      <trkpt lat="47.55305" lon="-2.71598">
        <ele>8.8</ele>
        <time>2021-08-06T09:51:09Z</time>
      </trkpt>
      <trkpt lat="47.55308" lon="-2.71596">
        <ele>9</ele>
        <time>2021-08-06T09:51:10Z</time>
      </trkpt>
      <trkpt lat="47.55312" lon="-2.71594">
        <ele>9.4</ele>
        <time>2021-08-06T09:51:11Z</time>
      </trkpt>
      <trkpt lat="47.55316" lon="-2.71592">
        <ele>9.4</ele>
        <time>2021-08-06T09:51:12Z</time>
      </trkpt>
      <trkpt lat="47.5532" lon="-2.7159">
        <ele>9.6</ele>
        <time>2021-08-06T09:51:13Z</time>
      </trkpt>
      <trkpt lat="47.55324" lon="-2.71587">
        <ele>9.8</ele>
        <time>2021-08-06T09:51:14Z</time>
      </trkpt>
      <trkpt lat="47.55327" lon="-2.71585">
        <ele>9.8</ele>
        <time>2021-08-06T09:51:15Z</time>
      </trkpt>
      <trkpt lat="47.55331" lon="-2.71583">
        <ele>9.8</ele>
        <time>2021-08-06T09:51:16Z</time>
      </trkpt>
      <trkpt lat="47.55335" lon="-2.71581">
        <ele>9.8</ele>
        <time>2021-08-06T09:51:17Z</time>
      </trkpt>
      <trkpt lat="47.55339" lon="-2.71579">
        <ele>9.8</ele>
        <time>2021-08-06T09:51:18Z</time>
      </trkpt>
      <trkpt lat="47.55343" lon="-2.71576">
        <ele>9.8</ele>
        <time>2021-08-06T09:51:19Z</time>
      </trkpt>
      <trkpt lat="47.55347" lon="-2.71573">
        <ele>9.8</ele>
        <time>2021-08-06T09:51:20Z</time>
      </trkpt>
      <trkpt lat="47.55351" lon="-2.7157">
        <ele>9.8</ele>
        <time>2021-08-06T09:51:21Z</time>
      </trkpt>
      <trkpt lat="47.55355" lon="-2.71568">
        <ele>10</ele>
        <time>2021-08-06T09:51:22Z</time>
      </trkpt>
      <trkpt lat="47.55359" lon="-2.71566">
        <ele>10</ele>
        <time>2021-08-06T09:51:23Z</time>
      </trkpt>
      <trkpt lat="47.55364" lon="-2.71564">
        <ele>10</ele>
        <time>2021-08-06T09:51:24Z</time>
      </trkpt>
      <trkpt lat="47.55368" lon="-2.71561">
        <ele>10</ele>
        <time>2021-08-06T09:51:25Z</time>
      </trkpt>
      <trkpt lat="47.55372" lon="-2.71558">
        <ele>10</ele>
        <time>2021-08-06T09:51:26Z</time>
      </trkpt>
      <trkpt lat="47.55377" lon="-2.71556">
        <ele>10</ele>
        <time>2021-08-06T09:51:27Z</time>
      </trkpt>
      <trkpt lat="47.55381" lon="-2.71553">
        <ele>10</ele>
        <time>2021-08-06T09:51:28Z</time>
      </trkpt>
      <trkpt lat="47.55386" lon="-2.7155">
        <ele>10</ele>
        <time>2021-08-06T09:51:29Z</time>
      </trkpt>
      <trkpt lat="47.5539" lon="-2.71547">
        <ele>10</ele>
        <time>2021-08-06T09:51:30Z</time>
      </trkpt>
      <trkpt lat="47.55395" lon="-2.71544">
        <ele>10</ele>
        <time>2021-08-06T09:51:31Z</time>
      </trkpt>
      <trkpt lat="47.554" lon="-2.71541">
        <ele>10</ele>
        <time>2021-08-06T09:51:32Z</time>
      </trkpt>
      <trkpt lat="47.55405" lon="-2.71538">
        <ele>10</ele>
        <time>2021-08-06T09:51:33Z</time>
      </trkpt>
      <trkpt lat="47.5541" lon="-2.71535">
        <ele>10</ele>
        <time>2021-08-06T09:51:34Z</time>
      </trkpt>
      <trkpt lat="47.55415" lon="-2.71532">
        <ele>10</ele>
        <time>2021-08-06T09:51:35Z</time>
      </trkpt>
      <trkpt lat="47.5542" lon="-2.71529">
        <ele>10</ele>
        <time>2021-08-06T09:51:36Z</time>
      </trkpt>
      <trkpt lat="47.55426" lon="-2.71525">
        <ele>10</ele>
        <time>2021-08-06T09:51:37Z</time>
      </trkpt>
      <trkpt lat="47.55431" lon="-2.71522">
        <ele>10</ele>
        <time>2021-08-06T09:51:38Z</time>
      </trkpt>
      <trkpt lat="47.55437" lon="-2.71518">
        <ele>9.8</ele>
        <time>2021-08-06T09:51:39Z</time>
      </trkpt>
      <trkpt lat="47.55443" lon="-2.71515">
        <ele>9.6</ele>
        <time>2021-08-06T09:51:40Z</time>
      </trkpt>
      <trkpt lat="47.55449" lon="-2.71511">
        <ele>9.4</ele>
        <time>2021-08-06T09:51:41Z</time>
      </trkpt>
      <trkpt lat="47.55455" lon="-2.71508">
        <ele>9</ele>
        <time>2021-08-06T09:51:42Z</time>
      </trkpt>
      <trkpt lat="47.5546" lon="-2.71505">
        <ele>8.8</ele>
        <time>2021-08-06T09:51:43Z</time>
      </trkpt>
      <trkpt lat="47.55466" lon="-2.71501">
        <ele>8.4</ele>
        <time>2021-08-06T09:51:44Z</time>
      </trkpt>
      <trkpt lat="47.55472" lon="-2.71498">
        <ele>8.4</ele>
        <time>2021-08-06T09:51:45Z</time>
      </trkpt>
      <trkpt lat="47.55477" lon="-2.71494">
        <ele>8</ele>
        <time>2021-08-06T09:51:46Z</time>
      </trkpt>
      <trkpt lat="47.55483" lon="-2.71491">
        <ele>8</ele>
        <time>2021-08-06T09:51:47Z</time>
      </trkpt>
      <trkpt lat="47.55488" lon="-2.71487">
        <ele>7.8</ele>
        <time>2021-08-06T09:51:48Z</time>
      </trkpt>
      <trkpt lat="47.55494" lon="-2.71484">
        <ele>7.8</ele>
        <time>2021-08-06T09:51:49Z</time>
      </trkpt>
      <trkpt lat="47.55499" lon="-2.71481">
        <ele>7.8</ele>
        <time>2021-08-06T09:51:50Z</time>
      </trkpt>
      <trkpt lat="47.55505" lon="-2.71478">
        <ele>7.6</ele>
        <time>2021-08-06T09:51:51Z</time>
      </trkpt>
      <trkpt lat="47.5551" lon="-2.71475">
        <ele>7.6</ele>
        <time>2021-08-06T09:51:52Z</time>
      </trkpt>
      <trkpt lat="47.55515" lon="-2.71472">
        <ele>7.6</ele>
        <time>2021-08-06T09:51:53Z</time>
      </trkpt>
      <trkpt lat="47.55521" lon="-2.71469">
        <ele>7.6</ele>
        <time>2021-08-06T09:51:54Z</time>
      </trkpt>
      <trkpt lat="47.55526" lon="-2.71466">
        <ele>7.6</ele>
        <time>2021-08-06T09:51:55Z</time>
      </trkpt>
      <trkpt lat="47.55532" lon="-2.71463">
        <ele>7.6</ele>
        <time>2021-08-06T09:51:56Z</time>
      </trkpt>
      <trkpt lat="47.55537" lon="-2.7146">
        <ele>7.6</ele>
        <time>2021-08-06T09:51:57Z</time>
      </trkpt>
      <trkpt lat="47.55542" lon="-2.71457">
        <ele>7.8</ele>
        <time>2021-08-06T09:51:58Z</time>
      </trkpt>
      <trkpt lat="47.55547" lon="-2.71454">
        <ele>7.8</ele>
        <time>2021-08-06T09:51:59Z</time>
      </trkpt>
      <trkpt lat="47.55552" lon="-2.71451">
        <ele>7.8</ele>
        <time>2021-08-06T09:52:00Z</time>
      </trkpt>
      <trkpt lat="47.55557" lon="-2.71448">
        <ele>7.8</ele>
        <time>2021-08-06T09:52:01Z</time>
      </trkpt>
      <trkpt lat="47.55562" lon="-2.71445">
        <ele>8</ele>
        <time>2021-08-06T09:52:02Z</time>
      </trkpt>
      <trkpt lat="47.55567" lon="-2.71442">
        <ele>8</ele>
        <time>2021-08-06T09:52:03Z</time>
      </trkpt>
      <trkpt lat="47.55572" lon="-2.71439">
        <ele>8</ele>
        <time>2021-08-06T09:52:04Z</time>
      </trkpt>
      <trkpt lat="47.55577" lon="-2.71436">
        <ele>8.2</ele>
        <time>2021-08-06T09:52:05Z</time>
      </trkpt>
      <trkpt lat="47.55581" lon="-2.71433">
        <ele>8.2</ele>
        <time>2021-08-06T09:52:06Z</time>
      </trkpt>
      <trkpt lat="47.55586" lon="-2.7143">
        <ele>8.2</ele>
        <time>2021-08-06T09:52:07Z</time>
      </trkpt>
      <trkpt lat="47.55591" lon="-2.71427">
        <ele>8.2</ele>
        <time>2021-08-06T09:52:08Z</time>
      </trkpt>
      <trkpt lat="47.55596" lon="-2.71424">
        <ele>8.2</ele>
        <time>2021-08-06T09:52:09Z</time>
      </trkpt>
      <trkpt lat="47.556" lon="-2.71421">
        <ele>8.6</ele>
        <time>2021-08-06T09:52:10Z</time>
      </trkpt>
      <trkpt lat="47.55605" lon="-2.71418">
        <ele>8.6</ele>
        <time>2021-08-06T09:52:11Z</time>
      </trkpt>
      <trkpt lat="47.5561" lon="-2.71416">
        <ele>8.8</ele>
        <time>2021-08-06T09:52:12Z</time>
      </trkpt>
      <trkpt lat="47.55615" lon="-2.71413">
        <ele>9</ele>
        <time>2021-08-06T09:52:13Z</time>
      </trkpt>
      <trkpt lat="47.5562" lon="-2.7141">
        <ele>9</ele>
        <time>2021-08-06T09:52:14Z</time>
      </trkpt>
      <trkpt lat="47.55624" lon="-2.71408">
        <ele>9.2</ele>
        <time>2021-08-06T09:52:15Z</time>
      </trkpt>
      <trkpt lat="47.55629" lon="-2.71405">
        <ele>9.4</ele>
        <time>2021-08-06T09:52:16Z</time>
      </trkpt>
      <trkpt lat="47.55634" lon="-2.71402">
        <ele>9.8</ele>
        <time>2021-08-06T09:52:17Z</time>
      </trkpt>
      <trkpt lat="47.55638" lon="-2.71399">
        <ele>10.2</ele>
        <time>2021-08-06T09:52:18Z</time>
      </trkpt>
      <trkpt lat="47.55643" lon="-2.71396">
        <ele>10.4</ele>
        <time>2021-08-06T09:52:19Z</time>
      </trkpt>
      <trkpt lat="47.55647" lon="-2.71394">
        <ele>10.4</ele>
        <time>2021-08-06T09:52:20Z</time>
      </trkpt>
      <trkpt lat="47.55652" lon="-2.71391">
        <ele>10.6</ele>
        <time>2021-08-06T09:52:21Z</time>
      </trkpt>
      <trkpt lat="47.55657" lon="-2.71388">
        <ele>10.6</ele>
        <time>2021-08-06T09:52:22Z</time>
      </trkpt>
      <trkpt lat="47.55661" lon="-2.71385">
        <ele>10.6</ele>
        <time>2021-08-06T09:52:23Z</time>
      </trkpt>
      <trkpt lat="47.55666" lon="-2.71382">
        <ele>10.8</ele>
        <time>2021-08-06T09:52:24Z</time>
      </trkpt>
      <trkpt lat="47.5567" lon="-2.71379">
        <ele>11</ele>
        <time>2021-08-06T09:52:25Z</time>
      </trkpt>
      <trkpt lat="47.55675" lon="-2.71376">
        <ele>11</ele>
        <time>2021-08-06T09:52:26Z</time>
      </trkpt>
      <trkpt lat="47.5568" lon="-2.71372">
        <ele>11</ele>
        <time>2021-08-06T09:52:27Z</time>
      </trkpt>
      <trkpt lat="47.55684" lon="-2.7137">
        <ele>11</ele>
        <time>2021-08-06T09:52:28Z</time>
      </trkpt>
      <trkpt lat="47.55689" lon="-2.71367">
        <ele>11.2</ele>
        <time>2021-08-06T09:52:29Z</time>
      </trkpt>
      <trkpt lat="47.55694" lon="-2.71364">
        <ele>11.2</ele>
        <time>2021-08-06T09:52:30Z</time>
      </trkpt>
      <trkpt lat="47.55699" lon="-2.71361">
        <ele>11.2</ele>
        <time>2021-08-06T09:52:31Z</time>
      </trkpt>
      <trkpt lat="47.55704" lon="-2.71358">
        <ele>11.2</ele>
        <time>2021-08-06T09:52:32Z</time>
      </trkpt>
      <trkpt lat="47.55709" lon="-2.71355">
        <ele>11.4</ele>
        <time>2021-08-06T09:52:33Z</time>
      </trkpt>
      <trkpt lat="47.55713" lon="-2.71352">
        <ele>11.4</ele>
        <time>2021-08-06T09:52:34Z</time>
      </trkpt>
      <trkpt lat="47.55718" lon="-2.71349">
        <ele>11.4</ele>
        <time>2021-08-06T09:52:35Z</time>
      </trkpt>
      <trkpt lat="47.55723" lon="-2.71346">
        <ele>11.4</ele>
        <time>2021-08-06T09:52:36Z</time>
      </trkpt>
      <trkpt lat="47.55728" lon="-2.71343">
        <ele>11.4</ele>
        <time>2021-08-06T09:52:37Z</time>
      </trkpt>
      <trkpt lat="47.55733" lon="-2.7134">
        <ele>11.4</ele>
        <time>2021-08-06T09:52:38Z</time>
      </trkpt>
      <trkpt lat="47.55738" lon="-2.71337">
        <ele>11.4</ele>
        <time>2021-08-06T09:52:39Z</time>
      </trkpt>
      <trkpt lat="47.55743" lon="-2.71334">
        <ele>11.4</ele>
        <time>2021-08-06T09:52:40Z</time>
      </trkpt>
      <trkpt lat="47.55748" lon="-2.71331">
        <ele>11.4</ele>
        <time>2021-08-06T09:52:41Z</time>
      </trkpt>
      <trkpt lat="47.55753" lon="-2.71328">
        <ele>11.4</ele>
        <time>2021-08-06T09:52:42Z</time>
      </trkpt>
      <trkpt lat="47.55758" lon="-2.71325">
        <ele>11.4</ele>
        <time>2021-08-06T09:52:43Z</time>
      </trkpt>
      <trkpt lat="47.55763" lon="-2.71322">
        <ele>11.4</ele>
        <time>2021-08-06T09:52:44Z</time>
      </trkpt>
      <trkpt lat="47.55768" lon="-2.71318">
        <ele>11.4</ele>
        <time>2021-08-06T09:52:45Z</time>
      </trkpt>
      <trkpt lat="47.55773" lon="-2.71315">
        <ele>11.4</ele>
        <time>2021-08-06T09:52:46Z</time>
      </trkpt>
      <trkpt lat="47.55778" lon="-2.71313">
        <ele>11.4</ele>
        <time>2021-08-06T09:52:47Z</time>
      </trkpt>
      <trkpt lat="47.55783" lon="-2.7131">
        <ele>11.4</ele>
        <time>2021-08-06T09:52:48Z</time>
      </trkpt>
      <trkpt lat="47.55788" lon="-2.71306">
        <ele>11.4</ele>
        <time>2021-08-06T09:52:49Z</time>
      </trkpt>
      <trkpt lat="47.55793" lon="-2.71303">
        <ele>11.4</ele>
        <time>2021-08-06T09:52:50Z</time>
      </trkpt>
      <trkpt lat="47.55799" lon="-2.713">
        <ele>11.4</ele>
        <time>2021-08-06T09:52:51Z</time>
      </trkpt>
      <trkpt lat="47.55804" lon="-2.71297">
        <ele>11.4</ele>
        <time>2021-08-06T09:52:52Z</time>
      </trkpt>
      <trkpt lat="47.55809" lon="-2.71294">
        <ele>11.4</ele>
        <time>2021-08-06T09:52:53Z</time>
      </trkpt>
      <trkpt lat="47.55815" lon="-2.7129">
        <ele>11.4</ele>
        <time>2021-08-06T09:52:54Z</time>
      </trkpt>
      <trkpt lat="47.5582" lon="-2.71287">
        <ele>11.2</ele>
        <time>2021-08-06T09:52:55Z</time>
      </trkpt>
      <trkpt lat="47.55826" lon="-2.71284">
        <ele>11.2</ele>
        <time>2021-08-06T09:52:56Z</time>
      </trkpt>
      <trkpt lat="47.55831" lon="-2.7128">
        <ele>11.2</ele>
        <time>2021-08-06T09:52:57Z</time>
      </trkpt>
      <trkpt lat="47.55837" lon="-2.71277">
        <ele>11.2</ele>
        <time>2021-08-06T09:52:58Z</time>
      </trkpt>
      <trkpt lat="47.55842" lon="-2.71274">
        <ele>11.2</ele>
        <time>2021-08-06T09:52:59Z</time>
      </trkpt>
      <trkpt lat="47.55848" lon="-2.71271">
        <ele>11</ele>
        <time>2021-08-06T09:53:00Z</time>
      </trkpt>
      <trkpt lat="47.55854" lon="-2.71267">
        <ele>11</ele>
        <time>2021-08-06T09:53:01Z</time>
      </trkpt>
      <trkpt lat="47.55859" lon="-2.71264">
        <ele>10.8</ele>
        <time>2021-08-06T09:53:02Z</time>
      </trkpt>
      <trkpt lat="47.55865" lon="-2.71261">
        <ele>10.6</ele>
        <time>2021-08-06T09:53:03Z</time>
      </trkpt>
      <trkpt lat="47.5587" lon="-2.71257">
        <ele>10.6</ele>
        <time>2021-08-06T09:53:04Z</time>
      </trkpt>
      <trkpt lat="47.55876" lon="-2.71254">
        <ele>10.6</ele>
        <time>2021-08-06T09:53:05Z</time>
      </trkpt>
      <trkpt lat="47.55882" lon="-2.7125">
        <ele>10.6</ele>
        <time>2021-08-06T09:53:06Z</time>
      </trkpt>
      <trkpt lat="47.55887" lon="-2.71247">
        <ele>10.6</ele>
        <time>2021-08-06T09:53:07Z</time>
      </trkpt>
      <trkpt lat="47.55893" lon="-2.71244">
        <ele>10.4</ele>
        <time>2021-08-06T09:53:08Z</time>
      </trkpt>
      <trkpt lat="47.55898" lon="-2.71241">
        <ele>10.4</ele>
        <time>2021-08-06T09:53:09Z</time>
      </trkpt>
      <trkpt lat="47.55904" lon="-2.71237">
        <ele>10.4</ele>
        <time>2021-08-06T09:53:10Z</time>
      </trkpt>
      <trkpt lat="47.55909" lon="-2.71235">
        <ele>10.4</ele>
        <time>2021-08-06T09:53:11Z</time>
      </trkpt>
      <trkpt lat="47.55914" lon="-2.71232">
        <ele>10.4</ele>
        <time>2021-08-06T09:53:12Z</time>
      </trkpt>
      <trkpt lat="47.55918" lon="-2.71229">
        <ele>10.4</ele>
        <time>2021-08-06T09:53:13Z</time>
      </trkpt>
      <trkpt lat="47.55922" lon="-2.71227">
        <ele>10.4</ele>
        <time>2021-08-06T09:53:14Z</time>
      </trkpt>
      <trkpt lat="47.55926" lon="-2.71225">
        <ele>10.6</ele>
        <time>2021-08-06T09:53:15Z</time>
      </trkpt>
      <trkpt lat="47.5593" lon="-2.71223">
        <ele>10.6</ele>
        <time>2021-08-06T09:53:16Z</time>
      </trkpt>
      <trkpt lat="47.55934" lon="-2.7122">
        <ele>10.6</ele>
        <time>2021-08-06T09:53:17Z</time>
      </trkpt>
      <trkpt lat="47.55938" lon="-2.71217">
        <ele>10.6</ele>
        <time>2021-08-06T09:53:18Z</time>
      </trkpt>
      <trkpt lat="47.55942" lon="-2.71214">
        <ele>10.8</ele>
        <time>2021-08-06T09:53:19Z</time>
      </trkpt>
      <trkpt lat="47.55946" lon="-2.71212">
        <ele>10.8</ele>
        <time>2021-08-06T09:53:20Z</time>
      </trkpt>
      <trkpt lat="47.55951" lon="-2.71209">
        <ele>10.8</ele>
        <time>2021-08-06T09:53:21Z</time>
      </trkpt>
      <trkpt lat="47.55956" lon="-2.71206">
        <ele>10.8</ele>
        <time>2021-08-06T09:53:22Z</time>
      </trkpt>
      <trkpt lat="47.5596" lon="-2.71203">
        <ele>10.8</ele>
        <time>2021-08-06T09:53:23Z</time>
      </trkpt>
      <trkpt lat="47.55965" lon="-2.712">
        <ele>10.8</ele>
        <time>2021-08-06T09:53:24Z</time>
      </trkpt>
      <trkpt lat="47.5597" lon="-2.71197">
        <ele>10.8</ele>
        <time>2021-08-06T09:53:25Z</time>
      </trkpt>
      <trkpt lat="47.55974" lon="-2.71195">
        <ele>10.8</ele>
        <time>2021-08-06T09:53:26Z</time>
      </trkpt>
      <trkpt lat="47.55979" lon="-2.71192">
        <ele>10.8</ele>
        <time>2021-08-06T09:53:27Z</time>
      </trkpt>
      <trkpt lat="47.55984" lon="-2.71188">
        <ele>10.8</ele>
        <time>2021-08-06T09:53:28Z</time>
      </trkpt>
      <trkpt lat="47.55989" lon="-2.71185">
        <ele>10.8</ele>
        <time>2021-08-06T09:53:29Z</time>
      </trkpt>
      <trkpt lat="47.55994" lon="-2.71182">
        <ele>10.8</ele>
        <time>2021-08-06T09:53:30Z</time>
      </trkpt>
      <trkpt lat="47.55999" lon="-2.71179">
        <ele>10.8</ele>
        <time>2021-08-06T09:53:31Z</time>
      </trkpt>
      <trkpt lat="47.56004" lon="-2.71176">
        <ele>10.8</ele>
        <time>2021-08-06T09:53:32Z</time>
      </trkpt>
      <trkpt lat="47.56009" lon="-2.71173">
        <ele>10.6</ele>
        <time>2021-08-06T09:53:33Z</time>
      </trkpt>
      <trkpt lat="47.56015" lon="-2.7117">
        <ele>10.6</ele>
        <time>2021-08-06T09:53:34Z</time>
      </trkpt>
      <trkpt lat="47.56021" lon="-2.71167">
        <ele>10.2</ele>
        <time>2021-08-06T09:53:35Z</time>
      </trkpt>
      <trkpt lat="47.56027" lon="-2.71165">
        <ele>10</ele>
        <time>2021-08-06T09:53:36Z</time>
      </trkpt>
      <trkpt lat="47.56033" lon="-2.71161">
        <ele>9.6</ele>
        <time>2021-08-06T09:53:37Z</time>
      </trkpt>
      <trkpt lat="47.56039" lon="-2.71158">
        <ele>9.6</ele>
        <time>2021-08-06T09:53:38Z</time>
      </trkpt>
      <trkpt lat="47.56046" lon="-2.71154">
        <ele>9.4</ele>
        <time>2021-08-06T09:53:39Z</time>
      </trkpt>
      <trkpt lat="47.56052" lon="-2.7115">
        <ele>9.2</ele>
        <time>2021-08-06T09:53:40Z</time>
      </trkpt>
      <trkpt lat="47.56059" lon="-2.71147">
        <ele>9</ele>
        <time>2021-08-06T09:53:41Z</time>
      </trkpt>
      <trkpt lat="47.56066" lon="-2.71143">
        <ele>8.8</ele>
        <time>2021-08-06T09:53:42Z</time>
      </trkpt>
      <trkpt lat="47.56072" lon="-2.7114">
        <ele>8.6</ele>
        <time>2021-08-06T09:53:43Z</time>
      </trkpt>
      <trkpt lat="47.56079" lon="-2.71137">
        <ele>8.4</ele>
        <time>2021-08-06T09:53:44Z</time>
      </trkpt>
      <trkpt lat="47.56085" lon="-2.71134">
        <ele>8</ele>
        <time>2021-08-06T09:53:45Z</time>
      </trkpt>
      <trkpt lat="47.5609" lon="-2.7113">
        <ele>7.8</ele>
        <time>2021-08-06T09:53:46Z</time>
      </trkpt>
      <trkpt lat="47.56096" lon="-2.71127">
        <ele>7.8</ele>
        <time>2021-08-06T09:53:47Z</time>
      </trkpt>
      <trkpt lat="47.56101" lon="-2.71124">
        <ele>7.6</ele>
        <time>2021-08-06T09:53:48Z</time>
      </trkpt>
      <trkpt lat="47.56106" lon="-2.7112">
        <ele>7.6</ele>
        <time>2021-08-06T09:53:49Z</time>
      </trkpt>
      <trkpt lat="47.56111" lon="-2.71116">
        <ele>7.6</ele>
        <time>2021-08-06T09:53:50Z</time>
      </trkpt>
      <trkpt lat="47.56116" lon="-2.71113">
        <ele>7.6</ele>
        <time>2021-08-06T09:53:51Z</time>
      </trkpt>
      <trkpt lat="47.56121" lon="-2.7111">
        <ele>7.6</ele>
        <time>2021-08-06T09:53:52Z</time>
      </trkpt>
      <trkpt lat="47.56126" lon="-2.71107">
        <ele>7.6</ele>
        <time>2021-08-06T09:53:53Z</time>
      </trkpt>
      <trkpt lat="47.56131" lon="-2.71104">
        <ele>7.6</ele>
        <time>2021-08-06T09:53:54Z</time>
      </trkpt>
      <trkpt lat="47.56136" lon="-2.71101">
        <ele>7.6</ele>
        <time>2021-08-06T09:53:55Z</time>
      </trkpt>
      <trkpt lat="47.5614" lon="-2.71098">
        <ele>7.8</ele>
        <time>2021-08-06T09:53:56Z</time>
      </trkpt>
      <trkpt lat="47.56145" lon="-2.71094">
        <ele>8.2</ele>
        <time>2021-08-06T09:53:57Z</time>
      </trkpt>
      <trkpt lat="47.56149" lon="-2.71091">
        <ele>8.4</ele>
        <time>2021-08-06T09:53:58Z</time>
      </trkpt>
      <trkpt lat="47.56154" lon="-2.71087">
        <ele>8.4</ele>
        <time>2021-08-06T09:53:59Z</time>
      </trkpt>
      <trkpt lat="47.56158" lon="-2.71084">
        <ele>8.6</ele>
        <time>2021-08-06T09:54:00Z</time>
      </trkpt>
      <trkpt lat="47.56163" lon="-2.71081">
        <ele>8.8</ele>
        <time>2021-08-06T09:54:01Z</time>
      </trkpt>
      <trkpt lat="47.56167" lon="-2.71078">
        <ele>9</ele>
        <time>2021-08-06T09:54:02Z</time>
      </trkpt>
      <trkpt lat="47.56172" lon="-2.71076">
        <ele>9.2</ele>
        <time>2021-08-06T09:54:03Z</time>
      </trkpt>
      <trkpt lat="47.56176" lon="-2.71073">
        <ele>9.2</ele>
        <time>2021-08-06T09:54:04Z</time>
      </trkpt>
      <trkpt lat="47.56181" lon="-2.7107">
        <ele>9.2</ele>
        <time>2021-08-06T09:54:05Z</time>
      </trkpt>
      <trkpt lat="47.56185" lon="-2.71067">
        <ele>9.4</ele>
        <time>2021-08-06T09:54:06Z</time>
      </trkpt>
      <trkpt lat="47.56189" lon="-2.71064">
        <ele>9.4</ele>
        <time>2021-08-06T09:54:07Z</time>
      </trkpt>
      <trkpt lat="47.56194" lon="-2.71062">
        <ele>9.4</ele>
        <time>2021-08-06T09:54:08Z</time>
      </trkpt>
      <trkpt lat="47.56199" lon="-2.71059">
        <ele>9.4</ele>
        <time>2021-08-06T09:54:09Z</time>
      </trkpt>
      <trkpt lat="47.56203" lon="-2.71056">
        <ele>9.2</ele>
        <time>2021-08-06T09:54:10Z</time>
      </trkpt>
      <trkpt lat="47.56208" lon="-2.71054">
        <ele>9.2</ele>
        <time>2021-08-06T09:54:11Z</time>
      </trkpt>
      <trkpt lat="47.56213" lon="-2.71051">
        <ele>9.2</ele>
        <time>2021-08-06T09:54:12Z</time>
      </trkpt>
      <trkpt lat="47.56217" lon="-2.71048">
        <ele>9.2</ele>
        <time>2021-08-06T09:54:13Z</time>
      </trkpt>
      <trkpt lat="47.56222" lon="-2.71045">
        <ele>9.2</ele>
        <time>2021-08-06T09:54:14Z</time>
      </trkpt>
      <trkpt lat="47.56226" lon="-2.71042">
        <ele>9.2</ele>
        <time>2021-08-06T09:54:15Z</time>
      </trkpt>
      <trkpt lat="47.56231" lon="-2.71039">
        <ele>9.2</ele>
        <time>2021-08-06T09:54:16Z</time>
      </trkpt>
      <trkpt lat="47.56235" lon="-2.71036">
        <ele>8.8</ele>
        <time>2021-08-06T09:54:17Z</time>
      </trkpt>
      <trkpt lat="47.5624" lon="-2.71034">
        <ele>8.6</ele>
        <time>2021-08-06T09:54:18Z</time>
      </trkpt>
      <trkpt lat="47.56244" lon="-2.71031">
        <ele>8.4</ele>
        <time>2021-08-06T09:54:19Z</time>
      </trkpt>
      <trkpt lat="47.56249" lon="-2.71029">
        <ele>8.2</ele>
        <time>2021-08-06T09:54:20Z</time>
      </trkpt>
      <trkpt lat="47.56254" lon="-2.71026">
        <ele>8.2</ele>
        <time>2021-08-06T09:54:21Z</time>
      </trkpt>
      <trkpt lat="47.56258" lon="-2.71023">
        <ele>8.2</ele>
        <time>2021-08-06T09:54:22Z</time>
      </trkpt>
      <trkpt lat="47.56263" lon="-2.7102">
        <ele>8.2</ele>
        <time>2021-08-06T09:54:23Z</time>
      </trkpt>
      <trkpt lat="47.56268" lon="-2.71017">
        <ele>8.2</ele>
        <time>2021-08-06T09:54:24Z</time>
      </trkpt>
      <trkpt lat="47.56273" lon="-2.71015">
        <ele>8.2</ele>
        <time>2021-08-06T09:54:25Z</time>
      </trkpt>
      <trkpt lat="47.56278" lon="-2.71012">
        <ele>8</ele>
        <time>2021-08-06T09:54:26Z</time>
      </trkpt>
      <trkpt lat="47.56283" lon="-2.71009">
        <ele>8</ele>
        <time>2021-08-06T09:54:27Z</time>
      </trkpt>
      <trkpt lat="47.56287" lon="-2.71006">
        <ele>8</ele>
        <time>2021-08-06T09:54:28Z</time>
      </trkpt>
      <trkpt lat="47.56292" lon="-2.71003">
        <ele>8</ele>
        <time>2021-08-06T09:54:29Z</time>
      </trkpt>
      <trkpt lat="47.56296" lon="-2.71">
        <ele>8</ele>
        <time>2021-08-06T09:54:30Z</time>
      </trkpt>
      <trkpt lat="47.56301" lon="-2.70997">
        <ele>7.8</ele>
        <time>2021-08-06T09:54:31Z</time>
      </trkpt>
      <trkpt lat="47.56305" lon="-2.70994">
        <ele>7.8</ele>
        <time>2021-08-06T09:54:32Z</time>
      </trkpt>
      <trkpt lat="47.5631" lon="-2.70991">
        <ele>7.4</ele>
        <time>2021-08-06T09:54:33Z</time>
      </trkpt>
      <trkpt lat="47.56315" lon="-2.70989">
        <ele>7.2</ele>
        <time>2021-08-06T09:54:34Z</time>
      </trkpt>
      <trkpt lat="47.5632" lon="-2.70986">
        <ele>7.2</ele>
        <time>2021-08-06T09:54:35Z</time>
      </trkpt>
      <trkpt lat="47.56324" lon="-2.70983">
        <ele>7</ele>
        <time>2021-08-06T09:54:36Z</time>
      </trkpt>
      <trkpt lat="47.56329" lon="-2.7098">
        <ele>7</ele>
        <time>2021-08-06T09:54:37Z</time>
      </trkpt>
      <trkpt lat="47.56334" lon="-2.70977">
        <ele>7</ele>
        <time>2021-08-06T09:54:38Z</time>
      </trkpt>
      <trkpt lat="47.56338" lon="-2.70974">
        <ele>6.8</ele>
        <time>2021-08-06T09:54:39Z</time>
      </trkpt>
      <trkpt lat="47.56342" lon="-2.70972">
        <ele>6.8</ele>
        <time>2021-08-06T09:54:40Z</time>
      </trkpt>
      <trkpt lat="47.56346" lon="-2.70969">
        <ele>6.6</ele>
        <time>2021-08-06T09:54:41Z</time>
      </trkpt>
      <trkpt lat="47.5635" lon="-2.70966">
        <ele>6.6</ele>
        <time>2021-08-06T09:54:42Z</time>
      </trkpt>
      <trkpt lat="47.56354" lon="-2.70964">
        <ele>6.6</ele>
        <time>2021-08-06T09:54:43Z</time>
      </trkpt>
      <trkpt lat="47.56358" lon="-2.70961">
        <ele>6.4</ele>
        <time>2021-08-06T09:54:44Z</time>
      </trkpt>
      <trkpt lat="47.56363" lon="-2.70958">
        <ele>6.4</ele>
        <time>2021-08-06T09:54:45Z</time>
      </trkpt>
      <trkpt lat="47.56367" lon="-2.70955">
        <ele>6.4</ele>
        <time>2021-08-06T09:54:46Z</time>
      </trkpt>
      <trkpt lat="47.56372" lon="-2.70952">
        <ele>6.4</ele>
        <time>2021-08-06T09:54:47Z</time>
      </trkpt>
      <trkpt lat="47.56376" lon="-2.70949">
        <ele>6.4</ele>
        <time>2021-08-06T09:54:48Z</time>
      </trkpt>
      <trkpt lat="47.56381" lon="-2.70946">
        <ele>6.4</ele>
        <time>2021-08-06T09:54:49Z</time>
      </trkpt>
      <trkpt lat="47.56386" lon="-2.70943">
        <ele>6.4</ele>
        <time>2021-08-06T09:54:50Z</time>
      </trkpt>
      <trkpt lat="47.56391" lon="-2.70939">
        <ele>6.2</ele>
        <time>2021-08-06T09:54:51Z</time>
      </trkpt>
      <trkpt lat="47.56397" lon="-2.70936">
        <ele>6.2</ele>
        <time>2021-08-06T09:54:52Z</time>
      </trkpt>
      <trkpt lat="47.56402" lon="-2.70933">
        <ele>6.2</ele>
        <time>2021-08-06T09:54:53Z</time>
      </trkpt>
      <trkpt lat="47.56408" lon="-2.7093">
        <ele>6.2</ele>
        <time>2021-08-06T09:54:54Z</time>
      </trkpt>
      <trkpt lat="47.56413" lon="-2.70927">
        <ele>6.2</ele>
        <time>2021-08-06T09:54:55Z</time>
      </trkpt>
      <trkpt lat="47.56419" lon="-2.70924">
        <ele>6</ele>
        <time>2021-08-06T09:54:56Z</time>
      </trkpt>
      <trkpt lat="47.56424" lon="-2.70921">
        <ele>6</ele>
        <time>2021-08-06T09:54:57Z</time>
      </trkpt>
      <trkpt lat="47.56431" lon="-2.70917">
        <ele>5.8</ele>
        <time>2021-08-06T09:54:58Z</time>
      </trkpt>
      <trkpt lat="47.56437" lon="-2.70913">
        <ele>5.8</ele>
        <time>2021-08-06T09:54:59Z</time>
      </trkpt>
      <trkpt lat="47.56442" lon="-2.70909">
        <ele>5.6</ele>
        <time>2021-08-06T09:55:00Z</time>
      </trkpt>
      <trkpt lat="47.56448" lon="-2.70905">
        <ele>5.4</ele>
        <time>2021-08-06T09:55:01Z</time>
      </trkpt>
      <trkpt lat="47.56454" lon="-2.70901">
        <ele>5.2</ele>
        <time>2021-08-06T09:55:02Z</time>
      </trkpt>
      <trkpt lat="47.56461" lon="-2.70898">
        <ele>5.2</ele>
        <time>2021-08-06T09:55:03Z</time>
      </trkpt>
      <trkpt lat="47.56467" lon="-2.70894">
        <ele>5.2</ele>
        <time>2021-08-06T09:55:04Z</time>
      </trkpt>
      <trkpt lat="47.56473" lon="-2.70891">
        <ele>5.2</ele>
        <time>2021-08-06T09:55:05Z</time>
      </trkpt>
      <trkpt lat="47.5648" lon="-2.70887">
        <ele>5</ele>
        <time>2021-08-06T09:55:06Z</time>
      </trkpt>
      <trkpt lat="47.56486" lon="-2.70883">
        <ele>5</ele>
        <time>2021-08-06T09:55:07Z</time>
      </trkpt>
      <trkpt lat="47.56492" lon="-2.70879">
        <ele>5</ele>
        <time>2021-08-06T09:55:08Z</time>
      </trkpt>
      <trkpt lat="47.56498" lon="-2.70875">
        <ele>5</ele>
        <time>2021-08-06T09:55:09Z</time>
      </trkpt>
      <trkpt lat="47.56504" lon="-2.70872">
        <ele>5</ele>
        <time>2021-08-06T09:55:10Z</time>
      </trkpt>
      <trkpt lat="47.5651" lon="-2.70868">
        <ele>5</ele>
        <time>2021-08-06T09:55:11Z</time>
      </trkpt>
      <trkpt lat="47.56516" lon="-2.70865">
        <ele>5</ele>
        <time>2021-08-06T09:55:12Z</time>
      </trkpt>
      <trkpt lat="47.56522" lon="-2.70863">
        <ele>5</ele>
        <time>2021-08-06T09:55:13Z</time>
      </trkpt>
      <trkpt lat="47.56528" lon="-2.70859">
        <ele>5</ele>
        <time>2021-08-06T09:55:14Z</time>
      </trkpt>
      <trkpt lat="47.56534" lon="-2.70855">
        <ele>5</ele>
        <time>2021-08-06T09:55:15Z</time>
      </trkpt>
      <trkpt lat="47.5654" lon="-2.70851">
        <ele>5</ele>
        <time>2021-08-06T09:55:16Z</time>
      </trkpt>
      <trkpt lat="47.56545" lon="-2.70847">
        <ele>5</ele>
        <time>2021-08-06T09:55:17Z</time>
      </trkpt>
      <trkpt lat="47.56551" lon="-2.70844">
        <ele>5</ele>
        <time>2021-08-06T09:55:18Z</time>
      </trkpt>
      <trkpt lat="47.56557" lon="-2.70841">
        <ele>5</ele>
        <time>2021-08-06T09:55:19Z</time>
      </trkpt>
      <trkpt lat="47.56562" lon="-2.70838">
        <ele>5</ele>
        <time>2021-08-06T09:55:20Z</time>
      </trkpt>
      <trkpt lat="47.56567" lon="-2.70835">
        <ele>5.2</ele>
        <time>2021-08-06T09:55:21Z</time>
      </trkpt>
      <trkpt lat="47.56572" lon="-2.70831">
        <ele>5.2</ele>
        <time>2021-08-06T09:55:22Z</time>
      </trkpt>
      <trkpt lat="47.56577" lon="-2.70828">
        <ele>5.4</ele>
        <time>2021-08-06T09:55:23Z</time>
      </trkpt>
      <trkpt lat="47.56582" lon="-2.70825">
        <ele>5.6</ele>
        <time>2021-08-06T09:55:24Z</time>
      </trkpt>
      <trkpt lat="47.56586" lon="-2.70823">
        <ele>5.8</ele>
        <time>2021-08-06T09:55:25Z</time>
      </trkpt>
      <trkpt lat="47.5659" lon="-2.7082">
        <ele>6</ele>
        <time>2021-08-06T09:55:26Z</time>
      </trkpt>
      <trkpt lat="47.56595" lon="-2.70818">
        <ele>6.4</ele>
        <time>2021-08-06T09:55:27Z</time>
      </trkpt>
      <trkpt lat="47.56599" lon="-2.70815">
        <ele>6.2</ele>
        <time>2021-08-06T09:55:28Z</time>
      </trkpt>
      <trkpt lat="47.56604" lon="-2.70812">
        <ele>6.4</ele>
        <time>2021-08-06T09:55:29Z</time>
      </trkpt>
      <trkpt lat="47.56608" lon="-2.70809">
        <ele>6.6</ele>
        <time>2021-08-06T09:55:30Z</time>
      </trkpt>
      <trkpt lat="47.56612" lon="-2.70805">
        <ele>6.8</ele>
        <time>2021-08-06T09:55:31Z</time>
      </trkpt>
      <trkpt lat="47.56616" lon="-2.70801">
        <ele>6.6</ele>
        <time>2021-08-06T09:55:32Z</time>
      </trkpt>
      <trkpt lat="47.56619" lon="-2.70797">
        <ele>6.6</ele>
        <time>2021-08-06T09:55:33Z</time>
      </trkpt>
      <trkpt lat="47.56623" lon="-2.70793">
        <ele>6.6</ele>
        <time>2021-08-06T09:55:34Z</time>
      </trkpt>
      <trkpt lat="47.56626" lon="-2.7079">
        <ele>6.6</ele>
        <time>2021-08-06T09:55:35Z</time>
      </trkpt>
      <trkpt lat="47.56629" lon="-2.70787">
        <ele>6.8</ele>
        <time>2021-08-06T09:55:36Z</time>
      </trkpt>
      <trkpt lat="47.56631" lon="-2.70784">
        <ele>7</ele>
        <time>2021-08-06T09:55:37Z</time>
      </trkpt>
      <trkpt lat="47.56632" lon="-2.70783">
        <ele>7</ele>
        <time>2021-08-06T09:55:38Z</time>
      </trkpt>
      <trkpt lat="47.56632" lon="-2.70783">
        <ele>7.4</ele>
        <time>2021-08-06T09:55:49Z</time>
      </trkpt>
      <trkpt lat="47.56633" lon="-2.70783">
        <ele>7.4</ele>
        <time>2021-08-06T09:55:50Z</time>
      </trkpt>
      <trkpt lat="47.56634" lon="-2.70783">
        <ele>7.4</ele>
        <time>2021-08-06T09:55:51Z</time>
      </trkpt>
      <trkpt lat="47.56635" lon="-2.70782">
        <ele>7.6</ele>
        <time>2021-08-06T09:55:52Z</time>
      </trkpt>
      <trkpt lat="47.56636" lon="-2.7078">
        <ele>7.6</ele>
        <time>2021-08-06T09:55:53Z</time>
      </trkpt>
      <trkpt lat="47.56637" lon="-2.70779">
        <ele>7.6</ele>
        <time>2021-08-06T09:55:54Z</time>
      </trkpt>
      <trkpt lat="47.56639" lon="-2.70778">
        <ele>7.4</ele>
        <time>2021-08-06T09:55:55Z</time>
      </trkpt>
      <trkpt lat="47.56641" lon="-2.70775">
        <ele>7.4</ele>
        <time>2021-08-06T09:55:56Z</time>
      </trkpt>
      <trkpt lat="47.56642" lon="-2.70773">
        <ele>7.4</ele>
        <time>2021-08-06T09:55:57Z</time>
      </trkpt>
      <trkpt lat="47.56644" lon="-2.7077">
        <ele>7.4</ele>
        <time>2021-08-06T09:55:58Z</time>
      </trkpt>
      <trkpt lat="47.56647" lon="-2.70767">
        <ele>7.4</ele>
        <time>2021-08-06T09:55:59Z</time>
      </trkpt>
      <trkpt lat="47.56649" lon="-2.70764">
        <ele>7.4</ele>
        <time>2021-08-06T09:56:00Z</time>
      </trkpt>
      <trkpt lat="47.56651" lon="-2.70762">
        <ele>7.4</ele>
        <time>2021-08-06T09:56:01Z</time>
      </trkpt>
      <trkpt lat="47.56653" lon="-2.70759">
        <ele>7.4</ele>
        <time>2021-08-06T09:56:02Z</time>
      </trkpt>
      <trkpt lat="47.56655" lon="-2.70757">
        <ele>7.4</ele>
        <time>2021-08-06T09:56:03Z</time>
      </trkpt>
      <trkpt lat="47.56658" lon="-2.70755">
        <ele>7.4</ele>
        <time>2021-08-06T09:56:04Z</time>
      </trkpt>
      <trkpt lat="47.5666" lon="-2.70753">
        <ele>7.4</ele>
        <time>2021-08-06T09:56:05Z</time>
      </trkpt>
      <trkpt lat="47.56662" lon="-2.70751">
        <ele>7.4</ele>
        <time>2021-08-06T09:56:06Z</time>
      </trkpt>
      <trkpt lat="47.56663" lon="-2.70749">
        <ele>7.6</ele>
        <time>2021-08-06T09:56:07Z</time>
      </trkpt>
      <trkpt lat="47.56665" lon="-2.70747">
        <ele>7.6</ele>
        <time>2021-08-06T09:56:08Z</time>
      </trkpt>
      <trkpt lat="47.56665" lon="-2.70744">
        <ele>7.6</ele>
        <time>2021-08-06T09:56:09Z</time>
      </trkpt>
      <trkpt lat="47.56666" lon="-2.70742">
        <ele>7.6</ele>
        <time>2021-08-06T09:56:10Z</time>
      </trkpt>
      <trkpt lat="47.56668" lon="-2.7074">
        <ele>7.6</ele>
        <time>2021-08-06T09:56:11Z</time>
      </trkpt>
      <trkpt lat="47.56669" lon="-2.70738">
        <ele>7.8</ele>
        <time>2021-08-06T09:56:12Z</time>
      </trkpt>
      <trkpt lat="47.56671" lon="-2.70736">
        <ele>7.8</ele>
        <time>2021-08-06T09:56:13Z</time>
      </trkpt>
      <trkpt lat="47.56673" lon="-2.70734">
        <ele>7.8</ele>
        <time>2021-08-06T09:56:14Z</time>
      </trkpt>
      <trkpt lat="47.56675" lon="-2.70731">
        <ele>8</ele>
        <time>2021-08-06T09:56:15Z</time>
      </trkpt>
      <trkpt lat="47.56678" lon="-2.70729">
        <ele>8</ele>
        <time>2021-08-06T09:56:16Z</time>
      </trkpt>
      <trkpt lat="47.5668" lon="-2.70725">
        <ele>8.2</ele>
        <time>2021-08-06T09:56:17Z</time>
      </trkpt>
      <trkpt lat="47.56682" lon="-2.70722">
        <ele>8.2</ele>
        <time>2021-08-06T09:56:18Z</time>
      </trkpt>
      <trkpt lat="47.56685" lon="-2.70718">
        <ele>8.2</ele>
        <time>2021-08-06T09:56:19Z</time>
      </trkpt>
      <trkpt lat="47.56688" lon="-2.70715">
        <ele>8.4</ele>
        <time>2021-08-06T09:56:20Z</time>
      </trkpt>
      <trkpt lat="47.56691" lon="-2.70711">
        <ele>8.4</ele>
        <time>2021-08-06T09:56:21Z</time>
      </trkpt>
      <trkpt lat="47.56693" lon="-2.70708">
        <ele>8.4</ele>
        <time>2021-08-06T09:56:22Z</time>
      </trkpt>
      <trkpt lat="47.56695" lon="-2.70705">
        <ele>8.4</ele>
        <time>2021-08-06T09:56:23Z</time>
      </trkpt>
      <trkpt lat="47.56698" lon="-2.70702">
        <ele>8.4</ele>
        <time>2021-08-06T09:56:24Z</time>
      </trkpt>
      <trkpt lat="47.567" lon="-2.70699">
        <ele>8.4</ele>
        <time>2021-08-06T09:56:25Z</time>
      </trkpt>
      <trkpt lat="47.56702" lon="-2.70696">
        <ele>8.6</ele>
        <time>2021-08-06T09:56:26Z</time>
      </trkpt>
      <trkpt lat="47.56705" lon="-2.70693">
        <ele>8.6</ele>
        <time>2021-08-06T09:56:27Z</time>
      </trkpt>
      <trkpt lat="47.56707" lon="-2.7069">
        <ele>8.6</ele>
        <time>2021-08-06T09:56:28Z</time>
      </trkpt>
      <trkpt lat="47.56708" lon="-2.70687">
        <ele>8.8</ele>
        <time>2021-08-06T09:56:29Z</time>
      </trkpt>
      <trkpt lat="47.5671" lon="-2.70684">
        <ele>8.8</ele>
        <time>2021-08-06T09:56:30Z</time>
      </trkpt>
      <trkpt lat="47.56711" lon="-2.7068">
        <ele>8.8</ele>
        <time>2021-08-06T09:56:31Z</time>
      </trkpt>
      <trkpt lat="47.56712" lon="-2.70677">
        <ele>9</ele>
        <time>2021-08-06T09:56:32Z</time>
      </trkpt>
      <trkpt lat="47.56713" lon="-2.70674">
        <ele>9</ele>
        <time>2021-08-06T09:56:33Z</time>
      </trkpt>
      <trkpt lat="47.56713" lon="-2.70671">
        <ele>8.8</ele>
        <time>2021-08-06T09:56:34Z</time>
      </trkpt>
      <trkpt lat="47.56713" lon="-2.70669">
        <ele>9</ele>
        <time>2021-08-06T09:56:35Z</time>
      </trkpt>
      <trkpt lat="47.56713" lon="-2.70666">
        <ele>9</ele>
        <time>2021-08-06T09:56:36Z</time>
      </trkpt>
      <trkpt lat="47.56713" lon="-2.70664">
        <ele>9</ele>
        <time>2021-08-06T09:56:37Z</time>
      </trkpt>
      <trkpt lat="47.56713" lon="-2.70661">
        <ele>9</ele>
        <time>2021-08-06T09:56:38Z</time>
      </trkpt>
      <trkpt lat="47.56714" lon="-2.70658">
        <ele>9.2</ele>
        <time>2021-08-06T09:56:39Z</time>
      </trkpt>
      <trkpt lat="47.56714" lon="-2.70656">
        <ele>9.2</ele>
        <time>2021-08-06T09:56:40Z</time>
      </trkpt>
      <trkpt lat="47.56715" lon="-2.70655">
        <ele>9.4</ele>
        <time>2021-08-06T09:56:41Z</time>
      </trkpt>
      <trkpt lat="47.56715" lon="-2.70655">
        <ele>9.4</ele>
        <time>2021-08-06T09:56:42Z</time>
      </trkpt>
      <trkpt lat="47.56716" lon="-2.70655">
        <ele>10</ele>
        <time>2021-08-06T09:57:09Z</time>
      </trkpt>
      <trkpt lat="47.56717" lon="-2.70653">
        <ele>10</ele>
        <time>2021-08-06T09:57:10Z</time>
      </trkpt>
      <trkpt lat="47.56718" lon="-2.70652">
        <ele>10</ele>
        <time>2021-08-06T09:57:11Z</time>
      </trkpt>
      <trkpt lat="47.5672" lon="-2.70651">
        <ele>10</ele>
        <time>2021-08-06T09:57:12Z</time>
      </trkpt>
      <trkpt lat="47.56721" lon="-2.70649">
        <ele>10</ele>
        <time>2021-08-06T09:57:13Z</time>
      </trkpt>
      <trkpt lat="47.56723" lon="-2.70646">
        <ele>10</ele>
        <time>2021-08-06T09:57:14Z</time>
      </trkpt>
      <trkpt lat="47.56724" lon="-2.70643">
        <ele>10</ele>
        <time>2021-08-06T09:57:15Z</time>
      </trkpt>
      <trkpt lat="47.56725" lon="-2.7064">
        <ele>10</ele>
        <time>2021-08-06T09:57:16Z</time>
      </trkpt>
      <trkpt lat="47.56727" lon="-2.70637">
        <ele>9.8</ele>
        <time>2021-08-06T09:57:17Z</time>
      </trkpt>
      <trkpt lat="47.56729" lon="-2.70635">
        <ele>9.8</ele>
        <time>2021-08-06T09:57:18Z</time>
      </trkpt>
      <trkpt lat="47.5673" lon="-2.70633">
        <ele>9.8</ele>
        <time>2021-08-06T09:57:19Z</time>
      </trkpt>
      <trkpt lat="47.56733" lon="-2.70633">
        <ele>9.8</ele>
        <time>2021-08-06T09:57:20Z</time>
      </trkpt>
      <trkpt lat="47.56735" lon="-2.70633">
        <ele>9.8</ele>
        <time>2021-08-06T09:57:21Z</time>
      </trkpt>
      <trkpt lat="47.56737" lon="-2.70632">
        <ele>9.8</ele>
        <time>2021-08-06T09:57:22Z</time>
      </trkpt>
      <trkpt lat="47.56739" lon="-2.70631">
        <ele>9.8</ele>
        <time>2021-08-06T09:57:23Z</time>
      </trkpt>
      <trkpt lat="47.56741" lon="-2.70628">
        <ele>9.8</ele>
        <time>2021-08-06T09:57:24Z</time>
      </trkpt>
      <trkpt lat="47.56743" lon="-2.70624">
        <ele>9.8</ele>
        <time>2021-08-06T09:57:25Z</time>
      </trkpt>
      <trkpt lat="47.56745" lon="-2.70622">
        <ele>9.8</ele>
        <time>2021-08-06T09:57:26Z</time>
      </trkpt>
      <trkpt lat="47.56748" lon="-2.7062">
        <ele>9.8</ele>
        <time>2021-08-06T09:57:27Z</time>
      </trkpt>
      <trkpt lat="47.56752" lon="-2.7062">
        <ele>9.8</ele>
        <time>2021-08-06T09:57:28Z</time>
      </trkpt>
      <trkpt lat="47.56755" lon="-2.70621">
        <ele>9.8</ele>
        <time>2021-08-06T09:57:29Z</time>
      </trkpt>
      <trkpt lat="47.56758" lon="-2.70622">
        <ele>9.8</ele>
        <time>2021-08-06T09:57:30Z</time>
      </trkpt>
      <trkpt lat="47.56761" lon="-2.7062">
        <ele>10</ele>
        <time>2021-08-06T09:57:31Z</time>
      </trkpt>
      <trkpt lat="47.56765" lon="-2.70618">
        <ele>10</ele>
        <time>2021-08-06T09:57:32Z</time>
      </trkpt>
      <trkpt lat="47.56768" lon="-2.70617">
        <ele>10</ele>
        <time>2021-08-06T09:57:33Z</time>
      </trkpt>
      <trkpt lat="47.56772" lon="-2.70618">
        <ele>10</ele>
        <time>2021-08-06T09:57:34Z</time>
      </trkpt>
      <trkpt lat="47.56775" lon="-2.7062">
        <ele>10</ele>
        <time>2021-08-06T09:57:35Z</time>
      </trkpt>
      <trkpt lat="47.56779" lon="-2.70621">
        <ele>10</ele>
        <time>2021-08-06T09:57:36Z</time>
      </trkpt>
      <trkpt lat="47.56782" lon="-2.70623">
        <ele>9.8</ele>
        <time>2021-08-06T09:57:37Z</time>
      </trkpt>
      <trkpt lat="47.56784" lon="-2.70625">
        <ele>9.8</ele>
        <time>2021-08-06T09:57:38Z</time>
      </trkpt>
      <trkpt lat="47.56786" lon="-2.70627">
        <ele>9.8</ele>
        <time>2021-08-06T09:57:39Z</time>
      </trkpt>
      <trkpt lat="47.56787" lon="-2.70628">
        <ele>9.8</ele>
        <time>2021-08-06T09:57:40Z</time>
      </trkpt>
      <trkpt lat="47.5679" lon="-2.7063">
        <ele>9.8</ele>
        <time>2021-08-06T09:57:41Z</time>
      </trkpt>
      <trkpt lat="47.56793" lon="-2.70631">
        <ele>9.8</ele>
        <time>2021-08-06T09:57:42Z</time>
      </trkpt>
      <trkpt lat="47.56796" lon="-2.70632">
        <ele>9.8</ele>
        <time>2021-08-06T09:57:43Z</time>
      </trkpt>
      <trkpt lat="47.568" lon="-2.70634">
        <ele>9.8</ele>
        <time>2021-08-06T09:57:44Z</time>
      </trkpt>
      <trkpt lat="47.56804" lon="-2.70635">
        <ele>9.8</ele>
        <time>2021-08-06T09:57:45Z</time>
      </trkpt>
      <trkpt lat="47.56808" lon="-2.70637">
        <ele>9.6</ele>
        <time>2021-08-06T09:57:46Z</time>
      </trkpt>
      <trkpt lat="47.56812" lon="-2.70638">
        <ele>9.6</ele>
        <time>2021-08-06T09:57:47Z</time>
      </trkpt>
      <trkpt lat="47.56816" lon="-2.7064">
        <ele>9.6</ele>
        <time>2021-08-06T09:57:48Z</time>
      </trkpt>
      <trkpt lat="47.56821" lon="-2.70641">
        <ele>9.4</ele>
        <time>2021-08-06T09:57:49Z</time>
      </trkpt>
      <trkpt lat="47.56825" lon="-2.70641">
        <ele>9.2</ele>
        <time>2021-08-06T09:57:50Z</time>
      </trkpt>
      <trkpt lat="47.5683" lon="-2.70641">
        <ele>8.8</ele>
        <time>2021-08-06T09:57:51Z</time>
      </trkpt>
      <trkpt lat="47.56834" lon="-2.70641">
        <ele>8.8</ele>
        <time>2021-08-06T09:57:52Z</time>
      </trkpt>
      <trkpt lat="47.56839" lon="-2.70641">
        <ele>8.6</ele>
        <time>2021-08-06T09:57:53Z</time>
      </trkpt>
      <trkpt lat="47.56843" lon="-2.70641">
        <ele>8.6</ele>
        <time>2021-08-06T09:57:54Z</time>
      </trkpt>
      <trkpt lat="47.56848" lon="-2.70641">
        <ele>8.6</ele>
        <time>2021-08-06T09:57:55Z</time>
      </trkpt>
      <trkpt lat="47.56852" lon="-2.7064">
        <ele>8.6</ele>
        <time>2021-08-06T09:57:56Z</time>
      </trkpt>
      <trkpt lat="47.56857" lon="-2.7064">
        <ele>8.6</ele>
        <time>2021-08-06T09:57:57Z</time>
      </trkpt>
      <trkpt lat="47.56861" lon="-2.7064">
        <ele>8.6</ele>
        <time>2021-08-06T09:57:58Z</time>
      </trkpt>
      <trkpt lat="47.56866" lon="-2.70639">
        <ele>8.6</ele>
        <time>2021-08-06T09:57:59Z</time>
      </trkpt>
      <trkpt lat="47.5687" lon="-2.70638">
        <ele>8.6</ele>
        <time>2021-08-06T09:58:00Z</time>
      </trkpt>
      <trkpt lat="47.56875" lon="-2.70638">
        <ele>8.6</ele>
        <time>2021-08-06T09:58:01Z</time>
      </trkpt>
      <trkpt lat="47.56879" lon="-2.70637">
        <ele>8.6</ele>
        <time>2021-08-06T09:58:02Z</time>
      </trkpt>
      <trkpt lat="47.56884" lon="-2.70637">
        <ele>8.8</ele>
        <time>2021-08-06T09:58:03Z</time>
      </trkpt>
      <trkpt lat="47.56888" lon="-2.70636">
        <ele>8.8</ele>
        <time>2021-08-06T09:58:04Z</time>
      </trkpt>
      <trkpt lat="47.56893" lon="-2.70635">
        <ele>8.8</ele>
        <time>2021-08-06T09:58:05Z</time>
      </trkpt>
      <trkpt lat="47.56897" lon="-2.70634">
        <ele>8.8</ele>
        <time>2021-08-06T09:58:06Z</time>
      </trkpt>
      <trkpt lat="47.56901" lon="-2.70632">
        <ele>8.8</ele>
        <time>2021-08-06T09:58:07Z</time>
      </trkpt>
      <trkpt lat="47.56905" lon="-2.7063">
        <ele>9</ele>
        <time>2021-08-06T09:58:08Z</time>
      </trkpt>
      <trkpt lat="47.5691" lon="-2.70628">
        <ele>9</ele>
        <time>2021-08-06T09:58:09Z</time>
      </trkpt>
      <trkpt lat="47.56914" lon="-2.70626">
        <ele>9</ele>
        <time>2021-08-06T09:58:10Z</time>
      </trkpt>
      <trkpt lat="47.56919" lon="-2.70624">
        <ele>9</ele>
        <time>2021-08-06T09:58:11Z</time>
      </trkpt>
      <trkpt lat="47.56924" lon="-2.70622">
        <ele>9</ele>
        <time>2021-08-06T09:58:12Z</time>
      </trkpt>
      <trkpt lat="47.56929" lon="-2.7062">
        <ele>9</ele>
        <time>2021-08-06T09:58:13Z</time>
      </trkpt>
      <trkpt lat="47.56934" lon="-2.70617">
        <ele>9</ele>
        <time>2021-08-06T09:58:14Z</time>
      </trkpt>
      <trkpt lat="47.56939" lon="-2.70615">
        <ele>9.2</ele>
        <time>2021-08-06T09:58:15Z</time>
      </trkpt>
      <trkpt lat="47.56944" lon="-2.70612">
        <ele>9.2</ele>
        <time>2021-08-06T09:58:16Z</time>
      </trkpt>
      <trkpt lat="47.56949" lon="-2.70608">
        <ele>9.2</ele>
        <time>2021-08-06T09:58:17Z</time>
      </trkpt>
      <trkpt lat="47.56955" lon="-2.70604">
        <ele>9.2</ele>
        <time>2021-08-06T09:58:18Z</time>
      </trkpt>
      <trkpt lat="47.5696" lon="-2.706">
        <ele>9.2</ele>
        <time>2021-08-06T09:58:19Z</time>
      </trkpt>
      <trkpt lat="47.56966" lon="-2.70596">
        <ele>9.2</ele>
        <time>2021-08-06T09:58:20Z</time>
      </trkpt>
      <trkpt lat="47.56972" lon="-2.70593">
        <ele>9.2</ele>
        <time>2021-08-06T09:58:21Z</time>
      </trkpt>
      <trkpt lat="47.56978" lon="-2.70589">
        <ele>9.2</ele>
        <time>2021-08-06T09:58:22Z</time>
      </trkpt>
      <trkpt lat="47.56984" lon="-2.70585">
        <ele>9.2</ele>
        <time>2021-08-06T09:58:23Z</time>
      </trkpt>
      <trkpt lat="47.5699" lon="-2.70582">
        <ele>9.2</ele>
        <time>2021-08-06T09:58:24Z</time>
      </trkpt>
      <trkpt lat="47.56996" lon="-2.70579">
        <ele>9.2</ele>
        <time>2021-08-06T09:58:25Z</time>
      </trkpt>
      <trkpt lat="47.57001" lon="-2.70575">
        <ele>9</ele>
        <time>2021-08-06T09:58:26Z</time>
      </trkpt>
      <trkpt lat="47.57007" lon="-2.70572">
        <ele>8.8</ele>
        <time>2021-08-06T09:58:27Z</time>
      </trkpt>
      <trkpt lat="47.57013" lon="-2.7057">
        <ele>8.8</ele>
        <time>2021-08-06T09:58:28Z</time>
      </trkpt>
      <trkpt lat="47.57018" lon="-2.70567">
        <ele>8.6</ele>
        <time>2021-08-06T09:58:29Z</time>
      </trkpt>
      <trkpt lat="47.57022" lon="-2.70564">
        <ele>8.6</ele>
        <time>2021-08-06T09:58:30Z</time>
      </trkpt>
      <trkpt lat="47.57027" lon="-2.70561">
        <ele>8.6</ele>
        <time>2021-08-06T09:58:31Z</time>
      </trkpt>
      <trkpt lat="47.57031" lon="-2.70559">
        <ele>8.6</ele>
        <time>2021-08-06T09:58:32Z</time>
      </trkpt>
      <trkpt lat="47.57035" lon="-2.70557">
        <ele>8.6</ele>
        <time>2021-08-06T09:58:33Z</time>
      </trkpt>
      <trkpt lat="47.57039" lon="-2.70555">
        <ele>8.6</ele>
        <time>2021-08-06T09:58:34Z</time>
      </trkpt>
      <trkpt lat="47.57043" lon="-2.70553">
        <ele>8.6</ele>
        <time>2021-08-06T09:58:35Z</time>
      </trkpt>
      <trkpt lat="47.57047" lon="-2.70551">
        <ele>8.6</ele>
        <time>2021-08-06T09:58:36Z</time>
      </trkpt>
      <trkpt lat="47.57051" lon="-2.70548">
        <ele>8.6</ele>
        <time>2021-08-06T09:58:37Z</time>
      </trkpt>
      <trkpt lat="47.57055" lon="-2.70546">
        <ele>8.6</ele>
        <time>2021-08-06T09:58:38Z</time>
      </trkpt>
      <trkpt lat="47.57059" lon="-2.70543">
        <ele>8.6</ele>
        <time>2021-08-06T09:58:39Z</time>
      </trkpt>
      <trkpt lat="47.57063" lon="-2.70541">
        <ele>8.6</ele>
        <time>2021-08-06T09:58:40Z</time>
      </trkpt>
      <trkpt lat="47.57067" lon="-2.70539">
        <ele>8.6</ele>
        <time>2021-08-06T09:58:41Z</time>
      </trkpt>
      <trkpt lat="47.57072" lon="-2.70536">
        <ele>8.6</ele>
        <time>2021-08-06T09:58:42Z</time>
      </trkpt>
      <trkpt lat="47.57076" lon="-2.70534">
        <ele>8.6</ele>
        <time>2021-08-06T09:58:43Z</time>
      </trkpt>
      <trkpt lat="47.5708" lon="-2.70532">
        <ele>8.6</ele>
        <time>2021-08-06T09:58:44Z</time>
      </trkpt>
      <trkpt lat="47.57085" lon="-2.70529">
        <ele>8.6</ele>
        <time>2021-08-06T09:58:45Z</time>
      </trkpt>
      <trkpt lat="47.57089" lon="-2.70526">
        <ele>8.8</ele>
        <time>2021-08-06T09:58:46Z</time>
      </trkpt>
      <trkpt lat="47.57093" lon="-2.70524">
        <ele>8.8</ele>
        <time>2021-08-06T09:58:47Z</time>
      </trkpt>
      <trkpt lat="47.57098" lon="-2.70522">
        <ele>8.8</ele>
        <time>2021-08-06T09:58:48Z</time>
      </trkpt>
      <trkpt lat="47.57102" lon="-2.70519">
        <ele>8.8</ele>
        <time>2021-08-06T09:58:49Z</time>
      </trkpt>
      <trkpt lat="47.57107" lon="-2.70516">
        <ele>8.8</ele>
        <time>2021-08-06T09:58:50Z</time>
      </trkpt>
      <trkpt lat="47.57111" lon="-2.70514">
        <ele>8.8</ele>
        <time>2021-08-06T09:58:51Z</time>
      </trkpt>
      <trkpt lat="47.57116" lon="-2.70511">
        <ele>9</ele>
        <time>2021-08-06T09:58:52Z</time>
      </trkpt>
      <trkpt lat="47.5712" lon="-2.70508">
        <ele>9</ele>
        <time>2021-08-06T09:58:53Z</time>
      </trkpt>
      <trkpt lat="47.57125" lon="-2.70505">
        <ele>9</ele>
        <time>2021-08-06T09:58:54Z</time>
      </trkpt>
      <trkpt lat="47.5713" lon="-2.70502">
        <ele>9</ele>
        <time>2021-08-06T09:58:55Z</time>
      </trkpt>
      <trkpt lat="47.57134" lon="-2.70499">
        <ele>9</ele>
        <time>2021-08-06T09:58:56Z</time>
      </trkpt>
      <trkpt lat="47.57139" lon="-2.70496">
        <ele>9</ele>
        <time>2021-08-06T09:58:57Z</time>
      </trkpt>
      <trkpt lat="47.57143" lon="-2.70493">
        <ele>9</ele>
        <time>2021-08-06T09:58:58Z</time>
      </trkpt>
      <trkpt lat="47.57148" lon="-2.7049">
        <ele>9</ele>
        <time>2021-08-06T09:58:59Z</time>
      </trkpt>
      <trkpt lat="47.57152" lon="-2.70487">
        <ele>9.2</ele>
        <time>2021-08-06T09:59:00Z</time>
      </trkpt>
      <trkpt lat="47.57156" lon="-2.70484">
        <ele>9.2</ele>
        <time>2021-08-06T09:59:01Z</time>
      </trkpt>
      <trkpt lat="47.5716" lon="-2.70481">
        <ele>9.2</ele>
        <time>2021-08-06T09:59:02Z</time>
      </trkpt>
      <trkpt lat="47.57165" lon="-2.70478">
        <ele>9.2</ele>
        <time>2021-08-06T09:59:03Z</time>
      </trkpt>
      <trkpt lat="47.57169" lon="-2.70475">
        <ele>9.2</ele>
        <time>2021-08-06T09:59:04Z</time>
      </trkpt>
      <trkpt lat="47.57173" lon="-2.70472">
        <ele>9.2</ele>
        <time>2021-08-06T09:59:05Z</time>
      </trkpt>
      <trkpt lat="47.57177" lon="-2.70468">
        <ele>9.2</ele>
        <time>2021-08-06T09:59:06Z</time>
      </trkpt>
      <trkpt lat="47.57181" lon="-2.70465">
        <ele>9.2</ele>
        <time>2021-08-06T09:59:07Z</time>
      </trkpt>
      <trkpt lat="47.57185" lon="-2.70462">
        <ele>9.2</ele>
        <time>2021-08-06T09:59:08Z</time>
      </trkpt>
      <trkpt lat="47.57189" lon="-2.7046">
        <ele>9.4</ele>
        <time>2021-08-06T09:59:09Z</time>
      </trkpt>
      <trkpt lat="47.57193" lon="-2.70457">
        <ele>9.4</ele>
        <time>2021-08-06T09:59:10Z</time>
      </trkpt>
      <trkpt lat="47.57197" lon="-2.70454">
        <ele>9.4</ele>
        <time>2021-08-06T09:59:11Z</time>
      </trkpt>
      <trkpt lat="47.57201" lon="-2.70451">
        <ele>9.4</ele>
        <time>2021-08-06T09:59:12Z</time>
      </trkpt>
      <trkpt lat="47.57205" lon="-2.70448">
        <ele>9.6</ele>
        <time>2021-08-06T09:59:13Z</time>
      </trkpt>
      <trkpt lat="47.57209" lon="-2.70444">
        <ele>9.8</ele>
        <time>2021-08-06T09:59:14Z</time>
      </trkpt>
      <trkpt lat="47.57212" lon="-2.70441">
        <ele>9.8</ele>
        <time>2021-08-06T09:59:15Z</time>
      </trkpt>
      <trkpt lat="47.57216" lon="-2.70438">
        <ele>9.8</ele>
        <time>2021-08-06T09:59:16Z</time>
      </trkpt>
      <trkpt lat="47.5722" lon="-2.70435">
        <ele>9.8</ele>
        <time>2021-08-06T09:59:17Z</time>
      </trkpt>
      <trkpt lat="47.57224" lon="-2.70432">
        <ele>10</ele>
        <time>2021-08-06T09:59:18Z</time>
      </trkpt>
      <trkpt lat="47.57227" lon="-2.70429">
        <ele>10</ele>
        <time>2021-08-06T09:59:19Z</time>
      </trkpt>
      <trkpt lat="47.57231" lon="-2.70426">
        <ele>10</ele>
        <time>2021-08-06T09:59:20Z</time>
      </trkpt>
      <trkpt lat="47.57234" lon="-2.70422">
        <ele>10.2</ele>
        <time>2021-08-06T09:59:21Z</time>
      </trkpt>
      <trkpt lat="47.57238" lon="-2.70419">
        <ele>10.2</ele>
        <time>2021-08-06T09:59:22Z</time>
      </trkpt>
      <trkpt lat="47.57242" lon="-2.70416">
        <ele>10.2</ele>
        <time>2021-08-06T09:59:23Z</time>
      </trkpt>
      <trkpt lat="47.57246" lon="-2.70413">
        <ele>10.2</ele>
        <time>2021-08-06T09:59:24Z</time>
      </trkpt>
      <trkpt lat="47.57249" lon="-2.7041">
        <ele>10.2</ele>
        <time>2021-08-06T09:59:25Z</time>
      </trkpt>
      <trkpt lat="47.57253" lon="-2.70407">
        <ele>10.2</ele>
        <time>2021-08-06T09:59:26Z</time>
      </trkpt>
      <trkpt lat="47.57256" lon="-2.70404">
        <ele>10.2</ele>
        <time>2021-08-06T09:59:27Z</time>
      </trkpt>
      <trkpt lat="47.57259" lon="-2.70401">
        <ele>10.2</ele>
        <time>2021-08-06T09:59:28Z</time>
      </trkpt>
      <trkpt lat="47.57263" lon="-2.70398">
        <ele>10.4</ele>
        <time>2021-08-06T09:59:29Z</time>
      </trkpt>
      <trkpt lat="47.57266" lon="-2.70395">
        <ele>10.4</ele>
        <time>2021-08-06T09:59:30Z</time>
      </trkpt>
      <trkpt lat="47.57269" lon="-2.70392">
        <ele>10.4</ele>
        <time>2021-08-06T09:59:31Z</time>
      </trkpt>
      <trkpt lat="47.57272" lon="-2.70389">
        <ele>10.4</ele>
        <time>2021-08-06T09:59:32Z</time>
      </trkpt>
      <trkpt lat="47.57276" lon="-2.70386">
        <ele>10.4</ele>
        <time>2021-08-06T09:59:33Z</time>
      </trkpt>
      <trkpt lat="47.57279" lon="-2.70382">
        <ele>10.4</ele>
        <time>2021-08-06T09:59:34Z</time>
      </trkpt>
      <trkpt lat="47.57282" lon="-2.70379">
        <ele>10.4</ele>
        <time>2021-08-06T09:59:35Z</time>
      </trkpt>
      <trkpt lat="47.57286" lon="-2.70375">
        <ele>10.4</ele>
        <time>2021-08-06T09:59:36Z</time>
      </trkpt>
      <trkpt lat="47.57289" lon="-2.70372">
        <ele>10.4</ele>
        <time>2021-08-06T09:59:37Z</time>
      </trkpt>
      <trkpt lat="47.57293" lon="-2.70369">
        <ele>10.6</ele>
        <time>2021-08-06T09:59:38Z</time>
      </trkpt>
      <trkpt lat="47.57296" lon="-2.70365">
        <ele>10.6</ele>
        <time>2021-08-06T09:59:39Z</time>
      </trkpt>
      <trkpt lat="47.57299" lon="-2.70362">
        <ele>10.8</ele>
        <time>2021-08-06T09:59:40Z</time>
      </trkpt>
      <trkpt lat="47.57303" lon="-2.70359">
        <ele>10.8</ele>
        <time>2021-08-06T09:59:41Z</time>
      </trkpt>
      <trkpt lat="47.57305" lon="-2.70356">
        <ele>10.8</ele>
        <time>2021-08-06T09:59:42Z</time>
      </trkpt>
      <trkpt lat="47.57309" lon="-2.70353">
        <ele>10.8</ele>
        <time>2021-08-06T09:59:43Z</time>
      </trkpt>
      <trkpt lat="47.57312" lon="-2.70349">
        <ele>10.8</ele>
        <time>2021-08-06T09:59:44Z</time>
      </trkpt>
      <trkpt lat="47.57315" lon="-2.70345">
        <ele>10.8</ele>
        <time>2021-08-06T09:59:45Z</time>
      </trkpt>
      <trkpt lat="47.57319" lon="-2.70341">
        <ele>10.8</ele>
        <time>2021-08-06T09:59:46Z</time>
      </trkpt>
      <trkpt lat="47.57323" lon="-2.70337">
        <ele>10.8</ele>
        <time>2021-08-06T09:59:47Z</time>
      </trkpt>
      <trkpt lat="47.57327" lon="-2.70332">
        <ele>10.8</ele>
        <time>2021-08-06T09:59:48Z</time>
      </trkpt>
      <trkpt lat="47.57331" lon="-2.70327">
        <ele>10.6</ele>
        <time>2021-08-06T09:59:49Z</time>
      </trkpt>
      <trkpt lat="47.57336" lon="-2.70323">
        <ele>10.6</ele>
        <time>2021-08-06T09:59:50Z</time>
      </trkpt>
      <trkpt lat="47.57341" lon="-2.70318">
        <ele>10.4</ele>
        <time>2021-08-06T09:59:51Z</time>
      </trkpt>
      <trkpt lat="47.57346" lon="-2.70313">
        <ele>10.2</ele>
        <time>2021-08-06T09:59:52Z</time>
      </trkpt>
      <trkpt lat="47.5735" lon="-2.70309">
        <ele>10</ele>
        <time>2021-08-06T09:59:53Z</time>
      </trkpt>
      <trkpt lat="47.57354" lon="-2.70306">
        <ele>9.8</ele>
        <time>2021-08-06T09:59:54Z</time>
      </trkpt>
      <trkpt lat="47.57358" lon="-2.70302">
        <ele>9.4</ele>
        <time>2021-08-06T09:59:55Z</time>
      </trkpt>
      <trkpt lat="47.57362" lon="-2.70299">
        <ele>9.2</ele>
        <time>2021-08-06T09:59:56Z</time>
      </trkpt>
      <trkpt lat="47.57365" lon="-2.70295">
        <ele>9.2</ele>
        <time>2021-08-06T09:59:57Z</time>
      </trkpt>
      <trkpt lat="47.57368" lon="-2.70292">
        <ele>9.2</ele>
        <time>2021-08-06T09:59:58Z</time>
      </trkpt>
      <trkpt lat="47.5737" lon="-2.70288">
        <ele>9</ele>
        <time>2021-08-06T09:59:59Z</time>
      </trkpt>
      <trkpt lat="47.57372" lon="-2.70286">
        <ele>9</ele>
        <time>2021-08-06T10:00:00Z</time>
      </trkpt>
      <trkpt lat="47.57374" lon="-2.70282">
        <ele>9</ele>
        <time>2021-08-06T10:00:01Z</time>
      </trkpt>
      <trkpt lat="47.57377" lon="-2.70279">
        <ele>9</ele>
        <time>2021-08-06T10:00:02Z</time>
      </trkpt>
      <trkpt lat="47.57379" lon="-2.70275">
        <ele>9</ele>
        <time>2021-08-06T10:00:03Z</time>
      </trkpt>
      <trkpt lat="47.57381" lon="-2.70271">
        <ele>9</ele>
        <time>2021-08-06T10:00:04Z</time>
      </trkpt>
      <trkpt lat="47.57382" lon="-2.70267">
        <ele>9</ele>
        <time>2021-08-06T10:00:05Z</time>
      </trkpt>
      <trkpt lat="47.57385" lon="-2.70264">
        <ele>9.2</ele>
        <time>2021-08-06T10:00:06Z</time>
      </trkpt>
      <trkpt lat="47.57387" lon="-2.7026">
        <ele>9.2</ele>
        <time>2021-08-06T10:00:07Z</time>
      </trkpt>
      <trkpt lat="47.5739" lon="-2.70257">
        <ele>9.4</ele>
        <time>2021-08-06T10:00:08Z</time>
      </trkpt>
      <trkpt lat="47.57393" lon="-2.70253">
        <ele>9.4</ele>
        <time>2021-08-06T10:00:09Z</time>
      </trkpt>
      <trkpt lat="47.57396" lon="-2.70249">
        <ele>9.4</ele>
        <time>2021-08-06T10:00:10Z</time>
      </trkpt>
      <trkpt lat="47.57399" lon="-2.70245">
        <ele>9.6</ele>
        <time>2021-08-06T10:00:11Z</time>
      </trkpt>
      <trkpt lat="47.57401" lon="-2.70242">
        <ele>9.6</ele>
        <time>2021-08-06T10:00:12Z</time>
      </trkpt>
      <trkpt lat="47.57404" lon="-2.70238">
        <ele>9.6</ele>
        <time>2021-08-06T10:00:13Z</time>
      </trkpt>
      <trkpt lat="47.57406" lon="-2.70235">
        <ele>9.6</ele>
        <time>2021-08-06T10:00:14Z</time>
      </trkpt>
      <trkpt lat="47.57408" lon="-2.70232">
        <ele>9.6</ele>
        <time>2021-08-06T10:00:15Z</time>
      </trkpt>
      <trkpt lat="47.5741" lon="-2.70228">
        <ele>9.6</ele>
        <time>2021-08-06T10:00:16Z</time>
      </trkpt>
      <trkpt lat="47.57413" lon="-2.70225">
        <ele>9.8</ele>
        <time>2021-08-06T10:00:17Z</time>
      </trkpt>
      <trkpt lat="47.57416" lon="-2.70221">
        <ele>9.8</ele>
        <time>2021-08-06T10:00:18Z</time>
      </trkpt>
      <trkpt lat="47.57419" lon="-2.70217">
        <ele>10</ele>
        <time>2021-08-06T10:00:19Z</time>
      </trkpt>
      <trkpt lat="47.57422" lon="-2.70213">
        <ele>10</ele>
        <time>2021-08-06T10:00:20Z</time>
      </trkpt>
      <trkpt lat="47.57426" lon="-2.70209">
        <ele>10</ele>
        <time>2021-08-06T10:00:21Z</time>
      </trkpt>
      <trkpt lat="47.57429" lon="-2.70204">
        <ele>10</ele>
        <time>2021-08-06T10:00:22Z</time>
      </trkpt>
      <trkpt lat="47.57432" lon="-2.70199">
        <ele>10</ele>
        <time>2021-08-06T10:00:23Z</time>
      </trkpt>
      <trkpt lat="47.57435" lon="-2.70195">
        <ele>10</ele>
        <time>2021-08-06T10:00:24Z</time>
      </trkpt>
      <trkpt lat="47.57439" lon="-2.70191">
        <ele>10</ele>
        <time>2021-08-06T10:00:25Z</time>
      </trkpt>
      <trkpt lat="47.57442" lon="-2.70187">
        <ele>10</ele>
        <time>2021-08-06T10:00:26Z</time>
      </trkpt>
      <trkpt lat="47.57445" lon="-2.70183">
        <ele>10</ele>
        <time>2021-08-06T10:00:27Z</time>
      </trkpt>
      <trkpt lat="47.57448" lon="-2.70179">
        <ele>10.2</ele>
        <time>2021-08-06T10:00:28Z</time>
      </trkpt>
      <trkpt lat="47.57452" lon="-2.70173">
        <ele>10.2</ele>
        <time>2021-08-06T10:00:29Z</time>
      </trkpt>
      <trkpt lat="47.57455" lon="-2.70168">
        <ele>10.2</ele>
        <time>2021-08-06T10:00:30Z</time>
      </trkpt>
      <trkpt lat="47.57459" lon="-2.70163">
        <ele>10.2</ele>
        <time>2021-08-06T10:00:31Z</time>
      </trkpt>
      <trkpt lat="47.57462" lon="-2.70158">
        <ele>10.4</ele>
        <time>2021-08-06T10:00:32Z</time>
      </trkpt>
      <trkpt lat="47.57466" lon="-2.70153">
        <ele>10.4</ele>
        <time>2021-08-06T10:00:33Z</time>
      </trkpt>
      <trkpt lat="47.57469" lon="-2.70148">
        <ele>10.6</ele>
        <time>2021-08-06T10:00:34Z</time>
      </trkpt>
      <trkpt lat="47.57473" lon="-2.70143">
        <ele>10.8</ele>
        <time>2021-08-06T10:00:35Z</time>
      </trkpt>
      <trkpt lat="47.57476" lon="-2.70138">
        <ele>10.8</ele>
        <time>2021-08-06T10:00:36Z</time>
      </trkpt>
      <trkpt lat="47.57479" lon="-2.70133">
        <ele>10.8</ele>
        <time>2021-08-06T10:00:37Z</time>
      </trkpt>
      <trkpt lat="47.57483" lon="-2.70129">
        <ele>10.8</ele>
        <time>2021-08-06T10:00:38Z</time>
      </trkpt>
      <trkpt lat="47.57486" lon="-2.70124">
        <ele>11.2</ele>
        <time>2021-08-06T10:00:39Z</time>
      </trkpt>
      <trkpt lat="47.5749" lon="-2.7012">
        <ele>11.4</ele>
        <time>2021-08-06T10:00:40Z</time>
      </trkpt>
      <trkpt lat="47.57494" lon="-2.70114">
        <ele>11.6</ele>
        <time>2021-08-06T10:00:41Z</time>
      </trkpt>
      <trkpt lat="47.57498" lon="-2.70109">
        <ele>11.6</ele>
        <time>2021-08-06T10:00:42Z</time>
      </trkpt>
      <trkpt lat="47.57502" lon="-2.70104">
        <ele>11.8</ele>
        <time>2021-08-06T10:00:43Z</time>
      </trkpt>
      <trkpt lat="47.57506" lon="-2.70099">
        <ele>11.8</ele>
        <time>2021-08-06T10:00:44Z</time>
      </trkpt>
      <trkpt lat="47.5751" lon="-2.70095">
        <ele>12</ele>
        <time>2021-08-06T10:00:45Z</time>
      </trkpt>
      <trkpt lat="47.57514" lon="-2.7009">
        <ele>12</ele>
        <time>2021-08-06T10:00:46Z</time>
      </trkpt>
      <trkpt lat="47.57519" lon="-2.70086">
        <ele>12</ele>
        <time>2021-08-06T10:00:47Z</time>
      </trkpt>
      <trkpt lat="47.57523" lon="-2.70081">
        <ele>12.2</ele>
        <time>2021-08-06T10:00:48Z</time>
      </trkpt>
      <trkpt lat="47.57527" lon="-2.70076">
        <ele>12.2</ele>
        <time>2021-08-06T10:00:49Z</time>
      </trkpt>
      <trkpt lat="47.57532" lon="-2.70071">
        <ele>12.2</ele>
        <time>2021-08-06T10:00:50Z</time>
      </trkpt>
      <trkpt lat="47.57537" lon="-2.70067">
        <ele>12.4</ele>
        <time>2021-08-06T10:00:51Z</time>
      </trkpt>
      <trkpt lat="47.57541" lon="-2.70062">
        <ele>12.6</ele>
        <time>2021-08-06T10:00:52Z</time>
      </trkpt>
      <trkpt lat="47.57545" lon="-2.70058">
        <ele>12.8</ele>
        <time>2021-08-06T10:00:53Z</time>
      </trkpt>
      <trkpt lat="47.5755" lon="-2.70054">
        <ele>12.8</ele>
        <time>2021-08-06T10:00:54Z</time>
      </trkpt>
      <trkpt lat="47.57554" lon="-2.70049">
        <ele>13</ele>
        <time>2021-08-06T10:00:55Z</time>
      </trkpt>
      <trkpt lat="47.57558" lon="-2.70044">
        <ele>13</ele>
        <time>2021-08-06T10:00:56Z</time>
      </trkpt>
      <trkpt lat="47.57563" lon="-2.7004">
        <ele>13.2</ele>
        <time>2021-08-06T10:00:57Z</time>
      </trkpt>
      <trkpt lat="47.57567" lon="-2.70035">
        <ele>13.4</ele>
        <time>2021-08-06T10:00:58Z</time>
      </trkpt>
      <trkpt lat="47.5757" lon="-2.7003">
        <ele>13.4</ele>
        <time>2021-08-06T10:00:59Z</time>
      </trkpt>
      <trkpt lat="47.57574" lon="-2.70025">
        <ele>13.6</ele>
        <time>2021-08-06T10:01:00Z</time>
      </trkpt>
      <trkpt lat="47.57577" lon="-2.70021">
        <ele>13.6</ele>
        <time>2021-08-06T10:01:01Z</time>
      </trkpt>
      <trkpt lat="47.57581" lon="-2.70016">
        <ele>13.6</ele>
        <time>2021-08-06T10:01:02Z</time>
      </trkpt>
      <trkpt lat="47.57584" lon="-2.70012">
        <ele>13.6</ele>
        <time>2021-08-06T10:01:03Z</time>
      </trkpt>
      <trkpt lat="47.57588" lon="-2.70007">
        <ele>13.8</ele>
        <time>2021-08-06T10:01:04Z</time>
      </trkpt>
      <trkpt lat="47.57591" lon="-2.70002">
        <ele>13.8</ele>
        <time>2021-08-06T10:01:05Z</time>
      </trkpt>
      <trkpt lat="47.57595" lon="-2.69997">
        <ele>13.8</ele>
        <time>2021-08-06T10:01:06Z</time>
      </trkpt>
      <trkpt lat="47.57598" lon="-2.69992">
        <ele>13.8</ele>
        <time>2021-08-06T10:01:07Z</time>
      </trkpt>
      <trkpt lat="47.57602" lon="-2.69987">
        <ele>14</ele>
        <time>2021-08-06T10:01:08Z</time>
      </trkpt>
      <trkpt lat="47.57605" lon="-2.69981">
        <ele>14</ele>
        <time>2021-08-06T10:01:09Z</time>
      </trkpt>
      <trkpt lat="47.57609" lon="-2.69976">
        <ele>14</ele>
        <time>2021-08-06T10:01:10Z</time>
      </trkpt>
      <trkpt lat="47.57613" lon="-2.69971">
        <ele>14</ele>
        <time>2021-08-06T10:01:11Z</time>
      </trkpt>
      <trkpt lat="47.57617" lon="-2.69965">
        <ele>14</ele>
        <time>2021-08-06T10:01:12Z</time>
      </trkpt>
      <trkpt lat="47.57622" lon="-2.6996">
        <ele>14</ele>
        <time>2021-08-06T10:01:13Z</time>
      </trkpt>
      <trkpt lat="47.57626" lon="-2.69954">
        <ele>14</ele>
        <time>2021-08-06T10:01:14Z</time>
      </trkpt>
      <trkpt lat="47.5763" lon="-2.69949">
        <ele>14</ele>
        <time>2021-08-06T10:01:15Z</time>
      </trkpt>
      <trkpt lat="47.57634" lon="-2.69944">
        <ele>14</ele>
        <time>2021-08-06T10:01:16Z</time>
      </trkpt>
      <trkpt lat="47.57639" lon="-2.69938">
        <ele>14</ele>
        <time>2021-08-06T10:01:17Z</time>
      </trkpt>
      <trkpt lat="47.57643" lon="-2.69932">
        <ele>13.8</ele>
        <time>2021-08-06T10:01:18Z</time>
      </trkpt>
      <trkpt lat="47.57647" lon="-2.69926">
        <ele>13.8</ele>
        <time>2021-08-06T10:01:19Z</time>
      </trkpt>
      <trkpt lat="47.57652" lon="-2.69921">
        <ele>13.8</ele>
        <time>2021-08-06T10:01:20Z</time>
      </trkpt>
      <trkpt lat="47.57656" lon="-2.69915">
        <ele>13.8</ele>
        <time>2021-08-06T10:01:21Z</time>
      </trkpt>
      <trkpt lat="47.57661" lon="-2.69909">
        <ele>13.8</ele>
        <time>2021-08-06T10:01:22Z</time>
      </trkpt>
      <trkpt lat="47.57665" lon="-2.69903">
        <ele>13.8</ele>
        <time>2021-08-06T10:01:23Z</time>
      </trkpt>
      <trkpt lat="47.5767" lon="-2.69897">
        <ele>13.8</ele>
        <time>2021-08-06T10:01:24Z</time>
      </trkpt>
      <trkpt lat="47.57675" lon="-2.69891">
        <ele>13.6</ele>
        <time>2021-08-06T10:01:25Z</time>
      </trkpt>
      <trkpt lat="47.5768" lon="-2.69885">
        <ele>13.4</ele>
        <time>2021-08-06T10:01:26Z</time>
      </trkpt>
      <trkpt lat="47.57685" lon="-2.69878">
        <ele>13.4</ele>
        <time>2021-08-06T10:01:27Z</time>
      </trkpt>
      <trkpt lat="47.5769" lon="-2.69872">
        <ele>13.2</ele>
        <time>2021-08-06T10:01:28Z</time>
      </trkpt>
      <trkpt lat="47.57696" lon="-2.69865">
        <ele>13.2</ele>
        <time>2021-08-06T10:01:29Z</time>
      </trkpt>
      <trkpt lat="47.57701" lon="-2.69857">
        <ele>13</ele>
        <time>2021-08-06T10:01:30Z</time>
      </trkpt>
      <trkpt lat="47.57707" lon="-2.6985">
        <ele>13</ele>
        <time>2021-08-06T10:01:31Z</time>
      </trkpt>
      <trkpt lat="47.57713" lon="-2.69843">
        <ele>12.8</ele>
        <time>2021-08-06T10:01:32Z</time>
      </trkpt>
      <trkpt lat="47.57719" lon="-2.69835">
        <ele>12.6</ele>
        <time>2021-08-06T10:01:33Z</time>
      </trkpt>
      <trkpt lat="47.57725" lon="-2.69827">
        <ele>12.4</ele>
        <time>2021-08-06T10:01:34Z</time>
      </trkpt>
      <trkpt lat="47.57732" lon="-2.6982">
        <ele>11.8</ele>
        <time>2021-08-06T10:01:35Z</time>
      </trkpt>
      <trkpt lat="47.57738" lon="-2.69811">
        <ele>11.6</ele>
        <time>2021-08-06T10:01:36Z</time>
      </trkpt>
      <trkpt lat="47.57744" lon="-2.69803">
        <ele>11.2</ele>
        <time>2021-08-06T10:01:37Z</time>
      </trkpt>
      <trkpt lat="47.57751" lon="-2.69794">
        <ele>10.6</ele>
        <time>2021-08-06T10:01:38Z</time>
      </trkpt>
      <trkpt lat="47.57757" lon="-2.69785">
        <ele>10.2</ele>
        <time>2021-08-06T10:01:39Z</time>
      </trkpt>
      <trkpt lat="47.57764" lon="-2.69777">
        <ele>10</ele>
        <time>2021-08-06T10:01:40Z</time>
      </trkpt>
      <trkpt lat="47.57771" lon="-2.69768">
        <ele>9.6</ele>
        <time>2021-08-06T10:01:41Z</time>
      </trkpt>
      <trkpt lat="47.57777" lon="-2.69759">
        <ele>9</ele>
        <time>2021-08-06T10:01:42Z</time>
      </trkpt>
      <trkpt lat="47.57784" lon="-2.6975">
        <ele>8.8</ele>
        <time>2021-08-06T10:01:43Z</time>
      </trkpt>
      <trkpt lat="47.57791" lon="-2.69741">
        <ele>8.6</ele>
        <time>2021-08-06T10:01:44Z</time>
      </trkpt>
      <trkpt lat="47.57798" lon="-2.69732">
        <ele>8.4</ele>
        <time>2021-08-06T10:01:45Z</time>
      </trkpt>
      <trkpt lat="47.57805" lon="-2.69723">
        <ele>7.8</ele>
        <time>2021-08-06T10:01:46Z</time>
      </trkpt>
      <trkpt lat="47.57812" lon="-2.69714">
        <ele>7.2</ele>
        <time>2021-08-06T10:01:47Z</time>
      </trkpt>
      <trkpt lat="47.57818" lon="-2.69706">
        <ele>6.6</ele>
        <time>2021-08-06T10:01:48Z</time>
      </trkpt>
      <trkpt lat="47.57825" lon="-2.69697">
        <ele>6.4</ele>
        <time>2021-08-06T10:01:49Z</time>
      </trkpt>
      <trkpt lat="47.57831" lon="-2.69689">
        <ele>6.2</ele>
        <time>2021-08-06T10:01:50Z</time>
      </trkpt>
      <trkpt lat="47.57837" lon="-2.69681">
        <ele>6.2</ele>
        <time>2021-08-06T10:01:51Z</time>
      </trkpt>
      <trkpt lat="47.57843" lon="-2.69674">
        <ele>6.2</ele>
        <time>2021-08-06T10:01:52Z</time>
      </trkpt>
      <trkpt lat="47.57848" lon="-2.69667">
        <ele>6.2</ele>
        <time>2021-08-06T10:01:53Z</time>
      </trkpt>
      <trkpt lat="47.57853" lon="-2.6966">
        <ele>6.2</ele>
        <time>2021-08-06T10:01:54Z</time>
      </trkpt>
      <trkpt lat="47.57858" lon="-2.69653">
        <ele>6.2</ele>
        <time>2021-08-06T10:01:55Z</time>
      </trkpt>
      <trkpt lat="47.57863" lon="-2.69645">
        <ele>6.2</ele>
        <time>2021-08-06T10:01:56Z</time>
      </trkpt>
      <trkpt lat="47.57868" lon="-2.69637">
        <ele>6</ele>
        <time>2021-08-06T10:01:57Z</time>
      </trkpt>
      <trkpt lat="47.57874" lon="-2.6963">
        <ele>6</ele>
        <time>2021-08-06T10:01:58Z</time>
      </trkpt>
      <trkpt lat="47.57879" lon="-2.69622">
        <ele>5.8</ele>
        <time>2021-08-06T10:01:59Z</time>
      </trkpt>
      <trkpt lat="47.57885" lon="-2.69615">
        <ele>5.8</ele>
        <time>2021-08-06T10:02:00Z</time>
      </trkpt>
      <trkpt lat="47.57891" lon="-2.69607">
        <ele>5.8</ele>
        <time>2021-08-06T10:02:01Z</time>
      </trkpt>
      <trkpt lat="47.57897" lon="-2.696">
        <ele>5.8</ele>
        <time>2021-08-06T10:02:02Z</time>
      </trkpt>
      <trkpt lat="47.57903" lon="-2.69592">
        <ele>6</ele>
        <time>2021-08-06T10:02:03Z</time>
      </trkpt>
      <trkpt lat="47.57909" lon="-2.69585">
        <ele>6.2</ele>
        <time>2021-08-06T10:02:04Z</time>
      </trkpt>
      <trkpt lat="47.57915" lon="-2.69578">
        <ele>6.2</ele>
        <time>2021-08-06T10:02:05Z</time>
      </trkpt>
      <trkpt lat="47.57921" lon="-2.69571">
        <ele>6.2</ele>
        <time>2021-08-06T10:02:06Z</time>
      </trkpt>
      <trkpt lat="47.57927" lon="-2.69564">
        <ele>6.4</ele>
        <time>2021-08-06T10:02:07Z</time>
      </trkpt>
      <trkpt lat="47.57933" lon="-2.69557">
        <ele>6.2</ele>
        <time>2021-08-06T10:02:08Z</time>
      </trkpt>
      <trkpt lat="47.57939" lon="-2.6955">
        <ele>6.2</ele>
        <time>2021-08-06T10:02:09Z</time>
      </trkpt>
      <trkpt lat="47.57946" lon="-2.69543">
        <ele>6.2</ele>
        <time>2021-08-06T10:02:10Z</time>
      </trkpt>
      <trkpt lat="47.57952" lon="-2.69536">
        <ele>6</ele>
        <time>2021-08-06T10:02:11Z</time>
      </trkpt>
      <trkpt lat="47.57958" lon="-2.69528">
        <ele>6</ele>
        <time>2021-08-06T10:02:12Z</time>
      </trkpt>
      <trkpt lat="47.57964" lon="-2.69521">
        <ele>5.8</ele>
        <time>2021-08-06T10:02:13Z</time>
      </trkpt>
      <trkpt lat="47.5797" lon="-2.69514">
        <ele>5.8</ele>
        <time>2021-08-06T10:02:14Z</time>
      </trkpt>
      <trkpt lat="47.57976" lon="-2.69506">
        <ele>5.6</ele>
        <time>2021-08-06T10:02:15Z</time>
      </trkpt>
      <trkpt lat="47.57982" lon="-2.69498">
        <ele>5.6</ele>
        <time>2021-08-06T10:02:16Z</time>
      </trkpt>
      <trkpt lat="47.57988" lon="-2.6949">
        <ele>5.6</ele>
        <time>2021-08-06T10:02:17Z</time>
      </trkpt>
      <trkpt lat="47.57995" lon="-2.69482">
        <ele>5.4</ele>
        <time>2021-08-06T10:02:18Z</time>
      </trkpt>
      <trkpt lat="47.58001" lon="-2.69475">
        <ele>5.2</ele>
        <time>2021-08-06T10:02:19Z</time>
      </trkpt>
      <trkpt lat="47.58006" lon="-2.69467">
        <ele>4.2</ele>
        <time>2021-08-06T10:02:20Z</time>
      </trkpt>
      <trkpt lat="47.58012" lon="-2.69459">
        <ele>3.4</ele>
        <time>2021-08-06T10:02:21Z</time>
      </trkpt>
      <trkpt lat="47.58017" lon="-2.69452">
        <ele>2.8</ele>
        <time>2021-08-06T10:02:22Z</time>
      </trkpt>
      <trkpt lat="47.58023" lon="-2.69445">
        <ele>2.6</ele>
        <time>2021-08-06T10:02:23Z</time>
      </trkpt>
      <trkpt lat="47.58028" lon="-2.69439">
        <ele>2</ele>
        <time>2021-08-06T10:02:24Z</time>
      </trkpt>
      <trkpt lat="47.58034" lon="-2.69434">
        <ele>1.4</ele>
        <time>2021-08-06T10:02:25Z</time>
      </trkpt>
      <trkpt lat="47.58039" lon="-2.69428">
        <ele>1.2</ele>
        <time>2021-08-06T10:02:26Z</time>
      </trkpt>
      <trkpt lat="47.58044" lon="-2.69423">
        <ele>1</ele>
        <time>2021-08-06T10:02:27Z</time>
      </trkpt>
      <trkpt lat="47.58049" lon="-2.69419">
        <ele>1</ele>
        <time>2021-08-06T10:02:28Z</time>
      </trkpt>
      <trkpt lat="47.58054" lon="-2.69415">
        <ele>1</ele>
        <time>2021-08-06T10:02:29Z</time>
      </trkpt>
      <trkpt lat="47.5806" lon="-2.6941">
        <ele>0.8</ele>
        <time>2021-08-06T10:02:30Z</time>
      </trkpt>
      <trkpt lat="47.58065" lon="-2.69405">
        <ele>0.8</ele>
        <time>2021-08-06T10:02:31Z</time>
      </trkpt>
      <trkpt lat="47.58069" lon="-2.694">
        <ele>0.8</ele>
        <time>2021-08-06T10:02:32Z</time>
      </trkpt>
      <trkpt lat="47.58074" lon="-2.69395">
        <ele>0.8</ele>
        <time>2021-08-06T10:02:33Z</time>
      </trkpt>
      <trkpt lat="47.58078" lon="-2.69389">
        <ele>1</ele>
        <time>2021-08-06T10:02:34Z</time>
      </trkpt>
      <trkpt lat="47.58082" lon="-2.69383">
        <ele>1</ele>
        <time>2021-08-06T10:02:35Z</time>
      </trkpt>
      <trkpt lat="47.58086" lon="-2.69378">
        <ele>1.2</ele>
        <time>2021-08-06T10:02:36Z</time>
      </trkpt>
      <trkpt lat="47.58089" lon="-2.69372">
        <ele>1.2</ele>
        <time>2021-08-06T10:02:37Z</time>
      </trkpt>
      <trkpt lat="47.58093" lon="-2.69366">
        <ele>1.2</ele>
        <time>2021-08-06T10:02:38Z</time>
      </trkpt>
      <trkpt lat="47.58097" lon="-2.69361">
        <ele>1.4</ele>
        <time>2021-08-06T10:02:39Z</time>
      </trkpt>
      <trkpt lat="47.581" lon="-2.69355">
        <ele>1.6</ele>
        <time>2021-08-06T10:02:40Z</time>
      </trkpt>
      <trkpt lat="47.58104" lon="-2.6935">
        <ele>1.6</ele>
        <time>2021-08-06T10:02:41Z</time>
      </trkpt>
      <trkpt lat="47.58108" lon="-2.69345">
        <ele>1.8</ele>
        <time>2021-08-06T10:02:42Z</time>
      </trkpt>
      <trkpt lat="47.58112" lon="-2.6934">
        <ele>2</ele>
        <time>2021-08-06T10:02:43Z</time>
      </trkpt>
      <trkpt lat="47.58116" lon="-2.69336">
        <ele>2.2</ele>
        <time>2021-08-06T10:02:44Z</time>
      </trkpt>
      <trkpt lat="47.5812" lon="-2.69331">
        <ele>2.6</ele>
        <time>2021-08-06T10:02:45Z</time>
      </trkpt>
      <trkpt lat="47.58123" lon="-2.69327">
        <ele>2.8</ele>
        <time>2021-08-06T10:02:46Z</time>
      </trkpt>
      <trkpt lat="47.58127" lon="-2.69324">
        <ele>3</ele>
        <time>2021-08-06T10:02:47Z</time>
      </trkpt>
      <trkpt lat="47.58131" lon="-2.6932">
        <ele>3</ele>
        <time>2021-08-06T10:02:48Z</time>
      </trkpt>
      <trkpt lat="47.58135" lon="-2.69317">
        <ele>3.2</ele>
        <time>2021-08-06T10:02:49Z</time>
      </trkpt>
      <trkpt lat="47.58139" lon="-2.69314">
        <ele>3.4</ele>
        <time>2021-08-06T10:02:50Z</time>
      </trkpt>
      <trkpt lat="47.58143" lon="-2.6931">
        <ele>3.6</ele>
        <time>2021-08-06T10:02:51Z</time>
      </trkpt>
      <trkpt lat="47.58147" lon="-2.69307">
        <ele>3.8</ele>
        <time>2021-08-06T10:02:52Z</time>
      </trkpt>
      <trkpt lat="47.58151" lon="-2.69303">
        <ele>3.8</ele>
        <time>2021-08-06T10:02:53Z</time>
      </trkpt>
      <trkpt lat="47.58155" lon="-2.69299">
        <ele>3.8</ele>
        <time>2021-08-06T10:02:54Z</time>
      </trkpt>
      <trkpt lat="47.58159" lon="-2.69295">
        <ele>3.8</ele>
        <time>2021-08-06T10:02:55Z</time>
      </trkpt>
      <trkpt lat="47.58162" lon="-2.69291">
        <ele>3.8</ele>
        <time>2021-08-06T10:02:56Z</time>
      </trkpt>
      <trkpt lat="47.58166" lon="-2.69287">
        <ele>4</ele>
        <time>2021-08-06T10:02:57Z</time>
      </trkpt>
      <trkpt lat="47.5817" lon="-2.69284">
        <ele>4</ele>
        <time>2021-08-06T10:02:58Z</time>
      </trkpt>
      <trkpt lat="47.58174" lon="-2.69279">
        <ele>4</ele>
        <time>2021-08-06T10:02:59Z</time>
      </trkpt>
      <trkpt lat="47.58177" lon="-2.69275">
        <ele>4</ele>
        <time>2021-08-06T10:03:00Z</time>
      </trkpt>
      <trkpt lat="47.5818" lon="-2.6927">
        <ele>4</ele>
        <time>2021-08-06T10:03:01Z</time>
      </trkpt>
      <trkpt lat="47.58183" lon="-2.69264">
        <ele>4.2</ele>
        <time>2021-08-06T10:03:02Z</time>
      </trkpt>
      <trkpt lat="47.58185" lon="-2.69259">
        <ele>4.2</ele>
        <time>2021-08-06T10:03:03Z</time>
      </trkpt>
      <trkpt lat="47.58187" lon="-2.69253">
        <ele>4.2</ele>
        <time>2021-08-06T10:03:04Z</time>
      </trkpt>
      <trkpt lat="47.58188" lon="-2.69247">
        <ele>4.2</ele>
        <time>2021-08-06T10:03:05Z</time>
      </trkpt>
      <trkpt lat="47.58189" lon="-2.6924">
        <ele>4.2</ele>
        <time>2021-08-06T10:03:06Z</time>
      </trkpt>
      <trkpt lat="47.5819" lon="-2.69233">
        <ele>4.4</ele>
        <time>2021-08-06T10:03:07Z</time>
      </trkpt>
      <trkpt lat="47.58191" lon="-2.69226">
        <ele>4.4</ele>
        <time>2021-08-06T10:03:08Z</time>
      </trkpt>
      <trkpt lat="47.58191" lon="-2.69219">
        <ele>4.6</ele>
        <time>2021-08-06T10:03:09Z</time>
      </trkpt>
      <trkpt lat="47.58192" lon="-2.69212">
        <ele>4.6</ele>
        <time>2021-08-06T10:03:10Z</time>
      </trkpt>
      <trkpt lat="47.58192" lon="-2.69205">
        <ele>4.8</ele>
        <time>2021-08-06T10:03:11Z</time>
      </trkpt>
      <trkpt lat="47.58192" lon="-2.69198">
        <ele>5</ele>
        <time>2021-08-06T10:03:12Z</time>
      </trkpt>
      <trkpt lat="47.58193" lon="-2.69192">
        <ele>5.2</ele>
        <time>2021-08-06T10:03:13Z</time>
      </trkpt>
      <trkpt lat="47.58193" lon="-2.69186">
        <ele>5.2</ele>
        <time>2021-08-06T10:03:14Z</time>
      </trkpt>
      <trkpt lat="47.58194" lon="-2.6918">
        <ele>5.2</ele>
        <time>2021-08-06T10:03:15Z</time>
      </trkpt>
      <trkpt lat="47.58194" lon="-2.69174">
        <ele>5.2</ele>
        <time>2021-08-06T10:03:16Z</time>
      </trkpt>
      <trkpt lat="47.58195" lon="-2.69168">
        <ele>5.2</ele>
        <time>2021-08-06T10:03:17Z</time>
      </trkpt>
      <trkpt lat="47.58196" lon="-2.69162">
        <ele>5.2</ele>
        <time>2021-08-06T10:03:18Z</time>
      </trkpt>
      <trkpt lat="47.58197" lon="-2.69157">
        <ele>5.2</ele>
        <time>2021-08-06T10:03:19Z</time>
      </trkpt>
      <trkpt lat="47.58199" lon="-2.69151">
        <ele>5.2</ele>
        <time>2021-08-06T10:03:20Z</time>
      </trkpt>
      <trkpt lat="47.58201" lon="-2.69146">
        <ele>5.4</ele>
        <time>2021-08-06T10:03:21Z</time>
      </trkpt>
      <trkpt lat="47.58203" lon="-2.69141">
        <ele>5.4</ele>
        <time>2021-08-06T10:03:22Z</time>
      </trkpt>
      <trkpt lat="47.58206" lon="-2.69137">
        <ele>5.4</ele>
        <time>2021-08-06T10:03:23Z</time>
      </trkpt>
      <trkpt lat="47.58209" lon="-2.69133">
        <ele>5.4</ele>
        <time>2021-08-06T10:03:24Z</time>
      </trkpt>
      <trkpt lat="47.58212" lon="-2.69129">
        <ele>5.4</ele>
        <time>2021-08-06T10:03:25Z</time>
      </trkpt>
      <trkpt lat="47.58216" lon="-2.69126">
        <ele>5.4</ele>
        <time>2021-08-06T10:03:26Z</time>
      </trkpt>
      <trkpt lat="47.58219" lon="-2.69124">
        <ele>5.2</ele>
        <time>2021-08-06T10:03:27Z</time>
      </trkpt>
      <trkpt lat="47.58223" lon="-2.69123">
        <ele>5.2</ele>
        <time>2021-08-06T10:03:28Z</time>
      </trkpt>
      <trkpt lat="47.58227" lon="-2.69121">
        <ele>5.2</ele>
        <time>2021-08-06T10:03:29Z</time>
      </trkpt>
      <trkpt lat="47.5823" lon="-2.6912">
        <ele>5.2</ele>
        <time>2021-08-06T10:03:30Z</time>
      </trkpt>
      <trkpt lat="47.58234" lon="-2.69119">
        <ele>5.2</ele>
        <time>2021-08-06T10:03:31Z</time>
      </trkpt>
      <trkpt lat="47.58239" lon="-2.69118">
        <ele>5.2</ele>
        <time>2021-08-06T10:03:32Z</time>
      </trkpt>
      <trkpt lat="47.58243" lon="-2.69116">
        <ele>5.2</ele>
        <time>2021-08-06T10:03:33Z</time>
      </trkpt>
      <trkpt lat="47.58247" lon="-2.69114">
        <ele>5.2</ele>
        <time>2021-08-06T10:03:34Z</time>
      </trkpt>
      <trkpt lat="47.58251" lon="-2.6911">
        <ele>5.2</ele>
        <time>2021-08-06T10:03:35Z</time>
      </trkpt>
      <trkpt lat="47.58255" lon="-2.69106">
        <ele>5.2</ele>
        <time>2021-08-06T10:03:36Z</time>
      </trkpt>
      <trkpt lat="47.58258" lon="-2.691">
        <ele>5.2</ele>
        <time>2021-08-06T10:03:37Z</time>
      </trkpt>
      <trkpt lat="47.58261" lon="-2.69095">
        <ele>5.2</ele>
        <time>2021-08-06T10:03:38Z</time>
      </trkpt>
      <trkpt lat="47.58265" lon="-2.6909">
        <ele>5.2</ele>
        <time>2021-08-06T10:03:39Z</time>
      </trkpt>
      <trkpt lat="47.58268" lon="-2.69084">
        <ele>5.2</ele>
        <time>2021-08-06T10:03:40Z</time>
      </trkpt>
      <trkpt lat="47.58271" lon="-2.69078">
        <ele>5</ele>
        <time>2021-08-06T10:03:41Z</time>
      </trkpt>
      <trkpt lat="47.58273" lon="-2.69072">
        <ele>5</ele>
        <time>2021-08-06T10:03:42Z</time>
      </trkpt>
      <trkpt lat="47.58275" lon="-2.69066">
        <ele>4.8</ele>
        <time>2021-08-06T10:03:43Z</time>
      </trkpt>
      <trkpt lat="47.58278" lon="-2.6906">
        <ele>4.8</ele>
        <time>2021-08-06T10:03:44Z</time>
      </trkpt>
      <trkpt lat="47.58279" lon="-2.69053">
        <ele>4.8</ele>
        <time>2021-08-06T10:03:45Z</time>
      </trkpt>
      <trkpt lat="47.58281" lon="-2.69046">
        <ele>4.8</ele>
        <time>2021-08-06T10:03:46Z</time>
      </trkpt>
      <trkpt lat="47.58282" lon="-2.69039">
        <ele>4.8</ele>
        <time>2021-08-06T10:03:47Z</time>
      </trkpt>
      <trkpt lat="47.58284" lon="-2.69033">
        <ele>4.8</ele>
        <time>2021-08-06T10:03:48Z</time>
      </trkpt>
      <trkpt lat="47.58285" lon="-2.69026">
        <ele>4.6</ele>
        <time>2021-08-06T10:03:49Z</time>
      </trkpt>
      <trkpt lat="47.58287" lon="-2.6902">
        <ele>4.6</ele>
        <time>2021-08-06T10:03:50Z</time>
      </trkpt>
      <trkpt lat="47.58288" lon="-2.69013">
        <ele>4.6</ele>
        <time>2021-08-06T10:03:51Z</time>
      </trkpt>
      <trkpt lat="47.58289" lon="-2.69008">
        <ele>4.6</ele>
        <time>2021-08-06T10:03:52Z</time>
      </trkpt>
      <trkpt lat="47.58291" lon="-2.69002">
        <ele>4.6</ele>
        <time>2021-08-06T10:03:53Z</time>
      </trkpt>
      <trkpt lat="47.58293" lon="-2.68996">
        <ele>4.6</ele>
        <time>2021-08-06T10:03:54Z</time>
      </trkpt>
      <trkpt lat="47.58294" lon="-2.6899">
        <ele>4.6</ele>
        <time>2021-08-06T10:03:55Z</time>
      </trkpt>
      <trkpt lat="47.58296" lon="-2.68984">
        <ele>4.6</ele>
        <time>2021-08-06T10:03:56Z</time>
      </trkpt>
      <trkpt lat="47.58297" lon="-2.68978">
        <ele>4.6</ele>
        <time>2021-08-06T10:03:57Z</time>
      </trkpt>
      <trkpt lat="47.58299" lon="-2.68973">
        <ele>4.6</ele>
        <time>2021-08-06T10:03:58Z</time>
      </trkpt>
      <trkpt lat="47.58301" lon="-2.68968">
        <ele>4.6</ele>
        <time>2021-08-06T10:03:59Z</time>
      </trkpt>
      <trkpt lat="47.58302" lon="-2.68962">
        <ele>4.6</ele>
        <time>2021-08-06T10:04:00Z</time>
      </trkpt>
      <trkpt lat="47.58304" lon="-2.68957">
        <ele>4.6</ele>
        <time>2021-08-06T10:04:01Z</time>
      </trkpt>
      <trkpt lat="47.58306" lon="-2.68952">
        <ele>4.6</ele>
        <time>2021-08-06T10:04:02Z</time>
      </trkpt>
      <trkpt lat="47.58307" lon="-2.68946">
        <ele>4.6</ele>
        <time>2021-08-06T10:04:03Z</time>
      </trkpt>
      <trkpt lat="47.58309" lon="-2.68941">
        <ele>4.8</ele>
        <time>2021-08-06T10:04:04Z</time>
      </trkpt>
      <trkpt lat="47.58312" lon="-2.68935">
        <ele>4.8</ele>
        <time>2021-08-06T10:04:05Z</time>
      </trkpt>
      <trkpt lat="47.58315" lon="-2.6893">
        <ele>4.8</ele>
        <time>2021-08-06T10:04:06Z</time>
      </trkpt>
      <trkpt lat="47.58317" lon="-2.68925">
        <ele>4.8</ele>
        <time>2021-08-06T10:04:07Z</time>
      </trkpt>
      <trkpt lat="47.58319" lon="-2.6892">
        <ele>5</ele>
        <time>2021-08-06T10:04:08Z</time>
      </trkpt>
      <trkpt lat="47.58322" lon="-2.68915">
        <ele>5.2</ele>
        <time>2021-08-06T10:04:09Z</time>
      </trkpt>
      <trkpt lat="47.58325" lon="-2.6891">
        <ele>5.4</ele>
        <time>2021-08-06T10:04:10Z</time>
      </trkpt>
      <trkpt lat="47.58328" lon="-2.68905">
        <ele>5.6</ele>
        <time>2021-08-06T10:04:11Z</time>
      </trkpt>
      <trkpt lat="47.58331" lon="-2.689">
        <ele>5.6</ele>
        <time>2021-08-06T10:04:12Z</time>
      </trkpt>
      <trkpt lat="47.58333" lon="-2.68894">
        <ele>5.6</ele>
        <time>2021-08-06T10:04:13Z</time>
      </trkpt>
      <trkpt lat="47.58336" lon="-2.68889">
        <ele>5.8</ele>
        <time>2021-08-06T10:04:14Z</time>
      </trkpt>
      <trkpt lat="47.58339" lon="-2.68884">
        <ele>5.8</ele>
        <time>2021-08-06T10:04:15Z</time>
      </trkpt>
      <trkpt lat="47.58341" lon="-2.68879">
        <ele>5.8</ele>
        <time>2021-08-06T10:04:16Z</time>
      </trkpt>
      <trkpt lat="47.58343" lon="-2.68875">
        <ele>5.8</ele>
        <time>2021-08-06T10:04:17Z</time>
      </trkpt>
      <trkpt lat="47.58345" lon="-2.6887">
        <ele>6</ele>
        <time>2021-08-06T10:04:18Z</time>
      </trkpt>
      <trkpt lat="47.58347" lon="-2.68866">
        <ele>6</ele>
        <time>2021-08-06T10:04:19Z</time>
      </trkpt>
      <trkpt lat="47.58349" lon="-2.68861">
        <ele>6</ele>
        <time>2021-08-06T10:04:20Z</time>
      </trkpt>
      <trkpt lat="47.58352" lon="-2.68857">
        <ele>6.2</ele>
        <time>2021-08-06T10:04:21Z</time>
      </trkpt>
      <trkpt lat="47.58354" lon="-2.68853">
        <ele>6.2</ele>
        <time>2021-08-06T10:04:22Z</time>
      </trkpt>
      <trkpt lat="47.58357" lon="-2.68849">
        <ele>6.4</ele>
        <time>2021-08-06T10:04:23Z</time>
      </trkpt>
      <trkpt lat="47.58359" lon="-2.68845">
        <ele>6.6</ele>
        <time>2021-08-06T10:04:24Z</time>
      </trkpt>
      <trkpt lat="47.58361" lon="-2.68842">
        <ele>7</ele>
        <time>2021-08-06T10:04:25Z</time>
      </trkpt>
      <trkpt lat="47.58364" lon="-2.68837">
        <ele>7</ele>
        <time>2021-08-06T10:04:26Z</time>
      </trkpt>
      <trkpt lat="47.58365" lon="-2.68833">
        <ele>7.2</ele>
        <time>2021-08-06T10:04:27Z</time>
      </trkpt>
      <trkpt lat="47.58367" lon="-2.68829">
        <ele>7.2</ele>
        <time>2021-08-06T10:04:28Z</time>
      </trkpt>
      <trkpt lat="47.58369" lon="-2.68825">
        <ele>7.4</ele>
        <time>2021-08-06T10:04:29Z</time>
      </trkpt>
      <trkpt lat="47.58371" lon="-2.6882">
        <ele>7.4</ele>
        <time>2021-08-06T10:04:30Z</time>
      </trkpt>
      <trkpt lat="47.58373" lon="-2.68816">
        <ele>7.4</ele>
        <time>2021-08-06T10:04:31Z</time>
      </trkpt>
      <trkpt lat="47.58375" lon="-2.68811">
        <ele>7.4</ele>
        <time>2021-08-06T10:04:32Z</time>
      </trkpt>
      <trkpt lat="47.58377" lon="-2.68806">
        <ele>7.6</ele>
        <time>2021-08-06T10:04:33Z</time>
      </trkpt>
      <trkpt lat="47.58379" lon="-2.688">
        <ele>7.6</ele>
        <time>2021-08-06T10:04:34Z</time>
      </trkpt>
      <trkpt lat="47.58381" lon="-2.68794">
        <ele>7.6</ele>
        <time>2021-08-06T10:04:35Z</time>
      </trkpt>
      <trkpt lat="47.58383" lon="-2.68788">
        <ele>7.6</ele>
        <time>2021-08-06T10:04:36Z</time>
      </trkpt>
      <trkpt lat="47.58385" lon="-2.68783">
        <ele>7.6</ele>
        <time>2021-08-06T10:04:37Z</time>
      </trkpt>
      <trkpt lat="47.58387" lon="-2.68777">
        <ele>7.6</ele>
        <time>2021-08-06T10:04:38Z</time>
      </trkpt>
      <trkpt lat="47.58388" lon="-2.68772">
        <ele>7.6</ele>
        <time>2021-08-06T10:04:39Z</time>
      </trkpt>
      <trkpt lat="47.5839" lon="-2.68766">
        <ele>7.8</ele>
        <time>2021-08-06T10:04:40Z</time>
      </trkpt>
      <trkpt lat="47.58392" lon="-2.6876">
        <ele>7.8</ele>
        <time>2021-08-06T10:04:41Z</time>
      </trkpt>
      <trkpt lat="47.58393" lon="-2.68753">
        <ele>7.8</ele>
        <time>2021-08-06T10:04:42Z</time>
      </trkpt>
      <trkpt lat="47.58395" lon="-2.68746">
        <ele>7.8</ele>
        <time>2021-08-06T10:04:43Z</time>
      </trkpt>
      <trkpt lat="47.58397" lon="-2.68739">
        <ele>7.8</ele>
        <time>2021-08-06T10:04:44Z</time>
      </trkpt>
      <trkpt lat="47.58399" lon="-2.68732">
        <ele>7.8</ele>
        <time>2021-08-06T10:04:45Z</time>
      </trkpt>
      <trkpt lat="47.584" lon="-2.68725">
        <ele>7.8</ele>
        <time>2021-08-06T10:04:46Z</time>
      </trkpt>
      <trkpt lat="47.58402" lon="-2.68717">
        <ele>7.8</ele>
        <time>2021-08-06T10:04:47Z</time>
      </trkpt>
      <trkpt lat="47.58403" lon="-2.6871">
        <ele>8</ele>
        <time>2021-08-06T10:04:48Z</time>
      </trkpt>
      <trkpt lat="47.58405" lon="-2.68704">
        <ele>8</ele>
        <time>2021-08-06T10:04:49Z</time>
      </trkpt>
      <trkpt lat="47.58406" lon="-2.68697">
        <ele>8</ele>
        <time>2021-08-06T10:04:50Z</time>
      </trkpt>
      <trkpt lat="47.58407" lon="-2.6869">
        <ele>8</ele>
        <time>2021-08-06T10:04:51Z</time>
      </trkpt>
      <trkpt lat="47.58407" lon="-2.68684">
        <ele>8.2</ele>
        <time>2021-08-06T10:04:52Z</time>
      </trkpt>
      <trkpt lat="47.58408" lon="-2.68677">
        <ele>8.2</ele>
        <time>2021-08-06T10:04:53Z</time>
      </trkpt>
      <trkpt lat="47.58409" lon="-2.68671">
        <ele>8.2</ele>
        <time>2021-08-06T10:04:54Z</time>
      </trkpt>
      <trkpt lat="47.58409" lon="-2.68665">
        <ele>8.2</ele>
        <time>2021-08-06T10:04:55Z</time>
      </trkpt>
      <trkpt lat="47.5841" lon="-2.68659">
        <ele>8.4</ele>
        <time>2021-08-06T10:04:56Z</time>
      </trkpt>
      <trkpt lat="47.58411" lon="-2.68652">
        <ele>8.4</ele>
        <time>2021-08-06T10:04:57Z</time>
      </trkpt>
      <trkpt lat="47.58413" lon="-2.68646">
        <ele>8.4</ele>
        <time>2021-08-06T10:04:58Z</time>
      </trkpt>
      <trkpt lat="47.58414" lon="-2.6864">
        <ele>8.4</ele>
        <time>2021-08-06T10:04:59Z</time>
      </trkpt>
      <trkpt lat="47.58415" lon="-2.68633">
        <ele>8.4</ele>
        <time>2021-08-06T10:05:00Z</time>
      </trkpt>
      <trkpt lat="47.58416" lon="-2.68627">
        <ele>8.4</ele>
        <time>2021-08-06T10:05:01Z</time>
      </trkpt>
      <trkpt lat="47.58416" lon="-2.68621">
        <ele>8.4</ele>
        <time>2021-08-06T10:05:02Z</time>
      </trkpt>
      <trkpt lat="47.58417" lon="-2.68614">
        <ele>8.6</ele>
        <time>2021-08-06T10:05:03Z</time>
      </trkpt>
      <trkpt lat="47.58418" lon="-2.68608">
        <ele>8.6</ele>
        <time>2021-08-06T10:05:04Z</time>
      </trkpt>
      <trkpt lat="47.58418" lon="-2.68602">
        <ele>8.6</ele>
        <time>2021-08-06T10:05:05Z</time>
      </trkpt>
      <trkpt lat="47.58419" lon="-2.68596">
        <ele>8.6</ele>
        <time>2021-08-06T10:05:06Z</time>
      </trkpt>
      <trkpt lat="47.58419" lon="-2.68591">
        <ele>8.6</ele>
        <time>2021-08-06T10:05:07Z</time>
      </trkpt>
      <trkpt lat="47.5842" lon="-2.68585">
        <ele>8.8</ele>
        <time>2021-08-06T10:05:08Z</time>
      </trkpt>
      <trkpt lat="47.5842" lon="-2.6858">
        <ele>8.8</ele>
        <time>2021-08-06T10:05:09Z</time>
      </trkpt>
      <trkpt lat="47.58421" lon="-2.68574">
        <ele>8.8</ele>
        <time>2021-08-06T10:05:10Z</time>
      </trkpt>
      <trkpt lat="47.58422" lon="-2.68568">
        <ele>8.8</ele>
        <time>2021-08-06T10:05:11Z</time>
      </trkpt>
      <trkpt lat="47.58422" lon="-2.68562">
        <ele>8.8</ele>
        <time>2021-08-06T10:05:12Z</time>
      </trkpt>
      <trkpt lat="47.58423" lon="-2.68556">
        <ele>8.8</ele>
        <time>2021-08-06T10:05:13Z</time>
      </trkpt>
      <trkpt lat="47.58423" lon="-2.68549">
        <ele>9</ele>
        <time>2021-08-06T10:05:14Z</time>
      </trkpt>
      <trkpt lat="47.58424" lon="-2.68543">
        <ele>9.2</ele>
        <time>2021-08-06T10:05:15Z</time>
      </trkpt>
      <trkpt lat="47.58424" lon="-2.68536">
        <ele>9.4</ele>
        <time>2021-08-06T10:05:16Z</time>
      </trkpt>
      <trkpt lat="47.58425" lon="-2.6853">
        <ele>9.6</ele>
        <time>2021-08-06T10:05:17Z</time>
      </trkpt>
      <trkpt lat="47.58425" lon="-2.68524">
        <ele>9.8</ele>
        <time>2021-08-06T10:05:18Z</time>
      </trkpt>
      <trkpt lat="47.58425" lon="-2.68518">
        <ele>10</ele>
        <time>2021-08-06T10:05:19Z</time>
      </trkpt>
      <trkpt lat="47.58425" lon="-2.68512">
        <ele>10</ele>
        <time>2021-08-06T10:05:20Z</time>
      </trkpt>
      <trkpt lat="47.58425" lon="-2.68507">
        <ele>10.2</ele>
        <time>2021-08-06T10:05:21Z</time>
      </trkpt>
      <trkpt lat="47.58426" lon="-2.68501">
        <ele>10.2</ele>
        <time>2021-08-06T10:05:22Z</time>
      </trkpt>
      <trkpt lat="47.58426" lon="-2.68495">
        <ele>10.2</ele>
        <time>2021-08-06T10:05:23Z</time>
      </trkpt>
      <trkpt lat="47.58426" lon="-2.6849">
        <ele>10.4</ele>
        <time>2021-08-06T10:05:24Z</time>
      </trkpt>
      <trkpt lat="47.58426" lon="-2.68484">
        <ele>10.4</ele>
        <time>2021-08-06T10:05:25Z</time>
      </trkpt>
      <trkpt lat="47.58425" lon="-2.6848">
        <ele>10.4</ele>
        <time>2021-08-06T10:05:26Z</time>
      </trkpt>
      <trkpt lat="47.58425" lon="-2.68475">
        <ele>10.6</ele>
        <time>2021-08-06T10:05:27Z</time>
      </trkpt>
      <trkpt lat="47.58426" lon="-2.6847">
        <ele>10.6</ele>
        <time>2021-08-06T10:05:28Z</time>
      </trkpt>
      <trkpt lat="47.58427" lon="-2.68465">
        <ele>10.8</ele>
        <time>2021-08-06T10:05:29Z</time>
      </trkpt>
      <trkpt lat="47.58427" lon="-2.6846">
        <ele>11</ele>
        <time>2021-08-06T10:05:30Z</time>
      </trkpt>
      <trkpt lat="47.58428" lon="-2.68455">
        <ele>11.2</ele>
        <time>2021-08-06T10:05:31Z</time>
      </trkpt>
      <trkpt lat="47.58428" lon="-2.6845">
        <ele>11.4</ele>
        <time>2021-08-06T10:05:32Z</time>
      </trkpt>
      <trkpt lat="47.58429" lon="-2.68445">
        <ele>11.6</ele>
        <time>2021-08-06T10:05:33Z</time>
      </trkpt>
      <trkpt lat="47.58429" lon="-2.6844">
        <ele>11.8</ele>
        <time>2021-08-06T10:05:34Z</time>
      </trkpt>
      <trkpt lat="47.5843" lon="-2.68436">
        <ele>11.8</ele>
        <time>2021-08-06T10:05:35Z</time>
      </trkpt>
      <trkpt lat="47.5843" lon="-2.68431">
        <ele>12</ele>
        <time>2021-08-06T10:05:36Z</time>
      </trkpt>
      <trkpt lat="47.58431" lon="-2.68426">
        <ele>12</ele>
        <time>2021-08-06T10:05:37Z</time>
      </trkpt>
      <trkpt lat="47.58431" lon="-2.6842">
        <ele>12.2</ele>
        <time>2021-08-06T10:05:38Z</time>
      </trkpt>
      <trkpt lat="47.58432" lon="-2.68415">
        <ele>12.4</ele>
        <time>2021-08-06T10:05:39Z</time>
      </trkpt>
      <trkpt lat="47.58433" lon="-2.6841">
        <ele>12.4</ele>
        <time>2021-08-06T10:05:40Z</time>
      </trkpt>
      <trkpt lat="47.58433" lon="-2.68404">
        <ele>12.4</ele>
        <time>2021-08-06T10:05:41Z</time>
      </trkpt>
      <trkpt lat="47.58434" lon="-2.68399">
        <ele>12.6</ele>
        <time>2021-08-06T10:05:42Z</time>
      </trkpt>
      <trkpt lat="47.58434" lon="-2.68393">
        <ele>12.6</ele>
        <time>2021-08-06T10:05:43Z</time>
      </trkpt>
      <trkpt lat="47.58435" lon="-2.68388">
        <ele>12.6</ele>
        <time>2021-08-06T10:05:44Z</time>
      </trkpt>
      <trkpt lat="47.58435" lon="-2.68383">
        <ele>12.6</ele>
        <time>2021-08-06T10:05:45Z</time>
      </trkpt>
      <trkpt lat="47.58436" lon="-2.68378">
        <ele>12.8</ele>
        <time>2021-08-06T10:05:46Z</time>
      </trkpt>
      <trkpt lat="47.58436" lon="-2.68373">
        <ele>13</ele>
        <time>2021-08-06T10:05:47Z</time>
      </trkpt>
      <trkpt lat="47.58437" lon="-2.68368">
        <ele>13.4</ele>
        <time>2021-08-06T10:05:48Z</time>
      </trkpt>
      <trkpt lat="47.58437" lon="-2.68363">
        <ele>13.4</ele>
        <time>2021-08-06T10:05:49Z</time>
      </trkpt>
      <trkpt lat="47.58437" lon="-2.68358">
        <ele>13.6</ele>
        <time>2021-08-06T10:05:50Z</time>
      </trkpt>
      <trkpt lat="47.58436" lon="-2.68353">
        <ele>13.6</ele>
        <time>2021-08-06T10:05:51Z</time>
      </trkpt>
      <trkpt lat="47.58436" lon="-2.68348">
        <ele>13.6</ele>
        <time>2021-08-06T10:05:52Z</time>
      </trkpt>
      <trkpt lat="47.58436" lon="-2.68343">
        <ele>13.8</ele>
        <time>2021-08-06T10:05:53Z</time>
      </trkpt>
      <trkpt lat="47.58435" lon="-2.68339">
        <ele>13.8</ele>
        <time>2021-08-06T10:05:54Z</time>
      </trkpt>
      <trkpt lat="47.58435" lon="-2.68335">
        <ele>13.8</ele>
        <time>2021-08-06T10:05:55Z</time>
      </trkpt>
      <trkpt lat="47.58434" lon="-2.68332">
        <ele>13.8</ele>
        <time>2021-08-06T10:05:56Z</time>
      </trkpt>
      <trkpt lat="47.58434" lon="-2.68329">
        <ele>14</ele>
        <time>2021-08-06T10:05:57Z</time>
      </trkpt>
      <trkpt lat="47.58435" lon="-2.68326">
        <ele>14</ele>
        <time>2021-08-06T10:05:58Z</time>
      </trkpt>
      <trkpt lat="47.58435" lon="-2.68323">
        <ele>14</ele>
        <time>2021-08-06T10:05:59Z</time>
      </trkpt>
      <trkpt lat="47.58435" lon="-2.6832">
        <ele>14</ele>
        <time>2021-08-06T10:06:00Z</time>
      </trkpt>
      <trkpt lat="47.58435" lon="-2.68317">
        <ele>14</ele>
        <time>2021-08-06T10:06:01Z</time>
      </trkpt>
      <trkpt lat="47.58435" lon="-2.68314">
        <ele>14</ele>
        <time>2021-08-06T10:06:02Z</time>
      </trkpt>
      <trkpt lat="47.58435" lon="-2.6831">
        <ele>14.2</ele>
        <time>2021-08-06T10:06:03Z</time>
      </trkpt>
      <trkpt lat="47.58434" lon="-2.68305">
        <ele>14.6</ele>
        <time>2021-08-06T10:06:04Z</time>
      </trkpt>
      <trkpt lat="47.58434" lon="-2.68301">
        <ele>14.8</ele>
        <time>2021-08-06T10:06:05Z</time>
      </trkpt>
      <trkpt lat="47.58434" lon="-2.68296">
        <ele>15</ele>
        <time>2021-08-06T10:06:06Z</time>
      </trkpt>
      <trkpt lat="47.58433" lon="-2.68291">
        <ele>15.2</ele>
        <time>2021-08-06T10:06:07Z</time>
      </trkpt>
      <trkpt lat="47.58433" lon="-2.68286">
        <ele>15.2</ele>
        <time>2021-08-06T10:06:08Z</time>
      </trkpt>
      <trkpt lat="47.58433" lon="-2.68281">
        <ele>15.4</ele>
        <time>2021-08-06T10:06:09Z</time>
      </trkpt>
      <trkpt lat="47.58433" lon="-2.68276">
        <ele>15.4</ele>
        <time>2021-08-06T10:06:10Z</time>
      </trkpt>
      <trkpt lat="47.58433" lon="-2.68271">
        <ele>15.6</ele>
        <time>2021-08-06T10:06:11Z</time>
      </trkpt>
      <trkpt lat="47.58433" lon="-2.68265">
        <ele>15.6</ele>
        <time>2021-08-06T10:06:12Z</time>
      </trkpt>
      <trkpt lat="47.58433" lon="-2.68259">
        <ele>15.6</ele>
        <time>2021-08-06T10:06:13Z</time>
      </trkpt>
      <trkpt lat="47.58433" lon="-2.68254">
        <ele>15.6</ele>
        <time>2021-08-06T10:06:14Z</time>
      </trkpt>
      <trkpt lat="47.58433" lon="-2.68249">
        <ele>15.8</ele>
        <time>2021-08-06T10:06:15Z</time>
      </trkpt>
      <trkpt lat="47.58433" lon="-2.68244">
        <ele>16</ele>
        <time>2021-08-06T10:06:16Z</time>
      </trkpt>
      <trkpt lat="47.58432" lon="-2.68239">
        <ele>16.2</ele>
        <time>2021-08-06T10:06:17Z</time>
      </trkpt>
      <trkpt lat="47.58432" lon="-2.68234">
        <ele>16.2</ele>
        <time>2021-08-06T10:06:18Z</time>
      </trkpt>
      <trkpt lat="47.58432" lon="-2.6823">
        <ele>16.4</ele>
        <time>2021-08-06T10:06:19Z</time>
      </trkpt>
      <trkpt lat="47.58432" lon="-2.68225">
        <ele>16.4</ele>
        <time>2021-08-06T10:06:20Z</time>
      </trkpt>
      <trkpt lat="47.58432" lon="-2.6822">
        <ele>16.6</ele>
        <time>2021-08-06T10:06:21Z</time>
      </trkpt>
      <trkpt lat="47.58432" lon="-2.68216">
        <ele>16.6</ele>
        <time>2021-08-06T10:06:22Z</time>
      </trkpt>
      <trkpt lat="47.58432" lon="-2.68211">
        <ele>16.6</ele>
        <time>2021-08-06T10:06:23Z</time>
      </trkpt>
      <trkpt lat="47.58433" lon="-2.68205">
        <ele>16.8</ele>
        <time>2021-08-06T10:06:24Z</time>
      </trkpt>
      <trkpt lat="47.58433" lon="-2.682">
        <ele>16.8</ele>
        <time>2021-08-06T10:06:25Z</time>
      </trkpt>
      <trkpt lat="47.58433" lon="-2.68195">
        <ele>16.8</ele>
        <time>2021-08-06T10:06:26Z</time>
      </trkpt>
      <trkpt lat="47.58433" lon="-2.68189">
        <ele>17</ele>
        <time>2021-08-06T10:06:27Z</time>
      </trkpt>
      <trkpt lat="47.58433" lon="-2.68183">
        <ele>17</ele>
        <time>2021-08-06T10:06:28Z</time>
      </trkpt>
      <trkpt lat="47.58433" lon="-2.68178">
        <ele>17</ele>
        <time>2021-08-06T10:06:29Z</time>
      </trkpt>
      <trkpt lat="47.58433" lon="-2.68173">
        <ele>17</ele>
        <time>2021-08-06T10:06:30Z</time>
      </trkpt>
      <trkpt lat="47.58434" lon="-2.68168">
        <ele>17.2</ele>
        <time>2021-08-06T10:06:31Z</time>
      </trkpt>
      <trkpt lat="47.58434" lon="-2.68163">
        <ele>17.2</ele>
        <time>2021-08-06T10:06:32Z</time>
      </trkpt>
      <trkpt lat="47.58435" lon="-2.68158">
        <ele>17.2</ele>
        <time>2021-08-06T10:06:33Z</time>
      </trkpt>
      <trkpt lat="47.58435" lon="-2.68153">
        <ele>17.2</ele>
        <time>2021-08-06T10:06:34Z</time>
      </trkpt>
      <trkpt lat="47.58435" lon="-2.68148">
        <ele>17.2</ele>
        <time>2021-08-06T10:06:35Z</time>
      </trkpt>
      <trkpt lat="47.58435" lon="-2.68142">
        <ele>17.2</ele>
        <time>2021-08-06T10:06:36Z</time>
      </trkpt>
      <trkpt lat="47.58435" lon="-2.68137">
        <ele>17.4</ele>
        <time>2021-08-06T10:06:37Z</time>
      </trkpt>
      <trkpt lat="47.58435" lon="-2.68131">
        <ele>17.4</ele>
        <time>2021-08-06T10:06:38Z</time>
      </trkpt>
      <trkpt lat="47.58435" lon="-2.68125">
        <ele>17.4</ele>
        <time>2021-08-06T10:06:39Z</time>
      </trkpt>
      <trkpt lat="47.58436" lon="-2.68119">
        <ele>17.4</ele>
        <time>2021-08-06T10:06:40Z</time>
      </trkpt>
      <trkpt lat="47.58436" lon="-2.68113">
        <ele>17.4</ele>
        <time>2021-08-06T10:06:41Z</time>
      </trkpt>
      <trkpt lat="47.58437" lon="-2.68108">
        <ele>17.4</ele>
        <time>2021-08-06T10:06:42Z</time>
      </trkpt>
      <trkpt lat="47.58437" lon="-2.68102">
        <ele>17.6</ele>
        <time>2021-08-06T10:06:43Z</time>
      </trkpt>
      <trkpt lat="47.58438" lon="-2.68097">
        <ele>17.6</ele>
        <time>2021-08-06T10:06:44Z</time>
      </trkpt>
      <trkpt lat="47.58438" lon="-2.68091">
        <ele>17.6</ele>
        <time>2021-08-06T10:06:45Z</time>
      </trkpt>
      <trkpt lat="47.58439" lon="-2.68085">
        <ele>17.6</ele>
        <time>2021-08-06T10:06:46Z</time>
      </trkpt>
      <trkpt lat="47.58439" lon="-2.6808">
        <ele>17.8</ele>
        <time>2021-08-06T10:06:47Z</time>
      </trkpt>
      <trkpt lat="47.58439" lon="-2.68075">
        <ele>17.8</ele>
        <time>2021-08-06T10:06:48Z</time>
      </trkpt>
      <trkpt lat="47.5844" lon="-2.68069">
        <ele>18</ele>
        <time>2021-08-06T10:06:49Z</time>
      </trkpt>
      <trkpt lat="47.5844" lon="-2.68064">
        <ele>18</ele>
        <time>2021-08-06T10:06:50Z</time>
      </trkpt>
      <trkpt lat="47.5844" lon="-2.6806">
        <ele>18.2</ele>
        <time>2021-08-06T10:06:51Z</time>
      </trkpt>
      <trkpt lat="47.58441" lon="-2.68055">
        <ele>18.2</ele>
        <time>2021-08-06T10:06:52Z</time>
      </trkpt>
      <trkpt lat="47.58441" lon="-2.68051">
        <ele>18.2</ele>
        <time>2021-08-06T10:06:53Z</time>
      </trkpt>
      <trkpt lat="47.58441" lon="-2.68047">
        <ele>18.2</ele>
        <time>2021-08-06T10:06:54Z</time>
      </trkpt>
      <trkpt lat="47.58441" lon="-2.68043">
        <ele>18.2</ele>
        <time>2021-08-06T10:06:55Z</time>
      </trkpt>
      <trkpt lat="47.58442" lon="-2.68039">
        <ele>18.4</ele>
        <time>2021-08-06T10:06:56Z</time>
      </trkpt>
      <trkpt lat="47.58442" lon="-2.68035">
        <ele>18.4</ele>
        <time>2021-08-06T10:06:57Z</time>
      </trkpt>
      <trkpt lat="47.58442" lon="-2.68032">
        <ele>18.4</ele>
        <time>2021-08-06T10:06:58Z</time>
      </trkpt>
      <trkpt lat="47.58442" lon="-2.68027">
        <ele>18.4</ele>
        <time>2021-08-06T10:06:59Z</time>
      </trkpt>
      <trkpt lat="47.58442" lon="-2.68022">
        <ele>18.4</ele>
        <time>2021-08-06T10:07:00Z</time>
      </trkpt>
      <trkpt lat="47.58441" lon="-2.68017">
        <ele>18.4</ele>
        <time>2021-08-06T10:07:01Z</time>
      </trkpt>
      <trkpt lat="47.58441" lon="-2.68011">
        <ele>18.4</ele>
        <time>2021-08-06T10:07:02Z</time>
      </trkpt>
      <trkpt lat="47.5844" lon="-2.68005">
        <ele>18.4</ele>
        <time>2021-08-06T10:07:03Z</time>
      </trkpt>
      <trkpt lat="47.58439" lon="-2.67999">
        <ele>18.4</ele>
        <time>2021-08-06T10:07:04Z</time>
      </trkpt>
      <trkpt lat="47.58439" lon="-2.67993">
        <ele>18.4</ele>
        <time>2021-08-06T10:07:05Z</time>
      </trkpt>
      <trkpt lat="47.58438" lon="-2.67988">
        <ele>18.6</ele>
        <time>2021-08-06T10:07:06Z</time>
      </trkpt>
      <trkpt lat="47.58437" lon="-2.67983">
        <ele>18.6</ele>
        <time>2021-08-06T10:07:07Z</time>
      </trkpt>
      <trkpt lat="47.58436" lon="-2.67978">
        <ele>18.6</ele>
        <time>2021-08-06T10:07:08Z</time>
      </trkpt>
      <trkpt lat="47.58436" lon="-2.67972">
        <ele>18.6</ele>
        <time>2021-08-06T10:07:09Z</time>
      </trkpt>
      <trkpt lat="47.58435" lon="-2.67967">
        <ele>18.6</ele>
        <time>2021-08-06T10:07:10Z</time>
      </trkpt>
      <trkpt lat="47.58434" lon="-2.67961">
        <ele>18.6</ele>
        <time>2021-08-06T10:07:11Z</time>
      </trkpt>
      <trkpt lat="47.58433" lon="-2.67955">
        <ele>18.6</ele>
        <time>2021-08-06T10:07:12Z</time>
      </trkpt>
      <trkpt lat="47.58432" lon="-2.67949">
        <ele>18.8</ele>
        <time>2021-08-06T10:07:13Z</time>
      </trkpt>
      <trkpt lat="47.58431" lon="-2.67944">
        <ele>18.8</ele>
        <time>2021-08-06T10:07:14Z</time>
      </trkpt>
      <trkpt lat="47.5843" lon="-2.67938">
        <ele>19</ele>
        <time>2021-08-06T10:07:15Z</time>
      </trkpt>
      <trkpt lat="47.58429" lon="-2.67932">
        <ele>19.2</ele>
        <time>2021-08-06T10:07:16Z</time>
      </trkpt>
      <trkpt lat="47.58428" lon="-2.67927">
        <ele>19.2</ele>
        <time>2021-08-06T10:07:17Z</time>
      </trkpt>
      <trkpt lat="47.58428" lon="-2.67923">
        <ele>19.2</ele>
        <time>2021-08-06T10:07:18Z</time>
      </trkpt>
      <trkpt lat="47.58427" lon="-2.6792">
        <ele>19.4</ele>
        <time>2021-08-06T10:07:19Z</time>
      </trkpt>
      <trkpt lat="47.58427" lon="-2.67918">
        <ele>19.4</ele>
        <time>2021-08-06T10:07:20Z</time>
      </trkpt>
      <trkpt lat="47.58426" lon="-2.67915">
        <ele>19.6</ele>
        <time>2021-08-06T10:07:21Z</time>
      </trkpt>
      <trkpt lat="47.58426" lon="-2.67913">
        <ele>19.6</ele>
        <time>2021-08-06T10:07:22Z</time>
      </trkpt>
      <trkpt lat="47.58425" lon="-2.6791">
        <ele>19.6</ele>
        <time>2021-08-06T10:07:23Z</time>
      </trkpt>
      <trkpt lat="47.58426" lon="-2.67907">
        <ele>19.6</ele>
        <time>2021-08-06T10:07:24Z</time>
      </trkpt>
      <trkpt lat="47.58427" lon="-2.67905">
        <ele>19.6</ele>
        <time>2021-08-06T10:07:25Z</time>
      </trkpt>
      <trkpt lat="47.58429" lon="-2.67904">
        <ele>19.8</ele>
        <time>2021-08-06T10:07:26Z</time>
      </trkpt>
      <trkpt lat="47.5843" lon="-2.67902">
        <ele>19.8</ele>
        <time>2021-08-06T10:07:27Z</time>
      </trkpt>
      <trkpt lat="47.58431" lon="-2.679">
        <ele>19.8</ele>
        <time>2021-08-06T10:07:28Z</time>
      </trkpt>
      <trkpt lat="47.5843" lon="-2.679">
        <ele>19.8</ele>
        <time>2021-08-06T10:07:29Z</time>
      </trkpt>
      <trkpt lat="47.58431" lon="-2.679">
        <ele>19.8</ele>
        <time>2021-08-06T10:07:30Z</time>
      </trkpt>
      <trkpt lat="47.58422" lon="-2.67894">
        <ele>21</ele>
        <time>2021-08-06T10:14:09Z</time>
      </trkpt>
      <trkpt lat="47.58421" lon="-2.67891">
        <ele>21</ele>
        <time>2021-08-06T10:14:10Z</time>
      </trkpt>
      <trkpt lat="47.58421" lon="-2.67889">
        <ele>21</ele>
        <time>2021-08-06T10:14:11Z</time>
      </trkpt>
      <trkpt lat="47.5842" lon="-2.67886">
        <ele>21</ele>
        <time>2021-08-06T10:14:12Z</time>
      </trkpt>
      <trkpt lat="47.58419" lon="-2.67883">
        <ele>21</ele>
        <time>2021-08-06T10:14:13Z</time>
      </trkpt>
      <trkpt lat="47.58418" lon="-2.67879">
        <ele>21</ele>
        <time>2021-08-06T10:14:14Z</time>
      </trkpt>
      <trkpt lat="47.58417" lon="-2.67874">
        <ele>21</ele>
        <time>2021-08-06T10:14:15Z</time>
      </trkpt>
      <trkpt lat="47.58416" lon="-2.6787">
        <ele>21</ele>
        <time>2021-08-06T10:14:16Z</time>
      </trkpt>
      <trkpt lat="47.58415" lon="-2.67866">
        <ele>21</ele>
        <time>2021-08-06T10:14:17Z</time>
      </trkpt>
      <trkpt lat="47.58414" lon="-2.67861">
        <ele>21</ele>
        <time>2021-08-06T10:14:18Z</time>
      </trkpt>
      <trkpt lat="47.58413" lon="-2.67857">
        <ele>21</ele>
        <time>2021-08-06T10:14:19Z</time>
      </trkpt>
      <trkpt lat="47.58412" lon="-2.67853">
        <ele>21</ele>
        <time>2021-08-06T10:14:20Z</time>
      </trkpt>
      <trkpt lat="47.58411" lon="-2.67848">
        <ele>21</ele>
        <time>2021-08-06T10:14:21Z</time>
      </trkpt>
      <trkpt lat="47.5841" lon="-2.67842">
        <ele>21</ele>
        <time>2021-08-06T10:14:22Z</time>
      </trkpt>
      <trkpt lat="47.58409" lon="-2.67837">
        <ele>21</ele>
        <time>2021-08-06T10:14:23Z</time>
      </trkpt>
      <trkpt lat="47.58408" lon="-2.67832">
        <ele>21</ele>
        <time>2021-08-06T10:14:24Z</time>
      </trkpt>
      <trkpt lat="47.58407" lon="-2.67827">
        <ele>21</ele>
        <time>2021-08-06T10:14:25Z</time>
      </trkpt>
      <trkpt lat="47.58406" lon="-2.67822">
        <ele>21</ele>
        <time>2021-08-06T10:14:26Z</time>
      </trkpt>
      <trkpt lat="47.58406" lon="-2.67816">
        <ele>21</ele>
        <time>2021-08-06T10:14:27Z</time>
      </trkpt>
      <trkpt lat="47.58404" lon="-2.67811">
        <ele>21</ele>
        <time>2021-08-06T10:14:28Z</time>
      </trkpt>
      <trkpt lat="47.58403" lon="-2.67806">
        <ele>21</ele>
        <time>2021-08-06T10:14:29Z</time>
      </trkpt>
      <trkpt lat="47.58402" lon="-2.67801">
        <ele>21</ele>
        <time>2021-08-06T10:14:30Z</time>
      </trkpt>
      <trkpt lat="47.58401" lon="-2.67795">
        <ele>21</ele>
        <time>2021-08-06T10:14:31Z</time>
      </trkpt>
      <trkpt lat="47.584" lon="-2.6779">
        <ele>21</ele>
        <time>2021-08-06T10:14:32Z</time>
      </trkpt>
      <trkpt lat="47.58398" lon="-2.67784">
        <ele>21</ele>
        <time>2021-08-06T10:14:33Z</time>
      </trkpt>
      <trkpt lat="47.58397" lon="-2.67778">
        <ele>21</ele>
        <time>2021-08-06T10:14:34Z</time>
      </trkpt>
      <trkpt lat="47.58395" lon="-2.67772">
        <ele>21</ele>
        <time>2021-08-06T10:14:35Z</time>
      </trkpt>
      <trkpt lat="47.58393" lon="-2.67766">
        <ele>21</ele>
        <time>2021-08-06T10:14:36Z</time>
      </trkpt>
      <trkpt lat="47.58392" lon="-2.6776">
        <ele>21</ele>
        <time>2021-08-06T10:14:37Z</time>
      </trkpt>
      <trkpt lat="47.5839" lon="-2.67754">
        <ele>21</ele>
        <time>2021-08-06T10:14:38Z</time>
      </trkpt>
      <trkpt lat="47.58388" lon="-2.67747">
        <ele>21</ele>
        <time>2021-08-06T10:14:39Z</time>
      </trkpt>
      <trkpt lat="47.58387" lon="-2.67741">
        <ele>21</ele>
        <time>2021-08-06T10:14:40Z</time>
      </trkpt>
      <trkpt lat="47.58386" lon="-2.67734">
        <ele>21</ele>
        <time>2021-08-06T10:14:41Z</time>
      </trkpt>
      <trkpt lat="47.58384" lon="-2.67728">
        <ele>21</ele>
        <time>2021-08-06T10:14:42Z</time>
      </trkpt>
      <trkpt lat="47.58383" lon="-2.67722">
        <ele>21</ele>
        <time>2021-08-06T10:14:43Z</time>
      </trkpt>
      <trkpt lat="47.58381" lon="-2.67715">
        <ele>21</ele>
        <time>2021-08-06T10:14:44Z</time>
      </trkpt>
      <trkpt lat="47.5838" lon="-2.67708">
        <ele>21</ele>
        <time>2021-08-06T10:14:45Z</time>
      </trkpt>
      <trkpt lat="47.58378" lon="-2.67702">
        <ele>21</ele>
        <time>2021-08-06T10:14:46Z</time>
      </trkpt>
      <trkpt lat="47.58377" lon="-2.67695">
        <ele>21</ele>
        <time>2021-08-06T10:14:47Z</time>
      </trkpt>
      <trkpt lat="47.58376" lon="-2.67688">
        <ele>21</ele>
        <time>2021-08-06T10:14:48Z</time>
      </trkpt>
      <trkpt lat="47.58374" lon="-2.67681">
        <ele>21</ele>
        <time>2021-08-06T10:14:49Z</time>
      </trkpt>
      <trkpt lat="47.58373" lon="-2.67674">
        <ele>21</ele>
        <time>2021-08-06T10:14:50Z</time>
      </trkpt>
      <trkpt lat="47.58371" lon="-2.67666">
        <ele>21.2</ele>
        <time>2021-08-06T10:14:51Z</time>
      </trkpt>
      <trkpt lat="47.58369" lon="-2.67659">
        <ele>21.2</ele>
        <time>2021-08-06T10:14:52Z</time>
      </trkpt>
      <trkpt lat="47.58368" lon="-2.67651">
        <ele>21.2</ele>
        <time>2021-08-06T10:14:53Z</time>
      </trkpt>
      <trkpt lat="47.58366" lon="-2.67643">
        <ele>21.2</ele>
        <time>2021-08-06T10:14:54Z</time>
      </trkpt>
      <trkpt lat="47.58365" lon="-2.67635">
        <ele>21.2</ele>
        <time>2021-08-06T10:14:55Z</time>
      </trkpt>
      <trkpt lat="47.58364" lon="-2.67627">
        <ele>21.2</ele>
        <time>2021-08-06T10:14:56Z</time>
      </trkpt>
      <trkpt lat="47.58363" lon="-2.67619">
        <ele>21.2</ele>
        <time>2021-08-06T10:14:57Z</time>
      </trkpt>
      <trkpt lat="47.58362" lon="-2.67611">
        <ele>21.2</ele>
        <time>2021-08-06T10:14:58Z</time>
      </trkpt>
      <trkpt lat="47.58362" lon="-2.67602">
        <ele>21.2</ele>
        <time>2021-08-06T10:14:59Z</time>
      </trkpt>
      <trkpt lat="47.58361" lon="-2.67594">
        <ele>21.2</ele>
        <time>2021-08-06T10:15:00Z</time>
      </trkpt>
      <trkpt lat="47.58361" lon="-2.67586">
        <ele>21.2</ele>
        <time>2021-08-06T10:15:01Z</time>
      </trkpt>
      <trkpt lat="47.58361" lon="-2.67577">
        <ele>21.4</ele>
        <time>2021-08-06T10:15:02Z</time>
      </trkpt>
      <trkpt lat="47.58361" lon="-2.67569">
        <ele>21.4</ele>
        <time>2021-08-06T10:15:03Z</time>
      </trkpt>
      <trkpt lat="47.58361" lon="-2.67561">
        <ele>21.4</ele>
        <time>2021-08-06T10:15:04Z</time>
      </trkpt>
      <trkpt lat="47.58361" lon="-2.67553">
        <ele>21.4</ele>
        <time>2021-08-06T10:15:05Z</time>
      </trkpt>
      <trkpt lat="47.58362" lon="-2.67545">
        <ele>21.4</ele>
        <time>2021-08-06T10:15:06Z</time>
      </trkpt>
      <trkpt lat="47.58362" lon="-2.67537">
        <ele>21.4</ele>
        <time>2021-08-06T10:15:07Z</time>
      </trkpt>
      <trkpt lat="47.58363" lon="-2.67529">
        <ele>21.4</ele>
        <time>2021-08-06T10:15:08Z</time>
      </trkpt>
      <trkpt lat="47.58364" lon="-2.67522">
        <ele>21.4</ele>
        <time>2021-08-06T10:15:09Z</time>
      </trkpt>
      <trkpt lat="47.58364" lon="-2.67514">
        <ele>21.4</ele>
        <time>2021-08-06T10:15:10Z</time>
      </trkpt>
      <trkpt lat="47.58365" lon="-2.67507">
        <ele>21.4</ele>
        <time>2021-08-06T10:15:11Z</time>
      </trkpt>
      <trkpt lat="47.58365" lon="-2.67499">
        <ele>21.4</ele>
        <time>2021-08-06T10:15:12Z</time>
      </trkpt>
      <trkpt lat="47.58366" lon="-2.67491">
        <ele>21.6</ele>
        <time>2021-08-06T10:15:13Z</time>
      </trkpt>
      <trkpt lat="47.58367" lon="-2.67484">
        <ele>21.6</ele>
        <time>2021-08-06T10:15:14Z</time>
      </trkpt>
      <trkpt lat="47.58367" lon="-2.67476">
        <ele>21.6</ele>
        <time>2021-08-06T10:15:15Z</time>
      </trkpt>
      <trkpt lat="47.58368" lon="-2.67468">
        <ele>21.6</ele>
        <time>2021-08-06T10:15:16Z</time>
      </trkpt>
      <trkpt lat="47.58368" lon="-2.67461">
        <ele>21.6</ele>
        <time>2021-08-06T10:15:17Z</time>
      </trkpt>
      <trkpt lat="47.58369" lon="-2.67453">
        <ele>21.8</ele>
        <time>2021-08-06T10:15:18Z</time>
      </trkpt>
      <trkpt lat="47.58369" lon="-2.67446">
        <ele>21.8</ele>
        <time>2021-08-06T10:15:19Z</time>
      </trkpt>
      <trkpt lat="47.58369" lon="-2.67438">
        <ele>21.8</ele>
        <time>2021-08-06T10:15:20Z</time>
      </trkpt>
      <trkpt lat="47.5837" lon="-2.67431">
        <ele>21.8</ele>
        <time>2021-08-06T10:15:21Z</time>
      </trkpt>
      <trkpt lat="47.58371" lon="-2.67424">
        <ele>22</ele>
        <time>2021-08-06T10:15:22Z</time>
      </trkpt>
      <trkpt lat="47.58371" lon="-2.67417">
        <ele>22</ele>
        <time>2021-08-06T10:15:23Z</time>
      </trkpt>
      <trkpt lat="47.58372" lon="-2.67409">
        <ele>22.2</ele>
        <time>2021-08-06T10:15:24Z</time>
      </trkpt>
      <trkpt lat="47.58372" lon="-2.67402">
        <ele>22.2</ele>
        <time>2021-08-06T10:15:25Z</time>
      </trkpt>
      <trkpt lat="47.58373" lon="-2.67395">
        <ele>22.4</ele>
        <time>2021-08-06T10:15:26Z</time>
      </trkpt>
      <trkpt lat="47.58373" lon="-2.67389">
        <ele>22.6</ele>
        <time>2021-08-06T10:15:27Z</time>
      </trkpt>
      <trkpt lat="47.58374" lon="-2.67382">
        <ele>22.8</ele>
        <time>2021-08-06T10:15:28Z</time>
      </trkpt>
      <trkpt lat="47.58374" lon="-2.67375">
        <ele>22.8</ele>
        <time>2021-08-06T10:15:29Z</time>
      </trkpt>
      <trkpt lat="47.58375" lon="-2.67369">
        <ele>23</ele>
        <time>2021-08-06T10:15:30Z</time>
      </trkpt>
      <trkpt lat="47.58375" lon="-2.67362">
        <ele>23.4</ele>
        <time>2021-08-06T10:15:31Z</time>
      </trkpt>
      <trkpt lat="47.58375" lon="-2.67356">
        <ele>23.6</ele>
        <time>2021-08-06T10:15:32Z</time>
      </trkpt>
      <trkpt lat="47.58375" lon="-2.67349">
        <ele>23.8</ele>
        <time>2021-08-06T10:15:33Z</time>
      </trkpt>
      <trkpt lat="47.58376" lon="-2.67343">
        <ele>24</ele>
        <time>2021-08-06T10:15:34Z</time>
      </trkpt>
      <trkpt lat="47.58376" lon="-2.67337">
        <ele>24.2</ele>
        <time>2021-08-06T10:15:35Z</time>
      </trkpt>
      <trkpt lat="47.58376" lon="-2.67331">
        <ele>24.2</ele>
        <time>2021-08-06T10:15:36Z</time>
      </trkpt>
      <trkpt lat="47.58376" lon="-2.67325">
        <ele>24.6</ele>
        <time>2021-08-06T10:15:37Z</time>
      </trkpt>
      <trkpt lat="47.58375" lon="-2.67319">
        <ele>24.8</ele>
        <time>2021-08-06T10:15:38Z</time>
      </trkpt>
      <trkpt lat="47.58375" lon="-2.67313">
        <ele>25.4</ele>
        <time>2021-08-06T10:15:39Z</time>
      </trkpt>
      <trkpt lat="47.58375" lon="-2.67307">
        <ele>25.4</ele>
        <time>2021-08-06T10:15:40Z</time>
      </trkpt>
      <trkpt lat="47.58374" lon="-2.67301">
        <ele>25.6</ele>
        <time>2021-08-06T10:15:41Z</time>
      </trkpt>
      <trkpt lat="47.58374" lon="-2.67295">
        <ele>25.6</ele>
        <time>2021-08-06T10:15:42Z</time>
      </trkpt>
      <trkpt lat="47.58374" lon="-2.6729">
        <ele>25.8</ele>
        <time>2021-08-06T10:15:43Z</time>
      </trkpt>
      <trkpt lat="47.58374" lon="-2.67285">
        <ele>26</ele>
        <time>2021-08-06T10:15:44Z</time>
      </trkpt>
      <trkpt lat="47.58374" lon="-2.6728">
        <ele>26.2</ele>
        <time>2021-08-06T10:15:45Z</time>
      </trkpt>
      <trkpt lat="47.58374" lon="-2.67275">
        <ele>26.6</ele>
        <time>2021-08-06T10:15:46Z</time>
      </trkpt>
      <trkpt lat="47.58373" lon="-2.67269">
        <ele>27</ele>
        <time>2021-08-06T10:15:47Z</time>
      </trkpt>
      <trkpt lat="47.58372" lon="-2.67264">
        <ele>27.2</ele>
        <time>2021-08-06T10:15:48Z</time>
      </trkpt>
      <trkpt lat="47.58371" lon="-2.67259">
        <ele>27.4</ele>
        <time>2021-08-06T10:15:49Z</time>
      </trkpt>
      <trkpt lat="47.5837" lon="-2.67254">
        <ele>27.6</ele>
        <time>2021-08-06T10:15:50Z</time>
      </trkpt>
      <trkpt lat="47.58368" lon="-2.67249">
        <ele>27.6</ele>
        <time>2021-08-06T10:15:51Z</time>
      </trkpt>
      <trkpt lat="47.58367" lon="-2.67244">
        <ele>27.8</ele>
        <time>2021-08-06T10:15:52Z</time>
      </trkpt>
      <trkpt lat="47.58365" lon="-2.67238">
        <ele>27.8</ele>
        <time>2021-08-06T10:15:53Z</time>
      </trkpt>
      <trkpt lat="47.58364" lon="-2.67232">
        <ele>28.2</ele>
        <time>2021-08-06T10:15:54Z</time>
      </trkpt>
      <trkpt lat="47.58363" lon="-2.67226">
        <ele>28.2</ele>
        <time>2021-08-06T10:15:55Z</time>
      </trkpt>
      <trkpt lat="47.58362" lon="-2.6722">
        <ele>28.4</ele>
        <time>2021-08-06T10:15:56Z</time>
      </trkpt>
      <trkpt lat="47.58361" lon="-2.67214">
        <ele>28.6</ele>
        <time>2021-08-06T10:15:57Z</time>
      </trkpt>
      <trkpt lat="47.5836" lon="-2.67207">
        <ele>28.8</ele>
        <time>2021-08-06T10:15:58Z</time>
      </trkpt>
      <trkpt lat="47.58359" lon="-2.67201">
        <ele>28.8</ele>
        <time>2021-08-06T10:15:59Z</time>
      </trkpt>
      <trkpt lat="47.58357" lon="-2.67195">
        <ele>29</ele>
        <time>2021-08-06T10:16:00Z</time>
      </trkpt>
      <trkpt lat="47.58356" lon="-2.67189">
        <ele>29</ele>
        <time>2021-08-06T10:16:01Z</time>
      </trkpt>
      <trkpt lat="47.58355" lon="-2.67183">
        <ele>29</ele>
        <time>2021-08-06T10:16:02Z</time>
      </trkpt>
      <trkpt lat="47.58354" lon="-2.67176">
        <ele>29.2</ele>
        <time>2021-08-06T10:16:03Z</time>
      </trkpt>
      <trkpt lat="47.58353" lon="-2.6717">
        <ele>29.2</ele>
        <time>2021-08-06T10:16:04Z</time>
      </trkpt>
      <trkpt lat="47.58352" lon="-2.67164">
        <ele>29.2</ele>
        <time>2021-08-06T10:16:05Z</time>
      </trkpt>
      <trkpt lat="47.58351" lon="-2.67158">
        <ele>29.2</ele>
        <time>2021-08-06T10:16:06Z</time>
      </trkpt>
      <trkpt lat="47.58349" lon="-2.67152">
        <ele>29.4</ele>
        <time>2021-08-06T10:16:07Z</time>
      </trkpt>
      <trkpt lat="47.58348" lon="-2.67146">
        <ele>29.4</ele>
        <time>2021-08-06T10:16:08Z</time>
      </trkpt>
      <trkpt lat="47.58347" lon="-2.6714">
        <ele>29.4</ele>
        <time>2021-08-06T10:16:09Z</time>
      </trkpt>
      <trkpt lat="47.58346" lon="-2.67135">
        <ele>29.6</ele>
        <time>2021-08-06T10:16:10Z</time>
      </trkpt>
      <trkpt lat="47.58345" lon="-2.67129">
        <ele>29.6</ele>
        <time>2021-08-06T10:16:11Z</time>
      </trkpt>
      <trkpt lat="47.58344" lon="-2.67123">
        <ele>29.6</ele>
        <time>2021-08-06T10:16:12Z</time>
      </trkpt>
      <trkpt lat="47.58342" lon="-2.67118">
        <ele>29.6</ele>
        <time>2021-08-06T10:16:13Z</time>
      </trkpt>
      <trkpt lat="47.58341" lon="-2.67112">
        <ele>29.8</ele>
        <time>2021-08-06T10:16:14Z</time>
      </trkpt>
      <trkpt lat="47.5834" lon="-2.67107">
        <ele>30</ele>
        <time>2021-08-06T10:16:15Z</time>
      </trkpt>
      <trkpt lat="47.58338" lon="-2.67102">
        <ele>30.4</ele>
        <time>2021-08-06T10:16:16Z</time>
      </trkpt>
      <trkpt lat="47.58337" lon="-2.67097">
        <ele>30.6</ele>
        <time>2021-08-06T10:16:17Z</time>
      </trkpt>
      <trkpt lat="47.58335" lon="-2.67092">
        <ele>30.8</ele>
        <time>2021-08-06T10:16:18Z</time>
      </trkpt>
      <trkpt lat="47.58334" lon="-2.67086">
        <ele>30.8</ele>
        <time>2021-08-06T10:16:19Z</time>
      </trkpt>
      <trkpt lat="47.58333" lon="-2.6708">
        <ele>31</ele>
        <time>2021-08-06T10:16:20Z</time>
      </trkpt>
      <trkpt lat="47.58331" lon="-2.67075">
        <ele>31.2</ele>
        <time>2021-08-06T10:16:21Z</time>
      </trkpt>
      <trkpt lat="47.5833" lon="-2.67069">
        <ele>31.2</ele>
        <time>2021-08-06T10:16:22Z</time>
      </trkpt>
      <trkpt lat="47.58329" lon="-2.67063">
        <ele>31.4</ele>
        <time>2021-08-06T10:16:23Z</time>
      </trkpt>
      <trkpt lat="47.58327" lon="-2.67058">
        <ele>31.4</ele>
        <time>2021-08-06T10:16:24Z</time>
      </trkpt>
      <trkpt lat="47.58326" lon="-2.67052">
        <ele>31.4</ele>
        <time>2021-08-06T10:16:25Z</time>
      </trkpt>
      <trkpt lat="47.58326" lon="-2.67047">
        <ele>31.4</ele>
        <time>2021-08-06T10:16:26Z</time>
      </trkpt>
      <trkpt lat="47.58325" lon="-2.67042">
        <ele>31.6</ele>
        <time>2021-08-06T10:16:27Z</time>
      </trkpt>
      <trkpt lat="47.58324" lon="-2.67037">
        <ele>31.6</ele>
        <time>2021-08-06T10:16:28Z</time>
      </trkpt>
      <trkpt lat="47.58323" lon="-2.67031">
        <ele>31.8</ele>
        <time>2021-08-06T10:16:29Z</time>
      </trkpt>
      <trkpt lat="47.58322" lon="-2.67026">
        <ele>31.8</ele>
        <time>2021-08-06T10:16:30Z</time>
      </trkpt>
      <trkpt lat="47.58321" lon="-2.67019">
        <ele>32</ele>
        <time>2021-08-06T10:16:31Z</time>
      </trkpt>
      <trkpt lat="47.5832" lon="-2.67013">
        <ele>32</ele>
        <time>2021-08-06T10:16:32Z</time>
      </trkpt>
      <trkpt lat="47.5832" lon="-2.67007">
        <ele>32</ele>
        <time>2021-08-06T10:16:33Z</time>
      </trkpt>
      <trkpt lat="47.58319" lon="-2.67">
        <ele>32</ele>
        <time>2021-08-06T10:16:34Z</time>
      </trkpt>
      <trkpt lat="47.58318" lon="-2.66994">
        <ele>32.2</ele>
        <time>2021-08-06T10:16:35Z</time>
      </trkpt>
      <trkpt lat="47.58317" lon="-2.66988">
        <ele>32.2</ele>
        <time>2021-08-06T10:16:36Z</time>
      </trkpt>
      <trkpt lat="47.58317" lon="-2.66982">
        <ele>32.2</ele>
        <time>2021-08-06T10:16:37Z</time>
      </trkpt>
      <trkpt lat="47.58316" lon="-2.66978">
        <ele>32.4</ele>
        <time>2021-08-06T10:16:38Z</time>
      </trkpt>
      <trkpt lat="47.58315" lon="-2.66973">
        <ele>32.4</ele>
        <time>2021-08-06T10:16:39Z</time>
      </trkpt>
      <trkpt lat="47.58314" lon="-2.66969">
        <ele>32.4</ele>
        <time>2021-08-06T10:16:40Z</time>
      </trkpt>
      <trkpt lat="47.58314" lon="-2.66963">
        <ele>32.6</ele>
        <time>2021-08-06T10:16:41Z</time>
      </trkpt>
      <trkpt lat="47.58313" lon="-2.66958">
        <ele>32.6</ele>
        <time>2021-08-06T10:16:42Z</time>
      </trkpt>
      <trkpt lat="47.58313" lon="-2.66952">
        <ele>32.6</ele>
        <time>2021-08-06T10:16:43Z</time>
      </trkpt>
      <trkpt lat="47.58312" lon="-2.66946">
        <ele>32.8</ele>
        <time>2021-08-06T10:16:44Z</time>
      </trkpt>
      <trkpt lat="47.58312" lon="-2.6694">
        <ele>32.8</ele>
        <time>2021-08-06T10:16:45Z</time>
      </trkpt>
      <trkpt lat="47.58311" lon="-2.66933">
        <ele>33</ele>
        <time>2021-08-06T10:16:46Z</time>
      </trkpt>
      <trkpt lat="47.5831" lon="-2.66926">
        <ele>33</ele>
        <time>2021-08-06T10:16:47Z</time>
      </trkpt>
      <trkpt lat="47.58309" lon="-2.66921">
        <ele>33.2</ele>
        <time>2021-08-06T10:16:48Z</time>
      </trkpt>
      <trkpt lat="47.58309" lon="-2.66915">
        <ele>33.4</ele>
        <time>2021-08-06T10:16:49Z</time>
      </trkpt>
      <trkpt lat="47.58309" lon="-2.6691">
        <ele>33.4</ele>
        <time>2021-08-06T10:16:50Z</time>
      </trkpt>
      <trkpt lat="47.58309" lon="-2.66906">
        <ele>33.6</ele>
        <time>2021-08-06T10:16:51Z</time>
      </trkpt>
      <trkpt lat="47.58309" lon="-2.669">
        <ele>33.6</ele>
        <time>2021-08-06T10:16:52Z</time>
      </trkpt>
      <trkpt lat="47.58308" lon="-2.66894">
        <ele>33.6</ele>
        <time>2021-08-06T10:16:53Z</time>
      </trkpt>
      <trkpt lat="47.58308" lon="-2.66888">
        <ele>33.6</ele>
        <time>2021-08-06T10:16:54Z</time>
      </trkpt>
      <trkpt lat="47.58307" lon="-2.66882">
        <ele>33.8</ele>
        <time>2021-08-06T10:16:55Z</time>
      </trkpt>
      <trkpt lat="47.58306" lon="-2.66876">
        <ele>33.8</ele>
        <time>2021-08-06T10:16:56Z</time>
      </trkpt>
      <trkpt lat="47.58305" lon="-2.66871">
        <ele>33.8</ele>
        <time>2021-08-06T10:16:57Z</time>
      </trkpt>
      <trkpt lat="47.58304" lon="-2.66865">
        <ele>33.8</ele>
        <time>2021-08-06T10:16:58Z</time>
      </trkpt>
      <trkpt lat="47.58303" lon="-2.66858">
        <ele>33.8</ele>
        <time>2021-08-06T10:16:59Z</time>
      </trkpt>
      <trkpt lat="47.58302" lon="-2.66852">
        <ele>34</ele>
        <time>2021-08-06T10:17:00Z</time>
      </trkpt>
      <trkpt lat="47.58301" lon="-2.66847">
        <ele>34</ele>
        <time>2021-08-06T10:17:01Z</time>
      </trkpt>
      <trkpt lat="47.58301" lon="-2.66842">
        <ele>33.8</ele>
        <time>2021-08-06T10:17:02Z</time>
      </trkpt>
      <trkpt lat="47.58301" lon="-2.66836">
        <ele>33.8</ele>
        <time>2021-08-06T10:17:03Z</time>
      </trkpt>
      <trkpt lat="47.583" lon="-2.6683">
        <ele>34</ele>
        <time>2021-08-06T10:17:04Z</time>
      </trkpt>
      <trkpt lat="47.583" lon="-2.66822">
        <ele>34</ele>
        <time>2021-08-06T10:17:05Z</time>
      </trkpt>
      <trkpt lat="47.58299" lon="-2.66816">
        <ele>34</ele>
        <time>2021-08-06T10:17:06Z</time>
      </trkpt>
      <trkpt lat="47.58299" lon="-2.66809">
        <ele>34</ele>
        <time>2021-08-06T10:17:07Z</time>
      </trkpt>
      <trkpt lat="47.58298" lon="-2.66802">
        <ele>34</ele>
        <time>2021-08-06T10:17:08Z</time>
      </trkpt>
      <trkpt lat="47.58298" lon="-2.66796">
        <ele>34</ele>
        <time>2021-08-06T10:17:09Z</time>
      </trkpt>
      <trkpt lat="47.58297" lon="-2.66789">
        <ele>34</ele>
        <time>2021-08-06T10:17:10Z</time>
      </trkpt>
      <trkpt lat="47.58297" lon="-2.66783">
        <ele>34</ele>
        <time>2021-08-06T10:17:11Z</time>
      </trkpt>
      <trkpt lat="47.58296" lon="-2.66776">
        <ele>34</ele>
        <time>2021-08-06T10:17:12Z</time>
      </trkpt>
      <trkpt lat="47.58295" lon="-2.66769">
        <ele>34</ele>
        <time>2021-08-06T10:17:13Z</time>
      </trkpt>
      <trkpt lat="47.58294" lon="-2.66763">
        <ele>34</ele>
        <time>2021-08-06T10:17:14Z</time>
      </trkpt>
      <trkpt lat="47.58292" lon="-2.66757">
        <ele>34.2</ele>
        <time>2021-08-06T10:17:15Z</time>
      </trkpt>
      <trkpt lat="47.58292" lon="-2.66751">
        <ele>34.2</ele>
        <time>2021-08-06T10:17:16Z</time>
      </trkpt>
      <trkpt lat="47.58291" lon="-2.66745">
        <ele>34.2</ele>
        <time>2021-08-06T10:17:17Z</time>
      </trkpt>
      <trkpt lat="47.5829" lon="-2.66737">
        <ele>34.2</ele>
        <time>2021-08-06T10:17:18Z</time>
      </trkpt>
      <trkpt lat="47.58289" lon="-2.6673">
        <ele>34.2</ele>
        <time>2021-08-06T10:17:19Z</time>
      </trkpt>
      <trkpt lat="47.58289" lon="-2.66724">
        <ele>34.2</ele>
        <time>2021-08-06T10:17:20Z</time>
      </trkpt>
      <trkpt lat="47.58288" lon="-2.66717">
        <ele>34.2</ele>
        <time>2021-08-06T10:17:21Z</time>
      </trkpt>
      <trkpt lat="47.58287" lon="-2.6671">
        <ele>34.2</ele>
        <time>2021-08-06T10:17:22Z</time>
      </trkpt>
      <trkpt lat="47.58285" lon="-2.66703">
        <ele>34.2</ele>
        <time>2021-08-06T10:17:23Z</time>
      </trkpt>
      <trkpt lat="47.58284" lon="-2.66695">
        <ele>34.4</ele>
        <time>2021-08-06T10:17:24Z</time>
      </trkpt>
      <trkpt lat="47.58283" lon="-2.66687">
        <ele>34.4</ele>
        <time>2021-08-06T10:17:25Z</time>
      </trkpt>
      <trkpt lat="47.58281" lon="-2.66678">
        <ele>34.4</ele>
        <time>2021-08-06T10:17:26Z</time>
      </trkpt>
      <trkpt lat="47.5828" lon="-2.66671">
        <ele>34.4</ele>
        <time>2021-08-06T10:17:27Z</time>
      </trkpt>
      <trkpt lat="47.58279" lon="-2.66663">
        <ele>34.4</ele>
        <time>2021-08-06T10:17:28Z</time>
      </trkpt>
      <trkpt lat="47.58278" lon="-2.66656">
        <ele>34.4</ele>
        <time>2021-08-06T10:17:29Z</time>
      </trkpt>
      <trkpt lat="47.58277" lon="-2.66648">
        <ele>34.4</ele>
        <time>2021-08-06T10:17:30Z</time>
      </trkpt>
      <trkpt lat="47.58278" lon="-2.6664">
        <ele>34.4</ele>
        <time>2021-08-06T10:17:31Z</time>
      </trkpt>
      <trkpt lat="47.58277" lon="-2.66633">
        <ele>34.4</ele>
        <time>2021-08-06T10:17:32Z</time>
      </trkpt>
      <trkpt lat="47.58277" lon="-2.66626">
        <ele>34.4</ele>
        <time>2021-08-06T10:17:33Z</time>
      </trkpt>
      <trkpt lat="47.58277" lon="-2.66618">
        <ele>34.4</ele>
        <time>2021-08-06T10:17:34Z</time>
      </trkpt>
      <trkpt lat="47.58276" lon="-2.66612">
        <ele>34.4</ele>
        <time>2021-08-06T10:17:35Z</time>
      </trkpt>
      <trkpt lat="47.58275" lon="-2.66602">
        <ele>34.4</ele>
        <time>2021-08-06T10:17:36Z</time>
      </trkpt>
      <trkpt lat="47.58274" lon="-2.66594">
        <ele>34.4</ele>
        <time>2021-08-06T10:17:37Z</time>
      </trkpt>
      <trkpt lat="47.58273" lon="-2.66588">
        <ele>34.2</ele>
        <time>2021-08-06T10:17:38Z</time>
      </trkpt>
      <trkpt lat="47.58272" lon="-2.66581">
        <ele>34.4</ele>
        <time>2021-08-06T10:17:39Z</time>
      </trkpt>
      <trkpt lat="47.58272" lon="-2.66574">
        <ele>34.2</ele>
        <time>2021-08-06T10:17:40Z</time>
      </trkpt>
      <trkpt lat="47.58273" lon="-2.66566">
        <ele>34.2</ele>
        <time>2021-08-06T10:17:41Z</time>
      </trkpt>
      <trkpt lat="47.58273" lon="-2.66559">
        <ele>34.2</ele>
        <time>2021-08-06T10:17:42Z</time>
      </trkpt>
      <trkpt lat="47.58271" lon="-2.66552">
        <ele>34.4</ele>
        <time>2021-08-06T10:17:43Z</time>
      </trkpt>
      <trkpt lat="47.5827" lon="-2.66546">
        <ele>34.4</ele>
        <time>2021-08-06T10:17:44Z</time>
      </trkpt>
      <trkpt lat="47.58269" lon="-2.66538">
        <ele>34.4</ele>
        <time>2021-08-06T10:17:45Z</time>
      </trkpt>
      <trkpt lat="47.58269" lon="-2.6653">
        <ele>34.4</ele>
        <time>2021-08-06T10:17:46Z</time>
      </trkpt>
      <trkpt lat="47.58269" lon="-2.66521">
        <ele>34.4</ele>
        <time>2021-08-06T10:17:47Z</time>
      </trkpt>
      <trkpt lat="47.58267" lon="-2.66512">
        <ele>34.4</ele>
        <time>2021-08-06T10:17:48Z</time>
      </trkpt>
      <trkpt lat="47.58267" lon="-2.66501">
        <ele>34.4</ele>
        <time>2021-08-06T10:17:49Z</time>
      </trkpt>
      <trkpt lat="47.58266" lon="-2.66485">
        <ele>34.4</ele>
        <time>2021-08-06T10:17:50Z</time>
      </trkpt>
      <trkpt lat="47.58266" lon="-2.66473">
        <ele>34.4</ele>
        <time>2021-08-06T10:17:51Z</time>
      </trkpt>
      <trkpt lat="47.58267" lon="-2.66465">
        <ele>34.4</ele>
        <time>2021-08-06T10:17:52Z</time>
      </trkpt>
      <trkpt lat="47.58265" lon="-2.66456">
        <ele>34.2</ele>
        <time>2021-08-06T10:17:53Z</time>
      </trkpt>
      <trkpt lat="47.58264" lon="-2.66447">
        <ele>34.2</ele>
        <time>2021-08-06T10:17:54Z</time>
      </trkpt>
      <trkpt lat="47.58262" lon="-2.66437">
        <ele>34.2</ele>
        <time>2021-08-06T10:17:55Z</time>
      </trkpt>
      <trkpt lat="47.58264" lon="-2.66428">
        <ele>34.2</ele>
        <time>2021-08-06T10:17:56Z</time>
      </trkpt>
      <trkpt lat="47.58266" lon="-2.66419">
        <ele>34.2</ele>
        <time>2021-08-06T10:17:57Z</time>
      </trkpt>
      <trkpt lat="47.58267" lon="-2.66412">
        <ele>34.2</ele>
        <time>2021-08-06T10:17:58Z</time>
      </trkpt>
      <trkpt lat="47.58267" lon="-2.66404">
        <ele>34.2</ele>
        <time>2021-08-06T10:17:59Z</time>
      </trkpt>
      <trkpt lat="47.58266" lon="-2.66395">
        <ele>34.2</ele>
        <time>2021-08-06T10:18:00Z</time>
      </trkpt>
      <trkpt lat="47.58265" lon="-2.66388">
        <ele>34.2</ele>
        <time>2021-08-06T10:18:01Z</time>
      </trkpt>
      <trkpt lat="47.58264" lon="-2.66381">
        <ele>34.2</ele>
        <time>2021-08-06T10:18:02Z</time>
      </trkpt>
      <trkpt lat="47.58264" lon="-2.66374">
        <ele>34.2</ele>
        <time>2021-08-06T10:18:03Z</time>
      </trkpt>
      <trkpt lat="47.58262" lon="-2.66368">
        <ele>34.2</ele>
        <time>2021-08-06T10:18:04Z</time>
      </trkpt>
      <trkpt lat="47.58262" lon="-2.66363">
        <ele>34.2</ele>
        <time>2021-08-06T10:18:05Z</time>
      </trkpt>
      <trkpt lat="47.58261" lon="-2.66359">
        <ele>34.2</ele>
        <time>2021-08-06T10:18:06Z</time>
      </trkpt>
      <trkpt lat="47.58261" lon="-2.66356">
        <ele>34.2</ele>
        <time>2021-08-06T10:18:07Z</time>
      </trkpt>
      <trkpt lat="47.58261" lon="-2.66351">
        <ele>34.2</ele>
        <time>2021-08-06T10:18:08Z</time>
      </trkpt>
      <trkpt lat="47.58261" lon="-2.66347">
        <ele>34.2</ele>
        <time>2021-08-06T10:18:09Z</time>
      </trkpt>
      <trkpt lat="47.5826" lon="-2.66342">
        <ele>34.2</ele>
        <time>2021-08-06T10:18:10Z</time>
      </trkpt>
      <trkpt lat="47.5826" lon="-2.66338">
        <ele>34.2</ele>
        <time>2021-08-06T10:18:11Z</time>
      </trkpt>
      <trkpt lat="47.5826" lon="-2.66335">
        <ele>34.2</ele>
        <time>2021-08-06T10:18:12Z</time>
      </trkpt>
      <trkpt lat="47.5826" lon="-2.66332">
        <ele>34.4</ele>
        <time>2021-08-06T10:18:13Z</time>
      </trkpt>
      <trkpt lat="47.5826" lon="-2.66331">
        <ele>34.4</ele>
        <time>2021-08-06T10:18:14Z</time>
      </trkpt>
      <trkpt lat="47.58259" lon="-2.6633">
        <ele>34.4</ele>
        <time>2021-08-06T10:18:15Z</time>
      </trkpt>
      <trkpt lat="47.58259" lon="-2.66327">
        <ele>35</ele>
        <time>2021-08-06T10:18:24Z</time>
      </trkpt>
      <trkpt lat="47.58259" lon="-2.66326">
        <ele>35</ele>
        <time>2021-08-06T10:18:25Z</time>
      </trkpt>
      <trkpt lat="47.58259" lon="-2.66324">
        <ele>35</ele>
        <time>2021-08-06T10:18:26Z</time>
      </trkpt>
      <trkpt lat="47.5826" lon="-2.66322">
        <ele>35</ele>
        <time>2021-08-06T10:18:27Z</time>
      </trkpt>
      <trkpt lat="47.5826" lon="-2.66319">
        <ele>35</ele>
        <time>2021-08-06T10:18:28Z</time>
      </trkpt>
      <trkpt lat="47.58261" lon="-2.66315">
        <ele>35</ele>
        <time>2021-08-06T10:18:29Z</time>
      </trkpt>
      <trkpt lat="47.58262" lon="-2.6631">
        <ele>35</ele>
        <time>2021-08-06T10:18:30Z</time>
      </trkpt>
      <trkpt lat="47.58263" lon="-2.66304">
        <ele>35</ele>
        <time>2021-08-06T10:18:31Z</time>
      </trkpt>
      <trkpt lat="47.58263" lon="-2.66298">
        <ele>35</ele>
        <time>2021-08-06T10:18:32Z</time>
      </trkpt>
      <trkpt lat="47.58264" lon="-2.66292">
        <ele>35</ele>
        <time>2021-08-06T10:18:33Z</time>
      </trkpt>
      <trkpt lat="47.58265" lon="-2.66287">
        <ele>35</ele>
        <time>2021-08-06T10:18:34Z</time>
      </trkpt>
      <trkpt lat="47.58266" lon="-2.66282">
        <ele>34.8</ele>
        <time>2021-08-06T10:18:35Z</time>
      </trkpt>
      <trkpt lat="47.58266" lon="-2.66276">
        <ele>34.8</ele>
        <time>2021-08-06T10:18:36Z</time>
      </trkpt>
      <trkpt lat="47.58267" lon="-2.6627">
        <ele>34.4</ele>
        <time>2021-08-06T10:18:37Z</time>
      </trkpt>
      <trkpt lat="47.58267" lon="-2.66263">
        <ele>34.2</ele>
        <time>2021-08-06T10:18:38Z</time>
      </trkpt>
      <trkpt lat="47.58268" lon="-2.66256">
        <ele>34.2</ele>
        <time>2021-08-06T10:18:39Z</time>
      </trkpt>
      <trkpt lat="47.58268" lon="-2.66249">
        <ele>34.2</ele>
        <time>2021-08-06T10:18:40Z</time>
      </trkpt>
      <trkpt lat="47.58269" lon="-2.66241">
        <ele>34.2</ele>
        <time>2021-08-06T10:18:41Z</time>
      </trkpt>
      <trkpt lat="47.5827" lon="-2.66235">
        <ele>34.2</ele>
        <time>2021-08-06T10:18:42Z</time>
      </trkpt>
      <trkpt lat="47.58271" lon="-2.66229">
        <ele>34.2</ele>
        <time>2021-08-06T10:18:43Z</time>
      </trkpt>
      <trkpt lat="47.58272" lon="-2.66222">
        <ele>34</ele>
        <time>2021-08-06T10:18:44Z</time>
      </trkpt>
      <trkpt lat="47.58272" lon="-2.66214">
        <ele>34</ele>
        <time>2021-08-06T10:18:45Z</time>
      </trkpt>
      <trkpt lat="47.58273" lon="-2.66206">
        <ele>34</ele>
        <time>2021-08-06T10:18:46Z</time>
      </trkpt>
      <trkpt lat="47.58274" lon="-2.66199">
        <ele>34</ele>
        <time>2021-08-06T10:18:47Z</time>
      </trkpt>
      <trkpt lat="47.58276" lon="-2.66192">
        <ele>34</ele>
        <time>2021-08-06T10:18:48Z</time>
      </trkpt>
      <trkpt lat="47.58277" lon="-2.66184">
        <ele>34</ele>
        <time>2021-08-06T10:18:49Z</time>
      </trkpt>
      <trkpt lat="47.58278" lon="-2.66177">
        <ele>34</ele>
        <time>2021-08-06T10:18:50Z</time>
      </trkpt>
      <trkpt lat="47.58279" lon="-2.66169">
        <ele>34</ele>
        <time>2021-08-06T10:18:51Z</time>
      </trkpt>
      <trkpt lat="47.58281" lon="-2.66161">
        <ele>34</ele>
        <time>2021-08-06T10:18:52Z</time>
      </trkpt>
      <trkpt lat="47.58282" lon="-2.66153">
        <ele>34</ele>
        <time>2021-08-06T10:18:53Z</time>
      </trkpt>
      <trkpt lat="47.58283" lon="-2.66145">
        <ele>34</ele>
        <time>2021-08-06T10:18:54Z</time>
      </trkpt>
      <trkpt lat="47.58284" lon="-2.66137">
        <ele>34</ele>
        <time>2021-08-06T10:18:55Z</time>
      </trkpt>
      <trkpt lat="47.58284" lon="-2.66129">
        <ele>34</ele>
        <time>2021-08-06T10:18:56Z</time>
      </trkpt>
      <trkpt lat="47.58285" lon="-2.66121">
        <ele>34</ele>
        <time>2021-08-06T10:18:57Z</time>
      </trkpt>
      <trkpt lat="47.58286" lon="-2.66112">
        <ele>34</ele>
        <time>2021-08-06T10:18:58Z</time>
      </trkpt>
      <trkpt lat="47.58286" lon="-2.66103">
        <ele>34</ele>
        <time>2021-08-06T10:18:59Z</time>
      </trkpt>
      <trkpt lat="47.58287" lon="-2.66095">
        <ele>33.8</ele>
        <time>2021-08-06T10:19:00Z</time>
      </trkpt>
      <trkpt lat="47.58287" lon="-2.66086">
        <ele>33.8</ele>
        <time>2021-08-06T10:19:01Z</time>
      </trkpt>
      <trkpt lat="47.58288" lon="-2.66078">
        <ele>33.8</ele>
        <time>2021-08-06T10:19:02Z</time>
      </trkpt>
      <trkpt lat="47.58288" lon="-2.66069">
        <ele>33.8</ele>
        <time>2021-08-06T10:19:03Z</time>
      </trkpt>
      <trkpt lat="47.58289" lon="-2.66061">
        <ele>33.8</ele>
        <time>2021-08-06T10:19:04Z</time>
      </trkpt>
      <trkpt lat="47.5829" lon="-2.66053">
        <ele>33.8</ele>
        <time>2021-08-06T10:19:05Z</time>
      </trkpt>
      <trkpt lat="47.58291" lon="-2.66044">
        <ele>33.8</ele>
        <time>2021-08-06T10:19:06Z</time>
      </trkpt>
      <trkpt lat="47.58291" lon="-2.66035">
        <ele>33.8</ele>
        <time>2021-08-06T10:19:07Z</time>
      </trkpt>
      <trkpt lat="47.58292" lon="-2.66026">
        <ele>33.8</ele>
        <time>2021-08-06T10:19:08Z</time>
      </trkpt>
      <trkpt lat="47.58292" lon="-2.66017">
        <ele>33.8</ele>
        <time>2021-08-06T10:19:09Z</time>
      </trkpt>
      <trkpt lat="47.58293" lon="-2.66008">
        <ele>33.8</ele>
        <time>2021-08-06T10:19:10Z</time>
      </trkpt>
      <trkpt lat="47.58293" lon="-2.65999">
        <ele>33.6</ele>
        <time>2021-08-06T10:19:11Z</time>
      </trkpt>
      <trkpt lat="47.58293" lon="-2.6599">
        <ele>33.6</ele>
        <time>2021-08-06T10:19:12Z</time>
      </trkpt>
      <trkpt lat="47.58293" lon="-2.65981">
        <ele>33.6</ele>
        <time>2021-08-06T10:19:13Z</time>
      </trkpt>
      <trkpt lat="47.58294" lon="-2.65972">
        <ele>33.6</ele>
        <time>2021-08-06T10:19:14Z</time>
      </trkpt>
      <trkpt lat="47.58294" lon="-2.65963">
        <ele>33.6</ele>
        <time>2021-08-06T10:19:15Z</time>
      </trkpt>
      <trkpt lat="47.58294" lon="-2.65955">
        <ele>33.6</ele>
        <time>2021-08-06T10:19:16Z</time>
      </trkpt>
      <trkpt lat="47.58295" lon="-2.65946">
        <ele>33.6</ele>
        <time>2021-08-06T10:19:17Z</time>
      </trkpt>
      <trkpt lat="47.58295" lon="-2.65938">
        <ele>33.6</ele>
        <time>2021-08-06T10:19:18Z</time>
      </trkpt>
      <trkpt lat="47.58295" lon="-2.65929">
        <ele>33.6</ele>
        <time>2021-08-06T10:19:19Z</time>
      </trkpt>
      <trkpt lat="47.58296" lon="-2.65921">
        <ele>33.4</ele>
        <time>2021-08-06T10:19:20Z</time>
      </trkpt>
      <trkpt lat="47.58296" lon="-2.65912">
        <ele>33.4</ele>
        <time>2021-08-06T10:19:21Z</time>
      </trkpt>
      <trkpt lat="47.58295" lon="-2.65904">
        <ele>33.4</ele>
        <time>2021-08-06T10:19:22Z</time>
      </trkpt>
      <trkpt lat="47.58295" lon="-2.65896">
        <ele>33.4</ele>
        <time>2021-08-06T10:19:23Z</time>
      </trkpt>
      <trkpt lat="47.58296" lon="-2.65888">
        <ele>33.4</ele>
        <time>2021-08-06T10:19:24Z</time>
      </trkpt>
      <trkpt lat="47.58296" lon="-2.6588">
        <ele>33.4</ele>
        <time>2021-08-06T10:19:25Z</time>
      </trkpt>
      <trkpt lat="47.58297" lon="-2.65872">
        <ele>33.4</ele>
        <time>2021-08-06T10:19:26Z</time>
      </trkpt>
      <trkpt lat="47.58297" lon="-2.65864">
        <ele>33.4</ele>
        <time>2021-08-06T10:19:27Z</time>
      </trkpt>
      <trkpt lat="47.58297" lon="-2.65856">
        <ele>33.4</ele>
        <time>2021-08-06T10:19:28Z</time>
      </trkpt>
      <trkpt lat="47.58297" lon="-2.65848">
        <ele>33.4</ele>
        <time>2021-08-06T10:19:29Z</time>
      </trkpt>
      <trkpt lat="47.58298" lon="-2.65839">
        <ele>33.4</ele>
        <time>2021-08-06T10:19:30Z</time>
      </trkpt>
      <trkpt lat="47.58298" lon="-2.65831">
        <ele>33.4</ele>
        <time>2021-08-06T10:19:31Z</time>
      </trkpt>
      <trkpt lat="47.58298" lon="-2.65823">
        <ele>33.6</ele>
        <time>2021-08-06T10:19:32Z</time>
      </trkpt>
      <trkpt lat="47.58299" lon="-2.65814">
        <ele>33.6</ele>
        <time>2021-08-06T10:19:33Z</time>
      </trkpt>
      <trkpt lat="47.58299" lon="-2.65806">
        <ele>33.8</ele>
        <time>2021-08-06T10:19:34Z</time>
      </trkpt>
      <trkpt lat="47.58299" lon="-2.65798">
        <ele>33.8</ele>
        <time>2021-08-06T10:19:35Z</time>
      </trkpt>
      <trkpt lat="47.583" lon="-2.6579">
        <ele>33.8</ele>
        <time>2021-08-06T10:19:36Z</time>
      </trkpt>
      <trkpt lat="47.583" lon="-2.65782">
        <ele>33.8</ele>
        <time>2021-08-06T10:19:37Z</time>
      </trkpt>
      <trkpt lat="47.583" lon="-2.65774">
        <ele>33.8</ele>
        <time>2021-08-06T10:19:38Z</time>
      </trkpt>
      <trkpt lat="47.58301" lon="-2.65766">
        <ele>33.8</ele>
        <time>2021-08-06T10:19:39Z</time>
      </trkpt>
      <trkpt lat="47.58301" lon="-2.65758">
        <ele>33.8</ele>
        <time>2021-08-06T10:19:40Z</time>
      </trkpt>
      <trkpt lat="47.58302" lon="-2.6575">
        <ele>33.8</ele>
        <time>2021-08-06T10:19:41Z</time>
      </trkpt>
      <trkpt lat="47.58302" lon="-2.65742">
        <ele>33.8</ele>
        <time>2021-08-06T10:19:42Z</time>
      </trkpt>
      <trkpt lat="47.58303" lon="-2.65734">
        <ele>33.8</ele>
        <time>2021-08-06T10:19:43Z</time>
      </trkpt>
      <trkpt lat="47.58303" lon="-2.65726">
        <ele>33.8</ele>
        <time>2021-08-06T10:19:44Z</time>
      </trkpt>
      <trkpt lat="47.58303" lon="-2.65718">
        <ele>34</ele>
        <time>2021-08-06T10:19:45Z</time>
      </trkpt>
      <trkpt lat="47.58303" lon="-2.6571">
        <ele>34</ele>
        <time>2021-08-06T10:19:46Z</time>
      </trkpt>
      <trkpt lat="47.58304" lon="-2.65702">
        <ele>34.2</ele>
        <time>2021-08-06T10:19:47Z</time>
      </trkpt>
      <trkpt lat="47.58304" lon="-2.65694">
        <ele>34.2</ele>
        <time>2021-08-06T10:19:48Z</time>
      </trkpt>
      <trkpt lat="47.58305" lon="-2.65686">
        <ele>34.4</ele>
        <time>2021-08-06T10:19:49Z</time>
      </trkpt>
      <trkpt lat="47.58305" lon="-2.65678">
        <ele>34.6</ele>
        <time>2021-08-06T10:19:50Z</time>
      </trkpt>
      <trkpt lat="47.58306" lon="-2.6567">
        <ele>34.8</ele>
        <time>2021-08-06T10:19:51Z</time>
      </trkpt>
      <trkpt lat="47.58306" lon="-2.65662">
        <ele>34.8</ele>
        <time>2021-08-06T10:19:52Z</time>
      </trkpt>
      <trkpt lat="47.58307" lon="-2.65653">
        <ele>35</ele>
        <time>2021-08-06T10:19:53Z</time>
      </trkpt>
      <trkpt lat="47.58307" lon="-2.65645">
        <ele>35.2</ele>
        <time>2021-08-06T10:19:54Z</time>
      </trkpt>
      <trkpt lat="47.58307" lon="-2.65637">
        <ele>35.6</ele>
        <time>2021-08-06T10:19:55Z</time>
      </trkpt>
      <trkpt lat="47.58308" lon="-2.65629">
        <ele>35.6</ele>
        <time>2021-08-06T10:19:56Z</time>
      </trkpt>
      <trkpt lat="47.58308" lon="-2.65621">
        <ele>35.6</ele>
        <time>2021-08-06T10:19:57Z</time>
      </trkpt>
      <trkpt lat="47.58308" lon="-2.65613">
        <ele>35.6</ele>
        <time>2021-08-06T10:19:58Z</time>
      </trkpt>
      <trkpt lat="47.58308" lon="-2.65605">
        <ele>35.6</ele>
        <time>2021-08-06T10:19:59Z</time>
      </trkpt>
      <trkpt lat="47.58308" lon="-2.65597">
        <ele>35.6</ele>
        <time>2021-08-06T10:20:00Z</time>
      </trkpt>
      <trkpt lat="47.58309" lon="-2.65589">
        <ele>35.6</ele>
        <time>2021-08-06T10:20:01Z</time>
      </trkpt>
      <trkpt lat="47.58309" lon="-2.65581">
        <ele>35.6</ele>
        <time>2021-08-06T10:20:02Z</time>
      </trkpt>
      <trkpt lat="47.5831" lon="-2.65573">
        <ele>35.6</ele>
        <time>2021-08-06T10:20:03Z</time>
      </trkpt>
      <trkpt lat="47.5831" lon="-2.65565">
        <ele>35.6</ele>
        <time>2021-08-06T10:20:04Z</time>
      </trkpt>
      <trkpt lat="47.58311" lon="-2.65556">
        <ele>35.8</ele>
        <time>2021-08-06T10:20:05Z</time>
      </trkpt>
      <trkpt lat="47.58311" lon="-2.65548">
        <ele>35.8</ele>
        <time>2021-08-06T10:20:06Z</time>
      </trkpt>
      <trkpt lat="47.58312" lon="-2.65539">
        <ele>36.2</ele>
        <time>2021-08-06T10:20:07Z</time>
      </trkpt>
      <trkpt lat="47.58312" lon="-2.6553">
        <ele>36.2</ele>
        <time>2021-08-06T10:20:08Z</time>
      </trkpt>
      <trkpt lat="47.58312" lon="-2.65522">
        <ele>36.2</ele>
        <time>2021-08-06T10:20:09Z</time>
      </trkpt>
      <trkpt lat="47.58313" lon="-2.65513">
        <ele>36.2</ele>
        <time>2021-08-06T10:20:10Z</time>
      </trkpt>
      <trkpt lat="47.58313" lon="-2.65504">
        <ele>36.4</ele>
        <time>2021-08-06T10:20:11Z</time>
      </trkpt>
      <trkpt lat="47.58313" lon="-2.65495">
        <ele>36.4</ele>
        <time>2021-08-06T10:20:12Z</time>
      </trkpt>
      <trkpt lat="47.58314" lon="-2.65486">
        <ele>36.4</ele>
        <time>2021-08-06T10:20:13Z</time>
      </trkpt>
      <trkpt lat="47.58314" lon="-2.65476">
        <ele>36.4</ele>
        <time>2021-08-06T10:20:14Z</time>
      </trkpt>
      <trkpt lat="47.58314" lon="-2.65466">
        <ele>36.4</ele>
        <time>2021-08-06T10:20:15Z</time>
      </trkpt>
      <trkpt lat="47.58314" lon="-2.65456">
        <ele>36.4</ele>
        <time>2021-08-06T10:20:16Z</time>
      </trkpt>
      <trkpt lat="47.58314" lon="-2.65446">
        <ele>36.4</ele>
        <time>2021-08-06T10:20:17Z</time>
      </trkpt>
      <trkpt lat="47.58313" lon="-2.65435">
        <ele>36.4</ele>
        <time>2021-08-06T10:20:18Z</time>
      </trkpt>
      <trkpt lat="47.58313" lon="-2.65425">
        <ele>36.4</ele>
        <time>2021-08-06T10:20:19Z</time>
      </trkpt>
      <trkpt lat="47.58312" lon="-2.65414">
        <ele>36.4</ele>
        <time>2021-08-06T10:20:20Z</time>
      </trkpt>
      <trkpt lat="47.58311" lon="-2.65404">
        <ele>36.4</ele>
        <time>2021-08-06T10:20:21Z</time>
      </trkpt>
      <trkpt lat="47.5831" lon="-2.65394">
        <ele>36.4</ele>
        <time>2021-08-06T10:20:22Z</time>
      </trkpt>
      <trkpt lat="47.58309" lon="-2.65384">
        <ele>36.2</ele>
        <time>2021-08-06T10:20:23Z</time>
      </trkpt>
      <trkpt lat="47.58308" lon="-2.65374">
        <ele>36.2</ele>
        <time>2021-08-06T10:20:24Z</time>
      </trkpt>
      <trkpt lat="47.58307" lon="-2.65364">
        <ele>35.6</ele>
        <time>2021-08-06T10:20:25Z</time>
      </trkpt>
      <trkpt lat="47.58306" lon="-2.65354">
        <ele>35.6</ele>
        <time>2021-08-06T10:20:26Z</time>
      </trkpt>
      <trkpt lat="47.58305" lon="-2.65344">
        <ele>35.4</ele>
        <time>2021-08-06T10:20:27Z</time>
      </trkpt>
      <trkpt lat="47.58304" lon="-2.65334">
        <ele>35</ele>
        <time>2021-08-06T10:20:28Z</time>
      </trkpt>
      <trkpt lat="47.58303" lon="-2.65324">
        <ele>35</ele>
        <time>2021-08-06T10:20:29Z</time>
      </trkpt>
      <trkpt lat="47.58302" lon="-2.65314">
        <ele>35</ele>
        <time>2021-08-06T10:20:30Z</time>
      </trkpt>
      <trkpt lat="47.58301" lon="-2.65305">
        <ele>34.6</ele>
        <time>2021-08-06T10:20:31Z</time>
      </trkpt>
      <trkpt lat="47.583" lon="-2.65295">
        <ele>34.2</ele>
        <time>2021-08-06T10:20:32Z</time>
      </trkpt>
      <trkpt lat="47.58299" lon="-2.65285">
        <ele>34.2</ele>
        <time>2021-08-06T10:20:33Z</time>
      </trkpt>
      <trkpt lat="47.58298" lon="-2.65275">
        <ele>34</ele>
        <time>2021-08-06T10:20:34Z</time>
      </trkpt>
      <trkpt lat="47.58297" lon="-2.65265">
        <ele>33.6</ele>
        <time>2021-08-06T10:20:35Z</time>
      </trkpt>
      <trkpt lat="47.58296" lon="-2.65255">
        <ele>33.6</ele>
        <time>2021-08-06T10:20:36Z</time>
      </trkpt>
      <trkpt lat="47.58295" lon="-2.65245">
        <ele>33</ele>
        <time>2021-08-06T10:20:37Z</time>
      </trkpt>
      <trkpt lat="47.58294" lon="-2.65234">
        <ele>33</ele>
        <time>2021-08-06T10:20:38Z</time>
      </trkpt>
      <trkpt lat="47.58293" lon="-2.65224">
        <ele>32.8</ele>
        <time>2021-08-06T10:20:39Z</time>
      </trkpt>
      <trkpt lat="47.58292" lon="-2.65214">
        <ele>32.8</ele>
        <time>2021-08-06T10:20:40Z</time>
      </trkpt>
      <trkpt lat="47.58291" lon="-2.65204">
        <ele>32.8</ele>
        <time>2021-08-06T10:20:41Z</time>
      </trkpt>
      <trkpt lat="47.58289" lon="-2.65193">
        <ele>32.6</ele>
        <time>2021-08-06T10:20:42Z</time>
      </trkpt>
      <trkpt lat="47.58288" lon="-2.65182">
        <ele>32.6</ele>
        <time>2021-08-06T10:20:43Z</time>
      </trkpt>
      <trkpt lat="47.58287" lon="-2.65171">
        <ele>32.4</ele>
        <time>2021-08-06T10:20:44Z</time>
      </trkpt>
      <trkpt lat="47.58285" lon="-2.65161">
        <ele>32.4</ele>
        <time>2021-08-06T10:20:45Z</time>
      </trkpt>
      <trkpt lat="47.58284" lon="-2.6515">
        <ele>32.4</ele>
        <time>2021-08-06T10:20:46Z</time>
      </trkpt>
      <trkpt lat="47.58282" lon="-2.65139">
        <ele>32.4</ele>
        <time>2021-08-06T10:20:47Z</time>
      </trkpt>
      <trkpt lat="47.58281" lon="-2.65129">
        <ele>32.2</ele>
        <time>2021-08-06T10:20:48Z</time>
      </trkpt>
      <trkpt lat="47.5828" lon="-2.65118">
        <ele>32.2</ele>
        <time>2021-08-06T10:20:49Z</time>
      </trkpt>
      <trkpt lat="47.58278" lon="-2.65108">
        <ele>32.2</ele>
        <time>2021-08-06T10:20:50Z</time>
      </trkpt>
      <trkpt lat="47.58277" lon="-2.65099">
        <ele>31.8</ele>
        <time>2021-08-06T10:20:51Z</time>
      </trkpt>
      <trkpt lat="47.58276" lon="-2.65089">
        <ele>31.6</ele>
        <time>2021-08-06T10:20:52Z</time>
      </trkpt>
      <trkpt lat="47.58274" lon="-2.6508">
        <ele>31.2</ele>
        <time>2021-08-06T10:20:53Z</time>
      </trkpt>
      <trkpt lat="47.58273" lon="-2.6507">
        <ele>30.6</ele>
        <time>2021-08-06T10:20:54Z</time>
      </trkpt>
      <trkpt lat="47.58273" lon="-2.65061">
        <ele>30.4</ele>
        <time>2021-08-06T10:20:55Z</time>
      </trkpt>
      <trkpt lat="47.58275" lon="-2.65051">
        <ele>30.4</ele>
        <time>2021-08-06T10:20:56Z</time>
      </trkpt>
      <trkpt lat="47.58277" lon="-2.65043">
        <ele>30.2</ele>
        <time>2021-08-06T10:20:57Z</time>
      </trkpt>
      <trkpt lat="47.58281" lon="-2.65036">
        <ele>30.2</ele>
        <time>2021-08-06T10:20:58Z</time>
      </trkpt>
      <trkpt lat="47.58284" lon="-2.65028">
        <ele>30.2</ele>
        <time>2021-08-06T10:20:59Z</time>
      </trkpt>
      <trkpt lat="47.58287" lon="-2.65018">
        <ele>30</ele>
        <time>2021-08-06T10:21:00Z</time>
      </trkpt>
      <trkpt lat="47.58288" lon="-2.65009">
        <ele>30</ele>
        <time>2021-08-06T10:21:01Z</time>
      </trkpt>
      <trkpt lat="47.58289" lon="-2.64999">
        <ele>30</ele>
        <time>2021-08-06T10:21:02Z</time>
      </trkpt>
      <trkpt lat="47.58289" lon="-2.6499">
        <ele>30</ele>
        <time>2021-08-06T10:21:03Z</time>
      </trkpt>
      <trkpt lat="47.5829" lon="-2.6498">
        <ele>30</ele>
        <time>2021-08-06T10:21:04Z</time>
      </trkpt>
      <trkpt lat="47.5829" lon="-2.64971">
        <ele>30</ele>
        <time>2021-08-06T10:21:05Z</time>
      </trkpt>
      <trkpt lat="47.58291" lon="-2.64961">
        <ele>30</ele>
        <time>2021-08-06T10:21:06Z</time>
      </trkpt>
      <trkpt lat="47.58291" lon="-2.64953">
        <ele>30</ele>
        <time>2021-08-06T10:21:07Z</time>
      </trkpt>
      <trkpt lat="47.58291" lon="-2.64944">
        <ele>30</ele>
        <time>2021-08-06T10:21:08Z</time>
      </trkpt>
      <trkpt lat="47.58291" lon="-2.64936">
        <ele>30</ele>
        <time>2021-08-06T10:21:09Z</time>
      </trkpt>
      <trkpt lat="47.58291" lon="-2.64928">
        <ele>30.2</ele>
        <time>2021-08-06T10:21:10Z</time>
      </trkpt>
      <trkpt lat="47.5829" lon="-2.64921">
        <ele>30.2</ele>
        <time>2021-08-06T10:21:11Z</time>
      </trkpt>
      <trkpt lat="47.5829" lon="-2.64914">
        <ele>30.2</ele>
        <time>2021-08-06T10:21:12Z</time>
      </trkpt>
      <trkpt lat="47.58291" lon="-2.64908">
        <ele>30.2</ele>
        <time>2021-08-06T10:21:13Z</time>
      </trkpt>
      <trkpt lat="47.58291" lon="-2.64901">
        <ele>30.2</ele>
        <time>2021-08-06T10:21:14Z</time>
      </trkpt>
      <trkpt lat="47.58291" lon="-2.64895">
        <ele>30.2</ele>
        <time>2021-08-06T10:21:15Z</time>
      </trkpt>
      <trkpt lat="47.58291" lon="-2.6489">
        <ele>30.2</ele>
        <time>2021-08-06T10:21:16Z</time>
      </trkpt>
      <trkpt lat="47.58291" lon="-2.64884">
        <ele>30.4</ele>
        <time>2021-08-06T10:21:17Z</time>
      </trkpt>
      <trkpt lat="47.58291" lon="-2.64878">
        <ele>30.4</ele>
        <time>2021-08-06T10:21:18Z</time>
      </trkpt>
      <trkpt lat="47.58292" lon="-2.64872">
        <ele>30.4</ele>
        <time>2021-08-06T10:21:19Z</time>
      </trkpt>
      <trkpt lat="47.58292" lon="-2.64866">
        <ele>30.4</ele>
        <time>2021-08-06T10:21:20Z</time>
      </trkpt>
      <trkpt lat="47.58293" lon="-2.6486">
        <ele>30.4</ele>
        <time>2021-08-06T10:21:21Z</time>
      </trkpt>
      <trkpt lat="47.58294" lon="-2.64854">
        <ele>30.6</ele>
        <time>2021-08-06T10:21:22Z</time>
      </trkpt>
      <trkpt lat="47.58295" lon="-2.64848">
        <ele>30.6</ele>
        <time>2021-08-06T10:21:23Z</time>
      </trkpt>
      <trkpt lat="47.58296" lon="-2.64842">
        <ele>30.6</ele>
        <time>2021-08-06T10:21:24Z</time>
      </trkpt>
      <trkpt lat="47.58297" lon="-2.64836">
        <ele>30.6</ele>
        <time>2021-08-06T10:21:25Z</time>
      </trkpt>
      <trkpt lat="47.58297" lon="-2.64829">
        <ele>30.8</ele>
        <time>2021-08-06T10:21:26Z</time>
      </trkpt>
      <trkpt lat="47.58298" lon="-2.64822">
        <ele>30.8</ele>
        <time>2021-08-06T10:21:27Z</time>
      </trkpt>
      <trkpt lat="47.58299" lon="-2.64815">
        <ele>30.8</ele>
        <time>2021-08-06T10:21:28Z</time>
      </trkpt>
      <trkpt lat="47.583" lon="-2.64808">
        <ele>30.8</ele>
        <time>2021-08-06T10:21:29Z</time>
      </trkpt>
      <trkpt lat="47.583" lon="-2.64801">
        <ele>30.8</ele>
        <time>2021-08-06T10:21:30Z</time>
      </trkpt>
      <trkpt lat="47.58301" lon="-2.64794">
        <ele>30.8</ele>
        <time>2021-08-06T10:21:31Z</time>
      </trkpt>
      <trkpt lat="47.58302" lon="-2.64787">
        <ele>30.8</ele>
        <time>2021-08-06T10:21:32Z</time>
      </trkpt>
      <trkpt lat="47.58304" lon="-2.6478">
        <ele>30.8</ele>
        <time>2021-08-06T10:21:33Z</time>
      </trkpt>
      <trkpt lat="47.58305" lon="-2.64773">
        <ele>31</ele>
        <time>2021-08-06T10:21:34Z</time>
      </trkpt>
      <trkpt lat="47.58306" lon="-2.64766">
        <ele>31</ele>
        <time>2021-08-06T10:21:35Z</time>
      </trkpt>
      <trkpt lat="47.58307" lon="-2.6476">
        <ele>31</ele>
        <time>2021-08-06T10:21:36Z</time>
      </trkpt>
      <trkpt lat="47.58307" lon="-2.64753">
        <ele>31</ele>
        <time>2021-08-06T10:21:37Z</time>
      </trkpt>
      <trkpt lat="47.58308" lon="-2.64746">
        <ele>31</ele>
        <time>2021-08-06T10:21:38Z</time>
      </trkpt>
      <trkpt lat="47.58309" lon="-2.64739">
        <ele>31.2</ele>
        <time>2021-08-06T10:21:39Z</time>
      </trkpt>
      <trkpt lat="47.5831" lon="-2.64732">
        <ele>31.2</ele>
        <time>2021-08-06T10:21:40Z</time>
      </trkpt>
      <trkpt lat="47.58311" lon="-2.64726">
        <ele>31.2</ele>
        <time>2021-08-06T10:21:41Z</time>
      </trkpt>
      <trkpt lat="47.58312" lon="-2.64719">
        <ele>31.2</ele>
        <time>2021-08-06T10:21:42Z</time>
      </trkpt>
      <trkpt lat="47.58313" lon="-2.64713">
        <ele>31.2</ele>
        <time>2021-08-06T10:21:43Z</time>
      </trkpt>
      <trkpt lat="47.58313" lon="-2.64706">
        <ele>31.4</ele>
        <time>2021-08-06T10:21:44Z</time>
      </trkpt>
      <trkpt lat="47.58314" lon="-2.647">
        <ele>31.4</ele>
        <time>2021-08-06T10:21:45Z</time>
      </trkpt>
      <trkpt lat="47.58316" lon="-2.64693">
        <ele>31.4</ele>
        <time>2021-08-06T10:21:46Z</time>
      </trkpt>
      <trkpt lat="47.58317" lon="-2.64686">
        <ele>31.8</ele>
        <time>2021-08-06T10:21:47Z</time>
      </trkpt>
      <trkpt lat="47.58318" lon="-2.64679">
        <ele>31.8</ele>
        <time>2021-08-06T10:21:48Z</time>
      </trkpt>
      <trkpt lat="47.58319" lon="-2.64672">
        <ele>32</ele>
        <time>2021-08-06T10:21:49Z</time>
      </trkpt>
      <trkpt lat="47.5832" lon="-2.64665">
        <ele>32.2</ele>
        <time>2021-08-06T10:21:50Z</time>
      </trkpt>
      <trkpt lat="47.5832" lon="-2.64658">
        <ele>32.2</ele>
        <time>2021-08-06T10:21:51Z</time>
      </trkpt>
      <trkpt lat="47.58321" lon="-2.64651">
        <ele>32.2</ele>
        <time>2021-08-06T10:21:52Z</time>
      </trkpt>
      <trkpt lat="47.58322" lon="-2.64644">
        <ele>32.2</ele>
        <time>2021-08-06T10:21:53Z</time>
      </trkpt>
      <trkpt lat="47.58323" lon="-2.64637">
        <ele>32.4</ele>
        <time>2021-08-06T10:21:54Z</time>
      </trkpt>
      <trkpt lat="47.58324" lon="-2.6463">
        <ele>32.4</ele>
        <time>2021-08-06T10:21:55Z</time>
      </trkpt>
      <trkpt lat="47.58325" lon="-2.64622">
        <ele>32.4</ele>
        <time>2021-08-06T10:21:56Z</time>
      </trkpt>
      <trkpt lat="47.58326" lon="-2.64616">
        <ele>32.4</ele>
        <time>2021-08-06T10:21:57Z</time>
      </trkpt>
      <trkpt lat="47.58327" lon="-2.64609">
        <ele>32.4</ele>
        <time>2021-08-06T10:21:58Z</time>
      </trkpt>
      <trkpt lat="47.58327" lon="-2.64604">
        <ele>32.4</ele>
        <time>2021-08-06T10:21:59Z</time>
      </trkpt>
      <trkpt lat="47.58328" lon="-2.64597">
        <ele>32.4</ele>
        <time>2021-08-06T10:22:00Z</time>
      </trkpt>
      <trkpt lat="47.58329" lon="-2.64591">
        <ele>32.4</ele>
        <time>2021-08-06T10:22:01Z</time>
      </trkpt>
      <trkpt lat="47.5833" lon="-2.64584">
        <ele>32.4</ele>
        <time>2021-08-06T10:22:02Z</time>
      </trkpt>
      <trkpt lat="47.58332" lon="-2.64576">
        <ele>32.4</ele>
        <time>2021-08-06T10:22:03Z</time>
      </trkpt>
      <trkpt lat="47.58333" lon="-2.64569">
        <ele>32.4</ele>
        <time>2021-08-06T10:22:04Z</time>
      </trkpt>
      <trkpt lat="47.58335" lon="-2.64561">
        <ele>32.4</ele>
        <time>2021-08-06T10:22:05Z</time>
      </trkpt>
      <trkpt lat="47.58336" lon="-2.64554">
        <ele>32.4</ele>
        <time>2021-08-06T10:22:06Z</time>
      </trkpt>
      <trkpt lat="47.58338" lon="-2.64547">
        <ele>32.4</ele>
        <time>2021-08-06T10:22:07Z</time>
      </trkpt>
      <trkpt lat="47.5834" lon="-2.64539">
        <ele>32.4</ele>
        <time>2021-08-06T10:22:08Z</time>
      </trkpt>
      <trkpt lat="47.58342" lon="-2.64532">
        <ele>32.4</ele>
        <time>2021-08-06T10:22:09Z</time>
      </trkpt>
      <trkpt lat="47.58345" lon="-2.64525">
        <ele>32.2</ele>
        <time>2021-08-06T10:22:10Z</time>
      </trkpt>
      <trkpt lat="47.58348" lon="-2.64518">
        <ele>32.2</ele>
        <time>2021-08-06T10:22:11Z</time>
      </trkpt>
      <trkpt lat="47.58351" lon="-2.64511">
        <ele>32.2</ele>
        <time>2021-08-06T10:22:12Z</time>
      </trkpt>
      <trkpt lat="47.58354" lon="-2.64504">
        <ele>32.2</ele>
        <time>2021-08-06T10:22:13Z</time>
      </trkpt>
      <trkpt lat="47.58358" lon="-2.64497">
        <ele>32.2</ele>
        <time>2021-08-06T10:22:14Z</time>
      </trkpt>
      <trkpt lat="47.58361" lon="-2.6449">
        <ele>32.2</ele>
        <time>2021-08-06T10:22:15Z</time>
      </trkpt>
      <trkpt lat="47.58365" lon="-2.64483">
        <ele>32.2</ele>
        <time>2021-08-06T10:22:16Z</time>
      </trkpt>
      <trkpt lat="47.58369" lon="-2.64476">
        <ele>32.2</ele>
        <time>2021-08-06T10:22:17Z</time>
      </trkpt>
      <trkpt lat="47.58373" lon="-2.64469">
        <ele>32.2</ele>
        <time>2021-08-06T10:22:18Z</time>
      </trkpt>
      <trkpt lat="47.58378" lon="-2.64462">
        <ele>32.2</ele>
        <time>2021-08-06T10:22:19Z</time>
      </trkpt>
      <trkpt lat="47.58382" lon="-2.64455">
        <ele>32.2</ele>
        <time>2021-08-06T10:22:20Z</time>
      </trkpt>
      <trkpt lat="47.58387" lon="-2.64448">
        <ele>32.2</ele>
        <time>2021-08-06T10:22:21Z</time>
      </trkpt>
      <trkpt lat="47.58391" lon="-2.64441">
        <ele>32.2</ele>
        <time>2021-08-06T10:22:22Z</time>
      </trkpt>
      <trkpt lat="47.58395" lon="-2.64433">
        <ele>32.2</ele>
        <time>2021-08-06T10:22:23Z</time>
      </trkpt>
      <trkpt lat="47.58399" lon="-2.64426">
        <ele>32.2</ele>
        <time>2021-08-06T10:22:24Z</time>
      </trkpt>
      <trkpt lat="47.58404" lon="-2.64418">
        <ele>32.2</ele>
        <time>2021-08-06T10:22:25Z</time>
      </trkpt>
      <trkpt lat="47.58408" lon="-2.6441">
        <ele>32.2</ele>
        <time>2021-08-06T10:22:26Z</time>
      </trkpt>
      <trkpt lat="47.58413" lon="-2.64402">
        <ele>32</ele>
        <time>2021-08-06T10:22:27Z</time>
      </trkpt>
      <trkpt lat="47.58417" lon="-2.64394">
        <ele>31.8</ele>
        <time>2021-08-06T10:22:28Z</time>
      </trkpt>
      <trkpt lat="47.58421" lon="-2.64386">
        <ele>31.4</ele>
        <time>2021-08-06T10:22:29Z</time>
      </trkpt>
      <trkpt lat="47.58426" lon="-2.64378">
        <ele>31.2</ele>
        <time>2021-08-06T10:22:30Z</time>
      </trkpt>
      <trkpt lat="47.58431" lon="-2.6437">
        <ele>31</ele>
        <time>2021-08-06T10:22:31Z</time>
      </trkpt>
      <trkpt lat="47.58435" lon="-2.64362">
        <ele>31</ele>
        <time>2021-08-06T10:22:32Z</time>
      </trkpt>
      <trkpt lat="47.5844" lon="-2.64354">
        <ele>31</ele>
        <time>2021-08-06T10:22:33Z</time>
      </trkpt>
      <trkpt lat="47.58445" lon="-2.64346">
        <ele>31</ele>
        <time>2021-08-06T10:22:34Z</time>
      </trkpt>
      <trkpt lat="47.5845" lon="-2.64337">
        <ele>30.8</ele>
        <time>2021-08-06T10:22:35Z</time>
      </trkpt>
      <trkpt lat="47.58455" lon="-2.64329">
        <ele>30.8</ele>
        <time>2021-08-06T10:22:36Z</time>
      </trkpt>
      <trkpt lat="47.58461" lon="-2.6432">
        <ele>30.8</ele>
        <time>2021-08-06T10:22:37Z</time>
      </trkpt>
      <trkpt lat="47.58466" lon="-2.64312">
        <ele>30.8</ele>
        <time>2021-08-06T10:22:38Z</time>
      </trkpt>
      <trkpt lat="47.58472" lon="-2.64303">
        <ele>30.8</ele>
        <time>2021-08-06T10:22:39Z</time>
      </trkpt>
      <trkpt lat="47.58477" lon="-2.64294">
        <ele>30.6</ele>
        <time>2021-08-06T10:22:40Z</time>
      </trkpt>
      <trkpt lat="47.58482" lon="-2.64285">
        <ele>30.6</ele>
        <time>2021-08-06T10:22:41Z</time>
      </trkpt>
      <trkpt lat="47.58487" lon="-2.64276">
        <ele>30.6</ele>
        <time>2021-08-06T10:22:42Z</time>
      </trkpt>
      <trkpt lat="47.58493" lon="-2.64268">
        <ele>30.4</ele>
        <time>2021-08-06T10:22:43Z</time>
      </trkpt>
      <trkpt lat="47.58498" lon="-2.64259">
        <ele>30.2</ele>
        <time>2021-08-06T10:22:44Z</time>
      </trkpt>
      <trkpt lat="47.58504" lon="-2.64251">
        <ele>30.2</ele>
        <time>2021-08-06T10:22:45Z</time>
      </trkpt>
      <trkpt lat="47.58509" lon="-2.64243">
        <ele>30.2</ele>
        <time>2021-08-06T10:22:46Z</time>
      </trkpt>
      <trkpt lat="47.58514" lon="-2.64235">
        <ele>30</ele>
        <time>2021-08-06T10:22:47Z</time>
      </trkpt>
      <trkpt lat="47.58519" lon="-2.64227">
        <ele>30</ele>
        <time>2021-08-06T10:22:48Z</time>
      </trkpt>
      <trkpt lat="47.58524" lon="-2.64218">
        <ele>30</ele>
        <time>2021-08-06T10:22:49Z</time>
      </trkpt>
      <trkpt lat="47.58529" lon="-2.6421">
        <ele>30</ele>
        <time>2021-08-06T10:22:50Z</time>
      </trkpt>
      <trkpt lat="47.58533" lon="-2.64201">
        <ele>30</ele>
        <time>2021-08-06T10:22:51Z</time>
      </trkpt>
      <trkpt lat="47.58537" lon="-2.64193">
        <ele>30</ele>
        <time>2021-08-06T10:22:52Z</time>
      </trkpt>
      <trkpt lat="47.58541" lon="-2.64185">
        <ele>30</ele>
        <time>2021-08-06T10:22:53Z</time>
      </trkpt>
      <trkpt lat="47.58546" lon="-2.64176">
        <ele>30</ele>
        <time>2021-08-06T10:22:54Z</time>
      </trkpt>
      <trkpt lat="47.5855" lon="-2.64169">
        <ele>30</ele>
        <time>2021-08-06T10:22:55Z</time>
      </trkpt>
      <trkpt lat="47.58554" lon="-2.64161">
        <ele>30</ele>
        <time>2021-08-06T10:22:56Z</time>
      </trkpt>
      <trkpt lat="47.58558" lon="-2.64153">
        <ele>30</ele>
        <time>2021-08-06T10:22:57Z</time>
      </trkpt>
      <trkpt lat="47.58563" lon="-2.64145">
        <ele>30</ele>
        <time>2021-08-06T10:22:58Z</time>
      </trkpt>
      <trkpt lat="47.58568" lon="-2.64136">
        <ele>30</ele>
        <time>2021-08-06T10:22:59Z</time>
      </trkpt>
      <trkpt lat="47.58572" lon="-2.64128">
        <ele>30</ele>
        <time>2021-08-06T10:23:00Z</time>
      </trkpt>
      <trkpt lat="47.58577" lon="-2.64119">
        <ele>30</ele>
        <time>2021-08-06T10:23:01Z</time>
      </trkpt>
      <trkpt lat="47.58581" lon="-2.64111">
        <ele>30</ele>
        <time>2021-08-06T10:23:02Z</time>
      </trkpt>
      <trkpt lat="47.58586" lon="-2.64103">
        <ele>30</ele>
        <time>2021-08-06T10:23:03Z</time>
      </trkpt>
      <trkpt lat="47.58589" lon="-2.64095">
        <ele>30</ele>
        <time>2021-08-06T10:23:04Z</time>
      </trkpt>
      <trkpt lat="47.58593" lon="-2.64087">
        <ele>30</ele>
        <time>2021-08-06T10:23:05Z</time>
      </trkpt>
      <trkpt lat="47.58597" lon="-2.6408">
        <ele>30</ele>
        <time>2021-08-06T10:23:06Z</time>
      </trkpt>
      <trkpt lat="47.58601" lon="-2.64072">
        <ele>30</ele>
        <time>2021-08-06T10:23:07Z</time>
      </trkpt>
      <trkpt lat="47.58605" lon="-2.64064">
        <ele>29.8</ele>
        <time>2021-08-06T10:23:08Z</time>
      </trkpt>
      <trkpt lat="47.5861" lon="-2.64056">
        <ele>29.8</ele>
        <time>2021-08-06T10:23:09Z</time>
      </trkpt>
      <trkpt lat="47.58614" lon="-2.64048">
        <ele>29.8</ele>
        <time>2021-08-06T10:23:10Z</time>
      </trkpt>
      <trkpt lat="47.58618" lon="-2.64041">
        <ele>29.8</ele>
        <time>2021-08-06T10:23:11Z</time>
      </trkpt>
      <trkpt lat="47.58623" lon="-2.64033">
        <ele>29.8</ele>
        <time>2021-08-06T10:23:12Z</time>
      </trkpt>
      <trkpt lat="47.58627" lon="-2.64025">
        <ele>29.8</ele>
        <time>2021-08-06T10:23:13Z</time>
      </trkpt>
      <trkpt lat="47.58632" lon="-2.64018">
        <ele>29.8</ele>
        <time>2021-08-06T10:23:14Z</time>
      </trkpt>
      <trkpt lat="47.58636" lon="-2.64009">
        <ele>29.6</ele>
        <time>2021-08-06T10:23:15Z</time>
      </trkpt>
      <trkpt lat="47.58641" lon="-2.64001">
        <ele>29.6</ele>
        <time>2021-08-06T10:23:16Z</time>
      </trkpt>
      <trkpt lat="47.58646" lon="-2.63992">
        <ele>29.6</ele>
        <time>2021-08-06T10:23:17Z</time>
      </trkpt>
      <trkpt lat="47.58651" lon="-2.63983">
        <ele>29.6</ele>
        <time>2021-08-06T10:23:18Z</time>
      </trkpt>
      <trkpt lat="47.58656" lon="-2.63974">
        <ele>29.4</ele>
        <time>2021-08-06T10:23:19Z</time>
      </trkpt>
      <trkpt lat="47.58661" lon="-2.63964">
        <ele>29.4</ele>
        <time>2021-08-06T10:23:20Z</time>
      </trkpt>
      <trkpt lat="47.58666" lon="-2.63955">
        <ele>29.4</ele>
        <time>2021-08-06T10:23:21Z</time>
      </trkpt>
      <trkpt lat="47.5867" lon="-2.63946">
        <ele>29.4</ele>
        <time>2021-08-06T10:23:22Z</time>
      </trkpt>
      <trkpt lat="47.58675" lon="-2.63938">
        <ele>29.2</ele>
        <time>2021-08-06T10:23:23Z</time>
      </trkpt>
      <trkpt lat="47.5868" lon="-2.63929">
        <ele>29.2</ele>
        <time>2021-08-06T10:23:24Z</time>
      </trkpt>
      <trkpt lat="47.58685" lon="-2.63921">
        <ele>29.4</ele>
        <time>2021-08-06T10:23:25Z</time>
      </trkpt>
      <trkpt lat="47.5869" lon="-2.63913">
        <ele>29.6</ele>
        <time>2021-08-06T10:23:26Z</time>
      </trkpt>
      <trkpt lat="47.58694" lon="-2.63905">
        <ele>29.6</ele>
        <time>2021-08-06T10:23:27Z</time>
      </trkpt>
      <trkpt lat="47.58699" lon="-2.63897">
        <ele>29.6</ele>
        <time>2021-08-06T10:23:28Z</time>
      </trkpt>
      <trkpt lat="47.58703" lon="-2.63889">
        <ele>29.6</ele>
        <time>2021-08-06T10:23:29Z</time>
      </trkpt>
      <trkpt lat="47.58707" lon="-2.63882">
        <ele>29.6</ele>
        <time>2021-08-06T10:23:30Z</time>
      </trkpt>
      <trkpt lat="47.58711" lon="-2.63874">
        <ele>29.6</ele>
        <time>2021-08-06T10:23:31Z</time>
      </trkpt>
      <trkpt lat="47.58715" lon="-2.63867">
        <ele>29.6</ele>
        <time>2021-08-06T10:23:32Z</time>
      </trkpt>
      <trkpt lat="47.58719" lon="-2.6386">
        <ele>29.6</ele>
        <time>2021-08-06T10:23:33Z</time>
      </trkpt>
      <trkpt lat="47.58722" lon="-2.63854">
        <ele>29.6</ele>
        <time>2021-08-06T10:23:34Z</time>
      </trkpt>
      <trkpt lat="47.58725" lon="-2.63848">
        <ele>29.6</ele>
        <time>2021-08-06T10:23:35Z</time>
      </trkpt>
      <trkpt lat="47.58728" lon="-2.63843">
        <ele>29.8</ele>
        <time>2021-08-06T10:23:36Z</time>
      </trkpt>
      <trkpt lat="47.5873" lon="-2.63839">
        <ele>29.8</ele>
        <time>2021-08-06T10:23:37Z</time>
      </trkpt>
      <trkpt lat="47.58732" lon="-2.63835">
        <ele>29.8</ele>
        <time>2021-08-06T10:23:38Z</time>
      </trkpt>
      <trkpt lat="47.58733" lon="-2.63832">
        <ele>30</ele>
        <time>2021-08-06T10:23:39Z</time>
      </trkpt>
      <trkpt lat="47.58734" lon="-2.6383">
        <ele>30</ele>
        <time>2021-08-06T10:23:40Z</time>
      </trkpt>
      <trkpt lat="47.58735" lon="-2.63828">
        <ele>30.2</ele>
        <time>2021-08-06T10:23:41Z</time>
      </trkpt>
      <trkpt lat="47.58735" lon="-2.63827">
        <ele>30.6</ele>
        <time>2021-08-06T10:23:42Z</time>
      </trkpt>
      <trkpt lat="47.58734" lon="-2.63826">
        <ele>30.8</ele>
        <time>2021-08-06T10:23:43Z</time>
      </trkpt>
      <trkpt lat="47.58733" lon="-2.63825">
        <ele>31</ele>
        <time>2021-08-06T10:23:44Z</time>
      </trkpt>
      <trkpt lat="47.58732" lon="-2.63824">
        <ele>31.2</ele>
        <time>2021-08-06T10:23:45Z</time>
      </trkpt>
      <trkpt lat="47.58731" lon="-2.63823">
        <ele>31.4</ele>
        <time>2021-08-06T10:23:46Z</time>
      </trkpt>
      <trkpt lat="47.5873" lon="-2.63822">
        <ele>31.4</ele>
        <time>2021-08-06T10:23:47Z</time>
      </trkpt>
      <trkpt lat="47.58729" lon="-2.63821">
        <ele>31.4</ele>
        <time>2021-08-06T10:23:48Z</time>
      </trkpt>
      <trkpt lat="47.58727" lon="-2.6382">
        <ele>31.6</ele>
        <time>2021-08-06T10:23:49Z</time>
      </trkpt>
      <trkpt lat="47.58726" lon="-2.6382">
        <ele>31.6</ele>
        <time>2021-08-06T10:23:50Z</time>
      </trkpt>
      <trkpt lat="47.58724" lon="-2.63819">
        <ele>31.6</ele>
        <time>2021-08-06T10:23:51Z</time>
      </trkpt>
      <trkpt lat="47.58723" lon="-2.63819">
        <ele>31.6</ele>
        <time>2021-08-06T10:23:52Z</time>
      </trkpt>
      <trkpt lat="47.58721" lon="-2.63818">
        <ele>31.6</ele>
        <time>2021-08-06T10:23:53Z</time>
      </trkpt>
      <trkpt lat="47.5872" lon="-2.63816">
        <ele>31.6</ele>
        <time>2021-08-06T10:23:54Z</time>
      </trkpt>
      <trkpt lat="47.58718" lon="-2.63814">
        <ele>31.6</ele>
        <time>2021-08-06T10:23:55Z</time>
      </trkpt>
      <trkpt lat="47.58717" lon="-2.63811">
        <ele>31.6</ele>
        <time>2021-08-06T10:23:56Z</time>
      </trkpt>
      <trkpt lat="47.58716" lon="-2.63809">
        <ele>31.6</ele>
        <time>2021-08-06T10:23:57Z</time>
      </trkpt>
      <trkpt lat="47.58715" lon="-2.63807">
        <ele>31.6</ele>
        <time>2021-08-06T10:23:58Z</time>
      </trkpt>
      <trkpt lat="47.58713" lon="-2.63805">
        <ele>31.4</ele>
        <time>2021-08-06T10:23:59Z</time>
      </trkpt>
      <trkpt lat="47.58712" lon="-2.63804">
        <ele>31.4</ele>
        <time>2021-08-06T10:24:00Z</time>
      </trkpt>
      <trkpt lat="47.58712" lon="-2.63802">
        <ele>31.4</ele>
        <time>2021-08-06T10:24:01Z</time>
      </trkpt>
      <trkpt lat="47.58713" lon="-2.63801">
        <ele>31.4</ele>
        <time>2021-08-06T10:24:02Z</time>
      </trkpt>
      <trkpt lat="47.58713" lon="-2.63801">
        <ele>31.4</ele>
        <time>2021-08-06T10:24:03Z</time>
      </trkpt>
      <trkpt lat="47.58714" lon="-2.63802">
        <ele>31.4</ele>
        <time>2021-08-06T10:24:04Z</time>
      </trkpt>
      <trkpt lat="47.58716" lon="-2.63803">
        <ele>31.2</ele>
        <time>2021-08-06T10:24:05Z</time>
      </trkpt>
      <trkpt lat="47.58718" lon="-2.63805">
        <ele>31.2</ele>
        <time>2021-08-06T10:24:06Z</time>
      </trkpt>
      <trkpt lat="47.5872" lon="-2.63806">
        <ele>31.2</ele>
        <time>2021-08-06T10:24:07Z</time>
      </trkpt>
      <trkpt lat="47.58722" lon="-2.63808">
        <ele>31.2</ele>
        <time>2021-08-06T10:24:08Z</time>
      </trkpt>
      <trkpt lat="47.58724" lon="-2.6381">
        <ele>31.2</ele>
        <time>2021-08-06T10:24:09Z</time>
      </trkpt>
      <trkpt lat="47.58726" lon="-2.63811">
        <ele>31.2</ele>
        <time>2021-08-06T10:24:10Z</time>
      </trkpt>
      <trkpt lat="47.58728" lon="-2.63813">
        <ele>31.2</ele>
        <time>2021-08-06T10:24:11Z</time>
      </trkpt>
      <trkpt lat="47.5873" lon="-2.63814">
        <ele>31.2</ele>
        <time>2021-08-06T10:24:12Z</time>
      </trkpt>
      <trkpt lat="47.58733" lon="-2.63815">
        <ele>31.2</ele>
        <time>2021-08-06T10:24:13Z</time>
      </trkpt>
      <trkpt lat="47.58736" lon="-2.63816">
        <ele>31.2</ele>
        <time>2021-08-06T10:24:14Z</time>
      </trkpt>
      <trkpt lat="47.58739" lon="-2.63815">
        <ele>31.2</ele>
        <time>2021-08-06T10:24:15Z</time>
      </trkpt>
      <trkpt lat="47.58741" lon="-2.63812">
        <ele>31.2</ele>
        <time>2021-08-06T10:24:16Z</time>
      </trkpt>
      <trkpt lat="47.58743" lon="-2.63809">
        <ele>31.2</ele>
        <time>2021-08-06T10:24:17Z</time>
      </trkpt>
      <trkpt lat="47.58746" lon="-2.63805">
        <ele>31.2</ele>
        <time>2021-08-06T10:24:18Z</time>
      </trkpt>
      <trkpt lat="47.58748" lon="-2.63801">
        <ele>31.2</ele>
        <time>2021-08-06T10:24:19Z</time>
      </trkpt>
      <trkpt lat="47.5875" lon="-2.63797">
        <ele>31.2</ele>
        <time>2021-08-06T10:24:20Z</time>
      </trkpt>
      <trkpt lat="47.58751" lon="-2.63793">
        <ele>31.2</ele>
        <time>2021-08-06T10:24:21Z</time>
      </trkpt>
      <trkpt lat="47.58753" lon="-2.63788">
        <ele>31.2</ele>
        <time>2021-08-06T10:24:22Z</time>
      </trkpt>
      <trkpt lat="47.58753" lon="-2.63783">
        <ele>31.2</ele>
        <time>2021-08-06T10:24:23Z</time>
      </trkpt>
      <trkpt lat="47.58753" lon="-2.63777">
        <ele>31.2</ele>
        <time>2021-08-06T10:24:24Z</time>
      </trkpt>
      <trkpt lat="47.58752" lon="-2.63772">
        <ele>31.2</ele>
        <time>2021-08-06T10:24:25Z</time>
      </trkpt>
      <trkpt lat="47.5875" lon="-2.63766">
        <ele>31.2</ele>
        <time>2021-08-06T10:24:26Z</time>
      </trkpt>
      <trkpt lat="47.58748" lon="-2.63761">
        <ele>31.2</ele>
        <time>2021-08-06T10:24:27Z</time>
      </trkpt>
      <trkpt lat="47.58745" lon="-2.63756">
        <ele>31.2</ele>
        <time>2021-08-06T10:24:28Z</time>
      </trkpt>
      <trkpt lat="47.58742" lon="-2.63751">
        <ele>31.2</ele>
        <time>2021-08-06T10:24:29Z</time>
      </trkpt>
      <trkpt lat="47.58739" lon="-2.63745">
        <ele>31.2</ele>
        <time>2021-08-06T10:24:30Z</time>
      </trkpt>
      <trkpt lat="47.58736" lon="-2.6374">
        <ele>31.2</ele>
        <time>2021-08-06T10:24:31Z</time>
      </trkpt>
      <trkpt lat="47.58733" lon="-2.63734">
        <ele>31.2</ele>
        <time>2021-08-06T10:24:32Z</time>
      </trkpt>
      <trkpt lat="47.58729" lon="-2.63727">
        <ele>31</ele>
        <time>2021-08-06T10:24:33Z</time>
      </trkpt>
      <trkpt lat="47.58726" lon="-2.63721">
        <ele>30.8</ele>
        <time>2021-08-06T10:24:34Z</time>
      </trkpt>
      <trkpt lat="47.58722" lon="-2.63714">
        <ele>30.6</ele>
        <time>2021-08-06T10:24:35Z</time>
      </trkpt>
      <trkpt lat="47.58718" lon="-2.63707">
        <ele>30.6</ele>
        <time>2021-08-06T10:24:36Z</time>
      </trkpt>
      <trkpt lat="47.58714" lon="-2.637">
        <ele>30.4</ele>
        <time>2021-08-06T10:24:37Z</time>
      </trkpt>
      <trkpt lat="47.5871" lon="-2.63693">
        <ele>30.2</ele>
        <time>2021-08-06T10:24:38Z</time>
      </trkpt>
      <trkpt lat="47.58706" lon="-2.63686">
        <ele>30.2</ele>
        <time>2021-08-06T10:24:39Z</time>
      </trkpt>
      <trkpt lat="47.58702" lon="-2.63678">
        <ele>30</ele>
        <time>2021-08-06T10:24:40Z</time>
      </trkpt>
      <trkpt lat="47.58698" lon="-2.6367">
        <ele>30</ele>
        <time>2021-08-06T10:24:41Z</time>
      </trkpt>
      <trkpt lat="47.58695" lon="-2.63662">
        <ele>29.8</ele>
        <time>2021-08-06T10:24:42Z</time>
      </trkpt>
      <trkpt lat="47.58691" lon="-2.63654">
        <ele>29.6</ele>
        <time>2021-08-06T10:24:43Z</time>
      </trkpt>
      <trkpt lat="47.58687" lon="-2.63646">
        <ele>29.2</ele>
        <time>2021-08-06T10:24:44Z</time>
      </trkpt>
      <trkpt lat="47.58683" lon="-2.63638">
        <ele>29</ele>
        <time>2021-08-06T10:24:45Z</time>
      </trkpt>
      <trkpt lat="47.5868" lon="-2.6363">
        <ele>28.8</ele>
        <time>2021-08-06T10:24:46Z</time>
      </trkpt>
      <trkpt lat="47.58677" lon="-2.63621">
        <ele>28.6</ele>
        <time>2021-08-06T10:24:47Z</time>
      </trkpt>
      <trkpt lat="47.58674" lon="-2.63613">
        <ele>28.4</ele>
        <time>2021-08-06T10:24:48Z</time>
      </trkpt>
      <trkpt lat="47.5867" lon="-2.63605">
        <ele>28.4</ele>
        <time>2021-08-06T10:24:49Z</time>
      </trkpt>
      <trkpt lat="47.58667" lon="-2.63598">
        <ele>28.4</ele>
        <time>2021-08-06T10:24:50Z</time>
      </trkpt>
      <trkpt lat="47.58664" lon="-2.6359">
        <ele>28.2</ele>
        <time>2021-08-06T10:24:51Z</time>
      </trkpt>
      <trkpt lat="47.58661" lon="-2.63582">
        <ele>28.2</ele>
        <time>2021-08-06T10:24:52Z</time>
      </trkpt>
      <trkpt lat="47.58658" lon="-2.63574">
        <ele>28</ele>
        <time>2021-08-06T10:24:53Z</time>
      </trkpt>
      <trkpt lat="47.58655" lon="-2.63566">
        <ele>28</ele>
        <time>2021-08-06T10:24:54Z</time>
      </trkpt>
      <trkpt lat="47.58652" lon="-2.63557">
        <ele>28</ele>
        <time>2021-08-06T10:24:55Z</time>
      </trkpt>
      <trkpt lat="47.58649" lon="-2.63549">
        <ele>27.8</ele>
        <time>2021-08-06T10:24:56Z</time>
      </trkpt>
      <trkpt lat="47.58647" lon="-2.63542">
        <ele>27.8</ele>
        <time>2021-08-06T10:24:57Z</time>
      </trkpt>
      <trkpt lat="47.58644" lon="-2.63534">
        <ele>27.6</ele>
        <time>2021-08-06T10:24:58Z</time>
      </trkpt>
      <trkpt lat="47.58641" lon="-2.63526">
        <ele>27.6</ele>
        <time>2021-08-06T10:24:59Z</time>
      </trkpt>
      <trkpt lat="47.58638" lon="-2.63517">
        <ele>27.6</ele>
        <time>2021-08-06T10:25:00Z</time>
      </trkpt>
      <trkpt lat="47.58635" lon="-2.63509">
        <ele>27.4</ele>
        <time>2021-08-06T10:25:01Z</time>
      </trkpt>
      <trkpt lat="47.58632" lon="-2.63501">
        <ele>27.4</ele>
        <time>2021-08-06T10:25:02Z</time>
      </trkpt>
      <trkpt lat="47.58628" lon="-2.63493">
        <ele>27.4</ele>
        <time>2021-08-06T10:25:03Z</time>
      </trkpt>
      <trkpt lat="47.58625" lon="-2.63485">
        <ele>27.4</ele>
        <time>2021-08-06T10:25:04Z</time>
      </trkpt>
      <trkpt lat="47.58622" lon="-2.63478">
        <ele>27.4</ele>
        <time>2021-08-06T10:25:05Z</time>
      </trkpt>
      <trkpt lat="47.58619" lon="-2.6347">
        <ele>27.4</ele>
        <time>2021-08-06T10:25:06Z</time>
      </trkpt>
      <trkpt lat="47.58616" lon="-2.63462">
        <ele>27.2</ele>
        <time>2021-08-06T10:25:07Z</time>
      </trkpt>
      <trkpt lat="47.58613" lon="-2.63454">
        <ele>27.2</ele>
        <time>2021-08-06T10:25:08Z</time>
      </trkpt>
      <trkpt lat="47.5861" lon="-2.63446">
        <ele>27.2</ele>
        <time>2021-08-06T10:25:09Z</time>
      </trkpt>
      <trkpt lat="47.58607" lon="-2.63439">
        <ele>27</ele>
        <time>2021-08-06T10:25:10Z</time>
      </trkpt>
      <trkpt lat="47.58604" lon="-2.63431">
        <ele>26.8</ele>
        <time>2021-08-06T10:25:11Z</time>
      </trkpt>
      <trkpt lat="47.58601" lon="-2.63424">
        <ele>26.6</ele>
        <time>2021-08-06T10:25:12Z</time>
      </trkpt>
      <trkpt lat="47.58597" lon="-2.63416">
        <ele>26.6</ele>
        <time>2021-08-06T10:25:13Z</time>
      </trkpt>
      <trkpt lat="47.58594" lon="-2.63409">
        <ele>26.4</ele>
        <time>2021-08-06T10:25:14Z</time>
      </trkpt>
      <trkpt lat="47.58591" lon="-2.63401">
        <ele>26.2</ele>
        <time>2021-08-06T10:25:15Z</time>
      </trkpt>
      <trkpt lat="47.58588" lon="-2.63393">
        <ele>26</ele>
        <time>2021-08-06T10:25:16Z</time>
      </trkpt>
      <trkpt lat="47.58585" lon="-2.63385">
        <ele>26</ele>
        <time>2021-08-06T10:25:17Z</time>
      </trkpt>
      <trkpt lat="47.58582" lon="-2.63377">
        <ele>25.8</ele>
        <time>2021-08-06T10:25:18Z</time>
      </trkpt>
      <trkpt lat="47.58579" lon="-2.63369">
        <ele>25.8</ele>
        <time>2021-08-06T10:25:19Z</time>
      </trkpt>
      <trkpt lat="47.58577" lon="-2.63361">
        <ele>25.8</ele>
        <time>2021-08-06T10:25:20Z</time>
      </trkpt>
      <trkpt lat="47.58574" lon="-2.63353">
        <ele>25.8</ele>
        <time>2021-08-06T10:25:21Z</time>
      </trkpt>
      <trkpt lat="47.58571" lon="-2.63345">
        <ele>25.8</ele>
        <time>2021-08-06T10:25:22Z</time>
      </trkpt>
      <trkpt lat="47.58568" lon="-2.63338">
        <ele>25.8</ele>
        <time>2021-08-06T10:25:23Z</time>
      </trkpt>
      <trkpt lat="47.58565" lon="-2.63331">
        <ele>25.8</ele>
        <time>2021-08-06T10:25:24Z</time>
      </trkpt>
      <trkpt lat="47.58563" lon="-2.63326">
        <ele>25.6</ele>
        <time>2021-08-06T10:25:25Z</time>
      </trkpt>
      <trkpt lat="47.58562" lon="-2.63322">
        <ele>25.6</ele>
        <time>2021-08-06T10:25:26Z</time>
      </trkpt>
      <trkpt lat="47.5856" lon="-2.63319">
        <ele>25.6</ele>
        <time>2021-08-06T10:25:27Z</time>
      </trkpt>
      <trkpt lat="47.58559" lon="-2.63317">
        <ele>25.6</ele>
        <time>2021-08-06T10:25:28Z</time>
      </trkpt>
      <trkpt lat="47.58557" lon="-2.63317">
        <ele>25.6</ele>
        <time>2021-08-06T10:25:29Z</time>
      </trkpt>
      <trkpt lat="47.58556" lon="-2.63317">
        <ele>25.6</ele>
        <time>2021-08-06T10:25:30Z</time>
      </trkpt>
      <trkpt lat="47.58554" lon="-2.63317">
        <ele>25.6</ele>
        <time>2021-08-06T10:25:31Z</time>
      </trkpt>
      <trkpt lat="47.58553" lon="-2.63316">
        <ele>25.6</ele>
        <time>2021-08-06T10:25:32Z</time>
      </trkpt>
      <trkpt lat="47.58552" lon="-2.63313">
        <ele>25.6</ele>
        <time>2021-08-06T10:25:33Z</time>
      </trkpt>
      <trkpt lat="47.58553" lon="-2.6331">
        <ele>25.6</ele>
        <time>2021-08-06T10:25:34Z</time>
      </trkpt>
      <trkpt lat="47.58555" lon="-2.63308">
        <ele>25.6</ele>
        <time>2021-08-06T10:25:35Z</time>
      </trkpt>
      <trkpt lat="47.58556" lon="-2.63308">
        <ele>25.6</ele>
        <time>2021-08-06T10:25:36Z</time>
      </trkpt>
      <trkpt lat="47.58558" lon="-2.6331">
        <ele>25.6</ele>
        <time>2021-08-06T10:25:37Z</time>
      </trkpt>
      <trkpt lat="47.5856" lon="-2.63312">
        <ele>25.6</ele>
        <time>2021-08-06T10:25:38Z</time>
      </trkpt>
      <trkpt lat="47.58562" lon="-2.63315">
        <ele>25.6</ele>
        <time>2021-08-06T10:25:39Z</time>
      </trkpt>
      <trkpt lat="47.58563" lon="-2.63318">
        <ele>25.6</ele>
        <time>2021-08-06T10:25:40Z</time>
      </trkpt>
      <trkpt lat="47.58565" lon="-2.63321">
        <ele>25.6</ele>
        <time>2021-08-06T10:25:41Z</time>
      </trkpt>
      <trkpt lat="47.58566" lon="-2.63323">
        <ele>25.6</ele>
        <time>2021-08-06T10:25:42Z</time>
      </trkpt>
      <trkpt lat="47.58568" lon="-2.63322">
        <ele>25.6</ele>
        <time>2021-08-06T10:25:43Z</time>
      </trkpt>
      <trkpt lat="47.58569" lon="-2.63321">
        <ele>25.6</ele>
        <time>2021-08-06T10:25:44Z</time>
      </trkpt>
      <trkpt lat="47.5857" lon="-2.63319">
        <ele>25.6</ele>
        <time>2021-08-06T10:25:45Z</time>
      </trkpt>
      <trkpt lat="47.58572" lon="-2.63317">
        <ele>25.6</ele>
        <time>2021-08-06T10:25:46Z</time>
      </trkpt>
      <trkpt lat="47.58574" lon="-2.63316">
        <ele>25.6</ele>
        <time>2021-08-06T10:25:47Z</time>
      </trkpt>
      <trkpt lat="47.58576" lon="-2.63314">
        <ele>25.6</ele>
        <time>2021-08-06T10:25:48Z</time>
      </trkpt>
      <trkpt lat="47.58578" lon="-2.63312">
        <ele>25.8</ele>
        <time>2021-08-06T10:25:49Z</time>
      </trkpt>
      <trkpt lat="47.5858" lon="-2.63311">
        <ele>25.8</ele>
        <time>2021-08-06T10:25:50Z</time>
      </trkpt>
      <trkpt lat="47.58581" lon="-2.63309">
        <ele>25.8</ele>
        <time>2021-08-06T10:25:51Z</time>
      </trkpt>
      <trkpt lat="47.58583" lon="-2.63308">
        <ele>25.8</ele>
        <time>2021-08-06T10:25:52Z</time>
      </trkpt>
      <trkpt lat="47.58584" lon="-2.63305">
        <ele>26</ele>
        <time>2021-08-06T10:25:53Z</time>
      </trkpt>
      <trkpt lat="47.58584" lon="-2.63303">
        <ele>26</ele>
        <time>2021-08-06T10:25:54Z</time>
      </trkpt>
      <trkpt lat="47.58585" lon="-2.633">
        <ele>26</ele>
        <time>2021-08-06T10:25:55Z</time>
      </trkpt>
      <trkpt lat="47.58585" lon="-2.63297">
        <ele>26.2</ele>
        <time>2021-08-06T10:25:56Z</time>
      </trkpt>
      <trkpt lat="47.58585" lon="-2.63293">
        <ele>26.2</ele>
        <time>2021-08-06T10:25:57Z</time>
      </trkpt>
      <trkpt lat="47.58584" lon="-2.63291">
        <ele>26.2</ele>
        <time>2021-08-06T10:25:58Z</time>
      </trkpt>
      <trkpt lat="47.58582" lon="-2.63288">
        <ele>26.2</ele>
        <time>2021-08-06T10:25:59Z</time>
      </trkpt>
      <trkpt lat="47.58581" lon="-2.63286">
        <ele>26.4</ele>
        <time>2021-08-06T10:26:00Z</time>
      </trkpt>
      <trkpt lat="47.5858" lon="-2.63284">
        <ele>26.4</ele>
        <time>2021-08-06T10:26:01Z</time>
      </trkpt>
      <trkpt lat="47.58579" lon="-2.63282">
        <ele>26.4</ele>
        <time>2021-08-06T10:26:02Z</time>
      </trkpt>
      <trkpt lat="47.58578" lon="-2.63279">
        <ele>26.4</ele>
        <time>2021-08-06T10:26:03Z</time>
      </trkpt>
      <trkpt lat="47.58578" lon="-2.63276">
        <ele>26.4</ele>
        <time>2021-08-06T10:26:04Z</time>
      </trkpt>
      <trkpt lat="47.58577" lon="-2.63273">
        <ele>26.4</ele>
        <time>2021-08-06T10:26:05Z</time>
      </trkpt>
      <trkpt lat="47.58577" lon="-2.6327">
        <ele>26.6</ele>
        <time>2021-08-06T10:26:06Z</time>
      </trkpt>
      <trkpt lat="47.58576" lon="-2.63267">
        <ele>26.6</ele>
        <time>2021-08-06T10:26:07Z</time>
      </trkpt>
      <trkpt lat="47.58576" lon="-2.63264">
        <ele>26.6</ele>
        <time>2021-08-06T10:26:08Z</time>
      </trkpt>
      <trkpt lat="47.58576" lon="-2.6326">
        <ele>26.6</ele>
        <time>2021-08-06T10:26:09Z</time>
      </trkpt>
      <trkpt lat="47.58576" lon="-2.63257">
        <ele>26.6</ele>
        <time>2021-08-06T10:26:10Z</time>
      </trkpt>
      <trkpt lat="47.58576" lon="-2.63254">
        <ele>26.6</ele>
        <time>2021-08-06T10:26:11Z</time>
      </trkpt>
      <trkpt lat="47.58576" lon="-2.63251">
        <ele>26.6</ele>
        <time>2021-08-06T10:26:12Z</time>
      </trkpt>
      <trkpt lat="47.58576" lon="-2.63248">
        <ele>26.6</ele>
        <time>2021-08-06T10:26:13Z</time>
      </trkpt>
      <trkpt lat="47.58575" lon="-2.63244">
        <ele>26.6</ele>
        <time>2021-08-06T10:26:14Z</time>
      </trkpt>
      <trkpt lat="47.58575" lon="-2.63241">
        <ele>26.6</ele>
        <time>2021-08-06T10:26:15Z</time>
      </trkpt>
      <trkpt lat="47.58575" lon="-2.63237">
        <ele>26.6</ele>
        <time>2021-08-06T10:26:16Z</time>
      </trkpt>
      <trkpt lat="47.58575" lon="-2.63233">
        <ele>26.6</ele>
        <time>2021-08-06T10:26:17Z</time>
      </trkpt>
      <trkpt lat="47.58575" lon="-2.63229">
        <ele>26.6</ele>
        <time>2021-08-06T10:26:18Z</time>
      </trkpt>
      <trkpt lat="47.58575" lon="-2.63225">
        <ele>26.6</ele>
        <time>2021-08-06T10:26:19Z</time>
      </trkpt>
      <trkpt lat="47.58574" lon="-2.63221">
        <ele>26.6</ele>
        <time>2021-08-06T10:26:20Z</time>
      </trkpt>
      <trkpt lat="47.58574" lon="-2.63216">
        <ele>26.4</ele>
        <time>2021-08-06T10:26:21Z</time>
      </trkpt>
      <trkpt lat="47.58574" lon="-2.63211">
        <ele>26.4</ele>
        <time>2021-08-06T10:26:22Z</time>
      </trkpt>
      <trkpt lat="47.58574" lon="-2.63205">
        <ele>26.4</ele>
        <time>2021-08-06T10:26:23Z</time>
      </trkpt>
      <trkpt lat="47.58573" lon="-2.632">
        <ele>26.4</ele>
        <time>2021-08-06T10:26:24Z</time>
      </trkpt>
      <trkpt lat="47.58573" lon="-2.63194">
        <ele>26.4</ele>
        <time>2021-08-06T10:26:25Z</time>
      </trkpt>
      <trkpt lat="47.58573" lon="-2.63188">
        <ele>26.4</ele>
        <time>2021-08-06T10:26:26Z</time>
      </trkpt>
      <trkpt lat="47.58573" lon="-2.63182">
        <ele>26.4</ele>
        <time>2021-08-06T10:26:27Z</time>
      </trkpt>
      <trkpt lat="47.58573" lon="-2.63175">
        <ele>26.4</ele>
        <time>2021-08-06T10:26:28Z</time>
      </trkpt>
      <trkpt lat="47.58573" lon="-2.63169">
        <ele>26.4</ele>
        <time>2021-08-06T10:26:29Z</time>
      </trkpt>
      <trkpt lat="47.58573" lon="-2.63162">
        <ele>26.4</ele>
        <time>2021-08-06T10:26:30Z</time>
      </trkpt>
      <trkpt lat="47.58574" lon="-2.63155">
        <ele>26.4</ele>
        <time>2021-08-06T10:26:31Z</time>
      </trkpt>
      <trkpt lat="47.58574" lon="-2.63148">
        <ele>26.4</ele>
        <time>2021-08-06T10:26:32Z</time>
      </trkpt>
      <trkpt lat="47.58575" lon="-2.63141">
        <ele>26.4</ele>
        <time>2021-08-06T10:26:33Z</time>
      </trkpt>
      <trkpt lat="47.58576" lon="-2.63135">
        <ele>26.4</ele>
        <time>2021-08-06T10:26:34Z</time>
      </trkpt>
      <trkpt lat="47.58578" lon="-2.63128">
        <ele>26.4</ele>
        <time>2021-08-06T10:26:35Z</time>
      </trkpt>
      <trkpt lat="47.58579" lon="-2.63121">
        <ele>26.2</ele>
        <time>2021-08-06T10:26:36Z</time>
      </trkpt>
      <trkpt lat="47.5858" lon="-2.63114">
        <ele>26.2</ele>
        <time>2021-08-06T10:26:37Z</time>
      </trkpt>
      <trkpt lat="47.58582" lon="-2.63107">
        <ele>26.4</ele>
        <time>2021-08-06T10:26:38Z</time>
      </trkpt>
      <trkpt lat="47.58583" lon="-2.631">
        <ele>26.4</ele>
        <time>2021-08-06T10:26:39Z</time>
      </trkpt>
      <trkpt lat="47.58584" lon="-2.63093">
        <ele>26.4</ele>
        <time>2021-08-06T10:26:40Z</time>
      </trkpt>
      <trkpt lat="47.58586" lon="-2.63087">
        <ele>26.4</ele>
        <time>2021-08-06T10:26:41Z</time>
      </trkpt>
      <trkpt lat="47.58587" lon="-2.63081">
        <ele>26.4</ele>
        <time>2021-08-06T10:26:42Z</time>
      </trkpt>
      <trkpt lat="47.58588" lon="-2.63076">
        <ele>26.4</ele>
        <time>2021-08-06T10:26:43Z</time>
      </trkpt>
      <trkpt lat="47.5859" lon="-2.63071">
        <ele>26.4</ele>
        <time>2021-08-06T10:26:44Z</time>
      </trkpt>
      <trkpt lat="47.58592" lon="-2.63068">
        <ele>26.6</ele>
        <time>2021-08-06T10:26:45Z</time>
      </trkpt>
      <trkpt lat="47.58594" lon="-2.63066">
        <ele>26.6</ele>
        <time>2021-08-06T10:26:46Z</time>
      </trkpt>
      <trkpt lat="47.58597" lon="-2.63065">
        <ele>26.6</ele>
        <time>2021-08-06T10:26:47Z</time>
      </trkpt>
      <trkpt lat="47.58599" lon="-2.63065">
        <ele>26.6</ele>
        <time>2021-08-06T10:26:48Z</time>
      </trkpt>
      <trkpt lat="47.58602" lon="-2.63066">
        <ele>26.6</ele>
        <time>2021-08-06T10:26:49Z</time>
      </trkpt>
      <trkpt lat="47.58605" lon="-2.63067">
        <ele>26.6</ele>
        <time>2021-08-06T10:26:50Z</time>
      </trkpt>
      <trkpt lat="47.58608" lon="-2.63068">
        <ele>26.6</ele>
        <time>2021-08-06T10:26:51Z</time>
      </trkpt>
      <trkpt lat="47.58611" lon="-2.6307">
        <ele>26.6</ele>
        <time>2021-08-06T10:26:52Z</time>
      </trkpt>
      <trkpt lat="47.58614" lon="-2.63071">
        <ele>26.6</ele>
        <time>2021-08-06T10:26:53Z</time>
      </trkpt>
      <trkpt lat="47.58617" lon="-2.63073">
        <ele>26.6</ele>
        <time>2021-08-06T10:26:54Z</time>
      </trkpt>
      <trkpt lat="47.58619" lon="-2.63074">
        <ele>26.6</ele>
        <time>2021-08-06T10:26:55Z</time>
      </trkpt>
      <trkpt lat="47.58622" lon="-2.63074">
        <ele>26.6</ele>
        <time>2021-08-06T10:26:56Z</time>
      </trkpt>
      <trkpt lat="47.58625" lon="-2.63074">
        <ele>26.6</ele>
        <time>2021-08-06T10:26:57Z</time>
      </trkpt>
      <trkpt lat="47.58627" lon="-2.63073">
        <ele>26.6</ele>
        <time>2021-08-06T10:26:58Z</time>
      </trkpt>
      <trkpt lat="47.58629" lon="-2.63071">
        <ele>26.6</ele>
        <time>2021-08-06T10:26:59Z</time>
      </trkpt>
      <trkpt lat="47.5863" lon="-2.63068">
        <ele>26.6</ele>
        <time>2021-08-06T10:27:00Z</time>
      </trkpt>
      <trkpt lat="47.58632" lon="-2.63066">
        <ele>26.6</ele>
        <time>2021-08-06T10:27:01Z</time>
      </trkpt>
      <trkpt lat="47.58634" lon="-2.63064">
        <ele>26.6</ele>
        <time>2021-08-06T10:27:02Z</time>
      </trkpt>
      <trkpt lat="47.58635" lon="-2.63062">
        <ele>26.6</ele>
        <time>2021-08-06T10:27:03Z</time>
      </trkpt>
      <trkpt lat="47.58636" lon="-2.63059">
        <ele>26.8</ele>
        <time>2021-08-06T10:27:04Z</time>
      </trkpt>
      <trkpt lat="47.58638" lon="-2.63057">
        <ele>27</ele>
        <time>2021-08-06T10:27:05Z</time>
      </trkpt>
      <trkpt lat="47.58639" lon="-2.63054">
        <ele>27.4</ele>
        <time>2021-08-06T10:27:06Z</time>
      </trkpt>
      <trkpt lat="47.5864" lon="-2.63051">
        <ele>27.8</ele>
        <time>2021-08-06T10:27:07Z</time>
      </trkpt>
      <trkpt lat="47.58641" lon="-2.63047">
        <ele>28</ele>
        <time>2021-08-06T10:27:08Z</time>
      </trkpt>
      <trkpt lat="47.58642" lon="-2.63044">
        <ele>28</ele>
        <time>2021-08-06T10:27:09Z</time>
      </trkpt>
      <trkpt lat="47.58643" lon="-2.6304">
        <ele>28.2</ele>
        <time>2021-08-06T10:27:10Z</time>
      </trkpt>
      <trkpt lat="47.58644" lon="-2.63037">
        <ele>28.2</ele>
        <time>2021-08-06T10:27:11Z</time>
      </trkpt>
      <trkpt lat="47.58644" lon="-2.63033">
        <ele>28.2</ele>
        <time>2021-08-06T10:27:12Z</time>
      </trkpt>
      <trkpt lat="47.58644" lon="-2.63029">
        <ele>28.2</ele>
        <time>2021-08-06T10:27:13Z</time>
      </trkpt>
      <trkpt lat="47.58643" lon="-2.63024">
        <ele>28.2</ele>
        <time>2021-08-06T10:27:14Z</time>
      </trkpt>
      <trkpt lat="47.58641" lon="-2.63019">
        <ele>28.2</ele>
        <time>2021-08-06T10:27:15Z</time>
      </trkpt>
      <trkpt lat="47.58639" lon="-2.63015">
        <ele>28.2</ele>
        <time>2021-08-06T10:27:16Z</time>
      </trkpt>
      <trkpt lat="47.58637" lon="-2.63009">
        <ele>28.2</ele>
        <time>2021-08-06T10:27:17Z</time>
      </trkpt>
      <trkpt lat="47.58635" lon="-2.63004">
        <ele>28</ele>
        <time>2021-08-06T10:27:18Z</time>
      </trkpt>
      <trkpt lat="47.58634" lon="-2.62998">
        <ele>28</ele>
        <time>2021-08-06T10:27:19Z</time>
      </trkpt>
      <trkpt lat="47.58633" lon="-2.62992">
        <ele>27.8</ele>
        <time>2021-08-06T10:27:20Z</time>
      </trkpt>
      <trkpt lat="47.58633" lon="-2.62986">
        <ele>27.8</ele>
        <time>2021-08-06T10:27:21Z</time>
      </trkpt>
      <trkpt lat="47.58634" lon="-2.6298">
        <ele>27.6</ele>
        <time>2021-08-06T10:27:22Z</time>
      </trkpt>
      <trkpt lat="47.58634" lon="-2.62974">
        <ele>27.4</ele>
        <time>2021-08-06T10:27:23Z</time>
      </trkpt>
      <trkpt lat="47.58635" lon="-2.62968">
        <ele>27.2</ele>
        <time>2021-08-06T10:27:24Z</time>
      </trkpt>
      <trkpt lat="47.58636" lon="-2.62962">
        <ele>27.2</ele>
        <time>2021-08-06T10:27:25Z</time>
      </trkpt>
      <trkpt lat="47.58637" lon="-2.62955">
        <ele>27.2</ele>
        <time>2021-08-06T10:27:26Z</time>
      </trkpt>
      <trkpt lat="47.58638" lon="-2.62948">
        <ele>27</ele>
        <time>2021-08-06T10:27:27Z</time>
      </trkpt>
      <trkpt lat="47.5864" lon="-2.62942">
        <ele>27</ele>
        <time>2021-08-06T10:27:28Z</time>
      </trkpt>
      <trkpt lat="47.58642" lon="-2.62936">
        <ele>26.8</ele>
        <time>2021-08-06T10:27:29Z</time>
      </trkpt>
      <trkpt lat="47.58644" lon="-2.6293">
        <ele>26.8</ele>
        <time>2021-08-06T10:27:30Z</time>
      </trkpt>
      <trkpt lat="47.58646" lon="-2.62924">
        <ele>26.8</ele>
        <time>2021-08-06T10:27:31Z</time>
      </trkpt>
      <trkpt lat="47.58648" lon="-2.62917">
        <ele>26.6</ele>
        <time>2021-08-06T10:27:32Z</time>
      </trkpt>
      <trkpt lat="47.5865" lon="-2.62911">
        <ele>26.6</ele>
        <time>2021-08-06T10:27:33Z</time>
      </trkpt>
      <trkpt lat="47.58651" lon="-2.62904">
        <ele>26.6</ele>
        <time>2021-08-06T10:27:34Z</time>
      </trkpt>
      <trkpt lat="47.58652" lon="-2.62897">
        <ele>26.6</ele>
        <time>2021-08-06T10:27:35Z</time>
      </trkpt>
      <trkpt lat="47.58654" lon="-2.62891">
        <ele>26.6</ele>
        <time>2021-08-06T10:27:36Z</time>
      </trkpt>
      <trkpt lat="47.58656" lon="-2.62885">
        <ele>26.4</ele>
        <time>2021-08-06T10:27:37Z</time>
      </trkpt>
      <trkpt lat="47.58658" lon="-2.62879">
        <ele>26.4</ele>
        <time>2021-08-06T10:27:38Z</time>
      </trkpt>
      <trkpt lat="47.5866" lon="-2.62872">
        <ele>26.4</ele>
        <time>2021-08-06T10:27:39Z</time>
      </trkpt>
      <trkpt lat="47.58661" lon="-2.62866">
        <ele>26.4</ele>
        <time>2021-08-06T10:27:40Z</time>
      </trkpt>
      <trkpt lat="47.58663" lon="-2.62861">
        <ele>26.2</ele>
        <time>2021-08-06T10:27:41Z</time>
      </trkpt>
      <trkpt lat="47.58664" lon="-2.62856">
        <ele>26.2</ele>
        <time>2021-08-06T10:27:42Z</time>
      </trkpt>
      <trkpt lat="47.58665" lon="-2.62852">
        <ele>26.2</ele>
        <time>2021-08-06T10:27:43Z</time>
      </trkpt>
      <trkpt lat="47.58666" lon="-2.62847">
        <ele>26.2</ele>
        <time>2021-08-06T10:27:44Z</time>
      </trkpt>
      <trkpt lat="47.58666" lon="-2.62843">
        <ele>26</ele>
        <time>2021-08-06T10:27:45Z</time>
      </trkpt>
      <trkpt lat="47.58665" lon="-2.62839">
        <ele>26</ele>
        <time>2021-08-06T10:27:46Z</time>
      </trkpt>
      <trkpt lat="47.58664" lon="-2.62836">
        <ele>26</ele>
        <time>2021-08-06T10:27:47Z</time>
      </trkpt>
      <trkpt lat="47.58663" lon="-2.62834">
        <ele>26</ele>
        <time>2021-08-06T10:27:48Z</time>
      </trkpt>
      <trkpt lat="47.58663" lon="-2.62832">
        <ele>26</ele>
        <time>2021-08-06T10:27:49Z</time>
      </trkpt>
      <trkpt lat="47.58662" lon="-2.6283">
        <ele>26</ele>
        <time>2021-08-06T10:27:50Z</time>
      </trkpt>
      <trkpt lat="47.58662" lon="-2.62828">
        <ele>26</ele>
        <time>2021-08-06T10:27:51Z</time>
      </trkpt>
      <trkpt lat="47.58662" lon="-2.62826">
        <ele>26</ele>
        <time>2021-08-06T10:27:52Z</time>
      </trkpt>
      <trkpt lat="47.58661" lon="-2.62824">
        <ele>26</ele>
        <time>2021-08-06T10:27:53Z</time>
      </trkpt>
      <trkpt lat="47.58661" lon="-2.62821">
        <ele>26</ele>
        <time>2021-08-06T10:27:54Z</time>
      </trkpt>
      <trkpt lat="47.58662" lon="-2.62818">
        <ele>26</ele>
        <time>2021-08-06T10:27:55Z</time>
      </trkpt>
      <trkpt lat="47.58664" lon="-2.62816">
        <ele>26</ele>
        <time>2021-08-06T10:27:56Z</time>
      </trkpt>
      <trkpt lat="47.58666" lon="-2.62814">
        <ele>26</ele>
        <time>2021-08-06T10:27:57Z</time>
      </trkpt>
      <trkpt lat="47.58668" lon="-2.62813">
        <ele>26</ele>
        <time>2021-08-06T10:27:58Z</time>
      </trkpt>
      <trkpt lat="47.58671" lon="-2.62812">
        <ele>26</ele>
        <time>2021-08-06T10:27:59Z</time>
      </trkpt>
      <trkpt lat="47.58673" lon="-2.62811">
        <ele>26</ele>
        <time>2021-08-06T10:28:00Z</time>
      </trkpt>
      <trkpt lat="47.58676" lon="-2.62809">
        <ele>26</ele>
        <time>2021-08-06T10:28:01Z</time>
      </trkpt>
      <trkpt lat="47.58679" lon="-2.62808">
        <ele>26</ele>
        <time>2021-08-06T10:28:02Z</time>
      </trkpt>
      <trkpt lat="47.58682" lon="-2.62807">
        <ele>26</ele>
        <time>2021-08-06T10:28:03Z</time>
      </trkpt>
      <trkpt lat="47.58685" lon="-2.62806">
        <ele>26</ele>
        <time>2021-08-06T10:28:04Z</time>
      </trkpt>
      <trkpt lat="47.58689" lon="-2.62804">
        <ele>26</ele>
        <time>2021-08-06T10:28:05Z</time>
      </trkpt>
      <trkpt lat="47.58692" lon="-2.62802">
        <ele>26</ele>
        <time>2021-08-06T10:28:06Z</time>
      </trkpt>
      <trkpt lat="47.58696" lon="-2.62801">
        <ele>26</ele>
        <time>2021-08-06T10:28:07Z</time>
      </trkpt>
      <trkpt lat="47.587" lon="-2.62799">
        <ele>26</ele>
        <time>2021-08-06T10:28:08Z</time>
      </trkpt>
      <trkpt lat="47.58704" lon="-2.62798">
        <ele>26</ele>
        <time>2021-08-06T10:28:09Z</time>
      </trkpt>
      <trkpt lat="47.58708" lon="-2.62796">
        <ele>26</ele>
        <time>2021-08-06T10:28:10Z</time>
      </trkpt>
      <trkpt lat="47.58712" lon="-2.62794">
        <ele>26</ele>
        <time>2021-08-06T10:28:11Z</time>
      </trkpt>
      <trkpt lat="47.58715" lon="-2.62793">
        <ele>26</ele>
        <time>2021-08-06T10:28:12Z</time>
      </trkpt>
      <trkpt lat="47.5872" lon="-2.62791">
        <ele>26</ele>
        <time>2021-08-06T10:28:13Z</time>
      </trkpt>
      <trkpt lat="47.58724" lon="-2.6279">
        <ele>26</ele>
        <time>2021-08-06T10:28:14Z</time>
      </trkpt>
      <trkpt lat="47.58728" lon="-2.62788">
        <ele>26</ele>
        <time>2021-08-06T10:28:15Z</time>
      </trkpt>
      <trkpt lat="47.58732" lon="-2.62786">
        <ele>26.2</ele>
        <time>2021-08-06T10:28:16Z</time>
      </trkpt>
      <trkpt lat="47.58736" lon="-2.62784">
        <ele>26.2</ele>
        <time>2021-08-06T10:28:17Z</time>
      </trkpt>
      <trkpt lat="47.58741" lon="-2.62783">
        <ele>26.2</ele>
        <time>2021-08-06T10:28:18Z</time>
      </trkpt>
      <trkpt lat="47.58745" lon="-2.62781">
        <ele>26.4</ele>
        <time>2021-08-06T10:28:19Z</time>
      </trkpt>
      <trkpt lat="47.58749" lon="-2.62779">
        <ele>26.6</ele>
        <time>2021-08-06T10:28:20Z</time>
      </trkpt>
      <trkpt lat="47.58753" lon="-2.62777">
        <ele>26.6</ele>
        <time>2021-08-06T10:28:21Z</time>
      </trkpt>
      <trkpt lat="47.58758" lon="-2.62776">
        <ele>26.8</ele>
        <time>2021-08-06T10:28:22Z</time>
      </trkpt>
      <trkpt lat="47.58762" lon="-2.62774">
        <ele>27</ele>
        <time>2021-08-06T10:28:23Z</time>
      </trkpt>
      <trkpt lat="47.58766" lon="-2.62772">
        <ele>27</ele>
        <time>2021-08-06T10:28:24Z</time>
      </trkpt>
      <trkpt lat="47.5877" lon="-2.62771">
        <ele>27</ele>
        <time>2021-08-06T10:28:25Z</time>
      </trkpt>
      <trkpt lat="47.58775" lon="-2.62769">
        <ele>27</ele>
        <time>2021-08-06T10:28:26Z</time>
      </trkpt>
      <trkpt lat="47.58779" lon="-2.62768">
        <ele>27.2</ele>
        <time>2021-08-06T10:28:27Z</time>
      </trkpt>
      <trkpt lat="47.58783" lon="-2.62766">
        <ele>27.2</ele>
        <time>2021-08-06T10:28:28Z</time>
      </trkpt>
      <trkpt lat="47.58787" lon="-2.62764">
        <ele>27.4</ele>
        <time>2021-08-06T10:28:29Z</time>
      </trkpt>
      <trkpt lat="47.5879" lon="-2.62761">
        <ele>27.6</ele>
        <time>2021-08-06T10:28:30Z</time>
      </trkpt>
      <trkpt lat="47.58792" lon="-2.62757">
        <ele>27.6</ele>
        <time>2021-08-06T10:28:31Z</time>
      </trkpt>
      <trkpt lat="47.58794" lon="-2.62754">
        <ele>27.6</ele>
        <time>2021-08-06T10:28:32Z</time>
      </trkpt>
      <trkpt lat="47.58796" lon="-2.62752">
        <ele>27.8</ele>
        <time>2021-08-06T10:28:33Z</time>
      </trkpt>
      <trkpt lat="47.58798" lon="-2.62753">
        <ele>28</ele>
        <time>2021-08-06T10:28:34Z</time>
      </trkpt>
      <trkpt lat="47.58801" lon="-2.62754">
        <ele>28.2</ele>
        <time>2021-08-06T10:28:35Z</time>
      </trkpt>
      <trkpt lat="47.58804" lon="-2.62755">
        <ele>28.6</ele>
        <time>2021-08-06T10:28:36Z</time>
      </trkpt>
      <trkpt lat="47.58807" lon="-2.62754">
        <ele>28.6</ele>
        <time>2021-08-06T10:28:37Z</time>
      </trkpt>
      <trkpt lat="47.5881" lon="-2.62753">
        <ele>28.8</ele>
        <time>2021-08-06T10:28:38Z</time>
      </trkpt>
      <trkpt lat="47.58813" lon="-2.62752">
        <ele>28.8</ele>
        <time>2021-08-06T10:28:39Z</time>
      </trkpt>
      <trkpt lat="47.58816" lon="-2.62751">
        <ele>28.8</ele>
        <time>2021-08-06T10:28:40Z</time>
      </trkpt>
      <trkpt lat="47.5882" lon="-2.6275">
        <ele>29</ele>
        <time>2021-08-06T10:28:41Z</time>
      </trkpt>
      <trkpt lat="47.58824" lon="-2.62749">
        <ele>29</ele>
        <time>2021-08-06T10:28:42Z</time>
      </trkpt>
      <trkpt lat="47.58827" lon="-2.62747">
        <ele>29</ele>
        <time>2021-08-06T10:28:43Z</time>
      </trkpt>
      <trkpt lat="47.58831" lon="-2.62745">
        <ele>29</ele>
        <time>2021-08-06T10:28:44Z</time>
      </trkpt>
      <trkpt lat="47.58835" lon="-2.62744">
        <ele>29</ele>
        <time>2021-08-06T10:28:45Z</time>
      </trkpt>
      <trkpt lat="47.58839" lon="-2.62742">
        <ele>29.2</ele>
        <time>2021-08-06T10:28:46Z</time>
      </trkpt>
      <trkpt lat="47.58843" lon="-2.62741">
        <ele>29.2</ele>
        <time>2021-08-06T10:28:47Z</time>
      </trkpt>
      <trkpt lat="47.58847" lon="-2.62739">
        <ele>29.4</ele>
        <time>2021-08-06T10:28:48Z</time>
      </trkpt>
      <trkpt lat="47.58851" lon="-2.62737">
        <ele>29.4</ele>
        <time>2021-08-06T10:28:49Z</time>
      </trkpt>
      <trkpt lat="47.58855" lon="-2.62735">
        <ele>29.6</ele>
        <time>2021-08-06T10:28:50Z</time>
      </trkpt>
      <trkpt lat="47.58859" lon="-2.62733">
        <ele>29.6</ele>
        <time>2021-08-06T10:28:51Z</time>
      </trkpt>
      <trkpt lat="47.58863" lon="-2.6273">
        <ele>29.8</ele>
        <time>2021-08-06T10:28:52Z</time>
      </trkpt>
      <trkpt lat="47.58867" lon="-2.62728">
        <ele>30</ele>
        <time>2021-08-06T10:28:53Z</time>
      </trkpt>
      <trkpt lat="47.58871" lon="-2.62725">
        <ele>30</ele>
        <time>2021-08-06T10:28:54Z</time>
      </trkpt>
      <trkpt lat="47.58875" lon="-2.62721">
        <ele>30.2</ele>
        <time>2021-08-06T10:28:55Z</time>
      </trkpt>
      <trkpt lat="47.58879" lon="-2.62718">
        <ele>30.2</ele>
        <time>2021-08-06T10:28:56Z</time>
      </trkpt>
      <trkpt lat="47.58883" lon="-2.62715">
        <ele>30.2</ele>
        <time>2021-08-06T10:28:57Z</time>
      </trkpt>
      <trkpt lat="47.58887" lon="-2.62712">
        <ele>30.2</ele>
        <time>2021-08-06T10:28:58Z</time>
      </trkpt>
      <trkpt lat="47.58892" lon="-2.6271">
        <ele>30.2</ele>
        <time>2021-08-06T10:28:59Z</time>
      </trkpt>
      <trkpt lat="47.58896" lon="-2.62708">
        <ele>30.2</ele>
        <time>2021-08-06T10:29:00Z</time>
      </trkpt>
      <trkpt lat="47.58901" lon="-2.62705">
        <ele>30.4</ele>
        <time>2021-08-06T10:29:01Z</time>
      </trkpt>
      <trkpt lat="47.58905" lon="-2.62702">
        <ele>30.4</ele>
        <time>2021-08-06T10:29:02Z</time>
      </trkpt>
      <trkpt lat="47.5891" lon="-2.62699">
        <ele>30.4</ele>
        <time>2021-08-06T10:29:03Z</time>
      </trkpt>
      <trkpt lat="47.58915" lon="-2.62695">
        <ele>30.4</ele>
        <time>2021-08-06T10:29:04Z</time>
      </trkpt>
      <trkpt lat="47.58919" lon="-2.62692">
        <ele>30.4</ele>
        <time>2021-08-06T10:29:05Z</time>
      </trkpt>
      <trkpt lat="47.58923" lon="-2.62688">
        <ele>30.4</ele>
        <time>2021-08-06T10:29:06Z</time>
      </trkpt>
      <trkpt lat="47.58927" lon="-2.62685">
        <ele>30.4</ele>
        <time>2021-08-06T10:29:07Z</time>
      </trkpt>
      <trkpt lat="47.58932" lon="-2.62682">
        <ele>30.4</ele>
        <time>2021-08-06T10:29:08Z</time>
      </trkpt>
      <trkpt lat="47.58936" lon="-2.62679">
        <ele>30.4</ele>
        <time>2021-08-06T10:29:09Z</time>
      </trkpt>
      <trkpt lat="47.5894" lon="-2.62676">
        <ele>30.4</ele>
        <time>2021-08-06T10:29:10Z</time>
      </trkpt>
      <trkpt lat="47.58943" lon="-2.62673">
        <ele>30.4</ele>
        <time>2021-08-06T10:29:11Z</time>
      </trkpt>
      <trkpt lat="47.58946" lon="-2.62669">
        <ele>30.4</ele>
        <time>2021-08-06T10:29:12Z</time>
      </trkpt>
      <trkpt lat="47.58948" lon="-2.62663">
        <ele>30.4</ele>
        <time>2021-08-06T10:29:13Z</time>
      </trkpt>
      <trkpt lat="47.58947" lon="-2.62657">
        <ele>30.4</ele>
        <time>2021-08-06T10:29:14Z</time>
      </trkpt>
      <trkpt lat="47.58946" lon="-2.62651">
        <ele>30.4</ele>
        <time>2021-08-06T10:29:15Z</time>
      </trkpt>
      <trkpt lat="47.58944" lon="-2.62645">
        <ele>30.4</ele>
        <time>2021-08-06T10:29:16Z</time>
      </trkpt>
      <trkpt lat="47.58942" lon="-2.6264">
        <ele>30.4</ele>
        <time>2021-08-06T10:29:17Z</time>
      </trkpt>
      <trkpt lat="47.58939" lon="-2.62634">
        <ele>30.4</ele>
        <time>2021-08-06T10:29:18Z</time>
      </trkpt>
      <trkpt lat="47.58937" lon="-2.62628">
        <ele>30.4</ele>
        <time>2021-08-06T10:29:19Z</time>
      </trkpt>
      <trkpt lat="47.58935" lon="-2.62622">
        <ele>30.4</ele>
        <time>2021-08-06T10:29:20Z</time>
      </trkpt>
      <trkpt lat="47.58933" lon="-2.62615">
        <ele>30.4</ele>
        <time>2021-08-06T10:29:21Z</time>
      </trkpt>
      <trkpt lat="47.5893" lon="-2.62609">
        <ele>30.4</ele>
        <time>2021-08-06T10:29:22Z</time>
      </trkpt>
      <trkpt lat="47.58928" lon="-2.62602">
        <ele>30.4</ele>
        <time>2021-08-06T10:29:23Z</time>
      </trkpt>
      <trkpt lat="47.58926" lon="-2.62596">
        <ele>30.4</ele>
        <time>2021-08-06T10:29:24Z</time>
      </trkpt>
      <trkpt lat="47.58923" lon="-2.62589">
        <ele>30.4</ele>
        <time>2021-08-06T10:29:25Z</time>
      </trkpt>
      <trkpt lat="47.58921" lon="-2.62582">
        <ele>30.4</ele>
        <time>2021-08-06T10:29:26Z</time>
      </trkpt>
      <trkpt lat="47.58919" lon="-2.62575">
        <ele>30.4</ele>
        <time>2021-08-06T10:29:27Z</time>
      </trkpt>
      <trkpt lat="47.58916" lon="-2.62568">
        <ele>30.4</ele>
        <time>2021-08-06T10:29:28Z</time>
      </trkpt>
      <trkpt lat="47.58914" lon="-2.6256">
        <ele>30.4</ele>
        <time>2021-08-06T10:29:29Z</time>
      </trkpt>
      <trkpt lat="47.58912" lon="-2.62553">
        <ele>30.4</ele>
        <time>2021-08-06T10:29:30Z</time>
      </trkpt>
      <trkpt lat="47.58909" lon="-2.62546">
        <ele>30.4</ele>
        <time>2021-08-06T10:29:31Z</time>
      </trkpt>
      <trkpt lat="47.58907" lon="-2.62538">
        <ele>30.2</ele>
        <time>2021-08-06T10:29:32Z</time>
      </trkpt>
      <trkpt lat="47.58905" lon="-2.62531">
        <ele>30.2</ele>
        <time>2021-08-06T10:29:33Z</time>
      </trkpt>
      <trkpt lat="47.58902" lon="-2.62524">
        <ele>30.2</ele>
        <time>2021-08-06T10:29:34Z</time>
      </trkpt>
      <trkpt lat="47.589" lon="-2.62516">
        <ele>30.2</ele>
        <time>2021-08-06T10:29:35Z</time>
      </trkpt>
      <trkpt lat="47.58897" lon="-2.62509">
        <ele>30.2</ele>
        <time>2021-08-06T10:29:36Z</time>
      </trkpt>
      <trkpt lat="47.58895" lon="-2.62502">
        <ele>30.2</ele>
        <time>2021-08-06T10:29:37Z</time>
      </trkpt>
      <trkpt lat="47.58892" lon="-2.62494">
        <ele>30.2</ele>
        <time>2021-08-06T10:29:38Z</time>
      </trkpt>
      <trkpt lat="47.5889" lon="-2.62486">
        <ele>30.2</ele>
        <time>2021-08-06T10:29:39Z</time>
      </trkpt>
      <trkpt lat="47.58887" lon="-2.62479">
        <ele>30.2</ele>
        <time>2021-08-06T10:29:40Z</time>
      </trkpt>
      <trkpt lat="47.58885" lon="-2.62472">
        <ele>30.2</ele>
        <time>2021-08-06T10:29:41Z</time>
      </trkpt>
      <trkpt lat="47.58882" lon="-2.62465">
        <ele>30.2</ele>
        <time>2021-08-06T10:29:42Z</time>
      </trkpt>
      <trkpt lat="47.5888" lon="-2.62458">
        <ele>30.2</ele>
        <time>2021-08-06T10:29:43Z</time>
      </trkpt>
      <trkpt lat="47.58877" lon="-2.62451">
        <ele>30.2</ele>
        <time>2021-08-06T10:29:44Z</time>
      </trkpt>
      <trkpt lat="47.58874" lon="-2.62444">
        <ele>30.2</ele>
        <time>2021-08-06T10:29:45Z</time>
      </trkpt>
      <trkpt lat="47.58872" lon="-2.62437">
        <ele>30.2</ele>
        <time>2021-08-06T10:29:46Z</time>
      </trkpt>
      <trkpt lat="47.58869" lon="-2.62429">
        <ele>30.2</ele>
        <time>2021-08-06T10:29:47Z</time>
      </trkpt>
      <trkpt lat="47.58867" lon="-2.62422">
        <ele>30.2</ele>
        <time>2021-08-06T10:29:48Z</time>
      </trkpt>
      <trkpt lat="47.58864" lon="-2.62415">
        <ele>30.2</ele>
        <time>2021-08-06T10:29:49Z</time>
      </trkpt>
      <trkpt lat="47.58862" lon="-2.62407">
        <ele>30.2</ele>
        <time>2021-08-06T10:29:50Z</time>
      </trkpt>
      <trkpt lat="47.5886" lon="-2.624">
        <ele>30.2</ele>
        <time>2021-08-06T10:29:51Z</time>
      </trkpt>
      <trkpt lat="47.58857" lon="-2.62393">
        <ele>30.4</ele>
        <time>2021-08-06T10:29:52Z</time>
      </trkpt>
      <trkpt lat="47.58855" lon="-2.62386">
        <ele>30.4</ele>
        <time>2021-08-06T10:29:53Z</time>
      </trkpt>
      <trkpt lat="47.58853" lon="-2.62379">
        <ele>30.4</ele>
        <time>2021-08-06T10:29:54Z</time>
      </trkpt>
      <trkpt lat="47.5885" lon="-2.62373">
        <ele>30.4</ele>
        <time>2021-08-06T10:29:55Z</time>
      </trkpt>
      <trkpt lat="47.58848" lon="-2.62367">
        <ele>30.4</ele>
        <time>2021-08-06T10:29:56Z</time>
      </trkpt>
      <trkpt lat="47.58845" lon="-2.6236">
        <ele>30.4</ele>
        <time>2021-08-06T10:29:57Z</time>
      </trkpt>
      <trkpt lat="47.58843" lon="-2.62354">
        <ele>30.4</ele>
        <time>2021-08-06T10:29:58Z</time>
      </trkpt>
      <trkpt lat="47.58841" lon="-2.62348">
        <ele>30.4</ele>
        <time>2021-08-06T10:29:59Z</time>
      </trkpt>
      <trkpt lat="47.58838" lon="-2.62341">
        <ele>30.4</ele>
        <time>2021-08-06T10:30:00Z</time>
      </trkpt>
      <trkpt lat="47.58836" lon="-2.62334">
        <ele>30.6</ele>
        <time>2021-08-06T10:30:01Z</time>
      </trkpt>
      <trkpt lat="47.58833" lon="-2.62327">
        <ele>30.6</ele>
        <time>2021-08-06T10:30:02Z</time>
      </trkpt>
      <trkpt lat="47.58831" lon="-2.6232">
        <ele>31</ele>
        <time>2021-08-06T10:30:03Z</time>
      </trkpt>
      <trkpt lat="47.58829" lon="-2.62313">
        <ele>31</ele>
        <time>2021-08-06T10:30:04Z</time>
      </trkpt>
      <trkpt lat="47.58826" lon="-2.62306">
        <ele>31</ele>
        <time>2021-08-06T10:30:05Z</time>
      </trkpt>
      <trkpt lat="47.58824" lon="-2.62299">
        <ele>31</ele>
        <time>2021-08-06T10:30:06Z</time>
      </trkpt>
      <trkpt lat="47.58822" lon="-2.62292">
        <ele>31</ele>
        <time>2021-08-06T10:30:07Z</time>
      </trkpt>
      <trkpt lat="47.58819" lon="-2.62286">
        <ele>31</ele>
        <time>2021-08-06T10:30:08Z</time>
      </trkpt>
      <trkpt lat="47.58817" lon="-2.62279">
        <ele>31</ele>
        <time>2021-08-06T10:30:09Z</time>
      </trkpt>
      <trkpt lat="47.58815" lon="-2.62273">
        <ele>31</ele>
        <time>2021-08-06T10:30:10Z</time>
      </trkpt>
      <trkpt lat="47.58813" lon="-2.62267">
        <ele>31</ele>
        <time>2021-08-06T10:30:11Z</time>
      </trkpt>
      <trkpt lat="47.58811" lon="-2.62262">
        <ele>31</ele>
        <time>2021-08-06T10:30:12Z</time>
      </trkpt>
      <trkpt lat="47.58809" lon="-2.62258">
        <ele>31</ele>
        <time>2021-08-06T10:30:13Z</time>
      </trkpt>
      <trkpt lat="47.58807" lon="-2.62253">
        <ele>31</ele>
        <time>2021-08-06T10:30:14Z</time>
      </trkpt>
      <trkpt lat="47.58805" lon="-2.62249">
        <ele>31</ele>
        <time>2021-08-06T10:30:15Z</time>
      </trkpt>
      <trkpt lat="47.58804" lon="-2.62245">
        <ele>31</ele>
        <time>2021-08-06T10:30:16Z</time>
      </trkpt>
      <trkpt lat="47.58804" lon="-2.62241">
        <ele>31</ele>
        <time>2021-08-06T10:30:17Z</time>
      </trkpt>
      <trkpt lat="47.58804" lon="-2.62237">
        <ele>31</ele>
        <time>2021-08-06T10:30:18Z</time>
      </trkpt>
      <trkpt lat="47.58806" lon="-2.62233">
        <ele>31</ele>
        <time>2021-08-06T10:30:19Z</time>
      </trkpt>
      <trkpt lat="47.58808" lon="-2.62229">
        <ele>31</ele>
        <time>2021-08-06T10:30:20Z</time>
      </trkpt>
      <trkpt lat="47.58811" lon="-2.62226">
        <ele>31</ele>
        <time>2021-08-06T10:30:21Z</time>
      </trkpt>
      <trkpt lat="47.58815" lon="-2.62223">
        <ele>31</ele>
        <time>2021-08-06T10:30:22Z</time>
      </trkpt>
      <trkpt lat="47.58819" lon="-2.6222">
        <ele>31</ele>
        <time>2021-08-06T10:30:23Z</time>
      </trkpt>
      <trkpt lat="47.58823" lon="-2.62218">
        <ele>31</ele>
        <time>2021-08-06T10:30:24Z</time>
      </trkpt>
      <trkpt lat="47.58827" lon="-2.62215">
        <ele>31</ele>
        <time>2021-08-06T10:30:25Z</time>
      </trkpt>
      <trkpt lat="47.58832" lon="-2.62212">
        <ele>31</ele>
        <time>2021-08-06T10:30:26Z</time>
      </trkpt>
      <trkpt lat="47.58836" lon="-2.62209">
        <ele>31</ele>
        <time>2021-08-06T10:30:27Z</time>
      </trkpt>
      <trkpt lat="47.5884" lon="-2.62206">
        <ele>31</ele>
        <time>2021-08-06T10:30:28Z</time>
      </trkpt>
      <trkpt lat="47.58844" lon="-2.62203">
        <ele>31</ele>
        <time>2021-08-06T10:30:29Z</time>
      </trkpt>
      <trkpt lat="47.58847" lon="-2.622">
        <ele>31</ele>
        <time>2021-08-06T10:30:30Z</time>
      </trkpt>
      <trkpt lat="47.5885" lon="-2.62197">
        <ele>31</ele>
        <time>2021-08-06T10:30:31Z</time>
      </trkpt>
      <trkpt lat="47.58854" lon="-2.62194">
        <ele>31</ele>
        <time>2021-08-06T10:30:32Z</time>
      </trkpt>
      <trkpt lat="47.58858" lon="-2.62191">
        <ele>31</ele>
        <time>2021-08-06T10:30:33Z</time>
      </trkpt>
      <trkpt lat="47.58862" lon="-2.62188">
        <ele>31</ele>
        <time>2021-08-06T10:30:34Z</time>
      </trkpt>
      <trkpt lat="47.58866" lon="-2.62184">
        <ele>30.6</ele>
        <time>2021-08-06T10:30:35Z</time>
      </trkpt>
      <trkpt lat="47.5887" lon="-2.62181">
        <ele>30.6</ele>
        <time>2021-08-06T10:30:36Z</time>
      </trkpt>
      <trkpt lat="47.58875" lon="-2.62177">
        <ele>30.6</ele>
        <time>2021-08-06T10:30:37Z</time>
      </trkpt>
      <trkpt lat="47.5888" lon="-2.62173">
        <ele>30.6</ele>
        <time>2021-08-06T10:30:38Z</time>
      </trkpt>
      <trkpt lat="47.58885" lon="-2.62169">
        <ele>30.6</ele>
        <time>2021-08-06T10:30:39Z</time>
      </trkpt>
      <trkpt lat="47.58889" lon="-2.62164">
        <ele>30.6</ele>
        <time>2021-08-06T10:30:40Z</time>
      </trkpt>
      <trkpt lat="47.58894" lon="-2.6216">
        <ele>30.4</ele>
        <time>2021-08-06T10:30:41Z</time>
      </trkpt>
      <trkpt lat="47.58898" lon="-2.62155">
        <ele>30.4</ele>
        <time>2021-08-06T10:30:42Z</time>
      </trkpt>
      <trkpt lat="47.58902" lon="-2.6215">
        <ele>30.4</ele>
        <time>2021-08-06T10:30:43Z</time>
      </trkpt>
      <trkpt lat="47.58906" lon="-2.62146">
        <ele>30.4</ele>
        <time>2021-08-06T10:30:44Z</time>
      </trkpt>
      <trkpt lat="47.5891" lon="-2.62141">
        <ele>30.4</ele>
        <time>2021-08-06T10:30:45Z</time>
      </trkpt>
      <trkpt lat="47.58915" lon="-2.62137">
        <ele>30.4</ele>
        <time>2021-08-06T10:30:46Z</time>
      </trkpt>
      <trkpt lat="47.58919" lon="-2.62133">
        <ele>30.4</ele>
        <time>2021-08-06T10:30:47Z</time>
      </trkpt>
      <trkpt lat="47.58923" lon="-2.62128">
        <ele>30.4</ele>
        <time>2021-08-06T10:30:48Z</time>
      </trkpt>
      <trkpt lat="47.58927" lon="-2.62123">
        <ele>30.4</ele>
        <time>2021-08-06T10:30:49Z</time>
      </trkpt>
      <trkpt lat="47.58931" lon="-2.62119">
        <ele>30.4</ele>
        <time>2021-08-06T10:30:50Z</time>
      </trkpt>
      <trkpt lat="47.58935" lon="-2.62115">
        <ele>30.4</ele>
        <time>2021-08-06T10:30:51Z</time>
      </trkpt>
      <trkpt lat="47.58938" lon="-2.62111">
        <ele>30.4</ele>
        <time>2021-08-06T10:30:52Z</time>
      </trkpt>
      <trkpt lat="47.58942" lon="-2.62107">
        <ele>30.4</ele>
        <time>2021-08-06T10:30:53Z</time>
      </trkpt>
      <trkpt lat="47.58946" lon="-2.62103">
        <ele>30.4</ele>
        <time>2021-08-06T10:30:54Z</time>
      </trkpt>
      <trkpt lat="47.5895" lon="-2.62098">
        <ele>30.4</ele>
        <time>2021-08-06T10:30:55Z</time>
      </trkpt>
      <trkpt lat="47.58954" lon="-2.62094">
        <ele>30.4</ele>
        <time>2021-08-06T10:30:56Z</time>
      </trkpt>
      <trkpt lat="47.58958" lon="-2.62089">
        <ele>30.6</ele>
        <time>2021-08-06T10:30:57Z</time>
      </trkpt>
      <trkpt lat="47.58962" lon="-2.62085">
        <ele>30.6</ele>
        <time>2021-08-06T10:30:58Z</time>
      </trkpt>
      <trkpt lat="47.58967" lon="-2.6208">
        <ele>30.6</ele>
        <time>2021-08-06T10:30:59Z</time>
      </trkpt>
      <trkpt lat="47.58971" lon="-2.62075">
        <ele>30.6</ele>
        <time>2021-08-06T10:31:00Z</time>
      </trkpt>
      <trkpt lat="47.58976" lon="-2.62071">
        <ele>30.6</ele>
        <time>2021-08-06T10:31:01Z</time>
      </trkpt>
      <trkpt lat="47.5898" lon="-2.62066">
        <ele>30.6</ele>
        <time>2021-08-06T10:31:02Z</time>
      </trkpt>
      <trkpt lat="47.58984" lon="-2.62061">
        <ele>30.6</ele>
        <time>2021-08-06T10:31:03Z</time>
      </trkpt>
      <trkpt lat="47.58989" lon="-2.62057">
        <ele>30.6</ele>
        <time>2021-08-06T10:31:04Z</time>
      </trkpt>
      <trkpt lat="47.58993" lon="-2.62053">
        <ele>30.6</ele>
        <time>2021-08-06T10:31:05Z</time>
      </trkpt>
      <trkpt lat="47.58997" lon="-2.62049">
        <ele>30.6</ele>
        <time>2021-08-06T10:31:06Z</time>
      </trkpt>
      <trkpt lat="47.59" lon="-2.62045">
        <ele>30.6</ele>
        <time>2021-08-06T10:31:07Z</time>
      </trkpt>
      <trkpt lat="47.59004" lon="-2.6204">
        <ele>30.6</ele>
        <time>2021-08-06T10:31:08Z</time>
      </trkpt>
      <trkpt lat="47.59008" lon="-2.62036">
        <ele>30.6</ele>
        <time>2021-08-06T10:31:09Z</time>
      </trkpt>
      <trkpt lat="47.59011" lon="-2.62032">
        <ele>30.6</ele>
        <time>2021-08-06T10:31:10Z</time>
      </trkpt>
      <trkpt lat="47.59014" lon="-2.62027">
        <ele>30.4</ele>
        <time>2021-08-06T10:31:11Z</time>
      </trkpt>
      <trkpt lat="47.59018" lon="-2.62023">
        <ele>30.2</ele>
        <time>2021-08-06T10:31:12Z</time>
      </trkpt>
      <trkpt lat="47.59021" lon="-2.62019">
        <ele>30.2</ele>
        <time>2021-08-06T10:31:13Z</time>
      </trkpt>
      <trkpt lat="47.59024" lon="-2.62015">
        <ele>30</ele>
        <time>2021-08-06T10:31:14Z</time>
      </trkpt>
      <trkpt lat="47.59028" lon="-2.6201">
        <ele>30</ele>
        <time>2021-08-06T10:31:15Z</time>
      </trkpt>
      <trkpt lat="47.59032" lon="-2.62006">
        <ele>29.8</ele>
        <time>2021-08-06T10:31:16Z</time>
      </trkpt>
      <trkpt lat="47.59036" lon="-2.62001">
        <ele>29.6</ele>
        <time>2021-08-06T10:31:17Z</time>
      </trkpt>
      <trkpt lat="47.5904" lon="-2.61996">
        <ele>29.4</ele>
        <time>2021-08-06T10:31:18Z</time>
      </trkpt>
      <trkpt lat="47.59044" lon="-2.61992">
        <ele>29.4</ele>
        <time>2021-08-06T10:31:19Z</time>
      </trkpt>
      <trkpt lat="47.59047" lon="-2.61988">
        <ele>29.4</ele>
        <time>2021-08-06T10:31:20Z</time>
      </trkpt>
      <trkpt lat="47.59051" lon="-2.61984">
        <ele>29.4</ele>
        <time>2021-08-06T10:31:21Z</time>
      </trkpt>
      <trkpt lat="47.59055" lon="-2.6198">
        <ele>29.4</ele>
        <time>2021-08-06T10:31:22Z</time>
      </trkpt>
      <trkpt lat="47.59059" lon="-2.61976">
        <ele>29.4</ele>
        <time>2021-08-06T10:31:23Z</time>
      </trkpt>
      <trkpt lat="47.59064" lon="-2.61972">
        <ele>29.4</ele>
        <time>2021-08-06T10:31:24Z</time>
      </trkpt>
      <trkpt lat="47.59068" lon="-2.61967">
        <ele>29.4</ele>
        <time>2021-08-06T10:31:25Z</time>
      </trkpt>
      <trkpt lat="47.59072" lon="-2.61963">
        <ele>29.4</ele>
        <time>2021-08-06T10:31:26Z</time>
      </trkpt>
      <trkpt lat="47.59076" lon="-2.61958">
        <ele>29.4</ele>
        <time>2021-08-06T10:31:27Z</time>
      </trkpt>
      <trkpt lat="47.59079" lon="-2.61954">
        <ele>29.4</ele>
        <time>2021-08-06T10:31:28Z</time>
      </trkpt>
      <trkpt lat="47.59082" lon="-2.6195">
        <ele>29.6</ele>
        <time>2021-08-06T10:31:29Z</time>
      </trkpt>
      <trkpt lat="47.59085" lon="-2.61946">
        <ele>29.6</ele>
        <time>2021-08-06T10:31:30Z</time>
      </trkpt>
      <trkpt lat="47.59089" lon="-2.61941">
        <ele>29.8</ele>
        <time>2021-08-06T10:31:31Z</time>
      </trkpt>
      <trkpt lat="47.59093" lon="-2.61937">
        <ele>29.8</ele>
        <time>2021-08-06T10:31:32Z</time>
      </trkpt>
      <trkpt lat="47.59097" lon="-2.61933">
        <ele>29.8</ele>
        <time>2021-08-06T10:31:33Z</time>
      </trkpt>
      <trkpt lat="47.59101" lon="-2.61929">
        <ele>29.8</ele>
        <time>2021-08-06T10:31:34Z</time>
      </trkpt>
      <trkpt lat="47.59105" lon="-2.61924">
        <ele>29.8</ele>
        <time>2021-08-06T10:31:35Z</time>
      </trkpt>
      <trkpt lat="47.59108" lon="-2.6192">
        <ele>30</ele>
        <time>2021-08-06T10:31:36Z</time>
      </trkpt>
      <trkpt lat="47.59112" lon="-2.61915">
        <ele>30</ele>
        <time>2021-08-06T10:31:37Z</time>
      </trkpt>
      <trkpt lat="47.59116" lon="-2.61911">
        <ele>30</ele>
        <time>2021-08-06T10:31:38Z</time>
      </trkpt>
      <trkpt lat="47.5912" lon="-2.61907">
        <ele>30</ele>
        <time>2021-08-06T10:31:39Z</time>
      </trkpt>
      <trkpt lat="47.59124" lon="-2.61902">
        <ele>30</ele>
        <time>2021-08-06T10:31:40Z</time>
      </trkpt>
      <trkpt lat="47.59127" lon="-2.61898">
        <ele>30</ele>
        <time>2021-08-06T10:31:41Z</time>
      </trkpt>
      <trkpt lat="47.59131" lon="-2.61894">
        <ele>30.2</ele>
        <time>2021-08-06T10:31:42Z</time>
      </trkpt>
      <trkpt lat="47.59135" lon="-2.6189">
        <ele>30.2</ele>
        <time>2021-08-06T10:31:43Z</time>
      </trkpt>
      <trkpt lat="47.59138" lon="-2.61886">
        <ele>30.2</ele>
        <time>2021-08-06T10:31:44Z</time>
      </trkpt>
      <trkpt lat="47.59142" lon="-2.61882">
        <ele>30.2</ele>
        <time>2021-08-06T10:31:45Z</time>
      </trkpt>
      <trkpt lat="47.59145" lon="-2.61878">
        <ele>30.2</ele>
        <time>2021-08-06T10:31:46Z</time>
      </trkpt>
      <trkpt lat="47.59149" lon="-2.61875">
        <ele>30.4</ele>
        <time>2021-08-06T10:31:47Z</time>
      </trkpt>
      <trkpt lat="47.59152" lon="-2.61871">
        <ele>30.4</ele>
        <time>2021-08-06T10:31:48Z</time>
      </trkpt>
      <trkpt lat="47.59155" lon="-2.61867">
        <ele>30.4</ele>
        <time>2021-08-06T10:31:49Z</time>
      </trkpt>
      <trkpt lat="47.59158" lon="-2.61864">
        <ele>30.4</ele>
        <time>2021-08-06T10:31:50Z</time>
      </trkpt>
      <trkpt lat="47.59161" lon="-2.61861">
        <ele>30.6</ele>
        <time>2021-08-06T10:31:51Z</time>
      </trkpt>
      <trkpt lat="47.59163" lon="-2.61858">
        <ele>30.6</ele>
        <time>2021-08-06T10:31:52Z</time>
      </trkpt>
      <trkpt lat="47.59165" lon="-2.61855">
        <ele>30.6</ele>
        <time>2021-08-06T10:31:53Z</time>
      </trkpt>
      <trkpt lat="47.59168" lon="-2.61852">
        <ele>30.8</ele>
        <time>2021-08-06T10:31:54Z</time>
      </trkpt>
      <trkpt lat="47.5917" lon="-2.6185">
        <ele>30.8</ele>
        <time>2021-08-06T10:31:55Z</time>
      </trkpt>
      <trkpt lat="47.59172" lon="-2.61847">
        <ele>31.2</ele>
        <time>2021-08-06T10:31:56Z</time>
      </trkpt>
      <trkpt lat="47.59174" lon="-2.61844">
        <ele>31.4</ele>
        <time>2021-08-06T10:31:57Z</time>
      </trkpt>
      <trkpt lat="47.59176" lon="-2.61842">
        <ele>31.6</ele>
        <time>2021-08-06T10:31:58Z</time>
      </trkpt>
      <trkpt lat="47.59177" lon="-2.6184">
        <ele>31.8</ele>
        <time>2021-08-06T10:31:59Z</time>
      </trkpt>
      <trkpt lat="47.59179" lon="-2.61838">
        <ele>32</ele>
        <time>2021-08-06T10:32:00Z</time>
      </trkpt>
      <trkpt lat="47.5918" lon="-2.61836">
        <ele>32.2</ele>
        <time>2021-08-06T10:32:01Z</time>
      </trkpt>
      <trkpt lat="47.59182" lon="-2.61835">
        <ele>32.4</ele>
        <time>2021-08-06T10:32:02Z</time>
      </trkpt>
      <trkpt lat="47.59183" lon="-2.61833">
        <ele>32.8</ele>
        <time>2021-08-06T10:32:03Z</time>
      </trkpt>
      <trkpt lat="47.59185" lon="-2.61831">
        <ele>33</ele>
        <time>2021-08-06T10:32:04Z</time>
      </trkpt>
      <trkpt lat="47.59186" lon="-2.61828">
        <ele>33.4</ele>
        <time>2021-08-06T10:32:05Z</time>
      </trkpt>
      <trkpt lat="47.59188" lon="-2.61826">
        <ele>33.6</ele>
        <time>2021-08-06T10:32:06Z</time>
      </trkpt>
      <trkpt lat="47.59189" lon="-2.61823">
        <ele>33.8</ele>
        <time>2021-08-06T10:32:07Z</time>
      </trkpt>
      <trkpt lat="47.59191" lon="-2.61821">
        <ele>34</ele>
        <time>2021-08-06T10:32:08Z</time>
      </trkpt>
      <trkpt lat="47.59192" lon="-2.61818">
        <ele>34</ele>
        <time>2021-08-06T10:32:09Z</time>
      </trkpt>
      <trkpt lat="47.59194" lon="-2.61816">
        <ele>34</ele>
        <time>2021-08-06T10:32:10Z</time>
      </trkpt>
      <trkpt lat="47.59195" lon="-2.61813">
        <ele>34.2</ele>
        <time>2021-08-06T10:32:11Z</time>
      </trkpt>
      <trkpt lat="47.59197" lon="-2.6181">
        <ele>34.4</ele>
        <time>2021-08-06T10:32:12Z</time>
      </trkpt>
      <trkpt lat="47.59198" lon="-2.61807">
        <ele>34.4</ele>
        <time>2021-08-06T10:32:13Z</time>
      </trkpt>
      <trkpt lat="47.59199" lon="-2.61804">
        <ele>34.6</ele>
        <time>2021-08-06T10:32:14Z</time>
      </trkpt>
      <trkpt lat="47.592" lon="-2.61801">
        <ele>34.6</ele>
        <time>2021-08-06T10:32:15Z</time>
      </trkpt>
      <trkpt lat="47.59201" lon="-2.61798">
        <ele>34.8</ele>
        <time>2021-08-06T10:32:16Z</time>
      </trkpt>
      <trkpt lat="47.59202" lon="-2.61795">
        <ele>34.8</ele>
        <time>2021-08-06T10:32:17Z</time>
      </trkpt>
      <trkpt lat="47.59203" lon="-2.61793">
        <ele>35</ele>
        <time>2021-08-06T10:32:18Z</time>
      </trkpt>
      <trkpt lat="47.59205" lon="-2.6179">
        <ele>35</ele>
        <time>2021-08-06T10:32:19Z</time>
      </trkpt>
      <trkpt lat="47.59207" lon="-2.61787">
        <ele>35.2</ele>
        <time>2021-08-06T10:32:20Z</time>
      </trkpt>
      <trkpt lat="47.59208" lon="-2.61784">
        <ele>35.4</ele>
        <time>2021-08-06T10:32:21Z</time>
      </trkpt>
      <trkpt lat="47.59209" lon="-2.61781">
        <ele>35.4</ele>
        <time>2021-08-06T10:32:22Z</time>
      </trkpt>
      <trkpt lat="47.59211" lon="-2.61778">
        <ele>35.6</ele>
        <time>2021-08-06T10:32:23Z</time>
      </trkpt>
      <trkpt lat="47.59213" lon="-2.61774">
        <ele>35.6</ele>
        <time>2021-08-06T10:32:24Z</time>
      </trkpt>
      <trkpt lat="47.59215" lon="-2.61771">
        <ele>35.8</ele>
        <time>2021-08-06T10:32:25Z</time>
      </trkpt>
      <trkpt lat="47.59216" lon="-2.61768">
        <ele>36</ele>
        <time>2021-08-06T10:32:26Z</time>
      </trkpt>
      <trkpt lat="47.59217" lon="-2.61765">
        <ele>36</ele>
        <time>2021-08-06T10:32:27Z</time>
      </trkpt>
      <trkpt lat="47.59218" lon="-2.61761">
        <ele>36.2</ele>
        <time>2021-08-06T10:32:28Z</time>
      </trkpt>
      <trkpt lat="47.5922" lon="-2.61758">
        <ele>36.2</ele>
        <time>2021-08-06T10:32:29Z</time>
      </trkpt>
      <trkpt lat="47.59221" lon="-2.61754">
        <ele>36.2</ele>
        <time>2021-08-06T10:32:30Z</time>
      </trkpt>
      <trkpt lat="47.59223" lon="-2.6175">
        <ele>36.2</ele>
        <time>2021-08-06T10:32:31Z</time>
      </trkpt>
      <trkpt lat="47.59225" lon="-2.61746">
        <ele>36.2</ele>
        <time>2021-08-06T10:32:32Z</time>
      </trkpt>
      <trkpt lat="47.59227" lon="-2.61741">
        <ele>36.2</ele>
        <time>2021-08-06T10:32:33Z</time>
      </trkpt>
      <trkpt lat="47.5923" lon="-2.61736">
        <ele>36.2</ele>
        <time>2021-08-06T10:32:34Z</time>
      </trkpt>
      <trkpt lat="47.59232" lon="-2.6173">
        <ele>36.2</ele>
        <time>2021-08-06T10:32:35Z</time>
      </trkpt>
      <trkpt lat="47.59234" lon="-2.61725">
        <ele>36.2</ele>
        <time>2021-08-06T10:32:36Z</time>
      </trkpt>
      <trkpt lat="47.59237" lon="-2.61719">
        <ele>36.2</ele>
        <time>2021-08-06T10:32:37Z</time>
      </trkpt>
      <trkpt lat="47.59239" lon="-2.61713">
        <ele>36.2</ele>
        <time>2021-08-06T10:32:38Z</time>
      </trkpt>
      <trkpt lat="47.59241" lon="-2.61704">
        <ele>36</ele>
        <time>2021-08-06T10:32:39Z</time>
      </trkpt>
      <trkpt lat="47.59244" lon="-2.61697">
        <ele>36</ele>
        <time>2021-08-06T10:32:40Z</time>
      </trkpt>
      <trkpt lat="47.59246" lon="-2.6169">
        <ele>35.8</ele>
        <time>2021-08-06T10:32:41Z</time>
      </trkpt>
      <trkpt lat="47.59249" lon="-2.61682">
        <ele>35.6</ele>
        <time>2021-08-06T10:32:42Z</time>
      </trkpt>
      <trkpt lat="47.59251" lon="-2.61675">
        <ele>35.4</ele>
        <time>2021-08-06T10:32:43Z</time>
      </trkpt>
      <trkpt lat="47.59254" lon="-2.61668">
        <ele>35.4</ele>
        <time>2021-08-06T10:32:44Z</time>
      </trkpt>
      <trkpt lat="47.59257" lon="-2.61661">
        <ele>35.4</ele>
        <time>2021-08-06T10:32:45Z</time>
      </trkpt>
      <trkpt lat="47.5926" lon="-2.61653">
        <ele>35.4</ele>
        <time>2021-08-06T10:32:46Z</time>
      </trkpt>
      <trkpt lat="47.59262" lon="-2.61646">
        <ele>35.4</ele>
        <time>2021-08-06T10:32:47Z</time>
      </trkpt>
      <trkpt lat="47.59265" lon="-2.61639">
        <ele>35.2</ele>
        <time>2021-08-06T10:32:48Z</time>
      </trkpt>
      <trkpt lat="47.59267" lon="-2.61633">
        <ele>35</ele>
        <time>2021-08-06T10:32:49Z</time>
      </trkpt>
      <trkpt lat="47.5927" lon="-2.61626">
        <ele>34.4</ele>
        <time>2021-08-06T10:32:50Z</time>
      </trkpt>
      <trkpt lat="47.59272" lon="-2.61619">
        <ele>34.2</ele>
        <time>2021-08-06T10:32:51Z</time>
      </trkpt>
      <trkpt lat="47.59274" lon="-2.61612">
        <ele>34</ele>
        <time>2021-08-06T10:32:52Z</time>
      </trkpt>
      <trkpt lat="47.59276" lon="-2.61605">
        <ele>33.8</ele>
        <time>2021-08-06T10:32:53Z</time>
      </trkpt>
      <trkpt lat="47.59278" lon="-2.61597">
        <ele>33.8</ele>
        <time>2021-08-06T10:32:54Z</time>
      </trkpt>
      <trkpt lat="47.5928" lon="-2.6159">
        <ele>33.6</ele>
        <time>2021-08-06T10:32:55Z</time>
      </trkpt>
      <trkpt lat="47.59283" lon="-2.61582">
        <ele>33.6</ele>
        <time>2021-08-06T10:32:56Z</time>
      </trkpt>
      <trkpt lat="47.59286" lon="-2.61574">
        <ele>33.6</ele>
        <time>2021-08-06T10:32:57Z</time>
      </trkpt>
      <trkpt lat="47.59288" lon="-2.61566">
        <ele>33.4</ele>
        <time>2021-08-06T10:32:58Z</time>
      </trkpt>
      <trkpt lat="47.59292" lon="-2.61556">
        <ele>33.2</ele>
        <time>2021-08-06T10:32:59Z</time>
      </trkpt>
      <trkpt lat="47.59294" lon="-2.61548">
        <ele>33.2</ele>
        <time>2021-08-06T10:33:00Z</time>
      </trkpt>
      <trkpt lat="47.59297" lon="-2.61539">
        <ele>33</ele>
        <time>2021-08-06T10:33:01Z</time>
      </trkpt>
      <trkpt lat="47.593" lon="-2.6153">
        <ele>32.8</ele>
        <time>2021-08-06T10:33:02Z</time>
      </trkpt>
      <trkpt lat="47.59303" lon="-2.6152">
        <ele>32.8</ele>
        <time>2021-08-06T10:33:03Z</time>
      </trkpt>
      <trkpt lat="47.59306" lon="-2.61511">
        <ele>32.6</ele>
        <time>2021-08-06T10:33:04Z</time>
      </trkpt>
      <trkpt lat="47.59309" lon="-2.615">
        <ele>32.6</ele>
        <time>2021-08-06T10:33:05Z</time>
      </trkpt>
      <trkpt lat="47.59312" lon="-2.61488">
        <ele>32.4</ele>
        <time>2021-08-06T10:33:06Z</time>
      </trkpt>
      <trkpt lat="47.59315" lon="-2.61477">
        <ele>32.2</ele>
        <time>2021-08-06T10:33:07Z</time>
      </trkpt>
      <trkpt lat="47.59318" lon="-2.61464">
        <ele>32</ele>
        <time>2021-08-06T10:33:08Z</time>
      </trkpt>
      <trkpt lat="47.59321" lon="-2.61452">
        <ele>32</ele>
        <time>2021-08-06T10:33:09Z</time>
      </trkpt>
      <trkpt lat="47.59325" lon="-2.6144">
        <ele>31.8</ele>
        <time>2021-08-06T10:33:10Z</time>
      </trkpt>
      <trkpt lat="47.59328" lon="-2.61428">
        <ele>31.8</ele>
        <time>2021-08-06T10:33:11Z</time>
      </trkpt>
      <trkpt lat="47.59332" lon="-2.61415">
        <ele>31.6</ele>
        <time>2021-08-06T10:33:12Z</time>
      </trkpt>
      <trkpt lat="47.59336" lon="-2.61403">
        <ele>31.2</ele>
        <time>2021-08-06T10:33:13Z</time>
      </trkpt>
      <trkpt lat="47.59339" lon="-2.6139">
        <ele>30.4</ele>
        <time>2021-08-06T10:33:14Z</time>
      </trkpt>
      <trkpt lat="47.59343" lon="-2.61377">
        <ele>30</ele>
        <time>2021-08-06T10:33:15Z</time>
      </trkpt>
      <trkpt lat="47.59346" lon="-2.61364">
        <ele>29.4</ele>
        <time>2021-08-06T10:33:16Z</time>
      </trkpt>
      <trkpt lat="47.5935" lon="-2.61351">
        <ele>28.6</ele>
        <time>2021-08-06T10:33:17Z</time>
      </trkpt>
      <trkpt lat="47.59353" lon="-2.61338">
        <ele>27.6</ele>
        <time>2021-08-06T10:33:18Z</time>
      </trkpt>
      <trkpt lat="47.59357" lon="-2.61325">
        <ele>26.8</ele>
        <time>2021-08-06T10:33:19Z</time>
      </trkpt>
      <trkpt lat="47.59361" lon="-2.61313">
        <ele>26</ele>
        <time>2021-08-06T10:33:20Z</time>
      </trkpt>
      <trkpt lat="47.59365" lon="-2.61301">
        <ele>25.6</ele>
        <time>2021-08-06T10:33:21Z</time>
      </trkpt>
      <trkpt lat="47.5937" lon="-2.6129">
        <ele>25.2</ele>
        <time>2021-08-06T10:33:22Z</time>
      </trkpt>
      <trkpt lat="47.59375" lon="-2.6128">
        <ele>25</ele>
        <time>2021-08-06T10:33:23Z</time>
      </trkpt>
      <trkpt lat="47.5938" lon="-2.61271">
        <ele>24.8</ele>
        <time>2021-08-06T10:33:24Z</time>
      </trkpt>
      <trkpt lat="47.59385" lon="-2.61262">
        <ele>24.8</ele>
        <time>2021-08-06T10:33:25Z</time>
      </trkpt>
      <trkpt lat="47.59391" lon="-2.61253">
        <ele>24.6</ele>
        <time>2021-08-06T10:33:26Z</time>
      </trkpt>
      <trkpt lat="47.59396" lon="-2.61244">
        <ele>24.6</ele>
        <time>2021-08-06T10:33:27Z</time>
      </trkpt>
      <trkpt lat="47.59402" lon="-2.61234">
        <ele>24.6</ele>
        <time>2021-08-06T10:33:28Z</time>
      </trkpt>
      <trkpt lat="47.59407" lon="-2.61225">
        <ele>24.4</ele>
        <time>2021-08-06T10:33:29Z</time>
      </trkpt>
      <trkpt lat="47.59412" lon="-2.61214">
        <ele>24.4</ele>
        <time>2021-08-06T10:33:30Z</time>
      </trkpt>
      <trkpt lat="47.59416" lon="-2.61203">
        <ele>24.4</ele>
        <time>2021-08-06T10:33:31Z</time>
      </trkpt>
      <trkpt lat="47.5942" lon="-2.61191">
        <ele>24.4</ele>
        <time>2021-08-06T10:33:32Z</time>
      </trkpt>
      <trkpt lat="47.59425" lon="-2.61179">
        <ele>24.2</ele>
        <time>2021-08-06T10:33:33Z</time>
      </trkpt>
      <trkpt lat="47.59429" lon="-2.61167">
        <ele>24.2</ele>
        <time>2021-08-06T10:33:34Z</time>
      </trkpt>
      <trkpt lat="47.59433" lon="-2.61155">
        <ele>24.2</ele>
        <time>2021-08-06T10:33:35Z</time>
      </trkpt>
      <trkpt lat="47.59438" lon="-2.61142">
        <ele>24.2</ele>
        <time>2021-08-06T10:33:36Z</time>
      </trkpt>
      <trkpt lat="47.59443" lon="-2.6113">
        <ele>23.8</ele>
        <time>2021-08-06T10:33:37Z</time>
      </trkpt>
      <trkpt lat="47.59449" lon="-2.61118">
        <ele>23.4</ele>
        <time>2021-08-06T10:33:38Z</time>
      </trkpt>
      <trkpt lat="47.59455" lon="-2.61107">
        <ele>23.2</ele>
        <time>2021-08-06T10:33:39Z</time>
      </trkpt>
      <trkpt lat="47.59461" lon="-2.61096">
        <ele>23</ele>
        <time>2021-08-06T10:33:40Z</time>
      </trkpt>
      <trkpt lat="47.59467" lon="-2.61086">
        <ele>22.8</ele>
        <time>2021-08-06T10:33:41Z</time>
      </trkpt>
      <trkpt lat="47.59473" lon="-2.61076">
        <ele>22.4</ele>
        <time>2021-08-06T10:33:42Z</time>
      </trkpt>
      <trkpt lat="47.59479" lon="-2.61067">
        <ele>22.2</ele>
        <time>2021-08-06T10:33:43Z</time>
      </trkpt>
      <trkpt lat="47.59486" lon="-2.61058">
        <ele>22.2</ele>
        <time>2021-08-06T10:33:44Z</time>
      </trkpt>
      <trkpt lat="47.59492" lon="-2.61051">
        <ele>22.2</ele>
        <time>2021-08-06T10:33:45Z</time>
      </trkpt>
      <trkpt lat="47.59499" lon="-2.61045">
        <ele>22.2</ele>
        <time>2021-08-06T10:33:46Z</time>
      </trkpt>
      <trkpt lat="47.59505" lon="-2.6104">
        <ele>22.2</ele>
        <time>2021-08-06T10:33:47Z</time>
      </trkpt>
      <trkpt lat="47.59511" lon="-2.61035">
        <ele>22.2</ele>
        <time>2021-08-06T10:33:48Z</time>
      </trkpt>
      <trkpt lat="47.59516" lon="-2.61032">
        <ele>22.2</ele>
        <time>2021-08-06T10:33:49Z</time>
      </trkpt>
      <trkpt lat="47.59521" lon="-2.61028">
        <ele>22.2</ele>
        <time>2021-08-06T10:33:50Z</time>
      </trkpt>
      <trkpt lat="47.59526" lon="-2.61025">
        <ele>22.2</ele>
        <time>2021-08-06T10:33:51Z</time>
      </trkpt>
      <trkpt lat="47.59531" lon="-2.61022">
        <ele>22.6</ele>
        <time>2021-08-06T10:33:52Z</time>
      </trkpt>
      <trkpt lat="47.59535" lon="-2.61019">
        <ele>23</ele>
        <time>2021-08-06T10:33:53Z</time>
      </trkpt>
      <trkpt lat="47.59539" lon="-2.61017">
        <ele>23.6</ele>
        <time>2021-08-06T10:33:54Z</time>
      </trkpt>
      <trkpt lat="47.59542" lon="-2.61015">
        <ele>24</ele>
        <time>2021-08-06T10:33:55Z</time>
      </trkpt>
      <trkpt lat="47.59546" lon="-2.61013">
        <ele>25</ele>
        <time>2021-08-06T10:33:56Z</time>
      </trkpt>
      <trkpt lat="47.59549" lon="-2.61011">
        <ele>25.4</ele>
        <time>2021-08-06T10:33:57Z</time>
      </trkpt>
      <trkpt lat="47.59552" lon="-2.61009">
        <ele>25.8</ele>
        <time>2021-08-06T10:33:58Z</time>
      </trkpt>
      <trkpt lat="47.59554" lon="-2.61007">
        <ele>26.2</ele>
        <time>2021-08-06T10:33:59Z</time>
      </trkpt>
      <trkpt lat="47.59556" lon="-2.61005">
        <ele>26.6</ele>
        <time>2021-08-06T10:34:00Z</time>
      </trkpt>
      <trkpt lat="47.59559" lon="-2.61003">
        <ele>27.2</ele>
        <time>2021-08-06T10:34:01Z</time>
      </trkpt>
      <trkpt lat="47.59561" lon="-2.61">
        <ele>27.6</ele>
        <time>2021-08-06T10:34:02Z</time>
      </trkpt>
      <trkpt lat="47.59563" lon="-2.60997">
        <ele>28</ele>
        <time>2021-08-06T10:34:03Z</time>
      </trkpt>
      <trkpt lat="47.59565" lon="-2.60995">
        <ele>28.4</ele>
        <time>2021-08-06T10:34:04Z</time>
      </trkpt>
      <trkpt lat="47.59567" lon="-2.60992">
        <ele>28.6</ele>
        <time>2021-08-06T10:34:05Z</time>
      </trkpt>
      <trkpt lat="47.59569" lon="-2.6099">
        <ele>28.8</ele>
        <time>2021-08-06T10:34:06Z</time>
      </trkpt>
      <trkpt lat="47.59571" lon="-2.60987">
        <ele>29</ele>
        <time>2021-08-06T10:34:07Z</time>
      </trkpt>
      <trkpt lat="47.59573" lon="-2.60983">
        <ele>29.2</ele>
        <time>2021-08-06T10:34:08Z</time>
      </trkpt>
      <trkpt lat="47.59574" lon="-2.6098">
        <ele>29.4</ele>
        <time>2021-08-06T10:34:09Z</time>
      </trkpt>
      <trkpt lat="47.59576" lon="-2.60977">
        <ele>29.6</ele>
        <time>2021-08-06T10:34:10Z</time>
      </trkpt>
      <trkpt lat="47.59578" lon="-2.60973">
        <ele>29.8</ele>
        <time>2021-08-06T10:34:11Z</time>
      </trkpt>
      <trkpt lat="47.5958" lon="-2.60969">
        <ele>29.8</ele>
        <time>2021-08-06T10:34:12Z</time>
      </trkpt>
      <trkpt lat="47.59581" lon="-2.60965">
        <ele>30</ele>
        <time>2021-08-06T10:34:13Z</time>
      </trkpt>
      <trkpt lat="47.59583" lon="-2.60961">
        <ele>30</ele>
        <time>2021-08-06T10:34:14Z</time>
      </trkpt>
      <trkpt lat="47.59584" lon="-2.60957">
        <ele>30.2</ele>
        <time>2021-08-06T10:34:15Z</time>
      </trkpt>
      <trkpt lat="47.59585" lon="-2.60952">
        <ele>30.4</ele>
        <time>2021-08-06T10:34:16Z</time>
      </trkpt>
      <trkpt lat="47.59587" lon="-2.60948">
        <ele>30.6</ele>
        <time>2021-08-06T10:34:17Z</time>
      </trkpt>
      <trkpt lat="47.59588" lon="-2.60943">
        <ele>30.8</ele>
        <time>2021-08-06T10:34:18Z</time>
      </trkpt>
      <trkpt lat="47.59589" lon="-2.60938">
        <ele>31</ele>
        <time>2021-08-06T10:34:19Z</time>
      </trkpt>
      <trkpt lat="47.59591" lon="-2.60934">
        <ele>31</ele>
        <time>2021-08-06T10:34:20Z</time>
      </trkpt>
      <trkpt lat="47.59592" lon="-2.6093">
        <ele>31.2</ele>
        <time>2021-08-06T10:34:21Z</time>
      </trkpt>
      <trkpt lat="47.59594" lon="-2.60925">
        <ele>31.2</ele>
        <time>2021-08-06T10:34:22Z</time>
      </trkpt>
      <trkpt lat="47.59595" lon="-2.60921">
        <ele>31.4</ele>
        <time>2021-08-06T10:34:23Z</time>
      </trkpt>
      <trkpt lat="47.59596" lon="-2.60917">
        <ele>31.4</ele>
        <time>2021-08-06T10:34:24Z</time>
      </trkpt>
      <trkpt lat="47.59597" lon="-2.60913">
        <ele>31.6</ele>
        <time>2021-08-06T10:34:25Z</time>
      </trkpt>
      <trkpt lat="47.59598" lon="-2.60909">
        <ele>31.8</ele>
        <time>2021-08-06T10:34:26Z</time>
      </trkpt>
      <trkpt lat="47.59599" lon="-2.60905">
        <ele>31.8</ele>
        <time>2021-08-06T10:34:27Z</time>
      </trkpt>
      <trkpt lat="47.596" lon="-2.60902">
        <ele>32</ele>
        <time>2021-08-06T10:34:28Z</time>
      </trkpt>
      <trkpt lat="47.596" lon="-2.60898">
        <ele>32</ele>
        <time>2021-08-06T10:34:29Z</time>
      </trkpt>
      <trkpt lat="47.59601" lon="-2.60895">
        <ele>32</ele>
        <time>2021-08-06T10:34:30Z</time>
      </trkpt>
      <trkpt lat="47.59602" lon="-2.60892">
        <ele>32</ele>
        <time>2021-08-06T10:34:31Z</time>
      </trkpt>
      <trkpt lat="47.59603" lon="-2.60888">
        <ele>32</ele>
        <time>2021-08-06T10:34:32Z</time>
      </trkpt>
      <trkpt lat="47.59604" lon="-2.60885">
        <ele>32.2</ele>
        <time>2021-08-06T10:34:33Z</time>
      </trkpt>
      <trkpt lat="47.59605" lon="-2.60881">
        <ele>32.2</ele>
        <time>2021-08-06T10:34:34Z</time>
      </trkpt>
      <trkpt lat="47.59606" lon="-2.60878">
        <ele>32.2</ele>
        <time>2021-08-06T10:34:35Z</time>
      </trkpt>
      <trkpt lat="47.59607" lon="-2.60874">
        <ele>32.2</ele>
        <time>2021-08-06T10:34:36Z</time>
      </trkpt>
      <trkpt lat="47.59608" lon="-2.6087">
        <ele>32.2</ele>
        <time>2021-08-06T10:34:37Z</time>
      </trkpt>
      <trkpt lat="47.59608" lon="-2.60867">
        <ele>32.2</ele>
        <time>2021-08-06T10:34:38Z</time>
      </trkpt>
      <trkpt lat="47.59609" lon="-2.60863">
        <ele>32.2</ele>
        <time>2021-08-06T10:34:39Z</time>
      </trkpt>
      <trkpt lat="47.5961" lon="-2.60859">
        <ele>32.2</ele>
        <time>2021-08-06T10:34:40Z</time>
      </trkpt>
      <trkpt lat="47.59611" lon="-2.60855">
        <ele>32.2</ele>
        <time>2021-08-06T10:34:41Z</time>
      </trkpt>
      <trkpt lat="47.59612" lon="-2.60851">
        <ele>32.2</ele>
        <time>2021-08-06T10:34:42Z</time>
      </trkpt>
      <trkpt lat="47.59613" lon="-2.60847">
        <ele>32.2</ele>
        <time>2021-08-06T10:34:43Z</time>
      </trkpt>
      <trkpt lat="47.59615" lon="-2.60843">
        <ele>32.2</ele>
        <time>2021-08-06T10:34:44Z</time>
      </trkpt>
      <trkpt lat="47.59616" lon="-2.60838">
        <ele>32.4</ele>
        <time>2021-08-06T10:34:45Z</time>
      </trkpt>
      <trkpt lat="47.59617" lon="-2.60834">
        <ele>32.4</ele>
        <time>2021-08-06T10:34:46Z</time>
      </trkpt>
      <trkpt lat="47.59618" lon="-2.6083">
        <ele>32.6</ele>
        <time>2021-08-06T10:34:47Z</time>
      </trkpt>
      <trkpt lat="47.59619" lon="-2.60825">
        <ele>32.6</ele>
        <time>2021-08-06T10:34:48Z</time>
      </trkpt>
      <trkpt lat="47.5962" lon="-2.6082">
        <ele>32.8</ele>
        <time>2021-08-06T10:34:49Z</time>
      </trkpt>
      <trkpt lat="47.59622" lon="-2.60815">
        <ele>32.8</ele>
        <time>2021-08-06T10:34:50Z</time>
      </trkpt>
      <trkpt lat="47.59623" lon="-2.6081">
        <ele>32.8</ele>
        <time>2021-08-06T10:34:51Z</time>
      </trkpt>
      <trkpt lat="47.59624" lon="-2.60805">
        <ele>32.8</ele>
        <time>2021-08-06T10:34:52Z</time>
      </trkpt>
      <trkpt lat="47.59626" lon="-2.608">
        <ele>32.8</ele>
        <time>2021-08-06T10:34:53Z</time>
      </trkpt>
      <trkpt lat="47.59627" lon="-2.60795">
        <ele>32.8</ele>
        <time>2021-08-06T10:34:54Z</time>
      </trkpt>
      <trkpt lat="47.59629" lon="-2.6079">
        <ele>32.8</ele>
        <time>2021-08-06T10:34:55Z</time>
      </trkpt>
      <trkpt lat="47.5963" lon="-2.60785">
        <ele>32.8</ele>
        <time>2021-08-06T10:34:56Z</time>
      </trkpt>
      <trkpt lat="47.59632" lon="-2.6078">
        <ele>32.8</ele>
        <time>2021-08-06T10:34:57Z</time>
      </trkpt>
      <trkpt lat="47.59633" lon="-2.60776">
        <ele>32.8</ele>
        <time>2021-08-06T10:34:58Z</time>
      </trkpt>
      <trkpt lat="47.59635" lon="-2.60772">
        <ele>32.8</ele>
        <time>2021-08-06T10:34:59Z</time>
      </trkpt>
      <trkpt lat="47.59636" lon="-2.60768">
        <ele>32.8</ele>
        <time>2021-08-06T10:35:00Z</time>
      </trkpt>
      <trkpt lat="47.59638" lon="-2.60763">
        <ele>32.8</ele>
        <time>2021-08-06T10:35:01Z</time>
      </trkpt>
      <trkpt lat="47.59639" lon="-2.60759">
        <ele>32.8</ele>
        <time>2021-08-06T10:35:02Z</time>
      </trkpt>
      <trkpt lat="47.59641" lon="-2.60755">
        <ele>32.8</ele>
        <time>2021-08-06T10:35:03Z</time>
      </trkpt>
      <trkpt lat="47.59643" lon="-2.60751">
        <ele>32.8</ele>
        <time>2021-08-06T10:35:04Z</time>
      </trkpt>
      <trkpt lat="47.59645" lon="-2.60747">
        <ele>32.8</ele>
        <time>2021-08-06T10:35:05Z</time>
      </trkpt>
      <trkpt lat="47.59647" lon="-2.60743">
        <ele>32.8</ele>
        <time>2021-08-06T10:35:06Z</time>
      </trkpt>
      <trkpt lat="47.5965" lon="-2.6074">
        <ele>32.8</ele>
        <time>2021-08-06T10:35:07Z</time>
      </trkpt>
      <trkpt lat="47.59652" lon="-2.60736">
        <ele>32.8</ele>
        <time>2021-08-06T10:35:08Z</time>
      </trkpt>
      <trkpt lat="47.59654" lon="-2.60732">
        <ele>32.8</ele>
        <time>2021-08-06T10:35:09Z</time>
      </trkpt>
      <trkpt lat="47.59656" lon="-2.60728">
        <ele>32.8</ele>
        <time>2021-08-06T10:35:10Z</time>
      </trkpt>
      <trkpt lat="47.59659" lon="-2.60724">
        <ele>32.8</ele>
        <time>2021-08-06T10:35:11Z</time>
      </trkpt>
      <trkpt lat="47.59662" lon="-2.6072">
        <ele>32.8</ele>
        <time>2021-08-06T10:35:12Z</time>
      </trkpt>
      <trkpt lat="47.59665" lon="-2.60715">
        <ele>32.8</ele>
        <time>2021-08-06T10:35:13Z</time>
      </trkpt>
      <trkpt lat="47.59668" lon="-2.6071">
        <ele>32.8</ele>
        <time>2021-08-06T10:35:14Z</time>
      </trkpt>
      <trkpt lat="47.59672" lon="-2.60705">
        <ele>32.6</ele>
        <time>2021-08-06T10:35:15Z</time>
      </trkpt>
      <trkpt lat="47.59675" lon="-2.607">
        <ele>32.6</ele>
        <time>2021-08-06T10:35:16Z</time>
      </trkpt>
      <trkpt lat="47.59679" lon="-2.60694">
        <ele>32.6</ele>
        <time>2021-08-06T10:35:17Z</time>
      </trkpt>
      <trkpt lat="47.59682" lon="-2.60687">
        <ele>32.4</ele>
        <time>2021-08-06T10:35:18Z</time>
      </trkpt>
      <trkpt lat="47.59685" lon="-2.6068">
        <ele>32.4</ele>
        <time>2021-08-06T10:35:19Z</time>
      </trkpt>
      <trkpt lat="47.59688" lon="-2.60673">
        <ele>32.4</ele>
        <time>2021-08-06T10:35:20Z</time>
      </trkpt>
      <trkpt lat="47.59691" lon="-2.60665">
        <ele>32.2</ele>
        <time>2021-08-06T10:35:21Z</time>
      </trkpt>
      <trkpt lat="47.59694" lon="-2.60656">
        <ele>32.2</ele>
        <time>2021-08-06T10:35:22Z</time>
      </trkpt>
      <trkpt lat="47.59696" lon="-2.60648">
        <ele>32.2</ele>
        <time>2021-08-06T10:35:23Z</time>
      </trkpt>
      <trkpt lat="47.59699" lon="-2.60639">
        <ele>32</ele>
        <time>2021-08-06T10:35:24Z</time>
      </trkpt>
      <trkpt lat="47.597" lon="-2.60629">
        <ele>32</ele>
        <time>2021-08-06T10:35:25Z</time>
      </trkpt>
      <trkpt lat="47.59702" lon="-2.6062">
        <ele>32</ele>
        <time>2021-08-06T10:35:26Z</time>
      </trkpt>
      <trkpt lat="47.59703" lon="-2.6061">
        <ele>31.8</ele>
        <time>2021-08-06T10:35:27Z</time>
      </trkpt>
      <trkpt lat="47.59705" lon="-2.60601">
        <ele>31.8</ele>
        <time>2021-08-06T10:35:28Z</time>
      </trkpt>
      <trkpt lat="47.59706" lon="-2.60592">
        <ele>31.6</ele>
        <time>2021-08-06T10:35:29Z</time>
      </trkpt>
      <trkpt lat="47.59708" lon="-2.60583">
        <ele>31.6</ele>
        <time>2021-08-06T10:35:30Z</time>
      </trkpt>
      <trkpt lat="47.59709" lon="-2.60574">
        <ele>31.6</ele>
        <time>2021-08-06T10:35:31Z</time>
      </trkpt>
      <trkpt lat="47.5971" lon="-2.60565">
        <ele>31.6</ele>
        <time>2021-08-06T10:35:32Z</time>
      </trkpt>
      <trkpt lat="47.59711" lon="-2.60557">
        <ele>31.6</ele>
        <time>2021-08-06T10:35:33Z</time>
      </trkpt>
      <trkpt lat="47.59712" lon="-2.6055">
        <ele>31.4</ele>
        <time>2021-08-06T10:35:34Z</time>
      </trkpt>
      <trkpt lat="47.59713" lon="-2.60542">
        <ele>31.4</ele>
        <time>2021-08-06T10:35:35Z</time>
      </trkpt>
      <trkpt lat="47.59714" lon="-2.60535">
        <ele>31.4</ele>
        <time>2021-08-06T10:35:36Z</time>
      </trkpt>
      <trkpt lat="47.59715" lon="-2.60528">
        <ele>31.4</ele>
        <time>2021-08-06T10:35:37Z</time>
      </trkpt>
      <trkpt lat="47.59716" lon="-2.60522">
        <ele>31.4</ele>
        <time>2021-08-06T10:35:38Z</time>
      </trkpt>
      <trkpt lat="47.59717" lon="-2.60515">
        <ele>31.4</ele>
        <time>2021-08-06T10:35:39Z</time>
      </trkpt>
      <trkpt lat="47.59719" lon="-2.60508">
        <ele>31.4</ele>
        <time>2021-08-06T10:35:40Z</time>
      </trkpt>
      <trkpt lat="47.59721" lon="-2.60502">
        <ele>31.4</ele>
        <time>2021-08-06T10:35:41Z</time>
      </trkpt>
      <trkpt lat="47.59724" lon="-2.60495">
        <ele>31.4</ele>
        <time>2021-08-06T10:35:42Z</time>
      </trkpt>
      <trkpt lat="47.59726" lon="-2.60489">
        <ele>31.4</ele>
        <time>2021-08-06T10:35:43Z</time>
      </trkpt>
      <trkpt lat="47.59729" lon="-2.60483">
        <ele>31.4</ele>
        <time>2021-08-06T10:35:44Z</time>
      </trkpt>
      <trkpt lat="47.59732" lon="-2.60477">
        <ele>31.4</ele>
        <time>2021-08-06T10:35:45Z</time>
      </trkpt>
      <trkpt lat="47.59735" lon="-2.60471">
        <ele>31.4</ele>
        <time>2021-08-06T10:35:46Z</time>
      </trkpt>
      <trkpt lat="47.59738" lon="-2.60464">
        <ele>31.4</ele>
        <time>2021-08-06T10:35:47Z</time>
      </trkpt>
      <trkpt lat="47.59742" lon="-2.60458">
        <ele>31.4</ele>
        <time>2021-08-06T10:35:48Z</time>
      </trkpt>
      <trkpt lat="47.59745" lon="-2.60452">
        <ele>31.2</ele>
        <time>2021-08-06T10:35:49Z</time>
      </trkpt>
      <trkpt lat="47.59749" lon="-2.60445">
        <ele>31</ele>
        <time>2021-08-06T10:35:50Z</time>
      </trkpt>
      <trkpt lat="47.59753" lon="-2.60438">
        <ele>30.8</ele>
        <time>2021-08-06T10:35:51Z</time>
      </trkpt>
      <trkpt lat="47.59757" lon="-2.60431">
        <ele>30.8</ele>
        <time>2021-08-06T10:35:52Z</time>
      </trkpt>
      <trkpt lat="47.59761" lon="-2.60423">
        <ele>30.8</ele>
        <time>2021-08-06T10:35:53Z</time>
      </trkpt>
      <trkpt lat="47.59765" lon="-2.60416">
        <ele>30.8</ele>
        <time>2021-08-06T10:35:54Z</time>
      </trkpt>
      <trkpt lat="47.59769" lon="-2.60408">
        <ele>30.6</ele>
        <time>2021-08-06T10:35:55Z</time>
      </trkpt>
      <trkpt lat="47.59772" lon="-2.60399">
        <ele>30.6</ele>
        <time>2021-08-06T10:35:56Z</time>
      </trkpt>
      <trkpt lat="47.59776" lon="-2.60391">
        <ele>30.4</ele>
        <time>2021-08-06T10:35:57Z</time>
      </trkpt>
      <trkpt lat="47.5978" lon="-2.60382">
        <ele>30.2</ele>
        <time>2021-08-06T10:35:58Z</time>
      </trkpt>
      <trkpt lat="47.59784" lon="-2.60373">
        <ele>30</ele>
        <time>2021-08-06T10:35:59Z</time>
      </trkpt>
      <trkpt lat="47.59788" lon="-2.60364">
        <ele>29.6</ele>
        <time>2021-08-06T10:36:00Z</time>
      </trkpt>
      <trkpt lat="47.59792" lon="-2.60354">
        <ele>29.2</ele>
        <time>2021-08-06T10:36:01Z</time>
      </trkpt>
      <trkpt lat="47.59796" lon="-2.60345">
        <ele>28.8</ele>
        <time>2021-08-06T10:36:02Z</time>
      </trkpt>
      <trkpt lat="47.598" lon="-2.60335">
        <ele>28.6</ele>
        <time>2021-08-06T10:36:03Z</time>
      </trkpt>
      <trkpt lat="47.59804" lon="-2.60324">
        <ele>28.2</ele>
        <time>2021-08-06T10:36:04Z</time>
      </trkpt>
      <trkpt lat="47.59808" lon="-2.60314">
        <ele>28</ele>
        <time>2021-08-06T10:36:05Z</time>
      </trkpt>
      <trkpt lat="47.59813" lon="-2.60303">
        <ele>27.6</ele>
        <time>2021-08-06T10:36:06Z</time>
      </trkpt>
      <trkpt lat="47.59818" lon="-2.60293">
        <ele>27.2</ele>
        <time>2021-08-06T10:36:07Z</time>
      </trkpt>
      <trkpt lat="47.59822" lon="-2.60282">
        <ele>26.8</ele>
        <time>2021-08-06T10:36:08Z</time>
      </trkpt>
      <trkpt lat="47.59827" lon="-2.6027">
        <ele>26.6</ele>
        <time>2021-08-06T10:36:09Z</time>
      </trkpt>
      <trkpt lat="47.59832" lon="-2.60259">
        <ele>26.4</ele>
        <time>2021-08-06T10:36:10Z</time>
      </trkpt>
      <trkpt lat="47.59838" lon="-2.60247">
        <ele>26</ele>
        <time>2021-08-06T10:36:11Z</time>
      </trkpt>
      <trkpt lat="47.59843" lon="-2.60235">
        <ele>25.8</ele>
        <time>2021-08-06T10:36:12Z</time>
      </trkpt>
      <trkpt lat="47.59848" lon="-2.60222">
        <ele>25.4</ele>
        <time>2021-08-06T10:36:13Z</time>
      </trkpt>
      <trkpt lat="47.59854" lon="-2.6021">
        <ele>25.2</ele>
        <time>2021-08-06T10:36:14Z</time>
      </trkpt>
      <trkpt lat="47.59859" lon="-2.60198">
        <ele>25</ele>
        <time>2021-08-06T10:36:15Z</time>
      </trkpt>
      <trkpt lat="47.59866" lon="-2.60187">
        <ele>24.8</ele>
        <time>2021-08-06T10:36:16Z</time>
      </trkpt>
      <trkpt lat="47.59872" lon="-2.60176">
        <ele>24.8</ele>
        <time>2021-08-06T10:36:17Z</time>
      </trkpt>
      <trkpt lat="47.59879" lon="-2.60165">
        <ele>24.6</ele>
        <time>2021-08-06T10:36:18Z</time>
      </trkpt>
      <trkpt lat="47.59886" lon="-2.60156">
        <ele>24.6</ele>
        <time>2021-08-06T10:36:19Z</time>
      </trkpt>
      <trkpt lat="47.59894" lon="-2.60147">
        <ele>24</ele>
        <time>2021-08-06T10:36:20Z</time>
      </trkpt>
      <trkpt lat="47.59901" lon="-2.60138">
        <ele>23.6</ele>
        <time>2021-08-06T10:36:21Z</time>
      </trkpt>
      <trkpt lat="47.59909" lon="-2.60129">
        <ele>23.6</ele>
        <time>2021-08-06T10:36:22Z</time>
      </trkpt>
      <trkpt lat="47.59916" lon="-2.60119">
        <ele>23.4</ele>
        <time>2021-08-06T10:36:23Z</time>
      </trkpt>
      <trkpt lat="47.59922" lon="-2.60109">
        <ele>23.4</ele>
        <time>2021-08-06T10:36:24Z</time>
      </trkpt>
      <trkpt lat="47.59928" lon="-2.60098">
        <ele>23.2</ele>
        <time>2021-08-06T10:36:25Z</time>
      </trkpt>
      <trkpt lat="47.59934" lon="-2.60087">
        <ele>23.2</ele>
        <time>2021-08-06T10:36:26Z</time>
      </trkpt>
      <trkpt lat="47.59938" lon="-2.60076">
        <ele>23.2</ele>
        <time>2021-08-06T10:36:27Z</time>
      </trkpt>
      <trkpt lat="47.59943" lon="-2.60064">
        <ele>23.2</ele>
        <time>2021-08-06T10:36:28Z</time>
      </trkpt>
      <trkpt lat="47.59947" lon="-2.60053">
        <ele>23.2</ele>
        <time>2021-08-06T10:36:29Z</time>
      </trkpt>
      <trkpt lat="47.59951" lon="-2.60041">
        <ele>23.2</ele>
        <time>2021-08-06T10:36:30Z</time>
      </trkpt>
      <trkpt lat="47.59954" lon="-2.6003">
        <ele>23.4</ele>
        <time>2021-08-06T10:36:31Z</time>
      </trkpt>
      <trkpt lat="47.59958" lon="-2.60019">
        <ele>23.4</ele>
        <time>2021-08-06T10:36:32Z</time>
      </trkpt>
      <trkpt lat="47.59961" lon="-2.60009">
        <ele>23.4</ele>
        <time>2021-08-06T10:36:33Z</time>
      </trkpt>
      <trkpt lat="47.59965" lon="-2.59999">
        <ele>23.8</ele>
        <time>2021-08-06T10:36:34Z</time>
      </trkpt>
      <trkpt lat="47.59968" lon="-2.59989">
        <ele>24.4</ele>
        <time>2021-08-06T10:36:35Z</time>
      </trkpt>
      <trkpt lat="47.59972" lon="-2.59979">
        <ele>24.6</ele>
        <time>2021-08-06T10:36:36Z</time>
      </trkpt>
      <trkpt lat="47.59975" lon="-2.59969">
        <ele>25</ele>
        <time>2021-08-06T10:36:37Z</time>
      </trkpt>
      <trkpt lat="47.59978" lon="-2.5996">
        <ele>25.4</ele>
        <time>2021-08-06T10:36:38Z</time>
      </trkpt>
      <trkpt lat="47.59981" lon="-2.5995">
        <ele>26</ele>
        <time>2021-08-06T10:36:39Z</time>
      </trkpt>
      <trkpt lat="47.59984" lon="-2.59941">
        <ele>26.4</ele>
        <time>2021-08-06T10:36:40Z</time>
      </trkpt>
      <trkpt lat="47.59987" lon="-2.59931">
        <ele>27.2</ele>
        <time>2021-08-06T10:36:41Z</time>
      </trkpt>
      <trkpt lat="47.5999" lon="-2.59922">
        <ele>27.8</ele>
        <time>2021-08-06T10:36:42Z</time>
      </trkpt>
      <trkpt lat="47.59992" lon="-2.59912">
        <ele>28.4</ele>
        <time>2021-08-06T10:36:43Z</time>
      </trkpt>
      <trkpt lat="47.59993" lon="-2.59902">
        <ele>28.8</ele>
        <time>2021-08-06T10:36:44Z</time>
      </trkpt>
      <trkpt lat="47.59995" lon="-2.59891">
        <ele>29.2</ele>
        <time>2021-08-06T10:36:45Z</time>
      </trkpt>
      <trkpt lat="47.59996" lon="-2.59881">
        <ele>29.6</ele>
        <time>2021-08-06T10:36:46Z</time>
      </trkpt>
      <trkpt lat="47.59996" lon="-2.59871">
        <ele>29.6</ele>
        <time>2021-08-06T10:36:47Z</time>
      </trkpt>
      <trkpt lat="47.59997" lon="-2.59861">
        <ele>29.8</ele>
        <time>2021-08-06T10:36:48Z</time>
      </trkpt>
      <trkpt lat="47.59997" lon="-2.59851">
        <ele>30</ele>
        <time>2021-08-06T10:36:49Z</time>
      </trkpt>
      <trkpt lat="47.59997" lon="-2.5984">
        <ele>30</ele>
        <time>2021-08-06T10:36:50Z</time>
      </trkpt>
      <trkpt lat="47.59998" lon="-2.5983">
        <ele>30.2</ele>
        <time>2021-08-06T10:36:51Z</time>
      </trkpt>
      <trkpt lat="47.59998" lon="-2.5982">
        <ele>30.4</ele>
        <time>2021-08-06T10:36:52Z</time>
      </trkpt>
      <trkpt lat="47.59998" lon="-2.59811">
        <ele>30.4</ele>
        <time>2021-08-06T10:36:53Z</time>
      </trkpt>
      <trkpt lat="47.59999" lon="-2.59801">
        <ele>30.4</ele>
        <time>2021-08-06T10:36:54Z</time>
      </trkpt>
      <trkpt lat="47.59999" lon="-2.59791">
        <ele>30.6</ele>
        <time>2021-08-06T10:36:55Z</time>
      </trkpt>
      <trkpt lat="47.6" lon="-2.59782">
        <ele>30.6</ele>
        <time>2021-08-06T10:36:56Z</time>
      </trkpt>
      <trkpt lat="47.6" lon="-2.59772">
        <ele>30.6</ele>
        <time>2021-08-06T10:36:57Z</time>
      </trkpt>
      <trkpt lat="47.6" lon="-2.59762">
        <ele>30.8</ele>
        <time>2021-08-06T10:36:58Z</time>
      </trkpt>
      <trkpt lat="47.60001" lon="-2.59753">
        <ele>31</ele>
        <time>2021-08-06T10:36:59Z</time>
      </trkpt>
      <trkpt lat="47.60001" lon="-2.59743">
        <ele>31</ele>
        <time>2021-08-06T10:37:00Z</time>
      </trkpt>
      <trkpt lat="47.60002" lon="-2.59734">
        <ele>31.2</ele>
        <time>2021-08-06T10:37:01Z</time>
      </trkpt>
      <trkpt lat="47.60002" lon="-2.59724">
        <ele>31.2</ele>
        <time>2021-08-06T10:37:02Z</time>
      </trkpt>
      <trkpt lat="47.60003" lon="-2.59715">
        <ele>31.6</ele>
        <time>2021-08-06T10:37:03Z</time>
      </trkpt>
      <trkpt lat="47.60004" lon="-2.59706">
        <ele>31.8</ele>
        <time>2021-08-06T10:37:04Z</time>
      </trkpt>
      <trkpt lat="47.60005" lon="-2.59696">
        <ele>32</ele>
        <time>2021-08-06T10:37:05Z</time>
      </trkpt>
      <trkpt lat="47.60007" lon="-2.59687">
        <ele>32.4</ele>
        <time>2021-08-06T10:37:06Z</time>
      </trkpt>
      <trkpt lat="47.60008" lon="-2.59679">
        <ele>32.6</ele>
        <time>2021-08-06T10:37:07Z</time>
      </trkpt>
      <trkpt lat="47.6001" lon="-2.5967">
        <ele>32.8</ele>
        <time>2021-08-06T10:37:08Z</time>
      </trkpt>
      <trkpt lat="47.60013" lon="-2.59662">
        <ele>33</ele>
        <time>2021-08-06T10:37:09Z</time>
      </trkpt>
      <trkpt lat="47.60016" lon="-2.59654">
        <ele>33</ele>
        <time>2021-08-06T10:37:10Z</time>
      </trkpt>
      <trkpt lat="47.60019" lon="-2.59647">
        <ele>33</ele>
        <time>2021-08-06T10:37:11Z</time>
      </trkpt>
      <trkpt lat="47.60022" lon="-2.5964">
        <ele>33.2</ele>
        <time>2021-08-06T10:37:12Z</time>
      </trkpt>
      <trkpt lat="47.60026" lon="-2.59634">
        <ele>33.4</ele>
        <time>2021-08-06T10:37:13Z</time>
      </trkpt>
      <trkpt lat="47.6003" lon="-2.59628">
        <ele>33.6</ele>
        <time>2021-08-06T10:37:14Z</time>
      </trkpt>
      <trkpt lat="47.60034" lon="-2.59621">
        <ele>34</ele>
        <time>2021-08-06T10:37:15Z</time>
      </trkpt>
      <trkpt lat="47.60038" lon="-2.59616">
        <ele>34</ele>
        <time>2021-08-06T10:37:16Z</time>
      </trkpt>
      <trkpt lat="47.60042" lon="-2.5961">
        <ele>34.2</ele>
        <time>2021-08-06T10:37:17Z</time>
      </trkpt>
      <trkpt lat="47.60047" lon="-2.59604">
        <ele>34.2</ele>
        <time>2021-08-06T10:37:18Z</time>
      </trkpt>
      <trkpt lat="47.60052" lon="-2.59599">
        <ele>34.2</ele>
        <time>2021-08-06T10:37:19Z</time>
      </trkpt>
      <trkpt lat="47.60057" lon="-2.59594">
        <ele>34.2</ele>
        <time>2021-08-06T10:37:20Z</time>
      </trkpt>
      <trkpt lat="47.60062" lon="-2.59589">
        <ele>34.2</ele>
        <time>2021-08-06T10:37:21Z</time>
      </trkpt>
      <trkpt lat="47.60067" lon="-2.59585">
        <ele>34.2</ele>
        <time>2021-08-06T10:37:22Z</time>
      </trkpt>
      <trkpt lat="47.60073" lon="-2.5958">
        <ele>34.2</ele>
        <time>2021-08-06T10:37:23Z</time>
      </trkpt>
      <trkpt lat="47.60078" lon="-2.59575">
        <ele>34.2</ele>
        <time>2021-08-06T10:37:24Z</time>
      </trkpt>
      <trkpt lat="47.60084" lon="-2.59569">
        <ele>34.4</ele>
        <time>2021-08-06T10:37:25Z</time>
      </trkpt>
      <trkpt lat="47.60089" lon="-2.59564">
        <ele>34.2</ele>
        <time>2021-08-06T10:37:26Z</time>
      </trkpt>
      <trkpt lat="47.60095" lon="-2.59559">
        <ele>33.8</ele>
        <time>2021-08-06T10:37:27Z</time>
      </trkpt>
      <trkpt lat="47.60101" lon="-2.59555">
        <ele>33.6</ele>
        <time>2021-08-06T10:37:28Z</time>
      </trkpt>
      <trkpt lat="47.60108" lon="-2.59551">
        <ele>33.2</ele>
        <time>2021-08-06T10:37:29Z</time>
      </trkpt>
      <trkpt lat="47.60114" lon="-2.59547">
        <ele>33</ele>
        <time>2021-08-06T10:37:30Z</time>
      </trkpt>
      <trkpt lat="47.60121" lon="-2.59545">
        <ele>32.8</ele>
        <time>2021-08-06T10:37:31Z</time>
      </trkpt>
      <trkpt lat="47.60128" lon="-2.59542">
        <ele>32.6</ele>
        <time>2021-08-06T10:37:32Z</time>
      </trkpt>
      <trkpt lat="47.60135" lon="-2.5954">
        <ele>32.6</ele>
        <time>2021-08-06T10:37:33Z</time>
      </trkpt>
      <trkpt lat="47.60143" lon="-2.59539">
        <ele>32.4</ele>
        <time>2021-08-06T10:37:34Z</time>
      </trkpt>
      <trkpt lat="47.6015" lon="-2.59539">
        <ele>32.2</ele>
        <time>2021-08-06T10:37:35Z</time>
      </trkpt>
      <trkpt lat="47.60158" lon="-2.59538">
        <ele>31.8</ele>
        <time>2021-08-06T10:37:36Z</time>
      </trkpt>
      <trkpt lat="47.60165" lon="-2.59538">
        <ele>31.6</ele>
        <time>2021-08-06T10:37:37Z</time>
      </trkpt>
      <trkpt lat="47.60173" lon="-2.59539">
        <ele>31.4</ele>
        <time>2021-08-06T10:37:38Z</time>
      </trkpt>
      <trkpt lat="47.60181" lon="-2.59539">
        <ele>31.2</ele>
        <time>2021-08-06T10:37:39Z</time>
      </trkpt>
      <trkpt lat="47.60188" lon="-2.59539">
        <ele>31</ele>
        <time>2021-08-06T10:37:40Z</time>
      </trkpt>
      <trkpt lat="47.60196" lon="-2.59539">
        <ele>30.4</ele>
        <time>2021-08-06T10:37:41Z</time>
      </trkpt>
      <trkpt lat="47.60205" lon="-2.59538">
        <ele>30</ele>
        <time>2021-08-06T10:37:42Z</time>
      </trkpt>
      <trkpt lat="47.60213" lon="-2.59535">
        <ele>29.8</ele>
        <time>2021-08-06T10:37:43Z</time>
      </trkpt>
      <trkpt lat="47.60221" lon="-2.59531">
        <ele>29.8</ele>
        <time>2021-08-06T10:37:44Z</time>
      </trkpt>
      <trkpt lat="47.60228" lon="-2.59524">
        <ele>29.4</ele>
        <time>2021-08-06T10:37:45Z</time>
      </trkpt>
      <trkpt lat="47.60235" lon="-2.59516">
        <ele>29.2</ele>
        <time>2021-08-06T10:37:46Z</time>
      </trkpt>
      <trkpt lat="47.6024" lon="-2.59508">
        <ele>29</ele>
        <time>2021-08-06T10:37:47Z</time>
      </trkpt>
      <trkpt lat="47.60244" lon="-2.59501">
        <ele>29</ele>
        <time>2021-08-06T10:37:48Z</time>
      </trkpt>
      <trkpt lat="47.60248" lon="-2.59494">
        <ele>29</ele>
        <time>2021-08-06T10:37:49Z</time>
      </trkpt>
      <trkpt lat="47.6025" lon="-2.59489">
        <ele>29</ele>
        <time>2021-08-06T10:37:50Z</time>
      </trkpt>
      <trkpt lat="47.60252" lon="-2.59485">
        <ele>29</ele>
        <time>2021-08-06T10:37:51Z</time>
      </trkpt>
      <trkpt lat="47.60253" lon="-2.59482">
        <ele>29</ele>
        <time>2021-08-06T10:37:52Z</time>
      </trkpt>
      <trkpt lat="47.60253" lon="-2.5948">
        <ele>28.8</ele>
        <time>2021-08-06T10:37:53Z</time>
      </trkpt>
      <trkpt lat="47.60253" lon="-2.59478">
        <ele>28.8</ele>
        <time>2021-08-06T10:37:54Z</time>
      </trkpt>
      <trkpt lat="47.60253" lon="-2.59476">
        <ele>28.8</ele>
        <time>2021-08-06T10:37:55Z</time>
      </trkpt>
      <trkpt lat="47.60253" lon="-2.59476">
        <ele>28.8</ele>
        <time>2021-08-06T10:37:56Z</time>
      </trkpt>
      <trkpt lat="47.60253" lon="-2.59476">
        <ele>28.8</ele>
        <time>2021-08-06T10:37:57Z</time>
      </trkpt>
      <trkpt lat="47.60253" lon="-2.59475">
        <ele>29.6</ele>
        <time>2021-08-06T10:38:32Z</time>
      </trkpt>
      <trkpt lat="47.60253" lon="-2.59474">
        <ele>29.4</ele>
        <time>2021-08-06T10:38:33Z</time>
      </trkpt>
      <trkpt lat="47.60254" lon="-2.59473">
        <ele>29.6</ele>
        <time>2021-08-06T10:38:34Z</time>
      </trkpt>
      <trkpt lat="47.60256" lon="-2.59471">
        <ele>29.6</ele>
        <time>2021-08-06T10:38:35Z</time>
      </trkpt>
      <trkpt lat="47.60257" lon="-2.59469">
        <ele>29.6</ele>
        <time>2021-08-06T10:38:36Z</time>
      </trkpt>
      <trkpt lat="47.6026" lon="-2.59468">
        <ele>29.6</ele>
        <time>2021-08-06T10:38:37Z</time>
      </trkpt>
      <trkpt lat="47.60262" lon="-2.59466">
        <ele>29.6</ele>
        <time>2021-08-06T10:38:38Z</time>
      </trkpt>
      <trkpt lat="47.60265" lon="-2.59463">
        <ele>29.4</ele>
        <time>2021-08-06T10:38:39Z</time>
      </trkpt>
      <trkpt lat="47.60268" lon="-2.5946">
        <ele>29.4</ele>
        <time>2021-08-06T10:38:40Z</time>
      </trkpt>
      <trkpt lat="47.60269" lon="-2.59456">
        <ele>29.4</ele>
        <time>2021-08-06T10:38:41Z</time>
      </trkpt>
      <trkpt lat="47.60271" lon="-2.59452">
        <ele>29.4</ele>
        <time>2021-08-06T10:38:42Z</time>
      </trkpt>
      <trkpt lat="47.60273" lon="-2.59448">
        <ele>29.4</ele>
        <time>2021-08-06T10:38:43Z</time>
      </trkpt>
      <trkpt lat="47.60276" lon="-2.59444">
        <ele>29.4</ele>
        <time>2021-08-06T10:38:44Z</time>
      </trkpt>
      <trkpt lat="47.60278" lon="-2.5944">
        <ele>29.2</ele>
        <time>2021-08-06T10:38:45Z</time>
      </trkpt>
      <trkpt lat="47.6028" lon="-2.59437">
        <ele>29.2</ele>
        <time>2021-08-06T10:38:46Z</time>
      </trkpt>
      <trkpt lat="47.60282" lon="-2.59432">
        <ele>29</ele>
        <time>2021-08-06T10:38:47Z</time>
      </trkpt>
      <trkpt lat="47.60285" lon="-2.59428">
        <ele>29</ele>
        <time>2021-08-06T10:38:48Z</time>
      </trkpt>
      <trkpt lat="47.60288" lon="-2.59423">
        <ele>29</ele>
        <time>2021-08-06T10:38:49Z</time>
      </trkpt>
      <trkpt lat="47.6029" lon="-2.59419">
        <ele>29</ele>
        <time>2021-08-06T10:38:50Z</time>
      </trkpt>
      <trkpt lat="47.60292" lon="-2.59414">
        <ele>29</ele>
        <time>2021-08-06T10:38:51Z</time>
      </trkpt>
      <trkpt lat="47.60294" lon="-2.59409">
        <ele>29</ele>
        <time>2021-08-06T10:38:52Z</time>
      </trkpt>
      <trkpt lat="47.60296" lon="-2.59405">
        <ele>29</ele>
        <time>2021-08-06T10:38:53Z</time>
      </trkpt>
      <trkpt lat="47.60297" lon="-2.59401">
        <ele>29</ele>
        <time>2021-08-06T10:38:54Z</time>
      </trkpt>
      <trkpt lat="47.60299" lon="-2.59397">
        <ele>29</ele>
        <time>2021-08-06T10:38:55Z</time>
      </trkpt>
      <trkpt lat="47.60301" lon="-2.59393">
        <ele>29</ele>
        <time>2021-08-06T10:38:56Z</time>
      </trkpt>
      <trkpt lat="47.60302" lon="-2.59389">
        <ele>29</ele>
        <time>2021-08-06T10:38:57Z</time>
      </trkpt>
      <trkpt lat="47.60304" lon="-2.59385">
        <ele>29</ele>
        <time>2021-08-06T10:38:58Z</time>
      </trkpt>
      <trkpt lat="47.60305" lon="-2.59381">
        <ele>29.2</ele>
        <time>2021-08-06T10:38:59Z</time>
      </trkpt>
      <trkpt lat="47.60306" lon="-2.59377">
        <ele>29.4</ele>
        <time>2021-08-06T10:39:00Z</time>
      </trkpt>
      <trkpt lat="47.60306" lon="-2.59373">
        <ele>29.6</ele>
        <time>2021-08-06T10:39:01Z</time>
      </trkpt>
      <trkpt lat="47.60307" lon="-2.59369">
        <ele>29.8</ele>
        <time>2021-08-06T10:39:02Z</time>
      </trkpt>
      <trkpt lat="47.60307" lon="-2.59364">
        <ele>30</ele>
        <time>2021-08-06T10:39:03Z</time>
      </trkpt>
      <trkpt lat="47.60307" lon="-2.59359">
        <ele>30.2</ele>
        <time>2021-08-06T10:39:04Z</time>
      </trkpt>
      <trkpt lat="47.60307" lon="-2.59355">
        <ele>30.6</ele>
        <time>2021-08-06T10:39:05Z</time>
      </trkpt>
      <trkpt lat="47.60306" lon="-2.5935">
        <ele>31.2</ele>
        <time>2021-08-06T10:39:06Z</time>
      </trkpt>
      <trkpt lat="47.60306" lon="-2.59345">
        <ele>31.4</ele>
        <time>2021-08-06T10:39:07Z</time>
      </trkpt>
      <trkpt lat="47.60305" lon="-2.5934">
        <ele>31.6</ele>
        <time>2021-08-06T10:39:08Z</time>
      </trkpt>
      <trkpt lat="47.60303" lon="-2.59335">
        <ele>31.6</ele>
        <time>2021-08-06T10:39:09Z</time>
      </trkpt>
      <trkpt lat="47.60302" lon="-2.59331">
        <ele>31.8</ele>
        <time>2021-08-06T10:39:10Z</time>
      </trkpt>
      <trkpt lat="47.603" lon="-2.59326">
        <ele>32</ele>
        <time>2021-08-06T10:39:11Z</time>
      </trkpt>
      <trkpt lat="47.60299" lon="-2.59322">
        <ele>32</ele>
        <time>2021-08-06T10:39:12Z</time>
      </trkpt>
      <trkpt lat="47.60297" lon="-2.59318">
        <ele>32</ele>
        <time>2021-08-06T10:39:13Z</time>
      </trkpt>
      <trkpt lat="47.60296" lon="-2.59315">
        <ele>32.2</ele>
        <time>2021-08-06T10:39:14Z</time>
      </trkpt>
      <trkpt lat="47.60295" lon="-2.59311">
        <ele>32.2</ele>
        <time>2021-08-06T10:39:15Z</time>
      </trkpt>
      <trkpt lat="47.60293" lon="-2.59307">
        <ele>32.4</ele>
        <time>2021-08-06T10:39:16Z</time>
      </trkpt>
      <trkpt lat="47.60292" lon="-2.59302">
        <ele>32.6</ele>
        <time>2021-08-06T10:39:17Z</time>
      </trkpt>
      <trkpt lat="47.6029" lon="-2.59298">
        <ele>32.8</ele>
        <time>2021-08-06T10:39:18Z</time>
      </trkpt>
      <trkpt lat="47.60288" lon="-2.59295">
        <ele>33</ele>
        <time>2021-08-06T10:39:19Z</time>
      </trkpt>
      <trkpt lat="47.60287" lon="-2.59291">
        <ele>33</ele>
        <time>2021-08-06T10:39:20Z</time>
      </trkpt>
      <trkpt lat="47.60285" lon="-2.59287">
        <ele>33.2</ele>
        <time>2021-08-06T10:39:21Z</time>
      </trkpt>
      <trkpt lat="47.60284" lon="-2.59283">
        <ele>33.4</ele>
        <time>2021-08-06T10:39:22Z</time>
      </trkpt>
      <trkpt lat="47.60284" lon="-2.59279">
        <ele>33.6</ele>
        <time>2021-08-06T10:39:23Z</time>
      </trkpt>
      <trkpt lat="47.60285" lon="-2.59274">
        <ele>33.8</ele>
        <time>2021-08-06T10:39:24Z</time>
      </trkpt>
      <trkpt lat="47.60287" lon="-2.5927">
        <ele>34</ele>
        <time>2021-08-06T10:39:25Z</time>
      </trkpt>
      <trkpt lat="47.6029" lon="-2.59267">
        <ele>34.2</ele>
        <time>2021-08-06T10:39:26Z</time>
      </trkpt>
      <trkpt lat="47.60293" lon="-2.59264">
        <ele>34.4</ele>
        <time>2021-08-06T10:39:27Z</time>
      </trkpt>
      <trkpt lat="47.60297" lon="-2.59262">
        <ele>34.4</ele>
        <time>2021-08-06T10:39:28Z</time>
      </trkpt>
      <trkpt lat="47.60302" lon="-2.5926">
        <ele>34.4</ele>
        <time>2021-08-06T10:39:29Z</time>
      </trkpt>
      <trkpt lat="47.60306" lon="-2.59258">
        <ele>34.4</ele>
        <time>2021-08-06T10:39:30Z</time>
      </trkpt>
      <trkpt lat="47.6031" lon="-2.59256">
        <ele>34.4</ele>
        <time>2021-08-06T10:39:31Z</time>
      </trkpt>
      <trkpt lat="47.60315" lon="-2.59254">
        <ele>34.4</ele>
        <time>2021-08-06T10:39:32Z</time>
      </trkpt>
      <trkpt lat="47.60319" lon="-2.59253">
        <ele>34.4</ele>
        <time>2021-08-06T10:39:33Z</time>
      </trkpt>
      <trkpt lat="47.60324" lon="-2.59251">
        <ele>34.4</ele>
        <time>2021-08-06T10:39:34Z</time>
      </trkpt>
      <trkpt lat="47.60328" lon="-2.59249">
        <ele>34.4</ele>
        <time>2021-08-06T10:39:35Z</time>
      </trkpt>
      <trkpt lat="47.60333" lon="-2.59248">
        <ele>34.4</ele>
        <time>2021-08-06T10:39:36Z</time>
      </trkpt>
      <trkpt lat="47.60338" lon="-2.59247">
        <ele>34.4</ele>
        <time>2021-08-06T10:39:37Z</time>
      </trkpt>
      <trkpt lat="47.60342" lon="-2.59246">
        <ele>34.2</ele>
        <time>2021-08-06T10:39:38Z</time>
      </trkpt>
      <trkpt lat="47.60347" lon="-2.59245">
        <ele>34.2</ele>
        <time>2021-08-06T10:39:39Z</time>
      </trkpt>
      <trkpt lat="47.60351" lon="-2.59242">
        <ele>34</ele>
        <time>2021-08-06T10:39:40Z</time>
      </trkpt>
      <trkpt lat="47.60355" lon="-2.5924">
        <ele>34</ele>
        <time>2021-08-06T10:39:41Z</time>
      </trkpt>
      <trkpt lat="47.60359" lon="-2.59238">
        <ele>34</ele>
        <time>2021-08-06T10:39:42Z</time>
      </trkpt>
      <trkpt lat="47.60363" lon="-2.59236">
        <ele>33.8</ele>
        <time>2021-08-06T10:39:43Z</time>
      </trkpt>
      <trkpt lat="47.60367" lon="-2.59234">
        <ele>33.8</ele>
        <time>2021-08-06T10:39:44Z</time>
      </trkpt>
      <trkpt lat="47.6037" lon="-2.59232">
        <ele>33.8</ele>
        <time>2021-08-06T10:39:45Z</time>
      </trkpt>
      <trkpt lat="47.60374" lon="-2.59229">
        <ele>33.8</ele>
        <time>2021-08-06T10:39:46Z</time>
      </trkpt>
      <trkpt lat="47.60378" lon="-2.59226">
        <ele>34</ele>
        <time>2021-08-06T10:39:47Z</time>
      </trkpt>
      <trkpt lat="47.60381" lon="-2.59222">
        <ele>34</ele>
        <time>2021-08-06T10:39:48Z</time>
      </trkpt>
      <trkpt lat="47.60385" lon="-2.59219">
        <ele>34</ele>
        <time>2021-08-06T10:39:49Z</time>
      </trkpt>
      <trkpt lat="47.60388" lon="-2.59215">
        <ele>34.4</ele>
        <time>2021-08-06T10:39:50Z</time>
      </trkpt>
      <trkpt lat="47.60391" lon="-2.59211">
        <ele>34.4</ele>
        <time>2021-08-06T10:39:51Z</time>
      </trkpt>
      <trkpt lat="47.60394" lon="-2.59207">
        <ele>34.6</ele>
        <time>2021-08-06T10:39:52Z</time>
      </trkpt>
      <trkpt lat="47.60397" lon="-2.59204">
        <ele>34.6</ele>
        <time>2021-08-06T10:39:53Z</time>
      </trkpt>
      <trkpt lat="47.60399" lon="-2.59201">
        <ele>34.6</ele>
        <time>2021-08-06T10:39:54Z</time>
      </trkpt>
      <trkpt lat="47.60402" lon="-2.59199">
        <ele>34.8</ele>
        <time>2021-08-06T10:39:55Z</time>
      </trkpt>
      <trkpt lat="47.60405" lon="-2.59197">
        <ele>34.8</ele>
        <time>2021-08-06T10:39:56Z</time>
      </trkpt>
      <trkpt lat="47.60407" lon="-2.59195">
        <ele>35</ele>
        <time>2021-08-06T10:39:57Z</time>
      </trkpt>
      <trkpt lat="47.60409" lon="-2.59191">
        <ele>35</ele>
        <time>2021-08-06T10:39:58Z</time>
      </trkpt>
      <trkpt lat="47.6041" lon="-2.59186">
        <ele>35.2</ele>
        <time>2021-08-06T10:39:59Z</time>
      </trkpt>
      <trkpt lat="47.6041" lon="-2.59181">
        <ele>35.2</ele>
        <time>2021-08-06T10:40:00Z</time>
      </trkpt>
      <trkpt lat="47.6041" lon="-2.59176">
        <ele>35.2</ele>
        <time>2021-08-06T10:40:01Z</time>
      </trkpt>
      <trkpt lat="47.6041" lon="-2.59171">
        <ele>35.2</ele>
        <time>2021-08-06T10:40:02Z</time>
      </trkpt>
      <trkpt lat="47.6041" lon="-2.59166">
        <ele>35.2</ele>
        <time>2021-08-06T10:40:03Z</time>
      </trkpt>
      <trkpt lat="47.60409" lon="-2.5916">
        <ele>35.2</ele>
        <time>2021-08-06T10:40:04Z</time>
      </trkpt>
      <trkpt lat="47.60409" lon="-2.59155">
        <ele>35.4</ele>
        <time>2021-08-06T10:40:05Z</time>
      </trkpt>
      <trkpt lat="47.60409" lon="-2.59149">
        <ele>35.4</ele>
        <time>2021-08-06T10:40:06Z</time>
      </trkpt>
      <trkpt lat="47.60409" lon="-2.59144">
        <ele>35.4</ele>
        <time>2021-08-06T10:40:07Z</time>
      </trkpt>
      <trkpt lat="47.60409" lon="-2.59138">
        <ele>35.4</ele>
        <time>2021-08-06T10:40:08Z</time>
      </trkpt>
      <trkpt lat="47.60409" lon="-2.59132">
        <ele>35.4</ele>
        <time>2021-08-06T10:40:09Z</time>
      </trkpt>
      <trkpt lat="47.60408" lon="-2.59126">
        <ele>35.4</ele>
        <time>2021-08-06T10:40:10Z</time>
      </trkpt>
      <trkpt lat="47.60408" lon="-2.59121">
        <ele>35.4</ele>
        <time>2021-08-06T10:40:11Z</time>
      </trkpt>
      <trkpt lat="47.60408" lon="-2.59115">
        <ele>35.4</ele>
        <time>2021-08-06T10:40:12Z</time>
      </trkpt>
      <trkpt lat="47.60407" lon="-2.59109">
        <ele>35.4</ele>
        <time>2021-08-06T10:40:13Z</time>
      </trkpt>
      <trkpt lat="47.60407" lon="-2.59103">
        <ele>35.6</ele>
        <time>2021-08-06T10:40:14Z</time>
      </trkpt>
      <trkpt lat="47.60406" lon="-2.59097">
        <ele>35.6</ele>
        <time>2021-08-06T10:40:15Z</time>
      </trkpt>
      <trkpt lat="47.60406" lon="-2.59091">
        <ele>35.6</ele>
        <time>2021-08-06T10:40:16Z</time>
      </trkpt>
      <trkpt lat="47.60406" lon="-2.59085">
        <ele>35.6</ele>
        <time>2021-08-06T10:40:17Z</time>
      </trkpt>
      <trkpt lat="47.60405" lon="-2.59079">
        <ele>35.8</ele>
        <time>2021-08-06T10:40:18Z</time>
      </trkpt>
      <trkpt lat="47.60405" lon="-2.59072">
        <ele>36</ele>
        <time>2021-08-06T10:40:19Z</time>
      </trkpt>
      <trkpt lat="47.60404" lon="-2.59066">
        <ele>36.2</ele>
        <time>2021-08-06T10:40:20Z</time>
      </trkpt>
      <trkpt lat="47.60403" lon="-2.5906">
        <ele>36.2</ele>
        <time>2021-08-06T10:40:21Z</time>
      </trkpt>
      <trkpt lat="47.60402" lon="-2.59054">
        <ele>36.4</ele>
        <time>2021-08-06T10:40:22Z</time>
      </trkpt>
      <trkpt lat="47.60401" lon="-2.59049">
        <ele>36.4</ele>
        <time>2021-08-06T10:40:23Z</time>
      </trkpt>
      <trkpt lat="47.604" lon="-2.59043">
        <ele>36.6</ele>
        <time>2021-08-06T10:40:24Z</time>
      </trkpt>
      <trkpt lat="47.60398" lon="-2.59038">
        <ele>36.8</ele>
        <time>2021-08-06T10:40:25Z</time>
      </trkpt>
      <trkpt lat="47.60396" lon="-2.59033">
        <ele>36.8</ele>
        <time>2021-08-06T10:40:26Z</time>
      </trkpt>
      <trkpt lat="47.60395" lon="-2.59027">
        <ele>36.8</ele>
        <time>2021-08-06T10:40:27Z</time>
      </trkpt>
      <trkpt lat="47.60393" lon="-2.59022">
        <ele>36.8</ele>
        <time>2021-08-06T10:40:28Z</time>
      </trkpt>
      <trkpt lat="47.60392" lon="-2.59016">
        <ele>37</ele>
        <time>2021-08-06T10:40:29Z</time>
      </trkpt>
      <trkpt lat="47.60391" lon="-2.5901">
        <ele>37.2</ele>
        <time>2021-08-06T10:40:30Z</time>
      </trkpt>
      <trkpt lat="47.60389" lon="-2.59005">
        <ele>37.4</ele>
        <time>2021-08-06T10:40:31Z</time>
      </trkpt>
      <trkpt lat="47.60387" lon="-2.59">
        <ele>37.6</ele>
        <time>2021-08-06T10:40:32Z</time>
      </trkpt>
      <trkpt lat="47.60385" lon="-2.58995">
        <ele>37.8</ele>
        <time>2021-08-06T10:40:33Z</time>
      </trkpt>
      <trkpt lat="47.60383" lon="-2.58989">
        <ele>38</ele>
        <time>2021-08-06T10:40:34Z</time>
      </trkpt>
      <trkpt lat="47.60382" lon="-2.58984">
        <ele>38</ele>
        <time>2021-08-06T10:40:35Z</time>
      </trkpt>
      <trkpt lat="47.6038" lon="-2.58978">
        <ele>38.2</ele>
        <time>2021-08-06T10:40:36Z</time>
      </trkpt>
      <trkpt lat="47.60379" lon="-2.58972">
        <ele>38.2</ele>
        <time>2021-08-06T10:40:37Z</time>
      </trkpt>
      <trkpt lat="47.60377" lon="-2.58967">
        <ele>38.2</ele>
        <time>2021-08-06T10:40:38Z</time>
      </trkpt>
      <trkpt lat="47.60375" lon="-2.58961">
        <ele>38.4</ele>
        <time>2021-08-06T10:40:39Z</time>
      </trkpt>
      <trkpt lat="47.60373" lon="-2.58956">
        <ele>38.4</ele>
        <time>2021-08-06T10:40:40Z</time>
      </trkpt>
      <trkpt lat="47.60372" lon="-2.5895">
        <ele>38.6</ele>
        <time>2021-08-06T10:40:41Z</time>
      </trkpt>
      <trkpt lat="47.6037" lon="-2.58944">
        <ele>38.6</ele>
        <time>2021-08-06T10:40:42Z</time>
      </trkpt>
      <trkpt lat="47.60368" lon="-2.58939">
        <ele>38.8</ele>
        <time>2021-08-06T10:40:43Z</time>
      </trkpt>
      <trkpt lat="47.60366" lon="-2.58933">
        <ele>38.8</ele>
        <time>2021-08-06T10:40:44Z</time>
      </trkpt>
      <trkpt lat="47.60365" lon="-2.58927">
        <ele>39</ele>
        <time>2021-08-06T10:40:45Z</time>
      </trkpt>
      <trkpt lat="47.60363" lon="-2.58921">
        <ele>39</ele>
        <time>2021-08-06T10:40:46Z</time>
      </trkpt>
      <trkpt lat="47.60361" lon="-2.58915">
        <ele>39.2</ele>
        <time>2021-08-06T10:40:47Z</time>
      </trkpt>
      <trkpt lat="47.6036" lon="-2.58909">
        <ele>39.2</ele>
        <time>2021-08-06T10:40:48Z</time>
      </trkpt>
      <trkpt lat="47.60358" lon="-2.58903">
        <ele>39.4</ele>
        <time>2021-08-06T10:40:49Z</time>
      </trkpt>
      <trkpt lat="47.60356" lon="-2.58897">
        <ele>39.6</ele>
        <time>2021-08-06T10:40:50Z</time>
      </trkpt>
      <trkpt lat="47.60354" lon="-2.58891">
        <ele>39.6</ele>
        <time>2021-08-06T10:40:51Z</time>
      </trkpt>
      <trkpt lat="47.60353" lon="-2.58884">
        <ele>39.8</ele>
        <time>2021-08-06T10:40:52Z</time>
      </trkpt>
      <trkpt lat="47.60351" lon="-2.58878">
        <ele>40.2</ele>
        <time>2021-08-06T10:40:53Z</time>
      </trkpt>
      <trkpt lat="47.6035" lon="-2.58872">
        <ele>40.2</ele>
        <time>2021-08-06T10:40:54Z</time>
      </trkpt>
      <trkpt lat="47.60348" lon="-2.58865">
        <ele>40.4</ele>
        <time>2021-08-06T10:40:55Z</time>
      </trkpt>
      <trkpt lat="47.60346" lon="-2.58859">
        <ele>40.4</ele>
        <time>2021-08-06T10:40:56Z</time>
      </trkpt>
      <trkpt lat="47.60344" lon="-2.58853">
        <ele>40.4</ele>
        <time>2021-08-06T10:40:57Z</time>
      </trkpt>
      <trkpt lat="47.60342" lon="-2.58846">
        <ele>40.4</ele>
        <time>2021-08-06T10:40:58Z</time>
      </trkpt>
      <trkpt lat="47.60341" lon="-2.5884">
        <ele>40.4</ele>
        <time>2021-08-06T10:40:59Z</time>
      </trkpt>
      <trkpt lat="47.60339" lon="-2.58833">
        <ele>40.4</ele>
        <time>2021-08-06T10:41:00Z</time>
      </trkpt>
      <trkpt lat="47.60337" lon="-2.58826">
        <ele>40.4</ele>
        <time>2021-08-06T10:41:01Z</time>
      </trkpt>
      <trkpt lat="47.60336" lon="-2.5882">
        <ele>40.4</ele>
        <time>2021-08-06T10:41:02Z</time>
      </trkpt>
      <trkpt lat="47.60334" lon="-2.58813">
        <ele>40.4</ele>
        <time>2021-08-06T10:41:03Z</time>
      </trkpt>
      <trkpt lat="47.60333" lon="-2.58806">
        <ele>40.4</ele>
        <time>2021-08-06T10:41:04Z</time>
      </trkpt>
      <trkpt lat="47.60331" lon="-2.588">
        <ele>40.4</ele>
        <time>2021-08-06T10:41:05Z</time>
      </trkpt>
      <trkpt lat="47.60329" lon="-2.58793">
        <ele>40.4</ele>
        <time>2021-08-06T10:41:06Z</time>
      </trkpt>
      <trkpt lat="47.60327" lon="-2.58787">
        <ele>40.4</ele>
        <time>2021-08-06T10:41:07Z</time>
      </trkpt>
      <trkpt lat="47.60326" lon="-2.5878">
        <ele>40.4</ele>
        <time>2021-08-06T10:41:08Z</time>
      </trkpt>
      <trkpt lat="47.60324" lon="-2.58773">
        <ele>40.4</ele>
        <time>2021-08-06T10:41:09Z</time>
      </trkpt>
      <trkpt lat="47.60322" lon="-2.58766">
        <ele>40.4</ele>
        <time>2021-08-06T10:41:10Z</time>
      </trkpt>
      <trkpt lat="47.60321" lon="-2.58759">
        <ele>40.4</ele>
        <time>2021-08-06T10:41:11Z</time>
      </trkpt>
      <trkpt lat="47.60319" lon="-2.58752">
        <ele>40.2</ele>
        <time>2021-08-06T10:41:12Z</time>
      </trkpt>
      <trkpt lat="47.60317" lon="-2.58745">
        <ele>40</ele>
        <time>2021-08-06T10:41:13Z</time>
      </trkpt>
      <trkpt lat="47.60315" lon="-2.58738">
        <ele>40</ele>
        <time>2021-08-06T10:41:14Z</time>
      </trkpt>
      <trkpt lat="47.60314" lon="-2.58731">
        <ele>40</ele>
        <time>2021-08-06T10:41:15Z</time>
      </trkpt>
      <trkpt lat="47.60312" lon="-2.58724">
        <ele>39.8</ele>
        <time>2021-08-06T10:41:16Z</time>
      </trkpt>
      <trkpt lat="47.6031" lon="-2.58718">
        <ele>39.8</ele>
        <time>2021-08-06T10:41:17Z</time>
      </trkpt>
      <trkpt lat="47.60308" lon="-2.58711">
        <ele>39.8</ele>
        <time>2021-08-06T10:41:18Z</time>
      </trkpt>
      <trkpt lat="47.60307" lon="-2.58705">
        <ele>39.8</ele>
        <time>2021-08-06T10:41:19Z</time>
      </trkpt>
      <trkpt lat="47.60306" lon="-2.58698">
        <ele>39.8</ele>
        <time>2021-08-06T10:41:20Z</time>
      </trkpt>
      <trkpt lat="47.60306" lon="-2.58691">
        <ele>39.8</ele>
        <time>2021-08-06T10:41:21Z</time>
      </trkpt>
      <trkpt lat="47.60308" lon="-2.58684">
        <ele>39.6</ele>
        <time>2021-08-06T10:41:22Z</time>
      </trkpt>
      <trkpt lat="47.6031" lon="-2.58678">
        <ele>39.6</ele>
        <time>2021-08-06T10:41:23Z</time>
      </trkpt>
      <trkpt lat="47.60312" lon="-2.58671">
        <ele>39.6</ele>
        <time>2021-08-06T10:41:24Z</time>
      </trkpt>
      <trkpt lat="47.60314" lon="-2.58664">
        <ele>39.6</ele>
        <time>2021-08-06T10:41:25Z</time>
      </trkpt>
      <trkpt lat="47.60317" lon="-2.58657">
        <ele>39.4</ele>
        <time>2021-08-06T10:41:26Z</time>
      </trkpt>
      <trkpt lat="47.60319" lon="-2.5865">
        <ele>39.4</ele>
        <time>2021-08-06T10:41:27Z</time>
      </trkpt>
      <trkpt lat="47.60322" lon="-2.58643">
        <ele>39.4</ele>
        <time>2021-08-06T10:41:28Z</time>
      </trkpt>
      <trkpt lat="47.60325" lon="-2.58636">
        <ele>39.4</ele>
        <time>2021-08-06T10:41:29Z</time>
      </trkpt>
      <trkpt lat="47.60328" lon="-2.58629">
        <ele>39.4</ele>
        <time>2021-08-06T10:41:30Z</time>
      </trkpt>
      <trkpt lat="47.60332" lon="-2.58622">
        <ele>39.4</ele>
        <time>2021-08-06T10:41:31Z</time>
      </trkpt>
      <trkpt lat="47.60334" lon="-2.58615">
        <ele>39.2</ele>
        <time>2021-08-06T10:41:32Z</time>
      </trkpt>
      <trkpt lat="47.60337" lon="-2.58608">
        <ele>39.2</ele>
        <time>2021-08-06T10:41:33Z</time>
      </trkpt>
      <trkpt lat="47.60339" lon="-2.586">
        <ele>39.2</ele>
        <time>2021-08-06T10:41:34Z</time>
      </trkpt>
      <trkpt lat="47.60342" lon="-2.58594">
        <ele>39.2</ele>
        <time>2021-08-06T10:41:35Z</time>
      </trkpt>
      <trkpt lat="47.60345" lon="-2.58587">
        <ele>39</ele>
        <time>2021-08-06T10:41:36Z</time>
      </trkpt>
      <trkpt lat="47.60347" lon="-2.5858">
        <ele>38.8</ele>
        <time>2021-08-06T10:41:37Z</time>
      </trkpt>
      <trkpt lat="47.6035" lon="-2.58573">
        <ele>38.8</ele>
        <time>2021-08-06T10:41:38Z</time>
      </trkpt>
      <trkpt lat="47.60352" lon="-2.58567">
        <ele>38.6</ele>
        <time>2021-08-06T10:41:39Z</time>
      </trkpt>
      <trkpt lat="47.60355" lon="-2.58561">
        <ele>38.4</ele>
        <time>2021-08-06T10:41:40Z</time>
      </trkpt>
      <trkpt lat="47.60357" lon="-2.58554">
        <ele>38.4</ele>
        <time>2021-08-06T10:41:41Z</time>
      </trkpt>
      <trkpt lat="47.60359" lon="-2.58548">
        <ele>38.4</ele>
        <time>2021-08-06T10:41:42Z</time>
      </trkpt>
      <trkpt lat="47.60362" lon="-2.58542">
        <ele>38.2</ele>
        <time>2021-08-06T10:41:43Z</time>
      </trkpt>
      <trkpt lat="47.60364" lon="-2.58536">
        <ele>38.2</ele>
        <time>2021-08-06T10:41:44Z</time>
      </trkpt>
      <trkpt lat="47.60367" lon="-2.58529">
        <ele>38.2</ele>
        <time>2021-08-06T10:41:45Z</time>
      </trkpt>
      <trkpt lat="47.6037" lon="-2.58523">
        <ele>38.2</ele>
        <time>2021-08-06T10:41:46Z</time>
      </trkpt>
      <trkpt lat="47.60372" lon="-2.58517">
        <ele>38.2</ele>
        <time>2021-08-06T10:41:47Z</time>
      </trkpt>
      <trkpt lat="47.60375" lon="-2.5851">
        <ele>38.2</ele>
        <time>2021-08-06T10:41:48Z</time>
      </trkpt>
      <trkpt lat="47.60377" lon="-2.58504">
        <ele>38</ele>
        <time>2021-08-06T10:41:49Z</time>
      </trkpt>
      <trkpt lat="47.6038" lon="-2.58497">
        <ele>38</ele>
        <time>2021-08-06T10:41:50Z</time>
      </trkpt>
      <trkpt lat="47.60382" lon="-2.5849">
        <ele>38</ele>
        <time>2021-08-06T10:41:51Z</time>
      </trkpt>
      <trkpt lat="47.60385" lon="-2.58484">
        <ele>38</ele>
        <time>2021-08-06T10:41:52Z</time>
      </trkpt>
      <trkpt lat="47.60388" lon="-2.58478">
        <ele>37.8</ele>
        <time>2021-08-06T10:41:53Z</time>
      </trkpt>
      <trkpt lat="47.6039" lon="-2.58472">
        <ele>37.8</ele>
        <time>2021-08-06T10:41:54Z</time>
      </trkpt>
      <trkpt lat="47.60393" lon="-2.58465">
        <ele>37.8</ele>
        <time>2021-08-06T10:41:55Z</time>
      </trkpt>
      <trkpt lat="47.60395" lon="-2.58459">
        <ele>37.8</ele>
        <time>2021-08-06T10:41:56Z</time>
      </trkpt>
      <trkpt lat="47.60398" lon="-2.58453">
        <ele>37.8</ele>
        <time>2021-08-06T10:41:57Z</time>
      </trkpt>
      <trkpt lat="47.604" lon="-2.58447">
        <ele>37.8</ele>
        <time>2021-08-06T10:41:58Z</time>
      </trkpt>
      <trkpt lat="47.60402" lon="-2.58441">
        <ele>37.6</ele>
        <time>2021-08-06T10:41:59Z</time>
      </trkpt>
      <trkpt lat="47.60405" lon="-2.58435">
        <ele>37.6</ele>
        <time>2021-08-06T10:42:00Z</time>
      </trkpt>
      <trkpt lat="47.60407" lon="-2.58429">
        <ele>37.4</ele>
        <time>2021-08-06T10:42:01Z</time>
      </trkpt>
      <trkpt lat="47.60409" lon="-2.58424">
        <ele>37.4</ele>
        <time>2021-08-06T10:42:02Z</time>
      </trkpt>
      <trkpt lat="47.60411" lon="-2.58418">
        <ele>37.4</ele>
        <time>2021-08-06T10:42:03Z</time>
      </trkpt>
      <trkpt lat="47.60413" lon="-2.58413">
        <ele>37.4</ele>
        <time>2021-08-06T10:42:04Z</time>
      </trkpt>
      <trkpt lat="47.60416" lon="-2.58407">
        <ele>37.4</ele>
        <time>2021-08-06T10:42:05Z</time>
      </trkpt>
      <trkpt lat="47.60418" lon="-2.58401">
        <ele>37.4</ele>
        <time>2021-08-06T10:42:06Z</time>
      </trkpt>
      <trkpt lat="47.6042" lon="-2.58396">
        <ele>37.4</ele>
        <time>2021-08-06T10:42:07Z</time>
      </trkpt>
      <trkpt lat="47.60422" lon="-2.5839">
        <ele>37.4</ele>
        <time>2021-08-06T10:42:08Z</time>
      </trkpt>
      <trkpt lat="47.60425" lon="-2.58384">
        <ele>37.4</ele>
        <time>2021-08-06T10:42:09Z</time>
      </trkpt>
      <trkpt lat="47.60427" lon="-2.58378">
        <ele>37.4</ele>
        <time>2021-08-06T10:42:10Z</time>
      </trkpt>
      <trkpt lat="47.60429" lon="-2.58372">
        <ele>37.4</ele>
        <time>2021-08-06T10:42:11Z</time>
      </trkpt>
      <trkpt lat="47.60432" lon="-2.58366">
        <ele>37.4</ele>
        <time>2021-08-06T10:42:12Z</time>
      </trkpt>
      <trkpt lat="47.60435" lon="-2.5836">
        <ele>37.2</ele>
        <time>2021-08-06T10:42:13Z</time>
      </trkpt>
      <trkpt lat="47.60438" lon="-2.58353">
        <ele>37.2</ele>
        <time>2021-08-06T10:42:14Z</time>
      </trkpt>
      <trkpt lat="47.6044" lon="-2.58347">
        <ele>37.2</ele>
        <time>2021-08-06T10:42:15Z</time>
      </trkpt>
      <trkpt lat="47.60442" lon="-2.5834">
        <ele>37.2</ele>
        <time>2021-08-06T10:42:16Z</time>
      </trkpt>
      <trkpt lat="47.60445" lon="-2.58334">
        <ele>37.2</ele>
        <time>2021-08-06T10:42:17Z</time>
      </trkpt>
      <trkpt lat="47.60448" lon="-2.58327">
        <ele>37</ele>
        <time>2021-08-06T10:42:18Z</time>
      </trkpt>
      <trkpt lat="47.6045" lon="-2.58321">
        <ele>37</ele>
        <time>2021-08-06T10:42:19Z</time>
      </trkpt>
      <trkpt lat="47.60453" lon="-2.58314">
        <ele>37</ele>
        <time>2021-08-06T10:42:20Z</time>
      </trkpt>
      <trkpt lat="47.60455" lon="-2.58307">
        <ele>37</ele>
        <time>2021-08-06T10:42:21Z</time>
      </trkpt>
      <trkpt lat="47.60458" lon="-2.58301">
        <ele>36.8</ele>
        <time>2021-08-06T10:42:22Z</time>
      </trkpt>
      <trkpt lat="47.60461" lon="-2.58295">
        <ele>36.6</ele>
        <time>2021-08-06T10:42:23Z</time>
      </trkpt>
      <trkpt lat="47.60463" lon="-2.58289">
        <ele>36.4</ele>
        <time>2021-08-06T10:42:24Z</time>
      </trkpt>
      <trkpt lat="47.60466" lon="-2.58283">
        <ele>36.2</ele>
        <time>2021-08-06T10:42:25Z</time>
      </trkpt>
      <trkpt lat="47.60468" lon="-2.58277">
        <ele>36</ele>
        <time>2021-08-06T10:42:26Z</time>
      </trkpt>
      <trkpt lat="47.60471" lon="-2.58271">
        <ele>36</ele>
        <time>2021-08-06T10:42:27Z</time>
      </trkpt>
      <trkpt lat="47.60473" lon="-2.58265">
        <ele>35.8</ele>
        <time>2021-08-06T10:42:28Z</time>
      </trkpt>
      <trkpt lat="47.60476" lon="-2.58259">
        <ele>35.8</ele>
        <time>2021-08-06T10:42:29Z</time>
      </trkpt>
      <trkpt lat="47.60478" lon="-2.58252">
        <ele>35.8</ele>
        <time>2021-08-06T10:42:30Z</time>
      </trkpt>
      <trkpt lat="47.60481" lon="-2.58246">
        <ele>35.6</ele>
        <time>2021-08-06T10:42:31Z</time>
      </trkpt>
      <trkpt lat="47.60483" lon="-2.5824">
        <ele>35.6</ele>
        <time>2021-08-06T10:42:32Z</time>
      </trkpt>
      <trkpt lat="47.60486" lon="-2.58233">
        <ele>35.6</ele>
        <time>2021-08-06T10:42:33Z</time>
      </trkpt>
      <trkpt lat="47.60488" lon="-2.58227">
        <ele>35.6</ele>
        <time>2021-08-06T10:42:34Z</time>
      </trkpt>
      <trkpt lat="47.6049" lon="-2.58221">
        <ele>35.6</ele>
        <time>2021-08-06T10:42:35Z</time>
      </trkpt>
      <trkpt lat="47.60493" lon="-2.58216">
        <ele>35.6</ele>
        <time>2021-08-06T10:42:36Z</time>
      </trkpt>
      <trkpt lat="47.60495" lon="-2.5821">
        <ele>35.4</ele>
        <time>2021-08-06T10:42:37Z</time>
      </trkpt>
      <trkpt lat="47.60497" lon="-2.58204">
        <ele>35.4</ele>
        <time>2021-08-06T10:42:38Z</time>
      </trkpt>
      <trkpt lat="47.60499" lon="-2.58199">
        <ele>35.4</ele>
        <time>2021-08-06T10:42:39Z</time>
      </trkpt>
      <trkpt lat="47.60502" lon="-2.58193">
        <ele>35.4</ele>
        <time>2021-08-06T10:42:40Z</time>
      </trkpt>
      <trkpt lat="47.60504" lon="-2.58187">
        <ele>35.4</ele>
        <time>2021-08-06T10:42:41Z</time>
      </trkpt>
      <trkpt lat="47.60506" lon="-2.58181">
        <ele>35.4</ele>
        <time>2021-08-06T10:42:42Z</time>
      </trkpt>
      <trkpt lat="47.60509" lon="-2.58175">
        <ele>35.4</ele>
        <time>2021-08-06T10:42:43Z</time>
      </trkpt>
      <trkpt lat="47.60511" lon="-2.58169">
        <ele>35.4</ele>
        <time>2021-08-06T10:42:44Z</time>
      </trkpt>
      <trkpt lat="47.60514" lon="-2.58163">
        <ele>35.4</ele>
        <time>2021-08-06T10:42:45Z</time>
      </trkpt>
      <trkpt lat="47.60517" lon="-2.58157">
        <ele>35.4</ele>
        <time>2021-08-06T10:42:46Z</time>
      </trkpt>
      <trkpt lat="47.60519" lon="-2.58151">
        <ele>35.4</ele>
        <time>2021-08-06T10:42:47Z</time>
      </trkpt>
      <trkpt lat="47.60522" lon="-2.58144">
        <ele>35.4</ele>
        <time>2021-08-06T10:42:48Z</time>
      </trkpt>
      <trkpt lat="47.60524" lon="-2.58138">
        <ele>35.4</ele>
        <time>2021-08-06T10:42:49Z</time>
      </trkpt>
      <trkpt lat="47.60527" lon="-2.58131">
        <ele>35.4</ele>
        <time>2021-08-06T10:42:50Z</time>
      </trkpt>
      <trkpt lat="47.6053" lon="-2.58124">
        <ele>35.4</ele>
        <time>2021-08-06T10:42:51Z</time>
      </trkpt>
      <trkpt lat="47.60533" lon="-2.58117">
        <ele>35.4</ele>
        <time>2021-08-06T10:42:52Z</time>
      </trkpt>
      <trkpt lat="47.60536" lon="-2.58109">
        <ele>35.2</ele>
        <time>2021-08-06T10:42:53Z</time>
      </trkpt>
      <trkpt lat="47.60539" lon="-2.58102">
        <ele>35.2</ele>
        <time>2021-08-06T10:42:54Z</time>
      </trkpt>
      <trkpt lat="47.60542" lon="-2.58094">
        <ele>35.2</ele>
        <time>2021-08-06T10:42:55Z</time>
      </trkpt>
      <trkpt lat="47.60546" lon="-2.58086">
        <ele>35.2</ele>
        <time>2021-08-06T10:42:56Z</time>
      </trkpt>
      <trkpt lat="47.60549" lon="-2.58078">
        <ele>35.2</ele>
        <time>2021-08-06T10:42:57Z</time>
      </trkpt>
      <trkpt lat="47.60552" lon="-2.58069">
        <ele>35.2</ele>
        <time>2021-08-06T10:42:58Z</time>
      </trkpt>
      <trkpt lat="47.60556" lon="-2.5806">
        <ele>35.2</ele>
        <time>2021-08-06T10:42:59Z</time>
      </trkpt>
      <trkpt lat="47.60559" lon="-2.58052">
        <ele>35.2</ele>
        <time>2021-08-06T10:43:00Z</time>
      </trkpt>
      <trkpt lat="47.60563" lon="-2.58043">
        <ele>35.2</ele>
        <time>2021-08-06T10:43:01Z</time>
      </trkpt>
      <trkpt lat="47.60567" lon="-2.58033">
        <ele>35.2</ele>
        <time>2021-08-06T10:43:02Z</time>
      </trkpt>
      <trkpt lat="47.60571" lon="-2.58024">
        <ele>35</ele>
        <time>2021-08-06T10:43:03Z</time>
      </trkpt>
      <trkpt lat="47.60574" lon="-2.58014">
        <ele>35</ele>
        <time>2021-08-06T10:43:04Z</time>
      </trkpt>
      <trkpt lat="47.60578" lon="-2.58004">
        <ele>34.8</ele>
        <time>2021-08-06T10:43:05Z</time>
      </trkpt>
      <trkpt lat="47.60582" lon="-2.57994">
        <ele>34.8</ele>
        <time>2021-08-06T10:43:06Z</time>
      </trkpt>
      <trkpt lat="47.60585" lon="-2.57984">
        <ele>34.8</ele>
        <time>2021-08-06T10:43:07Z</time>
      </trkpt>
      <trkpt lat="47.60589" lon="-2.57974">
        <ele>34.4</ele>
        <time>2021-08-06T10:43:08Z</time>
      </trkpt>
      <trkpt lat="47.60592" lon="-2.57964">
        <ele>33.8</ele>
        <time>2021-08-06T10:43:09Z</time>
      </trkpt>
      <trkpt lat="47.60596" lon="-2.57955">
        <ele>33.6</ele>
        <time>2021-08-06T10:43:10Z</time>
      </trkpt>
      <trkpt lat="47.606" lon="-2.57946">
        <ele>33</ele>
        <time>2021-08-06T10:43:11Z</time>
      </trkpt>
      <trkpt lat="47.60603" lon="-2.57936">
        <ele>32.8</ele>
        <time>2021-08-06T10:43:12Z</time>
      </trkpt>
      <trkpt lat="47.60607" lon="-2.57927">
        <ele>32.8</ele>
        <time>2021-08-06T10:43:13Z</time>
      </trkpt>
      <trkpt lat="47.60611" lon="-2.57917">
        <ele>32.4</ele>
        <time>2021-08-06T10:43:14Z</time>
      </trkpt>
      <trkpt lat="47.60614" lon="-2.57908">
        <ele>32.4</ele>
        <time>2021-08-06T10:43:15Z</time>
      </trkpt>
      <trkpt lat="47.60617" lon="-2.57898">
        <ele>32.2</ele>
        <time>2021-08-06T10:43:16Z</time>
      </trkpt>
      <trkpt lat="47.6062" lon="-2.57889">
        <ele>32.2</ele>
        <time>2021-08-06T10:43:17Z</time>
      </trkpt>
      <trkpt lat="47.60624" lon="-2.57879">
        <ele>31.8</ele>
        <time>2021-08-06T10:43:18Z</time>
      </trkpt>
      <trkpt lat="47.60627" lon="-2.5787">
        <ele>31.8</ele>
        <time>2021-08-06T10:43:19Z</time>
      </trkpt>
      <trkpt lat="47.60631" lon="-2.5786">
        <ele>31.8</ele>
        <time>2021-08-06T10:43:20Z</time>
      </trkpt>
      <trkpt lat="47.60634" lon="-2.5785">
        <ele>31.8</ele>
        <time>2021-08-06T10:43:21Z</time>
      </trkpt>
      <trkpt lat="47.60637" lon="-2.57841">
        <ele>31.6</ele>
        <time>2021-08-06T10:43:22Z</time>
      </trkpt>
      <trkpt lat="47.6064" lon="-2.57831">
        <ele>31.6</ele>
        <time>2021-08-06T10:43:23Z</time>
      </trkpt>
      <trkpt lat="47.60644" lon="-2.57821">
        <ele>31.6</ele>
        <time>2021-08-06T10:43:24Z</time>
      </trkpt>
      <trkpt lat="47.60647" lon="-2.57811">
        <ele>31.6</ele>
        <time>2021-08-06T10:43:25Z</time>
      </trkpt>
      <trkpt lat="47.6065" lon="-2.57801">
        <ele>31.6</ele>
        <time>2021-08-06T10:43:26Z</time>
      </trkpt>
      <trkpt lat="47.60653" lon="-2.57791">
        <ele>31.6</ele>
        <time>2021-08-06T10:43:27Z</time>
      </trkpt>
      <trkpt lat="47.60657" lon="-2.57782">
        <ele>31.6</ele>
        <time>2021-08-06T10:43:28Z</time>
      </trkpt>
      <trkpt lat="47.6066" lon="-2.57772">
        <ele>31.6</ele>
        <time>2021-08-06T10:43:29Z</time>
      </trkpt>
      <trkpt lat="47.60663" lon="-2.57762">
        <ele>31</ele>
        <time>2021-08-06T10:43:30Z</time>
      </trkpt>
      <trkpt lat="47.60666" lon="-2.57753">
        <ele>31</ele>
        <time>2021-08-06T10:43:31Z</time>
      </trkpt>
      <trkpt lat="47.6067" lon="-2.57744">
        <ele>31</ele>
        <time>2021-08-06T10:43:32Z</time>
      </trkpt>
      <trkpt lat="47.60673" lon="-2.57734">
        <ele>30.6</ele>
        <time>2021-08-06T10:43:33Z</time>
      </trkpt>
      <trkpt lat="47.60676" lon="-2.57724">
        <ele>30.6</ele>
        <time>2021-08-06T10:43:34Z</time>
      </trkpt>
      <trkpt lat="47.60679" lon="-2.57715">
        <ele>30.6</ele>
        <time>2021-08-06T10:43:35Z</time>
      </trkpt>
      <trkpt lat="47.60682" lon="-2.57705">
        <ele>30.6</ele>
        <time>2021-08-06T10:43:36Z</time>
      </trkpt>
      <trkpt lat="47.60685" lon="-2.57695">
        <ele>30.6</ele>
        <time>2021-08-06T10:43:37Z</time>
      </trkpt>
      <trkpt lat="47.60687" lon="-2.57685">
        <ele>30.6</ele>
        <time>2021-08-06T10:43:38Z</time>
      </trkpt>
      <trkpt lat="47.60691" lon="-2.57675">
        <ele>30.6</ele>
        <time>2021-08-06T10:43:39Z</time>
      </trkpt>
      <trkpt lat="47.60693" lon="-2.57666">
        <ele>30.4</ele>
        <time>2021-08-06T10:43:40Z</time>
      </trkpt>
      <trkpt lat="47.60696" lon="-2.57656">
        <ele>30.4</ele>
        <time>2021-08-06T10:43:41Z</time>
      </trkpt>
      <trkpt lat="47.60699" lon="-2.57647">
        <ele>30.4</ele>
        <time>2021-08-06T10:43:42Z</time>
      </trkpt>
      <trkpt lat="47.60702" lon="-2.57637">
        <ele>30.4</ele>
        <time>2021-08-06T10:43:43Z</time>
      </trkpt>
      <trkpt lat="47.60705" lon="-2.57628">
        <ele>30.4</ele>
        <time>2021-08-06T10:43:44Z</time>
      </trkpt>
      <trkpt lat="47.60708" lon="-2.57619">
        <ele>30.4</ele>
        <time>2021-08-06T10:43:45Z</time>
      </trkpt>
      <trkpt lat="47.60711" lon="-2.57609">
        <ele>30.4</ele>
        <time>2021-08-06T10:43:46Z</time>
      </trkpt>
      <trkpt lat="47.60713" lon="-2.576">
        <ele>30.4</ele>
        <time>2021-08-06T10:43:47Z</time>
      </trkpt>
      <trkpt lat="47.60716" lon="-2.5759">
        <ele>30.4</ele>
        <time>2021-08-06T10:43:48Z</time>
      </trkpt>
      <trkpt lat="47.60718" lon="-2.57581">
        <ele>30.4</ele>
        <time>2021-08-06T10:43:49Z</time>
      </trkpt>
      <trkpt lat="47.60721" lon="-2.57572">
        <ele>30.4</ele>
        <time>2021-08-06T10:43:50Z</time>
      </trkpt>
      <trkpt lat="47.60724" lon="-2.57563">
        <ele>30.4</ele>
        <time>2021-08-06T10:43:51Z</time>
      </trkpt>
      <trkpt lat="47.60726" lon="-2.57553">
        <ele>30.4</ele>
        <time>2021-08-06T10:43:52Z</time>
      </trkpt>
      <trkpt lat="47.60729" lon="-2.57544">
        <ele>30.4</ele>
        <time>2021-08-06T10:43:53Z</time>
      </trkpt>
      <trkpt lat="47.60732" lon="-2.57535">
        <ele>30.2</ele>
        <time>2021-08-06T10:43:54Z</time>
      </trkpt>
      <trkpt lat="47.60735" lon="-2.57526">
        <ele>30.2</ele>
        <time>2021-08-06T10:43:55Z</time>
      </trkpt>
      <trkpt lat="47.60737" lon="-2.57517">
        <ele>30.2</ele>
        <time>2021-08-06T10:43:56Z</time>
      </trkpt>
      <trkpt lat="47.6074" lon="-2.57508">
        <ele>30.4</ele>
        <time>2021-08-06T10:43:57Z</time>
      </trkpt>
      <trkpt lat="47.60742" lon="-2.57499">
        <ele>30.4</ele>
        <time>2021-08-06T10:43:58Z</time>
      </trkpt>
      <trkpt lat="47.60745" lon="-2.5749">
        <ele>30.4</ele>
        <time>2021-08-06T10:43:59Z</time>
      </trkpt>
      <trkpt lat="47.60747" lon="-2.57481">
        <ele>30.4</ele>
        <time>2021-08-06T10:44:00Z</time>
      </trkpt>
      <trkpt lat="47.60749" lon="-2.57472">
        <ele>30.4</ele>
        <time>2021-08-06T10:44:01Z</time>
      </trkpt>
      <trkpt lat="47.60752" lon="-2.57463">
        <ele>30.6</ele>
        <time>2021-08-06T10:44:02Z</time>
      </trkpt>
      <trkpt lat="47.60754" lon="-2.57454">
        <ele>30.6</ele>
        <time>2021-08-06T10:44:03Z</time>
      </trkpt>
      <trkpt lat="47.60757" lon="-2.57445">
        <ele>30.8</ele>
        <time>2021-08-06T10:44:04Z</time>
      </trkpt>
      <trkpt lat="47.60759" lon="-2.57437">
        <ele>31</ele>
        <time>2021-08-06T10:44:05Z</time>
      </trkpt>
      <trkpt lat="47.60761" lon="-2.57428">
        <ele>31</ele>
        <time>2021-08-06T10:44:06Z</time>
      </trkpt>
      <trkpt lat="47.60764" lon="-2.5742">
        <ele>31</ele>
        <time>2021-08-06T10:44:07Z</time>
      </trkpt>
      <trkpt lat="47.60766" lon="-2.57411">
        <ele>31.2</ele>
        <time>2021-08-06T10:44:08Z</time>
      </trkpt>
      <trkpt lat="47.60769" lon="-2.57403">
        <ele>31.4</ele>
        <time>2021-08-06T10:44:09Z</time>
      </trkpt>
      <trkpt lat="47.60771" lon="-2.57395">
        <ele>31.6</ele>
        <time>2021-08-06T10:44:10Z</time>
      </trkpt>
      <trkpt lat="47.60774" lon="-2.57387">
        <ele>31.8</ele>
        <time>2021-08-06T10:44:11Z</time>
      </trkpt>
      <trkpt lat="47.60776" lon="-2.57379">
        <ele>31.8</ele>
        <time>2021-08-06T10:44:12Z</time>
      </trkpt>
      <trkpt lat="47.60779" lon="-2.57371">
        <ele>31.8</ele>
        <time>2021-08-06T10:44:13Z</time>
      </trkpt>
      <trkpt lat="47.60782" lon="-2.57363">
        <ele>32.2</ele>
        <time>2021-08-06T10:44:14Z</time>
      </trkpt>
      <trkpt lat="47.60785" lon="-2.57355">
        <ele>32.2</ele>
        <time>2021-08-06T10:44:15Z</time>
      </trkpt>
      <trkpt lat="47.60789" lon="-2.57347">
        <ele>32</ele>
        <time>2021-08-06T10:44:16Z</time>
      </trkpt>
      <trkpt lat="47.60792" lon="-2.5734">
        <ele>32.4</ele>
        <time>2021-08-06T10:44:17Z</time>
      </trkpt>
      <trkpt lat="47.60795" lon="-2.57332">
        <ele>32.4</ele>
        <time>2021-08-06T10:44:18Z</time>
      </trkpt>
      <trkpt lat="47.60799" lon="-2.57324">
        <ele>32.8</ele>
        <time>2021-08-06T10:44:19Z</time>
      </trkpt>
      <trkpt lat="47.60802" lon="-2.57317">
        <ele>32.8</ele>
        <time>2021-08-06T10:44:20Z</time>
      </trkpt>
      <trkpt lat="47.60805" lon="-2.57309">
        <ele>32.8</ele>
        <time>2021-08-06T10:44:21Z</time>
      </trkpt>
      <trkpt lat="47.60808" lon="-2.57301">
        <ele>32.8</ele>
        <time>2021-08-06T10:44:22Z</time>
      </trkpt>
      <trkpt lat="47.60811" lon="-2.57293">
        <ele>32.8</ele>
        <time>2021-08-06T10:44:23Z</time>
      </trkpt>
      <trkpt lat="47.60813" lon="-2.57285">
        <ele>32.8</ele>
        <time>2021-08-06T10:44:24Z</time>
      </trkpt>
      <trkpt lat="47.60816" lon="-2.57278">
        <ele>33</ele>
        <time>2021-08-06T10:44:25Z</time>
      </trkpt>
      <trkpt lat="47.60819" lon="-2.5727">
        <ele>33</ele>
        <time>2021-08-06T10:44:26Z</time>
      </trkpt>
      <trkpt lat="47.60822" lon="-2.57262">
        <ele>33</ele>
        <time>2021-08-06T10:44:27Z</time>
      </trkpt>
      <trkpt lat="47.60825" lon="-2.57254">
        <ele>33</ele>
        <time>2021-08-06T10:44:28Z</time>
      </trkpt>
      <trkpt lat="47.60827" lon="-2.57246">
        <ele>33</ele>
        <time>2021-08-06T10:44:29Z</time>
      </trkpt>
      <trkpt lat="47.60829" lon="-2.57237">
        <ele>33.2</ele>
        <time>2021-08-06T10:44:30Z</time>
      </trkpt>
      <trkpt lat="47.60832" lon="-2.57229">
        <ele>33.2</ele>
        <time>2021-08-06T10:44:31Z</time>
      </trkpt>
      <trkpt lat="47.60834" lon="-2.57221">
        <ele>33.6</ele>
        <time>2021-08-06T10:44:32Z</time>
      </trkpt>
      <trkpt lat="47.60835" lon="-2.57213">
        <ele>33.6</ele>
        <time>2021-08-06T10:44:33Z</time>
      </trkpt>
      <trkpt lat="47.60837" lon="-2.57204">
        <ele>33.6</ele>
        <time>2021-08-06T10:44:34Z</time>
      </trkpt>
      <trkpt lat="47.60839" lon="-2.57196">
        <ele>34.2</ele>
        <time>2021-08-06T10:44:35Z</time>
      </trkpt>
      <trkpt lat="47.6084" lon="-2.57188">
        <ele>34.2</ele>
        <time>2021-08-06T10:44:36Z</time>
      </trkpt>
      <trkpt lat="47.60842" lon="-2.5718">
        <ele>34.2</ele>
        <time>2021-08-06T10:44:37Z</time>
      </trkpt>
      <trkpt lat="47.60843" lon="-2.57172">
        <ele>34.2</ele>
        <time>2021-08-06T10:44:38Z</time>
      </trkpt>
      <trkpt lat="47.60844" lon="-2.57164">
        <ele>34.4</ele>
        <time>2021-08-06T10:44:39Z</time>
      </trkpt>
      <trkpt lat="47.60845" lon="-2.57156">
        <ele>34.4</ele>
        <time>2021-08-06T10:44:40Z</time>
      </trkpt>
      <trkpt lat="47.60846" lon="-2.57148">
        <ele>34.8</ele>
        <time>2021-08-06T10:44:41Z</time>
      </trkpt>
      <trkpt lat="47.60847" lon="-2.57141">
        <ele>35</ele>
        <time>2021-08-06T10:44:42Z</time>
      </trkpt>
      <trkpt lat="47.60848" lon="-2.57133">
        <ele>35</ele>
        <time>2021-08-06T10:44:43Z</time>
      </trkpt>
      <trkpt lat="47.60849" lon="-2.57125">
        <ele>35.4</ele>
        <time>2021-08-06T10:44:44Z</time>
      </trkpt>
      <trkpt lat="47.6085" lon="-2.57117">
        <ele>35.4</ele>
        <time>2021-08-06T10:44:45Z</time>
      </trkpt>
      <trkpt lat="47.60851" lon="-2.57109">
        <ele>35.4</ele>
        <time>2021-08-06T10:44:46Z</time>
      </trkpt>
      <trkpt lat="47.60852" lon="-2.57102">
        <ele>35.4</ele>
        <time>2021-08-06T10:44:47Z</time>
      </trkpt>
      <trkpt lat="47.60854" lon="-2.57094">
        <ele>35.6</ele>
        <time>2021-08-06T10:44:48Z</time>
      </trkpt>
      <trkpt lat="47.60855" lon="-2.57087">
        <ele>35.6</ele>
        <time>2021-08-06T10:44:49Z</time>
      </trkpt>
      <trkpt lat="47.60855" lon="-2.5708">
        <ele>35.6</ele>
        <time>2021-08-06T10:44:50Z</time>
      </trkpt>
      <trkpt lat="47.60856" lon="-2.57073">
        <ele>35.6</ele>
        <time>2021-08-06T10:44:51Z</time>
      </trkpt>
      <trkpt lat="47.60857" lon="-2.57067">
        <ele>35.6</ele>
        <time>2021-08-06T10:44:52Z</time>
      </trkpt>
      <trkpt lat="47.60858" lon="-2.57061">
        <ele>35.6</ele>
        <time>2021-08-06T10:44:53Z</time>
      </trkpt>
      <trkpt lat="47.60858" lon="-2.57055">
        <ele>36.2</ele>
        <time>2021-08-06T10:44:54Z</time>
      </trkpt>
      <trkpt lat="47.60859" lon="-2.5705">
        <ele>36.2</ele>
        <time>2021-08-06T10:44:55Z</time>
      </trkpt>
      <trkpt lat="47.60859" lon="-2.57046">
        <ele>36.2</ele>
        <time>2021-08-06T10:44:56Z</time>
      </trkpt>
      <trkpt lat="47.60859" lon="-2.5704">
        <ele>36.4</ele>
        <time>2021-08-06T10:44:57Z</time>
      </trkpt>
      <trkpt lat="47.6086" lon="-2.57035">
        <ele>36.8</ele>
        <time>2021-08-06T10:44:58Z</time>
      </trkpt>
      <trkpt lat="47.6086" lon="-2.57031">
        <ele>37</ele>
        <time>2021-08-06T10:44:59Z</time>
      </trkpt>
      <trkpt lat="47.60861" lon="-2.57026">
        <ele>37.4</ele>
        <time>2021-08-06T10:45:00Z</time>
      </trkpt>
      <trkpt lat="47.60861" lon="-2.57022">
        <ele>37.6</ele>
        <time>2021-08-06T10:45:01Z</time>
      </trkpt>
      <trkpt lat="47.60862" lon="-2.57018">
        <ele>37.6</ele>
        <time>2021-08-06T10:45:02Z</time>
      </trkpt>
      <trkpt lat="47.60863" lon="-2.57015">
        <ele>38</ele>
        <time>2021-08-06T10:45:03Z</time>
      </trkpt>
      <trkpt lat="47.60863" lon="-2.57011">
        <ele>38.2</ele>
        <time>2021-08-06T10:45:04Z</time>
      </trkpt>
      <trkpt lat="47.60863" lon="-2.57008">
        <ele>38.2</ele>
        <time>2021-08-06T10:45:05Z</time>
      </trkpt>
      <trkpt lat="47.60864" lon="-2.57004">
        <ele>38.2</ele>
        <time>2021-08-06T10:45:06Z</time>
      </trkpt>
      <trkpt lat="47.60864" lon="-2.57001">
        <ele>38.4</ele>
        <time>2021-08-06T10:45:07Z</time>
      </trkpt>
      <trkpt lat="47.60864" lon="-2.56998">
        <ele>38.8</ele>
        <time>2021-08-06T10:45:08Z</time>
      </trkpt>
      <trkpt lat="47.60864" lon="-2.56996">
        <ele>38.8</ele>
        <time>2021-08-06T10:45:09Z</time>
      </trkpt>
      <trkpt lat="47.60864" lon="-2.56993">
        <ele>38.8</ele>
        <time>2021-08-06T10:45:10Z</time>
      </trkpt>
      <trkpt lat="47.60865" lon="-2.56989">
        <ele>39</ele>
        <time>2021-08-06T10:45:11Z</time>
      </trkpt>
      <trkpt lat="47.60865" lon="-2.56986">
        <ele>39</ele>
        <time>2021-08-06T10:45:12Z</time>
      </trkpt>
      <trkpt lat="47.60866" lon="-2.56982">
        <ele>39</ele>
        <time>2021-08-06T10:45:13Z</time>
      </trkpt>
      <trkpt lat="47.60866" lon="-2.56977">
        <ele>39.4</ele>
        <time>2021-08-06T10:45:14Z</time>
      </trkpt>
      <trkpt lat="47.60866" lon="-2.56973">
        <ele>39.4</ele>
        <time>2021-08-06T10:45:15Z</time>
      </trkpt>
      <trkpt lat="47.60867" lon="-2.56968">
        <ele>39.4</ele>
        <time>2021-08-06T10:45:16Z</time>
      </trkpt>
      <trkpt lat="47.60867" lon="-2.56963">
        <ele>39.4</ele>
        <time>2021-08-06T10:45:17Z</time>
      </trkpt>
      <trkpt lat="47.60868" lon="-2.56958">
        <ele>39.4</ele>
        <time>2021-08-06T10:45:18Z</time>
      </trkpt>
      <trkpt lat="47.60868" lon="-2.56953">
        <ele>39.6</ele>
        <time>2021-08-06T10:45:19Z</time>
      </trkpt>
      <trkpt lat="47.60869" lon="-2.56948">
        <ele>39.6</ele>
        <time>2021-08-06T10:45:20Z</time>
      </trkpt>
      <trkpt lat="47.60869" lon="-2.56942">
        <ele>40</ele>
        <time>2021-08-06T10:45:21Z</time>
      </trkpt>
      <trkpt lat="47.6087" lon="-2.56937">
        <ele>40</ele>
        <time>2021-08-06T10:45:22Z</time>
      </trkpt>
      <trkpt lat="47.60871" lon="-2.56932">
        <ele>40</ele>
        <time>2021-08-06T10:45:23Z</time>
      </trkpt>
      <trkpt lat="47.60871" lon="-2.56927">
        <ele>40</ele>
        <time>2021-08-06T10:45:24Z</time>
      </trkpt>
      <trkpt lat="47.60872" lon="-2.56922">
        <ele>40.2</ele>
        <time>2021-08-06T10:45:25Z</time>
      </trkpt>
      <trkpt lat="47.60872" lon="-2.56916">
        <ele>40.2</ele>
        <time>2021-08-06T10:45:26Z</time>
      </trkpt>
      <trkpt lat="47.60873" lon="-2.56911">
        <ele>40.2</ele>
        <time>2021-08-06T10:45:27Z</time>
      </trkpt>
      <trkpt lat="47.60873" lon="-2.56905">
        <ele>40.6</ele>
        <time>2021-08-06T10:45:28Z</time>
      </trkpt>
      <trkpt lat="47.60874" lon="-2.569">
        <ele>40.6</ele>
        <time>2021-08-06T10:45:29Z</time>
      </trkpt>
      <trkpt lat="47.60875" lon="-2.56894">
        <ele>40.6</ele>
        <time>2021-08-06T10:45:30Z</time>
      </trkpt>
      <trkpt lat="47.60875" lon="-2.56888">
        <ele>40.6</ele>
        <time>2021-08-06T10:45:31Z</time>
      </trkpt>
      <trkpt lat="47.60876" lon="-2.56883">
        <ele>40.6</ele>
        <time>2021-08-06T10:45:32Z</time>
      </trkpt>
      <trkpt lat="47.60877" lon="-2.56877">
        <ele>40.6</ele>
        <time>2021-08-06T10:45:33Z</time>
      </trkpt>
      <trkpt lat="47.60877" lon="-2.56871">
        <ele>40.8</ele>
        <time>2021-08-06T10:45:34Z</time>
      </trkpt>
      <trkpt lat="47.60878" lon="-2.56865">
        <ele>40.8</ele>
        <time>2021-08-06T10:45:35Z</time>
      </trkpt>
      <trkpt lat="47.60879" lon="-2.56859">
        <ele>40.8</ele>
        <time>2021-08-06T10:45:36Z</time>
      </trkpt>
      <trkpt lat="47.6088" lon="-2.56853">
        <ele>40.8</ele>
        <time>2021-08-06T10:45:37Z</time>
      </trkpt>
      <trkpt lat="47.60881" lon="-2.56847">
        <ele>40.8</ele>
        <time>2021-08-06T10:45:38Z</time>
      </trkpt>
      <trkpt lat="47.60881" lon="-2.56841">
        <ele>41</ele>
        <time>2021-08-06T10:45:39Z</time>
      </trkpt>
      <trkpt lat="47.60882" lon="-2.56835">
        <ele>41</ele>
        <time>2021-08-06T10:45:40Z</time>
      </trkpt>
      <trkpt lat="47.60882" lon="-2.56829">
        <ele>41</ele>
        <time>2021-08-06T10:45:41Z</time>
      </trkpt>
      <trkpt lat="47.60883" lon="-2.56823">
        <ele>41</ele>
        <time>2021-08-06T10:45:42Z</time>
      </trkpt>
      <trkpt lat="47.60884" lon="-2.56816">
        <ele>41</ele>
        <time>2021-08-06T10:45:43Z</time>
      </trkpt>
      <trkpt lat="47.60885" lon="-2.56809">
        <ele>41</ele>
        <time>2021-08-06T10:45:44Z</time>
      </trkpt>
      <trkpt lat="47.60886" lon="-2.56803">
        <ele>41</ele>
        <time>2021-08-06T10:45:45Z</time>
      </trkpt>
      <trkpt lat="47.60887" lon="-2.56796">
        <ele>41</ele>
        <time>2021-08-06T10:45:46Z</time>
      </trkpt>
      <trkpt lat="47.60888" lon="-2.56789">
        <ele>41</ele>
        <time>2021-08-06T10:45:47Z</time>
      </trkpt>
      <trkpt lat="47.60889" lon="-2.56783">
        <ele>41</ele>
        <time>2021-08-06T10:45:48Z</time>
      </trkpt>
      <trkpt lat="47.6089" lon="-2.56776">
        <ele>41</ele>
        <time>2021-08-06T10:45:49Z</time>
      </trkpt>
      <trkpt lat="47.60891" lon="-2.56769">
        <ele>41</ele>
        <time>2021-08-06T10:45:50Z</time>
      </trkpt>
      <trkpt lat="47.60891" lon="-2.56762">
        <ele>41</ele>
        <time>2021-08-06T10:45:51Z</time>
      </trkpt>
      <trkpt lat="47.60892" lon="-2.56755">
        <ele>41.2</ele>
        <time>2021-08-06T10:45:52Z</time>
      </trkpt>
      <trkpt lat="47.60893" lon="-2.56748">
        <ele>41.2</ele>
        <time>2021-08-06T10:45:53Z</time>
      </trkpt>
      <trkpt lat="47.60894" lon="-2.56741">
        <ele>41</ele>
        <time>2021-08-06T10:45:54Z</time>
      </trkpt>
      <trkpt lat="47.60895" lon="-2.56734">
        <ele>41</ele>
        <time>2021-08-06T10:45:55Z</time>
      </trkpt>
      <trkpt lat="47.60896" lon="-2.56727">
        <ele>41</ele>
        <time>2021-08-06T10:45:56Z</time>
      </trkpt>
      <trkpt lat="47.60897" lon="-2.5672">
        <ele>41</ele>
        <time>2021-08-06T10:45:57Z</time>
      </trkpt>
      <trkpt lat="47.60898" lon="-2.56714">
        <ele>41</ele>
        <time>2021-08-06T10:45:58Z</time>
      </trkpt>
      <trkpt lat="47.60899" lon="-2.56707">
        <ele>40.8</ele>
        <time>2021-08-06T10:45:59Z</time>
      </trkpt>
      <trkpt lat="47.60899" lon="-2.567">
        <ele>40.8</ele>
        <time>2021-08-06T10:46:00Z</time>
      </trkpt>
      <trkpt lat="47.609" lon="-2.56693">
        <ele>40.8</ele>
        <time>2021-08-06T10:46:01Z</time>
      </trkpt>
      <trkpt lat="47.60901" lon="-2.56686">
        <ele>40.8</ele>
        <time>2021-08-06T10:46:02Z</time>
      </trkpt>
      <trkpt lat="47.60902" lon="-2.5668">
        <ele>40.8</ele>
        <time>2021-08-06T10:46:03Z</time>
      </trkpt>
      <trkpt lat="47.60903" lon="-2.56673">
        <ele>40.8</ele>
        <time>2021-08-06T10:46:04Z</time>
      </trkpt>
      <trkpt lat="47.60904" lon="-2.56666">
        <ele>40.8</ele>
        <time>2021-08-06T10:46:05Z</time>
      </trkpt>
      <trkpt lat="47.60905" lon="-2.5666">
        <ele>40.8</ele>
        <time>2021-08-06T10:46:06Z</time>
      </trkpt>
      <trkpt lat="47.60905" lon="-2.56653">
        <ele>40.8</ele>
        <time>2021-08-06T10:46:07Z</time>
      </trkpt>
      <trkpt lat="47.60906" lon="-2.56646">
        <ele>40.8</ele>
        <time>2021-08-06T10:46:08Z</time>
      </trkpt>
      <trkpt lat="47.60907" lon="-2.56639">
        <ele>40.8</ele>
        <time>2021-08-06T10:46:09Z</time>
      </trkpt>
      <trkpt lat="47.60908" lon="-2.56633">
        <ele>40.8</ele>
        <time>2021-08-06T10:46:10Z</time>
      </trkpt>
      <trkpt lat="47.60909" lon="-2.56626">
        <ele>41</ele>
        <time>2021-08-06T10:46:11Z</time>
      </trkpt>
      <trkpt lat="47.60909" lon="-2.5662">
        <ele>41</ele>
        <time>2021-08-06T10:46:12Z</time>
      </trkpt>
      <trkpt lat="47.6091" lon="-2.56613">
        <ele>41</ele>
        <time>2021-08-06T10:46:13Z</time>
      </trkpt>
      <trkpt lat="47.6091" lon="-2.56607">
        <ele>41.2</ele>
        <time>2021-08-06T10:46:14Z</time>
      </trkpt>
      <trkpt lat="47.60911" lon="-2.56601">
        <ele>41.2</ele>
        <time>2021-08-06T10:46:15Z</time>
      </trkpt>
      <trkpt lat="47.60912" lon="-2.56595">
        <ele>41.2</ele>
        <time>2021-08-06T10:46:16Z</time>
      </trkpt>
      <trkpt lat="47.60912" lon="-2.56589">
        <ele>41.4</ele>
        <time>2021-08-06T10:46:17Z</time>
      </trkpt>
      <trkpt lat="47.60913" lon="-2.56583">
        <ele>41.4</ele>
        <time>2021-08-06T10:46:18Z</time>
      </trkpt>
      <trkpt lat="47.60914" lon="-2.56576">
        <ele>41.6</ele>
        <time>2021-08-06T10:46:19Z</time>
      </trkpt>
      <trkpt lat="47.60914" lon="-2.5657">
        <ele>41.6</ele>
        <time>2021-08-06T10:46:20Z</time>
      </trkpt>
      <trkpt lat="47.60915" lon="-2.56564">
        <ele>41.6</ele>
        <time>2021-08-06T10:46:21Z</time>
      </trkpt>
      <trkpt lat="47.60916" lon="-2.56559">
        <ele>41.6</ele>
        <time>2021-08-06T10:46:22Z</time>
      </trkpt>
      <trkpt lat="47.60916" lon="-2.56553">
        <ele>42</ele>
        <time>2021-08-06T10:46:23Z</time>
      </trkpt>
      <trkpt lat="47.60917" lon="-2.56548">
        <ele>42.2</ele>
        <time>2021-08-06T10:46:24Z</time>
      </trkpt>
      <trkpt lat="47.60918" lon="-2.56543">
        <ele>42.4</ele>
        <time>2021-08-06T10:46:25Z</time>
      </trkpt>
      <trkpt lat="47.60918" lon="-2.56537">
        <ele>42.6</ele>
        <time>2021-08-06T10:46:26Z</time>
      </trkpt>
      <trkpt lat="47.60919" lon="-2.56532">
        <ele>42.8</ele>
        <time>2021-08-06T10:46:27Z</time>
      </trkpt>
      <trkpt lat="47.60918" lon="-2.56526">
        <ele>42.8</ele>
        <time>2021-08-06T10:46:28Z</time>
      </trkpt>
      <trkpt lat="47.60918" lon="-2.56521">
        <ele>42.8</ele>
        <time>2021-08-06T10:46:29Z</time>
      </trkpt>
      <trkpt lat="47.60918" lon="-2.56517">
        <ele>43</ele>
        <time>2021-08-06T10:46:30Z</time>
      </trkpt>
      <trkpt lat="47.60919" lon="-2.56512">
        <ele>43</ele>
        <time>2021-08-06T10:46:31Z</time>
      </trkpt>
      <trkpt lat="47.60919" lon="-2.56509">
        <ele>43.2</ele>
        <time>2021-08-06T10:46:32Z</time>
      </trkpt>
      <trkpt lat="47.60919" lon="-2.56506">
        <ele>43.4</ele>
        <time>2021-08-06T10:46:33Z</time>
      </trkpt>
      <trkpt lat="47.6092" lon="-2.56501">
        <ele>45</ele>
        <time>2021-08-06T10:48:21Z</time>
      </trkpt>
      <trkpt lat="47.6092" lon="-2.56499">
        <ele>45</ele>
        <time>2021-08-06T10:48:22Z</time>
      </trkpt>
      <trkpt lat="47.6092" lon="-2.56497">
        <ele>45</ele>
        <time>2021-08-06T10:48:23Z</time>
      </trkpt>
      <trkpt lat="47.60919" lon="-2.56494">
        <ele>45</ele>
        <time>2021-08-06T10:48:24Z</time>
      </trkpt>
      <trkpt lat="47.6092" lon="-2.56492">
        <ele>45</ele>
        <time>2021-08-06T10:48:25Z</time>
      </trkpt>
      <trkpt lat="47.6092" lon="-2.56489">
        <ele>45</ele>
        <time>2021-08-06T10:48:26Z</time>
      </trkpt>
      <trkpt lat="47.6092" lon="-2.56486">
        <ele>45</ele>
        <time>2021-08-06T10:48:27Z</time>
      </trkpt>
      <trkpt lat="47.60921" lon="-2.56482">
        <ele>45</ele>
        <time>2021-08-06T10:48:28Z</time>
      </trkpt>
      <trkpt lat="47.60921" lon="-2.56479">
        <ele>45</ele>
        <time>2021-08-06T10:48:29Z</time>
      </trkpt>
      <trkpt lat="47.60922" lon="-2.56476">
        <ele>45</ele>
        <time>2021-08-06T10:48:30Z</time>
      </trkpt>
      <trkpt lat="47.60922" lon="-2.56472">
        <ele>45</ele>
        <time>2021-08-06T10:48:31Z</time>
      </trkpt>
      <trkpt lat="47.60923" lon="-2.56469">
        <ele>45</ele>
        <time>2021-08-06T10:48:32Z</time>
      </trkpt>
      <trkpt lat="47.60923" lon="-2.56465">
        <ele>45.2</ele>
        <time>2021-08-06T10:48:33Z</time>
      </trkpt>
      <trkpt lat="47.60924" lon="-2.56461">
        <ele>45.2</ele>
        <time>2021-08-06T10:48:34Z</time>
      </trkpt>
      <trkpt lat="47.60924" lon="-2.56456">
        <ele>45.2</ele>
        <time>2021-08-06T10:48:35Z</time>
      </trkpt>
      <trkpt lat="47.60924" lon="-2.56452">
        <ele>45.2</ele>
        <time>2021-08-06T10:48:36Z</time>
      </trkpt>
      <trkpt lat="47.60925" lon="-2.56448">
        <ele>45.4</ele>
        <time>2021-08-06T10:48:37Z</time>
      </trkpt>
      <trkpt lat="47.60925" lon="-2.56443">
        <ele>45.4</ele>
        <time>2021-08-06T10:48:38Z</time>
      </trkpt>
      <trkpt lat="47.60926" lon="-2.56439">
        <ele>45.4</ele>
        <time>2021-08-06T10:48:39Z</time>
      </trkpt>
      <trkpt lat="47.60926" lon="-2.56434">
        <ele>45.6</ele>
        <time>2021-08-06T10:48:40Z</time>
      </trkpt>
      <trkpt lat="47.60926" lon="-2.56429">
        <ele>45.6</ele>
        <time>2021-08-06T10:48:41Z</time>
      </trkpt>
      <trkpt lat="47.60927" lon="-2.56424">
        <ele>45.6</ele>
        <time>2021-08-06T10:48:42Z</time>
      </trkpt>
      <trkpt lat="47.60927" lon="-2.56419">
        <ele>45.6</ele>
        <time>2021-08-06T10:48:43Z</time>
      </trkpt>
      <trkpt lat="47.60928" lon="-2.56413">
        <ele>45.6</ele>
        <time>2021-08-06T10:48:44Z</time>
      </trkpt>
      <trkpt lat="47.60928" lon="-2.56406">
        <ele>45.6</ele>
        <time>2021-08-06T10:48:45Z</time>
      </trkpt>
      <trkpt lat="47.60928" lon="-2.56398">
        <ele>45.6</ele>
        <time>2021-08-06T10:48:46Z</time>
      </trkpt>
      <trkpt lat="47.60928" lon="-2.5639">
        <ele>45.6</ele>
        <time>2021-08-06T10:48:47Z</time>
      </trkpt>
      <trkpt lat="47.6093" lon="-2.56382">
        <ele>45.6</ele>
        <time>2021-08-06T10:48:48Z</time>
      </trkpt>
      <trkpt lat="47.60931" lon="-2.56375">
        <ele>45.6</ele>
        <time>2021-08-06T10:48:49Z</time>
      </trkpt>
      <trkpt lat="47.60933" lon="-2.56367">
        <ele>45.6</ele>
        <time>2021-08-06T10:48:50Z</time>
      </trkpt>
      <trkpt lat="47.60934" lon="-2.56358">
        <ele>45.4</ele>
        <time>2021-08-06T10:48:51Z</time>
      </trkpt>
      <trkpt lat="47.60936" lon="-2.56348">
        <ele>45.2</ele>
        <time>2021-08-06T10:48:52Z</time>
      </trkpt>
      <trkpt lat="47.60938" lon="-2.56336">
        <ele>44.8</ele>
        <time>2021-08-06T10:48:53Z</time>
      </trkpt>
      <trkpt lat="47.60939" lon="-2.56324">
        <ele>44.8</ele>
        <time>2021-08-06T10:48:54Z</time>
      </trkpt>
      <trkpt lat="47.6094" lon="-2.56313">
        <ele>44.4</ele>
        <time>2021-08-06T10:48:55Z</time>
      </trkpt>
      <trkpt lat="47.60942" lon="-2.56302">
        <ele>44.2</ele>
        <time>2021-08-06T10:48:56Z</time>
      </trkpt>
      <trkpt lat="47.60944" lon="-2.56291">
        <ele>43.8</ele>
        <time>2021-08-06T10:48:57Z</time>
      </trkpt>
      <trkpt lat="47.60946" lon="-2.5628">
        <ele>43.2</ele>
        <time>2021-08-06T10:48:58Z</time>
      </trkpt>
      <trkpt lat="47.60948" lon="-2.56269">
        <ele>43</ele>
        <time>2021-08-06T10:48:59Z</time>
      </trkpt>
      <trkpt lat="47.60949" lon="-2.56259">
        <ele>42.8</ele>
        <time>2021-08-06T10:49:00Z</time>
      </trkpt>
      <trkpt lat="47.6095" lon="-2.56248">
        <ele>42.6</ele>
        <time>2021-08-06T10:49:01Z</time>
      </trkpt>
      <trkpt lat="47.60952" lon="-2.56237">
        <ele>42.6</ele>
        <time>2021-08-06T10:49:02Z</time>
      </trkpt>
      <trkpt lat="47.60953" lon="-2.56226">
        <ele>42.6</ele>
        <time>2021-08-06T10:49:03Z</time>
      </trkpt>
      <trkpt lat="47.60954" lon="-2.56214">
        <ele>42.4</ele>
        <time>2021-08-06T10:49:04Z</time>
      </trkpt>
      <trkpt lat="47.60955" lon="-2.56203">
        <ele>42.2</ele>
        <time>2021-08-06T10:49:05Z</time>
      </trkpt>
      <trkpt lat="47.60957" lon="-2.56191">
        <ele>42</ele>
        <time>2021-08-06T10:49:06Z</time>
      </trkpt>
      <trkpt lat="47.60959" lon="-2.56179">
        <ele>41.8</ele>
        <time>2021-08-06T10:49:07Z</time>
      </trkpt>
      <trkpt lat="47.60961" lon="-2.56167">
        <ele>41.6</ele>
        <time>2021-08-06T10:49:08Z</time>
      </trkpt>
      <trkpt lat="47.60963" lon="-2.56154">
        <ele>41.6</ele>
        <time>2021-08-06T10:49:09Z</time>
      </trkpt>
      <trkpt lat="47.60965" lon="-2.56142">
        <ele>41.4</ele>
        <time>2021-08-06T10:49:10Z</time>
      </trkpt>
      <trkpt lat="47.60967" lon="-2.5613">
        <ele>41</ele>
        <time>2021-08-06T10:49:11Z</time>
      </trkpt>
      <trkpt lat="47.60969" lon="-2.56118">
        <ele>40.8</ele>
        <time>2021-08-06T10:49:12Z</time>
      </trkpt>
      <trkpt lat="47.6097" lon="-2.56107">
        <ele>40.6</ele>
        <time>2021-08-06T10:49:13Z</time>
      </trkpt>
      <trkpt lat="47.60972" lon="-2.56095">
        <ele>40.4</ele>
        <time>2021-08-06T10:49:14Z</time>
      </trkpt>
      <trkpt lat="47.60973" lon="-2.56084">
        <ele>40.4</ele>
        <time>2021-08-06T10:49:15Z</time>
      </trkpt>
      <trkpt lat="47.60976" lon="-2.56073">
        <ele>40.4</ele>
        <time>2021-08-06T10:49:16Z</time>
      </trkpt>
      <trkpt lat="47.60978" lon="-2.56061">
        <ele>40.4</ele>
        <time>2021-08-06T10:49:17Z</time>
      </trkpt>
      <trkpt lat="47.60979" lon="-2.5605">
        <ele>40.4</ele>
        <time>2021-08-06T10:49:18Z</time>
      </trkpt>
      <trkpt lat="47.60981" lon="-2.56039">
        <ele>40.4</ele>
        <time>2021-08-06T10:49:19Z</time>
      </trkpt>
      <trkpt lat="47.60982" lon="-2.56028">
        <ele>40.4</ele>
        <time>2021-08-06T10:49:20Z</time>
      </trkpt>
      <trkpt lat="47.60984" lon="-2.56017">
        <ele>40.4</ele>
        <time>2021-08-06T10:49:21Z</time>
      </trkpt>
      <trkpt lat="47.60985" lon="-2.56006">
        <ele>40.4</ele>
        <time>2021-08-06T10:49:22Z</time>
      </trkpt>
      <trkpt lat="47.60987" lon="-2.55994">
        <ele>40.4</ele>
        <time>2021-08-06T10:49:23Z</time>
      </trkpt>
      <trkpt lat="47.60989" lon="-2.55983">
        <ele>40.4</ele>
        <time>2021-08-06T10:49:24Z</time>
      </trkpt>
      <trkpt lat="47.6099" lon="-2.55972">
        <ele>40.4</ele>
        <time>2021-08-06T10:49:25Z</time>
      </trkpt>
      <trkpt lat="47.60992" lon="-2.55961">
        <ele>40.4</ele>
        <time>2021-08-06T10:49:26Z</time>
      </trkpt>
      <trkpt lat="47.60993" lon="-2.5595">
        <ele>40.4</ele>
        <time>2021-08-06T10:49:27Z</time>
      </trkpt>
      <trkpt lat="47.60994" lon="-2.55939">
        <ele>40.4</ele>
        <time>2021-08-06T10:49:28Z</time>
      </trkpt>
      <trkpt lat="47.60996" lon="-2.55928">
        <ele>40.4</ele>
        <time>2021-08-06T10:49:29Z</time>
      </trkpt>
      <trkpt lat="47.60997" lon="-2.55917">
        <ele>40.4</ele>
        <time>2021-08-06T10:49:30Z</time>
      </trkpt>
      <trkpt lat="47.60998" lon="-2.55905">
        <ele>40.4</ele>
        <time>2021-08-06T10:49:31Z</time>
      </trkpt>
      <trkpt lat="47.60999" lon="-2.55894">
        <ele>40.4</ele>
        <time>2021-08-06T10:49:32Z</time>
      </trkpt>
      <trkpt lat="47.61001" lon="-2.55884">
        <ele>40.4</ele>
        <time>2021-08-06T10:49:33Z</time>
      </trkpt>
      <trkpt lat="47.61002" lon="-2.55873">
        <ele>40.4</ele>
        <time>2021-08-06T10:49:34Z</time>
      </trkpt>
      <trkpt lat="47.61004" lon="-2.55862">
        <ele>40.4</ele>
        <time>2021-08-06T10:49:35Z</time>
      </trkpt>
      <trkpt lat="47.61006" lon="-2.55851">
        <ele>40.4</ele>
        <time>2021-08-06T10:49:36Z</time>
      </trkpt>
      <trkpt lat="47.61008" lon="-2.55841">
        <ele>40.4</ele>
        <time>2021-08-06T10:49:37Z</time>
      </trkpt>
      <trkpt lat="47.61011" lon="-2.55831">
        <ele>40.4</ele>
        <time>2021-08-06T10:49:38Z</time>
      </trkpt>
      <trkpt lat="47.61013" lon="-2.5582">
        <ele>40.4</ele>
        <time>2021-08-06T10:49:39Z</time>
      </trkpt>
      <trkpt lat="47.61014" lon="-2.55809">
        <ele>40.4</ele>
        <time>2021-08-06T10:49:40Z</time>
      </trkpt>
      <trkpt lat="47.61016" lon="-2.55799">
        <ele>40.4</ele>
        <time>2021-08-06T10:49:41Z</time>
      </trkpt>
      <trkpt lat="47.61017" lon="-2.55788">
        <ele>40.4</ele>
        <time>2021-08-06T10:49:42Z</time>
      </trkpt>
      <trkpt lat="47.61019" lon="-2.55777">
        <ele>40.6</ele>
        <time>2021-08-06T10:49:43Z</time>
      </trkpt>
      <trkpt lat="47.6102" lon="-2.55767">
        <ele>40.8</ele>
        <time>2021-08-06T10:49:44Z</time>
      </trkpt>
      <trkpt lat="47.61021" lon="-2.55757">
        <ele>40.8</ele>
        <time>2021-08-06T10:49:45Z</time>
      </trkpt>
      <trkpt lat="47.61022" lon="-2.55747">
        <ele>41</ele>
        <time>2021-08-06T10:49:46Z</time>
      </trkpt>
      <trkpt lat="47.61023" lon="-2.55738">
        <ele>41</ele>
        <time>2021-08-06T10:49:47Z</time>
      </trkpt>
      <trkpt lat="47.61024" lon="-2.55728">
        <ele>41.2</ele>
        <time>2021-08-06T10:49:48Z</time>
      </trkpt>
      <trkpt lat="47.61025" lon="-2.55719">
        <ele>41.4</ele>
        <time>2021-08-06T10:49:49Z</time>
      </trkpt>
      <trkpt lat="47.61026" lon="-2.5571">
        <ele>41.4</ele>
        <time>2021-08-06T10:49:50Z</time>
      </trkpt>
      <trkpt lat="47.61027" lon="-2.55701">
        <ele>41.6</ele>
        <time>2021-08-06T10:49:51Z</time>
      </trkpt>
      <trkpt lat="47.61028" lon="-2.55693">
        <ele>41.6</ele>
        <time>2021-08-06T10:49:52Z</time>
      </trkpt>
      <trkpt lat="47.61029" lon="-2.55685">
        <ele>41.6</ele>
        <time>2021-08-06T10:49:53Z</time>
      </trkpt>
      <trkpt lat="47.61029" lon="-2.55677">
        <ele>42</ele>
        <time>2021-08-06T10:49:54Z</time>
      </trkpt>
      <trkpt lat="47.6103" lon="-2.55669">
        <ele>42.2</ele>
        <time>2021-08-06T10:49:55Z</time>
      </trkpt>
      <trkpt lat="47.61031" lon="-2.55662">
        <ele>42.2</ele>
        <time>2021-08-06T10:49:56Z</time>
      </trkpt>
      <trkpt lat="47.61031" lon="-2.55654">
        <ele>42.4</ele>
        <time>2021-08-06T10:49:57Z</time>
      </trkpt>
      <trkpt lat="47.61033" lon="-2.55646">
        <ele>42.6</ele>
        <time>2021-08-06T10:49:58Z</time>
      </trkpt>
      <trkpt lat="47.61034" lon="-2.55637">
        <ele>42.8</ele>
        <time>2021-08-06T10:49:59Z</time>
      </trkpt>
      <trkpt lat="47.61034" lon="-2.55629">
        <ele>43</ele>
        <time>2021-08-06T10:50:00Z</time>
      </trkpt>
      <trkpt lat="47.61035" lon="-2.55621">
        <ele>43.2</ele>
        <time>2021-08-06T10:50:01Z</time>
      </trkpt>
      <trkpt lat="47.61036" lon="-2.55613">
        <ele>43.4</ele>
        <time>2021-08-06T10:50:02Z</time>
      </trkpt>
      <trkpt lat="47.61037" lon="-2.55605">
        <ele>43.6</ele>
        <time>2021-08-06T10:50:03Z</time>
      </trkpt>
      <trkpt lat="47.61038" lon="-2.55596">
        <ele>43.8</ele>
        <time>2021-08-06T10:50:04Z</time>
      </trkpt>
      <trkpt lat="47.61039" lon="-2.55588">
        <ele>43.8</ele>
        <time>2021-08-06T10:50:05Z</time>
      </trkpt>
      <trkpt lat="47.6104" lon="-2.5558">
        <ele>43.8</ele>
        <time>2021-08-06T10:50:06Z</time>
      </trkpt>
      <trkpt lat="47.61041" lon="-2.55572">
        <ele>44</ele>
        <time>2021-08-06T10:50:07Z</time>
      </trkpt>
      <trkpt lat="47.61042" lon="-2.55564">
        <ele>44</ele>
        <time>2021-08-06T10:50:08Z</time>
      </trkpt>
      <trkpt lat="47.61043" lon="-2.55556">
        <ele>44</ele>
        <time>2021-08-06T10:50:09Z</time>
      </trkpt>
      <trkpt lat="47.61044" lon="-2.55548">
        <ele>44</ele>
        <time>2021-08-06T10:50:10Z</time>
      </trkpt>
      <trkpt lat="47.61045" lon="-2.55541">
        <ele>44</ele>
        <time>2021-08-06T10:50:11Z</time>
      </trkpt>
      <trkpt lat="47.61046" lon="-2.55533">
        <ele>44</ele>
        <time>2021-08-06T10:50:12Z</time>
      </trkpt>
      <trkpt lat="47.61047" lon="-2.55526">
        <ele>44.2</ele>
        <time>2021-08-06T10:50:13Z</time>
      </trkpt>
      <trkpt lat="47.61048" lon="-2.55518">
        <ele>44.2</ele>
        <time>2021-08-06T10:50:14Z</time>
      </trkpt>
      <trkpt lat="47.61049" lon="-2.55511">
        <ele>44.2</ele>
        <time>2021-08-06T10:50:15Z</time>
      </trkpt>
      <trkpt lat="47.6105" lon="-2.55504">
        <ele>44.4</ele>
        <time>2021-08-06T10:50:16Z</time>
      </trkpt>
      <trkpt lat="47.61051" lon="-2.55496">
        <ele>44.8</ele>
        <time>2021-08-06T10:50:17Z</time>
      </trkpt>
      <trkpt lat="47.61052" lon="-2.55489">
        <ele>45</ele>
        <time>2021-08-06T10:50:18Z</time>
      </trkpt>
      <trkpt lat="47.61053" lon="-2.55482">
        <ele>45.2</ele>
        <time>2021-08-06T10:50:19Z</time>
      </trkpt>
      <trkpt lat="47.61054" lon="-2.55474">
        <ele>45.2</ele>
        <time>2021-08-06T10:50:20Z</time>
      </trkpt>
      <trkpt lat="47.61055" lon="-2.55467">
        <ele>45.4</ele>
        <time>2021-08-06T10:50:21Z</time>
      </trkpt>
      <trkpt lat="47.61055" lon="-2.55459">
        <ele>45.4</ele>
        <time>2021-08-06T10:50:22Z</time>
      </trkpt>
      <trkpt lat="47.61056" lon="-2.55452">
        <ele>45.4</ele>
        <time>2021-08-06T10:50:23Z</time>
      </trkpt>
      <trkpt lat="47.61057" lon="-2.55445">
        <ele>45.4</ele>
        <time>2021-08-06T10:50:24Z</time>
      </trkpt>
      <trkpt lat="47.61058" lon="-2.55437">
        <ele>45.6</ele>
        <time>2021-08-06T10:50:25Z</time>
      </trkpt>
      <trkpt lat="47.61059" lon="-2.5543">
        <ele>45.6</ele>
        <time>2021-08-06T10:50:26Z</time>
      </trkpt>
      <trkpt lat="47.6106" lon="-2.55422">
        <ele>45.6</ele>
        <time>2021-08-06T10:50:27Z</time>
      </trkpt>
      <trkpt lat="47.61061" lon="-2.55414">
        <ele>45.6</ele>
        <time>2021-08-06T10:50:28Z</time>
      </trkpt>
      <trkpt lat="47.61062" lon="-2.55407">
        <ele>45.8</ele>
        <time>2021-08-06T10:50:29Z</time>
      </trkpt>
      <trkpt lat="47.61063" lon="-2.55399">
        <ele>46</ele>
        <time>2021-08-06T10:50:30Z</time>
      </trkpt>
      <trkpt lat="47.61064" lon="-2.55392">
        <ele>46</ele>
        <time>2021-08-06T10:50:31Z</time>
      </trkpt>
      <trkpt lat="47.61065" lon="-2.55384">
        <ele>46.2</ele>
        <time>2021-08-06T10:50:32Z</time>
      </trkpt>
      <trkpt lat="47.61066" lon="-2.55377">
        <ele>46.2</ele>
        <time>2021-08-06T10:50:33Z</time>
      </trkpt>
      <trkpt lat="47.61068" lon="-2.55369">
        <ele>46.2</ele>
        <time>2021-08-06T10:50:34Z</time>
      </trkpt>
      <trkpt lat="47.61069" lon="-2.55362">
        <ele>46.4</ele>
        <time>2021-08-06T10:50:35Z</time>
      </trkpt>
      <trkpt lat="47.6107" lon="-2.55355">
        <ele>46.4</ele>
        <time>2021-08-06T10:50:36Z</time>
      </trkpt>
      <trkpt lat="47.6107" lon="-2.55347">
        <ele>46.6</ele>
        <time>2021-08-06T10:50:37Z</time>
      </trkpt>
      <trkpt lat="47.61071" lon="-2.5534">
        <ele>46.8</ele>
        <time>2021-08-06T10:50:38Z</time>
      </trkpt>
      <trkpt lat="47.61073" lon="-2.55332">
        <ele>46.8</ele>
        <time>2021-08-06T10:50:39Z</time>
      </trkpt>
      <trkpt lat="47.61074" lon="-2.55325">
        <ele>46.8</ele>
        <time>2021-08-06T10:50:40Z</time>
      </trkpt>
      <trkpt lat="47.61075" lon="-2.55317">
        <ele>46.8</ele>
        <time>2021-08-06T10:50:41Z</time>
      </trkpt>
      <trkpt lat="47.61076" lon="-2.55309">
        <ele>46.8</ele>
        <time>2021-08-06T10:50:42Z</time>
      </trkpt>
      <trkpt lat="47.61077" lon="-2.55301">
        <ele>46.8</ele>
        <time>2021-08-06T10:50:43Z</time>
      </trkpt>
      <trkpt lat="47.61078" lon="-2.55293">
        <ele>46.8</ele>
        <time>2021-08-06T10:50:44Z</time>
      </trkpt>
      <trkpt lat="47.61079" lon="-2.55286">
        <ele>46.8</ele>
        <time>2021-08-06T10:50:45Z</time>
      </trkpt>
      <trkpt lat="47.6108" lon="-2.55278">
        <ele>46.6</ele>
        <time>2021-08-06T10:50:46Z</time>
      </trkpt>
      <trkpt lat="47.61081" lon="-2.5527">
        <ele>46.6</ele>
        <time>2021-08-06T10:50:47Z</time>
      </trkpt>
      <trkpt lat="47.61081" lon="-2.55262">
        <ele>46.6</ele>
        <time>2021-08-06T10:50:48Z</time>
      </trkpt>
      <trkpt lat="47.61082" lon="-2.55254">
        <ele>46.4</ele>
        <time>2021-08-06T10:50:49Z</time>
      </trkpt>
      <trkpt lat="47.61082" lon="-2.55246">
        <ele>46.4</ele>
        <time>2021-08-06T10:50:50Z</time>
      </trkpt>
      <trkpt lat="47.61083" lon="-2.55239">
        <ele>46.4</ele>
        <time>2021-08-06T10:50:51Z</time>
      </trkpt>
      <trkpt lat="47.61084" lon="-2.55231">
        <ele>46.2</ele>
        <time>2021-08-06T10:50:52Z</time>
      </trkpt>
      <trkpt lat="47.61085" lon="-2.55223">
        <ele>46.2</ele>
        <time>2021-08-06T10:50:53Z</time>
      </trkpt>
      <trkpt lat="47.61087" lon="-2.55215">
        <ele>46.2</ele>
        <time>2021-08-06T10:50:54Z</time>
      </trkpt>
      <trkpt lat="47.61088" lon="-2.55207">
        <ele>46.2</ele>
        <time>2021-08-06T10:50:55Z</time>
      </trkpt>
      <trkpt lat="47.61089" lon="-2.55199">
        <ele>46.2</ele>
        <time>2021-08-06T10:50:56Z</time>
      </trkpt>
      <trkpt lat="47.6109" lon="-2.55191">
        <ele>46.2</ele>
        <time>2021-08-06T10:50:57Z</time>
      </trkpt>
      <trkpt lat="47.61091" lon="-2.55184">
        <ele>46.2</ele>
        <time>2021-08-06T10:50:58Z</time>
      </trkpt>
      <trkpt lat="47.61092" lon="-2.55176">
        <ele>46.2</ele>
        <time>2021-08-06T10:50:59Z</time>
      </trkpt>
      <trkpt lat="47.61093" lon="-2.55167">
        <ele>46</ele>
        <time>2021-08-06T10:51:00Z</time>
      </trkpt>
      <trkpt lat="47.61093" lon="-2.55159">
        <ele>46</ele>
        <time>2021-08-06T10:51:01Z</time>
      </trkpt>
      <trkpt lat="47.61094" lon="-2.55151">
        <ele>46</ele>
        <time>2021-08-06T10:51:02Z</time>
      </trkpt>
      <trkpt lat="47.61095" lon="-2.55142">
        <ele>46</ele>
        <time>2021-08-06T10:51:03Z</time>
      </trkpt>
      <trkpt lat="47.61096" lon="-2.55134">
        <ele>46</ele>
        <time>2021-08-06T10:51:04Z</time>
      </trkpt>
      <trkpt lat="47.61097" lon="-2.55125">
        <ele>46</ele>
        <time>2021-08-06T10:51:05Z</time>
      </trkpt>
      <trkpt lat="47.61098" lon="-2.55117">
        <ele>46</ele>
        <time>2021-08-06T10:51:06Z</time>
      </trkpt>
      <trkpt lat="47.61099" lon="-2.5511">
        <ele>46</ele>
        <time>2021-08-06T10:51:07Z</time>
      </trkpt>
      <trkpt lat="47.611" lon="-2.55103">
        <ele>45.8</ele>
        <time>2021-08-06T10:51:08Z</time>
      </trkpt>
      <trkpt lat="47.611" lon="-2.55096">
        <ele>45.8</ele>
        <time>2021-08-06T10:51:09Z</time>
      </trkpt>
      <trkpt lat="47.61101" lon="-2.55089">
        <ele>45.6</ele>
        <time>2021-08-06T10:51:10Z</time>
      </trkpt>
      <trkpt lat="47.61103" lon="-2.55082">
        <ele>45.4</ele>
        <time>2021-08-06T10:51:11Z</time>
      </trkpt>
      <trkpt lat="47.61104" lon="-2.55076">
        <ele>45.2</ele>
        <time>2021-08-06T10:51:12Z</time>
      </trkpt>
      <trkpt lat="47.61105" lon="-2.55068">
        <ele>45.2</ele>
        <time>2021-08-06T10:51:13Z</time>
      </trkpt>
      <trkpt lat="47.61106" lon="-2.5506">
        <ele>45</ele>
        <time>2021-08-06T10:51:14Z</time>
      </trkpt>
      <trkpt lat="47.61107" lon="-2.55052">
        <ele>45</ele>
        <time>2021-08-06T10:51:15Z</time>
      </trkpt>
      <trkpt lat="47.61107" lon="-2.55043">
        <ele>45</ele>
        <time>2021-08-06T10:51:16Z</time>
      </trkpt>
      <trkpt lat="47.61108" lon="-2.55034">
        <ele>45</ele>
        <time>2021-08-06T10:51:17Z</time>
      </trkpt>
      <trkpt lat="47.61109" lon="-2.55025">
        <ele>45</ele>
        <time>2021-08-06T10:51:18Z</time>
      </trkpt>
      <trkpt lat="47.6111" lon="-2.55017">
        <ele>44.8</ele>
        <time>2021-08-06T10:51:19Z</time>
      </trkpt>
      <trkpt lat="47.61111" lon="-2.55008">
        <ele>44.8</ele>
        <time>2021-08-06T10:51:20Z</time>
      </trkpt>
      <trkpt lat="47.61113" lon="-2.54999">
        <ele>44.8</ele>
        <time>2021-08-06T10:51:21Z</time>
      </trkpt>
      <trkpt lat="47.61114" lon="-2.5499">
        <ele>44.6</ele>
        <time>2021-08-06T10:51:22Z</time>
      </trkpt>
      <trkpt lat="47.61114" lon="-2.54981">
        <ele>44.6</ele>
        <time>2021-08-06T10:51:23Z</time>
      </trkpt>
      <trkpt lat="47.61114" lon="-2.54972">
        <ele>44.4</ele>
        <time>2021-08-06T10:51:24Z</time>
      </trkpt>
      <trkpt lat="47.61113" lon="-2.54964">
        <ele>44.4</ele>
        <time>2021-08-06T10:51:25Z</time>
      </trkpt>
      <trkpt lat="47.61112" lon="-2.54955">
        <ele>44.2</ele>
        <time>2021-08-06T10:51:26Z</time>
      </trkpt>
      <trkpt lat="47.61112" lon="-2.54946">
        <ele>44</ele>
        <time>2021-08-06T10:51:27Z</time>
      </trkpt>
      <trkpt lat="47.61113" lon="-2.54938">
        <ele>43.8</ele>
        <time>2021-08-06T10:51:28Z</time>
      </trkpt>
      <trkpt lat="47.61115" lon="-2.54929">
        <ele>43.6</ele>
        <time>2021-08-06T10:51:29Z</time>
      </trkpt>
      <trkpt lat="47.61117" lon="-2.5492">
        <ele>43.4</ele>
        <time>2021-08-06T10:51:30Z</time>
      </trkpt>
      <trkpt lat="47.61119" lon="-2.54912">
        <ele>43.2</ele>
        <time>2021-08-06T10:51:31Z</time>
      </trkpt>
      <trkpt lat="47.61122" lon="-2.54905">
        <ele>43.2</ele>
        <time>2021-08-06T10:51:32Z</time>
      </trkpt>
      <trkpt lat="47.61124" lon="-2.54898">
        <ele>43.2</ele>
        <time>2021-08-06T10:51:33Z</time>
      </trkpt>
      <trkpt lat="47.61126" lon="-2.54891">
        <ele>43.2</ele>
        <time>2021-08-06T10:51:34Z</time>
      </trkpt>
      <trkpt lat="47.61128" lon="-2.54884">
        <ele>43.2</ele>
        <time>2021-08-06T10:51:35Z</time>
      </trkpt>
      <trkpt lat="47.61129" lon="-2.54877">
        <ele>43.2</ele>
        <time>2021-08-06T10:51:36Z</time>
      </trkpt>
      <trkpt lat="47.6113" lon="-2.54871">
        <ele>43.2</ele>
        <time>2021-08-06T10:51:37Z</time>
      </trkpt>
      <trkpt lat="47.61131" lon="-2.54865">
        <ele>43.2</ele>
        <time>2021-08-06T10:51:38Z</time>
      </trkpt>
      <trkpt lat="47.61131" lon="-2.54858">
        <ele>43.2</ele>
        <time>2021-08-06T10:51:39Z</time>
      </trkpt>
      <trkpt lat="47.61132" lon="-2.54852">
        <ele>43.2</ele>
        <time>2021-08-06T10:51:40Z</time>
      </trkpt>
      <trkpt lat="47.61133" lon="-2.54846">
        <ele>43.2</ele>
        <time>2021-08-06T10:51:41Z</time>
      </trkpt>
      <trkpt lat="47.61134" lon="-2.5484">
        <ele>43.4</ele>
        <time>2021-08-06T10:51:42Z</time>
      </trkpt>
      <trkpt lat="47.61135" lon="-2.54833">
        <ele>43.6</ele>
        <time>2021-08-06T10:51:43Z</time>
      </trkpt>
      <trkpt lat="47.61136" lon="-2.54827">
        <ele>43.8</ele>
        <time>2021-08-06T10:51:44Z</time>
      </trkpt>
      <trkpt lat="47.61137" lon="-2.54821">
        <ele>43.8</ele>
        <time>2021-08-06T10:51:45Z</time>
      </trkpt>
      <trkpt lat="47.61138" lon="-2.54815">
        <ele>44</ele>
        <time>2021-08-06T10:51:46Z</time>
      </trkpt>
      <trkpt lat="47.61139" lon="-2.54808">
        <ele>44.2</ele>
        <time>2021-08-06T10:51:47Z</time>
      </trkpt>
      <trkpt lat="47.61139" lon="-2.54802">
        <ele>44.2</ele>
        <time>2021-08-06T10:51:48Z</time>
      </trkpt>
      <trkpt lat="47.6114" lon="-2.54795">
        <ele>44.4</ele>
        <time>2021-08-06T10:51:49Z</time>
      </trkpt>
      <trkpt lat="47.61142" lon="-2.54789">
        <ele>44.6</ele>
        <time>2021-08-06T10:51:50Z</time>
      </trkpt>
      <trkpt lat="47.61143" lon="-2.54782">
        <ele>44.6</ele>
        <time>2021-08-06T10:51:51Z</time>
      </trkpt>
      <trkpt lat="47.61143" lon="-2.54776">
        <ele>44.6</ele>
        <time>2021-08-06T10:51:52Z</time>
      </trkpt>
      <trkpt lat="47.61145" lon="-2.54769">
        <ele>44.8</ele>
        <time>2021-08-06T10:51:53Z</time>
      </trkpt>
      <trkpt lat="47.61146" lon="-2.54763">
        <ele>44.8</ele>
        <time>2021-08-06T10:51:54Z</time>
      </trkpt>
      <trkpt lat="47.61147" lon="-2.54757">
        <ele>44.8</ele>
        <time>2021-08-06T10:51:55Z</time>
      </trkpt>
      <trkpt lat="47.61148" lon="-2.54751">
        <ele>44.8</ele>
        <time>2021-08-06T10:51:56Z</time>
      </trkpt>
      <trkpt lat="47.61149" lon="-2.54744">
        <ele>45</ele>
        <time>2021-08-06T10:51:57Z</time>
      </trkpt>
      <trkpt lat="47.6115" lon="-2.54738">
        <ele>45</ele>
        <time>2021-08-06T10:51:58Z</time>
      </trkpt>
      <trkpt lat="47.61151" lon="-2.54731">
        <ele>45.2</ele>
        <time>2021-08-06T10:51:59Z</time>
      </trkpt>
      <trkpt lat="47.61153" lon="-2.54725">
        <ele>45.4</ele>
        <time>2021-08-06T10:52:00Z</time>
      </trkpt>
      <trkpt lat="47.61155" lon="-2.54719">
        <ele>45.4</ele>
        <time>2021-08-06T10:52:01Z</time>
      </trkpt>
      <trkpt lat="47.61156" lon="-2.54712">
        <ele>45.4</ele>
        <time>2021-08-06T10:52:02Z</time>
      </trkpt>
      <trkpt lat="47.61158" lon="-2.54705">
        <ele>45.6</ele>
        <time>2021-08-06T10:52:03Z</time>
      </trkpt>
      <trkpt lat="47.6116" lon="-2.54699">
        <ele>45.6</ele>
        <time>2021-08-06T10:52:04Z</time>
      </trkpt>
      <trkpt lat="47.61162" lon="-2.54692">
        <ele>45.6</ele>
        <time>2021-08-06T10:52:05Z</time>
      </trkpt>
      <trkpt lat="47.61164" lon="-2.54685">
        <ele>45.6</ele>
        <time>2021-08-06T10:52:06Z</time>
      </trkpt>
      <trkpt lat="47.61166" lon="-2.54678">
        <ele>45.6</ele>
        <time>2021-08-06T10:52:07Z</time>
      </trkpt>
      <trkpt lat="47.61169" lon="-2.54671">
        <ele>45.8</ele>
        <time>2021-08-06T10:52:08Z</time>
      </trkpt>
      <trkpt lat="47.61171" lon="-2.54665">
        <ele>45.8</ele>
        <time>2021-08-06T10:52:09Z</time>
      </trkpt>
      <trkpt lat="47.61173" lon="-2.54659">
        <ele>45.8</ele>
        <time>2021-08-06T10:52:10Z</time>
      </trkpt>
      <trkpt lat="47.61176" lon="-2.54652">
        <ele>45.8</ele>
        <time>2021-08-06T10:52:11Z</time>
      </trkpt>
      <trkpt lat="47.61178" lon="-2.54646">
        <ele>45.8</ele>
        <time>2021-08-06T10:52:12Z</time>
      </trkpt>
      <trkpt lat="47.6118" lon="-2.54639">
        <ele>45.8</ele>
        <time>2021-08-06T10:52:13Z</time>
      </trkpt>
      <trkpt lat="47.61182" lon="-2.54633">
        <ele>45.8</ele>
        <time>2021-08-06T10:52:14Z</time>
      </trkpt>
      <trkpt lat="47.61183" lon="-2.54626">
        <ele>45.8</ele>
        <time>2021-08-06T10:52:15Z</time>
      </trkpt>
      <trkpt lat="47.61184" lon="-2.5462">
        <ele>45.8</ele>
        <time>2021-08-06T10:52:16Z</time>
      </trkpt>
      <trkpt lat="47.61184" lon="-2.54614">
        <ele>45.8</ele>
        <time>2021-08-06T10:52:17Z</time>
      </trkpt>
      <trkpt lat="47.61183" lon="-2.54609">
        <ele>45.6</ele>
        <time>2021-08-06T10:52:18Z</time>
      </trkpt>
      <trkpt lat="47.61184" lon="-2.54605">
        <ele>45.6</ele>
        <time>2021-08-06T10:52:19Z</time>
      </trkpt>
      <trkpt lat="47.61185" lon="-2.54601">
        <ele>45.6</ele>
        <time>2021-08-06T10:52:20Z</time>
      </trkpt>
      <trkpt lat="47.61188" lon="-2.54599">
        <ele>45.6</ele>
        <time>2021-08-06T10:52:21Z</time>
      </trkpt>
      <trkpt lat="47.61191" lon="-2.54596">
        <ele>45.6</ele>
        <time>2021-08-06T10:52:22Z</time>
      </trkpt>
      <trkpt lat="47.61194" lon="-2.54593">
        <ele>45.6</ele>
        <time>2021-08-06T10:52:23Z</time>
      </trkpt>
      <trkpt lat="47.61197" lon="-2.5459">
        <ele>45.6</ele>
        <time>2021-08-06T10:52:24Z</time>
      </trkpt>
      <trkpt lat="47.612" lon="-2.54586">
        <ele>45.6</ele>
        <time>2021-08-06T10:52:25Z</time>
      </trkpt>
      <trkpt lat="47.61203" lon="-2.54581">
        <ele>45.6</ele>
        <time>2021-08-06T10:52:26Z</time>
      </trkpt>
      <trkpt lat="47.61205" lon="-2.54576">
        <ele>45.4</ele>
        <time>2021-08-06T10:52:27Z</time>
      </trkpt>
      <trkpt lat="47.61207" lon="-2.54571">
        <ele>45.4</ele>
        <time>2021-08-06T10:52:28Z</time>
      </trkpt>
      <trkpt lat="47.61209" lon="-2.54565">
        <ele>45.4</ele>
        <time>2021-08-06T10:52:29Z</time>
      </trkpt>
      <trkpt lat="47.61212" lon="-2.54559">
        <ele>45.4</ele>
        <time>2021-08-06T10:52:30Z</time>
      </trkpt>
      <trkpt lat="47.61214" lon="-2.54553">
        <ele>45.4</ele>
        <time>2021-08-06T10:52:31Z</time>
      </trkpt>
      <trkpt lat="47.61216" lon="-2.54546">
        <ele>45.4</ele>
        <time>2021-08-06T10:52:32Z</time>
      </trkpt>
      <trkpt lat="47.61219" lon="-2.5454">
        <ele>45.4</ele>
        <time>2021-08-06T10:52:33Z</time>
      </trkpt>
      <trkpt lat="47.61222" lon="-2.54533">
        <ele>45.4</ele>
        <time>2021-08-06T10:52:34Z</time>
      </trkpt>
      <trkpt lat="47.61225" lon="-2.54527">
        <ele>45.4</ele>
        <time>2021-08-06T10:52:35Z</time>
      </trkpt>
      <trkpt lat="47.61228" lon="-2.54521">
        <ele>45.4</ele>
        <time>2021-08-06T10:52:36Z</time>
      </trkpt>
      <trkpt lat="47.61231" lon="-2.54515">
        <ele>45.4</ele>
        <time>2021-08-06T10:52:37Z</time>
      </trkpt>
      <trkpt lat="47.61234" lon="-2.54509">
        <ele>45.4</ele>
        <time>2021-08-06T10:52:38Z</time>
      </trkpt>
      <trkpt lat="47.61237" lon="-2.54503">
        <ele>45.4</ele>
        <time>2021-08-06T10:52:39Z</time>
      </trkpt>
      <trkpt lat="47.6124" lon="-2.54496">
        <ele>45.4</ele>
        <time>2021-08-06T10:52:40Z</time>
      </trkpt>
      <trkpt lat="47.61243" lon="-2.54491">
        <ele>45.4</ele>
        <time>2021-08-06T10:52:41Z</time>
      </trkpt>
      <trkpt lat="47.61246" lon="-2.54486">
        <ele>45.4</ele>
        <time>2021-08-06T10:52:42Z</time>
      </trkpt>
      <trkpt lat="47.6125" lon="-2.54481">
        <ele>45.4</ele>
        <time>2021-08-06T10:52:43Z</time>
      </trkpt>
      <trkpt lat="47.61253" lon="-2.54475">
        <ele>45.4</ele>
        <time>2021-08-06T10:52:44Z</time>
      </trkpt>
      <trkpt lat="47.61256" lon="-2.5447">
        <ele>45.4</ele>
        <time>2021-08-06T10:52:45Z</time>
      </trkpt>
      <trkpt lat="47.61259" lon="-2.54464">
        <ele>45.4</ele>
        <time>2021-08-06T10:52:46Z</time>
      </trkpt>
      <trkpt lat="47.61262" lon="-2.54459">
        <ele>45.4</ele>
        <time>2021-08-06T10:52:47Z</time>
      </trkpt>
      <trkpt lat="47.61265" lon="-2.54453">
        <ele>45.4</ele>
        <time>2021-08-06T10:52:48Z</time>
      </trkpt>
      <trkpt lat="47.61269" lon="-2.54447">
        <ele>45.4</ele>
        <time>2021-08-06T10:52:49Z</time>
      </trkpt>
      <trkpt lat="47.61272" lon="-2.54442">
        <ele>45.2</ele>
        <time>2021-08-06T10:52:50Z</time>
      </trkpt>
      <trkpt lat="47.61275" lon="-2.54437">
        <ele>45.2</ele>
        <time>2021-08-06T10:52:51Z</time>
      </trkpt>
      <trkpt lat="47.61278" lon="-2.54431">
        <ele>45.2</ele>
        <time>2021-08-06T10:52:52Z</time>
      </trkpt>
      <trkpt lat="47.61281" lon="-2.54426">
        <ele>45.2</ele>
        <time>2021-08-06T10:52:53Z</time>
      </trkpt>
      <trkpt lat="47.61284" lon="-2.54421">
        <ele>45</ele>
        <time>2021-08-06T10:52:54Z</time>
      </trkpt>
      <trkpt lat="47.61287" lon="-2.54416">
        <ele>45</ele>
        <time>2021-08-06T10:52:55Z</time>
      </trkpt>
      <trkpt lat="47.6129" lon="-2.54411">
        <ele>45</ele>
        <time>2021-08-06T10:52:56Z</time>
      </trkpt>
      <trkpt lat="47.61293" lon="-2.54406">
        <ele>45</ele>
        <time>2021-08-06T10:52:57Z</time>
      </trkpt>
      <trkpt lat="47.61297" lon="-2.54401">
        <ele>45</ele>
        <time>2021-08-06T10:52:58Z</time>
      </trkpt>
      <trkpt lat="47.613" lon="-2.54397">
        <ele>45</ele>
        <time>2021-08-06T10:52:59Z</time>
      </trkpt>
      <trkpt lat="47.61304" lon="-2.54392">
        <ele>45</ele>
        <time>2021-08-06T10:53:00Z</time>
      </trkpt>
      <trkpt lat="47.61307" lon="-2.54387">
        <ele>45</ele>
        <time>2021-08-06T10:53:01Z</time>
      </trkpt>
      <trkpt lat="47.61311" lon="-2.54382">
        <ele>45.2</ele>
        <time>2021-08-06T10:53:02Z</time>
      </trkpt>
      <trkpt lat="47.61314" lon="-2.54377">
        <ele>45.4</ele>
        <time>2021-08-06T10:53:03Z</time>
      </trkpt>
      <trkpt lat="47.61318" lon="-2.54373">
        <ele>45.6</ele>
        <time>2021-08-06T10:53:04Z</time>
      </trkpt>
      <trkpt lat="47.61321" lon="-2.54368">
        <ele>45.8</ele>
        <time>2021-08-06T10:53:05Z</time>
      </trkpt>
      <trkpt lat="47.61325" lon="-2.54364">
        <ele>45.8</ele>
        <time>2021-08-06T10:53:06Z</time>
      </trkpt>
      <trkpt lat="47.61328" lon="-2.54359">
        <ele>46</ele>
        <time>2021-08-06T10:53:07Z</time>
      </trkpt>
      <trkpt lat="47.61332" lon="-2.54355">
        <ele>46</ele>
        <time>2021-08-06T10:53:08Z</time>
      </trkpt>
      <trkpt lat="47.61336" lon="-2.54351">
        <ele>46</ele>
        <time>2021-08-06T10:53:09Z</time>
      </trkpt>
      <trkpt lat="47.6134" lon="-2.54348">
        <ele>46</ele>
        <time>2021-08-06T10:53:10Z</time>
      </trkpt>
      <trkpt lat="47.61344" lon="-2.54345">
        <ele>46</ele>
        <time>2021-08-06T10:53:11Z</time>
      </trkpt>
      <trkpt lat="47.61348" lon="-2.54342">
        <ele>46</ele>
        <time>2021-08-06T10:53:12Z</time>
      </trkpt>
      <trkpt lat="47.61353" lon="-2.5434">
        <ele>46.2</ele>
        <time>2021-08-06T10:53:13Z</time>
      </trkpt>
      <trkpt lat="47.61357" lon="-2.54338">
        <ele>46.2</ele>
        <time>2021-08-06T10:53:14Z</time>
      </trkpt>
      <trkpt lat="47.61361" lon="-2.54336">
        <ele>46.2</ele>
        <time>2021-08-06T10:53:15Z</time>
      </trkpt>
      <trkpt lat="47.61365" lon="-2.54333">
        <ele>46.2</ele>
        <time>2021-08-06T10:53:16Z</time>
      </trkpt>
      <trkpt lat="47.6137" lon="-2.54331">
        <ele>46.2</ele>
        <time>2021-08-06T10:53:17Z</time>
      </trkpt>
      <trkpt lat="47.61374" lon="-2.54328">
        <ele>46.2</ele>
        <time>2021-08-06T10:53:18Z</time>
      </trkpt>
      <trkpt lat="47.61379" lon="-2.54326">
        <ele>46.2</ele>
        <time>2021-08-06T10:53:19Z</time>
      </trkpt>
      <trkpt lat="47.61384" lon="-2.54324">
        <ele>46.2</ele>
        <time>2021-08-06T10:53:20Z</time>
      </trkpt>
      <trkpt lat="47.61389" lon="-2.54322">
        <ele>46.2</ele>
        <time>2021-08-06T10:53:21Z</time>
      </trkpt>
      <trkpt lat="47.61393" lon="-2.5432">
        <ele>46.2</ele>
        <time>2021-08-06T10:53:22Z</time>
      </trkpt>
      <trkpt lat="47.61398" lon="-2.54318">
        <ele>46.2</ele>
        <time>2021-08-06T10:53:23Z</time>
      </trkpt>
      <trkpt lat="47.61403" lon="-2.54315">
        <ele>46.2</ele>
        <time>2021-08-06T10:53:24Z</time>
      </trkpt>
      <trkpt lat="47.61407" lon="-2.54313">
        <ele>46.2</ele>
        <time>2021-08-06T10:53:25Z</time>
      </trkpt>
      <trkpt lat="47.61412" lon="-2.5431">
        <ele>46.2</ele>
        <time>2021-08-06T10:53:26Z</time>
      </trkpt>
      <trkpt lat="47.61416" lon="-2.54308">
        <ele>46.2</ele>
        <time>2021-08-06T10:53:27Z</time>
      </trkpt>
      <trkpt lat="47.61421" lon="-2.54306">
        <ele>46.2</ele>
        <time>2021-08-06T10:53:28Z</time>
      </trkpt>
      <trkpt lat="47.61425" lon="-2.54303">
        <ele>46.2</ele>
        <time>2021-08-06T10:53:29Z</time>
      </trkpt>
      <trkpt lat="47.6143" lon="-2.54301">
        <ele>46.2</ele>
        <time>2021-08-06T10:53:30Z</time>
      </trkpt>
      <trkpt lat="47.61434" lon="-2.54299">
        <ele>46.2</ele>
        <time>2021-08-06T10:53:31Z</time>
      </trkpt>
      <trkpt lat="47.61439" lon="-2.54297">
        <ele>46.2</ele>
        <time>2021-08-06T10:53:32Z</time>
      </trkpt>
      <trkpt lat="47.61443" lon="-2.54294">
        <ele>46.2</ele>
        <time>2021-08-06T10:53:33Z</time>
      </trkpt>
      <trkpt lat="47.61448" lon="-2.54292">
        <ele>46.2</ele>
        <time>2021-08-06T10:53:34Z</time>
      </trkpt>
      <trkpt lat="47.61453" lon="-2.54289">
        <ele>46</ele>
        <time>2021-08-06T10:53:35Z</time>
      </trkpt>
      <trkpt lat="47.61458" lon="-2.54286">
        <ele>46</ele>
        <time>2021-08-06T10:53:36Z</time>
      </trkpt>
      <trkpt lat="47.61462" lon="-2.54283">
        <ele>46</ele>
        <time>2021-08-06T10:53:37Z</time>
      </trkpt>
      <trkpt lat="47.61467" lon="-2.54281">
        <ele>46</ele>
        <time>2021-08-06T10:53:38Z</time>
      </trkpt>
      <trkpt lat="47.61472" lon="-2.54277">
        <ele>46</ele>
        <time>2021-08-06T10:53:39Z</time>
      </trkpt>
      <trkpt lat="47.61476" lon="-2.54273">
        <ele>46</ele>
        <time>2021-08-06T10:53:40Z</time>
      </trkpt>
      <trkpt lat="47.61479" lon="-2.54267">
        <ele>46</ele>
        <time>2021-08-06T10:53:41Z</time>
      </trkpt>
      <trkpt lat="47.61481" lon="-2.5426">
        <ele>45.8</ele>
        <time>2021-08-06T10:53:42Z</time>
      </trkpt>
      <trkpt lat="47.61482" lon="-2.54251">
        <ele>45.8</ele>
        <time>2021-08-06T10:53:43Z</time>
      </trkpt>
      <trkpt lat="47.61483" lon="-2.54242">
        <ele>45.6</ele>
        <time>2021-08-06T10:53:44Z</time>
      </trkpt>
      <trkpt lat="47.61484" lon="-2.54232">
        <ele>45.2</ele>
        <time>2021-08-06T10:53:45Z</time>
      </trkpt>
      <trkpt lat="47.61485" lon="-2.54222">
        <ele>44.8</ele>
        <time>2021-08-06T10:53:46Z</time>
      </trkpt>
      <trkpt lat="47.61485" lon="-2.54211">
        <ele>44.6</ele>
        <time>2021-08-06T10:53:47Z</time>
      </trkpt>
      <trkpt lat="47.61486" lon="-2.54199">
        <ele>44.4</ele>
        <time>2021-08-06T10:53:48Z</time>
      </trkpt>
      <trkpt lat="47.61487" lon="-2.54187">
        <ele>44.2</ele>
        <time>2021-08-06T10:53:49Z</time>
      </trkpt>
      <trkpt lat="47.61487" lon="-2.54175">
        <ele>43.8</ele>
        <time>2021-08-06T10:53:50Z</time>
      </trkpt>
      <trkpt lat="47.61488" lon="-2.54162">
        <ele>43.2</ele>
        <time>2021-08-06T10:53:51Z</time>
      </trkpt>
      <trkpt lat="47.61489" lon="-2.54149">
        <ele>42.8</ele>
        <time>2021-08-06T10:53:52Z</time>
      </trkpt>
      <trkpt lat="47.61489" lon="-2.54136">
        <ele>42.4</ele>
        <time>2021-08-06T10:53:53Z</time>
      </trkpt>
      <trkpt lat="47.6149" lon="-2.54123">
        <ele>41.8</ele>
        <time>2021-08-06T10:53:54Z</time>
      </trkpt>
      <trkpt lat="47.6149" lon="-2.5411">
        <ele>41.4</ele>
        <time>2021-08-06T10:53:55Z</time>
      </trkpt>
      <trkpt lat="47.61491" lon="-2.54097">
        <ele>40.8</ele>
        <time>2021-08-06T10:53:56Z</time>
      </trkpt>
      <trkpt lat="47.61492" lon="-2.54083">
        <ele>40</ele>
        <time>2021-08-06T10:53:57Z</time>
      </trkpt>
      <trkpt lat="47.61494" lon="-2.5407">
        <ele>39.4</ele>
        <time>2021-08-06T10:53:58Z</time>
      </trkpt>
      <trkpt lat="47.61496" lon="-2.54059">
        <ele>38.8</ele>
        <time>2021-08-06T10:53:59Z</time>
      </trkpt>
      <trkpt lat="47.61498" lon="-2.54048">
        <ele>38.2</ele>
        <time>2021-08-06T10:54:00Z</time>
      </trkpt>
      <trkpt lat="47.61499" lon="-2.54038">
        <ele>37.8</ele>
        <time>2021-08-06T10:54:01Z</time>
      </trkpt>
      <trkpt lat="47.61499" lon="-2.54029">
        <ele>37.6</ele>
        <time>2021-08-06T10:54:02Z</time>
      </trkpt>
      <trkpt lat="47.61497" lon="-2.54021">
        <ele>37.4</ele>
        <time>2021-08-06T10:54:03Z</time>
      </trkpt>
      <trkpt lat="47.61495" lon="-2.54013">
        <ele>37.4</ele>
        <time>2021-08-06T10:54:04Z</time>
      </trkpt>
      <trkpt lat="47.61493" lon="-2.54006">
        <ele>37.2</ele>
        <time>2021-08-06T10:54:05Z</time>
      </trkpt>
      <trkpt lat="47.61492" lon="-2.53999">
        <ele>37.2</ele>
        <time>2021-08-06T10:54:06Z</time>
      </trkpt>
      <trkpt lat="47.6149" lon="-2.53993">
        <ele>37.2</ele>
        <time>2021-08-06T10:54:07Z</time>
      </trkpt>
      <trkpt lat="47.61489" lon="-2.53986">
        <ele>37.2</ele>
        <time>2021-08-06T10:54:08Z</time>
      </trkpt>
      <trkpt lat="47.61487" lon="-2.5398">
        <ele>37.2</ele>
        <time>2021-08-06T10:54:09Z</time>
      </trkpt>
      <trkpt lat="47.61484" lon="-2.53973">
        <ele>37.2</ele>
        <time>2021-08-06T10:54:10Z</time>
      </trkpt>
      <trkpt lat="47.61482" lon="-2.53967">
        <ele>37.2</ele>
        <time>2021-08-06T10:54:11Z</time>
      </trkpt>
      <trkpt lat="47.61479" lon="-2.53962">
        <ele>37.4</ele>
        <time>2021-08-06T10:54:12Z</time>
      </trkpt>
      <trkpt lat="47.61477" lon="-2.53955">
        <ele>37.4</ele>
        <time>2021-08-06T10:54:13Z</time>
      </trkpt>
      <trkpt lat="47.61476" lon="-2.53949">
        <ele>37.8</ele>
        <time>2021-08-06T10:54:14Z</time>
      </trkpt>
      <trkpt lat="47.61475" lon="-2.53943">
        <ele>38</ele>
        <time>2021-08-06T10:54:15Z</time>
      </trkpt>
      <trkpt lat="47.61474" lon="-2.53937">
        <ele>38</ele>
        <time>2021-08-06T10:54:16Z</time>
      </trkpt>
      <trkpt lat="47.61474" lon="-2.53931">
        <ele>38.2</ele>
        <time>2021-08-06T10:54:17Z</time>
      </trkpt>
      <trkpt lat="47.61473" lon="-2.53926">
        <ele>38.4</ele>
        <time>2021-08-06T10:54:18Z</time>
      </trkpt>
      <trkpt lat="47.61473" lon="-2.53921">
        <ele>38.6</ele>
        <time>2021-08-06T10:54:19Z</time>
      </trkpt>
      <trkpt lat="47.61473" lon="-2.53915">
        <ele>38.8</ele>
        <time>2021-08-06T10:54:20Z</time>
      </trkpt>
      <trkpt lat="47.61473" lon="-2.5391">
        <ele>39</ele>
        <time>2021-08-06T10:54:21Z</time>
      </trkpt>
      <trkpt lat="47.61474" lon="-2.53905">
        <ele>39.2</ele>
        <time>2021-08-06T10:54:22Z</time>
      </trkpt>
      <trkpt lat="47.61474" lon="-2.539">
        <ele>39.4</ele>
        <time>2021-08-06T10:54:23Z</time>
      </trkpt>
      <trkpt lat="47.61475" lon="-2.53896">
        <ele>39.8</ele>
        <time>2021-08-06T10:54:24Z</time>
      </trkpt>
      <trkpt lat="47.61475" lon="-2.53891">
        <ele>40.2</ele>
        <time>2021-08-06T10:54:25Z</time>
      </trkpt>
      <trkpt lat="47.61476" lon="-2.53886">
        <ele>40.4</ele>
        <time>2021-08-06T10:54:26Z</time>
      </trkpt>
      <trkpt lat="47.61476" lon="-2.5388">
        <ele>40.8</ele>
        <time>2021-08-06T10:54:27Z</time>
      </trkpt>
      <trkpt lat="47.61477" lon="-2.53875">
        <ele>41</ele>
        <time>2021-08-06T10:54:28Z</time>
      </trkpt>
      <trkpt lat="47.61477" lon="-2.53869">
        <ele>41</ele>
        <time>2021-08-06T10:54:29Z</time>
      </trkpt>
      <trkpt lat="47.61478" lon="-2.53864">
        <ele>41.2</ele>
        <time>2021-08-06T10:54:30Z</time>
      </trkpt>
      <trkpt lat="47.61479" lon="-2.53859">
        <ele>41.4</ele>
        <time>2021-08-06T10:54:31Z</time>
      </trkpt>
      <trkpt lat="47.61479" lon="-2.53853">
        <ele>41.4</ele>
        <time>2021-08-06T10:54:32Z</time>
      </trkpt>
      <trkpt lat="47.6148" lon="-2.53846">
        <ele>41.6</ele>
        <time>2021-08-06T10:54:33Z</time>
      </trkpt>
      <trkpt lat="47.6148" lon="-2.5384">
        <ele>41.6</ele>
        <time>2021-08-06T10:54:34Z</time>
      </trkpt>
      <trkpt lat="47.6148" lon="-2.53834">
        <ele>41.6</ele>
        <time>2021-08-06T10:54:35Z</time>
      </trkpt>
      <trkpt lat="47.61481" lon="-2.53827">
        <ele>41.6</ele>
        <time>2021-08-06T10:54:36Z</time>
      </trkpt>
      <trkpt lat="47.61481" lon="-2.53821">
        <ele>41.6</ele>
        <time>2021-08-06T10:54:37Z</time>
      </trkpt>
      <trkpt lat="47.61481" lon="-2.53815">
        <ele>41.6</ele>
        <time>2021-08-06T10:54:38Z</time>
      </trkpt>
      <trkpt lat="47.61482" lon="-2.53809">
        <ele>41.6</ele>
        <time>2021-08-06T10:54:39Z</time>
      </trkpt>
      <trkpt lat="47.61482" lon="-2.53804">
        <ele>41.8</ele>
        <time>2021-08-06T10:54:40Z</time>
      </trkpt>
      <trkpt lat="47.61482" lon="-2.53799">
        <ele>41.8</ele>
        <time>2021-08-06T10:54:41Z</time>
      </trkpt>
      <trkpt lat="47.61481" lon="-2.53794">
        <ele>41.8</ele>
        <time>2021-08-06T10:54:42Z</time>
      </trkpt>
      <trkpt lat="47.61481" lon="-2.5379">
        <ele>41.8</ele>
        <time>2021-08-06T10:54:43Z</time>
      </trkpt>
      <trkpt lat="47.61481" lon="-2.53786">
        <ele>41.8</ele>
        <time>2021-08-06T10:54:44Z</time>
      </trkpt>
      <trkpt lat="47.6148" lon="-2.53782">
        <ele>41.8</ele>
        <time>2021-08-06T10:54:45Z</time>
      </trkpt>
      <trkpt lat="47.61479" lon="-2.53777">
        <ele>41.8</ele>
        <time>2021-08-06T10:54:46Z</time>
      </trkpt>
      <trkpt lat="47.61479" lon="-2.53772">
        <ele>41.8</ele>
        <time>2021-08-06T10:54:47Z</time>
      </trkpt>
      <trkpt lat="47.61478" lon="-2.53767">
        <ele>41.8</ele>
        <time>2021-08-06T10:54:48Z</time>
      </trkpt>
      <trkpt lat="47.61477" lon="-2.53762">
        <ele>41.8</ele>
        <time>2021-08-06T10:54:49Z</time>
      </trkpt>
      <trkpt lat="47.61476" lon="-2.53757">
        <ele>41.8</ele>
        <time>2021-08-06T10:54:50Z</time>
      </trkpt>
      <trkpt lat="47.61475" lon="-2.53751">
        <ele>41.8</ele>
        <time>2021-08-06T10:54:51Z</time>
      </trkpt>
      <trkpt lat="47.61474" lon="-2.53745">
        <ele>41.8</ele>
        <time>2021-08-06T10:54:52Z</time>
      </trkpt>
      <trkpt lat="47.61474" lon="-2.5374">
        <ele>42</ele>
        <time>2021-08-06T10:54:53Z</time>
      </trkpt>
      <trkpt lat="47.61474" lon="-2.53735">
        <ele>42</ele>
        <time>2021-08-06T10:54:54Z</time>
      </trkpt>
      <trkpt lat="47.61473" lon="-2.53729">
        <ele>42</ele>
        <time>2021-08-06T10:54:55Z</time>
      </trkpt>
      <trkpt lat="47.61473" lon="-2.53724">
        <ele>42</ele>
        <time>2021-08-06T10:54:56Z</time>
      </trkpt>
      <trkpt lat="47.61473" lon="-2.53719">
        <ele>42</ele>
        <time>2021-08-06T10:54:57Z</time>
      </trkpt>
      <trkpt lat="47.61472" lon="-2.53713">
        <ele>42.2</ele>
        <time>2021-08-06T10:54:58Z</time>
      </trkpt>
      <trkpt lat="47.61472" lon="-2.53707">
        <ele>42.2</ele>
        <time>2021-08-06T10:54:59Z</time>
      </trkpt>
      <trkpt lat="47.61471" lon="-2.53701">
        <ele>42.2</ele>
        <time>2021-08-06T10:55:00Z</time>
      </trkpt>
      <trkpt lat="47.61471" lon="-2.53695">
        <ele>42.2</ele>
        <time>2021-08-06T10:55:01Z</time>
      </trkpt>
      <trkpt lat="47.6147" lon="-2.53689">
        <ele>42.4</ele>
        <time>2021-08-06T10:55:02Z</time>
      </trkpt>
      <trkpt lat="47.6147" lon="-2.53683">
        <ele>42.4</ele>
        <time>2021-08-06T10:55:03Z</time>
      </trkpt>
      <trkpt lat="47.61469" lon="-2.53677">
        <ele>42.4</ele>
        <time>2021-08-06T10:55:04Z</time>
      </trkpt>
      <trkpt lat="47.61468" lon="-2.53671">
        <ele>42.4</ele>
        <time>2021-08-06T10:55:05Z</time>
      </trkpt>
      <trkpt lat="47.61468" lon="-2.53665">
        <ele>42.4</ele>
        <time>2021-08-06T10:55:06Z</time>
      </trkpt>
      <trkpt lat="47.61467" lon="-2.53658">
        <ele>42.4</ele>
        <time>2021-08-06T10:55:07Z</time>
      </trkpt>
      <trkpt lat="47.61467" lon="-2.53652">
        <ele>42.4</ele>
        <time>2021-08-06T10:55:08Z</time>
      </trkpt>
      <trkpt lat="47.61466" lon="-2.53646">
        <ele>42.4</ele>
        <time>2021-08-06T10:55:09Z</time>
      </trkpt>
      <trkpt lat="47.61466" lon="-2.5364">
        <ele>42.4</ele>
        <time>2021-08-06T10:55:10Z</time>
      </trkpt>
      <trkpt lat="47.61465" lon="-2.53634">
        <ele>42.4</ele>
        <time>2021-08-06T10:55:11Z</time>
      </trkpt>
      <trkpt lat="47.61464" lon="-2.53628">
        <ele>42.4</ele>
        <time>2021-08-06T10:55:12Z</time>
      </trkpt>
      <trkpt lat="47.61463" lon="-2.53622">
        <ele>42.4</ele>
        <time>2021-08-06T10:55:13Z</time>
      </trkpt>
      <trkpt lat="47.61462" lon="-2.53616">
        <ele>42.4</ele>
        <time>2021-08-06T10:55:14Z</time>
      </trkpt>
      <trkpt lat="47.61461" lon="-2.5361">
        <ele>42.4</ele>
        <time>2021-08-06T10:55:15Z</time>
      </trkpt>
      <trkpt lat="47.6146" lon="-2.53604">
        <ele>42.4</ele>
        <time>2021-08-06T10:55:16Z</time>
      </trkpt>
      <trkpt lat="47.61459" lon="-2.53598">
        <ele>42.4</ele>
        <time>2021-08-06T10:55:17Z</time>
      </trkpt>
      <trkpt lat="47.61459" lon="-2.53593">
        <ele>42.4</ele>
        <time>2021-08-06T10:55:18Z</time>
      </trkpt>
      <trkpt lat="47.61458" lon="-2.53587">
        <ele>42.6</ele>
        <time>2021-08-06T10:55:19Z</time>
      </trkpt>
      <trkpt lat="47.61457" lon="-2.53581">
        <ele>42.6</ele>
        <time>2021-08-06T10:55:20Z</time>
      </trkpt>
      <trkpt lat="47.61456" lon="-2.53575">
        <ele>42.8</ele>
        <time>2021-08-06T10:55:21Z</time>
      </trkpt>
      <trkpt lat="47.61455" lon="-2.53569">
        <ele>42.8</ele>
        <time>2021-08-06T10:55:22Z</time>
      </trkpt>
      <trkpt lat="47.61454" lon="-2.53563">
        <ele>43</ele>
        <time>2021-08-06T10:55:23Z</time>
      </trkpt>
      <trkpt lat="47.61454" lon="-2.53557">
        <ele>43</ele>
        <time>2021-08-06T10:55:24Z</time>
      </trkpt>
      <trkpt lat="47.61453" lon="-2.53552">
        <ele>43</ele>
        <time>2021-08-06T10:55:25Z</time>
      </trkpt>
      <trkpt lat="47.61452" lon="-2.53546">
        <ele>43</ele>
        <time>2021-08-06T10:55:26Z</time>
      </trkpt>
      <trkpt lat="47.61451" lon="-2.5354">
        <ele>43.2</ele>
        <time>2021-08-06T10:55:27Z</time>
      </trkpt>
      <trkpt lat="47.6145" lon="-2.53534">
        <ele>43.2</ele>
        <time>2021-08-06T10:55:28Z</time>
      </trkpt>
      <trkpt lat="47.6145" lon="-2.53528">
        <ele>43.2</ele>
        <time>2021-08-06T10:55:29Z</time>
      </trkpt>
      <trkpt lat="47.6145" lon="-2.53521">
        <ele>43.2</ele>
        <time>2021-08-06T10:55:30Z</time>
      </trkpt>
      <trkpt lat="47.61449" lon="-2.53515">
        <ele>43.2</ele>
        <time>2021-08-06T10:55:31Z</time>
      </trkpt>
      <trkpt lat="47.61449" lon="-2.53509">
        <ele>43.4</ele>
        <time>2021-08-06T10:55:32Z</time>
      </trkpt>
      <trkpt lat="47.61449" lon="-2.53503">
        <ele>43.4</ele>
        <time>2021-08-06T10:55:33Z</time>
      </trkpt>
      <trkpt lat="47.61449" lon="-2.53497">
        <ele>43.4</ele>
        <time>2021-08-06T10:55:34Z</time>
      </trkpt>
      <trkpt lat="47.61448" lon="-2.53491">
        <ele>43.4</ele>
        <time>2021-08-06T10:55:35Z</time>
      </trkpt>
      <trkpt lat="47.61448" lon="-2.53485">
        <ele>43.4</ele>
        <time>2021-08-06T10:55:36Z</time>
      </trkpt>
      <trkpt lat="47.61448" lon="-2.53479">
        <ele>43.4</ele>
        <time>2021-08-06T10:55:37Z</time>
      </trkpt>
      <trkpt lat="47.61448" lon="-2.53473">
        <ele>43.6</ele>
        <time>2021-08-06T10:55:38Z</time>
      </trkpt>
      <trkpt lat="47.61448" lon="-2.53466">
        <ele>43.6</ele>
        <time>2021-08-06T10:55:39Z</time>
      </trkpt>
      <trkpt lat="47.61448" lon="-2.5346">
        <ele>43.6</ele>
        <time>2021-08-06T10:55:40Z</time>
      </trkpt>
      <trkpt lat="47.61448" lon="-2.53454">
        <ele>43.6</ele>
        <time>2021-08-06T10:55:41Z</time>
      </trkpt>
      <trkpt lat="47.61448" lon="-2.53448">
        <ele>43.6</ele>
        <time>2021-08-06T10:55:42Z</time>
      </trkpt>
      <trkpt lat="47.61448" lon="-2.53441">
        <ele>43.8</ele>
        <time>2021-08-06T10:55:43Z</time>
      </trkpt>
      <trkpt lat="47.61447" lon="-2.53435">
        <ele>43.8</ele>
        <time>2021-08-06T10:55:44Z</time>
      </trkpt>
      <trkpt lat="47.61447" lon="-2.53429">
        <ele>44</ele>
        <time>2021-08-06T10:55:45Z</time>
      </trkpt>
      <trkpt lat="47.61447" lon="-2.53423">
        <ele>44.2</ele>
        <time>2021-08-06T10:55:46Z</time>
      </trkpt>
      <trkpt lat="47.61447" lon="-2.53417">
        <ele>44.2</ele>
        <time>2021-08-06T10:55:47Z</time>
      </trkpt>
      <trkpt lat="47.61447" lon="-2.53412">
        <ele>44.2</ele>
        <time>2021-08-06T10:55:48Z</time>
      </trkpt>
      <trkpt lat="47.61447" lon="-2.53406">
        <ele>44.4</ele>
        <time>2021-08-06T10:55:49Z</time>
      </trkpt>
      <trkpt lat="47.61447" lon="-2.53401">
        <ele>44.6</ele>
        <time>2021-08-06T10:55:50Z</time>
      </trkpt>
      <trkpt lat="47.61447" lon="-2.53395">
        <ele>44.8</ele>
        <time>2021-08-06T10:55:51Z</time>
      </trkpt>
      <trkpt lat="47.61447" lon="-2.5339">
        <ele>45</ele>
        <time>2021-08-06T10:55:52Z</time>
      </trkpt>
      <trkpt lat="47.61447" lon="-2.53384">
        <ele>45</ele>
        <time>2021-08-06T10:55:53Z</time>
      </trkpt>
      <trkpt lat="47.61447" lon="-2.53379">
        <ele>45</ele>
        <time>2021-08-06T10:55:54Z</time>
      </trkpt>
      <trkpt lat="47.61448" lon="-2.53374">
        <ele>45.2</ele>
        <time>2021-08-06T10:55:55Z</time>
      </trkpt>
      <trkpt lat="47.61447" lon="-2.53368">
        <ele>45.4</ele>
        <time>2021-08-06T10:55:56Z</time>
      </trkpt>
      <trkpt lat="47.61447" lon="-2.53363">
        <ele>45.4</ele>
        <time>2021-08-06T10:55:57Z</time>
      </trkpt>
      <trkpt lat="47.61447" lon="-2.53357">
        <ele>45.6</ele>
        <time>2021-08-06T10:55:58Z</time>
      </trkpt>
      <trkpt lat="47.61447" lon="-2.53351">
        <ele>45.8</ele>
        <time>2021-08-06T10:55:59Z</time>
      </trkpt>
      <trkpt lat="47.61446" lon="-2.53346">
        <ele>46</ele>
        <time>2021-08-06T10:56:00Z</time>
      </trkpt>
      <trkpt lat="47.61446" lon="-2.5334">
        <ele>46</ele>
        <time>2021-08-06T10:56:01Z</time>
      </trkpt>
      <trkpt lat="47.61446" lon="-2.53335">
        <ele>46.2</ele>
        <time>2021-08-06T10:56:02Z</time>
      </trkpt>
      <trkpt lat="47.61446" lon="-2.5333">
        <ele>46.4</ele>
        <time>2021-08-06T10:56:03Z</time>
      </trkpt>
      <trkpt lat="47.61445" lon="-2.53324">
        <ele>46.4</ele>
        <time>2021-08-06T10:56:04Z</time>
      </trkpt>
      <trkpt lat="47.61445" lon="-2.53319">
        <ele>46.4</ele>
        <time>2021-08-06T10:56:05Z</time>
      </trkpt>
      <trkpt lat="47.61445" lon="-2.53314">
        <ele>46.6</ele>
        <time>2021-08-06T10:56:06Z</time>
      </trkpt>
      <trkpt lat="47.61445" lon="-2.53309">
        <ele>46.6</ele>
        <time>2021-08-06T10:56:07Z</time>
      </trkpt>
      <trkpt lat="47.61444" lon="-2.53305">
        <ele>46.8</ele>
        <time>2021-08-06T10:56:08Z</time>
      </trkpt>
      <trkpt lat="47.61444" lon="-2.53299">
        <ele>46.8</ele>
        <time>2021-08-06T10:56:09Z</time>
      </trkpt>
      <trkpt lat="47.61443" lon="-2.53294">
        <ele>46.8</ele>
        <time>2021-08-06T10:56:10Z</time>
      </trkpt>
      <trkpt lat="47.61442" lon="-2.53289">
        <ele>47</ele>
        <time>2021-08-06T10:56:11Z</time>
      </trkpt>
      <trkpt lat="47.61441" lon="-2.53284">
        <ele>47</ele>
        <time>2021-08-06T10:56:12Z</time>
      </trkpt>
      <trkpt lat="47.6144" lon="-2.53279">
        <ele>47</ele>
        <time>2021-08-06T10:56:13Z</time>
      </trkpt>
      <trkpt lat="47.6144" lon="-2.53274">
        <ele>47</ele>
        <time>2021-08-06T10:56:14Z</time>
      </trkpt>
      <trkpt lat="47.61439" lon="-2.53268">
        <ele>47</ele>
        <time>2021-08-06T10:56:15Z</time>
      </trkpt>
      <trkpt lat="47.61439" lon="-2.53262">
        <ele>47</ele>
        <time>2021-08-06T10:56:16Z</time>
      </trkpt>
      <trkpt lat="47.61438" lon="-2.53255">
        <ele>47</ele>
        <time>2021-08-06T10:56:17Z</time>
      </trkpt>
      <trkpt lat="47.61437" lon="-2.53249">
        <ele>47</ele>
        <time>2021-08-06T10:56:18Z</time>
      </trkpt>
      <trkpt lat="47.61437" lon="-2.53242">
        <ele>47</ele>
        <time>2021-08-06T10:56:19Z</time>
      </trkpt>
      <trkpt lat="47.61436" lon="-2.53236">
        <ele>47</ele>
        <time>2021-08-06T10:56:20Z</time>
      </trkpt>
      <trkpt lat="47.61435" lon="-2.53229">
        <ele>47</ele>
        <time>2021-08-06T10:56:21Z</time>
      </trkpt>
      <trkpt lat="47.61435" lon="-2.53222">
        <ele>47</ele>
        <time>2021-08-06T10:56:22Z</time>
      </trkpt>
      <trkpt lat="47.61434" lon="-2.53215">
        <ele>47</ele>
        <time>2021-08-06T10:56:23Z</time>
      </trkpt>
      <trkpt lat="47.61434" lon="-2.53209">
        <ele>47</ele>
        <time>2021-08-06T10:56:24Z</time>
      </trkpt>
      <trkpt lat="47.61433" lon="-2.53203">
        <ele>47</ele>
        <time>2021-08-06T10:56:25Z</time>
      </trkpt>
      <trkpt lat="47.61432" lon="-2.53196">
        <ele>47</ele>
        <time>2021-08-06T10:56:26Z</time>
      </trkpt>
      <trkpt lat="47.61432" lon="-2.5319">
        <ele>47</ele>
        <time>2021-08-06T10:56:27Z</time>
      </trkpt>
      <trkpt lat="47.61432" lon="-2.53183">
        <ele>47</ele>
        <time>2021-08-06T10:56:28Z</time>
      </trkpt>
      <trkpt lat="47.61431" lon="-2.53176">
        <ele>46.8</ele>
        <time>2021-08-06T10:56:29Z</time>
      </trkpt>
      <trkpt lat="47.61431" lon="-2.53169">
        <ele>46.8</ele>
        <time>2021-08-06T10:56:30Z</time>
      </trkpt>
      <trkpt lat="47.61431" lon="-2.53161">
        <ele>46.8</ele>
        <time>2021-08-06T10:56:31Z</time>
      </trkpt>
      <trkpt lat="47.61432" lon="-2.53154">
        <ele>46.6</ele>
        <time>2021-08-06T10:56:32Z</time>
      </trkpt>
      <trkpt lat="47.61432" lon="-2.53146">
        <ele>46.6</ele>
        <time>2021-08-06T10:56:33Z</time>
      </trkpt>
      <trkpt lat="47.61432" lon="-2.53138">
        <ele>46.4</ele>
        <time>2021-08-06T10:56:34Z</time>
      </trkpt>
      <trkpt lat="47.61432" lon="-2.5313">
        <ele>46.4</ele>
        <time>2021-08-06T10:56:35Z</time>
      </trkpt>
      <trkpt lat="47.61433" lon="-2.53122">
        <ele>46.2</ele>
        <time>2021-08-06T10:56:36Z</time>
      </trkpt>
      <trkpt lat="47.61433" lon="-2.53114">
        <ele>46.2</ele>
        <time>2021-08-06T10:56:37Z</time>
      </trkpt>
      <trkpt lat="47.61433" lon="-2.53106">
        <ele>46</ele>
        <time>2021-08-06T10:56:38Z</time>
      </trkpt>
      <trkpt lat="47.61434" lon="-2.53098">
        <ele>45.8</ele>
        <time>2021-08-06T10:56:39Z</time>
      </trkpt>
      <trkpt lat="47.61434" lon="-2.53089">
        <ele>45.8</ele>
        <time>2021-08-06T10:56:40Z</time>
      </trkpt>
      <trkpt lat="47.61434" lon="-2.53081">
        <ele>45.6</ele>
        <time>2021-08-06T10:56:41Z</time>
      </trkpt>
      <trkpt lat="47.61434" lon="-2.53073">
        <ele>45.6</ele>
        <time>2021-08-06T10:56:42Z</time>
      </trkpt>
      <trkpt lat="47.61434" lon="-2.53064">
        <ele>45.6</ele>
        <time>2021-08-06T10:56:43Z</time>
      </trkpt>
      <trkpt lat="47.61435" lon="-2.53056">
        <ele>45.6</ele>
        <time>2021-08-06T10:56:44Z</time>
      </trkpt>
      <trkpt lat="47.61436" lon="-2.53047">
        <ele>45.4</ele>
        <time>2021-08-06T10:56:45Z</time>
      </trkpt>
      <trkpt lat="47.61438" lon="-2.53039">
        <ele>45.4</ele>
        <time>2021-08-06T10:56:46Z</time>
      </trkpt>
      <trkpt lat="47.61439" lon="-2.5303">
        <ele>45.4</ele>
        <time>2021-08-06T10:56:47Z</time>
      </trkpt>
      <trkpt lat="47.61441" lon="-2.53022">
        <ele>45.4</ele>
        <time>2021-08-06T10:56:48Z</time>
      </trkpt>
      <trkpt lat="47.61442" lon="-2.53013">
        <ele>45.2</ele>
        <time>2021-08-06T10:56:49Z</time>
      </trkpt>
      <trkpt lat="47.61444" lon="-2.53005">
        <ele>45.2</ele>
        <time>2021-08-06T10:56:50Z</time>
      </trkpt>
      <trkpt lat="47.61446" lon="-2.52997">
        <ele>45.2</ele>
        <time>2021-08-06T10:56:51Z</time>
      </trkpt>
      <trkpt lat="47.61448" lon="-2.52989">
        <ele>45.2</ele>
        <time>2021-08-06T10:56:52Z</time>
      </trkpt>
      <trkpt lat="47.61451" lon="-2.52982">
        <ele>45.2</ele>
        <time>2021-08-06T10:56:53Z</time>
      </trkpt>
      <trkpt lat="47.61453" lon="-2.52974">
        <ele>45.2</ele>
        <time>2021-08-06T10:56:54Z</time>
      </trkpt>
      <trkpt lat="47.61455" lon="-2.52966">
        <ele>45.2</ele>
        <time>2021-08-06T10:56:55Z</time>
      </trkpt>
      <trkpt lat="47.61458" lon="-2.52959">
        <ele>45.2</ele>
        <time>2021-08-06T10:56:56Z</time>
      </trkpt>
      <trkpt lat="47.6146" lon="-2.52951">
        <ele>45</ele>
        <time>2021-08-06T10:56:57Z</time>
      </trkpt>
      <trkpt lat="47.61463" lon="-2.52944">
        <ele>45</ele>
        <time>2021-08-06T10:56:58Z</time>
      </trkpt>
      <trkpt lat="47.61465" lon="-2.52936">
        <ele>45</ele>
        <time>2021-08-06T10:56:59Z</time>
      </trkpt>
      <trkpt lat="47.61467" lon="-2.52929">
        <ele>45</ele>
        <time>2021-08-06T10:57:00Z</time>
      </trkpt>
      <trkpt lat="47.6147" lon="-2.52921">
        <ele>45</ele>
        <time>2021-08-06T10:57:01Z</time>
      </trkpt>
      <trkpt lat="47.61472" lon="-2.52914">
        <ele>45</ele>
        <time>2021-08-06T10:57:02Z</time>
      </trkpt>
      <trkpt lat="47.61475" lon="-2.52907">
        <ele>45</ele>
        <time>2021-08-06T10:57:03Z</time>
      </trkpt>
      <trkpt lat="47.61477" lon="-2.529">
        <ele>45</ele>
        <time>2021-08-06T10:57:04Z</time>
      </trkpt>
      <trkpt lat="47.61479" lon="-2.52893">
        <ele>45</ele>
        <time>2021-08-06T10:57:05Z</time>
      </trkpt>
      <trkpt lat="47.61482" lon="-2.52886">
        <ele>45.2</ele>
        <time>2021-08-06T10:57:06Z</time>
      </trkpt>
      <trkpt lat="47.61484" lon="-2.5288">
        <ele>45.4</ele>
        <time>2021-08-06T10:57:07Z</time>
      </trkpt>
      <trkpt lat="47.61486" lon="-2.52874">
        <ele>45.6</ele>
        <time>2021-08-06T10:57:08Z</time>
      </trkpt>
      <trkpt lat="47.61488" lon="-2.52868">
        <ele>45.8</ele>
        <time>2021-08-06T10:57:09Z</time>
      </trkpt>
      <trkpt lat="47.6149" lon="-2.52862">
        <ele>45.8</ele>
        <time>2021-08-06T10:57:10Z</time>
      </trkpt>
      <trkpt lat="47.61492" lon="-2.52857">
        <ele>46</ele>
        <time>2021-08-06T10:57:11Z</time>
      </trkpt>
      <trkpt lat="47.61494" lon="-2.52851">
        <ele>46</ele>
        <time>2021-08-06T10:57:12Z</time>
      </trkpt>
      <trkpt lat="47.61495" lon="-2.52846">
        <ele>46.2</ele>
        <time>2021-08-06T10:57:13Z</time>
      </trkpt>
      <trkpt lat="47.61496" lon="-2.52841">
        <ele>46.2</ele>
        <time>2021-08-06T10:57:14Z</time>
      </trkpt>
      <trkpt lat="47.61497" lon="-2.52836">
        <ele>46.4</ele>
        <time>2021-08-06T10:57:15Z</time>
      </trkpt>
      <trkpt lat="47.61497" lon="-2.52831">
        <ele>46.4</ele>
        <time>2021-08-06T10:57:16Z</time>
      </trkpt>
      <trkpt lat="47.61497" lon="-2.52826">
        <ele>46.6</ele>
        <time>2021-08-06T10:57:17Z</time>
      </trkpt>
      <trkpt lat="47.61497" lon="-2.5282">
        <ele>46.8</ele>
        <time>2021-08-06T10:57:18Z</time>
      </trkpt>
      <trkpt lat="47.61497" lon="-2.52815">
        <ele>47.2</ele>
        <time>2021-08-06T10:57:19Z</time>
      </trkpt>
      <trkpt lat="47.61497" lon="-2.5281">
        <ele>47.4</ele>
        <time>2021-08-06T10:57:20Z</time>
      </trkpt>
      <trkpt lat="47.61497" lon="-2.52806">
        <ele>47.8</ele>
        <time>2021-08-06T10:57:21Z</time>
      </trkpt>
      <trkpt lat="47.61496" lon="-2.52802">
        <ele>48</ele>
        <time>2021-08-06T10:57:22Z</time>
      </trkpt>
      <trkpt lat="47.61496" lon="-2.52798">
        <ele>48.4</ele>
        <time>2021-08-06T10:57:23Z</time>
      </trkpt>
      <trkpt lat="47.61495" lon="-2.52795">
        <ele>48.8</ele>
        <time>2021-08-06T10:57:24Z</time>
      </trkpt>
      <trkpt lat="47.61495" lon="-2.52792">
        <ele>49</ele>
        <time>2021-08-06T10:57:25Z</time>
      </trkpt>
      <trkpt lat="47.61494" lon="-2.52788">
        <ele>49.6</ele>
        <time>2021-08-06T10:57:26Z</time>
      </trkpt>
      <trkpt lat="47.61494" lon="-2.52784">
        <ele>49.8</ele>
        <time>2021-08-06T10:57:27Z</time>
      </trkpt>
      <trkpt lat="47.61493" lon="-2.5278">
        <ele>49.8</ele>
        <time>2021-08-06T10:57:28Z</time>
      </trkpt>
      <trkpt lat="47.61493" lon="-2.52775">
        <ele>50</ele>
        <time>2021-08-06T10:57:29Z</time>
      </trkpt>
      <trkpt lat="47.61492" lon="-2.52771">
        <ele>50.2</ele>
        <time>2021-08-06T10:57:30Z</time>
      </trkpt>
      <trkpt lat="47.61491" lon="-2.52767">
        <ele>50.2</ele>
        <time>2021-08-06T10:57:31Z</time>
      </trkpt>
      <trkpt lat="47.61491" lon="-2.52763">
        <ele>50.4</ele>
        <time>2021-08-06T10:57:32Z</time>
      </trkpt>
      <trkpt lat="47.6149" lon="-2.52759">
        <ele>50.6</ele>
        <time>2021-08-06T10:57:33Z</time>
      </trkpt>
      <trkpt lat="47.61489" lon="-2.52755">
        <ele>50.6</ele>
        <time>2021-08-06T10:57:34Z</time>
      </trkpt>
      <trkpt lat="47.61488" lon="-2.52751">
        <ele>50.8</ele>
        <time>2021-08-06T10:57:35Z</time>
      </trkpt>
      <trkpt lat="47.61488" lon="-2.52747">
        <ele>51</ele>
        <time>2021-08-06T10:57:36Z</time>
      </trkpt>
      <trkpt lat="47.61487" lon="-2.52743">
        <ele>51.2</ele>
        <time>2021-08-06T10:57:37Z</time>
      </trkpt>
      <trkpt lat="47.61487" lon="-2.52739">
        <ele>51.4</ele>
        <time>2021-08-06T10:57:38Z</time>
      </trkpt>
      <trkpt lat="47.61486" lon="-2.52735">
        <ele>51.6</ele>
        <time>2021-08-06T10:57:39Z</time>
      </trkpt>
      <trkpt lat="47.61485" lon="-2.52731">
        <ele>51.6</ele>
        <time>2021-08-06T10:57:40Z</time>
      </trkpt>
      <trkpt lat="47.61485" lon="-2.52727">
        <ele>51.8</ele>
        <time>2021-08-06T10:57:41Z</time>
      </trkpt>
      <trkpt lat="47.61484" lon="-2.52723">
        <ele>52</ele>
        <time>2021-08-06T10:57:42Z</time>
      </trkpt>
      <trkpt lat="47.61484" lon="-2.52719">
        <ele>52.2</ele>
        <time>2021-08-06T10:57:43Z</time>
      </trkpt>
      <trkpt lat="47.61483" lon="-2.52716">
        <ele>52.4</ele>
        <time>2021-08-06T10:57:44Z</time>
      </trkpt>
      <trkpt lat="47.61482" lon="-2.52714">
        <ele>52.6</ele>
        <time>2021-08-06T10:57:45Z</time>
      </trkpt>
      <trkpt lat="47.61481" lon="-2.52711">
        <ele>52.8</ele>
        <time>2021-08-06T10:57:46Z</time>
      </trkpt>
      <trkpt lat="47.61481" lon="-2.52708">
        <ele>52.8</ele>
        <time>2021-08-06T10:57:47Z</time>
      </trkpt>
      <trkpt lat="47.6148" lon="-2.52705">
        <ele>53</ele>
        <time>2021-08-06T10:57:48Z</time>
      </trkpt>
      <trkpt lat="47.61479" lon="-2.52702">
        <ele>53</ele>
        <time>2021-08-06T10:57:49Z</time>
      </trkpt>
      <trkpt lat="47.61478" lon="-2.527">
        <ele>53</ele>
        <time>2021-08-06T10:57:50Z</time>
      </trkpt>
      <trkpt lat="47.61477" lon="-2.52697">
        <ele>53.2</ele>
        <time>2021-08-06T10:57:51Z</time>
      </trkpt>
      <trkpt lat="47.61477" lon="-2.52694">
        <ele>53.4</ele>
        <time>2021-08-06T10:57:52Z</time>
      </trkpt>
      <trkpt lat="47.61476" lon="-2.52692">
        <ele>53.8</ele>
        <time>2021-08-06T10:57:53Z</time>
      </trkpt>
      <trkpt lat="47.61476" lon="-2.52689">
        <ele>54</ele>
        <time>2021-08-06T10:57:54Z</time>
      </trkpt>
      <trkpt lat="47.61475" lon="-2.52686">
        <ele>54.2</ele>
        <time>2021-08-06T10:57:55Z</time>
      </trkpt>
      <trkpt lat="47.61475" lon="-2.52683">
        <ele>54.2</ele>
        <time>2021-08-06T10:57:56Z</time>
      </trkpt>
      <trkpt lat="47.61474" lon="-2.52681">
        <ele>54.4</ele>
        <time>2021-08-06T10:57:57Z</time>
      </trkpt>
      <trkpt lat="47.61473" lon="-2.52678">
        <ele>54.4</ele>
        <time>2021-08-06T10:57:58Z</time>
      </trkpt>
      <trkpt lat="47.61473" lon="-2.52675">
        <ele>54.6</ele>
        <time>2021-08-06T10:57:59Z</time>
      </trkpt>
      <trkpt lat="47.61472" lon="-2.52673">
        <ele>54.6</ele>
        <time>2021-08-06T10:58:00Z</time>
      </trkpt>
      <trkpt lat="47.61472" lon="-2.5267">
        <ele>54.8</ele>
        <time>2021-08-06T10:58:01Z</time>
      </trkpt>
      <trkpt lat="47.61471" lon="-2.52668">
        <ele>55</ele>
        <time>2021-08-06T10:58:02Z</time>
      </trkpt>
      <trkpt lat="47.61471" lon="-2.52666">
        <ele>55.2</ele>
        <time>2021-08-06T10:58:03Z</time>
      </trkpt>
      <trkpt lat="47.61471" lon="-2.52663">
        <ele>55.4</ele>
        <time>2021-08-06T10:58:04Z</time>
      </trkpt>
      <trkpt lat="47.6147" lon="-2.5266">
        <ele>55.4</ele>
        <time>2021-08-06T10:58:05Z</time>
      </trkpt>
      <trkpt lat="47.6147" lon="-2.52658">
        <ele>55.6</ele>
        <time>2021-08-06T10:58:06Z</time>
      </trkpt>
      <trkpt lat="47.61469" lon="-2.52656">
        <ele>55.8</ele>
        <time>2021-08-06T10:58:07Z</time>
      </trkpt>
      <trkpt lat="47.61469" lon="-2.52654">
        <ele>55.8</ele>
        <time>2021-08-06T10:58:08Z</time>
      </trkpt>
      <trkpt lat="47.61468" lon="-2.52651">
        <ele>55.8</ele>
        <time>2021-08-06T10:58:09Z</time>
      </trkpt>
      <trkpt lat="47.61468" lon="-2.52648">
        <ele>56</ele>
        <time>2021-08-06T10:58:10Z</time>
      </trkpt>
      <trkpt lat="47.61467" lon="-2.52646">
        <ele>56.2</ele>
        <time>2021-08-06T10:58:11Z</time>
      </trkpt>
      <trkpt lat="47.61467" lon="-2.52642">
        <ele>56.2</ele>
        <time>2021-08-06T10:58:12Z</time>
      </trkpt>
      <trkpt lat="47.61466" lon="-2.52639">
        <ele>56.4</ele>
        <time>2021-08-06T10:58:13Z</time>
      </trkpt>
      <trkpt lat="47.61465" lon="-2.52636">
        <ele>56.6</ele>
        <time>2021-08-06T10:58:14Z</time>
      </trkpt>
      <trkpt lat="47.61464" lon="-2.52633">
        <ele>56.8</ele>
        <time>2021-08-06T10:58:15Z</time>
      </trkpt>
      <trkpt lat="47.61464" lon="-2.52629">
        <ele>56.8</ele>
        <time>2021-08-06T10:58:16Z</time>
      </trkpt>
      <trkpt lat="47.61463" lon="-2.52626">
        <ele>57</ele>
        <time>2021-08-06T10:58:17Z</time>
      </trkpt>
      <trkpt lat="47.61462" lon="-2.52622">
        <ele>57</ele>
        <time>2021-08-06T10:58:18Z</time>
      </trkpt>
      <trkpt lat="47.61462" lon="-2.52618">
        <ele>57</ele>
        <time>2021-08-06T10:58:19Z</time>
      </trkpt>
      <trkpt lat="47.61461" lon="-2.52615">
        <ele>57.2</ele>
        <time>2021-08-06T10:58:20Z</time>
      </trkpt>
      <trkpt lat="47.6146" lon="-2.52611">
        <ele>57.2</ele>
        <time>2021-08-06T10:58:21Z</time>
      </trkpt>
      <trkpt lat="47.6146" lon="-2.52607">
        <ele>57.2</ele>
        <time>2021-08-06T10:58:22Z</time>
      </trkpt>
      <trkpt lat="47.6146" lon="-2.52603">
        <ele>57.6</ele>
        <time>2021-08-06T10:58:23Z</time>
      </trkpt>
      <trkpt lat="47.61459" lon="-2.526">
        <ele>57.6</ele>
        <time>2021-08-06T10:58:24Z</time>
      </trkpt>
      <trkpt lat="47.61458" lon="-2.52596">
        <ele>57.8</ele>
        <time>2021-08-06T10:58:25Z</time>
      </trkpt>
      <trkpt lat="47.61457" lon="-2.52592">
        <ele>58</ele>
        <time>2021-08-06T10:58:26Z</time>
      </trkpt>
      <trkpt lat="47.61456" lon="-2.52588">
        <ele>58.2</ele>
        <time>2021-08-06T10:58:27Z</time>
      </trkpt>
      <trkpt lat="47.61456" lon="-2.52584">
        <ele>58.2</ele>
        <time>2021-08-06T10:58:28Z</time>
      </trkpt>
      <trkpt lat="47.61455" lon="-2.5258">
        <ele>58.4</ele>
        <time>2021-08-06T10:58:29Z</time>
      </trkpt>
      <trkpt lat="47.61455" lon="-2.52576">
        <ele>58.4</ele>
        <time>2021-08-06T10:58:30Z</time>
      </trkpt>
      <trkpt lat="47.61454" lon="-2.52573">
        <ele>58.6</ele>
        <time>2021-08-06T10:58:31Z</time>
      </trkpt>
      <trkpt lat="47.61453" lon="-2.52569">
        <ele>58.6</ele>
        <time>2021-08-06T10:58:32Z</time>
      </trkpt>
      <trkpt lat="47.61452" lon="-2.52565">
        <ele>58.6</ele>
        <time>2021-08-06T10:58:33Z</time>
      </trkpt>
      <trkpt lat="47.61451" lon="-2.52561">
        <ele>58.6</ele>
        <time>2021-08-06T10:58:34Z</time>
      </trkpt>
      <trkpt lat="47.61451" lon="-2.52557">
        <ele>58.8</ele>
        <time>2021-08-06T10:58:35Z</time>
      </trkpt>
      <trkpt lat="47.6145" lon="-2.52553">
        <ele>58.8</ele>
        <time>2021-08-06T10:58:36Z</time>
      </trkpt>
      <trkpt lat="47.6145" lon="-2.52549">
        <ele>58.8</ele>
        <time>2021-08-06T10:58:37Z</time>
      </trkpt>
      <trkpt lat="47.61449" lon="-2.52545">
        <ele>58.8</ele>
        <time>2021-08-06T10:58:38Z</time>
      </trkpt>
      <trkpt lat="47.61448" lon="-2.52541">
        <ele>59</ele>
        <time>2021-08-06T10:58:39Z</time>
      </trkpt>
      <trkpt lat="47.61447" lon="-2.52537">
        <ele>59</ele>
        <time>2021-08-06T10:58:40Z</time>
      </trkpt>
      <trkpt lat="47.61446" lon="-2.52533">
        <ele>59</ele>
        <time>2021-08-06T10:58:41Z</time>
      </trkpt>
      <trkpt lat="47.61446" lon="-2.52529">
        <ele>59</ele>
        <time>2021-08-06T10:58:42Z</time>
      </trkpt>
      <trkpt lat="47.61445" lon="-2.52524">
        <ele>59.2</ele>
        <time>2021-08-06T10:58:43Z</time>
      </trkpt>
      <trkpt lat="47.61444" lon="-2.5252">
        <ele>59.2</ele>
        <time>2021-08-06T10:58:44Z</time>
      </trkpt>
      <trkpt lat="47.61443" lon="-2.52515">
        <ele>59.2</ele>
        <time>2021-08-06T10:58:45Z</time>
      </trkpt>
      <trkpt lat="47.61442" lon="-2.5251">
        <ele>59.2</ele>
        <time>2021-08-06T10:58:46Z</time>
      </trkpt>
      <trkpt lat="47.61441" lon="-2.52506">
        <ele>59.2</ele>
        <time>2021-08-06T10:58:47Z</time>
      </trkpt>
      <trkpt lat="47.6144" lon="-2.52501">
        <ele>59.4</ele>
        <time>2021-08-06T10:58:48Z</time>
      </trkpt>
      <trkpt lat="47.61439" lon="-2.52496">
        <ele>59.4</ele>
        <time>2021-08-06T10:58:49Z</time>
      </trkpt>
      <trkpt lat="47.61438" lon="-2.52492">
        <ele>59.4</ele>
        <time>2021-08-06T10:58:50Z</time>
      </trkpt>
      <trkpt lat="47.61437" lon="-2.52487">
        <ele>59.4</ele>
        <time>2021-08-06T10:58:51Z</time>
      </trkpt>
      <trkpt lat="47.61437" lon="-2.52483">
        <ele>59.4</ele>
        <time>2021-08-06T10:58:52Z</time>
      </trkpt>
      <trkpt lat="47.61436" lon="-2.52479">
        <ele>59.4</ele>
        <time>2021-08-06T10:58:53Z</time>
      </trkpt>
      <trkpt lat="47.61436" lon="-2.52475">
        <ele>59.4</ele>
        <time>2021-08-06T10:58:54Z</time>
      </trkpt>
      <trkpt lat="47.61435" lon="-2.52472">
        <ele>59.4</ele>
        <time>2021-08-06T10:58:55Z</time>
      </trkpt>
      <trkpt lat="47.61435" lon="-2.5247">
        <ele>59.4</ele>
        <time>2021-08-06T10:58:56Z</time>
      </trkpt>
      <trkpt lat="47.61435" lon="-2.52469">
        <ele>59.4</ele>
        <time>2021-08-06T10:58:57Z</time>
      </trkpt>
      <trkpt lat="47.61435" lon="-2.52469">
        <ele>59.4</ele>
        <time>2021-08-06T10:58:58Z</time>
      </trkpt>
      <trkpt lat="47.61435" lon="-2.52469">
        <ele>59.4</ele>
        <time>2021-08-06T10:58:59Z</time>
      </trkpt>
      <trkpt lat="47.61435" lon="-2.52468">
        <ele>60</ele>
        <time>2021-08-06T10:59:33Z</time>
      </trkpt>
      <trkpt lat="47.61435" lon="-2.52466">
        <ele>60</ele>
        <time>2021-08-06T10:59:34Z</time>
      </trkpt>
      <trkpt lat="47.61435" lon="-2.52464">
        <ele>60</ele>
        <time>2021-08-06T10:59:35Z</time>
      </trkpt>
      <trkpt lat="47.61434" lon="-2.52461">
        <ele>60</ele>
        <time>2021-08-06T10:59:36Z</time>
      </trkpt>
      <trkpt lat="47.61434" lon="-2.52457">
        <ele>60</ele>
        <time>2021-08-06T10:59:37Z</time>
      </trkpt>
      <trkpt lat="47.61434" lon="-2.52452">
        <ele>60</ele>
        <time>2021-08-06T10:59:38Z</time>
      </trkpt>
      <trkpt lat="47.61434" lon="-2.52448">
        <ele>59.8</ele>
        <time>2021-08-06T10:59:39Z</time>
      </trkpt>
      <trkpt lat="47.61434" lon="-2.52443">
        <ele>59.8</ele>
        <time>2021-08-06T10:59:40Z</time>
      </trkpt>
      <trkpt lat="47.61434" lon="-2.52437">
        <ele>59.8</ele>
        <time>2021-08-06T10:59:41Z</time>
      </trkpt>
      <trkpt lat="47.61434" lon="-2.52431">
        <ele>59.8</ele>
        <time>2021-08-06T10:59:42Z</time>
      </trkpt>
      <trkpt lat="47.61433" lon="-2.52425">
        <ele>59.8</ele>
        <time>2021-08-06T10:59:43Z</time>
      </trkpt>
      <trkpt lat="47.61433" lon="-2.52419">
        <ele>59.6</ele>
        <time>2021-08-06T10:59:44Z</time>
      </trkpt>
      <trkpt lat="47.61432" lon="-2.52412">
        <ele>59.4</ele>
        <time>2021-08-06T10:59:45Z</time>
      </trkpt>
      <trkpt lat="47.61432" lon="-2.52405">
        <ele>59.4</ele>
        <time>2021-08-06T10:59:46Z</time>
      </trkpt>
      <trkpt lat="47.61432" lon="-2.52398">
        <ele>59.2</ele>
        <time>2021-08-06T10:59:47Z</time>
      </trkpt>
      <trkpt lat="47.61431" lon="-2.5239">
        <ele>59.2</ele>
        <time>2021-08-06T10:59:48Z</time>
      </trkpt>
      <trkpt lat="47.61431" lon="-2.52382">
        <ele>59</ele>
        <time>2021-08-06T10:59:49Z</time>
      </trkpt>
      <trkpt lat="47.61431" lon="-2.52374">
        <ele>59</ele>
        <time>2021-08-06T10:59:50Z</time>
      </trkpt>
      <trkpt lat="47.61431" lon="-2.52366">
        <ele>59</ele>
        <time>2021-08-06T10:59:51Z</time>
      </trkpt>
      <trkpt lat="47.61432" lon="-2.52357">
        <ele>58.8</ele>
        <time>2021-08-06T10:59:52Z</time>
      </trkpt>
      <trkpt lat="47.61432" lon="-2.52348">
        <ele>58.6</ele>
        <time>2021-08-06T10:59:53Z</time>
      </trkpt>
      <trkpt lat="47.61433" lon="-2.52337">
        <ele>58.4</ele>
        <time>2021-08-06T10:59:54Z</time>
      </trkpt>
      <trkpt lat="47.61434" lon="-2.52327">
        <ele>58.4</ele>
        <time>2021-08-06T10:59:55Z</time>
      </trkpt>
      <trkpt lat="47.61435" lon="-2.52316">
        <ele>58.2</ele>
        <time>2021-08-06T10:59:56Z</time>
      </trkpt>
      <trkpt lat="47.61437" lon="-2.52304">
        <ele>58</ele>
        <time>2021-08-06T10:59:57Z</time>
      </trkpt>
      <trkpt lat="47.61439" lon="-2.52292">
        <ele>57.8</ele>
        <time>2021-08-06T10:59:58Z</time>
      </trkpt>
      <trkpt lat="47.61441" lon="-2.5228">
        <ele>57.6</ele>
        <time>2021-08-06T10:59:59Z</time>
      </trkpt>
      <trkpt lat="47.61444" lon="-2.52267">
        <ele>57.2</ele>
        <time>2021-08-06T11:00:00Z</time>
      </trkpt>
      <trkpt lat="47.61446" lon="-2.52254">
        <ele>56.8</ele>
        <time>2021-08-06T11:00:01Z</time>
      </trkpt>
      <trkpt lat="47.61449" lon="-2.5224">
        <ele>56.4</ele>
        <time>2021-08-06T11:00:02Z</time>
      </trkpt>
      <trkpt lat="47.61451" lon="-2.52226">
        <ele>55.8</ele>
        <time>2021-08-06T11:00:03Z</time>
      </trkpt>
      <trkpt lat="47.61453" lon="-2.52211">
        <ele>55</ele>
        <time>2021-08-06T11:00:04Z</time>
      </trkpt>
      <trkpt lat="47.61454" lon="-2.52196">
        <ele>54.2</ele>
        <time>2021-08-06T11:00:05Z</time>
      </trkpt>
      <trkpt lat="47.61454" lon="-2.52181">
        <ele>53.4</ele>
        <time>2021-08-06T11:00:06Z</time>
      </trkpt>
      <trkpt lat="47.61453" lon="-2.52165">
        <ele>52.4</ele>
        <time>2021-08-06T11:00:07Z</time>
      </trkpt>
      <trkpt lat="47.61452" lon="-2.5215">
        <ele>51.4</ele>
        <time>2021-08-06T11:00:08Z</time>
      </trkpt>
      <trkpt lat="47.61451" lon="-2.52134">
        <ele>50.4</ele>
        <time>2021-08-06T11:00:09Z</time>
      </trkpt>
      <trkpt lat="47.61451" lon="-2.52119">
        <ele>49.4</ele>
        <time>2021-08-06T11:00:10Z</time>
      </trkpt>
      <trkpt lat="47.6145" lon="-2.52104">
        <ele>48.4</ele>
        <time>2021-08-06T11:00:11Z</time>
      </trkpt>
      <trkpt lat="47.61451" lon="-2.52088">
        <ele>47.6</ele>
        <time>2021-08-06T11:00:12Z</time>
      </trkpt>
      <trkpt lat="47.61453" lon="-2.52073">
        <ele>46.4</ele>
        <time>2021-08-06T11:00:13Z</time>
      </trkpt>
      <trkpt lat="47.61456" lon="-2.52057">
        <ele>45.4</ele>
        <time>2021-08-06T11:00:14Z</time>
      </trkpt>
      <trkpt lat="47.61459" lon="-2.52042">
        <ele>44.4</ele>
        <time>2021-08-06T11:00:15Z</time>
      </trkpt>
      <trkpt lat="47.61463" lon="-2.52026">
        <ele>44.2</ele>
        <time>2021-08-06T11:00:16Z</time>
      </trkpt>
      <trkpt lat="47.61468" lon="-2.5201">
        <ele>44</ele>
        <time>2021-08-06T11:00:17Z</time>
      </trkpt>
      <trkpt lat="47.61472" lon="-2.51994">
        <ele>43.8</ele>
        <time>2021-08-06T11:00:18Z</time>
      </trkpt>
      <trkpt lat="47.61476" lon="-2.51978">
        <ele>43.4</ele>
        <time>2021-08-06T11:00:19Z</time>
      </trkpt>
      <trkpt lat="47.61479" lon="-2.51961">
        <ele>42.8</ele>
        <time>2021-08-06T11:00:20Z</time>
      </trkpt>
      <trkpt lat="47.6148" lon="-2.51945">
        <ele>42.6</ele>
        <time>2021-08-06T11:00:21Z</time>
      </trkpt>
      <trkpt lat="47.61481" lon="-2.51928">
        <ele>42.2</ele>
        <time>2021-08-06T11:00:22Z</time>
      </trkpt>
      <trkpt lat="47.61478" lon="-2.51912">
        <ele>42</ele>
        <time>2021-08-06T11:00:23Z</time>
      </trkpt>
      <trkpt lat="47.61474" lon="-2.51897">
        <ele>42</ele>
        <time>2021-08-06T11:00:24Z</time>
      </trkpt>
      <trkpt lat="47.61469" lon="-2.51884">
        <ele>42</ele>
        <time>2021-08-06T11:00:25Z</time>
      </trkpt>
      <trkpt lat="47.61464" lon="-2.51872">
        <ele>42</ele>
        <time>2021-08-06T11:00:26Z</time>
      </trkpt>
      <trkpt lat="47.6146" lon="-2.51859">
        <ele>42</ele>
        <time>2021-08-06T11:00:27Z</time>
      </trkpt>
      <trkpt lat="47.61457" lon="-2.51847">
        <ele>42</ele>
        <time>2021-08-06T11:00:28Z</time>
      </trkpt>
      <trkpt lat="47.61453" lon="-2.51835">
        <ele>42</ele>
        <time>2021-08-06T11:00:29Z</time>
      </trkpt>
      <trkpt lat="47.6145" lon="-2.51823">
        <ele>42</ele>
        <time>2021-08-06T11:00:30Z</time>
      </trkpt>
      <trkpt lat="47.61447" lon="-2.51812">
        <ele>42</ele>
        <time>2021-08-06T11:00:31Z</time>
      </trkpt>
      <trkpt lat="47.61444" lon="-2.51801">
        <ele>42</ele>
        <time>2021-08-06T11:00:32Z</time>
      </trkpt>
      <trkpt lat="47.61441" lon="-2.51791">
        <ele>42.4</ele>
        <time>2021-08-06T11:00:33Z</time>
      </trkpt>
      <trkpt lat="47.61439" lon="-2.51781">
        <ele>42.8</ele>
        <time>2021-08-06T11:00:34Z</time>
      </trkpt>
      <trkpt lat="47.61436" lon="-2.51771">
        <ele>43.4</ele>
        <time>2021-08-06T11:00:35Z</time>
      </trkpt>
      <trkpt lat="47.61434" lon="-2.51762">
        <ele>43.8</ele>
        <time>2021-08-06T11:00:36Z</time>
      </trkpt>
      <trkpt lat="47.61432" lon="-2.51753">
        <ele>44.4</ele>
        <time>2021-08-06T11:00:37Z</time>
      </trkpt>
      <trkpt lat="47.6143" lon="-2.51744">
        <ele>45</ele>
        <time>2021-08-06T11:00:38Z</time>
      </trkpt>
      <trkpt lat="47.61427" lon="-2.51736">
        <ele>45.4</ele>
        <time>2021-08-06T11:00:39Z</time>
      </trkpt>
      <trkpt lat="47.61425" lon="-2.51728">
        <ele>45.8</ele>
        <time>2021-08-06T11:00:40Z</time>
      </trkpt>
      <trkpt lat="47.61424" lon="-2.5172">
        <ele>46.2</ele>
        <time>2021-08-06T11:00:41Z</time>
      </trkpt>
      <trkpt lat="47.61422" lon="-2.51713">
        <ele>46.6</ele>
        <time>2021-08-06T11:00:42Z</time>
      </trkpt>
      <trkpt lat="47.6142" lon="-2.51705">
        <ele>47.4</ele>
        <time>2021-08-06T11:00:43Z</time>
      </trkpt>
      <trkpt lat="47.61418" lon="-2.51698">
        <ele>47.8</ele>
        <time>2021-08-06T11:00:44Z</time>
      </trkpt>
      <trkpt lat="47.61416" lon="-2.51691">
        <ele>47.8</ele>
        <time>2021-08-06T11:00:45Z</time>
      </trkpt>
      <trkpt lat="47.61415" lon="-2.51684">
        <ele>48.2</ele>
        <time>2021-08-06T11:00:46Z</time>
      </trkpt>
      <trkpt lat="47.61413" lon="-2.51678">
        <ele>48.6</ele>
        <time>2021-08-06T11:00:47Z</time>
      </trkpt>
      <trkpt lat="47.61412" lon="-2.51671">
        <ele>48.8</ele>
        <time>2021-08-06T11:00:48Z</time>
      </trkpt>
      <trkpt lat="47.6141" lon="-2.51665">
        <ele>49.2</ele>
        <time>2021-08-06T11:00:49Z</time>
      </trkpt>
      <trkpt lat="47.61409" lon="-2.51659">
        <ele>49.4</ele>
        <time>2021-08-06T11:00:50Z</time>
      </trkpt>
      <trkpt lat="47.61407" lon="-2.51653">
        <ele>49.6</ele>
        <time>2021-08-06T11:00:51Z</time>
      </trkpt>
      <trkpt lat="47.61405" lon="-2.51647">
        <ele>49.8</ele>
        <time>2021-08-06T11:00:52Z</time>
      </trkpt>
      <trkpt lat="47.61404" lon="-2.51642">
        <ele>50.2</ele>
        <time>2021-08-06T11:00:53Z</time>
      </trkpt>
      <trkpt lat="47.61402" lon="-2.51637">
        <ele>50.4</ele>
        <time>2021-08-06T11:00:54Z</time>
      </trkpt>
      <trkpt lat="47.61401" lon="-2.51632">
        <ele>50.6</ele>
        <time>2021-08-06T11:00:55Z</time>
      </trkpt>
      <trkpt lat="47.61399" lon="-2.51627">
        <ele>50.8</ele>
        <time>2021-08-06T11:00:56Z</time>
      </trkpt>
      <trkpt lat="47.61398" lon="-2.51622">
        <ele>51</ele>
        <time>2021-08-06T11:00:57Z</time>
      </trkpt>
      <trkpt lat="47.61396" lon="-2.51617">
        <ele>51.4</ele>
        <time>2021-08-06T11:00:58Z</time>
      </trkpt>
      <trkpt lat="47.61394" lon="-2.51612">
        <ele>51.6</ele>
        <time>2021-08-06T11:00:59Z</time>
      </trkpt>
      <trkpt lat="47.61393" lon="-2.51607">
        <ele>51.8</ele>
        <time>2021-08-06T11:01:00Z</time>
      </trkpt>
      <trkpt lat="47.61391" lon="-2.51601">
        <ele>52</ele>
        <time>2021-08-06T11:01:01Z</time>
      </trkpt>
      <trkpt lat="47.6139" lon="-2.51596">
        <ele>52.2</ele>
        <time>2021-08-06T11:01:02Z</time>
      </trkpt>
      <trkpt lat="47.61388" lon="-2.5159">
        <ele>52.2</ele>
        <time>2021-08-06T11:01:03Z</time>
      </trkpt>
      <trkpt lat="47.61387" lon="-2.51584">
        <ele>52.2</ele>
        <time>2021-08-06T11:01:04Z</time>
      </trkpt>
      <trkpt lat="47.61386" lon="-2.51578">
        <ele>52.4</ele>
        <time>2021-08-06T11:01:05Z</time>
      </trkpt>
      <trkpt lat="47.61384" lon="-2.51571">
        <ele>52.4</ele>
        <time>2021-08-06T11:01:06Z</time>
      </trkpt>
      <trkpt lat="47.61382" lon="-2.51564">
        <ele>52.4</ele>
        <time>2021-08-06T11:01:07Z</time>
      </trkpt>
      <trkpt lat="47.61381" lon="-2.51557">
        <ele>52.4</ele>
        <time>2021-08-06T11:01:08Z</time>
      </trkpt>
      <trkpt lat="47.61379" lon="-2.51551">
        <ele>52.4</ele>
        <time>2021-08-06T11:01:09Z</time>
      </trkpt>
      <trkpt lat="47.61377" lon="-2.51544">
        <ele>52.4</ele>
        <time>2021-08-06T11:01:10Z</time>
      </trkpt>
      <trkpt lat="47.61375" lon="-2.51537">
        <ele>52.4</ele>
        <time>2021-08-06T11:01:11Z</time>
      </trkpt>
      <trkpt lat="47.61374" lon="-2.5153">
        <ele>52</ele>
        <time>2021-08-06T11:01:12Z</time>
      </trkpt>
      <trkpt lat="47.61373" lon="-2.51522">
        <ele>52</ele>
        <time>2021-08-06T11:01:13Z</time>
      </trkpt>
      <trkpt lat="47.61372" lon="-2.51515">
        <ele>52</ele>
        <time>2021-08-06T11:01:14Z</time>
      </trkpt>
      <trkpt lat="47.61372" lon="-2.51506">
        <ele>52</ele>
        <time>2021-08-06T11:01:15Z</time>
      </trkpt>
      <trkpt lat="47.61371" lon="-2.51499">
        <ele>52</ele>
        <time>2021-08-06T11:01:16Z</time>
      </trkpt>
      <trkpt lat="47.6137" lon="-2.51491">
        <ele>52</ele>
        <time>2021-08-06T11:01:17Z</time>
      </trkpt>
      <trkpt lat="47.61369" lon="-2.51483">
        <ele>52</ele>
        <time>2021-08-06T11:01:18Z</time>
      </trkpt>
      <trkpt lat="47.61367" lon="-2.51475">
        <ele>51.8</ele>
        <time>2021-08-06T11:01:19Z</time>
      </trkpt>
      <trkpt lat="47.61366" lon="-2.51468">
        <ele>51.8</ele>
        <time>2021-08-06T11:01:20Z</time>
      </trkpt>
      <trkpt lat="47.61364" lon="-2.5146">
        <ele>51.8</ele>
        <time>2021-08-06T11:01:21Z</time>
      </trkpt>
      <trkpt lat="47.61363" lon="-2.51453">
        <ele>51.8</ele>
        <time>2021-08-06T11:01:22Z</time>
      </trkpt>
      <trkpt lat="47.61362" lon="-2.51445">
        <ele>51.8</ele>
        <time>2021-08-06T11:01:23Z</time>
      </trkpt>
      <trkpt lat="47.61361" lon="-2.51438">
        <ele>51.8</ele>
        <time>2021-08-06T11:01:24Z</time>
      </trkpt>
      <trkpt lat="47.6136" lon="-2.51431">
        <ele>51.8</ele>
        <time>2021-08-06T11:01:25Z</time>
      </trkpt>
      <trkpt lat="47.61359" lon="-2.51424">
        <ele>51.8</ele>
        <time>2021-08-06T11:01:26Z</time>
      </trkpt>
      <trkpt lat="47.61358" lon="-2.51416">
        <ele>51.8</ele>
        <time>2021-08-06T11:01:27Z</time>
      </trkpt>
      <trkpt lat="47.61357" lon="-2.5141">
        <ele>51.6</ele>
        <time>2021-08-06T11:01:28Z</time>
      </trkpt>
      <trkpt lat="47.61356" lon="-2.51403">
        <ele>51.6</ele>
        <time>2021-08-06T11:01:29Z</time>
      </trkpt>
      <trkpt lat="47.61355" lon="-2.51397">
        <ele>51.6</ele>
        <time>2021-08-06T11:01:30Z</time>
      </trkpt>
      <trkpt lat="47.61353" lon="-2.51391">
        <ele>51.6</ele>
        <time>2021-08-06T11:01:31Z</time>
      </trkpt>
      <trkpt lat="47.61352" lon="-2.51385">
        <ele>51.6</ele>
        <time>2021-08-06T11:01:32Z</time>
      </trkpt>
      <trkpt lat="47.6135" lon="-2.51378">
        <ele>51.6</ele>
        <time>2021-08-06T11:01:33Z</time>
      </trkpt>
      <trkpt lat="47.61349" lon="-2.51372">
        <ele>51.6</ele>
        <time>2021-08-06T11:01:34Z</time>
      </trkpt>
      <trkpt lat="47.61348" lon="-2.51366">
        <ele>51.6</ele>
        <time>2021-08-06T11:01:35Z</time>
      </trkpt>
      <trkpt lat="47.61347" lon="-2.51359">
        <ele>51.6</ele>
        <time>2021-08-06T11:01:36Z</time>
      </trkpt>
      <trkpt lat="47.61346" lon="-2.51353">
        <ele>51.6</ele>
        <time>2021-08-06T11:01:37Z</time>
      </trkpt>
      <trkpt lat="47.61345" lon="-2.51347">
        <ele>51.6</ele>
        <time>2021-08-06T11:01:38Z</time>
      </trkpt>
      <trkpt lat="47.61344" lon="-2.51341">
        <ele>51.6</ele>
        <time>2021-08-06T11:01:39Z</time>
      </trkpt>
      <trkpt lat="47.61342" lon="-2.51335">
        <ele>51.6</ele>
        <time>2021-08-06T11:01:40Z</time>
      </trkpt>
      <trkpt lat="47.61341" lon="-2.5133">
        <ele>51.6</ele>
        <time>2021-08-06T11:01:41Z</time>
      </trkpt>
      <trkpt lat="47.6134" lon="-2.51325">
        <ele>51.6</ele>
        <time>2021-08-06T11:01:42Z</time>
      </trkpt>
      <trkpt lat="47.61339" lon="-2.51321">
        <ele>51.6</ele>
        <time>2021-08-06T11:01:43Z</time>
      </trkpt>
      <trkpt lat="47.61338" lon="-2.51317">
        <ele>51.6</ele>
        <time>2021-08-06T11:01:44Z</time>
      </trkpt>
      <trkpt lat="47.61338" lon="-2.51314">
        <ele>51.6</ele>
        <time>2021-08-06T11:01:45Z</time>
      </trkpt>
      <trkpt lat="47.61338" lon="-2.51312">
        <ele>51.6</ele>
        <time>2021-08-06T11:01:46Z</time>
      </trkpt>
      <trkpt lat="47.61339" lon="-2.51309">
        <ele>51.6</ele>
        <time>2021-08-06T11:01:47Z</time>
      </trkpt>
      <trkpt lat="47.61339" lon="-2.51306">
        <ele>51.8</ele>
        <time>2021-08-06T11:01:48Z</time>
      </trkpt>
      <trkpt lat="47.6134" lon="-2.51303">
        <ele>51.8</ele>
        <time>2021-08-06T11:01:49Z</time>
      </trkpt>
      <trkpt lat="47.6134" lon="-2.513">
        <ele>51.8</ele>
        <time>2021-08-06T11:01:50Z</time>
      </trkpt>
      <trkpt lat="47.6134" lon="-2.51296">
        <ele>51.8</ele>
        <time>2021-08-06T11:01:51Z</time>
      </trkpt>
      <trkpt lat="47.6134" lon="-2.51292">
        <ele>51.8</ele>
        <time>2021-08-06T11:01:52Z</time>
      </trkpt>
      <trkpt lat="47.6134" lon="-2.51288">
        <ele>51.8</ele>
        <time>2021-08-06T11:01:53Z</time>
      </trkpt>
      <trkpt lat="47.61341" lon="-2.51284">
        <ele>52</ele>
        <time>2021-08-06T11:01:54Z</time>
      </trkpt>
      <trkpt lat="47.61342" lon="-2.51279">
        <ele>52</ele>
        <time>2021-08-06T11:01:55Z</time>
      </trkpt>
      <trkpt lat="47.61343" lon="-2.51275">
        <ele>52.2</ele>
        <time>2021-08-06T11:01:56Z</time>
      </trkpt>
      <trkpt lat="47.61344" lon="-2.51271">
        <ele>52.2</ele>
        <time>2021-08-06T11:01:57Z</time>
      </trkpt>
      <trkpt lat="47.61344" lon="-2.51266">
        <ele>52.2</ele>
        <time>2021-08-06T11:01:58Z</time>
      </trkpt>
      <trkpt lat="47.61346" lon="-2.51261">
        <ele>52.4</ele>
        <time>2021-08-06T11:01:59Z</time>
      </trkpt>
      <trkpt lat="47.61347" lon="-2.51256">
        <ele>52.6</ele>
        <time>2021-08-06T11:02:00Z</time>
      </trkpt>
      <trkpt lat="47.61349" lon="-2.51252">
        <ele>52.6</ele>
        <time>2021-08-06T11:02:01Z</time>
      </trkpt>
      <trkpt lat="47.6135" lon="-2.51247">
        <ele>52.6</ele>
        <time>2021-08-06T11:02:02Z</time>
      </trkpt>
      <trkpt lat="47.61352" lon="-2.51243">
        <ele>52.8</ele>
        <time>2021-08-06T11:02:03Z</time>
      </trkpt>
      <trkpt lat="47.61354" lon="-2.51238">
        <ele>52.8</ele>
        <time>2021-08-06T11:02:04Z</time>
      </trkpt>
      <trkpt lat="47.61356" lon="-2.51233">
        <ele>53</ele>
        <time>2021-08-06T11:02:05Z</time>
      </trkpt>
      <trkpt lat="47.61357" lon="-2.51229">
        <ele>52.8</ele>
        <time>2021-08-06T11:02:06Z</time>
      </trkpt>
      <trkpt lat="47.6136" lon="-2.51224">
        <ele>53</ele>
        <time>2021-08-06T11:02:07Z</time>
      </trkpt>
      <trkpt lat="47.61362" lon="-2.5122">
        <ele>53</ele>
        <time>2021-08-06T11:02:08Z</time>
      </trkpt>
      <trkpt lat="47.61364" lon="-2.51216">
        <ele>53</ele>
        <time>2021-08-06T11:02:09Z</time>
      </trkpt>
      <trkpt lat="47.61366" lon="-2.51212">
        <ele>53</ele>
        <time>2021-08-06T11:02:10Z</time>
      </trkpt>
      <trkpt lat="47.61368" lon="-2.51208">
        <ele>53</ele>
        <time>2021-08-06T11:02:11Z</time>
      </trkpt>
      <trkpt lat="47.6137" lon="-2.51204">
        <ele>53</ele>
        <time>2021-08-06T11:02:12Z</time>
      </trkpt>
      <trkpt lat="47.61372" lon="-2.512">
        <ele>53</ele>
        <time>2021-08-06T11:02:13Z</time>
      </trkpt>
      <trkpt lat="47.61374" lon="-2.51196">
        <ele>53</ele>
        <time>2021-08-06T11:02:14Z</time>
      </trkpt>
      <trkpt lat="47.61376" lon="-2.51191">
        <ele>53</ele>
        <time>2021-08-06T11:02:15Z</time>
      </trkpt>
      <trkpt lat="47.61378" lon="-2.51187">
        <ele>53.2</ele>
        <time>2021-08-06T11:02:16Z</time>
      </trkpt>
      <trkpt lat="47.61381" lon="-2.51183">
        <ele>53.2</ele>
        <time>2021-08-06T11:02:17Z</time>
      </trkpt>
      <trkpt lat="47.61383" lon="-2.51178">
        <ele>53.2</ele>
        <time>2021-08-06T11:02:18Z</time>
      </trkpt>
      <trkpt lat="47.61386" lon="-2.51173">
        <ele>53.2</ele>
        <time>2021-08-06T11:02:19Z</time>
      </trkpt>
      <trkpt lat="47.61388" lon="-2.51169">
        <ele>53.2</ele>
        <time>2021-08-06T11:02:20Z</time>
      </trkpt>
      <trkpt lat="47.6139" lon="-2.51165">
        <ele>53.2</ele>
        <time>2021-08-06T11:02:21Z</time>
      </trkpt>
      <trkpt lat="47.61393" lon="-2.5116">
        <ele>53.2</ele>
        <time>2021-08-06T11:02:22Z</time>
      </trkpt>
      <trkpt lat="47.61395" lon="-2.51156">
        <ele>53.2</ele>
        <time>2021-08-06T11:02:23Z</time>
      </trkpt>
      <trkpt lat="47.61397" lon="-2.51152">
        <ele>53.4</ele>
        <time>2021-08-06T11:02:24Z</time>
      </trkpt>
      <trkpt lat="47.61399" lon="-2.51147">
        <ele>53.4</ele>
        <time>2021-08-06T11:02:25Z</time>
      </trkpt>
      <trkpt lat="47.61402" lon="-2.51143">
        <ele>53.4</ele>
        <time>2021-08-06T11:02:26Z</time>
      </trkpt>
      <trkpt lat="47.61404" lon="-2.51139">
        <ele>53.4</ele>
        <time>2021-08-06T11:02:27Z</time>
      </trkpt>
      <trkpt lat="47.61406" lon="-2.51134">
        <ele>53.4</ele>
        <time>2021-08-06T11:02:28Z</time>
      </trkpt>
      <trkpt lat="47.61409" lon="-2.5113">
        <ele>53.4</ele>
        <time>2021-08-06T11:02:29Z</time>
      </trkpt>
      <trkpt lat="47.61411" lon="-2.51126">
        <ele>53.4</ele>
        <time>2021-08-06T11:02:30Z</time>
      </trkpt>
      <trkpt lat="47.61413" lon="-2.51122">
        <ele>53.4</ele>
        <time>2021-08-06T11:02:31Z</time>
      </trkpt>
      <trkpt lat="47.61416" lon="-2.51117">
        <ele>53.4</ele>
        <time>2021-08-06T11:02:32Z</time>
      </trkpt>
      <trkpt lat="47.61418" lon="-2.51112">
        <ele>53.6</ele>
        <time>2021-08-06T11:02:33Z</time>
      </trkpt>
      <trkpt lat="47.61421" lon="-2.51108">
        <ele>53.6</ele>
        <time>2021-08-06T11:02:34Z</time>
      </trkpt>
      <trkpt lat="47.61423" lon="-2.51103">
        <ele>53.4</ele>
        <time>2021-08-06T11:02:35Z</time>
      </trkpt>
      <trkpt lat="47.61425" lon="-2.51099">
        <ele>53.4</ele>
        <time>2021-08-06T11:02:36Z</time>
      </trkpt>
      <trkpt lat="47.61428" lon="-2.51094">
        <ele>53.6</ele>
        <time>2021-08-06T11:02:37Z</time>
      </trkpt>
      <trkpt lat="47.6143" lon="-2.5109">
        <ele>53.6</ele>
        <time>2021-08-06T11:02:38Z</time>
      </trkpt>
      <trkpt lat="47.61433" lon="-2.51085">
        <ele>53.8</ele>
        <time>2021-08-06T11:02:39Z</time>
      </trkpt>
      <trkpt lat="47.61435" lon="-2.51081">
        <ele>53.8</ele>
        <time>2021-08-06T11:02:40Z</time>
      </trkpt>
      <trkpt lat="47.61437" lon="-2.51076">
        <ele>53.8</ele>
        <time>2021-08-06T11:02:41Z</time>
      </trkpt>
      <trkpt lat="47.61439" lon="-2.51072">
        <ele>53.8</ele>
        <time>2021-08-06T11:02:42Z</time>
      </trkpt>
      <trkpt lat="47.61442" lon="-2.51067">
        <ele>53.8</ele>
        <time>2021-08-06T11:02:43Z</time>
      </trkpt>
      <trkpt lat="47.61444" lon="-2.51063">
        <ele>53.8</ele>
        <time>2021-08-06T11:02:44Z</time>
      </trkpt>
      <trkpt lat="47.61446" lon="-2.51059">
        <ele>54</ele>
        <time>2021-08-06T11:02:45Z</time>
      </trkpt>
      <trkpt lat="47.61448" lon="-2.51055">
        <ele>53.8</ele>
        <time>2021-08-06T11:02:46Z</time>
      </trkpt>
      <trkpt lat="47.61449" lon="-2.51051">
        <ele>54</ele>
        <time>2021-08-06T11:02:47Z</time>
      </trkpt>
      <trkpt lat="47.61451" lon="-2.51047">
        <ele>54</ele>
        <time>2021-08-06T11:02:48Z</time>
      </trkpt>
      <trkpt lat="47.61453" lon="-2.51042">
        <ele>54</ele>
        <time>2021-08-06T11:02:49Z</time>
      </trkpt>
      <trkpt lat="47.61454" lon="-2.51038">
        <ele>54</ele>
        <time>2021-08-06T11:02:50Z</time>
      </trkpt>
      <trkpt lat="47.61456" lon="-2.51034">
        <ele>54</ele>
        <time>2021-08-06T11:02:51Z</time>
      </trkpt>
      <trkpt lat="47.61457" lon="-2.5103">
        <ele>54.2</ele>
        <time>2021-08-06T11:02:52Z</time>
      </trkpt>
      <trkpt lat="47.61458" lon="-2.51026">
        <ele>54.4</ele>
        <time>2021-08-06T11:02:53Z</time>
      </trkpt>
      <trkpt lat="47.61459" lon="-2.51022">
        <ele>54.6</ele>
        <time>2021-08-06T11:02:54Z</time>
      </trkpt>
      <trkpt lat="47.6146" lon="-2.51018">
        <ele>54.4</ele>
        <time>2021-08-06T11:02:55Z</time>
      </trkpt>
      <trkpt lat="47.61462" lon="-2.51014">
        <ele>54.6</ele>
        <time>2021-08-06T11:02:56Z</time>
      </trkpt>
      <trkpt lat="47.61463" lon="-2.5101">
        <ele>54.6</ele>
        <time>2021-08-06T11:02:57Z</time>
      </trkpt>
      <trkpt lat="47.61464" lon="-2.51006">
        <ele>54.6</ele>
        <time>2021-08-06T11:02:58Z</time>
      </trkpt>
      <trkpt lat="47.61466" lon="-2.51001">
        <ele>54.8</ele>
        <time>2021-08-06T11:02:59Z</time>
      </trkpt>
      <trkpt lat="47.61467" lon="-2.50997">
        <ele>54.8</ele>
        <time>2021-08-06T11:03:00Z</time>
      </trkpt>
      <trkpt lat="47.61468" lon="-2.50992">
        <ele>54.8</ele>
        <time>2021-08-06T11:03:01Z</time>
      </trkpt>
      <trkpt lat="47.61469" lon="-2.50987">
        <ele>54.8</ele>
        <time>2021-08-06T11:03:02Z</time>
      </trkpt>
      <trkpt lat="47.6147" lon="-2.50981">
        <ele>54.8</ele>
        <time>2021-08-06T11:03:03Z</time>
      </trkpt>
      <trkpt lat="47.6147" lon="-2.50976">
        <ele>54.8</ele>
        <time>2021-08-06T11:03:04Z</time>
      </trkpt>
      <trkpt lat="47.61471" lon="-2.5097">
        <ele>54.8</ele>
        <time>2021-08-06T11:03:05Z</time>
      </trkpt>
      <trkpt lat="47.61472" lon="-2.50963">
        <ele>54.8</ele>
        <time>2021-08-06T11:03:06Z</time>
      </trkpt>
      <trkpt lat="47.61473" lon="-2.50956">
        <ele>54.8</ele>
        <time>2021-08-06T11:03:07Z</time>
      </trkpt>
      <trkpt lat="47.61474" lon="-2.50949">
        <ele>54.6</ele>
        <time>2021-08-06T11:03:08Z</time>
      </trkpt>
      <trkpt lat="47.61475" lon="-2.50942">
        <ele>54.6</ele>
        <time>2021-08-06T11:03:09Z</time>
      </trkpt>
      <trkpt lat="47.61475" lon="-2.50934">
        <ele>54.4</ele>
        <time>2021-08-06T11:03:10Z</time>
      </trkpt>
      <trkpt lat="47.61476" lon="-2.50927">
        <ele>54.2</ele>
        <time>2021-08-06T11:03:11Z</time>
      </trkpt>
      <trkpt lat="47.61476" lon="-2.5092">
        <ele>54</ele>
        <time>2021-08-06T11:03:12Z</time>
      </trkpt>
      <trkpt lat="47.61477" lon="-2.50912">
        <ele>53.8</ele>
        <time>2021-08-06T11:03:13Z</time>
      </trkpt>
      <trkpt lat="47.61477" lon="-2.50905">
        <ele>53.4</ele>
        <time>2021-08-06T11:03:14Z</time>
      </trkpt>
      <trkpt lat="47.61478" lon="-2.50897">
        <ele>53.4</ele>
        <time>2021-08-06T11:03:15Z</time>
      </trkpt>
      <trkpt lat="47.61479" lon="-2.5089">
        <ele>53.2</ele>
        <time>2021-08-06T11:03:16Z</time>
      </trkpt>
      <trkpt lat="47.6148" lon="-2.50882">
        <ele>52.8</ele>
        <time>2021-08-06T11:03:17Z</time>
      </trkpt>
      <trkpt lat="47.61481" lon="-2.50875">
        <ele>52.4</ele>
        <time>2021-08-06T11:03:18Z</time>
      </trkpt>
      <trkpt lat="47.61482" lon="-2.50868">
        <ele>52.2</ele>
        <time>2021-08-06T11:03:19Z</time>
      </trkpt>
      <trkpt lat="47.61483" lon="-2.50862">
        <ele>52</ele>
        <time>2021-08-06T11:03:20Z</time>
      </trkpt>
      <trkpt lat="47.61484" lon="-2.50856">
        <ele>51.8</ele>
        <time>2021-08-06T11:03:21Z</time>
      </trkpt>
      <trkpt lat="47.61484" lon="-2.5085">
        <ele>51.6</ele>
        <time>2021-08-06T11:03:22Z</time>
      </trkpt>
      <trkpt lat="47.61483" lon="-2.50844">
        <ele>51.4</ele>
        <time>2021-08-06T11:03:23Z</time>
      </trkpt>
      <trkpt lat="47.61483" lon="-2.50837">
        <ele>51.2</ele>
        <time>2021-08-06T11:03:24Z</time>
      </trkpt>
      <trkpt lat="47.61482" lon="-2.5083">
        <ele>51</ele>
        <time>2021-08-06T11:03:25Z</time>
      </trkpt>
      <trkpt lat="47.61481" lon="-2.50823">
        <ele>50.8</ele>
        <time>2021-08-06T11:03:26Z</time>
      </trkpt>
      <trkpt lat="47.61481" lon="-2.50816">
        <ele>50.6</ele>
        <time>2021-08-06T11:03:27Z</time>
      </trkpt>
      <trkpt lat="47.61481" lon="-2.50808">
        <ele>50.4</ele>
        <time>2021-08-06T11:03:28Z</time>
      </trkpt>
      <trkpt lat="47.61481" lon="-2.50801">
        <ele>50.2</ele>
        <time>2021-08-06T11:03:29Z</time>
      </trkpt>
      <trkpt lat="47.6148" lon="-2.50793">
        <ele>50</ele>
        <time>2021-08-06T11:03:30Z</time>
      </trkpt>
      <trkpt lat="47.6148" lon="-2.50785">
        <ele>49.8</ele>
        <time>2021-08-06T11:03:31Z</time>
      </trkpt>
      <trkpt lat="47.6148" lon="-2.50777">
        <ele>49.6</ele>
        <time>2021-08-06T11:03:32Z</time>
      </trkpt>
      <trkpt lat="47.61479" lon="-2.50768">
        <ele>49.4</ele>
        <time>2021-08-06T11:03:33Z</time>
      </trkpt>
      <trkpt lat="47.61478" lon="-2.5076">
        <ele>49.2</ele>
        <time>2021-08-06T11:03:34Z</time>
      </trkpt>
      <trkpt lat="47.61478" lon="-2.50751">
        <ele>49</ele>
        <time>2021-08-06T11:03:35Z</time>
      </trkpt>
      <trkpt lat="47.61479" lon="-2.50743">
        <ele>48.8</ele>
        <time>2021-08-06T11:03:36Z</time>
      </trkpt>
      <trkpt lat="47.6148" lon="-2.50736">
        <ele>48.6</ele>
        <time>2021-08-06T11:03:37Z</time>
      </trkpt>
      <trkpt lat="47.61481" lon="-2.5073">
        <ele>48.2</ele>
        <time>2021-08-06T11:03:38Z</time>
      </trkpt>
      <trkpt lat="47.61481" lon="-2.50724">
        <ele>48.2</ele>
        <time>2021-08-06T11:03:39Z</time>
      </trkpt>
      <trkpt lat="47.61481" lon="-2.50719">
        <ele>48.2</ele>
        <time>2021-08-06T11:03:40Z</time>
      </trkpt>
      <trkpt lat="47.61481" lon="-2.50715">
        <ele>47.8</ele>
        <time>2021-08-06T11:03:41Z</time>
      </trkpt>
      <trkpt lat="47.61481" lon="-2.50711">
        <ele>48</ele>
        <time>2021-08-06T11:03:42Z</time>
      </trkpt>
      <trkpt lat="47.61481" lon="-2.50707">
        <ele>48</ele>
        <time>2021-08-06T11:03:43Z</time>
      </trkpt>
      <trkpt lat="47.61481" lon="-2.50704">
        <ele>47.8</ele>
        <time>2021-08-06T11:03:44Z</time>
      </trkpt>
      <trkpt lat="47.61481" lon="-2.50702">
        <ele>47.8</ele>
        <time>2021-08-06T11:03:45Z</time>
      </trkpt>
      <trkpt lat="47.6148" lon="-2.507">
        <ele>47.8</ele>
        <time>2021-08-06T11:03:46Z</time>
      </trkpt>
      <trkpt lat="47.61481" lon="-2.50698">
        <ele>47.8</ele>
        <time>2021-08-06T11:03:47Z</time>
      </trkpt>
      <trkpt lat="47.61482" lon="-2.50697">
        <ele>48.2</ele>
        <time>2021-08-06T11:03:48Z</time>
      </trkpt>
      <trkpt lat="47.61482" lon="-2.50697">
        <ele>48.4</ele>
        <time>2021-08-06T11:03:49Z</time>
      </trkpt>
      <trkpt lat="47.61482" lon="-2.50699">
        <ele>48.4</ele>
        <time>2021-08-06T11:03:50Z</time>
      </trkpt>
      <trkpt lat="47.61482" lon="-2.50701">
        <ele>48.4</ele>
        <time>2021-08-06T11:03:51Z</time>
      </trkpt>
      <trkpt lat="47.61482" lon="-2.50704">
        <ele>48.8</ele>
        <time>2021-08-06T11:03:52Z</time>
      </trkpt>
      <trkpt lat="47.61482" lon="-2.50706">
        <ele>48.6</ele>
        <time>2021-08-06T11:03:53Z</time>
      </trkpt>
      <trkpt lat="47.61482" lon="-2.5071">
        <ele>48.8</ele>
        <time>2021-08-06T11:03:54Z</time>
      </trkpt>
      <trkpt lat="47.61482" lon="-2.50714">
        <ele>48.8</ele>
        <time>2021-08-06T11:03:55Z</time>
      </trkpt>
      <trkpt lat="47.61482" lon="-2.50718">
        <ele>48.8</ele>
        <time>2021-08-06T11:03:56Z</time>
      </trkpt>
      <trkpt lat="47.61481" lon="-2.50724">
        <ele>48.8</ele>
        <time>2021-08-06T11:03:57Z</time>
      </trkpt>
      <trkpt lat="47.61481" lon="-2.50729">
        <ele>48.8</ele>
        <time>2021-08-06T11:03:58Z</time>
      </trkpt>
      <trkpt lat="47.61481" lon="-2.50735">
        <ele>48.8</ele>
        <time>2021-08-06T11:03:59Z</time>
      </trkpt>
      <trkpt lat="47.6148" lon="-2.5074">
        <ele>48.6</ele>
        <time>2021-08-06T11:04:00Z</time>
      </trkpt>
      <trkpt lat="47.61477" lon="-2.50742">
        <ele>48.6</ele>
        <time>2021-08-06T11:04:01Z</time>
      </trkpt>
      <trkpt lat="47.61474" lon="-2.50741">
        <ele>48.2</ele>
        <time>2021-08-06T11:04:02Z</time>
      </trkpt>
      <trkpt lat="47.61472" lon="-2.50736">
        <ele>47.8</ele>
        <time>2021-08-06T11:04:03Z</time>
      </trkpt>
      <trkpt lat="47.6147" lon="-2.5073">
        <ele>47.6</ele>
        <time>2021-08-06T11:04:04Z</time>
      </trkpt>
      <trkpt lat="47.61467" lon="-2.50724">
        <ele>47.4</ele>
        <time>2021-08-06T11:04:05Z</time>
      </trkpt>
      <trkpt lat="47.61464" lon="-2.50715">
        <ele>47</ele>
        <time>2021-08-06T11:04:06Z</time>
      </trkpt>
      <trkpt lat="47.61461" lon="-2.50707">
        <ele>47</ele>
        <time>2021-08-06T11:04:07Z</time>
      </trkpt>
      <trkpt lat="47.61458" lon="-2.50698">
        <ele>46.8</ele>
        <time>2021-08-06T11:04:08Z</time>
      </trkpt>
      <trkpt lat="47.61454" lon="-2.5069">
        <ele>46.8</ele>
        <time>2021-08-06T11:04:09Z</time>
      </trkpt>
      <trkpt lat="47.61451" lon="-2.50681">
        <ele>46.6</ele>
        <time>2021-08-06T11:04:10Z</time>
      </trkpt>
      <trkpt lat="47.61446" lon="-2.50672">
        <ele>46.4</ele>
        <time>2021-08-06T11:04:11Z</time>
      </trkpt>
      <trkpt lat="47.61442" lon="-2.50662">
        <ele>46.2</ele>
        <time>2021-08-06T11:04:12Z</time>
      </trkpt>
      <trkpt lat="47.61437" lon="-2.50653">
        <ele>45.8</ele>
        <time>2021-08-06T11:04:13Z</time>
      </trkpt>
      <trkpt lat="47.61432" lon="-2.50643">
        <ele>45.2</ele>
        <time>2021-08-06T11:04:14Z</time>
      </trkpt>
      <trkpt lat="47.61426" lon="-2.50634">
        <ele>44.4</ele>
        <time>2021-08-06T11:04:15Z</time>
      </trkpt>
      <trkpt lat="47.61421" lon="-2.50624">
        <ele>43.8</ele>
        <time>2021-08-06T11:04:16Z</time>
      </trkpt>
      <trkpt lat="47.61415" lon="-2.50614">
        <ele>43.2</ele>
        <time>2021-08-06T11:04:17Z</time>
      </trkpt>
      <trkpt lat="47.61409" lon="-2.50602">
        <ele>42.6</ele>
        <time>2021-08-06T11:04:18Z</time>
      </trkpt>
      <trkpt lat="47.61404" lon="-2.50591">
        <ele>42</ele>
        <time>2021-08-06T11:04:19Z</time>
      </trkpt>
      <trkpt lat="47.61398" lon="-2.50579">
        <ele>41.6</ele>
        <time>2021-08-06T11:04:20Z</time>
      </trkpt>
      <trkpt lat="47.61393" lon="-2.50567">
        <ele>41</ele>
        <time>2021-08-06T11:04:21Z</time>
      </trkpt>
      <trkpt lat="47.61387" lon="-2.50553">
        <ele>40.6</ele>
        <time>2021-08-06T11:04:22Z</time>
      </trkpt>
      <trkpt lat="47.61381" lon="-2.50539">
        <ele>40.2</ele>
        <time>2021-08-06T11:04:23Z</time>
      </trkpt>
      <trkpt lat="47.61374" lon="-2.50525">
        <ele>39.8</ele>
        <time>2021-08-06T11:04:24Z</time>
      </trkpt>
      <trkpt lat="47.61367" lon="-2.50511">
        <ele>39.2</ele>
        <time>2021-08-06T11:04:25Z</time>
      </trkpt>
      <trkpt lat="47.61359" lon="-2.50498">
        <ele>38.8</ele>
        <time>2021-08-06T11:04:26Z</time>
      </trkpt>
      <trkpt lat="47.61351" lon="-2.50484">
        <ele>38.2</ele>
        <time>2021-08-06T11:04:27Z</time>
      </trkpt>
      <trkpt lat="47.61343" lon="-2.50471">
        <ele>36.8</ele>
        <time>2021-08-06T11:04:28Z</time>
      </trkpt>
      <trkpt lat="47.61335" lon="-2.50457">
        <ele>36</ele>
        <time>2021-08-06T11:04:29Z</time>
      </trkpt>
      <trkpt lat="47.6133" lon="-2.50442">
        <ele>35.2</ele>
        <time>2021-08-06T11:04:30Z</time>
      </trkpt>
      <trkpt lat="47.61327" lon="-2.50426">
        <ele>34.2</ele>
        <time>2021-08-06T11:04:31Z</time>
      </trkpt>
      <trkpt lat="47.61327" lon="-2.50409">
        <ele>33</ele>
        <time>2021-08-06T11:04:32Z</time>
      </trkpt>
      <trkpt lat="47.61328" lon="-2.50393">
        <ele>31.6</ele>
        <time>2021-08-06T11:04:33Z</time>
      </trkpt>
      <trkpt lat="47.6133" lon="-2.50376">
        <ele>30.6</ele>
        <time>2021-08-06T11:04:34Z</time>
      </trkpt>
      <trkpt lat="47.61332" lon="-2.5036">
        <ele>30</ele>
        <time>2021-08-06T11:04:35Z</time>
      </trkpt>
      <trkpt lat="47.61335" lon="-2.50344">
        <ele>29.8</ele>
        <time>2021-08-06T11:04:36Z</time>
      </trkpt>
      <trkpt lat="47.61338" lon="-2.50329">
        <ele>29.6</ele>
        <time>2021-08-06T11:04:37Z</time>
      </trkpt>
      <trkpt lat="47.6134" lon="-2.50315">
        <ele>29.4</ele>
        <time>2021-08-06T11:04:38Z</time>
      </trkpt>
      <trkpt lat="47.61343" lon="-2.50301">
        <ele>29.2</ele>
        <time>2021-08-06T11:04:39Z</time>
      </trkpt>
      <trkpt lat="47.61346" lon="-2.50287">
        <ele>29</ele>
        <time>2021-08-06T11:04:40Z</time>
      </trkpt>
      <trkpt lat="47.61348" lon="-2.50273">
        <ele>29</ele>
        <time>2021-08-06T11:04:41Z</time>
      </trkpt>
      <trkpt lat="47.61349" lon="-2.50258">
        <ele>28.8</ele>
        <time>2021-08-06T11:04:42Z</time>
      </trkpt>
      <trkpt lat="47.61351" lon="-2.50243">
        <ele>28.8</ele>
        <time>2021-08-06T11:04:43Z</time>
      </trkpt>
      <trkpt lat="47.61351" lon="-2.50228">
        <ele>28.8</ele>
        <time>2021-08-06T11:04:44Z</time>
      </trkpt>
      <trkpt lat="47.6135" lon="-2.50215">
        <ele>28.8</ele>
        <time>2021-08-06T11:04:45Z</time>
      </trkpt>
      <trkpt lat="47.61347" lon="-2.50203">
        <ele>28.8</ele>
        <time>2021-08-06T11:04:46Z</time>
      </trkpt>
      <trkpt lat="47.61343" lon="-2.50192">
        <ele>28.8</ele>
        <time>2021-08-06T11:04:47Z</time>
      </trkpt>
      <trkpt lat="47.61338" lon="-2.50184">
        <ele>29</ele>
        <time>2021-08-06T11:04:48Z</time>
      </trkpt>
      <trkpt lat="47.61333" lon="-2.50177">
        <ele>29</ele>
        <time>2021-08-06T11:04:49Z</time>
      </trkpt>
      <trkpt lat="47.6133" lon="-2.50171">
        <ele>29.2</ele>
        <time>2021-08-06T11:04:50Z</time>
      </trkpt>
      <trkpt lat="47.61328" lon="-2.50165">
        <ele>29.4</ele>
        <time>2021-08-06T11:04:51Z</time>
      </trkpt>
      <trkpt lat="47.61328" lon="-2.50159">
        <ele>29.6</ele>
        <time>2021-08-06T11:04:52Z</time>
      </trkpt>
      <trkpt lat="47.6133" lon="-2.50153">
        <ele>29.8</ele>
        <time>2021-08-06T11:04:53Z</time>
      </trkpt>
      <trkpt lat="47.61334" lon="-2.5015">
        <ele>30</ele>
        <time>2021-08-06T11:04:54Z</time>
      </trkpt>
      <trkpt lat="47.61338" lon="-2.50149">
        <ele>30.2</ele>
        <time>2021-08-06T11:04:55Z</time>
      </trkpt>
      <trkpt lat="47.61342" lon="-2.50152">
        <ele>31.2</ele>
        <time>2021-08-06T11:04:56Z</time>
      </trkpt>
      <trkpt lat="47.61346" lon="-2.50156">
        <ele>31.8</ele>
        <time>2021-08-06T11:04:57Z</time>
      </trkpt>
      <trkpt lat="47.61349" lon="-2.50162">
        <ele>32</ele>
        <time>2021-08-06T11:04:58Z</time>
      </trkpt>
      <trkpt lat="47.61353" lon="-2.50168">
        <ele>32.2</ele>
        <time>2021-08-06T11:04:59Z</time>
      </trkpt>
      <trkpt lat="47.61356" lon="-2.50176">
        <ele>32.2</ele>
        <time>2021-08-06T11:05:00Z</time>
      </trkpt>
      <trkpt lat="47.61358" lon="-2.50184">
        <ele>32.4</ele>
        <time>2021-08-06T11:05:01Z</time>
      </trkpt>
      <trkpt lat="47.6136" lon="-2.50194">
        <ele>32.4</ele>
        <time>2021-08-06T11:05:02Z</time>
      </trkpt>
      <trkpt lat="47.61362" lon="-2.50204">
        <ele>32.4</ele>
        <time>2021-08-06T11:05:03Z</time>
      </trkpt>
      <trkpt lat="47.61363" lon="-2.50215">
        <ele>32.4</ele>
        <time>2021-08-06T11:05:04Z</time>
      </trkpt>
      <trkpt lat="47.61363" lon="-2.50226">
        <ele>32.4</ele>
        <time>2021-08-06T11:05:05Z</time>
      </trkpt>
      <trkpt lat="47.61363" lon="-2.50237">
        <ele>32.4</ele>
        <time>2021-08-06T11:05:06Z</time>
      </trkpt>
      <trkpt lat="47.61363" lon="-2.50248">
        <ele>32.2</ele>
        <time>2021-08-06T11:05:07Z</time>
      </trkpt>
      <trkpt lat="47.61363" lon="-2.50257">
        <ele>31.2</ele>
        <time>2021-08-06T11:05:08Z</time>
      </trkpt>
      <trkpt lat="47.61363" lon="-2.50265">
        <ele>30.4</ele>
        <time>2021-08-06T11:05:09Z</time>
      </trkpt>
      <trkpt lat="47.61364" lon="-2.50271">
        <ele>29.8</ele>
        <time>2021-08-06T11:05:10Z</time>
      </trkpt>
      <trkpt lat="47.61366" lon="-2.50276">
        <ele>29.4</ele>
        <time>2021-08-06T11:05:11Z</time>
      </trkpt>
      <trkpt lat="47.6137" lon="-2.50277">
        <ele>28.8</ele>
        <time>2021-08-06T11:05:12Z</time>
      </trkpt>
      <trkpt lat="47.61374" lon="-2.50276">
        <ele>28.4</ele>
        <time>2021-08-06T11:05:13Z</time>
      </trkpt>
      <trkpt lat="47.61378" lon="-2.5027">
        <ele>28.2</ele>
        <time>2021-08-06T11:05:14Z</time>
      </trkpt>
      <trkpt lat="47.61381" lon="-2.50262">
        <ele>27.6</ele>
        <time>2021-08-06T11:05:15Z</time>
      </trkpt>
      <trkpt lat="47.61382" lon="-2.50253">
        <ele>27.4</ele>
        <time>2021-08-06T11:05:16Z</time>
      </trkpt>
      <trkpt lat="47.61383" lon="-2.50245">
        <ele>27.2</ele>
        <time>2021-08-06T11:05:17Z</time>
      </trkpt>
      <trkpt lat="47.61384" lon="-2.50237">
        <ele>27</ele>
        <time>2021-08-06T11:05:18Z</time>
      </trkpt>
      <trkpt lat="47.61386" lon="-2.5023">
        <ele>27</ele>
        <time>2021-08-06T11:05:19Z</time>
      </trkpt>
      <trkpt lat="47.61389" lon="-2.50223">
        <ele>26.8</ele>
        <time>2021-08-06T11:05:20Z</time>
      </trkpt>
      <trkpt lat="47.61391" lon="-2.50215">
        <ele>26.2</ele>
        <time>2021-08-06T11:05:21Z</time>
      </trkpt>
      <trkpt lat="47.61393" lon="-2.50209">
        <ele>25.6</ele>
        <time>2021-08-06T11:05:22Z</time>
      </trkpt>
      <trkpt lat="47.61395" lon="-2.50203">
        <ele>24.6</ele>
        <time>2021-08-06T11:05:23Z</time>
      </trkpt>
      <trkpt lat="47.61396" lon="-2.50198">
        <ele>22.8</ele>
        <time>2021-08-06T11:05:24Z</time>
      </trkpt>
      <trkpt lat="47.61397" lon="-2.50194">
        <ele>22.4</ele>
        <time>2021-08-06T11:05:25Z</time>
      </trkpt>
      <trkpt lat="47.61397" lon="-2.50191">
        <ele>22.2</ele>
        <time>2021-08-06T11:05:26Z</time>
      </trkpt>
      <trkpt lat="47.61397" lon="-2.50189">
        <ele>22</ele>
        <time>2021-08-06T11:05:27Z</time>
      </trkpt>
      <trkpt lat="47.61396" lon="-2.50187">
        <ele>21.8</ele>
        <time>2021-08-06T11:05:28Z</time>
      </trkpt>
      <trkpt lat="47.61395" lon="-2.50185">
        <ele>21.8</ele>
        <time>2021-08-06T11:05:29Z</time>
      </trkpt>
      <trkpt lat="47.61394" lon="-2.50183">
        <ele>21.8</ele>
        <time>2021-08-06T11:05:30Z</time>
      </trkpt>
      <trkpt lat="47.61394" lon="-2.50181">
        <ele>21.8</ele>
        <time>2021-08-06T11:05:31Z</time>
      </trkpt>
      <trkpt lat="47.61393" lon="-2.50179">
        <ele>21.8</ele>
        <time>2021-08-06T11:05:32Z</time>
      </trkpt>
      <trkpt lat="47.61393" lon="-2.50177">
        <ele>21.8</ele>
        <time>2021-08-06T11:05:33Z</time>
      </trkpt>
      <trkpt lat="47.61393" lon="-2.50175">
        <ele>21.8</ele>
        <time>2021-08-06T11:05:34Z</time>
      </trkpt>
      <trkpt lat="47.61394" lon="-2.50174">
        <ele>21.4</ele>
        <time>2021-08-06T11:05:35Z</time>
      </trkpt>
      <trkpt lat="47.61395" lon="-2.50173">
        <ele>21.4</ele>
        <time>2021-08-06T11:05:36Z</time>
      </trkpt>
      <trkpt lat="47.61397" lon="-2.50171">
        <ele>21.4</ele>
        <time>2021-08-06T11:05:37Z</time>
      </trkpt>
      <trkpt lat="47.61399" lon="-2.50171">
        <ele>21.4</ele>
        <time>2021-08-06T11:05:38Z</time>
      </trkpt>
      <trkpt lat="47.61401" lon="-2.5017">
        <ele>21.4</ele>
        <time>2021-08-06T11:05:39Z</time>
      </trkpt>
      <trkpt lat="47.61403" lon="-2.50168">
        <ele>21.4</ele>
        <time>2021-08-06T11:05:40Z</time>
      </trkpt>
      <trkpt lat="47.61405" lon="-2.50166">
        <ele>21.4</ele>
        <time>2021-08-06T11:05:41Z</time>
      </trkpt>
      <trkpt lat="47.61406" lon="-2.50163">
        <ele>21.4</ele>
        <time>2021-08-06T11:05:42Z</time>
      </trkpt>
      <trkpt lat="47.61407" lon="-2.50161">
        <ele>21.4</ele>
        <time>2021-08-06T11:05:43Z</time>
      </trkpt>
      <trkpt lat="47.61408" lon="-2.50158">
        <ele>21.4</ele>
        <time>2021-08-06T11:05:44Z</time>
      </trkpt>
      <trkpt lat="47.61409" lon="-2.50157">
        <ele>21.4</ele>
        <time>2021-08-06T11:05:45Z</time>
      </trkpt>
      <trkpt lat="47.61411" lon="-2.50155">
        <ele>21.2</ele>
        <time>2021-08-06T11:05:46Z</time>
      </trkpt>
      <trkpt lat="47.61412" lon="-2.50153">
        <ele>21.2</ele>
        <time>2021-08-06T11:05:47Z</time>
      </trkpt>
      <trkpt lat="47.61414" lon="-2.50151">
        <ele>21.2</ele>
        <time>2021-08-06T11:05:48Z</time>
      </trkpt>
      <trkpt lat="47.61415" lon="-2.50148">
        <ele>21.2</ele>
        <time>2021-08-06T11:05:49Z</time>
      </trkpt>
      <trkpt lat="47.61416" lon="-2.50146">
        <ele>21.2</ele>
        <time>2021-08-06T11:05:50Z</time>
      </trkpt>
      <trkpt lat="47.61418" lon="-2.50145">
        <ele>21.2</ele>
        <time>2021-08-06T11:05:51Z</time>
      </trkpt>
      <trkpt lat="47.61419" lon="-2.50144">
        <ele>21.2</ele>
        <time>2021-08-06T11:05:52Z</time>
      </trkpt>
      <trkpt lat="47.61421" lon="-2.50143">
        <ele>21.2</ele>
        <time>2021-08-06T11:05:53Z</time>
      </trkpt>
      <trkpt lat="47.61422" lon="-2.50142">
        <ele>21.2</ele>
        <time>2021-08-06T11:05:54Z</time>
      </trkpt>
      <trkpt lat="47.61423" lon="-2.50141">
        <ele>21.2</ele>
        <time>2021-08-06T11:05:55Z</time>
      </trkpt>
      <trkpt lat="47.61424" lon="-2.50139">
        <ele>21.2</ele>
        <time>2021-08-06T11:05:56Z</time>
      </trkpt>
      <trkpt lat="47.61424" lon="-2.50138">
        <ele>21.4</ele>
        <time>2021-08-06T11:05:57Z</time>
      </trkpt>
      <trkpt lat="47.61424" lon="-2.50137">
        <ele>21.6</ele>
        <time>2021-08-06T11:05:58Z</time>
      </trkpt>
      <trkpt lat="47.61425" lon="-2.50134">
        <ele>22.4</ele>
        <time>2021-08-06T11:06:09Z</time>
      </trkpt>
      <trkpt lat="47.61425" lon="-2.50134">
        <ele>22.4</ele>
        <time>2021-08-06T11:06:10Z</time>
      </trkpt>
      <trkpt lat="47.61425" lon="-2.50134">
        <ele>22.4</ele>
        <time>2021-08-06T11:06:11Z</time>
      </trkpt>
      <trkpt lat="47.61425" lon="-2.50134">
        <ele>22.4</ele>
        <time>2021-08-06T11:06:12Z</time>
      </trkpt>
      <trkpt lat="47.61425" lon="-2.50133">
        <ele>22.6</ele>
        <time>2021-08-06T11:06:16Z</time>
      </trkpt>
      <trkpt lat="47.61425" lon="-2.50132">
        <ele>22.6</ele>
        <time>2021-08-06T11:06:17Z</time>
      </trkpt>
      <trkpt lat="47.61425" lon="-2.50132">
        <ele>22.6</ele>
        <time>2021-08-06T11:06:18Z</time>
      </trkpt>
      <trkpt lat="47.61357" lon="-2.50187">
        <ele>43.8</ele>
        <time>2021-08-07T08:34:37Z</time>
      </trkpt>
      <trkpt lat="47.61356" lon="-2.50185">
        <ele>43.8</ele>
        <time>2021-08-07T08:34:38Z</time>
      </trkpt>
      <trkpt lat="47.61356" lon="-2.50182">
        <ele>44</ele>
        <time>2021-08-07T08:34:39Z</time>
      </trkpt>
      <trkpt lat="47.61354" lon="-2.50177">
        <ele>44</ele>
        <time>2021-08-07T08:34:41Z</time>
      </trkpt>
      <trkpt lat="47.61353" lon="-2.50175">
        <ele>44.2</ele>
        <time>2021-08-07T08:34:42Z</time>
      </trkpt>
      <trkpt lat="47.61352" lon="-2.50172">
        <ele>44.2</ele>
        <time>2021-08-07T08:34:43Z</time>
      </trkpt>
      <trkpt lat="47.6135" lon="-2.5017">
        <ele>44.6</ele>
        <time>2021-08-07T08:34:44Z</time>
      </trkpt>
      <trkpt lat="47.61349" lon="-2.50167">
        <ele>45</ele>
        <time>2021-08-07T08:34:45Z</time>
      </trkpt>
      <trkpt lat="47.61347" lon="-2.50165">
        <ele>45.2</ele>
        <time>2021-08-07T08:34:46Z</time>
      </trkpt>
      <trkpt lat="47.61346" lon="-2.50162">
        <ele>45.6</ele>
        <time>2021-08-07T08:34:47Z</time>
      </trkpt>
      <trkpt lat="47.61344" lon="-2.5016">
        <ele>45.8</ele>
        <time>2021-08-07T08:34:48Z</time>
      </trkpt>
      <trkpt lat="47.61342" lon="-2.50158">
        <ele>46</ele>
        <time>2021-08-07T08:34:49Z</time>
      </trkpt>
      <trkpt lat="47.6134" lon="-2.50156">
        <ele>46.2</ele>
        <time>2021-08-07T08:34:50Z</time>
      </trkpt>
      <trkpt lat="47.61338" lon="-2.50154">
        <ele>46.2</ele>
        <time>2021-08-07T08:34:51Z</time>
      </trkpt>
      <trkpt lat="47.61336" lon="-2.50154">
        <ele>46.2</ele>
        <time>2021-08-07T08:34:52Z</time>
      </trkpt>
      <trkpt lat="47.61333" lon="-2.50153">
        <ele>46.4</ele>
        <time>2021-08-07T08:34:53Z</time>
      </trkpt>
      <trkpt lat="47.61331" lon="-2.50152">
        <ele>46.4</ele>
        <time>2021-08-07T08:34:54Z</time>
      </trkpt>
      <trkpt lat="47.61329" lon="-2.50151">
        <ele>46.4</ele>
        <time>2021-08-07T08:34:55Z</time>
      </trkpt>
      <trkpt lat="47.61326" lon="-2.50149">
        <ele>46.4</ele>
        <time>2021-08-07T08:34:56Z</time>
      </trkpt>
      <trkpt lat="47.61324" lon="-2.50148">
        <ele>46.4</ele>
        <time>2021-08-07T08:34:57Z</time>
      </trkpt>
      <trkpt lat="47.61322" lon="-2.50147">
        <ele>46.6</ele>
        <time>2021-08-07T08:34:58Z</time>
      </trkpt>
      <trkpt lat="47.61319" lon="-2.50146">
        <ele>46.6</ele>
        <time>2021-08-07T08:34:59Z</time>
      </trkpt>
      <trkpt lat="47.61318" lon="-2.50145">
        <ele>46.6</ele>
        <time>2021-08-07T08:35:00Z</time>
      </trkpt>
      <trkpt lat="47.61315" lon="-2.50142">
        <ele>46.6</ele>
        <time>2021-08-07T08:35:02Z</time>
      </trkpt>
      <trkpt lat="47.61315" lon="-2.50141">
        <ele>46.8</ele>
        <time>2021-08-07T08:35:03Z</time>
      </trkpt>
      <trkpt lat="47.61314" lon="-2.5014">
        <ele>46.8</ele>
        <time>2021-08-07T08:35:04Z</time>
      </trkpt>
      <trkpt lat="47.61314" lon="-2.5014">
        <ele>46.8</ele>
        <time>2021-08-07T08:35:05Z</time>
      </trkpt>
      <trkpt lat="47.61314" lon="-2.5014">
        <ele>46.8</ele>
        <time>2021-08-07T08:35:06Z</time>
      </trkpt>
      <trkpt lat="47.61314" lon="-2.50139">
        <ele>46.8</ele>
        <time>2021-08-07T08:35:08Z</time>
      </trkpt>
      <trkpt lat="47.61314" lon="-2.50139">
        <ele>46.8</ele>
        <time>2021-08-07T08:35:09Z</time>
      </trkpt>
      <trkpt lat="47.61313" lon="-2.50137">
        <ele>47</ele>
        <time>2021-08-07T08:35:22Z</time>
      </trkpt>
      <trkpt lat="47.61313" lon="-2.50136">
        <ele>47</ele>
        <time>2021-08-07T08:35:23Z</time>
      </trkpt>
      <trkpt lat="47.61313" lon="-2.50134">
        <ele>47</ele>
        <time>2021-08-07T08:35:24Z</time>
      </trkpt>
      <trkpt lat="47.61313" lon="-2.50132">
        <ele>47</ele>
        <time>2021-08-07T08:35:25Z</time>
      </trkpt>
      <trkpt lat="47.61312" lon="-2.50124">
        <ele>47</ele>
        <time>2021-08-07T08:35:27Z</time>
      </trkpt>
      <trkpt lat="47.6131" lon="-2.50118">
        <ele>46.8</ele>
        <time>2021-08-07T08:35:28Z</time>
      </trkpt>
      <trkpt lat="47.61306" lon="-2.50112">
        <ele>46.8</ele>
        <time>2021-08-07T08:35:29Z</time>
      </trkpt>
      <trkpt lat="47.61302" lon="-2.50106">
        <ele>46.8</ele>
        <time>2021-08-07T08:35:30Z</time>
      </trkpt>
      <trkpt lat="47.61296" lon="-2.501">
        <ele>46.8</ele>
        <time>2021-08-07T08:35:31Z</time>
      </trkpt>
      <trkpt lat="47.61291" lon="-2.50094">
        <ele>46.8</ele>
        <time>2021-08-07T08:35:32Z</time>
      </trkpt>
      <trkpt lat="47.61285" lon="-2.50087">
        <ele>46.8</ele>
        <time>2021-08-07T08:35:33Z</time>
      </trkpt>
      <trkpt lat="47.61279" lon="-2.5008">
        <ele>46.6</ele>
        <time>2021-08-07T08:35:34Z</time>
      </trkpt>
      <trkpt lat="47.61272" lon="-2.50072">
        <ele>46.2</ele>
        <time>2021-08-07T08:35:35Z</time>
      </trkpt>
      <trkpt lat="47.61265" lon="-2.50063">
        <ele>45.6</ele>
        <time>2021-08-07T08:35:36Z</time>
      </trkpt>
      <trkpt lat="47.61257" lon="-2.50056">
        <ele>45</ele>
        <time>2021-08-07T08:35:37Z</time>
      </trkpt>
      <trkpt lat="47.61248" lon="-2.5005">
        <ele>44.4</ele>
        <time>2021-08-07T08:35:38Z</time>
      </trkpt>
      <trkpt lat="47.61238" lon="-2.50046">
        <ele>43.6</ele>
        <time>2021-08-07T08:35:39Z</time>
      </trkpt>
      <trkpt lat="47.61228" lon="-2.50045">
        <ele>43</ele>
        <time>2021-08-07T08:35:40Z</time>
      </trkpt>
      <trkpt lat="47.61219" lon="-2.50045">
        <ele>42</ele>
        <time>2021-08-07T08:35:41Z</time>
      </trkpt>
      <trkpt lat="47.61209" lon="-2.50048">
        <ele>41</ele>
        <time>2021-08-07T08:35:42Z</time>
      </trkpt>
      <trkpt lat="47.61201" lon="-2.5005">
        <ele>40</ele>
        <time>2021-08-07T08:35:43Z</time>
      </trkpt>
      <trkpt lat="47.61194" lon="-2.50053">
        <ele>39</ele>
        <time>2021-08-07T08:35:44Z</time>
      </trkpt>
      <trkpt lat="47.61186" lon="-2.50056">
        <ele>37.8</ele>
        <time>2021-08-07T08:35:45Z</time>
      </trkpt>
      <trkpt lat="47.61179" lon="-2.50059">
        <ele>36.6</ele>
        <time>2021-08-07T08:35:46Z</time>
      </trkpt>
      <trkpt lat="47.61172" lon="-2.50062">
        <ele>35.6</ele>
        <time>2021-08-07T08:35:47Z</time>
      </trkpt>
      <trkpt lat="47.61165" lon="-2.50064">
        <ele>35</ele>
        <time>2021-08-07T08:35:48Z</time>
      </trkpt>
      <trkpt lat="47.61158" lon="-2.50066">
        <ele>34.6</ele>
        <time>2021-08-07T08:35:49Z</time>
      </trkpt>
      <trkpt lat="47.61151" lon="-2.50067">
        <ele>34.2</ele>
        <time>2021-08-07T08:35:50Z</time>
      </trkpt>
      <trkpt lat="47.61144" lon="-2.50067">
        <ele>34.2</ele>
        <time>2021-08-07T08:35:51Z</time>
      </trkpt>
      <trkpt lat="47.61138" lon="-2.50066">
        <ele>34</ele>
        <time>2021-08-07T08:35:52Z</time>
      </trkpt>
      <trkpt lat="47.61131" lon="-2.50065">
        <ele>34</ele>
        <time>2021-08-07T08:35:53Z</time>
      </trkpt>
      <trkpt lat="47.61124" lon="-2.50064">
        <ele>33.8</ele>
        <time>2021-08-07T08:35:54Z</time>
      </trkpt>
      <trkpt lat="47.61118" lon="-2.50063">
        <ele>33.6</ele>
        <time>2021-08-07T08:35:55Z</time>
      </trkpt>
      <trkpt lat="47.61112" lon="-2.50061">
        <ele>33.6</ele>
        <time>2021-08-07T08:35:56Z</time>
      </trkpt>
      <trkpt lat="47.61106" lon="-2.5006">
        <ele>33.6</ele>
        <time>2021-08-07T08:35:57Z</time>
      </trkpt>
      <trkpt lat="47.61101" lon="-2.50059">
        <ele>33.4</ele>
        <time>2021-08-07T08:35:58Z</time>
      </trkpt>
      <trkpt lat="47.61096" lon="-2.50058">
        <ele>33.6</ele>
        <time>2021-08-07T08:35:59Z</time>
      </trkpt>
      <trkpt lat="47.61091" lon="-2.50058">
        <ele>33.6</ele>
        <time>2021-08-07T08:36:00Z</time>
      </trkpt>
      <trkpt lat="47.61086" lon="-2.50058">
        <ele>33.6</ele>
        <time>2021-08-07T08:36:01Z</time>
      </trkpt>
      <trkpt lat="47.61081" lon="-2.50057">
        <ele>33.8</ele>
        <time>2021-08-07T08:36:02Z</time>
      </trkpt>
      <trkpt lat="47.61076" lon="-2.50056">
        <ele>33.8</ele>
        <time>2021-08-07T08:36:03Z</time>
      </trkpt>
      <trkpt lat="47.61071" lon="-2.50055">
        <ele>33.8</ele>
        <time>2021-08-07T08:36:04Z</time>
      </trkpt>
      <trkpt lat="47.61067" lon="-2.50052">
        <ele>33.8</ele>
        <time>2021-08-07T08:36:05Z</time>
      </trkpt>
      <trkpt lat="47.61062" lon="-2.50048">
        <ele>33.8</ele>
        <time>2021-08-07T08:36:06Z</time>
      </trkpt>
      <trkpt lat="47.61057" lon="-2.50043">
        <ele>33.8</ele>
        <time>2021-08-07T08:36:07Z</time>
      </trkpt>
      <trkpt lat="47.61052" lon="-2.50038">
        <ele>33.8</ele>
        <time>2021-08-07T08:36:08Z</time>
      </trkpt>
      <trkpt lat="47.61047" lon="-2.50033">
        <ele>33.8</ele>
        <time>2021-08-07T08:36:09Z</time>
      </trkpt>
      <trkpt lat="47.61042" lon="-2.50028">
        <ele>33.8</ele>
        <time>2021-08-07T08:36:10Z</time>
      </trkpt>
      <trkpt lat="47.61037" lon="-2.50023">
        <ele>33.8</ele>
        <time>2021-08-07T08:36:11Z</time>
      </trkpt>
      <trkpt lat="47.61032" lon="-2.50018">
        <ele>33.8</ele>
        <time>2021-08-07T08:36:12Z</time>
      </trkpt>
      <trkpt lat="47.61027" lon="-2.50014">
        <ele>33.8</ele>
        <time>2021-08-07T08:36:13Z</time>
      </trkpt>
      <trkpt lat="47.61017" lon="-2.50005">
        <ele>33.8</ele>
        <time>2021-08-07T08:36:15Z</time>
      </trkpt>
      <trkpt lat="47.61012" lon="-2.5">
        <ele>33.6</ele>
        <time>2021-08-07T08:36:16Z</time>
      </trkpt>
      <trkpt lat="47.61007" lon="-2.49995">
        <ele>33.2</ele>
        <time>2021-08-07T08:36:17Z</time>
      </trkpt>
      <trkpt lat="47.61002" lon="-2.49991">
        <ele>33</ele>
        <time>2021-08-07T08:36:18Z</time>
      </trkpt>
      <trkpt lat="47.60996" lon="-2.49986">
        <ele>32.8</ele>
        <time>2021-08-07T08:36:19Z</time>
      </trkpt>
      <trkpt lat="47.60991" lon="-2.49982">
        <ele>32.8</ele>
        <time>2021-08-07T08:36:20Z</time>
      </trkpt>
      <trkpt lat="47.60986" lon="-2.49977">
        <ele>32.6</ele>
        <time>2021-08-07T08:36:21Z</time>
      </trkpt>
      <trkpt lat="47.60981" lon="-2.49972">
        <ele>32.6</ele>
        <time>2021-08-07T08:36:22Z</time>
      </trkpt>
      <trkpt lat="47.60976" lon="-2.49967">
        <ele>32.6</ele>
        <time>2021-08-07T08:36:23Z</time>
      </trkpt>
      <trkpt lat="47.6097" lon="-2.49962">
        <ele>32.6</ele>
        <time>2021-08-07T08:36:24Z</time>
      </trkpt>
      <trkpt lat="47.60961" lon="-2.49947">
        <ele>32.6</ele>
        <time>2021-08-07T08:36:26Z</time>
      </trkpt>
      <trkpt lat="47.60957" lon="-2.49938">
        <ele>32.4</ele>
        <time>2021-08-07T08:36:27Z</time>
      </trkpt>
      <trkpt lat="47.60954" lon="-2.49927">
        <ele>32.4</ele>
        <time>2021-08-07T08:36:28Z</time>
      </trkpt>
      <trkpt lat="47.60951" lon="-2.49916">
        <ele>32.2</ele>
        <time>2021-08-07T08:36:29Z</time>
      </trkpt>
      <trkpt lat="47.60951" lon="-2.49905">
        <ele>32</ele>
        <time>2021-08-07T08:36:30Z</time>
      </trkpt>
      <trkpt lat="47.60952" lon="-2.49897">
        <ele>31.8</ele>
        <time>2021-08-07T08:36:31Z</time>
      </trkpt>
      <trkpt lat="47.60954" lon="-2.49887">
        <ele>31.8</ele>
        <time>2021-08-07T08:36:32Z</time>
      </trkpt>
      <trkpt lat="47.60956" lon="-2.49878">
        <ele>31.6</ele>
        <time>2021-08-07T08:36:33Z</time>
      </trkpt>
      <trkpt lat="47.60958" lon="-2.4987">
        <ele>31.4</ele>
        <time>2021-08-07T08:36:34Z</time>
      </trkpt>
      <trkpt lat="47.60962" lon="-2.49852">
        <ele>30.8</ele>
        <time>2021-08-07T08:36:36Z</time>
      </trkpt>
      <trkpt lat="47.60964" lon="-2.49844">
        <ele>30.2</ele>
        <time>2021-08-07T08:36:37Z</time>
      </trkpt>
      <trkpt lat="47.60965" lon="-2.49835">
        <ele>30.2</ele>
        <time>2021-08-07T08:36:38Z</time>
      </trkpt>
      <trkpt lat="47.60966" lon="-2.49826">
        <ele>30</ele>
        <time>2021-08-07T08:36:39Z</time>
      </trkpt>
      <trkpt lat="47.60966" lon="-2.49817">
        <ele>30</ele>
        <time>2021-08-07T08:36:40Z</time>
      </trkpt>
      <trkpt lat="47.60967" lon="-2.49808">
        <ele>29.8</ele>
        <time>2021-08-07T08:36:41Z</time>
      </trkpt>
      <trkpt lat="47.60966" lon="-2.49799">
        <ele>29.8</ele>
        <time>2021-08-07T08:36:42Z</time>
      </trkpt>
      <trkpt lat="47.60965" lon="-2.49791">
        <ele>29.6</ele>
        <time>2021-08-07T08:36:43Z</time>
      </trkpt>
      <trkpt lat="47.60963" lon="-2.49783">
        <ele>29.6</ele>
        <time>2021-08-07T08:36:44Z</time>
      </trkpt>
      <trkpt lat="47.60961" lon="-2.49775">
        <ele>29.6</ele>
        <time>2021-08-07T08:36:45Z</time>
      </trkpt>
      <trkpt lat="47.60957" lon="-2.49759">
        <ele>29.6</ele>
        <time>2021-08-07T08:36:47Z</time>
      </trkpt>
      <trkpt lat="47.60955" lon="-2.4975">
        <ele>29.4</ele>
        <time>2021-08-07T08:36:48Z</time>
      </trkpt>
      <trkpt lat="47.60953" lon="-2.49742">
        <ele>29.4</ele>
        <time>2021-08-07T08:36:49Z</time>
      </trkpt>
      <trkpt lat="47.60951" lon="-2.49735">
        <ele>29.4</ele>
        <time>2021-08-07T08:36:50Z</time>
      </trkpt>
      <trkpt lat="47.60948" lon="-2.49727">
        <ele>29.4</ele>
        <time>2021-08-07T08:36:51Z</time>
      </trkpt>
      <trkpt lat="47.60945" lon="-2.4972">
        <ele>29.4</ele>
        <time>2021-08-07T08:36:52Z</time>
      </trkpt>
      <trkpt lat="47.60942" lon="-2.49714">
        <ele>29.4</ele>
        <time>2021-08-07T08:36:53Z</time>
      </trkpt>
      <trkpt lat="47.60938" lon="-2.49708">
        <ele>29.4</ele>
        <time>2021-08-07T08:36:54Z</time>
      </trkpt>
      <trkpt lat="47.60935" lon="-2.49702">
        <ele>29.4</ele>
        <time>2021-08-07T08:36:55Z</time>
      </trkpt>
      <trkpt lat="47.60931" lon="-2.49697">
        <ele>29.4</ele>
        <time>2021-08-07T08:36:56Z</time>
      </trkpt>
      <trkpt lat="47.60922" lon="-2.49687">
        <ele>29.2</ele>
        <time>2021-08-07T08:36:58Z</time>
      </trkpt>
      <trkpt lat="47.60918" lon="-2.49683">
        <ele>29.4</ele>
        <time>2021-08-07T08:36:59Z</time>
      </trkpt>
      <trkpt lat="47.60914" lon="-2.4968">
        <ele>29.4</ele>
        <time>2021-08-07T08:37:00Z</time>
      </trkpt>
      <trkpt lat="47.6091" lon="-2.49675">
        <ele>29.4</ele>
        <time>2021-08-07T08:37:01Z</time>
      </trkpt>
      <trkpt lat="47.60906" lon="-2.49672">
        <ele>29.6</ele>
        <time>2021-08-07T08:37:02Z</time>
      </trkpt>
      <trkpt lat="47.60902" lon="-2.49669">
        <ele>29.6</ele>
        <time>2021-08-07T08:37:03Z</time>
      </trkpt>
      <trkpt lat="47.60898" lon="-2.49666">
        <ele>29.6</ele>
        <time>2021-08-07T08:37:04Z</time>
      </trkpt>
      <trkpt lat="47.60895" lon="-2.49664">
        <ele>29.8</ele>
        <time>2021-08-07T08:37:05Z</time>
      </trkpt>
      <trkpt lat="47.60891" lon="-2.49661">
        <ele>29.8</ele>
        <time>2021-08-07T08:37:06Z</time>
      </trkpt>
      <trkpt lat="47.60888" lon="-2.4966">
        <ele>30</ele>
        <time>2021-08-07T08:37:07Z</time>
      </trkpt>
      <trkpt lat="47.60884" lon="-2.49658">
        <ele>30</ele>
        <time>2021-08-07T08:37:08Z</time>
      </trkpt>
      <trkpt lat="47.60881" lon="-2.49658">
        <ele>30.4</ele>
        <time>2021-08-07T08:37:09Z</time>
      </trkpt>
      <trkpt lat="47.60877" lon="-2.49656">
        <ele>30.6</ele>
        <time>2021-08-07T08:37:10Z</time>
      </trkpt>
      <trkpt lat="47.60874" lon="-2.49654">
        <ele>31</ele>
        <time>2021-08-07T08:37:11Z</time>
      </trkpt>
      <trkpt lat="47.6087" lon="-2.49652">
        <ele>31.2</ele>
        <time>2021-08-07T08:37:12Z</time>
      </trkpt>
      <trkpt lat="47.60866" lon="-2.49649">
        <ele>31.4</ele>
        <time>2021-08-07T08:37:13Z</time>
      </trkpt>
      <trkpt lat="47.60862" lon="-2.49646">
        <ele>31.2</ele>
        <time>2021-08-07T08:37:14Z</time>
      </trkpt>
      <trkpt lat="47.60858" lon="-2.49643">
        <ele>31.4</ele>
        <time>2021-08-07T08:37:15Z</time>
      </trkpt>
      <trkpt lat="47.60854" lon="-2.4964">
        <ele>31.4</ele>
        <time>2021-08-07T08:37:16Z</time>
      </trkpt>
      <trkpt lat="47.60851" lon="-2.49636">
        <ele>31.6</ele>
        <time>2021-08-07T08:37:17Z</time>
      </trkpt>
      <trkpt lat="47.60847" lon="-2.49632">
        <ele>32</ele>
        <time>2021-08-07T08:37:18Z</time>
      </trkpt>
      <trkpt lat="47.6084" lon="-2.49624">
        <ele>32.2</ele>
        <time>2021-08-07T08:37:20Z</time>
      </trkpt>
      <trkpt lat="47.60837" lon="-2.4962">
        <ele>32.4</ele>
        <time>2021-08-07T08:37:21Z</time>
      </trkpt>
      <trkpt lat="47.60834" lon="-2.49615">
        <ele>32.4</ele>
        <time>2021-08-07T08:37:22Z</time>
      </trkpt>
      <trkpt lat="47.60831" lon="-2.49611">
        <ele>32.6</ele>
        <time>2021-08-07T08:37:23Z</time>
      </trkpt>
      <trkpt lat="47.60829" lon="-2.49606">
        <ele>32.8</ele>
        <time>2021-08-07T08:37:24Z</time>
      </trkpt>
      <trkpt lat="47.60827" lon="-2.49601">
        <ele>32.8</ele>
        <time>2021-08-07T08:37:25Z</time>
      </trkpt>
      <trkpt lat="47.60824" lon="-2.49596">
        <ele>32.8</ele>
        <time>2021-08-07T08:37:26Z</time>
      </trkpt>
      <trkpt lat="47.60822" lon="-2.49591">
        <ele>33</ele>
        <time>2021-08-07T08:37:27Z</time>
      </trkpt>
      <trkpt lat="47.6082" lon="-2.49587">
        <ele>33.2</ele>
        <time>2021-08-07T08:37:28Z</time>
      </trkpt>
      <trkpt lat="47.60819" lon="-2.49582">
        <ele>33.4</ele>
        <time>2021-08-07T08:37:29Z</time>
      </trkpt>
      <trkpt lat="47.60815" lon="-2.49571">
        <ele>33.8</ele>
        <time>2021-08-07T08:37:31Z</time>
      </trkpt>
      <trkpt lat="47.60813" lon="-2.49566">
        <ele>34</ele>
        <time>2021-08-07T08:37:32Z</time>
      </trkpt>
      <trkpt lat="47.60811" lon="-2.49561">
        <ele>34.2</ele>
        <time>2021-08-07T08:37:33Z</time>
      </trkpt>
      <trkpt lat="47.6081" lon="-2.49556">
        <ele>34.2</ele>
        <time>2021-08-07T08:37:34Z</time>
      </trkpt>
      <trkpt lat="47.60808" lon="-2.49551">
        <ele>34.4</ele>
        <time>2021-08-07T08:37:35Z</time>
      </trkpt>
      <trkpt lat="47.60806" lon="-2.49547">
        <ele>34.4</ele>
        <time>2021-08-07T08:37:36Z</time>
      </trkpt>
      <trkpt lat="47.60804" lon="-2.49543">
        <ele>34.4</ele>
        <time>2021-08-07T08:37:37Z</time>
      </trkpt>
      <trkpt lat="47.60802" lon="-2.49539">
        <ele>34.6</ele>
        <time>2021-08-07T08:37:38Z</time>
      </trkpt>
      <trkpt lat="47.608" lon="-2.49535">
        <ele>34.6</ele>
        <time>2021-08-07T08:37:39Z</time>
      </trkpt>
      <trkpt lat="47.60797" lon="-2.49531">
        <ele>34.6</ele>
        <time>2021-08-07T08:37:40Z</time>
      </trkpt>
      <trkpt lat="47.60795" lon="-2.49527">
        <ele>34.8</ele>
        <time>2021-08-07T08:37:41Z</time>
      </trkpt>
      <trkpt lat="47.60793" lon="-2.49524">
        <ele>35</ele>
        <time>2021-08-07T08:37:42Z</time>
      </trkpt>
      <trkpt lat="47.6079" lon="-2.49521">
        <ele>35</ele>
        <time>2021-08-07T08:37:43Z</time>
      </trkpt>
      <trkpt lat="47.60788" lon="-2.49518">
        <ele>35.2</ele>
        <time>2021-08-07T08:37:44Z</time>
      </trkpt>
      <trkpt lat="47.60786" lon="-2.49516">
        <ele>35.4</ele>
        <time>2021-08-07T08:37:45Z</time>
      </trkpt>
      <trkpt lat="47.60784" lon="-2.49513">
        <ele>35.4</ele>
        <time>2021-08-07T08:37:46Z</time>
      </trkpt>
      <trkpt lat="47.60782" lon="-2.4951">
        <ele>35.6</ele>
        <time>2021-08-07T08:37:47Z</time>
      </trkpt>
      <trkpt lat="47.60779" lon="-2.49507">
        <ele>35.6</ele>
        <time>2021-08-07T08:37:48Z</time>
      </trkpt>
      <trkpt lat="47.60777" lon="-2.49504">
        <ele>35.8</ele>
        <time>2021-08-07T08:37:49Z</time>
      </trkpt>
      <trkpt lat="47.60775" lon="-2.49501">
        <ele>36</ele>
        <time>2021-08-07T08:37:50Z</time>
      </trkpt>
      <trkpt lat="47.60772" lon="-2.49498">
        <ele>36.2</ele>
        <time>2021-08-07T08:37:51Z</time>
      </trkpt>
      <trkpt lat="47.60769" lon="-2.49492">
        <ele>36.6</ele>
        <time>2021-08-07T08:37:53Z</time>
      </trkpt>
      <trkpt lat="47.60767" lon="-2.49489">
        <ele>36.8</ele>
        <time>2021-08-07T08:37:54Z</time>
      </trkpt>
      <trkpt lat="47.60764" lon="-2.49486">
        <ele>37</ele>
        <time>2021-08-07T08:37:55Z</time>
      </trkpt>
      <trkpt lat="47.60762" lon="-2.49484">
        <ele>37</ele>
        <time>2021-08-07T08:37:56Z</time>
      </trkpt>
      <trkpt lat="47.6076" lon="-2.49482">
        <ele>37.2</ele>
        <time>2021-08-07T08:37:57Z</time>
      </trkpt>
      <trkpt lat="47.60758" lon="-2.49479">
        <ele>37.4</ele>
        <time>2021-08-07T08:37:58Z</time>
      </trkpt>
      <trkpt lat="47.60756" lon="-2.49477">
        <ele>37.8</ele>
        <time>2021-08-07T08:37:59Z</time>
      </trkpt>
      <trkpt lat="47.60754" lon="-2.49475">
        <ele>37.8</ele>
        <time>2021-08-07T08:38:00Z</time>
      </trkpt>
      <trkpt lat="47.60752" lon="-2.49473">
        <ele>38</ele>
        <time>2021-08-07T08:38:01Z</time>
      </trkpt>
      <trkpt lat="47.6075" lon="-2.4947">
        <ele>38.4</ele>
        <time>2021-08-07T08:38:02Z</time>
      </trkpt>
      <trkpt lat="47.60747" lon="-2.49466">
        <ele>38.6</ele>
        <time>2021-08-07T08:38:04Z</time>
      </trkpt>
      <trkpt lat="47.60745" lon="-2.49464">
        <ele>38.8</ele>
        <time>2021-08-07T08:38:05Z</time>
      </trkpt>
      <trkpt lat="47.60743" lon="-2.49462">
        <ele>39</ele>
        <time>2021-08-07T08:38:06Z</time>
      </trkpt>
      <trkpt lat="47.60741" lon="-2.4946">
        <ele>39.2</ele>
        <time>2021-08-07T08:38:07Z</time>
      </trkpt>
      <trkpt lat="47.60739" lon="-2.49457">
        <ele>39.4</ele>
        <time>2021-08-07T08:38:08Z</time>
      </trkpt>
      <trkpt lat="47.60737" lon="-2.49455">
        <ele>39.6</ele>
        <time>2021-08-07T08:38:09Z</time>
      </trkpt>
      <trkpt lat="47.60735" lon="-2.49453">
        <ele>39.8</ele>
        <time>2021-08-07T08:38:10Z</time>
      </trkpt>
      <trkpt lat="47.60733" lon="-2.49452">
        <ele>40</ele>
        <time>2021-08-07T08:38:11Z</time>
      </trkpt>
      <trkpt lat="47.60731" lon="-2.4945">
        <ele>40.2</ele>
        <time>2021-08-07T08:38:12Z</time>
      </trkpt>
      <trkpt lat="47.60728" lon="-2.49448">
        <ele>40.4</ele>
        <time>2021-08-07T08:38:13Z</time>
      </trkpt>
      <trkpt lat="47.60723" lon="-2.49444">
        <ele>40.8</ele>
        <time>2021-08-07T08:38:15Z</time>
      </trkpt>
      <trkpt lat="47.6072" lon="-2.49442">
        <ele>41.4</ele>
        <time>2021-08-07T08:38:16Z</time>
      </trkpt>
      <trkpt lat="47.60718" lon="-2.4944">
        <ele>41.6</ele>
        <time>2021-08-07T08:38:17Z</time>
      </trkpt>
      <trkpt lat="47.60715" lon="-2.49438">
        <ele>41.6</ele>
        <time>2021-08-07T08:38:18Z</time>
      </trkpt>
      <trkpt lat="47.60713" lon="-2.49436">
        <ele>41.8</ele>
        <time>2021-08-07T08:38:19Z</time>
      </trkpt>
      <trkpt lat="47.6071" lon="-2.49434">
        <ele>42</ele>
        <time>2021-08-07T08:38:20Z</time>
      </trkpt>
      <trkpt lat="47.60708" lon="-2.49431">
        <ele>42.2</ele>
        <time>2021-08-07T08:38:21Z</time>
      </trkpt>
      <trkpt lat="47.60705" lon="-2.49429">
        <ele>42.2</ele>
        <time>2021-08-07T08:38:22Z</time>
      </trkpt>
      <trkpt lat="47.60703" lon="-2.49425">
        <ele>42.4</ele>
        <time>2021-08-07T08:38:23Z</time>
      </trkpt>
      <trkpt lat="47.60701" lon="-2.49423">
        <ele>42.6</ele>
        <time>2021-08-07T08:38:24Z</time>
      </trkpt>
      <trkpt lat="47.60698" lon="-2.4942">
        <ele>42.8</ele>
        <time>2021-08-07T08:38:25Z</time>
      </trkpt>
      <trkpt lat="47.60696" lon="-2.49418">
        <ele>43</ele>
        <time>2021-08-07T08:38:26Z</time>
      </trkpt>
      <trkpt lat="47.60693" lon="-2.49416">
        <ele>43.2</ele>
        <time>2021-08-07T08:38:27Z</time>
      </trkpt>
      <trkpt lat="47.60691" lon="-2.49413">
        <ele>43.4</ele>
        <time>2021-08-07T08:38:28Z</time>
      </trkpt>
      <trkpt lat="47.60689" lon="-2.49411">
        <ele>43.4</ele>
        <time>2021-08-07T08:38:29Z</time>
      </trkpt>
      <trkpt lat="47.60686" lon="-2.4941">
        <ele>43.6</ele>
        <time>2021-08-07T08:38:30Z</time>
      </trkpt>
      <trkpt lat="47.60684" lon="-2.49407">
        <ele>43.6</ele>
        <time>2021-08-07T08:38:31Z</time>
      </trkpt>
      <trkpt lat="47.60681" lon="-2.49404">
        <ele>43.8</ele>
        <time>2021-08-07T08:38:32Z</time>
      </trkpt>
      <trkpt lat="47.60679" lon="-2.49402">
        <ele>44</ele>
        <time>2021-08-07T08:38:33Z</time>
      </trkpt>
      <trkpt lat="47.60677" lon="-2.49399">
        <ele>44.2</ele>
        <time>2021-08-07T08:38:34Z</time>
      </trkpt>
      <trkpt lat="47.60675" lon="-2.49396">
        <ele>44.2</ele>
        <time>2021-08-07T08:38:35Z</time>
      </trkpt>
      <trkpt lat="47.60671" lon="-2.4939">
        <ele>44.6</ele>
        <time>2021-08-07T08:38:37Z</time>
      </trkpt>
      <trkpt lat="47.60669" lon="-2.49388">
        <ele>44.8</ele>
        <time>2021-08-07T08:38:38Z</time>
      </trkpt>
      <trkpt lat="47.60667" lon="-2.49384">
        <ele>45</ele>
        <time>2021-08-07T08:38:39Z</time>
      </trkpt>
      <trkpt lat="47.60665" lon="-2.49382">
        <ele>44.8</ele>
        <time>2021-08-07T08:38:40Z</time>
      </trkpt>
      <trkpt lat="47.60663" lon="-2.49378">
        <ele>45</ele>
        <time>2021-08-07T08:38:41Z</time>
      </trkpt>
      <trkpt lat="47.60662" lon="-2.49376">
        <ele>45</ele>
        <time>2021-08-07T08:38:42Z</time>
      </trkpt>
      <trkpt lat="47.6066" lon="-2.49373">
        <ele>45</ele>
        <time>2021-08-07T08:38:43Z</time>
      </trkpt>
      <trkpt lat="47.60659" lon="-2.49371">
        <ele>45.2</ele>
        <time>2021-08-07T08:38:44Z</time>
      </trkpt>
      <trkpt lat="47.60657" lon="-2.49368">
        <ele>45.8</ele>
        <time>2021-08-07T08:38:45Z</time>
      </trkpt>
      <trkpt lat="47.60655" lon="-2.49366">
        <ele>46</ele>
        <time>2021-08-07T08:38:46Z</time>
      </trkpt>
      <trkpt lat="47.60652" lon="-2.49361">
        <ele>46.2</ele>
        <time>2021-08-07T08:38:48Z</time>
      </trkpt>
      <trkpt lat="47.6065" lon="-2.49359">
        <ele>46.4</ele>
        <time>2021-08-07T08:38:49Z</time>
      </trkpt>
      <trkpt lat="47.60648" lon="-2.49357">
        <ele>46.4</ele>
        <time>2021-08-07T08:38:50Z</time>
      </trkpt>
      <trkpt lat="47.60646" lon="-2.49354">
        <ele>46.6</ele>
        <time>2021-08-07T08:38:51Z</time>
      </trkpt>
      <trkpt lat="47.60645" lon="-2.49352">
        <ele>46.8</ele>
        <time>2021-08-07T08:38:52Z</time>
      </trkpt>
      <trkpt lat="47.60643" lon="-2.4935">
        <ele>46.8</ele>
        <time>2021-08-07T08:38:53Z</time>
      </trkpt>
      <trkpt lat="47.60642" lon="-2.49347">
        <ele>47</ele>
        <time>2021-08-07T08:38:54Z</time>
      </trkpt>
      <trkpt lat="47.6064" lon="-2.49345">
        <ele>47</ele>
        <time>2021-08-07T08:38:55Z</time>
      </trkpt>
      <trkpt lat="47.60639" lon="-2.49343">
        <ele>47.2</ele>
        <time>2021-08-07T08:38:56Z</time>
      </trkpt>
      <trkpt lat="47.60637" lon="-2.4934">
        <ele>47.4</ele>
        <time>2021-08-07T08:38:57Z</time>
      </trkpt>
      <trkpt lat="47.60633" lon="-2.49334">
        <ele>47.6</ele>
        <time>2021-08-07T08:38:59Z</time>
      </trkpt>
      <trkpt lat="47.60632" lon="-2.49331">
        <ele>47.8</ele>
        <time>2021-08-07T08:39:00Z</time>
      </trkpt>
      <trkpt lat="47.6063" lon="-2.49328">
        <ele>48</ele>
        <time>2021-08-07T08:39:01Z</time>
      </trkpt>
      <trkpt lat="47.60628" lon="-2.49325">
        <ele>48</ele>
        <time>2021-08-07T08:39:02Z</time>
      </trkpt>
      <trkpt lat="47.60627" lon="-2.49322">
        <ele>48.2</ele>
        <time>2021-08-07T08:39:03Z</time>
      </trkpt>
      <trkpt lat="47.60625" lon="-2.49319">
        <ele>48.2</ele>
        <time>2021-08-07T08:39:04Z</time>
      </trkpt>
      <trkpt lat="47.60624" lon="-2.49317">
        <ele>48.4</ele>
        <time>2021-08-07T08:39:05Z</time>
      </trkpt>
      <trkpt lat="47.60622" lon="-2.49314">
        <ele>48.6</ele>
        <time>2021-08-07T08:39:06Z</time>
      </trkpt>
      <trkpt lat="47.60621" lon="-2.49311">
        <ele>48.6</ele>
        <time>2021-08-07T08:39:07Z</time>
      </trkpt>
      <trkpt lat="47.60619" lon="-2.49308">
        <ele>48.6</ele>
        <time>2021-08-07T08:39:08Z</time>
      </trkpt>
      <trkpt lat="47.60616" lon="-2.49303">
        <ele>48.8</ele>
        <time>2021-08-07T08:39:10Z</time>
      </trkpt>
      <trkpt lat="47.60615" lon="-2.493">
        <ele>48.6</ele>
        <time>2021-08-07T08:39:11Z</time>
      </trkpt>
      <trkpt lat="47.60614" lon="-2.49297">
        <ele>48.8</ele>
        <time>2021-08-07T08:39:12Z</time>
      </trkpt>
      <trkpt lat="47.60613" lon="-2.49293">
        <ele>49</ele>
        <time>2021-08-07T08:39:13Z</time>
      </trkpt>
      <trkpt lat="47.60612" lon="-2.4929">
        <ele>49.2</ele>
        <time>2021-08-07T08:39:14Z</time>
      </trkpt>
      <trkpt lat="47.60612" lon="-2.49287">
        <ele>49.4</ele>
        <time>2021-08-07T08:39:15Z</time>
      </trkpt>
      <trkpt lat="47.60611" lon="-2.49284">
        <ele>49.6</ele>
        <time>2021-08-07T08:39:16Z</time>
      </trkpt>
      <trkpt lat="47.6061" lon="-2.4928">
        <ele>49.6</ele>
        <time>2021-08-07T08:39:17Z</time>
      </trkpt>
      <trkpt lat="47.60609" lon="-2.49276">
        <ele>49.8</ele>
        <time>2021-08-07T08:39:18Z</time>
      </trkpt>
      <trkpt lat="47.60609" lon="-2.49273">
        <ele>49.8</ele>
        <time>2021-08-07T08:39:19Z</time>
      </trkpt>
      <trkpt lat="47.60609" lon="-2.49267">
        <ele>50.2</ele>
        <time>2021-08-07T08:39:21Z</time>
      </trkpt>
      <trkpt lat="47.60609" lon="-2.49264">
        <ele>50.4</ele>
        <time>2021-08-07T08:39:22Z</time>
      </trkpt>
      <trkpt lat="47.6061" lon="-2.49261">
        <ele>50.4</ele>
        <time>2021-08-07T08:39:23Z</time>
      </trkpt>
      <trkpt lat="47.60611" lon="-2.4926">
        <ele>50.6</ele>
        <time>2021-08-07T08:39:24Z</time>
      </trkpt>
      <trkpt lat="47.60613" lon="-2.49259">
        <ele>50.6</ele>
        <time>2021-08-07T08:39:25Z</time>
      </trkpt>
      <trkpt lat="47.60614" lon="-2.49257">
        <ele>50.6</ele>
        <time>2021-08-07T08:39:26Z</time>
      </trkpt>
      <trkpt lat="47.60615" lon="-2.49254">
        <ele>50.8</ele>
        <time>2021-08-07T08:39:27Z</time>
      </trkpt>
      <trkpt lat="47.60616" lon="-2.49252">
        <ele>50.8</ele>
        <time>2021-08-07T08:39:28Z</time>
      </trkpt>
      <trkpt lat="47.60617" lon="-2.4925">
        <ele>51</ele>
        <time>2021-08-07T08:39:29Z</time>
      </trkpt>
      <trkpt lat="47.60619" lon="-2.49249">
        <ele>51.2</ele>
        <time>2021-08-07T08:39:30Z</time>
      </trkpt>
      <trkpt lat="47.60622" lon="-2.49248">
        <ele>51.4</ele>
        <time>2021-08-07T08:39:32Z</time>
      </trkpt>
      <trkpt lat="47.60624" lon="-2.49247">
        <ele>51.6</ele>
        <time>2021-08-07T08:39:33Z</time>
      </trkpt>
      <trkpt lat="47.60626" lon="-2.49246">
        <ele>51.8</ele>
        <time>2021-08-07T08:39:34Z</time>
      </trkpt>
      <trkpt lat="47.60628" lon="-2.49245">
        <ele>51.8</ele>
        <time>2021-08-07T08:39:35Z</time>
      </trkpt>
      <trkpt lat="47.6063" lon="-2.49244">
        <ele>52</ele>
        <time>2021-08-07T08:39:36Z</time>
      </trkpt>
      <trkpt lat="47.60632" lon="-2.49243">
        <ele>52</ele>
        <time>2021-08-07T08:39:37Z</time>
      </trkpt>
      <trkpt lat="47.60634" lon="-2.49242">
        <ele>52.2</ele>
        <time>2021-08-07T08:39:38Z</time>
      </trkpt>
      <trkpt lat="47.60636" lon="-2.49242">
        <ele>52.2</ele>
        <time>2021-08-07T08:39:39Z</time>
      </trkpt>
      <trkpt lat="47.60638" lon="-2.49241">
        <ele>52.2</ele>
        <time>2021-08-07T08:39:40Z</time>
      </trkpt>
      <trkpt lat="47.6064" lon="-2.4924">
        <ele>52.4</ele>
        <time>2021-08-07T08:39:41Z</time>
      </trkpt>
      <trkpt lat="47.60645" lon="-2.49239">
        <ele>52.2</ele>
        <time>2021-08-07T08:39:43Z</time>
      </trkpt>
      <trkpt lat="47.60647" lon="-2.49239">
        <ele>52.2</ele>
        <time>2021-08-07T08:39:44Z</time>
      </trkpt>
      <trkpt lat="47.6065" lon="-2.49238">
        <ele>52.2</ele>
        <time>2021-08-07T08:39:45Z</time>
      </trkpt>
      <trkpt lat="47.60652" lon="-2.49238">
        <ele>52.4</ele>
        <time>2021-08-07T08:39:46Z</time>
      </trkpt>
      <trkpt lat="47.60655" lon="-2.49238">
        <ele>52.4</ele>
        <time>2021-08-07T08:39:47Z</time>
      </trkpt>
      <trkpt lat="47.60657" lon="-2.49237">
        <ele>52.4</ele>
        <time>2021-08-07T08:39:48Z</time>
      </trkpt>
      <trkpt lat="47.6066" lon="-2.49237">
        <ele>52.4</ele>
        <time>2021-08-07T08:39:49Z</time>
      </trkpt>
      <trkpt lat="47.60663" lon="-2.49237">
        <ele>52.6</ele>
        <time>2021-08-07T08:39:50Z</time>
      </trkpt>
      <trkpt lat="47.60665" lon="-2.49237">
        <ele>52.6</ele>
        <time>2021-08-07T08:39:51Z</time>
      </trkpt>
      <trkpt lat="47.60668" lon="-2.49236">
        <ele>52.6</ele>
        <time>2021-08-07T08:39:52Z</time>
      </trkpt>
      <trkpt lat="47.60674" lon="-2.49235">
        <ele>52.6</ele>
        <time>2021-08-07T08:39:54Z</time>
      </trkpt>
      <trkpt lat="47.60678" lon="-2.49235">
        <ele>52.6</ele>
        <time>2021-08-07T08:39:55Z</time>
      </trkpt>
      <trkpt lat="47.60681" lon="-2.49235">
        <ele>52.6</ele>
        <time>2021-08-07T08:39:56Z</time>
      </trkpt>
      <trkpt lat="47.60684" lon="-2.49236">
        <ele>52.6</ele>
        <time>2021-08-07T08:39:57Z</time>
      </trkpt>
      <trkpt lat="47.60687" lon="-2.49236">
        <ele>52.6</ele>
        <time>2021-08-07T08:39:58Z</time>
      </trkpt>
      <trkpt lat="47.60691" lon="-2.49236">
        <ele>52.6</ele>
        <time>2021-08-07T08:39:59Z</time>
      </trkpt>
      <trkpt lat="47.60694" lon="-2.49236">
        <ele>52.6</ele>
        <time>2021-08-07T08:40:00Z</time>
      </trkpt>
      <trkpt lat="47.60698" lon="-2.49237">
        <ele>52.6</ele>
        <time>2021-08-07T08:40:01Z</time>
      </trkpt>
      <trkpt lat="47.60701" lon="-2.49237">
        <ele>52.6</ele>
        <time>2021-08-07T08:40:02Z</time>
      </trkpt>
      <trkpt lat="47.60704" lon="-2.49238">
        <ele>52.6</ele>
        <time>2021-08-07T08:40:03Z</time>
      </trkpt>
      <trkpt lat="47.60711" lon="-2.4924">
        <ele>52.4</ele>
        <time>2021-08-07T08:40:05Z</time>
      </trkpt>
      <trkpt lat="47.60715" lon="-2.49241">
        <ele>52.2</ele>
        <time>2021-08-07T08:40:06Z</time>
      </trkpt>
      <trkpt lat="47.60719" lon="-2.49241">
        <ele>52</ele>
        <time>2021-08-07T08:40:07Z</time>
      </trkpt>
      <trkpt lat="47.60723" lon="-2.49241">
        <ele>51.8</ele>
        <time>2021-08-07T08:40:08Z</time>
      </trkpt>
      <trkpt lat="47.60726" lon="-2.49241">
        <ele>51.8</ele>
        <time>2021-08-07T08:40:09Z</time>
      </trkpt>
      <trkpt lat="47.6073" lon="-2.4924">
        <ele>51.6</ele>
        <time>2021-08-07T08:40:10Z</time>
      </trkpt>
      <trkpt lat="47.60734" lon="-2.4924">
        <ele>51.6</ele>
        <time>2021-08-07T08:40:11Z</time>
      </trkpt>
      <trkpt lat="47.60738" lon="-2.49239">
        <ele>51.4</ele>
        <time>2021-08-07T08:40:12Z</time>
      </trkpt>
      <trkpt lat="47.60742" lon="-2.49238">
        <ele>51.4</ele>
        <time>2021-08-07T08:40:13Z</time>
      </trkpt>
      <trkpt lat="47.60746" lon="-2.49237">
        <ele>51.4</ele>
        <time>2021-08-07T08:40:14Z</time>
      </trkpt>
      <trkpt lat="47.60754" lon="-2.49233">
        <ele>51.4</ele>
        <time>2021-08-07T08:40:16Z</time>
      </trkpt>
      <trkpt lat="47.60758" lon="-2.49231">
        <ele>51.4</ele>
        <time>2021-08-07T08:40:17Z</time>
      </trkpt>
      <trkpt lat="47.60762" lon="-2.49229">
        <ele>51.4</ele>
        <time>2021-08-07T08:40:18Z</time>
      </trkpt>
      <trkpt lat="47.60766" lon="-2.49227">
        <ele>51.4</ele>
        <time>2021-08-07T08:40:19Z</time>
      </trkpt>
      <trkpt lat="47.6077" lon="-2.49225">
        <ele>51.4</ele>
        <time>2021-08-07T08:40:20Z</time>
      </trkpt>
      <trkpt lat="47.60774" lon="-2.49223">
        <ele>51.4</ele>
        <time>2021-08-07T08:40:21Z</time>
      </trkpt>
      <trkpt lat="47.60778" lon="-2.49221">
        <ele>51.8</ele>
        <time>2021-08-07T08:40:22Z</time>
      </trkpt>
      <trkpt lat="47.60782" lon="-2.49219">
        <ele>51.8</ele>
        <time>2021-08-07T08:40:23Z</time>
      </trkpt>
      <trkpt lat="47.60786" lon="-2.49217">
        <ele>52</ele>
        <time>2021-08-07T08:40:24Z</time>
      </trkpt>
      <trkpt lat="47.6079" lon="-2.49215">
        <ele>52</ele>
        <time>2021-08-07T08:40:25Z</time>
      </trkpt>
      <trkpt lat="47.60794" lon="-2.49212">
        <ele>52</ele>
        <time>2021-08-07T08:40:26Z</time>
      </trkpt>
      <trkpt lat="47.60798" lon="-2.4921">
        <ele>52.2</ele>
        <time>2021-08-07T08:40:27Z</time>
      </trkpt>
      <trkpt lat="47.60802" lon="-2.49208">
        <ele>52.2</ele>
        <time>2021-08-07T08:40:28Z</time>
      </trkpt>
      <trkpt lat="47.60807" lon="-2.49206">
        <ele>52.2</ele>
        <time>2021-08-07T08:40:29Z</time>
      </trkpt>
      <trkpt lat="47.60811" lon="-2.49203">
        <ele>52.2</ele>
        <time>2021-08-07T08:40:30Z</time>
      </trkpt>
      <trkpt lat="47.60815" lon="-2.49201">
        <ele>52.2</ele>
        <time>2021-08-07T08:40:31Z</time>
      </trkpt>
      <trkpt lat="47.6082" lon="-2.49199">
        <ele>52.2</ele>
        <time>2021-08-07T08:40:32Z</time>
      </trkpt>
      <trkpt lat="47.60824" lon="-2.49197">
        <ele>52.2</ele>
        <time>2021-08-07T08:40:33Z</time>
      </trkpt>
      <trkpt lat="47.60828" lon="-2.49194">
        <ele>52.2</ele>
        <time>2021-08-07T08:40:34Z</time>
      </trkpt>
      <trkpt lat="47.60833" lon="-2.49192">
        <ele>52.2</ele>
        <time>2021-08-07T08:40:35Z</time>
      </trkpt>
      <trkpt lat="47.60837" lon="-2.49189">
        <ele>52.2</ele>
        <time>2021-08-07T08:40:36Z</time>
      </trkpt>
      <trkpt lat="47.60845" lon="-2.49185">
        <ele>52.2</ele>
        <time>2021-08-07T08:40:38Z</time>
      </trkpt>
      <trkpt lat="47.60849" lon="-2.49182">
        <ele>52</ele>
        <time>2021-08-07T08:40:39Z</time>
      </trkpt>
      <trkpt lat="47.60853" lon="-2.4918">
        <ele>52.2</ele>
        <time>2021-08-07T08:40:40Z</time>
      </trkpt>
      <trkpt lat="47.60857" lon="-2.49177">
        <ele>52.4</ele>
        <time>2021-08-07T08:40:41Z</time>
      </trkpt>
      <trkpt lat="47.60861" lon="-2.49175">
        <ele>52.4</ele>
        <time>2021-08-07T08:40:42Z</time>
      </trkpt>
      <trkpt lat="47.60865" lon="-2.49173">
        <ele>52.2</ele>
        <time>2021-08-07T08:40:43Z</time>
      </trkpt>
      <trkpt lat="47.60868" lon="-2.4917">
        <ele>52.4</ele>
        <time>2021-08-07T08:40:44Z</time>
      </trkpt>
      <trkpt lat="47.60871" lon="-2.49168">
        <ele>52.4</ele>
        <time>2021-08-07T08:40:45Z</time>
      </trkpt>
      <trkpt lat="47.60874" lon="-2.49166">
        <ele>52.4</ele>
        <time>2021-08-07T08:40:46Z</time>
      </trkpt>
      <trkpt lat="47.60877" lon="-2.49164">
        <ele>52.4</ele>
        <time>2021-08-07T08:40:47Z</time>
      </trkpt>
      <trkpt lat="47.60883" lon="-2.49159">
        <ele>52.8</ele>
        <time>2021-08-07T08:40:49Z</time>
      </trkpt>
      <trkpt lat="47.60885" lon="-2.49157">
        <ele>53.2</ele>
        <time>2021-08-07T08:40:50Z</time>
      </trkpt>
      <trkpt lat="47.60887" lon="-2.49155">
        <ele>53.4</ele>
        <time>2021-08-07T08:40:51Z</time>
      </trkpt>
      <trkpt lat="47.60888" lon="-2.49153">
        <ele>53.4</ele>
        <time>2021-08-07T08:40:52Z</time>
      </trkpt>
      <trkpt lat="47.6089" lon="-2.49151">
        <ele>53.6</ele>
        <time>2021-08-07T08:40:53Z</time>
      </trkpt>
      <trkpt lat="47.60892" lon="-2.49149">
        <ele>53.6</ele>
        <time>2021-08-07T08:40:54Z</time>
      </trkpt>
      <trkpt lat="47.60894" lon="-2.49147">
        <ele>53.8</ele>
        <time>2021-08-07T08:40:55Z</time>
      </trkpt>
      <trkpt lat="47.60896" lon="-2.49145">
        <ele>54.4</ele>
        <time>2021-08-07T08:40:56Z</time>
      </trkpt>
      <trkpt lat="47.60898" lon="-2.49143">
        <ele>54.8</ele>
        <time>2021-08-07T08:40:57Z</time>
      </trkpt>
      <trkpt lat="47.609" lon="-2.49141">
        <ele>55</ele>
        <time>2021-08-07T08:40:58Z</time>
      </trkpt>
      <trkpt lat="47.60903" lon="-2.49136">
        <ele>55.4</ele>
        <time>2021-08-07T08:41:00Z</time>
      </trkpt>
      <trkpt lat="47.60905" lon="-2.49134">
        <ele>55.6</ele>
        <time>2021-08-07T08:41:01Z</time>
      </trkpt>
      <trkpt lat="47.60907" lon="-2.49132">
        <ele>55.8</ele>
        <time>2021-08-07T08:41:02Z</time>
      </trkpt>
      <trkpt lat="47.60908" lon="-2.4913">
        <ele>55.8</ele>
        <time>2021-08-07T08:41:03Z</time>
      </trkpt>
      <trkpt lat="47.6091" lon="-2.49129">
        <ele>56</ele>
        <time>2021-08-07T08:41:04Z</time>
      </trkpt>
      <trkpt lat="47.60912" lon="-2.49127">
        <ele>56.2</ele>
        <time>2021-08-07T08:41:05Z</time>
      </trkpt>
      <trkpt lat="47.60914" lon="-2.49125">
        <ele>56.2</ele>
        <time>2021-08-07T08:41:06Z</time>
      </trkpt>
      <trkpt lat="47.60916" lon="-2.49123">
        <ele>56.6</ele>
        <time>2021-08-07T08:41:07Z</time>
      </trkpt>
      <trkpt lat="47.60917" lon="-2.49121">
        <ele>56.6</ele>
        <time>2021-08-07T08:41:08Z</time>
      </trkpt>
      <trkpt lat="47.60919" lon="-2.49118">
        <ele>57</ele>
        <time>2021-08-07T08:41:09Z</time>
      </trkpt>
      <trkpt lat="47.6092" lon="-2.49116">
        <ele>57.2</ele>
        <time>2021-08-07T08:41:10Z</time>
      </trkpt>
      <trkpt lat="47.60922" lon="-2.49114">
        <ele>57.2</ele>
        <time>2021-08-07T08:41:11Z</time>
      </trkpt>
      <trkpt lat="47.60923" lon="-2.49111">
        <ele>57.4</ele>
        <time>2021-08-07T08:41:12Z</time>
      </trkpt>
      <trkpt lat="47.60924" lon="-2.49109">
        <ele>57.6</ele>
        <time>2021-08-07T08:41:13Z</time>
      </trkpt>
      <trkpt lat="47.60925" lon="-2.49106">
        <ele>57.8</ele>
        <time>2021-08-07T08:41:14Z</time>
      </trkpt>
      <trkpt lat="47.60926" lon="-2.49103">
        <ele>58</ele>
        <time>2021-08-07T08:41:15Z</time>
      </trkpt>
      <trkpt lat="47.60927" lon="-2.49101">
        <ele>58.2</ele>
        <time>2021-08-07T08:41:16Z</time>
      </trkpt>
      <trkpt lat="47.60928" lon="-2.491">
        <ele>58.4</ele>
        <time>2021-08-07T08:41:17Z</time>
      </trkpt>
      <trkpt lat="47.6093" lon="-2.49098">
        <ele>58.6</ele>
        <time>2021-08-07T08:41:18Z</time>
      </trkpt>
      <trkpt lat="47.60932" lon="-2.49096">
        <ele>59</ele>
        <time>2021-08-07T08:41:19Z</time>
      </trkpt>
      <trkpt lat="47.60934" lon="-2.49094">
        <ele>59</ele>
        <time>2021-08-07T08:41:20Z</time>
      </trkpt>
      <trkpt lat="47.60936" lon="-2.49092">
        <ele>59.2</ele>
        <time>2021-08-07T08:41:21Z</time>
      </trkpt>
      <trkpt lat="47.60938" lon="-2.49091">
        <ele>59.4</ele>
        <time>2021-08-07T08:41:22Z</time>
      </trkpt>
      <trkpt lat="47.6094" lon="-2.49089">
        <ele>59.6</ele>
        <time>2021-08-07T08:41:23Z</time>
      </trkpt>
      <trkpt lat="47.60941" lon="-2.49086">
        <ele>59.8</ele>
        <time>2021-08-07T08:41:24Z</time>
      </trkpt>
      <trkpt lat="47.60943" lon="-2.49084">
        <ele>59.8</ele>
        <time>2021-08-07T08:41:25Z</time>
      </trkpt>
      <trkpt lat="47.60944" lon="-2.49081">
        <ele>60</ele>
        <time>2021-08-07T08:41:26Z</time>
      </trkpt>
      <trkpt lat="47.60945" lon="-2.49079">
        <ele>60</ele>
        <time>2021-08-07T08:41:27Z</time>
      </trkpt>
      <trkpt lat="47.60947" lon="-2.49077">
        <ele>60.2</ele>
        <time>2021-08-07T08:41:28Z</time>
      </trkpt>
      <trkpt lat="47.60949" lon="-2.49075">
        <ele>60.4</ele>
        <time>2021-08-07T08:41:29Z</time>
      </trkpt>
      <trkpt lat="47.60951" lon="-2.49073">
        <ele>60.4</ele>
        <time>2021-08-07T08:41:30Z</time>
      </trkpt>
      <trkpt lat="47.60953" lon="-2.49071">
        <ele>60.4</ele>
        <time>2021-08-07T08:41:31Z</time>
      </trkpt>
      <trkpt lat="47.60957" lon="-2.49066">
        <ele>60.6</ele>
        <time>2021-08-07T08:41:33Z</time>
      </trkpt>
      <trkpt lat="47.60959" lon="-2.49064">
        <ele>60.8</ele>
        <time>2021-08-07T08:41:34Z</time>
      </trkpt>
      <trkpt lat="47.60961" lon="-2.49062">
        <ele>61</ele>
        <time>2021-08-07T08:41:35Z</time>
      </trkpt>
      <trkpt lat="47.60962" lon="-2.4906">
        <ele>61.2</ele>
        <time>2021-08-07T08:41:36Z</time>
      </trkpt>
      <trkpt lat="47.60964" lon="-2.49058">
        <ele>61.4</ele>
        <time>2021-08-07T08:41:37Z</time>
      </trkpt>
      <trkpt lat="47.60967" lon="-2.49057">
        <ele>61.6</ele>
        <time>2021-08-07T08:41:38Z</time>
      </trkpt>
      <trkpt lat="47.60969" lon="-2.49054">
        <ele>62</ele>
        <time>2021-08-07T08:41:39Z</time>
      </trkpt>
      <trkpt lat="47.60971" lon="-2.49052">
        <ele>62</ele>
        <time>2021-08-07T08:41:40Z</time>
      </trkpt>
      <trkpt lat="47.60974" lon="-2.4905">
        <ele>62.2</ele>
        <time>2021-08-07T08:41:41Z</time>
      </trkpt>
      <trkpt lat="47.60976" lon="-2.49048">
        <ele>62.4</ele>
        <time>2021-08-07T08:41:42Z</time>
      </trkpt>
      <trkpt lat="47.60978" lon="-2.49046">
        <ele>62.2</ele>
        <time>2021-08-07T08:41:43Z</time>
      </trkpt>
      <trkpt lat="47.6098" lon="-2.49044">
        <ele>62.4</ele>
        <time>2021-08-07T08:41:44Z</time>
      </trkpt>
      <trkpt lat="47.60982" lon="-2.49042">
        <ele>62.6</ele>
        <time>2021-08-07T08:41:45Z</time>
      </trkpt>
      <trkpt lat="47.60984" lon="-2.4904">
        <ele>62.6</ele>
        <time>2021-08-07T08:41:46Z</time>
      </trkpt>
      <trkpt lat="47.60986" lon="-2.49038">
        <ele>62.8</ele>
        <time>2021-08-07T08:41:47Z</time>
      </trkpt>
      <trkpt lat="47.60988" lon="-2.49036">
        <ele>63</ele>
        <time>2021-08-07T08:41:48Z</time>
      </trkpt>
      <trkpt lat="47.6099" lon="-2.49033">
        <ele>63.2</ele>
        <time>2021-08-07T08:41:49Z</time>
      </trkpt>
      <trkpt lat="47.60993" lon="-2.49031">
        <ele>63.4</ele>
        <time>2021-08-07T08:41:50Z</time>
      </trkpt>
      <trkpt lat="47.60995" lon="-2.49029">
        <ele>63.6</ele>
        <time>2021-08-07T08:41:51Z</time>
      </trkpt>
      <trkpt lat="47.60997" lon="-2.49026">
        <ele>63.6</ele>
        <time>2021-08-07T08:41:52Z</time>
      </trkpt>
      <trkpt lat="47.60999" lon="-2.49024">
        <ele>63.8</ele>
        <time>2021-08-07T08:41:53Z</time>
      </trkpt>
      <trkpt lat="47.61002" lon="-2.4902">
        <ele>63.8</ele>
        <time>2021-08-07T08:41:55Z</time>
      </trkpt>
      <trkpt lat="47.61004" lon="-2.49017">
        <ele>63.8</ele>
        <time>2021-08-07T08:41:56Z</time>
      </trkpt>
      <trkpt lat="47.61006" lon="-2.49014">
        <ele>64</ele>
        <time>2021-08-07T08:41:57Z</time>
      </trkpt>
      <trkpt lat="47.61008" lon="-2.49012">
        <ele>64</ele>
        <time>2021-08-07T08:41:58Z</time>
      </trkpt>
      <trkpt lat="47.61009" lon="-2.49009">
        <ele>64</ele>
        <time>2021-08-07T08:41:59Z</time>
      </trkpt>
      <trkpt lat="47.61011" lon="-2.49006">
        <ele>64</ele>
        <time>2021-08-07T08:42:00Z</time>
      </trkpt>
      <trkpt lat="47.61012" lon="-2.49003">
        <ele>64</ele>
        <time>2021-08-07T08:42:01Z</time>
      </trkpt>
      <trkpt lat="47.61013" lon="-2.49">
        <ele>64.2</ele>
        <time>2021-08-07T08:42:02Z</time>
      </trkpt>
      <trkpt lat="47.61014" lon="-2.48997">
        <ele>64.2</ele>
        <time>2021-08-07T08:42:03Z</time>
      </trkpt>
      <trkpt lat="47.61014" lon="-2.4899">
        <ele>64.6</ele>
        <time>2021-08-07T08:42:05Z</time>
      </trkpt>
      <trkpt lat="47.61014" lon="-2.48986">
        <ele>64.8</ele>
        <time>2021-08-07T08:42:06Z</time>
      </trkpt>
      <trkpt lat="47.61014" lon="-2.48983">
        <ele>65.2</ele>
        <time>2021-08-07T08:42:07Z</time>
      </trkpt>
      <trkpt lat="47.61014" lon="-2.48979">
        <ele>65.4</ele>
        <time>2021-08-07T08:42:08Z</time>
      </trkpt>
      <trkpt lat="47.61014" lon="-2.48976">
        <ele>65.6</ele>
        <time>2021-08-07T08:42:09Z</time>
      </trkpt>
      <trkpt lat="47.61014" lon="-2.48972">
        <ele>65.8</ele>
        <time>2021-08-07T08:42:10Z</time>
      </trkpt>
      <trkpt lat="47.61014" lon="-2.48968">
        <ele>66</ele>
        <time>2021-08-07T08:42:11Z</time>
      </trkpt>
      <trkpt lat="47.61014" lon="-2.48965">
        <ele>66.2</ele>
        <time>2021-08-07T08:42:12Z</time>
      </trkpt>
      <trkpt lat="47.61014" lon="-2.48961">
        <ele>66.2</ele>
        <time>2021-08-07T08:42:13Z</time>
      </trkpt>
      <trkpt lat="47.61013" lon="-2.48955">
        <ele>66.4</ele>
        <time>2021-08-07T08:42:15Z</time>
      </trkpt>
      <trkpt lat="47.61013" lon="-2.48952">
        <ele>66.4</ele>
        <time>2021-08-07T08:42:16Z</time>
      </trkpt>
      <trkpt lat="47.61012" lon="-2.48949">
        <ele>66.4</ele>
        <time>2021-08-07T08:42:17Z</time>
      </trkpt>
      <trkpt lat="47.61012" lon="-2.48945">
        <ele>66.4</ele>
        <time>2021-08-07T08:42:18Z</time>
      </trkpt>
      <trkpt lat="47.61012" lon="-2.48942">
        <ele>66.6</ele>
        <time>2021-08-07T08:42:19Z</time>
      </trkpt>
      <trkpt lat="47.61011" lon="-2.48939">
        <ele>66.8</ele>
        <time>2021-08-07T08:42:20Z</time>
      </trkpt>
      <trkpt lat="47.61011" lon="-2.48935">
        <ele>67</ele>
        <time>2021-08-07T08:42:21Z</time>
      </trkpt>
      <trkpt lat="47.61011" lon="-2.48932">
        <ele>67</ele>
        <time>2021-08-07T08:42:22Z</time>
      </trkpt>
      <trkpt lat="47.61011" lon="-2.48927">
        <ele>67.2</ele>
        <time>2021-08-07T08:42:23Z</time>
      </trkpt>
      <trkpt lat="47.61011" lon="-2.48923">
        <ele>67.2</ele>
        <time>2021-08-07T08:42:24Z</time>
      </trkpt>
      <trkpt lat="47.6101" lon="-2.48916">
        <ele>67.2</ele>
        <time>2021-08-07T08:42:26Z</time>
      </trkpt>
      <trkpt lat="47.6101" lon="-2.48912">
        <ele>67.4</ele>
        <time>2021-08-07T08:42:27Z</time>
      </trkpt>
      <trkpt lat="47.6101" lon="-2.48908">
        <ele>67.6</ele>
        <time>2021-08-07T08:42:28Z</time>
      </trkpt>
      <trkpt lat="47.6101" lon="-2.48903">
        <ele>67.6</ele>
        <time>2021-08-07T08:42:29Z</time>
      </trkpt>
      <trkpt lat="47.6101" lon="-2.48899">
        <ele>67.8</ele>
        <time>2021-08-07T08:42:30Z</time>
      </trkpt>
      <trkpt lat="47.6101" lon="-2.48894">
        <ele>68</ele>
        <time>2021-08-07T08:42:31Z</time>
      </trkpt>
      <trkpt lat="47.6101" lon="-2.4889">
        <ele>68.2</ele>
        <time>2021-08-07T08:42:32Z</time>
      </trkpt>
      <trkpt lat="47.6101" lon="-2.48886">
        <ele>68.4</ele>
        <time>2021-08-07T08:42:33Z</time>
      </trkpt>
      <trkpt lat="47.61011" lon="-2.48882">
        <ele>68.6</ele>
        <time>2021-08-07T08:42:34Z</time>
      </trkpt>
      <trkpt lat="47.61011" lon="-2.48878">
        <ele>68.8</ele>
        <time>2021-08-07T08:42:35Z</time>
      </trkpt>
      <trkpt lat="47.61013" lon="-2.4887">
        <ele>69</ele>
        <time>2021-08-07T08:42:37Z</time>
      </trkpt>
      <trkpt lat="47.61014" lon="-2.48866">
        <ele>69</ele>
        <time>2021-08-07T08:42:38Z</time>
      </trkpt>
      <trkpt lat="47.61016" lon="-2.48863">
        <ele>69.2</ele>
        <time>2021-08-07T08:42:39Z</time>
      </trkpt>
      <trkpt lat="47.61018" lon="-2.48859">
        <ele>69.2</ele>
        <time>2021-08-07T08:42:40Z</time>
      </trkpt>
      <trkpt lat="47.6102" lon="-2.48856">
        <ele>69.2</ele>
        <time>2021-08-07T08:42:41Z</time>
      </trkpt>
      <trkpt lat="47.61022" lon="-2.48853">
        <ele>69.4</ele>
        <time>2021-08-07T08:42:42Z</time>
      </trkpt>
      <trkpt lat="47.61024" lon="-2.48851">
        <ele>69.6</ele>
        <time>2021-08-07T08:42:43Z</time>
      </trkpt>
      <trkpt lat="47.61027" lon="-2.48849">
        <ele>69.8</ele>
        <time>2021-08-07T08:42:44Z</time>
      </trkpt>
      <trkpt lat="47.6103" lon="-2.48847">
        <ele>69.8</ele>
        <time>2021-08-07T08:42:45Z</time>
      </trkpt>
      <trkpt lat="47.61032" lon="-2.48846">
        <ele>69.8</ele>
        <time>2021-08-07T08:42:46Z</time>
      </trkpt>
      <trkpt lat="47.61038" lon="-2.48843">
        <ele>70</ele>
        <time>2021-08-07T08:42:48Z</time>
      </trkpt>
      <trkpt lat="47.61041" lon="-2.48841">
        <ele>70.2</ele>
        <time>2021-08-07T08:42:49Z</time>
      </trkpt>
      <trkpt lat="47.61044" lon="-2.4884">
        <ele>70.2</ele>
        <time>2021-08-07T08:42:50Z</time>
      </trkpt>
      <trkpt lat="47.61047" lon="-2.48839">
        <ele>70.2</ele>
        <time>2021-08-07T08:42:51Z</time>
      </trkpt>
      <trkpt lat="47.61049" lon="-2.48837">
        <ele>70.4</ele>
        <time>2021-08-07T08:42:52Z</time>
      </trkpt>
      <trkpt lat="47.61052" lon="-2.48835">
        <ele>70.4</ele>
        <time>2021-08-07T08:42:53Z</time>
      </trkpt>
      <trkpt lat="47.61054" lon="-2.48834">
        <ele>70.4</ele>
        <time>2021-08-07T08:42:54Z</time>
      </trkpt>
      <trkpt lat="47.61056" lon="-2.48832">
        <ele>70.4</ele>
        <time>2021-08-07T08:42:55Z</time>
      </trkpt>
      <trkpt lat="47.61059" lon="-2.4883">
        <ele>70.6</ele>
        <time>2021-08-07T08:42:56Z</time>
      </trkpt>
      <trkpt lat="47.61061" lon="-2.48828">
        <ele>70.4</ele>
        <time>2021-08-07T08:42:57Z</time>
      </trkpt>
      <trkpt lat="47.61063" lon="-2.48825">
        <ele>70.4</ele>
        <time>2021-08-07T08:42:58Z</time>
      </trkpt>
      <trkpt lat="47.61065" lon="-2.48823">
        <ele>70.6</ele>
        <time>2021-08-07T08:42:59Z</time>
      </trkpt>
      <trkpt lat="47.61067" lon="-2.48821">
        <ele>70.6</ele>
        <time>2021-08-07T08:43:00Z</time>
      </trkpt>
      <trkpt lat="47.61069" lon="-2.48819">
        <ele>70.6</ele>
        <time>2021-08-07T08:43:01Z</time>
      </trkpt>
      <trkpt lat="47.61071" lon="-2.48817">
        <ele>70.6</ele>
        <time>2021-08-07T08:43:02Z</time>
      </trkpt>
      <trkpt lat="47.61073" lon="-2.48815">
        <ele>70.6</ele>
        <time>2021-08-07T08:43:03Z</time>
      </trkpt>
      <trkpt lat="47.61074" lon="-2.48814">
        <ele>70.6</ele>
        <time>2021-08-07T08:43:04Z</time>
      </trkpt>
      <trkpt lat="47.61075" lon="-2.48816">
        <ele>70.6</ele>
        <time>2021-08-07T08:43:05Z</time>
      </trkpt>
      <trkpt lat="47.61076" lon="-2.48818">
        <ele>70.6</ele>
        <time>2021-08-07T08:43:06Z</time>
      </trkpt>
      <trkpt lat="47.61076" lon="-2.48822">
        <ele>70.6</ele>
        <time>2021-08-07T08:43:07Z</time>
      </trkpt>
      <trkpt lat="47.61076" lon="-2.48824">
        <ele>70.8</ele>
        <time>2021-08-07T08:43:08Z</time>
      </trkpt>
      <trkpt lat="47.61075" lon="-2.48826">
        <ele>70.8</ele>
        <time>2021-08-07T08:43:09Z</time>
      </trkpt>
      <trkpt lat="47.61073" lon="-2.48827">
        <ele>70.8</ele>
        <time>2021-08-07T08:43:10Z</time>
      </trkpt>
      <trkpt lat="47.61072" lon="-2.48827">
        <ele>70.8</ele>
        <time>2021-08-07T08:43:11Z</time>
      </trkpt>
      <trkpt lat="47.6107" lon="-2.48827">
        <ele>70.8</ele>
        <time>2021-08-07T08:43:12Z</time>
      </trkpt>
      <trkpt lat="47.61069" lon="-2.48827">
        <ele>70.8</ele>
        <time>2021-08-07T08:43:13Z</time>
      </trkpt>
      <trkpt lat="47.61068" lon="-2.48827">
        <ele>70.8</ele>
        <time>2021-08-07T08:43:14Z</time>
      </trkpt>
      <trkpt lat="47.61067" lon="-2.48827">
        <ele>71</ele>
        <time>2021-08-07T08:43:15Z</time>
      </trkpt>
      <trkpt lat="47.61066" lon="-2.48826">
        <ele>71</ele>
        <time>2021-08-07T08:43:16Z</time>
      </trkpt>
      <trkpt lat="47.61066" lon="-2.48824">
        <ele>71</ele>
        <time>2021-08-07T08:43:17Z</time>
      </trkpt>
      <trkpt lat="47.61066" lon="-2.48823">
        <ele>71</ele>
        <time>2021-08-07T08:43:18Z</time>
      </trkpt>
      <trkpt lat="47.61067" lon="-2.4882">
        <ele>71.2</ele>
        <time>2021-08-07T08:43:19Z</time>
      </trkpt>
      <trkpt lat="47.6107" lon="-2.48815">
        <ele>71.2</ele>
        <time>2021-08-07T08:43:21Z</time>
      </trkpt>
      <trkpt lat="47.61072" lon="-2.48813">
        <ele>71.2</ele>
        <time>2021-08-07T08:43:22Z</time>
      </trkpt>
      <trkpt lat="47.61075" lon="-2.4881">
        <ele>71.2</ele>
        <time>2021-08-07T08:43:23Z</time>
      </trkpt>
      <trkpt lat="47.61077" lon="-2.48808">
        <ele>71.2</ele>
        <time>2021-08-07T08:43:24Z</time>
      </trkpt>
      <trkpt lat="47.61078" lon="-2.48805">
        <ele>71.4</ele>
        <time>2021-08-07T08:43:25Z</time>
      </trkpt>
      <trkpt lat="47.6108" lon="-2.48803">
        <ele>71.4</ele>
        <time>2021-08-07T08:43:26Z</time>
      </trkpt>
      <trkpt lat="47.61083" lon="-2.488">
        <ele>71.4</ele>
        <time>2021-08-07T08:43:27Z</time>
      </trkpt>
      <trkpt lat="47.61085" lon="-2.48798">
        <ele>71.4</ele>
        <time>2021-08-07T08:43:28Z</time>
      </trkpt>
      <trkpt lat="47.61086" lon="-2.48795">
        <ele>71.4</ele>
        <time>2021-08-07T08:43:29Z</time>
      </trkpt>
      <trkpt lat="47.61088" lon="-2.48793">
        <ele>71.4</ele>
        <time>2021-08-07T08:43:30Z</time>
      </trkpt>
      <trkpt lat="47.61092" lon="-2.48788">
        <ele>71.4</ele>
        <time>2021-08-07T08:43:32Z</time>
      </trkpt>
      <trkpt lat="47.61094" lon="-2.48786">
        <ele>71.4</ele>
        <time>2021-08-07T08:43:33Z</time>
      </trkpt>
      <trkpt lat="47.61096" lon="-2.48784">
        <ele>71.4</ele>
        <time>2021-08-07T08:43:34Z</time>
      </trkpt>
      <trkpt lat="47.61098" lon="-2.48782">
        <ele>71.6</ele>
        <time>2021-08-07T08:43:35Z</time>
      </trkpt>
      <trkpt lat="47.61099" lon="-2.4878">
        <ele>71.6</ele>
        <time>2021-08-07T08:43:36Z</time>
      </trkpt>
      <trkpt lat="47.61101" lon="-2.48778">
        <ele>71.6</ele>
        <time>2021-08-07T08:43:37Z</time>
      </trkpt>
      <trkpt lat="47.61103" lon="-2.48775">
        <ele>71.6</ele>
        <time>2021-08-07T08:43:38Z</time>
      </trkpt>
      <trkpt lat="47.61105" lon="-2.48773">
        <ele>71.6</ele>
        <time>2021-08-07T08:43:39Z</time>
      </trkpt>
      <trkpt lat="47.61107" lon="-2.4877">
        <ele>71.8</ele>
        <time>2021-08-07T08:43:40Z</time>
      </trkpt>
      <trkpt lat="47.6111" lon="-2.48767">
        <ele>71.8</ele>
        <time>2021-08-07T08:43:41Z</time>
      </trkpt>
      <trkpt lat="47.61115" lon="-2.48762">
        <ele>71.8</ele>
        <time>2021-08-07T08:43:43Z</time>
      </trkpt>
      <trkpt lat="47.61118" lon="-2.48758">
        <ele>72</ele>
        <time>2021-08-07T08:43:44Z</time>
      </trkpt>
      <trkpt lat="47.61121" lon="-2.48755">
        <ele>72</ele>
        <time>2021-08-07T08:43:45Z</time>
      </trkpt>
      <trkpt lat="47.61125" lon="-2.48752">
        <ele>72.2</ele>
        <time>2021-08-07T08:43:46Z</time>
      </trkpt>
      <trkpt lat="47.61128" lon="-2.48748">
        <ele>72.2</ele>
        <time>2021-08-07T08:43:47Z</time>
      </trkpt>
      <trkpt lat="47.61131" lon="-2.48745">
        <ele>72.4</ele>
        <time>2021-08-07T08:43:48Z</time>
      </trkpt>
      <trkpt lat="47.61135" lon="-2.48742">
        <ele>72.6</ele>
        <time>2021-08-07T08:43:49Z</time>
      </trkpt>
      <trkpt lat="47.61138" lon="-2.48738">
        <ele>72.6</ele>
        <time>2021-08-07T08:43:50Z</time>
      </trkpt>
      <trkpt lat="47.6114" lon="-2.48734">
        <ele>72.6</ele>
        <time>2021-08-07T08:43:51Z</time>
      </trkpt>
      <trkpt lat="47.61143" lon="-2.48731">
        <ele>72.8</ele>
        <time>2021-08-07T08:43:52Z</time>
      </trkpt>
      <trkpt lat="47.61148" lon="-2.48725">
        <ele>72.8</ele>
        <time>2021-08-07T08:43:54Z</time>
      </trkpt>
      <trkpt lat="47.61151" lon="-2.48721">
        <ele>72.8</ele>
        <time>2021-08-07T08:43:55Z</time>
      </trkpt>
      <trkpt lat="47.61154" lon="-2.48718">
        <ele>72.8</ele>
        <time>2021-08-07T08:43:56Z</time>
      </trkpt>
      <trkpt lat="47.61156" lon="-2.48715">
        <ele>72.8</ele>
        <time>2021-08-07T08:43:57Z</time>
      </trkpt>
      <trkpt lat="47.61159" lon="-2.48712">
        <ele>72.8</ele>
        <time>2021-08-07T08:43:58Z</time>
      </trkpt>
      <trkpt lat="47.61162" lon="-2.48709">
        <ele>73</ele>
        <time>2021-08-07T08:43:59Z</time>
      </trkpt>
      <trkpt lat="47.61166" lon="-2.48706">
        <ele>73</ele>
        <time>2021-08-07T08:44:00Z</time>
      </trkpt>
      <trkpt lat="47.61169" lon="-2.48703">
        <ele>73</ele>
        <time>2021-08-07T08:44:01Z</time>
      </trkpt>
      <trkpt lat="47.61172" lon="-2.487">
        <ele>73.2</ele>
        <time>2021-08-07T08:44:02Z</time>
      </trkpt>
      <trkpt lat="47.61175" lon="-2.48698">
        <ele>73.4</ele>
        <time>2021-08-07T08:44:03Z</time>
      </trkpt>
      <trkpt lat="47.61178" lon="-2.48695">
        <ele>73.4</ele>
        <time>2021-08-07T08:44:04Z</time>
      </trkpt>
      <trkpt lat="47.61182" lon="-2.48692">
        <ele>73.6</ele>
        <time>2021-08-07T08:44:05Z</time>
      </trkpt>
      <trkpt lat="47.61185" lon="-2.4869">
        <ele>73.6</ele>
        <time>2021-08-07T08:44:06Z</time>
      </trkpt>
      <trkpt lat="47.61188" lon="-2.48688">
        <ele>73.6</ele>
        <time>2021-08-07T08:44:07Z</time>
      </trkpt>
      <trkpt lat="47.61192" lon="-2.48686">
        <ele>73.6</ele>
        <time>2021-08-07T08:44:08Z</time>
      </trkpt>
      <trkpt lat="47.61195" lon="-2.48684">
        <ele>73.6</ele>
        <time>2021-08-07T08:44:09Z</time>
      </trkpt>
      <trkpt lat="47.61198" lon="-2.48682">
        <ele>73.6</ele>
        <time>2021-08-07T08:44:10Z</time>
      </trkpt>
      <trkpt lat="47.61201" lon="-2.4868">
        <ele>73.6</ele>
        <time>2021-08-07T08:44:11Z</time>
      </trkpt>
      <trkpt lat="47.61204" lon="-2.48677">
        <ele>73.6</ele>
        <time>2021-08-07T08:44:12Z</time>
      </trkpt>
      <trkpt lat="47.61207" lon="-2.48675">
        <ele>73.8</ele>
        <time>2021-08-07T08:44:13Z</time>
      </trkpt>
      <trkpt lat="47.6121" lon="-2.48673">
        <ele>73.8</ele>
        <time>2021-08-07T08:44:14Z</time>
      </trkpt>
      <trkpt lat="47.61217" lon="-2.48668">
        <ele>74</ele>
        <time>2021-08-07T08:44:16Z</time>
      </trkpt>
      <trkpt lat="47.61221" lon="-2.48665">
        <ele>74.2</ele>
        <time>2021-08-07T08:44:17Z</time>
      </trkpt>
      <trkpt lat="47.61225" lon="-2.48663">
        <ele>74.4</ele>
        <time>2021-08-07T08:44:18Z</time>
      </trkpt>
      <trkpt lat="47.61228" lon="-2.48661">
        <ele>74.4</ele>
        <time>2021-08-07T08:44:19Z</time>
      </trkpt>
      <trkpt lat="47.61232" lon="-2.48658">
        <ele>74.4</ele>
        <time>2021-08-07T08:44:20Z</time>
      </trkpt>
      <trkpt lat="47.61236" lon="-2.48655">
        <ele>74.6</ele>
        <time>2021-08-07T08:44:21Z</time>
      </trkpt>
      <trkpt lat="47.6124" lon="-2.48653">
        <ele>74.6</ele>
        <time>2021-08-07T08:44:22Z</time>
      </trkpt>
      <trkpt lat="47.61244" lon="-2.4865">
        <ele>74.6</ele>
        <time>2021-08-07T08:44:23Z</time>
      </trkpt>
      <trkpt lat="47.61247" lon="-2.48647">
        <ele>74.6</ele>
        <time>2021-08-07T08:44:24Z</time>
      </trkpt>
      <trkpt lat="47.61251" lon="-2.48645">
        <ele>74.8</ele>
        <time>2021-08-07T08:44:25Z</time>
      </trkpt>
      <trkpt lat="47.61258" lon="-2.4864">
        <ele>74.8</ele>
        <time>2021-08-07T08:44:27Z</time>
      </trkpt>
      <trkpt lat="47.61261" lon="-2.48638">
        <ele>74.8</ele>
        <time>2021-08-07T08:44:28Z</time>
      </trkpt>
      <trkpt lat="47.61265" lon="-2.48635">
        <ele>74.8</ele>
        <time>2021-08-07T08:44:29Z</time>
      </trkpt>
      <trkpt lat="47.61268" lon="-2.48633">
        <ele>74.8</ele>
        <time>2021-08-07T08:44:30Z</time>
      </trkpt>
      <trkpt lat="47.61272" lon="-2.4863">
        <ele>75</ele>
        <time>2021-08-07T08:44:31Z</time>
      </trkpt>
      <trkpt lat="47.61275" lon="-2.48628">
        <ele>75</ele>
        <time>2021-08-07T08:44:32Z</time>
      </trkpt>
      <trkpt lat="47.61279" lon="-2.48626">
        <ele>75.2</ele>
        <time>2021-08-07T08:44:33Z</time>
      </trkpt>
      <trkpt lat="47.61282" lon="-2.48623">
        <ele>75</ele>
        <time>2021-08-07T08:44:34Z</time>
      </trkpt>
      <trkpt lat="47.61285" lon="-2.48621">
        <ele>75</ele>
        <time>2021-08-07T08:44:35Z</time>
      </trkpt>
      <trkpt lat="47.61289" lon="-2.48619">
        <ele>75.2</ele>
        <time>2021-08-07T08:44:36Z</time>
      </trkpt>
      <trkpt lat="47.61296" lon="-2.48614">
        <ele>75.2</ele>
        <time>2021-08-07T08:44:38Z</time>
      </trkpt>
      <trkpt lat="47.613" lon="-2.48612">
        <ele>75.2</ele>
        <time>2021-08-07T08:44:39Z</time>
      </trkpt>
      <trkpt lat="47.61304" lon="-2.48609">
        <ele>75.4</ele>
        <time>2021-08-07T08:44:40Z</time>
      </trkpt>
      <trkpt lat="47.61307" lon="-2.48607">
        <ele>75.6</ele>
        <time>2021-08-07T08:44:41Z</time>
      </trkpt>
      <trkpt lat="47.61311" lon="-2.48605">
        <ele>75.8</ele>
        <time>2021-08-07T08:44:42Z</time>
      </trkpt>
      <trkpt lat="47.61315" lon="-2.48602">
        <ele>75.8</ele>
        <time>2021-08-07T08:44:43Z</time>
      </trkpt>
      <trkpt lat="47.61318" lon="-2.486">
        <ele>76</ele>
        <time>2021-08-07T08:44:44Z</time>
      </trkpt>
      <trkpt lat="47.61322" lon="-2.48598">
        <ele>76.2</ele>
        <time>2021-08-07T08:44:45Z</time>
      </trkpt>
      <trkpt lat="47.61325" lon="-2.48596">
        <ele>76.2</ele>
        <time>2021-08-07T08:44:46Z</time>
      </trkpt>
      <trkpt lat="47.61328" lon="-2.48594">
        <ele>76.4</ele>
        <time>2021-08-07T08:44:47Z</time>
      </trkpt>
      <trkpt lat="47.61335" lon="-2.48589">
        <ele>76.4</ele>
        <time>2021-08-07T08:44:49Z</time>
      </trkpt>
      <trkpt lat="47.61338" lon="-2.48587">
        <ele>76.6</ele>
        <time>2021-08-07T08:44:50Z</time>
      </trkpt>
      <trkpt lat="47.61341" lon="-2.48585">
        <ele>76.6</ele>
        <time>2021-08-07T08:44:51Z</time>
      </trkpt>
      <trkpt lat="47.61345" lon="-2.48583">
        <ele>76.6</ele>
        <time>2021-08-07T08:44:52Z</time>
      </trkpt>
      <trkpt lat="47.61348" lon="-2.48581">
        <ele>76.6</ele>
        <time>2021-08-07T08:44:53Z</time>
      </trkpt>
      <trkpt lat="47.61352" lon="-2.48579">
        <ele>76.6</ele>
        <time>2021-08-07T08:44:54Z</time>
      </trkpt>
      <trkpt lat="47.61356" lon="-2.48576">
        <ele>76.6</ele>
        <time>2021-08-07T08:44:55Z</time>
      </trkpt>
      <trkpt lat="47.6136" lon="-2.48573">
        <ele>76.6</ele>
        <time>2021-08-07T08:44:56Z</time>
      </trkpt>
      <trkpt lat="47.61364" lon="-2.4857">
        <ele>76.6</ele>
        <time>2021-08-07T08:44:57Z</time>
      </trkpt>
      <trkpt lat="47.61368" lon="-2.48567">
        <ele>76.6</ele>
        <time>2021-08-07T08:44:58Z</time>
      </trkpt>
      <trkpt lat="47.61375" lon="-2.48559">
        <ele>76.8</ele>
        <time>2021-08-07T08:45:00Z</time>
      </trkpt>
      <trkpt lat="47.61379" lon="-2.48556">
        <ele>76.8</ele>
        <time>2021-08-07T08:45:01Z</time>
      </trkpt>
      <trkpt lat="47.61387" lon="-2.48548">
        <ele>76.8</ele>
        <time>2021-08-07T08:45:03Z</time>
      </trkpt>
      <trkpt lat="47.61391" lon="-2.48543">
        <ele>76.8</ele>
        <time>2021-08-07T08:45:04Z</time>
      </trkpt>
      <trkpt lat="47.61394" lon="-2.48538">
        <ele>76.6</ele>
        <time>2021-08-07T08:45:05Z</time>
      </trkpt>
      <trkpt lat="47.61398" lon="-2.48534">
        <ele>76.6</ele>
        <time>2021-08-07T08:45:06Z</time>
      </trkpt>
      <trkpt lat="47.61402" lon="-2.48529">
        <ele>76.6</ele>
        <time>2021-08-07T08:45:07Z</time>
      </trkpt>
      <trkpt lat="47.61406" lon="-2.48525">
        <ele>76.6</ele>
        <time>2021-08-07T08:45:08Z</time>
      </trkpt>
      <trkpt lat="47.6141" lon="-2.4852">
        <ele>76.6</ele>
        <time>2021-08-07T08:45:09Z</time>
      </trkpt>
      <trkpt lat="47.61414" lon="-2.48515">
        <ele>76.6</ele>
        <time>2021-08-07T08:45:10Z</time>
      </trkpt>
      <trkpt lat="47.61418" lon="-2.48511">
        <ele>76.6</ele>
        <time>2021-08-07T08:45:11Z</time>
      </trkpt>
      <trkpt lat="47.61422" lon="-2.48506">
        <ele>76.6</ele>
        <time>2021-08-07T08:45:12Z</time>
      </trkpt>
      <trkpt lat="47.61426" lon="-2.48501">
        <ele>76.6</ele>
        <time>2021-08-07T08:45:13Z</time>
      </trkpt>
      <trkpt lat="47.61434" lon="-2.48491">
        <ele>77</ele>
        <time>2021-08-07T08:45:15Z</time>
      </trkpt>
      <trkpt lat="47.61438" lon="-2.48486">
        <ele>77.2</ele>
        <time>2021-08-07T08:45:16Z</time>
      </trkpt>
      <trkpt lat="47.61443" lon="-2.48481">
        <ele>77.4</ele>
        <time>2021-08-07T08:45:17Z</time>
      </trkpt>
      <trkpt lat="47.61447" lon="-2.48476">
        <ele>77.4</ele>
        <time>2021-08-07T08:45:18Z</time>
      </trkpt>
      <trkpt lat="47.61451" lon="-2.48471">
        <ele>77.4</ele>
        <time>2021-08-07T08:45:19Z</time>
      </trkpt>
      <trkpt lat="47.61456" lon="-2.48466">
        <ele>77.4</ele>
        <time>2021-08-07T08:45:20Z</time>
      </trkpt>
      <trkpt lat="47.6146" lon="-2.48461">
        <ele>77.4</ele>
        <time>2021-08-07T08:45:21Z</time>
      </trkpt>
      <trkpt lat="47.61465" lon="-2.48457">
        <ele>77.4</ele>
        <time>2021-08-07T08:45:22Z</time>
      </trkpt>
      <trkpt lat="47.61469" lon="-2.48452">
        <ele>77.4</ele>
        <time>2021-08-07T08:45:23Z</time>
      </trkpt>
      <trkpt lat="47.61474" lon="-2.48447">
        <ele>77.4</ele>
        <time>2021-08-07T08:45:24Z</time>
      </trkpt>
      <trkpt lat="47.61482" lon="-2.48435">
        <ele>77.4</ele>
        <time>2021-08-07T08:45:26Z</time>
      </trkpt>
      <trkpt lat="47.61486" lon="-2.4843">
        <ele>77.6</ele>
        <time>2021-08-07T08:45:27Z</time>
      </trkpt>
      <trkpt lat="47.61491" lon="-2.48425">
        <ele>77.6</ele>
        <time>2021-08-07T08:45:28Z</time>
      </trkpt>
      <trkpt lat="47.61495" lon="-2.4842">
        <ele>77.6</ele>
        <time>2021-08-07T08:45:29Z</time>
      </trkpt>
      <trkpt lat="47.615" lon="-2.48415">
        <ele>77.2</ele>
        <time>2021-08-07T08:45:30Z</time>
      </trkpt>
      <trkpt lat="47.61505" lon="-2.48411">
        <ele>77.2</ele>
        <time>2021-08-07T08:45:31Z</time>
      </trkpt>
      <trkpt lat="47.61509" lon="-2.48407">
        <ele>77.2</ele>
        <time>2021-08-07T08:45:32Z</time>
      </trkpt>
      <trkpt lat="47.61514" lon="-2.48403">
        <ele>77.2</ele>
        <time>2021-08-07T08:45:33Z</time>
      </trkpt>
      <trkpt lat="47.61519" lon="-2.48399">
        <ele>77.2</ele>
        <time>2021-08-07T08:45:34Z</time>
      </trkpt>
      <trkpt lat="47.61524" lon="-2.48396">
        <ele>77</ele>
        <time>2021-08-07T08:45:35Z</time>
      </trkpt>
      <trkpt lat="47.61535" lon="-2.48389">
        <ele>77</ele>
        <time>2021-08-07T08:45:37Z</time>
      </trkpt>
      <trkpt lat="47.6154" lon="-2.48386">
        <ele>77</ele>
        <time>2021-08-07T08:45:38Z</time>
      </trkpt>
      <trkpt lat="47.61546" lon="-2.48384">
        <ele>77</ele>
        <time>2021-08-07T08:45:39Z</time>
      </trkpt>
      <trkpt lat="47.61551" lon="-2.48382">
        <ele>77</ele>
        <time>2021-08-07T08:45:40Z</time>
      </trkpt>
      <trkpt lat="47.61557" lon="-2.4838">
        <ele>77</ele>
        <time>2021-08-07T08:45:41Z</time>
      </trkpt>
      <trkpt lat="47.61562" lon="-2.48378">
        <ele>77</ele>
        <time>2021-08-07T08:45:42Z</time>
      </trkpt>
      <trkpt lat="47.61568" lon="-2.48376">
        <ele>77.2</ele>
        <time>2021-08-07T08:45:43Z</time>
      </trkpt>
      <trkpt lat="47.61573" lon="-2.48374">
        <ele>77.2</ele>
        <time>2021-08-07T08:45:44Z</time>
      </trkpt>
      <trkpt lat="47.61579" lon="-2.48372">
        <ele>77.2</ele>
        <time>2021-08-07T08:45:45Z</time>
      </trkpt>
      <trkpt lat="47.61584" lon="-2.4837">
        <ele>77</ele>
        <time>2021-08-07T08:45:46Z</time>
      </trkpt>
      <trkpt lat="47.61595" lon="-2.48366">
        <ele>77.2</ele>
        <time>2021-08-07T08:45:48Z</time>
      </trkpt>
      <trkpt lat="47.616" lon="-2.48364">
        <ele>77.2</ele>
        <time>2021-08-07T08:45:49Z</time>
      </trkpt>
      <trkpt lat="47.61605" lon="-2.48363">
        <ele>77.2</ele>
        <time>2021-08-07T08:45:50Z</time>
      </trkpt>
      <trkpt lat="47.6161" lon="-2.48361">
        <ele>77.2</ele>
        <time>2021-08-07T08:45:51Z</time>
      </trkpt>
      <trkpt lat="47.61616" lon="-2.48359">
        <ele>77.2</ele>
        <time>2021-08-07T08:45:52Z</time>
      </trkpt>
      <trkpt lat="47.61621" lon="-2.48357">
        <ele>77.2</ele>
        <time>2021-08-07T08:45:53Z</time>
      </trkpt>
      <trkpt lat="47.61626" lon="-2.48356">
        <ele>77.2</ele>
        <time>2021-08-07T08:45:54Z</time>
      </trkpt>
      <trkpt lat="47.61631" lon="-2.48354">
        <ele>77.2</ele>
        <time>2021-08-07T08:45:55Z</time>
      </trkpt>
      <trkpt lat="47.61637" lon="-2.48352">
        <ele>77.4</ele>
        <time>2021-08-07T08:45:56Z</time>
      </trkpt>
      <trkpt lat="47.61642" lon="-2.48351">
        <ele>77.4</ele>
        <time>2021-08-07T08:45:57Z</time>
      </trkpt>
      <trkpt lat="47.61652" lon="-2.48347">
        <ele>77.6</ele>
        <time>2021-08-07T08:45:59Z</time>
      </trkpt>
      <trkpt lat="47.61657" lon="-2.48345">
        <ele>77.8</ele>
        <time>2021-08-07T08:46:00Z</time>
      </trkpt>
      <trkpt lat="47.61661" lon="-2.48344">
        <ele>77.8</ele>
        <time>2021-08-07T08:46:01Z</time>
      </trkpt>
      <trkpt lat="47.61666" lon="-2.48342">
        <ele>77.8</ele>
        <time>2021-08-07T08:46:02Z</time>
      </trkpt>
      <trkpt lat="47.6167" lon="-2.48341">
        <ele>78</ele>
        <time>2021-08-07T08:46:03Z</time>
      </trkpt>
      <trkpt lat="47.61675" lon="-2.4834">
        <ele>78</ele>
        <time>2021-08-07T08:46:04Z</time>
      </trkpt>
      <trkpt lat="47.6168" lon="-2.48339">
        <ele>78</ele>
        <time>2021-08-07T08:46:05Z</time>
      </trkpt>
      <trkpt lat="47.61684" lon="-2.48338">
        <ele>78.2</ele>
        <time>2021-08-07T08:46:06Z</time>
      </trkpt>
      <trkpt lat="47.61689" lon="-2.48337">
        <ele>78.2</ele>
        <time>2021-08-07T08:46:07Z</time>
      </trkpt>
      <trkpt lat="47.61693" lon="-2.48336">
        <ele>78.4</ele>
        <time>2021-08-07T08:46:08Z</time>
      </trkpt>
      <trkpt lat="47.61698" lon="-2.48336">
        <ele>78.2</ele>
        <time>2021-08-07T08:46:09Z</time>
      </trkpt>
      <trkpt lat="47.61703" lon="-2.48335">
        <ele>78.4</ele>
        <time>2021-08-07T08:46:10Z</time>
      </trkpt>
      <trkpt lat="47.61707" lon="-2.48334">
        <ele>78.4</ele>
        <time>2021-08-07T08:46:11Z</time>
      </trkpt>
      <trkpt lat="47.61712" lon="-2.48334">
        <ele>78.4</ele>
        <time>2021-08-07T08:46:12Z</time>
      </trkpt>
      <trkpt lat="47.61717" lon="-2.48333">
        <ele>78.4</ele>
        <time>2021-08-07T08:46:13Z</time>
      </trkpt>
      <trkpt lat="47.61721" lon="-2.48333">
        <ele>78.4</ele>
        <time>2021-08-07T08:46:14Z</time>
      </trkpt>
      <trkpt lat="47.61726" lon="-2.48333">
        <ele>78.4</ele>
        <time>2021-08-07T08:46:15Z</time>
      </trkpt>
      <trkpt lat="47.61731" lon="-2.48332">
        <ele>78.4</ele>
        <time>2021-08-07T08:46:16Z</time>
      </trkpt>
      <trkpt lat="47.61735" lon="-2.48332">
        <ele>78.6</ele>
        <time>2021-08-07T08:46:17Z</time>
      </trkpt>
      <trkpt lat="47.61744" lon="-2.4833">
        <ele>78.6</ele>
        <time>2021-08-07T08:46:19Z</time>
      </trkpt>
      <trkpt lat="47.61749" lon="-2.48328">
        <ele>78.6</ele>
        <time>2021-08-07T08:46:20Z</time>
      </trkpt>
      <trkpt lat="47.61753" lon="-2.48326">
        <ele>78.8</ele>
        <time>2021-08-07T08:46:21Z</time>
      </trkpt>
      <trkpt lat="47.61758" lon="-2.48324">
        <ele>78.8</ele>
        <time>2021-08-07T08:46:22Z</time>
      </trkpt>
      <trkpt lat="47.61763" lon="-2.48322">
        <ele>79</ele>
        <time>2021-08-07T08:46:23Z</time>
      </trkpt>
      <trkpt lat="47.61767" lon="-2.4832">
        <ele>79.2</ele>
        <time>2021-08-07T08:46:24Z</time>
      </trkpt>
      <trkpt lat="47.61772" lon="-2.48317">
        <ele>79.2</ele>
        <time>2021-08-07T08:46:25Z</time>
      </trkpt>
      <trkpt lat="47.61776" lon="-2.48314">
        <ele>79.2</ele>
        <time>2021-08-07T08:46:26Z</time>
      </trkpt>
      <trkpt lat="47.61781" lon="-2.48311">
        <ele>79.2</ele>
        <time>2021-08-07T08:46:27Z</time>
      </trkpt>
      <trkpt lat="47.61789" lon="-2.48304">
        <ele>79.4</ele>
        <time>2021-08-07T08:46:29Z</time>
      </trkpt>
      <trkpt lat="47.61794" lon="-2.483">
        <ele>79.4</ele>
        <time>2021-08-07T08:46:30Z</time>
      </trkpt>
      <trkpt lat="47.61798" lon="-2.48297">
        <ele>79.4</ele>
        <time>2021-08-07T08:46:31Z</time>
      </trkpt>
      <trkpt lat="47.61802" lon="-2.48293">
        <ele>79.4</ele>
        <time>2021-08-07T08:46:32Z</time>
      </trkpt>
      <trkpt lat="47.61807" lon="-2.4829">
        <ele>79.4</ele>
        <time>2021-08-07T08:46:33Z</time>
      </trkpt>
      <trkpt lat="47.61811" lon="-2.48287">
        <ele>79.4</ele>
        <time>2021-08-07T08:46:34Z</time>
      </trkpt>
      <trkpt lat="47.61815" lon="-2.48284">
        <ele>79.4</ele>
        <time>2021-08-07T08:46:35Z</time>
      </trkpt>
      <trkpt lat="47.6182" lon="-2.48281">
        <ele>79.4</ele>
        <time>2021-08-07T08:46:36Z</time>
      </trkpt>
      <trkpt lat="47.61824" lon="-2.48278">
        <ele>79.4</ele>
        <time>2021-08-07T08:46:37Z</time>
      </trkpt>
      <trkpt lat="47.61828" lon="-2.48275">
        <ele>79.4</ele>
        <time>2021-08-07T08:46:38Z</time>
      </trkpt>
      <trkpt lat="47.61833" lon="-2.48272">
        <ele>79.4</ele>
        <time>2021-08-07T08:46:39Z</time>
      </trkpt>
      <trkpt lat="47.61841" lon="-2.48266">
        <ele>79.4</ele>
        <time>2021-08-07T08:46:41Z</time>
      </trkpt>
      <trkpt lat="47.61846" lon="-2.48263">
        <ele>79.4</ele>
        <time>2021-08-07T08:46:42Z</time>
      </trkpt>
      <trkpt lat="47.6185" lon="-2.4826">
        <ele>79.4</ele>
        <time>2021-08-07T08:46:43Z</time>
      </trkpt>
      <trkpt lat="47.61854" lon="-2.48257">
        <ele>79.6</ele>
        <time>2021-08-07T08:46:44Z</time>
      </trkpt>
      <trkpt lat="47.61859" lon="-2.48254">
        <ele>79.6</ele>
        <time>2021-08-07T08:46:45Z</time>
      </trkpt>
      <trkpt lat="47.61863" lon="-2.48252">
        <ele>79.6</ele>
        <time>2021-08-07T08:46:46Z</time>
      </trkpt>
      <trkpt lat="47.61868" lon="-2.4825">
        <ele>79.6</ele>
        <time>2021-08-07T08:46:47Z</time>
      </trkpt>
      <trkpt lat="47.61872" lon="-2.48247">
        <ele>79.6</ele>
        <time>2021-08-07T08:46:48Z</time>
      </trkpt>
      <trkpt lat="47.61876" lon="-2.48245">
        <ele>79.6</ele>
        <time>2021-08-07T08:46:49Z</time>
      </trkpt>
      <trkpt lat="47.61885" lon="-2.48241">
        <ele>79.8</ele>
        <time>2021-08-07T08:46:51Z</time>
      </trkpt>
      <trkpt lat="47.6189" lon="-2.48239">
        <ele>79.8</ele>
        <time>2021-08-07T08:46:52Z</time>
      </trkpt>
      <trkpt lat="47.61894" lon="-2.48236">
        <ele>79.8</ele>
        <time>2021-08-07T08:46:53Z</time>
      </trkpt>
      <trkpt lat="47.61898" lon="-2.48234">
        <ele>79.8</ele>
        <time>2021-08-07T08:46:54Z</time>
      </trkpt>
      <trkpt lat="47.61903" lon="-2.48232">
        <ele>79.8</ele>
        <time>2021-08-07T08:46:55Z</time>
      </trkpt>
      <trkpt lat="47.61907" lon="-2.4823">
        <ele>80</ele>
        <time>2021-08-07T08:46:56Z</time>
      </trkpt>
      <trkpt lat="47.61911" lon="-2.48227">
        <ele>80</ele>
        <time>2021-08-07T08:46:57Z</time>
      </trkpt>
      <trkpt lat="47.61915" lon="-2.48225">
        <ele>80.2</ele>
        <time>2021-08-07T08:46:58Z</time>
      </trkpt>
      <trkpt lat="47.6192" lon="-2.48222">
        <ele>80.2</ele>
        <time>2021-08-07T08:46:59Z</time>
      </trkpt>
      <trkpt lat="47.61924" lon="-2.4822">
        <ele>80.2</ele>
        <time>2021-08-07T08:47:00Z</time>
      </trkpt>
      <trkpt lat="47.61928" lon="-2.48218">
        <ele>80.4</ele>
        <time>2021-08-07T08:47:01Z</time>
      </trkpt>
      <trkpt lat="47.61937" lon="-2.48214">
        <ele>80.4</ele>
        <time>2021-08-07T08:47:03Z</time>
      </trkpt>
      <trkpt lat="47.61941" lon="-2.48212">
        <ele>80.6</ele>
        <time>2021-08-07T08:47:04Z</time>
      </trkpt>
      <trkpt lat="47.61945" lon="-2.4821">
        <ele>80.6</ele>
        <time>2021-08-07T08:47:05Z</time>
      </trkpt>
      <trkpt lat="47.61949" lon="-2.48208">
        <ele>80.8</ele>
        <time>2021-08-07T08:47:06Z</time>
      </trkpt>
      <trkpt lat="47.61952" lon="-2.48206">
        <ele>80.8</ele>
        <time>2021-08-07T08:47:07Z</time>
      </trkpt>
      <trkpt lat="47.61956" lon="-2.48204">
        <ele>80.8</ele>
        <time>2021-08-07T08:47:08Z</time>
      </trkpt>
      <trkpt lat="47.61959" lon="-2.48202">
        <ele>81</ele>
        <time>2021-08-07T08:47:09Z</time>
      </trkpt>
      <trkpt lat="47.61963" lon="-2.482">
        <ele>81</ele>
        <time>2021-08-07T08:47:10Z</time>
      </trkpt>
      <trkpt lat="47.61966" lon="-2.48198">
        <ele>81</ele>
        <time>2021-08-07T08:47:11Z</time>
      </trkpt>
      <trkpt lat="47.61969" lon="-2.48196">
        <ele>81</ele>
        <time>2021-08-07T08:47:12Z</time>
      </trkpt>
      <trkpt lat="47.61976" lon="-2.48192">
        <ele>81</ele>
        <time>2021-08-07T08:47:14Z</time>
      </trkpt>
      <trkpt lat="47.61979" lon="-2.4819">
        <ele>81.2</ele>
        <time>2021-08-07T08:47:15Z</time>
      </trkpt>
      <trkpt lat="47.61983" lon="-2.48187">
        <ele>81.2</ele>
        <time>2021-08-07T08:47:16Z</time>
      </trkpt>
      <trkpt lat="47.61986" lon="-2.48185">
        <ele>81.2</ele>
        <time>2021-08-07T08:47:17Z</time>
      </trkpt>
      <trkpt lat="47.61989" lon="-2.48183">
        <ele>81.2</ele>
        <time>2021-08-07T08:47:18Z</time>
      </trkpt>
      <trkpt lat="47.61992" lon="-2.4818">
        <ele>81.2</ele>
        <time>2021-08-07T08:47:19Z</time>
      </trkpt>
      <trkpt lat="47.61996" lon="-2.48178">
        <ele>81.2</ele>
        <time>2021-08-07T08:47:20Z</time>
      </trkpt>
      <trkpt lat="47.61999" lon="-2.48175">
        <ele>81.2</ele>
        <time>2021-08-07T08:47:21Z</time>
      </trkpt>
      <trkpt lat="47.62002" lon="-2.48173">
        <ele>81.2</ele>
        <time>2021-08-07T08:47:22Z</time>
      </trkpt>
      <trkpt lat="47.62009" lon="-2.48168">
        <ele>81.2</ele>
        <time>2021-08-07T08:47:24Z</time>
      </trkpt>
      <trkpt lat="47.62012" lon="-2.48165">
        <ele>81.2</ele>
        <time>2021-08-07T08:47:25Z</time>
      </trkpt>
      <trkpt lat="47.62015" lon="-2.48163">
        <ele>81.2</ele>
        <time>2021-08-07T08:47:26Z</time>
      </trkpt>
      <trkpt lat="47.62018" lon="-2.48161">
        <ele>81.2</ele>
        <time>2021-08-07T08:47:27Z</time>
      </trkpt>
      <trkpt lat="47.62021" lon="-2.48158">
        <ele>81</ele>
        <time>2021-08-07T08:47:28Z</time>
      </trkpt>
      <trkpt lat="47.62024" lon="-2.48155">
        <ele>81</ele>
        <time>2021-08-07T08:47:29Z</time>
      </trkpt>
      <trkpt lat="47.62027" lon="-2.48153">
        <ele>81</ele>
        <time>2021-08-07T08:47:30Z</time>
      </trkpt>
      <trkpt lat="47.6203" lon="-2.4815">
        <ele>81</ele>
        <time>2021-08-07T08:47:31Z</time>
      </trkpt>
      <trkpt lat="47.62033" lon="-2.48148">
        <ele>81</ele>
        <time>2021-08-07T08:47:32Z</time>
      </trkpt>
      <trkpt lat="47.62036" lon="-2.48145">
        <ele>81</ele>
        <time>2021-08-07T08:47:33Z</time>
      </trkpt>
      <trkpt lat="47.62042" lon="-2.48139">
        <ele>81</ele>
        <time>2021-08-07T08:47:35Z</time>
      </trkpt>
      <trkpt lat="47.62045" lon="-2.48137">
        <ele>81</ele>
        <time>2021-08-07T08:47:36Z</time>
      </trkpt>
      <trkpt lat="47.62048" lon="-2.48134">
        <ele>81</ele>
        <time>2021-08-07T08:47:37Z</time>
      </trkpt>
      <trkpt lat="47.62051" lon="-2.48132">
        <ele>81</ele>
        <time>2021-08-07T08:47:38Z</time>
      </trkpt>
      <trkpt lat="47.62054" lon="-2.4813">
        <ele>80.8</ele>
        <time>2021-08-07T08:47:39Z</time>
      </trkpt>
      <trkpt lat="47.62057" lon="-2.48127">
        <ele>80.8</ele>
        <time>2021-08-07T08:47:40Z</time>
      </trkpt>
      <trkpt lat="47.6206" lon="-2.48124">
        <ele>80.8</ele>
        <time>2021-08-07T08:47:41Z</time>
      </trkpt>
      <trkpt lat="47.62063" lon="-2.48121">
        <ele>80.8</ele>
        <time>2021-08-07T08:47:42Z</time>
      </trkpt>
      <trkpt lat="47.62066" lon="-2.48118">
        <ele>80.8</ele>
        <time>2021-08-07T08:47:43Z</time>
      </trkpt>
      <trkpt lat="47.62068" lon="-2.48116">
        <ele>80.8</ele>
        <time>2021-08-07T08:47:44Z</time>
      </trkpt>
      <trkpt lat="47.62074" lon="-2.48109">
        <ele>80.8</ele>
        <time>2021-08-07T08:47:46Z</time>
      </trkpt>
      <trkpt lat="47.62077" lon="-2.48106">
        <ele>80.8</ele>
        <time>2021-08-07T08:47:47Z</time>
      </trkpt>
      <trkpt lat="47.6208" lon="-2.48104">
        <ele>80.8</ele>
        <time>2021-08-07T08:47:48Z</time>
      </trkpt>
      <trkpt lat="47.62083" lon="-2.48101">
        <ele>80.8</ele>
        <time>2021-08-07T08:47:49Z</time>
      </trkpt>
      <trkpt lat="47.62086" lon="-2.48099">
        <ele>80.6</ele>
        <time>2021-08-07T08:47:50Z</time>
      </trkpt>
      <trkpt lat="47.62089" lon="-2.48096">
        <ele>80.6</ele>
        <time>2021-08-07T08:47:51Z</time>
      </trkpt>
      <trkpt lat="47.62092" lon="-2.48093">
        <ele>80.6</ele>
        <time>2021-08-07T08:47:52Z</time>
      </trkpt>
      <trkpt lat="47.62095" lon="-2.4809">
        <ele>80.6</ele>
        <time>2021-08-07T08:47:53Z</time>
      </trkpt>
      <trkpt lat="47.62098" lon="-2.48087">
        <ele>80.4</ele>
        <time>2021-08-07T08:47:54Z</time>
      </trkpt>
      <trkpt lat="47.62101" lon="-2.48084">
        <ele>80.4</ele>
        <time>2021-08-07T08:47:55Z</time>
      </trkpt>
      <trkpt lat="47.62104" lon="-2.48081">
        <ele>80.4</ele>
        <time>2021-08-07T08:47:56Z</time>
      </trkpt>
      <trkpt lat="47.62109" lon="-2.48074">
        <ele>80.4</ele>
        <time>2021-08-07T08:47:58Z</time>
      </trkpt>
      <trkpt lat="47.62112" lon="-2.48071">
        <ele>80.2</ele>
        <time>2021-08-07T08:47:59Z</time>
      </trkpt>
      <trkpt lat="47.62115" lon="-2.48068">
        <ele>80.2</ele>
        <time>2021-08-07T08:48:00Z</time>
      </trkpt>
      <trkpt lat="47.62118" lon="-2.48065">
        <ele>80</ele>
        <time>2021-08-07T08:48:01Z</time>
      </trkpt>
      <trkpt lat="47.62121" lon="-2.48062">
        <ele>80</ele>
        <time>2021-08-07T08:48:02Z</time>
      </trkpt>
      <trkpt lat="47.62124" lon="-2.4806">
        <ele>80</ele>
        <time>2021-08-07T08:48:03Z</time>
      </trkpt>
      <trkpt lat="47.62126" lon="-2.48058">
        <ele>80</ele>
        <time>2021-08-07T08:48:04Z</time>
      </trkpt>
      <trkpt lat="47.62129" lon="-2.48055">
        <ele>79.8</ele>
        <time>2021-08-07T08:48:05Z</time>
      </trkpt>
      <trkpt lat="47.62132" lon="-2.48053">
        <ele>79.8</ele>
        <time>2021-08-07T08:48:06Z</time>
      </trkpt>
      <trkpt lat="47.62135" lon="-2.4805">
        <ele>79.8</ele>
        <time>2021-08-07T08:48:07Z</time>
      </trkpt>
      <trkpt lat="47.62137" lon="-2.48047">
        <ele>79.8</ele>
        <time>2021-08-07T08:48:08Z</time>
      </trkpt>
      <trkpt lat="47.6214" lon="-2.48044">
        <ele>79.8</ele>
        <time>2021-08-07T08:48:09Z</time>
      </trkpt>
      <trkpt lat="47.62143" lon="-2.48041">
        <ele>79.8</ele>
        <time>2021-08-07T08:48:10Z</time>
      </trkpt>
      <trkpt lat="47.62147" lon="-2.48037">
        <ele>79.6</ele>
        <time>2021-08-07T08:48:11Z</time>
      </trkpt>
      <trkpt lat="47.6215" lon="-2.48034">
        <ele>79.6</ele>
        <time>2021-08-07T08:48:12Z</time>
      </trkpt>
      <trkpt lat="47.62153" lon="-2.4803">
        <ele>79.6</ele>
        <time>2021-08-07T08:48:13Z</time>
      </trkpt>
      <trkpt lat="47.62157" lon="-2.48027">
        <ele>79.6</ele>
        <time>2021-08-07T08:48:14Z</time>
      </trkpt>
      <trkpt lat="47.62161" lon="-2.48023">
        <ele>79.6</ele>
        <time>2021-08-07T08:48:15Z</time>
      </trkpt>
      <trkpt lat="47.62165" lon="-2.4802">
        <ele>79.6</ele>
        <time>2021-08-07T08:48:16Z</time>
      </trkpt>
      <trkpt lat="47.62168" lon="-2.48016">
        <ele>79.4</ele>
        <time>2021-08-07T08:48:17Z</time>
      </trkpt>
      <trkpt lat="47.62172" lon="-2.48012">
        <ele>79.4</ele>
        <time>2021-08-07T08:48:18Z</time>
      </trkpt>
      <trkpt lat="47.62179" lon="-2.48005">
        <ele>79.4</ele>
        <time>2021-08-07T08:48:20Z</time>
      </trkpt>
      <trkpt lat="47.62182" lon="-2.48001">
        <ele>79.4</ele>
        <time>2021-08-07T08:48:21Z</time>
      </trkpt>
      <trkpt lat="47.62186" lon="-2.47998">
        <ele>79.4</ele>
        <time>2021-08-07T08:48:22Z</time>
      </trkpt>
      <trkpt lat="47.62189" lon="-2.47994">
        <ele>79.4</ele>
        <time>2021-08-07T08:48:23Z</time>
      </trkpt>
      <trkpt lat="47.62193" lon="-2.47991">
        <ele>79.4</ele>
        <time>2021-08-07T08:48:24Z</time>
      </trkpt>
      <trkpt lat="47.62196" lon="-2.47988">
        <ele>79.4</ele>
        <time>2021-08-07T08:48:25Z</time>
      </trkpt>
      <trkpt lat="47.62199" lon="-2.47985">
        <ele>79.2</ele>
        <time>2021-08-07T08:48:26Z</time>
      </trkpt>
      <trkpt lat="47.62203" lon="-2.47982">
        <ele>79.4</ele>
        <time>2021-08-07T08:48:27Z</time>
      </trkpt>
      <trkpt lat="47.62206" lon="-2.47979">
        <ele>79.4</ele>
        <time>2021-08-07T08:48:28Z</time>
      </trkpt>
      <trkpt lat="47.62209" lon="-2.47976">
        <ele>79.4</ele>
        <time>2021-08-07T08:48:29Z</time>
      </trkpt>
      <trkpt lat="47.62214" lon="-2.4797">
        <ele>79.4</ele>
        <time>2021-08-07T08:48:31Z</time>
      </trkpt>
      <trkpt lat="47.62217" lon="-2.47968">
        <ele>79.4</ele>
        <time>2021-08-07T08:48:32Z</time>
      </trkpt>
      <trkpt lat="47.6222" lon="-2.47966">
        <ele>79.4</ele>
        <time>2021-08-07T08:48:33Z</time>
      </trkpt>
      <trkpt lat="47.62222" lon="-2.47964">
        <ele>79.4</ele>
        <time>2021-08-07T08:48:34Z</time>
      </trkpt>
      <trkpt lat="47.62224" lon="-2.47961">
        <ele>79.4</ele>
        <time>2021-08-07T08:48:35Z</time>
      </trkpt>
      <trkpt lat="47.62225" lon="-2.47958">
        <ele>79.6</ele>
        <time>2021-08-07T08:48:36Z</time>
      </trkpt>
      <trkpt lat="47.62226" lon="-2.47955">
        <ele>79.6</ele>
        <time>2021-08-07T08:48:37Z</time>
      </trkpt>
      <trkpt lat="47.62227" lon="-2.47952">
        <ele>79.8</ele>
        <time>2021-08-07T08:48:38Z</time>
      </trkpt>
      <trkpt lat="47.62229" lon="-2.4795">
        <ele>79.8</ele>
        <time>2021-08-07T08:48:39Z</time>
      </trkpt>
      <trkpt lat="47.6223" lon="-2.47948">
        <ele>80</ele>
        <time>2021-08-07T08:48:40Z</time>
      </trkpt>
      <trkpt lat="47.62233" lon="-2.47947">
        <ele>80.2</ele>
        <time>2021-08-07T08:48:42Z</time>
      </trkpt>
      <trkpt lat="47.62234" lon="-2.47946">
        <ele>80.2</ele>
        <time>2021-08-07T08:48:43Z</time>
      </trkpt>
      <trkpt lat="47.62236" lon="-2.47945">
        <ele>80.2</ele>
        <time>2021-08-07T08:48:44Z</time>
      </trkpt>
      <trkpt lat="47.62238" lon="-2.47945">
        <ele>80.4</ele>
        <time>2021-08-07T08:48:45Z</time>
      </trkpt>
      <trkpt lat="47.6224" lon="-2.47943">
        <ele>80.6</ele>
        <time>2021-08-07T08:48:46Z</time>
      </trkpt>
      <trkpt lat="47.62242" lon="-2.47941">
        <ele>80.6</ele>
        <time>2021-08-07T08:48:47Z</time>
      </trkpt>
      <trkpt lat="47.62244" lon="-2.47939">
        <ele>80.6</ele>
        <time>2021-08-07T08:48:48Z</time>
      </trkpt>
      <trkpt lat="47.62247" lon="-2.47936">
        <ele>80.6</ele>
        <time>2021-08-07T08:48:49Z</time>
      </trkpt>
      <trkpt lat="47.6225" lon="-2.47934">
        <ele>80.6</ele>
        <time>2021-08-07T08:48:50Z</time>
      </trkpt>
      <trkpt lat="47.62252" lon="-2.47931">
        <ele>80.6</ele>
        <time>2021-08-07T08:48:51Z</time>
      </trkpt>
      <trkpt lat="47.62258" lon="-2.47925">
        <ele>80.6</ele>
        <time>2021-08-07T08:48:53Z</time>
      </trkpt>
      <trkpt lat="47.62261" lon="-2.47922">
        <ele>80.6</ele>
        <time>2021-08-07T08:48:54Z</time>
      </trkpt>
      <trkpt lat="47.62265" lon="-2.47919">
        <ele>80.6</ele>
        <time>2021-08-07T08:48:55Z</time>
      </trkpt>
      <trkpt lat="47.62268" lon="-2.47916">
        <ele>80.6</ele>
        <time>2021-08-07T08:48:56Z</time>
      </trkpt>
      <trkpt lat="47.62271" lon="-2.47913">
        <ele>80.6</ele>
        <time>2021-08-07T08:48:57Z</time>
      </trkpt>
      <trkpt lat="47.62275" lon="-2.47909">
        <ele>80.6</ele>
        <time>2021-08-07T08:48:58Z</time>
      </trkpt>
      <trkpt lat="47.62278" lon="-2.47906">
        <ele>80.6</ele>
        <time>2021-08-07T08:48:59Z</time>
      </trkpt>
      <trkpt lat="47.62281" lon="-2.47902">
        <ele>80.6</ele>
        <time>2021-08-07T08:49:00Z</time>
      </trkpt>
      <trkpt lat="47.62285" lon="-2.47899">
        <ele>80.6</ele>
        <time>2021-08-07T08:49:01Z</time>
      </trkpt>
      <trkpt lat="47.62288" lon="-2.47895">
        <ele>80.6</ele>
        <time>2021-08-07T08:49:02Z</time>
      </trkpt>
      <trkpt lat="47.62292" lon="-2.47892">
        <ele>80.6</ele>
        <time>2021-08-07T08:49:03Z</time>
      </trkpt>
      <trkpt lat="47.62295" lon="-2.47889">
        <ele>80.6</ele>
        <time>2021-08-07T08:49:04Z</time>
      </trkpt>
      <trkpt lat="47.62299" lon="-2.47885">
        <ele>80.6</ele>
        <time>2021-08-07T08:49:05Z</time>
      </trkpt>
      <trkpt lat="47.62302" lon="-2.47882">
        <ele>80.6</ele>
        <time>2021-08-07T08:49:06Z</time>
      </trkpt>
      <trkpt lat="47.62306" lon="-2.47878">
        <ele>80.6</ele>
        <time>2021-08-07T08:49:07Z</time>
      </trkpt>
      <trkpt lat="47.62309" lon="-2.47875">
        <ele>80.6</ele>
        <time>2021-08-07T08:49:08Z</time>
      </trkpt>
      <trkpt lat="47.62313" lon="-2.47871">
        <ele>80.8</ele>
        <time>2021-08-07T08:49:09Z</time>
      </trkpt>
      <trkpt lat="47.62317" lon="-2.47867">
        <ele>80.8</ele>
        <time>2021-08-07T08:49:10Z</time>
      </trkpt>
      <trkpt lat="47.62321" lon="-2.47863">
        <ele>80.8</ele>
        <time>2021-08-07T08:49:11Z</time>
      </trkpt>
      <trkpt lat="47.62324" lon="-2.4786">
        <ele>80.8</ele>
        <time>2021-08-07T08:49:12Z</time>
      </trkpt>
      <trkpt lat="47.62328" lon="-2.47856">
        <ele>80.8</ele>
        <time>2021-08-07T08:49:13Z</time>
      </trkpt>
      <trkpt lat="47.62332" lon="-2.47852">
        <ele>80.8</ele>
        <time>2021-08-07T08:49:14Z</time>
      </trkpt>
      <trkpt lat="47.62336" lon="-2.47848">
        <ele>80.8</ele>
        <time>2021-08-07T08:49:15Z</time>
      </trkpt>
      <trkpt lat="47.6234" lon="-2.47844">
        <ele>81</ele>
        <time>2021-08-07T08:49:16Z</time>
      </trkpt>
      <trkpt lat="47.62344" lon="-2.4784">
        <ele>81</ele>
        <time>2021-08-07T08:49:17Z</time>
      </trkpt>
      <trkpt lat="47.62348" lon="-2.47836">
        <ele>81</ele>
        <time>2021-08-07T08:49:18Z</time>
      </trkpt>
      <trkpt lat="47.62352" lon="-2.47832">
        <ele>81</ele>
        <time>2021-08-07T08:49:19Z</time>
      </trkpt>
      <trkpt lat="47.62356" lon="-2.47828">
        <ele>81</ele>
        <time>2021-08-07T08:49:20Z</time>
      </trkpt>
      <trkpt lat="47.6236" lon="-2.47823">
        <ele>81</ele>
        <time>2021-08-07T08:49:21Z</time>
      </trkpt>
      <trkpt lat="47.62364" lon="-2.4782">
        <ele>81</ele>
        <time>2021-08-07T08:49:22Z</time>
      </trkpt>
      <trkpt lat="47.62369" lon="-2.47816">
        <ele>81</ele>
        <time>2021-08-07T08:49:23Z</time>
      </trkpt>
      <trkpt lat="47.62373" lon="-2.47812">
        <ele>81</ele>
        <time>2021-08-07T08:49:24Z</time>
      </trkpt>
      <trkpt lat="47.62377" lon="-2.47808">
        <ele>81</ele>
        <time>2021-08-07T08:49:25Z</time>
      </trkpt>
      <trkpt lat="47.62381" lon="-2.47804">
        <ele>80.8</ele>
        <time>2021-08-07T08:49:26Z</time>
      </trkpt>
      <trkpt lat="47.62385" lon="-2.478">
        <ele>81.2</ele>
        <time>2021-08-07T08:49:27Z</time>
      </trkpt>
      <trkpt lat="47.62389" lon="-2.47795">
        <ele>81.2</ele>
        <time>2021-08-07T08:49:28Z</time>
      </trkpt>
      <trkpt lat="47.62393" lon="-2.47791">
        <ele>81</ele>
        <time>2021-08-07T08:49:29Z</time>
      </trkpt>
      <trkpt lat="47.62397" lon="-2.47787">
        <ele>81</ele>
        <time>2021-08-07T08:49:30Z</time>
      </trkpt>
      <trkpt lat="47.62401" lon="-2.47783">
        <ele>81</ele>
        <time>2021-08-07T08:49:31Z</time>
      </trkpt>
      <trkpt lat="47.62405" lon="-2.47779">
        <ele>81.4</ele>
        <time>2021-08-07T08:49:32Z</time>
      </trkpt>
      <trkpt lat="47.62409" lon="-2.47775">
        <ele>81.4</ele>
        <time>2021-08-07T08:49:33Z</time>
      </trkpt>
      <trkpt lat="47.62413" lon="-2.47771">
        <ele>81.4</ele>
        <time>2021-08-07T08:49:34Z</time>
      </trkpt>
      <trkpt lat="47.62417" lon="-2.47767">
        <ele>81.6</ele>
        <time>2021-08-07T08:49:35Z</time>
      </trkpt>
      <trkpt lat="47.62421" lon="-2.47763">
        <ele>81.6</ele>
        <time>2021-08-07T08:49:36Z</time>
      </trkpt>
      <trkpt lat="47.62425" lon="-2.47759">
        <ele>81.6</ele>
        <time>2021-08-07T08:49:37Z</time>
      </trkpt>
      <trkpt lat="47.62429" lon="-2.47755">
        <ele>81.6</ele>
        <time>2021-08-07T08:49:38Z</time>
      </trkpt>
      <trkpt lat="47.62433" lon="-2.47751">
        <ele>81.6</ele>
        <time>2021-08-07T08:49:39Z</time>
      </trkpt>
      <trkpt lat="47.62437" lon="-2.47747">
        <ele>81.6</ele>
        <time>2021-08-07T08:49:40Z</time>
      </trkpt>
      <trkpt lat="47.6244" lon="-2.47743">
        <ele>81.6</ele>
        <time>2021-08-07T08:49:41Z</time>
      </trkpt>
      <trkpt lat="47.62444" lon="-2.47739">
        <ele>81.6</ele>
        <time>2021-08-07T08:49:42Z</time>
      </trkpt>
      <trkpt lat="47.62447" lon="-2.47735">
        <ele>81.6</ele>
        <time>2021-08-07T08:49:43Z</time>
      </trkpt>
      <trkpt lat="47.6245" lon="-2.47731">
        <ele>81.6</ele>
        <time>2021-08-07T08:49:44Z</time>
      </trkpt>
      <trkpt lat="47.62453" lon="-2.47726">
        <ele>81.6</ele>
        <time>2021-08-07T08:49:45Z</time>
      </trkpt>
      <trkpt lat="47.62459" lon="-2.47718">
        <ele>81.8</ele>
        <time>2021-08-07T08:49:47Z</time>
      </trkpt>
      <trkpt lat="47.62462" lon="-2.47714">
        <ele>81.8</ele>
        <time>2021-08-07T08:49:48Z</time>
      </trkpt>
      <trkpt lat="47.62465" lon="-2.4771">
        <ele>81.8</ele>
        <time>2021-08-07T08:49:49Z</time>
      </trkpt>
      <trkpt lat="47.62468" lon="-2.47706">
        <ele>81.8</ele>
        <time>2021-08-07T08:49:50Z</time>
      </trkpt>
      <trkpt lat="47.62471" lon="-2.47702">
        <ele>81.8</ele>
        <time>2021-08-07T08:49:51Z</time>
      </trkpt>
      <trkpt lat="47.62475" lon="-2.47697">
        <ele>81.8</ele>
        <time>2021-08-07T08:49:52Z</time>
      </trkpt>
      <trkpt lat="47.62478" lon="-2.47692">
        <ele>81.8</ele>
        <time>2021-08-07T08:49:53Z</time>
      </trkpt>
      <trkpt lat="47.62481" lon="-2.47687">
        <ele>81.8</ele>
        <time>2021-08-07T08:49:54Z</time>
      </trkpt>
      <trkpt lat="47.62484" lon="-2.47681">
        <ele>82</ele>
        <time>2021-08-07T08:49:55Z</time>
      </trkpt>
      <trkpt lat="47.62488" lon="-2.47676">
        <ele>82</ele>
        <time>2021-08-07T08:49:56Z</time>
      </trkpt>
      <trkpt lat="47.62494" lon="-2.47664">
        <ele>82.2</ele>
        <time>2021-08-07T08:49:58Z</time>
      </trkpt>
      <trkpt lat="47.62498" lon="-2.47659">
        <ele>82.2</ele>
        <time>2021-08-07T08:49:59Z</time>
      </trkpt>
      <trkpt lat="47.62501" lon="-2.47654">
        <ele>82.4</ele>
        <time>2021-08-07T08:50:00Z</time>
      </trkpt>
      <trkpt lat="47.62505" lon="-2.47649">
        <ele>82.4</ele>
        <time>2021-08-07T08:50:01Z</time>
      </trkpt>
      <trkpt lat="47.62508" lon="-2.47644">
        <ele>82.4</ele>
        <time>2021-08-07T08:50:02Z</time>
      </trkpt>
      <trkpt lat="47.62511" lon="-2.47639">
        <ele>82.6</ele>
        <time>2021-08-07T08:50:03Z</time>
      </trkpt>
      <trkpt lat="47.62515" lon="-2.47633">
        <ele>82.6</ele>
        <time>2021-08-07T08:50:04Z</time>
      </trkpt>
      <trkpt lat="47.62518" lon="-2.47628">
        <ele>82.6</ele>
        <time>2021-08-07T08:50:05Z</time>
      </trkpt>
      <trkpt lat="47.62521" lon="-2.47623">
        <ele>82.6</ele>
        <time>2021-08-07T08:50:06Z</time>
      </trkpt>
      <trkpt lat="47.62525" lon="-2.47617">
        <ele>82.6</ele>
        <time>2021-08-07T08:50:07Z</time>
      </trkpt>
      <trkpt lat="47.62528" lon="-2.47612">
        <ele>82.6</ele>
        <time>2021-08-07T08:50:08Z</time>
      </trkpt>
      <trkpt lat="47.62531" lon="-2.47607">
        <ele>82.6</ele>
        <time>2021-08-07T08:50:09Z</time>
      </trkpt>
      <trkpt lat="47.62533" lon="-2.47601">
        <ele>82.8</ele>
        <time>2021-08-07T08:50:10Z</time>
      </trkpt>
      <trkpt lat="47.62536" lon="-2.47596">
        <ele>82.8</ele>
        <time>2021-08-07T08:50:11Z</time>
      </trkpt>
      <trkpt lat="47.62539" lon="-2.47591">
        <ele>82.8</ele>
        <time>2021-08-07T08:50:12Z</time>
      </trkpt>
      <trkpt lat="47.62542" lon="-2.47586">
        <ele>82.8</ele>
        <time>2021-08-07T08:50:13Z</time>
      </trkpt>
      <trkpt lat="47.62546" lon="-2.47581">
        <ele>82.8</ele>
        <time>2021-08-07T08:50:14Z</time>
      </trkpt>
      <trkpt lat="47.62549" lon="-2.47576">
        <ele>82.8</ele>
        <time>2021-08-07T08:50:15Z</time>
      </trkpt>
      <trkpt lat="47.62552" lon="-2.47571">
        <ele>82.8</ele>
        <time>2021-08-07T08:50:16Z</time>
      </trkpt>
      <trkpt lat="47.62555" lon="-2.47567">
        <ele>82.8</ele>
        <time>2021-08-07T08:50:17Z</time>
      </trkpt>
      <trkpt lat="47.62557" lon="-2.47562">
        <ele>83</ele>
        <time>2021-08-07T08:50:18Z</time>
      </trkpt>
      <trkpt lat="47.6256" lon="-2.47557">
        <ele>83</ele>
        <time>2021-08-07T08:50:19Z</time>
      </trkpt>
      <trkpt lat="47.62566" lon="-2.47548">
        <ele>83</ele>
        <time>2021-08-07T08:50:21Z</time>
      </trkpt>
      <trkpt lat="47.62568" lon="-2.47544">
        <ele>83</ele>
        <time>2021-08-07T08:50:22Z</time>
      </trkpt>
      <trkpt lat="47.62571" lon="-2.4754">
        <ele>83</ele>
        <time>2021-08-07T08:50:23Z</time>
      </trkpt>
      <trkpt lat="47.62573" lon="-2.47535">
        <ele>83</ele>
        <time>2021-08-07T08:50:24Z</time>
      </trkpt>
      <trkpt lat="47.62576" lon="-2.47531">
        <ele>83</ele>
        <time>2021-08-07T08:50:25Z</time>
      </trkpt>
      <trkpt lat="47.62578" lon="-2.47527">
        <ele>83</ele>
        <time>2021-08-07T08:50:26Z</time>
      </trkpt>
      <trkpt lat="47.62581" lon="-2.47522">
        <ele>83.2</ele>
        <time>2021-08-07T08:50:27Z</time>
      </trkpt>
      <trkpt lat="47.62583" lon="-2.47517">
        <ele>83.2</ele>
        <time>2021-08-07T08:50:28Z</time>
      </trkpt>
      <trkpt lat="47.62586" lon="-2.47513">
        <ele>83.2</ele>
        <time>2021-08-07T08:50:29Z</time>
      </trkpt>
      <trkpt lat="47.62592" lon="-2.47504">
        <ele>83.6</ele>
        <time>2021-08-07T08:50:31Z</time>
      </trkpt>
      <trkpt lat="47.62595" lon="-2.475">
        <ele>84</ele>
        <time>2021-08-07T08:50:32Z</time>
      </trkpt>
      <trkpt lat="47.62598" lon="-2.47495">
        <ele>84.2</ele>
        <time>2021-08-07T08:50:33Z</time>
      </trkpt>
      <trkpt lat="47.626" lon="-2.4749">
        <ele>84.2</ele>
        <time>2021-08-07T08:50:34Z</time>
      </trkpt>
      <trkpt lat="47.62604" lon="-2.47485">
        <ele>84.4</ele>
        <time>2021-08-07T08:50:35Z</time>
      </trkpt>
      <trkpt lat="47.62606" lon="-2.4748">
        <ele>84.6</ele>
        <time>2021-08-07T08:50:36Z</time>
      </trkpt>
      <trkpt lat="47.62609" lon="-2.47476">
        <ele>84.8</ele>
        <time>2021-08-07T08:50:37Z</time>
      </trkpt>
      <trkpt lat="47.62612" lon="-2.47471">
        <ele>84.6</ele>
        <time>2021-08-07T08:50:38Z</time>
      </trkpt>
      <trkpt lat="47.62615" lon="-2.47467">
        <ele>84.8</ele>
        <time>2021-08-07T08:50:39Z</time>
      </trkpt>
      <trkpt lat="47.62618" lon="-2.47462">
        <ele>84.8</ele>
        <time>2021-08-07T08:50:40Z</time>
      </trkpt>
      <trkpt lat="47.62623" lon="-2.47453">
        <ele>84.8</ele>
        <time>2021-08-07T08:50:42Z</time>
      </trkpt>
      <trkpt lat="47.62626" lon="-2.47448">
        <ele>84.8</ele>
        <time>2021-08-07T08:50:43Z</time>
      </trkpt>
      <trkpt lat="47.62629" lon="-2.47443">
        <ele>85</ele>
        <time>2021-08-07T08:50:44Z</time>
      </trkpt>
      <trkpt lat="47.62632" lon="-2.47438">
        <ele>85</ele>
        <time>2021-08-07T08:50:45Z</time>
      </trkpt>
      <trkpt lat="47.62635" lon="-2.47433">
        <ele>85</ele>
        <time>2021-08-07T08:50:46Z</time>
      </trkpt>
      <trkpt lat="47.62638" lon="-2.47429">
        <ele>85.2</ele>
        <time>2021-08-07T08:50:47Z</time>
      </trkpt>
      <trkpt lat="47.62641" lon="-2.47424">
        <ele>85.2</ele>
        <time>2021-08-07T08:50:48Z</time>
      </trkpt>
      <trkpt lat="47.62644" lon="-2.47419">
        <ele>85.2</ele>
        <time>2021-08-07T08:50:49Z</time>
      </trkpt>
      <trkpt lat="47.62646" lon="-2.47415">
        <ele>85.2</ele>
        <time>2021-08-07T08:50:50Z</time>
      </trkpt>
      <trkpt lat="47.62649" lon="-2.4741">
        <ele>85.2</ele>
        <time>2021-08-07T08:50:51Z</time>
      </trkpt>
      <trkpt lat="47.62654" lon="-2.474">
        <ele>85.2</ele>
        <time>2021-08-07T08:50:53Z</time>
      </trkpt>
      <trkpt lat="47.62657" lon="-2.47396">
        <ele>85.2</ele>
        <time>2021-08-07T08:50:54Z</time>
      </trkpt>
      <trkpt lat="47.6266" lon="-2.47391">
        <ele>85.4</ele>
        <time>2021-08-07T08:50:55Z</time>
      </trkpt>
      <trkpt lat="47.62663" lon="-2.47386">
        <ele>85.4</ele>
        <time>2021-08-07T08:50:56Z</time>
      </trkpt>
      <trkpt lat="47.62665" lon="-2.47382">
        <ele>85.4</ele>
        <time>2021-08-07T08:50:57Z</time>
      </trkpt>
      <trkpt lat="47.62668" lon="-2.47377">
        <ele>85.4</ele>
        <time>2021-08-07T08:50:58Z</time>
      </trkpt>
      <trkpt lat="47.62671" lon="-2.47372">
        <ele>85.6</ele>
        <time>2021-08-07T08:50:59Z</time>
      </trkpt>
      <trkpt lat="47.62674" lon="-2.47367">
        <ele>85.6</ele>
        <time>2021-08-07T08:51:00Z</time>
      </trkpt>
      <trkpt lat="47.62677" lon="-2.47363">
        <ele>85.6</ele>
        <time>2021-08-07T08:51:01Z</time>
      </trkpt>
      <trkpt lat="47.6268" lon="-2.47358">
        <ele>85.6</ele>
        <time>2021-08-07T08:51:02Z</time>
      </trkpt>
      <trkpt lat="47.62685" lon="-2.47349">
        <ele>85.8</ele>
        <time>2021-08-07T08:51:04Z</time>
      </trkpt>
      <trkpt lat="47.62688" lon="-2.47344">
        <ele>85.8</ele>
        <time>2021-08-07T08:51:05Z</time>
      </trkpt>
      <trkpt lat="47.62691" lon="-2.47339">
        <ele>85.8</ele>
        <time>2021-08-07T08:51:06Z</time>
      </trkpt>
      <trkpt lat="47.62694" lon="-2.47335">
        <ele>85.8</ele>
        <time>2021-08-07T08:51:07Z</time>
      </trkpt>
      <trkpt lat="47.62696" lon="-2.4733">
        <ele>85.8</ele>
        <time>2021-08-07T08:51:08Z</time>
      </trkpt>
      <trkpt lat="47.62699" lon="-2.47325">
        <ele>85.8</ele>
        <time>2021-08-07T08:51:09Z</time>
      </trkpt>
      <trkpt lat="47.62702" lon="-2.4732">
        <ele>85.8</ele>
        <time>2021-08-07T08:51:10Z</time>
      </trkpt>
      <trkpt lat="47.62705" lon="-2.47315">
        <ele>86</ele>
        <time>2021-08-07T08:51:11Z</time>
      </trkpt>
      <trkpt lat="47.62708" lon="-2.47311">
        <ele>86</ele>
        <time>2021-08-07T08:51:12Z</time>
      </trkpt>
      <trkpt lat="47.62711" lon="-2.47306">
        <ele>86</ele>
        <time>2021-08-07T08:51:13Z</time>
      </trkpt>
      <trkpt lat="47.62717" lon="-2.47296">
        <ele>86.2</ele>
        <time>2021-08-07T08:51:15Z</time>
      </trkpt>
      <trkpt lat="47.62719" lon="-2.47291">
        <ele>86.2</ele>
        <time>2021-08-07T08:51:16Z</time>
      </trkpt>
      <trkpt lat="47.62722" lon="-2.47287">
        <ele>86.2</ele>
        <time>2021-08-07T08:51:17Z</time>
      </trkpt>
      <trkpt lat="47.62725" lon="-2.47282">
        <ele>86.2</ele>
        <time>2021-08-07T08:51:18Z</time>
      </trkpt>
      <trkpt lat="47.62728" lon="-2.47277">
        <ele>86.2</ele>
        <time>2021-08-07T08:51:19Z</time>
      </trkpt>
      <trkpt lat="47.6273" lon="-2.47273">
        <ele>86.4</ele>
        <time>2021-08-07T08:51:20Z</time>
      </trkpt>
      <trkpt lat="47.62733" lon="-2.47268">
        <ele>86.4</ele>
        <time>2021-08-07T08:51:21Z</time>
      </trkpt>
      <trkpt lat="47.62736" lon="-2.47263">
        <ele>86.4</ele>
        <time>2021-08-07T08:51:22Z</time>
      </trkpt>
      <trkpt lat="47.62739" lon="-2.47259">
        <ele>86.2</ele>
        <time>2021-08-07T08:51:23Z</time>
      </trkpt>
      <trkpt lat="47.62742" lon="-2.47254">
        <ele>86.2</ele>
        <time>2021-08-07T08:51:24Z</time>
      </trkpt>
      <trkpt lat="47.62747" lon="-2.47244">
        <ele>86.2</ele>
        <time>2021-08-07T08:51:26Z</time>
      </trkpt>
      <trkpt lat="47.6275" lon="-2.47239">
        <ele>86.2</ele>
        <time>2021-08-07T08:51:27Z</time>
      </trkpt>
      <trkpt lat="47.62753" lon="-2.47234">
        <ele>86.2</ele>
        <time>2021-08-07T08:51:28Z</time>
      </trkpt>
      <trkpt lat="47.62756" lon="-2.4723">
        <ele>86.2</ele>
        <time>2021-08-07T08:51:29Z</time>
      </trkpt>
      <trkpt lat="47.62759" lon="-2.47225">
        <ele>86.2</ele>
        <time>2021-08-07T08:51:30Z</time>
      </trkpt>
      <trkpt lat="47.62762" lon="-2.4722">
        <ele>86.4</ele>
        <time>2021-08-07T08:51:31Z</time>
      </trkpt>
      <trkpt lat="47.62765" lon="-2.47216">
        <ele>86.4</ele>
        <time>2021-08-07T08:51:32Z</time>
      </trkpt>
      <trkpt lat="47.62769" lon="-2.47212">
        <ele>86.4</ele>
        <time>2021-08-07T08:51:33Z</time>
      </trkpt>
      <trkpt lat="47.62772" lon="-2.47207">
        <ele>86.4</ele>
        <time>2021-08-07T08:51:34Z</time>
      </trkpt>
      <trkpt lat="47.62776" lon="-2.47203">
        <ele>86.4</ele>
        <time>2021-08-07T08:51:35Z</time>
      </trkpt>
      <trkpt lat="47.62783" lon="-2.47195">
        <ele>86.6</ele>
        <time>2021-08-07T08:51:37Z</time>
      </trkpt>
      <trkpt lat="47.62786" lon="-2.47192">
        <ele>86.8</ele>
        <time>2021-08-07T08:51:38Z</time>
      </trkpt>
      <trkpt lat="47.6279" lon="-2.47189">
        <ele>86.8</ele>
        <time>2021-08-07T08:51:39Z</time>
      </trkpt>
      <trkpt lat="47.62793" lon="-2.47186">
        <ele>86.8</ele>
        <time>2021-08-07T08:51:40Z</time>
      </trkpt>
      <trkpt lat="47.62797" lon="-2.47183">
        <ele>87</ele>
        <time>2021-08-07T08:51:41Z</time>
      </trkpt>
      <trkpt lat="47.62801" lon="-2.47181">
        <ele>87</ele>
        <time>2021-08-07T08:51:42Z</time>
      </trkpt>
      <trkpt lat="47.62806" lon="-2.47178">
        <ele>87</ele>
        <time>2021-08-07T08:51:43Z</time>
      </trkpt>
      <trkpt lat="47.6281" lon="-2.47175">
        <ele>87</ele>
        <time>2021-08-07T08:51:44Z</time>
      </trkpt>
      <trkpt lat="47.62814" lon="-2.47173">
        <ele>87</ele>
        <time>2021-08-07T08:51:45Z</time>
      </trkpt>
      <trkpt lat="47.62819" lon="-2.4717">
        <ele>87</ele>
        <time>2021-08-07T08:51:46Z</time>
      </trkpt>
      <trkpt lat="47.62827" lon="-2.47165">
        <ele>87</ele>
        <time>2021-08-07T08:51:48Z</time>
      </trkpt>
      <trkpt lat="47.62831" lon="-2.47162">
        <ele>87</ele>
        <time>2021-08-07T08:51:49Z</time>
      </trkpt>
      <trkpt lat="47.62835" lon="-2.4716">
        <ele>87</ele>
        <time>2021-08-07T08:51:50Z</time>
      </trkpt>
      <trkpt lat="47.62839" lon="-2.47157">
        <ele>87</ele>
        <time>2021-08-07T08:51:51Z</time>
      </trkpt>
      <trkpt lat="47.62843" lon="-2.47155">
        <ele>87</ele>
        <time>2021-08-07T08:51:52Z</time>
      </trkpt>
      <trkpt lat="47.62847" lon="-2.47152">
        <ele>87</ele>
        <time>2021-08-07T08:51:53Z</time>
      </trkpt>
      <trkpt lat="47.62851" lon="-2.47149">
        <ele>87</ele>
        <time>2021-08-07T08:51:54Z</time>
      </trkpt>
      <trkpt lat="47.62855" lon="-2.47147">
        <ele>87</ele>
        <time>2021-08-07T08:51:55Z</time>
      </trkpt>
      <trkpt lat="47.62859" lon="-2.47145">
        <ele>87</ele>
        <time>2021-08-07T08:51:56Z</time>
      </trkpt>
      <trkpt lat="47.62863" lon="-2.47142">
        <ele>87</ele>
        <time>2021-08-07T08:51:57Z</time>
      </trkpt>
      <trkpt lat="47.62871" lon="-2.47137">
        <ele>87.2</ele>
        <time>2021-08-07T08:51:59Z</time>
      </trkpt>
      <trkpt lat="47.62875" lon="-2.47135">
        <ele>87.2</ele>
        <time>2021-08-07T08:52:00Z</time>
      </trkpt>
      <trkpt lat="47.62879" lon="-2.47133">
        <ele>87.2</ele>
        <time>2021-08-07T08:52:01Z</time>
      </trkpt>
      <trkpt lat="47.62883" lon="-2.4713">
        <ele>87.2</ele>
        <time>2021-08-07T08:52:02Z</time>
      </trkpt>
      <trkpt lat="47.62886" lon="-2.47128">
        <ele>87.2</ele>
        <time>2021-08-07T08:52:03Z</time>
      </trkpt>
      <trkpt lat="47.6289" lon="-2.47125">
        <ele>87.2</ele>
        <time>2021-08-07T08:52:04Z</time>
      </trkpt>
      <trkpt lat="47.62894" lon="-2.47123">
        <ele>87.2</ele>
        <time>2021-08-07T08:52:05Z</time>
      </trkpt>
      <trkpt lat="47.62898" lon="-2.47121">
        <ele>87.2</ele>
        <time>2021-08-07T08:52:06Z</time>
      </trkpt>
      <trkpt lat="47.62902" lon="-2.47118">
        <ele>87.2</ele>
        <time>2021-08-07T08:52:07Z</time>
      </trkpt>
      <trkpt lat="47.62906" lon="-2.47116">
        <ele>87.2</ele>
        <time>2021-08-07T08:52:08Z</time>
      </trkpt>
      <trkpt lat="47.62914" lon="-2.47111">
        <ele>87.2</ele>
        <time>2021-08-07T08:52:10Z</time>
      </trkpt>
      <trkpt lat="47.62918" lon="-2.47109">
        <ele>87.4</ele>
        <time>2021-08-07T08:52:11Z</time>
      </trkpt>
      <trkpt lat="47.62922" lon="-2.47106">
        <ele>87.4</ele>
        <time>2021-08-07T08:52:12Z</time>
      </trkpt>
      <trkpt lat="47.62926" lon="-2.47103">
        <ele>87.4</ele>
        <time>2021-08-07T08:52:13Z</time>
      </trkpt>
      <trkpt lat="47.6293" lon="-2.47101">
        <ele>87.6</ele>
        <time>2021-08-07T08:52:14Z</time>
      </trkpt>
      <trkpt lat="47.62934" lon="-2.47099">
        <ele>87.6</ele>
        <time>2021-08-07T08:52:15Z</time>
      </trkpt>
      <trkpt lat="47.62938" lon="-2.47097">
        <ele>87.8</ele>
        <time>2021-08-07T08:52:16Z</time>
      </trkpt>
      <trkpt lat="47.62942" lon="-2.47095">
        <ele>87.8</ele>
        <time>2021-08-07T08:52:17Z</time>
      </trkpt>
      <trkpt lat="47.62945" lon="-2.47093">
        <ele>87.8</ele>
        <time>2021-08-07T08:52:18Z</time>
      </trkpt>
      <trkpt lat="47.62952" lon="-2.47089">
        <ele>87.8</ele>
        <time>2021-08-07T08:52:20Z</time>
      </trkpt>
      <trkpt lat="47.62956" lon="-2.47087">
        <ele>88</ele>
        <time>2021-08-07T08:52:21Z</time>
      </trkpt>
      <trkpt lat="47.6296" lon="-2.47084">
        <ele>88</ele>
        <time>2021-08-07T08:52:22Z</time>
      </trkpt>
      <trkpt lat="47.62964" lon="-2.47082">
        <ele>88</ele>
        <time>2021-08-07T08:52:23Z</time>
      </trkpt>
      <trkpt lat="47.62967" lon="-2.4708">
        <ele>88.2</ele>
        <time>2021-08-07T08:52:24Z</time>
      </trkpt>
      <trkpt lat="47.62971" lon="-2.47077">
        <ele>88.2</ele>
        <time>2021-08-07T08:52:25Z</time>
      </trkpt>
      <trkpt lat="47.62975" lon="-2.47075">
        <ele>88.2</ele>
        <time>2021-08-07T08:52:26Z</time>
      </trkpt>
      <trkpt lat="47.62979" lon="-2.47073">
        <ele>88.6</ele>
        <time>2021-08-07T08:52:27Z</time>
      </trkpt>
      <trkpt lat="47.62987" lon="-2.47069">
        <ele>88.4</ele>
        <time>2021-08-07T08:52:29Z</time>
      </trkpt>
      <trkpt lat="47.62991" lon="-2.47066">
        <ele>88.6</ele>
        <time>2021-08-07T08:52:30Z</time>
      </trkpt>
      <trkpt lat="47.62995" lon="-2.47064">
        <ele>88.6</ele>
        <time>2021-08-07T08:52:31Z</time>
      </trkpt>
      <trkpt lat="47.62999" lon="-2.47061">
        <ele>88.6</ele>
        <time>2021-08-07T08:52:32Z</time>
      </trkpt>
      <trkpt lat="47.63003" lon="-2.47059">
        <ele>88.6</ele>
        <time>2021-08-07T08:52:33Z</time>
      </trkpt>
      <trkpt lat="47.63007" lon="-2.47056">
        <ele>88.6</ele>
        <time>2021-08-07T08:52:34Z</time>
      </trkpt>
      <trkpt lat="47.63011" lon="-2.47054">
        <ele>88.8</ele>
        <time>2021-08-07T08:52:35Z</time>
      </trkpt>
      <trkpt lat="47.63015" lon="-2.47052">
        <ele>88.8</ele>
        <time>2021-08-07T08:52:36Z</time>
      </trkpt>
      <trkpt lat="47.63019" lon="-2.4705">
        <ele>88.8</ele>
        <time>2021-08-07T08:52:37Z</time>
      </trkpt>
      <trkpt lat="47.63023" lon="-2.47048">
        <ele>88.8</ele>
        <time>2021-08-07T08:52:38Z</time>
      </trkpt>
      <trkpt lat="47.63027" lon="-2.47046">
        <ele>88.8</ele>
        <time>2021-08-07T08:52:39Z</time>
      </trkpt>
      <trkpt lat="47.63031" lon="-2.47044">
        <ele>88.8</ele>
        <time>2021-08-07T08:52:40Z</time>
      </trkpt>
      <trkpt lat="47.63035" lon="-2.47042">
        <ele>88.8</ele>
        <time>2021-08-07T08:52:41Z</time>
      </trkpt>
      <trkpt lat="47.63039" lon="-2.47041">
        <ele>88.8</ele>
        <time>2021-08-07T08:52:42Z</time>
      </trkpt>
      <trkpt lat="47.63043" lon="-2.4704">
        <ele>88.8</ele>
        <time>2021-08-07T08:52:43Z</time>
      </trkpt>
      <trkpt lat="47.63048" lon="-2.47038">
        <ele>89</ele>
        <time>2021-08-07T08:52:44Z</time>
      </trkpt>
      <trkpt lat="47.63052" lon="-2.47037">
        <ele>89</ele>
        <time>2021-08-07T08:52:45Z</time>
      </trkpt>
      <trkpt lat="47.63056" lon="-2.47035">
        <ele>89</ele>
        <time>2021-08-07T08:52:46Z</time>
      </trkpt>
      <trkpt lat="47.6306" lon="-2.47033">
        <ele>89</ele>
        <time>2021-08-07T08:52:47Z</time>
      </trkpt>
      <trkpt lat="47.63064" lon="-2.47032">
        <ele>89</ele>
        <time>2021-08-07T08:52:48Z</time>
      </trkpt>
      <trkpt lat="47.63069" lon="-2.47031">
        <ele>89.2</ele>
        <time>2021-08-07T08:52:49Z</time>
      </trkpt>
      <trkpt lat="47.63073" lon="-2.4703">
        <ele>89.2</ele>
        <time>2021-08-07T08:52:50Z</time>
      </trkpt>
      <trkpt lat="47.63077" lon="-2.47029">
        <ele>89.4</ele>
        <time>2021-08-07T08:52:51Z</time>
      </trkpt>
      <trkpt lat="47.63085" lon="-2.47027">
        <ele>89.4</ele>
        <time>2021-08-07T08:52:53Z</time>
      </trkpt>
      <trkpt lat="47.63089" lon="-2.47026">
        <ele>89.6</ele>
        <time>2021-08-07T08:52:54Z</time>
      </trkpt>
      <trkpt lat="47.63093" lon="-2.47025">
        <ele>89.6</ele>
        <time>2021-08-07T08:52:55Z</time>
      </trkpt>
      <trkpt lat="47.63097" lon="-2.47024">
        <ele>89.6</ele>
        <time>2021-08-07T08:52:56Z</time>
      </trkpt>
      <trkpt lat="47.63101" lon="-2.47024">
        <ele>89.8</ele>
        <time>2021-08-07T08:52:57Z</time>
      </trkpt>
      <trkpt lat="47.63104" lon="-2.47022">
        <ele>90</ele>
        <time>2021-08-07T08:52:58Z</time>
      </trkpt>
      <trkpt lat="47.63108" lon="-2.47021">
        <ele>90</ele>
        <time>2021-08-07T08:52:59Z</time>
      </trkpt>
      <trkpt lat="47.63112" lon="-2.4702">
        <ele>90.2</ele>
        <time>2021-08-07T08:53:00Z</time>
      </trkpt>
      <trkpt lat="47.63116" lon="-2.47019">
        <ele>90.2</ele>
        <time>2021-08-07T08:53:01Z</time>
      </trkpt>
      <trkpt lat="47.6312" lon="-2.47019">
        <ele>90.4</ele>
        <time>2021-08-07T08:53:02Z</time>
      </trkpt>
      <trkpt lat="47.63123" lon="-2.47018">
        <ele>90.4</ele>
        <time>2021-08-07T08:53:03Z</time>
      </trkpt>
      <trkpt lat="47.63127" lon="-2.47017">
        <ele>90.6</ele>
        <time>2021-08-07T08:53:04Z</time>
      </trkpt>
      <trkpt lat="47.63131" lon="-2.47016">
        <ele>90.6</ele>
        <time>2021-08-07T08:53:05Z</time>
      </trkpt>
      <trkpt lat="47.63135" lon="-2.47015">
        <ele>90.8</ele>
        <time>2021-08-07T08:53:06Z</time>
      </trkpt>
      <trkpt lat="47.63139" lon="-2.47014">
        <ele>90.8</ele>
        <time>2021-08-07T08:53:07Z</time>
      </trkpt>
      <trkpt lat="47.63142" lon="-2.47014">
        <ele>91</ele>
        <time>2021-08-07T08:53:08Z</time>
      </trkpt>
      <trkpt lat="47.63146" lon="-2.47013">
        <ele>91</ele>
        <time>2021-08-07T08:53:09Z</time>
      </trkpt>
      <trkpt lat="47.6315" lon="-2.47012">
        <ele>91</ele>
        <time>2021-08-07T08:53:10Z</time>
      </trkpt>
      <trkpt lat="47.63154" lon="-2.47011">
        <ele>91.2</ele>
        <time>2021-08-07T08:53:11Z</time>
      </trkpt>
      <trkpt lat="47.63157" lon="-2.4701">
        <ele>91.2</ele>
        <time>2021-08-07T08:53:12Z</time>
      </trkpt>
      <trkpt lat="47.63165" lon="-2.47009">
        <ele>91.2</ele>
        <time>2021-08-07T08:53:14Z</time>
      </trkpt>
      <trkpt lat="47.63168" lon="-2.47008">
        <ele>91.2</ele>
        <time>2021-08-07T08:53:15Z</time>
      </trkpt>
      <trkpt lat="47.63172" lon="-2.47008">
        <ele>91.2</ele>
        <time>2021-08-07T08:53:16Z</time>
      </trkpt>
      <trkpt lat="47.63176" lon="-2.47008">
        <ele>91.2</ele>
        <time>2021-08-07T08:53:17Z</time>
      </trkpt>
      <trkpt lat="47.63179" lon="-2.47007">
        <ele>91.4</ele>
        <time>2021-08-07T08:53:18Z</time>
      </trkpt>
      <trkpt lat="47.63183" lon="-2.47006">
        <ele>91.4</ele>
        <time>2021-08-07T08:53:19Z</time>
      </trkpt>
      <trkpt lat="47.63186" lon="-2.47005">
        <ele>91.4</ele>
        <time>2021-08-07T08:53:20Z</time>
      </trkpt>
      <trkpt lat="47.6319" lon="-2.47005">
        <ele>91.4</ele>
        <time>2021-08-07T08:53:21Z</time>
      </trkpt>
      <trkpt lat="47.63193" lon="-2.47004">
        <ele>91.8</ele>
        <time>2021-08-07T08:53:22Z</time>
      </trkpt>
      <trkpt lat="47.63197" lon="-2.47003">
        <ele>91.8</ele>
        <time>2021-08-07T08:53:23Z</time>
      </trkpt>
      <trkpt lat="47.632" lon="-2.47002">
        <ele>92</ele>
        <time>2021-08-07T08:53:24Z</time>
      </trkpt>
      <trkpt lat="47.63207" lon="-2.47">
        <ele>92.2</ele>
        <time>2021-08-07T08:53:26Z</time>
      </trkpt>
      <trkpt lat="47.63211" lon="-2.46999">
        <ele>92.2</ele>
        <time>2021-08-07T08:53:27Z</time>
      </trkpt>
      <trkpt lat="47.63214" lon="-2.46999">
        <ele>92.4</ele>
        <time>2021-08-07T08:53:28Z</time>
      </trkpt>
      <trkpt lat="47.63217" lon="-2.46998">
        <ele>92.4</ele>
        <time>2021-08-07T08:53:29Z</time>
      </trkpt>
      <trkpt lat="47.63221" lon="-2.46997">
        <ele>92.6</ele>
        <time>2021-08-07T08:53:30Z</time>
      </trkpt>
      <trkpt lat="47.63224" lon="-2.46996">
        <ele>92.6</ele>
        <time>2021-08-07T08:53:31Z</time>
      </trkpt>
      <trkpt lat="47.63227" lon="-2.46995">
        <ele>92.8</ele>
        <time>2021-08-07T08:53:32Z</time>
      </trkpt>
      <trkpt lat="47.63231" lon="-2.46995">
        <ele>92.8</ele>
        <time>2021-08-07T08:53:33Z</time>
      </trkpt>
      <trkpt lat="47.63234" lon="-2.46994">
        <ele>93</ele>
        <time>2021-08-07T08:53:34Z</time>
      </trkpt>
      <trkpt lat="47.63241" lon="-2.46992">
        <ele>93.2</ele>
        <time>2021-08-07T08:53:36Z</time>
      </trkpt>
      <trkpt lat="47.63245" lon="-2.46992">
        <ele>93.2</ele>
        <time>2021-08-07T08:53:37Z</time>
      </trkpt>
      <trkpt lat="47.63248" lon="-2.46991">
        <ele>93.4</ele>
        <time>2021-08-07T08:53:38Z</time>
      </trkpt>
      <trkpt lat="47.63252" lon="-2.4699">
        <ele>93.4</ele>
        <time>2021-08-07T08:53:39Z</time>
      </trkpt>
      <trkpt lat="47.63255" lon="-2.46989">
        <ele>93.4</ele>
        <time>2021-08-07T08:53:40Z</time>
      </trkpt>
      <trkpt lat="47.63259" lon="-2.46988">
        <ele>93.6</ele>
        <time>2021-08-07T08:53:41Z</time>
      </trkpt>
      <trkpt lat="47.63263" lon="-2.46988">
        <ele>93.6</ele>
        <time>2021-08-07T08:53:42Z</time>
      </trkpt>
      <trkpt lat="47.63266" lon="-2.46987">
        <ele>93.8</ele>
        <time>2021-08-07T08:53:43Z</time>
      </trkpt>
      <trkpt lat="47.6327" lon="-2.46986">
        <ele>94</ele>
        <time>2021-08-07T08:53:44Z</time>
      </trkpt>
      <trkpt lat="47.63274" lon="-2.46985">
        <ele>94.2</ele>
        <time>2021-08-07T08:53:45Z</time>
      </trkpt>
      <trkpt lat="47.63281" lon="-2.46984">
        <ele>94.4</ele>
        <time>2021-08-07T08:53:47Z</time>
      </trkpt>
      <trkpt lat="47.63285" lon="-2.46983">
        <ele>94.4</ele>
        <time>2021-08-07T08:53:48Z</time>
      </trkpt>
      <trkpt lat="47.63288" lon="-2.46982">
        <ele>94.6</ele>
        <time>2021-08-07T08:53:49Z</time>
      </trkpt>
      <trkpt lat="47.63291" lon="-2.46982">
        <ele>94.6</ele>
        <time>2021-08-07T08:53:50Z</time>
      </trkpt>
      <trkpt lat="47.63294" lon="-2.46981">
        <ele>94.6</ele>
        <time>2021-08-07T08:53:51Z</time>
      </trkpt>
      <trkpt lat="47.63298" lon="-2.4698">
        <ele>94.6</ele>
        <time>2021-08-07T08:53:52Z</time>
      </trkpt>
      <trkpt lat="47.63301" lon="-2.46979">
        <ele>94.6</ele>
        <time>2021-08-07T08:53:53Z</time>
      </trkpt>
      <trkpt lat="47.63305" lon="-2.46978">
        <ele>94.6</ele>
        <time>2021-08-07T08:53:54Z</time>
      </trkpt>
      <trkpt lat="47.63309" lon="-2.46977">
        <ele>94.6</ele>
        <time>2021-08-07T08:53:55Z</time>
      </trkpt>
      <trkpt lat="47.63313" lon="-2.46975">
        <ele>94.6</ele>
        <time>2021-08-07T08:53:56Z</time>
      </trkpt>
      <trkpt lat="47.63316" lon="-2.46974">
        <ele>94.6</ele>
        <time>2021-08-07T08:53:57Z</time>
      </trkpt>
      <trkpt lat="47.63324" lon="-2.46972">
        <ele>94.4</ele>
        <time>2021-08-07T08:53:59Z</time>
      </trkpt>
      <trkpt lat="47.63328" lon="-2.46971">
        <ele>94.4</ele>
        <time>2021-08-07T08:54:00Z</time>
      </trkpt>
      <trkpt lat="47.63332" lon="-2.4697">
        <ele>94.2</ele>
        <time>2021-08-07T08:54:01Z</time>
      </trkpt>
      <trkpt lat="47.63336" lon="-2.46969">
        <ele>94.2</ele>
        <time>2021-08-07T08:54:02Z</time>
      </trkpt>
      <trkpt lat="47.6334" lon="-2.46968">
        <ele>94.2</ele>
        <time>2021-08-07T08:54:03Z</time>
      </trkpt>
      <trkpt lat="47.63344" lon="-2.46967">
        <ele>94.2</ele>
        <time>2021-08-07T08:54:04Z</time>
      </trkpt>
      <trkpt lat="47.63347" lon="-2.46966">
        <ele>94</ele>
        <time>2021-08-07T08:54:05Z</time>
      </trkpt>
      <trkpt lat="47.63352" lon="-2.46966">
        <ele>94</ele>
        <time>2021-08-07T08:54:06Z</time>
      </trkpt>
      <trkpt lat="47.63356" lon="-2.46965">
        <ele>94</ele>
        <time>2021-08-07T08:54:07Z</time>
      </trkpt>
      <trkpt lat="47.63365" lon="-2.46963">
        <ele>94</ele>
        <time>2021-08-07T08:54:09Z</time>
      </trkpt>
      <trkpt lat="47.63369" lon="-2.46962">
        <ele>93.8</ele>
        <time>2021-08-07T08:54:10Z</time>
      </trkpt>
      <trkpt lat="47.63374" lon="-2.46961">
        <ele>93.8</ele>
        <time>2021-08-07T08:54:11Z</time>
      </trkpt>
      <trkpt lat="47.63379" lon="-2.4696">
        <ele>93.8</ele>
        <time>2021-08-07T08:54:12Z</time>
      </trkpt>
      <trkpt lat="47.63384" lon="-2.46959">
        <ele>93.8</ele>
        <time>2021-08-07T08:54:13Z</time>
      </trkpt>
      <trkpt lat="47.63388" lon="-2.46958">
        <ele>93.8</ele>
        <time>2021-08-07T08:54:14Z</time>
      </trkpt>
      <trkpt lat="47.63393" lon="-2.46957">
        <ele>93.8</ele>
        <time>2021-08-07T08:54:15Z</time>
      </trkpt>
      <trkpt lat="47.63398" lon="-2.46956">
        <ele>93.8</ele>
        <time>2021-08-07T08:54:16Z</time>
      </trkpt>
      <trkpt lat="47.63403" lon="-2.46955">
        <ele>93.8</ele>
        <time>2021-08-07T08:54:17Z</time>
      </trkpt>
      <trkpt lat="47.63408" lon="-2.46954">
        <ele>93.6</ele>
        <time>2021-08-07T08:54:18Z</time>
      </trkpt>
      <trkpt lat="47.63412" lon="-2.46953">
        <ele>93.6</ele>
        <time>2021-08-07T08:54:19Z</time>
      </trkpt>
      <trkpt lat="47.63422" lon="-2.4695">
        <ele>93.4</ele>
        <time>2021-08-07T08:54:21Z</time>
      </trkpt>
      <trkpt lat="47.63426" lon="-2.46949">
        <ele>93.4</ele>
        <time>2021-08-07T08:54:22Z</time>
      </trkpt>
      <trkpt lat="47.63431" lon="-2.46948">
        <ele>93.4</ele>
        <time>2021-08-07T08:54:23Z</time>
      </trkpt>
      <trkpt lat="47.63435" lon="-2.46946">
        <ele>93.4</ele>
        <time>2021-08-07T08:54:24Z</time>
      </trkpt>
      <trkpt lat="47.6344" lon="-2.46945">
        <ele>93.4</ele>
        <time>2021-08-07T08:54:25Z</time>
      </trkpt>
      <trkpt lat="47.63445" lon="-2.46944">
        <ele>93.4</ele>
        <time>2021-08-07T08:54:26Z</time>
      </trkpt>
      <trkpt lat="47.6345" lon="-2.46943">
        <ele>93.4</ele>
        <time>2021-08-07T08:54:27Z</time>
      </trkpt>
      <trkpt lat="47.63455" lon="-2.46942">
        <ele>93.4</ele>
        <time>2021-08-07T08:54:28Z</time>
      </trkpt>
      <trkpt lat="47.6346" lon="-2.4694">
        <ele>93.4</ele>
        <time>2021-08-07T08:54:29Z</time>
      </trkpt>
      <trkpt lat="47.63465" lon="-2.46938">
        <ele>93.4</ele>
        <time>2021-08-07T08:54:30Z</time>
      </trkpt>
      <trkpt lat="47.6347" lon="-2.46936">
        <ele>93.4</ele>
        <time>2021-08-07T08:54:31Z</time>
      </trkpt>
      <trkpt lat="47.63475" lon="-2.46935">
        <ele>93.4</ele>
        <time>2021-08-07T08:54:32Z</time>
      </trkpt>
      <trkpt lat="47.63479" lon="-2.46933">
        <ele>93.4</ele>
        <time>2021-08-07T08:54:33Z</time>
      </trkpt>
      <trkpt lat="47.63484" lon="-2.46931">
        <ele>93.4</ele>
        <time>2021-08-07T08:54:34Z</time>
      </trkpt>
      <trkpt lat="47.63489" lon="-2.46929">
        <ele>93.4</ele>
        <time>2021-08-07T08:54:35Z</time>
      </trkpt>
      <trkpt lat="47.63493" lon="-2.46927">
        <ele>93.4</ele>
        <time>2021-08-07T08:54:36Z</time>
      </trkpt>
      <trkpt lat="47.63498" lon="-2.46925">
        <ele>93.4</ele>
        <time>2021-08-07T08:54:37Z</time>
      </trkpt>
      <trkpt lat="47.63503" lon="-2.46923">
        <ele>93.4</ele>
        <time>2021-08-07T08:54:38Z</time>
      </trkpt>
      <trkpt lat="47.63507" lon="-2.46921">
        <ele>93.4</ele>
        <time>2021-08-07T08:54:39Z</time>
      </trkpt>
      <trkpt lat="47.63512" lon="-2.46919">
        <ele>93.4</ele>
        <time>2021-08-07T08:54:40Z</time>
      </trkpt>
      <trkpt lat="47.63516" lon="-2.46917">
        <ele>93.4</ele>
        <time>2021-08-07T08:54:41Z</time>
      </trkpt>
      <trkpt lat="47.63521" lon="-2.46915">
        <ele>93.4</ele>
        <time>2021-08-07T08:54:42Z</time>
      </trkpt>
      <trkpt lat="47.63525" lon="-2.46913">
        <ele>93.4</ele>
        <time>2021-08-07T08:54:43Z</time>
      </trkpt>
      <trkpt lat="47.63529" lon="-2.4691">
        <ele>93.4</ele>
        <time>2021-08-07T08:54:44Z</time>
      </trkpt>
      <trkpt lat="47.63534" lon="-2.46908">
        <ele>93.4</ele>
        <time>2021-08-07T08:54:45Z</time>
      </trkpt>
      <trkpt lat="47.63538" lon="-2.46906">
        <ele>93.4</ele>
        <time>2021-08-07T08:54:46Z</time>
      </trkpt>
      <trkpt lat="47.63542" lon="-2.46904">
        <ele>93.4</ele>
        <time>2021-08-07T08:54:47Z</time>
      </trkpt>
      <trkpt lat="47.63546" lon="-2.46901">
        <ele>93.4</ele>
        <time>2021-08-07T08:54:48Z</time>
      </trkpt>
      <trkpt lat="47.6355" lon="-2.46899">
        <ele>93.4</ele>
        <time>2021-08-07T08:54:49Z</time>
      </trkpt>
      <trkpt lat="47.63554" lon="-2.46896">
        <ele>93.4</ele>
        <time>2021-08-07T08:54:50Z</time>
      </trkpt>
      <trkpt lat="47.63558" lon="-2.46894">
        <ele>93.4</ele>
        <time>2021-08-07T08:54:51Z</time>
      </trkpt>
      <trkpt lat="47.63564" lon="-2.4689">
        <ele>93.6</ele>
        <time>2021-08-07T08:54:53Z</time>
      </trkpt>
      <trkpt lat="47.63566" lon="-2.46887">
        <ele>93.6</ele>
        <time>2021-08-07T08:54:54Z</time>
      </trkpt>
      <trkpt lat="47.63568" lon="-2.46885">
        <ele>93.8</ele>
        <time>2021-08-07T08:54:55Z</time>
      </trkpt>
      <trkpt lat="47.63569" lon="-2.46882">
        <ele>93.8</ele>
        <time>2021-08-07T08:54:56Z</time>
      </trkpt>
      <trkpt lat="47.6357" lon="-2.4688">
        <ele>93.8</ele>
        <time>2021-08-07T08:54:57Z</time>
      </trkpt>
      <trkpt lat="47.63571" lon="-2.46879">
        <ele>94</ele>
        <time>2021-08-07T08:54:58Z</time>
      </trkpt>
      <trkpt lat="47.63571" lon="-2.46878">
        <ele>94.6</ele>
        <time>2021-08-07T08:55:30Z</time>
      </trkpt>
      <trkpt lat="47.63572" lon="-2.46877">
        <ele>94.6</ele>
        <time>2021-08-07T08:55:31Z</time>
      </trkpt>
      <trkpt lat="47.63573" lon="-2.46875">
        <ele>94.6</ele>
        <time>2021-08-07T08:55:32Z</time>
      </trkpt>
      <trkpt lat="47.63575" lon="-2.46875">
        <ele>94.6</ele>
        <time>2021-08-07T08:55:33Z</time>
      </trkpt>
      <trkpt lat="47.63577" lon="-2.46875">
        <ele>94.6</ele>
        <time>2021-08-07T08:55:34Z</time>
      </trkpt>
      <trkpt lat="47.6358" lon="-2.46875">
        <ele>94.6</ele>
        <time>2021-08-07T08:55:35Z</time>
      </trkpt>
      <trkpt lat="47.63584" lon="-2.46876">
        <ele>94.6</ele>
        <time>2021-08-07T08:55:36Z</time>
      </trkpt>
      <trkpt lat="47.63587" lon="-2.46878">
        <ele>94.6</ele>
        <time>2021-08-07T08:55:37Z</time>
      </trkpt>
      <trkpt lat="47.63591" lon="-2.4688">
        <ele>94.6</ele>
        <time>2021-08-07T08:55:38Z</time>
      </trkpt>
      <trkpt lat="47.63594" lon="-2.46882">
        <ele>94.4</ele>
        <time>2021-08-07T08:55:39Z</time>
      </trkpt>
      <trkpt lat="47.63603" lon="-2.46886">
        <ele>94.4</ele>
        <time>2021-08-07T08:55:41Z</time>
      </trkpt>
      <trkpt lat="47.63607" lon="-2.46888">
        <ele>94.4</ele>
        <time>2021-08-07T08:55:42Z</time>
      </trkpt>
      <trkpt lat="47.63611" lon="-2.4689">
        <ele>94.2</ele>
        <time>2021-08-07T08:55:43Z</time>
      </trkpt>
      <trkpt lat="47.6362" lon="-2.46895">
        <ele>94.2</ele>
        <time>2021-08-07T08:55:45Z</time>
      </trkpt>
      <trkpt lat="47.6363" lon="-2.469">
        <ele>94</ele>
        <time>2021-08-07T08:55:47Z</time>
      </trkpt>
      <trkpt lat="47.63635" lon="-2.46902">
        <ele>93.8</ele>
        <time>2021-08-07T08:55:48Z</time>
      </trkpt>
      <trkpt lat="47.63639" lon="-2.46904">
        <ele>93.6</ele>
        <time>2021-08-07T08:55:49Z</time>
      </trkpt>
      <trkpt lat="47.63644" lon="-2.46906">
        <ele>93.4</ele>
        <time>2021-08-07T08:55:50Z</time>
      </trkpt>
      <trkpt lat="47.63654" lon="-2.46911">
        <ele>93.2</ele>
        <time>2021-08-07T08:55:52Z</time>
      </trkpt>
      <trkpt lat="47.63659" lon="-2.46913">
        <ele>93</ele>
        <time>2021-08-07T08:55:53Z</time>
      </trkpt>
      <trkpt lat="47.63664" lon="-2.46915">
        <ele>93</ele>
        <time>2021-08-07T08:55:54Z</time>
      </trkpt>
      <trkpt lat="47.63669" lon="-2.46918">
        <ele>92.8</ele>
        <time>2021-08-07T08:55:55Z</time>
      </trkpt>
      <trkpt lat="47.63674" lon="-2.4692">
        <ele>92.8</ele>
        <time>2021-08-07T08:55:56Z</time>
      </trkpt>
      <trkpt lat="47.63679" lon="-2.46922">
        <ele>92.8</ele>
        <time>2021-08-07T08:55:57Z</time>
      </trkpt>
      <trkpt lat="47.63684" lon="-2.46924">
        <ele>92.8</ele>
        <time>2021-08-07T08:55:58Z</time>
      </trkpt>
      <trkpt lat="47.63694" lon="-2.46928">
        <ele>92.6</ele>
        <time>2021-08-07T08:56:00Z</time>
      </trkpt>
      <trkpt lat="47.63698" lon="-2.46929">
        <ele>92.4</ele>
        <time>2021-08-07T08:56:01Z</time>
      </trkpt>
      <trkpt lat="47.63708" lon="-2.46933">
        <ele>92.4</ele>
        <time>2021-08-07T08:56:03Z</time>
      </trkpt>
      <trkpt lat="47.63713" lon="-2.46936">
        <ele>92.4</ele>
        <time>2021-08-07T08:56:04Z</time>
      </trkpt>
      <trkpt lat="47.63718" lon="-2.46938">
        <ele>92.4</ele>
        <time>2021-08-07T08:56:05Z</time>
      </trkpt>
      <trkpt lat="47.63723" lon="-2.4694">
        <ele>92.4</ele>
        <time>2021-08-07T08:56:06Z</time>
      </trkpt>
      <trkpt lat="47.63728" lon="-2.46941">
        <ele>92.4</ele>
        <time>2021-08-07T08:56:07Z</time>
      </trkpt>
      <trkpt lat="47.63734" lon="-2.46943">
        <ele>92.4</ele>
        <time>2021-08-07T08:56:08Z</time>
      </trkpt>
      <trkpt lat="47.63739" lon="-2.46945">
        <ele>92.2</ele>
        <time>2021-08-07T08:56:09Z</time>
      </trkpt>
      <trkpt lat="47.63744" lon="-2.46948">
        <ele>92.2</ele>
        <time>2021-08-07T08:56:10Z</time>
      </trkpt>
      <trkpt lat="47.6375" lon="-2.4695">
        <ele>92.2</ele>
        <time>2021-08-07T08:56:11Z</time>
      </trkpt>
      <trkpt lat="47.63756" lon="-2.46952">
        <ele>92</ele>
        <time>2021-08-07T08:56:12Z</time>
      </trkpt>
      <trkpt lat="47.63761" lon="-2.46954">
        <ele>92</ele>
        <time>2021-08-07T08:56:13Z</time>
      </trkpt>
      <trkpt lat="47.63768" lon="-2.46957">
        <ele>92</ele>
        <time>2021-08-07T08:56:14Z</time>
      </trkpt>
      <trkpt lat="47.63774" lon="-2.4696">
        <ele>92</ele>
        <time>2021-08-07T08:56:15Z</time>
      </trkpt>
      <trkpt lat="47.6378" lon="-2.46962">
        <ele>91.8</ele>
        <time>2021-08-07T08:56:16Z</time>
      </trkpt>
      <trkpt lat="47.63787" lon="-2.46965">
        <ele>91.6</ele>
        <time>2021-08-07T08:56:17Z</time>
      </trkpt>
      <trkpt lat="47.63793" lon="-2.46968">
        <ele>91.2</ele>
        <time>2021-08-07T08:56:18Z</time>
      </trkpt>
      <trkpt lat="47.638" lon="-2.4697">
        <ele>91</ele>
        <time>2021-08-07T08:56:19Z</time>
      </trkpt>
      <trkpt lat="47.63814" lon="-2.46975">
        <ele>90.8</ele>
        <time>2021-08-07T08:56:21Z</time>
      </trkpt>
      <trkpt lat="47.63821" lon="-2.46978">
        <ele>90.4</ele>
        <time>2021-08-07T08:56:22Z</time>
      </trkpt>
      <trkpt lat="47.63828" lon="-2.4698">
        <ele>90</ele>
        <time>2021-08-07T08:56:23Z</time>
      </trkpt>
      <trkpt lat="47.63835" lon="-2.46983">
        <ele>89.6</ele>
        <time>2021-08-07T08:56:24Z</time>
      </trkpt>
      <trkpt lat="47.63841" lon="-2.46985">
        <ele>89.2</ele>
        <time>2021-08-07T08:56:25Z</time>
      </trkpt>
      <trkpt lat="47.63848" lon="-2.46988">
        <ele>88.6</ele>
        <time>2021-08-07T08:56:26Z</time>
      </trkpt>
      <trkpt lat="47.63854" lon="-2.4699">
        <ele>88.2</ele>
        <time>2021-08-07T08:56:27Z</time>
      </trkpt>
      <trkpt lat="47.63861" lon="-2.46992">
        <ele>88</ele>
        <time>2021-08-07T08:56:28Z</time>
      </trkpt>
      <trkpt lat="47.63867" lon="-2.46995">
        <ele>87.8</ele>
        <time>2021-08-07T08:56:29Z</time>
      </trkpt>
      <trkpt lat="47.63873" lon="-2.46998">
        <ele>87.8</ele>
        <time>2021-08-07T08:56:30Z</time>
      </trkpt>
      <trkpt lat="47.63884" lon="-2.47002">
        <ele>87.6</ele>
        <time>2021-08-07T08:56:32Z</time>
      </trkpt>
      <trkpt lat="47.63889" lon="-2.47004">
        <ele>87.6</ele>
        <time>2021-08-07T08:56:33Z</time>
      </trkpt>
      <trkpt lat="47.63899" lon="-2.47008">
        <ele>87.6</ele>
        <time>2021-08-07T08:56:35Z</time>
      </trkpt>
      <trkpt lat="47.63904" lon="-2.47009">
        <ele>87.6</ele>
        <time>2021-08-07T08:56:36Z</time>
      </trkpt>
      <trkpt lat="47.63913" lon="-2.47013">
        <ele>87.6</ele>
        <time>2021-08-07T08:56:38Z</time>
      </trkpt>
      <trkpt lat="47.63921" lon="-2.47016">
        <ele>87.8</ele>
        <time>2021-08-07T08:56:40Z</time>
      </trkpt>
      <trkpt lat="47.63924" lon="-2.47016">
        <ele>88</ele>
        <time>2021-08-07T08:56:41Z</time>
      </trkpt>
      <trkpt lat="47.63931" lon="-2.47018">
        <ele>88.4</ele>
        <time>2021-08-07T08:56:43Z</time>
      </trkpt>
      <trkpt lat="47.63938" lon="-2.4702">
        <ele>88.6</ele>
        <time>2021-08-07T08:56:45Z</time>
      </trkpt>
      <trkpt lat="47.63945" lon="-2.47023">
        <ele>88.8</ele>
        <time>2021-08-07T08:56:47Z</time>
      </trkpt>
      <trkpt lat="47.63948" lon="-2.47024">
        <ele>88.8</ele>
        <time>2021-08-07T08:56:48Z</time>
      </trkpt>
      <trkpt lat="47.63951" lon="-2.47025">
        <ele>89</ele>
        <time>2021-08-07T08:56:49Z</time>
      </trkpt>
      <trkpt lat="47.63954" lon="-2.47026">
        <ele>89.4</ele>
        <time>2021-08-07T08:56:50Z</time>
      </trkpt>
      <trkpt lat="47.63957" lon="-2.47028">
        <ele>89.8</ele>
        <time>2021-08-07T08:56:51Z</time>
      </trkpt>
      <trkpt lat="47.63961" lon="-2.47029">
        <ele>90</ele>
        <time>2021-08-07T08:56:52Z</time>
      </trkpt>
      <trkpt lat="47.63964" lon="-2.4703">
        <ele>90.2</ele>
        <time>2021-08-07T08:56:53Z</time>
      </trkpt>
      <trkpt lat="47.6397" lon="-2.47032">
        <ele>90.4</ele>
        <time>2021-08-07T08:56:55Z</time>
      </trkpt>
      <trkpt lat="47.63976" lon="-2.47034">
        <ele>90.6</ele>
        <time>2021-08-07T08:56:57Z</time>
      </trkpt>
      <trkpt lat="47.63979" lon="-2.47035">
        <ele>90.8</ele>
        <time>2021-08-07T08:56:58Z</time>
      </trkpt>
      <trkpt lat="47.63982" lon="-2.47036">
        <ele>91</ele>
        <time>2021-08-07T08:56:59Z</time>
      </trkpt>
      <trkpt lat="47.63985" lon="-2.47037">
        <ele>91.2</ele>
        <time>2021-08-07T08:57:00Z</time>
      </trkpt>
      <trkpt lat="47.63991" lon="-2.47039">
        <ele>91.6</ele>
        <time>2021-08-07T08:57:02Z</time>
      </trkpt>
      <trkpt lat="47.63997" lon="-2.47041">
        <ele>92</ele>
        <time>2021-08-07T08:57:04Z</time>
      </trkpt>
      <trkpt lat="47.64" lon="-2.47042">
        <ele>92.2</ele>
        <time>2021-08-07T08:57:05Z</time>
      </trkpt>
      <trkpt lat="47.64006" lon="-2.47043">
        <ele>92.4</ele>
        <time>2021-08-07T08:57:07Z</time>
      </trkpt>
      <trkpt lat="47.64012" lon="-2.47045">
        <ele>92.8</ele>
        <time>2021-08-07T08:57:09Z</time>
      </trkpt>
      <trkpt lat="47.64015" lon="-2.47045">
        <ele>92.8</ele>
        <time>2021-08-07T08:57:10Z</time>
      </trkpt>
      <trkpt lat="47.6402" lon="-2.47047">
        <ele>93</ele>
        <time>2021-08-07T08:57:12Z</time>
      </trkpt>
      <trkpt lat="47.64026" lon="-2.47048">
        <ele>93</ele>
        <time>2021-08-07T08:57:14Z</time>
      </trkpt>
      <trkpt lat="47.64029" lon="-2.47048">
        <ele>93</ele>
        <time>2021-08-07T08:57:15Z</time>
      </trkpt>
      <trkpt lat="47.64031" lon="-2.47049">
        <ele>93</ele>
        <time>2021-08-07T08:57:16Z</time>
      </trkpt>
      <trkpt lat="47.64034" lon="-2.4705">
        <ele>93</ele>
        <time>2021-08-07T08:57:17Z</time>
      </trkpt>
      <trkpt lat="47.64039" lon="-2.4705">
        <ele>93.2</ele>
        <time>2021-08-07T08:57:19Z</time>
      </trkpt>
      <trkpt lat="47.64044" lon="-2.47051">
        <ele>93.4</ele>
        <time>2021-08-07T08:57:21Z</time>
      </trkpt>
      <trkpt lat="47.64047" lon="-2.47052">
        <ele>93.6</ele>
        <time>2021-08-07T08:57:22Z</time>
      </trkpt>
      <trkpt lat="47.64051" lon="-2.47052">
        <ele>93.6</ele>
        <time>2021-08-07T08:57:24Z</time>
      </trkpt>
      <trkpt lat="47.64056" lon="-2.47053">
        <ele>93.8</ele>
        <time>2021-08-07T08:57:26Z</time>
      </trkpt>
      <trkpt lat="47.64059" lon="-2.47053">
        <ele>94</ele>
        <time>2021-08-07T08:57:27Z</time>
      </trkpt>
      <trkpt lat="47.64061" lon="-2.47054">
        <ele>94.2</ele>
        <time>2021-08-07T08:57:28Z</time>
      </trkpt>
      <trkpt lat="47.64064" lon="-2.47054">
        <ele>94.4</ele>
        <time>2021-08-07T08:57:29Z</time>
      </trkpt>
      <trkpt lat="47.64069" lon="-2.47055">
        <ele>94.4</ele>
        <time>2021-08-07T08:57:31Z</time>
      </trkpt>
      <trkpt lat="47.64071" lon="-2.47055">
        <ele>94.8</ele>
        <time>2021-08-07T08:57:32Z</time>
      </trkpt>
      <trkpt lat="47.64076" lon="-2.47056">
        <ele>95</ele>
        <time>2021-08-07T08:57:34Z</time>
      </trkpt>
      <trkpt lat="47.64081" lon="-2.47057">
        <ele>95</ele>
        <time>2021-08-07T08:57:36Z</time>
      </trkpt>
      <trkpt lat="47.64086" lon="-2.47057">
        <ele>95.4</ele>
        <time>2021-08-07T08:57:38Z</time>
      </trkpt>
      <trkpt lat="47.64088" lon="-2.47057">
        <ele>95.4</ele>
        <time>2021-08-07T08:57:39Z</time>
      </trkpt>
      <trkpt lat="47.64093" lon="-2.47058">
        <ele>95.4</ele>
        <time>2021-08-07T08:57:41Z</time>
      </trkpt>
      <trkpt lat="47.64098" lon="-2.47058">
        <ele>95.6</ele>
        <time>2021-08-07T08:57:43Z</time>
      </trkpt>
      <trkpt lat="47.64101" lon="-2.47059">
        <ele>95.8</ele>
        <time>2021-08-07T08:57:44Z</time>
      </trkpt>
      <trkpt lat="47.64106" lon="-2.47059">
        <ele>95.8</ele>
        <time>2021-08-07T08:57:46Z</time>
      </trkpt>
      <trkpt lat="47.64111" lon="-2.4706">
        <ele>96</ele>
        <time>2021-08-07T08:57:48Z</time>
      </trkpt>
      <trkpt lat="47.64113" lon="-2.4706">
        <ele>96</ele>
        <time>2021-08-07T08:57:49Z</time>
      </trkpt>
      <trkpt lat="47.64115" lon="-2.4706">
        <ele>96.2</ele>
        <time>2021-08-07T08:57:50Z</time>
      </trkpt>
      <trkpt lat="47.64118" lon="-2.47061">
        <ele>96.2</ele>
        <time>2021-08-07T08:57:51Z</time>
      </trkpt>
      <trkpt lat="47.64123" lon="-2.47062">
        <ele>96.2</ele>
        <time>2021-08-07T08:57:53Z</time>
      </trkpt>
      <trkpt lat="47.64126" lon="-2.47062">
        <ele>96.2</ele>
        <time>2021-08-07T08:57:54Z</time>
      </trkpt>
      <trkpt lat="47.64128" lon="-2.47063">
        <ele>96.4</ele>
        <time>2021-08-07T08:57:55Z</time>
      </trkpt>
      <trkpt lat="47.64131" lon="-2.47064">
        <ele>96.4</ele>
        <time>2021-08-07T08:57:56Z</time>
      </trkpt>
      <trkpt lat="47.64137" lon="-2.47064">
        <ele>96.6</ele>
        <time>2021-08-07T08:57:58Z</time>
      </trkpt>
      <trkpt lat="47.64143" lon="-2.47065">
        <ele>96.6</ele>
        <time>2021-08-07T08:58:00Z</time>
      </trkpt>
      <trkpt lat="47.64147" lon="-2.47065">
        <ele>96.6</ele>
        <time>2021-08-07T08:58:01Z</time>
      </trkpt>
      <trkpt lat="47.64153" lon="-2.47067">
        <ele>96.6</ele>
        <time>2021-08-07T08:58:03Z</time>
      </trkpt>
      <trkpt lat="47.64161" lon="-2.47068">
        <ele>96.6</ele>
        <time>2021-08-07T08:58:05Z</time>
      </trkpt>
      <trkpt lat="47.64164" lon="-2.47068">
        <ele>96.6</ele>
        <time>2021-08-07T08:58:06Z</time>
      </trkpt>
      <trkpt lat="47.64172" lon="-2.47069">
        <ele>96.6</ele>
        <time>2021-08-07T08:58:08Z</time>
      </trkpt>
      <trkpt lat="47.6418" lon="-2.47069">
        <ele>96.6</ele>
        <time>2021-08-07T08:58:10Z</time>
      </trkpt>
      <trkpt lat="47.64188" lon="-2.4707">
        <ele>96.6</ele>
        <time>2021-08-07T08:58:12Z</time>
      </trkpt>
      <trkpt lat="47.64192" lon="-2.47071">
        <ele>96.6</ele>
        <time>2021-08-07T08:58:13Z</time>
      </trkpt>
      <trkpt lat="47.642" lon="-2.47072">
        <ele>96.6</ele>
        <time>2021-08-07T08:58:15Z</time>
      </trkpt>
      <trkpt lat="47.64208" lon="-2.47073">
        <ele>96.6</ele>
        <time>2021-08-07T08:58:17Z</time>
      </trkpt>
      <trkpt lat="47.64211" lon="-2.47074">
        <ele>96.6</ele>
        <time>2021-08-07T08:58:18Z</time>
      </trkpt>
      <trkpt lat="47.64215" lon="-2.47075">
        <ele>96.6</ele>
        <time>2021-08-07T08:58:19Z</time>
      </trkpt>
      <trkpt lat="47.64219" lon="-2.47075">
        <ele>96.6</ele>
        <time>2021-08-07T08:58:20Z</time>
      </trkpt>
      <trkpt lat="47.64227" lon="-2.47076">
        <ele>96.6</ele>
        <time>2021-08-07T08:58:22Z</time>
      </trkpt>
      <trkpt lat="47.64231" lon="-2.47077">
        <ele>96.6</ele>
        <time>2021-08-07T08:58:23Z</time>
      </trkpt>
      <trkpt lat="47.64238" lon="-2.47079">
        <ele>96.6</ele>
        <time>2021-08-07T08:58:25Z</time>
      </trkpt>
      <trkpt lat="47.64246" lon="-2.47081">
        <ele>96.8</ele>
        <time>2021-08-07T08:58:27Z</time>
      </trkpt>
      <trkpt lat="47.64252" lon="-2.47083">
        <ele>97</ele>
        <time>2021-08-07T08:58:29Z</time>
      </trkpt>
      <trkpt lat="47.64255" lon="-2.47084">
        <ele>97</ele>
        <time>2021-08-07T08:58:30Z</time>
      </trkpt>
      <trkpt lat="47.64261" lon="-2.47086">
        <ele>97.2</ele>
        <time>2021-08-07T08:58:32Z</time>
      </trkpt>
      <trkpt lat="47.64264" lon="-2.47086">
        <ele>97.2</ele>
        <time>2021-08-07T08:58:33Z</time>
      </trkpt>
      <trkpt lat="47.64266" lon="-2.47087">
        <ele>97.4</ele>
        <time>2021-08-07T08:58:34Z</time>
      </trkpt>
      <trkpt lat="47.64269" lon="-2.47088">
        <ele>97.4</ele>
        <time>2021-08-07T08:58:35Z</time>
      </trkpt>
      <trkpt lat="47.64275" lon="-2.4709">
        <ele>97.6</ele>
        <time>2021-08-07T08:58:37Z</time>
      </trkpt>
      <trkpt lat="47.6428" lon="-2.47092">
        <ele>97.6</ele>
        <time>2021-08-07T08:58:39Z</time>
      </trkpt>
      <trkpt lat="47.64282" lon="-2.47093">
        <ele>97.8</ele>
        <time>2021-08-07T08:58:40Z</time>
      </trkpt>
      <trkpt lat="47.64285" lon="-2.47094">
        <ele>98</ele>
        <time>2021-08-07T08:58:41Z</time>
      </trkpt>
      <trkpt lat="47.64287" lon="-2.47096">
        <ele>98.2</ele>
        <time>2021-08-07T08:58:42Z</time>
      </trkpt>
      <trkpt lat="47.6429" lon="-2.47098">
        <ele>98.2</ele>
        <time>2021-08-07T08:58:43Z</time>
      </trkpt>
      <trkpt lat="47.64292" lon="-2.47099">
        <ele>98.4</ele>
        <time>2021-08-07T08:58:44Z</time>
      </trkpt>
      <trkpt lat="47.64297" lon="-2.47102">
        <ele>98.8</ele>
        <time>2021-08-07T08:58:46Z</time>
      </trkpt>
      <trkpt lat="47.643" lon="-2.47104">
        <ele>99</ele>
        <time>2021-08-07T08:58:47Z</time>
      </trkpt>
      <trkpt lat="47.64302" lon="-2.47107">
        <ele>99.2</ele>
        <time>2021-08-07T08:58:48Z</time>
      </trkpt>
      <trkpt lat="47.64305" lon="-2.47108">
        <ele>99.6</ele>
        <time>2021-08-07T08:58:49Z</time>
      </trkpt>
      <trkpt lat="47.64311" lon="-2.47112">
        <ele>100.4</ele>
        <time>2021-08-07T08:58:51Z</time>
      </trkpt>
      <trkpt lat="47.64314" lon="-2.47114">
        <ele>100.6</ele>
        <time>2021-08-07T08:58:52Z</time>
      </trkpt>
      <trkpt lat="47.6432" lon="-2.47117">
        <ele>100.8</ele>
        <time>2021-08-07T08:58:54Z</time>
      </trkpt>
      <trkpt lat="47.64326" lon="-2.47119">
        <ele>101.2</ele>
        <time>2021-08-07T08:58:56Z</time>
      </trkpt>
      <trkpt lat="47.64332" lon="-2.47125">
        <ele>101.4</ele>
        <time>2021-08-07T08:58:58Z</time>
      </trkpt>
      <trkpt lat="47.64334" lon="-2.47128">
        <ele>101.4</ele>
        <time>2021-08-07T08:58:59Z</time>
      </trkpt>
      <trkpt lat="47.6434" lon="-2.47132">
        <ele>101.6</ele>
        <time>2021-08-07T08:59:01Z</time>
      </trkpt>
      <trkpt lat="47.64347" lon="-2.47136">
        <ele>101.8</ele>
        <time>2021-08-07T08:59:03Z</time>
      </trkpt>
      <trkpt lat="47.6435" lon="-2.47138">
        <ele>102</ele>
        <time>2021-08-07T08:59:04Z</time>
      </trkpt>
      <trkpt lat="47.64356" lon="-2.47141">
        <ele>102.4</ele>
        <time>2021-08-07T08:59:06Z</time>
      </trkpt>
      <trkpt lat="47.64362" lon="-2.47145">
        <ele>102.6</ele>
        <time>2021-08-07T08:59:08Z</time>
      </trkpt>
      <trkpt lat="47.64368" lon="-2.47148">
        <ele>102.4</ele>
        <time>2021-08-07T08:59:10Z</time>
      </trkpt>
      <trkpt lat="47.64372" lon="-2.4715">
        <ele>102.4</ele>
        <time>2021-08-07T08:59:11Z</time>
      </trkpt>
      <trkpt lat="47.64375" lon="-2.47152">
        <ele>102.6</ele>
        <time>2021-08-07T08:59:12Z</time>
      </trkpt>
      <trkpt lat="47.64378" lon="-2.47154">
        <ele>102.6</ele>
        <time>2021-08-07T08:59:13Z</time>
      </trkpt>
      <trkpt lat="47.64384" lon="-2.47157">
        <ele>102.8</ele>
        <time>2021-08-07T08:59:15Z</time>
      </trkpt>
      <trkpt lat="47.64387" lon="-2.47159">
        <ele>102.8</ele>
        <time>2021-08-07T08:59:16Z</time>
      </trkpt>
      <trkpt lat="47.64394" lon="-2.47162">
        <ele>102.8</ele>
        <time>2021-08-07T08:59:18Z</time>
      </trkpt>
      <trkpt lat="47.64401" lon="-2.47165">
        <ele>102.6</ele>
        <time>2021-08-07T08:59:20Z</time>
      </trkpt>
      <trkpt lat="47.64409" lon="-2.47168">
        <ele>102.6</ele>
        <time>2021-08-07T08:59:22Z</time>
      </trkpt>
      <trkpt lat="47.64413" lon="-2.47169">
        <ele>102.6</ele>
        <time>2021-08-07T08:59:23Z</time>
      </trkpt>
      <trkpt lat="47.64421" lon="-2.47173">
        <ele>102.6</ele>
        <time>2021-08-07T08:59:25Z</time>
      </trkpt>
      <trkpt lat="47.6443" lon="-2.47177">
        <ele>102.6</ele>
        <time>2021-08-07T08:59:27Z</time>
      </trkpt>
      <trkpt lat="47.64435" lon="-2.47179">
        <ele>102.6</ele>
        <time>2021-08-07T08:59:28Z</time>
      </trkpt>
      <trkpt lat="47.64444" lon="-2.47183">
        <ele>102.6</ele>
        <time>2021-08-07T08:59:30Z</time>
      </trkpt>
      <trkpt lat="47.64454" lon="-2.47187">
        <ele>102.4</ele>
        <time>2021-08-07T08:59:32Z</time>
      </trkpt>
      <trkpt lat="47.64464" lon="-2.4719">
        <ele>102.2</ele>
        <time>2021-08-07T08:59:34Z</time>
      </trkpt>
      <trkpt lat="47.6447" lon="-2.47192">
        <ele>102.2</ele>
        <time>2021-08-07T08:59:35Z</time>
      </trkpt>
      <trkpt lat="47.6448" lon="-2.47196">
        <ele>102</ele>
        <time>2021-08-07T08:59:37Z</time>
      </trkpt>
      <trkpt lat="47.64491" lon="-2.47199">
        <ele>102</ele>
        <time>2021-08-07T08:59:39Z</time>
      </trkpt>
      <trkpt lat="47.64497" lon="-2.47201">
        <ele>102</ele>
        <time>2021-08-07T08:59:40Z</time>
      </trkpt>
      <trkpt lat="47.64509" lon="-2.47203">
        <ele>101.8</ele>
        <time>2021-08-07T08:59:42Z</time>
      </trkpt>
      <trkpt lat="47.64521" lon="-2.47205">
        <ele>101.8</ele>
        <time>2021-08-07T08:59:44Z</time>
      </trkpt>
      <trkpt lat="47.64533" lon="-2.47205">
        <ele>101.6</ele>
        <time>2021-08-07T08:59:46Z</time>
      </trkpt>
      <trkpt lat="47.64539" lon="-2.47206">
        <ele>101.6</ele>
        <time>2021-08-07T08:59:47Z</time>
      </trkpt>
      <trkpt lat="47.64551" lon="-2.47208">
        <ele>101.6</ele>
        <time>2021-08-07T08:59:49Z</time>
      </trkpt>
      <trkpt lat="47.64563" lon="-2.47208">
        <ele>101</ele>
        <time>2021-08-07T08:59:51Z</time>
      </trkpt>
      <trkpt lat="47.64576" lon="-2.47209">
        <ele>100.8</ele>
        <time>2021-08-07T08:59:53Z</time>
      </trkpt>
      <trkpt lat="47.64582" lon="-2.4721">
        <ele>100.8</ele>
        <time>2021-08-07T08:59:54Z</time>
      </trkpt>
      <trkpt lat="47.64595" lon="-2.4721">
        <ele>100.6</ele>
        <time>2021-08-07T08:59:56Z</time>
      </trkpt>
      <trkpt lat="47.64607" lon="-2.47211">
        <ele>100.6</ele>
        <time>2021-08-07T08:59:58Z</time>
      </trkpt>
      <trkpt lat="47.64618" lon="-2.47212">
        <ele>100.4</ele>
        <time>2021-08-07T09:00:00Z</time>
      </trkpt>
      <trkpt lat="47.64623" lon="-2.47212">
        <ele>100.4</ele>
        <time>2021-08-07T09:00:01Z</time>
      </trkpt>
      <trkpt lat="47.64629" lon="-2.47212">
        <ele>100.2</ele>
        <time>2021-08-07T09:00:02Z</time>
      </trkpt>
      <trkpt lat="47.64635" lon="-2.47212">
        <ele>100.2</ele>
        <time>2021-08-07T09:00:03Z</time>
      </trkpt>
      <trkpt lat="47.64647" lon="-2.47213">
        <ele>100.2</ele>
        <time>2021-08-07T09:00:05Z</time>
      </trkpt>
      <trkpt lat="47.64659" lon="-2.47213">
        <ele>100.2</ele>
        <time>2021-08-07T09:00:07Z</time>
      </trkpt>
      <trkpt lat="47.64666" lon="-2.47213">
        <ele>100.2</ele>
        <time>2021-08-07T09:00:08Z</time>
      </trkpt>
      <trkpt lat="47.64678" lon="-2.47214">
        <ele>100.2</ele>
        <time>2021-08-07T09:00:10Z</time>
      </trkpt>
      <trkpt lat="47.64684" lon="-2.47214">
        <ele>100.2</ele>
        <time>2021-08-07T09:00:11Z</time>
      </trkpt>
      <trkpt lat="47.64689" lon="-2.47214">
        <ele>100.2</ele>
        <time>2021-08-07T09:00:12Z</time>
      </trkpt>
      <trkpt lat="47.64701" lon="-2.47214">
        <ele>100.4</ele>
        <time>2021-08-07T09:00:14Z</time>
      </trkpt>
      <trkpt lat="47.64712" lon="-2.47214">
        <ele>100.4</ele>
        <time>2021-08-07T09:00:16Z</time>
      </trkpt>
      <trkpt lat="47.64718" lon="-2.47214">
        <ele>100.6</ele>
        <time>2021-08-07T09:00:17Z</time>
      </trkpt>
      <trkpt lat="47.64728" lon="-2.47214">
        <ele>100.6</ele>
        <time>2021-08-07T09:00:19Z</time>
      </trkpt>
      <trkpt lat="47.64738" lon="-2.47214">
        <ele>100.6</ele>
        <time>2021-08-07T09:00:21Z</time>
      </trkpt>
      <trkpt lat="47.64748" lon="-2.47215">
        <ele>100.6</ele>
        <time>2021-08-07T09:00:23Z</time>
      </trkpt>
      <trkpt lat="47.64758" lon="-2.47215">
        <ele>100.6</ele>
        <time>2021-08-07T09:00:25Z</time>
      </trkpt>
      <trkpt lat="47.64763" lon="-2.47216">
        <ele>100.6</ele>
        <time>2021-08-07T09:00:26Z</time>
      </trkpt>
      <trkpt lat="47.64773" lon="-2.47216">
        <ele>100.6</ele>
        <time>2021-08-07T09:00:28Z</time>
      </trkpt>
      <trkpt lat="47.64783" lon="-2.47216">
        <ele>100.8</ele>
        <time>2021-08-07T09:00:30Z</time>
      </trkpt>
      <trkpt lat="47.64793" lon="-2.47217">
        <ele>100.8</ele>
        <time>2021-08-07T09:00:32Z</time>
      </trkpt>
      <trkpt lat="47.64803" lon="-2.47217">
        <ele>100.8</ele>
        <time>2021-08-07T09:00:34Z</time>
      </trkpt>
      <trkpt lat="47.64807" lon="-2.47217">
        <ele>100.8</ele>
        <time>2021-08-07T09:00:35Z</time>
      </trkpt>
      <trkpt lat="47.64817" lon="-2.47218">
        <ele>100.6</ele>
        <time>2021-08-07T09:00:37Z</time>
      </trkpt>
      <trkpt lat="47.64825" lon="-2.47219">
        <ele>100.6</ele>
        <time>2021-08-07T09:00:39Z</time>
      </trkpt>
      <trkpt lat="47.64834" lon="-2.47219">
        <ele>100.6</ele>
        <time>2021-08-07T09:00:41Z</time>
      </trkpt>
      <trkpt lat="47.64839" lon="-2.47219">
        <ele>100.6</ele>
        <time>2021-08-07T09:00:42Z</time>
      </trkpt>
      <trkpt lat="47.64843" lon="-2.47219">
        <ele>100.6</ele>
        <time>2021-08-07T09:00:43Z</time>
      </trkpt>
      <trkpt lat="47.64848" lon="-2.4722">
        <ele>100.4</ele>
        <time>2021-08-07T09:00:44Z</time>
      </trkpt>
      <trkpt lat="47.64857" lon="-2.4722">
        <ele>100.4</ele>
        <time>2021-08-07T09:00:46Z</time>
      </trkpt>
      <trkpt lat="47.64867" lon="-2.4722">
        <ele>100.4</ele>
        <time>2021-08-07T09:00:48Z</time>
      </trkpt>
      <trkpt lat="47.64877" lon="-2.4722">
        <ele>100.2</ele>
        <time>2021-08-07T09:00:50Z</time>
      </trkpt>
      <trkpt lat="47.64887" lon="-2.47219">
        <ele>100.2</ele>
        <time>2021-08-07T09:00:52Z</time>
      </trkpt>
      <trkpt lat="47.64893" lon="-2.47219">
        <ele>100.2</ele>
        <time>2021-08-07T09:00:53Z</time>
      </trkpt>
      <trkpt lat="47.64898" lon="-2.47218">
        <ele>100.2</ele>
        <time>2021-08-07T09:00:54Z</time>
      </trkpt>
      <trkpt lat="47.64903" lon="-2.47217">
        <ele>100</ele>
        <time>2021-08-07T09:00:55Z</time>
      </trkpt>
      <trkpt lat="47.64913" lon="-2.47213">
        <ele>100</ele>
        <time>2021-08-07T09:00:57Z</time>
      </trkpt>
      <trkpt lat="47.64923" lon="-2.47209">
        <ele>100</ele>
        <time>2021-08-07T09:00:59Z</time>
      </trkpt>
      <trkpt lat="47.64928" lon="-2.47206">
        <ele>100</ele>
        <time>2021-08-07T09:01:00Z</time>
      </trkpt>
      <trkpt lat="47.64932" lon="-2.47202">
        <ele>100</ele>
        <time>2021-08-07T09:01:01Z</time>
      </trkpt>
      <trkpt lat="47.64937" lon="-2.47199">
        <ele>100</ele>
        <time>2021-08-07T09:01:02Z</time>
      </trkpt>
      <trkpt lat="47.64945" lon="-2.47193">
        <ele>100</ele>
        <time>2021-08-07T09:01:04Z</time>
      </trkpt>
      <trkpt lat="47.64953" lon="-2.47186">
        <ele>100.2</ele>
        <time>2021-08-07T09:01:06Z</time>
      </trkpt>
      <trkpt lat="47.64957" lon="-2.47182">
        <ele>100.4</ele>
        <time>2021-08-07T09:01:07Z</time>
      </trkpt>
      <trkpt lat="47.64965" lon="-2.47176">
        <ele>100.6</ele>
        <time>2021-08-07T09:01:09Z</time>
      </trkpt>
      <trkpt lat="47.64973" lon="-2.47169">
        <ele>100.8</ele>
        <time>2021-08-07T09:01:11Z</time>
      </trkpt>
      <trkpt lat="47.6498" lon="-2.47162">
        <ele>101</ele>
        <time>2021-08-07T09:01:13Z</time>
      </trkpt>
      <trkpt lat="47.64984" lon="-2.47159">
        <ele>101</ele>
        <time>2021-08-07T09:01:14Z</time>
      </trkpt>
      <trkpt lat="47.64991" lon="-2.47153">
        <ele>101</ele>
        <time>2021-08-07T09:01:16Z</time>
      </trkpt>
      <trkpt lat="47.64995" lon="-2.47149">
        <ele>101.2</ele>
        <time>2021-08-07T09:01:17Z</time>
      </trkpt>
      <trkpt lat="47.64999" lon="-2.47146">
        <ele>101.2</ele>
        <time>2021-08-07T09:01:18Z</time>
      </trkpt>
      <trkpt lat="47.65003" lon="-2.47143">
        <ele>101.2</ele>
        <time>2021-08-07T09:01:19Z</time>
      </trkpt>
      <trkpt lat="47.6501" lon="-2.47136">
        <ele>101.6</ele>
        <time>2021-08-07T09:01:21Z</time>
      </trkpt>
      <trkpt lat="47.65017" lon="-2.4713">
        <ele>101.6</ele>
        <time>2021-08-07T09:01:23Z</time>
      </trkpt>
      <trkpt lat="47.65024" lon="-2.47124">
        <ele>101.6</ele>
        <time>2021-08-07T09:01:25Z</time>
      </trkpt>
      <trkpt lat="47.65028" lon="-2.4712">
        <ele>101.6</ele>
        <time>2021-08-07T09:01:26Z</time>
      </trkpt>
      <trkpt lat="47.65035" lon="-2.47114">
        <ele>101.6</ele>
        <time>2021-08-07T09:01:28Z</time>
      </trkpt>
      <trkpt lat="47.65043" lon="-2.47108">
        <ele>101.8</ele>
        <time>2021-08-07T09:01:30Z</time>
      </trkpt>
      <trkpt lat="47.65047" lon="-2.47104">
        <ele>101.8</ele>
        <time>2021-08-07T09:01:31Z</time>
      </trkpt>
      <trkpt lat="47.65054" lon="-2.47098">
        <ele>102.2</ele>
        <time>2021-08-07T09:01:33Z</time>
      </trkpt>
      <trkpt lat="47.65061" lon="-2.47092">
        <ele>102.4</ele>
        <time>2021-08-07T09:01:35Z</time>
      </trkpt>
      <trkpt lat="47.65064" lon="-2.47089">
        <ele>102.4</ele>
        <time>2021-08-07T09:01:36Z</time>
      </trkpt>
      <trkpt lat="47.65071" lon="-2.47083">
        <ele>102.4</ele>
        <time>2021-08-07T09:01:38Z</time>
      </trkpt>
      <trkpt lat="47.65078" lon="-2.47077">
        <ele>102.4</ele>
        <time>2021-08-07T09:01:40Z</time>
      </trkpt>
      <trkpt lat="47.65081" lon="-2.47074">
        <ele>102.6</ele>
        <time>2021-08-07T09:01:41Z</time>
      </trkpt>
      <trkpt lat="47.65085" lon="-2.47072">
        <ele>102.6</ele>
        <time>2021-08-07T09:01:42Z</time>
      </trkpt>
      <trkpt lat="47.65088" lon="-2.47069">
        <ele>102.8</ele>
        <time>2021-08-07T09:01:43Z</time>
      </trkpt>
      <trkpt lat="47.65094" lon="-2.47064">
        <ele>102.8</ele>
        <time>2021-08-07T09:01:45Z</time>
      </trkpt>
      <trkpt lat="47.651" lon="-2.47059">
        <ele>102.6</ele>
        <time>2021-08-07T09:01:47Z</time>
      </trkpt>
      <trkpt lat="47.65103" lon="-2.47056">
        <ele>102.8</ele>
        <time>2021-08-07T09:01:48Z</time>
      </trkpt>
      <trkpt lat="47.65109" lon="-2.47051">
        <ele>102.8</ele>
        <time>2021-08-07T09:01:50Z</time>
      </trkpt>
      <trkpt lat="47.65112" lon="-2.47049">
        <ele>102.8</ele>
        <time>2021-08-07T09:01:51Z</time>
      </trkpt>
      <trkpt lat="47.65115" lon="-2.47047">
        <ele>102.8</ele>
        <time>2021-08-07T09:01:52Z</time>
      </trkpt>
      <trkpt lat="47.65118" lon="-2.47044">
        <ele>102.8</ele>
        <time>2021-08-07T09:01:53Z</time>
      </trkpt>
      <trkpt lat="47.65122" lon="-2.47042">
        <ele>102.8</ele>
        <time>2021-08-07T09:01:54Z</time>
      </trkpt>
      <trkpt lat="47.65125" lon="-2.47039">
        <ele>102.8</ele>
        <time>2021-08-07T09:01:55Z</time>
      </trkpt>
      <trkpt lat="47.65133" lon="-2.47034">
        <ele>102.8</ele>
        <time>2021-08-07T09:01:57Z</time>
      </trkpt>
      <trkpt lat="47.65141" lon="-2.47029">
        <ele>102.8</ele>
        <time>2021-08-07T09:01:59Z</time>
      </trkpt>
      <trkpt lat="47.65144" lon="-2.47026">
        <ele>102.8</ele>
        <time>2021-08-07T09:02:00Z</time>
      </trkpt>
      <trkpt lat="47.65152" lon="-2.47022">
        <ele>102.6</ele>
        <time>2021-08-07T09:02:02Z</time>
      </trkpt>
      <trkpt lat="47.65161" lon="-2.47018">
        <ele>102.4</ele>
        <time>2021-08-07T09:02:04Z</time>
      </trkpt>
      <trkpt lat="47.65169" lon="-2.47014">
        <ele>102</ele>
        <time>2021-08-07T09:02:06Z</time>
      </trkpt>
      <trkpt lat="47.65173" lon="-2.47012">
        <ele>101.8</ele>
        <time>2021-08-07T09:02:07Z</time>
      </trkpt>
      <trkpt lat="47.65178" lon="-2.47009">
        <ele>101.6</ele>
        <time>2021-08-07T09:02:08Z</time>
      </trkpt>
      <trkpt lat="47.65182" lon="-2.47007">
        <ele>101.4</ele>
        <time>2021-08-07T09:02:09Z</time>
      </trkpt>
      <trkpt lat="47.65192" lon="-2.47003">
        <ele>101.2</ele>
        <time>2021-08-07T09:02:11Z</time>
      </trkpt>
      <trkpt lat="47.65198" lon="-2.47001">
        <ele>101.2</ele>
        <time>2021-08-07T09:02:12Z</time>
      </trkpt>
      <trkpt lat="47.6521" lon="-2.46997">
        <ele>100.8</ele>
        <time>2021-08-07T09:02:14Z</time>
      </trkpt>
      <trkpt lat="47.65224" lon="-2.46993">
        <ele>100.6</ele>
        <time>2021-08-07T09:02:16Z</time>
      </trkpt>
      <trkpt lat="47.65238" lon="-2.4699">
        <ele>100.2</ele>
        <time>2021-08-07T09:02:18Z</time>
      </trkpt>
      <trkpt lat="47.65246" lon="-2.46988">
        <ele>100</ele>
        <time>2021-08-07T09:02:19Z</time>
      </trkpt>
      <trkpt lat="47.65253" lon="-2.46986">
        <ele>99.8</ele>
        <time>2021-08-07T09:02:20Z</time>
      </trkpt>
      <trkpt lat="47.65261" lon="-2.46984">
        <ele>99.4</ele>
        <time>2021-08-07T09:02:21Z</time>
      </trkpt>
      <trkpt lat="47.65275" lon="-2.46981">
        <ele>98.8</ele>
        <time>2021-08-07T09:02:23Z</time>
      </trkpt>
      <trkpt lat="47.65282" lon="-2.46979">
        <ele>98.4</ele>
        <time>2021-08-07T09:02:24Z</time>
      </trkpt>
      <trkpt lat="47.65289" lon="-2.46978">
        <ele>98</ele>
        <time>2021-08-07T09:02:25Z</time>
      </trkpt>
      <trkpt lat="47.65296" lon="-2.46976">
        <ele>97.8</ele>
        <time>2021-08-07T09:02:26Z</time>
      </trkpt>
      <trkpt lat="47.65309" lon="-2.46972">
        <ele>97.4</ele>
        <time>2021-08-07T09:02:28Z</time>
      </trkpt>
      <trkpt lat="47.65315" lon="-2.4697">
        <ele>97.2</ele>
        <time>2021-08-07T09:02:29Z</time>
      </trkpt>
      <trkpt lat="47.65321" lon="-2.46968">
        <ele>97</ele>
        <time>2021-08-07T09:02:30Z</time>
      </trkpt>
      <trkpt lat="47.65326" lon="-2.46966">
        <ele>97</ele>
        <time>2021-08-07T09:02:31Z</time>
      </trkpt>
      <trkpt lat="47.65335" lon="-2.46964">
        <ele>96.8</ele>
        <time>2021-08-07T09:02:33Z</time>
      </trkpt>
      <trkpt lat="47.6534" lon="-2.46963">
        <ele>96.8</ele>
        <time>2021-08-07T09:02:34Z</time>
      </trkpt>
      <trkpt lat="47.65344" lon="-2.46962">
        <ele>96.8</ele>
        <time>2021-08-07T09:02:35Z</time>
      </trkpt>
      <trkpt lat="47.65347" lon="-2.46961">
        <ele>96.8</ele>
        <time>2021-08-07T09:02:36Z</time>
      </trkpt>
      <trkpt lat="47.65351" lon="-2.46959">
        <ele>96.8</ele>
        <time>2021-08-07T09:02:37Z</time>
      </trkpt>
      <trkpt lat="47.65354" lon="-2.46958">
        <ele>96.8</ele>
        <time>2021-08-07T09:02:38Z</time>
      </trkpt>
      <trkpt lat="47.65359" lon="-2.46955">
        <ele>97.4</ele>
        <time>2021-08-07T09:02:40Z</time>
      </trkpt>
      <trkpt lat="47.65362" lon="-2.46954">
        <ele>97.8</ele>
        <time>2021-08-07T09:02:41Z</time>
      </trkpt>
      <trkpt lat="47.65365" lon="-2.46953">
        <ele>98.2</ele>
        <time>2021-08-07T09:02:42Z</time>
      </trkpt>
      <trkpt lat="47.65369" lon="-2.46952">
        <ele>98.4</ele>
        <time>2021-08-07T09:02:43Z</time>
      </trkpt>
      <trkpt lat="47.65378" lon="-2.4695">
        <ele>99</ele>
        <time>2021-08-07T09:02:45Z</time>
      </trkpt>
      <trkpt lat="47.65382" lon="-2.46949">
        <ele>99.4</ele>
        <time>2021-08-07T09:02:46Z</time>
      </trkpt>
      <trkpt lat="47.65385" lon="-2.46948">
        <ele>99.8</ele>
        <time>2021-08-07T09:02:47Z</time>
      </trkpt>
      <trkpt lat="47.65392" lon="-2.46944">
        <ele>100</ele>
        <time>2021-08-07T09:02:49Z</time>
      </trkpt>
      <trkpt lat="47.65395" lon="-2.46942">
        <ele>100.2</ele>
        <time>2021-08-07T09:02:50Z</time>
      </trkpt>
      <trkpt lat="47.65404" lon="-2.46939">
        <ele>100.8</ele>
        <time>2021-08-07T09:02:52Z</time>
      </trkpt>
      <trkpt lat="47.65412" lon="-2.46935">
        <ele>101</ele>
        <time>2021-08-07T09:02:54Z</time>
      </trkpt>
      <trkpt lat="47.65416" lon="-2.46933">
        <ele>101.2</ele>
        <time>2021-08-07T09:02:55Z</time>
      </trkpt>
      <trkpt lat="47.65421" lon="-2.46931">
        <ele>101.4</ele>
        <time>2021-08-07T09:02:56Z</time>
      </trkpt>
      <trkpt lat="47.65424" lon="-2.46929">
        <ele>101.6</ele>
        <time>2021-08-07T09:02:57Z</time>
      </trkpt>
      <trkpt lat="47.65431" lon="-2.46924">
        <ele>101.8</ele>
        <time>2021-08-07T09:02:59Z</time>
      </trkpt>
      <trkpt lat="47.65437" lon="-2.46918">
        <ele>102</ele>
        <time>2021-08-07T09:03:01Z</time>
      </trkpt>
      <trkpt lat="47.65439" lon="-2.46916">
        <ele>102</ele>
        <time>2021-08-07T09:03:02Z</time>
      </trkpt>
      <trkpt lat="47.65447" lon="-2.4691">
        <ele>102.2</ele>
        <time>2021-08-07T09:03:04Z</time>
      </trkpt>
      <trkpt lat="47.6545" lon="-2.46906">
        <ele>102.2</ele>
        <time>2021-08-07T09:03:05Z</time>
      </trkpt>
      <trkpt lat="47.65454" lon="-2.46904">
        <ele>102.4</ele>
        <time>2021-08-07T09:03:06Z</time>
      </trkpt>
      <trkpt lat="47.65458" lon="-2.46901">
        <ele>102.4</ele>
        <time>2021-08-07T09:03:07Z</time>
      </trkpt>
      <trkpt lat="47.65466" lon="-2.46894">
        <ele>102.6</ele>
        <time>2021-08-07T09:03:09Z</time>
      </trkpt>
      <trkpt lat="47.65474" lon="-2.46888">
        <ele>102.8</ele>
        <time>2021-08-07T09:03:11Z</time>
      </trkpt>
      <trkpt lat="47.65478" lon="-2.46885">
        <ele>102.8</ele>
        <time>2021-08-07T09:03:12Z</time>
      </trkpt>
      <trkpt lat="47.65481" lon="-2.46883">
        <ele>102.8</ele>
        <time>2021-08-07T09:03:13Z</time>
      </trkpt>
      <trkpt lat="47.65484" lon="-2.4688">
        <ele>103</ele>
        <time>2021-08-07T09:03:14Z</time>
      </trkpt>
      <trkpt lat="47.65491" lon="-2.46874">
        <ele>103.2</ele>
        <time>2021-08-07T09:03:16Z</time>
      </trkpt>
      <trkpt lat="47.65497" lon="-2.46869">
        <ele>103.4</ele>
        <time>2021-08-07T09:03:18Z</time>
      </trkpt>
      <trkpt lat="47.655" lon="-2.46866">
        <ele>103.6</ele>
        <time>2021-08-07T09:03:19Z</time>
      </trkpt>
      <trkpt lat="47.65502" lon="-2.46864">
        <ele>103.6</ele>
        <time>2021-08-07T09:03:20Z</time>
      </trkpt>
      <trkpt lat="47.65505" lon="-2.46861">
        <ele>103.8</ele>
        <time>2021-08-07T09:03:21Z</time>
      </trkpt>
      <trkpt lat="47.65511" lon="-2.46856">
        <ele>104</ele>
        <time>2021-08-07T09:03:23Z</time>
      </trkpt>
      <trkpt lat="47.65516" lon="-2.4685">
        <ele>104.2</ele>
        <time>2021-08-07T09:03:25Z</time>
      </trkpt>
      <trkpt lat="47.65519" lon="-2.46847">
        <ele>104.4</ele>
        <time>2021-08-07T09:03:26Z</time>
      </trkpt>
      <trkpt lat="47.65522" lon="-2.46844">
        <ele>104.6</ele>
        <time>2021-08-07T09:03:27Z</time>
      </trkpt>
      <trkpt lat="47.65525" lon="-2.46841">
        <ele>104.8</ele>
        <time>2021-08-07T09:03:28Z</time>
      </trkpt>
      <trkpt lat="47.65531" lon="-2.46836">
        <ele>104.6</ele>
        <time>2021-08-07T09:03:30Z</time>
      </trkpt>
      <trkpt lat="47.65538" lon="-2.46829">
        <ele>104.8</ele>
        <time>2021-08-07T09:03:32Z</time>
      </trkpt>
      <trkpt lat="47.65542" lon="-2.46826">
        <ele>104.8</ele>
        <time>2021-08-07T09:03:33Z</time>
      </trkpt>
      <trkpt lat="47.6555" lon="-2.4682">
        <ele>104.8</ele>
        <time>2021-08-07T09:03:35Z</time>
      </trkpt>
      <trkpt lat="47.65556" lon="-2.46814">
        <ele>105</ele>
        <time>2021-08-07T09:03:37Z</time>
      </trkpt>
      <trkpt lat="47.65559" lon="-2.46811">
        <ele>104.8</ele>
        <time>2021-08-07T09:03:38Z</time>
      </trkpt>
      <trkpt lat="47.65565" lon="-2.46806">
        <ele>105</ele>
        <time>2021-08-07T09:03:40Z</time>
      </trkpt>
      <trkpt lat="47.65571" lon="-2.46801">
        <ele>105.2</ele>
        <time>2021-08-07T09:03:42Z</time>
      </trkpt>
      <trkpt lat="47.65574" lon="-2.46798">
        <ele>105.4</ele>
        <time>2021-08-07T09:03:43Z</time>
      </trkpt>
      <trkpt lat="47.65577" lon="-2.46795">
        <ele>105.6</ele>
        <time>2021-08-07T09:03:44Z</time>
      </trkpt>
      <trkpt lat="47.65581" lon="-2.46792">
        <ele>105.6</ele>
        <time>2021-08-07T09:03:45Z</time>
      </trkpt>
      <trkpt lat="47.65584" lon="-2.46788">
        <ele>105.8</ele>
        <time>2021-08-07T09:03:46Z</time>
      </trkpt>
      <trkpt lat="47.65588" lon="-2.46785">
        <ele>106</ele>
        <time>2021-08-07T09:03:47Z</time>
      </trkpt>
      <trkpt lat="47.65595" lon="-2.46779">
        <ele>106.2</ele>
        <time>2021-08-07T09:03:49Z</time>
      </trkpt>
      <trkpt lat="47.65598" lon="-2.46776">
        <ele>106.6</ele>
        <time>2021-08-07T09:03:50Z</time>
      </trkpt>
      <trkpt lat="47.65602" lon="-2.46773">
        <ele>106.6</ele>
        <time>2021-08-07T09:03:51Z</time>
      </trkpt>
      <trkpt lat="47.65606" lon="-2.4677">
        <ele>106.8</ele>
        <time>2021-08-07T09:03:52Z</time>
      </trkpt>
      <trkpt lat="47.65613" lon="-2.46765">
        <ele>107</ele>
        <time>2021-08-07T09:03:54Z</time>
      </trkpt>
      <trkpt lat="47.65621" lon="-2.46759">
        <ele>107</ele>
        <time>2021-08-07T09:03:56Z</time>
      </trkpt>
      <trkpt lat="47.65627" lon="-2.46753">
        <ele>107.2</ele>
        <time>2021-08-07T09:03:58Z</time>
      </trkpt>
      <trkpt lat="47.65631" lon="-2.46749">
        <ele>107.2</ele>
        <time>2021-08-07T09:03:59Z</time>
      </trkpt>
      <trkpt lat="47.65634" lon="-2.46747">
        <ele>107.4</ele>
        <time>2021-08-07T09:04:00Z</time>
      </trkpt>
      <trkpt lat="47.65637" lon="-2.46744">
        <ele>107.4</ele>
        <time>2021-08-07T09:04:01Z</time>
      </trkpt>
      <trkpt lat="47.65644" lon="-2.46738">
        <ele>107.6</ele>
        <time>2021-08-07T09:04:03Z</time>
      </trkpt>
      <trkpt lat="47.65647" lon="-2.46735">
        <ele>107.6</ele>
        <time>2021-08-07T09:04:04Z</time>
      </trkpt>
      <trkpt lat="47.65654" lon="-2.46729">
        <ele>107.6</ele>
        <time>2021-08-07T09:04:06Z</time>
      </trkpt>
      <trkpt lat="47.65657" lon="-2.46726">
        <ele>107.8</ele>
        <time>2021-08-07T09:04:07Z</time>
      </trkpt>
      <trkpt lat="47.65661" lon="-2.46723">
        <ele>107.8</ele>
        <time>2021-08-07T09:04:08Z</time>
      </trkpt>
      <trkpt lat="47.65668" lon="-2.46716">
        <ele>108</ele>
        <time>2021-08-07T09:04:10Z</time>
      </trkpt>
      <trkpt lat="47.65672" lon="-2.46713">
        <ele>108.2</ele>
        <time>2021-08-07T09:04:11Z</time>
      </trkpt>
      <trkpt lat="47.65678" lon="-2.46707">
        <ele>108.4</ele>
        <time>2021-08-07T09:04:13Z</time>
      </trkpt>
      <trkpt lat="47.65682" lon="-2.46703">
        <ele>108.4</ele>
        <time>2021-08-07T09:04:14Z</time>
      </trkpt>
      <trkpt lat="47.65686" lon="-2.467">
        <ele>108.6</ele>
        <time>2021-08-07T09:04:15Z</time>
      </trkpt>
      <trkpt lat="47.65689" lon="-2.46696">
        <ele>108.6</ele>
        <time>2021-08-07T09:04:16Z</time>
      </trkpt>
      <trkpt lat="47.65696" lon="-2.46689">
        <ele>108.8</ele>
        <time>2021-08-07T09:04:18Z</time>
      </trkpt>
      <trkpt lat="47.65704" lon="-2.46681">
        <ele>108.8</ele>
        <time>2021-08-07T09:04:20Z</time>
      </trkpt>
      <trkpt lat="47.65707" lon="-2.46677">
        <ele>109</ele>
        <time>2021-08-07T09:04:21Z</time>
      </trkpt>
      <trkpt lat="47.65711" lon="-2.46673">
        <ele>109.2</ele>
        <time>2021-08-07T09:04:22Z</time>
      </trkpt>
      <trkpt lat="47.65715" lon="-2.46668">
        <ele>109.4</ele>
        <time>2021-08-07T09:04:23Z</time>
      </trkpt>
      <trkpt lat="47.65722" lon="-2.46659">
        <ele>109.4</ele>
        <time>2021-08-07T09:04:25Z</time>
      </trkpt>
      <trkpt lat="47.6573" lon="-2.4665">
        <ele>109.6</ele>
        <time>2021-08-07T09:04:27Z</time>
      </trkpt>
      <trkpt lat="47.65737" lon="-2.4664">
        <ele>109.6</ele>
        <time>2021-08-07T09:04:29Z</time>
      </trkpt>
      <trkpt lat="47.65741" lon="-2.46635">
        <ele>109.6</ele>
        <time>2021-08-07T09:04:30Z</time>
      </trkpt>
      <trkpt lat="47.65745" lon="-2.4663">
        <ele>109.6</ele>
        <time>2021-08-07T09:04:31Z</time>
      </trkpt>
      <trkpt lat="47.65749" lon="-2.46625">
        <ele>109.6</ele>
        <time>2021-08-07T09:04:32Z</time>
      </trkpt>
      <trkpt lat="47.65757" lon="-2.46616">
        <ele>109.6</ele>
        <time>2021-08-07T09:04:34Z</time>
      </trkpt>
      <trkpt lat="47.65761" lon="-2.46611">
        <ele>109.6</ele>
        <time>2021-08-07T09:04:35Z</time>
      </trkpt>
      <trkpt lat="47.65764" lon="-2.46605">
        <ele>109.6</ele>
        <time>2021-08-07T09:04:36Z</time>
      </trkpt>
      <trkpt lat="47.65768" lon="-2.46598">
        <ele>109.6</ele>
        <time>2021-08-07T09:04:37Z</time>
      </trkpt>
      <trkpt lat="47.65775" lon="-2.46587">
        <ele>109.6</ele>
        <time>2021-08-07T09:04:39Z</time>
      </trkpt>
      <trkpt lat="47.65779" lon="-2.46581">
        <ele>109.4</ele>
        <time>2021-08-07T09:04:40Z</time>
      </trkpt>
      <trkpt lat="47.65783" lon="-2.46574">
        <ele>109.2</ele>
        <time>2021-08-07T09:04:41Z</time>
      </trkpt>
      <trkpt lat="47.65787" lon="-2.46568">
        <ele>109</ele>
        <time>2021-08-07T09:04:42Z</time>
      </trkpt>
      <trkpt lat="47.65796" lon="-2.46556">
        <ele>108.8</ele>
        <time>2021-08-07T09:04:44Z</time>
      </trkpt>
      <trkpt lat="47.65805" lon="-2.46543">
        <ele>108.8</ele>
        <time>2021-08-07T09:04:46Z</time>
      </trkpt>
      <trkpt lat="47.65809" lon="-2.46536">
        <ele>108.6</ele>
        <time>2021-08-07T09:04:47Z</time>
      </trkpt>
      <trkpt lat="47.65819" lon="-2.46522">
        <ele>108.6</ele>
        <time>2021-08-07T09:04:49Z</time>
      </trkpt>
      <trkpt lat="47.65828" lon="-2.46507">
        <ele>108.2</ele>
        <time>2021-08-07T09:04:51Z</time>
      </trkpt>
      <trkpt lat="47.65837" lon="-2.46493">
        <ele>107.6</ele>
        <time>2021-08-07T09:04:53Z</time>
      </trkpt>
      <trkpt lat="47.65842" lon="-2.46485">
        <ele>107.4</ele>
        <time>2021-08-07T09:04:54Z</time>
      </trkpt>
      <trkpt lat="47.65851" lon="-2.4647">
        <ele>106.8</ele>
        <time>2021-08-07T09:04:56Z</time>
      </trkpt>
      <trkpt lat="47.65861" lon="-2.46454">
        <ele>105.8</ele>
        <time>2021-08-07T09:04:58Z</time>
      </trkpt>
      <trkpt lat="47.65871" lon="-2.46437">
        <ele>104.6</ele>
        <time>2021-08-07T09:05:00Z</time>
      </trkpt>
      <trkpt lat="47.65877" lon="-2.46429">
        <ele>104.2</ele>
        <time>2021-08-07T09:05:01Z</time>
      </trkpt>
      <trkpt lat="47.65883" lon="-2.4642">
        <ele>104</ele>
        <time>2021-08-07T09:05:02Z</time>
      </trkpt>
      <trkpt lat="47.65888" lon="-2.46411">
        <ele>103.8</ele>
        <time>2021-08-07T09:05:03Z</time>
      </trkpt>
      <trkpt lat="47.659" lon="-2.46394">
        <ele>103.4</ele>
        <time>2021-08-07T09:05:05Z</time>
      </trkpt>
      <trkpt lat="47.65906" lon="-2.46385">
        <ele>103</ele>
        <time>2021-08-07T09:05:06Z</time>
      </trkpt>
      <trkpt lat="47.65921" lon="-2.46368">
        <ele>102.4</ele>
        <time>2021-08-07T09:05:08Z</time>
      </trkpt>
      <trkpt lat="47.6593" lon="-2.46361">
        <ele>102.2</ele>
        <time>2021-08-07T09:05:09Z</time>
      </trkpt>
      <trkpt lat="47.6594" lon="-2.46357">
        <ele>102</ele>
        <time>2021-08-07T09:05:10Z</time>
      </trkpt>
      <trkpt lat="47.65957" lon="-2.46366">
        <ele>101.4</ele>
        <time>2021-08-07T09:05:12Z</time>
      </trkpt>
      <trkpt lat="47.65964" lon="-2.46376">
        <ele>100.8</ele>
        <time>2021-08-07T09:05:13Z</time>
      </trkpt>
      <trkpt lat="47.65976" lon="-2.464">
        <ele>99.4</ele>
        <time>2021-08-07T09:05:15Z</time>
      </trkpt>
      <trkpt lat="47.65989" lon="-2.46424">
        <ele>98.4</ele>
        <time>2021-08-07T09:05:17Z</time>
      </trkpt>
      <trkpt lat="47.66" lon="-2.46446">
        <ele>96.6</ele>
        <time>2021-08-07T09:05:19Z</time>
      </trkpt>
      <trkpt lat="47.66005" lon="-2.46457">
        <ele>95</ele>
        <time>2021-08-07T09:05:20Z</time>
      </trkpt>
      <trkpt lat="47.6601" lon="-2.46466">
        <ele>93.4</ele>
        <time>2021-08-07T09:05:21Z</time>
      </trkpt>
      <trkpt lat="47.66015" lon="-2.46475">
        <ele>92.4</ele>
        <time>2021-08-07T09:05:22Z</time>
      </trkpt>
      <trkpt lat="47.6602" lon="-2.46485">
        <ele>91.6</ele>
        <time>2021-08-07T09:05:23Z</time>
      </trkpt>
      <trkpt lat="47.66024" lon="-2.46493">
        <ele>91</ele>
        <time>2021-08-07T09:05:24Z</time>
      </trkpt>
      <trkpt lat="47.66032" lon="-2.4651">
        <ele>90.4</ele>
        <time>2021-08-07T09:05:26Z</time>
      </trkpt>
      <trkpt lat="47.66036" lon="-2.46517">
        <ele>90.4</ele>
        <time>2021-08-07T09:05:27Z</time>
      </trkpt>
      <trkpt lat="47.6604" lon="-2.46525">
        <ele>90.2</ele>
        <time>2021-08-07T09:05:28Z</time>
      </trkpt>
      <trkpt lat="47.66044" lon="-2.46531">
        <ele>90</ele>
        <time>2021-08-07T09:05:29Z</time>
      </trkpt>
      <trkpt lat="47.66051" lon="-2.46544">
        <ele>90</ele>
        <time>2021-08-07T09:05:31Z</time>
      </trkpt>
      <trkpt lat="47.66055" lon="-2.46548">
        <ele>89.8</ele>
        <time>2021-08-07T09:05:32Z</time>
      </trkpt>
      <trkpt lat="47.66059" lon="-2.46551">
        <ele>89.8</ele>
        <time>2021-08-07T09:05:33Z</time>
      </trkpt>
      <trkpt lat="47.66065" lon="-2.46549">
        <ele>89.6</ele>
        <time>2021-08-07T09:05:35Z</time>
      </trkpt>
      <trkpt lat="47.66068" lon="-2.46545">
        <ele>89.4</ele>
        <time>2021-08-07T09:05:37Z</time>
      </trkpt>
      <trkpt lat="47.66069" lon="-2.46544">
        <ele>89.4</ele>
        <time>2021-08-07T09:05:38Z</time>
      </trkpt>
      <trkpt lat="47.66069" lon="-2.46543">
        <ele>89.4</ele>
        <time>2021-08-07T09:05:39Z</time>
      </trkpt>
      <trkpt lat="47.6607" lon="-2.46543">
        <ele>89.2</ele>
        <time>2021-08-07T09:05:40Z</time>
      </trkpt>
      <trkpt lat="47.66073" lon="-2.46536">
        <ele>89</ele>
        <time>2021-08-07T09:07:38Z</time>
      </trkpt>
      <trkpt lat="47.66073" lon="-2.46533">
        <ele>89</ele>
        <time>2021-08-07T09:07:39Z</time>
      </trkpt>
      <trkpt lat="47.66073" lon="-2.4653">
        <ele>89</ele>
        <time>2021-08-07T09:07:40Z</time>
      </trkpt>
      <trkpt lat="47.66073" lon="-2.46526">
        <ele>89</ele>
        <time>2021-08-07T09:07:41Z</time>
      </trkpt>
      <trkpt lat="47.66074" lon="-2.46518">
        <ele>89</ele>
        <time>2021-08-07T09:07:43Z</time>
      </trkpt>
      <trkpt lat="47.66074" lon="-2.46514">
        <ele>89</ele>
        <time>2021-08-07T09:07:44Z</time>
      </trkpt>
      <trkpt lat="47.66073" lon="-2.46507">
        <ele>89</ele>
        <time>2021-08-07T09:07:46Z</time>
      </trkpt>
      <trkpt lat="47.66073" lon="-2.46504">
        <ele>89</ele>
        <time>2021-08-07T09:07:47Z</time>
      </trkpt>
      <trkpt lat="47.66073" lon="-2.46499">
        <ele>89.2</ele>
        <time>2021-08-07T09:07:49Z</time>
      </trkpt>
      <trkpt lat="47.66073" lon="-2.46496">
        <ele>89.2</ele>
        <time>2021-08-07T09:07:50Z</time>
      </trkpt>
      <trkpt lat="47.66073" lon="-2.4649">
        <ele>89.2</ele>
        <time>2021-08-07T09:07:52Z</time>
      </trkpt>
      <trkpt lat="47.66073" lon="-2.46486">
        <ele>89.2</ele>
        <time>2021-08-07T09:07:53Z</time>
      </trkpt>
      <trkpt lat="47.66074" lon="-2.46483">
        <ele>89.4</ele>
        <time>2021-08-07T09:07:54Z</time>
      </trkpt>
      <trkpt lat="47.66074" lon="-2.46479">
        <ele>89.6</ele>
        <time>2021-08-07T09:07:55Z</time>
      </trkpt>
      <trkpt lat="47.66074" lon="-2.46476">
        <ele>89.6</ele>
        <time>2021-08-07T09:07:56Z</time>
      </trkpt>
      <trkpt lat="47.66074" lon="-2.46472">
        <ele>89.8</ele>
        <time>2021-08-07T09:07:57Z</time>
      </trkpt>
      <trkpt lat="47.66074" lon="-2.46468">
        <ele>89.8</ele>
        <time>2021-08-07T09:07:58Z</time>
      </trkpt>
      <trkpt lat="47.66074" lon="-2.46464">
        <ele>89.8</ele>
        <time>2021-08-07T09:07:59Z</time>
      </trkpt>
      <trkpt lat="47.66074" lon="-2.46459">
        <ele>90</ele>
        <time>2021-08-07T09:08:00Z</time>
      </trkpt>
      <trkpt lat="47.66075" lon="-2.4645">
        <ele>90</ele>
        <time>2021-08-07T09:08:02Z</time>
      </trkpt>
      <trkpt lat="47.66075" lon="-2.46446">
        <ele>90</ele>
        <time>2021-08-07T09:08:03Z</time>
      </trkpt>
      <trkpt lat="47.66075" lon="-2.46437">
        <ele>90</ele>
        <time>2021-08-07T09:08:05Z</time>
      </trkpt>
      <trkpt lat="47.66076" lon="-2.46433">
        <ele>90</ele>
        <time>2021-08-07T09:08:06Z</time>
      </trkpt>
      <trkpt lat="47.66076" lon="-2.46424">
        <ele>90.2</ele>
        <time>2021-08-07T09:08:08Z</time>
      </trkpt>
      <trkpt lat="47.66076" lon="-2.46416">
        <ele>90.2</ele>
        <time>2021-08-07T09:08:10Z</time>
      </trkpt>
      <trkpt lat="47.66076" lon="-2.46412">
        <ele>90.2</ele>
        <time>2021-08-07T09:08:11Z</time>
      </trkpt>
      <trkpt lat="47.66076" lon="-2.46403">
        <ele>90.4</ele>
        <time>2021-08-07T09:08:13Z</time>
      </trkpt>
      <trkpt lat="47.66077" lon="-2.46399">
        <ele>90.4</ele>
        <time>2021-08-07T09:08:14Z</time>
      </trkpt>
      <trkpt lat="47.66077" lon="-2.46391">
        <ele>90.6</ele>
        <time>2021-08-07T09:08:16Z</time>
      </trkpt>
      <trkpt lat="47.66077" lon="-2.46387">
        <ele>90.8</ele>
        <time>2021-08-07T09:08:17Z</time>
      </trkpt>
      <trkpt lat="47.66077" lon="-2.46383">
        <ele>90.8</ele>
        <time>2021-08-07T09:08:18Z</time>
      </trkpt>
      <trkpt lat="47.66077" lon="-2.46379">
        <ele>90.8</ele>
        <time>2021-08-07T09:08:19Z</time>
      </trkpt>
      <trkpt lat="47.66077" lon="-2.46371">
        <ele>91</ele>
        <time>2021-08-07T09:08:21Z</time>
      </trkpt>
      <trkpt lat="47.66078" lon="-2.46368">
        <ele>91.2</ele>
        <time>2021-08-07T09:08:22Z</time>
      </trkpt>
      <trkpt lat="47.66078" lon="-2.4636">
        <ele>91.4</ele>
        <time>2021-08-07T09:08:24Z</time>
      </trkpt>
      <trkpt lat="47.66078" lon="-2.46353">
        <ele>91.8</ele>
        <time>2021-08-07T09:08:26Z</time>
      </trkpt>
      <trkpt lat="47.66078" lon="-2.46349">
        <ele>92</ele>
        <time>2021-08-07T09:08:27Z</time>
      </trkpt>
      <trkpt lat="47.66079" lon="-2.46342">
        <ele>92.2</ele>
        <time>2021-08-07T09:08:29Z</time>
      </trkpt>
      <trkpt lat="47.66079" lon="-2.46338">
        <ele>92.4</ele>
        <time>2021-08-07T09:08:30Z</time>
      </trkpt>
      <trkpt lat="47.66079" lon="-2.4633">
        <ele>92.6</ele>
        <time>2021-08-07T09:08:32Z</time>
      </trkpt>
      <trkpt lat="47.66079" lon="-2.46323">
        <ele>92.8</ele>
        <time>2021-08-07T09:08:34Z</time>
      </trkpt>
      <trkpt lat="47.66079" lon="-2.46319">
        <ele>92.8</ele>
        <time>2021-08-07T09:08:35Z</time>
      </trkpt>
      <trkpt lat="47.66079" lon="-2.46316">
        <ele>93</ele>
        <time>2021-08-07T09:08:36Z</time>
      </trkpt>
      <trkpt lat="47.6608" lon="-2.46308">
        <ele>93.4</ele>
        <time>2021-08-07T09:08:38Z</time>
      </trkpt>
      <trkpt lat="47.66081" lon="-2.46301">
        <ele>93.6</ele>
        <time>2021-08-07T09:08:40Z</time>
      </trkpt>
      <trkpt lat="47.66081" lon="-2.46293">
        <ele>93.8</ele>
        <time>2021-08-07T09:08:42Z</time>
      </trkpt>
      <trkpt lat="47.66082" lon="-2.46289">
        <ele>94</ele>
        <time>2021-08-07T09:08:43Z</time>
      </trkpt>
      <trkpt lat="47.66082" lon="-2.46285">
        <ele>94.2</ele>
        <time>2021-08-07T09:08:44Z</time>
      </trkpt>
      <trkpt lat="47.66083" lon="-2.46278">
        <ele>94.6</ele>
        <time>2021-08-07T09:08:46Z</time>
      </trkpt>
      <trkpt lat="47.66083" lon="-2.46271">
        <ele>94.8</ele>
        <time>2021-08-07T09:08:48Z</time>
      </trkpt>
      <trkpt lat="47.66083" lon="-2.46263">
        <ele>95.2</ele>
        <time>2021-08-07T09:08:50Z</time>
      </trkpt>
      <trkpt lat="47.66084" lon="-2.46256">
        <ele>95.4</ele>
        <time>2021-08-07T09:08:52Z</time>
      </trkpt>
      <trkpt lat="47.66084" lon="-2.46249">
        <ele>95.6</ele>
        <time>2021-08-07T09:08:54Z</time>
      </trkpt>
      <trkpt lat="47.66084" lon="-2.46241">
        <ele>95.8</ele>
        <time>2021-08-07T09:08:56Z</time>
      </trkpt>
      <trkpt lat="47.66084" lon="-2.46234">
        <ele>96</ele>
        <time>2021-08-07T09:08:58Z</time>
      </trkpt>
      <trkpt lat="47.66084" lon="-2.46227">
        <ele>96.4</ele>
        <time>2021-08-07T09:09:00Z</time>
      </trkpt>
      <trkpt lat="47.66084" lon="-2.46219">
        <ele>96.6</ele>
        <time>2021-08-07T09:09:02Z</time>
      </trkpt>
      <trkpt lat="47.66084" lon="-2.46212">
        <ele>97</ele>
        <time>2021-08-07T09:09:04Z</time>
      </trkpt>
      <trkpt lat="47.66084" lon="-2.46208">
        <ele>97</ele>
        <time>2021-08-07T09:09:05Z</time>
      </trkpt>
      <trkpt lat="47.66084" lon="-2.46204">
        <ele>97.2</ele>
        <time>2021-08-07T09:09:06Z</time>
      </trkpt>
      <trkpt lat="47.66084" lon="-2.46197">
        <ele>97.4</ele>
        <time>2021-08-07T09:09:08Z</time>
      </trkpt>
      <trkpt lat="47.66085" lon="-2.4619">
        <ele>97.6</ele>
        <time>2021-08-07T09:09:10Z</time>
      </trkpt>
      <trkpt lat="47.66085" lon="-2.46182">
        <ele>98</ele>
        <time>2021-08-07T09:09:12Z</time>
      </trkpt>
      <trkpt lat="47.66085" lon="-2.46175">
        <ele>98.4</ele>
        <time>2021-08-07T09:09:14Z</time>
      </trkpt>
      <trkpt lat="47.66085" lon="-2.46171">
        <ele>98.4</ele>
        <time>2021-08-07T09:09:15Z</time>
      </trkpt>
      <trkpt lat="47.66085" lon="-2.46167">
        <ele>98.6</ele>
        <time>2021-08-07T09:09:16Z</time>
      </trkpt>
      <trkpt lat="47.66085" lon="-2.4616">
        <ele>98.6</ele>
        <time>2021-08-07T09:09:18Z</time>
      </trkpt>
      <trkpt lat="47.66085" lon="-2.46152">
        <ele>99</ele>
        <time>2021-08-07T09:09:20Z</time>
      </trkpt>
      <trkpt lat="47.66085" lon="-2.46144">
        <ele>99.2</ele>
        <time>2021-08-07T09:09:22Z</time>
      </trkpt>
      <trkpt lat="47.66086" lon="-2.46136">
        <ele>99.2</ele>
        <time>2021-08-07T09:09:24Z</time>
      </trkpt>
      <trkpt lat="47.66086" lon="-2.46133">
        <ele>99.4</ele>
        <time>2021-08-07T09:09:25Z</time>
      </trkpt>
      <trkpt lat="47.66086" lon="-2.46129">
        <ele>99.4</ele>
        <time>2021-08-07T09:09:26Z</time>
      </trkpt>
      <trkpt lat="47.66086" lon="-2.46121">
        <ele>99.4</ele>
        <time>2021-08-07T09:09:28Z</time>
      </trkpt>
      <trkpt lat="47.66086" lon="-2.46117">
        <ele>99.6</ele>
        <time>2021-08-07T09:09:29Z</time>
      </trkpt>
      <trkpt lat="47.66086" lon="-2.46114">
        <ele>99.8</ele>
        <time>2021-08-07T09:09:30Z</time>
      </trkpt>
      <trkpt lat="47.66086" lon="-2.46106">
        <ele>99.8</ele>
        <time>2021-08-07T09:09:32Z</time>
      </trkpt>
      <trkpt lat="47.66086" lon="-2.46099">
        <ele>100</ele>
        <time>2021-08-07T09:09:34Z</time>
      </trkpt>
      <trkpt lat="47.66087" lon="-2.46095">
        <ele>100</ele>
        <time>2021-08-07T09:09:35Z</time>
      </trkpt>
      <trkpt lat="47.66087" lon="-2.46092">
        <ele>100.2</ele>
        <time>2021-08-07T09:09:36Z</time>
      </trkpt>
      <trkpt lat="47.66088" lon="-2.46085">
        <ele>100.2</ele>
        <time>2021-08-07T09:09:38Z</time>
      </trkpt>
      <trkpt lat="47.66089" lon="-2.46082">
        <ele>100.6</ele>
        <time>2021-08-07T09:09:39Z</time>
      </trkpt>
      <trkpt lat="47.66091" lon="-2.46078">
        <ele>100.8</ele>
        <time>2021-08-07T09:09:40Z</time>
      </trkpt>
      <trkpt lat="47.66093" lon="-2.46072">
        <ele>101.2</ele>
        <time>2021-08-07T09:09:42Z</time>
      </trkpt>
      <trkpt lat="47.66093" lon="-2.46068">
        <ele>101.4</ele>
        <time>2021-08-07T09:09:43Z</time>
      </trkpt>
      <trkpt lat="47.66093" lon="-2.46064">
        <ele>101.6</ele>
        <time>2021-08-07T09:09:44Z</time>
      </trkpt>
      <trkpt lat="47.66093" lon="-2.4606">
        <ele>101.6</ele>
        <time>2021-08-07T09:09:45Z</time>
      </trkpt>
      <trkpt lat="47.66094" lon="-2.46056">
        <ele>101.8</ele>
        <time>2021-08-07T09:09:46Z</time>
      </trkpt>
      <trkpt lat="47.66098" lon="-2.4605">
        <ele>101.8</ele>
        <time>2021-08-07T09:09:48Z</time>
      </trkpt>
      <trkpt lat="47.66101" lon="-2.46048">
        <ele>101.8</ele>
        <time>2021-08-07T09:09:49Z</time>
      </trkpt>
      <trkpt lat="47.66103" lon="-2.46047">
        <ele>102</ele>
        <time>2021-08-07T09:09:50Z</time>
      </trkpt>
      <trkpt lat="47.66105" lon="-2.46046">
        <ele>102.2</ele>
        <time>2021-08-07T09:09:51Z</time>
      </trkpt>
      <trkpt lat="47.6611" lon="-2.46046">
        <ele>102.4</ele>
        <time>2021-08-07T09:09:53Z</time>
      </trkpt>
      <trkpt lat="47.66112" lon="-2.46046">
        <ele>102.4</ele>
        <time>2021-08-07T09:09:54Z</time>
      </trkpt>
      <trkpt lat="47.66115" lon="-2.46046">
        <ele>102.6</ele>
        <time>2021-08-07T09:09:55Z</time>
      </trkpt>
      <trkpt lat="47.66117" lon="-2.46046">
        <ele>102.6</ele>
        <time>2021-08-07T09:09:56Z</time>
      </trkpt>
      <trkpt lat="47.66121" lon="-2.46046">
        <ele>102.6</ele>
        <time>2021-08-07T09:09:58Z</time>
      </trkpt>
      <trkpt lat="47.66123" lon="-2.46045">
        <ele>102.6</ele>
        <time>2021-08-07T09:09:59Z</time>
      </trkpt>
      <trkpt lat="47.66125" lon="-2.46045">
        <ele>102.8</ele>
        <time>2021-08-07T09:10:00Z</time>
      </trkpt>
      <trkpt lat="47.66127" lon="-2.46045">
        <ele>102.8</ele>
        <time>2021-08-07T09:10:01Z</time>
      </trkpt>
      <trkpt lat="47.66128" lon="-2.46044">
        <ele>102.8</ele>
        <time>2021-08-07T09:10:02Z</time>
      </trkpt>
      <trkpt lat="47.6613" lon="-2.46044">
        <ele>102.8</ele>
        <time>2021-08-07T09:10:03Z</time>
      </trkpt>
      <trkpt lat="47.66134" lon="-2.46044">
        <ele>103.2</ele>
        <time>2021-08-07T09:10:05Z</time>
      </trkpt>
      <trkpt lat="47.66135" lon="-2.46043">
        <ele>103.6</ele>
        <time>2021-08-07T09:10:06Z</time>
      </trkpt>
      <trkpt lat="47.66139" lon="-2.46042">
        <ele>103.8</ele>
        <time>2021-08-07T09:10:08Z</time>
      </trkpt>
      <trkpt lat="47.66141" lon="-2.46042">
        <ele>104</ele>
        <time>2021-08-07T09:10:09Z</time>
      </trkpt>
      <trkpt lat="47.66143" lon="-2.46041">
        <ele>104.2</ele>
        <time>2021-08-07T09:10:10Z</time>
      </trkpt>
      <trkpt lat="47.66145" lon="-2.4604">
        <ele>104.4</ele>
        <time>2021-08-07T09:10:11Z</time>
      </trkpt>
      <trkpt lat="47.6615" lon="-2.46039">
        <ele>105</ele>
        <time>2021-08-07T09:10:13Z</time>
      </trkpt>
      <trkpt lat="47.66153" lon="-2.46036">
        <ele>105.2</ele>
        <time>2021-08-07T09:10:15Z</time>
      </trkpt>
      <trkpt lat="47.66155" lon="-2.46035">
        <ele>105.4</ele>
        <time>2021-08-07T09:10:16Z</time>
      </trkpt>
      <trkpt lat="47.66157" lon="-2.46034">
        <ele>105.4</ele>
        <time>2021-08-07T09:10:17Z</time>
      </trkpt>
      <trkpt lat="47.66159" lon="-2.46032">
        <ele>105.6</ele>
        <time>2021-08-07T09:10:18Z</time>
      </trkpt>
      <trkpt lat="47.66163" lon="-2.46029">
        <ele>105.8</ele>
        <time>2021-08-07T09:10:20Z</time>
      </trkpt>
      <trkpt lat="47.66166" lon="-2.46026">
        <ele>105.8</ele>
        <time>2021-08-07T09:10:22Z</time>
      </trkpt>
      <trkpt lat="47.66169" lon="-2.46024">
        <ele>106</ele>
        <time>2021-08-07T09:10:23Z</time>
      </trkpt>
      <trkpt lat="47.66171" lon="-2.46023">
        <ele>106.2</ele>
        <time>2021-08-07T09:10:24Z</time>
      </trkpt>
      <trkpt lat="47.66173" lon="-2.46022">
        <ele>106.4</ele>
        <time>2021-08-07T09:10:25Z</time>
      </trkpt>
      <trkpt lat="47.66176" lon="-2.46019">
        <ele>106.8</ele>
        <time>2021-08-07T09:10:27Z</time>
      </trkpt>
      <trkpt lat="47.66177" lon="-2.46019">
        <ele>107</ele>
        <time>2021-08-07T09:10:28Z</time>
      </trkpt>
      <trkpt lat="47.66178" lon="-2.46018">
        <ele>107.2</ele>
        <time>2021-08-07T09:10:29Z</time>
      </trkpt>
      <trkpt lat="47.66179" lon="-2.46017">
        <ele>107.2</ele>
        <time>2021-08-07T09:10:30Z</time>
      </trkpt>
      <trkpt lat="47.66181" lon="-2.46016">
        <ele>107.4</ele>
        <time>2021-08-07T09:10:31Z</time>
      </trkpt>
      <trkpt lat="47.66183" lon="-2.46014">
        <ele>107.6</ele>
        <time>2021-08-07T09:10:32Z</time>
      </trkpt>
      <trkpt lat="47.66185" lon="-2.46013">
        <ele>107.8</ele>
        <time>2021-08-07T09:10:33Z</time>
      </trkpt>
      <trkpt lat="47.66188" lon="-2.46009">
        <ele>108</ele>
        <time>2021-08-07T09:10:35Z</time>
      </trkpt>
      <trkpt lat="47.66192" lon="-2.46006">
        <ele>108.2</ele>
        <time>2021-08-07T09:10:37Z</time>
      </trkpt>
      <trkpt lat="47.66196" lon="-2.46003">
        <ele>108.2</ele>
        <time>2021-08-07T09:10:39Z</time>
      </trkpt>
      <trkpt lat="47.66198" lon="-2.46001">
        <ele>108.2</ele>
        <time>2021-08-07T09:10:40Z</time>
      </trkpt>
      <trkpt lat="47.66204" lon="-2.45998">
        <ele>108.2</ele>
        <time>2021-08-07T09:10:42Z</time>
      </trkpt>
      <trkpt lat="47.6621" lon="-2.45995">
        <ele>108.2</ele>
        <time>2021-08-07T09:10:44Z</time>
      </trkpt>
      <trkpt lat="47.66216" lon="-2.45993">
        <ele>108.2</ele>
        <time>2021-08-07T09:10:46Z</time>
      </trkpt>
      <trkpt lat="47.66219" lon="-2.45992">
        <ele>108.4</ele>
        <time>2021-08-07T09:10:47Z</time>
      </trkpt>
      <trkpt lat="47.66227" lon="-2.45989">
        <ele>108.4</ele>
        <time>2021-08-07T09:10:49Z</time>
      </trkpt>
      <trkpt lat="47.66235" lon="-2.45987">
        <ele>108.2</ele>
        <time>2021-08-07T09:10:51Z</time>
      </trkpt>
      <trkpt lat="47.6624" lon="-2.45985">
        <ele>108.2</ele>
        <time>2021-08-07T09:10:52Z</time>
      </trkpt>
      <trkpt lat="47.66249" lon="-2.45983">
        <ele>108.2</ele>
        <time>2021-08-07T09:10:54Z</time>
      </trkpt>
      <trkpt lat="47.66259" lon="-2.4598">
        <ele>108.2</ele>
        <time>2021-08-07T09:10:56Z</time>
      </trkpt>
      <trkpt lat="47.66264" lon="-2.45978">
        <ele>108.2</ele>
        <time>2021-08-07T09:10:57Z</time>
      </trkpt>
      <trkpt lat="47.66274" lon="-2.45975">
        <ele>108.2</ele>
        <time>2021-08-07T09:10:59Z</time>
      </trkpt>
      <trkpt lat="47.66285" lon="-2.45972">
        <ele>107.8</ele>
        <time>2021-08-07T09:11:01Z</time>
      </trkpt>
      <trkpt lat="47.6629" lon="-2.4597">
        <ele>107.6</ele>
        <time>2021-08-07T09:11:02Z</time>
      </trkpt>
      <trkpt lat="47.66301" lon="-2.45967">
        <ele>107.2</ele>
        <time>2021-08-07T09:11:04Z</time>
      </trkpt>
      <trkpt lat="47.66312" lon="-2.45961">
        <ele>107</ele>
        <time>2021-08-07T09:11:06Z</time>
      </trkpt>
      <trkpt lat="47.66318" lon="-2.45956">
        <ele>107</ele>
        <time>2021-08-07T09:11:07Z</time>
      </trkpt>
      <trkpt lat="47.66323" lon="-2.45952">
        <ele>107</ele>
        <time>2021-08-07T09:11:08Z</time>
      </trkpt>
      <trkpt lat="47.66328" lon="-2.45947">
        <ele>106.8</ele>
        <time>2021-08-07T09:11:09Z</time>
      </trkpt>
      <trkpt lat="47.66338" lon="-2.45937">
        <ele>106.8</ele>
        <time>2021-08-07T09:11:11Z</time>
      </trkpt>
      <trkpt lat="47.66348" lon="-2.45927">
        <ele>106.6</ele>
        <time>2021-08-07T09:11:13Z</time>
      </trkpt>
      <trkpt lat="47.66353" lon="-2.45923">
        <ele>106.6</ele>
        <time>2021-08-07T09:11:14Z</time>
      </trkpt>
      <trkpt lat="47.6636" lon="-2.45913">
        <ele>106.6</ele>
        <time>2021-08-07T09:11:16Z</time>
      </trkpt>
      <trkpt lat="47.66363" lon="-2.45909">
        <ele>106.6</ele>
        <time>2021-08-07T09:11:17Z</time>
      </trkpt>
      <trkpt lat="47.66366" lon="-2.45904">
        <ele>106.6</ele>
        <time>2021-08-07T09:11:18Z</time>
      </trkpt>
      <trkpt lat="47.66367" lon="-2.45898">
        <ele>106.4</ele>
        <time>2021-08-07T09:11:19Z</time>
      </trkpt>
      <trkpt lat="47.66368" lon="-2.45893">
        <ele>106.4</ele>
        <time>2021-08-07T09:11:20Z</time>
      </trkpt>
      <trkpt lat="47.6637" lon="-2.45889">
        <ele>106.4</ele>
        <time>2021-08-07T09:11:21Z</time>
      </trkpt>
      <trkpt lat="47.66376" lon="-2.45883">
        <ele>106.4</ele>
        <time>2021-08-07T09:11:23Z</time>
      </trkpt>
      <trkpt lat="47.66379" lon="-2.45883">
        <ele>106.4</ele>
        <time>2021-08-07T09:11:24Z</time>
      </trkpt>
      <trkpt lat="47.66383" lon="-2.45884">
        <ele>106.4</ele>
        <time>2021-08-07T09:11:25Z</time>
      </trkpt>
      <trkpt lat="47.66387" lon="-2.45886">
        <ele>106.4</ele>
        <time>2021-08-07T09:11:26Z</time>
      </trkpt>
      <trkpt lat="47.66396" lon="-2.45883">
        <ele>106.4</ele>
        <time>2021-08-07T09:11:28Z</time>
      </trkpt>
      <trkpt lat="47.664" lon="-2.4588">
        <ele>106.4</ele>
        <time>2021-08-07T09:11:29Z</time>
      </trkpt>
      <trkpt lat="47.66404" lon="-2.45877">
        <ele>106.6</ele>
        <time>2021-08-07T09:11:30Z</time>
      </trkpt>
      <trkpt lat="47.66412" lon="-2.45871">
        <ele>106.6</ele>
        <time>2021-08-07T09:11:32Z</time>
      </trkpt>
      <trkpt lat="47.66416" lon="-2.45867">
        <ele>106.6</ele>
        <time>2021-08-07T09:11:33Z</time>
      </trkpt>
      <trkpt lat="47.6642" lon="-2.45864">
        <ele>106.6</ele>
        <time>2021-08-07T09:11:34Z</time>
      </trkpt>
      <trkpt lat="47.66423" lon="-2.4586">
        <ele>106.6</ele>
        <time>2021-08-07T09:11:35Z</time>
      </trkpt>
      <trkpt lat="47.66427" lon="-2.45856">
        <ele>106.4</ele>
        <time>2021-08-07T09:11:36Z</time>
      </trkpt>
      <trkpt lat="47.66436" lon="-2.4585">
        <ele>106.4</ele>
        <time>2021-08-07T09:11:38Z</time>
      </trkpt>
      <trkpt lat="47.66445" lon="-2.45843">
        <ele>106.4</ele>
        <time>2021-08-07T09:11:40Z</time>
      </trkpt>
      <trkpt lat="47.66454" lon="-2.45836">
        <ele>106.4</ele>
        <time>2021-08-07T09:11:42Z</time>
      </trkpt>
      <trkpt lat="47.66458" lon="-2.45832">
        <ele>106.4</ele>
        <time>2021-08-07T09:11:43Z</time>
      </trkpt>
      <trkpt lat="47.66467" lon="-2.45826">
        <ele>106.4</ele>
        <time>2021-08-07T09:11:45Z</time>
      </trkpt>
      <trkpt lat="47.66475" lon="-2.45819">
        <ele>106.4</ele>
        <time>2021-08-07T09:11:47Z</time>
      </trkpt>
      <trkpt lat="47.66483" lon="-2.45813">
        <ele>106.4</ele>
        <time>2021-08-07T09:11:49Z</time>
      </trkpt>
      <trkpt lat="47.66486" lon="-2.4581">
        <ele>106.4</ele>
        <time>2021-08-07T09:11:50Z</time>
      </trkpt>
      <trkpt lat="47.66489" lon="-2.45808">
        <ele>106.4</ele>
        <time>2021-08-07T09:11:51Z</time>
      </trkpt>
      <trkpt lat="47.66494" lon="-2.45803">
        <ele>106.6</ele>
        <time>2021-08-07T09:11:53Z</time>
      </trkpt>
      <trkpt lat="47.66499" lon="-2.45799">
        <ele>106.4</ele>
        <time>2021-08-07T09:11:55Z</time>
      </trkpt>
      <trkpt lat="47.66502" lon="-2.45796">
        <ele>106.4</ele>
        <time>2021-08-07T09:11:56Z</time>
      </trkpt>
      <trkpt lat="47.66505" lon="-2.45794">
        <ele>106.4</ele>
        <time>2021-08-07T09:11:57Z</time>
      </trkpt>
      <trkpt lat="47.66511" lon="-2.4579">
        <ele>106.6</ele>
        <time>2021-08-07T09:11:59Z</time>
      </trkpt>
      <trkpt lat="47.66516" lon="-2.45787">
        <ele>106.6</ele>
        <time>2021-08-07T09:12:01Z</time>
      </trkpt>
      <trkpt lat="47.66518" lon="-2.45785">
        <ele>106.6</ele>
        <time>2021-08-07T09:12:02Z</time>
      </trkpt>
      <trkpt lat="47.6652" lon="-2.45783">
        <ele>106.6</ele>
        <time>2021-08-07T09:12:03Z</time>
      </trkpt>
      <trkpt lat="47.66522" lon="-2.4578">
        <ele>106.6</ele>
        <time>2021-08-07T09:12:04Z</time>
      </trkpt>
      <trkpt lat="47.66529" lon="-2.45776">
        <ele>106.6</ele>
        <time>2021-08-07T09:12:06Z</time>
      </trkpt>
      <trkpt lat="47.66532" lon="-2.45773">
        <ele>106.6</ele>
        <time>2021-08-07T09:12:07Z</time>
      </trkpt>
      <trkpt lat="47.66536" lon="-2.45771">
        <ele>106.8</ele>
        <time>2021-08-07T09:12:08Z</time>
      </trkpt>
      <trkpt lat="47.66542" lon="-2.45766">
        <ele>106.8</ele>
        <time>2021-08-07T09:12:10Z</time>
      </trkpt>
      <trkpt lat="47.66549" lon="-2.45762">
        <ele>106.8</ele>
        <time>2021-08-07T09:12:12Z</time>
      </trkpt>
      <trkpt lat="47.66556" lon="-2.45757">
        <ele>107</ele>
        <time>2021-08-07T09:12:14Z</time>
      </trkpt>
      <trkpt lat="47.66563" lon="-2.45751">
        <ele>107</ele>
        <time>2021-08-07T09:12:16Z</time>
      </trkpt>
      <trkpt lat="47.6657" lon="-2.45745">
        <ele>107</ele>
        <time>2021-08-07T09:12:18Z</time>
      </trkpt>
      <trkpt lat="47.66576" lon="-2.45737">
        <ele>107.2</ele>
        <time>2021-08-07T09:12:20Z</time>
      </trkpt>
      <trkpt lat="47.66579" lon="-2.45734">
        <ele>107.2</ele>
        <time>2021-08-07T09:12:21Z</time>
      </trkpt>
      <trkpt lat="47.66583" lon="-2.4573">
        <ele>107.2</ele>
        <time>2021-08-07T09:12:22Z</time>
      </trkpt>
      <trkpt lat="47.66587" lon="-2.45727">
        <ele>107.2</ele>
        <time>2021-08-07T09:12:23Z</time>
      </trkpt>
      <trkpt lat="47.66594" lon="-2.4572">
        <ele>107.2</ele>
        <time>2021-08-07T09:12:25Z</time>
      </trkpt>
      <trkpt lat="47.66602" lon="-2.45711">
        <ele>107.2</ele>
        <time>2021-08-07T09:12:27Z</time>
      </trkpt>
      <trkpt lat="47.6661" lon="-2.45702">
        <ele>107</ele>
        <time>2021-08-07T09:12:29Z</time>
      </trkpt>
      <trkpt lat="47.66618" lon="-2.45692">
        <ele>106.6</ele>
        <time>2021-08-07T09:12:31Z</time>
      </trkpt>
      <trkpt lat="47.66628" lon="-2.45681">
        <ele>106.2</ele>
        <time>2021-08-07T09:12:33Z</time>
      </trkpt>
      <trkpt lat="47.66633" lon="-2.45675">
        <ele>106.2</ele>
        <time>2021-08-07T09:12:34Z</time>
      </trkpt>
      <trkpt lat="47.66638" lon="-2.4567">
        <ele>106</ele>
        <time>2021-08-07T09:12:35Z</time>
      </trkpt>
      <trkpt lat="47.66652" lon="-2.45659">
        <ele>105.8</ele>
        <time>2021-08-07T09:12:37Z</time>
      </trkpt>
      <trkpt lat="47.66659" lon="-2.45653">
        <ele>105.8</ele>
        <time>2021-08-07T09:12:38Z</time>
      </trkpt>
      <trkpt lat="47.66667" lon="-2.45647">
        <ele>105.6</ele>
        <time>2021-08-07T09:12:39Z</time>
      </trkpt>
      <trkpt lat="47.66675" lon="-2.45641">
        <ele>105.4</ele>
        <time>2021-08-07T09:12:40Z</time>
      </trkpt>
      <trkpt lat="47.66693" lon="-2.4563">
        <ele>104.6</ele>
        <time>2021-08-07T09:12:42Z</time>
      </trkpt>
      <trkpt lat="47.66712" lon="-2.45619">
        <ele>103.2</ele>
        <time>2021-08-07T09:12:44Z</time>
      </trkpt>
      <trkpt lat="47.66721" lon="-2.45614">
        <ele>102.4</ele>
        <time>2021-08-07T09:12:45Z</time>
      </trkpt>
      <trkpt lat="47.6673" lon="-2.45609">
        <ele>101.8</ele>
        <time>2021-08-07T09:12:46Z</time>
      </trkpt>
      <trkpt lat="47.66739" lon="-2.45604">
        <ele>101</ele>
        <time>2021-08-07T09:12:47Z</time>
      </trkpt>
      <trkpt lat="47.66749" lon="-2.45599">
        <ele>100</ele>
        <time>2021-08-07T09:12:48Z</time>
      </trkpt>
      <trkpt lat="47.66757" lon="-2.45595">
        <ele>98</ele>
        <time>2021-08-07T09:12:49Z</time>
      </trkpt>
      <trkpt lat="47.66766" lon="-2.4559">
        <ele>96.8</ele>
        <time>2021-08-07T09:12:50Z</time>
      </trkpt>
      <trkpt lat="47.66775" lon="-2.45585">
        <ele>96</ele>
        <time>2021-08-07T09:12:51Z</time>
      </trkpt>
      <trkpt lat="47.66784" lon="-2.45581">
        <ele>95</ele>
        <time>2021-08-07T09:12:52Z</time>
      </trkpt>
      <trkpt lat="47.66793" lon="-2.45576">
        <ele>94.4</ele>
        <time>2021-08-07T09:12:53Z</time>
      </trkpt>
      <trkpt lat="47.66801" lon="-2.45572">
        <ele>93.6</ele>
        <time>2021-08-07T09:12:54Z</time>
      </trkpt>
      <trkpt lat="47.66816" lon="-2.45564">
        <ele>93</ele>
        <time>2021-08-07T09:12:56Z</time>
      </trkpt>
      <trkpt lat="47.66823" lon="-2.45561">
        <ele>92.8</ele>
        <time>2021-08-07T09:12:57Z</time>
      </trkpt>
      <trkpt lat="47.66835" lon="-2.45554">
        <ele>92.8</ele>
        <time>2021-08-07T09:12:59Z</time>
      </trkpt>
      <trkpt lat="47.66839" lon="-2.45551">
        <ele>92.8</ele>
        <time>2021-08-07T09:13:00Z</time>
      </trkpt>
      <trkpt lat="47.66844" lon="-2.45549">
        <ele>92.8</ele>
        <time>2021-08-07T09:13:01Z</time>
      </trkpt>
      <trkpt lat="47.66848" lon="-2.45546">
        <ele>92.8</ele>
        <time>2021-08-07T09:13:02Z</time>
      </trkpt>
      <trkpt lat="47.66851" lon="-2.45544">
        <ele>92.8</ele>
        <time>2021-08-07T09:13:03Z</time>
      </trkpt>
      <trkpt lat="47.66857" lon="-2.4554">
        <ele>92.8</ele>
        <time>2021-08-07T09:13:05Z</time>
      </trkpt>
      <trkpt lat="47.6686" lon="-2.45538">
        <ele>93.2</ele>
        <time>2021-08-07T09:13:06Z</time>
      </trkpt>
      <trkpt lat="47.66865" lon="-2.45534">
        <ele>94.6</ele>
        <time>2021-08-07T09:13:08Z</time>
      </trkpt>
      <trkpt lat="47.66868" lon="-2.45532">
        <ele>95.2</ele>
        <time>2021-08-07T09:13:09Z</time>
      </trkpt>
      <trkpt lat="47.66873" lon="-2.45528">
        <ele>96.6</ele>
        <time>2021-08-07T09:13:11Z</time>
      </trkpt>
      <trkpt lat="47.66876" lon="-2.45526">
        <ele>97.2</ele>
        <time>2021-08-07T09:13:12Z</time>
      </trkpt>
      <trkpt lat="47.66878" lon="-2.45523">
        <ele>97.6</ele>
        <time>2021-08-07T09:13:13Z</time>
      </trkpt>
      <trkpt lat="47.66881" lon="-2.45521">
        <ele>97.8</ele>
        <time>2021-08-07T09:13:14Z</time>
      </trkpt>
      <trkpt lat="47.66883" lon="-2.45519">
        <ele>98.2</ele>
        <time>2021-08-07T09:13:15Z</time>
      </trkpt>
      <trkpt lat="47.66888" lon="-2.45515">
        <ele>99</ele>
        <time>2021-08-07T09:13:17Z</time>
      </trkpt>
      <trkpt lat="47.6689" lon="-2.45513">
        <ele>99.2</ele>
        <time>2021-08-07T09:13:18Z</time>
      </trkpt>
      <trkpt lat="47.66895" lon="-2.45509">
        <ele>99.6</ele>
        <time>2021-08-07T09:13:20Z</time>
      </trkpt>
      <trkpt lat="47.66897" lon="-2.45507">
        <ele>99.6</ele>
        <time>2021-08-07T09:13:21Z</time>
      </trkpt>
      <trkpt lat="47.66902" lon="-2.45502">
        <ele>99.8</ele>
        <time>2021-08-07T09:13:23Z</time>
      </trkpt>
      <trkpt lat="47.66904" lon="-2.45499">
        <ele>100</ele>
        <time>2021-08-07T09:13:24Z</time>
      </trkpt>
      <trkpt lat="47.66909" lon="-2.45494">
        <ele>100.4</ele>
        <time>2021-08-07T09:13:26Z</time>
      </trkpt>
      <trkpt lat="47.66911" lon="-2.45491">
        <ele>100.4</ele>
        <time>2021-08-07T09:13:27Z</time>
      </trkpt>
      <trkpt lat="47.66915" lon="-2.45483">
        <ele>100.8</ele>
        <time>2021-08-07T09:13:29Z</time>
      </trkpt>
      <trkpt lat="47.66917" lon="-2.45479">
        <ele>101</ele>
        <time>2021-08-07T09:13:30Z</time>
      </trkpt>
      <trkpt lat="47.6692" lon="-2.45471">
        <ele>101.2</ele>
        <time>2021-08-07T09:13:32Z</time>
      </trkpt>
      <trkpt lat="47.66922" lon="-2.45466">
        <ele>101.4</ele>
        <time>2021-08-07T09:13:33Z</time>
      </trkpt>
      <trkpt lat="47.66924" lon="-2.45458">
        <ele>102</ele>
        <time>2021-08-07T09:13:35Z</time>
      </trkpt>
      <trkpt lat="47.66924" lon="-2.45454">
        <ele>102.2</ele>
        <time>2021-08-07T09:13:36Z</time>
      </trkpt>
      <trkpt lat="47.66925" lon="-2.45444">
        <ele>102.2</ele>
        <time>2021-08-07T09:13:38Z</time>
      </trkpt>
      <trkpt lat="47.66926" lon="-2.45439">
        <ele>102.4</ele>
        <time>2021-08-07T09:13:39Z</time>
      </trkpt>
      <trkpt lat="47.66928" lon="-2.45434">
        <ele>102.4</ele>
        <time>2021-08-07T09:13:40Z</time>
      </trkpt>
      <trkpt lat="47.6693" lon="-2.4543">
        <ele>102.4</ele>
        <time>2021-08-07T09:13:41Z</time>
      </trkpt>
      <trkpt lat="47.66933" lon="-2.45426">
        <ele>102.6</ele>
        <time>2021-08-07T09:13:42Z</time>
      </trkpt>
      <trkpt lat="47.66937" lon="-2.45424">
        <ele>102.8</ele>
        <time>2021-08-07T09:13:43Z</time>
      </trkpt>
      <trkpt lat="47.66941" lon="-2.45423">
        <ele>102.8</ele>
        <time>2021-08-07T09:13:44Z</time>
      </trkpt>
      <trkpt lat="47.66945" lon="-2.45423">
        <ele>102.8</ele>
        <time>2021-08-07T09:13:45Z</time>
      </trkpt>
      <trkpt lat="47.66948" lon="-2.45425">
        <ele>102.8</ele>
        <time>2021-08-07T09:13:46Z</time>
      </trkpt>
      <trkpt lat="47.66952" lon="-2.45428">
        <ele>102.8</ele>
        <time>2021-08-07T09:13:47Z</time>
      </trkpt>
      <trkpt lat="47.66956" lon="-2.45431">
        <ele>102.8</ele>
        <time>2021-08-07T09:13:48Z</time>
      </trkpt>
      <trkpt lat="47.6696" lon="-2.45432">
        <ele>102.8</ele>
        <time>2021-08-07T09:13:49Z</time>
      </trkpt>
      <trkpt lat="47.66965" lon="-2.45433">
        <ele>102.8</ele>
        <time>2021-08-07T09:13:50Z</time>
      </trkpt>
      <trkpt lat="47.66969" lon="-2.45432">
        <ele>102.8</ele>
        <time>2021-08-07T09:13:51Z</time>
      </trkpt>
      <trkpt lat="47.66973" lon="-2.45431">
        <ele>102.8</ele>
        <time>2021-08-07T09:13:52Z</time>
      </trkpt>
      <trkpt lat="47.66981" lon="-2.45426">
        <ele>102.8</ele>
        <time>2021-08-07T09:13:54Z</time>
      </trkpt>
      <trkpt lat="47.66985" lon="-2.45423">
        <ele>102.6</ele>
        <time>2021-08-07T09:13:55Z</time>
      </trkpt>
      <trkpt lat="47.66989" lon="-2.45421">
        <ele>102.6</ele>
        <time>2021-08-07T09:13:56Z</time>
      </trkpt>
      <trkpt lat="47.66994" lon="-2.45418">
        <ele>102.6</ele>
        <time>2021-08-07T09:13:57Z</time>
      </trkpt>
      <trkpt lat="47.66998" lon="-2.45416">
        <ele>102.6</ele>
        <time>2021-08-07T09:13:58Z</time>
      </trkpt>
      <trkpt lat="47.67007" lon="-2.4541">
        <ele>102.6</ele>
        <time>2021-08-07T09:14:00Z</time>
      </trkpt>
      <trkpt lat="47.67012" lon="-2.45408">
        <ele>102.6</ele>
        <time>2021-08-07T09:14:01Z</time>
      </trkpt>
      <trkpt lat="47.67021" lon="-2.45402">
        <ele>102.6</ele>
        <time>2021-08-07T09:14:03Z</time>
      </trkpt>
      <trkpt lat="47.6703" lon="-2.45394">
        <ele>102.4</ele>
        <time>2021-08-07T09:14:05Z</time>
      </trkpt>
      <trkpt lat="47.67034" lon="-2.45389">
        <ele>102.4</ele>
        <time>2021-08-07T09:14:06Z</time>
      </trkpt>
      <trkpt lat="47.67042" lon="-2.45378">
        <ele>102.4</ele>
        <time>2021-08-07T09:14:08Z</time>
      </trkpt>
      <trkpt lat="47.67046" lon="-2.45371">
        <ele>102.4</ele>
        <time>2021-08-07T09:14:09Z</time>
      </trkpt>
      <trkpt lat="47.67049" lon="-2.45363">
        <ele>102.4</ele>
        <time>2021-08-07T09:14:10Z</time>
      </trkpt>
      <trkpt lat="47.67051" lon="-2.45355">
        <ele>102.4</ele>
        <time>2021-08-07T09:14:11Z</time>
      </trkpt>
      <trkpt lat="47.67053" lon="-2.45338">
        <ele>102.2</ele>
        <time>2021-08-07T09:14:13Z</time>
      </trkpt>
      <trkpt lat="47.67054" lon="-2.45329">
        <ele>102.2</ele>
        <time>2021-08-07T09:14:14Z</time>
      </trkpt>
      <trkpt lat="47.67053" lon="-2.45312">
        <ele>102.2</ele>
        <time>2021-08-07T09:14:16Z</time>
      </trkpt>
      <trkpt lat="47.67053" lon="-2.45304">
        <ele>102.2</ele>
        <time>2021-08-07T09:14:17Z</time>
      </trkpt>
      <trkpt lat="47.67052" lon="-2.45287">
        <ele>102</ele>
        <time>2021-08-07T09:14:19Z</time>
      </trkpt>
      <trkpt lat="47.67052" lon="-2.45279">
        <ele>102.2</ele>
        <time>2021-08-07T09:14:20Z</time>
      </trkpt>
      <trkpt lat="47.67051" lon="-2.45271">
        <ele>102</ele>
        <time>2021-08-07T09:14:21Z</time>
      </trkpt>
      <trkpt lat="47.6705" lon="-2.45264">
        <ele>102</ele>
        <time>2021-08-07T09:14:22Z</time>
      </trkpt>
      <trkpt lat="47.67049" lon="-2.45248">
        <ele>102</ele>
        <time>2021-08-07T09:14:24Z</time>
      </trkpt>
      <trkpt lat="47.67048" lon="-2.4524">
        <ele>102</ele>
        <time>2021-08-07T09:14:25Z</time>
      </trkpt>
      <trkpt lat="47.67047" lon="-2.45225">
        <ele>102.2</ele>
        <time>2021-08-07T09:14:27Z</time>
      </trkpt>
      <trkpt lat="47.67046" lon="-2.4521">
        <ele>102.4</ele>
        <time>2021-08-07T09:14:29Z</time>
      </trkpt>
      <trkpt lat="47.67045" lon="-2.45195">
        <ele>102.6</ele>
        <time>2021-08-07T09:14:31Z</time>
      </trkpt>
      <trkpt lat="47.67045" lon="-2.45187">
        <ele>102.8</ele>
        <time>2021-08-07T09:14:32Z</time>
      </trkpt>
      <trkpt lat="47.67044" lon="-2.4518">
        <ele>103</ele>
        <time>2021-08-07T09:14:33Z</time>
      </trkpt>
      <trkpt lat="47.67043" lon="-2.45173">
        <ele>103</ele>
        <time>2021-08-07T09:14:34Z</time>
      </trkpt>
      <trkpt lat="47.67042" lon="-2.45159">
        <ele>103.2</ele>
        <time>2021-08-07T09:14:36Z</time>
      </trkpt>
      <trkpt lat="47.67042" lon="-2.45152">
        <ele>103.4</ele>
        <time>2021-08-07T09:14:37Z</time>
      </trkpt>
      <trkpt lat="47.6704" lon="-2.45138">
        <ele>103.8</ele>
        <time>2021-08-07T09:14:39Z</time>
      </trkpt>
      <trkpt lat="47.6704" lon="-2.45125">
        <ele>104</ele>
        <time>2021-08-07T09:14:41Z</time>
      </trkpt>
      <trkpt lat="47.67039" lon="-2.45119">
        <ele>104.2</ele>
        <time>2021-08-07T09:14:42Z</time>
      </trkpt>
      <trkpt lat="47.67038" lon="-2.45106">
        <ele>104.4</ele>
        <time>2021-08-07T09:14:44Z</time>
      </trkpt>
      <trkpt lat="47.67037" lon="-2.45094">
        <ele>104.6</ele>
        <time>2021-08-07T09:14:46Z</time>
      </trkpt>
      <trkpt lat="47.67036" lon="-2.45082">
        <ele>104.8</ele>
        <time>2021-08-07T09:14:48Z</time>
      </trkpt>
      <trkpt lat="47.67035" lon="-2.45076">
        <ele>105</ele>
        <time>2021-08-07T09:14:49Z</time>
      </trkpt>
      <trkpt lat="47.67034" lon="-2.45065">
        <ele>105.2</ele>
        <time>2021-08-07T09:14:51Z</time>
      </trkpt>
      <trkpt lat="47.67034" lon="-2.45055">
        <ele>105.4</ele>
        <time>2021-08-07T09:14:53Z</time>
      </trkpt>
      <trkpt lat="47.67036" lon="-2.4505">
        <ele>105.4</ele>
        <time>2021-08-07T09:14:54Z</time>
      </trkpt>
      <trkpt lat="47.67041" lon="-2.45045">
        <ele>105.6</ele>
        <time>2021-08-07T09:14:56Z</time>
      </trkpt>
      <trkpt lat="47.67046" lon="-2.45037">
        <ele>105.8</ele>
        <time>2021-08-07T09:14:58Z</time>
      </trkpt>
      <trkpt lat="47.67053" lon="-2.45031">
        <ele>106</ele>
        <time>2021-08-07T09:15:01Z</time>
      </trkpt>
      <trkpt lat="47.67056" lon="-2.45031">
        <ele>106.2</ele>
        <time>2021-08-07T09:15:02Z</time>
      </trkpt>
      <trkpt lat="47.6706" lon="-2.4503">
        <ele>106.4</ele>
        <time>2021-08-07T09:15:04Z</time>
      </trkpt>
      <trkpt lat="47.67066" lon="-2.45031">
        <ele>106.6</ele>
        <time>2021-08-07T09:15:07Z</time>
      </trkpt>
      <trkpt lat="47.67068" lon="-2.45031">
        <ele>106.6</ele>
        <time>2021-08-07T09:15:08Z</time>
      </trkpt>
      <trkpt lat="47.67076" lon="-2.45031">
        <ele>106.6</ele>
        <time>2021-08-07T09:15:11Z</time>
      </trkpt>
      <trkpt lat="47.67084" lon="-2.45031">
        <ele>106.6</ele>
        <time>2021-08-07T09:15:14Z</time>
      </trkpt>
      <trkpt lat="47.67087" lon="-2.4503">
        <ele>106.4</ele>
        <time>2021-08-07T09:15:15Z</time>
      </trkpt>
      <trkpt lat="47.67094" lon="-2.45029">
        <ele>106.4</ele>
        <time>2021-08-07T09:15:18Z</time>
      </trkpt>
      <trkpt lat="47.67099" lon="-2.45028">
        <ele>106.2</ele>
        <time>2021-08-07T09:15:20Z</time>
      </trkpt>
      <trkpt lat="47.67101" lon="-2.45027">
        <ele>106</ele>
        <time>2021-08-07T09:15:21Z</time>
      </trkpt>
      <trkpt lat="47.6711" lon="-2.45023">
        <ele>105.8</ele>
        <time>2021-08-07T09:15:25Z</time>
      </trkpt>
      <trkpt lat="47.67117" lon="-2.45022">
        <ele>105.6</ele>
        <time>2021-08-07T09:15:28Z</time>
      </trkpt>
      <trkpt lat="47.6712" lon="-2.45021">
        <ele>105.6</ele>
        <time>2021-08-07T09:15:29Z</time>
      </trkpt>
      <trkpt lat="47.67126" lon="-2.4502">
        <ele>105.4</ele>
        <time>2021-08-07T09:15:31Z</time>
      </trkpt>
      <trkpt lat="47.67139" lon="-2.45017">
        <ele>105.4</ele>
        <time>2021-08-07T09:15:35Z</time>
      </trkpt>
      <trkpt lat="47.67142" lon="-2.45016">
        <ele>105.2</ele>
        <time>2021-08-07T09:15:36Z</time>
      </trkpt>
      <trkpt lat="47.6715" lon="-2.45014">
        <ele>105.2</ele>
        <time>2021-08-07T09:15:38Z</time>
      </trkpt>
      <trkpt lat="47.67154" lon="-2.45013">
        <ele>105.2</ele>
        <time>2021-08-07T09:15:39Z</time>
      </trkpt>
      <trkpt lat="47.67167" lon="-2.45011">
        <ele>105</ele>
        <time>2021-08-07T09:15:42Z</time>
      </trkpt>
      <trkpt lat="47.67171" lon="-2.45009">
        <ele>105</ele>
        <time>2021-08-07T09:15:43Z</time>
      </trkpt>
      <trkpt lat="47.67181" lon="-2.45008">
        <ele>104.8</ele>
        <time>2021-08-07T09:15:45Z</time>
      </trkpt>
      <trkpt lat="47.67191" lon="-2.45006">
        <ele>104.4</ele>
        <time>2021-08-07T09:15:47Z</time>
      </trkpt>
      <trkpt lat="47.67196" lon="-2.45004">
        <ele>104.2</ele>
        <time>2021-08-07T09:15:48Z</time>
      </trkpt>
      <trkpt lat="47.67201" lon="-2.45002">
        <ele>104.2</ele>
        <time>2021-08-07T09:15:49Z</time>
      </trkpt>
      <trkpt lat="47.67206" lon="-2.45001">
        <ele>104</ele>
        <time>2021-08-07T09:15:50Z</time>
      </trkpt>
      <trkpt lat="47.67216" lon="-2.44999">
        <ele>103.4</ele>
        <time>2021-08-07T09:15:52Z</time>
      </trkpt>
      <trkpt lat="47.67225" lon="-2.44997">
        <ele>103</ele>
        <time>2021-08-07T09:15:54Z</time>
      </trkpt>
      <trkpt lat="47.67229" lon="-2.44997">
        <ele>102.8</ele>
        <time>2021-08-07T09:15:55Z</time>
      </trkpt>
      <trkpt lat="47.67248" lon="-2.44999">
        <ele>102.2</ele>
        <time>2021-08-07T09:15:59Z</time>
      </trkpt>
      <trkpt lat="47.67252" lon="-2.45001">
        <ele>101.8</ele>
        <time>2021-08-07T09:16:00Z</time>
      </trkpt>
      <trkpt lat="47.67255" lon="-2.45004">
        <ele>101.4</ele>
        <time>2021-08-07T09:16:01Z</time>
      </trkpt>
      <trkpt lat="47.67257" lon="-2.45008">
        <ele>101.2</ele>
        <time>2021-08-07T09:16:02Z</time>
      </trkpt>
      <trkpt lat="47.6726" lon="-2.45011">
        <ele>101</ele>
        <time>2021-08-07T09:16:03Z</time>
      </trkpt>
      <trkpt lat="47.67266" lon="-2.45015">
        <ele>100.4</ele>
        <time>2021-08-07T09:16:05Z</time>
      </trkpt>
      <trkpt lat="47.67277" lon="-2.45018">
        <ele>99.8</ele>
        <time>2021-08-07T09:16:09Z</time>
      </trkpt>
      <trkpt lat="47.6728" lon="-2.45017">
        <ele>99.6</ele>
        <time>2021-08-07T09:16:10Z</time>
      </trkpt>
      <trkpt lat="47.67283" lon="-2.45011">
        <ele>99.4</ele>
        <time>2021-08-07T09:16:12Z</time>
      </trkpt>
      <trkpt lat="47.67286" lon="-2.45003">
        <ele>99.4</ele>
        <time>2021-08-07T09:16:14Z</time>
      </trkpt>
      <trkpt lat="47.67287" lon="-2.44999">
        <ele>99.2</ele>
        <time>2021-08-07T09:16:15Z</time>
      </trkpt>
      <trkpt lat="47.67292" lon="-2.44993">
        <ele>99.2</ele>
        <time>2021-08-07T09:16:17Z</time>
      </trkpt>
      <trkpt lat="47.67296" lon="-2.44991">
        <ele>99.2</ele>
        <time>2021-08-07T09:16:18Z</time>
      </trkpt>
      <trkpt lat="47.673" lon="-2.4499">
        <ele>99</ele>
        <time>2021-08-07T09:16:19Z</time>
      </trkpt>
      <trkpt lat="47.67309" lon="-2.44988">
        <ele>99</ele>
        <time>2021-08-07T09:16:21Z</time>
      </trkpt>
      <trkpt lat="47.67313" lon="-2.44988">
        <ele>99</ele>
        <time>2021-08-07T09:16:22Z</time>
      </trkpt>
      <trkpt lat="47.67327" lon="-2.44988">
        <ele>98.8</ele>
        <time>2021-08-07T09:16:25Z</time>
      </trkpt>
      <trkpt lat="47.67331" lon="-2.44988">
        <ele>98.8</ele>
        <time>2021-08-07T09:16:26Z</time>
      </trkpt>
      <trkpt lat="47.67334" lon="-2.44987">
        <ele>98.6</ele>
        <time>2021-08-07T09:16:27Z</time>
      </trkpt>
      <trkpt lat="47.6734" lon="-2.44987">
        <ele>97.8</ele>
        <time>2021-08-07T09:16:29Z</time>
      </trkpt>
      <trkpt lat="47.67346" lon="-2.44987">
        <ele>97.2</ele>
        <time>2021-08-07T09:16:32Z</time>
      </trkpt>
      <trkpt lat="47.67348" lon="-2.44987">
        <ele>97</ele>
        <time>2021-08-07T09:16:33Z</time>
      </trkpt>
      <trkpt lat="47.67354" lon="-2.44987">
        <ele>96.8</ele>
        <time>2021-08-07T09:16:36Z</time>
      </trkpt>
      <trkpt lat="47.6736" lon="-2.44987">
        <ele>96.8</ele>
        <time>2021-08-07T09:16:38Z</time>
      </trkpt>
      <trkpt lat="47.67363" lon="-2.44987">
        <ele>96.8</ele>
        <time>2021-08-07T09:16:39Z</time>
      </trkpt>
      <trkpt lat="47.67367" lon="-2.44987">
        <ele>96.8</ele>
        <time>2021-08-07T09:16:40Z</time>
      </trkpt>
      <trkpt lat="47.67378" lon="-2.44987">
        <ele>96.6</ele>
        <time>2021-08-07T09:16:43Z</time>
      </trkpt>
      <trkpt lat="47.6739" lon="-2.44988">
        <ele>96.6</ele>
        <time>2021-08-07T09:16:46Z</time>
      </trkpt>
      <trkpt lat="47.67401" lon="-2.44989">
        <ele>96.4</ele>
        <time>2021-08-07T09:16:49Z</time>
      </trkpt>
      <trkpt lat="47.67404" lon="-2.4499">
        <ele>96.4</ele>
        <time>2021-08-07T09:16:50Z</time>
      </trkpt>
      <trkpt lat="47.67416" lon="-2.44991">
        <ele>96.2</ele>
        <time>2021-08-07T09:16:53Z</time>
      </trkpt>
      <trkpt lat="47.6742" lon="-2.44991">
        <ele>95.8</ele>
        <time>2021-08-07T09:16:54Z</time>
      </trkpt>
      <trkpt lat="47.67424" lon="-2.44992">
        <ele>95.6</ele>
        <time>2021-08-07T09:16:55Z</time>
      </trkpt>
      <trkpt lat="47.67428" lon="-2.44992">
        <ele>95.6</ele>
        <time>2021-08-07T09:16:56Z</time>
      </trkpt>
      <trkpt lat="47.67444" lon="-2.44996">
        <ele>95.4</ele>
        <time>2021-08-07T09:17:00Z</time>
      </trkpt>
      <trkpt lat="47.67453" lon="-2.44998">
        <ele>95.4</ele>
        <time>2021-08-07T09:17:03Z</time>
      </trkpt>
      <trkpt lat="47.67455" lon="-2.44999">
        <ele>95.4</ele>
        <time>2021-08-07T09:17:04Z</time>
      </trkpt>
      <trkpt lat="47.6746" lon="-2.45">
        <ele>95.4</ele>
        <time>2021-08-07T09:17:07Z</time>
      </trkpt>
      <trkpt lat="47.67463" lon="-2.45001">
        <ele>95.4</ele>
        <time>2021-08-07T09:17:09Z</time>
      </trkpt>
      <trkpt lat="47.67464" lon="-2.45002">
        <ele>95.8</ele>
        <time>2021-08-07T09:17:10Z</time>
      </trkpt>
      <trkpt lat="47.67469" lon="-2.45003">
        <ele>96.4</ele>
        <time>2021-08-07T09:17:13Z</time>
      </trkpt>
      <trkpt lat="47.67476" lon="-2.45004">
        <ele>96.6</ele>
        <time>2021-08-07T09:17:16Z</time>
      </trkpt>
      <trkpt lat="47.67478" lon="-2.45004">
        <ele>96.8</ele>
        <time>2021-08-07T09:17:17Z</time>
      </trkpt>
      <trkpt lat="47.67482" lon="-2.45006">
        <ele>96.8</ele>
        <time>2021-08-07T09:17:19Z</time>
      </trkpt>
      <trkpt lat="47.67485" lon="-2.45007">
        <ele>96.8</ele>
        <time>2021-08-07T09:17:20Z</time>
      </trkpt>
      <trkpt lat="47.67492" lon="-2.45009">
        <ele>97</ele>
        <time>2021-08-07T09:17:23Z</time>
      </trkpt>
      <trkpt lat="47.67495" lon="-2.4501">
        <ele>97.2</ele>
        <time>2021-08-07T09:17:24Z</time>
      </trkpt>
      <trkpt lat="47.67503" lon="-2.45013">
        <ele>97.4</ele>
        <time>2021-08-07T09:17:27Z</time>
      </trkpt>
      <trkpt lat="47.67511" lon="-2.45015">
        <ele>97.4</ele>
        <time>2021-08-07T09:17:30Z</time>
      </trkpt>
      <trkpt lat="47.67516" lon="-2.45016">
        <ele>97.8</ele>
        <time>2021-08-07T09:17:32Z</time>
      </trkpt>
      <trkpt lat="47.67521" lon="-2.45018">
        <ele>98</ele>
        <time>2021-08-07T09:17:34Z</time>
      </trkpt>
      <trkpt lat="47.67529" lon="-2.4502">
        <ele>98</ele>
        <time>2021-08-07T09:17:37Z</time>
      </trkpt>
      <trkpt lat="47.67538" lon="-2.45023">
        <ele>98.2</ele>
        <time>2021-08-07T09:17:40Z</time>
      </trkpt>
      <trkpt lat="47.67541" lon="-2.45024">
        <ele>98.2</ele>
        <time>2021-08-07T09:17:41Z</time>
      </trkpt>
      <trkpt lat="47.67548" lon="-2.45026">
        <ele>98.4</ele>
        <time>2021-08-07T09:17:44Z</time>
      </trkpt>
      <trkpt lat="47.67554" lon="-2.45027">
        <ele>98.6</ele>
        <time>2021-08-07T09:17:46Z</time>
      </trkpt>
      <trkpt lat="47.67557" lon="-2.45028">
        <ele>98.8</ele>
        <time>2021-08-07T09:17:47Z</time>
      </trkpt>
      <trkpt lat="47.67562" lon="-2.4503">
        <ele>99.4</ele>
        <time>2021-08-07T09:17:49Z</time>
      </trkpt>
      <trkpt lat="47.67565" lon="-2.45031">
        <ele>99.4</ele>
        <time>2021-08-07T09:17:50Z</time>
      </trkpt>
      <trkpt lat="47.67574" lon="-2.45034">
        <ele>99.8</ele>
        <time>2021-08-07T09:17:53Z</time>
      </trkpt>
      <trkpt lat="47.67577" lon="-2.45035">
        <ele>100.2</ele>
        <time>2021-08-07T09:17:54Z</time>
      </trkpt>
      <trkpt lat="47.67586" lon="-2.45037">
        <ele>100.4</ele>
        <time>2021-08-07T09:17:57Z</time>
      </trkpt>
      <trkpt lat="47.67589" lon="-2.45037">
        <ele>100.6</ele>
        <time>2021-08-07T09:17:58Z</time>
      </trkpt>
      <trkpt lat="47.67592" lon="-2.45038">
        <ele>100.8</ele>
        <time>2021-08-07T09:17:59Z</time>
      </trkpt>
      <trkpt lat="47.67598" lon="-2.45039">
        <ele>101.2</ele>
        <time>2021-08-07T09:18:01Z</time>
      </trkpt>
      <trkpt lat="47.67607" lon="-2.4504">
        <ele>101.4</ele>
        <time>2021-08-07T09:18:04Z</time>
      </trkpt>
      <trkpt lat="47.6761" lon="-2.45041">
        <ele>101.6</ele>
        <time>2021-08-07T09:18:05Z</time>
      </trkpt>
      <trkpt lat="47.67616" lon="-2.45041">
        <ele>101.8</ele>
        <time>2021-08-07T09:18:07Z</time>
      </trkpt>
      <trkpt lat="47.67622" lon="-2.45042">
        <ele>102</ele>
        <time>2021-08-07T09:18:09Z</time>
      </trkpt>
      <trkpt lat="47.67629" lon="-2.45042">
        <ele>102.4</ele>
        <time>2021-08-07T09:18:11Z</time>
      </trkpt>
      <trkpt lat="47.67636" lon="-2.45042">
        <ele>102.6</ele>
        <time>2021-08-07T09:18:13Z</time>
      </trkpt>
      <trkpt lat="47.67639" lon="-2.45042">
        <ele>102.8</ele>
        <time>2021-08-07T09:18:14Z</time>
      </trkpt>
      <trkpt lat="47.67646" lon="-2.45042">
        <ele>103.4</ele>
        <time>2021-08-07T09:18:16Z</time>
      </trkpt>
      <trkpt lat="47.67653" lon="-2.45042">
        <ele>103.6</ele>
        <time>2021-08-07T09:18:18Z</time>
      </trkpt>
      <trkpt lat="47.67665" lon="-2.45041">
        <ele>103.8</ele>
        <time>2021-08-07T09:18:21Z</time>
      </trkpt>
      <trkpt lat="47.67668" lon="-2.4504">
        <ele>104</ele>
        <time>2021-08-07T09:18:22Z</time>
      </trkpt>
      <trkpt lat="47.67676" lon="-2.4504">
        <ele>104</ele>
        <time>2021-08-07T09:18:24Z</time>
      </trkpt>
      <trkpt lat="47.67692" lon="-2.45037">
        <ele>104.2</ele>
        <time>2021-08-07T09:18:28Z</time>
      </trkpt>
      <trkpt lat="47.67705" lon="-2.45035">
        <ele>104.4</ele>
        <time>2021-08-07T09:18:31Z</time>
      </trkpt>
      <trkpt lat="47.67713" lon="-2.45033">
        <ele>104.4</ele>
        <time>2021-08-07T09:18:33Z</time>
      </trkpt>
      <trkpt lat="47.67722" lon="-2.45031">
        <ele>104.4</ele>
        <time>2021-08-07T09:18:35Z</time>
      </trkpt>
      <trkpt lat="47.67727" lon="-2.4503">
        <ele>104.4</ele>
        <time>2021-08-07T09:18:36Z</time>
      </trkpt>
      <trkpt lat="47.67736" lon="-2.45028">
        <ele>104.6</ele>
        <time>2021-08-07T09:18:38Z</time>
      </trkpt>
      <trkpt lat="47.67744" lon="-2.45026">
        <ele>104.6</ele>
        <time>2021-08-07T09:18:40Z</time>
      </trkpt>
      <trkpt lat="47.67749" lon="-2.45025">
        <ele>104.8</ele>
        <time>2021-08-07T09:18:41Z</time>
      </trkpt>
      <trkpt lat="47.67758" lon="-2.45024">
        <ele>104.8</ele>
        <time>2021-08-07T09:18:43Z</time>
      </trkpt>
      <trkpt lat="47.67767" lon="-2.45022">
        <ele>104.8</ele>
        <time>2021-08-07T09:18:45Z</time>
      </trkpt>
      <trkpt lat="47.67771" lon="-2.45021">
        <ele>104.8</ele>
        <time>2021-08-07T09:18:46Z</time>
      </trkpt>
      <trkpt lat="47.6778" lon="-2.45019">
        <ele>104.8</ele>
        <time>2021-08-07T09:18:48Z</time>
      </trkpt>
      <trkpt lat="47.67794" lon="-2.45017">
        <ele>104.8</ele>
        <time>2021-08-07T09:18:51Z</time>
      </trkpt>
      <trkpt lat="47.67813" lon="-2.45012">
        <ele>104.8</ele>
        <time>2021-08-07T09:18:55Z</time>
      </trkpt>
      <trkpt lat="47.67827" lon="-2.45009">
        <ele>104.8</ele>
        <time>2021-08-07T09:18:58Z</time>
      </trkpt>
      <trkpt lat="47.67836" lon="-2.45007">
        <ele>105</ele>
        <time>2021-08-07T09:19:00Z</time>
      </trkpt>
      <trkpt lat="47.67845" lon="-2.45004">
        <ele>105.2</ele>
        <time>2021-08-07T09:19:02Z</time>
      </trkpt>
      <trkpt lat="47.67859" lon="-2.44998">
        <ele>105.4</ele>
        <time>2021-08-07T09:19:05Z</time>
      </trkpt>
      <trkpt lat="47.67864" lon="-2.44996">
        <ele>105.4</ele>
        <time>2021-08-07T09:19:06Z</time>
      </trkpt>
      <trkpt lat="47.67873" lon="-2.44993">
        <ele>105.6</ele>
        <time>2021-08-07T09:19:08Z</time>
      </trkpt>
      <trkpt lat="47.67882" lon="-2.4499">
        <ele>105.8</ele>
        <time>2021-08-07T09:19:10Z</time>
      </trkpt>
      <trkpt lat="47.6789" lon="-2.44987">
        <ele>105.8</ele>
        <time>2021-08-07T09:19:12Z</time>
      </trkpt>
      <trkpt lat="47.67899" lon="-2.44984">
        <ele>105.8</ele>
        <time>2021-08-07T09:19:15Z</time>
      </trkpt>
      <trkpt lat="47.67904" lon="-2.4498">
        <ele>106.2</ele>
        <time>2021-08-07T09:19:19Z</time>
      </trkpt>
      <trkpt lat="47.67904" lon="-2.44981">
        <ele>106.4</ele>
        <time>2021-08-07T09:19:20Z</time>
      </trkpt>
      <trkpt lat="47.67908" lon="-2.44981">
        <ele>107.2</ele>
        <time>2021-08-07T09:24:52Z</time>
      </trkpt>
      <trkpt lat="47.6791" lon="-2.44981">
        <ele>107.2</ele>
        <time>2021-08-07T09:24:53Z</time>
      </trkpt>
      <trkpt lat="47.67911" lon="-2.44981">
        <ele>107.2</ele>
        <time>2021-08-07T09:24:54Z</time>
      </trkpt>
      <trkpt lat="47.67912" lon="-2.44981">
        <ele>107.2</ele>
        <time>2021-08-07T09:24:55Z</time>
      </trkpt>
      <trkpt lat="47.67915" lon="-2.44981">
        <ele>107.2</ele>
        <time>2021-08-07T09:24:57Z</time>
      </trkpt>
      <trkpt lat="47.67916" lon="-2.44982">
        <ele>107.2</ele>
        <time>2021-08-07T09:24:58Z</time>
      </trkpt>
      <trkpt lat="47.67917" lon="-2.44983">
        <ele>107.2</ele>
        <time>2021-08-07T09:24:59Z</time>
      </trkpt>
      <trkpt lat="47.67918" lon="-2.44984">
        <ele>107.2</ele>
        <time>2021-08-07T09:25:00Z</time>
      </trkpt>
      <trkpt lat="47.67919" lon="-2.44986">
        <ele>107.4</ele>
        <time>2021-08-07T09:25:01Z</time>
      </trkpt>
      <trkpt lat="47.6792" lon="-2.44987">
        <ele>107.4</ele>
        <time>2021-08-07T09:25:02Z</time>
      </trkpt>
      <trkpt lat="47.6792" lon="-2.44989">
        <ele>107.4</ele>
        <time>2021-08-07T09:25:03Z</time>
      </trkpt>
      <trkpt lat="47.67921" lon="-2.44991">
        <ele>107.6</ele>
        <time>2021-08-07T09:25:04Z</time>
      </trkpt>
      <trkpt lat="47.67923" lon="-2.44993">
        <ele>107.6</ele>
        <time>2021-08-07T09:25:05Z</time>
      </trkpt>
      <trkpt lat="47.67926" lon="-2.44992">
        <ele>107.6</ele>
        <time>2021-08-07T09:25:07Z</time>
      </trkpt>
      <trkpt lat="47.67928" lon="-2.4499">
        <ele>107.6</ele>
        <time>2021-08-07T09:25:08Z</time>
      </trkpt>
      <trkpt lat="47.67929" lon="-2.44987">
        <ele>107.6</ele>
        <time>2021-08-07T09:25:09Z</time>
      </trkpt>
      <trkpt lat="47.6793" lon="-2.44984">
        <ele>107.6</ele>
        <time>2021-08-07T09:25:10Z</time>
      </trkpt>
      <trkpt lat="47.67931" lon="-2.4498">
        <ele>107.8</ele>
        <time>2021-08-07T09:25:11Z</time>
      </trkpt>
      <trkpt lat="47.67932" lon="-2.44977">
        <ele>107.8</ele>
        <time>2021-08-07T09:25:12Z</time>
      </trkpt>
      <trkpt lat="47.67933" lon="-2.44974">
        <ele>107.8</ele>
        <time>2021-08-07T09:25:13Z</time>
      </trkpt>
      <trkpt lat="47.67936" lon="-2.44972">
        <ele>107.8</ele>
        <time>2021-08-07T09:25:14Z</time>
      </trkpt>
      <trkpt lat="47.67938" lon="-2.44971">
        <ele>107.8</ele>
        <time>2021-08-07T09:25:15Z</time>
      </trkpt>
      <trkpt lat="47.67941" lon="-2.4497">
        <ele>107.8</ele>
        <time>2021-08-07T09:25:16Z</time>
      </trkpt>
      <trkpt lat="47.67943" lon="-2.44969">
        <ele>107.8</ele>
        <time>2021-08-07T09:25:17Z</time>
      </trkpt>
      <trkpt lat="47.67946" lon="-2.44968">
        <ele>107.8</ele>
        <time>2021-08-07T09:25:18Z</time>
      </trkpt>
      <trkpt lat="47.67948" lon="-2.44967">
        <ele>107.8</ele>
        <time>2021-08-07T09:25:19Z</time>
      </trkpt>
      <trkpt lat="47.67951" lon="-2.44966">
        <ele>107.8</ele>
        <time>2021-08-07T09:25:20Z</time>
      </trkpt>
      <trkpt lat="47.67953" lon="-2.44965">
        <ele>107.8</ele>
        <time>2021-08-07T09:25:21Z</time>
      </trkpt>
      <trkpt lat="47.67956" lon="-2.44965">
        <ele>107.8</ele>
        <time>2021-08-07T09:25:22Z</time>
      </trkpt>
      <trkpt lat="47.67959" lon="-2.44965">
        <ele>107.8</ele>
        <time>2021-08-07T09:25:23Z</time>
      </trkpt>
      <trkpt lat="47.67962" lon="-2.44965">
        <ele>107.8</ele>
        <time>2021-08-07T09:25:24Z</time>
      </trkpt>
      <trkpt lat="47.67965" lon="-2.44964">
        <ele>107.8</ele>
        <time>2021-08-07T09:25:25Z</time>
      </trkpt>
      <trkpt lat="47.67968" lon="-2.44964">
        <ele>107.8</ele>
        <time>2021-08-07T09:25:26Z</time>
      </trkpt>
      <trkpt lat="47.67971" lon="-2.44964">
        <ele>107.8</ele>
        <time>2021-08-07T09:25:27Z</time>
      </trkpt>
      <trkpt lat="47.67974" lon="-2.44963">
        <ele>108</ele>
        <time>2021-08-07T09:25:28Z</time>
      </trkpt>
      <trkpt lat="47.67977" lon="-2.44963">
        <ele>108</ele>
        <time>2021-08-07T09:25:29Z</time>
      </trkpt>
      <trkpt lat="47.6798" lon="-2.44962">
        <ele>108</ele>
        <time>2021-08-07T09:25:30Z</time>
      </trkpt>
      <trkpt lat="47.67983" lon="-2.44962">
        <ele>108</ele>
        <time>2021-08-07T09:25:31Z</time>
      </trkpt>
      <trkpt lat="47.67986" lon="-2.44961">
        <ele>108.2</ele>
        <time>2021-08-07T09:25:32Z</time>
      </trkpt>
      <trkpt lat="47.6799" lon="-2.44961">
        <ele>108.2</ele>
        <time>2021-08-07T09:25:33Z</time>
      </trkpt>
      <trkpt lat="47.67993" lon="-2.44961">
        <ele>108.4</ele>
        <time>2021-08-07T09:25:34Z</time>
      </trkpt>
      <trkpt lat="47.68002" lon="-2.44958">
        <ele>108.6</ele>
        <time>2021-08-07T09:25:37Z</time>
      </trkpt>
      <trkpt lat="47.68005" lon="-2.44957">
        <ele>108.6</ele>
        <time>2021-08-07T09:25:38Z</time>
      </trkpt>
      <trkpt lat="47.68008" lon="-2.44957">
        <ele>108.6</ele>
        <time>2021-08-07T09:25:39Z</time>
      </trkpt>
      <trkpt lat="47.68011" lon="-2.44957">
        <ele>108.6</ele>
        <time>2021-08-07T09:25:40Z</time>
      </trkpt>
      <trkpt lat="47.68017" lon="-2.44957">
        <ele>108.8</ele>
        <time>2021-08-07T09:25:42Z</time>
      </trkpt>
      <trkpt lat="47.68023" lon="-2.44955">
        <ele>109</ele>
        <time>2021-08-07T09:25:44Z</time>
      </trkpt>
      <trkpt lat="47.68029" lon="-2.44955">
        <ele>109.2</ele>
        <time>2021-08-07T09:25:46Z</time>
      </trkpt>
      <trkpt lat="47.68032" lon="-2.44954">
        <ele>109.4</ele>
        <time>2021-08-07T09:25:47Z</time>
      </trkpt>
      <trkpt lat="47.68035" lon="-2.44954">
        <ele>109.4</ele>
        <time>2021-08-07T09:25:48Z</time>
      </trkpt>
      <trkpt lat="47.68041" lon="-2.44953">
        <ele>109.6</ele>
        <time>2021-08-07T09:25:50Z</time>
      </trkpt>
      <trkpt lat="47.68047" lon="-2.44952">
        <ele>109.8</ele>
        <time>2021-08-07T09:25:52Z</time>
      </trkpt>
      <trkpt lat="47.68054" lon="-2.4495">
        <ele>110.4</ele>
        <time>2021-08-07T09:25:54Z</time>
      </trkpt>
      <trkpt lat="47.68057" lon="-2.44949">
        <ele>110.6</ele>
        <time>2021-08-07T09:25:55Z</time>
      </trkpt>
      <trkpt lat="47.6806" lon="-2.44948">
        <ele>110.6</ele>
        <time>2021-08-07T09:25:56Z</time>
      </trkpt>
      <trkpt lat="47.68064" lon="-2.44948">
        <ele>110.8</ele>
        <time>2021-08-07T09:25:57Z</time>
      </trkpt>
      <trkpt lat="47.6807" lon="-2.44945">
        <ele>110.8</ele>
        <time>2021-08-07T09:25:59Z</time>
      </trkpt>
      <trkpt lat="47.68077" lon="-2.44943">
        <ele>110.8</ele>
        <time>2021-08-07T09:26:01Z</time>
      </trkpt>
      <trkpt lat="47.68085" lon="-2.4494">
        <ele>111</ele>
        <time>2021-08-07T09:26:03Z</time>
      </trkpt>
      <trkpt lat="47.68093" lon="-2.44937">
        <ele>111</ele>
        <time>2021-08-07T09:26:05Z</time>
      </trkpt>
      <trkpt lat="47.681" lon="-2.44934">
        <ele>111</ele>
        <time>2021-08-07T09:26:07Z</time>
      </trkpt>
      <trkpt lat="47.68109" lon="-2.44931">
        <ele>111.4</ele>
        <time>2021-08-07T09:26:09Z</time>
      </trkpt>
      <trkpt lat="47.68113" lon="-2.44929">
        <ele>111.4</ele>
        <time>2021-08-07T09:26:10Z</time>
      </trkpt>
      <trkpt lat="47.68118" lon="-2.44927">
        <ele>111.4</ele>
        <time>2021-08-07T09:26:11Z</time>
      </trkpt>
      <trkpt lat="47.68122" lon="-2.44926">
        <ele>111.6</ele>
        <time>2021-08-07T09:26:12Z</time>
      </trkpt>
      <trkpt lat="47.68127" lon="-2.44924">
        <ele>111.6</ele>
        <time>2021-08-07T09:26:13Z</time>
      </trkpt>
      <trkpt lat="47.68136" lon="-2.44921">
        <ele>111.6</ele>
        <time>2021-08-07T09:26:15Z</time>
      </trkpt>
      <trkpt lat="47.68145" lon="-2.44917">
        <ele>111.6</ele>
        <time>2021-08-07T09:26:17Z</time>
      </trkpt>
      <trkpt lat="47.6815" lon="-2.44915">
        <ele>111.6</ele>
        <time>2021-08-07T09:26:18Z</time>
      </trkpt>
      <trkpt lat="47.68155" lon="-2.44914">
        <ele>111.4</ele>
        <time>2021-08-07T09:26:19Z</time>
      </trkpt>
      <trkpt lat="47.68164" lon="-2.44911">
        <ele>111.2</ele>
        <time>2021-08-07T09:26:21Z</time>
      </trkpt>
      <trkpt lat="47.68169" lon="-2.44909">
        <ele>111</ele>
        <time>2021-08-07T09:26:22Z</time>
      </trkpt>
      <trkpt lat="47.68178" lon="-2.44905">
        <ele>110.6</ele>
        <time>2021-08-07T09:26:24Z</time>
      </trkpt>
      <trkpt lat="47.68182" lon="-2.44904">
        <ele>110.4</ele>
        <time>2021-08-07T09:26:25Z</time>
      </trkpt>
      <trkpt lat="47.68187" lon="-2.44902">
        <ele>110</ele>
        <time>2021-08-07T09:26:26Z</time>
      </trkpt>
      <trkpt lat="47.68196" lon="-2.44899">
        <ele>109.6</ele>
        <time>2021-08-07T09:26:28Z</time>
      </trkpt>
      <trkpt lat="47.682" lon="-2.44898">
        <ele>109.4</ele>
        <time>2021-08-07T09:26:29Z</time>
      </trkpt>
      <trkpt lat="47.68204" lon="-2.44898">
        <ele>109.4</ele>
        <time>2021-08-07T09:26:30Z</time>
      </trkpt>
      <trkpt lat="47.68209" lon="-2.44898">
        <ele>109.4</ele>
        <time>2021-08-07T09:26:31Z</time>
      </trkpt>
      <trkpt lat="47.68213" lon="-2.44899">
        <ele>109.4</ele>
        <time>2021-08-07T09:26:32Z</time>
      </trkpt>
      <trkpt lat="47.68221" lon="-2.44899">
        <ele>109.4</ele>
        <time>2021-08-07T09:26:34Z</time>
      </trkpt>
      <trkpt lat="47.68229" lon="-2.44901">
        <ele>109.4</ele>
        <time>2021-08-07T09:26:36Z</time>
      </trkpt>
      <trkpt lat="47.68232" lon="-2.44904">
        <ele>109.4</ele>
        <time>2021-08-07T09:26:37Z</time>
      </trkpt>
      <trkpt lat="47.68235" lon="-2.44906">
        <ele>109.4</ele>
        <time>2021-08-07T09:26:38Z</time>
      </trkpt>
      <trkpt lat="47.68242" lon="-2.4491">
        <ele>109.4</ele>
        <time>2021-08-07T09:26:40Z</time>
      </trkpt>
      <trkpt lat="47.68245" lon="-2.4491">
        <ele>109.6</ele>
        <time>2021-08-07T09:26:41Z</time>
      </trkpt>
      <trkpt lat="47.68248" lon="-2.4491">
        <ele>109.6</ele>
        <time>2021-08-07T09:26:42Z</time>
      </trkpt>
      <trkpt lat="47.6825" lon="-2.44911">
        <ele>109.6</ele>
        <time>2021-08-07T09:26:43Z</time>
      </trkpt>
      <trkpt lat="47.68252" lon="-2.44913">
        <ele>109.8</ele>
        <time>2021-08-07T09:26:44Z</time>
      </trkpt>
      <trkpt lat="47.68255" lon="-2.44915">
        <ele>110</ele>
        <time>2021-08-07T09:26:46Z</time>
      </trkpt>
      <trkpt lat="47.68256" lon="-2.44916">
        <ele>110</ele>
        <time>2021-08-07T09:26:47Z</time>
      </trkpt>
      <trkpt lat="47.68257" lon="-2.44916">
        <ele>110.2</ele>
        <time>2021-08-07T09:26:48Z</time>
      </trkpt>
      <trkpt lat="47.68258" lon="-2.44916">
        <ele>110.2</ele>
        <time>2021-08-07T09:26:49Z</time>
      </trkpt>
      <trkpt lat="47.68259" lon="-2.44915">
        <ele>110.4</ele>
        <time>2021-08-07T09:26:50Z</time>
      </trkpt>
      <trkpt lat="47.68259" lon="-2.44912">
        <ele>110.4</ele>
        <time>2021-08-07T09:26:51Z</time>
      </trkpt>
      <trkpt lat="47.68258" lon="-2.4491">
        <ele>110.6</ele>
        <time>2021-08-07T09:26:52Z</time>
      </trkpt>
      <trkpt lat="47.68252" lon="-2.44907">
        <ele>110.6</ele>
        <time>2021-08-07T09:26:54Z</time>
      </trkpt>
      <trkpt lat="47.68249" lon="-2.44905">
        <ele>110.6</ele>
        <time>2021-08-07T09:26:55Z</time>
      </trkpt>
      <trkpt lat="47.68242" lon="-2.44899">
        <ele>110.6</ele>
        <time>2021-08-07T09:26:57Z</time>
      </trkpt>
      <trkpt lat="47.68238" lon="-2.44889">
        <ele>110.6</ele>
        <time>2021-08-07T09:26:59Z</time>
      </trkpt>
      <trkpt lat="47.68239" lon="-2.44878">
        <ele>110.6</ele>
        <time>2021-08-07T09:27:01Z</time>
      </trkpt>
      <trkpt lat="47.68241" lon="-2.44873">
        <ele>110.6</ele>
        <time>2021-08-07T09:27:02Z</time>
      </trkpt>
      <trkpt lat="47.68243" lon="-2.44869">
        <ele>110.6</ele>
        <time>2021-08-07T09:27:03Z</time>
      </trkpt>
      <trkpt lat="47.68244" lon="-2.44867">
        <ele>110.4</ele>
        <time>2021-08-07T09:27:04Z</time>
      </trkpt>
      <trkpt lat="47.68245" lon="-2.44865">
        <ele>110.4</ele>
        <time>2021-08-07T09:27:05Z</time>
      </trkpt>
      <trkpt lat="47.68245" lon="-2.44863">
        <ele>110.2</ele>
        <time>2021-08-07T09:27:06Z</time>
      </trkpt>
      <trkpt lat="47.68245" lon="-2.44862">
        <ele>110.2</ele>
        <time>2021-08-07T09:27:07Z</time>
      </trkpt>
      <trkpt lat="47.68246" lon="-2.44861">
        <ele>110.2</ele>
        <time>2021-08-07T09:27:08Z</time>
      </trkpt>
      <trkpt lat="47.68247" lon="-2.44862">
        <ele>110</ele>
        <time>2021-08-07T09:27:09Z</time>
      </trkpt>
      <trkpt lat="47.68246" lon="-2.44863">
        <ele>110</ele>
        <time>2021-08-07T09:27:10Z</time>
      </trkpt>
      <trkpt lat="47.68244" lon="-2.44868">
        <ele>110</ele>
        <time>2021-08-07T09:27:12Z</time>
      </trkpt>
      <trkpt lat="47.68244" lon="-2.44871">
        <ele>110</ele>
        <time>2021-08-07T09:27:13Z</time>
      </trkpt>
      <trkpt lat="47.68246" lon="-2.44875">
        <ele>109.8</ele>
        <time>2021-08-07T09:27:14Z</time>
      </trkpt>
      <trkpt lat="47.68248" lon="-2.44878">
        <ele>109.8</ele>
        <time>2021-08-07T09:27:15Z</time>
      </trkpt>
      <trkpt lat="47.68252" lon="-2.44878">
        <ele>109.8</ele>
        <time>2021-08-07T09:27:16Z</time>
      </trkpt>
      <trkpt lat="47.68255" lon="-2.44876">
        <ele>109.8</ele>
        <time>2021-08-07T09:27:17Z</time>
      </trkpt>
      <trkpt lat="47.68264" lon="-2.44871">
        <ele>109.8</ele>
        <time>2021-08-07T09:27:19Z</time>
      </trkpt>
      <trkpt lat="47.68269" lon="-2.44869">
        <ele>109.8</ele>
        <time>2021-08-07T09:27:20Z</time>
      </trkpt>
      <trkpt lat="47.68275" lon="-2.44866">
        <ele>109.8</ele>
        <time>2021-08-07T09:27:21Z</time>
      </trkpt>
      <trkpt lat="47.68282" lon="-2.44863">
        <ele>109.6</ele>
        <time>2021-08-07T09:27:22Z</time>
      </trkpt>
      <trkpt lat="47.68296" lon="-2.44857">
        <ele>109</ele>
        <time>2021-08-07T09:27:24Z</time>
      </trkpt>
      <trkpt lat="47.68311" lon="-2.44849">
        <ele>108.6</ele>
        <time>2021-08-07T09:27:26Z</time>
      </trkpt>
      <trkpt lat="47.68326" lon="-2.44843">
        <ele>108.4</ele>
        <time>2021-08-07T09:27:28Z</time>
      </trkpt>
      <trkpt lat="47.68334" lon="-2.4484">
        <ele>108.2</ele>
        <time>2021-08-07T09:27:29Z</time>
      </trkpt>
      <trkpt lat="47.68341" lon="-2.44837">
        <ele>107.8</ele>
        <time>2021-08-07T09:27:30Z</time>
      </trkpt>
      <trkpt lat="47.68354" lon="-2.44831">
        <ele>106.8</ele>
        <time>2021-08-07T09:27:32Z</time>
      </trkpt>
      <trkpt lat="47.68366" lon="-2.44826">
        <ele>106.2</ele>
        <time>2021-08-07T09:27:34Z</time>
      </trkpt>
      <trkpt lat="47.68376" lon="-2.44822">
        <ele>106</ele>
        <time>2021-08-07T09:27:36Z</time>
      </trkpt>
      <trkpt lat="47.68385" lon="-2.44818">
        <ele>106</ele>
        <time>2021-08-07T09:27:38Z</time>
      </trkpt>
      <trkpt lat="47.6839" lon="-2.44816">
        <ele>106</ele>
        <time>2021-08-07T09:27:39Z</time>
      </trkpt>
      <trkpt lat="47.68393" lon="-2.44814">
        <ele>106</ele>
        <time>2021-08-07T09:27:40Z</time>
      </trkpt>
      <trkpt lat="47.684" lon="-2.4481">
        <ele>106.2</ele>
        <time>2021-08-07T09:27:42Z</time>
      </trkpt>
      <trkpt lat="47.68407" lon="-2.44807">
        <ele>107.4</ele>
        <time>2021-08-07T09:27:44Z</time>
      </trkpt>
      <trkpt lat="47.6841" lon="-2.44805">
        <ele>108.2</ele>
        <time>2021-08-07T09:27:45Z</time>
      </trkpt>
      <trkpt lat="47.68413" lon="-2.44804">
        <ele>109.2</ele>
        <time>2021-08-07T09:27:46Z</time>
      </trkpt>
      <trkpt lat="47.68415" lon="-2.44803">
        <ele>109.8</ele>
        <time>2021-08-07T09:27:47Z</time>
      </trkpt>
      <trkpt lat="47.68418" lon="-2.44802">
        <ele>110</ele>
        <time>2021-08-07T09:27:48Z</time>
      </trkpt>
      <trkpt lat="47.68424" lon="-2.44801">
        <ele>110.6</ele>
        <time>2021-08-07T09:27:50Z</time>
      </trkpt>
      <trkpt lat="47.68427" lon="-2.448">
        <ele>110.6</ele>
        <time>2021-08-07T09:27:51Z</time>
      </trkpt>
      <trkpt lat="47.6843" lon="-2.44799">
        <ele>110.8</ele>
        <time>2021-08-07T09:27:52Z</time>
      </trkpt>
      <trkpt lat="47.68433" lon="-2.44799">
        <ele>111</ele>
        <time>2021-08-07T09:27:53Z</time>
      </trkpt>
      <trkpt lat="47.68437" lon="-2.44798">
        <ele>111.2</ele>
        <time>2021-08-07T09:27:55Z</time>
      </trkpt>
      <trkpt lat="47.68441" lon="-2.44798">
        <ele>111.8</ele>
        <time>2021-08-07T09:27:57Z</time>
      </trkpt>
      <trkpt lat="47.68443" lon="-2.44798">
        <ele>112</ele>
        <time>2021-08-07T09:27:58Z</time>
      </trkpt>
      <trkpt lat="47.68445" lon="-2.44797">
        <ele>112</ele>
        <time>2021-08-07T09:27:59Z</time>
      </trkpt>
      <trkpt lat="47.68447" lon="-2.44795">
        <ele>112.2</ele>
        <time>2021-08-07T09:28:00Z</time>
      </trkpt>
      <trkpt lat="47.68449" lon="-2.44794">
        <ele>112.4</ele>
        <time>2021-08-07T09:28:01Z</time>
      </trkpt>
      <trkpt lat="47.68452" lon="-2.44793">
        <ele>112.4</ele>
        <time>2021-08-07T09:28:02Z</time>
      </trkpt>
      <trkpt lat="47.68457" lon="-2.44791">
        <ele>112.4</ele>
        <time>2021-08-07T09:28:04Z</time>
      </trkpt>
      <trkpt lat="47.6846" lon="-2.4479">
        <ele>112.4</ele>
        <time>2021-08-07T09:28:05Z</time>
      </trkpt>
      <trkpt lat="47.68463" lon="-2.4479">
        <ele>112.6</ele>
        <time>2021-08-07T09:28:06Z</time>
      </trkpt>
      <trkpt lat="47.68468" lon="-2.44791">
        <ele>112.6</ele>
        <time>2021-08-07T09:28:08Z</time>
      </trkpt>
      <trkpt lat="47.68471" lon="-2.4479">
        <ele>112.6</ele>
        <time>2021-08-07T09:28:09Z</time>
      </trkpt>
      <trkpt lat="47.68474" lon="-2.44789">
        <ele>112.6</ele>
        <time>2021-08-07T09:28:10Z</time>
      </trkpt>
      <trkpt lat="47.68478" lon="-2.44786">
        <ele>112.6</ele>
        <time>2021-08-07T09:28:12Z</time>
      </trkpt>
      <trkpt lat="47.68481" lon="-2.44784">
        <ele>112.6</ele>
        <time>2021-08-07T09:28:13Z</time>
      </trkpt>
      <trkpt lat="47.68484" lon="-2.44778">
        <ele>112.6</ele>
        <time>2021-08-07T09:28:15Z</time>
      </trkpt>
      <trkpt lat="47.68486" lon="-2.44774">
        <ele>112.6</ele>
        <time>2021-08-07T09:28:17Z</time>
      </trkpt>
      <trkpt lat="47.68489" lon="-2.44771">
        <ele>112.6</ele>
        <time>2021-08-07T09:28:19Z</time>
      </trkpt>
      <trkpt lat="47.6849" lon="-2.44771">
        <ele>112.6</ele>
        <time>2021-08-07T09:28:20Z</time>
      </trkpt>
      <trkpt lat="47.6849" lon="-2.4477">
        <ele>112.6</ele>
        <time>2021-08-07T09:28:21Z</time>
      </trkpt>
      <trkpt lat="47.68491" lon="-2.4477">
        <ele>112.6</ele>
        <time>2021-08-07T09:28:22Z</time>
      </trkpt>
      <trkpt lat="47.68491" lon="-2.4477">
        <ele>113</ele>
        <time>2021-08-07T09:28:41Z</time>
      </trkpt>
      <trkpt lat="47.68492" lon="-2.44769">
        <ele>112.8</ele>
        <time>2021-08-07T09:28:42Z</time>
      </trkpt>
      <trkpt lat="47.68494" lon="-2.44766">
        <ele>112.8</ele>
        <time>2021-08-07T09:28:44Z</time>
      </trkpt>
      <trkpt lat="47.68497" lon="-2.44763">
        <ele>112.8</ele>
        <time>2021-08-07T09:28:46Z</time>
      </trkpt>
      <trkpt lat="47.68499" lon="-2.44762">
        <ele>112.8</ele>
        <time>2021-08-07T09:28:47Z</time>
      </trkpt>
      <trkpt lat="47.68505" lon="-2.44759">
        <ele>112.8</ele>
        <time>2021-08-07T09:28:49Z</time>
      </trkpt>
      <trkpt lat="47.6851" lon="-2.44755">
        <ele>112.8</ele>
        <time>2021-08-07T09:28:51Z</time>
      </trkpt>
      <trkpt lat="47.68517" lon="-2.44751">
        <ele>112.8</ele>
        <time>2021-08-07T09:28:53Z</time>
      </trkpt>
      <trkpt lat="47.68524" lon="-2.44746">
        <ele>112.8</ele>
        <time>2021-08-07T09:28:55Z</time>
      </trkpt>
      <trkpt lat="47.68528" lon="-2.44744">
        <ele>112.6</ele>
        <time>2021-08-07T09:28:56Z</time>
      </trkpt>
      <trkpt lat="47.68535" lon="-2.44739">
        <ele>112.6</ele>
        <time>2021-08-07T09:28:58Z</time>
      </trkpt>
      <trkpt lat="47.68542" lon="-2.44734">
        <ele>112.6</ele>
        <time>2021-08-07T09:29:00Z</time>
      </trkpt>
      <trkpt lat="47.6855" lon="-2.44728">
        <ele>112.6</ele>
        <time>2021-08-07T09:29:02Z</time>
      </trkpt>
      <trkpt lat="47.68558" lon="-2.44722">
        <ele>112.4</ele>
        <time>2021-08-07T09:29:04Z</time>
      </trkpt>
      <trkpt lat="47.68562" lon="-2.44719">
        <ele>112.4</ele>
        <time>2021-08-07T09:29:05Z</time>
      </trkpt>
      <trkpt lat="47.68566" lon="-2.44715">
        <ele>112.4</ele>
        <time>2021-08-07T09:29:06Z</time>
      </trkpt>
      <trkpt lat="47.6857" lon="-2.44712">
        <ele>112.4</ele>
        <time>2021-08-07T09:29:07Z</time>
      </trkpt>
      <trkpt lat="47.68573" lon="-2.44708">
        <ele>112.6</ele>
        <time>2021-08-07T09:29:08Z</time>
      </trkpt>
      <trkpt lat="47.68577" lon="-2.44704">
        <ele>112.6</ele>
        <time>2021-08-07T09:29:09Z</time>
      </trkpt>
      <trkpt lat="47.6858" lon="-2.447">
        <ele>112.6</ele>
        <time>2021-08-07T09:29:10Z</time>
      </trkpt>
      <trkpt lat="47.68584" lon="-2.44697">
        <ele>112.6</ele>
        <time>2021-08-07T09:29:11Z</time>
      </trkpt>
      <trkpt lat="47.6859" lon="-2.44692">
        <ele>112.8</ele>
        <time>2021-08-07T09:29:13Z</time>
      </trkpt>
      <trkpt lat="47.68596" lon="-2.44685">
        <ele>112.8</ele>
        <time>2021-08-07T09:29:15Z</time>
      </trkpt>
      <trkpt lat="47.68599" lon="-2.44681">
        <ele>112.8</ele>
        <time>2021-08-07T09:29:16Z</time>
      </trkpt>
      <trkpt lat="47.68606" lon="-2.44673">
        <ele>112.8</ele>
        <time>2021-08-07T09:29:18Z</time>
      </trkpt>
      <trkpt lat="47.68609" lon="-2.4467">
        <ele>112.8</ele>
        <time>2021-08-07T09:29:19Z</time>
      </trkpt>
      <trkpt lat="47.68612" lon="-2.44666">
        <ele>112.8</ele>
        <time>2021-08-07T09:29:20Z</time>
      </trkpt>
      <trkpt lat="47.68619" lon="-2.44657">
        <ele>112.8</ele>
        <time>2021-08-07T09:29:22Z</time>
      </trkpt>
      <trkpt lat="47.68626" lon="-2.44649">
        <ele>112.8</ele>
        <time>2021-08-07T09:29:24Z</time>
      </trkpt>
      <trkpt lat="47.68629" lon="-2.44645">
        <ele>112.6</ele>
        <time>2021-08-07T09:29:25Z</time>
      </trkpt>
      <trkpt lat="47.68635" lon="-2.44637">
        <ele>112.6</ele>
        <time>2021-08-07T09:29:27Z</time>
      </trkpt>
      <trkpt lat="47.68639" lon="-2.44633">
        <ele>112.6</ele>
        <time>2021-08-07T09:29:28Z</time>
      </trkpt>
      <trkpt lat="47.68642" lon="-2.44629">
        <ele>112.4</ele>
        <time>2021-08-07T09:29:29Z</time>
      </trkpt>
      <trkpt lat="47.68648" lon="-2.44623">
        <ele>112.4</ele>
        <time>2021-08-07T09:29:31Z</time>
      </trkpt>
      <trkpt lat="47.68655" lon="-2.44617">
        <ele>112.4</ele>
        <time>2021-08-07T09:29:33Z</time>
      </trkpt>
      <trkpt lat="47.6866" lon="-2.44613">
        <ele>112.2</ele>
        <time>2021-08-07T09:29:34Z</time>
      </trkpt>
      <trkpt lat="47.68668" lon="-2.44606">
        <ele>112.2</ele>
        <time>2021-08-07T09:29:36Z</time>
      </trkpt>
      <trkpt lat="47.68676" lon="-2.44598">
        <ele>112.2</ele>
        <time>2021-08-07T09:29:38Z</time>
      </trkpt>
      <trkpt lat="47.68685" lon="-2.4459">
        <ele>112</ele>
        <time>2021-08-07T09:29:40Z</time>
      </trkpt>
      <trkpt lat="47.68693" lon="-2.44584">
        <ele>112</ele>
        <time>2021-08-07T09:29:42Z</time>
      </trkpt>
      <trkpt lat="47.68697" lon="-2.4458">
        <ele>111.8</ele>
        <time>2021-08-07T09:29:43Z</time>
      </trkpt>
      <trkpt lat="47.68705" lon="-2.44574">
        <ele>111.8</ele>
        <time>2021-08-07T09:29:45Z</time>
      </trkpt>
      <trkpt lat="47.68713" lon="-2.44566">
        <ele>111.6</ele>
        <time>2021-08-07T09:29:47Z</time>
      </trkpt>
      <trkpt lat="47.68722" lon="-2.44558">
        <ele>111.6</ele>
        <time>2021-08-07T09:29:49Z</time>
      </trkpt>
      <trkpt lat="47.68726" lon="-2.44554">
        <ele>111.6</ele>
        <time>2021-08-07T09:29:50Z</time>
      </trkpt>
      <trkpt lat="47.6873" lon="-2.4455">
        <ele>111.6</ele>
        <time>2021-08-07T09:29:51Z</time>
      </trkpt>
      <trkpt lat="47.68734" lon="-2.44547">
        <ele>111.6</ele>
        <time>2021-08-07T09:29:52Z</time>
      </trkpt>
      <trkpt lat="47.68742" lon="-2.4454">
        <ele>111.8</ele>
        <time>2021-08-07T09:29:54Z</time>
      </trkpt>
      <trkpt lat="47.68746" lon="-2.44537">
        <ele>111.8</ele>
        <time>2021-08-07T09:29:55Z</time>
      </trkpt>
      <trkpt lat="47.6875" lon="-2.44533">
        <ele>111.8</ele>
        <time>2021-08-07T09:29:56Z</time>
      </trkpt>
      <trkpt lat="47.68754" lon="-2.4453">
        <ele>111.8</ele>
        <time>2021-08-07T09:29:57Z</time>
      </trkpt>
      <trkpt lat="47.68761" lon="-2.44523">
        <ele>111.8</ele>
        <time>2021-08-07T09:29:59Z</time>
      </trkpt>
      <trkpt lat="47.68769" lon="-2.44517">
        <ele>112</ele>
        <time>2021-08-07T09:30:01Z</time>
      </trkpt>
      <trkpt lat="47.68776" lon="-2.4451">
        <ele>112</ele>
        <time>2021-08-07T09:30:03Z</time>
      </trkpt>
      <trkpt lat="47.6878" lon="-2.44507">
        <ele>112.2</ele>
        <time>2021-08-07T09:30:04Z</time>
      </trkpt>
      <trkpt lat="47.68788" lon="-2.44501">
        <ele>112.2</ele>
        <time>2021-08-07T09:30:06Z</time>
      </trkpt>
      <trkpt lat="47.68795" lon="-2.44493">
        <ele>112</ele>
        <time>2021-08-07T09:30:08Z</time>
      </trkpt>
      <trkpt lat="47.68799" lon="-2.4449">
        <ele>112</ele>
        <time>2021-08-07T09:30:09Z</time>
      </trkpt>
      <trkpt lat="47.68803" lon="-2.44487">
        <ele>112</ele>
        <time>2021-08-07T09:30:10Z</time>
      </trkpt>
      <trkpt lat="47.68806" lon="-2.44483">
        <ele>112</ele>
        <time>2021-08-07T09:30:11Z</time>
      </trkpt>
      <trkpt lat="47.68814" lon="-2.44476">
        <ele>112</ele>
        <time>2021-08-07T09:30:13Z</time>
      </trkpt>
      <trkpt lat="47.68818" lon="-2.44473">
        <ele>112</ele>
        <time>2021-08-07T09:30:14Z</time>
      </trkpt>
      <trkpt lat="47.68825" lon="-2.44465">
        <ele>112</ele>
        <time>2021-08-07T09:30:16Z</time>
      </trkpt>
      <trkpt lat="47.68833" lon="-2.44458">
        <ele>111.8</ele>
        <time>2021-08-07T09:30:18Z</time>
      </trkpt>
      <trkpt lat="47.68837" lon="-2.44455">
        <ele>111.8</ele>
        <time>2021-08-07T09:30:19Z</time>
      </trkpt>
      <trkpt lat="47.6884" lon="-2.44452">
        <ele>111.8</ele>
        <time>2021-08-07T09:30:20Z</time>
      </trkpt>
      <trkpt lat="47.68844" lon="-2.44448">
        <ele>111.8</ele>
        <time>2021-08-07T09:30:21Z</time>
      </trkpt>
      <trkpt lat="47.68851" lon="-2.44443">
        <ele>111.8</ele>
        <time>2021-08-07T09:30:23Z</time>
      </trkpt>
      <trkpt lat="47.68857" lon="-2.44434">
        <ele>111.8</ele>
        <time>2021-08-07T09:30:25Z</time>
      </trkpt>
      <trkpt lat="47.68859" lon="-2.44429">
        <ele>111.8</ele>
        <time>2021-08-07T09:30:26Z</time>
      </trkpt>
      <trkpt lat="47.6886" lon="-2.44423">
        <ele>111.8</ele>
        <time>2021-08-07T09:30:27Z</time>
      </trkpt>
      <trkpt lat="47.6886" lon="-2.44416">
        <ele>111.8</ele>
        <time>2021-08-07T09:30:28Z</time>
      </trkpt>
      <trkpt lat="47.6886" lon="-2.4441">
        <ele>111.8</ele>
        <time>2021-08-07T09:30:29Z</time>
      </trkpt>
      <trkpt lat="47.6886" lon="-2.44403">
        <ele>111.8</ele>
        <time>2021-08-07T09:30:30Z</time>
      </trkpt>
      <trkpt lat="47.68856" lon="-2.44392">
        <ele>111.8</ele>
        <time>2021-08-07T09:30:32Z</time>
      </trkpt>
      <trkpt lat="47.68854" lon="-2.44386">
        <ele>111.8</ele>
        <time>2021-08-07T09:30:33Z</time>
      </trkpt>
      <trkpt lat="47.68852" lon="-2.44381">
        <ele>111.8</ele>
        <time>2021-08-07T09:30:34Z</time>
      </trkpt>
      <trkpt lat="47.68849" lon="-2.44375">
        <ele>111.8</ele>
        <time>2021-08-07T09:30:35Z</time>
      </trkpt>
      <trkpt lat="47.68845" lon="-2.44363">
        <ele>111.8</ele>
        <time>2021-08-07T09:30:37Z</time>
      </trkpt>
      <trkpt lat="47.6884" lon="-2.44351">
        <ele>111.8</ele>
        <time>2021-08-07T09:30:39Z</time>
      </trkpt>
      <trkpt lat="47.68835" lon="-2.44339">
        <ele>111.6</ele>
        <time>2021-08-07T09:30:41Z</time>
      </trkpt>
      <trkpt lat="47.68831" lon="-2.44327">
        <ele>111.6</ele>
        <time>2021-08-07T09:30:43Z</time>
      </trkpt>
      <trkpt lat="47.68829" lon="-2.44322">
        <ele>111.4</ele>
        <time>2021-08-07T09:30:44Z</time>
      </trkpt>
      <trkpt lat="47.68823" lon="-2.44311">
        <ele>111.4</ele>
        <time>2021-08-07T09:30:46Z</time>
      </trkpt>
      <trkpt lat="47.68819" lon="-2.44299">
        <ele>111.4</ele>
        <time>2021-08-07T09:30:48Z</time>
      </trkpt>
      <trkpt lat="47.68814" lon="-2.44287">
        <ele>111.6</ele>
        <time>2021-08-07T09:30:50Z</time>
      </trkpt>
      <trkpt lat="47.68811" lon="-2.44281">
        <ele>111.6</ele>
        <time>2021-08-07T09:30:51Z</time>
      </trkpt>
      <trkpt lat="47.68809" lon="-2.44275">
        <ele>111.6</ele>
        <time>2021-08-07T09:30:52Z</time>
      </trkpt>
      <trkpt lat="47.68808" lon="-2.44268">
        <ele>111.6</ele>
        <time>2021-08-07T09:30:53Z</time>
      </trkpt>
      <trkpt lat="47.68806" lon="-2.44254">
        <ele>111.6</ele>
        <time>2021-08-07T09:30:55Z</time>
      </trkpt>
      <trkpt lat="47.68803" lon="-2.44241">
        <ele>111.6</ele>
        <time>2021-08-07T09:30:57Z</time>
      </trkpt>
      <trkpt lat="47.68799" lon="-2.44228">
        <ele>111.4</ele>
        <time>2021-08-07T09:30:59Z</time>
      </trkpt>
      <trkpt lat="47.68798" lon="-2.44222">
        <ele>111.4</ele>
        <time>2021-08-07T09:31:00Z</time>
      </trkpt>
      <trkpt lat="47.68795" lon="-2.4421">
        <ele>111.4</ele>
        <time>2021-08-07T09:31:02Z</time>
      </trkpt>
      <trkpt lat="47.68792" lon="-2.44198">
        <ele>111</ele>
        <time>2021-08-07T09:31:04Z</time>
      </trkpt>
      <trkpt lat="47.6879" lon="-2.44189">
        <ele>110.6</ele>
        <time>2021-08-07T09:31:06Z</time>
      </trkpt>
      <trkpt lat="47.68788" lon="-2.44182">
        <ele>110.4</ele>
        <time>2021-08-07T09:31:08Z</time>
      </trkpt>
      <trkpt lat="47.68787" lon="-2.4418">
        <ele>110.4</ele>
        <time>2021-08-07T09:31:09Z</time>
      </trkpt>
      <trkpt lat="47.68785" lon="-2.44177">
        <ele>110.4</ele>
        <time>2021-08-07T09:31:11Z</time>
      </trkpt>
      <trkpt lat="47.68785" lon="-2.44175">
        <ele>110.4</ele>
        <time>2021-08-07T09:31:13Z</time>
      </trkpt>
      <trkpt lat="47.68784" lon="-2.44174">
        <ele>110.4</ele>
        <time>2021-08-07T09:31:14Z</time>
      </trkpt>
      <trkpt lat="47.68784" lon="-2.44174">
        <ele>110.6</ele>
        <time>2021-08-07T09:31:15Z</time>
      </trkpt>
      <trkpt lat="47.68783" lon="-2.44171">
        <ele>110.8</ele>
        <time>2021-08-07T09:31:17Z</time>
      </trkpt>
      <trkpt lat="47.68782" lon="-2.44168">
        <ele>111</ele>
        <time>2021-08-07T09:31:19Z</time>
      </trkpt>
      <trkpt lat="47.68781" lon="-2.44165">
        <ele>111.2</ele>
        <time>2021-08-07T09:31:21Z</time>
      </trkpt>
      <trkpt lat="47.6878" lon="-2.44164">
        <ele>111.2</ele>
        <time>2021-08-07T09:31:22Z</time>
      </trkpt>
      <trkpt lat="47.68779" lon="-2.44163">
        <ele>111.2</ele>
        <time>2021-08-07T09:31:23Z</time>
      </trkpt>
      <trkpt lat="47.68779" lon="-2.44161">
        <ele>111.2</ele>
        <time>2021-08-07T09:31:24Z</time>
      </trkpt>
      <trkpt lat="47.68777" lon="-2.44156">
        <ele>111.2</ele>
        <time>2021-08-07T09:31:26Z</time>
      </trkpt>
      <trkpt lat="47.68775" lon="-2.44152">
        <ele>111.2</ele>
        <time>2021-08-07T09:31:28Z</time>
      </trkpt>
      <trkpt lat="47.68774" lon="-2.44149">
        <ele>111.2</ele>
        <time>2021-08-07T09:31:29Z</time>
      </trkpt>
      <trkpt lat="47.6877" lon="-2.44143">
        <ele>111</ele>
        <time>2021-08-07T09:31:31Z</time>
      </trkpt>
      <trkpt lat="47.68766" lon="-2.44137">
        <ele>111</ele>
        <time>2021-08-07T09:31:33Z</time>
      </trkpt>
      <trkpt lat="47.68764" lon="-2.44133">
        <ele>111</ele>
        <time>2021-08-07T09:31:34Z</time>
      </trkpt>
      <trkpt lat="47.68762" lon="-2.44131">
        <ele>111</ele>
        <time>2021-08-07T09:31:35Z</time>
      </trkpt>
      <trkpt lat="47.6876" lon="-2.44129">
        <ele>111</ele>
        <time>2021-08-07T09:31:36Z</time>
      </trkpt>
      <trkpt lat="47.68759" lon="-2.44127">
        <ele>111</ele>
        <time>2021-08-07T09:31:37Z</time>
      </trkpt>
      <trkpt lat="47.68756" lon="-2.44125">
        <ele>111</ele>
        <time>2021-08-07T09:31:38Z</time>
      </trkpt>
      <trkpt lat="47.68751" lon="-2.44121">
        <ele>111</ele>
        <time>2021-08-07T09:31:40Z</time>
      </trkpt>
      <trkpt lat="47.68746" lon="-2.44116">
        <ele>110.8</ele>
        <time>2021-08-07T09:31:42Z</time>
      </trkpt>
      <trkpt lat="47.68743" lon="-2.44114">
        <ele>111</ele>
        <time>2021-08-07T09:31:43Z</time>
      </trkpt>
      <trkpt lat="47.6874" lon="-2.44111">
        <ele>111</ele>
        <time>2021-08-07T09:31:44Z</time>
      </trkpt>
      <trkpt lat="47.68738" lon="-2.44109">
        <ele>111</ele>
        <time>2021-08-07T09:31:45Z</time>
      </trkpt>
      <trkpt lat="47.68733" lon="-2.44101">
        <ele>111</ele>
        <time>2021-08-07T09:31:47Z</time>
      </trkpt>
      <trkpt lat="47.68731" lon="-2.44096">
        <ele>111</ele>
        <time>2021-08-07T09:31:48Z</time>
      </trkpt>
      <trkpt lat="47.6873" lon="-2.4409">
        <ele>110.8</ele>
        <time>2021-08-07T09:31:49Z</time>
      </trkpt>
      <trkpt lat="47.68728" lon="-2.4408">
        <ele>110.8</ele>
        <time>2021-08-07T09:31:51Z</time>
      </trkpt>
      <trkpt lat="47.68728" lon="-2.44077">
        <ele>110.8</ele>
        <time>2021-08-07T09:31:52Z</time>
      </trkpt>
      <trkpt lat="47.68729" lon="-2.44073">
        <ele>110.8</ele>
        <time>2021-08-07T09:31:53Z</time>
      </trkpt>
      <trkpt lat="47.68731" lon="-2.44066">
        <ele>110.4</ele>
        <time>2021-08-07T09:31:55Z</time>
      </trkpt>
      <trkpt lat="47.68736" lon="-2.44056">
        <ele>110.2</ele>
        <time>2021-08-07T09:31:58Z</time>
      </trkpt>
      <trkpt lat="47.68741" lon="-2.44045">
        <ele>110</ele>
        <time>2021-08-07T09:32:01Z</time>
      </trkpt>
      <trkpt lat="47.68746" lon="-2.44038">
        <ele>110</ele>
        <time>2021-08-07T09:32:03Z</time>
      </trkpt>
      <trkpt lat="47.68756" lon="-2.44026">
        <ele>109.8</ele>
        <time>2021-08-07T09:32:06Z</time>
      </trkpt>
      <trkpt lat="47.6876" lon="-2.44021">
        <ele>109.8</ele>
        <time>2021-08-07T09:32:07Z</time>
      </trkpt>
      <trkpt lat="47.68768" lon="-2.44013">
        <ele>109.6</ele>
        <time>2021-08-07T09:32:09Z</time>
      </trkpt>
      <trkpt lat="47.68772" lon="-2.44009">
        <ele>109.6</ele>
        <time>2021-08-07T09:32:10Z</time>
      </trkpt>
      <trkpt lat="47.68782" lon="-2.43998">
        <ele>109.4</ele>
        <time>2021-08-07T09:32:12Z</time>
      </trkpt>
      <trkpt lat="47.68788" lon="-2.43993">
        <ele>109</ele>
        <time>2021-08-07T09:32:13Z</time>
      </trkpt>
      <trkpt lat="47.68794" lon="-2.43987">
        <ele>109</ele>
        <time>2021-08-07T09:32:14Z</time>
      </trkpt>
      <trkpt lat="47.6881" lon="-2.43973">
        <ele>108.8</ele>
        <time>2021-08-07T09:32:17Z</time>
      </trkpt>
      <trkpt lat="47.68819" lon="-2.43965">
        <ele>108.8</ele>
        <time>2021-08-07T09:32:19Z</time>
      </trkpt>
      <trkpt lat="47.68823" lon="-2.43961">
        <ele>108.8</ele>
        <time>2021-08-07T09:32:20Z</time>
      </trkpt>
      <trkpt lat="47.6883" lon="-2.43953">
        <ele>108.8</ele>
        <time>2021-08-07T09:32:22Z</time>
      </trkpt>
      <trkpt lat="47.68833" lon="-2.4395">
        <ele>108.8</ele>
        <time>2021-08-07T09:32:23Z</time>
      </trkpt>
      <trkpt lat="47.68842" lon="-2.43942">
        <ele>108.6</ele>
        <time>2021-08-07T09:32:25Z</time>
      </trkpt>
      <trkpt lat="47.68845" lon="-2.43938">
        <ele>108.6</ele>
        <time>2021-08-07T09:32:26Z</time>
      </trkpt>
      <trkpt lat="47.68849" lon="-2.43934">
        <ele>108.6</ele>
        <time>2021-08-07T09:32:27Z</time>
      </trkpt>
      <trkpt lat="47.68853" lon="-2.4393">
        <ele>108.6</ele>
        <time>2021-08-07T09:32:28Z</time>
      </trkpt>
      <trkpt lat="47.68866" lon="-2.43918">
        <ele>108.6</ele>
        <time>2021-08-07T09:32:31Z</time>
      </trkpt>
      <trkpt lat="47.68869" lon="-2.43915">
        <ele>108.6</ele>
        <time>2021-08-07T09:32:32Z</time>
      </trkpt>
      <trkpt lat="47.68872" lon="-2.43912">
        <ele>108.4</ele>
        <time>2021-08-07T09:32:33Z</time>
      </trkpt>
      <trkpt lat="47.68874" lon="-2.4391">
        <ele>108.4</ele>
        <time>2021-08-07T09:32:34Z</time>
      </trkpt>
      <trkpt lat="47.68878" lon="-2.43907">
        <ele>108.4</ele>
        <time>2021-08-07T09:32:35Z</time>
      </trkpt>
      <trkpt lat="47.68882" lon="-2.43904">
        <ele>108.4</ele>
        <time>2021-08-07T09:32:36Z</time>
      </trkpt>
      <trkpt lat="47.68886" lon="-2.43901">
        <ele>108.4</ele>
        <time>2021-08-07T09:32:37Z</time>
      </trkpt>
      <trkpt lat="47.6889" lon="-2.43898">
        <ele>108.2</ele>
        <time>2021-08-07T09:32:38Z</time>
      </trkpt>
      <trkpt lat="47.68895" lon="-2.43894">
        <ele>108</ele>
        <time>2021-08-07T09:32:39Z</time>
      </trkpt>
      <trkpt lat="47.68899" lon="-2.43891">
        <ele>108</ele>
        <time>2021-08-07T09:32:40Z</time>
      </trkpt>
      <trkpt lat="47.68905" lon="-2.43884">
        <ele>107.8</ele>
        <time>2021-08-07T09:32:42Z</time>
      </trkpt>
      <trkpt lat="47.68914" lon="-2.43875">
        <ele>107.6</ele>
        <time>2021-08-07T09:32:44Z</time>
      </trkpt>
      <trkpt lat="47.68922" lon="-2.43867">
        <ele>107.6</ele>
        <time>2021-08-07T09:32:46Z</time>
      </trkpt>
      <trkpt lat="47.68927" lon="-2.43863">
        <ele>107.4</ele>
        <time>2021-08-07T09:32:47Z</time>
      </trkpt>
      <trkpt lat="47.68941" lon="-2.43851">
        <ele>107.4</ele>
        <time>2021-08-07T09:32:50Z</time>
      </trkpt>
      <trkpt lat="47.68951" lon="-2.43841">
        <ele>107.2</ele>
        <time>2021-08-07T09:32:53Z</time>
      </trkpt>
      <trkpt lat="47.68954" lon="-2.43836">
        <ele>107</ele>
        <time>2021-08-07T09:32:54Z</time>
      </trkpt>
      <trkpt lat="47.68957" lon="-2.43832">
        <ele>106.8</ele>
        <time>2021-08-07T09:32:55Z</time>
      </trkpt>
      <trkpt lat="47.68966" lon="-2.43823">
        <ele>106.6</ele>
        <time>2021-08-07T09:32:58Z</time>
      </trkpt>
      <trkpt lat="47.68971" lon="-2.43819">
        <ele>106.4</ele>
        <time>2021-08-07T09:32:59Z</time>
      </trkpt>
      <trkpt lat="47.68976" lon="-2.43815">
        <ele>106.2</ele>
        <time>2021-08-07T09:33:00Z</time>
      </trkpt>
      <trkpt lat="47.68981" lon="-2.43812">
        <ele>106.2</ele>
        <time>2021-08-07T09:33:01Z</time>
      </trkpt>
      <trkpt lat="47.68986" lon="-2.43806">
        <ele>106</ele>
        <time>2021-08-07T09:33:03Z</time>
      </trkpt>
      <trkpt lat="47.68995" lon="-2.43798">
        <ele>106</ele>
        <time>2021-08-07T09:33:05Z</time>
      </trkpt>
      <trkpt lat="47.69003" lon="-2.43792">
        <ele>106</ele>
        <time>2021-08-07T09:33:06Z</time>
      </trkpt>
      <trkpt lat="47.69006" lon="-2.43788">
        <ele>105.6</ele>
        <time>2021-08-07T09:33:07Z</time>
      </trkpt>
      <trkpt lat="47.69014" lon="-2.4378">
        <ele>105.4</ele>
        <time>2021-08-07T09:33:09Z</time>
      </trkpt>
      <trkpt lat="47.69025" lon="-2.43772">
        <ele>105.2</ele>
        <time>2021-08-07T09:33:11Z</time>
      </trkpt>
      <trkpt lat="47.69031" lon="-2.43767">
        <ele>105.2</ele>
        <time>2021-08-07T09:33:12Z</time>
      </trkpt>
      <trkpt lat="47.69046" lon="-2.43757">
        <ele>105.2</ele>
        <time>2021-08-07T09:33:15Z</time>
      </trkpt>
      <trkpt lat="47.69053" lon="-2.43752">
        <ele>105.2</ele>
        <time>2021-08-07T09:33:16Z</time>
      </trkpt>
      <trkpt lat="47.69061" lon="-2.43747">
        <ele>105.2</ele>
        <time>2021-08-07T09:33:17Z</time>
      </trkpt>
      <trkpt lat="47.69068" lon="-2.43742">
        <ele>105.2</ele>
        <time>2021-08-07T09:33:18Z</time>
      </trkpt>
      <trkpt lat="47.69073" lon="-2.43738">
        <ele>105.2</ele>
        <time>2021-08-07T09:33:19Z</time>
      </trkpt>
      <trkpt lat="47.69077" lon="-2.43734">
        <ele>105.2</ele>
        <time>2021-08-07T09:33:20Z</time>
      </trkpt>
      <trkpt lat="47.69093" lon="-2.43722">
        <ele>105.2</ele>
        <time>2021-08-07T09:33:23Z</time>
      </trkpt>
      <trkpt lat="47.69108" lon="-2.4371">
        <ele>105.2</ele>
        <time>2021-08-07T09:33:26Z</time>
      </trkpt>
      <trkpt lat="47.69116" lon="-2.43703">
        <ele>105.2</ele>
        <time>2021-08-07T09:33:28Z</time>
      </trkpt>
      <trkpt lat="47.69124" lon="-2.43696">
        <ele>105.2</ele>
        <time>2021-08-07T09:33:30Z</time>
      </trkpt>
      <trkpt lat="47.69128" lon="-2.43693">
        <ele>105.2</ele>
        <time>2021-08-07T09:33:31Z</time>
      </trkpt>
      <trkpt lat="47.69141" lon="-2.43682">
        <ele>105.2</ele>
        <time>2021-08-07T09:33:34Z</time>
      </trkpt>
      <trkpt lat="47.69146" lon="-2.43678">
        <ele>105.2</ele>
        <time>2021-08-07T09:33:35Z</time>
      </trkpt>
      <trkpt lat="47.6915" lon="-2.43675">
        <ele>105.2</ele>
        <time>2021-08-07T09:33:36Z</time>
      </trkpt>
      <trkpt lat="47.69155" lon="-2.43671">
        <ele>105.2</ele>
        <time>2021-08-07T09:33:37Z</time>
      </trkpt>
      <trkpt lat="47.69162" lon="-2.43664">
        <ele>105.2</ele>
        <time>2021-08-07T09:33:39Z</time>
      </trkpt>
      <trkpt lat="47.69166" lon="-2.4366">
        <ele>105.2</ele>
        <time>2021-08-07T09:33:40Z</time>
      </trkpt>
      <trkpt lat="47.6917" lon="-2.43657">
        <ele>105.2</ele>
        <time>2021-08-07T09:33:41Z</time>
      </trkpt>
      <trkpt lat="47.69174" lon="-2.43653">
        <ele>105.2</ele>
        <time>2021-08-07T09:33:42Z</time>
      </trkpt>
      <trkpt lat="47.69179" lon="-2.43647">
        <ele>105.2</ele>
        <time>2021-08-07T09:33:44Z</time>
      </trkpt>
      <trkpt lat="47.69182" lon="-2.43643">
        <ele>105.2</ele>
        <time>2021-08-07T09:33:45Z</time>
      </trkpt>
      <trkpt lat="47.69186" lon="-2.4364">
        <ele>105.2</ele>
        <time>2021-08-07T09:33:46Z</time>
      </trkpt>
      <trkpt lat="47.69194" lon="-2.43635">
        <ele>105.2</ele>
        <time>2021-08-07T09:33:48Z</time>
      </trkpt>
      <trkpt lat="47.69198" lon="-2.43632">
        <ele>105.2</ele>
        <time>2021-08-07T09:33:49Z</time>
      </trkpt>
      <trkpt lat="47.69203" lon="-2.43628">
        <ele>105</ele>
        <time>2021-08-07T09:33:50Z</time>
      </trkpt>
      <trkpt lat="47.69209" lon="-2.4362">
        <ele>105</ele>
        <time>2021-08-07T09:33:52Z</time>
      </trkpt>
      <trkpt lat="47.69213" lon="-2.43617">
        <ele>104.8</ele>
        <time>2021-08-07T09:33:53Z</time>
      </trkpt>
      <trkpt lat="47.69217" lon="-2.43613">
        <ele>104.8</ele>
        <time>2021-08-07T09:33:54Z</time>
      </trkpt>
      <trkpt lat="47.69222" lon="-2.43609">
        <ele>104.6</ele>
        <time>2021-08-07T09:33:56Z</time>
      </trkpt>
      <trkpt lat="47.69228" lon="-2.43605">
        <ele>104.4</ele>
        <time>2021-08-07T09:33:58Z</time>
      </trkpt>
      <trkpt lat="47.69233" lon="-2.43603">
        <ele>104.4</ele>
        <time>2021-08-07T09:33:59Z</time>
      </trkpt>
      <trkpt lat="47.69244" lon="-2.43596">
        <ele>104.2</ele>
        <time>2021-08-07T09:34:01Z</time>
      </trkpt>
      <trkpt lat="47.69249" lon="-2.43593">
        <ele>104.2</ele>
        <time>2021-08-07T09:34:02Z</time>
      </trkpt>
      <trkpt lat="47.6926" lon="-2.43586">
        <ele>104.2</ele>
        <time>2021-08-07T09:34:04Z</time>
      </trkpt>
      <trkpt lat="47.69277" lon="-2.43576">
        <ele>104</ele>
        <time>2021-08-07T09:34:07Z</time>
      </trkpt>
      <trkpt lat="47.69291" lon="-2.43568">
        <ele>104</ele>
        <time>2021-08-07T09:34:10Z</time>
      </trkpt>
      <trkpt lat="47.69296" lon="-2.43566">
        <ele>104</ele>
        <time>2021-08-07T09:34:11Z</time>
      </trkpt>
      <trkpt lat="47.693" lon="-2.43564">
        <ele>104</ele>
        <time>2021-08-07T09:34:12Z</time>
      </trkpt>
      <trkpt lat="47.69314" lon="-2.43558">
        <ele>103.8</ele>
        <time>2021-08-07T09:34:15Z</time>
      </trkpt>
      <trkpt lat="47.69327" lon="-2.43552">
        <ele>103.8</ele>
        <time>2021-08-07T09:34:18Z</time>
      </trkpt>
      <trkpt lat="47.69337" lon="-2.43547">
        <ele>103.8</ele>
        <time>2021-08-07T09:34:20Z</time>
      </trkpt>
      <trkpt lat="47.69346" lon="-2.43543">
        <ele>104</ele>
        <time>2021-08-07T09:34:22Z</time>
      </trkpt>
      <trkpt lat="47.69351" lon="-2.4354">
        <ele>104</ele>
        <time>2021-08-07T09:34:23Z</time>
      </trkpt>
      <trkpt lat="47.69365" lon="-2.43534">
        <ele>104</ele>
        <time>2021-08-07T09:34:26Z</time>
      </trkpt>
      <trkpt lat="47.6937" lon="-2.43532">
        <ele>104</ele>
        <time>2021-08-07T09:34:27Z</time>
      </trkpt>
      <trkpt lat="47.69375" lon="-2.4353">
        <ele>104</ele>
        <time>2021-08-07T09:34:28Z</time>
      </trkpt>
      <trkpt lat="47.6939" lon="-2.43525">
        <ele>104</ele>
        <time>2021-08-07T09:34:31Z</time>
      </trkpt>
      <trkpt lat="47.694" lon="-2.43521">
        <ele>104</ele>
        <time>2021-08-07T09:34:33Z</time>
      </trkpt>
      <trkpt lat="47.69405" lon="-2.4352">
        <ele>104</ele>
        <time>2021-08-07T09:34:34Z</time>
      </trkpt>
      <trkpt lat="47.6941" lon="-2.43518">
        <ele>104</ele>
        <time>2021-08-07T09:34:35Z</time>
      </trkpt>
      <trkpt lat="47.69419" lon="-2.43515">
        <ele>104</ele>
        <time>2021-08-07T09:34:37Z</time>
      </trkpt>
      <trkpt lat="47.69428" lon="-2.43513">
        <ele>103.8</ele>
        <time>2021-08-07T09:34:39Z</time>
      </trkpt>
      <trkpt lat="47.69432" lon="-2.43512">
        <ele>103.6</ele>
        <time>2021-08-07T09:34:40Z</time>
      </trkpt>
      <trkpt lat="47.69437" lon="-2.43511">
        <ele>103.6</ele>
        <time>2021-08-07T09:34:41Z</time>
      </trkpt>
      <trkpt lat="47.69441" lon="-2.4351">
        <ele>103.6</ele>
        <time>2021-08-07T09:34:42Z</time>
      </trkpt>
      <trkpt lat="47.6945" lon="-2.43508">
        <ele>103.4</ele>
        <time>2021-08-07T09:34:44Z</time>
      </trkpt>
      <trkpt lat="47.69455" lon="-2.43507">
        <ele>103.2</ele>
        <time>2021-08-07T09:34:45Z</time>
      </trkpt>
      <trkpt lat="47.69459" lon="-2.43506">
        <ele>103.2</ele>
        <time>2021-08-07T09:34:46Z</time>
      </trkpt>
      <trkpt lat="47.69464" lon="-2.43504">
        <ele>103.2</ele>
        <time>2021-08-07T09:34:47Z</time>
      </trkpt>
      <trkpt lat="47.69477" lon="-2.435">
        <ele>103</ele>
        <time>2021-08-07T09:34:50Z</time>
      </trkpt>
      <trkpt lat="47.69489" lon="-2.43497">
        <ele>103</ele>
        <time>2021-08-07T09:34:53Z</time>
      </trkpt>
      <trkpt lat="47.69493" lon="-2.43496">
        <ele>103.2</ele>
        <time>2021-08-07T09:34:54Z</time>
      </trkpt>
      <trkpt lat="47.69496" lon="-2.43496">
        <ele>103.2</ele>
        <time>2021-08-07T09:34:55Z</time>
      </trkpt>
      <trkpt lat="47.69499" lon="-2.43496">
        <ele>103.2</ele>
        <time>2021-08-07T09:34:57Z</time>
      </trkpt>
      <trkpt lat="47.69501" lon="-2.43495">
        <ele>103.2</ele>
        <time>2021-08-07T09:34:58Z</time>
      </trkpt>
      <trkpt lat="47.69503" lon="-2.43494">
        <ele>103.4</ele>
        <time>2021-08-07T09:35:00Z</time>
      </trkpt>
      <trkpt lat="47.69503" lon="-2.43493">
        <ele>103.6</ele>
        <time>2021-08-07T09:35:01Z</time>
      </trkpt>
      <trkpt lat="47.69505" lon="-2.4349">
        <ele>103.6</ele>
        <time>2021-08-07T09:35:03Z</time>
      </trkpt>
      <trkpt lat="47.69506" lon="-2.43489">
        <ele>103.6</ele>
        <time>2021-08-07T09:35:04Z</time>
      </trkpt>
      <trkpt lat="47.6951" lon="-2.43486">
        <ele>103.6</ele>
        <time>2021-08-07T09:35:06Z</time>
      </trkpt>
      <trkpt lat="47.69511" lon="-2.43483">
        <ele>103.8</ele>
        <time>2021-08-07T09:35:07Z</time>
      </trkpt>
      <trkpt lat="47.69511" lon="-2.43477">
        <ele>103.8</ele>
        <time>2021-08-07T09:35:09Z</time>
      </trkpt>
      <trkpt lat="47.69511" lon="-2.43473">
        <ele>103.8</ele>
        <time>2021-08-07T09:35:10Z</time>
      </trkpt>
      <trkpt lat="47.69511" lon="-2.43467">
        <ele>103.8</ele>
        <time>2021-08-07T09:35:12Z</time>
      </trkpt>
      <trkpt lat="47.69512" lon="-2.43464">
        <ele>103.8</ele>
        <time>2021-08-07T09:35:13Z</time>
      </trkpt>
      <trkpt lat="47.69512" lon="-2.43461">
        <ele>103.8</ele>
        <time>2021-08-07T09:35:14Z</time>
      </trkpt>
      <trkpt lat="47.69513" lon="-2.43459">
        <ele>103.8</ele>
        <time>2021-08-07T09:35:15Z</time>
      </trkpt>
      <trkpt lat="47.69513" lon="-2.43457">
        <ele>103.8</ele>
        <time>2021-08-07T09:35:16Z</time>
      </trkpt>
      <trkpt lat="47.69514" lon="-2.43455">
        <ele>103.8</ele>
        <time>2021-08-07T09:35:17Z</time>
      </trkpt>
      <trkpt lat="47.69514" lon="-2.43454">
        <ele>103.8</ele>
        <time>2021-08-07T09:35:18Z</time>
      </trkpt>
      <trkpt lat="47.69514" lon="-2.43454">
        <ele>103.8</ele>
        <time>2021-08-07T09:35:19Z</time>
      </trkpt>
      <trkpt lat="47.69516" lon="-2.43452">
        <ele>103.2</ele>
        <time>2021-08-07T09:36:11Z</time>
      </trkpt>
      <trkpt lat="47.69517" lon="-2.43451">
        <ele>103.2</ele>
        <time>2021-08-07T09:36:12Z</time>
      </trkpt>
      <trkpt lat="47.69519" lon="-2.43452">
        <ele>103.2</ele>
        <time>2021-08-07T09:36:14Z</time>
      </trkpt>
      <trkpt lat="47.6952" lon="-2.43454">
        <ele>103.2</ele>
        <time>2021-08-07T09:36:15Z</time>
      </trkpt>
      <trkpt lat="47.69519" lon="-2.43456">
        <ele>103.2</ele>
        <time>2021-08-07T09:36:16Z</time>
      </trkpt>
      <trkpt lat="47.69519" lon="-2.43458">
        <ele>103.2</ele>
        <time>2021-08-07T09:36:17Z</time>
      </trkpt>
      <trkpt lat="47.69519" lon="-2.4346">
        <ele>103.2</ele>
        <time>2021-08-07T09:36:18Z</time>
      </trkpt>
      <trkpt lat="47.69518" lon="-2.43463">
        <ele>103.2</ele>
        <time>2021-08-07T09:36:19Z</time>
      </trkpt>
      <trkpt lat="47.69518" lon="-2.43465">
        <ele>103.2</ele>
        <time>2021-08-07T09:36:20Z</time>
      </trkpt>
      <trkpt lat="47.69517" lon="-2.43467">
        <ele>103.2</ele>
        <time>2021-08-07T09:36:21Z</time>
      </trkpt>
      <trkpt lat="47.69517" lon="-2.43469">
        <ele>103.2</ele>
        <time>2021-08-07T09:36:22Z</time>
      </trkpt>
      <trkpt lat="47.69517" lon="-2.43471">
        <ele>103.2</ele>
        <time>2021-08-07T09:36:23Z</time>
      </trkpt>
      <trkpt lat="47.69517" lon="-2.43473">
        <ele>103.2</ele>
        <time>2021-08-07T09:36:24Z</time>
      </trkpt>
      <trkpt lat="47.69517" lon="-2.43475">
        <ele>103.2</ele>
        <time>2021-08-07T09:36:25Z</time>
      </trkpt>
      <trkpt lat="47.69517" lon="-2.43478">
        <ele>103.2</ele>
        <time>2021-08-07T09:36:26Z</time>
      </trkpt>
      <trkpt lat="47.69518" lon="-2.43483">
        <ele>103</ele>
        <time>2021-08-07T09:36:28Z</time>
      </trkpt>
      <trkpt lat="47.69518" lon="-2.43485">
        <ele>103</ele>
        <time>2021-08-07T09:36:29Z</time>
      </trkpt>
      <trkpt lat="47.69519" lon="-2.43487">
        <ele>103</ele>
        <time>2021-08-07T09:36:30Z</time>
      </trkpt>
      <trkpt lat="47.69523" lon="-2.43489">
        <ele>103</ele>
        <time>2021-08-07T09:36:32Z</time>
      </trkpt>
      <trkpt lat="47.69525" lon="-2.4349">
        <ele>103</ele>
        <time>2021-08-07T09:36:33Z</time>
      </trkpt>
      <trkpt lat="47.69532" lon="-2.43489">
        <ele>103</ele>
        <time>2021-08-07T09:36:35Z</time>
      </trkpt>
      <trkpt lat="47.69545" lon="-2.43488">
        <ele>103</ele>
        <time>2021-08-07T09:36:38Z</time>
      </trkpt>
      <trkpt lat="47.69559" lon="-2.43488">
        <ele>103</ele>
        <time>2021-08-07T09:36:41Z</time>
      </trkpt>
      <trkpt lat="47.69568" lon="-2.43488">
        <ele>103</ele>
        <time>2021-08-07T09:36:43Z</time>
      </trkpt>
      <trkpt lat="47.69576" lon="-2.43488">
        <ele>102.6</ele>
        <time>2021-08-07T09:36:45Z</time>
      </trkpt>
      <trkpt lat="47.69581" lon="-2.43488">
        <ele>102.4</ele>
        <time>2021-08-07T09:36:46Z</time>
      </trkpt>
      <trkpt lat="47.69585" lon="-2.43489">
        <ele>101.8</ele>
        <time>2021-08-07T09:36:47Z</time>
      </trkpt>
      <trkpt lat="47.69594" lon="-2.43489">
        <ele>101.4</ele>
        <time>2021-08-07T09:36:49Z</time>
      </trkpt>
      <trkpt lat="47.69609" lon="-2.43489">
        <ele>101.2</ele>
        <time>2021-08-07T09:36:52Z</time>
      </trkpt>
      <trkpt lat="47.69614" lon="-2.4349">
        <ele>101</ele>
        <time>2021-08-07T09:36:53Z</time>
      </trkpt>
      <trkpt lat="47.6962" lon="-2.43491">
        <ele>101</ele>
        <time>2021-08-07T09:36:54Z</time>
      </trkpt>
      <trkpt lat="47.69633" lon="-2.43492">
        <ele>100.6</ele>
        <time>2021-08-07T09:36:56Z</time>
      </trkpt>
      <trkpt lat="47.6964" lon="-2.43493">
        <ele>100.4</ele>
        <time>2021-08-07T09:36:57Z</time>
      </trkpt>
      <trkpt lat="47.69654" lon="-2.43495">
        <ele>100.2</ele>
        <time>2021-08-07T09:36:59Z</time>
      </trkpt>
      <trkpt lat="47.69661" lon="-2.43496">
        <ele>100.2</ele>
        <time>2021-08-07T09:37:00Z</time>
      </trkpt>
      <trkpt lat="47.69674" lon="-2.43499">
        <ele>99.8</ele>
        <time>2021-08-07T09:37:02Z</time>
      </trkpt>
      <trkpt lat="47.6968" lon="-2.435">
        <ele>99.6</ele>
        <time>2021-08-07T09:37:03Z</time>
      </trkpt>
      <trkpt lat="47.69693" lon="-2.43502">
        <ele>99.4</ele>
        <time>2021-08-07T09:37:05Z</time>
      </trkpt>
      <trkpt lat="47.69699" lon="-2.43503">
        <ele>99.2</ele>
        <time>2021-08-07T09:37:06Z</time>
      </trkpt>
      <trkpt lat="47.69711" lon="-2.43504">
        <ele>99</ele>
        <time>2021-08-07T09:37:08Z</time>
      </trkpt>
      <trkpt lat="47.69724" lon="-2.43507">
        <ele>98.8</ele>
        <time>2021-08-07T09:37:10Z</time>
      </trkpt>
      <trkpt lat="47.69736" lon="-2.4351">
        <ele>98.4</ele>
        <time>2021-08-07T09:37:12Z</time>
      </trkpt>
      <trkpt lat="47.69742" lon="-2.43511">
        <ele>98.2</ele>
        <time>2021-08-07T09:37:13Z</time>
      </trkpt>
      <trkpt lat="47.69759" lon="-2.43514">
        <ele>97.8</ele>
        <time>2021-08-07T09:37:16Z</time>
      </trkpt>
      <trkpt lat="47.69776" lon="-2.43517">
        <ele>97.2</ele>
        <time>2021-08-07T09:37:19Z</time>
      </trkpt>
      <trkpt lat="47.69787" lon="-2.43518">
        <ele>97.2</ele>
        <time>2021-08-07T09:37:21Z</time>
      </trkpt>
      <trkpt lat="47.69803" lon="-2.43521">
        <ele>97</ele>
        <time>2021-08-07T09:37:24Z</time>
      </trkpt>
      <trkpt lat="47.69814" lon="-2.43523">
        <ele>97</ele>
        <time>2021-08-07T09:37:26Z</time>
      </trkpt>
      <trkpt lat="47.6982" lon="-2.43524">
        <ele>97</ele>
        <time>2021-08-07T09:37:27Z</time>
      </trkpt>
      <trkpt lat="47.69837" lon="-2.43526">
        <ele>97</ele>
        <time>2021-08-07T09:37:30Z</time>
      </trkpt>
      <trkpt lat="47.69848" lon="-2.43529">
        <ele>97</ele>
        <time>2021-08-07T09:37:32Z</time>
      </trkpt>
      <trkpt lat="47.69865" lon="-2.43532">
        <ele>97</ele>
        <time>2021-08-07T09:37:35Z</time>
      </trkpt>
      <trkpt lat="47.69882" lon="-2.43535">
        <ele>97</ele>
        <time>2021-08-07T09:37:38Z</time>
      </trkpt>
      <trkpt lat="47.69888" lon="-2.43537">
        <ele>97</ele>
        <time>2021-08-07T09:37:39Z</time>
      </trkpt>
      <trkpt lat="47.69894" lon="-2.43537">
        <ele>97</ele>
        <time>2021-08-07T09:37:40Z</time>
      </trkpt>
      <trkpt lat="47.6991" lon="-2.4354">
        <ele>96.8</ele>
        <time>2021-08-07T09:37:43Z</time>
      </trkpt>
      <trkpt lat="47.69926" lon="-2.43542">
        <ele>96.6</ele>
        <time>2021-08-07T09:37:46Z</time>
      </trkpt>
      <trkpt lat="47.69931" lon="-2.43542">
        <ele>96.6</ele>
        <time>2021-08-07T09:37:47Z</time>
      </trkpt>
      <trkpt lat="47.69937" lon="-2.43542">
        <ele>96.6</ele>
        <time>2021-08-07T09:37:48Z</time>
      </trkpt>
      <trkpt lat="47.69953" lon="-2.43543">
        <ele>96.4</ele>
        <time>2021-08-07T09:37:51Z</time>
      </trkpt>
      <trkpt lat="47.69963" lon="-2.43542">
        <ele>96.2</ele>
        <time>2021-08-07T09:37:53Z</time>
      </trkpt>
      <trkpt lat="47.69969" lon="-2.43542">
        <ele>96</ele>
        <time>2021-08-07T09:37:54Z</time>
      </trkpt>
      <trkpt lat="47.69974" lon="-2.43541">
        <ele>95.8</ele>
        <time>2021-08-07T09:37:55Z</time>
      </trkpt>
      <trkpt lat="47.69985" lon="-2.4354">
        <ele>95.4</ele>
        <time>2021-08-07T09:37:57Z</time>
      </trkpt>
      <trkpt lat="47.69991" lon="-2.43539">
        <ele>95.2</ele>
        <time>2021-08-07T09:37:58Z</time>
      </trkpt>
      <trkpt lat="47.69996" lon="-2.43538">
        <ele>95</ele>
        <time>2021-08-07T09:37:59Z</time>
      </trkpt>
      <trkpt lat="47.70005" lon="-2.43536">
        <ele>94.4</ele>
        <time>2021-08-07T09:38:01Z</time>
      </trkpt>
      <trkpt lat="47.70007" lon="-2.43535">
        <ele>94.4</ele>
        <time>2021-08-07T09:38:02Z</time>
      </trkpt>
      <trkpt lat="47.70013" lon="-2.43533">
        <ele>94.2</ele>
        <time>2021-08-07T09:38:04Z</time>
      </trkpt>
      <trkpt lat="47.70018" lon="-2.43532">
        <ele>94</ele>
        <time>2021-08-07T09:38:05Z</time>
      </trkpt>
      <trkpt lat="47.70028" lon="-2.43528">
        <ele>93.8</ele>
        <time>2021-08-07T09:38:07Z</time>
      </trkpt>
      <trkpt lat="47.70035" lon="-2.43526">
        <ele>93.6</ele>
        <time>2021-08-07T09:38:08Z</time>
      </trkpt>
      <trkpt lat="47.70046" lon="-2.4352">
        <ele>93.2</ele>
        <time>2021-08-07T09:38:10Z</time>
      </trkpt>
      <trkpt lat="47.70052" lon="-2.43517">
        <ele>93</ele>
        <time>2021-08-07T09:38:11Z</time>
      </trkpt>
      <trkpt lat="47.70062" lon="-2.43511">
        <ele>92.8</ele>
        <time>2021-08-07T09:38:13Z</time>
      </trkpt>
      <trkpt lat="47.70066" lon="-2.43509">
        <ele>92.8</ele>
        <time>2021-08-07T09:38:14Z</time>
      </trkpt>
      <trkpt lat="47.70075" lon="-2.43503">
        <ele>92.6</ele>
        <time>2021-08-07T09:38:16Z</time>
      </trkpt>
      <trkpt lat="47.7008" lon="-2.435">
        <ele>92.6</ele>
        <time>2021-08-07T09:38:17Z</time>
      </trkpt>
      <trkpt lat="47.70085" lon="-2.43497">
        <ele>92.6</ele>
        <time>2021-08-07T09:38:18Z</time>
      </trkpt>
      <trkpt lat="47.70102" lon="-2.43482">
        <ele>92.2</ele>
        <time>2021-08-07T09:38:21Z</time>
      </trkpt>
      <trkpt lat="47.70107" lon="-2.43478">
        <ele>92.2</ele>
        <time>2021-08-07T09:38:22Z</time>
      </trkpt>
      <trkpt lat="47.70116" lon="-2.43468">
        <ele>92</ele>
        <time>2021-08-07T09:38:24Z</time>
      </trkpt>
      <trkpt lat="47.70121" lon="-2.43463">
        <ele>91.8</ele>
        <time>2021-08-07T09:38:25Z</time>
      </trkpt>
      <trkpt lat="47.7013" lon="-2.43453">
        <ele>91.4</ele>
        <time>2021-08-07T09:38:27Z</time>
      </trkpt>
      <trkpt lat="47.70137" lon="-2.43446">
        <ele>91.2</ele>
        <time>2021-08-07T09:38:28Z</time>
      </trkpt>
      <trkpt lat="47.70143" lon="-2.4344">
        <ele>91.2</ele>
        <time>2021-08-07T09:38:29Z</time>
      </trkpt>
      <trkpt lat="47.70163" lon="-2.4342">
        <ele>90.8</ele>
        <time>2021-08-07T09:38:32Z</time>
      </trkpt>
      <trkpt lat="47.70171" lon="-2.43413">
        <ele>90.8</ele>
        <time>2021-08-07T09:38:33Z</time>
      </trkpt>
      <trkpt lat="47.7018" lon="-2.43399">
        <ele>90.4</ele>
        <time>2021-08-07T09:38:35Z</time>
      </trkpt>
      <trkpt lat="47.70195" lon="-2.43379">
        <ele>90.4</ele>
        <time>2021-08-07T09:38:38Z</time>
      </trkpt>
      <trkpt lat="47.70203" lon="-2.43365">
        <ele>90.2</ele>
        <time>2021-08-07T09:38:40Z</time>
      </trkpt>
      <trkpt lat="47.70214" lon="-2.43345">
        <ele>90.2</ele>
        <time>2021-08-07T09:38:43Z</time>
      </trkpt>
      <trkpt lat="47.70223" lon="-2.43324">
        <ele>90.2</ele>
        <time>2021-08-07T09:38:46Z</time>
      </trkpt>
      <trkpt lat="47.70232" lon="-2.43304">
        <ele>89.8</ele>
        <time>2021-08-07T09:38:49Z</time>
      </trkpt>
      <trkpt lat="47.70235" lon="-2.4329">
        <ele>89.6</ele>
        <time>2021-08-07T09:38:51Z</time>
      </trkpt>
      <trkpt lat="47.70239" lon="-2.43276">
        <ele>89.2</ele>
        <time>2021-08-07T09:38:53Z</time>
      </trkpt>
      <trkpt lat="47.70241" lon="-2.4327">
        <ele>89.2</ele>
        <time>2021-08-07T09:38:54Z</time>
      </trkpt>
      <trkpt lat="47.70246" lon="-2.4325">
        <ele>89.2</ele>
        <time>2021-08-07T09:38:57Z</time>
      </trkpt>
      <trkpt lat="47.70249" lon="-2.43242">
        <ele>89</ele>
        <time>2021-08-07T09:38:58Z</time>
      </trkpt>
      <trkpt lat="47.70255" lon="-2.43229">
        <ele>89</ele>
        <time>2021-08-07T09:39:00Z</time>
      </trkpt>
      <trkpt lat="47.70258" lon="-2.43224">
        <ele>89</ele>
        <time>2021-08-07T09:39:01Z</time>
      </trkpt>
      <trkpt lat="47.7026" lon="-2.43219">
        <ele>89</ele>
        <time>2021-08-07T09:39:02Z</time>
      </trkpt>
      <trkpt lat="47.70261" lon="-2.43215">
        <ele>89</ele>
        <time>2021-08-07T09:39:03Z</time>
      </trkpt>
      <trkpt lat="47.70263" lon="-2.43209">
        <ele>89</ele>
        <time>2021-08-07T09:39:05Z</time>
      </trkpt>
      <trkpt lat="47.70265" lon="-2.43203">
        <ele>89</ele>
        <time>2021-08-07T09:39:08Z</time>
      </trkpt>
      <trkpt lat="47.70268" lon="-2.43195">
        <ele>89</ele>
        <time>2021-08-07T09:39:11Z</time>
      </trkpt>
      <trkpt lat="47.70273" lon="-2.43188">
        <ele>89</ele>
        <time>2021-08-07T09:39:13Z</time>
      </trkpt>
      <trkpt lat="47.70274" lon="-2.43185">
        <ele>89.2</ele>
        <time>2021-08-07T09:39:14Z</time>
      </trkpt>
      <trkpt lat="47.70274" lon="-2.43178">
        <ele>89.2</ele>
        <time>2021-08-07T09:39:16Z</time>
      </trkpt>
      <trkpt lat="47.70279" lon="-2.43166">
        <ele>89.2</ele>
        <time>2021-08-07T09:39:19Z</time>
      </trkpt>
      <trkpt lat="47.70283" lon="-2.43152">
        <ele>89</ele>
        <time>2021-08-07T09:39:22Z</time>
      </trkpt>
      <trkpt lat="47.70285" lon="-2.43141">
        <ele>89</ele>
        <time>2021-08-07T09:39:24Z</time>
      </trkpt>
      <trkpt lat="47.70286" lon="-2.43135">
        <ele>89</ele>
        <time>2021-08-07T09:39:25Z</time>
      </trkpt>
      <trkpt lat="47.70288" lon="-2.43125">
        <ele>88.8</ele>
        <time>2021-08-07T09:39:27Z</time>
      </trkpt>
      <trkpt lat="47.70292" lon="-2.43113">
        <ele>88.6</ele>
        <time>2021-08-07T09:39:29Z</time>
      </trkpt>
      <trkpt lat="47.70293" lon="-2.43107">
        <ele>88.4</ele>
        <time>2021-08-07T09:39:30Z</time>
      </trkpt>
      <trkpt lat="47.70295" lon="-2.431">
        <ele>88.2</ele>
        <time>2021-08-07T09:39:31Z</time>
      </trkpt>
      <trkpt lat="47.70297" lon="-2.43091">
        <ele>88</ele>
        <time>2021-08-07T09:39:32Z</time>
      </trkpt>
      <trkpt lat="47.703" lon="-2.43067">
        <ele>87.8</ele>
        <time>2021-08-07T09:39:35Z</time>
      </trkpt>
      <trkpt lat="47.70302" lon="-2.4305">
        <ele>87.4</ele>
        <time>2021-08-07T09:39:37Z</time>
      </trkpt>
      <trkpt lat="47.70302" lon="-2.43042">
        <ele>87.4</ele>
        <time>2021-08-07T09:39:38Z</time>
      </trkpt>
      <trkpt lat="47.70304" lon="-2.43018">
        <ele>87</ele>
        <time>2021-08-07T09:39:41Z</time>
      </trkpt>
      <trkpt lat="47.70304" lon="-2.43003">
        <ele>86.8</ele>
        <time>2021-08-07T09:39:43Z</time>
      </trkpt>
      <trkpt lat="47.70305" lon="-2.42978">
        <ele>86.6</ele>
        <time>2021-08-07T09:39:46Z</time>
      </trkpt>
      <trkpt lat="47.70305" lon="-2.4297">
        <ele>86.4</ele>
        <time>2021-08-07T09:39:47Z</time>
      </trkpt>
      <trkpt lat="47.70305" lon="-2.42953">
        <ele>86</ele>
        <time>2021-08-07T09:39:49Z</time>
      </trkpt>
      <trkpt lat="47.70305" lon="-2.42929">
        <ele>85.8</ele>
        <time>2021-08-07T09:39:52Z</time>
      </trkpt>
      <trkpt lat="47.70305" lon="-2.42921">
        <ele>85.8</ele>
        <time>2021-08-07T09:39:53Z</time>
      </trkpt>
      <trkpt lat="47.70305" lon="-2.42913">
        <ele>85.8</ele>
        <time>2021-08-07T09:39:54Z</time>
      </trkpt>
      <trkpt lat="47.70305" lon="-2.42888">
        <ele>85.6</ele>
        <time>2021-08-07T09:39:57Z</time>
      </trkpt>
      <trkpt lat="47.70304" lon="-2.42871">
        <ele>85.4</ele>
        <time>2021-08-07T09:39:59Z</time>
      </trkpt>
      <trkpt lat="47.70304" lon="-2.42862">
        <ele>85.4</ele>
        <time>2021-08-07T09:40:00Z</time>
      </trkpt>
      <trkpt lat="47.70304" lon="-2.42852">
        <ele>85.2</ele>
        <time>2021-08-07T09:40:01Z</time>
      </trkpt>
      <trkpt lat="47.70303" lon="-2.42834">
        <ele>84.8</ele>
        <time>2021-08-07T09:40:03Z</time>
      </trkpt>
      <trkpt lat="47.70302" lon="-2.42817">
        <ele>84.6</ele>
        <time>2021-08-07T09:40:05Z</time>
      </trkpt>
      <trkpt lat="47.70301" lon="-2.42792">
        <ele>84.2</ele>
        <time>2021-08-07T09:40:08Z</time>
      </trkpt>
      <trkpt lat="47.70301" lon="-2.42785">
        <ele>84</ele>
        <time>2021-08-07T09:40:09Z</time>
      </trkpt>
      <trkpt lat="47.70301" lon="-2.42777">
        <ele>83.8</ele>
        <time>2021-08-07T09:40:10Z</time>
      </trkpt>
      <trkpt lat="47.70301" lon="-2.42769">
        <ele>83.8</ele>
        <time>2021-08-07T09:40:11Z</time>
      </trkpt>
      <trkpt lat="47.70299" lon="-2.42742">
        <ele>83.4</ele>
        <time>2021-08-07T09:40:14Z</time>
      </trkpt>
      <trkpt lat="47.70297" lon="-2.42721">
        <ele>83.4</ele>
        <time>2021-08-07T09:40:16Z</time>
      </trkpt>
      <trkpt lat="47.70296" lon="-2.42702">
        <ele>83.2</ele>
        <time>2021-08-07T09:40:18Z</time>
      </trkpt>
      <trkpt lat="47.70296" lon="-2.42692">
        <ele>83.2</ele>
        <time>2021-08-07T09:40:19Z</time>
      </trkpt>
      <trkpt lat="47.70295" lon="-2.42662">
        <ele>83.2</ele>
        <time>2021-08-07T09:40:22Z</time>
      </trkpt>
      <trkpt lat="47.70297" lon="-2.42641">
        <ele>83</ele>
        <time>2021-08-07T09:40:24Z</time>
      </trkpt>
      <trkpt lat="47.70297" lon="-2.42631">
        <ele>82.8</ele>
        <time>2021-08-07T09:40:25Z</time>
      </trkpt>
      <trkpt lat="47.70297" lon="-2.42612">
        <ele>82.6</ele>
        <time>2021-08-07T09:40:27Z</time>
      </trkpt>
      <trkpt lat="47.703" lon="-2.42584">
        <ele>82.2</ele>
        <time>2021-08-07T09:40:30Z</time>
      </trkpt>
      <trkpt lat="47.703" lon="-2.42566">
        <ele>82</ele>
        <time>2021-08-07T09:40:32Z</time>
      </trkpt>
      <trkpt lat="47.703" lon="-2.42556">
        <ele>81.8</ele>
        <time>2021-08-07T09:40:33Z</time>
      </trkpt>
      <trkpt lat="47.703" lon="-2.42529">
        <ele>81.2</ele>
        <time>2021-08-07T09:40:36Z</time>
      </trkpt>
      <trkpt lat="47.703" lon="-2.42512">
        <ele>81.2</ele>
        <time>2021-08-07T09:40:38Z</time>
      </trkpt>
      <trkpt lat="47.703" lon="-2.42504">
        <ele>81</ele>
        <time>2021-08-07T09:40:39Z</time>
      </trkpt>
      <trkpt lat="47.703" lon="-2.42489">
        <ele>80.8</ele>
        <time>2021-08-07T09:40:41Z</time>
      </trkpt>
      <trkpt lat="47.70299" lon="-2.42482">
        <ele>80.8</ele>
        <time>2021-08-07T09:40:42Z</time>
      </trkpt>
      <trkpt lat="47.70299" lon="-2.42474">
        <ele>80.6</ele>
        <time>2021-08-07T09:40:43Z</time>
      </trkpt>
      <trkpt lat="47.70299" lon="-2.42468">
        <ele>80.6</ele>
        <time>2021-08-07T09:40:44Z</time>
      </trkpt>
      <trkpt lat="47.70299" lon="-2.42463">
        <ele>80.4</ele>
        <time>2021-08-07T09:40:45Z</time>
      </trkpt>
      <trkpt lat="47.70299" lon="-2.42457">
        <ele>80.4</ele>
        <time>2021-08-07T09:40:46Z</time>
      </trkpt>
      <trkpt lat="47.70298" lon="-2.42446">
        <ele>80.4</ele>
        <time>2021-08-07T09:40:49Z</time>
      </trkpt>
      <trkpt lat="47.70298" lon="-2.42439">
        <ele>80.2</ele>
        <time>2021-08-07T09:40:52Z</time>
      </trkpt>
      <trkpt lat="47.70297" lon="-2.42432">
        <ele>80.2</ele>
        <time>2021-08-07T09:40:54Z</time>
      </trkpt>
      <trkpt lat="47.70296" lon="-2.42429">
        <ele>80</ele>
        <time>2021-08-07T09:40:55Z</time>
      </trkpt>
      <trkpt lat="47.70296" lon="-2.42425">
        <ele>80</ele>
        <time>2021-08-07T09:40:56Z</time>
      </trkpt>
      <trkpt lat="47.70295" lon="-2.42421">
        <ele>80</ele>
        <time>2021-08-07T09:40:57Z</time>
      </trkpt>
      <trkpt lat="47.70297" lon="-2.42412">
        <ele>80</ele>
        <time>2021-08-07T09:41:00Z</time>
      </trkpt>
      <trkpt lat="47.70297" lon="-2.42407">
        <ele>80</ele>
        <time>2021-08-07T09:41:02Z</time>
      </trkpt>
      <trkpt lat="47.70298" lon="-2.42393">
        <ele>79.8</ele>
        <time>2021-08-07T09:41:05Z</time>
      </trkpt>
      <trkpt lat="47.70297" lon="-2.42377">
        <ele>79.8</ele>
        <time>2021-08-07T09:41:08Z</time>
      </trkpt>
      <trkpt lat="47.70297" lon="-2.42372">
        <ele>79.8</ele>
        <time>2021-08-07T09:41:09Z</time>
      </trkpt>
      <trkpt lat="47.70298" lon="-2.42366">
        <ele>79.6</ele>
        <time>2021-08-07T09:41:10Z</time>
      </trkpt>
      <trkpt lat="47.70298" lon="-2.42361">
        <ele>79.4</ele>
        <time>2021-08-07T09:41:11Z</time>
      </trkpt>
      <trkpt lat="47.70297" lon="-2.42355">
        <ele>79.2</ele>
        <time>2021-08-07T09:41:12Z</time>
      </trkpt>
      <trkpt lat="47.70298" lon="-2.4235">
        <ele>79.4</ele>
        <time>2021-08-07T09:41:13Z</time>
      </trkpt>
      <trkpt lat="47.70299" lon="-2.42343">
        <ele>79.2</ele>
        <time>2021-08-07T09:41:14Z</time>
      </trkpt>
      <trkpt lat="47.703" lon="-2.42331">
        <ele>79</ele>
        <time>2021-08-07T09:41:16Z</time>
      </trkpt>
      <trkpt lat="47.70301" lon="-2.42324">
        <ele>79</ele>
        <time>2021-08-07T09:41:17Z</time>
      </trkpt>
      <trkpt lat="47.70301" lon="-2.42313">
        <ele>78.6</ele>
        <time>2021-08-07T09:41:19Z</time>
      </trkpt>
      <trkpt lat="47.70303" lon="-2.42307">
        <ele>78.6</ele>
        <time>2021-08-07T09:41:20Z</time>
      </trkpt>
      <trkpt lat="47.70303" lon="-2.42302">
        <ele>78.4</ele>
        <time>2021-08-07T09:41:21Z</time>
      </trkpt>
      <trkpt lat="47.70303" lon="-2.42298">
        <ele>78.4</ele>
        <time>2021-08-07T09:41:22Z</time>
      </trkpt>
      <trkpt lat="47.70303" lon="-2.42294">
        <ele>78.4</ele>
        <time>2021-08-07T09:41:23Z</time>
      </trkpt>
      <trkpt lat="47.70303" lon="-2.42289">
        <ele>78.2</ele>
        <time>2021-08-07T09:41:24Z</time>
      </trkpt>
      <trkpt lat="47.70303" lon="-2.42283">
        <ele>78.2</ele>
        <time>2021-08-07T09:41:25Z</time>
      </trkpt>
      <trkpt lat="47.70303" lon="-2.42273">
        <ele>78.2</ele>
        <time>2021-08-07T09:41:27Z</time>
      </trkpt>
      <trkpt lat="47.70304" lon="-2.42263">
        <ele>78.2</ele>
        <time>2021-08-07T09:41:29Z</time>
      </trkpt>
      <trkpt lat="47.70305" lon="-2.42258">
        <ele>78.2</ele>
        <time>2021-08-07T09:41:30Z</time>
      </trkpt>
      <trkpt lat="47.70307" lon="-2.42249">
        <ele>78</ele>
        <time>2021-08-07T09:41:32Z</time>
      </trkpt>
      <trkpt lat="47.70309" lon="-2.4224">
        <ele>77.8</ele>
        <time>2021-08-07T09:41:34Z</time>
      </trkpt>
      <trkpt lat="47.7031" lon="-2.42235">
        <ele>77.8</ele>
        <time>2021-08-07T09:41:35Z</time>
      </trkpt>
      <trkpt lat="47.70314" lon="-2.42218">
        <ele>77.4</ele>
        <time>2021-08-07T09:41:38Z</time>
      </trkpt>
      <trkpt lat="47.70314" lon="-2.42212">
        <ele>77.6</ele>
        <time>2021-08-07T09:41:39Z</time>
      </trkpt>
      <trkpt lat="47.70315" lon="-2.42207">
        <ele>77.4</ele>
        <time>2021-08-07T09:41:40Z</time>
      </trkpt>
      <trkpt lat="47.70316" lon="-2.42202">
        <ele>77.2</ele>
        <time>2021-08-07T09:41:41Z</time>
      </trkpt>
      <trkpt lat="47.70318" lon="-2.42192">
        <ele>77.2</ele>
        <time>2021-08-07T09:41:43Z</time>
      </trkpt>
      <trkpt lat="47.70319" lon="-2.42187">
        <ele>77.2</ele>
        <time>2021-08-07T09:41:44Z</time>
      </trkpt>
      <trkpt lat="47.70322" lon="-2.42177">
        <ele>77</ele>
        <time>2021-08-07T09:41:46Z</time>
      </trkpt>
      <trkpt lat="47.70324" lon="-2.42169">
        <ele>76.8</ele>
        <time>2021-08-07T09:41:48Z</time>
      </trkpt>
      <trkpt lat="47.70325" lon="-2.42165">
        <ele>76.8</ele>
        <time>2021-08-07T09:41:49Z</time>
      </trkpt>
      <trkpt lat="47.70328" lon="-2.42156">
        <ele>76.6</ele>
        <time>2021-08-07T09:41:51Z</time>
      </trkpt>
      <trkpt lat="47.70333" lon="-2.42146">
        <ele>76.4</ele>
        <time>2021-08-07T09:41:53Z</time>
      </trkpt>
      <trkpt lat="47.70335" lon="-2.42141">
        <ele>76.4</ele>
        <time>2021-08-07T09:41:54Z</time>
      </trkpt>
      <trkpt lat="47.70346" lon="-2.42124">
        <ele>76.2</ele>
        <time>2021-08-07T09:41:57Z</time>
      </trkpt>
      <trkpt lat="47.70349" lon="-2.42119">
        <ele>76.2</ele>
        <time>2021-08-07T09:41:58Z</time>
      </trkpt>
      <trkpt lat="47.70354" lon="-2.42113">
        <ele>76.2</ele>
        <time>2021-08-07T09:41:59Z</time>
      </trkpt>
      <trkpt lat="47.70363" lon="-2.42105">
        <ele>76.2</ele>
        <time>2021-08-07T09:42:00Z</time>
      </trkpt>
      <trkpt lat="47.70374" lon="-2.42094">
        <ele>76</ele>
        <time>2021-08-07T09:42:02Z</time>
      </trkpt>
      <trkpt lat="47.70381" lon="-2.42084">
        <ele>76</ele>
        <time>2021-08-07T09:42:04Z</time>
      </trkpt>
      <trkpt lat="47.70385" lon="-2.42079">
        <ele>75.6</ele>
        <time>2021-08-07T09:42:05Z</time>
      </trkpt>
      <trkpt lat="47.70394" lon="-2.42068">
        <ele>75.4</ele>
        <time>2021-08-07T09:42:08Z</time>
      </trkpt>
      <trkpt lat="47.70398" lon="-2.42064">
        <ele>75.4</ele>
        <time>2021-08-07T09:42:09Z</time>
      </trkpt>
      <trkpt lat="47.70402" lon="-2.4206">
        <ele>75.2</ele>
        <time>2021-08-07T09:42:10Z</time>
      </trkpt>
      <trkpt lat="47.70407" lon="-2.42056">
        <ele>75</ele>
        <time>2021-08-07T09:42:11Z</time>
      </trkpt>
      <trkpt lat="47.70411" lon="-2.42052">
        <ele>75</ele>
        <time>2021-08-07T09:42:12Z</time>
      </trkpt>
      <trkpt lat="47.70416" lon="-2.42048">
        <ele>74.6</ele>
        <time>2021-08-07T09:42:13Z</time>
      </trkpt>
      <trkpt lat="47.70425" lon="-2.42041">
        <ele>74.4</ele>
        <time>2021-08-07T09:42:14Z</time>
      </trkpt>
      <trkpt lat="47.70434" lon="-2.42035">
        <ele>74.4</ele>
        <time>2021-08-07T09:42:16Z</time>
      </trkpt>
      <trkpt lat="47.70443" lon="-2.42029">
        <ele>74.2</ele>
        <time>2021-08-07T09:42:18Z</time>
      </trkpt>
      <trkpt lat="47.70448" lon="-2.42025">
        <ele>74.2</ele>
        <time>2021-08-07T09:42:19Z</time>
      </trkpt>
      <trkpt lat="47.70453" lon="-2.42022">
        <ele>74.2</ele>
        <time>2021-08-07T09:42:20Z</time>
      </trkpt>
      <trkpt lat="47.70458" lon="-2.42019">
        <ele>74.2</ele>
        <time>2021-08-07T09:42:21Z</time>
      </trkpt>
      <trkpt lat="47.70466" lon="-2.42014">
        <ele>74.2</ele>
        <time>2021-08-07T09:42:22Z</time>
      </trkpt>
      <trkpt lat="47.70472" lon="-2.42011">
        <ele>74.2</ele>
        <time>2021-08-07T09:42:23Z</time>
      </trkpt>
      <trkpt lat="47.70482" lon="-2.42007">
        <ele>74</ele>
        <time>2021-08-07T09:42:24Z</time>
      </trkpt>
      <trkpt lat="47.70499" lon="-2.42">
        <ele>73.8</ele>
        <time>2021-08-07T09:42:27Z</time>
      </trkpt>
      <trkpt lat="47.70512" lon="-2.41993">
        <ele>73.4</ele>
        <time>2021-08-07T09:42:30Z</time>
      </trkpt>
      <trkpt lat="47.70515" lon="-2.41991">
        <ele>73.2</ele>
        <time>2021-08-07T09:42:31Z</time>
      </trkpt>
      <trkpt lat="47.70518" lon="-2.41989">
        <ele>73</ele>
        <time>2021-08-07T09:42:32Z</time>
      </trkpt>
      <trkpt lat="47.70521" lon="-2.41988">
        <ele>73</ele>
        <time>2021-08-07T09:42:33Z</time>
      </trkpt>
      <trkpt lat="47.70523" lon="-2.41987">
        <ele>72.8</ele>
        <time>2021-08-07T09:42:34Z</time>
      </trkpt>
      <trkpt lat="47.70526" lon="-2.41985">
        <ele>72.6</ele>
        <time>2021-08-07T09:42:35Z</time>
      </trkpt>
      <trkpt lat="47.70532" lon="-2.41983">
        <ele>72.4</ele>
        <time>2021-08-07T09:42:37Z</time>
      </trkpt>
      <trkpt lat="47.70535" lon="-2.41981">
        <ele>72.4</ele>
        <time>2021-08-07T09:42:38Z</time>
      </trkpt>
      <trkpt lat="47.70555" lon="-2.41972">
        <ele>72.2</ele>
        <time>2021-08-07T09:42:41Z</time>
      </trkpt>
      <trkpt lat="47.70558" lon="-2.41972">
        <ele>72.2</ele>
        <time>2021-08-07T09:42:42Z</time>
      </trkpt>
      <trkpt lat="47.70561" lon="-2.41971">
        <ele>72.2</ele>
        <time>2021-08-07T09:42:43Z</time>
      </trkpt>
      <trkpt lat="47.70575" lon="-2.41969">
        <ele>72.2</ele>
        <time>2021-08-07T09:42:46Z</time>
      </trkpt>
      <trkpt lat="47.7058" lon="-2.4197">
        <ele>72.2</ele>
        <time>2021-08-07T09:42:47Z</time>
      </trkpt>
      <trkpt lat="47.70584" lon="-2.41971">
        <ele>72</ele>
        <time>2021-08-07T09:42:48Z</time>
      </trkpt>
      <trkpt lat="47.70589" lon="-2.41972">
        <ele>72</ele>
        <time>2021-08-07T09:42:49Z</time>
      </trkpt>
      <trkpt lat="47.70608" lon="-2.4197">
        <ele>71.6</ele>
        <time>2021-08-07T09:42:52Z</time>
      </trkpt>
      <trkpt lat="47.70631" lon="-2.41962">
        <ele>71.4</ele>
        <time>2021-08-07T09:42:54Z</time>
      </trkpt>
      <trkpt lat="47.7065" lon="-2.41957">
        <ele>71.2</ele>
        <time>2021-08-07T09:42:56Z</time>
      </trkpt>
      <trkpt lat="47.7066" lon="-2.41955">
        <ele>70.8</ele>
        <time>2021-08-07T09:42:57Z</time>
      </trkpt>
      <trkpt lat="47.70677" lon="-2.41952">
        <ele>70.6</ele>
        <time>2021-08-07T09:42:59Z</time>
      </trkpt>
      <trkpt lat="47.70684" lon="-2.41952">
        <ele>70.4</ele>
        <time>2021-08-07T09:43:00Z</time>
      </trkpt>
      <trkpt lat="47.70691" lon="-2.41953">
        <ele>70.2</ele>
        <time>2021-08-07T09:43:01Z</time>
      </trkpt>
      <trkpt lat="47.70699" lon="-2.41952">
        <ele>70</ele>
        <time>2021-08-07T09:43:02Z</time>
      </trkpt>
      <trkpt lat="47.70712" lon="-2.41955">
        <ele>69.6</ele>
        <time>2021-08-07T09:43:04Z</time>
      </trkpt>
      <trkpt lat="47.7072" lon="-2.41956">
        <ele>69.6</ele>
        <time>2021-08-07T09:43:05Z</time>
      </trkpt>
      <trkpt lat="47.70733" lon="-2.41959">
        <ele>69.6</ele>
        <time>2021-08-07T09:43:07Z</time>
      </trkpt>
      <trkpt lat="47.70739" lon="-2.41961">
        <ele>69.6</ele>
        <time>2021-08-07T09:43:08Z</time>
      </trkpt>
      <trkpt lat="47.70745" lon="-2.41962">
        <ele>69.4</ele>
        <time>2021-08-07T09:43:09Z</time>
      </trkpt>
      <trkpt lat="47.70754" lon="-2.41964">
        <ele>69.4</ele>
        <time>2021-08-07T09:43:11Z</time>
      </trkpt>
      <trkpt lat="47.70763" lon="-2.41967">
        <ele>69.2</ele>
        <time>2021-08-07T09:43:13Z</time>
      </trkpt>
      <trkpt lat="47.70778" lon="-2.41972">
        <ele>69</ele>
        <time>2021-08-07T09:43:16Z</time>
      </trkpt>
      <trkpt lat="47.70797" lon="-2.41983">
        <ele>69</ele>
        <time>2021-08-07T09:43:19Z</time>
      </trkpt>
      <trkpt lat="47.70803" lon="-2.41985">
        <ele>69</ele>
        <time>2021-08-07T09:43:20Z</time>
      </trkpt>
      <trkpt lat="47.70809" lon="-2.41988">
        <ele>68.8</ele>
        <time>2021-08-07T09:43:21Z</time>
      </trkpt>
      <trkpt lat="47.70829" lon="-2.41997">
        <ele>68.2</ele>
        <time>2021-08-07T09:43:24Z</time>
      </trkpt>
      <trkpt lat="47.70843" lon="-2.42002">
        <ele>68</ele>
        <time>2021-08-07T09:43:26Z</time>
      </trkpt>
      <trkpt lat="47.7085" lon="-2.42005">
        <ele>67.8</ele>
        <time>2021-08-07T09:43:27Z</time>
      </trkpt>
      <trkpt lat="47.70861" lon="-2.42013">
        <ele>67.4</ele>
        <time>2021-08-07T09:43:29Z</time>
      </trkpt>
      <trkpt lat="47.70877" lon="-2.42022">
        <ele>67</ele>
        <time>2021-08-07T09:43:32Z</time>
      </trkpt>
      <trkpt lat="47.70882" lon="-2.42024">
        <ele>67</ele>
        <time>2021-08-07T09:43:33Z</time>
      </trkpt>
      <trkpt lat="47.70894" lon="-2.42031">
        <ele>66.8</ele>
        <time>2021-08-07T09:43:35Z</time>
      </trkpt>
      <trkpt lat="47.70907" lon="-2.42038">
        <ele>66.8</ele>
        <time>2021-08-07T09:43:37Z</time>
      </trkpt>
      <trkpt lat="47.70913" lon="-2.42041">
        <ele>66.6</ele>
        <time>2021-08-07T09:43:38Z</time>
      </trkpt>
      <trkpt lat="47.70918" lon="-2.42044">
        <ele>66.6</ele>
        <time>2021-08-07T09:43:39Z</time>
      </trkpt>
      <trkpt lat="47.70924" lon="-2.42047">
        <ele>66.4</ele>
        <time>2021-08-07T09:43:40Z</time>
      </trkpt>
      <trkpt lat="47.70931" lon="-2.42051">
        <ele>66.2</ele>
        <time>2021-08-07T09:43:41Z</time>
      </trkpt>
      <trkpt lat="47.70946" lon="-2.4206">
        <ele>65.8</ele>
        <time>2021-08-07T09:43:43Z</time>
      </trkpt>
      <trkpt lat="47.70968" lon="-2.42073">
        <ele>65.6</ele>
        <time>2021-08-07T09:43:46Z</time>
      </trkpt>
      <trkpt lat="47.70975" lon="-2.42076">
        <ele>65.4</ele>
        <time>2021-08-07T09:43:47Z</time>
      </trkpt>
      <trkpt lat="47.70987" lon="-2.42084">
        <ele>65.4</ele>
        <time>2021-08-07T09:43:49Z</time>
      </trkpt>
      <trkpt lat="47.71" lon="-2.4209">
        <ele>64.8</ele>
        <time>2021-08-07T09:43:51Z</time>
      </trkpt>
      <trkpt lat="47.71006" lon="-2.42094">
        <ele>64.6</ele>
        <time>2021-08-07T09:43:52Z</time>
      </trkpt>
      <trkpt lat="47.71011" lon="-2.42097">
        <ele>64.6</ele>
        <time>2021-08-07T09:43:53Z</time>
      </trkpt>
      <trkpt lat="47.71016" lon="-2.42101">
        <ele>64.4</ele>
        <time>2021-08-07T09:43:54Z</time>
      </trkpt>
      <trkpt lat="47.7103" lon="-2.4211">
        <ele>64.4</ele>
        <time>2021-08-07T09:43:57Z</time>
      </trkpt>
      <trkpt lat="47.71039" lon="-2.42116">
        <ele>64.2</ele>
        <time>2021-08-07T09:43:59Z</time>
      </trkpt>
      <trkpt lat="47.71052" lon="-2.42124">
        <ele>64</ele>
        <time>2021-08-07T09:44:02Z</time>
      </trkpt>
      <trkpt lat="47.7106" lon="-2.42129">
        <ele>63.8</ele>
        <time>2021-08-07T09:44:04Z</time>
      </trkpt>
      <trkpt lat="47.71063" lon="-2.42131">
        <ele>63.8</ele>
        <time>2021-08-07T09:44:05Z</time>
      </trkpt>
      <trkpt lat="47.71072" lon="-2.42135">
        <ele>63.8</ele>
        <time>2021-08-07T09:44:08Z</time>
      </trkpt>
      <trkpt lat="47.71074" lon="-2.42135">
        <ele>63.8</ele>
        <time>2021-08-07T09:44:09Z</time>
      </trkpt>
      <trkpt lat="47.71077" lon="-2.42135">
        <ele>63.8</ele>
        <time>2021-08-07T09:44:10Z</time>
      </trkpt>
      <trkpt lat="47.71086" lon="-2.42139">
        <ele>63.8</ele>
        <time>2021-08-07T09:44:13Z</time>
      </trkpt>
      <trkpt lat="47.71089" lon="-2.4214">
        <ele>63.8</ele>
        <time>2021-08-07T09:44:14Z</time>
      </trkpt>
      <trkpt lat="47.71094" lon="-2.42142">
        <ele>63.8</ele>
        <time>2021-08-07T09:44:16Z</time>
      </trkpt>
      <trkpt lat="47.71096" lon="-2.42145">
        <ele>64</ele>
        <time>2021-08-07T09:44:17Z</time>
      </trkpt>
      <trkpt lat="47.71098" lon="-2.42148">
        <ele>64</ele>
        <time>2021-08-07T09:44:18Z</time>
      </trkpt>
      <trkpt lat="47.71101" lon="-2.42149">
        <ele>64</ele>
        <time>2021-08-07T09:44:19Z</time>
      </trkpt>
      <trkpt lat="47.71108" lon="-2.42153">
        <ele>64</ele>
        <time>2021-08-07T09:44:21Z</time>
      </trkpt>
      <trkpt lat="47.71119" lon="-2.42159">
        <ele>64</ele>
        <time>2021-08-07T09:44:24Z</time>
      </trkpt>
      <trkpt lat="47.71131" lon="-2.42166">
        <ele>64</ele>
        <time>2021-08-07T09:44:27Z</time>
      </trkpt>
      <trkpt lat="47.71139" lon="-2.42169">
        <ele>63.8</ele>
        <time>2021-08-07T09:44:29Z</time>
      </trkpt>
      <trkpt lat="47.71144" lon="-2.4217">
        <ele>63.8</ele>
        <time>2021-08-07T09:44:30Z</time>
      </trkpt>
      <trkpt lat="47.71148" lon="-2.42171">
        <ele>63.6</ele>
        <time>2021-08-07T09:44:31Z</time>
      </trkpt>
      <trkpt lat="47.71152" lon="-2.42173">
        <ele>63.4</ele>
        <time>2021-08-07T09:44:32Z</time>
      </trkpt>
      <trkpt lat="47.71163" lon="-2.42177">
        <ele>62.6</ele>
        <time>2021-08-07T09:44:35Z</time>
      </trkpt>
      <trkpt lat="47.71167" lon="-2.42178">
        <ele>62.4</ele>
        <time>2021-08-07T09:44:36Z</time>
      </trkpt>
      <trkpt lat="47.71172" lon="-2.4218">
        <ele>62.2</ele>
        <time>2021-08-07T09:44:37Z</time>
      </trkpt>
      <trkpt lat="47.71184" lon="-2.42185">
        <ele>61.8</ele>
        <time>2021-08-07T09:44:40Z</time>
      </trkpt>
      <trkpt lat="47.71195" lon="-2.42189">
        <ele>61.6</ele>
        <time>2021-08-07T09:44:43Z</time>
      </trkpt>
      <trkpt lat="47.71199" lon="-2.4219">
        <ele>61.2</ele>
        <time>2021-08-07T09:44:44Z</time>
      </trkpt>
      <trkpt lat="47.71206" lon="-2.42194">
        <ele>60.6</ele>
        <time>2021-08-07T09:44:46Z</time>
      </trkpt>
      <trkpt lat="47.71215" lon="-2.42197">
        <ele>60.4</ele>
        <time>2021-08-07T09:44:48Z</time>
      </trkpt>
      <trkpt lat="47.71228" lon="-2.42203">
        <ele>60.4</ele>
        <time>2021-08-07T09:44:51Z</time>
      </trkpt>
      <trkpt lat="47.71233" lon="-2.42205">
        <ele>60.4</ele>
        <time>2021-08-07T09:44:52Z</time>
      </trkpt>
      <trkpt lat="47.71243" lon="-2.4221">
        <ele>60.4</ele>
        <time>2021-08-07T09:44:54Z</time>
      </trkpt>
      <trkpt lat="47.71254" lon="-2.42215">
        <ele>60.4</ele>
        <time>2021-08-07T09:44:56Z</time>
      </trkpt>
      <trkpt lat="47.71264" lon="-2.42217">
        <ele>60.2</ele>
        <time>2021-08-07T09:44:58Z</time>
      </trkpt>
      <trkpt lat="47.7127" lon="-2.42219">
        <ele>60.2</ele>
        <time>2021-08-07T09:44:59Z</time>
      </trkpt>
      <trkpt lat="47.71275" lon="-2.4222">
        <ele>60.2</ele>
        <time>2021-08-07T09:45:00Z</time>
      </trkpt>
      <trkpt lat="47.71285" lon="-2.42222">
        <ele>59.2</ele>
        <time>2021-08-07T09:45:02Z</time>
      </trkpt>
      <trkpt lat="47.71291" lon="-2.42223">
        <ele>59</ele>
        <time>2021-08-07T09:45:03Z</time>
      </trkpt>
      <trkpt lat="47.71303" lon="-2.42227">
        <ele>58.4</ele>
        <time>2021-08-07T09:45:05Z</time>
      </trkpt>
      <trkpt lat="47.71315" lon="-2.42231">
        <ele>58</ele>
        <time>2021-08-07T09:45:07Z</time>
      </trkpt>
      <trkpt lat="47.71321" lon="-2.42233">
        <ele>57.8</ele>
        <time>2021-08-07T09:45:08Z</time>
      </trkpt>
      <trkpt lat="47.71327" lon="-2.42235">
        <ele>57.6</ele>
        <time>2021-08-07T09:45:09Z</time>
      </trkpt>
      <trkpt lat="47.71333" lon="-2.42238">
        <ele>57.6</ele>
        <time>2021-08-07T09:45:10Z</time>
      </trkpt>
      <trkpt lat="47.7134" lon="-2.4224">
        <ele>57.6</ele>
        <time>2021-08-07T09:45:11Z</time>
      </trkpt>
      <trkpt lat="47.71352" lon="-2.42243">
        <ele>57.4</ele>
        <time>2021-08-07T09:45:13Z</time>
      </trkpt>
      <trkpt lat="47.71358" lon="-2.42244">
        <ele>57.2</ele>
        <time>2021-08-07T09:45:14Z</time>
      </trkpt>
      <trkpt lat="47.71365" lon="-2.42246">
        <ele>57</ele>
        <time>2021-08-07T09:45:15Z</time>
      </trkpt>
      <trkpt lat="47.71384" lon="-2.42248">
        <ele>56.8</ele>
        <time>2021-08-07T09:45:18Z</time>
      </trkpt>
      <trkpt lat="47.71389" lon="-2.42248">
        <ele>56.8</ele>
        <time>2021-08-07T09:45:19Z</time>
      </trkpt>
      <trkpt lat="47.71395" lon="-2.42249">
        <ele>56.6</ele>
        <time>2021-08-07T09:45:20Z</time>
      </trkpt>
      <trkpt lat="47.71401" lon="-2.4225">
        <ele>56.4</ele>
        <time>2021-08-07T09:45:21Z</time>
      </trkpt>
      <trkpt lat="47.71416" lon="-2.42251">
        <ele>56.2</ele>
        <time>2021-08-07T09:45:24Z</time>
      </trkpt>
      <trkpt lat="47.71421" lon="-2.42252">
        <ele>56.2</ele>
        <time>2021-08-07T09:45:25Z</time>
      </trkpt>
      <trkpt lat="47.71427" lon="-2.42253">
        <ele>56.2</ele>
        <time>2021-08-07T09:45:26Z</time>
      </trkpt>
      <trkpt lat="47.71444" lon="-2.42256">
        <ele>55.8</ele>
        <time>2021-08-07T09:45:29Z</time>
      </trkpt>
      <trkpt lat="47.71451" lon="-2.42258">
        <ele>55.6</ele>
        <time>2021-08-07T09:45:30Z</time>
      </trkpt>
      <trkpt lat="47.71458" lon="-2.42259">
        <ele>55.4</ele>
        <time>2021-08-07T09:45:31Z</time>
      </trkpt>
      <trkpt lat="47.71466" lon="-2.42261">
        <ele>55.4</ele>
        <time>2021-08-07T09:45:32Z</time>
      </trkpt>
      <trkpt lat="47.71481" lon="-2.42262">
        <ele>54.8</ele>
        <time>2021-08-07T09:45:34Z</time>
      </trkpt>
      <trkpt lat="47.71495" lon="-2.42264">
        <ele>54.8</ele>
        <time>2021-08-07T09:45:36Z</time>
      </trkpt>
      <trkpt lat="47.71501" lon="-2.42265">
        <ele>54.6</ele>
        <time>2021-08-07T09:45:37Z</time>
      </trkpt>
      <trkpt lat="47.71521" lon="-2.42267">
        <ele>54.4</ele>
        <time>2021-08-07T09:45:40Z</time>
      </trkpt>
      <trkpt lat="47.71527" lon="-2.42268">
        <ele>54.4</ele>
        <time>2021-08-07T09:45:41Z</time>
      </trkpt>
      <trkpt lat="47.71534" lon="-2.42268">
        <ele>54.4</ele>
        <time>2021-08-07T09:45:42Z</time>
      </trkpt>
      <trkpt lat="47.71539" lon="-2.42267">
        <ele>54.4</ele>
        <time>2021-08-07T09:45:43Z</time>
      </trkpt>
      <trkpt lat="47.71551" lon="-2.42267">
        <ele>54.4</ele>
        <time>2021-08-07T09:45:45Z</time>
      </trkpt>
      <trkpt lat="47.71568" lon="-2.42269">
        <ele>54.4</ele>
        <time>2021-08-07T09:45:48Z</time>
      </trkpt>
      <trkpt lat="47.71573" lon="-2.42269">
        <ele>54.4</ele>
        <time>2021-08-07T09:45:49Z</time>
      </trkpt>
      <trkpt lat="47.71585" lon="-2.4227">
        <ele>54.4</ele>
        <time>2021-08-07T09:45:51Z</time>
      </trkpt>
      <trkpt lat="47.71602" lon="-2.4227">
        <ele>54.4</ele>
        <time>2021-08-07T09:45:54Z</time>
      </trkpt>
      <trkpt lat="47.71611" lon="-2.42269">
        <ele>54.6</ele>
        <time>2021-08-07T09:45:56Z</time>
      </trkpt>
      <trkpt lat="47.71624" lon="-2.4227">
        <ele>55</ele>
        <time>2021-08-07T09:45:59Z</time>
      </trkpt>
      <trkpt lat="47.71632" lon="-2.4227">
        <ele>55.2</ele>
        <time>2021-08-07T09:46:01Z</time>
      </trkpt>
      <trkpt lat="47.71637" lon="-2.4227">
        <ele>55.2</ele>
        <time>2021-08-07T09:46:02Z</time>
      </trkpt>
      <trkpt lat="47.71647" lon="-2.42269">
        <ele>55.6</ele>
        <time>2021-08-07T09:46:04Z</time>
      </trkpt>
      <trkpt lat="47.71656" lon="-2.42268">
        <ele>55.8</ele>
        <time>2021-08-07T09:46:06Z</time>
      </trkpt>
      <trkpt lat="47.71661" lon="-2.42268">
        <ele>56</ele>
        <time>2021-08-07T09:46:07Z</time>
      </trkpt>
      <trkpt lat="47.71674" lon="-2.42268">
        <ele>56.4</ele>
        <time>2021-08-07T09:46:10Z</time>
      </trkpt>
      <trkpt lat="47.71678" lon="-2.42268">
        <ele>56.6</ele>
        <time>2021-08-07T09:46:11Z</time>
      </trkpt>
      <trkpt lat="47.71682" lon="-2.42268">
        <ele>56.6</ele>
        <time>2021-08-07T09:46:12Z</time>
      </trkpt>
      <trkpt lat="47.71687" lon="-2.42267">
        <ele>57</ele>
        <time>2021-08-07T09:46:13Z</time>
      </trkpt>
      <trkpt lat="47.71691" lon="-2.42267">
        <ele>57.2</ele>
        <time>2021-08-07T09:46:14Z</time>
      </trkpt>
      <trkpt lat="47.71695" lon="-2.42267">
        <ele>57.4</ele>
        <time>2021-08-07T09:46:15Z</time>
      </trkpt>
      <trkpt lat="47.717" lon="-2.42267">
        <ele>57.6</ele>
        <time>2021-08-07T09:46:16Z</time>
      </trkpt>
      <trkpt lat="47.71708" lon="-2.42266">
        <ele>57.6</ele>
        <time>2021-08-07T09:46:18Z</time>
      </trkpt>
      <trkpt lat="47.71721" lon="-2.42266">
        <ele>57.8</ele>
        <time>2021-08-07T09:46:21Z</time>
      </trkpt>
      <trkpt lat="47.71725" lon="-2.42266">
        <ele>58</ele>
        <time>2021-08-07T09:46:22Z</time>
      </trkpt>
      <trkpt lat="47.71733" lon="-2.42265">
        <ele>58.2</ele>
        <time>2021-08-07T09:46:24Z</time>
      </trkpt>
      <trkpt lat="47.71741" lon="-2.42265">
        <ele>58.4</ele>
        <time>2021-08-07T09:46:26Z</time>
      </trkpt>
      <trkpt lat="47.71749" lon="-2.42265">
        <ele>58.6</ele>
        <time>2021-08-07T09:46:28Z</time>
      </trkpt>
      <trkpt lat="47.71753" lon="-2.42265">
        <ele>58.6</ele>
        <time>2021-08-07T09:46:29Z</time>
      </trkpt>
      <trkpt lat="47.71761" lon="-2.42265">
        <ele>58.8</ele>
        <time>2021-08-07T09:46:31Z</time>
      </trkpt>
      <trkpt lat="47.71766" lon="-2.42264">
        <ele>58.8</ele>
        <time>2021-08-07T09:46:32Z</time>
      </trkpt>
      <trkpt lat="47.7177" lon="-2.42264">
        <ele>59</ele>
        <time>2021-08-07T09:46:33Z</time>
      </trkpt>
      <trkpt lat="47.71774" lon="-2.42263">
        <ele>59</ele>
        <time>2021-08-07T09:46:34Z</time>
      </trkpt>
      <trkpt lat="47.71779" lon="-2.42263">
        <ele>59</ele>
        <time>2021-08-07T09:46:35Z</time>
      </trkpt>
      <trkpt lat="47.71789" lon="-2.42263">
        <ele>59.2</ele>
        <time>2021-08-07T09:46:37Z</time>
      </trkpt>
      <trkpt lat="47.71793" lon="-2.42262">
        <ele>59.4</ele>
        <time>2021-08-07T09:46:38Z</time>
      </trkpt>
      <trkpt lat="47.71799" lon="-2.42261">
        <ele>59.4</ele>
        <time>2021-08-07T09:46:40Z</time>
      </trkpt>
      <trkpt lat="47.71807" lon="-2.42261">
        <ele>59.6</ele>
        <time>2021-08-07T09:46:42Z</time>
      </trkpt>
      <trkpt lat="47.71814" lon="-2.42259">
        <ele>59.8</ele>
        <time>2021-08-07T09:46:44Z</time>
      </trkpt>
      <trkpt lat="47.71817" lon="-2.42259">
        <ele>60</ele>
        <time>2021-08-07T09:46:45Z</time>
      </trkpt>
      <trkpt lat="47.71824" lon="-2.42258">
        <ele>60.4</ele>
        <time>2021-08-07T09:46:47Z</time>
      </trkpt>
      <trkpt lat="47.71828" lon="-2.42257">
        <ele>60.4</ele>
        <time>2021-08-07T09:46:48Z</time>
      </trkpt>
      <trkpt lat="47.71838" lon="-2.42255">
        <ele>60.6</ele>
        <time>2021-08-07T09:46:51Z</time>
      </trkpt>
      <trkpt lat="47.71845" lon="-2.42254">
        <ele>60.6</ele>
        <time>2021-08-07T09:46:53Z</time>
      </trkpt>
      <trkpt lat="47.71854" lon="-2.42253">
        <ele>60.6</ele>
        <time>2021-08-07T09:46:56Z</time>
      </trkpt>
      <trkpt lat="47.71859" lon="-2.42254">
        <ele>60.8</ele>
        <time>2021-08-07T09:46:57Z</time>
      </trkpt>
      <trkpt lat="47.71868" lon="-2.42254">
        <ele>61</ele>
        <time>2021-08-07T09:46:59Z</time>
      </trkpt>
      <trkpt lat="47.71876" lon="-2.42254">
        <ele>61.2</ele>
        <time>2021-08-07T09:47:01Z</time>
      </trkpt>
      <trkpt lat="47.7188" lon="-2.42254">
        <ele>61.2</ele>
        <time>2021-08-07T09:47:02Z</time>
      </trkpt>
      <trkpt lat="47.71887" lon="-2.42254">
        <ele>61.4</ele>
        <time>2021-08-07T09:47:04Z</time>
      </trkpt>
      <trkpt lat="47.7189" lon="-2.42254">
        <ele>61.4</ele>
        <time>2021-08-07T09:47:05Z</time>
      </trkpt>
      <trkpt lat="47.71897" lon="-2.42253">
        <ele>61.8</ele>
        <time>2021-08-07T09:47:07Z</time>
      </trkpt>
      <trkpt lat="47.71909" lon="-2.42252">
        <ele>62.4</ele>
        <time>2021-08-07T09:47:10Z</time>
      </trkpt>
      <trkpt lat="47.71921" lon="-2.4225">
        <ele>62.6</ele>
        <time>2021-08-07T09:47:13Z</time>
      </trkpt>
      <trkpt lat="47.71929" lon="-2.4225">
        <ele>63</ele>
        <time>2021-08-07T09:47:15Z</time>
      </trkpt>
      <trkpt lat="47.71941" lon="-2.42248">
        <ele>63.2</ele>
        <time>2021-08-07T09:47:18Z</time>
      </trkpt>
      <trkpt lat="47.71952" lon="-2.42248">
        <ele>63.4</ele>
        <time>2021-08-07T09:47:21Z</time>
      </trkpt>
      <trkpt lat="47.71966" lon="-2.42248">
        <ele>63.4</ele>
        <time>2021-08-07T09:47:24Z</time>
      </trkpt>
      <trkpt lat="47.71973" lon="-2.42248">
        <ele>63.6</ele>
        <time>2021-08-07T09:47:26Z</time>
      </trkpt>
      <trkpt lat="47.71982" lon="-2.42248">
        <ele>63.6</ele>
        <time>2021-08-07T09:47:29Z</time>
      </trkpt>
      <trkpt lat="47.71988" lon="-2.42248">
        <ele>63.8</ele>
        <time>2021-08-07T09:47:31Z</time>
      </trkpt>
      <trkpt lat="47.71991" lon="-2.42247">
        <ele>63.8</ele>
        <time>2021-08-07T09:47:32Z</time>
      </trkpt>
      <trkpt lat="47.71996" lon="-2.42247">
        <ele>63.8</ele>
        <time>2021-08-07T09:47:34Z</time>
      </trkpt>
      <trkpt lat="47.72002" lon="-2.42247">
        <ele>64</ele>
        <time>2021-08-07T09:47:36Z</time>
      </trkpt>
      <trkpt lat="47.72006" lon="-2.42246">
        <ele>64</ele>
        <time>2021-08-07T09:47:37Z</time>
      </trkpt>
      <trkpt lat="47.72018" lon="-2.42244">
        <ele>64.4</ele>
        <time>2021-08-07T09:47:40Z</time>
      </trkpt>
      <trkpt lat="47.72021" lon="-2.42243">
        <ele>64.4</ele>
        <time>2021-08-07T09:47:41Z</time>
      </trkpt>
      <trkpt lat="47.72028" lon="-2.42242">
        <ele>64.4</ele>
        <time>2021-08-07T09:47:43Z</time>
      </trkpt>
      <trkpt lat="47.72033" lon="-2.42242">
        <ele>64.4</ele>
        <time>2021-08-07T09:47:45Z</time>
      </trkpt>
      <trkpt lat="47.72036" lon="-2.42241">
        <ele>64.6</ele>
        <time>2021-08-07T09:47:46Z</time>
      </trkpt>
      <trkpt lat="47.72042" lon="-2.42241">
        <ele>64.8</ele>
        <time>2021-08-07T09:47:48Z</time>
      </trkpt>
      <trkpt lat="47.72051" lon="-2.42241">
        <ele>65.2</ele>
        <time>2021-08-07T09:47:51Z</time>
      </trkpt>
      <trkpt lat="47.72054" lon="-2.42241">
        <ele>65.2</ele>
        <time>2021-08-07T09:47:52Z</time>
      </trkpt>
      <trkpt lat="47.72062" lon="-2.4224">
        <ele>65.6</ele>
        <time>2021-08-07T09:47:54Z</time>
      </trkpt>
      <trkpt lat="47.72068" lon="-2.4224">
        <ele>65.8</ele>
        <time>2021-08-07T09:47:56Z</time>
      </trkpt>
      <trkpt lat="47.72079" lon="-2.4224">
        <ele>66</ele>
        <time>2021-08-07T09:47:59Z</time>
      </trkpt>
      <trkpt lat="47.72087" lon="-2.42238">
        <ele>66</ele>
        <time>2021-08-07T09:48:01Z</time>
      </trkpt>
      <trkpt lat="47.72091" lon="-2.42237">
        <ele>66</ele>
        <time>2021-08-07T09:48:02Z</time>
      </trkpt>
      <trkpt lat="47.72103" lon="-2.42234">
        <ele>66</ele>
        <time>2021-08-07T09:48:05Z</time>
      </trkpt>
      <trkpt lat="47.72109" lon="-2.42231">
        <ele>66.2</ele>
        <time>2021-08-07T09:48:07Z</time>
      </trkpt>
      <trkpt lat="47.72119" lon="-2.42228">
        <ele>66.4</ele>
        <time>2021-08-07T09:48:10Z</time>
      </trkpt>
      <trkpt lat="47.72123" lon="-2.42227">
        <ele>66.4</ele>
        <time>2021-08-07T09:48:11Z</time>
      </trkpt>
      <trkpt lat="47.72127" lon="-2.42226">
        <ele>66.4</ele>
        <time>2021-08-07T09:48:12Z</time>
      </trkpt>
      <trkpt lat="47.7213" lon="-2.42226">
        <ele>66.6</ele>
        <time>2021-08-07T09:48:13Z</time>
      </trkpt>
      <trkpt lat="47.72141" lon="-2.42223">
        <ele>66.8</ele>
        <time>2021-08-07T09:48:16Z</time>
      </trkpt>
      <trkpt lat="47.7215" lon="-2.42219">
        <ele>67</ele>
        <time>2021-08-07T09:48:18Z</time>
      </trkpt>
      <trkpt lat="47.72165" lon="-2.42213">
        <ele>67.2</ele>
        <time>2021-08-07T09:48:21Z</time>
      </trkpt>
      <trkpt lat="47.72179" lon="-2.42208">
        <ele>67.4</ele>
        <time>2021-08-07T09:48:24Z</time>
      </trkpt>
      <trkpt lat="47.72183" lon="-2.42207">
        <ele>67.4</ele>
        <time>2021-08-07T09:48:25Z</time>
      </trkpt>
      <trkpt lat="47.72192" lon="-2.42203">
        <ele>67.4</ele>
        <time>2021-08-07T09:48:27Z</time>
      </trkpt>
      <trkpt lat="47.72196" lon="-2.42202">
        <ele>67.4</ele>
        <time>2021-08-07T09:48:28Z</time>
      </trkpt>
      <trkpt lat="47.722" lon="-2.42201">
        <ele>67.6</ele>
        <time>2021-08-07T09:48:29Z</time>
      </trkpt>
      <trkpt lat="47.72203" lon="-2.42199">
        <ele>67.6</ele>
        <time>2021-08-07T09:48:30Z</time>
      </trkpt>
      <trkpt lat="47.72209" lon="-2.42197">
        <ele>67.8</ele>
        <time>2021-08-07T09:48:32Z</time>
      </trkpt>
      <trkpt lat="47.72213" lon="-2.42196">
        <ele>68</ele>
        <time>2021-08-07T09:48:33Z</time>
      </trkpt>
      <trkpt lat="47.72221" lon="-2.42193">
        <ele>68</ele>
        <time>2021-08-07T09:48:35Z</time>
      </trkpt>
      <trkpt lat="47.72225" lon="-2.42192">
        <ele>68.2</ele>
        <time>2021-08-07T09:48:36Z</time>
      </trkpt>
      <trkpt lat="47.7223" lon="-2.4219">
        <ele>68.2</ele>
        <time>2021-08-07T09:48:37Z</time>
      </trkpt>
      <trkpt lat="47.72242" lon="-2.42186">
        <ele>68.4</ele>
        <time>2021-08-07T09:48:40Z</time>
      </trkpt>
      <trkpt lat="47.72246" lon="-2.42185">
        <ele>68.4</ele>
        <time>2021-08-07T09:48:41Z</time>
      </trkpt>
      <trkpt lat="47.72251" lon="-2.42182">
        <ele>68.8</ele>
        <time>2021-08-07T09:48:43Z</time>
      </trkpt>
      <trkpt lat="47.72254" lon="-2.42179">
        <ele>69</ele>
        <time>2021-08-07T09:48:45Z</time>
      </trkpt>
      <trkpt lat="47.72256" lon="-2.42178">
        <ele>69.2</ele>
        <time>2021-08-07T09:48:46Z</time>
      </trkpt>
      <trkpt lat="47.72256" lon="-2.42178">
        <ele>69.2</ele>
        <time>2021-08-07T09:48:47Z</time>
      </trkpt>
      <trkpt lat="47.72257" lon="-2.42178">
        <ele>69.4</ele>
        <time>2021-08-07T09:48:48Z</time>
      </trkpt>
      <trkpt lat="47.72258" lon="-2.42176">
        <ele>69.8</ele>
        <time>2021-08-07T09:48:50Z</time>
      </trkpt>
      <trkpt lat="47.7226" lon="-2.42176">
        <ele>69.8</ele>
        <time>2021-08-07T09:48:51Z</time>
      </trkpt>
      <trkpt lat="47.72262" lon="-2.42176">
        <ele>70</ele>
        <time>2021-08-07T09:48:52Z</time>
      </trkpt>
      <trkpt lat="47.72267" lon="-2.42175">
        <ele>70.2</ele>
        <time>2021-08-07T09:48:56Z</time>
      </trkpt>
      <trkpt lat="47.72268" lon="-2.42175">
        <ele>70.2</ele>
        <time>2021-08-07T09:48:57Z</time>
      </trkpt>
      <trkpt lat="47.72271" lon="-2.42175">
        <ele>70.2</ele>
        <time>2021-08-07T09:48:59Z</time>
      </trkpt>
      <trkpt lat="47.72282" lon="-2.42174">
        <ele>70.4</ele>
        <time>2021-08-07T09:49:50Z</time>
      </trkpt>
      <trkpt lat="47.72283" lon="-2.42174">
        <ele>70.4</ele>
        <time>2021-08-07T09:49:51Z</time>
      </trkpt>
      <trkpt lat="47.72286" lon="-2.42173">
        <ele>70.2</ele>
        <time>2021-08-07T09:49:53Z</time>
      </trkpt>
      <trkpt lat="47.72287" lon="-2.42172">
        <ele>70.2</ele>
        <time>2021-08-07T09:49:54Z</time>
      </trkpt>
      <trkpt lat="47.7229" lon="-2.42171">
        <ele>70.2</ele>
        <time>2021-08-07T09:49:56Z</time>
      </trkpt>
      <trkpt lat="47.72292" lon="-2.4217">
        <ele>70.2</ele>
        <time>2021-08-07T09:49:57Z</time>
      </trkpt>
      <trkpt lat="47.72297" lon="-2.42168">
        <ele>70.2</ele>
        <time>2021-08-07T09:49:59Z</time>
      </trkpt>
      <trkpt lat="47.723" lon="-2.42167">
        <ele>70.2</ele>
        <time>2021-08-07T09:50:00Z</time>
      </trkpt>
      <trkpt lat="47.72306" lon="-2.42164">
        <ele>70.2</ele>
        <time>2021-08-07T09:50:02Z</time>
      </trkpt>
      <trkpt lat="47.72316" lon="-2.4216">
        <ele>70.2</ele>
        <time>2021-08-07T09:50:05Z</time>
      </trkpt>
      <trkpt lat="47.72323" lon="-2.42157">
        <ele>70.4</ele>
        <time>2021-08-07T09:50:07Z</time>
      </trkpt>
      <trkpt lat="47.72331" lon="-2.42152">
        <ele>70.4</ele>
        <time>2021-08-07T09:50:10Z</time>
      </trkpt>
      <trkpt lat="47.72334" lon="-2.42151">
        <ele>70.4</ele>
        <time>2021-08-07T09:50:11Z</time>
      </trkpt>
      <trkpt lat="47.72341" lon="-2.42149">
        <ele>70.4</ele>
        <time>2021-08-07T09:50:13Z</time>
      </trkpt>
      <trkpt lat="47.72351" lon="-2.42145">
        <ele>70.6</ele>
        <time>2021-08-07T09:50:16Z</time>
      </trkpt>
      <trkpt lat="47.72358" lon="-2.42142">
        <ele>70.8</ele>
        <time>2021-08-07T09:50:18Z</time>
      </trkpt>
      <trkpt lat="47.7237" lon="-2.42137">
        <ele>71</ele>
        <time>2021-08-07T09:50:21Z</time>
      </trkpt>
      <trkpt lat="47.72374" lon="-2.42136">
        <ele>71</ele>
        <time>2021-08-07T09:50:22Z</time>
      </trkpt>
      <trkpt lat="47.72381" lon="-2.42134">
        <ele>71.2</ele>
        <time>2021-08-07T09:50:24Z</time>
      </trkpt>
      <trkpt lat="47.72385" lon="-2.42132">
        <ele>71.2</ele>
        <time>2021-08-07T09:50:25Z</time>
      </trkpt>
      <trkpt lat="47.72389" lon="-2.4213">
        <ele>71.4</ele>
        <time>2021-08-07T09:50:26Z</time>
      </trkpt>
      <trkpt lat="47.72393" lon="-2.42129">
        <ele>71.4</ele>
        <time>2021-08-07T09:50:27Z</time>
      </trkpt>
      <trkpt lat="47.724" lon="-2.42127">
        <ele>71.4</ele>
        <time>2021-08-07T09:50:29Z</time>
      </trkpt>
      <trkpt lat="47.72403" lon="-2.42126">
        <ele>71.4</ele>
        <time>2021-08-07T09:50:30Z</time>
      </trkpt>
      <trkpt lat="47.72412" lon="-2.42122">
        <ele>71.6</ele>
        <time>2021-08-07T09:50:32Z</time>
      </trkpt>
      <trkpt lat="47.72415" lon="-2.42121">
        <ele>71.8</ele>
        <time>2021-08-07T09:50:33Z</time>
      </trkpt>
      <trkpt lat="47.72422" lon="-2.4212">
        <ele>72</ele>
        <time>2021-08-07T09:50:35Z</time>
      </trkpt>
      <trkpt lat="47.72427" lon="-2.42119">
        <ele>72</ele>
        <time>2021-08-07T09:50:36Z</time>
      </trkpt>
      <trkpt lat="47.7243" lon="-2.42118">
        <ele>72</ele>
        <time>2021-08-07T09:50:37Z</time>
      </trkpt>
      <trkpt lat="47.72435" lon="-2.42117">
        <ele>72.2</ele>
        <time>2021-08-07T09:50:38Z</time>
      </trkpt>
      <trkpt lat="47.72439" lon="-2.42116">
        <ele>72.2</ele>
        <time>2021-08-07T09:50:39Z</time>
      </trkpt>
      <trkpt lat="47.72442" lon="-2.42114">
        <ele>72.4</ele>
        <time>2021-08-07T09:50:40Z</time>
      </trkpt>
      <trkpt lat="47.72447" lon="-2.42113">
        <ele>72.4</ele>
        <time>2021-08-07T09:50:41Z</time>
      </trkpt>
      <trkpt lat="47.72451" lon="-2.42112">
        <ele>72.6</ele>
        <time>2021-08-07T09:50:42Z</time>
      </trkpt>
      <trkpt lat="47.72455" lon="-2.42111">
        <ele>72.6</ele>
        <time>2021-08-07T09:50:43Z</time>
      </trkpt>
      <trkpt lat="47.72458" lon="-2.42109">
        <ele>72.4</ele>
        <time>2021-08-07T09:50:44Z</time>
      </trkpt>
      <trkpt lat="47.72464" lon="-2.42107">
        <ele>72.6</ele>
        <time>2021-08-07T09:50:45Z</time>
      </trkpt>
      <trkpt lat="47.72468" lon="-2.42106">
        <ele>72.6</ele>
        <time>2021-08-07T09:50:46Z</time>
      </trkpt>
      <trkpt lat="47.72472" lon="-2.42105">
        <ele>72.8</ele>
        <time>2021-08-07T09:50:47Z</time>
      </trkpt>
      <trkpt lat="47.72475" lon="-2.42105">
        <ele>73</ele>
        <time>2021-08-07T09:50:48Z</time>
      </trkpt>
      <trkpt lat="47.72478" lon="-2.42105">
        <ele>73</ele>
        <time>2021-08-07T09:50:49Z</time>
      </trkpt>
      <trkpt lat="47.72482" lon="-2.42104">
        <ele>73</ele>
        <time>2021-08-07T09:50:50Z</time>
      </trkpt>
      <trkpt lat="47.72485" lon="-2.42104">
        <ele>73.2</ele>
        <time>2021-08-07T09:50:51Z</time>
      </trkpt>
      <trkpt lat="47.72488" lon="-2.42104">
        <ele>73.2</ele>
        <time>2021-08-07T09:50:52Z</time>
      </trkpt>
      <trkpt lat="47.72491" lon="-2.42104">
        <ele>73.4</ele>
        <time>2021-08-07T09:50:53Z</time>
      </trkpt>
      <trkpt lat="47.72494" lon="-2.42103">
        <ele>73.4</ele>
        <time>2021-08-07T09:50:54Z</time>
      </trkpt>
      <trkpt lat="47.72497" lon="-2.42102">
        <ele>73.4</ele>
        <time>2021-08-07T09:50:55Z</time>
      </trkpt>
      <trkpt lat="47.72501" lon="-2.42101">
        <ele>73.4</ele>
        <time>2021-08-07T09:50:56Z</time>
      </trkpt>
      <trkpt lat="47.72504" lon="-2.421">
        <ele>73.6</ele>
        <time>2021-08-07T09:50:57Z</time>
      </trkpt>
      <trkpt lat="47.72507" lon="-2.42099">
        <ele>73.8</ele>
        <time>2021-08-07T09:50:58Z</time>
      </trkpt>
      <trkpt lat="47.7251" lon="-2.42097">
        <ele>73.8</ele>
        <time>2021-08-07T09:50:59Z</time>
      </trkpt>
      <trkpt lat="47.72513" lon="-2.42096">
        <ele>73.8</ele>
        <time>2021-08-07T09:51:00Z</time>
      </trkpt>
      <trkpt lat="47.72516" lon="-2.42095">
        <ele>74</ele>
        <time>2021-08-07T09:51:01Z</time>
      </trkpt>
      <trkpt lat="47.72519" lon="-2.42093">
        <ele>74</ele>
        <time>2021-08-07T09:51:02Z</time>
      </trkpt>
      <trkpt lat="47.72522" lon="-2.42092">
        <ele>74</ele>
        <time>2021-08-07T09:51:03Z</time>
      </trkpt>
      <trkpt lat="47.72528" lon="-2.4209">
        <ele>74.2</ele>
        <time>2021-08-07T09:51:04Z</time>
      </trkpt>
      <trkpt lat="47.72532" lon="-2.42088">
        <ele>74.2</ele>
        <time>2021-08-07T09:51:05Z</time>
      </trkpt>
      <trkpt lat="47.72536" lon="-2.42087">
        <ele>74.4</ele>
        <time>2021-08-07T09:51:06Z</time>
      </trkpt>
      <trkpt lat="47.72542" lon="-2.42085">
        <ele>74.4</ele>
        <time>2021-08-07T09:51:07Z</time>
      </trkpt>
      <trkpt lat="47.72546" lon="-2.42083">
        <ele>74.6</ele>
        <time>2021-08-07T09:51:08Z</time>
      </trkpt>
      <trkpt lat="47.72549" lon="-2.42083">
        <ele>74.6</ele>
        <time>2021-08-07T09:51:09Z</time>
      </trkpt>
      <trkpt lat="47.72551" lon="-2.42083">
        <ele>74.6</ele>
        <time>2021-08-07T09:51:10Z</time>
      </trkpt>
      <trkpt lat="47.72558" lon="-2.42081">
        <ele>74.8</ele>
        <time>2021-08-07T09:51:11Z</time>
      </trkpt>
      <trkpt lat="47.72563" lon="-2.42079">
        <ele>74.8</ele>
        <time>2021-08-07T09:51:12Z</time>
      </trkpt>
      <trkpt lat="47.72567" lon="-2.42077">
        <ele>75</ele>
        <time>2021-08-07T09:51:13Z</time>
      </trkpt>
      <trkpt lat="47.72573" lon="-2.42075">
        <ele>75</ele>
        <time>2021-08-07T09:51:14Z</time>
      </trkpt>
      <trkpt lat="47.72577" lon="-2.42075">
        <ele>75</ele>
        <time>2021-08-07T09:51:15Z</time>
      </trkpt>
      <trkpt lat="47.72581" lon="-2.42074">
        <ele>75.2</ele>
        <time>2021-08-07T09:51:16Z</time>
      </trkpt>
      <trkpt lat="47.72585" lon="-2.42073">
        <ele>75.2</ele>
        <time>2021-08-07T09:51:17Z</time>
      </trkpt>
      <trkpt lat="47.72591" lon="-2.4207">
        <ele>75.2</ele>
        <time>2021-08-07T09:51:18Z</time>
      </trkpt>
      <trkpt lat="47.72595" lon="-2.42069">
        <ele>75.4</ele>
        <time>2021-08-07T09:51:19Z</time>
      </trkpt>
      <trkpt lat="47.72598" lon="-2.42068">
        <ele>75.4</ele>
        <time>2021-08-07T09:51:20Z</time>
      </trkpt>
      <trkpt lat="47.72601" lon="-2.42068">
        <ele>75.6</ele>
        <time>2021-08-07T09:51:21Z</time>
      </trkpt>
      <trkpt lat="47.72605" lon="-2.42068">
        <ele>75.6</ele>
        <time>2021-08-07T09:51:22Z</time>
      </trkpt>
      <trkpt lat="47.72612" lon="-2.42068">
        <ele>75.8</ele>
        <time>2021-08-07T09:51:23Z</time>
      </trkpt>
      <trkpt lat="47.72616" lon="-2.42068">
        <ele>75.8</ele>
        <time>2021-08-07T09:51:24Z</time>
      </trkpt>
      <trkpt lat="47.72621" lon="-2.42068">
        <ele>75.8</ele>
        <time>2021-08-07T09:51:25Z</time>
      </trkpt>
      <trkpt lat="47.72625" lon="-2.42066">
        <ele>76</ele>
        <time>2021-08-07T09:51:26Z</time>
      </trkpt>
      <trkpt lat="47.72628" lon="-2.42064">
        <ele>76.2</ele>
        <time>2021-08-07T09:51:27Z</time>
      </trkpt>
      <trkpt lat="47.72634" lon="-2.4206">
        <ele>76.4</ele>
        <time>2021-08-07T09:51:28Z</time>
      </trkpt>
      <trkpt lat="47.7264" lon="-2.42057">
        <ele>76.6</ele>
        <time>2021-08-07T09:51:29Z</time>
      </trkpt>
      <trkpt lat="47.72644" lon="-2.42056">
        <ele>76.8</ele>
        <time>2021-08-07T09:51:30Z</time>
      </trkpt>
      <trkpt lat="47.72648" lon="-2.42055">
        <ele>77</ele>
        <time>2021-08-07T09:51:31Z</time>
      </trkpt>
      <trkpt lat="47.72651" lon="-2.42055">
        <ele>77.2</ele>
        <time>2021-08-07T09:51:32Z</time>
      </trkpt>
      <trkpt lat="47.72654" lon="-2.42055">
        <ele>77</ele>
        <time>2021-08-07T09:51:33Z</time>
      </trkpt>
      <trkpt lat="47.72659" lon="-2.42056">
        <ele>77.4</ele>
        <time>2021-08-07T09:51:35Z</time>
      </trkpt>
      <trkpt lat="47.72662" lon="-2.42055">
        <ele>77.4</ele>
        <time>2021-08-07T09:51:36Z</time>
      </trkpt>
      <trkpt lat="47.72666" lon="-2.42054">
        <ele>77.4</ele>
        <time>2021-08-07T09:51:37Z</time>
      </trkpt>
      <trkpt lat="47.72669" lon="-2.42053">
        <ele>77.4</ele>
        <time>2021-08-07T09:51:38Z</time>
      </trkpt>
      <trkpt lat="47.72672" lon="-2.42053">
        <ele>77.4</ele>
        <time>2021-08-07T09:51:39Z</time>
      </trkpt>
      <trkpt lat="47.72681" lon="-2.42051">
        <ele>77.6</ele>
        <time>2021-08-07T09:51:41Z</time>
      </trkpt>
      <trkpt lat="47.72686" lon="-2.4205">
        <ele>77.6</ele>
        <time>2021-08-07T09:51:42Z</time>
      </trkpt>
      <trkpt lat="47.72691" lon="-2.42049">
        <ele>77.6</ele>
        <time>2021-08-07T09:51:43Z</time>
      </trkpt>
      <trkpt lat="47.72695" lon="-2.42048">
        <ele>77.6</ele>
        <time>2021-08-07T09:51:44Z</time>
      </trkpt>
      <trkpt lat="47.72699" lon="-2.42047">
        <ele>77.6</ele>
        <time>2021-08-07T09:51:45Z</time>
      </trkpt>
      <trkpt lat="47.72702" lon="-2.42047">
        <ele>77.6</ele>
        <time>2021-08-07T09:51:46Z</time>
      </trkpt>
      <trkpt lat="47.72705" lon="-2.42046">
        <ele>77.6</ele>
        <time>2021-08-07T09:51:47Z</time>
      </trkpt>
      <trkpt lat="47.7271" lon="-2.42045">
        <ele>77.6</ele>
        <time>2021-08-07T09:51:48Z</time>
      </trkpt>
      <trkpt lat="47.72714" lon="-2.42043">
        <ele>77.6</ele>
        <time>2021-08-07T09:51:49Z</time>
      </trkpt>
      <trkpt lat="47.72718" lon="-2.42042">
        <ele>77.6</ele>
        <time>2021-08-07T09:51:50Z</time>
      </trkpt>
      <trkpt lat="47.72723" lon="-2.4204">
        <ele>77.6</ele>
        <time>2021-08-07T09:51:51Z</time>
      </trkpt>
      <trkpt lat="47.72728" lon="-2.42039">
        <ele>77.6</ele>
        <time>2021-08-07T09:51:52Z</time>
      </trkpt>
      <trkpt lat="47.72733" lon="-2.42038">
        <ele>77.6</ele>
        <time>2021-08-07T09:51:53Z</time>
      </trkpt>
      <trkpt lat="47.72738" lon="-2.42037">
        <ele>77.6</ele>
        <time>2021-08-07T09:51:54Z</time>
      </trkpt>
      <trkpt lat="47.72742" lon="-2.42036">
        <ele>77.8</ele>
        <time>2021-08-07T09:51:55Z</time>
      </trkpt>
      <trkpt lat="47.72746" lon="-2.42035">
        <ele>77.8</ele>
        <time>2021-08-07T09:51:56Z</time>
      </trkpt>
      <trkpt lat="47.72751" lon="-2.42034">
        <ele>77.8</ele>
        <time>2021-08-07T09:51:57Z</time>
      </trkpt>
      <trkpt lat="47.72755" lon="-2.42034">
        <ele>77.8</ele>
        <time>2021-08-07T09:51:58Z</time>
      </trkpt>
      <trkpt lat="47.7276" lon="-2.42033">
        <ele>78</ele>
        <time>2021-08-07T09:51:59Z</time>
      </trkpt>
      <trkpt lat="47.72765" lon="-2.42032">
        <ele>78.2</ele>
        <time>2021-08-07T09:52:00Z</time>
      </trkpt>
      <trkpt lat="47.7277" lon="-2.42032">
        <ele>78.2</ele>
        <time>2021-08-07T09:52:01Z</time>
      </trkpt>
      <trkpt lat="47.72781" lon="-2.42028">
        <ele>78.6</ele>
        <time>2021-08-07T09:52:03Z</time>
      </trkpt>
      <trkpt lat="47.72786" lon="-2.42026">
        <ele>78.8</ele>
        <time>2021-08-07T09:52:04Z</time>
      </trkpt>
      <trkpt lat="47.72792" lon="-2.42025">
        <ele>78.8</ele>
        <time>2021-08-07T09:52:05Z</time>
      </trkpt>
      <trkpt lat="47.72798" lon="-2.42023">
        <ele>78.8</ele>
        <time>2021-08-07T09:52:06Z</time>
      </trkpt>
      <trkpt lat="47.72804" lon="-2.42022">
        <ele>78.8</ele>
        <time>2021-08-07T09:52:07Z</time>
      </trkpt>
      <trkpt lat="47.7281" lon="-2.42021">
        <ele>78.8</ele>
        <time>2021-08-07T09:52:08Z</time>
      </trkpt>
      <trkpt lat="47.72816" lon="-2.4202">
        <ele>78.8</ele>
        <time>2021-08-07T09:52:09Z</time>
      </trkpt>
      <trkpt lat="47.72821" lon="-2.42018">
        <ele>79</ele>
        <time>2021-08-07T09:52:10Z</time>
      </trkpt>
      <trkpt lat="47.72827" lon="-2.42017">
        <ele>79</ele>
        <time>2021-08-07T09:52:11Z</time>
      </trkpt>
      <trkpt lat="47.72833" lon="-2.42016">
        <ele>79</ele>
        <time>2021-08-07T09:52:12Z</time>
      </trkpt>
      <trkpt lat="47.72842" lon="-2.42014">
        <ele>79</ele>
        <time>2021-08-07T09:52:14Z</time>
      </trkpt>
      <trkpt lat="47.72847" lon="-2.42013">
        <ele>79.2</ele>
        <time>2021-08-07T09:52:15Z</time>
      </trkpt>
      <trkpt lat="47.72852" lon="-2.42011">
        <ele>79.2</ele>
        <time>2021-08-07T09:52:16Z</time>
      </trkpt>
      <trkpt lat="47.72857" lon="-2.42009">
        <ele>79.4</ele>
        <time>2021-08-07T09:52:17Z</time>
      </trkpt>
      <trkpt lat="47.72862" lon="-2.42008">
        <ele>79.2</ele>
        <time>2021-08-07T09:52:18Z</time>
      </trkpt>
      <trkpt lat="47.72867" lon="-2.42007">
        <ele>79.4</ele>
        <time>2021-08-07T09:52:19Z</time>
      </trkpt>
      <trkpt lat="47.72872" lon="-2.42007">
        <ele>79.6</ele>
        <time>2021-08-07T09:52:20Z</time>
      </trkpt>
      <trkpt lat="47.72878" lon="-2.42005">
        <ele>79.8</ele>
        <time>2021-08-07T09:52:21Z</time>
      </trkpt>
      <trkpt lat="47.72883" lon="-2.42004">
        <ele>79.8</ele>
        <time>2021-08-07T09:52:22Z</time>
      </trkpt>
      <trkpt lat="47.72888" lon="-2.42003">
        <ele>79.8</ele>
        <time>2021-08-07T09:52:23Z</time>
      </trkpt>
      <trkpt lat="47.72892" lon="-2.42003">
        <ele>80</ele>
        <time>2021-08-07T09:52:24Z</time>
      </trkpt>
      <trkpt lat="47.72896" lon="-2.42003">
        <ele>80</ele>
        <time>2021-08-07T09:52:25Z</time>
      </trkpt>
      <trkpt lat="47.729" lon="-2.42002">
        <ele>80</ele>
        <time>2021-08-07T09:52:26Z</time>
      </trkpt>
      <trkpt lat="47.72904" lon="-2.42">
        <ele>80</ele>
        <time>2021-08-07T09:52:27Z</time>
      </trkpt>
      <trkpt lat="47.72909" lon="-2.41998">
        <ele>80.2</ele>
        <time>2021-08-07T09:52:28Z</time>
      </trkpt>
      <trkpt lat="47.72913" lon="-2.41997">
        <ele>80.4</ele>
        <time>2021-08-07T09:52:29Z</time>
      </trkpt>
      <trkpt lat="47.72917" lon="-2.41996">
        <ele>80.6</ele>
        <time>2021-08-07T09:52:30Z</time>
      </trkpt>
      <trkpt lat="47.72921" lon="-2.41995">
        <ele>80.8</ele>
        <time>2021-08-07T09:52:31Z</time>
      </trkpt>
      <trkpt lat="47.72925" lon="-2.41993">
        <ele>81</ele>
        <time>2021-08-07T09:52:32Z</time>
      </trkpt>
      <trkpt lat="47.72929" lon="-2.41991">
        <ele>81</ele>
        <time>2021-08-07T09:52:33Z</time>
      </trkpt>
      <trkpt lat="47.72932" lon="-2.41989">
        <ele>81.2</ele>
        <time>2021-08-07T09:52:34Z</time>
      </trkpt>
      <trkpt lat="47.72936" lon="-2.41987">
        <ele>81.2</ele>
        <time>2021-08-07T09:52:35Z</time>
      </trkpt>
      <trkpt lat="47.7294" lon="-2.41985">
        <ele>81.4</ele>
        <time>2021-08-07T09:52:36Z</time>
      </trkpt>
      <trkpt lat="47.72944" lon="-2.41984">
        <ele>81.6</ele>
        <time>2021-08-07T09:52:37Z</time>
      </trkpt>
      <trkpt lat="47.72948" lon="-2.41982">
        <ele>81.6</ele>
        <time>2021-08-07T09:52:38Z</time>
      </trkpt>
      <trkpt lat="47.72951" lon="-2.4198">
        <ele>81.6</ele>
        <time>2021-08-07T09:52:39Z</time>
      </trkpt>
      <trkpt lat="47.72955" lon="-2.41978">
        <ele>81.8</ele>
        <time>2021-08-07T09:52:40Z</time>
      </trkpt>
      <trkpt lat="47.72957" lon="-2.41976">
        <ele>81.8</ele>
        <time>2021-08-07T09:52:41Z</time>
      </trkpt>
      <trkpt lat="47.72961" lon="-2.41974">
        <ele>81.8</ele>
        <time>2021-08-07T09:52:42Z</time>
      </trkpt>
      <trkpt lat="47.72965" lon="-2.41972">
        <ele>81.8</ele>
        <time>2021-08-07T09:52:43Z</time>
      </trkpt>
      <trkpt lat="47.72968" lon="-2.41971">
        <ele>81.8</ele>
        <time>2021-08-07T09:52:44Z</time>
      </trkpt>
      <trkpt lat="47.72972" lon="-2.41969">
        <ele>82</ele>
        <time>2021-08-07T09:52:45Z</time>
      </trkpt>
      <trkpt lat="47.72975" lon="-2.41967">
        <ele>82</ele>
        <time>2021-08-07T09:52:46Z</time>
      </trkpt>
      <trkpt lat="47.72979" lon="-2.41965">
        <ele>82</ele>
        <time>2021-08-07T09:52:47Z</time>
      </trkpt>
      <trkpt lat="47.72982" lon="-2.41963">
        <ele>82.2</ele>
        <time>2021-08-07T09:52:48Z</time>
      </trkpt>
      <trkpt lat="47.72986" lon="-2.41961">
        <ele>82.2</ele>
        <time>2021-08-07T09:52:49Z</time>
      </trkpt>
      <trkpt lat="47.7299" lon="-2.41959">
        <ele>82.4</ele>
        <time>2021-08-07T09:52:50Z</time>
      </trkpt>
      <trkpt lat="47.72994" lon="-2.41958">
        <ele>82.4</ele>
        <time>2021-08-07T09:52:51Z</time>
      </trkpt>
      <trkpt lat="47.72998" lon="-2.41956">
        <ele>82.6</ele>
        <time>2021-08-07T09:52:52Z</time>
      </trkpt>
      <trkpt lat="47.73001" lon="-2.41954">
        <ele>82.8</ele>
        <time>2021-08-07T09:52:53Z</time>
      </trkpt>
      <trkpt lat="47.73005" lon="-2.41952">
        <ele>83</ele>
        <time>2021-08-07T09:52:54Z</time>
      </trkpt>
      <trkpt lat="47.73008" lon="-2.4195">
        <ele>83.2</ele>
        <time>2021-08-07T09:52:55Z</time>
      </trkpt>
      <trkpt lat="47.73011" lon="-2.41948">
        <ele>83.6</ele>
        <time>2021-08-07T09:52:56Z</time>
      </trkpt>
      <trkpt lat="47.73015" lon="-2.41946">
        <ele>83.6</ele>
        <time>2021-08-07T09:52:57Z</time>
      </trkpt>
      <trkpt lat="47.73018" lon="-2.41944">
        <ele>83.8</ele>
        <time>2021-08-07T09:52:58Z</time>
      </trkpt>
      <trkpt lat="47.73021" lon="-2.41942">
        <ele>83.8</ele>
        <time>2021-08-07T09:52:59Z</time>
      </trkpt>
      <trkpt lat="47.73025" lon="-2.4194">
        <ele>83.8</ele>
        <time>2021-08-07T09:53:00Z</time>
      </trkpt>
      <trkpt lat="47.73028" lon="-2.41938">
        <ele>83.8</ele>
        <time>2021-08-07T09:53:01Z</time>
      </trkpt>
      <trkpt lat="47.73031" lon="-2.41936">
        <ele>84</ele>
        <time>2021-08-07T09:53:02Z</time>
      </trkpt>
      <trkpt lat="47.73034" lon="-2.41935">
        <ele>84</ele>
        <time>2021-08-07T09:53:03Z</time>
      </trkpt>
      <trkpt lat="47.73038" lon="-2.41933">
        <ele>84</ele>
        <time>2021-08-07T09:53:04Z</time>
      </trkpt>
      <trkpt lat="47.73042" lon="-2.41931">
        <ele>84</ele>
        <time>2021-08-07T09:53:05Z</time>
      </trkpt>
      <trkpt lat="47.73045" lon="-2.4193">
        <ele>84</ele>
        <time>2021-08-07T09:53:06Z</time>
      </trkpt>
      <trkpt lat="47.73048" lon="-2.41928">
        <ele>84</ele>
        <time>2021-08-07T09:53:07Z</time>
      </trkpt>
      <trkpt lat="47.73055" lon="-2.41925">
        <ele>84</ele>
        <time>2021-08-07T09:53:09Z</time>
      </trkpt>
      <trkpt lat="47.73058" lon="-2.41923">
        <ele>84.2</ele>
        <time>2021-08-07T09:53:10Z</time>
      </trkpt>
      <trkpt lat="47.7306" lon="-2.41922">
        <ele>84</ele>
        <time>2021-08-07T09:53:11Z</time>
      </trkpt>
      <trkpt lat="47.73063" lon="-2.4192">
        <ele>84</ele>
        <time>2021-08-07T09:53:12Z</time>
      </trkpt>
      <trkpt lat="47.73066" lon="-2.41918">
        <ele>84.2</ele>
        <time>2021-08-07T09:53:13Z</time>
      </trkpt>
      <trkpt lat="47.73069" lon="-2.41917">
        <ele>84.4</ele>
        <time>2021-08-07T09:53:14Z</time>
      </trkpt>
      <trkpt lat="47.73073" lon="-2.41914">
        <ele>84.6</ele>
        <time>2021-08-07T09:53:15Z</time>
      </trkpt>
      <trkpt lat="47.73077" lon="-2.41913">
        <ele>84.8</ele>
        <time>2021-08-07T09:53:16Z</time>
      </trkpt>
      <trkpt lat="47.7308" lon="-2.41911">
        <ele>84.8</ele>
        <time>2021-08-07T09:53:17Z</time>
      </trkpt>
      <trkpt lat="47.73083" lon="-2.41909">
        <ele>85</ele>
        <time>2021-08-07T09:53:18Z</time>
      </trkpt>
      <trkpt lat="47.73086" lon="-2.41907">
        <ele>85</ele>
        <time>2021-08-07T09:53:19Z</time>
      </trkpt>
      <trkpt lat="47.73089" lon="-2.41906">
        <ele>85</ele>
        <time>2021-08-07T09:53:20Z</time>
      </trkpt>
      <trkpt lat="47.73092" lon="-2.41904">
        <ele>85</ele>
        <time>2021-08-07T09:53:21Z</time>
      </trkpt>
      <trkpt lat="47.73096" lon="-2.41902">
        <ele>85</ele>
        <time>2021-08-07T09:53:22Z</time>
      </trkpt>
      <trkpt lat="47.73099" lon="-2.419">
        <ele>85.2</ele>
        <time>2021-08-07T09:53:23Z</time>
      </trkpt>
      <trkpt lat="47.73103" lon="-2.41898">
        <ele>85.2</ele>
        <time>2021-08-07T09:53:24Z</time>
      </trkpt>
      <trkpt lat="47.73106" lon="-2.41896">
        <ele>85.2</ele>
        <time>2021-08-07T09:53:25Z</time>
      </trkpt>
      <trkpt lat="47.73109" lon="-2.41893">
        <ele>85.2</ele>
        <time>2021-08-07T09:53:26Z</time>
      </trkpt>
      <trkpt lat="47.73112" lon="-2.41891">
        <ele>85.2</ele>
        <time>2021-08-07T09:53:27Z</time>
      </trkpt>
      <trkpt lat="47.73114" lon="-2.41888">
        <ele>85.2</ele>
        <time>2021-08-07T09:53:28Z</time>
      </trkpt>
      <trkpt lat="47.73117" lon="-2.41885">
        <ele>85.4</ele>
        <time>2021-08-07T09:53:29Z</time>
      </trkpt>
      <trkpt lat="47.7312" lon="-2.41884">
        <ele>85.4</ele>
        <time>2021-08-07T09:53:30Z</time>
      </trkpt>
      <trkpt lat="47.73123" lon="-2.41881">
        <ele>85.4</ele>
        <time>2021-08-07T09:53:31Z</time>
      </trkpt>
      <trkpt lat="47.73129" lon="-2.41875">
        <ele>85.6</ele>
        <time>2021-08-07T09:53:33Z</time>
      </trkpt>
      <trkpt lat="47.73132" lon="-2.41873">
        <ele>85.6</ele>
        <time>2021-08-07T09:53:34Z</time>
      </trkpt>
      <trkpt lat="47.73137" lon="-2.41869">
        <ele>85.6</ele>
        <time>2021-08-07T09:53:36Z</time>
      </trkpt>
      <trkpt lat="47.73143" lon="-2.41863">
        <ele>85.8</ele>
        <time>2021-08-07T09:53:38Z</time>
      </trkpt>
      <trkpt lat="47.73145" lon="-2.4186">
        <ele>86</ele>
        <time>2021-08-07T09:53:39Z</time>
      </trkpt>
      <trkpt lat="47.7315" lon="-2.41855">
        <ele>86</ele>
        <time>2021-08-07T09:53:41Z</time>
      </trkpt>
      <trkpt lat="47.73152" lon="-2.41852">
        <ele>86.2</ele>
        <time>2021-08-07T09:53:42Z</time>
      </trkpt>
      <trkpt lat="47.73154" lon="-2.41849">
        <ele>86.2</ele>
        <time>2021-08-07T09:53:43Z</time>
      </trkpt>
      <trkpt lat="47.73159" lon="-2.41846">
        <ele>86.2</ele>
        <time>2021-08-07T09:53:45Z</time>
      </trkpt>
      <trkpt lat="47.73161" lon="-2.41844">
        <ele>86.2</ele>
        <time>2021-08-07T09:53:46Z</time>
      </trkpt>
      <trkpt lat="47.73165" lon="-2.4184">
        <ele>86.2</ele>
        <time>2021-08-07T09:53:48Z</time>
      </trkpt>
      <trkpt lat="47.73167" lon="-2.41839">
        <ele>86.2</ele>
        <time>2021-08-07T09:53:49Z</time>
      </trkpt>
      <trkpt lat="47.73172" lon="-2.41837">
        <ele>86.4</ele>
        <time>2021-08-07T09:53:50Z</time>
      </trkpt>
      <trkpt lat="47.73174" lon="-2.41834">
        <ele>86.4</ele>
        <time>2021-08-07T09:53:51Z</time>
      </trkpt>
      <trkpt lat="47.73176" lon="-2.41832">
        <ele>86.4</ele>
        <time>2021-08-07T09:53:52Z</time>
      </trkpt>
      <trkpt lat="47.73182" lon="-2.41826">
        <ele>86.4</ele>
        <time>2021-08-07T09:53:54Z</time>
      </trkpt>
      <trkpt lat="47.73184" lon="-2.41823">
        <ele>86.6</ele>
        <time>2021-08-07T09:53:55Z</time>
      </trkpt>
      <trkpt lat="47.73186" lon="-2.4182">
        <ele>86.6</ele>
        <time>2021-08-07T09:53:56Z</time>
      </trkpt>
      <trkpt lat="47.73189" lon="-2.41816">
        <ele>86.6</ele>
        <time>2021-08-07T09:53:57Z</time>
      </trkpt>
      <trkpt lat="47.73191" lon="-2.41813">
        <ele>86.8</ele>
        <time>2021-08-07T09:53:58Z</time>
      </trkpt>
      <trkpt lat="47.73193" lon="-2.4181">
        <ele>86.8</ele>
        <time>2021-08-07T09:53:59Z</time>
      </trkpt>
      <trkpt lat="47.73196" lon="-2.41807">
        <ele>86.8</ele>
        <time>2021-08-07T09:54:00Z</time>
      </trkpt>
      <trkpt lat="47.73199" lon="-2.41804">
        <ele>86.8</ele>
        <time>2021-08-07T09:54:01Z</time>
      </trkpt>
      <trkpt lat="47.73201" lon="-2.41802">
        <ele>86.8</ele>
        <time>2021-08-07T09:54:02Z</time>
      </trkpt>
      <trkpt lat="47.73208" lon="-2.41796">
        <ele>87</ele>
        <time>2021-08-07T09:54:04Z</time>
      </trkpt>
      <trkpt lat="47.73211" lon="-2.41793">
        <ele>87</ele>
        <time>2021-08-07T09:54:05Z</time>
      </trkpt>
      <trkpt lat="47.73214" lon="-2.4179">
        <ele>87.4</ele>
        <time>2021-08-07T09:54:06Z</time>
      </trkpt>
      <trkpt lat="47.73218" lon="-2.41786">
        <ele>87.4</ele>
        <time>2021-08-07T09:54:07Z</time>
      </trkpt>
      <trkpt lat="47.73221" lon="-2.41783">
        <ele>87.4</ele>
        <time>2021-08-07T09:54:08Z</time>
      </trkpt>
      <trkpt lat="47.73223" lon="-2.4178">
        <ele>87.6</ele>
        <time>2021-08-07T09:54:09Z</time>
      </trkpt>
      <trkpt lat="47.73226" lon="-2.41777">
        <ele>87.8</ele>
        <time>2021-08-07T09:54:10Z</time>
      </trkpt>
      <trkpt lat="47.73229" lon="-2.41773">
        <ele>87.8</ele>
        <time>2021-08-07T09:54:11Z</time>
      </trkpt>
      <trkpt lat="47.73233" lon="-2.4177">
        <ele>87.8</ele>
        <time>2021-08-07T09:54:12Z</time>
      </trkpt>
      <trkpt lat="47.73237" lon="-2.41767">
        <ele>88</ele>
        <time>2021-08-07T09:54:13Z</time>
      </trkpt>
      <trkpt lat="47.73243" lon="-2.4176">
        <ele>88</ele>
        <time>2021-08-07T09:54:15Z</time>
      </trkpt>
      <trkpt lat="47.73246" lon="-2.41756">
        <ele>88</ele>
        <time>2021-08-07T09:54:16Z</time>
      </trkpt>
      <trkpt lat="47.7325" lon="-2.41752">
        <ele>88</ele>
        <time>2021-08-07T09:54:17Z</time>
      </trkpt>
      <trkpt lat="47.73254" lon="-2.41748">
        <ele>88.2</ele>
        <time>2021-08-07T09:54:18Z</time>
      </trkpt>
      <trkpt lat="47.73257" lon="-2.41744">
        <ele>88.2</ele>
        <time>2021-08-07T09:54:19Z</time>
      </trkpt>
      <trkpt lat="47.73261" lon="-2.41741">
        <ele>88.2</ele>
        <time>2021-08-07T09:54:20Z</time>
      </trkpt>
      <trkpt lat="47.73264" lon="-2.41738">
        <ele>88.2</ele>
        <time>2021-08-07T09:54:21Z</time>
      </trkpt>
      <trkpt lat="47.73267" lon="-2.41735">
        <ele>88.2</ele>
        <time>2021-08-07T09:54:22Z</time>
      </trkpt>
      <trkpt lat="47.73271" lon="-2.4173">
        <ele>88.2</ele>
        <time>2021-08-07T09:54:23Z</time>
      </trkpt>
      <trkpt lat="47.73275" lon="-2.41727">
        <ele>88.4</ele>
        <time>2021-08-07T09:54:24Z</time>
      </trkpt>
      <trkpt lat="47.73279" lon="-2.4172">
        <ele>88.4</ele>
        <time>2021-08-07T09:54:26Z</time>
      </trkpt>
      <trkpt lat="47.73281" lon="-2.41717">
        <ele>88.6</ele>
        <time>2021-08-07T09:54:27Z</time>
      </trkpt>
      <trkpt lat="47.73284" lon="-2.41714">
        <ele>88.6</ele>
        <time>2021-08-07T09:54:28Z</time>
      </trkpt>
      <trkpt lat="47.73285" lon="-2.41711">
        <ele>88.6</ele>
        <time>2021-08-07T09:54:29Z</time>
      </trkpt>
      <trkpt lat="47.73288" lon="-2.41708">
        <ele>88.6</ele>
        <time>2021-08-07T09:54:30Z</time>
      </trkpt>
      <trkpt lat="47.73292" lon="-2.41704">
        <ele>88.6</ele>
        <time>2021-08-07T09:54:31Z</time>
      </trkpt>
      <trkpt lat="47.73295" lon="-2.417">
        <ele>88.6</ele>
        <time>2021-08-07T09:54:32Z</time>
      </trkpt>
      <trkpt lat="47.73299" lon="-2.41697">
        <ele>88.6</ele>
        <time>2021-08-07T09:54:33Z</time>
      </trkpt>
      <trkpt lat="47.73302" lon="-2.41694">
        <ele>88.6</ele>
        <time>2021-08-07T09:54:34Z</time>
      </trkpt>
      <trkpt lat="47.73306" lon="-2.41689">
        <ele>88.6</ele>
        <time>2021-08-07T09:54:35Z</time>
      </trkpt>
      <trkpt lat="47.73315" lon="-2.41681">
        <ele>88.6</ele>
        <time>2021-08-07T09:54:37Z</time>
      </trkpt>
      <trkpt lat="47.7332" lon="-2.41677">
        <ele>88.6</ele>
        <time>2021-08-07T09:54:38Z</time>
      </trkpt>
      <trkpt lat="47.73324" lon="-2.41673">
        <ele>88.8</ele>
        <time>2021-08-07T09:54:39Z</time>
      </trkpt>
      <trkpt lat="47.73328" lon="-2.41669">
        <ele>88.8</ele>
        <time>2021-08-07T09:54:40Z</time>
      </trkpt>
      <trkpt lat="47.73332" lon="-2.41666">
        <ele>88.8</ele>
        <time>2021-08-07T09:54:41Z</time>
      </trkpt>
      <trkpt lat="47.73336" lon="-2.41662">
        <ele>88.8</ele>
        <time>2021-08-07T09:54:42Z</time>
      </trkpt>
      <trkpt lat="47.73339" lon="-2.41659">
        <ele>89</ele>
        <time>2021-08-07T09:54:43Z</time>
      </trkpt>
      <trkpt lat="47.73343" lon="-2.41655">
        <ele>89</ele>
        <time>2021-08-07T09:54:44Z</time>
      </trkpt>
      <trkpt lat="47.73346" lon="-2.41652">
        <ele>89</ele>
        <time>2021-08-07T09:54:45Z</time>
      </trkpt>
      <trkpt lat="47.73349" lon="-2.41649">
        <ele>89</ele>
        <time>2021-08-07T09:54:46Z</time>
      </trkpt>
      <trkpt lat="47.73352" lon="-2.41646">
        <ele>89</ele>
        <time>2021-08-07T09:54:47Z</time>
      </trkpt>
      <trkpt lat="47.73355" lon="-2.41643">
        <ele>89</ele>
        <time>2021-08-07T09:54:48Z</time>
      </trkpt>
      <trkpt lat="47.73357" lon="-2.4164">
        <ele>89</ele>
        <time>2021-08-07T09:54:49Z</time>
      </trkpt>
      <trkpt lat="47.7336" lon="-2.41636">
        <ele>89.2</ele>
        <time>2021-08-07T09:54:50Z</time>
      </trkpt>
      <trkpt lat="47.73362" lon="-2.41633">
        <ele>89.2</ele>
        <time>2021-08-07T09:54:51Z</time>
      </trkpt>
      <trkpt lat="47.73364" lon="-2.41631">
        <ele>89.2</ele>
        <time>2021-08-07T09:54:52Z</time>
      </trkpt>
      <trkpt lat="47.73366" lon="-2.41628">
        <ele>89.4</ele>
        <time>2021-08-07T09:54:53Z</time>
      </trkpt>
      <trkpt lat="47.73368" lon="-2.41626">
        <ele>89.4</ele>
        <time>2021-08-07T09:54:54Z</time>
      </trkpt>
      <trkpt lat="47.7337" lon="-2.41623">
        <ele>89.6</ele>
        <time>2021-08-07T09:54:55Z</time>
      </trkpt>
      <trkpt lat="47.73372" lon="-2.4162">
        <ele>89.6</ele>
        <time>2021-08-07T09:54:56Z</time>
      </trkpt>
      <trkpt lat="47.73374" lon="-2.41616">
        <ele>89.6</ele>
        <time>2021-08-07T09:54:57Z</time>
      </trkpt>
      <trkpt lat="47.73379" lon="-2.4161">
        <ele>89.8</ele>
        <time>2021-08-07T09:54:59Z</time>
      </trkpt>
      <trkpt lat="47.73381" lon="-2.41607">
        <ele>90</ele>
        <time>2021-08-07T09:55:00Z</time>
      </trkpt>
      <trkpt lat="47.73384" lon="-2.41604">
        <ele>90</ele>
        <time>2021-08-07T09:55:01Z</time>
      </trkpt>
      <trkpt lat="47.73386" lon="-2.416">
        <ele>90.2</ele>
        <time>2021-08-07T09:55:02Z</time>
      </trkpt>
      <trkpt lat="47.73389" lon="-2.41598">
        <ele>90.4</ele>
        <time>2021-08-07T09:55:03Z</time>
      </trkpt>
      <trkpt lat="47.73391" lon="-2.41594">
        <ele>90.8</ele>
        <time>2021-08-07T09:55:04Z</time>
      </trkpt>
      <trkpt lat="47.73396" lon="-2.4159">
        <ele>91</ele>
        <time>2021-08-07T09:55:05Z</time>
      </trkpt>
      <trkpt lat="47.734" lon="-2.41586">
        <ele>91.2</ele>
        <time>2021-08-07T09:55:06Z</time>
      </trkpt>
      <trkpt lat="47.73406" lon="-2.41581">
        <ele>91.4</ele>
        <time>2021-08-07T09:55:07Z</time>
      </trkpt>
      <trkpt lat="47.73415" lon="-2.41572">
        <ele>91.6</ele>
        <time>2021-08-07T09:55:09Z</time>
      </trkpt>
      <trkpt lat="47.73418" lon="-2.41569">
        <ele>91.8</ele>
        <time>2021-08-07T09:55:10Z</time>
      </trkpt>
      <trkpt lat="47.73421" lon="-2.41565">
        <ele>91.8</ele>
        <time>2021-08-07T09:55:11Z</time>
      </trkpt>
      <trkpt lat="47.73424" lon="-2.41562">
        <ele>91.8</ele>
        <time>2021-08-07T09:55:12Z</time>
      </trkpt>
      <trkpt lat="47.73427" lon="-2.41558">
        <ele>91.8</ele>
        <time>2021-08-07T09:55:13Z</time>
      </trkpt>
      <trkpt lat="47.7343" lon="-2.41555">
        <ele>91.8</ele>
        <time>2021-08-07T09:55:14Z</time>
      </trkpt>
      <trkpt lat="47.73433" lon="-2.41552">
        <ele>92</ele>
        <time>2021-08-07T09:55:15Z</time>
      </trkpt>
      <trkpt lat="47.73436" lon="-2.41548">
        <ele>92</ele>
        <time>2021-08-07T09:55:16Z</time>
      </trkpt>
      <trkpt lat="47.73439" lon="-2.41545">
        <ele>92</ele>
        <time>2021-08-07T09:55:17Z</time>
      </trkpt>
      <trkpt lat="47.73441" lon="-2.41542">
        <ele>92</ele>
        <time>2021-08-07T09:55:18Z</time>
      </trkpt>
      <trkpt lat="47.73444" lon="-2.4154">
        <ele>92</ele>
        <time>2021-08-07T09:55:19Z</time>
      </trkpt>
      <trkpt lat="47.73445" lon="-2.41538">
        <ele>92</ele>
        <time>2021-08-07T09:55:20Z</time>
      </trkpt>
      <trkpt lat="47.73448" lon="-2.41535">
        <ele>92</ele>
        <time>2021-08-07T09:55:21Z</time>
      </trkpt>
      <trkpt lat="47.73449" lon="-2.41532">
        <ele>92</ele>
        <time>2021-08-07T09:55:22Z</time>
      </trkpt>
      <trkpt lat="47.73451" lon="-2.41529">
        <ele>92.2</ele>
        <time>2021-08-07T09:55:23Z</time>
      </trkpt>
      <trkpt lat="47.73453" lon="-2.41527">
        <ele>92.2</ele>
        <time>2021-08-07T09:55:24Z</time>
      </trkpt>
      <trkpt lat="47.73455" lon="-2.41524">
        <ele>92.4</ele>
        <time>2021-08-07T09:55:25Z</time>
      </trkpt>
      <trkpt lat="47.73456" lon="-2.41521">
        <ele>92.4</ele>
        <time>2021-08-07T09:55:26Z</time>
      </trkpt>
      <trkpt lat="47.73458" lon="-2.41518">
        <ele>92.6</ele>
        <time>2021-08-07T09:55:27Z</time>
      </trkpt>
      <trkpt lat="47.73462" lon="-2.41512">
        <ele>92.6</ele>
        <time>2021-08-07T09:55:29Z</time>
      </trkpt>
      <trkpt lat="47.73465" lon="-2.41508">
        <ele>92.6</ele>
        <time>2021-08-07T09:55:30Z</time>
      </trkpt>
      <trkpt lat="47.73466" lon="-2.41506">
        <ele>92.6</ele>
        <time>2021-08-07T09:55:31Z</time>
      </trkpt>
      <trkpt lat="47.73468" lon="-2.41503">
        <ele>92.6</ele>
        <time>2021-08-07T09:55:32Z</time>
      </trkpt>
      <trkpt lat="47.7347" lon="-2.41501">
        <ele>92.8</ele>
        <time>2021-08-07T09:55:33Z</time>
      </trkpt>
      <trkpt lat="47.73472" lon="-2.41497">
        <ele>92.8</ele>
        <time>2021-08-07T09:55:34Z</time>
      </trkpt>
      <trkpt lat="47.73475" lon="-2.41493">
        <ele>92.8</ele>
        <time>2021-08-07T09:55:35Z</time>
      </trkpt>
      <trkpt lat="47.73477" lon="-2.4149">
        <ele>92.8</ele>
        <time>2021-08-07T09:55:36Z</time>
      </trkpt>
      <trkpt lat="47.73481" lon="-2.41486">
        <ele>93</ele>
        <time>2021-08-07T09:55:37Z</time>
      </trkpt>
      <trkpt lat="47.73488" lon="-2.41477">
        <ele>93</ele>
        <time>2021-08-07T09:55:39Z</time>
      </trkpt>
      <trkpt lat="47.73492" lon="-2.41473">
        <ele>93</ele>
        <time>2021-08-07T09:55:40Z</time>
      </trkpt>
      <trkpt lat="47.73496" lon="-2.41469">
        <ele>93</ele>
        <time>2021-08-07T09:55:41Z</time>
      </trkpt>
      <trkpt lat="47.73499" lon="-2.41466">
        <ele>93</ele>
        <time>2021-08-07T09:55:42Z</time>
      </trkpt>
      <trkpt lat="47.73503" lon="-2.41462">
        <ele>93</ele>
        <time>2021-08-07T09:55:43Z</time>
      </trkpt>
      <trkpt lat="47.73506" lon="-2.41458">
        <ele>93.2</ele>
        <time>2021-08-07T09:55:44Z</time>
      </trkpt>
      <trkpt lat="47.73509" lon="-2.41454">
        <ele>93.2</ele>
        <time>2021-08-07T09:55:45Z</time>
      </trkpt>
      <trkpt lat="47.73512" lon="-2.41451">
        <ele>93.2</ele>
        <time>2021-08-07T09:55:46Z</time>
      </trkpt>
      <trkpt lat="47.73517" lon="-2.41446">
        <ele>93.2</ele>
        <time>2021-08-07T09:55:47Z</time>
      </trkpt>
      <trkpt lat="47.73522" lon="-2.41441">
        <ele>93.2</ele>
        <time>2021-08-07T09:55:48Z</time>
      </trkpt>
      <trkpt lat="47.7353" lon="-2.41433">
        <ele>93.2</ele>
        <time>2021-08-07T09:55:50Z</time>
      </trkpt>
      <trkpt lat="47.73533" lon="-2.4143">
        <ele>93.4</ele>
        <time>2021-08-07T09:55:51Z</time>
      </trkpt>
      <trkpt lat="47.73538" lon="-2.41424">
        <ele>93.4</ele>
        <time>2021-08-07T09:55:52Z</time>
      </trkpt>
      <trkpt lat="47.73542" lon="-2.4142">
        <ele>93.4</ele>
        <time>2021-08-07T09:55:53Z</time>
      </trkpt>
      <trkpt lat="47.73547" lon="-2.41415">
        <ele>93.4</ele>
        <time>2021-08-07T09:55:54Z</time>
      </trkpt>
      <trkpt lat="47.73552" lon="-2.41409">
        <ele>93.4</ele>
        <time>2021-08-07T09:55:55Z</time>
      </trkpt>
      <trkpt lat="47.73558" lon="-2.41404">
        <ele>93.4</ele>
        <time>2021-08-07T09:55:56Z</time>
      </trkpt>
      <trkpt lat="47.73562" lon="-2.414">
        <ele>93.4</ele>
        <time>2021-08-07T09:55:57Z</time>
      </trkpt>
      <trkpt lat="47.73567" lon="-2.41395">
        <ele>93.2</ele>
        <time>2021-08-07T09:55:58Z</time>
      </trkpt>
      <trkpt lat="47.73571" lon="-2.41392">
        <ele>93.2</ele>
        <time>2021-08-07T09:55:59Z</time>
      </trkpt>
      <trkpt lat="47.73577" lon="-2.41386">
        <ele>93.2</ele>
        <time>2021-08-07T09:56:01Z</time>
      </trkpt>
      <trkpt lat="47.73581" lon="-2.41382">
        <ele>93</ele>
        <time>2021-08-07T09:56:02Z</time>
      </trkpt>
      <trkpt lat="47.73585" lon="-2.41378">
        <ele>93</ele>
        <time>2021-08-07T09:56:03Z</time>
      </trkpt>
      <trkpt lat="47.73588" lon="-2.41374">
        <ele>93</ele>
        <time>2021-08-07T09:56:04Z</time>
      </trkpt>
      <trkpt lat="47.73592" lon="-2.4137">
        <ele>93</ele>
        <time>2021-08-07T09:56:05Z</time>
      </trkpt>
      <trkpt lat="47.73596" lon="-2.41366">
        <ele>93</ele>
        <time>2021-08-07T09:56:06Z</time>
      </trkpt>
      <trkpt lat="47.73599" lon="-2.41363">
        <ele>93</ele>
        <time>2021-08-07T09:56:07Z</time>
      </trkpt>
      <trkpt lat="47.73603" lon="-2.41359">
        <ele>93</ele>
        <time>2021-08-07T09:56:08Z</time>
      </trkpt>
      <trkpt lat="47.73607" lon="-2.41356">
        <ele>93</ele>
        <time>2021-08-07T09:56:09Z</time>
      </trkpt>
      <trkpt lat="47.73609" lon="-2.41353">
        <ele>93</ele>
        <time>2021-08-07T09:56:10Z</time>
      </trkpt>
      <trkpt lat="47.73617" lon="-2.41345">
        <ele>93</ele>
        <time>2021-08-07T09:56:12Z</time>
      </trkpt>
      <trkpt lat="47.73621" lon="-2.41342">
        <ele>93</ele>
        <time>2021-08-07T09:56:13Z</time>
      </trkpt>
      <trkpt lat="47.73625" lon="-2.41339">
        <ele>93</ele>
        <time>2021-08-07T09:56:14Z</time>
      </trkpt>
      <trkpt lat="47.73627" lon="-2.41335">
        <ele>93.2</ele>
        <time>2021-08-07T09:56:15Z</time>
      </trkpt>
      <trkpt lat="47.7363" lon="-2.41332">
        <ele>93.2</ele>
        <time>2021-08-07T09:56:16Z</time>
      </trkpt>
      <trkpt lat="47.73632" lon="-2.41329">
        <ele>93.2</ele>
        <time>2021-08-07T09:56:17Z</time>
      </trkpt>
      <trkpt lat="47.73635" lon="-2.41325">
        <ele>93.2</ele>
        <time>2021-08-07T09:56:18Z</time>
      </trkpt>
      <trkpt lat="47.73639" lon="-2.41322">
        <ele>93.4</ele>
        <time>2021-08-07T09:56:19Z</time>
      </trkpt>
      <trkpt lat="47.73641" lon="-2.41319">
        <ele>93.4</ele>
        <time>2021-08-07T09:56:20Z</time>
      </trkpt>
      <trkpt lat="47.73643" lon="-2.41316">
        <ele>93.4</ele>
        <time>2021-08-07T09:56:21Z</time>
      </trkpt>
      <trkpt lat="47.73648" lon="-2.4131">
        <ele>93.4</ele>
        <time>2021-08-07T09:56:23Z</time>
      </trkpt>
      <trkpt lat="47.73652" lon="-2.41306">
        <ele>93.4</ele>
        <time>2021-08-07T09:56:24Z</time>
      </trkpt>
      <trkpt lat="47.73654" lon="-2.41303">
        <ele>93.4</ele>
        <time>2021-08-07T09:56:25Z</time>
      </trkpt>
      <trkpt lat="47.73657" lon="-2.413">
        <ele>93.4</ele>
        <time>2021-08-07T09:56:26Z</time>
      </trkpt>
      <trkpt lat="47.73661" lon="-2.41296">
        <ele>93.4</ele>
        <time>2021-08-07T09:56:27Z</time>
      </trkpt>
      <trkpt lat="47.73665" lon="-2.41292">
        <ele>93.4</ele>
        <time>2021-08-07T09:56:28Z</time>
      </trkpt>
      <trkpt lat="47.73669" lon="-2.41289">
        <ele>93.4</ele>
        <time>2021-08-07T09:56:29Z</time>
      </trkpt>
      <trkpt lat="47.73673" lon="-2.41286">
        <ele>93.4</ele>
        <time>2021-08-07T09:56:30Z</time>
      </trkpt>
      <trkpt lat="47.73677" lon="-2.41282">
        <ele>93.4</ele>
        <time>2021-08-07T09:56:31Z</time>
      </trkpt>
      <trkpt lat="47.73684" lon="-2.41275">
        <ele>93.4</ele>
        <time>2021-08-07T09:56:33Z</time>
      </trkpt>
      <trkpt lat="47.73689" lon="-2.41272">
        <ele>93.4</ele>
        <time>2021-08-07T09:56:34Z</time>
      </trkpt>
      <trkpt lat="47.73694" lon="-2.41268">
        <ele>93.4</ele>
        <time>2021-08-07T09:56:35Z</time>
      </trkpt>
      <trkpt lat="47.73697" lon="-2.41265">
        <ele>93.2</ele>
        <time>2021-08-07T09:56:36Z</time>
      </trkpt>
      <trkpt lat="47.73701" lon="-2.41261">
        <ele>93.2</ele>
        <time>2021-08-07T09:56:37Z</time>
      </trkpt>
      <trkpt lat="47.73704" lon="-2.41257">
        <ele>93.2</ele>
        <time>2021-08-07T09:56:38Z</time>
      </trkpt>
      <trkpt lat="47.73708" lon="-2.41253">
        <ele>93.2</ele>
        <time>2021-08-07T09:56:39Z</time>
      </trkpt>
      <trkpt lat="47.73711" lon="-2.4125">
        <ele>93.2</ele>
        <time>2021-08-07T09:56:40Z</time>
      </trkpt>
      <trkpt lat="47.73716" lon="-2.41246">
        <ele>93</ele>
        <time>2021-08-07T09:56:41Z</time>
      </trkpt>
      <trkpt lat="47.73719" lon="-2.41243">
        <ele>93</ele>
        <time>2021-08-07T09:56:42Z</time>
      </trkpt>
      <trkpt lat="47.7373" lon="-2.41235">
        <ele>92.8</ele>
        <time>2021-08-07T09:56:44Z</time>
      </trkpt>
      <trkpt lat="47.73735" lon="-2.41231">
        <ele>92.6</ele>
        <time>2021-08-07T09:56:45Z</time>
      </trkpt>
      <trkpt lat="47.73738" lon="-2.41228">
        <ele>92.6</ele>
        <time>2021-08-07T09:56:46Z</time>
      </trkpt>
      <trkpt lat="47.73742" lon="-2.41224">
        <ele>92.4</ele>
        <time>2021-08-07T09:56:47Z</time>
      </trkpt>
      <trkpt lat="47.73746" lon="-2.41221">
        <ele>92.4</ele>
        <time>2021-08-07T09:56:48Z</time>
      </trkpt>
      <trkpt lat="47.7375" lon="-2.41217">
        <ele>92.4</ele>
        <time>2021-08-07T09:56:49Z</time>
      </trkpt>
      <trkpt lat="47.73755" lon="-2.41214">
        <ele>92.2</ele>
        <time>2021-08-07T09:56:50Z</time>
      </trkpt>
      <trkpt lat="47.73759" lon="-2.41212">
        <ele>92.2</ele>
        <time>2021-08-07T09:56:51Z</time>
      </trkpt>
      <trkpt lat="47.73763" lon="-2.41208">
        <ele>92</ele>
        <time>2021-08-07T09:56:52Z</time>
      </trkpt>
      <trkpt lat="47.7377" lon="-2.41202">
        <ele>91.8</ele>
        <time>2021-08-07T09:56:54Z</time>
      </trkpt>
      <trkpt lat="47.73774" lon="-2.41199">
        <ele>91.6</ele>
        <time>2021-08-07T09:56:55Z</time>
      </trkpt>
      <trkpt lat="47.73777" lon="-2.41197">
        <ele>91.4</ele>
        <time>2021-08-07T09:56:56Z</time>
      </trkpt>
      <trkpt lat="47.73781" lon="-2.41194">
        <ele>91.2</ele>
        <time>2021-08-07T09:56:57Z</time>
      </trkpt>
      <trkpt lat="47.73784" lon="-2.41192">
        <ele>91.2</ele>
        <time>2021-08-07T09:56:58Z</time>
      </trkpt>
      <trkpt lat="47.73787" lon="-2.4119">
        <ele>91.2</ele>
        <time>2021-08-07T09:56:59Z</time>
      </trkpt>
      <trkpt lat="47.73791" lon="-2.41187">
        <ele>90.8</ele>
        <time>2021-08-07T09:57:00Z</time>
      </trkpt>
      <trkpt lat="47.73795" lon="-2.41184">
        <ele>90.8</ele>
        <time>2021-08-07T09:57:01Z</time>
      </trkpt>
      <trkpt lat="47.738" lon="-2.4118">
        <ele>90.8</ele>
        <time>2021-08-07T09:57:02Z</time>
      </trkpt>
      <trkpt lat="47.73805" lon="-2.41176">
        <ele>90.8</ele>
        <time>2021-08-07T09:57:03Z</time>
      </trkpt>
      <trkpt lat="47.73815" lon="-2.41168">
        <ele>90.6</ele>
        <time>2021-08-07T09:57:05Z</time>
      </trkpt>
      <trkpt lat="47.73821" lon="-2.41164">
        <ele>90.6</ele>
        <time>2021-08-07T09:57:06Z</time>
      </trkpt>
      <trkpt lat="47.73827" lon="-2.41159">
        <ele>90.6</ele>
        <time>2021-08-07T09:57:07Z</time>
      </trkpt>
      <trkpt lat="47.73833" lon="-2.41156">
        <ele>90.6</ele>
        <time>2021-08-07T09:57:08Z</time>
      </trkpt>
      <trkpt lat="47.73838" lon="-2.41152">
        <ele>90.4</ele>
        <time>2021-08-07T09:57:09Z</time>
      </trkpt>
      <trkpt lat="47.73842" lon="-2.41148">
        <ele>90.2</ele>
        <time>2021-08-07T09:57:10Z</time>
      </trkpt>
      <trkpt lat="47.73846" lon="-2.41144">
        <ele>90.2</ele>
        <time>2021-08-07T09:57:11Z</time>
      </trkpt>
      <trkpt lat="47.73851" lon="-2.4114">
        <ele>90</ele>
        <time>2021-08-07T09:57:12Z</time>
      </trkpt>
      <trkpt lat="47.73855" lon="-2.41138">
        <ele>90</ele>
        <time>2021-08-07T09:57:13Z</time>
      </trkpt>
      <trkpt lat="47.73859" lon="-2.41134">
        <ele>89.8</ele>
        <time>2021-08-07T09:57:14Z</time>
      </trkpt>
      <trkpt lat="47.73867" lon="-2.41128">
        <ele>88.6</ele>
        <time>2021-08-07T09:57:16Z</time>
      </trkpt>
      <trkpt lat="47.73872" lon="-2.41124">
        <ele>88.4</ele>
        <time>2021-08-07T09:57:17Z</time>
      </trkpt>
      <trkpt lat="47.73878" lon="-2.4112">
        <ele>88.4</ele>
        <time>2021-08-07T09:57:18Z</time>
      </trkpt>
      <trkpt lat="47.73885" lon="-2.41116">
        <ele>88.2</ele>
        <time>2021-08-07T09:57:19Z</time>
      </trkpt>
      <trkpt lat="47.73891" lon="-2.41112">
        <ele>88.2</ele>
        <time>2021-08-07T09:57:20Z</time>
      </trkpt>
      <trkpt lat="47.73897" lon="-2.41107">
        <ele>88.2</ele>
        <time>2021-08-07T09:57:21Z</time>
      </trkpt>
      <trkpt lat="47.73903" lon="-2.41103">
        <ele>88.2</ele>
        <time>2021-08-07T09:57:22Z</time>
      </trkpt>
      <trkpt lat="47.7391" lon="-2.41099">
        <ele>88.2</ele>
        <time>2021-08-07T09:57:23Z</time>
      </trkpt>
      <trkpt lat="47.73916" lon="-2.41095">
        <ele>88.2</ele>
        <time>2021-08-07T09:57:24Z</time>
      </trkpt>
      <trkpt lat="47.73921" lon="-2.41091">
        <ele>88.2</ele>
        <time>2021-08-07T09:57:25Z</time>
      </trkpt>
      <trkpt lat="47.73932" lon="-2.41084">
        <ele>88</ele>
        <time>2021-08-07T09:57:27Z</time>
      </trkpt>
      <trkpt lat="47.73938" lon="-2.41081">
        <ele>88</ele>
        <time>2021-08-07T09:57:28Z</time>
      </trkpt>
      <trkpt lat="47.73943" lon="-2.41078">
        <ele>88</ele>
        <time>2021-08-07T09:57:29Z</time>
      </trkpt>
      <trkpt lat="47.73948" lon="-2.41074">
        <ele>88</ele>
        <time>2021-08-07T09:57:30Z</time>
      </trkpt>
      <trkpt lat="47.73953" lon="-2.4107">
        <ele>87.8</ele>
        <time>2021-08-07T09:57:31Z</time>
      </trkpt>
      <trkpt lat="47.73957" lon="-2.41066">
        <ele>87.8</ele>
        <time>2021-08-07T09:57:32Z</time>
      </trkpt>
      <trkpt lat="47.7396" lon="-2.41062">
        <ele>87.8</ele>
        <time>2021-08-07T09:57:33Z</time>
      </trkpt>
      <trkpt lat="47.73964" lon="-2.41059">
        <ele>87.8</ele>
        <time>2021-08-07T09:57:34Z</time>
      </trkpt>
      <trkpt lat="47.73968" lon="-2.41056">
        <ele>87.8</ele>
        <time>2021-08-07T09:57:35Z</time>
      </trkpt>
      <trkpt lat="47.73971" lon="-2.41052">
        <ele>87.8</ele>
        <time>2021-08-07T09:57:36Z</time>
      </trkpt>
      <trkpt lat="47.73974" lon="-2.41049">
        <ele>87.6</ele>
        <time>2021-08-07T09:57:37Z</time>
      </trkpt>
      <trkpt lat="47.73977" lon="-2.41046">
        <ele>87.6</ele>
        <time>2021-08-07T09:57:38Z</time>
      </trkpt>
      <trkpt lat="47.73982" lon="-2.41044">
        <ele>87.6</ele>
        <time>2021-08-07T09:57:39Z</time>
      </trkpt>
      <trkpt lat="47.73987" lon="-2.41041">
        <ele>87.6</ele>
        <time>2021-08-07T09:57:40Z</time>
      </trkpt>
      <trkpt lat="47.73991" lon="-2.41037">
        <ele>87.4</ele>
        <time>2021-08-07T09:57:41Z</time>
      </trkpt>
      <trkpt lat="47.73995" lon="-2.41033">
        <ele>87.2</ele>
        <time>2021-08-07T09:57:42Z</time>
      </trkpt>
      <trkpt lat="47.74" lon="-2.41029">
        <ele>86.6</ele>
        <time>2021-08-07T09:57:43Z</time>
      </trkpt>
      <trkpt lat="47.74005" lon="-2.41025">
        <ele>86.4</ele>
        <time>2021-08-07T09:57:44Z</time>
      </trkpt>
      <trkpt lat="47.74009" lon="-2.41022">
        <ele>86</ele>
        <time>2021-08-07T09:57:45Z</time>
      </trkpt>
      <trkpt lat="47.74013" lon="-2.41018">
        <ele>86</ele>
        <time>2021-08-07T09:57:46Z</time>
      </trkpt>
      <trkpt lat="47.74018" lon="-2.41014">
        <ele>85.8</ele>
        <time>2021-08-07T09:57:47Z</time>
      </trkpt>
      <trkpt lat="47.74022" lon="-2.4101">
        <ele>85.8</ele>
        <time>2021-08-07T09:57:48Z</time>
      </trkpt>
      <trkpt lat="47.74027" lon="-2.41006">
        <ele>85.8</ele>
        <time>2021-08-07T09:57:49Z</time>
      </trkpt>
      <trkpt lat="47.74032" lon="-2.41002">
        <ele>85.6</ele>
        <time>2021-08-07T09:57:50Z</time>
      </trkpt>
      <trkpt lat="47.74039" lon="-2.40999">
        <ele>85.6</ele>
        <time>2021-08-07T09:57:51Z</time>
      </trkpt>
      <trkpt lat="47.74045" lon="-2.40995">
        <ele>85.4</ele>
        <time>2021-08-07T09:57:52Z</time>
      </trkpt>
      <trkpt lat="47.7405" lon="-2.40991">
        <ele>85.4</ele>
        <time>2021-08-07T09:57:53Z</time>
      </trkpt>
      <trkpt lat="47.74056" lon="-2.40987">
        <ele>85.2</ele>
        <time>2021-08-07T09:57:54Z</time>
      </trkpt>
      <trkpt lat="47.74062" lon="-2.40983">
        <ele>85</ele>
        <time>2021-08-07T09:57:55Z</time>
      </trkpt>
      <trkpt lat="47.74066" lon="-2.40979">
        <ele>84.8</ele>
        <time>2021-08-07T09:57:56Z</time>
      </trkpt>
      <trkpt lat="47.7407" lon="-2.40975">
        <ele>84.6</ele>
        <time>2021-08-07T09:57:57Z</time>
      </trkpt>
      <trkpt lat="47.74074" lon="-2.40971">
        <ele>84.6</ele>
        <time>2021-08-07T09:57:58Z</time>
      </trkpt>
      <trkpt lat="47.74082" lon="-2.40964">
        <ele>84.4</ele>
        <time>2021-08-07T09:58:00Z</time>
      </trkpt>
      <trkpt lat="47.74085" lon="-2.40961">
        <ele>84.4</ele>
        <time>2021-08-07T09:58:01Z</time>
      </trkpt>
      <trkpt lat="47.74088" lon="-2.40957">
        <ele>84.2</ele>
        <time>2021-08-07T09:58:02Z</time>
      </trkpt>
      <trkpt lat="47.74092" lon="-2.40953">
        <ele>84</ele>
        <time>2021-08-07T09:58:03Z</time>
      </trkpt>
      <trkpt lat="47.74097" lon="-2.4095">
        <ele>84</ele>
        <time>2021-08-07T09:58:04Z</time>
      </trkpt>
      <trkpt lat="47.74101" lon="-2.40946">
        <ele>83.8</ele>
        <time>2021-08-07T09:58:05Z</time>
      </trkpt>
      <trkpt lat="47.74104" lon="-2.40943">
        <ele>83.8</ele>
        <time>2021-08-07T09:58:06Z</time>
      </trkpt>
      <trkpt lat="47.74108" lon="-2.4094">
        <ele>83.6</ele>
        <time>2021-08-07T09:58:07Z</time>
      </trkpt>
      <trkpt lat="47.74113" lon="-2.40936">
        <ele>83.6</ele>
        <time>2021-08-07T09:58:08Z</time>
      </trkpt>
      <trkpt lat="47.74118" lon="-2.40933">
        <ele>83.4</ele>
        <time>2021-08-07T09:58:09Z</time>
      </trkpt>
      <trkpt lat="47.74127" lon="-2.40926">
        <ele>83.2</ele>
        <time>2021-08-07T09:58:11Z</time>
      </trkpt>
      <trkpt lat="47.74133" lon="-2.40922">
        <ele>83</ele>
        <time>2021-08-07T09:58:12Z</time>
      </trkpt>
      <trkpt lat="47.74138" lon="-2.40919">
        <ele>82.6</ele>
        <time>2021-08-07T09:58:13Z</time>
      </trkpt>
      <trkpt lat="47.74143" lon="-2.40916">
        <ele>82.4</ele>
        <time>2021-08-07T09:58:14Z</time>
      </trkpt>
      <trkpt lat="47.74147" lon="-2.40912">
        <ele>82.2</ele>
        <time>2021-08-07T09:58:15Z</time>
      </trkpt>
      <trkpt lat="47.74152" lon="-2.40908">
        <ele>82</ele>
        <time>2021-08-07T09:58:16Z</time>
      </trkpt>
      <trkpt lat="47.74157" lon="-2.40904">
        <ele>82</ele>
        <time>2021-08-07T09:58:17Z</time>
      </trkpt>
      <trkpt lat="47.74162" lon="-2.409">
        <ele>81.8</ele>
        <time>2021-08-07T09:58:18Z</time>
      </trkpt>
      <trkpt lat="47.74169" lon="-2.40894">
        <ele>81.8</ele>
        <time>2021-08-07T09:58:19Z</time>
      </trkpt>
      <trkpt lat="47.74177" lon="-2.40889">
        <ele>81.8</ele>
        <time>2021-08-07T09:58:20Z</time>
      </trkpt>
      <trkpt lat="47.74182" lon="-2.40885">
        <ele>81.6</ele>
        <time>2021-08-07T09:58:21Z</time>
      </trkpt>
      <trkpt lat="47.74187" lon="-2.40881">
        <ele>81.4</ele>
        <time>2021-08-07T09:58:22Z</time>
      </trkpt>
      <trkpt lat="47.74192" lon="-2.40878">
        <ele>81.4</ele>
        <time>2021-08-07T09:58:23Z</time>
      </trkpt>
      <trkpt lat="47.74195" lon="-2.40874">
        <ele>81.2</ele>
        <time>2021-08-07T09:58:24Z</time>
      </trkpt>
      <trkpt lat="47.74203" lon="-2.40867">
        <ele>80.8</ele>
        <time>2021-08-07T09:58:25Z</time>
      </trkpt>
      <trkpt lat="47.74209" lon="-2.40863">
        <ele>80.8</ele>
        <time>2021-08-07T09:58:26Z</time>
      </trkpt>
      <trkpt lat="47.74217" lon="-2.40857">
        <ele>80.6</ele>
        <time>2021-08-07T09:58:27Z</time>
      </trkpt>
      <trkpt lat="47.74221" lon="-2.40854">
        <ele>80.6</ele>
        <time>2021-08-07T09:58:28Z</time>
      </trkpt>
      <trkpt lat="47.74225" lon="-2.4085">
        <ele>80.2</ele>
        <time>2021-08-07T09:58:29Z</time>
      </trkpt>
      <trkpt lat="47.7423" lon="-2.40846">
        <ele>80</ele>
        <time>2021-08-07T09:58:30Z</time>
      </trkpt>
      <trkpt lat="47.74234" lon="-2.40842">
        <ele>79.8</ele>
        <time>2021-08-07T09:58:31Z</time>
      </trkpt>
      <trkpt lat="47.74245" lon="-2.40833">
        <ele>79.8</ele>
        <time>2021-08-07T09:58:33Z</time>
      </trkpt>
      <trkpt lat="47.74253" lon="-2.40828">
        <ele>79.8</ele>
        <time>2021-08-07T09:58:34Z</time>
      </trkpt>
      <trkpt lat="47.74262" lon="-2.40823">
        <ele>79.8</ele>
        <time>2021-08-07T09:58:35Z</time>
      </trkpt>
      <trkpt lat="47.74271" lon="-2.40818">
        <ele>79.6</ele>
        <time>2021-08-07T09:58:36Z</time>
      </trkpt>
      <trkpt lat="47.7428" lon="-2.40812">
        <ele>79.6</ele>
        <time>2021-08-07T09:58:37Z</time>
      </trkpt>
      <trkpt lat="47.74287" lon="-2.40807">
        <ele>79.6</ele>
        <time>2021-08-07T09:58:38Z</time>
      </trkpt>
      <trkpt lat="47.74293" lon="-2.40803">
        <ele>79.6</ele>
        <time>2021-08-07T09:58:39Z</time>
      </trkpt>
      <trkpt lat="47.743" lon="-2.40798">
        <ele>79.8</ele>
        <time>2021-08-07T09:58:40Z</time>
      </trkpt>
      <trkpt lat="47.74308" lon="-2.40793">
        <ele>80</ele>
        <time>2021-08-07T09:58:41Z</time>
      </trkpt>
      <trkpt lat="47.74314" lon="-2.4079">
        <ele>80</ele>
        <time>2021-08-07T09:58:42Z</time>
      </trkpt>
      <trkpt lat="47.74321" lon="-2.40786">
        <ele>80.2</ele>
        <time>2021-08-07T09:58:43Z</time>
      </trkpt>
      <trkpt lat="47.74327" lon="-2.40783">
        <ele>80.2</ele>
        <time>2021-08-07T09:58:44Z</time>
      </trkpt>
      <trkpt lat="47.74333" lon="-2.40779">
        <ele>80.2</ele>
        <time>2021-08-07T09:58:45Z</time>
      </trkpt>
      <trkpt lat="47.74338" lon="-2.40775">
        <ele>80.2</ele>
        <time>2021-08-07T09:58:46Z</time>
      </trkpt>
      <trkpt lat="47.74343" lon="-2.40771">
        <ele>80.2</ele>
        <time>2021-08-07T09:58:47Z</time>
      </trkpt>
      <trkpt lat="47.74348" lon="-2.40768">
        <ele>80.4</ele>
        <time>2021-08-07T09:58:48Z</time>
      </trkpt>
      <trkpt lat="47.74353" lon="-2.40765">
        <ele>80.4</ele>
        <time>2021-08-07T09:58:49Z</time>
      </trkpt>
      <trkpt lat="47.74357" lon="-2.40762">
        <ele>80.4</ele>
        <time>2021-08-07T09:58:50Z</time>
      </trkpt>
      <trkpt lat="47.74362" lon="-2.4076">
        <ele>80.4</ele>
        <time>2021-08-07T09:58:51Z</time>
      </trkpt>
      <trkpt lat="47.7437" lon="-2.40754">
        <ele>80.2</ele>
        <time>2021-08-07T09:58:53Z</time>
      </trkpt>
      <trkpt lat="47.74373" lon="-2.40752">
        <ele>80.4</ele>
        <time>2021-08-07T09:58:54Z</time>
      </trkpt>
      <trkpt lat="47.74377" lon="-2.40749">
        <ele>80.4</ele>
        <time>2021-08-07T09:58:55Z</time>
      </trkpt>
      <trkpt lat="47.7438" lon="-2.40747">
        <ele>80.4</ele>
        <time>2021-08-07T09:58:56Z</time>
      </trkpt>
      <trkpt lat="47.74383" lon="-2.40745">
        <ele>80.4</ele>
        <time>2021-08-07T09:58:57Z</time>
      </trkpt>
      <trkpt lat="47.74387" lon="-2.40742">
        <ele>80.4</ele>
        <time>2021-08-07T09:58:58Z</time>
      </trkpt>
      <trkpt lat="47.7439" lon="-2.40739">
        <ele>80.4</ele>
        <time>2021-08-07T09:58:59Z</time>
      </trkpt>
      <trkpt lat="47.74392" lon="-2.40735">
        <ele>80.4</ele>
        <time>2021-08-07T09:59:00Z</time>
      </trkpt>
      <trkpt lat="47.74396" lon="-2.40732">
        <ele>80.4</ele>
        <time>2021-08-07T09:59:01Z</time>
      </trkpt>
      <trkpt lat="47.74401" lon="-2.40729">
        <ele>80.4</ele>
        <time>2021-08-07T09:59:02Z</time>
      </trkpt>
      <trkpt lat="47.74405" lon="-2.40728">
        <ele>80.4</ele>
        <time>2021-08-07T09:59:03Z</time>
      </trkpt>
      <trkpt lat="47.7441" lon="-2.40726">
        <ele>80.4</ele>
        <time>2021-08-07T09:59:04Z</time>
      </trkpt>
      <trkpt lat="47.74414" lon="-2.40724">
        <ele>80.4</ele>
        <time>2021-08-07T09:59:05Z</time>
      </trkpt>
      <trkpt lat="47.74418" lon="-2.40723">
        <ele>80.4</ele>
        <time>2021-08-07T09:59:06Z</time>
      </trkpt>
      <trkpt lat="47.74421" lon="-2.40722">
        <ele>80.4</ele>
        <time>2021-08-07T09:59:07Z</time>
      </trkpt>
      <trkpt lat="47.74424" lon="-2.4072">
        <ele>80.4</ele>
        <time>2021-08-07T09:59:08Z</time>
      </trkpt>
      <trkpt lat="47.74427" lon="-2.40719">
        <ele>80.4</ele>
        <time>2021-08-07T09:59:09Z</time>
      </trkpt>
      <trkpt lat="47.74429" lon="-2.40716">
        <ele>80.4</ele>
        <time>2021-08-07T09:59:10Z</time>
      </trkpt>
      <trkpt lat="47.74432" lon="-2.40714">
        <ele>80.4</ele>
        <time>2021-08-07T09:59:11Z</time>
      </trkpt>
      <trkpt lat="47.74435" lon="-2.40711">
        <ele>80.4</ele>
        <time>2021-08-07T09:59:12Z</time>
      </trkpt>
      <trkpt lat="47.74438" lon="-2.40709">
        <ele>80.6</ele>
        <time>2021-08-07T09:59:13Z</time>
      </trkpt>
      <trkpt lat="47.74442" lon="-2.40707">
        <ele>80.6</ele>
        <time>2021-08-07T09:59:14Z</time>
      </trkpt>
      <trkpt lat="47.74445" lon="-2.40705">
        <ele>80.6</ele>
        <time>2021-08-07T09:59:15Z</time>
      </trkpt>
      <trkpt lat="47.74448" lon="-2.40703">
        <ele>80.6</ele>
        <time>2021-08-07T09:59:16Z</time>
      </trkpt>
      <trkpt lat="47.74451" lon="-2.40702">
        <ele>80.6</ele>
        <time>2021-08-07T09:59:17Z</time>
      </trkpt>
      <trkpt lat="47.74455" lon="-2.40702">
        <ele>80.6</ele>
        <time>2021-08-07T09:59:18Z</time>
      </trkpt>
      <trkpt lat="47.74458" lon="-2.40701">
        <ele>80.6</ele>
        <time>2021-08-07T09:59:19Z</time>
      </trkpt>
      <trkpt lat="47.74461" lon="-2.40698">
        <ele>80.6</ele>
        <time>2021-08-07T09:59:20Z</time>
      </trkpt>
      <trkpt lat="47.74463" lon="-2.40695">
        <ele>80.6</ele>
        <time>2021-08-07T09:59:21Z</time>
      </trkpt>
      <trkpt lat="47.74466" lon="-2.40692">
        <ele>80.6</ele>
        <time>2021-08-07T09:59:22Z</time>
      </trkpt>
      <trkpt lat="47.74469" lon="-2.40689">
        <ele>80.6</ele>
        <time>2021-08-07T09:59:23Z</time>
      </trkpt>
      <trkpt lat="47.74472" lon="-2.40687">
        <ele>80.6</ele>
        <time>2021-08-07T09:59:24Z</time>
      </trkpt>
      <trkpt lat="47.74479" lon="-2.40681">
        <ele>80.6</ele>
        <time>2021-08-07T09:59:26Z</time>
      </trkpt>
      <trkpt lat="47.74482" lon="-2.40679">
        <ele>80.6</ele>
        <time>2021-08-07T09:59:27Z</time>
      </trkpt>
      <trkpt lat="47.74486" lon="-2.40676">
        <ele>80.6</ele>
        <time>2021-08-07T09:59:28Z</time>
      </trkpt>
      <trkpt lat="47.74489" lon="-2.40674">
        <ele>80.6</ele>
        <time>2021-08-07T09:59:29Z</time>
      </trkpt>
      <trkpt lat="47.74493" lon="-2.40671">
        <ele>80.6</ele>
        <time>2021-08-07T09:59:30Z</time>
      </trkpt>
      <trkpt lat="47.74496" lon="-2.40668">
        <ele>80.6</ele>
        <time>2021-08-07T09:59:31Z</time>
      </trkpt>
      <trkpt lat="47.74499" lon="-2.40666">
        <ele>80.6</ele>
        <time>2021-08-07T09:59:32Z</time>
      </trkpt>
      <trkpt lat="47.74503" lon="-2.40664">
        <ele>80.6</ele>
        <time>2021-08-07T09:59:33Z</time>
      </trkpt>
      <trkpt lat="47.74506" lon="-2.40661">
        <ele>80.8</ele>
        <time>2021-08-07T09:59:34Z</time>
      </trkpt>
      <trkpt lat="47.74509" lon="-2.40659">
        <ele>80.8</ele>
        <time>2021-08-07T09:59:35Z</time>
      </trkpt>
      <trkpt lat="47.74516" lon="-2.40654">
        <ele>80.8</ele>
        <time>2021-08-07T09:59:37Z</time>
      </trkpt>
      <trkpt lat="47.7452" lon="-2.40651">
        <ele>80.8</ele>
        <time>2021-08-07T09:59:38Z</time>
      </trkpt>
      <trkpt lat="47.74524" lon="-2.40648">
        <ele>80.8</ele>
        <time>2021-08-07T09:59:39Z</time>
      </trkpt>
      <trkpt lat="47.74528" lon="-2.40645">
        <ele>80.8</ele>
        <time>2021-08-07T09:59:40Z</time>
      </trkpt>
      <trkpt lat="47.74532" lon="-2.40642">
        <ele>80.8</ele>
        <time>2021-08-07T09:59:41Z</time>
      </trkpt>
      <trkpt lat="47.74536" lon="-2.40639">
        <ele>80.8</ele>
        <time>2021-08-07T09:59:42Z</time>
      </trkpt>
      <trkpt lat="47.7454" lon="-2.40636">
        <ele>80.6</ele>
        <time>2021-08-07T09:59:43Z</time>
      </trkpt>
      <trkpt lat="47.74544" lon="-2.40633">
        <ele>80.4</ele>
        <time>2021-08-07T09:59:44Z</time>
      </trkpt>
      <trkpt lat="47.74548" lon="-2.4063">
        <ele>80.2</ele>
        <time>2021-08-07T09:59:45Z</time>
      </trkpt>
      <trkpt lat="47.74552" lon="-2.40627">
        <ele>80.2</ele>
        <time>2021-08-07T09:59:46Z</time>
      </trkpt>
      <trkpt lat="47.74556" lon="-2.40624">
        <ele>80</ele>
        <time>2021-08-07T09:59:47Z</time>
      </trkpt>
      <trkpt lat="47.74561" lon="-2.40621">
        <ele>80</ele>
        <time>2021-08-07T09:59:48Z</time>
      </trkpt>
      <trkpt lat="47.74565" lon="-2.40618">
        <ele>79.8</ele>
        <time>2021-08-07T09:59:49Z</time>
      </trkpt>
      <trkpt lat="47.74569" lon="-2.40614">
        <ele>79.8</ele>
        <time>2021-08-07T09:59:50Z</time>
      </trkpt>
      <trkpt lat="47.74573" lon="-2.40611">
        <ele>79.8</ele>
        <time>2021-08-07T09:59:51Z</time>
      </trkpt>
      <trkpt lat="47.74577" lon="-2.40608">
        <ele>79.6</ele>
        <time>2021-08-07T09:59:52Z</time>
      </trkpt>
      <trkpt lat="47.74581" lon="-2.40605">
        <ele>79.4</ele>
        <time>2021-08-07T09:59:53Z</time>
      </trkpt>
      <trkpt lat="47.74586" lon="-2.40602">
        <ele>79.4</ele>
        <time>2021-08-07T09:59:54Z</time>
      </trkpt>
      <trkpt lat="47.7459" lon="-2.40598">
        <ele>79.2</ele>
        <time>2021-08-07T09:59:55Z</time>
      </trkpt>
      <trkpt lat="47.74594" lon="-2.40595">
        <ele>79.2</ele>
        <time>2021-08-07T09:59:56Z</time>
      </trkpt>
      <trkpt lat="47.74598" lon="-2.40592">
        <ele>79.2</ele>
        <time>2021-08-07T09:59:57Z</time>
      </trkpt>
      <trkpt lat="47.74607" lon="-2.40585">
        <ele>79.2</ele>
        <time>2021-08-07T09:59:59Z</time>
      </trkpt>
      <trkpt lat="47.74612" lon="-2.40582">
        <ele>79.2</ele>
        <time>2021-08-07T10:00:00Z</time>
      </trkpt>
      <trkpt lat="47.74616" lon="-2.40579">
        <ele>79.2</ele>
        <time>2021-08-07T10:00:01Z</time>
      </trkpt>
      <trkpt lat="47.74621" lon="-2.40575">
        <ele>79.2</ele>
        <time>2021-08-07T10:00:02Z</time>
      </trkpt>
      <trkpt lat="47.74626" lon="-2.40572">
        <ele>79.2</ele>
        <time>2021-08-07T10:00:03Z</time>
      </trkpt>
      <trkpt lat="47.7463" lon="-2.40568">
        <ele>79.2</ele>
        <time>2021-08-07T10:00:04Z</time>
      </trkpt>
      <trkpt lat="47.74635" lon="-2.40565">
        <ele>79.2</ele>
        <time>2021-08-07T10:00:05Z</time>
      </trkpt>
      <trkpt lat="47.74639" lon="-2.40561">
        <ele>79.4</ele>
        <time>2021-08-07T10:00:06Z</time>
      </trkpt>
      <trkpt lat="47.74644" lon="-2.40558">
        <ele>79.4</ele>
        <time>2021-08-07T10:00:07Z</time>
      </trkpt>
      <trkpt lat="47.74648" lon="-2.40554">
        <ele>79.4</ele>
        <time>2021-08-07T10:00:08Z</time>
      </trkpt>
      <trkpt lat="47.74657" lon="-2.40547">
        <ele>79.4</ele>
        <time>2021-08-07T10:00:10Z</time>
      </trkpt>
      <trkpt lat="47.74662" lon="-2.40544">
        <ele>79.6</ele>
        <time>2021-08-07T10:00:11Z</time>
      </trkpt>
      <trkpt lat="47.74667" lon="-2.4054">
        <ele>79.6</ele>
        <time>2021-08-07T10:00:12Z</time>
      </trkpt>
      <trkpt lat="47.74672" lon="-2.40537">
        <ele>79.6</ele>
        <time>2021-08-07T10:00:13Z</time>
      </trkpt>
      <trkpt lat="47.74677" lon="-2.40533">
        <ele>79.6</ele>
        <time>2021-08-07T10:00:14Z</time>
      </trkpt>
      <trkpt lat="47.74682" lon="-2.4053">
        <ele>79.4</ele>
        <time>2021-08-07T10:00:15Z</time>
      </trkpt>
      <trkpt lat="47.74687" lon="-2.40526">
        <ele>79.4</ele>
        <time>2021-08-07T10:00:16Z</time>
      </trkpt>
      <trkpt lat="47.74691" lon="-2.40523">
        <ele>79.4</ele>
        <time>2021-08-07T10:00:17Z</time>
      </trkpt>
      <trkpt lat="47.74696" lon="-2.40519">
        <ele>79.4</ele>
        <time>2021-08-07T10:00:18Z</time>
      </trkpt>
      <trkpt lat="47.74701" lon="-2.40515">
        <ele>79.4</ele>
        <time>2021-08-07T10:00:19Z</time>
      </trkpt>
      <trkpt lat="47.74711" lon="-2.40508">
        <ele>79.2</ele>
        <time>2021-08-07T10:00:21Z</time>
      </trkpt>
      <trkpt lat="47.74716" lon="-2.40505">
        <ele>79.2</ele>
        <time>2021-08-07T10:00:22Z</time>
      </trkpt>
      <trkpt lat="47.74721" lon="-2.40501">
        <ele>79.2</ele>
        <time>2021-08-07T10:00:23Z</time>
      </trkpt>
      <trkpt lat="47.74726" lon="-2.40498">
        <ele>79</ele>
        <time>2021-08-07T10:00:24Z</time>
      </trkpt>
      <trkpt lat="47.7473" lon="-2.40495">
        <ele>79</ele>
        <time>2021-08-07T10:00:25Z</time>
      </trkpt>
      <trkpt lat="47.74734" lon="-2.40491">
        <ele>78.8</ele>
        <time>2021-08-07T10:00:26Z</time>
      </trkpt>
      <trkpt lat="47.74738" lon="-2.40487">
        <ele>78.6</ele>
        <time>2021-08-07T10:00:27Z</time>
      </trkpt>
      <trkpt lat="47.74743" lon="-2.40484">
        <ele>78.6</ele>
        <time>2021-08-07T10:00:28Z</time>
      </trkpt>
      <trkpt lat="47.74747" lon="-2.40481">
        <ele>78.4</ele>
        <time>2021-08-07T10:00:29Z</time>
      </trkpt>
      <trkpt lat="47.74751" lon="-2.40478">
        <ele>78.4</ele>
        <time>2021-08-07T10:00:30Z</time>
      </trkpt>
      <trkpt lat="47.74759" lon="-2.40472">
        <ele>78.4</ele>
        <time>2021-08-07T10:00:32Z</time>
      </trkpt>
      <trkpt lat="47.74763" lon="-2.40469">
        <ele>78.4</ele>
        <time>2021-08-07T10:00:33Z</time>
      </trkpt>
      <trkpt lat="47.74768" lon="-2.40466">
        <ele>78.4</ele>
        <time>2021-08-07T10:00:34Z</time>
      </trkpt>
      <trkpt lat="47.74772" lon="-2.40464">
        <ele>78.4</ele>
        <time>2021-08-07T10:00:35Z</time>
      </trkpt>
      <trkpt lat="47.74776" lon="-2.40461">
        <ele>78.4</ele>
        <time>2021-08-07T10:00:36Z</time>
      </trkpt>
      <trkpt lat="47.7478" lon="-2.40458">
        <ele>78.4</ele>
        <time>2021-08-07T10:00:37Z</time>
      </trkpt>
      <trkpt lat="47.74783" lon="-2.40455">
        <ele>78.4</ele>
        <time>2021-08-07T10:00:38Z</time>
      </trkpt>
      <trkpt lat="47.74787" lon="-2.40452">
        <ele>78.4</ele>
        <time>2021-08-07T10:00:39Z</time>
      </trkpt>
      <trkpt lat="47.74791" lon="-2.40449">
        <ele>78.4</ele>
        <time>2021-08-07T10:00:40Z</time>
      </trkpt>
      <trkpt lat="47.74794" lon="-2.40446">
        <ele>78.4</ele>
        <time>2021-08-07T10:00:41Z</time>
      </trkpt>
      <trkpt lat="47.74801" lon="-2.40441">
        <ele>78.4</ele>
        <time>2021-08-07T10:00:43Z</time>
      </trkpt>
      <trkpt lat="47.74805" lon="-2.40438">
        <ele>78.4</ele>
        <time>2021-08-07T10:00:44Z</time>
      </trkpt>
      <trkpt lat="47.74808" lon="-2.40436">
        <ele>78.4</ele>
        <time>2021-08-07T10:00:45Z</time>
      </trkpt>
      <trkpt lat="47.74812" lon="-2.40433">
        <ele>78.4</ele>
        <time>2021-08-07T10:00:46Z</time>
      </trkpt>
      <trkpt lat="47.74815" lon="-2.40431">
        <ele>78.4</ele>
        <time>2021-08-07T10:00:47Z</time>
      </trkpt>
      <trkpt lat="47.74818" lon="-2.40428">
        <ele>78.4</ele>
        <time>2021-08-07T10:00:48Z</time>
      </trkpt>
      <trkpt lat="47.74821" lon="-2.40425">
        <ele>78.2</ele>
        <time>2021-08-07T10:00:49Z</time>
      </trkpt>
      <trkpt lat="47.74825" lon="-2.40422">
        <ele>78.2</ele>
        <time>2021-08-07T10:00:50Z</time>
      </trkpt>
      <trkpt lat="47.74828" lon="-2.4042">
        <ele>78.2</ele>
        <time>2021-08-07T10:00:51Z</time>
      </trkpt>
      <trkpt lat="47.74831" lon="-2.40417">
        <ele>78.2</ele>
        <time>2021-08-07T10:00:52Z</time>
      </trkpt>
      <trkpt lat="47.74838" lon="-2.40413">
        <ele>78.2</ele>
        <time>2021-08-07T10:00:54Z</time>
      </trkpt>
      <trkpt lat="47.74841" lon="-2.4041">
        <ele>78.4</ele>
        <time>2021-08-07T10:00:55Z</time>
      </trkpt>
      <trkpt lat="47.74844" lon="-2.40408">
        <ele>78.4</ele>
        <time>2021-08-07T10:00:56Z</time>
      </trkpt>
      <trkpt lat="47.74847" lon="-2.40406">
        <ele>78.6</ele>
        <time>2021-08-07T10:00:57Z</time>
      </trkpt>
      <trkpt lat="47.74851" lon="-2.40404">
        <ele>78.6</ele>
        <time>2021-08-07T10:00:58Z</time>
      </trkpt>
      <trkpt lat="47.74854" lon="-2.40402">
        <ele>78.6</ele>
        <time>2021-08-07T10:00:59Z</time>
      </trkpt>
      <trkpt lat="47.74857" lon="-2.40399">
        <ele>78.6</ele>
        <time>2021-08-07T10:01:00Z</time>
      </trkpt>
      <trkpt lat="47.7486" lon="-2.40397">
        <ele>78.6</ele>
        <time>2021-08-07T10:01:01Z</time>
      </trkpt>
      <trkpt lat="47.74863" lon="-2.40395">
        <ele>78.8</ele>
        <time>2021-08-07T10:01:02Z</time>
      </trkpt>
      <trkpt lat="47.74866" lon="-2.40393">
        <ele>78.8</ele>
        <time>2021-08-07T10:01:03Z</time>
      </trkpt>
      <trkpt lat="47.74869" lon="-2.4039">
        <ele>78.8</ele>
        <time>2021-08-07T10:01:04Z</time>
      </trkpt>
      <trkpt lat="47.74872" lon="-2.40388">
        <ele>78.8</ele>
        <time>2021-08-07T10:01:05Z</time>
      </trkpt>
      <trkpt lat="47.74875" lon="-2.40386">
        <ele>78.8</ele>
        <time>2021-08-07T10:01:06Z</time>
      </trkpt>
      <trkpt lat="47.74878" lon="-2.40383">
        <ele>78.8</ele>
        <time>2021-08-07T10:01:07Z</time>
      </trkpt>
      <trkpt lat="47.74882" lon="-2.4038">
        <ele>78.8</ele>
        <time>2021-08-07T10:01:08Z</time>
      </trkpt>
      <trkpt lat="47.74886" lon="-2.40378">
        <ele>78.8</ele>
        <time>2021-08-07T10:01:09Z</time>
      </trkpt>
      <trkpt lat="47.74889" lon="-2.40374">
        <ele>78.8</ele>
        <time>2021-08-07T10:01:10Z</time>
      </trkpt>
      <trkpt lat="47.74893" lon="-2.40371">
        <ele>78.8</ele>
        <time>2021-08-07T10:01:11Z</time>
      </trkpt>
      <trkpt lat="47.74897" lon="-2.40368">
        <ele>78.6</ele>
        <time>2021-08-07T10:01:12Z</time>
      </trkpt>
      <trkpt lat="47.74901" lon="-2.40365">
        <ele>78.6</ele>
        <time>2021-08-07T10:01:13Z</time>
      </trkpt>
      <trkpt lat="47.74906" lon="-2.40362">
        <ele>78.6</ele>
        <time>2021-08-07T10:01:14Z</time>
      </trkpt>
      <trkpt lat="47.74914" lon="-2.40355">
        <ele>78.4</ele>
        <time>2021-08-07T10:01:16Z</time>
      </trkpt>
      <trkpt lat="47.74918" lon="-2.40352">
        <ele>78.2</ele>
        <time>2021-08-07T10:01:17Z</time>
      </trkpt>
      <trkpt lat="47.74922" lon="-2.40349">
        <ele>78</ele>
        <time>2021-08-07T10:01:18Z</time>
      </trkpt>
      <trkpt lat="47.74925" lon="-2.40346">
        <ele>77.8</ele>
        <time>2021-08-07T10:01:19Z</time>
      </trkpt>
      <trkpt lat="47.74928" lon="-2.40343">
        <ele>77.6</ele>
        <time>2021-08-07T10:01:20Z</time>
      </trkpt>
      <trkpt lat="47.74932" lon="-2.4034">
        <ele>77.4</ele>
        <time>2021-08-07T10:01:21Z</time>
      </trkpt>
      <trkpt lat="47.74934" lon="-2.40337">
        <ele>77.4</ele>
        <time>2021-08-07T10:01:22Z</time>
      </trkpt>
      <trkpt lat="47.74938" lon="-2.40334">
        <ele>77.4</ele>
        <time>2021-08-07T10:01:23Z</time>
      </trkpt>
      <trkpt lat="47.74942" lon="-2.40331">
        <ele>77.2</ele>
        <time>2021-08-07T10:01:24Z</time>
      </trkpt>
      <trkpt lat="47.74946" lon="-2.40328">
        <ele>77.2</ele>
        <time>2021-08-07T10:01:25Z</time>
      </trkpt>
      <trkpt lat="47.74955" lon="-2.40321">
        <ele>77.2</ele>
        <time>2021-08-07T10:01:27Z</time>
      </trkpt>
      <trkpt lat="47.7496" lon="-2.40318">
        <ele>77.2</ele>
        <time>2021-08-07T10:01:28Z</time>
      </trkpt>
      <trkpt lat="47.74964" lon="-2.40315">
        <ele>77</ele>
        <time>2021-08-07T10:01:29Z</time>
      </trkpt>
      <trkpt lat="47.74969" lon="-2.40312">
        <ele>77</ele>
        <time>2021-08-07T10:01:30Z</time>
      </trkpt>
      <trkpt lat="47.74974" lon="-2.40308">
        <ele>76.8</ele>
        <time>2021-08-07T10:01:31Z</time>
      </trkpt>
      <trkpt lat="47.74978" lon="-2.40304">
        <ele>76.8</ele>
        <time>2021-08-07T10:01:32Z</time>
      </trkpt>
      <trkpt lat="47.74982" lon="-2.40301">
        <ele>76.8</ele>
        <time>2021-08-07T10:01:33Z</time>
      </trkpt>
      <trkpt lat="47.74986" lon="-2.40297">
        <ele>76.6</ele>
        <time>2021-08-07T10:01:34Z</time>
      </trkpt>
      <trkpt lat="47.7499" lon="-2.40294">
        <ele>76.6</ele>
        <time>2021-08-07T10:01:35Z</time>
      </trkpt>
      <trkpt lat="47.74994" lon="-2.40291">
        <ele>76.4</ele>
        <time>2021-08-07T10:01:36Z</time>
      </trkpt>
      <trkpt lat="47.75005" lon="-2.40283">
        <ele>76.4</ele>
        <time>2021-08-07T10:01:38Z</time>
      </trkpt>
      <trkpt lat="47.75009" lon="-2.40279">
        <ele>76.4</ele>
        <time>2021-08-07T10:01:39Z</time>
      </trkpt>
      <trkpt lat="47.75014" lon="-2.40275">
        <ele>76.2</ele>
        <time>2021-08-07T10:01:40Z</time>
      </trkpt>
      <trkpt lat="47.75019" lon="-2.40271">
        <ele>76.2</ele>
        <time>2021-08-07T10:01:41Z</time>
      </trkpt>
      <trkpt lat="47.75024" lon="-2.40267">
        <ele>76.2</ele>
        <time>2021-08-07T10:01:42Z</time>
      </trkpt>
      <trkpt lat="47.7503" lon="-2.40264">
        <ele>76</ele>
        <time>2021-08-07T10:01:43Z</time>
      </trkpt>
      <trkpt lat="47.75035" lon="-2.4026">
        <ele>76</ele>
        <time>2021-08-07T10:01:44Z</time>
      </trkpt>
      <trkpt lat="47.7504" lon="-2.40256">
        <ele>75.8</ele>
        <time>2021-08-07T10:01:45Z</time>
      </trkpt>
      <trkpt lat="47.75045" lon="-2.40253">
        <ele>75.8</ele>
        <time>2021-08-07T10:01:46Z</time>
      </trkpt>
      <trkpt lat="47.75055" lon="-2.40245">
        <ele>75.6</ele>
        <time>2021-08-07T10:01:48Z</time>
      </trkpt>
      <trkpt lat="47.7506" lon="-2.40242">
        <ele>75.6</ele>
        <time>2021-08-07T10:01:49Z</time>
      </trkpt>
      <trkpt lat="47.75065" lon="-2.40238">
        <ele>75.4</ele>
        <time>2021-08-07T10:01:50Z</time>
      </trkpt>
      <trkpt lat="47.7507" lon="-2.40234">
        <ele>75.2</ele>
        <time>2021-08-07T10:01:51Z</time>
      </trkpt>
      <trkpt lat="47.75074" lon="-2.4023">
        <ele>75</ele>
        <time>2021-08-07T10:01:52Z</time>
      </trkpt>
      <trkpt lat="47.75079" lon="-2.40227">
        <ele>74.6</ele>
        <time>2021-08-07T10:01:53Z</time>
      </trkpt>
      <trkpt lat="47.75084" lon="-2.40223">
        <ele>74.4</ele>
        <time>2021-08-07T10:01:54Z</time>
      </trkpt>
      <trkpt lat="47.75089" lon="-2.4022">
        <ele>74.2</ele>
        <time>2021-08-07T10:01:55Z</time>
      </trkpt>
      <trkpt lat="47.75094" lon="-2.40217">
        <ele>74</ele>
        <time>2021-08-07T10:01:56Z</time>
      </trkpt>
      <trkpt lat="47.75099" lon="-2.40213">
        <ele>74</ele>
        <time>2021-08-07T10:01:57Z</time>
      </trkpt>
      <trkpt lat="47.75104" lon="-2.40209">
        <ele>74</ele>
        <time>2021-08-07T10:01:58Z</time>
      </trkpt>
      <trkpt lat="47.75109" lon="-2.40206">
        <ele>73.8</ele>
        <time>2021-08-07T10:01:59Z</time>
      </trkpt>
      <trkpt lat="47.75114" lon="-2.40203">
        <ele>73.8</ele>
        <time>2021-08-07T10:02:00Z</time>
      </trkpt>
      <trkpt lat="47.7512" lon="-2.402">
        <ele>73.8</ele>
        <time>2021-08-07T10:02:01Z</time>
      </trkpt>
      <trkpt lat="47.75125" lon="-2.40196">
        <ele>73.6</ele>
        <time>2021-08-07T10:02:02Z</time>
      </trkpt>
      <trkpt lat="47.7513" lon="-2.40193">
        <ele>73.6</ele>
        <time>2021-08-07T10:02:03Z</time>
      </trkpt>
      <trkpt lat="47.75135" lon="-2.4019">
        <ele>73.6</ele>
        <time>2021-08-07T10:02:04Z</time>
      </trkpt>
      <trkpt lat="47.75141" lon="-2.40187">
        <ele>73.6</ele>
        <time>2021-08-07T10:02:05Z</time>
      </trkpt>
      <trkpt lat="47.75145" lon="-2.40184">
        <ele>73.6</ele>
        <time>2021-08-07T10:02:06Z</time>
      </trkpt>
      <trkpt lat="47.7515" lon="-2.4018">
        <ele>73.6</ele>
        <time>2021-08-07T10:02:07Z</time>
      </trkpt>
      <trkpt lat="47.75154" lon="-2.40177">
        <ele>73.6</ele>
        <time>2021-08-07T10:02:08Z</time>
      </trkpt>
      <trkpt lat="47.75158" lon="-2.40173">
        <ele>73.6</ele>
        <time>2021-08-07T10:02:09Z</time>
      </trkpt>
      <trkpt lat="47.75163" lon="-2.4017">
        <ele>73.6</ele>
        <time>2021-08-07T10:02:10Z</time>
      </trkpt>
      <trkpt lat="47.75168" lon="-2.40167">
        <ele>73.6</ele>
        <time>2021-08-07T10:02:11Z</time>
      </trkpt>
      <trkpt lat="47.75173" lon="-2.40164">
        <ele>73.4</ele>
        <time>2021-08-07T10:02:12Z</time>
      </trkpt>
      <trkpt lat="47.75178" lon="-2.40162">
        <ele>73.4</ele>
        <time>2021-08-07T10:02:13Z</time>
      </trkpt>
      <trkpt lat="47.75183" lon="-2.40159">
        <ele>73.4</ele>
        <time>2021-08-07T10:02:14Z</time>
      </trkpt>
      <trkpt lat="47.75188" lon="-2.40157">
        <ele>73.4</ele>
        <time>2021-08-07T10:02:15Z</time>
      </trkpt>
      <trkpt lat="47.75194" lon="-2.40155">
        <ele>73.2</ele>
        <time>2021-08-07T10:02:16Z</time>
      </trkpt>
      <trkpt lat="47.75205" lon="-2.40149">
        <ele>73</ele>
        <time>2021-08-07T10:02:18Z</time>
      </trkpt>
      <trkpt lat="47.75211" lon="-2.40147">
        <ele>72.8</ele>
        <time>2021-08-07T10:02:19Z</time>
      </trkpt>
      <trkpt lat="47.75217" lon="-2.40144">
        <ele>72.4</ele>
        <time>2021-08-07T10:02:20Z</time>
      </trkpt>
      <trkpt lat="47.75223" lon="-2.40142">
        <ele>72.2</ele>
        <time>2021-08-07T10:02:21Z</time>
      </trkpt>
      <trkpt lat="47.75228" lon="-2.4014">
        <ele>72</ele>
        <time>2021-08-07T10:02:22Z</time>
      </trkpt>
      <trkpt lat="47.75233" lon="-2.40138">
        <ele>71.8</ele>
        <time>2021-08-07T10:02:23Z</time>
      </trkpt>
      <trkpt lat="47.75238" lon="-2.40136">
        <ele>71.6</ele>
        <time>2021-08-07T10:02:24Z</time>
      </trkpt>
      <trkpt lat="47.75243" lon="-2.40134">
        <ele>71.4</ele>
        <time>2021-08-07T10:02:25Z</time>
      </trkpt>
      <trkpt lat="47.75248" lon="-2.40132">
        <ele>71.2</ele>
        <time>2021-08-07T10:02:26Z</time>
      </trkpt>
      <trkpt lat="47.75252" lon="-2.40129">
        <ele>71</ele>
        <time>2021-08-07T10:02:27Z</time>
      </trkpt>
      <trkpt lat="47.75256" lon="-2.40127">
        <ele>70.6</ele>
        <time>2021-08-07T10:02:28Z</time>
      </trkpt>
      <trkpt lat="47.7526" lon="-2.40125">
        <ele>70.4</ele>
        <time>2021-08-07T10:02:29Z</time>
      </trkpt>
      <trkpt lat="47.75264" lon="-2.40123">
        <ele>70</ele>
        <time>2021-08-07T10:02:30Z</time>
      </trkpt>
      <trkpt lat="47.75268" lon="-2.40121">
        <ele>69.8</ele>
        <time>2021-08-07T10:02:31Z</time>
      </trkpt>
      <trkpt lat="47.75273" lon="-2.40119">
        <ele>69.6</ele>
        <time>2021-08-07T10:02:32Z</time>
      </trkpt>
      <trkpt lat="47.75278" lon="-2.40118">
        <ele>69.2</ele>
        <time>2021-08-07T10:02:33Z</time>
      </trkpt>
      <trkpt lat="47.75284" lon="-2.40117">
        <ele>69</ele>
        <time>2021-08-07T10:02:34Z</time>
      </trkpt>
      <trkpt lat="47.75289" lon="-2.40115">
        <ele>68.8</ele>
        <time>2021-08-07T10:02:35Z</time>
      </trkpt>
      <trkpt lat="47.75294" lon="-2.40114">
        <ele>68.4</ele>
        <time>2021-08-07T10:02:36Z</time>
      </trkpt>
      <trkpt lat="47.75299" lon="-2.40112">
        <ele>68.4</ele>
        <time>2021-08-07T10:02:37Z</time>
      </trkpt>
      <trkpt lat="47.75305" lon="-2.40111">
        <ele>68.2</ele>
        <time>2021-08-07T10:02:38Z</time>
      </trkpt>
      <trkpt lat="47.75311" lon="-2.4011">
        <ele>68.2</ele>
        <time>2021-08-07T10:02:39Z</time>
      </trkpt>
      <trkpt lat="47.75316" lon="-2.40109">
        <ele>68.2</ele>
        <time>2021-08-07T10:02:40Z</time>
      </trkpt>
      <trkpt lat="47.75322" lon="-2.40108">
        <ele>68</ele>
        <time>2021-08-07T10:02:41Z</time>
      </trkpt>
      <trkpt lat="47.75327" lon="-2.40106">
        <ele>68</ele>
        <time>2021-08-07T10:02:42Z</time>
      </trkpt>
      <trkpt lat="47.75332" lon="-2.40104">
        <ele>68</ele>
        <time>2021-08-07T10:02:43Z</time>
      </trkpt>
      <trkpt lat="47.75336" lon="-2.40103">
        <ele>68</ele>
        <time>2021-08-07T10:02:44Z</time>
      </trkpt>
      <trkpt lat="47.75342" lon="-2.40101">
        <ele>67.8</ele>
        <time>2021-08-07T10:02:45Z</time>
      </trkpt>
      <trkpt lat="47.75347" lon="-2.40099">
        <ele>67.6</ele>
        <time>2021-08-07T10:02:46Z</time>
      </trkpt>
      <trkpt lat="47.75353" lon="-2.40098">
        <ele>67.6</ele>
        <time>2021-08-07T10:02:47Z</time>
      </trkpt>
      <trkpt lat="47.75357" lon="-2.40097">
        <ele>67.6</ele>
        <time>2021-08-07T10:02:48Z</time>
      </trkpt>
      <trkpt lat="47.75362" lon="-2.40097">
        <ele>67.6</ele>
        <time>2021-08-07T10:02:49Z</time>
      </trkpt>
      <trkpt lat="47.75366" lon="-2.40096">
        <ele>67.6</ele>
        <time>2021-08-07T10:02:50Z</time>
      </trkpt>
      <trkpt lat="47.7537" lon="-2.40096">
        <ele>67.6</ele>
        <time>2021-08-07T10:02:51Z</time>
      </trkpt>
      <trkpt lat="47.75375" lon="-2.40095">
        <ele>67.4</ele>
        <time>2021-08-07T10:02:52Z</time>
      </trkpt>
      <trkpt lat="47.7538" lon="-2.40095">
        <ele>67.4</ele>
        <time>2021-08-07T10:02:53Z</time>
      </trkpt>
      <trkpt lat="47.75386" lon="-2.40095">
        <ele>67.4</ele>
        <time>2021-08-07T10:02:54Z</time>
      </trkpt>
      <trkpt lat="47.75392" lon="-2.40095">
        <ele>67.2</ele>
        <time>2021-08-07T10:02:55Z</time>
      </trkpt>
      <trkpt lat="47.75398" lon="-2.40095">
        <ele>67</ele>
        <time>2021-08-07T10:02:56Z</time>
      </trkpt>
      <trkpt lat="47.75411" lon="-2.40095">
        <ele>66.8</ele>
        <time>2021-08-07T10:02:58Z</time>
      </trkpt>
      <trkpt lat="47.75417" lon="-2.40095">
        <ele>66.8</ele>
        <time>2021-08-07T10:02:59Z</time>
      </trkpt>
      <trkpt lat="47.75423" lon="-2.40095">
        <ele>66.6</ele>
        <time>2021-08-07T10:03:00Z</time>
      </trkpt>
      <trkpt lat="47.75428" lon="-2.40095">
        <ele>66.4</ele>
        <time>2021-08-07T10:03:01Z</time>
      </trkpt>
      <trkpt lat="47.75433" lon="-2.40094">
        <ele>65.8</ele>
        <time>2021-08-07T10:03:02Z</time>
      </trkpt>
      <trkpt lat="47.75439" lon="-2.40094">
        <ele>65.8</ele>
        <time>2021-08-07T10:03:03Z</time>
      </trkpt>
      <trkpt lat="47.75445" lon="-2.40094">
        <ele>65.6</ele>
        <time>2021-08-07T10:03:04Z</time>
      </trkpt>
      <trkpt lat="47.75451" lon="-2.40094">
        <ele>65.6</ele>
        <time>2021-08-07T10:03:05Z</time>
      </trkpt>
      <trkpt lat="47.75457" lon="-2.40093">
        <ele>65.6</ele>
        <time>2021-08-07T10:03:06Z</time>
      </trkpt>
      <trkpt lat="47.75463" lon="-2.40092">
        <ele>65.6</ele>
        <time>2021-08-07T10:03:07Z</time>
      </trkpt>
      <trkpt lat="47.75476" lon="-2.40091">
        <ele>65.4</ele>
        <time>2021-08-07T10:03:09Z</time>
      </trkpt>
      <trkpt lat="47.75481" lon="-2.40091">
        <ele>65.4</ele>
        <time>2021-08-07T10:03:10Z</time>
      </trkpt>
      <trkpt lat="47.75487" lon="-2.40091">
        <ele>65.4</ele>
        <time>2021-08-07T10:03:11Z</time>
      </trkpt>
      <trkpt lat="47.75495" lon="-2.40092">
        <ele>65.4</ele>
        <time>2021-08-07T10:03:12Z</time>
      </trkpt>
      <trkpt lat="47.75501" lon="-2.40092">
        <ele>65.4</ele>
        <time>2021-08-07T10:03:13Z</time>
      </trkpt>
      <trkpt lat="47.75508" lon="-2.40091">
        <ele>65.2</ele>
        <time>2021-08-07T10:03:14Z</time>
      </trkpt>
      <trkpt lat="47.75514" lon="-2.40091">
        <ele>65.2</ele>
        <time>2021-08-07T10:03:15Z</time>
      </trkpt>
      <trkpt lat="47.75521" lon="-2.4009">
        <ele>65.2</ele>
        <time>2021-08-07T10:03:16Z</time>
      </trkpt>
      <trkpt lat="47.75528" lon="-2.40091">
        <ele>65.2</ele>
        <time>2021-08-07T10:03:17Z</time>
      </trkpt>
      <trkpt lat="47.75535" lon="-2.4009">
        <ele>65.2</ele>
        <time>2021-08-07T10:03:18Z</time>
      </trkpt>
      <trkpt lat="47.75548" lon="-2.4009">
        <ele>65.2</ele>
        <time>2021-08-07T10:03:20Z</time>
      </trkpt>
      <trkpt lat="47.75555" lon="-2.4009">
        <ele>65</ele>
        <time>2021-08-07T10:03:21Z</time>
      </trkpt>
      <trkpt lat="47.75561" lon="-2.4009">
        <ele>64.6</ele>
        <time>2021-08-07T10:03:22Z</time>
      </trkpt>
      <trkpt lat="47.75567" lon="-2.4009">
        <ele>64.4</ele>
        <time>2021-08-07T10:03:23Z</time>
      </trkpt>
      <trkpt lat="47.75573" lon="-2.40089">
        <ele>64</ele>
        <time>2021-08-07T10:03:24Z</time>
      </trkpt>
      <trkpt lat="47.75579" lon="-2.40089">
        <ele>63.8</ele>
        <time>2021-08-07T10:03:25Z</time>
      </trkpt>
      <trkpt lat="47.75585" lon="-2.40089">
        <ele>63.8</ele>
        <time>2021-08-07T10:03:26Z</time>
      </trkpt>
      <trkpt lat="47.75591" lon="-2.40088">
        <ele>63.6</ele>
        <time>2021-08-07T10:03:27Z</time>
      </trkpt>
      <trkpt lat="47.75597" lon="-2.40087">
        <ele>63.6</ele>
        <time>2021-08-07T10:03:28Z</time>
      </trkpt>
      <trkpt lat="47.75603" lon="-2.40087">
        <ele>63.6</ele>
        <time>2021-08-07T10:03:29Z</time>
      </trkpt>
      <trkpt lat="47.75608" lon="-2.40086">
        <ele>63.6</ele>
        <time>2021-08-07T10:03:30Z</time>
      </trkpt>
      <trkpt lat="47.75613" lon="-2.40085">
        <ele>63.6</ele>
        <time>2021-08-07T10:03:31Z</time>
      </trkpt>
      <trkpt lat="47.75619" lon="-2.40085">
        <ele>63.6</ele>
        <time>2021-08-07T10:03:32Z</time>
      </trkpt>
      <trkpt lat="47.75624" lon="-2.40085">
        <ele>63.6</ele>
        <time>2021-08-07T10:03:33Z</time>
      </trkpt>
      <trkpt lat="47.75629" lon="-2.40084">
        <ele>63.6</ele>
        <time>2021-08-07T10:03:34Z</time>
      </trkpt>
      <trkpt lat="47.75635" lon="-2.40084">
        <ele>63.4</ele>
        <time>2021-08-07T10:03:35Z</time>
      </trkpt>
      <trkpt lat="47.7564" lon="-2.40082">
        <ele>63.4</ele>
        <time>2021-08-07T10:03:36Z</time>
      </trkpt>
      <trkpt lat="47.75646" lon="-2.40081">
        <ele>63.4</ele>
        <time>2021-08-07T10:03:37Z</time>
      </trkpt>
      <trkpt lat="47.75652" lon="-2.4008">
        <ele>63.4</ele>
        <time>2021-08-07T10:03:38Z</time>
      </trkpt>
      <trkpt lat="47.75659" lon="-2.40079">
        <ele>63.4</ele>
        <time>2021-08-07T10:03:39Z</time>
      </trkpt>
      <trkpt lat="47.75665" lon="-2.40079">
        <ele>63.2</ele>
        <time>2021-08-07T10:03:40Z</time>
      </trkpt>
      <trkpt lat="47.75677" lon="-2.40078">
        <ele>63</ele>
        <time>2021-08-07T10:03:42Z</time>
      </trkpt>
      <trkpt lat="47.75682" lon="-2.40077">
        <ele>62.8</ele>
        <time>2021-08-07T10:03:43Z</time>
      </trkpt>
      <trkpt lat="47.75688" lon="-2.40075">
        <ele>62.8</ele>
        <time>2021-08-07T10:03:44Z</time>
      </trkpt>
      <trkpt lat="47.75694" lon="-2.40074">
        <ele>62.6</ele>
        <time>2021-08-07T10:03:45Z</time>
      </trkpt>
      <trkpt lat="47.75699" lon="-2.40072">
        <ele>62.4</ele>
        <time>2021-08-07T10:03:46Z</time>
      </trkpt>
      <trkpt lat="47.75704" lon="-2.40071">
        <ele>62.4</ele>
        <time>2021-08-07T10:03:47Z</time>
      </trkpt>
      <trkpt lat="47.75709" lon="-2.4007">
        <ele>62.4</ele>
        <time>2021-08-07T10:03:48Z</time>
      </trkpt>
      <trkpt lat="47.75715" lon="-2.40068">
        <ele>62.4</ele>
        <time>2021-08-07T10:03:49Z</time>
      </trkpt>
      <trkpt lat="47.75721" lon="-2.40066">
        <ele>62.4</ele>
        <time>2021-08-07T10:03:50Z</time>
      </trkpt>
      <trkpt lat="47.75727" lon="-2.40065">
        <ele>62.2</ele>
        <time>2021-08-07T10:03:51Z</time>
      </trkpt>
      <trkpt lat="47.75741" lon="-2.40062">
        <ele>62.2</ele>
        <time>2021-08-07T10:03:53Z</time>
      </trkpt>
      <trkpt lat="47.75747" lon="-2.4006">
        <ele>62.2</ele>
        <time>2021-08-07T10:03:54Z</time>
      </trkpt>
      <trkpt lat="47.75754" lon="-2.40058">
        <ele>62.2</ele>
        <time>2021-08-07T10:03:55Z</time>
      </trkpt>
      <trkpt lat="47.75759" lon="-2.40056">
        <ele>62.2</ele>
        <time>2021-08-07T10:03:56Z</time>
      </trkpt>
      <trkpt lat="47.75765" lon="-2.40054">
        <ele>62.2</ele>
        <time>2021-08-07T10:03:57Z</time>
      </trkpt>
      <trkpt lat="47.75772" lon="-2.40053">
        <ele>62.2</ele>
        <time>2021-08-07T10:03:58Z</time>
      </trkpt>
      <trkpt lat="47.75778" lon="-2.40051">
        <ele>62.4</ele>
        <time>2021-08-07T10:03:59Z</time>
      </trkpt>
      <trkpt lat="47.75783" lon="-2.40049">
        <ele>62.6</ele>
        <time>2021-08-07T10:04:00Z</time>
      </trkpt>
      <trkpt lat="47.75789" lon="-2.40047">
        <ele>62.6</ele>
        <time>2021-08-07T10:04:01Z</time>
      </trkpt>
      <trkpt lat="47.75795" lon="-2.40045">
        <ele>62.6</ele>
        <time>2021-08-07T10:04:02Z</time>
      </trkpt>
      <trkpt lat="47.75807" lon="-2.4004">
        <ele>62.6</ele>
        <time>2021-08-07T10:04:04Z</time>
      </trkpt>
      <trkpt lat="47.75813" lon="-2.40038">
        <ele>62.6</ele>
        <time>2021-08-07T10:04:05Z</time>
      </trkpt>
      <trkpt lat="47.75819" lon="-2.40036">
        <ele>62.6</ele>
        <time>2021-08-07T10:04:06Z</time>
      </trkpt>
      <trkpt lat="47.75824" lon="-2.40034">
        <ele>62.6</ele>
        <time>2021-08-07T10:04:07Z</time>
      </trkpt>
      <trkpt lat="47.7583" lon="-2.40032">
        <ele>62.6</ele>
        <time>2021-08-07T10:04:08Z</time>
      </trkpt>
      <trkpt lat="47.75835" lon="-2.4003">
        <ele>62.6</ele>
        <time>2021-08-07T10:04:09Z</time>
      </trkpt>
      <trkpt lat="47.75841" lon="-2.40028">
        <ele>62.6</ele>
        <time>2021-08-07T10:04:10Z</time>
      </trkpt>
      <trkpt lat="47.75847" lon="-2.40026">
        <ele>62.6</ele>
        <time>2021-08-07T10:04:11Z</time>
      </trkpt>
      <trkpt lat="47.75852" lon="-2.40025">
        <ele>62.6</ele>
        <time>2021-08-07T10:04:12Z</time>
      </trkpt>
      <trkpt lat="47.75858" lon="-2.40023">
        <ele>62.6</ele>
        <time>2021-08-07T10:04:13Z</time>
      </trkpt>
      <trkpt lat="47.75869" lon="-2.40018">
        <ele>62.8</ele>
        <time>2021-08-07T10:04:15Z</time>
      </trkpt>
      <trkpt lat="47.75874" lon="-2.40015">
        <ele>62.8</ele>
        <time>2021-08-07T10:04:16Z</time>
      </trkpt>
      <trkpt lat="47.75879" lon="-2.40012">
        <ele>62.8</ele>
        <time>2021-08-07T10:04:17Z</time>
      </trkpt>
      <trkpt lat="47.75884" lon="-2.4001">
        <ele>62.8</ele>
        <time>2021-08-07T10:04:18Z</time>
      </trkpt>
      <trkpt lat="47.75889" lon="-2.40008">
        <ele>63</ele>
        <time>2021-08-07T10:04:19Z</time>
      </trkpt>
      <trkpt lat="47.75894" lon="-2.40005">
        <ele>63</ele>
        <time>2021-08-07T10:04:20Z</time>
      </trkpt>
      <trkpt lat="47.75899" lon="-2.40003">
        <ele>63</ele>
        <time>2021-08-07T10:04:21Z</time>
      </trkpt>
      <trkpt lat="47.75904" lon="-2.40001">
        <ele>63</ele>
        <time>2021-08-07T10:04:22Z</time>
      </trkpt>
      <trkpt lat="47.75909" lon="-2.39999">
        <ele>63</ele>
        <time>2021-08-07T10:04:23Z</time>
      </trkpt>
      <trkpt lat="47.75914" lon="-2.39996">
        <ele>63</ele>
        <time>2021-08-07T10:04:24Z</time>
      </trkpt>
      <trkpt lat="47.75923" lon="-2.3999">
        <ele>63</ele>
        <time>2021-08-07T10:04:26Z</time>
      </trkpt>
      <trkpt lat="47.75928" lon="-2.39987">
        <ele>63</ele>
        <time>2021-08-07T10:04:27Z</time>
      </trkpt>
      <trkpt lat="47.75932" lon="-2.39984">
        <ele>63</ele>
        <time>2021-08-07T10:04:28Z</time>
      </trkpt>
      <trkpt lat="47.75937" lon="-2.3998">
        <ele>63</ele>
        <time>2021-08-07T10:04:29Z</time>
      </trkpt>
      <trkpt lat="47.75942" lon="-2.39977">
        <ele>63</ele>
        <time>2021-08-07T10:04:30Z</time>
      </trkpt>
      <trkpt lat="47.75947" lon="-2.39973">
        <ele>63</ele>
        <time>2021-08-07T10:04:31Z</time>
      </trkpt>
      <trkpt lat="47.75951" lon="-2.39969">
        <ele>63</ele>
        <time>2021-08-07T10:04:32Z</time>
      </trkpt>
      <trkpt lat="47.75956" lon="-2.39965">
        <ele>62.8</ele>
        <time>2021-08-07T10:04:33Z</time>
      </trkpt>
      <trkpt lat="47.7596" lon="-2.39962">
        <ele>62.8</ele>
        <time>2021-08-07T10:04:34Z</time>
      </trkpt>
      <trkpt lat="47.75965" lon="-2.39959">
        <ele>62.8</ele>
        <time>2021-08-07T10:04:35Z</time>
      </trkpt>
      <trkpt lat="47.7597" lon="-2.39956">
        <ele>62.8</ele>
        <time>2021-08-07T10:04:36Z</time>
      </trkpt>
      <trkpt lat="47.75975" lon="-2.39954">
        <ele>62.8</ele>
        <time>2021-08-07T10:04:37Z</time>
      </trkpt>
      <trkpt lat="47.75979" lon="-2.39951">
        <ele>62.8</ele>
        <time>2021-08-07T10:04:38Z</time>
      </trkpt>
      <trkpt lat="47.75984" lon="-2.39948">
        <ele>62.8</ele>
        <time>2021-08-07T10:04:39Z</time>
      </trkpt>
      <trkpt lat="47.75988" lon="-2.39946">
        <ele>62.8</ele>
        <time>2021-08-07T10:04:40Z</time>
      </trkpt>
      <trkpt lat="47.75993" lon="-2.39944">
        <ele>62.8</ele>
        <time>2021-08-07T10:04:41Z</time>
      </trkpt>
      <trkpt lat="47.75997" lon="-2.39941">
        <ele>62.8</ele>
        <time>2021-08-07T10:04:42Z</time>
      </trkpt>
      <trkpt lat="47.76002" lon="-2.39939">
        <ele>62.8</ele>
        <time>2021-08-07T10:04:43Z</time>
      </trkpt>
      <trkpt lat="47.76007" lon="-2.39937">
        <ele>63</ele>
        <time>2021-08-07T10:04:44Z</time>
      </trkpt>
      <trkpt lat="47.76011" lon="-2.39935">
        <ele>63</ele>
        <time>2021-08-07T10:04:45Z</time>
      </trkpt>
      <trkpt lat="47.76016" lon="-2.39933">
        <ele>63</ele>
        <time>2021-08-07T10:04:46Z</time>
      </trkpt>
      <trkpt lat="47.76024" lon="-2.39929">
        <ele>63.2</ele>
        <time>2021-08-07T10:04:48Z</time>
      </trkpt>
      <trkpt lat="47.76029" lon="-2.39927">
        <ele>63.2</ele>
        <time>2021-08-07T10:04:49Z</time>
      </trkpt>
      <trkpt lat="47.76033" lon="-2.39925">
        <ele>63.2</ele>
        <time>2021-08-07T10:04:50Z</time>
      </trkpt>
      <trkpt lat="47.76038" lon="-2.39923">
        <ele>63.2</ele>
        <time>2021-08-07T10:04:51Z</time>
      </trkpt>
      <trkpt lat="47.76042" lon="-2.39921">
        <ele>63.2</ele>
        <time>2021-08-07T10:04:52Z</time>
      </trkpt>
      <trkpt lat="47.76046" lon="-2.39918">
        <ele>63.2</ele>
        <time>2021-08-07T10:04:53Z</time>
      </trkpt>
      <trkpt lat="47.7605" lon="-2.39916">
        <ele>63.2</ele>
        <time>2021-08-07T10:04:54Z</time>
      </trkpt>
      <trkpt lat="47.76054" lon="-2.39914">
        <ele>63.2</ele>
        <time>2021-08-07T10:04:55Z</time>
      </trkpt>
      <trkpt lat="47.76058" lon="-2.39913">
        <ele>63.2</ele>
        <time>2021-08-07T10:04:56Z</time>
      </trkpt>
      <trkpt lat="47.76062" lon="-2.39911">
        <ele>63.2</ele>
        <time>2021-08-07T10:04:57Z</time>
      </trkpt>
      <trkpt lat="47.76066" lon="-2.39909">
        <ele>63.2</ele>
        <time>2021-08-07T10:04:58Z</time>
      </trkpt>
      <trkpt lat="47.7607" lon="-2.39907">
        <ele>63.2</ele>
        <time>2021-08-07T10:04:59Z</time>
      </trkpt>
      <trkpt lat="47.76075" lon="-2.39906">
        <ele>63.2</ele>
        <time>2021-08-07T10:05:00Z</time>
      </trkpt>
      <trkpt lat="47.76079" lon="-2.39904">
        <ele>63.2</ele>
        <time>2021-08-07T10:05:01Z</time>
      </trkpt>
      <trkpt lat="47.76082" lon="-2.39903">
        <ele>63.2</ele>
        <time>2021-08-07T10:05:02Z</time>
      </trkpt>
      <trkpt lat="47.76086" lon="-2.39901">
        <ele>63.2</ele>
        <time>2021-08-07T10:05:03Z</time>
      </trkpt>
      <trkpt lat="47.76089" lon="-2.399">
        <ele>63.2</ele>
        <time>2021-08-07T10:05:04Z</time>
      </trkpt>
      <trkpt lat="47.76092" lon="-2.39898">
        <ele>63.2</ele>
        <time>2021-08-07T10:05:05Z</time>
      </trkpt>
      <trkpt lat="47.76095" lon="-2.39896">
        <ele>63.2</ele>
        <time>2021-08-07T10:05:06Z</time>
      </trkpt>
      <trkpt lat="47.76098" lon="-2.39895">
        <ele>63.2</ele>
        <time>2021-08-07T10:05:07Z</time>
      </trkpt>
      <trkpt lat="47.76101" lon="-2.39894">
        <ele>63.2</ele>
        <time>2021-08-07T10:05:08Z</time>
      </trkpt>
      <trkpt lat="47.76107" lon="-2.39892">
        <ele>63.2</ele>
        <time>2021-08-07T10:05:10Z</time>
      </trkpt>
      <trkpt lat="47.7611" lon="-2.39891">
        <ele>63.2</ele>
        <time>2021-08-07T10:05:11Z</time>
      </trkpt>
      <trkpt lat="47.76113" lon="-2.39891">
        <ele>63.2</ele>
        <time>2021-08-07T10:05:12Z</time>
      </trkpt>
      <trkpt lat="47.76116" lon="-2.3989">
        <ele>63.2</ele>
        <time>2021-08-07T10:05:13Z</time>
      </trkpt>
      <trkpt lat="47.76118" lon="-2.39889">
        <ele>63.2</ele>
        <time>2021-08-07T10:05:14Z</time>
      </trkpt>
      <trkpt lat="47.7612" lon="-2.39888">
        <ele>63.2</ele>
        <time>2021-08-07T10:05:15Z</time>
      </trkpt>
      <trkpt lat="47.76122" lon="-2.39886">
        <ele>63.2</ele>
        <time>2021-08-07T10:05:16Z</time>
      </trkpt>
      <trkpt lat="47.76123" lon="-2.39884">
        <ele>63.2</ele>
        <time>2021-08-07T10:05:17Z</time>
      </trkpt>
      <trkpt lat="47.76124" lon="-2.39884">
        <ele>63.2</ele>
        <time>2021-08-07T10:05:18Z</time>
      </trkpt>
      <trkpt lat="47.76125" lon="-2.39884">
        <ele>63.2</ele>
        <time>2021-08-07T10:05:19Z</time>
      </trkpt>
      <trkpt lat="47.76126" lon="-2.39884">
        <ele>63.2</ele>
        <time>2021-08-07T10:05:20Z</time>
      </trkpt>
      <trkpt lat="47.76127" lon="-2.39884">
        <ele>63.6</ele>
        <time>2021-08-07T10:05:35Z</time>
      </trkpt>
      <trkpt lat="47.76128" lon="-2.39884">
        <ele>63.6</ele>
        <time>2021-08-07T10:05:36Z</time>
      </trkpt>
      <trkpt lat="47.76129" lon="-2.39884">
        <ele>63.6</ele>
        <time>2021-08-07T10:05:37Z</time>
      </trkpt>
      <trkpt lat="47.76131" lon="-2.39884">
        <ele>63.6</ele>
        <time>2021-08-07T10:05:38Z</time>
      </trkpt>
      <trkpt lat="47.76136" lon="-2.39884">
        <ele>63.6</ele>
        <time>2021-08-07T10:05:40Z</time>
      </trkpt>
      <trkpt lat="47.76139" lon="-2.39884">
        <ele>63.6</ele>
        <time>2021-08-07T10:05:41Z</time>
      </trkpt>
      <trkpt lat="47.76142" lon="-2.39884">
        <ele>63.6</ele>
        <time>2021-08-07T10:05:42Z</time>
      </trkpt>
      <trkpt lat="47.76145" lon="-2.39883">
        <ele>63.6</ele>
        <time>2021-08-07T10:05:43Z</time>
      </trkpt>
      <trkpt lat="47.76148" lon="-2.39882">
        <ele>63.6</ele>
        <time>2021-08-07T10:05:44Z</time>
      </trkpt>
      <trkpt lat="47.76151" lon="-2.39881">
        <ele>63.6</ele>
        <time>2021-08-07T10:05:45Z</time>
      </trkpt>
      <trkpt lat="47.76154" lon="-2.3988">
        <ele>63.4</ele>
        <time>2021-08-07T10:05:46Z</time>
      </trkpt>
      <trkpt lat="47.76157" lon="-2.39878">
        <ele>63.4</ele>
        <time>2021-08-07T10:05:47Z</time>
      </trkpt>
      <trkpt lat="47.76161" lon="-2.39876">
        <ele>63.2</ele>
        <time>2021-08-07T10:05:48Z</time>
      </trkpt>
      <trkpt lat="47.76169" lon="-2.39872">
        <ele>63</ele>
        <time>2021-08-07T10:05:50Z</time>
      </trkpt>
      <trkpt lat="47.76173" lon="-2.3987">
        <ele>63</ele>
        <time>2021-08-07T10:05:51Z</time>
      </trkpt>
      <trkpt lat="47.76177" lon="-2.39868">
        <ele>62.8</ele>
        <time>2021-08-07T10:05:52Z</time>
      </trkpt>
      <trkpt lat="47.76181" lon="-2.39867">
        <ele>62.8</ele>
        <time>2021-08-07T10:05:53Z</time>
      </trkpt>
      <trkpt lat="47.76185" lon="-2.39865">
        <ele>62.8</ele>
        <time>2021-08-07T10:05:54Z</time>
      </trkpt>
      <trkpt lat="47.7619" lon="-2.39863">
        <ele>62.6</ele>
        <time>2021-08-07T10:05:55Z</time>
      </trkpt>
      <trkpt lat="47.76194" lon="-2.39861">
        <ele>62.6</ele>
        <time>2021-08-07T10:05:56Z</time>
      </trkpt>
      <trkpt lat="47.76199" lon="-2.39859">
        <ele>62.6</ele>
        <time>2021-08-07T10:05:57Z</time>
      </trkpt>
      <trkpt lat="47.76203" lon="-2.39857">
        <ele>62.4</ele>
        <time>2021-08-07T10:05:58Z</time>
      </trkpt>
      <trkpt lat="47.76212" lon="-2.39853">
        <ele>62.2</ele>
        <time>2021-08-07T10:06:00Z</time>
      </trkpt>
      <trkpt lat="47.76216" lon="-2.39851">
        <ele>62.2</ele>
        <time>2021-08-07T10:06:01Z</time>
      </trkpt>
      <trkpt lat="47.7622" lon="-2.39849">
        <ele>62.2</ele>
        <time>2021-08-07T10:06:02Z</time>
      </trkpt>
      <trkpt lat="47.76224" lon="-2.39847">
        <ele>62.2</ele>
        <time>2021-08-07T10:06:03Z</time>
      </trkpt>
      <trkpt lat="47.76228" lon="-2.39844">
        <ele>62.2</ele>
        <time>2021-08-07T10:06:04Z</time>
      </trkpt>
      <trkpt lat="47.76231" lon="-2.39842">
        <ele>62.2</ele>
        <time>2021-08-07T10:06:05Z</time>
      </trkpt>
      <trkpt lat="47.76234" lon="-2.3984">
        <ele>62.2</ele>
        <time>2021-08-07T10:06:06Z</time>
      </trkpt>
      <trkpt lat="47.76238" lon="-2.39838">
        <ele>62.2</ele>
        <time>2021-08-07T10:06:07Z</time>
      </trkpt>
      <trkpt lat="47.76243" lon="-2.39836">
        <ele>62.2</ele>
        <time>2021-08-07T10:06:08Z</time>
      </trkpt>
      <trkpt lat="47.76248" lon="-2.39834">
        <ele>62.4</ele>
        <time>2021-08-07T10:06:09Z</time>
      </trkpt>
      <trkpt lat="47.76256" lon="-2.39829">
        <ele>62.2</ele>
        <time>2021-08-07T10:06:11Z</time>
      </trkpt>
      <trkpt lat="47.76261" lon="-2.39827">
        <ele>62.2</ele>
        <time>2021-08-07T10:06:12Z</time>
      </trkpt>
      <trkpt lat="47.76265" lon="-2.39826">
        <ele>62.2</ele>
        <time>2021-08-07T10:06:13Z</time>
      </trkpt>
      <trkpt lat="47.76269" lon="-2.39824">
        <ele>62.2</ele>
        <time>2021-08-07T10:06:14Z</time>
      </trkpt>
      <trkpt lat="47.76273" lon="-2.39822">
        <ele>62.2</ele>
        <time>2021-08-07T10:06:15Z</time>
      </trkpt>
      <trkpt lat="47.76278" lon="-2.3982">
        <ele>62.2</ele>
        <time>2021-08-07T10:06:16Z</time>
      </trkpt>
      <trkpt lat="47.76282" lon="-2.39817">
        <ele>62.2</ele>
        <time>2021-08-07T10:06:17Z</time>
      </trkpt>
      <trkpt lat="47.76287" lon="-2.39815">
        <ele>62</ele>
        <time>2021-08-07T10:06:18Z</time>
      </trkpt>
      <trkpt lat="47.76292" lon="-2.39813">
        <ele>61.8</ele>
        <time>2021-08-07T10:06:19Z</time>
      </trkpt>
      <trkpt lat="47.76297" lon="-2.3981">
        <ele>61.8</ele>
        <time>2021-08-07T10:06:20Z</time>
      </trkpt>
      <trkpt lat="47.76302" lon="-2.39807">
        <ele>61.6</ele>
        <time>2021-08-07T10:06:21Z</time>
      </trkpt>
      <trkpt lat="47.76307" lon="-2.39804">
        <ele>61.4</ele>
        <time>2021-08-07T10:06:22Z</time>
      </trkpt>
      <trkpt lat="47.76312" lon="-2.39802">
        <ele>61.4</ele>
        <time>2021-08-07T10:06:23Z</time>
      </trkpt>
      <trkpt lat="47.76316" lon="-2.398">
        <ele>61.2</ele>
        <time>2021-08-07T10:06:24Z</time>
      </trkpt>
      <trkpt lat="47.76321" lon="-2.39799">
        <ele>61.2</ele>
        <time>2021-08-07T10:06:25Z</time>
      </trkpt>
      <trkpt lat="47.76326" lon="-2.39797">
        <ele>61.2</ele>
        <time>2021-08-07T10:06:26Z</time>
      </trkpt>
      <trkpt lat="47.76331" lon="-2.39795">
        <ele>61.2</ele>
        <time>2021-08-07T10:06:27Z</time>
      </trkpt>
      <trkpt lat="47.76335" lon="-2.39792">
        <ele>61</ele>
        <time>2021-08-07T10:06:28Z</time>
      </trkpt>
      <trkpt lat="47.7634" lon="-2.3979">
        <ele>61</ele>
        <time>2021-08-07T10:06:29Z</time>
      </trkpt>
      <trkpt lat="47.76345" lon="-2.39788">
        <ele>61</ele>
        <time>2021-08-07T10:06:30Z</time>
      </trkpt>
      <trkpt lat="47.7635" lon="-2.39785">
        <ele>61</ele>
        <time>2021-08-07T10:06:31Z</time>
      </trkpt>
      <trkpt lat="47.76358" lon="-2.3978">
        <ele>61</ele>
        <time>2021-08-07T10:06:33Z</time>
      </trkpt>
      <trkpt lat="47.76363" lon="-2.39778">
        <ele>61</ele>
        <time>2021-08-07T10:06:34Z</time>
      </trkpt>
      <trkpt lat="47.76368" lon="-2.39776">
        <ele>61</ele>
        <time>2021-08-07T10:06:35Z</time>
      </trkpt>
      <trkpt lat="47.76373" lon="-2.39774">
        <ele>61</ele>
        <time>2021-08-07T10:06:36Z</time>
      </trkpt>
      <trkpt lat="47.76379" lon="-2.39771">
        <ele>61</ele>
        <time>2021-08-07T10:06:37Z</time>
      </trkpt>
      <trkpt lat="47.76385" lon="-2.39768">
        <ele>61</ele>
        <time>2021-08-07T10:06:38Z</time>
      </trkpt>
      <trkpt lat="47.76392" lon="-2.39765">
        <ele>60.8</ele>
        <time>2021-08-07T10:06:39Z</time>
      </trkpt>
      <trkpt lat="47.76398" lon="-2.39762">
        <ele>60.8</ele>
        <time>2021-08-07T10:06:40Z</time>
      </trkpt>
      <trkpt lat="47.76404" lon="-2.3976">
        <ele>60.8</ele>
        <time>2021-08-07T10:06:41Z</time>
      </trkpt>
      <trkpt lat="47.7641" lon="-2.39757">
        <ele>60.8</ele>
        <time>2021-08-07T10:06:42Z</time>
      </trkpt>
      <trkpt lat="47.76422" lon="-2.39751">
        <ele>61</ele>
        <time>2021-08-07T10:06:44Z</time>
      </trkpt>
      <trkpt lat="47.76429" lon="-2.39748">
        <ele>61</ele>
        <time>2021-08-07T10:06:45Z</time>
      </trkpt>
      <trkpt lat="47.76434" lon="-2.39745">
        <ele>61</ele>
        <time>2021-08-07T10:06:46Z</time>
      </trkpt>
      <trkpt lat="47.7644" lon="-2.39741">
        <ele>61</ele>
        <time>2021-08-07T10:06:47Z</time>
      </trkpt>
      <trkpt lat="47.76445" lon="-2.39738">
        <ele>61</ele>
        <time>2021-08-07T10:06:48Z</time>
      </trkpt>
      <trkpt lat="47.76451" lon="-2.39734">
        <ele>61</ele>
        <time>2021-08-07T10:06:49Z</time>
      </trkpt>
      <trkpt lat="47.76457" lon="-2.39731">
        <ele>60.8</ele>
        <time>2021-08-07T10:06:50Z</time>
      </trkpt>
      <trkpt lat="47.76462" lon="-2.39728">
        <ele>60.8</ele>
        <time>2021-08-07T10:06:51Z</time>
      </trkpt>
      <trkpt lat="47.76467" lon="-2.39724">
        <ele>60.6</ele>
        <time>2021-08-07T10:06:52Z</time>
      </trkpt>
      <trkpt lat="47.76473" lon="-2.3972">
        <ele>60.6</ele>
        <time>2021-08-07T10:06:53Z</time>
      </trkpt>
      <trkpt lat="47.76479" lon="-2.39716">
        <ele>60.4</ele>
        <time>2021-08-07T10:06:54Z</time>
      </trkpt>
      <trkpt lat="47.76484" lon="-2.39712">
        <ele>60.4</ele>
        <time>2021-08-07T10:06:55Z</time>
      </trkpt>
      <trkpt lat="47.76489" lon="-2.39708">
        <ele>60.2</ele>
        <time>2021-08-07T10:06:56Z</time>
      </trkpt>
      <trkpt lat="47.76495" lon="-2.39704">
        <ele>60.2</ele>
        <time>2021-08-07T10:06:57Z</time>
      </trkpt>
      <trkpt lat="47.765" lon="-2.39699">
        <ele>60.2</ele>
        <time>2021-08-07T10:06:58Z</time>
      </trkpt>
      <trkpt lat="47.76505" lon="-2.39695">
        <ele>60</ele>
        <time>2021-08-07T10:06:59Z</time>
      </trkpt>
      <trkpt lat="47.7651" lon="-2.39691">
        <ele>59.8</ele>
        <time>2021-08-07T10:07:00Z</time>
      </trkpt>
      <trkpt lat="47.76515" lon="-2.39686">
        <ele>59.8</ele>
        <time>2021-08-07T10:07:01Z</time>
      </trkpt>
      <trkpt lat="47.7652" lon="-2.39682">
        <ele>59.8</ele>
        <time>2021-08-07T10:07:02Z</time>
      </trkpt>
      <trkpt lat="47.76525" lon="-2.39678">
        <ele>59.8</ele>
        <time>2021-08-07T10:07:03Z</time>
      </trkpt>
      <trkpt lat="47.76529" lon="-2.39673">
        <ele>59.8</ele>
        <time>2021-08-07T10:07:04Z</time>
      </trkpt>
      <trkpt lat="47.76534" lon="-2.39669">
        <ele>59.8</ele>
        <time>2021-08-07T10:07:05Z</time>
      </trkpt>
      <trkpt lat="47.76537" lon="-2.39665">
        <ele>59.8</ele>
        <time>2021-08-07T10:07:06Z</time>
      </trkpt>
      <trkpt lat="47.76541" lon="-2.3966">
        <ele>59.8</ele>
        <time>2021-08-07T10:07:07Z</time>
      </trkpt>
      <trkpt lat="47.76545" lon="-2.39655">
        <ele>59.8</ele>
        <time>2021-08-07T10:07:08Z</time>
      </trkpt>
      <trkpt lat="47.76548" lon="-2.39651">
        <ele>59.8</ele>
        <time>2021-08-07T10:07:09Z</time>
      </trkpt>
      <trkpt lat="47.76552" lon="-2.39646">
        <ele>59.8</ele>
        <time>2021-08-07T10:07:10Z</time>
      </trkpt>
      <trkpt lat="47.76556" lon="-2.39641">
        <ele>59.8</ele>
        <time>2021-08-07T10:07:11Z</time>
      </trkpt>
      <trkpt lat="47.7656" lon="-2.39636">
        <ele>59.8</ele>
        <time>2021-08-07T10:07:12Z</time>
      </trkpt>
      <trkpt lat="47.76564" lon="-2.39631">
        <ele>59.8</ele>
        <time>2021-08-07T10:07:13Z</time>
      </trkpt>
      <trkpt lat="47.76568" lon="-2.39626">
        <ele>59.8</ele>
        <time>2021-08-07T10:07:14Z</time>
      </trkpt>
      <trkpt lat="47.76575" lon="-2.39616">
        <ele>59.4</ele>
        <time>2021-08-07T10:07:16Z</time>
      </trkpt>
      <trkpt lat="47.76579" lon="-2.39612">
        <ele>59.2</ele>
        <time>2021-08-07T10:07:17Z</time>
      </trkpt>
      <trkpt lat="47.76581" lon="-2.39609">
        <ele>59</ele>
        <time>2021-08-07T10:07:18Z</time>
      </trkpt>
      <trkpt lat="47.76584" lon="-2.39605">
        <ele>59</ele>
        <time>2021-08-07T10:07:19Z</time>
      </trkpt>
      <trkpt lat="47.76586" lon="-2.39603">
        <ele>59</ele>
        <time>2021-08-07T10:07:20Z</time>
      </trkpt>
      <trkpt lat="47.76587" lon="-2.39602">
        <ele>59</ele>
        <time>2021-08-07T10:07:21Z</time>
      </trkpt>
      <trkpt lat="47.76588" lon="-2.39602">
        <ele>59.8</ele>
        <time>2021-08-07T10:07:37Z</time>
      </trkpt>
      <trkpt lat="47.76589" lon="-2.39601">
        <ele>59.8</ele>
        <time>2021-08-07T10:07:38Z</time>
      </trkpt>
      <trkpt lat="47.76589" lon="-2.396">
        <ele>59.8</ele>
        <time>2021-08-07T10:07:39Z</time>
      </trkpt>
      <trkpt lat="47.76591" lon="-2.39597">
        <ele>59.8</ele>
        <time>2021-08-07T10:07:41Z</time>
      </trkpt>
      <trkpt lat="47.76593" lon="-2.39595">
        <ele>59.8</ele>
        <time>2021-08-07T10:07:42Z</time>
      </trkpt>
      <trkpt lat="47.76595" lon="-2.39592">
        <ele>59.6</ele>
        <time>2021-08-07T10:07:43Z</time>
      </trkpt>
      <trkpt lat="47.76597" lon="-2.39589">
        <ele>59.6</ele>
        <time>2021-08-07T10:07:44Z</time>
      </trkpt>
      <trkpt lat="47.76599" lon="-2.39586">
        <ele>59.6</ele>
        <time>2021-08-07T10:07:45Z</time>
      </trkpt>
      <trkpt lat="47.76602" lon="-2.39582">
        <ele>59.6</ele>
        <time>2021-08-07T10:07:46Z</time>
      </trkpt>
      <trkpt lat="47.76606" lon="-2.39577">
        <ele>59.6</ele>
        <time>2021-08-07T10:07:47Z</time>
      </trkpt>
      <trkpt lat="47.76614" lon="-2.39568">
        <ele>59.4</ele>
        <time>2021-08-07T10:07:49Z</time>
      </trkpt>
      <trkpt lat="47.76619" lon="-2.39563">
        <ele>59.2</ele>
        <time>2021-08-07T10:07:50Z</time>
      </trkpt>
      <trkpt lat="47.76623" lon="-2.39558">
        <ele>59.2</ele>
        <time>2021-08-07T10:07:51Z</time>
      </trkpt>
      <trkpt lat="47.76628" lon="-2.39553">
        <ele>59</ele>
        <time>2021-08-07T10:07:52Z</time>
      </trkpt>
      <trkpt lat="47.76632" lon="-2.39548">
        <ele>58.8</ele>
        <time>2021-08-07T10:07:53Z</time>
      </trkpt>
      <trkpt lat="47.76637" lon="-2.39542">
        <ele>58.8</ele>
        <time>2021-08-07T10:07:54Z</time>
      </trkpt>
      <trkpt lat="47.76641" lon="-2.39538">
        <ele>58.6</ele>
        <time>2021-08-07T10:07:55Z</time>
      </trkpt>
      <trkpt lat="47.76646" lon="-2.39533">
        <ele>58.4</ele>
        <time>2021-08-07T10:07:56Z</time>
      </trkpt>
      <trkpt lat="47.76652" lon="-2.39529">
        <ele>58</ele>
        <time>2021-08-07T10:07:57Z</time>
      </trkpt>
      <trkpt lat="47.76657" lon="-2.39524">
        <ele>57.8</ele>
        <time>2021-08-07T10:07:58Z</time>
      </trkpt>
      <trkpt lat="47.76666" lon="-2.39516">
        <ele>57.4</ele>
        <time>2021-08-07T10:08:00Z</time>
      </trkpt>
      <trkpt lat="47.76671" lon="-2.39511">
        <ele>57.4</ele>
        <time>2021-08-07T10:08:01Z</time>
      </trkpt>
      <trkpt lat="47.76677" lon="-2.39506">
        <ele>57.2</ele>
        <time>2021-08-07T10:08:02Z</time>
      </trkpt>
      <trkpt lat="47.76683" lon="-2.39502">
        <ele>57.2</ele>
        <time>2021-08-07T10:08:03Z</time>
      </trkpt>
      <trkpt lat="47.76689" lon="-2.39498">
        <ele>57.2</ele>
        <time>2021-08-07T10:08:04Z</time>
      </trkpt>
      <trkpt lat="47.76695" lon="-2.39494">
        <ele>57</ele>
        <time>2021-08-07T10:08:05Z</time>
      </trkpt>
      <trkpt lat="47.76701" lon="-2.3949">
        <ele>57</ele>
        <time>2021-08-07T10:08:06Z</time>
      </trkpt>
      <trkpt lat="47.76707" lon="-2.39486">
        <ele>56.8</ele>
        <time>2021-08-07T10:08:07Z</time>
      </trkpt>
      <trkpt lat="47.76713" lon="-2.39482">
        <ele>56.8</ele>
        <time>2021-08-07T10:08:08Z</time>
      </trkpt>
      <trkpt lat="47.76721" lon="-2.39479">
        <ele>56.8</ele>
        <time>2021-08-07T10:08:09Z</time>
      </trkpt>
      <trkpt lat="47.76727" lon="-2.39477">
        <ele>56.6</ele>
        <time>2021-08-07T10:08:10Z</time>
      </trkpt>
      <trkpt lat="47.76733" lon="-2.39476">
        <ele>56.6</ele>
        <time>2021-08-07T10:08:11Z</time>
      </trkpt>
      <trkpt lat="47.7674" lon="-2.39473">
        <ele>56.4</ele>
        <time>2021-08-07T10:08:12Z</time>
      </trkpt>
      <trkpt lat="47.76745" lon="-2.39471">
        <ele>56</ele>
        <time>2021-08-07T10:08:13Z</time>
      </trkpt>
      <trkpt lat="47.76751" lon="-2.39468">
        <ele>55.6</ele>
        <time>2021-08-07T10:08:14Z</time>
      </trkpt>
      <trkpt lat="47.76757" lon="-2.39466">
        <ele>55.4</ele>
        <time>2021-08-07T10:08:15Z</time>
      </trkpt>
      <trkpt lat="47.76765" lon="-2.39463">
        <ele>55.2</ele>
        <time>2021-08-07T10:08:16Z</time>
      </trkpt>
      <trkpt lat="47.76772" lon="-2.3946">
        <ele>55.2</ele>
        <time>2021-08-07T10:08:17Z</time>
      </trkpt>
      <trkpt lat="47.7678" lon="-2.39459">
        <ele>55</ele>
        <time>2021-08-07T10:08:18Z</time>
      </trkpt>
      <trkpt lat="47.76789" lon="-2.39458">
        <ele>55</ele>
        <time>2021-08-07T10:08:19Z</time>
      </trkpt>
      <trkpt lat="47.76804" lon="-2.39454">
        <ele>54.6</ele>
        <time>2021-08-07T10:08:21Z</time>
      </trkpt>
      <trkpt lat="47.76813" lon="-2.39453">
        <ele>54.2</ele>
        <time>2021-08-07T10:08:22Z</time>
      </trkpt>
      <trkpt lat="47.7682" lon="-2.39453">
        <ele>54.2</ele>
        <time>2021-08-07T10:08:23Z</time>
      </trkpt>
      <trkpt lat="47.76829" lon="-2.39453">
        <ele>54</ele>
        <time>2021-08-07T10:08:24Z</time>
      </trkpt>
      <trkpt lat="47.76837" lon="-2.39453">
        <ele>53.8</ele>
        <time>2021-08-07T10:08:25Z</time>
      </trkpt>
      <trkpt lat="47.76845" lon="-2.39453">
        <ele>53.6</ele>
        <time>2021-08-07T10:08:26Z</time>
      </trkpt>
      <trkpt lat="47.76854" lon="-2.39453">
        <ele>53.4</ele>
        <time>2021-08-07T10:08:27Z</time>
      </trkpt>
      <trkpt lat="47.76862" lon="-2.39454">
        <ele>53.2</ele>
        <time>2021-08-07T10:08:28Z</time>
      </trkpt>
      <trkpt lat="47.7687" lon="-2.39454">
        <ele>53.2</ele>
        <time>2021-08-07T10:08:29Z</time>
      </trkpt>
      <trkpt lat="47.76886" lon="-2.39456">
        <ele>53</ele>
        <time>2021-08-07T10:08:31Z</time>
      </trkpt>
      <trkpt lat="47.76895" lon="-2.39457">
        <ele>52.8</ele>
        <time>2021-08-07T10:08:32Z</time>
      </trkpt>
      <trkpt lat="47.76903" lon="-2.39459">
        <ele>52.6</ele>
        <time>2021-08-07T10:08:33Z</time>
      </trkpt>
      <trkpt lat="47.76911" lon="-2.39461">
        <ele>52.6</ele>
        <time>2021-08-07T10:08:34Z</time>
      </trkpt>
      <trkpt lat="47.76919" lon="-2.39462">
        <ele>52</ele>
        <time>2021-08-07T10:08:35Z</time>
      </trkpt>
      <trkpt lat="47.76926" lon="-2.39464">
        <ele>52.2</ele>
        <time>2021-08-07T10:08:36Z</time>
      </trkpt>
      <trkpt lat="47.76933" lon="-2.39467">
        <ele>51.8</ele>
        <time>2021-08-07T10:08:37Z</time>
      </trkpt>
      <trkpt lat="47.76939" lon="-2.39469">
        <ele>51.8</ele>
        <time>2021-08-07T10:08:38Z</time>
      </trkpt>
      <trkpt lat="47.76946" lon="-2.39472">
        <ele>51.8</ele>
        <time>2021-08-07T10:08:39Z</time>
      </trkpt>
      <trkpt lat="47.76958" lon="-2.39476">
        <ele>51.6</ele>
        <time>2021-08-07T10:08:41Z</time>
      </trkpt>
      <trkpt lat="47.76964" lon="-2.39479">
        <ele>51.6</ele>
        <time>2021-08-07T10:08:42Z</time>
      </trkpt>
      <trkpt lat="47.76969" lon="-2.39482">
        <ele>51.8</ele>
        <time>2021-08-07T10:08:43Z</time>
      </trkpt>
      <trkpt lat="47.76974" lon="-2.39485">
        <ele>51.8</ele>
        <time>2021-08-07T10:08:44Z</time>
      </trkpt>
      <trkpt lat="47.7698" lon="-2.39488">
        <ele>51.8</ele>
        <time>2021-08-07T10:08:45Z</time>
      </trkpt>
      <trkpt lat="47.76985" lon="-2.3949">
        <ele>51.8</ele>
        <time>2021-08-07T10:08:46Z</time>
      </trkpt>
      <trkpt lat="47.7699" lon="-2.39493">
        <ele>51.8</ele>
        <time>2021-08-07T10:08:47Z</time>
      </trkpt>
      <trkpt lat="47.76995" lon="-2.39496">
        <ele>51.8</ele>
        <time>2021-08-07T10:08:48Z</time>
      </trkpt>
      <trkpt lat="47.76999" lon="-2.39498">
        <ele>51.6</ele>
        <time>2021-08-07T10:08:49Z</time>
      </trkpt>
      <trkpt lat="47.77003" lon="-2.395">
        <ele>51.6</ele>
        <time>2021-08-07T10:08:50Z</time>
      </trkpt>
      <trkpt lat="47.77008" lon="-2.39503">
        <ele>51.6</ele>
        <time>2021-08-07T10:08:51Z</time>
      </trkpt>
      <trkpt lat="47.77013" lon="-2.39506">
        <ele>51.6</ele>
        <time>2021-08-07T10:08:52Z</time>
      </trkpt>
      <trkpt lat="47.77017" lon="-2.39508">
        <ele>51.4</ele>
        <time>2021-08-07T10:08:53Z</time>
      </trkpt>
      <trkpt lat="47.77022" lon="-2.39511">
        <ele>51.4</ele>
        <time>2021-08-07T10:08:54Z</time>
      </trkpt>
      <trkpt lat="47.77027" lon="-2.39513">
        <ele>51.4</ele>
        <time>2021-08-07T10:08:55Z</time>
      </trkpt>
      <trkpt lat="47.7703" lon="-2.39516">
        <ele>51.4</ele>
        <time>2021-08-07T10:08:56Z</time>
      </trkpt>
      <trkpt lat="47.77034" lon="-2.39519">
        <ele>51.4</ele>
        <time>2021-08-07T10:08:57Z</time>
      </trkpt>
      <trkpt lat="47.77038" lon="-2.39523">
        <ele>51.4</ele>
        <time>2021-08-07T10:08:58Z</time>
      </trkpt>
      <trkpt lat="47.77043" lon="-2.39526">
        <ele>51.2</ele>
        <time>2021-08-07T10:08:59Z</time>
      </trkpt>
      <trkpt lat="47.77047" lon="-2.3953">
        <ele>51.2</ele>
        <time>2021-08-07T10:09:00Z</time>
      </trkpt>
      <trkpt lat="47.77051" lon="-2.39534">
        <ele>51.2</ele>
        <time>2021-08-07T10:09:01Z</time>
      </trkpt>
      <trkpt lat="47.77055" lon="-2.39538">
        <ele>51.2</ele>
        <time>2021-08-07T10:09:02Z</time>
      </trkpt>
      <trkpt lat="47.77059" lon="-2.39543">
        <ele>51.2</ele>
        <time>2021-08-07T10:09:03Z</time>
      </trkpt>
      <trkpt lat="47.77063" lon="-2.39549">
        <ele>51.2</ele>
        <time>2021-08-07T10:09:04Z</time>
      </trkpt>
      <trkpt lat="47.77068" lon="-2.39556">
        <ele>51.2</ele>
        <time>2021-08-07T10:09:05Z</time>
      </trkpt>
      <trkpt lat="47.77072" lon="-2.39563">
        <ele>51</ele>
        <time>2021-08-07T10:09:06Z</time>
      </trkpt>
      <trkpt lat="47.77077" lon="-2.39569">
        <ele>51</ele>
        <time>2021-08-07T10:09:07Z</time>
      </trkpt>
      <trkpt lat="47.77082" lon="-2.39574">
        <ele>51</ele>
        <time>2021-08-07T10:09:08Z</time>
      </trkpt>
      <trkpt lat="47.77085" lon="-2.39579">
        <ele>51</ele>
        <time>2021-08-07T10:09:09Z</time>
      </trkpt>
      <trkpt lat="47.7709" lon="-2.39583">
        <ele>51</ele>
        <time>2021-08-07T10:09:10Z</time>
      </trkpt>
      <trkpt lat="47.77094" lon="-2.39588">
        <ele>51</ele>
        <time>2021-08-07T10:09:12Z</time>
      </trkpt>
      <trkpt lat="47.77095" lon="-2.3959">
        <ele>51</ele>
        <time>2021-08-07T10:09:13Z</time>
      </trkpt>
      <trkpt lat="47.77097" lon="-2.39592">
        <ele>51</ele>
        <time>2021-08-07T10:09:14Z</time>
      </trkpt>
      <trkpt lat="47.77099" lon="-2.39594">
        <ele>51</ele>
        <time>2021-08-07T10:09:15Z</time>
      </trkpt>
      <trkpt lat="47.77101" lon="-2.39594">
        <ele>51</ele>
        <time>2021-08-07T10:09:16Z</time>
      </trkpt>
      <trkpt lat="47.77103" lon="-2.39595">
        <ele>51</ele>
        <time>2021-08-07T10:09:17Z</time>
      </trkpt>
      <trkpt lat="47.77105" lon="-2.39598">
        <ele>51</ele>
        <time>2021-08-07T10:09:18Z</time>
      </trkpt>
      <trkpt lat="47.77107" lon="-2.396">
        <ele>51</ele>
        <time>2021-08-07T10:09:19Z</time>
      </trkpt>
      <trkpt lat="47.7711" lon="-2.39603">
        <ele>50.8</ele>
        <time>2021-08-07T10:09:20Z</time>
      </trkpt>
      <trkpt lat="47.77115" lon="-2.39608">
        <ele>50.8</ele>
        <time>2021-08-07T10:09:22Z</time>
      </trkpt>
      <trkpt lat="47.77118" lon="-2.39611">
        <ele>50.8</ele>
        <time>2021-08-07T10:09:23Z</time>
      </trkpt>
      <trkpt lat="47.7712" lon="-2.39615">
        <ele>50.8</ele>
        <time>2021-08-07T10:09:24Z</time>
      </trkpt>
      <trkpt lat="47.77123" lon="-2.39618">
        <ele>50.8</ele>
        <time>2021-08-07T10:09:25Z</time>
      </trkpt>
      <trkpt lat="47.77126" lon="-2.39621">
        <ele>50.8</ele>
        <time>2021-08-07T10:09:26Z</time>
      </trkpt>
      <trkpt lat="47.77127" lon="-2.39625">
        <ele>50.8</ele>
        <time>2021-08-07T10:09:27Z</time>
      </trkpt>
      <trkpt lat="47.77129" lon="-2.39628">
        <ele>50.8</ele>
        <time>2021-08-07T10:09:28Z</time>
      </trkpt>
      <trkpt lat="47.77132" lon="-2.39632">
        <ele>50.8</ele>
        <time>2021-08-07T10:09:29Z</time>
      </trkpt>
      <trkpt lat="47.77135" lon="-2.39636">
        <ele>50.8</ele>
        <time>2021-08-07T10:09:30Z</time>
      </trkpt>
      <trkpt lat="47.77137" lon="-2.39639">
        <ele>50.6</ele>
        <time>2021-08-07T10:09:31Z</time>
      </trkpt>
      <trkpt lat="47.77144" lon="-2.39647">
        <ele>50.4</ele>
        <time>2021-08-07T10:09:33Z</time>
      </trkpt>
      <trkpt lat="47.77147" lon="-2.39652">
        <ele>50.4</ele>
        <time>2021-08-07T10:09:34Z</time>
      </trkpt>
      <trkpt lat="47.77151" lon="-2.39657">
        <ele>50.4</ele>
        <time>2021-08-07T10:09:35Z</time>
      </trkpt>
      <trkpt lat="47.77154" lon="-2.39661">
        <ele>50.2</ele>
        <time>2021-08-07T10:09:36Z</time>
      </trkpt>
      <trkpt lat="47.77158" lon="-2.39666">
        <ele>50</ele>
        <time>2021-08-07T10:09:37Z</time>
      </trkpt>
      <trkpt lat="47.77162" lon="-2.39671">
        <ele>49.8</ele>
        <time>2021-08-07T10:09:38Z</time>
      </trkpt>
      <trkpt lat="47.77165" lon="-2.39676">
        <ele>49.6</ele>
        <time>2021-08-07T10:09:39Z</time>
      </trkpt>
      <trkpt lat="47.77169" lon="-2.39681">
        <ele>49.6</ele>
        <time>2021-08-07T10:09:40Z</time>
      </trkpt>
      <trkpt lat="47.77173" lon="-2.39685">
        <ele>49.4</ele>
        <time>2021-08-07T10:09:41Z</time>
      </trkpt>
      <trkpt lat="47.77176" lon="-2.3969">
        <ele>49.2</ele>
        <time>2021-08-07T10:09:42Z</time>
      </trkpt>
      <trkpt lat="47.77183" lon="-2.39698">
        <ele>49</ele>
        <time>2021-08-07T10:09:44Z</time>
      </trkpt>
      <trkpt lat="47.77187" lon="-2.39702">
        <ele>49</ele>
        <time>2021-08-07T10:09:45Z</time>
      </trkpt>
      <trkpt lat="47.7719" lon="-2.39706">
        <ele>49</ele>
        <time>2021-08-07T10:09:46Z</time>
      </trkpt>
      <trkpt lat="47.77193" lon="-2.39709">
        <ele>49</ele>
        <time>2021-08-07T10:09:47Z</time>
      </trkpt>
      <trkpt lat="47.77196" lon="-2.39712">
        <ele>48.8</ele>
        <time>2021-08-07T10:09:48Z</time>
      </trkpt>
      <trkpt lat="47.77199" lon="-2.39715">
        <ele>48.8</ele>
        <time>2021-08-07T10:09:49Z</time>
      </trkpt>
      <trkpt lat="47.77203" lon="-2.39718">
        <ele>48.6</ele>
        <time>2021-08-07T10:09:50Z</time>
      </trkpt>
      <trkpt lat="47.77206" lon="-2.39721">
        <ele>48.6</ele>
        <time>2021-08-07T10:09:51Z</time>
      </trkpt>
      <trkpt lat="47.7721" lon="-2.39725">
        <ele>48.4</ele>
        <time>2021-08-07T10:09:52Z</time>
      </trkpt>
      <trkpt lat="47.77218" lon="-2.39732">
        <ele>48.2</ele>
        <time>2021-08-07T10:09:54Z</time>
      </trkpt>
      <trkpt lat="47.77223" lon="-2.39737">
        <ele>48.2</ele>
        <time>2021-08-07T10:09:55Z</time>
      </trkpt>
      <trkpt lat="47.77228" lon="-2.39741">
        <ele>48</ele>
        <time>2021-08-07T10:09:56Z</time>
      </trkpt>
      <trkpt lat="47.77233" lon="-2.39744">
        <ele>48</ele>
        <time>2021-08-07T10:09:57Z</time>
      </trkpt>
      <trkpt lat="47.77238" lon="-2.39748">
        <ele>48</ele>
        <time>2021-08-07T10:09:58Z</time>
      </trkpt>
      <trkpt lat="47.77243" lon="-2.39752">
        <ele>48</ele>
        <time>2021-08-07T10:09:59Z</time>
      </trkpt>
      <trkpt lat="47.77248" lon="-2.39755">
        <ele>47.8</ele>
        <time>2021-08-07T10:10:00Z</time>
      </trkpt>
      <trkpt lat="47.77254" lon="-2.39759">
        <ele>47.6</ele>
        <time>2021-08-07T10:10:01Z</time>
      </trkpt>
      <trkpt lat="47.77258" lon="-2.39762">
        <ele>47.8</ele>
        <time>2021-08-07T10:10:02Z</time>
      </trkpt>
      <trkpt lat="47.77263" lon="-2.39766">
        <ele>47.8</ele>
        <time>2021-08-07T10:10:03Z</time>
      </trkpt>
      <trkpt lat="47.77274" lon="-2.39772">
        <ele>47.6</ele>
        <time>2021-08-07T10:10:05Z</time>
      </trkpt>
      <trkpt lat="47.77279" lon="-2.39776">
        <ele>47.4</ele>
        <time>2021-08-07T10:10:06Z</time>
      </trkpt>
      <trkpt lat="47.77285" lon="-2.39779">
        <ele>47.4</ele>
        <time>2021-08-07T10:10:07Z</time>
      </trkpt>
      <trkpt lat="47.77291" lon="-2.39782">
        <ele>47.2</ele>
        <time>2021-08-07T10:10:08Z</time>
      </trkpt>
      <trkpt lat="47.77296" lon="-2.39785">
        <ele>47.2</ele>
        <time>2021-08-07T10:10:09Z</time>
      </trkpt>
      <trkpt lat="47.77302" lon="-2.39788">
        <ele>47</ele>
        <time>2021-08-07T10:10:10Z</time>
      </trkpt>
      <trkpt lat="47.77307" lon="-2.39791">
        <ele>46.8</ele>
        <time>2021-08-07T10:10:11Z</time>
      </trkpt>
      <trkpt lat="47.77313" lon="-2.39793">
        <ele>46.8</ele>
        <time>2021-08-07T10:10:12Z</time>
      </trkpt>
      <trkpt lat="47.77319" lon="-2.39796">
        <ele>46.6</ele>
        <time>2021-08-07T10:10:13Z</time>
      </trkpt>
      <trkpt lat="47.77324" lon="-2.39798">
        <ele>46.6</ele>
        <time>2021-08-07T10:10:14Z</time>
      </trkpt>
      <trkpt lat="47.77335" lon="-2.39802">
        <ele>46.2</ele>
        <time>2021-08-07T10:10:16Z</time>
      </trkpt>
      <trkpt lat="47.77341" lon="-2.39804">
        <ele>46.2</ele>
        <time>2021-08-07T10:10:17Z</time>
      </trkpt>
      <trkpt lat="47.77346" lon="-2.39805">
        <ele>46</ele>
        <time>2021-08-07T10:10:18Z</time>
      </trkpt>
      <trkpt lat="47.7735" lon="-2.39806">
        <ele>46</ele>
        <time>2021-08-07T10:10:19Z</time>
      </trkpt>
      <trkpt lat="47.77355" lon="-2.39807">
        <ele>46</ele>
        <time>2021-08-07T10:10:20Z</time>
      </trkpt>
      <trkpt lat="47.7736" lon="-2.39808">
        <ele>46</ele>
        <time>2021-08-07T10:10:21Z</time>
      </trkpt>
      <trkpt lat="47.77365" lon="-2.3981">
        <ele>45.8</ele>
        <time>2021-08-07T10:10:22Z</time>
      </trkpt>
      <trkpt lat="47.7737" lon="-2.39811">
        <ele>45.8</ele>
        <time>2021-08-07T10:10:23Z</time>
      </trkpt>
      <trkpt lat="47.77375" lon="-2.39812">
        <ele>45.8</ele>
        <time>2021-08-07T10:10:24Z</time>
      </trkpt>
      <trkpt lat="47.77379" lon="-2.39813">
        <ele>45.8</ele>
        <time>2021-08-07T10:10:25Z</time>
      </trkpt>
      <trkpt lat="47.77388" lon="-2.39814">
        <ele>45.8</ele>
        <time>2021-08-07T10:10:27Z</time>
      </trkpt>
      <trkpt lat="47.77392" lon="-2.39814">
        <ele>45.8</ele>
        <time>2021-08-07T10:10:28Z</time>
      </trkpt>
      <trkpt lat="47.77396" lon="-2.39815">
        <ele>45.8</ele>
        <time>2021-08-07T10:10:29Z</time>
      </trkpt>
      <trkpt lat="47.77399" lon="-2.39816">
        <ele>45.8</ele>
        <time>2021-08-07T10:10:30Z</time>
      </trkpt>
      <trkpt lat="47.77402" lon="-2.39817">
        <ele>45.8</ele>
        <time>2021-08-07T10:10:31Z</time>
      </trkpt>
      <trkpt lat="47.77405" lon="-2.39817">
        <ele>45.8</ele>
        <time>2021-08-07T10:10:32Z</time>
      </trkpt>
      <trkpt lat="47.77408" lon="-2.39816">
        <ele>45.8</ele>
        <time>2021-08-07T10:10:33Z</time>
      </trkpt>
      <trkpt lat="47.7741" lon="-2.39814">
        <ele>45.8</ele>
        <time>2021-08-07T10:10:34Z</time>
      </trkpt>
      <trkpt lat="47.77412" lon="-2.39814">
        <ele>46</ele>
        <time>2021-08-07T10:10:35Z</time>
      </trkpt>
      <trkpt lat="47.77414" lon="-2.39815">
        <ele>46</ele>
        <time>2021-08-07T10:10:36Z</time>
      </trkpt>
      <trkpt lat="47.77419" lon="-2.39815">
        <ele>46.2</ele>
        <time>2021-08-07T10:10:38Z</time>
      </trkpt>
      <trkpt lat="47.77421" lon="-2.39814">
        <ele>46.2</ele>
        <time>2021-08-07T10:10:39Z</time>
      </trkpt>
      <trkpt lat="47.77423" lon="-2.39814">
        <ele>46.4</ele>
        <time>2021-08-07T10:10:40Z</time>
      </trkpt>
      <trkpt lat="47.77426" lon="-2.39815">
        <ele>46.4</ele>
        <time>2021-08-07T10:10:41Z</time>
      </trkpt>
      <trkpt lat="47.77427" lon="-2.39816">
        <ele>46.4</ele>
        <time>2021-08-07T10:10:42Z</time>
      </trkpt>
      <trkpt lat="47.77429" lon="-2.39816">
        <ele>46.4</ele>
        <time>2021-08-07T10:10:43Z</time>
      </trkpt>
      <trkpt lat="47.77431" lon="-2.39816">
        <ele>46.4</ele>
        <time>2021-08-07T10:10:44Z</time>
      </trkpt>
      <trkpt lat="47.77433" lon="-2.39816">
        <ele>46.4</ele>
        <time>2021-08-07T10:10:45Z</time>
      </trkpt>
      <trkpt lat="47.77436" lon="-2.39816">
        <ele>46.4</ele>
        <time>2021-08-07T10:10:46Z</time>
      </trkpt>
      <trkpt lat="47.77439" lon="-2.39815">
        <ele>46.4</ele>
        <time>2021-08-07T10:10:47Z</time>
      </trkpt>
      <trkpt lat="47.77447" lon="-2.39813">
        <ele>46.2</ele>
        <time>2021-08-07T10:10:49Z</time>
      </trkpt>
      <trkpt lat="47.77451" lon="-2.39812">
        <ele>46.2</ele>
        <time>2021-08-07T10:10:50Z</time>
      </trkpt>
      <trkpt lat="47.77455" lon="-2.39811">
        <ele>46</ele>
        <time>2021-08-07T10:10:51Z</time>
      </trkpt>
      <trkpt lat="47.7746" lon="-2.39811">
        <ele>45.8</ele>
        <time>2021-08-07T10:10:52Z</time>
      </trkpt>
      <trkpt lat="47.77465" lon="-2.3981">
        <ele>45.8</ele>
        <time>2021-08-07T10:10:53Z</time>
      </trkpt>
      <trkpt lat="47.7747" lon="-2.39809">
        <ele>45.6</ele>
        <time>2021-08-07T10:10:54Z</time>
      </trkpt>
      <trkpt lat="47.77475" lon="-2.39808">
        <ele>45.4</ele>
        <time>2021-08-07T10:10:55Z</time>
      </trkpt>
      <trkpt lat="47.77481" lon="-2.39806">
        <ele>45.2</ele>
        <time>2021-08-07T10:10:56Z</time>
      </trkpt>
      <trkpt lat="47.77486" lon="-2.39805">
        <ele>45</ele>
        <time>2021-08-07T10:10:57Z</time>
      </trkpt>
      <trkpt lat="47.77492" lon="-2.39803">
        <ele>44.8</ele>
        <time>2021-08-07T10:10:58Z</time>
      </trkpt>
      <trkpt lat="47.77496" lon="-2.39802">
        <ele>44.8</ele>
        <time>2021-08-07T10:10:59Z</time>
      </trkpt>
      <trkpt lat="47.775" lon="-2.39799">
        <ele>44.8</ele>
        <time>2021-08-07T10:11:00Z</time>
      </trkpt>
      <trkpt lat="47.77504" lon="-2.39797">
        <ele>44.8</ele>
        <time>2021-08-07T10:11:01Z</time>
      </trkpt>
      <trkpt lat="47.77508" lon="-2.39795">
        <ele>44.6</ele>
        <time>2021-08-07T10:11:02Z</time>
      </trkpt>
      <trkpt lat="47.77512" lon="-2.39793">
        <ele>44.6</ele>
        <time>2021-08-07T10:11:03Z</time>
      </trkpt>
      <trkpt lat="47.77516" lon="-2.39791">
        <ele>44.6</ele>
        <time>2021-08-07T10:11:04Z</time>
      </trkpt>
      <trkpt lat="47.7752" lon="-2.39789">
        <ele>44.4</ele>
        <time>2021-08-07T10:11:05Z</time>
      </trkpt>
      <trkpt lat="47.77525" lon="-2.39786">
        <ele>44.4</ele>
        <time>2021-08-07T10:11:06Z</time>
      </trkpt>
      <trkpt lat="47.7753" lon="-2.39783">
        <ele>44.4</ele>
        <time>2021-08-07T10:11:07Z</time>
      </trkpt>
      <trkpt lat="47.77535" lon="-2.3978">
        <ele>44.4</ele>
        <time>2021-08-07T10:11:08Z</time>
      </trkpt>
      <trkpt lat="47.7754" lon="-2.39777">
        <ele>44.4</ele>
        <time>2021-08-07T10:11:09Z</time>
      </trkpt>
      <trkpt lat="47.77553" lon="-2.39769">
        <ele>44.2</ele>
        <time>2021-08-07T10:11:11Z</time>
      </trkpt>
      <trkpt lat="47.77559" lon="-2.39766">
        <ele>44.2</ele>
        <time>2021-08-07T10:11:12Z</time>
      </trkpt>
      <trkpt lat="47.77566" lon="-2.39762">
        <ele>44.2</ele>
        <time>2021-08-07T10:11:13Z</time>
      </trkpt>
      <trkpt lat="47.77572" lon="-2.39758">
        <ele>44</ele>
        <time>2021-08-07T10:11:14Z</time>
      </trkpt>
      <trkpt lat="47.77577" lon="-2.39754">
        <ele>44</ele>
        <time>2021-08-07T10:11:15Z</time>
      </trkpt>
      <trkpt lat="47.77582" lon="-2.3975">
        <ele>44</ele>
        <time>2021-08-07T10:11:16Z</time>
      </trkpt>
      <trkpt lat="47.77587" lon="-2.39746">
        <ele>43.8</ele>
        <time>2021-08-07T10:11:17Z</time>
      </trkpt>
      <trkpt lat="47.77592" lon="-2.39742">
        <ele>43.8</ele>
        <time>2021-08-07T10:11:18Z</time>
      </trkpt>
      <trkpt lat="47.77596" lon="-2.39738">
        <ele>43.6</ele>
        <time>2021-08-07T10:11:19Z</time>
      </trkpt>
      <trkpt lat="47.776" lon="-2.39733">
        <ele>43.4</ele>
        <time>2021-08-07T10:11:20Z</time>
      </trkpt>
      <trkpt lat="47.77608" lon="-2.39725">
        <ele>43.4</ele>
        <time>2021-08-07T10:11:22Z</time>
      </trkpt>
      <trkpt lat="47.77611" lon="-2.39721">
        <ele>43.2</ele>
        <time>2021-08-07T10:11:23Z</time>
      </trkpt>
      <trkpt lat="47.77615" lon="-2.39716">
        <ele>43.2</ele>
        <time>2021-08-07T10:11:24Z</time>
      </trkpt>
      <trkpt lat="47.7762" lon="-2.39711">
        <ele>43.2</ele>
        <time>2021-08-07T10:11:25Z</time>
      </trkpt>
      <trkpt lat="47.77625" lon="-2.39706">
        <ele>43.2</ele>
        <time>2021-08-07T10:11:26Z</time>
      </trkpt>
      <trkpt lat="47.77629" lon="-2.39701">
        <ele>43</ele>
        <time>2021-08-07T10:11:27Z</time>
      </trkpt>
      <trkpt lat="47.77633" lon="-2.39696">
        <ele>43</ele>
        <time>2021-08-07T10:11:28Z</time>
      </trkpt>
      <trkpt lat="47.77637" lon="-2.39691">
        <ele>43</ele>
        <time>2021-08-07T10:11:29Z</time>
      </trkpt>
      <trkpt lat="47.77641" lon="-2.39686">
        <ele>43</ele>
        <time>2021-08-07T10:11:30Z</time>
      </trkpt>
      <trkpt lat="47.77644" lon="-2.39681">
        <ele>43</ele>
        <time>2021-08-07T10:11:31Z</time>
      </trkpt>
      <trkpt lat="47.77648" lon="-2.39675">
        <ele>42.8</ele>
        <time>2021-08-07T10:11:32Z</time>
      </trkpt>
      <trkpt lat="47.7765" lon="-2.39669">
        <ele>42.8</ele>
        <time>2021-08-07T10:11:33Z</time>
      </trkpt>
      <trkpt lat="47.77653" lon="-2.39664">
        <ele>42.6</ele>
        <time>2021-08-07T10:11:34Z</time>
      </trkpt>
      <trkpt lat="47.77656" lon="-2.39659">
        <ele>42.6</ele>
        <time>2021-08-07T10:11:35Z</time>
      </trkpt>
      <trkpt lat="47.77658" lon="-2.39654">
        <ele>42.6</ele>
        <time>2021-08-07T10:11:36Z</time>
      </trkpt>
      <trkpt lat="47.7766" lon="-2.39648">
        <ele>42.4</ele>
        <time>2021-08-07T10:11:37Z</time>
      </trkpt>
      <trkpt lat="47.77663" lon="-2.39643">
        <ele>42.4</ele>
        <time>2021-08-07T10:11:38Z</time>
      </trkpt>
      <trkpt lat="47.77667" lon="-2.39636">
        <ele>42.4</ele>
        <time>2021-08-07T10:11:39Z</time>
      </trkpt>
      <trkpt lat="47.7767" lon="-2.3963">
        <ele>42.2</ele>
        <time>2021-08-07T10:11:40Z</time>
      </trkpt>
      <trkpt lat="47.77673" lon="-2.39624">
        <ele>42</ele>
        <time>2021-08-07T10:11:41Z</time>
      </trkpt>
      <trkpt lat="47.77676" lon="-2.39618">
        <ele>42</ele>
        <time>2021-08-07T10:11:42Z</time>
      </trkpt>
      <trkpt lat="47.77681" lon="-2.39605">
        <ele>41.8</ele>
        <time>2021-08-07T10:11:44Z</time>
      </trkpt>
      <trkpt lat="47.77685" lon="-2.39597">
        <ele>41.8</ele>
        <time>2021-08-07T10:11:45Z</time>
      </trkpt>
      <trkpt lat="47.77688" lon="-2.39591">
        <ele>41.8</ele>
        <time>2021-08-07T10:11:46Z</time>
      </trkpt>
      <trkpt lat="47.77691" lon="-2.39585">
        <ele>41.6</ele>
        <time>2021-08-07T10:11:47Z</time>
      </trkpt>
      <trkpt lat="47.77694" lon="-2.39577">
        <ele>41.6</ele>
        <time>2021-08-07T10:11:48Z</time>
      </trkpt>
      <trkpt lat="47.77698" lon="-2.3957">
        <ele>41.6</ele>
        <time>2021-08-07T10:11:49Z</time>
      </trkpt>
      <trkpt lat="47.77702" lon="-2.39562">
        <ele>41.6</ele>
        <time>2021-08-07T10:11:50Z</time>
      </trkpt>
      <trkpt lat="47.77705" lon="-2.39555">
        <ele>41.4</ele>
        <time>2021-08-07T10:11:51Z</time>
      </trkpt>
      <trkpt lat="47.7771" lon="-2.39548">
        <ele>41.4</ele>
        <time>2021-08-07T10:11:52Z</time>
      </trkpt>
      <trkpt lat="47.77718" lon="-2.39533">
        <ele>41.2</ele>
        <time>2021-08-07T10:11:54Z</time>
      </trkpt>
      <trkpt lat="47.77721" lon="-2.39525">
        <ele>41</ele>
        <time>2021-08-07T10:11:55Z</time>
      </trkpt>
      <trkpt lat="47.77724" lon="-2.39517">
        <ele>41</ele>
        <time>2021-08-07T10:11:56Z</time>
      </trkpt>
      <trkpt lat="47.77728" lon="-2.3951">
        <ele>41</ele>
        <time>2021-08-07T10:11:57Z</time>
      </trkpt>
      <trkpt lat="47.7773" lon="-2.39503">
        <ele>40.8</ele>
        <time>2021-08-07T10:11:58Z</time>
      </trkpt>
      <trkpt lat="47.77733" lon="-2.39496">
        <ele>40.8</ele>
        <time>2021-08-07T10:11:59Z</time>
      </trkpt>
      <trkpt lat="47.77736" lon="-2.39489">
        <ele>40.6</ele>
        <time>2021-08-07T10:12:00Z</time>
      </trkpt>
      <trkpt lat="47.77739" lon="-2.39482">
        <ele>40.6</ele>
        <time>2021-08-07T10:12:01Z</time>
      </trkpt>
      <trkpt lat="47.77743" lon="-2.39475">
        <ele>40.6</ele>
        <time>2021-08-07T10:12:02Z</time>
      </trkpt>
      <trkpt lat="47.77746" lon="-2.39467">
        <ele>40.4</ele>
        <time>2021-08-07T10:12:03Z</time>
      </trkpt>
      <trkpt lat="47.77752" lon="-2.39452">
        <ele>40.2</ele>
        <time>2021-08-07T10:12:05Z</time>
      </trkpt>
      <trkpt lat="47.77756" lon="-2.39443">
        <ele>40</ele>
        <time>2021-08-07T10:12:06Z</time>
      </trkpt>
      <trkpt lat="47.77761" lon="-2.39435">
        <ele>40</ele>
        <time>2021-08-07T10:12:07Z</time>
      </trkpt>
      <trkpt lat="47.77765" lon="-2.39427">
        <ele>40</ele>
        <time>2021-08-07T10:12:08Z</time>
      </trkpt>
      <trkpt lat="47.7777" lon="-2.3942">
        <ele>40</ele>
        <time>2021-08-07T10:12:09Z</time>
      </trkpt>
      <trkpt lat="47.77775" lon="-2.39412">
        <ele>39.8</ele>
        <time>2021-08-07T10:12:10Z</time>
      </trkpt>
      <trkpt lat="47.77779" lon="-2.39404">
        <ele>39.6</ele>
        <time>2021-08-07T10:12:11Z</time>
      </trkpt>
      <trkpt lat="47.77784" lon="-2.39397">
        <ele>39.4</ele>
        <time>2021-08-07T10:12:12Z</time>
      </trkpt>
      <trkpt lat="47.77788" lon="-2.3939">
        <ele>39.4</ele>
        <time>2021-08-07T10:12:13Z</time>
      </trkpt>
      <trkpt lat="47.77792" lon="-2.39385">
        <ele>39.2</ele>
        <time>2021-08-07T10:12:14Z</time>
      </trkpt>
      <trkpt lat="47.77796" lon="-2.39379">
        <ele>39</ele>
        <time>2021-08-07T10:12:15Z</time>
      </trkpt>
      <trkpt lat="47.77799" lon="-2.39371">
        <ele>39</ele>
        <time>2021-08-07T10:12:16Z</time>
      </trkpt>
      <trkpt lat="47.77803" lon="-2.39363">
        <ele>39</ele>
        <time>2021-08-07T10:12:17Z</time>
      </trkpt>
      <trkpt lat="47.77809" lon="-2.39356">
        <ele>38.8</ele>
        <time>2021-08-07T10:12:18Z</time>
      </trkpt>
      <trkpt lat="47.77813" lon="-2.39349">
        <ele>38.8</ele>
        <time>2021-08-07T10:12:19Z</time>
      </trkpt>
      <trkpt lat="47.77818" lon="-2.39342">
        <ele>38.8</ele>
        <time>2021-08-07T10:12:20Z</time>
      </trkpt>
      <trkpt lat="47.77822" lon="-2.39335">
        <ele>38.8</ele>
        <time>2021-08-07T10:12:21Z</time>
      </trkpt>
      <trkpt lat="47.77827" lon="-2.39328">
        <ele>38.6</ele>
        <time>2021-08-07T10:12:22Z</time>
      </trkpt>
      <trkpt lat="47.77831" lon="-2.39321">
        <ele>38.6</ele>
        <time>2021-08-07T10:12:23Z</time>
      </trkpt>
      <trkpt lat="47.77835" lon="-2.39314">
        <ele>38.4</ele>
        <time>2021-08-07T10:12:24Z</time>
      </trkpt>
      <trkpt lat="47.77839" lon="-2.39306">
        <ele>38.4</ele>
        <time>2021-08-07T10:12:25Z</time>
      </trkpt>
      <trkpt lat="47.77848" lon="-2.39293">
        <ele>38.2</ele>
        <time>2021-08-07T10:12:27Z</time>
      </trkpt>
      <trkpt lat="47.77851" lon="-2.39287">
        <ele>38</ele>
        <time>2021-08-07T10:12:28Z</time>
      </trkpt>
      <trkpt lat="47.77856" lon="-2.3928">
        <ele>37.8</ele>
        <time>2021-08-07T10:12:29Z</time>
      </trkpt>
      <trkpt lat="47.77861" lon="-2.39274">
        <ele>37.6</ele>
        <time>2021-08-07T10:12:30Z</time>
      </trkpt>
      <trkpt lat="47.77865" lon="-2.39268">
        <ele>37.6</ele>
        <time>2021-08-07T10:12:31Z</time>
      </trkpt>
      <trkpt lat="47.7787" lon="-2.39262">
        <ele>37.4</ele>
        <time>2021-08-07T10:12:32Z</time>
      </trkpt>
      <trkpt lat="47.77874" lon="-2.39257">
        <ele>37.2</ele>
        <time>2021-08-07T10:12:33Z</time>
      </trkpt>
      <trkpt lat="47.77878" lon="-2.39251">
        <ele>37.2</ele>
        <time>2021-08-07T10:12:34Z</time>
      </trkpt>
      <trkpt lat="47.77882" lon="-2.39245">
        <ele>36.8</ele>
        <time>2021-08-07T10:12:35Z</time>
      </trkpt>
      <trkpt lat="47.77886" lon="-2.39239">
        <ele>36.6</ele>
        <time>2021-08-07T10:12:36Z</time>
      </trkpt>
      <trkpt lat="47.77889" lon="-2.39234">
        <ele>36.2</ele>
        <time>2021-08-07T10:12:37Z</time>
      </trkpt>
      <trkpt lat="47.77892" lon="-2.3923">
        <ele>36.2</ele>
        <time>2021-08-07T10:12:38Z</time>
      </trkpt>
      <trkpt lat="47.77896" lon="-2.39225">
        <ele>36</ele>
        <time>2021-08-07T10:12:39Z</time>
      </trkpt>
      <trkpt lat="47.77899" lon="-2.3922">
        <ele>35.8</ele>
        <time>2021-08-07T10:12:40Z</time>
      </trkpt>
      <trkpt lat="47.77904" lon="-2.39215">
        <ele>35.8</ele>
        <time>2021-08-07T10:12:41Z</time>
      </trkpt>
      <trkpt lat="47.77908" lon="-2.39211">
        <ele>35.8</ele>
        <time>2021-08-07T10:12:42Z</time>
      </trkpt>
      <trkpt lat="47.77912" lon="-2.39207">
        <ele>35.8</ele>
        <time>2021-08-07T10:12:43Z</time>
      </trkpt>
      <trkpt lat="47.77916" lon="-2.39203">
        <ele>35.8</ele>
        <time>2021-08-07T10:12:44Z</time>
      </trkpt>
      <trkpt lat="47.7792" lon="-2.392">
        <ele>35.8</ele>
        <time>2021-08-07T10:12:45Z</time>
      </trkpt>
      <trkpt lat="47.77922" lon="-2.39198">
        <ele>35.8</ele>
        <time>2021-08-07T10:12:46Z</time>
      </trkpt>
      <trkpt lat="47.77924" lon="-2.39197">
        <ele>35.8</ele>
        <time>2021-08-07T10:12:47Z</time>
      </trkpt>
      <trkpt lat="47.77925" lon="-2.39196">
        <ele>35.8</ele>
        <time>2021-08-07T10:12:48Z</time>
      </trkpt>
      <trkpt lat="47.77927" lon="-2.39195">
        <ele>35.8</ele>
        <time>2021-08-07T10:12:49Z</time>
      </trkpt>
      <trkpt lat="47.77928" lon="-2.39193">
        <ele>35.8</ele>
        <time>2021-08-07T10:12:50Z</time>
      </trkpt>
      <trkpt lat="47.7793" lon="-2.39191">
        <ele>35.8</ele>
        <time>2021-08-07T10:12:51Z</time>
      </trkpt>
      <trkpt lat="47.77931" lon="-2.39187">
        <ele>35.8</ele>
        <time>2021-08-07T10:12:53Z</time>
      </trkpt>
      <trkpt lat="47.77932" lon="-2.39184">
        <ele>35.8</ele>
        <time>2021-08-07T10:12:54Z</time>
      </trkpt>
      <trkpt lat="47.77933" lon="-2.39183">
        <ele>35.8</ele>
        <time>2021-08-07T10:12:55Z</time>
      </trkpt>
      <trkpt lat="47.77933" lon="-2.39182">
        <ele>35.8</ele>
        <time>2021-08-07T10:12:56Z</time>
      </trkpt>
      <trkpt lat="47.77934" lon="-2.39182">
        <ele>35.8</ele>
        <time>2021-08-07T10:12:57Z</time>
      </trkpt>
      <trkpt lat="47.77939" lon="-2.39175">
        <ele>36.2</ele>
        <time>2021-08-07T10:13:59Z</time>
      </trkpt>
      <trkpt lat="47.77941" lon="-2.39174">
        <ele>36.2</ele>
        <time>2021-08-07T10:14:00Z</time>
      </trkpt>
      <trkpt lat="47.77943" lon="-2.39172">
        <ele>36.2</ele>
        <time>2021-08-07T10:14:01Z</time>
      </trkpt>
      <trkpt lat="47.77944" lon="-2.3917">
        <ele>36.2</ele>
        <time>2021-08-07T10:14:02Z</time>
      </trkpt>
      <trkpt lat="47.77945" lon="-2.39166">
        <ele>36.2</ele>
        <time>2021-08-07T10:14:04Z</time>
      </trkpt>
      <trkpt lat="47.77946" lon="-2.39165">
        <ele>36.2</ele>
        <time>2021-08-07T10:14:05Z</time>
      </trkpt>
      <trkpt lat="47.77948" lon="-2.39164">
        <ele>36</ele>
        <time>2021-08-07T10:14:06Z</time>
      </trkpt>
      <trkpt lat="47.77949" lon="-2.39162">
        <ele>36</ele>
        <time>2021-08-07T10:14:07Z</time>
      </trkpt>
      <trkpt lat="47.77951" lon="-2.39159">
        <ele>36</ele>
        <time>2021-08-07T10:14:08Z</time>
      </trkpt>
      <trkpt lat="47.77954" lon="-2.39156">
        <ele>35.8</ele>
        <time>2021-08-07T10:14:09Z</time>
      </trkpt>
      <trkpt lat="47.77957" lon="-2.39153">
        <ele>35.8</ele>
        <time>2021-08-07T10:14:10Z</time>
      </trkpt>
      <trkpt lat="47.77964" lon="-2.39145">
        <ele>35.6</ele>
        <time>2021-08-07T10:14:12Z</time>
      </trkpt>
      <trkpt lat="47.77968" lon="-2.39141">
        <ele>35.6</ele>
        <time>2021-08-07T10:14:13Z</time>
      </trkpt>
      <trkpt lat="47.77972" lon="-2.39137">
        <ele>35.4</ele>
        <time>2021-08-07T10:14:14Z</time>
      </trkpt>
      <trkpt lat="47.77976" lon="-2.39133">
        <ele>35.4</ele>
        <time>2021-08-07T10:14:15Z</time>
      </trkpt>
      <trkpt lat="47.77979" lon="-2.39129">
        <ele>35.2</ele>
        <time>2021-08-07T10:14:16Z</time>
      </trkpt>
      <trkpt lat="47.77983" lon="-2.39125">
        <ele>35</ele>
        <time>2021-08-07T10:14:17Z</time>
      </trkpt>
      <trkpt lat="47.77987" lon="-2.39122">
        <ele>34.8</ele>
        <time>2021-08-07T10:14:18Z</time>
      </trkpt>
      <trkpt lat="47.77991" lon="-2.39118">
        <ele>34.4</ele>
        <time>2021-08-07T10:14:19Z</time>
      </trkpt>
      <trkpt lat="47.77995" lon="-2.39114">
        <ele>34.2</ele>
        <time>2021-08-07T10:14:20Z</time>
      </trkpt>
      <trkpt lat="47.77998" lon="-2.39111">
        <ele>33.8</ele>
        <time>2021-08-07T10:14:21Z</time>
      </trkpt>
      <trkpt lat="47.78002" lon="-2.39107">
        <ele>33.6</ele>
        <time>2021-08-07T10:14:22Z</time>
      </trkpt>
      <trkpt lat="47.78006" lon="-2.39103">
        <ele>33.6</ele>
        <time>2021-08-07T10:14:23Z</time>
      </trkpt>
      <trkpt lat="47.7801" lon="-2.39099">
        <ele>33.6</ele>
        <time>2021-08-07T10:14:24Z</time>
      </trkpt>
      <trkpt lat="47.78014" lon="-2.39095">
        <ele>33.4</ele>
        <time>2021-08-07T10:14:25Z</time>
      </trkpt>
      <trkpt lat="47.78018" lon="-2.39091">
        <ele>33.4</ele>
        <time>2021-08-07T10:14:26Z</time>
      </trkpt>
      <trkpt lat="47.78023" lon="-2.39087">
        <ele>33.4</ele>
        <time>2021-08-07T10:14:27Z</time>
      </trkpt>
      <trkpt lat="47.78027" lon="-2.39084">
        <ele>33.4</ele>
        <time>2021-08-07T10:14:28Z</time>
      </trkpt>
      <trkpt lat="47.78031" lon="-2.3908">
        <ele>33.4</ele>
        <time>2021-08-07T10:14:29Z</time>
      </trkpt>
      <trkpt lat="47.78036" lon="-2.39076">
        <ele>33.4</ele>
        <time>2021-08-07T10:14:30Z</time>
      </trkpt>
      <trkpt lat="47.7804" lon="-2.39073">
        <ele>33.2</ele>
        <time>2021-08-07T10:14:31Z</time>
      </trkpt>
      <trkpt lat="47.78045" lon="-2.39069">
        <ele>33.2</ele>
        <time>2021-08-07T10:14:32Z</time>
      </trkpt>
      <trkpt lat="47.78054" lon="-2.39063">
        <ele>33.2</ele>
        <time>2021-08-07T10:14:34Z</time>
      </trkpt>
      <trkpt lat="47.78058" lon="-2.39059">
        <ele>33.2</ele>
        <time>2021-08-07T10:14:35Z</time>
      </trkpt>
      <trkpt lat="47.78063" lon="-2.39055">
        <ele>33.2</ele>
        <time>2021-08-07T10:14:36Z</time>
      </trkpt>
      <trkpt lat="47.78068" lon="-2.39052">
        <ele>33.2</ele>
        <time>2021-08-07T10:14:37Z</time>
      </trkpt>
      <trkpt lat="47.78073" lon="-2.39048">
        <ele>33.2</ele>
        <time>2021-08-07T10:14:38Z</time>
      </trkpt>
      <trkpt lat="47.78078" lon="-2.39045">
        <ele>33</ele>
        <time>2021-08-07T10:14:39Z</time>
      </trkpt>
      <trkpt lat="47.78082" lon="-2.39041">
        <ele>33</ele>
        <time>2021-08-07T10:14:40Z</time>
      </trkpt>
      <trkpt lat="47.78088" lon="-2.39038">
        <ele>33</ele>
        <time>2021-08-07T10:14:41Z</time>
      </trkpt>
      <trkpt lat="47.78093" lon="-2.39035">
        <ele>32.8</ele>
        <time>2021-08-07T10:14:42Z</time>
      </trkpt>
      <trkpt lat="47.78098" lon="-2.39032">
        <ele>32.6</ele>
        <time>2021-08-07T10:14:43Z</time>
      </trkpt>
      <trkpt lat="47.78109" lon="-2.39026">
        <ele>32.6</ele>
        <time>2021-08-07T10:14:45Z</time>
      </trkpt>
      <trkpt lat="47.78114" lon="-2.39023">
        <ele>32.4</ele>
        <time>2021-08-07T10:14:46Z</time>
      </trkpt>
      <trkpt lat="47.78119" lon="-2.3902">
        <ele>32.4</ele>
        <time>2021-08-07T10:14:47Z</time>
      </trkpt>
      <trkpt lat="47.78124" lon="-2.39017">
        <ele>32.4</ele>
        <time>2021-08-07T10:14:48Z</time>
      </trkpt>
      <trkpt lat="47.78128" lon="-2.39014">
        <ele>32.4</ele>
        <time>2021-08-07T10:14:49Z</time>
      </trkpt>
      <trkpt lat="47.78132" lon="-2.39011">
        <ele>32.4</ele>
        <time>2021-08-07T10:14:50Z</time>
      </trkpt>
      <trkpt lat="47.78137" lon="-2.39008">
        <ele>32.2</ele>
        <time>2021-08-07T10:14:51Z</time>
      </trkpt>
      <trkpt lat="47.78141" lon="-2.39006">
        <ele>32.2</ele>
        <time>2021-08-07T10:14:52Z</time>
      </trkpt>
      <trkpt lat="47.78145" lon="-2.39004">
        <ele>32.2</ele>
        <time>2021-08-07T10:14:53Z</time>
      </trkpt>
      <trkpt lat="47.78149" lon="-2.39002">
        <ele>32.2</ele>
        <time>2021-08-07T10:14:54Z</time>
      </trkpt>
      <trkpt lat="47.78156" lon="-2.38998">
        <ele>32.2</ele>
        <time>2021-08-07T10:14:56Z</time>
      </trkpt>
      <trkpt lat="47.78159" lon="-2.38996">
        <ele>32.2</ele>
        <time>2021-08-07T10:14:57Z</time>
      </trkpt>
      <trkpt lat="47.78163" lon="-2.38994">
        <ele>32.2</ele>
        <time>2021-08-07T10:14:58Z</time>
      </trkpt>
      <trkpt lat="47.78166" lon="-2.38991">
        <ele>32.2</ele>
        <time>2021-08-07T10:14:59Z</time>
      </trkpt>
      <trkpt lat="47.7817" lon="-2.38988">
        <ele>32.6</ele>
        <time>2021-08-07T10:15:00Z</time>
      </trkpt>
      <trkpt lat="47.78173" lon="-2.38986">
        <ele>32.6</ele>
        <time>2021-08-07T10:15:01Z</time>
      </trkpt>
      <trkpt lat="47.78175" lon="-2.38984">
        <ele>32.6</ele>
        <time>2021-08-07T10:15:02Z</time>
      </trkpt>
      <trkpt lat="47.78178" lon="-2.38982">
        <ele>32.6</ele>
        <time>2021-08-07T10:15:03Z</time>
      </trkpt>
      <trkpt lat="47.78181" lon="-2.3898">
        <ele>32.6</ele>
        <time>2021-08-07T10:15:04Z</time>
      </trkpt>
      <trkpt lat="47.78184" lon="-2.38977">
        <ele>32.6</ele>
        <time>2021-08-07T10:15:05Z</time>
      </trkpt>
      <trkpt lat="47.7819" lon="-2.38972">
        <ele>32.6</ele>
        <time>2021-08-07T10:15:07Z</time>
      </trkpt>
      <trkpt lat="47.78193" lon="-2.3897">
        <ele>32.8</ele>
        <time>2021-08-07T10:15:08Z</time>
      </trkpt>
      <trkpt lat="47.78197" lon="-2.38967">
        <ele>32.8</ele>
        <time>2021-08-07T10:15:09Z</time>
      </trkpt>
      <trkpt lat="47.782" lon="-2.38965">
        <ele>32.8</ele>
        <time>2021-08-07T10:15:10Z</time>
      </trkpt>
      <trkpt lat="47.78202" lon="-2.38962">
        <ele>32.8</ele>
        <time>2021-08-07T10:15:11Z</time>
      </trkpt>
      <trkpt lat="47.78206" lon="-2.3896">
        <ele>32.8</ele>
        <time>2021-08-07T10:15:12Z</time>
      </trkpt>
      <trkpt lat="47.78209" lon="-2.38957">
        <ele>33</ele>
        <time>2021-08-07T10:15:13Z</time>
      </trkpt>
      <trkpt lat="47.78212" lon="-2.38955">
        <ele>33</ele>
        <time>2021-08-07T10:15:14Z</time>
      </trkpt>
      <trkpt lat="47.78217" lon="-2.38953">
        <ele>33</ele>
        <time>2021-08-07T10:15:15Z</time>
      </trkpt>
      <trkpt lat="47.7822" lon="-2.38951">
        <ele>33</ele>
        <time>2021-08-07T10:15:16Z</time>
      </trkpt>
      <trkpt lat="47.78227" lon="-2.38946">
        <ele>33</ele>
        <time>2021-08-07T10:15:18Z</time>
      </trkpt>
      <trkpt lat="47.78231" lon="-2.38944">
        <ele>33</ele>
        <time>2021-08-07T10:15:19Z</time>
      </trkpt>
      <trkpt lat="47.78234" lon="-2.38943">
        <ele>33.2</ele>
        <time>2021-08-07T10:15:20Z</time>
      </trkpt>
      <trkpt lat="47.78238" lon="-2.38941">
        <ele>33.2</ele>
        <time>2021-08-07T10:15:21Z</time>
      </trkpt>
      <trkpt lat="47.78241" lon="-2.38939">
        <ele>33.2</ele>
        <time>2021-08-07T10:15:22Z</time>
      </trkpt>
      <trkpt lat="47.78244" lon="-2.38938">
        <ele>33.2</ele>
        <time>2021-08-07T10:15:23Z</time>
      </trkpt>
      <trkpt lat="47.78248" lon="-2.38936">
        <ele>33.4</ele>
        <time>2021-08-07T10:15:24Z</time>
      </trkpt>
      <trkpt lat="47.78252" lon="-2.38936">
        <ele>33.4</ele>
        <time>2021-08-07T10:15:25Z</time>
      </trkpt>
      <trkpt lat="47.78256" lon="-2.38935">
        <ele>33.4</ele>
        <time>2021-08-07T10:15:26Z</time>
      </trkpt>
      <trkpt lat="47.78261" lon="-2.38934">
        <ele>33.6</ele>
        <time>2021-08-07T10:15:27Z</time>
      </trkpt>
      <trkpt lat="47.78265" lon="-2.38933">
        <ele>33.6</ele>
        <time>2021-08-07T10:15:28Z</time>
      </trkpt>
      <trkpt lat="47.78268" lon="-2.38932">
        <ele>33.6</ele>
        <time>2021-08-07T10:15:29Z</time>
      </trkpt>
      <trkpt lat="47.78272" lon="-2.38931">
        <ele>33.6</ele>
        <time>2021-08-07T10:15:30Z</time>
      </trkpt>
      <trkpt lat="47.78276" lon="-2.3893">
        <ele>33.6</ele>
        <time>2021-08-07T10:15:31Z</time>
      </trkpt>
      <trkpt lat="47.7828" lon="-2.38928">
        <ele>33.8</ele>
        <time>2021-08-07T10:15:32Z</time>
      </trkpt>
      <trkpt lat="47.78284" lon="-2.38927">
        <ele>33.8</ele>
        <time>2021-08-07T10:15:33Z</time>
      </trkpt>
      <trkpt lat="47.78288" lon="-2.38926">
        <ele>33.8</ele>
        <time>2021-08-07T10:15:34Z</time>
      </trkpt>
      <trkpt lat="47.78294" lon="-2.38927">
        <ele>33.8</ele>
        <time>2021-08-07T10:15:35Z</time>
      </trkpt>
      <trkpt lat="47.78298" lon="-2.38926">
        <ele>33.8</ele>
        <time>2021-08-07T10:15:36Z</time>
      </trkpt>
      <trkpt lat="47.78301" lon="-2.38926">
        <ele>33.8</ele>
        <time>2021-08-07T10:15:37Z</time>
      </trkpt>
      <trkpt lat="47.78306" lon="-2.38926">
        <ele>34</ele>
        <time>2021-08-07T10:15:38Z</time>
      </trkpt>
      <trkpt lat="47.78315" lon="-2.38926">
        <ele>34.2</ele>
        <time>2021-08-07T10:15:40Z</time>
      </trkpt>
      <trkpt lat="47.78321" lon="-2.38926">
        <ele>34.4</ele>
        <time>2021-08-07T10:15:41Z</time>
      </trkpt>
      <trkpt lat="47.78326" lon="-2.38926">
        <ele>34.2</ele>
        <time>2021-08-07T10:15:42Z</time>
      </trkpt>
      <trkpt lat="47.78331" lon="-2.38925">
        <ele>34.4</ele>
        <time>2021-08-07T10:15:43Z</time>
      </trkpt>
      <trkpt lat="47.78336" lon="-2.38926">
        <ele>34.4</ele>
        <time>2021-08-07T10:15:44Z</time>
      </trkpt>
      <trkpt lat="47.78342" lon="-2.38926">
        <ele>34.4</ele>
        <time>2021-08-07T10:15:45Z</time>
      </trkpt>
      <trkpt lat="47.78347" lon="-2.38926">
        <ele>34.6</ele>
        <time>2021-08-07T10:15:46Z</time>
      </trkpt>
      <trkpt lat="47.78352" lon="-2.38926">
        <ele>34.6</ele>
        <time>2021-08-07T10:15:47Z</time>
      </trkpt>
      <trkpt lat="47.78357" lon="-2.38927">
        <ele>34.6</ele>
        <time>2021-08-07T10:15:48Z</time>
      </trkpt>
      <trkpt lat="47.78363" lon="-2.38927">
        <ele>34.6</ele>
        <time>2021-08-07T10:15:49Z</time>
      </trkpt>
      <trkpt lat="47.78373" lon="-2.38928">
        <ele>34.6</ele>
        <time>2021-08-07T10:15:51Z</time>
      </trkpt>
      <trkpt lat="47.78379" lon="-2.38929">
        <ele>34.8</ele>
        <time>2021-08-07T10:15:52Z</time>
      </trkpt>
      <trkpt lat="47.78384" lon="-2.3893">
        <ele>34.8</ele>
        <time>2021-08-07T10:15:53Z</time>
      </trkpt>
      <trkpt lat="47.78389" lon="-2.3893">
        <ele>35</ele>
        <time>2021-08-07T10:15:54Z</time>
      </trkpt>
      <trkpt lat="47.78394" lon="-2.38931">
        <ele>35</ele>
        <time>2021-08-07T10:15:55Z</time>
      </trkpt>
      <trkpt lat="47.78399" lon="-2.38932">
        <ele>35</ele>
        <time>2021-08-07T10:15:56Z</time>
      </trkpt>
      <trkpt lat="47.78404" lon="-2.38933">
        <ele>35</ele>
        <time>2021-08-07T10:15:57Z</time>
      </trkpt>
      <trkpt lat="47.78408" lon="-2.38934">
        <ele>35</ele>
        <time>2021-08-07T10:15:58Z</time>
      </trkpt>
      <trkpt lat="47.78413" lon="-2.38935">
        <ele>35</ele>
        <time>2021-08-07T10:15:59Z</time>
      </trkpt>
      <trkpt lat="47.78418" lon="-2.38936">
        <ele>35</ele>
        <time>2021-08-07T10:16:00Z</time>
      </trkpt>
      <trkpt lat="47.78427" lon="-2.38939">
        <ele>35</ele>
        <time>2021-08-07T10:16:02Z</time>
      </trkpt>
      <trkpt lat="47.78432" lon="-2.38941">
        <ele>35</ele>
        <time>2021-08-07T10:16:03Z</time>
      </trkpt>
      <trkpt lat="47.78436" lon="-2.38943">
        <ele>35</ele>
        <time>2021-08-07T10:16:04Z</time>
      </trkpt>
      <trkpt lat="47.7844" lon="-2.38944">
        <ele>35</ele>
        <time>2021-08-07T10:16:05Z</time>
      </trkpt>
      <trkpt lat="47.78445" lon="-2.38946">
        <ele>35</ele>
        <time>2021-08-07T10:16:06Z</time>
      </trkpt>
      <trkpt lat="47.78449" lon="-2.38948">
        <ele>35</ele>
        <time>2021-08-07T10:16:07Z</time>
      </trkpt>
      <trkpt lat="47.78454" lon="-2.38949">
        <ele>35</ele>
        <time>2021-08-07T10:16:08Z</time>
      </trkpt>
      <trkpt lat="47.78458" lon="-2.38951">
        <ele>35</ele>
        <time>2021-08-07T10:16:09Z</time>
      </trkpt>
      <trkpt lat="47.78462" lon="-2.38953">
        <ele>35</ele>
        <time>2021-08-07T10:16:10Z</time>
      </trkpt>
      <trkpt lat="47.78466" lon="-2.38955">
        <ele>35.2</ele>
        <time>2021-08-07T10:16:11Z</time>
      </trkpt>
      <trkpt lat="47.78474" lon="-2.38959">
        <ele>35.2</ele>
        <time>2021-08-07T10:16:13Z</time>
      </trkpt>
      <trkpt lat="47.78478" lon="-2.38961">
        <ele>35.4</ele>
        <time>2021-08-07T10:16:14Z</time>
      </trkpt>
      <trkpt lat="47.78482" lon="-2.38963">
        <ele>35.6</ele>
        <time>2021-08-07T10:16:15Z</time>
      </trkpt>
      <trkpt lat="47.78485" lon="-2.38965">
        <ele>35.8</ele>
        <time>2021-08-07T10:16:16Z</time>
      </trkpt>
      <trkpt lat="47.78489" lon="-2.38967">
        <ele>36</ele>
        <time>2021-08-07T10:16:17Z</time>
      </trkpt>
      <trkpt lat="47.78492" lon="-2.38969">
        <ele>36</ele>
        <time>2021-08-07T10:16:18Z</time>
      </trkpt>
      <trkpt lat="47.78495" lon="-2.38971">
        <ele>36.2</ele>
        <time>2021-08-07T10:16:19Z</time>
      </trkpt>
      <trkpt lat="47.78498" lon="-2.38973">
        <ele>36.4</ele>
        <time>2021-08-07T10:16:20Z</time>
      </trkpt>
      <trkpt lat="47.785" lon="-2.38974">
        <ele>36.4</ele>
        <time>2021-08-07T10:16:21Z</time>
      </trkpt>
      <trkpt lat="47.78503" lon="-2.38976">
        <ele>36.4</ele>
        <time>2021-08-07T10:16:22Z</time>
      </trkpt>
      <trkpt lat="47.78508" lon="-2.38979">
        <ele>36.4</ele>
        <time>2021-08-07T10:16:24Z</time>
      </trkpt>
      <trkpt lat="47.78511" lon="-2.38981">
        <ele>36.6</ele>
        <time>2021-08-07T10:16:25Z</time>
      </trkpt>
      <trkpt lat="47.78513" lon="-2.38982">
        <ele>36.6</ele>
        <time>2021-08-07T10:16:26Z</time>
      </trkpt>
      <trkpt lat="47.78515" lon="-2.38984">
        <ele>36.8</ele>
        <time>2021-08-07T10:16:27Z</time>
      </trkpt>
      <trkpt lat="47.78517" lon="-2.38986">
        <ele>36.8</ele>
        <time>2021-08-07T10:16:28Z</time>
      </trkpt>
      <trkpt lat="47.78518" lon="-2.38988">
        <ele>36.8</ele>
        <time>2021-08-07T10:16:29Z</time>
      </trkpt>
      <trkpt lat="47.78519" lon="-2.3899">
        <ele>37</ele>
        <time>2021-08-07T10:16:30Z</time>
      </trkpt>
      <trkpt lat="47.7852" lon="-2.38991">
        <ele>37</ele>
        <time>2021-08-07T10:16:31Z</time>
      </trkpt>
      <trkpt lat="47.78521" lon="-2.38992">
        <ele>37.2</ele>
        <time>2021-08-07T10:16:32Z</time>
      </trkpt>
      <trkpt lat="47.78524" lon="-2.38993">
        <ele>37.2</ele>
        <time>2021-08-07T10:16:33Z</time>
      </trkpt>
      <trkpt lat="47.78525" lon="-2.38993">
        <ele>37.4</ele>
        <time>2021-08-07T10:16:34Z</time>
      </trkpt>
      <trkpt lat="47.78527" lon="-2.38994">
        <ele>37.4</ele>
        <time>2021-08-07T10:16:35Z</time>
      </trkpt>
      <trkpt lat="47.78529" lon="-2.38995">
        <ele>37.6</ele>
        <time>2021-08-07T10:16:36Z</time>
      </trkpt>
      <trkpt lat="47.7853" lon="-2.38997">
        <ele>37.6</ele>
        <time>2021-08-07T10:16:37Z</time>
      </trkpt>
      <trkpt lat="47.78532" lon="-2.38999">
        <ele>37.8</ele>
        <time>2021-08-07T10:16:38Z</time>
      </trkpt>
      <trkpt lat="47.78534" lon="-2.39001">
        <ele>37.8</ele>
        <time>2021-08-07T10:16:39Z</time>
      </trkpt>
      <trkpt lat="47.78536" lon="-2.39003">
        <ele>37.8</ele>
        <time>2021-08-07T10:16:40Z</time>
      </trkpt>
      <trkpt lat="47.78538" lon="-2.39004">
        <ele>37.8</ele>
        <time>2021-08-07T10:16:41Z</time>
      </trkpt>
      <trkpt lat="47.7854" lon="-2.39007">
        <ele>38</ele>
        <time>2021-08-07T10:16:42Z</time>
      </trkpt>
      <trkpt lat="47.78545" lon="-2.39012">
        <ele>38.4</ele>
        <time>2021-08-07T10:16:44Z</time>
      </trkpt>
      <trkpt lat="47.78547" lon="-2.39015">
        <ele>38.4</ele>
        <time>2021-08-07T10:16:45Z</time>
      </trkpt>
      <trkpt lat="47.7855" lon="-2.39017">
        <ele>38.4</ele>
        <time>2021-08-07T10:16:46Z</time>
      </trkpt>
      <trkpt lat="47.78552" lon="-2.39019">
        <ele>38.4</ele>
        <time>2021-08-07T10:16:47Z</time>
      </trkpt>
      <trkpt lat="47.78554" lon="-2.39022">
        <ele>38.4</ele>
        <time>2021-08-07T10:16:48Z</time>
      </trkpt>
      <trkpt lat="47.78556" lon="-2.39024">
        <ele>38.4</ele>
        <time>2021-08-07T10:16:49Z</time>
      </trkpt>
      <trkpt lat="47.78559" lon="-2.39027">
        <ele>38.6</ele>
        <time>2021-08-07T10:16:50Z</time>
      </trkpt>
      <trkpt lat="47.78561" lon="-2.3903">
        <ele>38.6</ele>
        <time>2021-08-07T10:16:51Z</time>
      </trkpt>
      <trkpt lat="47.78563" lon="-2.39032">
        <ele>38.6</ele>
        <time>2021-08-07T10:16:52Z</time>
      </trkpt>
      <trkpt lat="47.78566" lon="-2.39035">
        <ele>38.6</ele>
        <time>2021-08-07T10:16:53Z</time>
      </trkpt>
      <trkpt lat="47.78569" lon="-2.39039">
        <ele>38.6</ele>
        <time>2021-08-07T10:16:54Z</time>
      </trkpt>
      <trkpt lat="47.78571" lon="-2.39042">
        <ele>38.6</ele>
        <time>2021-08-07T10:16:55Z</time>
      </trkpt>
      <trkpt lat="47.78574" lon="-2.39044">
        <ele>38.6</ele>
        <time>2021-08-07T10:16:56Z</time>
      </trkpt>
      <trkpt lat="47.78576" lon="-2.39047">
        <ele>38.6</ele>
        <time>2021-08-07T10:16:57Z</time>
      </trkpt>
      <trkpt lat="47.78578" lon="-2.39049">
        <ele>38.6</ele>
        <time>2021-08-07T10:16:58Z</time>
      </trkpt>
      <trkpt lat="47.78581" lon="-2.39053">
        <ele>38.6</ele>
        <time>2021-08-07T10:16:59Z</time>
      </trkpt>
      <trkpt lat="47.78583" lon="-2.39057">
        <ele>38.6</ele>
        <time>2021-08-07T10:17:00Z</time>
      </trkpt>
      <trkpt lat="47.78586" lon="-2.3906">
        <ele>38.8</ele>
        <time>2021-08-07T10:17:01Z</time>
      </trkpt>
      <trkpt lat="47.78588" lon="-2.39064">
        <ele>38.8</ele>
        <time>2021-08-07T10:17:02Z</time>
      </trkpt>
      <trkpt lat="47.78593" lon="-2.3907">
        <ele>38.8</ele>
        <time>2021-08-07T10:17:04Z</time>
      </trkpt>
      <trkpt lat="47.78595" lon="-2.39074">
        <ele>38.8</ele>
        <time>2021-08-07T10:17:05Z</time>
      </trkpt>
      <trkpt lat="47.78597" lon="-2.39078">
        <ele>38.8</ele>
        <time>2021-08-07T10:17:06Z</time>
      </trkpt>
      <trkpt lat="47.786" lon="-2.39082">
        <ele>38.8</ele>
        <time>2021-08-07T10:17:07Z</time>
      </trkpt>
      <trkpt lat="47.78602" lon="-2.39085">
        <ele>38.6</ele>
        <time>2021-08-07T10:17:08Z</time>
      </trkpt>
      <trkpt lat="47.78606" lon="-2.39089">
        <ele>38.6</ele>
        <time>2021-08-07T10:17:09Z</time>
      </trkpt>
      <trkpt lat="47.7861" lon="-2.39094">
        <ele>38.6</ele>
        <time>2021-08-07T10:17:10Z</time>
      </trkpt>
      <trkpt lat="47.78614" lon="-2.39099">
        <ele>38.6</ele>
        <time>2021-08-07T10:17:11Z</time>
      </trkpt>
      <trkpt lat="47.78617" lon="-2.39104">
        <ele>38.6</ele>
        <time>2021-08-07T10:17:12Z</time>
      </trkpt>
      <trkpt lat="47.78622" lon="-2.39112">
        <ele>38.6</ele>
        <time>2021-08-07T10:17:14Z</time>
      </trkpt>
      <trkpt lat="47.78625" lon="-2.39116">
        <ele>38.6</ele>
        <time>2021-08-07T10:17:15Z</time>
      </trkpt>
      <trkpt lat="47.78627" lon="-2.3912">
        <ele>38.6</ele>
        <time>2021-08-07T10:17:16Z</time>
      </trkpt>
      <trkpt lat="47.78629" lon="-2.39124">
        <ele>38.6</ele>
        <time>2021-08-07T10:17:17Z</time>
      </trkpt>
      <trkpt lat="47.78632" lon="-2.39129">
        <ele>38.6</ele>
        <time>2021-08-07T10:17:18Z</time>
      </trkpt>
      <trkpt lat="47.78635" lon="-2.39134">
        <ele>38.6</ele>
        <time>2021-08-07T10:17:19Z</time>
      </trkpt>
      <trkpt lat="47.78638" lon="-2.39139">
        <ele>38.6</ele>
        <time>2021-08-07T10:17:20Z</time>
      </trkpt>
      <trkpt lat="47.78641" lon="-2.39144">
        <ele>38.6</ele>
        <time>2021-08-07T10:17:21Z</time>
      </trkpt>
      <trkpt lat="47.78643" lon="-2.39149">
        <ele>38.6</ele>
        <time>2021-08-07T10:17:22Z</time>
      </trkpt>
      <trkpt lat="47.78646" lon="-2.39155">
        <ele>38.6</ele>
        <time>2021-08-07T10:17:23Z</time>
      </trkpt>
      <trkpt lat="47.78649" lon="-2.3916">
        <ele>38.6</ele>
        <time>2021-08-07T10:17:24Z</time>
      </trkpt>
      <trkpt lat="47.78651" lon="-2.39165">
        <ele>38.8</ele>
        <time>2021-08-07T10:17:25Z</time>
      </trkpt>
      <trkpt lat="47.78654" lon="-2.3917">
        <ele>38.8</ele>
        <time>2021-08-07T10:17:26Z</time>
      </trkpt>
      <trkpt lat="47.78656" lon="-2.39175">
        <ele>38.8</ele>
        <time>2021-08-07T10:17:27Z</time>
      </trkpt>
      <trkpt lat="47.78658" lon="-2.39181">
        <ele>39</ele>
        <time>2021-08-07T10:17:28Z</time>
      </trkpt>
      <trkpt lat="47.7866" lon="-2.39187">
        <ele>39</ele>
        <time>2021-08-07T10:17:29Z</time>
      </trkpt>
      <trkpt lat="47.78662" lon="-2.39193">
        <ele>39</ele>
        <time>2021-08-07T10:17:30Z</time>
      </trkpt>
      <trkpt lat="47.78664" lon="-2.39198">
        <ele>39</ele>
        <time>2021-08-07T10:17:31Z</time>
      </trkpt>
      <trkpt lat="47.78667" lon="-2.39204">
        <ele>39</ele>
        <time>2021-08-07T10:17:32Z</time>
      </trkpt>
      <trkpt lat="47.78668" lon="-2.39211">
        <ele>39.2</ele>
        <time>2021-08-07T10:17:33Z</time>
      </trkpt>
      <trkpt lat="47.7867" lon="-2.39217">
        <ele>39.2</ele>
        <time>2021-08-07T10:17:34Z</time>
      </trkpt>
      <trkpt lat="47.78673" lon="-2.39224">
        <ele>39.4</ele>
        <time>2021-08-07T10:17:35Z</time>
      </trkpt>
      <trkpt lat="47.78675" lon="-2.3923">
        <ele>39.4</ele>
        <time>2021-08-07T10:17:36Z</time>
      </trkpt>
      <trkpt lat="47.78677" lon="-2.39237">
        <ele>39.6</ele>
        <time>2021-08-07T10:17:37Z</time>
      </trkpt>
      <trkpt lat="47.78679" lon="-2.39244">
        <ele>39.6</ele>
        <time>2021-08-07T10:17:38Z</time>
      </trkpt>
      <trkpt lat="47.78681" lon="-2.39251">
        <ele>39.8</ele>
        <time>2021-08-07T10:17:39Z</time>
      </trkpt>
      <trkpt lat="47.78683" lon="-2.39258">
        <ele>39.8</ele>
        <time>2021-08-07T10:17:40Z</time>
      </trkpt>
      <trkpt lat="47.78684" lon="-2.39265">
        <ele>40</ele>
        <time>2021-08-07T10:17:41Z</time>
      </trkpt>
      <trkpt lat="47.78686" lon="-2.39273">
        <ele>40</ele>
        <time>2021-08-07T10:17:42Z</time>
      </trkpt>
      <trkpt lat="47.78689" lon="-2.39288">
        <ele>40.2</ele>
        <time>2021-08-07T10:17:44Z</time>
      </trkpt>
      <trkpt lat="47.78691" lon="-2.39295">
        <ele>40.2</ele>
        <time>2021-08-07T10:17:45Z</time>
      </trkpt>
      <trkpt lat="47.78693" lon="-2.39302">
        <ele>40.2</ele>
        <time>2021-08-07T10:17:46Z</time>
      </trkpt>
      <trkpt lat="47.78695" lon="-2.39308">
        <ele>40.2</ele>
        <time>2021-08-07T10:17:47Z</time>
      </trkpt>
      <trkpt lat="47.78697" lon="-2.39315">
        <ele>40.4</ele>
        <time>2021-08-07T10:17:48Z</time>
      </trkpt>
      <trkpt lat="47.78698" lon="-2.39321">
        <ele>40.4</ele>
        <time>2021-08-07T10:17:49Z</time>
      </trkpt>
      <trkpt lat="47.787" lon="-2.39328">
        <ele>40.4</ele>
        <time>2021-08-07T10:17:50Z</time>
      </trkpt>
      <trkpt lat="47.78701" lon="-2.39335">
        <ele>40.4</ele>
        <time>2021-08-07T10:17:51Z</time>
      </trkpt>
      <trkpt lat="47.78703" lon="-2.39341">
        <ele>40.4</ele>
        <time>2021-08-07T10:17:52Z</time>
      </trkpt>
      <trkpt lat="47.78706" lon="-2.39354">
        <ele>40.4</ele>
        <time>2021-08-07T10:17:54Z</time>
      </trkpt>
      <trkpt lat="47.78708" lon="-2.3936">
        <ele>40.4</ele>
        <time>2021-08-07T10:17:55Z</time>
      </trkpt>
      <trkpt lat="47.7871" lon="-2.39367">
        <ele>40.4</ele>
        <time>2021-08-07T10:17:56Z</time>
      </trkpt>
      <trkpt lat="47.78712" lon="-2.39373">
        <ele>40.4</ele>
        <time>2021-08-07T10:17:57Z</time>
      </trkpt>
      <trkpt lat="47.78713" lon="-2.3938">
        <ele>40.4</ele>
        <time>2021-08-07T10:17:58Z</time>
      </trkpt>
      <trkpt lat="47.78715" lon="-2.39387">
        <ele>40.6</ele>
        <time>2021-08-07T10:17:59Z</time>
      </trkpt>
      <trkpt lat="47.78717" lon="-2.39393">
        <ele>40.8</ele>
        <time>2021-08-07T10:18:00Z</time>
      </trkpt>
      <trkpt lat="47.78718" lon="-2.39399">
        <ele>41</ele>
        <time>2021-08-07T10:18:01Z</time>
      </trkpt>
      <trkpt lat="47.7872" lon="-2.39404">
        <ele>41.2</ele>
        <time>2021-08-07T10:18:02Z</time>
      </trkpt>
      <trkpt lat="47.78721" lon="-2.3941">
        <ele>41.6</ele>
        <time>2021-08-07T10:18:03Z</time>
      </trkpt>
      <trkpt lat="47.78722" lon="-2.39416">
        <ele>41.6</ele>
        <time>2021-08-07T10:18:04Z</time>
      </trkpt>
      <trkpt lat="47.78724" lon="-2.39422">
        <ele>41.8</ele>
        <time>2021-08-07T10:18:05Z</time>
      </trkpt>
      <trkpt lat="47.78726" lon="-2.39428">
        <ele>41.8</ele>
        <time>2021-08-07T10:18:06Z</time>
      </trkpt>
      <trkpt lat="47.78727" lon="-2.39434">
        <ele>42</ele>
        <time>2021-08-07T10:18:07Z</time>
      </trkpt>
      <trkpt lat="47.78728" lon="-2.39441">
        <ele>42.2</ele>
        <time>2021-08-07T10:18:08Z</time>
      </trkpt>
      <trkpt lat="47.7873" lon="-2.39446">
        <ele>42.2</ele>
        <time>2021-08-07T10:18:09Z</time>
      </trkpt>
      <trkpt lat="47.78731" lon="-2.39452">
        <ele>42.4</ele>
        <time>2021-08-07T10:18:10Z</time>
      </trkpt>
      <trkpt lat="47.78733" lon="-2.39457">
        <ele>42.4</ele>
        <time>2021-08-07T10:18:11Z</time>
      </trkpt>
      <trkpt lat="47.78734" lon="-2.39462">
        <ele>42.6</ele>
        <time>2021-08-07T10:18:12Z</time>
      </trkpt>
      <trkpt lat="47.78736" lon="-2.39472">
        <ele>42.6</ele>
        <time>2021-08-07T10:18:14Z</time>
      </trkpt>
      <trkpt lat="47.78736" lon="-2.39475">
        <ele>42.8</ele>
        <time>2021-08-07T10:18:15Z</time>
      </trkpt>
      <trkpt lat="47.78737" lon="-2.39478">
        <ele>42.8</ele>
        <time>2021-08-07T10:18:16Z</time>
      </trkpt>
      <trkpt lat="47.78737" lon="-2.3948">
        <ele>42.8</ele>
        <time>2021-08-07T10:18:17Z</time>
      </trkpt>
      <trkpt lat="47.78737" lon="-2.39483">
        <ele>42.8</ele>
        <time>2021-08-07T10:18:19Z</time>
      </trkpt>
      <trkpt lat="47.78737" lon="-2.39484">
        <ele>42.8</ele>
        <time>2021-08-07T10:18:20Z</time>
      </trkpt>
      <trkpt lat="47.78738" lon="-2.39486">
        <ele>42.8</ele>
        <time>2021-08-07T10:18:21Z</time>
      </trkpt>
      <trkpt lat="47.78738" lon="-2.39487">
        <ele>42.8</ele>
        <time>2021-08-07T10:18:22Z</time>
      </trkpt>
      <trkpt lat="47.78739" lon="-2.39488">
        <ele>42.8</ele>
        <time>2021-08-07T10:18:23Z</time>
      </trkpt>
      <trkpt lat="47.7874" lon="-2.39488">
        <ele>42.8</ele>
        <time>2021-08-07T10:18:24Z</time>
      </trkpt>
      <trkpt lat="47.7874" lon="-2.3949">
        <ele>43</ele>
        <time>2021-08-07T10:18:25Z</time>
      </trkpt>
      <trkpt lat="47.7874" lon="-2.39492">
        <ele>43</ele>
        <time>2021-08-07T10:18:26Z</time>
      </trkpt>
      <trkpt lat="47.78745" lon="-2.39501">
        <ele>44</ele>
        <time>2021-08-07T10:20:01Z</time>
      </trkpt>
      <trkpt lat="47.78746" lon="-2.395">
        <ele>44</ele>
        <time>2021-08-07T10:20:02Z</time>
      </trkpt>
      <trkpt lat="47.78748" lon="-2.39499">
        <ele>44</ele>
        <time>2021-08-07T10:20:03Z</time>
      </trkpt>
      <trkpt lat="47.78749" lon="-2.39498">
        <ele>44</ele>
        <time>2021-08-07T10:20:04Z</time>
      </trkpt>
      <trkpt lat="47.78752" lon="-2.39496">
        <ele>44</ele>
        <time>2021-08-07T10:20:06Z</time>
      </trkpt>
      <trkpt lat="47.78754" lon="-2.39496">
        <ele>44</ele>
        <time>2021-08-07T10:20:07Z</time>
      </trkpt>
      <trkpt lat="47.78756" lon="-2.39495">
        <ele>44</ele>
        <time>2021-08-07T10:20:08Z</time>
      </trkpt>
      <trkpt lat="47.78758" lon="-2.39495">
        <ele>44</ele>
        <time>2021-08-07T10:20:09Z</time>
      </trkpt>
      <trkpt lat="47.7876" lon="-2.39494">
        <ele>44</ele>
        <time>2021-08-07T10:20:10Z</time>
      </trkpt>
      <trkpt lat="47.78762" lon="-2.39493">
        <ele>44</ele>
        <time>2021-08-07T10:20:11Z</time>
      </trkpt>
      <trkpt lat="47.78764" lon="-2.39493">
        <ele>44</ele>
        <time>2021-08-07T10:20:12Z</time>
      </trkpt>
      <trkpt lat="47.78769" lon="-2.39491">
        <ele>44</ele>
        <time>2021-08-07T10:20:14Z</time>
      </trkpt>
      <trkpt lat="47.78771" lon="-2.3949">
        <ele>44.2</ele>
        <time>2021-08-07T10:20:15Z</time>
      </trkpt>
      <trkpt lat="47.78774" lon="-2.3949">
        <ele>44.2</ele>
        <time>2021-08-07T10:20:16Z</time>
      </trkpt>
      <trkpt lat="47.78776" lon="-2.39489">
        <ele>44.2</ele>
        <time>2021-08-07T10:20:17Z</time>
      </trkpt>
      <trkpt lat="47.78778" lon="-2.39488">
        <ele>44.2</ele>
        <time>2021-08-07T10:20:18Z</time>
      </trkpt>
      <trkpt lat="47.78781" lon="-2.39487">
        <ele>44.2</ele>
        <time>2021-08-07T10:20:19Z</time>
      </trkpt>
      <trkpt lat="47.78783" lon="-2.39485">
        <ele>44.4</ele>
        <time>2021-08-07T10:20:20Z</time>
      </trkpt>
      <trkpt lat="47.78785" lon="-2.39485">
        <ele>44.4</ele>
        <time>2021-08-07T10:20:21Z</time>
      </trkpt>
      <trkpt lat="47.78788" lon="-2.39484">
        <ele>44.4</ele>
        <time>2021-08-07T10:20:22Z</time>
      </trkpt>
      <trkpt lat="47.7879" lon="-2.39483">
        <ele>44.6</ele>
        <time>2021-08-07T10:20:23Z</time>
      </trkpt>
      <trkpt lat="47.78794" lon="-2.39482">
        <ele>45</ele>
        <time>2021-08-07T10:20:25Z</time>
      </trkpt>
      <trkpt lat="47.78797" lon="-2.39481">
        <ele>45.2</ele>
        <time>2021-08-07T10:20:26Z</time>
      </trkpt>
      <trkpt lat="47.78799" lon="-2.39481">
        <ele>45.4</ele>
        <time>2021-08-07T10:20:27Z</time>
      </trkpt>
      <trkpt lat="47.78801" lon="-2.39481">
        <ele>45.4</ele>
        <time>2021-08-07T10:20:28Z</time>
      </trkpt>
      <trkpt lat="47.78802" lon="-2.3948">
        <ele>45.4</ele>
        <time>2021-08-07T10:20:29Z</time>
      </trkpt>
      <trkpt lat="47.78804" lon="-2.3948">
        <ele>45.6</ele>
        <time>2021-08-07T10:20:30Z</time>
      </trkpt>
      <trkpt lat="47.78806" lon="-2.3948">
        <ele>45.6</ele>
        <time>2021-08-07T10:20:31Z</time>
      </trkpt>
      <trkpt lat="47.78808" lon="-2.3948">
        <ele>45.6</ele>
        <time>2021-08-07T10:20:32Z</time>
      </trkpt>
      <trkpt lat="47.78809" lon="-2.39479">
        <ele>45.6</ele>
        <time>2021-08-07T10:20:33Z</time>
      </trkpt>
      <trkpt lat="47.78811" lon="-2.39479">
        <ele>45.6</ele>
        <time>2021-08-07T10:20:34Z</time>
      </trkpt>
      <trkpt lat="47.78814" lon="-2.39478">
        <ele>45.8</ele>
        <time>2021-08-07T10:20:36Z</time>
      </trkpt>
      <trkpt lat="47.78816" lon="-2.39478">
        <ele>45.8</ele>
        <time>2021-08-07T10:20:37Z</time>
      </trkpt>
      <trkpt lat="47.78817" lon="-2.39478">
        <ele>46</ele>
        <time>2021-08-07T10:20:38Z</time>
      </trkpt>
      <trkpt lat="47.78819" lon="-2.39478">
        <ele>46</ele>
        <time>2021-08-07T10:20:39Z</time>
      </trkpt>
      <trkpt lat="47.78821" lon="-2.39477">
        <ele>46.2</ele>
        <time>2021-08-07T10:20:40Z</time>
      </trkpt>
      <trkpt lat="47.78823" lon="-2.39477">
        <ele>46.4</ele>
        <time>2021-08-07T10:20:41Z</time>
      </trkpt>
      <trkpt lat="47.78824" lon="-2.39477">
        <ele>46.4</ele>
        <time>2021-08-07T10:20:42Z</time>
      </trkpt>
      <trkpt lat="47.78826" lon="-2.39477">
        <ele>46.4</ele>
        <time>2021-08-07T10:20:43Z</time>
      </trkpt>
      <trkpt lat="47.78828" lon="-2.39477">
        <ele>46.6</ele>
        <time>2021-08-07T10:20:44Z</time>
      </trkpt>
      <trkpt lat="47.78829" lon="-2.39477">
        <ele>46.6</ele>
        <time>2021-08-07T10:20:45Z</time>
      </trkpt>
      <trkpt lat="47.78832" lon="-2.39478">
        <ele>46.8</ele>
        <time>2021-08-07T10:20:47Z</time>
      </trkpt>
      <trkpt lat="47.78834" lon="-2.39479">
        <ele>46.8</ele>
        <time>2021-08-07T10:20:48Z</time>
      </trkpt>
      <trkpt lat="47.78836" lon="-2.39478">
        <ele>47</ele>
        <time>2021-08-07T10:20:49Z</time>
      </trkpt>
      <trkpt lat="47.78837" lon="-2.39478">
        <ele>47.2</ele>
        <time>2021-08-07T10:20:50Z</time>
      </trkpt>
      <trkpt lat="47.78838" lon="-2.39478">
        <ele>47.4</ele>
        <time>2021-08-07T10:20:51Z</time>
      </trkpt>
      <trkpt lat="47.78839" lon="-2.39478">
        <ele>47.4</ele>
        <time>2021-08-07T10:20:52Z</time>
      </trkpt>
      <trkpt lat="47.7884" lon="-2.39478">
        <ele>47.6</ele>
        <time>2021-08-07T10:20:53Z</time>
      </trkpt>
      <trkpt lat="47.78841" lon="-2.39478">
        <ele>47.6</ele>
        <time>2021-08-07T10:20:54Z</time>
      </trkpt>
      <trkpt lat="47.78842" lon="-2.39479">
        <ele>47.6</ele>
        <time>2021-08-07T10:20:55Z</time>
      </trkpt>
      <trkpt lat="47.78842" lon="-2.39479">
        <ele>47.8</ele>
        <time>2021-08-07T10:20:56Z</time>
      </trkpt>
      <trkpt lat="47.78844" lon="-2.39478">
        <ele>48.2</ele>
        <time>2021-08-07T10:20:58Z</time>
      </trkpt>
      <trkpt lat="47.78845" lon="-2.39478">
        <ele>48.4</ele>
        <time>2021-08-07T10:20:59Z</time>
      </trkpt>
      <trkpt lat="47.78846" lon="-2.39478">
        <ele>48.6</ele>
        <time>2021-08-07T10:21:00Z</time>
      </trkpt>
      <trkpt lat="47.78847" lon="-2.39478">
        <ele>48.8</ele>
        <time>2021-08-07T10:21:01Z</time>
      </trkpt>
      <trkpt lat="47.78848" lon="-2.39478">
        <ele>49</ele>
        <time>2021-08-07T10:21:02Z</time>
      </trkpt>
      <trkpt lat="47.78849" lon="-2.39479">
        <ele>49.4</ele>
        <time>2021-08-07T10:21:03Z</time>
      </trkpt>
      <trkpt lat="47.7885" lon="-2.39479">
        <ele>49.6</ele>
        <time>2021-08-07T10:21:04Z</time>
      </trkpt>
      <trkpt lat="47.78851" lon="-2.39479">
        <ele>49.6</ele>
        <time>2021-08-07T10:21:05Z</time>
      </trkpt>
      <trkpt lat="47.78852" lon="-2.39479">
        <ele>49.8</ele>
        <time>2021-08-07T10:21:06Z</time>
      </trkpt>
      <trkpt lat="47.78853" lon="-2.39479">
        <ele>50</ele>
        <time>2021-08-07T10:21:07Z</time>
      </trkpt>
      <trkpt lat="47.78855" lon="-2.39479">
        <ele>50.2</ele>
        <time>2021-08-07T10:21:09Z</time>
      </trkpt>
      <trkpt lat="47.78858" lon="-2.3948">
        <ele>50.2</ele>
        <time>2021-08-07T10:21:10Z</time>
      </trkpt>
      <trkpt lat="47.7886" lon="-2.39479">
        <ele>50.4</ele>
        <time>2021-08-07T10:21:11Z</time>
      </trkpt>
      <trkpt lat="47.78861" lon="-2.39479">
        <ele>50.6</ele>
        <time>2021-08-07T10:21:12Z</time>
      </trkpt>
      <trkpt lat="47.78862" lon="-2.39479">
        <ele>50.8</ele>
        <time>2021-08-07T10:21:13Z</time>
      </trkpt>
      <trkpt lat="47.78863" lon="-2.39479">
        <ele>51.2</ele>
        <time>2021-08-07T10:21:14Z</time>
      </trkpt>
      <trkpt lat="47.78865" lon="-2.39479">
        <ele>51.2</ele>
        <time>2021-08-07T10:21:15Z</time>
      </trkpt>
      <trkpt lat="47.78866" lon="-2.39479">
        <ele>51.6</ele>
        <time>2021-08-07T10:21:16Z</time>
      </trkpt>
      <trkpt lat="47.78868" lon="-2.3948">
        <ele>51.8</ele>
        <time>2021-08-07T10:21:17Z</time>
      </trkpt>
      <trkpt lat="47.78869" lon="-2.3948">
        <ele>52</ele>
        <time>2021-08-07T10:21:18Z</time>
      </trkpt>
      <trkpt lat="47.78872" lon="-2.3948">
        <ele>52.4</ele>
        <time>2021-08-07T10:21:20Z</time>
      </trkpt>
      <trkpt lat="47.78874" lon="-2.39481">
        <ele>52.4</ele>
        <time>2021-08-07T10:21:21Z</time>
      </trkpt>
      <trkpt lat="47.78875" lon="-2.39482">
        <ele>52.6</ele>
        <time>2021-08-07T10:21:22Z</time>
      </trkpt>
      <trkpt lat="47.78877" lon="-2.39482">
        <ele>52.8</ele>
        <time>2021-08-07T10:21:23Z</time>
      </trkpt>
      <trkpt lat="47.78877" lon="-2.39482">
        <ele>52.8</ele>
        <time>2021-08-07T10:21:24Z</time>
      </trkpt>
      <trkpt lat="47.78881" lon="-2.39482">
        <ele>54</ele>
        <time>2021-08-07T10:21:28Z</time>
      </trkpt>
      <trkpt lat="47.78883" lon="-2.39482">
        <ele>54</ele>
        <time>2021-08-07T10:21:29Z</time>
      </trkpt>
      <trkpt lat="47.78883" lon="-2.39482">
        <ele>54.2</ele>
        <time>2021-08-07T10:21:30Z</time>
      </trkpt>
      <trkpt lat="47.78885" lon="-2.39482">
        <ele>54.4</ele>
        <time>2021-08-07T10:21:32Z</time>
      </trkpt>
      <trkpt lat="47.78886" lon="-2.39481">
        <ele>54.6</ele>
        <time>2021-08-07T10:21:33Z</time>
      </trkpt>
      <trkpt lat="47.78887" lon="-2.3948">
        <ele>54.8</ele>
        <time>2021-08-07T10:21:34Z</time>
      </trkpt>
      <trkpt lat="47.78889" lon="-2.3948">
        <ele>55</ele>
        <time>2021-08-07T10:21:35Z</time>
      </trkpt>
      <trkpt lat="47.7889" lon="-2.3948">
        <ele>55.2</ele>
        <time>2021-08-07T10:21:36Z</time>
      </trkpt>
      <trkpt lat="47.78891" lon="-2.3948">
        <ele>55.4</ele>
        <time>2021-08-07T10:21:37Z</time>
      </trkpt>
      <trkpt lat="47.78893" lon="-2.39481">
        <ele>55.4</ele>
        <time>2021-08-07T10:21:38Z</time>
      </trkpt>
      <trkpt lat="47.78895" lon="-2.3948">
        <ele>55.8</ele>
        <time>2021-08-07T10:21:40Z</time>
      </trkpt>
      <trkpt lat="47.78896" lon="-2.3948">
        <ele>56</ele>
        <time>2021-08-07T10:21:41Z</time>
      </trkpt>
      <trkpt lat="47.78905" lon="-2.39479">
        <ele>57</ele>
        <time>2021-08-07T10:21:47Z</time>
      </trkpt>
      <trkpt lat="47.78906" lon="-2.39478">
        <ele>57.8</ele>
        <time>2021-08-07T10:21:48Z</time>
      </trkpt>
      <trkpt lat="47.78907" lon="-2.39478">
        <ele>58.2</ele>
        <time>2021-08-07T10:21:49Z</time>
      </trkpt>
      <trkpt lat="47.78909" lon="-2.39477">
        <ele>58.6</ele>
        <time>2021-08-07T10:21:51Z</time>
      </trkpt>
      <trkpt lat="47.7891" lon="-2.39476">
        <ele>58.8</ele>
        <time>2021-08-07T10:21:52Z</time>
      </trkpt>
      <trkpt lat="47.78911" lon="-2.39474">
        <ele>59</ele>
        <time>2021-08-07T10:21:53Z</time>
      </trkpt>
      <trkpt lat="47.78912" lon="-2.39473">
        <ele>59.2</ele>
        <time>2021-08-07T10:21:54Z</time>
      </trkpt>
      <trkpt lat="47.78913" lon="-2.39472">
        <ele>59.4</ele>
        <time>2021-08-07T10:21:55Z</time>
      </trkpt>
      <trkpt lat="47.78914" lon="-2.39472">
        <ele>59.6</ele>
        <time>2021-08-07T10:21:56Z</time>
      </trkpt>
      <trkpt lat="47.78915" lon="-2.39472">
        <ele>59.8</ele>
        <time>2021-08-07T10:21:57Z</time>
      </trkpt>
      <trkpt lat="47.78918" lon="-2.39472">
        <ele>60.4</ele>
        <time>2021-08-07T10:21:59Z</time>
      </trkpt>
      <trkpt lat="47.78919" lon="-2.3947">
        <ele>60.6</ele>
        <time>2021-08-07T10:22:00Z</time>
      </trkpt>
      <trkpt lat="47.78919" lon="-2.39469">
        <ele>60.8</ele>
        <time>2021-08-07T10:22:01Z</time>
      </trkpt>
      <trkpt lat="47.7892" lon="-2.39467">
        <ele>60.8</ele>
        <time>2021-08-07T10:22:02Z</time>
      </trkpt>
      <trkpt lat="47.78921" lon="-2.39466">
        <ele>61</ele>
        <time>2021-08-07T10:22:03Z</time>
      </trkpt>
      <trkpt lat="47.78922" lon="-2.39465">
        <ele>61.2</ele>
        <time>2021-08-07T10:22:04Z</time>
      </trkpt>
      <trkpt lat="47.78922" lon="-2.39464">
        <ele>61.4</ele>
        <time>2021-08-07T10:22:05Z</time>
      </trkpt>
      <trkpt lat="47.78923" lon="-2.39463">
        <ele>61.8</ele>
        <time>2021-08-07T10:22:06Z</time>
      </trkpt>
      <trkpt lat="47.78924" lon="-2.39462">
        <ele>62</ele>
        <time>2021-08-07T10:22:07Z</time>
      </trkpt>
      <trkpt lat="47.78924" lon="-2.39459">
        <ele>62.4</ele>
        <time>2021-08-07T10:22:09Z</time>
      </trkpt>
      <trkpt lat="47.78924" lon="-2.39458">
        <ele>62.6</ele>
        <time>2021-08-07T10:22:10Z</time>
      </trkpt>
      <trkpt lat="47.78924" lon="-2.39456">
        <ele>62.8</ele>
        <time>2021-08-07T10:22:11Z</time>
      </trkpt>
      <trkpt lat="47.78924" lon="-2.39453">
        <ele>63.2</ele>
        <time>2021-08-07T10:22:13Z</time>
      </trkpt>
      <trkpt lat="47.78924" lon="-2.39451">
        <ele>63.4</ele>
        <time>2021-08-07T10:22:14Z</time>
      </trkpt>
      <trkpt lat="47.78925" lon="-2.3945">
        <ele>63.6</ele>
        <time>2021-08-07T10:22:15Z</time>
      </trkpt>
      <trkpt lat="47.78926" lon="-2.39449">
        <ele>64</ele>
        <time>2021-08-07T10:22:16Z</time>
      </trkpt>
      <trkpt lat="47.78926" lon="-2.39447">
        <ele>64</ele>
        <time>2021-08-07T10:22:17Z</time>
      </trkpt>
      <trkpt lat="47.78927" lon="-2.39446">
        <ele>64.2</ele>
        <time>2021-08-07T10:22:18Z</time>
      </trkpt>
      <trkpt lat="47.78927" lon="-2.39444">
        <ele>64.4</ele>
        <time>2021-08-07T10:22:19Z</time>
      </trkpt>
      <trkpt lat="47.78926" lon="-2.39442">
        <ele>64.6</ele>
        <time>2021-08-07T10:22:21Z</time>
      </trkpt>
      <trkpt lat="47.78926" lon="-2.3944">
        <ele>64.8</ele>
        <time>2021-08-07T10:22:22Z</time>
      </trkpt>
      <trkpt lat="47.78925" lon="-2.39438">
        <ele>65</ele>
        <time>2021-08-07T10:22:23Z</time>
      </trkpt>
      <trkpt lat="47.78926" lon="-2.39436">
        <ele>65.2</ele>
        <time>2021-08-07T10:22:24Z</time>
      </trkpt>
      <trkpt lat="47.78926" lon="-2.39435">
        <ele>65.6</ele>
        <time>2021-08-07T10:22:25Z</time>
      </trkpt>
      <trkpt lat="47.78926" lon="-2.39433">
        <ele>65.8</ele>
        <time>2021-08-07T10:22:26Z</time>
      </trkpt>
      <trkpt lat="47.78926" lon="-2.39431">
        <ele>66</ele>
        <time>2021-08-07T10:22:27Z</time>
      </trkpt>
      <trkpt lat="47.78926" lon="-2.39429">
        <ele>66.2</ele>
        <time>2021-08-07T10:22:28Z</time>
      </trkpt>
      <trkpt lat="47.78926" lon="-2.39427">
        <ele>66.4</ele>
        <time>2021-08-07T10:22:29Z</time>
      </trkpt>
      <trkpt lat="47.78927" lon="-2.39423">
        <ele>66.8</ele>
        <time>2021-08-07T10:22:31Z</time>
      </trkpt>
      <trkpt lat="47.78927" lon="-2.39421">
        <ele>67</ele>
        <time>2021-08-07T10:22:32Z</time>
      </trkpt>
      <trkpt lat="47.78928" lon="-2.39419">
        <ele>67.2</ele>
        <time>2021-08-07T10:22:33Z</time>
      </trkpt>
      <trkpt lat="47.78928" lon="-2.39417">
        <ele>67.4</ele>
        <time>2021-08-07T10:22:34Z</time>
      </trkpt>
      <trkpt lat="47.78928" lon="-2.39415">
        <ele>67.6</ele>
        <time>2021-08-07T10:22:35Z</time>
      </trkpt>
      <trkpt lat="47.78929" lon="-2.39413">
        <ele>67.8</ele>
        <time>2021-08-07T10:22:36Z</time>
      </trkpt>
      <trkpt lat="47.78929" lon="-2.39412">
        <ele>68</ele>
        <time>2021-08-07T10:22:37Z</time>
      </trkpt>
      <trkpt lat="47.78929" lon="-2.3941">
        <ele>68.2</ele>
        <time>2021-08-07T10:22:38Z</time>
      </trkpt>
      <trkpt lat="47.7893" lon="-2.39408">
        <ele>68.4</ele>
        <time>2021-08-07T10:22:39Z</time>
      </trkpt>
      <trkpt lat="47.78931" lon="-2.39407">
        <ele>68.6</ele>
        <time>2021-08-07T10:22:40Z</time>
      </trkpt>
      <trkpt lat="47.78931" lon="-2.39405">
        <ele>68.8</ele>
        <time>2021-08-07T10:22:41Z</time>
      </trkpt>
      <trkpt lat="47.78932" lon="-2.39404">
        <ele>69</ele>
        <time>2021-08-07T10:22:42Z</time>
      </trkpt>
      <trkpt lat="47.78933" lon="-2.39403">
        <ele>69.2</ele>
        <time>2021-08-07T10:22:43Z</time>
      </trkpt>
      <trkpt lat="47.78934" lon="-2.39401">
        <ele>69.6</ele>
        <time>2021-08-07T10:22:44Z</time>
      </trkpt>
      <trkpt lat="47.78934" lon="-2.394">
        <ele>69.8</ele>
        <time>2021-08-07T10:22:45Z</time>
      </trkpt>
      <trkpt lat="47.78935" lon="-2.39398">
        <ele>70</ele>
        <time>2021-08-07T10:22:46Z</time>
      </trkpt>
      <trkpt lat="47.78936" lon="-2.39397">
        <ele>70.2</ele>
        <time>2021-08-07T10:22:47Z</time>
      </trkpt>
      <trkpt lat="47.78937" lon="-2.39395">
        <ele>70.2</ele>
        <time>2021-08-07T10:22:48Z</time>
      </trkpt>
      <trkpt lat="47.78939" lon="-2.39394">
        <ele>70.4</ele>
        <time>2021-08-07T10:22:49Z</time>
      </trkpt>
      <trkpt lat="47.7894" lon="-2.39393">
        <ele>70.6</ele>
        <time>2021-08-07T10:22:50Z</time>
      </trkpt>
      <trkpt lat="47.78941" lon="-2.39391">
        <ele>70.8</ele>
        <time>2021-08-07T10:22:51Z</time>
      </trkpt>
      <trkpt lat="47.78942" lon="-2.3939">
        <ele>71</ele>
        <time>2021-08-07T10:22:52Z</time>
      </trkpt>
      <trkpt lat="47.78942" lon="-2.39389">
        <ele>71.2</ele>
        <time>2021-08-07T10:22:53Z</time>
      </trkpt>
      <trkpt lat="47.78943" lon="-2.39387">
        <ele>71.4</ele>
        <time>2021-08-07T10:22:54Z</time>
      </trkpt>
      <trkpt lat="47.78944" lon="-2.39386">
        <ele>71.6</ele>
        <time>2021-08-07T10:22:55Z</time>
      </trkpt>
      <trkpt lat="47.78945" lon="-2.39386">
        <ele>71.8</ele>
        <time>2021-08-07T10:22:56Z</time>
      </trkpt>
      <trkpt lat="47.78946" lon="-2.39385">
        <ele>72</ele>
        <time>2021-08-07T10:22:57Z</time>
      </trkpt>
      <trkpt lat="47.78947" lon="-2.39385">
        <ele>72</ele>
        <time>2021-08-07T10:22:58Z</time>
      </trkpt>
      <trkpt lat="47.78948" lon="-2.39384">
        <ele>72.2</ele>
        <time>2021-08-07T10:22:59Z</time>
      </trkpt>
      <trkpt lat="47.78949" lon="-2.39383">
        <ele>72.4</ele>
        <time>2021-08-07T10:23:00Z</time>
      </trkpt>
      <trkpt lat="47.7895" lon="-2.39381">
        <ele>72.4</ele>
        <time>2021-08-07T10:23:01Z</time>
      </trkpt>
      <trkpt lat="47.78951" lon="-2.3938">
        <ele>72.4</ele>
        <time>2021-08-07T10:23:02Z</time>
      </trkpt>
      <trkpt lat="47.78951" lon="-2.39379">
        <ele>72.4</ele>
        <time>2021-08-07T10:23:03Z</time>
      </trkpt>
      <trkpt lat="47.78953" lon="-2.39378">
        <ele>72.8</ele>
        <time>2021-08-07T10:23:05Z</time>
      </trkpt>
      <trkpt lat="47.78954" lon="-2.39377">
        <ele>72.8</ele>
        <time>2021-08-07T10:23:06Z</time>
      </trkpt>
      <trkpt lat="47.78955" lon="-2.39376">
        <ele>73</ele>
        <time>2021-08-07T10:23:07Z</time>
      </trkpt>
      <trkpt lat="47.78956" lon="-2.39375">
        <ele>73.2</ele>
        <time>2021-08-07T10:23:08Z</time>
      </trkpt>
      <trkpt lat="47.78957" lon="-2.39374">
        <ele>73.4</ele>
        <time>2021-08-07T10:23:09Z</time>
      </trkpt>
      <trkpt lat="47.78958" lon="-2.39373">
        <ele>73.4</ele>
        <time>2021-08-07T10:23:10Z</time>
      </trkpt>
      <trkpt lat="47.78959" lon="-2.39372">
        <ele>73.6</ele>
        <time>2021-08-07T10:23:11Z</time>
      </trkpt>
      <trkpt lat="47.7896" lon="-2.39371">
        <ele>74</ele>
        <time>2021-08-07T10:23:12Z</time>
      </trkpt>
      <trkpt lat="47.78961" lon="-2.3937">
        <ele>74.2</ele>
        <time>2021-08-07T10:23:13Z</time>
      </trkpt>
      <trkpt lat="47.78962" lon="-2.39368">
        <ele>74.4</ele>
        <time>2021-08-07T10:23:14Z</time>
      </trkpt>
      <trkpt lat="47.78965" lon="-2.39365">
        <ele>74.8</ele>
        <time>2021-08-07T10:23:16Z</time>
      </trkpt>
      <trkpt lat="47.78966" lon="-2.39365">
        <ele>75</ele>
        <time>2021-08-07T10:23:17Z</time>
      </trkpt>
      <trkpt lat="47.78967" lon="-2.39364">
        <ele>75.2</ele>
        <time>2021-08-07T10:23:18Z</time>
      </trkpt>
      <trkpt lat="47.78968" lon="-2.39363">
        <ele>75.4</ele>
        <time>2021-08-07T10:23:19Z</time>
      </trkpt>
      <trkpt lat="47.78969" lon="-2.39362">
        <ele>75.4</ele>
        <time>2021-08-07T10:23:20Z</time>
      </trkpt>
      <trkpt lat="47.7897" lon="-2.39361">
        <ele>75.6</ele>
        <time>2021-08-07T10:23:21Z</time>
      </trkpt>
      <trkpt lat="47.78971" lon="-2.39359">
        <ele>75.8</ele>
        <time>2021-08-07T10:23:22Z</time>
      </trkpt>
      <trkpt lat="47.78972" lon="-2.39359">
        <ele>75.8</ele>
        <time>2021-08-07T10:23:23Z</time>
      </trkpt>
      <trkpt lat="47.78973" lon="-2.39357">
        <ele>76</ele>
        <time>2021-08-07T10:23:24Z</time>
      </trkpt>
      <trkpt lat="47.78974" lon="-2.39356">
        <ele>76.2</ele>
        <time>2021-08-07T10:23:25Z</time>
      </trkpt>
      <trkpt lat="47.78975" lon="-2.39356">
        <ele>76.2</ele>
        <time>2021-08-07T10:23:26Z</time>
      </trkpt>
      <trkpt lat="47.78976" lon="-2.39354">
        <ele>76.6</ele>
        <time>2021-08-07T10:23:28Z</time>
      </trkpt>
      <trkpt lat="47.78978" lon="-2.39353">
        <ele>76.8</ele>
        <time>2021-08-07T10:23:29Z</time>
      </trkpt>
      <trkpt lat="47.78979" lon="-2.39352">
        <ele>77</ele>
        <time>2021-08-07T10:23:30Z</time>
      </trkpt>
      <trkpt lat="47.7898" lon="-2.39351">
        <ele>77.2</ele>
        <time>2021-08-07T10:23:31Z</time>
      </trkpt>
      <trkpt lat="47.78981" lon="-2.3935">
        <ele>77.2</ele>
        <time>2021-08-07T10:23:32Z</time>
      </trkpt>
      <trkpt lat="47.78982" lon="-2.39349">
        <ele>77.2</ele>
        <time>2021-08-07T10:23:33Z</time>
      </trkpt>
      <trkpt lat="47.78984" lon="-2.39348">
        <ele>77.4</ele>
        <time>2021-08-07T10:23:34Z</time>
      </trkpt>
      <trkpt lat="47.78985" lon="-2.39347">
        <ele>77.4</ele>
        <time>2021-08-07T10:23:35Z</time>
      </trkpt>
      <trkpt lat="47.78986" lon="-2.39345">
        <ele>77.6</ele>
        <time>2021-08-07T10:23:36Z</time>
      </trkpt>
      <trkpt lat="47.78987" lon="-2.39344">
        <ele>77.8</ele>
        <time>2021-08-07T10:23:37Z</time>
      </trkpt>
      <trkpt lat="47.78989" lon="-2.39341">
        <ele>78.2</ele>
        <time>2021-08-07T10:23:39Z</time>
      </trkpt>
      <trkpt lat="47.7899" lon="-2.3934">
        <ele>78.4</ele>
        <time>2021-08-07T10:23:40Z</time>
      </trkpt>
      <trkpt lat="47.78991" lon="-2.39338">
        <ele>78.6</ele>
        <time>2021-08-07T10:23:41Z</time>
      </trkpt>
      <trkpt lat="47.78992" lon="-2.39337">
        <ele>78.8</ele>
        <time>2021-08-07T10:23:42Z</time>
      </trkpt>
      <trkpt lat="47.78993" lon="-2.39335">
        <ele>78.8</ele>
        <time>2021-08-07T10:23:43Z</time>
      </trkpt>
      <trkpt lat="47.78995" lon="-2.39333">
        <ele>79</ele>
        <time>2021-08-07T10:23:44Z</time>
      </trkpt>
      <trkpt lat="47.78996" lon="-2.39332">
        <ele>79.2</ele>
        <time>2021-08-07T10:23:45Z</time>
      </trkpt>
      <trkpt lat="47.78997" lon="-2.3933">
        <ele>79.4</ele>
        <time>2021-08-07T10:23:46Z</time>
      </trkpt>
      <trkpt lat="47.78998" lon="-2.39329">
        <ele>79.6</ele>
        <time>2021-08-07T10:23:47Z</time>
      </trkpt>
      <trkpt lat="47.79001" lon="-2.39326">
        <ele>80</ele>
        <time>2021-08-07T10:23:49Z</time>
      </trkpt>
      <trkpt lat="47.79002" lon="-2.39324">
        <ele>80</ele>
        <time>2021-08-07T10:23:50Z</time>
      </trkpt>
      <trkpt lat="47.79002" lon="-2.39323">
        <ele>80.4</ele>
        <time>2021-08-07T10:23:51Z</time>
      </trkpt>
      <trkpt lat="47.79003" lon="-2.39321">
        <ele>80.6</ele>
        <time>2021-08-07T10:23:52Z</time>
      </trkpt>
      <trkpt lat="47.79003" lon="-2.39319">
        <ele>80.6</ele>
        <time>2021-08-07T10:23:53Z</time>
      </trkpt>
      <trkpt lat="47.79004" lon="-2.39317">
        <ele>80.8</ele>
        <time>2021-08-07T10:23:54Z</time>
      </trkpt>
      <trkpt lat="47.79005" lon="-2.39315">
        <ele>81.2</ele>
        <time>2021-08-07T10:23:55Z</time>
      </trkpt>
      <trkpt lat="47.79006" lon="-2.39314">
        <ele>81.4</ele>
        <time>2021-08-07T10:23:56Z</time>
      </trkpt>
      <trkpt lat="47.79006" lon="-2.39311">
        <ele>81.4</ele>
        <time>2021-08-07T10:23:57Z</time>
      </trkpt>
      <trkpt lat="47.79007" lon="-2.3931">
        <ele>81.6</ele>
        <time>2021-08-07T10:23:58Z</time>
      </trkpt>
      <trkpt lat="47.7901" lon="-2.39306">
        <ele>81.8</ele>
        <time>2021-08-07T10:24:00Z</time>
      </trkpt>
      <trkpt lat="47.7901" lon="-2.39304">
        <ele>82</ele>
        <time>2021-08-07T10:24:01Z</time>
      </trkpt>
      <trkpt lat="47.79011" lon="-2.39303">
        <ele>82</ele>
        <time>2021-08-07T10:24:02Z</time>
      </trkpt>
      <trkpt lat="47.79012" lon="-2.39301">
        <ele>82.2</ele>
        <time>2021-08-07T10:24:03Z</time>
      </trkpt>
      <trkpt lat="47.79013" lon="-2.39299">
        <ele>82.2</ele>
        <time>2021-08-07T10:24:04Z</time>
      </trkpt>
      <trkpt lat="47.79014" lon="-2.39297">
        <ele>82.2</ele>
        <time>2021-08-07T10:24:05Z</time>
      </trkpt>
      <trkpt lat="47.79015" lon="-2.39294">
        <ele>82.4</ele>
        <time>2021-08-07T10:24:06Z</time>
      </trkpt>
      <trkpt lat="47.79016" lon="-2.39291">
        <ele>82.4</ele>
        <time>2021-08-07T10:24:07Z</time>
      </trkpt>
      <trkpt lat="47.79017" lon="-2.39288">
        <ele>82.6</ele>
        <time>2021-08-07T10:24:08Z</time>
      </trkpt>
      <trkpt lat="47.79018" lon="-2.39286">
        <ele>82.8</ele>
        <time>2021-08-07T10:24:09Z</time>
      </trkpt>
      <trkpt lat="47.7902" lon="-2.39282">
        <ele>83</ele>
        <time>2021-08-07T10:24:11Z</time>
      </trkpt>
      <trkpt lat="47.79021" lon="-2.3928">
        <ele>83.2</ele>
        <time>2021-08-07T10:24:12Z</time>
      </trkpt>
      <trkpt lat="47.79022" lon="-2.39278">
        <ele>83.4</ele>
        <time>2021-08-07T10:24:13Z</time>
      </trkpt>
      <trkpt lat="47.79023" lon="-2.39276">
        <ele>83.4</ele>
        <time>2021-08-07T10:24:14Z</time>
      </trkpt>
      <trkpt lat="47.79024" lon="-2.39275">
        <ele>83.6</ele>
        <time>2021-08-07T10:24:15Z</time>
      </trkpt>
      <trkpt lat="47.79025" lon="-2.39273">
        <ele>83.6</ele>
        <time>2021-08-07T10:24:16Z</time>
      </trkpt>
      <trkpt lat="47.79025" lon="-2.3927">
        <ele>83.8</ele>
        <time>2021-08-07T10:24:17Z</time>
      </trkpt>
      <trkpt lat="47.79027" lon="-2.39268">
        <ele>84</ele>
        <time>2021-08-07T10:24:18Z</time>
      </trkpt>
      <trkpt lat="47.79028" lon="-2.39266">
        <ele>84</ele>
        <time>2021-08-07T10:24:19Z</time>
      </trkpt>
      <trkpt lat="47.79029" lon="-2.39264">
        <ele>84.2</ele>
        <time>2021-08-07T10:24:20Z</time>
      </trkpt>
      <trkpt lat="47.79031" lon="-2.39262">
        <ele>84.2</ele>
        <time>2021-08-07T10:24:21Z</time>
      </trkpt>
      <trkpt lat="47.79032" lon="-2.3926">
        <ele>84.4</ele>
        <time>2021-08-07T10:24:22Z</time>
      </trkpt>
      <trkpt lat="47.79033" lon="-2.39258">
        <ele>84.4</ele>
        <time>2021-08-07T10:24:23Z</time>
      </trkpt>
      <trkpt lat="47.79035" lon="-2.39257">
        <ele>84.6</ele>
        <time>2021-08-07T10:24:24Z</time>
      </trkpt>
      <trkpt lat="47.79036" lon="-2.39255">
        <ele>84.6</ele>
        <time>2021-08-07T10:24:25Z</time>
      </trkpt>
      <trkpt lat="47.79038" lon="-2.39253">
        <ele>84.6</ele>
        <time>2021-08-07T10:24:26Z</time>
      </trkpt>
      <trkpt lat="47.79039" lon="-2.39251">
        <ele>84.8</ele>
        <time>2021-08-07T10:24:27Z</time>
      </trkpt>
      <trkpt lat="47.79041" lon="-2.39249">
        <ele>84.8</ele>
        <time>2021-08-07T10:24:28Z</time>
      </trkpt>
      <trkpt lat="47.79042" lon="-2.39247">
        <ele>84.8</ele>
        <time>2021-08-07T10:24:29Z</time>
      </trkpt>
      <trkpt lat="47.79043" lon="-2.39245">
        <ele>85</ele>
        <time>2021-08-07T10:24:30Z</time>
      </trkpt>
      <trkpt lat="47.79045" lon="-2.39242">
        <ele>85</ele>
        <time>2021-08-07T10:24:31Z</time>
      </trkpt>
      <trkpt lat="47.79048" lon="-2.39237">
        <ele>85.2</ele>
        <time>2021-08-07T10:24:33Z</time>
      </trkpt>
      <trkpt lat="47.7905" lon="-2.39235">
        <ele>85.2</ele>
        <time>2021-08-07T10:24:34Z</time>
      </trkpt>
      <trkpt lat="47.79051" lon="-2.39233">
        <ele>85.2</ele>
        <time>2021-08-07T10:24:35Z</time>
      </trkpt>
      <trkpt lat="47.79053" lon="-2.39231">
        <ele>85.2</ele>
        <time>2021-08-07T10:24:36Z</time>
      </trkpt>
      <trkpt lat="47.79055" lon="-2.3923">
        <ele>85.4</ele>
        <time>2021-08-07T10:24:37Z</time>
      </trkpt>
      <trkpt lat="47.79057" lon="-2.39228">
        <ele>85.4</ele>
        <time>2021-08-07T10:24:38Z</time>
      </trkpt>
      <trkpt lat="47.79059" lon="-2.39226">
        <ele>85.4</ele>
        <time>2021-08-07T10:24:39Z</time>
      </trkpt>
      <trkpt lat="47.7906" lon="-2.39225">
        <ele>85.4</ele>
        <time>2021-08-07T10:24:40Z</time>
      </trkpt>
      <trkpt lat="47.79062" lon="-2.39223">
        <ele>85.4</ele>
        <time>2021-08-07T10:24:41Z</time>
      </trkpt>
      <trkpt lat="47.79063" lon="-2.39221">
        <ele>85.4</ele>
        <time>2021-08-07T10:24:42Z</time>
      </trkpt>
      <trkpt lat="47.79065" lon="-2.39219">
        <ele>85.4</ele>
        <time>2021-08-07T10:24:44Z</time>
      </trkpt>
      <trkpt lat="47.79065" lon="-2.39218">
        <ele>85.4</ele>
        <time>2021-08-07T10:24:45Z</time>
      </trkpt>
      <trkpt lat="47.79066" lon="-2.39217">
        <ele>85.4</ele>
        <time>2021-08-07T10:24:46Z</time>
      </trkpt>
      <trkpt lat="47.79066" lon="-2.39217">
        <ele>85.6</ele>
        <time>2021-08-07T10:24:47Z</time>
      </trkpt>
      <trkpt lat="47.79069" lon="-2.39206">
        <ele>85.6</ele>
        <time>2021-08-07T10:28:14Z</time>
      </trkpt>
      <trkpt lat="47.7907" lon="-2.39205">
        <ele>85.6</ele>
        <time>2021-08-07T10:28:15Z</time>
      </trkpt>
      <trkpt lat="47.79072" lon="-2.39203">
        <ele>85.6</ele>
        <time>2021-08-07T10:28:16Z</time>
      </trkpt>
      <trkpt lat="47.79073" lon="-2.39202">
        <ele>85.6</ele>
        <time>2021-08-07T10:28:17Z</time>
      </trkpt>
      <trkpt lat="47.79077" lon="-2.39197">
        <ele>85.6</ele>
        <time>2021-08-07T10:28:19Z</time>
      </trkpt>
      <trkpt lat="47.79079" lon="-2.39195">
        <ele>85.6</ele>
        <time>2021-08-07T10:28:20Z</time>
      </trkpt>
      <trkpt lat="47.79082" lon="-2.39192">
        <ele>85.6</ele>
        <time>2021-08-07T10:28:21Z</time>
      </trkpt>
      <trkpt lat="47.79084" lon="-2.39189">
        <ele>85.4</ele>
        <time>2021-08-07T10:28:22Z</time>
      </trkpt>
      <trkpt lat="47.79087" lon="-2.39185">
        <ele>85.2</ele>
        <time>2021-08-07T10:28:23Z</time>
      </trkpt>
      <trkpt lat="47.7909" lon="-2.39182">
        <ele>85</ele>
        <time>2021-08-07T10:28:24Z</time>
      </trkpt>
      <trkpt lat="47.79093" lon="-2.39179">
        <ele>85</ele>
        <time>2021-08-07T10:28:25Z</time>
      </trkpt>
      <trkpt lat="47.79096" lon="-2.39175">
        <ele>84.8</ele>
        <time>2021-08-07T10:28:26Z</time>
      </trkpt>
      <trkpt lat="47.79103" lon="-2.39169">
        <ele>84.6</ele>
        <time>2021-08-07T10:28:28Z</time>
      </trkpt>
      <trkpt lat="47.79106" lon="-2.39165">
        <ele>84.6</ele>
        <time>2021-08-07T10:28:29Z</time>
      </trkpt>
      <trkpt lat="47.79109" lon="-2.39161">
        <ele>84.4</ele>
        <time>2021-08-07T10:28:30Z</time>
      </trkpt>
      <trkpt lat="47.79112" lon="-2.39157">
        <ele>84.2</ele>
        <time>2021-08-07T10:28:31Z</time>
      </trkpt>
      <trkpt lat="47.79116" lon="-2.39153">
        <ele>84</ele>
        <time>2021-08-07T10:28:32Z</time>
      </trkpt>
      <trkpt lat="47.79119" lon="-2.3915">
        <ele>83.8</ele>
        <time>2021-08-07T10:28:33Z</time>
      </trkpt>
      <trkpt lat="47.79122" lon="-2.39146">
        <ele>83.8</ele>
        <time>2021-08-07T10:28:34Z</time>
      </trkpt>
      <trkpt lat="47.79125" lon="-2.39142">
        <ele>83.8</ele>
        <time>2021-08-07T10:28:35Z</time>
      </trkpt>
      <trkpt lat="47.79128" lon="-2.39139">
        <ele>83.8</ele>
        <time>2021-08-07T10:28:36Z</time>
      </trkpt>
      <trkpt lat="47.7913" lon="-2.39136">
        <ele>83.8</ele>
        <time>2021-08-07T10:28:37Z</time>
      </trkpt>
      <trkpt lat="47.79136" lon="-2.39131">
        <ele>83.8</ele>
        <time>2021-08-07T10:28:39Z</time>
      </trkpt>
      <trkpt lat="47.7914" lon="-2.39128">
        <ele>83.8</ele>
        <time>2021-08-07T10:28:40Z</time>
      </trkpt>
      <trkpt lat="47.79143" lon="-2.39125">
        <ele>83.8</ele>
        <time>2021-08-07T10:28:41Z</time>
      </trkpt>
      <trkpt lat="47.79145" lon="-2.39123">
        <ele>83.8</ele>
        <time>2021-08-07T10:28:42Z</time>
      </trkpt>
      <trkpt lat="47.79149" lon="-2.3912">
        <ele>83.8</ele>
        <time>2021-08-07T10:28:43Z</time>
      </trkpt>
      <trkpt lat="47.79152" lon="-2.39117">
        <ele>83.8</ele>
        <time>2021-08-07T10:28:44Z</time>
      </trkpt>
      <trkpt lat="47.79155" lon="-2.39114">
        <ele>83.8</ele>
        <time>2021-08-07T10:28:45Z</time>
      </trkpt>
      <trkpt lat="47.79159" lon="-2.39111">
        <ele>83.8</ele>
        <time>2021-08-07T10:28:46Z</time>
      </trkpt>
      <trkpt lat="47.79162" lon="-2.39107">
        <ele>84</ele>
        <time>2021-08-07T10:28:47Z</time>
      </trkpt>
      <trkpt lat="47.79166" lon="-2.39104">
        <ele>84</ele>
        <time>2021-08-07T10:28:48Z</time>
      </trkpt>
      <trkpt lat="47.79172" lon="-2.39098">
        <ele>84</ele>
        <time>2021-08-07T10:28:50Z</time>
      </trkpt>
      <trkpt lat="47.79175" lon="-2.39095">
        <ele>84</ele>
        <time>2021-08-07T10:28:51Z</time>
      </trkpt>
      <trkpt lat="47.79179" lon="-2.39091">
        <ele>84</ele>
        <time>2021-08-07T10:28:52Z</time>
      </trkpt>
      <trkpt lat="47.79182" lon="-2.39088">
        <ele>84</ele>
        <time>2021-08-07T10:28:53Z</time>
      </trkpt>
      <trkpt lat="47.79186" lon="-2.39084">
        <ele>84</ele>
        <time>2021-08-07T10:28:54Z</time>
      </trkpt>
      <trkpt lat="47.7919" lon="-2.3908">
        <ele>84</ele>
        <time>2021-08-07T10:28:55Z</time>
      </trkpt>
      <trkpt lat="47.79193" lon="-2.39076">
        <ele>84</ele>
        <time>2021-08-07T10:28:56Z</time>
      </trkpt>
      <trkpt lat="47.79197" lon="-2.39072">
        <ele>84</ele>
        <time>2021-08-07T10:28:57Z</time>
      </trkpt>
      <trkpt lat="47.79201" lon="-2.39068">
        <ele>83.8</ele>
        <time>2021-08-07T10:28:58Z</time>
      </trkpt>
      <trkpt lat="47.79204" lon="-2.39064">
        <ele>83.6</ele>
        <time>2021-08-07T10:28:59Z</time>
      </trkpt>
      <trkpt lat="47.7921" lon="-2.39056">
        <ele>83.2</ele>
        <time>2021-08-07T10:29:01Z</time>
      </trkpt>
      <trkpt lat="47.79213" lon="-2.39052">
        <ele>83</ele>
        <time>2021-08-07T10:29:02Z</time>
      </trkpt>
      <trkpt lat="47.79216" lon="-2.39049">
        <ele>83</ele>
        <time>2021-08-07T10:29:03Z</time>
      </trkpt>
      <trkpt lat="47.79219" lon="-2.39045">
        <ele>82.4</ele>
        <time>2021-08-07T10:29:04Z</time>
      </trkpt>
      <trkpt lat="47.79221" lon="-2.39041">
        <ele>82</ele>
        <time>2021-08-07T10:29:05Z</time>
      </trkpt>
      <trkpt lat="47.79225" lon="-2.39037">
        <ele>81.8</ele>
        <time>2021-08-07T10:29:06Z</time>
      </trkpt>
      <trkpt lat="47.79228" lon="-2.39033">
        <ele>81.6</ele>
        <time>2021-08-07T10:29:07Z</time>
      </trkpt>
      <trkpt lat="47.79232" lon="-2.39029">
        <ele>81.6</ele>
        <time>2021-08-07T10:29:08Z</time>
      </trkpt>
      <trkpt lat="47.79236" lon="-2.39024">
        <ele>81.6</ele>
        <time>2021-08-07T10:29:09Z</time>
      </trkpt>
      <trkpt lat="47.79239" lon="-2.39021">
        <ele>81.4</ele>
        <time>2021-08-07T10:29:10Z</time>
      </trkpt>
      <trkpt lat="47.79245" lon="-2.39014">
        <ele>81.4</ele>
        <time>2021-08-07T10:29:12Z</time>
      </trkpt>
      <trkpt lat="47.79249" lon="-2.3901">
        <ele>81.2</ele>
        <time>2021-08-07T10:29:13Z</time>
      </trkpt>
      <trkpt lat="47.79253" lon="-2.39005">
        <ele>81.2</ele>
        <time>2021-08-07T10:29:14Z</time>
      </trkpt>
      <trkpt lat="47.79256" lon="-2.39001">
        <ele>80.8</ele>
        <time>2021-08-07T10:29:15Z</time>
      </trkpt>
      <trkpt lat="47.79259" lon="-2.38997">
        <ele>80.6</ele>
        <time>2021-08-07T10:29:16Z</time>
      </trkpt>
      <trkpt lat="47.79263" lon="-2.38992">
        <ele>80.4</ele>
        <time>2021-08-07T10:29:17Z</time>
      </trkpt>
      <trkpt lat="47.79266" lon="-2.38988">
        <ele>80</ele>
        <time>2021-08-07T10:29:18Z</time>
      </trkpt>
      <trkpt lat="47.79269" lon="-2.38984">
        <ele>79.6</ele>
        <time>2021-08-07T10:29:19Z</time>
      </trkpt>
      <trkpt lat="47.79273" lon="-2.38981">
        <ele>79.4</ele>
        <time>2021-08-07T10:29:20Z</time>
      </trkpt>
      <trkpt lat="47.79275" lon="-2.38978">
        <ele>79.2</ele>
        <time>2021-08-07T10:29:21Z</time>
      </trkpt>
      <trkpt lat="47.79277" lon="-2.38976">
        <ele>79</ele>
        <time>2021-08-07T10:29:22Z</time>
      </trkpt>
      <trkpt lat="47.79279" lon="-2.38974">
        <ele>78.6</ele>
        <time>2021-08-07T10:29:23Z</time>
      </trkpt>
      <trkpt lat="47.79281" lon="-2.38972">
        <ele>78.2</ele>
        <time>2021-08-07T10:29:24Z</time>
      </trkpt>
      <trkpt lat="47.79283" lon="-2.3897">
        <ele>78</ele>
        <time>2021-08-07T10:29:25Z</time>
      </trkpt>
      <trkpt lat="47.79286" lon="-2.38968">
        <ele>77.8</ele>
        <time>2021-08-07T10:29:26Z</time>
      </trkpt>
      <trkpt lat="47.79288" lon="-2.38966">
        <ele>77.6</ele>
        <time>2021-08-07T10:29:27Z</time>
      </trkpt>
      <trkpt lat="47.7929" lon="-2.38963">
        <ele>77.4</ele>
        <time>2021-08-07T10:29:28Z</time>
      </trkpt>
      <trkpt lat="47.79293" lon="-2.3896">
        <ele>77.2</ele>
        <time>2021-08-07T10:29:29Z</time>
      </trkpt>
      <trkpt lat="47.79295" lon="-2.38958">
        <ele>77.2</ele>
        <time>2021-08-07T10:29:30Z</time>
      </trkpt>
      <trkpt lat="47.79298" lon="-2.38955">
        <ele>77.2</ele>
        <time>2021-08-07T10:29:31Z</time>
      </trkpt>
      <trkpt lat="47.79301" lon="-2.38953">
        <ele>77</ele>
        <time>2021-08-07T10:29:32Z</time>
      </trkpt>
      <trkpt lat="47.79307" lon="-2.38948">
        <ele>76.8</ele>
        <time>2021-08-07T10:29:34Z</time>
      </trkpt>
      <trkpt lat="47.79309" lon="-2.38946">
        <ele>76.4</ele>
        <time>2021-08-07T10:29:35Z</time>
      </trkpt>
      <trkpt lat="47.79312" lon="-2.38943">
        <ele>76.2</ele>
        <time>2021-08-07T10:29:36Z</time>
      </trkpt>
      <trkpt lat="47.79316" lon="-2.38941">
        <ele>76</ele>
        <time>2021-08-07T10:29:37Z</time>
      </trkpt>
      <trkpt lat="47.79319" lon="-2.38939">
        <ele>75.8</ele>
        <time>2021-08-07T10:29:38Z</time>
      </trkpt>
      <trkpt lat="47.79323" lon="-2.38936">
        <ele>75.6</ele>
        <time>2021-08-07T10:29:39Z</time>
      </trkpt>
      <trkpt lat="47.79326" lon="-2.38933">
        <ele>75.2</ele>
        <time>2021-08-07T10:29:40Z</time>
      </trkpt>
      <trkpt lat="47.79329" lon="-2.38931">
        <ele>74.8</ele>
        <time>2021-08-07T10:29:41Z</time>
      </trkpt>
      <trkpt lat="47.79332" lon="-2.38929">
        <ele>74.6</ele>
        <time>2021-08-07T10:29:42Z</time>
      </trkpt>
      <trkpt lat="47.79334" lon="-2.38927">
        <ele>74.4</ele>
        <time>2021-08-07T10:29:43Z</time>
      </trkpt>
      <trkpt lat="47.79339" lon="-2.38923">
        <ele>74</ele>
        <time>2021-08-07T10:29:45Z</time>
      </trkpt>
      <trkpt lat="47.79342" lon="-2.3892">
        <ele>73.8</ele>
        <time>2021-08-07T10:29:46Z</time>
      </trkpt>
      <trkpt lat="47.79345" lon="-2.38918">
        <ele>73.4</ele>
        <time>2021-08-07T10:29:47Z</time>
      </trkpt>
      <trkpt lat="47.79348" lon="-2.38916">
        <ele>73.2</ele>
        <time>2021-08-07T10:29:48Z</time>
      </trkpt>
      <trkpt lat="47.7935" lon="-2.38914">
        <ele>73.2</ele>
        <time>2021-08-07T10:29:49Z</time>
      </trkpt>
      <trkpt lat="47.79353" lon="-2.38912">
        <ele>73</ele>
        <time>2021-08-07T10:29:50Z</time>
      </trkpt>
      <trkpt lat="47.79355" lon="-2.38911">
        <ele>73</ele>
        <time>2021-08-07T10:29:51Z</time>
      </trkpt>
      <trkpt lat="47.79358" lon="-2.38909">
        <ele>72.8</ele>
        <time>2021-08-07T10:29:52Z</time>
      </trkpt>
      <trkpt lat="47.7936" lon="-2.38907">
        <ele>72.8</ele>
        <time>2021-08-07T10:29:53Z</time>
      </trkpt>
      <trkpt lat="47.79362" lon="-2.38904">
        <ele>72.8</ele>
        <time>2021-08-07T10:29:54Z</time>
      </trkpt>
      <trkpt lat="47.79368" lon="-2.389">
        <ele>72.4</ele>
        <time>2021-08-07T10:29:56Z</time>
      </trkpt>
      <trkpt lat="47.7937" lon="-2.38898">
        <ele>72.2</ele>
        <time>2021-08-07T10:29:57Z</time>
      </trkpt>
      <trkpt lat="47.79373" lon="-2.38896">
        <ele>71.8</ele>
        <time>2021-08-07T10:29:58Z</time>
      </trkpt>
      <trkpt lat="47.79376" lon="-2.38893">
        <ele>71.6</ele>
        <time>2021-08-07T10:29:59Z</time>
      </trkpt>
      <trkpt lat="47.79379" lon="-2.38891">
        <ele>71.2</ele>
        <time>2021-08-07T10:30:00Z</time>
      </trkpt>
      <trkpt lat="47.79381" lon="-2.38888">
        <ele>71</ele>
        <time>2021-08-07T10:30:01Z</time>
      </trkpt>
      <trkpt lat="47.79384" lon="-2.38886">
        <ele>70.8</ele>
        <time>2021-08-07T10:30:02Z</time>
      </trkpt>
      <trkpt lat="47.79386" lon="-2.38883">
        <ele>70.6</ele>
        <time>2021-08-07T10:30:03Z</time>
      </trkpt>
      <trkpt lat="47.79389" lon="-2.3888">
        <ele>70.2</ele>
        <time>2021-08-07T10:30:04Z</time>
      </trkpt>
      <trkpt lat="47.79392" lon="-2.38878">
        <ele>70.2</ele>
        <time>2021-08-07T10:30:05Z</time>
      </trkpt>
      <trkpt lat="47.79394" lon="-2.38875">
        <ele>69.6</ele>
        <time>2021-08-07T10:30:06Z</time>
      </trkpt>
      <trkpt lat="47.79397" lon="-2.38873">
        <ele>69.2</ele>
        <time>2021-08-07T10:30:07Z</time>
      </trkpt>
      <trkpt lat="47.794" lon="-2.38871">
        <ele>69</ele>
        <time>2021-08-07T10:30:08Z</time>
      </trkpt>
      <trkpt lat="47.79404" lon="-2.38868">
        <ele>68.8</ele>
        <time>2021-08-07T10:30:09Z</time>
      </trkpt>
      <trkpt lat="47.79407" lon="-2.38866">
        <ele>68.6</ele>
        <time>2021-08-07T10:30:10Z</time>
      </trkpt>
      <trkpt lat="47.79411" lon="-2.38863">
        <ele>68.6</ele>
        <time>2021-08-07T10:30:11Z</time>
      </trkpt>
      <trkpt lat="47.79414" lon="-2.3886">
        <ele>68.4</ele>
        <time>2021-08-07T10:30:12Z</time>
      </trkpt>
      <trkpt lat="47.79417" lon="-2.38857">
        <ele>68.2</ele>
        <time>2021-08-07T10:30:13Z</time>
      </trkpt>
      <trkpt lat="47.7942" lon="-2.38854">
        <ele>68</ele>
        <time>2021-08-07T10:30:14Z</time>
      </trkpt>
      <trkpt lat="47.79424" lon="-2.38851">
        <ele>68</ele>
        <time>2021-08-07T10:30:15Z</time>
      </trkpt>
      <trkpt lat="47.79427" lon="-2.38849">
        <ele>67.8</ele>
        <time>2021-08-07T10:30:16Z</time>
      </trkpt>
      <trkpt lat="47.79435" lon="-2.38844">
        <ele>67.6</ele>
        <time>2021-08-07T10:30:18Z</time>
      </trkpt>
      <trkpt lat="47.79439" lon="-2.38842">
        <ele>67.6</ele>
        <time>2021-08-07T10:30:19Z</time>
      </trkpt>
      <trkpt lat="47.79443" lon="-2.3884">
        <ele>67.6</ele>
        <time>2021-08-07T10:30:20Z</time>
      </trkpt>
      <trkpt lat="47.79447" lon="-2.38838">
        <ele>67.4</ele>
        <time>2021-08-07T10:30:21Z</time>
      </trkpt>
      <trkpt lat="47.79451" lon="-2.38836">
        <ele>67.2</ele>
        <time>2021-08-07T10:30:22Z</time>
      </trkpt>
      <trkpt lat="47.79455" lon="-2.38834">
        <ele>67.2</ele>
        <time>2021-08-07T10:30:23Z</time>
      </trkpt>
      <trkpt lat="47.79458" lon="-2.38831">
        <ele>67</ele>
        <time>2021-08-07T10:30:24Z</time>
      </trkpt>
      <trkpt lat="47.79462" lon="-2.38829">
        <ele>67</ele>
        <time>2021-08-07T10:30:25Z</time>
      </trkpt>
      <trkpt lat="47.79464" lon="-2.38826">
        <ele>66.8</ele>
        <time>2021-08-07T10:30:26Z</time>
      </trkpt>
      <trkpt lat="47.79467" lon="-2.38824">
        <ele>66.8</ele>
        <time>2021-08-07T10:30:27Z</time>
      </trkpt>
      <trkpt lat="47.79472" lon="-2.38818">
        <ele>66.6</ele>
        <time>2021-08-07T10:30:29Z</time>
      </trkpt>
      <trkpt lat="47.79476" lon="-2.38815">
        <ele>66.4</ele>
        <time>2021-08-07T10:30:30Z</time>
      </trkpt>
      <trkpt lat="47.79478" lon="-2.38812">
        <ele>66.4</ele>
        <time>2021-08-07T10:30:31Z</time>
      </trkpt>
      <trkpt lat="47.79481" lon="-2.38809">
        <ele>66.4</ele>
        <time>2021-08-07T10:30:32Z</time>
      </trkpt>
      <trkpt lat="47.79482" lon="-2.38807">
        <ele>66.2</ele>
        <time>2021-08-07T10:30:33Z</time>
      </trkpt>
      <trkpt lat="47.79484" lon="-2.38805">
        <ele>66.2</ele>
        <time>2021-08-07T10:30:34Z</time>
      </trkpt>
      <trkpt lat="47.79486" lon="-2.38803">
        <ele>66.2</ele>
        <time>2021-08-07T10:30:35Z</time>
      </trkpt>
      <trkpt lat="47.79488" lon="-2.38802">
        <ele>66.2</ele>
        <time>2021-08-07T10:30:36Z</time>
      </trkpt>
      <trkpt lat="47.79488" lon="-2.38802">
        <ele>66</ele>
        <time>2021-08-07T10:30:37Z</time>
      </trkpt>
      <trkpt lat="47.79489" lon="-2.38801">
        <ele>66</ele>
        <time>2021-08-07T10:30:38Z</time>
      </trkpt>
      <trkpt lat="47.79495" lon="-2.38791">
        <ele>65.8</ele>
        <time>2021-08-07T10:32:15Z</time>
      </trkpt>
      <trkpt lat="47.79496" lon="-2.38789">
        <ele>65.8</ele>
        <time>2021-08-07T10:32:16Z</time>
      </trkpt>
      <trkpt lat="47.79497" lon="-2.38787">
        <ele>65.8</ele>
        <time>2021-08-07T10:32:17Z</time>
      </trkpt>
      <trkpt lat="47.79499" lon="-2.38785">
        <ele>65.8</ele>
        <time>2021-08-07T10:32:18Z</time>
      </trkpt>
      <trkpt lat="47.79503" lon="-2.3878">
        <ele>65.8</ele>
        <time>2021-08-07T10:32:20Z</time>
      </trkpt>
      <trkpt lat="47.79505" lon="-2.38777">
        <ele>65.8</ele>
        <time>2021-08-07T10:32:21Z</time>
      </trkpt>
      <trkpt lat="47.79507" lon="-2.38775">
        <ele>65.8</ele>
        <time>2021-08-07T10:32:22Z</time>
      </trkpt>
      <trkpt lat="47.79509" lon="-2.38773">
        <ele>65.8</ele>
        <time>2021-08-07T10:32:23Z</time>
      </trkpt>
      <trkpt lat="47.79511" lon="-2.38771">
        <ele>65.8</ele>
        <time>2021-08-07T10:32:24Z</time>
      </trkpt>
      <trkpt lat="47.79513" lon="-2.38769">
        <ele>65.8</ele>
        <time>2021-08-07T10:32:25Z</time>
      </trkpt>
      <trkpt lat="47.79515" lon="-2.38768">
        <ele>65.8</ele>
        <time>2021-08-07T10:32:26Z</time>
      </trkpt>
      <trkpt lat="47.79517" lon="-2.38766">
        <ele>65.8</ele>
        <time>2021-08-07T10:32:27Z</time>
      </trkpt>
      <trkpt lat="47.79519" lon="-2.38764">
        <ele>65.6</ele>
        <time>2021-08-07T10:32:28Z</time>
      </trkpt>
      <trkpt lat="47.79522" lon="-2.38762">
        <ele>65.6</ele>
        <time>2021-08-07T10:32:29Z</time>
      </trkpt>
      <trkpt lat="47.79524" lon="-2.38759">
        <ele>65.6</ele>
        <time>2021-08-07T10:32:30Z</time>
      </trkpt>
      <trkpt lat="47.79526" lon="-2.38757">
        <ele>65.6</ele>
        <time>2021-08-07T10:32:31Z</time>
      </trkpt>
      <trkpt lat="47.79528" lon="-2.38755">
        <ele>65.6</ele>
        <time>2021-08-07T10:32:32Z</time>
      </trkpt>
      <trkpt lat="47.7953" lon="-2.38754">
        <ele>65.6</ele>
        <time>2021-08-07T10:32:33Z</time>
      </trkpt>
      <trkpt lat="47.79532" lon="-2.38753">
        <ele>65.6</ele>
        <time>2021-08-07T10:32:34Z</time>
      </trkpt>
      <trkpt lat="47.79535" lon="-2.38753">
        <ele>65.6</ele>
        <time>2021-08-07T10:32:35Z</time>
      </trkpt>
      <trkpt lat="47.79537" lon="-2.38753">
        <ele>65.6</ele>
        <time>2021-08-07T10:32:36Z</time>
      </trkpt>
      <trkpt lat="47.79539" lon="-2.38752">
        <ele>65.8</ele>
        <time>2021-08-07T10:32:37Z</time>
      </trkpt>
      <trkpt lat="47.79542" lon="-2.38752">
        <ele>66</ele>
        <time>2021-08-07T10:32:38Z</time>
      </trkpt>
      <trkpt lat="47.79544" lon="-2.38751">
        <ele>66.2</ele>
        <time>2021-08-07T10:32:39Z</time>
      </trkpt>
      <trkpt lat="47.79546" lon="-2.38751">
        <ele>66.2</ele>
        <time>2021-08-07T10:32:40Z</time>
      </trkpt>
      <trkpt lat="47.79548" lon="-2.3875">
        <ele>66.4</ele>
        <time>2021-08-07T10:32:41Z</time>
      </trkpt>
      <trkpt lat="47.79551" lon="-2.3875">
        <ele>66.4</ele>
        <time>2021-08-07T10:32:42Z</time>
      </trkpt>
      <trkpt lat="47.79553" lon="-2.3875">
        <ele>66.4</ele>
        <time>2021-08-07T10:32:43Z</time>
      </trkpt>
      <trkpt lat="47.79555" lon="-2.38749">
        <ele>66.6</ele>
        <time>2021-08-07T10:32:44Z</time>
      </trkpt>
      <trkpt lat="47.79557" lon="-2.38749">
        <ele>66.8</ele>
        <time>2021-08-07T10:32:45Z</time>
      </trkpt>
      <trkpt lat="47.7956" lon="-2.38748">
        <ele>66.8</ele>
        <time>2021-08-07T10:32:46Z</time>
      </trkpt>
      <trkpt lat="47.79562" lon="-2.38748">
        <ele>67</ele>
        <time>2021-08-07T10:32:47Z</time>
      </trkpt>
      <trkpt lat="47.79564" lon="-2.38747">
        <ele>67.2</ele>
        <time>2021-08-07T10:32:48Z</time>
      </trkpt>
      <trkpt lat="47.79569" lon="-2.38746">
        <ele>67.4</ele>
        <time>2021-08-07T10:32:50Z</time>
      </trkpt>
      <trkpt lat="47.79571" lon="-2.38745">
        <ele>67.6</ele>
        <time>2021-08-07T10:32:51Z</time>
      </trkpt>
      <trkpt lat="47.79573" lon="-2.38745">
        <ele>67.6</ele>
        <time>2021-08-07T10:32:52Z</time>
      </trkpt>
      <trkpt lat="47.79576" lon="-2.38745">
        <ele>67.8</ele>
        <time>2021-08-07T10:32:53Z</time>
      </trkpt>
      <trkpt lat="47.79578" lon="-2.38745">
        <ele>67.8</ele>
        <time>2021-08-07T10:32:54Z</time>
      </trkpt>
      <trkpt lat="47.7958" lon="-2.38745">
        <ele>67.8</ele>
        <time>2021-08-07T10:32:55Z</time>
      </trkpt>
      <trkpt lat="47.79582" lon="-2.38745">
        <ele>68</ele>
        <time>2021-08-07T10:32:56Z</time>
      </trkpt>
      <trkpt lat="47.79584" lon="-2.38744">
        <ele>68</ele>
        <time>2021-08-07T10:32:57Z</time>
      </trkpt>
      <trkpt lat="47.79586" lon="-2.38744">
        <ele>68</ele>
        <time>2021-08-07T10:32:58Z</time>
      </trkpt>
      <trkpt lat="47.79588" lon="-2.38744">
        <ele>68</ele>
        <time>2021-08-07T10:32:59Z</time>
      </trkpt>
      <trkpt lat="47.7959" lon="-2.38744">
        <ele>68.2</ele>
        <time>2021-08-07T10:33:00Z</time>
      </trkpt>
      <trkpt lat="47.79592" lon="-2.38744">
        <ele>68.2</ele>
        <time>2021-08-07T10:33:01Z</time>
      </trkpt>
      <trkpt lat="47.79594" lon="-2.38744">
        <ele>68.4</ele>
        <time>2021-08-07T10:33:02Z</time>
      </trkpt>
      <trkpt lat="47.79596" lon="-2.38744">
        <ele>68.4</ele>
        <time>2021-08-07T10:33:03Z</time>
      </trkpt>
      <trkpt lat="47.79598" lon="-2.38743">
        <ele>68.6</ele>
        <time>2021-08-07T10:33:04Z</time>
      </trkpt>
      <trkpt lat="47.796" lon="-2.38743">
        <ele>68.8</ele>
        <time>2021-08-07T10:33:05Z</time>
      </trkpt>
      <trkpt lat="47.79602" lon="-2.38743">
        <ele>69</ele>
        <time>2021-08-07T10:33:06Z</time>
      </trkpt>
      <trkpt lat="47.79603" lon="-2.38743">
        <ele>69.2</ele>
        <time>2021-08-07T10:33:07Z</time>
      </trkpt>
      <trkpt lat="47.79606" lon="-2.38743">
        <ele>69.4</ele>
        <time>2021-08-07T10:33:08Z</time>
      </trkpt>
      <trkpt lat="47.79607" lon="-2.38742">
        <ele>69.6</ele>
        <time>2021-08-07T10:33:09Z</time>
      </trkpt>
      <trkpt lat="47.79612" lon="-2.38743">
        <ele>69.6</ele>
        <time>2021-08-07T10:33:11Z</time>
      </trkpt>
      <trkpt lat="47.79613" lon="-2.38743">
        <ele>70</ele>
        <time>2021-08-07T10:33:12Z</time>
      </trkpt>
      <trkpt lat="47.79615" lon="-2.38743">
        <ele>69.8</ele>
        <time>2021-08-07T10:33:13Z</time>
      </trkpt>
      <trkpt lat="47.79617" lon="-2.38743">
        <ele>70.2</ele>
        <time>2021-08-07T10:33:14Z</time>
      </trkpt>
      <trkpt lat="47.79619" lon="-2.38743">
        <ele>70.2</ele>
        <time>2021-08-07T10:33:15Z</time>
      </trkpt>
      <trkpt lat="47.7962" lon="-2.38743">
        <ele>70</ele>
        <time>2021-08-07T10:33:16Z</time>
      </trkpt>
      <trkpt lat="47.79622" lon="-2.38743">
        <ele>70.2</ele>
        <time>2021-08-07T10:33:17Z</time>
      </trkpt>
      <trkpt lat="47.79624" lon="-2.38743">
        <ele>70.4</ele>
        <time>2021-08-07T10:33:18Z</time>
      </trkpt>
      <trkpt lat="47.79625" lon="-2.38742">
        <ele>70.4</ele>
        <time>2021-08-07T10:33:19Z</time>
      </trkpt>
      <trkpt lat="47.79627" lon="-2.38742">
        <ele>70.6</ele>
        <time>2021-08-07T10:33:20Z</time>
      </trkpt>
      <trkpt lat="47.7963" lon="-2.38742">
        <ele>70.6</ele>
        <time>2021-08-07T10:33:22Z</time>
      </trkpt>
      <trkpt lat="47.79632" lon="-2.38742">
        <ele>70.8</ele>
        <time>2021-08-07T10:33:23Z</time>
      </trkpt>
      <trkpt lat="47.79633" lon="-2.38742">
        <ele>70.8</ele>
        <time>2021-08-07T10:33:24Z</time>
      </trkpt>
      <trkpt lat="47.79635" lon="-2.38742">
        <ele>71</ele>
        <time>2021-08-07T10:33:25Z</time>
      </trkpt>
      <trkpt lat="47.79637" lon="-2.38742">
        <ele>71</ele>
        <time>2021-08-07T10:33:26Z</time>
      </trkpt>
      <trkpt lat="47.79638" lon="-2.38742">
        <ele>71.2</ele>
        <time>2021-08-07T10:33:27Z</time>
      </trkpt>
      <trkpt lat="47.7964" lon="-2.38742">
        <ele>71.6</ele>
        <time>2021-08-07T10:33:28Z</time>
      </trkpt>
      <trkpt lat="47.79643" lon="-2.38741">
        <ele>71.8</ele>
        <time>2021-08-07T10:33:29Z</time>
      </trkpt>
      <trkpt lat="47.79645" lon="-2.38741">
        <ele>72</ele>
        <time>2021-08-07T10:33:30Z</time>
      </trkpt>
      <trkpt lat="47.79647" lon="-2.38741">
        <ele>72.2</ele>
        <time>2021-08-07T10:33:31Z</time>
      </trkpt>
      <trkpt lat="47.7965" lon="-2.3874">
        <ele>72.2</ele>
        <time>2021-08-07T10:33:32Z</time>
      </trkpt>
      <trkpt lat="47.79652" lon="-2.3874">
        <ele>72.4</ele>
        <time>2021-08-07T10:33:33Z</time>
      </trkpt>
      <trkpt lat="47.79654" lon="-2.3874">
        <ele>72.6</ele>
        <time>2021-08-07T10:33:34Z</time>
      </trkpt>
      <trkpt lat="47.79656" lon="-2.3874">
        <ele>72.8</ele>
        <time>2021-08-07T10:33:35Z</time>
      </trkpt>
      <trkpt lat="47.79658" lon="-2.3874">
        <ele>73</ele>
        <time>2021-08-07T10:33:36Z</time>
      </trkpt>
      <trkpt lat="47.7966" lon="-2.38739">
        <ele>73.2</ele>
        <time>2021-08-07T10:33:37Z</time>
      </trkpt>
      <trkpt lat="47.79662" lon="-2.38739">
        <ele>73.4</ele>
        <time>2021-08-07T10:33:38Z</time>
      </trkpt>
      <trkpt lat="47.79664" lon="-2.38739">
        <ele>73.6</ele>
        <time>2021-08-07T10:33:39Z</time>
      </trkpt>
      <trkpt lat="47.79666" lon="-2.38738">
        <ele>73.8</ele>
        <time>2021-08-07T10:33:40Z</time>
      </trkpt>
      <trkpt lat="47.79668" lon="-2.38738">
        <ele>74</ele>
        <time>2021-08-07T10:33:41Z</time>
      </trkpt>
      <trkpt lat="47.7967" lon="-2.38738">
        <ele>74.2</ele>
        <time>2021-08-07T10:33:42Z</time>
      </trkpt>
      <trkpt lat="47.79674" lon="-2.38737">
        <ele>74.4</ele>
        <time>2021-08-07T10:33:44Z</time>
      </trkpt>
      <trkpt lat="47.79676" lon="-2.38737">
        <ele>74.6</ele>
        <time>2021-08-07T10:33:45Z</time>
      </trkpt>
      <trkpt lat="47.79678" lon="-2.38737">
        <ele>74.8</ele>
        <time>2021-08-07T10:33:46Z</time>
      </trkpt>
      <trkpt lat="47.7968" lon="-2.38737">
        <ele>75</ele>
        <time>2021-08-07T10:33:47Z</time>
      </trkpt>
      <trkpt lat="47.79682" lon="-2.38736">
        <ele>75</ele>
        <time>2021-08-07T10:33:48Z</time>
      </trkpt>
      <trkpt lat="47.79684" lon="-2.38736">
        <ele>75.2</ele>
        <time>2021-08-07T10:33:49Z</time>
      </trkpt>
      <trkpt lat="47.79686" lon="-2.38736">
        <ele>75.4</ele>
        <time>2021-08-07T10:33:50Z</time>
      </trkpt>
      <trkpt lat="47.79688" lon="-2.38735">
        <ele>75.6</ele>
        <time>2021-08-07T10:33:51Z</time>
      </trkpt>
      <trkpt lat="47.79689" lon="-2.38735">
        <ele>75.6</ele>
        <time>2021-08-07T10:33:52Z</time>
      </trkpt>
      <trkpt lat="47.79691" lon="-2.38735">
        <ele>75.8</ele>
        <time>2021-08-07T10:33:53Z</time>
      </trkpt>
      <trkpt lat="47.79693" lon="-2.38735">
        <ele>76</ele>
        <time>2021-08-07T10:33:54Z</time>
      </trkpt>
      <trkpt lat="47.79695" lon="-2.38735">
        <ele>76.2</ele>
        <time>2021-08-07T10:33:55Z</time>
      </trkpt>
      <trkpt lat="47.79697" lon="-2.38735">
        <ele>76.4</ele>
        <time>2021-08-07T10:33:56Z</time>
      </trkpt>
      <trkpt lat="47.797" lon="-2.38735">
        <ele>76.6</ele>
        <time>2021-08-07T10:33:57Z</time>
      </trkpt>
      <trkpt lat="47.79702" lon="-2.38735">
        <ele>76.8</ele>
        <time>2021-08-07T10:33:58Z</time>
      </trkpt>
      <trkpt lat="47.79704" lon="-2.38735">
        <ele>77</ele>
        <time>2021-08-07T10:33:59Z</time>
      </trkpt>
      <trkpt lat="47.79707" lon="-2.38735">
        <ele>77.2</ele>
        <time>2021-08-07T10:34:00Z</time>
      </trkpt>
      <trkpt lat="47.79709" lon="-2.38735">
        <ele>77.2</ele>
        <time>2021-08-07T10:34:01Z</time>
      </trkpt>
      <trkpt lat="47.79711" lon="-2.38734">
        <ele>77.6</ele>
        <time>2021-08-07T10:34:02Z</time>
      </trkpt>
      <trkpt lat="47.79713" lon="-2.38733">
        <ele>77.8</ele>
        <time>2021-08-07T10:34:03Z</time>
      </trkpt>
      <trkpt lat="47.79715" lon="-2.38732">
        <ele>78</ele>
        <time>2021-08-07T10:34:04Z</time>
      </trkpt>
      <trkpt lat="47.79718" lon="-2.38732">
        <ele>78.2</ele>
        <time>2021-08-07T10:34:05Z</time>
      </trkpt>
      <trkpt lat="47.79721" lon="-2.38732">
        <ele>78.2</ele>
        <time>2021-08-07T10:34:06Z</time>
      </trkpt>
      <trkpt lat="47.79723" lon="-2.38731">
        <ele>78.2</ele>
        <time>2021-08-07T10:34:07Z</time>
      </trkpt>
      <trkpt lat="47.79726" lon="-2.38731">
        <ele>78.4</ele>
        <time>2021-08-07T10:34:08Z</time>
      </trkpt>
      <trkpt lat="47.79729" lon="-2.38731">
        <ele>78.4</ele>
        <time>2021-08-07T10:34:09Z</time>
      </trkpt>
      <trkpt lat="47.79731" lon="-2.38731">
        <ele>78.6</ele>
        <time>2021-08-07T10:34:10Z</time>
      </trkpt>
      <trkpt lat="47.79734" lon="-2.3873">
        <ele>79</ele>
        <time>2021-08-07T10:34:11Z</time>
      </trkpt>
      <trkpt lat="47.79737" lon="-2.3873">
        <ele>79.2</ele>
        <time>2021-08-07T10:34:12Z</time>
      </trkpt>
      <trkpt lat="47.7974" lon="-2.38729">
        <ele>79.6</ele>
        <time>2021-08-07T10:34:13Z</time>
      </trkpt>
      <trkpt lat="47.79743" lon="-2.38729">
        <ele>79.8</ele>
        <time>2021-08-07T10:34:14Z</time>
      </trkpt>
      <trkpt lat="47.79748" lon="-2.38727">
        <ele>79.8</ele>
        <time>2021-08-07T10:34:16Z</time>
      </trkpt>
      <trkpt lat="47.79751" lon="-2.38727">
        <ele>80</ele>
        <time>2021-08-07T10:34:17Z</time>
      </trkpt>
      <trkpt lat="47.79754" lon="-2.38727">
        <ele>80.2</ele>
        <time>2021-08-07T10:34:18Z</time>
      </trkpt>
      <trkpt lat="47.79758" lon="-2.38727">
        <ele>80.4</ele>
        <time>2021-08-07T10:34:19Z</time>
      </trkpt>
      <trkpt lat="47.79761" lon="-2.38726">
        <ele>80.6</ele>
        <time>2021-08-07T10:34:20Z</time>
      </trkpt>
      <trkpt lat="47.79763" lon="-2.38726">
        <ele>80.8</ele>
        <time>2021-08-07T10:34:21Z</time>
      </trkpt>
      <trkpt lat="47.79766" lon="-2.38726">
        <ele>81</ele>
        <time>2021-08-07T10:34:22Z</time>
      </trkpt>
      <trkpt lat="47.79769" lon="-2.38726">
        <ele>81.2</ele>
        <time>2021-08-07T10:34:23Z</time>
      </trkpt>
      <trkpt lat="47.79771" lon="-2.38727">
        <ele>81.4</ele>
        <time>2021-08-07T10:34:24Z</time>
      </trkpt>
      <trkpt lat="47.79774" lon="-2.38727">
        <ele>81.6</ele>
        <time>2021-08-07T10:34:25Z</time>
      </trkpt>
      <trkpt lat="47.79779" lon="-2.38727">
        <ele>82.2</ele>
        <time>2021-08-07T10:34:27Z</time>
      </trkpt>
      <trkpt lat="47.79781" lon="-2.38727">
        <ele>82.2</ele>
        <time>2021-08-07T10:34:28Z</time>
      </trkpt>
      <trkpt lat="47.79784" lon="-2.38727">
        <ele>82.4</ele>
        <time>2021-08-07T10:34:29Z</time>
      </trkpt>
      <trkpt lat="47.79786" lon="-2.38727">
        <ele>82.8</ele>
        <time>2021-08-07T10:34:30Z</time>
      </trkpt>
      <trkpt lat="47.79789" lon="-2.38727">
        <ele>83</ele>
        <time>2021-08-07T10:34:31Z</time>
      </trkpt>
      <trkpt lat="47.79791" lon="-2.38727">
        <ele>83.4</ele>
        <time>2021-08-07T10:34:32Z</time>
      </trkpt>
      <trkpt lat="47.79794" lon="-2.38726">
        <ele>83.4</ele>
        <time>2021-08-07T10:34:33Z</time>
      </trkpt>
      <trkpt lat="47.79797" lon="-2.38726">
        <ele>83.6</ele>
        <time>2021-08-07T10:34:34Z</time>
      </trkpt>
      <trkpt lat="47.79799" lon="-2.38725">
        <ele>83.8</ele>
        <time>2021-08-07T10:34:35Z</time>
      </trkpt>
      <trkpt lat="47.79801" lon="-2.38724">
        <ele>83.8</ele>
        <time>2021-08-07T10:34:36Z</time>
      </trkpt>
      <trkpt lat="47.79806" lon="-2.38724">
        <ele>84</ele>
        <time>2021-08-07T10:34:38Z</time>
      </trkpt>
      <trkpt lat="47.79807" lon="-2.38724">
        <ele>84.4</ele>
        <time>2021-08-07T10:34:39Z</time>
      </trkpt>
      <trkpt lat="47.79809" lon="-2.38724">
        <ele>84.4</ele>
        <time>2021-08-07T10:34:40Z</time>
      </trkpt>
      <trkpt lat="47.79811" lon="-2.38724">
        <ele>84.6</ele>
        <time>2021-08-07T10:34:41Z</time>
      </trkpt>
      <trkpt lat="47.79814" lon="-2.38724">
        <ele>84.8</ele>
        <time>2021-08-07T10:34:42Z</time>
      </trkpt>
      <trkpt lat="47.79816" lon="-2.38724">
        <ele>84.8</ele>
        <time>2021-08-07T10:34:43Z</time>
      </trkpt>
      <trkpt lat="47.79819" lon="-2.38723">
        <ele>85</ele>
        <time>2021-08-07T10:34:44Z</time>
      </trkpt>
      <trkpt lat="47.79821" lon="-2.38723">
        <ele>85.4</ele>
        <time>2021-08-07T10:34:45Z</time>
      </trkpt>
      <trkpt lat="47.79824" lon="-2.38723">
        <ele>85.6</ele>
        <time>2021-08-07T10:34:46Z</time>
      </trkpt>
      <trkpt lat="47.79826" lon="-2.38723">
        <ele>85.8</ele>
        <time>2021-08-07T10:34:47Z</time>
      </trkpt>
      <trkpt lat="47.79831" lon="-2.38723">
        <ele>86</ele>
        <time>2021-08-07T10:34:49Z</time>
      </trkpt>
      <trkpt lat="47.79834" lon="-2.38724">
        <ele>86</ele>
        <time>2021-08-07T10:34:50Z</time>
      </trkpt>
      <trkpt lat="47.79837" lon="-2.38724">
        <ele>86.2</ele>
        <time>2021-08-07T10:34:51Z</time>
      </trkpt>
      <trkpt lat="47.79839" lon="-2.38724">
        <ele>86.6</ele>
        <time>2021-08-07T10:34:52Z</time>
      </trkpt>
      <trkpt lat="47.79842" lon="-2.38724">
        <ele>87</ele>
        <time>2021-08-07T10:34:53Z</time>
      </trkpt>
      <trkpt lat="47.79844" lon="-2.38723">
        <ele>87.2</ele>
        <time>2021-08-07T10:34:54Z</time>
      </trkpt>
      <trkpt lat="47.79846" lon="-2.38723">
        <ele>87.4</ele>
        <time>2021-08-07T10:34:55Z</time>
      </trkpt>
      <trkpt lat="47.79848" lon="-2.38722">
        <ele>87.6</ele>
        <time>2021-08-07T10:34:56Z</time>
      </trkpt>
      <trkpt lat="47.79851" lon="-2.38722">
        <ele>87.8</ele>
        <time>2021-08-07T10:34:57Z</time>
      </trkpt>
      <trkpt lat="47.79853" lon="-2.38722">
        <ele>88.2</ele>
        <time>2021-08-07T10:34:58Z</time>
      </trkpt>
      <trkpt lat="47.79858" lon="-2.38721">
        <ele>88.8</ele>
        <time>2021-08-07T10:35:00Z</time>
      </trkpt>
      <trkpt lat="47.7986" lon="-2.3872">
        <ele>89</ele>
        <time>2021-08-07T10:35:01Z</time>
      </trkpt>
      <trkpt lat="47.79863" lon="-2.3872">
        <ele>89.2</ele>
        <time>2021-08-07T10:35:02Z</time>
      </trkpt>
      <trkpt lat="47.79865" lon="-2.38719">
        <ele>89.4</ele>
        <time>2021-08-07T10:35:03Z</time>
      </trkpt>
      <trkpt lat="47.79867" lon="-2.38719">
        <ele>89.6</ele>
        <time>2021-08-07T10:35:04Z</time>
      </trkpt>
      <trkpt lat="47.79869" lon="-2.38718">
        <ele>89.6</ele>
        <time>2021-08-07T10:35:05Z</time>
      </trkpt>
      <trkpt lat="47.79871" lon="-2.38717">
        <ele>89.8</ele>
        <time>2021-08-07T10:35:06Z</time>
      </trkpt>
      <trkpt lat="47.79873" lon="-2.38717">
        <ele>90</ele>
        <time>2021-08-07T10:35:07Z</time>
      </trkpt>
      <trkpt lat="47.79875" lon="-2.38717">
        <ele>90.2</ele>
        <time>2021-08-07T10:35:08Z</time>
      </trkpt>
      <trkpt lat="47.79878" lon="-2.38717">
        <ele>90.2</ele>
        <time>2021-08-07T10:35:09Z</time>
      </trkpt>
      <trkpt lat="47.79881" lon="-2.38717">
        <ele>90.4</ele>
        <time>2021-08-07T10:35:10Z</time>
      </trkpt>
      <trkpt lat="47.79884" lon="-2.38718">
        <ele>90.6</ele>
        <time>2021-08-07T10:35:11Z</time>
      </trkpt>
      <trkpt lat="47.79887" lon="-2.38719">
        <ele>90.8</ele>
        <time>2021-08-07T10:35:12Z</time>
      </trkpt>
      <trkpt lat="47.79889" lon="-2.38718">
        <ele>91</ele>
        <time>2021-08-07T10:35:13Z</time>
      </trkpt>
      <trkpt lat="47.79891" lon="-2.38718">
        <ele>91.2</ele>
        <time>2021-08-07T10:35:14Z</time>
      </trkpt>
      <trkpt lat="47.79893" lon="-2.38717">
        <ele>91.4</ele>
        <time>2021-08-07T10:35:15Z</time>
      </trkpt>
      <trkpt lat="47.79895" lon="-2.38718">
        <ele>91.6</ele>
        <time>2021-08-07T10:35:16Z</time>
      </trkpt>
      <trkpt lat="47.79897" lon="-2.38718">
        <ele>91.8</ele>
        <time>2021-08-07T10:35:17Z</time>
      </trkpt>
      <trkpt lat="47.79899" lon="-2.38719">
        <ele>92</ele>
        <time>2021-08-07T10:35:18Z</time>
      </trkpt>
      <trkpt lat="47.79902" lon="-2.38719">
        <ele>92.2</ele>
        <time>2021-08-07T10:35:19Z</time>
      </trkpt>
      <trkpt lat="47.79904" lon="-2.38718">
        <ele>92.4</ele>
        <time>2021-08-07T10:35:20Z</time>
      </trkpt>
      <trkpt lat="47.79908" lon="-2.38716">
        <ele>92.6</ele>
        <time>2021-08-07T10:35:22Z</time>
      </trkpt>
      <trkpt lat="47.79909" lon="-2.38716">
        <ele>92.6</ele>
        <time>2021-08-07T10:35:23Z</time>
      </trkpt>
      <trkpt lat="47.79911" lon="-2.38716">
        <ele>92.6</ele>
        <time>2021-08-07T10:35:24Z</time>
      </trkpt>
      <trkpt lat="47.79913" lon="-2.38716">
        <ele>92.6</ele>
        <time>2021-08-07T10:35:25Z</time>
      </trkpt>
      <trkpt lat="47.79915" lon="-2.38715">
        <ele>92.6</ele>
        <time>2021-08-07T10:35:26Z</time>
      </trkpt>
      <trkpt lat="47.79917" lon="-2.38716">
        <ele>92.6</ele>
        <time>2021-08-07T10:35:27Z</time>
      </trkpt>
      <trkpt lat="47.79919" lon="-2.38716">
        <ele>92.8</ele>
        <time>2021-08-07T10:35:28Z</time>
      </trkpt>
      <trkpt lat="47.79927" lon="-2.38716">
        <ele>93</ele>
        <time>2021-08-07T10:36:06Z</time>
      </trkpt>
      <trkpt lat="47.79927" lon="-2.38715">
        <ele>93</ele>
        <time>2021-08-07T10:36:07Z</time>
      </trkpt>
      <trkpt lat="47.79928" lon="-2.38714">
        <ele>93</ele>
        <time>2021-08-07T10:36:08Z</time>
      </trkpt>
      <trkpt lat="47.7993" lon="-2.38714">
        <ele>93</ele>
        <time>2021-08-07T10:36:09Z</time>
      </trkpt>
      <trkpt lat="47.79934" lon="-2.38711">
        <ele>93</ele>
        <time>2021-08-07T10:36:11Z</time>
      </trkpt>
      <trkpt lat="47.79937" lon="-2.38709">
        <ele>93</ele>
        <time>2021-08-07T10:36:12Z</time>
      </trkpt>
      <trkpt lat="47.7994" lon="-2.38707">
        <ele>93</ele>
        <time>2021-08-07T10:36:13Z</time>
      </trkpt>
      <trkpt lat="47.79944" lon="-2.38704">
        <ele>93</ele>
        <time>2021-08-07T10:36:14Z</time>
      </trkpt>
      <trkpt lat="47.79948" lon="-2.387">
        <ele>92.8</ele>
        <time>2021-08-07T10:36:15Z</time>
      </trkpt>
      <trkpt lat="47.79953" lon="-2.38695">
        <ele>92.8</ele>
        <time>2021-08-07T10:36:16Z</time>
      </trkpt>
      <trkpt lat="47.79958" lon="-2.38691">
        <ele>92.8</ele>
        <time>2021-08-07T10:36:17Z</time>
      </trkpt>
      <trkpt lat="47.79963" lon="-2.38687">
        <ele>92.8</ele>
        <time>2021-08-07T10:36:18Z</time>
      </trkpt>
      <trkpt lat="47.79973" lon="-2.38674">
        <ele>92.6</ele>
        <time>2021-08-07T10:36:20Z</time>
      </trkpt>
      <trkpt lat="47.79978" lon="-2.38666">
        <ele>92.4</ele>
        <time>2021-08-07T10:36:21Z</time>
      </trkpt>
      <trkpt lat="47.79983" lon="-2.38658">
        <ele>92.2</ele>
        <time>2021-08-07T10:36:22Z</time>
      </trkpt>
      <trkpt lat="47.79989" lon="-2.38648">
        <ele>91.4</ele>
        <time>2021-08-07T10:36:23Z</time>
      </trkpt>
      <trkpt lat="47.79995" lon="-2.38638">
        <ele>90.8</ele>
        <time>2021-08-07T10:36:24Z</time>
      </trkpt>
      <trkpt lat="47.80001" lon="-2.38627">
        <ele>90.2</ele>
        <time>2021-08-07T10:36:25Z</time>
      </trkpt>
      <trkpt lat="47.80009" lon="-2.38614">
        <ele>89.8</ele>
        <time>2021-08-07T10:36:26Z</time>
      </trkpt>
      <trkpt lat="47.80019" lon="-2.38598">
        <ele>89</ele>
        <time>2021-08-07T10:36:27Z</time>
      </trkpt>
      <trkpt lat="47.80029" lon="-2.38581">
        <ele>88</ele>
        <time>2021-08-07T10:36:28Z</time>
      </trkpt>
      <trkpt lat="47.8004" lon="-2.38564">
        <ele>86.8</ele>
        <time>2021-08-07T10:36:29Z</time>
      </trkpt>
      <trkpt lat="47.80052" lon="-2.38549">
        <ele>85.2</ele>
        <time>2021-08-07T10:36:30Z</time>
      </trkpt>
      <trkpt lat="47.80064" lon="-2.38534">
        <ele>83.6</ele>
        <time>2021-08-07T10:36:31Z</time>
      </trkpt>
      <trkpt lat="47.80076" lon="-2.3852">
        <ele>81.6</ele>
        <time>2021-08-07T10:36:32Z</time>
      </trkpt>
      <trkpt lat="47.80087" lon="-2.38506">
        <ele>79.6</ele>
        <time>2021-08-07T10:36:33Z</time>
      </trkpt>
      <trkpt lat="47.80099" lon="-2.38492">
        <ele>77.8</ele>
        <time>2021-08-07T10:36:34Z</time>
      </trkpt>
      <trkpt lat="47.8011" lon="-2.38478">
        <ele>76</ele>
        <time>2021-08-07T10:36:35Z</time>
      </trkpt>
      <trkpt lat="47.80122" lon="-2.38465">
        <ele>74</ele>
        <time>2021-08-07T10:36:36Z</time>
      </trkpt>
      <trkpt lat="47.80134" lon="-2.3845">
        <ele>71.8</ele>
        <time>2021-08-07T10:36:37Z</time>
      </trkpt>
      <trkpt lat="47.80145" lon="-2.38435">
        <ele>69.2</ele>
        <time>2021-08-07T10:36:38Z</time>
      </trkpt>
      <trkpt lat="47.80155" lon="-2.38419">
        <ele>67.2</ele>
        <time>2021-08-07T10:36:39Z</time>
      </trkpt>
      <trkpt lat="47.80166" lon="-2.38404">
        <ele>65.6</ele>
        <time>2021-08-07T10:36:40Z</time>
      </trkpt>
      <trkpt lat="47.80178" lon="-2.38391">
        <ele>63.6</ele>
        <time>2021-08-07T10:36:41Z</time>
      </trkpt>
      <trkpt lat="47.80189" lon="-2.3838">
        <ele>62.4</ele>
        <time>2021-08-07T10:36:42Z</time>
      </trkpt>
      <trkpt lat="47.80202" lon="-2.38372">
        <ele>61.2</ele>
        <time>2021-08-07T10:36:43Z</time>
      </trkpt>
      <trkpt lat="47.80216" lon="-2.38366">
        <ele>60.2</ele>
        <time>2021-08-07T10:36:44Z</time>
      </trkpt>
      <trkpt lat="47.80228" lon="-2.38358">
        <ele>59.6</ele>
        <time>2021-08-07T10:36:45Z</time>
      </trkpt>
      <trkpt lat="47.80241" lon="-2.3835">
        <ele>59.2</ele>
        <time>2021-08-07T10:36:46Z</time>
      </trkpt>
      <trkpt lat="47.80251" lon="-2.38341">
        <ele>58.8</ele>
        <time>2021-08-07T10:36:47Z</time>
      </trkpt>
      <trkpt lat="47.80258" lon="-2.38331">
        <ele>57.8</ele>
        <time>2021-08-07T10:36:48Z</time>
      </trkpt>
      <trkpt lat="47.80264" lon="-2.38322">
        <ele>57.4</ele>
        <time>2021-08-07T10:36:49Z</time>
      </trkpt>
      <trkpt lat="47.80269" lon="-2.38313">
        <ele>57.2</ele>
        <time>2021-08-07T10:36:50Z</time>
      </trkpt>
      <trkpt lat="47.80273" lon="-2.38305">
        <ele>57</ele>
        <time>2021-08-07T10:36:51Z</time>
      </trkpt>
      <trkpt lat="47.80283" lon="-2.38288">
        <ele>56.8</ele>
        <time>2021-08-07T10:36:53Z</time>
      </trkpt>
      <trkpt lat="47.80288" lon="-2.3828">
        <ele>56.8</ele>
        <time>2021-08-07T10:36:54Z</time>
      </trkpt>
      <trkpt lat="47.80291" lon="-2.38273">
        <ele>56.8</ele>
        <time>2021-08-07T10:36:55Z</time>
      </trkpt>
      <trkpt lat="47.80295" lon="-2.38267">
        <ele>56.8</ele>
        <time>2021-08-07T10:36:56Z</time>
      </trkpt>
      <trkpt lat="47.80298" lon="-2.38261">
        <ele>57.2</ele>
        <time>2021-08-07T10:36:57Z</time>
      </trkpt>
      <trkpt lat="47.80301" lon="-2.38256">
        <ele>57.6</ele>
        <time>2021-08-07T10:36:58Z</time>
      </trkpt>
      <trkpt lat="47.80303" lon="-2.38252">
        <ele>58.4</ele>
        <time>2021-08-07T10:36:59Z</time>
      </trkpt>
      <trkpt lat="47.80305" lon="-2.38247">
        <ele>58.8</ele>
        <time>2021-08-07T10:37:00Z</time>
      </trkpt>
      <trkpt lat="47.80305" lon="-2.38243">
        <ele>59.2</ele>
        <time>2021-08-07T10:37:01Z</time>
      </trkpt>
      <trkpt lat="47.80305" lon="-2.3824">
        <ele>59.4</ele>
        <time>2021-08-07T10:37:02Z</time>
      </trkpt>
      <trkpt lat="47.80306" lon="-2.38238">
        <ele>59.8</ele>
        <time>2021-08-07T10:37:03Z</time>
      </trkpt>
      <trkpt lat="47.80307" lon="-2.38238">
        <ele>60.2</ele>
        <time>2021-08-07T10:37:04Z</time>
      </trkpt>
      <trkpt lat="47.80308" lon="-2.38239">
        <ele>60.4</ele>
        <time>2021-08-07T10:37:05Z</time>
      </trkpt>
      <trkpt lat="47.80308" lon="-2.38241">
        <ele>60.6</ele>
        <time>2021-08-07T10:37:06Z</time>
      </trkpt>
      <trkpt lat="47.80309" lon="-2.38243">
        <ele>60.6</ele>
        <time>2021-08-07T10:37:07Z</time>
      </trkpt>
      <trkpt lat="47.80309" lon="-2.38246">
        <ele>60.6</ele>
        <time>2021-08-07T10:37:08Z</time>
      </trkpt>
      <trkpt lat="47.80309" lon="-2.38249">
        <ele>60.6</ele>
        <time>2021-08-07T10:37:09Z</time>
      </trkpt>
      <trkpt lat="47.80308" lon="-2.38251">
        <ele>60.6</ele>
        <time>2021-08-07T10:37:10Z</time>
      </trkpt>
      <trkpt lat="47.80306" lon="-2.38254">
        <ele>60.6</ele>
        <time>2021-08-07T10:37:11Z</time>
      </trkpt>
      <trkpt lat="47.80305" lon="-2.38256">
        <ele>60.6</ele>
        <time>2021-08-07T10:37:12Z</time>
      </trkpt>
      <trkpt lat="47.80304" lon="-2.38259">
        <ele>60.6</ele>
        <time>2021-08-07T10:37:13Z</time>
      </trkpt>
      <trkpt lat="47.80302" lon="-2.38262">
        <ele>60.6</ele>
        <time>2021-08-07T10:37:14Z</time>
      </trkpt>
      <trkpt lat="47.80301" lon="-2.38265">
        <ele>60.6</ele>
        <time>2021-08-07T10:37:15Z</time>
      </trkpt>
      <trkpt lat="47.80299" lon="-2.38269">
        <ele>60.6</ele>
        <time>2021-08-07T10:37:16Z</time>
      </trkpt>
      <trkpt lat="47.80297" lon="-2.38273">
        <ele>60.6</ele>
        <time>2021-08-07T10:37:17Z</time>
      </trkpt>
      <trkpt lat="47.80295" lon="-2.38277">
        <ele>60.6</ele>
        <time>2021-08-07T10:37:18Z</time>
      </trkpt>
      <trkpt lat="47.80293" lon="-2.38282">
        <ele>60.4</ele>
        <time>2021-08-07T10:37:19Z</time>
      </trkpt>
      <trkpt lat="47.80291" lon="-2.38286">
        <ele>60.4</ele>
        <time>2021-08-07T10:37:20Z</time>
      </trkpt>
      <trkpt lat="47.80287" lon="-2.38296">
        <ele>60.6</ele>
        <time>2021-08-07T10:37:22Z</time>
      </trkpt>
      <trkpt lat="47.80284" lon="-2.38301">
        <ele>60.6</ele>
        <time>2021-08-07T10:37:23Z</time>
      </trkpt>
      <trkpt lat="47.80282" lon="-2.38306">
        <ele>60.6</ele>
        <time>2021-08-07T10:37:24Z</time>
      </trkpt>
      <trkpt lat="47.80279" lon="-2.38311">
        <ele>60.6</ele>
        <time>2021-08-07T10:37:25Z</time>
      </trkpt>
      <trkpt lat="47.80277" lon="-2.38315">
        <ele>60.6</ele>
        <time>2021-08-07T10:37:26Z</time>
      </trkpt>
      <trkpt lat="47.80274" lon="-2.38319">
        <ele>60.6</ele>
        <time>2021-08-07T10:37:27Z</time>
      </trkpt>
      <trkpt lat="47.80273" lon="-2.38323">
        <ele>60.4</ele>
        <time>2021-08-07T10:37:28Z</time>
      </trkpt>
      <trkpt lat="47.80272" lon="-2.38327">
        <ele>60.4</ele>
        <time>2021-08-07T10:37:29Z</time>
      </trkpt>
      <trkpt lat="47.80272" lon="-2.3833">
        <ele>60.2</ele>
        <time>2021-08-07T10:37:30Z</time>
      </trkpt>
      <trkpt lat="47.80278" lon="-2.38333">
        <ele>60.2</ele>
        <time>2021-08-07T10:37:32Z</time>
      </trkpt>
      <trkpt lat="47.80283" lon="-2.38332">
        <ele>60.2</ele>
        <time>2021-08-07T10:37:33Z</time>
      </trkpt>
      <trkpt lat="47.80288" lon="-2.38329">
        <ele>60.4</ele>
        <time>2021-08-07T10:37:34Z</time>
      </trkpt>
      <trkpt lat="47.80294" lon="-2.38325">
        <ele>60.2</ele>
        <time>2021-08-07T10:37:35Z</time>
      </trkpt>
      <trkpt lat="47.80302" lon="-2.38322">
        <ele>60.2</ele>
        <time>2021-08-07T10:37:36Z</time>
      </trkpt>
      <trkpt lat="47.80311" lon="-2.38319">
        <ele>59.8</ele>
        <time>2021-08-07T10:37:37Z</time>
      </trkpt>
      <trkpt lat="47.8032" lon="-2.38316">
        <ele>59.6</ele>
        <time>2021-08-07T10:37:38Z</time>
      </trkpt>
      <trkpt lat="47.8033" lon="-2.38314">
        <ele>59.8</ele>
        <time>2021-08-07T10:37:39Z</time>
      </trkpt>
      <trkpt lat="47.80341" lon="-2.38311">
        <ele>59.8</ele>
        <time>2021-08-07T10:37:40Z</time>
      </trkpt>
      <trkpt lat="47.80364" lon="-2.38306">
        <ele>58.6</ele>
        <time>2021-08-07T10:37:42Z</time>
      </trkpt>
      <trkpt lat="47.80377" lon="-2.38304">
        <ele>57.4</ele>
        <time>2021-08-07T10:37:43Z</time>
      </trkpt>
      <trkpt lat="47.80389" lon="-2.38302">
        <ele>56</ele>
        <time>2021-08-07T10:37:44Z</time>
      </trkpt>
      <trkpt lat="47.80402" lon="-2.38299">
        <ele>54.2</ele>
        <time>2021-08-07T10:37:45Z</time>
      </trkpt>
      <trkpt lat="47.80416" lon="-2.38296">
        <ele>52.4</ele>
        <time>2021-08-07T10:37:46Z</time>
      </trkpt>
      <trkpt lat="47.80429" lon="-2.38294">
        <ele>50.8</ele>
        <time>2021-08-07T10:37:47Z</time>
      </trkpt>
      <trkpt lat="47.80443" lon="-2.38292">
        <ele>49.2</ele>
        <time>2021-08-07T10:37:48Z</time>
      </trkpt>
      <trkpt lat="47.80455" lon="-2.38289">
        <ele>45.2</ele>
        <time>2021-08-07T10:37:49Z</time>
      </trkpt>
      <trkpt lat="47.80466" lon="-2.38287">
        <ele>43.4</ele>
        <time>2021-08-07T10:37:50Z</time>
      </trkpt>
      <trkpt lat="47.80476" lon="-2.38284">
        <ele>41</ele>
        <time>2021-08-07T10:37:51Z</time>
      </trkpt>
      <trkpt lat="47.80484" lon="-2.3828">
        <ele>38.6</ele>
        <time>2021-08-07T10:37:52Z</time>
      </trkpt>
      <trkpt lat="47.80492" lon="-2.38276">
        <ele>37</ele>
        <time>2021-08-07T10:37:53Z</time>
      </trkpt>
      <trkpt lat="47.80499" lon="-2.38272">
        <ele>35.4</ele>
        <time>2021-08-07T10:37:54Z</time>
      </trkpt>
      <trkpt lat="47.80505" lon="-2.38269">
        <ele>34.6</ele>
        <time>2021-08-07T10:37:55Z</time>
      </trkpt>
      <trkpt lat="47.8051" lon="-2.38266">
        <ele>34.2</ele>
        <time>2021-08-07T10:37:56Z</time>
      </trkpt>
      <trkpt lat="47.80516" lon="-2.38263">
        <ele>33.8</ele>
        <time>2021-08-07T10:37:57Z</time>
      </trkpt>
      <trkpt lat="47.8052" lon="-2.3826">
        <ele>33.6</ele>
        <time>2021-08-07T10:37:58Z</time>
      </trkpt>
      <trkpt lat="47.80524" lon="-2.38257">
        <ele>33.4</ele>
        <time>2021-08-07T10:37:59Z</time>
      </trkpt>
      <trkpt lat="47.80528" lon="-2.38254">
        <ele>33.2</ele>
        <time>2021-08-07T10:38:00Z</time>
      </trkpt>
      <trkpt lat="47.80532" lon="-2.38251">
        <ele>33.2</ele>
        <time>2021-08-07T10:38:01Z</time>
      </trkpt>
      <trkpt lat="47.80536" lon="-2.38248">
        <ele>33.2</ele>
        <time>2021-08-07T10:38:02Z</time>
      </trkpt>
      <trkpt lat="47.80541" lon="-2.38245">
        <ele>33</ele>
        <time>2021-08-07T10:38:03Z</time>
      </trkpt>
      <trkpt lat="47.80546" lon="-2.38241">
        <ele>33</ele>
        <time>2021-08-07T10:38:04Z</time>
      </trkpt>
      <trkpt lat="47.80551" lon="-2.38237">
        <ele>33</ele>
        <time>2021-08-07T10:38:05Z</time>
      </trkpt>
      <trkpt lat="47.80556" lon="-2.38232">
        <ele>33</ele>
        <time>2021-08-07T10:38:06Z</time>
      </trkpt>
      <trkpt lat="47.80561" lon="-2.38227">
        <ele>33</ele>
        <time>2021-08-07T10:38:07Z</time>
      </trkpt>
      <trkpt lat="47.80567" lon="-2.38222">
        <ele>33</ele>
        <time>2021-08-07T10:38:08Z</time>
      </trkpt>
      <trkpt lat="47.80572" lon="-2.38216">
        <ele>32.8</ele>
        <time>2021-08-07T10:38:09Z</time>
      </trkpt>
      <trkpt lat="47.80578" lon="-2.38211">
        <ele>32.8</ele>
        <time>2021-08-07T10:38:10Z</time>
      </trkpt>
      <trkpt lat="47.80583" lon="-2.38205">
        <ele>32.6</ele>
        <time>2021-08-07T10:38:11Z</time>
      </trkpt>
      <trkpt lat="47.80589" lon="-2.38201">
        <ele>32.4</ele>
        <time>2021-08-07T10:38:12Z</time>
      </trkpt>
      <trkpt lat="47.80594" lon="-2.38196">
        <ele>32</ele>
        <time>2021-08-07T10:38:13Z</time>
      </trkpt>
      <trkpt lat="47.80605" lon="-2.38186">
        <ele>31.8</ele>
        <time>2021-08-07T10:38:15Z</time>
      </trkpt>
      <trkpt lat="47.8061" lon="-2.3818">
        <ele>31.6</ele>
        <time>2021-08-07T10:38:16Z</time>
      </trkpt>
      <trkpt lat="47.80615" lon="-2.38174">
        <ele>30.8</ele>
        <time>2021-08-07T10:38:17Z</time>
      </trkpt>
      <trkpt lat="47.80621" lon="-2.38168">
        <ele>30.4</ele>
        <time>2021-08-07T10:38:18Z</time>
      </trkpt>
      <trkpt lat="47.80626" lon="-2.38162">
        <ele>30.2</ele>
        <time>2021-08-07T10:38:19Z</time>
      </trkpt>
      <trkpt lat="47.80631" lon="-2.38157">
        <ele>30.2</ele>
        <time>2021-08-07T10:38:20Z</time>
      </trkpt>
      <trkpt lat="47.80636" lon="-2.38151">
        <ele>30</ele>
        <time>2021-08-07T10:38:21Z</time>
      </trkpt>
      <trkpt lat="47.80641" lon="-2.38146">
        <ele>29.8</ele>
        <time>2021-08-07T10:38:22Z</time>
      </trkpt>
      <trkpt lat="47.80646" lon="-2.3814">
        <ele>29.6</ele>
        <time>2021-08-07T10:38:23Z</time>
      </trkpt>
      <trkpt lat="47.80651" lon="-2.38134">
        <ele>29</ele>
        <time>2021-08-07T10:38:24Z</time>
      </trkpt>
      <trkpt lat="47.80661" lon="-2.38121">
        <ele>28.6</ele>
        <time>2021-08-07T10:38:26Z</time>
      </trkpt>
      <trkpt lat="47.80666" lon="-2.38113">
        <ele>28.4</ele>
        <time>2021-08-07T10:38:27Z</time>
      </trkpt>
      <trkpt lat="47.8067" lon="-2.38106">
        <ele>28.4</ele>
        <time>2021-08-07T10:38:28Z</time>
      </trkpt>
      <trkpt lat="47.80674" lon="-2.38099">
        <ele>28.2</ele>
        <time>2021-08-07T10:38:29Z</time>
      </trkpt>
      <trkpt lat="47.80677" lon="-2.38093">
        <ele>28</ele>
        <time>2021-08-07T10:38:30Z</time>
      </trkpt>
      <trkpt lat="47.80679" lon="-2.38088">
        <ele>27.8</ele>
        <time>2021-08-07T10:38:31Z</time>
      </trkpt>
      <trkpt lat="47.80681" lon="-2.38084">
        <ele>27.4</ele>
        <time>2021-08-07T10:38:32Z</time>
      </trkpt>
      <trkpt lat="47.80682" lon="-2.3808">
        <ele>27</ele>
        <time>2021-08-07T10:38:33Z</time>
      </trkpt>
      <trkpt lat="47.80683" lon="-2.38077">
        <ele>26.6</ele>
        <time>2021-08-07T10:38:34Z</time>
      </trkpt>
      <trkpt lat="47.80685" lon="-2.38074">
        <ele>26.2</ele>
        <time>2021-08-07T10:38:35Z</time>
      </trkpt>
      <trkpt lat="47.80689" lon="-2.38071">
        <ele>25.4</ele>
        <time>2021-08-07T10:38:37Z</time>
      </trkpt>
      <trkpt lat="47.80692" lon="-2.3807">
        <ele>25.2</ele>
        <time>2021-08-07T10:38:38Z</time>
      </trkpt>
      <trkpt lat="47.80695" lon="-2.3807">
        <ele>25</ele>
        <time>2021-08-07T10:38:39Z</time>
      </trkpt>
      <trkpt lat="47.80698" lon="-2.3807">
        <ele>25</ele>
        <time>2021-08-07T10:38:40Z</time>
      </trkpt>
      <trkpt lat="47.80701" lon="-2.38071">
        <ele>24.8</ele>
        <time>2021-08-07T10:38:41Z</time>
      </trkpt>
      <trkpt lat="47.80704" lon="-2.38073">
        <ele>24.8</ele>
        <time>2021-08-07T10:38:42Z</time>
      </trkpt>
      <trkpt lat="47.80708" lon="-2.38074">
        <ele>24.6</ele>
        <time>2021-08-07T10:38:43Z</time>
      </trkpt>
      <trkpt lat="47.80712" lon="-2.38075">
        <ele>24.6</ele>
        <time>2021-08-07T10:38:44Z</time>
      </trkpt>
      <trkpt lat="47.80716" lon="-2.38077">
        <ele>24.2</ele>
        <time>2021-08-07T10:38:45Z</time>
      </trkpt>
      <trkpt lat="47.8072" lon="-2.38078">
        <ele>24.2</ele>
        <time>2021-08-07T10:38:46Z</time>
      </trkpt>
      <trkpt lat="47.80724" lon="-2.38079">
        <ele>24</ele>
        <time>2021-08-07T10:38:47Z</time>
      </trkpt>
      <trkpt lat="47.80728" lon="-2.38081">
        <ele>24</ele>
        <time>2021-08-07T10:38:48Z</time>
      </trkpt>
      <trkpt lat="47.80732" lon="-2.38082">
        <ele>24</ele>
        <time>2021-08-07T10:38:49Z</time>
      </trkpt>
      <trkpt lat="47.80737" lon="-2.38084">
        <ele>23.8</ele>
        <time>2021-08-07T10:38:50Z</time>
      </trkpt>
      <trkpt lat="47.80741" lon="-2.38085">
        <ele>23.8</ele>
        <time>2021-08-07T10:38:51Z</time>
      </trkpt>
      <trkpt lat="47.80746" lon="-2.38087">
        <ele>23.8</ele>
        <time>2021-08-07T10:38:52Z</time>
      </trkpt>
      <trkpt lat="47.8075" lon="-2.38088">
        <ele>23.6</ele>
        <time>2021-08-07T10:38:53Z</time>
      </trkpt>
      <trkpt lat="47.80755" lon="-2.3809">
        <ele>23.6</ele>
        <time>2021-08-07T10:38:54Z</time>
      </trkpt>
      <trkpt lat="47.8076" lon="-2.38091">
        <ele>23.6</ele>
        <time>2021-08-07T10:38:55Z</time>
      </trkpt>
      <trkpt lat="47.80765" lon="-2.38092">
        <ele>23.6</ele>
        <time>2021-08-07T10:38:56Z</time>
      </trkpt>
      <trkpt lat="47.8077" lon="-2.38094">
        <ele>23.4</ele>
        <time>2021-08-07T10:38:57Z</time>
      </trkpt>
      <trkpt lat="47.80779" lon="-2.38097">
        <ele>23.2</ele>
        <time>2021-08-07T10:38:59Z</time>
      </trkpt>
      <trkpt lat="47.80783" lon="-2.38098">
        <ele>23.2</ele>
        <time>2021-08-07T10:39:00Z</time>
      </trkpt>
      <trkpt lat="47.80788" lon="-2.381">
        <ele>23.2</ele>
        <time>2021-08-07T10:39:01Z</time>
      </trkpt>
      <trkpt lat="47.80792" lon="-2.381">
        <ele>23.2</ele>
        <time>2021-08-07T10:39:02Z</time>
      </trkpt>
      <trkpt lat="47.80797" lon="-2.38101">
        <ele>23.2</ele>
        <time>2021-08-07T10:39:03Z</time>
      </trkpt>
      <trkpt lat="47.80801" lon="-2.38102">
        <ele>23.2</ele>
        <time>2021-08-07T10:39:04Z</time>
      </trkpt>
      <trkpt lat="47.80805" lon="-2.38103">
        <ele>23.2</ele>
        <time>2021-08-07T10:39:05Z</time>
      </trkpt>
      <trkpt lat="47.80808" lon="-2.38103">
        <ele>23.2</ele>
        <time>2021-08-07T10:39:06Z</time>
      </trkpt>
      <trkpt lat="47.80812" lon="-2.38104">
        <ele>23.2</ele>
        <time>2021-08-07T10:39:07Z</time>
      </trkpt>
      <trkpt lat="47.80815" lon="-2.38105">
        <ele>23.4</ele>
        <time>2021-08-07T10:39:08Z</time>
      </trkpt>
      <trkpt lat="47.8082" lon="-2.38108">
        <ele>23.4</ele>
        <time>2021-08-07T10:39:10Z</time>
      </trkpt>
      <trkpt lat="47.80822" lon="-2.38109">
        <ele>23.4</ele>
        <time>2021-08-07T10:39:11Z</time>
      </trkpt>
      <trkpt lat="47.80824" lon="-2.3811">
        <ele>23.4</ele>
        <time>2021-08-07T10:39:12Z</time>
      </trkpt>
      <trkpt lat="47.80825" lon="-2.3811">
        <ele>23.4</ele>
        <time>2021-08-07T10:39:13Z</time>
      </trkpt>
      <trkpt lat="47.80825" lon="-2.3811">
        <ele>23.8</ele>
        <time>2021-08-07T10:39:14Z</time>
      </trkpt>
      <trkpt lat="47.80825" lon="-2.3811">
        <ele>24</ele>
        <time>2021-08-07T10:39:15Z</time>
      </trkpt>
      <trkpt lat="47.80826" lon="-2.3811">
        <ele>24.6</ele>
        <time>2021-08-07T10:39:46Z</time>
      </trkpt>
      <trkpt lat="47.80827" lon="-2.3811">
        <ele>24.6</ele>
        <time>2021-08-07T10:39:47Z</time>
      </trkpt>
      <trkpt lat="47.80828" lon="-2.38111">
        <ele>24.6</ele>
        <time>2021-08-07T10:39:48Z</time>
      </trkpt>
      <trkpt lat="47.8083" lon="-2.38111">
        <ele>24.6</ele>
        <time>2021-08-07T10:39:49Z</time>
      </trkpt>
      <trkpt lat="47.80834" lon="-2.38113">
        <ele>24.6</ele>
        <time>2021-08-07T10:39:51Z</time>
      </trkpt>
      <trkpt lat="47.80837" lon="-2.38114">
        <ele>24.6</ele>
        <time>2021-08-07T10:39:52Z</time>
      </trkpt>
      <trkpt lat="47.80839" lon="-2.38115">
        <ele>24.6</ele>
        <time>2021-08-07T10:39:53Z</time>
      </trkpt>
      <trkpt lat="47.80841" lon="-2.38117">
        <ele>24.6</ele>
        <time>2021-08-07T10:39:54Z</time>
      </trkpt>
      <trkpt lat="47.80844" lon="-2.38119">
        <ele>24.6</ele>
        <time>2021-08-07T10:39:55Z</time>
      </trkpt>
      <trkpt lat="47.80846" lon="-2.3812">
        <ele>24.6</ele>
        <time>2021-08-07T10:39:56Z</time>
      </trkpt>
      <trkpt lat="47.80848" lon="-2.38122">
        <ele>24.6</ele>
        <time>2021-08-07T10:39:57Z</time>
      </trkpt>
      <trkpt lat="47.8085" lon="-2.38125">
        <ele>24.6</ele>
        <time>2021-08-07T10:39:58Z</time>
      </trkpt>
      <trkpt lat="47.80852" lon="-2.38127">
        <ele>24.6</ele>
        <time>2021-08-07T10:39:59Z</time>
      </trkpt>
      <trkpt lat="47.80854" lon="-2.3813">
        <ele>24.6</ele>
        <time>2021-08-07T10:40:00Z</time>
      </trkpt>
      <trkpt lat="47.80857" lon="-2.38133">
        <ele>24.6</ele>
        <time>2021-08-07T10:40:01Z</time>
      </trkpt>
      <trkpt lat="47.80859" lon="-2.38135">
        <ele>24.6</ele>
        <time>2021-08-07T10:40:02Z</time>
      </trkpt>
      <trkpt lat="47.80862" lon="-2.38137">
        <ele>24.6</ele>
        <time>2021-08-07T10:40:03Z</time>
      </trkpt>
      <trkpt lat="47.80864" lon="-2.3814">
        <ele>24.6</ele>
        <time>2021-08-07T10:40:04Z</time>
      </trkpt>
      <trkpt lat="47.80866" lon="-2.38142">
        <ele>24.6</ele>
        <time>2021-08-07T10:40:05Z</time>
      </trkpt>
      <trkpt lat="47.80869" lon="-2.38145">
        <ele>24.6</ele>
        <time>2021-08-07T10:40:06Z</time>
      </trkpt>
      <trkpt lat="47.80871" lon="-2.38147">
        <ele>24.6</ele>
        <time>2021-08-07T10:40:07Z</time>
      </trkpt>
      <trkpt lat="47.80873" lon="-2.38149">
        <ele>24.6</ele>
        <time>2021-08-07T10:40:08Z</time>
      </trkpt>
      <trkpt lat="47.80875" lon="-2.38151">
        <ele>24.6</ele>
        <time>2021-08-07T10:40:09Z</time>
      </trkpt>
      <trkpt lat="47.80876" lon="-2.38152">
        <ele>24.8</ele>
        <time>2021-08-07T10:40:10Z</time>
      </trkpt>
      <trkpt lat="47.80878" lon="-2.38153">
        <ele>24.8</ele>
        <time>2021-08-07T10:40:11Z</time>
      </trkpt>
      <trkpt lat="47.80879" lon="-2.38155">
        <ele>24.8</ele>
        <time>2021-08-07T10:40:12Z</time>
      </trkpt>
      <trkpt lat="47.80882" lon="-2.38158">
        <ele>24.8</ele>
        <time>2021-08-07T10:40:14Z</time>
      </trkpt>
      <trkpt lat="47.80884" lon="-2.3816">
        <ele>24.8</ele>
        <time>2021-08-07T10:40:15Z</time>
      </trkpt>
      <trkpt lat="47.80886" lon="-2.38162">
        <ele>24.8</ele>
        <time>2021-08-07T10:40:16Z</time>
      </trkpt>
      <trkpt lat="47.80887" lon="-2.38164">
        <ele>24.8</ele>
        <time>2021-08-07T10:40:17Z</time>
      </trkpt>
      <trkpt lat="47.80888" lon="-2.38166">
        <ele>24.8</ele>
        <time>2021-08-07T10:40:18Z</time>
      </trkpt>
      <trkpt lat="47.8089" lon="-2.38169">
        <ele>24.8</ele>
        <time>2021-08-07T10:40:19Z</time>
      </trkpt>
      <trkpt lat="47.80892" lon="-2.38171">
        <ele>24.8</ele>
        <time>2021-08-07T10:40:20Z</time>
      </trkpt>
      <trkpt lat="47.80894" lon="-2.38173">
        <ele>24.8</ele>
        <time>2021-08-07T10:40:21Z</time>
      </trkpt>
      <trkpt lat="47.80896" lon="-2.38176">
        <ele>25</ele>
        <time>2021-08-07T10:40:22Z</time>
      </trkpt>
      <trkpt lat="47.80898" lon="-2.38178">
        <ele>25</ele>
        <time>2021-08-07T10:40:23Z</time>
      </trkpt>
      <trkpt lat="47.80902" lon="-2.38184">
        <ele>25</ele>
        <time>2021-08-07T10:40:25Z</time>
      </trkpt>
      <trkpt lat="47.80904" lon="-2.38186">
        <ele>25.2</ele>
        <time>2021-08-07T10:40:26Z</time>
      </trkpt>
      <trkpt lat="47.80906" lon="-2.38189">
        <ele>25.4</ele>
        <time>2021-08-07T10:40:27Z</time>
      </trkpt>
      <trkpt lat="47.80908" lon="-2.38192">
        <ele>25.6</ele>
        <time>2021-08-07T10:40:28Z</time>
      </trkpt>
      <trkpt lat="47.8091" lon="-2.38194">
        <ele>25.8</ele>
        <time>2021-08-07T10:40:29Z</time>
      </trkpt>
      <trkpt lat="47.80913" lon="-2.38197">
        <ele>26</ele>
        <time>2021-08-07T10:40:30Z</time>
      </trkpt>
      <trkpt lat="47.80914" lon="-2.382">
        <ele>26.2</ele>
        <time>2021-08-07T10:40:31Z</time>
      </trkpt>
      <trkpt lat="47.80916" lon="-2.38203">
        <ele>26.4</ele>
        <time>2021-08-07T10:40:32Z</time>
      </trkpt>
      <trkpt lat="47.80918" lon="-2.38206">
        <ele>26.4</ele>
        <time>2021-08-07T10:40:33Z</time>
      </trkpt>
      <trkpt lat="47.8092" lon="-2.38209">
        <ele>26.6</ele>
        <time>2021-08-07T10:40:34Z</time>
      </trkpt>
      <trkpt lat="47.80924" lon="-2.38215">
        <ele>26.6</ele>
        <time>2021-08-07T10:40:36Z</time>
      </trkpt>
      <trkpt lat="47.80927" lon="-2.38218">
        <ele>26.6</ele>
        <time>2021-08-07T10:40:37Z</time>
      </trkpt>
      <trkpt lat="47.80929" lon="-2.38221">
        <ele>26.8</ele>
        <time>2021-08-07T10:40:38Z</time>
      </trkpt>
      <trkpt lat="47.80932" lon="-2.38223">
        <ele>26.8</ele>
        <time>2021-08-07T10:40:39Z</time>
      </trkpt>
      <trkpt lat="47.80935" lon="-2.38226">
        <ele>26.8</ele>
        <time>2021-08-07T10:40:40Z</time>
      </trkpt>
      <trkpt lat="47.80938" lon="-2.38228">
        <ele>26.8</ele>
        <time>2021-08-07T10:40:41Z</time>
      </trkpt>
      <trkpt lat="47.8094" lon="-2.38231">
        <ele>26.8</ele>
        <time>2021-08-07T10:40:42Z</time>
      </trkpt>
      <trkpt lat="47.80943" lon="-2.38234">
        <ele>26.8</ele>
        <time>2021-08-07T10:40:43Z</time>
      </trkpt>
      <trkpt lat="47.80946" lon="-2.38237">
        <ele>26.8</ele>
        <time>2021-08-07T10:40:44Z</time>
      </trkpt>
      <trkpt lat="47.80948" lon="-2.3824">
        <ele>26.8</ele>
        <time>2021-08-07T10:40:45Z</time>
      </trkpt>
      <trkpt lat="47.80952" lon="-2.38244">
        <ele>27</ele>
        <time>2021-08-07T10:40:47Z</time>
      </trkpt>
      <trkpt lat="47.80953" lon="-2.38246">
        <ele>27</ele>
        <time>2021-08-07T10:40:48Z</time>
      </trkpt>
      <trkpt lat="47.80955" lon="-2.38247">
        <ele>27.2</ele>
        <time>2021-08-07T10:40:49Z</time>
      </trkpt>
      <trkpt lat="47.80956" lon="-2.38249">
        <ele>27.2</ele>
        <time>2021-08-07T10:40:50Z</time>
      </trkpt>
      <trkpt lat="47.80957" lon="-2.38251">
        <ele>27.4</ele>
        <time>2021-08-07T10:40:51Z</time>
      </trkpt>
      <trkpt lat="47.80958" lon="-2.38253">
        <ele>27.4</ele>
        <time>2021-08-07T10:40:52Z</time>
      </trkpt>
      <trkpt lat="47.80959" lon="-2.38254">
        <ele>27.4</ele>
        <time>2021-08-07T10:40:53Z</time>
      </trkpt>
      <trkpt lat="47.80961" lon="-2.38256">
        <ele>27.4</ele>
        <time>2021-08-07T10:40:54Z</time>
      </trkpt>
      <trkpt lat="47.80962" lon="-2.38257">
        <ele>27.4</ele>
        <time>2021-08-07T10:40:55Z</time>
      </trkpt>
      <trkpt lat="47.80963" lon="-2.38257">
        <ele>27.4</ele>
        <time>2021-08-07T10:40:56Z</time>
      </trkpt>
      <trkpt lat="47.80964" lon="-2.38255">
        <ele>27.6</ele>
        <time>2021-08-07T10:40:58Z</time>
      </trkpt>
      <trkpt lat="47.80966" lon="-2.38254">
        <ele>27.6</ele>
        <time>2021-08-07T10:40:59Z</time>
      </trkpt>
      <trkpt lat="47.80968" lon="-2.38253">
        <ele>27.6</ele>
        <time>2021-08-07T10:41:00Z</time>
      </trkpt>
      <trkpt lat="47.8097" lon="-2.38252">
        <ele>27.6</ele>
        <time>2021-08-07T10:41:01Z</time>
      </trkpt>
      <trkpt lat="47.80971" lon="-2.38252">
        <ele>27.6</ele>
        <time>2021-08-07T10:41:02Z</time>
      </trkpt>
      <trkpt lat="47.80972" lon="-2.38252">
        <ele>27.6</ele>
        <time>2021-08-07T10:41:03Z</time>
      </trkpt>
      <trkpt lat="47.80975" lon="-2.38254">
        <ele>27.6</ele>
        <time>2021-08-07T10:41:04Z</time>
      </trkpt>
      <trkpt lat="47.80976" lon="-2.38255">
        <ele>27.6</ele>
        <time>2021-08-07T10:41:05Z</time>
      </trkpt>
      <trkpt lat="47.80977" lon="-2.38256">
        <ele>27.4</ele>
        <time>2021-08-07T10:41:06Z</time>
      </trkpt>
      <trkpt lat="47.80978" lon="-2.38258">
        <ele>27.4</ele>
        <time>2021-08-07T10:41:07Z</time>
      </trkpt>
      <trkpt lat="47.8098" lon="-2.3826">
        <ele>27.6</ele>
        <time>2021-08-07T10:41:09Z</time>
      </trkpt>
      <trkpt lat="47.80981" lon="-2.38261">
        <ele>27.6</ele>
        <time>2021-08-07T10:41:10Z</time>
      </trkpt>
      <trkpt lat="47.80981" lon="-2.38263">
        <ele>27.6</ele>
        <time>2021-08-07T10:41:11Z</time>
      </trkpt>
      <trkpt lat="47.80982" lon="-2.38264">
        <ele>27.6</ele>
        <time>2021-08-07T10:41:12Z</time>
      </trkpt>
      <trkpt lat="47.80983" lon="-2.38265">
        <ele>27.6</ele>
        <time>2021-08-07T10:41:13Z</time>
      </trkpt>
      <trkpt lat="47.80983" lon="-2.38266">
        <ele>27.6</ele>
        <time>2021-08-07T10:41:14Z</time>
      </trkpt>
      <trkpt lat="47.80984" lon="-2.38267">
        <ele>27.4</ele>
        <time>2021-08-07T10:41:15Z</time>
      </trkpt>
      <trkpt lat="47.80984" lon="-2.38267">
        <ele>27.4</ele>
        <time>2021-08-07T10:41:17Z</time>
      </trkpt>
      <trkpt lat="47.80992" lon="-2.38294">
        <ele>25.2</ele>
        <time>2021-08-07T11:35:27Z</time>
      </trkpt>
      <trkpt lat="47.80994" lon="-2.38293">
        <ele>25.2</ele>
        <time>2021-08-07T11:35:28Z</time>
      </trkpt>
      <trkpt lat="47.80996" lon="-2.38292">
        <ele>25.2</ele>
        <time>2021-08-07T11:35:30Z</time>
      </trkpt>
      <trkpt lat="47.80997" lon="-2.38291">
        <ele>25.2</ele>
        <time>2021-08-07T11:35:31Z</time>
      </trkpt>
      <trkpt lat="47.80998" lon="-2.38289">
        <ele>25.2</ele>
        <time>2021-08-07T11:35:32Z</time>
      </trkpt>
      <trkpt lat="47.80999" lon="-2.38287">
        <ele>25</ele>
        <time>2021-08-07T11:35:33Z</time>
      </trkpt>
      <trkpt lat="47.81001" lon="-2.38286">
        <ele>25</ele>
        <time>2021-08-07T11:35:34Z</time>
      </trkpt>
      <trkpt lat="47.81002" lon="-2.38285">
        <ele>25</ele>
        <time>2021-08-07T11:35:35Z</time>
      </trkpt>
      <trkpt lat="47.81002" lon="-2.38284">
        <ele>25</ele>
        <time>2021-08-07T11:35:36Z</time>
      </trkpt>
      <trkpt lat="47.81004" lon="-2.38283">
        <ele>25</ele>
        <time>2021-08-07T11:35:38Z</time>
      </trkpt>
      <trkpt lat="47.81004" lon="-2.38282">
        <ele>25</ele>
        <time>2021-08-07T11:35:39Z</time>
      </trkpt>
      <trkpt lat="47.81004" lon="-2.38282">
        <ele>25</ele>
        <time>2021-08-07T11:35:40Z</time>
      </trkpt>
      <trkpt lat="47.81005" lon="-2.38281">
        <ele>25</ele>
        <time>2021-08-07T11:35:42Z</time>
      </trkpt>
      <trkpt lat="47.81006" lon="-2.3828">
        <ele>24.8</ele>
        <time>2021-08-07T11:35:43Z</time>
      </trkpt>
      <trkpt lat="47.81007" lon="-2.3828">
        <ele>24.8</ele>
        <time>2021-08-07T11:35:44Z</time>
      </trkpt>
      <trkpt lat="47.81008" lon="-2.38279">
        <ele>24.8</ele>
        <time>2021-08-07T11:35:45Z</time>
      </trkpt>
      <trkpt lat="47.8101" lon="-2.38277">
        <ele>24.8</ele>
        <time>2021-08-07T11:35:47Z</time>
      </trkpt>
      <trkpt lat="47.81012" lon="-2.38275">
        <ele>24.8</ele>
        <time>2021-08-07T11:35:48Z</time>
      </trkpt>
      <trkpt lat="47.81014" lon="-2.38273">
        <ele>24.8</ele>
        <time>2021-08-07T11:35:49Z</time>
      </trkpt>
      <trkpt lat="47.81015" lon="-2.38272">
        <ele>24.8</ele>
        <time>2021-08-07T11:35:50Z</time>
      </trkpt>
      <trkpt lat="47.81015" lon="-2.38273">
        <ele>24.8</ele>
        <time>2021-08-07T11:35:51Z</time>
      </trkpt>
      <trkpt lat="47.81016" lon="-2.38274">
        <ele>24.8</ele>
        <time>2021-08-07T11:35:52Z</time>
      </trkpt>
      <trkpt lat="47.81017" lon="-2.38275">
        <ele>24.8</ele>
        <time>2021-08-07T11:35:53Z</time>
      </trkpt>
      <trkpt lat="47.81019" lon="-2.38276">
        <ele>24.6</ele>
        <time>2021-08-07T11:35:54Z</time>
      </trkpt>
      <trkpt lat="47.8102" lon="-2.38276">
        <ele>24.6</ele>
        <time>2021-08-07T11:35:55Z</time>
      </trkpt>
      <trkpt lat="47.81022" lon="-2.38275">
        <ele>24.6</ele>
        <time>2021-08-07T11:35:56Z</time>
      </trkpt>
      <trkpt lat="47.81024" lon="-2.38274">
        <ele>24.4</ele>
        <time>2021-08-07T11:35:57Z</time>
      </trkpt>
      <trkpt lat="47.81026" lon="-2.38272">
        <ele>24.2</ele>
        <time>2021-08-07T11:35:58Z</time>
      </trkpt>
      <trkpt lat="47.81029" lon="-2.38271">
        <ele>24.2</ele>
        <time>2021-08-07T11:35:59Z</time>
      </trkpt>
      <trkpt lat="47.81031" lon="-2.38269">
        <ele>24.2</ele>
        <time>2021-08-07T11:36:00Z</time>
      </trkpt>
      <trkpt lat="47.81034" lon="-2.38266">
        <ele>24.2</ele>
        <time>2021-08-07T11:36:01Z</time>
      </trkpt>
      <trkpt lat="47.81036" lon="-2.38264">
        <ele>24.2</ele>
        <time>2021-08-07T11:36:02Z</time>
      </trkpt>
      <trkpt lat="47.81039" lon="-2.38263">
        <ele>24</ele>
        <time>2021-08-07T11:36:03Z</time>
      </trkpt>
      <trkpt lat="47.81042" lon="-2.38262">
        <ele>24</ele>
        <time>2021-08-07T11:36:04Z</time>
      </trkpt>
      <trkpt lat="47.81045" lon="-2.3826">
        <ele>24</ele>
        <time>2021-08-07T11:36:05Z</time>
      </trkpt>
      <trkpt lat="47.81049" lon="-2.38259">
        <ele>24</ele>
        <time>2021-08-07T11:36:06Z</time>
      </trkpt>
      <trkpt lat="47.81052" lon="-2.38257">
        <ele>23.8</ele>
        <time>2021-08-07T11:36:07Z</time>
      </trkpt>
      <trkpt lat="47.81056" lon="-2.38255">
        <ele>23.8</ele>
        <time>2021-08-07T11:36:08Z</time>
      </trkpt>
      <trkpt lat="47.8106" lon="-2.38252">
        <ele>23.8</ele>
        <time>2021-08-07T11:36:09Z</time>
      </trkpt>
      <trkpt lat="47.81065" lon="-2.3825">
        <ele>23.8</ele>
        <time>2021-08-07T11:36:10Z</time>
      </trkpt>
      <trkpt lat="47.81069" lon="-2.38248">
        <ele>23.6</ele>
        <time>2021-08-07T11:36:11Z</time>
      </trkpt>
      <trkpt lat="47.81073" lon="-2.38247">
        <ele>23.6</ele>
        <time>2021-08-07T11:36:12Z</time>
      </trkpt>
      <trkpt lat="47.81078" lon="-2.38245">
        <ele>23.4</ele>
        <time>2021-08-07T11:36:13Z</time>
      </trkpt>
      <trkpt lat="47.81082" lon="-2.38242">
        <ele>23.4</ele>
        <time>2021-08-07T11:36:14Z</time>
      </trkpt>
      <trkpt lat="47.81086" lon="-2.3824">
        <ele>23.2</ele>
        <time>2021-08-07T11:36:15Z</time>
      </trkpt>
      <trkpt lat="47.81091" lon="-2.38238">
        <ele>22.8</ele>
        <time>2021-08-07T11:36:16Z</time>
      </trkpt>
      <trkpt lat="47.81095" lon="-2.38235">
        <ele>22.6</ele>
        <time>2021-08-07T11:36:17Z</time>
      </trkpt>
      <trkpt lat="47.81099" lon="-2.38233">
        <ele>22.4</ele>
        <time>2021-08-07T11:36:18Z</time>
      </trkpt>
      <trkpt lat="47.81103" lon="-2.38231">
        <ele>22.4</ele>
        <time>2021-08-07T11:36:19Z</time>
      </trkpt>
      <trkpt lat="47.81106" lon="-2.38229">
        <ele>22.4</ele>
        <time>2021-08-07T11:36:20Z</time>
      </trkpt>
      <trkpt lat="47.8111" lon="-2.38228">
        <ele>22.2</ele>
        <time>2021-08-07T11:36:21Z</time>
      </trkpt>
      <trkpt lat="47.81113" lon="-2.38227">
        <ele>22.2</ele>
        <time>2021-08-07T11:36:22Z</time>
      </trkpt>
      <trkpt lat="47.81116" lon="-2.38226">
        <ele>22.2</ele>
        <time>2021-08-07T11:36:23Z</time>
      </trkpt>
      <trkpt lat="47.81118" lon="-2.38225">
        <ele>22</ele>
        <time>2021-08-07T11:36:24Z</time>
      </trkpt>
      <trkpt lat="47.81121" lon="-2.38223">
        <ele>21.8</ele>
        <time>2021-08-07T11:36:25Z</time>
      </trkpt>
      <trkpt lat="47.81124" lon="-2.38222">
        <ele>21.8</ele>
        <time>2021-08-07T11:36:26Z</time>
      </trkpt>
      <trkpt lat="47.81127" lon="-2.38222">
        <ele>21.6</ele>
        <time>2021-08-07T11:36:27Z</time>
      </trkpt>
      <trkpt lat="47.8113" lon="-2.38224">
        <ele>21.6</ele>
        <time>2021-08-07T11:36:28Z</time>
      </trkpt>
      <trkpt lat="47.81133" lon="-2.38226">
        <ele>21.6</ele>
        <time>2021-08-07T11:36:29Z</time>
      </trkpt>
      <trkpt lat="47.81135" lon="-2.38229">
        <ele>21.6</ele>
        <time>2021-08-07T11:36:30Z</time>
      </trkpt>
      <trkpt lat="47.81141" lon="-2.38234">
        <ele>21.4</ele>
        <time>2021-08-07T11:36:32Z</time>
      </trkpt>
      <trkpt lat="47.81143" lon="-2.38237">
        <ele>21.4</ele>
        <time>2021-08-07T11:36:33Z</time>
      </trkpt>
      <trkpt lat="47.81145" lon="-2.38239">
        <ele>21.2</ele>
        <time>2021-08-07T11:36:34Z</time>
      </trkpt>
      <trkpt lat="47.81147" lon="-2.38241">
        <ele>21.2</ele>
        <time>2021-08-07T11:36:35Z</time>
      </trkpt>
      <trkpt lat="47.8115" lon="-2.38243">
        <ele>21.2</ele>
        <time>2021-08-07T11:36:36Z</time>
      </trkpt>
      <trkpt lat="47.81152" lon="-2.38246">
        <ele>21.2</ele>
        <time>2021-08-07T11:36:37Z</time>
      </trkpt>
      <trkpt lat="47.81154" lon="-2.38249">
        <ele>21</ele>
        <time>2021-08-07T11:36:38Z</time>
      </trkpt>
      <trkpt lat="47.81156" lon="-2.38252">
        <ele>21</ele>
        <time>2021-08-07T11:36:39Z</time>
      </trkpt>
      <trkpt lat="47.81159" lon="-2.38255">
        <ele>21</ele>
        <time>2021-08-07T11:36:40Z</time>
      </trkpt>
      <trkpt lat="47.81161" lon="-2.38258">
        <ele>21</ele>
        <time>2021-08-07T11:36:41Z</time>
      </trkpt>
      <trkpt lat="47.81164" lon="-2.38261">
        <ele>21</ele>
        <time>2021-08-07T11:36:42Z</time>
      </trkpt>
      <trkpt lat="47.81167" lon="-2.38265">
        <ele>21</ele>
        <time>2021-08-07T11:36:43Z</time>
      </trkpt>
      <trkpt lat="47.8117" lon="-2.38269">
        <ele>21</ele>
        <time>2021-08-07T11:36:44Z</time>
      </trkpt>
      <trkpt lat="47.81173" lon="-2.38272">
        <ele>21</ele>
        <time>2021-08-07T11:36:45Z</time>
      </trkpt>
      <trkpt lat="47.81176" lon="-2.38275">
        <ele>21</ele>
        <time>2021-08-07T11:36:46Z</time>
      </trkpt>
      <trkpt lat="47.81179" lon="-2.38278">
        <ele>21</ele>
        <time>2021-08-07T11:36:47Z</time>
      </trkpt>
      <trkpt lat="47.81182" lon="-2.38281">
        <ele>21.2</ele>
        <time>2021-08-07T11:36:48Z</time>
      </trkpt>
      <trkpt lat="47.81185" lon="-2.38283">
        <ele>21.2</ele>
        <time>2021-08-07T11:36:49Z</time>
      </trkpt>
      <trkpt lat="47.81187" lon="-2.38286">
        <ele>21.4</ele>
        <time>2021-08-07T11:36:50Z</time>
      </trkpt>
      <trkpt lat="47.8119" lon="-2.38289">
        <ele>21.6</ele>
        <time>2021-08-07T11:36:51Z</time>
      </trkpt>
      <trkpt lat="47.81194" lon="-2.38294">
        <ele>21.8</ele>
        <time>2021-08-07T11:36:53Z</time>
      </trkpt>
      <trkpt lat="47.81196" lon="-2.38296">
        <ele>21.8</ele>
        <time>2021-08-07T11:36:54Z</time>
      </trkpt>
      <trkpt lat="47.81199" lon="-2.38298">
        <ele>22</ele>
        <time>2021-08-07T11:36:55Z</time>
      </trkpt>
      <trkpt lat="47.81201" lon="-2.383">
        <ele>22.2</ele>
        <time>2021-08-07T11:36:56Z</time>
      </trkpt>
      <trkpt lat="47.81203" lon="-2.38303">
        <ele>22.2</ele>
        <time>2021-08-07T11:36:57Z</time>
      </trkpt>
      <trkpt lat="47.81205" lon="-2.38305">
        <ele>22.4</ele>
        <time>2021-08-07T11:36:58Z</time>
      </trkpt>
      <trkpt lat="47.81207" lon="-2.38308">
        <ele>22.4</ele>
        <time>2021-08-07T11:36:59Z</time>
      </trkpt>
      <trkpt lat="47.81209" lon="-2.3831">
        <ele>22.4</ele>
        <time>2021-08-07T11:37:00Z</time>
      </trkpt>
      <trkpt lat="47.81211" lon="-2.38313">
        <ele>22.4</ele>
        <time>2021-08-07T11:37:01Z</time>
      </trkpt>
      <trkpt lat="47.81214" lon="-2.38316">
        <ele>22.6</ele>
        <time>2021-08-07T11:37:02Z</time>
      </trkpt>
      <trkpt lat="47.81218" lon="-2.38322">
        <ele>22.6</ele>
        <time>2021-08-07T11:37:04Z</time>
      </trkpt>
      <trkpt lat="47.81221" lon="-2.38325">
        <ele>22.6</ele>
        <time>2021-08-07T11:37:05Z</time>
      </trkpt>
      <trkpt lat="47.81223" lon="-2.38327">
        <ele>22.6</ele>
        <time>2021-08-07T11:37:06Z</time>
      </trkpt>
      <trkpt lat="47.81225" lon="-2.3833">
        <ele>22.6</ele>
        <time>2021-08-07T11:37:07Z</time>
      </trkpt>
      <trkpt lat="47.81227" lon="-2.38333">
        <ele>22.6</ele>
        <time>2021-08-07T11:37:08Z</time>
      </trkpt>
      <trkpt lat="47.81229" lon="-2.38335">
        <ele>22.6</ele>
        <time>2021-08-07T11:37:09Z</time>
      </trkpt>
      <trkpt lat="47.8123" lon="-2.38337">
        <ele>22.6</ele>
        <time>2021-08-07T11:37:10Z</time>
      </trkpt>
      <trkpt lat="47.8123" lon="-2.38339">
        <ele>22.8</ele>
        <time>2021-08-07T11:37:11Z</time>
      </trkpt>
      <trkpt lat="47.81231" lon="-2.38341">
        <ele>22.8</ele>
        <time>2021-08-07T11:37:12Z</time>
      </trkpt>
      <trkpt lat="47.81234" lon="-2.38344">
        <ele>22.8</ele>
        <time>2021-08-07T11:37:14Z</time>
      </trkpt>
      <trkpt lat="47.81235" lon="-2.38345">
        <ele>22.8</ele>
        <time>2021-08-07T11:37:15Z</time>
      </trkpt>
      <trkpt lat="47.81237" lon="-2.38347">
        <ele>22.8</ele>
        <time>2021-08-07T11:37:16Z</time>
      </trkpt>
      <trkpt lat="47.81239" lon="-2.38349">
        <ele>22.8</ele>
        <time>2021-08-07T11:37:17Z</time>
      </trkpt>
      <trkpt lat="47.81241" lon="-2.38351">
        <ele>22.8</ele>
        <time>2021-08-07T11:37:18Z</time>
      </trkpt>
      <trkpt lat="47.81243" lon="-2.38353">
        <ele>22.8</ele>
        <time>2021-08-07T11:37:19Z</time>
      </trkpt>
      <trkpt lat="47.81245" lon="-2.38355">
        <ele>22.8</ele>
        <time>2021-08-07T11:37:20Z</time>
      </trkpt>
      <trkpt lat="47.81246" lon="-2.38358">
        <ele>22.8</ele>
        <time>2021-08-07T11:37:21Z</time>
      </trkpt>
      <trkpt lat="47.81248" lon="-2.3836">
        <ele>23</ele>
        <time>2021-08-07T11:37:22Z</time>
      </trkpt>
      <trkpt lat="47.81253" lon="-2.38365">
        <ele>23</ele>
        <time>2021-08-07T11:37:24Z</time>
      </trkpt>
      <trkpt lat="47.81255" lon="-2.38368">
        <ele>23</ele>
        <time>2021-08-07T11:37:25Z</time>
      </trkpt>
      <trkpt lat="47.81257" lon="-2.3837">
        <ele>23</ele>
        <time>2021-08-07T11:37:26Z</time>
      </trkpt>
      <trkpt lat="47.81259" lon="-2.38373">
        <ele>23</ele>
        <time>2021-08-07T11:37:27Z</time>
      </trkpt>
      <trkpt lat="47.81261" lon="-2.38376">
        <ele>23</ele>
        <time>2021-08-07T11:37:28Z</time>
      </trkpt>
      <trkpt lat="47.81263" lon="-2.38378">
        <ele>23</ele>
        <time>2021-08-07T11:37:29Z</time>
      </trkpt>
      <trkpt lat="47.81266" lon="-2.38381">
        <ele>23</ele>
        <time>2021-08-07T11:37:30Z</time>
      </trkpt>
      <trkpt lat="47.81268" lon="-2.38384">
        <ele>23</ele>
        <time>2021-08-07T11:37:31Z</time>
      </trkpt>
      <trkpt lat="47.8127" lon="-2.38386">
        <ele>23</ele>
        <time>2021-08-07T11:37:32Z</time>
      </trkpt>
      <trkpt lat="47.81274" lon="-2.38391">
        <ele>23</ele>
        <time>2021-08-07T11:37:34Z</time>
      </trkpt>
      <trkpt lat="47.81276" lon="-2.38393">
        <ele>22.8</ele>
        <time>2021-08-07T11:37:35Z</time>
      </trkpt>
      <trkpt lat="47.81277" lon="-2.38395">
        <ele>22.8</ele>
        <time>2021-08-07T11:37:36Z</time>
      </trkpt>
      <trkpt lat="47.81279" lon="-2.38397">
        <ele>22.8</ele>
        <time>2021-08-07T11:37:37Z</time>
      </trkpt>
      <trkpt lat="47.8128" lon="-2.38398">
        <ele>22.8</ele>
        <time>2021-08-07T11:37:38Z</time>
      </trkpt>
      <trkpt lat="47.81282" lon="-2.38401">
        <ele>22.8</ele>
        <time>2021-08-07T11:37:39Z</time>
      </trkpt>
      <trkpt lat="47.81284" lon="-2.38403">
        <ele>22.8</ele>
        <time>2021-08-07T11:37:40Z</time>
      </trkpt>
      <trkpt lat="47.81286" lon="-2.38405">
        <ele>22.8</ele>
        <time>2021-08-07T11:37:41Z</time>
      </trkpt>
      <trkpt lat="47.81288" lon="-2.38407">
        <ele>22.8</ele>
        <time>2021-08-07T11:37:42Z</time>
      </trkpt>
      <trkpt lat="47.81292" lon="-2.38411">
        <ele>22.6</ele>
        <time>2021-08-07T11:37:44Z</time>
      </trkpt>
      <trkpt lat="47.81294" lon="-2.38413">
        <ele>22.6</ele>
        <time>2021-08-07T11:37:45Z</time>
      </trkpt>
      <trkpt lat="47.81296" lon="-2.38416">
        <ele>22.6</ele>
        <time>2021-08-07T11:37:46Z</time>
      </trkpt>
      <trkpt lat="47.81298" lon="-2.38419">
        <ele>22.6</ele>
        <time>2021-08-07T11:37:47Z</time>
      </trkpt>
      <trkpt lat="47.813" lon="-2.38422">
        <ele>22.6</ele>
        <time>2021-08-07T11:37:48Z</time>
      </trkpt>
      <trkpt lat="47.81302" lon="-2.38425">
        <ele>22.6</ele>
        <time>2021-08-07T11:37:49Z</time>
      </trkpt>
      <trkpt lat="47.81305" lon="-2.38427">
        <ele>22.8</ele>
        <time>2021-08-07T11:37:50Z</time>
      </trkpt>
      <trkpt lat="47.81307" lon="-2.3843">
        <ele>22.8</ele>
        <time>2021-08-07T11:37:51Z</time>
      </trkpt>
      <trkpt lat="47.8131" lon="-2.38434">
        <ele>22.8</ele>
        <time>2021-08-07T11:37:52Z</time>
      </trkpt>
      <trkpt lat="47.81312" lon="-2.38437">
        <ele>22.8</ele>
        <time>2021-08-07T11:37:53Z</time>
      </trkpt>
      <trkpt lat="47.81315" lon="-2.3844">
        <ele>23</ele>
        <time>2021-08-07T11:37:54Z</time>
      </trkpt>
      <trkpt lat="47.81317" lon="-2.38443">
        <ele>23</ele>
        <time>2021-08-07T11:37:55Z</time>
      </trkpt>
      <trkpt lat="47.81319" lon="-2.38445">
        <ele>23</ele>
        <time>2021-08-07T11:37:56Z</time>
      </trkpt>
      <trkpt lat="47.81321" lon="-2.38447">
        <ele>23</ele>
        <time>2021-08-07T11:37:57Z</time>
      </trkpt>
      <trkpt lat="47.81323" lon="-2.38449">
        <ele>23</ele>
        <time>2021-08-07T11:37:58Z</time>
      </trkpt>
      <trkpt lat="47.81325" lon="-2.38452">
        <ele>23</ele>
        <time>2021-08-07T11:37:59Z</time>
      </trkpt>
      <trkpt lat="47.81328" lon="-2.38455">
        <ele>23</ele>
        <time>2021-08-07T11:38:00Z</time>
      </trkpt>
      <trkpt lat="47.8133" lon="-2.38458">
        <ele>23</ele>
        <time>2021-08-07T11:38:01Z</time>
      </trkpt>
      <trkpt lat="47.81333" lon="-2.38461">
        <ele>23</ele>
        <time>2021-08-07T11:38:02Z</time>
      </trkpt>
      <trkpt lat="47.81337" lon="-2.38466">
        <ele>23</ele>
        <time>2021-08-07T11:38:04Z</time>
      </trkpt>
      <trkpt lat="47.81339" lon="-2.38468">
        <ele>23</ele>
        <time>2021-08-07T11:38:05Z</time>
      </trkpt>
      <trkpt lat="47.81341" lon="-2.3847">
        <ele>23</ele>
        <time>2021-08-07T11:38:06Z</time>
      </trkpt>
      <trkpt lat="47.81343" lon="-2.38473">
        <ele>23</ele>
        <time>2021-08-07T11:38:07Z</time>
      </trkpt>
      <trkpt lat="47.81346" lon="-2.38476">
        <ele>23</ele>
        <time>2021-08-07T11:38:08Z</time>
      </trkpt>
      <trkpt lat="47.81348" lon="-2.38478">
        <ele>23</ele>
        <time>2021-08-07T11:38:09Z</time>
      </trkpt>
      <trkpt lat="47.81349" lon="-2.3848">
        <ele>22.8</ele>
        <time>2021-08-07T11:38:10Z</time>
      </trkpt>
      <trkpt lat="47.81351" lon="-2.38482">
        <ele>22.8</ele>
        <time>2021-08-07T11:38:11Z</time>
      </trkpt>
      <trkpt lat="47.81354" lon="-2.38485">
        <ele>22.8</ele>
        <time>2021-08-07T11:38:12Z</time>
      </trkpt>
      <trkpt lat="47.81356" lon="-2.38488">
        <ele>22.8</ele>
        <time>2021-08-07T11:38:13Z</time>
      </trkpt>
      <trkpt lat="47.81361" lon="-2.38495">
        <ele>22.6</ele>
        <time>2021-08-07T11:38:15Z</time>
      </trkpt>
      <trkpt lat="47.81364" lon="-2.38498">
        <ele>22.6</ele>
        <time>2021-08-07T11:38:16Z</time>
      </trkpt>
      <trkpt lat="47.81366" lon="-2.38501">
        <ele>22.6</ele>
        <time>2021-08-07T11:38:17Z</time>
      </trkpt>
      <trkpt lat="47.81369" lon="-2.38504">
        <ele>22.6</ele>
        <time>2021-08-07T11:38:18Z</time>
      </trkpt>
      <trkpt lat="47.81371" lon="-2.38508">
        <ele>22.4</ele>
        <time>2021-08-07T11:38:19Z</time>
      </trkpt>
      <trkpt lat="47.81375" lon="-2.38512">
        <ele>22.4</ele>
        <time>2021-08-07T11:38:20Z</time>
      </trkpt>
      <trkpt lat="47.81378" lon="-2.38516">
        <ele>22.4</ele>
        <time>2021-08-07T11:38:21Z</time>
      </trkpt>
      <trkpt lat="47.81381" lon="-2.3852">
        <ele>22.4</ele>
        <time>2021-08-07T11:38:22Z</time>
      </trkpt>
      <trkpt lat="47.81383" lon="-2.38523">
        <ele>22.4</ele>
        <time>2021-08-07T11:38:23Z</time>
      </trkpt>
      <trkpt lat="47.81384" lon="-2.38526">
        <ele>22.2</ele>
        <time>2021-08-07T11:38:24Z</time>
      </trkpt>
      <trkpt lat="47.81386" lon="-2.3853">
        <ele>22.2</ele>
        <time>2021-08-07T11:38:25Z</time>
      </trkpt>
      <trkpt lat="47.81388" lon="-2.38533">
        <ele>22.2</ele>
        <time>2021-08-07T11:38:26Z</time>
      </trkpt>
      <trkpt lat="47.8139" lon="-2.38536">
        <ele>22.2</ele>
        <time>2021-08-07T11:38:27Z</time>
      </trkpt>
      <trkpt lat="47.81392" lon="-2.38538">
        <ele>22.2</ele>
        <time>2021-08-07T11:38:28Z</time>
      </trkpt>
      <trkpt lat="47.81394" lon="-2.38541">
        <ele>22.2</ele>
        <time>2021-08-07T11:38:29Z</time>
      </trkpt>
      <trkpt lat="47.81396" lon="-2.38545">
        <ele>22.2</ele>
        <time>2021-08-07T11:38:30Z</time>
      </trkpt>
      <trkpt lat="47.81399" lon="-2.38548">
        <ele>22.2</ele>
        <time>2021-08-07T11:38:31Z</time>
      </trkpt>
      <trkpt lat="47.81402" lon="-2.38552">
        <ele>22.2</ele>
        <time>2021-08-07T11:38:32Z</time>
      </trkpt>
      <trkpt lat="47.81405" lon="-2.38555">
        <ele>22.2</ele>
        <time>2021-08-07T11:38:33Z</time>
      </trkpt>
      <trkpt lat="47.81407" lon="-2.38559">
        <ele>22.2</ele>
        <time>2021-08-07T11:38:34Z</time>
      </trkpt>
      <trkpt lat="47.8141" lon="-2.38563">
        <ele>22.4</ele>
        <time>2021-08-07T11:38:35Z</time>
      </trkpt>
      <trkpt lat="47.81416" lon="-2.38571">
        <ele>22.4</ele>
        <time>2021-08-07T11:38:37Z</time>
      </trkpt>
      <trkpt lat="47.81419" lon="-2.38575">
        <ele>22.4</ele>
        <time>2021-08-07T11:38:38Z</time>
      </trkpt>
      <trkpt lat="47.81422" lon="-2.38579">
        <ele>22.4</ele>
        <time>2021-08-07T11:38:39Z</time>
      </trkpt>
      <trkpt lat="47.81425" lon="-2.38582">
        <ele>22.4</ele>
        <time>2021-08-07T11:38:40Z</time>
      </trkpt>
      <trkpt lat="47.81427" lon="-2.38586">
        <ele>22.4</ele>
        <time>2021-08-07T11:38:41Z</time>
      </trkpt>
      <trkpt lat="47.81431" lon="-2.3859">
        <ele>22.4</ele>
        <time>2021-08-07T11:38:42Z</time>
      </trkpt>
      <trkpt lat="47.81434" lon="-2.38594">
        <ele>22.4</ele>
        <time>2021-08-07T11:38:43Z</time>
      </trkpt>
      <trkpt lat="47.81437" lon="-2.38598">
        <ele>22.4</ele>
        <time>2021-08-07T11:38:44Z</time>
      </trkpt>
      <trkpt lat="47.8144" lon="-2.38602">
        <ele>22.6</ele>
        <time>2021-08-07T11:38:45Z</time>
      </trkpt>
      <trkpt lat="47.81446" lon="-2.3861">
        <ele>22.6</ele>
        <time>2021-08-07T11:38:47Z</time>
      </trkpt>
      <trkpt lat="47.8145" lon="-2.38614">
        <ele>22.6</ele>
        <time>2021-08-07T11:38:48Z</time>
      </trkpt>
      <trkpt lat="47.81453" lon="-2.38618">
        <ele>22.6</ele>
        <time>2021-08-07T11:38:49Z</time>
      </trkpt>
      <trkpt lat="47.81456" lon="-2.38622">
        <ele>22.6</ele>
        <time>2021-08-07T11:38:50Z</time>
      </trkpt>
      <trkpt lat="47.81459" lon="-2.38626">
        <ele>22.4</ele>
        <time>2021-08-07T11:38:51Z</time>
      </trkpt>
      <trkpt lat="47.81462" lon="-2.3863">
        <ele>22.4</ele>
        <time>2021-08-07T11:38:52Z</time>
      </trkpt>
      <trkpt lat="47.81466" lon="-2.38634">
        <ele>22.4</ele>
        <time>2021-08-07T11:38:53Z</time>
      </trkpt>
      <trkpt lat="47.81469" lon="-2.38638">
        <ele>22.4</ele>
        <time>2021-08-07T11:38:54Z</time>
      </trkpt>
      <trkpt lat="47.81472" lon="-2.38641">
        <ele>22.4</ele>
        <time>2021-08-07T11:38:55Z</time>
      </trkpt>
      <trkpt lat="47.81475" lon="-2.38645">
        <ele>22.4</ele>
        <time>2021-08-07T11:38:56Z</time>
      </trkpt>
      <trkpt lat="47.81481" lon="-2.38652">
        <ele>22.4</ele>
        <time>2021-08-07T11:38:58Z</time>
      </trkpt>
      <trkpt lat="47.81484" lon="-2.38656">
        <ele>22.4</ele>
        <time>2021-08-07T11:38:59Z</time>
      </trkpt>
      <trkpt lat="47.81487" lon="-2.3866">
        <ele>22.4</ele>
        <time>2021-08-07T11:39:00Z</time>
      </trkpt>
      <trkpt lat="47.81489" lon="-2.38663">
        <ele>22.4</ele>
        <time>2021-08-07T11:39:01Z</time>
      </trkpt>
      <trkpt lat="47.81492" lon="-2.38667">
        <ele>22.4</ele>
        <time>2021-08-07T11:39:02Z</time>
      </trkpt>
      <trkpt lat="47.81495" lon="-2.38671">
        <ele>22.2</ele>
        <time>2021-08-07T11:39:03Z</time>
      </trkpt>
      <trkpt lat="47.81497" lon="-2.38675">
        <ele>22.2</ele>
        <time>2021-08-07T11:39:04Z</time>
      </trkpt>
      <trkpt lat="47.815" lon="-2.38678">
        <ele>22.2</ele>
        <time>2021-08-07T11:39:05Z</time>
      </trkpt>
      <trkpt lat="47.81502" lon="-2.38681">
        <ele>22.2</ele>
        <time>2021-08-07T11:39:06Z</time>
      </trkpt>
      <trkpt lat="47.81505" lon="-2.38684">
        <ele>22.2</ele>
        <time>2021-08-07T11:39:07Z</time>
      </trkpt>
      <trkpt lat="47.81508" lon="-2.38687">
        <ele>22.2</ele>
        <time>2021-08-07T11:39:08Z</time>
      </trkpt>
      <trkpt lat="47.81511" lon="-2.3869">
        <ele>22.2</ele>
        <time>2021-08-07T11:39:09Z</time>
      </trkpt>
      <trkpt lat="47.81514" lon="-2.38694">
        <ele>22.2</ele>
        <time>2021-08-07T11:39:10Z</time>
      </trkpt>
      <trkpt lat="47.81517" lon="-2.38698">
        <ele>22.4</ele>
        <time>2021-08-07T11:39:11Z</time>
      </trkpt>
      <trkpt lat="47.8152" lon="-2.38703">
        <ele>22.4</ele>
        <time>2021-08-07T11:39:12Z</time>
      </trkpt>
      <trkpt lat="47.81523" lon="-2.38707">
        <ele>22.4</ele>
        <time>2021-08-07T11:39:13Z</time>
      </trkpt>
      <trkpt lat="47.81526" lon="-2.3871">
        <ele>22.4</ele>
        <time>2021-08-07T11:39:14Z</time>
      </trkpt>
      <trkpt lat="47.81529" lon="-2.38713">
        <ele>22.4</ele>
        <time>2021-08-07T11:39:15Z</time>
      </trkpt>
      <trkpt lat="47.81531" lon="-2.38716">
        <ele>22.4</ele>
        <time>2021-08-07T11:39:16Z</time>
      </trkpt>
      <trkpt lat="47.81533" lon="-2.3872">
        <ele>22.4</ele>
        <time>2021-08-07T11:39:17Z</time>
      </trkpt>
      <trkpt lat="47.81536" lon="-2.38723">
        <ele>22.2</ele>
        <time>2021-08-07T11:39:18Z</time>
      </trkpt>
      <trkpt lat="47.81542" lon="-2.38731">
        <ele>22.2</ele>
        <time>2021-08-07T11:39:20Z</time>
      </trkpt>
      <trkpt lat="47.81545" lon="-2.38735">
        <ele>22.2</ele>
        <time>2021-08-07T11:39:21Z</time>
      </trkpt>
      <trkpt lat="47.81548" lon="-2.3874">
        <ele>22.2</ele>
        <time>2021-08-07T11:39:22Z</time>
      </trkpt>
      <trkpt lat="47.81552" lon="-2.38744">
        <ele>22.2</ele>
        <time>2021-08-07T11:39:23Z</time>
      </trkpt>
      <trkpt lat="47.81554" lon="-2.38747">
        <ele>22.2</ele>
        <time>2021-08-07T11:39:24Z</time>
      </trkpt>
      <trkpt lat="47.81557" lon="-2.38751">
        <ele>22</ele>
        <time>2021-08-07T11:39:25Z</time>
      </trkpt>
      <trkpt lat="47.8156" lon="-2.38755">
        <ele>22</ele>
        <time>2021-08-07T11:39:26Z</time>
      </trkpt>
      <trkpt lat="47.81563" lon="-2.38759">
        <ele>22</ele>
        <time>2021-08-07T11:39:27Z</time>
      </trkpt>
      <trkpt lat="47.81566" lon="-2.38763">
        <ele>21.8</ele>
        <time>2021-08-07T11:39:28Z</time>
      </trkpt>
      <trkpt lat="47.81573" lon="-2.3877">
        <ele>21.8</ele>
        <time>2021-08-07T11:39:30Z</time>
      </trkpt>
      <trkpt lat="47.81576" lon="-2.38774">
        <ele>21.8</ele>
        <time>2021-08-07T11:39:31Z</time>
      </trkpt>
      <trkpt lat="47.81579" lon="-2.38777">
        <ele>21.8</ele>
        <time>2021-08-07T11:39:32Z</time>
      </trkpt>
      <trkpt lat="47.81582" lon="-2.38781">
        <ele>21.8</ele>
        <time>2021-08-07T11:39:33Z</time>
      </trkpt>
      <trkpt lat="47.81585" lon="-2.38784">
        <ele>21.8</ele>
        <time>2021-08-07T11:39:34Z</time>
      </trkpt>
      <trkpt lat="47.81588" lon="-2.38787">
        <ele>21.8</ele>
        <time>2021-08-07T11:39:35Z</time>
      </trkpt>
      <trkpt lat="47.81591" lon="-2.38791">
        <ele>21.8</ele>
        <time>2021-08-07T11:39:36Z</time>
      </trkpt>
      <trkpt lat="47.81594" lon="-2.38794">
        <ele>21.8</ele>
        <time>2021-08-07T11:39:37Z</time>
      </trkpt>
      <trkpt lat="47.81596" lon="-2.38797">
        <ele>21.8</ele>
        <time>2021-08-07T11:39:38Z</time>
      </trkpt>
      <trkpt lat="47.81602" lon="-2.38805">
        <ele>22</ele>
        <time>2021-08-07T11:39:40Z</time>
      </trkpt>
      <trkpt lat="47.81604" lon="-2.38808">
        <ele>22</ele>
        <time>2021-08-07T11:39:41Z</time>
      </trkpt>
      <trkpt lat="47.81607" lon="-2.38812">
        <ele>22</ele>
        <time>2021-08-07T11:39:42Z</time>
      </trkpt>
      <trkpt lat="47.8161" lon="-2.38816">
        <ele>21.8</ele>
        <time>2021-08-07T11:39:43Z</time>
      </trkpt>
      <trkpt lat="47.81613" lon="-2.38819">
        <ele>22</ele>
        <time>2021-08-07T11:39:44Z</time>
      </trkpt>
      <trkpt lat="47.81615" lon="-2.38822">
        <ele>22</ele>
        <time>2021-08-07T11:39:45Z</time>
      </trkpt>
      <trkpt lat="47.81618" lon="-2.38826">
        <ele>22</ele>
        <time>2021-08-07T11:39:46Z</time>
      </trkpt>
      <trkpt lat="47.81622" lon="-2.3883">
        <ele>22</ele>
        <time>2021-08-07T11:39:47Z</time>
      </trkpt>
      <trkpt lat="47.81625" lon="-2.38835">
        <ele>22</ele>
        <time>2021-08-07T11:39:48Z</time>
      </trkpt>
      <trkpt lat="47.81628" lon="-2.38837">
        <ele>22.2</ele>
        <time>2021-08-07T11:39:49Z</time>
      </trkpt>
      <trkpt lat="47.81631" lon="-2.38839">
        <ele>22.2</ele>
        <time>2021-08-07T11:39:50Z</time>
      </trkpt>
      <trkpt lat="47.81634" lon="-2.38843">
        <ele>22.2</ele>
        <time>2021-08-07T11:39:51Z</time>
      </trkpt>
      <trkpt lat="47.81637" lon="-2.38847">
        <ele>22.4</ele>
        <time>2021-08-07T11:39:52Z</time>
      </trkpt>
      <trkpt lat="47.8164" lon="-2.38851">
        <ele>22.4</ele>
        <time>2021-08-07T11:39:53Z</time>
      </trkpt>
      <trkpt lat="47.81643" lon="-2.38854">
        <ele>22.6</ele>
        <time>2021-08-07T11:39:54Z</time>
      </trkpt>
      <trkpt lat="47.81646" lon="-2.38858">
        <ele>22.6</ele>
        <time>2021-08-07T11:39:55Z</time>
      </trkpt>
      <trkpt lat="47.81648" lon="-2.38862">
        <ele>22.6</ele>
        <time>2021-08-07T11:39:56Z</time>
      </trkpt>
      <trkpt lat="47.81652" lon="-2.38866">
        <ele>22.6</ele>
        <time>2021-08-07T11:39:57Z</time>
      </trkpt>
      <trkpt lat="47.81655" lon="-2.38871">
        <ele>22.6</ele>
        <time>2021-08-07T11:39:58Z</time>
      </trkpt>
      <trkpt lat="47.81658" lon="-2.38876">
        <ele>22.6</ele>
        <time>2021-08-07T11:39:59Z</time>
      </trkpt>
      <trkpt lat="47.81661" lon="-2.38881">
        <ele>22.6</ele>
        <time>2021-08-07T11:40:00Z</time>
      </trkpt>
      <trkpt lat="47.81668" lon="-2.38889">
        <ele>22.6</ele>
        <time>2021-08-07T11:40:02Z</time>
      </trkpt>
      <trkpt lat="47.81672" lon="-2.38892">
        <ele>22.6</ele>
        <time>2021-08-07T11:40:03Z</time>
      </trkpt>
      <trkpt lat="47.81674" lon="-2.38896">
        <ele>22.6</ele>
        <time>2021-08-07T11:40:04Z</time>
      </trkpt>
      <trkpt lat="47.81677" lon="-2.389">
        <ele>22.6</ele>
        <time>2021-08-07T11:40:05Z</time>
      </trkpt>
      <trkpt lat="47.8168" lon="-2.38904">
        <ele>22.6</ele>
        <time>2021-08-07T11:40:06Z</time>
      </trkpt>
      <trkpt lat="47.81683" lon="-2.38908">
        <ele>22.4</ele>
        <time>2021-08-07T11:40:07Z</time>
      </trkpt>
      <trkpt lat="47.81686" lon="-2.38912">
        <ele>22.4</ele>
        <time>2021-08-07T11:40:08Z</time>
      </trkpt>
      <trkpt lat="47.81689" lon="-2.38917">
        <ele>22.6</ele>
        <time>2021-08-07T11:40:09Z</time>
      </trkpt>
      <trkpt lat="47.81692" lon="-2.38922">
        <ele>22.6</ele>
        <time>2021-08-07T11:40:10Z</time>
      </trkpt>
      <trkpt lat="47.81695" lon="-2.38926">
        <ele>22.6</ele>
        <time>2021-08-07T11:40:11Z</time>
      </trkpt>
      <trkpt lat="47.81698" lon="-2.3893">
        <ele>22.6</ele>
        <time>2021-08-07T11:40:12Z</time>
      </trkpt>
      <trkpt lat="47.81701" lon="-2.38934">
        <ele>22.4</ele>
        <time>2021-08-07T11:40:13Z</time>
      </trkpt>
      <trkpt lat="47.81704" lon="-2.38939">
        <ele>22.4</ele>
        <time>2021-08-07T11:40:14Z</time>
      </trkpt>
      <trkpt lat="47.81707" lon="-2.38943">
        <ele>22.4</ele>
        <time>2021-08-07T11:40:15Z</time>
      </trkpt>
      <trkpt lat="47.8171" lon="-2.38947">
        <ele>22.4</ele>
        <time>2021-08-07T11:40:16Z</time>
      </trkpt>
      <trkpt lat="47.81712" lon="-2.3895">
        <ele>22.4</ele>
        <time>2021-08-07T11:40:17Z</time>
      </trkpt>
      <trkpt lat="47.81715" lon="-2.38952">
        <ele>22.4</ele>
        <time>2021-08-07T11:40:18Z</time>
      </trkpt>
      <trkpt lat="47.81717" lon="-2.38955">
        <ele>22.4</ele>
        <time>2021-08-07T11:40:19Z</time>
      </trkpt>
      <trkpt lat="47.8172" lon="-2.38958">
        <ele>22.4</ele>
        <time>2021-08-07T11:40:20Z</time>
      </trkpt>
      <trkpt lat="47.81722" lon="-2.38962">
        <ele>22.4</ele>
        <time>2021-08-07T11:40:21Z</time>
      </trkpt>
      <trkpt lat="47.81725" lon="-2.38965">
        <ele>22.4</ele>
        <time>2021-08-07T11:40:22Z</time>
      </trkpt>
      <trkpt lat="47.81728" lon="-2.38969">
        <ele>22.4</ele>
        <time>2021-08-07T11:40:23Z</time>
      </trkpt>
      <trkpt lat="47.81731" lon="-2.38974">
        <ele>22.4</ele>
        <time>2021-08-07T11:40:24Z</time>
      </trkpt>
      <trkpt lat="47.81733" lon="-2.38978">
        <ele>22.2</ele>
        <time>2021-08-07T11:40:25Z</time>
      </trkpt>
      <trkpt lat="47.81736" lon="-2.38982">
        <ele>22.2</ele>
        <time>2021-08-07T11:40:26Z</time>
      </trkpt>
      <trkpt lat="47.81739" lon="-2.38985">
        <ele>22.2</ele>
        <time>2021-08-07T11:40:27Z</time>
      </trkpt>
      <trkpt lat="47.81742" lon="-2.3899">
        <ele>22.2</ele>
        <time>2021-08-07T11:40:28Z</time>
      </trkpt>
      <trkpt lat="47.81746" lon="-2.38994">
        <ele>22.2</ele>
        <time>2021-08-07T11:40:29Z</time>
      </trkpt>
      <trkpt lat="47.81749" lon="-2.38999">
        <ele>22.4</ele>
        <time>2021-08-07T11:40:30Z</time>
      </trkpt>
      <trkpt lat="47.81752" lon="-2.39003">
        <ele>22.4</ele>
        <time>2021-08-07T11:40:31Z</time>
      </trkpt>
      <trkpt lat="47.81756" lon="-2.39008">
        <ele>22.4</ele>
        <time>2021-08-07T11:40:32Z</time>
      </trkpt>
      <trkpt lat="47.81762" lon="-2.39017">
        <ele>22.2</ele>
        <time>2021-08-07T11:40:34Z</time>
      </trkpt>
      <trkpt lat="47.81765" lon="-2.3902">
        <ele>22.2</ele>
        <time>2021-08-07T11:40:35Z</time>
      </trkpt>
      <trkpt lat="47.81768" lon="-2.39024">
        <ele>22.4</ele>
        <time>2021-08-07T11:40:36Z</time>
      </trkpt>
      <trkpt lat="47.81771" lon="-2.39028">
        <ele>22.4</ele>
        <time>2021-08-07T11:40:37Z</time>
      </trkpt>
      <trkpt lat="47.81773" lon="-2.39031">
        <ele>22.2</ele>
        <time>2021-08-07T11:40:38Z</time>
      </trkpt>
      <trkpt lat="47.81776" lon="-2.39035">
        <ele>22.4</ele>
        <time>2021-08-07T11:40:39Z</time>
      </trkpt>
      <trkpt lat="47.81779" lon="-2.3904">
        <ele>22.4</ele>
        <time>2021-08-07T11:40:40Z</time>
      </trkpt>
      <trkpt lat="47.81782" lon="-2.39044">
        <ele>22.4</ele>
        <time>2021-08-07T11:40:41Z</time>
      </trkpt>
      <trkpt lat="47.81785" lon="-2.39048">
        <ele>22.4</ele>
        <time>2021-08-07T11:40:42Z</time>
      </trkpt>
      <trkpt lat="47.81788" lon="-2.39051">
        <ele>22.4</ele>
        <time>2021-08-07T11:40:43Z</time>
      </trkpt>
      <trkpt lat="47.81793" lon="-2.39058">
        <ele>22.4</ele>
        <time>2021-08-07T11:40:45Z</time>
      </trkpt>
      <trkpt lat="47.81795" lon="-2.39061">
        <ele>22.4</ele>
        <time>2021-08-07T11:40:46Z</time>
      </trkpt>
      <trkpt lat="47.81797" lon="-2.39064">
        <ele>22.6</ele>
        <time>2021-08-07T11:40:47Z</time>
      </trkpt>
      <trkpt lat="47.81799" lon="-2.39066">
        <ele>22.6</ele>
        <time>2021-08-07T11:40:48Z</time>
      </trkpt>
      <trkpt lat="47.81801" lon="-2.3907">
        <ele>22.6</ele>
        <time>2021-08-07T11:40:49Z</time>
      </trkpt>
      <trkpt lat="47.81805" lon="-2.39074">
        <ele>22.6</ele>
        <time>2021-08-07T11:40:50Z</time>
      </trkpt>
      <trkpt lat="47.81808" lon="-2.39077">
        <ele>22.6</ele>
        <time>2021-08-07T11:40:51Z</time>
      </trkpt>
      <trkpt lat="47.81811" lon="-2.39081">
        <ele>22.6</ele>
        <time>2021-08-07T11:40:52Z</time>
      </trkpt>
      <trkpt lat="47.81814" lon="-2.39085">
        <ele>22.6</ele>
        <time>2021-08-07T11:40:53Z</time>
      </trkpt>
      <trkpt lat="47.81817" lon="-2.39089">
        <ele>22.6</ele>
        <time>2021-08-07T11:40:54Z</time>
      </trkpt>
      <trkpt lat="47.81824" lon="-2.39097">
        <ele>22.4</ele>
        <time>2021-08-07T11:40:56Z</time>
      </trkpt>
      <trkpt lat="47.81827" lon="-2.39101">
        <ele>22.4</ele>
        <time>2021-08-07T11:40:57Z</time>
      </trkpt>
      <trkpt lat="47.8183" lon="-2.39105">
        <ele>22.4</ele>
        <time>2021-08-07T11:40:58Z</time>
      </trkpt>
      <trkpt lat="47.81834" lon="-2.39108">
        <ele>22.4</ele>
        <time>2021-08-07T11:40:59Z</time>
      </trkpt>
      <trkpt lat="47.81837" lon="-2.39112">
        <ele>22.4</ele>
        <time>2021-08-07T11:41:00Z</time>
      </trkpt>
      <trkpt lat="47.8184" lon="-2.39117">
        <ele>22.4</ele>
        <time>2021-08-07T11:41:01Z</time>
      </trkpt>
      <trkpt lat="47.81843" lon="-2.39121">
        <ele>22.4</ele>
        <time>2021-08-07T11:41:02Z</time>
      </trkpt>
      <trkpt lat="47.81846" lon="-2.39124">
        <ele>22.4</ele>
        <time>2021-08-07T11:41:03Z</time>
      </trkpt>
      <trkpt lat="47.81849" lon="-2.39128">
        <ele>22.4</ele>
        <time>2021-08-07T11:41:04Z</time>
      </trkpt>
      <trkpt lat="47.81853" lon="-2.39132">
        <ele>22.4</ele>
        <time>2021-08-07T11:41:05Z</time>
      </trkpt>
      <trkpt lat="47.81859" lon="-2.39139">
        <ele>22.4</ele>
        <time>2021-08-07T11:41:07Z</time>
      </trkpt>
      <trkpt lat="47.81861" lon="-2.39142">
        <ele>22.4</ele>
        <time>2021-08-07T11:41:08Z</time>
      </trkpt>
      <trkpt lat="47.81864" lon="-2.39145">
        <ele>22.6</ele>
        <time>2021-08-07T11:41:09Z</time>
      </trkpt>
      <trkpt lat="47.81867" lon="-2.39148">
        <ele>23</ele>
        <time>2021-08-07T11:41:10Z</time>
      </trkpt>
      <trkpt lat="47.8187" lon="-2.39152">
        <ele>23</ele>
        <time>2021-08-07T11:41:11Z</time>
      </trkpt>
      <trkpt lat="47.81873" lon="-2.39156">
        <ele>23</ele>
        <time>2021-08-07T11:41:12Z</time>
      </trkpt>
      <trkpt lat="47.81876" lon="-2.39159">
        <ele>23</ele>
        <time>2021-08-07T11:41:13Z</time>
      </trkpt>
      <trkpt lat="47.8188" lon="-2.39164">
        <ele>23</ele>
        <time>2021-08-07T11:41:14Z</time>
      </trkpt>
      <trkpt lat="47.81883" lon="-2.39169">
        <ele>23</ele>
        <time>2021-08-07T11:41:15Z</time>
      </trkpt>
      <trkpt lat="47.81887" lon="-2.39173">
        <ele>23</ele>
        <time>2021-08-07T11:41:16Z</time>
      </trkpt>
      <trkpt lat="47.81892" lon="-2.39181">
        <ele>23</ele>
        <time>2021-08-07T11:41:18Z</time>
      </trkpt>
      <trkpt lat="47.81895" lon="-2.39184">
        <ele>23</ele>
        <time>2021-08-07T11:41:19Z</time>
      </trkpt>
      <trkpt lat="47.81898" lon="-2.39189">
        <ele>23</ele>
        <time>2021-08-07T11:41:20Z</time>
      </trkpt>
      <trkpt lat="47.81902" lon="-2.39193">
        <ele>23</ele>
        <time>2021-08-07T11:41:21Z</time>
      </trkpt>
      <trkpt lat="47.81905" lon="-2.39197">
        <ele>23</ele>
        <time>2021-08-07T11:41:22Z</time>
      </trkpt>
      <trkpt lat="47.81909" lon="-2.392">
        <ele>23</ele>
        <time>2021-08-07T11:41:23Z</time>
      </trkpt>
      <trkpt lat="47.81913" lon="-2.39205">
        <ele>23</ele>
        <time>2021-08-07T11:41:24Z</time>
      </trkpt>
      <trkpt lat="47.81917" lon="-2.39209">
        <ele>23</ele>
        <time>2021-08-07T11:41:25Z</time>
      </trkpt>
      <trkpt lat="47.8192" lon="-2.39214">
        <ele>23</ele>
        <time>2021-08-07T11:41:26Z</time>
      </trkpt>
      <trkpt lat="47.81923" lon="-2.39218">
        <ele>22.8</ele>
        <time>2021-08-07T11:41:27Z</time>
      </trkpt>
      <trkpt lat="47.8193" lon="-2.39226">
        <ele>22.6</ele>
        <time>2021-08-07T11:41:29Z</time>
      </trkpt>
      <trkpt lat="47.81933" lon="-2.39231">
        <ele>22.6</ele>
        <time>2021-08-07T11:41:30Z</time>
      </trkpt>
      <trkpt lat="47.81937" lon="-2.39234">
        <ele>22.4</ele>
        <time>2021-08-07T11:41:31Z</time>
      </trkpt>
      <trkpt lat="47.8194" lon="-2.39239">
        <ele>22.4</ele>
        <time>2021-08-07T11:41:32Z</time>
      </trkpt>
      <trkpt lat="47.81943" lon="-2.39244">
        <ele>22.4</ele>
        <time>2021-08-07T11:41:33Z</time>
      </trkpt>
      <trkpt lat="47.81947" lon="-2.39248">
        <ele>22.4</ele>
        <time>2021-08-07T11:41:34Z</time>
      </trkpt>
      <trkpt lat="47.8195" lon="-2.39253">
        <ele>22.4</ele>
        <time>2021-08-07T11:41:35Z</time>
      </trkpt>
      <trkpt lat="47.81954" lon="-2.39259">
        <ele>22.4</ele>
        <time>2021-08-07T11:41:36Z</time>
      </trkpt>
      <trkpt lat="47.81958" lon="-2.39264">
        <ele>22.4</ele>
        <time>2021-08-07T11:41:37Z</time>
      </trkpt>
      <trkpt lat="47.81962" lon="-2.3927">
        <ele>22.4</ele>
        <time>2021-08-07T11:41:38Z</time>
      </trkpt>
      <trkpt lat="47.81969" lon="-2.3928">
        <ele>22.4</ele>
        <time>2021-08-07T11:41:40Z</time>
      </trkpt>
      <trkpt lat="47.81972" lon="-2.39284">
        <ele>22.4</ele>
        <time>2021-08-07T11:41:41Z</time>
      </trkpt>
      <trkpt lat="47.81976" lon="-2.39289">
        <ele>22.4</ele>
        <time>2021-08-07T11:41:42Z</time>
      </trkpt>
      <trkpt lat="47.8198" lon="-2.39295">
        <ele>22.4</ele>
        <time>2021-08-07T11:41:43Z</time>
      </trkpt>
      <trkpt lat="47.81983" lon="-2.393">
        <ele>22.4</ele>
        <time>2021-08-07T11:41:44Z</time>
      </trkpt>
      <trkpt lat="47.81987" lon="-2.39305">
        <ele>22.4</ele>
        <time>2021-08-07T11:41:45Z</time>
      </trkpt>
      <trkpt lat="47.81991" lon="-2.39311">
        <ele>22.4</ele>
        <time>2021-08-07T11:41:46Z</time>
      </trkpt>
      <trkpt lat="47.81994" lon="-2.39316">
        <ele>22.4</ele>
        <time>2021-08-07T11:41:47Z</time>
      </trkpt>
      <trkpt lat="47.81998" lon="-2.39321">
        <ele>22.4</ele>
        <time>2021-08-07T11:41:48Z</time>
      </trkpt>
      <trkpt lat="47.82001" lon="-2.39326">
        <ele>22.4</ele>
        <time>2021-08-07T11:41:49Z</time>
      </trkpt>
      <trkpt lat="47.82009" lon="-2.39336">
        <ele>22.4</ele>
        <time>2021-08-07T11:41:51Z</time>
      </trkpt>
      <trkpt lat="47.82012" lon="-2.3934">
        <ele>22.4</ele>
        <time>2021-08-07T11:41:52Z</time>
      </trkpt>
      <trkpt lat="47.82016" lon="-2.39345">
        <ele>22.2</ele>
        <time>2021-08-07T11:41:53Z</time>
      </trkpt>
      <trkpt lat="47.82019" lon="-2.39349">
        <ele>22.2</ele>
        <time>2021-08-07T11:41:54Z</time>
      </trkpt>
      <trkpt lat="47.82022" lon="-2.39354">
        <ele>22.2</ele>
        <time>2021-08-07T11:41:55Z</time>
      </trkpt>
      <trkpt lat="47.82026" lon="-2.39359">
        <ele>22.2</ele>
        <time>2021-08-07T11:41:56Z</time>
      </trkpt>
      <trkpt lat="47.82029" lon="-2.39363">
        <ele>22.2</ele>
        <time>2021-08-07T11:41:57Z</time>
      </trkpt>
      <trkpt lat="47.82032" lon="-2.39368">
        <ele>22.2</ele>
        <time>2021-08-07T11:41:58Z</time>
      </trkpt>
      <trkpt lat="47.82036" lon="-2.39372">
        <ele>22.2</ele>
        <time>2021-08-07T11:41:59Z</time>
      </trkpt>
      <trkpt lat="47.82039" lon="-2.39376">
        <ele>22.2</ele>
        <time>2021-08-07T11:42:00Z</time>
      </trkpt>
      <trkpt lat="47.82045" lon="-2.39385">
        <ele>22.2</ele>
        <time>2021-08-07T11:42:02Z</time>
      </trkpt>
      <trkpt lat="47.82049" lon="-2.3939">
        <ele>22.2</ele>
        <time>2021-08-07T11:42:03Z</time>
      </trkpt>
      <trkpt lat="47.82053" lon="-2.39394">
        <ele>22.4</ele>
        <time>2021-08-07T11:42:04Z</time>
      </trkpt>
      <trkpt lat="47.82056" lon="-2.39399">
        <ele>22.4</ele>
        <time>2021-08-07T11:42:05Z</time>
      </trkpt>
      <trkpt lat="47.82059" lon="-2.39403">
        <ele>22.4</ele>
        <time>2021-08-07T11:42:06Z</time>
      </trkpt>
      <trkpt lat="47.82063" lon="-2.39408">
        <ele>22.4</ele>
        <time>2021-08-07T11:42:07Z</time>
      </trkpt>
      <trkpt lat="47.82066" lon="-2.39412">
        <ele>22.4</ele>
        <time>2021-08-07T11:42:08Z</time>
      </trkpt>
      <trkpt lat="47.82069" lon="-2.39416">
        <ele>22.4</ele>
        <time>2021-08-07T11:42:09Z</time>
      </trkpt>
      <trkpt lat="47.82073" lon="-2.39421">
        <ele>22.4</ele>
        <time>2021-08-07T11:42:10Z</time>
      </trkpt>
      <trkpt lat="47.8208" lon="-2.3943">
        <ele>22.4</ele>
        <time>2021-08-07T11:42:12Z</time>
      </trkpt>
      <trkpt lat="47.82084" lon="-2.39435">
        <ele>22.4</ele>
        <time>2021-08-07T11:42:13Z</time>
      </trkpt>
      <trkpt lat="47.82088" lon="-2.3944">
        <ele>22.4</ele>
        <time>2021-08-07T11:42:14Z</time>
      </trkpt>
      <trkpt lat="47.82092" lon="-2.39445">
        <ele>22.4</ele>
        <time>2021-08-07T11:42:15Z</time>
      </trkpt>
      <trkpt lat="47.82095" lon="-2.3945">
        <ele>22.4</ele>
        <time>2021-08-07T11:42:16Z</time>
      </trkpt>
      <trkpt lat="47.82099" lon="-2.39455">
        <ele>22.4</ele>
        <time>2021-08-07T11:42:17Z</time>
      </trkpt>
      <trkpt lat="47.82102" lon="-2.39459">
        <ele>22.4</ele>
        <time>2021-08-07T11:42:18Z</time>
      </trkpt>
      <trkpt lat="47.82106" lon="-2.39464">
        <ele>22.4</ele>
        <time>2021-08-07T11:42:19Z</time>
      </trkpt>
      <trkpt lat="47.8211" lon="-2.39469">
        <ele>22.4</ele>
        <time>2021-08-07T11:42:20Z</time>
      </trkpt>
      <trkpt lat="47.82117" lon="-2.39479">
        <ele>22.4</ele>
        <time>2021-08-07T11:42:22Z</time>
      </trkpt>
      <trkpt lat="47.82121" lon="-2.39484">
        <ele>22.4</ele>
        <time>2021-08-07T11:42:23Z</time>
      </trkpt>
      <trkpt lat="47.82124" lon="-2.39488">
        <ele>22.2</ele>
        <time>2021-08-07T11:42:24Z</time>
      </trkpt>
      <trkpt lat="47.82128" lon="-2.39493">
        <ele>22.2</ele>
        <time>2021-08-07T11:42:25Z</time>
      </trkpt>
      <trkpt lat="47.82132" lon="-2.39498">
        <ele>22.2</ele>
        <time>2021-08-07T11:42:26Z</time>
      </trkpt>
      <trkpt lat="47.82135" lon="-2.39503">
        <ele>22.2</ele>
        <time>2021-08-07T11:42:27Z</time>
      </trkpt>
      <trkpt lat="47.82139" lon="-2.39507">
        <ele>22.2</ele>
        <time>2021-08-07T11:42:28Z</time>
      </trkpt>
      <trkpt lat="47.82142" lon="-2.39512">
        <ele>22.2</ele>
        <time>2021-08-07T11:42:29Z</time>
      </trkpt>
      <trkpt lat="47.82146" lon="-2.39517">
        <ele>22.2</ele>
        <time>2021-08-07T11:42:30Z</time>
      </trkpt>
      <trkpt lat="47.82153" lon="-2.39526">
        <ele>22.2</ele>
        <time>2021-08-07T11:42:32Z</time>
      </trkpt>
      <trkpt lat="47.82157" lon="-2.3953">
        <ele>22.2</ele>
        <time>2021-08-07T11:42:33Z</time>
      </trkpt>
      <trkpt lat="47.8216" lon="-2.39535">
        <ele>22.2</ele>
        <time>2021-08-07T11:42:34Z</time>
      </trkpt>
      <trkpt lat="47.82164" lon="-2.39539">
        <ele>22.2</ele>
        <time>2021-08-07T11:42:35Z</time>
      </trkpt>
      <trkpt lat="47.82167" lon="-2.39543">
        <ele>22.2</ele>
        <time>2021-08-07T11:42:36Z</time>
      </trkpt>
      <trkpt lat="47.8217" lon="-2.39548">
        <ele>22.2</ele>
        <time>2021-08-07T11:42:37Z</time>
      </trkpt>
      <trkpt lat="47.82173" lon="-2.39552">
        <ele>22.2</ele>
        <time>2021-08-07T11:42:38Z</time>
      </trkpt>
      <trkpt lat="47.82177" lon="-2.39557">
        <ele>22.2</ele>
        <time>2021-08-07T11:42:39Z</time>
      </trkpt>
      <trkpt lat="47.8218" lon="-2.39561">
        <ele>22.2</ele>
        <time>2021-08-07T11:42:40Z</time>
      </trkpt>
      <trkpt lat="47.82188" lon="-2.39571">
        <ele>22.2</ele>
        <time>2021-08-07T11:42:42Z</time>
      </trkpt>
      <trkpt lat="47.82192" lon="-2.39576">
        <ele>22.2</ele>
        <time>2021-08-07T11:42:43Z</time>
      </trkpt>
      <trkpt lat="47.82196" lon="-2.39581">
        <ele>22.2</ele>
        <time>2021-08-07T11:42:44Z</time>
      </trkpt>
      <trkpt lat="47.82199" lon="-2.39585">
        <ele>22.2</ele>
        <time>2021-08-07T11:42:45Z</time>
      </trkpt>
      <trkpt lat="47.82203" lon="-2.3959">
        <ele>22.2</ele>
        <time>2021-08-07T11:42:46Z</time>
      </trkpt>
      <trkpt lat="47.82207" lon="-2.39595">
        <ele>22.2</ele>
        <time>2021-08-07T11:42:47Z</time>
      </trkpt>
      <trkpt lat="47.8221" lon="-2.396">
        <ele>22.2</ele>
        <time>2021-08-07T11:42:48Z</time>
      </trkpt>
      <trkpt lat="47.82214" lon="-2.39604">
        <ele>22.2</ele>
        <time>2021-08-07T11:42:49Z</time>
      </trkpt>
      <trkpt lat="47.82218" lon="-2.39609">
        <ele>22.2</ele>
        <time>2021-08-07T11:42:50Z</time>
      </trkpt>
      <trkpt lat="47.82225" lon="-2.39618">
        <ele>22.2</ele>
        <time>2021-08-07T11:42:52Z</time>
      </trkpt>
      <trkpt lat="47.82229" lon="-2.39623">
        <ele>22.2</ele>
        <time>2021-08-07T11:42:53Z</time>
      </trkpt>
      <trkpt lat="47.82232" lon="-2.39627">
        <ele>22.2</ele>
        <time>2021-08-07T11:42:54Z</time>
      </trkpt>
      <trkpt lat="47.82236" lon="-2.39632">
        <ele>22.2</ele>
        <time>2021-08-07T11:42:55Z</time>
      </trkpt>
      <trkpt lat="47.82239" lon="-2.39637">
        <ele>22.2</ele>
        <time>2021-08-07T11:42:56Z</time>
      </trkpt>
      <trkpt lat="47.82243" lon="-2.39642">
        <ele>22.2</ele>
        <time>2021-08-07T11:42:57Z</time>
      </trkpt>
      <trkpt lat="47.82247" lon="-2.39645">
        <ele>22.2</ele>
        <time>2021-08-07T11:42:58Z</time>
      </trkpt>
      <trkpt lat="47.8225" lon="-2.39649">
        <ele>22.2</ele>
        <time>2021-08-07T11:42:59Z</time>
      </trkpt>
      <trkpt lat="47.82253" lon="-2.39653">
        <ele>22.2</ele>
        <time>2021-08-07T11:43:00Z</time>
      </trkpt>
      <trkpt lat="47.82256" lon="-2.39657">
        <ele>22.2</ele>
        <time>2021-08-07T11:43:01Z</time>
      </trkpt>
      <trkpt lat="47.82259" lon="-2.39662">
        <ele>22</ele>
        <time>2021-08-07T11:43:02Z</time>
      </trkpt>
      <trkpt lat="47.82262" lon="-2.39666">
        <ele>22</ele>
        <time>2021-08-07T11:43:03Z</time>
      </trkpt>
      <trkpt lat="47.82265" lon="-2.3967">
        <ele>22</ele>
        <time>2021-08-07T11:43:04Z</time>
      </trkpt>
      <trkpt lat="47.82268" lon="-2.39674">
        <ele>22</ele>
        <time>2021-08-07T11:43:05Z</time>
      </trkpt>
      <trkpt lat="47.82271" lon="-2.39678">
        <ele>22</ele>
        <time>2021-08-07T11:43:06Z</time>
      </trkpt>
      <trkpt lat="47.82274" lon="-2.39682">
        <ele>22</ele>
        <time>2021-08-07T11:43:07Z</time>
      </trkpt>
      <trkpt lat="47.82277" lon="-2.39685">
        <ele>22</ele>
        <time>2021-08-07T11:43:08Z</time>
      </trkpt>
      <trkpt lat="47.8228" lon="-2.39688">
        <ele>22</ele>
        <time>2021-08-07T11:43:09Z</time>
      </trkpt>
      <trkpt lat="47.82283" lon="-2.39692">
        <ele>22</ele>
        <time>2021-08-07T11:43:10Z</time>
      </trkpt>
      <trkpt lat="47.82286" lon="-2.39695">
        <ele>22</ele>
        <time>2021-08-07T11:43:11Z</time>
      </trkpt>
      <trkpt lat="47.82289" lon="-2.39699">
        <ele>22</ele>
        <time>2021-08-07T11:43:12Z</time>
      </trkpt>
      <trkpt lat="47.82292" lon="-2.39703">
        <ele>22</ele>
        <time>2021-08-07T11:43:13Z</time>
      </trkpt>
      <trkpt lat="47.82295" lon="-2.39707">
        <ele>22</ele>
        <time>2021-08-07T11:43:14Z</time>
      </trkpt>
      <trkpt lat="47.82299" lon="-2.39711">
        <ele>22</ele>
        <time>2021-08-07T11:43:15Z</time>
      </trkpt>
      <trkpt lat="47.82302" lon="-2.39715">
        <ele>22</ele>
        <time>2021-08-07T11:43:16Z</time>
      </trkpt>
      <trkpt lat="47.82305" lon="-2.39719">
        <ele>22</ele>
        <time>2021-08-07T11:43:17Z</time>
      </trkpt>
      <trkpt lat="47.82308" lon="-2.39723">
        <ele>22</ele>
        <time>2021-08-07T11:43:18Z</time>
      </trkpt>
      <trkpt lat="47.82311" lon="-2.39727">
        <ele>22</ele>
        <time>2021-08-07T11:43:19Z</time>
      </trkpt>
      <trkpt lat="47.82315" lon="-2.39731">
        <ele>22</ele>
        <time>2021-08-07T11:43:20Z</time>
      </trkpt>
      <trkpt lat="47.82321" lon="-2.39739">
        <ele>22</ele>
        <time>2021-08-07T11:43:22Z</time>
      </trkpt>
      <trkpt lat="47.82324" lon="-2.39743">
        <ele>22</ele>
        <time>2021-08-07T11:43:23Z</time>
      </trkpt>
      <trkpt lat="47.82327" lon="-2.39747">
        <ele>22</ele>
        <time>2021-08-07T11:43:24Z</time>
      </trkpt>
      <trkpt lat="47.8233" lon="-2.39751">
        <ele>22</ele>
        <time>2021-08-07T11:43:25Z</time>
      </trkpt>
      <trkpt lat="47.82333" lon="-2.39755">
        <ele>22</ele>
        <time>2021-08-07T11:43:26Z</time>
      </trkpt>
      <trkpt lat="47.82336" lon="-2.39759">
        <ele>22</ele>
        <time>2021-08-07T11:43:27Z</time>
      </trkpt>
      <trkpt lat="47.82338" lon="-2.39762">
        <ele>22</ele>
        <time>2021-08-07T11:43:28Z</time>
      </trkpt>
      <trkpt lat="47.8234" lon="-2.39765">
        <ele>22</ele>
        <time>2021-08-07T11:43:29Z</time>
      </trkpt>
      <trkpt lat="47.82343" lon="-2.39769">
        <ele>22</ele>
        <time>2021-08-07T11:43:30Z</time>
      </trkpt>
      <trkpt lat="47.82346" lon="-2.39774">
        <ele>22</ele>
        <time>2021-08-07T11:43:31Z</time>
      </trkpt>
      <trkpt lat="47.82349" lon="-2.39778">
        <ele>22</ele>
        <time>2021-08-07T11:43:32Z</time>
      </trkpt>
      <trkpt lat="47.82352" lon="-2.39782">
        <ele>22</ele>
        <time>2021-08-07T11:43:33Z</time>
      </trkpt>
      <trkpt lat="47.82355" lon="-2.39787">
        <ele>22</ele>
        <time>2021-08-07T11:43:34Z</time>
      </trkpt>
      <trkpt lat="47.82359" lon="-2.39791">
        <ele>22</ele>
        <time>2021-08-07T11:43:35Z</time>
      </trkpt>
      <trkpt lat="47.82362" lon="-2.39796">
        <ele>22</ele>
        <time>2021-08-07T11:43:36Z</time>
      </trkpt>
      <trkpt lat="47.82366" lon="-2.398">
        <ele>22</ele>
        <time>2021-08-07T11:43:37Z</time>
      </trkpt>
      <trkpt lat="47.82369" lon="-2.39805">
        <ele>22</ele>
        <time>2021-08-07T11:43:38Z</time>
      </trkpt>
      <trkpt lat="47.82373" lon="-2.39809">
        <ele>22.2</ele>
        <time>2021-08-07T11:43:39Z</time>
      </trkpt>
      <trkpt lat="47.82377" lon="-2.39814">
        <ele>22.2</ele>
        <time>2021-08-07T11:43:40Z</time>
      </trkpt>
      <trkpt lat="47.82384" lon="-2.39824">
        <ele>22.2</ele>
        <time>2021-08-07T11:43:42Z</time>
      </trkpt>
      <trkpt lat="47.82387" lon="-2.39829">
        <ele>22.2</ele>
        <time>2021-08-07T11:43:43Z</time>
      </trkpt>
      <trkpt lat="47.8239" lon="-2.39833">
        <ele>22.2</ele>
        <time>2021-08-07T11:43:44Z</time>
      </trkpt>
      <trkpt lat="47.82393" lon="-2.39838">
        <ele>22.2</ele>
        <time>2021-08-07T11:43:45Z</time>
      </trkpt>
      <trkpt lat="47.82396" lon="-2.39842">
        <ele>22.2</ele>
        <time>2021-08-07T11:43:46Z</time>
      </trkpt>
      <trkpt lat="47.82399" lon="-2.39846">
        <ele>22.2</ele>
        <time>2021-08-07T11:43:47Z</time>
      </trkpt>
      <trkpt lat="47.82402" lon="-2.3985">
        <ele>22.2</ele>
        <time>2021-08-07T11:43:48Z</time>
      </trkpt>
      <trkpt lat="47.82405" lon="-2.39854">
        <ele>22.2</ele>
        <time>2021-08-07T11:43:49Z</time>
      </trkpt>
      <trkpt lat="47.82408" lon="-2.39857">
        <ele>22.2</ele>
        <time>2021-08-07T11:43:50Z</time>
      </trkpt>
      <trkpt lat="47.82413" lon="-2.39864">
        <ele>22.6</ele>
        <time>2021-08-07T11:43:52Z</time>
      </trkpt>
      <trkpt lat="47.82416" lon="-2.39867">
        <ele>22.8</ele>
        <time>2021-08-07T11:43:53Z</time>
      </trkpt>
      <trkpt lat="47.82418" lon="-2.3987">
        <ele>23</ele>
        <time>2021-08-07T11:43:54Z</time>
      </trkpt>
      <trkpt lat="47.82421" lon="-2.39873">
        <ele>23.2</ele>
        <time>2021-08-07T11:43:55Z</time>
      </trkpt>
      <trkpt lat="47.82423" lon="-2.39876">
        <ele>23.2</ele>
        <time>2021-08-07T11:43:56Z</time>
      </trkpt>
      <trkpt lat="47.82425" lon="-2.39879">
        <ele>23.4</ele>
        <time>2021-08-07T11:43:57Z</time>
      </trkpt>
      <trkpt lat="47.82427" lon="-2.39883">
        <ele>23.4</ele>
        <time>2021-08-07T11:43:58Z</time>
      </trkpt>
      <trkpt lat="47.82429" lon="-2.39885">
        <ele>23.4</ele>
        <time>2021-08-07T11:43:59Z</time>
      </trkpt>
      <trkpt lat="47.82431" lon="-2.39888">
        <ele>23.4</ele>
        <time>2021-08-07T11:44:00Z</time>
      </trkpt>
      <trkpt lat="47.82435" lon="-2.39893">
        <ele>23.6</ele>
        <time>2021-08-07T11:44:02Z</time>
      </trkpt>
      <trkpt lat="47.82438" lon="-2.39896">
        <ele>23.6</ele>
        <time>2021-08-07T11:44:03Z</time>
      </trkpt>
      <trkpt lat="47.8244" lon="-2.399">
        <ele>23.6</ele>
        <time>2021-08-07T11:44:04Z</time>
      </trkpt>
      <trkpt lat="47.82443" lon="-2.39903">
        <ele>23.6</ele>
        <time>2021-08-07T11:44:05Z</time>
      </trkpt>
      <trkpt lat="47.82446" lon="-2.39908">
        <ele>23.8</ele>
        <time>2021-08-07T11:44:06Z</time>
      </trkpt>
      <trkpt lat="47.8245" lon="-2.39912">
        <ele>24</ele>
        <time>2021-08-07T11:44:07Z</time>
      </trkpt>
      <trkpt lat="47.82453" lon="-2.39916">
        <ele>24</ele>
        <time>2021-08-07T11:44:08Z</time>
      </trkpt>
      <trkpt lat="47.82457" lon="-2.3992">
        <ele>24</ele>
        <time>2021-08-07T11:44:09Z</time>
      </trkpt>
      <trkpt lat="47.8246" lon="-2.39924">
        <ele>24</ele>
        <time>2021-08-07T11:44:10Z</time>
      </trkpt>
      <trkpt lat="47.82467" lon="-2.39932">
        <ele>24</ele>
        <time>2021-08-07T11:44:12Z</time>
      </trkpt>
      <trkpt lat="47.82469" lon="-2.39937">
        <ele>24</ele>
        <time>2021-08-07T11:44:13Z</time>
      </trkpt>
      <trkpt lat="47.82472" lon="-2.39942">
        <ele>24</ele>
        <time>2021-08-07T11:44:14Z</time>
      </trkpt>
      <trkpt lat="47.82475" lon="-2.39947">
        <ele>24</ele>
        <time>2021-08-07T11:44:15Z</time>
      </trkpt>
      <trkpt lat="47.82479" lon="-2.39951">
        <ele>24</ele>
        <time>2021-08-07T11:44:16Z</time>
      </trkpt>
      <trkpt lat="47.82482" lon="-2.39954">
        <ele>24</ele>
        <time>2021-08-07T11:44:17Z</time>
      </trkpt>
      <trkpt lat="47.82484" lon="-2.39958">
        <ele>24</ele>
        <time>2021-08-07T11:44:18Z</time>
      </trkpt>
      <trkpt lat="47.82487" lon="-2.39962">
        <ele>24</ele>
        <time>2021-08-07T11:44:19Z</time>
      </trkpt>
      <trkpt lat="47.82489" lon="-2.39967">
        <ele>24</ele>
        <time>2021-08-07T11:44:20Z</time>
      </trkpt>
      <trkpt lat="47.82492" lon="-2.39975">
        <ele>23.8</ele>
        <time>2021-08-07T11:44:22Z</time>
      </trkpt>
      <trkpt lat="47.82493" lon="-2.39979">
        <ele>23.6</ele>
        <time>2021-08-07T11:44:23Z</time>
      </trkpt>
      <trkpt lat="47.82495" lon="-2.39984">
        <ele>23.6</ele>
        <time>2021-08-07T11:44:24Z</time>
      </trkpt>
      <trkpt lat="47.82496" lon="-2.39988">
        <ele>23.6</ele>
        <time>2021-08-07T11:44:25Z</time>
      </trkpt>
      <trkpt lat="47.82497" lon="-2.39992">
        <ele>23.4</ele>
        <time>2021-08-07T11:44:26Z</time>
      </trkpt>
      <trkpt lat="47.82498" lon="-2.39996">
        <ele>23.4</ele>
        <time>2021-08-07T11:44:27Z</time>
      </trkpt>
      <trkpt lat="47.82499" lon="-2.40001">
        <ele>23.4</ele>
        <time>2021-08-07T11:44:28Z</time>
      </trkpt>
      <trkpt lat="47.825" lon="-2.40005">
        <ele>23.4</ele>
        <time>2021-08-07T11:44:29Z</time>
      </trkpt>
      <trkpt lat="47.82502" lon="-2.40011">
        <ele>23.4</ele>
        <time>2021-08-07T11:44:30Z</time>
      </trkpt>
      <trkpt lat="47.82504" lon="-2.40022">
        <ele>23.4</ele>
        <time>2021-08-07T11:44:32Z</time>
      </trkpt>
      <trkpt lat="47.82505" lon="-2.40027">
        <ele>23.4</ele>
        <time>2021-08-07T11:44:33Z</time>
      </trkpt>
      <trkpt lat="47.82506" lon="-2.40033">
        <ele>23.4</ele>
        <time>2021-08-07T11:44:34Z</time>
      </trkpt>
      <trkpt lat="47.82507" lon="-2.40039">
        <ele>23.4</ele>
        <time>2021-08-07T11:44:35Z</time>
      </trkpt>
      <trkpt lat="47.82508" lon="-2.40045">
        <ele>23.2</ele>
        <time>2021-08-07T11:44:36Z</time>
      </trkpt>
      <trkpt lat="47.82509" lon="-2.4005">
        <ele>23.2</ele>
        <time>2021-08-07T11:44:37Z</time>
      </trkpt>
      <trkpt lat="47.8251" lon="-2.40056">
        <ele>23.2</ele>
        <time>2021-08-07T11:44:38Z</time>
      </trkpt>
      <trkpt lat="47.8251" lon="-2.40062">
        <ele>23.2</ele>
        <time>2021-08-07T11:44:39Z</time>
      </trkpt>
      <trkpt lat="47.82511" lon="-2.40067">
        <ele>23.2</ele>
        <time>2021-08-07T11:44:40Z</time>
      </trkpt>
      <trkpt lat="47.82512" lon="-2.40073">
        <ele>23.2</ele>
        <time>2021-08-07T11:44:41Z</time>
      </trkpt>
      <trkpt lat="47.82513" lon="-2.4008">
        <ele>23.2</ele>
        <time>2021-08-07T11:44:42Z</time>
      </trkpt>
      <trkpt lat="47.82513" lon="-2.40087">
        <ele>23.2</ele>
        <time>2021-08-07T11:44:43Z</time>
      </trkpt>
      <trkpt lat="47.82514" lon="-2.40094">
        <ele>23.2</ele>
        <time>2021-08-07T11:44:44Z</time>
      </trkpt>
      <trkpt lat="47.82514" lon="-2.40102">
        <ele>23.2</ele>
        <time>2021-08-07T11:44:45Z</time>
      </trkpt>
      <trkpt lat="47.82515" lon="-2.40108">
        <ele>23</ele>
        <time>2021-08-07T11:44:46Z</time>
      </trkpt>
      <trkpt lat="47.82516" lon="-2.40115">
        <ele>23</ele>
        <time>2021-08-07T11:44:47Z</time>
      </trkpt>
      <trkpt lat="47.82516" lon="-2.40122">
        <ele>23</ele>
        <time>2021-08-07T11:44:48Z</time>
      </trkpt>
      <trkpt lat="47.82516" lon="-2.40129">
        <ele>23</ele>
        <time>2021-08-07T11:44:49Z</time>
      </trkpt>
      <trkpt lat="47.82517" lon="-2.40143">
        <ele>22.8</ele>
        <time>2021-08-07T11:44:51Z</time>
      </trkpt>
      <trkpt lat="47.82517" lon="-2.40149">
        <ele>22.8</ele>
        <time>2021-08-07T11:44:52Z</time>
      </trkpt>
      <trkpt lat="47.82518" lon="-2.40155">
        <ele>22.8</ele>
        <time>2021-08-07T11:44:53Z</time>
      </trkpt>
      <trkpt lat="47.82518" lon="-2.4016">
        <ele>22.8</ele>
        <time>2021-08-07T11:44:54Z</time>
      </trkpt>
      <trkpt lat="47.82519" lon="-2.40167">
        <ele>22.8</ele>
        <time>2021-08-07T11:44:55Z</time>
      </trkpt>
      <trkpt lat="47.8252" lon="-2.40173">
        <ele>22.8</ele>
        <time>2021-08-07T11:44:56Z</time>
      </trkpt>
      <trkpt lat="47.82521" lon="-2.40179">
        <ele>22.8</ele>
        <time>2021-08-07T11:44:57Z</time>
      </trkpt>
      <trkpt lat="47.82521" lon="-2.40185">
        <ele>22.8</ele>
        <time>2021-08-07T11:44:58Z</time>
      </trkpt>
      <trkpt lat="47.82522" lon="-2.4019">
        <ele>22.8</ele>
        <time>2021-08-07T11:44:59Z</time>
      </trkpt>
      <trkpt lat="47.82524" lon="-2.40196">
        <ele>22.8</ele>
        <time>2021-08-07T11:45:00Z</time>
      </trkpt>
      <trkpt lat="47.82525" lon="-2.40207">
        <ele>22.8</ele>
        <time>2021-08-07T11:45:02Z</time>
      </trkpt>
      <trkpt lat="47.82525" lon="-2.40213">
        <ele>22.8</ele>
        <time>2021-08-07T11:45:03Z</time>
      </trkpt>
      <trkpt lat="47.82526" lon="-2.40218">
        <ele>22.8</ele>
        <time>2021-08-07T11:45:04Z</time>
      </trkpt>
      <trkpt lat="47.82526" lon="-2.40224">
        <ele>22.8</ele>
        <time>2021-08-07T11:45:05Z</time>
      </trkpt>
      <trkpt lat="47.82527" lon="-2.4023">
        <ele>22.8</ele>
        <time>2021-08-07T11:45:06Z</time>
      </trkpt>
      <trkpt lat="47.82527" lon="-2.40236">
        <ele>22.8</ele>
        <time>2021-08-07T11:45:07Z</time>
      </trkpt>
      <trkpt lat="47.82528" lon="-2.40241">
        <ele>22.8</ele>
        <time>2021-08-07T11:45:08Z</time>
      </trkpt>
      <trkpt lat="47.82529" lon="-2.40247">
        <ele>22.8</ele>
        <time>2021-08-07T11:45:09Z</time>
      </trkpt>
      <trkpt lat="47.8253" lon="-2.40252">
        <ele>22.8</ele>
        <time>2021-08-07T11:45:10Z</time>
      </trkpt>
      <trkpt lat="47.82532" lon="-2.40263">
        <ele>22.8</ele>
        <time>2021-08-07T11:45:12Z</time>
      </trkpt>
      <trkpt lat="47.82533" lon="-2.40269">
        <ele>22.8</ele>
        <time>2021-08-07T11:45:13Z</time>
      </trkpt>
      <trkpt lat="47.82533" lon="-2.40275">
        <ele>23</ele>
        <time>2021-08-07T11:45:14Z</time>
      </trkpt>
      <trkpt lat="47.82534" lon="-2.40281">
        <ele>23</ele>
        <time>2021-08-07T11:45:15Z</time>
      </trkpt>
      <trkpt lat="47.82535" lon="-2.40287">
        <ele>23</ele>
        <time>2021-08-07T11:45:16Z</time>
      </trkpt>
      <trkpt lat="47.82536" lon="-2.40294">
        <ele>23</ele>
        <time>2021-08-07T11:45:17Z</time>
      </trkpt>
      <trkpt lat="47.82538" lon="-2.403">
        <ele>23</ele>
        <time>2021-08-07T11:45:18Z</time>
      </trkpt>
      <trkpt lat="47.82539" lon="-2.40306">
        <ele>23.2</ele>
        <time>2021-08-07T11:45:19Z</time>
      </trkpt>
      <trkpt lat="47.8254" lon="-2.40311">
        <ele>23.2</ele>
        <time>2021-08-07T11:45:20Z</time>
      </trkpt>
      <trkpt lat="47.82542" lon="-2.40317">
        <ele>23.2</ele>
        <time>2021-08-07T11:45:21Z</time>
      </trkpt>
      <trkpt lat="47.82544" lon="-2.40322">
        <ele>23.4</ele>
        <time>2021-08-07T11:45:22Z</time>
      </trkpt>
      <trkpt lat="47.82546" lon="-2.40328">
        <ele>23.4</ele>
        <time>2021-08-07T11:45:23Z</time>
      </trkpt>
      <trkpt lat="47.82548" lon="-2.40334">
        <ele>23.4</ele>
        <time>2021-08-07T11:45:24Z</time>
      </trkpt>
      <trkpt lat="47.82549" lon="-2.40341">
        <ele>23.4</ele>
        <time>2021-08-07T11:45:25Z</time>
      </trkpt>
      <trkpt lat="47.82551" lon="-2.40347">
        <ele>23.4</ele>
        <time>2021-08-07T11:45:26Z</time>
      </trkpt>
      <trkpt lat="47.82553" lon="-2.40354">
        <ele>23.4</ele>
        <time>2021-08-07T11:45:27Z</time>
      </trkpt>
      <trkpt lat="47.82555" lon="-2.40361">
        <ele>23.4</ele>
        <time>2021-08-07T11:45:28Z</time>
      </trkpt>
      <trkpt lat="47.82557" lon="-2.40367">
        <ele>23.4</ele>
        <time>2021-08-07T11:45:29Z</time>
      </trkpt>
      <trkpt lat="47.8256" lon="-2.40372">
        <ele>23.4</ele>
        <time>2021-08-07T11:45:30Z</time>
      </trkpt>
      <trkpt lat="47.82565" lon="-2.40383">
        <ele>23.4</ele>
        <time>2021-08-07T11:45:32Z</time>
      </trkpt>
      <trkpt lat="47.82567" lon="-2.40389">
        <ele>23.4</ele>
        <time>2021-08-07T11:45:33Z</time>
      </trkpt>
      <trkpt lat="47.8257" lon="-2.40394">
        <ele>23.2</ele>
        <time>2021-08-07T11:45:34Z</time>
      </trkpt>
      <trkpt lat="47.82572" lon="-2.40398">
        <ele>23.2</ele>
        <time>2021-08-07T11:45:35Z</time>
      </trkpt>
      <trkpt lat="47.82574" lon="-2.40403">
        <ele>23.2</ele>
        <time>2021-08-07T11:45:36Z</time>
      </trkpt>
      <trkpt lat="47.82576" lon="-2.40407">
        <ele>23.2</ele>
        <time>2021-08-07T11:45:37Z</time>
      </trkpt>
      <trkpt lat="47.82578" lon="-2.40411">
        <ele>23.2</ele>
        <time>2021-08-07T11:45:38Z</time>
      </trkpt>
      <trkpt lat="47.8258" lon="-2.40415">
        <ele>23.2</ele>
        <time>2021-08-07T11:45:39Z</time>
      </trkpt>
      <trkpt lat="47.82583" lon="-2.40419">
        <ele>23.2</ele>
        <time>2021-08-07T11:45:40Z</time>
      </trkpt>
      <trkpt lat="47.82585" lon="-2.40423">
        <ele>23.2</ele>
        <time>2021-08-07T11:45:41Z</time>
      </trkpt>
      <trkpt lat="47.82588" lon="-2.40427">
        <ele>23.2</ele>
        <time>2021-08-07T11:45:42Z</time>
      </trkpt>
      <trkpt lat="47.8259" lon="-2.40432">
        <ele>23.2</ele>
        <time>2021-08-07T11:45:43Z</time>
      </trkpt>
      <trkpt lat="47.82593" lon="-2.40436">
        <ele>23.2</ele>
        <time>2021-08-07T11:45:44Z</time>
      </trkpt>
      <trkpt lat="47.82594" lon="-2.4044">
        <ele>23.4</ele>
        <time>2021-08-07T11:45:45Z</time>
      </trkpt>
      <trkpt lat="47.82596" lon="-2.40443">
        <ele>23.4</ele>
        <time>2021-08-07T11:45:46Z</time>
      </trkpt>
      <trkpt lat="47.82599" lon="-2.40447">
        <ele>23.4</ele>
        <time>2021-08-07T11:45:47Z</time>
      </trkpt>
      <trkpt lat="47.82601" lon="-2.40451">
        <ele>23.4</ele>
        <time>2021-08-07T11:45:48Z</time>
      </trkpt>
      <trkpt lat="47.82604" lon="-2.40455">
        <ele>23.6</ele>
        <time>2021-08-07T11:45:49Z</time>
      </trkpt>
      <trkpt lat="47.82606" lon="-2.4046">
        <ele>23.6</ele>
        <time>2021-08-07T11:45:50Z</time>
      </trkpt>
      <trkpt lat="47.82609" lon="-2.40465">
        <ele>23.6</ele>
        <time>2021-08-07T11:45:51Z</time>
      </trkpt>
      <trkpt lat="47.82615" lon="-2.40475">
        <ele>23.6</ele>
        <time>2021-08-07T11:45:53Z</time>
      </trkpt>
      <trkpt lat="47.82618" lon="-2.4048">
        <ele>23.6</ele>
        <time>2021-08-07T11:45:54Z</time>
      </trkpt>
      <trkpt lat="47.82621" lon="-2.40485">
        <ele>23.6</ele>
        <time>2021-08-07T11:45:55Z</time>
      </trkpt>
      <trkpt lat="47.82624" lon="-2.40489">
        <ele>23.6</ele>
        <time>2021-08-07T11:45:56Z</time>
      </trkpt>
      <trkpt lat="47.82627" lon="-2.40494">
        <ele>23.6</ele>
        <time>2021-08-07T11:45:57Z</time>
      </trkpt>
      <trkpt lat="47.82629" lon="-2.40498">
        <ele>23.6</ele>
        <time>2021-08-07T11:45:58Z</time>
      </trkpt>
      <trkpt lat="47.82632" lon="-2.40502">
        <ele>23.6</ele>
        <time>2021-08-07T11:45:59Z</time>
      </trkpt>
      <trkpt lat="47.82634" lon="-2.40507">
        <ele>23.6</ele>
        <time>2021-08-07T11:46:00Z</time>
      </trkpt>
      <trkpt lat="47.82637" lon="-2.40511">
        <ele>23.6</ele>
        <time>2021-08-07T11:46:01Z</time>
      </trkpt>
      <trkpt lat="47.82643" lon="-2.4052">
        <ele>23.6</ele>
        <time>2021-08-07T11:46:03Z</time>
      </trkpt>
      <trkpt lat="47.82645" lon="-2.40524">
        <ele>23.6</ele>
        <time>2021-08-07T11:46:04Z</time>
      </trkpt>
      <trkpt lat="47.82648" lon="-2.40529">
        <ele>23.6</ele>
        <time>2021-08-07T11:46:05Z</time>
      </trkpt>
      <trkpt lat="47.82651" lon="-2.40534">
        <ele>23.6</ele>
        <time>2021-08-07T11:46:06Z</time>
      </trkpt>
      <trkpt lat="47.82654" lon="-2.40538">
        <ele>23.6</ele>
        <time>2021-08-07T11:46:07Z</time>
      </trkpt>
      <trkpt lat="47.82657" lon="-2.40542">
        <ele>23.4</ele>
        <time>2021-08-07T11:46:08Z</time>
      </trkpt>
      <trkpt lat="47.8266" lon="-2.40547">
        <ele>23.4</ele>
        <time>2021-08-07T11:46:09Z</time>
      </trkpt>
      <trkpt lat="47.82662" lon="-2.40551">
        <ele>23.4</ele>
        <time>2021-08-07T11:46:10Z</time>
      </trkpt>
      <trkpt lat="47.82665" lon="-2.40555">
        <ele>23.4</ele>
        <time>2021-08-07T11:46:11Z</time>
      </trkpt>
      <trkpt lat="47.8267" lon="-2.40562">
        <ele>23.6</ele>
        <time>2021-08-07T11:46:13Z</time>
      </trkpt>
      <trkpt lat="47.82672" lon="-2.40566">
        <ele>23.6</ele>
        <time>2021-08-07T11:46:14Z</time>
      </trkpt>
      <trkpt lat="47.82675" lon="-2.4057">
        <ele>23.6</ele>
        <time>2021-08-07T11:46:15Z</time>
      </trkpt>
      <trkpt lat="47.82677" lon="-2.40574">
        <ele>23.6</ele>
        <time>2021-08-07T11:46:16Z</time>
      </trkpt>
      <trkpt lat="47.8268" lon="-2.40578">
        <ele>23.4</ele>
        <time>2021-08-07T11:46:17Z</time>
      </trkpt>
      <trkpt lat="47.82683" lon="-2.40583">
        <ele>23.4</ele>
        <time>2021-08-07T11:46:18Z</time>
      </trkpt>
      <trkpt lat="47.82686" lon="-2.40588">
        <ele>23.4</ele>
        <time>2021-08-07T11:46:19Z</time>
      </trkpt>
      <trkpt lat="47.8269" lon="-2.40594">
        <ele>23.4</ele>
        <time>2021-08-07T11:46:20Z</time>
      </trkpt>
      <trkpt lat="47.82693" lon="-2.40599">
        <ele>23.4</ele>
        <time>2021-08-07T11:46:21Z</time>
      </trkpt>
      <trkpt lat="47.82696" lon="-2.40604">
        <ele>23.4</ele>
        <time>2021-08-07T11:46:22Z</time>
      </trkpt>
      <trkpt lat="47.82699" lon="-2.40609">
        <ele>23.4</ele>
        <time>2021-08-07T11:46:23Z</time>
      </trkpt>
      <trkpt lat="47.82702" lon="-2.40614">
        <ele>23.6</ele>
        <time>2021-08-07T11:46:24Z</time>
      </trkpt>
      <trkpt lat="47.82704" lon="-2.40619">
        <ele>23.4</ele>
        <time>2021-08-07T11:46:25Z</time>
      </trkpt>
      <trkpt lat="47.82707" lon="-2.40624">
        <ele>23.6</ele>
        <time>2021-08-07T11:46:26Z</time>
      </trkpt>
      <trkpt lat="47.82709" lon="-2.40628">
        <ele>23.6</ele>
        <time>2021-08-07T11:46:27Z</time>
      </trkpt>
      <trkpt lat="47.82712" lon="-2.40633">
        <ele>23.6</ele>
        <time>2021-08-07T11:46:28Z</time>
      </trkpt>
      <trkpt lat="47.82715" lon="-2.40637">
        <ele>23.6</ele>
        <time>2021-08-07T11:46:29Z</time>
      </trkpt>
      <trkpt lat="47.82718" lon="-2.40641">
        <ele>23.8</ele>
        <time>2021-08-07T11:46:30Z</time>
      </trkpt>
      <trkpt lat="47.82721" lon="-2.40645">
        <ele>23.6</ele>
        <time>2021-08-07T11:46:31Z</time>
      </trkpt>
      <trkpt lat="47.82723" lon="-2.4065">
        <ele>23.6</ele>
        <time>2021-08-07T11:46:32Z</time>
      </trkpt>
      <trkpt lat="47.82728" lon="-2.40658">
        <ele>23.6</ele>
        <time>2021-08-07T11:46:34Z</time>
      </trkpt>
      <trkpt lat="47.82731" lon="-2.40662">
        <ele>23.6</ele>
        <time>2021-08-07T11:46:35Z</time>
      </trkpt>
      <trkpt lat="47.82733" lon="-2.40666">
        <ele>23.6</ele>
        <time>2021-08-07T11:46:36Z</time>
      </trkpt>
      <trkpt lat="47.82736" lon="-2.4067">
        <ele>23.6</ele>
        <time>2021-08-07T11:46:37Z</time>
      </trkpt>
      <trkpt lat="47.82739" lon="-2.40675">
        <ele>23.6</ele>
        <time>2021-08-07T11:46:38Z</time>
      </trkpt>
      <trkpt lat="47.82742" lon="-2.4068">
        <ele>23.6</ele>
        <time>2021-08-07T11:46:39Z</time>
      </trkpt>
      <trkpt lat="47.82745" lon="-2.40684">
        <ele>23.6</ele>
        <time>2021-08-07T11:46:40Z</time>
      </trkpt>
      <trkpt lat="47.82748" lon="-2.40689">
        <ele>23.6</ele>
        <time>2021-08-07T11:46:41Z</time>
      </trkpt>
      <trkpt lat="47.82751" lon="-2.40694">
        <ele>23.6</ele>
        <time>2021-08-07T11:46:42Z</time>
      </trkpt>
      <trkpt lat="47.82758" lon="-2.40704">
        <ele>23.4</ele>
        <time>2021-08-07T11:46:44Z</time>
      </trkpt>
      <trkpt lat="47.82761" lon="-2.40709">
        <ele>23.4</ele>
        <time>2021-08-07T11:46:45Z</time>
      </trkpt>
      <trkpt lat="47.82764" lon="-2.40715">
        <ele>23.4</ele>
        <time>2021-08-07T11:46:46Z</time>
      </trkpt>
      <trkpt lat="47.82767" lon="-2.4072">
        <ele>23.2</ele>
        <time>2021-08-07T11:46:47Z</time>
      </trkpt>
      <trkpt lat="47.82771" lon="-2.40724">
        <ele>23</ele>
        <time>2021-08-07T11:46:48Z</time>
      </trkpt>
      <trkpt lat="47.82774" lon="-2.40728">
        <ele>23</ele>
        <time>2021-08-07T11:46:49Z</time>
      </trkpt>
      <trkpt lat="47.82777" lon="-2.40732">
        <ele>23</ele>
        <time>2021-08-07T11:46:50Z</time>
      </trkpt>
      <trkpt lat="47.8278" lon="-2.40736">
        <ele>23</ele>
        <time>2021-08-07T11:46:51Z</time>
      </trkpt>
      <trkpt lat="47.82782" lon="-2.4074">
        <ele>23</ele>
        <time>2021-08-07T11:46:52Z</time>
      </trkpt>
      <trkpt lat="47.82788" lon="-2.40747">
        <ele>22.8</ele>
        <time>2021-08-07T11:46:54Z</time>
      </trkpt>
      <trkpt lat="47.8279" lon="-2.40751">
        <ele>22.6</ele>
        <time>2021-08-07T11:46:55Z</time>
      </trkpt>
      <trkpt lat="47.82793" lon="-2.40755">
        <ele>22.6</ele>
        <time>2021-08-07T11:46:56Z</time>
      </trkpt>
      <trkpt lat="47.82796" lon="-2.40759">
        <ele>22.6</ele>
        <time>2021-08-07T11:46:57Z</time>
      </trkpt>
      <trkpt lat="47.82799" lon="-2.40762">
        <ele>22.6</ele>
        <time>2021-08-07T11:46:58Z</time>
      </trkpt>
      <trkpt lat="47.82802" lon="-2.40767">
        <ele>22.6</ele>
        <time>2021-08-07T11:46:59Z</time>
      </trkpt>
      <trkpt lat="47.82805" lon="-2.40772">
        <ele>22.8</ele>
        <time>2021-08-07T11:47:00Z</time>
      </trkpt>
      <trkpt lat="47.82809" lon="-2.40776">
        <ele>22.8</ele>
        <time>2021-08-07T11:47:01Z</time>
      </trkpt>
      <trkpt lat="47.82812" lon="-2.40781">
        <ele>23</ele>
        <time>2021-08-07T11:47:02Z</time>
      </trkpt>
      <trkpt lat="47.82819" lon="-2.40789">
        <ele>23</ele>
        <time>2021-08-07T11:47:04Z</time>
      </trkpt>
      <trkpt lat="47.82822" lon="-2.40794">
        <ele>23.2</ele>
        <time>2021-08-07T11:47:05Z</time>
      </trkpt>
      <trkpt lat="47.82825" lon="-2.40798">
        <ele>23.2</ele>
        <time>2021-08-07T11:47:06Z</time>
      </trkpt>
      <trkpt lat="47.82829" lon="-2.40803">
        <ele>23.2</ele>
        <time>2021-08-07T11:47:07Z</time>
      </trkpt>
      <trkpt lat="47.82833" lon="-2.40807">
        <ele>23.2</ele>
        <time>2021-08-07T11:47:08Z</time>
      </trkpt>
      <trkpt lat="47.82836" lon="-2.40811">
        <ele>23.2</ele>
        <time>2021-08-07T11:47:09Z</time>
      </trkpt>
      <trkpt lat="47.8284" lon="-2.40816">
        <ele>23.2</ele>
        <time>2021-08-07T11:47:10Z</time>
      </trkpt>
      <trkpt lat="47.82843" lon="-2.4082">
        <ele>23.2</ele>
        <time>2021-08-07T11:47:11Z</time>
      </trkpt>
      <trkpt lat="47.82846" lon="-2.40824">
        <ele>23.2</ele>
        <time>2021-08-07T11:47:12Z</time>
      </trkpt>
      <trkpt lat="47.82852" lon="-2.40831">
        <ele>23.2</ele>
        <time>2021-08-07T11:47:14Z</time>
      </trkpt>
      <trkpt lat="47.82856" lon="-2.40835">
        <ele>23.4</ele>
        <time>2021-08-07T11:47:15Z</time>
      </trkpt>
      <trkpt lat="47.82859" lon="-2.40838">
        <ele>23.4</ele>
        <time>2021-08-07T11:47:16Z</time>
      </trkpt>
      <trkpt lat="47.82862" lon="-2.40842">
        <ele>23.4</ele>
        <time>2021-08-07T11:47:17Z</time>
      </trkpt>
      <trkpt lat="47.82865" lon="-2.40845">
        <ele>23.4</ele>
        <time>2021-08-07T11:47:18Z</time>
      </trkpt>
      <trkpt lat="47.82868" lon="-2.40848">
        <ele>23.4</ele>
        <time>2021-08-07T11:47:19Z</time>
      </trkpt>
      <trkpt lat="47.8287" lon="-2.40852">
        <ele>23.4</ele>
        <time>2021-08-07T11:47:20Z</time>
      </trkpt>
      <trkpt lat="47.82873" lon="-2.40855">
        <ele>23.4</ele>
        <time>2021-08-07T11:47:21Z</time>
      </trkpt>
      <trkpt lat="47.82877" lon="-2.40858">
        <ele>23.4</ele>
        <time>2021-08-07T11:47:22Z</time>
      </trkpt>
      <trkpt lat="47.8288" lon="-2.40861">
        <ele>23.4</ele>
        <time>2021-08-07T11:47:23Z</time>
      </trkpt>
      <trkpt lat="47.82883" lon="-2.40865">
        <ele>23.4</ele>
        <time>2021-08-07T11:47:24Z</time>
      </trkpt>
      <trkpt lat="47.82885" lon="-2.40868">
        <ele>23.4</ele>
        <time>2021-08-07T11:47:25Z</time>
      </trkpt>
      <trkpt lat="47.82888" lon="-2.40871">
        <ele>23.6</ele>
        <time>2021-08-07T11:47:26Z</time>
      </trkpt>
      <trkpt lat="47.82891" lon="-2.40874">
        <ele>23.6</ele>
        <time>2021-08-07T11:47:27Z</time>
      </trkpt>
      <trkpt lat="47.82894" lon="-2.40877">
        <ele>23.6</ele>
        <time>2021-08-07T11:47:28Z</time>
      </trkpt>
      <trkpt lat="47.82897" lon="-2.40879">
        <ele>23.6</ele>
        <time>2021-08-07T11:47:29Z</time>
      </trkpt>
      <trkpt lat="47.829" lon="-2.40882">
        <ele>23.8</ele>
        <time>2021-08-07T11:47:30Z</time>
      </trkpt>
      <trkpt lat="47.82902" lon="-2.40885">
        <ele>23.8</ele>
        <time>2021-08-07T11:47:31Z</time>
      </trkpt>
      <trkpt lat="47.82905" lon="-2.40888">
        <ele>23.8</ele>
        <time>2021-08-07T11:47:32Z</time>
      </trkpt>
      <trkpt lat="47.8291" lon="-2.40896">
        <ele>24</ele>
        <time>2021-08-07T11:47:34Z</time>
      </trkpt>
      <trkpt lat="47.82913" lon="-2.40899">
        <ele>24</ele>
        <time>2021-08-07T11:47:35Z</time>
      </trkpt>
      <trkpt lat="47.82916" lon="-2.40903">
        <ele>24</ele>
        <time>2021-08-07T11:47:36Z</time>
      </trkpt>
      <trkpt lat="47.82918" lon="-2.40906">
        <ele>24</ele>
        <time>2021-08-07T11:47:37Z</time>
      </trkpt>
      <trkpt lat="47.82921" lon="-2.40908">
        <ele>24.2</ele>
        <time>2021-08-07T11:47:38Z</time>
      </trkpt>
      <trkpt lat="47.82924" lon="-2.40911">
        <ele>24.2</ele>
        <time>2021-08-07T11:47:39Z</time>
      </trkpt>
      <trkpt lat="47.82926" lon="-2.40914">
        <ele>24.2</ele>
        <time>2021-08-07T11:47:40Z</time>
      </trkpt>
      <trkpt lat="47.82929" lon="-2.40916">
        <ele>24.2</ele>
        <time>2021-08-07T11:47:41Z</time>
      </trkpt>
      <trkpt lat="47.82931" lon="-2.40918">
        <ele>24.2</ele>
        <time>2021-08-07T11:47:42Z</time>
      </trkpt>
      <trkpt lat="47.82934" lon="-2.40921">
        <ele>24.4</ele>
        <time>2021-08-07T11:47:44Z</time>
      </trkpt>
      <trkpt lat="47.82935" lon="-2.40922">
        <ele>24.4</ele>
        <time>2021-08-07T11:47:45Z</time>
      </trkpt>
      <trkpt lat="47.82935" lon="-2.40923">
        <ele>24.6</ele>
        <time>2021-08-07T11:47:46Z</time>
      </trkpt>
      <trkpt lat="47.82936" lon="-2.40923">
        <ele>25.6</ele>
        <time>2021-08-07T11:48:31Z</time>
      </trkpt>
      <trkpt lat="47.82936" lon="-2.40924">
        <ele>25.6</ele>
        <time>2021-08-07T11:48:32Z</time>
      </trkpt>
      <trkpt lat="47.82937" lon="-2.40924">
        <ele>25.6</ele>
        <time>2021-08-07T11:48:33Z</time>
      </trkpt>
      <trkpt lat="47.82938" lon="-2.40925">
        <ele>25.6</ele>
        <time>2021-08-07T11:48:34Z</time>
      </trkpt>
      <trkpt lat="47.82939" lon="-2.40926">
        <ele>25.6</ele>
        <time>2021-08-07T11:48:35Z</time>
      </trkpt>
      <trkpt lat="47.8294" lon="-2.40928">
        <ele>25.8</ele>
        <time>2021-08-07T11:48:36Z</time>
      </trkpt>
      <trkpt lat="47.82942" lon="-2.4093">
        <ele>25.8</ele>
        <time>2021-08-07T11:48:37Z</time>
      </trkpt>
      <trkpt lat="47.82949" lon="-2.40934">
        <ele>25.8</ele>
        <time>2021-08-07T11:48:39Z</time>
      </trkpt>
      <trkpt lat="47.82952" lon="-2.40937">
        <ele>25.8</ele>
        <time>2021-08-07T11:48:40Z</time>
      </trkpt>
      <trkpt lat="47.82956" lon="-2.40941">
        <ele>25.8</ele>
        <time>2021-08-07T11:48:41Z</time>
      </trkpt>
      <trkpt lat="47.82961" lon="-2.40945">
        <ele>25.8</ele>
        <time>2021-08-07T11:48:42Z</time>
      </trkpt>
      <trkpt lat="47.82965" lon="-2.4095">
        <ele>25.8</ele>
        <time>2021-08-07T11:48:43Z</time>
      </trkpt>
      <trkpt lat="47.82968" lon="-2.40955">
        <ele>25.6</ele>
        <time>2021-08-07T11:48:44Z</time>
      </trkpt>
      <trkpt lat="47.82972" lon="-2.4096">
        <ele>25.6</ele>
        <time>2021-08-07T11:48:45Z</time>
      </trkpt>
      <trkpt lat="47.82976" lon="-2.40965">
        <ele>25.6</ele>
        <time>2021-08-07T11:48:46Z</time>
      </trkpt>
      <trkpt lat="47.82984" lon="-2.40973">
        <ele>25.2</ele>
        <time>2021-08-07T11:48:48Z</time>
      </trkpt>
      <trkpt lat="47.82988" lon="-2.40976">
        <ele>24.8</ele>
        <time>2021-08-07T11:48:49Z</time>
      </trkpt>
      <trkpt lat="47.82992" lon="-2.40978">
        <ele>24.4</ele>
        <time>2021-08-07T11:48:50Z</time>
      </trkpt>
      <trkpt lat="47.82997" lon="-2.40981">
        <ele>24.2</ele>
        <time>2021-08-07T11:48:51Z</time>
      </trkpt>
      <trkpt lat="47.83001" lon="-2.40984">
        <ele>24</ele>
        <time>2021-08-07T11:48:52Z</time>
      </trkpt>
      <trkpt lat="47.83004" lon="-2.40988">
        <ele>23.8</ele>
        <time>2021-08-07T11:48:53Z</time>
      </trkpt>
      <trkpt lat="47.83008" lon="-2.40992">
        <ele>23.8</ele>
        <time>2021-08-07T11:48:54Z</time>
      </trkpt>
      <trkpt lat="47.83012" lon="-2.40996">
        <ele>23.8</ele>
        <time>2021-08-07T11:48:55Z</time>
      </trkpt>
      <trkpt lat="47.83016" lon="-2.41">
        <ele>23.6</ele>
        <time>2021-08-07T11:48:56Z</time>
      </trkpt>
      <trkpt lat="47.83021" lon="-2.41005">
        <ele>23.6</ele>
        <time>2021-08-07T11:48:57Z</time>
      </trkpt>
      <trkpt lat="47.8303" lon="-2.41013">
        <ele>23.6</ele>
        <time>2021-08-07T11:48:59Z</time>
      </trkpt>
      <trkpt lat="47.83035" lon="-2.41017">
        <ele>23.6</ele>
        <time>2021-08-07T11:49:00Z</time>
      </trkpt>
      <trkpt lat="47.83039" lon="-2.41022">
        <ele>23.6</ele>
        <time>2021-08-07T11:49:01Z</time>
      </trkpt>
      <trkpt lat="47.83043" lon="-2.41026">
        <ele>23.4</ele>
        <time>2021-08-07T11:49:02Z</time>
      </trkpt>
      <trkpt lat="47.83048" lon="-2.4103">
        <ele>23.4</ele>
        <time>2021-08-07T11:49:03Z</time>
      </trkpt>
      <trkpt lat="47.83052" lon="-2.41033">
        <ele>23.4</ele>
        <time>2021-08-07T11:49:04Z</time>
      </trkpt>
      <trkpt lat="47.83056" lon="-2.41037">
        <ele>23.4</ele>
        <time>2021-08-07T11:49:05Z</time>
      </trkpt>
      <trkpt lat="47.8306" lon="-2.41042">
        <ele>23.4</ele>
        <time>2021-08-07T11:49:06Z</time>
      </trkpt>
      <trkpt lat="47.83064" lon="-2.41046">
        <ele>23.2</ele>
        <time>2021-08-07T11:49:07Z</time>
      </trkpt>
      <trkpt lat="47.83068" lon="-2.4105">
        <ele>23.2</ele>
        <time>2021-08-07T11:49:08Z</time>
      </trkpt>
      <trkpt lat="47.83077" lon="-2.41058">
        <ele>23.2</ele>
        <time>2021-08-07T11:49:10Z</time>
      </trkpt>
      <trkpt lat="47.83081" lon="-2.41062">
        <ele>23.2</ele>
        <time>2021-08-07T11:49:11Z</time>
      </trkpt>
      <trkpt lat="47.83084" lon="-2.41067">
        <ele>23.2</ele>
        <time>2021-08-07T11:49:12Z</time>
      </trkpt>
      <trkpt lat="47.83088" lon="-2.41071">
        <ele>23.2</ele>
        <time>2021-08-07T11:49:13Z</time>
      </trkpt>
      <trkpt lat="47.83091" lon="-2.41074">
        <ele>23.2</ele>
        <time>2021-08-07T11:49:14Z</time>
      </trkpt>
      <trkpt lat="47.83093" lon="-2.41078">
        <ele>23.2</ele>
        <time>2021-08-07T11:49:15Z</time>
      </trkpt>
      <trkpt lat="47.83096" lon="-2.41081">
        <ele>23.2</ele>
        <time>2021-08-07T11:49:16Z</time>
      </trkpt>
      <trkpt lat="47.83098" lon="-2.41085">
        <ele>23.2</ele>
        <time>2021-08-07T11:49:17Z</time>
      </trkpt>
      <trkpt lat="47.831" lon="-2.41088">
        <ele>23</ele>
        <time>2021-08-07T11:49:18Z</time>
      </trkpt>
      <trkpt lat="47.83106" lon="-2.41096">
        <ele>23</ele>
        <time>2021-08-07T11:49:20Z</time>
      </trkpt>
      <trkpt lat="47.83108" lon="-2.411">
        <ele>22.8</ele>
        <time>2021-08-07T11:49:21Z</time>
      </trkpt>
      <trkpt lat="47.83112" lon="-2.41105">
        <ele>22.8</ele>
        <time>2021-08-07T11:49:22Z</time>
      </trkpt>
      <trkpt lat="47.83115" lon="-2.4111">
        <ele>22.8</ele>
        <time>2021-08-07T11:49:23Z</time>
      </trkpt>
      <trkpt lat="47.83118" lon="-2.41115">
        <ele>22.8</ele>
        <time>2021-08-07T11:49:24Z</time>
      </trkpt>
      <trkpt lat="47.83121" lon="-2.41119">
        <ele>22.8</ele>
        <time>2021-08-07T11:49:25Z</time>
      </trkpt>
      <trkpt lat="47.83125" lon="-2.41124">
        <ele>22.8</ele>
        <time>2021-08-07T11:49:26Z</time>
      </trkpt>
      <trkpt lat="47.83128" lon="-2.41129">
        <ele>22.8</ele>
        <time>2021-08-07T11:49:27Z</time>
      </trkpt>
      <trkpt lat="47.83132" lon="-2.41133">
        <ele>22.8</ele>
        <time>2021-08-07T11:49:28Z</time>
      </trkpt>
      <trkpt lat="47.83135" lon="-2.41137">
        <ele>22.8</ele>
        <time>2021-08-07T11:49:29Z</time>
      </trkpt>
      <trkpt lat="47.83143" lon="-2.41145">
        <ele>22.8</ele>
        <time>2021-08-07T11:49:31Z</time>
      </trkpt>
      <trkpt lat="47.83147" lon="-2.4115">
        <ele>22.8</ele>
        <time>2021-08-07T11:49:32Z</time>
      </trkpt>
      <trkpt lat="47.83151" lon="-2.41154">
        <ele>22.8</ele>
        <time>2021-08-07T11:49:33Z</time>
      </trkpt>
      <trkpt lat="47.83155" lon="-2.41159">
        <ele>22.8</ele>
        <time>2021-08-07T11:49:34Z</time>
      </trkpt>
      <trkpt lat="47.83159" lon="-2.41163">
        <ele>22.8</ele>
        <time>2021-08-07T11:49:35Z</time>
      </trkpt>
      <trkpt lat="47.83163" lon="-2.41168">
        <ele>22.8</ele>
        <time>2021-08-07T11:49:36Z</time>
      </trkpt>
      <trkpt lat="47.83168" lon="-2.41172">
        <ele>23</ele>
        <time>2021-08-07T11:49:37Z</time>
      </trkpt>
      <trkpt lat="47.83173" lon="-2.41176">
        <ele>23.2</ele>
        <time>2021-08-07T11:49:38Z</time>
      </trkpt>
      <trkpt lat="47.83177" lon="-2.4118">
        <ele>23.4</ele>
        <time>2021-08-07T11:49:39Z</time>
      </trkpt>
      <trkpt lat="47.83182" lon="-2.41184">
        <ele>23.6</ele>
        <time>2021-08-07T11:49:40Z</time>
      </trkpt>
      <trkpt lat="47.83191" lon="-2.41191">
        <ele>23.8</ele>
        <time>2021-08-07T11:49:42Z</time>
      </trkpt>
      <trkpt lat="47.83195" lon="-2.41195">
        <ele>23.8</ele>
        <time>2021-08-07T11:49:43Z</time>
      </trkpt>
      <trkpt lat="47.83199" lon="-2.41198">
        <ele>23.8</ele>
        <time>2021-08-07T11:49:44Z</time>
      </trkpt>
      <trkpt lat="47.83204" lon="-2.41201">
        <ele>24</ele>
        <time>2021-08-07T11:49:45Z</time>
      </trkpt>
      <trkpt lat="47.83208" lon="-2.41204">
        <ele>24</ele>
        <time>2021-08-07T11:49:46Z</time>
      </trkpt>
      <trkpt lat="47.83212" lon="-2.41207">
        <ele>24</ele>
        <time>2021-08-07T11:49:47Z</time>
      </trkpt>
      <trkpt lat="47.83216" lon="-2.41211">
        <ele>24</ele>
        <time>2021-08-07T11:49:48Z</time>
      </trkpt>
      <trkpt lat="47.8322" lon="-2.41214">
        <ele>23.8</ele>
        <time>2021-08-07T11:49:49Z</time>
      </trkpt>
      <trkpt lat="47.83224" lon="-2.41217">
        <ele>23.8</ele>
        <time>2021-08-07T11:49:50Z</time>
      </trkpt>
      <trkpt lat="47.83228" lon="-2.4122">
        <ele>23.8</ele>
        <time>2021-08-07T11:49:51Z</time>
      </trkpt>
      <trkpt lat="47.83232" lon="-2.41224">
        <ele>23.8</ele>
        <time>2021-08-07T11:49:52Z</time>
      </trkpt>
      <trkpt lat="47.83237" lon="-2.41228">
        <ele>23.8</ele>
        <time>2021-08-07T11:49:53Z</time>
      </trkpt>
      <trkpt lat="47.83241" lon="-2.41232">
        <ele>23.8</ele>
        <time>2021-08-07T11:49:54Z</time>
      </trkpt>
      <trkpt lat="47.83246" lon="-2.41235">
        <ele>23.8</ele>
        <time>2021-08-07T11:49:55Z</time>
      </trkpt>
      <trkpt lat="47.8325" lon="-2.41239">
        <ele>23.6</ele>
        <time>2021-08-07T11:49:56Z</time>
      </trkpt>
      <trkpt lat="47.83254" lon="-2.41242">
        <ele>23.6</ele>
        <time>2021-08-07T11:49:57Z</time>
      </trkpt>
      <trkpt lat="47.83258" lon="-2.41246">
        <ele>23.4</ele>
        <time>2021-08-07T11:49:58Z</time>
      </trkpt>
      <trkpt lat="47.83261" lon="-2.41249">
        <ele>23.4</ele>
        <time>2021-08-07T11:49:59Z</time>
      </trkpt>
      <trkpt lat="47.83265" lon="-2.41253">
        <ele>23.2</ele>
        <time>2021-08-07T11:50:00Z</time>
      </trkpt>
      <trkpt lat="47.83269" lon="-2.41258">
        <ele>23.2</ele>
        <time>2021-08-07T11:50:01Z</time>
      </trkpt>
      <trkpt lat="47.83276" lon="-2.41267">
        <ele>23.2</ele>
        <time>2021-08-07T11:50:03Z</time>
      </trkpt>
      <trkpt lat="47.8328" lon="-2.41271">
        <ele>23</ele>
        <time>2021-08-07T11:50:04Z</time>
      </trkpt>
      <trkpt lat="47.83284" lon="-2.41275">
        <ele>23</ele>
        <time>2021-08-07T11:50:05Z</time>
      </trkpt>
      <trkpt lat="47.83288" lon="-2.4128">
        <ele>22.8</ele>
        <time>2021-08-07T11:50:06Z</time>
      </trkpt>
      <trkpt lat="47.83291" lon="-2.41283">
        <ele>22.8</ele>
        <time>2021-08-07T11:50:07Z</time>
      </trkpt>
      <trkpt lat="47.83294" lon="-2.41287">
        <ele>22.8</ele>
        <time>2021-08-07T11:50:08Z</time>
      </trkpt>
      <trkpt lat="47.83298" lon="-2.41291">
        <ele>22.6</ele>
        <time>2021-08-07T11:50:09Z</time>
      </trkpt>
      <trkpt lat="47.833" lon="-2.41295">
        <ele>22.6</ele>
        <time>2021-08-07T11:50:10Z</time>
      </trkpt>
      <trkpt lat="47.83303" lon="-2.41299">
        <ele>22.6</ele>
        <time>2021-08-07T11:50:11Z</time>
      </trkpt>
      <trkpt lat="47.83309" lon="-2.41307">
        <ele>22.4</ele>
        <time>2021-08-07T11:50:13Z</time>
      </trkpt>
      <trkpt lat="47.83312" lon="-2.41311">
        <ele>22.4</ele>
        <time>2021-08-07T11:50:14Z</time>
      </trkpt>
      <trkpt lat="47.83314" lon="-2.41315">
        <ele>22.4</ele>
        <time>2021-08-07T11:50:15Z</time>
      </trkpt>
      <trkpt lat="47.83317" lon="-2.4132">
        <ele>22.4</ele>
        <time>2021-08-07T11:50:16Z</time>
      </trkpt>
      <trkpt lat="47.8332" lon="-2.41326">
        <ele>22.4</ele>
        <time>2021-08-07T11:50:17Z</time>
      </trkpt>
      <trkpt lat="47.83323" lon="-2.41331">
        <ele>22.4</ele>
        <time>2021-08-07T11:50:18Z</time>
      </trkpt>
      <trkpt lat="47.83326" lon="-2.41336">
        <ele>22.4</ele>
        <time>2021-08-07T11:50:19Z</time>
      </trkpt>
      <trkpt lat="47.8333" lon="-2.41341">
        <ele>22.4</ele>
        <time>2021-08-07T11:50:20Z</time>
      </trkpt>
      <trkpt lat="47.83333" lon="-2.41346">
        <ele>22.4</ele>
        <time>2021-08-07T11:50:21Z</time>
      </trkpt>
      <trkpt lat="47.83336" lon="-2.4135">
        <ele>22.4</ele>
        <time>2021-08-07T11:50:22Z</time>
      </trkpt>
      <trkpt lat="47.83338" lon="-2.41354">
        <ele>22.4</ele>
        <time>2021-08-07T11:50:23Z</time>
      </trkpt>
      <trkpt lat="47.83341" lon="-2.41359">
        <ele>22.4</ele>
        <time>2021-08-07T11:50:24Z</time>
      </trkpt>
      <trkpt lat="47.83345" lon="-2.41365">
        <ele>22.4</ele>
        <time>2021-08-07T11:50:25Z</time>
      </trkpt>
      <trkpt lat="47.83348" lon="-2.4137">
        <ele>22.4</ele>
        <time>2021-08-07T11:50:26Z</time>
      </trkpt>
      <trkpt lat="47.83351" lon="-2.41375">
        <ele>22.4</ele>
        <time>2021-08-07T11:50:27Z</time>
      </trkpt>
      <trkpt lat="47.83354" lon="-2.41379">
        <ele>22.4</ele>
        <time>2021-08-07T11:50:28Z</time>
      </trkpt>
      <trkpt lat="47.83357" lon="-2.41384">
        <ele>22.4</ele>
        <time>2021-08-07T11:50:29Z</time>
      </trkpt>
      <trkpt lat="47.8336" lon="-2.41389">
        <ele>22.4</ele>
        <time>2021-08-07T11:50:30Z</time>
      </trkpt>
      <trkpt lat="47.83363" lon="-2.41395">
        <ele>22.6</ele>
        <time>2021-08-07T11:50:31Z</time>
      </trkpt>
      <trkpt lat="47.83366" lon="-2.414">
        <ele>22.6</ele>
        <time>2021-08-07T11:50:32Z</time>
      </trkpt>
      <trkpt lat="47.83371" lon="-2.4141">
        <ele>22.8</ele>
        <time>2021-08-07T11:50:34Z</time>
      </trkpt>
      <trkpt lat="47.83373" lon="-2.41414">
        <ele>23</ele>
        <time>2021-08-07T11:50:35Z</time>
      </trkpt>
      <trkpt lat="47.83375" lon="-2.41419">
        <ele>23</ele>
        <time>2021-08-07T11:50:36Z</time>
      </trkpt>
      <trkpt lat="47.83377" lon="-2.41423">
        <ele>23</ele>
        <time>2021-08-07T11:50:37Z</time>
      </trkpt>
      <trkpt lat="47.8338" lon="-2.41427">
        <ele>23</ele>
        <time>2021-08-07T11:50:38Z</time>
      </trkpt>
      <trkpt lat="47.83383" lon="-2.41432">
        <ele>23</ele>
        <time>2021-08-07T11:50:39Z</time>
      </trkpt>
      <trkpt lat="47.83386" lon="-2.41437">
        <ele>23</ele>
        <time>2021-08-07T11:50:40Z</time>
      </trkpt>
      <trkpt lat="47.83389" lon="-2.41441">
        <ele>23</ele>
        <time>2021-08-07T11:50:41Z</time>
      </trkpt>
      <trkpt lat="47.83391" lon="-2.41445">
        <ele>23</ele>
        <time>2021-08-07T11:50:42Z</time>
      </trkpt>
      <trkpt lat="47.83397" lon="-2.41453">
        <ele>23</ele>
        <time>2021-08-07T11:50:44Z</time>
      </trkpt>
      <trkpt lat="47.83401" lon="-2.41458">
        <ele>23</ele>
        <time>2021-08-07T11:50:45Z</time>
      </trkpt>
      <trkpt lat="47.83404" lon="-2.41462">
        <ele>23</ele>
        <time>2021-08-07T11:50:46Z</time>
      </trkpt>
      <trkpt lat="47.83407" lon="-2.41466">
        <ele>23</ele>
        <time>2021-08-07T11:50:47Z</time>
      </trkpt>
      <trkpt lat="47.83411" lon="-2.41471">
        <ele>23</ele>
        <time>2021-08-07T11:50:48Z</time>
      </trkpt>
      <trkpt lat="47.83414" lon="-2.41475">
        <ele>23</ele>
        <time>2021-08-07T11:50:49Z</time>
      </trkpt>
      <trkpt lat="47.83418" lon="-2.4148">
        <ele>23</ele>
        <time>2021-08-07T11:50:50Z</time>
      </trkpt>
      <trkpt lat="47.83421" lon="-2.41484">
        <ele>23</ele>
        <time>2021-08-07T11:50:51Z</time>
      </trkpt>
      <trkpt lat="47.83424" lon="-2.41489">
        <ele>23</ele>
        <time>2021-08-07T11:50:52Z</time>
      </trkpt>
      <trkpt lat="47.83431" lon="-2.41497">
        <ele>23</ele>
        <time>2021-08-07T11:50:54Z</time>
      </trkpt>
      <trkpt lat="47.83434" lon="-2.415">
        <ele>23</ele>
        <time>2021-08-07T11:50:55Z</time>
      </trkpt>
      <trkpt lat="47.83436" lon="-2.41504">
        <ele>23</ele>
        <time>2021-08-07T11:50:56Z</time>
      </trkpt>
      <trkpt lat="47.83439" lon="-2.41508">
        <ele>23</ele>
        <time>2021-08-07T11:50:57Z</time>
      </trkpt>
      <trkpt lat="47.83442" lon="-2.41512">
        <ele>23</ele>
        <time>2021-08-07T11:50:58Z</time>
      </trkpt>
      <trkpt lat="47.83445" lon="-2.41517">
        <ele>23</ele>
        <time>2021-08-07T11:50:59Z</time>
      </trkpt>
      <trkpt lat="47.83448" lon="-2.41522">
        <ele>22.8</ele>
        <time>2021-08-07T11:51:00Z</time>
      </trkpt>
      <trkpt lat="47.83451" lon="-2.41527">
        <ele>22.8</ele>
        <time>2021-08-07T11:51:01Z</time>
      </trkpt>
      <trkpt lat="47.83453" lon="-2.41532">
        <ele>22.8</ele>
        <time>2021-08-07T11:51:02Z</time>
      </trkpt>
      <trkpt lat="47.83456" lon="-2.41537">
        <ele>22.8</ele>
        <time>2021-08-07T11:51:03Z</time>
      </trkpt>
      <trkpt lat="47.83462" lon="-2.41547">
        <ele>22.8</ele>
        <time>2021-08-07T11:51:05Z</time>
      </trkpt>
      <trkpt lat="47.83465" lon="-2.41553">
        <ele>22.8</ele>
        <time>2021-08-07T11:51:06Z</time>
      </trkpt>
      <trkpt lat="47.83468" lon="-2.41559">
        <ele>22.8</ele>
        <time>2021-08-07T11:51:07Z</time>
      </trkpt>
      <trkpt lat="47.83471" lon="-2.41564">
        <ele>22.8</ele>
        <time>2021-08-07T11:51:08Z</time>
      </trkpt>
      <trkpt lat="47.83474" lon="-2.41571">
        <ele>22.8</ele>
        <time>2021-08-07T11:51:09Z</time>
      </trkpt>
      <trkpt lat="47.83477" lon="-2.41576">
        <ele>22.8</ele>
        <time>2021-08-07T11:51:10Z</time>
      </trkpt>
      <trkpt lat="47.8348" lon="-2.41581">
        <ele>22.8</ele>
        <time>2021-08-07T11:51:11Z</time>
      </trkpt>
      <trkpt lat="47.83484" lon="-2.41587">
        <ele>22.8</ele>
        <time>2021-08-07T11:51:12Z</time>
      </trkpt>
      <trkpt lat="47.83488" lon="-2.41592">
        <ele>22.8</ele>
        <time>2021-08-07T11:51:13Z</time>
      </trkpt>
      <trkpt lat="47.83491" lon="-2.41597">
        <ele>22.8</ele>
        <time>2021-08-07T11:51:14Z</time>
      </trkpt>
      <trkpt lat="47.83499" lon="-2.41608">
        <ele>22.8</ele>
        <time>2021-08-07T11:51:16Z</time>
      </trkpt>
      <trkpt lat="47.83502" lon="-2.41612">
        <ele>22.8</ele>
        <time>2021-08-07T11:51:17Z</time>
      </trkpt>
      <trkpt lat="47.83506" lon="-2.41617">
        <ele>22.8</ele>
        <time>2021-08-07T11:51:18Z</time>
      </trkpt>
      <trkpt lat="47.8351" lon="-2.41621">
        <ele>23</ele>
        <time>2021-08-07T11:51:19Z</time>
      </trkpt>
      <trkpt lat="47.83514" lon="-2.41625">
        <ele>23</ele>
        <time>2021-08-07T11:51:20Z</time>
      </trkpt>
      <trkpt lat="47.83518" lon="-2.41629">
        <ele>23</ele>
        <time>2021-08-07T11:51:21Z</time>
      </trkpt>
      <trkpt lat="47.83522" lon="-2.41633">
        <ele>23</ele>
        <time>2021-08-07T11:51:22Z</time>
      </trkpt>
      <trkpt lat="47.83527" lon="-2.41637">
        <ele>23.2</ele>
        <time>2021-08-07T11:51:23Z</time>
      </trkpt>
      <trkpt lat="47.83531" lon="-2.4164">
        <ele>23.2</ele>
        <time>2021-08-07T11:51:24Z</time>
      </trkpt>
      <trkpt lat="47.83536" lon="-2.41643">
        <ele>23.2</ele>
        <time>2021-08-07T11:51:25Z</time>
      </trkpt>
      <trkpt lat="47.83544" lon="-2.41647">
        <ele>23.2</ele>
        <time>2021-08-07T11:51:27Z</time>
      </trkpt>
      <trkpt lat="47.83549" lon="-2.41648">
        <ele>23.2</ele>
        <time>2021-08-07T11:51:28Z</time>
      </trkpt>
      <trkpt lat="47.83554" lon="-2.4165">
        <ele>23.2</ele>
        <time>2021-08-07T11:51:29Z</time>
      </trkpt>
      <trkpt lat="47.83559" lon="-2.41652">
        <ele>23.2</ele>
        <time>2021-08-07T11:51:30Z</time>
      </trkpt>
      <trkpt lat="47.83563" lon="-2.41654">
        <ele>23.2</ele>
        <time>2021-08-07T11:51:31Z</time>
      </trkpt>
      <trkpt lat="47.83568" lon="-2.41656">
        <ele>23.2</ele>
        <time>2021-08-07T11:51:32Z</time>
      </trkpt>
      <trkpt lat="47.83574" lon="-2.41658">
        <ele>23.2</ele>
        <time>2021-08-07T11:51:33Z</time>
      </trkpt>
      <trkpt lat="47.83578" lon="-2.41661">
        <ele>23.2</ele>
        <time>2021-08-07T11:51:34Z</time>
      </trkpt>
      <trkpt lat="47.83583" lon="-2.41664">
        <ele>23.2</ele>
        <time>2021-08-07T11:51:35Z</time>
      </trkpt>
      <trkpt lat="47.83588" lon="-2.41667">
        <ele>23.2</ele>
        <time>2021-08-07T11:51:36Z</time>
      </trkpt>
      <trkpt lat="47.83596" lon="-2.41674">
        <ele>23</ele>
        <time>2021-08-07T11:51:38Z</time>
      </trkpt>
      <trkpt lat="47.83601" lon="-2.41677">
        <ele>23</ele>
        <time>2021-08-07T11:51:39Z</time>
      </trkpt>
      <trkpt lat="47.83605" lon="-2.4168">
        <ele>22.8</ele>
        <time>2021-08-07T11:51:40Z</time>
      </trkpt>
      <trkpt lat="47.83609" lon="-2.41684">
        <ele>22.8</ele>
        <time>2021-08-07T11:51:41Z</time>
      </trkpt>
      <trkpt lat="47.83612" lon="-2.41688">
        <ele>22.6</ele>
        <time>2021-08-07T11:51:42Z</time>
      </trkpt>
      <trkpt lat="47.83616" lon="-2.41692">
        <ele>22.6</ele>
        <time>2021-08-07T11:51:43Z</time>
      </trkpt>
      <trkpt lat="47.83619" lon="-2.41696">
        <ele>22.6</ele>
        <time>2021-08-07T11:51:44Z</time>
      </trkpt>
      <trkpt lat="47.83623" lon="-2.417">
        <ele>22.4</ele>
        <time>2021-08-07T11:51:45Z</time>
      </trkpt>
      <trkpt lat="47.83626" lon="-2.41704">
        <ele>22.4</ele>
        <time>2021-08-07T11:51:46Z</time>
      </trkpt>
      <trkpt lat="47.8363" lon="-2.41708">
        <ele>22.4</ele>
        <time>2021-08-07T11:51:47Z</time>
      </trkpt>
      <trkpt lat="47.83636" lon="-2.41715">
        <ele>22.4</ele>
        <time>2021-08-07T11:51:49Z</time>
      </trkpt>
      <trkpt lat="47.83639" lon="-2.41718">
        <ele>22.4</ele>
        <time>2021-08-07T11:51:50Z</time>
      </trkpt>
      <trkpt lat="47.83642" lon="-2.41721">
        <ele>22.4</ele>
        <time>2021-08-07T11:51:51Z</time>
      </trkpt>
      <trkpt lat="47.83646" lon="-2.41724">
        <ele>22.4</ele>
        <time>2021-08-07T11:51:52Z</time>
      </trkpt>
      <trkpt lat="47.83649" lon="-2.41728">
        <ele>22.4</ele>
        <time>2021-08-07T11:51:53Z</time>
      </trkpt>
      <trkpt lat="47.83652" lon="-2.41732">
        <ele>22.4</ele>
        <time>2021-08-07T11:51:54Z</time>
      </trkpt>
      <trkpt lat="47.83654" lon="-2.41737">
        <ele>22.4</ele>
        <time>2021-08-07T11:51:55Z</time>
      </trkpt>
      <trkpt lat="47.83657" lon="-2.41741">
        <ele>22.4</ele>
        <time>2021-08-07T11:51:56Z</time>
      </trkpt>
      <trkpt lat="47.8366" lon="-2.41746">
        <ele>22.4</ele>
        <time>2021-08-07T11:51:57Z</time>
      </trkpt>
      <trkpt lat="47.83663" lon="-2.41751">
        <ele>22.4</ele>
        <time>2021-08-07T11:51:58Z</time>
      </trkpt>
      <trkpt lat="47.8367" lon="-2.41762">
        <ele>22.6</ele>
        <time>2021-08-07T11:52:00Z</time>
      </trkpt>
      <trkpt lat="47.83673" lon="-2.41768">
        <ele>22.8</ele>
        <time>2021-08-07T11:52:01Z</time>
      </trkpt>
      <trkpt lat="47.83676" lon="-2.41774">
        <ele>22.8</ele>
        <time>2021-08-07T11:52:02Z</time>
      </trkpt>
      <trkpt lat="47.8368" lon="-2.4178">
        <ele>22.8</ele>
        <time>2021-08-07T11:52:03Z</time>
      </trkpt>
      <trkpt lat="47.83683" lon="-2.41787">
        <ele>22.8</ele>
        <time>2021-08-07T11:52:04Z</time>
      </trkpt>
      <trkpt lat="47.83686" lon="-2.41794">
        <ele>23</ele>
        <time>2021-08-07T11:52:05Z</time>
      </trkpt>
      <trkpt lat="47.83689" lon="-2.418">
        <ele>23</ele>
        <time>2021-08-07T11:52:06Z</time>
      </trkpt>
      <trkpt lat="47.83692" lon="-2.41807">
        <ele>23</ele>
        <time>2021-08-07T11:52:07Z</time>
      </trkpt>
      <trkpt lat="47.83694" lon="-2.41814">
        <ele>23</ele>
        <time>2021-08-07T11:52:08Z</time>
      </trkpt>
      <trkpt lat="47.83697" lon="-2.41822">
        <ele>23</ele>
        <time>2021-08-07T11:52:09Z</time>
      </trkpt>
      <trkpt lat="47.83701" lon="-2.41838">
        <ele>23</ele>
        <time>2021-08-07T11:52:11Z</time>
      </trkpt>
      <trkpt lat="47.83703" lon="-2.41845">
        <ele>23</ele>
        <time>2021-08-07T11:52:12Z</time>
      </trkpt>
      <trkpt lat="47.83704" lon="-2.41852">
        <ele>23</ele>
        <time>2021-08-07T11:52:13Z</time>
      </trkpt>
      <trkpt lat="47.83705" lon="-2.4186">
        <ele>23</ele>
        <time>2021-08-07T11:52:14Z</time>
      </trkpt>
      <trkpt lat="47.83706" lon="-2.41868">
        <ele>23</ele>
        <time>2021-08-07T11:52:15Z</time>
      </trkpt>
      <trkpt lat="47.83707" lon="-2.41876">
        <ele>23</ele>
        <time>2021-08-07T11:52:16Z</time>
      </trkpt>
      <trkpt lat="47.83707" lon="-2.41884">
        <ele>22.8</ele>
        <time>2021-08-07T11:52:17Z</time>
      </trkpt>
      <trkpt lat="47.83706" lon="-2.41891">
        <ele>22.8</ele>
        <time>2021-08-07T11:52:18Z</time>
      </trkpt>
      <trkpt lat="47.83705" lon="-2.41899">
        <ele>22.8</ele>
        <time>2021-08-07T11:52:19Z</time>
      </trkpt>
      <trkpt lat="47.83704" lon="-2.41906">
        <ele>22.8</ele>
        <time>2021-08-07T11:52:20Z</time>
      </trkpt>
      <trkpt lat="47.83702" lon="-2.4192">
        <ele>22.6</ele>
        <time>2021-08-07T11:52:22Z</time>
      </trkpt>
      <trkpt lat="47.83701" lon="-2.41927">
        <ele>22.6</ele>
        <time>2021-08-07T11:52:23Z</time>
      </trkpt>
      <trkpt lat="47.837" lon="-2.41933">
        <ele>22.6</ele>
        <time>2021-08-07T11:52:24Z</time>
      </trkpt>
      <trkpt lat="47.83699" lon="-2.4194">
        <ele>22.6</ele>
        <time>2021-08-07T11:52:25Z</time>
      </trkpt>
      <trkpt lat="47.83698" lon="-2.41947">
        <ele>22.4</ele>
        <time>2021-08-07T11:52:26Z</time>
      </trkpt>
      <trkpt lat="47.83697" lon="-2.41953">
        <ele>22.4</ele>
        <time>2021-08-07T11:52:27Z</time>
      </trkpt>
      <trkpt lat="47.83696" lon="-2.4196">
        <ele>22.4</ele>
        <time>2021-08-07T11:52:28Z</time>
      </trkpt>
      <trkpt lat="47.83696" lon="-2.41966">
        <ele>22.4</ele>
        <time>2021-08-07T11:52:29Z</time>
      </trkpt>
      <trkpt lat="47.83695" lon="-2.41972">
        <ele>22.6</ele>
        <time>2021-08-07T11:52:30Z</time>
      </trkpt>
      <trkpt lat="47.83695" lon="-2.41979">
        <ele>22.6</ele>
        <time>2021-08-07T11:52:31Z</time>
      </trkpt>
      <trkpt lat="47.83694" lon="-2.41991">
        <ele>23</ele>
        <time>2021-08-07T11:52:33Z</time>
      </trkpt>
      <trkpt lat="47.83693" lon="-2.41998">
        <ele>22.8</ele>
        <time>2021-08-07T11:52:34Z</time>
      </trkpt>
      <trkpt lat="47.83693" lon="-2.42004">
        <ele>22.8</ele>
        <time>2021-08-07T11:52:35Z</time>
      </trkpt>
      <trkpt lat="47.83693" lon="-2.4201">
        <ele>23</ele>
        <time>2021-08-07T11:52:36Z</time>
      </trkpt>
      <trkpt lat="47.83693" lon="-2.42015">
        <ele>23</ele>
        <time>2021-08-07T11:52:37Z</time>
      </trkpt>
      <trkpt lat="47.83693" lon="-2.4202">
        <ele>23.2</ele>
        <time>2021-08-07T11:52:38Z</time>
      </trkpt>
      <trkpt lat="47.83693" lon="-2.42025">
        <ele>23.2</ele>
        <time>2021-08-07T11:52:39Z</time>
      </trkpt>
      <trkpt lat="47.83693" lon="-2.4203">
        <ele>23.2</ele>
        <time>2021-08-07T11:52:40Z</time>
      </trkpt>
      <trkpt lat="47.83693" lon="-2.42034">
        <ele>23.2</ele>
        <time>2021-08-07T11:52:41Z</time>
      </trkpt>
      <trkpt lat="47.83693" lon="-2.42039">
        <ele>23.2</ele>
        <time>2021-08-07T11:52:42Z</time>
      </trkpt>
      <trkpt lat="47.83693" lon="-2.4205">
        <ele>23.2</ele>
        <time>2021-08-07T11:52:44Z</time>
      </trkpt>
      <trkpt lat="47.83694" lon="-2.42055">
        <ele>23.2</ele>
        <time>2021-08-07T11:52:45Z</time>
      </trkpt>
      <trkpt lat="47.83694" lon="-2.42061">
        <ele>23.2</ele>
        <time>2021-08-07T11:52:46Z</time>
      </trkpt>
      <trkpt lat="47.83694" lon="-2.42066">
        <ele>23.2</ele>
        <time>2021-08-07T11:52:47Z</time>
      </trkpt>
      <trkpt lat="47.83693" lon="-2.42072">
        <ele>23</ele>
        <time>2021-08-07T11:52:48Z</time>
      </trkpt>
      <trkpt lat="47.83694" lon="-2.42078">
        <ele>23</ele>
        <time>2021-08-07T11:52:49Z</time>
      </trkpt>
      <trkpt lat="47.83694" lon="-2.42084">
        <ele>23</ele>
        <time>2021-08-07T11:52:50Z</time>
      </trkpt>
      <trkpt lat="47.83693" lon="-2.42089">
        <ele>23</ele>
        <time>2021-08-07T11:52:51Z</time>
      </trkpt>
      <trkpt lat="47.83693" lon="-2.42095">
        <ele>23</ele>
        <time>2021-08-07T11:52:52Z</time>
      </trkpt>
      <trkpt lat="47.83693" lon="-2.421">
        <ele>23</ele>
        <time>2021-08-07T11:52:53Z</time>
      </trkpt>
      <trkpt lat="47.83693" lon="-2.42105">
        <ele>23</ele>
        <time>2021-08-07T11:52:54Z</time>
      </trkpt>
      <trkpt lat="47.83693" lon="-2.4211">
        <ele>23</ele>
        <time>2021-08-07T11:52:55Z</time>
      </trkpt>
      <trkpt lat="47.83694" lon="-2.42114">
        <ele>23</ele>
        <time>2021-08-07T11:52:56Z</time>
      </trkpt>
      <trkpt lat="47.83695" lon="-2.42119">
        <ele>23</ele>
        <time>2021-08-07T11:52:57Z</time>
      </trkpt>
      <trkpt lat="47.83695" lon="-2.42124">
        <ele>23</ele>
        <time>2021-08-07T11:52:58Z</time>
      </trkpt>
      <trkpt lat="47.83695" lon="-2.4213">
        <ele>23</ele>
        <time>2021-08-07T11:52:59Z</time>
      </trkpt>
      <trkpt lat="47.83695" lon="-2.42135">
        <ele>23</ele>
        <time>2021-08-07T11:53:00Z</time>
      </trkpt>
      <trkpt lat="47.83696" lon="-2.4214">
        <ele>23</ele>
        <time>2021-08-07T11:53:01Z</time>
      </trkpt>
      <trkpt lat="47.83696" lon="-2.42145">
        <ele>23</ele>
        <time>2021-08-07T11:53:02Z</time>
      </trkpt>
      <trkpt lat="47.83697" lon="-2.42151">
        <ele>23.2</ele>
        <time>2021-08-07T11:53:03Z</time>
      </trkpt>
      <trkpt lat="47.83698" lon="-2.42163">
        <ele>23.2</ele>
        <time>2021-08-07T11:53:05Z</time>
      </trkpt>
      <trkpt lat="47.83698" lon="-2.42169">
        <ele>23.2</ele>
        <time>2021-08-07T11:53:06Z</time>
      </trkpt>
      <trkpt lat="47.83699" lon="-2.42176">
        <ele>23.2</ele>
        <time>2021-08-07T11:53:07Z</time>
      </trkpt>
      <trkpt lat="47.83699" lon="-2.42182">
        <ele>23.2</ele>
        <time>2021-08-07T11:53:08Z</time>
      </trkpt>
      <trkpt lat="47.837" lon="-2.42189">
        <ele>23.2</ele>
        <time>2021-08-07T11:53:09Z</time>
      </trkpt>
      <trkpt lat="47.83701" lon="-2.42196">
        <ele>23.2</ele>
        <time>2021-08-07T11:53:10Z</time>
      </trkpt>
      <trkpt lat="47.83702" lon="-2.42202">
        <ele>23</ele>
        <time>2021-08-07T11:53:11Z</time>
      </trkpt>
      <trkpt lat="47.83703" lon="-2.42208">
        <ele>22.8</ele>
        <time>2021-08-07T11:53:12Z</time>
      </trkpt>
      <trkpt lat="47.83703" lon="-2.42215">
        <ele>23</ele>
        <time>2021-08-07T11:53:13Z</time>
      </trkpt>
      <trkpt lat="47.83704" lon="-2.42221">
        <ele>22.8</ele>
        <time>2021-08-07T11:53:14Z</time>
      </trkpt>
      <trkpt lat="47.83706" lon="-2.42234">
        <ele>22.8</ele>
        <time>2021-08-07T11:53:16Z</time>
      </trkpt>
      <trkpt lat="47.83707" lon="-2.42241">
        <ele>22.8</ele>
        <time>2021-08-07T11:53:17Z</time>
      </trkpt>
      <trkpt lat="47.83708" lon="-2.42248">
        <ele>22.8</ele>
        <time>2021-08-07T11:53:18Z</time>
      </trkpt>
      <trkpt lat="47.83708" lon="-2.42254">
        <ele>22.6</ele>
        <time>2021-08-07T11:53:19Z</time>
      </trkpt>
      <trkpt lat="47.83709" lon="-2.4226">
        <ele>22.6</ele>
        <time>2021-08-07T11:53:20Z</time>
      </trkpt>
      <trkpt lat="47.8371" lon="-2.42266">
        <ele>22.6</ele>
        <time>2021-08-07T11:53:21Z</time>
      </trkpt>
      <trkpt lat="47.83712" lon="-2.42272">
        <ele>22.6</ele>
        <time>2021-08-07T11:53:22Z</time>
      </trkpt>
      <trkpt lat="47.83713" lon="-2.42279">
        <ele>22.6</ele>
        <time>2021-08-07T11:53:23Z</time>
      </trkpt>
      <trkpt lat="47.83714" lon="-2.42286">
        <ele>22.6</ele>
        <time>2021-08-07T11:53:24Z</time>
      </trkpt>
      <trkpt lat="47.83716" lon="-2.42293">
        <ele>22.8</ele>
        <time>2021-08-07T11:53:25Z</time>
      </trkpt>
      <trkpt lat="47.83718" lon="-2.42307">
        <ele>22.8</ele>
        <time>2021-08-07T11:53:27Z</time>
      </trkpt>
      <trkpt lat="47.8372" lon="-2.42313">
        <ele>22.8</ele>
        <time>2021-08-07T11:53:28Z</time>
      </trkpt>
      <trkpt lat="47.83721" lon="-2.42319">
        <ele>22.8</ele>
        <time>2021-08-07T11:53:29Z</time>
      </trkpt>
      <trkpt lat="47.83723" lon="-2.42326">
        <ele>22.8</ele>
        <time>2021-08-07T11:53:30Z</time>
      </trkpt>
      <trkpt lat="47.83724" lon="-2.42332">
        <ele>22.8</ele>
        <time>2021-08-07T11:53:31Z</time>
      </trkpt>
      <trkpt lat="47.83726" lon="-2.42339">
        <ele>22.8</ele>
        <time>2021-08-07T11:53:32Z</time>
      </trkpt>
      <trkpt lat="47.83727" lon="-2.42345">
        <ele>23</ele>
        <time>2021-08-07T11:53:33Z</time>
      </trkpt>
      <trkpt lat="47.83728" lon="-2.42351">
        <ele>23</ele>
        <time>2021-08-07T11:53:34Z</time>
      </trkpt>
      <trkpt lat="47.8373" lon="-2.42357">
        <ele>23</ele>
        <time>2021-08-07T11:53:35Z</time>
      </trkpt>
      <trkpt lat="47.83731" lon="-2.42363">
        <ele>23</ele>
        <time>2021-08-07T11:53:36Z</time>
      </trkpt>
      <trkpt lat="47.83734" lon="-2.42375">
        <ele>23</ele>
        <time>2021-08-07T11:53:38Z</time>
      </trkpt>
      <trkpt lat="47.83736" lon="-2.42381">
        <ele>23</ele>
        <time>2021-08-07T11:53:39Z</time>
      </trkpt>
      <trkpt lat="47.83738" lon="-2.42387">
        <ele>23</ele>
        <time>2021-08-07T11:53:40Z</time>
      </trkpt>
      <trkpt lat="47.83739" lon="-2.42393">
        <ele>23</ele>
        <time>2021-08-07T11:53:41Z</time>
      </trkpt>
      <trkpt lat="47.83741" lon="-2.42399">
        <ele>23</ele>
        <time>2021-08-07T11:53:42Z</time>
      </trkpt>
      <trkpt lat="47.83742" lon="-2.42405">
        <ele>22.8</ele>
        <time>2021-08-07T11:53:43Z</time>
      </trkpt>
      <trkpt lat="47.83744" lon="-2.42412">
        <ele>23</ele>
        <time>2021-08-07T11:53:44Z</time>
      </trkpt>
      <trkpt lat="47.83746" lon="-2.42418">
        <ele>22.8</ele>
        <time>2021-08-07T11:53:45Z</time>
      </trkpt>
      <trkpt lat="47.83747" lon="-2.42425">
        <ele>22.6</ele>
        <time>2021-08-07T11:53:46Z</time>
      </trkpt>
      <trkpt lat="47.83749" lon="-2.42431">
        <ele>23</ele>
        <time>2021-08-07T11:53:47Z</time>
      </trkpt>
      <trkpt lat="47.83752" lon="-2.42443">
        <ele>23</ele>
        <time>2021-08-07T11:53:49Z</time>
      </trkpt>
      <trkpt lat="47.83753" lon="-2.42449">
        <ele>23</ele>
        <time>2021-08-07T11:53:50Z</time>
      </trkpt>
      <trkpt lat="47.83755" lon="-2.42455">
        <ele>23</ele>
        <time>2021-08-07T11:53:51Z</time>
      </trkpt>
      <trkpt lat="47.83756" lon="-2.4246">
        <ele>23</ele>
        <time>2021-08-07T11:53:52Z</time>
      </trkpt>
      <trkpt lat="47.83758" lon="-2.42466">
        <ele>23</ele>
        <time>2021-08-07T11:53:53Z</time>
      </trkpt>
      <trkpt lat="47.8376" lon="-2.42472">
        <ele>22.6</ele>
        <time>2021-08-07T11:53:54Z</time>
      </trkpt>
      <trkpt lat="47.83761" lon="-2.42478">
        <ele>22.6</ele>
        <time>2021-08-07T11:53:55Z</time>
      </trkpt>
      <trkpt lat="47.83763" lon="-2.42485">
        <ele>22.6</ele>
        <time>2021-08-07T11:53:56Z</time>
      </trkpt>
      <trkpt lat="47.83764" lon="-2.42491">
        <ele>22.6</ele>
        <time>2021-08-07T11:53:57Z</time>
      </trkpt>
      <trkpt lat="47.83766" lon="-2.42497">
        <ele>22.6</ele>
        <time>2021-08-07T11:53:58Z</time>
      </trkpt>
      <trkpt lat="47.83769" lon="-2.4251">
        <ele>22.6</ele>
        <time>2021-08-07T11:54:00Z</time>
      </trkpt>
      <trkpt lat="47.83771" lon="-2.42516">
        <ele>23</ele>
        <time>2021-08-07T11:54:01Z</time>
      </trkpt>
      <trkpt lat="47.83772" lon="-2.42523">
        <ele>23</ele>
        <time>2021-08-07T11:54:02Z</time>
      </trkpt>
      <trkpt lat="47.83774" lon="-2.42529">
        <ele>23</ele>
        <time>2021-08-07T11:54:03Z</time>
      </trkpt>
      <trkpt lat="47.83776" lon="-2.42535">
        <ele>23</ele>
        <time>2021-08-07T11:54:04Z</time>
      </trkpt>
      <trkpt lat="47.83777" lon="-2.42541">
        <ele>22.8</ele>
        <time>2021-08-07T11:54:05Z</time>
      </trkpt>
      <trkpt lat="47.83779" lon="-2.42548">
        <ele>22.8</ele>
        <time>2021-08-07T11:54:06Z</time>
      </trkpt>
      <trkpt lat="47.8378" lon="-2.42554">
        <ele>22.8</ele>
        <time>2021-08-07T11:54:07Z</time>
      </trkpt>
      <trkpt lat="47.83782" lon="-2.42561">
        <ele>22.8</ele>
        <time>2021-08-07T11:54:08Z</time>
      </trkpt>
      <trkpt lat="47.83784" lon="-2.42567">
        <ele>22.8</ele>
        <time>2021-08-07T11:54:09Z</time>
      </trkpt>
      <trkpt lat="47.83786" lon="-2.42574">
        <ele>22.8</ele>
        <time>2021-08-07T11:54:10Z</time>
      </trkpt>
      <trkpt lat="47.83788" lon="-2.4258">
        <ele>22.6</ele>
        <time>2021-08-07T11:54:11Z</time>
      </trkpt>
      <trkpt lat="47.8379" lon="-2.42586">
        <ele>22.6</ele>
        <time>2021-08-07T11:54:12Z</time>
      </trkpt>
      <trkpt lat="47.83791" lon="-2.42593">
        <ele>22.6</ele>
        <time>2021-08-07T11:54:13Z</time>
      </trkpt>
      <trkpt lat="47.83793" lon="-2.42599">
        <ele>22.6</ele>
        <time>2021-08-07T11:54:14Z</time>
      </trkpt>
      <trkpt lat="47.83795" lon="-2.42604">
        <ele>22.8</ele>
        <time>2021-08-07T11:54:15Z</time>
      </trkpt>
      <trkpt lat="47.83796" lon="-2.4261">
        <ele>22.8</ele>
        <time>2021-08-07T11:54:16Z</time>
      </trkpt>
      <trkpt lat="47.83798" lon="-2.42616">
        <ele>22.8</ele>
        <time>2021-08-07T11:54:17Z</time>
      </trkpt>
      <trkpt lat="47.838" lon="-2.42621">
        <ele>22.8</ele>
        <time>2021-08-07T11:54:18Z</time>
      </trkpt>
      <trkpt lat="47.83802" lon="-2.42627">
        <ele>22.8</ele>
        <time>2021-08-07T11:54:19Z</time>
      </trkpt>
      <trkpt lat="47.83804" lon="-2.42634">
        <ele>22.8</ele>
        <time>2021-08-07T11:54:20Z</time>
      </trkpt>
      <trkpt lat="47.83809" lon="-2.42645">
        <ele>22.8</ele>
        <time>2021-08-07T11:54:22Z</time>
      </trkpt>
      <trkpt lat="47.83811" lon="-2.42651">
        <ele>22.8</ele>
        <time>2021-08-07T11:54:23Z</time>
      </trkpt>
      <trkpt lat="47.83813" lon="-2.42657">
        <ele>22.8</ele>
        <time>2021-08-07T11:54:24Z</time>
      </trkpt>
      <trkpt lat="47.83816" lon="-2.42662">
        <ele>23</ele>
        <time>2021-08-07T11:54:25Z</time>
      </trkpt>
      <trkpt lat="47.83819" lon="-2.42667">
        <ele>23</ele>
        <time>2021-08-07T11:54:26Z</time>
      </trkpt>
      <trkpt lat="47.83822" lon="-2.42672">
        <ele>23</ele>
        <time>2021-08-07T11:54:27Z</time>
      </trkpt>
      <trkpt lat="47.83825" lon="-2.42677">
        <ele>23</ele>
        <time>2021-08-07T11:54:28Z</time>
      </trkpt>
      <trkpt lat="47.83828" lon="-2.42682">
        <ele>23</ele>
        <time>2021-08-07T11:54:29Z</time>
      </trkpt>
      <trkpt lat="47.83831" lon="-2.42687">
        <ele>23.2</ele>
        <time>2021-08-07T11:54:30Z</time>
      </trkpt>
      <trkpt lat="47.83834" lon="-2.42691">
        <ele>23.2</ele>
        <time>2021-08-07T11:54:31Z</time>
      </trkpt>
      <trkpt lat="47.83839" lon="-2.42698">
        <ele>23.4</ele>
        <time>2021-08-07T11:54:33Z</time>
      </trkpt>
      <trkpt lat="47.83841" lon="-2.42702">
        <ele>23.4</ele>
        <time>2021-08-07T11:54:34Z</time>
      </trkpt>
      <trkpt lat="47.83843" lon="-2.42704">
        <ele>23.2</ele>
        <time>2021-08-07T11:54:35Z</time>
      </trkpt>
      <trkpt lat="47.83846" lon="-2.42708">
        <ele>23.2</ele>
        <time>2021-08-07T11:54:36Z</time>
      </trkpt>
      <trkpt lat="47.83848" lon="-2.42712">
        <ele>23.2</ele>
        <time>2021-08-07T11:54:37Z</time>
      </trkpt>
      <trkpt lat="47.83851" lon="-2.42717">
        <ele>23.2</ele>
        <time>2021-08-07T11:54:38Z</time>
      </trkpt>
      <trkpt lat="47.83854" lon="-2.42723">
        <ele>23.2</ele>
        <time>2021-08-07T11:54:39Z</time>
      </trkpt>
      <trkpt lat="47.83856" lon="-2.42728">
        <ele>23.2</ele>
        <time>2021-08-07T11:54:40Z</time>
      </trkpt>
      <trkpt lat="47.83859" lon="-2.42732">
        <ele>23.2</ele>
        <time>2021-08-07T11:54:41Z</time>
      </trkpt>
      <trkpt lat="47.83864" lon="-2.42742">
        <ele>23.2</ele>
        <time>2021-08-07T11:54:43Z</time>
      </trkpt>
      <trkpt lat="47.83867" lon="-2.42747">
        <ele>23.2</ele>
        <time>2021-08-07T11:54:44Z</time>
      </trkpt>
      <trkpt lat="47.83869" lon="-2.42753">
        <ele>23.2</ele>
        <time>2021-08-07T11:54:45Z</time>
      </trkpt>
      <trkpt lat="47.83872" lon="-2.42758">
        <ele>23.2</ele>
        <time>2021-08-07T11:54:46Z</time>
      </trkpt>
      <trkpt lat="47.83875" lon="-2.42763">
        <ele>23.2</ele>
        <time>2021-08-07T11:54:47Z</time>
      </trkpt>
      <trkpt lat="47.83877" lon="-2.42768">
        <ele>23</ele>
        <time>2021-08-07T11:54:48Z</time>
      </trkpt>
      <trkpt lat="47.8388" lon="-2.42771">
        <ele>23</ele>
        <time>2021-08-07T11:54:49Z</time>
      </trkpt>
      <trkpt lat="47.83882" lon="-2.42775">
        <ele>23</ele>
        <time>2021-08-07T11:54:50Z</time>
      </trkpt>
      <trkpt lat="47.83885" lon="-2.42779">
        <ele>23</ele>
        <time>2021-08-07T11:54:51Z</time>
      </trkpt>
      <trkpt lat="47.83888" lon="-2.42784">
        <ele>23</ele>
        <time>2021-08-07T11:54:52Z</time>
      </trkpt>
      <trkpt lat="47.83891" lon="-2.42789">
        <ele>23</ele>
        <time>2021-08-07T11:54:53Z</time>
      </trkpt>
      <trkpt lat="47.83894" lon="-2.42795">
        <ele>23</ele>
        <time>2021-08-07T11:54:54Z</time>
      </trkpt>
      <trkpt lat="47.83897" lon="-2.42801">
        <ele>23</ele>
        <time>2021-08-07T11:54:55Z</time>
      </trkpt>
      <trkpt lat="47.839" lon="-2.42809">
        <ele>23</ele>
        <time>2021-08-07T11:54:56Z</time>
      </trkpt>
      <trkpt lat="47.83903" lon="-2.42816">
        <ele>22.8</ele>
        <time>2021-08-07T11:54:57Z</time>
      </trkpt>
      <trkpt lat="47.83906" lon="-2.42822">
        <ele>22.8</ele>
        <time>2021-08-07T11:54:58Z</time>
      </trkpt>
      <trkpt lat="47.83908" lon="-2.42829">
        <ele>22.8</ele>
        <time>2021-08-07T11:54:59Z</time>
      </trkpt>
      <trkpt lat="47.8391" lon="-2.42834">
        <ele>22.8</ele>
        <time>2021-08-07T11:55:00Z</time>
      </trkpt>
      <trkpt lat="47.83915" lon="-2.42845">
        <ele>22.8</ele>
        <time>2021-08-07T11:55:02Z</time>
      </trkpt>
      <trkpt lat="47.83917" lon="-2.4285">
        <ele>23</ele>
        <time>2021-08-07T11:55:03Z</time>
      </trkpt>
      <trkpt lat="47.8392" lon="-2.42856">
        <ele>23</ele>
        <time>2021-08-07T11:55:04Z</time>
      </trkpt>
      <trkpt lat="47.83922" lon="-2.42861">
        <ele>23</ele>
        <time>2021-08-07T11:55:05Z</time>
      </trkpt>
      <trkpt lat="47.83925" lon="-2.42868">
        <ele>23</ele>
        <time>2021-08-07T11:55:06Z</time>
      </trkpt>
      <trkpt lat="47.83927" lon="-2.42874">
        <ele>23.2</ele>
        <time>2021-08-07T11:55:07Z</time>
      </trkpt>
      <trkpt lat="47.8393" lon="-2.42879">
        <ele>23.2</ele>
        <time>2021-08-07T11:55:08Z</time>
      </trkpt>
      <trkpt lat="47.83933" lon="-2.42884">
        <ele>23.2</ele>
        <time>2021-08-07T11:55:09Z</time>
      </trkpt>
      <trkpt lat="47.83935" lon="-2.42889">
        <ele>23.2</ele>
        <time>2021-08-07T11:55:10Z</time>
      </trkpt>
      <trkpt lat="47.83939" lon="-2.42899">
        <ele>23.2</ele>
        <time>2021-08-07T11:55:12Z</time>
      </trkpt>
      <trkpt lat="47.83942" lon="-2.42905">
        <ele>23.2</ele>
        <time>2021-08-07T11:55:13Z</time>
      </trkpt>
      <trkpt lat="47.83944" lon="-2.42911">
        <ele>23.2</ele>
        <time>2021-08-07T11:55:14Z</time>
      </trkpt>
      <trkpt lat="47.83945" lon="-2.42918">
        <ele>23.2</ele>
        <time>2021-08-07T11:55:15Z</time>
      </trkpt>
      <trkpt lat="47.83947" lon="-2.42924">
        <ele>23.2</ele>
        <time>2021-08-07T11:55:16Z</time>
      </trkpt>
      <trkpt lat="47.83949" lon="-2.4293">
        <ele>23.2</ele>
        <time>2021-08-07T11:55:17Z</time>
      </trkpt>
      <trkpt lat="47.83951" lon="-2.42935">
        <ele>23.2</ele>
        <time>2021-08-07T11:55:18Z</time>
      </trkpt>
      <trkpt lat="47.83952" lon="-2.42939">
        <ele>23.2</ele>
        <time>2021-08-07T11:55:19Z</time>
      </trkpt>
      <trkpt lat="47.83955" lon="-2.42945">
        <ele>23.2</ele>
        <time>2021-08-07T11:55:20Z</time>
      </trkpt>
      <trkpt lat="47.83959" lon="-2.42959">
        <ele>23.2</ele>
        <time>2021-08-07T11:55:22Z</time>
      </trkpt>
      <trkpt lat="47.83961" lon="-2.42965">
        <ele>23.2</ele>
        <time>2021-08-07T11:55:23Z</time>
      </trkpt>
      <trkpt lat="47.83963" lon="-2.4297">
        <ele>23.2</ele>
        <time>2021-08-07T11:55:24Z</time>
      </trkpt>
      <trkpt lat="47.83966" lon="-2.42977">
        <ele>23.2</ele>
        <time>2021-08-07T11:55:25Z</time>
      </trkpt>
      <trkpt lat="47.83968" lon="-2.42983">
        <ele>23</ele>
        <time>2021-08-07T11:55:26Z</time>
      </trkpt>
      <trkpt lat="47.8397" lon="-2.42991">
        <ele>23</ele>
        <time>2021-08-07T11:55:27Z</time>
      </trkpt>
      <trkpt lat="47.83973" lon="-2.42997">
        <ele>23</ele>
        <time>2021-08-07T11:55:28Z</time>
      </trkpt>
      <trkpt lat="47.83975" lon="-2.43005">
        <ele>23</ele>
        <time>2021-08-07T11:55:29Z</time>
      </trkpt>
      <trkpt lat="47.83978" lon="-2.4301">
        <ele>23</ele>
        <time>2021-08-07T11:55:30Z</time>
      </trkpt>
      <trkpt lat="47.8398" lon="-2.43017">
        <ele>23</ele>
        <time>2021-08-07T11:55:31Z</time>
      </trkpt>
      <trkpt lat="47.83983" lon="-2.43023">
        <ele>23</ele>
        <time>2021-08-07T11:55:32Z</time>
      </trkpt>
      <trkpt lat="47.83985" lon="-2.43029">
        <ele>22.8</ele>
        <time>2021-08-07T11:55:33Z</time>
      </trkpt>
      <trkpt lat="47.83988" lon="-2.43034">
        <ele>22.8</ele>
        <time>2021-08-07T11:55:34Z</time>
      </trkpt>
      <trkpt lat="47.83991" lon="-2.43039">
        <ele>22.8</ele>
        <time>2021-08-07T11:55:35Z</time>
      </trkpt>
      <trkpt lat="47.83994" lon="-2.43045">
        <ele>22.8</ele>
        <time>2021-08-07T11:55:36Z</time>
      </trkpt>
      <trkpt lat="47.83996" lon="-2.43051">
        <ele>22.8</ele>
        <time>2021-08-07T11:55:37Z</time>
      </trkpt>
      <trkpt lat="47.83999" lon="-2.43059">
        <ele>22.8</ele>
        <time>2021-08-07T11:55:38Z</time>
      </trkpt>
      <trkpt lat="47.84001" lon="-2.43067">
        <ele>22.8</ele>
        <time>2021-08-07T11:55:39Z</time>
      </trkpt>
      <trkpt lat="47.84003" lon="-2.43076">
        <ele>22.8</ele>
        <time>2021-08-07T11:55:40Z</time>
      </trkpt>
      <trkpt lat="47.84004" lon="-2.43084">
        <ele>23</ele>
        <time>2021-08-07T11:55:41Z</time>
      </trkpt>
      <trkpt lat="47.84004" lon="-2.43091">
        <ele>23</ele>
        <time>2021-08-07T11:55:42Z</time>
      </trkpt>
      <trkpt lat="47.84004" lon="-2.43098">
        <ele>23</ele>
        <time>2021-08-07T11:55:43Z</time>
      </trkpt>
      <trkpt lat="47.84003" lon="-2.43105">
        <ele>23</ele>
        <time>2021-08-07T11:55:44Z</time>
      </trkpt>
      <trkpt lat="47.84001" lon="-2.4311">
        <ele>23</ele>
        <time>2021-08-07T11:55:45Z</time>
      </trkpt>
      <trkpt lat="47.83999" lon="-2.43115">
        <ele>23</ele>
        <time>2021-08-07T11:55:46Z</time>
      </trkpt>
      <trkpt lat="47.83997" lon="-2.43119">
        <ele>22.8</ele>
        <time>2021-08-07T11:55:47Z</time>
      </trkpt>
      <trkpt lat="47.83995" lon="-2.43123">
        <ele>22.8</ele>
        <time>2021-08-07T11:55:48Z</time>
      </trkpt>
      <trkpt lat="47.83994" lon="-2.43126">
        <ele>22.8</ele>
        <time>2021-08-07T11:55:49Z</time>
      </trkpt>
      <trkpt lat="47.83992" lon="-2.4313">
        <ele>22.8</ele>
        <time>2021-08-07T11:55:50Z</time>
      </trkpt>
      <trkpt lat="47.8399" lon="-2.43134">
        <ele>22.8</ele>
        <time>2021-08-07T11:55:51Z</time>
      </trkpt>
      <trkpt lat="47.83988" lon="-2.43137">
        <ele>22.8</ele>
        <time>2021-08-07T11:55:52Z</time>
      </trkpt>
      <trkpt lat="47.83986" lon="-2.4314">
        <ele>22.8</ele>
        <time>2021-08-07T11:55:53Z</time>
      </trkpt>
      <trkpt lat="47.83984" lon="-2.43143">
        <ele>22.8</ele>
        <time>2021-08-07T11:55:54Z</time>
      </trkpt>
      <trkpt lat="47.83983" lon="-2.43147">
        <ele>22.8</ele>
        <time>2021-08-07T11:55:55Z</time>
      </trkpt>
      <trkpt lat="47.83981" lon="-2.43149">
        <ele>22.8</ele>
        <time>2021-08-07T11:55:56Z</time>
      </trkpt>
      <trkpt lat="47.8398" lon="-2.43152">
        <ele>22.8</ele>
        <time>2021-08-07T11:55:57Z</time>
      </trkpt>
      <trkpt lat="47.83978" lon="-2.43154">
        <ele>22.6</ele>
        <time>2021-08-07T11:55:58Z</time>
      </trkpt>
      <trkpt lat="47.83977" lon="-2.43157">
        <ele>22.6</ele>
        <time>2021-08-07T11:55:59Z</time>
      </trkpt>
      <trkpt lat="47.83975" lon="-2.4316">
        <ele>22.6</ele>
        <time>2021-08-07T11:56:00Z</time>
      </trkpt>
      <trkpt lat="47.83974" lon="-2.43165">
        <ele>22.6</ele>
        <time>2021-08-07T11:56:02Z</time>
      </trkpt>
      <trkpt lat="47.83973" lon="-2.43168">
        <ele>22.6</ele>
        <time>2021-08-07T11:56:03Z</time>
      </trkpt>
      <trkpt lat="47.83972" lon="-2.4317">
        <ele>22.6</ele>
        <time>2021-08-07T11:56:04Z</time>
      </trkpt>
      <trkpt lat="47.83971" lon="-2.43171">
        <ele>22.8</ele>
        <time>2021-08-07T11:56:05Z</time>
      </trkpt>
      <trkpt lat="47.8397" lon="-2.43172">
        <ele>22.8</ele>
        <time>2021-08-07T11:56:06Z</time>
      </trkpt>
      <trkpt lat="47.83969" lon="-2.43174">
        <ele>22.8</ele>
        <time>2021-08-07T11:56:07Z</time>
      </trkpt>
      <trkpt lat="47.8397" lon="-2.43176">
        <ele>22.8</ele>
        <time>2021-08-07T11:56:08Z</time>
      </trkpt>
      <trkpt lat="47.8397" lon="-2.43177">
        <ele>23</ele>
        <time>2021-08-07T11:56:09Z</time>
      </trkpt>
      <trkpt lat="47.83971" lon="-2.43177">
        <ele>23</ele>
        <time>2021-08-07T11:56:10Z</time>
      </trkpt>
      <trkpt lat="47.83971" lon="-2.43176">
        <ele>23</ele>
        <time>2021-08-07T11:56:11Z</time>
      </trkpt>
      <trkpt lat="47.83971" lon="-2.43175">
        <ele>23</ele>
        <time>2021-08-07T11:56:12Z</time>
      </trkpt>
      <trkpt lat="47.83971" lon="-2.43174">
        <ele>23.2</ele>
        <time>2021-08-07T11:56:13Z</time>
      </trkpt>
      <trkpt lat="47.83971" lon="-2.43173">
        <ele>23.2</ele>
        <time>2021-08-07T11:56:14Z</time>
      </trkpt>
      <trkpt lat="47.83971" lon="-2.43171">
        <ele>23.2</ele>
        <time>2021-08-07T11:56:15Z</time>
      </trkpt>
      <trkpt lat="47.83971" lon="-2.43169">
        <ele>23.2</ele>
        <time>2021-08-07T11:56:16Z</time>
      </trkpt>
      <trkpt lat="47.83971" lon="-2.43167">
        <ele>23.2</ele>
        <time>2021-08-07T11:56:17Z</time>
      </trkpt>
      <trkpt lat="47.83971" lon="-2.43166">
        <ele>23.2</ele>
        <time>2021-08-07T11:56:18Z</time>
      </trkpt>
      <trkpt lat="47.83971" lon="-2.43165">
        <ele>23</ele>
        <time>2021-08-07T11:56:19Z</time>
      </trkpt>
      <trkpt lat="47.83971" lon="-2.43164">
        <ele>23</ele>
        <time>2021-08-07T11:56:20Z</time>
      </trkpt>
      <trkpt lat="47.83971" lon="-2.43163">
        <ele>22.8</ele>
        <time>2021-08-07T11:56:22Z</time>
      </trkpt>
      <trkpt lat="47.83972" lon="-2.43162">
        <ele>22.8</ele>
        <time>2021-08-07T11:56:23Z</time>
      </trkpt>
      <trkpt lat="47.83972" lon="-2.4316">
        <ele>22.8</ele>
        <time>2021-08-07T11:56:24Z</time>
      </trkpt>
      <trkpt lat="47.83973" lon="-2.43158">
        <ele>22.8</ele>
        <time>2021-08-07T11:56:25Z</time>
      </trkpt>
      <trkpt lat="47.83973" lon="-2.43157">
        <ele>22.8</ele>
        <time>2021-08-07T11:56:26Z</time>
      </trkpt>
      <trkpt lat="47.83973" lon="-2.43156">
        <ele>22.8</ele>
        <time>2021-08-07T11:56:27Z</time>
      </trkpt>
      <trkpt lat="47.83972" lon="-2.43155">
        <ele>22.8</ele>
        <time>2021-08-07T11:56:28Z</time>
      </trkpt>
      <trkpt lat="47.83972" lon="-2.43154">
        <ele>22.8</ele>
        <time>2021-08-07T11:56:29Z</time>
      </trkpt>
      <trkpt lat="47.83972" lon="-2.43153">
        <ele>22.8</ele>
        <time>2021-08-07T11:56:30Z</time>
      </trkpt>
      <trkpt lat="47.83971" lon="-2.43152">
        <ele>22.8</ele>
        <time>2021-08-07T11:56:31Z</time>
      </trkpt>
      <trkpt lat="47.83971" lon="-2.43151">
        <ele>22.8</ele>
        <time>2021-08-07T11:56:32Z</time>
      </trkpt>
      <trkpt lat="47.83971" lon="-2.4315">
        <ele>22.8</ele>
        <time>2021-08-07T11:56:33Z</time>
      </trkpt>
      <trkpt lat="47.8397" lon="-2.4315">
        <ele>22.8</ele>
        <time>2021-08-07T11:56:34Z</time>
      </trkpt>
      <trkpt lat="47.8397" lon="-2.43149">
        <ele>22.8</ele>
        <time>2021-08-07T11:56:35Z</time>
      </trkpt>
      <trkpt lat="47.83969" lon="-2.43148">
        <ele>23.2</ele>
        <time>2021-08-07T11:56:36Z</time>
      </trkpt>
      <trkpt lat="47.83969" lon="-2.43147">
        <ele>23.4</ele>
        <time>2021-08-07T11:56:37Z</time>
      </trkpt>
      <trkpt lat="47.83968" lon="-2.43145">
        <ele>23.6</ele>
        <time>2021-08-07T11:56:38Z</time>
      </trkpt>
      <trkpt lat="47.83967" lon="-2.43145">
        <ele>24</ele>
        <time>2021-08-07T11:56:39Z</time>
      </trkpt>
      <trkpt lat="47.83965" lon="-2.43145">
        <ele>24.2</ele>
        <time>2021-08-07T11:56:40Z</time>
      </trkpt>
      <trkpt lat="47.83965" lon="-2.43145">
        <ele>25.2</ele>
        <time>2021-08-07T11:56:42Z</time>
      </trkpt>
      <trkpt lat="47.83965" lon="-2.43146">
        <ele>25.6</ele>
        <time>2021-08-07T11:56:43Z</time>
      </trkpt>
      <trkpt lat="47.83966" lon="-2.43146">
        <ele>25.8</ele>
        <time>2021-08-07T11:56:44Z</time>
      </trkpt>
      <trkpt lat="47.83967" lon="-2.43146">
        <ele>26</ele>
        <time>2021-08-07T11:56:45Z</time>
      </trkpt>
      <trkpt lat="47.83968" lon="-2.43147">
        <ele>26.2</ele>
        <time>2021-08-07T11:56:46Z</time>
      </trkpt>
      <trkpt lat="47.83969" lon="-2.43148">
        <ele>26.4</ele>
        <time>2021-08-07T11:56:47Z</time>
      </trkpt>
      <trkpt lat="47.8397" lon="-2.43148">
        <ele>26.4</ele>
        <time>2021-08-07T11:56:48Z</time>
      </trkpt>
      <trkpt lat="47.83971" lon="-2.43149">
        <ele>26.6</ele>
        <time>2021-08-07T11:56:49Z</time>
      </trkpt>
      <trkpt lat="47.83972" lon="-2.43151">
        <ele>26.6</ele>
        <time>2021-08-07T11:56:50Z</time>
      </trkpt>
      <trkpt lat="47.83972" lon="-2.43153">
        <ele>26.8</ele>
        <time>2021-08-07T11:56:51Z</time>
      </trkpt>
      <trkpt lat="47.83973" lon="-2.43155">
        <ele>26.8</ele>
        <time>2021-08-07T11:56:52Z</time>
      </trkpt>
      <trkpt lat="47.83974" lon="-2.43156">
        <ele>26.8</ele>
        <time>2021-08-07T11:56:53Z</time>
      </trkpt>
      <trkpt lat="47.83975" lon="-2.43157">
        <ele>26.8</ele>
        <time>2021-08-07T11:56:54Z</time>
      </trkpt>
      <trkpt lat="47.83976" lon="-2.43159">
        <ele>26.8</ele>
        <time>2021-08-07T11:56:55Z</time>
      </trkpt>
      <trkpt lat="47.83976" lon="-2.43161">
        <ele>26.8</ele>
        <time>2021-08-07T11:56:56Z</time>
      </trkpt>
      <trkpt lat="47.83977" lon="-2.43162">
        <ele>27</ele>
        <time>2021-08-07T11:56:57Z</time>
      </trkpt>
      <trkpt lat="47.83977" lon="-2.43162">
        <ele>27</ele>
        <time>2021-08-07T11:56:58Z</time>
      </trkpt>
      <trkpt lat="47.83977" lon="-2.43163">
        <ele>27</ele>
        <time>2021-08-07T11:56:59Z</time>
      </trkpt>
      <trkpt lat="47.83977" lon="-2.43163">
        <ele>27</ele>
        <time>2021-08-07T11:57:00Z</time>
      </trkpt>
      <trkpt lat="47.83978" lon="-2.43166">
        <ele>27.8</ele>
        <time>2021-08-07T11:57:48Z</time>
      </trkpt>
      <trkpt lat="47.83978" lon="-2.43168">
        <ele>27.8</ele>
        <time>2021-08-07T11:57:49Z</time>
      </trkpt>
      <trkpt lat="47.83979" lon="-2.43169">
        <ele>27.8</ele>
        <time>2021-08-07T11:57:50Z</time>
      </trkpt>
      <trkpt lat="47.8398" lon="-2.4317">
        <ele>27.8</ele>
        <time>2021-08-07T11:57:51Z</time>
      </trkpt>
      <trkpt lat="47.83981" lon="-2.43174">
        <ele>27.8</ele>
        <time>2021-08-07T11:57:53Z</time>
      </trkpt>
      <trkpt lat="47.83983" lon="-2.43176">
        <ele>27.8</ele>
        <time>2021-08-07T11:57:54Z</time>
      </trkpt>
      <trkpt lat="47.83984" lon="-2.43178">
        <ele>27.8</ele>
        <time>2021-08-07T11:57:55Z</time>
      </trkpt>
      <trkpt lat="47.83986" lon="-2.43181">
        <ele>27.8</ele>
        <time>2021-08-07T11:57:56Z</time>
      </trkpt>
      <trkpt lat="47.83987" lon="-2.43183">
        <ele>27.6</ele>
        <time>2021-08-07T11:57:57Z</time>
      </trkpt>
      <trkpt lat="47.83989" lon="-2.43186">
        <ele>27.6</ele>
        <time>2021-08-07T11:57:58Z</time>
      </trkpt>
      <trkpt lat="47.83991" lon="-2.43189">
        <ele>27.6</ele>
        <time>2021-08-07T11:57:59Z</time>
      </trkpt>
      <trkpt lat="47.83993" lon="-2.43192">
        <ele>27.6</ele>
        <time>2021-08-07T11:58:00Z</time>
      </trkpt>
      <trkpt lat="47.83997" lon="-2.432">
        <ele>27.6</ele>
        <time>2021-08-07T11:58:02Z</time>
      </trkpt>
      <trkpt lat="47.83999" lon="-2.43205">
        <ele>27.4</ele>
        <time>2021-08-07T11:58:03Z</time>
      </trkpt>
      <trkpt lat="47.84001" lon="-2.43209">
        <ele>27.4</ele>
        <time>2021-08-07T11:58:04Z</time>
      </trkpt>
      <trkpt lat="47.84013" lon="-2.43229">
        <ele>27.2</ele>
        <time>2021-08-07T11:58:09Z</time>
      </trkpt>
      <trkpt lat="47.84018" lon="-2.43236">
        <ele>27</ele>
        <time>2021-08-07T11:58:11Z</time>
      </trkpt>
      <trkpt lat="47.84023" lon="-2.43242">
        <ele>26.8</ele>
        <time>2021-08-07T11:58:13Z</time>
      </trkpt>
      <trkpt lat="47.84026" lon="-2.43246">
        <ele>26.6</ele>
        <time>2021-08-07T11:58:14Z</time>
      </trkpt>
      <trkpt lat="47.84028" lon="-2.4325">
        <ele>26.4</ele>
        <time>2021-08-07T11:58:15Z</time>
      </trkpt>
      <trkpt lat="47.84033" lon="-2.43257">
        <ele>26.2</ele>
        <time>2021-08-07T11:58:17Z</time>
      </trkpt>
      <trkpt lat="47.84039" lon="-2.43264">
        <ele>26.2</ele>
        <time>2021-08-07T11:58:19Z</time>
      </trkpt>
      <trkpt lat="47.84042" lon="-2.43267">
        <ele>26.2</ele>
        <time>2021-08-07T11:58:20Z</time>
      </trkpt>
      <trkpt lat="47.84044" lon="-2.43272">
        <ele>26.2</ele>
        <time>2021-08-07T11:58:21Z</time>
      </trkpt>
      <trkpt lat="47.84046" lon="-2.43277">
        <ele>26</ele>
        <time>2021-08-07T11:58:22Z</time>
      </trkpt>
      <trkpt lat="47.84055" lon="-2.43291">
        <ele>25.8</ele>
        <time>2021-08-07T11:58:25Z</time>
      </trkpt>
      <trkpt lat="47.84061" lon="-2.433">
        <ele>25.8</ele>
        <time>2021-08-07T11:58:27Z</time>
      </trkpt>
      <trkpt lat="47.84065" lon="-2.43304">
        <ele>25.6</ele>
        <time>2021-08-07T11:58:28Z</time>
      </trkpt>
      <trkpt lat="47.84073" lon="-2.43318">
        <ele>25.2</ele>
        <time>2021-08-07T11:58:31Z</time>
      </trkpt>
      <trkpt lat="47.84079" lon="-2.43327">
        <ele>25</ele>
        <time>2021-08-07T11:58:33Z</time>
      </trkpt>
      <trkpt lat="47.84082" lon="-2.43331">
        <ele>24.8</ele>
        <time>2021-08-07T11:58:34Z</time>
      </trkpt>
      <trkpt lat="47.84086" lon="-2.43336">
        <ele>24.8</ele>
        <time>2021-08-07T11:58:35Z</time>
      </trkpt>
      <trkpt lat="47.84089" lon="-2.4334">
        <ele>24.8</ele>
        <time>2021-08-07T11:58:36Z</time>
      </trkpt>
      <trkpt lat="47.84093" lon="-2.43345">
        <ele>24.8</ele>
        <time>2021-08-07T11:58:37Z</time>
      </trkpt>
      <trkpt lat="47.84099" lon="-2.43354">
        <ele>24.8</ele>
        <time>2021-08-07T11:58:39Z</time>
      </trkpt>
      <trkpt lat="47.84102" lon="-2.43359">
        <ele>24.8</ele>
        <time>2021-08-07T11:58:40Z</time>
      </trkpt>
      <trkpt lat="47.84108" lon="-2.43368">
        <ele>24.6</ele>
        <time>2021-08-07T11:58:42Z</time>
      </trkpt>
      <trkpt lat="47.84116" lon="-2.43378">
        <ele>24.6</ele>
        <time>2021-08-07T11:58:44Z</time>
      </trkpt>
      <trkpt lat="47.84121" lon="-2.43383">
        <ele>24.4</ele>
        <time>2021-08-07T11:58:45Z</time>
      </trkpt>
      <trkpt lat="47.84133" lon="-2.43396">
        <ele>23.6</ele>
        <time>2021-08-07T11:58:48Z</time>
      </trkpt>
      <trkpt lat="47.84137" lon="-2.43406">
        <ele>23.4</ele>
        <time>2021-08-07T11:58:49Z</time>
      </trkpt>
      <trkpt lat="47.84141" lon="-2.43411">
        <ele>23.4</ele>
        <time>2021-08-07T11:58:50Z</time>
      </trkpt>
      <trkpt lat="47.84144" lon="-2.43418">
        <ele>23.4</ele>
        <time>2021-08-07T11:58:51Z</time>
      </trkpt>
      <trkpt lat="47.84155" lon="-2.43439">
        <ele>23</ele>
        <time>2021-08-07T11:58:54Z</time>
      </trkpt>
      <trkpt lat="47.84159" lon="-2.43446">
        <ele>23</ele>
        <time>2021-08-07T11:58:55Z</time>
      </trkpt>
      <trkpt lat="47.84167" lon="-2.43455">
        <ele>22.8</ele>
        <time>2021-08-07T11:58:57Z</time>
      </trkpt>
      <trkpt lat="47.84171" lon="-2.4346">
        <ele>22.8</ele>
        <time>2021-08-07T11:58:58Z</time>
      </trkpt>
      <trkpt lat="47.84179" lon="-2.43469">
        <ele>22.6</ele>
        <time>2021-08-07T11:59:00Z</time>
      </trkpt>
      <trkpt lat="47.84182" lon="-2.43474">
        <ele>22.4</ele>
        <time>2021-08-07T11:59:01Z</time>
      </trkpt>
      <trkpt lat="47.84185" lon="-2.4348">
        <ele>22.4</ele>
        <time>2021-08-07T11:59:02Z</time>
      </trkpt>
      <trkpt lat="47.84197" lon="-2.43498">
        <ele>22.4</ele>
        <time>2021-08-07T11:59:05Z</time>
      </trkpt>
      <trkpt lat="47.84201" lon="-2.43506">
        <ele>22.6</ele>
        <time>2021-08-07T11:59:06Z</time>
      </trkpt>
      <trkpt lat="47.8421" lon="-2.43519">
        <ele>22.6</ele>
        <time>2021-08-07T11:59:08Z</time>
      </trkpt>
      <trkpt lat="47.84223" lon="-2.43535">
        <ele>22.4</ele>
        <time>2021-08-07T11:59:11Z</time>
      </trkpt>
      <trkpt lat="47.84226" lon="-2.4354">
        <ele>22.4</ele>
        <time>2021-08-07T11:59:12Z</time>
      </trkpt>
      <trkpt lat="47.84232" lon="-2.43547">
        <ele>22.4</ele>
        <time>2021-08-07T11:59:14Z</time>
      </trkpt>
      <trkpt lat="47.84239" lon="-2.43556">
        <ele>22.4</ele>
        <time>2021-08-07T11:59:16Z</time>
      </trkpt>
      <trkpt lat="47.84243" lon="-2.43561">
        <ele>22.4</ele>
        <time>2021-08-07T11:59:17Z</time>
      </trkpt>
      <trkpt lat="47.84253" lon="-2.43569">
        <ele>22.4</ele>
        <time>2021-08-07T11:59:19Z</time>
      </trkpt>
      <trkpt lat="47.84265" lon="-2.43585">
        <ele>22.4</ele>
        <time>2021-08-07T11:59:22Z</time>
      </trkpt>
      <trkpt lat="47.84277" lon="-2.43599">
        <ele>22.4</ele>
        <time>2021-08-07T11:59:25Z</time>
      </trkpt>
      <trkpt lat="47.84281" lon="-2.43606">
        <ele>22.4</ele>
        <time>2021-08-07T11:59:26Z</time>
      </trkpt>
      <trkpt lat="47.84291" lon="-2.43618">
        <ele>22.4</ele>
        <time>2021-08-07T11:59:28Z</time>
      </trkpt>
      <trkpt lat="47.84296" lon="-2.43624">
        <ele>22.4</ele>
        <time>2021-08-07T11:59:29Z</time>
      </trkpt>
      <trkpt lat="47.84301" lon="-2.43629">
        <ele>22.4</ele>
        <time>2021-08-07T11:59:30Z</time>
      </trkpt>
      <trkpt lat="47.84313" lon="-2.43642">
        <ele>22.2</ele>
        <time>2021-08-07T11:59:33Z</time>
      </trkpt>
      <trkpt lat="47.84326" lon="-2.43653">
        <ele>22.2</ele>
        <time>2021-08-07T11:59:36Z</time>
      </trkpt>
      <trkpt lat="47.84339" lon="-2.43668">
        <ele>22.2</ele>
        <time>2021-08-07T11:59:39Z</time>
      </trkpt>
      <trkpt lat="47.8435" lon="-2.4368">
        <ele>22.4</ele>
        <time>2021-08-07T11:59:42Z</time>
      </trkpt>
      <trkpt lat="47.84357" lon="-2.43688">
        <ele>22.6</ele>
        <time>2021-08-07T11:59:44Z</time>
      </trkpt>
      <trkpt lat="47.8436" lon="-2.43693">
        <ele>22.6</ele>
        <time>2021-08-07T11:59:45Z</time>
      </trkpt>
      <trkpt lat="47.84372" lon="-2.43707">
        <ele>22.8</ele>
        <time>2021-08-07T11:59:48Z</time>
      </trkpt>
      <trkpt lat="47.84386" lon="-2.4372">
        <ele>22.8</ele>
        <time>2021-08-07T11:59:51Z</time>
      </trkpt>
      <trkpt lat="47.84396" lon="-2.43729">
        <ele>22.8</ele>
        <time>2021-08-07T11:59:53Z</time>
      </trkpt>
      <trkpt lat="47.84401" lon="-2.43732">
        <ele>22.8</ele>
        <time>2021-08-07T11:59:54Z</time>
      </trkpt>
      <trkpt lat="47.8441" lon="-2.4374">
        <ele>22.8</ele>
        <time>2021-08-07T11:59:56Z</time>
      </trkpt>
      <trkpt lat="47.84424" lon="-2.43752">
        <ele>22.8</ele>
        <time>2021-08-07T11:59:59Z</time>
      </trkpt>
      <trkpt lat="47.84432" lon="-2.43761">
        <ele>22.8</ele>
        <time>2021-08-07T12:00:01Z</time>
      </trkpt>
      <trkpt lat="47.84437" lon="-2.43766">
        <ele>22.8</ele>
        <time>2021-08-07T12:00:02Z</time>
      </trkpt>
      <trkpt lat="47.8445" lon="-2.43778">
        <ele>22.8</ele>
        <time>2021-08-07T12:00:05Z</time>
      </trkpt>
      <trkpt lat="47.84459" lon="-2.43787">
        <ele>22.8</ele>
        <time>2021-08-07T12:00:07Z</time>
      </trkpt>
      <trkpt lat="47.84463" lon="-2.4379">
        <ele>22.8</ele>
        <time>2021-08-07T12:00:08Z</time>
      </trkpt>
      <trkpt lat="47.84471" lon="-2.43797">
        <ele>22.8</ele>
        <time>2021-08-07T12:00:10Z</time>
      </trkpt>
      <trkpt lat="47.84484" lon="-2.43807">
        <ele>22.8</ele>
        <time>2021-08-07T12:00:13Z</time>
      </trkpt>
      <trkpt lat="47.84488" lon="-2.4381">
        <ele>22.8</ele>
        <time>2021-08-07T12:00:14Z</time>
      </trkpt>
      <trkpt lat="47.84492" lon="-2.43813">
        <ele>22.8</ele>
        <time>2021-08-07T12:00:15Z</time>
      </trkpt>
      <trkpt lat="47.84496" lon="-2.43815">
        <ele>22.8</ele>
        <time>2021-08-07T12:00:16Z</time>
      </trkpt>
      <trkpt lat="47.845" lon="-2.43818">
        <ele>22.8</ele>
        <time>2021-08-07T12:00:17Z</time>
      </trkpt>
      <trkpt lat="47.84508" lon="-2.43825">
        <ele>22.8</ele>
        <time>2021-08-07T12:00:19Z</time>
      </trkpt>
      <trkpt lat="47.84512" lon="-2.43827">
        <ele>22.8</ele>
        <time>2021-08-07T12:00:20Z</time>
      </trkpt>
      <trkpt lat="47.8452" lon="-2.43833">
        <ele>23</ele>
        <time>2021-08-07T12:00:22Z</time>
      </trkpt>
      <trkpt lat="47.84528" lon="-2.43839">
        <ele>23</ele>
        <time>2021-08-07T12:00:24Z</time>
      </trkpt>
      <trkpt lat="47.84541" lon="-2.43849">
        <ele>23.2</ele>
        <time>2021-08-07T12:00:27Z</time>
      </trkpt>
      <trkpt lat="47.8455" lon="-2.43855">
        <ele>23.4</ele>
        <time>2021-08-07T12:00:29Z</time>
      </trkpt>
      <trkpt lat="47.84554" lon="-2.43858">
        <ele>23.4</ele>
        <time>2021-08-07T12:00:30Z</time>
      </trkpt>
      <trkpt lat="47.84559" lon="-2.43862">
        <ele>23.4</ele>
        <time>2021-08-07T12:00:31Z</time>
      </trkpt>
      <trkpt lat="47.84568" lon="-2.43869">
        <ele>23.6</ele>
        <time>2021-08-07T12:00:33Z</time>
      </trkpt>
      <trkpt lat="47.8458" lon="-2.43877">
        <ele>23.6</ele>
        <time>2021-08-07T12:00:36Z</time>
      </trkpt>
      <trkpt lat="47.84589" lon="-2.43884">
        <ele>23.6</ele>
        <time>2021-08-07T12:00:38Z</time>
      </trkpt>
      <trkpt lat="47.84594" lon="-2.43887">
        <ele>23.6</ele>
        <time>2021-08-07T12:00:39Z</time>
      </trkpt>
      <trkpt lat="47.84603" lon="-2.43893">
        <ele>23.6</ele>
        <time>2021-08-07T12:00:41Z</time>
      </trkpt>
      <trkpt lat="47.84617" lon="-2.439">
        <ele>23.6</ele>
        <time>2021-08-07T12:00:44Z</time>
      </trkpt>
      <trkpt lat="47.84621" lon="-2.43903">
        <ele>23.6</ele>
        <time>2021-08-07T12:00:45Z</time>
      </trkpt>
      <trkpt lat="47.8463" lon="-2.43909">
        <ele>23.6</ele>
        <time>2021-08-07T12:00:47Z</time>
      </trkpt>
      <trkpt lat="47.84642" lon="-2.43915">
        <ele>23.6</ele>
        <time>2021-08-07T12:00:50Z</time>
      </trkpt>
      <trkpt lat="47.84645" lon="-2.43917">
        <ele>23.4</ele>
        <time>2021-08-07T12:00:51Z</time>
      </trkpt>
      <trkpt lat="47.84653" lon="-2.43921">
        <ele>23.4</ele>
        <time>2021-08-07T12:00:53Z</time>
      </trkpt>
      <trkpt lat="47.84661" lon="-2.43926">
        <ele>23.2</ele>
        <time>2021-08-07T12:00:55Z</time>
      </trkpt>
      <trkpt lat="47.84665" lon="-2.43927">
        <ele>23.2</ele>
        <time>2021-08-07T12:00:56Z</time>
      </trkpt>
      <trkpt lat="47.84673" lon="-2.43931">
        <ele>23.4</ele>
        <time>2021-08-07T12:00:58Z</time>
      </trkpt>
      <trkpt lat="47.84685" lon="-2.43937">
        <ele>23.4</ele>
        <time>2021-08-07T12:01:01Z</time>
      </trkpt>
      <trkpt lat="47.84689" lon="-2.43938">
        <ele>23.4</ele>
        <time>2021-08-07T12:01:02Z</time>
      </trkpt>
      <trkpt lat="47.84694" lon="-2.43939">
        <ele>23.4</ele>
        <time>2021-08-07T12:01:04Z</time>
      </trkpt>
      <trkpt lat="47.84703" lon="-2.43943">
        <ele>23.8</ele>
        <time>2021-08-07T12:01:07Z</time>
      </trkpt>
      <trkpt lat="47.84708" lon="-2.43946">
        <ele>24</ele>
        <time>2021-08-07T12:01:09Z</time>
      </trkpt>
      <trkpt lat="47.84714" lon="-2.4395">
        <ele>24</ele>
        <time>2021-08-07T12:01:12Z</time>
      </trkpt>
      <trkpt lat="47.84721" lon="-2.43953">
        <ele>24.2</ele>
        <time>2021-08-07T12:01:15Z</time>
      </trkpt>
      <trkpt lat="47.84723" lon="-2.43954">
        <ele>24.2</ele>
        <time>2021-08-07T12:01:16Z</time>
      </trkpt>
      <trkpt lat="47.84726" lon="-2.43955">
        <ele>24.2</ele>
        <time>2021-08-07T12:01:18Z</time>
      </trkpt>
      <trkpt lat="47.8473" lon="-2.43957">
        <ele>24.2</ele>
        <time>2021-08-07T12:01:20Z</time>
      </trkpt>
      <trkpt lat="47.84731" lon="-2.43959">
        <ele>24.2</ele>
        <time>2021-08-07T12:01:21Z</time>
      </trkpt>
      <trkpt lat="47.84735" lon="-2.4396">
        <ele>24.4</ele>
        <time>2021-08-07T12:01:23Z</time>
      </trkpt>
      <trkpt lat="47.84742" lon="-2.43963">
        <ele>24.4</ele>
        <time>2021-08-07T12:01:26Z</time>
      </trkpt>
      <trkpt lat="47.84744" lon="-2.43966">
        <ele>24.4</ele>
        <time>2021-08-07T12:01:27Z</time>
      </trkpt>
      <trkpt lat="47.84746" lon="-2.43968">
        <ele>24.4</ele>
        <time>2021-08-07T12:01:28Z</time>
      </trkpt>
      <trkpt lat="47.84748" lon="-2.43969">
        <ele>24.4</ele>
        <time>2021-08-07T12:01:29Z</time>
      </trkpt>
      <trkpt lat="47.84754" lon="-2.43971">
        <ele>24.4</ele>
        <time>2021-08-07T12:01:31Z</time>
      </trkpt>
      <trkpt lat="47.84762" lon="-2.43975">
        <ele>24.4</ele>
        <time>2021-08-07T12:01:34Z</time>
      </trkpt>
      <trkpt lat="47.84769" lon="-2.43978">
        <ele>24.4</ele>
        <time>2021-08-07T12:01:37Z</time>
      </trkpt>
      <trkpt lat="47.84775" lon="-2.43981">
        <ele>24.2</ele>
        <time>2021-08-07T12:01:40Z</time>
      </trkpt>
      <trkpt lat="47.84777" lon="-2.43981">
        <ele>24</ele>
        <time>2021-08-07T12:01:41Z</time>
      </trkpt>
      <trkpt lat="47.84779" lon="-2.43982">
        <ele>24</ele>
        <time>2021-08-07T12:01:42Z</time>
      </trkpt>
      <trkpt lat="47.84786" lon="-2.43984">
        <ele>23.8</ele>
        <time>2021-08-07T12:01:45Z</time>
      </trkpt>
      <trkpt lat="47.8479" lon="-2.43985">
        <ele>23.8</ele>
        <time>2021-08-07T12:01:46Z</time>
      </trkpt>
      <trkpt lat="47.84797" lon="-2.43987">
        <ele>24</ele>
        <time>2021-08-07T12:01:48Z</time>
      </trkpt>
      <trkpt lat="47.8481" lon="-2.43991">
        <ele>23.8</ele>
        <time>2021-08-07T12:01:51Z</time>
      </trkpt>
      <trkpt lat="47.84813" lon="-2.43992">
        <ele>23.8</ele>
        <time>2021-08-07T12:01:52Z</time>
      </trkpt>
      <trkpt lat="47.84822" lon="-2.43995">
        <ele>23.8</ele>
        <time>2021-08-07T12:01:54Z</time>
      </trkpt>
      <trkpt lat="47.8483" lon="-2.43997">
        <ele>23.8</ele>
        <time>2021-08-07T12:01:56Z</time>
      </trkpt>
      <trkpt lat="47.84834" lon="-2.43998">
        <ele>23.8</ele>
        <time>2021-08-07T12:01:57Z</time>
      </trkpt>
      <trkpt lat="47.84843" lon="-2.44001">
        <ele>23.6</ele>
        <time>2021-08-07T12:01:59Z</time>
      </trkpt>
      <trkpt lat="47.84856" lon="-2.44005">
        <ele>23.4</ele>
        <time>2021-08-07T12:02:02Z</time>
      </trkpt>
      <trkpt lat="47.84865" lon="-2.44007">
        <ele>23.4</ele>
        <time>2021-08-07T12:02:04Z</time>
      </trkpt>
      <trkpt lat="47.84869" lon="-2.44007">
        <ele>23.4</ele>
        <time>2021-08-07T12:02:05Z</time>
      </trkpt>
      <trkpt lat="47.84882" lon="-2.44011">
        <ele>23.4</ele>
        <time>2021-08-07T12:02:08Z</time>
      </trkpt>
      <trkpt lat="47.84891" lon="-2.44013">
        <ele>23.8</ele>
        <time>2021-08-07T12:02:10Z</time>
      </trkpt>
      <trkpt lat="47.84896" lon="-2.44013">
        <ele>23.6</ele>
        <time>2021-08-07T12:02:11Z</time>
      </trkpt>
      <trkpt lat="47.84905" lon="-2.44015">
        <ele>23.6</ele>
        <time>2021-08-07T12:02:13Z</time>
      </trkpt>
      <trkpt lat="47.84919" lon="-2.44018">
        <ele>23.4</ele>
        <time>2021-08-07T12:02:16Z</time>
      </trkpt>
      <trkpt lat="47.84924" lon="-2.44019">
        <ele>23.4</ele>
        <time>2021-08-07T12:02:17Z</time>
      </trkpt>
      <trkpt lat="47.84934" lon="-2.44021">
        <ele>23.4</ele>
        <time>2021-08-07T12:02:19Z</time>
      </trkpt>
      <trkpt lat="47.84948" lon="-2.44024">
        <ele>23.6</ele>
        <time>2021-08-07T12:02:22Z</time>
      </trkpt>
      <trkpt lat="47.84959" lon="-2.44025">
        <ele>23.4</ele>
        <time>2021-08-07T12:02:24Z</time>
      </trkpt>
      <trkpt lat="47.84975" lon="-2.44027">
        <ele>23.4</ele>
        <time>2021-08-07T12:02:27Z</time>
      </trkpt>
      <trkpt lat="47.8498" lon="-2.44028">
        <ele>23.4</ele>
        <time>2021-08-07T12:02:28Z</time>
      </trkpt>
      <trkpt lat="47.8499" lon="-2.4403">
        <ele>23.2</ele>
        <time>2021-08-07T12:02:30Z</time>
      </trkpt>
      <trkpt lat="47.85006" lon="-2.44032">
        <ele>22.8</ele>
        <time>2021-08-07T12:02:33Z</time>
      </trkpt>
      <trkpt lat="47.85011" lon="-2.44033">
        <ele>22.8</ele>
        <time>2021-08-07T12:02:34Z</time>
      </trkpt>
      <trkpt lat="47.85021" lon="-2.44033">
        <ele>22.6</ele>
        <time>2021-08-07T12:02:36Z</time>
      </trkpt>
      <trkpt lat="47.85037" lon="-2.44034">
        <ele>22.6</ele>
        <time>2021-08-07T12:02:39Z</time>
      </trkpt>
      <trkpt lat="47.85041" lon="-2.44035">
        <ele>22.6</ele>
        <time>2021-08-07T12:02:40Z</time>
      </trkpt>
      <trkpt lat="47.85046" lon="-2.44035">
        <ele>22.6</ele>
        <time>2021-08-07T12:02:41Z</time>
      </trkpt>
      <trkpt lat="47.8506" lon="-2.44036">
        <ele>23</ele>
        <time>2021-08-07T12:02:44Z</time>
      </trkpt>
      <trkpt lat="47.85071" lon="-2.44037">
        <ele>23.4</ele>
        <time>2021-08-07T12:02:46Z</time>
      </trkpt>
      <trkpt lat="47.85076" lon="-2.44037">
        <ele>23.6</ele>
        <time>2021-08-07T12:02:47Z</time>
      </trkpt>
      <trkpt lat="47.8509" lon="-2.44038">
        <ele>23.8</ele>
        <time>2021-08-07T12:02:50Z</time>
      </trkpt>
      <trkpt lat="47.85101" lon="-2.44038">
        <ele>23.8</ele>
        <time>2021-08-07T12:02:52Z</time>
      </trkpt>
      <trkpt lat="47.85106" lon="-2.44037">
        <ele>23.8</ele>
        <time>2021-08-07T12:02:53Z</time>
      </trkpt>
      <trkpt lat="47.85111" lon="-2.44038">
        <ele>23.8</ele>
        <time>2021-08-07T12:02:54Z</time>
      </trkpt>
      <trkpt lat="47.8512" lon="-2.44038">
        <ele>23.8</ele>
        <time>2021-08-07T12:02:56Z</time>
      </trkpt>
      <trkpt lat="47.85129" lon="-2.44038">
        <ele>23.8</ele>
        <time>2021-08-07T12:02:58Z</time>
      </trkpt>
      <trkpt lat="47.85134" lon="-2.44038">
        <ele>23.8</ele>
        <time>2021-08-07T12:02:59Z</time>
      </trkpt>
      <trkpt lat="47.8515" lon="-2.44037">
        <ele>23.8</ele>
        <time>2021-08-07T12:03:02Z</time>
      </trkpt>
      <trkpt lat="47.85156" lon="-2.44037">
        <ele>23.8</ele>
        <time>2021-08-07T12:03:03Z</time>
      </trkpt>
      <trkpt lat="47.85161" lon="-2.44036">
        <ele>23.8</ele>
        <time>2021-08-07T12:03:04Z</time>
      </trkpt>
      <trkpt lat="47.85175" lon="-2.44036">
        <ele>23.6</ele>
        <time>2021-08-07T12:03:07Z</time>
      </trkpt>
      <trkpt lat="47.85191" lon="-2.44034">
        <ele>23.6</ele>
        <time>2021-08-07T12:03:10Z</time>
      </trkpt>
      <trkpt lat="47.85206" lon="-2.44031">
        <ele>23.6</ele>
        <time>2021-08-07T12:03:13Z</time>
      </trkpt>
      <trkpt lat="47.8521" lon="-2.44029">
        <ele>23.6</ele>
        <time>2021-08-07T12:03:14Z</time>
      </trkpt>
      <trkpt lat="47.85218" lon="-2.44028">
        <ele>23.4</ele>
        <time>2021-08-07T12:03:16Z</time>
      </trkpt>
      <trkpt lat="47.85226" lon="-2.44027">
        <ele>23.4</ele>
        <time>2021-08-07T12:03:18Z</time>
      </trkpt>
      <trkpt lat="47.8523" lon="-2.44027">
        <ele>23.4</ele>
        <time>2021-08-07T12:03:19Z</time>
      </trkpt>
      <trkpt lat="47.85238" lon="-2.44027">
        <ele>23.4</ele>
        <time>2021-08-07T12:03:21Z</time>
      </trkpt>
      <trkpt lat="47.85242" lon="-2.44026">
        <ele>23.4</ele>
        <time>2021-08-07T12:03:22Z</time>
      </trkpt>
      <trkpt lat="47.85252" lon="-2.44024">
        <ele>23.4</ele>
        <time>2021-08-07T12:03:24Z</time>
      </trkpt>
      <trkpt lat="47.85266" lon="-2.44024">
        <ele>23.4</ele>
        <time>2021-08-07T12:03:27Z</time>
      </trkpt>
      <trkpt lat="47.85276" lon="-2.44021">
        <ele>23.4</ele>
        <time>2021-08-07T12:03:30Z</time>
      </trkpt>
      <trkpt lat="47.85278" lon="-2.44019">
        <ele>23.4</ele>
        <time>2021-08-07T12:03:31Z</time>
      </trkpt>
      <trkpt lat="47.85281" lon="-2.44019">
        <ele>23.6</ele>
        <time>2021-08-07T12:03:33Z</time>
      </trkpt>
      <trkpt lat="47.85285" lon="-2.44019">
        <ele>23.6</ele>
        <time>2021-08-07T12:03:35Z</time>
      </trkpt>
      <trkpt lat="47.85287" lon="-2.44019">
        <ele>23.8</ele>
        <time>2021-08-07T12:03:36Z</time>
      </trkpt>
      <trkpt lat="47.85291" lon="-2.44019">
        <ele>24</ele>
        <time>2021-08-07T12:03:38Z</time>
      </trkpt>
      <trkpt lat="47.85292" lon="-2.44019">
        <ele>24.2</ele>
        <time>2021-08-07T12:03:39Z</time>
      </trkpt>
      <trkpt lat="47.85292" lon="-2.44019">
        <ele>24.2</ele>
        <time>2021-08-07T12:03:40Z</time>
      </trkpt>
      <trkpt lat="47.85296" lon="-2.44022">
        <ele>24.6</ele>
        <time>2021-08-07T12:05:18Z</time>
      </trkpt>
      <trkpt lat="47.85303" lon="-2.44021">
        <ele>24.6</ele>
        <time>2021-08-07T12:05:21Z</time>
      </trkpt>
      <trkpt lat="47.85307" lon="-2.4402">
        <ele>24.6</ele>
        <time>2021-08-07T12:05:23Z</time>
      </trkpt>
      <trkpt lat="47.85314" lon="-2.44019">
        <ele>24.2</ele>
        <time>2021-08-07T12:05:26Z</time>
      </trkpt>
      <trkpt lat="47.85323" lon="-2.44017">
        <ele>24.2</ele>
        <time>2021-08-07T12:05:29Z</time>
      </trkpt>
      <trkpt lat="47.85335" lon="-2.44015">
        <ele>24.2</ele>
        <time>2021-08-07T12:05:32Z</time>
      </trkpt>
      <trkpt lat="47.85347" lon="-2.44013">
        <ele>24.2</ele>
        <time>2021-08-07T12:05:35Z</time>
      </trkpt>
      <trkpt lat="47.85355" lon="-2.44012">
        <ele>24.2</ele>
        <time>2021-08-07T12:05:37Z</time>
      </trkpt>
      <trkpt lat="47.85368" lon="-2.4401">
        <ele>24.2</ele>
        <time>2021-08-07T12:05:40Z</time>
      </trkpt>
      <trkpt lat="47.8538" lon="-2.44008">
        <ele>24.2</ele>
        <time>2021-08-07T12:05:43Z</time>
      </trkpt>
      <trkpt lat="47.85387" lon="-2.44007">
        <ele>24.2</ele>
        <time>2021-08-07T12:05:45Z</time>
      </trkpt>
      <trkpt lat="47.85391" lon="-2.44006">
        <ele>24.2</ele>
        <time>2021-08-07T12:05:46Z</time>
      </trkpt>
      <trkpt lat="47.85405" lon="-2.44004">
        <ele>24.2</ele>
        <time>2021-08-07T12:05:49Z</time>
      </trkpt>
      <trkpt lat="47.85414" lon="-2.44002">
        <ele>24.2</ele>
        <time>2021-08-07T12:05:51Z</time>
      </trkpt>
      <trkpt lat="47.85419" lon="-2.44002">
        <ele>24.2</ele>
        <time>2021-08-07T12:05:52Z</time>
      </trkpt>
      <trkpt lat="47.85428" lon="-2.44">
        <ele>24.2</ele>
        <time>2021-08-07T12:05:54Z</time>
      </trkpt>
      <trkpt lat="47.85441" lon="-2.43998">
        <ele>24.2</ele>
        <time>2021-08-07T12:05:57Z</time>
      </trkpt>
      <trkpt lat="47.85445" lon="-2.43998">
        <ele>24.2</ele>
        <time>2021-08-07T12:05:58Z</time>
      </trkpt>
      <trkpt lat="47.85454" lon="-2.43996">
        <ele>24.2</ele>
        <time>2021-08-07T12:06:00Z</time>
      </trkpt>
      <trkpt lat="47.85468" lon="-2.43993">
        <ele>24.2</ele>
        <time>2021-08-07T12:06:03Z</time>
      </trkpt>
      <trkpt lat="47.85472" lon="-2.43993">
        <ele>24.2</ele>
        <time>2021-08-07T12:06:04Z</time>
      </trkpt>
      <trkpt lat="47.85481" lon="-2.43992">
        <ele>24.2</ele>
        <time>2021-08-07T12:06:06Z</time>
      </trkpt>
      <trkpt lat="47.85491" lon="-2.43992">
        <ele>24</ele>
        <time>2021-08-07T12:06:08Z</time>
      </trkpt>
      <trkpt lat="47.85494" lon="-2.43992">
        <ele>24.2</ele>
        <time>2021-08-07T12:06:09Z</time>
      </trkpt>
      <trkpt lat="47.85497" lon="-2.43991">
        <ele>24.2</ele>
        <time>2021-08-07T12:06:10Z</time>
      </trkpt>
      <trkpt lat="47.85501" lon="-2.4399">
        <ele>24.2</ele>
        <time>2021-08-07T12:06:11Z</time>
      </trkpt>
      <trkpt lat="47.85509" lon="-2.4399">
        <ele>24.2</ele>
        <time>2021-08-07T12:06:13Z</time>
      </trkpt>
      <trkpt lat="47.85513" lon="-2.43989">
        <ele>24.2</ele>
        <time>2021-08-07T12:06:14Z</time>
      </trkpt>
      <trkpt lat="47.85518" lon="-2.43989">
        <ele>24.2</ele>
        <time>2021-08-07T12:06:15Z</time>
      </trkpt>
      <trkpt lat="47.85526" lon="-2.43988">
        <ele>24.4</ele>
        <time>2021-08-07T12:06:17Z</time>
      </trkpt>
      <trkpt lat="47.85541" lon="-2.43986">
        <ele>24.4</ele>
        <time>2021-08-07T12:06:20Z</time>
      </trkpt>
      <trkpt lat="47.85546" lon="-2.43985">
        <ele>24.4</ele>
        <time>2021-08-07T12:06:21Z</time>
      </trkpt>
      <trkpt lat="47.85556" lon="-2.43983">
        <ele>24.4</ele>
        <time>2021-08-07T12:06:23Z</time>
      </trkpt>
      <trkpt lat="47.85569" lon="-2.43982">
        <ele>24.4</ele>
        <time>2021-08-07T12:06:26Z</time>
      </trkpt>
      <trkpt lat="47.85575" lon="-2.43981">
        <ele>24.6</ele>
        <time>2021-08-07T12:06:27Z</time>
      </trkpt>
      <trkpt lat="47.8558" lon="-2.4398">
        <ele>24.6</ele>
        <time>2021-08-07T12:06:28Z</time>
      </trkpt>
      <trkpt lat="47.85586" lon="-2.43979">
        <ele>24.6</ele>
        <time>2021-08-07T12:06:29Z</time>
      </trkpt>
      <trkpt lat="47.85592" lon="-2.43978">
        <ele>24.6</ele>
        <time>2021-08-07T12:06:30Z</time>
      </trkpt>
      <trkpt lat="47.85598" lon="-2.43977">
        <ele>24.6</ele>
        <time>2021-08-07T12:06:31Z</time>
      </trkpt>
      <trkpt lat="47.85603" lon="-2.43977">
        <ele>24.4</ele>
        <time>2021-08-07T12:06:32Z</time>
      </trkpt>
      <trkpt lat="47.85607" lon="-2.43976">
        <ele>24.2</ele>
        <time>2021-08-07T12:06:33Z</time>
      </trkpt>
      <trkpt lat="47.85612" lon="-2.43976">
        <ele>24.2</ele>
        <time>2021-08-07T12:06:34Z</time>
      </trkpt>
      <trkpt lat="47.85621" lon="-2.43976">
        <ele>24</ele>
        <time>2021-08-07T12:06:36Z</time>
      </trkpt>
      <trkpt lat="47.85625" lon="-2.43975">
        <ele>24</ele>
        <time>2021-08-07T12:06:37Z</time>
      </trkpt>
      <trkpt lat="47.85631" lon="-2.43975">
        <ele>24</ele>
        <time>2021-08-07T12:06:38Z</time>
      </trkpt>
      <trkpt lat="47.85636" lon="-2.43974">
        <ele>24</ele>
        <time>2021-08-07T12:06:39Z</time>
      </trkpt>
      <trkpt lat="47.85641" lon="-2.43973">
        <ele>24</ele>
        <time>2021-08-07T12:06:40Z</time>
      </trkpt>
      <trkpt lat="47.85647" lon="-2.43973">
        <ele>24</ele>
        <time>2021-08-07T12:06:41Z</time>
      </trkpt>
      <trkpt lat="47.85653" lon="-2.43972">
        <ele>24.2</ele>
        <time>2021-08-07T12:06:42Z</time>
      </trkpt>
      <trkpt lat="47.85658" lon="-2.43972">
        <ele>24.2</ele>
        <time>2021-08-07T12:06:43Z</time>
      </trkpt>
      <trkpt lat="47.85663" lon="-2.43971">
        <ele>24.2</ele>
        <time>2021-08-07T12:06:44Z</time>
      </trkpt>
      <trkpt lat="47.85673" lon="-2.4397">
        <ele>24.2</ele>
        <time>2021-08-07T12:06:46Z</time>
      </trkpt>
      <trkpt lat="47.85678" lon="-2.43969">
        <ele>24.2</ele>
        <time>2021-08-07T12:06:47Z</time>
      </trkpt>
      <trkpt lat="47.85682" lon="-2.43968">
        <ele>24.4</ele>
        <time>2021-08-07T12:06:48Z</time>
      </trkpt>
      <trkpt lat="47.85687" lon="-2.43967">
        <ele>24.4</ele>
        <time>2021-08-07T12:06:49Z</time>
      </trkpt>
      <trkpt lat="47.85691" lon="-2.43966">
        <ele>24.6</ele>
        <time>2021-08-07T12:06:50Z</time>
      </trkpt>
      <trkpt lat="47.85696" lon="-2.43965">
        <ele>24.6</ele>
        <time>2021-08-07T12:06:51Z</time>
      </trkpt>
      <trkpt lat="47.857" lon="-2.43965">
        <ele>24.6</ele>
        <time>2021-08-07T12:06:52Z</time>
      </trkpt>
      <trkpt lat="47.85705" lon="-2.43965">
        <ele>24.8</ele>
        <time>2021-08-07T12:06:53Z</time>
      </trkpt>
      <trkpt lat="47.85709" lon="-2.43965">
        <ele>24.8</ele>
        <time>2021-08-07T12:06:54Z</time>
      </trkpt>
      <trkpt lat="47.85714" lon="-2.43964">
        <ele>24.8</ele>
        <time>2021-08-07T12:06:55Z</time>
      </trkpt>
      <trkpt lat="47.85719" lon="-2.43964">
        <ele>25</ele>
        <time>2021-08-07T12:06:56Z</time>
      </trkpt>
      <trkpt lat="47.85724" lon="-2.43964">
        <ele>25</ele>
        <time>2021-08-07T12:06:57Z</time>
      </trkpt>
      <trkpt lat="47.85728" lon="-2.43963">
        <ele>25</ele>
        <time>2021-08-07T12:06:58Z</time>
      </trkpt>
      <trkpt lat="47.85733" lon="-2.43963">
        <ele>25</ele>
        <time>2021-08-07T12:06:59Z</time>
      </trkpt>
      <trkpt lat="47.85738" lon="-2.43962">
        <ele>25</ele>
        <time>2021-08-07T12:07:00Z</time>
      </trkpt>
      <trkpt lat="47.85743" lon="-2.43961">
        <ele>25</ele>
        <time>2021-08-07T12:07:01Z</time>
      </trkpt>
      <trkpt lat="47.85747" lon="-2.43961">
        <ele>25</ele>
        <time>2021-08-07T12:07:02Z</time>
      </trkpt>
      <trkpt lat="47.85752" lon="-2.4396">
        <ele>25</ele>
        <time>2021-08-07T12:07:03Z</time>
      </trkpt>
      <trkpt lat="47.85756" lon="-2.43959">
        <ele>25</ele>
        <time>2021-08-07T12:07:04Z</time>
      </trkpt>
      <trkpt lat="47.85765" lon="-2.43958">
        <ele>25</ele>
        <time>2021-08-07T12:07:06Z</time>
      </trkpt>
      <trkpt lat="47.85769" lon="-2.43958">
        <ele>25</ele>
        <time>2021-08-07T12:07:07Z</time>
      </trkpt>
      <trkpt lat="47.85773" lon="-2.43957">
        <ele>25</ele>
        <time>2021-08-07T12:07:08Z</time>
      </trkpt>
      <trkpt lat="47.85777" lon="-2.43957">
        <ele>25</ele>
        <time>2021-08-07T12:07:09Z</time>
      </trkpt>
      <trkpt lat="47.85781" lon="-2.43956">
        <ele>25</ele>
        <time>2021-08-07T12:07:10Z</time>
      </trkpt>
      <trkpt lat="47.85785" lon="-2.43956">
        <ele>25</ele>
        <time>2021-08-07T12:07:11Z</time>
      </trkpt>
      <trkpt lat="47.85789" lon="-2.43956">
        <ele>25</ele>
        <time>2021-08-07T12:07:12Z</time>
      </trkpt>
      <trkpt lat="47.85793" lon="-2.43955">
        <ele>25.2</ele>
        <time>2021-08-07T12:07:13Z</time>
      </trkpt>
      <trkpt lat="47.85802" lon="-2.43955">
        <ele>25.2</ele>
        <time>2021-08-07T12:07:15Z</time>
      </trkpt>
      <trkpt lat="47.85807" lon="-2.43955">
        <ele>25.2</ele>
        <time>2021-08-07T12:07:16Z</time>
      </trkpt>
      <trkpt lat="47.85811" lon="-2.43954">
        <ele>25.2</ele>
        <time>2021-08-07T12:07:17Z</time>
      </trkpt>
      <trkpt lat="47.85815" lon="-2.43953">
        <ele>25.2</ele>
        <time>2021-08-07T12:07:18Z</time>
      </trkpt>
      <trkpt lat="47.85819" lon="-2.43953">
        <ele>25.2</ele>
        <time>2021-08-07T12:07:19Z</time>
      </trkpt>
      <trkpt lat="47.85823" lon="-2.43952">
        <ele>25.2</ele>
        <time>2021-08-07T12:07:20Z</time>
      </trkpt>
      <trkpt lat="47.85827" lon="-2.43951">
        <ele>25.4</ele>
        <time>2021-08-07T12:07:21Z</time>
      </trkpt>
      <trkpt lat="47.8583" lon="-2.43949">
        <ele>25.4</ele>
        <time>2021-08-07T12:07:22Z</time>
      </trkpt>
      <trkpt lat="47.85832" lon="-2.43947">
        <ele>25.4</ele>
        <time>2021-08-07T12:07:23Z</time>
      </trkpt>
      <trkpt lat="47.85837" lon="-2.43946">
        <ele>25.4</ele>
        <time>2021-08-07T12:07:25Z</time>
      </trkpt>
      <trkpt lat="47.85839" lon="-2.43946">
        <ele>25.4</ele>
        <time>2021-08-07T12:07:26Z</time>
      </trkpt>
      <trkpt lat="47.85842" lon="-2.43945">
        <ele>25.4</ele>
        <time>2021-08-07T12:07:27Z</time>
      </trkpt>
      <trkpt lat="47.85844" lon="-2.43946">
        <ele>25.4</ele>
        <time>2021-08-07T12:07:28Z</time>
      </trkpt>
      <trkpt lat="47.85847" lon="-2.43947">
        <ele>25.4</ele>
        <time>2021-08-07T12:07:29Z</time>
      </trkpt>
      <trkpt lat="47.85851" lon="-2.43948">
        <ele>25.6</ele>
        <time>2021-08-07T12:07:30Z</time>
      </trkpt>
      <trkpt lat="47.85855" lon="-2.43948">
        <ele>25.6</ele>
        <time>2021-08-07T12:07:31Z</time>
      </trkpt>
      <trkpt lat="47.85859" lon="-2.43947">
        <ele>25.6</ele>
        <time>2021-08-07T12:07:32Z</time>
      </trkpt>
      <trkpt lat="47.85867" lon="-2.43946">
        <ele>25.6</ele>
        <time>2021-08-07T12:07:34Z</time>
      </trkpt>
      <trkpt lat="47.85871" lon="-2.43945">
        <ele>25.6</ele>
        <time>2021-08-07T12:07:35Z</time>
      </trkpt>
      <trkpt lat="47.85874" lon="-2.43945">
        <ele>25.6</ele>
        <time>2021-08-07T12:07:36Z</time>
      </trkpt>
      <trkpt lat="47.85878" lon="-2.43945">
        <ele>25.6</ele>
        <time>2021-08-07T12:07:37Z</time>
      </trkpt>
      <trkpt lat="47.85881" lon="-2.43945">
        <ele>25.6</ele>
        <time>2021-08-07T12:07:38Z</time>
      </trkpt>
      <trkpt lat="47.85884" lon="-2.43945">
        <ele>25.6</ele>
        <time>2021-08-07T12:07:39Z</time>
      </trkpt>
      <trkpt lat="47.85887" lon="-2.43945">
        <ele>25.8</ele>
        <time>2021-08-07T12:07:40Z</time>
      </trkpt>
      <trkpt lat="47.85889" lon="-2.43944">
        <ele>25.8</ele>
        <time>2021-08-07T12:07:41Z</time>
      </trkpt>
      <trkpt lat="47.85894" lon="-2.43943">
        <ele>25.8</ele>
        <time>2021-08-07T12:07:43Z</time>
      </trkpt>
      <trkpt lat="47.85896" lon="-2.43942">
        <ele>25.8</ele>
        <time>2021-08-07T12:07:44Z</time>
      </trkpt>
      <trkpt lat="47.85899" lon="-2.43941">
        <ele>25.8</ele>
        <time>2021-08-07T12:07:45Z</time>
      </trkpt>
      <trkpt lat="47.85902" lon="-2.43941">
        <ele>25.8</ele>
        <time>2021-08-07T12:07:46Z</time>
      </trkpt>
      <trkpt lat="47.85905" lon="-2.4394">
        <ele>26</ele>
        <time>2021-08-07T12:07:47Z</time>
      </trkpt>
      <trkpt lat="47.85908" lon="-2.4394">
        <ele>26</ele>
        <time>2021-08-07T12:07:48Z</time>
      </trkpt>
      <trkpt lat="47.85912" lon="-2.43939">
        <ele>26.2</ele>
        <time>2021-08-07T12:07:49Z</time>
      </trkpt>
      <trkpt lat="47.85915" lon="-2.43939">
        <ele>26.2</ele>
        <time>2021-08-07T12:07:50Z</time>
      </trkpt>
      <trkpt lat="47.85924" lon="-2.43938">
        <ele>26.2</ele>
        <time>2021-08-07T12:07:52Z</time>
      </trkpt>
      <trkpt lat="47.85928" lon="-2.43937">
        <ele>26.2</ele>
        <time>2021-08-07T12:07:53Z</time>
      </trkpt>
      <trkpt lat="47.85932" lon="-2.43936">
        <ele>26.2</ele>
        <time>2021-08-07T12:07:54Z</time>
      </trkpt>
      <trkpt lat="47.85937" lon="-2.43936">
        <ele>26.2</ele>
        <time>2021-08-07T12:07:55Z</time>
      </trkpt>
      <trkpt lat="47.85941" lon="-2.43935">
        <ele>26.2</ele>
        <time>2021-08-07T12:07:56Z</time>
      </trkpt>
      <trkpt lat="47.85946" lon="-2.43934">
        <ele>26.2</ele>
        <time>2021-08-07T12:07:57Z</time>
      </trkpt>
      <trkpt lat="47.8595" lon="-2.43934">
        <ele>26.2</ele>
        <time>2021-08-07T12:07:58Z</time>
      </trkpt>
      <trkpt lat="47.85955" lon="-2.43933">
        <ele>26</ele>
        <time>2021-08-07T12:07:59Z</time>
      </trkpt>
      <trkpt lat="47.85965" lon="-2.43932">
        <ele>26</ele>
        <time>2021-08-07T12:08:01Z</time>
      </trkpt>
      <trkpt lat="47.8597" lon="-2.43932">
        <ele>26</ele>
        <time>2021-08-07T12:08:02Z</time>
      </trkpt>
      <trkpt lat="47.85975" lon="-2.43931">
        <ele>25.8</ele>
        <time>2021-08-07T12:08:03Z</time>
      </trkpt>
      <trkpt lat="47.8598" lon="-2.4393">
        <ele>25.8</ele>
        <time>2021-08-07T12:08:04Z</time>
      </trkpt>
      <trkpt lat="47.85985" lon="-2.4393">
        <ele>25.8</ele>
        <time>2021-08-07T12:08:05Z</time>
      </trkpt>
      <trkpt lat="47.8599" lon="-2.43929">
        <ele>25.8</ele>
        <time>2021-08-07T12:08:06Z</time>
      </trkpt>
      <trkpt lat="47.85995" lon="-2.43928">
        <ele>25.8</ele>
        <time>2021-08-07T12:08:07Z</time>
      </trkpt>
      <trkpt lat="47.86" lon="-2.43927">
        <ele>25.8</ele>
        <time>2021-08-07T12:08:08Z</time>
      </trkpt>
      <trkpt lat="47.86011" lon="-2.43926">
        <ele>25.8</ele>
        <time>2021-08-07T12:08:10Z</time>
      </trkpt>
      <trkpt lat="47.86016" lon="-2.43925">
        <ele>25.8</ele>
        <time>2021-08-07T12:08:11Z</time>
      </trkpt>
      <trkpt lat="47.86021" lon="-2.43925">
        <ele>25.6</ele>
        <time>2021-08-07T12:08:12Z</time>
      </trkpt>
      <trkpt lat="47.86026" lon="-2.43924">
        <ele>25.6</ele>
        <time>2021-08-07T12:08:13Z</time>
      </trkpt>
      <trkpt lat="47.86031" lon="-2.43923">
        <ele>25.6</ele>
        <time>2021-08-07T12:08:14Z</time>
      </trkpt>
      <trkpt lat="47.86035" lon="-2.43923">
        <ele>25.6</ele>
        <time>2021-08-07T12:08:15Z</time>
      </trkpt>
      <trkpt lat="47.86039" lon="-2.43923">
        <ele>25.6</ele>
        <time>2021-08-07T12:08:16Z</time>
      </trkpt>
      <trkpt lat="47.86043" lon="-2.43922">
        <ele>25.6</ele>
        <time>2021-08-07T12:08:17Z</time>
      </trkpt>
      <trkpt lat="47.86052" lon="-2.4392">
        <ele>25.6</ele>
        <time>2021-08-07T12:08:19Z</time>
      </trkpt>
      <trkpt lat="47.86056" lon="-2.43919">
        <ele>25.6</ele>
        <time>2021-08-07T12:08:20Z</time>
      </trkpt>
      <trkpt lat="47.86061" lon="-2.43918">
        <ele>25.6</ele>
        <time>2021-08-07T12:08:21Z</time>
      </trkpt>
      <trkpt lat="47.86066" lon="-2.43918">
        <ele>25.6</ele>
        <time>2021-08-07T12:08:22Z</time>
      </trkpt>
      <trkpt lat="47.86071" lon="-2.43917">
        <ele>25.6</ele>
        <time>2021-08-07T12:08:23Z</time>
      </trkpt>
      <trkpt lat="47.86077" lon="-2.43916">
        <ele>25.6</ele>
        <time>2021-08-07T12:08:24Z</time>
      </trkpt>
      <trkpt lat="47.86082" lon="-2.43915">
        <ele>25.6</ele>
        <time>2021-08-07T12:08:25Z</time>
      </trkpt>
      <trkpt lat="47.86087" lon="-2.43915">
        <ele>25.6</ele>
        <time>2021-08-07T12:08:26Z</time>
      </trkpt>
      <trkpt lat="47.86092" lon="-2.43914">
        <ele>25.6</ele>
        <time>2021-08-07T12:08:27Z</time>
      </trkpt>
      <trkpt lat="47.86102" lon="-2.43913">
        <ele>25.6</ele>
        <time>2021-08-07T12:08:29Z</time>
      </trkpt>
      <trkpt lat="47.86107" lon="-2.43912">
        <ele>25.6</ele>
        <time>2021-08-07T12:08:30Z</time>
      </trkpt>
      <trkpt lat="47.86112" lon="-2.43911">
        <ele>25.6</ele>
        <time>2021-08-07T12:08:31Z</time>
      </trkpt>
      <trkpt lat="47.86117" lon="-2.43911">
        <ele>25.8</ele>
        <time>2021-08-07T12:08:32Z</time>
      </trkpt>
      <trkpt lat="47.86122" lon="-2.4391">
        <ele>25.8</ele>
        <time>2021-08-07T12:08:33Z</time>
      </trkpt>
      <trkpt lat="47.86127" lon="-2.43909">
        <ele>25.8</ele>
        <time>2021-08-07T12:08:34Z</time>
      </trkpt>
      <trkpt lat="47.86132" lon="-2.43908">
        <ele>25.8</ele>
        <time>2021-08-07T12:08:35Z</time>
      </trkpt>
      <trkpt lat="47.86137" lon="-2.43907">
        <ele>26</ele>
        <time>2021-08-07T12:08:36Z</time>
      </trkpt>
      <trkpt lat="47.86148" lon="-2.43906">
        <ele>26</ele>
        <time>2021-08-07T12:08:38Z</time>
      </trkpt>
      <trkpt lat="47.86153" lon="-2.43905">
        <ele>26</ele>
        <time>2021-08-07T12:08:39Z</time>
      </trkpt>
      <trkpt lat="47.86158" lon="-2.43904">
        <ele>26</ele>
        <time>2021-08-07T12:08:40Z</time>
      </trkpt>
      <trkpt lat="47.86164" lon="-2.43903">
        <ele>26</ele>
        <time>2021-08-07T12:08:41Z</time>
      </trkpt>
      <trkpt lat="47.86169" lon="-2.43902">
        <ele>26</ele>
        <time>2021-08-07T12:08:42Z</time>
      </trkpt>
      <trkpt lat="47.86174" lon="-2.43901">
        <ele>26</ele>
        <time>2021-08-07T12:08:43Z</time>
      </trkpt>
      <trkpt lat="47.8618" lon="-2.43901">
        <ele>26</ele>
        <time>2021-08-07T12:08:44Z</time>
      </trkpt>
      <trkpt lat="47.86185" lon="-2.439">
        <ele>26</ele>
        <time>2021-08-07T12:08:45Z</time>
      </trkpt>
      <trkpt lat="47.86196" lon="-2.43899">
        <ele>25.8</ele>
        <time>2021-08-07T12:08:47Z</time>
      </trkpt>
      <trkpt lat="47.86201" lon="-2.43898">
        <ele>26</ele>
        <time>2021-08-07T12:08:48Z</time>
      </trkpt>
      <trkpt lat="47.86206" lon="-2.43898">
        <ele>25.8</ele>
        <time>2021-08-07T12:08:49Z</time>
      </trkpt>
      <trkpt lat="47.86211" lon="-2.43897">
        <ele>25.8</ele>
        <time>2021-08-07T12:08:50Z</time>
      </trkpt>
      <trkpt lat="47.86216" lon="-2.43896">
        <ele>25.8</ele>
        <time>2021-08-07T12:08:51Z</time>
      </trkpt>
      <trkpt lat="47.86222" lon="-2.43896">
        <ele>25.8</ele>
        <time>2021-08-07T12:08:52Z</time>
      </trkpt>
      <trkpt lat="47.86227" lon="-2.43895">
        <ele>25.8</ele>
        <time>2021-08-07T12:08:53Z</time>
      </trkpt>
      <trkpt lat="47.86232" lon="-2.43894">
        <ele>25.8</ele>
        <time>2021-08-07T12:08:54Z</time>
      </trkpt>
      <trkpt lat="47.86242" lon="-2.43893">
        <ele>25.8</ele>
        <time>2021-08-07T12:08:56Z</time>
      </trkpt>
      <trkpt lat="47.86248" lon="-2.43892">
        <ele>25.8</ele>
        <time>2021-08-07T12:08:57Z</time>
      </trkpt>
      <trkpt lat="47.86253" lon="-2.43891">
        <ele>25.8</ele>
        <time>2021-08-07T12:08:58Z</time>
      </trkpt>
      <trkpt lat="47.86258" lon="-2.4389">
        <ele>25.8</ele>
        <time>2021-08-07T12:08:59Z</time>
      </trkpt>
      <trkpt lat="47.86263" lon="-2.4389">
        <ele>25.8</ele>
        <time>2021-08-07T12:09:00Z</time>
      </trkpt>
      <trkpt lat="47.86268" lon="-2.43889">
        <ele>25.8</ele>
        <time>2021-08-07T12:09:01Z</time>
      </trkpt>
      <trkpt lat="47.86273" lon="-2.43888">
        <ele>25.8</ele>
        <time>2021-08-07T12:09:02Z</time>
      </trkpt>
      <trkpt lat="47.86278" lon="-2.43887">
        <ele>25.8</ele>
        <time>2021-08-07T12:09:03Z</time>
      </trkpt>
      <trkpt lat="47.86289" lon="-2.43886">
        <ele>25.8</ele>
        <time>2021-08-07T12:09:05Z</time>
      </trkpt>
      <trkpt lat="47.86294" lon="-2.43885">
        <ele>25.8</ele>
        <time>2021-08-07T12:09:06Z</time>
      </trkpt>
      <trkpt lat="47.86299" lon="-2.43885">
        <ele>25.8</ele>
        <time>2021-08-07T12:09:07Z</time>
      </trkpt>
      <trkpt lat="47.86304" lon="-2.43884">
        <ele>25.8</ele>
        <time>2021-08-07T12:09:08Z</time>
      </trkpt>
      <trkpt lat="47.86309" lon="-2.43884">
        <ele>25.8</ele>
        <time>2021-08-07T12:09:09Z</time>
      </trkpt>
      <trkpt lat="47.86314" lon="-2.43883">
        <ele>25.8</ele>
        <time>2021-08-07T12:09:10Z</time>
      </trkpt>
      <trkpt lat="47.86319" lon="-2.43882">
        <ele>25.8</ele>
        <time>2021-08-07T12:09:11Z</time>
      </trkpt>
      <trkpt lat="47.86325" lon="-2.43882">
        <ele>25.8</ele>
        <time>2021-08-07T12:09:12Z</time>
      </trkpt>
      <trkpt lat="47.8633" lon="-2.43881">
        <ele>25.8</ele>
        <time>2021-08-07T12:09:13Z</time>
      </trkpt>
      <trkpt lat="47.8634" lon="-2.43881">
        <ele>25.8</ele>
        <time>2021-08-07T12:09:15Z</time>
      </trkpt>
      <trkpt lat="47.86345" lon="-2.4388">
        <ele>25.8</ele>
        <time>2021-08-07T12:09:16Z</time>
      </trkpt>
      <trkpt lat="47.8635" lon="-2.43879">
        <ele>25.8</ele>
        <time>2021-08-07T12:09:17Z</time>
      </trkpt>
      <trkpt lat="47.86355" lon="-2.43879">
        <ele>25.8</ele>
        <time>2021-08-07T12:09:18Z</time>
      </trkpt>
      <trkpt lat="47.8636" lon="-2.43878">
        <ele>25.8</ele>
        <time>2021-08-07T12:09:19Z</time>
      </trkpt>
      <trkpt lat="47.86365" lon="-2.43878">
        <ele>25.6</ele>
        <time>2021-08-07T12:09:20Z</time>
      </trkpt>
      <trkpt lat="47.8637" lon="-2.43877">
        <ele>25.6</ele>
        <time>2021-08-07T12:09:21Z</time>
      </trkpt>
      <trkpt lat="47.86375" lon="-2.43877">
        <ele>25.6</ele>
        <time>2021-08-07T12:09:22Z</time>
      </trkpt>
      <trkpt lat="47.86385" lon="-2.43875">
        <ele>25.6</ele>
        <time>2021-08-07T12:09:24Z</time>
      </trkpt>
      <trkpt lat="47.8639" lon="-2.43875">
        <ele>25.6</ele>
        <time>2021-08-07T12:09:25Z</time>
      </trkpt>
      <trkpt lat="47.86395" lon="-2.43874">
        <ele>25.8</ele>
        <time>2021-08-07T12:09:26Z</time>
      </trkpt>
      <trkpt lat="47.864" lon="-2.43873">
        <ele>25.8</ele>
        <time>2021-08-07T12:09:27Z</time>
      </trkpt>
      <trkpt lat="47.86405" lon="-2.43873">
        <ele>25.8</ele>
        <time>2021-08-07T12:09:28Z</time>
      </trkpt>
      <trkpt lat="47.8641" lon="-2.43872">
        <ele>25.6</ele>
        <time>2021-08-07T12:09:29Z</time>
      </trkpt>
      <trkpt lat="47.86415" lon="-2.43871">
        <ele>25.6</ele>
        <time>2021-08-07T12:09:30Z</time>
      </trkpt>
      <trkpt lat="47.86419" lon="-2.4387">
        <ele>25.6</ele>
        <time>2021-08-07T12:09:31Z</time>
      </trkpt>
      <trkpt lat="47.86428" lon="-2.43869">
        <ele>25.8</ele>
        <time>2021-08-07T12:09:33Z</time>
      </trkpt>
      <trkpt lat="47.86433" lon="-2.43869">
        <ele>25.8</ele>
        <time>2021-08-07T12:09:34Z</time>
      </trkpt>
      <trkpt lat="47.86437" lon="-2.43868">
        <ele>25.8</ele>
        <time>2021-08-07T12:09:35Z</time>
      </trkpt>
      <trkpt lat="47.86441" lon="-2.43868">
        <ele>26</ele>
        <time>2021-08-07T12:09:36Z</time>
      </trkpt>
      <trkpt lat="47.86445" lon="-2.43867">
        <ele>26</ele>
        <time>2021-08-07T12:09:37Z</time>
      </trkpt>
      <trkpt lat="47.86449" lon="-2.43867">
        <ele>26</ele>
        <time>2021-08-07T12:09:38Z</time>
      </trkpt>
      <trkpt lat="47.86453" lon="-2.43867">
        <ele>26</ele>
        <time>2021-08-07T12:09:39Z</time>
      </trkpt>
      <trkpt lat="47.86457" lon="-2.43867">
        <ele>26.2</ele>
        <time>2021-08-07T12:09:40Z</time>
      </trkpt>
      <trkpt lat="47.8646" lon="-2.43865">
        <ele>26.2</ele>
        <time>2021-08-07T12:09:41Z</time>
      </trkpt>
      <trkpt lat="47.86465" lon="-2.43861">
        <ele>26.2</ele>
        <time>2021-08-07T12:09:43Z</time>
      </trkpt>
      <trkpt lat="47.86467" lon="-2.43862">
        <ele>26.2</ele>
        <time>2021-08-07T12:09:44Z</time>
      </trkpt>
      <trkpt lat="47.86469" lon="-2.43862">
        <ele>26.2</ele>
        <time>2021-08-07T12:09:45Z</time>
      </trkpt>
      <trkpt lat="47.86472" lon="-2.43861">
        <ele>26.4</ele>
        <time>2021-08-07T12:09:46Z</time>
      </trkpt>
      <trkpt lat="47.86474" lon="-2.43861">
        <ele>26.6</ele>
        <time>2021-08-07T12:09:47Z</time>
      </trkpt>
      <trkpt lat="47.86477" lon="-2.4386">
        <ele>26.8</ele>
        <time>2021-08-07T12:09:48Z</time>
      </trkpt>
      <trkpt lat="47.8648" lon="-2.4386">
        <ele>26.8</ele>
        <time>2021-08-07T12:09:49Z</time>
      </trkpt>
      <trkpt lat="47.86483" lon="-2.43861">
        <ele>27</ele>
        <time>2021-08-07T12:09:50Z</time>
      </trkpt>
      <trkpt lat="47.86486" lon="-2.43862">
        <ele>27</ele>
        <time>2021-08-07T12:09:51Z</time>
      </trkpt>
      <trkpt lat="47.86493" lon="-2.43862">
        <ele>27</ele>
        <time>2021-08-07T12:09:53Z</time>
      </trkpt>
      <trkpt lat="47.86497" lon="-2.43862">
        <ele>27</ele>
        <time>2021-08-07T12:09:54Z</time>
      </trkpt>
      <trkpt lat="47.86501" lon="-2.43861">
        <ele>27</ele>
        <time>2021-08-07T12:09:55Z</time>
      </trkpt>
      <trkpt lat="47.86504" lon="-2.43861">
        <ele>27</ele>
        <time>2021-08-07T12:09:56Z</time>
      </trkpt>
      <trkpt lat="47.86508" lon="-2.4386">
        <ele>27</ele>
        <time>2021-08-07T12:09:57Z</time>
      </trkpt>
      <trkpt lat="47.86512" lon="-2.4386">
        <ele>26.8</ele>
        <time>2021-08-07T12:09:58Z</time>
      </trkpt>
      <trkpt lat="47.86515" lon="-2.43859">
        <ele>26.8</ele>
        <time>2021-08-07T12:09:59Z</time>
      </trkpt>
      <trkpt lat="47.86519" lon="-2.43859">
        <ele>26.8</ele>
        <time>2021-08-07T12:10:00Z</time>
      </trkpt>
      <trkpt lat="47.86526" lon="-2.43857">
        <ele>26.6</ele>
        <time>2021-08-07T12:10:02Z</time>
      </trkpt>
      <trkpt lat="47.8653" lon="-2.43857">
        <ele>26.6</ele>
        <time>2021-08-07T12:10:03Z</time>
      </trkpt>
      <trkpt lat="47.86534" lon="-2.43856">
        <ele>26.4</ele>
        <time>2021-08-07T12:10:04Z</time>
      </trkpt>
      <trkpt lat="47.86538" lon="-2.43856">
        <ele>26.4</ele>
        <time>2021-08-07T12:10:05Z</time>
      </trkpt>
      <trkpt lat="47.86543" lon="-2.43855">
        <ele>26.4</ele>
        <time>2021-08-07T12:10:06Z</time>
      </trkpt>
      <trkpt lat="47.86547" lon="-2.43854">
        <ele>26.4</ele>
        <time>2021-08-07T12:10:07Z</time>
      </trkpt>
      <trkpt lat="47.86551" lon="-2.43854">
        <ele>26.4</ele>
        <time>2021-08-07T12:10:08Z</time>
      </trkpt>
      <trkpt lat="47.86555" lon="-2.43854">
        <ele>26.4</ele>
        <time>2021-08-07T12:10:09Z</time>
      </trkpt>
      <trkpt lat="47.86559" lon="-2.43853">
        <ele>26.4</ele>
        <time>2021-08-07T12:10:10Z</time>
      </trkpt>
      <trkpt lat="47.86567" lon="-2.43852">
        <ele>26.4</ele>
        <time>2021-08-07T12:10:12Z</time>
      </trkpt>
      <trkpt lat="47.86572" lon="-2.43851">
        <ele>26.4</ele>
        <time>2021-08-07T12:10:13Z</time>
      </trkpt>
      <trkpt lat="47.86576" lon="-2.43851">
        <ele>26.4</ele>
        <time>2021-08-07T12:10:14Z</time>
      </trkpt>
      <trkpt lat="47.8658" lon="-2.4385">
        <ele>26.4</ele>
        <time>2021-08-07T12:10:15Z</time>
      </trkpt>
      <trkpt lat="47.86584" lon="-2.4385">
        <ele>26.4</ele>
        <time>2021-08-07T12:10:16Z</time>
      </trkpt>
      <trkpt lat="47.86588" lon="-2.43849">
        <ele>26.4</ele>
        <time>2021-08-07T12:10:17Z</time>
      </trkpt>
      <trkpt lat="47.86592" lon="-2.43848">
        <ele>26.4</ele>
        <time>2021-08-07T12:10:18Z</time>
      </trkpt>
      <trkpt lat="47.86596" lon="-2.43848">
        <ele>26.6</ele>
        <time>2021-08-07T12:10:19Z</time>
      </trkpt>
      <trkpt lat="47.866" lon="-2.43847">
        <ele>26.6</ele>
        <time>2021-08-07T12:10:20Z</time>
      </trkpt>
      <trkpt lat="47.86608" lon="-2.43846">
        <ele>26.8</ele>
        <time>2021-08-07T12:10:22Z</time>
      </trkpt>
      <trkpt lat="47.86612" lon="-2.43846">
        <ele>26.6</ele>
        <time>2021-08-07T12:10:23Z</time>
      </trkpt>
      <trkpt lat="47.86616" lon="-2.43845">
        <ele>26.6</ele>
        <time>2021-08-07T12:10:24Z</time>
      </trkpt>
      <trkpt lat="47.8662" lon="-2.43845">
        <ele>26.6</ele>
        <time>2021-08-07T12:10:25Z</time>
      </trkpt>
      <trkpt lat="47.86624" lon="-2.43844">
        <ele>26.6</ele>
        <time>2021-08-07T12:10:26Z</time>
      </trkpt>
      <trkpt lat="47.86629" lon="-2.43844">
        <ele>26.8</ele>
        <time>2021-08-07T12:10:27Z</time>
      </trkpt>
      <trkpt lat="47.86633" lon="-2.43843">
        <ele>26.8</ele>
        <time>2021-08-07T12:10:28Z</time>
      </trkpt>
      <trkpt lat="47.86637" lon="-2.43843">
        <ele>26.8</ele>
        <time>2021-08-07T12:10:29Z</time>
      </trkpt>
      <trkpt lat="47.86641" lon="-2.43842">
        <ele>26.8</ele>
        <time>2021-08-07T12:10:30Z</time>
      </trkpt>
      <trkpt lat="47.86645" lon="-2.43842">
        <ele>26.8</ele>
        <time>2021-08-07T12:10:31Z</time>
      </trkpt>
      <trkpt lat="47.86649" lon="-2.43841">
        <ele>26.8</ele>
        <time>2021-08-07T12:10:32Z</time>
      </trkpt>
      <trkpt lat="47.86654" lon="-2.4384">
        <ele>26.8</ele>
        <time>2021-08-07T12:10:33Z</time>
      </trkpt>
      <trkpt lat="47.86657" lon="-2.4384">
        <ele>26.8</ele>
        <time>2021-08-07T12:10:34Z</time>
      </trkpt>
      <trkpt lat="47.86661" lon="-2.43839">
        <ele>27</ele>
        <time>2021-08-07T12:10:35Z</time>
      </trkpt>
      <trkpt lat="47.86664" lon="-2.43838">
        <ele>27</ele>
        <time>2021-08-07T12:10:36Z</time>
      </trkpt>
      <trkpt lat="47.86668" lon="-2.43837">
        <ele>27.2</ele>
        <time>2021-08-07T12:10:37Z</time>
      </trkpt>
      <trkpt lat="47.86671" lon="-2.43836">
        <ele>27.4</ele>
        <time>2021-08-07T12:10:38Z</time>
      </trkpt>
      <trkpt lat="47.86674" lon="-2.43835">
        <ele>27.4</ele>
        <time>2021-08-07T12:10:39Z</time>
      </trkpt>
      <trkpt lat="47.86677" lon="-2.43834">
        <ele>27.6</ele>
        <time>2021-08-07T12:10:40Z</time>
      </trkpt>
      <trkpt lat="47.86685" lon="-2.43834">
        <ele>27.8</ele>
        <time>2021-08-07T12:10:42Z</time>
      </trkpt>
      <trkpt lat="47.86689" lon="-2.43834">
        <ele>28</ele>
        <time>2021-08-07T12:10:43Z</time>
      </trkpt>
      <trkpt lat="47.86693" lon="-2.43833">
        <ele>28</ele>
        <time>2021-08-07T12:10:44Z</time>
      </trkpt>
      <trkpt lat="47.86696" lon="-2.43833">
        <ele>28</ele>
        <time>2021-08-07T12:10:45Z</time>
      </trkpt>
      <trkpt lat="47.867" lon="-2.43833">
        <ele>28</ele>
        <time>2021-08-07T12:10:46Z</time>
      </trkpt>
      <trkpt lat="47.86703" lon="-2.43832">
        <ele>28.2</ele>
        <time>2021-08-07T12:10:47Z</time>
      </trkpt>
      <trkpt lat="47.86706" lon="-2.43832">
        <ele>28.2</ele>
        <time>2021-08-07T12:10:48Z</time>
      </trkpt>
      <trkpt lat="47.86709" lon="-2.43833">
        <ele>28.2</ele>
        <time>2021-08-07T12:10:49Z</time>
      </trkpt>
      <trkpt lat="47.86711" lon="-2.43833">
        <ele>28.4</ele>
        <time>2021-08-07T12:10:50Z</time>
      </trkpt>
      <trkpt lat="47.86712" lon="-2.43833">
        <ele>28.6</ele>
        <time>2021-08-07T12:10:51Z</time>
      </trkpt>
      <trkpt lat="47.86713" lon="-2.43833">
        <ele>29.2</ele>
        <time>2021-08-07T12:10:52Z</time>
      </trkpt>
      <trkpt lat="47.86714" lon="-2.43831">
        <ele>31.2</ele>
        <time>2021-08-07T12:11:20Z</time>
      </trkpt>
      <trkpt lat="47.86714" lon="-2.43831">
        <ele>31.2</ele>
        <time>2021-08-07T12:11:21Z</time>
      </trkpt>
      <trkpt lat="47.86713" lon="-2.43832">
        <ele>30.4</ele>
        <time>2021-08-07T12:11:26Z</time>
      </trkpt>
      <trkpt lat="47.86713" lon="-2.43832">
        <ele>30.2</ele>
        <time>2021-08-07T12:11:27Z</time>
      </trkpt>
      <trkpt lat="47.86713" lon="-2.43832">
        <ele>30</ele>
        <time>2021-08-07T12:11:28Z</time>
      </trkpt>
      <trkpt lat="47.86704" lon="-2.43834">
        <ele>29.4</ele>
        <time>2021-08-07T12:11:37Z</time>
      </trkpt>
      <trkpt lat="47.86699" lon="-2.43835">
        <ele>29.4</ele>
        <time>2021-08-07T12:11:39Z</time>
      </trkpt>
      <trkpt lat="47.86696" lon="-2.43836">
        <ele>29.2</ele>
        <time>2021-08-07T12:11:40Z</time>
      </trkpt>
      <trkpt lat="47.86694" lon="-2.43836">
        <ele>29</ele>
        <time>2021-08-07T12:11:41Z</time>
      </trkpt>
      <trkpt lat="47.86691" lon="-2.43837">
        <ele>28.8</ele>
        <time>2021-08-07T12:11:42Z</time>
      </trkpt>
      <trkpt lat="47.86689" lon="-2.43837">
        <ele>28.8</ele>
        <time>2021-08-07T12:11:43Z</time>
      </trkpt>
      <trkpt lat="47.86686" lon="-2.43837">
        <ele>28.8</ele>
        <time>2021-08-07T12:11:44Z</time>
      </trkpt>
      <trkpt lat="47.86684" lon="-2.43836">
        <ele>28.8</ele>
        <time>2021-08-07T12:11:45Z</time>
      </trkpt>
      <trkpt lat="47.86682" lon="-2.43836">
        <ele>28.8</ele>
        <time>2021-08-07T12:11:46Z</time>
      </trkpt>
      <trkpt lat="47.86679" lon="-2.43837">
        <ele>28.8</ele>
        <time>2021-08-07T12:11:47Z</time>
      </trkpt>
      <trkpt lat="47.86677" lon="-2.43837">
        <ele>28.6</ele>
        <time>2021-08-07T12:11:48Z</time>
      </trkpt>
      <trkpt lat="47.86674" lon="-2.43838">
        <ele>28.6</ele>
        <time>2021-08-07T12:11:49Z</time>
      </trkpt>
      <trkpt lat="47.86671" lon="-2.43838">
        <ele>28.6</ele>
        <time>2021-08-07T12:11:50Z</time>
      </trkpt>
      <trkpt lat="47.86668" lon="-2.43839">
        <ele>28.4</ele>
        <time>2021-08-07T12:11:51Z</time>
      </trkpt>
      <trkpt lat="47.86665" lon="-2.4384">
        <ele>28.4</ele>
        <time>2021-08-07T12:11:52Z</time>
      </trkpt>
      <trkpt lat="47.86662" lon="-2.43842">
        <ele>28.4</ele>
        <time>2021-08-07T12:11:53Z</time>
      </trkpt>
      <trkpt lat="47.86658" lon="-2.43843">
        <ele>28.4</ele>
        <time>2021-08-07T12:11:54Z</time>
      </trkpt>
      <trkpt lat="47.86653" lon="-2.43844">
        <ele>28.2</ele>
        <time>2021-08-07T12:11:55Z</time>
      </trkpt>
      <trkpt lat="47.86649" lon="-2.43844">
        <ele>28.2</ele>
        <time>2021-08-07T12:11:56Z</time>
      </trkpt>
      <trkpt lat="47.86644" lon="-2.43844">
        <ele>28.2</ele>
        <time>2021-08-07T12:11:57Z</time>
      </trkpt>
      <trkpt lat="47.86639" lon="-2.43844">
        <ele>28.2</ele>
        <time>2021-08-07T12:11:58Z</time>
      </trkpt>
      <trkpt lat="47.86633" lon="-2.43845">
        <ele>27.8</ele>
        <time>2021-08-07T12:11:59Z</time>
      </trkpt>
      <trkpt lat="47.86628" lon="-2.43845">
        <ele>27.6</ele>
        <time>2021-08-07T12:12:00Z</time>
      </trkpt>
      <trkpt lat="47.86623" lon="-2.43846">
        <ele>27.4</ele>
        <time>2021-08-07T12:12:01Z</time>
      </trkpt>
      <trkpt lat="47.86617" lon="-2.43847">
        <ele>27</ele>
        <time>2021-08-07T12:12:02Z</time>
      </trkpt>
      <trkpt lat="47.86612" lon="-2.43848">
        <ele>26.4</ele>
        <time>2021-08-07T12:12:03Z</time>
      </trkpt>
      <trkpt lat="47.86602" lon="-2.4385">
        <ele>25.8</ele>
        <time>2021-08-07T12:12:05Z</time>
      </trkpt>
      <trkpt lat="47.86597" lon="-2.43851">
        <ele>25.6</ele>
        <time>2021-08-07T12:12:06Z</time>
      </trkpt>
      <trkpt lat="47.86592" lon="-2.43852">
        <ele>25.6</ele>
        <time>2021-08-07T12:12:07Z</time>
      </trkpt>
      <trkpt lat="47.86587" lon="-2.43853">
        <ele>25.4</ele>
        <time>2021-08-07T12:12:08Z</time>
      </trkpt>
      <trkpt lat="47.86582" lon="-2.43854">
        <ele>25.4</ele>
        <time>2021-08-07T12:12:09Z</time>
      </trkpt>
      <trkpt lat="47.86577" lon="-2.43855">
        <ele>25.4</ele>
        <time>2021-08-07T12:12:10Z</time>
      </trkpt>
      <trkpt lat="47.86572" lon="-2.43856">
        <ele>25.4</ele>
        <time>2021-08-07T12:12:11Z</time>
      </trkpt>
      <trkpt lat="47.86567" lon="-2.43857">
        <ele>25.4</ele>
        <time>2021-08-07T12:12:12Z</time>
      </trkpt>
      <trkpt lat="47.86564" lon="-2.43857">
        <ele>25.4</ele>
        <time>2021-08-07T12:12:13Z</time>
      </trkpt>
      <trkpt lat="47.86561" lon="-2.43855">
        <ele>25.4</ele>
        <time>2021-08-07T12:12:15Z</time>
      </trkpt>
      <trkpt lat="47.86561" lon="-2.43853">
        <ele>25.4</ele>
        <time>2021-08-07T12:12:16Z</time>
      </trkpt>
      <trkpt lat="47.86562" lon="-2.43851">
        <ele>25.4</ele>
        <time>2021-08-07T12:12:17Z</time>
      </trkpt>
      <trkpt lat="47.86564" lon="-2.43849">
        <ele>25.4</ele>
        <time>2021-08-07T12:12:18Z</time>
      </trkpt>
      <trkpt lat="47.86567" lon="-2.43848">
        <ele>25.6</ele>
        <time>2021-08-07T12:12:19Z</time>
      </trkpt>
      <trkpt lat="47.8657" lon="-2.43847">
        <ele>25.8</ele>
        <time>2021-08-07T12:12:20Z</time>
      </trkpt>
      <trkpt lat="47.86573" lon="-2.43847">
        <ele>26</ele>
        <time>2021-08-07T12:12:21Z</time>
      </trkpt>
      <trkpt lat="47.86576" lon="-2.43845">
        <ele>26</ele>
        <time>2021-08-07T12:12:22Z</time>
      </trkpt>
      <trkpt lat="47.86585" lon="-2.43842">
        <ele>26</ele>
        <time>2021-08-07T12:12:24Z</time>
      </trkpt>
      <trkpt lat="47.86589" lon="-2.4384">
        <ele>26</ele>
        <time>2021-08-07T12:12:25Z</time>
      </trkpt>
      <trkpt lat="47.86594" lon="-2.43839">
        <ele>26</ele>
        <time>2021-08-07T12:12:26Z</time>
      </trkpt>
      <trkpt lat="47.86599" lon="-2.43837">
        <ele>26</ele>
        <time>2021-08-07T12:12:27Z</time>
      </trkpt>
      <trkpt lat="47.86605" lon="-2.43836">
        <ele>26</ele>
        <time>2021-08-07T12:12:28Z</time>
      </trkpt>
      <trkpt lat="47.86611" lon="-2.43834">
        <ele>26</ele>
        <time>2021-08-07T12:12:29Z</time>
      </trkpt>
      <trkpt lat="47.86616" lon="-2.43832">
        <ele>25.8</ele>
        <time>2021-08-07T12:12:30Z</time>
      </trkpt>
      <trkpt lat="47.86621" lon="-2.4383">
        <ele>25.4</ele>
        <time>2021-08-07T12:12:31Z</time>
      </trkpt>
      <trkpt lat="47.86631" lon="-2.43827">
        <ele>24.6</ele>
        <time>2021-08-07T12:12:33Z</time>
      </trkpt>
      <trkpt lat="47.86636" lon="-2.43826">
        <ele>24.4</ele>
        <time>2021-08-07T12:12:34Z</time>
      </trkpt>
      <trkpt lat="47.8664" lon="-2.43826">
        <ele>24.2</ele>
        <time>2021-08-07T12:12:35Z</time>
      </trkpt>
      <trkpt lat="47.86644" lon="-2.43825">
        <ele>24</ele>
        <time>2021-08-07T12:12:36Z</time>
      </trkpt>
      <trkpt lat="47.86648" lon="-2.43824">
        <ele>23.8</ele>
        <time>2021-08-07T12:12:37Z</time>
      </trkpt>
      <trkpt lat="47.86652" lon="-2.43823">
        <ele>23.6</ele>
        <time>2021-08-07T12:12:38Z</time>
      </trkpt>
      <trkpt lat="47.86656" lon="-2.43822">
        <ele>23.6</ele>
        <time>2021-08-07T12:12:39Z</time>
      </trkpt>
      <trkpt lat="47.8666" lon="-2.43822">
        <ele>23.6</ele>
        <time>2021-08-07T12:12:40Z</time>
      </trkpt>
      <trkpt lat="47.86668" lon="-2.43822">
        <ele>23.4</ele>
        <time>2021-08-07T12:12:42Z</time>
      </trkpt>
      <trkpt lat="47.86671" lon="-2.43822">
        <ele>23.4</ele>
        <time>2021-08-07T12:12:43Z</time>
      </trkpt>
      <trkpt lat="47.86675" lon="-2.43823">
        <ele>23.4</ele>
        <time>2021-08-07T12:12:44Z</time>
      </trkpt>
      <trkpt lat="47.86678" lon="-2.43822">
        <ele>23.4</ele>
        <time>2021-08-07T12:12:45Z</time>
      </trkpt>
      <trkpt lat="47.86681" lon="-2.4382">
        <ele>23.4</ele>
        <time>2021-08-07T12:12:46Z</time>
      </trkpt>
      <trkpt lat="47.86683" lon="-2.43816">
        <ele>23.4</ele>
        <time>2021-08-07T12:12:47Z</time>
      </trkpt>
      <trkpt lat="47.86684" lon="-2.43812">
        <ele>23.4</ele>
        <time>2021-08-07T12:12:48Z</time>
      </trkpt>
      <trkpt lat="47.86686" lon="-2.43807">
        <ele>23.4</ele>
        <time>2021-08-07T12:12:49Z</time>
      </trkpt>
      <trkpt lat="47.8669" lon="-2.43799">
        <ele>23.4</ele>
        <time>2021-08-07T12:12:51Z</time>
      </trkpt>
      <trkpt lat="47.86692" lon="-2.43796">
        <ele>23.4</ele>
        <time>2021-08-07T12:12:52Z</time>
      </trkpt>
      <trkpt lat="47.86693" lon="-2.43793">
        <ele>23.4</ele>
        <time>2021-08-07T12:12:53Z</time>
      </trkpt>
      <trkpt lat="47.86695" lon="-2.43789">
        <ele>23.6</ele>
        <time>2021-08-07T12:12:54Z</time>
      </trkpt>
      <trkpt lat="47.86696" lon="-2.43784">
        <ele>23.8</ele>
        <time>2021-08-07T12:12:55Z</time>
      </trkpt>
      <trkpt lat="47.86697" lon="-2.4378">
        <ele>24.2</ele>
        <time>2021-08-07T12:12:56Z</time>
      </trkpt>
      <trkpt lat="47.86699" lon="-2.43775">
        <ele>24.2</ele>
        <time>2021-08-07T12:12:57Z</time>
      </trkpt>
      <trkpt lat="47.86701" lon="-2.43769">
        <ele>24.4</ele>
        <time>2021-08-07T12:12:58Z</time>
      </trkpt>
      <trkpt lat="47.86703" lon="-2.43763">
        <ele>24.4</ele>
        <time>2021-08-07T12:12:59Z</time>
      </trkpt>
      <trkpt lat="47.86707" lon="-2.4375">
        <ele>24.4</ele>
        <time>2021-08-07T12:13:01Z</time>
      </trkpt>
      <trkpt lat="47.86709" lon="-2.43744">
        <ele>24.4</ele>
        <time>2021-08-07T12:13:02Z</time>
      </trkpt>
      <trkpt lat="47.86711" lon="-2.43738">
        <ele>24.4</ele>
        <time>2021-08-07T12:13:03Z</time>
      </trkpt>
      <trkpt lat="47.86713" lon="-2.43731">
        <ele>24.4</ele>
        <time>2021-08-07T12:13:04Z</time>
      </trkpt>
      <trkpt lat="47.86715" lon="-2.43725">
        <ele>24.4</ele>
        <time>2021-08-07T12:13:05Z</time>
      </trkpt>
      <trkpt lat="47.86717" lon="-2.43719">
        <ele>24.4</ele>
        <time>2021-08-07T12:13:06Z</time>
      </trkpt>
      <trkpt lat="47.86718" lon="-2.43714">
        <ele>24.4</ele>
        <time>2021-08-07T12:13:07Z</time>
      </trkpt>
      <trkpt lat="47.8672" lon="-2.43708">
        <ele>24.4</ele>
        <time>2021-08-07T12:13:08Z</time>
      </trkpt>
      <trkpt lat="47.86722" lon="-2.43702">
        <ele>24.4</ele>
        <time>2021-08-07T12:13:09Z</time>
      </trkpt>
      <trkpt lat="47.86723" lon="-2.43696">
        <ele>24.4</ele>
        <time>2021-08-07T12:13:10Z</time>
      </trkpt>
      <trkpt lat="47.86726" lon="-2.4369">
        <ele>24.2</ele>
        <time>2021-08-07T12:13:11Z</time>
      </trkpt>
      <trkpt lat="47.86728" lon="-2.43684">
        <ele>24.2</ele>
        <time>2021-08-07T12:13:12Z</time>
      </trkpt>
      <trkpt lat="47.86731" lon="-2.43678">
        <ele>24.2</ele>
        <time>2021-08-07T12:13:13Z</time>
      </trkpt>
      <trkpt lat="47.86733" lon="-2.43671">
        <ele>24.2</ele>
        <time>2021-08-07T12:13:14Z</time>
      </trkpt>
      <trkpt lat="47.86736" lon="-2.43665">
        <ele>24.2</ele>
        <time>2021-08-07T12:13:15Z</time>
      </trkpt>
      <trkpt lat="47.86738" lon="-2.43659">
        <ele>24.2</ele>
        <time>2021-08-07T12:13:16Z</time>
      </trkpt>
      <trkpt lat="47.86741" lon="-2.43652">
        <ele>24.2</ele>
        <time>2021-08-07T12:13:17Z</time>
      </trkpt>
      <trkpt lat="47.86743" lon="-2.43646">
        <ele>24</ele>
        <time>2021-08-07T12:13:18Z</time>
      </trkpt>
      <trkpt lat="47.86746" lon="-2.4364">
        <ele>24</ele>
        <time>2021-08-07T12:13:19Z</time>
      </trkpt>
      <trkpt lat="47.8675" lon="-2.43629">
        <ele>23.8</ele>
        <time>2021-08-07T12:13:21Z</time>
      </trkpt>
      <trkpt lat="47.86752" lon="-2.43623">
        <ele>23.8</ele>
        <time>2021-08-07T12:13:22Z</time>
      </trkpt>
      <trkpt lat="47.86754" lon="-2.43618">
        <ele>23.8</ele>
        <time>2021-08-07T12:13:23Z</time>
      </trkpt>
      <trkpt lat="47.86756" lon="-2.43613">
        <ele>23.8</ele>
        <time>2021-08-07T12:13:24Z</time>
      </trkpt>
      <trkpt lat="47.86759" lon="-2.43607">
        <ele>23.8</ele>
        <time>2021-08-07T12:13:25Z</time>
      </trkpt>
      <trkpt lat="47.86761" lon="-2.43602">
        <ele>23.8</ele>
        <time>2021-08-07T12:13:26Z</time>
      </trkpt>
      <trkpt lat="47.86763" lon="-2.43597">
        <ele>23.8</ele>
        <time>2021-08-07T12:13:27Z</time>
      </trkpt>
      <trkpt lat="47.86766" lon="-2.43592">
        <ele>23.8</ele>
        <time>2021-08-07T12:13:28Z</time>
      </trkpt>
      <trkpt lat="47.86768" lon="-2.43588">
        <ele>23.8</ele>
        <time>2021-08-07T12:13:29Z</time>
      </trkpt>
      <trkpt lat="47.8677" lon="-2.43579">
        <ele>23.8</ele>
        <time>2021-08-07T12:13:31Z</time>
      </trkpt>
      <trkpt lat="47.86772" lon="-2.43575">
        <ele>23.8</ele>
        <time>2021-08-07T12:13:32Z</time>
      </trkpt>
      <trkpt lat="47.86774" lon="-2.43572">
        <ele>23.8</ele>
        <time>2021-08-07T12:13:33Z</time>
      </trkpt>
      <trkpt lat="47.86775" lon="-2.43568">
        <ele>23.8</ele>
        <time>2021-08-07T12:13:34Z</time>
      </trkpt>
      <trkpt lat="47.86777" lon="-2.43565">
        <ele>23.8</ele>
        <time>2021-08-07T12:13:35Z</time>
      </trkpt>
      <trkpt lat="47.86778" lon="-2.43561">
        <ele>23.8</ele>
        <time>2021-08-07T12:13:36Z</time>
      </trkpt>
      <trkpt lat="47.8678" lon="-2.43557">
        <ele>23.8</ele>
        <time>2021-08-07T12:13:37Z</time>
      </trkpt>
      <trkpt lat="47.86781" lon="-2.43553">
        <ele>23.8</ele>
        <time>2021-08-07T12:13:38Z</time>
      </trkpt>
      <trkpt lat="47.86783" lon="-2.4355">
        <ele>23.8</ele>
        <time>2021-08-07T12:13:39Z</time>
      </trkpt>
      <trkpt lat="47.86786" lon="-2.43542">
        <ele>23.8</ele>
        <time>2021-08-07T12:13:41Z</time>
      </trkpt>
      <trkpt lat="47.86787" lon="-2.43539">
        <ele>23.8</ele>
        <time>2021-08-07T12:13:42Z</time>
      </trkpt>
      <trkpt lat="47.86788" lon="-2.43535">
        <ele>23.8</ele>
        <time>2021-08-07T12:13:43Z</time>
      </trkpt>
      <trkpt lat="47.8679" lon="-2.43532">
        <ele>23.8</ele>
        <time>2021-08-07T12:13:44Z</time>
      </trkpt>
      <trkpt lat="47.86791" lon="-2.43529">
        <ele>23.8</ele>
        <time>2021-08-07T12:13:45Z</time>
      </trkpt>
      <trkpt lat="47.86793" lon="-2.43526">
        <ele>23.8</ele>
        <time>2021-08-07T12:13:46Z</time>
      </trkpt>
      <trkpt lat="47.86794" lon="-2.43523">
        <ele>23.8</ele>
        <time>2021-08-07T12:13:47Z</time>
      </trkpt>
      <trkpt lat="47.86796" lon="-2.4352">
        <ele>24</ele>
        <time>2021-08-07T12:13:48Z</time>
      </trkpt>
      <trkpt lat="47.86797" lon="-2.43517">
        <ele>24</ele>
        <time>2021-08-07T12:13:49Z</time>
      </trkpt>
      <trkpt lat="47.86798" lon="-2.43514">
        <ele>24</ele>
        <time>2021-08-07T12:13:50Z</time>
      </trkpt>
      <trkpt lat="47.86799" lon="-2.43511">
        <ele>24</ele>
        <time>2021-08-07T12:13:51Z</time>
      </trkpt>
      <trkpt lat="47.86801" lon="-2.43508">
        <ele>24</ele>
        <time>2021-08-07T12:13:52Z</time>
      </trkpt>
      <trkpt lat="47.86803" lon="-2.43505">
        <ele>24</ele>
        <time>2021-08-07T12:13:53Z</time>
      </trkpt>
      <trkpt lat="47.86806" lon="-2.43502">
        <ele>24.2</ele>
        <time>2021-08-07T12:13:54Z</time>
      </trkpt>
      <trkpt lat="47.86808" lon="-2.43499">
        <ele>24.2</ele>
        <time>2021-08-07T12:13:55Z</time>
      </trkpt>
      <trkpt lat="47.8681" lon="-2.43495">
        <ele>24.2</ele>
        <time>2021-08-07T12:13:56Z</time>
      </trkpt>
      <trkpt lat="47.86812" lon="-2.43491">
        <ele>24.2</ele>
        <time>2021-08-07T12:13:57Z</time>
      </trkpt>
      <trkpt lat="47.86815" lon="-2.43487">
        <ele>24</ele>
        <time>2021-08-07T12:13:58Z</time>
      </trkpt>
      <trkpt lat="47.86818" lon="-2.43484">
        <ele>24</ele>
        <time>2021-08-07T12:13:59Z</time>
      </trkpt>
      <trkpt lat="47.86821" lon="-2.4348">
        <ele>24</ele>
        <time>2021-08-07T12:14:00Z</time>
      </trkpt>
      <trkpt lat="47.86827" lon="-2.43474">
        <ele>24.2</ele>
        <time>2021-08-07T12:14:02Z</time>
      </trkpt>
      <trkpt lat="47.8683" lon="-2.43472">
        <ele>24.2</ele>
        <time>2021-08-07T12:14:03Z</time>
      </trkpt>
      <trkpt lat="47.86833" lon="-2.43469">
        <ele>24.2</ele>
        <time>2021-08-07T12:14:04Z</time>
      </trkpt>
      <trkpt lat="47.86835" lon="-2.43467">
        <ele>24.2</ele>
        <time>2021-08-07T12:14:05Z</time>
      </trkpt>
      <trkpt lat="47.86838" lon="-2.43464">
        <ele>24.2</ele>
        <time>2021-08-07T12:14:06Z</time>
      </trkpt>
      <trkpt lat="47.8684" lon="-2.43462">
        <ele>24.2</ele>
        <time>2021-08-07T12:14:07Z</time>
      </trkpt>
      <trkpt lat="47.86843" lon="-2.43459">
        <ele>24.2</ele>
        <time>2021-08-07T12:14:08Z</time>
      </trkpt>
      <trkpt lat="47.86845" lon="-2.43456">
        <ele>24.2</ele>
        <time>2021-08-07T12:14:09Z</time>
      </trkpt>
      <trkpt lat="47.86849" lon="-2.43454">
        <ele>24.2</ele>
        <time>2021-08-07T12:14:10Z</time>
      </trkpt>
      <trkpt lat="47.86851" lon="-2.43451">
        <ele>24.2</ele>
        <time>2021-08-07T12:14:11Z</time>
      </trkpt>
      <trkpt lat="47.86857" lon="-2.43446">
        <ele>24</ele>
        <time>2021-08-07T12:14:13Z</time>
      </trkpt>
      <trkpt lat="47.86859" lon="-2.43443">
        <ele>24</ele>
        <time>2021-08-07T12:14:14Z</time>
      </trkpt>
      <trkpt lat="47.86862" lon="-2.43441">
        <ele>24</ele>
        <time>2021-08-07T12:14:15Z</time>
      </trkpt>
      <trkpt lat="47.86864" lon="-2.43439">
        <ele>23.8</ele>
        <time>2021-08-07T12:14:16Z</time>
      </trkpt>
      <trkpt lat="47.86867" lon="-2.43437">
        <ele>23.8</ele>
        <time>2021-08-07T12:14:17Z</time>
      </trkpt>
      <trkpt lat="47.86869" lon="-2.43434">
        <ele>23.8</ele>
        <time>2021-08-07T12:14:18Z</time>
      </trkpt>
      <trkpt lat="47.86871" lon="-2.43432">
        <ele>23.6</ele>
        <time>2021-08-07T12:14:19Z</time>
      </trkpt>
      <trkpt lat="47.86873" lon="-2.4343">
        <ele>23.6</ele>
        <time>2021-08-07T12:14:20Z</time>
      </trkpt>
      <trkpt lat="47.86875" lon="-2.43428">
        <ele>23.6</ele>
        <time>2021-08-07T12:14:21Z</time>
      </trkpt>
      <trkpt lat="47.86877" lon="-2.43426">
        <ele>23.6</ele>
        <time>2021-08-07T12:14:22Z</time>
      </trkpt>
      <trkpt lat="47.86881" lon="-2.43422">
        <ele>23.6</ele>
        <time>2021-08-07T12:14:24Z</time>
      </trkpt>
      <trkpt lat="47.86883" lon="-2.4342">
        <ele>23.6</ele>
        <time>2021-08-07T12:14:25Z</time>
      </trkpt>
      <trkpt lat="47.86885" lon="-2.43418">
        <ele>23.6</ele>
        <time>2021-08-07T12:14:26Z</time>
      </trkpt>
      <trkpt lat="47.86887" lon="-2.43416">
        <ele>23.6</ele>
        <time>2021-08-07T12:14:27Z</time>
      </trkpt>
      <trkpt lat="47.8689" lon="-2.43413">
        <ele>23.6</ele>
        <time>2021-08-07T12:14:28Z</time>
      </trkpt>
      <trkpt lat="47.86892" lon="-2.43411">
        <ele>23.6</ele>
        <time>2021-08-07T12:14:29Z</time>
      </trkpt>
      <trkpt lat="47.86894" lon="-2.43409">
        <ele>23.6</ele>
        <time>2021-08-07T12:14:30Z</time>
      </trkpt>
      <trkpt lat="47.86897" lon="-2.43407">
        <ele>23.6</ele>
        <time>2021-08-07T12:14:31Z</time>
      </trkpt>
      <trkpt lat="47.86899" lon="-2.43404">
        <ele>23.6</ele>
        <time>2021-08-07T12:14:32Z</time>
      </trkpt>
      <trkpt lat="47.86902" lon="-2.43401">
        <ele>23.6</ele>
        <time>2021-08-07T12:14:33Z</time>
      </trkpt>
      <trkpt lat="47.86907" lon="-2.43395">
        <ele>23.6</ele>
        <time>2021-08-07T12:14:35Z</time>
      </trkpt>
      <trkpt lat="47.86909" lon="-2.43393">
        <ele>23.6</ele>
        <time>2021-08-07T12:14:36Z</time>
      </trkpt>
      <trkpt lat="47.86911" lon="-2.4339">
        <ele>23.6</ele>
        <time>2021-08-07T12:14:37Z</time>
      </trkpt>
      <trkpt lat="47.86913" lon="-2.43388">
        <ele>23.6</ele>
        <time>2021-08-07T12:14:38Z</time>
      </trkpt>
      <trkpt lat="47.86915" lon="-2.43385">
        <ele>23.6</ele>
        <time>2021-08-07T12:14:39Z</time>
      </trkpt>
      <trkpt lat="47.86917" lon="-2.43383">
        <ele>23.6</ele>
        <time>2021-08-07T12:14:40Z</time>
      </trkpt>
      <trkpt lat="47.86918" lon="-2.4338">
        <ele>23.6</ele>
        <time>2021-08-07T12:14:41Z</time>
      </trkpt>
      <trkpt lat="47.86921" lon="-2.43377">
        <ele>23.6</ele>
        <time>2021-08-07T12:14:42Z</time>
      </trkpt>
      <trkpt lat="47.86923" lon="-2.43373">
        <ele>23.6</ele>
        <time>2021-08-07T12:14:43Z</time>
      </trkpt>
      <trkpt lat="47.86926" lon="-2.4337">
        <ele>23.6</ele>
        <time>2021-08-07T12:14:44Z</time>
      </trkpt>
      <trkpt lat="47.86931" lon="-2.43362">
        <ele>23.6</ele>
        <time>2021-08-07T12:14:46Z</time>
      </trkpt>
      <trkpt lat="47.86934" lon="-2.43358">
        <ele>23.6</ele>
        <time>2021-08-07T12:14:47Z</time>
      </trkpt>
      <trkpt lat="47.86936" lon="-2.43353">
        <ele>23.6</ele>
        <time>2021-08-07T12:14:48Z</time>
      </trkpt>
      <trkpt lat="47.86939" lon="-2.43349">
        <ele>23.6</ele>
        <time>2021-08-07T12:14:49Z</time>
      </trkpt>
      <trkpt lat="47.86941" lon="-2.43345">
        <ele>23.8</ele>
        <time>2021-08-07T12:14:50Z</time>
      </trkpt>
      <trkpt lat="47.86943" lon="-2.43341">
        <ele>23.8</ele>
        <time>2021-08-07T12:14:51Z</time>
      </trkpt>
      <trkpt lat="47.86945" lon="-2.43336">
        <ele>23.8</ele>
        <time>2021-08-07T12:14:52Z</time>
      </trkpt>
      <trkpt lat="47.86947" lon="-2.43331">
        <ele>23.8</ele>
        <time>2021-08-07T12:14:53Z</time>
      </trkpt>
      <trkpt lat="47.8695" lon="-2.43326">
        <ele>24</ele>
        <time>2021-08-07T12:14:54Z</time>
      </trkpt>
      <trkpt lat="47.86955" lon="-2.43314">
        <ele>24</ele>
        <time>2021-08-07T12:14:56Z</time>
      </trkpt>
      <trkpt lat="47.86957" lon="-2.43307">
        <ele>24</ele>
        <time>2021-08-07T12:14:57Z</time>
      </trkpt>
      <trkpt lat="47.86959" lon="-2.433">
        <ele>24</ele>
        <time>2021-08-07T12:14:58Z</time>
      </trkpt>
      <trkpt lat="47.86961" lon="-2.43293">
        <ele>24.2</ele>
        <time>2021-08-07T12:14:59Z</time>
      </trkpt>
      <trkpt lat="47.86962" lon="-2.43286">
        <ele>24.2</ele>
        <time>2021-08-07T12:15:00Z</time>
      </trkpt>
      <trkpt lat="47.86964" lon="-2.43279">
        <ele>24.2</ele>
        <time>2021-08-07T12:15:01Z</time>
      </trkpt>
      <trkpt lat="47.86967" lon="-2.43271">
        <ele>24.2</ele>
        <time>2021-08-07T12:15:02Z</time>
      </trkpt>
      <trkpt lat="47.86968" lon="-2.43264">
        <ele>24.2</ele>
        <time>2021-08-07T12:15:03Z</time>
      </trkpt>
      <trkpt lat="47.8697" lon="-2.43256">
        <ele>24.2</ele>
        <time>2021-08-07T12:15:04Z</time>
      </trkpt>
      <trkpt lat="47.86975" lon="-2.43242">
        <ele>24.2</ele>
        <time>2021-08-07T12:15:06Z</time>
      </trkpt>
      <trkpt lat="47.86976" lon="-2.43235">
        <ele>24.2</ele>
        <time>2021-08-07T12:15:07Z</time>
      </trkpt>
      <trkpt lat="47.86978" lon="-2.43228">
        <ele>24.2</ele>
        <time>2021-08-07T12:15:08Z</time>
      </trkpt>
      <trkpt lat="47.86979" lon="-2.43222">
        <ele>23.8</ele>
        <time>2021-08-07T12:15:09Z</time>
      </trkpt>
      <trkpt lat="47.86981" lon="-2.43215">
        <ele>23.8</ele>
        <time>2021-08-07T12:15:10Z</time>
      </trkpt>
      <trkpt lat="47.86983" lon="-2.43208">
        <ele>23.8</ele>
        <time>2021-08-07T12:15:11Z</time>
      </trkpt>
      <trkpt lat="47.86984" lon="-2.43201">
        <ele>23.8</ele>
        <time>2021-08-07T12:15:12Z</time>
      </trkpt>
      <trkpt lat="47.86985" lon="-2.43195">
        <ele>23.8</ele>
        <time>2021-08-07T12:15:13Z</time>
      </trkpt>
      <trkpt lat="47.86987" lon="-2.43189">
        <ele>23.8</ele>
        <time>2021-08-07T12:15:14Z</time>
      </trkpt>
      <trkpt lat="47.86988" lon="-2.43182">
        <ele>23.8</ele>
        <time>2021-08-07T12:15:15Z</time>
      </trkpt>
      <trkpt lat="47.8699" lon="-2.43176">
        <ele>23.8</ele>
        <time>2021-08-07T12:15:16Z</time>
      </trkpt>
      <trkpt lat="47.86991" lon="-2.4317">
        <ele>23.8</ele>
        <time>2021-08-07T12:15:17Z</time>
      </trkpt>
      <trkpt lat="47.86993" lon="-2.43164">
        <ele>23.8</ele>
        <time>2021-08-07T12:15:18Z</time>
      </trkpt>
      <trkpt lat="47.86995" lon="-2.43158">
        <ele>23.8</ele>
        <time>2021-08-07T12:15:19Z</time>
      </trkpt>
      <trkpt lat="47.86997" lon="-2.43153">
        <ele>23.8</ele>
        <time>2021-08-07T12:15:20Z</time>
      </trkpt>
      <trkpt lat="47.86998" lon="-2.43147">
        <ele>23.8</ele>
        <time>2021-08-07T12:15:21Z</time>
      </trkpt>
      <trkpt lat="47.87" lon="-2.43142">
        <ele>23.8</ele>
        <time>2021-08-07T12:15:22Z</time>
      </trkpt>
      <trkpt lat="47.87003" lon="-2.43136">
        <ele>24</ele>
        <time>2021-08-07T12:15:23Z</time>
      </trkpt>
      <trkpt lat="47.87005" lon="-2.43131">
        <ele>24</ele>
        <time>2021-08-07T12:15:24Z</time>
      </trkpt>
      <trkpt lat="47.87007" lon="-2.43125">
        <ele>24.2</ele>
        <time>2021-08-07T12:15:25Z</time>
      </trkpt>
      <trkpt lat="47.87009" lon="-2.4312">
        <ele>24.2</ele>
        <time>2021-08-07T12:15:26Z</time>
      </trkpt>
      <trkpt lat="47.87015" lon="-2.43109">
        <ele>24.2</ele>
        <time>2021-08-07T12:15:28Z</time>
      </trkpt>
      <trkpt lat="47.87018" lon="-2.43103">
        <ele>24.4</ele>
        <time>2021-08-07T12:15:29Z</time>
      </trkpt>
      <trkpt lat="47.87021" lon="-2.43098">
        <ele>24.4</ele>
        <time>2021-08-07T12:15:30Z</time>
      </trkpt>
      <trkpt lat="47.87024" lon="-2.43092">
        <ele>24.4</ele>
        <time>2021-08-07T12:15:31Z</time>
      </trkpt>
      <trkpt lat="47.87027" lon="-2.43086">
        <ele>24.4</ele>
        <time>2021-08-07T12:15:32Z</time>
      </trkpt>
      <trkpt lat="47.8703" lon="-2.43081">
        <ele>24.4</ele>
        <time>2021-08-07T12:15:33Z</time>
      </trkpt>
      <trkpt lat="47.87032" lon="-2.43075">
        <ele>24.4</ele>
        <time>2021-08-07T12:15:34Z</time>
      </trkpt>
      <trkpt lat="47.87035" lon="-2.4307">
        <ele>24.4</ele>
        <time>2021-08-07T12:15:35Z</time>
      </trkpt>
      <trkpt lat="47.87037" lon="-2.43064">
        <ele>24.4</ele>
        <time>2021-08-07T12:15:36Z</time>
      </trkpt>
      <trkpt lat="47.8704" lon="-2.43059">
        <ele>24.4</ele>
        <time>2021-08-07T12:15:37Z</time>
      </trkpt>
      <trkpt lat="47.87044" lon="-2.43048">
        <ele>24.4</ele>
        <time>2021-08-07T12:15:39Z</time>
      </trkpt>
      <trkpt lat="47.87047" lon="-2.43042">
        <ele>24.4</ele>
        <time>2021-08-07T12:15:40Z</time>
      </trkpt>
      <trkpt lat="47.87049" lon="-2.43037">
        <ele>24.4</ele>
        <time>2021-08-07T12:15:41Z</time>
      </trkpt>
      <trkpt lat="47.87052" lon="-2.43032">
        <ele>24.6</ele>
        <time>2021-08-07T12:15:42Z</time>
      </trkpt>
      <trkpt lat="47.87054" lon="-2.43026">
        <ele>24.4</ele>
        <time>2021-08-07T12:15:43Z</time>
      </trkpt>
      <trkpt lat="47.87057" lon="-2.4302">
        <ele>24.4</ele>
        <time>2021-08-07T12:15:44Z</time>
      </trkpt>
      <trkpt lat="47.8706" lon="-2.43014">
        <ele>24.4</ele>
        <time>2021-08-07T12:15:45Z</time>
      </trkpt>
      <trkpt lat="47.87062" lon="-2.43007">
        <ele>24.4</ele>
        <time>2021-08-07T12:15:46Z</time>
      </trkpt>
      <trkpt lat="47.87064" lon="-2.43">
        <ele>24.4</ele>
        <time>2021-08-07T12:15:47Z</time>
      </trkpt>
      <trkpt lat="47.87069" lon="-2.42986">
        <ele>24.6</ele>
        <time>2021-08-07T12:15:49Z</time>
      </trkpt>
      <trkpt lat="47.87071" lon="-2.42979">
        <ele>24.6</ele>
        <time>2021-08-07T12:15:50Z</time>
      </trkpt>
      <trkpt lat="47.87072" lon="-2.42972">
        <ele>24.6</ele>
        <time>2021-08-07T12:15:51Z</time>
      </trkpt>
      <trkpt lat="47.87074" lon="-2.42965">
        <ele>24.8</ele>
        <time>2021-08-07T12:15:52Z</time>
      </trkpt>
      <trkpt lat="47.87076" lon="-2.42958">
        <ele>24.8</ele>
        <time>2021-08-07T12:15:53Z</time>
      </trkpt>
      <trkpt lat="47.87077" lon="-2.42952">
        <ele>24.8</ele>
        <time>2021-08-07T12:15:54Z</time>
      </trkpt>
      <trkpt lat="47.87079" lon="-2.42946">
        <ele>24.8</ele>
        <time>2021-08-07T12:15:55Z</time>
      </trkpt>
      <trkpt lat="47.87081" lon="-2.4294">
        <ele>24.8</ele>
        <time>2021-08-07T12:15:56Z</time>
      </trkpt>
      <trkpt lat="47.87083" lon="-2.42934">
        <ele>24.8</ele>
        <time>2021-08-07T12:15:57Z</time>
      </trkpt>
      <trkpt lat="47.87084" lon="-2.42927">
        <ele>24.8</ele>
        <time>2021-08-07T12:15:58Z</time>
      </trkpt>
      <trkpt lat="47.87087" lon="-2.42914">
        <ele>24.8</ele>
        <time>2021-08-07T12:16:00Z</time>
      </trkpt>
      <trkpt lat="47.87089" lon="-2.42907">
        <ele>24.8</ele>
        <time>2021-08-07T12:16:01Z</time>
      </trkpt>
      <trkpt lat="47.87091" lon="-2.429">
        <ele>24.8</ele>
        <time>2021-08-07T12:16:02Z</time>
      </trkpt>
      <trkpt lat="47.87093" lon="-2.42894">
        <ele>24.8</ele>
        <time>2021-08-07T12:16:03Z</time>
      </trkpt>
      <trkpt lat="47.87095" lon="-2.42887">
        <ele>24.6</ele>
        <time>2021-08-07T12:16:04Z</time>
      </trkpt>
      <trkpt lat="47.87097" lon="-2.4288">
        <ele>24.6</ele>
        <time>2021-08-07T12:16:05Z</time>
      </trkpt>
      <trkpt lat="47.87099" lon="-2.42874">
        <ele>24.4</ele>
        <time>2021-08-07T12:16:06Z</time>
      </trkpt>
      <trkpt lat="47.87101" lon="-2.42867">
        <ele>24.4</ele>
        <time>2021-08-07T12:16:07Z</time>
      </trkpt>
      <trkpt lat="47.87103" lon="-2.42862">
        <ele>24.4</ele>
        <time>2021-08-07T12:16:08Z</time>
      </trkpt>
      <trkpt lat="47.87106" lon="-2.42856">
        <ele>24.2</ele>
        <time>2021-08-07T12:16:09Z</time>
      </trkpt>
      <trkpt lat="47.87111" lon="-2.42845">
        <ele>24.2</ele>
        <time>2021-08-07T12:16:11Z</time>
      </trkpt>
      <trkpt lat="47.87113" lon="-2.4284">
        <ele>24.2</ele>
        <time>2021-08-07T12:16:12Z</time>
      </trkpt>
      <trkpt lat="47.87115" lon="-2.42835">
        <ele>24.2</ele>
        <time>2021-08-07T12:16:13Z</time>
      </trkpt>
      <trkpt lat="47.87118" lon="-2.4283">
        <ele>24.2</ele>
        <time>2021-08-07T12:16:14Z</time>
      </trkpt>
      <trkpt lat="47.8712" lon="-2.42825">
        <ele>24</ele>
        <time>2021-08-07T12:16:15Z</time>
      </trkpt>
      <trkpt lat="47.87122" lon="-2.4282">
        <ele>24</ele>
        <time>2021-08-07T12:16:16Z</time>
      </trkpt>
      <trkpt lat="47.87125" lon="-2.42815">
        <ele>24</ele>
        <time>2021-08-07T12:16:17Z</time>
      </trkpt>
      <trkpt lat="47.87128" lon="-2.4281">
        <ele>24</ele>
        <time>2021-08-07T12:16:18Z</time>
      </trkpt>
      <trkpt lat="47.87131" lon="-2.42804">
        <ele>24</ele>
        <time>2021-08-07T12:16:19Z</time>
      </trkpt>
      <trkpt lat="47.87134" lon="-2.42799">
        <ele>24</ele>
        <time>2021-08-07T12:16:20Z</time>
      </trkpt>
      <trkpt lat="47.87139" lon="-2.42788">
        <ele>24</ele>
        <time>2021-08-07T12:16:22Z</time>
      </trkpt>
      <trkpt lat="47.87142" lon="-2.42783">
        <ele>24</ele>
        <time>2021-08-07T12:16:23Z</time>
      </trkpt>
      <trkpt lat="47.87145" lon="-2.42778">
        <ele>24</ele>
        <time>2021-08-07T12:16:24Z</time>
      </trkpt>
      <trkpt lat="47.87148" lon="-2.42773">
        <ele>24</ele>
        <time>2021-08-07T12:16:25Z</time>
      </trkpt>
      <trkpt lat="47.87151" lon="-2.42768">
        <ele>24</ele>
        <time>2021-08-07T12:16:26Z</time>
      </trkpt>
      <trkpt lat="47.87154" lon="-2.42764">
        <ele>24</ele>
        <time>2021-08-07T12:16:27Z</time>
      </trkpt>
      <trkpt lat="47.87157" lon="-2.42759">
        <ele>23.8</ele>
        <time>2021-08-07T12:16:28Z</time>
      </trkpt>
      <trkpt lat="47.8716" lon="-2.42755">
        <ele>24</ele>
        <time>2021-08-07T12:16:29Z</time>
      </trkpt>
      <trkpt lat="47.87164" lon="-2.42751">
        <ele>24</ele>
        <time>2021-08-07T12:16:30Z</time>
      </trkpt>
      <trkpt lat="47.87171" lon="-2.42744">
        <ele>24</ele>
        <time>2021-08-07T12:16:32Z</time>
      </trkpt>
      <trkpt lat="47.87174" lon="-2.4274">
        <ele>24</ele>
        <time>2021-08-07T12:16:33Z</time>
      </trkpt>
      <trkpt lat="47.87178" lon="-2.42736">
        <ele>24</ele>
        <time>2021-08-07T12:16:34Z</time>
      </trkpt>
      <trkpt lat="47.87182" lon="-2.42732">
        <ele>24</ele>
        <time>2021-08-07T12:16:35Z</time>
      </trkpt>
      <trkpt lat="47.87186" lon="-2.42729">
        <ele>24</ele>
        <time>2021-08-07T12:16:36Z</time>
      </trkpt>
      <trkpt lat="47.8719" lon="-2.42726">
        <ele>24</ele>
        <time>2021-08-07T12:16:37Z</time>
      </trkpt>
      <trkpt lat="47.87194" lon="-2.42723">
        <ele>24</ele>
        <time>2021-08-07T12:16:38Z</time>
      </trkpt>
      <trkpt lat="47.87198" lon="-2.42721">
        <ele>24.2</ele>
        <time>2021-08-07T12:16:39Z</time>
      </trkpt>
      <trkpt lat="47.87203" lon="-2.42719">
        <ele>24.2</ele>
        <time>2021-08-07T12:16:40Z</time>
      </trkpt>
      <trkpt lat="47.87207" lon="-2.42717">
        <ele>24.2</ele>
        <time>2021-08-07T12:16:41Z</time>
      </trkpt>
      <trkpt lat="47.87211" lon="-2.42716">
        <ele>24.2</ele>
        <time>2021-08-07T12:16:42Z</time>
      </trkpt>
      <trkpt lat="47.87216" lon="-2.42716">
        <ele>24.2</ele>
        <time>2021-08-07T12:16:43Z</time>
      </trkpt>
      <trkpt lat="47.8722" lon="-2.42716">
        <ele>24.2</ele>
        <time>2021-08-07T12:16:44Z</time>
      </trkpt>
      <trkpt lat="47.87225" lon="-2.42717">
        <ele>24.2</ele>
        <time>2021-08-07T12:16:45Z</time>
      </trkpt>
      <trkpt lat="47.87229" lon="-2.42718">
        <ele>24.2</ele>
        <time>2021-08-07T12:16:46Z</time>
      </trkpt>
      <trkpt lat="47.87234" lon="-2.4272">
        <ele>24.2</ele>
        <time>2021-08-07T12:16:47Z</time>
      </trkpt>
      <trkpt lat="47.87238" lon="-2.42723">
        <ele>24.2</ele>
        <time>2021-08-07T12:16:48Z</time>
      </trkpt>
      <trkpt lat="47.87242" lon="-2.42726">
        <ele>24.2</ele>
        <time>2021-08-07T12:16:49Z</time>
      </trkpt>
      <trkpt lat="47.87247" lon="-2.42729">
        <ele>24.2</ele>
        <time>2021-08-07T12:16:50Z</time>
      </trkpt>
      <trkpt lat="47.87251" lon="-2.42731">
        <ele>24.2</ele>
        <time>2021-08-07T12:16:51Z</time>
      </trkpt>
      <trkpt lat="47.87256" lon="-2.42735">
        <ele>24.4</ele>
        <time>2021-08-07T12:16:52Z</time>
      </trkpt>
      <trkpt lat="47.87265" lon="-2.42741">
        <ele>24.6</ele>
        <time>2021-08-07T12:16:54Z</time>
      </trkpt>
      <trkpt lat="47.87269" lon="-2.42744">
        <ele>24.8</ele>
        <time>2021-08-07T12:16:55Z</time>
      </trkpt>
      <trkpt lat="47.87273" lon="-2.42747">
        <ele>24.8</ele>
        <time>2021-08-07T12:16:56Z</time>
      </trkpt>
      <trkpt lat="47.87278" lon="-2.4275">
        <ele>24.8</ele>
        <time>2021-08-07T12:16:57Z</time>
      </trkpt>
      <trkpt lat="47.87282" lon="-2.42752">
        <ele>24.8</ele>
        <time>2021-08-07T12:16:58Z</time>
      </trkpt>
      <trkpt lat="47.87286" lon="-2.42754">
        <ele>24.8</ele>
        <time>2021-08-07T12:16:59Z</time>
      </trkpt>
      <trkpt lat="47.8729" lon="-2.42756">
        <ele>24.8</ele>
        <time>2021-08-07T12:17:00Z</time>
      </trkpt>
      <trkpt lat="47.87295" lon="-2.42758">
        <ele>24.8</ele>
        <time>2021-08-07T12:17:01Z</time>
      </trkpt>
      <trkpt lat="47.87299" lon="-2.42761">
        <ele>24.8</ele>
        <time>2021-08-07T12:17:02Z</time>
      </trkpt>
      <trkpt lat="47.87304" lon="-2.42763">
        <ele>24.8</ele>
        <time>2021-08-07T12:17:03Z</time>
      </trkpt>
      <trkpt lat="47.87313" lon="-2.42768">
        <ele>24.8</ele>
        <time>2021-08-07T12:17:05Z</time>
      </trkpt>
      <trkpt lat="47.87318" lon="-2.42769">
        <ele>24.6</ele>
        <time>2021-08-07T12:17:06Z</time>
      </trkpt>
      <trkpt lat="47.87322" lon="-2.42771">
        <ele>24.6</ele>
        <time>2021-08-07T12:17:07Z</time>
      </trkpt>
      <trkpt lat="47.87327" lon="-2.42773">
        <ele>24.6</ele>
        <time>2021-08-07T12:17:08Z</time>
      </trkpt>
      <trkpt lat="47.87331" lon="-2.42774">
        <ele>24.6</ele>
        <time>2021-08-07T12:17:09Z</time>
      </trkpt>
      <trkpt lat="47.87335" lon="-2.42776">
        <ele>24.6</ele>
        <time>2021-08-07T12:17:10Z</time>
      </trkpt>
      <trkpt lat="47.8734" lon="-2.42777">
        <ele>24.6</ele>
        <time>2021-08-07T12:17:11Z</time>
      </trkpt>
      <trkpt lat="47.87344" lon="-2.42778">
        <ele>24.6</ele>
        <time>2021-08-07T12:17:12Z</time>
      </trkpt>
      <trkpt lat="47.87348" lon="-2.4278">
        <ele>24.6</ele>
        <time>2021-08-07T12:17:13Z</time>
      </trkpt>
      <trkpt lat="47.87353" lon="-2.42781">
        <ele>24.6</ele>
        <time>2021-08-07T12:17:14Z</time>
      </trkpt>
      <trkpt lat="47.87362" lon="-2.42785">
        <ele>24.6</ele>
        <time>2021-08-07T12:17:16Z</time>
      </trkpt>
      <trkpt lat="47.87367" lon="-2.42786">
        <ele>24.6</ele>
        <time>2021-08-07T12:17:17Z</time>
      </trkpt>
      <trkpt lat="47.87371" lon="-2.42788">
        <ele>24.6</ele>
        <time>2021-08-07T12:17:18Z</time>
      </trkpt>
      <trkpt lat="47.87376" lon="-2.42789">
        <ele>24.6</ele>
        <time>2021-08-07T12:17:19Z</time>
      </trkpt>
      <trkpt lat="47.87381" lon="-2.42791">
        <ele>24.6</ele>
        <time>2021-08-07T12:17:20Z</time>
      </trkpt>
      <trkpt lat="47.87385" lon="-2.42792">
        <ele>24.6</ele>
        <time>2021-08-07T12:17:21Z</time>
      </trkpt>
      <trkpt lat="47.87389" lon="-2.42794">
        <ele>24.6</ele>
        <time>2021-08-07T12:17:22Z</time>
      </trkpt>
      <trkpt lat="47.87394" lon="-2.42795">
        <ele>24.6</ele>
        <time>2021-08-07T12:17:23Z</time>
      </trkpt>
      <trkpt lat="47.87398" lon="-2.42795">
        <ele>24.6</ele>
        <time>2021-08-07T12:17:24Z</time>
      </trkpt>
      <trkpt lat="47.87402" lon="-2.42796">
        <ele>24.6</ele>
        <time>2021-08-07T12:17:25Z</time>
      </trkpt>
      <trkpt lat="47.87406" lon="-2.42796">
        <ele>24.6</ele>
        <time>2021-08-07T12:17:26Z</time>
      </trkpt>
      <trkpt lat="47.8741" lon="-2.42797">
        <ele>24.6</ele>
        <time>2021-08-07T12:17:27Z</time>
      </trkpt>
      <trkpt lat="47.87415" lon="-2.42798">
        <ele>24.6</ele>
        <time>2021-08-07T12:17:28Z</time>
      </trkpt>
      <trkpt lat="47.87419" lon="-2.42798">
        <ele>24.6</ele>
        <time>2021-08-07T12:17:29Z</time>
      </trkpt>
      <trkpt lat="47.87424" lon="-2.42799">
        <ele>24.6</ele>
        <time>2021-08-07T12:17:30Z</time>
      </trkpt>
      <trkpt lat="47.87428" lon="-2.42799">
        <ele>24.6</ele>
        <time>2021-08-07T12:17:31Z</time>
      </trkpt>
      <trkpt lat="47.87433" lon="-2.42799">
        <ele>24.6</ele>
        <time>2021-08-07T12:17:32Z</time>
      </trkpt>
      <trkpt lat="47.87437" lon="-2.42799">
        <ele>24.6</ele>
        <time>2021-08-07T12:17:33Z</time>
      </trkpt>
      <trkpt lat="47.87442" lon="-2.42799">
        <ele>24.6</ele>
        <time>2021-08-07T12:17:34Z</time>
      </trkpt>
      <trkpt lat="47.87451" lon="-2.428">
        <ele>24.6</ele>
        <time>2021-08-07T12:17:36Z</time>
      </trkpt>
      <trkpt lat="47.87455" lon="-2.428">
        <ele>24.6</ele>
        <time>2021-08-07T12:17:37Z</time>
      </trkpt>
      <trkpt lat="47.8746" lon="-2.428">
        <ele>24.6</ele>
        <time>2021-08-07T12:17:38Z</time>
      </trkpt>
      <trkpt lat="47.87465" lon="-2.42801">
        <ele>24.6</ele>
        <time>2021-08-07T12:17:39Z</time>
      </trkpt>
      <trkpt lat="47.87469" lon="-2.42801">
        <ele>24.6</ele>
        <time>2021-08-07T12:17:40Z</time>
      </trkpt>
      <trkpt lat="47.87474" lon="-2.42801">
        <ele>24.6</ele>
        <time>2021-08-07T12:17:41Z</time>
      </trkpt>
      <trkpt lat="47.87479" lon="-2.42801">
        <ele>24.6</ele>
        <time>2021-08-07T12:17:42Z</time>
      </trkpt>
      <trkpt lat="47.87483" lon="-2.42802">
        <ele>24.6</ele>
        <time>2021-08-07T12:17:43Z</time>
      </trkpt>
      <trkpt lat="47.87488" lon="-2.42801">
        <ele>24.6</ele>
        <time>2021-08-07T12:17:44Z</time>
      </trkpt>
      <trkpt lat="47.87497" lon="-2.428">
        <ele>24.6</ele>
        <time>2021-08-07T12:17:46Z</time>
      </trkpt>
      <trkpt lat="47.87501" lon="-2.428">
        <ele>24.8</ele>
        <time>2021-08-07T12:17:47Z</time>
      </trkpt>
      <trkpt lat="47.87505" lon="-2.42799">
        <ele>24.8</ele>
        <time>2021-08-07T12:17:48Z</time>
      </trkpt>
      <trkpt lat="47.8751" lon="-2.42798">
        <ele>24.8</ele>
        <time>2021-08-07T12:17:49Z</time>
      </trkpt>
      <trkpt lat="47.87514" lon="-2.42797">
        <ele>24.8</ele>
        <time>2021-08-07T12:17:50Z</time>
      </trkpt>
      <trkpt lat="47.87518" lon="-2.42795">
        <ele>24.8</ele>
        <time>2021-08-07T12:17:51Z</time>
      </trkpt>
      <trkpt lat="47.87522" lon="-2.42794">
        <ele>24.8</ele>
        <time>2021-08-07T12:17:52Z</time>
      </trkpt>
      <trkpt lat="47.87527" lon="-2.42793">
        <ele>24.8</ele>
        <time>2021-08-07T12:17:53Z</time>
      </trkpt>
      <trkpt lat="47.87531" lon="-2.42791">
        <ele>24.8</ele>
        <time>2021-08-07T12:17:54Z</time>
      </trkpt>
      <trkpt lat="47.87535" lon="-2.42789">
        <ele>24.8</ele>
        <time>2021-08-07T12:17:55Z</time>
      </trkpt>
      <trkpt lat="47.87539" lon="-2.42787">
        <ele>25</ele>
        <time>2021-08-07T12:17:56Z</time>
      </trkpt>
      <trkpt lat="47.87543" lon="-2.42785">
        <ele>25</ele>
        <time>2021-08-07T12:17:57Z</time>
      </trkpt>
      <trkpt lat="47.87547" lon="-2.42782">
        <ele>25</ele>
        <time>2021-08-07T12:17:58Z</time>
      </trkpt>
      <trkpt lat="47.87551" lon="-2.4278">
        <ele>25</ele>
        <time>2021-08-07T12:17:59Z</time>
      </trkpt>
      <trkpt lat="47.87555" lon="-2.42777">
        <ele>25</ele>
        <time>2021-08-07T12:18:00Z</time>
      </trkpt>
      <trkpt lat="47.87559" lon="-2.42774">
        <ele>25</ele>
        <time>2021-08-07T12:18:01Z</time>
      </trkpt>
      <trkpt lat="47.87562" lon="-2.42771">
        <ele>25.2</ele>
        <time>2021-08-07T12:18:02Z</time>
      </trkpt>
      <trkpt lat="47.8757" lon="-2.42764">
        <ele>25.2</ele>
        <time>2021-08-07T12:18:04Z</time>
      </trkpt>
      <trkpt lat="47.87573" lon="-2.4276">
        <ele>25.2</ele>
        <time>2021-08-07T12:18:05Z</time>
      </trkpt>
      <trkpt lat="47.87577" lon="-2.42757">
        <ele>25.4</ele>
        <time>2021-08-07T12:18:06Z</time>
      </trkpt>
      <trkpt lat="47.8758" lon="-2.42753">
        <ele>25.4</ele>
        <time>2021-08-07T12:18:07Z</time>
      </trkpt>
      <trkpt lat="47.87583" lon="-2.4275">
        <ele>25.6</ele>
        <time>2021-08-07T12:18:08Z</time>
      </trkpt>
      <trkpt lat="47.87586" lon="-2.42747">
        <ele>25.6</ele>
        <time>2021-08-07T12:18:09Z</time>
      </trkpt>
      <trkpt lat="47.8759" lon="-2.42742">
        <ele>25.8</ele>
        <time>2021-08-07T12:18:10Z</time>
      </trkpt>
      <trkpt lat="47.87593" lon="-2.42738">
        <ele>26</ele>
        <time>2021-08-07T12:18:11Z</time>
      </trkpt>
      <trkpt lat="47.87599" lon="-2.42729">
        <ele>26</ele>
        <time>2021-08-07T12:18:13Z</time>
      </trkpt>
      <trkpt lat="47.87601" lon="-2.42725">
        <ele>26</ele>
        <time>2021-08-07T12:18:14Z</time>
      </trkpt>
      <trkpt lat="47.87603" lon="-2.4272">
        <ele>26.2</ele>
        <time>2021-08-07T12:18:15Z</time>
      </trkpt>
      <trkpt lat="47.87607" lon="-2.42715">
        <ele>26.2</ele>
        <time>2021-08-07T12:18:16Z</time>
      </trkpt>
      <trkpt lat="47.8761" lon="-2.42709">
        <ele>26.2</ele>
        <time>2021-08-07T12:18:17Z</time>
      </trkpt>
      <trkpt lat="47.87612" lon="-2.42704">
        <ele>26.2</ele>
        <time>2021-08-07T12:18:18Z</time>
      </trkpt>
      <trkpt lat="47.87615" lon="-2.42698">
        <ele>26.2</ele>
        <time>2021-08-07T12:18:19Z</time>
      </trkpt>
      <trkpt lat="47.87618" lon="-2.42693">
        <ele>26.2</ele>
        <time>2021-08-07T12:18:20Z</time>
      </trkpt>
      <trkpt lat="47.8762" lon="-2.42687">
        <ele>26.2</ele>
        <time>2021-08-07T12:18:21Z</time>
      </trkpt>
      <trkpt lat="47.87626" lon="-2.42676">
        <ele>25.8</ele>
        <time>2021-08-07T12:18:23Z</time>
      </trkpt>
      <trkpt lat="47.87629" lon="-2.4267">
        <ele>25.8</ele>
        <time>2021-08-07T12:18:24Z</time>
      </trkpt>
      <trkpt lat="47.87632" lon="-2.42664">
        <ele>25.6</ele>
        <time>2021-08-07T12:18:25Z</time>
      </trkpt>
      <trkpt lat="47.87635" lon="-2.42658">
        <ele>25.6</ele>
        <time>2021-08-07T12:18:26Z</time>
      </trkpt>
      <trkpt lat="47.87637" lon="-2.42652">
        <ele>25.4</ele>
        <time>2021-08-07T12:18:27Z</time>
      </trkpt>
      <trkpt lat="47.8764" lon="-2.42646">
        <ele>25.4</ele>
        <time>2021-08-07T12:18:28Z</time>
      </trkpt>
      <trkpt lat="47.87643" lon="-2.42641">
        <ele>25.4</ele>
        <time>2021-08-07T12:18:29Z</time>
      </trkpt>
      <trkpt lat="47.87646" lon="-2.42635">
        <ele>25.4</ele>
        <time>2021-08-07T12:18:30Z</time>
      </trkpt>
      <trkpt lat="47.87649" lon="-2.4263">
        <ele>25.4</ele>
        <time>2021-08-07T12:18:31Z</time>
      </trkpt>
      <trkpt lat="47.87654" lon="-2.4262">
        <ele>25.4</ele>
        <time>2021-08-07T12:18:33Z</time>
      </trkpt>
      <trkpt lat="47.87657" lon="-2.42615">
        <ele>25.2</ele>
        <time>2021-08-07T12:18:34Z</time>
      </trkpt>
      <trkpt lat="47.8766" lon="-2.42609">
        <ele>25.2</ele>
        <time>2021-08-07T12:18:35Z</time>
      </trkpt>
      <trkpt lat="47.87663" lon="-2.42604">
        <ele>25.4</ele>
        <time>2021-08-07T12:18:36Z</time>
      </trkpt>
      <trkpt lat="47.87666" lon="-2.426">
        <ele>25.4</ele>
        <time>2021-08-07T12:18:37Z</time>
      </trkpt>
      <trkpt lat="47.87669" lon="-2.42595">
        <ele>25.4</ele>
        <time>2021-08-07T12:18:38Z</time>
      </trkpt>
      <trkpt lat="47.87672" lon="-2.4259">
        <ele>25.4</ele>
        <time>2021-08-07T12:18:39Z</time>
      </trkpt>
      <trkpt lat="47.87675" lon="-2.42585">
        <ele>25.4</ele>
        <time>2021-08-07T12:18:40Z</time>
      </trkpt>
      <trkpt lat="47.87677" lon="-2.42581">
        <ele>25.4</ele>
        <time>2021-08-07T12:18:41Z</time>
      </trkpt>
      <trkpt lat="47.8768" lon="-2.42576">
        <ele>25.4</ele>
        <time>2021-08-07T12:18:42Z</time>
      </trkpt>
      <trkpt lat="47.87683" lon="-2.42572">
        <ele>25.4</ele>
        <time>2021-08-07T12:18:43Z</time>
      </trkpt>
      <trkpt lat="47.87686" lon="-2.42568">
        <ele>25.4</ele>
        <time>2021-08-07T12:18:44Z</time>
      </trkpt>
      <trkpt lat="47.87688" lon="-2.42564">
        <ele>25.4</ele>
        <time>2021-08-07T12:18:45Z</time>
      </trkpt>
      <trkpt lat="47.87691" lon="-2.42559">
        <ele>25.4</ele>
        <time>2021-08-07T12:18:46Z</time>
      </trkpt>
      <trkpt lat="47.87694" lon="-2.42555">
        <ele>25.4</ele>
        <time>2021-08-07T12:18:47Z</time>
      </trkpt>
      <trkpt lat="47.87696" lon="-2.4255">
        <ele>25.4</ele>
        <time>2021-08-07T12:18:48Z</time>
      </trkpt>
      <trkpt lat="47.87699" lon="-2.42545">
        <ele>25.4</ele>
        <time>2021-08-07T12:18:49Z</time>
      </trkpt>
      <trkpt lat="47.87701" lon="-2.42541">
        <ele>25.4</ele>
        <time>2021-08-07T12:18:50Z</time>
      </trkpt>
      <trkpt lat="47.87704" lon="-2.42537">
        <ele>25.2</ele>
        <time>2021-08-07T12:18:51Z</time>
      </trkpt>
      <trkpt lat="47.87709" lon="-2.42528">
        <ele>25.2</ele>
        <time>2021-08-07T12:18:53Z</time>
      </trkpt>
      <trkpt lat="47.87711" lon="-2.42524">
        <ele>25.2</ele>
        <time>2021-08-07T12:18:54Z</time>
      </trkpt>
      <trkpt lat="47.87713" lon="-2.4252">
        <ele>25.2</ele>
        <time>2021-08-07T12:18:55Z</time>
      </trkpt>
      <trkpt lat="47.87716" lon="-2.42516">
        <ele>25.2</ele>
        <time>2021-08-07T12:18:56Z</time>
      </trkpt>
      <trkpt lat="47.87719" lon="-2.42512">
        <ele>25.2</ele>
        <time>2021-08-07T12:18:57Z</time>
      </trkpt>
      <trkpt lat="47.87722" lon="-2.42508">
        <ele>25.2</ele>
        <time>2021-08-07T12:18:58Z</time>
      </trkpt>
      <trkpt lat="47.87726" lon="-2.42503">
        <ele>25.2</ele>
        <time>2021-08-07T12:18:59Z</time>
      </trkpt>
      <trkpt lat="47.87729" lon="-2.42498">
        <ele>25.2</ele>
        <time>2021-08-07T12:19:00Z</time>
      </trkpt>
      <trkpt lat="47.87732" lon="-2.42493">
        <ele>25.2</ele>
        <time>2021-08-07T12:19:01Z</time>
      </trkpt>
      <trkpt lat="47.87736" lon="-2.42489">
        <ele>25.2</ele>
        <time>2021-08-07T12:19:02Z</time>
      </trkpt>
      <trkpt lat="47.87739" lon="-2.42486">
        <ele>25.2</ele>
        <time>2021-08-07T12:19:03Z</time>
      </trkpt>
      <trkpt lat="47.87742" lon="-2.42482">
        <ele>25.2</ele>
        <time>2021-08-07T12:19:04Z</time>
      </trkpt>
      <trkpt lat="47.87746" lon="-2.42478">
        <ele>25.2</ele>
        <time>2021-08-07T12:19:05Z</time>
      </trkpt>
      <trkpt lat="47.87749" lon="-2.42475">
        <ele>25.2</ele>
        <time>2021-08-07T12:19:06Z</time>
      </trkpt>
      <trkpt lat="47.87754" lon="-2.42469">
        <ele>25.2</ele>
        <time>2021-08-07T12:19:07Z</time>
      </trkpt>
      <trkpt lat="47.87758" lon="-2.42465">
        <ele>25.2</ele>
        <time>2021-08-07T12:19:08Z</time>
      </trkpt>
      <trkpt lat="47.87763" lon="-2.4246">
        <ele>25.2</ele>
        <time>2021-08-07T12:19:09Z</time>
      </trkpt>
      <trkpt lat="47.87766" lon="-2.42456">
        <ele>25.4</ele>
        <time>2021-08-07T12:19:10Z</time>
      </trkpt>
      <trkpt lat="47.8777" lon="-2.42451">
        <ele>25.4</ele>
        <time>2021-08-07T12:19:11Z</time>
      </trkpt>
      <trkpt lat="47.87774" lon="-2.42447">
        <ele>25.4</ele>
        <time>2021-08-07T12:19:12Z</time>
      </trkpt>
      <trkpt lat="47.87777" lon="-2.42443">
        <ele>25.4</ele>
        <time>2021-08-07T12:19:13Z</time>
      </trkpt>
      <trkpt lat="47.87781" lon="-2.42439">
        <ele>25.4</ele>
        <time>2021-08-07T12:19:14Z</time>
      </trkpt>
      <trkpt lat="47.87784" lon="-2.42436">
        <ele>25.4</ele>
        <time>2021-08-07T12:19:15Z</time>
      </trkpt>
      <trkpt lat="47.87788" lon="-2.42432">
        <ele>25.4</ele>
        <time>2021-08-07T12:19:16Z</time>
      </trkpt>
      <trkpt lat="47.87791" lon="-2.42428">
        <ele>25.4</ele>
        <time>2021-08-07T12:19:17Z</time>
      </trkpt>
      <trkpt lat="47.87795" lon="-2.42424">
        <ele>25.4</ele>
        <time>2021-08-07T12:19:18Z</time>
      </trkpt>
      <trkpt lat="47.87799" lon="-2.4242">
        <ele>25.6</ele>
        <time>2021-08-07T12:19:19Z</time>
      </trkpt>
      <trkpt lat="47.87802" lon="-2.42416">
        <ele>25.6</ele>
        <time>2021-08-07T12:19:20Z</time>
      </trkpt>
      <trkpt lat="47.87807" lon="-2.42412">
        <ele>25.6</ele>
        <time>2021-08-07T12:19:21Z</time>
      </trkpt>
      <trkpt lat="47.87816" lon="-2.42405">
        <ele>25.8</ele>
        <time>2021-08-07T12:19:23Z</time>
      </trkpt>
      <trkpt lat="47.87821" lon="-2.42402">
        <ele>25.8</ele>
        <time>2021-08-07T12:19:24Z</time>
      </trkpt>
      <trkpt lat="47.87826" lon="-2.42399">
        <ele>25.8</ele>
        <time>2021-08-07T12:19:25Z</time>
      </trkpt>
      <trkpt lat="47.8783" lon="-2.42396">
        <ele>25.8</ele>
        <time>2021-08-07T12:19:26Z</time>
      </trkpt>
      <trkpt lat="47.87835" lon="-2.42393">
        <ele>25.8</ele>
        <time>2021-08-07T12:19:27Z</time>
      </trkpt>
      <trkpt lat="47.87839" lon="-2.42391">
        <ele>26</ele>
        <time>2021-08-07T12:19:28Z</time>
      </trkpt>
      <trkpt lat="47.87843" lon="-2.42388">
        <ele>26</ele>
        <time>2021-08-07T12:19:29Z</time>
      </trkpt>
      <trkpt lat="47.87847" lon="-2.42386">
        <ele>26</ele>
        <time>2021-08-07T12:19:30Z</time>
      </trkpt>
      <trkpt lat="47.87851" lon="-2.42383">
        <ele>26</ele>
        <time>2021-08-07T12:19:31Z</time>
      </trkpt>
      <trkpt lat="47.87858" lon="-2.42378">
        <ele>26</ele>
        <time>2021-08-07T12:19:33Z</time>
      </trkpt>
      <trkpt lat="47.87861" lon="-2.42375">
        <ele>26</ele>
        <time>2021-08-07T12:19:34Z</time>
      </trkpt>
      <trkpt lat="47.87865" lon="-2.42373">
        <ele>26</ele>
        <time>2021-08-07T12:19:35Z</time>
      </trkpt>
      <trkpt lat="47.87869" lon="-2.42371">
        <ele>26.2</ele>
        <time>2021-08-07T12:19:36Z</time>
      </trkpt>
      <trkpt lat="47.87873" lon="-2.42368">
        <ele>26.2</ele>
        <time>2021-08-07T12:19:37Z</time>
      </trkpt>
      <trkpt lat="47.87877" lon="-2.42366">
        <ele>26.2</ele>
        <time>2021-08-07T12:19:38Z</time>
      </trkpt>
      <trkpt lat="47.87882" lon="-2.42363">
        <ele>26.2</ele>
        <time>2021-08-07T12:19:39Z</time>
      </trkpt>
      <trkpt lat="47.87888" lon="-2.4236">
        <ele>26.2</ele>
        <time>2021-08-07T12:19:40Z</time>
      </trkpt>
      <trkpt lat="47.879" lon="-2.42356">
        <ele>26.2</ele>
        <time>2021-08-07T12:19:42Z</time>
      </trkpt>
      <trkpt lat="47.87905" lon="-2.42354">
        <ele>26.2</ele>
        <time>2021-08-07T12:19:43Z</time>
      </trkpt>
      <trkpt lat="47.8791" lon="-2.42352">
        <ele>26.2</ele>
        <time>2021-08-07T12:19:44Z</time>
      </trkpt>
      <trkpt lat="47.87916" lon="-2.42351">
        <ele>26.2</ele>
        <time>2021-08-07T12:19:45Z</time>
      </trkpt>
      <trkpt lat="47.87921" lon="-2.4235">
        <ele>26.2</ele>
        <time>2021-08-07T12:19:46Z</time>
      </trkpt>
      <trkpt lat="47.87926" lon="-2.42349">
        <ele>26.2</ele>
        <time>2021-08-07T12:19:47Z</time>
      </trkpt>
      <trkpt lat="47.87931" lon="-2.42348">
        <ele>26.4</ele>
        <time>2021-08-07T12:19:48Z</time>
      </trkpt>
      <trkpt lat="47.87936" lon="-2.42347">
        <ele>26.4</ele>
        <time>2021-08-07T12:19:49Z</time>
      </trkpt>
      <trkpt lat="47.8794" lon="-2.42347">
        <ele>26.4</ele>
        <time>2021-08-07T12:19:50Z</time>
      </trkpt>
      <trkpt lat="47.87949" lon="-2.42346">
        <ele>26.4</ele>
        <time>2021-08-07T12:19:52Z</time>
      </trkpt>
      <trkpt lat="47.87953" lon="-2.42345">
        <ele>26.4</ele>
        <time>2021-08-07T12:19:53Z</time>
      </trkpt>
      <trkpt lat="47.87958" lon="-2.42344">
        <ele>26.4</ele>
        <time>2021-08-07T12:19:54Z</time>
      </trkpt>
      <trkpt lat="47.87962" lon="-2.42343">
        <ele>26.4</ele>
        <time>2021-08-07T12:19:55Z</time>
      </trkpt>
      <trkpt lat="47.87966" lon="-2.42343">
        <ele>26.4</ele>
        <time>2021-08-07T12:19:56Z</time>
      </trkpt>
      <trkpt lat="47.8797" lon="-2.42342">
        <ele>26.4</ele>
        <time>2021-08-07T12:19:57Z</time>
      </trkpt>
      <trkpt lat="47.87974" lon="-2.42341">
        <ele>26.4</ele>
        <time>2021-08-07T12:19:58Z</time>
      </trkpt>
      <trkpt lat="47.87977" lon="-2.4234">
        <ele>26.4</ele>
        <time>2021-08-07T12:19:59Z</time>
      </trkpt>
      <trkpt lat="47.87981" lon="-2.4234">
        <ele>26.4</ele>
        <time>2021-08-07T12:20:00Z</time>
      </trkpt>
      <trkpt lat="47.87987" lon="-2.42339">
        <ele>26.4</ele>
        <time>2021-08-07T12:20:02Z</time>
      </trkpt>
      <trkpt lat="47.87989" lon="-2.42339">
        <ele>26.4</ele>
        <time>2021-08-07T12:20:03Z</time>
      </trkpt>
      <trkpt lat="47.87991" lon="-2.42338">
        <ele>26.6</ele>
        <time>2021-08-07T12:20:04Z</time>
      </trkpt>
      <trkpt lat="47.87994" lon="-2.42338">
        <ele>26.6</ele>
        <time>2021-08-07T12:20:05Z</time>
      </trkpt>
      <trkpt lat="47.87996" lon="-2.42337">
        <ele>26.6</ele>
        <time>2021-08-07T12:20:06Z</time>
      </trkpt>
      <trkpt lat="47.87998" lon="-2.42337">
        <ele>26.6</ele>
        <time>2021-08-07T12:20:07Z</time>
      </trkpt>
      <trkpt lat="47.88" lon="-2.42336">
        <ele>26.6</ele>
        <time>2021-08-07T12:20:08Z</time>
      </trkpt>
      <trkpt lat="47.88003" lon="-2.42335">
        <ele>26.6</ele>
        <time>2021-08-07T12:20:09Z</time>
      </trkpt>
      <trkpt lat="47.88007" lon="-2.42334">
        <ele>26.6</ele>
        <time>2021-08-07T12:20:10Z</time>
      </trkpt>
      <trkpt lat="47.88015" lon="-2.42333">
        <ele>26.6</ele>
        <time>2021-08-07T12:20:12Z</time>
      </trkpt>
      <trkpt lat="47.88019" lon="-2.42333">
        <ele>26.6</ele>
        <time>2021-08-07T12:20:13Z</time>
      </trkpt>
      <trkpt lat="47.88023" lon="-2.42333">
        <ele>26.6</ele>
        <time>2021-08-07T12:20:14Z</time>
      </trkpt>
      <trkpt lat="47.88026" lon="-2.42332">
        <ele>26.6</ele>
        <time>2021-08-07T12:20:15Z</time>
      </trkpt>
      <trkpt lat="47.8803" lon="-2.42332">
        <ele>26.6</ele>
        <time>2021-08-07T12:20:16Z</time>
      </trkpt>
      <trkpt lat="47.88033" lon="-2.42332">
        <ele>26.6</ele>
        <time>2021-08-07T12:20:17Z</time>
      </trkpt>
      <trkpt lat="47.88036" lon="-2.42332">
        <ele>26.6</ele>
        <time>2021-08-07T12:20:18Z</time>
      </trkpt>
      <trkpt lat="47.88039" lon="-2.42331">
        <ele>26.6</ele>
        <time>2021-08-07T12:20:19Z</time>
      </trkpt>
      <trkpt lat="47.88042" lon="-2.42331">
        <ele>26.6</ele>
        <time>2021-08-07T12:20:20Z</time>
      </trkpt>
      <trkpt lat="47.88047" lon="-2.4233">
        <ele>26.6</ele>
        <time>2021-08-07T12:20:22Z</time>
      </trkpt>
      <trkpt lat="47.8805" lon="-2.4233">
        <ele>26.6</ele>
        <time>2021-08-07T12:20:23Z</time>
      </trkpt>
      <trkpt lat="47.88053" lon="-2.4233">
        <ele>26.6</ele>
        <time>2021-08-07T12:20:24Z</time>
      </trkpt>
      <trkpt lat="47.88055" lon="-2.42331">
        <ele>26.6</ele>
        <time>2021-08-07T12:20:25Z</time>
      </trkpt>
      <trkpt lat="47.88058" lon="-2.4233">
        <ele>26.6</ele>
        <time>2021-08-07T12:20:26Z</time>
      </trkpt>
      <trkpt lat="47.88061" lon="-2.4233">
        <ele>26.6</ele>
        <time>2021-08-07T12:20:27Z</time>
      </trkpt>
      <trkpt lat="47.88064" lon="-2.42329">
        <ele>26.6</ele>
        <time>2021-08-07T12:20:28Z</time>
      </trkpt>
      <trkpt lat="47.88068" lon="-2.42329">
        <ele>26.6</ele>
        <time>2021-08-07T12:20:29Z</time>
      </trkpt>
      <trkpt lat="47.88071" lon="-2.42329">
        <ele>26.6</ele>
        <time>2021-08-07T12:20:30Z</time>
      </trkpt>
      <trkpt lat="47.88075" lon="-2.42329">
        <ele>26.6</ele>
        <time>2021-08-07T12:20:31Z</time>
      </trkpt>
      <trkpt lat="47.88079" lon="-2.4233">
        <ele>26.6</ele>
        <time>2021-08-07T12:20:32Z</time>
      </trkpt>
      <trkpt lat="47.88082" lon="-2.42332">
        <ele>26.6</ele>
        <time>2021-08-07T12:20:33Z</time>
      </trkpt>
      <trkpt lat="47.88086" lon="-2.42335">
        <ele>26.6</ele>
        <time>2021-08-07T12:20:34Z</time>
      </trkpt>
      <trkpt lat="47.88089" lon="-2.42338">
        <ele>26.6</ele>
        <time>2021-08-07T12:20:35Z</time>
      </trkpt>
      <trkpt lat="47.88092" lon="-2.42341">
        <ele>26.6</ele>
        <time>2021-08-07T12:20:36Z</time>
      </trkpt>
      <trkpt lat="47.88096" lon="-2.42344">
        <ele>26.6</ele>
        <time>2021-08-07T12:20:37Z</time>
      </trkpt>
      <trkpt lat="47.88099" lon="-2.42347">
        <ele>26.4</ele>
        <time>2021-08-07T12:20:38Z</time>
      </trkpt>
      <trkpt lat="47.88102" lon="-2.4235">
        <ele>26.4</ele>
        <time>2021-08-07T12:20:39Z</time>
      </trkpt>
      <trkpt lat="47.88106" lon="-2.42352">
        <ele>26.2</ele>
        <time>2021-08-07T12:20:40Z</time>
      </trkpt>
      <trkpt lat="47.88112" lon="-2.42358">
        <ele>26.2</ele>
        <time>2021-08-07T12:20:42Z</time>
      </trkpt>
      <trkpt lat="47.88115" lon="-2.42361">
        <ele>26</ele>
        <time>2021-08-07T12:20:43Z</time>
      </trkpt>
      <trkpt lat="47.88117" lon="-2.42364">
        <ele>26</ele>
        <time>2021-08-07T12:20:44Z</time>
      </trkpt>
      <trkpt lat="47.8812" lon="-2.42367">
        <ele>26</ele>
        <time>2021-08-07T12:20:45Z</time>
      </trkpt>
      <trkpt lat="47.88122" lon="-2.42369">
        <ele>26</ele>
        <time>2021-08-07T12:20:46Z</time>
      </trkpt>
      <trkpt lat="47.88125" lon="-2.42372">
        <ele>26</ele>
        <time>2021-08-07T12:20:47Z</time>
      </trkpt>
      <trkpt lat="47.88127" lon="-2.42375">
        <ele>26</ele>
        <time>2021-08-07T12:20:48Z</time>
      </trkpt>
      <trkpt lat="47.8813" lon="-2.42377">
        <ele>26</ele>
        <time>2021-08-07T12:20:49Z</time>
      </trkpt>
      <trkpt lat="47.88132" lon="-2.4238">
        <ele>26</ele>
        <time>2021-08-07T12:20:50Z</time>
      </trkpt>
      <trkpt lat="47.88136" lon="-2.42385">
        <ele>26</ele>
        <time>2021-08-07T12:20:52Z</time>
      </trkpt>
      <trkpt lat="47.88139" lon="-2.42387">
        <ele>26</ele>
        <time>2021-08-07T12:20:53Z</time>
      </trkpt>
      <trkpt lat="47.88141" lon="-2.4239">
        <ele>26</ele>
        <time>2021-08-07T12:20:54Z</time>
      </trkpt>
      <trkpt lat="47.88143" lon="-2.42393">
        <ele>26</ele>
        <time>2021-08-07T12:20:55Z</time>
      </trkpt>
      <trkpt lat="47.88145" lon="-2.42395">
        <ele>26</ele>
        <time>2021-08-07T12:20:56Z</time>
      </trkpt>
      <trkpt lat="47.88147" lon="-2.42398">
        <ele>26.2</ele>
        <time>2021-08-07T12:20:57Z</time>
      </trkpt>
      <trkpt lat="47.88149" lon="-2.42401">
        <ele>26.2</ele>
        <time>2021-08-07T12:20:58Z</time>
      </trkpt>
      <trkpt lat="47.88151" lon="-2.42403">
        <ele>26.2</ele>
        <time>2021-08-07T12:20:59Z</time>
      </trkpt>
      <trkpt lat="47.88152" lon="-2.42405">
        <ele>26.2</ele>
        <time>2021-08-07T12:21:00Z</time>
      </trkpt>
      <trkpt lat="47.88157" lon="-2.4241">
        <ele>26.2</ele>
        <time>2021-08-07T12:21:02Z</time>
      </trkpt>
      <trkpt lat="47.88159" lon="-2.42413">
        <ele>26.2</ele>
        <time>2021-08-07T12:21:03Z</time>
      </trkpt>
      <trkpt lat="47.88162" lon="-2.42416">
        <ele>26.2</ele>
        <time>2021-08-07T12:21:04Z</time>
      </trkpt>
      <trkpt lat="47.88164" lon="-2.42419">
        <ele>26</ele>
        <time>2021-08-07T12:21:05Z</time>
      </trkpt>
      <trkpt lat="47.88167" lon="-2.42423">
        <ele>26</ele>
        <time>2021-08-07T12:21:06Z</time>
      </trkpt>
      <trkpt lat="47.8817" lon="-2.42426">
        <ele>26</ele>
        <time>2021-08-07T12:21:07Z</time>
      </trkpt>
      <trkpt lat="47.88172" lon="-2.42429">
        <ele>25.8</ele>
        <time>2021-08-07T12:21:08Z</time>
      </trkpt>
      <trkpt lat="47.88175" lon="-2.42431">
        <ele>25.8</ele>
        <time>2021-08-07T12:21:09Z</time>
      </trkpt>
      <trkpt lat="47.88181" lon="-2.42436">
        <ele>25.6</ele>
        <time>2021-08-07T12:21:11Z</time>
      </trkpt>
      <trkpt lat="47.88184" lon="-2.42439">
        <ele>25.6</ele>
        <time>2021-08-07T12:21:12Z</time>
      </trkpt>
      <trkpt lat="47.88187" lon="-2.42442">
        <ele>25.6</ele>
        <time>2021-08-07T12:21:13Z</time>
      </trkpt>
      <trkpt lat="47.88191" lon="-2.42445">
        <ele>25.6</ele>
        <time>2021-08-07T12:21:14Z</time>
      </trkpt>
      <trkpt lat="47.88194" lon="-2.42449">
        <ele>25.4</ele>
        <time>2021-08-07T12:21:15Z</time>
      </trkpt>
      <trkpt lat="47.88198" lon="-2.42453">
        <ele>25.4</ele>
        <time>2021-08-07T12:21:16Z</time>
      </trkpt>
      <trkpt lat="47.88202" lon="-2.42457">
        <ele>25.4</ele>
        <time>2021-08-07T12:21:17Z</time>
      </trkpt>
      <trkpt lat="47.88205" lon="-2.42461">
        <ele>25.4</ele>
        <time>2021-08-07T12:21:18Z</time>
      </trkpt>
      <trkpt lat="47.88209" lon="-2.42464">
        <ele>25.2</ele>
        <time>2021-08-07T12:21:19Z</time>
      </trkpt>
      <trkpt lat="47.88212" lon="-2.42467">
        <ele>25.2</ele>
        <time>2021-08-07T12:21:20Z</time>
      </trkpt>
      <trkpt lat="47.88216" lon="-2.4247">
        <ele>25.2</ele>
        <time>2021-08-07T12:21:21Z</time>
      </trkpt>
      <trkpt lat="47.8822" lon="-2.42472">
        <ele>25.2</ele>
        <time>2021-08-07T12:21:22Z</time>
      </trkpt>
      <trkpt lat="47.88224" lon="-2.42475">
        <ele>25.2</ele>
        <time>2021-08-07T12:21:23Z</time>
      </trkpt>
      <trkpt lat="47.88228" lon="-2.42478">
        <ele>25.2</ele>
        <time>2021-08-07T12:21:24Z</time>
      </trkpt>
      <trkpt lat="47.88231" lon="-2.42482">
        <ele>25.2</ele>
        <time>2021-08-07T12:21:25Z</time>
      </trkpt>
      <trkpt lat="47.88235" lon="-2.42484">
        <ele>25.2</ele>
        <time>2021-08-07T12:21:26Z</time>
      </trkpt>
      <trkpt lat="47.88239" lon="-2.42487">
        <ele>25.2</ele>
        <time>2021-08-07T12:21:27Z</time>
      </trkpt>
      <trkpt lat="47.88243" lon="-2.4249">
        <ele>25.2</ele>
        <time>2021-08-07T12:21:28Z</time>
      </trkpt>
      <trkpt lat="47.8825" lon="-2.42496">
        <ele>25.2</ele>
        <time>2021-08-07T12:21:30Z</time>
      </trkpt>
      <trkpt lat="47.88254" lon="-2.42499">
        <ele>25.2</ele>
        <time>2021-08-07T12:21:31Z</time>
      </trkpt>
      <trkpt lat="47.88258" lon="-2.42502">
        <ele>25.2</ele>
        <time>2021-08-07T12:21:32Z</time>
      </trkpt>
      <trkpt lat="47.88262" lon="-2.42505">
        <ele>25.2</ele>
        <time>2021-08-07T12:21:33Z</time>
      </trkpt>
      <trkpt lat="47.88266" lon="-2.42508">
        <ele>25.2</ele>
        <time>2021-08-07T12:21:34Z</time>
      </trkpt>
      <trkpt lat="47.8827" lon="-2.42512">
        <ele>25.2</ele>
        <time>2021-08-07T12:21:35Z</time>
      </trkpt>
      <trkpt lat="47.88273" lon="-2.42515">
        <ele>25.2</ele>
        <time>2021-08-07T12:21:36Z</time>
      </trkpt>
      <trkpt lat="47.88277" lon="-2.42518">
        <ele>25.2</ele>
        <time>2021-08-07T12:21:37Z</time>
      </trkpt>
      <trkpt lat="47.88281" lon="-2.42521">
        <ele>25.2</ele>
        <time>2021-08-07T12:21:38Z</time>
      </trkpt>
      <trkpt lat="47.88289" lon="-2.42526">
        <ele>25</ele>
        <time>2021-08-07T12:21:40Z</time>
      </trkpt>
      <trkpt lat="47.88293" lon="-2.42529">
        <ele>25</ele>
        <time>2021-08-07T12:21:41Z</time>
      </trkpt>
      <trkpt lat="47.88297" lon="-2.42533">
        <ele>25</ele>
        <time>2021-08-07T12:21:42Z</time>
      </trkpt>
      <trkpt lat="47.88301" lon="-2.42536">
        <ele>25</ele>
        <time>2021-08-07T12:21:43Z</time>
      </trkpt>
      <trkpt lat="47.88306" lon="-2.42539">
        <ele>25</ele>
        <time>2021-08-07T12:21:44Z</time>
      </trkpt>
      <trkpt lat="47.8831" lon="-2.42542">
        <ele>25</ele>
        <time>2021-08-07T12:21:45Z</time>
      </trkpt>
      <trkpt lat="47.88313" lon="-2.42544">
        <ele>25</ele>
        <time>2021-08-07T12:21:46Z</time>
      </trkpt>
      <trkpt lat="47.88317" lon="-2.42547">
        <ele>25</ele>
        <time>2021-08-07T12:21:47Z</time>
      </trkpt>
      <trkpt lat="47.8832" lon="-2.4255">
        <ele>25</ele>
        <time>2021-08-07T12:21:48Z</time>
      </trkpt>
      <trkpt lat="47.88328" lon="-2.42556">
        <ele>25</ele>
        <time>2021-08-07T12:21:50Z</time>
      </trkpt>
      <trkpt lat="47.88331" lon="-2.42559">
        <ele>25</ele>
        <time>2021-08-07T12:21:51Z</time>
      </trkpt>
      <trkpt lat="47.88335" lon="-2.42562">
        <ele>25</ele>
        <time>2021-08-07T12:21:52Z</time>
      </trkpt>
      <trkpt lat="47.88339" lon="-2.42564">
        <ele>25</ele>
        <time>2021-08-07T12:21:53Z</time>
      </trkpt>
      <trkpt lat="47.88343" lon="-2.42567">
        <ele>25.2</ele>
        <time>2021-08-07T12:21:54Z</time>
      </trkpt>
      <trkpt lat="47.88346" lon="-2.42569">
        <ele>25.2</ele>
        <time>2021-08-07T12:21:55Z</time>
      </trkpt>
      <trkpt lat="47.88349" lon="-2.42572">
        <ele>25.2</ele>
        <time>2021-08-07T12:21:56Z</time>
      </trkpt>
      <trkpt lat="47.88353" lon="-2.42576">
        <ele>25.4</ele>
        <time>2021-08-07T12:21:57Z</time>
      </trkpt>
      <trkpt lat="47.88359" lon="-2.42582">
        <ele>25.4</ele>
        <time>2021-08-07T12:21:59Z</time>
      </trkpt>
      <trkpt lat="47.88362" lon="-2.42585">
        <ele>25.4</ele>
        <time>2021-08-07T12:22:00Z</time>
      </trkpt>
      <trkpt lat="47.88365" lon="-2.42588">
        <ele>25.4</ele>
        <time>2021-08-07T12:22:01Z</time>
      </trkpt>
      <trkpt lat="47.88368" lon="-2.42592">
        <ele>25.6</ele>
        <time>2021-08-07T12:22:02Z</time>
      </trkpt>
      <trkpt lat="47.88372" lon="-2.42595">
        <ele>25.6</ele>
        <time>2021-08-07T12:22:03Z</time>
      </trkpt>
      <trkpt lat="47.88375" lon="-2.42599">
        <ele>25.6</ele>
        <time>2021-08-07T12:22:04Z</time>
      </trkpt>
      <trkpt lat="47.88378" lon="-2.42604">
        <ele>25.6</ele>
        <time>2021-08-07T12:22:05Z</time>
      </trkpt>
      <trkpt lat="47.88382" lon="-2.42609">
        <ele>25.8</ele>
        <time>2021-08-07T12:22:06Z</time>
      </trkpt>
      <trkpt lat="47.88385" lon="-2.42614">
        <ele>25.8</ele>
        <time>2021-08-07T12:22:07Z</time>
      </trkpt>
      <trkpt lat="47.88391" lon="-2.42623">
        <ele>25.8</ele>
        <time>2021-08-07T12:22:09Z</time>
      </trkpt>
      <trkpt lat="47.88394" lon="-2.42628">
        <ele>25.8</ele>
        <time>2021-08-07T12:22:10Z</time>
      </trkpt>
      <trkpt lat="47.88397" lon="-2.42633">
        <ele>25.8</ele>
        <time>2021-08-07T12:22:11Z</time>
      </trkpt>
      <trkpt lat="47.884" lon="-2.42637">
        <ele>25.8</ele>
        <time>2021-08-07T12:22:12Z</time>
      </trkpt>
      <trkpt lat="47.88402" lon="-2.42641">
        <ele>25.8</ele>
        <time>2021-08-07T12:22:13Z</time>
      </trkpt>
      <trkpt lat="47.88404" lon="-2.42646">
        <ele>25.8</ele>
        <time>2021-08-07T12:22:14Z</time>
      </trkpt>
      <trkpt lat="47.88407" lon="-2.4265">
        <ele>25.8</ele>
        <time>2021-08-07T12:22:15Z</time>
      </trkpt>
      <trkpt lat="47.88409" lon="-2.42655">
        <ele>25.8</ele>
        <time>2021-08-07T12:22:16Z</time>
      </trkpt>
      <trkpt lat="47.88412" lon="-2.42661">
        <ele>25.8</ele>
        <time>2021-08-07T12:22:17Z</time>
      </trkpt>
      <trkpt lat="47.88418" lon="-2.42672">
        <ele>25.8</ele>
        <time>2021-08-07T12:22:19Z</time>
      </trkpt>
      <trkpt lat="47.88421" lon="-2.42678">
        <ele>25.8</ele>
        <time>2021-08-07T12:22:20Z</time>
      </trkpt>
      <trkpt lat="47.88424" lon="-2.42683">
        <ele>25.8</ele>
        <time>2021-08-07T12:22:21Z</time>
      </trkpt>
      <trkpt lat="47.88427" lon="-2.42688">
        <ele>25.8</ele>
        <time>2021-08-07T12:22:22Z</time>
      </trkpt>
      <trkpt lat="47.8843" lon="-2.42693">
        <ele>25.8</ele>
        <time>2021-08-07T12:22:23Z</time>
      </trkpt>
      <trkpt lat="47.88433" lon="-2.42699">
        <ele>25.8</ele>
        <time>2021-08-07T12:22:24Z</time>
      </trkpt>
      <trkpt lat="47.88436" lon="-2.42705">
        <ele>25.8</ele>
        <time>2021-08-07T12:22:25Z</time>
      </trkpt>
      <trkpt lat="47.88439" lon="-2.42711">
        <ele>25.8</ele>
        <time>2021-08-07T12:22:26Z</time>
      </trkpt>
      <trkpt lat="47.88445" lon="-2.42721">
        <ele>25.8</ele>
        <time>2021-08-07T12:22:28Z</time>
      </trkpt>
      <trkpt lat="47.88447" lon="-2.42727">
        <ele>25.8</ele>
        <time>2021-08-07T12:22:29Z</time>
      </trkpt>
      <trkpt lat="47.8845" lon="-2.42732">
        <ele>25.8</ele>
        <time>2021-08-07T12:22:30Z</time>
      </trkpt>
      <trkpt lat="47.88454" lon="-2.42738">
        <ele>25.8</ele>
        <time>2021-08-07T12:22:31Z</time>
      </trkpt>
      <trkpt lat="47.88457" lon="-2.42744">
        <ele>25.8</ele>
        <time>2021-08-07T12:22:32Z</time>
      </trkpt>
      <trkpt lat="47.8846" lon="-2.4275">
        <ele>25.8</ele>
        <time>2021-08-07T12:22:33Z</time>
      </trkpt>
      <trkpt lat="47.88464" lon="-2.42756">
        <ele>25.8</ele>
        <time>2021-08-07T12:22:34Z</time>
      </trkpt>
      <trkpt lat="47.88467" lon="-2.42761">
        <ele>25.8</ele>
        <time>2021-08-07T12:22:35Z</time>
      </trkpt>
      <trkpt lat="47.8847" lon="-2.42767">
        <ele>25.8</ele>
        <time>2021-08-07T12:22:36Z</time>
      </trkpt>
      <trkpt lat="47.88476" lon="-2.42778">
        <ele>25.8</ele>
        <time>2021-08-07T12:22:38Z</time>
      </trkpt>
      <trkpt lat="47.88479" lon="-2.42783">
        <ele>25.8</ele>
        <time>2021-08-07T12:22:39Z</time>
      </trkpt>
      <trkpt lat="47.88482" lon="-2.42787">
        <ele>25.8</ele>
        <time>2021-08-07T12:22:40Z</time>
      </trkpt>
      <trkpt lat="47.88485" lon="-2.42791">
        <ele>25.8</ele>
        <time>2021-08-07T12:22:41Z</time>
      </trkpt>
      <trkpt lat="47.88488" lon="-2.42795">
        <ele>25.8</ele>
        <time>2021-08-07T12:22:42Z</time>
      </trkpt>
      <trkpt lat="47.88491" lon="-2.42799">
        <ele>25.8</ele>
        <time>2021-08-07T12:22:43Z</time>
      </trkpt>
      <trkpt lat="47.88494" lon="-2.42803">
        <ele>25.8</ele>
        <time>2021-08-07T12:22:44Z</time>
      </trkpt>
      <trkpt lat="47.88497" lon="-2.42808">
        <ele>25.8</ele>
        <time>2021-08-07T12:22:45Z</time>
      </trkpt>
      <trkpt lat="47.885" lon="-2.42813">
        <ele>25.6</ele>
        <time>2021-08-07T12:22:46Z</time>
      </trkpt>
      <trkpt lat="47.88507" lon="-2.42823">
        <ele>25.6</ele>
        <time>2021-08-07T12:22:48Z</time>
      </trkpt>
      <trkpt lat="47.88511" lon="-2.42829">
        <ele>25.6</ele>
        <time>2021-08-07T12:22:49Z</time>
      </trkpt>
      <trkpt lat="47.88514" lon="-2.42835">
        <ele>25.6</ele>
        <time>2021-08-07T12:22:50Z</time>
      </trkpt>
      <trkpt lat="47.88518" lon="-2.42841">
        <ele>25.6</ele>
        <time>2021-08-07T12:22:51Z</time>
      </trkpt>
      <trkpt lat="47.88521" lon="-2.42846">
        <ele>25.6</ele>
        <time>2021-08-07T12:22:52Z</time>
      </trkpt>
      <trkpt lat="47.88525" lon="-2.42851">
        <ele>25.6</ele>
        <time>2021-08-07T12:22:53Z</time>
      </trkpt>
      <trkpt lat="47.88529" lon="-2.42856">
        <ele>25.4</ele>
        <time>2021-08-07T12:22:54Z</time>
      </trkpt>
      <trkpt lat="47.88532" lon="-2.42861">
        <ele>25.4</ele>
        <time>2021-08-07T12:22:55Z</time>
      </trkpt>
      <trkpt lat="47.88539" lon="-2.42872">
        <ele>25.4</ele>
        <time>2021-08-07T12:22:57Z</time>
      </trkpt>
      <trkpt lat="47.88542" lon="-2.42878">
        <ele>25.2</ele>
        <time>2021-08-07T12:22:58Z</time>
      </trkpt>
      <trkpt lat="47.88545" lon="-2.42882">
        <ele>25.2</ele>
        <time>2021-08-07T12:22:59Z</time>
      </trkpt>
      <trkpt lat="47.88548" lon="-2.42886">
        <ele>25.2</ele>
        <time>2021-08-07T12:23:00Z</time>
      </trkpt>
      <trkpt lat="47.88551" lon="-2.4289">
        <ele>25.2</ele>
        <time>2021-08-07T12:23:01Z</time>
      </trkpt>
      <trkpt lat="47.88553" lon="-2.42893">
        <ele>25.2</ele>
        <time>2021-08-07T12:23:02Z</time>
      </trkpt>
      <trkpt lat="47.88556" lon="-2.42898">
        <ele>25.2</ele>
        <time>2021-08-07T12:23:03Z</time>
      </trkpt>
      <trkpt lat="47.88559" lon="-2.42904">
        <ele>25.2</ele>
        <time>2021-08-07T12:23:04Z</time>
      </trkpt>
      <trkpt lat="47.88562" lon="-2.42909">
        <ele>25.4</ele>
        <time>2021-08-07T12:23:05Z</time>
      </trkpt>
      <trkpt lat="47.88568" lon="-2.4292">
        <ele>25.4</ele>
        <time>2021-08-07T12:23:07Z</time>
      </trkpt>
      <trkpt lat="47.88571" lon="-2.42926">
        <ele>25.6</ele>
        <time>2021-08-07T12:23:08Z</time>
      </trkpt>
      <trkpt lat="47.88573" lon="-2.42932">
        <ele>25.8</ele>
        <time>2021-08-07T12:23:09Z</time>
      </trkpt>
      <trkpt lat="47.88576" lon="-2.42938">
        <ele>25.8</ele>
        <time>2021-08-07T12:23:10Z</time>
      </trkpt>
      <trkpt lat="47.88578" lon="-2.42943">
        <ele>26</ele>
        <time>2021-08-07T12:23:11Z</time>
      </trkpt>
      <trkpt lat="47.8858" lon="-2.42949">
        <ele>26</ele>
        <time>2021-08-07T12:23:12Z</time>
      </trkpt>
      <trkpt lat="47.88582" lon="-2.42954">
        <ele>26</ele>
        <time>2021-08-07T12:23:13Z</time>
      </trkpt>
      <trkpt lat="47.88584" lon="-2.42959">
        <ele>26</ele>
        <time>2021-08-07T12:23:14Z</time>
      </trkpt>
      <trkpt lat="47.88586" lon="-2.42964">
        <ele>26</ele>
        <time>2021-08-07T12:23:15Z</time>
      </trkpt>
      <trkpt lat="47.8859" lon="-2.42976">
        <ele>26</ele>
        <time>2021-08-07T12:23:17Z</time>
      </trkpt>
      <trkpt lat="47.88592" lon="-2.42981">
        <ele>26</ele>
        <time>2021-08-07T12:23:18Z</time>
      </trkpt>
      <trkpt lat="47.88594" lon="-2.42987">
        <ele>26</ele>
        <time>2021-08-07T12:23:19Z</time>
      </trkpt>
      <trkpt lat="47.88596" lon="-2.42992">
        <ele>26</ele>
        <time>2021-08-07T12:23:20Z</time>
      </trkpt>
      <trkpt lat="47.88598" lon="-2.42996">
        <ele>26</ele>
        <time>2021-08-07T12:23:21Z</time>
      </trkpt>
      <trkpt lat="47.88599" lon="-2.43001">
        <ele>25.8</ele>
        <time>2021-08-07T12:23:22Z</time>
      </trkpt>
      <trkpt lat="47.88601" lon="-2.43006">
        <ele>25.6</ele>
        <time>2021-08-07T12:23:23Z</time>
      </trkpt>
      <trkpt lat="47.88603" lon="-2.43011">
        <ele>25.4</ele>
        <time>2021-08-07T12:23:24Z</time>
      </trkpt>
      <trkpt lat="47.88605" lon="-2.43017">
        <ele>25.2</ele>
        <time>2021-08-07T12:23:25Z</time>
      </trkpt>
      <trkpt lat="47.88609" lon="-2.43028">
        <ele>25.2</ele>
        <time>2021-08-07T12:23:27Z</time>
      </trkpt>
      <trkpt lat="47.88611" lon="-2.43034">
        <ele>25</ele>
        <time>2021-08-07T12:23:28Z</time>
      </trkpt>
      <trkpt lat="47.88613" lon="-2.4304">
        <ele>25</ele>
        <time>2021-08-07T12:23:29Z</time>
      </trkpt>
      <trkpt lat="47.88615" lon="-2.43046">
        <ele>25</ele>
        <time>2021-08-07T12:23:30Z</time>
      </trkpt>
      <trkpt lat="47.88618" lon="-2.43052">
        <ele>25</ele>
        <time>2021-08-07T12:23:31Z</time>
      </trkpt>
      <trkpt lat="47.8862" lon="-2.43058">
        <ele>25</ele>
        <time>2021-08-07T12:23:32Z</time>
      </trkpt>
      <trkpt lat="47.88623" lon="-2.43064">
        <ele>25</ele>
        <time>2021-08-07T12:23:33Z</time>
      </trkpt>
      <trkpt lat="47.88626" lon="-2.4307">
        <ele>25</ele>
        <time>2021-08-07T12:23:34Z</time>
      </trkpt>
      <trkpt lat="47.88628" lon="-2.43076">
        <ele>24.8</ele>
        <time>2021-08-07T12:23:35Z</time>
      </trkpt>
      <trkpt lat="47.88634" lon="-2.43088">
        <ele>24.8</ele>
        <time>2021-08-07T12:23:37Z</time>
      </trkpt>
      <trkpt lat="47.88637" lon="-2.43093">
        <ele>24.8</ele>
        <time>2021-08-07T12:23:38Z</time>
      </trkpt>
      <trkpt lat="47.88639" lon="-2.43099">
        <ele>24.8</ele>
        <time>2021-08-07T12:23:39Z</time>
      </trkpt>
      <trkpt lat="47.88642" lon="-2.43104">
        <ele>24.8</ele>
        <time>2021-08-07T12:23:40Z</time>
      </trkpt>
      <trkpt lat="47.88645" lon="-2.4311">
        <ele>24.8</ele>
        <time>2021-08-07T12:23:41Z</time>
      </trkpt>
      <trkpt lat="47.88648" lon="-2.43115">
        <ele>24.8</ele>
        <time>2021-08-07T12:23:42Z</time>
      </trkpt>
      <trkpt lat="47.88651" lon="-2.43121">
        <ele>24.8</ele>
        <time>2021-08-07T12:23:43Z</time>
      </trkpt>
      <trkpt lat="47.88654" lon="-2.43126">
        <ele>24.8</ele>
        <time>2021-08-07T12:23:44Z</time>
      </trkpt>
      <trkpt lat="47.88657" lon="-2.43131">
        <ele>25</ele>
        <time>2021-08-07T12:23:45Z</time>
      </trkpt>
      <trkpt lat="47.88663" lon="-2.43142">
        <ele>25</ele>
        <time>2021-08-07T12:23:47Z</time>
      </trkpt>
      <trkpt lat="47.88665" lon="-2.43148">
        <ele>25</ele>
        <time>2021-08-07T12:23:48Z</time>
      </trkpt>
      <trkpt lat="47.88668" lon="-2.43153">
        <ele>25</ele>
        <time>2021-08-07T12:23:49Z</time>
      </trkpt>
      <trkpt lat="47.88671" lon="-2.43158">
        <ele>25.2</ele>
        <time>2021-08-07T12:23:50Z</time>
      </trkpt>
      <trkpt lat="47.88674" lon="-2.43163">
        <ele>25.2</ele>
        <time>2021-08-07T12:23:51Z</time>
      </trkpt>
      <trkpt lat="47.88677" lon="-2.43169">
        <ele>25.2</ele>
        <time>2021-08-07T12:23:52Z</time>
      </trkpt>
      <trkpt lat="47.88679" lon="-2.43174">
        <ele>25.2</ele>
        <time>2021-08-07T12:23:53Z</time>
      </trkpt>
      <trkpt lat="47.88682" lon="-2.4318">
        <ele>25.2</ele>
        <time>2021-08-07T12:23:54Z</time>
      </trkpt>
      <trkpt lat="47.88684" lon="-2.43185">
        <ele>25.2</ele>
        <time>2021-08-07T12:23:55Z</time>
      </trkpt>
      <trkpt lat="47.88689" lon="-2.43195">
        <ele>25.2</ele>
        <time>2021-08-07T12:23:57Z</time>
      </trkpt>
      <trkpt lat="47.88692" lon="-2.432">
        <ele>25.2</ele>
        <time>2021-08-07T12:23:58Z</time>
      </trkpt>
      <trkpt lat="47.88694" lon="-2.43205">
        <ele>25.2</ele>
        <time>2021-08-07T12:23:59Z</time>
      </trkpt>
      <trkpt lat="47.88697" lon="-2.43209">
        <ele>25.2</ele>
        <time>2021-08-07T12:24:00Z</time>
      </trkpt>
      <trkpt lat="47.88699" lon="-2.43214">
        <ele>25.4</ele>
        <time>2021-08-07T12:24:01Z</time>
      </trkpt>
      <trkpt lat="47.88702" lon="-2.43219">
        <ele>25.4</ele>
        <time>2021-08-07T12:24:02Z</time>
      </trkpt>
      <trkpt lat="47.88705" lon="-2.43224">
        <ele>25.4</ele>
        <time>2021-08-07T12:24:03Z</time>
      </trkpt>
      <trkpt lat="47.88707" lon="-2.43229">
        <ele>25.4</ele>
        <time>2021-08-07T12:24:04Z</time>
      </trkpt>
      <trkpt lat="47.8871" lon="-2.43235">
        <ele>25.4</ele>
        <time>2021-08-07T12:24:05Z</time>
      </trkpt>
      <trkpt lat="47.88712" lon="-2.4324">
        <ele>25.6</ele>
        <time>2021-08-07T12:24:06Z</time>
      </trkpt>
      <trkpt lat="47.88714" lon="-2.43246">
        <ele>25.6</ele>
        <time>2021-08-07T12:24:07Z</time>
      </trkpt>
      <trkpt lat="47.88716" lon="-2.43251">
        <ele>25.6</ele>
        <time>2021-08-07T12:24:08Z</time>
      </trkpt>
      <trkpt lat="47.88718" lon="-2.43257">
        <ele>25.8</ele>
        <time>2021-08-07T12:24:09Z</time>
      </trkpt>
      <trkpt lat="47.8872" lon="-2.43263">
        <ele>25.8</ele>
        <time>2021-08-07T12:24:10Z</time>
      </trkpt>
      <trkpt lat="47.88721" lon="-2.4327">
        <ele>25.8</ele>
        <time>2021-08-07T12:24:11Z</time>
      </trkpt>
      <trkpt lat="47.88723" lon="-2.43276">
        <ele>26</ele>
        <time>2021-08-07T12:24:12Z</time>
      </trkpt>
      <trkpt lat="47.88725" lon="-2.43281">
        <ele>26</ele>
        <time>2021-08-07T12:24:13Z</time>
      </trkpt>
      <trkpt lat="47.88727" lon="-2.43287">
        <ele>26</ele>
        <time>2021-08-07T12:24:14Z</time>
      </trkpt>
      <trkpt lat="47.8873" lon="-2.43297">
        <ele>26</ele>
        <time>2021-08-07T12:24:16Z</time>
      </trkpt>
      <trkpt lat="47.88731" lon="-2.43303">
        <ele>26.2</ele>
        <time>2021-08-07T12:24:17Z</time>
      </trkpt>
      <trkpt lat="47.88732" lon="-2.43308">
        <ele>26.2</ele>
        <time>2021-08-07T12:24:18Z</time>
      </trkpt>
      <trkpt lat="47.88734" lon="-2.43314">
        <ele>26.2</ele>
        <time>2021-08-07T12:24:19Z</time>
      </trkpt>
      <trkpt lat="47.88735" lon="-2.4332">
        <ele>26.2</ele>
        <time>2021-08-07T12:24:20Z</time>
      </trkpt>
      <trkpt lat="47.88736" lon="-2.43326">
        <ele>26.2</ele>
        <time>2021-08-07T12:24:21Z</time>
      </trkpt>
      <trkpt lat="47.88737" lon="-2.43332">
        <ele>26.2</ele>
        <time>2021-08-07T12:24:22Z</time>
      </trkpt>
      <trkpt lat="47.88737" lon="-2.43339">
        <ele>26.2</ele>
        <time>2021-08-07T12:24:23Z</time>
      </trkpt>
      <trkpt lat="47.8874" lon="-2.43352">
        <ele>26.2</ele>
        <time>2021-08-07T12:24:25Z</time>
      </trkpt>
      <trkpt lat="47.88741" lon="-2.43358">
        <ele>26.2</ele>
        <time>2021-08-07T12:24:26Z</time>
      </trkpt>
      <trkpt lat="47.88742" lon="-2.43364">
        <ele>26.2</ele>
        <time>2021-08-07T12:24:27Z</time>
      </trkpt>
      <trkpt lat="47.88742" lon="-2.43371">
        <ele>26.2</ele>
        <time>2021-08-07T12:24:28Z</time>
      </trkpt>
      <trkpt lat="47.88743" lon="-2.43377">
        <ele>26.4</ele>
        <time>2021-08-07T12:24:29Z</time>
      </trkpt>
      <trkpt lat="47.88745" lon="-2.43383">
        <ele>26.4</ele>
        <time>2021-08-07T12:24:30Z</time>
      </trkpt>
      <trkpt lat="47.88746" lon="-2.43389">
        <ele>26.4</ele>
        <time>2021-08-07T12:24:31Z</time>
      </trkpt>
      <trkpt lat="47.88747" lon="-2.43396">
        <ele>26.4</ele>
        <time>2021-08-07T12:24:32Z</time>
      </trkpt>
      <trkpt lat="47.88748" lon="-2.43402">
        <ele>26.2</ele>
        <time>2021-08-07T12:24:33Z</time>
      </trkpt>
      <trkpt lat="47.8875" lon="-2.43416">
        <ele>26.2</ele>
        <time>2021-08-07T12:24:35Z</time>
      </trkpt>
      <trkpt lat="47.88751" lon="-2.43423">
        <ele>26.2</ele>
        <time>2021-08-07T12:24:36Z</time>
      </trkpt>
      <trkpt lat="47.88752" lon="-2.4343">
        <ele>26.2</ele>
        <time>2021-08-07T12:24:37Z</time>
      </trkpt>
      <trkpt lat="47.88753" lon="-2.43437">
        <ele>26.2</ele>
        <time>2021-08-07T12:24:38Z</time>
      </trkpt>
      <trkpt lat="47.88754" lon="-2.43443">
        <ele>26</ele>
        <time>2021-08-07T12:24:39Z</time>
      </trkpt>
      <trkpt lat="47.88755" lon="-2.4345">
        <ele>26</ele>
        <time>2021-08-07T12:24:40Z</time>
      </trkpt>
      <trkpt lat="47.88756" lon="-2.43457">
        <ele>26.2</ele>
        <time>2021-08-07T12:24:41Z</time>
      </trkpt>
      <trkpt lat="47.88757" lon="-2.43463">
        <ele>26.2</ele>
        <time>2021-08-07T12:24:42Z</time>
      </trkpt>
      <trkpt lat="47.88759" lon="-2.4347">
        <ele>26.2</ele>
        <time>2021-08-07T12:24:43Z</time>
      </trkpt>
      <trkpt lat="47.88759" lon="-2.43476">
        <ele>26.2</ele>
        <time>2021-08-07T12:24:44Z</time>
      </trkpt>
      <trkpt lat="47.88761" lon="-2.43482">
        <ele>26.2</ele>
        <time>2021-08-07T12:24:45Z</time>
      </trkpt>
      <trkpt lat="47.88762" lon="-2.43487">
        <ele>26.2</ele>
        <time>2021-08-07T12:24:46Z</time>
      </trkpt>
      <trkpt lat="47.88763" lon="-2.43494">
        <ele>26</ele>
        <time>2021-08-07T12:24:47Z</time>
      </trkpt>
      <trkpt lat="47.88764" lon="-2.435">
        <ele>26</ele>
        <time>2021-08-07T12:24:48Z</time>
      </trkpt>
      <trkpt lat="47.88765" lon="-2.43506">
        <ele>26</ele>
        <time>2021-08-07T12:24:49Z</time>
      </trkpt>
      <trkpt lat="47.88767" lon="-2.43513">
        <ele>26</ele>
        <time>2021-08-07T12:24:50Z</time>
      </trkpt>
      <trkpt lat="47.88768" lon="-2.43519">
        <ele>26</ele>
        <time>2021-08-07T12:24:51Z</time>
      </trkpt>
      <trkpt lat="47.88769" lon="-2.43526">
        <ele>26</ele>
        <time>2021-08-07T12:24:52Z</time>
      </trkpt>
      <trkpt lat="47.88771" lon="-2.43533">
        <ele>26</ele>
        <time>2021-08-07T12:24:53Z</time>
      </trkpt>
      <trkpt lat="47.88774" lon="-2.43546">
        <ele>25.8</ele>
        <time>2021-08-07T12:24:55Z</time>
      </trkpt>
      <trkpt lat="47.88776" lon="-2.43552">
        <ele>25.8</ele>
        <time>2021-08-07T12:24:56Z</time>
      </trkpt>
      <trkpt lat="47.88778" lon="-2.43558">
        <ele>25.8</ele>
        <time>2021-08-07T12:24:57Z</time>
      </trkpt>
      <trkpt lat="47.8878" lon="-2.43563">
        <ele>25.8</ele>
        <time>2021-08-07T12:24:58Z</time>
      </trkpt>
      <trkpt lat="47.88782" lon="-2.43568">
        <ele>25.8</ele>
        <time>2021-08-07T12:24:59Z</time>
      </trkpt>
      <trkpt lat="47.88784" lon="-2.43572">
        <ele>25.8</ele>
        <time>2021-08-07T12:25:00Z</time>
      </trkpt>
      <trkpt lat="47.88786" lon="-2.43577">
        <ele>25.8</ele>
        <time>2021-08-07T12:25:01Z</time>
      </trkpt>
      <trkpt lat="47.88788" lon="-2.43581">
        <ele>25.8</ele>
        <time>2021-08-07T12:25:02Z</time>
      </trkpt>
      <trkpt lat="47.8879" lon="-2.43585">
        <ele>25.8</ele>
        <time>2021-08-07T12:25:03Z</time>
      </trkpt>
      <trkpt lat="47.88793" lon="-2.43593">
        <ele>25.8</ele>
        <time>2021-08-07T12:25:05Z</time>
      </trkpt>
      <trkpt lat="47.88795" lon="-2.43597">
        <ele>25.8</ele>
        <time>2021-08-07T12:25:06Z</time>
      </trkpt>
      <trkpt lat="47.88796" lon="-2.43601">
        <ele>25.8</ele>
        <time>2021-08-07T12:25:07Z</time>
      </trkpt>
      <trkpt lat="47.88797" lon="-2.43605">
        <ele>25.8</ele>
        <time>2021-08-07T12:25:08Z</time>
      </trkpt>
      <trkpt lat="47.88798" lon="-2.43608">
        <ele>25.8</ele>
        <time>2021-08-07T12:25:09Z</time>
      </trkpt>
      <trkpt lat="47.888" lon="-2.43611">
        <ele>25.8</ele>
        <time>2021-08-07T12:25:10Z</time>
      </trkpt>
      <trkpt lat="47.88802" lon="-2.43615">
        <ele>25.8</ele>
        <time>2021-08-07T12:25:11Z</time>
      </trkpt>
      <trkpt lat="47.88803" lon="-2.43618">
        <ele>25.8</ele>
        <time>2021-08-07T12:25:12Z</time>
      </trkpt>
      <trkpt lat="47.88804" lon="-2.43621">
        <ele>26</ele>
        <time>2021-08-07T12:25:13Z</time>
      </trkpt>
      <trkpt lat="47.88807" lon="-2.43626">
        <ele>26</ele>
        <time>2021-08-07T12:25:15Z</time>
      </trkpt>
      <trkpt lat="47.88807" lon="-2.43628">
        <ele>26</ele>
        <time>2021-08-07T12:25:16Z</time>
      </trkpt>
      <trkpt lat="47.88807" lon="-2.4363">
        <ele>26</ele>
        <time>2021-08-07T12:25:17Z</time>
      </trkpt>
      <trkpt lat="47.88807" lon="-2.43633">
        <ele>26</ele>
        <time>2021-08-07T12:25:18Z</time>
      </trkpt>
      <trkpt lat="47.88807" lon="-2.43635">
        <ele>26</ele>
        <time>2021-08-07T12:25:19Z</time>
      </trkpt>
      <trkpt lat="47.88807" lon="-2.43638">
        <ele>26.2</ele>
        <time>2021-08-07T12:25:20Z</time>
      </trkpt>
      <trkpt lat="47.88806" lon="-2.43641">
        <ele>26.6</ele>
        <time>2021-08-07T12:25:21Z</time>
      </trkpt>
      <trkpt lat="47.88806" lon="-2.43644">
        <ele>26.8</ele>
        <time>2021-08-07T12:25:22Z</time>
      </trkpt>
      <trkpt lat="47.88806" lon="-2.43648">
        <ele>27</ele>
        <time>2021-08-07T12:25:23Z</time>
      </trkpt>
      <trkpt lat="47.88805" lon="-2.43651">
        <ele>27.2</ele>
        <time>2021-08-07T12:25:24Z</time>
      </trkpt>
      <trkpt lat="47.88805" lon="-2.43655">
        <ele>27</ele>
        <time>2021-08-07T12:25:25Z</time>
      </trkpt>
      <trkpt lat="47.88804" lon="-2.43659">
        <ele>27.2</ele>
        <time>2021-08-07T12:25:26Z</time>
      </trkpt>
      <trkpt lat="47.88804" lon="-2.43663">
        <ele>27.2</ele>
        <time>2021-08-07T12:25:27Z</time>
      </trkpt>
      <trkpt lat="47.88803" lon="-2.43667">
        <ele>27.2</ele>
        <time>2021-08-07T12:25:28Z</time>
      </trkpt>
      <trkpt lat="47.88803" lon="-2.43671">
        <ele>27</ele>
        <time>2021-08-07T12:25:29Z</time>
      </trkpt>
      <trkpt lat="47.88803" lon="-2.43676">
        <ele>27.2</ele>
        <time>2021-08-07T12:25:30Z</time>
      </trkpt>
      <trkpt lat="47.88802" lon="-2.4368">
        <ele>27.2</ele>
        <time>2021-08-07T12:25:31Z</time>
      </trkpt>
      <trkpt lat="47.88802" lon="-2.43684">
        <ele>27</ele>
        <time>2021-08-07T12:25:32Z</time>
      </trkpt>
      <trkpt lat="47.88801" lon="-2.43694">
        <ele>27</ele>
        <time>2021-08-07T12:25:34Z</time>
      </trkpt>
      <trkpt lat="47.888" lon="-2.43699">
        <ele>27</ele>
        <time>2021-08-07T12:25:35Z</time>
      </trkpt>
      <trkpt lat="47.888" lon="-2.43704">
        <ele>27</ele>
        <time>2021-08-07T12:25:36Z</time>
      </trkpt>
      <trkpt lat="47.888" lon="-2.43709">
        <ele>27</ele>
        <time>2021-08-07T12:25:37Z</time>
      </trkpt>
      <trkpt lat="47.88799" lon="-2.43714">
        <ele>27</ele>
        <time>2021-08-07T12:25:38Z</time>
      </trkpt>
      <trkpt lat="47.88799" lon="-2.43719">
        <ele>26.8</ele>
        <time>2021-08-07T12:25:39Z</time>
      </trkpt>
      <trkpt lat="47.88798" lon="-2.43723">
        <ele>26.8</ele>
        <time>2021-08-07T12:25:40Z</time>
      </trkpt>
      <trkpt lat="47.88798" lon="-2.43728">
        <ele>26.6</ele>
        <time>2021-08-07T12:25:41Z</time>
      </trkpt>
      <trkpt lat="47.88797" lon="-2.43733">
        <ele>26.6</ele>
        <time>2021-08-07T12:25:42Z</time>
      </trkpt>
      <trkpt lat="47.88794" lon="-2.43745">
        <ele>26.6</ele>
        <time>2021-08-07T12:25:44Z</time>
      </trkpt>
      <trkpt lat="47.88794" lon="-2.43751">
        <ele>26.6</ele>
        <time>2021-08-07T12:25:45Z</time>
      </trkpt>
      <trkpt lat="47.88793" lon="-2.43757">
        <ele>26.6</ele>
        <time>2021-08-07T12:25:46Z</time>
      </trkpt>
      <trkpt lat="47.88792" lon="-2.43763">
        <ele>26.6</ele>
        <time>2021-08-07T12:25:47Z</time>
      </trkpt>
      <trkpt lat="47.88791" lon="-2.43769">
        <ele>26.6</ele>
        <time>2021-08-07T12:25:48Z</time>
      </trkpt>
      <trkpt lat="47.8879" lon="-2.43774">
        <ele>26.6</ele>
        <time>2021-08-07T12:25:49Z</time>
      </trkpt>
      <trkpt lat="47.88789" lon="-2.4378">
        <ele>26.4</ele>
        <time>2021-08-07T12:25:50Z</time>
      </trkpt>
      <trkpt lat="47.88788" lon="-2.43786">
        <ele>26.4</ele>
        <time>2021-08-07T12:25:51Z</time>
      </trkpt>
      <trkpt lat="47.88787" lon="-2.43792">
        <ele>26.4</ele>
        <time>2021-08-07T12:25:52Z</time>
      </trkpt>
      <trkpt lat="47.88786" lon="-2.43798">
        <ele>26</ele>
        <time>2021-08-07T12:25:53Z</time>
      </trkpt>
      <trkpt lat="47.88784" lon="-2.43804">
        <ele>26</ele>
        <time>2021-08-07T12:25:54Z</time>
      </trkpt>
      <trkpt lat="47.88782" lon="-2.43811">
        <ele>26</ele>
        <time>2021-08-07T12:25:55Z</time>
      </trkpt>
      <trkpt lat="47.88781" lon="-2.43818">
        <ele>26</ele>
        <time>2021-08-07T12:25:56Z</time>
      </trkpt>
      <trkpt lat="47.88779" lon="-2.43824">
        <ele>26</ele>
        <time>2021-08-07T12:25:57Z</time>
      </trkpt>
      <trkpt lat="47.88777" lon="-2.43831">
        <ele>25.8</ele>
        <time>2021-08-07T12:25:58Z</time>
      </trkpt>
      <trkpt lat="47.88775" lon="-2.43837">
        <ele>25.8</ele>
        <time>2021-08-07T12:25:59Z</time>
      </trkpt>
      <trkpt lat="47.88773" lon="-2.43844">
        <ele>25.8</ele>
        <time>2021-08-07T12:26:00Z</time>
      </trkpt>
      <trkpt lat="47.8877" lon="-2.43851">
        <ele>25.8</ele>
        <time>2021-08-07T12:26:01Z</time>
      </trkpt>
      <trkpt lat="47.88768" lon="-2.43858">
        <ele>25.8</ele>
        <time>2021-08-07T12:26:02Z</time>
      </trkpt>
      <trkpt lat="47.88763" lon="-2.43872">
        <ele>25.8</ele>
        <time>2021-08-07T12:26:04Z</time>
      </trkpt>
      <trkpt lat="47.88761" lon="-2.43879">
        <ele>25.8</ele>
        <time>2021-08-07T12:26:05Z</time>
      </trkpt>
      <trkpt lat="47.88759" lon="-2.43886">
        <ele>25.8</ele>
        <time>2021-08-07T12:26:06Z</time>
      </trkpt>
      <trkpt lat="47.88756" lon="-2.43894">
        <ele>25.8</ele>
        <time>2021-08-07T12:26:07Z</time>
      </trkpt>
      <trkpt lat="47.88754" lon="-2.43901">
        <ele>25.8</ele>
        <time>2021-08-07T12:26:08Z</time>
      </trkpt>
      <trkpt lat="47.88751" lon="-2.43908">
        <ele>25.8</ele>
        <time>2021-08-07T12:26:09Z</time>
      </trkpt>
      <trkpt lat="47.88749" lon="-2.43915">
        <ele>25.8</ele>
        <time>2021-08-07T12:26:10Z</time>
      </trkpt>
      <trkpt lat="47.88747" lon="-2.43922">
        <ele>25.8</ele>
        <time>2021-08-07T12:26:11Z</time>
      </trkpt>
      <trkpt lat="47.88745" lon="-2.43929">
        <ele>25.8</ele>
        <time>2021-08-07T12:26:12Z</time>
      </trkpt>
      <trkpt lat="47.88742" lon="-2.43941">
        <ele>25.6</ele>
        <time>2021-08-07T12:26:14Z</time>
      </trkpt>
      <trkpt lat="47.8874" lon="-2.43947">
        <ele>25.6</ele>
        <time>2021-08-07T12:26:15Z</time>
      </trkpt>
      <trkpt lat="47.88739" lon="-2.43953">
        <ele>25.6</ele>
        <time>2021-08-07T12:26:16Z</time>
      </trkpt>
      <trkpt lat="47.88738" lon="-2.43959">
        <ele>25.4</ele>
        <time>2021-08-07T12:26:17Z</time>
      </trkpt>
      <trkpt lat="47.88737" lon="-2.43965">
        <ele>25.4</ele>
        <time>2021-08-07T12:26:18Z</time>
      </trkpt>
      <trkpt lat="47.88736" lon="-2.43972">
        <ele>25.4</ele>
        <time>2021-08-07T12:26:19Z</time>
      </trkpt>
      <trkpt lat="47.88736" lon="-2.43978">
        <ele>25.4</ele>
        <time>2021-08-07T12:26:20Z</time>
      </trkpt>
      <trkpt lat="47.88735" lon="-2.43984">
        <ele>25.4</ele>
        <time>2021-08-07T12:26:21Z</time>
      </trkpt>
      <trkpt lat="47.88735" lon="-2.43989">
        <ele>25.4</ele>
        <time>2021-08-07T12:26:22Z</time>
      </trkpt>
      <trkpt lat="47.88735" lon="-2.43995">
        <ele>25.4</ele>
        <time>2021-08-07T12:26:23Z</time>
      </trkpt>
      <trkpt lat="47.88734" lon="-2.44001">
        <ele>25.4</ele>
        <time>2021-08-07T12:26:24Z</time>
      </trkpt>
      <trkpt lat="47.88734" lon="-2.44007">
        <ele>25.4</ele>
        <time>2021-08-07T12:26:25Z</time>
      </trkpt>
      <trkpt lat="47.88734" lon="-2.44013">
        <ele>25.4</ele>
        <time>2021-08-07T12:26:26Z</time>
      </trkpt>
      <trkpt lat="47.88735" lon="-2.4402">
        <ele>25.4</ele>
        <time>2021-08-07T12:26:27Z</time>
      </trkpt>
      <trkpt lat="47.88734" lon="-2.44026">
        <ele>25.4</ele>
        <time>2021-08-07T12:26:28Z</time>
      </trkpt>
      <trkpt lat="47.88734" lon="-2.44032">
        <ele>25.6</ele>
        <time>2021-08-07T12:26:29Z</time>
      </trkpt>
      <trkpt lat="47.88734" lon="-2.44038">
        <ele>25.6</ele>
        <time>2021-08-07T12:26:30Z</time>
      </trkpt>
      <trkpt lat="47.88735" lon="-2.44044">
        <ele>25.6</ele>
        <time>2021-08-07T12:26:31Z</time>
      </trkpt>
      <trkpt lat="47.88735" lon="-2.44051">
        <ele>25.6</ele>
        <time>2021-08-07T12:26:32Z</time>
      </trkpt>
      <trkpt lat="47.88736" lon="-2.44063">
        <ele>25.6</ele>
        <time>2021-08-07T12:26:34Z</time>
      </trkpt>
      <trkpt lat="47.88736" lon="-2.4407">
        <ele>25.6</ele>
        <time>2021-08-07T12:26:35Z</time>
      </trkpt>
      <trkpt lat="47.88736" lon="-2.44076">
        <ele>25.6</ele>
        <time>2021-08-07T12:26:36Z</time>
      </trkpt>
      <trkpt lat="47.88737" lon="-2.44083">
        <ele>25.6</ele>
        <time>2021-08-07T12:26:37Z</time>
      </trkpt>
      <trkpt lat="47.88736" lon="-2.4409">
        <ele>25.6</ele>
        <time>2021-08-07T12:26:38Z</time>
      </trkpt>
      <trkpt lat="47.88736" lon="-2.44097">
        <ele>25.8</ele>
        <time>2021-08-07T12:26:39Z</time>
      </trkpt>
      <trkpt lat="47.88736" lon="-2.44103">
        <ele>25.8</ele>
        <time>2021-08-07T12:26:40Z</time>
      </trkpt>
      <trkpt lat="47.88736" lon="-2.4411">
        <ele>25.8</ele>
        <time>2021-08-07T12:26:41Z</time>
      </trkpt>
      <trkpt lat="47.88736" lon="-2.44116">
        <ele>25.8</ele>
        <time>2021-08-07T12:26:42Z</time>
      </trkpt>
      <trkpt lat="47.88735" lon="-2.44129">
        <ele>25.8</ele>
        <time>2021-08-07T12:26:44Z</time>
      </trkpt>
      <trkpt lat="47.88734" lon="-2.44136">
        <ele>25.8</ele>
        <time>2021-08-07T12:26:45Z</time>
      </trkpt>
      <trkpt lat="47.88733" lon="-2.44142">
        <ele>25.8</ele>
        <time>2021-08-07T12:26:46Z</time>
      </trkpt>
      <trkpt lat="47.88732" lon="-2.44149">
        <ele>25.8</ele>
        <time>2021-08-07T12:26:47Z</time>
      </trkpt>
      <trkpt lat="47.88731" lon="-2.44155">
        <ele>25.8</ele>
        <time>2021-08-07T12:26:48Z</time>
      </trkpt>
      <trkpt lat="47.88731" lon="-2.44162">
        <ele>25.6</ele>
        <time>2021-08-07T12:26:49Z</time>
      </trkpt>
      <trkpt lat="47.8873" lon="-2.44169">
        <ele>25.6</ele>
        <time>2021-08-07T12:26:50Z</time>
      </trkpt>
      <trkpt lat="47.8873" lon="-2.44176">
        <ele>25.6</ele>
        <time>2021-08-07T12:26:51Z</time>
      </trkpt>
      <trkpt lat="47.88729" lon="-2.44183">
        <ele>25.6</ele>
        <time>2021-08-07T12:26:52Z</time>
      </trkpt>
      <trkpt lat="47.88727" lon="-2.44197">
        <ele>25.4</ele>
        <time>2021-08-07T12:26:54Z</time>
      </trkpt>
      <trkpt lat="47.88727" lon="-2.44204">
        <ele>25</ele>
        <time>2021-08-07T12:26:55Z</time>
      </trkpt>
      <trkpt lat="47.88726" lon="-2.44211">
        <ele>25</ele>
        <time>2021-08-07T12:26:56Z</time>
      </trkpt>
      <trkpt lat="47.88725" lon="-2.44218">
        <ele>24.8</ele>
        <time>2021-08-07T12:26:57Z</time>
      </trkpt>
      <trkpt lat="47.88724" lon="-2.44224">
        <ele>24.6</ele>
        <time>2021-08-07T12:26:58Z</time>
      </trkpt>
      <trkpt lat="47.88724" lon="-2.44231">
        <ele>24.6</ele>
        <time>2021-08-07T12:26:59Z</time>
      </trkpt>
      <trkpt lat="47.88723" lon="-2.44238">
        <ele>24.4</ele>
        <time>2021-08-07T12:27:00Z</time>
      </trkpt>
      <trkpt lat="47.88722" lon="-2.44244">
        <ele>24.4</ele>
        <time>2021-08-07T12:27:01Z</time>
      </trkpt>
      <trkpt lat="47.88722" lon="-2.44251">
        <ele>24.2</ele>
        <time>2021-08-07T12:27:02Z</time>
      </trkpt>
      <trkpt lat="47.88721" lon="-2.44257">
        <ele>24.2</ele>
        <time>2021-08-07T12:27:03Z</time>
      </trkpt>
      <trkpt lat="47.88721" lon="-2.44264">
        <ele>24.2</ele>
        <time>2021-08-07T12:27:04Z</time>
      </trkpt>
      <trkpt lat="47.8872" lon="-2.4427">
        <ele>24.2</ele>
        <time>2021-08-07T12:27:05Z</time>
      </trkpt>
      <trkpt lat="47.8872" lon="-2.44277">
        <ele>24</ele>
        <time>2021-08-07T12:27:06Z</time>
      </trkpt>
      <trkpt lat="47.88719" lon="-2.44284">
        <ele>24</ele>
        <time>2021-08-07T12:27:07Z</time>
      </trkpt>
      <trkpt lat="47.88719" lon="-2.4429">
        <ele>24</ele>
        <time>2021-08-07T12:27:08Z</time>
      </trkpt>
      <trkpt lat="47.88719" lon="-2.44297">
        <ele>24</ele>
        <time>2021-08-07T12:27:09Z</time>
      </trkpt>
      <trkpt lat="47.88718" lon="-2.44303">
        <ele>24</ele>
        <time>2021-08-07T12:27:10Z</time>
      </trkpt>
      <trkpt lat="47.88717" lon="-2.4431">
        <ele>24.2</ele>
        <time>2021-08-07T12:27:11Z</time>
      </trkpt>
      <trkpt lat="47.88716" lon="-2.44322">
        <ele>24.2</ele>
        <time>2021-08-07T12:27:13Z</time>
      </trkpt>
      <trkpt lat="47.88716" lon="-2.44328">
        <ele>24.2</ele>
        <time>2021-08-07T12:27:14Z</time>
      </trkpt>
      <trkpt lat="47.88716" lon="-2.44335">
        <ele>24.2</ele>
        <time>2021-08-07T12:27:15Z</time>
      </trkpt>
      <trkpt lat="47.88715" lon="-2.44341">
        <ele>24.4</ele>
        <time>2021-08-07T12:27:16Z</time>
      </trkpt>
      <trkpt lat="47.88715" lon="-2.44347">
        <ele>24.4</ele>
        <time>2021-08-07T12:27:17Z</time>
      </trkpt>
      <trkpt lat="47.88714" lon="-2.44354">
        <ele>24.4</ele>
        <time>2021-08-07T12:27:18Z</time>
      </trkpt>
      <trkpt lat="47.88713" lon="-2.4436">
        <ele>24.4</ele>
        <time>2021-08-07T12:27:19Z</time>
      </trkpt>
      <trkpt lat="47.88713" lon="-2.44366">
        <ele>24.4</ele>
        <time>2021-08-07T12:27:20Z</time>
      </trkpt>
      <trkpt lat="47.88713" lon="-2.44372">
        <ele>24.4</ele>
        <time>2021-08-07T12:27:21Z</time>
      </trkpt>
      <trkpt lat="47.88712" lon="-2.44385">
        <ele>24.4</ele>
        <time>2021-08-07T12:27:23Z</time>
      </trkpt>
      <trkpt lat="47.88712" lon="-2.44391">
        <ele>24.4</ele>
        <time>2021-08-07T12:27:24Z</time>
      </trkpt>
      <trkpt lat="47.88711" lon="-2.44397">
        <ele>24.4</ele>
        <time>2021-08-07T12:27:25Z</time>
      </trkpt>
      <trkpt lat="47.88711" lon="-2.44403">
        <ele>24.4</ele>
        <time>2021-08-07T12:27:26Z</time>
      </trkpt>
      <trkpt lat="47.8871" lon="-2.4441">
        <ele>24.4</ele>
        <time>2021-08-07T12:27:27Z</time>
      </trkpt>
      <trkpt lat="47.8871" lon="-2.44416">
        <ele>24.2</ele>
        <time>2021-08-07T12:27:28Z</time>
      </trkpt>
      <trkpt lat="47.88709" lon="-2.44422">
        <ele>24.2</ele>
        <time>2021-08-07T12:27:29Z</time>
      </trkpt>
      <trkpt lat="47.88709" lon="-2.44428">
        <ele>24.2</ele>
        <time>2021-08-07T12:27:30Z</time>
      </trkpt>
      <trkpt lat="47.88708" lon="-2.44434">
        <ele>24.2</ele>
        <time>2021-08-07T12:27:31Z</time>
      </trkpt>
      <trkpt lat="47.88707" lon="-2.44447">
        <ele>24.2</ele>
        <time>2021-08-07T12:27:33Z</time>
      </trkpt>
      <trkpt lat="47.88706" lon="-2.44453">
        <ele>24.2</ele>
        <time>2021-08-07T12:27:34Z</time>
      </trkpt>
      <trkpt lat="47.88706" lon="-2.4446">
        <ele>24.2</ele>
        <time>2021-08-07T12:27:35Z</time>
      </trkpt>
      <trkpt lat="47.88705" lon="-2.44466">
        <ele>24.2</ele>
        <time>2021-08-07T12:27:36Z</time>
      </trkpt>
      <trkpt lat="47.88704" lon="-2.44473">
        <ele>24.2</ele>
        <time>2021-08-07T12:27:37Z</time>
      </trkpt>
      <trkpt lat="47.88703" lon="-2.44479">
        <ele>24</ele>
        <time>2021-08-07T12:27:38Z</time>
      </trkpt>
      <trkpt lat="47.88703" lon="-2.44486">
        <ele>24</ele>
        <time>2021-08-07T12:27:39Z</time>
      </trkpt>
      <trkpt lat="47.88702" lon="-2.44492">
        <ele>24</ele>
        <time>2021-08-07T12:27:40Z</time>
      </trkpt>
      <trkpt lat="47.887" lon="-2.44505">
        <ele>24.2</ele>
        <time>2021-08-07T12:27:42Z</time>
      </trkpt>
      <trkpt lat="47.88699" lon="-2.44511">
        <ele>24.4</ele>
        <time>2021-08-07T12:27:43Z</time>
      </trkpt>
      <trkpt lat="47.88698" lon="-2.44517">
        <ele>24.6</ele>
        <time>2021-08-07T12:27:44Z</time>
      </trkpt>
      <trkpt lat="47.88697" lon="-2.44524">
        <ele>24.8</ele>
        <time>2021-08-07T12:27:45Z</time>
      </trkpt>
      <trkpt lat="47.88695" lon="-2.4453">
        <ele>24.8</ele>
        <time>2021-08-07T12:27:46Z</time>
      </trkpt>
      <trkpt lat="47.88694" lon="-2.44537">
        <ele>25</ele>
        <time>2021-08-07T12:27:47Z</time>
      </trkpt>
      <trkpt lat="47.88693" lon="-2.44543">
        <ele>25</ele>
        <time>2021-08-07T12:27:48Z</time>
      </trkpt>
      <trkpt lat="47.88691" lon="-2.44549">
        <ele>25</ele>
        <time>2021-08-07T12:27:49Z</time>
      </trkpt>
      <trkpt lat="47.8869" lon="-2.44556">
        <ele>25.2</ele>
        <time>2021-08-07T12:27:50Z</time>
      </trkpt>
      <trkpt lat="47.88688" lon="-2.44569">
        <ele>25.2</ele>
        <time>2021-08-07T12:27:52Z</time>
      </trkpt>
      <trkpt lat="47.88686" lon="-2.44576">
        <ele>25.2</ele>
        <time>2021-08-07T12:27:53Z</time>
      </trkpt>
      <trkpt lat="47.88685" lon="-2.44582">
        <ele>25.2</ele>
        <time>2021-08-07T12:27:54Z</time>
      </trkpt>
      <trkpt lat="47.88684" lon="-2.44589">
        <ele>25.2</ele>
        <time>2021-08-07T12:27:55Z</time>
      </trkpt>
      <trkpt lat="47.88682" lon="-2.44596">
        <ele>25.2</ele>
        <time>2021-08-07T12:27:56Z</time>
      </trkpt>
      <trkpt lat="47.88681" lon="-2.44602">
        <ele>25.2</ele>
        <time>2021-08-07T12:27:57Z</time>
      </trkpt>
      <trkpt lat="47.8868" lon="-2.44609">
        <ele>25.2</ele>
        <time>2021-08-07T12:27:58Z</time>
      </trkpt>
      <trkpt lat="47.88679" lon="-2.44616">
        <ele>25.2</ele>
        <time>2021-08-07T12:27:59Z</time>
      </trkpt>
      <trkpt lat="47.88678" lon="-2.44623">
        <ele>25.2</ele>
        <time>2021-08-07T12:28:00Z</time>
      </trkpt>
      <trkpt lat="47.88675" lon="-2.44636">
        <ele>25.2</ele>
        <time>2021-08-07T12:28:02Z</time>
      </trkpt>
      <trkpt lat="47.88674" lon="-2.44642">
        <ele>25.2</ele>
        <time>2021-08-07T12:28:03Z</time>
      </trkpt>
      <trkpt lat="47.88673" lon="-2.44648">
        <ele>25.2</ele>
        <time>2021-08-07T12:28:04Z</time>
      </trkpt>
      <trkpt lat="47.88672" lon="-2.44654">
        <ele>25.2</ele>
        <time>2021-08-07T12:28:05Z</time>
      </trkpt>
      <trkpt lat="47.88671" lon="-2.44659">
        <ele>25.2</ele>
        <time>2021-08-07T12:28:06Z</time>
      </trkpt>
      <trkpt lat="47.88669" lon="-2.44666">
        <ele>25.2</ele>
        <time>2021-08-07T12:28:07Z</time>
      </trkpt>
      <trkpt lat="47.88668" lon="-2.44672">
        <ele>25.2</ele>
        <time>2021-08-07T12:28:08Z</time>
      </trkpt>
      <trkpt lat="47.88667" lon="-2.44678">
        <ele>25.2</ele>
        <time>2021-08-07T12:28:09Z</time>
      </trkpt>
      <trkpt lat="47.88666" lon="-2.44685">
        <ele>25.2</ele>
        <time>2021-08-07T12:28:10Z</time>
      </trkpt>
      <trkpt lat="47.88664" lon="-2.44692">
        <ele>25.2</ele>
        <time>2021-08-07T12:28:11Z</time>
      </trkpt>
      <trkpt lat="47.88663" lon="-2.44698">
        <ele>25.2</ele>
        <time>2021-08-07T12:28:12Z</time>
      </trkpt>
      <trkpt lat="47.88662" lon="-2.44705">
        <ele>25.2</ele>
        <time>2021-08-07T12:28:13Z</time>
      </trkpt>
      <trkpt lat="47.8866" lon="-2.44711">
        <ele>25.2</ele>
        <time>2021-08-07T12:28:14Z</time>
      </trkpt>
      <trkpt lat="47.88659" lon="-2.44718">
        <ele>25</ele>
        <time>2021-08-07T12:28:15Z</time>
      </trkpt>
      <trkpt lat="47.88658" lon="-2.44724">
        <ele>25</ele>
        <time>2021-08-07T12:28:16Z</time>
      </trkpt>
      <trkpt lat="47.88656" lon="-2.4473">
        <ele>25</ele>
        <time>2021-08-07T12:28:17Z</time>
      </trkpt>
      <trkpt lat="47.88655" lon="-2.44737">
        <ele>25</ele>
        <time>2021-08-07T12:28:18Z</time>
      </trkpt>
      <trkpt lat="47.88654" lon="-2.44743">
        <ele>25</ele>
        <time>2021-08-07T12:28:19Z</time>
      </trkpt>
      <trkpt lat="47.88653" lon="-2.44749">
        <ele>25</ele>
        <time>2021-08-07T12:28:20Z</time>
      </trkpt>
      <trkpt lat="47.88651" lon="-2.44762">
        <ele>25</ele>
        <time>2021-08-07T12:28:22Z</time>
      </trkpt>
      <trkpt lat="47.88651" lon="-2.44768">
        <ele>24.8</ele>
        <time>2021-08-07T12:28:23Z</time>
      </trkpt>
      <trkpt lat="47.8865" lon="-2.44774">
        <ele>24.8</ele>
        <time>2021-08-07T12:28:24Z</time>
      </trkpt>
      <trkpt lat="47.88649" lon="-2.4478">
        <ele>24.8</ele>
        <time>2021-08-07T12:28:25Z</time>
      </trkpt>
      <trkpt lat="47.88648" lon="-2.44787">
        <ele>24.8</ele>
        <time>2021-08-07T12:28:26Z</time>
      </trkpt>
      <trkpt lat="47.88648" lon="-2.44793">
        <ele>24.8</ele>
        <time>2021-08-07T12:28:27Z</time>
      </trkpt>
      <trkpt lat="47.88648" lon="-2.44799">
        <ele>24.8</ele>
        <time>2021-08-07T12:28:28Z</time>
      </trkpt>
      <trkpt lat="47.88648" lon="-2.44805">
        <ele>24.4</ele>
        <time>2021-08-07T12:28:29Z</time>
      </trkpt>
      <trkpt lat="47.88648" lon="-2.44811">
        <ele>24.2</ele>
        <time>2021-08-07T12:28:30Z</time>
      </trkpt>
      <trkpt lat="47.88649" lon="-2.44824">
        <ele>24.2</ele>
        <time>2021-08-07T12:28:32Z</time>
      </trkpt>
      <trkpt lat="47.88649" lon="-2.44831">
        <ele>24</ele>
        <time>2021-08-07T12:28:33Z</time>
      </trkpt>
      <trkpt lat="47.8865" lon="-2.44838">
        <ele>24</ele>
        <time>2021-08-07T12:28:34Z</time>
      </trkpt>
      <trkpt lat="47.8865" lon="-2.44844">
        <ele>24</ele>
        <time>2021-08-07T12:28:35Z</time>
      </trkpt>
      <trkpt lat="47.88651" lon="-2.44851">
        <ele>24</ele>
        <time>2021-08-07T12:28:36Z</time>
      </trkpt>
      <trkpt lat="47.88652" lon="-2.44858">
        <ele>24</ele>
        <time>2021-08-07T12:28:37Z</time>
      </trkpt>
      <trkpt lat="47.88653" lon="-2.44864">
        <ele>24</ele>
        <time>2021-08-07T12:28:38Z</time>
      </trkpt>
      <trkpt lat="47.88654" lon="-2.44871">
        <ele>24</ele>
        <time>2021-08-07T12:28:39Z</time>
      </trkpt>
      <trkpt lat="47.88654" lon="-2.44878">
        <ele>24.2</ele>
        <time>2021-08-07T12:28:40Z</time>
      </trkpt>
      <trkpt lat="47.88656" lon="-2.44891">
        <ele>24.2</ele>
        <time>2021-08-07T12:28:42Z</time>
      </trkpt>
      <trkpt lat="47.88657" lon="-2.44898">
        <ele>24.2</ele>
        <time>2021-08-07T12:28:43Z</time>
      </trkpt>
      <trkpt lat="47.88658" lon="-2.44905">
        <ele>24.2</ele>
        <time>2021-08-07T12:28:44Z</time>
      </trkpt>
      <trkpt lat="47.88659" lon="-2.44911">
        <ele>24.4</ele>
        <time>2021-08-07T12:28:45Z</time>
      </trkpt>
      <trkpt lat="47.8866" lon="-2.44918">
        <ele>24.4</ele>
        <time>2021-08-07T12:28:46Z</time>
      </trkpt>
      <trkpt lat="47.88661" lon="-2.44924">
        <ele>24.4</ele>
        <time>2021-08-07T12:28:47Z</time>
      </trkpt>
      <trkpt lat="47.88662" lon="-2.44931">
        <ele>24.4</ele>
        <time>2021-08-07T12:28:48Z</time>
      </trkpt>
      <trkpt lat="47.88663" lon="-2.44938">
        <ele>24.6</ele>
        <time>2021-08-07T12:28:49Z</time>
      </trkpt>
      <trkpt lat="47.88664" lon="-2.44944">
        <ele>24.8</ele>
        <time>2021-08-07T12:28:50Z</time>
      </trkpt>
      <trkpt lat="47.88667" lon="-2.44958">
        <ele>24.8</ele>
        <time>2021-08-07T12:28:52Z</time>
      </trkpt>
      <trkpt lat="47.88668" lon="-2.44965">
        <ele>25</ele>
        <time>2021-08-07T12:28:53Z</time>
      </trkpt>
      <trkpt lat="47.88669" lon="-2.44972">
        <ele>25</ele>
        <time>2021-08-07T12:28:54Z</time>
      </trkpt>
      <trkpt lat="47.8867" lon="-2.44978">
        <ele>25</ele>
        <time>2021-08-07T12:28:55Z</time>
      </trkpt>
      <trkpt lat="47.88671" lon="-2.44985">
        <ele>25</ele>
        <time>2021-08-07T12:28:56Z</time>
      </trkpt>
      <trkpt lat="47.88673" lon="-2.44991">
        <ele>25</ele>
        <time>2021-08-07T12:28:57Z</time>
      </trkpt>
      <trkpt lat="47.88675" lon="-2.44997">
        <ele>25</ele>
        <time>2021-08-07T12:28:58Z</time>
      </trkpt>
      <trkpt lat="47.88677" lon="-2.45002">
        <ele>25</ele>
        <time>2021-08-07T12:28:59Z</time>
      </trkpt>
      <trkpt lat="47.88679" lon="-2.45008">
        <ele>25</ele>
        <time>2021-08-07T12:29:00Z</time>
      </trkpt>
      <trkpt lat="47.88684" lon="-2.45019">
        <ele>25</ele>
        <time>2021-08-07T12:29:02Z</time>
      </trkpt>
      <trkpt lat="47.88686" lon="-2.45024">
        <ele>25</ele>
        <time>2021-08-07T12:29:03Z</time>
      </trkpt>
      <trkpt lat="47.88689" lon="-2.45029">
        <ele>25</ele>
        <time>2021-08-07T12:29:04Z</time>
      </trkpt>
      <trkpt lat="47.88691" lon="-2.45034">
        <ele>25</ele>
        <time>2021-08-07T12:29:05Z</time>
      </trkpt>
      <trkpt lat="47.88694" lon="-2.45039">
        <ele>25</ele>
        <time>2021-08-07T12:29:06Z</time>
      </trkpt>
      <trkpt lat="47.88697" lon="-2.45044">
        <ele>24.8</ele>
        <time>2021-08-07T12:29:07Z</time>
      </trkpt>
      <trkpt lat="47.887" lon="-2.45048">
        <ele>24.8</ele>
        <time>2021-08-07T12:29:08Z</time>
      </trkpt>
      <trkpt lat="47.88703" lon="-2.45053">
        <ele>24.8</ele>
        <time>2021-08-07T12:29:09Z</time>
      </trkpt>
      <trkpt lat="47.88706" lon="-2.45058">
        <ele>24.8</ele>
        <time>2021-08-07T12:29:10Z</time>
      </trkpt>
      <trkpt lat="47.88712" lon="-2.45067">
        <ele>24.6</ele>
        <time>2021-08-07T12:29:12Z</time>
      </trkpt>
      <trkpt lat="47.88715" lon="-2.45072">
        <ele>24.6</ele>
        <time>2021-08-07T12:29:13Z</time>
      </trkpt>
      <trkpt lat="47.88718" lon="-2.45076">
        <ele>24.6</ele>
        <time>2021-08-07T12:29:14Z</time>
      </trkpt>
      <trkpt lat="47.88721" lon="-2.4508">
        <ele>24.6</ele>
        <time>2021-08-07T12:29:15Z</time>
      </trkpt>
      <trkpt lat="47.88723" lon="-2.45085">
        <ele>24.6</ele>
        <time>2021-08-07T12:29:16Z</time>
      </trkpt>
      <trkpt lat="47.88726" lon="-2.45089">
        <ele>24.6</ele>
        <time>2021-08-07T12:29:17Z</time>
      </trkpt>
      <trkpt lat="47.88728" lon="-2.45092">
        <ele>24.6</ele>
        <time>2021-08-07T12:29:18Z</time>
      </trkpt>
      <trkpt lat="47.8873" lon="-2.45096">
        <ele>24.6</ele>
        <time>2021-08-07T12:29:19Z</time>
      </trkpt>
      <trkpt lat="47.88732" lon="-2.45098">
        <ele>24.8</ele>
        <time>2021-08-07T12:29:20Z</time>
      </trkpt>
      <trkpt lat="47.88735" lon="-2.45104">
        <ele>24.8</ele>
        <time>2021-08-07T12:29:22Z</time>
      </trkpt>
      <trkpt lat="47.88737" lon="-2.45106">
        <ele>24.8</ele>
        <time>2021-08-07T12:29:23Z</time>
      </trkpt>
      <trkpt lat="47.88738" lon="-2.45109">
        <ele>24.6</ele>
        <time>2021-08-07T12:29:24Z</time>
      </trkpt>
      <trkpt lat="47.88739" lon="-2.45111">
        <ele>24.6</ele>
        <time>2021-08-07T12:29:25Z</time>
      </trkpt>
      <trkpt lat="47.8874" lon="-2.45113">
        <ele>24.8</ele>
        <time>2021-08-07T12:29:26Z</time>
      </trkpt>
      <trkpt lat="47.88741" lon="-2.45115">
        <ele>24.8</ele>
        <time>2021-08-07T12:29:27Z</time>
      </trkpt>
      <trkpt lat="47.88743" lon="-2.45116">
        <ele>25</ele>
        <time>2021-08-07T12:29:28Z</time>
      </trkpt>
      <trkpt lat="47.88743" lon="-2.45117">
        <ele>25</ele>
        <time>2021-08-07T12:29:29Z</time>
      </trkpt>
      <trkpt lat="47.88744" lon="-2.45119">
        <ele>25.2</ele>
        <time>2021-08-07T12:29:30Z</time>
      </trkpt>
      <trkpt lat="47.88746" lon="-2.45121">
        <ele>25.8</ele>
        <time>2021-08-07T12:29:32Z</time>
      </trkpt>
      <trkpt lat="47.88747" lon="-2.45122">
        <ele>26.4</ele>
        <time>2021-08-07T12:29:33Z</time>
      </trkpt>
      <trkpt lat="47.88748" lon="-2.45124">
        <ele>26.8</ele>
        <time>2021-08-07T12:29:34Z</time>
      </trkpt>
      <trkpt lat="47.88748" lon="-2.45125">
        <ele>27</ele>
        <time>2021-08-07T12:29:35Z</time>
      </trkpt>
      <trkpt lat="47.88748" lon="-2.45125">
        <ele>27.2</ele>
        <time>2021-08-07T12:29:36Z</time>
      </trkpt>
      <trkpt lat="47.88748" lon="-2.45125">
        <ele>27.2</ele>
        <time>2021-08-07T12:29:37Z</time>
      </trkpt>
      <trkpt lat="47.88748" lon="-2.45125">
        <ele>27.2</ele>
        <time>2021-08-07T12:29:38Z</time>
      </trkpt>
      <trkpt lat="47.88748" lon="-2.45125">
        <ele>27.4</ele>
        <time>2021-08-07T12:29:39Z</time>
      </trkpt>
      <trkpt lat="47.88749" lon="-2.45127">
        <ele>27.6</ele>
        <time>2021-08-07T12:30:05Z</time>
      </trkpt>
      <trkpt lat="47.8875" lon="-2.45128">
        <ele>27.6</ele>
        <time>2021-08-07T12:30:06Z</time>
      </trkpt>
      <trkpt lat="47.8875" lon="-2.45129">
        <ele>27.6</ele>
        <time>2021-08-07T12:30:07Z</time>
      </trkpt>
      <trkpt lat="47.8875" lon="-2.45129">
        <ele>27.6</ele>
        <time>2021-08-07T12:30:08Z</time>
      </trkpt>
      <trkpt lat="47.88764" lon="-2.45147">
        <ele>27.8</ele>
        <time>2021-08-07T12:33:21Z</time>
      </trkpt>
      <trkpt lat="47.88766" lon="-2.4515">
        <ele>27.8</ele>
        <time>2021-08-07T12:33:22Z</time>
      </trkpt>
      <trkpt lat="47.88771" lon="-2.45157">
        <ele>27.8</ele>
        <time>2021-08-07T12:33:24Z</time>
      </trkpt>
      <trkpt lat="47.88773" lon="-2.45161">
        <ele>27.8</ele>
        <time>2021-08-07T12:33:25Z</time>
      </trkpt>
      <trkpt lat="47.88776" lon="-2.45165">
        <ele>27.8</ele>
        <time>2021-08-07T12:33:26Z</time>
      </trkpt>
      <trkpt lat="47.88778" lon="-2.45169">
        <ele>27.6</ele>
        <time>2021-08-07T12:33:27Z</time>
      </trkpt>
      <trkpt lat="47.8878" lon="-2.45172">
        <ele>27.4</ele>
        <time>2021-08-07T12:33:28Z</time>
      </trkpt>
      <trkpt lat="47.88782" lon="-2.45176">
        <ele>27.2</ele>
        <time>2021-08-07T12:33:29Z</time>
      </trkpt>
      <trkpt lat="47.88785" lon="-2.45179">
        <ele>26.8</ele>
        <time>2021-08-07T12:33:30Z</time>
      </trkpt>
      <trkpt lat="47.8879" lon="-2.45187">
        <ele>26.2</ele>
        <time>2021-08-07T12:33:32Z</time>
      </trkpt>
      <trkpt lat="47.88792" lon="-2.4519">
        <ele>26</ele>
        <time>2021-08-07T12:33:33Z</time>
      </trkpt>
      <trkpt lat="47.88795" lon="-2.45194">
        <ele>25.8</ele>
        <time>2021-08-07T12:33:34Z</time>
      </trkpt>
      <trkpt lat="47.88797" lon="-2.45198">
        <ele>25.6</ele>
        <time>2021-08-07T12:33:35Z</time>
      </trkpt>
      <trkpt lat="47.888" lon="-2.45201">
        <ele>25.6</ele>
        <time>2021-08-07T12:33:36Z</time>
      </trkpt>
      <trkpt lat="47.88802" lon="-2.45202">
        <ele>25.6</ele>
        <time>2021-08-07T12:33:37Z</time>
      </trkpt>
      <trkpt lat="47.88804" lon="-2.45202">
        <ele>25.6</ele>
        <time>2021-08-07T12:33:38Z</time>
      </trkpt>
      <trkpt lat="47.88805" lon="-2.45202">
        <ele>25.6</ele>
        <time>2021-08-07T12:33:39Z</time>
      </trkpt>
      <trkpt lat="47.88805" lon="-2.45202">
        <ele>25.6</ele>
        <time>2021-08-07T12:33:40Z</time>
      </trkpt>
      <trkpt lat="47.88809" lon="-2.45216">
        <ele>25.4</ele>
        <time>2021-08-07T12:56:23Z</time>
      </trkpt>
      <trkpt lat="47.8881" lon="-2.45218">
        <ele>25.4</ele>
        <time>2021-08-07T12:56:24Z</time>
      </trkpt>
      <trkpt lat="47.88812" lon="-2.45221">
        <ele>25.4</ele>
        <time>2021-08-07T12:56:25Z</time>
      </trkpt>
      <trkpt lat="47.88814" lon="-2.45224">
        <ele>25.4</ele>
        <time>2021-08-07T12:56:26Z</time>
      </trkpt>
      <trkpt lat="47.88818" lon="-2.4523">
        <ele>25.2</ele>
        <time>2021-08-07T12:56:28Z</time>
      </trkpt>
      <trkpt lat="47.8882" lon="-2.45234">
        <ele>25.2</ele>
        <time>2021-08-07T12:56:29Z</time>
      </trkpt>
      <trkpt lat="47.88823" lon="-2.45238">
        <ele>25.2</ele>
        <time>2021-08-07T12:56:30Z</time>
      </trkpt>
      <trkpt lat="47.88826" lon="-2.45242">
        <ele>25.2</ele>
        <time>2021-08-07T12:56:31Z</time>
      </trkpt>
      <trkpt lat="47.88828" lon="-2.45247">
        <ele>25.2</ele>
        <time>2021-08-07T12:56:32Z</time>
      </trkpt>
      <trkpt lat="47.88831" lon="-2.45251">
        <ele>25.2</ele>
        <time>2021-08-07T12:56:33Z</time>
      </trkpt>
      <trkpt lat="47.88834" lon="-2.45255">
        <ele>25.2</ele>
        <time>2021-08-07T12:56:34Z</time>
      </trkpt>
      <trkpt lat="47.88837" lon="-2.45259">
        <ele>25.2</ele>
        <time>2021-08-07T12:56:35Z</time>
      </trkpt>
      <trkpt lat="47.88841" lon="-2.45264">
        <ele>25.2</ele>
        <time>2021-08-07T12:56:36Z</time>
      </trkpt>
      <trkpt lat="47.88844" lon="-2.45268">
        <ele>25</ele>
        <time>2021-08-07T12:56:37Z</time>
      </trkpt>
      <trkpt lat="47.88848" lon="-2.45272">
        <ele>25</ele>
        <time>2021-08-07T12:56:38Z</time>
      </trkpt>
      <trkpt lat="47.88852" lon="-2.45276">
        <ele>25</ele>
        <time>2021-08-07T12:56:39Z</time>
      </trkpt>
      <trkpt lat="47.88856" lon="-2.45279">
        <ele>25</ele>
        <time>2021-08-07T12:56:40Z</time>
      </trkpt>
      <trkpt lat="47.8886" lon="-2.45282">
        <ele>24.8</ele>
        <time>2021-08-07T12:56:41Z</time>
      </trkpt>
      <trkpt lat="47.88865" lon="-2.45285">
        <ele>24.8</ele>
        <time>2021-08-07T12:56:42Z</time>
      </trkpt>
      <trkpt lat="47.88869" lon="-2.45287">
        <ele>24.8</ele>
        <time>2021-08-07T12:56:43Z</time>
      </trkpt>
      <trkpt lat="47.88874" lon="-2.45287">
        <ele>24.8</ele>
        <time>2021-08-07T12:56:44Z</time>
      </trkpt>
      <trkpt lat="47.88879" lon="-2.45288">
        <ele>24.8</ele>
        <time>2021-08-07T12:56:45Z</time>
      </trkpt>
      <trkpt lat="47.88883" lon="-2.45287">
        <ele>24.8</ele>
        <time>2021-08-07T12:56:46Z</time>
      </trkpt>
      <trkpt lat="47.88893" lon="-2.45284">
        <ele>24.8</ele>
        <time>2021-08-07T12:56:48Z</time>
      </trkpt>
      <trkpt lat="47.88897" lon="-2.45282">
        <ele>24.8</ele>
        <time>2021-08-07T12:56:49Z</time>
      </trkpt>
      <trkpt lat="47.88902" lon="-2.45279">
        <ele>24.8</ele>
        <time>2021-08-07T12:56:50Z</time>
      </trkpt>
      <trkpt lat="47.88907" lon="-2.45276">
        <ele>24.8</ele>
        <time>2021-08-07T12:56:51Z</time>
      </trkpt>
      <trkpt lat="47.88911" lon="-2.45273">
        <ele>24.8</ele>
        <time>2021-08-07T12:56:52Z</time>
      </trkpt>
      <trkpt lat="47.88916" lon="-2.4527">
        <ele>25</ele>
        <time>2021-08-07T12:56:53Z</time>
      </trkpt>
      <trkpt lat="47.8892" lon="-2.45267">
        <ele>25.2</ele>
        <time>2021-08-07T12:56:54Z</time>
      </trkpt>
      <trkpt lat="47.88925" lon="-2.45264">
        <ele>25.4</ele>
        <time>2021-08-07T12:56:55Z</time>
      </trkpt>
      <trkpt lat="47.88929" lon="-2.4526">
        <ele>25.6</ele>
        <time>2021-08-07T12:56:56Z</time>
      </trkpt>
      <trkpt lat="47.88939" lon="-2.45254">
        <ele>25.8</ele>
        <time>2021-08-07T12:56:58Z</time>
      </trkpt>
      <trkpt lat="47.88943" lon="-2.45251">
        <ele>25.8</ele>
        <time>2021-08-07T12:56:59Z</time>
      </trkpt>
      <trkpt lat="47.88948" lon="-2.45248">
        <ele>25.8</ele>
        <time>2021-08-07T12:57:00Z</time>
      </trkpt>
      <trkpt lat="47.88953" lon="-2.45245">
        <ele>25.8</ele>
        <time>2021-08-07T12:57:01Z</time>
      </trkpt>
      <trkpt lat="47.88958" lon="-2.45242">
        <ele>25.8</ele>
        <time>2021-08-07T12:57:02Z</time>
      </trkpt>
      <trkpt lat="47.88963" lon="-2.4524">
        <ele>25.8</ele>
        <time>2021-08-07T12:57:03Z</time>
      </trkpt>
      <trkpt lat="47.88969" lon="-2.45238">
        <ele>25.8</ele>
        <time>2021-08-07T12:57:04Z</time>
      </trkpt>
      <trkpt lat="47.88974" lon="-2.45236">
        <ele>25.8</ele>
        <time>2021-08-07T12:57:05Z</time>
      </trkpt>
      <trkpt lat="47.88979" lon="-2.45234">
        <ele>25.8</ele>
        <time>2021-08-07T12:57:06Z</time>
      </trkpt>
      <trkpt lat="47.88984" lon="-2.45233">
        <ele>25.8</ele>
        <time>2021-08-07T12:57:07Z</time>
      </trkpt>
      <trkpt lat="47.88994" lon="-2.45232">
        <ele>25.6</ele>
        <time>2021-08-07T12:57:09Z</time>
      </trkpt>
      <trkpt lat="47.88999" lon="-2.45232">
        <ele>25.4</ele>
        <time>2021-08-07T12:57:10Z</time>
      </trkpt>
      <trkpt lat="47.89004" lon="-2.45233">
        <ele>25.4</ele>
        <time>2021-08-07T12:57:11Z</time>
      </trkpt>
      <trkpt lat="47.89009" lon="-2.45233">
        <ele>25.4</ele>
        <time>2021-08-07T12:57:12Z</time>
      </trkpt>
      <trkpt lat="47.89014" lon="-2.45234">
        <ele>25.2</ele>
        <time>2021-08-07T12:57:13Z</time>
      </trkpt>
      <trkpt lat="47.89019" lon="-2.45234">
        <ele>25.2</ele>
        <time>2021-08-07T12:57:14Z</time>
      </trkpt>
      <trkpt lat="47.89024" lon="-2.45235">
        <ele>25.2</ele>
        <time>2021-08-07T12:57:15Z</time>
      </trkpt>
      <trkpt lat="47.8903" lon="-2.45236">
        <ele>25.2</ele>
        <time>2021-08-07T12:57:16Z</time>
      </trkpt>
      <trkpt lat="47.89035" lon="-2.45237">
        <ele>25</ele>
        <time>2021-08-07T12:57:17Z</time>
      </trkpt>
      <trkpt lat="47.8904" lon="-2.45238">
        <ele>25</ele>
        <time>2021-08-07T12:57:18Z</time>
      </trkpt>
      <trkpt lat="47.89046" lon="-2.4524">
        <ele>25</ele>
        <time>2021-08-07T12:57:19Z</time>
      </trkpt>
      <trkpt lat="47.89051" lon="-2.45242">
        <ele>24.8</ele>
        <time>2021-08-07T12:57:20Z</time>
      </trkpt>
      <trkpt lat="47.89056" lon="-2.45244">
        <ele>24.6</ele>
        <time>2021-08-07T12:57:21Z</time>
      </trkpt>
      <trkpt lat="47.89061" lon="-2.45246">
        <ele>24.8</ele>
        <time>2021-08-07T12:57:22Z</time>
      </trkpt>
      <trkpt lat="47.89067" lon="-2.45247">
        <ele>24.8</ele>
        <time>2021-08-07T12:57:23Z</time>
      </trkpt>
      <trkpt lat="47.89072" lon="-2.4525">
        <ele>24.8</ele>
        <time>2021-08-07T12:57:24Z</time>
      </trkpt>
      <trkpt lat="47.89077" lon="-2.45252">
        <ele>25</ele>
        <time>2021-08-07T12:57:25Z</time>
      </trkpt>
      <trkpt lat="47.89082" lon="-2.45254">
        <ele>25</ele>
        <time>2021-08-07T12:57:26Z</time>
      </trkpt>
      <trkpt lat="47.89093" lon="-2.45257">
        <ele>25.2</ele>
        <time>2021-08-07T12:57:28Z</time>
      </trkpt>
      <trkpt lat="47.89098" lon="-2.45259">
        <ele>25.2</ele>
        <time>2021-08-07T12:57:29Z</time>
      </trkpt>
      <trkpt lat="47.89104" lon="-2.45261">
        <ele>25.2</ele>
        <time>2021-08-07T12:57:30Z</time>
      </trkpt>
      <trkpt lat="47.89109" lon="-2.45263">
        <ele>25.2</ele>
        <time>2021-08-07T12:57:31Z</time>
      </trkpt>
      <trkpt lat="47.89115" lon="-2.45266">
        <ele>25.2</ele>
        <time>2021-08-07T12:57:32Z</time>
      </trkpt>
      <trkpt lat="47.8912" lon="-2.45268">
        <ele>25.4</ele>
        <time>2021-08-07T12:57:33Z</time>
      </trkpt>
      <trkpt lat="47.89126" lon="-2.4527">
        <ele>25.4</ele>
        <time>2021-08-07T12:57:34Z</time>
      </trkpt>
      <trkpt lat="47.89131" lon="-2.45272">
        <ele>25.4</ele>
        <time>2021-08-07T12:57:35Z</time>
      </trkpt>
      <trkpt lat="47.89136" lon="-2.45273">
        <ele>25.4</ele>
        <time>2021-08-07T12:57:36Z</time>
      </trkpt>
      <trkpt lat="47.89147" lon="-2.45278">
        <ele>25.4</ele>
        <time>2021-08-07T12:57:38Z</time>
      </trkpt>
      <trkpt lat="47.89152" lon="-2.4528">
        <ele>25.4</ele>
        <time>2021-08-07T12:57:39Z</time>
      </trkpt>
      <trkpt lat="47.89158" lon="-2.45281">
        <ele>25.4</ele>
        <time>2021-08-07T12:57:40Z</time>
      </trkpt>
      <trkpt lat="47.89163" lon="-2.45283">
        <ele>25.4</ele>
        <time>2021-08-07T12:57:41Z</time>
      </trkpt>
      <trkpt lat="47.89169" lon="-2.45285">
        <ele>25.4</ele>
        <time>2021-08-07T12:57:42Z</time>
      </trkpt>
      <trkpt lat="47.89174" lon="-2.45286">
        <ele>25.2</ele>
        <time>2021-08-07T12:57:43Z</time>
      </trkpt>
      <trkpt lat="47.8918" lon="-2.45288">
        <ele>25</ele>
        <time>2021-08-07T12:57:44Z</time>
      </trkpt>
      <trkpt lat="47.89185" lon="-2.4529">
        <ele>24.8</ele>
        <time>2021-08-07T12:57:45Z</time>
      </trkpt>
      <trkpt lat="47.89196" lon="-2.45294">
        <ele>24.6</ele>
        <time>2021-08-07T12:57:47Z</time>
      </trkpt>
      <trkpt lat="47.89201" lon="-2.45296">
        <ele>24.4</ele>
        <time>2021-08-07T12:57:48Z</time>
      </trkpt>
      <trkpt lat="47.89206" lon="-2.45298">
        <ele>24.4</ele>
        <time>2021-08-07T12:57:49Z</time>
      </trkpt>
      <trkpt lat="47.89212" lon="-2.453">
        <ele>24.2</ele>
        <time>2021-08-07T12:57:50Z</time>
      </trkpt>
      <trkpt lat="47.89217" lon="-2.45302">
        <ele>24</ele>
        <time>2021-08-07T12:57:51Z</time>
      </trkpt>
      <trkpt lat="47.89222" lon="-2.45304">
        <ele>24</ele>
        <time>2021-08-07T12:57:52Z</time>
      </trkpt>
      <trkpt lat="47.89227" lon="-2.45306">
        <ele>23.8</ele>
        <time>2021-08-07T12:57:53Z</time>
      </trkpt>
      <trkpt lat="47.89233" lon="-2.45308">
        <ele>23.8</ele>
        <time>2021-08-07T12:57:54Z</time>
      </trkpt>
      <trkpt lat="47.89243" lon="-2.45311">
        <ele>23.8</ele>
        <time>2021-08-07T12:57:56Z</time>
      </trkpt>
      <trkpt lat="47.89248" lon="-2.45312">
        <ele>23.8</ele>
        <time>2021-08-07T12:57:57Z</time>
      </trkpt>
      <trkpt lat="47.89253" lon="-2.45314">
        <ele>23.8</ele>
        <time>2021-08-07T12:57:58Z</time>
      </trkpt>
      <trkpt lat="47.89258" lon="-2.45316">
        <ele>23.8</ele>
        <time>2021-08-07T12:57:59Z</time>
      </trkpt>
      <trkpt lat="47.89263" lon="-2.45318">
        <ele>23.8</ele>
        <time>2021-08-07T12:58:00Z</time>
      </trkpt>
      <trkpt lat="47.89268" lon="-2.4532">
        <ele>23.8</ele>
        <time>2021-08-07T12:58:01Z</time>
      </trkpt>
      <trkpt lat="47.89273" lon="-2.45322">
        <ele>23.8</ele>
        <time>2021-08-07T12:58:02Z</time>
      </trkpt>
      <trkpt lat="47.89278" lon="-2.45323">
        <ele>23.8</ele>
        <time>2021-08-07T12:58:03Z</time>
      </trkpt>
      <trkpt lat="47.89289" lon="-2.45327">
        <ele>24</ele>
        <time>2021-08-07T12:58:05Z</time>
      </trkpt>
      <trkpt lat="47.89295" lon="-2.45329">
        <ele>24</ele>
        <time>2021-08-07T12:58:06Z</time>
      </trkpt>
      <trkpt lat="47.893" lon="-2.45331">
        <ele>24</ele>
        <time>2021-08-07T12:58:07Z</time>
      </trkpt>
      <trkpt lat="47.89306" lon="-2.45333">
        <ele>24</ele>
        <time>2021-08-07T12:58:08Z</time>
      </trkpt>
      <trkpt lat="47.89311" lon="-2.45334">
        <ele>24.2</ele>
        <time>2021-08-07T12:58:09Z</time>
      </trkpt>
      <trkpt lat="47.89317" lon="-2.45336">
        <ele>24.2</ele>
        <time>2021-08-07T12:58:10Z</time>
      </trkpt>
      <trkpt lat="47.89322" lon="-2.45339">
        <ele>24.4</ele>
        <time>2021-08-07T12:58:11Z</time>
      </trkpt>
      <trkpt lat="47.89327" lon="-2.45341">
        <ele>24.4</ele>
        <time>2021-08-07T12:58:12Z</time>
      </trkpt>
      <trkpt lat="47.89338" lon="-2.45344">
        <ele>24.6</ele>
        <time>2021-08-07T12:58:14Z</time>
      </trkpt>
      <trkpt lat="47.89343" lon="-2.45346">
        <ele>24.8</ele>
        <time>2021-08-07T12:58:15Z</time>
      </trkpt>
      <trkpt lat="47.89348" lon="-2.45349">
        <ele>25</ele>
        <time>2021-08-07T12:58:16Z</time>
      </trkpt>
      <trkpt lat="47.89353" lon="-2.45351">
        <ele>25.2</ele>
        <time>2021-08-07T12:58:17Z</time>
      </trkpt>
      <trkpt lat="47.89358" lon="-2.45353">
        <ele>25.4</ele>
        <time>2021-08-07T12:58:18Z</time>
      </trkpt>
      <trkpt lat="47.89363" lon="-2.45355">
        <ele>25.4</ele>
        <time>2021-08-07T12:58:19Z</time>
      </trkpt>
      <trkpt lat="47.89368" lon="-2.45356">
        <ele>25.4</ele>
        <time>2021-08-07T12:58:20Z</time>
      </trkpt>
      <trkpt lat="47.89373" lon="-2.45358">
        <ele>25.4</ele>
        <time>2021-08-07T12:58:21Z</time>
      </trkpt>
      <trkpt lat="47.89384" lon="-2.45361">
        <ele>25.6</ele>
        <time>2021-08-07T12:58:23Z</time>
      </trkpt>
      <trkpt lat="47.89389" lon="-2.45362">
        <ele>25.6</ele>
        <time>2021-08-07T12:58:24Z</time>
      </trkpt>
      <trkpt lat="47.89394" lon="-2.45363">
        <ele>25.8</ele>
        <time>2021-08-07T12:58:25Z</time>
      </trkpt>
      <trkpt lat="47.894" lon="-2.45364">
        <ele>26</ele>
        <time>2021-08-07T12:58:26Z</time>
      </trkpt>
      <trkpt lat="47.89405" lon="-2.45366">
        <ele>25.8</ele>
        <time>2021-08-07T12:58:27Z</time>
      </trkpt>
      <trkpt lat="47.89411" lon="-2.45368">
        <ele>26</ele>
        <time>2021-08-07T12:58:28Z</time>
      </trkpt>
      <trkpt lat="47.89417" lon="-2.45369">
        <ele>25.8</ele>
        <time>2021-08-07T12:58:29Z</time>
      </trkpt>
      <trkpt lat="47.89423" lon="-2.45371">
        <ele>25.6</ele>
        <time>2021-08-07T12:58:30Z</time>
      </trkpt>
      <trkpt lat="47.89434" lon="-2.45377">
        <ele>25.2</ele>
        <time>2021-08-07T12:58:32Z</time>
      </trkpt>
      <trkpt lat="47.8944" lon="-2.4538">
        <ele>25</ele>
        <time>2021-08-07T12:58:33Z</time>
      </trkpt>
      <trkpt lat="47.89445" lon="-2.45383">
        <ele>25.2</ele>
        <time>2021-08-07T12:58:34Z</time>
      </trkpt>
      <trkpt lat="47.89451" lon="-2.45387">
        <ele>24.8</ele>
        <time>2021-08-07T12:58:35Z</time>
      </trkpt>
      <trkpt lat="47.89456" lon="-2.45391">
        <ele>24.8</ele>
        <time>2021-08-07T12:58:36Z</time>
      </trkpt>
      <trkpt lat="47.89461" lon="-2.45395">
        <ele>24.6</ele>
        <time>2021-08-07T12:58:37Z</time>
      </trkpt>
      <trkpt lat="47.89466" lon="-2.45399">
        <ele>24.6</ele>
        <time>2021-08-07T12:58:38Z</time>
      </trkpt>
      <trkpt lat="47.89469" lon="-2.45403">
        <ele>24.4</ele>
        <time>2021-08-07T12:58:39Z</time>
      </trkpt>
      <trkpt lat="47.89473" lon="-2.45408">
        <ele>24</ele>
        <time>2021-08-07T12:58:40Z</time>
      </trkpt>
      <trkpt lat="47.89477" lon="-2.45414">
        <ele>23.6</ele>
        <time>2021-08-07T12:58:41Z</time>
      </trkpt>
      <trkpt lat="47.89481" lon="-2.4542">
        <ele>23.4</ele>
        <time>2021-08-07T12:58:42Z</time>
      </trkpt>
      <trkpt lat="47.89486" lon="-2.45426">
        <ele>23.4</ele>
        <time>2021-08-07T12:58:43Z</time>
      </trkpt>
      <trkpt lat="47.8949" lon="-2.45431">
        <ele>23.2</ele>
        <time>2021-08-07T12:58:44Z</time>
      </trkpt>
      <trkpt lat="47.89495" lon="-2.45437">
        <ele>23.2</ele>
        <time>2021-08-07T12:58:45Z</time>
      </trkpt>
      <trkpt lat="47.895" lon="-2.45441">
        <ele>23.2</ele>
        <time>2021-08-07T12:58:46Z</time>
      </trkpt>
      <trkpt lat="47.89505" lon="-2.45445">
        <ele>23.2</ele>
        <time>2021-08-07T12:58:47Z</time>
      </trkpt>
      <trkpt lat="47.89511" lon="-2.45449">
        <ele>23</ele>
        <time>2021-08-07T12:58:48Z</time>
      </trkpt>
      <trkpt lat="47.89522" lon="-2.45455">
        <ele>23</ele>
        <time>2021-08-07T12:58:50Z</time>
      </trkpt>
      <trkpt lat="47.89528" lon="-2.45457">
        <ele>23</ele>
        <time>2021-08-07T12:58:51Z</time>
      </trkpt>
      <trkpt lat="47.89533" lon="-2.45459">
        <ele>23</ele>
        <time>2021-08-07T12:58:52Z</time>
      </trkpt>
      <trkpt lat="47.89539" lon="-2.45461">
        <ele>23</ele>
        <time>2021-08-07T12:58:53Z</time>
      </trkpt>
      <trkpt lat="47.89545" lon="-2.45463">
        <ele>23</ele>
        <time>2021-08-07T12:58:54Z</time>
      </trkpt>
      <trkpt lat="47.89551" lon="-2.45465">
        <ele>23</ele>
        <time>2021-08-07T12:58:55Z</time>
      </trkpt>
      <trkpt lat="47.89556" lon="-2.45467">
        <ele>23</ele>
        <time>2021-08-07T12:58:56Z</time>
      </trkpt>
      <trkpt lat="47.89562" lon="-2.45469">
        <ele>23.4</ele>
        <time>2021-08-07T12:58:57Z</time>
      </trkpt>
      <trkpt lat="47.89573" lon="-2.45473">
        <ele>24</ele>
        <time>2021-08-07T12:58:59Z</time>
      </trkpt>
      <trkpt lat="47.89578" lon="-2.45475">
        <ele>24.2</ele>
        <time>2021-08-07T12:59:00Z</time>
      </trkpt>
      <trkpt lat="47.89583" lon="-2.45476">
        <ele>24.4</ele>
        <time>2021-08-07T12:59:01Z</time>
      </trkpt>
      <trkpt lat="47.89588" lon="-2.45479">
        <ele>24.6</ele>
        <time>2021-08-07T12:59:02Z</time>
      </trkpt>
      <trkpt lat="47.89592" lon="-2.45482">
        <ele>24.6</ele>
        <time>2021-08-07T12:59:03Z</time>
      </trkpt>
      <trkpt lat="47.89595" lon="-2.45485">
        <ele>24.8</ele>
        <time>2021-08-07T12:59:04Z</time>
      </trkpt>
      <trkpt lat="47.89599" lon="-2.4549">
        <ele>24.8</ele>
        <time>2021-08-07T12:59:05Z</time>
      </trkpt>
      <trkpt lat="47.89603" lon="-2.45492">
        <ele>24.8</ele>
        <time>2021-08-07T12:59:06Z</time>
      </trkpt>
      <trkpt lat="47.89606" lon="-2.45494">
        <ele>25</ele>
        <time>2021-08-07T12:59:07Z</time>
      </trkpt>
      <trkpt lat="47.8961" lon="-2.45496">
        <ele>25</ele>
        <time>2021-08-07T12:59:08Z</time>
      </trkpt>
      <trkpt lat="47.89614" lon="-2.45499">
        <ele>25.2</ele>
        <time>2021-08-07T12:59:09Z</time>
      </trkpt>
      <trkpt lat="47.89617" lon="-2.45502">
        <ele>25.6</ele>
        <time>2021-08-07T12:59:10Z</time>
      </trkpt>
      <trkpt lat="47.89621" lon="-2.45504">
        <ele>25.6</ele>
        <time>2021-08-07T12:59:11Z</time>
      </trkpt>
      <trkpt lat="47.89625" lon="-2.45507">
        <ele>25.6</ele>
        <time>2021-08-07T12:59:12Z</time>
      </trkpt>
      <trkpt lat="47.89629" lon="-2.4551">
        <ele>25.8</ele>
        <time>2021-08-07T12:59:13Z</time>
      </trkpt>
      <trkpt lat="47.89632" lon="-2.45513">
        <ele>25.8</ele>
        <time>2021-08-07T12:59:14Z</time>
      </trkpt>
      <trkpt lat="47.89636" lon="-2.45516">
        <ele>25.8</ele>
        <time>2021-08-07T12:59:15Z</time>
      </trkpt>
      <trkpt lat="47.89639" lon="-2.4552">
        <ele>25.8</ele>
        <time>2021-08-07T12:59:16Z</time>
      </trkpt>
      <trkpt lat="47.89646" lon="-2.45526">
        <ele>25.8</ele>
        <time>2021-08-07T12:59:18Z</time>
      </trkpt>
      <trkpt lat="47.8965" lon="-2.4553">
        <ele>25.8</ele>
        <time>2021-08-07T12:59:19Z</time>
      </trkpt>
      <trkpt lat="47.89653" lon="-2.45534">
        <ele>25.8</ele>
        <time>2021-08-07T12:59:20Z</time>
      </trkpt>
      <trkpt lat="47.89657" lon="-2.45537">
        <ele>25.8</ele>
        <time>2021-08-07T12:59:21Z</time>
      </trkpt>
      <trkpt lat="47.8966" lon="-2.4554">
        <ele>25.8</ele>
        <time>2021-08-07T12:59:22Z</time>
      </trkpt>
      <trkpt lat="47.89663" lon="-2.45542">
        <ele>25.8</ele>
        <time>2021-08-07T12:59:23Z</time>
      </trkpt>
      <trkpt lat="47.89667" lon="-2.45545">
        <ele>25.8</ele>
        <time>2021-08-07T12:59:24Z</time>
      </trkpt>
      <trkpt lat="47.89671" lon="-2.45549">
        <ele>25.8</ele>
        <time>2021-08-07T12:59:25Z</time>
      </trkpt>
      <trkpt lat="47.89678" lon="-2.45556">
        <ele>25.8</ele>
        <time>2021-08-07T12:59:27Z</time>
      </trkpt>
      <trkpt lat="47.89681" lon="-2.4556">
        <ele>25.8</ele>
        <time>2021-08-07T12:59:28Z</time>
      </trkpt>
      <trkpt lat="47.89684" lon="-2.45563">
        <ele>25.8</ele>
        <time>2021-08-07T12:59:29Z</time>
      </trkpt>
      <trkpt lat="47.89687" lon="-2.45567">
        <ele>25.8</ele>
        <time>2021-08-07T12:59:30Z</time>
      </trkpt>
      <trkpt lat="47.8969" lon="-2.4557">
        <ele>25.8</ele>
        <time>2021-08-07T12:59:31Z</time>
      </trkpt>
      <trkpt lat="47.89694" lon="-2.45574">
        <ele>25.8</ele>
        <time>2021-08-07T12:59:32Z</time>
      </trkpt>
      <trkpt lat="47.89697" lon="-2.45577">
        <ele>26</ele>
        <time>2021-08-07T12:59:33Z</time>
      </trkpt>
      <trkpt lat="47.897" lon="-2.45581">
        <ele>26</ele>
        <time>2021-08-07T12:59:34Z</time>
      </trkpt>
      <trkpt lat="47.89703" lon="-2.45585">
        <ele>26</ele>
        <time>2021-08-07T12:59:35Z</time>
      </trkpt>
      <trkpt lat="47.89706" lon="-2.45588">
        <ele>26</ele>
        <time>2021-08-07T12:59:36Z</time>
      </trkpt>
      <trkpt lat="47.89709" lon="-2.45592">
        <ele>26.2</ele>
        <time>2021-08-07T12:59:37Z</time>
      </trkpt>
      <trkpt lat="47.89713" lon="-2.45595">
        <ele>26.2</ele>
        <time>2021-08-07T12:59:38Z</time>
      </trkpt>
      <trkpt lat="47.89716" lon="-2.45598">
        <ele>26.2</ele>
        <time>2021-08-07T12:59:39Z</time>
      </trkpt>
      <trkpt lat="47.8972" lon="-2.45601">
        <ele>26.2</ele>
        <time>2021-08-07T12:59:40Z</time>
      </trkpt>
      <trkpt lat="47.89723" lon="-2.45605">
        <ele>26.2</ele>
        <time>2021-08-07T12:59:41Z</time>
      </trkpt>
      <trkpt lat="47.89727" lon="-2.45608">
        <ele>26.2</ele>
        <time>2021-08-07T12:59:42Z</time>
      </trkpt>
      <trkpt lat="47.89731" lon="-2.45612">
        <ele>26.2</ele>
        <time>2021-08-07T12:59:43Z</time>
      </trkpt>
      <trkpt lat="47.89734" lon="-2.45615">
        <ele>26.2</ele>
        <time>2021-08-07T12:59:44Z</time>
      </trkpt>
      <trkpt lat="47.89742" lon="-2.45622">
        <ele>26.2</ele>
        <time>2021-08-07T12:59:46Z</time>
      </trkpt>
      <trkpt lat="47.89745" lon="-2.45625">
        <ele>26.2</ele>
        <time>2021-08-07T12:59:47Z</time>
      </trkpt>
      <trkpt lat="47.89749" lon="-2.45628">
        <ele>26</ele>
        <time>2021-08-07T12:59:48Z</time>
      </trkpt>
      <trkpt lat="47.89753" lon="-2.4563">
        <ele>26</ele>
        <time>2021-08-07T12:59:49Z</time>
      </trkpt>
      <trkpt lat="47.89756" lon="-2.45633">
        <ele>25.8</ele>
        <time>2021-08-07T12:59:50Z</time>
      </trkpt>
      <trkpt lat="47.8976" lon="-2.45636">
        <ele>25.8</ele>
        <time>2021-08-07T12:59:51Z</time>
      </trkpt>
      <trkpt lat="47.89764" lon="-2.45639">
        <ele>25.8</ele>
        <time>2021-08-07T12:59:52Z</time>
      </trkpt>
      <trkpt lat="47.89768" lon="-2.45642">
        <ele>25.8</ele>
        <time>2021-08-07T12:59:53Z</time>
      </trkpt>
      <trkpt lat="47.89772" lon="-2.45645">
        <ele>25.8</ele>
        <time>2021-08-07T12:59:54Z</time>
      </trkpt>
      <trkpt lat="47.89776" lon="-2.45647">
        <ele>25.8</ele>
        <time>2021-08-07T12:59:55Z</time>
      </trkpt>
      <trkpt lat="47.8978" lon="-2.4565">
        <ele>25.8</ele>
        <time>2021-08-07T12:59:56Z</time>
      </trkpt>
      <trkpt lat="47.89784" lon="-2.45652">
        <ele>25.8</ele>
        <time>2021-08-07T12:59:57Z</time>
      </trkpt>
      <trkpt lat="47.89788" lon="-2.45654">
        <ele>25.8</ele>
        <time>2021-08-07T12:59:58Z</time>
      </trkpt>
      <trkpt lat="47.89791" lon="-2.45656">
        <ele>25.8</ele>
        <time>2021-08-07T12:59:59Z</time>
      </trkpt>
      <trkpt lat="47.89794" lon="-2.45658">
        <ele>25.8</ele>
        <time>2021-08-07T13:00:00Z</time>
      </trkpt>
      <trkpt lat="47.89798" lon="-2.4566">
        <ele>25.8</ele>
        <time>2021-08-07T13:00:01Z</time>
      </trkpt>
      <trkpt lat="47.89801" lon="-2.45662">
        <ele>25.8</ele>
        <time>2021-08-07T13:00:02Z</time>
      </trkpt>
      <trkpt lat="47.89805" lon="-2.45665">
        <ele>25.8</ele>
        <time>2021-08-07T13:00:03Z</time>
      </trkpt>
      <trkpt lat="47.89809" lon="-2.45667">
        <ele>25.8</ele>
        <time>2021-08-07T13:00:04Z</time>
      </trkpt>
      <trkpt lat="47.89816" lon="-2.45672">
        <ele>26</ele>
        <time>2021-08-07T13:00:06Z</time>
      </trkpt>
      <trkpt lat="47.8982" lon="-2.45674">
        <ele>25.8</ele>
        <time>2021-08-07T13:00:07Z</time>
      </trkpt>
      <trkpt lat="47.89824" lon="-2.45677">
        <ele>26</ele>
        <time>2021-08-07T13:00:08Z</time>
      </trkpt>
      <trkpt lat="47.89828" lon="-2.45679">
        <ele>26</ele>
        <time>2021-08-07T13:00:09Z</time>
      </trkpt>
      <trkpt lat="47.89833" lon="-2.45681">
        <ele>26</ele>
        <time>2021-08-07T13:00:10Z</time>
      </trkpt>
      <trkpt lat="47.89837" lon="-2.45683">
        <ele>26</ele>
        <time>2021-08-07T13:00:11Z</time>
      </trkpt>
      <trkpt lat="47.89841" lon="-2.45686">
        <ele>26</ele>
        <time>2021-08-07T13:00:12Z</time>
      </trkpt>
      <trkpt lat="47.89846" lon="-2.45689">
        <ele>26</ele>
        <time>2021-08-07T13:00:13Z</time>
      </trkpt>
      <trkpt lat="47.89855" lon="-2.45694">
        <ele>26</ele>
        <time>2021-08-07T13:00:15Z</time>
      </trkpt>
      <trkpt lat="47.89859" lon="-2.45697">
        <ele>26</ele>
        <time>2021-08-07T13:00:16Z</time>
      </trkpt>
      <trkpt lat="47.89864" lon="-2.45699">
        <ele>26</ele>
        <time>2021-08-07T13:00:17Z</time>
      </trkpt>
      <trkpt lat="47.89869" lon="-2.45701">
        <ele>26</ele>
        <time>2021-08-07T13:00:18Z</time>
      </trkpt>
      <trkpt lat="47.89873" lon="-2.45704">
        <ele>26</ele>
        <time>2021-08-07T13:00:19Z</time>
      </trkpt>
      <trkpt lat="47.89878" lon="-2.45707">
        <ele>26</ele>
        <time>2021-08-07T13:00:20Z</time>
      </trkpt>
      <trkpt lat="47.89883" lon="-2.4571">
        <ele>26</ele>
        <time>2021-08-07T13:00:21Z</time>
      </trkpt>
      <trkpt lat="47.89888" lon="-2.45713">
        <ele>26</ele>
        <time>2021-08-07T13:00:22Z</time>
      </trkpt>
      <trkpt lat="47.89892" lon="-2.45716">
        <ele>26</ele>
        <time>2021-08-07T13:00:23Z</time>
      </trkpt>
      <trkpt lat="47.89896" lon="-2.45719">
        <ele>26</ele>
        <time>2021-08-07T13:00:24Z</time>
      </trkpt>
      <trkpt lat="47.89901" lon="-2.45723">
        <ele>26</ele>
        <time>2021-08-07T13:00:25Z</time>
      </trkpt>
      <trkpt lat="47.89905" lon="-2.45727">
        <ele>25.8</ele>
        <time>2021-08-07T13:00:26Z</time>
      </trkpt>
      <trkpt lat="47.89909" lon="-2.45731">
        <ele>25.8</ele>
        <time>2021-08-07T13:00:27Z</time>
      </trkpt>
      <trkpt lat="47.89913" lon="-2.45735">
        <ele>25.8</ele>
        <time>2021-08-07T13:00:28Z</time>
      </trkpt>
      <trkpt lat="47.89918" lon="-2.45739">
        <ele>25.8</ele>
        <time>2021-08-07T13:00:29Z</time>
      </trkpt>
      <trkpt lat="47.89922" lon="-2.45742">
        <ele>25.8</ele>
        <time>2021-08-07T13:00:30Z</time>
      </trkpt>
      <trkpt lat="47.89926" lon="-2.45746">
        <ele>25.8</ele>
        <time>2021-08-07T13:00:31Z</time>
      </trkpt>
      <trkpt lat="47.89935" lon="-2.45752">
        <ele>25.8</ele>
        <time>2021-08-07T13:00:33Z</time>
      </trkpt>
      <trkpt lat="47.89939" lon="-2.45755">
        <ele>25.8</ele>
        <time>2021-08-07T13:00:34Z</time>
      </trkpt>
      <trkpt lat="47.89943" lon="-2.45758">
        <ele>25.8</ele>
        <time>2021-08-07T13:00:35Z</time>
      </trkpt>
      <trkpt lat="47.89946" lon="-2.45762">
        <ele>25.8</ele>
        <time>2021-08-07T13:00:36Z</time>
      </trkpt>
      <trkpt lat="47.8995" lon="-2.45766">
        <ele>25.8</ele>
        <time>2021-08-07T13:00:37Z</time>
      </trkpt>
      <trkpt lat="47.89955" lon="-2.45769">
        <ele>26</ele>
        <time>2021-08-07T13:00:38Z</time>
      </trkpt>
      <trkpt lat="47.89959" lon="-2.45772">
        <ele>25.8</ele>
        <time>2021-08-07T13:00:39Z</time>
      </trkpt>
      <trkpt lat="47.89962" lon="-2.45776">
        <ele>25.8</ele>
        <time>2021-08-07T13:00:40Z</time>
      </trkpt>
      <trkpt lat="47.89969" lon="-2.45784">
        <ele>25.8</ele>
        <time>2021-08-07T13:00:42Z</time>
      </trkpt>
      <trkpt lat="47.89973" lon="-2.45787">
        <ele>25.8</ele>
        <time>2021-08-07T13:00:43Z</time>
      </trkpt>
      <trkpt lat="47.89976" lon="-2.4579">
        <ele>25.8</ele>
        <time>2021-08-07T13:00:44Z</time>
      </trkpt>
      <trkpt lat="47.8998" lon="-2.45794">
        <ele>25.8</ele>
        <time>2021-08-07T13:00:45Z</time>
      </trkpt>
      <trkpt lat="47.89983" lon="-2.45797">
        <ele>25.8</ele>
        <time>2021-08-07T13:00:46Z</time>
      </trkpt>
      <trkpt lat="47.89987" lon="-2.458">
        <ele>25.8</ele>
        <time>2021-08-07T13:00:47Z</time>
      </trkpt>
      <trkpt lat="47.8999" lon="-2.45804">
        <ele>25.8</ele>
        <time>2021-08-07T13:00:48Z</time>
      </trkpt>
      <trkpt lat="47.89993" lon="-2.45808">
        <ele>25.8</ele>
        <time>2021-08-07T13:00:49Z</time>
      </trkpt>
      <trkpt lat="47.89996" lon="-2.45812">
        <ele>25.8</ele>
        <time>2021-08-07T13:00:50Z</time>
      </trkpt>
      <trkpt lat="47.90001" lon="-2.45818">
        <ele>25.8</ele>
        <time>2021-08-07T13:00:52Z</time>
      </trkpt>
      <trkpt lat="47.90004" lon="-2.45822">
        <ele>25.6</ele>
        <time>2021-08-07T13:00:53Z</time>
      </trkpt>
      <trkpt lat="47.90006" lon="-2.45826">
        <ele>25.6</ele>
        <time>2021-08-07T13:00:54Z</time>
      </trkpt>
      <trkpt lat="47.90008" lon="-2.45829">
        <ele>25.6</ele>
        <time>2021-08-07T13:00:55Z</time>
      </trkpt>
      <trkpt lat="47.9001" lon="-2.45833">
        <ele>25.4</ele>
        <time>2021-08-07T13:00:56Z</time>
      </trkpt>
      <trkpt lat="47.90012" lon="-2.45837">
        <ele>25.4</ele>
        <time>2021-08-07T13:00:57Z</time>
      </trkpt>
      <trkpt lat="47.90013" lon="-2.4584">
        <ele>25.4</ele>
        <time>2021-08-07T13:00:58Z</time>
      </trkpt>
      <trkpt lat="47.90015" lon="-2.45843">
        <ele>25.4</ele>
        <time>2021-08-07T13:00:59Z</time>
      </trkpt>
      <trkpt lat="47.90017" lon="-2.45846">
        <ele>25.4</ele>
        <time>2021-08-07T13:01:00Z</time>
      </trkpt>
      <trkpt lat="47.90019" lon="-2.45849">
        <ele>25.4</ele>
        <time>2021-08-07T13:01:01Z</time>
      </trkpt>
      <trkpt lat="47.9002" lon="-2.45852">
        <ele>25.4</ele>
        <time>2021-08-07T13:01:02Z</time>
      </trkpt>
      <trkpt lat="47.90022" lon="-2.45856">
        <ele>25.4</ele>
        <time>2021-08-07T13:01:03Z</time>
      </trkpt>
      <trkpt lat="47.90025" lon="-2.4586">
        <ele>25.2</ele>
        <time>2021-08-07T13:01:04Z</time>
      </trkpt>
      <trkpt lat="47.90026" lon="-2.45864">
        <ele>25.2</ele>
        <time>2021-08-07T13:01:05Z</time>
      </trkpt>
      <trkpt lat="47.90028" lon="-2.4587">
        <ele>25.2</ele>
        <time>2021-08-07T13:01:06Z</time>
      </trkpt>
      <trkpt lat="47.9003" lon="-2.45874">
        <ele>25.2</ele>
        <time>2021-08-07T13:01:07Z</time>
      </trkpt>
      <trkpt lat="47.90031" lon="-2.4588">
        <ele>25.2</ele>
        <time>2021-08-07T13:01:08Z</time>
      </trkpt>
      <trkpt lat="47.90033" lon="-2.45886">
        <ele>25.2</ele>
        <time>2021-08-07T13:01:09Z</time>
      </trkpt>
      <trkpt lat="47.90034" lon="-2.45893">
        <ele>25</ele>
        <time>2021-08-07T13:01:10Z</time>
      </trkpt>
      <trkpt lat="47.90036" lon="-2.459">
        <ele>25</ele>
        <time>2021-08-07T13:01:11Z</time>
      </trkpt>
      <trkpt lat="47.90037" lon="-2.45907">
        <ele>25</ele>
        <time>2021-08-07T13:01:12Z</time>
      </trkpt>
      <trkpt lat="47.90037" lon="-2.45914">
        <ele>25</ele>
        <time>2021-08-07T13:01:13Z</time>
      </trkpt>
      <trkpt lat="47.90038" lon="-2.45922">
        <ele>25</ele>
        <time>2021-08-07T13:01:14Z</time>
      </trkpt>
      <trkpt lat="47.90038" lon="-2.45928">
        <ele>25</ele>
        <time>2021-08-07T13:01:15Z</time>
      </trkpt>
      <trkpt lat="47.90038" lon="-2.45935">
        <ele>24.8</ele>
        <time>2021-08-07T13:01:16Z</time>
      </trkpt>
      <trkpt lat="47.90038" lon="-2.45941">
        <ele>24.8</ele>
        <time>2021-08-07T13:01:17Z</time>
      </trkpt>
      <trkpt lat="47.90038" lon="-2.45945">
        <ele>24.8</ele>
        <time>2021-08-07T13:01:18Z</time>
      </trkpt>
      <trkpt lat="47.90037" lon="-2.4595">
        <ele>24.8</ele>
        <time>2021-08-07T13:01:19Z</time>
      </trkpt>
      <trkpt lat="47.90037" lon="-2.45954">
        <ele>24.8</ele>
        <time>2021-08-07T13:01:20Z</time>
      </trkpt>
      <trkpt lat="47.90036" lon="-2.45963">
        <ele>24.8</ele>
        <time>2021-08-07T13:01:22Z</time>
      </trkpt>
      <trkpt lat="47.90036" lon="-2.45969">
        <ele>24.8</ele>
        <time>2021-08-07T13:01:23Z</time>
      </trkpt>
      <trkpt lat="47.90036" lon="-2.45974">
        <ele>24.8</ele>
        <time>2021-08-07T13:01:24Z</time>
      </trkpt>
      <trkpt lat="47.90036" lon="-2.45979">
        <ele>24.8</ele>
        <time>2021-08-07T13:01:25Z</time>
      </trkpt>
      <trkpt lat="47.90036" lon="-2.45984">
        <ele>24.8</ele>
        <time>2021-08-07T13:01:26Z</time>
      </trkpt>
      <trkpt lat="47.90035" lon="-2.4599">
        <ele>24.8</ele>
        <time>2021-08-07T13:01:27Z</time>
      </trkpt>
      <trkpt lat="47.90036" lon="-2.45996">
        <ele>24.8</ele>
        <time>2021-08-07T13:01:28Z</time>
      </trkpt>
      <trkpt lat="47.90035" lon="-2.46002">
        <ele>24.8</ele>
        <time>2021-08-07T13:01:29Z</time>
      </trkpt>
      <trkpt lat="47.90035" lon="-2.46008">
        <ele>24.6</ele>
        <time>2021-08-07T13:01:30Z</time>
      </trkpt>
      <trkpt lat="47.90035" lon="-2.46014">
        <ele>24.6</ele>
        <time>2021-08-07T13:01:31Z</time>
      </trkpt>
      <trkpt lat="47.90034" lon="-2.4602">
        <ele>24.6</ele>
        <time>2021-08-07T13:01:32Z</time>
      </trkpt>
      <trkpt lat="47.90034" lon="-2.46025">
        <ele>24.6</ele>
        <time>2021-08-07T13:01:33Z</time>
      </trkpt>
      <trkpt lat="47.90034" lon="-2.46031">
        <ele>24.6</ele>
        <time>2021-08-07T13:01:34Z</time>
      </trkpt>
      <trkpt lat="47.90033" lon="-2.46037">
        <ele>24.8</ele>
        <time>2021-08-07T13:01:35Z</time>
      </trkpt>
      <trkpt lat="47.90033" lon="-2.46042">
        <ele>24.8</ele>
        <time>2021-08-07T13:01:36Z</time>
      </trkpt>
      <trkpt lat="47.90032" lon="-2.46047">
        <ele>24.8</ele>
        <time>2021-08-07T13:01:37Z</time>
      </trkpt>
      <trkpt lat="47.90032" lon="-2.46053">
        <ele>25</ele>
        <time>2021-08-07T13:01:38Z</time>
      </trkpt>
      <trkpt lat="47.90032" lon="-2.46058">
        <ele>25</ele>
        <time>2021-08-07T13:01:39Z</time>
      </trkpt>
      <trkpt lat="47.90031" lon="-2.4607">
        <ele>25</ele>
        <time>2021-08-07T13:01:41Z</time>
      </trkpt>
      <trkpt lat="47.90031" lon="-2.46076">
        <ele>24.8</ele>
        <time>2021-08-07T13:01:42Z</time>
      </trkpt>
      <trkpt lat="47.90031" lon="-2.46082">
        <ele>24.8</ele>
        <time>2021-08-07T13:01:43Z</time>
      </trkpt>
      <trkpt lat="47.9003" lon="-2.46089">
        <ele>24.8</ele>
        <time>2021-08-07T13:01:44Z</time>
      </trkpt>
      <trkpt lat="47.90029" lon="-2.46095">
        <ele>24.8</ele>
        <time>2021-08-07T13:01:45Z</time>
      </trkpt>
      <trkpt lat="47.90028" lon="-2.46102">
        <ele>24.8</ele>
        <time>2021-08-07T13:01:46Z</time>
      </trkpt>
      <trkpt lat="47.90027" lon="-2.46109">
        <ele>24.8</ele>
        <time>2021-08-07T13:01:47Z</time>
      </trkpt>
      <trkpt lat="47.90025" lon="-2.46117">
        <ele>24.8</ele>
        <time>2021-08-07T13:01:48Z</time>
      </trkpt>
      <trkpt lat="47.90023" lon="-2.46124">
        <ele>24.8</ele>
        <time>2021-08-07T13:01:49Z</time>
      </trkpt>
      <trkpt lat="47.9002" lon="-2.46138">
        <ele>24.8</ele>
        <time>2021-08-07T13:01:51Z</time>
      </trkpt>
      <trkpt lat="47.90018" lon="-2.46145">
        <ele>24.6</ele>
        <time>2021-08-07T13:01:52Z</time>
      </trkpt>
      <trkpt lat="47.90015" lon="-2.4615">
        <ele>24.4</ele>
        <time>2021-08-07T13:01:53Z</time>
      </trkpt>
      <trkpt lat="47.90012" lon="-2.46155">
        <ele>24.4</ele>
        <time>2021-08-07T13:01:54Z</time>
      </trkpt>
      <trkpt lat="47.9001" lon="-2.46161">
        <ele>24.4</ele>
        <time>2021-08-07T13:01:55Z</time>
      </trkpt>
      <trkpt lat="47.90008" lon="-2.46167">
        <ele>24.4</ele>
        <time>2021-08-07T13:01:56Z</time>
      </trkpt>
      <trkpt lat="47.90006" lon="-2.46172">
        <ele>24.4</ele>
        <time>2021-08-07T13:01:57Z</time>
      </trkpt>
      <trkpt lat="47.90003" lon="-2.46178">
        <ele>24.4</ele>
        <time>2021-08-07T13:01:58Z</time>
      </trkpt>
      <trkpt lat="47.90001" lon="-2.46183">
        <ele>24.4</ele>
        <time>2021-08-07T13:01:59Z</time>
      </trkpt>
      <trkpt lat="47.89997" lon="-2.46193">
        <ele>24.2</ele>
        <time>2021-08-07T13:02:01Z</time>
      </trkpt>
      <trkpt lat="47.89995" lon="-2.46197">
        <ele>24.2</ele>
        <time>2021-08-07T13:02:02Z</time>
      </trkpt>
      <trkpt lat="47.89994" lon="-2.46201">
        <ele>24.2</ele>
        <time>2021-08-07T13:02:03Z</time>
      </trkpt>
      <trkpt lat="47.89993" lon="-2.46205">
        <ele>24.2</ele>
        <time>2021-08-07T13:02:04Z</time>
      </trkpt>
      <trkpt lat="47.89993" lon="-2.46208">
        <ele>24.4</ele>
        <time>2021-08-07T13:02:05Z</time>
      </trkpt>
      <trkpt lat="47.89993" lon="-2.46211">
        <ele>24.4</ele>
        <time>2021-08-07T13:02:06Z</time>
      </trkpt>
      <trkpt lat="47.89992" lon="-2.46215">
        <ele>24.4</ele>
        <time>2021-08-07T13:02:07Z</time>
      </trkpt>
      <trkpt lat="47.89992" lon="-2.46219">
        <ele>24.6</ele>
        <time>2021-08-07T13:02:08Z</time>
      </trkpt>
      <trkpt lat="47.89991" lon="-2.46224">
        <ele>24.6</ele>
        <time>2021-08-07T13:02:09Z</time>
      </trkpt>
      <trkpt lat="47.8999" lon="-2.46234">
        <ele>24.8</ele>
        <time>2021-08-07T13:02:11Z</time>
      </trkpt>
      <trkpt lat="47.8999" lon="-2.4624">
        <ele>24.8</ele>
        <time>2021-08-07T13:02:12Z</time>
      </trkpt>
      <trkpt lat="47.89989" lon="-2.46246">
        <ele>24.8</ele>
        <time>2021-08-07T13:02:13Z</time>
      </trkpt>
      <trkpt lat="47.89989" lon="-2.46252">
        <ele>24.8</ele>
        <time>2021-08-07T13:02:14Z</time>
      </trkpt>
      <trkpt lat="47.89988" lon="-2.46258">
        <ele>24.8</ele>
        <time>2021-08-07T13:02:15Z</time>
      </trkpt>
      <trkpt lat="47.89988" lon="-2.46265">
        <ele>24.8</ele>
        <time>2021-08-07T13:02:16Z</time>
      </trkpt>
      <trkpt lat="47.89987" lon="-2.46272">
        <ele>24.8</ele>
        <time>2021-08-07T13:02:17Z</time>
      </trkpt>
      <trkpt lat="47.89986" lon="-2.46279">
        <ele>24.8</ele>
        <time>2021-08-07T13:02:18Z</time>
      </trkpt>
      <trkpt lat="47.89985" lon="-2.46286">
        <ele>24.8</ele>
        <time>2021-08-07T13:02:19Z</time>
      </trkpt>
      <trkpt lat="47.89984" lon="-2.46294">
        <ele>24.8</ele>
        <time>2021-08-07T13:02:20Z</time>
      </trkpt>
      <trkpt lat="47.89984" lon="-2.46301">
        <ele>24.8</ele>
        <time>2021-08-07T13:02:21Z</time>
      </trkpt>
      <trkpt lat="47.89983" lon="-2.46309">
        <ele>24.8</ele>
        <time>2021-08-07T13:02:22Z</time>
      </trkpt>
      <trkpt lat="47.89982" lon="-2.46316">
        <ele>24.8</ele>
        <time>2021-08-07T13:02:23Z</time>
      </trkpt>
      <trkpt lat="47.89982" lon="-2.46323">
        <ele>24.8</ele>
        <time>2021-08-07T13:02:24Z</time>
      </trkpt>
      <trkpt lat="47.89981" lon="-2.4633">
        <ele>24.8</ele>
        <time>2021-08-07T13:02:25Z</time>
      </trkpt>
      <trkpt lat="47.8998" lon="-2.46337">
        <ele>24.8</ele>
        <time>2021-08-07T13:02:26Z</time>
      </trkpt>
      <trkpt lat="47.8998" lon="-2.46344">
        <ele>24.6</ele>
        <time>2021-08-07T13:02:27Z</time>
      </trkpt>
      <trkpt lat="47.8998" lon="-2.46351">
        <ele>24.6</ele>
        <time>2021-08-07T13:02:28Z</time>
      </trkpt>
      <trkpt lat="47.8998" lon="-2.46358">
        <ele>24.4</ele>
        <time>2021-08-07T13:02:29Z</time>
      </trkpt>
      <trkpt lat="47.8998" lon="-2.46364">
        <ele>24.4</ele>
        <time>2021-08-07T13:02:30Z</time>
      </trkpt>
      <trkpt lat="47.89981" lon="-2.4637">
        <ele>24.4</ele>
        <time>2021-08-07T13:02:31Z</time>
      </trkpt>
      <trkpt lat="47.89981" lon="-2.46376">
        <ele>24.4</ele>
        <time>2021-08-07T13:02:32Z</time>
      </trkpt>
      <trkpt lat="47.89981" lon="-2.46382">
        <ele>24.2</ele>
        <time>2021-08-07T13:02:33Z</time>
      </trkpt>
      <trkpt lat="47.89981" lon="-2.46387">
        <ele>24.2</ele>
        <time>2021-08-07T13:02:34Z</time>
      </trkpt>
      <trkpt lat="47.89981" lon="-2.46393">
        <ele>24.2</ele>
        <time>2021-08-07T13:02:35Z</time>
      </trkpt>
      <trkpt lat="47.89982" lon="-2.46399">
        <ele>24.4</ele>
        <time>2021-08-07T13:02:36Z</time>
      </trkpt>
      <trkpt lat="47.89982" lon="-2.46405">
        <ele>24.4</ele>
        <time>2021-08-07T13:02:37Z</time>
      </trkpt>
      <trkpt lat="47.89983" lon="-2.46411">
        <ele>24.6</ele>
        <time>2021-08-07T13:02:38Z</time>
      </trkpt>
      <trkpt lat="47.89983" lon="-2.46417">
        <ele>24.8</ele>
        <time>2021-08-07T13:02:39Z</time>
      </trkpt>
      <trkpt lat="47.89984" lon="-2.46423">
        <ele>24.8</ele>
        <time>2021-08-07T13:02:40Z</time>
      </trkpt>
      <trkpt lat="47.89985" lon="-2.46429">
        <ele>24.8</ele>
        <time>2021-08-07T13:02:41Z</time>
      </trkpt>
      <trkpt lat="47.89986" lon="-2.46435">
        <ele>24.8</ele>
        <time>2021-08-07T13:02:42Z</time>
      </trkpt>
      <trkpt lat="47.89986" lon="-2.46441">
        <ele>25</ele>
        <time>2021-08-07T13:02:43Z</time>
      </trkpt>
      <trkpt lat="47.89987" lon="-2.46448">
        <ele>25</ele>
        <time>2021-08-07T13:02:44Z</time>
      </trkpt>
      <trkpt lat="47.89988" lon="-2.46454">
        <ele>25</ele>
        <time>2021-08-07T13:02:45Z</time>
      </trkpt>
      <trkpt lat="47.89989" lon="-2.46461">
        <ele>25</ele>
        <time>2021-08-07T13:02:46Z</time>
      </trkpt>
      <trkpt lat="47.8999" lon="-2.46467">
        <ele>25</ele>
        <time>2021-08-07T13:02:47Z</time>
      </trkpt>
      <trkpt lat="47.89992" lon="-2.46473">
        <ele>25</ele>
        <time>2021-08-07T13:02:48Z</time>
      </trkpt>
      <trkpt lat="47.89993" lon="-2.4648">
        <ele>25</ele>
        <time>2021-08-07T13:02:49Z</time>
      </trkpt>
      <trkpt lat="47.89995" lon="-2.46485">
        <ele>25</ele>
        <time>2021-08-07T13:02:50Z</time>
      </trkpt>
      <trkpt lat="47.89996" lon="-2.4649">
        <ele>24.8</ele>
        <time>2021-08-07T13:02:51Z</time>
      </trkpt>
      <trkpt lat="47.89998" lon="-2.46495">
        <ele>24.8</ele>
        <time>2021-08-07T13:02:52Z</time>
      </trkpt>
      <trkpt lat="47.9" lon="-2.465">
        <ele>24.8</ele>
        <time>2021-08-07T13:02:53Z</time>
      </trkpt>
      <trkpt lat="47.90002" lon="-2.46505">
        <ele>24.8</ele>
        <time>2021-08-07T13:02:54Z</time>
      </trkpt>
      <trkpt lat="47.90003" lon="-2.46509">
        <ele>24.8</ele>
        <time>2021-08-07T13:02:55Z</time>
      </trkpt>
      <trkpt lat="47.90005" lon="-2.46513">
        <ele>24.4</ele>
        <time>2021-08-07T13:02:56Z</time>
      </trkpt>
      <trkpt lat="47.90007" lon="-2.46516">
        <ele>24.4</ele>
        <time>2021-08-07T13:02:57Z</time>
      </trkpt>
      <trkpt lat="47.90012" lon="-2.46526">
        <ele>24.4</ele>
        <time>2021-08-07T13:02:59Z</time>
      </trkpt>
      <trkpt lat="47.90015" lon="-2.46531">
        <ele>24.4</ele>
        <time>2021-08-07T13:03:00Z</time>
      </trkpt>
      <trkpt lat="47.90017" lon="-2.46537">
        <ele>24.4</ele>
        <time>2021-08-07T13:03:01Z</time>
      </trkpt>
      <trkpt lat="47.9002" lon="-2.46542">
        <ele>24.4</ele>
        <time>2021-08-07T13:03:02Z</time>
      </trkpt>
      <trkpt lat="47.90022" lon="-2.46548">
        <ele>24.4</ele>
        <time>2021-08-07T13:03:03Z</time>
      </trkpt>
      <trkpt lat="47.90026" lon="-2.46552">
        <ele>24.4</ele>
        <time>2021-08-07T13:03:04Z</time>
      </trkpt>
      <trkpt lat="47.90029" lon="-2.46557">
        <ele>24.4</ele>
        <time>2021-08-07T13:03:05Z</time>
      </trkpt>
      <trkpt lat="47.90032" lon="-2.46562">
        <ele>24.4</ele>
        <time>2021-08-07T13:03:06Z</time>
      </trkpt>
      <trkpt lat="47.90035" lon="-2.46567">
        <ele>24.4</ele>
        <time>2021-08-07T13:03:07Z</time>
      </trkpt>
      <trkpt lat="47.90042" lon="-2.46577">
        <ele>24.4</ele>
        <time>2021-08-07T13:03:09Z</time>
      </trkpt>
      <trkpt lat="47.90045" lon="-2.46582">
        <ele>24.4</ele>
        <time>2021-08-07T13:03:10Z</time>
      </trkpt>
      <trkpt lat="47.90049" lon="-2.46586">
        <ele>24.4</ele>
        <time>2021-08-07T13:03:11Z</time>
      </trkpt>
      <trkpt lat="47.90052" lon="-2.46588">
        <ele>24.4</ele>
        <time>2021-08-07T13:03:12Z</time>
      </trkpt>
      <trkpt lat="47.90056" lon="-2.46591">
        <ele>24.4</ele>
        <time>2021-08-07T13:03:13Z</time>
      </trkpt>
      <trkpt lat="47.90059" lon="-2.46594">
        <ele>24.4</ele>
        <time>2021-08-07T13:03:14Z</time>
      </trkpt>
      <trkpt lat="47.90061" lon="-2.46598">
        <ele>24.2</ele>
        <time>2021-08-07T13:03:15Z</time>
      </trkpt>
      <trkpt lat="47.90064" lon="-2.46601">
        <ele>24</ele>
        <time>2021-08-07T13:03:16Z</time>
      </trkpt>
      <trkpt lat="47.90067" lon="-2.46605">
        <ele>24</ele>
        <time>2021-08-07T13:03:17Z</time>
      </trkpt>
      <trkpt lat="47.90073" lon="-2.46612">
        <ele>23.8</ele>
        <time>2021-08-07T13:03:19Z</time>
      </trkpt>
      <trkpt lat="47.90076" lon="-2.46616">
        <ele>23.8</ele>
        <time>2021-08-07T13:03:20Z</time>
      </trkpt>
      <trkpt lat="47.9008" lon="-2.46619">
        <ele>23.6</ele>
        <time>2021-08-07T13:03:21Z</time>
      </trkpt>
      <trkpt lat="47.90082" lon="-2.46622">
        <ele>23.6</ele>
        <time>2021-08-07T13:03:22Z</time>
      </trkpt>
      <trkpt lat="47.90085" lon="-2.46626">
        <ele>23.6</ele>
        <time>2021-08-07T13:03:23Z</time>
      </trkpt>
      <trkpt lat="47.90089" lon="-2.4663">
        <ele>23.6</ele>
        <time>2021-08-07T13:03:24Z</time>
      </trkpt>
      <trkpt lat="47.90091" lon="-2.46632">
        <ele>23.6</ele>
        <time>2021-08-07T13:03:25Z</time>
      </trkpt>
      <trkpt lat="47.90094" lon="-2.46635">
        <ele>23.6</ele>
        <time>2021-08-07T13:03:26Z</time>
      </trkpt>
      <trkpt lat="47.90098" lon="-2.46639">
        <ele>23.6</ele>
        <time>2021-08-07T13:03:27Z</time>
      </trkpt>
      <trkpt lat="47.90105" lon="-2.46646">
        <ele>23.8</ele>
        <time>2021-08-07T13:03:29Z</time>
      </trkpt>
      <trkpt lat="47.90109" lon="-2.4665">
        <ele>23.8</ele>
        <time>2021-08-07T13:03:30Z</time>
      </trkpt>
      <trkpt lat="47.90113" lon="-2.46654">
        <ele>23.6</ele>
        <time>2021-08-07T13:03:31Z</time>
      </trkpt>
      <trkpt lat="47.90117" lon="-2.46658">
        <ele>23.6</ele>
        <time>2021-08-07T13:03:32Z</time>
      </trkpt>
      <trkpt lat="47.9012" lon="-2.46661">
        <ele>23.6</ele>
        <time>2021-08-07T13:03:33Z</time>
      </trkpt>
      <trkpt lat="47.90124" lon="-2.46665">
        <ele>23.6</ele>
        <time>2021-08-07T13:03:34Z</time>
      </trkpt>
      <trkpt lat="47.90128" lon="-2.46669">
        <ele>23.8</ele>
        <time>2021-08-07T13:03:35Z</time>
      </trkpt>
      <trkpt lat="47.90131" lon="-2.46672">
        <ele>23.8</ele>
        <time>2021-08-07T13:03:36Z</time>
      </trkpt>
      <trkpt lat="47.90135" lon="-2.46676">
        <ele>23.8</ele>
        <time>2021-08-07T13:03:37Z</time>
      </trkpt>
      <trkpt lat="47.90142" lon="-2.46683">
        <ele>23.8</ele>
        <time>2021-08-07T13:03:39Z</time>
      </trkpt>
      <trkpt lat="47.90145" lon="-2.46687">
        <ele>24</ele>
        <time>2021-08-07T13:03:40Z</time>
      </trkpt>
      <trkpt lat="47.90149" lon="-2.46691">
        <ele>24</ele>
        <time>2021-08-07T13:03:41Z</time>
      </trkpt>
      <trkpt lat="47.90152" lon="-2.46696">
        <ele>24</ele>
        <time>2021-08-07T13:03:42Z</time>
      </trkpt>
      <trkpt lat="47.90155" lon="-2.46701">
        <ele>24</ele>
        <time>2021-08-07T13:03:43Z</time>
      </trkpt>
      <trkpt lat="47.90159" lon="-2.46707">
        <ele>24</ele>
        <time>2021-08-07T13:03:44Z</time>
      </trkpt>
      <trkpt lat="47.90162" lon="-2.46712">
        <ele>23.8</ele>
        <time>2021-08-07T13:03:45Z</time>
      </trkpt>
      <trkpt lat="47.90165" lon="-2.46717">
        <ele>24</ele>
        <time>2021-08-07T13:03:46Z</time>
      </trkpt>
      <trkpt lat="47.90168" lon="-2.46723">
        <ele>23.8</ele>
        <time>2021-08-07T13:03:47Z</time>
      </trkpt>
      <trkpt lat="47.90173" lon="-2.46735">
        <ele>24</ele>
        <time>2021-08-07T13:03:49Z</time>
      </trkpt>
      <trkpt lat="47.90176" lon="-2.46741">
        <ele>24</ele>
        <time>2021-08-07T13:03:50Z</time>
      </trkpt>
      <trkpt lat="47.90178" lon="-2.46747">
        <ele>24</ele>
        <time>2021-08-07T13:03:51Z</time>
      </trkpt>
      <trkpt lat="47.9018" lon="-2.46754">
        <ele>23.8</ele>
        <time>2021-08-07T13:03:52Z</time>
      </trkpt>
      <trkpt lat="47.90182" lon="-2.4676">
        <ele>23.8</ele>
        <time>2021-08-07T13:03:53Z</time>
      </trkpt>
      <trkpt lat="47.90183" lon="-2.46766">
        <ele>23.8</ele>
        <time>2021-08-07T13:03:54Z</time>
      </trkpt>
      <trkpt lat="47.90185" lon="-2.46772">
        <ele>23.8</ele>
        <time>2021-08-07T13:03:55Z</time>
      </trkpt>
      <trkpt lat="47.90187" lon="-2.46777">
        <ele>23.8</ele>
        <time>2021-08-07T13:03:56Z</time>
      </trkpt>
      <trkpt lat="47.90188" lon="-2.46783">
        <ele>23.8</ele>
        <time>2021-08-07T13:03:57Z</time>
      </trkpt>
      <trkpt lat="47.90189" lon="-2.46788">
        <ele>23.8</ele>
        <time>2021-08-07T13:03:58Z</time>
      </trkpt>
      <trkpt lat="47.90191" lon="-2.46793">
        <ele>23.8</ele>
        <time>2021-08-07T13:03:59Z</time>
      </trkpt>
      <trkpt lat="47.90192" lon="-2.46799">
        <ele>23.8</ele>
        <time>2021-08-07T13:04:00Z</time>
      </trkpt>
      <trkpt lat="47.90193" lon="-2.46804">
        <ele>23.8</ele>
        <time>2021-08-07T13:04:01Z</time>
      </trkpt>
      <trkpt lat="47.90195" lon="-2.46809">
        <ele>23.8</ele>
        <time>2021-08-07T13:04:02Z</time>
      </trkpt>
      <trkpt lat="47.90196" lon="-2.46814">
        <ele>24</ele>
        <time>2021-08-07T13:04:03Z</time>
      </trkpt>
      <trkpt lat="47.90198" lon="-2.46819">
        <ele>24</ele>
        <time>2021-08-07T13:04:04Z</time>
      </trkpt>
      <trkpt lat="47.902" lon="-2.46823">
        <ele>24</ele>
        <time>2021-08-07T13:04:05Z</time>
      </trkpt>
      <trkpt lat="47.90201" lon="-2.46827">
        <ele>24</ele>
        <time>2021-08-07T13:04:06Z</time>
      </trkpt>
      <trkpt lat="47.90203" lon="-2.46831">
        <ele>24</ele>
        <time>2021-08-07T13:04:07Z</time>
      </trkpt>
      <trkpt lat="47.90206" lon="-2.46841">
        <ele>24.2</ele>
        <time>2021-08-07T13:04:09Z</time>
      </trkpt>
      <trkpt lat="47.90207" lon="-2.46845">
        <ele>24.4</ele>
        <time>2021-08-07T13:04:10Z</time>
      </trkpt>
      <trkpt lat="47.90208" lon="-2.4685">
        <ele>24.4</ele>
        <time>2021-08-07T13:04:11Z</time>
      </trkpt>
      <trkpt lat="47.9021" lon="-2.46854">
        <ele>24.4</ele>
        <time>2021-08-07T13:04:12Z</time>
      </trkpt>
      <trkpt lat="47.90211" lon="-2.46858">
        <ele>24.4</ele>
        <time>2021-08-07T13:04:13Z</time>
      </trkpt>
      <trkpt lat="47.90212" lon="-2.46863">
        <ele>24.4</ele>
        <time>2021-08-07T13:04:14Z</time>
      </trkpt>
      <trkpt lat="47.90214" lon="-2.46868">
        <ele>24.4</ele>
        <time>2021-08-07T13:04:15Z</time>
      </trkpt>
      <trkpt lat="47.90214" lon="-2.46874">
        <ele>24.4</ele>
        <time>2021-08-07T13:04:16Z</time>
      </trkpt>
      <trkpt lat="47.90215" lon="-2.4688">
        <ele>24.4</ele>
        <time>2021-08-07T13:04:17Z</time>
      </trkpt>
      <trkpt lat="47.90219" lon="-2.46892">
        <ele>24.4</ele>
        <time>2021-08-07T13:04:19Z</time>
      </trkpt>
      <trkpt lat="47.9022" lon="-2.46899">
        <ele>24.4</ele>
        <time>2021-08-07T13:04:20Z</time>
      </trkpt>
      <trkpt lat="47.90222" lon="-2.46906">
        <ele>24.4</ele>
        <time>2021-08-07T13:04:21Z</time>
      </trkpt>
      <trkpt lat="47.90223" lon="-2.46913">
        <ele>24.4</ele>
        <time>2021-08-07T13:04:22Z</time>
      </trkpt>
      <trkpt lat="47.90225" lon="-2.46919">
        <ele>24.2</ele>
        <time>2021-08-07T13:04:23Z</time>
      </trkpt>
      <trkpt lat="47.90228" lon="-2.46924">
        <ele>24.2</ele>
        <time>2021-08-07T13:04:24Z</time>
      </trkpt>
      <trkpt lat="47.9023" lon="-2.4693">
        <ele>24.2</ele>
        <time>2021-08-07T13:04:25Z</time>
      </trkpt>
      <trkpt lat="47.90233" lon="-2.46935">
        <ele>24</ele>
        <time>2021-08-07T13:04:26Z</time>
      </trkpt>
      <trkpt lat="47.90236" lon="-2.4694">
        <ele>24</ele>
        <time>2021-08-07T13:04:27Z</time>
      </trkpt>
      <trkpt lat="47.90242" lon="-2.46951">
        <ele>23.8</ele>
        <time>2021-08-07T13:04:29Z</time>
      </trkpt>
      <trkpt lat="47.90245" lon="-2.46955">
        <ele>23.8</ele>
        <time>2021-08-07T13:04:30Z</time>
      </trkpt>
      <trkpt lat="47.90248" lon="-2.46959">
        <ele>23.6</ele>
        <time>2021-08-07T13:04:31Z</time>
      </trkpt>
      <trkpt lat="47.90251" lon="-2.46962">
        <ele>23.4</ele>
        <time>2021-08-07T13:04:32Z</time>
      </trkpt>
      <trkpt lat="47.90254" lon="-2.46964">
        <ele>23.2</ele>
        <time>2021-08-07T13:04:33Z</time>
      </trkpt>
      <trkpt lat="47.90257" lon="-2.46967">
        <ele>23.2</ele>
        <time>2021-08-07T13:04:34Z</time>
      </trkpt>
      <trkpt lat="47.90261" lon="-2.46969">
        <ele>23.2</ele>
        <time>2021-08-07T13:04:35Z</time>
      </trkpt>
      <trkpt lat="47.90265" lon="-2.4697">
        <ele>23</ele>
        <time>2021-08-07T13:04:36Z</time>
      </trkpt>
      <trkpt lat="47.90269" lon="-2.46972">
        <ele>23</ele>
        <time>2021-08-07T13:04:37Z</time>
      </trkpt>
      <trkpt lat="47.90276" lon="-2.46975">
        <ele>23</ele>
        <time>2021-08-07T13:04:39Z</time>
      </trkpt>
      <trkpt lat="47.9028" lon="-2.46977">
        <ele>23</ele>
        <time>2021-08-07T13:04:40Z</time>
      </trkpt>
      <trkpt lat="47.90284" lon="-2.46979">
        <ele>23</ele>
        <time>2021-08-07T13:04:41Z</time>
      </trkpt>
      <trkpt lat="47.90288" lon="-2.46981">
        <ele>23</ele>
        <time>2021-08-07T13:04:42Z</time>
      </trkpt>
      <trkpt lat="47.90291" lon="-2.46982">
        <ele>22.8</ele>
        <time>2021-08-07T13:04:43Z</time>
      </trkpt>
      <trkpt lat="47.90294" lon="-2.46984">
        <ele>22.8</ele>
        <time>2021-08-07T13:04:44Z</time>
      </trkpt>
      <trkpt lat="47.90296" lon="-2.46985">
        <ele>22.8</ele>
        <time>2021-08-07T13:04:45Z</time>
      </trkpt>
      <trkpt lat="47.90297" lon="-2.46986">
        <ele>22.8</ele>
        <time>2021-08-07T13:04:51Z</time>
      </trkpt>
      <trkpt lat="47.90297" lon="-2.46987">
        <ele>22.8</ele>
        <time>2021-08-07T13:04:52Z</time>
      </trkpt>
      <trkpt lat="47.90297" lon="-2.46987">
        <ele>23</ele>
        <time>2021-08-07T13:04:53Z</time>
      </trkpt>
      <trkpt lat="47.90297" lon="-2.46988">
        <ele>24</ele>
        <time>2021-08-07T13:04:54Z</time>
      </trkpt>
      <trkpt lat="47.90296" lon="-2.46988">
        <ele>24.2</ele>
        <time>2021-08-07T13:04:56Z</time>
      </trkpt>
      <trkpt lat="47.90297" lon="-2.46988">
        <ele>24.4</ele>
        <time>2021-08-07T13:04:58Z</time>
      </trkpt>
      <trkpt lat="47.90304" lon="-2.46993">
        <ele>23.4</ele>
        <time>2021-08-07T13:07:13Z</time>
      </trkpt>
      <trkpt lat="47.90306" lon="-2.46993">
        <ele>23.4</ele>
        <time>2021-08-07T13:07:14Z</time>
      </trkpt>
      <trkpt lat="47.90308" lon="-2.46994">
        <ele>23.2</ele>
        <time>2021-08-07T13:07:15Z</time>
      </trkpt>
      <trkpt lat="47.90316" lon="-2.46997">
        <ele>22.8</ele>
        <time>2021-08-07T13:07:17Z</time>
      </trkpt>
      <trkpt lat="47.90319" lon="-2.46998">
        <ele>22.8</ele>
        <time>2021-08-07T13:07:18Z</time>
      </trkpt>
      <trkpt lat="47.90323" lon="-2.46999">
        <ele>22.8</ele>
        <time>2021-08-07T13:07:19Z</time>
      </trkpt>
      <trkpt lat="47.90327" lon="-2.47">
        <ele>22.8</ele>
        <time>2021-08-07T13:07:20Z</time>
      </trkpt>
      <trkpt lat="47.90331" lon="-2.47002">
        <ele>22.8</ele>
        <time>2021-08-07T13:07:21Z</time>
      </trkpt>
      <trkpt lat="47.90335" lon="-2.47003">
        <ele>22.8</ele>
        <time>2021-08-07T13:07:22Z</time>
      </trkpt>
      <trkpt lat="47.90339" lon="-2.47005">
        <ele>22.8</ele>
        <time>2021-08-07T13:07:23Z</time>
      </trkpt>
      <trkpt lat="47.90347" lon="-2.47008">
        <ele>22.8</ele>
        <time>2021-08-07T13:07:25Z</time>
      </trkpt>
      <trkpt lat="47.9035" lon="-2.4701">
        <ele>22.8</ele>
        <time>2021-08-07T13:07:26Z</time>
      </trkpt>
      <trkpt lat="47.90354" lon="-2.47013">
        <ele>22.8</ele>
        <time>2021-08-07T13:07:27Z</time>
      </trkpt>
      <trkpt lat="47.90358" lon="-2.47016">
        <ele>22.8</ele>
        <time>2021-08-07T13:07:28Z</time>
      </trkpt>
      <trkpt lat="47.90362" lon="-2.47019">
        <ele>22.8</ele>
        <time>2021-08-07T13:07:29Z</time>
      </trkpt>
      <trkpt lat="47.90365" lon="-2.47022">
        <ele>22.8</ele>
        <time>2021-08-07T13:07:30Z</time>
      </trkpt>
      <trkpt lat="47.90369" lon="-2.47025">
        <ele>22.8</ele>
        <time>2021-08-07T13:07:31Z</time>
      </trkpt>
      <trkpt lat="47.90373" lon="-2.47029">
        <ele>22.8</ele>
        <time>2021-08-07T13:07:32Z</time>
      </trkpt>
      <trkpt lat="47.90377" lon="-2.47032">
        <ele>22.8</ele>
        <time>2021-08-07T13:07:33Z</time>
      </trkpt>
      <trkpt lat="47.90385" lon="-2.47039">
        <ele>22.8</ele>
        <time>2021-08-07T13:07:35Z</time>
      </trkpt>
      <trkpt lat="47.90389" lon="-2.47043">
        <ele>22.8</ele>
        <time>2021-08-07T13:07:36Z</time>
      </trkpt>
      <trkpt lat="47.90393" lon="-2.47047">
        <ele>22.8</ele>
        <time>2021-08-07T13:07:37Z</time>
      </trkpt>
      <trkpt lat="47.90397" lon="-2.47051">
        <ele>22.8</ele>
        <time>2021-08-07T13:07:38Z</time>
      </trkpt>
      <trkpt lat="47.90401" lon="-2.47055">
        <ele>22.8</ele>
        <time>2021-08-07T13:07:39Z</time>
      </trkpt>
      <trkpt lat="47.90404" lon="-2.47058">
        <ele>22.8</ele>
        <time>2021-08-07T13:07:40Z</time>
      </trkpt>
      <trkpt lat="47.90408" lon="-2.47062">
        <ele>22.8</ele>
        <time>2021-08-07T13:07:41Z</time>
      </trkpt>
      <trkpt lat="47.90411" lon="-2.47065">
        <ele>22.8</ele>
        <time>2021-08-07T13:07:42Z</time>
      </trkpt>
      <trkpt lat="47.90415" lon="-2.47068">
        <ele>22.8</ele>
        <time>2021-08-07T13:07:43Z</time>
      </trkpt>
      <trkpt lat="47.90421" lon="-2.47074">
        <ele>22.6</ele>
        <time>2021-08-07T13:07:45Z</time>
      </trkpt>
      <trkpt lat="47.90424" lon="-2.47077">
        <ele>22.6</ele>
        <time>2021-08-07T13:07:46Z</time>
      </trkpt>
      <trkpt lat="47.90428" lon="-2.4708">
        <ele>22.6</ele>
        <time>2021-08-07T13:07:47Z</time>
      </trkpt>
      <trkpt lat="47.90431" lon="-2.47084">
        <ele>22.6</ele>
        <time>2021-08-07T13:07:48Z</time>
      </trkpt>
      <trkpt lat="47.90434" lon="-2.47087">
        <ele>22.2</ele>
        <time>2021-08-07T13:07:49Z</time>
      </trkpt>
      <trkpt lat="47.90437" lon="-2.47089">
        <ele>22.2</ele>
        <time>2021-08-07T13:07:50Z</time>
      </trkpt>
      <trkpt lat="47.90439" lon="-2.47092">
        <ele>22.2</ele>
        <time>2021-08-07T13:07:51Z</time>
      </trkpt>
      <trkpt lat="47.90442" lon="-2.47095">
        <ele>22.2</ele>
        <time>2021-08-07T13:07:52Z</time>
      </trkpt>
      <trkpt lat="47.90446" lon="-2.47098">
        <ele>22.2</ele>
        <time>2021-08-07T13:07:53Z</time>
      </trkpt>
      <trkpt lat="47.90452" lon="-2.47104">
        <ele>22.2</ele>
        <time>2021-08-07T13:07:55Z</time>
      </trkpt>
      <trkpt lat="47.90455" lon="-2.47107">
        <ele>22.2</ele>
        <time>2021-08-07T13:07:56Z</time>
      </trkpt>
      <trkpt lat="47.90459" lon="-2.4711">
        <ele>22.2</ele>
        <time>2021-08-07T13:07:57Z</time>
      </trkpt>
      <trkpt lat="47.90462" lon="-2.47113">
        <ele>22.2</ele>
        <time>2021-08-07T13:07:58Z</time>
      </trkpt>
      <trkpt lat="47.90465" lon="-2.47116">
        <ele>22.4</ele>
        <time>2021-08-07T13:07:59Z</time>
      </trkpt>
      <trkpt lat="47.90468" lon="-2.4712">
        <ele>22.4</ele>
        <time>2021-08-07T13:08:00Z</time>
      </trkpt>
      <trkpt lat="47.90472" lon="-2.47123">
        <ele>22.6</ele>
        <time>2021-08-07T13:08:01Z</time>
      </trkpt>
      <trkpt lat="47.90475" lon="-2.47126">
        <ele>22.8</ele>
        <time>2021-08-07T13:08:02Z</time>
      </trkpt>
      <trkpt lat="47.90482" lon="-2.47133">
        <ele>22.8</ele>
        <time>2021-08-07T13:08:04Z</time>
      </trkpt>
      <trkpt lat="47.90485" lon="-2.47137">
        <ele>23</ele>
        <time>2021-08-07T13:08:05Z</time>
      </trkpt>
      <trkpt lat="47.90488" lon="-2.47141">
        <ele>23</ele>
        <time>2021-08-07T13:08:06Z</time>
      </trkpt>
      <trkpt lat="47.90491" lon="-2.47144">
        <ele>23.2</ele>
        <time>2021-08-07T13:08:07Z</time>
      </trkpt>
      <trkpt lat="47.90494" lon="-2.47148">
        <ele>23.4</ele>
        <time>2021-08-07T13:08:08Z</time>
      </trkpt>
      <trkpt lat="47.90497" lon="-2.47152">
        <ele>23.6</ele>
        <time>2021-08-07T13:08:09Z</time>
      </trkpt>
      <trkpt lat="47.905" lon="-2.47156">
        <ele>23.6</ele>
        <time>2021-08-07T13:08:10Z</time>
      </trkpt>
      <trkpt lat="47.90503" lon="-2.47161">
        <ele>23.6</ele>
        <time>2021-08-07T13:08:11Z</time>
      </trkpt>
      <trkpt lat="47.90505" lon="-2.47166">
        <ele>23.6</ele>
        <time>2021-08-07T13:08:12Z</time>
      </trkpt>
      <trkpt lat="47.90509" lon="-2.47177">
        <ele>23.6</ele>
        <time>2021-08-07T13:08:14Z</time>
      </trkpt>
      <trkpt lat="47.90511" lon="-2.47184">
        <ele>23.6</ele>
        <time>2021-08-07T13:08:15Z</time>
      </trkpt>
      <trkpt lat="47.90513" lon="-2.47189">
        <ele>23.6</ele>
        <time>2021-08-07T13:08:16Z</time>
      </trkpt>
      <trkpt lat="47.90515" lon="-2.47195">
        <ele>23.6</ele>
        <time>2021-08-07T13:08:17Z</time>
      </trkpt>
      <trkpt lat="47.90517" lon="-2.47201">
        <ele>23.6</ele>
        <time>2021-08-07T13:08:18Z</time>
      </trkpt>
      <trkpt lat="47.90518" lon="-2.47207">
        <ele>23.6</ele>
        <time>2021-08-07T13:08:19Z</time>
      </trkpt>
      <trkpt lat="47.90519" lon="-2.47213">
        <ele>23.4</ele>
        <time>2021-08-07T13:08:20Z</time>
      </trkpt>
      <trkpt lat="47.90521" lon="-2.47219">
        <ele>23.4</ele>
        <time>2021-08-07T13:08:21Z</time>
      </trkpt>
      <trkpt lat="47.90522" lon="-2.47225">
        <ele>23.4</ele>
        <time>2021-08-07T13:08:22Z</time>
      </trkpt>
      <trkpt lat="47.90525" lon="-2.47238">
        <ele>23.4</ele>
        <time>2021-08-07T13:08:24Z</time>
      </trkpt>
      <trkpt lat="47.90526" lon="-2.47244">
        <ele>23.4</ele>
        <time>2021-08-07T13:08:25Z</time>
      </trkpt>
      <trkpt lat="47.90527" lon="-2.47251">
        <ele>23.4</ele>
        <time>2021-08-07T13:08:26Z</time>
      </trkpt>
      <trkpt lat="47.90529" lon="-2.47257">
        <ele>23.4</ele>
        <time>2021-08-07T13:08:27Z</time>
      </trkpt>
      <trkpt lat="47.9053" lon="-2.47263">
        <ele>23.4</ele>
        <time>2021-08-07T13:08:28Z</time>
      </trkpt>
      <trkpt lat="47.90532" lon="-2.4727">
        <ele>23.6</ele>
        <time>2021-08-07T13:08:29Z</time>
      </trkpt>
      <trkpt lat="47.90534" lon="-2.47277">
        <ele>23.6</ele>
        <time>2021-08-07T13:08:30Z</time>
      </trkpt>
      <trkpt lat="47.90535" lon="-2.47283">
        <ele>23.6</ele>
        <time>2021-08-07T13:08:31Z</time>
      </trkpt>
      <trkpt lat="47.90538" lon="-2.47289">
        <ele>23.6</ele>
        <time>2021-08-07T13:08:32Z</time>
      </trkpt>
      <trkpt lat="47.9054" lon="-2.47295">
        <ele>23.8</ele>
        <time>2021-08-07T13:08:33Z</time>
      </trkpt>
      <trkpt lat="47.90543" lon="-2.473">
        <ele>23.8</ele>
        <time>2021-08-07T13:08:34Z</time>
      </trkpt>
      <trkpt lat="47.90545" lon="-2.47305">
        <ele>23.8</ele>
        <time>2021-08-07T13:08:35Z</time>
      </trkpt>
      <trkpt lat="47.90548" lon="-2.4731">
        <ele>23.8</ele>
        <time>2021-08-07T13:08:36Z</time>
      </trkpt>
      <trkpt lat="47.90551" lon="-2.47315">
        <ele>23.8</ele>
        <time>2021-08-07T13:08:37Z</time>
      </trkpt>
      <trkpt lat="47.90555" lon="-2.47318">
        <ele>23.8</ele>
        <time>2021-08-07T13:08:38Z</time>
      </trkpt>
      <trkpt lat="47.90559" lon="-2.47323">
        <ele>23.8</ele>
        <time>2021-08-07T13:08:39Z</time>
      </trkpt>
      <trkpt lat="47.90562" lon="-2.47326">
        <ele>23.6</ele>
        <time>2021-08-07T13:08:40Z</time>
      </trkpt>
      <trkpt lat="47.90566" lon="-2.4733">
        <ele>23.4</ele>
        <time>2021-08-07T13:08:41Z</time>
      </trkpt>
      <trkpt lat="47.90569" lon="-2.47333">
        <ele>23.4</ele>
        <time>2021-08-07T13:08:42Z</time>
      </trkpt>
      <trkpt lat="47.90573" lon="-2.47336">
        <ele>23.4</ele>
        <time>2021-08-07T13:08:43Z</time>
      </trkpt>
      <trkpt lat="47.90577" lon="-2.47341">
        <ele>23.4</ele>
        <time>2021-08-07T13:08:44Z</time>
      </trkpt>
      <trkpt lat="47.9058" lon="-2.47345">
        <ele>23.4</ele>
        <time>2021-08-07T13:08:45Z</time>
      </trkpt>
      <trkpt lat="47.90584" lon="-2.47348">
        <ele>23.4</ele>
        <time>2021-08-07T13:08:46Z</time>
      </trkpt>
      <trkpt lat="47.90588" lon="-2.47353">
        <ele>23.4</ele>
        <time>2021-08-07T13:08:47Z</time>
      </trkpt>
      <trkpt lat="47.90592" lon="-2.47357">
        <ele>23.4</ele>
        <time>2021-08-07T13:08:48Z</time>
      </trkpt>
      <trkpt lat="47.90596" lon="-2.47361">
        <ele>23.4</ele>
        <time>2021-08-07T13:08:49Z</time>
      </trkpt>
      <trkpt lat="47.906" lon="-2.47366">
        <ele>23.2</ele>
        <time>2021-08-07T13:08:50Z</time>
      </trkpt>
      <trkpt lat="47.90605" lon="-2.4737">
        <ele>23.2</ele>
        <time>2021-08-07T13:08:51Z</time>
      </trkpt>
      <trkpt lat="47.90609" lon="-2.47373">
        <ele>23.2</ele>
        <time>2021-08-07T13:08:52Z</time>
      </trkpt>
      <trkpt lat="47.90613" lon="-2.47377">
        <ele>23.4</ele>
        <time>2021-08-07T13:08:53Z</time>
      </trkpt>
      <trkpt lat="47.90617" lon="-2.47381">
        <ele>23.4</ele>
        <time>2021-08-07T13:08:54Z</time>
      </trkpt>
      <trkpt lat="47.9062" lon="-2.47385">
        <ele>23.4</ele>
        <time>2021-08-07T13:08:55Z</time>
      </trkpt>
      <trkpt lat="47.90624" lon="-2.47389">
        <ele>23.4</ele>
        <time>2021-08-07T13:08:56Z</time>
      </trkpt>
      <trkpt lat="47.90628" lon="-2.47393">
        <ele>23.4</ele>
        <time>2021-08-07T13:08:57Z</time>
      </trkpt>
      <trkpt lat="47.90631" lon="-2.47397">
        <ele>23.4</ele>
        <time>2021-08-07T13:08:58Z</time>
      </trkpt>
      <trkpt lat="47.90635" lon="-2.47401">
        <ele>23.4</ele>
        <time>2021-08-07T13:08:59Z</time>
      </trkpt>
      <trkpt lat="47.90638" lon="-2.47405">
        <ele>23.4</ele>
        <time>2021-08-07T13:09:00Z</time>
      </trkpt>
      <trkpt lat="47.90642" lon="-2.47408">
        <ele>23.4</ele>
        <time>2021-08-07T13:09:01Z</time>
      </trkpt>
      <trkpt lat="47.90645" lon="-2.47411">
        <ele>23.4</ele>
        <time>2021-08-07T13:09:02Z</time>
      </trkpt>
      <trkpt lat="47.90651" lon="-2.47418">
        <ele>23.4</ele>
        <time>2021-08-07T13:09:04Z</time>
      </trkpt>
      <trkpt lat="47.90654" lon="-2.47421">
        <ele>23.4</ele>
        <time>2021-08-07T13:09:05Z</time>
      </trkpt>
      <trkpt lat="47.90657" lon="-2.47424">
        <ele>23.4</ele>
        <time>2021-08-07T13:09:06Z</time>
      </trkpt>
      <trkpt lat="47.9066" lon="-2.47428">
        <ele>23.4</ele>
        <time>2021-08-07T13:09:07Z</time>
      </trkpt>
      <trkpt lat="47.90663" lon="-2.47431">
        <ele>23.4</ele>
        <time>2021-08-07T13:09:08Z</time>
      </trkpt>
      <trkpt lat="47.90666" lon="-2.47434">
        <ele>23.4</ele>
        <time>2021-08-07T13:09:09Z</time>
      </trkpt>
      <trkpt lat="47.9067" lon="-2.47437">
        <ele>23.4</ele>
        <time>2021-08-07T13:09:10Z</time>
      </trkpt>
      <trkpt lat="47.90673" lon="-2.47441">
        <ele>23.4</ele>
        <time>2021-08-07T13:09:11Z</time>
      </trkpt>
      <trkpt lat="47.90676" lon="-2.47444">
        <ele>23.4</ele>
        <time>2021-08-07T13:09:12Z</time>
      </trkpt>
      <trkpt lat="47.90679" lon="-2.47447">
        <ele>23.4</ele>
        <time>2021-08-07T13:09:13Z</time>
      </trkpt>
      <trkpt lat="47.90686" lon="-2.47454">
        <ele>23.4</ele>
        <time>2021-08-07T13:09:15Z</time>
      </trkpt>
      <trkpt lat="47.9069" lon="-2.47458">
        <ele>23.4</ele>
        <time>2021-08-07T13:09:16Z</time>
      </trkpt>
      <trkpt lat="47.90694" lon="-2.47462">
        <ele>23.4</ele>
        <time>2021-08-07T13:09:17Z</time>
      </trkpt>
      <trkpt lat="47.90697" lon="-2.47466">
        <ele>23.4</ele>
        <time>2021-08-07T13:09:18Z</time>
      </trkpt>
      <trkpt lat="47.90701" lon="-2.4747">
        <ele>23.4</ele>
        <time>2021-08-07T13:09:19Z</time>
      </trkpt>
      <trkpt lat="47.90705" lon="-2.47473">
        <ele>23.4</ele>
        <time>2021-08-07T13:09:20Z</time>
      </trkpt>
      <trkpt lat="47.90709" lon="-2.47478">
        <ele>23.4</ele>
        <time>2021-08-07T13:09:21Z</time>
      </trkpt>
      <trkpt lat="47.90713" lon="-2.47482">
        <ele>23.4</ele>
        <time>2021-08-07T13:09:22Z</time>
      </trkpt>
      <trkpt lat="47.90717" lon="-2.47486">
        <ele>23.4</ele>
        <time>2021-08-07T13:09:23Z</time>
      </trkpt>
      <trkpt lat="47.90724" lon="-2.47493">
        <ele>23.2</ele>
        <time>2021-08-07T13:09:25Z</time>
      </trkpt>
      <trkpt lat="47.90728" lon="-2.47496">
        <ele>23.2</ele>
        <time>2021-08-07T13:09:26Z</time>
      </trkpt>
      <trkpt lat="47.90732" lon="-2.475">
        <ele>23.2</ele>
        <time>2021-08-07T13:09:27Z</time>
      </trkpt>
      <trkpt lat="47.90735" lon="-2.47504">
        <ele>23</ele>
        <time>2021-08-07T13:09:28Z</time>
      </trkpt>
      <trkpt lat="47.90739" lon="-2.47508">
        <ele>22.8</ele>
        <time>2021-08-07T13:09:29Z</time>
      </trkpt>
      <trkpt lat="47.90742" lon="-2.47511">
        <ele>22.8</ele>
        <time>2021-08-07T13:09:30Z</time>
      </trkpt>
      <trkpt lat="47.90746" lon="-2.47515">
        <ele>22.8</ele>
        <time>2021-08-07T13:09:31Z</time>
      </trkpt>
      <trkpt lat="47.90749" lon="-2.47519">
        <ele>22.8</ele>
        <time>2021-08-07T13:09:32Z</time>
      </trkpt>
      <trkpt lat="47.90753" lon="-2.47523">
        <ele>22.8</ele>
        <time>2021-08-07T13:09:33Z</time>
      </trkpt>
      <trkpt lat="47.9076" lon="-2.47531">
        <ele>22.8</ele>
        <time>2021-08-07T13:09:35Z</time>
      </trkpt>
      <trkpt lat="47.90763" lon="-2.47535">
        <ele>22.8</ele>
        <time>2021-08-07T13:09:36Z</time>
      </trkpt>
      <trkpt lat="47.90766" lon="-2.4754">
        <ele>23</ele>
        <time>2021-08-07T13:09:37Z</time>
      </trkpt>
      <trkpt lat="47.90769" lon="-2.47545">
        <ele>23</ele>
        <time>2021-08-07T13:09:38Z</time>
      </trkpt>
      <trkpt lat="47.90773" lon="-2.47551">
        <ele>23.2</ele>
        <time>2021-08-07T13:09:39Z</time>
      </trkpt>
      <trkpt lat="47.90775" lon="-2.47559">
        <ele>23.2</ele>
        <time>2021-08-07T13:09:40Z</time>
      </trkpt>
      <trkpt lat="47.90778" lon="-2.47566">
        <ele>23.4</ele>
        <time>2021-08-07T13:09:41Z</time>
      </trkpt>
      <trkpt lat="47.90779" lon="-2.47575">
        <ele>23.4</ele>
        <time>2021-08-07T13:09:42Z</time>
      </trkpt>
      <trkpt lat="47.90781" lon="-2.47584">
        <ele>23.4</ele>
        <time>2021-08-07T13:09:43Z</time>
      </trkpt>
      <trkpt lat="47.90781" lon="-2.47594">
        <ele>23.4</ele>
        <time>2021-08-07T13:09:44Z</time>
      </trkpt>
      <trkpt lat="47.90781" lon="-2.47604">
        <ele>23.4</ele>
        <time>2021-08-07T13:09:45Z</time>
      </trkpt>
      <trkpt lat="47.90781" lon="-2.47613">
        <ele>23.6</ele>
        <time>2021-08-07T13:09:46Z</time>
      </trkpt>
      <trkpt lat="47.9078" lon="-2.47623">
        <ele>23.6</ele>
        <time>2021-08-07T13:09:47Z</time>
      </trkpt>
      <trkpt lat="47.90779" lon="-2.47632">
        <ele>23.6</ele>
        <time>2021-08-07T13:09:48Z</time>
      </trkpt>
      <trkpt lat="47.90778" lon="-2.47641">
        <ele>23.6</ele>
        <time>2021-08-07T13:09:49Z</time>
      </trkpt>
      <trkpt lat="47.90777" lon="-2.47649">
        <ele>23.6</ele>
        <time>2021-08-07T13:09:50Z</time>
      </trkpt>
      <trkpt lat="47.90777" lon="-2.47658">
        <ele>23.6</ele>
        <time>2021-08-07T13:09:51Z</time>
      </trkpt>
      <trkpt lat="47.90776" lon="-2.47666">
        <ele>23.6</ele>
        <time>2021-08-07T13:09:52Z</time>
      </trkpt>
      <trkpt lat="47.90775" lon="-2.47674">
        <ele>23.6</ele>
        <time>2021-08-07T13:09:53Z</time>
      </trkpt>
      <trkpt lat="47.90773" lon="-2.47692">
        <ele>23.6</ele>
        <time>2021-08-07T13:09:55Z</time>
      </trkpt>
      <trkpt lat="47.90773" lon="-2.477">
        <ele>23.6</ele>
        <time>2021-08-07T13:09:56Z</time>
      </trkpt>
      <trkpt lat="47.90773" lon="-2.47709">
        <ele>23.6</ele>
        <time>2021-08-07T13:09:57Z</time>
      </trkpt>
      <trkpt lat="47.90773" lon="-2.47717">
        <ele>23.6</ele>
        <time>2021-08-07T13:09:58Z</time>
      </trkpt>
      <trkpt lat="47.90774" lon="-2.47725">
        <ele>23.6</ele>
        <time>2021-08-07T13:09:59Z</time>
      </trkpt>
      <trkpt lat="47.90775" lon="-2.47733">
        <ele>23.6</ele>
        <time>2021-08-07T13:10:00Z</time>
      </trkpt>
      <trkpt lat="47.90777" lon="-2.4774">
        <ele>23.6</ele>
        <time>2021-08-07T13:10:01Z</time>
      </trkpt>
      <trkpt lat="47.9078" lon="-2.47747">
        <ele>23.6</ele>
        <time>2021-08-07T13:10:02Z</time>
      </trkpt>
      <trkpt lat="47.90783" lon="-2.47753">
        <ele>23.6</ele>
        <time>2021-08-07T13:10:03Z</time>
      </trkpt>
      <trkpt lat="47.90786" lon="-2.47758">
        <ele>23.6</ele>
        <time>2021-08-07T13:10:04Z</time>
      </trkpt>
      <trkpt lat="47.90789" lon="-2.47764">
        <ele>23.6</ele>
        <time>2021-08-07T13:10:05Z</time>
      </trkpt>
      <trkpt lat="47.90792" lon="-2.47769">
        <ele>23.6</ele>
        <time>2021-08-07T13:10:06Z</time>
      </trkpt>
      <trkpt lat="47.90795" lon="-2.47774">
        <ele>23.6</ele>
        <time>2021-08-07T13:10:07Z</time>
      </trkpt>
      <trkpt lat="47.90799" lon="-2.47779">
        <ele>23.6</ele>
        <time>2021-08-07T13:10:08Z</time>
      </trkpt>
      <trkpt lat="47.90801" lon="-2.47784">
        <ele>23.6</ele>
        <time>2021-08-07T13:10:09Z</time>
      </trkpt>
      <trkpt lat="47.90804" lon="-2.47788">
        <ele>23.8</ele>
        <time>2021-08-07T13:10:10Z</time>
      </trkpt>
      <trkpt lat="47.90808" lon="-2.47792">
        <ele>23.8</ele>
        <time>2021-08-07T13:10:11Z</time>
      </trkpt>
      <trkpt lat="47.90811" lon="-2.47796">
        <ele>23.8</ele>
        <time>2021-08-07T13:10:12Z</time>
      </trkpt>
      <trkpt lat="47.90814" lon="-2.47801">
        <ele>23.6</ele>
        <time>2021-08-07T13:10:13Z</time>
      </trkpt>
      <trkpt lat="47.90821" lon="-2.4781">
        <ele>23.6</ele>
        <time>2021-08-07T13:10:15Z</time>
      </trkpt>
      <trkpt lat="47.90825" lon="-2.47815">
        <ele>23.6</ele>
        <time>2021-08-07T13:10:16Z</time>
      </trkpt>
      <trkpt lat="47.90828" lon="-2.47819">
        <ele>23.6</ele>
        <time>2021-08-07T13:10:17Z</time>
      </trkpt>
      <trkpt lat="47.90831" lon="-2.47823">
        <ele>23.8</ele>
        <time>2021-08-07T13:10:18Z</time>
      </trkpt>
      <trkpt lat="47.90834" lon="-2.47827">
        <ele>23.8</ele>
        <time>2021-08-07T13:10:19Z</time>
      </trkpt>
      <trkpt lat="47.90837" lon="-2.47832">
        <ele>23.8</ele>
        <time>2021-08-07T13:10:20Z</time>
      </trkpt>
      <trkpt lat="47.9084" lon="-2.47836">
        <ele>23.8</ele>
        <time>2021-08-07T13:10:21Z</time>
      </trkpt>
      <trkpt lat="47.90843" lon="-2.47841">
        <ele>23.8</ele>
        <time>2021-08-07T13:10:22Z</time>
      </trkpt>
      <trkpt lat="47.90847" lon="-2.47846">
        <ele>24</ele>
        <time>2021-08-07T13:10:23Z</time>
      </trkpt>
      <trkpt lat="47.9085" lon="-2.47851">
        <ele>24</ele>
        <time>2021-08-07T13:10:24Z</time>
      </trkpt>
      <trkpt lat="47.90854" lon="-2.47856">
        <ele>24</ele>
        <time>2021-08-07T13:10:25Z</time>
      </trkpt>
      <trkpt lat="47.90857" lon="-2.4786">
        <ele>24</ele>
        <time>2021-08-07T13:10:26Z</time>
      </trkpt>
      <trkpt lat="47.9086" lon="-2.47865">
        <ele>24.2</ele>
        <time>2021-08-07T13:10:27Z</time>
      </trkpt>
      <trkpt lat="47.90864" lon="-2.47869">
        <ele>24.2</ele>
        <time>2021-08-07T13:10:28Z</time>
      </trkpt>
      <trkpt lat="47.90867" lon="-2.47873">
        <ele>24.4</ele>
        <time>2021-08-07T13:10:29Z</time>
      </trkpt>
      <trkpt lat="47.9087" lon="-2.47878">
        <ele>24.4</ele>
        <time>2021-08-07T13:10:30Z</time>
      </trkpt>
      <trkpt lat="47.90873" lon="-2.47883">
        <ele>24.4</ele>
        <time>2021-08-07T13:10:31Z</time>
      </trkpt>
      <trkpt lat="47.90876" lon="-2.47888">
        <ele>24.4</ele>
        <time>2021-08-07T13:10:32Z</time>
      </trkpt>
      <trkpt lat="47.90879" lon="-2.47894">
        <ele>24.4</ele>
        <time>2021-08-07T13:10:33Z</time>
      </trkpt>
      <trkpt lat="47.90882" lon="-2.479">
        <ele>24.4</ele>
        <time>2021-08-07T13:10:34Z</time>
      </trkpt>
      <trkpt lat="47.90889" lon="-2.47912">
        <ele>24.4</ele>
        <time>2021-08-07T13:10:36Z</time>
      </trkpt>
      <trkpt lat="47.90892" lon="-2.47917">
        <ele>24.4</ele>
        <time>2021-08-07T13:10:37Z</time>
      </trkpt>
      <trkpt lat="47.90895" lon="-2.47923">
        <ele>24.4</ele>
        <time>2021-08-07T13:10:38Z</time>
      </trkpt>
      <trkpt lat="47.90898" lon="-2.47928">
        <ele>24.4</ele>
        <time>2021-08-07T13:10:39Z</time>
      </trkpt>
      <trkpt lat="47.90901" lon="-2.47934">
        <ele>24.4</ele>
        <time>2021-08-07T13:10:40Z</time>
      </trkpt>
      <trkpt lat="47.90904" lon="-2.4794">
        <ele>24.4</ele>
        <time>2021-08-07T13:10:41Z</time>
      </trkpt>
      <trkpt lat="47.90906" lon="-2.47948">
        <ele>24.4</ele>
        <time>2021-08-07T13:10:42Z</time>
      </trkpt>
      <trkpt lat="47.90909" lon="-2.47954">
        <ele>24.4</ele>
        <time>2021-08-07T13:10:43Z</time>
      </trkpt>
      <trkpt lat="47.90912" lon="-2.47961">
        <ele>24.4</ele>
        <time>2021-08-07T13:10:44Z</time>
      </trkpt>
      <trkpt lat="47.90914" lon="-2.47968">
        <ele>24.4</ele>
        <time>2021-08-07T13:10:45Z</time>
      </trkpt>
      <trkpt lat="47.90916" lon="-2.47975">
        <ele>24.4</ele>
        <time>2021-08-07T13:10:46Z</time>
      </trkpt>
      <trkpt lat="47.90919" lon="-2.47981">
        <ele>24.4</ele>
        <time>2021-08-07T13:10:47Z</time>
      </trkpt>
      <trkpt lat="47.90921" lon="-2.47988">
        <ele>24.2</ele>
        <time>2021-08-07T13:10:48Z</time>
      </trkpt>
      <trkpt lat="47.90924" lon="-2.47994">
        <ele>24.2</ele>
        <time>2021-08-07T13:10:49Z</time>
      </trkpt>
      <trkpt lat="47.90926" lon="-2.48">
        <ele>24.2</ele>
        <time>2021-08-07T13:10:50Z</time>
      </trkpt>
      <trkpt lat="47.90929" lon="-2.48006">
        <ele>24.2</ele>
        <time>2021-08-07T13:10:51Z</time>
      </trkpt>
      <trkpt lat="47.90931" lon="-2.48012">
        <ele>24.2</ele>
        <time>2021-08-07T13:10:52Z</time>
      </trkpt>
      <trkpt lat="47.90934" lon="-2.48018">
        <ele>24.2</ele>
        <time>2021-08-07T13:10:53Z</time>
      </trkpt>
      <trkpt lat="47.90939" lon="-2.48029">
        <ele>24.2</ele>
        <time>2021-08-07T13:10:55Z</time>
      </trkpt>
      <trkpt lat="47.90941" lon="-2.48035">
        <ele>24.2</ele>
        <time>2021-08-07T13:10:56Z</time>
      </trkpt>
      <trkpt lat="47.90943" lon="-2.4804">
        <ele>24.2</ele>
        <time>2021-08-07T13:10:57Z</time>
      </trkpt>
      <trkpt lat="47.90946" lon="-2.48046">
        <ele>24.2</ele>
        <time>2021-08-07T13:10:58Z</time>
      </trkpt>
      <trkpt lat="47.90948" lon="-2.48053">
        <ele>24.2</ele>
        <time>2021-08-07T13:10:59Z</time>
      </trkpt>
      <trkpt lat="47.9095" lon="-2.48058">
        <ele>24</ele>
        <time>2021-08-07T13:11:00Z</time>
      </trkpt>
      <trkpt lat="47.90953" lon="-2.48064">
        <ele>24</ele>
        <time>2021-08-07T13:11:01Z</time>
      </trkpt>
      <trkpt lat="47.90955" lon="-2.4807">
        <ele>24.2</ele>
        <time>2021-08-07T13:11:02Z</time>
      </trkpt>
      <trkpt lat="47.90958" lon="-2.48075">
        <ele>24.2</ele>
        <time>2021-08-07T13:11:03Z</time>
      </trkpt>
      <trkpt lat="47.9096" lon="-2.48081">
        <ele>24.2</ele>
        <time>2021-08-07T13:11:04Z</time>
      </trkpt>
      <trkpt lat="47.90963" lon="-2.48086">
        <ele>24</ele>
        <time>2021-08-07T13:11:05Z</time>
      </trkpt>
      <trkpt lat="47.90965" lon="-2.48092">
        <ele>24</ele>
        <time>2021-08-07T13:11:06Z</time>
      </trkpt>
      <trkpt lat="47.90967" lon="-2.48097">
        <ele>24</ele>
        <time>2021-08-07T13:11:07Z</time>
      </trkpt>
      <trkpt lat="47.9097" lon="-2.48103">
        <ele>24.2</ele>
        <time>2021-08-07T13:11:08Z</time>
      </trkpt>
      <trkpt lat="47.90973" lon="-2.48108">
        <ele>24.2</ele>
        <time>2021-08-07T13:11:09Z</time>
      </trkpt>
      <trkpt lat="47.90976" lon="-2.48113">
        <ele>24.2</ele>
        <time>2021-08-07T13:11:10Z</time>
      </trkpt>
      <trkpt lat="47.9098" lon="-2.48118">
        <ele>24.2</ele>
        <time>2021-08-07T13:11:11Z</time>
      </trkpt>
      <trkpt lat="47.90987" lon="-2.48126">
        <ele>24.2</ele>
        <time>2021-08-07T13:11:13Z</time>
      </trkpt>
      <trkpt lat="47.90991" lon="-2.48129">
        <ele>24.2</ele>
        <time>2021-08-07T13:11:14Z</time>
      </trkpt>
      <trkpt lat="47.90995" lon="-2.48131">
        <ele>24</ele>
        <time>2021-08-07T13:11:15Z</time>
      </trkpt>
      <trkpt lat="47.90999" lon="-2.48133">
        <ele>24</ele>
        <time>2021-08-07T13:11:16Z</time>
      </trkpt>
      <trkpt lat="47.91003" lon="-2.48134">
        <ele>23.8</ele>
        <time>2021-08-07T13:11:17Z</time>
      </trkpt>
      <trkpt lat="47.91007" lon="-2.48135">
        <ele>23.8</ele>
        <time>2021-08-07T13:11:18Z</time>
      </trkpt>
      <trkpt lat="47.91011" lon="-2.48136">
        <ele>23.6</ele>
        <time>2021-08-07T13:11:19Z</time>
      </trkpt>
      <trkpt lat="47.91015" lon="-2.48137">
        <ele>23.6</ele>
        <time>2021-08-07T13:11:20Z</time>
      </trkpt>
      <trkpt lat="47.91022" lon="-2.48139">
        <ele>23.2</ele>
        <time>2021-08-07T13:11:22Z</time>
      </trkpt>
      <trkpt lat="47.91026" lon="-2.48139">
        <ele>23.2</ele>
        <time>2021-08-07T13:11:23Z</time>
      </trkpt>
      <trkpt lat="47.9103" lon="-2.48139">
        <ele>23.2</ele>
        <time>2021-08-07T13:11:24Z</time>
      </trkpt>
      <trkpt lat="47.91034" lon="-2.4814">
        <ele>23.2</ele>
        <time>2021-08-07T13:11:25Z</time>
      </trkpt>
      <trkpt lat="47.91039" lon="-2.4814">
        <ele>23.2</ele>
        <time>2021-08-07T13:11:26Z</time>
      </trkpt>
      <trkpt lat="47.91042" lon="-2.48141">
        <ele>23.2</ele>
        <time>2021-08-07T13:11:27Z</time>
      </trkpt>
      <trkpt lat="47.91046" lon="-2.48142">
        <ele>23.2</ele>
        <time>2021-08-07T13:11:28Z</time>
      </trkpt>
      <trkpt lat="47.9105" lon="-2.48142">
        <ele>23.2</ele>
        <time>2021-08-07T13:11:29Z</time>
      </trkpt>
      <trkpt lat="47.91058" lon="-2.48143">
        <ele>23.4</ele>
        <time>2021-08-07T13:11:31Z</time>
      </trkpt>
      <trkpt lat="47.91062" lon="-2.48143">
        <ele>23.6</ele>
        <time>2021-08-07T13:11:32Z</time>
      </trkpt>
      <trkpt lat="47.91067" lon="-2.48144">
        <ele>24</ele>
        <time>2021-08-07T13:11:33Z</time>
      </trkpt>
      <trkpt lat="47.91071" lon="-2.48144">
        <ele>24</ele>
        <time>2021-08-07T13:11:34Z</time>
      </trkpt>
      <trkpt lat="47.91075" lon="-2.48144">
        <ele>24.2</ele>
        <time>2021-08-07T13:11:35Z</time>
      </trkpt>
      <trkpt lat="47.9108" lon="-2.48144">
        <ele>24.4</ele>
        <time>2021-08-07T13:11:36Z</time>
      </trkpt>
      <trkpt lat="47.91084" lon="-2.48144">
        <ele>24.6</ele>
        <time>2021-08-07T13:11:37Z</time>
      </trkpt>
      <trkpt lat="47.91088" lon="-2.48144">
        <ele>24.8</ele>
        <time>2021-08-07T13:11:38Z</time>
      </trkpt>
      <trkpt lat="47.91096" lon="-2.48144">
        <ele>24.8</ele>
        <time>2021-08-07T13:11:40Z</time>
      </trkpt>
      <trkpt lat="47.91101" lon="-2.48143">
        <ele>24.8</ele>
        <time>2021-08-07T13:11:41Z</time>
      </trkpt>
      <trkpt lat="47.91105" lon="-2.48143">
        <ele>25</ele>
        <time>2021-08-07T13:11:42Z</time>
      </trkpt>
      <trkpt lat="47.91109" lon="-2.48143">
        <ele>25</ele>
        <time>2021-08-07T13:11:43Z</time>
      </trkpt>
      <trkpt lat="47.91112" lon="-2.48144">
        <ele>25</ele>
        <time>2021-08-07T13:11:44Z</time>
      </trkpt>
      <trkpt lat="47.91116" lon="-2.48144">
        <ele>25</ele>
        <time>2021-08-07T13:11:45Z</time>
      </trkpt>
      <trkpt lat="47.9112" lon="-2.48143">
        <ele>25</ele>
        <time>2021-08-07T13:11:46Z</time>
      </trkpt>
      <trkpt lat="47.91124" lon="-2.48142">
        <ele>25</ele>
        <time>2021-08-07T13:11:47Z</time>
      </trkpt>
      <trkpt lat="47.91129" lon="-2.48141">
        <ele>25</ele>
        <time>2021-08-07T13:11:48Z</time>
      </trkpt>
      <trkpt lat="47.91132" lon="-2.48141">
        <ele>25</ele>
        <time>2021-08-07T13:11:49Z</time>
      </trkpt>
      <trkpt lat="47.91136" lon="-2.4814">
        <ele>25</ele>
        <time>2021-08-07T13:11:50Z</time>
      </trkpt>
      <trkpt lat="47.9114" lon="-2.48139">
        <ele>25</ele>
        <time>2021-08-07T13:11:51Z</time>
      </trkpt>
      <trkpt lat="47.91144" lon="-2.48139">
        <ele>25</ele>
        <time>2021-08-07T13:11:52Z</time>
      </trkpt>
      <trkpt lat="47.91148" lon="-2.48139">
        <ele>24.8</ele>
        <time>2021-08-07T13:11:53Z</time>
      </trkpt>
      <trkpt lat="47.91152" lon="-2.48139">
        <ele>24.8</ele>
        <time>2021-08-07T13:11:54Z</time>
      </trkpt>
      <trkpt lat="47.91157" lon="-2.48139">
        <ele>24.8</ele>
        <time>2021-08-07T13:11:55Z</time>
      </trkpt>
      <trkpt lat="47.91161" lon="-2.48139">
        <ele>24.6</ele>
        <time>2021-08-07T13:11:56Z</time>
      </trkpt>
      <trkpt lat="47.91169" lon="-2.4814">
        <ele>24.2</ele>
        <time>2021-08-07T13:11:58Z</time>
      </trkpt>
      <trkpt lat="47.91173" lon="-2.4814">
        <ele>24</ele>
        <time>2021-08-07T13:11:59Z</time>
      </trkpt>
      <trkpt lat="47.91177" lon="-2.48139">
        <ele>24</ele>
        <time>2021-08-07T13:12:00Z</time>
      </trkpt>
      <trkpt lat="47.91181" lon="-2.48139">
        <ele>24</ele>
        <time>2021-08-07T13:12:01Z</time>
      </trkpt>
      <trkpt lat="47.91185" lon="-2.4814">
        <ele>24</ele>
        <time>2021-08-07T13:12:02Z</time>
      </trkpt>
      <trkpt lat="47.91188" lon="-2.48141">
        <ele>24</ele>
        <time>2021-08-07T13:12:03Z</time>
      </trkpt>
      <trkpt lat="47.91192" lon="-2.48142">
        <ele>24</ele>
        <time>2021-08-07T13:12:04Z</time>
      </trkpt>
      <trkpt lat="47.91196" lon="-2.48143">
        <ele>24</ele>
        <time>2021-08-07T13:12:05Z</time>
      </trkpt>
      <trkpt lat="47.91205" lon="-2.48143">
        <ele>23.8</ele>
        <time>2021-08-07T13:12:07Z</time>
      </trkpt>
      <trkpt lat="47.91209" lon="-2.48144">
        <ele>24</ele>
        <time>2021-08-07T13:12:08Z</time>
      </trkpt>
      <trkpt lat="47.91212" lon="-2.48144">
        <ele>24</ele>
        <time>2021-08-07T13:12:09Z</time>
      </trkpt>
      <trkpt lat="47.91216" lon="-2.48144">
        <ele>24</ele>
        <time>2021-08-07T13:12:10Z</time>
      </trkpt>
      <trkpt lat="47.9122" lon="-2.48144">
        <ele>24</ele>
        <time>2021-08-07T13:12:11Z</time>
      </trkpt>
      <trkpt lat="47.91224" lon="-2.48144">
        <ele>24</ele>
        <time>2021-08-07T13:12:12Z</time>
      </trkpt>
      <trkpt lat="47.91228" lon="-2.48143">
        <ele>24.2</ele>
        <time>2021-08-07T13:12:13Z</time>
      </trkpt>
      <trkpt lat="47.91233" lon="-2.48142">
        <ele>24.2</ele>
        <time>2021-08-07T13:12:14Z</time>
      </trkpt>
      <trkpt lat="47.91243" lon="-2.48144">
        <ele>24.2</ele>
        <time>2021-08-07T13:12:16Z</time>
      </trkpt>
      <trkpt lat="47.91248" lon="-2.48146">
        <ele>24.2</ele>
        <time>2021-08-07T13:12:17Z</time>
      </trkpt>
      <trkpt lat="47.91253" lon="-2.48149">
        <ele>24.2</ele>
        <time>2021-08-07T13:12:18Z</time>
      </trkpt>
      <trkpt lat="47.91257" lon="-2.48152">
        <ele>24.2</ele>
        <time>2021-08-07T13:12:19Z</time>
      </trkpt>
      <trkpt lat="47.91261" lon="-2.48154">
        <ele>24</ele>
        <time>2021-08-07T13:12:20Z</time>
      </trkpt>
      <trkpt lat="47.91266" lon="-2.48156">
        <ele>24</ele>
        <time>2021-08-07T13:12:21Z</time>
      </trkpt>
      <trkpt lat="47.9127" lon="-2.48158">
        <ele>24</ele>
        <time>2021-08-07T13:12:22Z</time>
      </trkpt>
      <trkpt lat="47.91273" lon="-2.48159">
        <ele>24</ele>
        <time>2021-08-07T13:12:23Z</time>
      </trkpt>
      <trkpt lat="47.91277" lon="-2.4816">
        <ele>24</ele>
        <time>2021-08-07T13:12:24Z</time>
      </trkpt>
      <trkpt lat="47.91282" lon="-2.48161">
        <ele>24</ele>
        <time>2021-08-07T13:12:25Z</time>
      </trkpt>
      <trkpt lat="47.91286" lon="-2.48162">
        <ele>24.2</ele>
        <time>2021-08-07T13:12:26Z</time>
      </trkpt>
      <trkpt lat="47.91291" lon="-2.48164">
        <ele>24.2</ele>
        <time>2021-08-07T13:12:27Z</time>
      </trkpt>
      <trkpt lat="47.91296" lon="-2.48166">
        <ele>24.2</ele>
        <time>2021-08-07T13:12:28Z</time>
      </trkpt>
      <trkpt lat="47.91301" lon="-2.48168">
        <ele>24.2</ele>
        <time>2021-08-07T13:12:29Z</time>
      </trkpt>
      <trkpt lat="47.91306" lon="-2.4817">
        <ele>24.2</ele>
        <time>2021-08-07T13:12:30Z</time>
      </trkpt>
      <trkpt lat="47.91311" lon="-2.48171">
        <ele>24.2</ele>
        <time>2021-08-07T13:12:31Z</time>
      </trkpt>
      <trkpt lat="47.91316" lon="-2.48173">
        <ele>24.2</ele>
        <time>2021-08-07T13:12:32Z</time>
      </trkpt>
      <trkpt lat="47.91325" lon="-2.48177">
        <ele>24.2</ele>
        <time>2021-08-07T13:12:34Z</time>
      </trkpt>
      <trkpt lat="47.9133" lon="-2.48179">
        <ele>24.2</ele>
        <time>2021-08-07T13:12:35Z</time>
      </trkpt>
      <trkpt lat="47.91334" lon="-2.4818">
        <ele>24.2</ele>
        <time>2021-08-07T13:12:36Z</time>
      </trkpt>
      <trkpt lat="47.91339" lon="-2.48182">
        <ele>24.2</ele>
        <time>2021-08-07T13:12:37Z</time>
      </trkpt>
      <trkpt lat="47.91344" lon="-2.48184">
        <ele>24.2</ele>
        <time>2021-08-07T13:12:38Z</time>
      </trkpt>
      <trkpt lat="47.91348" lon="-2.48185">
        <ele>24.2</ele>
        <time>2021-08-07T13:12:39Z</time>
      </trkpt>
      <trkpt lat="47.91353" lon="-2.48187">
        <ele>24.2</ele>
        <time>2021-08-07T13:12:40Z</time>
      </trkpt>
      <trkpt lat="47.91358" lon="-2.4819">
        <ele>24.2</ele>
        <time>2021-08-07T13:12:41Z</time>
      </trkpt>
      <trkpt lat="47.91368" lon="-2.48194">
        <ele>24.2</ele>
        <time>2021-08-07T13:12:43Z</time>
      </trkpt>
      <trkpt lat="47.91373" lon="-2.48197">
        <ele>24.2</ele>
        <time>2021-08-07T13:12:44Z</time>
      </trkpt>
      <trkpt lat="47.91378" lon="-2.48199">
        <ele>24</ele>
        <time>2021-08-07T13:12:45Z</time>
      </trkpt>
      <trkpt lat="47.91382" lon="-2.48201">
        <ele>24</ele>
        <time>2021-08-07T13:12:46Z</time>
      </trkpt>
      <trkpt lat="47.91386" lon="-2.48203">
        <ele>24</ele>
        <time>2021-08-07T13:12:47Z</time>
      </trkpt>
      <trkpt lat="47.91391" lon="-2.48204">
        <ele>24</ele>
        <time>2021-08-07T13:12:48Z</time>
      </trkpt>
      <trkpt lat="47.91395" lon="-2.48206">
        <ele>24</ele>
        <time>2021-08-07T13:12:49Z</time>
      </trkpt>
      <trkpt lat="47.914" lon="-2.48207">
        <ele>24</ele>
        <time>2021-08-07T13:12:50Z</time>
      </trkpt>
      <trkpt lat="47.91405" lon="-2.48209">
        <ele>24</ele>
        <time>2021-08-07T13:12:51Z</time>
      </trkpt>
      <trkpt lat="47.9141" lon="-2.48211">
        <ele>24</ele>
        <time>2021-08-07T13:12:52Z</time>
      </trkpt>
      <trkpt lat="47.91415" lon="-2.48213">
        <ele>24</ele>
        <time>2021-08-07T13:12:53Z</time>
      </trkpt>
      <trkpt lat="47.9142" lon="-2.48216">
        <ele>24</ele>
        <time>2021-08-07T13:12:54Z</time>
      </trkpt>
      <trkpt lat="47.91425" lon="-2.48218">
        <ele>24</ele>
        <time>2021-08-07T13:12:55Z</time>
      </trkpt>
      <trkpt lat="47.91429" lon="-2.4822">
        <ele>24</ele>
        <time>2021-08-07T13:12:56Z</time>
      </trkpt>
      <trkpt lat="47.91434" lon="-2.48222">
        <ele>24</ele>
        <time>2021-08-07T13:12:57Z</time>
      </trkpt>
      <trkpt lat="47.91439" lon="-2.48224">
        <ele>24</ele>
        <time>2021-08-07T13:12:58Z</time>
      </trkpt>
      <trkpt lat="47.91444" lon="-2.48227">
        <ele>24</ele>
        <time>2021-08-07T13:12:59Z</time>
      </trkpt>
      <trkpt lat="47.91454" lon="-2.48232">
        <ele>24</ele>
        <time>2021-08-07T13:13:01Z</time>
      </trkpt>
      <trkpt lat="47.91458" lon="-2.48234">
        <ele>24</ele>
        <time>2021-08-07T13:13:02Z</time>
      </trkpt>
      <trkpt lat="47.91463" lon="-2.48237">
        <ele>24</ele>
        <time>2021-08-07T13:13:03Z</time>
      </trkpt>
      <trkpt lat="47.91468" lon="-2.48239">
        <ele>24</ele>
        <time>2021-08-07T13:13:04Z</time>
      </trkpt>
      <trkpt lat="47.91473" lon="-2.48242">
        <ele>24</ele>
        <time>2021-08-07T13:13:05Z</time>
      </trkpt>
      <trkpt lat="47.91477" lon="-2.48244">
        <ele>24</ele>
        <time>2021-08-07T13:13:06Z</time>
      </trkpt>
      <trkpt lat="47.91482" lon="-2.48246">
        <ele>24</ele>
        <time>2021-08-07T13:13:07Z</time>
      </trkpt>
      <trkpt lat="47.91486" lon="-2.48248">
        <ele>24</ele>
        <time>2021-08-07T13:13:08Z</time>
      </trkpt>
      <trkpt lat="47.91491" lon="-2.4825">
        <ele>24.2</ele>
        <time>2021-08-07T13:13:09Z</time>
      </trkpt>
      <trkpt lat="47.91495" lon="-2.48251">
        <ele>24</ele>
        <time>2021-08-07T13:13:10Z</time>
      </trkpt>
      <trkpt lat="47.915" lon="-2.48253">
        <ele>24</ele>
        <time>2021-08-07T13:13:11Z</time>
      </trkpt>
      <trkpt lat="47.91504" lon="-2.48255">
        <ele>24</ele>
        <time>2021-08-07T13:13:12Z</time>
      </trkpt>
      <trkpt lat="47.91508" lon="-2.48257">
        <ele>24</ele>
        <time>2021-08-07T13:13:13Z</time>
      </trkpt>
      <trkpt lat="47.91512" lon="-2.48258">
        <ele>24</ele>
        <time>2021-08-07T13:13:14Z</time>
      </trkpt>
      <trkpt lat="47.91516" lon="-2.4826">
        <ele>24</ele>
        <time>2021-08-07T13:13:15Z</time>
      </trkpt>
      <trkpt lat="47.91521" lon="-2.48262">
        <ele>24</ele>
        <time>2021-08-07T13:13:16Z</time>
      </trkpt>
      <trkpt lat="47.91526" lon="-2.48264">
        <ele>24</ele>
        <time>2021-08-07T13:13:17Z</time>
      </trkpt>
      <trkpt lat="47.9153" lon="-2.48266">
        <ele>24</ele>
        <time>2021-08-07T13:13:18Z</time>
      </trkpt>
      <trkpt lat="47.9154" lon="-2.48271">
        <ele>24</ele>
        <time>2021-08-07T13:13:20Z</time>
      </trkpt>
      <trkpt lat="47.91545" lon="-2.48274">
        <ele>24</ele>
        <time>2021-08-07T13:13:21Z</time>
      </trkpt>
      <trkpt lat="47.9155" lon="-2.48276">
        <ele>24.2</ele>
        <time>2021-08-07T13:13:22Z</time>
      </trkpt>
      <trkpt lat="47.91555" lon="-2.48278">
        <ele>24.2</ele>
        <time>2021-08-07T13:13:23Z</time>
      </trkpt>
      <trkpt lat="47.91559" lon="-2.48281">
        <ele>24.2</ele>
        <time>2021-08-07T13:13:24Z</time>
      </trkpt>
      <trkpt lat="47.91564" lon="-2.48285">
        <ele>24.2</ele>
        <time>2021-08-07T13:13:25Z</time>
      </trkpt>
      <trkpt lat="47.91569" lon="-2.48288">
        <ele>24.2</ele>
        <time>2021-08-07T13:13:26Z</time>
      </trkpt>
      <trkpt lat="47.91574" lon="-2.48291">
        <ele>24.2</ele>
        <time>2021-08-07T13:13:27Z</time>
      </trkpt>
      <trkpt lat="47.91579" lon="-2.48295">
        <ele>24.2</ele>
        <time>2021-08-07T13:13:28Z</time>
      </trkpt>
      <trkpt lat="47.91588" lon="-2.48301">
        <ele>24.4</ele>
        <time>2021-08-07T13:13:30Z</time>
      </trkpt>
      <trkpt lat="47.91593" lon="-2.48304">
        <ele>24.4</ele>
        <time>2021-08-07T13:13:31Z</time>
      </trkpt>
      <trkpt lat="47.91598" lon="-2.48308">
        <ele>24.4</ele>
        <time>2021-08-07T13:13:32Z</time>
      </trkpt>
      <trkpt lat="47.91602" lon="-2.48311">
        <ele>24.4</ele>
        <time>2021-08-07T13:13:33Z</time>
      </trkpt>
      <trkpt lat="47.91607" lon="-2.48315">
        <ele>24.4</ele>
        <time>2021-08-07T13:13:34Z</time>
      </trkpt>
      <trkpt lat="47.91612" lon="-2.48318">
        <ele>24.4</ele>
        <time>2021-08-07T13:13:35Z</time>
      </trkpt>
      <trkpt lat="47.91616" lon="-2.48321">
        <ele>24.4</ele>
        <time>2021-08-07T13:13:36Z</time>
      </trkpt>
      <trkpt lat="47.9162" lon="-2.48325">
        <ele>24.4</ele>
        <time>2021-08-07T13:13:37Z</time>
      </trkpt>
      <trkpt lat="47.91625" lon="-2.48328">
        <ele>24.2</ele>
        <time>2021-08-07T13:13:38Z</time>
      </trkpt>
      <trkpt lat="47.91633" lon="-2.48335">
        <ele>24.2</ele>
        <time>2021-08-07T13:13:40Z</time>
      </trkpt>
      <trkpt lat="47.91637" lon="-2.48338">
        <ele>24.2</ele>
        <time>2021-08-07T13:13:41Z</time>
      </trkpt>
      <trkpt lat="47.91641" lon="-2.48341">
        <ele>24.2</ele>
        <time>2021-08-07T13:13:42Z</time>
      </trkpt>
      <trkpt lat="47.91645" lon="-2.48344">
        <ele>24.2</ele>
        <time>2021-08-07T13:13:43Z</time>
      </trkpt>
      <trkpt lat="47.9165" lon="-2.48348">
        <ele>24.2</ele>
        <time>2021-08-07T13:13:44Z</time>
      </trkpt>
      <trkpt lat="47.91654" lon="-2.48351">
        <ele>24.2</ele>
        <time>2021-08-07T13:13:45Z</time>
      </trkpt>
      <trkpt lat="47.91659" lon="-2.48354">
        <ele>24.2</ele>
        <time>2021-08-07T13:13:46Z</time>
      </trkpt>
      <trkpt lat="47.91663" lon="-2.48358">
        <ele>24.2</ele>
        <time>2021-08-07T13:13:47Z</time>
      </trkpt>
      <trkpt lat="47.91667" lon="-2.48362">
        <ele>24.2</ele>
        <time>2021-08-07T13:13:48Z</time>
      </trkpt>
      <trkpt lat="47.91671" lon="-2.48365">
        <ele>24.2</ele>
        <time>2021-08-07T13:13:49Z</time>
      </trkpt>
      <trkpt lat="47.91675" lon="-2.4837">
        <ele>24.2</ele>
        <time>2021-08-07T13:13:50Z</time>
      </trkpt>
      <trkpt lat="47.91679" lon="-2.48375">
        <ele>24.4</ele>
        <time>2021-08-07T13:13:51Z</time>
      </trkpt>
      <trkpt lat="47.91683" lon="-2.48379">
        <ele>24.4</ele>
        <time>2021-08-07T13:13:52Z</time>
      </trkpt>
      <trkpt lat="47.91687" lon="-2.48383">
        <ele>24.4</ele>
        <time>2021-08-07T13:13:53Z</time>
      </trkpt>
      <trkpt lat="47.91691" lon="-2.48389">
        <ele>24.6</ele>
        <time>2021-08-07T13:13:54Z</time>
      </trkpt>
      <trkpt lat="47.91694" lon="-2.48394">
        <ele>24.6</ele>
        <time>2021-08-07T13:13:55Z</time>
      </trkpt>
      <trkpt lat="47.91698" lon="-2.484">
        <ele>24.6</ele>
        <time>2021-08-07T13:13:56Z</time>
      </trkpt>
      <trkpt lat="47.91702" lon="-2.48405">
        <ele>24.6</ele>
        <time>2021-08-07T13:13:57Z</time>
      </trkpt>
      <trkpt lat="47.91705" lon="-2.48412">
        <ele>24.6</ele>
        <time>2021-08-07T13:13:58Z</time>
      </trkpt>
      <trkpt lat="47.91712" lon="-2.48423">
        <ele>24.6</ele>
        <time>2021-08-07T13:14:00Z</time>
      </trkpt>
      <trkpt lat="47.91716" lon="-2.48429">
        <ele>24.6</ele>
        <time>2021-08-07T13:14:01Z</time>
      </trkpt>
      <trkpt lat="47.91719" lon="-2.48434">
        <ele>24.6</ele>
        <time>2021-08-07T13:14:02Z</time>
      </trkpt>
      <trkpt lat="47.91723" lon="-2.4844">
        <ele>24.6</ele>
        <time>2021-08-07T13:14:03Z</time>
      </trkpt>
      <trkpt lat="47.91726" lon="-2.48445">
        <ele>24.6</ele>
        <time>2021-08-07T13:14:04Z</time>
      </trkpt>
      <trkpt lat="47.91729" lon="-2.48451">
        <ele>24.6</ele>
        <time>2021-08-07T13:14:05Z</time>
      </trkpt>
      <trkpt lat="47.91732" lon="-2.48456">
        <ele>24.6</ele>
        <time>2021-08-07T13:14:06Z</time>
      </trkpt>
      <trkpt lat="47.91736" lon="-2.48462">
        <ele>24.8</ele>
        <time>2021-08-07T13:14:07Z</time>
      </trkpt>
      <trkpt lat="47.91739" lon="-2.48468">
        <ele>24.8</ele>
        <time>2021-08-07T13:14:08Z</time>
      </trkpt>
      <trkpt lat="47.91746" lon="-2.48479">
        <ele>24.8</ele>
        <time>2021-08-07T13:14:10Z</time>
      </trkpt>
      <trkpt lat="47.9175" lon="-2.48485">
        <ele>24.8</ele>
        <time>2021-08-07T13:14:11Z</time>
      </trkpt>
      <trkpt lat="47.91754" lon="-2.48491">
        <ele>24.8</ele>
        <time>2021-08-07T13:14:12Z</time>
      </trkpt>
      <trkpt lat="47.91757" lon="-2.48496">
        <ele>24.8</ele>
        <time>2021-08-07T13:14:13Z</time>
      </trkpt>
      <trkpt lat="47.91761" lon="-2.48502">
        <ele>24.8</ele>
        <time>2021-08-07T13:14:14Z</time>
      </trkpt>
      <trkpt lat="47.91764" lon="-2.48507">
        <ele>24.8</ele>
        <time>2021-08-07T13:14:15Z</time>
      </trkpt>
      <trkpt lat="47.91768" lon="-2.48512">
        <ele>24.8</ele>
        <time>2021-08-07T13:14:16Z</time>
      </trkpt>
      <trkpt lat="47.91771" lon="-2.48517">
        <ele>24.8</ele>
        <time>2021-08-07T13:14:17Z</time>
      </trkpt>
      <trkpt lat="47.91775" lon="-2.48522">
        <ele>24.8</ele>
        <time>2021-08-07T13:14:18Z</time>
      </trkpt>
      <trkpt lat="47.91783" lon="-2.48531">
        <ele>24.6</ele>
        <time>2021-08-07T13:14:20Z</time>
      </trkpt>
      <trkpt lat="47.91786" lon="-2.48535">
        <ele>24.6</ele>
        <time>2021-08-07T13:14:21Z</time>
      </trkpt>
      <trkpt lat="47.9179" lon="-2.4854">
        <ele>24.6</ele>
        <time>2021-08-07T13:14:22Z</time>
      </trkpt>
      <trkpt lat="47.91794" lon="-2.48544">
        <ele>24.6</ele>
        <time>2021-08-07T13:14:23Z</time>
      </trkpt>
      <trkpt lat="47.91798" lon="-2.48549">
        <ele>24.4</ele>
        <time>2021-08-07T13:14:24Z</time>
      </trkpt>
      <trkpt lat="47.91802" lon="-2.48553">
        <ele>24.4</ele>
        <time>2021-08-07T13:14:25Z</time>
      </trkpt>
      <trkpt lat="47.91805" lon="-2.48558">
        <ele>24.4</ele>
        <time>2021-08-07T13:14:26Z</time>
      </trkpt>
      <trkpt lat="47.91813" lon="-2.48568">
        <ele>24.4</ele>
        <time>2021-08-07T13:14:28Z</time>
      </trkpt>
      <trkpt lat="47.91817" lon="-2.48572">
        <ele>24.4</ele>
        <time>2021-08-07T13:14:29Z</time>
      </trkpt>
      <trkpt lat="47.9182" lon="-2.48577">
        <ele>24.2</ele>
        <time>2021-08-07T13:14:30Z</time>
      </trkpt>
      <trkpt lat="47.91824" lon="-2.48582">
        <ele>24.2</ele>
        <time>2021-08-07T13:14:31Z</time>
      </trkpt>
      <trkpt lat="47.91831" lon="-2.4859">
        <ele>24.2</ele>
        <time>2021-08-07T13:14:33Z</time>
      </trkpt>
      <trkpt lat="47.91834" lon="-2.48594">
        <ele>24.2</ele>
        <time>2021-08-07T13:14:34Z</time>
      </trkpt>
      <trkpt lat="47.91838" lon="-2.48599">
        <ele>24.2</ele>
        <time>2021-08-07T13:14:35Z</time>
      </trkpt>
      <trkpt lat="47.91842" lon="-2.48604">
        <ele>24.2</ele>
        <time>2021-08-07T13:14:36Z</time>
      </trkpt>
      <trkpt lat="47.91845" lon="-2.48608">
        <ele>24.2</ele>
        <time>2021-08-07T13:14:37Z</time>
      </trkpt>
      <trkpt lat="47.91849" lon="-2.48612">
        <ele>24.2</ele>
        <time>2021-08-07T13:14:38Z</time>
      </trkpt>
      <trkpt lat="47.91853" lon="-2.48617">
        <ele>24.4</ele>
        <time>2021-08-07T13:14:39Z</time>
      </trkpt>
      <trkpt lat="47.91857" lon="-2.48623">
        <ele>24.4</ele>
        <time>2021-08-07T13:14:40Z</time>
      </trkpt>
      <trkpt lat="47.91861" lon="-2.48628">
        <ele>24.4</ele>
        <time>2021-08-07T13:14:41Z</time>
      </trkpt>
      <trkpt lat="47.91865" lon="-2.48633">
        <ele>24.6</ele>
        <time>2021-08-07T13:14:42Z</time>
      </trkpt>
      <trkpt lat="47.91869" lon="-2.48638">
        <ele>24.6</ele>
        <time>2021-08-07T13:14:43Z</time>
      </trkpt>
      <trkpt lat="47.91874" lon="-2.48643">
        <ele>24.8</ele>
        <time>2021-08-07T13:14:44Z</time>
      </trkpt>
      <trkpt lat="47.91878" lon="-2.48648">
        <ele>24.8</ele>
        <time>2021-08-07T13:14:45Z</time>
      </trkpt>
      <trkpt lat="47.91886" lon="-2.48658">
        <ele>24.8</ele>
        <time>2021-08-07T13:14:47Z</time>
      </trkpt>
      <trkpt lat="47.91891" lon="-2.48662">
        <ele>24.8</ele>
        <time>2021-08-07T13:14:48Z</time>
      </trkpt>
      <trkpt lat="47.91895" lon="-2.48667">
        <ele>24.8</ele>
        <time>2021-08-07T13:14:49Z</time>
      </trkpt>
      <trkpt lat="47.91899" lon="-2.48673">
        <ele>24.8</ele>
        <time>2021-08-07T13:14:50Z</time>
      </trkpt>
      <trkpt lat="47.91907" lon="-2.4868">
        <ele>24.8</ele>
        <time>2021-08-07T13:14:52Z</time>
      </trkpt>
      <trkpt lat="47.91911" lon="-2.48685">
        <ele>24.8</ele>
        <time>2021-08-07T13:14:53Z</time>
      </trkpt>
      <trkpt lat="47.91915" lon="-2.48689">
        <ele>24.8</ele>
        <time>2021-08-07T13:14:54Z</time>
      </trkpt>
      <trkpt lat="47.91919" lon="-2.48694">
        <ele>24.8</ele>
        <time>2021-08-07T13:14:55Z</time>
      </trkpt>
      <trkpt lat="47.91923" lon="-2.48699">
        <ele>24.6</ele>
        <time>2021-08-07T13:14:56Z</time>
      </trkpt>
      <trkpt lat="47.91927" lon="-2.48703">
        <ele>24.6</ele>
        <time>2021-08-07T13:14:57Z</time>
      </trkpt>
      <trkpt lat="47.91931" lon="-2.48707">
        <ele>24.6</ele>
        <time>2021-08-07T13:14:58Z</time>
      </trkpt>
      <trkpt lat="47.91934" lon="-2.48711">
        <ele>24.6</ele>
        <time>2021-08-07T13:14:59Z</time>
      </trkpt>
      <trkpt lat="47.91938" lon="-2.48715">
        <ele>24.6</ele>
        <time>2021-08-07T13:15:00Z</time>
      </trkpt>
      <trkpt lat="47.91942" lon="-2.48719">
        <ele>24.6</ele>
        <time>2021-08-07T13:15:01Z</time>
      </trkpt>
      <trkpt lat="47.91946" lon="-2.48723">
        <ele>24.6</ele>
        <time>2021-08-07T13:15:02Z</time>
      </trkpt>
      <trkpt lat="47.9195" lon="-2.48727">
        <ele>24.4</ele>
        <time>2021-08-07T13:15:03Z</time>
      </trkpt>
      <trkpt lat="47.91953" lon="-2.48731">
        <ele>24.4</ele>
        <time>2021-08-07T13:15:04Z</time>
      </trkpt>
      <trkpt lat="47.91958" lon="-2.48735">
        <ele>24.4</ele>
        <time>2021-08-07T13:15:05Z</time>
      </trkpt>
      <trkpt lat="47.91965" lon="-2.48745">
        <ele>24</ele>
        <time>2021-08-07T13:15:07Z</time>
      </trkpt>
      <trkpt lat="47.91969" lon="-2.48749">
        <ele>24</ele>
        <time>2021-08-07T13:15:08Z</time>
      </trkpt>
      <trkpt lat="47.91973" lon="-2.48754">
        <ele>23.8</ele>
        <time>2021-08-07T13:15:09Z</time>
      </trkpt>
      <trkpt lat="47.91977" lon="-2.48758">
        <ele>23.8</ele>
        <time>2021-08-07T13:15:10Z</time>
      </trkpt>
      <trkpt lat="47.91981" lon="-2.48762">
        <ele>23.8</ele>
        <time>2021-08-07T13:15:11Z</time>
      </trkpt>
      <trkpt lat="47.91988" lon="-2.48772">
        <ele>23.8</ele>
        <time>2021-08-07T13:15:13Z</time>
      </trkpt>
      <trkpt lat="47.91992" lon="-2.48777">
        <ele>23.8</ele>
        <time>2021-08-07T13:15:14Z</time>
      </trkpt>
      <trkpt lat="47.91996" lon="-2.48782">
        <ele>23.8</ele>
        <time>2021-08-07T13:15:15Z</time>
      </trkpt>
      <trkpt lat="47.91999" lon="-2.48788">
        <ele>23.8</ele>
        <time>2021-08-07T13:15:16Z</time>
      </trkpt>
      <trkpt lat="47.92006" lon="-2.48801">
        <ele>24</ele>
        <time>2021-08-07T13:15:18Z</time>
      </trkpt>
      <trkpt lat="47.9201" lon="-2.48807">
        <ele>23.8</ele>
        <time>2021-08-07T13:15:19Z</time>
      </trkpt>
      <trkpt lat="47.92013" lon="-2.48814">
        <ele>24</ele>
        <time>2021-08-07T13:15:20Z</time>
      </trkpt>
      <trkpt lat="47.92016" lon="-2.4882">
        <ele>24</ele>
        <time>2021-08-07T13:15:21Z</time>
      </trkpt>
      <trkpt lat="47.92019" lon="-2.48827">
        <ele>24</ele>
        <time>2021-08-07T13:15:22Z</time>
      </trkpt>
      <trkpt lat="47.92022" lon="-2.48833">
        <ele>24</ele>
        <time>2021-08-07T13:15:23Z</time>
      </trkpt>
      <trkpt lat="47.92024" lon="-2.4884">
        <ele>24.2</ele>
        <time>2021-08-07T13:15:24Z</time>
      </trkpt>
      <trkpt lat="47.92027" lon="-2.48847">
        <ele>24.2</ele>
        <time>2021-08-07T13:15:25Z</time>
      </trkpt>
      <trkpt lat="47.92029" lon="-2.48854">
        <ele>24.2</ele>
        <time>2021-08-07T13:15:26Z</time>
      </trkpt>
      <trkpt lat="47.92034" lon="-2.48867">
        <ele>24.2</ele>
        <time>2021-08-07T13:15:28Z</time>
      </trkpt>
      <trkpt lat="47.92036" lon="-2.48874">
        <ele>24.4</ele>
        <time>2021-08-07T13:15:29Z</time>
      </trkpt>
      <trkpt lat="47.92038" lon="-2.4888">
        <ele>24.4</ele>
        <time>2021-08-07T13:15:30Z</time>
      </trkpt>
      <trkpt lat="47.92041" lon="-2.48887">
        <ele>24.6</ele>
        <time>2021-08-07T13:15:31Z</time>
      </trkpt>
      <trkpt lat="47.92045" lon="-2.489">
        <ele>24.8</ele>
        <time>2021-08-07T13:15:33Z</time>
      </trkpt>
      <trkpt lat="47.92047" lon="-2.48907">
        <ele>24.8</ele>
        <time>2021-08-07T13:15:34Z</time>
      </trkpt>
      <trkpt lat="47.92049" lon="-2.48914">
        <ele>24.8</ele>
        <time>2021-08-07T13:15:35Z</time>
      </trkpt>
      <trkpt lat="47.92052" lon="-2.4892">
        <ele>24.8</ele>
        <time>2021-08-07T13:15:36Z</time>
      </trkpt>
      <trkpt lat="47.92057" lon="-2.48933">
        <ele>25</ele>
        <time>2021-08-07T13:15:38Z</time>
      </trkpt>
      <trkpt lat="47.92059" lon="-2.4894">
        <ele>25</ele>
        <time>2021-08-07T13:15:39Z</time>
      </trkpt>
      <trkpt lat="47.92061" lon="-2.48946">
        <ele>25</ele>
        <time>2021-08-07T13:15:40Z</time>
      </trkpt>
      <trkpt lat="47.92063" lon="-2.48953">
        <ele>25</ele>
        <time>2021-08-07T13:15:41Z</time>
      </trkpt>
      <trkpt lat="47.92068" lon="-2.48966">
        <ele>25</ele>
        <time>2021-08-07T13:15:43Z</time>
      </trkpt>
      <trkpt lat="47.9207" lon="-2.48972">
        <ele>24.8</ele>
        <time>2021-08-07T13:15:44Z</time>
      </trkpt>
      <trkpt lat="47.92072" lon="-2.48978">
        <ele>24.8</ele>
        <time>2021-08-07T13:15:45Z</time>
      </trkpt>
      <trkpt lat="47.92076" lon="-2.48991">
        <ele>24.8</ele>
        <time>2021-08-07T13:15:47Z</time>
      </trkpt>
      <trkpt lat="47.92079" lon="-2.48997">
        <ele>24.8</ele>
        <time>2021-08-07T13:15:48Z</time>
      </trkpt>
      <trkpt lat="47.92083" lon="-2.4901">
        <ele>24.6</ele>
        <time>2021-08-07T13:15:50Z</time>
      </trkpt>
      <trkpt lat="47.92086" lon="-2.49016">
        <ele>24.6</ele>
        <time>2021-08-07T13:15:51Z</time>
      </trkpt>
      <trkpt lat="47.92088" lon="-2.49023">
        <ele>24.6</ele>
        <time>2021-08-07T13:15:52Z</time>
      </trkpt>
      <trkpt lat="47.9209" lon="-2.49029">
        <ele>24.6</ele>
        <time>2021-08-07T13:15:53Z</time>
      </trkpt>
      <trkpt lat="47.92092" lon="-2.49036">
        <ele>24.6</ele>
        <time>2021-08-07T13:15:54Z</time>
      </trkpt>
      <trkpt lat="47.92095" lon="-2.49042">
        <ele>24.6</ele>
        <time>2021-08-07T13:15:55Z</time>
      </trkpt>
      <trkpt lat="47.92098" lon="-2.49048">
        <ele>24.6</ele>
        <time>2021-08-07T13:15:56Z</time>
      </trkpt>
      <trkpt lat="47.921" lon="-2.49054">
        <ele>24.6</ele>
        <time>2021-08-07T13:15:57Z</time>
      </trkpt>
      <trkpt lat="47.92104" lon="-2.4906">
        <ele>24.6</ele>
        <time>2021-08-07T13:15:58Z</time>
      </trkpt>
      <trkpt lat="47.92107" lon="-2.49065">
        <ele>24.4</ele>
        <time>2021-08-07T13:15:59Z</time>
      </trkpt>
      <trkpt lat="47.92111" lon="-2.49071">
        <ele>24.4</ele>
        <time>2021-08-07T13:16:00Z</time>
      </trkpt>
      <trkpt lat="47.92115" lon="-2.49075">
        <ele>24.4</ele>
        <time>2021-08-07T13:16:01Z</time>
      </trkpt>
      <trkpt lat="47.92118" lon="-2.4908">
        <ele>24.4</ele>
        <time>2021-08-07T13:16:02Z</time>
      </trkpt>
      <trkpt lat="47.92122" lon="-2.49084">
        <ele>24.4</ele>
        <time>2021-08-07T13:16:03Z</time>
      </trkpt>
      <trkpt lat="47.92126" lon="-2.49088">
        <ele>24.2</ele>
        <time>2021-08-07T13:16:04Z</time>
      </trkpt>
      <trkpt lat="47.9213" lon="-2.49092">
        <ele>24.2</ele>
        <time>2021-08-07T13:16:05Z</time>
      </trkpt>
      <trkpt lat="47.92134" lon="-2.49096">
        <ele>24</ele>
        <time>2021-08-07T13:16:06Z</time>
      </trkpt>
      <trkpt lat="47.92138" lon="-2.491">
        <ele>24</ele>
        <time>2021-08-07T13:16:07Z</time>
      </trkpt>
      <trkpt lat="47.92142" lon="-2.49103">
        <ele>24</ele>
        <time>2021-08-07T13:16:08Z</time>
      </trkpt>
      <trkpt lat="47.9215" lon="-2.4911">
        <ele>24</ele>
        <time>2021-08-07T13:16:10Z</time>
      </trkpt>
      <trkpt lat="47.92154" lon="-2.49114">
        <ele>24</ele>
        <time>2021-08-07T13:16:11Z</time>
      </trkpt>
      <trkpt lat="47.92158" lon="-2.49117">
        <ele>24</ele>
        <time>2021-08-07T13:16:12Z</time>
      </trkpt>
      <trkpt lat="47.92162" lon="-2.49121">
        <ele>24</ele>
        <time>2021-08-07T13:16:13Z</time>
      </trkpt>
      <trkpt lat="47.92166" lon="-2.49124">
        <ele>24</ele>
        <time>2021-08-07T13:16:14Z</time>
      </trkpt>
      <trkpt lat="47.9217" lon="-2.49128">
        <ele>24</ele>
        <time>2021-08-07T13:16:15Z</time>
      </trkpt>
      <trkpt lat="47.92174" lon="-2.49132">
        <ele>24</ele>
        <time>2021-08-07T13:16:16Z</time>
      </trkpt>
      <trkpt lat="47.92178" lon="-2.49135">
        <ele>24</ele>
        <time>2021-08-07T13:16:17Z</time>
      </trkpt>
      <trkpt lat="47.92182" lon="-2.49139">
        <ele>24</ele>
        <time>2021-08-07T13:16:18Z</time>
      </trkpt>
      <trkpt lat="47.92186" lon="-2.49143">
        <ele>24</ele>
        <time>2021-08-07T13:16:19Z</time>
      </trkpt>
      <trkpt lat="47.92194" lon="-2.49151">
        <ele>24.2</ele>
        <time>2021-08-07T13:16:21Z</time>
      </trkpt>
      <trkpt lat="47.92198" lon="-2.49154">
        <ele>24.4</ele>
        <time>2021-08-07T13:16:22Z</time>
      </trkpt>
      <trkpt lat="47.92202" lon="-2.49158">
        <ele>24.4</ele>
        <time>2021-08-07T13:16:23Z</time>
      </trkpt>
      <trkpt lat="47.92206" lon="-2.49162">
        <ele>24.4</ele>
        <time>2021-08-07T13:16:24Z</time>
      </trkpt>
      <trkpt lat="47.9221" lon="-2.49166">
        <ele>24.4</ele>
        <time>2021-08-07T13:16:25Z</time>
      </trkpt>
      <trkpt lat="47.92214" lon="-2.49171">
        <ele>24.6</ele>
        <time>2021-08-07T13:16:26Z</time>
      </trkpt>
      <trkpt lat="47.92217" lon="-2.49175">
        <ele>24.6</ele>
        <time>2021-08-07T13:16:27Z</time>
      </trkpt>
      <trkpt lat="47.92221" lon="-2.4918">
        <ele>24.6</ele>
        <time>2021-08-07T13:16:28Z</time>
      </trkpt>
      <trkpt lat="47.92224" lon="-2.49185">
        <ele>24.6</ele>
        <time>2021-08-07T13:16:29Z</time>
      </trkpt>
      <trkpt lat="47.92231" lon="-2.49194">
        <ele>24.8</ele>
        <time>2021-08-07T13:16:31Z</time>
      </trkpt>
      <trkpt lat="47.92234" lon="-2.49199">
        <ele>24.8</ele>
        <time>2021-08-07T13:16:32Z</time>
      </trkpt>
      <trkpt lat="47.92238" lon="-2.49204">
        <ele>24.8</ele>
        <time>2021-08-07T13:16:33Z</time>
      </trkpt>
      <trkpt lat="47.92241" lon="-2.49209">
        <ele>24.8</ele>
        <time>2021-08-07T13:16:34Z</time>
      </trkpt>
      <trkpt lat="47.92245" lon="-2.49214">
        <ele>24.8</ele>
        <time>2021-08-07T13:16:35Z</time>
      </trkpt>
      <trkpt lat="47.92248" lon="-2.49219">
        <ele>25</ele>
        <time>2021-08-07T13:16:36Z</time>
      </trkpt>
      <trkpt lat="47.92252" lon="-2.49224">
        <ele>25</ele>
        <time>2021-08-07T13:16:37Z</time>
      </trkpt>
      <trkpt lat="47.92255" lon="-2.49229">
        <ele>25</ele>
        <time>2021-08-07T13:16:38Z</time>
      </trkpt>
      <trkpt lat="47.92259" lon="-2.49234">
        <ele>25</ele>
        <time>2021-08-07T13:16:39Z</time>
      </trkpt>
      <trkpt lat="47.92262" lon="-2.49239">
        <ele>25</ele>
        <time>2021-08-07T13:16:40Z</time>
      </trkpt>
      <trkpt lat="47.92269" lon="-2.49249">
        <ele>25.2</ele>
        <time>2021-08-07T13:16:42Z</time>
      </trkpt>
      <trkpt lat="47.92273" lon="-2.49254">
        <ele>25.2</ele>
        <time>2021-08-07T13:16:43Z</time>
      </trkpt>
      <trkpt lat="47.92276" lon="-2.49259">
        <ele>25.4</ele>
        <time>2021-08-07T13:16:44Z</time>
      </trkpt>
      <trkpt lat="47.92279" lon="-2.49264">
        <ele>25.4</ele>
        <time>2021-08-07T13:16:45Z</time>
      </trkpt>
      <trkpt lat="47.92282" lon="-2.49269">
        <ele>25.4</ele>
        <time>2021-08-07T13:16:46Z</time>
      </trkpt>
      <trkpt lat="47.92285" lon="-2.49275">
        <ele>25.6</ele>
        <time>2021-08-07T13:16:47Z</time>
      </trkpt>
      <trkpt lat="47.92288" lon="-2.4928">
        <ele>25.6</ele>
        <time>2021-08-07T13:16:48Z</time>
      </trkpt>
      <trkpt lat="47.92291" lon="-2.49285">
        <ele>25.6</ele>
        <time>2021-08-07T13:16:49Z</time>
      </trkpt>
      <trkpt lat="47.92293" lon="-2.4929">
        <ele>25.6</ele>
        <time>2021-08-07T13:16:50Z</time>
      </trkpt>
      <trkpt lat="47.92296" lon="-2.49295">
        <ele>25.6</ele>
        <time>2021-08-07T13:16:51Z</time>
      </trkpt>
      <trkpt lat="47.92299" lon="-2.49301">
        <ele>25.6</ele>
        <time>2021-08-07T13:16:52Z</time>
      </trkpt>
      <trkpt lat="47.92302" lon="-2.49306">
        <ele>25.6</ele>
        <time>2021-08-07T13:16:53Z</time>
      </trkpt>
      <trkpt lat="47.92304" lon="-2.49311">
        <ele>25.6</ele>
        <time>2021-08-07T13:16:54Z</time>
      </trkpt>
      <trkpt lat="47.92307" lon="-2.49316">
        <ele>25.6</ele>
        <time>2021-08-07T13:16:55Z</time>
      </trkpt>
      <trkpt lat="47.9231" lon="-2.49321">
        <ele>25.6</ele>
        <time>2021-08-07T13:16:56Z</time>
      </trkpt>
      <trkpt lat="47.92312" lon="-2.49327">
        <ele>25.6</ele>
        <time>2021-08-07T13:16:57Z</time>
      </trkpt>
      <trkpt lat="47.92315" lon="-2.49332">
        <ele>25.6</ele>
        <time>2021-08-07T13:16:58Z</time>
      </trkpt>
      <trkpt lat="47.92318" lon="-2.49338">
        <ele>25.6</ele>
        <time>2021-08-07T13:16:59Z</time>
      </trkpt>
      <trkpt lat="47.92321" lon="-2.49343">
        <ele>25.6</ele>
        <time>2021-08-07T13:17:00Z</time>
      </trkpt>
      <trkpt lat="47.92323" lon="-2.49349">
        <ele>25.8</ele>
        <time>2021-08-07T13:17:01Z</time>
      </trkpt>
      <trkpt lat="47.92326" lon="-2.49354">
        <ele>25.8</ele>
        <time>2021-08-07T13:17:02Z</time>
      </trkpt>
      <trkpt lat="47.92331" lon="-2.49365">
        <ele>26</ele>
        <time>2021-08-07T13:17:04Z</time>
      </trkpt>
      <trkpt lat="47.92333" lon="-2.4937">
        <ele>26</ele>
        <time>2021-08-07T13:17:05Z</time>
      </trkpt>
      <trkpt lat="47.92336" lon="-2.49374">
        <ele>25.8</ele>
        <time>2021-08-07T13:17:06Z</time>
      </trkpt>
      <trkpt lat="47.92339" lon="-2.49378">
        <ele>25.8</ele>
        <time>2021-08-07T13:17:07Z</time>
      </trkpt>
      <trkpt lat="47.92341" lon="-2.49383">
        <ele>25.8</ele>
        <time>2021-08-07T13:17:08Z</time>
      </trkpt>
      <trkpt lat="47.92343" lon="-2.49388">
        <ele>25.8</ele>
        <time>2021-08-07T13:17:09Z</time>
      </trkpt>
      <trkpt lat="47.92345" lon="-2.49393">
        <ele>26</ele>
        <time>2021-08-07T13:17:10Z</time>
      </trkpt>
      <trkpt lat="47.92348" lon="-2.49399">
        <ele>26</ele>
        <time>2021-08-07T13:17:11Z</time>
      </trkpt>
      <trkpt lat="47.9235" lon="-2.49406">
        <ele>26</ele>
        <time>2021-08-07T13:17:12Z</time>
      </trkpt>
      <trkpt lat="47.92353" lon="-2.49412">
        <ele>26</ele>
        <time>2021-08-07T13:17:13Z</time>
      </trkpt>
      <trkpt lat="47.92359" lon="-2.49424">
        <ele>26</ele>
        <time>2021-08-07T13:17:15Z</time>
      </trkpt>
      <trkpt lat="47.92362" lon="-2.4943">
        <ele>26</ele>
        <time>2021-08-07T13:17:16Z</time>
      </trkpt>
      <trkpt lat="47.92365" lon="-2.49436">
        <ele>26</ele>
        <time>2021-08-07T13:17:17Z</time>
      </trkpt>
      <trkpt lat="47.92367" lon="-2.49443">
        <ele>26</ele>
        <time>2021-08-07T13:17:18Z</time>
      </trkpt>
      <trkpt lat="47.9237" lon="-2.49449">
        <ele>26</ele>
        <time>2021-08-07T13:17:19Z</time>
      </trkpt>
      <trkpt lat="47.92372" lon="-2.49455">
        <ele>26</ele>
        <time>2021-08-07T13:17:20Z</time>
      </trkpt>
      <trkpt lat="47.92375" lon="-2.49462">
        <ele>26</ele>
        <time>2021-08-07T13:17:21Z</time>
      </trkpt>
      <trkpt lat="47.92377" lon="-2.49469">
        <ele>26</ele>
        <time>2021-08-07T13:17:22Z</time>
      </trkpt>
      <trkpt lat="47.9238" lon="-2.49476">
        <ele>26</ele>
        <time>2021-08-07T13:17:23Z</time>
      </trkpt>
      <trkpt lat="47.92385" lon="-2.49489">
        <ele>26</ele>
        <time>2021-08-07T13:17:25Z</time>
      </trkpt>
      <trkpt lat="47.92388" lon="-2.49496">
        <ele>26.2</ele>
        <time>2021-08-07T13:17:26Z</time>
      </trkpt>
      <trkpt lat="47.9239" lon="-2.49502">
        <ele>26.2</ele>
        <time>2021-08-07T13:17:27Z</time>
      </trkpt>
      <trkpt lat="47.92392" lon="-2.49509">
        <ele>26.2</ele>
        <time>2021-08-07T13:17:28Z</time>
      </trkpt>
      <trkpt lat="47.92394" lon="-2.49516">
        <ele>26.2</ele>
        <time>2021-08-07T13:17:29Z</time>
      </trkpt>
      <trkpt lat="47.92396" lon="-2.49523">
        <ele>26.2</ele>
        <time>2021-08-07T13:17:30Z</time>
      </trkpt>
      <trkpt lat="47.92397" lon="-2.49531">
        <ele>26.2</ele>
        <time>2021-08-07T13:17:31Z</time>
      </trkpt>
      <trkpt lat="47.92398" lon="-2.49538">
        <ele>26.2</ele>
        <time>2021-08-07T13:17:32Z</time>
      </trkpt>
      <trkpt lat="47.92399" lon="-2.49546">
        <ele>26.2</ele>
        <time>2021-08-07T13:17:33Z</time>
      </trkpt>
      <trkpt lat="47.924" lon="-2.49553">
        <ele>26.2</ele>
        <time>2021-08-07T13:17:34Z</time>
      </trkpt>
      <trkpt lat="47.92401" lon="-2.49568">
        <ele>26.2</ele>
        <time>2021-08-07T13:17:36Z</time>
      </trkpt>
      <trkpt lat="47.92401" lon="-2.49575">
        <ele>26.2</ele>
        <time>2021-08-07T13:17:37Z</time>
      </trkpt>
      <trkpt lat="47.92401" lon="-2.49583">
        <ele>26.2</ele>
        <time>2021-08-07T13:17:38Z</time>
      </trkpt>
      <trkpt lat="47.92401" lon="-2.49591">
        <ele>26.2</ele>
        <time>2021-08-07T13:17:39Z</time>
      </trkpt>
      <trkpt lat="47.924" lon="-2.49598">
        <ele>26.2</ele>
        <time>2021-08-07T13:17:40Z</time>
      </trkpt>
      <trkpt lat="47.92399" lon="-2.49606">
        <ele>26.2</ele>
        <time>2021-08-07T13:17:41Z</time>
      </trkpt>
      <trkpt lat="47.92399" lon="-2.49613">
        <ele>26</ele>
        <time>2021-08-07T13:17:42Z</time>
      </trkpt>
      <trkpt lat="47.92398" lon="-2.49621">
        <ele>26</ele>
        <time>2021-08-07T13:17:43Z</time>
      </trkpt>
      <trkpt lat="47.92397" lon="-2.49629">
        <ele>26</ele>
        <time>2021-08-07T13:17:44Z</time>
      </trkpt>
      <trkpt lat="47.92395" lon="-2.49636">
        <ele>26</ele>
        <time>2021-08-07T13:17:45Z</time>
      </trkpt>
      <trkpt lat="47.92392" lon="-2.49651">
        <ele>26</ele>
        <time>2021-08-07T13:17:47Z</time>
      </trkpt>
      <trkpt lat="47.9239" lon="-2.49659">
        <ele>25.8</ele>
        <time>2021-08-07T13:17:48Z</time>
      </trkpt>
      <trkpt lat="47.92389" lon="-2.49667">
        <ele>25.8</ele>
        <time>2021-08-07T13:17:49Z</time>
      </trkpt>
      <trkpt lat="47.92387" lon="-2.49674">
        <ele>25.8</ele>
        <time>2021-08-07T13:17:50Z</time>
      </trkpt>
      <trkpt lat="47.92385" lon="-2.49681">
        <ele>25.6</ele>
        <time>2021-08-07T13:17:51Z</time>
      </trkpt>
      <trkpt lat="47.92382" lon="-2.49688">
        <ele>25.6</ele>
        <time>2021-08-07T13:17:52Z</time>
      </trkpt>
      <trkpt lat="47.9238" lon="-2.49695">
        <ele>25.6</ele>
        <time>2021-08-07T13:17:53Z</time>
      </trkpt>
      <trkpt lat="47.92378" lon="-2.49702">
        <ele>25.6</ele>
        <time>2021-08-07T13:17:54Z</time>
      </trkpt>
      <trkpt lat="47.92375" lon="-2.49708">
        <ele>25.4</ele>
        <time>2021-08-07T13:17:55Z</time>
      </trkpt>
      <trkpt lat="47.92373" lon="-2.49715">
        <ele>25.4</ele>
        <time>2021-08-07T13:17:56Z</time>
      </trkpt>
      <trkpt lat="47.9237" lon="-2.49728">
        <ele>25.6</ele>
        <time>2021-08-07T13:17:58Z</time>
      </trkpt>
      <trkpt lat="47.92369" lon="-2.49734">
        <ele>25.6</ele>
        <time>2021-08-07T13:17:59Z</time>
      </trkpt>
      <trkpt lat="47.92368" lon="-2.49741">
        <ele>25.6</ele>
        <time>2021-08-07T13:18:00Z</time>
      </trkpt>
      <trkpt lat="47.92367" lon="-2.49747">
        <ele>25.8</ele>
        <time>2021-08-07T13:18:01Z</time>
      </trkpt>
      <trkpt lat="47.92365" lon="-2.49753">
        <ele>25.8</ele>
        <time>2021-08-07T13:18:02Z</time>
      </trkpt>
      <trkpt lat="47.92364" lon="-2.49759">
        <ele>25.6</ele>
        <time>2021-08-07T13:18:03Z</time>
      </trkpt>
      <trkpt lat="47.92363" lon="-2.49764">
        <ele>25.6</ele>
        <time>2021-08-07T13:18:04Z</time>
      </trkpt>
      <trkpt lat="47.92361" lon="-2.49769">
        <ele>25.6</ele>
        <time>2021-08-07T13:18:05Z</time>
      </trkpt>
      <trkpt lat="47.9236" lon="-2.49774">
        <ele>25.8</ele>
        <time>2021-08-07T13:18:06Z</time>
      </trkpt>
      <trkpt lat="47.9236" lon="-2.49779">
        <ele>25.8</ele>
        <time>2021-08-07T13:18:07Z</time>
      </trkpt>
      <trkpt lat="47.92361" lon="-2.49788">
        <ele>25.8</ele>
        <time>2021-08-07T13:18:09Z</time>
      </trkpt>
      <trkpt lat="47.92361" lon="-2.49792">
        <ele>26</ele>
        <time>2021-08-07T13:18:10Z</time>
      </trkpt>
      <trkpt lat="47.92361" lon="-2.49794">
        <ele>26</ele>
        <time>2021-08-07T13:18:11Z</time>
      </trkpt>
      <trkpt lat="47.92361" lon="-2.49794">
        <ele>26</ele>
        <time>2021-08-07T13:18:12Z</time>
      </trkpt>
      <trkpt lat="47.92351" lon="-2.49802">
        <ele>27</ele>
        <time>2021-08-07T13:19:24Z</time>
      </trkpt>
      <trkpt lat="47.92348" lon="-2.49804">
        <ele>27</ele>
        <time>2021-08-07T13:19:25Z</time>
      </trkpt>
      <trkpt lat="47.92345" lon="-2.49807">
        <ele>27</ele>
        <time>2021-08-07T13:19:26Z</time>
      </trkpt>
      <trkpt lat="47.92338" lon="-2.49814">
        <ele>26.8</ele>
        <time>2021-08-07T13:19:28Z</time>
      </trkpt>
      <trkpt lat="47.92335" lon="-2.49817">
        <ele>26.8</ele>
        <time>2021-08-07T13:19:29Z</time>
      </trkpt>
      <trkpt lat="47.92331" lon="-2.4982">
        <ele>26.8</ele>
        <time>2021-08-07T13:19:30Z</time>
      </trkpt>
      <trkpt lat="47.92327" lon="-2.49824">
        <ele>26.8</ele>
        <time>2021-08-07T13:19:31Z</time>
      </trkpt>
      <trkpt lat="47.92324" lon="-2.49828">
        <ele>26.4</ele>
        <time>2021-08-07T13:19:32Z</time>
      </trkpt>
      <trkpt lat="47.9232" lon="-2.49832">
        <ele>26.2</ele>
        <time>2021-08-07T13:19:33Z</time>
      </trkpt>
      <trkpt lat="47.92317" lon="-2.49836">
        <ele>26</ele>
        <time>2021-08-07T13:19:34Z</time>
      </trkpt>
      <trkpt lat="47.92314" lon="-2.49841">
        <ele>25.8</ele>
        <time>2021-08-07T13:19:35Z</time>
      </trkpt>
      <trkpt lat="47.9231" lon="-2.49846">
        <ele>25.8</ele>
        <time>2021-08-07T13:19:36Z</time>
      </trkpt>
      <trkpt lat="47.92307" lon="-2.49852">
        <ele>25.8</ele>
        <time>2021-08-07T13:19:37Z</time>
      </trkpt>
      <trkpt lat="47.92304" lon="-2.49857">
        <ele>25.8</ele>
        <time>2021-08-07T13:19:38Z</time>
      </trkpt>
      <trkpt lat="47.92301" lon="-2.49863">
        <ele>25.6</ele>
        <time>2021-08-07T13:19:39Z</time>
      </trkpt>
      <trkpt lat="47.92298" lon="-2.49869">
        <ele>25.6</ele>
        <time>2021-08-07T13:19:40Z</time>
      </trkpt>
      <trkpt lat="47.92296" lon="-2.49875">
        <ele>25.6</ele>
        <time>2021-08-07T13:19:41Z</time>
      </trkpt>
      <trkpt lat="47.92293" lon="-2.49882">
        <ele>25.6</ele>
        <time>2021-08-07T13:19:42Z</time>
      </trkpt>
      <trkpt lat="47.92291" lon="-2.49888">
        <ele>25.6</ele>
        <time>2021-08-07T13:19:43Z</time>
      </trkpt>
      <trkpt lat="47.92289" lon="-2.49895">
        <ele>25.6</ele>
        <time>2021-08-07T13:19:44Z</time>
      </trkpt>
      <trkpt lat="47.92284" lon="-2.49909">
        <ele>25.6</ele>
        <time>2021-08-07T13:19:46Z</time>
      </trkpt>
      <trkpt lat="47.92282" lon="-2.49916">
        <ele>25.4</ele>
        <time>2021-08-07T13:19:47Z</time>
      </trkpt>
      <trkpt lat="47.9228" lon="-2.49924">
        <ele>25.4</ele>
        <time>2021-08-07T13:19:48Z</time>
      </trkpt>
      <trkpt lat="47.92278" lon="-2.49931">
        <ele>25.4</ele>
        <time>2021-08-07T13:19:49Z</time>
      </trkpt>
      <trkpt lat="47.92276" lon="-2.49939">
        <ele>25.4</ele>
        <time>2021-08-07T13:19:50Z</time>
      </trkpt>
      <trkpt lat="47.92274" lon="-2.49946">
        <ele>25.4</ele>
        <time>2021-08-07T13:19:51Z</time>
      </trkpt>
      <trkpt lat="47.92272" lon="-2.49954">
        <ele>25.4</ele>
        <time>2021-08-07T13:19:52Z</time>
      </trkpt>
      <trkpt lat="47.9227" lon="-2.49961">
        <ele>25.4</ele>
        <time>2021-08-07T13:19:53Z</time>
      </trkpt>
      <trkpt lat="47.92269" lon="-2.49969">
        <ele>25.2</ele>
        <time>2021-08-07T13:19:54Z</time>
      </trkpt>
      <trkpt lat="47.92267" lon="-2.49985">
        <ele>25.2</ele>
        <time>2021-08-07T13:19:56Z</time>
      </trkpt>
      <trkpt lat="47.92267" lon="-2.49993">
        <ele>25.2</ele>
        <time>2021-08-07T13:19:57Z</time>
      </trkpt>
      <trkpt lat="47.92267" lon="-2.50001">
        <ele>25.2</ele>
        <time>2021-08-07T13:19:58Z</time>
      </trkpt>
      <trkpt lat="47.92267" lon="-2.50009">
        <ele>25</ele>
        <time>2021-08-07T13:19:59Z</time>
      </trkpt>
      <trkpt lat="47.92268" lon="-2.50016">
        <ele>25</ele>
        <time>2021-08-07T13:20:00Z</time>
      </trkpt>
      <trkpt lat="47.92269" lon="-2.50024">
        <ele>24.8</ele>
        <time>2021-08-07T13:20:01Z</time>
      </trkpt>
      <trkpt lat="47.9227" lon="-2.50031">
        <ele>24.8</ele>
        <time>2021-08-07T13:20:02Z</time>
      </trkpt>
      <trkpt lat="47.92271" lon="-2.50039">
        <ele>24.8</ele>
        <time>2021-08-07T13:20:03Z</time>
      </trkpt>
      <trkpt lat="47.92273" lon="-2.50046">
        <ele>24.8</ele>
        <time>2021-08-07T13:20:04Z</time>
      </trkpt>
      <trkpt lat="47.92274" lon="-2.50054">
        <ele>24.8</ele>
        <time>2021-08-07T13:20:05Z</time>
      </trkpt>
      <trkpt lat="47.92277" lon="-2.50061">
        <ele>24.8</ele>
        <time>2021-08-07T13:20:06Z</time>
      </trkpt>
      <trkpt lat="47.92279" lon="-2.50068">
        <ele>24.8</ele>
        <time>2021-08-07T13:20:07Z</time>
      </trkpt>
      <trkpt lat="47.92282" lon="-2.50074">
        <ele>24.8</ele>
        <time>2021-08-07T13:20:08Z</time>
      </trkpt>
      <trkpt lat="47.92285" lon="-2.50081">
        <ele>24.8</ele>
        <time>2021-08-07T13:20:09Z</time>
      </trkpt>
      <trkpt lat="47.92288" lon="-2.50087">
        <ele>24.8</ele>
        <time>2021-08-07T13:20:10Z</time>
      </trkpt>
      <trkpt lat="47.92292" lon="-2.50092">
        <ele>24.8</ele>
        <time>2021-08-07T13:20:11Z</time>
      </trkpt>
      <trkpt lat="47.92295" lon="-2.50098">
        <ele>24.8</ele>
        <time>2021-08-07T13:20:12Z</time>
      </trkpt>
      <trkpt lat="47.92299" lon="-2.50103">
        <ele>24.8</ele>
        <time>2021-08-07T13:20:13Z</time>
      </trkpt>
      <trkpt lat="47.92304" lon="-2.50108">
        <ele>24.8</ele>
        <time>2021-08-07T13:20:14Z</time>
      </trkpt>
      <trkpt lat="47.92308" lon="-2.50112">
        <ele>24.8</ele>
        <time>2021-08-07T13:20:15Z</time>
      </trkpt>
      <trkpt lat="47.92313" lon="-2.50116">
        <ele>24.8</ele>
        <time>2021-08-07T13:20:16Z</time>
      </trkpt>
      <trkpt lat="47.92318" lon="-2.50119">
        <ele>24.8</ele>
        <time>2021-08-07T13:20:17Z</time>
      </trkpt>
      <trkpt lat="47.92323" lon="-2.50121">
        <ele>24.8</ele>
        <time>2021-08-07T13:20:18Z</time>
      </trkpt>
      <trkpt lat="47.92328" lon="-2.50124">
        <ele>24.8</ele>
        <time>2021-08-07T13:20:19Z</time>
      </trkpt>
      <trkpt lat="47.92333" lon="-2.50127">
        <ele>24.8</ele>
        <time>2021-08-07T13:20:20Z</time>
      </trkpt>
      <trkpt lat="47.92338" lon="-2.50129">
        <ele>24.8</ele>
        <time>2021-08-07T13:20:21Z</time>
      </trkpt>
      <trkpt lat="47.92343" lon="-2.50131">
        <ele>24.8</ele>
        <time>2021-08-07T13:20:22Z</time>
      </trkpt>
      <trkpt lat="47.92348" lon="-2.50134">
        <ele>24.8</ele>
        <time>2021-08-07T13:20:23Z</time>
      </trkpt>
      <trkpt lat="47.92353" lon="-2.50137">
        <ele>24.8</ele>
        <time>2021-08-07T13:20:24Z</time>
      </trkpt>
      <trkpt lat="47.92363" lon="-2.50142">
        <ele>24.8</ele>
        <time>2021-08-07T13:20:26Z</time>
      </trkpt>
      <trkpt lat="47.92368" lon="-2.50145">
        <ele>24.8</ele>
        <time>2021-08-07T13:20:27Z</time>
      </trkpt>
      <trkpt lat="47.92373" lon="-2.50148">
        <ele>24.8</ele>
        <time>2021-08-07T13:20:28Z</time>
      </trkpt>
      <trkpt lat="47.92377" lon="-2.50151">
        <ele>25</ele>
        <time>2021-08-07T13:20:29Z</time>
      </trkpt>
      <trkpt lat="47.92382" lon="-2.50154">
        <ele>25</ele>
        <time>2021-08-07T13:20:30Z</time>
      </trkpt>
      <trkpt lat="47.92386" lon="-2.50158">
        <ele>25</ele>
        <time>2021-08-07T13:20:31Z</time>
      </trkpt>
      <trkpt lat="47.9239" lon="-2.50161">
        <ele>25</ele>
        <time>2021-08-07T13:20:32Z</time>
      </trkpt>
      <trkpt lat="47.92394" lon="-2.50163">
        <ele>25.2</ele>
        <time>2021-08-07T13:20:33Z</time>
      </trkpt>
      <trkpt lat="47.92398" lon="-2.50166">
        <ele>25.2</ele>
        <time>2021-08-07T13:20:34Z</time>
      </trkpt>
      <trkpt lat="47.92402" lon="-2.50169">
        <ele>25.2</ele>
        <time>2021-08-07T13:20:35Z</time>
      </trkpt>
      <trkpt lat="47.92406" lon="-2.50173">
        <ele>25.2</ele>
        <time>2021-08-07T13:20:36Z</time>
      </trkpt>
      <trkpt lat="47.9241" lon="-2.50177">
        <ele>25.2</ele>
        <time>2021-08-07T13:20:37Z</time>
      </trkpt>
      <trkpt lat="47.92415" lon="-2.50182">
        <ele>25.2</ele>
        <time>2021-08-07T13:20:38Z</time>
      </trkpt>
      <trkpt lat="47.92419" lon="-2.50187">
        <ele>25.4</ele>
        <time>2021-08-07T13:20:39Z</time>
      </trkpt>
      <trkpt lat="47.92423" lon="-2.50191">
        <ele>25.4</ele>
        <time>2021-08-07T13:20:40Z</time>
      </trkpt>
      <trkpt lat="47.92427" lon="-2.50196">
        <ele>25.4</ele>
        <time>2021-08-07T13:20:41Z</time>
      </trkpt>
      <trkpt lat="47.92432" lon="-2.502">
        <ele>25.4</ele>
        <time>2021-08-07T13:20:42Z</time>
      </trkpt>
      <trkpt lat="47.92436" lon="-2.50204">
        <ele>25.4</ele>
        <time>2021-08-07T13:20:43Z</time>
      </trkpt>
      <trkpt lat="47.9244" lon="-2.50207">
        <ele>25.4</ele>
        <time>2021-08-07T13:20:44Z</time>
      </trkpt>
      <trkpt lat="47.92448" lon="-2.50215">
        <ele>25.2</ele>
        <time>2021-08-07T13:20:46Z</time>
      </trkpt>
      <trkpt lat="47.92453" lon="-2.50219">
        <ele>25.2</ele>
        <time>2021-08-07T13:20:47Z</time>
      </trkpt>
      <trkpt lat="47.92457" lon="-2.50223">
        <ele>25.2</ele>
        <time>2021-08-07T13:20:48Z</time>
      </trkpt>
      <trkpt lat="47.92461" lon="-2.50226">
        <ele>25</ele>
        <time>2021-08-07T13:20:49Z</time>
      </trkpt>
      <trkpt lat="47.92466" lon="-2.5023">
        <ele>25</ele>
        <time>2021-08-07T13:20:50Z</time>
      </trkpt>
      <trkpt lat="47.9247" lon="-2.50234">
        <ele>25</ele>
        <time>2021-08-07T13:20:51Z</time>
      </trkpt>
      <trkpt lat="47.92474" lon="-2.50237">
        <ele>25</ele>
        <time>2021-08-07T13:20:52Z</time>
      </trkpt>
      <trkpt lat="47.92478" lon="-2.50242">
        <ele>24.8</ele>
        <time>2021-08-07T13:20:53Z</time>
      </trkpt>
      <trkpt lat="47.92482" lon="-2.50246">
        <ele>24.8</ele>
        <time>2021-08-07T13:20:54Z</time>
      </trkpt>
      <trkpt lat="47.9249" lon="-2.50256">
        <ele>24.8</ele>
        <time>2021-08-07T13:20:56Z</time>
      </trkpt>
      <trkpt lat="47.92494" lon="-2.50262">
        <ele>24.8</ele>
        <time>2021-08-07T13:20:57Z</time>
      </trkpt>
      <trkpt lat="47.92498" lon="-2.50267">
        <ele>24.8</ele>
        <time>2021-08-07T13:20:58Z</time>
      </trkpt>
      <trkpt lat="47.92502" lon="-2.50273">
        <ele>25</ele>
        <time>2021-08-07T13:20:59Z</time>
      </trkpt>
      <trkpt lat="47.92506" lon="-2.50278">
        <ele>25</ele>
        <time>2021-08-07T13:21:00Z</time>
      </trkpt>
      <trkpt lat="47.9251" lon="-2.50283">
        <ele>25</ele>
        <time>2021-08-07T13:21:01Z</time>
      </trkpt>
      <trkpt lat="47.92514" lon="-2.50288">
        <ele>25</ele>
        <time>2021-08-07T13:21:02Z</time>
      </trkpt>
      <trkpt lat="47.92518" lon="-2.50293">
        <ele>25</ele>
        <time>2021-08-07T13:21:03Z</time>
      </trkpt>
      <trkpt lat="47.92522" lon="-2.50298">
        <ele>25</ele>
        <time>2021-08-07T13:21:04Z</time>
      </trkpt>
      <trkpt lat="47.9253" lon="-2.50307">
        <ele>25</ele>
        <time>2021-08-07T13:21:06Z</time>
      </trkpt>
      <trkpt lat="47.92533" lon="-2.50313">
        <ele>25</ele>
        <time>2021-08-07T13:21:07Z</time>
      </trkpt>
      <trkpt lat="47.92537" lon="-2.50319">
        <ele>25.2</ele>
        <time>2021-08-07T13:21:08Z</time>
      </trkpt>
      <trkpt lat="47.92541" lon="-2.50324">
        <ele>25.2</ele>
        <time>2021-08-07T13:21:09Z</time>
      </trkpt>
      <trkpt lat="47.92545" lon="-2.5033">
        <ele>25.2</ele>
        <time>2021-08-07T13:21:10Z</time>
      </trkpt>
      <trkpt lat="47.92549" lon="-2.50336">
        <ele>25.2</ele>
        <time>2021-08-07T13:21:11Z</time>
      </trkpt>
      <trkpt lat="47.92553" lon="-2.50342">
        <ele>25.2</ele>
        <time>2021-08-07T13:21:12Z</time>
      </trkpt>
      <trkpt lat="47.92557" lon="-2.50348">
        <ele>25.2</ele>
        <time>2021-08-07T13:21:13Z</time>
      </trkpt>
      <trkpt lat="47.92561" lon="-2.50353">
        <ele>25</ele>
        <time>2021-08-07T13:21:14Z</time>
      </trkpt>
      <trkpt lat="47.92569" lon="-2.50365">
        <ele>24.8</ele>
        <time>2021-08-07T13:21:16Z</time>
      </trkpt>
      <trkpt lat="47.92572" lon="-2.50371">
        <ele>24.8</ele>
        <time>2021-08-07T13:21:17Z</time>
      </trkpt>
      <trkpt lat="47.92576" lon="-2.50378">
        <ele>24.8</ele>
        <time>2021-08-07T13:21:18Z</time>
      </trkpt>
      <trkpt lat="47.92579" lon="-2.50385">
        <ele>24.6</ele>
        <time>2021-08-07T13:21:19Z</time>
      </trkpt>
      <trkpt lat="47.92583" lon="-2.50392">
        <ele>24.6</ele>
        <time>2021-08-07T13:21:20Z</time>
      </trkpt>
      <trkpt lat="47.92586" lon="-2.504">
        <ele>24.6</ele>
        <time>2021-08-07T13:21:21Z</time>
      </trkpt>
      <trkpt lat="47.9259" lon="-2.50407">
        <ele>24.6</ele>
        <time>2021-08-07T13:21:22Z</time>
      </trkpt>
      <trkpt lat="47.92594" lon="-2.50413">
        <ele>24.6</ele>
        <time>2021-08-07T13:21:23Z</time>
      </trkpt>
      <trkpt lat="47.92597" lon="-2.5042">
        <ele>24.6</ele>
        <time>2021-08-07T13:21:24Z</time>
      </trkpt>
      <trkpt lat="47.92605" lon="-2.50432">
        <ele>24.6</ele>
        <time>2021-08-07T13:21:26Z</time>
      </trkpt>
      <trkpt lat="47.92609" lon="-2.50438">
        <ele>24.4</ele>
        <time>2021-08-07T13:21:27Z</time>
      </trkpt>
      <trkpt lat="47.92613" lon="-2.50444">
        <ele>24.4</ele>
        <time>2021-08-07T13:21:28Z</time>
      </trkpt>
      <trkpt lat="47.92617" lon="-2.5045">
        <ele>24.4</ele>
        <time>2021-08-07T13:21:29Z</time>
      </trkpt>
      <trkpt lat="47.92621" lon="-2.50456">
        <ele>24.4</ele>
        <time>2021-08-07T13:21:30Z</time>
      </trkpt>
      <trkpt lat="47.92625" lon="-2.50462">
        <ele>24.4</ele>
        <time>2021-08-07T13:21:31Z</time>
      </trkpt>
      <trkpt lat="47.92629" lon="-2.50467">
        <ele>24.4</ele>
        <time>2021-08-07T13:21:32Z</time>
      </trkpt>
      <trkpt lat="47.92633" lon="-2.50473">
        <ele>24.4</ele>
        <time>2021-08-07T13:21:33Z</time>
      </trkpt>
      <trkpt lat="47.92637" lon="-2.50478">
        <ele>24.4</ele>
        <time>2021-08-07T13:21:34Z</time>
      </trkpt>
      <trkpt lat="47.92641" lon="-2.50484">
        <ele>24.4</ele>
        <time>2021-08-07T13:21:35Z</time>
      </trkpt>
      <trkpt lat="47.92645" lon="-2.50489">
        <ele>24.4</ele>
        <time>2021-08-07T13:21:36Z</time>
      </trkpt>
      <trkpt lat="47.92649" lon="-2.50494">
        <ele>24.4</ele>
        <time>2021-08-07T13:21:37Z</time>
      </trkpt>
      <trkpt lat="47.92653" lon="-2.50499">
        <ele>24.4</ele>
        <time>2021-08-07T13:21:38Z</time>
      </trkpt>
      <trkpt lat="47.92657" lon="-2.50504">
        <ele>24.4</ele>
        <time>2021-08-07T13:21:39Z</time>
      </trkpt>
      <trkpt lat="47.92661" lon="-2.50509">
        <ele>24.6</ele>
        <time>2021-08-07T13:21:40Z</time>
      </trkpt>
      <trkpt lat="47.92665" lon="-2.50514">
        <ele>24.4</ele>
        <time>2021-08-07T13:21:41Z</time>
      </trkpt>
      <trkpt lat="47.92669" lon="-2.5052">
        <ele>24.4</ele>
        <time>2021-08-07T13:21:42Z</time>
      </trkpt>
      <trkpt lat="47.92673" lon="-2.50525">
        <ele>24.4</ele>
        <time>2021-08-07T13:21:43Z</time>
      </trkpt>
      <trkpt lat="47.92676" lon="-2.5053">
        <ele>24.4</ele>
        <time>2021-08-07T13:21:44Z</time>
      </trkpt>
      <trkpt lat="47.9268" lon="-2.50535">
        <ele>24.4</ele>
        <time>2021-08-07T13:21:45Z</time>
      </trkpt>
      <trkpt lat="47.92684" lon="-2.5054">
        <ele>24.4</ele>
        <time>2021-08-07T13:21:46Z</time>
      </trkpt>
      <trkpt lat="47.92687" lon="-2.50546">
        <ele>24.4</ele>
        <time>2021-08-07T13:21:47Z</time>
      </trkpt>
      <trkpt lat="47.92691" lon="-2.50552">
        <ele>24.6</ele>
        <time>2021-08-07T13:21:48Z</time>
      </trkpt>
      <trkpt lat="47.92694" lon="-2.50558">
        <ele>24.6</ele>
        <time>2021-08-07T13:21:49Z</time>
      </trkpt>
      <trkpt lat="47.92697" lon="-2.50565">
        <ele>24.6</ele>
        <time>2021-08-07T13:21:50Z</time>
      </trkpt>
      <trkpt lat="47.92701" lon="-2.50572">
        <ele>24.6</ele>
        <time>2021-08-07T13:21:51Z</time>
      </trkpt>
      <trkpt lat="47.92704" lon="-2.50578">
        <ele>24.6</ele>
        <time>2021-08-07T13:21:52Z</time>
      </trkpt>
      <trkpt lat="47.92706" lon="-2.50585">
        <ele>24.6</ele>
        <time>2021-08-07T13:21:53Z</time>
      </trkpt>
      <trkpt lat="47.92709" lon="-2.50592">
        <ele>24.6</ele>
        <time>2021-08-07T13:21:54Z</time>
      </trkpt>
      <trkpt lat="47.92712" lon="-2.506">
        <ele>24.6</ele>
        <time>2021-08-07T13:21:55Z</time>
      </trkpt>
      <trkpt lat="47.92717" lon="-2.50614">
        <ele>24.6</ele>
        <time>2021-08-07T13:21:57Z</time>
      </trkpt>
      <trkpt lat="47.9272" lon="-2.50621">
        <ele>24.6</ele>
        <time>2021-08-07T13:21:58Z</time>
      </trkpt>
      <trkpt lat="47.92722" lon="-2.50628">
        <ele>24.6</ele>
        <time>2021-08-07T13:21:59Z</time>
      </trkpt>
      <trkpt lat="47.92725" lon="-2.50635">
        <ele>24.6</ele>
        <time>2021-08-07T13:22:00Z</time>
      </trkpt>
      <trkpt lat="47.92727" lon="-2.50642">
        <ele>24.6</ele>
        <time>2021-08-07T13:22:01Z</time>
      </trkpt>
      <trkpt lat="47.9273" lon="-2.50649">
        <ele>24.6</ele>
        <time>2021-08-07T13:22:02Z</time>
      </trkpt>
      <trkpt lat="47.92732" lon="-2.50657">
        <ele>24.6</ele>
        <time>2021-08-07T13:22:03Z</time>
      </trkpt>
      <trkpt lat="47.92734" lon="-2.50664">
        <ele>24.8</ele>
        <time>2021-08-07T13:22:04Z</time>
      </trkpt>
      <trkpt lat="47.92738" lon="-2.50679">
        <ele>24.8</ele>
        <time>2021-08-07T13:22:06Z</time>
      </trkpt>
      <trkpt lat="47.92739" lon="-2.50686">
        <ele>24.8</ele>
        <time>2021-08-07T13:22:07Z</time>
      </trkpt>
      <trkpt lat="47.92741" lon="-2.50693">
        <ele>24.8</ele>
        <time>2021-08-07T13:22:08Z</time>
      </trkpt>
      <trkpt lat="47.92742" lon="-2.50701">
        <ele>24.8</ele>
        <time>2021-08-07T13:22:09Z</time>
      </trkpt>
      <trkpt lat="47.92743" lon="-2.50709">
        <ele>24.8</ele>
        <time>2021-08-07T13:22:10Z</time>
      </trkpt>
      <trkpt lat="47.92744" lon="-2.50716">
        <ele>24.8</ele>
        <time>2021-08-07T13:22:11Z</time>
      </trkpt>
      <trkpt lat="47.92744" lon="-2.50723">
        <ele>24.8</ele>
        <time>2021-08-07T13:22:12Z</time>
      </trkpt>
      <trkpt lat="47.92745" lon="-2.50731">
        <ele>24.8</ele>
        <time>2021-08-07T13:22:13Z</time>
      </trkpt>
      <trkpt lat="47.92746" lon="-2.50746">
        <ele>24.8</ele>
        <time>2021-08-07T13:22:15Z</time>
      </trkpt>
      <trkpt lat="47.92747" lon="-2.50754">
        <ele>24.8</ele>
        <time>2021-08-07T13:22:16Z</time>
      </trkpt>
      <trkpt lat="47.92748" lon="-2.50761">
        <ele>24.8</ele>
        <time>2021-08-07T13:22:17Z</time>
      </trkpt>
      <trkpt lat="47.92748" lon="-2.50768">
        <ele>24.8</ele>
        <time>2021-08-07T13:22:18Z</time>
      </trkpt>
      <trkpt lat="47.92749" lon="-2.50775">
        <ele>24.8</ele>
        <time>2021-08-07T13:22:19Z</time>
      </trkpt>
      <trkpt lat="47.9275" lon="-2.50783">
        <ele>24.8</ele>
        <time>2021-08-07T13:22:20Z</time>
      </trkpt>
      <trkpt lat="47.9275" lon="-2.50791">
        <ele>24.8</ele>
        <time>2021-08-07T13:22:21Z</time>
      </trkpt>
      <trkpt lat="47.92751" lon="-2.50798">
        <ele>24.8</ele>
        <time>2021-08-07T13:22:22Z</time>
      </trkpt>
      <trkpt lat="47.92752" lon="-2.50813">
        <ele>24.8</ele>
        <time>2021-08-07T13:22:24Z</time>
      </trkpt>
      <trkpt lat="47.92753" lon="-2.5082">
        <ele>24.8</ele>
        <time>2021-08-07T13:22:25Z</time>
      </trkpt>
      <trkpt lat="47.92755" lon="-2.50827">
        <ele>24.8</ele>
        <time>2021-08-07T13:22:26Z</time>
      </trkpt>
      <trkpt lat="47.92756" lon="-2.50834">
        <ele>24.8</ele>
        <time>2021-08-07T13:22:27Z</time>
      </trkpt>
      <trkpt lat="47.92758" lon="-2.50843">
        <ele>24.8</ele>
        <time>2021-08-07T13:22:28Z</time>
      </trkpt>
      <trkpt lat="47.9276" lon="-2.50851">
        <ele>24.8</ele>
        <time>2021-08-07T13:22:29Z</time>
      </trkpt>
      <trkpt lat="47.92761" lon="-2.5086">
        <ele>24.8</ele>
        <time>2021-08-07T13:22:30Z</time>
      </trkpt>
      <trkpt lat="47.92763" lon="-2.50868">
        <ele>24.8</ele>
        <time>2021-08-07T13:22:31Z</time>
      </trkpt>
      <trkpt lat="47.92767" lon="-2.50882">
        <ele>24.8</ele>
        <time>2021-08-07T13:22:33Z</time>
      </trkpt>
      <trkpt lat="47.92769" lon="-2.50888">
        <ele>24.8</ele>
        <time>2021-08-07T13:22:34Z</time>
      </trkpt>
      <trkpt lat="47.92771" lon="-2.50894">
        <ele>24.8</ele>
        <time>2021-08-07T13:22:35Z</time>
      </trkpt>
      <trkpt lat="47.92772" lon="-2.50902">
        <ele>24.8</ele>
        <time>2021-08-07T13:22:36Z</time>
      </trkpt>
      <trkpt lat="47.92775" lon="-2.50908">
        <ele>24.8</ele>
        <time>2021-08-07T13:22:37Z</time>
      </trkpt>
      <trkpt lat="47.92777" lon="-2.50917">
        <ele>24.8</ele>
        <time>2021-08-07T13:22:38Z</time>
      </trkpt>
      <trkpt lat="47.92779" lon="-2.50926">
        <ele>24.8</ele>
        <time>2021-08-07T13:22:39Z</time>
      </trkpt>
      <trkpt lat="47.9278" lon="-2.50935">
        <ele>24.8</ele>
        <time>2021-08-07T13:22:40Z</time>
      </trkpt>
      <trkpt lat="47.92784" lon="-2.50951">
        <ele>24.8</ele>
        <time>2021-08-07T13:22:42Z</time>
      </trkpt>
      <trkpt lat="47.92786" lon="-2.50958">
        <ele>24.8</ele>
        <time>2021-08-07T13:22:43Z</time>
      </trkpt>
      <trkpt lat="47.92788" lon="-2.50966">
        <ele>24.8</ele>
        <time>2021-08-07T13:22:44Z</time>
      </trkpt>
      <trkpt lat="47.9279" lon="-2.50972">
        <ele>25</ele>
        <time>2021-08-07T13:22:45Z</time>
      </trkpt>
      <trkpt lat="47.92793" lon="-2.50979">
        <ele>25</ele>
        <time>2021-08-07T13:22:46Z</time>
      </trkpt>
      <trkpt lat="47.92795" lon="-2.50986">
        <ele>25</ele>
        <time>2021-08-07T13:22:47Z</time>
      </trkpt>
      <trkpt lat="47.92797" lon="-2.50993">
        <ele>25.2</ele>
        <time>2021-08-07T13:22:48Z</time>
      </trkpt>
      <trkpt lat="47.92799" lon="-2.51">
        <ele>25.2</ele>
        <time>2021-08-07T13:22:49Z</time>
      </trkpt>
      <trkpt lat="47.92803" lon="-2.51015">
        <ele>25.2</ele>
        <time>2021-08-07T13:22:51Z</time>
      </trkpt>
      <trkpt lat="47.92805" lon="-2.51022">
        <ele>25.2</ele>
        <time>2021-08-07T13:22:52Z</time>
      </trkpt>
      <trkpt lat="47.92807" lon="-2.5103">
        <ele>25.2</ele>
        <time>2021-08-07T13:22:53Z</time>
      </trkpt>
      <trkpt lat="47.92809" lon="-2.51038">
        <ele>25.2</ele>
        <time>2021-08-07T13:22:54Z</time>
      </trkpt>
      <trkpt lat="47.92812" lon="-2.51046">
        <ele>25.2</ele>
        <time>2021-08-07T13:22:55Z</time>
      </trkpt>
      <trkpt lat="47.92814" lon="-2.51054">
        <ele>25.2</ele>
        <time>2021-08-07T13:22:56Z</time>
      </trkpt>
      <trkpt lat="47.92816" lon="-2.51061">
        <ele>25.2</ele>
        <time>2021-08-07T13:22:57Z</time>
      </trkpt>
      <trkpt lat="47.92819" lon="-2.51068">
        <ele>25.2</ele>
        <time>2021-08-07T13:22:58Z</time>
      </trkpt>
      <trkpt lat="47.92824" lon="-2.51082">
        <ele>25.2</ele>
        <time>2021-08-07T13:23:00Z</time>
      </trkpt>
      <trkpt lat="47.92827" lon="-2.5109">
        <ele>25.2</ele>
        <time>2021-08-07T13:23:01Z</time>
      </trkpt>
      <trkpt lat="47.92829" lon="-2.51097">
        <ele>25.2</ele>
        <time>2021-08-07T13:23:02Z</time>
      </trkpt>
      <trkpt lat="47.92832" lon="-2.51104">
        <ele>25.2</ele>
        <time>2021-08-07T13:23:03Z</time>
      </trkpt>
      <trkpt lat="47.92834" lon="-2.51111">
        <ele>25.2</ele>
        <time>2021-08-07T13:23:04Z</time>
      </trkpt>
      <trkpt lat="47.92837" lon="-2.51117">
        <ele>25</ele>
        <time>2021-08-07T13:23:05Z</time>
      </trkpt>
      <trkpt lat="47.9284" lon="-2.51125">
        <ele>25</ele>
        <time>2021-08-07T13:23:06Z</time>
      </trkpt>
      <trkpt lat="47.92843" lon="-2.51132">
        <ele>25.2</ele>
        <time>2021-08-07T13:23:07Z</time>
      </trkpt>
      <trkpt lat="47.92848" lon="-2.51147">
        <ele>25.2</ele>
        <time>2021-08-07T13:23:09Z</time>
      </trkpt>
      <trkpt lat="47.92851" lon="-2.51154">
        <ele>25.2</ele>
        <time>2021-08-07T13:23:10Z</time>
      </trkpt>
      <trkpt lat="47.92854" lon="-2.5116">
        <ele>25.2</ele>
        <time>2021-08-07T13:23:11Z</time>
      </trkpt>
      <trkpt lat="47.92856" lon="-2.51167">
        <ele>25.2</ele>
        <time>2021-08-07T13:23:12Z</time>
      </trkpt>
      <trkpt lat="47.92859" lon="-2.51173">
        <ele>25.2</ele>
        <time>2021-08-07T13:23:13Z</time>
      </trkpt>
      <trkpt lat="47.92862" lon="-2.51179">
        <ele>25.4</ele>
        <time>2021-08-07T13:23:14Z</time>
      </trkpt>
      <trkpt lat="47.92865" lon="-2.51185">
        <ele>25.4</ele>
        <time>2021-08-07T13:23:15Z</time>
      </trkpt>
      <trkpt lat="47.92868" lon="-2.5119">
        <ele>25.4</ele>
        <time>2021-08-07T13:23:16Z</time>
      </trkpt>
      <trkpt lat="47.92873" lon="-2.51201">
        <ele>25.4</ele>
        <time>2021-08-07T13:23:18Z</time>
      </trkpt>
      <trkpt lat="47.92876" lon="-2.51207">
        <ele>25.4</ele>
        <time>2021-08-07T13:23:19Z</time>
      </trkpt>
      <trkpt lat="47.92878" lon="-2.51212">
        <ele>25.4</ele>
        <time>2021-08-07T13:23:20Z</time>
      </trkpt>
      <trkpt lat="47.92881" lon="-2.51218">
        <ele>25.4</ele>
        <time>2021-08-07T13:23:21Z</time>
      </trkpt>
      <trkpt lat="47.92883" lon="-2.51223">
        <ele>25.4</ele>
        <time>2021-08-07T13:23:22Z</time>
      </trkpt>
      <trkpt lat="47.92885" lon="-2.51228">
        <ele>25.6</ele>
        <time>2021-08-07T13:23:23Z</time>
      </trkpt>
      <trkpt lat="47.92887" lon="-2.51232">
        <ele>25.6</ele>
        <time>2021-08-07T13:23:24Z</time>
      </trkpt>
      <trkpt lat="47.92888" lon="-2.51236">
        <ele>25.8</ele>
        <time>2021-08-07T13:23:25Z</time>
      </trkpt>
      <trkpt lat="47.92889" lon="-2.5124">
        <ele>25.8</ele>
        <time>2021-08-07T13:23:26Z</time>
      </trkpt>
      <trkpt lat="47.92889" lon="-2.51244">
        <ele>25.8</ele>
        <time>2021-08-07T13:23:27Z</time>
      </trkpt>
      <trkpt lat="47.9289" lon="-2.51246">
        <ele>26</ele>
        <time>2021-08-07T13:23:28Z</time>
      </trkpt>
      <trkpt lat="47.92891" lon="-2.51248">
        <ele>26</ele>
        <time>2021-08-07T13:23:29Z</time>
      </trkpt>
      <trkpt lat="47.92891" lon="-2.5125">
        <ele>26</ele>
        <time>2021-08-07T13:23:30Z</time>
      </trkpt>
      <trkpt lat="47.92892" lon="-2.51251">
        <ele>26</ele>
        <time>2021-08-07T13:23:31Z</time>
      </trkpt>
      <trkpt lat="47.92892" lon="-2.51252">
        <ele>26.2</ele>
        <time>2021-08-07T13:23:32Z</time>
      </trkpt>
      <trkpt lat="47.92892" lon="-2.51255">
        <ele>26.2</ele>
        <time>2021-08-07T13:23:33Z</time>
      </trkpt>
      <trkpt lat="47.92893" lon="-2.51258">
        <ele>26.2</ele>
        <time>2021-08-07T13:23:34Z</time>
      </trkpt>
      <trkpt lat="47.92894" lon="-2.51263">
        <ele>26.2</ele>
        <time>2021-08-07T13:23:36Z</time>
      </trkpt>
      <trkpt lat="47.92896" lon="-2.51265">
        <ele>26.2</ele>
        <time>2021-08-07T13:23:37Z</time>
      </trkpt>
      <trkpt lat="47.92897" lon="-2.51266">
        <ele>26.2</ele>
        <time>2021-08-07T13:23:38Z</time>
      </trkpt>
      <trkpt lat="47.92899" lon="-2.51268">
        <ele>26.2</ele>
        <time>2021-08-07T13:23:39Z</time>
      </trkpt>
      <trkpt lat="47.92901" lon="-2.51271">
        <ele>26.2</ele>
        <time>2021-08-07T13:23:40Z</time>
      </trkpt>
      <trkpt lat="47.92904" lon="-2.51273">
        <ele>26.2</ele>
        <time>2021-08-07T13:23:41Z</time>
      </trkpt>
      <trkpt lat="47.92906" lon="-2.51276">
        <ele>26.2</ele>
        <time>2021-08-07T13:23:42Z</time>
      </trkpt>
      <trkpt lat="47.9291" lon="-2.51281">
        <ele>26</ele>
        <time>2021-08-07T13:23:44Z</time>
      </trkpt>
      <trkpt lat="47.92913" lon="-2.51283">
        <ele>25.8</ele>
        <time>2021-08-07T13:23:45Z</time>
      </trkpt>
      <trkpt lat="47.92915" lon="-2.51285">
        <ele>25.8</ele>
        <time>2021-08-07T13:23:46Z</time>
      </trkpt>
      <trkpt lat="47.92917" lon="-2.51287">
        <ele>25.8</ele>
        <time>2021-08-07T13:23:47Z</time>
      </trkpt>
      <trkpt lat="47.92919" lon="-2.5129">
        <ele>25.8</ele>
        <time>2021-08-07T13:23:48Z</time>
      </trkpt>
      <trkpt lat="47.92921" lon="-2.51293">
        <ele>25.8</ele>
        <time>2021-08-07T13:23:49Z</time>
      </trkpt>
      <trkpt lat="47.92923" lon="-2.51297">
        <ele>25.8</ele>
        <time>2021-08-07T13:23:50Z</time>
      </trkpt>
      <trkpt lat="47.92926" lon="-2.51301">
        <ele>25.8</ele>
        <time>2021-08-07T13:23:51Z</time>
      </trkpt>
      <trkpt lat="47.9293" lon="-2.5131">
        <ele>25.8</ele>
        <time>2021-08-07T13:23:53Z</time>
      </trkpt>
      <trkpt lat="47.92933" lon="-2.51314">
        <ele>26</ele>
        <time>2021-08-07T13:23:54Z</time>
      </trkpt>
      <trkpt lat="47.92936" lon="-2.51319">
        <ele>26</ele>
        <time>2021-08-07T13:23:55Z</time>
      </trkpt>
      <trkpt lat="47.92938" lon="-2.51324">
        <ele>26</ele>
        <time>2021-08-07T13:23:56Z</time>
      </trkpt>
      <trkpt lat="47.92941" lon="-2.51329">
        <ele>26</ele>
        <time>2021-08-07T13:23:57Z</time>
      </trkpt>
      <trkpt lat="47.92944" lon="-2.51334">
        <ele>26</ele>
        <time>2021-08-07T13:23:58Z</time>
      </trkpt>
      <trkpt lat="47.92946" lon="-2.51338">
        <ele>26</ele>
        <time>2021-08-07T13:23:59Z</time>
      </trkpt>
      <trkpt lat="47.92949" lon="-2.51343">
        <ele>26</ele>
        <time>2021-08-07T13:24:00Z</time>
      </trkpt>
      <trkpt lat="47.92951" lon="-2.51347">
        <ele>26</ele>
        <time>2021-08-07T13:24:01Z</time>
      </trkpt>
      <trkpt lat="47.92954" lon="-2.51351">
        <ele>26</ele>
        <time>2021-08-07T13:24:02Z</time>
      </trkpt>
      <trkpt lat="47.92955" lon="-2.51355">
        <ele>26</ele>
        <time>2021-08-07T13:24:03Z</time>
      </trkpt>
      <trkpt lat="47.92957" lon="-2.51358">
        <ele>26</ele>
        <time>2021-08-07T13:24:04Z</time>
      </trkpt>
      <trkpt lat="47.92959" lon="-2.51361">
        <ele>25.8</ele>
        <time>2021-08-07T13:24:05Z</time>
      </trkpt>
      <trkpt lat="47.92961" lon="-2.51364">
        <ele>25.8</ele>
        <time>2021-08-07T13:24:06Z</time>
      </trkpt>
      <trkpt lat="47.92963" lon="-2.51369">
        <ele>25.8</ele>
        <time>2021-08-07T13:24:07Z</time>
      </trkpt>
      <trkpt lat="47.92964" lon="-2.51373">
        <ele>25.8</ele>
        <time>2021-08-07T13:24:08Z</time>
      </trkpt>
      <trkpt lat="47.92967" lon="-2.51377">
        <ele>25.8</ele>
        <time>2021-08-07T13:24:09Z</time>
      </trkpt>
      <trkpt lat="47.92969" lon="-2.51381">
        <ele>25.8</ele>
        <time>2021-08-07T13:24:10Z</time>
      </trkpt>
      <trkpt lat="47.92973" lon="-2.51389">
        <ele>25.8</ele>
        <time>2021-08-07T13:24:12Z</time>
      </trkpt>
      <trkpt lat="47.92976" lon="-2.51393">
        <ele>25.8</ele>
        <time>2021-08-07T13:24:13Z</time>
      </trkpt>
      <trkpt lat="47.92978" lon="-2.51398">
        <ele>25.8</ele>
        <time>2021-08-07T13:24:14Z</time>
      </trkpt>
      <trkpt lat="47.92981" lon="-2.51403">
        <ele>25.8</ele>
        <time>2021-08-07T13:24:15Z</time>
      </trkpt>
      <trkpt lat="47.92983" lon="-2.51408">
        <ele>25.8</ele>
        <time>2021-08-07T13:24:16Z</time>
      </trkpt>
      <trkpt lat="47.92986" lon="-2.51412">
        <ele>25.8</ele>
        <time>2021-08-07T13:24:17Z</time>
      </trkpt>
      <trkpt lat="47.92988" lon="-2.51417">
        <ele>25.8</ele>
        <time>2021-08-07T13:24:18Z</time>
      </trkpt>
      <trkpt lat="47.92991" lon="-2.51422">
        <ele>25.6</ele>
        <time>2021-08-07T13:24:19Z</time>
      </trkpt>
      <trkpt lat="47.92994" lon="-2.51427">
        <ele>25.6</ele>
        <time>2021-08-07T13:24:20Z</time>
      </trkpt>
      <trkpt lat="47.92996" lon="-2.51432">
        <ele>25.6</ele>
        <time>2021-08-07T13:24:21Z</time>
      </trkpt>
      <trkpt lat="47.92999" lon="-2.51436">
        <ele>25.6</ele>
        <time>2021-08-07T13:24:22Z</time>
      </trkpt>
      <trkpt lat="47.93002" lon="-2.51441">
        <ele>25.6</ele>
        <time>2021-08-07T13:24:23Z</time>
      </trkpt>
      <trkpt lat="47.93005" lon="-2.51445">
        <ele>25.6</ele>
        <time>2021-08-07T13:24:24Z</time>
      </trkpt>
      <trkpt lat="47.93008" lon="-2.51449">
        <ele>25.6</ele>
        <time>2021-08-07T13:24:25Z</time>
      </trkpt>
      <trkpt lat="47.9301" lon="-2.51453">
        <ele>25.6</ele>
        <time>2021-08-07T13:24:26Z</time>
      </trkpt>
      <trkpt lat="47.93013" lon="-2.51457">
        <ele>25.6</ele>
        <time>2021-08-07T13:24:27Z</time>
      </trkpt>
      <trkpt lat="47.93015" lon="-2.5146">
        <ele>25.6</ele>
        <time>2021-08-07T13:24:28Z</time>
      </trkpt>
      <trkpt lat="47.93019" lon="-2.51467">
        <ele>25.8</ele>
        <time>2021-08-07T13:24:30Z</time>
      </trkpt>
      <trkpt lat="47.93021" lon="-2.5147">
        <ele>25.8</ele>
        <time>2021-08-07T13:24:31Z</time>
      </trkpt>
      <trkpt lat="47.93024" lon="-2.51474">
        <ele>25.8</ele>
        <time>2021-08-07T13:24:32Z</time>
      </trkpt>
      <trkpt lat="47.93026" lon="-2.51478">
        <ele>25.8</ele>
        <time>2021-08-07T13:24:33Z</time>
      </trkpt>
      <trkpt lat="47.93028" lon="-2.51482">
        <ele>26</ele>
        <time>2021-08-07T13:24:34Z</time>
      </trkpt>
      <trkpt lat="47.93031" lon="-2.51487">
        <ele>26</ele>
        <time>2021-08-07T13:24:35Z</time>
      </trkpt>
      <trkpt lat="47.93033" lon="-2.51491">
        <ele>26</ele>
        <time>2021-08-07T13:24:36Z</time>
      </trkpt>
      <trkpt lat="47.93034" lon="-2.51495">
        <ele>26</ele>
        <time>2021-08-07T13:24:37Z</time>
      </trkpt>
      <trkpt lat="47.93036" lon="-2.51499">
        <ele>26</ele>
        <time>2021-08-07T13:24:38Z</time>
      </trkpt>
      <trkpt lat="47.93038" lon="-2.51502">
        <ele>26</ele>
        <time>2021-08-07T13:24:39Z</time>
      </trkpt>
      <trkpt lat="47.9304" lon="-2.51505">
        <ele>26</ele>
        <time>2021-08-07T13:24:40Z</time>
      </trkpt>
      <trkpt lat="47.93042" lon="-2.51509">
        <ele>26</ele>
        <time>2021-08-07T13:24:41Z</time>
      </trkpt>
      <trkpt lat="47.93045" lon="-2.51513">
        <ele>26.2</ele>
        <time>2021-08-07T13:24:42Z</time>
      </trkpt>
      <trkpt lat="47.93047" lon="-2.51518">
        <ele>26.2</ele>
        <time>2021-08-07T13:24:43Z</time>
      </trkpt>
      <trkpt lat="47.9305" lon="-2.51525">
        <ele>26.2</ele>
        <time>2021-08-07T13:24:44Z</time>
      </trkpt>
      <trkpt lat="47.93052" lon="-2.5153">
        <ele>26.2</ele>
        <time>2021-08-07T13:24:45Z</time>
      </trkpt>
      <trkpt lat="47.93055" lon="-2.51536">
        <ele>26.2</ele>
        <time>2021-08-07T13:24:46Z</time>
      </trkpt>
      <trkpt lat="47.93058" lon="-2.51543">
        <ele>26.2</ele>
        <time>2021-08-07T13:24:47Z</time>
      </trkpt>
      <trkpt lat="47.9306" lon="-2.5155">
        <ele>26</ele>
        <time>2021-08-07T13:24:48Z</time>
      </trkpt>
      <trkpt lat="47.93062" lon="-2.51557">
        <ele>26</ele>
        <time>2021-08-07T13:24:49Z</time>
      </trkpt>
      <trkpt lat="47.93064" lon="-2.51565">
        <ele>26</ele>
        <time>2021-08-07T13:24:50Z</time>
      </trkpt>
      <trkpt lat="47.93067" lon="-2.51572">
        <ele>26</ele>
        <time>2021-08-07T13:24:51Z</time>
      </trkpt>
      <trkpt lat="47.93068" lon="-2.51578">
        <ele>25.8</ele>
        <time>2021-08-07T13:24:52Z</time>
      </trkpt>
      <trkpt lat="47.9307" lon="-2.51584">
        <ele>25.8</ele>
        <time>2021-08-07T13:24:53Z</time>
      </trkpt>
      <trkpt lat="47.93071" lon="-2.51589">
        <ele>25.8</ele>
        <time>2021-08-07T13:24:54Z</time>
      </trkpt>
      <trkpt lat="47.93073" lon="-2.51593">
        <ele>25.8</ele>
        <time>2021-08-07T13:24:55Z</time>
      </trkpt>
      <trkpt lat="47.93074" lon="-2.51598">
        <ele>25.8</ele>
        <time>2021-08-07T13:24:56Z</time>
      </trkpt>
      <trkpt lat="47.93077" lon="-2.51608">
        <ele>25.8</ele>
        <time>2021-08-07T13:24:58Z</time>
      </trkpt>
      <trkpt lat="47.93078" lon="-2.51613">
        <ele>25.8</ele>
        <time>2021-08-07T13:24:59Z</time>
      </trkpt>
      <trkpt lat="47.93079" lon="-2.51617">
        <ele>25.8</ele>
        <time>2021-08-07T13:25:00Z</time>
      </trkpt>
      <trkpt lat="47.93081" lon="-2.51621">
        <ele>25.8</ele>
        <time>2021-08-07T13:25:01Z</time>
      </trkpt>
      <trkpt lat="47.93082" lon="-2.51626">
        <ele>25.8</ele>
        <time>2021-08-07T13:25:02Z</time>
      </trkpt>
      <trkpt lat="47.93083" lon="-2.51631">
        <ele>25.8</ele>
        <time>2021-08-07T13:25:03Z</time>
      </trkpt>
      <trkpt lat="47.93085" lon="-2.51637">
        <ele>25.8</ele>
        <time>2021-08-07T13:25:04Z</time>
      </trkpt>
      <trkpt lat="47.93086" lon="-2.51643">
        <ele>25.8</ele>
        <time>2021-08-07T13:25:05Z</time>
      </trkpt>
      <trkpt lat="47.93087" lon="-2.51649">
        <ele>25.6</ele>
        <time>2021-08-07T13:25:06Z</time>
      </trkpt>
      <trkpt lat="47.93089" lon="-2.5166">
        <ele>25.6</ele>
        <time>2021-08-07T13:25:08Z</time>
      </trkpt>
      <trkpt lat="47.93091" lon="-2.51666">
        <ele>25.6</ele>
        <time>2021-08-07T13:25:09Z</time>
      </trkpt>
      <trkpt lat="47.93092" lon="-2.51671">
        <ele>25.6</ele>
        <time>2021-08-07T13:25:10Z</time>
      </trkpt>
      <trkpt lat="47.93093" lon="-2.51676">
        <ele>25.6</ele>
        <time>2021-08-07T13:25:11Z</time>
      </trkpt>
      <trkpt lat="47.93095" lon="-2.5168">
        <ele>25.6</ele>
        <time>2021-08-07T13:25:12Z</time>
      </trkpt>
      <trkpt lat="47.93096" lon="-2.51685">
        <ele>25.6</ele>
        <time>2021-08-07T13:25:13Z</time>
      </trkpt>
      <trkpt lat="47.93097" lon="-2.5169">
        <ele>25.6</ele>
        <time>2021-08-07T13:25:14Z</time>
      </trkpt>
      <trkpt lat="47.93098" lon="-2.51695">
        <ele>25.6</ele>
        <time>2021-08-07T13:25:15Z</time>
      </trkpt>
      <trkpt lat="47.931" lon="-2.51709">
        <ele>25.6</ele>
        <time>2021-08-07T13:25:17Z</time>
      </trkpt>
      <trkpt lat="47.931" lon="-2.51715">
        <ele>25.6</ele>
        <time>2021-08-07T13:25:18Z</time>
      </trkpt>
      <trkpt lat="47.93101" lon="-2.51721">
        <ele>25.6</ele>
        <time>2021-08-07T13:25:19Z</time>
      </trkpt>
      <trkpt lat="47.93102" lon="-2.51727">
        <ele>25.6</ele>
        <time>2021-08-07T13:25:20Z</time>
      </trkpt>
      <trkpt lat="47.93103" lon="-2.51732">
        <ele>25.6</ele>
        <time>2021-08-07T13:25:21Z</time>
      </trkpt>
      <trkpt lat="47.93105" lon="-2.51738">
        <ele>25.6</ele>
        <time>2021-08-07T13:25:22Z</time>
      </trkpt>
      <trkpt lat="47.93107" lon="-2.51745">
        <ele>25.6</ele>
        <time>2021-08-07T13:25:23Z</time>
      </trkpt>
      <trkpt lat="47.93108" lon="-2.51753">
        <ele>25.6</ele>
        <time>2021-08-07T13:25:24Z</time>
      </trkpt>
      <trkpt lat="47.93109" lon="-2.51761">
        <ele>25.8</ele>
        <time>2021-08-07T13:25:25Z</time>
      </trkpt>
      <trkpt lat="47.9311" lon="-2.51768">
        <ele>25.8</ele>
        <time>2021-08-07T13:25:26Z</time>
      </trkpt>
      <trkpt lat="47.93111" lon="-2.51775">
        <ele>26</ele>
        <time>2021-08-07T13:25:27Z</time>
      </trkpt>
      <trkpt lat="47.93112" lon="-2.51781">
        <ele>26.2</ele>
        <time>2021-08-07T13:25:28Z</time>
      </trkpt>
      <trkpt lat="47.93114" lon="-2.51787">
        <ele>26.2</ele>
        <time>2021-08-07T13:25:29Z</time>
      </trkpt>
      <trkpt lat="47.93115" lon="-2.51792">
        <ele>26.4</ele>
        <time>2021-08-07T13:25:30Z</time>
      </trkpt>
      <trkpt lat="47.93116" lon="-2.51798">
        <ele>26.4</ele>
        <time>2021-08-07T13:25:31Z</time>
      </trkpt>
      <trkpt lat="47.93117" lon="-2.51804">
        <ele>26.4</ele>
        <time>2021-08-07T13:25:32Z</time>
      </trkpt>
      <trkpt lat="47.93118" lon="-2.51809">
        <ele>26.4</ele>
        <time>2021-08-07T13:25:33Z</time>
      </trkpt>
      <trkpt lat="47.93118" lon="-2.51815">
        <ele>26.6</ele>
        <time>2021-08-07T13:25:34Z</time>
      </trkpt>
      <trkpt lat="47.93119" lon="-2.51821">
        <ele>26.6</ele>
        <time>2021-08-07T13:25:35Z</time>
      </trkpt>
      <trkpt lat="47.93119" lon="-2.51826">
        <ele>26.6</ele>
        <time>2021-08-07T13:25:36Z</time>
      </trkpt>
      <trkpt lat="47.9312" lon="-2.51831">
        <ele>26.8</ele>
        <time>2021-08-07T13:25:37Z</time>
      </trkpt>
      <trkpt lat="47.93121" lon="-2.51836">
        <ele>26.8</ele>
        <time>2021-08-07T13:25:38Z</time>
      </trkpt>
      <trkpt lat="47.93121" lon="-2.51841">
        <ele>26.8</ele>
        <time>2021-08-07T13:25:39Z</time>
      </trkpt>
      <trkpt lat="47.93122" lon="-2.51846">
        <ele>27</ele>
        <time>2021-08-07T13:25:40Z</time>
      </trkpt>
      <trkpt lat="47.93123" lon="-2.5185">
        <ele>27</ele>
        <time>2021-08-07T13:25:41Z</time>
      </trkpt>
      <trkpt lat="47.93124" lon="-2.51855">
        <ele>27</ele>
        <time>2021-08-07T13:25:42Z</time>
      </trkpt>
      <trkpt lat="47.93125" lon="-2.51861">
        <ele>27</ele>
        <time>2021-08-07T13:25:43Z</time>
      </trkpt>
      <trkpt lat="47.93126" lon="-2.51866">
        <ele>27</ele>
        <time>2021-08-07T13:25:44Z</time>
      </trkpt>
      <trkpt lat="47.93126" lon="-2.51871">
        <ele>27</ele>
        <time>2021-08-07T13:25:45Z</time>
      </trkpt>
      <trkpt lat="47.93127" lon="-2.51876">
        <ele>27</ele>
        <time>2021-08-07T13:25:46Z</time>
      </trkpt>
      <trkpt lat="47.93127" lon="-2.51882">
        <ele>27</ele>
        <time>2021-08-07T13:25:47Z</time>
      </trkpt>
      <trkpt lat="47.93128" lon="-2.51888">
        <ele>27</ele>
        <time>2021-08-07T13:25:48Z</time>
      </trkpt>
      <trkpt lat="47.93128" lon="-2.51894">
        <ele>27</ele>
        <time>2021-08-07T13:25:49Z</time>
      </trkpt>
      <trkpt lat="47.93128" lon="-2.519">
        <ele>27</ele>
        <time>2021-08-07T13:25:50Z</time>
      </trkpt>
      <trkpt lat="47.93129" lon="-2.51906">
        <ele>27.2</ele>
        <time>2021-08-07T13:25:51Z</time>
      </trkpt>
      <trkpt lat="47.93129" lon="-2.51913">
        <ele>27.2</ele>
        <time>2021-08-07T13:25:52Z</time>
      </trkpt>
      <trkpt lat="47.93128" lon="-2.51926">
        <ele>27</ele>
        <time>2021-08-07T13:25:54Z</time>
      </trkpt>
      <trkpt lat="47.93128" lon="-2.51932">
        <ele>27</ele>
        <time>2021-08-07T13:25:55Z</time>
      </trkpt>
      <trkpt lat="47.93128" lon="-2.51939">
        <ele>27</ele>
        <time>2021-08-07T13:25:56Z</time>
      </trkpt>
      <trkpt lat="47.93128" lon="-2.51946">
        <ele>27</ele>
        <time>2021-08-07T13:25:57Z</time>
      </trkpt>
      <trkpt lat="47.93127" lon="-2.51953">
        <ele>27</ele>
        <time>2021-08-07T13:25:58Z</time>
      </trkpt>
      <trkpt lat="47.93127" lon="-2.51959">
        <ele>27</ele>
        <time>2021-08-07T13:25:59Z</time>
      </trkpt>
      <trkpt lat="47.93126" lon="-2.51966">
        <ele>27</ele>
        <time>2021-08-07T13:26:00Z</time>
      </trkpt>
      <trkpt lat="47.93125" lon="-2.51972">
        <ele>27</ele>
        <time>2021-08-07T13:26:01Z</time>
      </trkpt>
      <trkpt lat="47.93124" lon="-2.51978">
        <ele>26.8</ele>
        <time>2021-08-07T13:26:02Z</time>
      </trkpt>
      <trkpt lat="47.93124" lon="-2.51985">
        <ele>26.8</ele>
        <time>2021-08-07T13:26:03Z</time>
      </trkpt>
      <trkpt lat="47.93123" lon="-2.51991">
        <ele>26.8</ele>
        <time>2021-08-07T13:26:04Z</time>
      </trkpt>
      <trkpt lat="47.93122" lon="-2.51998">
        <ele>26.8</ele>
        <time>2021-08-07T13:26:05Z</time>
      </trkpt>
      <trkpt lat="47.93122" lon="-2.52005">
        <ele>26.8</ele>
        <time>2021-08-07T13:26:06Z</time>
      </trkpt>
      <trkpt lat="47.93121" lon="-2.52011">
        <ele>26.8</ele>
        <time>2021-08-07T13:26:07Z</time>
      </trkpt>
      <trkpt lat="47.93121" lon="-2.52018">
        <ele>26.8</ele>
        <time>2021-08-07T13:26:08Z</time>
      </trkpt>
      <trkpt lat="47.9312" lon="-2.52025">
        <ele>26.8</ele>
        <time>2021-08-07T13:26:09Z</time>
      </trkpt>
      <trkpt lat="47.9312" lon="-2.52031">
        <ele>26.8</ele>
        <time>2021-08-07T13:26:10Z</time>
      </trkpt>
      <trkpt lat="47.93119" lon="-2.52037">
        <ele>26.8</ele>
        <time>2021-08-07T13:26:11Z</time>
      </trkpt>
      <trkpt lat="47.93118" lon="-2.52043">
        <ele>26.8</ele>
        <time>2021-08-07T13:26:12Z</time>
      </trkpt>
      <trkpt lat="47.93117" lon="-2.52049">
        <ele>26.8</ele>
        <time>2021-08-07T13:26:13Z</time>
      </trkpt>
      <trkpt lat="47.93117" lon="-2.52054">
        <ele>26.8</ele>
        <time>2021-08-07T13:26:14Z</time>
      </trkpt>
      <trkpt lat="47.93116" lon="-2.52061">
        <ele>26.8</ele>
        <time>2021-08-07T13:26:15Z</time>
      </trkpt>
      <trkpt lat="47.93116" lon="-2.52067">
        <ele>26.8</ele>
        <time>2021-08-07T13:26:16Z</time>
      </trkpt>
      <trkpt lat="47.93115" lon="-2.52074">
        <ele>26.8</ele>
        <time>2021-08-07T13:26:17Z</time>
      </trkpt>
      <trkpt lat="47.93114" lon="-2.5208">
        <ele>26.8</ele>
        <time>2021-08-07T13:26:18Z</time>
      </trkpt>
      <trkpt lat="47.93113" lon="-2.52087">
        <ele>26.8</ele>
        <time>2021-08-07T13:26:19Z</time>
      </trkpt>
      <trkpt lat="47.93112" lon="-2.52093">
        <ele>26.8</ele>
        <time>2021-08-07T13:26:20Z</time>
      </trkpt>
      <trkpt lat="47.93111" lon="-2.52099">
        <ele>27</ele>
        <time>2021-08-07T13:26:21Z</time>
      </trkpt>
      <trkpt lat="47.93109" lon="-2.52113">
        <ele>27</ele>
        <time>2021-08-07T13:26:23Z</time>
      </trkpt>
      <trkpt lat="47.93108" lon="-2.52119">
        <ele>27</ele>
        <time>2021-08-07T13:26:24Z</time>
      </trkpt>
      <trkpt lat="47.93108" lon="-2.52125">
        <ele>27</ele>
        <time>2021-08-07T13:26:25Z</time>
      </trkpt>
      <trkpt lat="47.93107" lon="-2.52131">
        <ele>27</ele>
        <time>2021-08-07T13:26:26Z</time>
      </trkpt>
      <trkpt lat="47.93107" lon="-2.52137">
        <ele>27</ele>
        <time>2021-08-07T13:26:27Z</time>
      </trkpt>
      <trkpt lat="47.93106" lon="-2.52142">
        <ele>27</ele>
        <time>2021-08-07T13:26:28Z</time>
      </trkpt>
      <trkpt lat="47.93106" lon="-2.52148">
        <ele>27</ele>
        <time>2021-08-07T13:26:29Z</time>
      </trkpt>
      <trkpt lat="47.93106" lon="-2.52154">
        <ele>27</ele>
        <time>2021-08-07T13:26:30Z</time>
      </trkpt>
      <trkpt lat="47.93105" lon="-2.5216">
        <ele>27</ele>
        <time>2021-08-07T13:26:31Z</time>
      </trkpt>
      <trkpt lat="47.93105" lon="-2.52166">
        <ele>27</ele>
        <time>2021-08-07T13:26:32Z</time>
      </trkpt>
      <trkpt lat="47.93104" lon="-2.52172">
        <ele>27</ele>
        <time>2021-08-07T13:26:33Z</time>
      </trkpt>
      <trkpt lat="47.93104" lon="-2.52178">
        <ele>27</ele>
        <time>2021-08-07T13:26:34Z</time>
      </trkpt>
      <trkpt lat="47.93102" lon="-2.52196">
        <ele>27</ele>
        <time>2021-08-07T13:26:37Z</time>
      </trkpt>
      <trkpt lat="47.93102" lon="-2.52202">
        <ele>27</ele>
        <time>2021-08-07T13:26:38Z</time>
      </trkpt>
      <trkpt lat="47.93102" lon="-2.52215">
        <ele>27</ele>
        <time>2021-08-07T13:26:40Z</time>
      </trkpt>
      <trkpt lat="47.93102" lon="-2.52221">
        <ele>27</ele>
        <time>2021-08-07T13:26:41Z</time>
      </trkpt>
      <trkpt lat="47.93102" lon="-2.52234">
        <ele>27</ele>
        <time>2021-08-07T13:26:43Z</time>
      </trkpt>
      <trkpt lat="47.93103" lon="-2.52241">
        <ele>26.8</ele>
        <time>2021-08-07T13:26:44Z</time>
      </trkpt>
      <trkpt lat="47.93103" lon="-2.52247">
        <ele>26.8</ele>
        <time>2021-08-07T13:26:45Z</time>
      </trkpt>
      <trkpt lat="47.93104" lon="-2.5226">
        <ele>26.8</ele>
        <time>2021-08-07T13:26:47Z</time>
      </trkpt>
      <trkpt lat="47.93105" lon="-2.52267">
        <ele>26.8</ele>
        <time>2021-08-07T13:26:48Z</time>
      </trkpt>
      <trkpt lat="47.93105" lon="-2.52273">
        <ele>26.8</ele>
        <time>2021-08-07T13:26:49Z</time>
      </trkpt>
      <trkpt lat="47.93105" lon="-2.5228">
        <ele>26.8</ele>
        <time>2021-08-07T13:26:50Z</time>
      </trkpt>
      <trkpt lat="47.93106" lon="-2.52287">
        <ele>26.8</ele>
        <time>2021-08-07T13:26:51Z</time>
      </trkpt>
      <trkpt lat="47.93107" lon="-2.52295">
        <ele>26.8</ele>
        <time>2021-08-07T13:26:52Z</time>
      </trkpt>
      <trkpt lat="47.93108" lon="-2.52302">
        <ele>26.8</ele>
        <time>2021-08-07T13:26:53Z</time>
      </trkpt>
      <trkpt lat="47.93108" lon="-2.52308">
        <ele>26.8</ele>
        <time>2021-08-07T13:26:54Z</time>
      </trkpt>
      <trkpt lat="47.93109" lon="-2.52315">
        <ele>26.8</ele>
        <time>2021-08-07T13:26:55Z</time>
      </trkpt>
      <trkpt lat="47.93109" lon="-2.52322">
        <ele>26.8</ele>
        <time>2021-08-07T13:26:56Z</time>
      </trkpt>
      <trkpt lat="47.9311" lon="-2.52329">
        <ele>26.8</ele>
        <time>2021-08-07T13:26:57Z</time>
      </trkpt>
      <trkpt lat="47.9311" lon="-2.52336">
        <ele>26.8</ele>
        <time>2021-08-07T13:26:58Z</time>
      </trkpt>
      <trkpt lat="47.9311" lon="-2.52343">
        <ele>26.8</ele>
        <time>2021-08-07T13:26:59Z</time>
      </trkpt>
      <trkpt lat="47.93111" lon="-2.5235">
        <ele>26.8</ele>
        <time>2021-08-07T13:27:00Z</time>
      </trkpt>
      <trkpt lat="47.93111" lon="-2.52357">
        <ele>26.8</ele>
        <time>2021-08-07T13:27:01Z</time>
      </trkpt>
      <trkpt lat="47.93112" lon="-2.52364">
        <ele>26.8</ele>
        <time>2021-08-07T13:27:02Z</time>
      </trkpt>
      <trkpt lat="47.93112" lon="-2.5237">
        <ele>26.8</ele>
        <time>2021-08-07T13:27:03Z</time>
      </trkpt>
      <trkpt lat="47.93113" lon="-2.52377">
        <ele>26.8</ele>
        <time>2021-08-07T13:27:04Z</time>
      </trkpt>
      <trkpt lat="47.93113" lon="-2.52384">
        <ele>26.8</ele>
        <time>2021-08-07T13:27:05Z</time>
      </trkpt>
      <trkpt lat="47.93113" lon="-2.52391">
        <ele>26.6</ele>
        <time>2021-08-07T13:27:06Z</time>
      </trkpt>
      <trkpt lat="47.93114" lon="-2.52397">
        <ele>26.6</ele>
        <time>2021-08-07T13:27:07Z</time>
      </trkpt>
      <trkpt lat="47.93114" lon="-2.52404">
        <ele>26.6</ele>
        <time>2021-08-07T13:27:08Z</time>
      </trkpt>
      <trkpt lat="47.93114" lon="-2.52411">
        <ele>26.6</ele>
        <time>2021-08-07T13:27:09Z</time>
      </trkpt>
      <trkpt lat="47.93114" lon="-2.52417">
        <ele>26.6</ele>
        <time>2021-08-07T13:27:10Z</time>
      </trkpt>
      <trkpt lat="47.93114" lon="-2.52424">
        <ele>26.6</ele>
        <time>2021-08-07T13:27:11Z</time>
      </trkpt>
      <trkpt lat="47.93114" lon="-2.52431">
        <ele>26.6</ele>
        <time>2021-08-07T13:27:12Z</time>
      </trkpt>
      <trkpt lat="47.93114" lon="-2.52437">
        <ele>26.4</ele>
        <time>2021-08-07T13:27:13Z</time>
      </trkpt>
      <trkpt lat="47.93114" lon="-2.52444">
        <ele>26.4</ele>
        <time>2021-08-07T13:27:14Z</time>
      </trkpt>
      <trkpt lat="47.93114" lon="-2.52452">
        <ele>26.4</ele>
        <time>2021-08-07T13:27:15Z</time>
      </trkpt>
      <trkpt lat="47.93114" lon="-2.52459">
        <ele>26.4</ele>
        <time>2021-08-07T13:27:16Z</time>
      </trkpt>
      <trkpt lat="47.93114" lon="-2.52466">
        <ele>26.4</ele>
        <time>2021-08-07T13:27:17Z</time>
      </trkpt>
      <trkpt lat="47.93114" lon="-2.52473">
        <ele>26.4</ele>
        <time>2021-08-07T13:27:18Z</time>
      </trkpt>
      <trkpt lat="47.93113" lon="-2.5248">
        <ele>26.4</ele>
        <time>2021-08-07T13:27:19Z</time>
      </trkpt>
      <trkpt lat="47.93113" lon="-2.52487">
        <ele>26.4</ele>
        <time>2021-08-07T13:27:20Z</time>
      </trkpt>
      <trkpt lat="47.93112" lon="-2.52494">
        <ele>26.4</ele>
        <time>2021-08-07T13:27:21Z</time>
      </trkpt>
      <trkpt lat="47.93112" lon="-2.52501">
        <ele>26.4</ele>
        <time>2021-08-07T13:27:22Z</time>
      </trkpt>
      <trkpt lat="47.93111" lon="-2.52508">
        <ele>26.4</ele>
        <time>2021-08-07T13:27:23Z</time>
      </trkpt>
      <trkpt lat="47.9311" lon="-2.52515">
        <ele>26.4</ele>
        <time>2021-08-07T13:27:24Z</time>
      </trkpt>
      <trkpt lat="47.93109" lon="-2.52522">
        <ele>26.4</ele>
        <time>2021-08-07T13:27:25Z</time>
      </trkpt>
      <trkpt lat="47.93108" lon="-2.52529">
        <ele>26.4</ele>
        <time>2021-08-07T13:27:26Z</time>
      </trkpt>
      <trkpt lat="47.93107" lon="-2.52536">
        <ele>26.4</ele>
        <time>2021-08-07T13:27:27Z</time>
      </trkpt>
      <trkpt lat="47.93106" lon="-2.52543">
        <ele>26.4</ele>
        <time>2021-08-07T13:27:28Z</time>
      </trkpt>
      <trkpt lat="47.93106" lon="-2.52551">
        <ele>26.4</ele>
        <time>2021-08-07T13:27:29Z</time>
      </trkpt>
      <trkpt lat="47.93105" lon="-2.52558">
        <ele>26.6</ele>
        <time>2021-08-07T13:27:30Z</time>
      </trkpt>
      <trkpt lat="47.93104" lon="-2.52564">
        <ele>26.6</ele>
        <time>2021-08-07T13:27:31Z</time>
      </trkpt>
      <trkpt lat="47.93103" lon="-2.52571">
        <ele>26.6</ele>
        <time>2021-08-07T13:27:32Z</time>
      </trkpt>
      <trkpt lat="47.93102" lon="-2.52577">
        <ele>26.6</ele>
        <time>2021-08-07T13:27:33Z</time>
      </trkpt>
      <trkpt lat="47.93102" lon="-2.52584">
        <ele>26.6</ele>
        <time>2021-08-07T13:27:34Z</time>
      </trkpt>
      <trkpt lat="47.93101" lon="-2.5259">
        <ele>26.6</ele>
        <time>2021-08-07T13:27:35Z</time>
      </trkpt>
      <trkpt lat="47.931" lon="-2.52597">
        <ele>26.6</ele>
        <time>2021-08-07T13:27:36Z</time>
      </trkpt>
      <trkpt lat="47.931" lon="-2.52604">
        <ele>26.8</ele>
        <time>2021-08-07T13:27:37Z</time>
      </trkpt>
      <trkpt lat="47.93099" lon="-2.52611">
        <ele>26.8</ele>
        <time>2021-08-07T13:27:38Z</time>
      </trkpt>
      <trkpt lat="47.93099" lon="-2.52618">
        <ele>26.8</ele>
        <time>2021-08-07T13:27:39Z</time>
      </trkpt>
      <trkpt lat="47.93098" lon="-2.52626">
        <ele>26.8</ele>
        <time>2021-08-07T13:27:40Z</time>
      </trkpt>
      <trkpt lat="47.93098" lon="-2.52633">
        <ele>26.6</ele>
        <time>2021-08-07T13:27:41Z</time>
      </trkpt>
      <trkpt lat="47.93098" lon="-2.5264">
        <ele>26.6</ele>
        <time>2021-08-07T13:27:42Z</time>
      </trkpt>
      <trkpt lat="47.93097" lon="-2.52647">
        <ele>26.6</ele>
        <time>2021-08-07T13:27:43Z</time>
      </trkpt>
      <trkpt lat="47.93097" lon="-2.52653">
        <ele>26.6</ele>
        <time>2021-08-07T13:27:44Z</time>
      </trkpt>
      <trkpt lat="47.93097" lon="-2.52659">
        <ele>26.6</ele>
        <time>2021-08-07T13:27:45Z</time>
      </trkpt>
      <trkpt lat="47.93097" lon="-2.52665">
        <ele>26.6</ele>
        <time>2021-08-07T13:27:46Z</time>
      </trkpt>
      <trkpt lat="47.93097" lon="-2.52672">
        <ele>26.6</ele>
        <time>2021-08-07T13:27:47Z</time>
      </trkpt>
      <trkpt lat="47.93098" lon="-2.52679">
        <ele>26.6</ele>
        <time>2021-08-07T13:27:48Z</time>
      </trkpt>
      <trkpt lat="47.93098" lon="-2.52686">
        <ele>26.6</ele>
        <time>2021-08-07T13:27:49Z</time>
      </trkpt>
      <trkpt lat="47.93099" lon="-2.52692">
        <ele>26.6</ele>
        <time>2021-08-07T13:27:50Z</time>
      </trkpt>
      <trkpt lat="47.931" lon="-2.52698">
        <ele>26.6</ele>
        <time>2021-08-07T13:27:51Z</time>
      </trkpt>
      <trkpt lat="47.931" lon="-2.52703">
        <ele>26.6</ele>
        <time>2021-08-07T13:27:52Z</time>
      </trkpt>
      <trkpt lat="47.93101" lon="-2.52709">
        <ele>26.6</ele>
        <time>2021-08-07T13:27:53Z</time>
      </trkpt>
      <trkpt lat="47.93102" lon="-2.52715">
        <ele>26.4</ele>
        <time>2021-08-07T13:27:54Z</time>
      </trkpt>
      <trkpt lat="47.93102" lon="-2.52721">
        <ele>26.6</ele>
        <time>2021-08-07T13:27:55Z</time>
      </trkpt>
      <trkpt lat="47.93103" lon="-2.52727">
        <ele>26.6</ele>
        <time>2021-08-07T13:27:56Z</time>
      </trkpt>
      <trkpt lat="47.93104" lon="-2.52732">
        <ele>26.6</ele>
        <time>2021-08-07T13:27:57Z</time>
      </trkpt>
      <trkpt lat="47.93106" lon="-2.52736">
        <ele>26.6</ele>
        <time>2021-08-07T13:27:58Z</time>
      </trkpt>
      <trkpt lat="47.93107" lon="-2.52743">
        <ele>26.6</ele>
        <time>2021-08-07T13:27:59Z</time>
      </trkpt>
      <trkpt lat="47.93108" lon="-2.52749">
        <ele>26.6</ele>
        <time>2021-08-07T13:28:00Z</time>
      </trkpt>
      <trkpt lat="47.9311" lon="-2.52755">
        <ele>26.6</ele>
        <time>2021-08-07T13:28:01Z</time>
      </trkpt>
      <trkpt lat="47.93113" lon="-2.52762">
        <ele>26.6</ele>
        <time>2021-08-07T13:28:02Z</time>
      </trkpt>
      <trkpt lat="47.93115" lon="-2.52768">
        <ele>26.6</ele>
        <time>2021-08-07T13:28:03Z</time>
      </trkpt>
      <trkpt lat="47.93117" lon="-2.52774">
        <ele>26.6</ele>
        <time>2021-08-07T13:28:04Z</time>
      </trkpt>
      <trkpt lat="47.9312" lon="-2.5278">
        <ele>26.6</ele>
        <time>2021-08-07T13:28:05Z</time>
      </trkpt>
      <trkpt lat="47.93123" lon="-2.52786">
        <ele>26.6</ele>
        <time>2021-08-07T13:28:06Z</time>
      </trkpt>
      <trkpt lat="47.93126" lon="-2.5279">
        <ele>26.6</ele>
        <time>2021-08-07T13:28:07Z</time>
      </trkpt>
      <trkpt lat="47.93129" lon="-2.52795">
        <ele>26.6</ele>
        <time>2021-08-07T13:28:08Z</time>
      </trkpt>
      <trkpt lat="47.93132" lon="-2.52799">
        <ele>26.6</ele>
        <time>2021-08-07T13:28:09Z</time>
      </trkpt>
      <trkpt lat="47.93135" lon="-2.52804">
        <ele>26.6</ele>
        <time>2021-08-07T13:28:10Z</time>
      </trkpt>
      <trkpt lat="47.93139" lon="-2.52808">
        <ele>26.6</ele>
        <time>2021-08-07T13:28:11Z</time>
      </trkpt>
      <trkpt lat="47.93143" lon="-2.52811">
        <ele>26.6</ele>
        <time>2021-08-07T13:28:12Z</time>
      </trkpt>
      <trkpt lat="47.93146" lon="-2.52815">
        <ele>26.4</ele>
        <time>2021-08-07T13:28:13Z</time>
      </trkpt>
      <trkpt lat="47.9315" lon="-2.52818">
        <ele>26.6</ele>
        <time>2021-08-07T13:28:14Z</time>
      </trkpt>
      <trkpt lat="47.93153" lon="-2.52821">
        <ele>26.4</ele>
        <time>2021-08-07T13:28:15Z</time>
      </trkpt>
      <trkpt lat="47.93157" lon="-2.52824">
        <ele>26.2</ele>
        <time>2021-08-07T13:28:16Z</time>
      </trkpt>
      <trkpt lat="47.9316" lon="-2.52827">
        <ele>26.2</ele>
        <time>2021-08-07T13:28:17Z</time>
      </trkpt>
      <trkpt lat="47.93163" lon="-2.52829">
        <ele>26.2</ele>
        <time>2021-08-07T13:28:18Z</time>
      </trkpt>
      <trkpt lat="47.93166" lon="-2.52832">
        <ele>26.2</ele>
        <time>2021-08-07T13:28:19Z</time>
      </trkpt>
      <trkpt lat="47.9317" lon="-2.52834">
        <ele>26</ele>
        <time>2021-08-07T13:28:20Z</time>
      </trkpt>
      <trkpt lat="47.93173" lon="-2.52836">
        <ele>26</ele>
        <time>2021-08-07T13:28:21Z</time>
      </trkpt>
      <trkpt lat="47.93177" lon="-2.52839">
        <ele>26</ele>
        <time>2021-08-07T13:28:22Z</time>
      </trkpt>
      <trkpt lat="47.93181" lon="-2.52841">
        <ele>25.8</ele>
        <time>2021-08-07T13:28:23Z</time>
      </trkpt>
      <trkpt lat="47.93184" lon="-2.52844">
        <ele>25.8</ele>
        <time>2021-08-07T13:28:24Z</time>
      </trkpt>
      <trkpt lat="47.93187" lon="-2.52847">
        <ele>25.8</ele>
        <time>2021-08-07T13:28:25Z</time>
      </trkpt>
      <trkpt lat="47.9319" lon="-2.5285">
        <ele>25.8</ele>
        <time>2021-08-07T13:28:26Z</time>
      </trkpt>
      <trkpt lat="47.93193" lon="-2.52853">
        <ele>25.8</ele>
        <time>2021-08-07T13:28:27Z</time>
      </trkpt>
      <trkpt lat="47.93197" lon="-2.52856">
        <ele>25.8</ele>
        <time>2021-08-07T13:28:28Z</time>
      </trkpt>
      <trkpt lat="47.932" lon="-2.52858">
        <ele>25.8</ele>
        <time>2021-08-07T13:28:29Z</time>
      </trkpt>
      <trkpt lat="47.93204" lon="-2.52861">
        <ele>25.8</ele>
        <time>2021-08-07T13:28:30Z</time>
      </trkpt>
      <trkpt lat="47.93207" lon="-2.52864">
        <ele>26</ele>
        <time>2021-08-07T13:28:31Z</time>
      </trkpt>
      <trkpt lat="47.93211" lon="-2.52867">
        <ele>26</ele>
        <time>2021-08-07T13:28:32Z</time>
      </trkpt>
      <trkpt lat="47.93215" lon="-2.52871">
        <ele>26</ele>
        <time>2021-08-07T13:28:33Z</time>
      </trkpt>
      <trkpt lat="47.93218" lon="-2.52874">
        <ele>26.2</ele>
        <time>2021-08-07T13:28:34Z</time>
      </trkpt>
      <trkpt lat="47.93222" lon="-2.52878">
        <ele>26.2</ele>
        <time>2021-08-07T13:28:35Z</time>
      </trkpt>
      <trkpt lat="47.93225" lon="-2.52882">
        <ele>26.2</ele>
        <time>2021-08-07T13:28:36Z</time>
      </trkpt>
      <trkpt lat="47.93229" lon="-2.52886">
        <ele>26.2</ele>
        <time>2021-08-07T13:28:37Z</time>
      </trkpt>
      <trkpt lat="47.93232" lon="-2.5289">
        <ele>26.2</ele>
        <time>2021-08-07T13:28:38Z</time>
      </trkpt>
      <trkpt lat="47.93236" lon="-2.52895">
        <ele>26.4</ele>
        <time>2021-08-07T13:28:39Z</time>
      </trkpt>
      <trkpt lat="47.93239" lon="-2.52899">
        <ele>26.4</ele>
        <time>2021-08-07T13:28:40Z</time>
      </trkpt>
      <trkpt lat="47.93242" lon="-2.52904">
        <ele>26.4</ele>
        <time>2021-08-07T13:28:41Z</time>
      </trkpt>
      <trkpt lat="47.93245" lon="-2.52908">
        <ele>26.4</ele>
        <time>2021-08-07T13:28:42Z</time>
      </trkpt>
      <trkpt lat="47.93248" lon="-2.52913">
        <ele>26.4</ele>
        <time>2021-08-07T13:28:43Z</time>
      </trkpt>
      <trkpt lat="47.93252" lon="-2.52918">
        <ele>26.4</ele>
        <time>2021-08-07T13:28:44Z</time>
      </trkpt>
      <trkpt lat="47.93255" lon="-2.52922">
        <ele>26.4</ele>
        <time>2021-08-07T13:28:45Z</time>
      </trkpt>
      <trkpt lat="47.93258" lon="-2.52927">
        <ele>26.4</ele>
        <time>2021-08-07T13:28:46Z</time>
      </trkpt>
      <trkpt lat="47.9326" lon="-2.52933">
        <ele>26.4</ele>
        <time>2021-08-07T13:28:47Z</time>
      </trkpt>
      <trkpt lat="47.93263" lon="-2.52938">
        <ele>26.4</ele>
        <time>2021-08-07T13:28:48Z</time>
      </trkpt>
      <trkpt lat="47.93265" lon="-2.52943">
        <ele>26.4</ele>
        <time>2021-08-07T13:28:49Z</time>
      </trkpt>
      <trkpt lat="47.93267" lon="-2.52948">
        <ele>26.4</ele>
        <time>2021-08-07T13:28:50Z</time>
      </trkpt>
      <trkpt lat="47.9327" lon="-2.52952">
        <ele>26.2</ele>
        <time>2021-08-07T13:28:51Z</time>
      </trkpt>
      <trkpt lat="47.93272" lon="-2.52957">
        <ele>26.2</ele>
        <time>2021-08-07T13:28:52Z</time>
      </trkpt>
      <trkpt lat="47.93274" lon="-2.52961">
        <ele>26.2</ele>
        <time>2021-08-07T13:28:53Z</time>
      </trkpt>
      <trkpt lat="47.93276" lon="-2.52966">
        <ele>26.2</ele>
        <time>2021-08-07T13:28:54Z</time>
      </trkpt>
      <trkpt lat="47.93279" lon="-2.52971">
        <ele>26</ele>
        <time>2021-08-07T13:28:55Z</time>
      </trkpt>
      <trkpt lat="47.93281" lon="-2.52977">
        <ele>26</ele>
        <time>2021-08-07T13:28:56Z</time>
      </trkpt>
      <trkpt lat="47.93283" lon="-2.52982">
        <ele>26</ele>
        <time>2021-08-07T13:28:57Z</time>
      </trkpt>
      <trkpt lat="47.93285" lon="-2.52987">
        <ele>26</ele>
        <time>2021-08-07T13:28:58Z</time>
      </trkpt>
      <trkpt lat="47.93287" lon="-2.52992">
        <ele>26</ele>
        <time>2021-08-07T13:28:59Z</time>
      </trkpt>
      <trkpt lat="47.93289" lon="-2.52997">
        <ele>26</ele>
        <time>2021-08-07T13:29:00Z</time>
      </trkpt>
      <trkpt lat="47.93291" lon="-2.53002">
        <ele>26</ele>
        <time>2021-08-07T13:29:01Z</time>
      </trkpt>
      <trkpt lat="47.93293" lon="-2.53007">
        <ele>26.2</ele>
        <time>2021-08-07T13:29:02Z</time>
      </trkpt>
      <trkpt lat="47.93295" lon="-2.53011">
        <ele>26.2</ele>
        <time>2021-08-07T13:29:03Z</time>
      </trkpt>
      <trkpt lat="47.93298" lon="-2.53016">
        <ele>26.2</ele>
        <time>2021-08-07T13:29:04Z</time>
      </trkpt>
      <trkpt lat="47.933" lon="-2.53021">
        <ele>26.2</ele>
        <time>2021-08-07T13:29:05Z</time>
      </trkpt>
      <trkpt lat="47.93303" lon="-2.53027">
        <ele>26.2</ele>
        <time>2021-08-07T13:29:06Z</time>
      </trkpt>
      <trkpt lat="47.93305" lon="-2.53032">
        <ele>26.2</ele>
        <time>2021-08-07T13:29:07Z</time>
      </trkpt>
      <trkpt lat="47.93307" lon="-2.53038">
        <ele>26.2</ele>
        <time>2021-08-07T13:29:08Z</time>
      </trkpt>
      <trkpt lat="47.93309" lon="-2.53044">
        <ele>26.2</ele>
        <time>2021-08-07T13:29:09Z</time>
      </trkpt>
      <trkpt lat="47.93312" lon="-2.53049">
        <ele>26.4</ele>
        <time>2021-08-07T13:29:10Z</time>
      </trkpt>
      <trkpt lat="47.93314" lon="-2.53054">
        <ele>26.4</ele>
        <time>2021-08-07T13:29:11Z</time>
      </trkpt>
      <trkpt lat="47.93316" lon="-2.5306">
        <ele>26.2</ele>
        <time>2021-08-07T13:29:12Z</time>
      </trkpt>
      <trkpt lat="47.93318" lon="-2.53066">
        <ele>26.2</ele>
        <time>2021-08-07T13:29:13Z</time>
      </trkpt>
      <trkpt lat="47.9332" lon="-2.53072">
        <ele>26.2</ele>
        <time>2021-08-07T13:29:14Z</time>
      </trkpt>
      <trkpt lat="47.93322" lon="-2.53077">
        <ele>26.2</ele>
        <time>2021-08-07T13:29:15Z</time>
      </trkpt>
      <trkpt lat="47.93325" lon="-2.53083">
        <ele>26.2</ele>
        <time>2021-08-07T13:29:16Z</time>
      </trkpt>
      <trkpt lat="47.93327" lon="-2.53088">
        <ele>26.2</ele>
        <time>2021-08-07T13:29:17Z</time>
      </trkpt>
      <trkpt lat="47.93329" lon="-2.53093">
        <ele>26.2</ele>
        <time>2021-08-07T13:29:18Z</time>
      </trkpt>
      <trkpt lat="47.93331" lon="-2.53098">
        <ele>26.2</ele>
        <time>2021-08-07T13:29:19Z</time>
      </trkpt>
      <trkpt lat="47.93334" lon="-2.53104">
        <ele>26.2</ele>
        <time>2021-08-07T13:29:20Z</time>
      </trkpt>
      <trkpt lat="47.93336" lon="-2.53109">
        <ele>26.2</ele>
        <time>2021-08-07T13:29:21Z</time>
      </trkpt>
      <trkpt lat="47.93339" lon="-2.53113">
        <ele>26.4</ele>
        <time>2021-08-07T13:29:22Z</time>
      </trkpt>
      <trkpt lat="47.93342" lon="-2.53118">
        <ele>26.4</ele>
        <time>2021-08-07T13:29:23Z</time>
      </trkpt>
      <trkpt lat="47.93344" lon="-2.53123">
        <ele>26.4</ele>
        <time>2021-08-07T13:29:24Z</time>
      </trkpt>
      <trkpt lat="47.93346" lon="-2.53128">
        <ele>26.4</ele>
        <time>2021-08-07T13:29:25Z</time>
      </trkpt>
      <trkpt lat="47.93349" lon="-2.53133">
        <ele>26.4</ele>
        <time>2021-08-07T13:29:26Z</time>
      </trkpt>
      <trkpt lat="47.93352" lon="-2.53138">
        <ele>26.4</ele>
        <time>2021-08-07T13:29:27Z</time>
      </trkpt>
      <trkpt lat="47.93354" lon="-2.53143">
        <ele>26.4</ele>
        <time>2021-08-07T13:29:28Z</time>
      </trkpt>
      <trkpt lat="47.93357" lon="-2.53148">
        <ele>26.4</ele>
        <time>2021-08-07T13:29:29Z</time>
      </trkpt>
      <trkpt lat="47.9336" lon="-2.53152">
        <ele>26.4</ele>
        <time>2021-08-07T13:29:30Z</time>
      </trkpt>
      <trkpt lat="47.93362" lon="-2.53156">
        <ele>26.4</ele>
        <time>2021-08-07T13:29:31Z</time>
      </trkpt>
      <trkpt lat="47.93364" lon="-2.5316">
        <ele>26.4</ele>
        <time>2021-08-07T13:29:32Z</time>
      </trkpt>
      <trkpt lat="47.93366" lon="-2.53164">
        <ele>26.6</ele>
        <time>2021-08-07T13:29:33Z</time>
      </trkpt>
      <trkpt lat="47.9337" lon="-2.53168">
        <ele>26.6</ele>
        <time>2021-08-07T13:29:34Z</time>
      </trkpt>
      <trkpt lat="47.93373" lon="-2.53172">
        <ele>26.6</ele>
        <time>2021-08-07T13:29:35Z</time>
      </trkpt>
      <trkpt lat="47.93377" lon="-2.53176">
        <ele>26.6</ele>
        <time>2021-08-07T13:29:36Z</time>
      </trkpt>
      <trkpt lat="47.93381" lon="-2.5318">
        <ele>26.6</ele>
        <time>2021-08-07T13:29:37Z</time>
      </trkpt>
      <trkpt lat="47.93385" lon="-2.53184">
        <ele>26.6</ele>
        <time>2021-08-07T13:29:38Z</time>
      </trkpt>
      <trkpt lat="47.93389" lon="-2.53187">
        <ele>26.6</ele>
        <time>2021-08-07T13:29:39Z</time>
      </trkpt>
      <trkpt lat="47.93393" lon="-2.53191">
        <ele>26.6</ele>
        <time>2021-08-07T13:29:40Z</time>
      </trkpt>
      <trkpt lat="47.93396" lon="-2.53194">
        <ele>26.6</ele>
        <time>2021-08-07T13:29:41Z</time>
      </trkpt>
      <trkpt lat="47.934" lon="-2.53197">
        <ele>26.6</ele>
        <time>2021-08-07T13:29:42Z</time>
      </trkpt>
      <trkpt lat="47.93403" lon="-2.53201">
        <ele>26.6</ele>
        <time>2021-08-07T13:29:43Z</time>
      </trkpt>
      <trkpt lat="47.93407" lon="-2.53204">
        <ele>26.6</ele>
        <time>2021-08-07T13:29:44Z</time>
      </trkpt>
      <trkpt lat="47.93411" lon="-2.53208">
        <ele>26.6</ele>
        <time>2021-08-07T13:29:45Z</time>
      </trkpt>
      <trkpt lat="47.93415" lon="-2.53211">
        <ele>26.6</ele>
        <time>2021-08-07T13:29:46Z</time>
      </trkpt>
      <trkpt lat="47.93418" lon="-2.53215">
        <ele>26.6</ele>
        <time>2021-08-07T13:29:47Z</time>
      </trkpt>
      <trkpt lat="47.9342" lon="-2.53219">
        <ele>26.6</ele>
        <time>2021-08-07T13:29:48Z</time>
      </trkpt>
      <trkpt lat="47.93422" lon="-2.53223">
        <ele>26.6</ele>
        <time>2021-08-07T13:29:49Z</time>
      </trkpt>
      <trkpt lat="47.93425" lon="-2.53226">
        <ele>26.6</ele>
        <time>2021-08-07T13:29:50Z</time>
      </trkpt>
      <trkpt lat="47.93429" lon="-2.53231">
        <ele>26.6</ele>
        <time>2021-08-07T13:29:51Z</time>
      </trkpt>
      <trkpt lat="47.93433" lon="-2.53235">
        <ele>26.6</ele>
        <time>2021-08-07T13:29:52Z</time>
      </trkpt>
      <trkpt lat="47.93437" lon="-2.53239">
        <ele>26.6</ele>
        <time>2021-08-07T13:29:53Z</time>
      </trkpt>
      <trkpt lat="47.93441" lon="-2.53243">
        <ele>26.6</ele>
        <time>2021-08-07T13:29:54Z</time>
      </trkpt>
      <trkpt lat="47.93445" lon="-2.53247">
        <ele>26.6</ele>
        <time>2021-08-07T13:29:55Z</time>
      </trkpt>
      <trkpt lat="47.93449" lon="-2.53251">
        <ele>26.8</ele>
        <time>2021-08-07T13:29:56Z</time>
      </trkpt>
      <trkpt lat="47.93453" lon="-2.53255">
        <ele>26.6</ele>
        <time>2021-08-07T13:29:57Z</time>
      </trkpt>
      <trkpt lat="47.93457" lon="-2.5326">
        <ele>26.6</ele>
        <time>2021-08-07T13:29:58Z</time>
      </trkpt>
      <trkpt lat="47.93461" lon="-2.53265">
        <ele>26.6</ele>
        <time>2021-08-07T13:29:59Z</time>
      </trkpt>
      <trkpt lat="47.93465" lon="-2.5327">
        <ele>26.6</ele>
        <time>2021-08-07T13:30:00Z</time>
      </trkpt>
      <trkpt lat="47.93468" lon="-2.53275">
        <ele>26.6</ele>
        <time>2021-08-07T13:30:01Z</time>
      </trkpt>
      <trkpt lat="47.93472" lon="-2.5328">
        <ele>26.4</ele>
        <time>2021-08-07T13:30:02Z</time>
      </trkpt>
      <trkpt lat="47.93475" lon="-2.53286">
        <ele>26.4</ele>
        <time>2021-08-07T13:30:03Z</time>
      </trkpt>
      <trkpt lat="47.93478" lon="-2.53292">
        <ele>26.4</ele>
        <time>2021-08-07T13:30:04Z</time>
      </trkpt>
      <trkpt lat="47.9348" lon="-2.53297">
        <ele>26.6</ele>
        <time>2021-08-07T13:30:05Z</time>
      </trkpt>
      <trkpt lat="47.93482" lon="-2.53302">
        <ele>26.6</ele>
        <time>2021-08-07T13:30:06Z</time>
      </trkpt>
      <trkpt lat="47.93484" lon="-2.53307">
        <ele>26.6</ele>
        <time>2021-08-07T13:30:07Z</time>
      </trkpt>
      <trkpt lat="47.93486" lon="-2.53312">
        <ele>26.8</ele>
        <time>2021-08-07T13:30:08Z</time>
      </trkpt>
      <trkpt lat="47.93487" lon="-2.53317">
        <ele>26.8</ele>
        <time>2021-08-07T13:30:09Z</time>
      </trkpt>
      <trkpt lat="47.93489" lon="-2.53322">
        <ele>26.8</ele>
        <time>2021-08-07T13:30:10Z</time>
      </trkpt>
      <trkpt lat="47.93491" lon="-2.53327">
        <ele>26.8</ele>
        <time>2021-08-07T13:30:11Z</time>
      </trkpt>
      <trkpt lat="47.93493" lon="-2.53332">
        <ele>26.8</ele>
        <time>2021-08-07T13:30:12Z</time>
      </trkpt>
      <trkpt lat="47.93495" lon="-2.53338">
        <ele>27</ele>
        <time>2021-08-07T13:30:13Z</time>
      </trkpt>
      <trkpt lat="47.93497" lon="-2.53343">
        <ele>27</ele>
        <time>2021-08-07T13:30:14Z</time>
      </trkpt>
      <trkpt lat="47.93498" lon="-2.5335">
        <ele>27</ele>
        <time>2021-08-07T13:30:15Z</time>
      </trkpt>
      <trkpt lat="47.935" lon="-2.53356">
        <ele>27</ele>
        <time>2021-08-07T13:30:16Z</time>
      </trkpt>
      <trkpt lat="47.93503" lon="-2.53369">
        <ele>27</ele>
        <time>2021-08-07T13:30:18Z</time>
      </trkpt>
      <trkpt lat="47.93505" lon="-2.53375">
        <ele>27.2</ele>
        <time>2021-08-07T13:30:19Z</time>
      </trkpt>
      <trkpt lat="47.93506" lon="-2.53382">
        <ele>27.2</ele>
        <time>2021-08-07T13:30:20Z</time>
      </trkpt>
      <trkpt lat="47.93509" lon="-2.53393">
        <ele>27.2</ele>
        <time>2021-08-07T13:30:22Z</time>
      </trkpt>
      <trkpt lat="47.93512" lon="-2.53404">
        <ele>27.2</ele>
        <time>2021-08-07T13:30:24Z</time>
      </trkpt>
      <trkpt lat="47.93514" lon="-2.53411">
        <ele>27</ele>
        <time>2021-08-07T13:30:25Z</time>
      </trkpt>
      <trkpt lat="47.93515" lon="-2.53417">
        <ele>27.2</ele>
        <time>2021-08-07T13:30:26Z</time>
      </trkpt>
      <trkpt lat="47.93518" lon="-2.5343">
        <ele>27</ele>
        <time>2021-08-07T13:30:28Z</time>
      </trkpt>
      <trkpt lat="47.93519" lon="-2.53436">
        <ele>27</ele>
        <time>2021-08-07T13:30:29Z</time>
      </trkpt>
      <trkpt lat="47.9352" lon="-2.53443">
        <ele>27</ele>
        <time>2021-08-07T13:30:30Z</time>
      </trkpt>
      <trkpt lat="47.93522" lon="-2.53449">
        <ele>26.8</ele>
        <time>2021-08-07T13:30:31Z</time>
      </trkpt>
      <trkpt lat="47.93523" lon="-2.53454">
        <ele>26.8</ele>
        <time>2021-08-07T13:30:32Z</time>
      </trkpt>
      <trkpt lat="47.93525" lon="-2.5346">
        <ele>26.8</ele>
        <time>2021-08-07T13:30:33Z</time>
      </trkpt>
      <trkpt lat="47.93527" lon="-2.53465">
        <ele>26.8</ele>
        <time>2021-08-07T13:30:34Z</time>
      </trkpt>
      <trkpt lat="47.9353" lon="-2.53472">
        <ele>26.6</ele>
        <time>2021-08-07T13:30:35Z</time>
      </trkpt>
      <trkpt lat="47.93532" lon="-2.53478">
        <ele>26.6</ele>
        <time>2021-08-07T13:30:36Z</time>
      </trkpt>
      <trkpt lat="47.93535" lon="-2.53483">
        <ele>26.6</ele>
        <time>2021-08-07T13:30:37Z</time>
      </trkpt>
      <trkpt lat="47.93537" lon="-2.53488">
        <ele>26.6</ele>
        <time>2021-08-07T13:30:38Z</time>
      </trkpt>
      <trkpt lat="47.93539" lon="-2.53493">
        <ele>26.6</ele>
        <time>2021-08-07T13:30:39Z</time>
      </trkpt>
      <trkpt lat="47.93542" lon="-2.53496">
        <ele>26.4</ele>
        <time>2021-08-07T13:30:40Z</time>
      </trkpt>
      <trkpt lat="47.93544" lon="-2.535">
        <ele>26.4</ele>
        <time>2021-08-07T13:30:41Z</time>
      </trkpt>
      <trkpt lat="47.93547" lon="-2.53503">
        <ele>26.4</ele>
        <time>2021-08-07T13:30:42Z</time>
      </trkpt>
      <trkpt lat="47.9355" lon="-2.53508">
        <ele>26.4</ele>
        <time>2021-08-07T13:30:43Z</time>
      </trkpt>
      <trkpt lat="47.93553" lon="-2.53511">
        <ele>26.4</ele>
        <time>2021-08-07T13:30:44Z</time>
      </trkpt>
      <trkpt lat="47.93555" lon="-2.53514">
        <ele>26.4</ele>
        <time>2021-08-07T13:30:45Z</time>
      </trkpt>
      <trkpt lat="47.93558" lon="-2.53518">
        <ele>26.6</ele>
        <time>2021-08-07T13:30:46Z</time>
      </trkpt>
      <trkpt lat="47.93561" lon="-2.53522">
        <ele>26.6</ele>
        <time>2021-08-07T13:30:47Z</time>
      </trkpt>
      <trkpt lat="47.93563" lon="-2.53525">
        <ele>26.6</ele>
        <time>2021-08-07T13:30:48Z</time>
      </trkpt>
      <trkpt lat="47.93566" lon="-2.53527">
        <ele>26.6</ele>
        <time>2021-08-07T13:30:49Z</time>
      </trkpt>
      <trkpt lat="47.93568" lon="-2.53529">
        <ele>26.8</ele>
        <time>2021-08-07T13:30:50Z</time>
      </trkpt>
      <trkpt lat="47.93572" lon="-2.53535">
        <ele>27.2</ele>
        <time>2021-08-07T13:30:52Z</time>
      </trkpt>
      <trkpt lat="47.93575" lon="-2.53538">
        <ele>27.4</ele>
        <time>2021-08-07T13:30:53Z</time>
      </trkpt>
      <trkpt lat="47.93578" lon="-2.53542">
        <ele>27.6</ele>
        <time>2021-08-07T13:30:54Z</time>
      </trkpt>
      <trkpt lat="47.93581" lon="-2.53546">
        <ele>27.6</ele>
        <time>2021-08-07T13:30:55Z</time>
      </trkpt>
      <trkpt lat="47.93584" lon="-2.5355">
        <ele>27.6</ele>
        <time>2021-08-07T13:30:56Z</time>
      </trkpt>
      <trkpt lat="47.93587" lon="-2.53554">
        <ele>27.6</ele>
        <time>2021-08-07T13:30:57Z</time>
      </trkpt>
      <trkpt lat="47.93591" lon="-2.53558">
        <ele>27.6</ele>
        <time>2021-08-07T13:30:58Z</time>
      </trkpt>
      <trkpt lat="47.93595" lon="-2.53562">
        <ele>27.6</ele>
        <time>2021-08-07T13:30:59Z</time>
      </trkpt>
      <trkpt lat="47.93598" lon="-2.53566">
        <ele>27.6</ele>
        <time>2021-08-07T13:31:00Z</time>
      </trkpt>
      <trkpt lat="47.93605" lon="-2.53573">
        <ele>27.6</ele>
        <time>2021-08-07T13:31:02Z</time>
      </trkpt>
      <trkpt lat="47.93608" lon="-2.53577">
        <ele>27.6</ele>
        <time>2021-08-07T13:31:03Z</time>
      </trkpt>
      <trkpt lat="47.93612" lon="-2.5358">
        <ele>27.4</ele>
        <time>2021-08-07T13:31:04Z</time>
      </trkpt>
      <trkpt lat="47.93615" lon="-2.53584">
        <ele>27.4</ele>
        <time>2021-08-07T13:31:05Z</time>
      </trkpt>
      <trkpt lat="47.93618" lon="-2.53587">
        <ele>27.4</ele>
        <time>2021-08-07T13:31:06Z</time>
      </trkpt>
      <trkpt lat="47.93621" lon="-2.5359">
        <ele>27.2</ele>
        <time>2021-08-07T13:31:07Z</time>
      </trkpt>
      <trkpt lat="47.93624" lon="-2.53594">
        <ele>27.2</ele>
        <time>2021-08-07T13:31:08Z</time>
      </trkpt>
      <trkpt lat="47.93627" lon="-2.53597">
        <ele>27.2</ele>
        <time>2021-08-07T13:31:09Z</time>
      </trkpt>
      <trkpt lat="47.93629" lon="-2.536">
        <ele>27</ele>
        <time>2021-08-07T13:31:10Z</time>
      </trkpt>
      <trkpt lat="47.93632" lon="-2.53603">
        <ele>27</ele>
        <time>2021-08-07T13:31:11Z</time>
      </trkpt>
      <trkpt lat="47.93635" lon="-2.53605">
        <ele>27</ele>
        <time>2021-08-07T13:31:12Z</time>
      </trkpt>
      <trkpt lat="47.93638" lon="-2.53608">
        <ele>27</ele>
        <time>2021-08-07T13:31:13Z</time>
      </trkpt>
      <trkpt lat="47.93642" lon="-2.53611">
        <ele>27</ele>
        <time>2021-08-07T13:31:14Z</time>
      </trkpt>
      <trkpt lat="47.93645" lon="-2.53615">
        <ele>27</ele>
        <time>2021-08-07T13:31:15Z</time>
      </trkpt>
      <trkpt lat="47.93649" lon="-2.53618">
        <ele>27</ele>
        <time>2021-08-07T13:31:16Z</time>
      </trkpt>
      <trkpt lat="47.93653" lon="-2.53622">
        <ele>27</ele>
        <time>2021-08-07T13:31:17Z</time>
      </trkpt>
      <trkpt lat="47.93657" lon="-2.53626">
        <ele>27</ele>
        <time>2021-08-07T13:31:18Z</time>
      </trkpt>
      <trkpt lat="47.93661" lon="-2.5363">
        <ele>27</ele>
        <time>2021-08-07T13:31:19Z</time>
      </trkpt>
      <trkpt lat="47.93665" lon="-2.53633">
        <ele>27</ele>
        <time>2021-08-07T13:31:20Z</time>
      </trkpt>
      <trkpt lat="47.9367" lon="-2.53637">
        <ele>26.8</ele>
        <time>2021-08-07T13:31:21Z</time>
      </trkpt>
      <trkpt lat="47.93674" lon="-2.53642">
        <ele>26.8</ele>
        <time>2021-08-07T13:31:22Z</time>
      </trkpt>
      <trkpt lat="47.93682" lon="-2.5365">
        <ele>26.8</ele>
        <time>2021-08-07T13:31:24Z</time>
      </trkpt>
      <trkpt lat="47.93686" lon="-2.53654">
        <ele>26.8</ele>
        <time>2021-08-07T13:31:25Z</time>
      </trkpt>
      <trkpt lat="47.9369" lon="-2.53658">
        <ele>27</ele>
        <time>2021-08-07T13:31:26Z</time>
      </trkpt>
      <trkpt lat="47.93693" lon="-2.53662">
        <ele>27</ele>
        <time>2021-08-07T13:31:27Z</time>
      </trkpt>
      <trkpt lat="47.93697" lon="-2.53666">
        <ele>27</ele>
        <time>2021-08-07T13:31:28Z</time>
      </trkpt>
      <trkpt lat="47.93702" lon="-2.5367">
        <ele>27</ele>
        <time>2021-08-07T13:31:29Z</time>
      </trkpt>
      <trkpt lat="47.93706" lon="-2.53674">
        <ele>27</ele>
        <time>2021-08-07T13:31:30Z</time>
      </trkpt>
      <trkpt lat="47.9371" lon="-2.53678">
        <ele>27</ele>
        <time>2021-08-07T13:31:31Z</time>
      </trkpt>
      <trkpt lat="47.93714" lon="-2.53682">
        <ele>27</ele>
        <time>2021-08-07T13:31:32Z</time>
      </trkpt>
      <trkpt lat="47.93717" lon="-2.53687">
        <ele>27</ele>
        <time>2021-08-07T13:31:33Z</time>
      </trkpt>
      <trkpt lat="47.93725" lon="-2.53695">
        <ele>27</ele>
        <time>2021-08-07T13:31:35Z</time>
      </trkpt>
      <trkpt lat="47.93729" lon="-2.53699">
        <ele>27</ele>
        <time>2021-08-07T13:31:36Z</time>
      </trkpt>
      <trkpt lat="47.93732" lon="-2.53703">
        <ele>27</ele>
        <time>2021-08-07T13:31:37Z</time>
      </trkpt>
      <trkpt lat="47.93736" lon="-2.53707">
        <ele>27</ele>
        <time>2021-08-07T13:31:38Z</time>
      </trkpt>
      <trkpt lat="47.93739" lon="-2.53711">
        <ele>27.2</ele>
        <time>2021-08-07T13:31:39Z</time>
      </trkpt>
      <trkpt lat="47.93743" lon="-2.53715">
        <ele>27.2</ele>
        <time>2021-08-07T13:31:40Z</time>
      </trkpt>
      <trkpt lat="47.93747" lon="-2.53719">
        <ele>27.2</ele>
        <time>2021-08-07T13:31:41Z</time>
      </trkpt>
      <trkpt lat="47.9375" lon="-2.53723">
        <ele>27.2</ele>
        <time>2021-08-07T13:31:42Z</time>
      </trkpt>
      <trkpt lat="47.93754" lon="-2.53727">
        <ele>27.2</ele>
        <time>2021-08-07T13:31:43Z</time>
      </trkpt>
      <trkpt lat="47.93758" lon="-2.5373">
        <ele>27.2</ele>
        <time>2021-08-07T13:31:44Z</time>
      </trkpt>
      <trkpt lat="47.93766" lon="-2.53738">
        <ele>27</ele>
        <time>2021-08-07T13:31:46Z</time>
      </trkpt>
      <trkpt lat="47.9377" lon="-2.53742">
        <ele>27</ele>
        <time>2021-08-07T13:31:47Z</time>
      </trkpt>
      <trkpt lat="47.93773" lon="-2.53746">
        <ele>27</ele>
        <time>2021-08-07T13:31:48Z</time>
      </trkpt>
      <trkpt lat="47.93777" lon="-2.5375">
        <ele>27.2</ele>
        <time>2021-08-07T13:31:49Z</time>
      </trkpt>
      <trkpt lat="47.93781" lon="-2.53754">
        <ele>27.2</ele>
        <time>2021-08-07T13:31:50Z</time>
      </trkpt>
      <trkpt lat="47.93784" lon="-2.53758">
        <ele>27.2</ele>
        <time>2021-08-07T13:31:51Z</time>
      </trkpt>
      <trkpt lat="47.93788" lon="-2.53763">
        <ele>27.2</ele>
        <time>2021-08-07T13:31:52Z</time>
      </trkpt>
      <trkpt lat="47.93792" lon="-2.53767">
        <ele>27.2</ele>
        <time>2021-08-07T13:31:53Z</time>
      </trkpt>
      <trkpt lat="47.93796" lon="-2.53771">
        <ele>27.2</ele>
        <time>2021-08-07T13:31:54Z</time>
      </trkpt>
      <trkpt lat="47.93803" lon="-2.53778">
        <ele>27</ele>
        <time>2021-08-07T13:31:56Z</time>
      </trkpt>
      <trkpt lat="47.93807" lon="-2.53782">
        <ele>27</ele>
        <time>2021-08-07T13:31:57Z</time>
      </trkpt>
      <trkpt lat="47.93811" lon="-2.53787">
        <ele>27</ele>
        <time>2021-08-07T13:31:58Z</time>
      </trkpt>
      <trkpt lat="47.93815" lon="-2.5379">
        <ele>27</ele>
        <time>2021-08-07T13:31:59Z</time>
      </trkpt>
      <trkpt lat="47.93818" lon="-2.53794">
        <ele>27</ele>
        <time>2021-08-07T13:32:00Z</time>
      </trkpt>
      <trkpt lat="47.93822" lon="-2.53798">
        <ele>27</ele>
        <time>2021-08-07T13:32:01Z</time>
      </trkpt>
      <trkpt lat="47.93825" lon="-2.53801">
        <ele>27</ele>
        <time>2021-08-07T13:32:02Z</time>
      </trkpt>
      <trkpt lat="47.93829" lon="-2.53804">
        <ele>27</ele>
        <time>2021-08-07T13:32:03Z</time>
      </trkpt>
      <trkpt lat="47.93832" lon="-2.53807">
        <ele>27</ele>
        <time>2021-08-07T13:32:04Z</time>
      </trkpt>
      <trkpt lat="47.9384" lon="-2.53813">
        <ele>27</ele>
        <time>2021-08-07T13:32:06Z</time>
      </trkpt>
      <trkpt lat="47.93844" lon="-2.53816">
        <ele>27</ele>
        <time>2021-08-07T13:32:07Z</time>
      </trkpt>
      <trkpt lat="47.93847" lon="-2.53818">
        <ele>27</ele>
        <time>2021-08-07T13:32:08Z</time>
      </trkpt>
      <trkpt lat="47.93851" lon="-2.53821">
        <ele>27</ele>
        <time>2021-08-07T13:32:09Z</time>
      </trkpt>
      <trkpt lat="47.93855" lon="-2.53823">
        <ele>27</ele>
        <time>2021-08-07T13:32:10Z</time>
      </trkpt>
      <trkpt lat="47.93859" lon="-2.53825">
        <ele>27</ele>
        <time>2021-08-07T13:32:11Z</time>
      </trkpt>
      <trkpt lat="47.93862" lon="-2.53826">
        <ele>27</ele>
        <time>2021-08-07T13:32:12Z</time>
      </trkpt>
      <trkpt lat="47.93866" lon="-2.53827">
        <ele>27</ele>
        <time>2021-08-07T13:32:13Z</time>
      </trkpt>
      <trkpt lat="47.9387" lon="-2.53829">
        <ele>27</ele>
        <time>2021-08-07T13:32:14Z</time>
      </trkpt>
      <trkpt lat="47.93879" lon="-2.53831">
        <ele>27.2</ele>
        <time>2021-08-07T13:32:16Z</time>
      </trkpt>
      <trkpt lat="47.93884" lon="-2.53832">
        <ele>27.2</ele>
        <time>2021-08-07T13:32:17Z</time>
      </trkpt>
      <trkpt lat="47.93888" lon="-2.53833">
        <ele>27.2</ele>
        <time>2021-08-07T13:32:18Z</time>
      </trkpt>
      <trkpt lat="47.93893" lon="-2.53834">
        <ele>27.4</ele>
        <time>2021-08-07T13:32:19Z</time>
      </trkpt>
      <trkpt lat="47.93897" lon="-2.53835">
        <ele>27.4</ele>
        <time>2021-08-07T13:32:20Z</time>
      </trkpt>
      <trkpt lat="47.93902" lon="-2.53836">
        <ele>27.4</ele>
        <time>2021-08-07T13:32:21Z</time>
      </trkpt>
      <trkpt lat="47.93906" lon="-2.53836">
        <ele>27.4</ele>
        <time>2021-08-07T13:32:22Z</time>
      </trkpt>
      <trkpt lat="47.93911" lon="-2.53837">
        <ele>27.4</ele>
        <time>2021-08-07T13:32:23Z</time>
      </trkpt>
      <trkpt lat="47.93916" lon="-2.53837">
        <ele>27.4</ele>
        <time>2021-08-07T13:32:24Z</time>
      </trkpt>
      <trkpt lat="47.93925" lon="-2.53838">
        <ele>27.4</ele>
        <time>2021-08-07T13:32:26Z</time>
      </trkpt>
      <trkpt lat="47.9393" lon="-2.53838">
        <ele>27.4</ele>
        <time>2021-08-07T13:32:27Z</time>
      </trkpt>
      <trkpt lat="47.93935" lon="-2.53839">
        <ele>27.4</ele>
        <time>2021-08-07T13:32:28Z</time>
      </trkpt>
      <trkpt lat="47.93939" lon="-2.53839">
        <ele>27.4</ele>
        <time>2021-08-07T13:32:29Z</time>
      </trkpt>
      <trkpt lat="47.93943" lon="-2.53839">
        <ele>27.4</ele>
        <time>2021-08-07T13:32:30Z</time>
      </trkpt>
      <trkpt lat="47.93948" lon="-2.53839">
        <ele>27.4</ele>
        <time>2021-08-07T13:32:31Z</time>
      </trkpt>
      <trkpt lat="47.93953" lon="-2.5384">
        <ele>27.4</ele>
        <time>2021-08-07T13:32:32Z</time>
      </trkpt>
      <trkpt lat="47.93957" lon="-2.5384">
        <ele>27.4</ele>
        <time>2021-08-07T13:32:33Z</time>
      </trkpt>
      <trkpt lat="47.93961" lon="-2.5384">
        <ele>27.2</ele>
        <time>2021-08-07T13:32:34Z</time>
      </trkpt>
      <trkpt lat="47.93966" lon="-2.53841">
        <ele>27.2</ele>
        <time>2021-08-07T13:32:35Z</time>
      </trkpt>
      <trkpt lat="47.93975" lon="-2.53843">
        <ele>27.2</ele>
        <time>2021-08-07T13:32:37Z</time>
      </trkpt>
      <trkpt lat="47.93979" lon="-2.53844">
        <ele>27.2</ele>
        <time>2021-08-07T13:32:38Z</time>
      </trkpt>
      <trkpt lat="47.93984" lon="-2.53845">
        <ele>27.2</ele>
        <time>2021-08-07T13:32:39Z</time>
      </trkpt>
      <trkpt lat="47.93988" lon="-2.53846">
        <ele>27.2</ele>
        <time>2021-08-07T13:32:40Z</time>
      </trkpt>
      <trkpt lat="47.93993" lon="-2.53848">
        <ele>27.2</ele>
        <time>2021-08-07T13:32:41Z</time>
      </trkpt>
      <trkpt lat="47.93997" lon="-2.53849">
        <ele>27.2</ele>
        <time>2021-08-07T13:32:42Z</time>
      </trkpt>
      <trkpt lat="47.94002" lon="-2.53851">
        <ele>27.2</ele>
        <time>2021-08-07T13:32:43Z</time>
      </trkpt>
      <trkpt lat="47.94006" lon="-2.53852">
        <ele>27.4</ele>
        <time>2021-08-07T13:32:44Z</time>
      </trkpt>
      <trkpt lat="47.94011" lon="-2.53854">
        <ele>27.2</ele>
        <time>2021-08-07T13:32:45Z</time>
      </trkpt>
      <trkpt lat="47.94015" lon="-2.53856">
        <ele>27.4</ele>
        <time>2021-08-07T13:32:46Z</time>
      </trkpt>
      <trkpt lat="47.94024" lon="-2.5386">
        <ele>27.4</ele>
        <time>2021-08-07T13:32:48Z</time>
      </trkpt>
      <trkpt lat="47.94028" lon="-2.53862">
        <ele>27.4</ele>
        <time>2021-08-07T13:32:49Z</time>
      </trkpt>
      <trkpt lat="47.94031" lon="-2.53864">
        <ele>27.4</ele>
        <time>2021-08-07T13:32:50Z</time>
      </trkpt>
      <trkpt lat="47.94035" lon="-2.53866">
        <ele>27.6</ele>
        <time>2021-08-07T13:32:51Z</time>
      </trkpt>
      <trkpt lat="47.94038" lon="-2.53868">
        <ele>27.6</ele>
        <time>2021-08-07T13:32:52Z</time>
      </trkpt>
      <trkpt lat="47.94042" lon="-2.53869">
        <ele>27.6</ele>
        <time>2021-08-07T13:32:53Z</time>
      </trkpt>
      <trkpt lat="47.94045" lon="-2.53871">
        <ele>27.6</ele>
        <time>2021-08-07T13:32:54Z</time>
      </trkpt>
      <trkpt lat="47.94049" lon="-2.53874">
        <ele>27.6</ele>
        <time>2021-08-07T13:32:55Z</time>
      </trkpt>
      <trkpt lat="47.94054" lon="-2.53876">
        <ele>27.6</ele>
        <time>2021-08-07T13:32:56Z</time>
      </trkpt>
      <trkpt lat="47.94062" lon="-2.5388">
        <ele>27.6</ele>
        <time>2021-08-07T13:32:58Z</time>
      </trkpt>
      <trkpt lat="47.94066" lon="-2.53883">
        <ele>27.6</ele>
        <time>2021-08-07T13:32:59Z</time>
      </trkpt>
      <trkpt lat="47.94071" lon="-2.53885">
        <ele>27.6</ele>
        <time>2021-08-07T13:33:00Z</time>
      </trkpt>
      <trkpt lat="47.94075" lon="-2.53888">
        <ele>27.6</ele>
        <time>2021-08-07T13:33:01Z</time>
      </trkpt>
      <trkpt lat="47.94079" lon="-2.53889">
        <ele>27.6</ele>
        <time>2021-08-07T13:33:02Z</time>
      </trkpt>
      <trkpt lat="47.94083" lon="-2.53891">
        <ele>27.6</ele>
        <time>2021-08-07T13:33:03Z</time>
      </trkpt>
      <trkpt lat="47.94087" lon="-2.53893">
        <ele>27.6</ele>
        <time>2021-08-07T13:33:04Z</time>
      </trkpt>
      <trkpt lat="47.94091" lon="-2.53894">
        <ele>27.6</ele>
        <time>2021-08-07T13:33:05Z</time>
      </trkpt>
      <trkpt lat="47.94095" lon="-2.53896">
        <ele>27.6</ele>
        <time>2021-08-07T13:33:06Z</time>
      </trkpt>
      <trkpt lat="47.941" lon="-2.53898">
        <ele>27.6</ele>
        <time>2021-08-07T13:33:07Z</time>
      </trkpt>
      <trkpt lat="47.94108" lon="-2.53903">
        <ele>27.4</ele>
        <time>2021-08-07T13:33:09Z</time>
      </trkpt>
      <trkpt lat="47.94113" lon="-2.53905">
        <ele>27.4</ele>
        <time>2021-08-07T13:33:10Z</time>
      </trkpt>
      <trkpt lat="47.94117" lon="-2.53907">
        <ele>27.4</ele>
        <time>2021-08-07T13:33:11Z</time>
      </trkpt>
      <trkpt lat="47.94122" lon="-2.53909">
        <ele>27.4</ele>
        <time>2021-08-07T13:33:12Z</time>
      </trkpt>
      <trkpt lat="47.94126" lon="-2.53911">
        <ele>27.4</ele>
        <time>2021-08-07T13:33:13Z</time>
      </trkpt>
      <trkpt lat="47.94131" lon="-2.53913">
        <ele>27.4</ele>
        <time>2021-08-07T13:33:14Z</time>
      </trkpt>
      <trkpt lat="47.94135" lon="-2.53916">
        <ele>27.2</ele>
        <time>2021-08-07T13:33:15Z</time>
      </trkpt>
      <trkpt lat="47.94139" lon="-2.53918">
        <ele>27.2</ele>
        <time>2021-08-07T13:33:16Z</time>
      </trkpt>
      <trkpt lat="47.94143" lon="-2.5392">
        <ele>27</ele>
        <time>2021-08-07T13:33:17Z</time>
      </trkpt>
      <trkpt lat="47.94151" lon="-2.53924">
        <ele>26.8</ele>
        <time>2021-08-07T13:33:19Z</time>
      </trkpt>
      <trkpt lat="47.94155" lon="-2.53927">
        <ele>26.8</ele>
        <time>2021-08-07T13:33:20Z</time>
      </trkpt>
      <trkpt lat="47.94159" lon="-2.53929">
        <ele>26.8</ele>
        <time>2021-08-07T13:33:21Z</time>
      </trkpt>
      <trkpt lat="47.94163" lon="-2.5393">
        <ele>26.8</ele>
        <time>2021-08-07T13:33:22Z</time>
      </trkpt>
      <trkpt lat="47.94167" lon="-2.53932">
        <ele>26.8</ele>
        <time>2021-08-07T13:33:23Z</time>
      </trkpt>
      <trkpt lat="47.9417" lon="-2.53933">
        <ele>26.8</ele>
        <time>2021-08-07T13:33:24Z</time>
      </trkpt>
      <trkpt lat="47.94173" lon="-2.53935">
        <ele>26.8</ele>
        <time>2021-08-07T13:33:25Z</time>
      </trkpt>
      <trkpt lat="47.94177" lon="-2.53936">
        <ele>26.8</ele>
        <time>2021-08-07T13:33:26Z</time>
      </trkpt>
      <trkpt lat="47.94181" lon="-2.53937">
        <ele>26.8</ele>
        <time>2021-08-07T13:33:27Z</time>
      </trkpt>
      <trkpt lat="47.94189" lon="-2.53941">
        <ele>26.8</ele>
        <time>2021-08-07T13:33:29Z</time>
      </trkpt>
      <trkpt lat="47.94193" lon="-2.53943">
        <ele>26.8</ele>
        <time>2021-08-07T13:33:30Z</time>
      </trkpt>
      <trkpt lat="47.94198" lon="-2.53944">
        <ele>26.8</ele>
        <time>2021-08-07T13:33:31Z</time>
      </trkpt>
      <trkpt lat="47.94202" lon="-2.53946">
        <ele>27</ele>
        <time>2021-08-07T13:33:32Z</time>
      </trkpt>
      <trkpt lat="47.94207" lon="-2.53948">
        <ele>27</ele>
        <time>2021-08-07T13:33:33Z</time>
      </trkpt>
      <trkpt lat="47.94211" lon="-2.5395">
        <ele>27</ele>
        <time>2021-08-07T13:33:34Z</time>
      </trkpt>
      <trkpt lat="47.94215" lon="-2.53952">
        <ele>27</ele>
        <time>2021-08-07T13:33:35Z</time>
      </trkpt>
      <trkpt lat="47.9422" lon="-2.53953">
        <ele>27</ele>
        <time>2021-08-07T13:33:36Z</time>
      </trkpt>
      <trkpt lat="47.94223" lon="-2.53955">
        <ele>27</ele>
        <time>2021-08-07T13:33:37Z</time>
      </trkpt>
      <trkpt lat="47.94227" lon="-2.53956">
        <ele>27</ele>
        <time>2021-08-07T13:33:38Z</time>
      </trkpt>
      <trkpt lat="47.94235" lon="-2.5396">
        <ele>27</ele>
        <time>2021-08-07T13:33:40Z</time>
      </trkpt>
      <trkpt lat="47.9424" lon="-2.53963">
        <ele>27</ele>
        <time>2021-08-07T13:33:41Z</time>
      </trkpt>
      <trkpt lat="47.94244" lon="-2.53965">
        <ele>27</ele>
        <time>2021-08-07T13:33:42Z</time>
      </trkpt>
      <trkpt lat="47.94248" lon="-2.53967">
        <ele>27</ele>
        <time>2021-08-07T13:33:43Z</time>
      </trkpt>
      <trkpt lat="47.94253" lon="-2.53969">
        <ele>27</ele>
        <time>2021-08-07T13:33:44Z</time>
      </trkpt>
      <trkpt lat="47.94257" lon="-2.53971">
        <ele>27</ele>
        <time>2021-08-07T13:33:45Z</time>
      </trkpt>
      <trkpt lat="47.94261" lon="-2.53972">
        <ele>27</ele>
        <time>2021-08-07T13:33:46Z</time>
      </trkpt>
      <trkpt lat="47.94265" lon="-2.53974">
        <ele>27</ele>
        <time>2021-08-07T13:33:47Z</time>
      </trkpt>
      <trkpt lat="47.94269" lon="-2.53975">
        <ele>27</ele>
        <time>2021-08-07T13:33:48Z</time>
      </trkpt>
      <trkpt lat="47.94274" lon="-2.53976">
        <ele>27</ele>
        <time>2021-08-07T13:33:49Z</time>
      </trkpt>
      <trkpt lat="47.94282" lon="-2.53979">
        <ele>27</ele>
        <time>2021-08-07T13:33:51Z</time>
      </trkpt>
      <trkpt lat="47.94286" lon="-2.5398">
        <ele>27</ele>
        <time>2021-08-07T13:33:52Z</time>
      </trkpt>
      <trkpt lat="47.94291" lon="-2.53981">
        <ele>27</ele>
        <time>2021-08-07T13:33:53Z</time>
      </trkpt>
      <trkpt lat="47.94295" lon="-2.53982">
        <ele>27</ele>
        <time>2021-08-07T13:33:54Z</time>
      </trkpt>
      <trkpt lat="47.94299" lon="-2.53983">
        <ele>26.8</ele>
        <time>2021-08-07T13:33:55Z</time>
      </trkpt>
      <trkpt lat="47.94304" lon="-2.53984">
        <ele>26.8</ele>
        <time>2021-08-07T13:33:56Z</time>
      </trkpt>
      <trkpt lat="47.94308" lon="-2.53985">
        <ele>26.8</ele>
        <time>2021-08-07T13:33:57Z</time>
      </trkpt>
      <trkpt lat="47.94312" lon="-2.53987">
        <ele>26.8</ele>
        <time>2021-08-07T13:33:58Z</time>
      </trkpt>
      <trkpt lat="47.94316" lon="-2.53988">
        <ele>26.8</ele>
        <time>2021-08-07T13:33:59Z</time>
      </trkpt>
      <trkpt lat="47.94319" lon="-2.53989">
        <ele>26.8</ele>
        <time>2021-08-07T13:34:00Z</time>
      </trkpt>
      <trkpt lat="47.94323" lon="-2.53991">
        <ele>26.8</ele>
        <time>2021-08-07T13:34:01Z</time>
      </trkpt>
      <trkpt lat="47.94327" lon="-2.53993">
        <ele>26.8</ele>
        <time>2021-08-07T13:34:02Z</time>
      </trkpt>
      <trkpt lat="47.94331" lon="-2.53994">
        <ele>26.8</ele>
        <time>2021-08-07T13:34:03Z</time>
      </trkpt>
      <trkpt lat="47.94335" lon="-2.53995">
        <ele>26.8</ele>
        <time>2021-08-07T13:34:04Z</time>
      </trkpt>
      <trkpt lat="47.94338" lon="-2.53997">
        <ele>26.8</ele>
        <time>2021-08-07T13:34:05Z</time>
      </trkpt>
      <trkpt lat="47.94342" lon="-2.53998">
        <ele>26.8</ele>
        <time>2021-08-07T13:34:06Z</time>
      </trkpt>
      <trkpt lat="47.94346" lon="-2.53998">
        <ele>26.8</ele>
        <time>2021-08-07T13:34:07Z</time>
      </trkpt>
      <trkpt lat="47.9435" lon="-2.53999">
        <ele>27</ele>
        <time>2021-08-07T13:34:08Z</time>
      </trkpt>
      <trkpt lat="47.94355" lon="-2.54">
        <ele>27</ele>
        <time>2021-08-07T13:34:09Z</time>
      </trkpt>
      <trkpt lat="47.94359" lon="-2.54001">
        <ele>27.2</ele>
        <time>2021-08-07T13:34:10Z</time>
      </trkpt>
      <trkpt lat="47.94363" lon="-2.54002">
        <ele>27.2</ele>
        <time>2021-08-07T13:34:11Z</time>
      </trkpt>
      <trkpt lat="47.94367" lon="-2.54003">
        <ele>27.4</ele>
        <time>2021-08-07T13:34:12Z</time>
      </trkpt>
      <trkpt lat="47.94371" lon="-2.54004">
        <ele>27.6</ele>
        <time>2021-08-07T13:34:13Z</time>
      </trkpt>
      <trkpt lat="47.94376" lon="-2.54006">
        <ele>27.6</ele>
        <time>2021-08-07T13:34:14Z</time>
      </trkpt>
      <trkpt lat="47.94381" lon="-2.54008">
        <ele>27.6</ele>
        <time>2021-08-07T13:34:15Z</time>
      </trkpt>
      <trkpt lat="47.94386" lon="-2.5401">
        <ele>27.6</ele>
        <time>2021-08-07T13:34:16Z</time>
      </trkpt>
      <trkpt lat="47.9439" lon="-2.54012">
        <ele>27.6</ele>
        <time>2021-08-07T13:34:17Z</time>
      </trkpt>
      <trkpt lat="47.94395" lon="-2.54014">
        <ele>27.6</ele>
        <time>2021-08-07T13:34:18Z</time>
      </trkpt>
      <trkpt lat="47.94399" lon="-2.54016">
        <ele>27.6</ele>
        <time>2021-08-07T13:34:19Z</time>
      </trkpt>
      <trkpt lat="47.94404" lon="-2.54018">
        <ele>27.6</ele>
        <time>2021-08-07T13:34:20Z</time>
      </trkpt>
      <trkpt lat="47.94413" lon="-2.54023">
        <ele>27.6</ele>
        <time>2021-08-07T13:34:22Z</time>
      </trkpt>
      <trkpt lat="47.94416" lon="-2.54025">
        <ele>27.6</ele>
        <time>2021-08-07T13:34:23Z</time>
      </trkpt>
      <trkpt lat="47.94419" lon="-2.54027">
        <ele>27.6</ele>
        <time>2021-08-07T13:34:24Z</time>
      </trkpt>
      <trkpt lat="47.94423" lon="-2.54029">
        <ele>27.6</ele>
        <time>2021-08-07T13:34:25Z</time>
      </trkpt>
      <trkpt lat="47.94426" lon="-2.5403">
        <ele>27.6</ele>
        <time>2021-08-07T13:34:26Z</time>
      </trkpt>
      <trkpt lat="47.94429" lon="-2.54032">
        <ele>27.6</ele>
        <time>2021-08-07T13:34:27Z</time>
      </trkpt>
      <trkpt lat="47.94432" lon="-2.54034">
        <ele>27.6</ele>
        <time>2021-08-07T13:34:28Z</time>
      </trkpt>
      <trkpt lat="47.94435" lon="-2.54035">
        <ele>27.6</ele>
        <time>2021-08-07T13:34:29Z</time>
      </trkpt>
      <trkpt lat="47.94439" lon="-2.54037">
        <ele>27.6</ele>
        <time>2021-08-07T13:34:30Z</time>
      </trkpt>
      <trkpt lat="47.94443" lon="-2.54038">
        <ele>27.8</ele>
        <time>2021-08-07T13:34:31Z</time>
      </trkpt>
      <trkpt lat="47.94446" lon="-2.5404">
        <ele>27.8</ele>
        <time>2021-08-07T13:34:32Z</time>
      </trkpt>
      <trkpt lat="47.94449" lon="-2.54043">
        <ele>27.8</ele>
        <time>2021-08-07T13:34:33Z</time>
      </trkpt>
      <trkpt lat="47.94453" lon="-2.54046">
        <ele>27.6</ele>
        <time>2021-08-07T13:34:34Z</time>
      </trkpt>
      <trkpt lat="47.94458" lon="-2.54048">
        <ele>27.8</ele>
        <time>2021-08-07T13:34:35Z</time>
      </trkpt>
      <trkpt lat="47.94463" lon="-2.54051">
        <ele>28</ele>
        <time>2021-08-07T13:34:36Z</time>
      </trkpt>
      <trkpt lat="47.94467" lon="-2.54053">
        <ele>27.8</ele>
        <time>2021-08-07T13:34:37Z</time>
      </trkpt>
      <trkpt lat="47.94471" lon="-2.54056">
        <ele>27.8</ele>
        <time>2021-08-07T13:34:38Z</time>
      </trkpt>
      <trkpt lat="47.94474" lon="-2.54058">
        <ele>27.8</ele>
        <time>2021-08-07T13:34:39Z</time>
      </trkpt>
      <trkpt lat="47.94478" lon="-2.5406">
        <ele>27.8</ele>
        <time>2021-08-07T13:34:40Z</time>
      </trkpt>
      <trkpt lat="47.94482" lon="-2.54063">
        <ele>27.8</ele>
        <time>2021-08-07T13:34:41Z</time>
      </trkpt>
      <trkpt lat="47.94486" lon="-2.54066">
        <ele>27.8</ele>
        <time>2021-08-07T13:34:42Z</time>
      </trkpt>
      <trkpt lat="47.94489" lon="-2.54069">
        <ele>27.8</ele>
        <time>2021-08-07T13:34:43Z</time>
      </trkpt>
      <trkpt lat="47.94493" lon="-2.54072">
        <ele>27.8</ele>
        <time>2021-08-07T13:34:44Z</time>
      </trkpt>
      <trkpt lat="47.94497" lon="-2.54075">
        <ele>27.8</ele>
        <time>2021-08-07T13:34:45Z</time>
      </trkpt>
      <trkpt lat="47.94501" lon="-2.54078">
        <ele>27.8</ele>
        <time>2021-08-07T13:34:46Z</time>
      </trkpt>
      <trkpt lat="47.94505" lon="-2.54081">
        <ele>27.8</ele>
        <time>2021-08-07T13:34:47Z</time>
      </trkpt>
      <trkpt lat="47.94509" lon="-2.54085">
        <ele>27.6</ele>
        <time>2021-08-07T13:34:48Z</time>
      </trkpt>
      <trkpt lat="47.94513" lon="-2.54088">
        <ele>27.4</ele>
        <time>2021-08-07T13:34:49Z</time>
      </trkpt>
      <trkpt lat="47.94517" lon="-2.54091">
        <ele>27.4</ele>
        <time>2021-08-07T13:34:50Z</time>
      </trkpt>
      <trkpt lat="47.94521" lon="-2.54094">
        <ele>27.2</ele>
        <time>2021-08-07T13:34:51Z</time>
      </trkpt>
      <trkpt lat="47.94525" lon="-2.54097">
        <ele>27.2</ele>
        <time>2021-08-07T13:34:52Z</time>
      </trkpt>
      <trkpt lat="47.9453" lon="-2.54101">
        <ele>27.2</ele>
        <time>2021-08-07T13:34:53Z</time>
      </trkpt>
      <trkpt lat="47.94534" lon="-2.54104">
        <ele>27.2</ele>
        <time>2021-08-07T13:34:54Z</time>
      </trkpt>
      <trkpt lat="47.94538" lon="-2.54107">
        <ele>27.2</ele>
        <time>2021-08-07T13:34:55Z</time>
      </trkpt>
      <trkpt lat="47.94543" lon="-2.54111">
        <ele>27.2</ele>
        <time>2021-08-07T13:34:56Z</time>
      </trkpt>
      <trkpt lat="47.94547" lon="-2.54114">
        <ele>27.2</ele>
        <time>2021-08-07T13:34:57Z</time>
      </trkpt>
      <trkpt lat="47.94551" lon="-2.54116">
        <ele>27.2</ele>
        <time>2021-08-07T13:34:58Z</time>
      </trkpt>
      <trkpt lat="47.94556" lon="-2.54119">
        <ele>27.2</ele>
        <time>2021-08-07T13:34:59Z</time>
      </trkpt>
      <trkpt lat="47.94561" lon="-2.54122">
        <ele>27.2</ele>
        <time>2021-08-07T13:35:00Z</time>
      </trkpt>
      <trkpt lat="47.94565" lon="-2.54126">
        <ele>27.2</ele>
        <time>2021-08-07T13:35:01Z</time>
      </trkpt>
      <trkpt lat="47.94574" lon="-2.54133">
        <ele>27.2</ele>
        <time>2021-08-07T13:35:03Z</time>
      </trkpt>
      <trkpt lat="47.94579" lon="-2.54137">
        <ele>27.2</ele>
        <time>2021-08-07T13:35:04Z</time>
      </trkpt>
      <trkpt lat="47.94583" lon="-2.54141">
        <ele>27.4</ele>
        <time>2021-08-07T13:35:05Z</time>
      </trkpt>
      <trkpt lat="47.94588" lon="-2.54146">
        <ele>27.4</ele>
        <time>2021-08-07T13:35:06Z</time>
      </trkpt>
      <trkpt lat="47.94591" lon="-2.54149">
        <ele>27.6</ele>
        <time>2021-08-07T13:35:07Z</time>
      </trkpt>
      <trkpt lat="47.94596" lon="-2.54153">
        <ele>27.6</ele>
        <time>2021-08-07T13:35:08Z</time>
      </trkpt>
      <trkpt lat="47.946" lon="-2.54156">
        <ele>27.6</ele>
        <time>2021-08-07T13:35:09Z</time>
      </trkpt>
      <trkpt lat="47.94605" lon="-2.54159">
        <ele>27.6</ele>
        <time>2021-08-07T13:35:10Z</time>
      </trkpt>
      <trkpt lat="47.94609" lon="-2.54163">
        <ele>27.6</ele>
        <time>2021-08-07T13:35:11Z</time>
      </trkpt>
      <trkpt lat="47.94617" lon="-2.5417">
        <ele>27.6</ele>
        <time>2021-08-07T13:35:13Z</time>
      </trkpt>
      <trkpt lat="47.94621" lon="-2.54173">
        <ele>27.4</ele>
        <time>2021-08-07T13:35:14Z</time>
      </trkpt>
      <trkpt lat="47.94625" lon="-2.54177">
        <ele>27.4</ele>
        <time>2021-08-07T13:35:15Z</time>
      </trkpt>
      <trkpt lat="47.94629" lon="-2.5418">
        <ele>27.4</ele>
        <time>2021-08-07T13:35:16Z</time>
      </trkpt>
      <trkpt lat="47.94632" lon="-2.54183">
        <ele>27.4</ele>
        <time>2021-08-07T13:35:17Z</time>
      </trkpt>
      <trkpt lat="47.94637" lon="-2.54186">
        <ele>27.4</ele>
        <time>2021-08-07T13:35:18Z</time>
      </trkpt>
      <trkpt lat="47.94641" lon="-2.54189">
        <ele>27.4</ele>
        <time>2021-08-07T13:35:19Z</time>
      </trkpt>
      <trkpt lat="47.94645" lon="-2.54192">
        <ele>27.4</ele>
        <time>2021-08-07T13:35:20Z</time>
      </trkpt>
      <trkpt lat="47.94652" lon="-2.54197">
        <ele>27.2</ele>
        <time>2021-08-07T13:35:22Z</time>
      </trkpt>
      <trkpt lat="47.94656" lon="-2.542">
        <ele>27.2</ele>
        <time>2021-08-07T13:35:23Z</time>
      </trkpt>
      <trkpt lat="47.9466" lon="-2.54203">
        <ele>27.2</ele>
        <time>2021-08-07T13:35:24Z</time>
      </trkpt>
      <trkpt lat="47.94664" lon="-2.54206">
        <ele>27.2</ele>
        <time>2021-08-07T13:35:25Z</time>
      </trkpt>
      <trkpt lat="47.94668" lon="-2.54209">
        <ele>27.2</ele>
        <time>2021-08-07T13:35:26Z</time>
      </trkpt>
      <trkpt lat="47.94672" lon="-2.54212">
        <ele>27.2</ele>
        <time>2021-08-07T13:35:27Z</time>
      </trkpt>
      <trkpt lat="47.94677" lon="-2.54214">
        <ele>27</ele>
        <time>2021-08-07T13:35:28Z</time>
      </trkpt>
      <trkpt lat="47.94681" lon="-2.54217">
        <ele>27</ele>
        <time>2021-08-07T13:35:29Z</time>
      </trkpt>
      <trkpt lat="47.94685" lon="-2.5422">
        <ele>27</ele>
        <time>2021-08-07T13:35:30Z</time>
      </trkpt>
      <trkpt lat="47.94689" lon="-2.54223">
        <ele>27</ele>
        <time>2021-08-07T13:35:31Z</time>
      </trkpt>
      <trkpt lat="47.94693" lon="-2.54226">
        <ele>27</ele>
        <time>2021-08-07T13:35:32Z</time>
      </trkpt>
      <trkpt lat="47.94697" lon="-2.54229">
        <ele>27</ele>
        <time>2021-08-07T13:35:33Z</time>
      </trkpt>
      <trkpt lat="47.94702" lon="-2.54231">
        <ele>27</ele>
        <time>2021-08-07T13:35:34Z</time>
      </trkpt>
      <trkpt lat="47.94706" lon="-2.54234">
        <ele>27</ele>
        <time>2021-08-07T13:35:35Z</time>
      </trkpt>
      <trkpt lat="47.94709" lon="-2.54237">
        <ele>27</ele>
        <time>2021-08-07T13:35:36Z</time>
      </trkpt>
      <trkpt lat="47.94713" lon="-2.5424">
        <ele>27</ele>
        <time>2021-08-07T13:35:37Z</time>
      </trkpt>
      <trkpt lat="47.94717" lon="-2.54243">
        <ele>27</ele>
        <time>2021-08-07T13:35:38Z</time>
      </trkpt>
      <trkpt lat="47.94721" lon="-2.54246">
        <ele>27</ele>
        <time>2021-08-07T13:35:39Z</time>
      </trkpt>
      <trkpt lat="47.94726" lon="-2.54249">
        <ele>27</ele>
        <time>2021-08-07T13:35:40Z</time>
      </trkpt>
      <trkpt lat="47.94729" lon="-2.54253">
        <ele>26.8</ele>
        <time>2021-08-07T13:35:41Z</time>
      </trkpt>
      <trkpt lat="47.94733" lon="-2.54255">
        <ele>26.8</ele>
        <time>2021-08-07T13:35:42Z</time>
      </trkpt>
      <trkpt lat="47.94737" lon="-2.54257">
        <ele>26.8</ele>
        <time>2021-08-07T13:35:43Z</time>
      </trkpt>
      <trkpt lat="47.94741" lon="-2.5426">
        <ele>26.8</ele>
        <time>2021-08-07T13:35:44Z</time>
      </trkpt>
      <trkpt lat="47.94745" lon="-2.54263">
        <ele>26.8</ele>
        <time>2021-08-07T13:35:45Z</time>
      </trkpt>
      <trkpt lat="47.94749" lon="-2.54267">
        <ele>26.8</ele>
        <time>2021-08-07T13:35:46Z</time>
      </trkpt>
      <trkpt lat="47.94753" lon="-2.5427">
        <ele>26.8</ele>
        <time>2021-08-07T13:35:47Z</time>
      </trkpt>
      <trkpt lat="47.94757" lon="-2.54273">
        <ele>26.8</ele>
        <time>2021-08-07T13:35:48Z</time>
      </trkpt>
      <trkpt lat="47.94762" lon="-2.54276">
        <ele>27</ele>
        <time>2021-08-07T13:35:49Z</time>
      </trkpt>
      <trkpt lat="47.94766" lon="-2.54279">
        <ele>27</ele>
        <time>2021-08-07T13:35:50Z</time>
      </trkpt>
      <trkpt lat="47.9477" lon="-2.54281">
        <ele>27</ele>
        <time>2021-08-07T13:35:51Z</time>
      </trkpt>
      <trkpt lat="47.94775" lon="-2.54283">
        <ele>27</ele>
        <time>2021-08-07T13:35:52Z</time>
      </trkpt>
      <trkpt lat="47.94778" lon="-2.54285">
        <ele>27</ele>
        <time>2021-08-07T13:35:53Z</time>
      </trkpt>
      <trkpt lat="47.94782" lon="-2.54288">
        <ele>27</ele>
        <time>2021-08-07T13:35:54Z</time>
      </trkpt>
      <trkpt lat="47.94786" lon="-2.5429">
        <ele>27</ele>
        <time>2021-08-07T13:35:55Z</time>
      </trkpt>
      <trkpt lat="47.94789" lon="-2.54292">
        <ele>27</ele>
        <time>2021-08-07T13:35:56Z</time>
      </trkpt>
      <trkpt lat="47.94799" lon="-2.54297">
        <ele>27</ele>
        <time>2021-08-07T13:35:58Z</time>
      </trkpt>
      <trkpt lat="47.94803" lon="-2.543">
        <ele>26.8</ele>
        <time>2021-08-07T13:35:59Z</time>
      </trkpt>
      <trkpt lat="47.94807" lon="-2.54303">
        <ele>26.8</ele>
        <time>2021-08-07T13:36:00Z</time>
      </trkpt>
      <trkpt lat="47.94811" lon="-2.54306">
        <ele>26.6</ele>
        <time>2021-08-07T13:36:01Z</time>
      </trkpt>
      <trkpt lat="47.94815" lon="-2.54308">
        <ele>26.6</ele>
        <time>2021-08-07T13:36:02Z</time>
      </trkpt>
      <trkpt lat="47.94819" lon="-2.54311">
        <ele>26.6</ele>
        <time>2021-08-07T13:36:03Z</time>
      </trkpt>
      <trkpt lat="47.94822" lon="-2.54313">
        <ele>26.6</ele>
        <time>2021-08-07T13:36:04Z</time>
      </trkpt>
      <trkpt lat="47.94826" lon="-2.54315">
        <ele>26.6</ele>
        <time>2021-08-07T13:36:05Z</time>
      </trkpt>
      <trkpt lat="47.94833" lon="-2.5432">
        <ele>26.6</ele>
        <time>2021-08-07T13:36:07Z</time>
      </trkpt>
      <trkpt lat="47.94837" lon="-2.54322">
        <ele>26.6</ele>
        <time>2021-08-07T13:36:08Z</time>
      </trkpt>
      <trkpt lat="47.94841" lon="-2.54323">
        <ele>26.6</ele>
        <time>2021-08-07T13:36:09Z</time>
      </trkpt>
      <trkpt lat="47.94844" lon="-2.54325">
        <ele>26.8</ele>
        <time>2021-08-07T13:36:10Z</time>
      </trkpt>
      <trkpt lat="47.94847" lon="-2.54327">
        <ele>26.8</ele>
        <time>2021-08-07T13:36:11Z</time>
      </trkpt>
      <trkpt lat="47.9485" lon="-2.5433">
        <ele>27</ele>
        <time>2021-08-07T13:36:12Z</time>
      </trkpt>
      <trkpt lat="47.94853" lon="-2.54333">
        <ele>27</ele>
        <time>2021-08-07T13:36:13Z</time>
      </trkpt>
      <trkpt lat="47.94856" lon="-2.54336">
        <ele>27</ele>
        <time>2021-08-07T13:36:14Z</time>
      </trkpt>
      <trkpt lat="47.94864" lon="-2.54341">
        <ele>27.4</ele>
        <time>2021-08-07T13:36:16Z</time>
      </trkpt>
      <trkpt lat="47.94867" lon="-2.54343">
        <ele>27.4</ele>
        <time>2021-08-07T13:36:17Z</time>
      </trkpt>
      <trkpt lat="47.94869" lon="-2.54345">
        <ele>27.6</ele>
        <time>2021-08-07T13:36:18Z</time>
      </trkpt>
      <trkpt lat="47.94873" lon="-2.54348">
        <ele>27.6</ele>
        <time>2021-08-07T13:36:19Z</time>
      </trkpt>
      <trkpt lat="47.94876" lon="-2.54351">
        <ele>27.6</ele>
        <time>2021-08-07T13:36:20Z</time>
      </trkpt>
      <trkpt lat="47.9488" lon="-2.54354">
        <ele>27.6</ele>
        <time>2021-08-07T13:36:21Z</time>
      </trkpt>
      <trkpt lat="47.94884" lon="-2.54358">
        <ele>27.6</ele>
        <time>2021-08-07T13:36:22Z</time>
      </trkpt>
      <trkpt lat="47.94888" lon="-2.54361">
        <ele>27.6</ele>
        <time>2021-08-07T13:36:23Z</time>
      </trkpt>
      <trkpt lat="47.94896" lon="-2.54365">
        <ele>27.6</ele>
        <time>2021-08-07T13:36:25Z</time>
      </trkpt>
      <trkpt lat="47.949" lon="-2.54368">
        <ele>27.6</ele>
        <time>2021-08-07T13:36:26Z</time>
      </trkpt>
      <trkpt lat="47.94905" lon="-2.5437">
        <ele>27.6</ele>
        <time>2021-08-07T13:36:27Z</time>
      </trkpt>
      <trkpt lat="47.94909" lon="-2.54374">
        <ele>27.6</ele>
        <time>2021-08-07T13:36:28Z</time>
      </trkpt>
      <trkpt lat="47.94913" lon="-2.54377">
        <ele>27.6</ele>
        <time>2021-08-07T13:36:29Z</time>
      </trkpt>
      <trkpt lat="47.94917" lon="-2.5438">
        <ele>27.6</ele>
        <time>2021-08-07T13:36:30Z</time>
      </trkpt>
      <trkpt lat="47.94922" lon="-2.54384">
        <ele>27.6</ele>
        <time>2021-08-07T13:36:31Z</time>
      </trkpt>
      <trkpt lat="47.94926" lon="-2.54387">
        <ele>27.6</ele>
        <time>2021-08-07T13:36:32Z</time>
      </trkpt>
      <trkpt lat="47.94932" lon="-2.54394">
        <ele>27.6</ele>
        <time>2021-08-07T13:36:34Z</time>
      </trkpt>
      <trkpt lat="47.94936" lon="-2.54398">
        <ele>27.6</ele>
        <time>2021-08-07T13:36:35Z</time>
      </trkpt>
      <trkpt lat="47.94939" lon="-2.54402">
        <ele>27.6</ele>
        <time>2021-08-07T13:36:36Z</time>
      </trkpt>
      <trkpt lat="47.94943" lon="-2.54406">
        <ele>27.6</ele>
        <time>2021-08-07T13:36:37Z</time>
      </trkpt>
      <trkpt lat="47.94947" lon="-2.5441">
        <ele>27.6</ele>
        <time>2021-08-07T13:36:38Z</time>
      </trkpt>
      <trkpt lat="47.9495" lon="-2.54414">
        <ele>27.6</ele>
        <time>2021-08-07T13:36:39Z</time>
      </trkpt>
      <trkpt lat="47.94954" lon="-2.54418">
        <ele>27.6</ele>
        <time>2021-08-07T13:36:40Z</time>
      </trkpt>
      <trkpt lat="47.94958" lon="-2.54423">
        <ele>27.8</ele>
        <time>2021-08-07T13:36:41Z</time>
      </trkpt>
      <trkpt lat="47.94962" lon="-2.54427">
        <ele>27.8</ele>
        <time>2021-08-07T13:36:42Z</time>
      </trkpt>
      <trkpt lat="47.94965" lon="-2.54431">
        <ele>27.8</ele>
        <time>2021-08-07T13:36:43Z</time>
      </trkpt>
      <trkpt lat="47.94968" lon="-2.54435">
        <ele>27.8</ele>
        <time>2021-08-07T13:36:44Z</time>
      </trkpt>
      <trkpt lat="47.94972" lon="-2.54438">
        <ele>27.8</ele>
        <time>2021-08-07T13:36:45Z</time>
      </trkpt>
      <trkpt lat="47.94975" lon="-2.54441">
        <ele>27.8</ele>
        <time>2021-08-07T13:36:46Z</time>
      </trkpt>
      <trkpt lat="47.94978" lon="-2.54445">
        <ele>27.8</ele>
        <time>2021-08-07T13:36:47Z</time>
      </trkpt>
      <trkpt lat="47.94981" lon="-2.54448">
        <ele>27.8</ele>
        <time>2021-08-07T13:36:48Z</time>
      </trkpt>
      <trkpt lat="47.94984" lon="-2.54451">
        <ele>28</ele>
        <time>2021-08-07T13:36:49Z</time>
      </trkpt>
      <trkpt lat="47.94987" lon="-2.54456">
        <ele>28</ele>
        <time>2021-08-07T13:36:50Z</time>
      </trkpt>
      <trkpt lat="47.9499" lon="-2.5446">
        <ele>28</ele>
        <time>2021-08-07T13:36:51Z</time>
      </trkpt>
      <trkpt lat="47.94997" lon="-2.54467">
        <ele>28</ele>
        <time>2021-08-07T13:36:53Z</time>
      </trkpt>
      <trkpt lat="47.95" lon="-2.5447">
        <ele>28</ele>
        <time>2021-08-07T13:36:54Z</time>
      </trkpt>
      <trkpt lat="47.95003" lon="-2.54473">
        <ele>28</ele>
        <time>2021-08-07T13:36:55Z</time>
      </trkpt>
      <trkpt lat="47.95007" lon="-2.54477">
        <ele>28</ele>
        <time>2021-08-07T13:36:56Z</time>
      </trkpt>
      <trkpt lat="47.9501" lon="-2.5448">
        <ele>28.2</ele>
        <time>2021-08-07T13:36:57Z</time>
      </trkpt>
      <trkpt lat="47.95013" lon="-2.54484">
        <ele>28.2</ele>
        <time>2021-08-07T13:36:58Z</time>
      </trkpt>
      <trkpt lat="47.95016" lon="-2.54487">
        <ele>28.2</ele>
        <time>2021-08-07T13:36:59Z</time>
      </trkpt>
      <trkpt lat="47.95019" lon="-2.5449">
        <ele>28.2</ele>
        <time>2021-08-07T13:37:00Z</time>
      </trkpt>
      <trkpt lat="47.95022" lon="-2.54493">
        <ele>28.2</ele>
        <time>2021-08-07T13:37:01Z</time>
      </trkpt>
      <trkpt lat="47.95027" lon="-2.545">
        <ele>28.2</ele>
        <time>2021-08-07T13:37:03Z</time>
      </trkpt>
      <trkpt lat="47.95029" lon="-2.54503">
        <ele>28.2</ele>
        <time>2021-08-07T13:37:04Z</time>
      </trkpt>
      <trkpt lat="47.95032" lon="-2.54506">
        <ele>28.2</ele>
        <time>2021-08-07T13:37:05Z</time>
      </trkpt>
      <trkpt lat="47.95035" lon="-2.54509">
        <ele>28.4</ele>
        <time>2021-08-07T13:37:06Z</time>
      </trkpt>
      <trkpt lat="47.95038" lon="-2.54513">
        <ele>28.4</ele>
        <time>2021-08-07T13:37:07Z</time>
      </trkpt>
      <trkpt lat="47.95041" lon="-2.54516">
        <ele>28.4</ele>
        <time>2021-08-07T13:37:08Z</time>
      </trkpt>
      <trkpt lat="47.95044" lon="-2.5452">
        <ele>28.4</ele>
        <time>2021-08-07T13:37:09Z</time>
      </trkpt>
      <trkpt lat="47.95048" lon="-2.54523">
        <ele>28.6</ele>
        <time>2021-08-07T13:37:10Z</time>
      </trkpt>
      <trkpt lat="47.95051" lon="-2.54527">
        <ele>28.6</ele>
        <time>2021-08-07T13:37:11Z</time>
      </trkpt>
      <trkpt lat="47.95056" lon="-2.54535">
        <ele>28.6</ele>
        <time>2021-08-07T13:37:13Z</time>
      </trkpt>
      <trkpt lat="47.95059" lon="-2.54539">
        <ele>28.6</ele>
        <time>2021-08-07T13:37:14Z</time>
      </trkpt>
      <trkpt lat="47.95062" lon="-2.54542">
        <ele>28.6</ele>
        <time>2021-08-07T13:37:15Z</time>
      </trkpt>
      <trkpt lat="47.95065" lon="-2.54545">
        <ele>28.6</ele>
        <time>2021-08-07T13:37:16Z</time>
      </trkpt>
      <trkpt lat="47.95068" lon="-2.54548">
        <ele>28.6</ele>
        <time>2021-08-07T13:37:17Z</time>
      </trkpt>
      <trkpt lat="47.95071" lon="-2.54552">
        <ele>28.6</ele>
        <time>2021-08-07T13:37:18Z</time>
      </trkpt>
      <trkpt lat="47.95074" lon="-2.54555">
        <ele>28.6</ele>
        <time>2021-08-07T13:37:19Z</time>
      </trkpt>
      <trkpt lat="47.95077" lon="-2.54559">
        <ele>28.4</ele>
        <time>2021-08-07T13:37:20Z</time>
      </trkpt>
      <trkpt lat="47.95079" lon="-2.54562">
        <ele>28.4</ele>
        <time>2021-08-07T13:37:21Z</time>
      </trkpt>
      <trkpt lat="47.95084" lon="-2.5457">
        <ele>28.4</ele>
        <time>2021-08-07T13:37:23Z</time>
      </trkpt>
      <trkpt lat="47.95087" lon="-2.54573">
        <ele>28.4</ele>
        <time>2021-08-07T13:37:24Z</time>
      </trkpt>
      <trkpt lat="47.95089" lon="-2.54577">
        <ele>28.4</ele>
        <time>2021-08-07T13:37:25Z</time>
      </trkpt>
      <trkpt lat="47.95092" lon="-2.5458">
        <ele>28.4</ele>
        <time>2021-08-07T13:37:26Z</time>
      </trkpt>
      <trkpt lat="47.95094" lon="-2.54583">
        <ele>28.4</ele>
        <time>2021-08-07T13:37:27Z</time>
      </trkpt>
      <trkpt lat="47.95097" lon="-2.54584">
        <ele>28.4</ele>
        <time>2021-08-07T13:37:28Z</time>
      </trkpt>
      <trkpt lat="47.95098" lon="-2.54587">
        <ele>28.4</ele>
        <time>2021-08-07T13:37:29Z</time>
      </trkpt>
      <trkpt lat="47.951" lon="-2.54589">
        <ele>28.4</ele>
        <time>2021-08-07T13:37:30Z</time>
      </trkpt>
      <trkpt lat="47.95102" lon="-2.5459">
        <ele>28.2</ele>
        <time>2021-08-07T13:37:31Z</time>
      </trkpt>
      <trkpt lat="47.95104" lon="-2.54591">
        <ele>28.4</ele>
        <time>2021-08-07T13:37:33Z</time>
      </trkpt>
      <trkpt lat="47.95105" lon="-2.54593">
        <ele>28.4</ele>
        <time>2021-08-07T13:37:34Z</time>
      </trkpt>
      <trkpt lat="47.95106" lon="-2.54595">
        <ele>28.4</ele>
        <time>2021-08-07T13:37:35Z</time>
      </trkpt>
      <trkpt lat="47.95107" lon="-2.54598">
        <ele>28.6</ele>
        <time>2021-08-07T13:37:36Z</time>
      </trkpt>
      <trkpt lat="47.95108" lon="-2.54601">
        <ele>28.6</ele>
        <time>2021-08-07T13:37:37Z</time>
      </trkpt>
      <trkpt lat="47.9511" lon="-2.54604">
        <ele>28.6</ele>
        <time>2021-08-07T13:37:38Z</time>
      </trkpt>
      <trkpt lat="47.95112" lon="-2.54606">
        <ele>29</ele>
        <time>2021-08-07T13:37:39Z</time>
      </trkpt>
      <trkpt lat="47.95114" lon="-2.54608">
        <ele>29.2</ele>
        <time>2021-08-07T13:37:40Z</time>
      </trkpt>
      <trkpt lat="47.95115" lon="-2.54611">
        <ele>29</ele>
        <time>2021-08-07T13:37:41Z</time>
      </trkpt>
      <trkpt lat="47.95116" lon="-2.54613">
        <ele>29</ele>
        <time>2021-08-07T13:37:42Z</time>
      </trkpt>
      <trkpt lat="47.95117" lon="-2.54614">
        <ele>29</ele>
        <time>2021-08-07T13:37:43Z</time>
      </trkpt>
      <trkpt lat="47.95119" lon="-2.54616">
        <ele>29.2</ele>
        <time>2021-08-07T13:37:44Z</time>
      </trkpt>
      <trkpt lat="47.9512" lon="-2.54617">
        <ele>29.2</ele>
        <time>2021-08-07T13:37:45Z</time>
      </trkpt>
      <trkpt lat="47.95121" lon="-2.54619">
        <ele>29.2</ele>
        <time>2021-08-07T13:37:46Z</time>
      </trkpt>
      <trkpt lat="47.95122" lon="-2.54621">
        <ele>29.2</ele>
        <time>2021-08-07T13:37:47Z</time>
      </trkpt>
      <trkpt lat="47.95123" lon="-2.54623">
        <ele>29.4</ele>
        <time>2021-08-07T13:37:48Z</time>
      </trkpt>
      <trkpt lat="47.95124" lon="-2.54626">
        <ele>29.4</ele>
        <time>2021-08-07T13:37:49Z</time>
      </trkpt>
      <trkpt lat="47.95125" lon="-2.54628">
        <ele>29.4</ele>
        <time>2021-08-07T13:37:50Z</time>
      </trkpt>
      <trkpt lat="47.95126" lon="-2.54631">
        <ele>29.6</ele>
        <time>2021-08-07T13:37:51Z</time>
      </trkpt>
      <trkpt lat="47.95127" lon="-2.54634">
        <ele>29.6</ele>
        <time>2021-08-07T13:37:52Z</time>
      </trkpt>
      <trkpt lat="47.95128" lon="-2.54636">
        <ele>29.6</ele>
        <time>2021-08-07T13:37:53Z</time>
      </trkpt>
      <trkpt lat="47.9513" lon="-2.54639">
        <ele>29.6</ele>
        <time>2021-08-07T13:37:54Z</time>
      </trkpt>
      <trkpt lat="47.95131" lon="-2.54641">
        <ele>29.6</ele>
        <time>2021-08-07T13:37:55Z</time>
      </trkpt>
      <trkpt lat="47.95133" lon="-2.54644">
        <ele>29.6</ele>
        <time>2021-08-07T13:37:56Z</time>
      </trkpt>
      <trkpt lat="47.95134" lon="-2.54647">
        <ele>29.6</ele>
        <time>2021-08-07T13:37:57Z</time>
      </trkpt>
      <trkpt lat="47.95136" lon="-2.5465">
        <ele>29.6</ele>
        <time>2021-08-07T13:37:58Z</time>
      </trkpt>
      <trkpt lat="47.95138" lon="-2.54653">
        <ele>29.2</ele>
        <time>2021-08-07T13:37:59Z</time>
      </trkpt>
      <trkpt lat="47.9514" lon="-2.54655">
        <ele>29.2</ele>
        <time>2021-08-07T13:38:00Z</time>
      </trkpt>
      <trkpt lat="47.95142" lon="-2.54658">
        <ele>29.2</ele>
        <time>2021-08-07T13:38:01Z</time>
      </trkpt>
      <trkpt lat="47.95145" lon="-2.54663">
        <ele>29</ele>
        <time>2021-08-07T13:38:03Z</time>
      </trkpt>
      <trkpt lat="47.95147" lon="-2.54665">
        <ele>29</ele>
        <time>2021-08-07T13:38:04Z</time>
      </trkpt>
      <trkpt lat="47.95149" lon="-2.54668">
        <ele>29</ele>
        <time>2021-08-07T13:38:05Z</time>
      </trkpt>
      <trkpt lat="47.95151" lon="-2.5467">
        <ele>29</ele>
        <time>2021-08-07T13:38:06Z</time>
      </trkpt>
      <trkpt lat="47.95153" lon="-2.54673">
        <ele>29</ele>
        <time>2021-08-07T13:38:07Z</time>
      </trkpt>
      <trkpt lat="47.95155" lon="-2.54675">
        <ele>29</ele>
        <time>2021-08-07T13:38:08Z</time>
      </trkpt>
      <trkpt lat="47.95157" lon="-2.54678">
        <ele>29</ele>
        <time>2021-08-07T13:38:09Z</time>
      </trkpt>
      <trkpt lat="47.95159" lon="-2.54681">
        <ele>29</ele>
        <time>2021-08-07T13:38:10Z</time>
      </trkpt>
      <trkpt lat="47.95163" lon="-2.54686">
        <ele>29.2</ele>
        <time>2021-08-07T13:38:12Z</time>
      </trkpt>
      <trkpt lat="47.95165" lon="-2.54689">
        <ele>29.2</ele>
        <time>2021-08-07T13:38:13Z</time>
      </trkpt>
      <trkpt lat="47.95167" lon="-2.54692">
        <ele>29.2</ele>
        <time>2021-08-07T13:38:14Z</time>
      </trkpt>
      <trkpt lat="47.95169" lon="-2.54695">
        <ele>29.2</ele>
        <time>2021-08-07T13:38:15Z</time>
      </trkpt>
      <trkpt lat="47.95172" lon="-2.54698">
        <ele>29.2</ele>
        <time>2021-08-07T13:38:16Z</time>
      </trkpt>
      <trkpt lat="47.95174" lon="-2.54701">
        <ele>29.4</ele>
        <time>2021-08-07T13:38:17Z</time>
      </trkpt>
      <trkpt lat="47.95176" lon="-2.54704">
        <ele>29.4</ele>
        <time>2021-08-07T13:38:18Z</time>
      </trkpt>
      <trkpt lat="47.95178" lon="-2.54707">
        <ele>29.4</ele>
        <time>2021-08-07T13:38:19Z</time>
      </trkpt>
      <trkpt lat="47.9518" lon="-2.5471">
        <ele>29.4</ele>
        <time>2021-08-07T13:38:20Z</time>
      </trkpt>
      <trkpt lat="47.95184" lon="-2.54716">
        <ele>29.4</ele>
        <time>2021-08-07T13:38:22Z</time>
      </trkpt>
      <trkpt lat="47.95187" lon="-2.54719">
        <ele>29.4</ele>
        <time>2021-08-07T13:38:23Z</time>
      </trkpt>
      <trkpt lat="47.95189" lon="-2.54722">
        <ele>29.4</ele>
        <time>2021-08-07T13:38:24Z</time>
      </trkpt>
      <trkpt lat="47.95191" lon="-2.54725">
        <ele>29.4</ele>
        <time>2021-08-07T13:38:25Z</time>
      </trkpt>
      <trkpt lat="47.95193" lon="-2.54728">
        <ele>29.4</ele>
        <time>2021-08-07T13:38:26Z</time>
      </trkpt>
      <trkpt lat="47.95195" lon="-2.54731">
        <ele>29.4</ele>
        <time>2021-08-07T13:38:27Z</time>
      </trkpt>
      <trkpt lat="47.95197" lon="-2.54734">
        <ele>29.4</ele>
        <time>2021-08-07T13:38:28Z</time>
      </trkpt>
      <trkpt lat="47.952" lon="-2.54738">
        <ele>29.4</ele>
        <time>2021-08-07T13:38:29Z</time>
      </trkpt>
      <trkpt lat="47.95202" lon="-2.54741">
        <ele>29.6</ele>
        <time>2021-08-07T13:38:30Z</time>
      </trkpt>
      <trkpt lat="47.95205" lon="-2.54744">
        <ele>29.6</ele>
        <time>2021-08-07T13:38:31Z</time>
      </trkpt>
      <trkpt lat="47.95207" lon="-2.54747">
        <ele>29.4</ele>
        <time>2021-08-07T13:38:32Z</time>
      </trkpt>
      <trkpt lat="47.9521" lon="-2.5475">
        <ele>29.4</ele>
        <time>2021-08-07T13:38:33Z</time>
      </trkpt>
      <trkpt lat="47.95212" lon="-2.54754">
        <ele>29.4</ele>
        <time>2021-08-07T13:38:34Z</time>
      </trkpt>
      <trkpt lat="47.95214" lon="-2.54757">
        <ele>29.4</ele>
        <time>2021-08-07T13:38:35Z</time>
      </trkpt>
      <trkpt lat="47.95216" lon="-2.54761">
        <ele>29.4</ele>
        <time>2021-08-07T13:38:36Z</time>
      </trkpt>
      <trkpt lat="47.95219" lon="-2.54764">
        <ele>29.4</ele>
        <time>2021-08-07T13:38:37Z</time>
      </trkpt>
      <trkpt lat="47.95221" lon="-2.54768">
        <ele>29.4</ele>
        <time>2021-08-07T13:38:38Z</time>
      </trkpt>
      <trkpt lat="47.95223" lon="-2.54772">
        <ele>29.6</ele>
        <time>2021-08-07T13:38:39Z</time>
      </trkpt>
      <trkpt lat="47.95228" lon="-2.54779">
        <ele>29.8</ele>
        <time>2021-08-07T13:38:41Z</time>
      </trkpt>
      <trkpt lat="47.95231" lon="-2.54783">
        <ele>30.2</ele>
        <time>2021-08-07T13:38:42Z</time>
      </trkpt>
      <trkpt lat="47.95233" lon="-2.54787">
        <ele>30.4</ele>
        <time>2021-08-07T13:38:43Z</time>
      </trkpt>
      <trkpt lat="47.95235" lon="-2.5479">
        <ele>30.6</ele>
        <time>2021-08-07T13:38:44Z</time>
      </trkpt>
      <trkpt lat="47.95238" lon="-2.54794">
        <ele>30.6</ele>
        <time>2021-08-07T13:38:45Z</time>
      </trkpt>
      <trkpt lat="47.9524" lon="-2.54797">
        <ele>30.6</ele>
        <time>2021-08-07T13:38:46Z</time>
      </trkpt>
      <trkpt lat="47.95241" lon="-2.548">
        <ele>30.8</ele>
        <time>2021-08-07T13:38:47Z</time>
      </trkpt>
      <trkpt lat="47.95243" lon="-2.54802">
        <ele>30.8</ele>
        <time>2021-08-07T13:38:48Z</time>
      </trkpt>
      <trkpt lat="47.95244" lon="-2.54803">
        <ele>30.8</ele>
        <time>2021-08-07T13:38:49Z</time>
      </trkpt>
      <trkpt lat="47.95244" lon="-2.54804">
        <ele>30.8</ele>
        <time>2021-08-07T13:38:50Z</time>
      </trkpt>
      <trkpt lat="47.95245" lon="-2.54805">
        <ele>31</ele>
        <time>2021-08-07T13:38:51Z</time>
      </trkpt>
      <trkpt lat="47.95246" lon="-2.54807">
        <ele>31</ele>
        <time>2021-08-07T13:38:52Z</time>
      </trkpt>
      <trkpt lat="47.95246" lon="-2.54808">
        <ele>31</ele>
        <time>2021-08-07T13:38:53Z</time>
      </trkpt>
      <trkpt lat="47.95247" lon="-2.54809">
        <ele>31</ele>
        <time>2021-08-07T13:38:54Z</time>
      </trkpt>
      <trkpt lat="47.95248" lon="-2.5481">
        <ele>31</ele>
        <time>2021-08-07T13:38:55Z</time>
      </trkpt>
      <trkpt lat="47.95248" lon="-2.54812">
        <ele>31.2</ele>
        <time>2021-08-07T13:38:56Z</time>
      </trkpt>
      <trkpt lat="47.95249" lon="-2.54813">
        <ele>31.2</ele>
        <time>2021-08-07T13:38:57Z</time>
      </trkpt>
      <trkpt lat="47.95251" lon="-2.54822">
        <ele>31.4</ele>
        <time>2021-08-07T13:39:01Z</time>
      </trkpt>
      <trkpt lat="47.95252" lon="-2.54825">
        <ele>31.6</ele>
        <time>2021-08-07T13:39:02Z</time>
      </trkpt>
      <trkpt lat="47.95254" lon="-2.54831">
        <ele>31.6</ele>
        <time>2021-08-07T13:39:04Z</time>
      </trkpt>
      <trkpt lat="47.95255" lon="-2.54837">
        <ele>31.6</ele>
        <time>2021-08-07T13:39:06Z</time>
      </trkpt>
      <trkpt lat="47.95256" lon="-2.54841">
        <ele>31.6</ele>
        <time>2021-08-07T13:39:07Z</time>
      </trkpt>
      <trkpt lat="47.95257" lon="-2.54844">
        <ele>31.8</ele>
        <time>2021-08-07T13:39:08Z</time>
      </trkpt>
      <trkpt lat="47.95258" lon="-2.54847">
        <ele>31.8</ele>
        <time>2021-08-07T13:39:09Z</time>
      </trkpt>
      <trkpt lat="47.95259" lon="-2.54853">
        <ele>31.8</ele>
        <time>2021-08-07T13:39:11Z</time>
      </trkpt>
      <trkpt lat="47.95259" lon="-2.54856">
        <ele>31.8</ele>
        <time>2021-08-07T13:39:12Z</time>
      </trkpt>
      <trkpt lat="47.9526" lon="-2.54857">
        <ele>31.8</ele>
        <time>2021-08-07T13:39:13Z</time>
      </trkpt>
      <trkpt lat="47.9526" lon="-2.54858">
        <ele>31.8</ele>
        <time>2021-08-07T13:39:14Z</time>
      </trkpt>
      <trkpt lat="47.9526" lon="-2.54859">
        <ele>32.2</ele>
        <time>2021-08-07T13:39:23Z</time>
      </trkpt>
      <trkpt lat="47.95259" lon="-2.5486">
        <ele>32.2</ele>
        <time>2021-08-07T13:39:24Z</time>
      </trkpt>
      <trkpt lat="47.95259" lon="-2.5486">
        <ele>32.2</ele>
        <time>2021-08-07T13:39:25Z</time>
      </trkpt>
      <trkpt lat="47.95265" lon="-2.54871">
        <ele>32.6</ele>
        <time>2021-08-07T13:40:46Z</time>
      </trkpt>
      <trkpt lat="47.95266" lon="-2.54873">
        <ele>32.6</ele>
        <time>2021-08-07T13:40:47Z</time>
      </trkpt>
      <trkpt lat="47.95267" lon="-2.54876">
        <ele>32.6</ele>
        <time>2021-08-07T13:40:48Z</time>
      </trkpt>
      <trkpt lat="47.95268" lon="-2.54883">
        <ele>32.6</ele>
        <time>2021-08-07T13:40:50Z</time>
      </trkpt>
      <trkpt lat="47.95269" lon="-2.54888">
        <ele>32.6</ele>
        <time>2021-08-07T13:40:51Z</time>
      </trkpt>
      <trkpt lat="47.9527" lon="-2.54893">
        <ele>32.6</ele>
        <time>2021-08-07T13:40:52Z</time>
      </trkpt>
      <trkpt lat="47.95271" lon="-2.54899">
        <ele>32.4</ele>
        <time>2021-08-07T13:40:53Z</time>
      </trkpt>
      <trkpt lat="47.95271" lon="-2.54905">
        <ele>32.4</ele>
        <time>2021-08-07T13:40:54Z</time>
      </trkpt>
      <trkpt lat="47.9527" lon="-2.54912">
        <ele>32.4</ele>
        <time>2021-08-07T13:40:55Z</time>
      </trkpt>
      <trkpt lat="47.95271" lon="-2.54925">
        <ele>32.2</ele>
        <time>2021-08-07T13:40:57Z</time>
      </trkpt>
      <trkpt lat="47.95271" lon="-2.54932">
        <ele>32</ele>
        <time>2021-08-07T13:40:58Z</time>
      </trkpt>
      <trkpt lat="47.95272" lon="-2.54938">
        <ele>31.8</ele>
        <time>2021-08-07T13:40:59Z</time>
      </trkpt>
      <trkpt lat="47.95272" lon="-2.54945">
        <ele>31.6</ele>
        <time>2021-08-07T13:41:00Z</time>
      </trkpt>
      <trkpt lat="47.95273" lon="-2.54951">
        <ele>31.4</ele>
        <time>2021-08-07T13:41:01Z</time>
      </trkpt>
      <trkpt lat="47.95273" lon="-2.54958">
        <ele>31</ele>
        <time>2021-08-07T13:41:02Z</time>
      </trkpt>
      <trkpt lat="47.95273" lon="-2.54965">
        <ele>30.4</ele>
        <time>2021-08-07T13:41:03Z</time>
      </trkpt>
      <trkpt lat="47.95274" lon="-2.54972">
        <ele>30.2</ele>
        <time>2021-08-07T13:41:04Z</time>
      </trkpt>
      <trkpt lat="47.95274" lon="-2.54978">
        <ele>29.8</ele>
        <time>2021-08-07T13:41:05Z</time>
      </trkpt>
      <trkpt lat="47.95275" lon="-2.54992">
        <ele>29.4</ele>
        <time>2021-08-07T13:41:07Z</time>
      </trkpt>
      <trkpt lat="47.95276" lon="-2.54998">
        <ele>29</ele>
        <time>2021-08-07T13:41:08Z</time>
      </trkpt>
      <trkpt lat="47.95276" lon="-2.55005">
        <ele>29.2</ele>
        <time>2021-08-07T13:41:09Z</time>
      </trkpt>
      <trkpt lat="47.95277" lon="-2.55011">
        <ele>29</ele>
        <time>2021-08-07T13:41:10Z</time>
      </trkpt>
      <trkpt lat="47.95277" lon="-2.55018">
        <ele>28.8</ele>
        <time>2021-08-07T13:41:11Z</time>
      </trkpt>
      <trkpt lat="47.95277" lon="-2.55024">
        <ele>28.8</ele>
        <time>2021-08-07T13:41:12Z</time>
      </trkpt>
      <trkpt lat="47.95277" lon="-2.5503">
        <ele>28.8</ele>
        <time>2021-08-07T13:41:13Z</time>
      </trkpt>
      <trkpt lat="47.95278" lon="-2.55036">
        <ele>28.8</ele>
        <time>2021-08-07T13:41:14Z</time>
      </trkpt>
      <trkpt lat="47.95278" lon="-2.55042">
        <ele>28.8</ele>
        <time>2021-08-07T13:41:15Z</time>
      </trkpt>
      <trkpt lat="47.95279" lon="-2.55054">
        <ele>28.8</ele>
        <time>2021-08-07T13:41:17Z</time>
      </trkpt>
      <trkpt lat="47.9528" lon="-2.55061">
        <ele>28.8</ele>
        <time>2021-08-07T13:41:18Z</time>
      </trkpt>
      <trkpt lat="47.9528" lon="-2.55067">
        <ele>28.8</ele>
        <time>2021-08-07T13:41:19Z</time>
      </trkpt>
      <trkpt lat="47.9528" lon="-2.55074">
        <ele>28.8</ele>
        <time>2021-08-07T13:41:20Z</time>
      </trkpt>
      <trkpt lat="47.9528" lon="-2.55081">
        <ele>28.6</ele>
        <time>2021-08-07T13:41:21Z</time>
      </trkpt>
      <trkpt lat="47.95281" lon="-2.55088">
        <ele>28.6</ele>
        <time>2021-08-07T13:41:22Z</time>
      </trkpt>
      <trkpt lat="47.95282" lon="-2.55095">
        <ele>28.6</ele>
        <time>2021-08-07T13:41:23Z</time>
      </trkpt>
      <trkpt lat="47.95282" lon="-2.55101">
        <ele>28.6</ele>
        <time>2021-08-07T13:41:24Z</time>
      </trkpt>
      <trkpt lat="47.95283" lon="-2.55108">
        <ele>28.8</ele>
        <time>2021-08-07T13:41:25Z</time>
      </trkpt>
      <trkpt lat="47.95283" lon="-2.55122">
        <ele>28.8</ele>
        <time>2021-08-07T13:41:27Z</time>
      </trkpt>
      <trkpt lat="47.95283" lon="-2.55129">
        <ele>28.8</ele>
        <time>2021-08-07T13:41:28Z</time>
      </trkpt>
      <trkpt lat="47.95283" lon="-2.55136">
        <ele>28.8</ele>
        <time>2021-08-07T13:41:29Z</time>
      </trkpt>
      <trkpt lat="47.95284" lon="-2.55142">
        <ele>28.8</ele>
        <time>2021-08-07T13:41:30Z</time>
      </trkpt>
      <trkpt lat="47.95284" lon="-2.55149">
        <ele>28.8</ele>
        <time>2021-08-07T13:41:31Z</time>
      </trkpt>
      <trkpt lat="47.95284" lon="-2.55155">
        <ele>28.8</ele>
        <time>2021-08-07T13:41:32Z</time>
      </trkpt>
      <trkpt lat="47.95284" lon="-2.55162">
        <ele>28.8</ele>
        <time>2021-08-07T13:41:33Z</time>
      </trkpt>
      <trkpt lat="47.95284" lon="-2.55168">
        <ele>29</ele>
        <time>2021-08-07T13:41:34Z</time>
      </trkpt>
      <trkpt lat="47.95284" lon="-2.55175">
        <ele>29</ele>
        <time>2021-08-07T13:41:35Z</time>
      </trkpt>
      <trkpt lat="47.95285" lon="-2.55182">
        <ele>29</ele>
        <time>2021-08-07T13:41:36Z</time>
      </trkpt>
      <trkpt lat="47.95284" lon="-2.5519">
        <ele>29</ele>
        <time>2021-08-07T13:41:37Z</time>
      </trkpt>
      <trkpt lat="47.95283" lon="-2.55197">
        <ele>29</ele>
        <time>2021-08-07T13:41:38Z</time>
      </trkpt>
      <trkpt lat="47.95283" lon="-2.55204">
        <ele>29</ele>
        <time>2021-08-07T13:41:39Z</time>
      </trkpt>
      <trkpt lat="47.95283" lon="-2.55212">
        <ele>29</ele>
        <time>2021-08-07T13:41:40Z</time>
      </trkpt>
      <trkpt lat="47.95282" lon="-2.55219">
        <ele>29</ele>
        <time>2021-08-07T13:41:41Z</time>
      </trkpt>
      <trkpt lat="47.95282" lon="-2.55227">
        <ele>29</ele>
        <time>2021-08-07T13:41:42Z</time>
      </trkpt>
      <trkpt lat="47.95281" lon="-2.55234">
        <ele>29</ele>
        <time>2021-08-07T13:41:43Z</time>
      </trkpt>
      <trkpt lat="47.95281" lon="-2.55242">
        <ele>28.8</ele>
        <time>2021-08-07T13:41:44Z</time>
      </trkpt>
      <trkpt lat="47.9528" lon="-2.55249">
        <ele>28.8</ele>
        <time>2021-08-07T13:41:45Z</time>
      </trkpt>
      <trkpt lat="47.95279" lon="-2.55264">
        <ele>28.6</ele>
        <time>2021-08-07T13:41:47Z</time>
      </trkpt>
      <trkpt lat="47.95279" lon="-2.5527">
        <ele>28.6</ele>
        <time>2021-08-07T13:41:48Z</time>
      </trkpt>
      <trkpt lat="47.95278" lon="-2.55277">
        <ele>28.6</ele>
        <time>2021-08-07T13:41:49Z</time>
      </trkpt>
      <trkpt lat="47.95277" lon="-2.55283">
        <ele>28.6</ele>
        <time>2021-08-07T13:41:50Z</time>
      </trkpt>
      <trkpt lat="47.95277" lon="-2.55289">
        <ele>28.6</ele>
        <time>2021-08-07T13:41:51Z</time>
      </trkpt>
      <trkpt lat="47.95276" lon="-2.55295">
        <ele>28.6</ele>
        <time>2021-08-07T13:41:52Z</time>
      </trkpt>
      <trkpt lat="47.95276" lon="-2.55301">
        <ele>28.6</ele>
        <time>2021-08-07T13:41:53Z</time>
      </trkpt>
      <trkpt lat="47.95276" lon="-2.55307">
        <ele>28.6</ele>
        <time>2021-08-07T13:41:54Z</time>
      </trkpt>
      <trkpt lat="47.95275" lon="-2.55312">
        <ele>28.8</ele>
        <time>2021-08-07T13:41:55Z</time>
      </trkpt>
      <trkpt lat="47.95274" lon="-2.55321">
        <ele>28.8</ele>
        <time>2021-08-07T13:41:57Z</time>
      </trkpt>
      <trkpt lat="47.95274" lon="-2.55325">
        <ele>28.8</ele>
        <time>2021-08-07T13:41:58Z</time>
      </trkpt>
      <trkpt lat="47.95273" lon="-2.55329">
        <ele>28.8</ele>
        <time>2021-08-07T13:41:59Z</time>
      </trkpt>
      <trkpt lat="47.95272" lon="-2.55332">
        <ele>29</ele>
        <time>2021-08-07T13:42:00Z</time>
      </trkpt>
      <trkpt lat="47.95271" lon="-2.55334">
        <ele>29</ele>
        <time>2021-08-07T13:42:01Z</time>
      </trkpt>
      <trkpt lat="47.9527" lon="-2.55337">
        <ele>29</ele>
        <time>2021-08-07T13:42:02Z</time>
      </trkpt>
      <trkpt lat="47.95269" lon="-2.55341">
        <ele>29.2</ele>
        <time>2021-08-07T13:42:03Z</time>
      </trkpt>
      <trkpt lat="47.95268" lon="-2.55345">
        <ele>29.2</ele>
        <time>2021-08-07T13:42:04Z</time>
      </trkpt>
      <trkpt lat="47.95267" lon="-2.55349">
        <ele>29.2</ele>
        <time>2021-08-07T13:42:05Z</time>
      </trkpt>
      <trkpt lat="47.95265" lon="-2.55359">
        <ele>29.4</ele>
        <time>2021-08-07T13:42:07Z</time>
      </trkpt>
      <trkpt lat="47.95264" lon="-2.55364">
        <ele>29.4</ele>
        <time>2021-08-07T13:42:08Z</time>
      </trkpt>
      <trkpt lat="47.95263" lon="-2.5537">
        <ele>29.4</ele>
        <time>2021-08-07T13:42:09Z</time>
      </trkpt>
      <trkpt lat="47.95262" lon="-2.55376">
        <ele>29.4</ele>
        <time>2021-08-07T13:42:10Z</time>
      </trkpt>
      <trkpt lat="47.95262" lon="-2.55382">
        <ele>29.4</ele>
        <time>2021-08-07T13:42:11Z</time>
      </trkpt>
      <trkpt lat="47.95261" lon="-2.55387">
        <ele>29.4</ele>
        <time>2021-08-07T13:42:12Z</time>
      </trkpt>
      <trkpt lat="47.9526" lon="-2.55393">
        <ele>29.4</ele>
        <time>2021-08-07T13:42:13Z</time>
      </trkpt>
      <trkpt lat="47.95259" lon="-2.55398">
        <ele>29.4</ele>
        <time>2021-08-07T13:42:14Z</time>
      </trkpt>
      <trkpt lat="47.95258" lon="-2.55402">
        <ele>29.4</ele>
        <time>2021-08-07T13:42:15Z</time>
      </trkpt>
      <trkpt lat="47.95258" lon="-2.55405">
        <ele>29.4</ele>
        <time>2021-08-07T13:42:16Z</time>
      </trkpt>
      <trkpt lat="47.95257" lon="-2.55408">
        <ele>29.4</ele>
        <time>2021-08-07T13:42:17Z</time>
      </trkpt>
      <trkpt lat="47.95256" lon="-2.55411">
        <ele>29.4</ele>
        <time>2021-08-07T13:42:18Z</time>
      </trkpt>
      <trkpt lat="47.95255" lon="-2.55414">
        <ele>29.2</ele>
        <time>2021-08-07T13:42:19Z</time>
      </trkpt>
      <trkpt lat="47.95255" lon="-2.55418">
        <ele>29.2</ele>
        <time>2021-08-07T13:42:20Z</time>
      </trkpt>
      <trkpt lat="47.95254" lon="-2.55422">
        <ele>29.2</ele>
        <time>2021-08-07T13:42:21Z</time>
      </trkpt>
      <trkpt lat="47.95254" lon="-2.55426">
        <ele>29.2</ele>
        <time>2021-08-07T13:42:22Z</time>
      </trkpt>
      <trkpt lat="47.95253" lon="-2.55431">
        <ele>29.2</ele>
        <time>2021-08-07T13:42:23Z</time>
      </trkpt>
      <trkpt lat="47.95252" lon="-2.55436">
        <ele>29.2</ele>
        <time>2021-08-07T13:42:24Z</time>
      </trkpt>
      <trkpt lat="47.95251" lon="-2.55447">
        <ele>29.2</ele>
        <time>2021-08-07T13:42:26Z</time>
      </trkpt>
      <trkpt lat="47.9525" lon="-2.55453">
        <ele>29.2</ele>
        <time>2021-08-07T13:42:27Z</time>
      </trkpt>
      <trkpt lat="47.95249" lon="-2.55458">
        <ele>29.2</ele>
        <time>2021-08-07T13:42:28Z</time>
      </trkpt>
      <trkpt lat="47.95248" lon="-2.55462">
        <ele>29.2</ele>
        <time>2021-08-07T13:42:29Z</time>
      </trkpt>
      <trkpt lat="47.95247" lon="-2.55467">
        <ele>29.2</ele>
        <time>2021-08-07T13:42:30Z</time>
      </trkpt>
      <trkpt lat="47.95246" lon="-2.55473">
        <ele>29.2</ele>
        <time>2021-08-07T13:42:31Z</time>
      </trkpt>
      <trkpt lat="47.95245" lon="-2.55478">
        <ele>29.4</ele>
        <time>2021-08-07T13:42:32Z</time>
      </trkpt>
      <trkpt lat="47.95244" lon="-2.55483">
        <ele>29.2</ele>
        <time>2021-08-07T13:42:33Z</time>
      </trkpt>
      <trkpt lat="47.95242" lon="-2.55493">
        <ele>29.2</ele>
        <time>2021-08-07T13:42:35Z</time>
      </trkpt>
      <trkpt lat="47.95241" lon="-2.55498">
        <ele>29.2</ele>
        <time>2021-08-07T13:42:36Z</time>
      </trkpt>
      <trkpt lat="47.9524" lon="-2.55504">
        <ele>29.2</ele>
        <time>2021-08-07T13:42:37Z</time>
      </trkpt>
      <trkpt lat="47.95238" lon="-2.55509">
        <ele>29.2</ele>
        <time>2021-08-07T13:42:38Z</time>
      </trkpt>
      <trkpt lat="47.95237" lon="-2.55514">
        <ele>29.2</ele>
        <time>2021-08-07T13:42:39Z</time>
      </trkpt>
      <trkpt lat="47.95236" lon="-2.55518">
        <ele>29.2</ele>
        <time>2021-08-07T13:42:40Z</time>
      </trkpt>
      <trkpt lat="47.95235" lon="-2.55523">
        <ele>29.4</ele>
        <time>2021-08-07T13:42:41Z</time>
      </trkpt>
      <trkpt lat="47.95234" lon="-2.55529">
        <ele>29.4</ele>
        <time>2021-08-07T13:42:42Z</time>
      </trkpt>
      <trkpt lat="47.95231" lon="-2.5554">
        <ele>29.6</ele>
        <time>2021-08-07T13:42:44Z</time>
      </trkpt>
      <trkpt lat="47.9523" lon="-2.55545">
        <ele>29.6</ele>
        <time>2021-08-07T13:42:45Z</time>
      </trkpt>
      <trkpt lat="47.95228" lon="-2.55551">
        <ele>29.4</ele>
        <time>2021-08-07T13:42:46Z</time>
      </trkpt>
      <trkpt lat="47.95226" lon="-2.55556">
        <ele>29.4</ele>
        <time>2021-08-07T13:42:47Z</time>
      </trkpt>
      <trkpt lat="47.95223" lon="-2.55561">
        <ele>29.2</ele>
        <time>2021-08-07T13:42:48Z</time>
      </trkpt>
      <trkpt lat="47.95222" lon="-2.55566">
        <ele>29.2</ele>
        <time>2021-08-07T13:42:49Z</time>
      </trkpt>
      <trkpt lat="47.95219" lon="-2.55571">
        <ele>29.2</ele>
        <time>2021-08-07T13:42:50Z</time>
      </trkpt>
      <trkpt lat="47.95217" lon="-2.55576">
        <ele>29.2</ele>
        <time>2021-08-07T13:42:51Z</time>
      </trkpt>
      <trkpt lat="47.95215" lon="-2.55582">
        <ele>29.2</ele>
        <time>2021-08-07T13:42:52Z</time>
      </trkpt>
      <trkpt lat="47.95212" lon="-2.55588">
        <ele>29.2</ele>
        <time>2021-08-07T13:42:53Z</time>
      </trkpt>
      <trkpt lat="47.95209" lon="-2.55594">
        <ele>29.2</ele>
        <time>2021-08-07T13:42:54Z</time>
      </trkpt>
      <trkpt lat="47.95206" lon="-2.55599">
        <ele>29.2</ele>
        <time>2021-08-07T13:42:55Z</time>
      </trkpt>
      <trkpt lat="47.95203" lon="-2.55604">
        <ele>29</ele>
        <time>2021-08-07T13:42:56Z</time>
      </trkpt>
      <trkpt lat="47.952" lon="-2.5561">
        <ele>29</ele>
        <time>2021-08-07T13:42:57Z</time>
      </trkpt>
      <trkpt lat="47.95191" lon="-2.55626">
        <ele>28.8</ele>
        <time>2021-08-07T13:43:00Z</time>
      </trkpt>
      <trkpt lat="47.95189" lon="-2.55631">
        <ele>28.8</ele>
        <time>2021-08-07T13:43:01Z</time>
      </trkpt>
      <trkpt lat="47.95185" lon="-2.5564">
        <ele>28.8</ele>
        <time>2021-08-07T13:43:03Z</time>
      </trkpt>
      <trkpt lat="47.95181" lon="-2.5565">
        <ele>28.8</ele>
        <time>2021-08-07T13:43:05Z</time>
      </trkpt>
      <trkpt lat="47.9518" lon="-2.55656">
        <ele>28.8</ele>
        <time>2021-08-07T13:43:06Z</time>
      </trkpt>
      <trkpt lat="47.95179" lon="-2.55662">
        <ele>28.8</ele>
        <time>2021-08-07T13:43:07Z</time>
      </trkpt>
      <trkpt lat="47.95179" lon="-2.55673">
        <ele>28.8</ele>
        <time>2021-08-07T13:43:09Z</time>
      </trkpt>
      <trkpt lat="47.95179" lon="-2.55684">
        <ele>29</ele>
        <time>2021-08-07T13:43:11Z</time>
      </trkpt>
      <trkpt lat="47.95179" lon="-2.55689">
        <ele>29</ele>
        <time>2021-08-07T13:43:12Z</time>
      </trkpt>
      <trkpt lat="47.9518" lon="-2.557">
        <ele>29</ele>
        <time>2021-08-07T13:43:14Z</time>
      </trkpt>
      <trkpt lat="47.95182" lon="-2.55709">
        <ele>29</ele>
        <time>2021-08-07T13:43:16Z</time>
      </trkpt>
      <trkpt lat="47.95185" lon="-2.55717">
        <ele>29</ele>
        <time>2021-08-07T13:43:18Z</time>
      </trkpt>
      <trkpt lat="47.95187" lon="-2.55728">
        <ele>29.2</ele>
        <time>2021-08-07T13:43:20Z</time>
      </trkpt>
      <trkpt lat="47.95188" lon="-2.55734">
        <ele>29</ele>
        <time>2021-08-07T13:43:21Z</time>
      </trkpt>
      <trkpt lat="47.95188" lon="-2.5574">
        <ele>29</ele>
        <time>2021-08-07T13:43:22Z</time>
      </trkpt>
      <trkpt lat="47.95189" lon="-2.55746">
        <ele>29</ele>
        <time>2021-08-07T13:43:23Z</time>
      </trkpt>
      <trkpt lat="47.9519" lon="-2.55757">
        <ele>29</ele>
        <time>2021-08-07T13:43:25Z</time>
      </trkpt>
      <trkpt lat="47.9519" lon="-2.55766">
        <ele>29</ele>
        <time>2021-08-07T13:43:27Z</time>
      </trkpt>
      <trkpt lat="47.95191" lon="-2.55776">
        <ele>29</ele>
        <time>2021-08-07T13:43:29Z</time>
      </trkpt>
      <trkpt lat="47.95192" lon="-2.55781">
        <ele>29</ele>
        <time>2021-08-07T13:43:30Z</time>
      </trkpt>
      <trkpt lat="47.95194" lon="-2.55792">
        <ele>29.2</ele>
        <time>2021-08-07T13:43:32Z</time>
      </trkpt>
      <trkpt lat="47.95194" lon="-2.55804">
        <ele>29.4</ele>
        <time>2021-08-07T13:43:34Z</time>
      </trkpt>
      <trkpt lat="47.95195" lon="-2.55811">
        <ele>29.6</ele>
        <time>2021-08-07T13:43:35Z</time>
      </trkpt>
      <trkpt lat="47.95197" lon="-2.55823">
        <ele>29.8</ele>
        <time>2021-08-07T13:43:37Z</time>
      </trkpt>
      <trkpt lat="47.95199" lon="-2.55834">
        <ele>29.8</ele>
        <time>2021-08-07T13:43:39Z</time>
      </trkpt>
      <trkpt lat="47.952" lon="-2.55846">
        <ele>29.8</ele>
        <time>2021-08-07T13:43:41Z</time>
      </trkpt>
      <trkpt lat="47.95201" lon="-2.55852">
        <ele>29.8</ele>
        <time>2021-08-07T13:43:42Z</time>
      </trkpt>
      <trkpt lat="47.95203" lon="-2.55862">
        <ele>29.8</ele>
        <time>2021-08-07T13:43:44Z</time>
      </trkpt>
      <trkpt lat="47.95205" lon="-2.55871">
        <ele>29.8</ele>
        <time>2021-08-07T13:43:46Z</time>
      </trkpt>
      <trkpt lat="47.95206" lon="-2.55876">
        <ele>29.8</ele>
        <time>2021-08-07T13:43:47Z</time>
      </trkpt>
      <trkpt lat="47.95207" lon="-2.5588">
        <ele>29.8</ele>
        <time>2021-08-07T13:43:48Z</time>
      </trkpt>
      <trkpt lat="47.95208" lon="-2.55886">
        <ele>29.6</ele>
        <time>2021-08-07T13:43:49Z</time>
      </trkpt>
      <trkpt lat="47.9521" lon="-2.55897">
        <ele>29.6</ele>
        <time>2021-08-07T13:43:51Z</time>
      </trkpt>
      <trkpt lat="47.95212" lon="-2.5591">
        <ele>29.6</ele>
        <time>2021-08-07T13:43:53Z</time>
      </trkpt>
      <trkpt lat="47.95213" lon="-2.55917">
        <ele>29.6</ele>
        <time>2021-08-07T13:43:54Z</time>
      </trkpt>
      <trkpt lat="47.95215" lon="-2.55931">
        <ele>29.6</ele>
        <time>2021-08-07T13:43:56Z</time>
      </trkpt>
      <trkpt lat="47.95217" lon="-2.55945">
        <ele>29.6</ele>
        <time>2021-08-07T13:43:58Z</time>
      </trkpt>
      <trkpt lat="47.95218" lon="-2.55952">
        <ele>29.6</ele>
        <time>2021-08-07T13:43:59Z</time>
      </trkpt>
      <trkpt lat="47.95221" lon="-2.55964">
        <ele>29.4</ele>
        <time>2021-08-07T13:44:01Z</time>
      </trkpt>
      <trkpt lat="47.95225" lon="-2.55974">
        <ele>29.4</ele>
        <time>2021-08-07T13:44:03Z</time>
      </trkpt>
      <trkpt lat="47.95227" lon="-2.5598">
        <ele>29.4</ele>
        <time>2021-08-07T13:44:04Z</time>
      </trkpt>
      <trkpt lat="47.9523" lon="-2.55984">
        <ele>29.4</ele>
        <time>2021-08-07T13:44:05Z</time>
      </trkpt>
      <trkpt lat="47.95233" lon="-2.55988">
        <ele>29.4</ele>
        <time>2021-08-07T13:44:06Z</time>
      </trkpt>
      <trkpt lat="47.95239" lon="-2.55996">
        <ele>29.4</ele>
        <time>2021-08-07T13:44:08Z</time>
      </trkpt>
      <trkpt lat="47.95245" lon="-2.56004">
        <ele>29.4</ele>
        <time>2021-08-07T13:44:10Z</time>
      </trkpt>
      <trkpt lat="47.95247" lon="-2.56008">
        <ele>29.6</ele>
        <time>2021-08-07T13:44:11Z</time>
      </trkpt>
      <trkpt lat="47.95252" lon="-2.56016">
        <ele>29.6</ele>
        <time>2021-08-07T13:44:13Z</time>
      </trkpt>
      <trkpt lat="47.95255" lon="-2.56019">
        <ele>29.6</ele>
        <time>2021-08-07T13:44:14Z</time>
      </trkpt>
      <trkpt lat="47.95258" lon="-2.56023">
        <ele>29.8</ele>
        <time>2021-08-07T13:44:15Z</time>
      </trkpt>
      <trkpt lat="47.95265" lon="-2.5603">
        <ele>30</ele>
        <time>2021-08-07T13:44:17Z</time>
      </trkpt>
      <trkpt lat="47.95269" lon="-2.56034">
        <ele>30</ele>
        <time>2021-08-07T13:44:18Z</time>
      </trkpt>
      <trkpt lat="47.95273" lon="-2.56038">
        <ele>30</ele>
        <time>2021-08-07T13:44:19Z</time>
      </trkpt>
      <trkpt lat="47.95276" lon="-2.56043">
        <ele>30.2</ele>
        <time>2021-08-07T13:44:20Z</time>
      </trkpt>
      <trkpt lat="47.95284" lon="-2.56052">
        <ele>30.4</ele>
        <time>2021-08-07T13:44:22Z</time>
      </trkpt>
      <trkpt lat="47.95292" lon="-2.56061">
        <ele>30.4</ele>
        <time>2021-08-07T13:44:24Z</time>
      </trkpt>
      <trkpt lat="47.95295" lon="-2.56066">
        <ele>30.4</ele>
        <time>2021-08-07T13:44:25Z</time>
      </trkpt>
      <trkpt lat="47.95299" lon="-2.56071">
        <ele>30.4</ele>
        <time>2021-08-07T13:44:26Z</time>
      </trkpt>
      <trkpt lat="47.95302" lon="-2.56075">
        <ele>30.4</ele>
        <time>2021-08-07T13:44:27Z</time>
      </trkpt>
      <trkpt lat="47.95308" lon="-2.56085">
        <ele>30.4</ele>
        <time>2021-08-07T13:44:29Z</time>
      </trkpt>
      <trkpt lat="47.95311" lon="-2.5609">
        <ele>30.4</ele>
        <time>2021-08-07T13:44:30Z</time>
      </trkpt>
      <trkpt lat="47.95317" lon="-2.56101">
        <ele>30.4</ele>
        <time>2021-08-07T13:44:32Z</time>
      </trkpt>
      <trkpt lat="47.95319" lon="-2.56107">
        <ele>30.4</ele>
        <time>2021-08-07T13:44:33Z</time>
      </trkpt>
      <trkpt lat="47.95322" lon="-2.56113">
        <ele>30.4</ele>
        <time>2021-08-07T13:44:34Z</time>
      </trkpt>
      <trkpt lat="47.95327" lon="-2.56124">
        <ele>30.4</ele>
        <time>2021-08-07T13:44:36Z</time>
      </trkpt>
      <trkpt lat="47.95329" lon="-2.56129">
        <ele>30.4</ele>
        <time>2021-08-07T13:44:37Z</time>
      </trkpt>
      <trkpt lat="47.95334" lon="-2.56139">
        <ele>30.4</ele>
        <time>2021-08-07T13:44:39Z</time>
      </trkpt>
      <trkpt lat="47.95337" lon="-2.56144">
        <ele>30.4</ele>
        <time>2021-08-07T13:44:40Z</time>
      </trkpt>
      <trkpt lat="47.95339" lon="-2.5615">
        <ele>30.4</ele>
        <time>2021-08-07T13:44:41Z</time>
      </trkpt>
      <trkpt lat="47.95343" lon="-2.56162">
        <ele>30.4</ele>
        <time>2021-08-07T13:44:43Z</time>
      </trkpt>
      <trkpt lat="47.95345" lon="-2.56169">
        <ele>30.4</ele>
        <time>2021-08-07T13:44:44Z</time>
      </trkpt>
      <trkpt lat="47.95348" lon="-2.56175">
        <ele>30.4</ele>
        <time>2021-08-07T13:44:45Z</time>
      </trkpt>
      <trkpt lat="47.9535" lon="-2.56182">
        <ele>30.4</ele>
        <time>2021-08-07T13:44:46Z</time>
      </trkpt>
      <trkpt lat="47.95354" lon="-2.56194">
        <ele>30.4</ele>
        <time>2021-08-07T13:44:48Z</time>
      </trkpt>
      <trkpt lat="47.95357" lon="-2.56206">
        <ele>30.4</ele>
        <time>2021-08-07T13:44:50Z</time>
      </trkpt>
      <trkpt lat="47.95361" lon="-2.56217">
        <ele>30.4</ele>
        <time>2021-08-07T13:44:52Z</time>
      </trkpt>
      <trkpt lat="47.95362" lon="-2.56223">
        <ele>30.2</ele>
        <time>2021-08-07T13:44:53Z</time>
      </trkpt>
      <trkpt lat="47.95363" lon="-2.56227">
        <ele>30.2</ele>
        <time>2021-08-07T13:44:54Z</time>
      </trkpt>
      <trkpt lat="47.95363" lon="-2.56234">
        <ele>30.2</ele>
        <time>2021-08-07T13:44:56Z</time>
      </trkpt>
      <trkpt lat="47.95364" lon="-2.56236">
        <ele>30.2</ele>
        <time>2021-08-07T13:44:57Z</time>
      </trkpt>
      <trkpt lat="47.95364" lon="-2.56238">
        <ele>30.2</ele>
        <time>2021-08-07T13:44:58Z</time>
      </trkpt>
      <trkpt lat="47.95365" lon="-2.56241">
        <ele>30.2</ele>
        <time>2021-08-07T13:45:01Z</time>
      </trkpt>
      <trkpt lat="47.95365" lon="-2.56241">
        <ele>30.2</ele>
        <time>2021-08-07T13:45:02Z</time>
      </trkpt>
      <trkpt lat="47.95364" lon="-2.5624">
        <ele>30.6</ele>
        <time>2021-08-07T13:45:30Z</time>
      </trkpt>
      <trkpt lat="47.95364" lon="-2.5624">
        <ele>30.6</ele>
        <time>2021-08-07T13:45:31Z</time>
      </trkpt>
      <trkpt lat="47.95364" lon="-2.56236">
        <ele>30.6</ele>
        <time>2021-08-07T13:45:33Z</time>
      </trkpt>
      <trkpt lat="47.95364" lon="-2.56234">
        <ele>30.6</ele>
        <time>2021-08-07T13:45:34Z</time>
      </trkpt>
      <trkpt lat="47.95364" lon="-2.56232">
        <ele>30.6</ele>
        <time>2021-08-07T13:45:35Z</time>
      </trkpt>
      <trkpt lat="47.95363" lon="-2.56229">
        <ele>30.6</ele>
        <time>2021-08-07T13:45:36Z</time>
      </trkpt>
      <trkpt lat="47.95361" lon="-2.56219">
        <ele>30.8</ele>
        <time>2021-08-07T13:45:39Z</time>
      </trkpt>
      <trkpt lat="47.95359" lon="-2.56212">
        <ele>30.8</ele>
        <time>2021-08-07T13:45:41Z</time>
      </trkpt>
      <trkpt lat="47.95357" lon="-2.56208">
        <ele>30.8</ele>
        <time>2021-08-07T13:45:42Z</time>
      </trkpt>
      <trkpt lat="47.95354" lon="-2.56201">
        <ele>30.8</ele>
        <time>2021-08-07T13:45:44Z</time>
      </trkpt>
      <trkpt lat="47.95354" lon="-2.56198">
        <ele>30.8</ele>
        <time>2021-08-07T13:45:45Z</time>
      </trkpt>
      <trkpt lat="47.95355" lon="-2.56196">
        <ele>30.8</ele>
        <time>2021-08-07T13:45:46Z</time>
      </trkpt>
      <trkpt lat="47.95358" lon="-2.56196">
        <ele>30.8</ele>
        <time>2021-08-07T13:45:48Z</time>
      </trkpt>
      <trkpt lat="47.95358" lon="-2.56197">
        <ele>30.8</ele>
        <time>2021-08-07T13:45:49Z</time>
      </trkpt>
      <trkpt lat="47.95359" lon="-2.56198">
        <ele>30.8</ele>
        <time>2021-08-07T13:45:50Z</time>
      </trkpt>
      <trkpt lat="47.95359" lon="-2.56199">
        <ele>30.8</ele>
        <time>2021-08-07T13:45:51Z</time>
      </trkpt>
      <trkpt lat="47.95359" lon="-2.56198">
        <ele>30.8</ele>
        <time>2021-08-07T13:45:55Z</time>
      </trkpt>
      <trkpt lat="47.95359" lon="-2.56198">
        <ele>31</ele>
        <time>2021-08-07T13:45:56Z</time>
      </trkpt>
      <trkpt lat="47.9536" lon="-2.56198">
        <ele>31.2</ele>
        <time>2021-08-07T13:45:57Z</time>
      </trkpt>
      <trkpt lat="47.9536" lon="-2.56198">
        <ele>31.2</ele>
        <time>2021-08-07T13:45:58Z</time>
      </trkpt>
      <trkpt lat="47.95362" lon="-2.56199">
        <ele>31.6</ele>
        <time>2021-08-07T13:46:01Z</time>
      </trkpt>
      <trkpt lat="47.95364" lon="-2.56202">
        <ele>31.8</ele>
        <time>2021-08-07T13:46:03Z</time>
      </trkpt>
      <trkpt lat="47.95364" lon="-2.56205">
        <ele>31.8</ele>
        <time>2021-08-07T13:46:04Z</time>
      </trkpt>
      <trkpt lat="47.95366" lon="-2.56212">
        <ele>31.8</ele>
        <time>2021-08-07T13:46:07Z</time>
      </trkpt>
      <trkpt lat="47.95367" lon="-2.56218">
        <ele>31.8</ele>
        <time>2021-08-07T13:46:09Z</time>
      </trkpt>
      <trkpt lat="47.95367" lon="-2.56221">
        <ele>31.8</ele>
        <time>2021-08-07T13:46:10Z</time>
      </trkpt>
      <trkpt lat="47.95368" lon="-2.56225">
        <ele>31.8</ele>
        <time>2021-08-07T13:46:11Z</time>
      </trkpt>
      <trkpt lat="47.95369" lon="-2.56232">
        <ele>31.8</ele>
        <time>2021-08-07T13:46:13Z</time>
      </trkpt>
      <trkpt lat="47.9537" lon="-2.56238">
        <ele>31.6</ele>
        <time>2021-08-07T13:46:15Z</time>
      </trkpt>
      <trkpt lat="47.95371" lon="-2.56243">
        <ele>31.6</ele>
        <time>2021-08-07T13:46:17Z</time>
      </trkpt>
      <trkpt lat="47.95372" lon="-2.56246">
        <ele>31.6</ele>
        <time>2021-08-07T13:46:18Z</time>
      </trkpt>
      <trkpt lat="47.95373" lon="-2.56249">
        <ele>31.6</ele>
        <time>2021-08-07T13:46:19Z</time>
      </trkpt>
      <trkpt lat="47.95376" lon="-2.56255">
        <ele>31.6</ele>
        <time>2021-08-07T13:46:21Z</time>
      </trkpt>
      <trkpt lat="47.95379" lon="-2.5626">
        <ele>31.6</ele>
        <time>2021-08-07T13:46:23Z</time>
      </trkpt>
      <trkpt lat="47.95381" lon="-2.56263">
        <ele>31.6</ele>
        <time>2021-08-07T13:46:24Z</time>
      </trkpt>
      <trkpt lat="47.95382" lon="-2.56266">
        <ele>31.8</ele>
        <time>2021-08-07T13:46:25Z</time>
      </trkpt>
      <trkpt lat="47.95384" lon="-2.56277">
        <ele>32</ele>
        <time>2021-08-07T13:46:28Z</time>
      </trkpt>
      <trkpt lat="47.95385" lon="-2.56285">
        <ele>32</ele>
        <time>2021-08-07T13:46:30Z</time>
      </trkpt>
      <trkpt lat="47.95386" lon="-2.56292">
        <ele>32.2</ele>
        <time>2021-08-07T13:46:32Z</time>
      </trkpt>
      <trkpt lat="47.95388" lon="-2.563">
        <ele>32.2</ele>
        <time>2021-08-07T13:46:34Z</time>
      </trkpt>
      <trkpt lat="47.95389" lon="-2.56308">
        <ele>32.2</ele>
        <time>2021-08-07T13:46:36Z</time>
      </trkpt>
      <trkpt lat="47.95394" lon="-2.56329">
        <ele>32.4</ele>
        <time>2021-08-07T13:46:41Z</time>
      </trkpt>
      <trkpt lat="47.95395" lon="-2.56338">
        <ele>32.4</ele>
        <time>2021-08-07T13:46:43Z</time>
      </trkpt>
      <trkpt lat="47.95397" lon="-2.56347">
        <ele>32.6</ele>
        <time>2021-08-07T13:46:45Z</time>
      </trkpt>
      <trkpt lat="47.95399" lon="-2.56357">
        <ele>32.6</ele>
        <time>2021-08-07T13:46:47Z</time>
      </trkpt>
      <trkpt lat="47.95401" lon="-2.56367">
        <ele>32.8</ele>
        <time>2021-08-07T13:46:49Z</time>
      </trkpt>
      <trkpt lat="47.95402" lon="-2.56372">
        <ele>32.8</ele>
        <time>2021-08-07T13:46:50Z</time>
      </trkpt>
      <trkpt lat="47.95403" lon="-2.56377">
        <ele>32.8</ele>
        <time>2021-08-07T13:46:51Z</time>
      </trkpt>
      <trkpt lat="47.95404" lon="-2.56382">
        <ele>32.8</ele>
        <time>2021-08-07T13:46:52Z</time>
      </trkpt>
      <trkpt lat="47.95405" lon="-2.56387">
        <ele>32.8</ele>
        <time>2021-08-07T13:46:53Z</time>
      </trkpt>
      <trkpt lat="47.95407" lon="-2.56399">
        <ele>32.8</ele>
        <time>2021-08-07T13:46:55Z</time>
      </trkpt>
      <trkpt lat="47.95408" lon="-2.56405">
        <ele>32.8</ele>
        <time>2021-08-07T13:46:56Z</time>
      </trkpt>
      <trkpt lat="47.9541" lon="-2.56411">
        <ele>32.8</ele>
        <time>2021-08-07T13:46:57Z</time>
      </trkpt>
      <trkpt lat="47.95414" lon="-2.56432">
        <ele>32.8</ele>
        <time>2021-08-07T13:47:00Z</time>
      </trkpt>
      <trkpt lat="47.95417" lon="-2.56446">
        <ele>32.6</ele>
        <time>2021-08-07T13:47:02Z</time>
      </trkpt>
      <trkpt lat="47.9542" lon="-2.56462">
        <ele>32.6</ele>
        <time>2021-08-07T13:47:04Z</time>
      </trkpt>
      <trkpt lat="47.95424" lon="-2.56477">
        <ele>32.2</ele>
        <time>2021-08-07T13:47:06Z</time>
      </trkpt>
      <trkpt lat="47.95427" lon="-2.56493">
        <ele>32</ele>
        <time>2021-08-07T13:47:08Z</time>
      </trkpt>
      <trkpt lat="47.95429" lon="-2.565">
        <ele>31.8</ele>
        <time>2021-08-07T13:47:09Z</time>
      </trkpt>
      <trkpt lat="47.95431" lon="-2.56507">
        <ele>31.4</ele>
        <time>2021-08-07T13:47:10Z</time>
      </trkpt>
      <trkpt lat="47.95433" lon="-2.56513">
        <ele>31.2</ele>
        <time>2021-08-07T13:47:11Z</time>
      </trkpt>
      <trkpt lat="47.95436" lon="-2.56519">
        <ele>31</ele>
        <time>2021-08-07T13:47:12Z</time>
      </trkpt>
      <trkpt lat="47.95442" lon="-2.56528">
        <ele>30.8</ele>
        <time>2021-08-07T13:47:14Z</time>
      </trkpt>
      <trkpt lat="47.95444" lon="-2.56533">
        <ele>30.8</ele>
        <time>2021-08-07T13:47:15Z</time>
      </trkpt>
      <trkpt lat="47.95446" lon="-2.56538">
        <ele>30.6</ele>
        <time>2021-08-07T13:47:16Z</time>
      </trkpt>
      <trkpt lat="47.95449" lon="-2.56551">
        <ele>30.6</ele>
        <time>2021-08-07T13:47:18Z</time>
      </trkpt>
      <trkpt lat="47.95447" lon="-2.56564">
        <ele>30.6</ele>
        <time>2021-08-07T13:47:20Z</time>
      </trkpt>
      <trkpt lat="47.95444" lon="-2.56568">
        <ele>30.6</ele>
        <time>2021-08-07T13:47:21Z</time>
      </trkpt>
      <trkpt lat="47.9544" lon="-2.56571">
        <ele>30.6</ele>
        <time>2021-08-07T13:47:22Z</time>
      </trkpt>
      <trkpt lat="47.95436" lon="-2.56572">
        <ele>30.6</ele>
        <time>2021-08-07T13:47:23Z</time>
      </trkpt>
      <trkpt lat="47.95429" lon="-2.5657">
        <ele>30.6</ele>
        <time>2021-08-07T13:47:25Z</time>
      </trkpt>
      <trkpt lat="47.95422" lon="-2.56565">
        <ele>30.8</ele>
        <time>2021-08-07T13:47:27Z</time>
      </trkpt>
      <trkpt lat="47.95418" lon="-2.56563">
        <ele>30.8</ele>
        <time>2021-08-07T13:47:28Z</time>
      </trkpt>
      <trkpt lat="47.9541" lon="-2.56561">
        <ele>31</ele>
        <time>2021-08-07T13:47:30Z</time>
      </trkpt>
      <trkpt lat="47.95406" lon="-2.56561">
        <ele>31.2</ele>
        <time>2021-08-07T13:47:31Z</time>
      </trkpt>
      <trkpt lat="47.95402" lon="-2.56563">
        <ele>31.4</ele>
        <time>2021-08-07T13:47:32Z</time>
      </trkpt>
      <trkpt lat="47.95399" lon="-2.56564">
        <ele>31.6</ele>
        <time>2021-08-07T13:47:33Z</time>
      </trkpt>
      <trkpt lat="47.95395" lon="-2.56565">
        <ele>32.4</ele>
        <time>2021-08-07T13:47:34Z</time>
      </trkpt>
      <trkpt lat="47.95388" lon="-2.56566">
        <ele>33</ele>
        <time>2021-08-07T13:47:36Z</time>
      </trkpt>
      <trkpt lat="47.95384" lon="-2.56567">
        <ele>33.2</ele>
        <time>2021-08-07T13:47:37Z</time>
      </trkpt>
      <trkpt lat="47.9538" lon="-2.56568">
        <ele>33.4</ele>
        <time>2021-08-07T13:47:38Z</time>
      </trkpt>
      <trkpt lat="47.95376" lon="-2.56569">
        <ele>33.6</ele>
        <time>2021-08-07T13:47:39Z</time>
      </trkpt>
      <trkpt lat="47.95373" lon="-2.5657">
        <ele>33.6</ele>
        <time>2021-08-07T13:47:40Z</time>
      </trkpt>
      <trkpt lat="47.95369" lon="-2.56571">
        <ele>33.6</ele>
        <time>2021-08-07T13:47:41Z</time>
      </trkpt>
      <trkpt lat="47.95365" lon="-2.56571">
        <ele>33.8</ele>
        <time>2021-08-07T13:47:42Z</time>
      </trkpt>
      <trkpt lat="47.95361" lon="-2.56572">
        <ele>33.8</ele>
        <time>2021-08-07T13:47:43Z</time>
      </trkpt>
      <trkpt lat="47.95357" lon="-2.56573">
        <ele>33.8</ele>
        <time>2021-08-07T13:47:44Z</time>
      </trkpt>
      <trkpt lat="47.95353" lon="-2.56574">
        <ele>33.8</ele>
        <time>2021-08-07T13:47:45Z</time>
      </trkpt>
      <trkpt lat="47.95349" lon="-2.56576">
        <ele>33.8</ele>
        <time>2021-08-07T13:47:46Z</time>
      </trkpt>
      <trkpt lat="47.95344" lon="-2.56577">
        <ele>33.6</ele>
        <time>2021-08-07T13:47:47Z</time>
      </trkpt>
      <trkpt lat="47.9534" lon="-2.56579">
        <ele>33.6</ele>
        <time>2021-08-07T13:47:48Z</time>
      </trkpt>
      <trkpt lat="47.95336" lon="-2.5658">
        <ele>33.6</ele>
        <time>2021-08-07T13:47:49Z</time>
      </trkpt>
      <trkpt lat="47.95331" lon="-2.56581">
        <ele>33.6</ele>
        <time>2021-08-07T13:47:50Z</time>
      </trkpt>
      <trkpt lat="47.95327" lon="-2.56583">
        <ele>33.6</ele>
        <time>2021-08-07T13:47:51Z</time>
      </trkpt>
      <trkpt lat="47.95322" lon="-2.56584">
        <ele>33.6</ele>
        <time>2021-08-07T13:47:52Z</time>
      </trkpt>
      <trkpt lat="47.95318" lon="-2.56585">
        <ele>33.6</ele>
        <time>2021-08-07T13:47:53Z</time>
      </trkpt>
      <trkpt lat="47.95313" lon="-2.56587">
        <ele>33.6</ele>
        <time>2021-08-07T13:47:54Z</time>
      </trkpt>
      <trkpt lat="47.95309" lon="-2.56589">
        <ele>33.6</ele>
        <time>2021-08-07T13:47:55Z</time>
      </trkpt>
      <trkpt lat="47.95304" lon="-2.56591">
        <ele>33.6</ele>
        <time>2021-08-07T13:47:56Z</time>
      </trkpt>
      <trkpt lat="47.95295" lon="-2.56595">
        <ele>33.6</ele>
        <time>2021-08-07T13:47:58Z</time>
      </trkpt>
      <trkpt lat="47.9529" lon="-2.56597">
        <ele>33.6</ele>
        <time>2021-08-07T13:47:59Z</time>
      </trkpt>
      <trkpt lat="47.95285" lon="-2.56599">
        <ele>33.6</ele>
        <time>2021-08-07T13:48:00Z</time>
      </trkpt>
      <trkpt lat="47.95275" lon="-2.56604">
        <ele>33.4</ele>
        <time>2021-08-07T13:48:02Z</time>
      </trkpt>
      <trkpt lat="47.9527" lon="-2.56606">
        <ele>33.4</ele>
        <time>2021-08-07T13:48:03Z</time>
      </trkpt>
      <trkpt lat="47.95266" lon="-2.56609">
        <ele>33.4</ele>
        <time>2021-08-07T13:48:04Z</time>
      </trkpt>
      <trkpt lat="47.95261" lon="-2.56611">
        <ele>33.2</ele>
        <time>2021-08-07T13:48:05Z</time>
      </trkpt>
      <trkpt lat="47.95256" lon="-2.56614">
        <ele>33.2</ele>
        <time>2021-08-07T13:48:06Z</time>
      </trkpt>
      <trkpt lat="47.95251" lon="-2.56617">
        <ele>33</ele>
        <time>2021-08-07T13:48:07Z</time>
      </trkpt>
      <trkpt lat="47.95247" lon="-2.5662">
        <ele>32.6</ele>
        <time>2021-08-07T13:48:08Z</time>
      </trkpt>
      <trkpt lat="47.95242" lon="-2.56623">
        <ele>32.2</ele>
        <time>2021-08-07T13:48:09Z</time>
      </trkpt>
      <trkpt lat="47.95238" lon="-2.56626">
        <ele>32</ele>
        <time>2021-08-07T13:48:10Z</time>
      </trkpt>
      <trkpt lat="47.95234" lon="-2.5663">
        <ele>31.8</ele>
        <time>2021-08-07T13:48:11Z</time>
      </trkpt>
      <trkpt lat="47.9523" lon="-2.56633">
        <ele>31.8</ele>
        <time>2021-08-07T13:48:12Z</time>
      </trkpt>
      <trkpt lat="47.95228" lon="-2.56638">
        <ele>31.8</ele>
        <time>2021-08-07T13:48:13Z</time>
      </trkpt>
      <trkpt lat="47.95226" lon="-2.56643">
        <ele>31.8</ele>
        <time>2021-08-07T13:48:14Z</time>
      </trkpt>
      <trkpt lat="47.95224" lon="-2.56648">
        <ele>31.8</ele>
        <time>2021-08-07T13:48:15Z</time>
      </trkpt>
      <trkpt lat="47.95224" lon="-2.56653">
        <ele>31.8</ele>
        <time>2021-08-07T13:48:16Z</time>
      </trkpt>
      <trkpt lat="47.95225" lon="-2.56659">
        <ele>31.8</ele>
        <time>2021-08-07T13:48:17Z</time>
      </trkpt>
      <trkpt lat="47.95226" lon="-2.56664">
        <ele>31.8</ele>
        <time>2021-08-07T13:48:18Z</time>
      </trkpt>
      <trkpt lat="47.95227" lon="-2.5667">
        <ele>32</ele>
        <time>2021-08-07T13:48:19Z</time>
      </trkpt>
      <trkpt lat="47.95229" lon="-2.56676">
        <ele>32.2</ele>
        <time>2021-08-07T13:48:20Z</time>
      </trkpt>
      <trkpt lat="47.9523" lon="-2.56682">
        <ele>32.2</ele>
        <time>2021-08-07T13:48:21Z</time>
      </trkpt>
      <trkpt lat="47.95232" lon="-2.56688">
        <ele>32.4</ele>
        <time>2021-08-07T13:48:22Z</time>
      </trkpt>
      <trkpt lat="47.95236" lon="-2.56701">
        <ele>32.4</ele>
        <time>2021-08-07T13:48:24Z</time>
      </trkpt>
      <trkpt lat="47.95237" lon="-2.56707">
        <ele>32.4</ele>
        <time>2021-08-07T13:48:25Z</time>
      </trkpt>
      <trkpt lat="47.95239" lon="-2.56714">
        <ele>32.4</ele>
        <time>2021-08-07T13:48:26Z</time>
      </trkpt>
      <trkpt lat="47.95241" lon="-2.56721">
        <ele>32.4</ele>
        <time>2021-08-07T13:48:27Z</time>
      </trkpt>
      <trkpt lat="47.95243" lon="-2.56727">
        <ele>32.4</ele>
        <time>2021-08-07T13:48:28Z</time>
      </trkpt>
      <trkpt lat="47.95245" lon="-2.56734">
        <ele>32.4</ele>
        <time>2021-08-07T13:48:29Z</time>
      </trkpt>
      <trkpt lat="47.95246" lon="-2.56741">
        <ele>32.4</ele>
        <time>2021-08-07T13:48:30Z</time>
      </trkpt>
      <trkpt lat="47.95248" lon="-2.56748">
        <ele>32.4</ele>
        <time>2021-08-07T13:48:31Z</time>
      </trkpt>
      <trkpt lat="47.9525" lon="-2.56755">
        <ele>32.4</ele>
        <time>2021-08-07T13:48:32Z</time>
      </trkpt>
      <trkpt lat="47.95251" lon="-2.56762">
        <ele>32.4</ele>
        <time>2021-08-07T13:48:33Z</time>
      </trkpt>
      <trkpt lat="47.95254" lon="-2.56777">
        <ele>32.4</ele>
        <time>2021-08-07T13:48:35Z</time>
      </trkpt>
      <trkpt lat="47.95256" lon="-2.56785">
        <ele>32.4</ele>
        <time>2021-08-07T13:48:36Z</time>
      </trkpt>
      <trkpt lat="47.95258" lon="-2.56792">
        <ele>32.4</ele>
        <time>2021-08-07T13:48:37Z</time>
      </trkpt>
      <trkpt lat="47.95259" lon="-2.568">
        <ele>32.2</ele>
        <time>2021-08-07T13:48:38Z</time>
      </trkpt>
      <trkpt lat="47.95261" lon="-2.56808">
        <ele>32.2</ele>
        <time>2021-08-07T13:48:39Z</time>
      </trkpt>
      <trkpt lat="47.95262" lon="-2.56816">
        <ele>32.2</ele>
        <time>2021-08-07T13:48:40Z</time>
      </trkpt>
      <trkpt lat="47.95264" lon="-2.56824">
        <ele>32.2</ele>
        <time>2021-08-07T13:48:41Z</time>
      </trkpt>
      <trkpt lat="47.95265" lon="-2.56832">
        <ele>32.2</ele>
        <time>2021-08-07T13:48:42Z</time>
      </trkpt>
      <trkpt lat="47.95266" lon="-2.5684">
        <ele>32.2</ele>
        <time>2021-08-07T13:48:43Z</time>
      </trkpt>
      <trkpt lat="47.95268" lon="-2.56849">
        <ele>32.2</ele>
        <time>2021-08-07T13:48:44Z</time>
      </trkpt>
      <trkpt lat="47.95269" lon="-2.56857">
        <ele>32.2</ele>
        <time>2021-08-07T13:48:45Z</time>
      </trkpt>
      <trkpt lat="47.95271" lon="-2.56865">
        <ele>32.2</ele>
        <time>2021-08-07T13:48:46Z</time>
      </trkpt>
      <trkpt lat="47.95272" lon="-2.56874">
        <ele>32.2</ele>
        <time>2021-08-07T13:48:47Z</time>
      </trkpt>
      <trkpt lat="47.95273" lon="-2.56882">
        <ele>32</ele>
        <time>2021-08-07T13:48:48Z</time>
      </trkpt>
      <trkpt lat="47.95275" lon="-2.56891">
        <ele>31.8</ele>
        <time>2021-08-07T13:48:49Z</time>
      </trkpt>
      <trkpt lat="47.95276" lon="-2.56899">
        <ele>31.6</ele>
        <time>2021-08-07T13:48:50Z</time>
      </trkpt>
      <trkpt lat="47.95278" lon="-2.56908">
        <ele>31.6</ele>
        <time>2021-08-07T13:48:51Z</time>
      </trkpt>
      <trkpt lat="47.95279" lon="-2.56917">
        <ele>31.4</ele>
        <time>2021-08-07T13:48:52Z</time>
      </trkpt>
      <trkpt lat="47.95281" lon="-2.56925">
        <ele>31.4</ele>
        <time>2021-08-07T13:48:53Z</time>
      </trkpt>
      <trkpt lat="47.95282" lon="-2.56934">
        <ele>31.4</ele>
        <time>2021-08-07T13:48:54Z</time>
      </trkpt>
      <trkpt lat="47.95283" lon="-2.56943">
        <ele>31.2</ele>
        <time>2021-08-07T13:48:55Z</time>
      </trkpt>
      <trkpt lat="47.95285" lon="-2.56951">
        <ele>31.2</ele>
        <time>2021-08-07T13:48:56Z</time>
      </trkpt>
      <trkpt lat="47.95286" lon="-2.5696">
        <ele>31.2</ele>
        <time>2021-08-07T13:48:57Z</time>
      </trkpt>
      <trkpt lat="47.95287" lon="-2.56969">
        <ele>31.2</ele>
        <time>2021-08-07T13:48:58Z</time>
      </trkpt>
      <trkpt lat="47.95287" lon="-2.56977">
        <ele>31</ele>
        <time>2021-08-07T13:48:59Z</time>
      </trkpt>
      <trkpt lat="47.95288" lon="-2.56986">
        <ele>31</ele>
        <time>2021-08-07T13:49:00Z</time>
      </trkpt>
      <trkpt lat="47.95288" lon="-2.56994">
        <ele>31</ele>
        <time>2021-08-07T13:49:01Z</time>
      </trkpt>
      <trkpt lat="47.95289" lon="-2.57002">
        <ele>31</ele>
        <time>2021-08-07T13:49:02Z</time>
      </trkpt>
      <trkpt lat="47.95289" lon="-2.57011">
        <ele>31</ele>
        <time>2021-08-07T13:49:03Z</time>
      </trkpt>
      <trkpt lat="47.95288" lon="-2.57019">
        <ele>30.8</ele>
        <time>2021-08-07T13:49:04Z</time>
      </trkpt>
      <trkpt lat="47.95288" lon="-2.57027">
        <ele>30.6</ele>
        <time>2021-08-07T13:49:05Z</time>
      </trkpt>
      <trkpt lat="47.95287" lon="-2.57035">
        <ele>30.4</ele>
        <time>2021-08-07T13:49:06Z</time>
      </trkpt>
      <trkpt lat="47.95286" lon="-2.57051">
        <ele>30.2</ele>
        <time>2021-08-07T13:49:08Z</time>
      </trkpt>
      <trkpt lat="47.95285" lon="-2.57059">
        <ele>30.2</ele>
        <time>2021-08-07T13:49:09Z</time>
      </trkpt>
      <trkpt lat="47.95285" lon="-2.57067">
        <ele>30.2</ele>
        <time>2021-08-07T13:49:10Z</time>
      </trkpt>
      <trkpt lat="47.95284" lon="-2.57075">
        <ele>30.2</ele>
        <time>2021-08-07T13:49:11Z</time>
      </trkpt>
      <trkpt lat="47.95283" lon="-2.57084">
        <ele>30.2</ele>
        <time>2021-08-07T13:49:12Z</time>
      </trkpt>
      <trkpt lat="47.95282" lon="-2.57092">
        <ele>30.2</ele>
        <time>2021-08-07T13:49:13Z</time>
      </trkpt>
      <trkpt lat="47.95281" lon="-2.571">
        <ele>30.2</ele>
        <time>2021-08-07T13:49:14Z</time>
      </trkpt>
      <trkpt lat="47.9528" lon="-2.57109">
        <ele>30.2</ele>
        <time>2021-08-07T13:49:15Z</time>
      </trkpt>
      <trkpt lat="47.95279" lon="-2.57117">
        <ele>30</ele>
        <time>2021-08-07T13:49:16Z</time>
      </trkpt>
      <trkpt lat="47.95278" lon="-2.57125">
        <ele>29.8</ele>
        <time>2021-08-07T13:49:17Z</time>
      </trkpt>
      <trkpt lat="47.95277" lon="-2.57142">
        <ele>29.8</ele>
        <time>2021-08-07T13:49:19Z</time>
      </trkpt>
      <trkpt lat="47.95276" lon="-2.5715">
        <ele>29.8</ele>
        <time>2021-08-07T13:49:20Z</time>
      </trkpt>
      <trkpt lat="47.95275" lon="-2.57159">
        <ele>29.8</ele>
        <time>2021-08-07T13:49:21Z</time>
      </trkpt>
      <trkpt lat="47.95274" lon="-2.57167">
        <ele>29.8</ele>
        <time>2021-08-07T13:49:22Z</time>
      </trkpt>
      <trkpt lat="47.95273" lon="-2.57175">
        <ele>29.8</ele>
        <time>2021-08-07T13:49:23Z</time>
      </trkpt>
      <trkpt lat="47.95273" lon="-2.57183">
        <ele>29.8</ele>
        <time>2021-08-07T13:49:24Z</time>
      </trkpt>
      <trkpt lat="47.95272" lon="-2.57191">
        <ele>29.8</ele>
        <time>2021-08-07T13:49:25Z</time>
      </trkpt>
      <trkpt lat="47.95271" lon="-2.57199">
        <ele>29.8</ele>
        <time>2021-08-07T13:49:26Z</time>
      </trkpt>
      <trkpt lat="47.9527" lon="-2.57207">
        <ele>29.6</ele>
        <time>2021-08-07T13:49:27Z</time>
      </trkpt>
      <trkpt lat="47.95269" lon="-2.57215">
        <ele>29.6</ele>
        <time>2021-08-07T13:49:28Z</time>
      </trkpt>
      <trkpt lat="47.95268" lon="-2.5723">
        <ele>29.4</ele>
        <time>2021-08-07T13:49:30Z</time>
      </trkpt>
      <trkpt lat="47.95267" lon="-2.57238">
        <ele>29.4</ele>
        <time>2021-08-07T13:49:31Z</time>
      </trkpt>
      <trkpt lat="47.95266" lon="-2.57245">
        <ele>29.2</ele>
        <time>2021-08-07T13:49:32Z</time>
      </trkpt>
      <trkpt lat="47.95265" lon="-2.57252">
        <ele>29.2</ele>
        <time>2021-08-07T13:49:33Z</time>
      </trkpt>
      <trkpt lat="47.95264" lon="-2.57259">
        <ele>29.2</ele>
        <time>2021-08-07T13:49:34Z</time>
      </trkpt>
      <trkpt lat="47.95263" lon="-2.57266">
        <ele>29.2</ele>
        <time>2021-08-07T13:49:35Z</time>
      </trkpt>
      <trkpt lat="47.95262" lon="-2.57272">
        <ele>29.2</ele>
        <time>2021-08-07T13:49:36Z</time>
      </trkpt>
      <trkpt lat="47.95261" lon="-2.57279">
        <ele>29.2</ele>
        <time>2021-08-07T13:49:37Z</time>
      </trkpt>
      <trkpt lat="47.95261" lon="-2.57285">
        <ele>29.2</ele>
        <time>2021-08-07T13:49:38Z</time>
      </trkpt>
      <trkpt lat="47.95259" lon="-2.57291">
        <ele>29.2</ele>
        <time>2021-08-07T13:49:39Z</time>
      </trkpt>
      <trkpt lat="47.95258" lon="-2.57296">
        <ele>29.2</ele>
        <time>2021-08-07T13:49:40Z</time>
      </trkpt>
      <trkpt lat="47.95257" lon="-2.57302">
        <ele>29.6</ele>
        <time>2021-08-07T13:49:41Z</time>
      </trkpt>
      <trkpt lat="47.95256" lon="-2.57307">
        <ele>29.8</ele>
        <time>2021-08-07T13:49:42Z</time>
      </trkpt>
      <trkpt lat="47.95255" lon="-2.57311">
        <ele>30.2</ele>
        <time>2021-08-07T13:49:43Z</time>
      </trkpt>
      <trkpt lat="47.95253" lon="-2.57316">
        <ele>30.2</ele>
        <time>2021-08-07T13:49:44Z</time>
      </trkpt>
      <trkpt lat="47.95252" lon="-2.5732">
        <ele>30.4</ele>
        <time>2021-08-07T13:49:45Z</time>
      </trkpt>
      <trkpt lat="47.9525" lon="-2.57324">
        <ele>30.6</ele>
        <time>2021-08-07T13:49:46Z</time>
      </trkpt>
      <trkpt lat="47.95249" lon="-2.57327">
        <ele>30.8</ele>
        <time>2021-08-07T13:49:47Z</time>
      </trkpt>
      <trkpt lat="47.95246" lon="-2.5733">
        <ele>31</ele>
        <time>2021-08-07T13:49:48Z</time>
      </trkpt>
      <trkpt lat="47.95244" lon="-2.57332">
        <ele>31</ele>
        <time>2021-08-07T13:49:49Z</time>
      </trkpt>
      <trkpt lat="47.95242" lon="-2.57334">
        <ele>31.2</ele>
        <time>2021-08-07T13:49:50Z</time>
      </trkpt>
      <trkpt lat="47.95239" lon="-2.57336">
        <ele>31.2</ele>
        <time>2021-08-07T13:49:51Z</time>
      </trkpt>
      <trkpt lat="47.95237" lon="-2.57338">
        <ele>31.2</ele>
        <time>2021-08-07T13:49:52Z</time>
      </trkpt>
      <trkpt lat="47.95236" lon="-2.5734">
        <ele>31.4</ele>
        <time>2021-08-07T13:49:53Z</time>
      </trkpt>
      <trkpt lat="47.95235" lon="-2.57343">
        <ele>31.4</ele>
        <time>2021-08-07T13:49:54Z</time>
      </trkpt>
      <trkpt lat="47.95234" lon="-2.57346">
        <ele>31.4</ele>
        <time>2021-08-07T13:49:55Z</time>
      </trkpt>
      <trkpt lat="47.95234" lon="-2.57349">
        <ele>31.4</ele>
        <time>2021-08-07T13:49:56Z</time>
      </trkpt>
      <trkpt lat="47.95233" lon="-2.57352">
        <ele>31.4</ele>
        <time>2021-08-07T13:49:57Z</time>
      </trkpt>
      <trkpt lat="47.95233" lon="-2.57326">
        <ele>45.6</ele>
        <time>2021-08-08T08:41:47Z</time>
      </trkpt>
      <trkpt lat="47.95236" lon="-2.57324">
        <ele>45.6</ele>
        <time>2021-08-08T08:41:48Z</time>
      </trkpt>
      <trkpt lat="47.95238" lon="-2.57321">
        <ele>45.2</ele>
        <time>2021-08-08T08:41:49Z</time>
      </trkpt>
      <trkpt lat="47.95241" lon="-2.57317">
        <ele>44.8</ele>
        <time>2021-08-08T08:41:50Z</time>
      </trkpt>
      <trkpt lat="47.95243" lon="-2.57313">
        <ele>44.6</ele>
        <time>2021-08-08T08:41:51Z</time>
      </trkpt>
      <trkpt lat="47.95244" lon="-2.57307">
        <ele>44.4</ele>
        <time>2021-08-08T08:41:52Z</time>
      </trkpt>
      <trkpt lat="47.95246" lon="-2.57302">
        <ele>44.2</ele>
        <time>2021-08-08T08:41:53Z</time>
      </trkpt>
      <trkpt lat="47.95247" lon="-2.57296">
        <ele>44.2</ele>
        <time>2021-08-08T08:41:54Z</time>
      </trkpt>
      <trkpt lat="47.95248" lon="-2.57289">
        <ele>44</ele>
        <time>2021-08-08T08:41:55Z</time>
      </trkpt>
      <trkpt lat="47.9525" lon="-2.57283">
        <ele>44</ele>
        <time>2021-08-08T08:41:56Z</time>
      </trkpt>
      <trkpt lat="47.95251" lon="-2.57276">
        <ele>43.8</ele>
        <time>2021-08-08T08:41:57Z</time>
      </trkpt>
      <trkpt lat="47.95252" lon="-2.57269">
        <ele>43.8</ele>
        <time>2021-08-08T08:41:58Z</time>
      </trkpt>
      <trkpt lat="47.95253" lon="-2.57262">
        <ele>43.8</ele>
        <time>2021-08-08T08:41:59Z</time>
      </trkpt>
      <trkpt lat="47.95254" lon="-2.57255">
        <ele>43.6</ele>
        <time>2021-08-08T08:42:00Z</time>
      </trkpt>
      <trkpt lat="47.95256" lon="-2.57247">
        <ele>43.6</ele>
        <time>2021-08-08T08:42:01Z</time>
      </trkpt>
      <trkpt lat="47.95257" lon="-2.5724">
        <ele>43.6</ele>
        <time>2021-08-08T08:42:02Z</time>
      </trkpt>
      <trkpt lat="47.95257" lon="-2.57232">
        <ele>43.6</ele>
        <time>2021-08-08T08:42:03Z</time>
      </trkpt>
      <trkpt lat="47.95258" lon="-2.57224">
        <ele>43.6</ele>
        <time>2021-08-08T08:42:04Z</time>
      </trkpt>
      <trkpt lat="47.95259" lon="-2.57216">
        <ele>43.6</ele>
        <time>2021-08-08T08:42:05Z</time>
      </trkpt>
      <trkpt lat="47.9526" lon="-2.57208">
        <ele>43.6</ele>
        <time>2021-08-08T08:42:06Z</time>
      </trkpt>
      <trkpt lat="47.95261" lon="-2.57199">
        <ele>43.6</ele>
        <time>2021-08-08T08:42:07Z</time>
      </trkpt>
      <trkpt lat="47.95261" lon="-2.57191">
        <ele>43.6</ele>
        <time>2021-08-08T08:42:08Z</time>
      </trkpt>
      <trkpt lat="47.95262" lon="-2.57183">
        <ele>43.6</ele>
        <time>2021-08-08T08:42:09Z</time>
      </trkpt>
      <trkpt lat="47.95263" lon="-2.57174">
        <ele>43.6</ele>
        <time>2021-08-08T08:42:10Z</time>
      </trkpt>
      <trkpt lat="47.95264" lon="-2.57165">
        <ele>43.4</ele>
        <time>2021-08-08T08:42:11Z</time>
      </trkpt>
      <trkpt lat="47.95265" lon="-2.57156">
        <ele>43.4</ele>
        <time>2021-08-08T08:42:12Z</time>
      </trkpt>
      <trkpt lat="47.95266" lon="-2.57147">
        <ele>43.4</ele>
        <time>2021-08-08T08:42:13Z</time>
      </trkpt>
      <trkpt lat="47.95267" lon="-2.57138">
        <ele>43.4</ele>
        <time>2021-08-08T08:42:14Z</time>
      </trkpt>
      <trkpt lat="47.95268" lon="-2.57129">
        <ele>43.4</ele>
        <time>2021-08-08T08:42:15Z</time>
      </trkpt>
      <trkpt lat="47.95269" lon="-2.5712">
        <ele>43.4</ele>
        <time>2021-08-08T08:42:16Z</time>
      </trkpt>
      <trkpt lat="47.9527" lon="-2.57111">
        <ele>43.4</ele>
        <time>2021-08-08T08:42:17Z</time>
      </trkpt>
      <trkpt lat="47.95271" lon="-2.57101">
        <ele>43.4</ele>
        <time>2021-08-08T08:42:18Z</time>
      </trkpt>
      <trkpt lat="47.95272" lon="-2.57092">
        <ele>43.4</ele>
        <time>2021-08-08T08:42:19Z</time>
      </trkpt>
      <trkpt lat="47.95273" lon="-2.57083">
        <ele>43.4</ele>
        <time>2021-08-08T08:42:20Z</time>
      </trkpt>
      <trkpt lat="47.95274" lon="-2.57073">
        <ele>43.4</ele>
        <time>2021-08-08T08:42:21Z</time>
      </trkpt>
      <trkpt lat="47.95275" lon="-2.57063">
        <ele>43.6</ele>
        <time>2021-08-08T08:42:22Z</time>
      </trkpt>
      <trkpt lat="47.95277" lon="-2.57054">
        <ele>43.6</ele>
        <time>2021-08-08T08:42:23Z</time>
      </trkpt>
      <trkpt lat="47.95277" lon="-2.57044">
        <ele>43.6</ele>
        <time>2021-08-08T08:42:24Z</time>
      </trkpt>
      <trkpt lat="47.95278" lon="-2.57034">
        <ele>43.6</ele>
        <time>2021-08-08T08:42:25Z</time>
      </trkpt>
      <trkpt lat="47.95279" lon="-2.57025">
        <ele>43.6</ele>
        <time>2021-08-08T08:42:26Z</time>
      </trkpt>
      <trkpt lat="47.9528" lon="-2.57015">
        <ele>43.6</ele>
        <time>2021-08-08T08:42:27Z</time>
      </trkpt>
      <trkpt lat="47.9528" lon="-2.57005">
        <ele>43.6</ele>
        <time>2021-08-08T08:42:28Z</time>
      </trkpt>
      <trkpt lat="47.9528" lon="-2.56995">
        <ele>43.6</ele>
        <time>2021-08-08T08:42:29Z</time>
      </trkpt>
      <trkpt lat="47.9528" lon="-2.56985">
        <ele>43.8</ele>
        <time>2021-08-08T08:42:30Z</time>
      </trkpt>
      <trkpt lat="47.9528" lon="-2.56974">
        <ele>43.8</ele>
        <time>2021-08-08T08:42:31Z</time>
      </trkpt>
      <trkpt lat="47.95279" lon="-2.56964">
        <ele>43.8</ele>
        <time>2021-08-08T08:42:32Z</time>
      </trkpt>
      <trkpt lat="47.95278" lon="-2.56954">
        <ele>43.8</ele>
        <time>2021-08-08T08:42:33Z</time>
      </trkpt>
      <trkpt lat="47.95277" lon="-2.56943">
        <ele>43.8</ele>
        <time>2021-08-08T08:42:34Z</time>
      </trkpt>
      <trkpt lat="47.95275" lon="-2.56933">
        <ele>43.8</ele>
        <time>2021-08-08T08:42:35Z</time>
      </trkpt>
      <trkpt lat="47.95274" lon="-2.56923">
        <ele>43.8</ele>
        <time>2021-08-08T08:42:36Z</time>
      </trkpt>
      <trkpt lat="47.95272" lon="-2.56912">
        <ele>43.8</ele>
        <time>2021-08-08T08:42:37Z</time>
      </trkpt>
      <trkpt lat="47.9527" lon="-2.56902">
        <ele>43.8</ele>
        <time>2021-08-08T08:42:38Z</time>
      </trkpt>
      <trkpt lat="47.95268" lon="-2.56892">
        <ele>43.8</ele>
        <time>2021-08-08T08:42:39Z</time>
      </trkpt>
      <trkpt lat="47.95266" lon="-2.56882">
        <ele>43.8</ele>
        <time>2021-08-08T08:42:40Z</time>
      </trkpt>
      <trkpt lat="47.95265" lon="-2.56872">
        <ele>43.8</ele>
        <time>2021-08-08T08:42:41Z</time>
      </trkpt>
      <trkpt lat="47.95263" lon="-2.56861">
        <ele>43.8</ele>
        <time>2021-08-08T08:42:42Z</time>
      </trkpt>
      <trkpt lat="47.95261" lon="-2.56851">
        <ele>43.8</ele>
        <time>2021-08-08T08:42:43Z</time>
      </trkpt>
      <trkpt lat="47.95259" lon="-2.56841">
        <ele>43.8</ele>
        <time>2021-08-08T08:42:44Z</time>
      </trkpt>
      <trkpt lat="47.95257" lon="-2.5683">
        <ele>43.8</ele>
        <time>2021-08-08T08:42:45Z</time>
      </trkpt>
      <trkpt lat="47.95256" lon="-2.5682">
        <ele>43.8</ele>
        <time>2021-08-08T08:42:46Z</time>
      </trkpt>
      <trkpt lat="47.95254" lon="-2.5681">
        <ele>43.8</ele>
        <time>2021-08-08T08:42:47Z</time>
      </trkpt>
      <trkpt lat="47.95252" lon="-2.568">
        <ele>43.8</ele>
        <time>2021-08-08T08:42:48Z</time>
      </trkpt>
      <trkpt lat="47.9525" lon="-2.5679">
        <ele>43.6</ele>
        <time>2021-08-08T08:42:49Z</time>
      </trkpt>
      <trkpt lat="47.95248" lon="-2.5678">
        <ele>43.8</ele>
        <time>2021-08-08T08:42:50Z</time>
      </trkpt>
      <trkpt lat="47.95246" lon="-2.5677">
        <ele>43.8</ele>
        <time>2021-08-08T08:42:51Z</time>
      </trkpt>
      <trkpt lat="47.95243" lon="-2.56761">
        <ele>43.8</ele>
        <time>2021-08-08T08:42:52Z</time>
      </trkpt>
      <trkpt lat="47.95241" lon="-2.56752">
        <ele>43.8</ele>
        <time>2021-08-08T08:42:53Z</time>
      </trkpt>
      <trkpt lat="47.95239" lon="-2.56742">
        <ele>43.6</ele>
        <time>2021-08-08T08:42:54Z</time>
      </trkpt>
      <trkpt lat="47.95236" lon="-2.56733">
        <ele>43.6</ele>
        <time>2021-08-08T08:42:55Z</time>
      </trkpt>
      <trkpt lat="47.95234" lon="-2.56724">
        <ele>43.8</ele>
        <time>2021-08-08T08:42:56Z</time>
      </trkpt>
      <trkpt lat="47.95231" lon="-2.56715">
        <ele>43.8</ele>
        <time>2021-08-08T08:42:57Z</time>
      </trkpt>
      <trkpt lat="47.95229" lon="-2.56705">
        <ele>43.8</ele>
        <time>2021-08-08T08:42:58Z</time>
      </trkpt>
      <trkpt lat="47.95227" lon="-2.56696">
        <ele>44</ele>
        <time>2021-08-08T08:42:59Z</time>
      </trkpt>
      <trkpt lat="47.95225" lon="-2.56687">
        <ele>44</ele>
        <time>2021-08-08T08:43:00Z</time>
      </trkpt>
      <trkpt lat="47.95222" lon="-2.56678">
        <ele>44</ele>
        <time>2021-08-08T08:43:01Z</time>
      </trkpt>
      <trkpt lat="47.9522" lon="-2.56669">
        <ele>44</ele>
        <time>2021-08-08T08:43:02Z</time>
      </trkpt>
      <trkpt lat="47.95218" lon="-2.5666">
        <ele>44.2</ele>
        <time>2021-08-08T08:43:03Z</time>
      </trkpt>
      <trkpt lat="47.95215" lon="-2.56651">
        <ele>44</ele>
        <time>2021-08-08T08:43:04Z</time>
      </trkpt>
      <trkpt lat="47.95214" lon="-2.56643">
        <ele>44</ele>
        <time>2021-08-08T08:43:05Z</time>
      </trkpt>
      <trkpt lat="47.95213" lon="-2.56635">
        <ele>44</ele>
        <time>2021-08-08T08:43:06Z</time>
      </trkpt>
      <trkpt lat="47.95215" lon="-2.56627">
        <ele>44</ele>
        <time>2021-08-08T08:43:07Z</time>
      </trkpt>
      <trkpt lat="47.95219" lon="-2.56621">
        <ele>44.2</ele>
        <time>2021-08-08T08:43:08Z</time>
      </trkpt>
      <trkpt lat="47.95225" lon="-2.56617">
        <ele>44.2</ele>
        <time>2021-08-08T08:43:09Z</time>
      </trkpt>
      <trkpt lat="47.95231" lon="-2.56614">
        <ele>44.2</ele>
        <time>2021-08-08T08:43:10Z</time>
      </trkpt>
      <trkpt lat="47.95237" lon="-2.56611">
        <ele>44.2</ele>
        <time>2021-08-08T08:43:11Z</time>
      </trkpt>
      <trkpt lat="47.95243" lon="-2.56607">
        <ele>44.2</ele>
        <time>2021-08-08T08:43:12Z</time>
      </trkpt>
      <trkpt lat="47.95249" lon="-2.56603">
        <ele>44</ele>
        <time>2021-08-08T08:43:13Z</time>
      </trkpt>
      <trkpt lat="47.95256" lon="-2.566">
        <ele>44</ele>
        <time>2021-08-08T08:43:14Z</time>
      </trkpt>
      <trkpt lat="47.95262" lon="-2.56597">
        <ele>44</ele>
        <time>2021-08-08T08:43:15Z</time>
      </trkpt>
      <trkpt lat="47.95268" lon="-2.56594">
        <ele>44</ele>
        <time>2021-08-08T08:43:16Z</time>
      </trkpt>
      <trkpt lat="47.95275" lon="-2.56591">
        <ele>44</ele>
        <time>2021-08-08T08:43:17Z</time>
      </trkpt>
      <trkpt lat="47.95281" lon="-2.56588">
        <ele>44</ele>
        <time>2021-08-08T08:43:18Z</time>
      </trkpt>
      <trkpt lat="47.95287" lon="-2.56585">
        <ele>43.8</ele>
        <time>2021-08-08T08:43:19Z</time>
      </trkpt>
      <trkpt lat="47.95293" lon="-2.56583">
        <ele>43.6</ele>
        <time>2021-08-08T08:43:20Z</time>
      </trkpt>
      <trkpt lat="47.95299" lon="-2.5658">
        <ele>43.6</ele>
        <time>2021-08-08T08:43:21Z</time>
      </trkpt>
      <trkpt lat="47.95304" lon="-2.56578">
        <ele>43.6</ele>
        <time>2021-08-08T08:43:22Z</time>
      </trkpt>
      <trkpt lat="47.9531" lon="-2.56576">
        <ele>43.4</ele>
        <time>2021-08-08T08:43:23Z</time>
      </trkpt>
      <trkpt lat="47.95315" lon="-2.56575">
        <ele>43.4</ele>
        <time>2021-08-08T08:43:24Z</time>
      </trkpt>
      <trkpt lat="47.95321" lon="-2.56573">
        <ele>43.4</ele>
        <time>2021-08-08T08:43:25Z</time>
      </trkpt>
      <trkpt lat="47.95326" lon="-2.56571">
        <ele>43.4</ele>
        <time>2021-08-08T08:43:26Z</time>
      </trkpt>
      <trkpt lat="47.95331" lon="-2.56569">
        <ele>43.4</ele>
        <time>2021-08-08T08:43:27Z</time>
      </trkpt>
      <trkpt lat="47.95336" lon="-2.56567">
        <ele>43.4</ele>
        <time>2021-08-08T08:43:28Z</time>
      </trkpt>
      <trkpt lat="47.95342" lon="-2.56566">
        <ele>43.6</ele>
        <time>2021-08-08T08:43:29Z</time>
      </trkpt>
      <trkpt lat="47.95347" lon="-2.56564">
        <ele>43.6</ele>
        <time>2021-08-08T08:43:30Z</time>
      </trkpt>
      <trkpt lat="47.95353" lon="-2.56563">
        <ele>43.6</ele>
        <time>2021-08-08T08:43:31Z</time>
      </trkpt>
      <trkpt lat="47.95358" lon="-2.56562">
        <ele>43.8</ele>
        <time>2021-08-08T08:43:32Z</time>
      </trkpt>
      <trkpt lat="47.95364" lon="-2.56561">
        <ele>43.8</ele>
        <time>2021-08-08T08:43:33Z</time>
      </trkpt>
      <trkpt lat="47.95369" lon="-2.5656">
        <ele>44</ele>
        <time>2021-08-08T08:43:34Z</time>
      </trkpt>
      <trkpt lat="47.95375" lon="-2.56558">
        <ele>44.2</ele>
        <time>2021-08-08T08:43:35Z</time>
      </trkpt>
      <trkpt lat="47.9538" lon="-2.56557">
        <ele>44.2</ele>
        <time>2021-08-08T08:43:36Z</time>
      </trkpt>
      <trkpt lat="47.95386" lon="-2.56556">
        <ele>44.2</ele>
        <time>2021-08-08T08:43:37Z</time>
      </trkpt>
      <trkpt lat="47.95391" lon="-2.56555">
        <ele>44.2</ele>
        <time>2021-08-08T08:43:38Z</time>
      </trkpt>
      <trkpt lat="47.95397" lon="-2.56554">
        <ele>44.4</ele>
        <time>2021-08-08T08:43:39Z</time>
      </trkpt>
      <trkpt lat="47.95403" lon="-2.56553">
        <ele>44.4</ele>
        <time>2021-08-08T08:43:40Z</time>
      </trkpt>
      <trkpt lat="47.95408" lon="-2.56551">
        <ele>44.4</ele>
        <time>2021-08-08T08:43:41Z</time>
      </trkpt>
      <trkpt lat="47.95414" lon="-2.56549">
        <ele>44.4</ele>
        <time>2021-08-08T08:43:42Z</time>
      </trkpt>
      <trkpt lat="47.95419" lon="-2.56544">
        <ele>44.4</ele>
        <time>2021-08-08T08:43:43Z</time>
      </trkpt>
      <trkpt lat="47.95424" lon="-2.56538">
        <ele>44.4</ele>
        <time>2021-08-08T08:43:44Z</time>
      </trkpt>
      <trkpt lat="47.95428" lon="-2.56532">
        <ele>44.4</ele>
        <time>2021-08-08T08:43:45Z</time>
      </trkpt>
      <trkpt lat="47.95433" lon="-2.56529">
        <ele>44.2</ele>
        <time>2021-08-08T08:43:46Z</time>
      </trkpt>
      <trkpt lat="47.95439" lon="-2.5653">
        <ele>44.2</ele>
        <time>2021-08-08T08:43:47Z</time>
      </trkpt>
      <trkpt lat="47.95443" lon="-2.56535">
        <ele>43.8</ele>
        <time>2021-08-08T08:43:48Z</time>
      </trkpt>
      <trkpt lat="47.95446" lon="-2.56542">
        <ele>43.2</ele>
        <time>2021-08-08T08:43:49Z</time>
      </trkpt>
      <trkpt lat="47.95447" lon="-2.56551">
        <ele>43</ele>
        <time>2021-08-08T08:43:50Z</time>
      </trkpt>
      <trkpt lat="47.95445" lon="-2.56559">
        <ele>42.8</ele>
        <time>2021-08-08T08:43:51Z</time>
      </trkpt>
      <trkpt lat="47.95441" lon="-2.56566">
        <ele>42.8</ele>
        <time>2021-08-08T08:43:52Z</time>
      </trkpt>
      <trkpt lat="47.95438" lon="-2.56571">
        <ele>42.6</ele>
        <time>2021-08-08T08:43:53Z</time>
      </trkpt>
      <trkpt lat="47.95436" lon="-2.56577">
        <ele>42.6</ele>
        <time>2021-08-08T08:43:54Z</time>
      </trkpt>
      <trkpt lat="47.95433" lon="-2.56583">
        <ele>42.6</ele>
        <time>2021-08-08T08:43:55Z</time>
      </trkpt>
      <trkpt lat="47.95431" lon="-2.56588">
        <ele>42.6</ele>
        <time>2021-08-08T08:43:56Z</time>
      </trkpt>
      <trkpt lat="47.95427" lon="-2.56591">
        <ele>42.6</ele>
        <time>2021-08-08T08:43:57Z</time>
      </trkpt>
      <trkpt lat="47.95423" lon="-2.56592">
        <ele>42.6</ele>
        <time>2021-08-08T08:43:58Z</time>
      </trkpt>
      <trkpt lat="47.95419" lon="-2.5659">
        <ele>42.6</ele>
        <time>2021-08-08T08:43:59Z</time>
      </trkpt>
      <trkpt lat="47.95416" lon="-2.56588">
        <ele>42.6</ele>
        <time>2021-08-08T08:44:00Z</time>
      </trkpt>
      <trkpt lat="47.95414" lon="-2.56587">
        <ele>42.6</ele>
        <time>2021-08-08T08:44:01Z</time>
      </trkpt>
      <trkpt lat="47.95413" lon="-2.56585">
        <ele>42.6</ele>
        <time>2021-08-08T08:44:02Z</time>
      </trkpt>
      <trkpt lat="47.95412" lon="-2.56582">
        <ele>43</ele>
        <time>2021-08-08T08:44:03Z</time>
      </trkpt>
      <trkpt lat="47.95411" lon="-2.5658">
        <ele>43</ele>
        <time>2021-08-08T08:44:04Z</time>
      </trkpt>
      <trkpt lat="47.95409" lon="-2.56578">
        <ele>43.2</ele>
        <time>2021-08-08T08:44:05Z</time>
      </trkpt>
      <trkpt lat="47.95406" lon="-2.56576">
        <ele>43.2</ele>
        <time>2021-08-08T08:44:06Z</time>
      </trkpt>
      <trkpt lat="47.95402" lon="-2.56575">
        <ele>43.2</ele>
        <time>2021-08-08T08:44:07Z</time>
      </trkpt>
      <trkpt lat="47.95398" lon="-2.56579">
        <ele>43.2</ele>
        <time>2021-08-08T08:44:08Z</time>
      </trkpt>
      <trkpt lat="47.95395" lon="-2.56584">
        <ele>43.2</ele>
        <time>2021-08-08T08:44:09Z</time>
      </trkpt>
      <trkpt lat="47.95394" lon="-2.5659">
        <ele>43.2</ele>
        <time>2021-08-08T08:44:10Z</time>
      </trkpt>
      <trkpt lat="47.95392" lon="-2.56597">
        <ele>43.2</ele>
        <time>2021-08-08T08:44:11Z</time>
      </trkpt>
      <trkpt lat="47.95391" lon="-2.56604">
        <ele>43.2</ele>
        <time>2021-08-08T08:44:12Z</time>
      </trkpt>
      <trkpt lat="47.95389" lon="-2.5661">
        <ele>43.2</ele>
        <time>2021-08-08T08:44:13Z</time>
      </trkpt>
      <trkpt lat="47.95388" lon="-2.56616">
        <ele>43.2</ele>
        <time>2021-08-08T08:44:14Z</time>
      </trkpt>
      <trkpt lat="47.95386" lon="-2.56622">
        <ele>42.8</ele>
        <time>2021-08-08T08:44:15Z</time>
      </trkpt>
      <trkpt lat="47.95385" lon="-2.56627">
        <ele>42.2</ele>
        <time>2021-08-08T08:44:16Z</time>
      </trkpt>
      <trkpt lat="47.95383" lon="-2.56633">
        <ele>42</ele>
        <time>2021-08-08T08:44:17Z</time>
      </trkpt>
      <trkpt lat="47.95382" lon="-2.5664">
        <ele>41.8</ele>
        <time>2021-08-08T08:44:18Z</time>
      </trkpt>
      <trkpt lat="47.9538" lon="-2.56647">
        <ele>41.6</ele>
        <time>2021-08-08T08:44:19Z</time>
      </trkpt>
      <trkpt lat="47.95379" lon="-2.56654">
        <ele>41.4</ele>
        <time>2021-08-08T08:44:20Z</time>
      </trkpt>
      <trkpt lat="47.95377" lon="-2.56661">
        <ele>41.2</ele>
        <time>2021-08-08T08:44:21Z</time>
      </trkpt>
      <trkpt lat="47.95376" lon="-2.56669">
        <ele>41</ele>
        <time>2021-08-08T08:44:22Z</time>
      </trkpt>
      <trkpt lat="47.95375" lon="-2.56677">
        <ele>40.8</ele>
        <time>2021-08-08T08:44:23Z</time>
      </trkpt>
      <trkpt lat="47.95374" lon="-2.56685">
        <ele>40.6</ele>
        <time>2021-08-08T08:44:24Z</time>
      </trkpt>
      <trkpt lat="47.95373" lon="-2.56693">
        <ele>40.4</ele>
        <time>2021-08-08T08:44:25Z</time>
      </trkpt>
      <trkpt lat="47.95373" lon="-2.56701">
        <ele>40.2</ele>
        <time>2021-08-08T08:44:26Z</time>
      </trkpt>
      <trkpt lat="47.95372" lon="-2.5671">
        <ele>40</ele>
        <time>2021-08-08T08:44:27Z</time>
      </trkpt>
      <trkpt lat="47.95372" lon="-2.56718">
        <ele>40</ele>
        <time>2021-08-08T08:44:28Z</time>
      </trkpt>
      <trkpt lat="47.95372" lon="-2.56726">
        <ele>40</ele>
        <time>2021-08-08T08:44:29Z</time>
      </trkpt>
      <trkpt lat="47.95371" lon="-2.56734">
        <ele>39.8</ele>
        <time>2021-08-08T08:44:30Z</time>
      </trkpt>
      <trkpt lat="47.95371" lon="-2.56742">
        <ele>39.8</ele>
        <time>2021-08-08T08:44:31Z</time>
      </trkpt>
      <trkpt lat="47.95371" lon="-2.5675">
        <ele>39.6</ele>
        <time>2021-08-08T08:44:32Z</time>
      </trkpt>
      <trkpt lat="47.9537" lon="-2.56758">
        <ele>39.6</ele>
        <time>2021-08-08T08:44:33Z</time>
      </trkpt>
      <trkpt lat="47.9537" lon="-2.56767">
        <ele>39.4</ele>
        <time>2021-08-08T08:44:34Z</time>
      </trkpt>
      <trkpt lat="47.9537" lon="-2.56775">
        <ele>39.2</ele>
        <time>2021-08-08T08:44:35Z</time>
      </trkpt>
      <trkpt lat="47.9537" lon="-2.56783">
        <ele>39.2</ele>
        <time>2021-08-08T08:44:36Z</time>
      </trkpt>
      <trkpt lat="47.9537" lon="-2.56791">
        <ele>39.2</ele>
        <time>2021-08-08T08:44:37Z</time>
      </trkpt>
      <trkpt lat="47.9537" lon="-2.56799">
        <ele>39.2</ele>
        <time>2021-08-08T08:44:38Z</time>
      </trkpt>
      <trkpt lat="47.9537" lon="-2.56807">
        <ele>39.2</ele>
        <time>2021-08-08T08:44:39Z</time>
      </trkpt>
      <trkpt lat="47.95369" lon="-2.56815">
        <ele>39.2</ele>
        <time>2021-08-08T08:44:40Z</time>
      </trkpt>
      <trkpt lat="47.95369" lon="-2.56823">
        <ele>39.2</ele>
        <time>2021-08-08T08:44:41Z</time>
      </trkpt>
      <trkpt lat="47.95369" lon="-2.5683">
        <ele>39.2</ele>
        <time>2021-08-08T08:44:42Z</time>
      </trkpt>
      <trkpt lat="47.95369" lon="-2.56839">
        <ele>39.2</ele>
        <time>2021-08-08T08:44:43Z</time>
      </trkpt>
      <trkpt lat="47.95369" lon="-2.56848">
        <ele>39.2</ele>
        <time>2021-08-08T08:44:44Z</time>
      </trkpt>
      <trkpt lat="47.95369" lon="-2.56857">
        <ele>39.2</ele>
        <time>2021-08-08T08:44:45Z</time>
      </trkpt>
      <trkpt lat="47.95368" lon="-2.56866">
        <ele>39</ele>
        <time>2021-08-08T08:44:46Z</time>
      </trkpt>
      <trkpt lat="47.95368" lon="-2.56874">
        <ele>39</ele>
        <time>2021-08-08T08:44:47Z</time>
      </trkpt>
      <trkpt lat="47.95368" lon="-2.56883">
        <ele>39.2</ele>
        <time>2021-08-08T08:44:48Z</time>
      </trkpt>
      <trkpt lat="47.95367" lon="-2.56892">
        <ele>39.2</ele>
        <time>2021-08-08T08:44:49Z</time>
      </trkpt>
      <trkpt lat="47.95367" lon="-2.56901">
        <ele>39.2</ele>
        <time>2021-08-08T08:44:50Z</time>
      </trkpt>
      <trkpt lat="47.95366" lon="-2.5691">
        <ele>39.2</ele>
        <time>2021-08-08T08:44:51Z</time>
      </trkpt>
      <trkpt lat="47.95365" lon="-2.56919">
        <ele>39.2</ele>
        <time>2021-08-08T08:44:52Z</time>
      </trkpt>
      <trkpt lat="47.95364" lon="-2.56927">
        <ele>39.2</ele>
        <time>2021-08-08T08:44:53Z</time>
      </trkpt>
      <trkpt lat="47.95363" lon="-2.56935">
        <ele>39.2</ele>
        <time>2021-08-08T08:44:54Z</time>
      </trkpt>
      <trkpt lat="47.95362" lon="-2.56941">
        <ele>39.4</ele>
        <time>2021-08-08T08:44:55Z</time>
      </trkpt>
      <trkpt lat="47.9536" lon="-2.56948">
        <ele>39.4</ele>
        <time>2021-08-08T08:44:56Z</time>
      </trkpt>
      <trkpt lat="47.95359" lon="-2.56954">
        <ele>39.4</ele>
        <time>2021-08-08T08:44:57Z</time>
      </trkpt>
      <trkpt lat="47.95358" lon="-2.56961">
        <ele>39.6</ele>
        <time>2021-08-08T08:44:58Z</time>
      </trkpt>
      <trkpt lat="47.95357" lon="-2.56968">
        <ele>39.8</ele>
        <time>2021-08-08T08:44:59Z</time>
      </trkpt>
      <trkpt lat="47.95356" lon="-2.56975">
        <ele>39.8</ele>
        <time>2021-08-08T08:45:00Z</time>
      </trkpt>
      <trkpt lat="47.95355" lon="-2.56981">
        <ele>40.2</ele>
        <time>2021-08-08T08:45:01Z</time>
      </trkpt>
      <trkpt lat="47.95354" lon="-2.56988">
        <ele>40.2</ele>
        <time>2021-08-08T08:45:02Z</time>
      </trkpt>
      <trkpt lat="47.95353" lon="-2.56996">
        <ele>40.4</ele>
        <time>2021-08-08T08:45:03Z</time>
      </trkpt>
      <trkpt lat="47.95352" lon="-2.57002">
        <ele>40.4</ele>
        <time>2021-08-08T08:45:04Z</time>
      </trkpt>
      <trkpt lat="47.95351" lon="-2.57009">
        <ele>40.4</ele>
        <time>2021-08-08T08:45:05Z</time>
      </trkpt>
      <trkpt lat="47.9535" lon="-2.57015">
        <ele>40.4</ele>
        <time>2021-08-08T08:45:06Z</time>
      </trkpt>
      <trkpt lat="47.95349" lon="-2.57022">
        <ele>40.6</ele>
        <time>2021-08-08T08:45:07Z</time>
      </trkpt>
      <trkpt lat="47.95347" lon="-2.5703">
        <ele>40.6</ele>
        <time>2021-08-08T08:45:08Z</time>
      </trkpt>
      <trkpt lat="47.95346" lon="-2.57037">
        <ele>40.6</ele>
        <time>2021-08-08T08:45:09Z</time>
      </trkpt>
      <trkpt lat="47.95345" lon="-2.57044">
        <ele>40.6</ele>
        <time>2021-08-08T08:45:10Z</time>
      </trkpt>
      <trkpt lat="47.95343" lon="-2.57051">
        <ele>40.6</ele>
        <time>2021-08-08T08:45:11Z</time>
      </trkpt>
      <trkpt lat="47.95342" lon="-2.57058">
        <ele>40.6</ele>
        <time>2021-08-08T08:45:12Z</time>
      </trkpt>
      <trkpt lat="47.95341" lon="-2.57066">
        <ele>40.6</ele>
        <time>2021-08-08T08:45:13Z</time>
      </trkpt>
      <trkpt lat="47.9534" lon="-2.57073">
        <ele>40.6</ele>
        <time>2021-08-08T08:45:14Z</time>
      </trkpt>
      <trkpt lat="47.95339" lon="-2.5708">
        <ele>40.6</ele>
        <time>2021-08-08T08:45:15Z</time>
      </trkpt>
      <trkpt lat="47.95338" lon="-2.57087">
        <ele>40.6</ele>
        <time>2021-08-08T08:45:16Z</time>
      </trkpt>
      <trkpt lat="47.95337" lon="-2.57095">
        <ele>40.4</ele>
        <time>2021-08-08T08:45:17Z</time>
      </trkpt>
      <trkpt lat="47.95336" lon="-2.57102">
        <ele>40.4</ele>
        <time>2021-08-08T08:45:18Z</time>
      </trkpt>
      <trkpt lat="47.95335" lon="-2.5711">
        <ele>40.4</ele>
        <time>2021-08-08T08:45:19Z</time>
      </trkpt>
      <trkpt lat="47.95335" lon="-2.57118">
        <ele>40.4</ele>
        <time>2021-08-08T08:45:20Z</time>
      </trkpt>
      <trkpt lat="47.95334" lon="-2.57125">
        <ele>40.4</ele>
        <time>2021-08-08T08:45:21Z</time>
      </trkpt>
      <trkpt lat="47.95334" lon="-2.57133">
        <ele>40.4</ele>
        <time>2021-08-08T08:45:22Z</time>
      </trkpt>
      <trkpt lat="47.95333" lon="-2.5714">
        <ele>40.4</ele>
        <time>2021-08-08T08:45:23Z</time>
      </trkpt>
      <trkpt lat="47.95332" lon="-2.57149">
        <ele>40.4</ele>
        <time>2021-08-08T08:45:24Z</time>
      </trkpt>
      <trkpt lat="47.95332" lon="-2.57157">
        <ele>40.4</ele>
        <time>2021-08-08T08:45:25Z</time>
      </trkpt>
      <trkpt lat="47.95331" lon="-2.57165">
        <ele>40.4</ele>
        <time>2021-08-08T08:45:26Z</time>
      </trkpt>
      <trkpt lat="47.95331" lon="-2.57173">
        <ele>40.4</ele>
        <time>2021-08-08T08:45:27Z</time>
      </trkpt>
      <trkpt lat="47.9533" lon="-2.57181">
        <ele>40.4</ele>
        <time>2021-08-08T08:45:28Z</time>
      </trkpt>
      <trkpt lat="47.9533" lon="-2.57188">
        <ele>40.4</ele>
        <time>2021-08-08T08:45:29Z</time>
      </trkpt>
      <trkpt lat="47.95329" lon="-2.57195">
        <ele>40.4</ele>
        <time>2021-08-08T08:45:30Z</time>
      </trkpt>
      <trkpt lat="47.95329" lon="-2.57202">
        <ele>40.4</ele>
        <time>2021-08-08T08:45:31Z</time>
      </trkpt>
      <trkpt lat="47.95328" lon="-2.5721">
        <ele>40.4</ele>
        <time>2021-08-08T08:45:32Z</time>
      </trkpt>
      <trkpt lat="47.95328" lon="-2.57217">
        <ele>40.4</ele>
        <time>2021-08-08T08:45:33Z</time>
      </trkpt>
      <trkpt lat="47.95327" lon="-2.57225">
        <ele>40.4</ele>
        <time>2021-08-08T08:45:34Z</time>
      </trkpt>
      <trkpt lat="47.95327" lon="-2.57233">
        <ele>40.4</ele>
        <time>2021-08-08T08:45:35Z</time>
      </trkpt>
      <trkpt lat="47.95325" lon="-2.5724">
        <ele>40.4</ele>
        <time>2021-08-08T08:45:36Z</time>
      </trkpt>
      <trkpt lat="47.95324" lon="-2.57248">
        <ele>40.6</ele>
        <time>2021-08-08T08:45:37Z</time>
      </trkpt>
      <trkpt lat="47.95323" lon="-2.57255">
        <ele>40.6</ele>
        <time>2021-08-08T08:45:38Z</time>
      </trkpt>
      <trkpt lat="47.95322" lon="-2.57263">
        <ele>40.6</ele>
        <time>2021-08-08T08:45:39Z</time>
      </trkpt>
      <trkpt lat="47.95321" lon="-2.57271">
        <ele>40.4</ele>
        <time>2021-08-08T08:45:40Z</time>
      </trkpt>
      <trkpt lat="47.95321" lon="-2.57278">
        <ele>40.6</ele>
        <time>2021-08-08T08:45:41Z</time>
      </trkpt>
      <trkpt lat="47.95319" lon="-2.57286">
        <ele>40.6</ele>
        <time>2021-08-08T08:45:42Z</time>
      </trkpt>
      <trkpt lat="47.95318" lon="-2.57293">
        <ele>40.6</ele>
        <time>2021-08-08T08:45:43Z</time>
      </trkpt>
      <trkpt lat="47.95317" lon="-2.57301">
        <ele>40.6</ele>
        <time>2021-08-08T08:45:44Z</time>
      </trkpt>
      <trkpt lat="47.95316" lon="-2.57308">
        <ele>40.6</ele>
        <time>2021-08-08T08:45:45Z</time>
      </trkpt>
      <trkpt lat="47.95315" lon="-2.57315">
        <ele>40.6</ele>
        <time>2021-08-08T08:45:46Z</time>
      </trkpt>
      <trkpt lat="47.95313" lon="-2.57321">
        <ele>40.6</ele>
        <time>2021-08-08T08:45:47Z</time>
      </trkpt>
      <trkpt lat="47.95312" lon="-2.57328">
        <ele>40.6</ele>
        <time>2021-08-08T08:45:48Z</time>
      </trkpt>
      <trkpt lat="47.9531" lon="-2.57336">
        <ele>40.6</ele>
        <time>2021-08-08T08:45:49Z</time>
      </trkpt>
      <trkpt lat="47.95309" lon="-2.57343">
        <ele>40.6</ele>
        <time>2021-08-08T08:45:50Z</time>
      </trkpt>
      <trkpt lat="47.95307" lon="-2.57349">
        <ele>40.6</ele>
        <time>2021-08-08T08:45:51Z</time>
      </trkpt>
      <trkpt lat="47.95305" lon="-2.57356">
        <ele>40.6</ele>
        <time>2021-08-08T08:45:52Z</time>
      </trkpt>
      <trkpt lat="47.95304" lon="-2.57363">
        <ele>40.6</ele>
        <time>2021-08-08T08:45:53Z</time>
      </trkpt>
      <trkpt lat="47.95303" lon="-2.5737">
        <ele>40.4</ele>
        <time>2021-08-08T08:45:54Z</time>
      </trkpt>
      <trkpt lat="47.95302" lon="-2.57377">
        <ele>40.4</ele>
        <time>2021-08-08T08:45:55Z</time>
      </trkpt>
      <trkpt lat="47.95301" lon="-2.57384">
        <ele>40.4</ele>
        <time>2021-08-08T08:45:56Z</time>
      </trkpt>
      <trkpt lat="47.953" lon="-2.57392">
        <ele>40.4</ele>
        <time>2021-08-08T08:45:57Z</time>
      </trkpt>
      <trkpt lat="47.95299" lon="-2.57399">
        <ele>40.4</ele>
        <time>2021-08-08T08:45:58Z</time>
      </trkpt>
      <trkpt lat="47.95298" lon="-2.57406">
        <ele>40.4</ele>
        <time>2021-08-08T08:45:59Z</time>
      </trkpt>
      <trkpt lat="47.95298" lon="-2.57413">
        <ele>40.4</ele>
        <time>2021-08-08T08:46:00Z</time>
      </trkpt>
      <trkpt lat="47.95298" lon="-2.5742">
        <ele>40.4</ele>
        <time>2021-08-08T08:46:01Z</time>
      </trkpt>
      <trkpt lat="47.95299" lon="-2.57427">
        <ele>40.6</ele>
        <time>2021-08-08T08:46:02Z</time>
      </trkpt>
      <trkpt lat="47.95299" lon="-2.57433">
        <ele>40.6</ele>
        <time>2021-08-08T08:46:03Z</time>
      </trkpt>
      <trkpt lat="47.953" lon="-2.5744">
        <ele>40.6</ele>
        <time>2021-08-08T08:46:04Z</time>
      </trkpt>
      <trkpt lat="47.95301" lon="-2.57446">
        <ele>40.6</ele>
        <time>2021-08-08T08:46:05Z</time>
      </trkpt>
      <trkpt lat="47.95302" lon="-2.57452">
        <ele>40.6</ele>
        <time>2021-08-08T08:46:06Z</time>
      </trkpt>
      <trkpt lat="47.95303" lon="-2.57457">
        <ele>40.6</ele>
        <time>2021-08-08T08:46:07Z</time>
      </trkpt>
      <trkpt lat="47.95304" lon="-2.57462">
        <ele>40.6</ele>
        <time>2021-08-08T08:46:08Z</time>
      </trkpt>
      <trkpt lat="47.95305" lon="-2.57467">
        <ele>40.8</ele>
        <time>2021-08-08T08:46:09Z</time>
      </trkpt>
      <trkpt lat="47.95306" lon="-2.57472">
        <ele>41.2</ele>
        <time>2021-08-08T08:46:10Z</time>
      </trkpt>
      <trkpt lat="47.95308" lon="-2.57475">
        <ele>41.4</ele>
        <time>2021-08-08T08:46:11Z</time>
      </trkpt>
      <trkpt lat="47.9531" lon="-2.57477">
        <ele>41.6</ele>
        <time>2021-08-08T08:46:12Z</time>
      </trkpt>
      <trkpt lat="47.95312" lon="-2.57478">
        <ele>41.8</ele>
        <time>2021-08-08T08:46:13Z</time>
      </trkpt>
      <trkpt lat="47.95314" lon="-2.57478">
        <ele>42.2</ele>
        <time>2021-08-08T08:46:14Z</time>
      </trkpt>
      <trkpt lat="47.95315" lon="-2.57478">
        <ele>42.4</ele>
        <time>2021-08-08T08:46:15Z</time>
      </trkpt>
      <trkpt lat="47.95317" lon="-2.57478">
        <ele>42.4</ele>
        <time>2021-08-08T08:46:16Z</time>
      </trkpt>
      <trkpt lat="47.95318" lon="-2.57477">
        <ele>42.4</ele>
        <time>2021-08-08T08:46:17Z</time>
      </trkpt>
      <trkpt lat="47.95319" lon="-2.57477">
        <ele>42.6</ele>
        <time>2021-08-08T08:46:18Z</time>
      </trkpt>
      <trkpt lat="47.95319" lon="-2.57477">
        <ele>43</ele>
        <time>2021-08-08T08:46:19Z</time>
      </trkpt>
      <trkpt lat="47.95319" lon="-2.57476">
        <ele>43.4</ele>
        <time>2021-08-08T08:46:20Z</time>
      </trkpt>
      <trkpt lat="47.95319" lon="-2.57476">
        <ele>43.6</ele>
        <time>2021-08-08T08:46:21Z</time>
      </trkpt>
      <trkpt lat="47.95319" lon="-2.57476">
        <ele>43.6</ele>
        <time>2021-08-08T08:46:22Z</time>
      </trkpt>
      <trkpt lat="47.9532" lon="-2.57476">
        <ele>43.6</ele>
        <time>2021-08-08T08:46:23Z</time>
      </trkpt>
      <trkpt lat="47.95319" lon="-2.57476">
        <ele>43.4</ele>
        <time>2021-08-08T08:46:33Z</time>
      </trkpt>
      <trkpt lat="47.95319" lon="-2.57476">
        <ele>43.4</ele>
        <time>2021-08-08T08:46:34Z</time>
      </trkpt>
      <trkpt lat="47.95319" lon="-2.57476">
        <ele>43.4</ele>
        <time>2021-08-08T08:46:35Z</time>
      </trkpt>
      <trkpt lat="47.95323" lon="-2.57476">
        <ele>43.4</ele>
        <time>2021-08-08T08:54:13Z</time>
      </trkpt>
      <trkpt lat="47.95326" lon="-2.57476">
        <ele>43.4</ele>
        <time>2021-08-08T08:54:14Z</time>
      </trkpt>
      <trkpt lat="47.95329" lon="-2.57477">
        <ele>43.4</ele>
        <time>2021-08-08T08:54:15Z</time>
      </trkpt>
      <trkpt lat="47.95331" lon="-2.5748">
        <ele>43.4</ele>
        <time>2021-08-08T08:54:16Z</time>
      </trkpt>
      <trkpt lat="47.95332" lon="-2.57484">
        <ele>43.4</ele>
        <time>2021-08-08T08:54:17Z</time>
      </trkpt>
      <trkpt lat="47.95334" lon="-2.57487">
        <ele>43.4</ele>
        <time>2021-08-08T08:54:18Z</time>
      </trkpt>
      <trkpt lat="47.95336" lon="-2.57491">
        <ele>43.4</ele>
        <time>2021-08-08T08:54:19Z</time>
      </trkpt>
      <trkpt lat="47.95337" lon="-2.57495">
        <ele>43.2</ele>
        <time>2021-08-08T08:54:20Z</time>
      </trkpt>
      <trkpt lat="47.95338" lon="-2.57498">
        <ele>43.2</ele>
        <time>2021-08-08T08:54:21Z</time>
      </trkpt>
      <trkpt lat="47.9534" lon="-2.575">
        <ele>42.6</ele>
        <time>2021-08-08T08:54:22Z</time>
      </trkpt>
      <trkpt lat="47.95342" lon="-2.57502">
        <ele>42.4</ele>
        <time>2021-08-08T08:54:23Z</time>
      </trkpt>
      <trkpt lat="47.95341" lon="-2.57506">
        <ele>42.2</ele>
        <time>2021-08-08T08:54:24Z</time>
      </trkpt>
      <trkpt lat="47.95342" lon="-2.57512">
        <ele>42</ele>
        <time>2021-08-08T08:54:25Z</time>
      </trkpt>
      <trkpt lat="47.95341" lon="-2.57518">
        <ele>42</ele>
        <time>2021-08-08T08:54:26Z</time>
      </trkpt>
      <trkpt lat="47.95339" lon="-2.57522">
        <ele>42</ele>
        <time>2021-08-08T08:54:27Z</time>
      </trkpt>
      <trkpt lat="47.95338" lon="-2.57524">
        <ele>42</ele>
        <time>2021-08-08T08:54:28Z</time>
      </trkpt>
      <trkpt lat="47.95338" lon="-2.57527">
        <ele>42</ele>
        <time>2021-08-08T08:54:29Z</time>
      </trkpt>
      <trkpt lat="47.95337" lon="-2.57529">
        <ele>42</ele>
        <time>2021-08-08T08:54:30Z</time>
      </trkpt>
      <trkpt lat="47.95335" lon="-2.57531">
        <ele>42</ele>
        <time>2021-08-08T08:54:31Z</time>
      </trkpt>
      <trkpt lat="47.95333" lon="-2.57533">
        <ele>42</ele>
        <time>2021-08-08T08:54:32Z</time>
      </trkpt>
      <trkpt lat="47.95331" lon="-2.57534">
        <ele>42</ele>
        <time>2021-08-08T08:54:33Z</time>
      </trkpt>
      <trkpt lat="47.9533" lon="-2.57535">
        <ele>42.2</ele>
        <time>2021-08-08T08:54:34Z</time>
      </trkpt>
      <trkpt lat="47.95329" lon="-2.57537">
        <ele>42.2</ele>
        <time>2021-08-08T08:54:35Z</time>
      </trkpt>
      <trkpt lat="47.95327" lon="-2.57538">
        <ele>42.4</ele>
        <time>2021-08-08T08:54:36Z</time>
      </trkpt>
      <trkpt lat="47.95326" lon="-2.57538">
        <ele>43</ele>
        <time>2021-08-08T08:54:37Z</time>
      </trkpt>
      <trkpt lat="47.95325" lon="-2.57539">
        <ele>43.2</ele>
        <time>2021-08-08T08:54:38Z</time>
      </trkpt>
      <trkpt lat="47.95324" lon="-2.57539">
        <ele>43.4</ele>
        <time>2021-08-08T08:54:39Z</time>
      </trkpt>
      <trkpt lat="47.95323" lon="-2.57541">
        <ele>43.4</ele>
        <time>2021-08-08T08:54:40Z</time>
      </trkpt>
      <trkpt lat="47.95323" lon="-2.57543">
        <ele>43.8</ele>
        <time>2021-08-08T08:54:41Z</time>
      </trkpt>
      <trkpt lat="47.95322" lon="-2.57546">
        <ele>44</ele>
        <time>2021-08-08T08:54:42Z</time>
      </trkpt>
      <trkpt lat="47.95322" lon="-2.5755">
        <ele>44</ele>
        <time>2021-08-08T08:54:43Z</time>
      </trkpt>
      <trkpt lat="47.95322" lon="-2.57555">
        <ele>44</ele>
        <time>2021-08-08T08:54:44Z</time>
      </trkpt>
      <trkpt lat="47.95323" lon="-2.57561">
        <ele>44</ele>
        <time>2021-08-08T08:54:45Z</time>
      </trkpt>
      <trkpt lat="47.95325" lon="-2.57566">
        <ele>44.2</ele>
        <time>2021-08-08T08:54:46Z</time>
      </trkpt>
      <trkpt lat="47.95327" lon="-2.57572">
        <ele>44.2</ele>
        <time>2021-08-08T08:54:47Z</time>
      </trkpt>
      <trkpt lat="47.95328" lon="-2.57578">
        <ele>44.2</ele>
        <time>2021-08-08T08:54:48Z</time>
      </trkpt>
      <trkpt lat="47.95329" lon="-2.57584">
        <ele>44.2</ele>
        <time>2021-08-08T08:54:49Z</time>
      </trkpt>
      <trkpt lat="47.9533" lon="-2.5759">
        <ele>44.2</ele>
        <time>2021-08-08T08:54:50Z</time>
      </trkpt>
      <trkpt lat="47.95331" lon="-2.57595">
        <ele>44</ele>
        <time>2021-08-08T08:54:51Z</time>
      </trkpt>
      <trkpt lat="47.95333" lon="-2.57601">
        <ele>43.6</ele>
        <time>2021-08-08T08:54:52Z</time>
      </trkpt>
      <trkpt lat="47.95334" lon="-2.57606">
        <ele>43.2</ele>
        <time>2021-08-08T08:54:53Z</time>
      </trkpt>
      <trkpt lat="47.95335" lon="-2.57612">
        <ele>43</ele>
        <time>2021-08-08T08:54:54Z</time>
      </trkpt>
      <trkpt lat="47.95336" lon="-2.57617">
        <ele>43</ele>
        <time>2021-08-08T08:54:55Z</time>
      </trkpt>
      <trkpt lat="47.95338" lon="-2.57623">
        <ele>42.8</ele>
        <time>2021-08-08T08:54:56Z</time>
      </trkpt>
      <trkpt lat="47.95339" lon="-2.57628">
        <ele>42.8</ele>
        <time>2021-08-08T08:54:57Z</time>
      </trkpt>
      <trkpt lat="47.9534" lon="-2.57634">
        <ele>42.8</ele>
        <time>2021-08-08T08:54:58Z</time>
      </trkpt>
      <trkpt lat="47.95341" lon="-2.5764">
        <ele>42.8</ele>
        <time>2021-08-08T08:54:59Z</time>
      </trkpt>
      <trkpt lat="47.95342" lon="-2.57645">
        <ele>42.8</ele>
        <time>2021-08-08T08:55:00Z</time>
      </trkpt>
      <trkpt lat="47.95344" lon="-2.5765">
        <ele>42.8</ele>
        <time>2021-08-08T08:55:01Z</time>
      </trkpt>
      <trkpt lat="47.95345" lon="-2.57656">
        <ele>42.8</ele>
        <time>2021-08-08T08:55:02Z</time>
      </trkpt>
      <trkpt lat="47.95347" lon="-2.57661">
        <ele>42.6</ele>
        <time>2021-08-08T08:55:03Z</time>
      </trkpt>
      <trkpt lat="47.95348" lon="-2.57667">
        <ele>42.4</ele>
        <time>2021-08-08T08:55:04Z</time>
      </trkpt>
      <trkpt lat="47.95349" lon="-2.57672">
        <ele>42.4</ele>
        <time>2021-08-08T08:55:05Z</time>
      </trkpt>
      <trkpt lat="47.9535" lon="-2.57678">
        <ele>42.2</ele>
        <time>2021-08-08T08:55:06Z</time>
      </trkpt>
      <trkpt lat="47.95352" lon="-2.57684">
        <ele>42.2</ele>
        <time>2021-08-08T08:55:07Z</time>
      </trkpt>
      <trkpt lat="47.95353" lon="-2.57689">
        <ele>42</ele>
        <time>2021-08-08T08:55:08Z</time>
      </trkpt>
      <trkpt lat="47.95355" lon="-2.57695">
        <ele>42</ele>
        <time>2021-08-08T08:55:09Z</time>
      </trkpt>
      <trkpt lat="47.95356" lon="-2.57701">
        <ele>42.2</ele>
        <time>2021-08-08T08:55:10Z</time>
      </trkpt>
      <trkpt lat="47.95357" lon="-2.57707">
        <ele>42.2</ele>
        <time>2021-08-08T08:55:11Z</time>
      </trkpt>
      <trkpt lat="47.95358" lon="-2.57712">
        <ele>42.2</ele>
        <time>2021-08-08T08:55:12Z</time>
      </trkpt>
      <trkpt lat="47.95359" lon="-2.57718">
        <ele>42.2</ele>
        <time>2021-08-08T08:55:13Z</time>
      </trkpt>
      <trkpt lat="47.9536" lon="-2.57724">
        <ele>42</ele>
        <time>2021-08-08T08:55:14Z</time>
      </trkpt>
      <trkpt lat="47.95361" lon="-2.5773">
        <ele>42</ele>
        <time>2021-08-08T08:55:15Z</time>
      </trkpt>
      <trkpt lat="47.95363" lon="-2.57736">
        <ele>42</ele>
        <time>2021-08-08T08:55:16Z</time>
      </trkpt>
      <trkpt lat="47.95365" lon="-2.57741">
        <ele>42</ele>
        <time>2021-08-08T08:55:17Z</time>
      </trkpt>
      <trkpt lat="47.95366" lon="-2.57747">
        <ele>42</ele>
        <time>2021-08-08T08:55:18Z</time>
      </trkpt>
      <trkpt lat="47.95367" lon="-2.57754">
        <ele>42</ele>
        <time>2021-08-08T08:55:19Z</time>
      </trkpt>
      <trkpt lat="47.95369" lon="-2.57761">
        <ele>42</ele>
        <time>2021-08-08T08:55:20Z</time>
      </trkpt>
      <trkpt lat="47.9537" lon="-2.57767">
        <ele>42</ele>
        <time>2021-08-08T08:55:21Z</time>
      </trkpt>
      <trkpt lat="47.95371" lon="-2.57774">
        <ele>42</ele>
        <time>2021-08-08T08:55:22Z</time>
      </trkpt>
      <trkpt lat="47.95373" lon="-2.57781">
        <ele>42.2</ele>
        <time>2021-08-08T08:55:23Z</time>
      </trkpt>
      <trkpt lat="47.95374" lon="-2.57788">
        <ele>42.2</ele>
        <time>2021-08-08T08:55:24Z</time>
      </trkpt>
      <trkpt lat="47.95375" lon="-2.57795">
        <ele>42.2</ele>
        <time>2021-08-08T08:55:25Z</time>
      </trkpt>
      <trkpt lat="47.95377" lon="-2.57802">
        <ele>42.2</ele>
        <time>2021-08-08T08:55:26Z</time>
      </trkpt>
      <trkpt lat="47.95378" lon="-2.5781">
        <ele>42.2</ele>
        <time>2021-08-08T08:55:27Z</time>
      </trkpt>
      <trkpt lat="47.9538" lon="-2.57818">
        <ele>42.4</ele>
        <time>2021-08-08T08:55:28Z</time>
      </trkpt>
      <trkpt lat="47.95382" lon="-2.57825">
        <ele>42.8</ele>
        <time>2021-08-08T08:55:29Z</time>
      </trkpt>
      <trkpt lat="47.95383" lon="-2.57833">
        <ele>42.8</ele>
        <time>2021-08-08T08:55:30Z</time>
      </trkpt>
      <trkpt lat="47.95386" lon="-2.57841">
        <ele>42.8</ele>
        <time>2021-08-08T08:55:31Z</time>
      </trkpt>
      <trkpt lat="47.95388" lon="-2.57848">
        <ele>43</ele>
        <time>2021-08-08T08:55:32Z</time>
      </trkpt>
      <trkpt lat="47.9539" lon="-2.57856">
        <ele>43</ele>
        <time>2021-08-08T08:55:33Z</time>
      </trkpt>
      <trkpt lat="47.95392" lon="-2.57863">
        <ele>43.2</ele>
        <time>2021-08-08T08:55:34Z</time>
      </trkpt>
      <trkpt lat="47.95395" lon="-2.57869">
        <ele>43.4</ele>
        <time>2021-08-08T08:55:35Z</time>
      </trkpt>
      <trkpt lat="47.95398" lon="-2.57875">
        <ele>43.6</ele>
        <time>2021-08-08T08:55:36Z</time>
      </trkpt>
      <trkpt lat="47.95401" lon="-2.57882">
        <ele>43.6</ele>
        <time>2021-08-08T08:55:37Z</time>
      </trkpt>
      <trkpt lat="47.95404" lon="-2.57888">
        <ele>43.8</ele>
        <time>2021-08-08T08:55:38Z</time>
      </trkpt>
      <trkpt lat="47.95407" lon="-2.57894">
        <ele>43.8</ele>
        <time>2021-08-08T08:55:39Z</time>
      </trkpt>
      <trkpt lat="47.9541" lon="-2.57901">
        <ele>43.8</ele>
        <time>2021-08-08T08:55:40Z</time>
      </trkpt>
      <trkpt lat="47.95413" lon="-2.57907">
        <ele>43.8</ele>
        <time>2021-08-08T08:55:41Z</time>
      </trkpt>
      <trkpt lat="47.95416" lon="-2.57913">
        <ele>43.8</ele>
        <time>2021-08-08T08:55:42Z</time>
      </trkpt>
      <trkpt lat="47.95419" lon="-2.5792">
        <ele>43.8</ele>
        <time>2021-08-08T08:55:43Z</time>
      </trkpt>
      <trkpt lat="47.95422" lon="-2.57926">
        <ele>43.8</ele>
        <time>2021-08-08T08:55:44Z</time>
      </trkpt>
      <trkpt lat="47.95426" lon="-2.57932">
        <ele>44</ele>
        <time>2021-08-08T08:55:45Z</time>
      </trkpt>
      <trkpt lat="47.9543" lon="-2.57938">
        <ele>44</ele>
        <time>2021-08-08T08:55:46Z</time>
      </trkpt>
      <trkpt lat="47.95433" lon="-2.57943">
        <ele>44</ele>
        <time>2021-08-08T08:55:47Z</time>
      </trkpt>
      <trkpt lat="47.95437" lon="-2.57949">
        <ele>44</ele>
        <time>2021-08-08T08:55:48Z</time>
      </trkpt>
      <trkpt lat="47.9544" lon="-2.57955">
        <ele>44</ele>
        <time>2021-08-08T08:55:49Z</time>
      </trkpt>
      <trkpt lat="47.95444" lon="-2.57961">
        <ele>44.2</ele>
        <time>2021-08-08T08:55:50Z</time>
      </trkpt>
      <trkpt lat="47.95448" lon="-2.57968">
        <ele>44.2</ele>
        <time>2021-08-08T08:55:51Z</time>
      </trkpt>
      <trkpt lat="47.95452" lon="-2.57973">
        <ele>44.2</ele>
        <time>2021-08-08T08:55:52Z</time>
      </trkpt>
      <trkpt lat="47.95456" lon="-2.57979">
        <ele>44.2</ele>
        <time>2021-08-08T08:55:53Z</time>
      </trkpt>
      <trkpt lat="47.95459" lon="-2.57986">
        <ele>44.2</ele>
        <time>2021-08-08T08:55:54Z</time>
      </trkpt>
      <trkpt lat="47.95463" lon="-2.57992">
        <ele>44.2</ele>
        <time>2021-08-08T08:55:55Z</time>
      </trkpt>
      <trkpt lat="47.95467" lon="-2.57998">
        <ele>44.2</ele>
        <time>2021-08-08T08:55:56Z</time>
      </trkpt>
      <trkpt lat="47.95471" lon="-2.58003">
        <ele>44.2</ele>
        <time>2021-08-08T08:55:57Z</time>
      </trkpt>
      <trkpt lat="47.95475" lon="-2.58009">
        <ele>44.2</ele>
        <time>2021-08-08T08:55:58Z</time>
      </trkpt>
      <trkpt lat="47.95478" lon="-2.58015">
        <ele>44.2</ele>
        <time>2021-08-08T08:55:59Z</time>
      </trkpt>
      <trkpt lat="47.95482" lon="-2.5802">
        <ele>44.2</ele>
        <time>2021-08-08T08:56:00Z</time>
      </trkpt>
      <trkpt lat="47.95485" lon="-2.58026">
        <ele>44</ele>
        <time>2021-08-08T08:56:01Z</time>
      </trkpt>
      <trkpt lat="47.95489" lon="-2.58032">
        <ele>43.8</ele>
        <time>2021-08-08T08:56:02Z</time>
      </trkpt>
      <trkpt lat="47.95493" lon="-2.58039">
        <ele>43.6</ele>
        <time>2021-08-08T08:56:03Z</time>
      </trkpt>
      <trkpt lat="47.95497" lon="-2.58045">
        <ele>43.6</ele>
        <time>2021-08-08T08:56:04Z</time>
      </trkpt>
      <trkpt lat="47.95501" lon="-2.58052">
        <ele>43.4</ele>
        <time>2021-08-08T08:56:05Z</time>
      </trkpt>
      <trkpt lat="47.95504" lon="-2.58058">
        <ele>43.4</ele>
        <time>2021-08-08T08:56:06Z</time>
      </trkpt>
      <trkpt lat="47.95508" lon="-2.58064">
        <ele>43.4</ele>
        <time>2021-08-08T08:56:07Z</time>
      </trkpt>
      <trkpt lat="47.95512" lon="-2.5807">
        <ele>43.4</ele>
        <time>2021-08-08T08:56:08Z</time>
      </trkpt>
      <trkpt lat="47.95515" lon="-2.58076">
        <ele>43.4</ele>
        <time>2021-08-08T08:56:09Z</time>
      </trkpt>
      <trkpt lat="47.95519" lon="-2.58081">
        <ele>43.4</ele>
        <time>2021-08-08T08:56:10Z</time>
      </trkpt>
      <trkpt lat="47.95523" lon="-2.58085">
        <ele>43.4</ele>
        <time>2021-08-08T08:56:11Z</time>
      </trkpt>
      <trkpt lat="47.95527" lon="-2.58089">
        <ele>43.4</ele>
        <time>2021-08-08T08:56:12Z</time>
      </trkpt>
      <trkpt lat="47.9553" lon="-2.58094">
        <ele>43.4</ele>
        <time>2021-08-08T08:56:13Z</time>
      </trkpt>
      <trkpt lat="47.95534" lon="-2.58099">
        <ele>43.4</ele>
        <time>2021-08-08T08:56:14Z</time>
      </trkpt>
      <trkpt lat="47.95537" lon="-2.58105">
        <ele>43.4</ele>
        <time>2021-08-08T08:56:15Z</time>
      </trkpt>
      <trkpt lat="47.9554" lon="-2.5811">
        <ele>43.6</ele>
        <time>2021-08-08T08:56:16Z</time>
      </trkpt>
      <trkpt lat="47.95543" lon="-2.58116">
        <ele>43.6</ele>
        <time>2021-08-08T08:56:17Z</time>
      </trkpt>
      <trkpt lat="47.95547" lon="-2.5812">
        <ele>43.6</ele>
        <time>2021-08-08T08:56:18Z</time>
      </trkpt>
      <trkpt lat="47.95551" lon="-2.58126">
        <ele>43.4</ele>
        <time>2021-08-08T08:56:19Z</time>
      </trkpt>
      <trkpt lat="47.95555" lon="-2.58132">
        <ele>43.4</ele>
        <time>2021-08-08T08:56:20Z</time>
      </trkpt>
      <trkpt lat="47.95558" lon="-2.58137">
        <ele>43.4</ele>
        <time>2021-08-08T08:56:21Z</time>
      </trkpt>
      <trkpt lat="47.95562" lon="-2.58143">
        <ele>43.6</ele>
        <time>2021-08-08T08:56:22Z</time>
      </trkpt>
      <trkpt lat="47.95566" lon="-2.58149">
        <ele>43.4</ele>
        <time>2021-08-08T08:56:23Z</time>
      </trkpt>
      <trkpt lat="47.95569" lon="-2.58154">
        <ele>43.2</ele>
        <time>2021-08-08T08:56:24Z</time>
      </trkpt>
      <trkpt lat="47.95573" lon="-2.5816">
        <ele>43.2</ele>
        <time>2021-08-08T08:56:25Z</time>
      </trkpt>
      <trkpt lat="47.95576" lon="-2.58165">
        <ele>43.2</ele>
        <time>2021-08-08T08:56:26Z</time>
      </trkpt>
      <trkpt lat="47.9558" lon="-2.5817">
        <ele>43</ele>
        <time>2021-08-08T08:56:27Z</time>
      </trkpt>
      <trkpt lat="47.95583" lon="-2.58176">
        <ele>43</ele>
        <time>2021-08-08T08:56:28Z</time>
      </trkpt>
      <trkpt lat="47.95586" lon="-2.58181">
        <ele>43</ele>
        <time>2021-08-08T08:56:29Z</time>
      </trkpt>
      <trkpt lat="47.9559" lon="-2.58185">
        <ele>43</ele>
        <time>2021-08-08T08:56:30Z</time>
      </trkpt>
      <trkpt lat="47.95593" lon="-2.5819">
        <ele>42.8</ele>
        <time>2021-08-08T08:56:31Z</time>
      </trkpt>
      <trkpt lat="47.95597" lon="-2.58195">
        <ele>42.8</ele>
        <time>2021-08-08T08:56:32Z</time>
      </trkpt>
      <trkpt lat="47.956" lon="-2.582">
        <ele>42.8</ele>
        <time>2021-08-08T08:56:33Z</time>
      </trkpt>
      <trkpt lat="47.95604" lon="-2.58205">
        <ele>42.6</ele>
        <time>2021-08-08T08:56:34Z</time>
      </trkpt>
      <trkpt lat="47.95607" lon="-2.5821">
        <ele>42.4</ele>
        <time>2021-08-08T08:56:35Z</time>
      </trkpt>
      <trkpt lat="47.9561" lon="-2.58216">
        <ele>42.2</ele>
        <time>2021-08-08T08:56:36Z</time>
      </trkpt>
      <trkpt lat="47.95614" lon="-2.58222">
        <ele>42.2</ele>
        <time>2021-08-08T08:56:37Z</time>
      </trkpt>
      <trkpt lat="47.95618" lon="-2.58228">
        <ele>42.2</ele>
        <time>2021-08-08T08:56:38Z</time>
      </trkpt>
      <trkpt lat="47.95622" lon="-2.58234">
        <ele>42</ele>
        <time>2021-08-08T08:56:39Z</time>
      </trkpt>
      <trkpt lat="47.95626" lon="-2.58241">
        <ele>42</ele>
        <time>2021-08-08T08:56:40Z</time>
      </trkpt>
      <trkpt lat="47.9563" lon="-2.58247">
        <ele>41.8</ele>
        <time>2021-08-08T08:56:41Z</time>
      </trkpt>
      <trkpt lat="47.95634" lon="-2.58252">
        <ele>41.8</ele>
        <time>2021-08-08T08:56:42Z</time>
      </trkpt>
      <trkpt lat="47.95638" lon="-2.58257">
        <ele>41.8</ele>
        <time>2021-08-08T08:56:43Z</time>
      </trkpt>
      <trkpt lat="47.95642" lon="-2.58262">
        <ele>41.8</ele>
        <time>2021-08-08T08:56:44Z</time>
      </trkpt>
      <trkpt lat="47.95645" lon="-2.58267">
        <ele>41.8</ele>
        <time>2021-08-08T08:56:45Z</time>
      </trkpt>
      <trkpt lat="47.95649" lon="-2.58273">
        <ele>41.8</ele>
        <time>2021-08-08T08:56:46Z</time>
      </trkpt>
      <trkpt lat="47.95653" lon="-2.58279">
        <ele>41.8</ele>
        <time>2021-08-08T08:56:47Z</time>
      </trkpt>
      <trkpt lat="47.95657" lon="-2.58285">
        <ele>41.8</ele>
        <time>2021-08-08T08:56:48Z</time>
      </trkpt>
      <trkpt lat="47.9566" lon="-2.58292">
        <ele>41.6</ele>
        <time>2021-08-08T08:56:49Z</time>
      </trkpt>
      <trkpt lat="47.95664" lon="-2.58298">
        <ele>41.6</ele>
        <time>2021-08-08T08:56:50Z</time>
      </trkpt>
      <trkpt lat="47.95667" lon="-2.58304">
        <ele>41.6</ele>
        <time>2021-08-08T08:56:51Z</time>
      </trkpt>
      <trkpt lat="47.95671" lon="-2.58311">
        <ele>41.6</ele>
        <time>2021-08-08T08:56:52Z</time>
      </trkpt>
      <trkpt lat="47.95675" lon="-2.58317">
        <ele>41.8</ele>
        <time>2021-08-08T08:56:53Z</time>
      </trkpt>
      <trkpt lat="47.95679" lon="-2.58323">
        <ele>41.8</ele>
        <time>2021-08-08T08:56:54Z</time>
      </trkpt>
      <trkpt lat="47.95682" lon="-2.58329">
        <ele>41.8</ele>
        <time>2021-08-08T08:56:55Z</time>
      </trkpt>
      <trkpt lat="47.95686" lon="-2.58334">
        <ele>41.8</ele>
        <time>2021-08-08T08:56:56Z</time>
      </trkpt>
      <trkpt lat="47.95689" lon="-2.58339">
        <ele>41.8</ele>
        <time>2021-08-08T08:56:57Z</time>
      </trkpt>
      <trkpt lat="47.95693" lon="-2.58345">
        <ele>41.8</ele>
        <time>2021-08-08T08:56:58Z</time>
      </trkpt>
      <trkpt lat="47.95696" lon="-2.5835">
        <ele>41.8</ele>
        <time>2021-08-08T08:56:59Z</time>
      </trkpt>
      <trkpt lat="47.957" lon="-2.58355">
        <ele>41.8</ele>
        <time>2021-08-08T08:57:00Z</time>
      </trkpt>
      <trkpt lat="47.95704" lon="-2.5836">
        <ele>41.8</ele>
        <time>2021-08-08T08:57:01Z</time>
      </trkpt>
      <trkpt lat="47.95708" lon="-2.58365">
        <ele>42</ele>
        <time>2021-08-08T08:57:02Z</time>
      </trkpt>
      <trkpt lat="47.95711" lon="-2.58371">
        <ele>42</ele>
        <time>2021-08-08T08:57:03Z</time>
      </trkpt>
      <trkpt lat="47.95715" lon="-2.58377">
        <ele>42</ele>
        <time>2021-08-08T08:57:04Z</time>
      </trkpt>
      <trkpt lat="47.95719" lon="-2.58383">
        <ele>42</ele>
        <time>2021-08-08T08:57:05Z</time>
      </trkpt>
      <trkpt lat="47.95722" lon="-2.58389">
        <ele>42</ele>
        <time>2021-08-08T08:57:06Z</time>
      </trkpt>
      <trkpt lat="47.95726" lon="-2.58395">
        <ele>42</ele>
        <time>2021-08-08T08:57:07Z</time>
      </trkpt>
      <trkpt lat="47.9573" lon="-2.58401">
        <ele>42</ele>
        <time>2021-08-08T08:57:08Z</time>
      </trkpt>
      <trkpt lat="47.95734" lon="-2.58408">
        <ele>42</ele>
        <time>2021-08-08T08:57:09Z</time>
      </trkpt>
      <trkpt lat="47.95737" lon="-2.58413">
        <ele>42.2</ele>
        <time>2021-08-08T08:57:10Z</time>
      </trkpt>
      <trkpt lat="47.9574" lon="-2.58418">
        <ele>42.2</ele>
        <time>2021-08-08T08:57:11Z</time>
      </trkpt>
      <trkpt lat="47.95744" lon="-2.58422">
        <ele>42.4</ele>
        <time>2021-08-08T08:57:12Z</time>
      </trkpt>
      <trkpt lat="47.95746" lon="-2.58426">
        <ele>42.4</ele>
        <time>2021-08-08T08:57:13Z</time>
      </trkpt>
      <trkpt lat="47.95749" lon="-2.5843">
        <ele>42.6</ele>
        <time>2021-08-08T08:57:14Z</time>
      </trkpt>
      <trkpt lat="47.95752" lon="-2.58435">
        <ele>42.6</ele>
        <time>2021-08-08T08:57:15Z</time>
      </trkpt>
      <trkpt lat="47.95754" lon="-2.5844">
        <ele>42.6</ele>
        <time>2021-08-08T08:57:16Z</time>
      </trkpt>
      <trkpt lat="47.95757" lon="-2.58445">
        <ele>42.6</ele>
        <time>2021-08-08T08:57:17Z</time>
      </trkpt>
      <trkpt lat="47.9576" lon="-2.58451">
        <ele>42.8</ele>
        <time>2021-08-08T08:57:18Z</time>
      </trkpt>
      <trkpt lat="47.95762" lon="-2.58457">
        <ele>42.8</ele>
        <time>2021-08-08T08:57:19Z</time>
      </trkpt>
      <trkpt lat="47.95765" lon="-2.58463">
        <ele>42.8</ele>
        <time>2021-08-08T08:57:20Z</time>
      </trkpt>
      <trkpt lat="47.95767" lon="-2.58468">
        <ele>42.8</ele>
        <time>2021-08-08T08:57:21Z</time>
      </trkpt>
      <trkpt lat="47.9577" lon="-2.58474">
        <ele>42.8</ele>
        <time>2021-08-08T08:57:22Z</time>
      </trkpt>
      <trkpt lat="47.95773" lon="-2.5848">
        <ele>42.8</ele>
        <time>2021-08-08T08:57:23Z</time>
      </trkpt>
      <trkpt lat="47.95775" lon="-2.58485">
        <ele>42.8</ele>
        <time>2021-08-08T08:57:24Z</time>
      </trkpt>
      <trkpt lat="47.95778" lon="-2.58491">
        <ele>42.8</ele>
        <time>2021-08-08T08:57:25Z</time>
      </trkpt>
      <trkpt lat="47.9578" lon="-2.58497">
        <ele>42.8</ele>
        <time>2021-08-08T08:57:26Z</time>
      </trkpt>
      <trkpt lat="47.95783" lon="-2.58503">
        <ele>42.8</ele>
        <time>2021-08-08T08:57:27Z</time>
      </trkpt>
      <trkpt lat="47.95785" lon="-2.58509">
        <ele>42.8</ele>
        <time>2021-08-08T08:57:28Z</time>
      </trkpt>
      <trkpt lat="47.95788" lon="-2.58516">
        <ele>42.8</ele>
        <time>2021-08-08T08:57:29Z</time>
      </trkpt>
      <trkpt lat="47.9579" lon="-2.58521">
        <ele>42.8</ele>
        <time>2021-08-08T08:57:30Z</time>
      </trkpt>
      <trkpt lat="47.95793" lon="-2.58527">
        <ele>42.8</ele>
        <time>2021-08-08T08:57:31Z</time>
      </trkpt>
      <trkpt lat="47.95795" lon="-2.58534">
        <ele>43</ele>
        <time>2021-08-08T08:57:32Z</time>
      </trkpt>
      <trkpt lat="47.95797" lon="-2.58541">
        <ele>43</ele>
        <time>2021-08-08T08:57:33Z</time>
      </trkpt>
      <trkpt lat="47.95799" lon="-2.58547">
        <ele>43.2</ele>
        <time>2021-08-08T08:57:34Z</time>
      </trkpt>
      <trkpt lat="47.95801" lon="-2.58553">
        <ele>43.2</ele>
        <time>2021-08-08T08:57:35Z</time>
      </trkpt>
      <trkpt lat="47.95803" lon="-2.58558">
        <ele>43.4</ele>
        <time>2021-08-08T08:57:36Z</time>
      </trkpt>
      <trkpt lat="47.95804" lon="-2.58564">
        <ele>43.4</ele>
        <time>2021-08-08T08:57:37Z</time>
      </trkpt>
      <trkpt lat="47.95806" lon="-2.58569">
        <ele>43.4</ele>
        <time>2021-08-08T08:57:38Z</time>
      </trkpt>
      <trkpt lat="47.95807" lon="-2.58575">
        <ele>43.4</ele>
        <time>2021-08-08T08:57:39Z</time>
      </trkpt>
      <trkpt lat="47.95809" lon="-2.5858">
        <ele>43.4</ele>
        <time>2021-08-08T08:57:40Z</time>
      </trkpt>
      <trkpt lat="47.95811" lon="-2.58586">
        <ele>43.2</ele>
        <time>2021-08-08T08:57:41Z</time>
      </trkpt>
      <trkpt lat="47.95813" lon="-2.58591">
        <ele>43.2</ele>
        <time>2021-08-08T08:57:42Z</time>
      </trkpt>
      <trkpt lat="47.95815" lon="-2.58597">
        <ele>43.2</ele>
        <time>2021-08-08T08:57:43Z</time>
      </trkpt>
      <trkpt lat="47.95817" lon="-2.58603">
        <ele>43.2</ele>
        <time>2021-08-08T08:57:44Z</time>
      </trkpt>
      <trkpt lat="47.95819" lon="-2.58609">
        <ele>43.2</ele>
        <time>2021-08-08T08:57:45Z</time>
      </trkpt>
      <trkpt lat="47.95821" lon="-2.58615">
        <ele>43.4</ele>
        <time>2021-08-08T08:57:46Z</time>
      </trkpt>
      <trkpt lat="47.95822" lon="-2.58622">
        <ele>43.4</ele>
        <time>2021-08-08T08:57:47Z</time>
      </trkpt>
      <trkpt lat="47.95824" lon="-2.58628">
        <ele>43.2</ele>
        <time>2021-08-08T08:57:48Z</time>
      </trkpt>
      <trkpt lat="47.95827" lon="-2.58634">
        <ele>43.2</ele>
        <time>2021-08-08T08:57:49Z</time>
      </trkpt>
      <trkpt lat="47.95829" lon="-2.58641">
        <ele>43.2</ele>
        <time>2021-08-08T08:57:50Z</time>
      </trkpt>
      <trkpt lat="47.95831" lon="-2.58647">
        <ele>43</ele>
        <time>2021-08-08T08:57:51Z</time>
      </trkpt>
      <trkpt lat="47.95833" lon="-2.58653">
        <ele>43</ele>
        <time>2021-08-08T08:57:52Z</time>
      </trkpt>
      <trkpt lat="47.95835" lon="-2.58658">
        <ele>43</ele>
        <time>2021-08-08T08:57:53Z</time>
      </trkpt>
      <trkpt lat="47.95838" lon="-2.58665">
        <ele>42.8</ele>
        <time>2021-08-08T08:57:54Z</time>
      </trkpt>
      <trkpt lat="47.9584" lon="-2.58671">
        <ele>42.8</ele>
        <time>2021-08-08T08:57:55Z</time>
      </trkpt>
      <trkpt lat="47.95842" lon="-2.58678">
        <ele>42.6</ele>
        <time>2021-08-08T08:57:56Z</time>
      </trkpt>
      <trkpt lat="47.95844" lon="-2.58684">
        <ele>42.4</ele>
        <time>2021-08-08T08:57:57Z</time>
      </trkpt>
      <trkpt lat="47.95846" lon="-2.5869">
        <ele>42</ele>
        <time>2021-08-08T08:57:58Z</time>
      </trkpt>
      <trkpt lat="47.95848" lon="-2.58697">
        <ele>42</ele>
        <time>2021-08-08T08:57:59Z</time>
      </trkpt>
      <trkpt lat="47.9585" lon="-2.58703">
        <ele>41.6</ele>
        <time>2021-08-08T08:58:00Z</time>
      </trkpt>
      <trkpt lat="47.95852" lon="-2.58709">
        <ele>41.6</ele>
        <time>2021-08-08T08:58:01Z</time>
      </trkpt>
      <trkpt lat="47.95854" lon="-2.58716">
        <ele>41.6</ele>
        <time>2021-08-08T08:58:02Z</time>
      </trkpt>
      <trkpt lat="47.95857" lon="-2.58722">
        <ele>41.6</ele>
        <time>2021-08-08T08:58:03Z</time>
      </trkpt>
      <trkpt lat="47.95859" lon="-2.58728">
        <ele>41.6</ele>
        <time>2021-08-08T08:58:04Z</time>
      </trkpt>
      <trkpt lat="47.95861" lon="-2.58735">
        <ele>41.6</ele>
        <time>2021-08-08T08:58:05Z</time>
      </trkpt>
      <trkpt lat="47.95863" lon="-2.58741">
        <ele>41.6</ele>
        <time>2021-08-08T08:58:06Z</time>
      </trkpt>
      <trkpt lat="47.95865" lon="-2.58747">
        <ele>42</ele>
        <time>2021-08-08T08:58:07Z</time>
      </trkpt>
      <trkpt lat="47.95867" lon="-2.58754">
        <ele>42</ele>
        <time>2021-08-08T08:58:08Z</time>
      </trkpt>
      <trkpt lat="47.9587" lon="-2.58761">
        <ele>42.2</ele>
        <time>2021-08-08T08:58:09Z</time>
      </trkpt>
      <trkpt lat="47.95872" lon="-2.58768">
        <ele>42.2</ele>
        <time>2021-08-08T08:58:10Z</time>
      </trkpt>
      <trkpt lat="47.95874" lon="-2.58774">
        <ele>42.2</ele>
        <time>2021-08-08T08:58:11Z</time>
      </trkpt>
      <trkpt lat="47.95876" lon="-2.58781">
        <ele>42.2</ele>
        <time>2021-08-08T08:58:12Z</time>
      </trkpt>
      <trkpt lat="47.95879" lon="-2.58788">
        <ele>42.2</ele>
        <time>2021-08-08T08:58:13Z</time>
      </trkpt>
      <trkpt lat="47.95881" lon="-2.58794">
        <ele>42.2</ele>
        <time>2021-08-08T08:58:14Z</time>
      </trkpt>
      <trkpt lat="47.95882" lon="-2.58801">
        <ele>42.4</ele>
        <time>2021-08-08T08:58:15Z</time>
      </trkpt>
      <trkpt lat="47.95884" lon="-2.58808">
        <ele>42.6</ele>
        <time>2021-08-08T08:58:16Z</time>
      </trkpt>
      <trkpt lat="47.95886" lon="-2.58815">
        <ele>42.4</ele>
        <time>2021-08-08T08:58:17Z</time>
      </trkpt>
      <trkpt lat="47.95888" lon="-2.58821">
        <ele>42.4</ele>
        <time>2021-08-08T08:58:18Z</time>
      </trkpt>
      <trkpt lat="47.9589" lon="-2.58828">
        <ele>42.4</ele>
        <time>2021-08-08T08:58:19Z</time>
      </trkpt>
      <trkpt lat="47.95891" lon="-2.58834">
        <ele>42.4</ele>
        <time>2021-08-08T08:58:20Z</time>
      </trkpt>
      <trkpt lat="47.95892" lon="-2.5884">
        <ele>42.4</ele>
        <time>2021-08-08T08:58:21Z</time>
      </trkpt>
      <trkpt lat="47.95894" lon="-2.58846">
        <ele>42.4</ele>
        <time>2021-08-08T08:58:22Z</time>
      </trkpt>
      <trkpt lat="47.95895" lon="-2.58852">
        <ele>42.4</ele>
        <time>2021-08-08T08:58:23Z</time>
      </trkpt>
      <trkpt lat="47.95897" lon="-2.58857">
        <ele>42.4</ele>
        <time>2021-08-08T08:58:24Z</time>
      </trkpt>
      <trkpt lat="47.95899" lon="-2.58862">
        <ele>42.4</ele>
        <time>2021-08-08T08:58:25Z</time>
      </trkpt>
      <trkpt lat="47.959" lon="-2.58869">
        <ele>42.4</ele>
        <time>2021-08-08T08:58:26Z</time>
      </trkpt>
      <trkpt lat="47.95901" lon="-2.58875">
        <ele>42.4</ele>
        <time>2021-08-08T08:58:27Z</time>
      </trkpt>
      <trkpt lat="47.95903" lon="-2.58881">
        <ele>42.4</ele>
        <time>2021-08-08T08:58:28Z</time>
      </trkpt>
      <trkpt lat="47.95904" lon="-2.58887">
        <ele>42.4</ele>
        <time>2021-08-08T08:58:29Z</time>
      </trkpt>
      <trkpt lat="47.95905" lon="-2.58893">
        <ele>42.4</ele>
        <time>2021-08-08T08:58:30Z</time>
      </trkpt>
      <trkpt lat="47.95907" lon="-2.589">
        <ele>42.6</ele>
        <time>2021-08-08T08:58:31Z</time>
      </trkpt>
      <trkpt lat="47.9591" lon="-2.58906">
        <ele>42.6</ele>
        <time>2021-08-08T08:58:32Z</time>
      </trkpt>
      <trkpt lat="47.95912" lon="-2.58913">
        <ele>42.6</ele>
        <time>2021-08-08T08:58:33Z</time>
      </trkpt>
      <trkpt lat="47.95914" lon="-2.58919">
        <ele>42.6</ele>
        <time>2021-08-08T08:58:34Z</time>
      </trkpt>
      <trkpt lat="47.95917" lon="-2.58926">
        <ele>42.6</ele>
        <time>2021-08-08T08:58:35Z</time>
      </trkpt>
      <trkpt lat="47.9592" lon="-2.58932">
        <ele>42.6</ele>
        <time>2021-08-08T08:58:36Z</time>
      </trkpt>
      <trkpt lat="47.95923" lon="-2.58939">
        <ele>42.6</ele>
        <time>2021-08-08T08:58:37Z</time>
      </trkpt>
      <trkpt lat="47.95926" lon="-2.58945">
        <ele>42.6</ele>
        <time>2021-08-08T08:58:38Z</time>
      </trkpt>
      <trkpt lat="47.95929" lon="-2.58951">
        <ele>42.6</ele>
        <time>2021-08-08T08:58:39Z</time>
      </trkpt>
      <trkpt lat="47.95932" lon="-2.58957">
        <ele>42.8</ele>
        <time>2021-08-08T08:58:40Z</time>
      </trkpt>
      <trkpt lat="47.95936" lon="-2.58963">
        <ele>43</ele>
        <time>2021-08-08T08:58:41Z</time>
      </trkpt>
      <trkpt lat="47.95939" lon="-2.58969">
        <ele>43</ele>
        <time>2021-08-08T08:58:42Z</time>
      </trkpt>
      <trkpt lat="47.95942" lon="-2.58975">
        <ele>43</ele>
        <time>2021-08-08T08:58:43Z</time>
      </trkpt>
      <trkpt lat="47.95945" lon="-2.58981">
        <ele>43.2</ele>
        <time>2021-08-08T08:58:44Z</time>
      </trkpt>
      <trkpt lat="47.95948" lon="-2.58986">
        <ele>43.2</ele>
        <time>2021-08-08T08:58:45Z</time>
      </trkpt>
      <trkpt lat="47.95952" lon="-2.58991">
        <ele>43.2</ele>
        <time>2021-08-08T08:58:46Z</time>
      </trkpt>
      <trkpt lat="47.95955" lon="-2.58997">
        <ele>43.2</ele>
        <time>2021-08-08T08:58:47Z</time>
      </trkpt>
      <trkpt lat="47.95958" lon="-2.59002">
        <ele>43.2</ele>
        <time>2021-08-08T08:58:48Z</time>
      </trkpt>
      <trkpt lat="47.95961" lon="-2.59007">
        <ele>43.2</ele>
        <time>2021-08-08T08:58:49Z</time>
      </trkpt>
      <trkpt lat="47.95963" lon="-2.59011">
        <ele>43.4</ele>
        <time>2021-08-08T08:58:50Z</time>
      </trkpt>
      <trkpt lat="47.95965" lon="-2.59015">
        <ele>43.4</ele>
        <time>2021-08-08T08:58:51Z</time>
      </trkpt>
      <trkpt lat="47.95967" lon="-2.59019">
        <ele>43.4</ele>
        <time>2021-08-08T08:58:52Z</time>
      </trkpt>
      <trkpt lat="47.95968" lon="-2.59022">
        <ele>43.4</ele>
        <time>2021-08-08T08:58:53Z</time>
      </trkpt>
      <trkpt lat="47.9597" lon="-2.59024">
        <ele>43.4</ele>
        <time>2021-08-08T08:58:54Z</time>
      </trkpt>
      <trkpt lat="47.95971" lon="-2.59026">
        <ele>43.4</ele>
        <time>2021-08-08T08:58:55Z</time>
      </trkpt>
      <trkpt lat="47.95972" lon="-2.59028">
        <ele>43.4</ele>
        <time>2021-08-08T08:58:56Z</time>
      </trkpt>
      <trkpt lat="47.95973" lon="-2.5903">
        <ele>43.6</ele>
        <time>2021-08-08T08:58:57Z</time>
      </trkpt>
      <trkpt lat="47.95975" lon="-2.59033">
        <ele>43.2</ele>
        <time>2021-08-08T08:58:58Z</time>
      </trkpt>
      <trkpt lat="47.95976" lon="-2.59035">
        <ele>43.2</ele>
        <time>2021-08-08T08:58:59Z</time>
      </trkpt>
      <trkpt lat="47.95978" lon="-2.59038">
        <ele>43.2</ele>
        <time>2021-08-08T08:59:00Z</time>
      </trkpt>
      <trkpt lat="47.9598" lon="-2.5904">
        <ele>43.2</ele>
        <time>2021-08-08T08:59:01Z</time>
      </trkpt>
      <trkpt lat="47.95982" lon="-2.59043">
        <ele>43.2</ele>
        <time>2021-08-08T08:59:02Z</time>
      </trkpt>
      <trkpt lat="47.95983" lon="-2.59046">
        <ele>43.2</ele>
        <time>2021-08-08T08:59:03Z</time>
      </trkpt>
      <trkpt lat="47.95985" lon="-2.59049">
        <ele>43.2</ele>
        <time>2021-08-08T08:59:04Z</time>
      </trkpt>
      <trkpt lat="47.95986" lon="-2.59052">
        <ele>43.2</ele>
        <time>2021-08-08T08:59:05Z</time>
      </trkpt>
      <trkpt lat="47.95988" lon="-2.59055">
        <ele>43.2</ele>
        <time>2021-08-08T08:59:06Z</time>
      </trkpt>
      <trkpt lat="47.9599" lon="-2.59058">
        <ele>43.2</ele>
        <time>2021-08-08T08:59:07Z</time>
      </trkpt>
      <trkpt lat="47.95992" lon="-2.59062">
        <ele>43.2</ele>
        <time>2021-08-08T08:59:08Z</time>
      </trkpt>
      <trkpt lat="47.95993" lon="-2.59067">
        <ele>43.2</ele>
        <time>2021-08-08T08:59:09Z</time>
      </trkpt>
      <trkpt lat="47.95995" lon="-2.59072">
        <ele>43.2</ele>
        <time>2021-08-08T08:59:10Z</time>
      </trkpt>
      <trkpt lat="47.95997" lon="-2.59076">
        <ele>43.2</ele>
        <time>2021-08-08T08:59:11Z</time>
      </trkpt>
      <trkpt lat="47.95999" lon="-2.5908">
        <ele>43.2</ele>
        <time>2021-08-08T08:59:12Z</time>
      </trkpt>
      <trkpt lat="47.96001" lon="-2.59083">
        <ele>43.2</ele>
        <time>2021-08-08T08:59:13Z</time>
      </trkpt>
      <trkpt lat="47.96002" lon="-2.59087">
        <ele>43.2</ele>
        <time>2021-08-08T08:59:14Z</time>
      </trkpt>
      <trkpt lat="47.96004" lon="-2.5909">
        <ele>43.2</ele>
        <time>2021-08-08T08:59:15Z</time>
      </trkpt>
      <trkpt lat="47.96005" lon="-2.59093">
        <ele>43.2</ele>
        <time>2021-08-08T08:59:16Z</time>
      </trkpt>
      <trkpt lat="47.96007" lon="-2.59096">
        <ele>43.2</ele>
        <time>2021-08-08T08:59:17Z</time>
      </trkpt>
      <trkpt lat="47.96009" lon="-2.59101">
        <ele>43.2</ele>
        <time>2021-08-08T08:59:18Z</time>
      </trkpt>
      <trkpt lat="47.9601" lon="-2.59106">
        <ele>43.2</ele>
        <time>2021-08-08T08:59:19Z</time>
      </trkpt>
      <trkpt lat="47.96012" lon="-2.59111">
        <ele>43.2</ele>
        <time>2021-08-08T08:59:20Z</time>
      </trkpt>
      <trkpt lat="47.96013" lon="-2.59117">
        <ele>43.2</ele>
        <time>2021-08-08T08:59:21Z</time>
      </trkpt>
      <trkpt lat="47.96014" lon="-2.59122">
        <ele>43</ele>
        <time>2021-08-08T08:59:22Z</time>
      </trkpt>
      <trkpt lat="47.96015" lon="-2.59127">
        <ele>43</ele>
        <time>2021-08-08T08:59:23Z</time>
      </trkpt>
      <trkpt lat="47.96016" lon="-2.59132">
        <ele>43</ele>
        <time>2021-08-08T08:59:24Z</time>
      </trkpt>
      <trkpt lat="47.96017" lon="-2.59137">
        <ele>43</ele>
        <time>2021-08-08T08:59:25Z</time>
      </trkpt>
      <trkpt lat="47.96016" lon="-2.59142">
        <ele>43</ele>
        <time>2021-08-08T08:59:26Z</time>
      </trkpt>
      <trkpt lat="47.96016" lon="-2.59146">
        <ele>42.8</ele>
        <time>2021-08-08T08:59:27Z</time>
      </trkpt>
      <trkpt lat="47.96017" lon="-2.59151">
        <ele>42.6</ele>
        <time>2021-08-08T08:59:28Z</time>
      </trkpt>
      <trkpt lat="47.96017" lon="-2.59155">
        <ele>42.6</ele>
        <time>2021-08-08T08:59:29Z</time>
      </trkpt>
      <trkpt lat="47.96018" lon="-2.5916">
        <ele>42.6</ele>
        <time>2021-08-08T08:59:30Z</time>
      </trkpt>
      <trkpt lat="47.96018" lon="-2.59166">
        <ele>42.4</ele>
        <time>2021-08-08T08:59:31Z</time>
      </trkpt>
      <trkpt lat="47.96017" lon="-2.59172">
        <ele>42.4</ele>
        <time>2021-08-08T08:59:32Z</time>
      </trkpt>
      <trkpt lat="47.96017" lon="-2.59179">
        <ele>42.6</ele>
        <time>2021-08-08T08:59:33Z</time>
      </trkpt>
      <trkpt lat="47.96017" lon="-2.59185">
        <ele>42.6</ele>
        <time>2021-08-08T08:59:34Z</time>
      </trkpt>
      <trkpt lat="47.96017" lon="-2.59192">
        <ele>42.6</ele>
        <time>2021-08-08T08:59:35Z</time>
      </trkpt>
      <trkpt lat="47.96017" lon="-2.59199">
        <ele>42.6</ele>
        <time>2021-08-08T08:59:36Z</time>
      </trkpt>
      <trkpt lat="47.96017" lon="-2.59206">
        <ele>42.6</ele>
        <time>2021-08-08T08:59:37Z</time>
      </trkpt>
      <trkpt lat="47.96017" lon="-2.59213">
        <ele>42.6</ele>
        <time>2021-08-08T08:59:38Z</time>
      </trkpt>
      <trkpt lat="47.96017" lon="-2.59222">
        <ele>42.6</ele>
        <time>2021-08-08T08:59:39Z</time>
      </trkpt>
      <trkpt lat="47.96016" lon="-2.5923">
        <ele>42.6</ele>
        <time>2021-08-08T08:59:40Z</time>
      </trkpt>
      <trkpt lat="47.96016" lon="-2.59238">
        <ele>42.6</ele>
        <time>2021-08-08T08:59:41Z</time>
      </trkpt>
      <trkpt lat="47.96016" lon="-2.59246">
        <ele>42.6</ele>
        <time>2021-08-08T08:59:42Z</time>
      </trkpt>
      <trkpt lat="47.96015" lon="-2.59253">
        <ele>42.6</ele>
        <time>2021-08-08T08:59:43Z</time>
      </trkpt>
      <trkpt lat="47.96015" lon="-2.5926">
        <ele>42.6</ele>
        <time>2021-08-08T08:59:44Z</time>
      </trkpt>
      <trkpt lat="47.96015" lon="-2.59268">
        <ele>42.6</ele>
        <time>2021-08-08T08:59:45Z</time>
      </trkpt>
      <trkpt lat="47.96014" lon="-2.59275">
        <ele>42.8</ele>
        <time>2021-08-08T08:59:46Z</time>
      </trkpt>
      <trkpt lat="47.96014" lon="-2.59283">
        <ele>42.8</ele>
        <time>2021-08-08T08:59:47Z</time>
      </trkpt>
      <trkpt lat="47.96014" lon="-2.59291">
        <ele>42.8</ele>
        <time>2021-08-08T08:59:48Z</time>
      </trkpt>
      <trkpt lat="47.96014" lon="-2.59298">
        <ele>42.8</ele>
        <time>2021-08-08T08:59:49Z</time>
      </trkpt>
      <trkpt lat="47.96013" lon="-2.59304">
        <ele>42.8</ele>
        <time>2021-08-08T08:59:50Z</time>
      </trkpt>
      <trkpt lat="47.96013" lon="-2.59311">
        <ele>43</ele>
        <time>2021-08-08T08:59:51Z</time>
      </trkpt>
      <trkpt lat="47.96012" lon="-2.59318">
        <ele>43</ele>
        <time>2021-08-08T08:59:52Z</time>
      </trkpt>
      <trkpt lat="47.96012" lon="-2.59325">
        <ele>43</ele>
        <time>2021-08-08T08:59:53Z</time>
      </trkpt>
      <trkpt lat="47.96012" lon="-2.59331">
        <ele>43</ele>
        <time>2021-08-08T08:59:54Z</time>
      </trkpt>
      <trkpt lat="47.96012" lon="-2.59338">
        <ele>43</ele>
        <time>2021-08-08T08:59:55Z</time>
      </trkpt>
      <trkpt lat="47.96012" lon="-2.59345">
        <ele>43</ele>
        <time>2021-08-08T08:59:56Z</time>
      </trkpt>
      <trkpt lat="47.96012" lon="-2.59352">
        <ele>43.2</ele>
        <time>2021-08-08T08:59:57Z</time>
      </trkpt>
      <trkpt lat="47.96012" lon="-2.59358">
        <ele>43.4</ele>
        <time>2021-08-08T08:59:58Z</time>
      </trkpt>
      <trkpt lat="47.96012" lon="-2.59365">
        <ele>43.4</ele>
        <time>2021-08-08T08:59:59Z</time>
      </trkpt>
      <trkpt lat="47.96011" lon="-2.59373">
        <ele>43.2</ele>
        <time>2021-08-08T09:00:00Z</time>
      </trkpt>
      <trkpt lat="47.96011" lon="-2.5938">
        <ele>43.2</ele>
        <time>2021-08-08T09:00:01Z</time>
      </trkpt>
      <trkpt lat="47.96011" lon="-2.59387">
        <ele>43.2</ele>
        <time>2021-08-08T09:00:02Z</time>
      </trkpt>
      <trkpt lat="47.96011" lon="-2.59395">
        <ele>43.2</ele>
        <time>2021-08-08T09:00:03Z</time>
      </trkpt>
      <trkpt lat="47.96011" lon="-2.59402">
        <ele>43.2</ele>
        <time>2021-08-08T09:00:04Z</time>
      </trkpt>
      <trkpt lat="47.9601" lon="-2.59409">
        <ele>43.2</ele>
        <time>2021-08-08T09:00:05Z</time>
      </trkpt>
      <trkpt lat="47.9601" lon="-2.59417">
        <ele>43.2</ele>
        <time>2021-08-08T09:00:06Z</time>
      </trkpt>
      <trkpt lat="47.9601" lon="-2.59424">
        <ele>43.2</ele>
        <time>2021-08-08T09:00:07Z</time>
      </trkpt>
      <trkpt lat="47.9601" lon="-2.59431">
        <ele>43.2</ele>
        <time>2021-08-08T09:00:08Z</time>
      </trkpt>
      <trkpt lat="47.96011" lon="-2.59438">
        <ele>43.2</ele>
        <time>2021-08-08T09:00:09Z</time>
      </trkpt>
      <trkpt lat="47.96011" lon="-2.59445">
        <ele>43.2</ele>
        <time>2021-08-08T09:00:10Z</time>
      </trkpt>
      <trkpt lat="47.96012" lon="-2.59452">
        <ele>43.2</ele>
        <time>2021-08-08T09:00:11Z</time>
      </trkpt>
      <trkpt lat="47.96013" lon="-2.59459">
        <ele>43.2</ele>
        <time>2021-08-08T09:00:12Z</time>
      </trkpt>
      <trkpt lat="47.96014" lon="-2.59466">
        <ele>43.2</ele>
        <time>2021-08-08T09:00:13Z</time>
      </trkpt>
      <trkpt lat="47.96015" lon="-2.59472">
        <ele>43</ele>
        <time>2021-08-08T09:00:14Z</time>
      </trkpt>
      <trkpt lat="47.96016" lon="-2.59479">
        <ele>43</ele>
        <time>2021-08-08T09:00:15Z</time>
      </trkpt>
      <trkpt lat="47.96017" lon="-2.59485">
        <ele>42.8</ele>
        <time>2021-08-08T09:00:16Z</time>
      </trkpt>
      <trkpt lat="47.96019" lon="-2.59491">
        <ele>42.8</ele>
        <time>2021-08-08T09:00:17Z</time>
      </trkpt>
      <trkpt lat="47.9602" lon="-2.59498">
        <ele>42.8</ele>
        <time>2021-08-08T09:00:18Z</time>
      </trkpt>
      <trkpt lat="47.96022" lon="-2.59504">
        <ele>42.8</ele>
        <time>2021-08-08T09:00:19Z</time>
      </trkpt>
      <trkpt lat="47.96024" lon="-2.59511">
        <ele>42.8</ele>
        <time>2021-08-08T09:00:20Z</time>
      </trkpt>
      <trkpt lat="47.96025" lon="-2.59517">
        <ele>42.8</ele>
        <time>2021-08-08T09:00:21Z</time>
      </trkpt>
      <trkpt lat="47.96027" lon="-2.59524">
        <ele>42.8</ele>
        <time>2021-08-08T09:00:22Z</time>
      </trkpt>
      <trkpt lat="47.96029" lon="-2.5953">
        <ele>43</ele>
        <time>2021-08-08T09:00:23Z</time>
      </trkpt>
      <trkpt lat="47.96031" lon="-2.59537">
        <ele>43</ele>
        <time>2021-08-08T09:00:24Z</time>
      </trkpt>
      <trkpt lat="47.96033" lon="-2.59543">
        <ele>42.8</ele>
        <time>2021-08-08T09:00:25Z</time>
      </trkpt>
      <trkpt lat="47.96034" lon="-2.5955">
        <ele>42.8</ele>
        <time>2021-08-08T09:00:26Z</time>
      </trkpt>
      <trkpt lat="47.96036" lon="-2.59557">
        <ele>43</ele>
        <time>2021-08-08T09:00:27Z</time>
      </trkpt>
      <trkpt lat="47.96038" lon="-2.59564">
        <ele>43</ele>
        <time>2021-08-08T09:00:28Z</time>
      </trkpt>
      <trkpt lat="47.96039" lon="-2.5957">
        <ele>43</ele>
        <time>2021-08-08T09:00:29Z</time>
      </trkpt>
      <trkpt lat="47.96041" lon="-2.59577">
        <ele>43</ele>
        <time>2021-08-08T09:00:30Z</time>
      </trkpt>
      <trkpt lat="47.96042" lon="-2.59584">
        <ele>43</ele>
        <time>2021-08-08T09:00:31Z</time>
      </trkpt>
      <trkpt lat="47.96044" lon="-2.5959">
        <ele>43</ele>
        <time>2021-08-08T09:00:32Z</time>
      </trkpt>
      <trkpt lat="47.96046" lon="-2.59597">
        <ele>43</ele>
        <time>2021-08-08T09:00:33Z</time>
      </trkpt>
      <trkpt lat="47.96047" lon="-2.59603">
        <ele>43</ele>
        <time>2021-08-08T09:00:34Z</time>
      </trkpt>
      <trkpt lat="47.96049" lon="-2.5961">
        <ele>43</ele>
        <time>2021-08-08T09:00:35Z</time>
      </trkpt>
      <trkpt lat="47.9605" lon="-2.59616">
        <ele>43</ele>
        <time>2021-08-08T09:00:36Z</time>
      </trkpt>
      <trkpt lat="47.96052" lon="-2.59623">
        <ele>43</ele>
        <time>2021-08-08T09:00:37Z</time>
      </trkpt>
      <trkpt lat="47.96053" lon="-2.5963">
        <ele>43</ele>
        <time>2021-08-08T09:00:38Z</time>
      </trkpt>
      <trkpt lat="47.96054" lon="-2.59637">
        <ele>43</ele>
        <time>2021-08-08T09:00:39Z</time>
      </trkpt>
      <trkpt lat="47.96055" lon="-2.59644">
        <ele>43</ele>
        <time>2021-08-08T09:00:40Z</time>
      </trkpt>
      <trkpt lat="47.96056" lon="-2.59651">
        <ele>43</ele>
        <time>2021-08-08T09:00:41Z</time>
      </trkpt>
      <trkpt lat="47.96056" lon="-2.59658">
        <ele>43</ele>
        <time>2021-08-08T09:00:42Z</time>
      </trkpt>
      <trkpt lat="47.96057" lon="-2.59665">
        <ele>43</ele>
        <time>2021-08-08T09:00:43Z</time>
      </trkpt>
      <trkpt lat="47.96057" lon="-2.59672">
        <ele>43</ele>
        <time>2021-08-08T09:00:44Z</time>
      </trkpt>
      <trkpt lat="47.96058" lon="-2.59679">
        <ele>43</ele>
        <time>2021-08-08T09:00:45Z</time>
      </trkpt>
      <trkpt lat="47.96058" lon="-2.59686">
        <ele>43</ele>
        <time>2021-08-08T09:00:46Z</time>
      </trkpt>
      <trkpt lat="47.96058" lon="-2.59693">
        <ele>43</ele>
        <time>2021-08-08T09:00:47Z</time>
      </trkpt>
      <trkpt lat="47.96058" lon="-2.597">
        <ele>43.2</ele>
        <time>2021-08-08T09:00:48Z</time>
      </trkpt>
      <trkpt lat="47.96058" lon="-2.59708">
        <ele>43.2</ele>
        <time>2021-08-08T09:00:49Z</time>
      </trkpt>
      <trkpt lat="47.96058" lon="-2.59715">
        <ele>43.2</ele>
        <time>2021-08-08T09:00:50Z</time>
      </trkpt>
      <trkpt lat="47.96057" lon="-2.59722">
        <ele>43.2</ele>
        <time>2021-08-08T09:00:51Z</time>
      </trkpt>
      <trkpt lat="47.96057" lon="-2.5973">
        <ele>43.4</ele>
        <time>2021-08-08T09:00:52Z</time>
      </trkpt>
      <trkpt lat="47.96057" lon="-2.59737">
        <ele>43.4</ele>
        <time>2021-08-08T09:00:53Z</time>
      </trkpt>
      <trkpt lat="47.96056" lon="-2.59744">
        <ele>43.6</ele>
        <time>2021-08-08T09:00:54Z</time>
      </trkpt>
      <trkpt lat="47.96056" lon="-2.59751">
        <ele>43.6</ele>
        <time>2021-08-08T09:00:55Z</time>
      </trkpt>
      <trkpt lat="47.96055" lon="-2.59759">
        <ele>43.6</ele>
        <time>2021-08-08T09:00:56Z</time>
      </trkpt>
      <trkpt lat="47.96055" lon="-2.59766">
        <ele>43.4</ele>
        <time>2021-08-08T09:00:57Z</time>
      </trkpt>
      <trkpt lat="47.96055" lon="-2.59773">
        <ele>43.4</ele>
        <time>2021-08-08T09:00:58Z</time>
      </trkpt>
      <trkpt lat="47.96055" lon="-2.59779">
        <ele>43.4</ele>
        <time>2021-08-08T09:00:59Z</time>
      </trkpt>
      <trkpt lat="47.96055" lon="-2.59786">
        <ele>43.6</ele>
        <time>2021-08-08T09:01:00Z</time>
      </trkpt>
      <trkpt lat="47.96054" lon="-2.59794">
        <ele>43.6</ele>
        <time>2021-08-08T09:01:01Z</time>
      </trkpt>
      <trkpt lat="47.96054" lon="-2.59801">
        <ele>43.6</ele>
        <time>2021-08-08T09:01:02Z</time>
      </trkpt>
      <trkpt lat="47.96054" lon="-2.59808">
        <ele>43.6</ele>
        <time>2021-08-08T09:01:03Z</time>
      </trkpt>
      <trkpt lat="47.96054" lon="-2.59815">
        <ele>43.8</ele>
        <time>2021-08-08T09:01:04Z</time>
      </trkpt>
      <trkpt lat="47.96053" lon="-2.59822">
        <ele>43.8</ele>
        <time>2021-08-08T09:01:05Z</time>
      </trkpt>
      <trkpt lat="47.96053" lon="-2.5983">
        <ele>43.6</ele>
        <time>2021-08-08T09:01:06Z</time>
      </trkpt>
      <trkpt lat="47.96053" lon="-2.59837">
        <ele>43.6</ele>
        <time>2021-08-08T09:01:07Z</time>
      </trkpt>
      <trkpt lat="47.96053" lon="-2.59844">
        <ele>43.8</ele>
        <time>2021-08-08T09:01:08Z</time>
      </trkpt>
      <trkpt lat="47.96053" lon="-2.59851">
        <ele>43.8</ele>
        <time>2021-08-08T09:01:09Z</time>
      </trkpt>
      <trkpt lat="47.96054" lon="-2.59857">
        <ele>43.8</ele>
        <time>2021-08-08T09:01:10Z</time>
      </trkpt>
      <trkpt lat="47.96054" lon="-2.59865">
        <ele>43.8</ele>
        <time>2021-08-08T09:01:11Z</time>
      </trkpt>
      <trkpt lat="47.96055" lon="-2.59872">
        <ele>43.8</ele>
        <time>2021-08-08T09:01:12Z</time>
      </trkpt>
      <trkpt lat="47.96055" lon="-2.59878">
        <ele>43.8</ele>
        <time>2021-08-08T09:01:13Z</time>
      </trkpt>
      <trkpt lat="47.96056" lon="-2.59885">
        <ele>43.8</ele>
        <time>2021-08-08T09:01:14Z</time>
      </trkpt>
      <trkpt lat="47.96057" lon="-2.59891">
        <ele>44</ele>
        <time>2021-08-08T09:01:15Z</time>
      </trkpt>
      <trkpt lat="47.96058" lon="-2.59898">
        <ele>44</ele>
        <time>2021-08-08T09:01:16Z</time>
      </trkpt>
      <trkpt lat="47.96059" lon="-2.59904">
        <ele>44</ele>
        <time>2021-08-08T09:01:17Z</time>
      </trkpt>
      <trkpt lat="47.9606" lon="-2.5991">
        <ele>44</ele>
        <time>2021-08-08T09:01:18Z</time>
      </trkpt>
      <trkpt lat="47.96061" lon="-2.59917">
        <ele>44.2</ele>
        <time>2021-08-08T09:01:19Z</time>
      </trkpt>
      <trkpt lat="47.96063" lon="-2.59923">
        <ele>44.2</ele>
        <time>2021-08-08T09:01:20Z</time>
      </trkpt>
      <trkpt lat="47.96064" lon="-2.59929">
        <ele>44.2</ele>
        <time>2021-08-08T09:01:21Z</time>
      </trkpt>
      <trkpt lat="47.96065" lon="-2.59936">
        <ele>44.2</ele>
        <time>2021-08-08T09:01:22Z</time>
      </trkpt>
      <trkpt lat="47.96067" lon="-2.59942">
        <ele>44.2</ele>
        <time>2021-08-08T09:01:23Z</time>
      </trkpt>
      <trkpt lat="47.96069" lon="-2.59949">
        <ele>44</ele>
        <time>2021-08-08T09:01:24Z</time>
      </trkpt>
      <trkpt lat="47.9607" lon="-2.59955">
        <ele>44</ele>
        <time>2021-08-08T09:01:25Z</time>
      </trkpt>
      <trkpt lat="47.96072" lon="-2.59961">
        <ele>44</ele>
        <time>2021-08-08T09:01:26Z</time>
      </trkpt>
      <trkpt lat="47.96073" lon="-2.59967">
        <ele>44</ele>
        <time>2021-08-08T09:01:27Z</time>
      </trkpt>
      <trkpt lat="47.96075" lon="-2.59974">
        <ele>43.8</ele>
        <time>2021-08-08T09:01:28Z</time>
      </trkpt>
      <trkpt lat="47.96076" lon="-2.59981">
        <ele>43.8</ele>
        <time>2021-08-08T09:01:29Z</time>
      </trkpt>
      <trkpt lat="47.96078" lon="-2.59988">
        <ele>43.8</ele>
        <time>2021-08-08T09:01:30Z</time>
      </trkpt>
      <trkpt lat="47.96079" lon="-2.59993">
        <ele>43.8</ele>
        <time>2021-08-08T09:01:31Z</time>
      </trkpt>
      <trkpt lat="47.96081" lon="-2.6">
        <ele>43.6</ele>
        <time>2021-08-08T09:01:32Z</time>
      </trkpt>
      <trkpt lat="47.96083" lon="-2.60006">
        <ele>43.6</ele>
        <time>2021-08-08T09:01:33Z</time>
      </trkpt>
      <trkpt lat="47.96084" lon="-2.60013">
        <ele>43.6</ele>
        <time>2021-08-08T09:01:34Z</time>
      </trkpt>
      <trkpt lat="47.96086" lon="-2.60019">
        <ele>43.6</ele>
        <time>2021-08-08T09:01:35Z</time>
      </trkpt>
      <trkpt lat="47.96088" lon="-2.60026">
        <ele>43.6</ele>
        <time>2021-08-08T09:01:36Z</time>
      </trkpt>
      <trkpt lat="47.96088" lon="-2.60032">
        <ele>43.6</ele>
        <time>2021-08-08T09:01:37Z</time>
      </trkpt>
      <trkpt lat="47.9609" lon="-2.60039">
        <ele>43.8</ele>
        <time>2021-08-08T09:01:38Z</time>
      </trkpt>
      <trkpt lat="47.96091" lon="-2.60045">
        <ele>43.8</ele>
        <time>2021-08-08T09:01:39Z</time>
      </trkpt>
      <trkpt lat="47.96093" lon="-2.60051">
        <ele>43.8</ele>
        <time>2021-08-08T09:01:40Z</time>
      </trkpt>
      <trkpt lat="47.96095" lon="-2.60058">
        <ele>43.8</ele>
        <time>2021-08-08T09:01:41Z</time>
      </trkpt>
      <trkpt lat="47.96097" lon="-2.60065">
        <ele>43.8</ele>
        <time>2021-08-08T09:01:42Z</time>
      </trkpt>
      <trkpt lat="47.96098" lon="-2.60073">
        <ele>43.8</ele>
        <time>2021-08-08T09:01:43Z</time>
      </trkpt>
      <trkpt lat="47.961" lon="-2.6008">
        <ele>43.8</ele>
        <time>2021-08-08T09:01:44Z</time>
      </trkpt>
      <trkpt lat="47.96101" lon="-2.60088">
        <ele>43.8</ele>
        <time>2021-08-08T09:01:45Z</time>
      </trkpt>
      <trkpt lat="47.96103" lon="-2.60095">
        <ele>43.8</ele>
        <time>2021-08-08T09:01:46Z</time>
      </trkpt>
      <trkpt lat="47.96104" lon="-2.60103">
        <ele>44</ele>
        <time>2021-08-08T09:01:47Z</time>
      </trkpt>
      <trkpt lat="47.96106" lon="-2.6011">
        <ele>44</ele>
        <time>2021-08-08T09:01:48Z</time>
      </trkpt>
      <trkpt lat="47.96108" lon="-2.60117">
        <ele>44</ele>
        <time>2021-08-08T09:01:49Z</time>
      </trkpt>
      <trkpt lat="47.9611" lon="-2.60124">
        <ele>44</ele>
        <time>2021-08-08T09:01:50Z</time>
      </trkpt>
      <trkpt lat="47.96111" lon="-2.60131">
        <ele>44</ele>
        <time>2021-08-08T09:01:51Z</time>
      </trkpt>
      <trkpt lat="47.96113" lon="-2.60139">
        <ele>44</ele>
        <time>2021-08-08T09:01:52Z</time>
      </trkpt>
      <trkpt lat="47.96114" lon="-2.60146">
        <ele>44</ele>
        <time>2021-08-08T09:01:53Z</time>
      </trkpt>
      <trkpt lat="47.96115" lon="-2.60153">
        <ele>43.8</ele>
        <time>2021-08-08T09:01:54Z</time>
      </trkpt>
      <trkpt lat="47.96116" lon="-2.60161">
        <ele>43.8</ele>
        <time>2021-08-08T09:01:55Z</time>
      </trkpt>
      <trkpt lat="47.96118" lon="-2.60168">
        <ele>43.8</ele>
        <time>2021-08-08T09:01:56Z</time>
      </trkpt>
      <trkpt lat="47.96119" lon="-2.60175">
        <ele>43.6</ele>
        <time>2021-08-08T09:01:57Z</time>
      </trkpt>
      <trkpt lat="47.96119" lon="-2.60182">
        <ele>43.6</ele>
        <time>2021-08-08T09:01:58Z</time>
      </trkpt>
      <trkpt lat="47.9612" lon="-2.6019">
        <ele>43.6</ele>
        <time>2021-08-08T09:01:59Z</time>
      </trkpt>
      <trkpt lat="47.96121" lon="-2.60197">
        <ele>43.6</ele>
        <time>2021-08-08T09:02:00Z</time>
      </trkpt>
      <trkpt lat="47.96121" lon="-2.60205">
        <ele>43.6</ele>
        <time>2021-08-08T09:02:01Z</time>
      </trkpt>
      <trkpt lat="47.96122" lon="-2.60212">
        <ele>43.6</ele>
        <time>2021-08-08T09:02:02Z</time>
      </trkpt>
      <trkpt lat="47.96123" lon="-2.6022">
        <ele>43.6</ele>
        <time>2021-08-08T09:02:03Z</time>
      </trkpt>
      <trkpt lat="47.96124" lon="-2.60226">
        <ele>43.4</ele>
        <time>2021-08-08T09:02:04Z</time>
      </trkpt>
      <trkpt lat="47.96124" lon="-2.60233">
        <ele>43.4</ele>
        <time>2021-08-08T09:02:05Z</time>
      </trkpt>
      <trkpt lat="47.96125" lon="-2.6024">
        <ele>43.4</ele>
        <time>2021-08-08T09:02:06Z</time>
      </trkpt>
      <trkpt lat="47.96126" lon="-2.60247">
        <ele>43.4</ele>
        <time>2021-08-08T09:02:07Z</time>
      </trkpt>
      <trkpt lat="47.96127" lon="-2.60253">
        <ele>43.2</ele>
        <time>2021-08-08T09:02:08Z</time>
      </trkpt>
      <trkpt lat="47.96127" lon="-2.60259">
        <ele>43.4</ele>
        <time>2021-08-08T09:02:09Z</time>
      </trkpt>
      <trkpt lat="47.96128" lon="-2.60266">
        <ele>43.4</ele>
        <time>2021-08-08T09:02:10Z</time>
      </trkpt>
      <trkpt lat="47.96129" lon="-2.60272">
        <ele>43.6</ele>
        <time>2021-08-08T09:02:11Z</time>
      </trkpt>
      <trkpt lat="47.9613" lon="-2.6028">
        <ele>43.6</ele>
        <time>2021-08-08T09:02:12Z</time>
      </trkpt>
      <trkpt lat="47.96131" lon="-2.60287">
        <ele>43.8</ele>
        <time>2021-08-08T09:02:13Z</time>
      </trkpt>
      <trkpt lat="47.96133" lon="-2.60294">
        <ele>43.8</ele>
        <time>2021-08-08T09:02:14Z</time>
      </trkpt>
      <trkpt lat="47.96134" lon="-2.60302">
        <ele>43.8</ele>
        <time>2021-08-08T09:02:15Z</time>
      </trkpt>
      <trkpt lat="47.96136" lon="-2.60309">
        <ele>43.8</ele>
        <time>2021-08-08T09:02:16Z</time>
      </trkpt>
      <trkpt lat="47.96138" lon="-2.60317">
        <ele>43.8</ele>
        <time>2021-08-08T09:02:17Z</time>
      </trkpt>
      <trkpt lat="47.96139" lon="-2.60324">
        <ele>43.8</ele>
        <time>2021-08-08T09:02:18Z</time>
      </trkpt>
      <trkpt lat="47.96141" lon="-2.60332">
        <ele>43.6</ele>
        <time>2021-08-08T09:02:19Z</time>
      </trkpt>
      <trkpt lat="47.96142" lon="-2.60339">
        <ele>43.4</ele>
        <time>2021-08-08T09:02:20Z</time>
      </trkpt>
      <trkpt lat="47.96143" lon="-2.60347">
        <ele>43.4</ele>
        <time>2021-08-08T09:02:21Z</time>
      </trkpt>
      <trkpt lat="47.96145" lon="-2.60355">
        <ele>43.4</ele>
        <time>2021-08-08T09:02:22Z</time>
      </trkpt>
      <trkpt lat="47.96146" lon="-2.60362">
        <ele>43.4</ele>
        <time>2021-08-08T09:02:23Z</time>
      </trkpt>
      <trkpt lat="47.96147" lon="-2.6037">
        <ele>43.4</ele>
        <time>2021-08-08T09:02:24Z</time>
      </trkpt>
      <trkpt lat="47.96147" lon="-2.60378">
        <ele>43.2</ele>
        <time>2021-08-08T09:02:25Z</time>
      </trkpt>
      <trkpt lat="47.96148" lon="-2.60385">
        <ele>43.2</ele>
        <time>2021-08-08T09:02:26Z</time>
      </trkpt>
      <trkpt lat="47.96149" lon="-2.60393">
        <ele>43.2</ele>
        <time>2021-08-08T09:02:27Z</time>
      </trkpt>
      <trkpt lat="47.9615" lon="-2.604">
        <ele>43</ele>
        <time>2021-08-08T09:02:28Z</time>
      </trkpt>
      <trkpt lat="47.9615" lon="-2.60407">
        <ele>42.8</ele>
        <time>2021-08-08T09:02:29Z</time>
      </trkpt>
      <trkpt lat="47.96151" lon="-2.60415">
        <ele>42.6</ele>
        <time>2021-08-08T09:02:30Z</time>
      </trkpt>
      <trkpt lat="47.96152" lon="-2.60423">
        <ele>42.4</ele>
        <time>2021-08-08T09:02:31Z</time>
      </trkpt>
      <trkpt lat="47.96153" lon="-2.60431">
        <ele>42.2</ele>
        <time>2021-08-08T09:02:32Z</time>
      </trkpt>
      <trkpt lat="47.96153" lon="-2.60438">
        <ele>42.2</ele>
        <time>2021-08-08T09:02:33Z</time>
      </trkpt>
      <trkpt lat="47.96154" lon="-2.60445">
        <ele>42.2</ele>
        <time>2021-08-08T09:02:34Z</time>
      </trkpt>
      <trkpt lat="47.96154" lon="-2.60452">
        <ele>42.2</ele>
        <time>2021-08-08T09:02:35Z</time>
      </trkpt>
      <trkpt lat="47.96155" lon="-2.6046">
        <ele>42.2</ele>
        <time>2021-08-08T09:02:36Z</time>
      </trkpt>
      <trkpt lat="47.96155" lon="-2.60467">
        <ele>42.2</ele>
        <time>2021-08-08T09:02:37Z</time>
      </trkpt>
      <trkpt lat="47.96156" lon="-2.60474">
        <ele>42.2</ele>
        <time>2021-08-08T09:02:38Z</time>
      </trkpt>
      <trkpt lat="47.96156" lon="-2.60481">
        <ele>42.2</ele>
        <time>2021-08-08T09:02:39Z</time>
      </trkpt>
      <trkpt lat="47.96156" lon="-2.60488">
        <ele>42.2</ele>
        <time>2021-08-08T09:02:40Z</time>
      </trkpt>
      <trkpt lat="47.96156" lon="-2.60495">
        <ele>42.2</ele>
        <time>2021-08-08T09:02:41Z</time>
      </trkpt>
      <trkpt lat="47.96155" lon="-2.60503">
        <ele>42.2</ele>
        <time>2021-08-08T09:02:42Z</time>
      </trkpt>
      <trkpt lat="47.96154" lon="-2.6051">
        <ele>42.2</ele>
        <time>2021-08-08T09:02:43Z</time>
      </trkpt>
      <trkpt lat="47.96153" lon="-2.60517">
        <ele>42.4</ele>
        <time>2021-08-08T09:02:44Z</time>
      </trkpt>
      <trkpt lat="47.96152" lon="-2.60523">
        <ele>42.4</ele>
        <time>2021-08-08T09:02:45Z</time>
      </trkpt>
      <trkpt lat="47.96151" lon="-2.6053">
        <ele>42.6</ele>
        <time>2021-08-08T09:02:46Z</time>
      </trkpt>
      <trkpt lat="47.96149" lon="-2.60537">
        <ele>42.6</ele>
        <time>2021-08-08T09:02:47Z</time>
      </trkpt>
      <trkpt lat="47.96147" lon="-2.60543">
        <ele>43</ele>
        <time>2021-08-08T09:02:48Z</time>
      </trkpt>
      <trkpt lat="47.96145" lon="-2.6055">
        <ele>43.4</ele>
        <time>2021-08-08T09:02:49Z</time>
      </trkpt>
      <trkpt lat="47.96142" lon="-2.60556">
        <ele>43.6</ele>
        <time>2021-08-08T09:02:50Z</time>
      </trkpt>
      <trkpt lat="47.96139" lon="-2.60562">
        <ele>43.8</ele>
        <time>2021-08-08T09:02:51Z</time>
      </trkpt>
      <trkpt lat="47.96135" lon="-2.60568">
        <ele>43.8</ele>
        <time>2021-08-08T09:02:52Z</time>
      </trkpt>
      <trkpt lat="47.96132" lon="-2.60573">
        <ele>43.6</ele>
        <time>2021-08-08T09:02:53Z</time>
      </trkpt>
      <trkpt lat="47.96128" lon="-2.60578">
        <ele>44</ele>
        <time>2021-08-08T09:02:54Z</time>
      </trkpt>
      <trkpt lat="47.96124" lon="-2.60582">
        <ele>44</ele>
        <time>2021-08-08T09:02:55Z</time>
      </trkpt>
      <trkpt lat="47.9612" lon="-2.60586">
        <ele>44</ele>
        <time>2021-08-08T09:02:56Z</time>
      </trkpt>
      <trkpt lat="47.96115" lon="-2.6059">
        <ele>44</ele>
        <time>2021-08-08T09:02:57Z</time>
      </trkpt>
      <trkpt lat="47.96111" lon="-2.60594">
        <ele>44</ele>
        <time>2021-08-08T09:02:58Z</time>
      </trkpt>
      <trkpt lat="47.96106" lon="-2.60598">
        <ele>44</ele>
        <time>2021-08-08T09:02:59Z</time>
      </trkpt>
      <trkpt lat="47.96102" lon="-2.60602">
        <ele>43.8</ele>
        <time>2021-08-08T09:03:00Z</time>
      </trkpt>
      <trkpt lat="47.96097" lon="-2.60606">
        <ele>43.8</ele>
        <time>2021-08-08T09:03:01Z</time>
      </trkpt>
      <trkpt lat="47.96093" lon="-2.60609">
        <ele>44</ele>
        <time>2021-08-08T09:03:02Z</time>
      </trkpt>
      <trkpt lat="47.96088" lon="-2.60613">
        <ele>43.8</ele>
        <time>2021-08-08T09:03:03Z</time>
      </trkpt>
      <trkpt lat="47.96084" lon="-2.60617">
        <ele>43.8</ele>
        <time>2021-08-08T09:03:04Z</time>
      </trkpt>
      <trkpt lat="47.9608" lon="-2.60621">
        <ele>43.8</ele>
        <time>2021-08-08T09:03:05Z</time>
      </trkpt>
      <trkpt lat="47.96076" lon="-2.60624">
        <ele>43.8</ele>
        <time>2021-08-08T09:03:06Z</time>
      </trkpt>
      <trkpt lat="47.96072" lon="-2.60628">
        <ele>43.8</ele>
        <time>2021-08-08T09:03:07Z</time>
      </trkpt>
      <trkpt lat="47.96067" lon="-2.60632">
        <ele>43.8</ele>
        <time>2021-08-08T09:03:08Z</time>
      </trkpt>
      <trkpt lat="47.96063" lon="-2.60635">
        <ele>43.8</ele>
        <time>2021-08-08T09:03:09Z</time>
      </trkpt>
      <trkpt lat="47.96059" lon="-2.60639">
        <ele>44</ele>
        <time>2021-08-08T09:03:10Z</time>
      </trkpt>
      <trkpt lat="47.96055" lon="-2.60643">
        <ele>44</ele>
        <time>2021-08-08T09:03:11Z</time>
      </trkpt>
      <trkpt lat="47.9605" lon="-2.60646">
        <ele>44</ele>
        <time>2021-08-08T09:03:12Z</time>
      </trkpt>
      <trkpt lat="47.96047" lon="-2.6065">
        <ele>43.8</ele>
        <time>2021-08-08T09:03:13Z</time>
      </trkpt>
      <trkpt lat="47.96043" lon="-2.60653">
        <ele>43.8</ele>
        <time>2021-08-08T09:03:14Z</time>
      </trkpt>
      <trkpt lat="47.96039" lon="-2.60657">
        <ele>43.8</ele>
        <time>2021-08-08T09:03:15Z</time>
      </trkpt>
      <trkpt lat="47.96036" lon="-2.6066">
        <ele>43.8</ele>
        <time>2021-08-08T09:03:16Z</time>
      </trkpt>
      <trkpt lat="47.96032" lon="-2.60664">
        <ele>43.8</ele>
        <time>2021-08-08T09:03:17Z</time>
      </trkpt>
      <trkpt lat="47.96027" lon="-2.60668">
        <ele>43.8</ele>
        <time>2021-08-08T09:03:18Z</time>
      </trkpt>
      <trkpt lat="47.96023" lon="-2.60672">
        <ele>43.8</ele>
        <time>2021-08-08T09:03:19Z</time>
      </trkpt>
      <trkpt lat="47.96019" lon="-2.60675">
        <ele>44</ele>
        <time>2021-08-08T09:03:20Z</time>
      </trkpt>
      <trkpt lat="47.96014" lon="-2.60679">
        <ele>44</ele>
        <time>2021-08-08T09:03:21Z</time>
      </trkpt>
      <trkpt lat="47.9601" lon="-2.60682">
        <ele>44</ele>
        <time>2021-08-08T09:03:22Z</time>
      </trkpt>
      <trkpt lat="47.96005" lon="-2.60685">
        <ele>44</ele>
        <time>2021-08-08T09:03:23Z</time>
      </trkpt>
      <trkpt lat="47.96001" lon="-2.60688">
        <ele>44</ele>
        <time>2021-08-08T09:03:24Z</time>
      </trkpt>
      <trkpt lat="47.95997" lon="-2.60692">
        <ele>44</ele>
        <time>2021-08-08T09:03:25Z</time>
      </trkpt>
      <trkpt lat="47.95992" lon="-2.60695">
        <ele>44</ele>
        <time>2021-08-08T09:03:26Z</time>
      </trkpt>
      <trkpt lat="47.95988" lon="-2.60697">
        <ele>44</ele>
        <time>2021-08-08T09:03:27Z</time>
      </trkpt>
      <trkpt lat="47.95983" lon="-2.607">
        <ele>44</ele>
        <time>2021-08-08T09:03:28Z</time>
      </trkpt>
      <trkpt lat="47.95977" lon="-2.60702">
        <ele>44</ele>
        <time>2021-08-08T09:03:29Z</time>
      </trkpt>
      <trkpt lat="47.95972" lon="-2.60705">
        <ele>44</ele>
        <time>2021-08-08T09:03:30Z</time>
      </trkpt>
      <trkpt lat="47.95967" lon="-2.60708">
        <ele>44</ele>
        <time>2021-08-08T09:03:31Z</time>
      </trkpt>
      <trkpt lat="47.95963" lon="-2.6071">
        <ele>44</ele>
        <time>2021-08-08T09:03:32Z</time>
      </trkpt>
      <trkpt lat="47.95958" lon="-2.60713">
        <ele>44</ele>
        <time>2021-08-08T09:03:33Z</time>
      </trkpt>
      <trkpt lat="47.95954" lon="-2.60716">
        <ele>43.8</ele>
        <time>2021-08-08T09:03:34Z</time>
      </trkpt>
      <trkpt lat="47.95949" lon="-2.60718">
        <ele>43.8</ele>
        <time>2021-08-08T09:03:35Z</time>
      </trkpt>
      <trkpt lat="47.95944" lon="-2.60721">
        <ele>43.6</ele>
        <time>2021-08-08T09:03:36Z</time>
      </trkpt>
      <trkpt lat="47.9594" lon="-2.60723">
        <ele>43.4</ele>
        <time>2021-08-08T09:03:37Z</time>
      </trkpt>
      <trkpt lat="47.95935" lon="-2.60726">
        <ele>43.4</ele>
        <time>2021-08-08T09:03:38Z</time>
      </trkpt>
      <trkpt lat="47.95931" lon="-2.60728">
        <ele>43.4</ele>
        <time>2021-08-08T09:03:39Z</time>
      </trkpt>
      <trkpt lat="47.95926" lon="-2.60731">
        <ele>43.2</ele>
        <time>2021-08-08T09:03:40Z</time>
      </trkpt>
      <trkpt lat="47.95922" lon="-2.60733">
        <ele>43</ele>
        <time>2021-08-08T09:03:41Z</time>
      </trkpt>
      <trkpt lat="47.95917" lon="-2.60736">
        <ele>43</ele>
        <time>2021-08-08T09:03:42Z</time>
      </trkpt>
      <trkpt lat="47.95913" lon="-2.60739">
        <ele>43</ele>
        <time>2021-08-08T09:03:43Z</time>
      </trkpt>
      <trkpt lat="47.95908" lon="-2.60741">
        <ele>43</ele>
        <time>2021-08-08T09:03:44Z</time>
      </trkpt>
      <trkpt lat="47.95904" lon="-2.60744">
        <ele>43</ele>
        <time>2021-08-08T09:03:45Z</time>
      </trkpt>
      <trkpt lat="47.959" lon="-2.60747">
        <ele>43.2</ele>
        <time>2021-08-08T09:03:46Z</time>
      </trkpt>
      <trkpt lat="47.95895" lon="-2.6075">
        <ele>43.2</ele>
        <time>2021-08-08T09:03:47Z</time>
      </trkpt>
      <trkpt lat="47.95891" lon="-2.60754">
        <ele>43.2</ele>
        <time>2021-08-08T09:03:48Z</time>
      </trkpt>
      <trkpt lat="47.95887" lon="-2.60757">
        <ele>43.2</ele>
        <time>2021-08-08T09:03:49Z</time>
      </trkpt>
      <trkpt lat="47.95883" lon="-2.60761">
        <ele>43.2</ele>
        <time>2021-08-08T09:03:50Z</time>
      </trkpt>
      <trkpt lat="47.95879" lon="-2.60765">
        <ele>43.2</ele>
        <time>2021-08-08T09:03:51Z</time>
      </trkpt>
      <trkpt lat="47.95875" lon="-2.60769">
        <ele>43.2</ele>
        <time>2021-08-08T09:03:52Z</time>
      </trkpt>
      <trkpt lat="47.95872" lon="-2.60774">
        <ele>43.2</ele>
        <time>2021-08-08T09:03:53Z</time>
      </trkpt>
      <trkpt lat="47.95868" lon="-2.60778">
        <ele>43.2</ele>
        <time>2021-08-08T09:03:54Z</time>
      </trkpt>
      <trkpt lat="47.95865" lon="-2.60783">
        <ele>43.2</ele>
        <time>2021-08-08T09:03:55Z</time>
      </trkpt>
      <trkpt lat="47.95862" lon="-2.60788">
        <ele>43.2</ele>
        <time>2021-08-08T09:03:56Z</time>
      </trkpt>
      <trkpt lat="47.95858" lon="-2.60793">
        <ele>43.2</ele>
        <time>2021-08-08T09:03:57Z</time>
      </trkpt>
      <trkpt lat="47.95855" lon="-2.60799">
        <ele>43</ele>
        <time>2021-08-08T09:03:58Z</time>
      </trkpt>
      <trkpt lat="47.95852" lon="-2.60805">
        <ele>42.8</ele>
        <time>2021-08-08T09:03:59Z</time>
      </trkpt>
      <trkpt lat="47.95849" lon="-2.6081">
        <ele>42.8</ele>
        <time>2021-08-08T09:04:00Z</time>
      </trkpt>
      <trkpt lat="47.95847" lon="-2.60816">
        <ele>42.8</ele>
        <time>2021-08-08T09:04:01Z</time>
      </trkpt>
      <trkpt lat="47.95844" lon="-2.60822">
        <ele>42.6</ele>
        <time>2021-08-08T09:04:02Z</time>
      </trkpt>
      <trkpt lat="47.95842" lon="-2.60829">
        <ele>42.6</ele>
        <time>2021-08-08T09:04:03Z</time>
      </trkpt>
      <trkpt lat="47.9584" lon="-2.60835">
        <ele>42.2</ele>
        <time>2021-08-08T09:04:04Z</time>
      </trkpt>
      <trkpt lat="47.95838" lon="-2.60841">
        <ele>42.2</ele>
        <time>2021-08-08T09:04:05Z</time>
      </trkpt>
      <trkpt lat="47.95836" lon="-2.60848">
        <ele>42.2</ele>
        <time>2021-08-08T09:04:06Z</time>
      </trkpt>
      <trkpt lat="47.95834" lon="-2.60855">
        <ele>42.2</ele>
        <time>2021-08-08T09:04:07Z</time>
      </trkpt>
      <trkpt lat="47.95833" lon="-2.60861">
        <ele>42.2</ele>
        <time>2021-08-08T09:04:08Z</time>
      </trkpt>
      <trkpt lat="47.95831" lon="-2.60868">
        <ele>42.2</ele>
        <time>2021-08-08T09:04:09Z</time>
      </trkpt>
      <trkpt lat="47.9583" lon="-2.60875">
        <ele>42.2</ele>
        <time>2021-08-08T09:04:10Z</time>
      </trkpt>
      <trkpt lat="47.95829" lon="-2.60882">
        <ele>42</ele>
        <time>2021-08-08T09:04:11Z</time>
      </trkpt>
      <trkpt lat="47.95828" lon="-2.60888">
        <ele>42.2</ele>
        <time>2021-08-08T09:04:12Z</time>
      </trkpt>
      <trkpt lat="47.95827" lon="-2.60894">
        <ele>42</ele>
        <time>2021-08-08T09:04:13Z</time>
      </trkpt>
      <trkpt lat="47.95826" lon="-2.60901">
        <ele>42</ele>
        <time>2021-08-08T09:04:14Z</time>
      </trkpt>
      <trkpt lat="47.95825" lon="-2.60908">
        <ele>42</ele>
        <time>2021-08-08T09:04:15Z</time>
      </trkpt>
      <trkpt lat="47.95824" lon="-2.60914">
        <ele>42</ele>
        <time>2021-08-08T09:04:16Z</time>
      </trkpt>
      <trkpt lat="47.95823" lon="-2.6092">
        <ele>42.2</ele>
        <time>2021-08-08T09:04:17Z</time>
      </trkpt>
      <trkpt lat="47.95822" lon="-2.60927">
        <ele>42.2</ele>
        <time>2021-08-08T09:04:18Z</time>
      </trkpt>
      <trkpt lat="47.95821" lon="-2.60933">
        <ele>42.2</ele>
        <time>2021-08-08T09:04:19Z</time>
      </trkpt>
      <trkpt lat="47.9582" lon="-2.6094">
        <ele>42.2</ele>
        <time>2021-08-08T09:04:20Z</time>
      </trkpt>
      <trkpt lat="47.95819" lon="-2.60947">
        <ele>42.2</ele>
        <time>2021-08-08T09:04:21Z</time>
      </trkpt>
      <trkpt lat="47.95818" lon="-2.60954">
        <ele>42.2</ele>
        <time>2021-08-08T09:04:22Z</time>
      </trkpt>
      <trkpt lat="47.95817" lon="-2.60961">
        <ele>42.4</ele>
        <time>2021-08-08T09:04:23Z</time>
      </trkpt>
      <trkpt lat="47.95816" lon="-2.60968">
        <ele>42.4</ele>
        <time>2021-08-08T09:04:24Z</time>
      </trkpt>
      <trkpt lat="47.95815" lon="-2.60975">
        <ele>42.4</ele>
        <time>2021-08-08T09:04:25Z</time>
      </trkpt>
      <trkpt lat="47.95814" lon="-2.60982">
        <ele>42.4</ele>
        <time>2021-08-08T09:04:26Z</time>
      </trkpt>
      <trkpt lat="47.95813" lon="-2.60989">
        <ele>42.6</ele>
        <time>2021-08-08T09:04:27Z</time>
      </trkpt>
      <trkpt lat="47.95812" lon="-2.60996">
        <ele>42.8</ele>
        <time>2021-08-08T09:04:28Z</time>
      </trkpt>
      <trkpt lat="47.95811" lon="-2.61003">
        <ele>42.8</ele>
        <time>2021-08-08T09:04:29Z</time>
      </trkpt>
      <trkpt lat="47.9581" lon="-2.6101">
        <ele>43</ele>
        <time>2021-08-08T09:04:30Z</time>
      </trkpt>
      <trkpt lat="47.95809" lon="-2.61017">
        <ele>43.2</ele>
        <time>2021-08-08T09:04:31Z</time>
      </trkpt>
      <trkpt lat="47.95808" lon="-2.61024">
        <ele>43.4</ele>
        <time>2021-08-08T09:04:32Z</time>
      </trkpt>
      <trkpt lat="47.95807" lon="-2.61031">
        <ele>43.4</ele>
        <time>2021-08-08T09:04:33Z</time>
      </trkpt>
      <trkpt lat="47.95806" lon="-2.61038">
        <ele>43.4</ele>
        <time>2021-08-08T09:04:34Z</time>
      </trkpt>
      <trkpt lat="47.95804" lon="-2.61045">
        <ele>43.4</ele>
        <time>2021-08-08T09:04:35Z</time>
      </trkpt>
      <trkpt lat="47.95803" lon="-2.61052">
        <ele>43.4</ele>
        <time>2021-08-08T09:04:36Z</time>
      </trkpt>
      <trkpt lat="47.95802" lon="-2.61059">
        <ele>43.2</ele>
        <time>2021-08-08T09:04:37Z</time>
      </trkpt>
      <trkpt lat="47.95801" lon="-2.61066">
        <ele>43.2</ele>
        <time>2021-08-08T09:04:38Z</time>
      </trkpt>
      <trkpt lat="47.958" lon="-2.61073">
        <ele>43.2</ele>
        <time>2021-08-08T09:04:39Z</time>
      </trkpt>
      <trkpt lat="47.95799" lon="-2.61079">
        <ele>43.2</ele>
        <time>2021-08-08T09:04:40Z</time>
      </trkpt>
      <trkpt lat="47.95799" lon="-2.61086">
        <ele>43.2</ele>
        <time>2021-08-08T09:04:41Z</time>
      </trkpt>
      <trkpt lat="47.95798" lon="-2.61092">
        <ele>43.2</ele>
        <time>2021-08-08T09:04:42Z</time>
      </trkpt>
      <trkpt lat="47.95797" lon="-2.61099">
        <ele>43.2</ele>
        <time>2021-08-08T09:04:43Z</time>
      </trkpt>
      <trkpt lat="47.95795" lon="-2.61106">
        <ele>43</ele>
        <time>2021-08-08T09:04:44Z</time>
      </trkpt>
      <trkpt lat="47.95794" lon="-2.61113">
        <ele>43</ele>
        <time>2021-08-08T09:04:45Z</time>
      </trkpt>
      <trkpt lat="47.95794" lon="-2.6112">
        <ele>43</ele>
        <time>2021-08-08T09:04:46Z</time>
      </trkpt>
      <trkpt lat="47.95793" lon="-2.61127">
        <ele>42.8</ele>
        <time>2021-08-08T09:04:47Z</time>
      </trkpt>
      <trkpt lat="47.95791" lon="-2.61134">
        <ele>42.6</ele>
        <time>2021-08-08T09:04:48Z</time>
      </trkpt>
      <trkpt lat="47.9579" lon="-2.61141">
        <ele>42.6</ele>
        <time>2021-08-08T09:04:49Z</time>
      </trkpt>
      <trkpt lat="47.9579" lon="-2.61148">
        <ele>42.6</ele>
        <time>2021-08-08T09:04:50Z</time>
      </trkpt>
      <trkpt lat="47.95789" lon="-2.61155">
        <ele>42.4</ele>
        <time>2021-08-08T09:04:51Z</time>
      </trkpt>
      <trkpt lat="47.95788" lon="-2.61161">
        <ele>42.4</ele>
        <time>2021-08-08T09:04:52Z</time>
      </trkpt>
      <trkpt lat="47.95787" lon="-2.61168">
        <ele>42.4</ele>
        <time>2021-08-08T09:04:53Z</time>
      </trkpt>
      <trkpt lat="47.95787" lon="-2.61174">
        <ele>42.4</ele>
        <time>2021-08-08T09:04:54Z</time>
      </trkpt>
      <trkpt lat="47.95787" lon="-2.61181">
        <ele>42.4</ele>
        <time>2021-08-08T09:04:55Z</time>
      </trkpt>
      <trkpt lat="47.95787" lon="-2.61187">
        <ele>42.4</ele>
        <time>2021-08-08T09:04:56Z</time>
      </trkpt>
      <trkpt lat="47.95787" lon="-2.61193">
        <ele>42.4</ele>
        <time>2021-08-08T09:04:57Z</time>
      </trkpt>
      <trkpt lat="47.95787" lon="-2.612">
        <ele>42.4</ele>
        <time>2021-08-08T09:04:58Z</time>
      </trkpt>
      <trkpt lat="47.95787" lon="-2.61206">
        <ele>42.4</ele>
        <time>2021-08-08T09:04:59Z</time>
      </trkpt>
      <trkpt lat="47.95787" lon="-2.61212">
        <ele>42.6</ele>
        <time>2021-08-08T09:05:00Z</time>
      </trkpt>
      <trkpt lat="47.95788" lon="-2.61218">
        <ele>42.8</ele>
        <time>2021-08-08T09:05:01Z</time>
      </trkpt>
      <trkpt lat="47.95789" lon="-2.61225">
        <ele>42.8</ele>
        <time>2021-08-08T09:05:02Z</time>
      </trkpt>
      <trkpt lat="47.9579" lon="-2.61231">
        <ele>43</ele>
        <time>2021-08-08T09:05:03Z</time>
      </trkpt>
      <trkpt lat="47.9579" lon="-2.61237">
        <ele>43.2</ele>
        <time>2021-08-08T09:05:04Z</time>
      </trkpt>
      <trkpt lat="47.95791" lon="-2.61244">
        <ele>43.2</ele>
        <time>2021-08-08T09:05:05Z</time>
      </trkpt>
      <trkpt lat="47.95791" lon="-2.61251">
        <ele>43.4</ele>
        <time>2021-08-08T09:05:06Z</time>
      </trkpt>
      <trkpt lat="47.95791" lon="-2.61258">
        <ele>43.6</ele>
        <time>2021-08-08T09:05:07Z</time>
      </trkpt>
      <trkpt lat="47.95792" lon="-2.61264">
        <ele>43.6</ele>
        <time>2021-08-08T09:05:08Z</time>
      </trkpt>
      <trkpt lat="47.95793" lon="-2.6127">
        <ele>43.6</ele>
        <time>2021-08-08T09:05:09Z</time>
      </trkpt>
      <trkpt lat="47.95793" lon="-2.61277">
        <ele>43.8</ele>
        <time>2021-08-08T09:05:10Z</time>
      </trkpt>
      <trkpt lat="47.95794" lon="-2.61283">
        <ele>43.8</ele>
        <time>2021-08-08T09:05:11Z</time>
      </trkpt>
      <trkpt lat="47.95794" lon="-2.6129">
        <ele>44</ele>
        <time>2021-08-08T09:05:12Z</time>
      </trkpt>
      <trkpt lat="47.95795" lon="-2.61297">
        <ele>44</ele>
        <time>2021-08-08T09:05:13Z</time>
      </trkpt>
      <trkpt lat="47.95796" lon="-2.61303">
        <ele>44</ele>
        <time>2021-08-08T09:05:14Z</time>
      </trkpt>
      <trkpt lat="47.95796" lon="-2.61309">
        <ele>44.2</ele>
        <time>2021-08-08T09:05:15Z</time>
      </trkpt>
      <trkpt lat="47.95797" lon="-2.61316">
        <ele>44.4</ele>
        <time>2021-08-08T09:05:16Z</time>
      </trkpt>
      <trkpt lat="47.95797" lon="-2.61322">
        <ele>44.6</ele>
        <time>2021-08-08T09:05:17Z</time>
      </trkpt>
      <trkpt lat="47.95798" lon="-2.61329">
        <ele>44.8</ele>
        <time>2021-08-08T09:05:18Z</time>
      </trkpt>
      <trkpt lat="47.95798" lon="-2.61335">
        <ele>44.8</ele>
        <time>2021-08-08T09:05:19Z</time>
      </trkpt>
      <trkpt lat="47.95799" lon="-2.61342">
        <ele>45</ele>
        <time>2021-08-08T09:05:20Z</time>
      </trkpt>
      <trkpt lat="47.95799" lon="-2.61348">
        <ele>45</ele>
        <time>2021-08-08T09:05:21Z</time>
      </trkpt>
      <trkpt lat="47.958" lon="-2.61355">
        <ele>44.8</ele>
        <time>2021-08-08T09:05:22Z</time>
      </trkpt>
      <trkpt lat="47.958" lon="-2.61361">
        <ele>44.8</ele>
        <time>2021-08-08T09:05:23Z</time>
      </trkpt>
      <trkpt lat="47.95801" lon="-2.61368">
        <ele>45.2</ele>
        <time>2021-08-08T09:05:24Z</time>
      </trkpt>
      <trkpt lat="47.95801" lon="-2.61375">
        <ele>45</ele>
        <time>2021-08-08T09:05:25Z</time>
      </trkpt>
      <trkpt lat="47.95802" lon="-2.61382">
        <ele>45</ele>
        <time>2021-08-08T09:05:26Z</time>
      </trkpt>
      <trkpt lat="47.95802" lon="-2.61388">
        <ele>45.2</ele>
        <time>2021-08-08T09:05:27Z</time>
      </trkpt>
      <trkpt lat="47.95803" lon="-2.61395">
        <ele>45.2</ele>
        <time>2021-08-08T09:05:28Z</time>
      </trkpt>
      <trkpt lat="47.95804" lon="-2.61402">
        <ele>45.2</ele>
        <time>2021-08-08T09:05:29Z</time>
      </trkpt>
      <trkpt lat="47.95804" lon="-2.61409">
        <ele>45.2</ele>
        <time>2021-08-08T09:05:30Z</time>
      </trkpt>
      <trkpt lat="47.95805" lon="-2.61416">
        <ele>45.2</ele>
        <time>2021-08-08T09:05:31Z</time>
      </trkpt>
      <trkpt lat="47.95805" lon="-2.61423">
        <ele>45.2</ele>
        <time>2021-08-08T09:05:32Z</time>
      </trkpt>
      <trkpt lat="47.95805" lon="-2.6143">
        <ele>45.2</ele>
        <time>2021-08-08T09:05:33Z</time>
      </trkpt>
      <trkpt lat="47.95806" lon="-2.61437">
        <ele>45.2</ele>
        <time>2021-08-08T09:05:34Z</time>
      </trkpt>
      <trkpt lat="47.95806" lon="-2.61444">
        <ele>45.2</ele>
        <time>2021-08-08T09:05:35Z</time>
      </trkpt>
      <trkpt lat="47.95806" lon="-2.6145">
        <ele>45.2</ele>
        <time>2021-08-08T09:05:36Z</time>
      </trkpt>
      <trkpt lat="47.95806" lon="-2.61458">
        <ele>45.2</ele>
        <time>2021-08-08T09:05:37Z</time>
      </trkpt>
      <trkpt lat="47.95806" lon="-2.61465">
        <ele>45.2</ele>
        <time>2021-08-08T09:05:38Z</time>
      </trkpt>
      <trkpt lat="47.95805" lon="-2.61472">
        <ele>45.2</ele>
        <time>2021-08-08T09:05:39Z</time>
      </trkpt>
      <trkpt lat="47.95805" lon="-2.61479">
        <ele>45.2</ele>
        <time>2021-08-08T09:05:40Z</time>
      </trkpt>
      <trkpt lat="47.95805" lon="-2.61486">
        <ele>45.2</ele>
        <time>2021-08-08T09:05:41Z</time>
      </trkpt>
      <trkpt lat="47.95804" lon="-2.61493">
        <ele>45.2</ele>
        <time>2021-08-08T09:05:42Z</time>
      </trkpt>
      <trkpt lat="47.95804" lon="-2.61501">
        <ele>45.2</ele>
        <time>2021-08-08T09:05:43Z</time>
      </trkpt>
      <trkpt lat="47.95803" lon="-2.61508">
        <ele>45.2</ele>
        <time>2021-08-08T09:05:44Z</time>
      </trkpt>
      <trkpt lat="47.95803" lon="-2.61515">
        <ele>45.2</ele>
        <time>2021-08-08T09:05:45Z</time>
      </trkpt>
      <trkpt lat="47.95802" lon="-2.61521">
        <ele>45.2</ele>
        <time>2021-08-08T09:05:46Z</time>
      </trkpt>
      <trkpt lat="47.95802" lon="-2.61528">
        <ele>45.2</ele>
        <time>2021-08-08T09:05:47Z</time>
      </trkpt>
      <trkpt lat="47.95801" lon="-2.61535">
        <ele>45.2</ele>
        <time>2021-08-08T09:05:48Z</time>
      </trkpt>
      <trkpt lat="47.95801" lon="-2.61541">
        <ele>45</ele>
        <time>2021-08-08T09:05:49Z</time>
      </trkpt>
      <trkpt lat="47.958" lon="-2.61547">
        <ele>45</ele>
        <time>2021-08-08T09:05:50Z</time>
      </trkpt>
      <trkpt lat="47.958" lon="-2.61553">
        <ele>45</ele>
        <time>2021-08-08T09:05:51Z</time>
      </trkpt>
      <trkpt lat="47.95799" lon="-2.61559">
        <ele>45</ele>
        <time>2021-08-08T09:05:52Z</time>
      </trkpt>
      <trkpt lat="47.95798" lon="-2.61566">
        <ele>44.8</ele>
        <time>2021-08-08T09:05:53Z</time>
      </trkpt>
      <trkpt lat="47.95798" lon="-2.61573">
        <ele>44.8</ele>
        <time>2021-08-08T09:05:54Z</time>
      </trkpt>
      <trkpt lat="47.95798" lon="-2.6158">
        <ele>44.8</ele>
        <time>2021-08-08T09:05:55Z</time>
      </trkpt>
      <trkpt lat="47.95797" lon="-2.61586">
        <ele>44.8</ele>
        <time>2021-08-08T09:05:56Z</time>
      </trkpt>
      <trkpt lat="47.95797" lon="-2.61592">
        <ele>44.8</ele>
        <time>2021-08-08T09:05:57Z</time>
      </trkpt>
      <trkpt lat="47.95797" lon="-2.61599">
        <ele>44.6</ele>
        <time>2021-08-08T09:05:58Z</time>
      </trkpt>
      <trkpt lat="47.95796" lon="-2.61607">
        <ele>44.6</ele>
        <time>2021-08-08T09:05:59Z</time>
      </trkpt>
      <trkpt lat="47.95796" lon="-2.61614">
        <ele>44.6</ele>
        <time>2021-08-08T09:06:00Z</time>
      </trkpt>
      <trkpt lat="47.95795" lon="-2.61621">
        <ele>44.6</ele>
        <time>2021-08-08T09:06:01Z</time>
      </trkpt>
      <trkpt lat="47.95795" lon="-2.61628">
        <ele>44.8</ele>
        <time>2021-08-08T09:06:02Z</time>
      </trkpt>
      <trkpt lat="47.95794" lon="-2.61635">
        <ele>44.8</ele>
        <time>2021-08-08T09:06:03Z</time>
      </trkpt>
      <trkpt lat="47.95794" lon="-2.61643">
        <ele>44.6</ele>
        <time>2021-08-08T09:06:04Z</time>
      </trkpt>
      <trkpt lat="47.95793" lon="-2.6165">
        <ele>44.6</ele>
        <time>2021-08-08T09:06:05Z</time>
      </trkpt>
      <trkpt lat="47.95793" lon="-2.61658">
        <ele>44.8</ele>
        <time>2021-08-08T09:06:06Z</time>
      </trkpt>
      <trkpt lat="47.95792" lon="-2.61665">
        <ele>44.8</ele>
        <time>2021-08-08T09:06:07Z</time>
      </trkpt>
      <trkpt lat="47.95791" lon="-2.61672">
        <ele>44.8</ele>
        <time>2021-08-08T09:06:08Z</time>
      </trkpt>
      <trkpt lat="47.95791" lon="-2.61679">
        <ele>44.8</ele>
        <time>2021-08-08T09:06:09Z</time>
      </trkpt>
      <trkpt lat="47.95791" lon="-2.61686">
        <ele>44.8</ele>
        <time>2021-08-08T09:06:10Z</time>
      </trkpt>
      <trkpt lat="47.9579" lon="-2.61693">
        <ele>44.8</ele>
        <time>2021-08-08T09:06:11Z</time>
      </trkpt>
      <trkpt lat="47.9579" lon="-2.617">
        <ele>44.8</ele>
        <time>2021-08-08T09:06:12Z</time>
      </trkpt>
      <trkpt lat="47.9579" lon="-2.61707">
        <ele>44.8</ele>
        <time>2021-08-08T09:06:13Z</time>
      </trkpt>
      <trkpt lat="47.9579" lon="-2.61714">
        <ele>44.8</ele>
        <time>2021-08-08T09:06:14Z</time>
      </trkpt>
      <trkpt lat="47.9579" lon="-2.61721">
        <ele>44.8</ele>
        <time>2021-08-08T09:06:15Z</time>
      </trkpt>
      <trkpt lat="47.9579" lon="-2.61727">
        <ele>44.8</ele>
        <time>2021-08-08T09:06:16Z</time>
      </trkpt>
      <trkpt lat="47.95791" lon="-2.61734">
        <ele>44.8</ele>
        <time>2021-08-08T09:06:17Z</time>
      </trkpt>
      <trkpt lat="47.95791" lon="-2.61742">
        <ele>44.8</ele>
        <time>2021-08-08T09:06:18Z</time>
      </trkpt>
      <trkpt lat="47.95792" lon="-2.61749">
        <ele>44.6</ele>
        <time>2021-08-08T09:06:19Z</time>
      </trkpt>
      <trkpt lat="47.95792" lon="-2.61756">
        <ele>44.8</ele>
        <time>2021-08-08T09:06:20Z</time>
      </trkpt>
      <trkpt lat="47.95793" lon="-2.61763">
        <ele>44.6</ele>
        <time>2021-08-08T09:06:21Z</time>
      </trkpt>
      <trkpt lat="47.95794" lon="-2.6177">
        <ele>44.6</ele>
        <time>2021-08-08T09:06:22Z</time>
      </trkpt>
      <trkpt lat="47.95795" lon="-2.61777">
        <ele>44.4</ele>
        <time>2021-08-08T09:06:23Z</time>
      </trkpt>
      <trkpt lat="47.95797" lon="-2.61783">
        <ele>44.4</ele>
        <time>2021-08-08T09:06:24Z</time>
      </trkpt>
      <trkpt lat="47.95798" lon="-2.6179">
        <ele>44.4</ele>
        <time>2021-08-08T09:06:25Z</time>
      </trkpt>
      <trkpt lat="47.958" lon="-2.61797">
        <ele>44.2</ele>
        <time>2021-08-08T09:06:26Z</time>
      </trkpt>
      <trkpt lat="47.95801" lon="-2.61804">
        <ele>44.2</ele>
        <time>2021-08-08T09:06:27Z</time>
      </trkpt>
      <trkpt lat="47.95803" lon="-2.6181">
        <ele>44.4</ele>
        <time>2021-08-08T09:06:28Z</time>
      </trkpt>
      <trkpt lat="47.95804" lon="-2.61817">
        <ele>44.4</ele>
        <time>2021-08-08T09:06:29Z</time>
      </trkpt>
      <trkpt lat="47.95806" lon="-2.61824">
        <ele>44.2</ele>
        <time>2021-08-08T09:06:30Z</time>
      </trkpt>
      <trkpt lat="47.95808" lon="-2.61831">
        <ele>44.4</ele>
        <time>2021-08-08T09:06:31Z</time>
      </trkpt>
      <trkpt lat="47.95809" lon="-2.61837">
        <ele>44.4</ele>
        <time>2021-08-08T09:06:32Z</time>
      </trkpt>
      <trkpt lat="47.95811" lon="-2.61844">
        <ele>44.4</ele>
        <time>2021-08-08T09:06:33Z</time>
      </trkpt>
      <trkpt lat="47.95813" lon="-2.6185">
        <ele>44.4</ele>
        <time>2021-08-08T09:06:34Z</time>
      </trkpt>
      <trkpt lat="47.95816" lon="-2.61856">
        <ele>44.4</ele>
        <time>2021-08-08T09:06:35Z</time>
      </trkpt>
      <trkpt lat="47.95818" lon="-2.61862">
        <ele>44.4</ele>
        <time>2021-08-08T09:06:36Z</time>
      </trkpt>
      <trkpt lat="47.95819" lon="-2.61869">
        <ele>44.4</ele>
        <time>2021-08-08T09:06:37Z</time>
      </trkpt>
      <trkpt lat="47.95821" lon="-2.61876">
        <ele>44.4</ele>
        <time>2021-08-08T09:06:38Z</time>
      </trkpt>
      <trkpt lat="47.95823" lon="-2.61882">
        <ele>44.4</ele>
        <time>2021-08-08T09:06:39Z</time>
      </trkpt>
      <trkpt lat="47.95825" lon="-2.61889">
        <ele>44.6</ele>
        <time>2021-08-08T09:06:40Z</time>
      </trkpt>
      <trkpt lat="47.95827" lon="-2.61895">
        <ele>44.6</ele>
        <time>2021-08-08T09:06:41Z</time>
      </trkpt>
      <trkpt lat="47.95829" lon="-2.61901">
        <ele>44.6</ele>
        <time>2021-08-08T09:06:42Z</time>
      </trkpt>
      <trkpt lat="47.95831" lon="-2.61908">
        <ele>44.8</ele>
        <time>2021-08-08T09:06:43Z</time>
      </trkpt>
      <trkpt lat="47.95832" lon="-2.61915">
        <ele>44.8</ele>
        <time>2021-08-08T09:06:44Z</time>
      </trkpt>
      <trkpt lat="47.95834" lon="-2.61922">
        <ele>44.8</ele>
        <time>2021-08-08T09:06:45Z</time>
      </trkpt>
      <trkpt lat="47.95836" lon="-2.61929">
        <ele>45</ele>
        <time>2021-08-08T09:06:46Z</time>
      </trkpt>
      <trkpt lat="47.95838" lon="-2.61936">
        <ele>45</ele>
        <time>2021-08-08T09:06:47Z</time>
      </trkpt>
      <trkpt lat="47.9584" lon="-2.61943">
        <ele>45</ele>
        <time>2021-08-08T09:06:48Z</time>
      </trkpt>
      <trkpt lat="47.95842" lon="-2.61949">
        <ele>45</ele>
        <time>2021-08-08T09:06:49Z</time>
      </trkpt>
      <trkpt lat="47.95844" lon="-2.61956">
        <ele>45</ele>
        <time>2021-08-08T09:06:50Z</time>
      </trkpt>
      <trkpt lat="47.95846" lon="-2.61963">
        <ele>45</ele>
        <time>2021-08-08T09:06:51Z</time>
      </trkpt>
      <trkpt lat="47.95848" lon="-2.6197">
        <ele>45</ele>
        <time>2021-08-08T09:06:52Z</time>
      </trkpt>
      <trkpt lat="47.95849" lon="-2.61977">
        <ele>45</ele>
        <time>2021-08-08T09:06:53Z</time>
      </trkpt>
      <trkpt lat="47.95851" lon="-2.61983">
        <ele>45</ele>
        <time>2021-08-08T09:06:54Z</time>
      </trkpt>
      <trkpt lat="47.95853" lon="-2.6199">
        <ele>45</ele>
        <time>2021-08-08T09:06:55Z</time>
      </trkpt>
      <trkpt lat="47.95855" lon="-2.61997">
        <ele>45</ele>
        <time>2021-08-08T09:06:56Z</time>
      </trkpt>
      <trkpt lat="47.95857" lon="-2.62003">
        <ele>45</ele>
        <time>2021-08-08T09:06:57Z</time>
      </trkpt>
      <trkpt lat="47.95858" lon="-2.62009">
        <ele>45</ele>
        <time>2021-08-08T09:06:58Z</time>
      </trkpt>
      <trkpt lat="47.9586" lon="-2.62016">
        <ele>45</ele>
        <time>2021-08-08T09:06:59Z</time>
      </trkpt>
      <trkpt lat="47.95862" lon="-2.62021">
        <ele>45</ele>
        <time>2021-08-08T09:07:00Z</time>
      </trkpt>
      <trkpt lat="47.95864" lon="-2.62027">
        <ele>45</ele>
        <time>2021-08-08T09:07:01Z</time>
      </trkpt>
      <trkpt lat="47.95866" lon="-2.62032">
        <ele>45</ele>
        <time>2021-08-08T09:07:02Z</time>
      </trkpt>
      <trkpt lat="47.95867" lon="-2.62038">
        <ele>45</ele>
        <time>2021-08-08T09:07:03Z</time>
      </trkpt>
      <trkpt lat="47.95869" lon="-2.62044">
        <ele>45</ele>
        <time>2021-08-08T09:07:04Z</time>
      </trkpt>
      <trkpt lat="47.95871" lon="-2.62049">
        <ele>45</ele>
        <time>2021-08-08T09:07:05Z</time>
      </trkpt>
      <trkpt lat="47.95872" lon="-2.62055">
        <ele>45.2</ele>
        <time>2021-08-08T09:07:06Z</time>
      </trkpt>
      <trkpt lat="47.95874" lon="-2.6206">
        <ele>45.2</ele>
        <time>2021-08-08T09:07:07Z</time>
      </trkpt>
      <trkpt lat="47.95875" lon="-2.62065">
        <ele>45.2</ele>
        <time>2021-08-08T09:07:08Z</time>
      </trkpt>
      <trkpt lat="47.95877" lon="-2.6207">
        <ele>45.4</ele>
        <time>2021-08-08T09:07:09Z</time>
      </trkpt>
      <trkpt lat="47.95878" lon="-2.62074">
        <ele>45.4</ele>
        <time>2021-08-08T09:07:10Z</time>
      </trkpt>
      <trkpt lat="47.95879" lon="-2.62077">
        <ele>45.6</ele>
        <time>2021-08-08T09:07:11Z</time>
      </trkpt>
      <trkpt lat="47.9588" lon="-2.6208">
        <ele>45.8</ele>
        <time>2021-08-08T09:07:12Z</time>
      </trkpt>
      <trkpt lat="47.9588" lon="-2.62083">
        <ele>46.2</ele>
        <time>2021-08-08T09:07:13Z</time>
      </trkpt>
      <trkpt lat="47.95881" lon="-2.62085">
        <ele>46.2</ele>
        <time>2021-08-08T09:07:14Z</time>
      </trkpt>
      <trkpt lat="47.95882" lon="-2.62087">
        <ele>46.2</ele>
        <time>2021-08-08T09:07:15Z</time>
      </trkpt>
      <trkpt lat="47.95883" lon="-2.62087">
        <ele>46.4</ele>
        <time>2021-08-08T09:07:16Z</time>
      </trkpt>
      <trkpt lat="47.95881" lon="-2.62092">
        <ele>44.6</ele>
        <time>2021-08-08T09:16:02Z</time>
      </trkpt>
      <trkpt lat="47.95882" lon="-2.62094">
        <ele>44.6</ele>
        <time>2021-08-08T09:16:03Z</time>
      </trkpt>
      <trkpt lat="47.95882" lon="-2.62096">
        <ele>44.6</ele>
        <time>2021-08-08T09:16:04Z</time>
      </trkpt>
      <trkpt lat="47.95882" lon="-2.62097">
        <ele>44.6</ele>
        <time>2021-08-08T09:16:05Z</time>
      </trkpt>
      <trkpt lat="47.95883" lon="-2.62099">
        <ele>44.6</ele>
        <time>2021-08-08T09:16:06Z</time>
      </trkpt>
      <trkpt lat="47.95884" lon="-2.62101">
        <ele>44.6</ele>
        <time>2021-08-08T09:16:07Z</time>
      </trkpt>
      <trkpt lat="47.95885" lon="-2.62104">
        <ele>44.6</ele>
        <time>2021-08-08T09:16:08Z</time>
      </trkpt>
      <trkpt lat="47.95886" lon="-2.62107">
        <ele>44.6</ele>
        <time>2021-08-08T09:16:09Z</time>
      </trkpt>
      <trkpt lat="47.95887" lon="-2.62111">
        <ele>44.6</ele>
        <time>2021-08-08T09:16:10Z</time>
      </trkpt>
      <trkpt lat="47.95888" lon="-2.62115">
        <ele>44.6</ele>
        <time>2021-08-08T09:16:11Z</time>
      </trkpt>
      <trkpt lat="47.9589" lon="-2.62119">
        <ele>44.6</ele>
        <time>2021-08-08T09:16:12Z</time>
      </trkpt>
      <trkpt lat="47.95892" lon="-2.62124">
        <ele>44.6</ele>
        <time>2021-08-08T09:16:13Z</time>
      </trkpt>
      <trkpt lat="47.95893" lon="-2.62128">
        <ele>44.6</ele>
        <time>2021-08-08T09:16:14Z</time>
      </trkpt>
      <trkpt lat="47.95895" lon="-2.62133">
        <ele>44.6</ele>
        <time>2021-08-08T09:16:15Z</time>
      </trkpt>
      <trkpt lat="47.95897" lon="-2.62137">
        <ele>44.6</ele>
        <time>2021-08-08T09:16:16Z</time>
      </trkpt>
      <trkpt lat="47.95899" lon="-2.62142">
        <ele>44.4</ele>
        <time>2021-08-08T09:16:17Z</time>
      </trkpt>
      <trkpt lat="47.95901" lon="-2.62146">
        <ele>44.4</ele>
        <time>2021-08-08T09:16:18Z</time>
      </trkpt>
      <trkpt lat="47.95904" lon="-2.62151">
        <ele>44.4</ele>
        <time>2021-08-08T09:16:19Z</time>
      </trkpt>
      <trkpt lat="47.95906" lon="-2.62156">
        <ele>44.4</ele>
        <time>2021-08-08T09:16:20Z</time>
      </trkpt>
      <trkpt lat="47.95908" lon="-2.6216">
        <ele>44.4</ele>
        <time>2021-08-08T09:16:21Z</time>
      </trkpt>
      <trkpt lat="47.95911" lon="-2.62165">
        <ele>44.4</ele>
        <time>2021-08-08T09:16:22Z</time>
      </trkpt>
      <trkpt lat="47.95913" lon="-2.6217">
        <ele>44.4</ele>
        <time>2021-08-08T09:16:23Z</time>
      </trkpt>
      <trkpt lat="47.95916" lon="-2.62175">
        <ele>44.4</ele>
        <time>2021-08-08T09:16:24Z</time>
      </trkpt>
      <trkpt lat="47.95919" lon="-2.62181">
        <ele>44.2</ele>
        <time>2021-08-08T09:16:25Z</time>
      </trkpt>
      <trkpt lat="47.95922" lon="-2.62186">
        <ele>44</ele>
        <time>2021-08-08T09:16:26Z</time>
      </trkpt>
      <trkpt lat="47.95925" lon="-2.62191">
        <ele>44</ele>
        <time>2021-08-08T09:16:27Z</time>
      </trkpt>
      <trkpt lat="47.95927" lon="-2.62196">
        <ele>44</ele>
        <time>2021-08-08T09:16:28Z</time>
      </trkpt>
      <trkpt lat="47.9593" lon="-2.62201">
        <ele>44</ele>
        <time>2021-08-08T09:16:29Z</time>
      </trkpt>
      <trkpt lat="47.95933" lon="-2.62206">
        <ele>44</ele>
        <time>2021-08-08T09:16:30Z</time>
      </trkpt>
      <trkpt lat="47.95936" lon="-2.6221">
        <ele>44</ele>
        <time>2021-08-08T09:16:31Z</time>
      </trkpt>
      <trkpt lat="47.95938" lon="-2.62215">
        <ele>44</ele>
        <time>2021-08-08T09:16:32Z</time>
      </trkpt>
      <trkpt lat="47.95941" lon="-2.6222">
        <ele>44.2</ele>
        <time>2021-08-08T09:16:33Z</time>
      </trkpt>
      <trkpt lat="47.95944" lon="-2.62225">
        <ele>44.2</ele>
        <time>2021-08-08T09:16:34Z</time>
      </trkpt>
      <trkpt lat="47.95947" lon="-2.6223">
        <ele>44.2</ele>
        <time>2021-08-08T09:16:35Z</time>
      </trkpt>
      <trkpt lat="47.9595" lon="-2.62234">
        <ele>44.2</ele>
        <time>2021-08-08T09:16:36Z</time>
      </trkpt>
      <trkpt lat="47.95953" lon="-2.62239">
        <ele>44.2</ele>
        <time>2021-08-08T09:16:37Z</time>
      </trkpt>
      <trkpt lat="47.95956" lon="-2.62243">
        <ele>44.2</ele>
        <time>2021-08-08T09:16:38Z</time>
      </trkpt>
      <trkpt lat="47.9596" lon="-2.62247">
        <ele>44.2</ele>
        <time>2021-08-08T09:16:39Z</time>
      </trkpt>
      <trkpt lat="47.95963" lon="-2.62251">
        <ele>44.2</ele>
        <time>2021-08-08T09:16:40Z</time>
      </trkpt>
      <trkpt lat="47.95966" lon="-2.62255">
        <ele>44.2</ele>
        <time>2021-08-08T09:16:41Z</time>
      </trkpt>
      <trkpt lat="47.9597" lon="-2.62258">
        <ele>44.2</ele>
        <time>2021-08-08T09:16:42Z</time>
      </trkpt>
      <trkpt lat="47.95973" lon="-2.62261">
        <ele>44.2</ele>
        <time>2021-08-08T09:16:43Z</time>
      </trkpt>
      <trkpt lat="47.95977" lon="-2.62264">
        <ele>44.2</ele>
        <time>2021-08-08T09:16:44Z</time>
      </trkpt>
      <trkpt lat="47.95981" lon="-2.62267">
        <ele>44.2</ele>
        <time>2021-08-08T09:16:45Z</time>
      </trkpt>
      <trkpt lat="47.95985" lon="-2.6227">
        <ele>44.4</ele>
        <time>2021-08-08T09:16:46Z</time>
      </trkpt>
      <trkpt lat="47.95989" lon="-2.62272">
        <ele>44.4</ele>
        <time>2021-08-08T09:16:47Z</time>
      </trkpt>
      <trkpt lat="47.95993" lon="-2.62274">
        <ele>44.4</ele>
        <time>2021-08-08T09:16:48Z</time>
      </trkpt>
      <trkpt lat="47.95997" lon="-2.62276">
        <ele>44.4</ele>
        <time>2021-08-08T09:16:49Z</time>
      </trkpt>
      <trkpt lat="47.96001" lon="-2.62277">
        <ele>44.4</ele>
        <time>2021-08-08T09:16:50Z</time>
      </trkpt>
      <trkpt lat="47.96006" lon="-2.62278">
        <ele>44.4</ele>
        <time>2021-08-08T09:16:51Z</time>
      </trkpt>
      <trkpt lat="47.9601" lon="-2.62279">
        <ele>44.4</ele>
        <time>2021-08-08T09:16:52Z</time>
      </trkpt>
      <trkpt lat="47.96014" lon="-2.6228">
        <ele>44.4</ele>
        <time>2021-08-08T09:16:53Z</time>
      </trkpt>
      <trkpt lat="47.96019" lon="-2.6228">
        <ele>44.6</ele>
        <time>2021-08-08T09:16:54Z</time>
      </trkpt>
      <trkpt lat="47.96023" lon="-2.62281">
        <ele>44.6</ele>
        <time>2021-08-08T09:16:55Z</time>
      </trkpt>
      <trkpt lat="47.96028" lon="-2.62281">
        <ele>44.6</ele>
        <time>2021-08-08T09:16:56Z</time>
      </trkpt>
      <trkpt lat="47.96032" lon="-2.62281">
        <ele>44.6</ele>
        <time>2021-08-08T09:16:57Z</time>
      </trkpt>
      <trkpt lat="47.96036" lon="-2.62282">
        <ele>44.4</ele>
        <time>2021-08-08T09:16:58Z</time>
      </trkpt>
      <trkpt lat="47.96041" lon="-2.62283">
        <ele>44.8</ele>
        <time>2021-08-08T09:16:59Z</time>
      </trkpt>
      <trkpt lat="47.96045" lon="-2.62283">
        <ele>44.8</ele>
        <time>2021-08-08T09:17:00Z</time>
      </trkpt>
      <trkpt lat="47.96049" lon="-2.62283">
        <ele>44.8</ele>
        <time>2021-08-08T09:17:01Z</time>
      </trkpt>
      <trkpt lat="47.96053" lon="-2.62283">
        <ele>44.8</ele>
        <time>2021-08-08T09:17:02Z</time>
      </trkpt>
      <trkpt lat="47.96057" lon="-2.62283">
        <ele>44.6</ele>
        <time>2021-08-08T09:17:03Z</time>
      </trkpt>
      <trkpt lat="47.96062" lon="-2.62283">
        <ele>44.6</ele>
        <time>2021-08-08T09:17:04Z</time>
      </trkpt>
      <trkpt lat="47.96066" lon="-2.62284">
        <ele>44.6</ele>
        <time>2021-08-08T09:17:05Z</time>
      </trkpt>
      <trkpt lat="47.96071" lon="-2.62283">
        <ele>44.6</ele>
        <time>2021-08-08T09:17:06Z</time>
      </trkpt>
      <trkpt lat="47.96076" lon="-2.62283">
        <ele>44.8</ele>
        <time>2021-08-08T09:17:07Z</time>
      </trkpt>
      <trkpt lat="47.9608" lon="-2.62282">
        <ele>44.8</ele>
        <time>2021-08-08T09:17:08Z</time>
      </trkpt>
      <trkpt lat="47.96085" lon="-2.62281">
        <ele>44.6</ele>
        <time>2021-08-08T09:17:09Z</time>
      </trkpt>
      <trkpt lat="47.96089" lon="-2.62281">
        <ele>44.6</ele>
        <time>2021-08-08T09:17:10Z</time>
      </trkpt>
      <trkpt lat="47.96094" lon="-2.6228">
        <ele>44.4</ele>
        <time>2021-08-08T09:17:11Z</time>
      </trkpt>
      <trkpt lat="47.96098" lon="-2.62278">
        <ele>44.4</ele>
        <time>2021-08-08T09:17:12Z</time>
      </trkpt>
      <trkpt lat="47.96103" lon="-2.62277">
        <ele>44.4</ele>
        <time>2021-08-08T09:17:13Z</time>
      </trkpt>
      <trkpt lat="47.96107" lon="-2.62275">
        <ele>44.4</ele>
        <time>2021-08-08T09:17:14Z</time>
      </trkpt>
      <trkpt lat="47.96112" lon="-2.62274">
        <ele>44.4</ele>
        <time>2021-08-08T09:17:15Z</time>
      </trkpt>
      <trkpt lat="47.96116" lon="-2.62272">
        <ele>44.4</ele>
        <time>2021-08-08T09:17:16Z</time>
      </trkpt>
      <trkpt lat="47.96121" lon="-2.6227">
        <ele>44.4</ele>
        <time>2021-08-08T09:17:17Z</time>
      </trkpt>
      <trkpt lat="47.96125" lon="-2.62268">
        <ele>44.4</ele>
        <time>2021-08-08T09:17:18Z</time>
      </trkpt>
      <trkpt lat="47.9613" lon="-2.62266">
        <ele>44.4</ele>
        <time>2021-08-08T09:17:19Z</time>
      </trkpt>
      <trkpt lat="47.96134" lon="-2.62264">
        <ele>44.4</ele>
        <time>2021-08-08T09:17:20Z</time>
      </trkpt>
      <trkpt lat="47.96138" lon="-2.62261">
        <ele>44.4</ele>
        <time>2021-08-08T09:17:21Z</time>
      </trkpt>
      <trkpt lat="47.96143" lon="-2.62259">
        <ele>44.4</ele>
        <time>2021-08-08T09:17:22Z</time>
      </trkpt>
      <trkpt lat="47.96147" lon="-2.62256">
        <ele>44.4</ele>
        <time>2021-08-08T09:17:23Z</time>
      </trkpt>
      <trkpt lat="47.96151" lon="-2.62253">
        <ele>44.4</ele>
        <time>2021-08-08T09:17:24Z</time>
      </trkpt>
      <trkpt lat="47.96155" lon="-2.6225">
        <ele>44.4</ele>
        <time>2021-08-08T09:17:25Z</time>
      </trkpt>
      <trkpt lat="47.96159" lon="-2.62248">
        <ele>44.4</ele>
        <time>2021-08-08T09:17:26Z</time>
      </trkpt>
      <trkpt lat="47.96163" lon="-2.62245">
        <ele>44.4</ele>
        <time>2021-08-08T09:17:27Z</time>
      </trkpt>
      <trkpt lat="47.96167" lon="-2.62242">
        <ele>44.4</ele>
        <time>2021-08-08T09:17:28Z</time>
      </trkpt>
      <trkpt lat="47.96171" lon="-2.62238">
        <ele>44.4</ele>
        <time>2021-08-08T09:17:29Z</time>
      </trkpt>
      <trkpt lat="47.96175" lon="-2.62235">
        <ele>44.6</ele>
        <time>2021-08-08T09:17:30Z</time>
      </trkpt>
      <trkpt lat="47.96179" lon="-2.62231">
        <ele>44.6</ele>
        <time>2021-08-08T09:17:31Z</time>
      </trkpt>
      <trkpt lat="47.96183" lon="-2.62227">
        <ele>44.6</ele>
        <time>2021-08-08T09:17:32Z</time>
      </trkpt>
      <trkpt lat="47.96186" lon="-2.62223">
        <ele>44.6</ele>
        <time>2021-08-08T09:17:33Z</time>
      </trkpt>
      <trkpt lat="47.9619" lon="-2.6222">
        <ele>44.6</ele>
        <time>2021-08-08T09:17:34Z</time>
      </trkpt>
      <trkpt lat="47.96194" lon="-2.62216">
        <ele>44.6</ele>
        <time>2021-08-08T09:17:35Z</time>
      </trkpt>
      <trkpt lat="47.96198" lon="-2.62212">
        <ele>44.6</ele>
        <time>2021-08-08T09:17:36Z</time>
      </trkpt>
      <trkpt lat="47.96201" lon="-2.62208">
        <ele>44.6</ele>
        <time>2021-08-08T09:17:37Z</time>
      </trkpt>
      <trkpt lat="47.96205" lon="-2.62203">
        <ele>44.6</ele>
        <time>2021-08-08T09:17:38Z</time>
      </trkpt>
      <trkpt lat="47.96208" lon="-2.62199">
        <ele>44.4</ele>
        <time>2021-08-08T09:17:39Z</time>
      </trkpt>
      <trkpt lat="47.96212" lon="-2.62195">
        <ele>44.4</ele>
        <time>2021-08-08T09:17:40Z</time>
      </trkpt>
      <trkpt lat="47.96215" lon="-2.6219">
        <ele>44.4</ele>
        <time>2021-08-08T09:17:41Z</time>
      </trkpt>
      <trkpt lat="47.96219" lon="-2.62186">
        <ele>44.4</ele>
        <time>2021-08-08T09:17:42Z</time>
      </trkpt>
      <trkpt lat="47.96223" lon="-2.62181">
        <ele>44.4</ele>
        <time>2021-08-08T09:17:43Z</time>
      </trkpt>
      <trkpt lat="47.96227" lon="-2.62177">
        <ele>44.4</ele>
        <time>2021-08-08T09:17:44Z</time>
      </trkpt>
      <trkpt lat="47.9623" lon="-2.62173">
        <ele>44.4</ele>
        <time>2021-08-08T09:17:45Z</time>
      </trkpt>
      <trkpt lat="47.96234" lon="-2.62168">
        <ele>44.4</ele>
        <time>2021-08-08T09:17:46Z</time>
      </trkpt>
      <trkpt lat="47.96238" lon="-2.62164">
        <ele>44.2</ele>
        <time>2021-08-08T09:17:47Z</time>
      </trkpt>
      <trkpt lat="47.96241" lon="-2.62159">
        <ele>44.2</ele>
        <time>2021-08-08T09:17:48Z</time>
      </trkpt>
      <trkpt lat="47.96245" lon="-2.62155">
        <ele>44.2</ele>
        <time>2021-08-08T09:17:49Z</time>
      </trkpt>
      <trkpt lat="47.96249" lon="-2.62151">
        <ele>44.2</ele>
        <time>2021-08-08T09:17:50Z</time>
      </trkpt>
      <trkpt lat="47.96252" lon="-2.62146">
        <ele>44.2</ele>
        <time>2021-08-08T09:17:51Z</time>
      </trkpt>
      <trkpt lat="47.96256" lon="-2.62142">
        <ele>44</ele>
        <time>2021-08-08T09:17:52Z</time>
      </trkpt>
      <trkpt lat="47.9626" lon="-2.62137">
        <ele>44</ele>
        <time>2021-08-08T09:17:53Z</time>
      </trkpt>
      <trkpt lat="47.96264" lon="-2.62133">
        <ele>44</ele>
        <time>2021-08-08T09:17:54Z</time>
      </trkpt>
      <trkpt lat="47.96267" lon="-2.62129">
        <ele>44</ele>
        <time>2021-08-08T09:17:55Z</time>
      </trkpt>
      <trkpt lat="47.96271" lon="-2.62124">
        <ele>44</ele>
        <time>2021-08-08T09:17:56Z</time>
      </trkpt>
      <trkpt lat="47.96275" lon="-2.6212">
        <ele>44</ele>
        <time>2021-08-08T09:17:57Z</time>
      </trkpt>
      <trkpt lat="47.96278" lon="-2.62116">
        <ele>44</ele>
        <time>2021-08-08T09:17:58Z</time>
      </trkpt>
      <trkpt lat="47.96282" lon="-2.62111">
        <ele>44</ele>
        <time>2021-08-08T09:17:59Z</time>
      </trkpt>
      <trkpt lat="47.96285" lon="-2.62107">
        <ele>44</ele>
        <time>2021-08-08T09:18:00Z</time>
      </trkpt>
      <trkpt lat="47.96289" lon="-2.62104">
        <ele>43.8</ele>
        <time>2021-08-08T09:18:01Z</time>
      </trkpt>
      <trkpt lat="47.96293" lon="-2.621">
        <ele>43.8</ele>
        <time>2021-08-08T09:18:02Z</time>
      </trkpt>
      <trkpt lat="47.96296" lon="-2.62095">
        <ele>43.8</ele>
        <time>2021-08-08T09:18:03Z</time>
      </trkpt>
      <trkpt lat="47.963" lon="-2.62091">
        <ele>43.8</ele>
        <time>2021-08-08T09:18:04Z</time>
      </trkpt>
      <trkpt lat="47.96304" lon="-2.62087">
        <ele>43.8</ele>
        <time>2021-08-08T09:18:05Z</time>
      </trkpt>
      <trkpt lat="47.96307" lon="-2.62083">
        <ele>43.8</ele>
        <time>2021-08-08T09:18:06Z</time>
      </trkpt>
      <trkpt lat="47.96311" lon="-2.62079">
        <ele>43.8</ele>
        <time>2021-08-08T09:18:07Z</time>
      </trkpt>
      <trkpt lat="47.96315" lon="-2.62075">
        <ele>43.6</ele>
        <time>2021-08-08T09:18:08Z</time>
      </trkpt>
      <trkpt lat="47.96319" lon="-2.62072">
        <ele>43.6</ele>
        <time>2021-08-08T09:18:09Z</time>
      </trkpt>
      <trkpt lat="47.96323" lon="-2.62068">
        <ele>43.6</ele>
        <time>2021-08-08T09:18:10Z</time>
      </trkpt>
      <trkpt lat="47.96327" lon="-2.62064">
        <ele>43.6</ele>
        <time>2021-08-08T09:18:11Z</time>
      </trkpt>
      <trkpt lat="47.96331" lon="-2.62061">
        <ele>43.6</ele>
        <time>2021-08-08T09:18:12Z</time>
      </trkpt>
      <trkpt lat="47.96334" lon="-2.62057">
        <ele>43.6</ele>
        <time>2021-08-08T09:18:13Z</time>
      </trkpt>
      <trkpt lat="47.96338" lon="-2.62054">
        <ele>43.6</ele>
        <time>2021-08-08T09:18:14Z</time>
      </trkpt>
      <trkpt lat="47.96342" lon="-2.6205">
        <ele>43.6</ele>
        <time>2021-08-08T09:18:15Z</time>
      </trkpt>
      <trkpt lat="47.96346" lon="-2.62047">
        <ele>43.6</ele>
        <time>2021-08-08T09:18:16Z</time>
      </trkpt>
      <trkpt lat="47.9635" lon="-2.62044">
        <ele>43.6</ele>
        <time>2021-08-08T09:18:17Z</time>
      </trkpt>
      <trkpt lat="47.96354" lon="-2.62041">
        <ele>43.8</ele>
        <time>2021-08-08T09:18:18Z</time>
      </trkpt>
      <trkpt lat="47.96358" lon="-2.62038">
        <ele>43.8</ele>
        <time>2021-08-08T09:18:19Z</time>
      </trkpt>
      <trkpt lat="47.96362" lon="-2.62035">
        <ele>44</ele>
        <time>2021-08-08T09:18:20Z</time>
      </trkpt>
      <trkpt lat="47.96366" lon="-2.62033">
        <ele>44</ele>
        <time>2021-08-08T09:18:21Z</time>
      </trkpt>
      <trkpt lat="47.9637" lon="-2.6203">
        <ele>44.2</ele>
        <time>2021-08-08T09:18:22Z</time>
      </trkpt>
      <trkpt lat="47.96374" lon="-2.62027">
        <ele>44.4</ele>
        <time>2021-08-08T09:18:23Z</time>
      </trkpt>
      <trkpt lat="47.96378" lon="-2.62025">
        <ele>44.6</ele>
        <time>2021-08-08T09:18:24Z</time>
      </trkpt>
      <trkpt lat="47.96382" lon="-2.62022">
        <ele>44.6</ele>
        <time>2021-08-08T09:18:25Z</time>
      </trkpt>
      <trkpt lat="47.96386" lon="-2.62019">
        <ele>44.6</ele>
        <time>2021-08-08T09:18:26Z</time>
      </trkpt>
      <trkpt lat="47.9639" lon="-2.62016">
        <ele>44.6</ele>
        <time>2021-08-08T09:18:27Z</time>
      </trkpt>
      <trkpt lat="47.96394" lon="-2.62014">
        <ele>44.8</ele>
        <time>2021-08-08T09:18:28Z</time>
      </trkpt>
      <trkpt lat="47.96398" lon="-2.62011">
        <ele>44.8</ele>
        <time>2021-08-08T09:18:29Z</time>
      </trkpt>
      <trkpt lat="47.96403" lon="-2.62008">
        <ele>44.8</ele>
        <time>2021-08-08T09:18:30Z</time>
      </trkpt>
      <trkpt lat="47.96407" lon="-2.62005">
        <ele>44.8</ele>
        <time>2021-08-08T09:18:31Z</time>
      </trkpt>
      <trkpt lat="47.96411" lon="-2.62003">
        <ele>44.8</ele>
        <time>2021-08-08T09:18:32Z</time>
      </trkpt>
      <trkpt lat="47.96416" lon="-2.62">
        <ele>44.8</ele>
        <time>2021-08-08T09:18:33Z</time>
      </trkpt>
      <trkpt lat="47.9642" lon="-2.61997">
        <ele>44.8</ele>
        <time>2021-08-08T09:18:34Z</time>
      </trkpt>
      <trkpt lat="47.96424" lon="-2.61994">
        <ele>44.8</ele>
        <time>2021-08-08T09:18:35Z</time>
      </trkpt>
      <trkpt lat="47.96429" lon="-2.61991">
        <ele>44.8</ele>
        <time>2021-08-08T09:18:36Z</time>
      </trkpt>
      <trkpt lat="47.96433" lon="-2.61988">
        <ele>44.8</ele>
        <time>2021-08-08T09:18:37Z</time>
      </trkpt>
      <trkpt lat="47.96438" lon="-2.61985">
        <ele>44.8</ele>
        <time>2021-08-08T09:18:38Z</time>
      </trkpt>
      <trkpt lat="47.96442" lon="-2.61982">
        <ele>44.8</ele>
        <time>2021-08-08T09:18:39Z</time>
      </trkpt>
      <trkpt lat="47.96446" lon="-2.61979">
        <ele>44.8</ele>
        <time>2021-08-08T09:18:40Z</time>
      </trkpt>
      <trkpt lat="47.9645" lon="-2.61976">
        <ele>44.8</ele>
        <time>2021-08-08T09:18:41Z</time>
      </trkpt>
      <trkpt lat="47.96455" lon="-2.61973">
        <ele>44.8</ele>
        <time>2021-08-08T09:18:42Z</time>
      </trkpt>
      <trkpt lat="47.96459" lon="-2.6197">
        <ele>44.8</ele>
        <time>2021-08-08T09:18:43Z</time>
      </trkpt>
      <trkpt lat="47.96464" lon="-2.61967">
        <ele>44.8</ele>
        <time>2021-08-08T09:18:44Z</time>
      </trkpt>
      <trkpt lat="47.96468" lon="-2.61965">
        <ele>44.8</ele>
        <time>2021-08-08T09:18:45Z</time>
      </trkpt>
      <trkpt lat="47.96473" lon="-2.61962">
        <ele>44.8</ele>
        <time>2021-08-08T09:18:46Z</time>
      </trkpt>
      <trkpt lat="47.96477" lon="-2.61959">
        <ele>44.8</ele>
        <time>2021-08-08T09:18:47Z</time>
      </trkpt>
      <trkpt lat="47.96482" lon="-2.61957">
        <ele>44.8</ele>
        <time>2021-08-08T09:18:48Z</time>
      </trkpt>
      <trkpt lat="47.96486" lon="-2.61954">
        <ele>44.8</ele>
        <time>2021-08-08T09:18:49Z</time>
      </trkpt>
      <trkpt lat="47.96491" lon="-2.61952">
        <ele>44.8</ele>
        <time>2021-08-08T09:18:50Z</time>
      </trkpt>
      <trkpt lat="47.96496" lon="-2.6195">
        <ele>44.8</ele>
        <time>2021-08-08T09:18:51Z</time>
      </trkpt>
      <trkpt lat="47.96501" lon="-2.61949">
        <ele>44.6</ele>
        <time>2021-08-08T09:18:52Z</time>
      </trkpt>
      <trkpt lat="47.96505" lon="-2.61947">
        <ele>44.6</ele>
        <time>2021-08-08T09:18:53Z</time>
      </trkpt>
      <trkpt lat="47.9651" lon="-2.61945">
        <ele>44.4</ele>
        <time>2021-08-08T09:18:54Z</time>
      </trkpt>
      <trkpt lat="47.96514" lon="-2.61944">
        <ele>44.4</ele>
        <time>2021-08-08T09:18:55Z</time>
      </trkpt>
      <trkpt lat="47.96519" lon="-2.61942">
        <ele>44.4</ele>
        <time>2021-08-08T09:18:56Z</time>
      </trkpt>
      <trkpt lat="47.96524" lon="-2.61941">
        <ele>44.4</ele>
        <time>2021-08-08T09:18:57Z</time>
      </trkpt>
      <trkpt lat="47.96528" lon="-2.6194">
        <ele>44.4</ele>
        <time>2021-08-08T09:18:58Z</time>
      </trkpt>
      <trkpt lat="47.96533" lon="-2.61939">
        <ele>44.4</ele>
        <time>2021-08-08T09:18:59Z</time>
      </trkpt>
      <trkpt lat="47.96538" lon="-2.61939">
        <ele>44.4</ele>
        <time>2021-08-08T09:19:00Z</time>
      </trkpt>
      <trkpt lat="47.96543" lon="-2.6194">
        <ele>44.4</ele>
        <time>2021-08-08T09:19:01Z</time>
      </trkpt>
      <trkpt lat="47.96549" lon="-2.61941">
        <ele>44.4</ele>
        <time>2021-08-08T09:19:02Z</time>
      </trkpt>
      <trkpt lat="47.96556" lon="-2.61942">
        <ele>44.4</ele>
        <time>2021-08-08T09:19:03Z</time>
      </trkpt>
      <trkpt lat="47.96562" lon="-2.6194">
        <ele>44.2</ele>
        <time>2021-08-08T09:19:04Z</time>
      </trkpt>
      <trkpt lat="47.96568" lon="-2.61938">
        <ele>44.2</ele>
        <time>2021-08-08T09:19:05Z</time>
      </trkpt>
      <trkpt lat="47.96573" lon="-2.61935">
        <ele>44.2</ele>
        <time>2021-08-08T09:19:06Z</time>
      </trkpt>
      <trkpt lat="47.96576" lon="-2.61932">
        <ele>44.2</ele>
        <time>2021-08-08T09:19:07Z</time>
      </trkpt>
      <trkpt lat="47.9658" lon="-2.6193">
        <ele>44.2</ele>
        <time>2021-08-08T09:19:08Z</time>
      </trkpt>
      <trkpt lat="47.96583" lon="-2.61928">
        <ele>44.2</ele>
        <time>2021-08-08T09:19:09Z</time>
      </trkpt>
      <trkpt lat="47.96585" lon="-2.61926">
        <ele>44.2</ele>
        <time>2021-08-08T09:19:10Z</time>
      </trkpt>
      <trkpt lat="47.96588" lon="-2.61925">
        <ele>44.2</ele>
        <time>2021-08-08T09:19:11Z</time>
      </trkpt>
      <trkpt lat="47.9659" lon="-2.61925">
        <ele>44.2</ele>
        <time>2021-08-08T09:19:12Z</time>
      </trkpt>
      <trkpt lat="47.96591" lon="-2.61924">
        <ele>44.2</ele>
        <time>2021-08-08T09:19:13Z</time>
      </trkpt>
      <trkpt lat="47.96592" lon="-2.61924">
        <ele>44.2</ele>
        <time>2021-08-08T09:19:14Z</time>
      </trkpt>
      <trkpt lat="47.96592" lon="-2.61923">
        <ele>44.2</ele>
        <time>2021-08-08T09:19:15Z</time>
      </trkpt>
      <trkpt lat="47.96593" lon="-2.61923">
        <ele>46.2</ele>
        <time>2021-08-08T09:19:51Z</time>
      </trkpt>
      <trkpt lat="47.96594" lon="-2.61924">
        <ele>46.2</ele>
        <time>2021-08-08T09:19:52Z</time>
      </trkpt>
      <trkpt lat="47.96595" lon="-2.61925">
        <ele>46.2</ele>
        <time>2021-08-08T09:19:53Z</time>
      </trkpt>
      <trkpt lat="47.96597" lon="-2.61926">
        <ele>46.2</ele>
        <time>2021-08-08T09:19:54Z</time>
      </trkpt>
      <trkpt lat="47.96598" lon="-2.61928">
        <ele>46.2</ele>
        <time>2021-08-08T09:19:55Z</time>
      </trkpt>
      <trkpt lat="47.96599" lon="-2.6193">
        <ele>46.2</ele>
        <time>2021-08-08T09:19:56Z</time>
      </trkpt>
      <trkpt lat="47.966" lon="-2.61933">
        <ele>46.2</ele>
        <time>2021-08-08T09:19:57Z</time>
      </trkpt>
      <trkpt lat="47.96601" lon="-2.61936">
        <ele>46.2</ele>
        <time>2021-08-08T09:19:58Z</time>
      </trkpt>
      <trkpt lat="47.96601" lon="-2.61939">
        <ele>46</ele>
        <time>2021-08-08T09:19:59Z</time>
      </trkpt>
      <trkpt lat="47.96601" lon="-2.61943">
        <ele>46</ele>
        <time>2021-08-08T09:20:00Z</time>
      </trkpt>
      <trkpt lat="47.96601" lon="-2.61947">
        <ele>46</ele>
        <time>2021-08-08T09:20:01Z</time>
      </trkpt>
      <trkpt lat="47.96601" lon="-2.61951">
        <ele>46</ele>
        <time>2021-08-08T09:20:02Z</time>
      </trkpt>
      <trkpt lat="47.96601" lon="-2.61955">
        <ele>46</ele>
        <time>2021-08-08T09:20:03Z</time>
      </trkpt>
      <trkpt lat="47.96601" lon="-2.61959">
        <ele>46</ele>
        <time>2021-08-08T09:20:04Z</time>
      </trkpt>
      <trkpt lat="47.96601" lon="-2.61963">
        <ele>46</ele>
        <time>2021-08-08T09:20:05Z</time>
      </trkpt>
      <trkpt lat="47.96601" lon="-2.61967">
        <ele>46.2</ele>
        <time>2021-08-08T09:20:06Z</time>
      </trkpt>
      <trkpt lat="47.96601" lon="-2.61971">
        <ele>46.2</ele>
        <time>2021-08-08T09:20:07Z</time>
      </trkpt>
      <trkpt lat="47.96601" lon="-2.61976">
        <ele>46.2</ele>
        <time>2021-08-08T09:20:08Z</time>
      </trkpt>
      <trkpt lat="47.96601" lon="-2.61982">
        <ele>46.2</ele>
        <time>2021-08-08T09:20:09Z</time>
      </trkpt>
      <trkpt lat="47.96601" lon="-2.61987">
        <ele>46.2</ele>
        <time>2021-08-08T09:20:10Z</time>
      </trkpt>
      <trkpt lat="47.96601" lon="-2.61992">
        <ele>46.2</ele>
        <time>2021-08-08T09:20:11Z</time>
      </trkpt>
      <trkpt lat="47.96601" lon="-2.61998">
        <ele>46.4</ele>
        <time>2021-08-08T09:20:12Z</time>
      </trkpt>
      <trkpt lat="47.96602" lon="-2.62004">
        <ele>46.4</ele>
        <time>2021-08-08T09:20:13Z</time>
      </trkpt>
      <trkpt lat="47.96603" lon="-2.6201">
        <ele>46.4</ele>
        <time>2021-08-08T09:20:14Z</time>
      </trkpt>
      <trkpt lat="47.96605" lon="-2.62015">
        <ele>46.4</ele>
        <time>2021-08-08T09:20:15Z</time>
      </trkpt>
      <trkpt lat="47.96609" lon="-2.62019">
        <ele>46.4</ele>
        <time>2021-08-08T09:20:16Z</time>
      </trkpt>
      <trkpt lat="47.96614" lon="-2.62023">
        <ele>46.4</ele>
        <time>2021-08-08T09:20:17Z</time>
      </trkpt>
      <trkpt lat="47.9662" lon="-2.62025">
        <ele>46.4</ele>
        <time>2021-08-08T09:20:18Z</time>
      </trkpt>
      <trkpt lat="47.96626" lon="-2.62028">
        <ele>46.4</ele>
        <time>2021-08-08T09:20:19Z</time>
      </trkpt>
      <trkpt lat="47.96631" lon="-2.6203">
        <ele>46.4</ele>
        <time>2021-08-08T09:20:20Z</time>
      </trkpt>
      <trkpt lat="47.96637" lon="-2.62033">
        <ele>46.4</ele>
        <time>2021-08-08T09:20:21Z</time>
      </trkpt>
      <trkpt lat="47.96642" lon="-2.62035">
        <ele>46.2</ele>
        <time>2021-08-08T09:20:22Z</time>
      </trkpt>
      <trkpt lat="47.96648" lon="-2.62038">
        <ele>46.2</ele>
        <time>2021-08-08T09:20:23Z</time>
      </trkpt>
      <trkpt lat="47.96653" lon="-2.62041">
        <ele>45.8</ele>
        <time>2021-08-08T09:20:24Z</time>
      </trkpt>
      <trkpt lat="47.96659" lon="-2.62043">
        <ele>45</ele>
        <time>2021-08-08T09:20:25Z</time>
      </trkpt>
      <trkpt lat="47.96664" lon="-2.62045">
        <ele>44.6</ele>
        <time>2021-08-08T09:20:26Z</time>
      </trkpt>
      <trkpt lat="47.9667" lon="-2.62047">
        <ele>44.2</ele>
        <time>2021-08-08T09:20:27Z</time>
      </trkpt>
      <trkpt lat="47.96675" lon="-2.62049">
        <ele>44</ele>
        <time>2021-08-08T09:20:28Z</time>
      </trkpt>
      <trkpt lat="47.9668" lon="-2.62051">
        <ele>44</ele>
        <time>2021-08-08T09:20:29Z</time>
      </trkpt>
      <trkpt lat="47.96685" lon="-2.62054">
        <ele>43.8</ele>
        <time>2021-08-08T09:20:30Z</time>
      </trkpt>
      <trkpt lat="47.9669" lon="-2.62057">
        <ele>43.6</ele>
        <time>2021-08-08T09:20:31Z</time>
      </trkpt>
      <trkpt lat="47.96696" lon="-2.62059">
        <ele>43.6</ele>
        <time>2021-08-08T09:20:32Z</time>
      </trkpt>
      <trkpt lat="47.96701" lon="-2.62062">
        <ele>43.4</ele>
        <time>2021-08-08T09:20:33Z</time>
      </trkpt>
      <trkpt lat="47.96707" lon="-2.62064">
        <ele>43.2</ele>
        <time>2021-08-08T09:20:34Z</time>
      </trkpt>
      <trkpt lat="47.96713" lon="-2.62067">
        <ele>43.2</ele>
        <time>2021-08-08T09:20:35Z</time>
      </trkpt>
      <trkpt lat="47.96718" lon="-2.62069">
        <ele>43</ele>
        <time>2021-08-08T09:20:36Z</time>
      </trkpt>
      <trkpt lat="47.96724" lon="-2.62072">
        <ele>43</ele>
        <time>2021-08-08T09:20:37Z</time>
      </trkpt>
      <trkpt lat="47.96729" lon="-2.62074">
        <ele>43</ele>
        <time>2021-08-08T09:20:38Z</time>
      </trkpt>
      <trkpt lat="47.96734" lon="-2.62077">
        <ele>42.8</ele>
        <time>2021-08-08T09:20:39Z</time>
      </trkpt>
      <trkpt lat="47.9674" lon="-2.62079">
        <ele>42.8</ele>
        <time>2021-08-08T09:20:40Z</time>
      </trkpt>
      <trkpt lat="47.96746" lon="-2.62081">
        <ele>42.8</ele>
        <time>2021-08-08T09:20:41Z</time>
      </trkpt>
      <trkpt lat="47.96751" lon="-2.62083">
        <ele>42.8</ele>
        <time>2021-08-08T09:20:42Z</time>
      </trkpt>
      <trkpt lat="47.96757" lon="-2.62085">
        <ele>42.6</ele>
        <time>2021-08-08T09:20:43Z</time>
      </trkpt>
      <trkpt lat="47.96762" lon="-2.62087">
        <ele>42.6</ele>
        <time>2021-08-08T09:20:44Z</time>
      </trkpt>
      <trkpt lat="47.96768" lon="-2.62089">
        <ele>42.6</ele>
        <time>2021-08-08T09:20:45Z</time>
      </trkpt>
      <trkpt lat="47.96774" lon="-2.62091">
        <ele>42.6</ele>
        <time>2021-08-08T09:20:46Z</time>
      </trkpt>
      <trkpt lat="47.9678" lon="-2.62092">
        <ele>42.6</ele>
        <time>2021-08-08T09:20:47Z</time>
      </trkpt>
      <trkpt lat="47.96786" lon="-2.62094">
        <ele>42.6</ele>
        <time>2021-08-08T09:20:48Z</time>
      </trkpt>
      <trkpt lat="47.96791" lon="-2.62096">
        <ele>42.6</ele>
        <time>2021-08-08T09:20:49Z</time>
      </trkpt>
      <trkpt lat="47.96797" lon="-2.62098">
        <ele>42.6</ele>
        <time>2021-08-08T09:20:50Z</time>
      </trkpt>
      <trkpt lat="47.96803" lon="-2.621">
        <ele>42.6</ele>
        <time>2021-08-08T09:20:51Z</time>
      </trkpt>
      <trkpt lat="47.96808" lon="-2.62102">
        <ele>42.6</ele>
        <time>2021-08-08T09:20:52Z</time>
      </trkpt>
      <trkpt lat="47.96814" lon="-2.62105">
        <ele>42.6</ele>
        <time>2021-08-08T09:20:53Z</time>
      </trkpt>
      <trkpt lat="47.96819" lon="-2.62109">
        <ele>42.6</ele>
        <time>2021-08-08T09:20:54Z</time>
      </trkpt>
      <trkpt lat="47.96824" lon="-2.62112">
        <ele>42.6</ele>
        <time>2021-08-08T09:20:55Z</time>
      </trkpt>
      <trkpt lat="47.96829" lon="-2.62116">
        <ele>42.6</ele>
        <time>2021-08-08T09:20:56Z</time>
      </trkpt>
      <trkpt lat="47.96834" lon="-2.62121">
        <ele>42.6</ele>
        <time>2021-08-08T09:20:57Z</time>
      </trkpt>
      <trkpt lat="47.96838" lon="-2.62125">
        <ele>42.6</ele>
        <time>2021-08-08T09:20:58Z</time>
      </trkpt>
      <trkpt lat="47.96843" lon="-2.6213">
        <ele>42.6</ele>
        <time>2021-08-08T09:20:59Z</time>
      </trkpt>
      <trkpt lat="47.96847" lon="-2.62135">
        <ele>42.6</ele>
        <time>2021-08-08T09:21:00Z</time>
      </trkpt>
      <trkpt lat="47.96851" lon="-2.6214">
        <ele>42.6</ele>
        <time>2021-08-08T09:21:01Z</time>
      </trkpt>
      <trkpt lat="47.96855" lon="-2.62145">
        <ele>42.6</ele>
        <time>2021-08-08T09:21:02Z</time>
      </trkpt>
      <trkpt lat="47.96859" lon="-2.62149">
        <ele>42.6</ele>
        <time>2021-08-08T09:21:03Z</time>
      </trkpt>
      <trkpt lat="47.96862" lon="-2.62153">
        <ele>42.8</ele>
        <time>2021-08-08T09:21:04Z</time>
      </trkpt>
      <trkpt lat="47.96865" lon="-2.62157">
        <ele>42.8</ele>
        <time>2021-08-08T09:21:05Z</time>
      </trkpt>
      <trkpt lat="47.96869" lon="-2.62161">
        <ele>42.8</ele>
        <time>2021-08-08T09:21:06Z</time>
      </trkpt>
      <trkpt lat="47.96874" lon="-2.62165">
        <ele>43</ele>
        <time>2021-08-08T09:21:07Z</time>
      </trkpt>
      <trkpt lat="47.96878" lon="-2.62169">
        <ele>43</ele>
        <time>2021-08-08T09:21:08Z</time>
      </trkpt>
      <trkpt lat="47.96882" lon="-2.62173">
        <ele>43.2</ele>
        <time>2021-08-08T09:21:09Z</time>
      </trkpt>
      <trkpt lat="47.96887" lon="-2.62178">
        <ele>43.2</ele>
        <time>2021-08-08T09:21:10Z</time>
      </trkpt>
      <trkpt lat="47.96891" lon="-2.62181">
        <ele>43.2</ele>
        <time>2021-08-08T09:21:11Z</time>
      </trkpt>
      <trkpt lat="47.96896" lon="-2.62185">
        <ele>43.4</ele>
        <time>2021-08-08T09:21:12Z</time>
      </trkpt>
      <trkpt lat="47.969" lon="-2.62189">
        <ele>43.4</ele>
        <time>2021-08-08T09:21:13Z</time>
      </trkpt>
      <trkpt lat="47.96905" lon="-2.62193">
        <ele>43.4</ele>
        <time>2021-08-08T09:21:14Z</time>
      </trkpt>
      <trkpt lat="47.9691" lon="-2.62197">
        <ele>43.4</ele>
        <time>2021-08-08T09:21:15Z</time>
      </trkpt>
      <trkpt lat="47.96914" lon="-2.62201">
        <ele>43.4</ele>
        <time>2021-08-08T09:21:16Z</time>
      </trkpt>
      <trkpt lat="47.96919" lon="-2.62205">
        <ele>43.4</ele>
        <time>2021-08-08T09:21:17Z</time>
      </trkpt>
      <trkpt lat="47.96924" lon="-2.62209">
        <ele>43.4</ele>
        <time>2021-08-08T09:21:18Z</time>
      </trkpt>
      <trkpt lat="47.96928" lon="-2.62213">
        <ele>43.2</ele>
        <time>2021-08-08T09:21:19Z</time>
      </trkpt>
      <trkpt lat="47.96933" lon="-2.62217">
        <ele>43.2</ele>
        <time>2021-08-08T09:21:20Z</time>
      </trkpt>
      <trkpt lat="47.96937" lon="-2.62221">
        <ele>43.2</ele>
        <time>2021-08-08T09:21:21Z</time>
      </trkpt>
      <trkpt lat="47.96942" lon="-2.62225">
        <ele>43.2</ele>
        <time>2021-08-08T09:21:22Z</time>
      </trkpt>
      <trkpt lat="47.96946" lon="-2.62229">
        <ele>43.2</ele>
        <time>2021-08-08T09:21:23Z</time>
      </trkpt>
      <trkpt lat="47.96951" lon="-2.62232">
        <ele>43</ele>
        <time>2021-08-08T09:21:24Z</time>
      </trkpt>
      <trkpt lat="47.96955" lon="-2.62236">
        <ele>43</ele>
        <time>2021-08-08T09:21:25Z</time>
      </trkpt>
      <trkpt lat="47.9696" lon="-2.6224">
        <ele>43</ele>
        <time>2021-08-08T09:21:26Z</time>
      </trkpt>
      <trkpt lat="47.96964" lon="-2.62243">
        <ele>43</ele>
        <time>2021-08-08T09:21:27Z</time>
      </trkpt>
      <trkpt lat="47.96969" lon="-2.62247">
        <ele>43</ele>
        <time>2021-08-08T09:21:28Z</time>
      </trkpt>
      <trkpt lat="47.96973" lon="-2.62251">
        <ele>43.2</ele>
        <time>2021-08-08T09:21:29Z</time>
      </trkpt>
      <trkpt lat="47.96978" lon="-2.62254">
        <ele>43.2</ele>
        <time>2021-08-08T09:21:30Z</time>
      </trkpt>
      <trkpt lat="47.96982" lon="-2.62257">
        <ele>43</ele>
        <time>2021-08-08T09:21:31Z</time>
      </trkpt>
      <trkpt lat="47.96985" lon="-2.6226">
        <ele>43</ele>
        <time>2021-08-08T09:21:32Z</time>
      </trkpt>
      <trkpt lat="47.96989" lon="-2.62262">
        <ele>43</ele>
        <time>2021-08-08T09:21:33Z</time>
      </trkpt>
      <trkpt lat="47.96993" lon="-2.62265">
        <ele>43</ele>
        <time>2021-08-08T09:21:34Z</time>
      </trkpt>
      <trkpt lat="47.96997" lon="-2.62268">
        <ele>43</ele>
        <time>2021-08-08T09:21:35Z</time>
      </trkpt>
      <trkpt lat="47.97002" lon="-2.62271">
        <ele>43</ele>
        <time>2021-08-08T09:21:36Z</time>
      </trkpt>
      <trkpt lat="47.97007" lon="-2.62274">
        <ele>43.2</ele>
        <time>2021-08-08T09:21:37Z</time>
      </trkpt>
      <trkpt lat="47.97012" lon="-2.62277">
        <ele>43.2</ele>
        <time>2021-08-08T09:21:38Z</time>
      </trkpt>
      <trkpt lat="47.97016" lon="-2.62281">
        <ele>43.2</ele>
        <time>2021-08-08T09:21:39Z</time>
      </trkpt>
      <trkpt lat="47.97021" lon="-2.62284">
        <ele>43.2</ele>
        <time>2021-08-08T09:21:40Z</time>
      </trkpt>
      <trkpt lat="47.97026" lon="-2.62286">
        <ele>43.2</ele>
        <time>2021-08-08T09:21:41Z</time>
      </trkpt>
      <trkpt lat="47.97031" lon="-2.62289">
        <ele>43.2</ele>
        <time>2021-08-08T09:21:42Z</time>
      </trkpt>
      <trkpt lat="47.97037" lon="-2.62292">
        <ele>43.2</ele>
        <time>2021-08-08T09:21:43Z</time>
      </trkpt>
      <trkpt lat="47.97042" lon="-2.62295">
        <ele>43.2</ele>
        <time>2021-08-08T09:21:44Z</time>
      </trkpt>
      <trkpt lat="47.97047" lon="-2.62297">
        <ele>43.2</ele>
        <time>2021-08-08T09:21:45Z</time>
      </trkpt>
      <trkpt lat="47.97052" lon="-2.62299">
        <ele>43.2</ele>
        <time>2021-08-08T09:21:46Z</time>
      </trkpt>
      <trkpt lat="47.97057" lon="-2.62302">
        <ele>43.2</ele>
        <time>2021-08-08T09:21:47Z</time>
      </trkpt>
      <trkpt lat="47.97062" lon="-2.62304">
        <ele>43.2</ele>
        <time>2021-08-08T09:21:48Z</time>
      </trkpt>
      <trkpt lat="47.97067" lon="-2.62306">
        <ele>43.2</ele>
        <time>2021-08-08T09:21:49Z</time>
      </trkpt>
      <trkpt lat="47.97072" lon="-2.62308">
        <ele>43.2</ele>
        <time>2021-08-08T09:21:50Z</time>
      </trkpt>
      <trkpt lat="47.97077" lon="-2.62309">
        <ele>43.2</ele>
        <time>2021-08-08T09:21:51Z</time>
      </trkpt>
      <trkpt lat="47.97083" lon="-2.62311">
        <ele>43.2</ele>
        <time>2021-08-08T09:21:52Z</time>
      </trkpt>
      <trkpt lat="47.97088" lon="-2.62313">
        <ele>43.2</ele>
        <time>2021-08-08T09:21:53Z</time>
      </trkpt>
      <trkpt lat="47.97093" lon="-2.62315">
        <ele>43.2</ele>
        <time>2021-08-08T09:21:54Z</time>
      </trkpt>
      <trkpt lat="47.97099" lon="-2.62317">
        <ele>43.2</ele>
        <time>2021-08-08T09:21:55Z</time>
      </trkpt>
      <trkpt lat="47.97104" lon="-2.62319">
        <ele>43.2</ele>
        <time>2021-08-08T09:21:56Z</time>
      </trkpt>
      <trkpt lat="47.9711" lon="-2.6232">
        <ele>43.2</ele>
        <time>2021-08-08T09:21:57Z</time>
      </trkpt>
      <trkpt lat="47.97115" lon="-2.62322">
        <ele>43.2</ele>
        <time>2021-08-08T09:21:58Z</time>
      </trkpt>
      <trkpt lat="47.97121" lon="-2.62323">
        <ele>43</ele>
        <time>2021-08-08T09:21:59Z</time>
      </trkpt>
      <trkpt lat="47.97126" lon="-2.62325">
        <ele>43</ele>
        <time>2021-08-08T09:22:00Z</time>
      </trkpt>
      <trkpt lat="47.97132" lon="-2.62327">
        <ele>43</ele>
        <time>2021-08-08T09:22:01Z</time>
      </trkpt>
      <trkpt lat="47.97137" lon="-2.6233">
        <ele>43</ele>
        <time>2021-08-08T09:22:02Z</time>
      </trkpt>
      <trkpt lat="47.97142" lon="-2.62332">
        <ele>43</ele>
        <time>2021-08-08T09:22:03Z</time>
      </trkpt>
      <trkpt lat="47.97147" lon="-2.62334">
        <ele>43</ele>
        <time>2021-08-08T09:22:04Z</time>
      </trkpt>
      <trkpt lat="47.97153" lon="-2.62335">
        <ele>42.8</ele>
        <time>2021-08-08T09:22:05Z</time>
      </trkpt>
      <trkpt lat="47.97158" lon="-2.62337">
        <ele>42.8</ele>
        <time>2021-08-08T09:22:06Z</time>
      </trkpt>
      <trkpt lat="47.97163" lon="-2.62339">
        <ele>42.8</ele>
        <time>2021-08-08T09:22:07Z</time>
      </trkpt>
      <trkpt lat="47.97168" lon="-2.6234">
        <ele>42.8</ele>
        <time>2021-08-08T09:22:08Z</time>
      </trkpt>
      <trkpt lat="47.97173" lon="-2.62342">
        <ele>42.8</ele>
        <time>2021-08-08T09:22:09Z</time>
      </trkpt>
      <trkpt lat="47.97178" lon="-2.62344">
        <ele>42.6</ele>
        <time>2021-08-08T09:22:10Z</time>
      </trkpt>
      <trkpt lat="47.97184" lon="-2.62345">
        <ele>42.6</ele>
        <time>2021-08-08T09:22:11Z</time>
      </trkpt>
      <trkpt lat="47.97189" lon="-2.62347">
        <ele>42.6</ele>
        <time>2021-08-08T09:22:12Z</time>
      </trkpt>
      <trkpt lat="47.97194" lon="-2.62349">
        <ele>42.6</ele>
        <time>2021-08-08T09:22:13Z</time>
      </trkpt>
      <trkpt lat="47.97199" lon="-2.62351">
        <ele>42.6</ele>
        <time>2021-08-08T09:22:14Z</time>
      </trkpt>
      <trkpt lat="47.97205" lon="-2.62352">
        <ele>42.6</ele>
        <time>2021-08-08T09:22:15Z</time>
      </trkpt>
      <trkpt lat="47.9721" lon="-2.62353">
        <ele>42.6</ele>
        <time>2021-08-08T09:22:16Z</time>
      </trkpt>
      <trkpt lat="47.97215" lon="-2.62355">
        <ele>42.6</ele>
        <time>2021-08-08T09:22:17Z</time>
      </trkpt>
      <trkpt lat="47.9722" lon="-2.62356">
        <ele>42.6</ele>
        <time>2021-08-08T09:22:18Z</time>
      </trkpt>
      <trkpt lat="47.97226" lon="-2.62358">
        <ele>42.6</ele>
        <time>2021-08-08T09:22:19Z</time>
      </trkpt>
      <trkpt lat="47.97231" lon="-2.62359">
        <ele>42.8</ele>
        <time>2021-08-08T09:22:20Z</time>
      </trkpt>
      <trkpt lat="47.97236" lon="-2.62361">
        <ele>42.8</ele>
        <time>2021-08-08T09:22:21Z</time>
      </trkpt>
      <trkpt lat="47.9724" lon="-2.62363">
        <ele>42.8</ele>
        <time>2021-08-08T09:22:22Z</time>
      </trkpt>
      <trkpt lat="47.97245" lon="-2.62364">
        <ele>42.8</ele>
        <time>2021-08-08T09:22:23Z</time>
      </trkpt>
      <trkpt lat="47.9725" lon="-2.62366">
        <ele>43</ele>
        <time>2021-08-08T09:22:24Z</time>
      </trkpt>
      <trkpt lat="47.97255" lon="-2.62367">
        <ele>43</ele>
        <time>2021-08-08T09:22:25Z</time>
      </trkpt>
      <trkpt lat="47.9726" lon="-2.62368">
        <ele>43</ele>
        <time>2021-08-08T09:22:26Z</time>
      </trkpt>
      <trkpt lat="47.97265" lon="-2.6237">
        <ele>43</ele>
        <time>2021-08-08T09:22:27Z</time>
      </trkpt>
      <trkpt lat="47.9727" lon="-2.62372">
        <ele>43</ele>
        <time>2021-08-08T09:22:28Z</time>
      </trkpt>
      <trkpt lat="47.97275" lon="-2.62374">
        <ele>43</ele>
        <time>2021-08-08T09:22:29Z</time>
      </trkpt>
      <trkpt lat="47.9728" lon="-2.62375">
        <ele>43</ele>
        <time>2021-08-08T09:22:30Z</time>
      </trkpt>
      <trkpt lat="47.97285" lon="-2.62377">
        <ele>43</ele>
        <time>2021-08-08T09:22:31Z</time>
      </trkpt>
      <trkpt lat="47.9729" lon="-2.62379">
        <ele>43</ele>
        <time>2021-08-08T09:22:32Z</time>
      </trkpt>
      <trkpt lat="47.97295" lon="-2.62381">
        <ele>43</ele>
        <time>2021-08-08T09:22:33Z</time>
      </trkpt>
      <trkpt lat="47.973" lon="-2.62382">
        <ele>43</ele>
        <time>2021-08-08T09:22:34Z</time>
      </trkpt>
      <trkpt lat="47.97305" lon="-2.62384">
        <ele>43</ele>
        <time>2021-08-08T09:22:35Z</time>
      </trkpt>
      <trkpt lat="47.9731" lon="-2.62386">
        <ele>43</ele>
        <time>2021-08-08T09:22:36Z</time>
      </trkpt>
      <trkpt lat="47.97315" lon="-2.62388">
        <ele>43</ele>
        <time>2021-08-08T09:22:37Z</time>
      </trkpt>
      <trkpt lat="47.9732" lon="-2.6239">
        <ele>43</ele>
        <time>2021-08-08T09:22:38Z</time>
      </trkpt>
      <trkpt lat="47.97325" lon="-2.62392">
        <ele>42.8</ele>
        <time>2021-08-08T09:22:39Z</time>
      </trkpt>
      <trkpt lat="47.9733" lon="-2.62394">
        <ele>42.8</ele>
        <time>2021-08-08T09:22:40Z</time>
      </trkpt>
      <trkpt lat="47.97335" lon="-2.62396">
        <ele>42.8</ele>
        <time>2021-08-08T09:22:41Z</time>
      </trkpt>
      <trkpt lat="47.9734" lon="-2.62398">
        <ele>42.8</ele>
        <time>2021-08-08T09:22:42Z</time>
      </trkpt>
      <trkpt lat="47.97345" lon="-2.624">
        <ele>42.8</ele>
        <time>2021-08-08T09:22:43Z</time>
      </trkpt>
      <trkpt lat="47.9735" lon="-2.62402">
        <ele>42.8</ele>
        <time>2021-08-08T09:22:44Z</time>
      </trkpt>
      <trkpt lat="47.97354" lon="-2.62403">
        <ele>43</ele>
        <time>2021-08-08T09:22:45Z</time>
      </trkpt>
      <trkpt lat="47.97359" lon="-2.62404">
        <ele>43</ele>
        <time>2021-08-08T09:22:46Z</time>
      </trkpt>
      <trkpt lat="47.97363" lon="-2.62405">
        <ele>43</ele>
        <time>2021-08-08T09:22:47Z</time>
      </trkpt>
      <trkpt lat="47.97367" lon="-2.62406">
        <ele>43</ele>
        <time>2021-08-08T09:22:48Z</time>
      </trkpt>
      <trkpt lat="47.97371" lon="-2.62408">
        <ele>43</ele>
        <time>2021-08-08T09:22:49Z</time>
      </trkpt>
      <trkpt lat="47.97375" lon="-2.62409">
        <ele>43</ele>
        <time>2021-08-08T09:22:50Z</time>
      </trkpt>
      <trkpt lat="47.97379" lon="-2.62411">
        <ele>43</ele>
        <time>2021-08-08T09:22:51Z</time>
      </trkpt>
      <trkpt lat="47.97383" lon="-2.62413">
        <ele>43.2</ele>
        <time>2021-08-08T09:22:52Z</time>
      </trkpt>
      <trkpt lat="47.97388" lon="-2.62416">
        <ele>43.2</ele>
        <time>2021-08-08T09:22:53Z</time>
      </trkpt>
      <trkpt lat="47.97393" lon="-2.62418">
        <ele>43.4</ele>
        <time>2021-08-08T09:22:54Z</time>
      </trkpt>
      <trkpt lat="47.97399" lon="-2.62419">
        <ele>43.6</ele>
        <time>2021-08-08T09:22:55Z</time>
      </trkpt>
      <trkpt lat="47.97404" lon="-2.62419">
        <ele>44</ele>
        <time>2021-08-08T09:22:56Z</time>
      </trkpt>
      <trkpt lat="47.97409" lon="-2.62421">
        <ele>44.2</ele>
        <time>2021-08-08T09:22:57Z</time>
      </trkpt>
      <trkpt lat="47.97414" lon="-2.62422">
        <ele>44.4</ele>
        <time>2021-08-08T09:22:58Z</time>
      </trkpt>
      <trkpt lat="47.97419" lon="-2.62424">
        <ele>44.4</ele>
        <time>2021-08-08T09:22:59Z</time>
      </trkpt>
      <trkpt lat="47.97425" lon="-2.62426">
        <ele>44.4</ele>
        <time>2021-08-08T09:23:00Z</time>
      </trkpt>
      <trkpt lat="47.9743" lon="-2.62428">
        <ele>44.4</ele>
        <time>2021-08-08T09:23:01Z</time>
      </trkpt>
      <trkpt lat="47.97435" lon="-2.6243">
        <ele>44.4</ele>
        <time>2021-08-08T09:23:02Z</time>
      </trkpt>
      <trkpt lat="47.97441" lon="-2.62432">
        <ele>44.4</ele>
        <time>2021-08-08T09:23:03Z</time>
      </trkpt>
      <trkpt lat="47.97446" lon="-2.62434">
        <ele>44.4</ele>
        <time>2021-08-08T09:23:04Z</time>
      </trkpt>
      <trkpt lat="47.97451" lon="-2.62437">
        <ele>44.4</ele>
        <time>2021-08-08T09:23:05Z</time>
      </trkpt>
      <trkpt lat="47.97456" lon="-2.6244">
        <ele>44.4</ele>
        <time>2021-08-08T09:23:06Z</time>
      </trkpt>
      <trkpt lat="47.97461" lon="-2.62443">
        <ele>44.4</ele>
        <time>2021-08-08T09:23:07Z</time>
      </trkpt>
      <trkpt lat="47.97466" lon="-2.62446">
        <ele>44.4</ele>
        <time>2021-08-08T09:23:08Z</time>
      </trkpt>
      <trkpt lat="47.97471" lon="-2.6245">
        <ele>44.4</ele>
        <time>2021-08-08T09:23:09Z</time>
      </trkpt>
      <trkpt lat="47.97475" lon="-2.62454">
        <ele>44.4</ele>
        <time>2021-08-08T09:23:10Z</time>
      </trkpt>
      <trkpt lat="47.9748" lon="-2.62458">
        <ele>44.2</ele>
        <time>2021-08-08T09:23:11Z</time>
      </trkpt>
      <trkpt lat="47.97484" lon="-2.62463">
        <ele>44.2</ele>
        <time>2021-08-08T09:23:12Z</time>
      </trkpt>
      <trkpt lat="47.97489" lon="-2.62467">
        <ele>44.2</ele>
        <time>2021-08-08T09:23:13Z</time>
      </trkpt>
      <trkpt lat="47.97493" lon="-2.62472">
        <ele>44.2</ele>
        <time>2021-08-08T09:23:14Z</time>
      </trkpt>
      <trkpt lat="47.97497" lon="-2.62477">
        <ele>44.2</ele>
        <time>2021-08-08T09:23:15Z</time>
      </trkpt>
      <trkpt lat="47.97501" lon="-2.62482">
        <ele>44.2</ele>
        <time>2021-08-08T09:23:16Z</time>
      </trkpt>
      <trkpt lat="47.97505" lon="-2.62488">
        <ele>44.2</ele>
        <time>2021-08-08T09:23:17Z</time>
      </trkpt>
      <trkpt lat="47.97509" lon="-2.62493">
        <ele>44.2</ele>
        <time>2021-08-08T09:23:18Z</time>
      </trkpt>
      <trkpt lat="47.97512" lon="-2.62499">
        <ele>44.2</ele>
        <time>2021-08-08T09:23:19Z</time>
      </trkpt>
      <trkpt lat="47.97516" lon="-2.62505">
        <ele>44.2</ele>
        <time>2021-08-08T09:23:20Z</time>
      </trkpt>
      <trkpt lat="47.97519" lon="-2.6251">
        <ele>44.4</ele>
        <time>2021-08-08T09:23:21Z</time>
      </trkpt>
      <trkpt lat="47.97523" lon="-2.62516">
        <ele>44.2</ele>
        <time>2021-08-08T09:23:22Z</time>
      </trkpt>
      <trkpt lat="47.97526" lon="-2.62521">
        <ele>44.2</ele>
        <time>2021-08-08T09:23:23Z</time>
      </trkpt>
      <trkpt lat="47.97529" lon="-2.62527">
        <ele>44.2</ele>
        <time>2021-08-08T09:23:24Z</time>
      </trkpt>
      <trkpt lat="47.97533" lon="-2.62533">
        <ele>44.2</ele>
        <time>2021-08-08T09:23:25Z</time>
      </trkpt>
      <trkpt lat="47.97536" lon="-2.6254">
        <ele>44.2</ele>
        <time>2021-08-08T09:23:26Z</time>
      </trkpt>
      <trkpt lat="47.97539" lon="-2.62546">
        <ele>44.4</ele>
        <time>2021-08-08T09:23:27Z</time>
      </trkpt>
      <trkpt lat="47.97542" lon="-2.62552">
        <ele>44.4</ele>
        <time>2021-08-08T09:23:28Z</time>
      </trkpt>
      <trkpt lat="47.97545" lon="-2.62558">
        <ele>44.4</ele>
        <time>2021-08-08T09:23:29Z</time>
      </trkpt>
      <trkpt lat="47.97548" lon="-2.62564">
        <ele>44.4</ele>
        <time>2021-08-08T09:23:30Z</time>
      </trkpt>
      <trkpt lat="47.97552" lon="-2.6257">
        <ele>44.4</ele>
        <time>2021-08-08T09:23:31Z</time>
      </trkpt>
      <trkpt lat="47.97555" lon="-2.62575">
        <ele>44.6</ele>
        <time>2021-08-08T09:23:32Z</time>
      </trkpt>
      <trkpt lat="47.97557" lon="-2.62581">
        <ele>44.6</ele>
        <time>2021-08-08T09:23:33Z</time>
      </trkpt>
      <trkpt lat="47.9756" lon="-2.62587">
        <ele>44.6</ele>
        <time>2021-08-08T09:23:34Z</time>
      </trkpt>
      <trkpt lat="47.97564" lon="-2.62593">
        <ele>44.6</ele>
        <time>2021-08-08T09:23:35Z</time>
      </trkpt>
      <trkpt lat="47.97567" lon="-2.62599">
        <ele>44.8</ele>
        <time>2021-08-08T09:23:36Z</time>
      </trkpt>
      <trkpt lat="47.9757" lon="-2.62604">
        <ele>44.8</ele>
        <time>2021-08-08T09:23:37Z</time>
      </trkpt>
      <trkpt lat="47.97572" lon="-2.6261">
        <ele>45</ele>
        <time>2021-08-08T09:23:38Z</time>
      </trkpt>
      <trkpt lat="47.97575" lon="-2.62615">
        <ele>45</ele>
        <time>2021-08-08T09:23:39Z</time>
      </trkpt>
      <trkpt lat="47.97578" lon="-2.6262">
        <ele>45</ele>
        <time>2021-08-08T09:23:40Z</time>
      </trkpt>
      <trkpt lat="47.97581" lon="-2.62625">
        <ele>45</ele>
        <time>2021-08-08T09:23:41Z</time>
      </trkpt>
      <trkpt lat="47.97583" lon="-2.62631">
        <ele>45.2</ele>
        <time>2021-08-08T09:23:42Z</time>
      </trkpt>
      <trkpt lat="47.97586" lon="-2.62636">
        <ele>45.2</ele>
        <time>2021-08-08T09:23:43Z</time>
      </trkpt>
      <trkpt lat="47.97589" lon="-2.62641">
        <ele>45.2</ele>
        <time>2021-08-08T09:23:44Z</time>
      </trkpt>
      <trkpt lat="47.97591" lon="-2.62646">
        <ele>45.2</ele>
        <time>2021-08-08T09:23:45Z</time>
      </trkpt>
      <trkpt lat="47.97594" lon="-2.6265">
        <ele>45.2</ele>
        <time>2021-08-08T09:23:46Z</time>
      </trkpt>
      <trkpt lat="47.97597" lon="-2.62655">
        <ele>45.2</ele>
        <time>2021-08-08T09:23:47Z</time>
      </trkpt>
      <trkpt lat="47.97599" lon="-2.62659">
        <ele>45.4</ele>
        <time>2021-08-08T09:23:48Z</time>
      </trkpt>
      <trkpt lat="47.97601" lon="-2.62663">
        <ele>45.4</ele>
        <time>2021-08-08T09:23:49Z</time>
      </trkpt>
      <trkpt lat="47.97602" lon="-2.62667">
        <ele>45.6</ele>
        <time>2021-08-08T09:23:50Z</time>
      </trkpt>
      <trkpt lat="47.97604" lon="-2.62671">
        <ele>45.6</ele>
        <time>2021-08-08T09:23:51Z</time>
      </trkpt>
      <trkpt lat="47.97606" lon="-2.62675">
        <ele>45.6</ele>
        <time>2021-08-08T09:23:52Z</time>
      </trkpt>
      <trkpt lat="47.97608" lon="-2.6268">
        <ele>45.8</ele>
        <time>2021-08-08T09:23:53Z</time>
      </trkpt>
      <trkpt lat="47.9761" lon="-2.62684">
        <ele>46</ele>
        <time>2021-08-08T09:23:54Z</time>
      </trkpt>
      <trkpt lat="47.97612" lon="-2.62687">
        <ele>45.8</ele>
        <time>2021-08-08T09:23:55Z</time>
      </trkpt>
      <trkpt lat="47.97613" lon="-2.6269">
        <ele>46.2</ele>
        <time>2021-08-08T09:23:56Z</time>
      </trkpt>
      <trkpt lat="47.97614" lon="-2.62692">
        <ele>46.4</ele>
        <time>2021-08-08T09:23:57Z</time>
      </trkpt>
      <trkpt lat="47.97615" lon="-2.62693">
        <ele>46.6</ele>
        <time>2021-08-08T09:23:58Z</time>
      </trkpt>
      <trkpt lat="47.97616" lon="-2.62695">
        <ele>46.8</ele>
        <time>2021-08-08T09:23:59Z</time>
      </trkpt>
      <trkpt lat="47.97616" lon="-2.62697">
        <ele>47.2</ele>
        <time>2021-08-08T09:24:00Z</time>
      </trkpt>
      <trkpt lat="47.97618" lon="-2.627">
        <ele>47.4</ele>
        <time>2021-08-08T09:24:01Z</time>
      </trkpt>
      <trkpt lat="47.9762" lon="-2.62703">
        <ele>47.8</ele>
        <time>2021-08-08T09:24:02Z</time>
      </trkpt>
      <trkpt lat="47.97622" lon="-2.62705">
        <ele>48</ele>
        <time>2021-08-08T09:24:03Z</time>
      </trkpt>
      <trkpt lat="47.97625" lon="-2.62708">
        <ele>48.2</ele>
        <time>2021-08-08T09:24:04Z</time>
      </trkpt>
      <trkpt lat="47.97627" lon="-2.62711">
        <ele>48.4</ele>
        <time>2021-08-08T09:24:05Z</time>
      </trkpt>
      <trkpt lat="47.97629" lon="-2.62715">
        <ele>48.4</ele>
        <time>2021-08-08T09:24:06Z</time>
      </trkpt>
      <trkpt lat="47.97632" lon="-2.62719">
        <ele>48.4</ele>
        <time>2021-08-08T09:24:07Z</time>
      </trkpt>
      <trkpt lat="47.97634" lon="-2.62724">
        <ele>48.4</ele>
        <time>2021-08-08T09:24:08Z</time>
      </trkpt>
      <trkpt lat="47.97636" lon="-2.62728">
        <ele>48.4</ele>
        <time>2021-08-08T09:24:09Z</time>
      </trkpt>
      <trkpt lat="47.97638" lon="-2.62732">
        <ele>48.4</ele>
        <time>2021-08-08T09:24:10Z</time>
      </trkpt>
      <trkpt lat="47.97641" lon="-2.62736">
        <ele>48.4</ele>
        <time>2021-08-08T09:24:11Z</time>
      </trkpt>
      <trkpt lat="47.97643" lon="-2.62739">
        <ele>48.4</ele>
        <time>2021-08-08T09:24:12Z</time>
      </trkpt>
      <trkpt lat="47.97646" lon="-2.62744">
        <ele>48.4</ele>
        <time>2021-08-08T09:24:13Z</time>
      </trkpt>
      <trkpt lat="47.97648" lon="-2.62748">
        <ele>48.2</ele>
        <time>2021-08-08T09:24:14Z</time>
      </trkpt>
      <trkpt lat="47.9765" lon="-2.62752">
        <ele>48.2</ele>
        <time>2021-08-08T09:24:15Z</time>
      </trkpt>
      <trkpt lat="47.97653" lon="-2.62757">
        <ele>48</ele>
        <time>2021-08-08T09:24:16Z</time>
      </trkpt>
      <trkpt lat="47.97655" lon="-2.62762">
        <ele>47.8</ele>
        <time>2021-08-08T09:24:17Z</time>
      </trkpt>
      <trkpt lat="47.97656" lon="-2.62766">
        <ele>47.6</ele>
        <time>2021-08-08T09:24:18Z</time>
      </trkpt>
      <trkpt lat="47.97659" lon="-2.6277">
        <ele>47.6</ele>
        <time>2021-08-08T09:24:19Z</time>
      </trkpt>
      <trkpt lat="47.97661" lon="-2.62774">
        <ele>47.4</ele>
        <time>2021-08-08T09:24:20Z</time>
      </trkpt>
      <trkpt lat="47.97663" lon="-2.62778">
        <ele>47.4</ele>
        <time>2021-08-08T09:24:21Z</time>
      </trkpt>
      <trkpt lat="47.97666" lon="-2.62783">
        <ele>47.4</ele>
        <time>2021-08-08T09:24:22Z</time>
      </trkpt>
      <trkpt lat="47.97668" lon="-2.62788">
        <ele>47.4</ele>
        <time>2021-08-08T09:24:23Z</time>
      </trkpt>
      <trkpt lat="47.97671" lon="-2.62793">
        <ele>47.4</ele>
        <time>2021-08-08T09:24:24Z</time>
      </trkpt>
      <trkpt lat="47.97673" lon="-2.62798">
        <ele>47.4</ele>
        <time>2021-08-08T09:24:25Z</time>
      </trkpt>
      <trkpt lat="47.97675" lon="-2.62802">
        <ele>47.4</ele>
        <time>2021-08-08T09:24:26Z</time>
      </trkpt>
      <trkpt lat="47.97677" lon="-2.62806">
        <ele>47.4</ele>
        <time>2021-08-08T09:24:27Z</time>
      </trkpt>
      <trkpt lat="47.97679" lon="-2.6281">
        <ele>47.4</ele>
        <time>2021-08-08T09:24:28Z</time>
      </trkpt>
      <trkpt lat="47.9768" lon="-2.62814">
        <ele>47.4</ele>
        <time>2021-08-08T09:24:29Z</time>
      </trkpt>
      <trkpt lat="47.97682" lon="-2.62819">
        <ele>47.4</ele>
        <time>2021-08-08T09:24:30Z</time>
      </trkpt>
      <trkpt lat="47.97685" lon="-2.62823">
        <ele>47.4</ele>
        <time>2021-08-08T09:24:31Z</time>
      </trkpt>
      <trkpt lat="47.97688" lon="-2.62828">
        <ele>47.4</ele>
        <time>2021-08-08T09:24:32Z</time>
      </trkpt>
      <trkpt lat="47.97691" lon="-2.62834">
        <ele>47.4</ele>
        <time>2021-08-08T09:24:33Z</time>
      </trkpt>
      <trkpt lat="47.97694" lon="-2.6284">
        <ele>47.4</ele>
        <time>2021-08-08T09:24:34Z</time>
      </trkpt>
      <trkpt lat="47.97697" lon="-2.62846">
        <ele>47.4</ele>
        <time>2021-08-08T09:24:35Z</time>
      </trkpt>
      <trkpt lat="47.977" lon="-2.62852">
        <ele>47.4</ele>
        <time>2021-08-08T09:24:36Z</time>
      </trkpt>
      <trkpt lat="47.97702" lon="-2.62858">
        <ele>47.4</ele>
        <time>2021-08-08T09:24:37Z</time>
      </trkpt>
      <trkpt lat="47.97705" lon="-2.62864">
        <ele>47.4</ele>
        <time>2021-08-08T09:24:38Z</time>
      </trkpt>
      <trkpt lat="47.97708" lon="-2.6287">
        <ele>47.4</ele>
        <time>2021-08-08T09:24:39Z</time>
      </trkpt>
      <trkpt lat="47.9771" lon="-2.62875">
        <ele>47.2</ele>
        <time>2021-08-08T09:24:40Z</time>
      </trkpt>
      <trkpt lat="47.97712" lon="-2.62881">
        <ele>47.2</ele>
        <time>2021-08-08T09:24:41Z</time>
      </trkpt>
      <trkpt lat="47.97715" lon="-2.62886">
        <ele>47.2</ele>
        <time>2021-08-08T09:24:42Z</time>
      </trkpt>
      <trkpt lat="47.97717" lon="-2.62892">
        <ele>47.2</ele>
        <time>2021-08-08T09:24:43Z</time>
      </trkpt>
      <trkpt lat="47.97719" lon="-2.62897">
        <ele>47.2</ele>
        <time>2021-08-08T09:24:44Z</time>
      </trkpt>
      <trkpt lat="47.97721" lon="-2.62902">
        <ele>47.2</ele>
        <time>2021-08-08T09:24:45Z</time>
      </trkpt>
      <trkpt lat="47.97723" lon="-2.62906">
        <ele>47.2</ele>
        <time>2021-08-08T09:24:46Z</time>
      </trkpt>
      <trkpt lat="47.97726" lon="-2.62911">
        <ele>47.2</ele>
        <time>2021-08-08T09:24:47Z</time>
      </trkpt>
      <trkpt lat="47.97729" lon="-2.62916">
        <ele>47.2</ele>
        <time>2021-08-08T09:24:48Z</time>
      </trkpt>
      <trkpt lat="47.97731" lon="-2.62921">
        <ele>47.2</ele>
        <time>2021-08-08T09:24:49Z</time>
      </trkpt>
      <trkpt lat="47.97734" lon="-2.62926">
        <ele>47.2</ele>
        <time>2021-08-08T09:24:50Z</time>
      </trkpt>
      <trkpt lat="47.97737" lon="-2.62932">
        <ele>47.2</ele>
        <time>2021-08-08T09:24:51Z</time>
      </trkpt>
      <trkpt lat="47.97739" lon="-2.62937">
        <ele>47.2</ele>
        <time>2021-08-08T09:24:52Z</time>
      </trkpt>
      <trkpt lat="47.97742" lon="-2.62943">
        <ele>47.4</ele>
        <time>2021-08-08T09:24:53Z</time>
      </trkpt>
      <trkpt lat="47.97744" lon="-2.62948">
        <ele>47.2</ele>
        <time>2021-08-08T09:24:54Z</time>
      </trkpt>
      <trkpt lat="47.97746" lon="-2.62954">
        <ele>47.2</ele>
        <time>2021-08-08T09:24:55Z</time>
      </trkpt>
      <trkpt lat="47.9775" lon="-2.6296">
        <ele>47.2</ele>
        <time>2021-08-08T09:24:56Z</time>
      </trkpt>
      <trkpt lat="47.97754" lon="-2.62967">
        <ele>47.2</ele>
        <time>2021-08-08T09:24:57Z</time>
      </trkpt>
      <trkpt lat="47.97758" lon="-2.62973">
        <ele>47.2</ele>
        <time>2021-08-08T09:24:58Z</time>
      </trkpt>
      <trkpt lat="47.97762" lon="-2.6298">
        <ele>47.2</ele>
        <time>2021-08-08T09:24:59Z</time>
      </trkpt>
      <trkpt lat="47.97766" lon="-2.62986">
        <ele>47.2</ele>
        <time>2021-08-08T09:25:00Z</time>
      </trkpt>
      <trkpt lat="47.9777" lon="-2.62993">
        <ele>47.4</ele>
        <time>2021-08-08T09:25:01Z</time>
      </trkpt>
      <trkpt lat="47.97775" lon="-2.62999">
        <ele>47.4</ele>
        <time>2021-08-08T09:25:02Z</time>
      </trkpt>
      <trkpt lat="47.97778" lon="-2.63005">
        <ele>47.4</ele>
        <time>2021-08-08T09:25:03Z</time>
      </trkpt>
      <trkpt lat="47.97782" lon="-2.63011">
        <ele>47.4</ele>
        <time>2021-08-08T09:25:04Z</time>
      </trkpt>
      <trkpt lat="47.97786" lon="-2.63018">
        <ele>47.4</ele>
        <time>2021-08-08T09:25:05Z</time>
      </trkpt>
      <trkpt lat="47.97788" lon="-2.63023">
        <ele>47.4</ele>
        <time>2021-08-08T09:25:06Z</time>
      </trkpt>
      <trkpt lat="47.97791" lon="-2.63029">
        <ele>47.4</ele>
        <time>2021-08-08T09:25:07Z</time>
      </trkpt>
      <trkpt lat="47.97794" lon="-2.63034">
        <ele>47.4</ele>
        <time>2021-08-08T09:25:08Z</time>
      </trkpt>
      <trkpt lat="47.97797" lon="-2.63039">
        <ele>47.4</ele>
        <time>2021-08-08T09:25:09Z</time>
      </trkpt>
      <trkpt lat="47.97799" lon="-2.63045">
        <ele>47.4</ele>
        <time>2021-08-08T09:25:10Z</time>
      </trkpt>
      <trkpt lat="47.97803" lon="-2.63051">
        <ele>47.4</ele>
        <time>2021-08-08T09:25:11Z</time>
      </trkpt>
      <trkpt lat="47.97805" lon="-2.63056">
        <ele>47.4</ele>
        <time>2021-08-08T09:25:12Z</time>
      </trkpt>
      <trkpt lat="47.97808" lon="-2.6306">
        <ele>47.4</ele>
        <time>2021-08-08T09:25:13Z</time>
      </trkpt>
      <trkpt lat="47.9781" lon="-2.63065">
        <ele>47.4</ele>
        <time>2021-08-08T09:25:14Z</time>
      </trkpt>
      <trkpt lat="47.97813" lon="-2.6307">
        <ele>47.4</ele>
        <time>2021-08-08T09:25:15Z</time>
      </trkpt>
      <trkpt lat="47.97817" lon="-2.63076">
        <ele>47.4</ele>
        <time>2021-08-08T09:25:16Z</time>
      </trkpt>
      <trkpt lat="47.9782" lon="-2.63081">
        <ele>47.6</ele>
        <time>2021-08-08T09:25:17Z</time>
      </trkpt>
      <trkpt lat="47.97823" lon="-2.63087">
        <ele>47.6</ele>
        <time>2021-08-08T09:25:18Z</time>
      </trkpt>
      <trkpt lat="47.97826" lon="-2.63093">
        <ele>47.6</ele>
        <time>2021-08-08T09:25:19Z</time>
      </trkpt>
      <trkpt lat="47.97829" lon="-2.63098">
        <ele>47.6</ele>
        <time>2021-08-08T09:25:20Z</time>
      </trkpt>
      <trkpt lat="47.97832" lon="-2.63104">
        <ele>47.4</ele>
        <time>2021-08-08T09:25:21Z</time>
      </trkpt>
      <trkpt lat="47.97835" lon="-2.63109">
        <ele>47.4</ele>
        <time>2021-08-08T09:25:22Z</time>
      </trkpt>
      <trkpt lat="47.97837" lon="-2.63115">
        <ele>47.6</ele>
        <time>2021-08-08T09:25:23Z</time>
      </trkpt>
      <trkpt lat="47.9784" lon="-2.6312">
        <ele>47.6</ele>
        <time>2021-08-08T09:25:24Z</time>
      </trkpt>
      <trkpt lat="47.97844" lon="-2.63126">
        <ele>47.6</ele>
        <time>2021-08-08T09:25:25Z</time>
      </trkpt>
      <trkpt lat="47.97847" lon="-2.63132">
        <ele>47.6</ele>
        <time>2021-08-08T09:25:26Z</time>
      </trkpt>
      <trkpt lat="47.9785" lon="-2.63138">
        <ele>47.6</ele>
        <time>2021-08-08T09:25:27Z</time>
      </trkpt>
      <trkpt lat="47.97854" lon="-2.63144">
        <ele>47.6</ele>
        <time>2021-08-08T09:25:28Z</time>
      </trkpt>
      <trkpt lat="47.97857" lon="-2.6315">
        <ele>47.6</ele>
        <time>2021-08-08T09:25:29Z</time>
      </trkpt>
      <trkpt lat="47.9786" lon="-2.63156">
        <ele>47.6</ele>
        <time>2021-08-08T09:25:30Z</time>
      </trkpt>
      <trkpt lat="47.97864" lon="-2.63162">
        <ele>47.6</ele>
        <time>2021-08-08T09:25:31Z</time>
      </trkpt>
      <trkpt lat="47.97868" lon="-2.63168">
        <ele>47.6</ele>
        <time>2021-08-08T09:25:32Z</time>
      </trkpt>
      <trkpt lat="47.97871" lon="-2.63174">
        <ele>47.8</ele>
        <time>2021-08-08T09:25:33Z</time>
      </trkpt>
      <trkpt lat="47.97873" lon="-2.6318">
        <ele>47.8</ele>
        <time>2021-08-08T09:25:34Z</time>
      </trkpt>
      <trkpt lat="47.97876" lon="-2.63185">
        <ele>47.8</ele>
        <time>2021-08-08T09:25:35Z</time>
      </trkpt>
      <trkpt lat="47.97878" lon="-2.6319">
        <ele>48</ele>
        <time>2021-08-08T09:25:36Z</time>
      </trkpt>
      <trkpt lat="47.97881" lon="-2.63196">
        <ele>48</ele>
        <time>2021-08-08T09:25:37Z</time>
      </trkpt>
      <trkpt lat="47.97884" lon="-2.63201">
        <ele>48</ele>
        <time>2021-08-08T09:25:38Z</time>
      </trkpt>
      <trkpt lat="47.97887" lon="-2.63207">
        <ele>48.2</ele>
        <time>2021-08-08T09:25:39Z</time>
      </trkpt>
      <trkpt lat="47.9789" lon="-2.63212">
        <ele>48.2</ele>
        <time>2021-08-08T09:25:40Z</time>
      </trkpt>
      <trkpt lat="47.97893" lon="-2.63218">
        <ele>48.2</ele>
        <time>2021-08-08T09:25:41Z</time>
      </trkpt>
      <trkpt lat="47.97895" lon="-2.63223">
        <ele>48.2</ele>
        <time>2021-08-08T09:25:42Z</time>
      </trkpt>
      <trkpt lat="47.97898" lon="-2.63228">
        <ele>48.2</ele>
        <time>2021-08-08T09:25:43Z</time>
      </trkpt>
      <trkpt lat="47.97901" lon="-2.63233">
        <ele>48.2</ele>
        <time>2021-08-08T09:25:44Z</time>
      </trkpt>
      <trkpt lat="47.97905" lon="-2.63239">
        <ele>48.2</ele>
        <time>2021-08-08T09:25:45Z</time>
      </trkpt>
      <trkpt lat="47.97908" lon="-2.63244">
        <ele>48.2</ele>
        <time>2021-08-08T09:25:46Z</time>
      </trkpt>
      <trkpt lat="47.97912" lon="-2.6325">
        <ele>48.2</ele>
        <time>2021-08-08T09:25:47Z</time>
      </trkpt>
      <trkpt lat="47.97915" lon="-2.63256">
        <ele>48.2</ele>
        <time>2021-08-08T09:25:48Z</time>
      </trkpt>
      <trkpt lat="47.97918" lon="-2.63262">
        <ele>48.2</ele>
        <time>2021-08-08T09:25:49Z</time>
      </trkpt>
      <trkpt lat="47.97921" lon="-2.63268">
        <ele>48.2</ele>
        <time>2021-08-08T09:25:50Z</time>
      </trkpt>
      <trkpt lat="47.97924" lon="-2.63273">
        <ele>48.2</ele>
        <time>2021-08-08T09:25:51Z</time>
      </trkpt>
      <trkpt lat="47.97927" lon="-2.63278">
        <ele>48.2</ele>
        <time>2021-08-08T09:25:52Z</time>
      </trkpt>
      <trkpt lat="47.9793" lon="-2.63284">
        <ele>48.2</ele>
        <time>2021-08-08T09:25:53Z</time>
      </trkpt>
      <trkpt lat="47.97933" lon="-2.63289">
        <ele>48.2</ele>
        <time>2021-08-08T09:25:54Z</time>
      </trkpt>
      <trkpt lat="47.97936" lon="-2.63295">
        <ele>48.2</ele>
        <time>2021-08-08T09:25:55Z</time>
      </trkpt>
      <trkpt lat="47.97939" lon="-2.633">
        <ele>48.2</ele>
        <time>2021-08-08T09:25:56Z</time>
      </trkpt>
      <trkpt lat="47.97942" lon="-2.63304">
        <ele>48.2</ele>
        <time>2021-08-08T09:25:57Z</time>
      </trkpt>
      <trkpt lat="47.97945" lon="-2.63309">
        <ele>48.2</ele>
        <time>2021-08-08T09:25:58Z</time>
      </trkpt>
      <trkpt lat="47.97948" lon="-2.63315">
        <ele>48.2</ele>
        <time>2021-08-08T09:25:59Z</time>
      </trkpt>
      <trkpt lat="47.9795" lon="-2.6332">
        <ele>48.2</ele>
        <time>2021-08-08T09:26:00Z</time>
      </trkpt>
      <trkpt lat="47.97953" lon="-2.63325">
        <ele>48</ele>
        <time>2021-08-08T09:26:01Z</time>
      </trkpt>
      <trkpt lat="47.97956" lon="-2.63331">
        <ele>48</ele>
        <time>2021-08-08T09:26:02Z</time>
      </trkpt>
      <trkpt lat="47.97959" lon="-2.63336">
        <ele>48</ele>
        <time>2021-08-08T09:26:03Z</time>
      </trkpt>
      <trkpt lat="47.97962" lon="-2.63341">
        <ele>48</ele>
        <time>2021-08-08T09:26:04Z</time>
      </trkpt>
      <trkpt lat="47.97965" lon="-2.63346">
        <ele>48</ele>
        <time>2021-08-08T09:26:05Z</time>
      </trkpt>
      <trkpt lat="47.97968" lon="-2.63351">
        <ele>48</ele>
        <time>2021-08-08T09:26:06Z</time>
      </trkpt>
      <trkpt lat="47.9797" lon="-2.63356">
        <ele>48</ele>
        <time>2021-08-08T09:26:07Z</time>
      </trkpt>
      <trkpt lat="47.97973" lon="-2.63361">
        <ele>48</ele>
        <time>2021-08-08T09:26:08Z</time>
      </trkpt>
      <trkpt lat="47.97977" lon="-2.63366">
        <ele>48.2</ele>
        <time>2021-08-08T09:26:09Z</time>
      </trkpt>
      <trkpt lat="47.9798" lon="-2.63371">
        <ele>48.2</ele>
        <time>2021-08-08T09:26:10Z</time>
      </trkpt>
      <trkpt lat="47.97983" lon="-2.63376">
        <ele>48</ele>
        <time>2021-08-08T09:26:11Z</time>
      </trkpt>
      <trkpt lat="47.97986" lon="-2.63382">
        <ele>48.2</ele>
        <time>2021-08-08T09:26:12Z</time>
      </trkpt>
      <trkpt lat="47.9799" lon="-2.63388">
        <ele>48.2</ele>
        <time>2021-08-08T09:26:13Z</time>
      </trkpt>
      <trkpt lat="47.97993" lon="-2.63394">
        <ele>48.2</ele>
        <time>2021-08-08T09:26:14Z</time>
      </trkpt>
      <trkpt lat="47.97997" lon="-2.634">
        <ele>48.2</ele>
        <time>2021-08-08T09:26:15Z</time>
      </trkpt>
      <trkpt lat="47.98" lon="-2.63406">
        <ele>48.2</ele>
        <time>2021-08-08T09:26:16Z</time>
      </trkpt>
      <trkpt lat="47.98003" lon="-2.63411">
        <ele>48.4</ele>
        <time>2021-08-08T09:26:17Z</time>
      </trkpt>
      <trkpt lat="47.98006" lon="-2.63417">
        <ele>48.4</ele>
        <time>2021-08-08T09:26:18Z</time>
      </trkpt>
      <trkpt lat="47.98009" lon="-2.63423">
        <ele>48.4</ele>
        <time>2021-08-08T09:26:19Z</time>
      </trkpt>
      <trkpt lat="47.98012" lon="-2.63429">
        <ele>48.4</ele>
        <time>2021-08-08T09:26:20Z</time>
      </trkpt>
      <trkpt lat="47.98015" lon="-2.63436">
        <ele>48.4</ele>
        <time>2021-08-08T09:26:21Z</time>
      </trkpt>
      <trkpt lat="47.98019" lon="-2.63441">
        <ele>48.4</ele>
        <time>2021-08-08T09:26:22Z</time>
      </trkpt>
      <trkpt lat="47.98022" lon="-2.63447">
        <ele>48.4</ele>
        <time>2021-08-08T09:26:23Z</time>
      </trkpt>
      <trkpt lat="47.98024" lon="-2.63453">
        <ele>48.4</ele>
        <time>2021-08-08T09:26:24Z</time>
      </trkpt>
      <trkpt lat="47.98027" lon="-2.63458">
        <ele>48.4</ele>
        <time>2021-08-08T09:26:25Z</time>
      </trkpt>
      <trkpt lat="47.9803" lon="-2.63464">
        <ele>48.4</ele>
        <time>2021-08-08T09:26:26Z</time>
      </trkpt>
      <trkpt lat="47.98033" lon="-2.6347">
        <ele>48.4</ele>
        <time>2021-08-08T09:26:27Z</time>
      </trkpt>
      <trkpt lat="47.98036" lon="-2.63476">
        <ele>48.4</ele>
        <time>2021-08-08T09:26:28Z</time>
      </trkpt>
      <trkpt lat="47.98039" lon="-2.63482">
        <ele>48.4</ele>
        <time>2021-08-08T09:26:29Z</time>
      </trkpt>
      <trkpt lat="47.98042" lon="-2.63488">
        <ele>48.4</ele>
        <time>2021-08-08T09:26:30Z</time>
      </trkpt>
      <trkpt lat="47.98045" lon="-2.63494">
        <ele>48.4</ele>
        <time>2021-08-08T09:26:31Z</time>
      </trkpt>
      <trkpt lat="47.98048" lon="-2.635">
        <ele>48.4</ele>
        <time>2021-08-08T09:26:32Z</time>
      </trkpt>
      <trkpt lat="47.98052" lon="-2.63505">
        <ele>48.4</ele>
        <time>2021-08-08T09:26:33Z</time>
      </trkpt>
      <trkpt lat="47.98055" lon="-2.63511">
        <ele>48.4</ele>
        <time>2021-08-08T09:26:34Z</time>
      </trkpt>
      <trkpt lat="47.98058" lon="-2.63517">
        <ele>48.4</ele>
        <time>2021-08-08T09:26:35Z</time>
      </trkpt>
      <trkpt lat="47.98061" lon="-2.63522">
        <ele>48.4</ele>
        <time>2021-08-08T09:26:36Z</time>
      </trkpt>
      <trkpt lat="47.98064" lon="-2.63527">
        <ele>48.4</ele>
        <time>2021-08-08T09:26:37Z</time>
      </trkpt>
      <trkpt lat="47.98067" lon="-2.63533">
        <ele>48.4</ele>
        <time>2021-08-08T09:26:38Z</time>
      </trkpt>
      <trkpt lat="47.9807" lon="-2.63538">
        <ele>48.4</ele>
        <time>2021-08-08T09:26:39Z</time>
      </trkpt>
      <trkpt lat="47.98073" lon="-2.63544">
        <ele>48.4</ele>
        <time>2021-08-08T09:26:40Z</time>
      </trkpt>
      <trkpt lat="47.98076" lon="-2.63549">
        <ele>48.4</ele>
        <time>2021-08-08T09:26:41Z</time>
      </trkpt>
      <trkpt lat="47.98078" lon="-2.63555">
        <ele>48.4</ele>
        <time>2021-08-08T09:26:42Z</time>
      </trkpt>
      <trkpt lat="47.98081" lon="-2.63561">
        <ele>48.4</ele>
        <time>2021-08-08T09:26:43Z</time>
      </trkpt>
      <trkpt lat="47.98085" lon="-2.63566">
        <ele>48.4</ele>
        <time>2021-08-08T09:26:44Z</time>
      </trkpt>
      <trkpt lat="47.98087" lon="-2.63572">
        <ele>48.4</ele>
        <time>2021-08-08T09:26:45Z</time>
      </trkpt>
      <trkpt lat="47.9809" lon="-2.63578">
        <ele>48.4</ele>
        <time>2021-08-08T09:26:46Z</time>
      </trkpt>
      <trkpt lat="47.98093" lon="-2.63583">
        <ele>48.2</ele>
        <time>2021-08-08T09:26:47Z</time>
      </trkpt>
      <trkpt lat="47.98096" lon="-2.63589">
        <ele>48.4</ele>
        <time>2021-08-08T09:26:48Z</time>
      </trkpt>
      <trkpt lat="47.981" lon="-2.63595">
        <ele>48.4</ele>
        <time>2021-08-08T09:26:49Z</time>
      </trkpt>
      <trkpt lat="47.98102" lon="-2.636">
        <ele>48.4</ele>
        <time>2021-08-08T09:26:50Z</time>
      </trkpt>
      <trkpt lat="47.98105" lon="-2.63606">
        <ele>48.4</ele>
        <time>2021-08-08T09:26:51Z</time>
      </trkpt>
      <trkpt lat="47.98108" lon="-2.63612">
        <ele>48.4</ele>
        <time>2021-08-08T09:26:52Z</time>
      </trkpt>
      <trkpt lat="47.98111" lon="-2.63618">
        <ele>48.4</ele>
        <time>2021-08-08T09:26:53Z</time>
      </trkpt>
      <trkpt lat="47.98114" lon="-2.63623">
        <ele>48.4</ele>
        <time>2021-08-08T09:26:54Z</time>
      </trkpt>
      <trkpt lat="47.98117" lon="-2.63629">
        <ele>48.4</ele>
        <time>2021-08-08T09:26:55Z</time>
      </trkpt>
      <trkpt lat="47.9812" lon="-2.63634">
        <ele>48.4</ele>
        <time>2021-08-08T09:26:56Z</time>
      </trkpt>
      <trkpt lat="47.98123" lon="-2.6364">
        <ele>48.4</ele>
        <time>2021-08-08T09:26:57Z</time>
      </trkpt>
      <trkpt lat="47.98125" lon="-2.63645">
        <ele>48.4</ele>
        <time>2021-08-08T09:26:58Z</time>
      </trkpt>
      <trkpt lat="47.98128" lon="-2.63651">
        <ele>48.4</ele>
        <time>2021-08-08T09:26:59Z</time>
      </trkpt>
      <trkpt lat="47.98131" lon="-2.63656">
        <ele>48.4</ele>
        <time>2021-08-08T09:27:00Z</time>
      </trkpt>
      <trkpt lat="47.98134" lon="-2.63661">
        <ele>48.4</ele>
        <time>2021-08-08T09:27:01Z</time>
      </trkpt>
      <trkpt lat="47.98137" lon="-2.63667">
        <ele>48.4</ele>
        <time>2021-08-08T09:27:02Z</time>
      </trkpt>
      <trkpt lat="47.9814" lon="-2.63672">
        <ele>48.4</ele>
        <time>2021-08-08T09:27:03Z</time>
      </trkpt>
      <trkpt lat="47.98143" lon="-2.63678">
        <ele>48.4</ele>
        <time>2021-08-08T09:27:04Z</time>
      </trkpt>
      <trkpt lat="47.98146" lon="-2.63683">
        <ele>48.4</ele>
        <time>2021-08-08T09:27:05Z</time>
      </trkpt>
      <trkpt lat="47.98149" lon="-2.63688">
        <ele>48.4</ele>
        <time>2021-08-08T09:27:06Z</time>
      </trkpt>
      <trkpt lat="47.98152" lon="-2.63693">
        <ele>48.4</ele>
        <time>2021-08-08T09:27:07Z</time>
      </trkpt>
      <trkpt lat="47.98154" lon="-2.63699">
        <ele>48.4</ele>
        <time>2021-08-08T09:27:08Z</time>
      </trkpt>
      <trkpt lat="47.98157" lon="-2.63704">
        <ele>48.4</ele>
        <time>2021-08-08T09:27:09Z</time>
      </trkpt>
      <trkpt lat="47.9816" lon="-2.6371">
        <ele>48.4</ele>
        <time>2021-08-08T09:27:10Z</time>
      </trkpt>
      <trkpt lat="47.98163" lon="-2.63715">
        <ele>48.4</ele>
        <time>2021-08-08T09:27:11Z</time>
      </trkpt>
      <trkpt lat="47.98166" lon="-2.63721">
        <ele>48.4</ele>
        <time>2021-08-08T09:27:12Z</time>
      </trkpt>
      <trkpt lat="47.98169" lon="-2.63726">
        <ele>48.4</ele>
        <time>2021-08-08T09:27:13Z</time>
      </trkpt>
      <trkpt lat="47.98172" lon="-2.63732">
        <ele>48.4</ele>
        <time>2021-08-08T09:27:14Z</time>
      </trkpt>
      <trkpt lat="47.98174" lon="-2.63738">
        <ele>48.4</ele>
        <time>2021-08-08T09:27:15Z</time>
      </trkpt>
      <trkpt lat="47.98177" lon="-2.63743">
        <ele>48.4</ele>
        <time>2021-08-08T09:27:16Z</time>
      </trkpt>
      <trkpt lat="47.9818" lon="-2.63749">
        <ele>48.4</ele>
        <time>2021-08-08T09:27:17Z</time>
      </trkpt>
      <trkpt lat="47.98183" lon="-2.63754">
        <ele>48.4</ele>
        <time>2021-08-08T09:27:18Z</time>
      </trkpt>
      <trkpt lat="47.98186" lon="-2.63759">
        <ele>48.4</ele>
        <time>2021-08-08T09:27:19Z</time>
      </trkpt>
      <trkpt lat="47.98189" lon="-2.63765">
        <ele>48.4</ele>
        <time>2021-08-08T09:27:20Z</time>
      </trkpt>
      <trkpt lat="47.98192" lon="-2.6377">
        <ele>48.4</ele>
        <time>2021-08-08T09:27:21Z</time>
      </trkpt>
      <trkpt lat="47.98194" lon="-2.63775">
        <ele>48.4</ele>
        <time>2021-08-08T09:27:22Z</time>
      </trkpt>
      <trkpt lat="47.98197" lon="-2.63781">
        <ele>48.4</ele>
        <time>2021-08-08T09:27:23Z</time>
      </trkpt>
      <trkpt lat="47.982" lon="-2.63786">
        <ele>48.4</ele>
        <time>2021-08-08T09:27:24Z</time>
      </trkpt>
      <trkpt lat="47.98204" lon="-2.63792">
        <ele>48.4</ele>
        <time>2021-08-08T09:27:25Z</time>
      </trkpt>
      <trkpt lat="47.98206" lon="-2.63797">
        <ele>48.4</ele>
        <time>2021-08-08T09:27:26Z</time>
      </trkpt>
      <trkpt lat="47.98209" lon="-2.63803">
        <ele>48.2</ele>
        <time>2021-08-08T09:27:27Z</time>
      </trkpt>
      <trkpt lat="47.98212" lon="-2.63808">
        <ele>48</ele>
        <time>2021-08-08T09:27:28Z</time>
      </trkpt>
      <trkpt lat="47.98215" lon="-2.63814">
        <ele>48</ele>
        <time>2021-08-08T09:27:29Z</time>
      </trkpt>
      <trkpt lat="47.98218" lon="-2.6382">
        <ele>48</ele>
        <time>2021-08-08T09:27:30Z</time>
      </trkpt>
      <trkpt lat="47.98221" lon="-2.63826">
        <ele>48</ele>
        <time>2021-08-08T09:27:31Z</time>
      </trkpt>
      <trkpt lat="47.98223" lon="-2.63831">
        <ele>48</ele>
        <time>2021-08-08T09:27:32Z</time>
      </trkpt>
      <trkpt lat="47.98226" lon="-2.63836">
        <ele>48</ele>
        <time>2021-08-08T09:27:33Z</time>
      </trkpt>
      <trkpt lat="47.98228" lon="-2.63842">
        <ele>48</ele>
        <time>2021-08-08T09:27:34Z</time>
      </trkpt>
      <trkpt lat="47.98231" lon="-2.63847">
        <ele>48</ele>
        <time>2021-08-08T09:27:35Z</time>
      </trkpt>
      <trkpt lat="47.98233" lon="-2.63852">
        <ele>48</ele>
        <time>2021-08-08T09:27:36Z</time>
      </trkpt>
      <trkpt lat="47.98236" lon="-2.63857">
        <ele>48</ele>
        <time>2021-08-08T09:27:37Z</time>
      </trkpt>
      <trkpt lat="47.98239" lon="-2.63862">
        <ele>48</ele>
        <time>2021-08-08T09:27:38Z</time>
      </trkpt>
      <trkpt lat="47.98242" lon="-2.63867">
        <ele>48</ele>
        <time>2021-08-08T09:27:39Z</time>
      </trkpt>
      <trkpt lat="47.98245" lon="-2.63872">
        <ele>48</ele>
        <time>2021-08-08T09:27:40Z</time>
      </trkpt>
      <trkpt lat="47.98248" lon="-2.63877">
        <ele>48</ele>
        <time>2021-08-08T09:27:41Z</time>
      </trkpt>
      <trkpt lat="47.98251" lon="-2.63883">
        <ele>48</ele>
        <time>2021-08-08T09:27:42Z</time>
      </trkpt>
      <trkpt lat="47.98254" lon="-2.63889">
        <ele>48</ele>
        <time>2021-08-08T09:27:43Z</time>
      </trkpt>
      <trkpt lat="47.98257" lon="-2.63895">
        <ele>48</ele>
        <time>2021-08-08T09:27:44Z</time>
      </trkpt>
      <trkpt lat="47.9826" lon="-2.639">
        <ele>48</ele>
        <time>2021-08-08T09:27:45Z</time>
      </trkpt>
      <trkpt lat="47.98263" lon="-2.63906">
        <ele>48</ele>
        <time>2021-08-08T09:27:46Z</time>
      </trkpt>
      <trkpt lat="47.98267" lon="-2.63912">
        <ele>48</ele>
        <time>2021-08-08T09:27:47Z</time>
      </trkpt>
      <trkpt lat="47.9827" lon="-2.63918">
        <ele>48</ele>
        <time>2021-08-08T09:27:48Z</time>
      </trkpt>
      <trkpt lat="47.98273" lon="-2.63923">
        <ele>48</ele>
        <time>2021-08-08T09:27:49Z</time>
      </trkpt>
      <trkpt lat="47.98277" lon="-2.63929">
        <ele>48</ele>
        <time>2021-08-08T09:27:50Z</time>
      </trkpt>
      <trkpt lat="47.9828" lon="-2.63935">
        <ele>48</ele>
        <time>2021-08-08T09:27:51Z</time>
      </trkpt>
      <trkpt lat="47.98284" lon="-2.63941">
        <ele>48</ele>
        <time>2021-08-08T09:27:52Z</time>
      </trkpt>
      <trkpt lat="47.98287" lon="-2.63946">
        <ele>48</ele>
        <time>2021-08-08T09:27:53Z</time>
      </trkpt>
      <trkpt lat="47.9829" lon="-2.63952">
        <ele>47.8</ele>
        <time>2021-08-08T09:27:54Z</time>
      </trkpt>
      <trkpt lat="47.98293" lon="-2.63957">
        <ele>47.8</ele>
        <time>2021-08-08T09:27:55Z</time>
      </trkpt>
      <trkpt lat="47.98296" lon="-2.63963">
        <ele>47.8</ele>
        <time>2021-08-08T09:27:56Z</time>
      </trkpt>
      <trkpt lat="47.983" lon="-2.63969">
        <ele>47.8</ele>
        <time>2021-08-08T09:27:57Z</time>
      </trkpt>
      <trkpt lat="47.98303" lon="-2.63975">
        <ele>47.8</ele>
        <time>2021-08-08T09:27:58Z</time>
      </trkpt>
      <trkpt lat="47.98306" lon="-2.63981">
        <ele>47.8</ele>
        <time>2021-08-08T09:27:59Z</time>
      </trkpt>
      <trkpt lat="47.98309" lon="-2.63987">
        <ele>47.6</ele>
        <time>2021-08-08T09:28:00Z</time>
      </trkpt>
      <trkpt lat="47.98312" lon="-2.63993">
        <ele>47.6</ele>
        <time>2021-08-08T09:28:01Z</time>
      </trkpt>
      <trkpt lat="47.98315" lon="-2.63998">
        <ele>47.6</ele>
        <time>2021-08-08T09:28:02Z</time>
      </trkpt>
      <trkpt lat="47.98318" lon="-2.64003">
        <ele>47.6</ele>
        <time>2021-08-08T09:28:03Z</time>
      </trkpt>
      <trkpt lat="47.9832" lon="-2.64008">
        <ele>47.4</ele>
        <time>2021-08-08T09:28:04Z</time>
      </trkpt>
      <trkpt lat="47.98323" lon="-2.64012">
        <ele>47.4</ele>
        <time>2021-08-08T09:28:05Z</time>
      </trkpt>
      <trkpt lat="47.98325" lon="-2.64016">
        <ele>47.8</ele>
        <time>2021-08-08T09:28:06Z</time>
      </trkpt>
      <trkpt lat="47.98327" lon="-2.6402">
        <ele>47.8</ele>
        <time>2021-08-08T09:28:07Z</time>
      </trkpt>
      <trkpt lat="47.98329" lon="-2.64024">
        <ele>47.8</ele>
        <time>2021-08-08T09:28:08Z</time>
      </trkpt>
      <trkpt lat="47.98331" lon="-2.64028">
        <ele>47.8</ele>
        <time>2021-08-08T09:28:09Z</time>
      </trkpt>
      <trkpt lat="47.98333" lon="-2.64032">
        <ele>48</ele>
        <time>2021-08-08T09:28:10Z</time>
      </trkpt>
      <trkpt lat="47.98335" lon="-2.64036">
        <ele>48</ele>
        <time>2021-08-08T09:28:11Z</time>
      </trkpt>
      <trkpt lat="47.98337" lon="-2.6404">
        <ele>48</ele>
        <time>2021-08-08T09:28:12Z</time>
      </trkpt>
      <trkpt lat="47.98338" lon="-2.64044">
        <ele>48.2</ele>
        <time>2021-08-08T09:28:13Z</time>
      </trkpt>
      <trkpt lat="47.98339" lon="-2.64047">
        <ele>48.4</ele>
        <time>2021-08-08T09:28:14Z</time>
      </trkpt>
      <trkpt lat="47.98341" lon="-2.6405">
        <ele>48.8</ele>
        <time>2021-08-08T09:28:15Z</time>
      </trkpt>
      <trkpt lat="47.98342" lon="-2.64052">
        <ele>49</ele>
        <time>2021-08-08T09:28:16Z</time>
      </trkpt>
      <trkpt lat="47.98343" lon="-2.64055">
        <ele>49.2</ele>
        <time>2021-08-08T09:28:17Z</time>
      </trkpt>
      <trkpt lat="47.98344" lon="-2.64057">
        <ele>49.4</ele>
        <time>2021-08-08T09:28:18Z</time>
      </trkpt>
      <trkpt lat="47.98345" lon="-2.64059">
        <ele>49.6</ele>
        <time>2021-08-08T09:28:19Z</time>
      </trkpt>
      <trkpt lat="47.98346" lon="-2.64061">
        <ele>49.8</ele>
        <time>2021-08-08T09:28:20Z</time>
      </trkpt>
      <trkpt lat="47.98347" lon="-2.64063">
        <ele>49.8</ele>
        <time>2021-08-08T09:28:21Z</time>
      </trkpt>
      <trkpt lat="47.98348" lon="-2.64066">
        <ele>50</ele>
        <time>2021-08-08T09:28:22Z</time>
      </trkpt>
      <trkpt lat="47.98349" lon="-2.64068">
        <ele>50.2</ele>
        <time>2021-08-08T09:28:23Z</time>
      </trkpt>
      <trkpt lat="47.98351" lon="-2.64069">
        <ele>50.4</ele>
        <time>2021-08-08T09:28:24Z</time>
      </trkpt>
      <trkpt lat="47.98353" lon="-2.64072">
        <ele>50.4</ele>
        <time>2021-08-08T09:28:25Z</time>
      </trkpt>
      <trkpt lat="47.98355" lon="-2.64075">
        <ele>50.4</ele>
        <time>2021-08-08T09:28:26Z</time>
      </trkpt>
      <trkpt lat="47.98357" lon="-2.64078">
        <ele>50.4</ele>
        <time>2021-08-08T09:28:27Z</time>
      </trkpt>
      <trkpt lat="47.98358" lon="-2.64081">
        <ele>50.6</ele>
        <time>2021-08-08T09:28:28Z</time>
      </trkpt>
      <trkpt lat="47.98359" lon="-2.64085">
        <ele>50.6</ele>
        <time>2021-08-08T09:28:29Z</time>
      </trkpt>
      <trkpt lat="47.98361" lon="-2.6409">
        <ele>50.6</ele>
        <time>2021-08-08T09:28:30Z</time>
      </trkpt>
      <trkpt lat="47.98363" lon="-2.64095">
        <ele>50.6</ele>
        <time>2021-08-08T09:28:31Z</time>
      </trkpt>
      <trkpt lat="47.98366" lon="-2.64101">
        <ele>50.6</ele>
        <time>2021-08-08T09:28:32Z</time>
      </trkpt>
      <trkpt lat="47.9837" lon="-2.64108">
        <ele>50.4</ele>
        <time>2021-08-08T09:28:33Z</time>
      </trkpt>
      <trkpt lat="47.98373" lon="-2.64115">
        <ele>50.2</ele>
        <time>2021-08-08T09:28:34Z</time>
      </trkpt>
      <trkpt lat="47.98377" lon="-2.64122">
        <ele>50</ele>
        <time>2021-08-08T09:28:35Z</time>
      </trkpt>
      <trkpt lat="47.98381" lon="-2.6413">
        <ele>49.6</ele>
        <time>2021-08-08T09:28:36Z</time>
      </trkpt>
      <trkpt lat="47.98384" lon="-2.64138">
        <ele>49</ele>
        <time>2021-08-08T09:28:37Z</time>
      </trkpt>
      <trkpt lat="47.98387" lon="-2.64146">
        <ele>48.4</ele>
        <time>2021-08-08T09:28:38Z</time>
      </trkpt>
      <trkpt lat="47.9839" lon="-2.64154">
        <ele>48.2</ele>
        <time>2021-08-08T09:28:39Z</time>
      </trkpt>
      <trkpt lat="47.98392" lon="-2.64162">
        <ele>48</ele>
        <time>2021-08-08T09:28:40Z</time>
      </trkpt>
      <trkpt lat="47.98394" lon="-2.64171">
        <ele>47.8</ele>
        <time>2021-08-08T09:28:41Z</time>
      </trkpt>
      <trkpt lat="47.98395" lon="-2.64179">
        <ele>47.8</ele>
        <time>2021-08-08T09:28:42Z</time>
      </trkpt>
      <trkpt lat="47.98396" lon="-2.64187">
        <ele>47.8</ele>
        <time>2021-08-08T09:28:43Z</time>
      </trkpt>
      <trkpt lat="47.98397" lon="-2.64195">
        <ele>47.8</ele>
        <time>2021-08-08T09:28:44Z</time>
      </trkpt>
      <trkpt lat="47.98398" lon="-2.64203">
        <ele>47.8</ele>
        <time>2021-08-08T09:28:45Z</time>
      </trkpt>
      <trkpt lat="47.98398" lon="-2.64211">
        <ele>47.8</ele>
        <time>2021-08-08T09:28:46Z</time>
      </trkpt>
      <trkpt lat="47.98398" lon="-2.64219">
        <ele>47.8</ele>
        <time>2021-08-08T09:28:47Z</time>
      </trkpt>
      <trkpt lat="47.98398" lon="-2.64226">
        <ele>47.8</ele>
        <time>2021-08-08T09:28:48Z</time>
      </trkpt>
      <trkpt lat="47.98399" lon="-2.64233">
        <ele>47.8</ele>
        <time>2021-08-08T09:28:49Z</time>
      </trkpt>
      <trkpt lat="47.98398" lon="-2.64239">
        <ele>47.8</ele>
        <time>2021-08-08T09:28:50Z</time>
      </trkpt>
      <trkpt lat="47.98399" lon="-2.64245">
        <ele>47.8</ele>
        <time>2021-08-08T09:28:51Z</time>
      </trkpt>
      <trkpt lat="47.98399" lon="-2.6425">
        <ele>48.2</ele>
        <time>2021-08-08T09:28:52Z</time>
      </trkpt>
      <trkpt lat="47.98399" lon="-2.64255">
        <ele>48</ele>
        <time>2021-08-08T09:28:53Z</time>
      </trkpt>
      <trkpt lat="47.984" lon="-2.6426">
        <ele>48</ele>
        <time>2021-08-08T09:28:54Z</time>
      </trkpt>
      <trkpt lat="47.984" lon="-2.64264">
        <ele>48.2</ele>
        <time>2021-08-08T09:28:55Z</time>
      </trkpt>
      <trkpt lat="47.984" lon="-2.64269">
        <ele>48.2</ele>
        <time>2021-08-08T09:28:56Z</time>
      </trkpt>
      <trkpt lat="47.98399" lon="-2.64275">
        <ele>48.2</ele>
        <time>2021-08-08T09:28:57Z</time>
      </trkpt>
      <trkpt lat="47.98399" lon="-2.64281">
        <ele>48.4</ele>
        <time>2021-08-08T09:28:58Z</time>
      </trkpt>
      <trkpt lat="47.98399" lon="-2.64287">
        <ele>48.4</ele>
        <time>2021-08-08T09:28:59Z</time>
      </trkpt>
      <trkpt lat="47.98398" lon="-2.64293">
        <ele>48.4</ele>
        <time>2021-08-08T09:29:00Z</time>
      </trkpt>
      <trkpt lat="47.98397" lon="-2.64299">
        <ele>48.4</ele>
        <time>2021-08-08T09:29:01Z</time>
      </trkpt>
      <trkpt lat="47.98396" lon="-2.64305">
        <ele>48.4</ele>
        <time>2021-08-08T09:29:02Z</time>
      </trkpt>
      <trkpt lat="47.98395" lon="-2.64312">
        <ele>48.6</ele>
        <time>2021-08-08T09:29:03Z</time>
      </trkpt>
      <trkpt lat="47.98394" lon="-2.64319">
        <ele>48.6</ele>
        <time>2021-08-08T09:29:04Z</time>
      </trkpt>
      <trkpt lat="47.98393" lon="-2.64325">
        <ele>48.6</ele>
        <time>2021-08-08T09:29:05Z</time>
      </trkpt>
      <trkpt lat="47.98392" lon="-2.64332">
        <ele>48.6</ele>
        <time>2021-08-08T09:29:06Z</time>
      </trkpt>
      <trkpt lat="47.98391" lon="-2.64338">
        <ele>48.8</ele>
        <time>2021-08-08T09:29:07Z</time>
      </trkpt>
      <trkpt lat="47.9839" lon="-2.64345">
        <ele>48.8</ele>
        <time>2021-08-08T09:29:08Z</time>
      </trkpt>
      <trkpt lat="47.98389" lon="-2.64351">
        <ele>49</ele>
        <time>2021-08-08T09:29:09Z</time>
      </trkpt>
      <trkpt lat="47.98388" lon="-2.64357">
        <ele>49</ele>
        <time>2021-08-08T09:29:10Z</time>
      </trkpt>
      <trkpt lat="47.98387" lon="-2.64364">
        <ele>49.2</ele>
        <time>2021-08-08T09:29:11Z</time>
      </trkpt>
      <trkpt lat="47.98386" lon="-2.64371">
        <ele>49.2</ele>
        <time>2021-08-08T09:29:12Z</time>
      </trkpt>
      <trkpt lat="47.98385" lon="-2.64378">
        <ele>49.4</ele>
        <time>2021-08-08T09:29:13Z</time>
      </trkpt>
      <trkpt lat="47.98385" lon="-2.64385">
        <ele>49.4</ele>
        <time>2021-08-08T09:29:14Z</time>
      </trkpt>
      <trkpt lat="47.98383" lon="-2.64392">
        <ele>49.4</ele>
        <time>2021-08-08T09:29:15Z</time>
      </trkpt>
      <trkpt lat="47.98382" lon="-2.64399">
        <ele>49.4</ele>
        <time>2021-08-08T09:29:16Z</time>
      </trkpt>
      <trkpt lat="47.98381" lon="-2.64407">
        <ele>49.4</ele>
        <time>2021-08-08T09:29:17Z</time>
      </trkpt>
      <trkpt lat="47.9838" lon="-2.64414">
        <ele>49.4</ele>
        <time>2021-08-08T09:29:18Z</time>
      </trkpt>
      <trkpt lat="47.98379" lon="-2.64421">
        <ele>49.4</ele>
        <time>2021-08-08T09:29:19Z</time>
      </trkpt>
      <trkpt lat="47.98378" lon="-2.64428">
        <ele>49.4</ele>
        <time>2021-08-08T09:29:20Z</time>
      </trkpt>
      <trkpt lat="47.98378" lon="-2.64434">
        <ele>49.4</ele>
        <time>2021-08-08T09:29:21Z</time>
      </trkpt>
      <trkpt lat="47.98377" lon="-2.64441">
        <ele>49.4</ele>
        <time>2021-08-08T09:29:22Z</time>
      </trkpt>
      <trkpt lat="47.98376" lon="-2.64447">
        <ele>49.2</ele>
        <time>2021-08-08T09:29:23Z</time>
      </trkpt>
      <trkpt lat="47.98375" lon="-2.64453">
        <ele>49</ele>
        <time>2021-08-08T09:29:24Z</time>
      </trkpt>
      <trkpt lat="47.98374" lon="-2.6446">
        <ele>48.8</ele>
        <time>2021-08-08T09:29:25Z</time>
      </trkpt>
      <trkpt lat="47.98373" lon="-2.64466">
        <ele>48.8</ele>
        <time>2021-08-08T09:29:26Z</time>
      </trkpt>
      <trkpt lat="47.98373" lon="-2.64472">
        <ele>48.6</ele>
        <time>2021-08-08T09:29:27Z</time>
      </trkpt>
      <trkpt lat="47.98372" lon="-2.64478">
        <ele>48.6</ele>
        <time>2021-08-08T09:29:28Z</time>
      </trkpt>
      <trkpt lat="47.9837" lon="-2.64485">
        <ele>48.6</ele>
        <time>2021-08-08T09:29:29Z</time>
      </trkpt>
      <trkpt lat="47.98369" lon="-2.64493">
        <ele>48.6</ele>
        <time>2021-08-08T09:29:30Z</time>
      </trkpt>
      <trkpt lat="47.98368" lon="-2.645">
        <ele>48.4</ele>
        <time>2021-08-08T09:29:31Z</time>
      </trkpt>
      <trkpt lat="47.98368" lon="-2.64508">
        <ele>48.4</ele>
        <time>2021-08-08T09:29:32Z</time>
      </trkpt>
      <trkpt lat="47.98368" lon="-2.64514">
        <ele>48.4</ele>
        <time>2021-08-08T09:29:33Z</time>
      </trkpt>
      <trkpt lat="47.98368" lon="-2.64521">
        <ele>48.4</ele>
        <time>2021-08-08T09:29:34Z</time>
      </trkpt>
      <trkpt lat="47.98368" lon="-2.64528">
        <ele>48.4</ele>
        <time>2021-08-08T09:29:35Z</time>
      </trkpt>
      <trkpt lat="47.98368" lon="-2.64535">
        <ele>48.4</ele>
        <time>2021-08-08T09:29:36Z</time>
      </trkpt>
      <trkpt lat="47.98368" lon="-2.64542">
        <ele>48.4</ele>
        <time>2021-08-08T09:29:37Z</time>
      </trkpt>
      <trkpt lat="47.98368" lon="-2.64548">
        <ele>48.4</ele>
        <time>2021-08-08T09:29:38Z</time>
      </trkpt>
      <trkpt lat="47.98369" lon="-2.64554">
        <ele>48.4</ele>
        <time>2021-08-08T09:29:39Z</time>
      </trkpt>
      <trkpt lat="47.9837" lon="-2.6456">
        <ele>48.4</ele>
        <time>2021-08-08T09:29:40Z</time>
      </trkpt>
      <trkpt lat="47.9837" lon="-2.64566">
        <ele>48.4</ele>
        <time>2021-08-08T09:29:41Z</time>
      </trkpt>
      <trkpt lat="47.98371" lon="-2.64573">
        <ele>48.4</ele>
        <time>2021-08-08T09:29:42Z</time>
      </trkpt>
      <trkpt lat="47.98372" lon="-2.6458">
        <ele>48.4</ele>
        <time>2021-08-08T09:29:43Z</time>
      </trkpt>
      <trkpt lat="47.98373" lon="-2.64586">
        <ele>48.4</ele>
        <time>2021-08-08T09:29:44Z</time>
      </trkpt>
      <trkpt lat="47.98374" lon="-2.64592">
        <ele>48.4</ele>
        <time>2021-08-08T09:29:45Z</time>
      </trkpt>
      <trkpt lat="47.98375" lon="-2.64598">
        <ele>48.2</ele>
        <time>2021-08-08T09:29:46Z</time>
      </trkpt>
      <trkpt lat="47.98376" lon="-2.64605">
        <ele>48.2</ele>
        <time>2021-08-08T09:29:47Z</time>
      </trkpt>
      <trkpt lat="47.98378" lon="-2.64611">
        <ele>48.2</ele>
        <time>2021-08-08T09:29:48Z</time>
      </trkpt>
      <trkpt lat="47.98379" lon="-2.64618">
        <ele>48.2</ele>
        <time>2021-08-08T09:29:49Z</time>
      </trkpt>
      <trkpt lat="47.9838" lon="-2.64624">
        <ele>48.4</ele>
        <time>2021-08-08T09:29:50Z</time>
      </trkpt>
      <trkpt lat="47.98382" lon="-2.6463">
        <ele>48.4</ele>
        <time>2021-08-08T09:29:51Z</time>
      </trkpt>
      <trkpt lat="47.98384" lon="-2.64636">
        <ele>48.2</ele>
        <time>2021-08-08T09:29:52Z</time>
      </trkpt>
      <trkpt lat="47.98385" lon="-2.64641">
        <ele>48.2</ele>
        <time>2021-08-08T09:29:53Z</time>
      </trkpt>
      <trkpt lat="47.98386" lon="-2.64647">
        <ele>48.2</ele>
        <time>2021-08-08T09:29:54Z</time>
      </trkpt>
      <trkpt lat="47.98387" lon="-2.64653">
        <ele>48.2</ele>
        <time>2021-08-08T09:29:55Z</time>
      </trkpt>
      <trkpt lat="47.98388" lon="-2.64658">
        <ele>48.2</ele>
        <time>2021-08-08T09:29:56Z</time>
      </trkpt>
      <trkpt lat="47.9839" lon="-2.64663">
        <ele>48.2</ele>
        <time>2021-08-08T09:29:57Z</time>
      </trkpt>
      <trkpt lat="47.98391" lon="-2.64668">
        <ele>48.2</ele>
        <time>2021-08-08T09:29:58Z</time>
      </trkpt>
      <trkpt lat="47.98393" lon="-2.64674">
        <ele>48.4</ele>
        <time>2021-08-08T09:29:59Z</time>
      </trkpt>
      <trkpt lat="47.98395" lon="-2.64679">
        <ele>48.4</ele>
        <time>2021-08-08T09:30:00Z</time>
      </trkpt>
      <trkpt lat="47.98396" lon="-2.64685">
        <ele>48.6</ele>
        <time>2021-08-08T09:30:01Z</time>
      </trkpt>
      <trkpt lat="47.98398" lon="-2.64691">
        <ele>48.6</ele>
        <time>2021-08-08T09:30:02Z</time>
      </trkpt>
      <trkpt lat="47.98399" lon="-2.64696">
        <ele>48.6</ele>
        <time>2021-08-08T09:30:03Z</time>
      </trkpt>
      <trkpt lat="47.984" lon="-2.64703">
        <ele>48.6</ele>
        <time>2021-08-08T09:30:04Z</time>
      </trkpt>
      <trkpt lat="47.98402" lon="-2.64709">
        <ele>48.6</ele>
        <time>2021-08-08T09:30:05Z</time>
      </trkpt>
      <trkpt lat="47.98403" lon="-2.64716">
        <ele>48.6</ele>
        <time>2021-08-08T09:30:06Z</time>
      </trkpt>
      <trkpt lat="47.98404" lon="-2.64722">
        <ele>48.6</ele>
        <time>2021-08-08T09:30:07Z</time>
      </trkpt>
      <trkpt lat="47.98406" lon="-2.64728">
        <ele>48.6</ele>
        <time>2021-08-08T09:30:08Z</time>
      </trkpt>
      <trkpt lat="47.98408" lon="-2.64734">
        <ele>48.6</ele>
        <time>2021-08-08T09:30:09Z</time>
      </trkpt>
      <trkpt lat="47.98409" lon="-2.6474">
        <ele>48.4</ele>
        <time>2021-08-08T09:30:10Z</time>
      </trkpt>
      <trkpt lat="47.98411" lon="-2.64746">
        <ele>48.4</ele>
        <time>2021-08-08T09:30:11Z</time>
      </trkpt>
      <trkpt lat="47.98413" lon="-2.64752">
        <ele>48.2</ele>
        <time>2021-08-08T09:30:12Z</time>
      </trkpt>
      <trkpt lat="47.98415" lon="-2.64758">
        <ele>48.2</ele>
        <time>2021-08-08T09:30:13Z</time>
      </trkpt>
      <trkpt lat="47.98417" lon="-2.64763">
        <ele>48.2</ele>
        <time>2021-08-08T09:30:14Z</time>
      </trkpt>
      <trkpt lat="47.98419" lon="-2.64769">
        <ele>48.2</ele>
        <time>2021-08-08T09:30:15Z</time>
      </trkpt>
      <trkpt lat="47.9842" lon="-2.64775">
        <ele>48</ele>
        <time>2021-08-08T09:30:16Z</time>
      </trkpt>
      <trkpt lat="47.98422" lon="-2.6478">
        <ele>48</ele>
        <time>2021-08-08T09:30:17Z</time>
      </trkpt>
      <trkpt lat="47.98424" lon="-2.64785">
        <ele>48</ele>
        <time>2021-08-08T09:30:18Z</time>
      </trkpt>
      <trkpt lat="47.98426" lon="-2.6479">
        <ele>48</ele>
        <time>2021-08-08T09:30:19Z</time>
      </trkpt>
      <trkpt lat="47.98428" lon="-2.64794">
        <ele>48</ele>
        <time>2021-08-08T09:30:20Z</time>
      </trkpt>
      <trkpt lat="47.9843" lon="-2.64799">
        <ele>48</ele>
        <time>2021-08-08T09:30:21Z</time>
      </trkpt>
      <trkpt lat="47.98432" lon="-2.64803">
        <ele>48.2</ele>
        <time>2021-08-08T09:30:22Z</time>
      </trkpt>
      <trkpt lat="47.98434" lon="-2.64809">
        <ele>48.2</ele>
        <time>2021-08-08T09:30:23Z</time>
      </trkpt>
      <trkpt lat="47.98437" lon="-2.64814">
        <ele>48.2</ele>
        <time>2021-08-08T09:30:24Z</time>
      </trkpt>
      <trkpt lat="47.9844" lon="-2.6482">
        <ele>48.2</ele>
        <time>2021-08-08T09:30:25Z</time>
      </trkpt>
      <trkpt lat="47.98443" lon="-2.64825">
        <ele>48.2</ele>
        <time>2021-08-08T09:30:26Z</time>
      </trkpt>
      <trkpt lat="47.98446" lon="-2.64831">
        <ele>48</ele>
        <time>2021-08-08T09:30:27Z</time>
      </trkpt>
      <trkpt lat="47.98449" lon="-2.64837">
        <ele>48</ele>
        <time>2021-08-08T09:30:28Z</time>
      </trkpt>
      <trkpt lat="47.98452" lon="-2.64843">
        <ele>47.8</ele>
        <time>2021-08-08T09:30:29Z</time>
      </trkpt>
      <trkpt lat="47.98455" lon="-2.64848">
        <ele>47.8</ele>
        <time>2021-08-08T09:30:30Z</time>
      </trkpt>
      <trkpt lat="47.98459" lon="-2.64854">
        <ele>47.8</ele>
        <time>2021-08-08T09:30:31Z</time>
      </trkpt>
      <trkpt lat="47.98462" lon="-2.6486">
        <ele>47.8</ele>
        <time>2021-08-08T09:30:32Z</time>
      </trkpt>
      <trkpt lat="47.98465" lon="-2.64866">
        <ele>47.8</ele>
        <time>2021-08-08T09:30:33Z</time>
      </trkpt>
      <trkpt lat="47.98469" lon="-2.64871">
        <ele>48</ele>
        <time>2021-08-08T09:30:34Z</time>
      </trkpt>
      <trkpt lat="47.98472" lon="-2.64877">
        <ele>48</ele>
        <time>2021-08-08T09:30:35Z</time>
      </trkpt>
      <trkpt lat="47.98475" lon="-2.64883">
        <ele>48</ele>
        <time>2021-08-08T09:30:36Z</time>
      </trkpt>
      <trkpt lat="47.98478" lon="-2.64889">
        <ele>48</ele>
        <time>2021-08-08T09:30:37Z</time>
      </trkpt>
      <trkpt lat="47.98482" lon="-2.64894">
        <ele>48</ele>
        <time>2021-08-08T09:30:38Z</time>
      </trkpt>
      <trkpt lat="47.98485" lon="-2.649">
        <ele>48</ele>
        <time>2021-08-08T09:30:39Z</time>
      </trkpt>
      <trkpt lat="47.98488" lon="-2.64905">
        <ele>48</ele>
        <time>2021-08-08T09:30:40Z</time>
      </trkpt>
      <trkpt lat="47.98491" lon="-2.6491">
        <ele>48</ele>
        <time>2021-08-08T09:30:41Z</time>
      </trkpt>
      <trkpt lat="47.98494" lon="-2.64916">
        <ele>48</ele>
        <time>2021-08-08T09:30:42Z</time>
      </trkpt>
      <trkpt lat="47.98498" lon="-2.64922">
        <ele>48</ele>
        <time>2021-08-08T09:30:43Z</time>
      </trkpt>
      <trkpt lat="47.98501" lon="-2.64928">
        <ele>47.8</ele>
        <time>2021-08-08T09:30:44Z</time>
      </trkpt>
      <trkpt lat="47.98505" lon="-2.64933">
        <ele>48</ele>
        <time>2021-08-08T09:30:45Z</time>
      </trkpt>
      <trkpt lat="47.98509" lon="-2.64939">
        <ele>48</ele>
        <time>2021-08-08T09:30:46Z</time>
      </trkpt>
      <trkpt lat="47.98513" lon="-2.64945">
        <ele>48</ele>
        <time>2021-08-08T09:30:47Z</time>
      </trkpt>
      <trkpt lat="47.98516" lon="-2.64951">
        <ele>48</ele>
        <time>2021-08-08T09:30:48Z</time>
      </trkpt>
      <trkpt lat="47.9852" lon="-2.64956">
        <ele>48</ele>
        <time>2021-08-08T09:30:49Z</time>
      </trkpt>
      <trkpt lat="47.98523" lon="-2.64961">
        <ele>48</ele>
        <time>2021-08-08T09:30:50Z</time>
      </trkpt>
      <trkpt lat="47.98526" lon="-2.64966">
        <ele>48</ele>
        <time>2021-08-08T09:30:51Z</time>
      </trkpt>
      <trkpt lat="47.98529" lon="-2.6497">
        <ele>48</ele>
        <time>2021-08-08T09:30:52Z</time>
      </trkpt>
      <trkpt lat="47.98531" lon="-2.64975">
        <ele>48</ele>
        <time>2021-08-08T09:30:53Z</time>
      </trkpt>
      <trkpt lat="47.98534" lon="-2.6498">
        <ele>48</ele>
        <time>2021-08-08T09:30:54Z</time>
      </trkpt>
      <trkpt lat="47.98537" lon="-2.64985">
        <ele>48</ele>
        <time>2021-08-08T09:30:55Z</time>
      </trkpt>
      <trkpt lat="47.9854" lon="-2.64989">
        <ele>48</ele>
        <time>2021-08-08T09:30:56Z</time>
      </trkpt>
      <trkpt lat="47.98543" lon="-2.64993">
        <ele>48</ele>
        <time>2021-08-08T09:30:57Z</time>
      </trkpt>
      <trkpt lat="47.98546" lon="-2.64997">
        <ele>47.8</ele>
        <time>2021-08-08T09:30:58Z</time>
      </trkpt>
      <trkpt lat="47.98549" lon="-2.65001">
        <ele>47.8</ele>
        <time>2021-08-08T09:30:59Z</time>
      </trkpt>
      <trkpt lat="47.98553" lon="-2.65005">
        <ele>47.8</ele>
        <time>2021-08-08T09:31:00Z</time>
      </trkpt>
      <trkpt lat="47.98557" lon="-2.65009">
        <ele>47.6</ele>
        <time>2021-08-08T09:31:01Z</time>
      </trkpt>
      <trkpt lat="47.98561" lon="-2.65013">
        <ele>47.6</ele>
        <time>2021-08-08T09:31:02Z</time>
      </trkpt>
      <trkpt lat="47.98565" lon="-2.65016">
        <ele>47.6</ele>
        <time>2021-08-08T09:31:03Z</time>
      </trkpt>
      <trkpt lat="47.9857" lon="-2.6502">
        <ele>47.6</ele>
        <time>2021-08-08T09:31:04Z</time>
      </trkpt>
      <trkpt lat="47.98574" lon="-2.65024">
        <ele>47.6</ele>
        <time>2021-08-08T09:31:05Z</time>
      </trkpt>
      <trkpt lat="47.98578" lon="-2.65027">
        <ele>47.6</ele>
        <time>2021-08-08T09:31:06Z</time>
      </trkpt>
      <trkpt lat="47.98582" lon="-2.6503">
        <ele>47.6</ele>
        <time>2021-08-08T09:31:07Z</time>
      </trkpt>
      <trkpt lat="47.98587" lon="-2.65034">
        <ele>47.6</ele>
        <time>2021-08-08T09:31:08Z</time>
      </trkpt>
      <trkpt lat="47.98592" lon="-2.65037">
        <ele>47.6</ele>
        <time>2021-08-08T09:31:09Z</time>
      </trkpt>
      <trkpt lat="47.98597" lon="-2.65041">
        <ele>47.6</ele>
        <time>2021-08-08T09:31:10Z</time>
      </trkpt>
      <trkpt lat="47.98602" lon="-2.65044">
        <ele>47.4</ele>
        <time>2021-08-08T09:31:11Z</time>
      </trkpt>
      <trkpt lat="47.98607" lon="-2.65047">
        <ele>47.4</ele>
        <time>2021-08-08T09:31:12Z</time>
      </trkpt>
      <trkpt lat="47.98612" lon="-2.6505">
        <ele>47.4</ele>
        <time>2021-08-08T09:31:13Z</time>
      </trkpt>
      <trkpt lat="47.98616" lon="-2.65053">
        <ele>47.4</ele>
        <time>2021-08-08T09:31:14Z</time>
      </trkpt>
      <trkpt lat="47.98621" lon="-2.65056">
        <ele>47.4</ele>
        <time>2021-08-08T09:31:15Z</time>
      </trkpt>
      <trkpt lat="47.98626" lon="-2.65059">
        <ele>47.4</ele>
        <time>2021-08-08T09:31:16Z</time>
      </trkpt>
      <trkpt lat="47.9863" lon="-2.65062">
        <ele>47.4</ele>
        <time>2021-08-08T09:31:17Z</time>
      </trkpt>
      <trkpt lat="47.98635" lon="-2.65065">
        <ele>47.4</ele>
        <time>2021-08-08T09:31:18Z</time>
      </trkpt>
      <trkpt lat="47.98639" lon="-2.65068">
        <ele>47.4</ele>
        <time>2021-08-08T09:31:19Z</time>
      </trkpt>
      <trkpt lat="47.98643" lon="-2.65071">
        <ele>47.4</ele>
        <time>2021-08-08T09:31:20Z</time>
      </trkpt>
      <trkpt lat="47.98647" lon="-2.65074">
        <ele>47.4</ele>
        <time>2021-08-08T09:31:21Z</time>
      </trkpt>
      <trkpt lat="47.98651" lon="-2.65077">
        <ele>47.4</ele>
        <time>2021-08-08T09:31:22Z</time>
      </trkpt>
      <trkpt lat="47.98655" lon="-2.6508">
        <ele>47.4</ele>
        <time>2021-08-08T09:31:23Z</time>
      </trkpt>
      <trkpt lat="47.98659" lon="-2.65083">
        <ele>47.4</ele>
        <time>2021-08-08T09:31:24Z</time>
      </trkpt>
      <trkpt lat="47.98663" lon="-2.65087">
        <ele>47.4</ele>
        <time>2021-08-08T09:31:25Z</time>
      </trkpt>
      <trkpt lat="47.98668" lon="-2.65089">
        <ele>47.4</ele>
        <time>2021-08-08T09:31:26Z</time>
      </trkpt>
      <trkpt lat="47.98672" lon="-2.65092">
        <ele>47.4</ele>
        <time>2021-08-08T09:31:27Z</time>
      </trkpt>
      <trkpt lat="47.98677" lon="-2.65094">
        <ele>47.4</ele>
        <time>2021-08-08T09:31:28Z</time>
      </trkpt>
      <trkpt lat="47.98681" lon="-2.65096">
        <ele>47.4</ele>
        <time>2021-08-08T09:31:29Z</time>
      </trkpt>
      <trkpt lat="47.98685" lon="-2.65098">
        <ele>47.4</ele>
        <time>2021-08-08T09:31:30Z</time>
      </trkpt>
      <trkpt lat="47.9869" lon="-2.651">
        <ele>47.4</ele>
        <time>2021-08-08T09:31:31Z</time>
      </trkpt>
      <trkpt lat="47.98695" lon="-2.65101">
        <ele>47.4</ele>
        <time>2021-08-08T09:31:32Z</time>
      </trkpt>
      <trkpt lat="47.987" lon="-2.65101">
        <ele>47.4</ele>
        <time>2021-08-08T09:31:33Z</time>
      </trkpt>
      <trkpt lat="47.98705" lon="-2.65102">
        <ele>47.4</ele>
        <time>2021-08-08T09:31:34Z</time>
      </trkpt>
      <trkpt lat="47.9871" lon="-2.65101">
        <ele>47.4</ele>
        <time>2021-08-08T09:31:35Z</time>
      </trkpt>
      <trkpt lat="47.98715" lon="-2.65101">
        <ele>47.4</ele>
        <time>2021-08-08T09:31:36Z</time>
      </trkpt>
      <trkpt lat="47.9872" lon="-2.651">
        <ele>47.4</ele>
        <time>2021-08-08T09:31:37Z</time>
      </trkpt>
      <trkpt lat="47.98724" lon="-2.65099">
        <ele>47.4</ele>
        <time>2021-08-08T09:31:38Z</time>
      </trkpt>
      <trkpt lat="47.98729" lon="-2.65098">
        <ele>47.4</ele>
        <time>2021-08-08T09:31:39Z</time>
      </trkpt>
      <trkpt lat="47.98733" lon="-2.65097">
        <ele>47.2</ele>
        <time>2021-08-08T09:31:40Z</time>
      </trkpt>
      <trkpt lat="47.98738" lon="-2.65096">
        <ele>47.2</ele>
        <time>2021-08-08T09:31:41Z</time>
      </trkpt>
      <trkpt lat="47.98743" lon="-2.65094">
        <ele>47.4</ele>
        <time>2021-08-08T09:31:42Z</time>
      </trkpt>
      <trkpt lat="47.98747" lon="-2.65092">
        <ele>47.4</ele>
        <time>2021-08-08T09:31:43Z</time>
      </trkpt>
      <trkpt lat="47.98751" lon="-2.65091">
        <ele>47.2</ele>
        <time>2021-08-08T09:31:44Z</time>
      </trkpt>
      <trkpt lat="47.98756" lon="-2.6509">
        <ele>47.2</ele>
        <time>2021-08-08T09:31:45Z</time>
      </trkpt>
      <trkpt lat="47.98761" lon="-2.65089">
        <ele>47.2</ele>
        <time>2021-08-08T09:31:46Z</time>
      </trkpt>
      <trkpt lat="47.98765" lon="-2.65087">
        <ele>47.2</ele>
        <time>2021-08-08T09:31:47Z</time>
      </trkpt>
      <trkpt lat="47.9877" lon="-2.65086">
        <ele>47.2</ele>
        <time>2021-08-08T09:31:48Z</time>
      </trkpt>
      <trkpt lat="47.98775" lon="-2.65085">
        <ele>47.2</ele>
        <time>2021-08-08T09:31:49Z</time>
      </trkpt>
      <trkpt lat="47.9878" lon="-2.65083">
        <ele>47.2</ele>
        <time>2021-08-08T09:31:50Z</time>
      </trkpt>
      <trkpt lat="47.98785" lon="-2.65082">
        <ele>47</ele>
        <time>2021-08-08T09:31:51Z</time>
      </trkpt>
      <trkpt lat="47.98789" lon="-2.65081">
        <ele>47</ele>
        <time>2021-08-08T09:31:52Z</time>
      </trkpt>
      <trkpt lat="47.98794" lon="-2.65079">
        <ele>47</ele>
        <time>2021-08-08T09:31:53Z</time>
      </trkpt>
      <trkpt lat="47.98798" lon="-2.65078">
        <ele>47</ele>
        <time>2021-08-08T09:31:54Z</time>
      </trkpt>
      <trkpt lat="47.98803" lon="-2.65078">
        <ele>47</ele>
        <time>2021-08-08T09:31:55Z</time>
      </trkpt>
      <trkpt lat="47.98808" lon="-2.65076">
        <ele>47</ele>
        <time>2021-08-08T09:31:56Z</time>
      </trkpt>
      <trkpt lat="47.98813" lon="-2.65075">
        <ele>47</ele>
        <time>2021-08-08T09:31:57Z</time>
      </trkpt>
      <trkpt lat="47.98817" lon="-2.65074">
        <ele>47</ele>
        <time>2021-08-08T09:31:58Z</time>
      </trkpt>
      <trkpt lat="47.98822" lon="-2.65072">
        <ele>47</ele>
        <time>2021-08-08T09:31:59Z</time>
      </trkpt>
      <trkpt lat="47.98826" lon="-2.65071">
        <ele>47</ele>
        <time>2021-08-08T09:32:00Z</time>
      </trkpt>
      <trkpt lat="47.98831" lon="-2.6507">
        <ele>47</ele>
        <time>2021-08-08T09:32:01Z</time>
      </trkpt>
      <trkpt lat="47.98836" lon="-2.65069">
        <ele>47</ele>
        <time>2021-08-08T09:32:02Z</time>
      </trkpt>
      <trkpt lat="47.9884" lon="-2.65069">
        <ele>47</ele>
        <time>2021-08-08T09:32:03Z</time>
      </trkpt>
      <trkpt lat="47.98844" lon="-2.65068">
        <ele>47</ele>
        <time>2021-08-08T09:32:04Z</time>
      </trkpt>
      <trkpt lat="47.98848" lon="-2.65068">
        <ele>47</ele>
        <time>2021-08-08T09:32:05Z</time>
      </trkpt>
      <trkpt lat="47.98852" lon="-2.65068">
        <ele>47</ele>
        <time>2021-08-08T09:32:06Z</time>
      </trkpt>
      <trkpt lat="47.98856" lon="-2.65069">
        <ele>47</ele>
        <time>2021-08-08T09:32:07Z</time>
      </trkpt>
      <trkpt lat="47.98861" lon="-2.65071">
        <ele>47</ele>
        <time>2021-08-08T09:32:08Z</time>
      </trkpt>
      <trkpt lat="47.98865" lon="-2.65073">
        <ele>47</ele>
        <time>2021-08-08T09:32:09Z</time>
      </trkpt>
      <trkpt lat="47.98869" lon="-2.65075">
        <ele>47.2</ele>
        <time>2021-08-08T09:32:10Z</time>
      </trkpt>
      <trkpt lat="47.98873" lon="-2.65077">
        <ele>47.2</ele>
        <time>2021-08-08T09:32:11Z</time>
      </trkpt>
      <trkpt lat="47.98877" lon="-2.6508">
        <ele>47.2</ele>
        <time>2021-08-08T09:32:12Z</time>
      </trkpt>
      <trkpt lat="47.98881" lon="-2.65083">
        <ele>47.2</ele>
        <time>2021-08-08T09:32:13Z</time>
      </trkpt>
      <trkpt lat="47.98885" lon="-2.65087">
        <ele>47.2</ele>
        <time>2021-08-08T09:32:14Z</time>
      </trkpt>
      <trkpt lat="47.98888" lon="-2.65091">
        <ele>47.4</ele>
        <time>2021-08-08T09:32:15Z</time>
      </trkpt>
      <trkpt lat="47.98891" lon="-2.65094">
        <ele>47.4</ele>
        <time>2021-08-08T09:32:16Z</time>
      </trkpt>
      <trkpt lat="47.98894" lon="-2.65098">
        <ele>47.4</ele>
        <time>2021-08-08T09:32:17Z</time>
      </trkpt>
      <trkpt lat="47.98897" lon="-2.65101">
        <ele>47.4</ele>
        <time>2021-08-08T09:32:18Z</time>
      </trkpt>
      <trkpt lat="47.989" lon="-2.65105">
        <ele>47.4</ele>
        <time>2021-08-08T09:32:19Z</time>
      </trkpt>
      <trkpt lat="47.98902" lon="-2.65109">
        <ele>47.4</ele>
        <time>2021-08-08T09:32:20Z</time>
      </trkpt>
      <trkpt lat="47.98904" lon="-2.65113">
        <ele>47.4</ele>
        <time>2021-08-08T09:32:21Z</time>
      </trkpt>
      <trkpt lat="47.98906" lon="-2.65117">
        <ele>47.6</ele>
        <time>2021-08-08T09:32:22Z</time>
      </trkpt>
      <trkpt lat="47.98908" lon="-2.65121">
        <ele>47.6</ele>
        <time>2021-08-08T09:32:23Z</time>
      </trkpt>
      <trkpt lat="47.98911" lon="-2.65126">
        <ele>47.6</ele>
        <time>2021-08-08T09:32:24Z</time>
      </trkpt>
      <trkpt lat="47.98914" lon="-2.65131">
        <ele>47.6</ele>
        <time>2021-08-08T09:32:25Z</time>
      </trkpt>
      <trkpt lat="47.98916" lon="-2.65137">
        <ele>47.6</ele>
        <time>2021-08-08T09:32:26Z</time>
      </trkpt>
      <trkpt lat="47.98919" lon="-2.65143">
        <ele>47.6</ele>
        <time>2021-08-08T09:32:27Z</time>
      </trkpt>
      <trkpt lat="47.98921" lon="-2.65149">
        <ele>47.6</ele>
        <time>2021-08-08T09:32:28Z</time>
      </trkpt>
      <trkpt lat="47.98924" lon="-2.65155">
        <ele>47.6</ele>
        <time>2021-08-08T09:32:29Z</time>
      </trkpt>
      <trkpt lat="47.98926" lon="-2.6516">
        <ele>47.6</ele>
        <time>2021-08-08T09:32:30Z</time>
      </trkpt>
      <trkpt lat="47.98928" lon="-2.65166">
        <ele>47.8</ele>
        <time>2021-08-08T09:32:31Z</time>
      </trkpt>
      <trkpt lat="47.98931" lon="-2.65171">
        <ele>47.8</ele>
        <time>2021-08-08T09:32:32Z</time>
      </trkpt>
      <trkpt lat="47.98933" lon="-2.65176">
        <ele>47.8</ele>
        <time>2021-08-08T09:32:33Z</time>
      </trkpt>
      <trkpt lat="47.98935" lon="-2.65182">
        <ele>47.8</ele>
        <time>2021-08-08T09:32:34Z</time>
      </trkpt>
      <trkpt lat="47.98937" lon="-2.65188">
        <ele>47.8</ele>
        <time>2021-08-08T09:32:35Z</time>
      </trkpt>
      <trkpt lat="47.98939" lon="-2.65195">
        <ele>47.8</ele>
        <time>2021-08-08T09:32:36Z</time>
      </trkpt>
      <trkpt lat="47.98942" lon="-2.65201">
        <ele>47.6</ele>
        <time>2021-08-08T09:32:37Z</time>
      </trkpt>
      <trkpt lat="47.98944" lon="-2.65207">
        <ele>47.6</ele>
        <time>2021-08-08T09:32:38Z</time>
      </trkpt>
      <trkpt lat="47.98946" lon="-2.65214">
        <ele>47.6</ele>
        <time>2021-08-08T09:32:39Z</time>
      </trkpt>
      <trkpt lat="47.98949" lon="-2.6522">
        <ele>47.6</ele>
        <time>2021-08-08T09:32:40Z</time>
      </trkpt>
      <trkpt lat="47.98951" lon="-2.65227">
        <ele>48</ele>
        <time>2021-08-08T09:32:41Z</time>
      </trkpt>
      <trkpt lat="47.98953" lon="-2.65233">
        <ele>48</ele>
        <time>2021-08-08T09:32:42Z</time>
      </trkpt>
      <trkpt lat="47.98955" lon="-2.65239">
        <ele>48</ele>
        <time>2021-08-08T09:32:43Z</time>
      </trkpt>
      <trkpt lat="47.98957" lon="-2.65245">
        <ele>48</ele>
        <time>2021-08-08T09:32:44Z</time>
      </trkpt>
      <trkpt lat="47.9896" lon="-2.6525">
        <ele>48</ele>
        <time>2021-08-08T09:32:45Z</time>
      </trkpt>
      <trkpt lat="47.98962" lon="-2.65255">
        <ele>48</ele>
        <time>2021-08-08T09:32:46Z</time>
      </trkpt>
      <trkpt lat="47.98964" lon="-2.6526">
        <ele>48</ele>
        <time>2021-08-08T09:32:47Z</time>
      </trkpt>
      <trkpt lat="47.98965" lon="-2.65265">
        <ele>48</ele>
        <time>2021-08-08T09:32:48Z</time>
      </trkpt>
      <trkpt lat="47.98966" lon="-2.6527">
        <ele>48</ele>
        <time>2021-08-08T09:32:49Z</time>
      </trkpt>
      <trkpt lat="47.98967" lon="-2.65275">
        <ele>48</ele>
        <time>2021-08-08T09:32:50Z</time>
      </trkpt>
      <trkpt lat="47.98969" lon="-2.6528">
        <ele>48</ele>
        <time>2021-08-08T09:32:51Z</time>
      </trkpt>
      <trkpt lat="47.9897" lon="-2.65285">
        <ele>48</ele>
        <time>2021-08-08T09:32:52Z</time>
      </trkpt>
      <trkpt lat="47.98971" lon="-2.65289">
        <ele>48</ele>
        <time>2021-08-08T09:32:53Z</time>
      </trkpt>
      <trkpt lat="47.98972" lon="-2.65294">
        <ele>48</ele>
        <time>2021-08-08T09:32:54Z</time>
      </trkpt>
      <trkpt lat="47.98974" lon="-2.65299">
        <ele>48</ele>
        <time>2021-08-08T09:32:55Z</time>
      </trkpt>
      <trkpt lat="47.98975" lon="-2.65304">
        <ele>48</ele>
        <time>2021-08-08T09:32:56Z</time>
      </trkpt>
      <trkpt lat="47.98977" lon="-2.65309">
        <ele>48</ele>
        <time>2021-08-08T09:32:57Z</time>
      </trkpt>
      <trkpt lat="47.98979" lon="-2.65314">
        <ele>48</ele>
        <time>2021-08-08T09:32:58Z</time>
      </trkpt>
      <trkpt lat="47.98982" lon="-2.65318">
        <ele>48</ele>
        <time>2021-08-08T09:32:59Z</time>
      </trkpt>
      <trkpt lat="47.98985" lon="-2.65323">
        <ele>48</ele>
        <time>2021-08-08T09:33:00Z</time>
      </trkpt>
      <trkpt lat="47.98987" lon="-2.65327">
        <ele>48</ele>
        <time>2021-08-08T09:33:01Z</time>
      </trkpt>
      <trkpt lat="47.9899" lon="-2.65331">
        <ele>48</ele>
        <time>2021-08-08T09:33:02Z</time>
      </trkpt>
      <trkpt lat="47.98995" lon="-2.65336">
        <ele>48.2</ele>
        <time>2021-08-08T09:33:03Z</time>
      </trkpt>
      <trkpt lat="47.98998" lon="-2.6534">
        <ele>48.2</ele>
        <time>2021-08-08T09:33:04Z</time>
      </trkpt>
      <trkpt lat="47.99002" lon="-2.65344">
        <ele>48.2</ele>
        <time>2021-08-08T09:33:05Z</time>
      </trkpt>
      <trkpt lat="47.99004" lon="-2.65347">
        <ele>48.4</ele>
        <time>2021-08-08T09:33:06Z</time>
      </trkpt>
      <trkpt lat="47.99007" lon="-2.65352">
        <ele>48.4</ele>
        <time>2021-08-08T09:33:07Z</time>
      </trkpt>
      <trkpt lat="47.9901" lon="-2.65356">
        <ele>48.4</ele>
        <time>2021-08-08T09:33:08Z</time>
      </trkpt>
      <trkpt lat="47.99014" lon="-2.6536">
        <ele>48.4</ele>
        <time>2021-08-08T09:33:09Z</time>
      </trkpt>
      <trkpt lat="47.99017" lon="-2.65364">
        <ele>48.4</ele>
        <time>2021-08-08T09:33:10Z</time>
      </trkpt>
      <trkpt lat="47.99021" lon="-2.65369">
        <ele>48.6</ele>
        <time>2021-08-08T09:33:11Z</time>
      </trkpt>
      <trkpt lat="47.99024" lon="-2.65373">
        <ele>48.6</ele>
        <time>2021-08-08T09:33:12Z</time>
      </trkpt>
      <trkpt lat="47.99029" lon="-2.65379">
        <ele>48.6</ele>
        <time>2021-08-08T09:33:13Z</time>
      </trkpt>
      <trkpt lat="47.99035" lon="-2.65384">
        <ele>48.6</ele>
        <time>2021-08-08T09:33:14Z</time>
      </trkpt>
      <trkpt lat="47.99039" lon="-2.65389">
        <ele>48.6</ele>
        <time>2021-08-08T09:33:15Z</time>
      </trkpt>
      <trkpt lat="47.99043" lon="-2.65393">
        <ele>48.6</ele>
        <time>2021-08-08T09:33:16Z</time>
      </trkpt>
      <trkpt lat="47.99047" lon="-2.65397">
        <ele>48.6</ele>
        <time>2021-08-08T09:33:17Z</time>
      </trkpt>
      <trkpt lat="47.99052" lon="-2.65403">
        <ele>48.8</ele>
        <time>2021-08-08T09:33:18Z</time>
      </trkpt>
      <trkpt lat="47.99056" lon="-2.65407">
        <ele>48.8</ele>
        <time>2021-08-08T09:33:19Z</time>
      </trkpt>
      <trkpt lat="47.9906" lon="-2.65411">
        <ele>48.8</ele>
        <time>2021-08-08T09:33:20Z</time>
      </trkpt>
      <trkpt lat="47.99063" lon="-2.65416">
        <ele>48.8</ele>
        <time>2021-08-08T09:33:21Z</time>
      </trkpt>
      <trkpt lat="47.99068" lon="-2.65421">
        <ele>48.8</ele>
        <time>2021-08-08T09:33:22Z</time>
      </trkpt>
      <trkpt lat="47.99073" lon="-2.65426">
        <ele>48.8</ele>
        <time>2021-08-08T09:33:23Z</time>
      </trkpt>
      <trkpt lat="47.99078" lon="-2.65431">
        <ele>48.8</ele>
        <time>2021-08-08T09:33:24Z</time>
      </trkpt>
      <trkpt lat="47.99082" lon="-2.65436">
        <ele>48.8</ele>
        <time>2021-08-08T09:33:25Z</time>
      </trkpt>
      <trkpt lat="47.99087" lon="-2.65441">
        <ele>48.8</ele>
        <time>2021-08-08T09:33:26Z</time>
      </trkpt>
      <trkpt lat="47.99092" lon="-2.65445">
        <ele>48.8</ele>
        <time>2021-08-08T09:33:27Z</time>
      </trkpt>
      <trkpt lat="47.99097" lon="-2.6545">
        <ele>48.8</ele>
        <time>2021-08-08T09:33:28Z</time>
      </trkpt>
      <trkpt lat="47.99101" lon="-2.65454">
        <ele>48.8</ele>
        <time>2021-08-08T09:33:29Z</time>
      </trkpt>
      <trkpt lat="47.99106" lon="-2.65459">
        <ele>48.8</ele>
        <time>2021-08-08T09:33:30Z</time>
      </trkpt>
      <trkpt lat="47.9911" lon="-2.65463">
        <ele>48.8</ele>
        <time>2021-08-08T09:33:31Z</time>
      </trkpt>
      <trkpt lat="47.99114" lon="-2.65467">
        <ele>48.8</ele>
        <time>2021-08-08T09:33:32Z</time>
      </trkpt>
      <trkpt lat="47.99119" lon="-2.6547">
        <ele>48.8</ele>
        <time>2021-08-08T09:33:33Z</time>
      </trkpt>
      <trkpt lat="47.99123" lon="-2.65473">
        <ele>48.8</ele>
        <time>2021-08-08T09:33:34Z</time>
      </trkpt>
      <trkpt lat="47.99127" lon="-2.65476">
        <ele>48.8</ele>
        <time>2021-08-08T09:33:35Z</time>
      </trkpt>
      <trkpt lat="47.99131" lon="-2.65478">
        <ele>48.8</ele>
        <time>2021-08-08T09:33:36Z</time>
      </trkpt>
      <trkpt lat="47.99135" lon="-2.65481">
        <ele>48.8</ele>
        <time>2021-08-08T09:33:37Z</time>
      </trkpt>
      <trkpt lat="47.99139" lon="-2.65483">
        <ele>48.8</ele>
        <time>2021-08-08T09:33:38Z</time>
      </trkpt>
      <trkpt lat="47.99143" lon="-2.65486">
        <ele>48.8</ele>
        <time>2021-08-08T09:33:39Z</time>
      </trkpt>
      <trkpt lat="47.99147" lon="-2.65489">
        <ele>48.8</ele>
        <time>2021-08-08T09:33:40Z</time>
      </trkpt>
      <trkpt lat="47.99151" lon="-2.65492">
        <ele>48.8</ele>
        <time>2021-08-08T09:33:41Z</time>
      </trkpt>
      <trkpt lat="47.99156" lon="-2.65496">
        <ele>48.8</ele>
        <time>2021-08-08T09:33:42Z</time>
      </trkpt>
      <trkpt lat="47.9916" lon="-2.65499">
        <ele>48.8</ele>
        <time>2021-08-08T09:33:43Z</time>
      </trkpt>
      <trkpt lat="47.99164" lon="-2.65502">
        <ele>48.8</ele>
        <time>2021-08-08T09:33:44Z</time>
      </trkpt>
      <trkpt lat="47.99169" lon="-2.65505">
        <ele>48.8</ele>
        <time>2021-08-08T09:33:45Z</time>
      </trkpt>
      <trkpt lat="47.99173" lon="-2.65508">
        <ele>48.8</ele>
        <time>2021-08-08T09:33:46Z</time>
      </trkpt>
      <trkpt lat="47.99178" lon="-2.65512">
        <ele>49</ele>
        <time>2021-08-08T09:33:47Z</time>
      </trkpt>
      <trkpt lat="47.99183" lon="-2.65515">
        <ele>48.8</ele>
        <time>2021-08-08T09:33:48Z</time>
      </trkpt>
      <trkpt lat="47.99187" lon="-2.65518">
        <ele>48.8</ele>
        <time>2021-08-08T09:33:49Z</time>
      </trkpt>
      <trkpt lat="47.99192" lon="-2.65521">
        <ele>48.8</ele>
        <time>2021-08-08T09:33:50Z</time>
      </trkpt>
      <trkpt lat="47.99197" lon="-2.65524">
        <ele>49</ele>
        <time>2021-08-08T09:33:51Z</time>
      </trkpt>
      <trkpt lat="47.99202" lon="-2.65527">
        <ele>49</ele>
        <time>2021-08-08T09:33:52Z</time>
      </trkpt>
      <trkpt lat="47.99206" lon="-2.65531">
        <ele>49</ele>
        <time>2021-08-08T09:33:53Z</time>
      </trkpt>
      <trkpt lat="47.99211" lon="-2.65533">
        <ele>49</ele>
        <time>2021-08-08T09:33:54Z</time>
      </trkpt>
      <trkpt lat="47.99215" lon="-2.65536">
        <ele>49</ele>
        <time>2021-08-08T09:33:55Z</time>
      </trkpt>
      <trkpt lat="47.9922" lon="-2.65539">
        <ele>49</ele>
        <time>2021-08-08T09:33:56Z</time>
      </trkpt>
      <trkpt lat="47.99225" lon="-2.65542">
        <ele>49</ele>
        <time>2021-08-08T09:33:57Z</time>
      </trkpt>
      <trkpt lat="47.99229" lon="-2.65545">
        <ele>49</ele>
        <time>2021-08-08T09:33:58Z</time>
      </trkpt>
      <trkpt lat="47.99234" lon="-2.65548">
        <ele>49</ele>
        <time>2021-08-08T09:33:59Z</time>
      </trkpt>
      <trkpt lat="47.99238" lon="-2.6555">
        <ele>49</ele>
        <time>2021-08-08T09:34:00Z</time>
      </trkpt>
      <trkpt lat="47.99243" lon="-2.65552">
        <ele>49</ele>
        <time>2021-08-08T09:34:01Z</time>
      </trkpt>
      <trkpt lat="47.99248" lon="-2.65554">
        <ele>49</ele>
        <time>2021-08-08T09:34:02Z</time>
      </trkpt>
      <trkpt lat="47.99253" lon="-2.65556">
        <ele>49</ele>
        <time>2021-08-08T09:34:03Z</time>
      </trkpt>
      <trkpt lat="47.99258" lon="-2.65557">
        <ele>49</ele>
        <time>2021-08-08T09:34:04Z</time>
      </trkpt>
      <trkpt lat="47.99263" lon="-2.65558">
        <ele>49</ele>
        <time>2021-08-08T09:34:05Z</time>
      </trkpt>
      <trkpt lat="47.99267" lon="-2.6556">
        <ele>49</ele>
        <time>2021-08-08T09:34:06Z</time>
      </trkpt>
      <trkpt lat="47.99272" lon="-2.65562">
        <ele>49</ele>
        <time>2021-08-08T09:34:07Z</time>
      </trkpt>
      <trkpt lat="47.99277" lon="-2.65562">
        <ele>49</ele>
        <time>2021-08-08T09:34:08Z</time>
      </trkpt>
      <trkpt lat="47.99282" lon="-2.65563">
        <ele>49</ele>
        <time>2021-08-08T09:34:09Z</time>
      </trkpt>
      <trkpt lat="47.99287" lon="-2.65564">
        <ele>49</ele>
        <time>2021-08-08T09:34:10Z</time>
      </trkpt>
      <trkpt lat="47.99292" lon="-2.65565">
        <ele>48.8</ele>
        <time>2021-08-08T09:34:11Z</time>
      </trkpt>
      <trkpt lat="47.99296" lon="-2.65566">
        <ele>48.8</ele>
        <time>2021-08-08T09:34:12Z</time>
      </trkpt>
      <trkpt lat="47.99302" lon="-2.65567">
        <ele>48.8</ele>
        <time>2021-08-08T09:34:13Z</time>
      </trkpt>
      <trkpt lat="47.99306" lon="-2.65568">
        <ele>48.8</ele>
        <time>2021-08-08T09:34:14Z</time>
      </trkpt>
      <trkpt lat="47.99311" lon="-2.65569">
        <ele>49</ele>
        <time>2021-08-08T09:34:15Z</time>
      </trkpt>
      <trkpt lat="47.99316" lon="-2.6557">
        <ele>49</ele>
        <time>2021-08-08T09:34:16Z</time>
      </trkpt>
      <trkpt lat="47.9932" lon="-2.6557">
        <ele>49</ele>
        <time>2021-08-08T09:34:17Z</time>
      </trkpt>
      <trkpt lat="47.99324" lon="-2.6557">
        <ele>49</ele>
        <time>2021-08-08T09:34:18Z</time>
      </trkpt>
      <trkpt lat="47.99329" lon="-2.65571">
        <ele>49</ele>
        <time>2021-08-08T09:34:19Z</time>
      </trkpt>
      <trkpt lat="47.99333" lon="-2.65572">
        <ele>49</ele>
        <time>2021-08-08T09:34:20Z</time>
      </trkpt>
      <trkpt lat="47.99338" lon="-2.65572">
        <ele>49</ele>
        <time>2021-08-08T09:34:21Z</time>
      </trkpt>
      <trkpt lat="47.99342" lon="-2.65573">
        <ele>49</ele>
        <time>2021-08-08T09:34:22Z</time>
      </trkpt>
      <trkpt lat="47.99346" lon="-2.65574">
        <ele>49</ele>
        <time>2021-08-08T09:34:23Z</time>
      </trkpt>
      <trkpt lat="47.9935" lon="-2.65574">
        <ele>49</ele>
        <time>2021-08-08T09:34:24Z</time>
      </trkpt>
      <trkpt lat="47.99355" lon="-2.65575">
        <ele>49</ele>
        <time>2021-08-08T09:34:25Z</time>
      </trkpt>
      <trkpt lat="47.99359" lon="-2.65575">
        <ele>49</ele>
        <time>2021-08-08T09:34:26Z</time>
      </trkpt>
      <trkpt lat="47.99363" lon="-2.65576">
        <ele>49</ele>
        <time>2021-08-08T09:34:27Z</time>
      </trkpt>
      <trkpt lat="47.99368" lon="-2.65576">
        <ele>49</ele>
        <time>2021-08-08T09:34:28Z</time>
      </trkpt>
      <trkpt lat="47.99372" lon="-2.65577">
        <ele>49</ele>
        <time>2021-08-08T09:34:29Z</time>
      </trkpt>
      <trkpt lat="47.99377" lon="-2.65577">
        <ele>49</ele>
        <time>2021-08-08T09:34:30Z</time>
      </trkpt>
      <trkpt lat="47.99381" lon="-2.65577">
        <ele>49</ele>
        <time>2021-08-08T09:34:31Z</time>
      </trkpt>
      <trkpt lat="47.99386" lon="-2.65577">
        <ele>49</ele>
        <time>2021-08-08T09:34:32Z</time>
      </trkpt>
      <trkpt lat="47.99391" lon="-2.65577">
        <ele>49</ele>
        <time>2021-08-08T09:34:33Z</time>
      </trkpt>
      <trkpt lat="47.99396" lon="-2.65577">
        <ele>49</ele>
        <time>2021-08-08T09:34:34Z</time>
      </trkpt>
      <trkpt lat="47.99402" lon="-2.65577">
        <ele>49</ele>
        <time>2021-08-08T09:34:35Z</time>
      </trkpt>
      <trkpt lat="47.99407" lon="-2.65577">
        <ele>49</ele>
        <time>2021-08-08T09:34:36Z</time>
      </trkpt>
      <trkpt lat="47.99413" lon="-2.65576">
        <ele>49</ele>
        <time>2021-08-08T09:34:37Z</time>
      </trkpt>
      <trkpt lat="47.99418" lon="-2.65575">
        <ele>49</ele>
        <time>2021-08-08T09:34:38Z</time>
      </trkpt>
      <trkpt lat="47.99424" lon="-2.65574">
        <ele>49</ele>
        <time>2021-08-08T09:34:39Z</time>
      </trkpt>
      <trkpt lat="47.99429" lon="-2.65572">
        <ele>49</ele>
        <time>2021-08-08T09:34:40Z</time>
      </trkpt>
      <trkpt lat="47.99434" lon="-2.65569">
        <ele>49</ele>
        <time>2021-08-08T09:34:41Z</time>
      </trkpt>
      <trkpt lat="47.99439" lon="-2.65565">
        <ele>48.8</ele>
        <time>2021-08-08T09:34:42Z</time>
      </trkpt>
      <trkpt lat="47.99444" lon="-2.65561">
        <ele>48.8</ele>
        <time>2021-08-08T09:34:43Z</time>
      </trkpt>
      <trkpt lat="47.99449" lon="-2.65557">
        <ele>48.8</ele>
        <time>2021-08-08T09:34:44Z</time>
      </trkpt>
      <trkpt lat="47.99453" lon="-2.65553">
        <ele>48.8</ele>
        <time>2021-08-08T09:34:45Z</time>
      </trkpt>
      <trkpt lat="47.99457" lon="-2.65549">
        <ele>48.6</ele>
        <time>2021-08-08T09:34:46Z</time>
      </trkpt>
      <trkpt lat="47.99461" lon="-2.65546">
        <ele>48.6</ele>
        <time>2021-08-08T09:34:47Z</time>
      </trkpt>
      <trkpt lat="47.99464" lon="-2.65542">
        <ele>48.4</ele>
        <time>2021-08-08T09:34:48Z</time>
      </trkpt>
      <trkpt lat="47.99468" lon="-2.65538">
        <ele>48.4</ele>
        <time>2021-08-08T09:34:49Z</time>
      </trkpt>
      <trkpt lat="47.99472" lon="-2.65534">
        <ele>48.4</ele>
        <time>2021-08-08T09:34:50Z</time>
      </trkpt>
      <trkpt lat="47.99476" lon="-2.6553">
        <ele>48.2</ele>
        <time>2021-08-08T09:34:51Z</time>
      </trkpt>
      <trkpt lat="47.99479" lon="-2.65526">
        <ele>48.2</ele>
        <time>2021-08-08T09:34:52Z</time>
      </trkpt>
      <trkpt lat="47.99483" lon="-2.65523">
        <ele>48.2</ele>
        <time>2021-08-08T09:34:53Z</time>
      </trkpt>
      <trkpt lat="47.99487" lon="-2.65519">
        <ele>48.2</ele>
        <time>2021-08-08T09:34:54Z</time>
      </trkpt>
      <trkpt lat="47.99492" lon="-2.65515">
        <ele>48.2</ele>
        <time>2021-08-08T09:34:55Z</time>
      </trkpt>
      <trkpt lat="47.99496" lon="-2.65511">
        <ele>48</ele>
        <time>2021-08-08T09:34:56Z</time>
      </trkpt>
      <trkpt lat="47.995" lon="-2.65507">
        <ele>47.8</ele>
        <time>2021-08-08T09:34:57Z</time>
      </trkpt>
      <trkpt lat="47.99504" lon="-2.65503">
        <ele>47.8</ele>
        <time>2021-08-08T09:34:58Z</time>
      </trkpt>
      <trkpt lat="47.99508" lon="-2.65499">
        <ele>48</ele>
        <time>2021-08-08T09:34:59Z</time>
      </trkpt>
      <trkpt lat="47.99512" lon="-2.65496">
        <ele>48.2</ele>
        <time>2021-08-08T09:35:00Z</time>
      </trkpt>
      <trkpt lat="47.99516" lon="-2.65492">
        <ele>48.2</ele>
        <time>2021-08-08T09:35:01Z</time>
      </trkpt>
      <trkpt lat="47.99521" lon="-2.65488">
        <ele>48.2</ele>
        <time>2021-08-08T09:35:02Z</time>
      </trkpt>
      <trkpt lat="47.99526" lon="-2.65485">
        <ele>48.4</ele>
        <time>2021-08-08T09:35:03Z</time>
      </trkpt>
      <trkpt lat="47.99531" lon="-2.65481">
        <ele>48.4</ele>
        <time>2021-08-08T09:35:04Z</time>
      </trkpt>
      <trkpt lat="47.99536" lon="-2.65478">
        <ele>48.4</ele>
        <time>2021-08-08T09:35:05Z</time>
      </trkpt>
      <trkpt lat="47.9954" lon="-2.65474">
        <ele>48.2</ele>
        <time>2021-08-08T09:35:06Z</time>
      </trkpt>
      <trkpt lat="47.99545" lon="-2.6547">
        <ele>48.4</ele>
        <time>2021-08-08T09:35:07Z</time>
      </trkpt>
      <trkpt lat="47.9955" lon="-2.65467">
        <ele>48.4</ele>
        <time>2021-08-08T09:35:08Z</time>
      </trkpt>
      <trkpt lat="47.99554" lon="-2.65464">
        <ele>48.4</ele>
        <time>2021-08-08T09:35:09Z</time>
      </trkpt>
      <trkpt lat="47.99559" lon="-2.6546">
        <ele>48.6</ele>
        <time>2021-08-08T09:35:10Z</time>
      </trkpt>
      <trkpt lat="47.99564" lon="-2.65456">
        <ele>48.6</ele>
        <time>2021-08-08T09:35:11Z</time>
      </trkpt>
      <trkpt lat="47.99569" lon="-2.65453">
        <ele>48.6</ele>
        <time>2021-08-08T09:35:12Z</time>
      </trkpt>
      <trkpt lat="47.99574" lon="-2.6545">
        <ele>48.6</ele>
        <time>2021-08-08T09:35:13Z</time>
      </trkpt>
      <trkpt lat="47.99579" lon="-2.65447">
        <ele>48.6</ele>
        <time>2021-08-08T09:35:14Z</time>
      </trkpt>
      <trkpt lat="47.99583" lon="-2.65444">
        <ele>48.6</ele>
        <time>2021-08-08T09:35:15Z</time>
      </trkpt>
      <trkpt lat="47.99588" lon="-2.65442">
        <ele>48.6</ele>
        <time>2021-08-08T09:35:16Z</time>
      </trkpt>
      <trkpt lat="47.99592" lon="-2.65439">
        <ele>48.6</ele>
        <time>2021-08-08T09:35:17Z</time>
      </trkpt>
      <trkpt lat="47.99596" lon="-2.65436">
        <ele>48.6</ele>
        <time>2021-08-08T09:35:18Z</time>
      </trkpt>
      <trkpt lat="47.996" lon="-2.65433">
        <ele>48.6</ele>
        <time>2021-08-08T09:35:19Z</time>
      </trkpt>
      <trkpt lat="47.99604" lon="-2.6543">
        <ele>48.6</ele>
        <time>2021-08-08T09:35:20Z</time>
      </trkpt>
      <trkpt lat="47.99608" lon="-2.65427">
        <ele>48.6</ele>
        <time>2021-08-08T09:35:21Z</time>
      </trkpt>
      <trkpt lat="47.99613" lon="-2.65424">
        <ele>48.6</ele>
        <time>2021-08-08T09:35:22Z</time>
      </trkpt>
      <trkpt lat="47.99619" lon="-2.65422">
        <ele>48.6</ele>
        <time>2021-08-08T09:35:23Z</time>
      </trkpt>
      <trkpt lat="47.99624" lon="-2.65419">
        <ele>48.6</ele>
        <time>2021-08-08T09:35:24Z</time>
      </trkpt>
      <trkpt lat="47.99629" lon="-2.65416">
        <ele>48.6</ele>
        <time>2021-08-08T09:35:25Z</time>
      </trkpt>
      <trkpt lat="47.99634" lon="-2.65414">
        <ele>48.4</ele>
        <time>2021-08-08T09:35:26Z</time>
      </trkpt>
      <trkpt lat="47.99639" lon="-2.65411">
        <ele>48.4</ele>
        <time>2021-08-08T09:35:27Z</time>
      </trkpt>
      <trkpt lat="47.99643" lon="-2.65409">
        <ele>48.4</ele>
        <time>2021-08-08T09:35:28Z</time>
      </trkpt>
      <trkpt lat="47.99648" lon="-2.65407">
        <ele>48.4</ele>
        <time>2021-08-08T09:35:29Z</time>
      </trkpt>
      <trkpt lat="47.99651" lon="-2.65404">
        <ele>48.4</ele>
        <time>2021-08-08T09:35:30Z</time>
      </trkpt>
      <trkpt lat="47.99656" lon="-2.65402">
        <ele>48.4</ele>
        <time>2021-08-08T09:35:31Z</time>
      </trkpt>
      <trkpt lat="47.99661" lon="-2.65399">
        <ele>48.4</ele>
        <time>2021-08-08T09:35:32Z</time>
      </trkpt>
      <trkpt lat="47.99666" lon="-2.65397">
        <ele>48.4</ele>
        <time>2021-08-08T09:35:33Z</time>
      </trkpt>
      <trkpt lat="47.99671" lon="-2.65394">
        <ele>48.6</ele>
        <time>2021-08-08T09:35:34Z</time>
      </trkpt>
      <trkpt lat="47.99676" lon="-2.65391">
        <ele>48.4</ele>
        <time>2021-08-08T09:35:35Z</time>
      </trkpt>
      <trkpt lat="47.99681" lon="-2.65388">
        <ele>48.4</ele>
        <time>2021-08-08T09:35:36Z</time>
      </trkpt>
      <trkpt lat="47.99685" lon="-2.65386">
        <ele>48.4</ele>
        <time>2021-08-08T09:35:37Z</time>
      </trkpt>
      <trkpt lat="47.99689" lon="-2.65383">
        <ele>48.6</ele>
        <time>2021-08-08T09:35:38Z</time>
      </trkpt>
      <trkpt lat="47.99694" lon="-2.65381">
        <ele>48.6</ele>
        <time>2021-08-08T09:35:39Z</time>
      </trkpt>
      <trkpt lat="47.99697" lon="-2.65378">
        <ele>48.6</ele>
        <time>2021-08-08T09:35:40Z</time>
      </trkpt>
      <trkpt lat="47.99702" lon="-2.65376">
        <ele>48.6</ele>
        <time>2021-08-08T09:35:41Z</time>
      </trkpt>
      <trkpt lat="47.99706" lon="-2.65374">
        <ele>48.6</ele>
        <time>2021-08-08T09:35:42Z</time>
      </trkpt>
      <trkpt lat="47.99711" lon="-2.65372">
        <ele>48.6</ele>
        <time>2021-08-08T09:35:43Z</time>
      </trkpt>
      <trkpt lat="47.99716" lon="-2.6537">
        <ele>48.6</ele>
        <time>2021-08-08T09:35:44Z</time>
      </trkpt>
      <trkpt lat="47.9972" lon="-2.65368">
        <ele>48.6</ele>
        <time>2021-08-08T09:35:45Z</time>
      </trkpt>
      <trkpt lat="47.99725" lon="-2.65366">
        <ele>48.6</ele>
        <time>2021-08-08T09:35:46Z</time>
      </trkpt>
      <trkpt lat="47.9973" lon="-2.65363">
        <ele>48.8</ele>
        <time>2021-08-08T09:35:47Z</time>
      </trkpt>
      <trkpt lat="47.99735" lon="-2.65361">
        <ele>49</ele>
        <time>2021-08-08T09:35:48Z</time>
      </trkpt>
      <trkpt lat="47.9974" lon="-2.65359">
        <ele>49.2</ele>
        <time>2021-08-08T09:35:49Z</time>
      </trkpt>
      <trkpt lat="47.99744" lon="-2.65357">
        <ele>49.2</ele>
        <time>2021-08-08T09:35:50Z</time>
      </trkpt>
      <trkpt lat="47.99748" lon="-2.65355">
        <ele>49.4</ele>
        <time>2021-08-08T09:35:51Z</time>
      </trkpt>
      <trkpt lat="47.99752" lon="-2.65352">
        <ele>49.4</ele>
        <time>2021-08-08T09:35:52Z</time>
      </trkpt>
      <trkpt lat="47.99756" lon="-2.6535">
        <ele>49.4</ele>
        <time>2021-08-08T09:35:53Z</time>
      </trkpt>
      <trkpt lat="47.9976" lon="-2.65348">
        <ele>49.4</ele>
        <time>2021-08-08T09:35:54Z</time>
      </trkpt>
      <trkpt lat="47.99764" lon="-2.65347">
        <ele>49.4</ele>
        <time>2021-08-08T09:35:55Z</time>
      </trkpt>
      <trkpt lat="47.99769" lon="-2.65345">
        <ele>49.6</ele>
        <time>2021-08-08T09:35:56Z</time>
      </trkpt>
      <trkpt lat="47.99773" lon="-2.65343">
        <ele>49.6</ele>
        <time>2021-08-08T09:35:57Z</time>
      </trkpt>
      <trkpt lat="47.99777" lon="-2.65342">
        <ele>49.6</ele>
        <time>2021-08-08T09:35:58Z</time>
      </trkpt>
      <trkpt lat="47.99781" lon="-2.6534">
        <ele>49.6</ele>
        <time>2021-08-08T09:35:59Z</time>
      </trkpt>
      <trkpt lat="47.99784" lon="-2.65339">
        <ele>49.6</ele>
        <time>2021-08-08T09:36:00Z</time>
      </trkpt>
      <trkpt lat="47.99787" lon="-2.65338">
        <ele>49.8</ele>
        <time>2021-08-08T09:36:01Z</time>
      </trkpt>
      <trkpt lat="47.99791" lon="-2.65336">
        <ele>49.8</ele>
        <time>2021-08-08T09:36:02Z</time>
      </trkpt>
      <trkpt lat="47.99795" lon="-2.65335">
        <ele>49.8</ele>
        <time>2021-08-08T09:36:03Z</time>
      </trkpt>
      <trkpt lat="47.99799" lon="-2.65333">
        <ele>49.8</ele>
        <time>2021-08-08T09:36:04Z</time>
      </trkpt>
      <trkpt lat="47.99804" lon="-2.65331">
        <ele>49.8</ele>
        <time>2021-08-08T09:36:05Z</time>
      </trkpt>
      <trkpt lat="47.99808" lon="-2.65329">
        <ele>50</ele>
        <time>2021-08-08T09:36:06Z</time>
      </trkpt>
      <trkpt lat="47.99813" lon="-2.65328">
        <ele>50</ele>
        <time>2021-08-08T09:36:07Z</time>
      </trkpt>
      <trkpt lat="47.99818" lon="-2.65326">
        <ele>50</ele>
        <time>2021-08-08T09:36:08Z</time>
      </trkpt>
      <trkpt lat="47.99824" lon="-2.65325">
        <ele>50</ele>
        <time>2021-08-08T09:36:09Z</time>
      </trkpt>
      <trkpt lat="47.99829" lon="-2.65324">
        <ele>50</ele>
        <time>2021-08-08T09:36:10Z</time>
      </trkpt>
      <trkpt lat="47.99833" lon="-2.65322">
        <ele>50</ele>
        <time>2021-08-08T09:36:11Z</time>
      </trkpt>
      <trkpt lat="47.99838" lon="-2.65319">
        <ele>50</ele>
        <time>2021-08-08T09:36:12Z</time>
      </trkpt>
      <trkpt lat="47.99841" lon="-2.65317">
        <ele>50.2</ele>
        <time>2021-08-08T09:36:13Z</time>
      </trkpt>
      <trkpt lat="47.99845" lon="-2.65315">
        <ele>50.2</ele>
        <time>2021-08-08T09:36:14Z</time>
      </trkpt>
      <trkpt lat="47.99849" lon="-2.65313">
        <ele>50.2</ele>
        <time>2021-08-08T09:36:15Z</time>
      </trkpt>
      <trkpt lat="47.99853" lon="-2.65311">
        <ele>50.2</ele>
        <time>2021-08-08T09:36:16Z</time>
      </trkpt>
      <trkpt lat="47.99857" lon="-2.65309">
        <ele>50.2</ele>
        <time>2021-08-08T09:36:17Z</time>
      </trkpt>
      <trkpt lat="47.99861" lon="-2.65307">
        <ele>50.2</ele>
        <time>2021-08-08T09:36:18Z</time>
      </trkpt>
      <trkpt lat="47.99865" lon="-2.65306">
        <ele>50</ele>
        <time>2021-08-08T09:36:19Z</time>
      </trkpt>
      <trkpt lat="47.99869" lon="-2.65305">
        <ele>50</ele>
        <time>2021-08-08T09:36:20Z</time>
      </trkpt>
      <trkpt lat="47.99872" lon="-2.65306">
        <ele>50</ele>
        <time>2021-08-08T09:36:21Z</time>
      </trkpt>
      <trkpt lat="47.99874" lon="-2.65306">
        <ele>50</ele>
        <time>2021-08-08T09:36:22Z</time>
      </trkpt>
      <trkpt lat="47.99877" lon="-2.65306">
        <ele>50</ele>
        <time>2021-08-08T09:36:23Z</time>
      </trkpt>
      <trkpt lat="47.99878" lon="-2.65304">
        <ele>50</ele>
        <time>2021-08-08T09:36:24Z</time>
      </trkpt>
      <trkpt lat="47.9988" lon="-2.65303">
        <ele>50</ele>
        <time>2021-08-08T09:36:25Z</time>
      </trkpt>
      <trkpt lat="47.99882" lon="-2.65303">
        <ele>50.2</ele>
        <time>2021-08-08T09:36:26Z</time>
      </trkpt>
      <trkpt lat="47.99884" lon="-2.65302">
        <ele>50.4</ele>
        <time>2021-08-08T09:36:27Z</time>
      </trkpt>
      <trkpt lat="47.99886" lon="-2.65301">
        <ele>50.6</ele>
        <time>2021-08-08T09:36:28Z</time>
      </trkpt>
      <trkpt lat="47.99887" lon="-2.65299">
        <ele>50.8</ele>
        <time>2021-08-08T09:36:29Z</time>
      </trkpt>
      <trkpt lat="47.99889" lon="-2.65298">
        <ele>51.2</ele>
        <time>2021-08-08T09:36:30Z</time>
      </trkpt>
      <trkpt lat="47.99892" lon="-2.65297">
        <ele>51.4</ele>
        <time>2021-08-08T09:36:31Z</time>
      </trkpt>
      <trkpt lat="47.99895" lon="-2.65296">
        <ele>51.6</ele>
        <time>2021-08-08T09:36:32Z</time>
      </trkpt>
      <trkpt lat="47.99898" lon="-2.65294">
        <ele>51.8</ele>
        <time>2021-08-08T09:36:33Z</time>
      </trkpt>
      <trkpt lat="47.99902" lon="-2.65292">
        <ele>51.8</ele>
        <time>2021-08-08T09:36:34Z</time>
      </trkpt>
      <trkpt lat="47.99906" lon="-2.6529">
        <ele>51.8</ele>
        <time>2021-08-08T09:36:35Z</time>
      </trkpt>
      <trkpt lat="47.9991" lon="-2.65289">
        <ele>51.8</ele>
        <time>2021-08-08T09:36:36Z</time>
      </trkpt>
      <trkpt lat="47.99914" lon="-2.65287">
        <ele>51.8</ele>
        <time>2021-08-08T09:36:37Z</time>
      </trkpt>
      <trkpt lat="47.99919" lon="-2.65285">
        <ele>51.8</ele>
        <time>2021-08-08T09:36:38Z</time>
      </trkpt>
      <trkpt lat="47.99924" lon="-2.65283">
        <ele>51.8</ele>
        <time>2021-08-08T09:36:39Z</time>
      </trkpt>
      <trkpt lat="47.99928" lon="-2.65281">
        <ele>51.8</ele>
        <time>2021-08-08T09:36:40Z</time>
      </trkpt>
      <trkpt lat="47.99933" lon="-2.6528">
        <ele>51.8</ele>
        <time>2021-08-08T09:36:41Z</time>
      </trkpt>
      <trkpt lat="47.99937" lon="-2.65278">
        <ele>51.8</ele>
        <time>2021-08-08T09:36:42Z</time>
      </trkpt>
      <trkpt lat="47.99941" lon="-2.65276">
        <ele>51.6</ele>
        <time>2021-08-08T09:36:43Z</time>
      </trkpt>
      <trkpt lat="47.99945" lon="-2.65274">
        <ele>51.4</ele>
        <time>2021-08-08T09:36:44Z</time>
      </trkpt>
      <trkpt lat="47.99948" lon="-2.65272">
        <ele>51</ele>
        <time>2021-08-08T09:36:45Z</time>
      </trkpt>
      <trkpt lat="47.99952" lon="-2.65271">
        <ele>51</ele>
        <time>2021-08-08T09:36:46Z</time>
      </trkpt>
      <trkpt lat="47.99956" lon="-2.65269">
        <ele>50.8</ele>
        <time>2021-08-08T09:36:47Z</time>
      </trkpt>
      <trkpt lat="47.99961" lon="-2.65268">
        <ele>50.8</ele>
        <time>2021-08-08T09:36:48Z</time>
      </trkpt>
      <trkpt lat="47.99964" lon="-2.65266">
        <ele>50.6</ele>
        <time>2021-08-08T09:36:49Z</time>
      </trkpt>
      <trkpt lat="47.99968" lon="-2.65265">
        <ele>50.6</ele>
        <time>2021-08-08T09:36:50Z</time>
      </trkpt>
      <trkpt lat="47.99971" lon="-2.65264">
        <ele>50.6</ele>
        <time>2021-08-08T09:36:51Z</time>
      </trkpt>
      <trkpt lat="47.99974" lon="-2.65262">
        <ele>50.6</ele>
        <time>2021-08-08T09:36:52Z</time>
      </trkpt>
      <trkpt lat="47.99977" lon="-2.65261">
        <ele>50.6</ele>
        <time>2021-08-08T09:36:53Z</time>
      </trkpt>
      <trkpt lat="47.99981" lon="-2.6526">
        <ele>50.6</ele>
        <time>2021-08-08T09:36:54Z</time>
      </trkpt>
      <trkpt lat="47.99984" lon="-2.65259">
        <ele>50.6</ele>
        <time>2021-08-08T09:36:55Z</time>
      </trkpt>
      <trkpt lat="47.99987" lon="-2.65258">
        <ele>50.8</ele>
        <time>2021-08-08T09:36:56Z</time>
      </trkpt>
      <trkpt lat="47.99991" lon="-2.65256">
        <ele>50.8</ele>
        <time>2021-08-08T09:36:57Z</time>
      </trkpt>
      <trkpt lat="47.99994" lon="-2.65255">
        <ele>50.8</ele>
        <time>2021-08-08T09:36:58Z</time>
      </trkpt>
      <trkpt lat="47.99998" lon="-2.65253">
        <ele>50.8</ele>
        <time>2021-08-08T09:36:59Z</time>
      </trkpt>
      <trkpt lat="48.00002" lon="-2.65251">
        <ele>50.8</ele>
        <time>2021-08-08T09:37:00Z</time>
      </trkpt>
      <trkpt lat="48.00006" lon="-2.65249">
        <ele>51</ele>
        <time>2021-08-08T09:37:01Z</time>
      </trkpt>
      <trkpt lat="48.0001" lon="-2.65248">
        <ele>51</ele>
        <time>2021-08-08T09:37:02Z</time>
      </trkpt>
      <trkpt lat="48.00014" lon="-2.65245">
        <ele>51</ele>
        <time>2021-08-08T09:37:03Z</time>
      </trkpt>
      <trkpt lat="48.00018" lon="-2.65243">
        <ele>51</ele>
        <time>2021-08-08T09:37:04Z</time>
      </trkpt>
      <trkpt lat="48.00022" lon="-2.65241">
        <ele>51</ele>
        <time>2021-08-08T09:37:05Z</time>
      </trkpt>
      <trkpt lat="48.00027" lon="-2.65239">
        <ele>51</ele>
        <time>2021-08-08T09:37:06Z</time>
      </trkpt>
      <trkpt lat="48.00031" lon="-2.65237">
        <ele>51</ele>
        <time>2021-08-08T09:37:07Z</time>
      </trkpt>
      <trkpt lat="48.00035" lon="-2.65235">
        <ele>51</ele>
        <time>2021-08-08T09:37:08Z</time>
      </trkpt>
      <trkpt lat="48.00039" lon="-2.65234">
        <ele>51</ele>
        <time>2021-08-08T09:37:09Z</time>
      </trkpt>
      <trkpt lat="48.00043" lon="-2.65232">
        <ele>51</ele>
        <time>2021-08-08T09:37:10Z</time>
      </trkpt>
      <trkpt lat="48.00047" lon="-2.65231">
        <ele>51</ele>
        <time>2021-08-08T09:37:11Z</time>
      </trkpt>
      <trkpt lat="48.0005" lon="-2.65229">
        <ele>51</ele>
        <time>2021-08-08T09:37:12Z</time>
      </trkpt>
      <trkpt lat="48.00054" lon="-2.65228">
        <ele>51</ele>
        <time>2021-08-08T09:37:13Z</time>
      </trkpt>
      <trkpt lat="48.00057" lon="-2.65227">
        <ele>51</ele>
        <time>2021-08-08T09:37:14Z</time>
      </trkpt>
      <trkpt lat="48.00061" lon="-2.65226">
        <ele>51</ele>
        <time>2021-08-08T09:37:15Z</time>
      </trkpt>
      <trkpt lat="48.00064" lon="-2.65225">
        <ele>51</ele>
        <time>2021-08-08T09:37:16Z</time>
      </trkpt>
      <trkpt lat="48.00068" lon="-2.65223">
        <ele>51</ele>
        <time>2021-08-08T09:37:17Z</time>
      </trkpt>
      <trkpt lat="48.00072" lon="-2.65222">
        <ele>51</ele>
        <time>2021-08-08T09:37:18Z</time>
      </trkpt>
      <trkpt lat="48.00076" lon="-2.6522">
        <ele>51</ele>
        <time>2021-08-08T09:37:19Z</time>
      </trkpt>
      <trkpt lat="48.0008" lon="-2.65219">
        <ele>51</ele>
        <time>2021-08-08T09:37:20Z</time>
      </trkpt>
      <trkpt lat="48.00085" lon="-2.65217">
        <ele>51</ele>
        <time>2021-08-08T09:37:21Z</time>
      </trkpt>
      <trkpt lat="48.0009" lon="-2.65215">
        <ele>51</ele>
        <time>2021-08-08T09:37:22Z</time>
      </trkpt>
      <trkpt lat="48.00094" lon="-2.65213">
        <ele>51</ele>
        <time>2021-08-08T09:37:23Z</time>
      </trkpt>
      <trkpt lat="48.00099" lon="-2.65211">
        <ele>51</ele>
        <time>2021-08-08T09:37:24Z</time>
      </trkpt>
      <trkpt lat="48.00104" lon="-2.65209">
        <ele>51</ele>
        <time>2021-08-08T09:37:25Z</time>
      </trkpt>
      <trkpt lat="48.00109" lon="-2.65207">
        <ele>51</ele>
        <time>2021-08-08T09:37:26Z</time>
      </trkpt>
      <trkpt lat="48.00113" lon="-2.65205">
        <ele>51</ele>
        <time>2021-08-08T09:37:27Z</time>
      </trkpt>
      <trkpt lat="48.00118" lon="-2.65203">
        <ele>51</ele>
        <time>2021-08-08T09:37:28Z</time>
      </trkpt>
      <trkpt lat="48.00123" lon="-2.65201">
        <ele>50.8</ele>
        <time>2021-08-08T09:37:29Z</time>
      </trkpt>
      <trkpt lat="48.00128" lon="-2.65198">
        <ele>50.8</ele>
        <time>2021-08-08T09:37:30Z</time>
      </trkpt>
      <trkpt lat="48.00133" lon="-2.65196">
        <ele>50.8</ele>
        <time>2021-08-08T09:37:31Z</time>
      </trkpt>
      <trkpt lat="48.00138" lon="-2.65194">
        <ele>50.8</ele>
        <time>2021-08-08T09:37:32Z</time>
      </trkpt>
      <trkpt lat="48.00143" lon="-2.65191">
        <ele>50.8</ele>
        <time>2021-08-08T09:37:33Z</time>
      </trkpt>
      <trkpt lat="48.00148" lon="-2.65189">
        <ele>50.8</ele>
        <time>2021-08-08T09:37:34Z</time>
      </trkpt>
      <trkpt lat="48.00153" lon="-2.65187">
        <ele>50.8</ele>
        <time>2021-08-08T09:37:35Z</time>
      </trkpt>
      <trkpt lat="48.00158" lon="-2.65185">
        <ele>51</ele>
        <time>2021-08-08T09:37:36Z</time>
      </trkpt>
      <trkpt lat="48.00163" lon="-2.65182">
        <ele>51</ele>
        <time>2021-08-08T09:37:37Z</time>
      </trkpt>
      <trkpt lat="48.00168" lon="-2.6518">
        <ele>50.8</ele>
        <time>2021-08-08T09:37:38Z</time>
      </trkpt>
      <trkpt lat="48.00173" lon="-2.65178">
        <ele>50.8</ele>
        <time>2021-08-08T09:37:39Z</time>
      </trkpt>
      <trkpt lat="48.00178" lon="-2.65176">
        <ele>50.8</ele>
        <time>2021-08-08T09:37:40Z</time>
      </trkpt>
      <trkpt lat="48.00183" lon="-2.65174">
        <ele>50.8</ele>
        <time>2021-08-08T09:37:41Z</time>
      </trkpt>
      <trkpt lat="48.00188" lon="-2.65173">
        <ele>50.8</ele>
        <time>2021-08-08T09:37:42Z</time>
      </trkpt>
      <trkpt lat="48.00194" lon="-2.65171">
        <ele>50.8</ele>
        <time>2021-08-08T09:37:43Z</time>
      </trkpt>
      <trkpt lat="48.00199" lon="-2.6517">
        <ele>50.8</ele>
        <time>2021-08-08T09:37:44Z</time>
      </trkpt>
      <trkpt lat="48.00204" lon="-2.65169">
        <ele>50.8</ele>
        <time>2021-08-08T09:37:45Z</time>
      </trkpt>
      <trkpt lat="48.00209" lon="-2.65168">
        <ele>50.8</ele>
        <time>2021-08-08T09:37:46Z</time>
      </trkpt>
      <trkpt lat="48.00214" lon="-2.65168">
        <ele>51</ele>
        <time>2021-08-08T09:37:47Z</time>
      </trkpt>
      <trkpt lat="48.00219" lon="-2.65169">
        <ele>50.8</ele>
        <time>2021-08-08T09:37:48Z</time>
      </trkpt>
      <trkpt lat="48.00224" lon="-2.65169">
        <ele>51</ele>
        <time>2021-08-08T09:37:49Z</time>
      </trkpt>
      <trkpt lat="48.00229" lon="-2.6517">
        <ele>51</ele>
        <time>2021-08-08T09:37:50Z</time>
      </trkpt>
      <trkpt lat="48.00234" lon="-2.65171">
        <ele>51</ele>
        <time>2021-08-08T09:37:51Z</time>
      </trkpt>
      <trkpt lat="48.00238" lon="-2.65172">
        <ele>51</ele>
        <time>2021-08-08T09:37:52Z</time>
      </trkpt>
      <trkpt lat="48.00243" lon="-2.65173">
        <ele>51</ele>
        <time>2021-08-08T09:37:53Z</time>
      </trkpt>
      <trkpt lat="48.00247" lon="-2.65175">
        <ele>51</ele>
        <time>2021-08-08T09:37:54Z</time>
      </trkpt>
      <trkpt lat="48.00252" lon="-2.65176">
        <ele>51</ele>
        <time>2021-08-08T09:37:55Z</time>
      </trkpt>
      <trkpt lat="48.00256" lon="-2.65178">
        <ele>51</ele>
        <time>2021-08-08T09:37:56Z</time>
      </trkpt>
      <trkpt lat="48.0026" lon="-2.6518">
        <ele>51</ele>
        <time>2021-08-08T09:37:57Z</time>
      </trkpt>
      <trkpt lat="48.00263" lon="-2.65182">
        <ele>51</ele>
        <time>2021-08-08T09:37:58Z</time>
      </trkpt>
      <trkpt lat="48.00267" lon="-2.65184">
        <ele>51</ele>
        <time>2021-08-08T09:37:59Z</time>
      </trkpt>
      <trkpt lat="48.0027" lon="-2.65186">
        <ele>51.2</ele>
        <time>2021-08-08T09:38:00Z</time>
      </trkpt>
      <trkpt lat="48.00274" lon="-2.65189">
        <ele>51.2</ele>
        <time>2021-08-08T09:38:01Z</time>
      </trkpt>
      <trkpt lat="48.00277" lon="-2.65192">
        <ele>51.2</ele>
        <time>2021-08-08T09:38:02Z</time>
      </trkpt>
      <trkpt lat="48.00281" lon="-2.65195">
        <ele>51.2</ele>
        <time>2021-08-08T09:38:03Z</time>
      </trkpt>
      <trkpt lat="48.00284" lon="-2.65199">
        <ele>51.2</ele>
        <time>2021-08-08T09:38:04Z</time>
      </trkpt>
      <trkpt lat="48.00288" lon="-2.65202">
        <ele>51.4</ele>
        <time>2021-08-08T09:38:05Z</time>
      </trkpt>
      <trkpt lat="48.00291" lon="-2.65206">
        <ele>51.4</ele>
        <time>2021-08-08T09:38:06Z</time>
      </trkpt>
      <trkpt lat="48.00294" lon="-2.6521">
        <ele>51.4</ele>
        <time>2021-08-08T09:38:07Z</time>
      </trkpt>
      <trkpt lat="48.00298" lon="-2.65215">
        <ele>51.4</ele>
        <time>2021-08-08T09:38:08Z</time>
      </trkpt>
      <trkpt lat="48.00301" lon="-2.6522">
        <ele>51.4</ele>
        <time>2021-08-08T09:38:09Z</time>
      </trkpt>
      <trkpt lat="48.00305" lon="-2.65225">
        <ele>51.4</ele>
        <time>2021-08-08T09:38:10Z</time>
      </trkpt>
      <trkpt lat="48.00308" lon="-2.6523">
        <ele>51.4</ele>
        <time>2021-08-08T09:38:11Z</time>
      </trkpt>
      <trkpt lat="48.00311" lon="-2.65235">
        <ele>51.4</ele>
        <time>2021-08-08T09:38:12Z</time>
      </trkpt>
      <trkpt lat="48.00315" lon="-2.6524">
        <ele>51.4</ele>
        <time>2021-08-08T09:38:13Z</time>
      </trkpt>
      <trkpt lat="48.00318" lon="-2.65245">
        <ele>51.4</ele>
        <time>2021-08-08T09:38:14Z</time>
      </trkpt>
      <trkpt lat="48.00321" lon="-2.65251">
        <ele>51.4</ele>
        <time>2021-08-08T09:38:15Z</time>
      </trkpt>
      <trkpt lat="48.00324" lon="-2.65257">
        <ele>51.2</ele>
        <time>2021-08-08T09:38:16Z</time>
      </trkpt>
      <trkpt lat="48.00326" lon="-2.65262">
        <ele>51.2</ele>
        <time>2021-08-08T09:38:17Z</time>
      </trkpt>
      <trkpt lat="48.00329" lon="-2.65266">
        <ele>51</ele>
        <time>2021-08-08T09:38:18Z</time>
      </trkpt>
      <trkpt lat="48.00331" lon="-2.65271">
        <ele>51</ele>
        <time>2021-08-08T09:38:19Z</time>
      </trkpt>
      <trkpt lat="48.00334" lon="-2.65276">
        <ele>51</ele>
        <time>2021-08-08T09:38:20Z</time>
      </trkpt>
      <trkpt lat="48.00336" lon="-2.65281">
        <ele>51</ele>
        <time>2021-08-08T09:38:21Z</time>
      </trkpt>
      <trkpt lat="48.00339" lon="-2.65286">
        <ele>51</ele>
        <time>2021-08-08T09:38:22Z</time>
      </trkpt>
      <trkpt lat="48.00342" lon="-2.65292">
        <ele>51</ele>
        <time>2021-08-08T09:38:23Z</time>
      </trkpt>
      <trkpt lat="48.00345" lon="-2.65299">
        <ele>51</ele>
        <time>2021-08-08T09:38:24Z</time>
      </trkpt>
      <trkpt lat="48.00348" lon="-2.65305">
        <ele>50.8</ele>
        <time>2021-08-08T09:38:25Z</time>
      </trkpt>
      <trkpt lat="48.00351" lon="-2.65312">
        <ele>50.8</ele>
        <time>2021-08-08T09:38:26Z</time>
      </trkpt>
      <trkpt lat="48.00354" lon="-2.65319">
        <ele>50.8</ele>
        <time>2021-08-08T09:38:27Z</time>
      </trkpt>
      <trkpt lat="48.00356" lon="-2.65326">
        <ele>50.8</ele>
        <time>2021-08-08T09:38:28Z</time>
      </trkpt>
      <trkpt lat="48.00359" lon="-2.65332">
        <ele>50.8</ele>
        <time>2021-08-08T09:38:29Z</time>
      </trkpt>
      <trkpt lat="48.00361" lon="-2.65338">
        <ele>50.8</ele>
        <time>2021-08-08T09:38:30Z</time>
      </trkpt>
      <trkpt lat="48.00363" lon="-2.65344">
        <ele>51</ele>
        <time>2021-08-08T09:38:31Z</time>
      </trkpt>
      <trkpt lat="48.00366" lon="-2.6535">
        <ele>51</ele>
        <time>2021-08-08T09:38:32Z</time>
      </trkpt>
      <trkpt lat="48.00368" lon="-2.65357">
        <ele>51</ele>
        <time>2021-08-08T09:38:33Z</time>
      </trkpt>
      <trkpt lat="48.0037" lon="-2.65363">
        <ele>51</ele>
        <time>2021-08-08T09:38:34Z</time>
      </trkpt>
      <trkpt lat="48.00372" lon="-2.65368">
        <ele>51.2</ele>
        <time>2021-08-08T09:38:35Z</time>
      </trkpt>
      <trkpt lat="48.00374" lon="-2.65374">
        <ele>51.2</ele>
        <time>2021-08-08T09:38:36Z</time>
      </trkpt>
      <trkpt lat="48.00377" lon="-2.65379">
        <ele>51.2</ele>
        <time>2021-08-08T09:38:37Z</time>
      </trkpt>
      <trkpt lat="48.00379" lon="-2.65384">
        <ele>51.2</ele>
        <time>2021-08-08T09:38:38Z</time>
      </trkpt>
      <trkpt lat="48.00381" lon="-2.6539">
        <ele>51.2</ele>
        <time>2021-08-08T09:38:39Z</time>
      </trkpt>
      <trkpt lat="48.00383" lon="-2.65396">
        <ele>51.4</ele>
        <time>2021-08-08T09:38:40Z</time>
      </trkpt>
      <trkpt lat="48.00385" lon="-2.65402">
        <ele>51.4</ele>
        <time>2021-08-08T09:38:41Z</time>
      </trkpt>
      <trkpt lat="48.00387" lon="-2.65408">
        <ele>51.4</ele>
        <time>2021-08-08T09:38:42Z</time>
      </trkpt>
      <trkpt lat="48.0039" lon="-2.65414">
        <ele>51.4</ele>
        <time>2021-08-08T09:38:43Z</time>
      </trkpt>
      <trkpt lat="48.00392" lon="-2.6542">
        <ele>51.6</ele>
        <time>2021-08-08T09:38:44Z</time>
      </trkpt>
      <trkpt lat="48.00394" lon="-2.65426">
        <ele>51.6</ele>
        <time>2021-08-08T09:38:45Z</time>
      </trkpt>
      <trkpt lat="48.00397" lon="-2.65431">
        <ele>51.6</ele>
        <time>2021-08-08T09:38:46Z</time>
      </trkpt>
      <trkpt lat="48.00399" lon="-2.65437">
        <ele>51.6</ele>
        <time>2021-08-08T09:38:47Z</time>
      </trkpt>
      <trkpt lat="48.00401" lon="-2.65443">
        <ele>51.6</ele>
        <time>2021-08-08T09:38:48Z</time>
      </trkpt>
      <trkpt lat="48.00403" lon="-2.65448">
        <ele>51.6</ele>
        <time>2021-08-08T09:38:49Z</time>
      </trkpt>
      <trkpt lat="48.00405" lon="-2.65454">
        <ele>51.6</ele>
        <time>2021-08-08T09:38:50Z</time>
      </trkpt>
      <trkpt lat="48.00407" lon="-2.65458">
        <ele>51.8</ele>
        <time>2021-08-08T09:38:51Z</time>
      </trkpt>
      <trkpt lat="48.00409" lon="-2.65463">
        <ele>51.8</ele>
        <time>2021-08-08T09:38:52Z</time>
      </trkpt>
      <trkpt lat="48.0041" lon="-2.65467">
        <ele>51.8</ele>
        <time>2021-08-08T09:38:53Z</time>
      </trkpt>
      <trkpt lat="48.00411" lon="-2.65471">
        <ele>51.8</ele>
        <time>2021-08-08T09:38:54Z</time>
      </trkpt>
      <trkpt lat="48.00412" lon="-2.65477">
        <ele>51.8</ele>
        <time>2021-08-08T09:38:55Z</time>
      </trkpt>
      <trkpt lat="48.00414" lon="-2.65483">
        <ele>51.8</ele>
        <time>2021-08-08T09:38:56Z</time>
      </trkpt>
      <trkpt lat="48.00415" lon="-2.65489">
        <ele>51.8</ele>
        <time>2021-08-08T09:38:57Z</time>
      </trkpt>
      <trkpt lat="48.00417" lon="-2.65496">
        <ele>51.8</ele>
        <time>2021-08-08T09:38:58Z</time>
      </trkpt>
      <trkpt lat="48.00418" lon="-2.65502">
        <ele>51.8</ele>
        <time>2021-08-08T09:38:59Z</time>
      </trkpt>
      <trkpt lat="48.0042" lon="-2.65509">
        <ele>51.8</ele>
        <time>2021-08-08T09:39:00Z</time>
      </trkpt>
      <trkpt lat="48.00422" lon="-2.65515">
        <ele>51.8</ele>
        <time>2021-08-08T09:39:01Z</time>
      </trkpt>
      <trkpt lat="48.00424" lon="-2.65522">
        <ele>51.8</ele>
        <time>2021-08-08T09:39:02Z</time>
      </trkpt>
      <trkpt lat="48.00426" lon="-2.65528">
        <ele>51.8</ele>
        <time>2021-08-08T09:39:03Z</time>
      </trkpt>
      <trkpt lat="48.00427" lon="-2.65535">
        <ele>51.8</ele>
        <time>2021-08-08T09:39:04Z</time>
      </trkpt>
      <trkpt lat="48.00429" lon="-2.65541">
        <ele>51.8</ele>
        <time>2021-08-08T09:39:05Z</time>
      </trkpt>
      <trkpt lat="48.00431" lon="-2.65548">
        <ele>52</ele>
        <time>2021-08-08T09:39:06Z</time>
      </trkpt>
      <trkpt lat="48.00432" lon="-2.65553">
        <ele>52</ele>
        <time>2021-08-08T09:39:07Z</time>
      </trkpt>
      <trkpt lat="48.00433" lon="-2.6556">
        <ele>52</ele>
        <time>2021-08-08T09:39:08Z</time>
      </trkpt>
      <trkpt lat="48.00435" lon="-2.65566">
        <ele>52</ele>
        <time>2021-08-08T09:39:09Z</time>
      </trkpt>
      <trkpt lat="48.00436" lon="-2.65573">
        <ele>52.2</ele>
        <time>2021-08-08T09:39:10Z</time>
      </trkpt>
      <trkpt lat="48.00438" lon="-2.6558">
        <ele>52.2</ele>
        <time>2021-08-08T09:39:11Z</time>
      </trkpt>
      <trkpt lat="48.0044" lon="-2.65587">
        <ele>52.2</ele>
        <time>2021-08-08T09:39:12Z</time>
      </trkpt>
      <trkpt lat="48.00442" lon="-2.65593">
        <ele>52.2</ele>
        <time>2021-08-08T09:39:13Z</time>
      </trkpt>
      <trkpt lat="48.00444" lon="-2.656">
        <ele>52.2</ele>
        <time>2021-08-08T09:39:14Z</time>
      </trkpt>
      <trkpt lat="48.00445" lon="-2.65607">
        <ele>52.2</ele>
        <time>2021-08-08T09:39:15Z</time>
      </trkpt>
      <trkpt lat="48.00448" lon="-2.65613">
        <ele>52.4</ele>
        <time>2021-08-08T09:39:16Z</time>
      </trkpt>
      <trkpt lat="48.00449" lon="-2.65619">
        <ele>52.4</ele>
        <time>2021-08-08T09:39:17Z</time>
      </trkpt>
      <trkpt lat="48.0045" lon="-2.65625">
        <ele>52.4</ele>
        <time>2021-08-08T09:39:18Z</time>
      </trkpt>
      <trkpt lat="48.00452" lon="-2.65632">
        <ele>52.4</ele>
        <time>2021-08-08T09:39:19Z</time>
      </trkpt>
      <trkpt lat="48.00454" lon="-2.65638">
        <ele>52.4</ele>
        <time>2021-08-08T09:39:20Z</time>
      </trkpt>
      <trkpt lat="48.00456" lon="-2.65644">
        <ele>52.4</ele>
        <time>2021-08-08T09:39:21Z</time>
      </trkpt>
      <trkpt lat="48.00458" lon="-2.6565">
        <ele>52.4</ele>
        <time>2021-08-08T09:39:22Z</time>
      </trkpt>
      <trkpt lat="48.0046" lon="-2.65657">
        <ele>52.4</ele>
        <time>2021-08-08T09:39:23Z</time>
      </trkpt>
      <trkpt lat="48.00461" lon="-2.65664">
        <ele>52.4</ele>
        <time>2021-08-08T09:39:24Z</time>
      </trkpt>
      <trkpt lat="48.00463" lon="-2.65671">
        <ele>52.4</ele>
        <time>2021-08-08T09:39:25Z</time>
      </trkpt>
      <trkpt lat="48.00464" lon="-2.65677">
        <ele>52.4</ele>
        <time>2021-08-08T09:39:26Z</time>
      </trkpt>
      <trkpt lat="48.00466" lon="-2.65685">
        <ele>52.4</ele>
        <time>2021-08-08T09:39:27Z</time>
      </trkpt>
      <trkpt lat="48.00468" lon="-2.65692">
        <ele>52.4</ele>
        <time>2021-08-08T09:39:28Z</time>
      </trkpt>
      <trkpt lat="48.0047" lon="-2.657">
        <ele>52.4</ele>
        <time>2021-08-08T09:39:29Z</time>
      </trkpt>
      <trkpt lat="48.00471" lon="-2.65707">
        <ele>52.4</ele>
        <time>2021-08-08T09:39:30Z</time>
      </trkpt>
      <trkpt lat="48.00474" lon="-2.65713">
        <ele>52.2</ele>
        <time>2021-08-08T09:39:31Z</time>
      </trkpt>
      <trkpt lat="48.00476" lon="-2.65719">
        <ele>52.4</ele>
        <time>2021-08-08T09:39:32Z</time>
      </trkpt>
      <trkpt lat="48.00478" lon="-2.65726">
        <ele>52.4</ele>
        <time>2021-08-08T09:39:33Z</time>
      </trkpt>
      <trkpt lat="48.00479" lon="-2.65732">
        <ele>52.6</ele>
        <time>2021-08-08T09:39:34Z</time>
      </trkpt>
      <trkpt lat="48.00481" lon="-2.65739">
        <ele>52.6</ele>
        <time>2021-08-08T09:39:35Z</time>
      </trkpt>
      <trkpt lat="48.00482" lon="-2.65746">
        <ele>52.4</ele>
        <time>2021-08-08T09:39:36Z</time>
      </trkpt>
      <trkpt lat="48.00484" lon="-2.65752">
        <ele>52.6</ele>
        <time>2021-08-08T09:39:37Z</time>
      </trkpt>
      <trkpt lat="48.00486" lon="-2.65758">
        <ele>52.6</ele>
        <time>2021-08-08T09:39:38Z</time>
      </trkpt>
      <trkpt lat="48.00487" lon="-2.65764">
        <ele>52.8</ele>
        <time>2021-08-08T09:39:39Z</time>
      </trkpt>
      <trkpt lat="48.00489" lon="-2.6577">
        <ele>52.8</ele>
        <time>2021-08-08T09:39:40Z</time>
      </trkpt>
      <trkpt lat="48.0049" lon="-2.65777">
        <ele>52.8</ele>
        <time>2021-08-08T09:39:41Z</time>
      </trkpt>
      <trkpt lat="48.00492" lon="-2.65784">
        <ele>53</ele>
        <time>2021-08-08T09:39:42Z</time>
      </trkpt>
      <trkpt lat="48.00494" lon="-2.6579">
        <ele>53</ele>
        <time>2021-08-08T09:39:43Z</time>
      </trkpt>
      <trkpt lat="48.00495" lon="-2.65797">
        <ele>53</ele>
        <time>2021-08-08T09:39:44Z</time>
      </trkpt>
      <trkpt lat="48.00497" lon="-2.65805">
        <ele>53</ele>
        <time>2021-08-08T09:39:45Z</time>
      </trkpt>
      <trkpt lat="48.00499" lon="-2.65811">
        <ele>53</ele>
        <time>2021-08-08T09:39:46Z</time>
      </trkpt>
      <trkpt lat="48.00501" lon="-2.65817">
        <ele>53</ele>
        <time>2021-08-08T09:39:47Z</time>
      </trkpt>
      <trkpt lat="48.00503" lon="-2.65823">
        <ele>53</ele>
        <time>2021-08-08T09:39:48Z</time>
      </trkpt>
      <trkpt lat="48.00505" lon="-2.65829">
        <ele>53</ele>
        <time>2021-08-08T09:39:49Z</time>
      </trkpt>
      <trkpt lat="48.00507" lon="-2.65834">
        <ele>53</ele>
        <time>2021-08-08T09:39:50Z</time>
      </trkpt>
      <trkpt lat="48.00509" lon="-2.6584">
        <ele>53</ele>
        <time>2021-08-08T09:39:51Z</time>
      </trkpt>
      <trkpt lat="48.00512" lon="-2.65846">
        <ele>53</ele>
        <time>2021-08-08T09:39:52Z</time>
      </trkpt>
      <trkpt lat="48.00514" lon="-2.65851">
        <ele>53</ele>
        <time>2021-08-08T09:39:53Z</time>
      </trkpt>
      <trkpt lat="48.00518" lon="-2.65857">
        <ele>53</ele>
        <time>2021-08-08T09:39:54Z</time>
      </trkpt>
      <trkpt lat="48.00521" lon="-2.65862">
        <ele>53</ele>
        <time>2021-08-08T09:39:55Z</time>
      </trkpt>
      <trkpt lat="48.00525" lon="-2.65867">
        <ele>53</ele>
        <time>2021-08-08T09:39:56Z</time>
      </trkpt>
      <trkpt lat="48.00528" lon="-2.65872">
        <ele>53</ele>
        <time>2021-08-08T09:39:57Z</time>
      </trkpt>
      <trkpt lat="48.00532" lon="-2.65876">
        <ele>53</ele>
        <time>2021-08-08T09:39:58Z</time>
      </trkpt>
      <trkpt lat="48.00535" lon="-2.6588">
        <ele>53</ele>
        <time>2021-08-08T09:39:59Z</time>
      </trkpt>
      <trkpt lat="48.00539" lon="-2.65885">
        <ele>53</ele>
        <time>2021-08-08T09:40:00Z</time>
      </trkpt>
      <trkpt lat="48.00543" lon="-2.65889">
        <ele>53</ele>
        <time>2021-08-08T09:40:01Z</time>
      </trkpt>
      <trkpt lat="48.00547" lon="-2.65893">
        <ele>53</ele>
        <time>2021-08-08T09:40:02Z</time>
      </trkpt>
      <trkpt lat="48.00551" lon="-2.65897">
        <ele>53</ele>
        <time>2021-08-08T09:40:03Z</time>
      </trkpt>
      <trkpt lat="48.00555" lon="-2.659">
        <ele>53</ele>
        <time>2021-08-08T09:40:04Z</time>
      </trkpt>
      <trkpt lat="48.00559" lon="-2.65903">
        <ele>53</ele>
        <time>2021-08-08T09:40:05Z</time>
      </trkpt>
      <trkpt lat="48.00563" lon="-2.65906">
        <ele>53</ele>
        <time>2021-08-08T09:40:06Z</time>
      </trkpt>
      <trkpt lat="48.00568" lon="-2.65909">
        <ele>53</ele>
        <time>2021-08-08T09:40:07Z</time>
      </trkpt>
      <trkpt lat="48.00573" lon="-2.65911">
        <ele>53</ele>
        <time>2021-08-08T09:40:08Z</time>
      </trkpt>
      <trkpt lat="48.00577" lon="-2.65913">
        <ele>53</ele>
        <time>2021-08-08T09:40:09Z</time>
      </trkpt>
      <trkpt lat="48.00582" lon="-2.65914">
        <ele>53</ele>
        <time>2021-08-08T09:40:10Z</time>
      </trkpt>
      <trkpt lat="48.00587" lon="-2.65915">
        <ele>53</ele>
        <time>2021-08-08T09:40:11Z</time>
      </trkpt>
      <trkpt lat="48.00592" lon="-2.65917">
        <ele>53</ele>
        <time>2021-08-08T09:40:12Z</time>
      </trkpt>
      <trkpt lat="48.00597" lon="-2.65918">
        <ele>53</ele>
        <time>2021-08-08T09:40:13Z</time>
      </trkpt>
      <trkpt lat="48.00602" lon="-2.65919">
        <ele>53</ele>
        <time>2021-08-08T09:40:14Z</time>
      </trkpt>
      <trkpt lat="48.00606" lon="-2.6592">
        <ele>53</ele>
        <time>2021-08-08T09:40:15Z</time>
      </trkpt>
      <trkpt lat="48.00611" lon="-2.65921">
        <ele>53</ele>
        <time>2021-08-08T09:40:16Z</time>
      </trkpt>
      <trkpt lat="48.00616" lon="-2.65922">
        <ele>53</ele>
        <time>2021-08-08T09:40:17Z</time>
      </trkpt>
      <trkpt lat="48.00621" lon="-2.65924">
        <ele>52.8</ele>
        <time>2021-08-08T09:40:18Z</time>
      </trkpt>
      <trkpt lat="48.00626" lon="-2.65925">
        <ele>52.8</ele>
        <time>2021-08-08T09:40:19Z</time>
      </trkpt>
      <trkpt lat="48.00632" lon="-2.65925">
        <ele>52.6</ele>
        <time>2021-08-08T09:40:20Z</time>
      </trkpt>
      <trkpt lat="48.00637" lon="-2.65926">
        <ele>52.4</ele>
        <time>2021-08-08T09:40:21Z</time>
      </trkpt>
      <trkpt lat="48.00642" lon="-2.65927">
        <ele>52.4</ele>
        <time>2021-08-08T09:40:22Z</time>
      </trkpt>
      <trkpt lat="48.00647" lon="-2.65929">
        <ele>52.2</ele>
        <time>2021-08-08T09:40:23Z</time>
      </trkpt>
      <trkpt lat="48.00651" lon="-2.6593">
        <ele>52.2</ele>
        <time>2021-08-08T09:40:24Z</time>
      </trkpt>
      <trkpt lat="48.00655" lon="-2.65931">
        <ele>52.2</ele>
        <time>2021-08-08T09:40:25Z</time>
      </trkpt>
      <trkpt lat="48.00659" lon="-2.65932">
        <ele>52.2</ele>
        <time>2021-08-08T09:40:26Z</time>
      </trkpt>
      <trkpt lat="48.00663" lon="-2.65933">
        <ele>52.2</ele>
        <time>2021-08-08T09:40:27Z</time>
      </trkpt>
      <trkpt lat="48.00666" lon="-2.65934">
        <ele>52.2</ele>
        <time>2021-08-08T09:40:28Z</time>
      </trkpt>
      <trkpt lat="48.0067" lon="-2.65935">
        <ele>52.2</ele>
        <time>2021-08-08T09:40:29Z</time>
      </trkpt>
      <trkpt lat="48.00674" lon="-2.65936">
        <ele>52.2</ele>
        <time>2021-08-08T09:40:30Z</time>
      </trkpt>
      <trkpt lat="48.00678" lon="-2.65937">
        <ele>52.2</ele>
        <time>2021-08-08T09:40:31Z</time>
      </trkpt>
      <trkpt lat="48.00682" lon="-2.65938">
        <ele>52.2</ele>
        <time>2021-08-08T09:40:32Z</time>
      </trkpt>
      <trkpt lat="48.00686" lon="-2.65939">
        <ele>52.2</ele>
        <time>2021-08-08T09:40:33Z</time>
      </trkpt>
      <trkpt lat="48.0069" lon="-2.6594">
        <ele>52.4</ele>
        <time>2021-08-08T09:40:34Z</time>
      </trkpt>
      <trkpt lat="48.00694" lon="-2.65941">
        <ele>52.6</ele>
        <time>2021-08-08T09:40:35Z</time>
      </trkpt>
      <trkpt lat="48.00698" lon="-2.65942">
        <ele>53</ele>
        <time>2021-08-08T09:40:36Z</time>
      </trkpt>
      <trkpt lat="48.00701" lon="-2.65943">
        <ele>53.2</ele>
        <time>2021-08-08T09:40:37Z</time>
      </trkpt>
      <trkpt lat="48.00705" lon="-2.65944">
        <ele>53.2</ele>
        <time>2021-08-08T09:40:38Z</time>
      </trkpt>
      <trkpt lat="48.00709" lon="-2.65945">
        <ele>53.4</ele>
        <time>2021-08-08T09:40:39Z</time>
      </trkpt>
      <trkpt lat="48.00713" lon="-2.65945">
        <ele>53.4</ele>
        <time>2021-08-08T09:40:40Z</time>
      </trkpt>
      <trkpt lat="48.00717" lon="-2.65946">
        <ele>53.6</ele>
        <time>2021-08-08T09:40:41Z</time>
      </trkpt>
      <trkpt lat="48.00721" lon="-2.65948">
        <ele>53.6</ele>
        <time>2021-08-08T09:40:42Z</time>
      </trkpt>
      <trkpt lat="48.00725" lon="-2.65949">
        <ele>53.6</ele>
        <time>2021-08-08T09:40:43Z</time>
      </trkpt>
      <trkpt lat="48.0073" lon="-2.6595">
        <ele>53.6</ele>
        <time>2021-08-08T09:40:44Z</time>
      </trkpt>
      <trkpt lat="48.00734" lon="-2.6595">
        <ele>53.6</ele>
        <time>2021-08-08T09:40:45Z</time>
      </trkpt>
      <trkpt lat="48.00738" lon="-2.65951">
        <ele>53.6</ele>
        <time>2021-08-08T09:40:46Z</time>
      </trkpt>
      <trkpt lat="48.00742" lon="-2.65952">
        <ele>53.6</ele>
        <time>2021-08-08T09:40:47Z</time>
      </trkpt>
      <trkpt lat="48.00746" lon="-2.65953">
        <ele>53.6</ele>
        <time>2021-08-08T09:40:48Z</time>
      </trkpt>
      <trkpt lat="48.0075" lon="-2.65953">
        <ele>53.6</ele>
        <time>2021-08-08T09:40:49Z</time>
      </trkpt>
      <trkpt lat="48.00754" lon="-2.65954">
        <ele>53.6</ele>
        <time>2021-08-08T09:40:50Z</time>
      </trkpt>
      <trkpt lat="48.00758" lon="-2.65955">
        <ele>53.6</ele>
        <time>2021-08-08T09:40:51Z</time>
      </trkpt>
      <trkpt lat="48.00762" lon="-2.65955">
        <ele>53.6</ele>
        <time>2021-08-08T09:40:52Z</time>
      </trkpt>
      <trkpt lat="48.00766" lon="-2.65955">
        <ele>53.6</ele>
        <time>2021-08-08T09:40:53Z</time>
      </trkpt>
      <trkpt lat="48.0077" lon="-2.65956">
        <ele>53.6</ele>
        <time>2021-08-08T09:40:54Z</time>
      </trkpt>
      <trkpt lat="48.00775" lon="-2.65957">
        <ele>53.6</ele>
        <time>2021-08-08T09:40:55Z</time>
      </trkpt>
      <trkpt lat="48.00779" lon="-2.65958">
        <ele>53.6</ele>
        <time>2021-08-08T09:40:56Z</time>
      </trkpt>
      <trkpt lat="48.00784" lon="-2.6596">
        <ele>53.6</ele>
        <time>2021-08-08T09:40:57Z</time>
      </trkpt>
      <trkpt lat="48.00788" lon="-2.65961">
        <ele>53.6</ele>
        <time>2021-08-08T09:40:58Z</time>
      </trkpt>
      <trkpt lat="48.00792" lon="-2.65962">
        <ele>53.6</ele>
        <time>2021-08-08T09:40:59Z</time>
      </trkpt>
      <trkpt lat="48.00797" lon="-2.65963">
        <ele>53.8</ele>
        <time>2021-08-08T09:41:00Z</time>
      </trkpt>
      <trkpt lat="48.00801" lon="-2.65965">
        <ele>53.8</ele>
        <time>2021-08-08T09:41:01Z</time>
      </trkpt>
      <trkpt lat="48.00806" lon="-2.65966">
        <ele>53.8</ele>
        <time>2021-08-08T09:41:02Z</time>
      </trkpt>
      <trkpt lat="48.00811" lon="-2.65967">
        <ele>53.8</ele>
        <time>2021-08-08T09:41:03Z</time>
      </trkpt>
      <trkpt lat="48.00816" lon="-2.65968">
        <ele>53.8</ele>
        <time>2021-08-08T09:41:04Z</time>
      </trkpt>
      <trkpt lat="48.00821" lon="-2.65969">
        <ele>54</ele>
        <time>2021-08-08T09:41:05Z</time>
      </trkpt>
      <trkpt lat="48.00825" lon="-2.6597">
        <ele>54</ele>
        <time>2021-08-08T09:41:06Z</time>
      </trkpt>
      <trkpt lat="48.0083" lon="-2.65971">
        <ele>54</ele>
        <time>2021-08-08T09:41:07Z</time>
      </trkpt>
      <trkpt lat="48.00834" lon="-2.65971">
        <ele>54</ele>
        <time>2021-08-08T09:41:08Z</time>
      </trkpt>
      <trkpt lat="48.00838" lon="-2.65972">
        <ele>54</ele>
        <time>2021-08-08T09:41:09Z</time>
      </trkpt>
      <trkpt lat="48.00843" lon="-2.65973">
        <ele>54</ele>
        <time>2021-08-08T09:41:10Z</time>
      </trkpt>
      <trkpt lat="48.00847" lon="-2.65975">
        <ele>54</ele>
        <time>2021-08-08T09:41:11Z</time>
      </trkpt>
      <trkpt lat="48.00852" lon="-2.65976">
        <ele>53.8</ele>
        <time>2021-08-08T09:41:12Z</time>
      </trkpt>
      <trkpt lat="48.00858" lon="-2.65977">
        <ele>53.8</ele>
        <time>2021-08-08T09:41:13Z</time>
      </trkpt>
      <trkpt lat="48.00863" lon="-2.65978">
        <ele>53.8</ele>
        <time>2021-08-08T09:41:14Z</time>
      </trkpt>
      <trkpt lat="48.00867" lon="-2.65979">
        <ele>53.6</ele>
        <time>2021-08-08T09:41:15Z</time>
      </trkpt>
      <trkpt lat="48.00872" lon="-2.6598">
        <ele>53.6</ele>
        <time>2021-08-08T09:41:16Z</time>
      </trkpt>
      <trkpt lat="48.00876" lon="-2.65981">
        <ele>53.6</ele>
        <time>2021-08-08T09:41:17Z</time>
      </trkpt>
      <trkpt lat="48.0088" lon="-2.65982">
        <ele>53.6</ele>
        <time>2021-08-08T09:41:18Z</time>
      </trkpt>
      <trkpt lat="48.00885" lon="-2.65984">
        <ele>53.8</ele>
        <time>2021-08-08T09:41:19Z</time>
      </trkpt>
      <trkpt lat="48.00889" lon="-2.65986">
        <ele>53.8</ele>
        <time>2021-08-08T09:41:20Z</time>
      </trkpt>
      <trkpt lat="48.00894" lon="-2.65989">
        <ele>53.8</ele>
        <time>2021-08-08T09:41:21Z</time>
      </trkpt>
      <trkpt lat="48.00899" lon="-2.65992">
        <ele>53.6</ele>
        <time>2021-08-08T09:41:22Z</time>
      </trkpt>
      <trkpt lat="48.00903" lon="-2.65995">
        <ele>53.6</ele>
        <time>2021-08-08T09:41:23Z</time>
      </trkpt>
      <trkpt lat="48.00906" lon="-2.65999">
        <ele>53.6</ele>
        <time>2021-08-08T09:41:24Z</time>
      </trkpt>
      <trkpt lat="48.00909" lon="-2.66003">
        <ele>53.6</ele>
        <time>2021-08-08T09:41:25Z</time>
      </trkpt>
      <trkpt lat="48.00912" lon="-2.66007">
        <ele>53.6</ele>
        <time>2021-08-08T09:41:26Z</time>
      </trkpt>
      <trkpt lat="48.00914" lon="-2.66011">
        <ele>53.6</ele>
        <time>2021-08-08T09:41:27Z</time>
      </trkpt>
      <trkpt lat="48.00917" lon="-2.66016">
        <ele>53.6</ele>
        <time>2021-08-08T09:41:28Z</time>
      </trkpt>
      <trkpt lat="48.00919" lon="-2.66022">
        <ele>53.6</ele>
        <time>2021-08-08T09:41:29Z</time>
      </trkpt>
      <trkpt lat="48.00921" lon="-2.66028">
        <ele>53.6</ele>
        <time>2021-08-08T09:41:30Z</time>
      </trkpt>
      <trkpt lat="48.00924" lon="-2.66034">
        <ele>53.8</ele>
        <time>2021-08-08T09:41:31Z</time>
      </trkpt>
      <trkpt lat="48.00926" lon="-2.6604">
        <ele>53.8</ele>
        <time>2021-08-08T09:41:32Z</time>
      </trkpt>
      <trkpt lat="48.00928" lon="-2.66045">
        <ele>53.8</ele>
        <time>2021-08-08T09:41:33Z</time>
      </trkpt>
      <trkpt lat="48.00931" lon="-2.66052">
        <ele>53.6</ele>
        <time>2021-08-08T09:41:34Z</time>
      </trkpt>
      <trkpt lat="48.00933" lon="-2.66058">
        <ele>53.6</ele>
        <time>2021-08-08T09:41:35Z</time>
      </trkpt>
      <trkpt lat="48.00935" lon="-2.66064">
        <ele>53.6</ele>
        <time>2021-08-08T09:41:36Z</time>
      </trkpt>
      <trkpt lat="48.00937" lon="-2.6607">
        <ele>53.4</ele>
        <time>2021-08-08T09:41:37Z</time>
      </trkpt>
      <trkpt lat="48.00938" lon="-2.66076">
        <ele>53.4</ele>
        <time>2021-08-08T09:41:38Z</time>
      </trkpt>
      <trkpt lat="48.0094" lon="-2.66083">
        <ele>53.6</ele>
        <time>2021-08-08T09:41:39Z</time>
      </trkpt>
      <trkpt lat="48.00942" lon="-2.66089">
        <ele>53.6</ele>
        <time>2021-08-08T09:41:40Z</time>
      </trkpt>
      <trkpt lat="48.00944" lon="-2.66096">
        <ele>53.6</ele>
        <time>2021-08-08T09:41:41Z</time>
      </trkpt>
      <trkpt lat="48.00947" lon="-2.66102">
        <ele>53.6</ele>
        <time>2021-08-08T09:41:42Z</time>
      </trkpt>
      <trkpt lat="48.00949" lon="-2.66108">
        <ele>53.6</ele>
        <time>2021-08-08T09:41:43Z</time>
      </trkpt>
      <trkpt lat="48.00951" lon="-2.66114">
        <ele>53.6</ele>
        <time>2021-08-08T09:41:44Z</time>
      </trkpt>
      <trkpt lat="48.00953" lon="-2.6612">
        <ele>53.6</ele>
        <time>2021-08-08T09:41:45Z</time>
      </trkpt>
      <trkpt lat="48.00956" lon="-2.66128">
        <ele>53.6</ele>
        <time>2021-08-08T09:41:46Z</time>
      </trkpt>
      <trkpt lat="48.00959" lon="-2.66135">
        <ele>53.6</ele>
        <time>2021-08-08T09:41:47Z</time>
      </trkpt>
      <trkpt lat="48.00962" lon="-2.66141">
        <ele>53.6</ele>
        <time>2021-08-08T09:41:48Z</time>
      </trkpt>
      <trkpt lat="48.00966" lon="-2.66147">
        <ele>53.6</ele>
        <time>2021-08-08T09:41:49Z</time>
      </trkpt>
      <trkpt lat="48.00969" lon="-2.66154">
        <ele>53.6</ele>
        <time>2021-08-08T09:41:50Z</time>
      </trkpt>
      <trkpt lat="48.00973" lon="-2.66161">
        <ele>53.6</ele>
        <time>2021-08-08T09:41:51Z</time>
      </trkpt>
      <trkpt lat="48.00977" lon="-2.66167">
        <ele>53.6</ele>
        <time>2021-08-08T09:41:52Z</time>
      </trkpt>
      <trkpt lat="48.00981" lon="-2.66174">
        <ele>53.6</ele>
        <time>2021-08-08T09:41:53Z</time>
      </trkpt>
      <trkpt lat="48.00985" lon="-2.6618">
        <ele>53.6</ele>
        <time>2021-08-08T09:41:54Z</time>
      </trkpt>
      <trkpt lat="48.00989" lon="-2.66186">
        <ele>53.6</ele>
        <time>2021-08-08T09:41:55Z</time>
      </trkpt>
      <trkpt lat="48.00993" lon="-2.66193">
        <ele>53.6</ele>
        <time>2021-08-08T09:41:56Z</time>
      </trkpt>
      <trkpt lat="48.00997" lon="-2.66199">
        <ele>53.6</ele>
        <time>2021-08-08T09:41:57Z</time>
      </trkpt>
      <trkpt lat="48.01002" lon="-2.66205">
        <ele>53.6</ele>
        <time>2021-08-08T09:41:58Z</time>
      </trkpt>
      <trkpt lat="48.01006" lon="-2.66212">
        <ele>53.6</ele>
        <time>2021-08-08T09:41:59Z</time>
      </trkpt>
      <trkpt lat="48.01011" lon="-2.66218">
        <ele>53.6</ele>
        <time>2021-08-08T09:42:00Z</time>
      </trkpt>
      <trkpt lat="48.01015" lon="-2.66224">
        <ele>53.6</ele>
        <time>2021-08-08T09:42:01Z</time>
      </trkpt>
      <trkpt lat="48.01019" lon="-2.66231">
        <ele>53.6</ele>
        <time>2021-08-08T09:42:02Z</time>
      </trkpt>
      <trkpt lat="48.01023" lon="-2.66237">
        <ele>53.6</ele>
        <time>2021-08-08T09:42:03Z</time>
      </trkpt>
      <trkpt lat="48.01027" lon="-2.66243">
        <ele>53.6</ele>
        <time>2021-08-08T09:42:04Z</time>
      </trkpt>
      <trkpt lat="48.01031" lon="-2.66249">
        <ele>53.6</ele>
        <time>2021-08-08T09:42:05Z</time>
      </trkpt>
      <trkpt lat="48.01035" lon="-2.66254">
        <ele>53.6</ele>
        <time>2021-08-08T09:42:06Z</time>
      </trkpt>
      <trkpt lat="48.01039" lon="-2.6626">
        <ele>53.6</ele>
        <time>2021-08-08T09:42:07Z</time>
      </trkpt>
      <trkpt lat="48.01043" lon="-2.66266">
        <ele>53.6</ele>
        <time>2021-08-08T09:42:08Z</time>
      </trkpt>
      <trkpt lat="48.01047" lon="-2.66272">
        <ele>53.6</ele>
        <time>2021-08-08T09:42:09Z</time>
      </trkpt>
      <trkpt lat="48.01051" lon="-2.66278">
        <ele>53.6</ele>
        <time>2021-08-08T09:42:10Z</time>
      </trkpt>
      <trkpt lat="48.01054" lon="-2.66284">
        <ele>53.4</ele>
        <time>2021-08-08T09:42:11Z</time>
      </trkpt>
      <trkpt lat="48.01057" lon="-2.66291">
        <ele>53.4</ele>
        <time>2021-08-08T09:42:12Z</time>
      </trkpt>
      <trkpt lat="48.0106" lon="-2.66298">
        <ele>53.4</ele>
        <time>2021-08-08T09:42:13Z</time>
      </trkpt>
      <trkpt lat="48.01062" lon="-2.66305">
        <ele>53.4</ele>
        <time>2021-08-08T09:42:14Z</time>
      </trkpt>
      <trkpt lat="48.01065" lon="-2.66312">
        <ele>53.4</ele>
        <time>2021-08-08T09:42:15Z</time>
      </trkpt>
      <trkpt lat="48.01067" lon="-2.66318">
        <ele>53.4</ele>
        <time>2021-08-08T09:42:16Z</time>
      </trkpt>
      <trkpt lat="48.01068" lon="-2.66325">
        <ele>53.4</ele>
        <time>2021-08-08T09:42:17Z</time>
      </trkpt>
      <trkpt lat="48.0107" lon="-2.66332">
        <ele>53.4</ele>
        <time>2021-08-08T09:42:18Z</time>
      </trkpt>
      <trkpt lat="48.01071" lon="-2.66339">
        <ele>53.4</ele>
        <time>2021-08-08T09:42:19Z</time>
      </trkpt>
      <trkpt lat="48.01071" lon="-2.66345">
        <ele>53.4</ele>
        <time>2021-08-08T09:42:20Z</time>
      </trkpt>
      <trkpt lat="48.01072" lon="-2.66351">
        <ele>53.4</ele>
        <time>2021-08-08T09:42:21Z</time>
      </trkpt>
      <trkpt lat="48.01072" lon="-2.66358">
        <ele>53.6</ele>
        <time>2021-08-08T09:42:22Z</time>
      </trkpt>
      <trkpt lat="48.01073" lon="-2.66364">
        <ele>53.6</ele>
        <time>2021-08-08T09:42:23Z</time>
      </trkpt>
      <trkpt lat="48.01072" lon="-2.66371">
        <ele>53.4</ele>
        <time>2021-08-08T09:42:24Z</time>
      </trkpt>
      <trkpt lat="48.01072" lon="-2.66378">
        <ele>53.4</ele>
        <time>2021-08-08T09:42:25Z</time>
      </trkpt>
      <trkpt lat="48.01071" lon="-2.66385">
        <ele>53.4</ele>
        <time>2021-08-08T09:42:26Z</time>
      </trkpt>
      <trkpt lat="48.01069" lon="-2.66392">
        <ele>53.6</ele>
        <time>2021-08-08T09:42:27Z</time>
      </trkpt>
      <trkpt lat="48.01068" lon="-2.66399">
        <ele>53.6</ele>
        <time>2021-08-08T09:42:28Z</time>
      </trkpt>
      <trkpt lat="48.01066" lon="-2.66406">
        <ele>53.6</ele>
        <time>2021-08-08T09:42:29Z</time>
      </trkpt>
      <trkpt lat="48.01065" lon="-2.66412">
        <ele>54</ele>
        <time>2021-08-08T09:42:30Z</time>
      </trkpt>
      <trkpt lat="48.01063" lon="-2.66419">
        <ele>54</ele>
        <time>2021-08-08T09:42:31Z</time>
      </trkpt>
      <trkpt lat="48.01061" lon="-2.66426">
        <ele>54</ele>
        <time>2021-08-08T09:42:32Z</time>
      </trkpt>
      <trkpt lat="48.01059" lon="-2.66432">
        <ele>53.8</ele>
        <time>2021-08-08T09:42:33Z</time>
      </trkpt>
      <trkpt lat="48.01057" lon="-2.66439">
        <ele>53.8</ele>
        <time>2021-08-08T09:42:34Z</time>
      </trkpt>
      <trkpt lat="48.01056" lon="-2.66445">
        <ele>53.8</ele>
        <time>2021-08-08T09:42:35Z</time>
      </trkpt>
      <trkpt lat="48.01054" lon="-2.6645">
        <ele>53.8</ele>
        <time>2021-08-08T09:42:36Z</time>
      </trkpt>
      <trkpt lat="48.01052" lon="-2.66456">
        <ele>53.8</ele>
        <time>2021-08-08T09:42:37Z</time>
      </trkpt>
      <trkpt lat="48.0105" lon="-2.66462">
        <ele>53.8</ele>
        <time>2021-08-08T09:42:38Z</time>
      </trkpt>
      <trkpt lat="48.01049" lon="-2.66468">
        <ele>53.8</ele>
        <time>2021-08-08T09:42:39Z</time>
      </trkpt>
      <trkpt lat="48.01047" lon="-2.66473">
        <ele>53.8</ele>
        <time>2021-08-08T09:42:40Z</time>
      </trkpt>
      <trkpt lat="48.01046" lon="-2.66478">
        <ele>53.8</ele>
        <time>2021-08-08T09:42:41Z</time>
      </trkpt>
      <trkpt lat="48.01045" lon="-2.66483">
        <ele>53.8</ele>
        <time>2021-08-08T09:42:42Z</time>
      </trkpt>
      <trkpt lat="48.01044" lon="-2.66488">
        <ele>53.8</ele>
        <time>2021-08-08T09:42:43Z</time>
      </trkpt>
      <trkpt lat="48.01042" lon="-2.66492">
        <ele>53.8</ele>
        <time>2021-08-08T09:42:44Z</time>
      </trkpt>
      <trkpt lat="48.01041" lon="-2.66497">
        <ele>53.8</ele>
        <time>2021-08-08T09:42:45Z</time>
      </trkpt>
      <trkpt lat="48.0104" lon="-2.66501">
        <ele>53.8</ele>
        <time>2021-08-08T09:42:46Z</time>
      </trkpt>
      <trkpt lat="48.01038" lon="-2.66506">
        <ele>53.8</ele>
        <time>2021-08-08T09:42:47Z</time>
      </trkpt>
      <trkpt lat="48.01036" lon="-2.6651">
        <ele>53.8</ele>
        <time>2021-08-08T09:42:48Z</time>
      </trkpt>
      <trkpt lat="48.01034" lon="-2.66515">
        <ele>53.8</ele>
        <time>2021-08-08T09:42:49Z</time>
      </trkpt>
      <trkpt lat="48.01033" lon="-2.6652">
        <ele>53.8</ele>
        <time>2021-08-08T09:42:50Z</time>
      </trkpt>
      <trkpt lat="48.01031" lon="-2.66525">
        <ele>53.8</ele>
        <time>2021-08-08T09:42:51Z</time>
      </trkpt>
      <trkpt lat="48.0103" lon="-2.6653">
        <ele>54</ele>
        <time>2021-08-08T09:42:52Z</time>
      </trkpt>
      <trkpt lat="48.01028" lon="-2.66536">
        <ele>54</ele>
        <time>2021-08-08T09:42:53Z</time>
      </trkpt>
      <trkpt lat="48.01026" lon="-2.66541">
        <ele>54</ele>
        <time>2021-08-08T09:42:54Z</time>
      </trkpt>
      <trkpt lat="48.01024" lon="-2.66547">
        <ele>54</ele>
        <time>2021-08-08T09:42:55Z</time>
      </trkpt>
      <trkpt lat="48.01022" lon="-2.66553">
        <ele>54</ele>
        <time>2021-08-08T09:42:56Z</time>
      </trkpt>
      <trkpt lat="48.01021" lon="-2.6656">
        <ele>54</ele>
        <time>2021-08-08T09:42:57Z</time>
      </trkpt>
      <trkpt lat="48.01019" lon="-2.66566">
        <ele>54.2</ele>
        <time>2021-08-08T09:42:58Z</time>
      </trkpt>
      <trkpt lat="48.01016" lon="-2.66573">
        <ele>54.2</ele>
        <time>2021-08-08T09:42:59Z</time>
      </trkpt>
      <trkpt lat="48.01014" lon="-2.66579">
        <ele>54.2</ele>
        <time>2021-08-08T09:43:00Z</time>
      </trkpt>
      <trkpt lat="48.01012" lon="-2.66586">
        <ele>54.2</ele>
        <time>2021-08-08T09:43:01Z</time>
      </trkpt>
      <trkpt lat="48.0101" lon="-2.66592">
        <ele>54.2</ele>
        <time>2021-08-08T09:43:02Z</time>
      </trkpt>
      <trkpt lat="48.01007" lon="-2.66599">
        <ele>54.2</ele>
        <time>2021-08-08T09:43:03Z</time>
      </trkpt>
      <trkpt lat="48.01005" lon="-2.66607">
        <ele>54</ele>
        <time>2021-08-08T09:43:04Z</time>
      </trkpt>
      <trkpt lat="48.01003" lon="-2.66614">
        <ele>54</ele>
        <time>2021-08-08T09:43:05Z</time>
      </trkpt>
      <trkpt lat="48.01001" lon="-2.66622">
        <ele>54</ele>
        <time>2021-08-08T09:43:06Z</time>
      </trkpt>
      <trkpt lat="48.00998" lon="-2.66629">
        <ele>53.8</ele>
        <time>2021-08-08T09:43:07Z</time>
      </trkpt>
      <trkpt lat="48.00996" lon="-2.66636">
        <ele>53.8</ele>
        <time>2021-08-08T09:43:08Z</time>
      </trkpt>
      <trkpt lat="48.00994" lon="-2.66644">
        <ele>53.8</ele>
        <time>2021-08-08T09:43:09Z</time>
      </trkpt>
      <trkpt lat="48.00991" lon="-2.66652">
        <ele>53.6</ele>
        <time>2021-08-08T09:43:10Z</time>
      </trkpt>
      <trkpt lat="48.00989" lon="-2.66659">
        <ele>53.4</ele>
        <time>2021-08-08T09:43:11Z</time>
      </trkpt>
      <trkpt lat="48.00987" lon="-2.66667">
        <ele>53.2</ele>
        <time>2021-08-08T09:43:12Z</time>
      </trkpt>
      <trkpt lat="48.00986" lon="-2.66673">
        <ele>53</ele>
        <time>2021-08-08T09:43:13Z</time>
      </trkpt>
      <trkpt lat="48.00985" lon="-2.6668">
        <ele>53</ele>
        <time>2021-08-08T09:43:14Z</time>
      </trkpt>
      <trkpt lat="48.00983" lon="-2.66686">
        <ele>53</ele>
        <time>2021-08-08T09:43:15Z</time>
      </trkpt>
      <trkpt lat="48.00982" lon="-2.66692">
        <ele>53</ele>
        <time>2021-08-08T09:43:16Z</time>
      </trkpt>
      <trkpt lat="48.00981" lon="-2.66699">
        <ele>53</ele>
        <time>2021-08-08T09:43:17Z</time>
      </trkpt>
      <trkpt lat="48.0098" lon="-2.66706">
        <ele>53</ele>
        <time>2021-08-08T09:43:18Z</time>
      </trkpt>
      <trkpt lat="48.00979" lon="-2.66714">
        <ele>53</ele>
        <time>2021-08-08T09:43:19Z</time>
      </trkpt>
      <trkpt lat="48.00978" lon="-2.6672">
        <ele>53</ele>
        <time>2021-08-08T09:43:20Z</time>
      </trkpt>
      <trkpt lat="48.00977" lon="-2.66727">
        <ele>53</ele>
        <time>2021-08-08T09:43:21Z</time>
      </trkpt>
      <trkpt lat="48.00976" lon="-2.66735">
        <ele>53</ele>
        <time>2021-08-08T09:43:22Z</time>
      </trkpt>
      <trkpt lat="48.00975" lon="-2.66743">
        <ele>53</ele>
        <time>2021-08-08T09:43:23Z</time>
      </trkpt>
      <trkpt lat="48.00975" lon="-2.66751">
        <ele>53.4</ele>
        <time>2021-08-08T09:43:24Z</time>
      </trkpt>
      <trkpt lat="48.00974" lon="-2.66759">
        <ele>53.8</ele>
        <time>2021-08-08T09:43:25Z</time>
      </trkpt>
      <trkpt lat="48.00973" lon="-2.66768">
        <ele>53.8</ele>
        <time>2021-08-08T09:43:26Z</time>
      </trkpt>
      <trkpt lat="48.00972" lon="-2.66777">
        <ele>53.8</ele>
        <time>2021-08-08T09:43:27Z</time>
      </trkpt>
      <trkpt lat="48.00971" lon="-2.66785">
        <ele>53.8</ele>
        <time>2021-08-08T09:43:28Z</time>
      </trkpt>
      <trkpt lat="48.0097" lon="-2.66793">
        <ele>53.8</ele>
        <time>2021-08-08T09:43:29Z</time>
      </trkpt>
      <trkpt lat="48.00968" lon="-2.66801">
        <ele>53.8</ele>
        <time>2021-08-08T09:43:30Z</time>
      </trkpt>
      <trkpt lat="48.00967" lon="-2.66809">
        <ele>53.8</ele>
        <time>2021-08-08T09:43:31Z</time>
      </trkpt>
      <trkpt lat="48.00966" lon="-2.66818">
        <ele>53.8</ele>
        <time>2021-08-08T09:43:32Z</time>
      </trkpt>
      <trkpt lat="48.00964" lon="-2.66826">
        <ele>53.8</ele>
        <time>2021-08-08T09:43:33Z</time>
      </trkpt>
      <trkpt lat="48.00962" lon="-2.66834">
        <ele>53.8</ele>
        <time>2021-08-08T09:43:34Z</time>
      </trkpt>
      <trkpt lat="48.0096" lon="-2.66841">
        <ele>53.8</ele>
        <time>2021-08-08T09:43:35Z</time>
      </trkpt>
      <trkpt lat="48.00958" lon="-2.66849">
        <ele>53.4</ele>
        <time>2021-08-08T09:43:36Z</time>
      </trkpt>
      <trkpt lat="48.00956" lon="-2.66856">
        <ele>53.4</ele>
        <time>2021-08-08T09:43:37Z</time>
      </trkpt>
      <trkpt lat="48.00954" lon="-2.66864">
        <ele>53.2</ele>
        <time>2021-08-08T09:43:38Z</time>
      </trkpt>
      <trkpt lat="48.00952" lon="-2.66871">
        <ele>53.2</ele>
        <time>2021-08-08T09:43:39Z</time>
      </trkpt>
      <trkpt lat="48.00949" lon="-2.66877">
        <ele>53.2</ele>
        <time>2021-08-08T09:43:40Z</time>
      </trkpt>
      <trkpt lat="48.00947" lon="-2.66883">
        <ele>53.2</ele>
        <time>2021-08-08T09:43:41Z</time>
      </trkpt>
      <trkpt lat="48.00945" lon="-2.6689">
        <ele>53.2</ele>
        <time>2021-08-08T09:43:42Z</time>
      </trkpt>
      <trkpt lat="48.00943" lon="-2.66896">
        <ele>53.2</ele>
        <time>2021-08-08T09:43:43Z</time>
      </trkpt>
      <trkpt lat="48.00941" lon="-2.66902">
        <ele>53.2</ele>
        <time>2021-08-08T09:43:44Z</time>
      </trkpt>
      <trkpt lat="48.00939" lon="-2.66908">
        <ele>53</ele>
        <time>2021-08-08T09:43:45Z</time>
      </trkpt>
      <trkpt lat="48.00937" lon="-2.66913">
        <ele>53</ele>
        <time>2021-08-08T09:43:46Z</time>
      </trkpt>
      <trkpt lat="48.00936" lon="-2.66919">
        <ele>53</ele>
        <time>2021-08-08T09:43:47Z</time>
      </trkpt>
      <trkpt lat="48.00934" lon="-2.66925">
        <ele>52.8</ele>
        <time>2021-08-08T09:43:48Z</time>
      </trkpt>
      <trkpt lat="48.00932" lon="-2.66931">
        <ele>52.8</ele>
        <time>2021-08-08T09:43:49Z</time>
      </trkpt>
      <trkpt lat="48.0093" lon="-2.66937">
        <ele>52.8</ele>
        <time>2021-08-08T09:43:50Z</time>
      </trkpt>
      <trkpt lat="48.00928" lon="-2.66942">
        <ele>53</ele>
        <time>2021-08-08T09:43:51Z</time>
      </trkpt>
      <trkpt lat="48.00927" lon="-2.66947">
        <ele>53</ele>
        <time>2021-08-08T09:43:52Z</time>
      </trkpt>
      <trkpt lat="48.00925" lon="-2.66951">
        <ele>53.2</ele>
        <time>2021-08-08T09:43:53Z</time>
      </trkpt>
      <trkpt lat="48.00923" lon="-2.66955">
        <ele>53.4</ele>
        <time>2021-08-08T09:43:54Z</time>
      </trkpt>
      <trkpt lat="48.00922" lon="-2.6696">
        <ele>53.6</ele>
        <time>2021-08-08T09:43:55Z</time>
      </trkpt>
      <trkpt lat="48.00922" lon="-2.66966">
        <ele>53.8</ele>
        <time>2021-08-08T09:43:56Z</time>
      </trkpt>
      <trkpt lat="48.00921" lon="-2.66971">
        <ele>53.8</ele>
        <time>2021-08-08T09:43:57Z</time>
      </trkpt>
      <trkpt lat="48.00919" lon="-2.66976">
        <ele>53.8</ele>
        <time>2021-08-08T09:43:58Z</time>
      </trkpt>
      <trkpt lat="48.00917" lon="-2.66981">
        <ele>53.8</ele>
        <time>2021-08-08T09:43:59Z</time>
      </trkpt>
      <trkpt lat="48.00916" lon="-2.66987">
        <ele>54</ele>
        <time>2021-08-08T09:44:00Z</time>
      </trkpt>
      <trkpt lat="48.00914" lon="-2.66992">
        <ele>54</ele>
        <time>2021-08-08T09:44:01Z</time>
      </trkpt>
      <trkpt lat="48.00913" lon="-2.66998">
        <ele>54</ele>
        <time>2021-08-08T09:44:02Z</time>
      </trkpt>
      <trkpt lat="48.00913" lon="-2.67004">
        <ele>54.4</ele>
        <time>2021-08-08T09:44:03Z</time>
      </trkpt>
      <trkpt lat="48.00912" lon="-2.67011">
        <ele>54.6</ele>
        <time>2021-08-08T09:44:04Z</time>
      </trkpt>
      <trkpt lat="48.00912" lon="-2.67017">
        <ele>55</ele>
        <time>2021-08-08T09:44:05Z</time>
      </trkpt>
      <trkpt lat="48.00912" lon="-2.67023">
        <ele>55</ele>
        <time>2021-08-08T09:44:06Z</time>
      </trkpt>
      <trkpt lat="48.00911" lon="-2.67029">
        <ele>55</ele>
        <time>2021-08-08T09:44:07Z</time>
      </trkpt>
      <trkpt lat="48.00911" lon="-2.67035">
        <ele>55</ele>
        <time>2021-08-08T09:44:08Z</time>
      </trkpt>
      <trkpt lat="48.00911" lon="-2.67041">
        <ele>55.2</ele>
        <time>2021-08-08T09:44:09Z</time>
      </trkpt>
      <trkpt lat="48.00911" lon="-2.67047">
        <ele>55.2</ele>
        <time>2021-08-08T09:44:10Z</time>
      </trkpt>
      <trkpt lat="48.00911" lon="-2.67053">
        <ele>55.2</ele>
        <time>2021-08-08T09:44:11Z</time>
      </trkpt>
      <trkpt lat="48.00911" lon="-2.67059">
        <ele>55.2</ele>
        <time>2021-08-08T09:44:12Z</time>
      </trkpt>
      <trkpt lat="48.00911" lon="-2.67064">
        <ele>55.2</ele>
        <time>2021-08-08T09:44:13Z</time>
      </trkpt>
      <trkpt lat="48.00911" lon="-2.6707">
        <ele>55.2</ele>
        <time>2021-08-08T09:44:14Z</time>
      </trkpt>
      <trkpt lat="48.00912" lon="-2.67076">
        <ele>55.2</ele>
        <time>2021-08-08T09:44:15Z</time>
      </trkpt>
      <trkpt lat="48.00912" lon="-2.67082">
        <ele>55.2</ele>
        <time>2021-08-08T09:44:16Z</time>
      </trkpt>
      <trkpt lat="48.00914" lon="-2.67087">
        <ele>55.2</ele>
        <time>2021-08-08T09:44:17Z</time>
      </trkpt>
      <trkpt lat="48.00917" lon="-2.67091">
        <ele>55.2</ele>
        <time>2021-08-08T09:44:18Z</time>
      </trkpt>
      <trkpt lat="48.0092" lon="-2.67093">
        <ele>55.2</ele>
        <time>2021-08-08T09:44:19Z</time>
      </trkpt>
      <trkpt lat="48.00923" lon="-2.67093">
        <ele>55.2</ele>
        <time>2021-08-08T09:44:20Z</time>
      </trkpt>
      <trkpt lat="48.00927" lon="-2.67093">
        <ele>55.4</ele>
        <time>2021-08-08T09:44:21Z</time>
      </trkpt>
      <trkpt lat="48.00931" lon="-2.67094">
        <ele>55.4</ele>
        <time>2021-08-08T09:44:22Z</time>
      </trkpt>
      <trkpt lat="48.00935" lon="-2.67095">
        <ele>55.4</ele>
        <time>2021-08-08T09:44:23Z</time>
      </trkpt>
      <trkpt lat="48.00939" lon="-2.67098">
        <ele>55.4</ele>
        <time>2021-08-08T09:44:24Z</time>
      </trkpt>
      <trkpt lat="48.00943" lon="-2.67102">
        <ele>55.4</ele>
        <time>2021-08-08T09:44:25Z</time>
      </trkpt>
      <trkpt lat="48.00946" lon="-2.67108">
        <ele>55.4</ele>
        <time>2021-08-08T09:44:26Z</time>
      </trkpt>
      <trkpt lat="48.0095" lon="-2.67114">
        <ele>55.4</ele>
        <time>2021-08-08T09:44:27Z</time>
      </trkpt>
      <trkpt lat="48.00954" lon="-2.6712">
        <ele>55.4</ele>
        <time>2021-08-08T09:44:28Z</time>
      </trkpt>
      <trkpt lat="48.00958" lon="-2.67127">
        <ele>55.4</ele>
        <time>2021-08-08T09:44:29Z</time>
      </trkpt>
      <trkpt lat="48.00961" lon="-2.67134">
        <ele>55.4</ele>
        <time>2021-08-08T09:44:30Z</time>
      </trkpt>
      <trkpt lat="48.00965" lon="-2.67141">
        <ele>55.2</ele>
        <time>2021-08-08T09:44:31Z</time>
      </trkpt>
      <trkpt lat="48.00968" lon="-2.67147">
        <ele>55.2</ele>
        <time>2021-08-08T09:44:32Z</time>
      </trkpt>
      <trkpt lat="48.00971" lon="-2.67154">
        <ele>55</ele>
        <time>2021-08-08T09:44:33Z</time>
      </trkpt>
      <trkpt lat="48.00974" lon="-2.6716">
        <ele>55</ele>
        <time>2021-08-08T09:44:34Z</time>
      </trkpt>
      <trkpt lat="48.00977" lon="-2.67167">
        <ele>54.6</ele>
        <time>2021-08-08T09:44:35Z</time>
      </trkpt>
      <trkpt lat="48.0098" lon="-2.67173">
        <ele>54.6</ele>
        <time>2021-08-08T09:44:36Z</time>
      </trkpt>
      <trkpt lat="48.00984" lon="-2.6718">
        <ele>54.4</ele>
        <time>2021-08-08T09:44:37Z</time>
      </trkpt>
      <trkpt lat="48.00987" lon="-2.67186">
        <ele>54.4</ele>
        <time>2021-08-08T09:44:38Z</time>
      </trkpt>
      <trkpt lat="48.00991" lon="-2.67192">
        <ele>54.4</ele>
        <time>2021-08-08T09:44:39Z</time>
      </trkpt>
      <trkpt lat="48.00995" lon="-2.67198">
        <ele>54.2</ele>
        <time>2021-08-08T09:44:40Z</time>
      </trkpt>
      <trkpt lat="48.00999" lon="-2.67204">
        <ele>54.2</ele>
        <time>2021-08-08T09:44:41Z</time>
      </trkpt>
      <trkpt lat="48.01003" lon="-2.6721">
        <ele>54.2</ele>
        <time>2021-08-08T09:44:42Z</time>
      </trkpt>
      <trkpt lat="48.01008" lon="-2.67215">
        <ele>54.2</ele>
        <time>2021-08-08T09:44:43Z</time>
      </trkpt>
      <trkpt lat="48.01012" lon="-2.6722">
        <ele>54.2</ele>
        <time>2021-08-08T09:44:44Z</time>
      </trkpt>
      <trkpt lat="48.01017" lon="-2.67224">
        <ele>54.2</ele>
        <time>2021-08-08T09:44:45Z</time>
      </trkpt>
      <trkpt lat="48.01021" lon="-2.67229">
        <ele>54</ele>
        <time>2021-08-08T09:44:46Z</time>
      </trkpt>
      <trkpt lat="48.01026" lon="-2.67234">
        <ele>54</ele>
        <time>2021-08-08T09:44:47Z</time>
      </trkpt>
      <trkpt lat="48.0103" lon="-2.67239">
        <ele>54.2</ele>
        <time>2021-08-08T09:44:48Z</time>
      </trkpt>
      <trkpt lat="48.01034" lon="-2.67243">
        <ele>54.2</ele>
        <time>2021-08-08T09:44:49Z</time>
      </trkpt>
      <trkpt lat="48.01038" lon="-2.67248">
        <ele>54.2</ele>
        <time>2021-08-08T09:44:50Z</time>
      </trkpt>
      <trkpt lat="48.01042" lon="-2.67252">
        <ele>54.2</ele>
        <time>2021-08-08T09:44:51Z</time>
      </trkpt>
      <trkpt lat="48.01046" lon="-2.67256">
        <ele>54.2</ele>
        <time>2021-08-08T09:44:52Z</time>
      </trkpt>
      <trkpt lat="48.01049" lon="-2.6726">
        <ele>54.2</ele>
        <time>2021-08-08T09:44:53Z</time>
      </trkpt>
      <trkpt lat="48.01052" lon="-2.67264">
        <ele>54.2</ele>
        <time>2021-08-08T09:44:54Z</time>
      </trkpt>
      <trkpt lat="48.01055" lon="-2.67267">
        <ele>54.4</ele>
        <time>2021-08-08T09:44:55Z</time>
      </trkpt>
      <trkpt lat="48.01058" lon="-2.6727">
        <ele>54.4</ele>
        <time>2021-08-08T09:44:56Z</time>
      </trkpt>
      <trkpt lat="48.01061" lon="-2.6727">
        <ele>54.4</ele>
        <time>2021-08-08T09:44:57Z</time>
      </trkpt>
      <trkpt lat="48.01063" lon="-2.67269">
        <ele>54.6</ele>
        <time>2021-08-08T09:44:58Z</time>
      </trkpt>
      <trkpt lat="48.01065" lon="-2.67266">
        <ele>54.8</ele>
        <time>2021-08-08T09:44:59Z</time>
      </trkpt>
      <trkpt lat="48.01066" lon="-2.67263">
        <ele>55.2</ele>
        <time>2021-08-08T09:45:00Z</time>
      </trkpt>
      <trkpt lat="48.01067" lon="-2.67261">
        <ele>55.4</ele>
        <time>2021-08-08T09:45:01Z</time>
      </trkpt>
      <trkpt lat="48.01068" lon="-2.6726">
        <ele>55.8</ele>
        <time>2021-08-08T09:45:02Z</time>
      </trkpt>
      <trkpt lat="48.01068" lon="-2.67258">
        <ele>56.2</ele>
        <time>2021-08-08T09:45:03Z</time>
      </trkpt>
      <trkpt lat="48.01068" lon="-2.67255">
        <ele>56.4</ele>
        <time>2021-08-08T09:45:04Z</time>
      </trkpt>
      <trkpt lat="48.0107" lon="-2.67253">
        <ele>56.4</ele>
        <time>2021-08-08T09:45:05Z</time>
      </trkpt>
      <trkpt lat="48.01072" lon="-2.6725">
        <ele>56.6</ele>
        <time>2021-08-08T09:45:06Z</time>
      </trkpt>
      <trkpt lat="48.01075" lon="-2.67248">
        <ele>56.8</ele>
        <time>2021-08-08T09:45:07Z</time>
      </trkpt>
      <trkpt lat="48.01079" lon="-2.67248">
        <ele>57</ele>
        <time>2021-08-08T09:45:08Z</time>
      </trkpt>
      <trkpt lat="48.01083" lon="-2.67251">
        <ele>57</ele>
        <time>2021-08-08T09:45:09Z</time>
      </trkpt>
      <trkpt lat="48.01086" lon="-2.67255">
        <ele>57</ele>
        <time>2021-08-08T09:45:10Z</time>
      </trkpt>
      <trkpt lat="48.0109" lon="-2.67259">
        <ele>57</ele>
        <time>2021-08-08T09:45:11Z</time>
      </trkpt>
      <trkpt lat="48.01093" lon="-2.67263">
        <ele>57</ele>
        <time>2021-08-08T09:45:12Z</time>
      </trkpt>
      <trkpt lat="48.01097" lon="-2.67267">
        <ele>57</ele>
        <time>2021-08-08T09:45:13Z</time>
      </trkpt>
      <trkpt lat="48.01101" lon="-2.67271">
        <ele>57</ele>
        <time>2021-08-08T09:45:14Z</time>
      </trkpt>
      <trkpt lat="48.01104" lon="-2.67275">
        <ele>57</ele>
        <time>2021-08-08T09:45:15Z</time>
      </trkpt>
      <trkpt lat="48.01108" lon="-2.67279">
        <ele>56.6</ele>
        <time>2021-08-08T09:45:16Z</time>
      </trkpt>
      <trkpt lat="48.01111" lon="-2.67282">
        <ele>56.4</ele>
        <time>2021-08-08T09:45:17Z</time>
      </trkpt>
      <trkpt lat="48.01115" lon="-2.67286">
        <ele>56</ele>
        <time>2021-08-08T09:45:18Z</time>
      </trkpt>
      <trkpt lat="48.01119" lon="-2.6729">
        <ele>56</ele>
        <time>2021-08-08T09:45:19Z</time>
      </trkpt>
      <trkpt lat="48.01123" lon="-2.67293">
        <ele>55.8</ele>
        <time>2021-08-08T09:45:20Z</time>
      </trkpt>
      <trkpt lat="48.01127" lon="-2.67296">
        <ele>55.6</ele>
        <time>2021-08-08T09:45:21Z</time>
      </trkpt>
      <trkpt lat="48.01131" lon="-2.673">
        <ele>55.2</ele>
        <time>2021-08-08T09:45:22Z</time>
      </trkpt>
      <trkpt lat="48.01135" lon="-2.67304">
        <ele>55</ele>
        <time>2021-08-08T09:45:23Z</time>
      </trkpt>
      <trkpt lat="48.01139" lon="-2.67308">
        <ele>54.6</ele>
        <time>2021-08-08T09:45:24Z</time>
      </trkpt>
      <trkpt lat="48.01144" lon="-2.67312">
        <ele>54.4</ele>
        <time>2021-08-08T09:45:25Z</time>
      </trkpt>
      <trkpt lat="48.01148" lon="-2.67317">
        <ele>54.4</ele>
        <time>2021-08-08T09:45:26Z</time>
      </trkpt>
      <trkpt lat="48.01152" lon="-2.67321">
        <ele>54.4</ele>
        <time>2021-08-08T09:45:27Z</time>
      </trkpt>
      <trkpt lat="48.01156" lon="-2.67326">
        <ele>54.4</ele>
        <time>2021-08-08T09:45:28Z</time>
      </trkpt>
      <trkpt lat="48.01161" lon="-2.6733">
        <ele>54.2</ele>
        <time>2021-08-08T09:45:29Z</time>
      </trkpt>
      <trkpt lat="48.01165" lon="-2.67334">
        <ele>54.2</ele>
        <time>2021-08-08T09:45:30Z</time>
      </trkpt>
      <trkpt lat="48.0117" lon="-2.67339">
        <ele>54.2</ele>
        <time>2021-08-08T09:45:31Z</time>
      </trkpt>
      <trkpt lat="48.01174" lon="-2.67343">
        <ele>54.2</ele>
        <time>2021-08-08T09:45:32Z</time>
      </trkpt>
      <trkpt lat="48.01178" lon="-2.67347">
        <ele>54.2</ele>
        <time>2021-08-08T09:45:33Z</time>
      </trkpt>
      <trkpt lat="48.01183" lon="-2.67352">
        <ele>54.2</ele>
        <time>2021-08-08T09:45:34Z</time>
      </trkpt>
      <trkpt lat="48.01187" lon="-2.67356">
        <ele>54.2</ele>
        <time>2021-08-08T09:45:35Z</time>
      </trkpt>
      <trkpt lat="48.01191" lon="-2.67361">
        <ele>54.2</ele>
        <time>2021-08-08T09:45:36Z</time>
      </trkpt>
      <trkpt lat="48.01196" lon="-2.67365">
        <ele>54.2</ele>
        <time>2021-08-08T09:45:37Z</time>
      </trkpt>
      <trkpt lat="48.012" lon="-2.67369">
        <ele>54.2</ele>
        <time>2021-08-08T09:45:38Z</time>
      </trkpt>
      <trkpt lat="48.01204" lon="-2.67374">
        <ele>54.2</ele>
        <time>2021-08-08T09:45:39Z</time>
      </trkpt>
      <trkpt lat="48.01209" lon="-2.67378">
        <ele>54.2</ele>
        <time>2021-08-08T09:45:40Z</time>
      </trkpt>
      <trkpt lat="48.01213" lon="-2.67383">
        <ele>54.2</ele>
        <time>2021-08-08T09:45:41Z</time>
      </trkpt>
      <trkpt lat="48.01217" lon="-2.67388">
        <ele>54.4</ele>
        <time>2021-08-08T09:45:42Z</time>
      </trkpt>
      <trkpt lat="48.01221" lon="-2.67393">
        <ele>54.4</ele>
        <time>2021-08-08T09:45:43Z</time>
      </trkpt>
      <trkpt lat="48.01226" lon="-2.67398">
        <ele>54.6</ele>
        <time>2021-08-08T09:45:44Z</time>
      </trkpt>
      <trkpt lat="48.0123" lon="-2.67402">
        <ele>54.6</ele>
        <time>2021-08-08T09:45:45Z</time>
      </trkpt>
      <trkpt lat="48.01234" lon="-2.67406">
        <ele>54.8</ele>
        <time>2021-08-08T09:45:46Z</time>
      </trkpt>
      <trkpt lat="48.01238" lon="-2.6741">
        <ele>55</ele>
        <time>2021-08-08T09:45:47Z</time>
      </trkpt>
      <trkpt lat="48.01242" lon="-2.67413">
        <ele>55</ele>
        <time>2021-08-08T09:45:48Z</time>
      </trkpt>
      <trkpt lat="48.01246" lon="-2.67417">
        <ele>55.2</ele>
        <time>2021-08-08T09:45:49Z</time>
      </trkpt>
      <trkpt lat="48.01251" lon="-2.67421">
        <ele>55.4</ele>
        <time>2021-08-08T09:45:50Z</time>
      </trkpt>
      <trkpt lat="48.01255" lon="-2.67424">
        <ele>55.4</ele>
        <time>2021-08-08T09:45:51Z</time>
      </trkpt>
      <trkpt lat="48.01259" lon="-2.67428">
        <ele>55.6</ele>
        <time>2021-08-08T09:45:52Z</time>
      </trkpt>
      <trkpt lat="48.01264" lon="-2.67431">
        <ele>55.6</ele>
        <time>2021-08-08T09:45:53Z</time>
      </trkpt>
      <trkpt lat="48.01269" lon="-2.67434">
        <ele>55.6</ele>
        <time>2021-08-08T09:45:54Z</time>
      </trkpt>
      <trkpt lat="48.01273" lon="-2.67436">
        <ele>55.8</ele>
        <time>2021-08-08T09:45:55Z</time>
      </trkpt>
      <trkpt lat="48.01278" lon="-2.67439">
        <ele>56</ele>
        <time>2021-08-08T09:45:56Z</time>
      </trkpt>
      <trkpt lat="48.01282" lon="-2.67441">
        <ele>56</ele>
        <time>2021-08-08T09:45:57Z</time>
      </trkpt>
      <trkpt lat="48.01287" lon="-2.67443">
        <ele>56.2</ele>
        <time>2021-08-08T09:45:58Z</time>
      </trkpt>
      <trkpt lat="48.01292" lon="-2.67445">
        <ele>56.2</ele>
        <time>2021-08-08T09:45:59Z</time>
      </trkpt>
      <trkpt lat="48.01297" lon="-2.67446">
        <ele>56.2</ele>
        <time>2021-08-08T09:46:00Z</time>
      </trkpt>
      <trkpt lat="48.01302" lon="-2.67448">
        <ele>56.2</ele>
        <time>2021-08-08T09:46:01Z</time>
      </trkpt>
      <trkpt lat="48.01307" lon="-2.6745">
        <ele>56.2</ele>
        <time>2021-08-08T09:46:02Z</time>
      </trkpt>
      <trkpt lat="48.01312" lon="-2.67452">
        <ele>56.2</ele>
        <time>2021-08-08T09:46:03Z</time>
      </trkpt>
      <trkpt lat="48.01317" lon="-2.67454">
        <ele>56.2</ele>
        <time>2021-08-08T09:46:04Z</time>
      </trkpt>
      <trkpt lat="48.01322" lon="-2.67456">
        <ele>56.2</ele>
        <time>2021-08-08T09:46:05Z</time>
      </trkpt>
      <trkpt lat="48.01327" lon="-2.67457">
        <ele>56.2</ele>
        <time>2021-08-08T09:46:06Z</time>
      </trkpt>
      <trkpt lat="48.01332" lon="-2.67459">
        <ele>56.2</ele>
        <time>2021-08-08T09:46:07Z</time>
      </trkpt>
      <trkpt lat="48.01336" lon="-2.67461">
        <ele>56.2</ele>
        <time>2021-08-08T09:46:08Z</time>
      </trkpt>
      <trkpt lat="48.01341" lon="-2.67463">
        <ele>56.2</ele>
        <time>2021-08-08T09:46:09Z</time>
      </trkpt>
      <trkpt lat="48.01346" lon="-2.67465">
        <ele>56.2</ele>
        <time>2021-08-08T09:46:10Z</time>
      </trkpt>
      <trkpt lat="48.01351" lon="-2.67467">
        <ele>56.2</ele>
        <time>2021-08-08T09:46:11Z</time>
      </trkpt>
      <trkpt lat="48.01356" lon="-2.67469">
        <ele>56</ele>
        <time>2021-08-08T09:46:12Z</time>
      </trkpt>
      <trkpt lat="48.0136" lon="-2.67472">
        <ele>56</ele>
        <time>2021-08-08T09:46:13Z</time>
      </trkpt>
      <trkpt lat="48.01365" lon="-2.67475">
        <ele>56</ele>
        <time>2021-08-08T09:46:14Z</time>
      </trkpt>
      <trkpt lat="48.01369" lon="-2.67478">
        <ele>56</ele>
        <time>2021-08-08T09:46:15Z</time>
      </trkpt>
      <trkpt lat="48.01374" lon="-2.67482">
        <ele>56</ele>
        <time>2021-08-08T09:46:16Z</time>
      </trkpt>
      <trkpt lat="48.01378" lon="-2.67485">
        <ele>56</ele>
        <time>2021-08-08T09:46:17Z</time>
      </trkpt>
      <trkpt lat="48.01382" lon="-2.67489">
        <ele>56</ele>
        <time>2021-08-08T09:46:18Z</time>
      </trkpt>
      <trkpt lat="48.01386" lon="-2.67493">
        <ele>56</ele>
        <time>2021-08-08T09:46:19Z</time>
      </trkpt>
      <trkpt lat="48.01391" lon="-2.67496">
        <ele>55.8</ele>
        <time>2021-08-08T09:46:20Z</time>
      </trkpt>
      <trkpt lat="48.01395" lon="-2.675">
        <ele>55.8</ele>
        <time>2021-08-08T09:46:21Z</time>
      </trkpt>
      <trkpt lat="48.01399" lon="-2.67503">
        <ele>55.8</ele>
        <time>2021-08-08T09:46:22Z</time>
      </trkpt>
      <trkpt lat="48.01403" lon="-2.67507">
        <ele>55.6</ele>
        <time>2021-08-08T09:46:23Z</time>
      </trkpt>
      <trkpt lat="48.01407" lon="-2.6751">
        <ele>55.6</ele>
        <time>2021-08-08T09:46:24Z</time>
      </trkpt>
      <trkpt lat="48.01411" lon="-2.67513">
        <ele>55.6</ele>
        <time>2021-08-08T09:46:25Z</time>
      </trkpt>
      <trkpt lat="48.01415" lon="-2.67517">
        <ele>55.6</ele>
        <time>2021-08-08T09:46:26Z</time>
      </trkpt>
      <trkpt lat="48.0142" lon="-2.6752">
        <ele>55.4</ele>
        <time>2021-08-08T09:46:27Z</time>
      </trkpt>
      <trkpt lat="48.01424" lon="-2.67524">
        <ele>55.4</ele>
        <time>2021-08-08T09:46:28Z</time>
      </trkpt>
      <trkpt lat="48.01428" lon="-2.67527">
        <ele>55.4</ele>
        <time>2021-08-08T09:46:29Z</time>
      </trkpt>
      <trkpt lat="48.01433" lon="-2.67531">
        <ele>55.4</ele>
        <time>2021-08-08T09:46:30Z</time>
      </trkpt>
      <trkpt lat="48.01437" lon="-2.67534">
        <ele>55.4</ele>
        <time>2021-08-08T09:46:31Z</time>
      </trkpt>
      <trkpt lat="48.01441" lon="-2.67537">
        <ele>55.4</ele>
        <time>2021-08-08T09:46:32Z</time>
      </trkpt>
      <trkpt lat="48.01445" lon="-2.6754">
        <ele>55.4</ele>
        <time>2021-08-08T09:46:33Z</time>
      </trkpt>
      <trkpt lat="48.01449" lon="-2.67542">
        <ele>55.2</ele>
        <time>2021-08-08T09:46:34Z</time>
      </trkpt>
      <trkpt lat="48.01453" lon="-2.67545">
        <ele>55.2</ele>
        <time>2021-08-08T09:46:35Z</time>
      </trkpt>
      <trkpt lat="48.01457" lon="-2.67547">
        <ele>55.2</ele>
        <time>2021-08-08T09:46:36Z</time>
      </trkpt>
      <trkpt lat="48.01462" lon="-2.67549">
        <ele>55.2</ele>
        <time>2021-08-08T09:46:37Z</time>
      </trkpt>
      <trkpt lat="48.01466" lon="-2.67551">
        <ele>55.4</ele>
        <time>2021-08-08T09:46:38Z</time>
      </trkpt>
      <trkpt lat="48.0147" lon="-2.67553">
        <ele>55.4</ele>
        <time>2021-08-08T09:46:39Z</time>
      </trkpt>
      <trkpt lat="48.01475" lon="-2.67555">
        <ele>55.4</ele>
        <time>2021-08-08T09:46:40Z</time>
      </trkpt>
      <trkpt lat="48.01479" lon="-2.67558">
        <ele>55.4</ele>
        <time>2021-08-08T09:46:41Z</time>
      </trkpt>
      <trkpt lat="48.01484" lon="-2.67561">
        <ele>55.4</ele>
        <time>2021-08-08T09:46:42Z</time>
      </trkpt>
      <trkpt lat="48.01489" lon="-2.67563">
        <ele>55.4</ele>
        <time>2021-08-08T09:46:43Z</time>
      </trkpt>
      <trkpt lat="48.01495" lon="-2.67566">
        <ele>55.4</ele>
        <time>2021-08-08T09:46:44Z</time>
      </trkpt>
      <trkpt lat="48.015" lon="-2.67568">
        <ele>55.4</ele>
        <time>2021-08-08T09:46:45Z</time>
      </trkpt>
      <trkpt lat="48.01505" lon="-2.6757">
        <ele>55.4</ele>
        <time>2021-08-08T09:46:46Z</time>
      </trkpt>
      <trkpt lat="48.0151" lon="-2.67573">
        <ele>55.4</ele>
        <time>2021-08-08T09:46:47Z</time>
      </trkpt>
      <trkpt lat="48.01515" lon="-2.67575">
        <ele>55.2</ele>
        <time>2021-08-08T09:46:48Z</time>
      </trkpt>
      <trkpt lat="48.0152" lon="-2.67577">
        <ele>55.2</ele>
        <time>2021-08-08T09:46:49Z</time>
      </trkpt>
      <trkpt lat="48.01525" lon="-2.67579">
        <ele>55</ele>
        <time>2021-08-08T09:46:50Z</time>
      </trkpt>
      <trkpt lat="48.0153" lon="-2.67582">
        <ele>55</ele>
        <time>2021-08-08T09:46:51Z</time>
      </trkpt>
      <trkpt lat="48.01535" lon="-2.67584">
        <ele>55</ele>
        <time>2021-08-08T09:46:52Z</time>
      </trkpt>
      <trkpt lat="48.0154" lon="-2.67586">
        <ele>55</ele>
        <time>2021-08-08T09:46:53Z</time>
      </trkpt>
      <trkpt lat="48.01545" lon="-2.67588">
        <ele>55</ele>
        <time>2021-08-08T09:46:54Z</time>
      </trkpt>
      <trkpt lat="48.01551" lon="-2.67591">
        <ele>55</ele>
        <time>2021-08-08T09:46:55Z</time>
      </trkpt>
      <trkpt lat="48.01556" lon="-2.67593">
        <ele>55</ele>
        <time>2021-08-08T09:46:56Z</time>
      </trkpt>
      <trkpt lat="48.01561" lon="-2.67596">
        <ele>55</ele>
        <time>2021-08-08T09:46:57Z</time>
      </trkpt>
      <trkpt lat="48.01567" lon="-2.67598">
        <ele>55</ele>
        <time>2021-08-08T09:46:58Z</time>
      </trkpt>
      <trkpt lat="48.01572" lon="-2.67601">
        <ele>55</ele>
        <time>2021-08-08T09:46:59Z</time>
      </trkpt>
      <trkpt lat="48.01578" lon="-2.67603">
        <ele>55</ele>
        <time>2021-08-08T09:47:00Z</time>
      </trkpt>
      <trkpt lat="48.01583" lon="-2.67606">
        <ele>55</ele>
        <time>2021-08-08T09:47:01Z</time>
      </trkpt>
      <trkpt lat="48.01589" lon="-2.6761">
        <ele>55</ele>
        <time>2021-08-08T09:47:02Z</time>
      </trkpt>
      <trkpt lat="48.01594" lon="-2.67613">
        <ele>55</ele>
        <time>2021-08-08T09:47:03Z</time>
      </trkpt>
      <trkpt lat="48.01599" lon="-2.67616">
        <ele>55</ele>
        <time>2021-08-08T09:47:04Z</time>
      </trkpt>
      <trkpt lat="48.01605" lon="-2.67619">
        <ele>55</ele>
        <time>2021-08-08T09:47:05Z</time>
      </trkpt>
      <trkpt lat="48.0161" lon="-2.67623">
        <ele>55</ele>
        <time>2021-08-08T09:47:06Z</time>
      </trkpt>
      <trkpt lat="48.01615" lon="-2.67627">
        <ele>55.2</ele>
        <time>2021-08-08T09:47:07Z</time>
      </trkpt>
      <trkpt lat="48.01621" lon="-2.6763">
        <ele>55.2</ele>
        <time>2021-08-08T09:47:08Z</time>
      </trkpt>
      <trkpt lat="48.01626" lon="-2.67634">
        <ele>55.2</ele>
        <time>2021-08-08T09:47:09Z</time>
      </trkpt>
      <trkpt lat="48.01631" lon="-2.67638">
        <ele>55.2</ele>
        <time>2021-08-08T09:47:10Z</time>
      </trkpt>
      <trkpt lat="48.01636" lon="-2.67641">
        <ele>55.2</ele>
        <time>2021-08-08T09:47:11Z</time>
      </trkpt>
      <trkpt lat="48.01641" lon="-2.67645">
        <ele>55.2</ele>
        <time>2021-08-08T09:47:12Z</time>
      </trkpt>
      <trkpt lat="48.01646" lon="-2.67649">
        <ele>55.2</ele>
        <time>2021-08-08T09:47:13Z</time>
      </trkpt>
      <trkpt lat="48.01651" lon="-2.67653">
        <ele>55.2</ele>
        <time>2021-08-08T09:47:14Z</time>
      </trkpt>
      <trkpt lat="48.01657" lon="-2.67656">
        <ele>55.2</ele>
        <time>2021-08-08T09:47:15Z</time>
      </trkpt>
      <trkpt lat="48.01662" lon="-2.67659">
        <ele>55.2</ele>
        <time>2021-08-08T09:47:16Z</time>
      </trkpt>
      <trkpt lat="48.01667" lon="-2.67663">
        <ele>55.2</ele>
        <time>2021-08-08T09:47:17Z</time>
      </trkpt>
      <trkpt lat="48.01672" lon="-2.67666">
        <ele>55.2</ele>
        <time>2021-08-08T09:47:18Z</time>
      </trkpt>
      <trkpt lat="48.01677" lon="-2.6767">
        <ele>55.2</ele>
        <time>2021-08-08T09:47:19Z</time>
      </trkpt>
      <trkpt lat="48.01682" lon="-2.67674">
        <ele>55.2</ele>
        <time>2021-08-08T09:47:20Z</time>
      </trkpt>
      <trkpt lat="48.01687" lon="-2.67678">
        <ele>55.2</ele>
        <time>2021-08-08T09:47:21Z</time>
      </trkpt>
      <trkpt lat="48.01692" lon="-2.67682">
        <ele>55.2</ele>
        <time>2021-08-08T09:47:22Z</time>
      </trkpt>
      <trkpt lat="48.01697" lon="-2.67686">
        <ele>55.4</ele>
        <time>2021-08-08T09:47:23Z</time>
      </trkpt>
      <trkpt lat="48.01702" lon="-2.67691">
        <ele>55.4</ele>
        <time>2021-08-08T09:47:24Z</time>
      </trkpt>
      <trkpt lat="48.01706" lon="-2.67696">
        <ele>55.4</ele>
        <time>2021-08-08T09:47:25Z</time>
      </trkpt>
      <trkpt lat="48.01711" lon="-2.67701">
        <ele>55.4</ele>
        <time>2021-08-08T09:47:26Z</time>
      </trkpt>
      <trkpt lat="48.01715" lon="-2.67705">
        <ele>55.4</ele>
        <time>2021-08-08T09:47:27Z</time>
      </trkpt>
      <trkpt lat="48.0172" lon="-2.6771">
        <ele>55.4</ele>
        <time>2021-08-08T09:47:28Z</time>
      </trkpt>
      <trkpt lat="48.01725" lon="-2.67715">
        <ele>55.4</ele>
        <time>2021-08-08T09:47:29Z</time>
      </trkpt>
      <trkpt lat="48.01729" lon="-2.6772">
        <ele>55.4</ele>
        <time>2021-08-08T09:47:30Z</time>
      </trkpt>
      <trkpt lat="48.01734" lon="-2.67725">
        <ele>55.4</ele>
        <time>2021-08-08T09:47:31Z</time>
      </trkpt>
      <trkpt lat="48.01739" lon="-2.67729">
        <ele>55.4</ele>
        <time>2021-08-08T09:47:32Z</time>
      </trkpt>
      <trkpt lat="48.01743" lon="-2.67734">
        <ele>55.4</ele>
        <time>2021-08-08T09:47:33Z</time>
      </trkpt>
      <trkpt lat="48.01748" lon="-2.67739">
        <ele>55.4</ele>
        <time>2021-08-08T09:47:34Z</time>
      </trkpt>
      <trkpt lat="48.01752" lon="-2.67744">
        <ele>55.4</ele>
        <time>2021-08-08T09:47:35Z</time>
      </trkpt>
      <trkpt lat="48.01757" lon="-2.67748">
        <ele>55.4</ele>
        <time>2021-08-08T09:47:36Z</time>
      </trkpt>
      <trkpt lat="48.01761" lon="-2.67753">
        <ele>55.2</ele>
        <time>2021-08-08T09:47:37Z</time>
      </trkpt>
      <trkpt lat="48.01766" lon="-2.67758">
        <ele>55.2</ele>
        <time>2021-08-08T09:47:38Z</time>
      </trkpt>
      <trkpt lat="48.0177" lon="-2.67763">
        <ele>55.2</ele>
        <time>2021-08-08T09:47:39Z</time>
      </trkpt>
      <trkpt lat="48.01775" lon="-2.67767">
        <ele>55.2</ele>
        <time>2021-08-08T09:47:40Z</time>
      </trkpt>
      <trkpt lat="48.01779" lon="-2.67772">
        <ele>55.2</ele>
        <time>2021-08-08T09:47:41Z</time>
      </trkpt>
      <trkpt lat="48.01784" lon="-2.67777">
        <ele>55.2</ele>
        <time>2021-08-08T09:47:42Z</time>
      </trkpt>
      <trkpt lat="48.01788" lon="-2.67781">
        <ele>55.2</ele>
        <time>2021-08-08T09:47:43Z</time>
      </trkpt>
      <trkpt lat="48.01793" lon="-2.67786">
        <ele>55.2</ele>
        <time>2021-08-08T09:47:44Z</time>
      </trkpt>
      <trkpt lat="48.01797" lon="-2.67791">
        <ele>55.2</ele>
        <time>2021-08-08T09:47:45Z</time>
      </trkpt>
      <trkpt lat="48.01802" lon="-2.67796">
        <ele>55.2</ele>
        <time>2021-08-08T09:47:46Z</time>
      </trkpt>
      <trkpt lat="48.01806" lon="-2.67801">
        <ele>55.2</ele>
        <time>2021-08-08T09:47:47Z</time>
      </trkpt>
      <trkpt lat="48.01811" lon="-2.67805">
        <ele>55.2</ele>
        <time>2021-08-08T09:47:48Z</time>
      </trkpt>
      <trkpt lat="48.01815" lon="-2.6781">
        <ele>55.2</ele>
        <time>2021-08-08T09:47:49Z</time>
      </trkpt>
      <trkpt lat="48.01819" lon="-2.67814">
        <ele>55.2</ele>
        <time>2021-08-08T09:47:50Z</time>
      </trkpt>
      <trkpt lat="48.01824" lon="-2.67819">
        <ele>55.2</ele>
        <time>2021-08-08T09:47:51Z</time>
      </trkpt>
      <trkpt lat="48.01827" lon="-2.67822">
        <ele>55.2</ele>
        <time>2021-08-08T09:47:52Z</time>
      </trkpt>
      <trkpt lat="48.01831" lon="-2.67826">
        <ele>55.2</ele>
        <time>2021-08-08T09:47:53Z</time>
      </trkpt>
      <trkpt lat="48.01834" lon="-2.6783">
        <ele>55.2</ele>
        <time>2021-08-08T09:47:54Z</time>
      </trkpt>
      <trkpt lat="48.01838" lon="-2.67833">
        <ele>55.2</ele>
        <time>2021-08-08T09:47:55Z</time>
      </trkpt>
      <trkpt lat="48.01841" lon="-2.67836">
        <ele>55.2</ele>
        <time>2021-08-08T09:47:56Z</time>
      </trkpt>
      <trkpt lat="48.01845" lon="-2.67839">
        <ele>55.2</ele>
        <time>2021-08-08T09:47:57Z</time>
      </trkpt>
      <trkpt lat="48.01848" lon="-2.67842">
        <ele>55.2</ele>
        <time>2021-08-08T09:47:58Z</time>
      </trkpt>
      <trkpt lat="48.01852" lon="-2.67845">
        <ele>55.4</ele>
        <time>2021-08-08T09:47:59Z</time>
      </trkpt>
      <trkpt lat="48.01855" lon="-2.67849">
        <ele>55.6</ele>
        <time>2021-08-08T09:48:00Z</time>
      </trkpt>
      <trkpt lat="48.01859" lon="-2.67853">
        <ele>56</ele>
        <time>2021-08-08T09:48:01Z</time>
      </trkpt>
      <trkpt lat="48.01863" lon="-2.67857">
        <ele>56.6</ele>
        <time>2021-08-08T09:48:02Z</time>
      </trkpt>
      <trkpt lat="48.01866" lon="-2.67862">
        <ele>57</ele>
        <time>2021-08-08T09:48:03Z</time>
      </trkpt>
      <trkpt lat="48.0187" lon="-2.67866">
        <ele>57.2</ele>
        <time>2021-08-08T09:48:04Z</time>
      </trkpt>
      <trkpt lat="48.01874" lon="-2.6787">
        <ele>57.4</ele>
        <time>2021-08-08T09:48:05Z</time>
      </trkpt>
      <trkpt lat="48.01878" lon="-2.67874">
        <ele>57.4</ele>
        <time>2021-08-08T09:48:06Z</time>
      </trkpt>
      <trkpt lat="48.01882" lon="-2.67879">
        <ele>57.4</ele>
        <time>2021-08-08T09:48:07Z</time>
      </trkpt>
      <trkpt lat="48.01886" lon="-2.67883">
        <ele>57.6</ele>
        <time>2021-08-08T09:48:08Z</time>
      </trkpt>
      <trkpt lat="48.01889" lon="-2.67887">
        <ele>57.6</ele>
        <time>2021-08-08T09:48:09Z</time>
      </trkpt>
      <trkpt lat="48.01894" lon="-2.67891">
        <ele>57.6</ele>
        <time>2021-08-08T09:48:10Z</time>
      </trkpt>
      <trkpt lat="48.01898" lon="-2.67896">
        <ele>57.8</ele>
        <time>2021-08-08T09:48:11Z</time>
      </trkpt>
      <trkpt lat="48.01902" lon="-2.679">
        <ele>57.8</ele>
        <time>2021-08-08T09:48:12Z</time>
      </trkpt>
      <trkpt lat="48.01906" lon="-2.67904">
        <ele>57.8</ele>
        <time>2021-08-08T09:48:13Z</time>
      </trkpt>
      <trkpt lat="48.01911" lon="-2.67909">
        <ele>57.8</ele>
        <time>2021-08-08T09:48:14Z</time>
      </trkpt>
      <trkpt lat="48.01915" lon="-2.67913">
        <ele>57.8</ele>
        <time>2021-08-08T09:48:15Z</time>
      </trkpt>
      <trkpt lat="48.01919" lon="-2.67918">
        <ele>57.8</ele>
        <time>2021-08-08T09:48:16Z</time>
      </trkpt>
      <trkpt lat="48.01924" lon="-2.67922">
        <ele>57.8</ele>
        <time>2021-08-08T09:48:17Z</time>
      </trkpt>
      <trkpt lat="48.01928" lon="-2.67926">
        <ele>57.8</ele>
        <time>2021-08-08T09:48:18Z</time>
      </trkpt>
      <trkpt lat="48.01932" lon="-2.6793">
        <ele>57.8</ele>
        <time>2021-08-08T09:48:19Z</time>
      </trkpt>
      <trkpt lat="48.01936" lon="-2.67934">
        <ele>57.8</ele>
        <time>2021-08-08T09:48:20Z</time>
      </trkpt>
      <trkpt lat="48.01939" lon="-2.67938">
        <ele>57.8</ele>
        <time>2021-08-08T09:48:21Z</time>
      </trkpt>
      <trkpt lat="48.01943" lon="-2.67942">
        <ele>57.8</ele>
        <time>2021-08-08T09:48:22Z</time>
      </trkpt>
      <trkpt lat="48.01948" lon="-2.67946">
        <ele>57.8</ele>
        <time>2021-08-08T09:48:23Z</time>
      </trkpt>
      <trkpt lat="48.01952" lon="-2.6795">
        <ele>57.6</ele>
        <time>2021-08-08T09:48:24Z</time>
      </trkpt>
      <trkpt lat="48.01956" lon="-2.67955">
        <ele>57.4</ele>
        <time>2021-08-08T09:48:25Z</time>
      </trkpt>
      <trkpt lat="48.0196" lon="-2.67959">
        <ele>57.4</ele>
        <time>2021-08-08T09:48:26Z</time>
      </trkpt>
      <trkpt lat="48.01965" lon="-2.67964">
        <ele>57.2</ele>
        <time>2021-08-08T09:48:27Z</time>
      </trkpt>
      <trkpt lat="48.01969" lon="-2.67968">
        <ele>57.2</ele>
        <time>2021-08-08T09:48:28Z</time>
      </trkpt>
      <trkpt lat="48.01973" lon="-2.67973">
        <ele>57.2</ele>
        <time>2021-08-08T09:48:29Z</time>
      </trkpt>
      <trkpt lat="48.01977" lon="-2.67977">
        <ele>57.2</ele>
        <time>2021-08-08T09:48:30Z</time>
      </trkpt>
      <trkpt lat="48.01982" lon="-2.67982">
        <ele>57.2</ele>
        <time>2021-08-08T09:48:31Z</time>
      </trkpt>
      <trkpt lat="48.01986" lon="-2.67986">
        <ele>57.2</ele>
        <time>2021-08-08T09:48:32Z</time>
      </trkpt>
      <trkpt lat="48.0199" lon="-2.67991">
        <ele>57.2</ele>
        <time>2021-08-08T09:48:33Z</time>
      </trkpt>
      <trkpt lat="48.01994" lon="-2.67996">
        <ele>57</ele>
        <time>2021-08-08T09:48:34Z</time>
      </trkpt>
      <trkpt lat="48.01997" lon="-2.68">
        <ele>57.2</ele>
        <time>2021-08-08T09:48:35Z</time>
      </trkpt>
      <trkpt lat="48.02001" lon="-2.68004">
        <ele>57.2</ele>
        <time>2021-08-08T09:48:36Z</time>
      </trkpt>
      <trkpt lat="48.02004" lon="-2.68008">
        <ele>57.2</ele>
        <time>2021-08-08T09:48:37Z</time>
      </trkpt>
      <trkpt lat="48.02008" lon="-2.68013">
        <ele>57.2</ele>
        <time>2021-08-08T09:48:38Z</time>
      </trkpt>
      <trkpt lat="48.02012" lon="-2.68017">
        <ele>57.2</ele>
        <time>2021-08-08T09:48:39Z</time>
      </trkpt>
      <trkpt lat="48.02015" lon="-2.68022">
        <ele>57.2</ele>
        <time>2021-08-08T09:48:40Z</time>
      </trkpt>
      <trkpt lat="48.02019" lon="-2.68028">
        <ele>57.2</ele>
        <time>2021-08-08T09:48:41Z</time>
      </trkpt>
      <trkpt lat="48.02022" lon="-2.68033">
        <ele>57.2</ele>
        <time>2021-08-08T09:48:42Z</time>
      </trkpt>
      <trkpt lat="48.02025" lon="-2.68038">
        <ele>57.2</ele>
        <time>2021-08-08T09:48:43Z</time>
      </trkpt>
      <trkpt lat="48.02029" lon="-2.68043">
        <ele>57.2</ele>
        <time>2021-08-08T09:48:44Z</time>
      </trkpt>
      <trkpt lat="48.02032" lon="-2.68049">
        <ele>57.2</ele>
        <time>2021-08-08T09:48:45Z</time>
      </trkpt>
      <trkpt lat="48.02035" lon="-2.68055">
        <ele>57.2</ele>
        <time>2021-08-08T09:48:46Z</time>
      </trkpt>
      <trkpt lat="48.02038" lon="-2.6806">
        <ele>57.2</ele>
        <time>2021-08-08T09:48:47Z</time>
      </trkpt>
      <trkpt lat="48.02041" lon="-2.68066">
        <ele>57.2</ele>
        <time>2021-08-08T09:48:48Z</time>
      </trkpt>
      <trkpt lat="48.02044" lon="-2.68072">
        <ele>57</ele>
        <time>2021-08-08T09:48:49Z</time>
      </trkpt>
      <trkpt lat="48.02047" lon="-2.68079">
        <ele>56.8</ele>
        <time>2021-08-08T09:48:50Z</time>
      </trkpt>
      <trkpt lat="48.02049" lon="-2.68086">
        <ele>56.8</ele>
        <time>2021-08-08T09:48:51Z</time>
      </trkpt>
      <trkpt lat="48.02052" lon="-2.68093">
        <ele>56.8</ele>
        <time>2021-08-08T09:48:52Z</time>
      </trkpt>
      <trkpt lat="48.02055" lon="-2.68101">
        <ele>56.8</ele>
        <time>2021-08-08T09:48:53Z</time>
      </trkpt>
      <trkpt lat="48.02057" lon="-2.68108">
        <ele>56.8</ele>
        <time>2021-08-08T09:48:54Z</time>
      </trkpt>
      <trkpt lat="48.0206" lon="-2.68116">
        <ele>56.8</ele>
        <time>2021-08-08T09:48:55Z</time>
      </trkpt>
      <trkpt lat="48.02062" lon="-2.68123">
        <ele>56.6</ele>
        <time>2021-08-08T09:48:56Z</time>
      </trkpt>
      <trkpt lat="48.02065" lon="-2.68131">
        <ele>56.6</ele>
        <time>2021-08-08T09:48:57Z</time>
      </trkpt>
      <trkpt lat="48.02067" lon="-2.68138">
        <ele>56.6</ele>
        <time>2021-08-08T09:48:58Z</time>
      </trkpt>
      <trkpt lat="48.0207" lon="-2.68145">
        <ele>56.6</ele>
        <time>2021-08-08T09:48:59Z</time>
      </trkpt>
      <trkpt lat="48.02072" lon="-2.68153">
        <ele>56.6</ele>
        <time>2021-08-08T09:49:00Z</time>
      </trkpt>
      <trkpt lat="48.02075" lon="-2.6816">
        <ele>56.4</ele>
        <time>2021-08-08T09:49:01Z</time>
      </trkpt>
      <trkpt lat="48.02077" lon="-2.68168">
        <ele>56.4</ele>
        <time>2021-08-08T09:49:02Z</time>
      </trkpt>
      <trkpt lat="48.0208" lon="-2.68175">
        <ele>56.2</ele>
        <time>2021-08-08T09:49:03Z</time>
      </trkpt>
      <trkpt lat="48.02083" lon="-2.68182">
        <ele>56.2</ele>
        <time>2021-08-08T09:49:04Z</time>
      </trkpt>
      <trkpt lat="48.02085" lon="-2.6819">
        <ele>56.2</ele>
        <time>2021-08-08T09:49:05Z</time>
      </trkpt>
      <trkpt lat="48.02088" lon="-2.68197">
        <ele>56.2</ele>
        <time>2021-08-08T09:49:06Z</time>
      </trkpt>
      <trkpt lat="48.02091" lon="-2.68204">
        <ele>56.2</ele>
        <time>2021-08-08T09:49:07Z</time>
      </trkpt>
      <trkpt lat="48.02094" lon="-2.68211">
        <ele>56.2</ele>
        <time>2021-08-08T09:49:08Z</time>
      </trkpt>
      <trkpt lat="48.02097" lon="-2.68218">
        <ele>56.2</ele>
        <time>2021-08-08T09:49:09Z</time>
      </trkpt>
      <trkpt lat="48.021" lon="-2.68224">
        <ele>56.2</ele>
        <time>2021-08-08T09:49:10Z</time>
      </trkpt>
      <trkpt lat="48.02104" lon="-2.6823">
        <ele>56.2</ele>
        <time>2021-08-08T09:49:11Z</time>
      </trkpt>
      <trkpt lat="48.02107" lon="-2.68237">
        <ele>56.2</ele>
        <time>2021-08-08T09:49:12Z</time>
      </trkpt>
      <trkpt lat="48.02111" lon="-2.68243">
        <ele>56.2</ele>
        <time>2021-08-08T09:49:13Z</time>
      </trkpt>
      <trkpt lat="48.02114" lon="-2.68249">
        <ele>56.2</ele>
        <time>2021-08-08T09:49:14Z</time>
      </trkpt>
      <trkpt lat="48.02118" lon="-2.68255">
        <ele>56.2</ele>
        <time>2021-08-08T09:49:15Z</time>
      </trkpt>
      <trkpt lat="48.02122" lon="-2.68262">
        <ele>56.2</ele>
        <time>2021-08-08T09:49:16Z</time>
      </trkpt>
      <trkpt lat="48.02126" lon="-2.68268">
        <ele>56.2</ele>
        <time>2021-08-08T09:49:17Z</time>
      </trkpt>
      <trkpt lat="48.0213" lon="-2.68274">
        <ele>56.2</ele>
        <time>2021-08-08T09:49:18Z</time>
      </trkpt>
      <trkpt lat="48.02133" lon="-2.6828">
        <ele>56.2</ele>
        <time>2021-08-08T09:49:19Z</time>
      </trkpt>
      <trkpt lat="48.02137" lon="-2.68285">
        <ele>56.2</ele>
        <time>2021-08-08T09:49:20Z</time>
      </trkpt>
      <trkpt lat="48.02141" lon="-2.68291">
        <ele>56.2</ele>
        <time>2021-08-08T09:49:21Z</time>
      </trkpt>
      <trkpt lat="48.02145" lon="-2.68297">
        <ele>56.4</ele>
        <time>2021-08-08T09:49:22Z</time>
      </trkpt>
      <trkpt lat="48.0215" lon="-2.68303">
        <ele>56.6</ele>
        <time>2021-08-08T09:49:23Z</time>
      </trkpt>
      <trkpt lat="48.02154" lon="-2.68309">
        <ele>56.6</ele>
        <time>2021-08-08T09:49:24Z</time>
      </trkpt>
      <trkpt lat="48.02158" lon="-2.68315">
        <ele>56.6</ele>
        <time>2021-08-08T09:49:25Z</time>
      </trkpt>
      <trkpt lat="48.02161" lon="-2.68321">
        <ele>56.6</ele>
        <time>2021-08-08T09:49:26Z</time>
      </trkpt>
      <trkpt lat="48.02165" lon="-2.68328">
        <ele>56.6</ele>
        <time>2021-08-08T09:49:27Z</time>
      </trkpt>
      <trkpt lat="48.02169" lon="-2.68334">
        <ele>56.6</ele>
        <time>2021-08-08T09:49:28Z</time>
      </trkpt>
      <trkpt lat="48.02173" lon="-2.6834">
        <ele>56.6</ele>
        <time>2021-08-08T09:49:29Z</time>
      </trkpt>
      <trkpt lat="48.02177" lon="-2.68346">
        <ele>56.6</ele>
        <time>2021-08-08T09:49:30Z</time>
      </trkpt>
      <trkpt lat="48.02181" lon="-2.68352">
        <ele>56.8</ele>
        <time>2021-08-08T09:49:31Z</time>
      </trkpt>
      <trkpt lat="48.02185" lon="-2.68358">
        <ele>56.8</ele>
        <time>2021-08-08T09:49:32Z</time>
      </trkpt>
      <trkpt lat="48.02188" lon="-2.68364">
        <ele>56.8</ele>
        <time>2021-08-08T09:49:33Z</time>
      </trkpt>
      <trkpt lat="48.02192" lon="-2.6837">
        <ele>56.8</ele>
        <time>2021-08-08T09:49:34Z</time>
      </trkpt>
      <trkpt lat="48.02195" lon="-2.68376">
        <ele>56.8</ele>
        <time>2021-08-08T09:49:35Z</time>
      </trkpt>
      <trkpt lat="48.02197" lon="-2.68383">
        <ele>56.8</ele>
        <time>2021-08-08T09:49:36Z</time>
      </trkpt>
      <trkpt lat="48.022" lon="-2.6839">
        <ele>56.8</ele>
        <time>2021-08-08T09:49:37Z</time>
      </trkpt>
      <trkpt lat="48.02202" lon="-2.68397">
        <ele>56.8</ele>
        <time>2021-08-08T09:49:38Z</time>
      </trkpt>
      <trkpt lat="48.02204" lon="-2.68404">
        <ele>56.8</ele>
        <time>2021-08-08T09:49:39Z</time>
      </trkpt>
      <trkpt lat="48.02207" lon="-2.68411">
        <ele>56.6</ele>
        <time>2021-08-08T09:49:40Z</time>
      </trkpt>
      <trkpt lat="48.02208" lon="-2.68419">
        <ele>56.6</ele>
        <time>2021-08-08T09:49:41Z</time>
      </trkpt>
      <trkpt lat="48.0221" lon="-2.68427">
        <ele>56.4</ele>
        <time>2021-08-08T09:49:42Z</time>
      </trkpt>
      <trkpt lat="48.02212" lon="-2.68435">
        <ele>56.4</ele>
        <time>2021-08-08T09:49:43Z</time>
      </trkpt>
      <trkpt lat="48.02213" lon="-2.68443">
        <ele>56.4</ele>
        <time>2021-08-08T09:49:44Z</time>
      </trkpt>
      <trkpt lat="48.02215" lon="-2.6845">
        <ele>56.4</ele>
        <time>2021-08-08T09:49:45Z</time>
      </trkpt>
      <trkpt lat="48.02217" lon="-2.68458">
        <ele>56.4</ele>
        <time>2021-08-08T09:49:46Z</time>
      </trkpt>
      <trkpt lat="48.02218" lon="-2.68466">
        <ele>56.4</ele>
        <time>2021-08-08T09:49:47Z</time>
      </trkpt>
      <trkpt lat="48.0222" lon="-2.68474">
        <ele>56.4</ele>
        <time>2021-08-08T09:49:48Z</time>
      </trkpt>
      <trkpt lat="48.02221" lon="-2.68482">
        <ele>56.2</ele>
        <time>2021-08-08T09:49:49Z</time>
      </trkpt>
      <trkpt lat="48.02223" lon="-2.6849">
        <ele>56</ele>
        <time>2021-08-08T09:49:50Z</time>
      </trkpt>
      <trkpt lat="48.02225" lon="-2.68497">
        <ele>56</ele>
        <time>2021-08-08T09:49:51Z</time>
      </trkpt>
      <trkpt lat="48.02226" lon="-2.68505">
        <ele>55.6</ele>
        <time>2021-08-08T09:49:52Z</time>
      </trkpt>
      <trkpt lat="48.02228" lon="-2.68513">
        <ele>55.6</ele>
        <time>2021-08-08T09:49:53Z</time>
      </trkpt>
      <trkpt lat="48.02229" lon="-2.68521">
        <ele>55.6</ele>
        <time>2021-08-08T09:49:54Z</time>
      </trkpt>
      <trkpt lat="48.0223" lon="-2.68529">
        <ele>55.6</ele>
        <time>2021-08-08T09:49:55Z</time>
      </trkpt>
      <trkpt lat="48.0223" lon="-2.68537">
        <ele>55.6</ele>
        <time>2021-08-08T09:49:56Z</time>
      </trkpt>
      <trkpt lat="48.0223" lon="-2.68545">
        <ele>55.6</ele>
        <time>2021-08-08T09:49:57Z</time>
      </trkpt>
      <trkpt lat="48.0223" lon="-2.68553">
        <ele>55.8</ele>
        <time>2021-08-08T09:49:58Z</time>
      </trkpt>
      <trkpt lat="48.0223" lon="-2.68561">
        <ele>55.8</ele>
        <time>2021-08-08T09:49:59Z</time>
      </trkpt>
      <trkpt lat="48.02229" lon="-2.68569">
        <ele>55.8</ele>
        <time>2021-08-08T09:50:00Z</time>
      </trkpt>
      <trkpt lat="48.02228" lon="-2.68577">
        <ele>55.8</ele>
        <time>2021-08-08T09:50:01Z</time>
      </trkpt>
      <trkpt lat="48.02227" lon="-2.68585">
        <ele>56</ele>
        <time>2021-08-08T09:50:02Z</time>
      </trkpt>
      <trkpt lat="48.02226" lon="-2.68593">
        <ele>56.2</ele>
        <time>2021-08-08T09:50:03Z</time>
      </trkpt>
      <trkpt lat="48.02224" lon="-2.68601">
        <ele>56.2</ele>
        <time>2021-08-08T09:50:04Z</time>
      </trkpt>
      <trkpt lat="48.02223" lon="-2.68609">
        <ele>56.2</ele>
        <time>2021-08-08T09:50:05Z</time>
      </trkpt>
      <trkpt lat="48.02222" lon="-2.68617">
        <ele>56.2</ele>
        <time>2021-08-08T09:50:06Z</time>
      </trkpt>
      <trkpt lat="48.0222" lon="-2.68624">
        <ele>56.2</ele>
        <time>2021-08-08T09:50:07Z</time>
      </trkpt>
      <trkpt lat="48.02219" lon="-2.68632">
        <ele>56.2</ele>
        <time>2021-08-08T09:50:08Z</time>
      </trkpt>
      <trkpt lat="48.02218" lon="-2.68639">
        <ele>56.2</ele>
        <time>2021-08-08T09:50:09Z</time>
      </trkpt>
      <trkpt lat="48.02217" lon="-2.68647">
        <ele>56.4</ele>
        <time>2021-08-08T09:50:10Z</time>
      </trkpt>
      <trkpt lat="48.02216" lon="-2.68654">
        <ele>56.4</ele>
        <time>2021-08-08T09:50:11Z</time>
      </trkpt>
      <trkpt lat="48.02215" lon="-2.68662">
        <ele>56.4</ele>
        <time>2021-08-08T09:50:12Z</time>
      </trkpt>
      <trkpt lat="48.02213" lon="-2.6867">
        <ele>56.4</ele>
        <time>2021-08-08T09:50:13Z</time>
      </trkpt>
      <trkpt lat="48.02212" lon="-2.68677">
        <ele>56.4</ele>
        <time>2021-08-08T09:50:14Z</time>
      </trkpt>
      <trkpt lat="48.02211" lon="-2.68684">
        <ele>56.4</ele>
        <time>2021-08-08T09:50:15Z</time>
      </trkpt>
      <trkpt lat="48.0221" lon="-2.68691">
        <ele>56.4</ele>
        <time>2021-08-08T09:50:16Z</time>
      </trkpt>
      <trkpt lat="48.0221" lon="-2.68697">
        <ele>56.4</ele>
        <time>2021-08-08T09:50:17Z</time>
      </trkpt>
      <trkpt lat="48.0221" lon="-2.68703">
        <ele>56.4</ele>
        <time>2021-08-08T09:50:18Z</time>
      </trkpt>
      <trkpt lat="48.0221" lon="-2.68709">
        <ele>56.4</ele>
        <time>2021-08-08T09:50:19Z</time>
      </trkpt>
      <trkpt lat="48.02209" lon="-2.68714">
        <ele>56.4</ele>
        <time>2021-08-08T09:50:20Z</time>
      </trkpt>
      <trkpt lat="48.02208" lon="-2.68718">
        <ele>56.4</ele>
        <time>2021-08-08T09:50:21Z</time>
      </trkpt>
      <trkpt lat="48.02207" lon="-2.68723">
        <ele>56.6</ele>
        <time>2021-08-08T09:50:22Z</time>
      </trkpt>
      <trkpt lat="48.02206" lon="-2.68729">
        <ele>56.6</ele>
        <time>2021-08-08T09:50:23Z</time>
      </trkpt>
      <trkpt lat="48.02206" lon="-2.68734">
        <ele>56.8</ele>
        <time>2021-08-08T09:50:24Z</time>
      </trkpt>
      <trkpt lat="48.02206" lon="-2.68739">
        <ele>56.8</ele>
        <time>2021-08-08T09:50:25Z</time>
      </trkpt>
      <trkpt lat="48.02206" lon="-2.68744">
        <ele>56.8</ele>
        <time>2021-08-08T09:50:26Z</time>
      </trkpt>
      <trkpt lat="48.02206" lon="-2.68749">
        <ele>57</ele>
        <time>2021-08-08T09:50:27Z</time>
      </trkpt>
      <trkpt lat="48.02206" lon="-2.68754">
        <ele>57.2</ele>
        <time>2021-08-08T09:50:28Z</time>
      </trkpt>
      <trkpt lat="48.02206" lon="-2.68759">
        <ele>57.4</ele>
        <time>2021-08-08T09:50:29Z</time>
      </trkpt>
      <trkpt lat="48.02207" lon="-2.68764">
        <ele>57.6</ele>
        <time>2021-08-08T09:50:30Z</time>
      </trkpt>
      <trkpt lat="48.02208" lon="-2.68768">
        <ele>57.8</ele>
        <time>2021-08-08T09:50:31Z</time>
      </trkpt>
      <trkpt lat="48.02209" lon="-2.68772">
        <ele>57.8</ele>
        <time>2021-08-08T09:50:32Z</time>
      </trkpt>
      <trkpt lat="48.02209" lon="-2.68776">
        <ele>58</ele>
        <time>2021-08-08T09:50:33Z</time>
      </trkpt>
      <trkpt lat="48.02209" lon="-2.6878">
        <ele>58</ele>
        <time>2021-08-08T09:50:34Z</time>
      </trkpt>
      <trkpt lat="48.02211" lon="-2.68783">
        <ele>58.2</ele>
        <time>2021-08-08T09:50:35Z</time>
      </trkpt>
      <trkpt lat="48.02212" lon="-2.68785">
        <ele>58.4</ele>
        <time>2021-08-08T09:50:36Z</time>
      </trkpt>
      <trkpt lat="48.02212" lon="-2.68788">
        <ele>58.4</ele>
        <time>2021-08-08T09:50:37Z</time>
      </trkpt>
      <trkpt lat="48.02212" lon="-2.68791">
        <ele>58.6</ele>
        <time>2021-08-08T09:50:38Z</time>
      </trkpt>
      <trkpt lat="48.02211" lon="-2.68793">
        <ele>58.8</ele>
        <time>2021-08-08T09:50:39Z</time>
      </trkpt>
      <trkpt lat="48.02211" lon="-2.68795">
        <ele>59</ele>
        <time>2021-08-08T09:50:40Z</time>
      </trkpt>
      <trkpt lat="48.0221" lon="-2.68795">
        <ele>59</ele>
        <time>2021-08-08T09:50:41Z</time>
      </trkpt>
      <trkpt lat="48.0221" lon="-2.68796">
        <ele>60.6</ele>
        <time>2021-08-08T09:50:52Z</time>
      </trkpt>
      <trkpt lat="48.02211" lon="-2.68797">
        <ele>60.6</ele>
        <time>2021-08-08T09:50:53Z</time>
      </trkpt>
      <trkpt lat="48.02211" lon="-2.68799">
        <ele>60.8</ele>
        <time>2021-08-08T09:50:54Z</time>
      </trkpt>
      <trkpt lat="48.02212" lon="-2.68801">
        <ele>60.8</ele>
        <time>2021-08-08T09:50:59Z</time>
      </trkpt>
      <trkpt lat="48.02212" lon="-2.68801">
        <ele>60.8</ele>
        <time>2021-08-08T09:51:00Z</time>
      </trkpt>
      <trkpt lat="48.02212" lon="-2.68801">
        <ele>60.8</ele>
        <time>2021-08-08T09:51:01Z</time>
      </trkpt>
      <trkpt lat="48.02222" lon="-2.68838">
        <ele>60.6</ele>
        <time>2021-08-08T10:05:03Z</time>
      </trkpt>
      <trkpt lat="48.02222" lon="-2.68842">
        <ele>60.6</ele>
        <time>2021-08-08T10:05:04Z</time>
      </trkpt>
      <trkpt lat="48.02222" lon="-2.68846">
        <ele>60.6</ele>
        <time>2021-08-08T10:05:05Z</time>
      </trkpt>
      <trkpt lat="48.02223" lon="-2.6885">
        <ele>60.6</ele>
        <time>2021-08-08T10:05:06Z</time>
      </trkpt>
      <trkpt lat="48.02223" lon="-2.68855">
        <ele>60.6</ele>
        <time>2021-08-08T10:05:07Z</time>
      </trkpt>
      <trkpt lat="48.02224" lon="-2.68859">
        <ele>60.4</ele>
        <time>2021-08-08T10:05:08Z</time>
      </trkpt>
      <trkpt lat="48.02225" lon="-2.68864">
        <ele>60.4</ele>
        <time>2021-08-08T10:05:09Z</time>
      </trkpt>
      <trkpt lat="48.02226" lon="-2.68869">
        <ele>60.2</ele>
        <time>2021-08-08T10:05:10Z</time>
      </trkpt>
      <trkpt lat="48.02227" lon="-2.68874">
        <ele>60</ele>
        <time>2021-08-08T10:05:11Z</time>
      </trkpt>
      <trkpt lat="48.02228" lon="-2.68879">
        <ele>59.8</ele>
        <time>2021-08-08T10:05:12Z</time>
      </trkpt>
      <trkpt lat="48.02229" lon="-2.68885">
        <ele>59.8</ele>
        <time>2021-08-08T10:05:13Z</time>
      </trkpt>
      <trkpt lat="48.0223" lon="-2.6889">
        <ele>59.8</ele>
        <time>2021-08-08T10:05:14Z</time>
      </trkpt>
      <trkpt lat="48.02231" lon="-2.68896">
        <ele>59.8</ele>
        <time>2021-08-08T10:05:15Z</time>
      </trkpt>
      <trkpt lat="48.02232" lon="-2.68901">
        <ele>59.6</ele>
        <time>2021-08-08T10:05:16Z</time>
      </trkpt>
      <trkpt lat="48.02233" lon="-2.68907">
        <ele>59.6</ele>
        <time>2021-08-08T10:05:17Z</time>
      </trkpt>
      <trkpt lat="48.02234" lon="-2.68913">
        <ele>59.6</ele>
        <time>2021-08-08T10:05:18Z</time>
      </trkpt>
      <trkpt lat="48.02235" lon="-2.68919">
        <ele>59.6</ele>
        <time>2021-08-08T10:05:19Z</time>
      </trkpt>
      <trkpt lat="48.02236" lon="-2.68925">
        <ele>59.6</ele>
        <time>2021-08-08T10:05:20Z</time>
      </trkpt>
      <trkpt lat="48.02237" lon="-2.68932">
        <ele>59.6</ele>
        <time>2021-08-08T10:05:21Z</time>
      </trkpt>
      <trkpt lat="48.02238" lon="-2.68938">
        <ele>59.8</ele>
        <time>2021-08-08T10:05:22Z</time>
      </trkpt>
      <trkpt lat="48.02239" lon="-2.68943">
        <ele>59.8</ele>
        <time>2021-08-08T10:05:23Z</time>
      </trkpt>
      <trkpt lat="48.0224" lon="-2.68949">
        <ele>59.8</ele>
        <time>2021-08-08T10:05:24Z</time>
      </trkpt>
      <trkpt lat="48.0224" lon="-2.68955">
        <ele>59.8</ele>
        <time>2021-08-08T10:05:25Z</time>
      </trkpt>
      <trkpt lat="48.02241" lon="-2.6896">
        <ele>59.8</ele>
        <time>2021-08-08T10:05:26Z</time>
      </trkpt>
      <trkpt lat="48.02242" lon="-2.68966">
        <ele>59.8</ele>
        <time>2021-08-08T10:05:27Z</time>
      </trkpt>
      <trkpt lat="48.02243" lon="-2.68972">
        <ele>60</ele>
        <time>2021-08-08T10:05:28Z</time>
      </trkpt>
      <trkpt lat="48.02244" lon="-2.68978">
        <ele>60</ele>
        <time>2021-08-08T10:05:29Z</time>
      </trkpt>
      <trkpt lat="48.02246" lon="-2.68985">
        <ele>60</ele>
        <time>2021-08-08T10:05:30Z</time>
      </trkpt>
      <trkpt lat="48.02247" lon="-2.68991">
        <ele>60</ele>
        <time>2021-08-08T10:05:31Z</time>
      </trkpt>
      <trkpt lat="48.02248" lon="-2.68998">
        <ele>60</ele>
        <time>2021-08-08T10:05:32Z</time>
      </trkpt>
      <trkpt lat="48.02249" lon="-2.69004">
        <ele>60</ele>
        <time>2021-08-08T10:05:33Z</time>
      </trkpt>
      <trkpt lat="48.0225" lon="-2.69011">
        <ele>60</ele>
        <time>2021-08-08T10:05:34Z</time>
      </trkpt>
      <trkpt lat="48.02251" lon="-2.69017">
        <ele>60</ele>
        <time>2021-08-08T10:05:35Z</time>
      </trkpt>
      <trkpt lat="48.02252" lon="-2.69023">
        <ele>60</ele>
        <time>2021-08-08T10:05:36Z</time>
      </trkpt>
      <trkpt lat="48.02253" lon="-2.6903">
        <ele>59.8</ele>
        <time>2021-08-08T10:05:37Z</time>
      </trkpt>
      <trkpt lat="48.02253" lon="-2.69036">
        <ele>59.8</ele>
        <time>2021-08-08T10:05:38Z</time>
      </trkpt>
      <trkpt lat="48.02254" lon="-2.69042">
        <ele>59.8</ele>
        <time>2021-08-08T10:05:39Z</time>
      </trkpt>
      <trkpt lat="48.02256" lon="-2.69049">
        <ele>59.8</ele>
        <time>2021-08-08T10:05:40Z</time>
      </trkpt>
      <trkpt lat="48.02257" lon="-2.69055">
        <ele>59.8</ele>
        <time>2021-08-08T10:05:41Z</time>
      </trkpt>
      <trkpt lat="48.02258" lon="-2.69062">
        <ele>59.8</ele>
        <time>2021-08-08T10:05:42Z</time>
      </trkpt>
      <trkpt lat="48.02258" lon="-2.69069">
        <ele>59.8</ele>
        <time>2021-08-08T10:05:43Z</time>
      </trkpt>
      <trkpt lat="48.02259" lon="-2.69076">
        <ele>59.8</ele>
        <time>2021-08-08T10:05:44Z</time>
      </trkpt>
      <trkpt lat="48.0226" lon="-2.69083">
        <ele>59.8</ele>
        <time>2021-08-08T10:05:45Z</time>
      </trkpt>
      <trkpt lat="48.0226" lon="-2.69089">
        <ele>59.8</ele>
        <time>2021-08-08T10:05:46Z</time>
      </trkpt>
      <trkpt lat="48.02262" lon="-2.69096">
        <ele>59.8</ele>
        <time>2021-08-08T10:05:47Z</time>
      </trkpt>
      <trkpt lat="48.02263" lon="-2.69102">
        <ele>59.8</ele>
        <time>2021-08-08T10:05:48Z</time>
      </trkpt>
      <trkpt lat="48.02264" lon="-2.69109">
        <ele>59.8</ele>
        <time>2021-08-08T10:05:49Z</time>
      </trkpt>
      <trkpt lat="48.02265" lon="-2.69116">
        <ele>60</ele>
        <time>2021-08-08T10:05:50Z</time>
      </trkpt>
      <trkpt lat="48.02267" lon="-2.69122">
        <ele>60</ele>
        <time>2021-08-08T10:05:51Z</time>
      </trkpt>
      <trkpt lat="48.02268" lon="-2.69129">
        <ele>60.2</ele>
        <time>2021-08-08T10:05:52Z</time>
      </trkpt>
      <trkpt lat="48.02269" lon="-2.69136">
        <ele>60.2</ele>
        <time>2021-08-08T10:05:53Z</time>
      </trkpt>
      <trkpt lat="48.02271" lon="-2.69142">
        <ele>60.2</ele>
        <time>2021-08-08T10:05:54Z</time>
      </trkpt>
      <trkpt lat="48.02272" lon="-2.69149">
        <ele>60.2</ele>
        <time>2021-08-08T10:05:55Z</time>
      </trkpt>
      <trkpt lat="48.02273" lon="-2.69155">
        <ele>60.2</ele>
        <time>2021-08-08T10:05:56Z</time>
      </trkpt>
      <trkpt lat="48.02274" lon="-2.69161">
        <ele>60.2</ele>
        <time>2021-08-08T10:05:57Z</time>
      </trkpt>
      <trkpt lat="48.02275" lon="-2.69168">
        <ele>60.2</ele>
        <time>2021-08-08T10:05:58Z</time>
      </trkpt>
      <trkpt lat="48.02276" lon="-2.69174">
        <ele>60.2</ele>
        <time>2021-08-08T10:05:59Z</time>
      </trkpt>
      <trkpt lat="48.02277" lon="-2.69181">
        <ele>60.2</ele>
        <time>2021-08-08T10:06:00Z</time>
      </trkpt>
      <trkpt lat="48.02278" lon="-2.69187">
        <ele>60.2</ele>
        <time>2021-08-08T10:06:01Z</time>
      </trkpt>
      <trkpt lat="48.0228" lon="-2.69194">
        <ele>60.2</ele>
        <time>2021-08-08T10:06:02Z</time>
      </trkpt>
      <trkpt lat="48.02281" lon="-2.692">
        <ele>60</ele>
        <time>2021-08-08T10:06:03Z</time>
      </trkpt>
      <trkpt lat="48.02282" lon="-2.69207">
        <ele>60.2</ele>
        <time>2021-08-08T10:06:04Z</time>
      </trkpt>
      <trkpt lat="48.02283" lon="-2.69213">
        <ele>60</ele>
        <time>2021-08-08T10:06:05Z</time>
      </trkpt>
      <trkpt lat="48.02285" lon="-2.6922">
        <ele>60</ele>
        <time>2021-08-08T10:06:06Z</time>
      </trkpt>
      <trkpt lat="48.02286" lon="-2.69227">
        <ele>60</ele>
        <time>2021-08-08T10:06:07Z</time>
      </trkpt>
      <trkpt lat="48.02287" lon="-2.69234">
        <ele>60</ele>
        <time>2021-08-08T10:06:08Z</time>
      </trkpt>
      <trkpt lat="48.02288" lon="-2.69242">
        <ele>60</ele>
        <time>2021-08-08T10:06:09Z</time>
      </trkpt>
      <trkpt lat="48.02289" lon="-2.69249">
        <ele>60</ele>
        <time>2021-08-08T10:06:10Z</time>
      </trkpt>
      <trkpt lat="48.0229" lon="-2.69256">
        <ele>59.8</ele>
        <time>2021-08-08T10:06:11Z</time>
      </trkpt>
      <trkpt lat="48.02291" lon="-2.69264">
        <ele>59.8</ele>
        <time>2021-08-08T10:06:12Z</time>
      </trkpt>
      <trkpt lat="48.02292" lon="-2.69271">
        <ele>59.8</ele>
        <time>2021-08-08T10:06:13Z</time>
      </trkpt>
      <trkpt lat="48.02294" lon="-2.69278">
        <ele>59.8</ele>
        <time>2021-08-08T10:06:14Z</time>
      </trkpt>
      <trkpt lat="48.02295" lon="-2.69285">
        <ele>59.8</ele>
        <time>2021-08-08T10:06:15Z</time>
      </trkpt>
      <trkpt lat="48.02296" lon="-2.69291">
        <ele>59.8</ele>
        <time>2021-08-08T10:06:16Z</time>
      </trkpt>
      <trkpt lat="48.02296" lon="-2.69298">
        <ele>59.6</ele>
        <time>2021-08-08T10:06:17Z</time>
      </trkpt>
      <trkpt lat="48.02297" lon="-2.69305">
        <ele>59.6</ele>
        <time>2021-08-08T10:06:18Z</time>
      </trkpt>
      <trkpt lat="48.02298" lon="-2.69312">
        <ele>59.6</ele>
        <time>2021-08-08T10:06:19Z</time>
      </trkpt>
      <trkpt lat="48.02299" lon="-2.69318">
        <ele>59.4</ele>
        <time>2021-08-08T10:06:20Z</time>
      </trkpt>
      <trkpt lat="48.023" lon="-2.69324">
        <ele>59.4</ele>
        <time>2021-08-08T10:06:21Z</time>
      </trkpt>
      <trkpt lat="48.023" lon="-2.69331">
        <ele>59.4</ele>
        <time>2021-08-08T10:06:22Z</time>
      </trkpt>
      <trkpt lat="48.02301" lon="-2.69337">
        <ele>59.2</ele>
        <time>2021-08-08T10:06:23Z</time>
      </trkpt>
      <trkpt lat="48.02302" lon="-2.69343">
        <ele>59.2</ele>
        <time>2021-08-08T10:06:24Z</time>
      </trkpt>
      <trkpt lat="48.02303" lon="-2.69349">
        <ele>59</ele>
        <time>2021-08-08T10:06:25Z</time>
      </trkpt>
      <trkpt lat="48.02304" lon="-2.69356">
        <ele>59</ele>
        <time>2021-08-08T10:06:26Z</time>
      </trkpt>
      <trkpt lat="48.02305" lon="-2.69362">
        <ele>59</ele>
        <time>2021-08-08T10:06:27Z</time>
      </trkpt>
      <trkpt lat="48.02306" lon="-2.69369">
        <ele>59</ele>
        <time>2021-08-08T10:06:28Z</time>
      </trkpt>
      <trkpt lat="48.02307" lon="-2.69376">
        <ele>59</ele>
        <time>2021-08-08T10:06:29Z</time>
      </trkpt>
      <trkpt lat="48.02308" lon="-2.69383">
        <ele>59</ele>
        <time>2021-08-08T10:06:30Z</time>
      </trkpt>
      <trkpt lat="48.02309" lon="-2.6939">
        <ele>59</ele>
        <time>2021-08-08T10:06:31Z</time>
      </trkpt>
      <trkpt lat="48.0231" lon="-2.69398">
        <ele>59</ele>
        <time>2021-08-08T10:06:32Z</time>
      </trkpt>
      <trkpt lat="48.02312" lon="-2.69405">
        <ele>58.8</ele>
        <time>2021-08-08T10:06:33Z</time>
      </trkpt>
      <trkpt lat="48.02313" lon="-2.69412">
        <ele>58.8</ele>
        <time>2021-08-08T10:06:34Z</time>
      </trkpt>
      <trkpt lat="48.02314" lon="-2.69419">
        <ele>58.8</ele>
        <time>2021-08-08T10:06:35Z</time>
      </trkpt>
      <trkpt lat="48.02315" lon="-2.69426">
        <ele>58.8</ele>
        <time>2021-08-08T10:06:36Z</time>
      </trkpt>
      <trkpt lat="48.02316" lon="-2.69433">
        <ele>58.8</ele>
        <time>2021-08-08T10:06:37Z</time>
      </trkpt>
      <trkpt lat="48.02317" lon="-2.6944">
        <ele>58.8</ele>
        <time>2021-08-08T10:06:38Z</time>
      </trkpt>
      <trkpt lat="48.02318" lon="-2.69446">
        <ele>58.6</ele>
        <time>2021-08-08T10:06:39Z</time>
      </trkpt>
      <trkpt lat="48.02319" lon="-2.69453">
        <ele>58.6</ele>
        <time>2021-08-08T10:06:40Z</time>
      </trkpt>
      <trkpt lat="48.0232" lon="-2.69459">
        <ele>58.6</ele>
        <time>2021-08-08T10:06:41Z</time>
      </trkpt>
      <trkpt lat="48.02321" lon="-2.69465">
        <ele>58.6</ele>
        <time>2021-08-08T10:06:42Z</time>
      </trkpt>
      <trkpt lat="48.02322" lon="-2.6947">
        <ele>58.6</ele>
        <time>2021-08-08T10:06:43Z</time>
      </trkpt>
      <trkpt lat="48.02324" lon="-2.69476">
        <ele>58.6</ele>
        <time>2021-08-08T10:06:44Z</time>
      </trkpt>
      <trkpt lat="48.02325" lon="-2.69482">
        <ele>58.6</ele>
        <time>2021-08-08T10:06:45Z</time>
      </trkpt>
      <trkpt lat="48.02326" lon="-2.69488">
        <ele>58.6</ele>
        <time>2021-08-08T10:06:46Z</time>
      </trkpt>
      <trkpt lat="48.02327" lon="-2.69494">
        <ele>58.6</ele>
        <time>2021-08-08T10:06:47Z</time>
      </trkpt>
      <trkpt lat="48.02328" lon="-2.69501">
        <ele>58.6</ele>
        <time>2021-08-08T10:06:48Z</time>
      </trkpt>
      <trkpt lat="48.02329" lon="-2.69507">
        <ele>58.8</ele>
        <time>2021-08-08T10:06:49Z</time>
      </trkpt>
      <trkpt lat="48.0233" lon="-2.69513">
        <ele>58.8</ele>
        <time>2021-08-08T10:06:50Z</time>
      </trkpt>
      <trkpt lat="48.02331" lon="-2.6952">
        <ele>59</ele>
        <time>2021-08-08T10:06:51Z</time>
      </trkpt>
      <trkpt lat="48.02332" lon="-2.69526">
        <ele>59</ele>
        <time>2021-08-08T10:06:52Z</time>
      </trkpt>
      <trkpt lat="48.02334" lon="-2.69533">
        <ele>59.2</ele>
        <time>2021-08-08T10:06:53Z</time>
      </trkpt>
      <trkpt lat="48.02335" lon="-2.6954">
        <ele>59.2</ele>
        <time>2021-08-08T10:06:54Z</time>
      </trkpt>
      <trkpt lat="48.02336" lon="-2.69547">
        <ele>59.2</ele>
        <time>2021-08-08T10:06:55Z</time>
      </trkpt>
      <trkpt lat="48.02337" lon="-2.69554">
        <ele>59.2</ele>
        <time>2021-08-08T10:06:56Z</time>
      </trkpt>
      <trkpt lat="48.02338" lon="-2.69561">
        <ele>59.4</ele>
        <time>2021-08-08T10:06:57Z</time>
      </trkpt>
      <trkpt lat="48.02339" lon="-2.69569">
        <ele>59.4</ele>
        <time>2021-08-08T10:06:58Z</time>
      </trkpt>
      <trkpt lat="48.0234" lon="-2.69576">
        <ele>59.4</ele>
        <time>2021-08-08T10:06:59Z</time>
      </trkpt>
      <trkpt lat="48.02342" lon="-2.69583">
        <ele>59.4</ele>
        <time>2021-08-08T10:07:00Z</time>
      </trkpt>
      <trkpt lat="48.02343" lon="-2.6959">
        <ele>59.4</ele>
        <time>2021-08-08T10:07:01Z</time>
      </trkpt>
      <trkpt lat="48.02344" lon="-2.69597">
        <ele>59.4</ele>
        <time>2021-08-08T10:07:02Z</time>
      </trkpt>
      <trkpt lat="48.02345" lon="-2.69604">
        <ele>59.4</ele>
        <time>2021-08-08T10:07:03Z</time>
      </trkpt>
      <trkpt lat="48.02346" lon="-2.69611">
        <ele>59.4</ele>
        <time>2021-08-08T10:07:04Z</time>
      </trkpt>
      <trkpt lat="48.02347" lon="-2.69617">
        <ele>59.4</ele>
        <time>2021-08-08T10:07:05Z</time>
      </trkpt>
      <trkpt lat="48.02348" lon="-2.69624">
        <ele>59.4</ele>
        <time>2021-08-08T10:07:06Z</time>
      </trkpt>
      <trkpt lat="48.02349" lon="-2.6963">
        <ele>59.4</ele>
        <time>2021-08-08T10:07:07Z</time>
      </trkpt>
      <trkpt lat="48.0235" lon="-2.69637">
        <ele>59.4</ele>
        <time>2021-08-08T10:07:08Z</time>
      </trkpt>
      <trkpt lat="48.02351" lon="-2.69644">
        <ele>59.4</ele>
        <time>2021-08-08T10:07:09Z</time>
      </trkpt>
      <trkpt lat="48.02353" lon="-2.6965">
        <ele>59.2</ele>
        <time>2021-08-08T10:07:10Z</time>
      </trkpt>
      <trkpt lat="48.02354" lon="-2.69657">
        <ele>59.2</ele>
        <time>2021-08-08T10:07:11Z</time>
      </trkpt>
      <trkpt lat="48.02355" lon="-2.69664">
        <ele>59.2</ele>
        <time>2021-08-08T10:07:12Z</time>
      </trkpt>
      <trkpt lat="48.02357" lon="-2.6967">
        <ele>59.2</ele>
        <time>2021-08-08T10:07:13Z</time>
      </trkpt>
      <trkpt lat="48.02358" lon="-2.69676">
        <ele>59.2</ele>
        <time>2021-08-08T10:07:14Z</time>
      </trkpt>
      <trkpt lat="48.02359" lon="-2.69682">
        <ele>59.2</ele>
        <time>2021-08-08T10:07:15Z</time>
      </trkpt>
      <trkpt lat="48.02361" lon="-2.69688">
        <ele>59.2</ele>
        <time>2021-08-08T10:07:16Z</time>
      </trkpt>
      <trkpt lat="48.02362" lon="-2.69694">
        <ele>59.4</ele>
        <time>2021-08-08T10:07:17Z</time>
      </trkpt>
      <trkpt lat="48.02364" lon="-2.697">
        <ele>59.4</ele>
        <time>2021-08-08T10:07:18Z</time>
      </trkpt>
      <trkpt lat="48.02366" lon="-2.69706">
        <ele>59.4</ele>
        <time>2021-08-08T10:07:19Z</time>
      </trkpt>
      <trkpt lat="48.02368" lon="-2.69712">
        <ele>59.4</ele>
        <time>2021-08-08T10:07:20Z</time>
      </trkpt>
      <trkpt lat="48.0237" lon="-2.69718">
        <ele>59.6</ele>
        <time>2021-08-08T10:07:21Z</time>
      </trkpt>
      <trkpt lat="48.02373" lon="-2.69724">
        <ele>59.6</ele>
        <time>2021-08-08T10:07:22Z</time>
      </trkpt>
      <trkpt lat="48.02375" lon="-2.6973">
        <ele>59.8</ele>
        <time>2021-08-08T10:07:23Z</time>
      </trkpt>
      <trkpt lat="48.02377" lon="-2.69736">
        <ele>59.8</ele>
        <time>2021-08-08T10:07:24Z</time>
      </trkpt>
      <trkpt lat="48.0238" lon="-2.69741">
        <ele>59.8</ele>
        <time>2021-08-08T10:07:25Z</time>
      </trkpt>
      <trkpt lat="48.02383" lon="-2.69746">
        <ele>59.8</ele>
        <time>2021-08-08T10:07:26Z</time>
      </trkpt>
      <trkpt lat="48.02385" lon="-2.69752">
        <ele>59.8</ele>
        <time>2021-08-08T10:07:27Z</time>
      </trkpt>
      <trkpt lat="48.02388" lon="-2.69757">
        <ele>59.8</ele>
        <time>2021-08-08T10:07:28Z</time>
      </trkpt>
      <trkpt lat="48.02392" lon="-2.69763">
        <ele>59.8</ele>
        <time>2021-08-08T10:07:29Z</time>
      </trkpt>
      <trkpt lat="48.02395" lon="-2.69768">
        <ele>59.8</ele>
        <time>2021-08-08T10:07:30Z</time>
      </trkpt>
      <trkpt lat="48.02398" lon="-2.69773">
        <ele>59.8</ele>
        <time>2021-08-08T10:07:31Z</time>
      </trkpt>
      <trkpt lat="48.02402" lon="-2.69778">
        <ele>59.8</ele>
        <time>2021-08-08T10:07:32Z</time>
      </trkpt>
      <trkpt lat="48.02405" lon="-2.69782">
        <ele>59.8</ele>
        <time>2021-08-08T10:07:33Z</time>
      </trkpt>
      <trkpt lat="48.02409" lon="-2.69786">
        <ele>59.8</ele>
        <time>2021-08-08T10:07:34Z</time>
      </trkpt>
      <trkpt lat="48.02412" lon="-2.69791">
        <ele>59.8</ele>
        <time>2021-08-08T10:07:35Z</time>
      </trkpt>
      <trkpt lat="48.02415" lon="-2.69794">
        <ele>59.8</ele>
        <time>2021-08-08T10:07:36Z</time>
      </trkpt>
      <trkpt lat="48.02418" lon="-2.69798">
        <ele>59.8</ele>
        <time>2021-08-08T10:07:37Z</time>
      </trkpt>
      <trkpt lat="48.02421" lon="-2.69801">
        <ele>59.8</ele>
        <time>2021-08-08T10:07:38Z</time>
      </trkpt>
      <trkpt lat="48.02425" lon="-2.69804">
        <ele>59.8</ele>
        <time>2021-08-08T10:07:39Z</time>
      </trkpt>
      <trkpt lat="48.02428" lon="-2.69807">
        <ele>59.8</ele>
        <time>2021-08-08T10:07:40Z</time>
      </trkpt>
      <trkpt lat="48.02431" lon="-2.6981">
        <ele>59.8</ele>
        <time>2021-08-08T10:07:41Z</time>
      </trkpt>
      <trkpt lat="48.02435" lon="-2.69814">
        <ele>59.8</ele>
        <time>2021-08-08T10:07:42Z</time>
      </trkpt>
      <trkpt lat="48.02439" lon="-2.69817">
        <ele>59.8</ele>
        <time>2021-08-08T10:07:43Z</time>
      </trkpt>
      <trkpt lat="48.02442" lon="-2.69821">
        <ele>59.8</ele>
        <time>2021-08-08T10:07:44Z</time>
      </trkpt>
      <trkpt lat="48.02446" lon="-2.69825">
        <ele>59.8</ele>
        <time>2021-08-08T10:07:45Z</time>
      </trkpt>
      <trkpt lat="48.0245" lon="-2.69829">
        <ele>60</ele>
        <time>2021-08-08T10:07:46Z</time>
      </trkpt>
      <trkpt lat="48.02455" lon="-2.69833">
        <ele>60</ele>
        <time>2021-08-08T10:07:47Z</time>
      </trkpt>
      <trkpt lat="48.02459" lon="-2.69836">
        <ele>60</ele>
        <time>2021-08-08T10:07:48Z</time>
      </trkpt>
      <trkpt lat="48.02463" lon="-2.6984">
        <ele>60</ele>
        <time>2021-08-08T10:07:49Z</time>
      </trkpt>
      <trkpt lat="48.02467" lon="-2.69844">
        <ele>60.2</ele>
        <time>2021-08-08T10:07:50Z</time>
      </trkpt>
      <trkpt lat="48.0247" lon="-2.69848">
        <ele>60.2</ele>
        <time>2021-08-08T10:07:51Z</time>
      </trkpt>
      <trkpt lat="48.02474" lon="-2.69852">
        <ele>60.2</ele>
        <time>2021-08-08T10:07:52Z</time>
      </trkpt>
      <trkpt lat="48.02477" lon="-2.69856">
        <ele>60.2</ele>
        <time>2021-08-08T10:07:53Z</time>
      </trkpt>
      <trkpt lat="48.02481" lon="-2.69859">
        <ele>60.2</ele>
        <time>2021-08-08T10:07:54Z</time>
      </trkpt>
      <trkpt lat="48.02485" lon="-2.69863">
        <ele>60.2</ele>
        <time>2021-08-08T10:07:55Z</time>
      </trkpt>
      <trkpt lat="48.02489" lon="-2.69867">
        <ele>60.2</ele>
        <time>2021-08-08T10:07:56Z</time>
      </trkpt>
      <trkpt lat="48.02493" lon="-2.69871">
        <ele>60.2</ele>
        <time>2021-08-08T10:07:57Z</time>
      </trkpt>
      <trkpt lat="48.02497" lon="-2.69874">
        <ele>60.2</ele>
        <time>2021-08-08T10:07:58Z</time>
      </trkpt>
      <trkpt lat="48.02502" lon="-2.69878">
        <ele>60.2</ele>
        <time>2021-08-08T10:07:59Z</time>
      </trkpt>
      <trkpt lat="48.02506" lon="-2.69882">
        <ele>60.2</ele>
        <time>2021-08-08T10:08:00Z</time>
      </trkpt>
      <trkpt lat="48.0251" lon="-2.69886">
        <ele>60.2</ele>
        <time>2021-08-08T10:08:01Z</time>
      </trkpt>
      <trkpt lat="48.02514" lon="-2.69891">
        <ele>60.2</ele>
        <time>2021-08-08T10:08:02Z</time>
      </trkpt>
      <trkpt lat="48.02519" lon="-2.69895">
        <ele>60.2</ele>
        <time>2021-08-08T10:08:03Z</time>
      </trkpt>
      <trkpt lat="48.02523" lon="-2.69899">
        <ele>60</ele>
        <time>2021-08-08T10:08:04Z</time>
      </trkpt>
      <trkpt lat="48.02527" lon="-2.69903">
        <ele>60</ele>
        <time>2021-08-08T10:08:05Z</time>
      </trkpt>
      <trkpt lat="48.02532" lon="-2.69907">
        <ele>60</ele>
        <time>2021-08-08T10:08:06Z</time>
      </trkpt>
      <trkpt lat="48.02536" lon="-2.69912">
        <ele>60</ele>
        <time>2021-08-08T10:08:07Z</time>
      </trkpt>
      <trkpt lat="48.02541" lon="-2.69916">
        <ele>60</ele>
        <time>2021-08-08T10:08:08Z</time>
      </trkpt>
      <trkpt lat="48.02545" lon="-2.6992">
        <ele>60</ele>
        <time>2021-08-08T10:08:09Z</time>
      </trkpt>
      <trkpt lat="48.0255" lon="-2.69925">
        <ele>60</ele>
        <time>2021-08-08T10:08:10Z</time>
      </trkpt>
      <trkpt lat="48.02554" lon="-2.69929">
        <ele>60</ele>
        <time>2021-08-08T10:08:11Z</time>
      </trkpt>
      <trkpt lat="48.02559" lon="-2.69933">
        <ele>60</ele>
        <time>2021-08-08T10:08:12Z</time>
      </trkpt>
      <trkpt lat="48.02563" lon="-2.69937">
        <ele>60</ele>
        <time>2021-08-08T10:08:13Z</time>
      </trkpt>
      <trkpt lat="48.02567" lon="-2.69941">
        <ele>59.8</ele>
        <time>2021-08-08T10:08:14Z</time>
      </trkpt>
      <trkpt lat="48.02572" lon="-2.69946">
        <ele>59.8</ele>
        <time>2021-08-08T10:08:15Z</time>
      </trkpt>
      <trkpt lat="48.02576" lon="-2.6995">
        <ele>59.8</ele>
        <time>2021-08-08T10:08:16Z</time>
      </trkpt>
      <trkpt lat="48.02581" lon="-2.69954">
        <ele>59.6</ele>
        <time>2021-08-08T10:08:17Z</time>
      </trkpt>
      <trkpt lat="48.02585" lon="-2.69958">
        <ele>59.6</ele>
        <time>2021-08-08T10:08:18Z</time>
      </trkpt>
      <trkpt lat="48.02589" lon="-2.69962">
        <ele>59.6</ele>
        <time>2021-08-08T10:08:19Z</time>
      </trkpt>
      <trkpt lat="48.02594" lon="-2.69966">
        <ele>59.6</ele>
        <time>2021-08-08T10:08:20Z</time>
      </trkpt>
      <trkpt lat="48.02599" lon="-2.69971">
        <ele>59.6</ele>
        <time>2021-08-08T10:08:21Z</time>
      </trkpt>
      <trkpt lat="48.02603" lon="-2.69975">
        <ele>59.6</ele>
        <time>2021-08-08T10:08:22Z</time>
      </trkpt>
      <trkpt lat="48.02608" lon="-2.69979">
        <ele>59.6</ele>
        <time>2021-08-08T10:08:23Z</time>
      </trkpt>
      <trkpt lat="48.02612" lon="-2.69984">
        <ele>59.6</ele>
        <time>2021-08-08T10:08:24Z</time>
      </trkpt>
      <trkpt lat="48.02617" lon="-2.69988">
        <ele>59.6</ele>
        <time>2021-08-08T10:08:25Z</time>
      </trkpt>
      <trkpt lat="48.02621" lon="-2.69993">
        <ele>59.6</ele>
        <time>2021-08-08T10:08:26Z</time>
      </trkpt>
      <trkpt lat="48.02625" lon="-2.69997">
        <ele>59.4</ele>
        <time>2021-08-08T10:08:27Z</time>
      </trkpt>
      <trkpt lat="48.0263" lon="-2.70001">
        <ele>59.4</ele>
        <time>2021-08-08T10:08:28Z</time>
      </trkpt>
      <trkpt lat="48.02634" lon="-2.70005">
        <ele>59.4</ele>
        <time>2021-08-08T10:08:29Z</time>
      </trkpt>
      <trkpt lat="48.02638" lon="-2.70009">
        <ele>59.4</ele>
        <time>2021-08-08T10:08:30Z</time>
      </trkpt>
      <trkpt lat="48.02642" lon="-2.70013">
        <ele>59.4</ele>
        <time>2021-08-08T10:08:31Z</time>
      </trkpt>
      <trkpt lat="48.02646" lon="-2.70017">
        <ele>59.4</ele>
        <time>2021-08-08T10:08:32Z</time>
      </trkpt>
      <trkpt lat="48.02651" lon="-2.70021">
        <ele>59.4</ele>
        <time>2021-08-08T10:08:33Z</time>
      </trkpt>
      <trkpt lat="48.02655" lon="-2.70025">
        <ele>59.4</ele>
        <time>2021-08-08T10:08:34Z</time>
      </trkpt>
      <trkpt lat="48.02659" lon="-2.70029">
        <ele>59.4</ele>
        <time>2021-08-08T10:08:35Z</time>
      </trkpt>
      <trkpt lat="48.02663" lon="-2.70033">
        <ele>59.4</ele>
        <time>2021-08-08T10:08:36Z</time>
      </trkpt>
      <trkpt lat="48.02667" lon="-2.70037">
        <ele>59.4</ele>
        <time>2021-08-08T10:08:37Z</time>
      </trkpt>
      <trkpt lat="48.02671" lon="-2.70041">
        <ele>59.4</ele>
        <time>2021-08-08T10:08:38Z</time>
      </trkpt>
      <trkpt lat="48.02675" lon="-2.70045">
        <ele>59.4</ele>
        <time>2021-08-08T10:08:39Z</time>
      </trkpt>
      <trkpt lat="48.02679" lon="-2.70049">
        <ele>59.4</ele>
        <time>2021-08-08T10:08:40Z</time>
      </trkpt>
      <trkpt lat="48.02683" lon="-2.70053">
        <ele>59.6</ele>
        <time>2021-08-08T10:08:41Z</time>
      </trkpt>
      <trkpt lat="48.02688" lon="-2.70058">
        <ele>59.6</ele>
        <time>2021-08-08T10:08:42Z</time>
      </trkpt>
      <trkpt lat="48.02692" lon="-2.70062">
        <ele>59.6</ele>
        <time>2021-08-08T10:08:43Z</time>
      </trkpt>
      <trkpt lat="48.02696" lon="-2.70066">
        <ele>59.6</ele>
        <time>2021-08-08T10:08:44Z</time>
      </trkpt>
      <trkpt lat="48.027" lon="-2.7007">
        <ele>59.6</ele>
        <time>2021-08-08T10:08:45Z</time>
      </trkpt>
      <trkpt lat="48.02705" lon="-2.70074">
        <ele>59.6</ele>
        <time>2021-08-08T10:08:46Z</time>
      </trkpt>
      <trkpt lat="48.02709" lon="-2.70078">
        <ele>59.6</ele>
        <time>2021-08-08T10:08:47Z</time>
      </trkpt>
      <trkpt lat="48.02713" lon="-2.70083">
        <ele>59.6</ele>
        <time>2021-08-08T10:08:48Z</time>
      </trkpt>
      <trkpt lat="48.02717" lon="-2.70087">
        <ele>59.6</ele>
        <time>2021-08-08T10:08:49Z</time>
      </trkpt>
      <trkpt lat="48.02722" lon="-2.70091">
        <ele>59.6</ele>
        <time>2021-08-08T10:08:50Z</time>
      </trkpt>
      <trkpt lat="48.02726" lon="-2.70095">
        <ele>59.6</ele>
        <time>2021-08-08T10:08:51Z</time>
      </trkpt>
      <trkpt lat="48.0273" lon="-2.70098">
        <ele>59.6</ele>
        <time>2021-08-08T10:08:52Z</time>
      </trkpt>
      <trkpt lat="48.02734" lon="-2.70102">
        <ele>59.8</ele>
        <time>2021-08-08T10:08:53Z</time>
      </trkpt>
      <trkpt lat="48.02737" lon="-2.70105">
        <ele>59.8</ele>
        <time>2021-08-08T10:08:54Z</time>
      </trkpt>
      <trkpt lat="48.02741" lon="-2.70108">
        <ele>59.8</ele>
        <time>2021-08-08T10:08:55Z</time>
      </trkpt>
      <trkpt lat="48.02744" lon="-2.70111">
        <ele>59.8</ele>
        <time>2021-08-08T10:08:56Z</time>
      </trkpt>
      <trkpt lat="48.02747" lon="-2.70114">
        <ele>59.8</ele>
        <time>2021-08-08T10:08:57Z</time>
      </trkpt>
      <trkpt lat="48.0275" lon="-2.70117">
        <ele>59.8</ele>
        <time>2021-08-08T10:08:58Z</time>
      </trkpt>
      <trkpt lat="48.02752" lon="-2.70119">
        <ele>59.8</ele>
        <time>2021-08-08T10:08:59Z</time>
      </trkpt>
      <trkpt lat="48.02755" lon="-2.70121">
        <ele>60</ele>
        <time>2021-08-08T10:09:00Z</time>
      </trkpt>
      <trkpt lat="48.02758" lon="-2.70123">
        <ele>60</ele>
        <time>2021-08-08T10:09:01Z</time>
      </trkpt>
      <trkpt lat="48.0276" lon="-2.70125">
        <ele>60</ele>
        <time>2021-08-08T10:09:02Z</time>
      </trkpt>
      <trkpt lat="48.02763" lon="-2.70127">
        <ele>60.2</ele>
        <time>2021-08-08T10:09:03Z</time>
      </trkpt>
      <trkpt lat="48.02765" lon="-2.70128">
        <ele>60.4</ele>
        <time>2021-08-08T10:09:04Z</time>
      </trkpt>
      <trkpt lat="48.02767" lon="-2.70129">
        <ele>60.8</ele>
        <time>2021-08-08T10:09:05Z</time>
      </trkpt>
      <trkpt lat="48.02768" lon="-2.70131">
        <ele>61</ele>
        <time>2021-08-08T10:09:06Z</time>
      </trkpt>
      <trkpt lat="48.02769" lon="-2.70134">
        <ele>61.2</ele>
        <time>2021-08-08T10:09:07Z</time>
      </trkpt>
      <trkpt lat="48.02771" lon="-2.70135">
        <ele>61.6</ele>
        <time>2021-08-08T10:09:08Z</time>
      </trkpt>
      <trkpt lat="48.02772" lon="-2.70136">
        <ele>61.6</ele>
        <time>2021-08-08T10:09:09Z</time>
      </trkpt>
      <trkpt lat="48.02773" lon="-2.70135">
        <ele>62.2</ele>
        <time>2021-08-08T10:09:10Z</time>
      </trkpt>
      <trkpt lat="48.02775" lon="-2.70136">
        <ele>62.4</ele>
        <time>2021-08-08T10:09:11Z</time>
      </trkpt>
      <trkpt lat="48.02776" lon="-2.70137">
        <ele>62.6</ele>
        <time>2021-08-08T10:09:12Z</time>
      </trkpt>
      <trkpt lat="48.02777" lon="-2.70139">
        <ele>62.8</ele>
        <time>2021-08-08T10:09:13Z</time>
      </trkpt>
      <trkpt lat="48.02779" lon="-2.7014">
        <ele>63</ele>
        <time>2021-08-08T10:09:14Z</time>
      </trkpt>
      <trkpt lat="48.0278" lon="-2.70143">
        <ele>63</ele>
        <time>2021-08-08T10:09:15Z</time>
      </trkpt>
      <trkpt lat="48.02781" lon="-2.70147">
        <ele>63</ele>
        <time>2021-08-08T10:09:16Z</time>
      </trkpt>
      <trkpt lat="48.02783" lon="-2.7015">
        <ele>63.2</ele>
        <time>2021-08-08T10:09:17Z</time>
      </trkpt>
      <trkpt lat="48.02786" lon="-2.70153">
        <ele>63.2</ele>
        <time>2021-08-08T10:09:18Z</time>
      </trkpt>
      <trkpt lat="48.02789" lon="-2.70156">
        <ele>63.2</ele>
        <time>2021-08-08T10:09:19Z</time>
      </trkpt>
      <trkpt lat="48.02792" lon="-2.70159">
        <ele>63.2</ele>
        <time>2021-08-08T10:09:20Z</time>
      </trkpt>
      <trkpt lat="48.02796" lon="-2.70162">
        <ele>63.2</ele>
        <time>2021-08-08T10:09:21Z</time>
      </trkpt>
      <trkpt lat="48.02799" lon="-2.70165">
        <ele>63.2</ele>
        <time>2021-08-08T10:09:22Z</time>
      </trkpt>
      <trkpt lat="48.02803" lon="-2.70168">
        <ele>63.4</ele>
        <time>2021-08-08T10:09:23Z</time>
      </trkpt>
      <trkpt lat="48.02807" lon="-2.70171">
        <ele>63.4</ele>
        <time>2021-08-08T10:09:24Z</time>
      </trkpt>
      <trkpt lat="48.0281" lon="-2.70174">
        <ele>63.4</ele>
        <time>2021-08-08T10:09:25Z</time>
      </trkpt>
      <trkpt lat="48.02814" lon="-2.70178">
        <ele>63.4</ele>
        <time>2021-08-08T10:09:26Z</time>
      </trkpt>
      <trkpt lat="48.02818" lon="-2.70181">
        <ele>63.4</ele>
        <time>2021-08-08T10:09:27Z</time>
      </trkpt>
      <trkpt lat="48.02822" lon="-2.70185">
        <ele>63.4</ele>
        <time>2021-08-08T10:09:28Z</time>
      </trkpt>
      <trkpt lat="48.02826" lon="-2.70188">
        <ele>63</ele>
        <time>2021-08-08T10:09:29Z</time>
      </trkpt>
      <trkpt lat="48.02829" lon="-2.70192">
        <ele>63</ele>
        <time>2021-08-08T10:09:30Z</time>
      </trkpt>
      <trkpt lat="48.02833" lon="-2.70196">
        <ele>63</ele>
        <time>2021-08-08T10:09:31Z</time>
      </trkpt>
      <trkpt lat="48.02837" lon="-2.70199">
        <ele>63</ele>
        <time>2021-08-08T10:09:32Z</time>
      </trkpt>
      <trkpt lat="48.02842" lon="-2.70203">
        <ele>63</ele>
        <time>2021-08-08T10:09:33Z</time>
      </trkpt>
      <trkpt lat="48.02846" lon="-2.70207">
        <ele>62.8</ele>
        <time>2021-08-08T10:09:34Z</time>
      </trkpt>
      <trkpt lat="48.02849" lon="-2.70211">
        <ele>62.8</ele>
        <time>2021-08-08T10:09:35Z</time>
      </trkpt>
      <trkpt lat="48.02853" lon="-2.70214">
        <ele>62.6</ele>
        <time>2021-08-08T10:09:36Z</time>
      </trkpt>
      <trkpt lat="48.02857" lon="-2.70218">
        <ele>62.6</ele>
        <time>2021-08-08T10:09:37Z</time>
      </trkpt>
      <trkpt lat="48.02861" lon="-2.70222">
        <ele>62.6</ele>
        <time>2021-08-08T10:09:38Z</time>
      </trkpt>
      <trkpt lat="48.02865" lon="-2.70226">
        <ele>62.4</ele>
        <time>2021-08-08T10:09:39Z</time>
      </trkpt>
      <trkpt lat="48.02868" lon="-2.7023">
        <ele>62</ele>
        <time>2021-08-08T10:09:40Z</time>
      </trkpt>
      <trkpt lat="48.02872" lon="-2.70233">
        <ele>62</ele>
        <time>2021-08-08T10:09:41Z</time>
      </trkpt>
      <trkpt lat="48.02876" lon="-2.70237">
        <ele>62</ele>
        <time>2021-08-08T10:09:42Z</time>
      </trkpt>
      <trkpt lat="48.0288" lon="-2.70241">
        <ele>61.8</ele>
        <time>2021-08-08T10:09:43Z</time>
      </trkpt>
      <trkpt lat="48.02883" lon="-2.70244">
        <ele>61.8</ele>
        <time>2021-08-08T10:09:44Z</time>
      </trkpt>
      <trkpt lat="48.02887" lon="-2.70248">
        <ele>61.8</ele>
        <time>2021-08-08T10:09:45Z</time>
      </trkpt>
      <trkpt lat="48.02891" lon="-2.70252">
        <ele>61.8</ele>
        <time>2021-08-08T10:09:46Z</time>
      </trkpt>
      <trkpt lat="48.02895" lon="-2.70256">
        <ele>61.8</ele>
        <time>2021-08-08T10:09:47Z</time>
      </trkpt>
      <trkpt lat="48.029" lon="-2.7026">
        <ele>61.8</ele>
        <time>2021-08-08T10:09:48Z</time>
      </trkpt>
      <trkpt lat="48.02904" lon="-2.70264">
        <ele>61.8</ele>
        <time>2021-08-08T10:09:49Z</time>
      </trkpt>
      <trkpt lat="48.02908" lon="-2.70268">
        <ele>61.8</ele>
        <time>2021-08-08T10:09:50Z</time>
      </trkpt>
      <trkpt lat="48.02912" lon="-2.70272">
        <ele>61.8</ele>
        <time>2021-08-08T10:09:51Z</time>
      </trkpt>
      <trkpt lat="48.02916" lon="-2.70276">
        <ele>61.8</ele>
        <time>2021-08-08T10:09:52Z</time>
      </trkpt>
      <trkpt lat="48.0292" lon="-2.70281">
        <ele>61.8</ele>
        <time>2021-08-08T10:09:53Z</time>
      </trkpt>
      <trkpt lat="48.02924" lon="-2.70285">
        <ele>61.8</ele>
        <time>2021-08-08T10:09:54Z</time>
      </trkpt>
      <trkpt lat="48.02928" lon="-2.70289">
        <ele>61.8</ele>
        <time>2021-08-08T10:09:55Z</time>
      </trkpt>
      <trkpt lat="48.02933" lon="-2.70293">
        <ele>61.8</ele>
        <time>2021-08-08T10:09:56Z</time>
      </trkpt>
      <trkpt lat="48.02937" lon="-2.70298">
        <ele>61.8</ele>
        <time>2021-08-08T10:09:57Z</time>
      </trkpt>
      <trkpt lat="48.02941" lon="-2.70302">
        <ele>61.8</ele>
        <time>2021-08-08T10:09:58Z</time>
      </trkpt>
      <trkpt lat="48.02945" lon="-2.70306">
        <ele>61.8</ele>
        <time>2021-08-08T10:09:59Z</time>
      </trkpt>
      <trkpt lat="48.0295" lon="-2.7031">
        <ele>61.8</ele>
        <time>2021-08-08T10:10:00Z</time>
      </trkpt>
      <trkpt lat="48.02954" lon="-2.70314">
        <ele>61.8</ele>
        <time>2021-08-08T10:10:01Z</time>
      </trkpt>
      <trkpt lat="48.02958" lon="-2.70318">
        <ele>61.4</ele>
        <time>2021-08-08T10:10:02Z</time>
      </trkpt>
      <trkpt lat="48.02963" lon="-2.70322">
        <ele>61.4</ele>
        <time>2021-08-08T10:10:03Z</time>
      </trkpt>
      <trkpt lat="48.02968" lon="-2.70326">
        <ele>61.2</ele>
        <time>2021-08-08T10:10:04Z</time>
      </trkpt>
      <trkpt lat="48.02972" lon="-2.70331">
        <ele>61.2</ele>
        <time>2021-08-08T10:10:05Z</time>
      </trkpt>
      <trkpt lat="48.02976" lon="-2.70335">
        <ele>61.2</ele>
        <time>2021-08-08T10:10:06Z</time>
      </trkpt>
      <trkpt lat="48.02981" lon="-2.70339">
        <ele>61.2</ele>
        <time>2021-08-08T10:10:07Z</time>
      </trkpt>
      <trkpt lat="48.02985" lon="-2.70344">
        <ele>61.2</ele>
        <time>2021-08-08T10:10:08Z</time>
      </trkpt>
      <trkpt lat="48.02989" lon="-2.70349">
        <ele>61</ele>
        <time>2021-08-08T10:10:09Z</time>
      </trkpt>
      <trkpt lat="48.02994" lon="-2.70353">
        <ele>61</ele>
        <time>2021-08-08T10:10:10Z</time>
      </trkpt>
      <trkpt lat="48.02998" lon="-2.70358">
        <ele>61</ele>
        <time>2021-08-08T10:10:11Z</time>
      </trkpt>
      <trkpt lat="48.03003" lon="-2.70362">
        <ele>61</ele>
        <time>2021-08-08T10:10:12Z</time>
      </trkpt>
      <trkpt lat="48.03007" lon="-2.70366">
        <ele>61</ele>
        <time>2021-08-08T10:10:13Z</time>
      </trkpt>
      <trkpt lat="48.03012" lon="-2.7037">
        <ele>61</ele>
        <time>2021-08-08T10:10:14Z</time>
      </trkpt>
      <trkpt lat="48.03017" lon="-2.70374">
        <ele>61</ele>
        <time>2021-08-08T10:10:15Z</time>
      </trkpt>
      <trkpt lat="48.03021" lon="-2.70378">
        <ele>61</ele>
        <time>2021-08-08T10:10:16Z</time>
      </trkpt>
      <trkpt lat="48.03025" lon="-2.70381">
        <ele>61</ele>
        <time>2021-08-08T10:10:17Z</time>
      </trkpt>
      <trkpt lat="48.03029" lon="-2.70385">
        <ele>60.8</ele>
        <time>2021-08-08T10:10:18Z</time>
      </trkpt>
      <trkpt lat="48.03033" lon="-2.70389">
        <ele>60.8</ele>
        <time>2021-08-08T10:10:19Z</time>
      </trkpt>
      <trkpt lat="48.03037" lon="-2.70392">
        <ele>60.8</ele>
        <time>2021-08-08T10:10:20Z</time>
      </trkpt>
      <trkpt lat="48.03041" lon="-2.70396">
        <ele>60.6</ele>
        <time>2021-08-08T10:10:21Z</time>
      </trkpt>
      <trkpt lat="48.03046" lon="-2.704">
        <ele>60.6</ele>
        <time>2021-08-08T10:10:22Z</time>
      </trkpt>
      <trkpt lat="48.03049" lon="-2.70404">
        <ele>60.6</ele>
        <time>2021-08-08T10:10:23Z</time>
      </trkpt>
      <trkpt lat="48.03053" lon="-2.70408">
        <ele>60.6</ele>
        <time>2021-08-08T10:10:24Z</time>
      </trkpt>
      <trkpt lat="48.03057" lon="-2.70411">
        <ele>60.6</ele>
        <time>2021-08-08T10:10:25Z</time>
      </trkpt>
      <trkpt lat="48.03061" lon="-2.70415">
        <ele>60.6</ele>
        <time>2021-08-08T10:10:26Z</time>
      </trkpt>
      <trkpt lat="48.03066" lon="-2.70419">
        <ele>60.6</ele>
        <time>2021-08-08T10:10:27Z</time>
      </trkpt>
      <trkpt lat="48.0307" lon="-2.70423">
        <ele>60.6</ele>
        <time>2021-08-08T10:10:28Z</time>
      </trkpt>
      <trkpt lat="48.03074" lon="-2.70427">
        <ele>60.6</ele>
        <time>2021-08-08T10:10:29Z</time>
      </trkpt>
      <trkpt lat="48.03078" lon="-2.7043">
        <ele>60.6</ele>
        <time>2021-08-08T10:10:30Z</time>
      </trkpt>
      <trkpt lat="48.03082" lon="-2.70433">
        <ele>60.8</ele>
        <time>2021-08-08T10:10:31Z</time>
      </trkpt>
      <trkpt lat="48.03086" lon="-2.70436">
        <ele>60.8</ele>
        <time>2021-08-08T10:10:32Z</time>
      </trkpt>
      <trkpt lat="48.0309" lon="-2.7044">
        <ele>60.8</ele>
        <time>2021-08-08T10:10:33Z</time>
      </trkpt>
      <trkpt lat="48.03094" lon="-2.70443">
        <ele>60.8</ele>
        <time>2021-08-08T10:10:34Z</time>
      </trkpt>
      <trkpt lat="48.03098" lon="-2.70447">
        <ele>61</ele>
        <time>2021-08-08T10:10:35Z</time>
      </trkpt>
      <trkpt lat="48.03102" lon="-2.70451">
        <ele>61</ele>
        <time>2021-08-08T10:10:36Z</time>
      </trkpt>
      <trkpt lat="48.03106" lon="-2.70454">
        <ele>61</ele>
        <time>2021-08-08T10:10:37Z</time>
      </trkpt>
      <trkpt lat="48.0311" lon="-2.70458">
        <ele>61.2</ele>
        <time>2021-08-08T10:10:38Z</time>
      </trkpt>
      <trkpt lat="48.03114" lon="-2.70462">
        <ele>61.2</ele>
        <time>2021-08-08T10:10:39Z</time>
      </trkpt>
      <trkpt lat="48.03118" lon="-2.70466">
        <ele>61.2</ele>
        <time>2021-08-08T10:10:40Z</time>
      </trkpt>
      <trkpt lat="48.03122" lon="-2.7047">
        <ele>61.2</ele>
        <time>2021-08-08T10:10:41Z</time>
      </trkpt>
      <trkpt lat="48.03126" lon="-2.70474">
        <ele>61.2</ele>
        <time>2021-08-08T10:10:42Z</time>
      </trkpt>
      <trkpt lat="48.0313" lon="-2.70478">
        <ele>61.2</ele>
        <time>2021-08-08T10:10:43Z</time>
      </trkpt>
      <trkpt lat="48.03134" lon="-2.70482">
        <ele>61.2</ele>
        <time>2021-08-08T10:10:44Z</time>
      </trkpt>
      <trkpt lat="48.03138" lon="-2.70485">
        <ele>61.2</ele>
        <time>2021-08-08T10:10:45Z</time>
      </trkpt>
      <trkpt lat="48.03142" lon="-2.70489">
        <ele>61.2</ele>
        <time>2021-08-08T10:10:46Z</time>
      </trkpt>
      <trkpt lat="48.03146" lon="-2.70492">
        <ele>61.2</ele>
        <time>2021-08-08T10:10:47Z</time>
      </trkpt>
      <trkpt lat="48.0315" lon="-2.70497">
        <ele>61.2</ele>
        <time>2021-08-08T10:10:48Z</time>
      </trkpt>
      <trkpt lat="48.03154" lon="-2.70501">
        <ele>61.2</ele>
        <time>2021-08-08T10:10:49Z</time>
      </trkpt>
      <trkpt lat="48.03159" lon="-2.70505">
        <ele>61</ele>
        <time>2021-08-08T10:10:50Z</time>
      </trkpt>
      <trkpt lat="48.03163" lon="-2.70509">
        <ele>61</ele>
        <time>2021-08-08T10:10:51Z</time>
      </trkpt>
      <trkpt lat="48.03167" lon="-2.70513">
        <ele>61</ele>
        <time>2021-08-08T10:10:52Z</time>
      </trkpt>
      <trkpt lat="48.03172" lon="-2.70518">
        <ele>61</ele>
        <time>2021-08-08T10:10:53Z</time>
      </trkpt>
      <trkpt lat="48.03176" lon="-2.70522">
        <ele>61</ele>
        <time>2021-08-08T10:10:54Z</time>
      </trkpt>
      <trkpt lat="48.0318" lon="-2.70526">
        <ele>61</ele>
        <time>2021-08-08T10:10:55Z</time>
      </trkpt>
      <trkpt lat="48.03185" lon="-2.7053">
        <ele>61</ele>
        <time>2021-08-08T10:10:56Z</time>
      </trkpt>
      <trkpt lat="48.03189" lon="-2.70534">
        <ele>61</ele>
        <time>2021-08-08T10:10:57Z</time>
      </trkpt>
      <trkpt lat="48.03193" lon="-2.70538">
        <ele>61</ele>
        <time>2021-08-08T10:10:58Z</time>
      </trkpt>
      <trkpt lat="48.03198" lon="-2.70541">
        <ele>61</ele>
        <time>2021-08-08T10:10:59Z</time>
      </trkpt>
      <trkpt lat="48.03202" lon="-2.70545">
        <ele>61</ele>
        <time>2021-08-08T10:11:00Z</time>
      </trkpt>
      <trkpt lat="48.03206" lon="-2.70549">
        <ele>61</ele>
        <time>2021-08-08T10:11:01Z</time>
      </trkpt>
      <trkpt lat="48.0321" lon="-2.70553">
        <ele>61</ele>
        <time>2021-08-08T10:11:02Z</time>
      </trkpt>
      <trkpt lat="48.03214" lon="-2.70557">
        <ele>61</ele>
        <time>2021-08-08T10:11:03Z</time>
      </trkpt>
      <trkpt lat="48.03219" lon="-2.70561">
        <ele>61.2</ele>
        <time>2021-08-08T10:11:04Z</time>
      </trkpt>
      <trkpt lat="48.03223" lon="-2.70565">
        <ele>61.2</ele>
        <time>2021-08-08T10:11:05Z</time>
      </trkpt>
      <trkpt lat="48.03228" lon="-2.70569">
        <ele>61.4</ele>
        <time>2021-08-08T10:11:06Z</time>
      </trkpt>
      <trkpt lat="48.03233" lon="-2.70574">
        <ele>61.6</ele>
        <time>2021-08-08T10:11:07Z</time>
      </trkpt>
      <trkpt lat="48.03237" lon="-2.70578">
        <ele>61.8</ele>
        <time>2021-08-08T10:11:08Z</time>
      </trkpt>
      <trkpt lat="48.03241" lon="-2.70582">
        <ele>62</ele>
        <time>2021-08-08T10:11:09Z</time>
      </trkpt>
      <trkpt lat="48.03245" lon="-2.70586">
        <ele>62</ele>
        <time>2021-08-08T10:11:10Z</time>
      </trkpt>
      <trkpt lat="48.0325" lon="-2.7059">
        <ele>62</ele>
        <time>2021-08-08T10:11:11Z</time>
      </trkpt>
      <trkpt lat="48.03254" lon="-2.70594">
        <ele>62</ele>
        <time>2021-08-08T10:11:12Z</time>
      </trkpt>
      <trkpt lat="48.03258" lon="-2.70598">
        <ele>62</ele>
        <time>2021-08-08T10:11:13Z</time>
      </trkpt>
      <trkpt lat="48.03262" lon="-2.70602">
        <ele>62</ele>
        <time>2021-08-08T10:11:14Z</time>
      </trkpt>
      <trkpt lat="48.03267" lon="-2.70606">
        <ele>62</ele>
        <time>2021-08-08T10:11:15Z</time>
      </trkpt>
      <trkpt lat="48.03271" lon="-2.7061">
        <ele>62</ele>
        <time>2021-08-08T10:11:16Z</time>
      </trkpt>
      <trkpt lat="48.03275" lon="-2.70613">
        <ele>62</ele>
        <time>2021-08-08T10:11:17Z</time>
      </trkpt>
      <trkpt lat="48.03279" lon="-2.70617">
        <ele>62</ele>
        <time>2021-08-08T10:11:18Z</time>
      </trkpt>
      <trkpt lat="48.03284" lon="-2.70621">
        <ele>62</ele>
        <time>2021-08-08T10:11:19Z</time>
      </trkpt>
      <trkpt lat="48.03288" lon="-2.70626">
        <ele>62</ele>
        <time>2021-08-08T10:11:20Z</time>
      </trkpt>
      <trkpt lat="48.03293" lon="-2.70631">
        <ele>62</ele>
        <time>2021-08-08T10:11:21Z</time>
      </trkpt>
      <trkpt lat="48.03297" lon="-2.70636">
        <ele>62</ele>
        <time>2021-08-08T10:11:22Z</time>
      </trkpt>
      <trkpt lat="48.03302" lon="-2.7064">
        <ele>62</ele>
        <time>2021-08-08T10:11:23Z</time>
      </trkpt>
      <trkpt lat="48.03307" lon="-2.70645">
        <ele>62</ele>
        <time>2021-08-08T10:11:24Z</time>
      </trkpt>
      <trkpt lat="48.03311" lon="-2.7065">
        <ele>62</ele>
        <time>2021-08-08T10:11:25Z</time>
      </trkpt>
      <trkpt lat="48.03316" lon="-2.70654">
        <ele>62</ele>
        <time>2021-08-08T10:11:26Z</time>
      </trkpt>
      <trkpt lat="48.0332" lon="-2.70659">
        <ele>62</ele>
        <time>2021-08-08T10:11:27Z</time>
      </trkpt>
      <trkpt lat="48.03325" lon="-2.70664">
        <ele>62</ele>
        <time>2021-08-08T10:11:28Z</time>
      </trkpt>
      <trkpt lat="48.0333" lon="-2.70668">
        <ele>62</ele>
        <time>2021-08-08T10:11:29Z</time>
      </trkpt>
      <trkpt lat="48.03335" lon="-2.70673">
        <ele>62</ele>
        <time>2021-08-08T10:11:30Z</time>
      </trkpt>
      <trkpt lat="48.03339" lon="-2.70677">
        <ele>62</ele>
        <time>2021-08-08T10:11:31Z</time>
      </trkpt>
      <trkpt lat="48.03344" lon="-2.70682">
        <ele>62</ele>
        <time>2021-08-08T10:11:32Z</time>
      </trkpt>
      <trkpt lat="48.03348" lon="-2.70686">
        <ele>62</ele>
        <time>2021-08-08T10:11:33Z</time>
      </trkpt>
      <trkpt lat="48.03353" lon="-2.70691">
        <ele>62</ele>
        <time>2021-08-08T10:11:34Z</time>
      </trkpt>
      <trkpt lat="48.03357" lon="-2.70695">
        <ele>62</ele>
        <time>2021-08-08T10:11:35Z</time>
      </trkpt>
      <trkpt lat="48.03362" lon="-2.70699">
        <ele>62</ele>
        <time>2021-08-08T10:11:36Z</time>
      </trkpt>
      <trkpt lat="48.03366" lon="-2.70703">
        <ele>61.8</ele>
        <time>2021-08-08T10:11:37Z</time>
      </trkpt>
      <trkpt lat="48.03371" lon="-2.70708">
        <ele>61.8</ele>
        <time>2021-08-08T10:11:38Z</time>
      </trkpt>
      <trkpt lat="48.03375" lon="-2.70712">
        <ele>61.8</ele>
        <time>2021-08-08T10:11:39Z</time>
      </trkpt>
      <trkpt lat="48.0338" lon="-2.70717">
        <ele>61.8</ele>
        <time>2021-08-08T10:11:40Z</time>
      </trkpt>
      <trkpt lat="48.03384" lon="-2.70721">
        <ele>61.6</ele>
        <time>2021-08-08T10:11:41Z</time>
      </trkpt>
      <trkpt lat="48.03389" lon="-2.70726">
        <ele>61.6</ele>
        <time>2021-08-08T10:11:42Z</time>
      </trkpt>
      <trkpt lat="48.03393" lon="-2.7073">
        <ele>61.6</ele>
        <time>2021-08-08T10:11:43Z</time>
      </trkpt>
      <trkpt lat="48.03397" lon="-2.70734">
        <ele>61.6</ele>
        <time>2021-08-08T10:11:44Z</time>
      </trkpt>
      <trkpt lat="48.03402" lon="-2.70738">
        <ele>61.6</ele>
        <time>2021-08-08T10:11:45Z</time>
      </trkpt>
      <trkpt lat="48.03406" lon="-2.70742">
        <ele>61.6</ele>
        <time>2021-08-08T10:11:46Z</time>
      </trkpt>
      <trkpt lat="48.0341" lon="-2.70747">
        <ele>61.4</ele>
        <time>2021-08-08T10:11:47Z</time>
      </trkpt>
      <trkpt lat="48.03415" lon="-2.70751">
        <ele>61.4</ele>
        <time>2021-08-08T10:11:48Z</time>
      </trkpt>
      <trkpt lat="48.03419" lon="-2.70755">
        <ele>61.4</ele>
        <time>2021-08-08T10:11:49Z</time>
      </trkpt>
      <trkpt lat="48.03424" lon="-2.7076">
        <ele>61.4</ele>
        <time>2021-08-08T10:11:50Z</time>
      </trkpt>
      <trkpt lat="48.03429" lon="-2.70764">
        <ele>61.4</ele>
        <time>2021-08-08T10:11:51Z</time>
      </trkpt>
      <trkpt lat="48.03434" lon="-2.70768">
        <ele>61.4</ele>
        <time>2021-08-08T10:11:52Z</time>
      </trkpt>
      <trkpt lat="48.03438" lon="-2.70773">
        <ele>61.4</ele>
        <time>2021-08-08T10:11:53Z</time>
      </trkpt>
      <trkpt lat="48.03443" lon="-2.70777">
        <ele>61.4</ele>
        <time>2021-08-08T10:11:54Z</time>
      </trkpt>
      <trkpt lat="48.03448" lon="-2.70781">
        <ele>61.4</ele>
        <time>2021-08-08T10:11:55Z</time>
      </trkpt>
      <trkpt lat="48.03453" lon="-2.70786">
        <ele>61.4</ele>
        <time>2021-08-08T10:11:56Z</time>
      </trkpt>
      <trkpt lat="48.03459" lon="-2.7079">
        <ele>61.4</ele>
        <time>2021-08-08T10:11:57Z</time>
      </trkpt>
      <trkpt lat="48.03465" lon="-2.70796">
        <ele>61.4</ele>
        <time>2021-08-08T10:11:58Z</time>
      </trkpt>
      <trkpt lat="48.03471" lon="-2.70801">
        <ele>61.4</ele>
        <time>2021-08-08T10:11:59Z</time>
      </trkpt>
      <trkpt lat="48.03478" lon="-2.70808">
        <ele>61.4</ele>
        <time>2021-08-08T10:12:00Z</time>
      </trkpt>
      <trkpt lat="48.03485" lon="-2.70814">
        <ele>61.4</ele>
        <time>2021-08-08T10:12:01Z</time>
      </trkpt>
      <trkpt lat="48.03492" lon="-2.70821">
        <ele>61.4</ele>
        <time>2021-08-08T10:12:02Z</time>
      </trkpt>
      <trkpt lat="48.03498" lon="-2.70826">
        <ele>61.4</ele>
        <time>2021-08-08T10:12:03Z</time>
      </trkpt>
      <trkpt lat="48.03504" lon="-2.70832">
        <ele>61.4</ele>
        <time>2021-08-08T10:12:04Z</time>
      </trkpt>
      <trkpt lat="48.0351" lon="-2.70837">
        <ele>61.6</ele>
        <time>2021-08-08T10:12:05Z</time>
      </trkpt>
      <trkpt lat="48.03515" lon="-2.70843">
        <ele>61.6</ele>
        <time>2021-08-08T10:12:06Z</time>
      </trkpt>
      <trkpt lat="48.0352" lon="-2.70848">
        <ele>61.8</ele>
        <time>2021-08-08T10:12:07Z</time>
      </trkpt>
      <trkpt lat="48.03525" lon="-2.70851">
        <ele>61.8</ele>
        <time>2021-08-08T10:12:08Z</time>
      </trkpt>
      <trkpt lat="48.03529" lon="-2.70855">
        <ele>61.8</ele>
        <time>2021-08-08T10:12:09Z</time>
      </trkpt>
      <trkpt lat="48.03532" lon="-2.70857">
        <ele>61.8</ele>
        <time>2021-08-08T10:12:10Z</time>
      </trkpt>
      <trkpt lat="48.03534" lon="-2.7086">
        <ele>61.8</ele>
        <time>2021-08-08T10:12:11Z</time>
      </trkpt>
      <trkpt lat="48.03536" lon="-2.70864">
        <ele>61.8</ele>
        <time>2021-08-08T10:12:12Z</time>
      </trkpt>
      <trkpt lat="48.03538" lon="-2.70866">
        <ele>61.8</ele>
        <time>2021-08-08T10:12:13Z</time>
      </trkpt>
      <trkpt lat="48.03541" lon="-2.70868">
        <ele>62</ele>
        <time>2021-08-08T10:12:14Z</time>
      </trkpt>
      <trkpt lat="48.03542" lon="-2.7087">
        <ele>62.4</ele>
        <time>2021-08-08T10:12:15Z</time>
      </trkpt>
      <trkpt lat="48.03544" lon="-2.70872">
        <ele>62.8</ele>
        <time>2021-08-08T10:12:16Z</time>
      </trkpt>
      <trkpt lat="48.03546" lon="-2.70874">
        <ele>63.2</ele>
        <time>2021-08-08T10:12:17Z</time>
      </trkpt>
      <trkpt lat="48.03548" lon="-2.70877">
        <ele>63.6</ele>
        <time>2021-08-08T10:12:18Z</time>
      </trkpt>
      <trkpt lat="48.0355" lon="-2.70879">
        <ele>64.2</ele>
        <time>2021-08-08T10:12:19Z</time>
      </trkpt>
      <trkpt lat="48.03552" lon="-2.70881">
        <ele>64.4</ele>
        <time>2021-08-08T10:12:20Z</time>
      </trkpt>
      <trkpt lat="48.03555" lon="-2.70884">
        <ele>64.6</ele>
        <time>2021-08-08T10:12:21Z</time>
      </trkpt>
      <trkpt lat="48.03557" lon="-2.70886">
        <ele>64.6</ele>
        <time>2021-08-08T10:12:22Z</time>
      </trkpt>
      <trkpt lat="48.03559" lon="-2.70888">
        <ele>64.6</ele>
        <time>2021-08-08T10:12:23Z</time>
      </trkpt>
      <trkpt lat="48.03562" lon="-2.70891">
        <ele>64.6</ele>
        <time>2021-08-08T10:12:24Z</time>
      </trkpt>
      <trkpt lat="48.03564" lon="-2.70894">
        <ele>64.6</ele>
        <time>2021-08-08T10:12:25Z</time>
      </trkpt>
      <trkpt lat="48.03567" lon="-2.70896">
        <ele>64.6</ele>
        <time>2021-08-08T10:12:26Z</time>
      </trkpt>
      <trkpt lat="48.03569" lon="-2.70898">
        <ele>64.6</ele>
        <time>2021-08-08T10:12:27Z</time>
      </trkpt>
      <trkpt lat="48.03571" lon="-2.70901">
        <ele>64.6</ele>
        <time>2021-08-08T10:12:28Z</time>
      </trkpt>
      <trkpt lat="48.03573" lon="-2.70903">
        <ele>64.6</ele>
        <time>2021-08-08T10:12:29Z</time>
      </trkpt>
      <trkpt lat="48.03576" lon="-2.70905">
        <ele>64.6</ele>
        <time>2021-08-08T10:12:30Z</time>
      </trkpt>
      <trkpt lat="48.03579" lon="-2.70908">
        <ele>64.6</ele>
        <time>2021-08-08T10:12:31Z</time>
      </trkpt>
      <trkpt lat="48.03581" lon="-2.7091">
        <ele>64.6</ele>
        <time>2021-08-08T10:12:32Z</time>
      </trkpt>
      <trkpt lat="48.03584" lon="-2.70913">
        <ele>64.6</ele>
        <time>2021-08-08T10:12:33Z</time>
      </trkpt>
      <trkpt lat="48.03586" lon="-2.70916">
        <ele>64.6</ele>
        <time>2021-08-08T10:12:34Z</time>
      </trkpt>
      <trkpt lat="48.03589" lon="-2.70918">
        <ele>64.6</ele>
        <time>2021-08-08T10:12:35Z</time>
      </trkpt>
      <trkpt lat="48.03592" lon="-2.70921">
        <ele>64.6</ele>
        <time>2021-08-08T10:12:36Z</time>
      </trkpt>
      <trkpt lat="48.03594" lon="-2.70924">
        <ele>64.6</ele>
        <time>2021-08-08T10:12:37Z</time>
      </trkpt>
      <trkpt lat="48.03597" lon="-2.70927">
        <ele>64.8</ele>
        <time>2021-08-08T10:12:38Z</time>
      </trkpt>
      <trkpt lat="48.036" lon="-2.70929">
        <ele>64.8</ele>
        <time>2021-08-08T10:12:39Z</time>
      </trkpt>
      <trkpt lat="48.03602" lon="-2.70931">
        <ele>64.8</ele>
        <time>2021-08-08T10:12:40Z</time>
      </trkpt>
      <trkpt lat="48.03605" lon="-2.70934">
        <ele>64.8</ele>
        <time>2021-08-08T10:12:41Z</time>
      </trkpt>
      <trkpt lat="48.03608" lon="-2.70936">
        <ele>64.8</ele>
        <time>2021-08-08T10:12:42Z</time>
      </trkpt>
      <trkpt lat="48.03611" lon="-2.70939">
        <ele>64.8</ele>
        <time>2021-08-08T10:12:43Z</time>
      </trkpt>
      <trkpt lat="48.03614" lon="-2.70942">
        <ele>64.8</ele>
        <time>2021-08-08T10:12:44Z</time>
      </trkpt>
      <trkpt lat="48.03617" lon="-2.70945">
        <ele>64.8</ele>
        <time>2021-08-08T10:12:45Z</time>
      </trkpt>
      <trkpt lat="48.0362" lon="-2.70949">
        <ele>64.8</ele>
        <time>2021-08-08T10:12:46Z</time>
      </trkpt>
      <trkpt lat="48.03623" lon="-2.70952">
        <ele>64.8</ele>
        <time>2021-08-08T10:12:47Z</time>
      </trkpt>
      <trkpt lat="48.03627" lon="-2.70956">
        <ele>64.8</ele>
        <time>2021-08-08T10:12:48Z</time>
      </trkpt>
      <trkpt lat="48.0363" lon="-2.70959">
        <ele>64.8</ele>
        <time>2021-08-08T10:12:49Z</time>
      </trkpt>
      <trkpt lat="48.03634" lon="-2.70962">
        <ele>64.8</ele>
        <time>2021-08-08T10:12:50Z</time>
      </trkpt>
      <trkpt lat="48.03637" lon="-2.70965">
        <ele>64.8</ele>
        <time>2021-08-08T10:12:51Z</time>
      </trkpt>
      <trkpt lat="48.03641" lon="-2.70969">
        <ele>64.8</ele>
        <time>2021-08-08T10:12:52Z</time>
      </trkpt>
      <trkpt lat="48.03644" lon="-2.70972">
        <ele>64.6</ele>
        <time>2021-08-08T10:12:53Z</time>
      </trkpt>
      <trkpt lat="48.03648" lon="-2.70975">
        <ele>64.6</ele>
        <time>2021-08-08T10:12:54Z</time>
      </trkpt>
      <trkpt lat="48.03652" lon="-2.70979">
        <ele>64.6</ele>
        <time>2021-08-08T10:12:55Z</time>
      </trkpt>
      <trkpt lat="48.03655" lon="-2.70983">
        <ele>64.4</ele>
        <time>2021-08-08T10:12:56Z</time>
      </trkpt>
      <trkpt lat="48.03659" lon="-2.70987">
        <ele>64.4</ele>
        <time>2021-08-08T10:12:57Z</time>
      </trkpt>
      <trkpt lat="48.03663" lon="-2.7099">
        <ele>64.4</ele>
        <time>2021-08-08T10:12:58Z</time>
      </trkpt>
      <trkpt lat="48.03667" lon="-2.70994">
        <ele>64.2</ele>
        <time>2021-08-08T10:12:59Z</time>
      </trkpt>
      <trkpt lat="48.03671" lon="-2.70998">
        <ele>64.2</ele>
        <time>2021-08-08T10:13:00Z</time>
      </trkpt>
      <trkpt lat="48.03675" lon="-2.71001">
        <ele>64.2</ele>
        <time>2021-08-08T10:13:01Z</time>
      </trkpt>
      <trkpt lat="48.03679" lon="-2.71005">
        <ele>64</ele>
        <time>2021-08-08T10:13:02Z</time>
      </trkpt>
      <trkpt lat="48.03684" lon="-2.71009">
        <ele>64</ele>
        <time>2021-08-08T10:13:03Z</time>
      </trkpt>
      <trkpt lat="48.03688" lon="-2.71013">
        <ele>64</ele>
        <time>2021-08-08T10:13:04Z</time>
      </trkpt>
      <trkpt lat="48.03692" lon="-2.71018">
        <ele>63.8</ele>
        <time>2021-08-08T10:13:05Z</time>
      </trkpt>
      <trkpt lat="48.03697" lon="-2.71022">
        <ele>63.8</ele>
        <time>2021-08-08T10:13:06Z</time>
      </trkpt>
      <trkpt lat="48.03701" lon="-2.71026">
        <ele>63.8</ele>
        <time>2021-08-08T10:13:07Z</time>
      </trkpt>
      <trkpt lat="48.03705" lon="-2.7103">
        <ele>63.8</ele>
        <time>2021-08-08T10:13:08Z</time>
      </trkpt>
      <trkpt lat="48.0371" lon="-2.71034">
        <ele>63.8</ele>
        <time>2021-08-08T10:13:09Z</time>
      </trkpt>
      <trkpt lat="48.03714" lon="-2.71038">
        <ele>63.8</ele>
        <time>2021-08-08T10:13:10Z</time>
      </trkpt>
      <trkpt lat="48.03718" lon="-2.71042">
        <ele>63.8</ele>
        <time>2021-08-08T10:13:11Z</time>
      </trkpt>
      <trkpt lat="48.03722" lon="-2.71046">
        <ele>63.6</ele>
        <time>2021-08-08T10:13:12Z</time>
      </trkpt>
      <trkpt lat="48.03726" lon="-2.7105">
        <ele>63.6</ele>
        <time>2021-08-08T10:13:13Z</time>
      </trkpt>
      <trkpt lat="48.03731" lon="-2.71054">
        <ele>63.6</ele>
        <time>2021-08-08T10:13:14Z</time>
      </trkpt>
      <trkpt lat="48.03735" lon="-2.71059">
        <ele>63.4</ele>
        <time>2021-08-08T10:13:15Z</time>
      </trkpt>
      <trkpt lat="48.03739" lon="-2.71063">
        <ele>63.4</ele>
        <time>2021-08-08T10:13:16Z</time>
      </trkpt>
      <trkpt lat="48.03744" lon="-2.71067">
        <ele>63.4</ele>
        <time>2021-08-08T10:13:17Z</time>
      </trkpt>
      <trkpt lat="48.03748" lon="-2.71071">
        <ele>63.4</ele>
        <time>2021-08-08T10:13:18Z</time>
      </trkpt>
      <trkpt lat="48.03752" lon="-2.71076">
        <ele>63.4</ele>
        <time>2021-08-08T10:13:19Z</time>
      </trkpt>
      <trkpt lat="48.03757" lon="-2.7108">
        <ele>63.4</ele>
        <time>2021-08-08T10:13:20Z</time>
      </trkpt>
      <trkpt lat="48.03761" lon="-2.71084">
        <ele>63.2</ele>
        <time>2021-08-08T10:13:21Z</time>
      </trkpt>
      <trkpt lat="48.03766" lon="-2.71089">
        <ele>63.2</ele>
        <time>2021-08-08T10:13:22Z</time>
      </trkpt>
      <trkpt lat="48.0377" lon="-2.71093">
        <ele>63.2</ele>
        <time>2021-08-08T10:13:23Z</time>
      </trkpt>
      <trkpt lat="48.03775" lon="-2.71097">
        <ele>63.2</ele>
        <time>2021-08-08T10:13:24Z</time>
      </trkpt>
      <trkpt lat="48.03779" lon="-2.71101">
        <ele>63.2</ele>
        <time>2021-08-08T10:13:25Z</time>
      </trkpt>
      <trkpt lat="48.03784" lon="-2.71106">
        <ele>63.2</ele>
        <time>2021-08-08T10:13:26Z</time>
      </trkpt>
      <trkpt lat="48.03788" lon="-2.7111">
        <ele>63.2</ele>
        <time>2021-08-08T10:13:27Z</time>
      </trkpt>
      <trkpt lat="48.03792" lon="-2.71114">
        <ele>63</ele>
        <time>2021-08-08T10:13:28Z</time>
      </trkpt>
      <trkpt lat="48.03797" lon="-2.71118">
        <ele>63</ele>
        <time>2021-08-08T10:13:29Z</time>
      </trkpt>
      <trkpt lat="48.03801" lon="-2.71122">
        <ele>63</ele>
        <time>2021-08-08T10:13:30Z</time>
      </trkpt>
      <trkpt lat="48.03805" lon="-2.71126">
        <ele>63</ele>
        <time>2021-08-08T10:13:31Z</time>
      </trkpt>
      <trkpt lat="48.0381" lon="-2.7113">
        <ele>63</ele>
        <time>2021-08-08T10:13:32Z</time>
      </trkpt>
      <trkpt lat="48.03814" lon="-2.71135">
        <ele>63</ele>
        <time>2021-08-08T10:13:33Z</time>
      </trkpt>
      <trkpt lat="48.03818" lon="-2.71138">
        <ele>63</ele>
        <time>2021-08-08T10:13:34Z</time>
      </trkpt>
      <trkpt lat="48.03822" lon="-2.71142">
        <ele>63</ele>
        <time>2021-08-08T10:13:35Z</time>
      </trkpt>
      <trkpt lat="48.03826" lon="-2.71146">
        <ele>63</ele>
        <time>2021-08-08T10:13:36Z</time>
      </trkpt>
      <trkpt lat="48.0383" lon="-2.7115">
        <ele>63</ele>
        <time>2021-08-08T10:13:37Z</time>
      </trkpt>
      <trkpt lat="48.03834" lon="-2.71153">
        <ele>63</ele>
        <time>2021-08-08T10:13:38Z</time>
      </trkpt>
      <trkpt lat="48.03838" lon="-2.71157">
        <ele>63</ele>
        <time>2021-08-08T10:13:39Z</time>
      </trkpt>
      <trkpt lat="48.03842" lon="-2.71161">
        <ele>62.8</ele>
        <time>2021-08-08T10:13:40Z</time>
      </trkpt>
      <trkpt lat="48.03846" lon="-2.71164">
        <ele>63</ele>
        <time>2021-08-08T10:13:41Z</time>
      </trkpt>
      <trkpt lat="48.03849" lon="-2.71168">
        <ele>63</ele>
        <time>2021-08-08T10:13:42Z</time>
      </trkpt>
      <trkpt lat="48.03853" lon="-2.71172">
        <ele>63</ele>
        <time>2021-08-08T10:13:43Z</time>
      </trkpt>
      <trkpt lat="48.03857" lon="-2.71175">
        <ele>63</ele>
        <time>2021-08-08T10:13:44Z</time>
      </trkpt>
      <trkpt lat="48.03861" lon="-2.71179">
        <ele>63</ele>
        <time>2021-08-08T10:13:45Z</time>
      </trkpt>
      <trkpt lat="48.03866" lon="-2.71185">
        <ele>63.2</ele>
        <time>2021-08-08T10:13:46Z</time>
      </trkpt>
      <trkpt lat="48.0387" lon="-2.7119">
        <ele>63</ele>
        <time>2021-08-08T10:13:47Z</time>
      </trkpt>
      <trkpt lat="48.03873" lon="-2.71193">
        <ele>63</ele>
        <time>2021-08-08T10:13:48Z</time>
      </trkpt>
      <trkpt lat="48.03877" lon="-2.71197">
        <ele>63</ele>
        <time>2021-08-08T10:13:49Z</time>
      </trkpt>
      <trkpt lat="48.03881" lon="-2.71201">
        <ele>63</ele>
        <time>2021-08-08T10:13:50Z</time>
      </trkpt>
      <trkpt lat="48.03885" lon="-2.71204">
        <ele>63</ele>
        <time>2021-08-08T10:13:51Z</time>
      </trkpt>
      <trkpt lat="48.0389" lon="-2.71209">
        <ele>63</ele>
        <time>2021-08-08T10:13:52Z</time>
      </trkpt>
      <trkpt lat="48.03894" lon="-2.71213">
        <ele>63</ele>
        <time>2021-08-08T10:13:53Z</time>
      </trkpt>
      <trkpt lat="48.03899" lon="-2.71217">
        <ele>63</ele>
        <time>2021-08-08T10:13:54Z</time>
      </trkpt>
      <trkpt lat="48.03903" lon="-2.71221">
        <ele>63</ele>
        <time>2021-08-08T10:13:55Z</time>
      </trkpt>
      <trkpt lat="48.03907" lon="-2.71225">
        <ele>63.2</ele>
        <time>2021-08-08T10:13:56Z</time>
      </trkpt>
      <trkpt lat="48.03912" lon="-2.7123">
        <ele>63.2</ele>
        <time>2021-08-08T10:13:57Z</time>
      </trkpt>
      <trkpt lat="48.03916" lon="-2.71234">
        <ele>63.2</ele>
        <time>2021-08-08T10:13:58Z</time>
      </trkpt>
      <trkpt lat="48.03921" lon="-2.71239">
        <ele>63.2</ele>
        <time>2021-08-08T10:13:59Z</time>
      </trkpt>
      <trkpt lat="48.03926" lon="-2.71243">
        <ele>63.2</ele>
        <time>2021-08-08T10:14:00Z</time>
      </trkpt>
      <trkpt lat="48.0393" lon="-2.71248">
        <ele>63.2</ele>
        <time>2021-08-08T10:14:01Z</time>
      </trkpt>
      <trkpt lat="48.03935" lon="-2.71253">
        <ele>63.2</ele>
        <time>2021-08-08T10:14:02Z</time>
      </trkpt>
      <trkpt lat="48.0394" lon="-2.71257">
        <ele>63.2</ele>
        <time>2021-08-08T10:14:03Z</time>
      </trkpt>
      <trkpt lat="48.03944" lon="-2.71261">
        <ele>63.2</ele>
        <time>2021-08-08T10:14:04Z</time>
      </trkpt>
      <trkpt lat="48.03948" lon="-2.71266">
        <ele>63.2</ele>
        <time>2021-08-08T10:14:05Z</time>
      </trkpt>
      <trkpt lat="48.03953" lon="-2.7127">
        <ele>63.2</ele>
        <time>2021-08-08T10:14:06Z</time>
      </trkpt>
      <trkpt lat="48.03957" lon="-2.71274">
        <ele>63.2</ele>
        <time>2021-08-08T10:14:07Z</time>
      </trkpt>
      <trkpt lat="48.03962" lon="-2.71278">
        <ele>63.2</ele>
        <time>2021-08-08T10:14:08Z</time>
      </trkpt>
      <trkpt lat="48.03967" lon="-2.71283">
        <ele>63.2</ele>
        <time>2021-08-08T10:14:09Z</time>
      </trkpt>
      <trkpt lat="48.03972" lon="-2.71287">
        <ele>63.2</ele>
        <time>2021-08-08T10:14:10Z</time>
      </trkpt>
      <trkpt lat="48.03976" lon="-2.71291">
        <ele>63.2</ele>
        <time>2021-08-08T10:14:11Z</time>
      </trkpt>
      <trkpt lat="48.03981" lon="-2.71296">
        <ele>63.2</ele>
        <time>2021-08-08T10:14:12Z</time>
      </trkpt>
      <trkpt lat="48.03986" lon="-2.71301">
        <ele>63.2</ele>
        <time>2021-08-08T10:14:13Z</time>
      </trkpt>
      <trkpt lat="48.03991" lon="-2.71305">
        <ele>63.2</ele>
        <time>2021-08-08T10:14:14Z</time>
      </trkpt>
      <trkpt lat="48.03995" lon="-2.7131">
        <ele>63.2</ele>
        <time>2021-08-08T10:14:15Z</time>
      </trkpt>
      <trkpt lat="48.04" lon="-2.71314">
        <ele>63.2</ele>
        <time>2021-08-08T10:14:16Z</time>
      </trkpt>
      <trkpt lat="48.04005" lon="-2.71319">
        <ele>63.4</ele>
        <time>2021-08-08T10:14:17Z</time>
      </trkpt>
      <trkpt lat="48.04009" lon="-2.71323">
        <ele>63.4</ele>
        <time>2021-08-08T10:14:18Z</time>
      </trkpt>
      <trkpt lat="48.04014" lon="-2.71328">
        <ele>63.4</ele>
        <time>2021-08-08T10:14:19Z</time>
      </trkpt>
      <trkpt lat="48.04019" lon="-2.71332">
        <ele>63.4</ele>
        <time>2021-08-08T10:14:20Z</time>
      </trkpt>
      <trkpt lat="48.04023" lon="-2.71337">
        <ele>63.4</ele>
        <time>2021-08-08T10:14:21Z</time>
      </trkpt>
      <trkpt lat="48.04028" lon="-2.71341">
        <ele>63.4</ele>
        <time>2021-08-08T10:14:22Z</time>
      </trkpt>
      <trkpt lat="48.04032" lon="-2.71345">
        <ele>63.4</ele>
        <time>2021-08-08T10:14:23Z</time>
      </trkpt>
      <trkpt lat="48.04037" lon="-2.7135">
        <ele>63.6</ele>
        <time>2021-08-08T10:14:24Z</time>
      </trkpt>
      <trkpt lat="48.04041" lon="-2.71354">
        <ele>63.6</ele>
        <time>2021-08-08T10:14:25Z</time>
      </trkpt>
      <trkpt lat="48.04045" lon="-2.71358">
        <ele>63.6</ele>
        <time>2021-08-08T10:14:26Z</time>
      </trkpt>
      <trkpt lat="48.04049" lon="-2.71362">
        <ele>63.6</ele>
        <time>2021-08-08T10:14:27Z</time>
      </trkpt>
      <trkpt lat="48.04053" lon="-2.71365">
        <ele>63.6</ele>
        <time>2021-08-08T10:14:28Z</time>
      </trkpt>
      <trkpt lat="48.04057" lon="-2.71369">
        <ele>63.6</ele>
        <time>2021-08-08T10:14:29Z</time>
      </trkpt>
      <trkpt lat="48.0406" lon="-2.71372">
        <ele>63.6</ele>
        <time>2021-08-08T10:14:30Z</time>
      </trkpt>
      <trkpt lat="48.04064" lon="-2.71375">
        <ele>63.6</ele>
        <time>2021-08-08T10:14:31Z</time>
      </trkpt>
      <trkpt lat="48.04067" lon="-2.71378">
        <ele>63.6</ele>
        <time>2021-08-08T10:14:32Z</time>
      </trkpt>
      <trkpt lat="48.04071" lon="-2.71381">
        <ele>63.8</ele>
        <time>2021-08-08T10:14:33Z</time>
      </trkpt>
      <trkpt lat="48.04075" lon="-2.71384">
        <ele>63.8</ele>
        <time>2021-08-08T10:14:34Z</time>
      </trkpt>
      <trkpt lat="48.04079" lon="-2.71387">
        <ele>63.8</ele>
        <time>2021-08-08T10:14:35Z</time>
      </trkpt>
      <trkpt lat="48.04083" lon="-2.71391">
        <ele>63.6</ele>
        <time>2021-08-08T10:14:36Z</time>
      </trkpt>
      <trkpt lat="48.04087" lon="-2.71394">
        <ele>63.6</ele>
        <time>2021-08-08T10:14:37Z</time>
      </trkpt>
      <trkpt lat="48.04091" lon="-2.71397">
        <ele>63.6</ele>
        <time>2021-08-08T10:14:38Z</time>
      </trkpt>
      <trkpt lat="48.04094" lon="-2.71401">
        <ele>63.6</ele>
        <time>2021-08-08T10:14:39Z</time>
      </trkpt>
      <trkpt lat="48.04098" lon="-2.71404">
        <ele>63.6</ele>
        <time>2021-08-08T10:14:40Z</time>
      </trkpt>
      <trkpt lat="48.04102" lon="-2.71407">
        <ele>63.6</ele>
        <time>2021-08-08T10:14:41Z</time>
      </trkpt>
      <trkpt lat="48.04106" lon="-2.7141">
        <ele>63.6</ele>
        <time>2021-08-08T10:14:42Z</time>
      </trkpt>
      <trkpt lat="48.0411" lon="-2.71414">
        <ele>63.6</ele>
        <time>2021-08-08T10:14:43Z</time>
      </trkpt>
      <trkpt lat="48.04114" lon="-2.71417">
        <ele>63.6</ele>
        <time>2021-08-08T10:14:44Z</time>
      </trkpt>
      <trkpt lat="48.04117" lon="-2.71421">
        <ele>63.6</ele>
        <time>2021-08-08T10:14:45Z</time>
      </trkpt>
      <trkpt lat="48.04121" lon="-2.71425">
        <ele>63.6</ele>
        <time>2021-08-08T10:14:46Z</time>
      </trkpt>
      <trkpt lat="48.04124" lon="-2.71429">
        <ele>63.4</ele>
        <time>2021-08-08T10:14:47Z</time>
      </trkpt>
      <trkpt lat="48.04128" lon="-2.71433">
        <ele>63.4</ele>
        <time>2021-08-08T10:14:48Z</time>
      </trkpt>
      <trkpt lat="48.04132" lon="-2.71437">
        <ele>63.4</ele>
        <time>2021-08-08T10:14:49Z</time>
      </trkpt>
      <trkpt lat="48.04136" lon="-2.71442">
        <ele>63.4</ele>
        <time>2021-08-08T10:14:50Z</time>
      </trkpt>
      <trkpt lat="48.0414" lon="-2.71446">
        <ele>63.4</ele>
        <time>2021-08-08T10:14:51Z</time>
      </trkpt>
      <trkpt lat="48.04144" lon="-2.7145">
        <ele>63.4</ele>
        <time>2021-08-08T10:14:52Z</time>
      </trkpt>
      <trkpt lat="48.04148" lon="-2.71455">
        <ele>63.4</ele>
        <time>2021-08-08T10:14:53Z</time>
      </trkpt>
      <trkpt lat="48.04152" lon="-2.71459">
        <ele>63.4</ele>
        <time>2021-08-08T10:14:54Z</time>
      </trkpt>
      <trkpt lat="48.04156" lon="-2.71464">
        <ele>63.6</ele>
        <time>2021-08-08T10:14:55Z</time>
      </trkpt>
      <trkpt lat="48.0416" lon="-2.71469">
        <ele>63.6</ele>
        <time>2021-08-08T10:14:56Z</time>
      </trkpt>
      <trkpt lat="48.04163" lon="-2.71475">
        <ele>63.6</ele>
        <time>2021-08-08T10:14:57Z</time>
      </trkpt>
      <trkpt lat="48.04167" lon="-2.7148">
        <ele>63.8</ele>
        <time>2021-08-08T10:14:58Z</time>
      </trkpt>
      <trkpt lat="48.04169" lon="-2.71485">
        <ele>64</ele>
        <time>2021-08-08T10:14:59Z</time>
      </trkpt>
      <trkpt lat="48.04173" lon="-2.71489">
        <ele>64</ele>
        <time>2021-08-08T10:15:00Z</time>
      </trkpt>
      <trkpt lat="48.04176" lon="-2.71494">
        <ele>64</ele>
        <time>2021-08-08T10:15:01Z</time>
      </trkpt>
      <trkpt lat="48.04179" lon="-2.715">
        <ele>64</ele>
        <time>2021-08-08T10:15:02Z</time>
      </trkpt>
      <trkpt lat="48.04182" lon="-2.71508">
        <ele>64</ele>
        <time>2021-08-08T10:15:03Z</time>
      </trkpt>
      <trkpt lat="48.04186" lon="-2.71516">
        <ele>64</ele>
        <time>2021-08-08T10:15:04Z</time>
      </trkpt>
      <trkpt lat="48.0419" lon="-2.71525">
        <ele>64</ele>
        <time>2021-08-08T10:15:05Z</time>
      </trkpt>
      <trkpt lat="48.04194" lon="-2.71533">
        <ele>64</ele>
        <time>2021-08-08T10:15:06Z</time>
      </trkpt>
      <trkpt lat="48.04198" lon="-2.71541">
        <ele>64</ele>
        <time>2021-08-08T10:15:07Z</time>
      </trkpt>
      <trkpt lat="48.04202" lon="-2.71548">
        <ele>64</ele>
        <time>2021-08-08T10:15:08Z</time>
      </trkpt>
      <trkpt lat="48.04206" lon="-2.71556">
        <ele>64</ele>
        <time>2021-08-08T10:15:09Z</time>
      </trkpt>
      <trkpt lat="48.0421" lon="-2.71564">
        <ele>64</ele>
        <time>2021-08-08T10:15:10Z</time>
      </trkpt>
      <trkpt lat="48.04214" lon="-2.71571">
        <ele>64</ele>
        <time>2021-08-08T10:15:11Z</time>
      </trkpt>
      <trkpt lat="48.04218" lon="-2.71578">
        <ele>64</ele>
        <time>2021-08-08T10:15:12Z</time>
      </trkpt>
      <trkpt lat="48.04223" lon="-2.71586">
        <ele>64</ele>
        <time>2021-08-08T10:15:13Z</time>
      </trkpt>
      <trkpt lat="48.04227" lon="-2.71593">
        <ele>63.8</ele>
        <time>2021-08-08T10:15:14Z</time>
      </trkpt>
      <trkpt lat="48.0423" lon="-2.716">
        <ele>64</ele>
        <time>2021-08-08T10:15:15Z</time>
      </trkpt>
      <trkpt lat="48.04234" lon="-2.71607">
        <ele>63.8</ele>
        <time>2021-08-08T10:15:16Z</time>
      </trkpt>
      <trkpt lat="48.04237" lon="-2.71613">
        <ele>63.8</ele>
        <time>2021-08-08T10:15:17Z</time>
      </trkpt>
      <trkpt lat="48.0424" lon="-2.71619">
        <ele>63.8</ele>
        <time>2021-08-08T10:15:18Z</time>
      </trkpt>
      <trkpt lat="48.04243" lon="-2.71625">
        <ele>63.8</ele>
        <time>2021-08-08T10:15:19Z</time>
      </trkpt>
      <trkpt lat="48.04246" lon="-2.71631">
        <ele>63.8</ele>
        <time>2021-08-08T10:15:20Z</time>
      </trkpt>
      <trkpt lat="48.04248" lon="-2.71636">
        <ele>63.8</ele>
        <time>2021-08-08T10:15:21Z</time>
      </trkpt>
      <trkpt lat="48.04251" lon="-2.7164">
        <ele>63.8</ele>
        <time>2021-08-08T10:15:22Z</time>
      </trkpt>
      <trkpt lat="48.04253" lon="-2.71644">
        <ele>63.8</ele>
        <time>2021-08-08T10:15:23Z</time>
      </trkpt>
      <trkpt lat="48.04255" lon="-2.71648">
        <ele>63.8</ele>
        <time>2021-08-08T10:15:24Z</time>
      </trkpt>
      <trkpt lat="48.04257" lon="-2.71652">
        <ele>63.8</ele>
        <time>2021-08-08T10:15:25Z</time>
      </trkpt>
      <trkpt lat="48.0426" lon="-2.71656">
        <ele>63.8</ele>
        <time>2021-08-08T10:15:26Z</time>
      </trkpt>
      <trkpt lat="48.04261" lon="-2.7166">
        <ele>63.8</ele>
        <time>2021-08-08T10:15:27Z</time>
      </trkpt>
      <trkpt lat="48.04264" lon="-2.71664">
        <ele>63.8</ele>
        <time>2021-08-08T10:15:28Z</time>
      </trkpt>
      <trkpt lat="48.04266" lon="-2.71667">
        <ele>63.8</ele>
        <time>2021-08-08T10:15:29Z</time>
      </trkpt>
      <trkpt lat="48.04268" lon="-2.71671">
        <ele>64</ele>
        <time>2021-08-08T10:15:30Z</time>
      </trkpt>
      <trkpt lat="48.0427" lon="-2.71674">
        <ele>64.2</ele>
        <time>2021-08-08T10:15:31Z</time>
      </trkpt>
      <trkpt lat="48.04272" lon="-2.71677">
        <ele>64.6</ele>
        <time>2021-08-08T10:15:32Z</time>
      </trkpt>
      <trkpt lat="48.04274" lon="-2.71681">
        <ele>64.8</ele>
        <time>2021-08-08T10:15:33Z</time>
      </trkpt>
      <trkpt lat="48.04276" lon="-2.71684">
        <ele>64.8</ele>
        <time>2021-08-08T10:15:34Z</time>
      </trkpt>
      <trkpt lat="48.04278" lon="-2.71687">
        <ele>64.8</ele>
        <time>2021-08-08T10:15:35Z</time>
      </trkpt>
      <trkpt lat="48.0428" lon="-2.7169">
        <ele>65</ele>
        <time>2021-08-08T10:15:36Z</time>
      </trkpt>
      <trkpt lat="48.04283" lon="-2.71694">
        <ele>65</ele>
        <time>2021-08-08T10:15:37Z</time>
      </trkpt>
      <trkpt lat="48.04286" lon="-2.71698">
        <ele>65</ele>
        <time>2021-08-08T10:15:38Z</time>
      </trkpt>
      <trkpt lat="48.04288" lon="-2.71702">
        <ele>65</ele>
        <time>2021-08-08T10:15:39Z</time>
      </trkpt>
      <trkpt lat="48.0429" lon="-2.71706">
        <ele>65</ele>
        <time>2021-08-08T10:15:40Z</time>
      </trkpt>
      <trkpt lat="48.04293" lon="-2.71711">
        <ele>65</ele>
        <time>2021-08-08T10:15:41Z</time>
      </trkpt>
      <trkpt lat="48.04296" lon="-2.71715">
        <ele>65</ele>
        <time>2021-08-08T10:15:42Z</time>
      </trkpt>
      <trkpt lat="48.04299" lon="-2.7172">
        <ele>65</ele>
        <time>2021-08-08T10:15:43Z</time>
      </trkpt>
      <trkpt lat="48.04302" lon="-2.71725">
        <ele>65</ele>
        <time>2021-08-08T10:15:44Z</time>
      </trkpt>
      <trkpt lat="48.04305" lon="-2.7173">
        <ele>65</ele>
        <time>2021-08-08T10:15:45Z</time>
      </trkpt>
      <trkpt lat="48.04308" lon="-2.71735">
        <ele>65</ele>
        <time>2021-08-08T10:15:46Z</time>
      </trkpt>
      <trkpt lat="48.04311" lon="-2.7174">
        <ele>65</ele>
        <time>2021-08-08T10:15:47Z</time>
      </trkpt>
      <trkpt lat="48.04313" lon="-2.71745">
        <ele>64.8</ele>
        <time>2021-08-08T10:15:48Z</time>
      </trkpt>
      <trkpt lat="48.04315" lon="-2.7175">
        <ele>64.8</ele>
        <time>2021-08-08T10:15:49Z</time>
      </trkpt>
      <trkpt lat="48.04317" lon="-2.71754">
        <ele>64.8</ele>
        <time>2021-08-08T10:15:50Z</time>
      </trkpt>
      <trkpt lat="48.0432" lon="-2.71759">
        <ele>64.8</ele>
        <time>2021-08-08T10:15:51Z</time>
      </trkpt>
      <trkpt lat="48.04322" lon="-2.71765">
        <ele>64.8</ele>
        <time>2021-08-08T10:15:52Z</time>
      </trkpt>
      <trkpt lat="48.04325" lon="-2.71771">
        <ele>64.8</ele>
        <time>2021-08-08T10:15:53Z</time>
      </trkpt>
      <trkpt lat="48.04328" lon="-2.71778">
        <ele>64.8</ele>
        <time>2021-08-08T10:15:54Z</time>
      </trkpt>
      <trkpt lat="48.04332" lon="-2.71784">
        <ele>64.8</ele>
        <time>2021-08-08T10:15:55Z</time>
      </trkpt>
      <trkpt lat="48.04335" lon="-2.71791">
        <ele>64.8</ele>
        <time>2021-08-08T10:15:56Z</time>
      </trkpt>
      <trkpt lat="48.04339" lon="-2.71798">
        <ele>64.8</ele>
        <time>2021-08-08T10:15:57Z</time>
      </trkpt>
      <trkpt lat="48.04343" lon="-2.71805">
        <ele>64.6</ele>
        <time>2021-08-08T10:15:58Z</time>
      </trkpt>
      <trkpt lat="48.04346" lon="-2.71812">
        <ele>64.6</ele>
        <time>2021-08-08T10:15:59Z</time>
      </trkpt>
      <trkpt lat="48.0435" lon="-2.71819">
        <ele>64.6</ele>
        <time>2021-08-08T10:16:00Z</time>
      </trkpt>
      <trkpt lat="48.04354" lon="-2.71826">
        <ele>64.6</ele>
        <time>2021-08-08T10:16:01Z</time>
      </trkpt>
      <trkpt lat="48.04357" lon="-2.71833">
        <ele>64.6</ele>
        <time>2021-08-08T10:16:02Z</time>
      </trkpt>
      <trkpt lat="48.0436" lon="-2.7184">
        <ele>64.6</ele>
        <time>2021-08-08T10:16:03Z</time>
      </trkpt>
      <trkpt lat="48.04363" lon="-2.71847">
        <ele>64.6</ele>
        <time>2021-08-08T10:16:04Z</time>
      </trkpt>
      <trkpt lat="48.04367" lon="-2.71853">
        <ele>64.6</ele>
        <time>2021-08-08T10:16:05Z</time>
      </trkpt>
      <trkpt lat="48.0437" lon="-2.7186">
        <ele>64.6</ele>
        <time>2021-08-08T10:16:06Z</time>
      </trkpt>
      <trkpt lat="48.04374" lon="-2.71866">
        <ele>64.4</ele>
        <time>2021-08-08T10:16:07Z</time>
      </trkpt>
      <trkpt lat="48.04377" lon="-2.71873">
        <ele>64.4</ele>
        <time>2021-08-08T10:16:08Z</time>
      </trkpt>
      <trkpt lat="48.0438" lon="-2.71879">
        <ele>64.2</ele>
        <time>2021-08-08T10:16:09Z</time>
      </trkpt>
      <trkpt lat="48.04384" lon="-2.71885">
        <ele>64</ele>
        <time>2021-08-08T10:16:10Z</time>
      </trkpt>
      <trkpt lat="48.04387" lon="-2.71891">
        <ele>64</ele>
        <time>2021-08-08T10:16:11Z</time>
      </trkpt>
      <trkpt lat="48.0439" lon="-2.71897">
        <ele>64</ele>
        <time>2021-08-08T10:16:12Z</time>
      </trkpt>
      <trkpt lat="48.04393" lon="-2.71903">
        <ele>64</ele>
        <time>2021-08-08T10:16:13Z</time>
      </trkpt>
      <trkpt lat="48.04395" lon="-2.71908">
        <ele>64</ele>
        <time>2021-08-08T10:16:14Z</time>
      </trkpt>
      <trkpt lat="48.04398" lon="-2.71913">
        <ele>63.8</ele>
        <time>2021-08-08T10:16:15Z</time>
      </trkpt>
      <trkpt lat="48.044" lon="-2.71918">
        <ele>63.8</ele>
        <time>2021-08-08T10:16:16Z</time>
      </trkpt>
      <trkpt lat="48.04403" lon="-2.71923">
        <ele>63.8</ele>
        <time>2021-08-08T10:16:17Z</time>
      </trkpt>
      <trkpt lat="48.04405" lon="-2.71928">
        <ele>63.8</ele>
        <time>2021-08-08T10:16:18Z</time>
      </trkpt>
      <trkpt lat="48.04408" lon="-2.71934">
        <ele>63.8</ele>
        <time>2021-08-08T10:16:19Z</time>
      </trkpt>
      <trkpt lat="48.04411" lon="-2.71939">
        <ele>63.6</ele>
        <time>2021-08-08T10:16:20Z</time>
      </trkpt>
      <trkpt lat="48.04415" lon="-2.71944">
        <ele>63.6</ele>
        <time>2021-08-08T10:16:21Z</time>
      </trkpt>
      <trkpt lat="48.04418" lon="-2.7195">
        <ele>63.6</ele>
        <time>2021-08-08T10:16:22Z</time>
      </trkpt>
      <trkpt lat="48.04421" lon="-2.71955">
        <ele>63.6</ele>
        <time>2021-08-08T10:16:23Z</time>
      </trkpt>
      <trkpt lat="48.04424" lon="-2.71961">
        <ele>63.6</ele>
        <time>2021-08-08T10:16:24Z</time>
      </trkpt>
      <trkpt lat="48.04427" lon="-2.71966">
        <ele>63.6</ele>
        <time>2021-08-08T10:16:25Z</time>
      </trkpt>
      <trkpt lat="48.0443" lon="-2.71972">
        <ele>63.4</ele>
        <time>2021-08-08T10:16:26Z</time>
      </trkpt>
      <trkpt lat="48.04432" lon="-2.71977">
        <ele>63.4</ele>
        <time>2021-08-08T10:16:27Z</time>
      </trkpt>
      <trkpt lat="48.04435" lon="-2.71982">
        <ele>63.2</ele>
        <time>2021-08-08T10:16:28Z</time>
      </trkpt>
      <trkpt lat="48.04438" lon="-2.71987">
        <ele>63.2</ele>
        <time>2021-08-08T10:16:29Z</time>
      </trkpt>
      <trkpt lat="48.0444" lon="-2.71992">
        <ele>63.2</ele>
        <time>2021-08-08T10:16:30Z</time>
      </trkpt>
      <trkpt lat="48.04443" lon="-2.71997">
        <ele>63.2</ele>
        <time>2021-08-08T10:16:31Z</time>
      </trkpt>
      <trkpt lat="48.04446" lon="-2.72002">
        <ele>63.2</ele>
        <time>2021-08-08T10:16:32Z</time>
      </trkpt>
      <trkpt lat="48.04449" lon="-2.72007">
        <ele>63.2</ele>
        <time>2021-08-08T10:16:33Z</time>
      </trkpt>
      <trkpt lat="48.04452" lon="-2.72012">
        <ele>63</ele>
        <time>2021-08-08T10:16:34Z</time>
      </trkpt>
      <trkpt lat="48.04455" lon="-2.72018">
        <ele>63</ele>
        <time>2021-08-08T10:16:35Z</time>
      </trkpt>
      <trkpt lat="48.04458" lon="-2.72023">
        <ele>63</ele>
        <time>2021-08-08T10:16:36Z</time>
      </trkpt>
      <trkpt lat="48.0446" lon="-2.72028">
        <ele>63</ele>
        <time>2021-08-08T10:16:37Z</time>
      </trkpt>
      <trkpt lat="48.04463" lon="-2.72033">
        <ele>63</ele>
        <time>2021-08-08T10:16:38Z</time>
      </trkpt>
      <trkpt lat="48.04466" lon="-2.72039">
        <ele>63.2</ele>
        <time>2021-08-08T10:16:39Z</time>
      </trkpt>
      <trkpt lat="48.04469" lon="-2.72044">
        <ele>63.2</ele>
        <time>2021-08-08T10:16:40Z</time>
      </trkpt>
      <trkpt lat="48.04472" lon="-2.7205">
        <ele>63.2</ele>
        <time>2021-08-08T10:16:41Z</time>
      </trkpt>
      <trkpt lat="48.04475" lon="-2.72055">
        <ele>63.2</ele>
        <time>2021-08-08T10:16:42Z</time>
      </trkpt>
      <trkpt lat="48.04478" lon="-2.72061">
        <ele>63.2</ele>
        <time>2021-08-08T10:16:43Z</time>
      </trkpt>
      <trkpt lat="48.0448" lon="-2.72066">
        <ele>63.2</ele>
        <time>2021-08-08T10:16:44Z</time>
      </trkpt>
      <trkpt lat="48.04483" lon="-2.72071">
        <ele>63.4</ele>
        <time>2021-08-08T10:16:45Z</time>
      </trkpt>
      <trkpt lat="48.04486" lon="-2.72076">
        <ele>63.4</ele>
        <time>2021-08-08T10:16:46Z</time>
      </trkpt>
      <trkpt lat="48.04489" lon="-2.72081">
        <ele>63.6</ele>
        <time>2021-08-08T10:16:47Z</time>
      </trkpt>
      <trkpt lat="48.04492" lon="-2.72086">
        <ele>63.6</ele>
        <time>2021-08-08T10:16:48Z</time>
      </trkpt>
      <trkpt lat="48.04495" lon="-2.72091">
        <ele>63.8</ele>
        <time>2021-08-08T10:16:49Z</time>
      </trkpt>
      <trkpt lat="48.04498" lon="-2.72097">
        <ele>63.8</ele>
        <time>2021-08-08T10:16:50Z</time>
      </trkpt>
      <trkpt lat="48.045" lon="-2.72102">
        <ele>63.8</ele>
        <time>2021-08-08T10:16:51Z</time>
      </trkpt>
      <trkpt lat="48.04503" lon="-2.72108">
        <ele>63.8</ele>
        <time>2021-08-08T10:16:52Z</time>
      </trkpt>
      <trkpt lat="48.04506" lon="-2.72113">
        <ele>63.8</ele>
        <time>2021-08-08T10:16:53Z</time>
      </trkpt>
      <trkpt lat="48.04509" lon="-2.72118">
        <ele>64</ele>
        <time>2021-08-08T10:16:54Z</time>
      </trkpt>
      <trkpt lat="48.04512" lon="-2.72124">
        <ele>64</ele>
        <time>2021-08-08T10:16:55Z</time>
      </trkpt>
      <trkpt lat="48.04514" lon="-2.72129">
        <ele>64</ele>
        <time>2021-08-08T10:16:56Z</time>
      </trkpt>
      <trkpt lat="48.04516" lon="-2.72134">
        <ele>64</ele>
        <time>2021-08-08T10:16:57Z</time>
      </trkpt>
      <trkpt lat="48.04519" lon="-2.72139">
        <ele>64</ele>
        <time>2021-08-08T10:16:58Z</time>
      </trkpt>
      <trkpt lat="48.04522" lon="-2.72143">
        <ele>64</ele>
        <time>2021-08-08T10:16:59Z</time>
      </trkpt>
      <trkpt lat="48.04525" lon="-2.72148">
        <ele>64</ele>
        <time>2021-08-08T10:17:00Z</time>
      </trkpt>
      <trkpt lat="48.04527" lon="-2.72153">
        <ele>64</ele>
        <time>2021-08-08T10:17:01Z</time>
      </trkpt>
      <trkpt lat="48.0453" lon="-2.72158">
        <ele>64</ele>
        <time>2021-08-08T10:17:02Z</time>
      </trkpt>
      <trkpt lat="48.04532" lon="-2.72163">
        <ele>64</ele>
        <time>2021-08-08T10:17:03Z</time>
      </trkpt>
      <trkpt lat="48.04535" lon="-2.72168">
        <ele>64</ele>
        <time>2021-08-08T10:17:04Z</time>
      </trkpt>
      <trkpt lat="48.04538" lon="-2.72173">
        <ele>64</ele>
        <time>2021-08-08T10:17:05Z</time>
      </trkpt>
      <trkpt lat="48.04541" lon="-2.72179">
        <ele>64</ele>
        <time>2021-08-08T10:17:06Z</time>
      </trkpt>
      <trkpt lat="48.04544" lon="-2.72184">
        <ele>64.2</ele>
        <time>2021-08-08T10:17:07Z</time>
      </trkpt>
      <trkpt lat="48.04548" lon="-2.7219">
        <ele>64.2</ele>
        <time>2021-08-08T10:17:08Z</time>
      </trkpt>
      <trkpt lat="48.04551" lon="-2.72196">
        <ele>64.4</ele>
        <time>2021-08-08T10:17:09Z</time>
      </trkpt>
      <trkpt lat="48.04554" lon="-2.72201">
        <ele>64.4</ele>
        <time>2021-08-08T10:17:10Z</time>
      </trkpt>
      <trkpt lat="48.04557" lon="-2.72207">
        <ele>64.2</ele>
        <time>2021-08-08T10:17:11Z</time>
      </trkpt>
      <trkpt lat="48.0456" lon="-2.72213">
        <ele>64.2</ele>
        <time>2021-08-08T10:17:12Z</time>
      </trkpt>
      <trkpt lat="48.04563" lon="-2.72218">
        <ele>64</ele>
        <time>2021-08-08T10:17:13Z</time>
      </trkpt>
      <trkpt lat="48.04566" lon="-2.72224">
        <ele>64</ele>
        <time>2021-08-08T10:17:14Z</time>
      </trkpt>
      <trkpt lat="48.0457" lon="-2.72229">
        <ele>64</ele>
        <time>2021-08-08T10:17:15Z</time>
      </trkpt>
      <trkpt lat="48.04573" lon="-2.72235">
        <ele>63.8</ele>
        <time>2021-08-08T10:17:16Z</time>
      </trkpt>
      <trkpt lat="48.04576" lon="-2.72241">
        <ele>63.8</ele>
        <time>2021-08-08T10:17:17Z</time>
      </trkpt>
      <trkpt lat="48.04579" lon="-2.72247">
        <ele>63.6</ele>
        <time>2021-08-08T10:17:18Z</time>
      </trkpt>
      <trkpt lat="48.04582" lon="-2.72253">
        <ele>63.6</ele>
        <time>2021-08-08T10:17:19Z</time>
      </trkpt>
      <trkpt lat="48.04585" lon="-2.72258">
        <ele>63.4</ele>
        <time>2021-08-08T10:17:20Z</time>
      </trkpt>
      <trkpt lat="48.04588" lon="-2.72264">
        <ele>63.2</ele>
        <time>2021-08-08T10:17:21Z</time>
      </trkpt>
      <trkpt lat="48.04592" lon="-2.72269">
        <ele>63.2</ele>
        <time>2021-08-08T10:17:22Z</time>
      </trkpt>
      <trkpt lat="48.04595" lon="-2.72275">
        <ele>63.2</ele>
        <time>2021-08-08T10:17:23Z</time>
      </trkpt>
      <trkpt lat="48.04598" lon="-2.72282">
        <ele>63</ele>
        <time>2021-08-08T10:17:24Z</time>
      </trkpt>
      <trkpt lat="48.04601" lon="-2.72288">
        <ele>63</ele>
        <time>2021-08-08T10:17:25Z</time>
      </trkpt>
      <trkpt lat="48.04605" lon="-2.72294">
        <ele>62.4</ele>
        <time>2021-08-08T10:17:26Z</time>
      </trkpt>
      <trkpt lat="48.04608" lon="-2.723">
        <ele>62.4</ele>
        <time>2021-08-08T10:17:27Z</time>
      </trkpt>
      <trkpt lat="48.04611" lon="-2.72306">
        <ele>62.2</ele>
        <time>2021-08-08T10:17:28Z</time>
      </trkpt>
      <trkpt lat="48.04615" lon="-2.72312">
        <ele>62.2</ele>
        <time>2021-08-08T10:17:29Z</time>
      </trkpt>
      <trkpt lat="48.04618" lon="-2.72318">
        <ele>62.2</ele>
        <time>2021-08-08T10:17:30Z</time>
      </trkpt>
      <trkpt lat="48.04621" lon="-2.72324">
        <ele>62.2</ele>
        <time>2021-08-08T10:17:31Z</time>
      </trkpt>
      <trkpt lat="48.04624" lon="-2.7233">
        <ele>62.2</ele>
        <time>2021-08-08T10:17:32Z</time>
      </trkpt>
      <trkpt lat="48.04627" lon="-2.72336">
        <ele>62.2</ele>
        <time>2021-08-08T10:17:33Z</time>
      </trkpt>
      <trkpt lat="48.0463" lon="-2.72342">
        <ele>62.2</ele>
        <time>2021-08-08T10:17:34Z</time>
      </trkpt>
      <trkpt lat="48.04633" lon="-2.72348">
        <ele>62.2</ele>
        <time>2021-08-08T10:17:35Z</time>
      </trkpt>
      <trkpt lat="48.04637" lon="-2.72354">
        <ele>62.2</ele>
        <time>2021-08-08T10:17:36Z</time>
      </trkpt>
      <trkpt lat="48.0464" lon="-2.72361">
        <ele>62.2</ele>
        <time>2021-08-08T10:17:37Z</time>
      </trkpt>
      <trkpt lat="48.04644" lon="-2.72367">
        <ele>62.2</ele>
        <time>2021-08-08T10:17:38Z</time>
      </trkpt>
      <trkpt lat="48.04647" lon="-2.72373">
        <ele>62.4</ele>
        <time>2021-08-08T10:17:39Z</time>
      </trkpt>
      <trkpt lat="48.04651" lon="-2.72378">
        <ele>62.4</ele>
        <time>2021-08-08T10:17:40Z</time>
      </trkpt>
      <trkpt lat="48.04654" lon="-2.72384">
        <ele>62.4</ele>
        <time>2021-08-08T10:17:41Z</time>
      </trkpt>
      <trkpt lat="48.04657" lon="-2.7239">
        <ele>62.4</ele>
        <time>2021-08-08T10:17:42Z</time>
      </trkpt>
      <trkpt lat="48.04661" lon="-2.72397">
        <ele>62.6</ele>
        <time>2021-08-08T10:17:43Z</time>
      </trkpt>
      <trkpt lat="48.04664" lon="-2.72403">
        <ele>62.6</ele>
        <time>2021-08-08T10:17:44Z</time>
      </trkpt>
      <trkpt lat="48.04668" lon="-2.7241">
        <ele>62.8</ele>
        <time>2021-08-08T10:17:45Z</time>
      </trkpt>
      <trkpt lat="48.04671" lon="-2.72416">
        <ele>62.8</ele>
        <time>2021-08-08T10:17:46Z</time>
      </trkpt>
      <trkpt lat="48.04674" lon="-2.72423">
        <ele>62.8</ele>
        <time>2021-08-08T10:17:47Z</time>
      </trkpt>
      <trkpt lat="48.04678" lon="-2.72429">
        <ele>63.2</ele>
        <time>2021-08-08T10:17:48Z</time>
      </trkpt>
      <trkpt lat="48.04682" lon="-2.72435">
        <ele>63.4</ele>
        <time>2021-08-08T10:17:49Z</time>
      </trkpt>
      <trkpt lat="48.04685" lon="-2.72442">
        <ele>63.4</ele>
        <time>2021-08-08T10:17:50Z</time>
      </trkpt>
      <trkpt lat="48.04689" lon="-2.72448">
        <ele>63.6</ele>
        <time>2021-08-08T10:17:51Z</time>
      </trkpt>
      <trkpt lat="48.04692" lon="-2.72454">
        <ele>63.6</ele>
        <time>2021-08-08T10:17:52Z</time>
      </trkpt>
      <trkpt lat="48.04695" lon="-2.72461">
        <ele>63.6</ele>
        <time>2021-08-08T10:17:53Z</time>
      </trkpt>
      <trkpt lat="48.04699" lon="-2.72467">
        <ele>63.6</ele>
        <time>2021-08-08T10:17:54Z</time>
      </trkpt>
      <trkpt lat="48.04702" lon="-2.72473">
        <ele>63.8</ele>
        <time>2021-08-08T10:17:55Z</time>
      </trkpt>
      <trkpt lat="48.04705" lon="-2.72479">
        <ele>63.8</ele>
        <time>2021-08-08T10:17:56Z</time>
      </trkpt>
      <trkpt lat="48.04708" lon="-2.72485">
        <ele>63.8</ele>
        <time>2021-08-08T10:17:57Z</time>
      </trkpt>
      <trkpt lat="48.04712" lon="-2.72491">
        <ele>63.8</ele>
        <time>2021-08-08T10:17:58Z</time>
      </trkpt>
      <trkpt lat="48.04715" lon="-2.72497">
        <ele>63.6</ele>
        <time>2021-08-08T10:17:59Z</time>
      </trkpt>
      <trkpt lat="48.04718" lon="-2.72503">
        <ele>63.8</ele>
        <time>2021-08-08T10:18:00Z</time>
      </trkpt>
      <trkpt lat="48.04721" lon="-2.72509">
        <ele>63.8</ele>
        <time>2021-08-08T10:18:01Z</time>
      </trkpt>
      <trkpt lat="48.04724" lon="-2.72515">
        <ele>63.6</ele>
        <time>2021-08-08T10:18:02Z</time>
      </trkpt>
      <trkpt lat="48.04727" lon="-2.72521">
        <ele>63.6</ele>
        <time>2021-08-08T10:18:03Z</time>
      </trkpt>
      <trkpt lat="48.0473" lon="-2.72527">
        <ele>63.6</ele>
        <time>2021-08-08T10:18:04Z</time>
      </trkpt>
      <trkpt lat="48.04734" lon="-2.72532">
        <ele>63.6</ele>
        <time>2021-08-08T10:18:05Z</time>
      </trkpt>
      <trkpt lat="48.04737" lon="-2.72538">
        <ele>63.6</ele>
        <time>2021-08-08T10:18:06Z</time>
      </trkpt>
      <trkpt lat="48.0474" lon="-2.72543">
        <ele>63.6</ele>
        <time>2021-08-08T10:18:07Z</time>
      </trkpt>
      <trkpt lat="48.04743" lon="-2.72549">
        <ele>63.6</ele>
        <time>2021-08-08T10:18:08Z</time>
      </trkpt>
      <trkpt lat="48.04746" lon="-2.72555">
        <ele>63.6</ele>
        <time>2021-08-08T10:18:09Z</time>
      </trkpt>
      <trkpt lat="48.04749" lon="-2.72561">
        <ele>63.6</ele>
        <time>2021-08-08T10:18:10Z</time>
      </trkpt>
      <trkpt lat="48.04752" lon="-2.72566">
        <ele>63.6</ele>
        <time>2021-08-08T10:18:11Z</time>
      </trkpt>
      <trkpt lat="48.04755" lon="-2.72572">
        <ele>63.6</ele>
        <time>2021-08-08T10:18:12Z</time>
      </trkpt>
      <trkpt lat="48.04758" lon="-2.72578">
        <ele>63.6</ele>
        <time>2021-08-08T10:18:13Z</time>
      </trkpt>
      <trkpt lat="48.04761" lon="-2.72584">
        <ele>63.6</ele>
        <time>2021-08-08T10:18:14Z</time>
      </trkpt>
      <trkpt lat="48.04764" lon="-2.7259">
        <ele>63.6</ele>
        <time>2021-08-08T10:18:15Z</time>
      </trkpt>
      <trkpt lat="48.04768" lon="-2.72595">
        <ele>63.6</ele>
        <time>2021-08-08T10:18:16Z</time>
      </trkpt>
      <trkpt lat="48.04771" lon="-2.72601">
        <ele>63.6</ele>
        <time>2021-08-08T10:18:17Z</time>
      </trkpt>
      <trkpt lat="48.04774" lon="-2.72607">
        <ele>63.4</ele>
        <time>2021-08-08T10:18:18Z</time>
      </trkpt>
      <trkpt lat="48.04777" lon="-2.72613">
        <ele>63.4</ele>
        <time>2021-08-08T10:18:19Z</time>
      </trkpt>
      <trkpt lat="48.0478" lon="-2.72619">
        <ele>63.4</ele>
        <time>2021-08-08T10:18:20Z</time>
      </trkpt>
      <trkpt lat="48.04783" lon="-2.72625">
        <ele>63.4</ele>
        <time>2021-08-08T10:18:21Z</time>
      </trkpt>
      <trkpt lat="48.04786" lon="-2.72631">
        <ele>63.4</ele>
        <time>2021-08-08T10:18:22Z</time>
      </trkpt>
      <trkpt lat="48.04789" lon="-2.72636">
        <ele>63.4</ele>
        <time>2021-08-08T10:18:23Z</time>
      </trkpt>
      <trkpt lat="48.04792" lon="-2.72642">
        <ele>63.6</ele>
        <time>2021-08-08T10:18:24Z</time>
      </trkpt>
      <trkpt lat="48.04796" lon="-2.72648">
        <ele>63.6</ele>
        <time>2021-08-08T10:18:25Z</time>
      </trkpt>
      <trkpt lat="48.04799" lon="-2.72654">
        <ele>63.6</ele>
        <time>2021-08-08T10:18:26Z</time>
      </trkpt>
      <trkpt lat="48.04802" lon="-2.7266">
        <ele>63.8</ele>
        <time>2021-08-08T10:18:27Z</time>
      </trkpt>
      <trkpt lat="48.04805" lon="-2.72665">
        <ele>63.8</ele>
        <time>2021-08-08T10:18:28Z</time>
      </trkpt>
      <trkpt lat="48.04808" lon="-2.72671">
        <ele>63.8</ele>
        <time>2021-08-08T10:18:29Z</time>
      </trkpt>
      <trkpt lat="48.04811" lon="-2.72677">
        <ele>63.8</ele>
        <time>2021-08-08T10:18:30Z</time>
      </trkpt>
      <trkpt lat="48.04814" lon="-2.72683">
        <ele>63.8</ele>
        <time>2021-08-08T10:18:31Z</time>
      </trkpt>
      <trkpt lat="48.04817" lon="-2.72689">
        <ele>63.8</ele>
        <time>2021-08-08T10:18:32Z</time>
      </trkpt>
      <trkpt lat="48.0482" lon="-2.72694">
        <ele>63.8</ele>
        <time>2021-08-08T10:18:33Z</time>
      </trkpt>
      <trkpt lat="48.04823" lon="-2.72699">
        <ele>63.8</ele>
        <time>2021-08-08T10:18:34Z</time>
      </trkpt>
      <trkpt lat="48.04826" lon="-2.72704">
        <ele>64</ele>
        <time>2021-08-08T10:18:35Z</time>
      </trkpt>
      <trkpt lat="48.04828" lon="-2.72709">
        <ele>64</ele>
        <time>2021-08-08T10:18:36Z</time>
      </trkpt>
      <trkpt lat="48.04831" lon="-2.72714">
        <ele>64</ele>
        <time>2021-08-08T10:18:37Z</time>
      </trkpt>
      <trkpt lat="48.04834" lon="-2.72719">
        <ele>64.2</ele>
        <time>2021-08-08T10:18:38Z</time>
      </trkpt>
      <trkpt lat="48.04836" lon="-2.72722">
        <ele>64.2</ele>
        <time>2021-08-08T10:18:39Z</time>
      </trkpt>
      <trkpt lat="48.04838" lon="-2.72726">
        <ele>64.2</ele>
        <time>2021-08-08T10:18:40Z</time>
      </trkpt>
      <trkpt lat="48.04841" lon="-2.72729">
        <ele>64.2</ele>
        <time>2021-08-08T10:18:41Z</time>
      </trkpt>
      <trkpt lat="48.04842" lon="-2.72732">
        <ele>64.2</ele>
        <time>2021-08-08T10:18:42Z</time>
      </trkpt>
      <trkpt lat="48.04844" lon="-2.72735">
        <ele>64.2</ele>
        <time>2021-08-08T10:18:43Z</time>
      </trkpt>
      <trkpt lat="48.04846" lon="-2.72737">
        <ele>64.2</ele>
        <time>2021-08-08T10:18:44Z</time>
      </trkpt>
      <trkpt lat="48.04847" lon="-2.72739">
        <ele>64.4</ele>
        <time>2021-08-08T10:18:45Z</time>
      </trkpt>
      <trkpt lat="48.04849" lon="-2.72741">
        <ele>64.6</ele>
        <time>2021-08-08T10:18:46Z</time>
      </trkpt>
      <trkpt lat="48.0485" lon="-2.72743">
        <ele>65</ele>
        <time>2021-08-08T10:18:47Z</time>
      </trkpt>
      <trkpt lat="48.04851" lon="-2.72746">
        <ele>65.4</ele>
        <time>2021-08-08T10:18:48Z</time>
      </trkpt>
      <trkpt lat="48.04852" lon="-2.7275">
        <ele>65.8</ele>
        <time>2021-08-08T10:18:49Z</time>
      </trkpt>
      <trkpt lat="48.04854" lon="-2.72753">
        <ele>66</ele>
        <time>2021-08-08T10:18:50Z</time>
      </trkpt>
      <trkpt lat="48.04856" lon="-2.72755">
        <ele>66.4</ele>
        <time>2021-08-08T10:18:51Z</time>
      </trkpt>
      <trkpt lat="48.04858" lon="-2.72758">
        <ele>66.6</ele>
        <time>2021-08-08T10:18:52Z</time>
      </trkpt>
      <trkpt lat="48.04861" lon="-2.72761">
        <ele>66.8</ele>
        <time>2021-08-08T10:18:53Z</time>
      </trkpt>
      <trkpt lat="48.04863" lon="-2.72765">
        <ele>66.8</ele>
        <time>2021-08-08T10:18:54Z</time>
      </trkpt>
      <trkpt lat="48.04865" lon="-2.72768">
        <ele>67</ele>
        <time>2021-08-08T10:18:55Z</time>
      </trkpt>
      <trkpt lat="48.04866" lon="-2.72772">
        <ele>67</ele>
        <time>2021-08-08T10:18:56Z</time>
      </trkpt>
      <trkpt lat="48.04868" lon="-2.72775">
        <ele>67</ele>
        <time>2021-08-08T10:18:57Z</time>
      </trkpt>
      <trkpt lat="48.0487" lon="-2.72779">
        <ele>67</ele>
        <time>2021-08-08T10:18:58Z</time>
      </trkpt>
      <trkpt lat="48.04871" lon="-2.72783">
        <ele>67</ele>
        <time>2021-08-08T10:18:59Z</time>
      </trkpt>
      <trkpt lat="48.04873" lon="-2.72786">
        <ele>67</ele>
        <time>2021-08-08T10:19:00Z</time>
      </trkpt>
      <trkpt lat="48.04875" lon="-2.72789">
        <ele>67</ele>
        <time>2021-08-08T10:19:01Z</time>
      </trkpt>
      <trkpt lat="48.04876" lon="-2.72793">
        <ele>67</ele>
        <time>2021-08-08T10:19:02Z</time>
      </trkpt>
      <trkpt lat="48.04878" lon="-2.72796">
        <ele>67</ele>
        <time>2021-08-08T10:19:03Z</time>
      </trkpt>
      <trkpt lat="48.0488" lon="-2.72799">
        <ele>67</ele>
        <time>2021-08-08T10:19:04Z</time>
      </trkpt>
      <trkpt lat="48.04882" lon="-2.72803">
        <ele>66.8</ele>
        <time>2021-08-08T10:19:05Z</time>
      </trkpt>
      <trkpt lat="48.04884" lon="-2.72807">
        <ele>66.8</ele>
        <time>2021-08-08T10:19:06Z</time>
      </trkpt>
      <trkpt lat="48.04886" lon="-2.72811">
        <ele>66.8</ele>
        <time>2021-08-08T10:19:07Z</time>
      </trkpt>
      <trkpt lat="48.04888" lon="-2.72815">
        <ele>66.6</ele>
        <time>2021-08-08T10:19:08Z</time>
      </trkpt>
      <trkpt lat="48.04891" lon="-2.72819">
        <ele>66.4</ele>
        <time>2021-08-08T10:19:09Z</time>
      </trkpt>
      <trkpt lat="48.04893" lon="-2.72822">
        <ele>66.2</ele>
        <time>2021-08-08T10:19:10Z</time>
      </trkpt>
      <trkpt lat="48.04895" lon="-2.72825">
        <ele>66.2</ele>
        <time>2021-08-08T10:19:11Z</time>
      </trkpt>
      <trkpt lat="48.04896" lon="-2.72827">
        <ele>66</ele>
        <time>2021-08-08T10:19:12Z</time>
      </trkpt>
      <trkpt lat="48.04898" lon="-2.7283">
        <ele>66</ele>
        <time>2021-08-08T10:19:13Z</time>
      </trkpt>
      <trkpt lat="48.049" lon="-2.72833">
        <ele>66</ele>
        <time>2021-08-08T10:19:14Z</time>
      </trkpt>
      <trkpt lat="48.04902" lon="-2.72837">
        <ele>66</ele>
        <time>2021-08-08T10:19:15Z</time>
      </trkpt>
      <trkpt lat="48.04904" lon="-2.72841">
        <ele>66</ele>
        <time>2021-08-08T10:19:16Z</time>
      </trkpt>
      <trkpt lat="48.04906" lon="-2.72845">
        <ele>66</ele>
        <time>2021-08-08T10:19:17Z</time>
      </trkpt>
      <trkpt lat="48.04909" lon="-2.7285">
        <ele>66</ele>
        <time>2021-08-08T10:19:18Z</time>
      </trkpt>
      <trkpt lat="48.04911" lon="-2.72855">
        <ele>66</ele>
        <time>2021-08-08T10:19:19Z</time>
      </trkpt>
      <trkpt lat="48.04914" lon="-2.7286">
        <ele>66</ele>
        <time>2021-08-08T10:19:20Z</time>
      </trkpt>
      <trkpt lat="48.04917" lon="-2.72865">
        <ele>66</ele>
        <time>2021-08-08T10:19:21Z</time>
      </trkpt>
      <trkpt lat="48.04919" lon="-2.7287">
        <ele>66</ele>
        <time>2021-08-08T10:19:22Z</time>
      </trkpt>
      <trkpt lat="48.04922" lon="-2.72875">
        <ele>66</ele>
        <time>2021-08-08T10:19:23Z</time>
      </trkpt>
      <trkpt lat="48.04925" lon="-2.72879">
        <ele>66</ele>
        <time>2021-08-08T10:19:24Z</time>
      </trkpt>
      <trkpt lat="48.04928" lon="-2.72884">
        <ele>66</ele>
        <time>2021-08-08T10:19:25Z</time>
      </trkpt>
      <trkpt lat="48.04931" lon="-2.72889">
        <ele>66</ele>
        <time>2021-08-08T10:19:26Z</time>
      </trkpt>
      <trkpt lat="48.04934" lon="-2.72894">
        <ele>66</ele>
        <time>2021-08-08T10:19:27Z</time>
      </trkpt>
      <trkpt lat="48.04937" lon="-2.729">
        <ele>66</ele>
        <time>2021-08-08T10:19:28Z</time>
      </trkpt>
      <trkpt lat="48.0494" lon="-2.72905">
        <ele>66</ele>
        <time>2021-08-08T10:19:29Z</time>
      </trkpt>
      <trkpt lat="48.04943" lon="-2.7291">
        <ele>66</ele>
        <time>2021-08-08T10:19:30Z</time>
      </trkpt>
      <trkpt lat="48.04945" lon="-2.72915">
        <ele>66</ele>
        <time>2021-08-08T10:19:31Z</time>
      </trkpt>
      <trkpt lat="48.04948" lon="-2.72921">
        <ele>66</ele>
        <time>2021-08-08T10:19:32Z</time>
      </trkpt>
      <trkpt lat="48.04951" lon="-2.72926">
        <ele>66</ele>
        <time>2021-08-08T10:19:33Z</time>
      </trkpt>
      <trkpt lat="48.04954" lon="-2.72932">
        <ele>66</ele>
        <time>2021-08-08T10:19:34Z</time>
      </trkpt>
      <trkpt lat="48.04957" lon="-2.72937">
        <ele>66</ele>
        <time>2021-08-08T10:19:35Z</time>
      </trkpt>
      <trkpt lat="48.0496" lon="-2.72942">
        <ele>66</ele>
        <time>2021-08-08T10:19:36Z</time>
      </trkpt>
      <trkpt lat="48.04963" lon="-2.72948">
        <ele>66</ele>
        <time>2021-08-08T10:19:37Z</time>
      </trkpt>
      <trkpt lat="48.04966" lon="-2.72953">
        <ele>66</ele>
        <time>2021-08-08T10:19:38Z</time>
      </trkpt>
      <trkpt lat="48.04969" lon="-2.72959">
        <ele>66.2</ele>
        <time>2021-08-08T10:19:39Z</time>
      </trkpt>
      <trkpt lat="48.04972" lon="-2.72965">
        <ele>66.2</ele>
        <time>2021-08-08T10:19:40Z</time>
      </trkpt>
      <trkpt lat="48.04975" lon="-2.7297">
        <ele>66.2</ele>
        <time>2021-08-08T10:19:41Z</time>
      </trkpt>
      <trkpt lat="48.04978" lon="-2.72975">
        <ele>66.2</ele>
        <time>2021-08-08T10:19:42Z</time>
      </trkpt>
      <trkpt lat="48.04981" lon="-2.72981">
        <ele>66.2</ele>
        <time>2021-08-08T10:19:43Z</time>
      </trkpt>
      <trkpt lat="48.04983" lon="-2.72986">
        <ele>66.2</ele>
        <time>2021-08-08T10:19:44Z</time>
      </trkpt>
      <trkpt lat="48.04986" lon="-2.72991">
        <ele>66.2</ele>
        <time>2021-08-08T10:19:45Z</time>
      </trkpt>
      <trkpt lat="48.04988" lon="-2.72996">
        <ele>66.2</ele>
        <time>2021-08-08T10:19:46Z</time>
      </trkpt>
      <trkpt lat="48.0499" lon="-2.73001">
        <ele>66.2</ele>
        <time>2021-08-08T10:19:47Z</time>
      </trkpt>
      <trkpt lat="48.04992" lon="-2.73005">
        <ele>66.2</ele>
        <time>2021-08-08T10:19:48Z</time>
      </trkpt>
      <trkpt lat="48.04995" lon="-2.7301">
        <ele>66.2</ele>
        <time>2021-08-08T10:19:49Z</time>
      </trkpt>
      <trkpt lat="48.04997" lon="-2.73014">
        <ele>66.2</ele>
        <time>2021-08-08T10:19:50Z</time>
      </trkpt>
      <trkpt lat="48.05" lon="-2.73018">
        <ele>66.2</ele>
        <time>2021-08-08T10:19:51Z</time>
      </trkpt>
      <trkpt lat="48.05003" lon="-2.73023">
        <ele>66.2</ele>
        <time>2021-08-08T10:19:52Z</time>
      </trkpt>
      <trkpt lat="48.05006" lon="-2.73028">
        <ele>66.2</ele>
        <time>2021-08-08T10:19:53Z</time>
      </trkpt>
      <trkpt lat="48.05008" lon="-2.73033">
        <ele>66.2</ele>
        <time>2021-08-08T10:19:54Z</time>
      </trkpt>
      <trkpt lat="48.05011" lon="-2.73038">
        <ele>66.2</ele>
        <time>2021-08-08T10:19:55Z</time>
      </trkpt>
      <trkpt lat="48.05014" lon="-2.73043">
        <ele>66.2</ele>
        <time>2021-08-08T10:19:56Z</time>
      </trkpt>
      <trkpt lat="48.05016" lon="-2.73048">
        <ele>66.2</ele>
        <time>2021-08-08T10:19:57Z</time>
      </trkpt>
      <trkpt lat="48.05019" lon="-2.73054">
        <ele>66</ele>
        <time>2021-08-08T10:19:58Z</time>
      </trkpt>
      <trkpt lat="48.05022" lon="-2.7306">
        <ele>66</ele>
        <time>2021-08-08T10:19:59Z</time>
      </trkpt>
      <trkpt lat="48.05025" lon="-2.73065">
        <ele>66</ele>
        <time>2021-08-08T10:20:00Z</time>
      </trkpt>
      <trkpt lat="48.05028" lon="-2.7307">
        <ele>66</ele>
        <time>2021-08-08T10:20:01Z</time>
      </trkpt>
      <trkpt lat="48.05031" lon="-2.73075">
        <ele>66</ele>
        <time>2021-08-08T10:20:02Z</time>
      </trkpt>
      <trkpt lat="48.05034" lon="-2.73081">
        <ele>65.8</ele>
        <time>2021-08-08T10:20:03Z</time>
      </trkpt>
      <trkpt lat="48.05037" lon="-2.73087">
        <ele>65.6</ele>
        <time>2021-08-08T10:20:04Z</time>
      </trkpt>
      <trkpt lat="48.0504" lon="-2.73092">
        <ele>65.6</ele>
        <time>2021-08-08T10:20:05Z</time>
      </trkpt>
      <trkpt lat="48.05042" lon="-2.73097">
        <ele>65.6</ele>
        <time>2021-08-08T10:20:06Z</time>
      </trkpt>
      <trkpt lat="48.05046" lon="-2.73103">
        <ele>65.6</ele>
        <time>2021-08-08T10:20:07Z</time>
      </trkpt>
      <trkpt lat="48.05049" lon="-2.73108">
        <ele>65.6</ele>
        <time>2021-08-08T10:20:08Z</time>
      </trkpt>
      <trkpt lat="48.05052" lon="-2.73114">
        <ele>65.4</ele>
        <time>2021-08-08T10:20:09Z</time>
      </trkpt>
      <trkpt lat="48.05055" lon="-2.7312">
        <ele>65.4</ele>
        <time>2021-08-08T10:20:10Z</time>
      </trkpt>
      <trkpt lat="48.05058" lon="-2.73126">
        <ele>65.4</ele>
        <time>2021-08-08T10:20:11Z</time>
      </trkpt>
      <trkpt lat="48.05061" lon="-2.73131">
        <ele>65.4</ele>
        <time>2021-08-08T10:20:12Z</time>
      </trkpt>
      <trkpt lat="48.05064" lon="-2.73137">
        <ele>65.4</ele>
        <time>2021-08-08T10:20:13Z</time>
      </trkpt>
      <trkpt lat="48.05068" lon="-2.73143">
        <ele>65.4</ele>
        <time>2021-08-08T10:20:14Z</time>
      </trkpt>
      <trkpt lat="48.05071" lon="-2.73149">
        <ele>65.4</ele>
        <time>2021-08-08T10:20:15Z</time>
      </trkpt>
      <trkpt lat="48.05074" lon="-2.73155">
        <ele>65.4</ele>
        <time>2021-08-08T10:20:16Z</time>
      </trkpt>
      <trkpt lat="48.05077" lon="-2.73162">
        <ele>65.4</ele>
        <time>2021-08-08T10:20:17Z</time>
      </trkpt>
      <trkpt lat="48.05081" lon="-2.73168">
        <ele>65.4</ele>
        <time>2021-08-08T10:20:18Z</time>
      </trkpt>
      <trkpt lat="48.05084" lon="-2.73174">
        <ele>65.2</ele>
        <time>2021-08-08T10:20:19Z</time>
      </trkpt>
      <trkpt lat="48.05087" lon="-2.7318">
        <ele>65</ele>
        <time>2021-08-08T10:20:20Z</time>
      </trkpt>
      <trkpt lat="48.05091" lon="-2.73186">
        <ele>64.8</ele>
        <time>2021-08-08T10:20:21Z</time>
      </trkpt>
      <trkpt lat="48.05094" lon="-2.73192">
        <ele>64.8</ele>
        <time>2021-08-08T10:20:22Z</time>
      </trkpt>
      <trkpt lat="48.05097" lon="-2.73198">
        <ele>64.8</ele>
        <time>2021-08-08T10:20:23Z</time>
      </trkpt>
      <trkpt lat="48.05101" lon="-2.73204">
        <ele>64.8</ele>
        <time>2021-08-08T10:20:24Z</time>
      </trkpt>
      <trkpt lat="48.05104" lon="-2.73211">
        <ele>64.8</ele>
        <time>2021-08-08T10:20:25Z</time>
      </trkpt>
      <trkpt lat="48.05107" lon="-2.73217">
        <ele>64.8</ele>
        <time>2021-08-08T10:20:26Z</time>
      </trkpt>
      <trkpt lat="48.05111" lon="-2.73223">
        <ele>64.8</ele>
        <time>2021-08-08T10:20:27Z</time>
      </trkpt>
      <trkpt lat="48.05114" lon="-2.73229">
        <ele>64.8</ele>
        <time>2021-08-08T10:20:28Z</time>
      </trkpt>
      <trkpt lat="48.05117" lon="-2.73236">
        <ele>64.8</ele>
        <time>2021-08-08T10:20:29Z</time>
      </trkpt>
      <trkpt lat="48.05121" lon="-2.73242">
        <ele>64.8</ele>
        <time>2021-08-08T10:20:30Z</time>
      </trkpt>
      <trkpt lat="48.05124" lon="-2.73248">
        <ele>64.8</ele>
        <time>2021-08-08T10:20:31Z</time>
      </trkpt>
      <trkpt lat="48.05128" lon="-2.73254">
        <ele>65</ele>
        <time>2021-08-08T10:20:32Z</time>
      </trkpt>
      <trkpt lat="48.05131" lon="-2.7326">
        <ele>65</ele>
        <time>2021-08-08T10:20:33Z</time>
      </trkpt>
      <trkpt lat="48.05135" lon="-2.73267">
        <ele>65</ele>
        <time>2021-08-08T10:20:34Z</time>
      </trkpt>
      <trkpt lat="48.05138" lon="-2.73273">
        <ele>65.2</ele>
        <time>2021-08-08T10:20:35Z</time>
      </trkpt>
      <trkpt lat="48.05141" lon="-2.73279">
        <ele>65.2</ele>
        <time>2021-08-08T10:20:36Z</time>
      </trkpt>
      <trkpt lat="48.05145" lon="-2.73285">
        <ele>65.2</ele>
        <time>2021-08-08T10:20:37Z</time>
      </trkpt>
      <trkpt lat="48.05148" lon="-2.73291">
        <ele>65.2</ele>
        <time>2021-08-08T10:20:38Z</time>
      </trkpt>
      <trkpt lat="48.05151" lon="-2.73298">
        <ele>65.2</ele>
        <time>2021-08-08T10:20:39Z</time>
      </trkpt>
      <trkpt lat="48.05155" lon="-2.73304">
        <ele>65.2</ele>
        <time>2021-08-08T10:20:40Z</time>
      </trkpt>
      <trkpt lat="48.05158" lon="-2.7331">
        <ele>65.2</ele>
        <time>2021-08-08T10:20:41Z</time>
      </trkpt>
      <trkpt lat="48.05162" lon="-2.73317">
        <ele>65.2</ele>
        <time>2021-08-08T10:20:42Z</time>
      </trkpt>
      <trkpt lat="48.05165" lon="-2.73323">
        <ele>65.2</ele>
        <time>2021-08-08T10:20:43Z</time>
      </trkpt>
      <trkpt lat="48.05168" lon="-2.7333">
        <ele>65.2</ele>
        <time>2021-08-08T10:20:44Z</time>
      </trkpt>
      <trkpt lat="48.05172" lon="-2.73336">
        <ele>65.2</ele>
        <time>2021-08-08T10:20:45Z</time>
      </trkpt>
      <trkpt lat="48.05175" lon="-2.73342">
        <ele>65.2</ele>
        <time>2021-08-08T10:20:46Z</time>
      </trkpt>
      <trkpt lat="48.05179" lon="-2.73348">
        <ele>65.2</ele>
        <time>2021-08-08T10:20:47Z</time>
      </trkpt>
      <trkpt lat="48.05182" lon="-2.73355">
        <ele>65.2</ele>
        <time>2021-08-08T10:20:48Z</time>
      </trkpt>
      <trkpt lat="48.05186" lon="-2.73361">
        <ele>65.2</ele>
        <time>2021-08-08T10:20:49Z</time>
      </trkpt>
      <trkpt lat="48.0519" lon="-2.73367">
        <ele>65</ele>
        <time>2021-08-08T10:20:50Z</time>
      </trkpt>
      <trkpt lat="48.05193" lon="-2.73373">
        <ele>65</ele>
        <time>2021-08-08T10:20:51Z</time>
      </trkpt>
      <trkpt lat="48.05197" lon="-2.7338">
        <ele>65</ele>
        <time>2021-08-08T10:20:52Z</time>
      </trkpt>
      <trkpt lat="48.052" lon="-2.73386">
        <ele>65</ele>
        <time>2021-08-08T10:20:53Z</time>
      </trkpt>
      <trkpt lat="48.05204" lon="-2.73392">
        <ele>65</ele>
        <time>2021-08-08T10:20:54Z</time>
      </trkpt>
      <trkpt lat="48.05207" lon="-2.73398">
        <ele>65</ele>
        <time>2021-08-08T10:20:55Z</time>
      </trkpt>
      <trkpt lat="48.05211" lon="-2.73404">
        <ele>65</ele>
        <time>2021-08-08T10:20:56Z</time>
      </trkpt>
      <trkpt lat="48.05214" lon="-2.73409">
        <ele>65</ele>
        <time>2021-08-08T10:20:57Z</time>
      </trkpt>
      <trkpt lat="48.05218" lon="-2.73415">
        <ele>65</ele>
        <time>2021-08-08T10:20:58Z</time>
      </trkpt>
      <trkpt lat="48.05222" lon="-2.7342">
        <ele>64.8</ele>
        <time>2021-08-08T10:20:59Z</time>
      </trkpt>
      <trkpt lat="48.05226" lon="-2.73425">
        <ele>64.6</ele>
        <time>2021-08-08T10:21:00Z</time>
      </trkpt>
      <trkpt lat="48.05229" lon="-2.7343">
        <ele>64.6</ele>
        <time>2021-08-08T10:21:01Z</time>
      </trkpt>
      <trkpt lat="48.05233" lon="-2.73435">
        <ele>64.4</ele>
        <time>2021-08-08T10:21:02Z</time>
      </trkpt>
      <trkpt lat="48.05237" lon="-2.73439">
        <ele>64.2</ele>
        <time>2021-08-08T10:21:03Z</time>
      </trkpt>
      <trkpt lat="48.0524" lon="-2.73443">
        <ele>64.2</ele>
        <time>2021-08-08T10:21:04Z</time>
      </trkpt>
      <trkpt lat="48.05243" lon="-2.73447">
        <ele>64.2</ele>
        <time>2021-08-08T10:21:05Z</time>
      </trkpt>
      <trkpt lat="48.05247" lon="-2.73451">
        <ele>64.2</ele>
        <time>2021-08-08T10:21:06Z</time>
      </trkpt>
      <trkpt lat="48.05251" lon="-2.73455">
        <ele>64</ele>
        <time>2021-08-08T10:21:07Z</time>
      </trkpt>
      <trkpt lat="48.05255" lon="-2.73459">
        <ele>64</ele>
        <time>2021-08-08T10:21:08Z</time>
      </trkpt>
      <trkpt lat="48.05259" lon="-2.73462">
        <ele>63.8</ele>
        <time>2021-08-08T10:21:09Z</time>
      </trkpt>
      <trkpt lat="48.05263" lon="-2.73465">
        <ele>63.8</ele>
        <time>2021-08-08T10:21:10Z</time>
      </trkpt>
      <trkpt lat="48.05267" lon="-2.73468">
        <ele>63.8</ele>
        <time>2021-08-08T10:21:11Z</time>
      </trkpt>
      <trkpt lat="48.05271" lon="-2.7347">
        <ele>63.6</ele>
        <time>2021-08-08T10:21:12Z</time>
      </trkpt>
      <trkpt lat="48.05275" lon="-2.73473">
        <ele>63.6</ele>
        <time>2021-08-08T10:21:13Z</time>
      </trkpt>
      <trkpt lat="48.05279" lon="-2.73475">
        <ele>63.6</ele>
        <time>2021-08-08T10:21:14Z</time>
      </trkpt>
      <trkpt lat="48.05283" lon="-2.73478">
        <ele>63.6</ele>
        <time>2021-08-08T10:21:15Z</time>
      </trkpt>
      <trkpt lat="48.05286" lon="-2.73479">
        <ele>63.6</ele>
        <time>2021-08-08T10:21:16Z</time>
      </trkpt>
      <trkpt lat="48.0529" lon="-2.7348">
        <ele>63.6</ele>
        <time>2021-08-08T10:21:17Z</time>
      </trkpt>
      <trkpt lat="48.05293" lon="-2.73481">
        <ele>63.6</ele>
        <time>2021-08-08T10:21:18Z</time>
      </trkpt>
      <trkpt lat="48.05296" lon="-2.73482">
        <ele>63.6</ele>
        <time>2021-08-08T10:21:19Z</time>
      </trkpt>
      <trkpt lat="48.053" lon="-2.73482">
        <ele>63.6</ele>
        <time>2021-08-08T10:21:20Z</time>
      </trkpt>
      <trkpt lat="48.05304" lon="-2.73482">
        <ele>63.6</ele>
        <time>2021-08-08T10:21:21Z</time>
      </trkpt>
      <trkpt lat="48.05308" lon="-2.73482">
        <ele>63.6</ele>
        <time>2021-08-08T10:21:22Z</time>
      </trkpt>
      <trkpt lat="48.05312" lon="-2.73482">
        <ele>63.6</ele>
        <time>2021-08-08T10:21:23Z</time>
      </trkpt>
      <trkpt lat="48.05315" lon="-2.73481">
        <ele>63.6</ele>
        <time>2021-08-08T10:21:24Z</time>
      </trkpt>
      <trkpt lat="48.05319" lon="-2.7348">
        <ele>63.6</ele>
        <time>2021-08-08T10:21:25Z</time>
      </trkpt>
      <trkpt lat="48.05323" lon="-2.73479">
        <ele>63.6</ele>
        <time>2021-08-08T10:21:26Z</time>
      </trkpt>
      <trkpt lat="48.05326" lon="-2.73479">
        <ele>63.6</ele>
        <time>2021-08-08T10:21:27Z</time>
      </trkpt>
      <trkpt lat="48.0533" lon="-2.73478">
        <ele>63.8</ele>
        <time>2021-08-08T10:21:28Z</time>
      </trkpt>
      <trkpt lat="48.05335" lon="-2.73478">
        <ele>64</ele>
        <time>2021-08-08T10:21:29Z</time>
      </trkpt>
      <trkpt lat="48.05339" lon="-2.73477">
        <ele>64</ele>
        <time>2021-08-08T10:21:30Z</time>
      </trkpt>
      <trkpt lat="48.05343" lon="-2.73477">
        <ele>64.6</ele>
        <time>2021-08-08T10:21:31Z</time>
      </trkpt>
      <trkpt lat="48.05348" lon="-2.73476">
        <ele>65</ele>
        <time>2021-08-08T10:21:32Z</time>
      </trkpt>
      <trkpt lat="48.05352" lon="-2.73475">
        <ele>65.4</ele>
        <time>2021-08-08T10:21:33Z</time>
      </trkpt>
      <trkpt lat="48.05357" lon="-2.73474">
        <ele>65.6</ele>
        <time>2021-08-08T10:21:34Z</time>
      </trkpt>
      <trkpt lat="48.05361" lon="-2.73473">
        <ele>65.8</ele>
        <time>2021-08-08T10:21:35Z</time>
      </trkpt>
      <trkpt lat="48.05366" lon="-2.73472">
        <ele>65.8</ele>
        <time>2021-08-08T10:21:36Z</time>
      </trkpt>
      <trkpt lat="48.05371" lon="-2.73472">
        <ele>66</ele>
        <time>2021-08-08T10:21:37Z</time>
      </trkpt>
      <trkpt lat="48.05376" lon="-2.73471">
        <ele>66.2</ele>
        <time>2021-08-08T10:21:38Z</time>
      </trkpt>
      <trkpt lat="48.05381" lon="-2.73469">
        <ele>66.2</ele>
        <time>2021-08-08T10:21:39Z</time>
      </trkpt>
      <trkpt lat="48.05386" lon="-2.73468">
        <ele>66.2</ele>
        <time>2021-08-08T10:21:40Z</time>
      </trkpt>
      <trkpt lat="48.05391" lon="-2.73467">
        <ele>66.2</ele>
        <time>2021-08-08T10:21:41Z</time>
      </trkpt>
      <trkpt lat="48.05396" lon="-2.73465">
        <ele>66.4</ele>
        <time>2021-08-08T10:21:42Z</time>
      </trkpt>
      <trkpt lat="48.05401" lon="-2.73464">
        <ele>66.4</ele>
        <time>2021-08-08T10:21:43Z</time>
      </trkpt>
      <trkpt lat="48.05406" lon="-2.73461">
        <ele>66.4</ele>
        <time>2021-08-08T10:21:44Z</time>
      </trkpt>
      <trkpt lat="48.0541" lon="-2.73459">
        <ele>66.4</ele>
        <time>2021-08-08T10:21:45Z</time>
      </trkpt>
      <trkpt lat="48.05415" lon="-2.73457">
        <ele>66.4</ele>
        <time>2021-08-08T10:21:46Z</time>
      </trkpt>
      <trkpt lat="48.05421" lon="-2.73455">
        <ele>66.4</ele>
        <time>2021-08-08T10:21:47Z</time>
      </trkpt>
      <trkpt lat="48.05426" lon="-2.73453">
        <ele>66.4</ele>
        <time>2021-08-08T10:21:48Z</time>
      </trkpt>
      <trkpt lat="48.05432" lon="-2.73451">
        <ele>66.4</ele>
        <time>2021-08-08T10:21:49Z</time>
      </trkpt>
      <trkpt lat="48.05438" lon="-2.73449">
        <ele>66.4</ele>
        <time>2021-08-08T10:21:50Z</time>
      </trkpt>
      <trkpt lat="48.05443" lon="-2.73447">
        <ele>66.4</ele>
        <time>2021-08-08T10:21:51Z</time>
      </trkpt>
      <trkpt lat="48.05449" lon="-2.73445">
        <ele>66.4</ele>
        <time>2021-08-08T10:21:52Z</time>
      </trkpt>
      <trkpt lat="48.05455" lon="-2.73442">
        <ele>66.6</ele>
        <time>2021-08-08T10:21:53Z</time>
      </trkpt>
      <trkpt lat="48.0546" lon="-2.7344">
        <ele>66.6</ele>
        <time>2021-08-08T10:21:54Z</time>
      </trkpt>
      <trkpt lat="48.05466" lon="-2.73438">
        <ele>66.6</ele>
        <time>2021-08-08T10:21:55Z</time>
      </trkpt>
      <trkpt lat="48.05472" lon="-2.73436">
        <ele>66.6</ele>
        <time>2021-08-08T10:21:56Z</time>
      </trkpt>
      <trkpt lat="48.05477" lon="-2.73433">
        <ele>66.6</ele>
        <time>2021-08-08T10:21:57Z</time>
      </trkpt>
      <trkpt lat="48.05482" lon="-2.73431">
        <ele>66.4</ele>
        <time>2021-08-08T10:21:58Z</time>
      </trkpt>
      <trkpt lat="48.05487" lon="-2.73429">
        <ele>66.4</ele>
        <time>2021-08-08T10:21:59Z</time>
      </trkpt>
      <trkpt lat="48.05492" lon="-2.73427">
        <ele>66.4</ele>
        <time>2021-08-08T10:22:00Z</time>
      </trkpt>
      <trkpt lat="48.05496" lon="-2.73425">
        <ele>66.4</ele>
        <time>2021-08-08T10:22:01Z</time>
      </trkpt>
      <trkpt lat="48.05501" lon="-2.73423">
        <ele>66.4</ele>
        <time>2021-08-08T10:22:02Z</time>
      </trkpt>
      <trkpt lat="48.05505" lon="-2.73421">
        <ele>66.4</ele>
        <time>2021-08-08T10:22:03Z</time>
      </trkpt>
      <trkpt lat="48.0551" lon="-2.7342">
        <ele>66.4</ele>
        <time>2021-08-08T10:22:04Z</time>
      </trkpt>
      <trkpt lat="48.05514" lon="-2.73418">
        <ele>66.4</ele>
        <time>2021-08-08T10:22:05Z</time>
      </trkpt>
      <trkpt lat="48.05518" lon="-2.73417">
        <ele>66.4</ele>
        <time>2021-08-08T10:22:06Z</time>
      </trkpt>
      <trkpt lat="48.05523" lon="-2.73416">
        <ele>66.4</ele>
        <time>2021-08-08T10:22:07Z</time>
      </trkpt>
      <trkpt lat="48.05527" lon="-2.73415">
        <ele>66.2</ele>
        <time>2021-08-08T10:22:08Z</time>
      </trkpt>
      <trkpt lat="48.05531" lon="-2.73413">
        <ele>66.2</ele>
        <time>2021-08-08T10:22:09Z</time>
      </trkpt>
      <trkpt lat="48.05535" lon="-2.73412">
        <ele>66</ele>
        <time>2021-08-08T10:22:10Z</time>
      </trkpt>
      <trkpt lat="48.05539" lon="-2.73411">
        <ele>65.8</ele>
        <time>2021-08-08T10:22:11Z</time>
      </trkpt>
      <trkpt lat="48.05543" lon="-2.73409">
        <ele>65.8</ele>
        <time>2021-08-08T10:22:12Z</time>
      </trkpt>
      <trkpt lat="48.05547" lon="-2.73408">
        <ele>65.8</ele>
        <time>2021-08-08T10:22:13Z</time>
      </trkpt>
      <trkpt lat="48.05551" lon="-2.73407">
        <ele>65.6</ele>
        <time>2021-08-08T10:22:14Z</time>
      </trkpt>
      <trkpt lat="48.05555" lon="-2.73406">
        <ele>65.6</ele>
        <time>2021-08-08T10:22:15Z</time>
      </trkpt>
      <trkpt lat="48.0556" lon="-2.73405">
        <ele>65.6</ele>
        <time>2021-08-08T10:22:16Z</time>
      </trkpt>
      <trkpt lat="48.05563" lon="-2.73405">
        <ele>65.8</ele>
        <time>2021-08-08T10:22:17Z</time>
      </trkpt>
      <trkpt lat="48.05568" lon="-2.73404">
        <ele>66</ele>
        <time>2021-08-08T10:22:18Z</time>
      </trkpt>
      <trkpt lat="48.05573" lon="-2.73404">
        <ele>65.8</ele>
        <time>2021-08-08T10:22:19Z</time>
      </trkpt>
      <trkpt lat="48.05578" lon="-2.73403">
        <ele>65.8</ele>
        <time>2021-08-08T10:22:20Z</time>
      </trkpt>
      <trkpt lat="48.05582" lon="-2.73402">
        <ele>65.8</ele>
        <time>2021-08-08T10:22:21Z</time>
      </trkpt>
      <trkpt lat="48.05586" lon="-2.73401">
        <ele>65.6</ele>
        <time>2021-08-08T10:22:22Z</time>
      </trkpt>
      <trkpt lat="48.0559" lon="-2.734">
        <ele>65.6</ele>
        <time>2021-08-08T10:22:23Z</time>
      </trkpt>
      <trkpt lat="48.05594" lon="-2.73399">
        <ele>65.6</ele>
        <time>2021-08-08T10:22:24Z</time>
      </trkpt>
      <trkpt lat="48.05598" lon="-2.73398">
        <ele>65.6</ele>
        <time>2021-08-08T10:22:25Z</time>
      </trkpt>
      <trkpt lat="48.05602" lon="-2.73397">
        <ele>65.6</ele>
        <time>2021-08-08T10:22:26Z</time>
      </trkpt>
      <trkpt lat="48.05607" lon="-2.73396">
        <ele>65.6</ele>
        <time>2021-08-08T10:22:27Z</time>
      </trkpt>
      <trkpt lat="48.05611" lon="-2.73395">
        <ele>65.6</ele>
        <time>2021-08-08T10:22:28Z</time>
      </trkpt>
      <trkpt lat="48.05616" lon="-2.73394">
        <ele>65.6</ele>
        <time>2021-08-08T10:22:29Z</time>
      </trkpt>
      <trkpt lat="48.05621" lon="-2.73392">
        <ele>65.6</ele>
        <time>2021-08-08T10:22:30Z</time>
      </trkpt>
      <trkpt lat="48.05626" lon="-2.7339">
        <ele>65.6</ele>
        <time>2021-08-08T10:22:31Z</time>
      </trkpt>
      <trkpt lat="48.05631" lon="-2.73389">
        <ele>65.6</ele>
        <time>2021-08-08T10:22:32Z</time>
      </trkpt>
      <trkpt lat="48.05636" lon="-2.73387">
        <ele>65.6</ele>
        <time>2021-08-08T10:22:33Z</time>
      </trkpt>
      <trkpt lat="48.0564" lon="-2.73384">
        <ele>65.6</ele>
        <time>2021-08-08T10:22:34Z</time>
      </trkpt>
      <trkpt lat="48.05645" lon="-2.73382">
        <ele>65.6</ele>
        <time>2021-08-08T10:22:35Z</time>
      </trkpt>
      <trkpt lat="48.05649" lon="-2.7338">
        <ele>65.6</ele>
        <time>2021-08-08T10:22:36Z</time>
      </trkpt>
      <trkpt lat="48.05653" lon="-2.73377">
        <ele>65.6</ele>
        <time>2021-08-08T10:22:37Z</time>
      </trkpt>
      <trkpt lat="48.05657" lon="-2.73374">
        <ele>65.6</ele>
        <time>2021-08-08T10:22:38Z</time>
      </trkpt>
      <trkpt lat="48.05661" lon="-2.73372">
        <ele>65.6</ele>
        <time>2021-08-08T10:22:39Z</time>
      </trkpt>
      <trkpt lat="48.05666" lon="-2.73369">
        <ele>65.8</ele>
        <time>2021-08-08T10:22:40Z</time>
      </trkpt>
      <trkpt lat="48.0567" lon="-2.73367">
        <ele>65.8</ele>
        <time>2021-08-08T10:22:41Z</time>
      </trkpt>
      <trkpt lat="48.05674" lon="-2.73365">
        <ele>66</ele>
        <time>2021-08-08T10:22:42Z</time>
      </trkpt>
      <trkpt lat="48.05679" lon="-2.73362">
        <ele>66</ele>
        <time>2021-08-08T10:22:43Z</time>
      </trkpt>
      <trkpt lat="48.05683" lon="-2.73359">
        <ele>66</ele>
        <time>2021-08-08T10:22:44Z</time>
      </trkpt>
      <trkpt lat="48.05687" lon="-2.73356">
        <ele>66</ele>
        <time>2021-08-08T10:22:45Z</time>
      </trkpt>
      <trkpt lat="48.05691" lon="-2.73354">
        <ele>66.2</ele>
        <time>2021-08-08T10:22:46Z</time>
      </trkpt>
      <trkpt lat="48.05696" lon="-2.73351">
        <ele>66.2</ele>
        <time>2021-08-08T10:22:47Z</time>
      </trkpt>
      <trkpt lat="48.057" lon="-2.73348">
        <ele>66.2</ele>
        <time>2021-08-08T10:22:48Z</time>
      </trkpt>
      <trkpt lat="48.05705" lon="-2.73345">
        <ele>66.2</ele>
        <time>2021-08-08T10:22:49Z</time>
      </trkpt>
      <trkpt lat="48.05709" lon="-2.73341">
        <ele>66.2</ele>
        <time>2021-08-08T10:22:50Z</time>
      </trkpt>
      <trkpt lat="48.05714" lon="-2.73338">
        <ele>66.2</ele>
        <time>2021-08-08T10:22:51Z</time>
      </trkpt>
      <trkpt lat="48.05719" lon="-2.73335">
        <ele>66.4</ele>
        <time>2021-08-08T10:22:52Z</time>
      </trkpt>
      <trkpt lat="48.05723" lon="-2.73332">
        <ele>66.4</ele>
        <time>2021-08-08T10:22:53Z</time>
      </trkpt>
      <trkpt lat="48.05728" lon="-2.73329">
        <ele>66.4</ele>
        <time>2021-08-08T10:22:54Z</time>
      </trkpt>
      <trkpt lat="48.05733" lon="-2.73326">
        <ele>66.4</ele>
        <time>2021-08-08T10:22:55Z</time>
      </trkpt>
      <trkpt lat="48.05739" lon="-2.73323">
        <ele>66.4</ele>
        <time>2021-08-08T10:22:56Z</time>
      </trkpt>
      <trkpt lat="48.05744" lon="-2.7332">
        <ele>66.4</ele>
        <time>2021-08-08T10:22:57Z</time>
      </trkpt>
      <trkpt lat="48.0575" lon="-2.73318">
        <ele>66.4</ele>
        <time>2021-08-08T10:22:58Z</time>
      </trkpt>
      <trkpt lat="48.05756" lon="-2.73316">
        <ele>66.4</ele>
        <time>2021-08-08T10:22:59Z</time>
      </trkpt>
      <trkpt lat="48.05762" lon="-2.73315">
        <ele>66.4</ele>
        <time>2021-08-08T10:23:00Z</time>
      </trkpt>
      <trkpt lat="48.05768" lon="-2.73315">
        <ele>66.4</ele>
        <time>2021-08-08T10:23:01Z</time>
      </trkpt>
      <trkpt lat="48.05774" lon="-2.73315">
        <ele>66.4</ele>
        <time>2021-08-08T10:23:02Z</time>
      </trkpt>
      <trkpt lat="48.0578" lon="-2.73314">
        <ele>66.4</ele>
        <time>2021-08-08T10:23:03Z</time>
      </trkpt>
      <trkpt lat="48.05785" lon="-2.73315">
        <ele>66.4</ele>
        <time>2021-08-08T10:23:04Z</time>
      </trkpt>
      <trkpt lat="48.05791" lon="-2.73316">
        <ele>66</ele>
        <time>2021-08-08T10:23:05Z</time>
      </trkpt>
      <trkpt lat="48.05796" lon="-2.73318">
        <ele>66</ele>
        <time>2021-08-08T10:23:06Z</time>
      </trkpt>
      <trkpt lat="48.05801" lon="-2.7332">
        <ele>66</ele>
        <time>2021-08-08T10:23:07Z</time>
      </trkpt>
      <trkpt lat="48.05806" lon="-2.73323">
        <ele>66</ele>
        <time>2021-08-08T10:23:08Z</time>
      </trkpt>
      <trkpt lat="48.0581" lon="-2.73326">
        <ele>66</ele>
        <time>2021-08-08T10:23:09Z</time>
      </trkpt>
      <trkpt lat="48.05815" lon="-2.73328">
        <ele>66</ele>
        <time>2021-08-08T10:23:10Z</time>
      </trkpt>
      <trkpt lat="48.05818" lon="-2.73331">
        <ele>66</ele>
        <time>2021-08-08T10:23:11Z</time>
      </trkpt>
      <trkpt lat="48.05822" lon="-2.73334">
        <ele>65.8</ele>
        <time>2021-08-08T10:23:12Z</time>
      </trkpt>
      <trkpt lat="48.05826" lon="-2.73338">
        <ele>65.8</ele>
        <time>2021-08-08T10:23:13Z</time>
      </trkpt>
      <trkpt lat="48.0583" lon="-2.7334">
        <ele>65.6</ele>
        <time>2021-08-08T10:23:14Z</time>
      </trkpt>
      <trkpt lat="48.05834" lon="-2.73342">
        <ele>65.6</ele>
        <time>2021-08-08T10:23:15Z</time>
      </trkpt>
      <trkpt lat="48.05838" lon="-2.73345">
        <ele>65.4</ele>
        <time>2021-08-08T10:23:16Z</time>
      </trkpt>
      <trkpt lat="48.05843" lon="-2.73348">
        <ele>65.4</ele>
        <time>2021-08-08T10:23:17Z</time>
      </trkpt>
      <trkpt lat="48.05847" lon="-2.73351">
        <ele>65.4</ele>
        <time>2021-08-08T10:23:18Z</time>
      </trkpt>
      <trkpt lat="48.05852" lon="-2.73354">
        <ele>65.4</ele>
        <time>2021-08-08T10:23:19Z</time>
      </trkpt>
      <trkpt lat="48.05857" lon="-2.73358">
        <ele>65.4</ele>
        <time>2021-08-08T10:23:20Z</time>
      </trkpt>
      <trkpt lat="48.05862" lon="-2.73363">
        <ele>65.4</ele>
        <time>2021-08-08T10:23:21Z</time>
      </trkpt>
      <trkpt lat="48.05868" lon="-2.73367">
        <ele>65.2</ele>
        <time>2021-08-08T10:23:22Z</time>
      </trkpt>
      <trkpt lat="48.05872" lon="-2.73371">
        <ele>65.2</ele>
        <time>2021-08-08T10:23:23Z</time>
      </trkpt>
      <trkpt lat="48.05877" lon="-2.73374">
        <ele>65.2</ele>
        <time>2021-08-08T10:23:24Z</time>
      </trkpt>
      <trkpt lat="48.05882" lon="-2.73377">
        <ele>65.2</ele>
        <time>2021-08-08T10:23:25Z</time>
      </trkpt>
      <trkpt lat="48.05886" lon="-2.73381">
        <ele>65</ele>
        <time>2021-08-08T10:23:26Z</time>
      </trkpt>
      <trkpt lat="48.0589" lon="-2.73385">
        <ele>65</ele>
        <time>2021-08-08T10:23:27Z</time>
      </trkpt>
      <trkpt lat="48.05895" lon="-2.73388">
        <ele>65</ele>
        <time>2021-08-08T10:23:28Z</time>
      </trkpt>
      <trkpt lat="48.059" lon="-2.73392">
        <ele>65</ele>
        <time>2021-08-08T10:23:29Z</time>
      </trkpt>
      <trkpt lat="48.05905" lon="-2.73396">
        <ele>65</ele>
        <time>2021-08-08T10:23:30Z</time>
      </trkpt>
      <trkpt lat="48.0591" lon="-2.734">
        <ele>65</ele>
        <time>2021-08-08T10:23:31Z</time>
      </trkpt>
      <trkpt lat="48.05914" lon="-2.73403">
        <ele>65</ele>
        <time>2021-08-08T10:23:32Z</time>
      </trkpt>
      <trkpt lat="48.05919" lon="-2.73408">
        <ele>65</ele>
        <time>2021-08-08T10:23:33Z</time>
      </trkpt>
      <trkpt lat="48.05924" lon="-2.73413">
        <ele>65</ele>
        <time>2021-08-08T10:23:34Z</time>
      </trkpt>
      <trkpt lat="48.05928" lon="-2.73417">
        <ele>65</ele>
        <time>2021-08-08T10:23:35Z</time>
      </trkpt>
      <trkpt lat="48.05933" lon="-2.73421">
        <ele>64.8</ele>
        <time>2021-08-08T10:23:36Z</time>
      </trkpt>
      <trkpt lat="48.05938" lon="-2.73425">
        <ele>64.8</ele>
        <time>2021-08-08T10:23:37Z</time>
      </trkpt>
      <trkpt lat="48.05942" lon="-2.73429">
        <ele>64.8</ele>
        <time>2021-08-08T10:23:38Z</time>
      </trkpt>
      <trkpt lat="48.05946" lon="-2.73433">
        <ele>64.8</ele>
        <time>2021-08-08T10:23:39Z</time>
      </trkpt>
      <trkpt lat="48.05951" lon="-2.73437">
        <ele>65</ele>
        <time>2021-08-08T10:23:40Z</time>
      </trkpt>
      <trkpt lat="48.05955" lon="-2.73441">
        <ele>65</ele>
        <time>2021-08-08T10:23:41Z</time>
      </trkpt>
      <trkpt lat="48.0596" lon="-2.73445">
        <ele>65</ele>
        <time>2021-08-08T10:23:42Z</time>
      </trkpt>
      <trkpt lat="48.05964" lon="-2.73449">
        <ele>65</ele>
        <time>2021-08-08T10:23:43Z</time>
      </trkpt>
      <trkpt lat="48.05969" lon="-2.73454">
        <ele>65.2</ele>
        <time>2021-08-08T10:23:44Z</time>
      </trkpt>
      <trkpt lat="48.05973" lon="-2.73458">
        <ele>65.2</ele>
        <time>2021-08-08T10:23:45Z</time>
      </trkpt>
      <trkpt lat="48.05977" lon="-2.73462">
        <ele>65.4</ele>
        <time>2021-08-08T10:23:46Z</time>
      </trkpt>
      <trkpt lat="48.05982" lon="-2.73467">
        <ele>65.4</ele>
        <time>2021-08-08T10:23:47Z</time>
      </trkpt>
      <trkpt lat="48.05986" lon="-2.73472">
        <ele>65.4</ele>
        <time>2021-08-08T10:23:48Z</time>
      </trkpt>
      <trkpt lat="48.0599" lon="-2.73476">
        <ele>65.4</ele>
        <time>2021-08-08T10:23:49Z</time>
      </trkpt>
      <trkpt lat="48.05994" lon="-2.73481">
        <ele>65.4</ele>
        <time>2021-08-08T10:23:50Z</time>
      </trkpt>
      <trkpt lat="48.05999" lon="-2.73485">
        <ele>65.4</ele>
        <time>2021-08-08T10:23:51Z</time>
      </trkpt>
      <trkpt lat="48.06002" lon="-2.73488">
        <ele>65.4</ele>
        <time>2021-08-08T10:23:52Z</time>
      </trkpt>
      <trkpt lat="48.06006" lon="-2.73492">
        <ele>65.4</ele>
        <time>2021-08-08T10:23:53Z</time>
      </trkpt>
      <trkpt lat="48.0601" lon="-2.73496">
        <ele>65.4</ele>
        <time>2021-08-08T10:23:54Z</time>
      </trkpt>
      <trkpt lat="48.06015" lon="-2.73501">
        <ele>65.4</ele>
        <time>2021-08-08T10:23:55Z</time>
      </trkpt>
      <trkpt lat="48.06019" lon="-2.73505">
        <ele>65.4</ele>
        <time>2021-08-08T10:23:56Z</time>
      </trkpt>
      <trkpt lat="48.06023" lon="-2.7351">
        <ele>65.6</ele>
        <time>2021-08-08T10:23:57Z</time>
      </trkpt>
      <trkpt lat="48.06028" lon="-2.73515">
        <ele>65.6</ele>
        <time>2021-08-08T10:23:58Z</time>
      </trkpt>
      <trkpt lat="48.06032" lon="-2.7352">
        <ele>65.6</ele>
        <time>2021-08-08T10:23:59Z</time>
      </trkpt>
      <trkpt lat="48.06037" lon="-2.73525">
        <ele>65.6</ele>
        <time>2021-08-08T10:24:00Z</time>
      </trkpt>
      <trkpt lat="48.06042" lon="-2.73531">
        <ele>65.6</ele>
        <time>2021-08-08T10:24:01Z</time>
      </trkpt>
      <trkpt lat="48.06046" lon="-2.73537">
        <ele>65.6</ele>
        <time>2021-08-08T10:24:02Z</time>
      </trkpt>
      <trkpt lat="48.06051" lon="-2.73542">
        <ele>65.6</ele>
        <time>2021-08-08T10:24:03Z</time>
      </trkpt>
      <trkpt lat="48.06056" lon="-2.73548">
        <ele>65.6</ele>
        <time>2021-08-08T10:24:04Z</time>
      </trkpt>
      <trkpt lat="48.0606" lon="-2.73553">
        <ele>65.6</ele>
        <time>2021-08-08T10:24:05Z</time>
      </trkpt>
      <trkpt lat="48.06065" lon="-2.73559">
        <ele>65.2</ele>
        <time>2021-08-08T10:24:06Z</time>
      </trkpt>
      <trkpt lat="48.06069" lon="-2.73564">
        <ele>65.2</ele>
        <time>2021-08-08T10:24:07Z</time>
      </trkpt>
      <trkpt lat="48.06081" lon="-2.73579">
        <ele>65.2</ele>
        <time>2021-08-08T10:24:10Z</time>
      </trkpt>
      <trkpt lat="48.06086" lon="-2.73584">
        <ele>65</ele>
        <time>2021-08-08T10:24:11Z</time>
      </trkpt>
      <trkpt lat="48.0609" lon="-2.73589">
        <ele>65</ele>
        <time>2021-08-08T10:24:12Z</time>
      </trkpt>
      <trkpt lat="48.06094" lon="-2.73594">
        <ele>65</ele>
        <time>2021-08-08T10:24:13Z</time>
      </trkpt>
      <trkpt lat="48.06098" lon="-2.73599">
        <ele>65</ele>
        <time>2021-08-08T10:24:14Z</time>
      </trkpt>
      <trkpt lat="48.06107" lon="-2.73609">
        <ele>65</ele>
        <time>2021-08-08T10:24:16Z</time>
      </trkpt>
      <trkpt lat="48.06111" lon="-2.73614">
        <ele>65</ele>
        <time>2021-08-08T10:24:17Z</time>
      </trkpt>
      <trkpt lat="48.0612" lon="-2.73625">
        <ele>65</ele>
        <time>2021-08-08T10:24:19Z</time>
      </trkpt>
      <trkpt lat="48.06129" lon="-2.73636">
        <ele>65</ele>
        <time>2021-08-08T10:24:21Z</time>
      </trkpt>
      <trkpt lat="48.06133" lon="-2.73641">
        <ele>65</ele>
        <time>2021-08-08T10:24:22Z</time>
      </trkpt>
      <trkpt lat="48.06141" lon="-2.73651">
        <ele>65</ele>
        <time>2021-08-08T10:24:24Z</time>
      </trkpt>
      <trkpt lat="48.06145" lon="-2.73656">
        <ele>65</ele>
        <time>2021-08-08T10:24:25Z</time>
      </trkpt>
      <trkpt lat="48.06149" lon="-2.73661">
        <ele>65</ele>
        <time>2021-08-08T10:24:26Z</time>
      </trkpt>
      <trkpt lat="48.06153" lon="-2.73666">
        <ele>65</ele>
        <time>2021-08-08T10:24:27Z</time>
      </trkpt>
      <trkpt lat="48.0616" lon="-2.73676">
        <ele>65</ele>
        <time>2021-08-08T10:24:29Z</time>
      </trkpt>
      <trkpt lat="48.06165" lon="-2.73681">
        <ele>65</ele>
        <time>2021-08-08T10:24:30Z</time>
      </trkpt>
      <trkpt lat="48.06169" lon="-2.73686">
        <ele>65</ele>
        <time>2021-08-08T10:24:31Z</time>
      </trkpt>
      <trkpt lat="48.06173" lon="-2.73691">
        <ele>65</ele>
        <time>2021-08-08T10:24:32Z</time>
      </trkpt>
      <trkpt lat="48.06181" lon="-2.73699">
        <ele>64.6</ele>
        <time>2021-08-08T10:24:34Z</time>
      </trkpt>
      <trkpt lat="48.06185" lon="-2.73703">
        <ele>64.8</ele>
        <time>2021-08-08T10:24:35Z</time>
      </trkpt>
      <trkpt lat="48.06189" lon="-2.73707">
        <ele>64.4</ele>
        <time>2021-08-08T10:24:36Z</time>
      </trkpt>
      <trkpt lat="48.06194" lon="-2.73711">
        <ele>64.4</ele>
        <time>2021-08-08T10:24:37Z</time>
      </trkpt>
      <trkpt lat="48.06198" lon="-2.73714">
        <ele>64.4</ele>
        <time>2021-08-08T10:24:38Z</time>
      </trkpt>
      <trkpt lat="48.06205" lon="-2.73722">
        <ele>64.6</ele>
        <time>2021-08-08T10:24:40Z</time>
      </trkpt>
      <trkpt lat="48.06212" lon="-2.73729">
        <ele>64.6</ele>
        <time>2021-08-08T10:24:42Z</time>
      </trkpt>
      <trkpt lat="48.06215" lon="-2.73732">
        <ele>64.6</ele>
        <time>2021-08-08T10:24:43Z</time>
      </trkpt>
      <trkpt lat="48.06221" lon="-2.73741">
        <ele>64.4</ele>
        <time>2021-08-08T10:24:45Z</time>
      </trkpt>
      <trkpt lat="48.06224" lon="-2.73746">
        <ele>64.4</ele>
        <time>2021-08-08T10:24:46Z</time>
      </trkpt>
      <trkpt lat="48.06227" lon="-2.73751">
        <ele>64.4</ele>
        <time>2021-08-08T10:24:47Z</time>
      </trkpt>
      <trkpt lat="48.06229" lon="-2.73755">
        <ele>64.4</ele>
        <time>2021-08-08T10:24:48Z</time>
      </trkpt>
      <trkpt lat="48.06231" lon="-2.73761">
        <ele>64.4</ele>
        <time>2021-08-08T10:24:49Z</time>
      </trkpt>
      <trkpt lat="48.06233" lon="-2.73767">
        <ele>64.4</ele>
        <time>2021-08-08T10:24:50Z</time>
      </trkpt>
      <trkpt lat="48.06235" lon="-2.73773">
        <ele>64.4</ele>
        <time>2021-08-08T10:24:51Z</time>
      </trkpt>
      <trkpt lat="48.06239" lon="-2.73789">
        <ele>64.4</ele>
        <time>2021-08-08T10:24:53Z</time>
      </trkpt>
      <trkpt lat="48.06242" lon="-2.73806">
        <ele>64.4</ele>
        <time>2021-08-08T10:24:55Z</time>
      </trkpt>
      <trkpt lat="48.06243" lon="-2.73814">
        <ele>64.4</ele>
        <time>2021-08-08T10:24:56Z</time>
      </trkpt>
      <trkpt lat="48.06247" lon="-2.73829">
        <ele>64.2</ele>
        <time>2021-08-08T10:24:58Z</time>
      </trkpt>
      <trkpt lat="48.06248" lon="-2.73837">
        <ele>64.2</ele>
        <time>2021-08-08T10:24:59Z</time>
      </trkpt>
      <trkpt lat="48.0625" lon="-2.73843">
        <ele>64.2</ele>
        <time>2021-08-08T10:25:00Z</time>
      </trkpt>
      <trkpt lat="48.06251" lon="-2.73849">
        <ele>64.2</ele>
        <time>2021-08-08T10:25:01Z</time>
      </trkpt>
      <trkpt lat="48.06254" lon="-2.73863">
        <ele>64.2</ele>
        <time>2021-08-08T10:25:03Z</time>
      </trkpt>
      <trkpt lat="48.06256" lon="-2.7387">
        <ele>64.2</ele>
        <time>2021-08-08T10:25:04Z</time>
      </trkpt>
      <trkpt lat="48.06257" lon="-2.73877">
        <ele>64.4</ele>
        <time>2021-08-08T10:25:05Z</time>
      </trkpt>
      <trkpt lat="48.06257" lon="-2.73883">
        <ele>64.4</ele>
        <time>2021-08-08T10:25:06Z</time>
      </trkpt>
      <trkpt lat="48.06259" lon="-2.73889">
        <ele>64.4</ele>
        <time>2021-08-08T10:25:07Z</time>
      </trkpt>
      <trkpt lat="48.0626" lon="-2.73895">
        <ele>64.4</ele>
        <time>2021-08-08T10:25:08Z</time>
      </trkpt>
      <trkpt lat="48.06262" lon="-2.739">
        <ele>64.4</ele>
        <time>2021-08-08T10:25:09Z</time>
      </trkpt>
      <trkpt lat="48.06265" lon="-2.73912">
        <ele>64.4</ele>
        <time>2021-08-08T10:25:11Z</time>
      </trkpt>
      <trkpt lat="48.06266" lon="-2.73917">
        <ele>64.4</ele>
        <time>2021-08-08T10:25:12Z</time>
      </trkpt>
      <trkpt lat="48.0627" lon="-2.7393">
        <ele>64.4</ele>
        <time>2021-08-08T10:25:14Z</time>
      </trkpt>
      <trkpt lat="48.06271" lon="-2.73937">
        <ele>64.4</ele>
        <time>2021-08-08T10:25:15Z</time>
      </trkpt>
      <trkpt lat="48.06272" lon="-2.73945">
        <ele>64.4</ele>
        <time>2021-08-08T10:25:16Z</time>
      </trkpt>
      <trkpt lat="48.06273" lon="-2.73953">
        <ele>64.6</ele>
        <time>2021-08-08T10:25:17Z</time>
      </trkpt>
      <trkpt lat="48.06277" lon="-2.73968">
        <ele>64.6</ele>
        <time>2021-08-08T10:25:19Z</time>
      </trkpt>
      <trkpt lat="48.06278" lon="-2.73975">
        <ele>64.6</ele>
        <time>2021-08-08T10:25:20Z</time>
      </trkpt>
      <trkpt lat="48.06281" lon="-2.7399">
        <ele>64.8</ele>
        <time>2021-08-08T10:25:22Z</time>
      </trkpt>
      <trkpt lat="48.06284" lon="-2.74005">
        <ele>65.2</ele>
        <time>2021-08-08T10:25:24Z</time>
      </trkpt>
      <trkpt lat="48.06286" lon="-2.74013">
        <ele>65.2</ele>
        <time>2021-08-08T10:25:25Z</time>
      </trkpt>
      <trkpt lat="48.06288" lon="-2.74029">
        <ele>65.4</ele>
        <time>2021-08-08T10:25:27Z</time>
      </trkpt>
      <trkpt lat="48.06289" lon="-2.74037">
        <ele>65.6</ele>
        <time>2021-08-08T10:25:28Z</time>
      </trkpt>
      <trkpt lat="48.0629" lon="-2.74045">
        <ele>65.6</ele>
        <time>2021-08-08T10:25:29Z</time>
      </trkpt>
      <trkpt lat="48.06292" lon="-2.74053">
        <ele>65.8</ele>
        <time>2021-08-08T10:25:30Z</time>
      </trkpt>
      <trkpt lat="48.06295" lon="-2.74068">
        <ele>65.8</ele>
        <time>2021-08-08T10:25:32Z</time>
      </trkpt>
      <trkpt lat="48.06296" lon="-2.74075">
        <ele>65.8</ele>
        <time>2021-08-08T10:25:33Z</time>
      </trkpt>
      <trkpt lat="48.06299" lon="-2.74089">
        <ele>65.8</ele>
        <time>2021-08-08T10:25:35Z</time>
      </trkpt>
      <trkpt lat="48.06301" lon="-2.74096">
        <ele>65.8</ele>
        <time>2021-08-08T10:25:36Z</time>
      </trkpt>
      <trkpt lat="48.06302" lon="-2.74103">
        <ele>65.8</ele>
        <time>2021-08-08T10:25:37Z</time>
      </trkpt>
      <trkpt lat="48.06303" lon="-2.7411">
        <ele>65.8</ele>
        <time>2021-08-08T10:25:38Z</time>
      </trkpt>
      <trkpt lat="48.06305" lon="-2.74124">
        <ele>65.6</ele>
        <time>2021-08-08T10:25:40Z</time>
      </trkpt>
      <trkpt lat="48.06306" lon="-2.7413">
        <ele>65.6</ele>
        <time>2021-08-08T10:25:41Z</time>
      </trkpt>
      <trkpt lat="48.06308" lon="-2.74136">
        <ele>65.6</ele>
        <time>2021-08-08T10:25:42Z</time>
      </trkpt>
      <trkpt lat="48.06309" lon="-2.74142">
        <ele>65.6</ele>
        <time>2021-08-08T10:25:43Z</time>
      </trkpt>
      <trkpt lat="48.06312" lon="-2.74154">
        <ele>65.8</ele>
        <time>2021-08-08T10:25:45Z</time>
      </trkpt>
      <trkpt lat="48.06313" lon="-2.7416">
        <ele>65.8</ele>
        <time>2021-08-08T10:25:46Z</time>
      </trkpt>
      <trkpt lat="48.06316" lon="-2.74173">
        <ele>65.8</ele>
        <time>2021-08-08T10:25:48Z</time>
      </trkpt>
      <trkpt lat="48.06318" lon="-2.7418">
        <ele>65.8</ele>
        <time>2021-08-08T10:25:49Z</time>
      </trkpt>
      <trkpt lat="48.0632" lon="-2.74186">
        <ele>66</ele>
        <time>2021-08-08T10:25:50Z</time>
      </trkpt>
      <trkpt lat="48.06322" lon="-2.74192">
        <ele>66</ele>
        <time>2021-08-08T10:25:51Z</time>
      </trkpt>
      <trkpt lat="48.06327" lon="-2.74204">
        <ele>66</ele>
        <time>2021-08-08T10:25:53Z</time>
      </trkpt>
      <trkpt lat="48.06331" lon="-2.74209">
        <ele>66</ele>
        <time>2021-08-08T10:25:54Z</time>
      </trkpt>
      <trkpt lat="48.06334" lon="-2.74214">
        <ele>66.2</ele>
        <time>2021-08-08T10:25:55Z</time>
      </trkpt>
      <trkpt lat="48.06337" lon="-2.74218">
        <ele>66.2</ele>
        <time>2021-08-08T10:25:56Z</time>
      </trkpt>
      <trkpt lat="48.06344" lon="-2.74229">
        <ele>66.2</ele>
        <time>2021-08-08T10:25:58Z</time>
      </trkpt>
      <trkpt lat="48.06347" lon="-2.74234">
        <ele>66.2</ele>
        <time>2021-08-08T10:25:59Z</time>
      </trkpt>
      <trkpt lat="48.06353" lon="-2.74245">
        <ele>66.4</ele>
        <time>2021-08-08T10:26:01Z</time>
      </trkpt>
      <trkpt lat="48.06356" lon="-2.7425">
        <ele>66.4</ele>
        <time>2021-08-08T10:26:02Z</time>
      </trkpt>
      <trkpt lat="48.06359" lon="-2.74256">
        <ele>66.4</ele>
        <time>2021-08-08T10:26:03Z</time>
      </trkpt>
      <trkpt lat="48.06362" lon="-2.74261">
        <ele>66.4</ele>
        <time>2021-08-08T10:26:04Z</time>
      </trkpt>
      <trkpt lat="48.06369" lon="-2.74271">
        <ele>66.2</ele>
        <time>2021-08-08T10:26:06Z</time>
      </trkpt>
      <trkpt lat="48.06372" lon="-2.74275">
        <ele>66.2</ele>
        <time>2021-08-08T10:26:07Z</time>
      </trkpt>
      <trkpt lat="48.06379" lon="-2.74284">
        <ele>66.2</ele>
        <time>2021-08-08T10:26:09Z</time>
      </trkpt>
      <trkpt lat="48.06382" lon="-2.74289">
        <ele>66.2</ele>
        <time>2021-08-08T10:26:10Z</time>
      </trkpt>
      <trkpt lat="48.06385" lon="-2.74293">
        <ele>66.2</ele>
        <time>2021-08-08T10:26:11Z</time>
      </trkpt>
      <trkpt lat="48.06388" lon="-2.74298">
        <ele>66</ele>
        <time>2021-08-08T10:26:12Z</time>
      </trkpt>
      <trkpt lat="48.06394" lon="-2.74307">
        <ele>66</ele>
        <time>2021-08-08T10:26:14Z</time>
      </trkpt>
      <trkpt lat="48.06397" lon="-2.74311">
        <ele>66</ele>
        <time>2021-08-08T10:26:15Z</time>
      </trkpt>
      <trkpt lat="48.064" lon="-2.74316">
        <ele>66</ele>
        <time>2021-08-08T10:26:16Z</time>
      </trkpt>
      <trkpt lat="48.06403" lon="-2.74322">
        <ele>66</ele>
        <time>2021-08-08T10:26:17Z</time>
      </trkpt>
      <trkpt lat="48.06408" lon="-2.74333">
        <ele>66</ele>
        <time>2021-08-08T10:26:19Z</time>
      </trkpt>
      <trkpt lat="48.06411" lon="-2.74339">
        <ele>66</ele>
        <time>2021-08-08T10:26:20Z</time>
      </trkpt>
      <trkpt lat="48.06417" lon="-2.74353">
        <ele>66</ele>
        <time>2021-08-08T10:26:22Z</time>
      </trkpt>
      <trkpt lat="48.06423" lon="-2.74366">
        <ele>66.2</ele>
        <time>2021-08-08T10:26:24Z</time>
      </trkpt>
      <trkpt lat="48.06426" lon="-2.74372">
        <ele>66.2</ele>
        <time>2021-08-08T10:26:25Z</time>
      </trkpt>
      <trkpt lat="48.06429" lon="-2.74379">
        <ele>66.2</ele>
        <time>2021-08-08T10:26:26Z</time>
      </trkpt>
      <trkpt lat="48.06432" lon="-2.74386">
        <ele>66.2</ele>
        <time>2021-08-08T10:26:27Z</time>
      </trkpt>
      <trkpt lat="48.06435" lon="-2.74392">
        <ele>66.2</ele>
        <time>2021-08-08T10:26:28Z</time>
      </trkpt>
      <trkpt lat="48.06438" lon="-2.74398">
        <ele>66.2</ele>
        <time>2021-08-08T10:26:29Z</time>
      </trkpt>
      <trkpt lat="48.06441" lon="-2.74404">
        <ele>66.4</ele>
        <time>2021-08-08T10:26:30Z</time>
      </trkpt>
      <trkpt lat="48.06446" lon="-2.74417">
        <ele>66.4</ele>
        <time>2021-08-08T10:26:32Z</time>
      </trkpt>
      <trkpt lat="48.06449" lon="-2.74423">
        <ele>66.4</ele>
        <time>2021-08-08T10:26:33Z</time>
      </trkpt>
      <trkpt lat="48.06454" lon="-2.74434">
        <ele>66.4</ele>
        <time>2021-08-08T10:26:35Z</time>
      </trkpt>
      <trkpt lat="48.06457" lon="-2.7444">
        <ele>66.4</ele>
        <time>2021-08-08T10:26:36Z</time>
      </trkpt>
      <trkpt lat="48.0646" lon="-2.74447">
        <ele>66.4</ele>
        <time>2021-08-08T10:26:37Z</time>
      </trkpt>
      <trkpt lat="48.06463" lon="-2.74453">
        <ele>66.4</ele>
        <time>2021-08-08T10:26:38Z</time>
      </trkpt>
      <trkpt lat="48.06469" lon="-2.74466">
        <ele>66.6</ele>
        <time>2021-08-08T10:26:40Z</time>
      </trkpt>
      <trkpt lat="48.06472" lon="-2.74473">
        <ele>66.6</ele>
        <time>2021-08-08T10:26:41Z</time>
      </trkpt>
      <trkpt lat="48.06475" lon="-2.74479">
        <ele>66.6</ele>
        <time>2021-08-08T10:26:42Z</time>
      </trkpt>
      <trkpt lat="48.06477" lon="-2.74485">
        <ele>66.4</ele>
        <time>2021-08-08T10:26:43Z</time>
      </trkpt>
      <trkpt lat="48.0648" lon="-2.74491">
        <ele>66.4</ele>
        <time>2021-08-08T10:26:44Z</time>
      </trkpt>
      <trkpt lat="48.06483" lon="-2.74496">
        <ele>66.2</ele>
        <time>2021-08-08T10:26:45Z</time>
      </trkpt>
      <trkpt lat="48.06486" lon="-2.74501">
        <ele>66.2</ele>
        <time>2021-08-08T10:26:46Z</time>
      </trkpt>
      <trkpt lat="48.06492" lon="-2.74511">
        <ele>66.2</ele>
        <time>2021-08-08T10:26:48Z</time>
      </trkpt>
      <trkpt lat="48.06495" lon="-2.74515">
        <ele>66.2</ele>
        <time>2021-08-08T10:26:49Z</time>
      </trkpt>
      <trkpt lat="48.06497" lon="-2.7452">
        <ele>66.2</ele>
        <time>2021-08-08T10:26:50Z</time>
      </trkpt>
      <trkpt lat="48.06501" lon="-2.74525">
        <ele>66.2</ele>
        <time>2021-08-08T10:26:51Z</time>
      </trkpt>
      <trkpt lat="48.06508" lon="-2.74534">
        <ele>66.2</ele>
        <time>2021-08-08T10:26:53Z</time>
      </trkpt>
      <trkpt lat="48.06511" lon="-2.74539">
        <ele>66.2</ele>
        <time>2021-08-08T10:26:54Z</time>
      </trkpt>
      <trkpt lat="48.06517" lon="-2.74547">
        <ele>66</ele>
        <time>2021-08-08T10:26:56Z</time>
      </trkpt>
      <trkpt lat="48.0652" lon="-2.74552">
        <ele>66</ele>
        <time>2021-08-08T10:26:57Z</time>
      </trkpt>
      <trkpt lat="48.06523" lon="-2.74556">
        <ele>66</ele>
        <time>2021-08-08T10:26:58Z</time>
      </trkpt>
      <trkpt lat="48.06525" lon="-2.74561">
        <ele>66</ele>
        <time>2021-08-08T10:26:59Z</time>
      </trkpt>
      <trkpt lat="48.06528" lon="-2.74566">
        <ele>66</ele>
        <time>2021-08-08T10:27:00Z</time>
      </trkpt>
      <trkpt lat="48.06531" lon="-2.7457">
        <ele>65.8</ele>
        <time>2021-08-08T10:27:01Z</time>
      </trkpt>
      <trkpt lat="48.06534" lon="-2.74574">
        <ele>65.8</ele>
        <time>2021-08-08T10:27:02Z</time>
      </trkpt>
      <trkpt lat="48.06539" lon="-2.74583">
        <ele>65.8</ele>
        <time>2021-08-08T10:27:04Z</time>
      </trkpt>
      <trkpt lat="48.06544" lon="-2.74593">
        <ele>66</ele>
        <time>2021-08-08T10:27:06Z</time>
      </trkpt>
      <trkpt lat="48.06547" lon="-2.74598">
        <ele>66</ele>
        <time>2021-08-08T10:27:07Z</time>
      </trkpt>
      <trkpt lat="48.06549" lon="-2.74603">
        <ele>66</ele>
        <time>2021-08-08T10:27:08Z</time>
      </trkpt>
      <trkpt lat="48.06552" lon="-2.74609">
        <ele>66</ele>
        <time>2021-08-08T10:27:09Z</time>
      </trkpt>
      <trkpt lat="48.06554" lon="-2.74615">
        <ele>66</ele>
        <time>2021-08-08T10:27:10Z</time>
      </trkpt>
      <trkpt lat="48.06559" lon="-2.74621">
        <ele>66</ele>
        <time>2021-08-08T10:27:11Z</time>
      </trkpt>
      <trkpt lat="48.06562" lon="-2.74627">
        <ele>66</ele>
        <time>2021-08-08T10:27:12Z</time>
      </trkpt>
      <trkpt lat="48.0657" lon="-2.74638">
        <ele>65.8</ele>
        <time>2021-08-08T10:27:14Z</time>
      </trkpt>
      <trkpt lat="48.06575" lon="-2.74645">
        <ele>65.8</ele>
        <time>2021-08-08T10:27:15Z</time>
      </trkpt>
      <trkpt lat="48.06579" lon="-2.74652">
        <ele>65.8</ele>
        <time>2021-08-08T10:27:16Z</time>
      </trkpt>
      <trkpt lat="48.06583" lon="-2.74658">
        <ele>65.8</ele>
        <time>2021-08-08T10:27:17Z</time>
      </trkpt>
      <trkpt lat="48.06591" lon="-2.74674">
        <ele>65.8</ele>
        <time>2021-08-08T10:27:19Z</time>
      </trkpt>
      <trkpt lat="48.06595" lon="-2.74681">
        <ele>65.8</ele>
        <time>2021-08-08T10:27:20Z</time>
      </trkpt>
      <trkpt lat="48.06602" lon="-2.74696">
        <ele>65.8</ele>
        <time>2021-08-08T10:27:22Z</time>
      </trkpt>
      <trkpt lat="48.06606" lon="-2.74703">
        <ele>65.8</ele>
        <time>2021-08-08T10:27:23Z</time>
      </trkpt>
      <trkpt lat="48.06609" lon="-2.7471">
        <ele>65.8</ele>
        <time>2021-08-08T10:27:24Z</time>
      </trkpt>
      <trkpt lat="48.06612" lon="-2.74717">
        <ele>65.8</ele>
        <time>2021-08-08T10:27:25Z</time>
      </trkpt>
      <trkpt lat="48.06615" lon="-2.74723">
        <ele>65.8</ele>
        <time>2021-08-08T10:27:26Z</time>
      </trkpt>
      <trkpt lat="48.06618" lon="-2.74728">
        <ele>65.8</ele>
        <time>2021-08-08T10:27:27Z</time>
      </trkpt>
      <trkpt lat="48.06621" lon="-2.74735">
        <ele>65.6</ele>
        <time>2021-08-08T10:27:28Z</time>
      </trkpt>
      <trkpt lat="48.06626" lon="-2.74751">
        <ele>65.6</ele>
        <time>2021-08-08T10:27:30Z</time>
      </trkpt>
      <trkpt lat="48.06631" lon="-2.74765">
        <ele>65.8</ele>
        <time>2021-08-08T10:27:32Z</time>
      </trkpt>
      <trkpt lat="48.06633" lon="-2.74772">
        <ele>65.8</ele>
        <time>2021-08-08T10:27:33Z</time>
      </trkpt>
      <trkpt lat="48.06635" lon="-2.7478">
        <ele>66</ele>
        <time>2021-08-08T10:27:34Z</time>
      </trkpt>
      <trkpt lat="48.06637" lon="-2.74787">
        <ele>66</ele>
        <time>2021-08-08T10:27:35Z</time>
      </trkpt>
      <trkpt lat="48.06639" lon="-2.74794">
        <ele>66.2</ele>
        <time>2021-08-08T10:27:36Z</time>
      </trkpt>
      <trkpt lat="48.06642" lon="-2.748">
        <ele>66.2</ele>
        <time>2021-08-08T10:27:37Z</time>
      </trkpt>
      <trkpt lat="48.06644" lon="-2.74807">
        <ele>66.2</ele>
        <time>2021-08-08T10:27:38Z</time>
      </trkpt>
      <trkpt lat="48.06648" lon="-2.7482">
        <ele>66.2</ele>
        <time>2021-08-08T10:27:40Z</time>
      </trkpt>
      <trkpt lat="48.06649" lon="-2.74827">
        <ele>66.2</ele>
        <time>2021-08-08T10:27:41Z</time>
      </trkpt>
      <trkpt lat="48.06651" lon="-2.74834">
        <ele>66.4</ele>
        <time>2021-08-08T10:27:42Z</time>
      </trkpt>
      <trkpt lat="48.06652" lon="-2.74841">
        <ele>66.4</ele>
        <time>2021-08-08T10:27:43Z</time>
      </trkpt>
      <trkpt lat="48.06653" lon="-2.74848">
        <ele>66.4</ele>
        <time>2021-08-08T10:27:44Z</time>
      </trkpt>
      <trkpt lat="48.06653" lon="-2.74854">
        <ele>66.4</ele>
        <time>2021-08-08T10:27:45Z</time>
      </trkpt>
      <trkpt lat="48.06654" lon="-2.74861">
        <ele>66.4</ele>
        <time>2021-08-08T10:27:46Z</time>
      </trkpt>
      <trkpt lat="48.06654" lon="-2.74875">
        <ele>66.4</ele>
        <time>2021-08-08T10:27:48Z</time>
      </trkpt>
      <trkpt lat="48.06654" lon="-2.74881">
        <ele>66.6</ele>
        <time>2021-08-08T10:27:49Z</time>
      </trkpt>
      <trkpt lat="48.06654" lon="-2.74893">
        <ele>66.6</ele>
        <time>2021-08-08T10:27:51Z</time>
      </trkpt>
      <trkpt lat="48.06655" lon="-2.74904">
        <ele>66.6</ele>
        <time>2021-08-08T10:27:53Z</time>
      </trkpt>
      <trkpt lat="48.06655" lon="-2.74909">
        <ele>66.6</ele>
        <time>2021-08-08T10:27:54Z</time>
      </trkpt>
      <trkpt lat="48.06656" lon="-2.74918">
        <ele>66.6</ele>
        <time>2021-08-08T10:27:56Z</time>
      </trkpt>
      <trkpt lat="48.06656" lon="-2.74922">
        <ele>66.8</ele>
        <time>2021-08-08T10:27:57Z</time>
      </trkpt>
      <trkpt lat="48.06657" lon="-2.74926">
        <ele>66.8</ele>
        <time>2021-08-08T10:27:58Z</time>
      </trkpt>
      <trkpt lat="48.06658" lon="-2.74929">
        <ele>66.8</ele>
        <time>2021-08-08T10:27:59Z</time>
      </trkpt>
      <trkpt lat="48.06659" lon="-2.74933">
        <ele>66.8</ele>
        <time>2021-08-08T10:28:00Z</time>
      </trkpt>
      <trkpt lat="48.0666" lon="-2.74937">
        <ele>66.8</ele>
        <time>2021-08-08T10:28:01Z</time>
      </trkpt>
      <trkpt lat="48.06662" lon="-2.7494">
        <ele>67</ele>
        <time>2021-08-08T10:28:02Z</time>
      </trkpt>
      <trkpt lat="48.06666" lon="-2.74946">
        <ele>67</ele>
        <time>2021-08-08T10:28:04Z</time>
      </trkpt>
      <trkpt lat="48.06668" lon="-2.74949">
        <ele>67.4</ele>
        <time>2021-08-08T10:28:05Z</time>
      </trkpt>
      <trkpt lat="48.0667" lon="-2.74952">
        <ele>67.6</ele>
        <time>2021-08-08T10:28:06Z</time>
      </trkpt>
      <trkpt lat="48.06672" lon="-2.74954">
        <ele>67.8</ele>
        <time>2021-08-08T10:28:07Z</time>
      </trkpt>
      <trkpt lat="48.06676" lon="-2.74957">
        <ele>67.8</ele>
        <time>2021-08-08T10:28:09Z</time>
      </trkpt>
      <trkpt lat="48.06679" lon="-2.7496">
        <ele>68</ele>
        <time>2021-08-08T10:28:10Z</time>
      </trkpt>
      <trkpt lat="48.06681" lon="-2.74963">
        <ele>68</ele>
        <time>2021-08-08T10:28:11Z</time>
      </trkpt>
      <trkpt lat="48.06683" lon="-2.74965">
        <ele>68.2</ele>
        <time>2021-08-08T10:28:12Z</time>
      </trkpt>
      <trkpt lat="48.06685" lon="-2.74967">
        <ele>68.2</ele>
        <time>2021-08-08T10:28:13Z</time>
      </trkpt>
      <trkpt lat="48.06688" lon="-2.74969">
        <ele>68.2</ele>
        <time>2021-08-08T10:28:14Z</time>
      </trkpt>
      <trkpt lat="48.0669" lon="-2.7497">
        <ele>68.2</ele>
        <time>2021-08-08T10:28:15Z</time>
      </trkpt>
      <trkpt lat="48.06695" lon="-2.74974">
        <ele>68.2</ele>
        <time>2021-08-08T10:28:17Z</time>
      </trkpt>
      <trkpt lat="48.06697" lon="-2.74977">
        <ele>68.2</ele>
        <time>2021-08-08T10:28:18Z</time>
      </trkpt>
      <trkpt lat="48.067" lon="-2.74979">
        <ele>68.4</ele>
        <time>2021-08-08T10:28:19Z</time>
      </trkpt>
      <trkpt lat="48.06703" lon="-2.74981">
        <ele>68.4</ele>
        <time>2021-08-08T10:28:20Z</time>
      </trkpt>
      <trkpt lat="48.06709" lon="-2.74984">
        <ele>68.2</ele>
        <time>2021-08-08T10:28:22Z</time>
      </trkpt>
      <trkpt lat="48.06712" lon="-2.74984">
        <ele>68.2</ele>
        <time>2021-08-08T10:28:23Z</time>
      </trkpt>
      <trkpt lat="48.06719" lon="-2.74983">
        <ele>68.2</ele>
        <time>2021-08-08T10:28:25Z</time>
      </trkpt>
      <trkpt lat="48.06722" lon="-2.74982">
        <ele>68.2</ele>
        <time>2021-08-08T10:28:26Z</time>
      </trkpt>
      <trkpt lat="48.06725" lon="-2.74979">
        <ele>68.2</ele>
        <time>2021-08-08T10:28:27Z</time>
      </trkpt>
      <trkpt lat="48.06728" lon="-2.74977">
        <ele>68</ele>
        <time>2021-08-08T10:28:28Z</time>
      </trkpt>
      <trkpt lat="48.06732" lon="-2.74973">
        <ele>68</ele>
        <time>2021-08-08T10:28:30Z</time>
      </trkpt>
      <trkpt lat="48.06734" lon="-2.7497">
        <ele>68</ele>
        <time>2021-08-08T10:28:31Z</time>
      </trkpt>
      <trkpt lat="48.06736" lon="-2.74968">
        <ele>68</ele>
        <time>2021-08-08T10:28:32Z</time>
      </trkpt>
      <trkpt lat="48.06738" lon="-2.74967">
        <ele>68</ele>
        <time>2021-08-08T10:28:33Z</time>
      </trkpt>
      <trkpt lat="48.0674" lon="-2.74965">
        <ele>68</ele>
        <time>2021-08-08T10:28:34Z</time>
      </trkpt>
      <trkpt lat="48.06743" lon="-2.74964">
        <ele>68</ele>
        <time>2021-08-08T10:28:35Z</time>
      </trkpt>
      <trkpt lat="48.06745" lon="-2.74962">
        <ele>68</ele>
        <time>2021-08-08T10:28:36Z</time>
      </trkpt>
      <trkpt lat="48.06751" lon="-2.74959">
        <ele>68</ele>
        <time>2021-08-08T10:28:38Z</time>
      </trkpt>
      <trkpt lat="48.06753" lon="-2.74958">
        <ele>68</ele>
        <time>2021-08-08T10:28:39Z</time>
      </trkpt>
      <trkpt lat="48.06759" lon="-2.74955">
        <ele>68</ele>
        <time>2021-08-08T10:28:41Z</time>
      </trkpt>
      <trkpt lat="48.06764" lon="-2.74952">
        <ele>68</ele>
        <time>2021-08-08T10:28:43Z</time>
      </trkpt>
      <trkpt lat="48.06768" lon="-2.74951">
        <ele>68</ele>
        <time>2021-08-08T10:28:44Z</time>
      </trkpt>
      <trkpt lat="48.06774" lon="-2.74949">
        <ele>68.2</ele>
        <time>2021-08-08T10:28:46Z</time>
      </trkpt>
      <trkpt lat="48.06777" lon="-2.74949">
        <ele>68.2</ele>
        <time>2021-08-08T10:28:47Z</time>
      </trkpt>
      <trkpt lat="48.0678" lon="-2.74949">
        <ele>68.2</ele>
        <time>2021-08-08T10:28:48Z</time>
      </trkpt>
      <trkpt lat="48.06783" lon="-2.74949">
        <ele>68.2</ele>
        <time>2021-08-08T10:28:49Z</time>
      </trkpt>
      <trkpt lat="48.06789" lon="-2.7495">
        <ele>68.4</ele>
        <time>2021-08-08T10:28:51Z</time>
      </trkpt>
      <trkpt lat="48.06792" lon="-2.74951">
        <ele>68.4</ele>
        <time>2021-08-08T10:28:52Z</time>
      </trkpt>
      <trkpt lat="48.06798" lon="-2.74952">
        <ele>68.6</ele>
        <time>2021-08-08T10:28:54Z</time>
      </trkpt>
      <trkpt lat="48.06801" lon="-2.74952">
        <ele>68.8</ele>
        <time>2021-08-08T10:28:55Z</time>
      </trkpt>
      <trkpt lat="48.06803" lon="-2.74952">
        <ele>69</ele>
        <time>2021-08-08T10:28:56Z</time>
      </trkpt>
      <trkpt lat="48.06806" lon="-2.74952">
        <ele>69</ele>
        <time>2021-08-08T10:28:57Z</time>
      </trkpt>
      <trkpt lat="48.06809" lon="-2.74952">
        <ele>69.2</ele>
        <time>2021-08-08T10:28:59Z</time>
      </trkpt>
      <trkpt lat="48.0681" lon="-2.74953">
        <ele>69.6</ele>
        <time>2021-08-08T10:29:00Z</time>
      </trkpt>
      <trkpt lat="48.06814" lon="-2.74958">
        <ele>70.4</ele>
        <time>2021-08-08T10:29:02Z</time>
      </trkpt>
      <trkpt lat="48.06815" lon="-2.74961">
        <ele>71.2</ele>
        <time>2021-08-08T10:29:03Z</time>
      </trkpt>
      <trkpt lat="48.06815" lon="-2.74966">
        <ele>71.8</ele>
        <time>2021-08-08T10:29:04Z</time>
      </trkpt>
      <trkpt lat="48.06815" lon="-2.7497">
        <ele>72</ele>
        <time>2021-08-08T10:29:05Z</time>
      </trkpt>
      <trkpt lat="48.06814" lon="-2.74975">
        <ele>72.2</ele>
        <time>2021-08-08T10:29:06Z</time>
      </trkpt>
      <trkpt lat="48.06814" lon="-2.74979">
        <ele>72.4</ele>
        <time>2021-08-08T10:29:07Z</time>
      </trkpt>
      <trkpt lat="48.06814" lon="-2.74984">
        <ele>72.4</ele>
        <time>2021-08-08T10:29:08Z</time>
      </trkpt>
      <trkpt lat="48.06815" lon="-2.74989">
        <ele>72.4</ele>
        <time>2021-08-08T10:29:09Z</time>
      </trkpt>
      <trkpt lat="48.06815" lon="-2.74993">
        <ele>72.4</ele>
        <time>2021-08-08T10:29:10Z</time>
      </trkpt>
      <trkpt lat="48.06816" lon="-2.74998">
        <ele>72.4</ele>
        <time>2021-08-08T10:29:11Z</time>
      </trkpt>
      <trkpt lat="48.06817" lon="-2.75003">
        <ele>72.4</ele>
        <time>2021-08-08T10:29:12Z</time>
      </trkpt>
      <trkpt lat="48.06819" lon="-2.75006">
        <ele>72.4</ele>
        <time>2021-08-08T10:29:13Z</time>
      </trkpt>
      <trkpt lat="48.06821" lon="-2.75007">
        <ele>72.4</ele>
        <time>2021-08-08T10:29:14Z</time>
      </trkpt>
      <trkpt lat="48.06822" lon="-2.75007">
        <ele>72.4</ele>
        <time>2021-08-08T10:29:15Z</time>
      </trkpt>
      <trkpt lat="48.06823" lon="-2.75008">
        <ele>72.4</ele>
        <time>2021-08-08T10:29:16Z</time>
      </trkpt>
      <trkpt lat="48.06824" lon="-2.75008">
        <ele>72.4</ele>
        <time>2021-08-08T10:29:17Z</time>
      </trkpt>
      <trkpt lat="48.06824" lon="-2.75008">
        <ele>72.4</ele>
        <time>2021-08-08T10:29:18Z</time>
      </trkpt>
      <trkpt lat="48.06824" lon="-2.75009">
        <ele>71.6</ele>
        <time>2021-08-08T10:29:31Z</time>
      </trkpt>
      <trkpt lat="48.06823" lon="-2.7501">
        <ele>71.6</ele>
        <time>2021-08-08T10:29:32Z</time>
      </trkpt>
      <trkpt lat="48.06823" lon="-2.7501">
        <ele>71.6</ele>
        <time>2021-08-08T10:29:33Z</time>
      </trkpt>
      <trkpt lat="48.06823" lon="-2.75011">
        <ele>71.4</ele>
        <time>2021-08-08T10:29:50Z</time>
      </trkpt>
      <trkpt lat="48.06822" lon="-2.75012">
        <ele>71.4</ele>
        <time>2021-08-08T10:29:51Z</time>
      </trkpt>
      <trkpt lat="48.06821" lon="-2.75013">
        <ele>71.4</ele>
        <time>2021-08-08T10:29:52Z</time>
      </trkpt>
      <trkpt lat="48.06819" lon="-2.75014">
        <ele>71.4</ele>
        <time>2021-08-08T10:29:53Z</time>
      </trkpt>
      <trkpt lat="48.06816" lon="-2.75013">
        <ele>71.4</ele>
        <time>2021-08-08T10:29:54Z</time>
      </trkpt>
      <trkpt lat="48.06814" lon="-2.75011">
        <ele>71.4</ele>
        <time>2021-08-08T10:29:55Z</time>
      </trkpt>
      <trkpt lat="48.06812" lon="-2.75008">
        <ele>71.4</ele>
        <time>2021-08-08T10:29:56Z</time>
      </trkpt>
      <trkpt lat="48.0681" lon="-2.75004">
        <ele>71.4</ele>
        <time>2021-08-08T10:29:57Z</time>
      </trkpt>
      <trkpt lat="48.06809" lon="-2.75002">
        <ele>71.4</ele>
        <time>2021-08-08T10:29:58Z</time>
      </trkpt>
      <trkpt lat="48.06809" lon="-2.75">
        <ele>71.4</ele>
        <time>2021-08-08T10:29:59Z</time>
      </trkpt>
      <trkpt lat="48.06809" lon="-2.74999">
        <ele>71.4</ele>
        <time>2021-08-08T10:30:00Z</time>
      </trkpt>
      <trkpt lat="48.06808" lon="-2.74999">
        <ele>71.4</ele>
        <time>2021-08-08T10:30:02Z</time>
      </trkpt>
      <trkpt lat="48.06808" lon="-2.74999">
        <ele>71.4</ele>
        <time>2021-08-08T10:30:03Z</time>
      </trkpt>
      <trkpt lat="48.06808" lon="-2.74999">
        <ele>71.6</ele>
        <time>2021-08-08T10:30:04Z</time>
      </trkpt>
      <trkpt lat="48.06808" lon="-2.75">
        <ele>71.6</ele>
        <time>2021-08-08T10:30:05Z</time>
      </trkpt>
      <trkpt lat="48.06807" lon="-2.75">
        <ele>71.8</ele>
        <time>2021-08-08T10:30:06Z</time>
      </trkpt>
      <trkpt lat="48.06807" lon="-2.75">
        <ele>71.8</ele>
        <time>2021-08-08T10:30:07Z</time>
      </trkpt>
      <trkpt lat="48.06806" lon="-2.75">
        <ele>72</ele>
        <time>2021-08-08T10:30:08Z</time>
      </trkpt>
      <trkpt lat="48.06806" lon="-2.75">
        <ele>72</ele>
        <time>2021-08-08T10:30:09Z</time>
      </trkpt>
      <trkpt lat="48.06808" lon="-2.75008">
        <ele>72.4</ele>
        <time>2021-08-08T10:30:59Z</time>
      </trkpt>
      <trkpt lat="48.0681" lon="-2.75008">
        <ele>72.4</ele>
        <time>2021-08-08T10:31:00Z</time>
      </trkpt>
      <trkpt lat="48.06812" lon="-2.75009">
        <ele>72.2</ele>
        <time>2021-08-08T10:31:01Z</time>
      </trkpt>
      <trkpt lat="48.06815" lon="-2.7501">
        <ele>72.2</ele>
        <time>2021-08-08T10:31:02Z</time>
      </trkpt>
      <trkpt lat="48.06818" lon="-2.75012">
        <ele>72.2</ele>
        <time>2021-08-08T10:31:03Z</time>
      </trkpt>
      <trkpt lat="48.06821" lon="-2.75015">
        <ele>72.2</ele>
        <time>2021-08-08T10:31:04Z</time>
      </trkpt>
      <trkpt lat="48.06825" lon="-2.75019">
        <ele>72.2</ele>
        <time>2021-08-08T10:31:05Z</time>
      </trkpt>
      <trkpt lat="48.06829" lon="-2.75022">
        <ele>72</ele>
        <time>2021-08-08T10:31:06Z</time>
      </trkpt>
      <trkpt lat="48.06834" lon="-2.75023">
        <ele>72</ele>
        <time>2021-08-08T10:31:07Z</time>
      </trkpt>
      <trkpt lat="48.06839" lon="-2.75025">
        <ele>72</ele>
        <time>2021-08-08T10:31:08Z</time>
      </trkpt>
      <trkpt lat="48.06844" lon="-2.75027">
        <ele>71.8</ele>
        <time>2021-08-08T10:31:09Z</time>
      </trkpt>
      <trkpt lat="48.06848" lon="-2.75029">
        <ele>71.8</ele>
        <time>2021-08-08T10:31:10Z</time>
      </trkpt>
      <trkpt lat="48.06853" lon="-2.75032">
        <ele>71.6</ele>
        <time>2021-08-08T10:31:11Z</time>
      </trkpt>
      <trkpt lat="48.06857" lon="-2.75036">
        <ele>71.4</ele>
        <time>2021-08-08T10:31:12Z</time>
      </trkpt>
      <trkpt lat="48.06861" lon="-2.75041">
        <ele>70.8</ele>
        <time>2021-08-08T10:31:13Z</time>
      </trkpt>
      <trkpt lat="48.06864" lon="-2.75046">
        <ele>70.6</ele>
        <time>2021-08-08T10:31:14Z</time>
      </trkpt>
      <trkpt lat="48.06866" lon="-2.75052">
        <ele>70.4</ele>
        <time>2021-08-08T10:31:15Z</time>
      </trkpt>
      <trkpt lat="48.06868" lon="-2.75058">
        <ele>70.4</ele>
        <time>2021-08-08T10:31:16Z</time>
      </trkpt>
      <trkpt lat="48.06869" lon="-2.75065">
        <ele>70.2</ele>
        <time>2021-08-08T10:31:17Z</time>
      </trkpt>
      <trkpt lat="48.0687" lon="-2.75071">
        <ele>70</ele>
        <time>2021-08-08T10:31:18Z</time>
      </trkpt>
      <trkpt lat="48.06871" lon="-2.75078">
        <ele>70</ele>
        <time>2021-08-08T10:31:19Z</time>
      </trkpt>
      <trkpt lat="48.06872" lon="-2.75084">
        <ele>69.8</ele>
        <time>2021-08-08T10:31:20Z</time>
      </trkpt>
      <trkpt lat="48.06873" lon="-2.75091">
        <ele>69.6</ele>
        <time>2021-08-08T10:31:21Z</time>
      </trkpt>
      <trkpt lat="48.06872" lon="-2.75097">
        <ele>69.6</ele>
        <time>2021-08-08T10:31:22Z</time>
      </trkpt>
      <trkpt lat="48.06872" lon="-2.75103">
        <ele>69.6</ele>
        <time>2021-08-08T10:31:23Z</time>
      </trkpt>
      <trkpt lat="48.06873" lon="-2.75109">
        <ele>69.6</ele>
        <time>2021-08-08T10:31:24Z</time>
      </trkpt>
      <trkpt lat="48.06873" lon="-2.75114">
        <ele>69.8</ele>
        <time>2021-08-08T10:31:25Z</time>
      </trkpt>
      <trkpt lat="48.06874" lon="-2.75119">
        <ele>69.8</ele>
        <time>2021-08-08T10:31:26Z</time>
      </trkpt>
      <trkpt lat="48.06875" lon="-2.75123">
        <ele>69.8</ele>
        <time>2021-08-08T10:31:27Z</time>
      </trkpt>
      <trkpt lat="48.06876" lon="-2.75128">
        <ele>70</ele>
        <time>2021-08-08T10:31:28Z</time>
      </trkpt>
      <trkpt lat="48.06876" lon="-2.75133">
        <ele>70.2</ele>
        <time>2021-08-08T10:31:29Z</time>
      </trkpt>
      <trkpt lat="48.06877" lon="-2.75137">
        <ele>70.2</ele>
        <time>2021-08-08T10:31:30Z</time>
      </trkpt>
      <trkpt lat="48.06877" lon="-2.75142">
        <ele>70.2</ele>
        <time>2021-08-08T10:31:31Z</time>
      </trkpt>
      <trkpt lat="48.06878" lon="-2.75147">
        <ele>70.4</ele>
        <time>2021-08-08T10:31:32Z</time>
      </trkpt>
      <trkpt lat="48.06878" lon="-2.75151">
        <ele>70.6</ele>
        <time>2021-08-08T10:31:33Z</time>
      </trkpt>
      <trkpt lat="48.06879" lon="-2.75155">
        <ele>71</ele>
        <time>2021-08-08T10:31:34Z</time>
      </trkpt>
      <trkpt lat="48.06881" lon="-2.7516">
        <ele>71</ele>
        <time>2021-08-08T10:31:35Z</time>
      </trkpt>
      <trkpt lat="48.06882" lon="-2.75162">
        <ele>71.2</ele>
        <time>2021-08-08T10:31:36Z</time>
      </trkpt>
      <trkpt lat="48.06886" lon="-2.75164">
        <ele>71.4</ele>
        <time>2021-08-08T10:31:37Z</time>
      </trkpt>
      <trkpt lat="48.06889" lon="-2.75163">
        <ele>71.6</ele>
        <time>2021-08-08T10:31:38Z</time>
      </trkpt>
      <trkpt lat="48.06891" lon="-2.75161">
        <ele>71.8</ele>
        <time>2021-08-08T10:31:39Z</time>
      </trkpt>
      <trkpt lat="48.06893" lon="-2.75158">
        <ele>72</ele>
        <time>2021-08-08T10:31:40Z</time>
      </trkpt>
      <trkpt lat="48.06894" lon="-2.75156">
        <ele>72</ele>
        <time>2021-08-08T10:31:41Z</time>
      </trkpt>
      <trkpt lat="48.06896" lon="-2.75153">
        <ele>72.2</ele>
        <time>2021-08-08T10:31:42Z</time>
      </trkpt>
      <trkpt lat="48.06898" lon="-2.7515">
        <ele>72.4</ele>
        <time>2021-08-08T10:31:43Z</time>
      </trkpt>
      <trkpt lat="48.06899" lon="-2.75148">
        <ele>72.6</ele>
        <time>2021-08-08T10:31:44Z</time>
      </trkpt>
      <trkpt lat="48.06902" lon="-2.75145">
        <ele>72.8</ele>
        <time>2021-08-08T10:31:45Z</time>
      </trkpt>
      <trkpt lat="48.06904" lon="-2.75142">
        <ele>72.8</ele>
        <time>2021-08-08T10:31:46Z</time>
      </trkpt>
      <trkpt lat="48.06907" lon="-2.7514">
        <ele>73</ele>
        <time>2021-08-08T10:31:47Z</time>
      </trkpt>
      <trkpt lat="48.0691" lon="-2.75138">
        <ele>73</ele>
        <time>2021-08-08T10:31:48Z</time>
      </trkpt>
      <trkpt lat="48.06913" lon="-2.75138">
        <ele>73</ele>
        <time>2021-08-08T10:31:49Z</time>
      </trkpt>
      <trkpt lat="48.06916" lon="-2.75139">
        <ele>73</ele>
        <time>2021-08-08T10:31:50Z</time>
      </trkpt>
      <trkpt lat="48.06917" lon="-2.7514">
        <ele>73</ele>
        <time>2021-08-08T10:31:51Z</time>
      </trkpt>
      <trkpt lat="48.06918" lon="-2.75141">
        <ele>73</ele>
        <time>2021-08-08T10:31:52Z</time>
      </trkpt>
      <trkpt lat="48.0692" lon="-2.75142">
        <ele>73</ele>
        <time>2021-08-08T10:31:53Z</time>
      </trkpt>
      <trkpt lat="48.06922" lon="-2.75142">
        <ele>73.2</ele>
        <time>2021-08-08T10:31:54Z</time>
      </trkpt>
      <trkpt lat="48.06923" lon="-2.75142">
        <ele>73.2</ele>
        <time>2021-08-08T10:31:55Z</time>
      </trkpt>
      <trkpt lat="48.06925" lon="-2.75143">
        <ele>73.2</ele>
        <time>2021-08-08T10:31:56Z</time>
      </trkpt>
      <trkpt lat="48.06926" lon="-2.75143">
        <ele>73.2</ele>
        <time>2021-08-08T10:31:57Z</time>
      </trkpt>
      <trkpt lat="48.06927" lon="-2.75142">
        <ele>73.2</ele>
        <time>2021-08-08T10:31:58Z</time>
      </trkpt>
      <trkpt lat="48.06928" lon="-2.75142">
        <ele>73.2</ele>
        <time>2021-08-08T10:31:59Z</time>
      </trkpt>
      <trkpt lat="48.0693" lon="-2.75142">
        <ele>73.2</ele>
        <time>2021-08-08T10:32:00Z</time>
      </trkpt>
      <trkpt lat="48.06931" lon="-2.75142">
        <ele>73.4</ele>
        <time>2021-08-08T10:32:01Z</time>
      </trkpt>
      <trkpt lat="48.06932" lon="-2.75142">
        <ele>73.6</ele>
        <time>2021-08-08T10:32:02Z</time>
      </trkpt>
      <trkpt lat="48.06933" lon="-2.75142">
        <ele>74</ele>
        <time>2021-08-08T10:32:03Z</time>
      </trkpt>
      <trkpt lat="48.06934" lon="-2.75142">
        <ele>74.2</ele>
        <time>2021-08-08T10:32:04Z</time>
      </trkpt>
      <trkpt lat="48.06936" lon="-2.75142">
        <ele>74.4</ele>
        <time>2021-08-08T10:32:05Z</time>
      </trkpt>
      <trkpt lat="48.06937" lon="-2.75143">
        <ele>74.6</ele>
        <time>2021-08-08T10:32:06Z</time>
      </trkpt>
      <trkpt lat="48.06939" lon="-2.75143">
        <ele>74.8</ele>
        <time>2021-08-08T10:32:07Z</time>
      </trkpt>
      <trkpt lat="48.0694" lon="-2.75143">
        <ele>74.8</ele>
        <time>2021-08-08T10:32:08Z</time>
      </trkpt>
      <trkpt lat="48.0694" lon="-2.75143">
        <ele>75</ele>
        <time>2021-08-08T10:32:09Z</time>
      </trkpt>
      <trkpt lat="48.06942" lon="-2.75144">
        <ele>75</ele>
        <time>2021-08-08T10:32:10Z</time>
      </trkpt>
      <trkpt lat="48.06944" lon="-2.75144">
        <ele>75.2</ele>
        <time>2021-08-08T10:32:11Z</time>
      </trkpt>
      <trkpt lat="48.06946" lon="-2.75145">
        <ele>75.4</ele>
        <time>2021-08-08T10:32:12Z</time>
      </trkpt>
      <trkpt lat="48.06946" lon="-2.75144">
        <ele>75.4</ele>
        <time>2021-08-08T10:32:13Z</time>
      </trkpt>
      <trkpt lat="48.06947" lon="-2.75144">
        <ele>75.6</ele>
        <time>2021-08-08T10:32:14Z</time>
      </trkpt>
      <trkpt lat="48.06948" lon="-2.75144">
        <ele>75.6</ele>
        <time>2021-08-08T10:32:15Z</time>
      </trkpt>
      <trkpt lat="48.06949" lon="-2.75145">
        <ele>75.8</ele>
        <time>2021-08-08T10:32:16Z</time>
      </trkpt>
      <trkpt lat="48.0695" lon="-2.75146">
        <ele>75.8</ele>
        <time>2021-08-08T10:32:17Z</time>
      </trkpt>
      <trkpt lat="48.06951" lon="-2.75148">
        <ele>76</ele>
        <time>2021-08-08T10:32:18Z</time>
      </trkpt>
      <trkpt lat="48.06952" lon="-2.75152">
        <ele>76.2</ele>
        <time>2021-08-08T10:32:19Z</time>
      </trkpt>
      <trkpt lat="48.06953" lon="-2.75155">
        <ele>76.2</ele>
        <time>2021-08-08T10:32:20Z</time>
      </trkpt>
      <trkpt lat="48.06952" lon="-2.75157">
        <ele>76.4</ele>
        <time>2021-08-08T10:32:21Z</time>
      </trkpt>
      <trkpt lat="48.0695" lon="-2.7516">
        <ele>76.4</ele>
        <time>2021-08-08T10:32:22Z</time>
      </trkpt>
      <trkpt lat="48.06948" lon="-2.7516">
        <ele>76.4</ele>
        <time>2021-08-08T10:32:23Z</time>
      </trkpt>
      <trkpt lat="48.06947" lon="-2.75159">
        <ele>76.4</ele>
        <time>2021-08-08T10:32:24Z</time>
      </trkpt>
      <trkpt lat="48.06946" lon="-2.75157">
        <ele>76.4</ele>
        <time>2021-08-08T10:32:25Z</time>
      </trkpt>
      <trkpt lat="48.06944" lon="-2.75155">
        <ele>76.4</ele>
        <time>2021-08-08T10:32:26Z</time>
      </trkpt>
      <trkpt lat="48.06944" lon="-2.75153">
        <ele>76.4</ele>
        <time>2021-08-08T10:32:27Z</time>
      </trkpt>
      <trkpt lat="48.06941" lon="-2.75151">
        <ele>76.4</ele>
        <time>2021-08-08T10:32:28Z</time>
      </trkpt>
      <trkpt lat="48.06938" lon="-2.7515">
        <ele>76.4</ele>
        <time>2021-08-08T10:32:29Z</time>
      </trkpt>
      <trkpt lat="48.06935" lon="-2.75148">
        <ele>76.4</ele>
        <time>2021-08-08T10:32:30Z</time>
      </trkpt>
      <trkpt lat="48.06932" lon="-2.75147">
        <ele>76.4</ele>
        <time>2021-08-08T10:32:31Z</time>
      </trkpt>
      <trkpt lat="48.06929" lon="-2.75147">
        <ele>76.4</ele>
        <time>2021-08-08T10:32:32Z</time>
      </trkpt>
      <trkpt lat="48.06928" lon="-2.75148">
        <ele>76.4</ele>
        <time>2021-08-08T10:32:33Z</time>
      </trkpt>
      <trkpt lat="48.06927" lon="-2.75149">
        <ele>76.2</ele>
        <time>2021-08-08T10:32:34Z</time>
      </trkpt>
      <trkpt lat="48.06926" lon="-2.75153">
        <ele>76</ele>
        <time>2021-08-08T10:32:35Z</time>
      </trkpt>
      <trkpt lat="48.06925" lon="-2.75156">
        <ele>75.6</ele>
        <time>2021-08-08T10:32:36Z</time>
      </trkpt>
      <trkpt lat="48.06925" lon="-2.75159">
        <ele>75</ele>
        <time>2021-08-08T10:32:37Z</time>
      </trkpt>
      <trkpt lat="48.06924" lon="-2.75161">
        <ele>74.6</ele>
        <time>2021-08-08T10:32:38Z</time>
      </trkpt>
      <trkpt lat="48.06925" lon="-2.75163">
        <ele>74.6</ele>
        <time>2021-08-08T10:32:39Z</time>
      </trkpt>
      <trkpt lat="48.06925" lon="-2.75165">
        <ele>74.4</ele>
        <time>2021-08-08T10:32:40Z</time>
      </trkpt>
      <trkpt lat="48.06924" lon="-2.75167">
        <ele>74.4</ele>
        <time>2021-08-08T10:32:41Z</time>
      </trkpt>
      <trkpt lat="48.06923" lon="-2.75167">
        <ele>74.4</ele>
        <time>2021-08-08T10:32:42Z</time>
      </trkpt>
      <trkpt lat="48.06923" lon="-2.75168">
        <ele>74.4</ele>
        <time>2021-08-08T10:32:43Z</time>
      </trkpt>
      <trkpt lat="48.06922" lon="-2.75167">
        <ele>74.4</ele>
        <time>2021-08-08T10:32:44Z</time>
      </trkpt>
      <trkpt lat="48.06922" lon="-2.75165">
        <ele>74.4</ele>
        <time>2021-08-08T10:32:45Z</time>
      </trkpt>
      <trkpt lat="48.06921" lon="-2.75163">
        <ele>74.4</ele>
        <time>2021-08-08T10:32:46Z</time>
      </trkpt>
      <trkpt lat="48.0692" lon="-2.75161">
        <ele>74.6</ele>
        <time>2021-08-08T10:32:47Z</time>
      </trkpt>
      <trkpt lat="48.0692" lon="-2.75159">
        <ele>74.8</ele>
        <time>2021-08-08T10:32:48Z</time>
      </trkpt>
      <trkpt lat="48.06921" lon="-2.75157">
        <ele>74.8</ele>
        <time>2021-08-08T10:32:49Z</time>
      </trkpt>
      <trkpt lat="48.06922" lon="-2.75155">
        <ele>74.8</ele>
        <time>2021-08-08T10:32:50Z</time>
      </trkpt>
      <trkpt lat="48.06923" lon="-2.75154">
        <ele>74.8</ele>
        <time>2021-08-08T10:32:51Z</time>
      </trkpt>
      <trkpt lat="48.06925" lon="-2.75154">
        <ele>74.8</ele>
        <time>2021-08-08T10:32:52Z</time>
      </trkpt>
      <trkpt lat="48.06926" lon="-2.75155">
        <ele>74.8</ele>
        <time>2021-08-08T10:32:53Z</time>
      </trkpt>
      <trkpt lat="48.06927" lon="-2.75155">
        <ele>74.8</ele>
        <time>2021-08-08T10:32:54Z</time>
      </trkpt>
      <trkpt lat="48.06929" lon="-2.75155">
        <ele>74.8</ele>
        <time>2021-08-08T10:32:55Z</time>
      </trkpt>
      <trkpt lat="48.0693" lon="-2.75155">
        <ele>75</ele>
        <time>2021-08-08T10:32:56Z</time>
      </trkpt>
      <trkpt lat="48.06931" lon="-2.75153">
        <ele>75</ele>
        <time>2021-08-08T10:32:57Z</time>
      </trkpt>
      <trkpt lat="48.06933" lon="-2.75152">
        <ele>75</ele>
        <time>2021-08-08T10:32:58Z</time>
      </trkpt>
      <trkpt lat="48.06935" lon="-2.75151">
        <ele>75</ele>
        <time>2021-08-08T10:32:59Z</time>
      </trkpt>
      <trkpt lat="48.06937" lon="-2.75151">
        <ele>75</ele>
        <time>2021-08-08T10:33:00Z</time>
      </trkpt>
      <trkpt lat="48.06939" lon="-2.75152">
        <ele>75</ele>
        <time>2021-08-08T10:33:01Z</time>
      </trkpt>
      <trkpt lat="48.0694" lon="-2.75152">
        <ele>75</ele>
        <time>2021-08-08T10:33:02Z</time>
      </trkpt>
      <trkpt lat="48.06942" lon="-2.75153">
        <ele>75</ele>
        <time>2021-08-08T10:33:03Z</time>
      </trkpt>
      <trkpt lat="48.06943" lon="-2.75153">
        <ele>75</ele>
        <time>2021-08-08T10:33:04Z</time>
      </trkpt>
      <trkpt lat="48.06945" lon="-2.75154">
        <ele>75</ele>
        <time>2021-08-08T10:33:05Z</time>
      </trkpt>
      <trkpt lat="48.06947" lon="-2.75154">
        <ele>75</ele>
        <time>2021-08-08T10:33:06Z</time>
      </trkpt>
      <trkpt lat="48.06948" lon="-2.75155">
        <ele>75</ele>
        <time>2021-08-08T10:33:07Z</time>
      </trkpt>
      <trkpt lat="48.0695" lon="-2.75155">
        <ele>75.2</ele>
        <time>2021-08-08T10:33:08Z</time>
      </trkpt>
      <trkpt lat="48.06951" lon="-2.75155">
        <ele>75.2</ele>
        <time>2021-08-08T10:33:09Z</time>
      </trkpt>
      <trkpt lat="48.06952" lon="-2.75155">
        <ele>75.4</ele>
        <time>2021-08-08T10:33:10Z</time>
      </trkpt>
      <trkpt lat="48.06953" lon="-2.75155">
        <ele>75.4</ele>
        <time>2021-08-08T10:33:11Z</time>
      </trkpt>
      <trkpt lat="48.06954" lon="-2.75154">
        <ele>75.6</ele>
        <time>2021-08-08T10:33:12Z</time>
      </trkpt>
      <trkpt lat="48.06954" lon="-2.75154">
        <ele>75.8</ele>
        <time>2021-08-08T10:33:13Z</time>
      </trkpt>
      <trkpt lat="48.06955" lon="-2.75155">
        <ele>76</ele>
        <time>2021-08-08T10:33:14Z</time>
      </trkpt>
      <trkpt lat="48.06955" lon="-2.75155">
        <ele>76</ele>
        <time>2021-08-08T10:33:15Z</time>
      </trkpt>
      <trkpt lat="48.06957" lon="-2.75155">
        <ele>76.2</ele>
        <time>2021-08-08T10:33:16Z</time>
      </trkpt>
      <trkpt lat="48.06958" lon="-2.75156">
        <ele>76.2</ele>
        <time>2021-08-08T10:33:17Z</time>
      </trkpt>
      <trkpt lat="48.0696" lon="-2.75154">
        <ele>76.2</ele>
        <time>2021-08-08T10:33:18Z</time>
      </trkpt>
      <trkpt lat="48.06961" lon="-2.75152">
        <ele>76.4</ele>
        <time>2021-08-08T10:33:20Z</time>
      </trkpt>
      <trkpt lat="48.06962" lon="-2.7515">
        <ele>76.4</ele>
        <time>2021-08-08T10:33:21Z</time>
      </trkpt>
      <trkpt lat="48.06963" lon="-2.75148">
        <ele>76.4</ele>
        <time>2021-08-08T10:33:22Z</time>
      </trkpt>
      <trkpt lat="48.06965" lon="-2.75146">
        <ele>76.4</ele>
        <time>2021-08-08T10:33:23Z</time>
      </trkpt>
      <trkpt lat="48.06966" lon="-2.75144">
        <ele>76.2</ele>
        <time>2021-08-08T10:33:24Z</time>
      </trkpt>
      <trkpt lat="48.06967" lon="-2.75142">
        <ele>76.2</ele>
        <time>2021-08-08T10:33:25Z</time>
      </trkpt>
      <trkpt lat="48.06968" lon="-2.7514">
        <ele>76.6</ele>
        <time>2021-08-08T10:35:30Z</time>
      </trkpt>
      <trkpt lat="48.06969" lon="-2.75138">
        <ele>76.6</ele>
        <time>2021-08-08T10:35:31Z</time>
      </trkpt>
      <trkpt lat="48.0697" lon="-2.75132">
        <ele>76.6</ele>
        <time>2021-08-08T10:35:32Z</time>
      </trkpt>
      <trkpt lat="48.06971" lon="-2.75126">
        <ele>76.6</ele>
        <time>2021-08-08T10:35:33Z</time>
      </trkpt>
      <trkpt lat="48.06972" lon="-2.75121">
        <ele>76.6</ele>
        <time>2021-08-08T10:35:34Z</time>
      </trkpt>
      <trkpt lat="48.06975" lon="-2.75116">
        <ele>76.6</ele>
        <time>2021-08-08T10:35:35Z</time>
      </trkpt>
      <trkpt lat="48.06978" lon="-2.75113">
        <ele>76.6</ele>
        <time>2021-08-08T10:35:36Z</time>
      </trkpt>
      <trkpt lat="48.06981" lon="-2.7511">
        <ele>76.4</ele>
        <time>2021-08-08T10:35:37Z</time>
      </trkpt>
      <trkpt lat="48.06985" lon="-2.75109">
        <ele>76</ele>
        <time>2021-08-08T10:35:38Z</time>
      </trkpt>
      <trkpt lat="48.06988" lon="-2.75109">
        <ele>76</ele>
        <time>2021-08-08T10:35:39Z</time>
      </trkpt>
      <trkpt lat="48.06991" lon="-2.7511">
        <ele>75.4</ele>
        <time>2021-08-08T10:35:40Z</time>
      </trkpt>
      <trkpt lat="48.06992" lon="-2.75112">
        <ele>75</ele>
        <time>2021-08-08T10:35:41Z</time>
      </trkpt>
      <trkpt lat="48.06994" lon="-2.75112">
        <ele>74.6</ele>
        <time>2021-08-08T10:35:42Z</time>
      </trkpt>
      <trkpt lat="48.06995" lon="-2.75113">
        <ele>74.4</ele>
        <time>2021-08-08T10:35:43Z</time>
      </trkpt>
      <trkpt lat="48.06996" lon="-2.75113">
        <ele>74.2</ele>
        <time>2021-08-08T10:35:44Z</time>
      </trkpt>
      <trkpt lat="48.06996" lon="-2.75113">
        <ele>74</ele>
        <time>2021-08-08T10:36:24Z</time>
      </trkpt>
      <trkpt lat="48.06996" lon="-2.75114">
        <ele>74</ele>
        <time>2021-08-08T10:36:25Z</time>
      </trkpt>
      <trkpt lat="48.06996" lon="-2.75114">
        <ele>74</ele>
        <time>2021-08-08T10:36:26Z</time>
      </trkpt>
      <trkpt lat="48.06996" lon="-2.75114">
        <ele>73.6</ele>
        <time>2021-08-08T10:36:35Z</time>
      </trkpt>
      <trkpt lat="48.06996" lon="-2.75113">
        <ele>73.6</ele>
        <time>2021-08-08T10:36:36Z</time>
      </trkpt>
      <trkpt lat="48.06996" lon="-2.75113">
        <ele>73.6</ele>
        <time>2021-08-08T10:36:37Z</time>
      </trkpt>
      <trkpt lat="48.06996" lon="-2.75109">
        <ele>72.8</ele>
        <time>2021-08-08T11:01:41Z</time>
      </trkpt>
      <trkpt lat="48.06997" lon="-2.75108">
        <ele>72.8</ele>
        <time>2021-08-08T11:01:42Z</time>
      </trkpt>
      <trkpt lat="48.06998" lon="-2.75109">
        <ele>72.8</ele>
        <time>2021-08-08T11:01:43Z</time>
      </trkpt>
      <trkpt lat="48.06993" lon="-2.75096">
        <ele>72.4</ele>
        <time>2021-08-08T11:24:42Z</time>
      </trkpt>
      <trkpt lat="48.06994" lon="-2.75094">
        <ele>72.4</ele>
        <time>2021-08-08T11:24:43Z</time>
      </trkpt>
      <trkpt lat="48.06995" lon="-2.75092">
        <ele>72.4</ele>
        <time>2021-08-08T11:24:44Z</time>
      </trkpt>
      <trkpt lat="48.06996" lon="-2.75091">
        <ele>72.4</ele>
        <time>2021-08-08T11:24:45Z</time>
      </trkpt>
      <trkpt lat="48.06998" lon="-2.7509">
        <ele>72.4</ele>
        <time>2021-08-08T11:24:46Z</time>
      </trkpt>
      <trkpt lat="48.06999" lon="-2.7509">
        <ele>72.4</ele>
        <time>2021-08-08T11:24:47Z</time>
      </trkpt>
      <trkpt lat="48.07" lon="-2.75091">
        <ele>72.4</ele>
        <time>2021-08-08T11:24:48Z</time>
      </trkpt>
      <trkpt lat="48.07" lon="-2.75093">
        <ele>72.4</ele>
        <time>2021-08-08T11:24:49Z</time>
      </trkpt>
      <trkpt lat="48.07001" lon="-2.75094">
        <ele>72.4</ele>
        <time>2021-08-08T11:24:50Z</time>
      </trkpt>
      <trkpt lat="48.07001" lon="-2.75096">
        <ele>72.4</ele>
        <time>2021-08-08T11:24:51Z</time>
      </trkpt>
      <trkpt lat="48.07001" lon="-2.75097">
        <ele>72.4</ele>
        <time>2021-08-08T11:24:52Z</time>
      </trkpt>
      <trkpt lat="48.07" lon="-2.75099">
        <ele>72.2</ele>
        <time>2021-08-08T11:24:53Z</time>
      </trkpt>
      <trkpt lat="48.07001" lon="-2.75101">
        <ele>72.2</ele>
        <time>2021-08-08T11:24:54Z</time>
      </trkpt>
      <trkpt lat="48.07001" lon="-2.75103">
        <ele>72.2</ele>
        <time>2021-08-08T11:24:55Z</time>
      </trkpt>
      <trkpt lat="48.07002" lon="-2.75107">
        <ele>72.2</ele>
        <time>2021-08-08T11:24:56Z</time>
      </trkpt>
      <trkpt lat="48.07003" lon="-2.7511">
        <ele>72.2</ele>
        <time>2021-08-08T11:24:57Z</time>
      </trkpt>
      <trkpt lat="48.07003" lon="-2.75115">
        <ele>72.2</ele>
        <time>2021-08-08T11:24:58Z</time>
      </trkpt>
      <trkpt lat="48.07004" lon="-2.7512">
        <ele>72</ele>
        <time>2021-08-08T11:24:59Z</time>
      </trkpt>
      <trkpt lat="48.07005" lon="-2.75126">
        <ele>72</ele>
        <time>2021-08-08T11:25:00Z</time>
      </trkpt>
      <trkpt lat="48.07006" lon="-2.75132">
        <ele>71.8</ele>
        <time>2021-08-08T11:25:01Z</time>
      </trkpt>
      <trkpt lat="48.07007" lon="-2.75139">
        <ele>71.4</ele>
        <time>2021-08-08T11:25:02Z</time>
      </trkpt>
      <trkpt lat="48.07008" lon="-2.75146">
        <ele>71</ele>
        <time>2021-08-08T11:25:03Z</time>
      </trkpt>
      <trkpt lat="48.07009" lon="-2.75153">
        <ele>70.6</ele>
        <time>2021-08-08T11:25:04Z</time>
      </trkpt>
      <trkpt lat="48.0701" lon="-2.7516">
        <ele>70.6</ele>
        <time>2021-08-08T11:25:05Z</time>
      </trkpt>
      <trkpt lat="48.07011" lon="-2.75167">
        <ele>70.4</ele>
        <time>2021-08-08T11:25:06Z</time>
      </trkpt>
      <trkpt lat="48.07011" lon="-2.75173">
        <ele>70.2</ele>
        <time>2021-08-08T11:25:07Z</time>
      </trkpt>
      <trkpt lat="48.07012" lon="-2.75179">
        <ele>70.2</ele>
        <time>2021-08-08T11:25:08Z</time>
      </trkpt>
      <trkpt lat="48.07013" lon="-2.75185">
        <ele>69.8</ele>
        <time>2021-08-08T11:25:09Z</time>
      </trkpt>
      <trkpt lat="48.07014" lon="-2.75191">
        <ele>69.4</ele>
        <time>2021-08-08T11:25:10Z</time>
      </trkpt>
      <trkpt lat="48.07014" lon="-2.75197">
        <ele>69.2</ele>
        <time>2021-08-08T11:25:11Z</time>
      </trkpt>
      <trkpt lat="48.07015" lon="-2.75202">
        <ele>69</ele>
        <time>2021-08-08T11:25:12Z</time>
      </trkpt>
      <trkpt lat="48.07016" lon="-2.75208">
        <ele>69</ele>
        <time>2021-08-08T11:25:13Z</time>
      </trkpt>
      <trkpt lat="48.07017" lon="-2.75214">
        <ele>69</ele>
        <time>2021-08-08T11:25:14Z</time>
      </trkpt>
      <trkpt lat="48.07018" lon="-2.7522">
        <ele>68.8</ele>
        <time>2021-08-08T11:25:15Z</time>
      </trkpt>
      <trkpt lat="48.07018" lon="-2.75226">
        <ele>68.8</ele>
        <time>2021-08-08T11:25:16Z</time>
      </trkpt>
      <trkpt lat="48.07019" lon="-2.75231">
        <ele>68.8</ele>
        <time>2021-08-08T11:25:17Z</time>
      </trkpt>
      <trkpt lat="48.0702" lon="-2.75237">
        <ele>68.8</ele>
        <time>2021-08-08T11:25:18Z</time>
      </trkpt>
      <trkpt lat="48.0702" lon="-2.75243">
        <ele>68.8</ele>
        <time>2021-08-08T11:25:19Z</time>
      </trkpt>
      <trkpt lat="48.07021" lon="-2.75249">
        <ele>68.8</ele>
        <time>2021-08-08T11:25:20Z</time>
      </trkpt>
      <trkpt lat="48.07022" lon="-2.75255">
        <ele>68.8</ele>
        <time>2021-08-08T11:25:21Z</time>
      </trkpt>
      <trkpt lat="48.07024" lon="-2.75261">
        <ele>68.8</ele>
        <time>2021-08-08T11:25:22Z</time>
      </trkpt>
      <trkpt lat="48.07026" lon="-2.75266">
        <ele>69</ele>
        <time>2021-08-08T11:25:23Z</time>
      </trkpt>
      <trkpt lat="48.07029" lon="-2.7527">
        <ele>69</ele>
        <time>2021-08-08T11:25:24Z</time>
      </trkpt>
      <trkpt lat="48.07031" lon="-2.75276">
        <ele>69</ele>
        <time>2021-08-08T11:25:25Z</time>
      </trkpt>
      <trkpt lat="48.07032" lon="-2.75281">
        <ele>69</ele>
        <time>2021-08-08T11:25:26Z</time>
      </trkpt>
      <trkpt lat="48.07034" lon="-2.75286">
        <ele>69</ele>
        <time>2021-08-08T11:25:27Z</time>
      </trkpt>
      <trkpt lat="48.07035" lon="-2.75291">
        <ele>69</ele>
        <time>2021-08-08T11:25:28Z</time>
      </trkpt>
      <trkpt lat="48.07037" lon="-2.75295">
        <ele>69</ele>
        <time>2021-08-08T11:25:29Z</time>
      </trkpt>
      <trkpt lat="48.07038" lon="-2.75299">
        <ele>69</ele>
        <time>2021-08-08T11:25:30Z</time>
      </trkpt>
      <trkpt lat="48.0704" lon="-2.75303">
        <ele>69</ele>
        <time>2021-08-08T11:25:31Z</time>
      </trkpt>
      <trkpt lat="48.07041" lon="-2.75308">
        <ele>69</ele>
        <time>2021-08-08T11:25:32Z</time>
      </trkpt>
      <trkpt lat="48.07043" lon="-2.75313">
        <ele>69</ele>
        <time>2021-08-08T11:25:33Z</time>
      </trkpt>
      <trkpt lat="48.07045" lon="-2.75318">
        <ele>69</ele>
        <time>2021-08-08T11:25:34Z</time>
      </trkpt>
      <trkpt lat="48.07048" lon="-2.75324">
        <ele>69</ele>
        <time>2021-08-08T11:25:35Z</time>
      </trkpt>
      <trkpt lat="48.0705" lon="-2.75329">
        <ele>69</ele>
        <time>2021-08-08T11:25:36Z</time>
      </trkpt>
      <trkpt lat="48.07053" lon="-2.75334">
        <ele>69</ele>
        <time>2021-08-08T11:25:37Z</time>
      </trkpt>
      <trkpt lat="48.07055" lon="-2.75339">
        <ele>69</ele>
        <time>2021-08-08T11:25:38Z</time>
      </trkpt>
      <trkpt lat="48.07057" lon="-2.75344">
        <ele>69</ele>
        <time>2021-08-08T11:25:39Z</time>
      </trkpt>
      <trkpt lat="48.07059" lon="-2.75349">
        <ele>69</ele>
        <time>2021-08-08T11:25:40Z</time>
      </trkpt>
      <trkpt lat="48.07061" lon="-2.75353">
        <ele>69</ele>
        <time>2021-08-08T11:25:41Z</time>
      </trkpt>
      <trkpt lat="48.07063" lon="-2.75357">
        <ele>68.8</ele>
        <time>2021-08-08T11:25:42Z</time>
      </trkpt>
      <trkpt lat="48.07066" lon="-2.75362">
        <ele>68.8</ele>
        <time>2021-08-08T11:25:43Z</time>
      </trkpt>
      <trkpt lat="48.07069" lon="-2.75366">
        <ele>68.8</ele>
        <time>2021-08-08T11:25:44Z</time>
      </trkpt>
      <trkpt lat="48.07071" lon="-2.75371">
        <ele>68.8</ele>
        <time>2021-08-08T11:25:45Z</time>
      </trkpt>
      <trkpt lat="48.07074" lon="-2.75375">
        <ele>68.8</ele>
        <time>2021-08-08T11:25:46Z</time>
      </trkpt>
      <trkpt lat="48.07076" lon="-2.7538">
        <ele>68.8</ele>
        <time>2021-08-08T11:25:47Z</time>
      </trkpt>
      <trkpt lat="48.07079" lon="-2.75384">
        <ele>68.8</ele>
        <time>2021-08-08T11:25:48Z</time>
      </trkpt>
      <trkpt lat="48.07081" lon="-2.75389">
        <ele>68.8</ele>
        <time>2021-08-08T11:25:49Z</time>
      </trkpt>
      <trkpt lat="48.07083" lon="-2.75393">
        <ele>68.8</ele>
        <time>2021-08-08T11:25:50Z</time>
      </trkpt>
      <trkpt lat="48.07086" lon="-2.75397">
        <ele>68.8</ele>
        <time>2021-08-08T11:25:51Z</time>
      </trkpt>
      <trkpt lat="48.07088" lon="-2.75401">
        <ele>68.8</ele>
        <time>2021-08-08T11:25:52Z</time>
      </trkpt>
      <trkpt lat="48.07091" lon="-2.75405">
        <ele>68.8</ele>
        <time>2021-08-08T11:25:53Z</time>
      </trkpt>
      <trkpt lat="48.07093" lon="-2.75408">
        <ele>69</ele>
        <time>2021-08-08T11:25:54Z</time>
      </trkpt>
      <trkpt lat="48.07096" lon="-2.75414">
        <ele>69</ele>
        <time>2021-08-08T11:25:55Z</time>
      </trkpt>
      <trkpt lat="48.07098" lon="-2.75418">
        <ele>69.2</ele>
        <time>2021-08-08T11:25:56Z</time>
      </trkpt>
      <trkpt lat="48.071" lon="-2.75424">
        <ele>69.4</ele>
        <time>2021-08-08T11:25:57Z</time>
      </trkpt>
      <trkpt lat="48.07102" lon="-2.75429">
        <ele>69.4</ele>
        <time>2021-08-08T11:25:58Z</time>
      </trkpt>
      <trkpt lat="48.07105" lon="-2.75434">
        <ele>69.4</ele>
        <time>2021-08-08T11:25:59Z</time>
      </trkpt>
      <trkpt lat="48.07108" lon="-2.75438">
        <ele>69.4</ele>
        <time>2021-08-08T11:26:00Z</time>
      </trkpt>
      <trkpt lat="48.0711" lon="-2.75443">
        <ele>69.4</ele>
        <time>2021-08-08T11:26:01Z</time>
      </trkpt>
      <trkpt lat="48.07113" lon="-2.75448">
        <ele>69.4</ele>
        <time>2021-08-08T11:26:02Z</time>
      </trkpt>
      <trkpt lat="48.07115" lon="-2.75452">
        <ele>69.4</ele>
        <time>2021-08-08T11:26:03Z</time>
      </trkpt>
      <trkpt lat="48.07118" lon="-2.75455">
        <ele>69.4</ele>
        <time>2021-08-08T11:26:04Z</time>
      </trkpt>
      <trkpt lat="48.0712" lon="-2.7546">
        <ele>69.4</ele>
        <time>2021-08-08T11:26:05Z</time>
      </trkpt>
      <trkpt lat="48.07122" lon="-2.75463">
        <ele>69.4</ele>
        <time>2021-08-08T11:26:06Z</time>
      </trkpt>
      <trkpt lat="48.07125" lon="-2.75468">
        <ele>69.2</ele>
        <time>2021-08-08T11:26:07Z</time>
      </trkpt>
      <trkpt lat="48.07127" lon="-2.75472">
        <ele>69.2</ele>
        <time>2021-08-08T11:26:08Z</time>
      </trkpt>
      <trkpt lat="48.0713" lon="-2.75475">
        <ele>69.2</ele>
        <time>2021-08-08T11:26:09Z</time>
      </trkpt>
      <trkpt lat="48.07132" lon="-2.75479">
        <ele>69.2</ele>
        <time>2021-08-08T11:26:10Z</time>
      </trkpt>
      <trkpt lat="48.07135" lon="-2.75481">
        <ele>69</ele>
        <time>2021-08-08T11:26:11Z</time>
      </trkpt>
      <trkpt lat="48.07138" lon="-2.75483">
        <ele>69</ele>
        <time>2021-08-08T11:26:12Z</time>
      </trkpt>
      <trkpt lat="48.0714" lon="-2.75486">
        <ele>69</ele>
        <time>2021-08-08T11:26:13Z</time>
      </trkpt>
      <trkpt lat="48.07143" lon="-2.75488">
        <ele>69</ele>
        <time>2021-08-08T11:26:14Z</time>
      </trkpt>
      <trkpt lat="48.07145" lon="-2.7549">
        <ele>69</ele>
        <time>2021-08-08T11:26:15Z</time>
      </trkpt>
      <trkpt lat="48.07146" lon="-2.75492">
        <ele>69</ele>
        <time>2021-08-08T11:26:16Z</time>
      </trkpt>
      <trkpt lat="48.07148" lon="-2.75495">
        <ele>69</ele>
        <time>2021-08-08T11:26:17Z</time>
      </trkpt>
      <trkpt lat="48.0715" lon="-2.75496">
        <ele>69</ele>
        <time>2021-08-08T11:26:18Z</time>
      </trkpt>
      <trkpt lat="48.07151" lon="-2.75495">
        <ele>69</ele>
        <time>2021-08-08T11:26:19Z</time>
      </trkpt>
      <trkpt lat="48.07153" lon="-2.75493">
        <ele>69</ele>
        <time>2021-08-08T11:26:20Z</time>
      </trkpt>
      <trkpt lat="48.07153" lon="-2.75492">
        <ele>69.2</ele>
        <time>2021-08-08T11:26:21Z</time>
      </trkpt>
      <trkpt lat="48.07154" lon="-2.75491">
        <ele>69.4</ele>
        <time>2021-08-08T11:26:22Z</time>
      </trkpt>
      <trkpt lat="48.07154" lon="-2.75491">
        <ele>69.6</ele>
        <time>2021-08-08T11:26:23Z</time>
      </trkpt>
      <trkpt lat="48.07154" lon="-2.75491">
        <ele>70.4</ele>
        <time>2021-08-08T11:26:24Z</time>
      </trkpt>
      <trkpt lat="48.07154" lon="-2.75492">
        <ele>72.2</ele>
        <time>2021-08-08T11:26:39Z</time>
      </trkpt>
      <trkpt lat="48.07154" lon="-2.75492">
        <ele>72.2</ele>
        <time>2021-08-08T11:26:40Z</time>
      </trkpt>
      <trkpt lat="48.07155" lon="-2.75492">
        <ele>72.2</ele>
        <time>2021-08-08T11:26:41Z</time>
      </trkpt>
      <trkpt lat="48.07155" lon="-2.75491">
        <ele>72.2</ele>
        <time>2021-08-08T11:26:43Z</time>
      </trkpt>
      <trkpt lat="48.07155" lon="-2.75491">
        <ele>72.2</ele>
        <time>2021-08-08T11:26:44Z</time>
      </trkpt>
      <trkpt lat="48.07155" lon="-2.7549">
        <ele>72.2</ele>
        <time>2021-08-08T11:26:45Z</time>
      </trkpt>
      <trkpt lat="48.07165" lon="-2.75466">
        <ele>72.6</ele>
        <time>2021-08-08T11:27:54Z</time>
      </trkpt>
      <trkpt lat="48.07166" lon="-2.75466">
        <ele>72.6</ele>
        <time>2021-08-08T11:27:55Z</time>
      </trkpt>
      <trkpt lat="48.07168" lon="-2.75466">
        <ele>72.6</ele>
        <time>2021-08-08T11:27:56Z</time>
      </trkpt>
      <trkpt lat="48.07169" lon="-2.75466">
        <ele>72.6</ele>
        <time>2021-08-08T11:27:57Z</time>
      </trkpt>
      <trkpt lat="48.07171" lon="-2.75466">
        <ele>72.6</ele>
        <time>2021-08-08T11:27:58Z</time>
      </trkpt>
      <trkpt lat="48.07173" lon="-2.75467">
        <ele>72.4</ele>
        <time>2021-08-08T11:27:59Z</time>
      </trkpt>
      <trkpt lat="48.07175" lon="-2.75467">
        <ele>72.2</ele>
        <time>2021-08-08T11:28:00Z</time>
      </trkpt>
      <trkpt lat="48.07176" lon="-2.75468">
        <ele>72.2</ele>
        <time>2021-08-08T11:28:01Z</time>
      </trkpt>
      <trkpt lat="48.07178" lon="-2.75469">
        <ele>71.6</ele>
        <time>2021-08-08T11:28:02Z</time>
      </trkpt>
      <trkpt lat="48.0718" lon="-2.75469">
        <ele>71.6</ele>
        <time>2021-08-08T11:28:03Z</time>
      </trkpt>
      <trkpt lat="48.07181" lon="-2.7547">
        <ele>71</ele>
        <time>2021-08-08T11:28:04Z</time>
      </trkpt>
      <trkpt lat="48.07183" lon="-2.7547">
        <ele>70.8</ele>
        <time>2021-08-08T11:28:05Z</time>
      </trkpt>
      <trkpt lat="48.07185" lon="-2.7547">
        <ele>70.8</ele>
        <time>2021-08-08T11:28:06Z</time>
      </trkpt>
      <trkpt lat="48.07188" lon="-2.75471">
        <ele>70.4</ele>
        <time>2021-08-08T11:28:07Z</time>
      </trkpt>
      <trkpt lat="48.0719" lon="-2.75471">
        <ele>70.2</ele>
        <time>2021-08-08T11:28:08Z</time>
      </trkpt>
      <trkpt lat="48.07192" lon="-2.75472">
        <ele>70.2</ele>
        <time>2021-08-08T11:28:09Z</time>
      </trkpt>
      <trkpt lat="48.07194" lon="-2.75471">
        <ele>69.8</ele>
        <time>2021-08-08T11:28:10Z</time>
      </trkpt>
      <trkpt lat="48.07197" lon="-2.75471">
        <ele>69.6</ele>
        <time>2021-08-08T11:28:11Z</time>
      </trkpt>
      <trkpt lat="48.072" lon="-2.75472">
        <ele>69.8</ele>
        <time>2021-08-08T11:28:12Z</time>
      </trkpt>
      <trkpt lat="48.07202" lon="-2.75474">
        <ele>69.6</ele>
        <time>2021-08-08T11:28:13Z</time>
      </trkpt>
      <trkpt lat="48.07204" lon="-2.75475">
        <ele>69.4</ele>
        <time>2021-08-08T11:28:14Z</time>
      </trkpt>
      <trkpt lat="48.07205" lon="-2.75476">
        <ele>69.4</ele>
        <time>2021-08-08T11:28:15Z</time>
      </trkpt>
      <trkpt lat="48.07205" lon="-2.75477">
        <ele>69.4</ele>
        <time>2021-08-08T11:28:16Z</time>
      </trkpt>
      <trkpt lat="48.07212" lon="-2.75476">
        <ele>69.8</ele>
        <time>2021-08-08T11:28:37Z</time>
      </trkpt>
      <trkpt lat="48.07212" lon="-2.75476">
        <ele>69.8</ele>
        <time>2021-08-08T11:28:38Z</time>
      </trkpt>
      <trkpt lat="48.07212" lon="-2.75476">
        <ele>69.8</ele>
        <time>2021-08-08T11:28:39Z</time>
      </trkpt>
      <trkpt lat="48.07208" lon="-2.75471">
        <ele>68</ele>
        <time>2021-08-08T12:05:58Z</time>
      </trkpt>
      <trkpt lat="48.07206" lon="-2.75471">
        <ele>67.8</ele>
        <time>2021-08-08T12:05:59Z</time>
      </trkpt>
      <trkpt lat="48.07205" lon="-2.75471">
        <ele>67.8</ele>
        <time>2021-08-08T12:06:00Z</time>
      </trkpt>
      <trkpt lat="48.07203" lon="-2.7547">
        <ele>67.8</ele>
        <time>2021-08-08T12:06:01Z</time>
      </trkpt>
      <trkpt lat="48.07201" lon="-2.7547">
        <ele>67.8</ele>
        <time>2021-08-08T12:06:02Z</time>
      </trkpt>
      <trkpt lat="48.07199" lon="-2.7547">
        <ele>67.6</ele>
        <time>2021-08-08T12:06:03Z</time>
      </trkpt>
      <trkpt lat="48.07196" lon="-2.7547">
        <ele>67.6</ele>
        <time>2021-08-08T12:06:04Z</time>
      </trkpt>
      <trkpt lat="48.07194" lon="-2.75469">
        <ele>67.6</ele>
        <time>2021-08-08T12:06:05Z</time>
      </trkpt>
      <trkpt lat="48.07192" lon="-2.75469">
        <ele>67.6</ele>
        <time>2021-08-08T12:06:06Z</time>
      </trkpt>
      <trkpt lat="48.07189" lon="-2.7547">
        <ele>67.6</ele>
        <time>2021-08-08T12:06:07Z</time>
      </trkpt>
      <trkpt lat="48.07187" lon="-2.7547">
        <ele>67.6</ele>
        <time>2021-08-08T12:06:08Z</time>
      </trkpt>
      <trkpt lat="48.07185" lon="-2.7547">
        <ele>67.6</ele>
        <time>2021-08-08T12:06:09Z</time>
      </trkpt>
      <trkpt lat="48.07183" lon="-2.7547">
        <ele>67.6</ele>
        <time>2021-08-08T12:06:10Z</time>
      </trkpt>
      <trkpt lat="48.07181" lon="-2.7547">
        <ele>67.6</ele>
        <time>2021-08-08T12:06:11Z</time>
      </trkpt>
      <trkpt lat="48.07179" lon="-2.7547">
        <ele>67.8</ele>
        <time>2021-08-08T12:06:12Z</time>
      </trkpt>
      <trkpt lat="48.07177" lon="-2.75469">
        <ele>67.8</ele>
        <time>2021-08-08T12:06:13Z</time>
      </trkpt>
      <trkpt lat="48.07176" lon="-2.75468">
        <ele>68</ele>
        <time>2021-08-08T12:06:14Z</time>
      </trkpt>
      <trkpt lat="48.07174" lon="-2.75468">
        <ele>68</ele>
        <time>2021-08-08T12:06:15Z</time>
      </trkpt>
      <trkpt lat="48.07172" lon="-2.75467">
        <ele>68.2</ele>
        <time>2021-08-08T12:06:16Z</time>
      </trkpt>
      <trkpt lat="48.0717" lon="-2.75467">
        <ele>68.4</ele>
        <time>2021-08-08T12:06:17Z</time>
      </trkpt>
      <trkpt lat="48.07169" lon="-2.75469">
        <ele>68.4</ele>
        <time>2021-08-08T12:06:18Z</time>
      </trkpt>
      <trkpt lat="48.07168" lon="-2.75471">
        <ele>68.4</ele>
        <time>2021-08-08T12:06:19Z</time>
      </trkpt>
      <trkpt lat="48.07167" lon="-2.75473">
        <ele>68.6</ele>
        <time>2021-08-08T12:06:20Z</time>
      </trkpt>
      <trkpt lat="48.07167" lon="-2.75474">
        <ele>68.6</ele>
        <time>2021-08-08T12:06:21Z</time>
      </trkpt>
      <trkpt lat="48.07166" lon="-2.75476">
        <ele>68.6</ele>
        <time>2021-08-08T12:06:22Z</time>
      </trkpt>
      <trkpt lat="48.07165" lon="-2.75478">
        <ele>68.6</ele>
        <time>2021-08-08T12:06:23Z</time>
      </trkpt>
      <trkpt lat="48.07164" lon="-2.7548">
        <ele>68.8</ele>
        <time>2021-08-08T12:06:24Z</time>
      </trkpt>
      <trkpt lat="48.07164" lon="-2.75482">
        <ele>69.2</ele>
        <time>2021-08-08T12:06:25Z</time>
      </trkpt>
      <trkpt lat="48.07163" lon="-2.75484">
        <ele>69.4</ele>
        <time>2021-08-08T12:06:26Z</time>
      </trkpt>
      <trkpt lat="48.07162" lon="-2.75486">
        <ele>69.6</ele>
        <time>2021-08-08T12:06:27Z</time>
      </trkpt>
      <trkpt lat="48.07161" lon="-2.75488">
        <ele>69.6</ele>
        <time>2021-08-08T12:06:28Z</time>
      </trkpt>
      <trkpt lat="48.0716" lon="-2.7549">
        <ele>69.8</ele>
        <time>2021-08-08T12:06:29Z</time>
      </trkpt>
      <trkpt lat="48.07159" lon="-2.75492">
        <ele>70</ele>
        <time>2021-08-08T12:06:30Z</time>
      </trkpt>
      <trkpt lat="48.07159" lon="-2.75494">
        <ele>70</ele>
        <time>2021-08-08T12:06:31Z</time>
      </trkpt>
      <trkpt lat="48.07158" lon="-2.75496">
        <ele>70</ele>
        <time>2021-08-08T12:06:32Z</time>
      </trkpt>
      <trkpt lat="48.07157" lon="-2.75497">
        <ele>70.2</ele>
        <time>2021-08-08T12:06:33Z</time>
      </trkpt>
      <trkpt lat="48.07156" lon="-2.75499">
        <ele>70.2</ele>
        <time>2021-08-08T12:06:34Z</time>
      </trkpt>
      <trkpt lat="48.07154" lon="-2.75499">
        <ele>70.2</ele>
        <time>2021-08-08T12:06:35Z</time>
      </trkpt>
      <trkpt lat="48.07152" lon="-2.75498">
        <ele>70.2</ele>
        <time>2021-08-08T12:06:36Z</time>
      </trkpt>
      <trkpt lat="48.0715" lon="-2.75496">
        <ele>70.2</ele>
        <time>2021-08-08T12:06:37Z</time>
      </trkpt>
      <trkpt lat="48.07148" lon="-2.75494">
        <ele>70.2</ele>
        <time>2021-08-08T12:06:38Z</time>
      </trkpt>
      <trkpt lat="48.07146" lon="-2.75492">
        <ele>70.2</ele>
        <time>2021-08-08T12:06:39Z</time>
      </trkpt>
      <trkpt lat="48.07143" lon="-2.75489">
        <ele>70.2</ele>
        <time>2021-08-08T12:06:40Z</time>
      </trkpt>
      <trkpt lat="48.07141" lon="-2.75488">
        <ele>70.2</ele>
        <time>2021-08-08T12:06:41Z</time>
      </trkpt>
      <trkpt lat="48.0714" lon="-2.7549">
        <ele>70</ele>
        <time>2021-08-08T12:06:42Z</time>
      </trkpt>
      <trkpt lat="48.07139" lon="-2.75493">
        <ele>69.6</ele>
        <time>2021-08-08T12:06:43Z</time>
      </trkpt>
      <trkpt lat="48.0714" lon="-2.75495">
        <ele>69</ele>
        <time>2021-08-08T12:06:44Z</time>
      </trkpt>
      <trkpt lat="48.07141" lon="-2.75498">
        <ele>68.8</ele>
        <time>2021-08-08T12:06:45Z</time>
      </trkpt>
      <trkpt lat="48.07142" lon="-2.755">
        <ele>68.6</ele>
        <time>2021-08-08T12:06:46Z</time>
      </trkpt>
      <trkpt lat="48.07143" lon="-2.75502">
        <ele>68.4</ele>
        <time>2021-08-08T12:06:47Z</time>
      </trkpt>
      <trkpt lat="48.07144" lon="-2.75504">
        <ele>68.2</ele>
        <time>2021-08-08T12:06:48Z</time>
      </trkpt>
      <trkpt lat="48.07145" lon="-2.75506">
        <ele>68.2</ele>
        <time>2021-08-08T12:06:49Z</time>
      </trkpt>
      <trkpt lat="48.07146" lon="-2.75508">
        <ele>68.2</ele>
        <time>2021-08-08T12:06:50Z</time>
      </trkpt>
      <trkpt lat="48.07148" lon="-2.75512">
        <ele>68</ele>
        <time>2021-08-08T12:06:52Z</time>
      </trkpt>
      <trkpt lat="48.07149" lon="-2.75514">
        <ele>68</ele>
        <time>2021-08-08T12:06:53Z</time>
      </trkpt>
      <trkpt lat="48.07149" lon="-2.75515">
        <ele>68</ele>
        <time>2021-08-08T12:06:54Z</time>
      </trkpt>
      <trkpt lat="48.0715" lon="-2.75516">
        <ele>68</ele>
        <time>2021-08-08T12:06:55Z</time>
      </trkpt>
      <trkpt lat="48.07151" lon="-2.75517">
        <ele>68</ele>
        <time>2021-08-08T12:06:56Z</time>
      </trkpt>
      <trkpt lat="48.07152" lon="-2.75521">
        <ele>68.2</ele>
        <time>2021-08-08T12:06:58Z</time>
      </trkpt>
      <trkpt lat="48.07154" lon="-2.75524">
        <ele>68.2</ele>
        <time>2021-08-08T12:07:00Z</time>
      </trkpt>
      <trkpt lat="48.07157" lon="-2.75527">
        <ele>68.2</ele>
        <time>2021-08-08T12:07:02Z</time>
      </trkpt>
      <trkpt lat="48.0716" lon="-2.75531">
        <ele>68.2</ele>
        <time>2021-08-08T12:07:04Z</time>
      </trkpt>
      <trkpt lat="48.07162" lon="-2.75533">
        <ele>68.2</ele>
        <time>2021-08-08T12:07:05Z</time>
      </trkpt>
      <trkpt lat="48.07164" lon="-2.75535">
        <ele>68.2</ele>
        <time>2021-08-08T12:07:06Z</time>
      </trkpt>
      <trkpt lat="48.07166" lon="-2.75537">
        <ele>68.2</ele>
        <time>2021-08-08T12:07:07Z</time>
      </trkpt>
      <trkpt lat="48.07168" lon="-2.75538">
        <ele>68.4</ele>
        <time>2021-08-08T12:07:08Z</time>
      </trkpt>
      <trkpt lat="48.07169" lon="-2.75539">
        <ele>68.4</ele>
        <time>2021-08-08T12:07:09Z</time>
      </trkpt>
      <trkpt lat="48.07171" lon="-2.7554">
        <ele>68.4</ele>
        <time>2021-08-08T12:07:10Z</time>
      </trkpt>
      <trkpt lat="48.07172" lon="-2.75542">
        <ele>68.2</ele>
        <time>2021-08-08T12:07:11Z</time>
      </trkpt>
      <trkpt lat="48.07174" lon="-2.75544">
        <ele>68.2</ele>
        <time>2021-08-08T12:07:12Z</time>
      </trkpt>
      <trkpt lat="48.07175" lon="-2.75545">
        <ele>68.4</ele>
        <time>2021-08-08T12:07:13Z</time>
      </trkpt>
      <trkpt lat="48.07176" lon="-2.75546">
        <ele>68.2</ele>
        <time>2021-08-08T12:07:14Z</time>
      </trkpt>
      <trkpt lat="48.07177" lon="-2.75547">
        <ele>68.2</ele>
        <time>2021-08-08T12:07:15Z</time>
      </trkpt>
      <trkpt lat="48.07179" lon="-2.75549">
        <ele>68.2</ele>
        <time>2021-08-08T12:07:16Z</time>
      </trkpt>
      <trkpt lat="48.07181" lon="-2.7555">
        <ele>68.2</ele>
        <time>2021-08-08T12:07:17Z</time>
      </trkpt>
      <trkpt lat="48.07183" lon="-2.75552">
        <ele>68.2</ele>
        <time>2021-08-08T12:07:18Z</time>
      </trkpt>
      <trkpt lat="48.07185" lon="-2.75553">
        <ele>68.2</ele>
        <time>2021-08-08T12:07:19Z</time>
      </trkpt>
      <trkpt lat="48.07187" lon="-2.75555">
        <ele>68.2</ele>
        <time>2021-08-08T12:07:20Z</time>
      </trkpt>
      <trkpt lat="48.07189" lon="-2.75557">
        <ele>68.2</ele>
        <time>2021-08-08T12:07:21Z</time>
      </trkpt>
      <trkpt lat="48.07191" lon="-2.75559">
        <ele>68.2</ele>
        <time>2021-08-08T12:07:22Z</time>
      </trkpt>
      <trkpt lat="48.07193" lon="-2.75562">
        <ele>68.2</ele>
        <time>2021-08-08T12:07:23Z</time>
      </trkpt>
      <trkpt lat="48.07195" lon="-2.75564">
        <ele>68.2</ele>
        <time>2021-08-08T12:07:24Z</time>
      </trkpt>
      <trkpt lat="48.07196" lon="-2.75566">
        <ele>68.2</ele>
        <time>2021-08-08T12:07:25Z</time>
      </trkpt>
      <trkpt lat="48.07198" lon="-2.75567">
        <ele>68.2</ele>
        <time>2021-08-08T12:07:26Z</time>
      </trkpt>
      <trkpt lat="48.07199" lon="-2.75567">
        <ele>68.2</ele>
        <time>2021-08-08T12:07:27Z</time>
      </trkpt>
      <trkpt lat="48.07201" lon="-2.75568">
        <ele>68.2</ele>
        <time>2021-08-08T12:07:28Z</time>
      </trkpt>
      <trkpt lat="48.07201" lon="-2.7557">
        <ele>68.2</ele>
        <time>2021-08-08T12:07:29Z</time>
      </trkpt>
      <trkpt lat="48.07201" lon="-2.75571">
        <ele>68.2</ele>
        <time>2021-08-08T12:07:30Z</time>
      </trkpt>
      <trkpt lat="48.07201" lon="-2.75571">
        <ele>68.2</ele>
        <time>2021-08-08T12:07:31Z</time>
      </trkpt>
      <trkpt lat="48.072" lon="-2.75572">
        <ele>68.2</ele>
        <time>2021-08-08T12:07:32Z</time>
      </trkpt>
      <trkpt lat="48.07199" lon="-2.75571">
        <ele>68.2</ele>
        <time>2021-08-08T12:07:33Z</time>
      </trkpt>
      <trkpt lat="48.07198" lon="-2.75569">
        <ele>68.2</ele>
        <time>2021-08-08T12:07:34Z</time>
      </trkpt>
      <trkpt lat="48.07196" lon="-2.75567">
        <ele>68</ele>
        <time>2021-08-08T12:07:35Z</time>
      </trkpt>
      <trkpt lat="48.07195" lon="-2.75567">
        <ele>68</ele>
        <time>2021-08-08T12:07:36Z</time>
      </trkpt>
      <trkpt lat="48.07194" lon="-2.75566">
        <ele>68</ele>
        <time>2021-08-08T12:07:37Z</time>
      </trkpt>
      <trkpt lat="48.07192" lon="-2.75564">
        <ele>68</ele>
        <time>2021-08-08T12:07:38Z</time>
      </trkpt>
      <trkpt lat="48.07191" lon="-2.75562">
        <ele>68</ele>
        <time>2021-08-08T12:07:39Z</time>
      </trkpt>
      <trkpt lat="48.07189" lon="-2.75561">
        <ele>67.8</ele>
        <time>2021-08-08T12:07:40Z</time>
      </trkpt>
      <trkpt lat="48.07187" lon="-2.75559">
        <ele>67.8</ele>
        <time>2021-08-08T12:07:41Z</time>
      </trkpt>
      <trkpt lat="48.07186" lon="-2.75558">
        <ele>67.8</ele>
        <time>2021-08-08T12:07:42Z</time>
      </trkpt>
      <trkpt lat="48.07184" lon="-2.75557">
        <ele>67.8</ele>
        <time>2021-08-08T12:07:43Z</time>
      </trkpt>
      <trkpt lat="48.07182" lon="-2.75556">
        <ele>67.8</ele>
        <time>2021-08-08T12:07:44Z</time>
      </trkpt>
      <trkpt lat="48.07181" lon="-2.75556">
        <ele>67.8</ele>
        <time>2021-08-08T12:07:45Z</time>
      </trkpt>
      <trkpt lat="48.0718" lon="-2.75557">
        <ele>67.8</ele>
        <time>2021-08-08T12:07:46Z</time>
      </trkpt>
      <trkpt lat="48.07179" lon="-2.75557">
        <ele>67.8</ele>
        <time>2021-08-08T12:07:47Z</time>
      </trkpt>
      <trkpt lat="48.07179" lon="-2.75557">
        <ele>67.8</ele>
        <time>2021-08-08T12:07:48Z</time>
      </trkpt>
      <trkpt lat="48.0718" lon="-2.75556">
        <ele>67.8</ele>
        <time>2021-08-08T12:07:51Z</time>
      </trkpt>
      <trkpt lat="48.07181" lon="-2.75556">
        <ele>68</ele>
        <time>2021-08-08T12:07:52Z</time>
      </trkpt>
      <trkpt lat="48.07181" lon="-2.75556">
        <ele>68</ele>
        <time>2021-08-08T12:07:53Z</time>
      </trkpt>
      <trkpt lat="48.0718" lon="-2.75557">
        <ele>68</ele>
        <time>2021-08-08T12:07:54Z</time>
      </trkpt>
      <trkpt lat="48.0718" lon="-2.75557">
        <ele>68</ele>
        <time>2021-08-08T12:07:55Z</time>
      </trkpt>
      <trkpt lat="48.0718" lon="-2.75556">
        <ele>68</ele>
        <time>2021-08-08T12:07:59Z</time>
      </trkpt>
      <trkpt lat="48.0718" lon="-2.75556">
        <ele>68</ele>
        <time>2021-08-08T12:08:00Z</time>
      </trkpt>
      <trkpt lat="48.0718" lon="-2.75556">
        <ele>68</ele>
        <time>2021-08-08T12:08:01Z</time>
      </trkpt>
      <trkpt lat="48.0718" lon="-2.75556">
        <ele>68</ele>
        <time>2021-08-08T12:08:02Z</time>
      </trkpt>
      <trkpt lat="48.07195" lon="-2.75565">
        <ele>68.6</ele>
        <time>2021-08-08T12:10:36Z</time>
      </trkpt>
      <trkpt lat="48.07196" lon="-2.75567">
        <ele>68.6</ele>
        <time>2021-08-08T12:10:37Z</time>
      </trkpt>
      <trkpt lat="48.07198" lon="-2.75569">
        <ele>68.4</ele>
        <time>2021-08-08T12:10:38Z</time>
      </trkpt>
      <trkpt lat="48.07204" lon="-2.75573">
        <ele>68.4</ele>
        <time>2021-08-08T12:10:40Z</time>
      </trkpt>
      <trkpt lat="48.07206" lon="-2.75575">
        <ele>68.4</ele>
        <time>2021-08-08T12:10:41Z</time>
      </trkpt>
      <trkpt lat="48.07209" lon="-2.75577">
        <ele>68.4</ele>
        <time>2021-08-08T12:10:42Z</time>
      </trkpt>
      <trkpt lat="48.07212" lon="-2.7558">
        <ele>68.2</ele>
        <time>2021-08-08T12:10:43Z</time>
      </trkpt>
      <trkpt lat="48.07215" lon="-2.75582">
        <ele>68.2</ele>
        <time>2021-08-08T12:10:44Z</time>
      </trkpt>
      <trkpt lat="48.07221" lon="-2.75586">
        <ele>68</ele>
        <time>2021-08-08T12:10:46Z</time>
      </trkpt>
      <trkpt lat="48.07223" lon="-2.75588">
        <ele>68</ele>
        <time>2021-08-08T12:10:47Z</time>
      </trkpt>
      <trkpt lat="48.07226" lon="-2.75591">
        <ele>68</ele>
        <time>2021-08-08T12:10:48Z</time>
      </trkpt>
      <trkpt lat="48.07229" lon="-2.75594">
        <ele>68</ele>
        <time>2021-08-08T12:10:49Z</time>
      </trkpt>
      <trkpt lat="48.07232" lon="-2.75596">
        <ele>68</ele>
        <time>2021-08-08T12:10:50Z</time>
      </trkpt>
      <trkpt lat="48.07235" lon="-2.75598">
        <ele>68</ele>
        <time>2021-08-08T12:10:51Z</time>
      </trkpt>
      <trkpt lat="48.07238" lon="-2.756">
        <ele>68</ele>
        <time>2021-08-08T12:10:52Z</time>
      </trkpt>
      <trkpt lat="48.07241" lon="-2.75602">
        <ele>68</ele>
        <time>2021-08-08T12:10:53Z</time>
      </trkpt>
      <trkpt lat="48.07245" lon="-2.75603">
        <ele>68</ele>
        <time>2021-08-08T12:10:54Z</time>
      </trkpt>
      <trkpt lat="48.07248" lon="-2.75605">
        <ele>68</ele>
        <time>2021-08-08T12:10:55Z</time>
      </trkpt>
      <trkpt lat="48.07252" lon="-2.75607">
        <ele>68</ele>
        <time>2021-08-08T12:10:56Z</time>
      </trkpt>
      <trkpt lat="48.07256" lon="-2.75609">
        <ele>67.8</ele>
        <time>2021-08-08T12:10:57Z</time>
      </trkpt>
      <trkpt lat="48.07259" lon="-2.75612">
        <ele>67.8</ele>
        <time>2021-08-08T12:10:58Z</time>
      </trkpt>
      <trkpt lat="48.07263" lon="-2.75614">
        <ele>67.8</ele>
        <time>2021-08-08T12:10:59Z</time>
      </trkpt>
      <trkpt lat="48.07267" lon="-2.75617">
        <ele>67.8</ele>
        <time>2021-08-08T12:11:00Z</time>
      </trkpt>
      <trkpt lat="48.0727" lon="-2.75619">
        <ele>67.8</ele>
        <time>2021-08-08T12:11:01Z</time>
      </trkpt>
      <trkpt lat="48.07274" lon="-2.75621">
        <ele>67.8</ele>
        <time>2021-08-08T12:11:02Z</time>
      </trkpt>
      <trkpt lat="48.07278" lon="-2.75624">
        <ele>67.8</ele>
        <time>2021-08-08T12:11:03Z</time>
      </trkpt>
      <trkpt lat="48.07282" lon="-2.75626">
        <ele>67.8</ele>
        <time>2021-08-08T12:11:04Z</time>
      </trkpt>
      <trkpt lat="48.07286" lon="-2.75629">
        <ele>67.8</ele>
        <time>2021-08-08T12:11:05Z</time>
      </trkpt>
      <trkpt lat="48.0729" lon="-2.75632">
        <ele>67.8</ele>
        <time>2021-08-08T12:11:06Z</time>
      </trkpt>
      <trkpt lat="48.07294" lon="-2.75634">
        <ele>67.6</ele>
        <time>2021-08-08T12:11:07Z</time>
      </trkpt>
      <trkpt lat="48.07298" lon="-2.75637">
        <ele>67.8</ele>
        <time>2021-08-08T12:11:08Z</time>
      </trkpt>
      <trkpt lat="48.07302" lon="-2.7564">
        <ele>67.6</ele>
        <time>2021-08-08T12:11:09Z</time>
      </trkpt>
      <trkpt lat="48.07307" lon="-2.75642">
        <ele>67.6</ele>
        <time>2021-08-08T12:11:10Z</time>
      </trkpt>
      <trkpt lat="48.07311" lon="-2.75645">
        <ele>67.6</ele>
        <time>2021-08-08T12:11:11Z</time>
      </trkpt>
      <trkpt lat="48.07315" lon="-2.75647">
        <ele>67.6</ele>
        <time>2021-08-08T12:11:12Z</time>
      </trkpt>
      <trkpt lat="48.07319" lon="-2.7565">
        <ele>67.6</ele>
        <time>2021-08-08T12:11:13Z</time>
      </trkpt>
      <trkpt lat="48.07323" lon="-2.75652">
        <ele>67.4</ele>
        <time>2021-08-08T12:11:14Z</time>
      </trkpt>
      <trkpt lat="48.07327" lon="-2.75655">
        <ele>67.6</ele>
        <time>2021-08-08T12:11:15Z</time>
      </trkpt>
      <trkpt lat="48.07331" lon="-2.75657">
        <ele>67.8</ele>
        <time>2021-08-08T12:11:16Z</time>
      </trkpt>
      <trkpt lat="48.07335" lon="-2.75658">
        <ele>67.8</ele>
        <time>2021-08-08T12:11:17Z</time>
      </trkpt>
      <trkpt lat="48.07338" lon="-2.7566">
        <ele>67.8</ele>
        <time>2021-08-08T12:11:18Z</time>
      </trkpt>
      <trkpt lat="48.07342" lon="-2.75661">
        <ele>67.6</ele>
        <time>2021-08-08T12:11:19Z</time>
      </trkpt>
      <trkpt lat="48.07345" lon="-2.7566">
        <ele>67.6</ele>
        <time>2021-08-08T12:11:20Z</time>
      </trkpt>
      <trkpt lat="48.07349" lon="-2.75657">
        <ele>67.6</ele>
        <time>2021-08-08T12:11:21Z</time>
      </trkpt>
      <trkpt lat="48.07351" lon="-2.75652">
        <ele>67.6</ele>
        <time>2021-08-08T12:11:22Z</time>
      </trkpt>
      <trkpt lat="48.07354" lon="-2.75648">
        <ele>67.8</ele>
        <time>2021-08-08T12:11:23Z</time>
      </trkpt>
      <trkpt lat="48.0736" lon="-2.75641">
        <ele>67.8</ele>
        <time>2021-08-08T12:11:25Z</time>
      </trkpt>
      <trkpt lat="48.07366" lon="-2.75637">
        <ele>67.8</ele>
        <time>2021-08-08T12:11:27Z</time>
      </trkpt>
      <trkpt lat="48.0737" lon="-2.75635">
        <ele>67.8</ele>
        <time>2021-08-08T12:11:29Z</time>
      </trkpt>
      <trkpt lat="48.07371" lon="-2.75635">
        <ele>67.8</ele>
        <time>2021-08-08T12:11:30Z</time>
      </trkpt>
      <trkpt lat="48.07373" lon="-2.75634">
        <ele>67.8</ele>
        <time>2021-08-08T12:11:31Z</time>
      </trkpt>
      <trkpt lat="48.07374" lon="-2.75634">
        <ele>68</ele>
        <time>2021-08-08T12:11:32Z</time>
      </trkpt>
      <trkpt lat="48.07375" lon="-2.75634">
        <ele>68</ele>
        <time>2021-08-08T12:11:33Z</time>
      </trkpt>
      <trkpt lat="48.07376" lon="-2.75635">
        <ele>68</ele>
        <time>2021-08-08T12:11:34Z</time>
      </trkpt>
      <trkpt lat="48.07376" lon="-2.75635">
        <ele>68</ele>
        <time>2021-08-08T12:11:36Z</time>
      </trkpt>
      <trkpt lat="48.07376" lon="-2.75635">
        <ele>68</ele>
        <time>2021-08-08T12:11:37Z</time>
      </trkpt>
      <trkpt lat="48.07376" lon="-2.75635">
        <ele>68</ele>
        <time>2021-08-08T12:11:38Z</time>
      </trkpt>
      <trkpt lat="48.07382" lon="-2.75631">
        <ele>68.4</ele>
        <time>2021-08-08T12:15:24Z</time>
      </trkpt>
      <trkpt lat="48.07384" lon="-2.75632">
        <ele>68.4</ele>
        <time>2021-08-08T12:15:25Z</time>
      </trkpt>
      <trkpt lat="48.07386" lon="-2.75634">
        <ele>68.4</ele>
        <time>2021-08-08T12:15:26Z</time>
      </trkpt>
      <trkpt lat="48.07388" lon="-2.75637">
        <ele>68.6</ele>
        <time>2021-08-08T12:15:27Z</time>
      </trkpt>
      <trkpt lat="48.07389" lon="-2.75639">
        <ele>68.6</ele>
        <time>2021-08-08T12:15:28Z</time>
      </trkpt>
      <trkpt lat="48.07391" lon="-2.75642">
        <ele>68.6</ele>
        <time>2021-08-08T12:15:29Z</time>
      </trkpt>
      <trkpt lat="48.07396" lon="-2.75649">
        <ele>68.6</ele>
        <time>2021-08-08T12:15:31Z</time>
      </trkpt>
      <trkpt lat="48.07399" lon="-2.75653">
        <ele>68.6</ele>
        <time>2021-08-08T12:15:32Z</time>
      </trkpt>
      <trkpt lat="48.07402" lon="-2.75656">
        <ele>68.6</ele>
        <time>2021-08-08T12:15:33Z</time>
      </trkpt>
      <trkpt lat="48.07405" lon="-2.75659">
        <ele>68.6</ele>
        <time>2021-08-08T12:15:34Z</time>
      </trkpt>
      <trkpt lat="48.07408" lon="-2.75662">
        <ele>68.6</ele>
        <time>2021-08-08T12:15:35Z</time>
      </trkpt>
      <trkpt lat="48.07411" lon="-2.75665">
        <ele>68.4</ele>
        <time>2021-08-08T12:15:36Z</time>
      </trkpt>
      <trkpt lat="48.07414" lon="-2.75668">
        <ele>68.4</ele>
        <time>2021-08-08T12:15:37Z</time>
      </trkpt>
      <trkpt lat="48.07418" lon="-2.7567">
        <ele>68.4</ele>
        <time>2021-08-08T12:15:38Z</time>
      </trkpt>
      <trkpt lat="48.07422" lon="-2.75673">
        <ele>68.2</ele>
        <time>2021-08-08T12:15:39Z</time>
      </trkpt>
      <trkpt lat="48.07425" lon="-2.75674">
        <ele>68</ele>
        <time>2021-08-08T12:15:40Z</time>
      </trkpt>
      <trkpt lat="48.07429" lon="-2.75676">
        <ele>67.8</ele>
        <time>2021-08-08T12:15:41Z</time>
      </trkpt>
      <trkpt lat="48.07433" lon="-2.75678">
        <ele>67.6</ele>
        <time>2021-08-08T12:15:42Z</time>
      </trkpt>
      <trkpt lat="48.07436" lon="-2.75679">
        <ele>67.6</ele>
        <time>2021-08-08T12:15:43Z</time>
      </trkpt>
      <trkpt lat="48.0744" lon="-2.7568">
        <ele>67.4</ele>
        <time>2021-08-08T12:15:44Z</time>
      </trkpt>
      <trkpt lat="48.07444" lon="-2.7568">
        <ele>67.2</ele>
        <time>2021-08-08T12:15:45Z</time>
      </trkpt>
      <trkpt lat="48.07447" lon="-2.7568">
        <ele>67.2</ele>
        <time>2021-08-08T12:15:46Z</time>
      </trkpt>
      <trkpt lat="48.07451" lon="-2.75681">
        <ele>67</ele>
        <time>2021-08-08T12:15:47Z</time>
      </trkpt>
      <trkpt lat="48.07454" lon="-2.75681">
        <ele>67</ele>
        <time>2021-08-08T12:15:48Z</time>
      </trkpt>
      <trkpt lat="48.07458" lon="-2.75681">
        <ele>67</ele>
        <time>2021-08-08T12:15:49Z</time>
      </trkpt>
      <trkpt lat="48.07462" lon="-2.75682">
        <ele>67</ele>
        <time>2021-08-08T12:15:50Z</time>
      </trkpt>
      <trkpt lat="48.07466" lon="-2.75682">
        <ele>67</ele>
        <time>2021-08-08T12:15:51Z</time>
      </trkpt>
      <trkpt lat="48.07471" lon="-2.75683">
        <ele>67</ele>
        <time>2021-08-08T12:15:52Z</time>
      </trkpt>
      <trkpt lat="48.07474" lon="-2.75683">
        <ele>67</ele>
        <time>2021-08-08T12:15:53Z</time>
      </trkpt>
      <trkpt lat="48.07478" lon="-2.75683">
        <ele>67</ele>
        <time>2021-08-08T12:15:54Z</time>
      </trkpt>
      <trkpt lat="48.07481" lon="-2.75683">
        <ele>67</ele>
        <time>2021-08-08T12:15:55Z</time>
      </trkpt>
      <trkpt lat="48.07485" lon="-2.75683">
        <ele>67</ele>
        <time>2021-08-08T12:15:56Z</time>
      </trkpt>
      <trkpt lat="48.07489" lon="-2.75683">
        <ele>67</ele>
        <time>2021-08-08T12:15:57Z</time>
      </trkpt>
      <trkpt lat="48.07493" lon="-2.75683">
        <ele>67</ele>
        <time>2021-08-08T12:15:58Z</time>
      </trkpt>
      <trkpt lat="48.07497" lon="-2.75683">
        <ele>67.2</ele>
        <time>2021-08-08T12:15:59Z</time>
      </trkpt>
      <trkpt lat="48.07501" lon="-2.75683">
        <ele>67.2</ele>
        <time>2021-08-08T12:16:00Z</time>
      </trkpt>
      <trkpt lat="48.07508" lon="-2.75684">
        <ele>67.2</ele>
        <time>2021-08-08T12:16:02Z</time>
      </trkpt>
      <trkpt lat="48.07512" lon="-2.75685">
        <ele>67.2</ele>
        <time>2021-08-08T12:16:03Z</time>
      </trkpt>
      <trkpt lat="48.07515" lon="-2.75686">
        <ele>67.2</ele>
        <time>2021-08-08T12:16:04Z</time>
      </trkpt>
      <trkpt lat="48.07519" lon="-2.75687">
        <ele>67.2</ele>
        <time>2021-08-08T12:16:05Z</time>
      </trkpt>
      <trkpt lat="48.07522" lon="-2.75688">
        <ele>67.2</ele>
        <time>2021-08-08T12:16:06Z</time>
      </trkpt>
      <trkpt lat="48.07525" lon="-2.7569">
        <ele>67.2</ele>
        <time>2021-08-08T12:16:07Z</time>
      </trkpt>
      <trkpt lat="48.07528" lon="-2.75692">
        <ele>67.4</ele>
        <time>2021-08-08T12:16:08Z</time>
      </trkpt>
      <trkpt lat="48.07532" lon="-2.75695">
        <ele>67.4</ele>
        <time>2021-08-08T12:16:09Z</time>
      </trkpt>
      <trkpt lat="48.07535" lon="-2.75697">
        <ele>67.4</ele>
        <time>2021-08-08T12:16:10Z</time>
      </trkpt>
      <trkpt lat="48.07538" lon="-2.75701">
        <ele>67.4</ele>
        <time>2021-08-08T12:16:11Z</time>
      </trkpt>
      <trkpt lat="48.07542" lon="-2.75704">
        <ele>67.4</ele>
        <time>2021-08-08T12:16:12Z</time>
      </trkpt>
      <trkpt lat="48.07545" lon="-2.75708">
        <ele>67.4</ele>
        <time>2021-08-08T12:16:13Z</time>
      </trkpt>
      <trkpt lat="48.07548" lon="-2.75712">
        <ele>67.4</ele>
        <time>2021-08-08T12:16:14Z</time>
      </trkpt>
      <trkpt lat="48.07552" lon="-2.75716">
        <ele>67.4</ele>
        <time>2021-08-08T12:16:15Z</time>
      </trkpt>
      <trkpt lat="48.07556" lon="-2.7572">
        <ele>67.4</ele>
        <time>2021-08-08T12:16:16Z</time>
      </trkpt>
      <trkpt lat="48.0756" lon="-2.75725">
        <ele>67.4</ele>
        <time>2021-08-08T12:16:17Z</time>
      </trkpt>
      <trkpt lat="48.07563" lon="-2.75729">
        <ele>67.4</ele>
        <time>2021-08-08T12:16:18Z</time>
      </trkpt>
      <trkpt lat="48.07567" lon="-2.75733">
        <ele>67.6</ele>
        <time>2021-08-08T12:16:19Z</time>
      </trkpt>
      <trkpt lat="48.0757" lon="-2.75738">
        <ele>67.6</ele>
        <time>2021-08-08T12:16:20Z</time>
      </trkpt>
      <trkpt lat="48.07574" lon="-2.75742">
        <ele>67.6</ele>
        <time>2021-08-08T12:16:21Z</time>
      </trkpt>
      <trkpt lat="48.07577" lon="-2.75745">
        <ele>67.6</ele>
        <time>2021-08-08T12:16:22Z</time>
      </trkpt>
      <trkpt lat="48.0758" lon="-2.75748">
        <ele>67.6</ele>
        <time>2021-08-08T12:16:23Z</time>
      </trkpt>
      <trkpt lat="48.07583" lon="-2.75752">
        <ele>67.6</ele>
        <time>2021-08-08T12:16:24Z</time>
      </trkpt>
      <trkpt lat="48.07586" lon="-2.75755">
        <ele>67.6</ele>
        <time>2021-08-08T12:16:25Z</time>
      </trkpt>
      <trkpt lat="48.07593" lon="-2.75764">
        <ele>67.4</ele>
        <time>2021-08-08T12:16:27Z</time>
      </trkpt>
      <trkpt lat="48.07599" lon="-2.75771">
        <ele>67.4</ele>
        <time>2021-08-08T12:16:29Z</time>
      </trkpt>
      <trkpt lat="48.07603" lon="-2.75774">
        <ele>67.4</ele>
        <time>2021-08-08T12:16:30Z</time>
      </trkpt>
      <trkpt lat="48.07606" lon="-2.75777">
        <ele>67.4</ele>
        <time>2021-08-08T12:16:31Z</time>
      </trkpt>
      <trkpt lat="48.07609" lon="-2.75779">
        <ele>67.4</ele>
        <time>2021-08-08T12:16:32Z</time>
      </trkpt>
      <trkpt lat="48.07612" lon="-2.75782">
        <ele>67.4</ele>
        <time>2021-08-08T12:16:33Z</time>
      </trkpt>
      <trkpt lat="48.07616" lon="-2.75786">
        <ele>67.4</ele>
        <time>2021-08-08T12:16:34Z</time>
      </trkpt>
      <trkpt lat="48.07619" lon="-2.75789">
        <ele>67.4</ele>
        <time>2021-08-08T12:16:35Z</time>
      </trkpt>
      <trkpt lat="48.07623" lon="-2.75792">
        <ele>67.4</ele>
        <time>2021-08-08T12:16:36Z</time>
      </trkpt>
      <trkpt lat="48.07627" lon="-2.75796">
        <ele>67.4</ele>
        <time>2021-08-08T12:16:37Z</time>
      </trkpt>
      <trkpt lat="48.0763" lon="-2.75799">
        <ele>67.4</ele>
        <time>2021-08-08T12:16:38Z</time>
      </trkpt>
      <trkpt lat="48.07634" lon="-2.75802">
        <ele>67.4</ele>
        <time>2021-08-08T12:16:39Z</time>
      </trkpt>
      <trkpt lat="48.07638" lon="-2.75806">
        <ele>67.4</ele>
        <time>2021-08-08T12:16:40Z</time>
      </trkpt>
      <trkpt lat="48.07642" lon="-2.7581">
        <ele>67.4</ele>
        <time>2021-08-08T12:16:41Z</time>
      </trkpt>
      <trkpt lat="48.07646" lon="-2.75814">
        <ele>67.4</ele>
        <time>2021-08-08T12:16:42Z</time>
      </trkpt>
      <trkpt lat="48.07651" lon="-2.75818">
        <ele>67.4</ele>
        <time>2021-08-08T12:16:43Z</time>
      </trkpt>
      <trkpt lat="48.07655" lon="-2.75822">
        <ele>67.4</ele>
        <time>2021-08-08T12:16:44Z</time>
      </trkpt>
      <trkpt lat="48.07659" lon="-2.75826">
        <ele>67.4</ele>
        <time>2021-08-08T12:16:45Z</time>
      </trkpt>
      <trkpt lat="48.07663" lon="-2.75829">
        <ele>67.4</ele>
        <time>2021-08-08T12:16:46Z</time>
      </trkpt>
      <trkpt lat="48.07667" lon="-2.75833">
        <ele>67.4</ele>
        <time>2021-08-08T12:16:47Z</time>
      </trkpt>
      <trkpt lat="48.07671" lon="-2.75837">
        <ele>67.4</ele>
        <time>2021-08-08T12:16:48Z</time>
      </trkpt>
      <trkpt lat="48.07675" lon="-2.7584">
        <ele>67.4</ele>
        <time>2021-08-08T12:16:49Z</time>
      </trkpt>
      <trkpt lat="48.07679" lon="-2.75844">
        <ele>67.4</ele>
        <time>2021-08-08T12:16:50Z</time>
      </trkpt>
      <trkpt lat="48.07683" lon="-2.75848">
        <ele>67.4</ele>
        <time>2021-08-08T12:16:51Z</time>
      </trkpt>
      <trkpt lat="48.07687" lon="-2.75852">
        <ele>67.4</ele>
        <time>2021-08-08T12:16:52Z</time>
      </trkpt>
      <trkpt lat="48.07691" lon="-2.75855">
        <ele>67.4</ele>
        <time>2021-08-08T12:16:53Z</time>
      </trkpt>
      <trkpt lat="48.07696" lon="-2.75859">
        <ele>67.4</ele>
        <time>2021-08-08T12:16:54Z</time>
      </trkpt>
      <trkpt lat="48.07704" lon="-2.75867">
        <ele>67.4</ele>
        <time>2021-08-08T12:16:56Z</time>
      </trkpt>
      <trkpt lat="48.07712" lon="-2.75875">
        <ele>67.4</ele>
        <time>2021-08-08T12:16:58Z</time>
      </trkpt>
      <trkpt lat="48.07721" lon="-2.75883">
        <ele>67.4</ele>
        <time>2021-08-08T12:17:00Z</time>
      </trkpt>
      <trkpt lat="48.07729" lon="-2.7589">
        <ele>67.2</ele>
        <time>2021-08-08T12:17:02Z</time>
      </trkpt>
      <trkpt lat="48.07733" lon="-2.75893">
        <ele>67.2</ele>
        <time>2021-08-08T12:17:03Z</time>
      </trkpt>
      <trkpt lat="48.07737" lon="-2.75896">
        <ele>67.2</ele>
        <time>2021-08-08T12:17:04Z</time>
      </trkpt>
      <trkpt lat="48.07741" lon="-2.759">
        <ele>67.2</ele>
        <time>2021-08-08T12:17:05Z</time>
      </trkpt>
      <trkpt lat="48.07745" lon="-2.75904">
        <ele>67.2</ele>
        <time>2021-08-08T12:17:06Z</time>
      </trkpt>
      <trkpt lat="48.0775" lon="-2.75908">
        <ele>67.2</ele>
        <time>2021-08-08T12:17:07Z</time>
      </trkpt>
      <trkpt lat="48.07754" lon="-2.75912">
        <ele>67.2</ele>
        <time>2021-08-08T12:17:08Z</time>
      </trkpt>
      <trkpt lat="48.07758" lon="-2.75915">
        <ele>67.2</ele>
        <time>2021-08-08T12:17:09Z</time>
      </trkpt>
      <trkpt lat="48.07762" lon="-2.75919">
        <ele>67</ele>
        <time>2021-08-08T12:17:10Z</time>
      </trkpt>
      <trkpt lat="48.07766" lon="-2.75922">
        <ele>67</ele>
        <time>2021-08-08T12:17:11Z</time>
      </trkpt>
      <trkpt lat="48.0777" lon="-2.75926">
        <ele>67</ele>
        <time>2021-08-08T12:17:12Z</time>
      </trkpt>
      <trkpt lat="48.07774" lon="-2.7593">
        <ele>67</ele>
        <time>2021-08-08T12:17:13Z</time>
      </trkpt>
      <trkpt lat="48.07778" lon="-2.75933">
        <ele>66.8</ele>
        <time>2021-08-08T12:17:14Z</time>
      </trkpt>
      <trkpt lat="48.07782" lon="-2.75937">
        <ele>66.6</ele>
        <time>2021-08-08T12:17:15Z</time>
      </trkpt>
      <trkpt lat="48.07786" lon="-2.7594">
        <ele>66.6</ele>
        <time>2021-08-08T12:17:16Z</time>
      </trkpt>
      <trkpt lat="48.07789" lon="-2.75944">
        <ele>66.6</ele>
        <time>2021-08-08T12:17:17Z</time>
      </trkpt>
      <trkpt lat="48.07793" lon="-2.75948">
        <ele>66.8</ele>
        <time>2021-08-08T12:17:18Z</time>
      </trkpt>
      <trkpt lat="48.07797" lon="-2.75952">
        <ele>66.6</ele>
        <time>2021-08-08T12:17:19Z</time>
      </trkpt>
      <trkpt lat="48.07801" lon="-2.75955">
        <ele>66.6</ele>
        <time>2021-08-08T12:17:20Z</time>
      </trkpt>
      <trkpt lat="48.07805" lon="-2.75959">
        <ele>66.6</ele>
        <time>2021-08-08T12:17:21Z</time>
      </trkpt>
      <trkpt lat="48.0781" lon="-2.75963">
        <ele>66.6</ele>
        <time>2021-08-08T12:17:22Z</time>
      </trkpt>
      <trkpt lat="48.07814" lon="-2.75967">
        <ele>66.4</ele>
        <time>2021-08-08T12:17:23Z</time>
      </trkpt>
      <trkpt lat="48.07818" lon="-2.7597">
        <ele>66.4</ele>
        <time>2021-08-08T12:17:24Z</time>
      </trkpt>
      <trkpt lat="48.07822" lon="-2.75973">
        <ele>66.4</ele>
        <time>2021-08-08T12:17:25Z</time>
      </trkpt>
      <trkpt lat="48.07826" lon="-2.75976">
        <ele>66.4</ele>
        <time>2021-08-08T12:17:26Z</time>
      </trkpt>
      <trkpt lat="48.0783" lon="-2.7598">
        <ele>66.4</ele>
        <time>2021-08-08T12:17:27Z</time>
      </trkpt>
      <trkpt lat="48.07834" lon="-2.75984">
        <ele>66.4</ele>
        <time>2021-08-08T12:17:28Z</time>
      </trkpt>
      <trkpt lat="48.07838" lon="-2.75988">
        <ele>66.4</ele>
        <time>2021-08-08T12:17:29Z</time>
      </trkpt>
      <trkpt lat="48.07843" lon="-2.75993">
        <ele>66.4</ele>
        <time>2021-08-08T12:17:30Z</time>
      </trkpt>
      <trkpt lat="48.07847" lon="-2.75997">
        <ele>66.4</ele>
        <time>2021-08-08T12:17:31Z</time>
      </trkpt>
      <trkpt lat="48.07851" lon="-2.76">
        <ele>66.4</ele>
        <time>2021-08-08T12:17:32Z</time>
      </trkpt>
      <trkpt lat="48.07855" lon="-2.76004">
        <ele>66.6</ele>
        <time>2021-08-08T12:17:33Z</time>
      </trkpt>
      <trkpt lat="48.07859" lon="-2.76009">
        <ele>66.6</ele>
        <time>2021-08-08T12:17:34Z</time>
      </trkpt>
      <trkpt lat="48.07863" lon="-2.76013">
        <ele>66.6</ele>
        <time>2021-08-08T12:17:35Z</time>
      </trkpt>
      <trkpt lat="48.07872" lon="-2.76022">
        <ele>66.4</ele>
        <time>2021-08-08T12:17:37Z</time>
      </trkpt>
      <trkpt lat="48.07876" lon="-2.76027">
        <ele>66.4</ele>
        <time>2021-08-08T12:17:38Z</time>
      </trkpt>
      <trkpt lat="48.0788" lon="-2.76031">
        <ele>66.4</ele>
        <time>2021-08-08T12:17:39Z</time>
      </trkpt>
      <trkpt lat="48.07884" lon="-2.76035">
        <ele>66.4</ele>
        <time>2021-08-08T12:17:40Z</time>
      </trkpt>
      <trkpt lat="48.07888" lon="-2.76039">
        <ele>66.4</ele>
        <time>2021-08-08T12:17:41Z</time>
      </trkpt>
      <trkpt lat="48.07891" lon="-2.76044">
        <ele>66.4</ele>
        <time>2021-08-08T12:17:42Z</time>
      </trkpt>
      <trkpt lat="48.07895" lon="-2.76048">
        <ele>66.4</ele>
        <time>2021-08-08T12:17:43Z</time>
      </trkpt>
      <trkpt lat="48.07899" lon="-2.76053">
        <ele>66.4</ele>
        <time>2021-08-08T12:17:44Z</time>
      </trkpt>
      <trkpt lat="48.07902" lon="-2.76057">
        <ele>66.4</ele>
        <time>2021-08-08T12:17:45Z</time>
      </trkpt>
      <trkpt lat="48.07906" lon="-2.76061">
        <ele>66.4</ele>
        <time>2021-08-08T12:17:46Z</time>
      </trkpt>
      <trkpt lat="48.07909" lon="-2.76065">
        <ele>66.4</ele>
        <time>2021-08-08T12:17:47Z</time>
      </trkpt>
      <trkpt lat="48.07912" lon="-2.76069">
        <ele>66.4</ele>
        <time>2021-08-08T12:17:48Z</time>
      </trkpt>
      <trkpt lat="48.07916" lon="-2.76073">
        <ele>66.6</ele>
        <time>2021-08-08T12:17:49Z</time>
      </trkpt>
      <trkpt lat="48.07919" lon="-2.76077">
        <ele>66.6</ele>
        <time>2021-08-08T12:17:50Z</time>
      </trkpt>
      <trkpt lat="48.07922" lon="-2.76082">
        <ele>66.6</ele>
        <time>2021-08-08T12:17:51Z</time>
      </trkpt>
      <trkpt lat="48.07926" lon="-2.76087">
        <ele>66.6</ele>
        <time>2021-08-08T12:17:52Z</time>
      </trkpt>
      <trkpt lat="48.0793" lon="-2.76091">
        <ele>66.6</ele>
        <time>2021-08-08T12:17:53Z</time>
      </trkpt>
      <trkpt lat="48.07933" lon="-2.76096">
        <ele>66.6</ele>
        <time>2021-08-08T12:17:54Z</time>
      </trkpt>
      <trkpt lat="48.07937" lon="-2.761">
        <ele>66.6</ele>
        <time>2021-08-08T12:17:55Z</time>
      </trkpt>
      <trkpt lat="48.07941" lon="-2.76105">
        <ele>66.8</ele>
        <time>2021-08-08T12:17:56Z</time>
      </trkpt>
      <trkpt lat="48.07944" lon="-2.7611">
        <ele>66.8</ele>
        <time>2021-08-08T12:17:57Z</time>
      </trkpt>
      <trkpt lat="48.07948" lon="-2.76115">
        <ele>66.8</ele>
        <time>2021-08-08T12:17:58Z</time>
      </trkpt>
      <trkpt lat="48.07952" lon="-2.76119">
        <ele>66.8</ele>
        <time>2021-08-08T12:17:59Z</time>
      </trkpt>
      <trkpt lat="48.07955" lon="-2.76124">
        <ele>67</ele>
        <time>2021-08-08T12:18:00Z</time>
      </trkpt>
      <trkpt lat="48.07959" lon="-2.7613">
        <ele>67</ele>
        <time>2021-08-08T12:18:01Z</time>
      </trkpt>
      <trkpt lat="48.07962" lon="-2.76135">
        <ele>67</ele>
        <time>2021-08-08T12:18:02Z</time>
      </trkpt>
      <trkpt lat="48.07966" lon="-2.76139">
        <ele>67</ele>
        <time>2021-08-08T12:18:03Z</time>
      </trkpt>
      <trkpt lat="48.0797" lon="-2.76144">
        <ele>67</ele>
        <time>2021-08-08T12:18:04Z</time>
      </trkpt>
      <trkpt lat="48.07973" lon="-2.76149">
        <ele>67</ele>
        <time>2021-08-08T12:18:05Z</time>
      </trkpt>
      <trkpt lat="48.07977" lon="-2.76154">
        <ele>67</ele>
        <time>2021-08-08T12:18:06Z</time>
      </trkpt>
      <trkpt lat="48.0798" lon="-2.7616">
        <ele>67</ele>
        <time>2021-08-08T12:18:07Z</time>
      </trkpt>
      <trkpt lat="48.07983" lon="-2.76165">
        <ele>67</ele>
        <time>2021-08-08T12:18:08Z</time>
      </trkpt>
      <trkpt lat="48.07987" lon="-2.76169">
        <ele>67.2</ele>
        <time>2021-08-08T12:18:09Z</time>
      </trkpt>
      <trkpt lat="48.0799" lon="-2.76174">
        <ele>67.2</ele>
        <time>2021-08-08T12:18:10Z</time>
      </trkpt>
      <trkpt lat="48.07994" lon="-2.76178">
        <ele>67.2</ele>
        <time>2021-08-08T12:18:11Z</time>
      </trkpt>
      <trkpt lat="48.07997" lon="-2.76182">
        <ele>67.2</ele>
        <time>2021-08-08T12:18:12Z</time>
      </trkpt>
      <trkpt lat="48.08" lon="-2.76186">
        <ele>67.2</ele>
        <time>2021-08-08T12:18:13Z</time>
      </trkpt>
      <trkpt lat="48.08003" lon="-2.7619">
        <ele>67.2</ele>
        <time>2021-08-08T12:18:14Z</time>
      </trkpt>
      <trkpt lat="48.08007" lon="-2.76194">
        <ele>67.2</ele>
        <time>2021-08-08T12:18:15Z</time>
      </trkpt>
      <trkpt lat="48.0801" lon="-2.76198">
        <ele>67.2</ele>
        <time>2021-08-08T12:18:16Z</time>
      </trkpt>
      <trkpt lat="48.08014" lon="-2.76203">
        <ele>67.2</ele>
        <time>2021-08-08T12:18:17Z</time>
      </trkpt>
      <trkpt lat="48.08017" lon="-2.76208">
        <ele>67.2</ele>
        <time>2021-08-08T12:18:18Z</time>
      </trkpt>
      <trkpt lat="48.0802" lon="-2.76213">
        <ele>67.2</ele>
        <time>2021-08-08T12:18:19Z</time>
      </trkpt>
      <trkpt lat="48.08023" lon="-2.76218">
        <ele>67.2</ele>
        <time>2021-08-08T12:18:20Z</time>
      </trkpt>
      <trkpt lat="48.08026" lon="-2.76223">
        <ele>67.2</ele>
        <time>2021-08-08T12:18:21Z</time>
      </trkpt>
      <trkpt lat="48.08029" lon="-2.76228">
        <ele>67.2</ele>
        <time>2021-08-08T12:18:22Z</time>
      </trkpt>
      <trkpt lat="48.08032" lon="-2.76234">
        <ele>67.2</ele>
        <time>2021-08-08T12:18:23Z</time>
      </trkpt>
      <trkpt lat="48.08035" lon="-2.7624">
        <ele>67</ele>
        <time>2021-08-08T12:18:24Z</time>
      </trkpt>
      <trkpt lat="48.08038" lon="-2.76246">
        <ele>67</ele>
        <time>2021-08-08T12:18:25Z</time>
      </trkpt>
      <trkpt lat="48.08041" lon="-2.76252">
        <ele>67</ele>
        <time>2021-08-08T12:18:26Z</time>
      </trkpt>
      <trkpt lat="48.08043" lon="-2.76257">
        <ele>67</ele>
        <time>2021-08-08T12:18:27Z</time>
      </trkpt>
      <trkpt lat="48.08045" lon="-2.76262">
        <ele>66.8</ele>
        <time>2021-08-08T12:18:28Z</time>
      </trkpt>
      <trkpt lat="48.08048" lon="-2.76268">
        <ele>66.8</ele>
        <time>2021-08-08T12:18:29Z</time>
      </trkpt>
      <trkpt lat="48.0805" lon="-2.76274">
        <ele>66.8</ele>
        <time>2021-08-08T12:18:30Z</time>
      </trkpt>
      <trkpt lat="48.08053" lon="-2.7628">
        <ele>66.8</ele>
        <time>2021-08-08T12:18:31Z</time>
      </trkpt>
      <trkpt lat="48.08057" lon="-2.76286">
        <ele>66.8</ele>
        <time>2021-08-08T12:18:32Z</time>
      </trkpt>
      <trkpt lat="48.08059" lon="-2.76292">
        <ele>66.6</ele>
        <time>2021-08-08T12:18:33Z</time>
      </trkpt>
      <trkpt lat="48.08062" lon="-2.76296">
        <ele>66.6</ele>
        <time>2021-08-08T12:18:34Z</time>
      </trkpt>
      <trkpt lat="48.08064" lon="-2.763">
        <ele>66.6</ele>
        <time>2021-08-08T12:18:35Z</time>
      </trkpt>
      <trkpt lat="48.08067" lon="-2.76304">
        <ele>66.6</ele>
        <time>2021-08-08T12:18:36Z</time>
      </trkpt>
      <trkpt lat="48.0807" lon="-2.76309">
        <ele>66.6</ele>
        <time>2021-08-08T12:18:37Z</time>
      </trkpt>
      <trkpt lat="48.08073" lon="-2.76314">
        <ele>66.8</ele>
        <time>2021-08-08T12:18:38Z</time>
      </trkpt>
      <trkpt lat="48.08077" lon="-2.7632">
        <ele>66.8</ele>
        <time>2021-08-08T12:18:39Z</time>
      </trkpt>
      <trkpt lat="48.08081" lon="-2.76325">
        <ele>66.8</ele>
        <time>2021-08-08T12:18:40Z</time>
      </trkpt>
      <trkpt lat="48.08085" lon="-2.7633">
        <ele>66.8</ele>
        <time>2021-08-08T12:18:41Z</time>
      </trkpt>
      <trkpt lat="48.08088" lon="-2.76334">
        <ele>66.8</ele>
        <time>2021-08-08T12:18:42Z</time>
      </trkpt>
      <trkpt lat="48.08092" lon="-2.76338">
        <ele>66.8</ele>
        <time>2021-08-08T12:18:43Z</time>
      </trkpt>
      <trkpt lat="48.08096" lon="-2.76341">
        <ele>67</ele>
        <time>2021-08-08T12:18:44Z</time>
      </trkpt>
      <trkpt lat="48.081" lon="-2.76344">
        <ele>67.2</ele>
        <time>2021-08-08T12:18:45Z</time>
      </trkpt>
      <trkpt lat="48.08104" lon="-2.76347">
        <ele>67.4</ele>
        <time>2021-08-08T12:18:46Z</time>
      </trkpt>
      <trkpt lat="48.08108" lon="-2.76351">
        <ele>67.4</ele>
        <time>2021-08-08T12:18:47Z</time>
      </trkpt>
      <trkpt lat="48.08112" lon="-2.76355">
        <ele>67.6</ele>
        <time>2021-08-08T12:18:48Z</time>
      </trkpt>
      <trkpt lat="48.08117" lon="-2.7636">
        <ele>67.6</ele>
        <time>2021-08-08T12:18:49Z</time>
      </trkpt>
      <trkpt lat="48.08122" lon="-2.76364">
        <ele>67.8</ele>
        <time>2021-08-08T12:18:50Z</time>
      </trkpt>
      <trkpt lat="48.08126" lon="-2.76369">
        <ele>67.8</ele>
        <time>2021-08-08T12:18:51Z</time>
      </trkpt>
      <trkpt lat="48.08131" lon="-2.76374">
        <ele>67.8</ele>
        <time>2021-08-08T12:18:52Z</time>
      </trkpt>
      <trkpt lat="48.08136" lon="-2.76378">
        <ele>68</ele>
        <time>2021-08-08T12:18:53Z</time>
      </trkpt>
      <trkpt lat="48.08141" lon="-2.76382">
        <ele>68</ele>
        <time>2021-08-08T12:18:54Z</time>
      </trkpt>
      <trkpt lat="48.08146" lon="-2.76386">
        <ele>68</ele>
        <time>2021-08-08T12:18:55Z</time>
      </trkpt>
      <trkpt lat="48.08151" lon="-2.7639">
        <ele>68</ele>
        <time>2021-08-08T12:18:56Z</time>
      </trkpt>
      <trkpt lat="48.08156" lon="-2.76394">
        <ele>68</ele>
        <time>2021-08-08T12:18:57Z</time>
      </trkpt>
      <trkpt lat="48.0816" lon="-2.76397">
        <ele>68</ele>
        <time>2021-08-08T12:18:58Z</time>
      </trkpt>
      <trkpt lat="48.08165" lon="-2.76401">
        <ele>68</ele>
        <time>2021-08-08T12:18:59Z</time>
      </trkpt>
      <trkpt lat="48.08169" lon="-2.76405">
        <ele>68</ele>
        <time>2021-08-08T12:19:00Z</time>
      </trkpt>
      <trkpt lat="48.08173" lon="-2.76408">
        <ele>68</ele>
        <time>2021-08-08T12:19:01Z</time>
      </trkpt>
      <trkpt lat="48.08177" lon="-2.76412">
        <ele>68</ele>
        <time>2021-08-08T12:19:02Z</time>
      </trkpt>
      <trkpt lat="48.08181" lon="-2.76416">
        <ele>68</ele>
        <time>2021-08-08T12:19:03Z</time>
      </trkpt>
      <trkpt lat="48.08187" lon="-2.76422">
        <ele>68</ele>
        <time>2021-08-08T12:19:05Z</time>
      </trkpt>
      <trkpt lat="48.08192" lon="-2.76427">
        <ele>68</ele>
        <time>2021-08-08T12:19:07Z</time>
      </trkpt>
      <trkpt lat="48.08194" lon="-2.76429">
        <ele>68.2</ele>
        <time>2021-08-08T12:19:08Z</time>
      </trkpt>
      <trkpt lat="48.08196" lon="-2.76431">
        <ele>68.2</ele>
        <time>2021-08-08T12:19:09Z</time>
      </trkpt>
      <trkpt lat="48.08199" lon="-2.76433">
        <ele>68.4</ele>
        <time>2021-08-08T12:19:10Z</time>
      </trkpt>
      <trkpt lat="48.08201" lon="-2.76434">
        <ele>68.6</ele>
        <time>2021-08-08T12:19:11Z</time>
      </trkpt>
      <trkpt lat="48.08202" lon="-2.76434">
        <ele>69</ele>
        <time>2021-08-08T12:19:12Z</time>
      </trkpt>
      <trkpt lat="48.08203" lon="-2.76435">
        <ele>69.2</ele>
        <time>2021-08-08T12:19:13Z</time>
      </trkpt>
      <trkpt lat="48.08204" lon="-2.76436">
        <ele>69.6</ele>
        <time>2021-08-08T12:19:23Z</time>
      </trkpt>
      <trkpt lat="48.08204" lon="-2.76437">
        <ele>69.6</ele>
        <time>2021-08-08T12:19:24Z</time>
      </trkpt>
      <trkpt lat="48.08205" lon="-2.76439">
        <ele>69.6</ele>
        <time>2021-08-08T12:19:25Z</time>
      </trkpt>
      <trkpt lat="48.08206" lon="-2.7644">
        <ele>69.6</ele>
        <time>2021-08-08T12:19:26Z</time>
      </trkpt>
      <trkpt lat="48.08208" lon="-2.76441">
        <ele>69.6</ele>
        <time>2021-08-08T12:19:27Z</time>
      </trkpt>
      <trkpt lat="48.08211" lon="-2.76442">
        <ele>69.6</ele>
        <time>2021-08-08T12:19:28Z</time>
      </trkpt>
      <trkpt lat="48.08213" lon="-2.76444">
        <ele>69.6</ele>
        <time>2021-08-08T12:19:29Z</time>
      </trkpt>
      <trkpt lat="48.08216" lon="-2.76446">
        <ele>69.6</ele>
        <time>2021-08-08T12:19:30Z</time>
      </trkpt>
      <trkpt lat="48.08217" lon="-2.76447">
        <ele>69.4</ele>
        <time>2021-08-08T12:19:31Z</time>
      </trkpt>
      <trkpt lat="48.08218" lon="-2.76447">
        <ele>69.4</ele>
        <time>2021-08-08T12:19:32Z</time>
      </trkpt>
      <trkpt lat="48.08219" lon="-2.76447">
        <ele>69.4</ele>
        <time>2021-08-08T12:19:33Z</time>
      </trkpt>
      <trkpt lat="48.0822" lon="-2.76448">
        <ele>69.4</ele>
        <time>2021-08-08T12:19:35Z</time>
      </trkpt>
      <trkpt lat="48.08221" lon="-2.76449">
        <ele>69.4</ele>
        <time>2021-08-08T12:19:36Z</time>
      </trkpt>
      <trkpt lat="48.08222" lon="-2.76451">
        <ele>69.4</ele>
        <time>2021-08-08T12:19:37Z</time>
      </trkpt>
      <trkpt lat="48.08223" lon="-2.76453">
        <ele>69.4</ele>
        <time>2021-08-08T12:19:38Z</time>
      </trkpt>
      <trkpt lat="48.08225" lon="-2.76454">
        <ele>69.2</ele>
        <time>2021-08-08T12:19:39Z</time>
      </trkpt>
      <trkpt lat="48.08227" lon="-2.76456">
        <ele>69.2</ele>
        <time>2021-08-08T12:19:40Z</time>
      </trkpt>
      <trkpt lat="48.08229" lon="-2.76457">
        <ele>69.2</ele>
        <time>2021-08-08T12:19:41Z</time>
      </trkpt>
      <trkpt lat="48.08231" lon="-2.76459">
        <ele>69.2</ele>
        <time>2021-08-08T12:19:42Z</time>
      </trkpt>
      <trkpt lat="48.08234" lon="-2.76462">
        <ele>69.2</ele>
        <time>2021-08-08T12:19:43Z</time>
      </trkpt>
      <trkpt lat="48.08237" lon="-2.76464">
        <ele>69.2</ele>
        <time>2021-08-08T12:19:44Z</time>
      </trkpt>
      <trkpt lat="48.0824" lon="-2.76466">
        <ele>69.2</ele>
        <time>2021-08-08T12:19:45Z</time>
      </trkpt>
      <trkpt lat="48.08243" lon="-2.76469">
        <ele>69.2</ele>
        <time>2021-08-08T12:19:46Z</time>
      </trkpt>
      <trkpt lat="48.08247" lon="-2.76472">
        <ele>69.2</ele>
        <time>2021-08-08T12:19:47Z</time>
      </trkpt>
      <trkpt lat="48.0825" lon="-2.76475">
        <ele>69.2</ele>
        <time>2021-08-08T12:19:48Z</time>
      </trkpt>
      <trkpt lat="48.08254" lon="-2.76478">
        <ele>69.2</ele>
        <time>2021-08-08T12:19:49Z</time>
      </trkpt>
      <trkpt lat="48.08258" lon="-2.76481">
        <ele>69</ele>
        <time>2021-08-08T12:19:50Z</time>
      </trkpt>
      <trkpt lat="48.08262" lon="-2.76484">
        <ele>69</ele>
        <time>2021-08-08T12:19:51Z</time>
      </trkpt>
      <trkpt lat="48.08267" lon="-2.76487">
        <ele>69</ele>
        <time>2021-08-08T12:19:52Z</time>
      </trkpt>
      <trkpt lat="48.08271" lon="-2.76491">
        <ele>69</ele>
        <time>2021-08-08T12:19:53Z</time>
      </trkpt>
      <trkpt lat="48.08276" lon="-2.76494">
        <ele>69</ele>
        <time>2021-08-08T12:19:54Z</time>
      </trkpt>
      <trkpt lat="48.0828" lon="-2.76497">
        <ele>68.8</ele>
        <time>2021-08-08T12:19:55Z</time>
      </trkpt>
      <trkpt lat="48.08285" lon="-2.76501">
        <ele>68.8</ele>
        <time>2021-08-08T12:19:56Z</time>
      </trkpt>
      <trkpt lat="48.08295" lon="-2.76508">
        <ele>68.6</ele>
        <time>2021-08-08T12:19:58Z</time>
      </trkpt>
      <trkpt lat="48.08299" lon="-2.76511">
        <ele>68.6</ele>
        <time>2021-08-08T12:19:59Z</time>
      </trkpt>
      <trkpt lat="48.08303" lon="-2.76515">
        <ele>68.4</ele>
        <time>2021-08-08T12:20:00Z</time>
      </trkpt>
      <trkpt lat="48.08308" lon="-2.76518">
        <ele>68.4</ele>
        <time>2021-08-08T12:20:01Z</time>
      </trkpt>
      <trkpt lat="48.08313" lon="-2.76522">
        <ele>68.4</ele>
        <time>2021-08-08T12:20:02Z</time>
      </trkpt>
      <trkpt lat="48.08317" lon="-2.76526">
        <ele>68.4</ele>
        <time>2021-08-08T12:20:03Z</time>
      </trkpt>
      <trkpt lat="48.08322" lon="-2.7653">
        <ele>68.2</ele>
        <time>2021-08-08T12:20:04Z</time>
      </trkpt>
      <trkpt lat="48.08327" lon="-2.76534">
        <ele>68</ele>
        <time>2021-08-08T12:20:05Z</time>
      </trkpt>
      <trkpt lat="48.08332" lon="-2.76537">
        <ele>68</ele>
        <time>2021-08-08T12:20:06Z</time>
      </trkpt>
      <trkpt lat="48.08337" lon="-2.76541">
        <ele>68</ele>
        <time>2021-08-08T12:20:07Z</time>
      </trkpt>
      <trkpt lat="48.08342" lon="-2.76545">
        <ele>67.8</ele>
        <time>2021-08-08T12:20:08Z</time>
      </trkpt>
      <trkpt lat="48.08348" lon="-2.76549">
        <ele>67.8</ele>
        <time>2021-08-08T12:20:09Z</time>
      </trkpt>
      <trkpt lat="48.08353" lon="-2.76553">
        <ele>67.8</ele>
        <time>2021-08-08T12:20:10Z</time>
      </trkpt>
      <trkpt lat="48.08358" lon="-2.76557">
        <ele>67.6</ele>
        <time>2021-08-08T12:20:11Z</time>
      </trkpt>
      <trkpt lat="48.08363" lon="-2.76561">
        <ele>67.6</ele>
        <time>2021-08-08T12:20:12Z</time>
      </trkpt>
      <trkpt lat="48.08368" lon="-2.76565">
        <ele>67.4</ele>
        <time>2021-08-08T12:20:13Z</time>
      </trkpt>
      <trkpt lat="48.08373" lon="-2.76569">
        <ele>67.2</ele>
        <time>2021-08-08T12:20:14Z</time>
      </trkpt>
      <trkpt lat="48.08378" lon="-2.76573">
        <ele>67.2</ele>
        <time>2021-08-08T12:20:15Z</time>
      </trkpt>
      <trkpt lat="48.08383" lon="-2.76577">
        <ele>67.2</ele>
        <time>2021-08-08T12:20:16Z</time>
      </trkpt>
      <trkpt lat="48.08389" lon="-2.76581">
        <ele>67.2</ele>
        <time>2021-08-08T12:20:17Z</time>
      </trkpt>
      <trkpt lat="48.08394" lon="-2.76585">
        <ele>67.2</ele>
        <time>2021-08-08T12:20:18Z</time>
      </trkpt>
      <trkpt lat="48.08399" lon="-2.76589">
        <ele>67.2</ele>
        <time>2021-08-08T12:20:19Z</time>
      </trkpt>
      <trkpt lat="48.08405" lon="-2.76593">
        <ele>67.2</ele>
        <time>2021-08-08T12:20:20Z</time>
      </trkpt>
      <trkpt lat="48.0841" lon="-2.76598">
        <ele>67.2</ele>
        <time>2021-08-08T12:20:21Z</time>
      </trkpt>
      <trkpt lat="48.08415" lon="-2.76602">
        <ele>67.2</ele>
        <time>2021-08-08T12:20:22Z</time>
      </trkpt>
      <trkpt lat="48.0842" lon="-2.76606">
        <ele>67.2</ele>
        <time>2021-08-08T12:20:23Z</time>
      </trkpt>
      <trkpt lat="48.08426" lon="-2.7661">
        <ele>67.2</ele>
        <time>2021-08-08T12:20:24Z</time>
      </trkpt>
      <trkpt lat="48.08431" lon="-2.76614">
        <ele>67.2</ele>
        <time>2021-08-08T12:20:25Z</time>
      </trkpt>
      <trkpt lat="48.08436" lon="-2.76618">
        <ele>67.2</ele>
        <time>2021-08-08T12:20:26Z</time>
      </trkpt>
      <trkpt lat="48.08441" lon="-2.76622">
        <ele>67.2</ele>
        <time>2021-08-08T12:20:27Z</time>
      </trkpt>
      <trkpt lat="48.08447" lon="-2.76626">
        <ele>67.2</ele>
        <time>2021-08-08T12:20:28Z</time>
      </trkpt>
      <trkpt lat="48.08452" lon="-2.7663">
        <ele>67.2</ele>
        <time>2021-08-08T12:20:29Z</time>
      </trkpt>
      <trkpt lat="48.08457" lon="-2.76634">
        <ele>67.2</ele>
        <time>2021-08-08T12:20:30Z</time>
      </trkpt>
      <trkpt lat="48.08462" lon="-2.76638">
        <ele>67.4</ele>
        <time>2021-08-08T12:20:31Z</time>
      </trkpt>
      <trkpt lat="48.08468" lon="-2.76642">
        <ele>67.4</ele>
        <time>2021-08-08T12:20:32Z</time>
      </trkpt>
      <trkpt lat="48.08473" lon="-2.76646">
        <ele>67.4</ele>
        <time>2021-08-08T12:20:33Z</time>
      </trkpt>
      <trkpt lat="48.08478" lon="-2.7665">
        <ele>67.4</ele>
        <time>2021-08-08T12:20:34Z</time>
      </trkpt>
      <trkpt lat="48.08483" lon="-2.76654">
        <ele>67.6</ele>
        <time>2021-08-08T12:20:35Z</time>
      </trkpt>
      <trkpt lat="48.08493" lon="-2.76662">
        <ele>67.6</ele>
        <time>2021-08-08T12:20:37Z</time>
      </trkpt>
      <trkpt lat="48.08499" lon="-2.76666">
        <ele>67.6</ele>
        <time>2021-08-08T12:20:38Z</time>
      </trkpt>
      <trkpt lat="48.08504" lon="-2.7667">
        <ele>67.6</ele>
        <time>2021-08-08T12:20:39Z</time>
      </trkpt>
      <trkpt lat="48.08509" lon="-2.76674">
        <ele>67.6</ele>
        <time>2021-08-08T12:20:40Z</time>
      </trkpt>
      <trkpt lat="48.08514" lon="-2.76678">
        <ele>67.6</ele>
        <time>2021-08-08T12:20:41Z</time>
      </trkpt>
      <trkpt lat="48.0852" lon="-2.76682">
        <ele>67.6</ele>
        <time>2021-08-08T12:20:42Z</time>
      </trkpt>
      <trkpt lat="48.08525" lon="-2.76687">
        <ele>67.6</ele>
        <time>2021-08-08T12:20:43Z</time>
      </trkpt>
      <trkpt lat="48.08531" lon="-2.76691">
        <ele>67.6</ele>
        <time>2021-08-08T12:20:44Z</time>
      </trkpt>
      <trkpt lat="48.08536" lon="-2.76696">
        <ele>67.6</ele>
        <time>2021-08-08T12:20:45Z</time>
      </trkpt>
      <trkpt lat="48.08542" lon="-2.767">
        <ele>67.6</ele>
        <time>2021-08-08T12:20:46Z</time>
      </trkpt>
      <trkpt lat="48.08548" lon="-2.76704">
        <ele>67.6</ele>
        <time>2021-08-08T12:20:47Z</time>
      </trkpt>
      <trkpt lat="48.08554" lon="-2.76709">
        <ele>67.6</ele>
        <time>2021-08-08T12:20:48Z</time>
      </trkpt>
      <trkpt lat="48.08559" lon="-2.76713">
        <ele>67.6</ele>
        <time>2021-08-08T12:20:49Z</time>
      </trkpt>
      <trkpt lat="48.08565" lon="-2.76718">
        <ele>67.6</ele>
        <time>2021-08-08T12:20:50Z</time>
      </trkpt>
      <trkpt lat="48.08571" lon="-2.76723">
        <ele>67.6</ele>
        <time>2021-08-08T12:20:51Z</time>
      </trkpt>
      <trkpt lat="48.08576" lon="-2.76727">
        <ele>67.6</ele>
        <time>2021-08-08T12:20:52Z</time>
      </trkpt>
      <trkpt lat="48.08582" lon="-2.76731">
        <ele>67.6</ele>
        <time>2021-08-08T12:20:53Z</time>
      </trkpt>
      <trkpt lat="48.08587" lon="-2.76736">
        <ele>67.6</ele>
        <time>2021-08-08T12:20:54Z</time>
      </trkpt>
      <trkpt lat="48.08593" lon="-2.7674">
        <ele>67.6</ele>
        <time>2021-08-08T12:20:55Z</time>
      </trkpt>
      <trkpt lat="48.08599" lon="-2.76745">
        <ele>67.6</ele>
        <time>2021-08-08T12:20:56Z</time>
      </trkpt>
      <trkpt lat="48.08604" lon="-2.76749">
        <ele>67.6</ele>
        <time>2021-08-08T12:20:57Z</time>
      </trkpt>
      <trkpt lat="48.0861" lon="-2.76754">
        <ele>67.6</ele>
        <time>2021-08-08T12:20:58Z</time>
      </trkpt>
      <trkpt lat="48.08615" lon="-2.76758">
        <ele>67.4</ele>
        <time>2021-08-08T12:20:59Z</time>
      </trkpt>
      <trkpt lat="48.08621" lon="-2.76763">
        <ele>67.4</ele>
        <time>2021-08-08T12:21:00Z</time>
      </trkpt>
      <trkpt lat="48.08626" lon="-2.76767">
        <ele>67.4</ele>
        <time>2021-08-08T12:21:01Z</time>
      </trkpt>
      <trkpt lat="48.08632" lon="-2.76772">
        <ele>67.2</ele>
        <time>2021-08-08T12:21:02Z</time>
      </trkpt>
      <trkpt lat="48.08637" lon="-2.76776">
        <ele>67.2</ele>
        <time>2021-08-08T12:21:03Z</time>
      </trkpt>
      <trkpt lat="48.08643" lon="-2.7678">
        <ele>67.2</ele>
        <time>2021-08-08T12:21:04Z</time>
      </trkpt>
      <trkpt lat="48.08654" lon="-2.76789">
        <ele>67.2</ele>
        <time>2021-08-08T12:21:06Z</time>
      </trkpt>
      <trkpt lat="48.08667" lon="-2.76797">
        <ele>67.2</ele>
        <time>2021-08-08T12:21:08Z</time>
      </trkpt>
      <trkpt lat="48.08673" lon="-2.76801">
        <ele>67.2</ele>
        <time>2021-08-08T12:21:09Z</time>
      </trkpt>
      <trkpt lat="48.08679" lon="-2.76805">
        <ele>67.2</ele>
        <time>2021-08-08T12:21:10Z</time>
      </trkpt>
      <trkpt lat="48.08686" lon="-2.7681">
        <ele>67.2</ele>
        <time>2021-08-08T12:21:11Z</time>
      </trkpt>
      <trkpt lat="48.08692" lon="-2.76814">
        <ele>67.2</ele>
        <time>2021-08-08T12:21:12Z</time>
      </trkpt>
      <trkpt lat="48.08697" lon="-2.76819">
        <ele>67.2</ele>
        <time>2021-08-08T12:21:13Z</time>
      </trkpt>
      <trkpt lat="48.08703" lon="-2.76825">
        <ele>67.2</ele>
        <time>2021-08-08T12:21:14Z</time>
      </trkpt>
      <trkpt lat="48.08708" lon="-2.76831">
        <ele>67.2</ele>
        <time>2021-08-08T12:21:15Z</time>
      </trkpt>
      <trkpt lat="48.08713" lon="-2.76838">
        <ele>67.2</ele>
        <time>2021-08-08T12:21:16Z</time>
      </trkpt>
      <trkpt lat="48.08718" lon="-2.76845">
        <ele>67.2</ele>
        <time>2021-08-08T12:21:17Z</time>
      </trkpt>
      <trkpt lat="48.08722" lon="-2.76853">
        <ele>67.4</ele>
        <time>2021-08-08T12:21:18Z</time>
      </trkpt>
      <trkpt lat="48.08726" lon="-2.76861">
        <ele>67.4</ele>
        <time>2021-08-08T12:21:19Z</time>
      </trkpt>
      <trkpt lat="48.08729" lon="-2.7687">
        <ele>67.4</ele>
        <time>2021-08-08T12:21:20Z</time>
      </trkpt>
      <trkpt lat="48.08732" lon="-2.7688">
        <ele>67.4</ele>
        <time>2021-08-08T12:21:21Z</time>
      </trkpt>
      <trkpt lat="48.08733" lon="-2.76889">
        <ele>67.6</ele>
        <time>2021-08-08T12:21:22Z</time>
      </trkpt>
      <trkpt lat="48.08734" lon="-2.76899">
        <ele>67.6</ele>
        <time>2021-08-08T12:21:23Z</time>
      </trkpt>
      <trkpt lat="48.08734" lon="-2.76908">
        <ele>68</ele>
        <time>2021-08-08T12:21:24Z</time>
      </trkpt>
      <trkpt lat="48.08733" lon="-2.76917">
        <ele>68</ele>
        <time>2021-08-08T12:21:25Z</time>
      </trkpt>
      <trkpt lat="48.08731" lon="-2.76926">
        <ele>68.2</ele>
        <time>2021-08-08T12:21:26Z</time>
      </trkpt>
      <trkpt lat="48.08729" lon="-2.76936">
        <ele>68.2</ele>
        <time>2021-08-08T12:21:27Z</time>
      </trkpt>
      <trkpt lat="48.08727" lon="-2.76946">
        <ele>68.2</ele>
        <time>2021-08-08T12:21:28Z</time>
      </trkpt>
      <trkpt lat="48.08724" lon="-2.76955">
        <ele>68.2</ele>
        <time>2021-08-08T12:21:29Z</time>
      </trkpt>
      <trkpt lat="48.08721" lon="-2.76964">
        <ele>68.2</ele>
        <time>2021-08-08T12:21:30Z</time>
      </trkpt>
      <trkpt lat="48.08717" lon="-2.76974">
        <ele>68.2</ele>
        <time>2021-08-08T12:21:31Z</time>
      </trkpt>
      <trkpt lat="48.08714" lon="-2.76983">
        <ele>68.2</ele>
        <time>2021-08-08T12:21:32Z</time>
      </trkpt>
      <trkpt lat="48.08711" lon="-2.76991">
        <ele>68.2</ele>
        <time>2021-08-08T12:21:33Z</time>
      </trkpt>
      <trkpt lat="48.08708" lon="-2.77">
        <ele>68.2</ele>
        <time>2021-08-08T12:21:34Z</time>
      </trkpt>
      <trkpt lat="48.08705" lon="-2.77009">
        <ele>68.2</ele>
        <time>2021-08-08T12:21:35Z</time>
      </trkpt>
      <trkpt lat="48.08702" lon="-2.77017">
        <ele>68.2</ele>
        <time>2021-08-08T12:21:36Z</time>
      </trkpt>
      <trkpt lat="48.08699" lon="-2.77025">
        <ele>68.2</ele>
        <time>2021-08-08T12:21:37Z</time>
      </trkpt>
      <trkpt lat="48.08696" lon="-2.77033">
        <ele>68.2</ele>
        <time>2021-08-08T12:21:38Z</time>
      </trkpt>
      <trkpt lat="48.08694" lon="-2.7704">
        <ele>68.2</ele>
        <time>2021-08-08T12:21:39Z</time>
      </trkpt>
      <trkpt lat="48.08692" lon="-2.77046">
        <ele>68.2</ele>
        <time>2021-08-08T12:21:40Z</time>
      </trkpt>
      <trkpt lat="48.0869" lon="-2.77052">
        <ele>68.2</ele>
        <time>2021-08-08T12:21:41Z</time>
      </trkpt>
      <trkpt lat="48.08689" lon="-2.77057">
        <ele>68.2</ele>
        <time>2021-08-08T12:21:42Z</time>
      </trkpt>
      <trkpt lat="48.08687" lon="-2.77063">
        <ele>68.2</ele>
        <time>2021-08-08T12:21:43Z</time>
      </trkpt>
      <trkpt lat="48.08685" lon="-2.77069">
        <ele>68.2</ele>
        <time>2021-08-08T12:21:44Z</time>
      </trkpt>
      <trkpt lat="48.08683" lon="-2.77075">
        <ele>68.4</ele>
        <time>2021-08-08T12:21:45Z</time>
      </trkpt>
      <trkpt lat="48.08681" lon="-2.77082">
        <ele>68.6</ele>
        <time>2021-08-08T12:21:46Z</time>
      </trkpt>
      <trkpt lat="48.08679" lon="-2.77089">
        <ele>68.8</ele>
        <time>2021-08-08T12:21:47Z</time>
      </trkpt>
      <trkpt lat="48.08677" lon="-2.77096">
        <ele>68.8</ele>
        <time>2021-08-08T12:21:48Z</time>
      </trkpt>
      <trkpt lat="48.08676" lon="-2.77103">
        <ele>69</ele>
        <time>2021-08-08T12:21:49Z</time>
      </trkpt>
      <trkpt lat="48.08674" lon="-2.7711">
        <ele>69</ele>
        <time>2021-08-08T12:21:50Z</time>
      </trkpt>
      <trkpt lat="48.08673" lon="-2.77117">
        <ele>69</ele>
        <time>2021-08-08T12:21:51Z</time>
      </trkpt>
      <trkpt lat="48.08671" lon="-2.77124">
        <ele>69.2</ele>
        <time>2021-08-08T12:21:52Z</time>
      </trkpt>
      <trkpt lat="48.0867" lon="-2.77131">
        <ele>69.2</ele>
        <time>2021-08-08T12:21:53Z</time>
      </trkpt>
      <trkpt lat="48.08669" lon="-2.77138">
        <ele>69.4</ele>
        <time>2021-08-08T12:21:54Z</time>
      </trkpt>
      <trkpt lat="48.08667" lon="-2.77145">
        <ele>69.4</ele>
        <time>2021-08-08T12:21:55Z</time>
      </trkpt>
      <trkpt lat="48.08666" lon="-2.77152">
        <ele>69.4</ele>
        <time>2021-08-08T12:21:56Z</time>
      </trkpt>
      <trkpt lat="48.08665" lon="-2.77158">
        <ele>69.4</ele>
        <time>2021-08-08T12:21:57Z</time>
      </trkpt>
      <trkpt lat="48.08664" lon="-2.77165">
        <ele>69.6</ele>
        <time>2021-08-08T12:21:58Z</time>
      </trkpt>
      <trkpt lat="48.08663" lon="-2.7717">
        <ele>69.6</ele>
        <time>2021-08-08T12:21:59Z</time>
      </trkpt>
      <trkpt lat="48.08661" lon="-2.77176">
        <ele>69.6</ele>
        <time>2021-08-08T12:22:00Z</time>
      </trkpt>
      <trkpt lat="48.0866" lon="-2.77183">
        <ele>69.8</ele>
        <time>2021-08-08T12:22:01Z</time>
      </trkpt>
      <trkpt lat="48.08659" lon="-2.77189">
        <ele>69.8</ele>
        <time>2021-08-08T12:22:02Z</time>
      </trkpt>
      <trkpt lat="48.08658" lon="-2.77196">
        <ele>70</ele>
        <time>2021-08-08T12:22:03Z</time>
      </trkpt>
      <trkpt lat="48.08657" lon="-2.77202">
        <ele>70</ele>
        <time>2021-08-08T12:22:04Z</time>
      </trkpt>
      <trkpt lat="48.08655" lon="-2.7721">
        <ele>70.2</ele>
        <time>2021-08-08T12:22:05Z</time>
      </trkpt>
      <trkpt lat="48.08654" lon="-2.77217">
        <ele>70.4</ele>
        <time>2021-08-08T12:22:06Z</time>
      </trkpt>
      <trkpt lat="48.08653" lon="-2.77225">
        <ele>70.6</ele>
        <time>2021-08-08T12:22:07Z</time>
      </trkpt>
      <trkpt lat="48.08651" lon="-2.77233">
        <ele>70.6</ele>
        <time>2021-08-08T12:22:08Z</time>
      </trkpt>
      <trkpt lat="48.08649" lon="-2.77249">
        <ele>70.6</ele>
        <time>2021-08-08T12:22:10Z</time>
      </trkpt>
      <trkpt lat="48.08648" lon="-2.77257">
        <ele>70.8</ele>
        <time>2021-08-08T12:22:11Z</time>
      </trkpt>
      <trkpt lat="48.08648" lon="-2.77265">
        <ele>70.8</ele>
        <time>2021-08-08T12:22:12Z</time>
      </trkpt>
      <trkpt lat="48.08648" lon="-2.77273">
        <ele>70.8</ele>
        <time>2021-08-08T12:22:13Z</time>
      </trkpt>
      <trkpt lat="48.08649" lon="-2.7728">
        <ele>70.8</ele>
        <time>2021-08-08T12:22:14Z</time>
      </trkpt>
      <trkpt lat="48.0865" lon="-2.77288">
        <ele>70.8</ele>
        <time>2021-08-08T12:22:15Z</time>
      </trkpt>
      <trkpt lat="48.08651" lon="-2.77295">
        <ele>70.8</ele>
        <time>2021-08-08T12:22:16Z</time>
      </trkpt>
      <trkpt lat="48.08652" lon="-2.77303">
        <ele>70.8</ele>
        <time>2021-08-08T12:22:17Z</time>
      </trkpt>
      <trkpt lat="48.08654" lon="-2.77311">
        <ele>70.8</ele>
        <time>2021-08-08T12:22:18Z</time>
      </trkpt>
      <trkpt lat="48.08656" lon="-2.77319">
        <ele>70.6</ele>
        <time>2021-08-08T12:22:19Z</time>
      </trkpt>
      <trkpt lat="48.08657" lon="-2.77326">
        <ele>70.6</ele>
        <time>2021-08-08T12:22:20Z</time>
      </trkpt>
      <trkpt lat="48.0866" lon="-2.77334">
        <ele>70.4</ele>
        <time>2021-08-08T12:22:21Z</time>
      </trkpt>
      <trkpt lat="48.08662" lon="-2.77342">
        <ele>70.4</ele>
        <time>2021-08-08T12:22:22Z</time>
      </trkpt>
      <trkpt lat="48.08664" lon="-2.77349">
        <ele>70.6</ele>
        <time>2021-08-08T12:22:23Z</time>
      </trkpt>
      <trkpt lat="48.08666" lon="-2.77356">
        <ele>70.6</ele>
        <time>2021-08-08T12:22:24Z</time>
      </trkpt>
      <trkpt lat="48.08668" lon="-2.77364">
        <ele>70.6</ele>
        <time>2021-08-08T12:22:25Z</time>
      </trkpt>
      <trkpt lat="48.08669" lon="-2.77371">
        <ele>70.6</ele>
        <time>2021-08-08T12:22:26Z</time>
      </trkpt>
      <trkpt lat="48.08671" lon="-2.77378">
        <ele>70.4</ele>
        <time>2021-08-08T12:22:27Z</time>
      </trkpt>
      <trkpt lat="48.08673" lon="-2.77385">
        <ele>70.4</ele>
        <time>2021-08-08T12:22:28Z</time>
      </trkpt>
      <trkpt lat="48.08675" lon="-2.77391">
        <ele>70.4</ele>
        <time>2021-08-08T12:22:29Z</time>
      </trkpt>
      <trkpt lat="48.08677" lon="-2.77397">
        <ele>70.4</ele>
        <time>2021-08-08T12:22:30Z</time>
      </trkpt>
      <trkpt lat="48.08678" lon="-2.77403">
        <ele>70.4</ele>
        <time>2021-08-08T12:22:31Z</time>
      </trkpt>
      <trkpt lat="48.0868" lon="-2.77409">
        <ele>70.4</ele>
        <time>2021-08-08T12:22:32Z</time>
      </trkpt>
      <trkpt lat="48.08681" lon="-2.77415">
        <ele>70.4</ele>
        <time>2021-08-08T12:22:33Z</time>
      </trkpt>
      <trkpt lat="48.08683" lon="-2.77421">
        <ele>70.6</ele>
        <time>2021-08-08T12:22:34Z</time>
      </trkpt>
      <trkpt lat="48.08684" lon="-2.77426">
        <ele>70.6</ele>
        <time>2021-08-08T12:22:35Z</time>
      </trkpt>
      <trkpt lat="48.08684" lon="-2.77429">
        <ele>70.4</ele>
        <time>2021-08-08T12:22:36Z</time>
      </trkpt>
      <trkpt lat="48.08685" lon="-2.77433">
        <ele>70.6</ele>
        <time>2021-08-08T12:22:37Z</time>
      </trkpt>
      <trkpt lat="48.08686" lon="-2.77435">
        <ele>70.8</ele>
        <time>2021-08-08T12:22:38Z</time>
      </trkpt>
      <trkpt lat="48.08687" lon="-2.77438">
        <ele>71</ele>
        <time>2021-08-08T12:22:39Z</time>
      </trkpt>
      <trkpt lat="48.08688" lon="-2.77443">
        <ele>71.2</ele>
        <time>2021-08-08T12:22:40Z</time>
      </trkpt>
      <trkpt lat="48.0869" lon="-2.77448">
        <ele>71.4</ele>
        <time>2021-08-08T12:22:41Z</time>
      </trkpt>
      <trkpt lat="48.08691" lon="-2.77454">
        <ele>71.4</ele>
        <time>2021-08-08T12:22:42Z</time>
      </trkpt>
      <trkpt lat="48.08693" lon="-2.7746">
        <ele>71.4</ele>
        <time>2021-08-08T12:22:43Z</time>
      </trkpt>
      <trkpt lat="48.08695" lon="-2.77465">
        <ele>71.6</ele>
        <time>2021-08-08T12:22:44Z</time>
      </trkpt>
      <trkpt lat="48.08697" lon="-2.77471">
        <ele>71.6</ele>
        <time>2021-08-08T12:22:45Z</time>
      </trkpt>
      <trkpt lat="48.08699" lon="-2.77476">
        <ele>71.6</ele>
        <time>2021-08-08T12:22:46Z</time>
      </trkpt>
      <trkpt lat="48.087" lon="-2.77482">
        <ele>71.6</ele>
        <time>2021-08-08T12:22:47Z</time>
      </trkpt>
      <trkpt lat="48.08702" lon="-2.77488">
        <ele>71.6</ele>
        <time>2021-08-08T12:22:48Z</time>
      </trkpt>
      <trkpt lat="48.08705" lon="-2.77494">
        <ele>71.6</ele>
        <time>2021-08-08T12:22:49Z</time>
      </trkpt>
      <trkpt lat="48.08707" lon="-2.775">
        <ele>71.2</ele>
        <time>2021-08-08T12:22:50Z</time>
      </trkpt>
      <trkpt lat="48.08709" lon="-2.77506">
        <ele>71</ele>
        <time>2021-08-08T12:22:51Z</time>
      </trkpt>
      <trkpt lat="48.08711" lon="-2.77512">
        <ele>71</ele>
        <time>2021-08-08T12:22:52Z</time>
      </trkpt>
      <trkpt lat="48.08712" lon="-2.77518">
        <ele>71</ele>
        <time>2021-08-08T12:22:53Z</time>
      </trkpt>
      <trkpt lat="48.08715" lon="-2.77524">
        <ele>70.8</ele>
        <time>2021-08-08T12:22:54Z</time>
      </trkpt>
      <trkpt lat="48.08717" lon="-2.7753">
        <ele>70.8</ele>
        <time>2021-08-08T12:22:55Z</time>
      </trkpt>
      <trkpt lat="48.08719" lon="-2.77536">
        <ele>70.8</ele>
        <time>2021-08-08T12:22:56Z</time>
      </trkpt>
      <trkpt lat="48.08721" lon="-2.77542">
        <ele>70.8</ele>
        <time>2021-08-08T12:22:57Z</time>
      </trkpt>
      <trkpt lat="48.08724" lon="-2.77548">
        <ele>70.8</ele>
        <time>2021-08-08T12:22:58Z</time>
      </trkpt>
      <trkpt lat="48.08726" lon="-2.77552">
        <ele>70.8</ele>
        <time>2021-08-08T12:22:59Z</time>
      </trkpt>
      <trkpt lat="48.08729" lon="-2.77557">
        <ele>70.8</ele>
        <time>2021-08-08T12:23:00Z</time>
      </trkpt>
      <trkpt lat="48.08732" lon="-2.77562">
        <ele>70.8</ele>
        <time>2021-08-08T12:23:01Z</time>
      </trkpt>
      <trkpt lat="48.08735" lon="-2.77566">
        <ele>70.8</ele>
        <time>2021-08-08T12:23:02Z</time>
      </trkpt>
      <trkpt lat="48.08738" lon="-2.7757">
        <ele>71</ele>
        <time>2021-08-08T12:23:03Z</time>
      </trkpt>
      <trkpt lat="48.08741" lon="-2.77574">
        <ele>71</ele>
        <time>2021-08-08T12:23:04Z</time>
      </trkpt>
      <trkpt lat="48.08745" lon="-2.77577">
        <ele>71</ele>
        <time>2021-08-08T12:23:05Z</time>
      </trkpt>
      <trkpt lat="48.0875" lon="-2.7758">
        <ele>71</ele>
        <time>2021-08-08T12:23:06Z</time>
      </trkpt>
      <trkpt lat="48.08754" lon="-2.77584">
        <ele>71</ele>
        <time>2021-08-08T12:23:07Z</time>
      </trkpt>
      <trkpt lat="48.08758" lon="-2.77588">
        <ele>71.2</ele>
        <time>2021-08-08T12:23:08Z</time>
      </trkpt>
      <trkpt lat="48.08763" lon="-2.77591">
        <ele>71.2</ele>
        <time>2021-08-08T12:23:09Z</time>
      </trkpt>
      <trkpt lat="48.08767" lon="-2.77595">
        <ele>71.2</ele>
        <time>2021-08-08T12:23:10Z</time>
      </trkpt>
      <trkpt lat="48.08772" lon="-2.77599">
        <ele>71.2</ele>
        <time>2021-08-08T12:23:11Z</time>
      </trkpt>
      <trkpt lat="48.08777" lon="-2.77602">
        <ele>71.2</ele>
        <time>2021-08-08T12:23:12Z</time>
      </trkpt>
      <trkpt lat="48.08782" lon="-2.77605">
        <ele>71.2</ele>
        <time>2021-08-08T12:23:13Z</time>
      </trkpt>
      <trkpt lat="48.08786" lon="-2.77608">
        <ele>71.2</ele>
        <time>2021-08-08T12:23:14Z</time>
      </trkpt>
      <trkpt lat="48.08791" lon="-2.77611">
        <ele>71.2</ele>
        <time>2021-08-08T12:23:15Z</time>
      </trkpt>
      <trkpt lat="48.08796" lon="-2.77615">
        <ele>71.2</ele>
        <time>2021-08-08T12:23:16Z</time>
      </trkpt>
      <trkpt lat="48.088" lon="-2.77618">
        <ele>71.2</ele>
        <time>2021-08-08T12:23:17Z</time>
      </trkpt>
      <trkpt lat="48.08805" lon="-2.77621">
        <ele>71.4</ele>
        <time>2021-08-08T12:23:18Z</time>
      </trkpt>
      <trkpt lat="48.0881" lon="-2.77625">
        <ele>71.4</ele>
        <time>2021-08-08T12:23:19Z</time>
      </trkpt>
      <trkpt lat="48.08814" lon="-2.77628">
        <ele>71.4</ele>
        <time>2021-08-08T12:23:20Z</time>
      </trkpt>
      <trkpt lat="48.08818" lon="-2.77631">
        <ele>71.6</ele>
        <time>2021-08-08T12:23:21Z</time>
      </trkpt>
      <trkpt lat="48.08822" lon="-2.77635">
        <ele>71.6</ele>
        <time>2021-08-08T12:23:22Z</time>
      </trkpt>
      <trkpt lat="48.08826" lon="-2.77638">
        <ele>71.6</ele>
        <time>2021-08-08T12:23:23Z</time>
      </trkpt>
      <trkpt lat="48.0883" lon="-2.77641">
        <ele>71.6</ele>
        <time>2021-08-08T12:23:24Z</time>
      </trkpt>
      <trkpt lat="48.08834" lon="-2.77643">
        <ele>71.6</ele>
        <time>2021-08-08T12:23:25Z</time>
      </trkpt>
      <trkpt lat="48.08838" lon="-2.77646">
        <ele>71.6</ele>
        <time>2021-08-08T12:23:26Z</time>
      </trkpt>
      <trkpt lat="48.08842" lon="-2.77649">
        <ele>71.6</ele>
        <time>2021-08-08T12:23:27Z</time>
      </trkpt>
      <trkpt lat="48.08846" lon="-2.77652">
        <ele>71.6</ele>
        <time>2021-08-08T12:23:28Z</time>
      </trkpt>
      <trkpt lat="48.0885" lon="-2.77655">
        <ele>71.6</ele>
        <time>2021-08-08T12:23:29Z</time>
      </trkpt>
      <trkpt lat="48.08853" lon="-2.77659">
        <ele>71.6</ele>
        <time>2021-08-08T12:23:30Z</time>
      </trkpt>
      <trkpt lat="48.08857" lon="-2.77662">
        <ele>71.6</ele>
        <time>2021-08-08T12:23:31Z</time>
      </trkpt>
      <trkpt lat="48.08861" lon="-2.77665">
        <ele>71.8</ele>
        <time>2021-08-08T12:23:32Z</time>
      </trkpt>
      <trkpt lat="48.08866" lon="-2.77669">
        <ele>71.8</ele>
        <time>2021-08-08T12:23:33Z</time>
      </trkpt>
      <trkpt lat="48.0887" lon="-2.77672">
        <ele>71.8</ele>
        <time>2021-08-08T12:23:34Z</time>
      </trkpt>
      <trkpt lat="48.08875" lon="-2.77675">
        <ele>71.8</ele>
        <time>2021-08-08T12:23:35Z</time>
      </trkpt>
      <trkpt lat="48.0888" lon="-2.77679">
        <ele>71.8</ele>
        <time>2021-08-08T12:23:36Z</time>
      </trkpt>
      <trkpt lat="48.08885" lon="-2.77682">
        <ele>71.8</ele>
        <time>2021-08-08T12:23:37Z</time>
      </trkpt>
      <trkpt lat="48.08889" lon="-2.77686">
        <ele>71.8</ele>
        <time>2021-08-08T12:23:38Z</time>
      </trkpt>
      <trkpt lat="48.08894" lon="-2.77689">
        <ele>71.8</ele>
        <time>2021-08-08T12:23:39Z</time>
      </trkpt>
      <trkpt lat="48.08899" lon="-2.77693">
        <ele>71.8</ele>
        <time>2021-08-08T12:23:40Z</time>
      </trkpt>
      <trkpt lat="48.08904" lon="-2.77696">
        <ele>71.8</ele>
        <time>2021-08-08T12:23:41Z</time>
      </trkpt>
      <trkpt lat="48.08909" lon="-2.77699">
        <ele>71.8</ele>
        <time>2021-08-08T12:23:42Z</time>
      </trkpt>
      <trkpt lat="48.08914" lon="-2.77703">
        <ele>71.8</ele>
        <time>2021-08-08T12:23:43Z</time>
      </trkpt>
      <trkpt lat="48.08919" lon="-2.77707">
        <ele>71.8</ele>
        <time>2021-08-08T12:23:44Z</time>
      </trkpt>
      <trkpt lat="48.08923" lon="-2.7771">
        <ele>71.8</ele>
        <time>2021-08-08T12:23:45Z</time>
      </trkpt>
      <trkpt lat="48.08928" lon="-2.77713">
        <ele>71.8</ele>
        <time>2021-08-08T12:23:46Z</time>
      </trkpt>
      <trkpt lat="48.08932" lon="-2.77716">
        <ele>71.8</ele>
        <time>2021-08-08T12:23:47Z</time>
      </trkpt>
      <trkpt lat="48.08936" lon="-2.77719">
        <ele>71.8</ele>
        <time>2021-08-08T12:23:48Z</time>
      </trkpt>
      <trkpt lat="48.0894" lon="-2.77722">
        <ele>71.8</ele>
        <time>2021-08-08T12:23:49Z</time>
      </trkpt>
      <trkpt lat="48.08944" lon="-2.77725">
        <ele>71.8</ele>
        <time>2021-08-08T12:23:50Z</time>
      </trkpt>
      <trkpt lat="48.08949" lon="-2.77728">
        <ele>71.8</ele>
        <time>2021-08-08T12:23:51Z</time>
      </trkpt>
      <trkpt lat="48.08954" lon="-2.77731">
        <ele>71.8</ele>
        <time>2021-08-08T12:23:52Z</time>
      </trkpt>
      <trkpt lat="48.08959" lon="-2.77734">
        <ele>71.8</ele>
        <time>2021-08-08T12:23:53Z</time>
      </trkpt>
      <trkpt lat="48.08964" lon="-2.77736">
        <ele>71.8</ele>
        <time>2021-08-08T12:23:54Z</time>
      </trkpt>
      <trkpt lat="48.08969" lon="-2.77738">
        <ele>71.8</ele>
        <time>2021-08-08T12:23:55Z</time>
      </trkpt>
      <trkpt lat="48.08974" lon="-2.7774">
        <ele>71.8</ele>
        <time>2021-08-08T12:23:56Z</time>
      </trkpt>
      <trkpt lat="48.08978" lon="-2.77742">
        <ele>71.8</ele>
        <time>2021-08-08T12:23:57Z</time>
      </trkpt>
      <trkpt lat="48.08983" lon="-2.77745">
        <ele>71.8</ele>
        <time>2021-08-08T12:23:58Z</time>
      </trkpt>
      <trkpt lat="48.08988" lon="-2.77747">
        <ele>71.8</ele>
        <time>2021-08-08T12:23:59Z</time>
      </trkpt>
      <trkpt lat="48.08993" lon="-2.77749">
        <ele>71.8</ele>
        <time>2021-08-08T12:24:00Z</time>
      </trkpt>
      <trkpt lat="48.08997" lon="-2.7775">
        <ele>71.8</ele>
        <time>2021-08-08T12:24:01Z</time>
      </trkpt>
      <trkpt lat="48.09002" lon="-2.77752">
        <ele>71.8</ele>
        <time>2021-08-08T12:24:02Z</time>
      </trkpt>
      <trkpt lat="48.09006" lon="-2.77753">
        <ele>71.8</ele>
        <time>2021-08-08T12:24:03Z</time>
      </trkpt>
      <trkpt lat="48.0901" lon="-2.77756">
        <ele>71.8</ele>
        <time>2021-08-08T12:24:04Z</time>
      </trkpt>
      <trkpt lat="48.09016" lon="-2.77758">
        <ele>71.8</ele>
        <time>2021-08-08T12:24:05Z</time>
      </trkpt>
      <trkpt lat="48.09021" lon="-2.7776">
        <ele>71.8</ele>
        <time>2021-08-08T12:24:06Z</time>
      </trkpt>
      <trkpt lat="48.09026" lon="-2.77762">
        <ele>71.8</ele>
        <time>2021-08-08T12:24:07Z</time>
      </trkpt>
      <trkpt lat="48.09032" lon="-2.77764">
        <ele>71.8</ele>
        <time>2021-08-08T12:24:08Z</time>
      </trkpt>
      <trkpt lat="48.09037" lon="-2.77766">
        <ele>71.8</ele>
        <time>2021-08-08T12:24:09Z</time>
      </trkpt>
      <trkpt lat="48.09042" lon="-2.77767">
        <ele>71.8</ele>
        <time>2021-08-08T12:24:10Z</time>
      </trkpt>
      <trkpt lat="48.09047" lon="-2.77769">
        <ele>71.8</ele>
        <time>2021-08-08T12:24:11Z</time>
      </trkpt>
      <trkpt lat="48.09052" lon="-2.7777">
        <ele>71.8</ele>
        <time>2021-08-08T12:24:12Z</time>
      </trkpt>
      <trkpt lat="48.09058" lon="-2.77772">
        <ele>71.8</ele>
        <time>2021-08-08T12:24:13Z</time>
      </trkpt>
      <trkpt lat="48.09063" lon="-2.77773">
        <ele>71.8</ele>
        <time>2021-08-08T12:24:14Z</time>
      </trkpt>
      <trkpt lat="48.09069" lon="-2.77773">
        <ele>71.8</ele>
        <time>2021-08-08T12:24:15Z</time>
      </trkpt>
      <trkpt lat="48.09075" lon="-2.77773">
        <ele>71.8</ele>
        <time>2021-08-08T12:24:16Z</time>
      </trkpt>
      <trkpt lat="48.0908" lon="-2.77772">
        <ele>71.8</ele>
        <time>2021-08-08T12:24:17Z</time>
      </trkpt>
      <trkpt lat="48.09086" lon="-2.77772">
        <ele>71.8</ele>
        <time>2021-08-08T12:24:18Z</time>
      </trkpt>
      <trkpt lat="48.09091" lon="-2.77772">
        <ele>71.8</ele>
        <time>2021-08-08T12:24:19Z</time>
      </trkpt>
      <trkpt lat="48.09096" lon="-2.77771">
        <ele>71.8</ele>
        <time>2021-08-08T12:24:20Z</time>
      </trkpt>
      <trkpt lat="48.09101" lon="-2.7777">
        <ele>71.8</ele>
        <time>2021-08-08T12:24:21Z</time>
      </trkpt>
      <trkpt lat="48.09106" lon="-2.77769">
        <ele>71.8</ele>
        <time>2021-08-08T12:24:22Z</time>
      </trkpt>
      <trkpt lat="48.0911" lon="-2.77768">
        <ele>71.8</ele>
        <time>2021-08-08T12:24:23Z</time>
      </trkpt>
      <trkpt lat="48.09115" lon="-2.77767">
        <ele>71.8</ele>
        <time>2021-08-08T12:24:24Z</time>
      </trkpt>
      <trkpt lat="48.0912" lon="-2.77767">
        <ele>71.8</ele>
        <time>2021-08-08T12:24:25Z</time>
      </trkpt>
      <trkpt lat="48.09125" lon="-2.77766">
        <ele>71.8</ele>
        <time>2021-08-08T12:24:26Z</time>
      </trkpt>
      <trkpt lat="48.0913" lon="-2.77765">
        <ele>71.8</ele>
        <time>2021-08-08T12:24:27Z</time>
      </trkpt>
      <trkpt lat="48.09135" lon="-2.77764">
        <ele>71.8</ele>
        <time>2021-08-08T12:24:28Z</time>
      </trkpt>
      <trkpt lat="48.0914" lon="-2.77764">
        <ele>71.8</ele>
        <time>2021-08-08T12:24:29Z</time>
      </trkpt>
      <trkpt lat="48.09145" lon="-2.77763">
        <ele>71.8</ele>
        <time>2021-08-08T12:24:30Z</time>
      </trkpt>
      <trkpt lat="48.0915" lon="-2.77762">
        <ele>71.8</ele>
        <time>2021-08-08T12:24:31Z</time>
      </trkpt>
      <trkpt lat="48.09155" lon="-2.77761">
        <ele>71.6</ele>
        <time>2021-08-08T12:24:32Z</time>
      </trkpt>
      <trkpt lat="48.09159" lon="-2.7776">
        <ele>71.6</ele>
        <time>2021-08-08T12:24:33Z</time>
      </trkpt>
      <trkpt lat="48.09163" lon="-2.77759">
        <ele>71.6</ele>
        <time>2021-08-08T12:24:34Z</time>
      </trkpt>
      <trkpt lat="48.09167" lon="-2.77759">
        <ele>71.6</ele>
        <time>2021-08-08T12:24:35Z</time>
      </trkpt>
      <trkpt lat="48.09171" lon="-2.77759">
        <ele>71.4</ele>
        <time>2021-08-08T12:24:36Z</time>
      </trkpt>
      <trkpt lat="48.09174" lon="-2.77759">
        <ele>71.4</ele>
        <time>2021-08-08T12:24:37Z</time>
      </trkpt>
      <trkpt lat="48.09178" lon="-2.77758">
        <ele>71.4</ele>
        <time>2021-08-08T12:24:38Z</time>
      </trkpt>
      <trkpt lat="48.09181" lon="-2.77758">
        <ele>71.4</ele>
        <time>2021-08-08T12:24:39Z</time>
      </trkpt>
      <trkpt lat="48.09185" lon="-2.77758">
        <ele>71.6</ele>
        <time>2021-08-08T12:24:40Z</time>
      </trkpt>
      <trkpt lat="48.09189" lon="-2.77758">
        <ele>71.6</ele>
        <time>2021-08-08T12:24:41Z</time>
      </trkpt>
      <trkpt lat="48.09194" lon="-2.77758">
        <ele>71.6</ele>
        <time>2021-08-08T12:24:42Z</time>
      </trkpt>
      <trkpt lat="48.09199" lon="-2.77757">
        <ele>71.6</ele>
        <time>2021-08-08T12:24:43Z</time>
      </trkpt>
      <trkpt lat="48.09204" lon="-2.77757">
        <ele>71.6</ele>
        <time>2021-08-08T12:24:44Z</time>
      </trkpt>
      <trkpt lat="48.09209" lon="-2.77757">
        <ele>71.4</ele>
        <time>2021-08-08T12:24:45Z</time>
      </trkpt>
      <trkpt lat="48.09214" lon="-2.77758">
        <ele>71.4</ele>
        <time>2021-08-08T12:24:46Z</time>
      </trkpt>
      <trkpt lat="48.09219" lon="-2.77758">
        <ele>71.4</ele>
        <time>2021-08-08T12:24:47Z</time>
      </trkpt>
      <trkpt lat="48.09223" lon="-2.77757">
        <ele>71.4</ele>
        <time>2021-08-08T12:24:48Z</time>
      </trkpt>
      <trkpt lat="48.09229" lon="-2.77757">
        <ele>71.4</ele>
        <time>2021-08-08T12:24:49Z</time>
      </trkpt>
      <trkpt lat="48.09233" lon="-2.77757">
        <ele>71.6</ele>
        <time>2021-08-08T12:24:50Z</time>
      </trkpt>
      <trkpt lat="48.09237" lon="-2.77756">
        <ele>71.6</ele>
        <time>2021-08-08T12:24:51Z</time>
      </trkpt>
      <trkpt lat="48.09242" lon="-2.77756">
        <ele>71.6</ele>
        <time>2021-08-08T12:24:52Z</time>
      </trkpt>
      <trkpt lat="48.09247" lon="-2.77755">
        <ele>71.6</ele>
        <time>2021-08-08T12:24:53Z</time>
      </trkpt>
      <trkpt lat="48.09252" lon="-2.77755">
        <ele>71.6</ele>
        <time>2021-08-08T12:24:54Z</time>
      </trkpt>
      <trkpt lat="48.09257" lon="-2.77755">
        <ele>71.8</ele>
        <time>2021-08-08T12:24:55Z</time>
      </trkpt>
      <trkpt lat="48.09262" lon="-2.77754">
        <ele>71.8</ele>
        <time>2021-08-08T12:24:56Z</time>
      </trkpt>
      <trkpt lat="48.09267" lon="-2.77753">
        <ele>71.8</ele>
        <time>2021-08-08T12:24:57Z</time>
      </trkpt>
      <trkpt lat="48.09271" lon="-2.77753">
        <ele>71.8</ele>
        <time>2021-08-08T12:24:58Z</time>
      </trkpt>
      <trkpt lat="48.09276" lon="-2.77752">
        <ele>71.8</ele>
        <time>2021-08-08T12:24:59Z</time>
      </trkpt>
      <trkpt lat="48.09281" lon="-2.77752">
        <ele>71.8</ele>
        <time>2021-08-08T12:25:00Z</time>
      </trkpt>
      <trkpt lat="48.09286" lon="-2.77751">
        <ele>71.8</ele>
        <time>2021-08-08T12:25:01Z</time>
      </trkpt>
      <trkpt lat="48.09291" lon="-2.77751">
        <ele>72</ele>
        <time>2021-08-08T12:25:02Z</time>
      </trkpt>
      <trkpt lat="48.09296" lon="-2.77751">
        <ele>72</ele>
        <time>2021-08-08T12:25:03Z</time>
      </trkpt>
      <trkpt lat="48.093" lon="-2.7775">
        <ele>72</ele>
        <time>2021-08-08T12:25:04Z</time>
      </trkpt>
      <trkpt lat="48.09305" lon="-2.7775">
        <ele>72</ele>
        <time>2021-08-08T12:25:05Z</time>
      </trkpt>
      <trkpt lat="48.09311" lon="-2.77749">
        <ele>72</ele>
        <time>2021-08-08T12:25:06Z</time>
      </trkpt>
      <trkpt lat="48.09315" lon="-2.77749">
        <ele>72</ele>
        <time>2021-08-08T12:25:07Z</time>
      </trkpt>
      <trkpt lat="48.0932" lon="-2.77749">
        <ele>72</ele>
        <time>2021-08-08T12:25:08Z</time>
      </trkpt>
      <trkpt lat="48.09325" lon="-2.77749">
        <ele>72</ele>
        <time>2021-08-08T12:25:09Z</time>
      </trkpt>
      <trkpt lat="48.09329" lon="-2.77749">
        <ele>72</ele>
        <time>2021-08-08T12:25:10Z</time>
      </trkpt>
      <trkpt lat="48.09334" lon="-2.77749">
        <ele>72</ele>
        <time>2021-08-08T12:25:11Z</time>
      </trkpt>
      <trkpt lat="48.09338" lon="-2.77749">
        <ele>72</ele>
        <time>2021-08-08T12:25:12Z</time>
      </trkpt>
      <trkpt lat="48.09342" lon="-2.77748">
        <ele>72</ele>
        <time>2021-08-08T12:25:13Z</time>
      </trkpt>
      <trkpt lat="48.09348" lon="-2.77747">
        <ele>72</ele>
        <time>2021-08-08T12:25:14Z</time>
      </trkpt>
      <trkpt lat="48.09353" lon="-2.77746">
        <ele>72</ele>
        <time>2021-08-08T12:25:15Z</time>
      </trkpt>
      <trkpt lat="48.09358" lon="-2.77745">
        <ele>72</ele>
        <time>2021-08-08T12:25:16Z</time>
      </trkpt>
      <trkpt lat="48.09362" lon="-2.77744">
        <ele>72</ele>
        <time>2021-08-08T12:25:17Z</time>
      </trkpt>
      <trkpt lat="48.09368" lon="-2.77742">
        <ele>72</ele>
        <time>2021-08-08T12:25:18Z</time>
      </trkpt>
      <trkpt lat="48.09372" lon="-2.7774">
        <ele>72</ele>
        <time>2021-08-08T12:25:19Z</time>
      </trkpt>
      <trkpt lat="48.09377" lon="-2.77738">
        <ele>72</ele>
        <time>2021-08-08T12:25:20Z</time>
      </trkpt>
      <trkpt lat="48.09382" lon="-2.77736">
        <ele>72</ele>
        <time>2021-08-08T12:25:21Z</time>
      </trkpt>
      <trkpt lat="48.09387" lon="-2.77733">
        <ele>72</ele>
        <time>2021-08-08T12:25:22Z</time>
      </trkpt>
      <trkpt lat="48.09392" lon="-2.77731">
        <ele>72</ele>
        <time>2021-08-08T12:25:23Z</time>
      </trkpt>
      <trkpt lat="48.09397" lon="-2.77729">
        <ele>72</ele>
        <time>2021-08-08T12:25:24Z</time>
      </trkpt>
      <trkpt lat="48.09401" lon="-2.77726">
        <ele>72</ele>
        <time>2021-08-08T12:25:25Z</time>
      </trkpt>
      <trkpt lat="48.09406" lon="-2.77724">
        <ele>72</ele>
        <time>2021-08-08T12:25:26Z</time>
      </trkpt>
      <trkpt lat="48.09411" lon="-2.77721">
        <ele>72</ele>
        <time>2021-08-08T12:25:27Z</time>
      </trkpt>
      <trkpt lat="48.09415" lon="-2.77719">
        <ele>72</ele>
        <time>2021-08-08T12:25:28Z</time>
      </trkpt>
      <trkpt lat="48.0942" lon="-2.77717">
        <ele>72</ele>
        <time>2021-08-08T12:25:29Z</time>
      </trkpt>
      <trkpt lat="48.09425" lon="-2.77715">
        <ele>72</ele>
        <time>2021-08-08T12:25:30Z</time>
      </trkpt>
      <trkpt lat="48.0943" lon="-2.77713">
        <ele>72</ele>
        <time>2021-08-08T12:25:31Z</time>
      </trkpt>
      <trkpt lat="48.09435" lon="-2.77711">
        <ele>72</ele>
        <time>2021-08-08T12:25:32Z</time>
      </trkpt>
      <trkpt lat="48.09439" lon="-2.7771">
        <ele>72</ele>
        <time>2021-08-08T12:25:33Z</time>
      </trkpt>
      <trkpt lat="48.09444" lon="-2.77708">
        <ele>72</ele>
        <time>2021-08-08T12:25:34Z</time>
      </trkpt>
      <trkpt lat="48.09449" lon="-2.77707">
        <ele>72</ele>
        <time>2021-08-08T12:25:35Z</time>
      </trkpt>
      <trkpt lat="48.09453" lon="-2.77707">
        <ele>72</ele>
        <time>2021-08-08T12:25:36Z</time>
      </trkpt>
      <trkpt lat="48.09457" lon="-2.77706">
        <ele>72</ele>
        <time>2021-08-08T12:25:37Z</time>
      </trkpt>
      <trkpt lat="48.09461" lon="-2.77705">
        <ele>72.2</ele>
        <time>2021-08-08T12:25:38Z</time>
      </trkpt>
      <trkpt lat="48.09465" lon="-2.77705">
        <ele>72.2</ele>
        <time>2021-08-08T12:25:39Z</time>
      </trkpt>
      <trkpt lat="48.09468" lon="-2.77705">
        <ele>72.2</ele>
        <time>2021-08-08T12:25:40Z</time>
      </trkpt>
      <trkpt lat="48.09471" lon="-2.77702">
        <ele>72.2</ele>
        <time>2021-08-08T12:25:41Z</time>
      </trkpt>
      <trkpt lat="48.09472" lon="-2.77699">
        <ele>72.2</ele>
        <time>2021-08-08T12:25:42Z</time>
      </trkpt>
      <trkpt lat="48.09473" lon="-2.77695">
        <ele>72.6</ele>
        <time>2021-08-08T12:25:43Z</time>
      </trkpt>
      <trkpt lat="48.09473" lon="-2.77691">
        <ele>73</ele>
        <time>2021-08-08T12:25:44Z</time>
      </trkpt>
      <trkpt lat="48.09474" lon="-2.77687">
        <ele>73.4</ele>
        <time>2021-08-08T12:25:45Z</time>
      </trkpt>
      <trkpt lat="48.09475" lon="-2.77682">
        <ele>73.6</ele>
        <time>2021-08-08T12:25:46Z</time>
      </trkpt>
      <trkpt lat="48.09476" lon="-2.77677">
        <ele>73.8</ele>
        <time>2021-08-08T12:25:47Z</time>
      </trkpt>
      <trkpt lat="48.09479" lon="-2.77674">
        <ele>73.8</ele>
        <time>2021-08-08T12:25:48Z</time>
      </trkpt>
      <trkpt lat="48.09483" lon="-2.77672">
        <ele>73.8</ele>
        <time>2021-08-08T12:25:49Z</time>
      </trkpt>
      <trkpt lat="48.09487" lon="-2.77672">
        <ele>73.8</ele>
        <time>2021-08-08T12:25:50Z</time>
      </trkpt>
      <trkpt lat="48.09491" lon="-2.77672">
        <ele>73.8</ele>
        <time>2021-08-08T12:25:51Z</time>
      </trkpt>
      <trkpt lat="48.09496" lon="-2.77672">
        <ele>74</ele>
        <time>2021-08-08T12:25:52Z</time>
      </trkpt>
      <trkpt lat="48.095" lon="-2.77672">
        <ele>74</ele>
        <time>2021-08-08T12:25:53Z</time>
      </trkpt>
      <trkpt lat="48.09505" lon="-2.77672">
        <ele>74</ele>
        <time>2021-08-08T12:25:54Z</time>
      </trkpt>
      <trkpt lat="48.0951" lon="-2.77672">
        <ele>73.8</ele>
        <time>2021-08-08T12:25:55Z</time>
      </trkpt>
      <trkpt lat="48.09515" lon="-2.77672">
        <ele>73.8</ele>
        <time>2021-08-08T12:25:56Z</time>
      </trkpt>
      <trkpt lat="48.0952" lon="-2.77672">
        <ele>73.8</ele>
        <time>2021-08-08T12:25:57Z</time>
      </trkpt>
      <trkpt lat="48.09525" lon="-2.77672">
        <ele>73.4</ele>
        <time>2021-08-08T12:25:58Z</time>
      </trkpt>
      <trkpt lat="48.0953" lon="-2.77672">
        <ele>73.4</ele>
        <time>2021-08-08T12:25:59Z</time>
      </trkpt>
      <trkpt lat="48.09535" lon="-2.77673">
        <ele>73.2</ele>
        <time>2021-08-08T12:26:00Z</time>
      </trkpt>
      <trkpt lat="48.09541" lon="-2.77673">
        <ele>73</ele>
        <time>2021-08-08T12:26:01Z</time>
      </trkpt>
      <trkpt lat="48.09546" lon="-2.77673">
        <ele>73</ele>
        <time>2021-08-08T12:26:02Z</time>
      </trkpt>
      <trkpt lat="48.0955" lon="-2.77672">
        <ele>73</ele>
        <time>2021-08-08T12:26:03Z</time>
      </trkpt>
      <trkpt lat="48.09555" lon="-2.77673">
        <ele>73</ele>
        <time>2021-08-08T12:26:04Z</time>
      </trkpt>
      <trkpt lat="48.09559" lon="-2.77673">
        <ele>73</ele>
        <time>2021-08-08T12:26:05Z</time>
      </trkpt>
      <trkpt lat="48.09564" lon="-2.77673">
        <ele>73</ele>
        <time>2021-08-08T12:26:06Z</time>
      </trkpt>
      <trkpt lat="48.09568" lon="-2.77673">
        <ele>73</ele>
        <time>2021-08-08T12:26:07Z</time>
      </trkpt>
      <trkpt lat="48.09574" lon="-2.77673">
        <ele>73</ele>
        <time>2021-08-08T12:26:08Z</time>
      </trkpt>
      <trkpt lat="48.09579" lon="-2.77673">
        <ele>73</ele>
        <time>2021-08-08T12:26:09Z</time>
      </trkpt>
      <trkpt lat="48.09584" lon="-2.77674">
        <ele>72.8</ele>
        <time>2021-08-08T12:26:10Z</time>
      </trkpt>
      <trkpt lat="48.0959" lon="-2.77675">
        <ele>72.8</ele>
        <time>2021-08-08T12:26:11Z</time>
      </trkpt>
      <trkpt lat="48.09595" lon="-2.77677">
        <ele>72.8</ele>
        <time>2021-08-08T12:26:12Z</time>
      </trkpt>
      <trkpt lat="48.09601" lon="-2.77678">
        <ele>72.8</ele>
        <time>2021-08-08T12:26:13Z</time>
      </trkpt>
      <trkpt lat="48.09606" lon="-2.7768">
        <ele>72.8</ele>
        <time>2021-08-08T12:26:14Z</time>
      </trkpt>
      <trkpt lat="48.09611" lon="-2.77683">
        <ele>72.8</ele>
        <time>2021-08-08T12:26:15Z</time>
      </trkpt>
      <trkpt lat="48.09616" lon="-2.77685">
        <ele>72.8</ele>
        <time>2021-08-08T12:26:16Z</time>
      </trkpt>
      <trkpt lat="48.09621" lon="-2.77687">
        <ele>72.8</ele>
        <time>2021-08-08T12:26:17Z</time>
      </trkpt>
      <trkpt lat="48.09626" lon="-2.77689">
        <ele>72.8</ele>
        <time>2021-08-08T12:26:18Z</time>
      </trkpt>
      <trkpt lat="48.09631" lon="-2.77692">
        <ele>72.8</ele>
        <time>2021-08-08T12:26:19Z</time>
      </trkpt>
      <trkpt lat="48.09636" lon="-2.77694">
        <ele>72.8</ele>
        <time>2021-08-08T12:26:20Z</time>
      </trkpt>
      <trkpt lat="48.0964" lon="-2.77697">
        <ele>72.8</ele>
        <time>2021-08-08T12:26:21Z</time>
      </trkpt>
      <trkpt lat="48.09645" lon="-2.777">
        <ele>72.8</ele>
        <time>2021-08-08T12:26:22Z</time>
      </trkpt>
      <trkpt lat="48.0965" lon="-2.77703">
        <ele>72.8</ele>
        <time>2021-08-08T12:26:23Z</time>
      </trkpt>
      <trkpt lat="48.09654" lon="-2.77706">
        <ele>72.8</ele>
        <time>2021-08-08T12:26:24Z</time>
      </trkpt>
      <trkpt lat="48.09659" lon="-2.77709">
        <ele>72.8</ele>
        <time>2021-08-08T12:26:25Z</time>
      </trkpt>
      <trkpt lat="48.09663" lon="-2.77712">
        <ele>72.8</ele>
        <time>2021-08-08T12:26:26Z</time>
      </trkpt>
      <trkpt lat="48.09668" lon="-2.77716">
        <ele>72.6</ele>
        <time>2021-08-08T12:26:27Z</time>
      </trkpt>
      <trkpt lat="48.09672" lon="-2.77719">
        <ele>72.6</ele>
        <time>2021-08-08T12:26:28Z</time>
      </trkpt>
      <trkpt lat="48.09677" lon="-2.77722">
        <ele>72.6</ele>
        <time>2021-08-08T12:26:29Z</time>
      </trkpt>
      <trkpt lat="48.09681" lon="-2.77726">
        <ele>72.6</ele>
        <time>2021-08-08T12:26:30Z</time>
      </trkpt>
      <trkpt lat="48.09684" lon="-2.77729">
        <ele>72.8</ele>
        <time>2021-08-08T12:26:31Z</time>
      </trkpt>
      <trkpt lat="48.09688" lon="-2.77732">
        <ele>72.8</ele>
        <time>2021-08-08T12:26:32Z</time>
      </trkpt>
      <trkpt lat="48.09693" lon="-2.77736">
        <ele>72.8</ele>
        <time>2021-08-08T12:26:33Z</time>
      </trkpt>
      <trkpt lat="48.09697" lon="-2.77741">
        <ele>72.8</ele>
        <time>2021-08-08T12:26:34Z</time>
      </trkpt>
      <trkpt lat="48.09701" lon="-2.77745">
        <ele>72.8</ele>
        <time>2021-08-08T12:26:35Z</time>
      </trkpt>
      <trkpt lat="48.09705" lon="-2.77749">
        <ele>73</ele>
        <time>2021-08-08T12:26:36Z</time>
      </trkpt>
      <trkpt lat="48.0971" lon="-2.77753">
        <ele>72.8</ele>
        <time>2021-08-08T12:26:37Z</time>
      </trkpt>
      <trkpt lat="48.09714" lon="-2.77757">
        <ele>72.8</ele>
        <time>2021-08-08T12:26:38Z</time>
      </trkpt>
      <trkpt lat="48.09718" lon="-2.77762">
        <ele>72.8</ele>
        <time>2021-08-08T12:26:39Z</time>
      </trkpt>
      <trkpt lat="48.09723" lon="-2.77767">
        <ele>72.8</ele>
        <time>2021-08-08T12:26:40Z</time>
      </trkpt>
      <trkpt lat="48.09727" lon="-2.77771">
        <ele>72.8</ele>
        <time>2021-08-08T12:26:41Z</time>
      </trkpt>
      <trkpt lat="48.09731" lon="-2.77776">
        <ele>72.8</ele>
        <time>2021-08-08T12:26:42Z</time>
      </trkpt>
      <trkpt lat="48.09736" lon="-2.7778">
        <ele>73</ele>
        <time>2021-08-08T12:26:43Z</time>
      </trkpt>
      <trkpt lat="48.0974" lon="-2.77785">
        <ele>73</ele>
        <time>2021-08-08T12:26:44Z</time>
      </trkpt>
      <trkpt lat="48.09744" lon="-2.77789">
        <ele>73</ele>
        <time>2021-08-08T12:26:45Z</time>
      </trkpt>
      <trkpt lat="48.09748" lon="-2.77793">
        <ele>73</ele>
        <time>2021-08-08T12:26:46Z</time>
      </trkpt>
      <trkpt lat="48.09753" lon="-2.77798">
        <ele>73</ele>
        <time>2021-08-08T12:26:47Z</time>
      </trkpt>
      <trkpt lat="48.09757" lon="-2.77802">
        <ele>73</ele>
        <time>2021-08-08T12:26:48Z</time>
      </trkpt>
      <trkpt lat="48.09761" lon="-2.77806">
        <ele>73</ele>
        <time>2021-08-08T12:26:49Z</time>
      </trkpt>
      <trkpt lat="48.09765" lon="-2.7781">
        <ele>73</ele>
        <time>2021-08-08T12:26:50Z</time>
      </trkpt>
      <trkpt lat="48.09769" lon="-2.77814">
        <ele>72.8</ele>
        <time>2021-08-08T12:26:51Z</time>
      </trkpt>
      <trkpt lat="48.09773" lon="-2.77818">
        <ele>72.8</ele>
        <time>2021-08-08T12:26:52Z</time>
      </trkpt>
      <trkpt lat="48.09777" lon="-2.77822">
        <ele>72.8</ele>
        <time>2021-08-08T12:26:53Z</time>
      </trkpt>
      <trkpt lat="48.09781" lon="-2.77826">
        <ele>72.8</ele>
        <time>2021-08-08T12:26:54Z</time>
      </trkpt>
      <trkpt lat="48.09785" lon="-2.7783">
        <ele>72.8</ele>
        <time>2021-08-08T12:26:55Z</time>
      </trkpt>
      <trkpt lat="48.09789" lon="-2.77834">
        <ele>72.8</ele>
        <time>2021-08-08T12:26:56Z</time>
      </trkpt>
      <trkpt lat="48.09793" lon="-2.77838">
        <ele>72.8</ele>
        <time>2021-08-08T12:26:57Z</time>
      </trkpt>
      <trkpt lat="48.09797" lon="-2.77842">
        <ele>72.8</ele>
        <time>2021-08-08T12:26:58Z</time>
      </trkpt>
      <trkpt lat="48.09801" lon="-2.77847">
        <ele>72.8</ele>
        <time>2021-08-08T12:26:59Z</time>
      </trkpt>
      <trkpt lat="48.09805" lon="-2.77852">
        <ele>72.6</ele>
        <time>2021-08-08T12:27:00Z</time>
      </trkpt>
      <trkpt lat="48.09809" lon="-2.77856">
        <ele>72.6</ele>
        <time>2021-08-08T12:27:01Z</time>
      </trkpt>
      <trkpt lat="48.09813" lon="-2.77861">
        <ele>72.6</ele>
        <time>2021-08-08T12:27:02Z</time>
      </trkpt>
      <trkpt lat="48.09818" lon="-2.77866">
        <ele>72.6</ele>
        <time>2021-08-08T12:27:03Z</time>
      </trkpt>
      <trkpt lat="48.09822" lon="-2.7787">
        <ele>72.4</ele>
        <time>2021-08-08T12:27:04Z</time>
      </trkpt>
      <trkpt lat="48.09825" lon="-2.77874">
        <ele>72.4</ele>
        <time>2021-08-08T12:27:05Z</time>
      </trkpt>
      <trkpt lat="48.09829" lon="-2.77879">
        <ele>72.4</ele>
        <time>2021-08-08T12:27:06Z</time>
      </trkpt>
      <trkpt lat="48.09833" lon="-2.77883">
        <ele>72.4</ele>
        <time>2021-08-08T12:27:07Z</time>
      </trkpt>
      <trkpt lat="48.09838" lon="-2.77887">
        <ele>72.4</ele>
        <time>2021-08-08T12:27:08Z</time>
      </trkpt>
      <trkpt lat="48.09842" lon="-2.77891">
        <ele>72.4</ele>
        <time>2021-08-08T12:27:09Z</time>
      </trkpt>
      <trkpt lat="48.09847" lon="-2.77895">
        <ele>72.2</ele>
        <time>2021-08-08T12:27:10Z</time>
      </trkpt>
      <trkpt lat="48.09851" lon="-2.77899">
        <ele>72</ele>
        <time>2021-08-08T12:27:11Z</time>
      </trkpt>
      <trkpt lat="48.09856" lon="-2.77903">
        <ele>71.8</ele>
        <time>2021-08-08T12:27:12Z</time>
      </trkpt>
      <trkpt lat="48.09861" lon="-2.77907">
        <ele>71.8</ele>
        <time>2021-08-08T12:27:13Z</time>
      </trkpt>
      <trkpt lat="48.09866" lon="-2.7791">
        <ele>71.8</ele>
        <time>2021-08-08T12:27:14Z</time>
      </trkpt>
      <trkpt lat="48.09871" lon="-2.77913">
        <ele>71.8</ele>
        <time>2021-08-08T12:27:15Z</time>
      </trkpt>
      <trkpt lat="48.09875" lon="-2.77917">
        <ele>71.8</ele>
        <time>2021-08-08T12:27:16Z</time>
      </trkpt>
      <trkpt lat="48.0988" lon="-2.7792">
        <ele>71.8</ele>
        <time>2021-08-08T12:27:17Z</time>
      </trkpt>
      <trkpt lat="48.09885" lon="-2.77923">
        <ele>71.8</ele>
        <time>2021-08-08T12:27:18Z</time>
      </trkpt>
      <trkpt lat="48.0989" lon="-2.77926">
        <ele>71.8</ele>
        <time>2021-08-08T12:27:19Z</time>
      </trkpt>
      <trkpt lat="48.09895" lon="-2.77928">
        <ele>71.8</ele>
        <time>2021-08-08T12:27:20Z</time>
      </trkpt>
      <trkpt lat="48.09899" lon="-2.77929">
        <ele>71.8</ele>
        <time>2021-08-08T12:27:21Z</time>
      </trkpt>
      <trkpt lat="48.09904" lon="-2.77931">
        <ele>72</ele>
        <time>2021-08-08T12:27:22Z</time>
      </trkpt>
      <trkpt lat="48.09909" lon="-2.77932">
        <ele>72</ele>
        <time>2021-08-08T12:27:23Z</time>
      </trkpt>
      <trkpt lat="48.09915" lon="-2.77934">
        <ele>72</ele>
        <time>2021-08-08T12:27:24Z</time>
      </trkpt>
      <trkpt lat="48.0992" lon="-2.77935">
        <ele>72.2</ele>
        <time>2021-08-08T12:27:25Z</time>
      </trkpt>
      <trkpt lat="48.09925" lon="-2.77936">
        <ele>72.2</ele>
        <time>2021-08-08T12:27:26Z</time>
      </trkpt>
      <trkpt lat="48.09931" lon="-2.77938">
        <ele>72.2</ele>
        <time>2021-08-08T12:27:27Z</time>
      </trkpt>
      <trkpt lat="48.09936" lon="-2.7794">
        <ele>72.2</ele>
        <time>2021-08-08T12:27:28Z</time>
      </trkpt>
      <trkpt lat="48.09941" lon="-2.77941">
        <ele>72.2</ele>
        <time>2021-08-08T12:27:29Z</time>
      </trkpt>
      <trkpt lat="48.09946" lon="-2.77942">
        <ele>72.2</ele>
        <time>2021-08-08T12:27:30Z</time>
      </trkpt>
      <trkpt lat="48.09951" lon="-2.77944">
        <ele>72.2</ele>
        <time>2021-08-08T12:27:31Z</time>
      </trkpt>
      <trkpt lat="48.09957" lon="-2.77945">
        <ele>72.2</ele>
        <time>2021-08-08T12:27:32Z</time>
      </trkpt>
      <trkpt lat="48.09962" lon="-2.77947">
        <ele>72.2</ele>
        <time>2021-08-08T12:27:33Z</time>
      </trkpt>
      <trkpt lat="48.09968" lon="-2.77948">
        <ele>72.2</ele>
        <time>2021-08-08T12:27:34Z</time>
      </trkpt>
      <trkpt lat="48.09973" lon="-2.77949">
        <ele>72.2</ele>
        <time>2021-08-08T12:27:35Z</time>
      </trkpt>
      <trkpt lat="48.09979" lon="-2.7795">
        <ele>72.2</ele>
        <time>2021-08-08T12:27:36Z</time>
      </trkpt>
      <trkpt lat="48.09984" lon="-2.77951">
        <ele>72.2</ele>
        <time>2021-08-08T12:27:37Z</time>
      </trkpt>
      <trkpt lat="48.0999" lon="-2.77953">
        <ele>72.4</ele>
        <time>2021-08-08T12:27:38Z</time>
      </trkpt>
      <trkpt lat="48.09995" lon="-2.77954">
        <ele>72.4</ele>
        <time>2021-08-08T12:27:39Z</time>
      </trkpt>
      <trkpt lat="48.10001" lon="-2.77956">
        <ele>72.4</ele>
        <time>2021-08-08T12:27:40Z</time>
      </trkpt>
      <trkpt lat="48.10006" lon="-2.77957">
        <ele>72.4</ele>
        <time>2021-08-08T12:27:41Z</time>
      </trkpt>
      <trkpt lat="48.10011" lon="-2.77957">
        <ele>72.4</ele>
        <time>2021-08-08T12:27:42Z</time>
      </trkpt>
      <trkpt lat="48.10017" lon="-2.77958">
        <ele>72.4</ele>
        <time>2021-08-08T12:27:43Z</time>
      </trkpt>
      <trkpt lat="48.10022" lon="-2.77959">
        <ele>72.4</ele>
        <time>2021-08-08T12:27:44Z</time>
      </trkpt>
      <trkpt lat="48.10027" lon="-2.77961">
        <ele>72.4</ele>
        <time>2021-08-08T12:27:45Z</time>
      </trkpt>
      <trkpt lat="48.10032" lon="-2.77962">
        <ele>72.4</ele>
        <time>2021-08-08T12:27:46Z</time>
      </trkpt>
      <trkpt lat="48.10037" lon="-2.77964">
        <ele>72.6</ele>
        <time>2021-08-08T12:27:47Z</time>
      </trkpt>
      <trkpt lat="48.10042" lon="-2.77965">
        <ele>72.6</ele>
        <time>2021-08-08T12:27:48Z</time>
      </trkpt>
      <trkpt lat="48.10047" lon="-2.77967">
        <ele>72.6</ele>
        <time>2021-08-08T12:27:49Z</time>
      </trkpt>
      <trkpt lat="48.10052" lon="-2.77969">
        <ele>72.6</ele>
        <time>2021-08-08T12:27:50Z</time>
      </trkpt>
      <trkpt lat="48.10057" lon="-2.77971">
        <ele>72.6</ele>
        <time>2021-08-08T12:27:51Z</time>
      </trkpt>
      <trkpt lat="48.10063" lon="-2.77972">
        <ele>72.6</ele>
        <time>2021-08-08T12:27:52Z</time>
      </trkpt>
      <trkpt lat="48.10068" lon="-2.77973">
        <ele>72.6</ele>
        <time>2021-08-08T12:27:53Z</time>
      </trkpt>
      <trkpt lat="48.10073" lon="-2.77975">
        <ele>72.6</ele>
        <time>2021-08-08T12:27:54Z</time>
      </trkpt>
      <trkpt lat="48.10079" lon="-2.77975">
        <ele>72.6</ele>
        <time>2021-08-08T12:27:55Z</time>
      </trkpt>
      <trkpt lat="48.10085" lon="-2.77976">
        <ele>72.6</ele>
        <time>2021-08-08T12:27:56Z</time>
      </trkpt>
      <trkpt lat="48.1009" lon="-2.77977">
        <ele>72.6</ele>
        <time>2021-08-08T12:27:57Z</time>
      </trkpt>
      <trkpt lat="48.10096" lon="-2.77979">
        <ele>72.6</ele>
        <time>2021-08-08T12:27:58Z</time>
      </trkpt>
      <trkpt lat="48.10101" lon="-2.7798">
        <ele>72.6</ele>
        <time>2021-08-08T12:27:59Z</time>
      </trkpt>
      <trkpt lat="48.10107" lon="-2.77981">
        <ele>72.6</ele>
        <time>2021-08-08T12:28:00Z</time>
      </trkpt>
      <trkpt lat="48.10112" lon="-2.77981">
        <ele>72.6</ele>
        <time>2021-08-08T12:28:01Z</time>
      </trkpt>
      <trkpt lat="48.10118" lon="-2.77982">
        <ele>72.6</ele>
        <time>2021-08-08T12:28:02Z</time>
      </trkpt>
      <trkpt lat="48.10124" lon="-2.77984">
        <ele>72.6</ele>
        <time>2021-08-08T12:28:03Z</time>
      </trkpt>
      <trkpt lat="48.1013" lon="-2.77985">
        <ele>72.4</ele>
        <time>2021-08-08T12:28:04Z</time>
      </trkpt>
      <trkpt lat="48.10135" lon="-2.77986">
        <ele>72.4</ele>
        <time>2021-08-08T12:28:05Z</time>
      </trkpt>
      <trkpt lat="48.10141" lon="-2.77988">
        <ele>72.4</ele>
        <time>2021-08-08T12:28:06Z</time>
      </trkpt>
      <trkpt lat="48.10146" lon="-2.77989">
        <ele>72.4</ele>
        <time>2021-08-08T12:28:07Z</time>
      </trkpt>
      <trkpt lat="48.10151" lon="-2.7799">
        <ele>72.4</ele>
        <time>2021-08-08T12:28:08Z</time>
      </trkpt>
      <trkpt lat="48.10156" lon="-2.77991">
        <ele>72.4</ele>
        <time>2021-08-08T12:28:09Z</time>
      </trkpt>
      <trkpt lat="48.10161" lon="-2.77992">
        <ele>72.4</ele>
        <time>2021-08-08T12:28:10Z</time>
      </trkpt>
      <trkpt lat="48.10166" lon="-2.77993">
        <ele>72.4</ele>
        <time>2021-08-08T12:28:11Z</time>
      </trkpt>
      <trkpt lat="48.10172" lon="-2.77995">
        <ele>72.2</ele>
        <time>2021-08-08T12:28:12Z</time>
      </trkpt>
      <trkpt lat="48.10177" lon="-2.77996">
        <ele>72.2</ele>
        <time>2021-08-08T12:28:13Z</time>
      </trkpt>
      <trkpt lat="48.10183" lon="-2.77998">
        <ele>72.2</ele>
        <time>2021-08-08T12:28:14Z</time>
      </trkpt>
      <trkpt lat="48.10189" lon="-2.77999">
        <ele>72.2</ele>
        <time>2021-08-08T12:28:15Z</time>
      </trkpt>
      <trkpt lat="48.10194" lon="-2.78001">
        <ele>72.2</ele>
        <time>2021-08-08T12:28:16Z</time>
      </trkpt>
      <trkpt lat="48.102" lon="-2.78002">
        <ele>72</ele>
        <time>2021-08-08T12:28:17Z</time>
      </trkpt>
      <trkpt lat="48.10205" lon="-2.78002">
        <ele>72</ele>
        <time>2021-08-08T12:28:18Z</time>
      </trkpt>
      <trkpt lat="48.10211" lon="-2.78003">
        <ele>72</ele>
        <time>2021-08-08T12:28:19Z</time>
      </trkpt>
      <trkpt lat="48.10216" lon="-2.78004">
        <ele>72.2</ele>
        <time>2021-08-08T12:28:20Z</time>
      </trkpt>
      <trkpt lat="48.1022" lon="-2.78005">
        <ele>72.2</ele>
        <time>2021-08-08T12:28:21Z</time>
      </trkpt>
      <trkpt lat="48.10225" lon="-2.78005">
        <ele>72.2</ele>
        <time>2021-08-08T12:28:22Z</time>
      </trkpt>
      <trkpt lat="48.10229" lon="-2.78006">
        <ele>72.4</ele>
        <time>2021-08-08T12:28:23Z</time>
      </trkpt>
      <trkpt lat="48.10232" lon="-2.78006">
        <ele>72.4</ele>
        <time>2021-08-08T12:28:24Z</time>
      </trkpt>
      <trkpt lat="48.10236" lon="-2.78007">
        <ele>72.4</ele>
        <time>2021-08-08T12:28:25Z</time>
      </trkpt>
      <trkpt lat="48.1024" lon="-2.78008">
        <ele>72.4</ele>
        <time>2021-08-08T12:28:26Z</time>
      </trkpt>
      <trkpt lat="48.10243" lon="-2.78009">
        <ele>72.4</ele>
        <time>2021-08-08T12:28:27Z</time>
      </trkpt>
      <trkpt lat="48.10247" lon="-2.7801">
        <ele>72.4</ele>
        <time>2021-08-08T12:28:28Z</time>
      </trkpt>
      <trkpt lat="48.10251" lon="-2.7801">
        <ele>72.6</ele>
        <time>2021-08-08T12:28:29Z</time>
      </trkpt>
      <trkpt lat="48.10255" lon="-2.78011">
        <ele>72.8</ele>
        <time>2021-08-08T12:28:30Z</time>
      </trkpt>
      <trkpt lat="48.10259" lon="-2.78011">
        <ele>72.8</ele>
        <time>2021-08-08T12:28:31Z</time>
      </trkpt>
      <trkpt lat="48.10263" lon="-2.78012">
        <ele>73</ele>
        <time>2021-08-08T12:28:32Z</time>
      </trkpt>
      <trkpt lat="48.10268" lon="-2.78013">
        <ele>73</ele>
        <time>2021-08-08T12:28:33Z</time>
      </trkpt>
      <trkpt lat="48.10272" lon="-2.78013">
        <ele>73</ele>
        <time>2021-08-08T12:28:34Z</time>
      </trkpt>
      <trkpt lat="48.10277" lon="-2.78014">
        <ele>73</ele>
        <time>2021-08-08T12:28:35Z</time>
      </trkpt>
      <trkpt lat="48.10283" lon="-2.78014">
        <ele>73</ele>
        <time>2021-08-08T12:28:36Z</time>
      </trkpt>
      <trkpt lat="48.10288" lon="-2.78014">
        <ele>73</ele>
        <time>2021-08-08T12:28:37Z</time>
      </trkpt>
      <trkpt lat="48.10293" lon="-2.78015">
        <ele>73</ele>
        <time>2021-08-08T12:28:38Z</time>
      </trkpt>
      <trkpt lat="48.10298" lon="-2.78016">
        <ele>73</ele>
        <time>2021-08-08T12:28:39Z</time>
      </trkpt>
      <trkpt lat="48.10302" lon="-2.78017">
        <ele>73</ele>
        <time>2021-08-08T12:28:40Z</time>
      </trkpt>
      <trkpt lat="48.10305" lon="-2.78018">
        <ele>73</ele>
        <time>2021-08-08T12:28:41Z</time>
      </trkpt>
      <trkpt lat="48.10309" lon="-2.78018">
        <ele>73</ele>
        <time>2021-08-08T12:28:42Z</time>
      </trkpt>
      <trkpt lat="48.10312" lon="-2.7802">
        <ele>73</ele>
        <time>2021-08-08T12:28:43Z</time>
      </trkpt>
      <trkpt lat="48.10316" lon="-2.78021">
        <ele>73</ele>
        <time>2021-08-08T12:28:44Z</time>
      </trkpt>
      <trkpt lat="48.1032" lon="-2.78022">
        <ele>73</ele>
        <time>2021-08-08T12:28:45Z</time>
      </trkpt>
      <trkpt lat="48.10324" lon="-2.78023">
        <ele>73</ele>
        <time>2021-08-08T12:28:46Z</time>
      </trkpt>
      <trkpt lat="48.10328" lon="-2.78024">
        <ele>73</ele>
        <time>2021-08-08T12:28:47Z</time>
      </trkpt>
      <trkpt lat="48.10332" lon="-2.78025">
        <ele>73</ele>
        <time>2021-08-08T12:28:48Z</time>
      </trkpt>
      <trkpt lat="48.10337" lon="-2.78026">
        <ele>73</ele>
        <time>2021-08-08T12:28:49Z</time>
      </trkpt>
      <trkpt lat="48.10341" lon="-2.78026">
        <ele>73</ele>
        <time>2021-08-08T12:28:50Z</time>
      </trkpt>
      <trkpt lat="48.10345" lon="-2.78027">
        <ele>73.2</ele>
        <time>2021-08-08T12:28:51Z</time>
      </trkpt>
      <trkpt lat="48.10349" lon="-2.78028">
        <ele>73.4</ele>
        <time>2021-08-08T12:28:52Z</time>
      </trkpt>
      <trkpt lat="48.10353" lon="-2.78028">
        <ele>73.6</ele>
        <time>2021-08-08T12:28:53Z</time>
      </trkpt>
      <trkpt lat="48.10357" lon="-2.78029">
        <ele>74</ele>
        <time>2021-08-08T12:28:54Z</time>
      </trkpt>
      <trkpt lat="48.10362" lon="-2.7803">
        <ele>74</ele>
        <time>2021-08-08T12:28:55Z</time>
      </trkpt>
      <trkpt lat="48.10366" lon="-2.7803">
        <ele>74.2</ele>
        <time>2021-08-08T12:28:56Z</time>
      </trkpt>
      <trkpt lat="48.10371" lon="-2.78031">
        <ele>74.2</ele>
        <time>2021-08-08T12:28:57Z</time>
      </trkpt>
      <trkpt lat="48.10375" lon="-2.78032">
        <ele>74.4</ele>
        <time>2021-08-08T12:28:58Z</time>
      </trkpt>
      <trkpt lat="48.1038" lon="-2.78033">
        <ele>74.6</ele>
        <time>2021-08-08T12:28:59Z</time>
      </trkpt>
      <trkpt lat="48.10385" lon="-2.78034">
        <ele>74.8</ele>
        <time>2021-08-08T12:29:00Z</time>
      </trkpt>
      <trkpt lat="48.1039" lon="-2.78035">
        <ele>75</ele>
        <time>2021-08-08T12:29:01Z</time>
      </trkpt>
      <trkpt lat="48.10395" lon="-2.78036">
        <ele>75</ele>
        <time>2021-08-08T12:29:02Z</time>
      </trkpt>
      <trkpt lat="48.104" lon="-2.78038">
        <ele>75</ele>
        <time>2021-08-08T12:29:03Z</time>
      </trkpt>
      <trkpt lat="48.10405" lon="-2.7804">
        <ele>75</ele>
        <time>2021-08-08T12:29:04Z</time>
      </trkpt>
      <trkpt lat="48.1041" lon="-2.78042">
        <ele>75.2</ele>
        <time>2021-08-08T12:29:05Z</time>
      </trkpt>
      <trkpt lat="48.10416" lon="-2.78044">
        <ele>75.2</ele>
        <time>2021-08-08T12:29:06Z</time>
      </trkpt>
      <trkpt lat="48.10421" lon="-2.78045">
        <ele>75.2</ele>
        <time>2021-08-08T12:29:07Z</time>
      </trkpt>
      <trkpt lat="48.10427" lon="-2.78046">
        <ele>75.2</ele>
        <time>2021-08-08T12:29:08Z</time>
      </trkpt>
      <trkpt lat="48.10433" lon="-2.78047">
        <ele>75.2</ele>
        <time>2021-08-08T12:29:09Z</time>
      </trkpt>
      <trkpt lat="48.10438" lon="-2.78049">
        <ele>75.2</ele>
        <time>2021-08-08T12:29:10Z</time>
      </trkpt>
      <trkpt lat="48.10443" lon="-2.7805">
        <ele>75.2</ele>
        <time>2021-08-08T12:29:11Z</time>
      </trkpt>
      <trkpt lat="48.10449" lon="-2.78051">
        <ele>75</ele>
        <time>2021-08-08T12:29:12Z</time>
      </trkpt>
      <trkpt lat="48.10454" lon="-2.78052">
        <ele>75</ele>
        <time>2021-08-08T12:29:13Z</time>
      </trkpt>
      <trkpt lat="48.10459" lon="-2.78054">
        <ele>75</ele>
        <time>2021-08-08T12:29:14Z</time>
      </trkpt>
      <trkpt lat="48.10465" lon="-2.78055">
        <ele>74.8</ele>
        <time>2021-08-08T12:29:15Z</time>
      </trkpt>
      <trkpt lat="48.1047" lon="-2.78056">
        <ele>74.8</ele>
        <time>2021-08-08T12:29:16Z</time>
      </trkpt>
      <trkpt lat="48.10476" lon="-2.78058">
        <ele>74.6</ele>
        <time>2021-08-08T12:29:17Z</time>
      </trkpt>
      <trkpt lat="48.10481" lon="-2.7806">
        <ele>74.6</ele>
        <time>2021-08-08T12:29:18Z</time>
      </trkpt>
      <trkpt lat="48.10487" lon="-2.78062">
        <ele>74.6</ele>
        <time>2021-08-08T12:29:19Z</time>
      </trkpt>
      <trkpt lat="48.10492" lon="-2.78063">
        <ele>74.6</ele>
        <time>2021-08-08T12:29:20Z</time>
      </trkpt>
      <trkpt lat="48.10497" lon="-2.78065">
        <ele>74.6</ele>
        <time>2021-08-08T12:29:21Z</time>
      </trkpt>
      <trkpt lat="48.10502" lon="-2.78067">
        <ele>74.6</ele>
        <time>2021-08-08T12:29:22Z</time>
      </trkpt>
      <trkpt lat="48.10508" lon="-2.78069">
        <ele>74.6</ele>
        <time>2021-08-08T12:29:23Z</time>
      </trkpt>
      <trkpt lat="48.10513" lon="-2.78071">
        <ele>74.6</ele>
        <time>2021-08-08T12:29:24Z</time>
      </trkpt>
      <trkpt lat="48.10518" lon="-2.78074">
        <ele>74.6</ele>
        <time>2021-08-08T12:29:25Z</time>
      </trkpt>
      <trkpt lat="48.10523" lon="-2.78078">
        <ele>74.8</ele>
        <time>2021-08-08T12:29:26Z</time>
      </trkpt>
      <trkpt lat="48.10528" lon="-2.78082">
        <ele>74.8</ele>
        <time>2021-08-08T12:29:27Z</time>
      </trkpt>
      <trkpt lat="48.10533" lon="-2.78087">
        <ele>75</ele>
        <time>2021-08-08T12:29:28Z</time>
      </trkpt>
      <trkpt lat="48.10537" lon="-2.78092">
        <ele>75</ele>
        <time>2021-08-08T12:29:29Z</time>
      </trkpt>
      <trkpt lat="48.10542" lon="-2.78097">
        <ele>75</ele>
        <time>2021-08-08T12:29:30Z</time>
      </trkpt>
      <trkpt lat="48.10546" lon="-2.78102">
        <ele>75</ele>
        <time>2021-08-08T12:29:31Z</time>
      </trkpt>
      <trkpt lat="48.10549" lon="-2.78108">
        <ele>75</ele>
        <time>2021-08-08T12:29:32Z</time>
      </trkpt>
      <trkpt lat="48.10553" lon="-2.78114">
        <ele>75</ele>
        <time>2021-08-08T12:29:33Z</time>
      </trkpt>
      <trkpt lat="48.10556" lon="-2.7812">
        <ele>75</ele>
        <time>2021-08-08T12:29:34Z</time>
      </trkpt>
      <trkpt lat="48.10559" lon="-2.78126">
        <ele>75</ele>
        <time>2021-08-08T12:29:35Z</time>
      </trkpt>
      <trkpt lat="48.10561" lon="-2.78132">
        <ele>75</ele>
        <time>2021-08-08T12:29:36Z</time>
      </trkpt>
      <trkpt lat="48.10564" lon="-2.78139">
        <ele>74.8</ele>
        <time>2021-08-08T12:29:37Z</time>
      </trkpt>
      <trkpt lat="48.10567" lon="-2.78145">
        <ele>74.8</ele>
        <time>2021-08-08T12:29:38Z</time>
      </trkpt>
      <trkpt lat="48.10569" lon="-2.78151">
        <ele>74.8</ele>
        <time>2021-08-08T12:29:39Z</time>
      </trkpt>
      <trkpt lat="48.10571" lon="-2.78157">
        <ele>74.8</ele>
        <time>2021-08-08T12:29:40Z</time>
      </trkpt>
      <trkpt lat="48.10573" lon="-2.78165">
        <ele>74.6</ele>
        <time>2021-08-08T12:29:41Z</time>
      </trkpt>
      <trkpt lat="48.10574" lon="-2.78172">
        <ele>74.6</ele>
        <time>2021-08-08T12:29:42Z</time>
      </trkpt>
      <trkpt lat="48.10576" lon="-2.7818">
        <ele>74.6</ele>
        <time>2021-08-08T12:29:43Z</time>
      </trkpt>
      <trkpt lat="48.10577" lon="-2.78188">
        <ele>74.6</ele>
        <time>2021-08-08T12:29:44Z</time>
      </trkpt>
      <trkpt lat="48.10578" lon="-2.78196">
        <ele>74.6</ele>
        <time>2021-08-08T12:29:45Z</time>
      </trkpt>
      <trkpt lat="48.10578" lon="-2.78204">
        <ele>74.4</ele>
        <time>2021-08-08T12:29:46Z</time>
      </trkpt>
      <trkpt lat="48.10577" lon="-2.78212">
        <ele>74.4</ele>
        <time>2021-08-08T12:29:47Z</time>
      </trkpt>
      <trkpt lat="48.10577" lon="-2.7822">
        <ele>74.4</ele>
        <time>2021-08-08T12:29:48Z</time>
      </trkpt>
      <trkpt lat="48.10576" lon="-2.78228">
        <ele>74.4</ele>
        <time>2021-08-08T12:29:49Z</time>
      </trkpt>
      <trkpt lat="48.10574" lon="-2.78235">
        <ele>74.4</ele>
        <time>2021-08-08T12:29:50Z</time>
      </trkpt>
      <trkpt lat="48.10573" lon="-2.78242">
        <ele>74.4</ele>
        <time>2021-08-08T12:29:51Z</time>
      </trkpt>
      <trkpt lat="48.10571" lon="-2.78249">
        <ele>74.4</ele>
        <time>2021-08-08T12:29:52Z</time>
      </trkpt>
      <trkpt lat="48.1057" lon="-2.78255">
        <ele>74.4</ele>
        <time>2021-08-08T12:29:53Z</time>
      </trkpt>
      <trkpt lat="48.10568" lon="-2.78261">
        <ele>74.4</ele>
        <time>2021-08-08T12:29:54Z</time>
      </trkpt>
      <trkpt lat="48.10567" lon="-2.78267">
        <ele>74.4</ele>
        <time>2021-08-08T12:29:55Z</time>
      </trkpt>
      <trkpt lat="48.10565" lon="-2.78273">
        <ele>74.4</ele>
        <time>2021-08-08T12:29:56Z</time>
      </trkpt>
      <trkpt lat="48.10563" lon="-2.78279">
        <ele>74.4</ele>
        <time>2021-08-08T12:29:57Z</time>
      </trkpt>
      <trkpt lat="48.10562" lon="-2.78285">
        <ele>74.4</ele>
        <time>2021-08-08T12:29:58Z</time>
      </trkpt>
      <trkpt lat="48.1056" lon="-2.78291">
        <ele>74.4</ele>
        <time>2021-08-08T12:29:59Z</time>
      </trkpt>
      <trkpt lat="48.10558" lon="-2.78299">
        <ele>74.4</ele>
        <time>2021-08-08T12:30:00Z</time>
      </trkpt>
      <trkpt lat="48.10556" lon="-2.78305">
        <ele>74.6</ele>
        <time>2021-08-08T12:30:01Z</time>
      </trkpt>
      <trkpt lat="48.10554" lon="-2.78312">
        <ele>74.8</ele>
        <time>2021-08-08T12:30:02Z</time>
      </trkpt>
      <trkpt lat="48.10552" lon="-2.78318">
        <ele>75</ele>
        <time>2021-08-08T12:30:03Z</time>
      </trkpt>
      <trkpt lat="48.1055" lon="-2.78325">
        <ele>75</ele>
        <time>2021-08-08T12:30:04Z</time>
      </trkpt>
      <trkpt lat="48.10548" lon="-2.78331">
        <ele>75.2</ele>
        <time>2021-08-08T12:30:05Z</time>
      </trkpt>
      <trkpt lat="48.10546" lon="-2.78337">
        <ele>75.4</ele>
        <time>2021-08-08T12:30:06Z</time>
      </trkpt>
      <trkpt lat="48.10544" lon="-2.78343">
        <ele>75.6</ele>
        <time>2021-08-08T12:30:07Z</time>
      </trkpt>
      <trkpt lat="48.10543" lon="-2.7835">
        <ele>75.8</ele>
        <time>2021-08-08T12:30:08Z</time>
      </trkpt>
      <trkpt lat="48.1054" lon="-2.78356">
        <ele>76.2</ele>
        <time>2021-08-08T12:30:09Z</time>
      </trkpt>
      <trkpt lat="48.10538" lon="-2.78363">
        <ele>76.4</ele>
        <time>2021-08-08T12:30:10Z</time>
      </trkpt>
      <trkpt lat="48.10536" lon="-2.7837">
        <ele>77</ele>
        <time>2021-08-08T12:30:11Z</time>
      </trkpt>
      <trkpt lat="48.10534" lon="-2.78377">
        <ele>77.2</ele>
        <time>2021-08-08T12:30:12Z</time>
      </trkpt>
      <trkpt lat="48.10531" lon="-2.78384">
        <ele>77.4</ele>
        <time>2021-08-08T12:30:13Z</time>
      </trkpt>
      <trkpt lat="48.10529" lon="-2.78392">
        <ele>77.4</ele>
        <time>2021-08-08T12:30:14Z</time>
      </trkpt>
      <trkpt lat="48.10527" lon="-2.78399">
        <ele>77.6</ele>
        <time>2021-08-08T12:30:15Z</time>
      </trkpt>
      <trkpt lat="48.10525" lon="-2.78406">
        <ele>77.6</ele>
        <time>2021-08-08T12:30:16Z</time>
      </trkpt>
      <trkpt lat="48.10523" lon="-2.78413">
        <ele>77.6</ele>
        <time>2021-08-08T12:30:17Z</time>
      </trkpt>
      <trkpt lat="48.10521" lon="-2.7842">
        <ele>77.6</ele>
        <time>2021-08-08T12:30:18Z</time>
      </trkpt>
      <trkpt lat="48.10519" lon="-2.78428">
        <ele>77.6</ele>
        <time>2021-08-08T12:30:19Z</time>
      </trkpt>
      <trkpt lat="48.10517" lon="-2.78435">
        <ele>77.6</ele>
        <time>2021-08-08T12:30:20Z</time>
      </trkpt>
      <trkpt lat="48.10515" lon="-2.78442">
        <ele>77.6</ele>
        <time>2021-08-08T12:30:21Z</time>
      </trkpt>
      <trkpt lat="48.10512" lon="-2.78449">
        <ele>77.6</ele>
        <time>2021-08-08T12:30:22Z</time>
      </trkpt>
      <trkpt lat="48.1051" lon="-2.78457">
        <ele>77.6</ele>
        <time>2021-08-08T12:30:23Z</time>
      </trkpt>
      <trkpt lat="48.10507" lon="-2.78465">
        <ele>77.6</ele>
        <time>2021-08-08T12:30:24Z</time>
      </trkpt>
      <trkpt lat="48.10505" lon="-2.78473">
        <ele>77.6</ele>
        <time>2021-08-08T12:30:25Z</time>
      </trkpt>
      <trkpt lat="48.10503" lon="-2.78481">
        <ele>77.6</ele>
        <time>2021-08-08T12:30:26Z</time>
      </trkpt>
      <trkpt lat="48.105" lon="-2.78488">
        <ele>77.6</ele>
        <time>2021-08-08T12:30:27Z</time>
      </trkpt>
      <trkpt lat="48.10498" lon="-2.78496">
        <ele>77.4</ele>
        <time>2021-08-08T12:30:28Z</time>
      </trkpt>
      <trkpt lat="48.10496" lon="-2.78503">
        <ele>77.4</ele>
        <time>2021-08-08T12:30:29Z</time>
      </trkpt>
      <trkpt lat="48.10494" lon="-2.78511">
        <ele>77.4</ele>
        <time>2021-08-08T12:30:30Z</time>
      </trkpt>
      <trkpt lat="48.10492" lon="-2.78519">
        <ele>77.2</ele>
        <time>2021-08-08T12:30:31Z</time>
      </trkpt>
      <trkpt lat="48.1049" lon="-2.78526">
        <ele>77.2</ele>
        <time>2021-08-08T12:30:32Z</time>
      </trkpt>
      <trkpt lat="48.10488" lon="-2.78533">
        <ele>77.2</ele>
        <time>2021-08-08T12:30:33Z</time>
      </trkpt>
      <trkpt lat="48.10485" lon="-2.7854">
        <ele>77.2</ele>
        <time>2021-08-08T12:30:34Z</time>
      </trkpt>
      <trkpt lat="48.10483" lon="-2.78548">
        <ele>77.2</ele>
        <time>2021-08-08T12:30:35Z</time>
      </trkpt>
      <trkpt lat="48.10481" lon="-2.78555">
        <ele>77.2</ele>
        <time>2021-08-08T12:30:36Z</time>
      </trkpt>
      <trkpt lat="48.10479" lon="-2.78561">
        <ele>77</ele>
        <time>2021-08-08T12:30:37Z</time>
      </trkpt>
      <trkpt lat="48.10477" lon="-2.78568">
        <ele>77</ele>
        <time>2021-08-08T12:30:38Z</time>
      </trkpt>
      <trkpt lat="48.10475" lon="-2.78574">
        <ele>76.8</ele>
        <time>2021-08-08T12:30:39Z</time>
      </trkpt>
      <trkpt lat="48.10474" lon="-2.78581">
        <ele>76.8</ele>
        <time>2021-08-08T12:30:40Z</time>
      </trkpt>
      <trkpt lat="48.10472" lon="-2.78588">
        <ele>76.8</ele>
        <time>2021-08-08T12:30:41Z</time>
      </trkpt>
      <trkpt lat="48.10471" lon="-2.78596">
        <ele>76.8</ele>
        <time>2021-08-08T12:30:42Z</time>
      </trkpt>
      <trkpt lat="48.10471" lon="-2.78602">
        <ele>76.8</ele>
        <time>2021-08-08T12:30:43Z</time>
      </trkpt>
      <trkpt lat="48.1047" lon="-2.78609">
        <ele>76.8</ele>
        <time>2021-08-08T12:30:44Z</time>
      </trkpt>
      <trkpt lat="48.10469" lon="-2.78616">
        <ele>77</ele>
        <time>2021-08-08T12:30:45Z</time>
      </trkpt>
      <trkpt lat="48.10469" lon="-2.78622">
        <ele>77</ele>
        <time>2021-08-08T12:30:46Z</time>
      </trkpt>
      <trkpt lat="48.10468" lon="-2.78629">
        <ele>77</ele>
        <time>2021-08-08T12:30:47Z</time>
      </trkpt>
      <trkpt lat="48.10467" lon="-2.78637">
        <ele>77.2</ele>
        <time>2021-08-08T12:30:48Z</time>
      </trkpt>
      <trkpt lat="48.10466" lon="-2.78644">
        <ele>77</ele>
        <time>2021-08-08T12:30:49Z</time>
      </trkpt>
      <trkpt lat="48.10466" lon="-2.78652">
        <ele>77</ele>
        <time>2021-08-08T12:30:50Z</time>
      </trkpt>
      <trkpt lat="48.10466" lon="-2.78658">
        <ele>77</ele>
        <time>2021-08-08T12:30:51Z</time>
      </trkpt>
      <trkpt lat="48.10465" lon="-2.78665">
        <ele>77.2</ele>
        <time>2021-08-08T12:30:52Z</time>
      </trkpt>
      <trkpt lat="48.10465" lon="-2.78672">
        <ele>77.2</ele>
        <time>2021-08-08T12:30:53Z</time>
      </trkpt>
      <trkpt lat="48.10464" lon="-2.78679">
        <ele>77.2</ele>
        <time>2021-08-08T12:30:54Z</time>
      </trkpt>
      <trkpt lat="48.10464" lon="-2.78686">
        <ele>77.6</ele>
        <time>2021-08-08T12:30:55Z</time>
      </trkpt>
      <trkpt lat="48.10464" lon="-2.78692">
        <ele>78</ele>
        <time>2021-08-08T12:30:56Z</time>
      </trkpt>
      <trkpt lat="48.10464" lon="-2.78699">
        <ele>78.2</ele>
        <time>2021-08-08T12:30:57Z</time>
      </trkpt>
      <trkpt lat="48.10463" lon="-2.78706">
        <ele>78.4</ele>
        <time>2021-08-08T12:30:58Z</time>
      </trkpt>
      <trkpt lat="48.10463" lon="-2.78714">
        <ele>78.4</ele>
        <time>2021-08-08T12:30:59Z</time>
      </trkpt>
      <trkpt lat="48.10462" lon="-2.78722">
        <ele>78.6</ele>
        <time>2021-08-08T12:31:00Z</time>
      </trkpt>
      <trkpt lat="48.10461" lon="-2.7873">
        <ele>78.6</ele>
        <time>2021-08-08T12:31:01Z</time>
      </trkpt>
      <trkpt lat="48.1046" lon="-2.78738">
        <ele>78.6</ele>
        <time>2021-08-08T12:31:02Z</time>
      </trkpt>
      <trkpt lat="48.10459" lon="-2.78746">
        <ele>78.6</ele>
        <time>2021-08-08T12:31:03Z</time>
      </trkpt>
      <trkpt lat="48.10458" lon="-2.78753">
        <ele>78.6</ele>
        <time>2021-08-08T12:31:04Z</time>
      </trkpt>
      <trkpt lat="48.10458" lon="-2.7876">
        <ele>78.6</ele>
        <time>2021-08-08T12:31:05Z</time>
      </trkpt>
      <trkpt lat="48.10458" lon="-2.78768">
        <ele>78.6</ele>
        <time>2021-08-08T12:31:06Z</time>
      </trkpt>
      <trkpt lat="48.10457" lon="-2.78775">
        <ele>78.6</ele>
        <time>2021-08-08T12:31:07Z</time>
      </trkpt>
      <trkpt lat="48.10456" lon="-2.78783">
        <ele>78.8</ele>
        <time>2021-08-08T12:31:08Z</time>
      </trkpt>
      <trkpt lat="48.10456" lon="-2.78792">
        <ele>78.8</ele>
        <time>2021-08-08T12:31:09Z</time>
      </trkpt>
      <trkpt lat="48.10455" lon="-2.788">
        <ele>78.8</ele>
        <time>2021-08-08T12:31:10Z</time>
      </trkpt>
      <trkpt lat="48.10454" lon="-2.78809">
        <ele>78.8</ele>
        <time>2021-08-08T12:31:11Z</time>
      </trkpt>
      <trkpt lat="48.10454" lon="-2.78817">
        <ele>79</ele>
        <time>2021-08-08T12:31:12Z</time>
      </trkpt>
      <trkpt lat="48.10453" lon="-2.78825">
        <ele>79</ele>
        <time>2021-08-08T12:31:13Z</time>
      </trkpt>
      <trkpt lat="48.10453" lon="-2.78833">
        <ele>79</ele>
        <time>2021-08-08T12:31:14Z</time>
      </trkpt>
      <trkpt lat="48.10453" lon="-2.78841">
        <ele>79</ele>
        <time>2021-08-08T12:31:15Z</time>
      </trkpt>
      <trkpt lat="48.10453" lon="-2.78848">
        <ele>79</ele>
        <time>2021-08-08T12:31:16Z</time>
      </trkpt>
      <trkpt lat="48.10453" lon="-2.78856">
        <ele>79</ele>
        <time>2021-08-08T12:31:17Z</time>
      </trkpt>
      <trkpt lat="48.10453" lon="-2.78864">
        <ele>79</ele>
        <time>2021-08-08T12:31:18Z</time>
      </trkpt>
      <trkpt lat="48.10453" lon="-2.78871">
        <ele>79</ele>
        <time>2021-08-08T12:31:19Z</time>
      </trkpt>
      <trkpt lat="48.10453" lon="-2.78879">
        <ele>79</ele>
        <time>2021-08-08T12:31:20Z</time>
      </trkpt>
      <trkpt lat="48.10453" lon="-2.78886">
        <ele>79</ele>
        <time>2021-08-08T12:31:21Z</time>
      </trkpt>
      <trkpt lat="48.10453" lon="-2.78894">
        <ele>79</ele>
        <time>2021-08-08T12:31:22Z</time>
      </trkpt>
      <trkpt lat="48.10453" lon="-2.78902">
        <ele>79</ele>
        <time>2021-08-08T12:31:23Z</time>
      </trkpt>
      <trkpt lat="48.10452" lon="-2.7891">
        <ele>79</ele>
        <time>2021-08-08T12:31:24Z</time>
      </trkpt>
      <trkpt lat="48.10452" lon="-2.78918">
        <ele>79</ele>
        <time>2021-08-08T12:31:25Z</time>
      </trkpt>
      <trkpt lat="48.10452" lon="-2.78926">
        <ele>79</ele>
        <time>2021-08-08T12:31:26Z</time>
      </trkpt>
      <trkpt lat="48.10452" lon="-2.78934">
        <ele>79</ele>
        <time>2021-08-08T12:31:27Z</time>
      </trkpt>
      <trkpt lat="48.10452" lon="-2.78942">
        <ele>79</ele>
        <time>2021-08-08T12:31:28Z</time>
      </trkpt>
      <trkpt lat="48.10452" lon="-2.78949">
        <ele>79</ele>
        <time>2021-08-08T12:31:29Z</time>
      </trkpt>
      <trkpt lat="48.10452" lon="-2.78956">
        <ele>79</ele>
        <time>2021-08-08T12:31:30Z</time>
      </trkpt>
      <trkpt lat="48.10452" lon="-2.78962">
        <ele>79</ele>
        <time>2021-08-08T12:31:31Z</time>
      </trkpt>
      <trkpt lat="48.10452" lon="-2.78969">
        <ele>79</ele>
        <time>2021-08-08T12:31:32Z</time>
      </trkpt>
      <trkpt lat="48.10452" lon="-2.78975">
        <ele>79</ele>
        <time>2021-08-08T12:31:33Z</time>
      </trkpt>
      <trkpt lat="48.10452" lon="-2.7898">
        <ele>79.2</ele>
        <time>2021-08-08T12:31:34Z</time>
      </trkpt>
      <trkpt lat="48.10452" lon="-2.78985">
        <ele>79.2</ele>
        <time>2021-08-08T12:31:35Z</time>
      </trkpt>
      <trkpt lat="48.10453" lon="-2.7899">
        <ele>79.4</ele>
        <time>2021-08-08T12:31:36Z</time>
      </trkpt>
      <trkpt lat="48.10453" lon="-2.78995">
        <ele>79.6</ele>
        <time>2021-08-08T12:31:37Z</time>
      </trkpt>
      <trkpt lat="48.10453" lon="-2.79">
        <ele>79.8</ele>
        <time>2021-08-08T12:31:38Z</time>
      </trkpt>
      <trkpt lat="48.10454" lon="-2.79006">
        <ele>80</ele>
        <time>2021-08-08T12:31:39Z</time>
      </trkpt>
      <trkpt lat="48.10455" lon="-2.7901">
        <ele>80.4</ele>
        <time>2021-08-08T12:31:40Z</time>
      </trkpt>
      <trkpt lat="48.10455" lon="-2.79015">
        <ele>80.6</ele>
        <time>2021-08-08T12:31:41Z</time>
      </trkpt>
      <trkpt lat="48.10456" lon="-2.7902">
        <ele>81</ele>
        <time>2021-08-08T12:31:42Z</time>
      </trkpt>
      <trkpt lat="48.10457" lon="-2.79024">
        <ele>81.4</ele>
        <time>2021-08-08T12:31:43Z</time>
      </trkpt>
      <trkpt lat="48.10457" lon="-2.79028">
        <ele>81.6</ele>
        <time>2021-08-08T12:31:44Z</time>
      </trkpt>
      <trkpt lat="48.10457" lon="-2.79032">
        <ele>81.8</ele>
        <time>2021-08-08T12:31:45Z</time>
      </trkpt>
      <trkpt lat="48.10457" lon="-2.79035">
        <ele>82</ele>
        <time>2021-08-08T12:31:46Z</time>
      </trkpt>
      <trkpt lat="48.10457" lon="-2.79037">
        <ele>82.2</ele>
        <time>2021-08-08T12:31:47Z</time>
      </trkpt>
      <trkpt lat="48.10457" lon="-2.7904">
        <ele>82.4</ele>
        <time>2021-08-08T12:31:48Z</time>
      </trkpt>
      <trkpt lat="48.10457" lon="-2.79044">
        <ele>82.8</ele>
        <time>2021-08-08T12:31:49Z</time>
      </trkpt>
      <trkpt lat="48.10457" lon="-2.79048">
        <ele>83</ele>
        <time>2021-08-08T12:31:50Z</time>
      </trkpt>
      <trkpt lat="48.10456" lon="-2.79052">
        <ele>83</ele>
        <time>2021-08-08T12:31:51Z</time>
      </trkpt>
      <trkpt lat="48.10456" lon="-2.79055">
        <ele>83</ele>
        <time>2021-08-08T12:31:52Z</time>
      </trkpt>
      <trkpt lat="48.10456" lon="-2.7906">
        <ele>83</ele>
        <time>2021-08-08T12:31:53Z</time>
      </trkpt>
      <trkpt lat="48.10456" lon="-2.79064">
        <ele>83.2</ele>
        <time>2021-08-08T12:31:54Z</time>
      </trkpt>
      <trkpt lat="48.10456" lon="-2.79068">
        <ele>83.2</ele>
        <time>2021-08-08T12:31:55Z</time>
      </trkpt>
      <trkpt lat="48.10456" lon="-2.79072">
        <ele>83.2</ele>
        <time>2021-08-08T12:31:56Z</time>
      </trkpt>
      <trkpt lat="48.10457" lon="-2.79076">
        <ele>83.2</ele>
        <time>2021-08-08T12:31:57Z</time>
      </trkpt>
      <trkpt lat="48.10457" lon="-2.79081">
        <ele>83.2</ele>
        <time>2021-08-08T12:31:58Z</time>
      </trkpt>
      <trkpt lat="48.10457" lon="-2.79085">
        <ele>83.2</ele>
        <time>2021-08-08T12:31:59Z</time>
      </trkpt>
      <trkpt lat="48.10458" lon="-2.79089">
        <ele>83</ele>
        <time>2021-08-08T12:32:00Z</time>
      </trkpt>
      <trkpt lat="48.10458" lon="-2.79093">
        <ele>82.8</ele>
        <time>2021-08-08T12:32:01Z</time>
      </trkpt>
      <trkpt lat="48.10458" lon="-2.79097">
        <ele>82.6</ele>
        <time>2021-08-08T12:32:02Z</time>
      </trkpt>
      <trkpt lat="48.10459" lon="-2.79101">
        <ele>82.6</ele>
        <time>2021-08-08T12:32:03Z</time>
      </trkpt>
      <trkpt lat="48.10459" lon="-2.79104">
        <ele>82.6</ele>
        <time>2021-08-08T12:32:04Z</time>
      </trkpt>
      <trkpt lat="48.10459" lon="-2.79107">
        <ele>82.6</ele>
        <time>2021-08-08T12:32:05Z</time>
      </trkpt>
      <trkpt lat="48.10459" lon="-2.79111">
        <ele>82.6</ele>
        <time>2021-08-08T12:32:06Z</time>
      </trkpt>
      <trkpt lat="48.1046" lon="-2.79113">
        <ele>82.6</ele>
        <time>2021-08-08T12:32:07Z</time>
      </trkpt>
      <trkpt lat="48.1046" lon="-2.79116">
        <ele>82.6</ele>
        <time>2021-08-08T12:32:08Z</time>
      </trkpt>
      <trkpt lat="48.1046" lon="-2.7912">
        <ele>82.6</ele>
        <time>2021-08-08T12:32:09Z</time>
      </trkpt>
      <trkpt lat="48.1046" lon="-2.79123">
        <ele>82.6</ele>
        <time>2021-08-08T12:32:10Z</time>
      </trkpt>
      <trkpt lat="48.1046" lon="-2.79127">
        <ele>82.8</ele>
        <time>2021-08-08T12:32:11Z</time>
      </trkpt>
      <trkpt lat="48.10461" lon="-2.7913">
        <ele>82.8</ele>
        <time>2021-08-08T12:32:12Z</time>
      </trkpt>
      <trkpt lat="48.10461" lon="-2.79133">
        <ele>82.8</ele>
        <time>2021-08-08T12:32:13Z</time>
      </trkpt>
      <trkpt lat="48.10462" lon="-2.79136">
        <ele>82.8</ele>
        <time>2021-08-08T12:32:14Z</time>
      </trkpt>
      <trkpt lat="48.10462" lon="-2.7914">
        <ele>83</ele>
        <time>2021-08-08T12:32:15Z</time>
      </trkpt>
      <trkpt lat="48.10462" lon="-2.79143">
        <ele>83</ele>
        <time>2021-08-08T12:32:16Z</time>
      </trkpt>
      <trkpt lat="48.10463" lon="-2.79146">
        <ele>83.2</ele>
        <time>2021-08-08T12:32:17Z</time>
      </trkpt>
      <trkpt lat="48.10463" lon="-2.79149">
        <ele>83.2</ele>
        <time>2021-08-08T12:32:18Z</time>
      </trkpt>
      <trkpt lat="48.10463" lon="-2.79152">
        <ele>83.4</ele>
        <time>2021-08-08T12:32:19Z</time>
      </trkpt>
      <trkpt lat="48.10463" lon="-2.79154">
        <ele>83.4</ele>
        <time>2021-08-08T12:32:20Z</time>
      </trkpt>
      <trkpt lat="48.10463" lon="-2.79157">
        <ele>83.4</ele>
        <time>2021-08-08T12:32:21Z</time>
      </trkpt>
      <trkpt lat="48.10464" lon="-2.7916">
        <ele>83.4</ele>
        <time>2021-08-08T12:32:22Z</time>
      </trkpt>
      <trkpt lat="48.10464" lon="-2.79163">
        <ele>83.4</ele>
        <time>2021-08-08T12:32:23Z</time>
      </trkpt>
      <trkpt lat="48.10464" lon="-2.79167">
        <ele>83.4</ele>
        <time>2021-08-08T12:32:24Z</time>
      </trkpt>
      <trkpt lat="48.10465" lon="-2.79171">
        <ele>83.4</ele>
        <time>2021-08-08T12:32:25Z</time>
      </trkpt>
      <trkpt lat="48.10465" lon="-2.79175">
        <ele>83.2</ele>
        <time>2021-08-08T12:32:26Z</time>
      </trkpt>
      <trkpt lat="48.10465" lon="-2.79179">
        <ele>83.2</ele>
        <time>2021-08-08T12:32:27Z</time>
      </trkpt>
      <trkpt lat="48.10466" lon="-2.79183">
        <ele>83.2</ele>
        <time>2021-08-08T12:32:28Z</time>
      </trkpt>
      <trkpt lat="48.10466" lon="-2.79188">
        <ele>83.2</ele>
        <time>2021-08-08T12:32:29Z</time>
      </trkpt>
      <trkpt lat="48.10466" lon="-2.79192">
        <ele>83.2</ele>
        <time>2021-08-08T12:32:30Z</time>
      </trkpt>
      <trkpt lat="48.10467" lon="-2.79196">
        <ele>83.2</ele>
        <time>2021-08-08T12:32:31Z</time>
      </trkpt>
      <trkpt lat="48.10467" lon="-2.792">
        <ele>83</ele>
        <time>2021-08-08T12:32:32Z</time>
      </trkpt>
      <trkpt lat="48.10468" lon="-2.79204">
        <ele>83</ele>
        <time>2021-08-08T12:32:33Z</time>
      </trkpt>
      <trkpt lat="48.10468" lon="-2.79209">
        <ele>83</ele>
        <time>2021-08-08T12:32:34Z</time>
      </trkpt>
      <trkpt lat="48.10468" lon="-2.79214">
        <ele>83</ele>
        <time>2021-08-08T12:32:35Z</time>
      </trkpt>
      <trkpt lat="48.10469" lon="-2.79219">
        <ele>83</ele>
        <time>2021-08-08T12:32:36Z</time>
      </trkpt>
      <trkpt lat="48.10469" lon="-2.79224">
        <ele>83</ele>
        <time>2021-08-08T12:32:37Z</time>
      </trkpt>
      <trkpt lat="48.10469" lon="-2.7923">
        <ele>83</ele>
        <time>2021-08-08T12:32:38Z</time>
      </trkpt>
      <trkpt lat="48.1047" lon="-2.79235">
        <ele>83</ele>
        <time>2021-08-08T12:32:39Z</time>
      </trkpt>
      <trkpt lat="48.1047" lon="-2.79241">
        <ele>83</ele>
        <time>2021-08-08T12:32:40Z</time>
      </trkpt>
      <trkpt lat="48.10471" lon="-2.79246">
        <ele>83</ele>
        <time>2021-08-08T12:32:41Z</time>
      </trkpt>
      <trkpt lat="48.10471" lon="-2.79252">
        <ele>83</ele>
        <time>2021-08-08T12:32:42Z</time>
      </trkpt>
      <trkpt lat="48.10472" lon="-2.79257">
        <ele>82.8</ele>
        <time>2021-08-08T12:32:43Z</time>
      </trkpt>
      <trkpt lat="48.10473" lon="-2.79262">
        <ele>82.8</ele>
        <time>2021-08-08T12:32:44Z</time>
      </trkpt>
      <trkpt lat="48.10473" lon="-2.79268">
        <ele>82.8</ele>
        <time>2021-08-08T12:32:45Z</time>
      </trkpt>
      <trkpt lat="48.10474" lon="-2.79274">
        <ele>82.8</ele>
        <time>2021-08-08T12:32:46Z</time>
      </trkpt>
      <trkpt lat="48.10474" lon="-2.7928">
        <ele>82.4</ele>
        <time>2021-08-08T12:32:47Z</time>
      </trkpt>
      <trkpt lat="48.10475" lon="-2.79286">
        <ele>82.2</ele>
        <time>2021-08-08T12:32:48Z</time>
      </trkpt>
      <trkpt lat="48.10475" lon="-2.79292">
        <ele>82.2</ele>
        <time>2021-08-08T12:32:49Z</time>
      </trkpt>
      <trkpt lat="48.10476" lon="-2.79298">
        <ele>82.2</ele>
        <time>2021-08-08T12:32:50Z</time>
      </trkpt>
      <trkpt lat="48.10476" lon="-2.79304">
        <ele>82.2</ele>
        <time>2021-08-08T12:32:51Z</time>
      </trkpt>
      <trkpt lat="48.10476" lon="-2.79309">
        <ele>82.2</ele>
        <time>2021-08-08T12:32:52Z</time>
      </trkpt>
      <trkpt lat="48.10477" lon="-2.79315">
        <ele>82.2</ele>
        <time>2021-08-08T12:32:53Z</time>
      </trkpt>
      <trkpt lat="48.10477" lon="-2.79321">
        <ele>82.2</ele>
        <time>2021-08-08T12:32:54Z</time>
      </trkpt>
      <trkpt lat="48.10478" lon="-2.79326">
        <ele>82.2</ele>
        <time>2021-08-08T12:32:55Z</time>
      </trkpt>
      <trkpt lat="48.10478" lon="-2.79331">
        <ele>82.2</ele>
        <time>2021-08-08T12:32:56Z</time>
      </trkpt>
      <trkpt lat="48.10479" lon="-2.79336">
        <ele>82.2</ele>
        <time>2021-08-08T12:32:57Z</time>
      </trkpt>
      <trkpt lat="48.10479" lon="-2.7934">
        <ele>82.4</ele>
        <time>2021-08-08T12:32:58Z</time>
      </trkpt>
      <trkpt lat="48.10479" lon="-2.79344">
        <ele>82.6</ele>
        <time>2021-08-08T12:32:59Z</time>
      </trkpt>
      <trkpt lat="48.1048" lon="-2.79348">
        <ele>82.8</ele>
        <time>2021-08-08T12:33:00Z</time>
      </trkpt>
      <trkpt lat="48.1048" lon="-2.79353">
        <ele>82.8</ele>
        <time>2021-08-08T12:33:01Z</time>
      </trkpt>
      <trkpt lat="48.10481" lon="-2.79358">
        <ele>82.8</ele>
        <time>2021-08-08T12:33:02Z</time>
      </trkpt>
      <trkpt lat="48.10481" lon="-2.79363">
        <ele>83</ele>
        <time>2021-08-08T12:33:03Z</time>
      </trkpt>
      <trkpt lat="48.10481" lon="-2.79367">
        <ele>83</ele>
        <time>2021-08-08T12:33:04Z</time>
      </trkpt>
      <trkpt lat="48.10482" lon="-2.79371">
        <ele>83.2</ele>
        <time>2021-08-08T12:33:05Z</time>
      </trkpt>
      <trkpt lat="48.10483" lon="-2.79375">
        <ele>83.4</ele>
        <time>2021-08-08T12:33:06Z</time>
      </trkpt>
      <trkpt lat="48.10483" lon="-2.7938">
        <ele>83.6</ele>
        <time>2021-08-08T12:33:07Z</time>
      </trkpt>
      <trkpt lat="48.10484" lon="-2.79384">
        <ele>83.6</ele>
        <time>2021-08-08T12:33:08Z</time>
      </trkpt>
      <trkpt lat="48.10484" lon="-2.79388">
        <ele>83.6</ele>
        <time>2021-08-08T12:33:09Z</time>
      </trkpt>
      <trkpt lat="48.10484" lon="-2.79392">
        <ele>83.8</ele>
        <time>2021-08-08T12:33:10Z</time>
      </trkpt>
      <trkpt lat="48.10485" lon="-2.79396">
        <ele>83.8</ele>
        <time>2021-08-08T12:33:11Z</time>
      </trkpt>
      <trkpt lat="48.10486" lon="-2.794">
        <ele>83.8</ele>
        <time>2021-08-08T12:33:12Z</time>
      </trkpt>
      <trkpt lat="48.10487" lon="-2.79404">
        <ele>84</ele>
        <time>2021-08-08T12:33:13Z</time>
      </trkpt>
      <trkpt lat="48.10487" lon="-2.79409">
        <ele>84</ele>
        <time>2021-08-08T12:33:14Z</time>
      </trkpt>
      <trkpt lat="48.10488" lon="-2.79414">
        <ele>84.2</ele>
        <time>2021-08-08T12:33:15Z</time>
      </trkpt>
      <trkpt lat="48.10489" lon="-2.79419">
        <ele>84.4</ele>
        <time>2021-08-08T12:33:16Z</time>
      </trkpt>
      <trkpt lat="48.10489" lon="-2.79424">
        <ele>84.8</ele>
        <time>2021-08-08T12:33:17Z</time>
      </trkpt>
      <trkpt lat="48.10491" lon="-2.79429">
        <ele>84.8</ele>
        <time>2021-08-08T12:33:18Z</time>
      </trkpt>
      <trkpt lat="48.10491" lon="-2.79434">
        <ele>84.8</ele>
        <time>2021-08-08T12:33:19Z</time>
      </trkpt>
      <trkpt lat="48.10492" lon="-2.7944">
        <ele>84.8</ele>
        <time>2021-08-08T12:33:20Z</time>
      </trkpt>
      <trkpt lat="48.10493" lon="-2.79445">
        <ele>84.8</ele>
        <time>2021-08-08T12:33:21Z</time>
      </trkpt>
      <trkpt lat="48.10494" lon="-2.7945">
        <ele>84.8</ele>
        <time>2021-08-08T12:33:22Z</time>
      </trkpt>
      <trkpt lat="48.10495" lon="-2.79456">
        <ele>84.8</ele>
        <time>2021-08-08T12:33:23Z</time>
      </trkpt>
      <trkpt lat="48.10497" lon="-2.79462">
        <ele>84.8</ele>
        <time>2021-08-08T12:33:24Z</time>
      </trkpt>
      <trkpt lat="48.10498" lon="-2.79468">
        <ele>84.8</ele>
        <time>2021-08-08T12:33:25Z</time>
      </trkpt>
      <trkpt lat="48.10499" lon="-2.79474">
        <ele>84.8</ele>
        <time>2021-08-08T12:33:26Z</time>
      </trkpt>
      <trkpt lat="48.105" lon="-2.79479">
        <ele>84.6</ele>
        <time>2021-08-08T12:33:27Z</time>
      </trkpt>
      <trkpt lat="48.10501" lon="-2.79485">
        <ele>84.6</ele>
        <time>2021-08-08T12:33:28Z</time>
      </trkpt>
      <trkpt lat="48.10502" lon="-2.79491">
        <ele>84.6</ele>
        <time>2021-08-08T12:33:29Z</time>
      </trkpt>
      <trkpt lat="48.10502" lon="-2.79497">
        <ele>84.6</ele>
        <time>2021-08-08T12:33:30Z</time>
      </trkpt>
      <trkpt lat="48.10503" lon="-2.79503">
        <ele>84.6</ele>
        <time>2021-08-08T12:33:31Z</time>
      </trkpt>
      <trkpt lat="48.10504" lon="-2.79509">
        <ele>84.6</ele>
        <time>2021-08-08T12:33:32Z</time>
      </trkpt>
      <trkpt lat="48.10505" lon="-2.79514">
        <ele>84.6</ele>
        <time>2021-08-08T12:33:33Z</time>
      </trkpt>
      <trkpt lat="48.10506" lon="-2.79519">
        <ele>84.6</ele>
        <time>2021-08-08T12:33:34Z</time>
      </trkpt>
      <trkpt lat="48.10507" lon="-2.79523">
        <ele>84.6</ele>
        <time>2021-08-08T12:33:35Z</time>
      </trkpt>
      <trkpt lat="48.10508" lon="-2.79528">
        <ele>84.6</ele>
        <time>2021-08-08T12:33:36Z</time>
      </trkpt>
      <trkpt lat="48.10509" lon="-2.79533">
        <ele>84.6</ele>
        <time>2021-08-08T12:33:37Z</time>
      </trkpt>
      <trkpt lat="48.1051" lon="-2.79539">
        <ele>84.6</ele>
        <time>2021-08-08T12:33:38Z</time>
      </trkpt>
      <trkpt lat="48.10511" lon="-2.79544">
        <ele>84.6</ele>
        <time>2021-08-08T12:33:39Z</time>
      </trkpt>
      <trkpt lat="48.10512" lon="-2.79548">
        <ele>84.6</ele>
        <time>2021-08-08T12:33:40Z</time>
      </trkpt>
      <trkpt lat="48.10513" lon="-2.79552">
        <ele>84.8</ele>
        <time>2021-08-08T12:33:41Z</time>
      </trkpt>
      <trkpt lat="48.10514" lon="-2.79557">
        <ele>84.8</ele>
        <time>2021-08-08T12:33:42Z</time>
      </trkpt>
      <trkpt lat="48.10514" lon="-2.79561">
        <ele>84.8</ele>
        <time>2021-08-08T12:33:43Z</time>
      </trkpt>
      <trkpt lat="48.10515" lon="-2.79566">
        <ele>85</ele>
        <time>2021-08-08T12:33:44Z</time>
      </trkpt>
      <trkpt lat="48.10515" lon="-2.7957">
        <ele>85</ele>
        <time>2021-08-08T12:33:45Z</time>
      </trkpt>
      <trkpt lat="48.10516" lon="-2.79575">
        <ele>85.6</ele>
        <time>2021-08-08T12:33:46Z</time>
      </trkpt>
      <trkpt lat="48.10517" lon="-2.7958">
        <ele>85.6</ele>
        <time>2021-08-08T12:33:47Z</time>
      </trkpt>
      <trkpt lat="48.10517" lon="-2.79584">
        <ele>85.8</ele>
        <time>2021-08-08T12:33:48Z</time>
      </trkpt>
      <trkpt lat="48.10518" lon="-2.79588">
        <ele>85.8</ele>
        <time>2021-08-08T12:33:49Z</time>
      </trkpt>
      <trkpt lat="48.10519" lon="-2.79593">
        <ele>86.2</ele>
        <time>2021-08-08T12:33:50Z</time>
      </trkpt>
      <trkpt lat="48.10521" lon="-2.79597">
        <ele>86.4</ele>
        <time>2021-08-08T12:33:51Z</time>
      </trkpt>
      <trkpt lat="48.10522" lon="-2.79602">
        <ele>86.6</ele>
        <time>2021-08-08T12:33:52Z</time>
      </trkpt>
      <trkpt lat="48.10523" lon="-2.79606">
        <ele>86.8</ele>
        <time>2021-08-08T12:33:53Z</time>
      </trkpt>
      <trkpt lat="48.10524" lon="-2.79611">
        <ele>87.2</ele>
        <time>2021-08-08T12:33:54Z</time>
      </trkpt>
      <trkpt lat="48.10525" lon="-2.79615">
        <ele>87.4</ele>
        <time>2021-08-08T12:33:55Z</time>
      </trkpt>
      <trkpt lat="48.10526" lon="-2.79619">
        <ele>87.6</ele>
        <time>2021-08-08T12:33:56Z</time>
      </trkpt>
      <trkpt lat="48.10527" lon="-2.79623">
        <ele>87.8</ele>
        <time>2021-08-08T12:33:57Z</time>
      </trkpt>
      <trkpt lat="48.10528" lon="-2.79628">
        <ele>87.8</ele>
        <time>2021-08-08T12:33:58Z</time>
      </trkpt>
      <trkpt lat="48.10528" lon="-2.79633">
        <ele>87.8</ele>
        <time>2021-08-08T12:33:59Z</time>
      </trkpt>
      <trkpt lat="48.10529" lon="-2.79637">
        <ele>87.8</ele>
        <time>2021-08-08T12:34:00Z</time>
      </trkpt>
      <trkpt lat="48.1053" lon="-2.79643">
        <ele>87.8</ele>
        <time>2021-08-08T12:34:01Z</time>
      </trkpt>
      <trkpt lat="48.10531" lon="-2.79648">
        <ele>87.8</ele>
        <time>2021-08-08T12:34:02Z</time>
      </trkpt>
      <trkpt lat="48.10532" lon="-2.79654">
        <ele>87.8</ele>
        <time>2021-08-08T12:34:03Z</time>
      </trkpt>
      <trkpt lat="48.10533" lon="-2.7966">
        <ele>87.8</ele>
        <time>2021-08-08T12:34:04Z</time>
      </trkpt>
      <trkpt lat="48.10534" lon="-2.79665">
        <ele>87.8</ele>
        <time>2021-08-08T12:34:05Z</time>
      </trkpt>
      <trkpt lat="48.10535" lon="-2.79671">
        <ele>87.8</ele>
        <time>2021-08-08T12:34:06Z</time>
      </trkpt>
      <trkpt lat="48.10536" lon="-2.79677">
        <ele>87.8</ele>
        <time>2021-08-08T12:34:07Z</time>
      </trkpt>
      <trkpt lat="48.10537" lon="-2.79683">
        <ele>87.8</ele>
        <time>2021-08-08T12:34:08Z</time>
      </trkpt>
      <trkpt lat="48.10538" lon="-2.79688">
        <ele>87.8</ele>
        <time>2021-08-08T12:34:09Z</time>
      </trkpt>
      <trkpt lat="48.10539" lon="-2.79694">
        <ele>87.8</ele>
        <time>2021-08-08T12:34:10Z</time>
      </trkpt>
      <trkpt lat="48.1054" lon="-2.797">
        <ele>87.8</ele>
        <time>2021-08-08T12:34:11Z</time>
      </trkpt>
      <trkpt lat="48.10541" lon="-2.79706">
        <ele>87.8</ele>
        <time>2021-08-08T12:34:12Z</time>
      </trkpt>
      <trkpt lat="48.10541" lon="-2.79712">
        <ele>87.8</ele>
        <time>2021-08-08T12:34:13Z</time>
      </trkpt>
      <trkpt lat="48.10542" lon="-2.79718">
        <ele>87.8</ele>
        <time>2021-08-08T12:34:14Z</time>
      </trkpt>
      <trkpt lat="48.10543" lon="-2.79724">
        <ele>87.8</ele>
        <time>2021-08-08T12:34:15Z</time>
      </trkpt>
      <trkpt lat="48.10544" lon="-2.7973">
        <ele>87.8</ele>
        <time>2021-08-08T12:34:16Z</time>
      </trkpt>
      <trkpt lat="48.10545" lon="-2.79736">
        <ele>87.6</ele>
        <time>2021-08-08T12:34:17Z</time>
      </trkpt>
      <trkpt lat="48.10546" lon="-2.79742">
        <ele>87.6</ele>
        <time>2021-08-08T12:34:18Z</time>
      </trkpt>
      <trkpt lat="48.10547" lon="-2.79749">
        <ele>87.8</ele>
        <time>2021-08-08T12:34:19Z</time>
      </trkpt>
      <trkpt lat="48.10548" lon="-2.79755">
        <ele>87.8</ele>
        <time>2021-08-08T12:34:20Z</time>
      </trkpt>
      <trkpt lat="48.10548" lon="-2.7976">
        <ele>87.8</ele>
        <time>2021-08-08T12:34:21Z</time>
      </trkpt>
      <trkpt lat="48.10549" lon="-2.79764">
        <ele>87.8</ele>
        <time>2021-08-08T12:34:22Z</time>
      </trkpt>
      <trkpt lat="48.1055" lon="-2.79768">
        <ele>87.8</ele>
        <time>2021-08-08T12:34:23Z</time>
      </trkpt>
      <trkpt lat="48.10551" lon="-2.79772">
        <ele>87.8</ele>
        <time>2021-08-08T12:34:24Z</time>
      </trkpt>
      <trkpt lat="48.10552" lon="-2.79777">
        <ele>88</ele>
        <time>2021-08-08T12:34:25Z</time>
      </trkpt>
      <trkpt lat="48.10552" lon="-2.79781">
        <ele>88</ele>
        <time>2021-08-08T12:34:26Z</time>
      </trkpt>
      <trkpt lat="48.10553" lon="-2.79787">
        <ele>88</ele>
        <time>2021-08-08T12:34:27Z</time>
      </trkpt>
      <trkpt lat="48.10554" lon="-2.79793">
        <ele>87.8</ele>
        <time>2021-08-08T12:34:28Z</time>
      </trkpt>
      <trkpt lat="48.10555" lon="-2.798">
        <ele>87.8</ele>
        <time>2021-08-08T12:34:29Z</time>
      </trkpt>
      <trkpt lat="48.10555" lon="-2.79805">
        <ele>87.8</ele>
        <time>2021-08-08T12:34:30Z</time>
      </trkpt>
      <trkpt lat="48.10556" lon="-2.79812">
        <ele>87.8</ele>
        <time>2021-08-08T12:34:31Z</time>
      </trkpt>
      <trkpt lat="48.10557" lon="-2.79819">
        <ele>87.8</ele>
        <time>2021-08-08T12:34:32Z</time>
      </trkpt>
      <trkpt lat="48.10558" lon="-2.79825">
        <ele>87.8</ele>
        <time>2021-08-08T12:34:33Z</time>
      </trkpt>
      <trkpt lat="48.10559" lon="-2.7983">
        <ele>87.8</ele>
        <time>2021-08-08T12:34:34Z</time>
      </trkpt>
      <trkpt lat="48.1056" lon="-2.79835">
        <ele>87.8</ele>
        <time>2021-08-08T12:34:35Z</time>
      </trkpt>
      <trkpt lat="48.10561" lon="-2.7984">
        <ele>87.8</ele>
        <time>2021-08-08T12:34:36Z</time>
      </trkpt>
      <trkpt lat="48.10561" lon="-2.79847">
        <ele>88</ele>
        <time>2021-08-08T12:34:37Z</time>
      </trkpt>
      <trkpt lat="48.10562" lon="-2.79853">
        <ele>88</ele>
        <time>2021-08-08T12:34:38Z</time>
      </trkpt>
      <trkpt lat="48.10563" lon="-2.7986">
        <ele>88</ele>
        <time>2021-08-08T12:34:39Z</time>
      </trkpt>
      <trkpt lat="48.10564" lon="-2.79866">
        <ele>88</ele>
        <time>2021-08-08T12:34:40Z</time>
      </trkpt>
      <trkpt lat="48.10565" lon="-2.79872">
        <ele>88</ele>
        <time>2021-08-08T12:34:41Z</time>
      </trkpt>
      <trkpt lat="48.10566" lon="-2.79879">
        <ele>88</ele>
        <time>2021-08-08T12:34:42Z</time>
      </trkpt>
      <trkpt lat="48.10567" lon="-2.79885">
        <ele>88</ele>
        <time>2021-08-08T12:34:43Z</time>
      </trkpt>
      <trkpt lat="48.10567" lon="-2.79891">
        <ele>88.2</ele>
        <time>2021-08-08T12:34:44Z</time>
      </trkpt>
      <trkpt lat="48.10568" lon="-2.79898">
        <ele>88.2</ele>
        <time>2021-08-08T12:34:45Z</time>
      </trkpt>
      <trkpt lat="48.10569" lon="-2.79905">
        <ele>88.2</ele>
        <time>2021-08-08T12:34:46Z</time>
      </trkpt>
      <trkpt lat="48.1057" lon="-2.79911">
        <ele>88.2</ele>
        <time>2021-08-08T12:34:47Z</time>
      </trkpt>
      <trkpt lat="48.10571" lon="-2.79918">
        <ele>88.2</ele>
        <time>2021-08-08T12:34:48Z</time>
      </trkpt>
      <trkpt lat="48.10572" lon="-2.79923">
        <ele>88.2</ele>
        <time>2021-08-08T12:34:49Z</time>
      </trkpt>
      <trkpt lat="48.10573" lon="-2.79928">
        <ele>88.4</ele>
        <time>2021-08-08T12:34:50Z</time>
      </trkpt>
      <trkpt lat="48.10573" lon="-2.79934">
        <ele>88.4</ele>
        <time>2021-08-08T12:34:51Z</time>
      </trkpt>
      <trkpt lat="48.10573" lon="-2.7994">
        <ele>88.4</ele>
        <time>2021-08-08T12:34:52Z</time>
      </trkpt>
      <trkpt lat="48.10574" lon="-2.79947">
        <ele>88.4</ele>
        <time>2021-08-08T12:34:53Z</time>
      </trkpt>
      <trkpt lat="48.10574" lon="-2.79953">
        <ele>88.4</ele>
        <time>2021-08-08T12:34:54Z</time>
      </trkpt>
      <trkpt lat="48.10575" lon="-2.7996">
        <ele>88.4</ele>
        <time>2021-08-08T12:34:55Z</time>
      </trkpt>
      <trkpt lat="48.10575" lon="-2.79967">
        <ele>88.4</ele>
        <time>2021-08-08T12:34:56Z</time>
      </trkpt>
      <trkpt lat="48.10576" lon="-2.79974">
        <ele>88.4</ele>
        <time>2021-08-08T12:34:57Z</time>
      </trkpt>
      <trkpt lat="48.10577" lon="-2.79981">
        <ele>88.4</ele>
        <time>2021-08-08T12:34:58Z</time>
      </trkpt>
      <trkpt lat="48.10577" lon="-2.79988">
        <ele>88.4</ele>
        <time>2021-08-08T12:34:59Z</time>
      </trkpt>
      <trkpt lat="48.10578" lon="-2.79994">
        <ele>88.4</ele>
        <time>2021-08-08T12:35:00Z</time>
      </trkpt>
      <trkpt lat="48.10579" lon="-2.80001">
        <ele>88.4</ele>
        <time>2021-08-08T12:35:01Z</time>
      </trkpt>
      <trkpt lat="48.1058" lon="-2.80008">
        <ele>88.6</ele>
        <time>2021-08-08T12:35:02Z</time>
      </trkpt>
      <trkpt lat="48.10581" lon="-2.80015">
        <ele>89</ele>
        <time>2021-08-08T12:35:03Z</time>
      </trkpt>
      <trkpt lat="48.10582" lon="-2.80021">
        <ele>89</ele>
        <time>2021-08-08T12:35:04Z</time>
      </trkpt>
      <trkpt lat="48.10582" lon="-2.80026">
        <ele>89.2</ele>
        <time>2021-08-08T12:35:05Z</time>
      </trkpt>
      <trkpt lat="48.10583" lon="-2.80031">
        <ele>89.4</ele>
        <time>2021-08-08T12:35:06Z</time>
      </trkpt>
      <trkpt lat="48.10584" lon="-2.80036">
        <ele>89.6</ele>
        <time>2021-08-08T12:35:07Z</time>
      </trkpt>
      <trkpt lat="48.10585" lon="-2.8004">
        <ele>89.6</ele>
        <time>2021-08-08T12:35:08Z</time>
      </trkpt>
      <trkpt lat="48.10585" lon="-2.80045">
        <ele>89.6</ele>
        <time>2021-08-08T12:35:09Z</time>
      </trkpt>
      <trkpt lat="48.10586" lon="-2.8005">
        <ele>89.8</ele>
        <time>2021-08-08T12:35:10Z</time>
      </trkpt>
      <trkpt lat="48.10586" lon="-2.80054">
        <ele>90.2</ele>
        <time>2021-08-08T12:35:11Z</time>
      </trkpt>
      <trkpt lat="48.10586" lon="-2.80059">
        <ele>90.4</ele>
        <time>2021-08-08T12:35:12Z</time>
      </trkpt>
      <trkpt lat="48.10587" lon="-2.80063">
        <ele>90.6</ele>
        <time>2021-08-08T12:35:13Z</time>
      </trkpt>
      <trkpt lat="48.10588" lon="-2.80067">
        <ele>90.6</ele>
        <time>2021-08-08T12:35:14Z</time>
      </trkpt>
      <trkpt lat="48.10588" lon="-2.8007">
        <ele>90.8</ele>
        <time>2021-08-08T12:35:15Z</time>
      </trkpt>
      <trkpt lat="48.10589" lon="-2.80073">
        <ele>90.6</ele>
        <time>2021-08-08T12:35:16Z</time>
      </trkpt>
      <trkpt lat="48.10589" lon="-2.80076">
        <ele>90.8</ele>
        <time>2021-08-08T12:35:17Z</time>
      </trkpt>
      <trkpt lat="48.1059" lon="-2.80078">
        <ele>90.8</ele>
        <time>2021-08-08T12:35:18Z</time>
      </trkpt>
      <trkpt lat="48.1059" lon="-2.80081">
        <ele>90.8</ele>
        <time>2021-08-08T12:35:19Z</time>
      </trkpt>
      <trkpt lat="48.1059" lon="-2.80083">
        <ele>90.8</ele>
        <time>2021-08-08T12:35:20Z</time>
      </trkpt>
      <trkpt lat="48.1059" lon="-2.80086">
        <ele>90.8</ele>
        <time>2021-08-08T12:35:21Z</time>
      </trkpt>
      <trkpt lat="48.10591" lon="-2.80089">
        <ele>91</ele>
        <time>2021-08-08T12:35:22Z</time>
      </trkpt>
      <trkpt lat="48.10591" lon="-2.80092">
        <ele>91</ele>
        <time>2021-08-08T12:35:23Z</time>
      </trkpt>
      <trkpt lat="48.10591" lon="-2.80096">
        <ele>91</ele>
        <time>2021-08-08T12:35:24Z</time>
      </trkpt>
      <trkpt lat="48.10591" lon="-2.801">
        <ele>91</ele>
        <time>2021-08-08T12:35:25Z</time>
      </trkpt>
      <trkpt lat="48.10592" lon="-2.80105">
        <ele>91.2</ele>
        <time>2021-08-08T12:35:26Z</time>
      </trkpt>
      <trkpt lat="48.10592" lon="-2.8011">
        <ele>91.2</ele>
        <time>2021-08-08T12:35:27Z</time>
      </trkpt>
      <trkpt lat="48.10593" lon="-2.80114">
        <ele>91.2</ele>
        <time>2021-08-08T12:35:28Z</time>
      </trkpt>
      <trkpt lat="48.10594" lon="-2.80118">
        <ele>91.2</ele>
        <time>2021-08-08T12:35:29Z</time>
      </trkpt>
      <trkpt lat="48.10595" lon="-2.80123">
        <ele>91.2</ele>
        <time>2021-08-08T12:35:30Z</time>
      </trkpt>
      <trkpt lat="48.10596" lon="-2.80128">
        <ele>91.2</ele>
        <time>2021-08-08T12:35:31Z</time>
      </trkpt>
      <trkpt lat="48.10597" lon="-2.80132">
        <ele>91.2</ele>
        <time>2021-08-08T12:35:32Z</time>
      </trkpt>
      <trkpt lat="48.10598" lon="-2.80136">
        <ele>91.2</ele>
        <time>2021-08-08T12:35:33Z</time>
      </trkpt>
      <trkpt lat="48.10599" lon="-2.80141">
        <ele>91.2</ele>
        <time>2021-08-08T12:35:34Z</time>
      </trkpt>
      <trkpt lat="48.10599" lon="-2.80145">
        <ele>91.2</ele>
        <time>2021-08-08T12:35:35Z</time>
      </trkpt>
      <trkpt lat="48.106" lon="-2.80149">
        <ele>91.2</ele>
        <time>2021-08-08T12:35:36Z</time>
      </trkpt>
      <trkpt lat="48.10601" lon="-2.80154">
        <ele>91.2</ele>
        <time>2021-08-08T12:35:37Z</time>
      </trkpt>
      <trkpt lat="48.10602" lon="-2.8016">
        <ele>91.2</ele>
        <time>2021-08-08T12:35:38Z</time>
      </trkpt>
      <trkpt lat="48.10603" lon="-2.80164">
        <ele>91.2</ele>
        <time>2021-08-08T12:35:39Z</time>
      </trkpt>
      <trkpt lat="48.10604" lon="-2.8017">
        <ele>91.2</ele>
        <time>2021-08-08T12:35:40Z</time>
      </trkpt>
      <trkpt lat="48.10605" lon="-2.80176">
        <ele>91.2</ele>
        <time>2021-08-08T12:35:41Z</time>
      </trkpt>
      <trkpt lat="48.10606" lon="-2.80182">
        <ele>91.2</ele>
        <time>2021-08-08T12:35:42Z</time>
      </trkpt>
      <trkpt lat="48.10607" lon="-2.80188">
        <ele>91.2</ele>
        <time>2021-08-08T12:35:43Z</time>
      </trkpt>
      <trkpt lat="48.10607" lon="-2.80194">
        <ele>91.4</ele>
        <time>2021-08-08T12:35:44Z</time>
      </trkpt>
      <trkpt lat="48.10608" lon="-2.802">
        <ele>91.4</ele>
        <time>2021-08-08T12:35:45Z</time>
      </trkpt>
      <trkpt lat="48.10609" lon="-2.80204">
        <ele>91.4</ele>
        <time>2021-08-08T12:35:46Z</time>
      </trkpt>
      <trkpt lat="48.1061" lon="-2.8021">
        <ele>91.4</ele>
        <time>2021-08-08T12:35:47Z</time>
      </trkpt>
      <trkpt lat="48.1061" lon="-2.80215">
        <ele>91.4</ele>
        <time>2021-08-08T12:35:48Z</time>
      </trkpt>
      <trkpt lat="48.10611" lon="-2.80222">
        <ele>91.4</ele>
        <time>2021-08-08T12:35:49Z</time>
      </trkpt>
      <trkpt lat="48.10612" lon="-2.80228">
        <ele>91.4</ele>
        <time>2021-08-08T12:35:50Z</time>
      </trkpt>
      <trkpt lat="48.10612" lon="-2.80234">
        <ele>91.4</ele>
        <time>2021-08-08T12:35:51Z</time>
      </trkpt>
      <trkpt lat="48.10613" lon="-2.80239">
        <ele>91.4</ele>
        <time>2021-08-08T12:35:52Z</time>
      </trkpt>
      <trkpt lat="48.10613" lon="-2.80245">
        <ele>91.4</ele>
        <time>2021-08-08T12:35:53Z</time>
      </trkpt>
      <trkpt lat="48.10613" lon="-2.8025">
        <ele>91.2</ele>
        <time>2021-08-08T12:35:54Z</time>
      </trkpt>
      <trkpt lat="48.10614" lon="-2.80256">
        <ele>91</ele>
        <time>2021-08-08T12:35:55Z</time>
      </trkpt>
      <trkpt lat="48.10614" lon="-2.80262">
        <ele>90.8</ele>
        <time>2021-08-08T12:35:56Z</time>
      </trkpt>
      <trkpt lat="48.10614" lon="-2.80268">
        <ele>90.8</ele>
        <time>2021-08-08T12:35:57Z</time>
      </trkpt>
      <trkpt lat="48.10614" lon="-2.80274">
        <ele>90.8</ele>
        <time>2021-08-08T12:35:58Z</time>
      </trkpt>
      <trkpt lat="48.10614" lon="-2.8028">
        <ele>90.6</ele>
        <time>2021-08-08T12:35:59Z</time>
      </trkpt>
      <trkpt lat="48.10614" lon="-2.80285">
        <ele>90.6</ele>
        <time>2021-08-08T12:36:00Z</time>
      </trkpt>
      <trkpt lat="48.10613" lon="-2.80291">
        <ele>90.4</ele>
        <time>2021-08-08T12:36:01Z</time>
      </trkpt>
      <trkpt lat="48.10613" lon="-2.80296">
        <ele>90.4</ele>
        <time>2021-08-08T12:36:02Z</time>
      </trkpt>
      <trkpt lat="48.10613" lon="-2.80301">
        <ele>90.4</ele>
        <time>2021-08-08T12:36:03Z</time>
      </trkpt>
      <trkpt lat="48.10613" lon="-2.80306">
        <ele>90.4</ele>
        <time>2021-08-08T12:36:04Z</time>
      </trkpt>
      <trkpt lat="48.10613" lon="-2.80311">
        <ele>90.2</ele>
        <time>2021-08-08T12:36:05Z</time>
      </trkpt>
      <trkpt lat="48.10613" lon="-2.80316">
        <ele>90.2</ele>
        <time>2021-08-08T12:36:06Z</time>
      </trkpt>
      <trkpt lat="48.10612" lon="-2.8032">
        <ele>90.2</ele>
        <time>2021-08-08T12:36:07Z</time>
      </trkpt>
      <trkpt lat="48.10612" lon="-2.80325">
        <ele>90.4</ele>
        <time>2021-08-08T12:36:08Z</time>
      </trkpt>
      <trkpt lat="48.10611" lon="-2.80329">
        <ele>90.4</ele>
        <time>2021-08-08T12:36:09Z</time>
      </trkpt>
      <trkpt lat="48.1061" lon="-2.80335">
        <ele>90.4</ele>
        <time>2021-08-08T12:36:10Z</time>
      </trkpt>
      <trkpt lat="48.1061" lon="-2.8034">
        <ele>90.4</ele>
        <time>2021-08-08T12:36:11Z</time>
      </trkpt>
      <trkpt lat="48.10609" lon="-2.80345">
        <ele>90.4</ele>
        <time>2021-08-08T12:36:12Z</time>
      </trkpt>
      <trkpt lat="48.10609" lon="-2.8035">
        <ele>90.2</ele>
        <time>2021-08-08T12:36:13Z</time>
      </trkpt>
      <trkpt lat="48.10609" lon="-2.80354">
        <ele>90.2</ele>
        <time>2021-08-08T12:36:14Z</time>
      </trkpt>
      <trkpt lat="48.10609" lon="-2.80358">
        <ele>90.2</ele>
        <time>2021-08-08T12:36:15Z</time>
      </trkpt>
      <trkpt lat="48.10608" lon="-2.80362">
        <ele>90.4</ele>
        <time>2021-08-08T12:36:16Z</time>
      </trkpt>
      <trkpt lat="48.10609" lon="-2.80365">
        <ele>90.4</ele>
        <time>2021-08-08T12:36:17Z</time>
      </trkpt>
      <trkpt lat="48.10609" lon="-2.80367">
        <ele>90.4</ele>
        <time>2021-08-08T12:36:18Z</time>
      </trkpt>
      <trkpt lat="48.10609" lon="-2.8037">
        <ele>90.6</ele>
        <time>2021-08-08T12:36:19Z</time>
      </trkpt>
      <trkpt lat="48.10609" lon="-2.80372">
        <ele>90.8</ele>
        <time>2021-08-08T12:36:20Z</time>
      </trkpt>
      <trkpt lat="48.10609" lon="-2.80373">
        <ele>91.2</ele>
        <time>2021-08-08T12:36:21Z</time>
      </trkpt>
      <trkpt lat="48.10609" lon="-2.80374">
        <ele>91.6</ele>
        <time>2021-08-08T12:36:22Z</time>
      </trkpt>
      <trkpt lat="48.10609" lon="-2.80375">
        <ele>92</ele>
        <time>2021-08-08T12:36:23Z</time>
      </trkpt>
      <trkpt lat="48.10608" lon="-2.80399">
        <ele>93.6</ele>
        <time>2021-08-08T12:44:28Z</time>
      </trkpt>
      <trkpt lat="48.10608" lon="-2.80402">
        <ele>93.4</ele>
        <time>2021-08-08T12:44:29Z</time>
      </trkpt>
      <trkpt lat="48.10608" lon="-2.80406">
        <ele>93.4</ele>
        <time>2021-08-08T12:44:30Z</time>
      </trkpt>
      <trkpt lat="48.10608" lon="-2.8041">
        <ele>93.4</ele>
        <time>2021-08-08T12:44:31Z</time>
      </trkpt>
      <trkpt lat="48.10608" lon="-2.80414">
        <ele>93.4</ele>
        <time>2021-08-08T12:44:32Z</time>
      </trkpt>
      <trkpt lat="48.10608" lon="-2.80418">
        <ele>93.4</ele>
        <time>2021-08-08T12:44:33Z</time>
      </trkpt>
      <trkpt lat="48.10608" lon="-2.80423">
        <ele>93.4</ele>
        <time>2021-08-08T12:44:34Z</time>
      </trkpt>
      <trkpt lat="48.10608" lon="-2.80427">
        <ele>93.4</ele>
        <time>2021-08-08T12:44:35Z</time>
      </trkpt>
      <trkpt lat="48.10608" lon="-2.80431">
        <ele>93</ele>
        <time>2021-08-08T12:44:36Z</time>
      </trkpt>
      <trkpt lat="48.10608" lon="-2.80437">
        <ele>93</ele>
        <time>2021-08-08T12:44:37Z</time>
      </trkpt>
      <trkpt lat="48.10607" lon="-2.80442">
        <ele>93</ele>
        <time>2021-08-08T12:44:38Z</time>
      </trkpt>
      <trkpt lat="48.10606" lon="-2.80449">
        <ele>92.8</ele>
        <time>2021-08-08T12:44:39Z</time>
      </trkpt>
      <trkpt lat="48.10606" lon="-2.80455">
        <ele>92.8</ele>
        <time>2021-08-08T12:44:40Z</time>
      </trkpt>
      <trkpt lat="48.10606" lon="-2.8046">
        <ele>92.8</ele>
        <time>2021-08-08T12:44:41Z</time>
      </trkpt>
      <trkpt lat="48.10606" lon="-2.80466">
        <ele>92.8</ele>
        <time>2021-08-08T12:44:42Z</time>
      </trkpt>
      <trkpt lat="48.10606" lon="-2.80471">
        <ele>92.6</ele>
        <time>2021-08-08T12:44:43Z</time>
      </trkpt>
      <trkpt lat="48.10607" lon="-2.80477">
        <ele>92.6</ele>
        <time>2021-08-08T12:44:44Z</time>
      </trkpt>
      <trkpt lat="48.10607" lon="-2.80482">
        <ele>92.4</ele>
        <time>2021-08-08T12:44:45Z</time>
      </trkpt>
      <trkpt lat="48.10607" lon="-2.80488">
        <ele>92.2</ele>
        <time>2021-08-08T12:44:46Z</time>
      </trkpt>
      <trkpt lat="48.10606" lon="-2.80494">
        <ele>92</ele>
        <time>2021-08-08T12:44:47Z</time>
      </trkpt>
      <trkpt lat="48.10606" lon="-2.80502">
        <ele>92</ele>
        <time>2021-08-08T12:44:48Z</time>
      </trkpt>
      <trkpt lat="48.10605" lon="-2.80508">
        <ele>91.8</ele>
        <time>2021-08-08T12:44:49Z</time>
      </trkpt>
      <trkpt lat="48.10605" lon="-2.80513">
        <ele>91.8</ele>
        <time>2021-08-08T12:44:50Z</time>
      </trkpt>
      <trkpt lat="48.10605" lon="-2.8052">
        <ele>91.8</ele>
        <time>2021-08-08T12:44:51Z</time>
      </trkpt>
      <trkpt lat="48.10605" lon="-2.80528">
        <ele>91.8</ele>
        <time>2021-08-08T12:44:52Z</time>
      </trkpt>
      <trkpt lat="48.10605" lon="-2.80535">
        <ele>91.8</ele>
        <time>2021-08-08T12:44:53Z</time>
      </trkpt>
      <trkpt lat="48.10605" lon="-2.80541">
        <ele>91.6</ele>
        <time>2021-08-08T12:44:54Z</time>
      </trkpt>
      <trkpt lat="48.10605" lon="-2.80548">
        <ele>91.6</ele>
        <time>2021-08-08T12:44:55Z</time>
      </trkpt>
      <trkpt lat="48.10605" lon="-2.80554">
        <ele>91.6</ele>
        <time>2021-08-08T12:44:56Z</time>
      </trkpt>
      <trkpt lat="48.10604" lon="-2.80561">
        <ele>91.6</ele>
        <time>2021-08-08T12:44:57Z</time>
      </trkpt>
      <trkpt lat="48.10604" lon="-2.80568">
        <ele>91.8</ele>
        <time>2021-08-08T12:44:58Z</time>
      </trkpt>
      <trkpt lat="48.10604" lon="-2.80575">
        <ele>91.8</ele>
        <time>2021-08-08T12:44:59Z</time>
      </trkpt>
      <trkpt lat="48.10604" lon="-2.80583">
        <ele>91.8</ele>
        <time>2021-08-08T12:45:00Z</time>
      </trkpt>
      <trkpt lat="48.10604" lon="-2.8059">
        <ele>91.8</ele>
        <time>2021-08-08T12:45:01Z</time>
      </trkpt>
      <trkpt lat="48.10604" lon="-2.80597">
        <ele>91.8</ele>
        <time>2021-08-08T12:45:02Z</time>
      </trkpt>
      <trkpt lat="48.10603" lon="-2.80605">
        <ele>91.8</ele>
        <time>2021-08-08T12:45:03Z</time>
      </trkpt>
      <trkpt lat="48.10603" lon="-2.80613">
        <ele>91.8</ele>
        <time>2021-08-08T12:45:04Z</time>
      </trkpt>
      <trkpt lat="48.10603" lon="-2.80621">
        <ele>91.8</ele>
        <time>2021-08-08T12:45:05Z</time>
      </trkpt>
      <trkpt lat="48.10603" lon="-2.80629">
        <ele>92</ele>
        <time>2021-08-08T12:45:06Z</time>
      </trkpt>
      <trkpt lat="48.10602" lon="-2.80638">
        <ele>92</ele>
        <time>2021-08-08T12:45:07Z</time>
      </trkpt>
      <trkpt lat="48.10602" lon="-2.80645">
        <ele>92.2</ele>
        <time>2021-08-08T12:45:08Z</time>
      </trkpt>
      <trkpt lat="48.10602" lon="-2.80653">
        <ele>92.2</ele>
        <time>2021-08-08T12:45:09Z</time>
      </trkpt>
      <trkpt lat="48.10602" lon="-2.80662">
        <ele>92.4</ele>
        <time>2021-08-08T12:45:10Z</time>
      </trkpt>
      <trkpt lat="48.10601" lon="-2.80669">
        <ele>92.4</ele>
        <time>2021-08-08T12:45:11Z</time>
      </trkpt>
      <trkpt lat="48.10601" lon="-2.80676">
        <ele>92.4</ele>
        <time>2021-08-08T12:45:12Z</time>
      </trkpt>
      <trkpt lat="48.106" lon="-2.80683">
        <ele>92.6</ele>
        <time>2021-08-08T12:45:13Z</time>
      </trkpt>
      <trkpt lat="48.106" lon="-2.80689">
        <ele>92.4</ele>
        <time>2021-08-08T12:45:14Z</time>
      </trkpt>
      <trkpt lat="48.106" lon="-2.80695">
        <ele>92.4</ele>
        <time>2021-08-08T12:45:15Z</time>
      </trkpt>
      <trkpt lat="48.106" lon="-2.80701">
        <ele>92.4</ele>
        <time>2021-08-08T12:45:16Z</time>
      </trkpt>
      <trkpt lat="48.106" lon="-2.80708">
        <ele>92.4</ele>
        <time>2021-08-08T12:45:17Z</time>
      </trkpt>
      <trkpt lat="48.106" lon="-2.80714">
        <ele>92.4</ele>
        <time>2021-08-08T12:45:18Z</time>
      </trkpt>
      <trkpt lat="48.10599" lon="-2.8072">
        <ele>92.4</ele>
        <time>2021-08-08T12:45:19Z</time>
      </trkpt>
      <trkpt lat="48.10599" lon="-2.80726">
        <ele>92.4</ele>
        <time>2021-08-08T12:45:20Z</time>
      </trkpt>
      <trkpt lat="48.10598" lon="-2.80733">
        <ele>92.4</ele>
        <time>2021-08-08T12:45:21Z</time>
      </trkpt>
      <trkpt lat="48.10598" lon="-2.80739">
        <ele>92.4</ele>
        <time>2021-08-08T12:45:22Z</time>
      </trkpt>
      <trkpt lat="48.10598" lon="-2.80745">
        <ele>92.6</ele>
        <time>2021-08-08T12:45:23Z</time>
      </trkpt>
      <trkpt lat="48.10597" lon="-2.80751">
        <ele>92.8</ele>
        <time>2021-08-08T12:45:24Z</time>
      </trkpt>
      <trkpt lat="48.10597" lon="-2.80758">
        <ele>92.8</ele>
        <time>2021-08-08T12:45:25Z</time>
      </trkpt>
      <trkpt lat="48.10596" lon="-2.80764">
        <ele>92.8</ele>
        <time>2021-08-08T12:45:26Z</time>
      </trkpt>
      <trkpt lat="48.10596" lon="-2.80769">
        <ele>92.6</ele>
        <time>2021-08-08T12:45:27Z</time>
      </trkpt>
      <trkpt lat="48.10596" lon="-2.80775">
        <ele>92.6</ele>
        <time>2021-08-08T12:45:28Z</time>
      </trkpt>
      <trkpt lat="48.10596" lon="-2.80781">
        <ele>92.6</ele>
        <time>2021-08-08T12:45:29Z</time>
      </trkpt>
      <trkpt lat="48.10595" lon="-2.80787">
        <ele>92.6</ele>
        <time>2021-08-08T12:45:30Z</time>
      </trkpt>
      <trkpt lat="48.10595" lon="-2.80793">
        <ele>92.6</ele>
        <time>2021-08-08T12:45:31Z</time>
      </trkpt>
      <trkpt lat="48.10595" lon="-2.808">
        <ele>92.8</ele>
        <time>2021-08-08T12:45:32Z</time>
      </trkpt>
      <trkpt lat="48.10595" lon="-2.80806">
        <ele>93</ele>
        <time>2021-08-08T12:45:33Z</time>
      </trkpt>
      <trkpt lat="48.10595" lon="-2.80813">
        <ele>93.2</ele>
        <time>2021-08-08T12:45:34Z</time>
      </trkpt>
      <trkpt lat="48.10595" lon="-2.8082">
        <ele>93.2</ele>
        <time>2021-08-08T12:45:35Z</time>
      </trkpt>
      <trkpt lat="48.10595" lon="-2.80827">
        <ele>93.4</ele>
        <time>2021-08-08T12:45:36Z</time>
      </trkpt>
      <trkpt lat="48.10595" lon="-2.80834">
        <ele>93.4</ele>
        <time>2021-08-08T12:45:37Z</time>
      </trkpt>
      <trkpt lat="48.10595" lon="-2.8084">
        <ele>93.6</ele>
        <time>2021-08-08T12:45:38Z</time>
      </trkpt>
      <trkpt lat="48.10596" lon="-2.80846">
        <ele>93.6</ele>
        <time>2021-08-08T12:45:39Z</time>
      </trkpt>
      <trkpt lat="48.10597" lon="-2.80852">
        <ele>93.6</ele>
        <time>2021-08-08T12:45:40Z</time>
      </trkpt>
      <trkpt lat="48.10598" lon="-2.80859">
        <ele>93.6</ele>
        <time>2021-08-08T12:45:41Z</time>
      </trkpt>
      <trkpt lat="48.10599" lon="-2.80866">
        <ele>93.8</ele>
        <time>2021-08-08T12:45:42Z</time>
      </trkpt>
      <trkpt lat="48.106" lon="-2.80873">
        <ele>94.2</ele>
        <time>2021-08-08T12:45:43Z</time>
      </trkpt>
      <trkpt lat="48.10602" lon="-2.80879">
        <ele>94.2</ele>
        <time>2021-08-08T12:45:44Z</time>
      </trkpt>
      <trkpt lat="48.10603" lon="-2.80886">
        <ele>94.4</ele>
        <time>2021-08-08T12:45:45Z</time>
      </trkpt>
      <trkpt lat="48.10604" lon="-2.80892">
        <ele>94.4</ele>
        <time>2021-08-08T12:45:46Z</time>
      </trkpt>
      <trkpt lat="48.10606" lon="-2.80898">
        <ele>94.6</ele>
        <time>2021-08-08T12:45:47Z</time>
      </trkpt>
      <trkpt lat="48.10607" lon="-2.80903">
        <ele>94.6</ele>
        <time>2021-08-08T12:45:48Z</time>
      </trkpt>
      <trkpt lat="48.10609" lon="-2.80909">
        <ele>94.8</ele>
        <time>2021-08-08T12:45:49Z</time>
      </trkpt>
      <trkpt lat="48.1061" lon="-2.80916">
        <ele>94.8</ele>
        <time>2021-08-08T12:45:50Z</time>
      </trkpt>
      <trkpt lat="48.10611" lon="-2.80922">
        <ele>95</ele>
        <time>2021-08-08T12:45:51Z</time>
      </trkpt>
      <trkpt lat="48.10612" lon="-2.80927">
        <ele>95.2</ele>
        <time>2021-08-08T12:45:52Z</time>
      </trkpt>
      <trkpt lat="48.10613" lon="-2.80933">
        <ele>96</ele>
        <time>2021-08-08T12:45:53Z</time>
      </trkpt>
      <trkpt lat="48.10615" lon="-2.80939">
        <ele>96.2</ele>
        <time>2021-08-08T12:45:54Z</time>
      </trkpt>
      <trkpt lat="48.10616" lon="-2.80945">
        <ele>96.2</ele>
        <time>2021-08-08T12:45:55Z</time>
      </trkpt>
      <trkpt lat="48.10617" lon="-2.80951">
        <ele>96.4</ele>
        <time>2021-08-08T12:45:56Z</time>
      </trkpt>
      <trkpt lat="48.10618" lon="-2.80956">
        <ele>96.4</ele>
        <time>2021-08-08T12:45:57Z</time>
      </trkpt>
      <trkpt lat="48.10619" lon="-2.80961">
        <ele>96.4</ele>
        <time>2021-08-08T12:45:58Z</time>
      </trkpt>
      <trkpt lat="48.1062" lon="-2.80965">
        <ele>96.6</ele>
        <time>2021-08-08T12:45:59Z</time>
      </trkpt>
      <trkpt lat="48.10622" lon="-2.8097">
        <ele>96.6</ele>
        <time>2021-08-08T12:46:00Z</time>
      </trkpt>
      <trkpt lat="48.10623" lon="-2.80975">
        <ele>97</ele>
        <time>2021-08-08T12:46:01Z</time>
      </trkpt>
      <trkpt lat="48.10625" lon="-2.8098">
        <ele>97.2</ele>
        <time>2021-08-08T12:46:02Z</time>
      </trkpt>
      <trkpt lat="48.10626" lon="-2.80987">
        <ele>97.2</ele>
        <time>2021-08-08T12:46:03Z</time>
      </trkpt>
      <trkpt lat="48.10628" lon="-2.80993">
        <ele>97.4</ele>
        <time>2021-08-08T12:46:04Z</time>
      </trkpt>
      <trkpt lat="48.10629" lon="-2.81">
        <ele>97.4</ele>
        <time>2021-08-08T12:46:05Z</time>
      </trkpt>
      <trkpt lat="48.10631" lon="-2.81007">
        <ele>97.4</ele>
        <time>2021-08-08T12:46:06Z</time>
      </trkpt>
      <trkpt lat="48.10632" lon="-2.81014">
        <ele>97.4</ele>
        <time>2021-08-08T12:46:07Z</time>
      </trkpt>
      <trkpt lat="48.10634" lon="-2.8102">
        <ele>97.4</ele>
        <time>2021-08-08T12:46:08Z</time>
      </trkpt>
      <trkpt lat="48.10636" lon="-2.81026">
        <ele>97.4</ele>
        <time>2021-08-08T12:46:09Z</time>
      </trkpt>
      <trkpt lat="48.10638" lon="-2.81032">
        <ele>97.6</ele>
        <time>2021-08-08T12:46:10Z</time>
      </trkpt>
      <trkpt lat="48.1064" lon="-2.81039">
        <ele>97.6</ele>
        <time>2021-08-08T12:46:11Z</time>
      </trkpt>
      <trkpt lat="48.10643" lon="-2.81045">
        <ele>97.6</ele>
        <time>2021-08-08T12:46:12Z</time>
      </trkpt>
      <trkpt lat="48.10645" lon="-2.81051">
        <ele>97.8</ele>
        <time>2021-08-08T12:46:13Z</time>
      </trkpt>
      <trkpt lat="48.10648" lon="-2.81058">
        <ele>97.8</ele>
        <time>2021-08-08T12:46:14Z</time>
      </trkpt>
      <trkpt lat="48.10651" lon="-2.81064">
        <ele>97.8</ele>
        <time>2021-08-08T12:46:15Z</time>
      </trkpt>
      <trkpt lat="48.10653" lon="-2.8107">
        <ele>97.8</ele>
        <time>2021-08-08T12:46:16Z</time>
      </trkpt>
      <trkpt lat="48.10656" lon="-2.81076">
        <ele>97.8</ele>
        <time>2021-08-08T12:46:17Z</time>
      </trkpt>
      <trkpt lat="48.10658" lon="-2.81083">
        <ele>97.8</ele>
        <time>2021-08-08T12:46:18Z</time>
      </trkpt>
      <trkpt lat="48.10661" lon="-2.81089">
        <ele>97.8</ele>
        <time>2021-08-08T12:46:19Z</time>
      </trkpt>
      <trkpt lat="48.10664" lon="-2.81094">
        <ele>97.8</ele>
        <time>2021-08-08T12:46:20Z</time>
      </trkpt>
      <trkpt lat="48.10666" lon="-2.81099">
        <ele>97.8</ele>
        <time>2021-08-08T12:46:21Z</time>
      </trkpt>
      <trkpt lat="48.10668" lon="-2.81104">
        <ele>98</ele>
        <time>2021-08-08T12:46:22Z</time>
      </trkpt>
      <trkpt lat="48.10671" lon="-2.81109">
        <ele>98</ele>
        <time>2021-08-08T12:46:23Z</time>
      </trkpt>
      <trkpt lat="48.10673" lon="-2.81113">
        <ele>98</ele>
        <time>2021-08-08T12:46:24Z</time>
      </trkpt>
      <trkpt lat="48.10675" lon="-2.81118">
        <ele>98</ele>
        <time>2021-08-08T12:46:25Z</time>
      </trkpt>
      <trkpt lat="48.10678" lon="-2.81122">
        <ele>98.2</ele>
        <time>2021-08-08T12:46:26Z</time>
      </trkpt>
      <trkpt lat="48.1068" lon="-2.81127">
        <ele>98.2</ele>
        <time>2021-08-08T12:46:27Z</time>
      </trkpt>
      <trkpt lat="48.10682" lon="-2.81132">
        <ele>98.2</ele>
        <time>2021-08-08T12:46:28Z</time>
      </trkpt>
      <trkpt lat="48.10684" lon="-2.81136">
        <ele>98.4</ele>
        <time>2021-08-08T12:46:29Z</time>
      </trkpt>
      <trkpt lat="48.10687" lon="-2.81141">
        <ele>98.6</ele>
        <time>2021-08-08T12:46:30Z</time>
      </trkpt>
      <trkpt lat="48.10689" lon="-2.81146">
        <ele>98.8</ele>
        <time>2021-08-08T12:46:31Z</time>
      </trkpt>
      <trkpt lat="48.1069" lon="-2.81151">
        <ele>99</ele>
        <time>2021-08-08T12:46:32Z</time>
      </trkpt>
      <trkpt lat="48.10692" lon="-2.81155">
        <ele>99.2</ele>
        <time>2021-08-08T12:46:33Z</time>
      </trkpt>
      <trkpt lat="48.10694" lon="-2.8116">
        <ele>99.4</ele>
        <time>2021-08-08T12:46:34Z</time>
      </trkpt>
      <trkpt lat="48.10696" lon="-2.81164">
        <ele>99.8</ele>
        <time>2021-08-08T12:46:35Z</time>
      </trkpt>
      <trkpt lat="48.10698" lon="-2.81168">
        <ele>100</ele>
        <time>2021-08-08T12:46:36Z</time>
      </trkpt>
      <trkpt lat="48.10699" lon="-2.81172">
        <ele>100.2</ele>
        <time>2021-08-08T12:46:37Z</time>
      </trkpt>
      <trkpt lat="48.10701" lon="-2.81176">
        <ele>100.4</ele>
        <time>2021-08-08T12:46:38Z</time>
      </trkpt>
      <trkpt lat="48.10703" lon="-2.8118">
        <ele>100.4</ele>
        <time>2021-08-08T12:46:39Z</time>
      </trkpt>
      <trkpt lat="48.10704" lon="-2.81184">
        <ele>100.6</ele>
        <time>2021-08-08T12:46:40Z</time>
      </trkpt>
      <trkpt lat="48.10706" lon="-2.81189">
        <ele>100.6</ele>
        <time>2021-08-08T12:46:41Z</time>
      </trkpt>
      <trkpt lat="48.10708" lon="-2.81193">
        <ele>100.6</ele>
        <time>2021-08-08T12:46:42Z</time>
      </trkpt>
      <trkpt lat="48.1071" lon="-2.81197">
        <ele>100.8</ele>
        <time>2021-08-08T12:46:43Z</time>
      </trkpt>
      <trkpt lat="48.10713" lon="-2.81201">
        <ele>101</ele>
        <time>2021-08-08T12:46:44Z</time>
      </trkpt>
      <trkpt lat="48.10714" lon="-2.81206">
        <ele>101</ele>
        <time>2021-08-08T12:46:45Z</time>
      </trkpt>
      <trkpt lat="48.10716" lon="-2.81211">
        <ele>101</ele>
        <time>2021-08-08T12:46:46Z</time>
      </trkpt>
      <trkpt lat="48.10718" lon="-2.81215">
        <ele>101.2</ele>
        <time>2021-08-08T12:46:47Z</time>
      </trkpt>
      <trkpt lat="48.1072" lon="-2.8122">
        <ele>101.2</ele>
        <time>2021-08-08T12:46:48Z</time>
      </trkpt>
      <trkpt lat="48.10722" lon="-2.81224">
        <ele>101.2</ele>
        <time>2021-08-08T12:46:49Z</time>
      </trkpt>
      <trkpt lat="48.10724" lon="-2.81229">
        <ele>101.4</ele>
        <time>2021-08-08T12:46:50Z</time>
      </trkpt>
      <trkpt lat="48.10726" lon="-2.81233">
        <ele>101.4</ele>
        <time>2021-08-08T12:46:51Z</time>
      </trkpt>
      <trkpt lat="48.10728" lon="-2.81238">
        <ele>101.6</ele>
        <time>2021-08-08T12:46:52Z</time>
      </trkpt>
      <trkpt lat="48.10731" lon="-2.81243">
        <ele>101.6</ele>
        <time>2021-08-08T12:46:53Z</time>
      </trkpt>
      <trkpt lat="48.10733" lon="-2.81247">
        <ele>101.6</ele>
        <time>2021-08-08T12:46:54Z</time>
      </trkpt>
      <trkpt lat="48.10736" lon="-2.81252">
        <ele>101.6</ele>
        <time>2021-08-08T12:46:55Z</time>
      </trkpt>
      <trkpt lat="48.10738" lon="-2.81257">
        <ele>101.6</ele>
        <time>2021-08-08T12:46:56Z</time>
      </trkpt>
      <trkpt lat="48.1074" lon="-2.81261">
        <ele>101.8</ele>
        <time>2021-08-08T12:46:57Z</time>
      </trkpt>
      <trkpt lat="48.10743" lon="-2.81266">
        <ele>101.8</ele>
        <time>2021-08-08T12:46:58Z</time>
      </trkpt>
      <trkpt lat="48.10745" lon="-2.81271">
        <ele>101.8</ele>
        <time>2021-08-08T12:46:59Z</time>
      </trkpt>
      <trkpt lat="48.10747" lon="-2.81276">
        <ele>102</ele>
        <time>2021-08-08T12:47:00Z</time>
      </trkpt>
      <trkpt lat="48.1075" lon="-2.81281">
        <ele>102</ele>
        <time>2021-08-08T12:47:01Z</time>
      </trkpt>
      <trkpt lat="48.10752" lon="-2.81286">
        <ele>102.2</ele>
        <time>2021-08-08T12:47:02Z</time>
      </trkpt>
      <trkpt lat="48.10754" lon="-2.81291">
        <ele>102.2</ele>
        <time>2021-08-08T12:47:03Z</time>
      </trkpt>
      <trkpt lat="48.10756" lon="-2.81295">
        <ele>102</ele>
        <time>2021-08-08T12:47:04Z</time>
      </trkpt>
      <trkpt lat="48.10758" lon="-2.81299">
        <ele>102</ele>
        <time>2021-08-08T12:47:05Z</time>
      </trkpt>
      <trkpt lat="48.1076" lon="-2.81302">
        <ele>102.2</ele>
        <time>2021-08-08T12:47:06Z</time>
      </trkpt>
      <trkpt lat="48.10762" lon="-2.81306">
        <ele>102.2</ele>
        <time>2021-08-08T12:47:07Z</time>
      </trkpt>
      <trkpt lat="48.10765" lon="-2.81309">
        <ele>102.4</ele>
        <time>2021-08-08T12:47:08Z</time>
      </trkpt>
      <trkpt lat="48.10766" lon="-2.81312">
        <ele>102.8</ele>
        <time>2021-08-08T12:47:09Z</time>
      </trkpt>
      <trkpt lat="48.10768" lon="-2.81316">
        <ele>102.8</ele>
        <time>2021-08-08T12:47:10Z</time>
      </trkpt>
      <trkpt lat="48.10769" lon="-2.81319">
        <ele>103</ele>
        <time>2021-08-08T12:47:11Z</time>
      </trkpt>
      <trkpt lat="48.1077" lon="-2.81322">
        <ele>103.2</ele>
        <time>2021-08-08T12:47:12Z</time>
      </trkpt>
      <trkpt lat="48.10771" lon="-2.81324">
        <ele>103.2</ele>
        <time>2021-08-08T12:47:13Z</time>
      </trkpt>
      <trkpt lat="48.10772" lon="-2.81327">
        <ele>103.4</ele>
        <time>2021-08-08T12:47:14Z</time>
      </trkpt>
      <trkpt lat="48.10774" lon="-2.81331">
        <ele>103.6</ele>
        <time>2021-08-08T12:47:15Z</time>
      </trkpt>
      <trkpt lat="48.10776" lon="-2.81334">
        <ele>103.6</ele>
        <time>2021-08-08T12:47:16Z</time>
      </trkpt>
      <trkpt lat="48.10777" lon="-2.81338">
        <ele>103.6</ele>
        <time>2021-08-08T12:47:17Z</time>
      </trkpt>
      <trkpt lat="48.10779" lon="-2.81342">
        <ele>103.6</ele>
        <time>2021-08-08T12:47:18Z</time>
      </trkpt>
      <trkpt lat="48.10781" lon="-2.81346">
        <ele>103.6</ele>
        <time>2021-08-08T12:47:19Z</time>
      </trkpt>
      <trkpt lat="48.10783" lon="-2.8135">
        <ele>103.6</ele>
        <time>2021-08-08T12:47:20Z</time>
      </trkpt>
      <trkpt lat="48.10786" lon="-2.81355">
        <ele>103.6</ele>
        <time>2021-08-08T12:47:21Z</time>
      </trkpt>
      <trkpt lat="48.10788" lon="-2.81359">
        <ele>103.6</ele>
        <time>2021-08-08T12:47:22Z</time>
      </trkpt>
      <trkpt lat="48.1079" lon="-2.81364">
        <ele>103.6</ele>
        <time>2021-08-08T12:47:23Z</time>
      </trkpt>
      <trkpt lat="48.10793" lon="-2.81369">
        <ele>103.6</ele>
        <time>2021-08-08T12:47:24Z</time>
      </trkpt>
      <trkpt lat="48.10795" lon="-2.81374">
        <ele>103.6</ele>
        <time>2021-08-08T12:47:25Z</time>
      </trkpt>
      <trkpt lat="48.10796" lon="-2.81378">
        <ele>103.6</ele>
        <time>2021-08-08T12:47:26Z</time>
      </trkpt>
      <trkpt lat="48.10798" lon="-2.81383">
        <ele>103.6</ele>
        <time>2021-08-08T12:47:27Z</time>
      </trkpt>
      <trkpt lat="48.108" lon="-2.81387">
        <ele>103.4</ele>
        <time>2021-08-08T12:47:28Z</time>
      </trkpt>
      <trkpt lat="48.10802" lon="-2.81391">
        <ele>103.4</ele>
        <time>2021-08-08T12:47:29Z</time>
      </trkpt>
      <trkpt lat="48.10803" lon="-2.81395">
        <ele>103.4</ele>
        <time>2021-08-08T12:47:30Z</time>
      </trkpt>
      <trkpt lat="48.10805" lon="-2.81399">
        <ele>103.4</ele>
        <time>2021-08-08T12:47:31Z</time>
      </trkpt>
      <trkpt lat="48.10807" lon="-2.81402">
        <ele>103.4</ele>
        <time>2021-08-08T12:47:32Z</time>
      </trkpt>
      <trkpt lat="48.10809" lon="-2.81405">
        <ele>103.4</ele>
        <time>2021-08-08T12:47:33Z</time>
      </trkpt>
      <trkpt lat="48.10811" lon="-2.81407">
        <ele>103.4</ele>
        <time>2021-08-08T12:47:34Z</time>
      </trkpt>
      <trkpt lat="48.10814" lon="-2.81411">
        <ele>103.4</ele>
        <time>2021-08-08T12:47:35Z</time>
      </trkpt>
      <trkpt lat="48.10816" lon="-2.81416">
        <ele>103.4</ele>
        <time>2021-08-08T12:47:36Z</time>
      </trkpt>
      <trkpt lat="48.10818" lon="-2.81421">
        <ele>103.4</ele>
        <time>2021-08-08T12:47:37Z</time>
      </trkpt>
      <trkpt lat="48.10821" lon="-2.81425">
        <ele>103.6</ele>
        <time>2021-08-08T12:47:38Z</time>
      </trkpt>
      <trkpt lat="48.10823" lon="-2.8143">
        <ele>103.8</ele>
        <time>2021-08-08T12:47:39Z</time>
      </trkpt>
      <trkpt lat="48.10825" lon="-2.81434">
        <ele>104</ele>
        <time>2021-08-08T12:47:40Z</time>
      </trkpt>
      <trkpt lat="48.10828" lon="-2.81439">
        <ele>104.2</ele>
        <time>2021-08-08T12:47:41Z</time>
      </trkpt>
      <trkpt lat="48.10831" lon="-2.81443">
        <ele>104.2</ele>
        <time>2021-08-08T12:47:42Z</time>
      </trkpt>
      <trkpt lat="48.10833" lon="-2.81449">
        <ele>104.2</ele>
        <time>2021-08-08T12:47:43Z</time>
      </trkpt>
      <trkpt lat="48.10836" lon="-2.81455">
        <ele>104.2</ele>
        <time>2021-08-08T12:47:44Z</time>
      </trkpt>
      <trkpt lat="48.10838" lon="-2.8146">
        <ele>104.2</ele>
        <time>2021-08-08T12:47:45Z</time>
      </trkpt>
      <trkpt lat="48.10841" lon="-2.81465">
        <ele>104.2</ele>
        <time>2021-08-08T12:47:46Z</time>
      </trkpt>
      <trkpt lat="48.10844" lon="-2.81469">
        <ele>104.2</ele>
        <time>2021-08-08T12:47:47Z</time>
      </trkpt>
      <trkpt lat="48.10846" lon="-2.81474">
        <ele>104.2</ele>
        <time>2021-08-08T12:47:48Z</time>
      </trkpt>
      <trkpt lat="48.10849" lon="-2.81479">
        <ele>104.2</ele>
        <time>2021-08-08T12:47:49Z</time>
      </trkpt>
      <trkpt lat="48.10851" lon="-2.81485">
        <ele>104.2</ele>
        <time>2021-08-08T12:47:50Z</time>
      </trkpt>
      <trkpt lat="48.10854" lon="-2.8149">
        <ele>104.2</ele>
        <time>2021-08-08T12:47:51Z</time>
      </trkpt>
      <trkpt lat="48.10857" lon="-2.81496">
        <ele>104</ele>
        <time>2021-08-08T12:47:52Z</time>
      </trkpt>
      <trkpt lat="48.10859" lon="-2.81502">
        <ele>104</ele>
        <time>2021-08-08T12:47:53Z</time>
      </trkpt>
      <trkpt lat="48.10862" lon="-2.81507">
        <ele>104</ele>
        <time>2021-08-08T12:47:54Z</time>
      </trkpt>
      <trkpt lat="48.10864" lon="-2.81512">
        <ele>104</ele>
        <time>2021-08-08T12:47:55Z</time>
      </trkpt>
      <trkpt lat="48.10866" lon="-2.81518">
        <ele>104</ele>
        <time>2021-08-08T12:47:56Z</time>
      </trkpt>
      <trkpt lat="48.10869" lon="-2.81523">
        <ele>104</ele>
        <time>2021-08-08T12:47:57Z</time>
      </trkpt>
      <trkpt lat="48.10871" lon="-2.81529">
        <ele>104</ele>
        <time>2021-08-08T12:47:58Z</time>
      </trkpt>
      <trkpt lat="48.10873" lon="-2.81536">
        <ele>104</ele>
        <time>2021-08-08T12:47:59Z</time>
      </trkpt>
      <trkpt lat="48.10876" lon="-2.81542">
        <ele>104</ele>
        <time>2021-08-08T12:48:00Z</time>
      </trkpt>
      <trkpt lat="48.10878" lon="-2.81548">
        <ele>104</ele>
        <time>2021-08-08T12:48:01Z</time>
      </trkpt>
      <trkpt lat="48.1088" lon="-2.81554">
        <ele>104</ele>
        <time>2021-08-08T12:48:02Z</time>
      </trkpt>
      <trkpt lat="48.10882" lon="-2.81559">
        <ele>104.2</ele>
        <time>2021-08-08T12:48:03Z</time>
      </trkpt>
      <trkpt lat="48.10884" lon="-2.81564">
        <ele>104.4</ele>
        <time>2021-08-08T12:48:04Z</time>
      </trkpt>
      <trkpt lat="48.10886" lon="-2.8157">
        <ele>104.6</ele>
        <time>2021-08-08T12:48:05Z</time>
      </trkpt>
      <trkpt lat="48.10887" lon="-2.81574">
        <ele>104.8</ele>
        <time>2021-08-08T12:48:06Z</time>
      </trkpt>
      <trkpt lat="48.10889" lon="-2.81578">
        <ele>105</ele>
        <time>2021-08-08T12:48:07Z</time>
      </trkpt>
      <trkpt lat="48.10891" lon="-2.81582">
        <ele>105.2</ele>
        <time>2021-08-08T12:48:08Z</time>
      </trkpt>
      <trkpt lat="48.10893" lon="-2.81587">
        <ele>105.4</ele>
        <time>2021-08-08T12:48:09Z</time>
      </trkpt>
      <trkpt lat="48.10894" lon="-2.81591">
        <ele>105.4</ele>
        <time>2021-08-08T12:48:10Z</time>
      </trkpt>
      <trkpt lat="48.10896" lon="-2.81595">
        <ele>105.6</ele>
        <time>2021-08-08T12:48:11Z</time>
      </trkpt>
      <trkpt lat="48.10898" lon="-2.816">
        <ele>105.6</ele>
        <time>2021-08-08T12:48:12Z</time>
      </trkpt>
      <trkpt lat="48.109" lon="-2.81605">
        <ele>105.6</ele>
        <time>2021-08-08T12:48:13Z</time>
      </trkpt>
      <trkpt lat="48.10902" lon="-2.8161">
        <ele>105.6</ele>
        <time>2021-08-08T12:48:14Z</time>
      </trkpt>
      <trkpt lat="48.10905" lon="-2.81615">
        <ele>105.8</ele>
        <time>2021-08-08T12:48:15Z</time>
      </trkpt>
      <trkpt lat="48.10907" lon="-2.8162">
        <ele>105.8</ele>
        <time>2021-08-08T12:48:16Z</time>
      </trkpt>
      <trkpt lat="48.10909" lon="-2.81625">
        <ele>105.8</ele>
        <time>2021-08-08T12:48:17Z</time>
      </trkpt>
      <trkpt lat="48.10911" lon="-2.81629">
        <ele>105.8</ele>
        <time>2021-08-08T12:48:18Z</time>
      </trkpt>
      <trkpt lat="48.10913" lon="-2.81635">
        <ele>105.8</ele>
        <time>2021-08-08T12:48:19Z</time>
      </trkpt>
      <trkpt lat="48.10915" lon="-2.8164">
        <ele>105.8</ele>
        <time>2021-08-08T12:48:20Z</time>
      </trkpt>
      <trkpt lat="48.10917" lon="-2.81646">
        <ele>106</ele>
        <time>2021-08-08T12:48:21Z</time>
      </trkpt>
      <trkpt lat="48.10919" lon="-2.81651">
        <ele>106</ele>
        <time>2021-08-08T12:48:22Z</time>
      </trkpt>
      <trkpt lat="48.10921" lon="-2.81656">
        <ele>106</ele>
        <time>2021-08-08T12:48:23Z</time>
      </trkpt>
      <trkpt lat="48.10923" lon="-2.81661">
        <ele>106.2</ele>
        <time>2021-08-08T12:48:24Z</time>
      </trkpt>
      <trkpt lat="48.10926" lon="-2.81667">
        <ele>106.2</ele>
        <time>2021-08-08T12:48:25Z</time>
      </trkpt>
      <trkpt lat="48.10928" lon="-2.81674">
        <ele>106.2</ele>
        <time>2021-08-08T12:48:26Z</time>
      </trkpt>
      <trkpt lat="48.10931" lon="-2.8168">
        <ele>106.2</ele>
        <time>2021-08-08T12:48:27Z</time>
      </trkpt>
      <trkpt lat="48.10934" lon="-2.81686">
        <ele>106.2</ele>
        <time>2021-08-08T12:48:28Z</time>
      </trkpt>
      <trkpt lat="48.10936" lon="-2.81692">
        <ele>106.2</ele>
        <time>2021-08-08T12:48:29Z</time>
      </trkpt>
      <trkpt lat="48.10938" lon="-2.81698">
        <ele>106.2</ele>
        <time>2021-08-08T12:48:30Z</time>
      </trkpt>
      <trkpt lat="48.10941" lon="-2.81703">
        <ele>106.4</ele>
        <time>2021-08-08T12:48:31Z</time>
      </trkpt>
      <trkpt lat="48.10943" lon="-2.81709">
        <ele>106.4</ele>
        <time>2021-08-08T12:48:32Z</time>
      </trkpt>
      <trkpt lat="48.10946" lon="-2.81714">
        <ele>106.6</ele>
        <time>2021-08-08T12:48:33Z</time>
      </trkpt>
      <trkpt lat="48.10948" lon="-2.8172">
        <ele>106.6</ele>
        <time>2021-08-08T12:48:34Z</time>
      </trkpt>
      <trkpt lat="48.10951" lon="-2.81726">
        <ele>106.8</ele>
        <time>2021-08-08T12:48:35Z</time>
      </trkpt>
      <trkpt lat="48.10953" lon="-2.81731">
        <ele>106.8</ele>
        <time>2021-08-08T12:48:36Z</time>
      </trkpt>
      <trkpt lat="48.10955" lon="-2.81738">
        <ele>106.8</ele>
        <time>2021-08-08T12:48:37Z</time>
      </trkpt>
      <trkpt lat="48.10957" lon="-2.81744">
        <ele>106.8</ele>
        <time>2021-08-08T12:48:38Z</time>
      </trkpt>
      <trkpt lat="48.10959" lon="-2.81749">
        <ele>107</ele>
        <time>2021-08-08T12:48:39Z</time>
      </trkpt>
      <trkpt lat="48.10961" lon="-2.81754">
        <ele>107</ele>
        <time>2021-08-08T12:48:40Z</time>
      </trkpt>
      <trkpt lat="48.10963" lon="-2.81759">
        <ele>107</ele>
        <time>2021-08-08T12:48:41Z</time>
      </trkpt>
      <trkpt lat="48.10964" lon="-2.81763">
        <ele>107</ele>
        <time>2021-08-08T12:48:42Z</time>
      </trkpt>
      <trkpt lat="48.10966" lon="-2.81767">
        <ele>107.2</ele>
        <time>2021-08-08T12:48:43Z</time>
      </trkpt>
      <trkpt lat="48.10968" lon="-2.81771">
        <ele>107.2</ele>
        <time>2021-08-08T12:48:44Z</time>
      </trkpt>
      <trkpt lat="48.1097" lon="-2.81775">
        <ele>107.2</ele>
        <time>2021-08-08T12:48:45Z</time>
      </trkpt>
      <trkpt lat="48.10972" lon="-2.8178">
        <ele>107.2</ele>
        <time>2021-08-08T12:48:46Z</time>
      </trkpt>
      <trkpt lat="48.10974" lon="-2.81784">
        <ele>107.4</ele>
        <time>2021-08-08T12:48:47Z</time>
      </trkpt>
      <trkpt lat="48.10975" lon="-2.81788">
        <ele>107.4</ele>
        <time>2021-08-08T12:48:48Z</time>
      </trkpt>
      <trkpt lat="48.10977" lon="-2.81793">
        <ele>107.8</ele>
        <time>2021-08-08T12:48:49Z</time>
      </trkpt>
      <trkpt lat="48.10979" lon="-2.81797">
        <ele>107.8</ele>
        <time>2021-08-08T12:48:50Z</time>
      </trkpt>
      <trkpt lat="48.10981" lon="-2.81801">
        <ele>108</ele>
        <time>2021-08-08T12:48:51Z</time>
      </trkpt>
      <trkpt lat="48.10982" lon="-2.81806">
        <ele>108</ele>
        <time>2021-08-08T12:48:52Z</time>
      </trkpt>
      <trkpt lat="48.10984" lon="-2.8181">
        <ele>108</ele>
        <time>2021-08-08T12:48:53Z</time>
      </trkpt>
      <trkpt lat="48.10986" lon="-2.81815">
        <ele>108</ele>
        <time>2021-08-08T12:48:54Z</time>
      </trkpt>
      <trkpt lat="48.10988" lon="-2.81821">
        <ele>108.2</ele>
        <time>2021-08-08T12:48:55Z</time>
      </trkpt>
      <trkpt lat="48.10991" lon="-2.81825">
        <ele>108.2</ele>
        <time>2021-08-08T12:48:56Z</time>
      </trkpt>
      <trkpt lat="48.10993" lon="-2.8183">
        <ele>108.2</ele>
        <time>2021-08-08T12:48:57Z</time>
      </trkpt>
      <trkpt lat="48.10995" lon="-2.81836">
        <ele>108.2</ele>
        <time>2021-08-08T12:48:58Z</time>
      </trkpt>
      <trkpt lat="48.10997" lon="-2.81841">
        <ele>108.2</ele>
        <time>2021-08-08T12:48:59Z</time>
      </trkpt>
      <trkpt lat="48.11" lon="-2.81845">
        <ele>108.2</ele>
        <time>2021-08-08T12:49:00Z</time>
      </trkpt>
      <trkpt lat="48.11002" lon="-2.8185">
        <ele>108.2</ele>
        <time>2021-08-08T12:49:01Z</time>
      </trkpt>
      <trkpt lat="48.11004" lon="-2.81854">
        <ele>108.2</ele>
        <time>2021-08-08T12:49:02Z</time>
      </trkpt>
      <trkpt lat="48.11006" lon="-2.81858">
        <ele>108.2</ele>
        <time>2021-08-08T12:49:03Z</time>
      </trkpt>
      <trkpt lat="48.11008" lon="-2.81862">
        <ele>108.2</ele>
        <time>2021-08-08T12:49:04Z</time>
      </trkpt>
      <trkpt lat="48.1101" lon="-2.81866">
        <ele>108.2</ele>
        <time>2021-08-08T12:49:05Z</time>
      </trkpt>
      <trkpt lat="48.11012" lon="-2.81872">
        <ele>108.2</ele>
        <time>2021-08-08T12:49:06Z</time>
      </trkpt>
      <trkpt lat="48.11014" lon="-2.81877">
        <ele>108.2</ele>
        <time>2021-08-08T12:49:07Z</time>
      </trkpt>
      <trkpt lat="48.11016" lon="-2.81882">
        <ele>108.2</ele>
        <time>2021-08-08T12:49:08Z</time>
      </trkpt>
      <trkpt lat="48.11018" lon="-2.81887">
        <ele>108.2</ele>
        <time>2021-08-08T12:49:09Z</time>
      </trkpt>
      <trkpt lat="48.1102" lon="-2.81893">
        <ele>108.2</ele>
        <time>2021-08-08T12:49:10Z</time>
      </trkpt>
      <trkpt lat="48.11022" lon="-2.81899">
        <ele>108.2</ele>
        <time>2021-08-08T12:49:11Z</time>
      </trkpt>
      <trkpt lat="48.11025" lon="-2.81904">
        <ele>108.2</ele>
        <time>2021-08-08T12:49:12Z</time>
      </trkpt>
      <trkpt lat="48.11027" lon="-2.8191">
        <ele>108.2</ele>
        <time>2021-08-08T12:49:13Z</time>
      </trkpt>
      <trkpt lat="48.11029" lon="-2.81915">
        <ele>108.2</ele>
        <time>2021-08-08T12:49:14Z</time>
      </trkpt>
      <trkpt lat="48.11031" lon="-2.8192">
        <ele>108.2</ele>
        <time>2021-08-08T12:49:15Z</time>
      </trkpt>
      <trkpt lat="48.11033" lon="-2.81926">
        <ele>108.4</ele>
        <time>2021-08-08T12:49:16Z</time>
      </trkpt>
      <trkpt lat="48.11035" lon="-2.8193">
        <ele>108.4</ele>
        <time>2021-08-08T12:49:17Z</time>
      </trkpt>
      <trkpt lat="48.11037" lon="-2.81935">
        <ele>108.4</ele>
        <time>2021-08-08T12:49:18Z</time>
      </trkpt>
      <trkpt lat="48.11039" lon="-2.81939">
        <ele>108.4</ele>
        <time>2021-08-08T12:49:19Z</time>
      </trkpt>
      <trkpt lat="48.1104" lon="-2.81944">
        <ele>108.4</ele>
        <time>2021-08-08T12:49:20Z</time>
      </trkpt>
      <trkpt lat="48.11042" lon="-2.81948">
        <ele>108.6</ele>
        <time>2021-08-08T12:49:21Z</time>
      </trkpt>
      <trkpt lat="48.11044" lon="-2.81952">
        <ele>108.8</ele>
        <time>2021-08-08T12:49:22Z</time>
      </trkpt>
      <trkpt lat="48.11046" lon="-2.81956">
        <ele>109.2</ele>
        <time>2021-08-08T12:49:23Z</time>
      </trkpt>
      <trkpt lat="48.11048" lon="-2.81961">
        <ele>109.4</ele>
        <time>2021-08-08T12:49:24Z</time>
      </trkpt>
      <trkpt lat="48.1105" lon="-2.81965">
        <ele>109.6</ele>
        <time>2021-08-08T12:49:25Z</time>
      </trkpt>
      <trkpt lat="48.11052" lon="-2.8197">
        <ele>109.8</ele>
        <time>2021-08-08T12:49:26Z</time>
      </trkpt>
      <trkpt lat="48.11054" lon="-2.81974">
        <ele>109.8</ele>
        <time>2021-08-08T12:49:27Z</time>
      </trkpt>
      <trkpt lat="48.11056" lon="-2.81978">
        <ele>110</ele>
        <time>2021-08-08T12:49:28Z</time>
      </trkpt>
      <trkpt lat="48.11058" lon="-2.81982">
        <ele>110.2</ele>
        <time>2021-08-08T12:49:29Z</time>
      </trkpt>
      <trkpt lat="48.1106" lon="-2.81987">
        <ele>110.2</ele>
        <time>2021-08-08T12:49:30Z</time>
      </trkpt>
      <trkpt lat="48.11062" lon="-2.81991">
        <ele>110.4</ele>
        <time>2021-08-08T12:49:31Z</time>
      </trkpt>
      <trkpt lat="48.11064" lon="-2.81995">
        <ele>110.4</ele>
        <time>2021-08-08T12:49:32Z</time>
      </trkpt>
      <trkpt lat="48.11066" lon="-2.82">
        <ele>110.4</ele>
        <time>2021-08-08T12:49:33Z</time>
      </trkpt>
      <trkpt lat="48.11068" lon="-2.82005">
        <ele>110.4</ele>
        <time>2021-08-08T12:49:34Z</time>
      </trkpt>
      <trkpt lat="48.1107" lon="-2.8201">
        <ele>110.6</ele>
        <time>2021-08-08T12:49:35Z</time>
      </trkpt>
      <trkpt lat="48.11072" lon="-2.82014">
        <ele>110.6</ele>
        <time>2021-08-08T12:49:36Z</time>
      </trkpt>
      <trkpt lat="48.11074" lon="-2.82019">
        <ele>110.6</ele>
        <time>2021-08-08T12:49:37Z</time>
      </trkpt>
      <trkpt lat="48.11076" lon="-2.82024">
        <ele>110.6</ele>
        <time>2021-08-08T12:49:38Z</time>
      </trkpt>
      <trkpt lat="48.11078" lon="-2.82029">
        <ele>110.6</ele>
        <time>2021-08-08T12:49:39Z</time>
      </trkpt>
      <trkpt lat="48.1108" lon="-2.82033">
        <ele>110.8</ele>
        <time>2021-08-08T12:49:40Z</time>
      </trkpt>
      <trkpt lat="48.11082" lon="-2.82038">
        <ele>110.8</ele>
        <time>2021-08-08T12:49:41Z</time>
      </trkpt>
      <trkpt lat="48.11084" lon="-2.82043">
        <ele>110.8</ele>
        <time>2021-08-08T12:49:42Z</time>
      </trkpt>
      <trkpt lat="48.11086" lon="-2.82047">
        <ele>111</ele>
        <time>2021-08-08T12:49:43Z</time>
      </trkpt>
      <trkpt lat="48.11088" lon="-2.82051">
        <ele>111</ele>
        <time>2021-08-08T12:49:44Z</time>
      </trkpt>
      <trkpt lat="48.1109" lon="-2.82056">
        <ele>111</ele>
        <time>2021-08-08T12:49:45Z</time>
      </trkpt>
      <trkpt lat="48.11093" lon="-2.8206">
        <ele>111.2</ele>
        <time>2021-08-08T12:49:46Z</time>
      </trkpt>
      <trkpt lat="48.11094" lon="-2.82064">
        <ele>111.2</ele>
        <time>2021-08-08T12:49:47Z</time>
      </trkpt>
      <trkpt lat="48.11096" lon="-2.82068">
        <ele>111.2</ele>
        <time>2021-08-08T12:49:48Z</time>
      </trkpt>
      <trkpt lat="48.11098" lon="-2.82073">
        <ele>111.2</ele>
        <time>2021-08-08T12:49:49Z</time>
      </trkpt>
      <trkpt lat="48.111" lon="-2.82077">
        <ele>111.2</ele>
        <time>2021-08-08T12:49:50Z</time>
      </trkpt>
      <trkpt lat="48.11102" lon="-2.8208">
        <ele>111.4</ele>
        <time>2021-08-08T12:49:51Z</time>
      </trkpt>
      <trkpt lat="48.11103" lon="-2.82084">
        <ele>111.4</ele>
        <time>2021-08-08T12:49:52Z</time>
      </trkpt>
      <trkpt lat="48.11105" lon="-2.82087">
        <ele>111.4</ele>
        <time>2021-08-08T12:49:53Z</time>
      </trkpt>
      <trkpt lat="48.11106" lon="-2.82089">
        <ele>111.4</ele>
        <time>2021-08-08T12:49:54Z</time>
      </trkpt>
      <trkpt lat="48.11108" lon="-2.82093">
        <ele>111.4</ele>
        <time>2021-08-08T12:49:55Z</time>
      </trkpt>
      <trkpt lat="48.11109" lon="-2.82095">
        <ele>111.4</ele>
        <time>2021-08-08T12:49:56Z</time>
      </trkpt>
      <trkpt lat="48.11111" lon="-2.82098">
        <ele>111.6</ele>
        <time>2021-08-08T12:49:57Z</time>
      </trkpt>
      <trkpt lat="48.11112" lon="-2.82102">
        <ele>111.6</ele>
        <time>2021-08-08T12:49:58Z</time>
      </trkpt>
      <trkpt lat="48.11113" lon="-2.82106">
        <ele>111.6</ele>
        <time>2021-08-08T12:49:59Z</time>
      </trkpt>
      <trkpt lat="48.11114" lon="-2.8211">
        <ele>111.6</ele>
        <time>2021-08-08T12:50:00Z</time>
      </trkpt>
      <trkpt lat="48.11116" lon="-2.82113">
        <ele>111.6</ele>
        <time>2021-08-08T12:50:01Z</time>
      </trkpt>
      <trkpt lat="48.11118" lon="-2.82117">
        <ele>111.6</ele>
        <time>2021-08-08T12:50:02Z</time>
      </trkpt>
      <trkpt lat="48.1112" lon="-2.82121">
        <ele>111.6</ele>
        <time>2021-08-08T12:50:03Z</time>
      </trkpt>
      <trkpt lat="48.11122" lon="-2.82125">
        <ele>111.6</ele>
        <time>2021-08-08T12:50:04Z</time>
      </trkpt>
      <trkpt lat="48.11123" lon="-2.82129">
        <ele>111.8</ele>
        <time>2021-08-08T12:50:05Z</time>
      </trkpt>
      <trkpt lat="48.11124" lon="-2.82134">
        <ele>111.8</ele>
        <time>2021-08-08T12:50:06Z</time>
      </trkpt>
      <trkpt lat="48.11126" lon="-2.82138">
        <ele>111.8</ele>
        <time>2021-08-08T12:50:07Z</time>
      </trkpt>
      <trkpt lat="48.11128" lon="-2.82143">
        <ele>111.8</ele>
        <time>2021-08-08T12:50:08Z</time>
      </trkpt>
      <trkpt lat="48.11129" lon="-2.82148">
        <ele>111.8</ele>
        <time>2021-08-08T12:50:09Z</time>
      </trkpt>
      <trkpt lat="48.11131" lon="-2.82152">
        <ele>112</ele>
        <time>2021-08-08T12:50:10Z</time>
      </trkpt>
      <trkpt lat="48.11133" lon="-2.82157">
        <ele>112</ele>
        <time>2021-08-08T12:50:11Z</time>
      </trkpt>
      <trkpt lat="48.11136" lon="-2.82162">
        <ele>112.2</ele>
        <time>2021-08-08T12:50:12Z</time>
      </trkpt>
      <trkpt lat="48.11138" lon="-2.82168">
        <ele>112.2</ele>
        <time>2021-08-08T12:50:13Z</time>
      </trkpt>
      <trkpt lat="48.1114" lon="-2.82173">
        <ele>112.4</ele>
        <time>2021-08-08T12:50:14Z</time>
      </trkpt>
      <trkpt lat="48.11143" lon="-2.82178">
        <ele>112.4</ele>
        <time>2021-08-08T12:50:15Z</time>
      </trkpt>
      <trkpt lat="48.11145" lon="-2.82182">
        <ele>112.4</ele>
        <time>2021-08-08T12:50:16Z</time>
      </trkpt>
      <trkpt lat="48.11147" lon="-2.82188">
        <ele>112.6</ele>
        <time>2021-08-08T12:50:17Z</time>
      </trkpt>
      <trkpt lat="48.1115" lon="-2.82193">
        <ele>112.6</ele>
        <time>2021-08-08T12:50:18Z</time>
      </trkpt>
      <trkpt lat="48.11153" lon="-2.82199">
        <ele>112.6</ele>
        <time>2021-08-08T12:50:19Z</time>
      </trkpt>
      <trkpt lat="48.11155" lon="-2.82206">
        <ele>112.6</ele>
        <time>2021-08-08T12:50:20Z</time>
      </trkpt>
      <trkpt lat="48.11157" lon="-2.82213">
        <ele>112.6</ele>
        <time>2021-08-08T12:50:21Z</time>
      </trkpt>
      <trkpt lat="48.11159" lon="-2.82221">
        <ele>112.8</ele>
        <time>2021-08-08T12:50:22Z</time>
      </trkpt>
      <trkpt lat="48.11161" lon="-2.82228">
        <ele>113</ele>
        <time>2021-08-08T12:50:23Z</time>
      </trkpt>
      <trkpt lat="48.11163" lon="-2.82235">
        <ele>113</ele>
        <time>2021-08-08T12:50:24Z</time>
      </trkpt>
      <trkpt lat="48.11165" lon="-2.82242">
        <ele>113.2</ele>
        <time>2021-08-08T12:50:25Z</time>
      </trkpt>
      <trkpt lat="48.11167" lon="-2.8225">
        <ele>113.2</ele>
        <time>2021-08-08T12:50:26Z</time>
      </trkpt>
      <trkpt lat="48.11169" lon="-2.82257">
        <ele>113.2</ele>
        <time>2021-08-08T12:50:27Z</time>
      </trkpt>
      <trkpt lat="48.11171" lon="-2.82265">
        <ele>113.2</ele>
        <time>2021-08-08T12:50:28Z</time>
      </trkpt>
      <trkpt lat="48.11172" lon="-2.82272">
        <ele>113.4</ele>
        <time>2021-08-08T12:50:29Z</time>
      </trkpt>
      <trkpt lat="48.11173" lon="-2.82278">
        <ele>113.4</ele>
        <time>2021-08-08T12:50:30Z</time>
      </trkpt>
      <trkpt lat="48.11173" lon="-2.82285">
        <ele>113.4</ele>
        <time>2021-08-08T12:50:31Z</time>
      </trkpt>
      <trkpt lat="48.11174" lon="-2.8229">
        <ele>113.6</ele>
        <time>2021-08-08T12:50:32Z</time>
      </trkpt>
      <trkpt lat="48.11175" lon="-2.82295">
        <ele>113.6</ele>
        <time>2021-08-08T12:50:33Z</time>
      </trkpt>
      <trkpt lat="48.11177" lon="-2.82298">
        <ele>113.8</ele>
        <time>2021-08-08T12:50:34Z</time>
      </trkpt>
      <trkpt lat="48.11177" lon="-2.82302">
        <ele>113.8</ele>
        <time>2021-08-08T12:50:35Z</time>
      </trkpt>
      <trkpt lat="48.11177" lon="-2.82305">
        <ele>114.2</ele>
        <time>2021-08-08T12:50:36Z</time>
      </trkpt>
      <trkpt lat="48.11177" lon="-2.82308">
        <ele>114.4</ele>
        <time>2021-08-08T12:50:37Z</time>
      </trkpt>
      <trkpt lat="48.11178" lon="-2.82311">
        <ele>114.6</ele>
        <time>2021-08-08T12:50:38Z</time>
      </trkpt>
      <trkpt lat="48.11178" lon="-2.82314">
        <ele>114.8</ele>
        <time>2021-08-08T12:50:39Z</time>
      </trkpt>
      <trkpt lat="48.11178" lon="-2.82317">
        <ele>115</ele>
        <time>2021-08-08T12:50:40Z</time>
      </trkpt>
      <trkpt lat="48.11178" lon="-2.82319">
        <ele>115.2</ele>
        <time>2021-08-08T12:50:41Z</time>
      </trkpt>
      <trkpt lat="48.11178" lon="-2.82323">
        <ele>115.4</ele>
        <time>2021-08-08T12:50:42Z</time>
      </trkpt>
      <trkpt lat="48.11179" lon="-2.82326">
        <ele>115.6</ele>
        <time>2021-08-08T12:50:43Z</time>
      </trkpt>
      <trkpt lat="48.1118" lon="-2.82328">
        <ele>116</ele>
        <time>2021-08-08T12:50:44Z</time>
      </trkpt>
      <trkpt lat="48.1118" lon="-2.82331">
        <ele>116.2</ele>
        <time>2021-08-08T12:50:45Z</time>
      </trkpt>
      <trkpt lat="48.1118" lon="-2.82333">
        <ele>116.2</ele>
        <time>2021-08-08T12:50:46Z</time>
      </trkpt>
      <trkpt lat="48.1118" lon="-2.82337">
        <ele>116.2</ele>
        <time>2021-08-08T12:50:47Z</time>
      </trkpt>
      <trkpt lat="48.1118" lon="-2.82341">
        <ele>116.2</ele>
        <time>2021-08-08T12:50:48Z</time>
      </trkpt>
      <trkpt lat="48.11181" lon="-2.82347">
        <ele>116.2</ele>
        <time>2021-08-08T12:50:49Z</time>
      </trkpt>
      <trkpt lat="48.11183" lon="-2.82353">
        <ele>116.2</ele>
        <time>2021-08-08T12:50:50Z</time>
      </trkpt>
      <trkpt lat="48.11183" lon="-2.82361">
        <ele>116.2</ele>
        <time>2021-08-08T12:50:51Z</time>
      </trkpt>
      <trkpt lat="48.11184" lon="-2.82368">
        <ele>116.2</ele>
        <time>2021-08-08T12:50:52Z</time>
      </trkpt>
      <trkpt lat="48.11185" lon="-2.82374">
        <ele>116.2</ele>
        <time>2021-08-08T12:50:53Z</time>
      </trkpt>
      <trkpt lat="48.11186" lon="-2.82381">
        <ele>116.2</ele>
        <time>2021-08-08T12:50:54Z</time>
      </trkpt>
      <trkpt lat="48.11187" lon="-2.82387">
        <ele>116.2</ele>
        <time>2021-08-08T12:50:55Z</time>
      </trkpt>
      <trkpt lat="48.11187" lon="-2.82394">
        <ele>115.8</ele>
        <time>2021-08-08T12:50:56Z</time>
      </trkpt>
      <trkpt lat="48.11188" lon="-2.824">
        <ele>115.6</ele>
        <time>2021-08-08T12:50:57Z</time>
      </trkpt>
      <trkpt lat="48.11189" lon="-2.82406">
        <ele>115.6</ele>
        <time>2021-08-08T12:50:58Z</time>
      </trkpt>
      <trkpt lat="48.1119" lon="-2.82412">
        <ele>115.4</ele>
        <time>2021-08-08T12:50:59Z</time>
      </trkpt>
      <trkpt lat="48.11191" lon="-2.82418">
        <ele>115.4</ele>
        <time>2021-08-08T12:51:00Z</time>
      </trkpt>
      <trkpt lat="48.11191" lon="-2.82425">
        <ele>115.2</ele>
        <time>2021-08-08T12:51:01Z</time>
      </trkpt>
      <trkpt lat="48.11192" lon="-2.82431">
        <ele>115.2</ele>
        <time>2021-08-08T12:51:02Z</time>
      </trkpt>
      <trkpt lat="48.11193" lon="-2.82436">
        <ele>115</ele>
        <time>2021-08-08T12:51:03Z</time>
      </trkpt>
      <trkpt lat="48.11193" lon="-2.82442">
        <ele>115</ele>
        <time>2021-08-08T12:51:04Z</time>
      </trkpt>
      <trkpt lat="48.11194" lon="-2.82448">
        <ele>114.8</ele>
        <time>2021-08-08T12:51:05Z</time>
      </trkpt>
      <trkpt lat="48.11195" lon="-2.82454">
        <ele>114.8</ele>
        <time>2021-08-08T12:51:06Z</time>
      </trkpt>
      <trkpt lat="48.11196" lon="-2.82461">
        <ele>114.8</ele>
        <time>2021-08-08T12:51:07Z</time>
      </trkpt>
      <trkpt lat="48.11197" lon="-2.82467">
        <ele>114.6</ele>
        <time>2021-08-08T12:51:08Z</time>
      </trkpt>
      <trkpt lat="48.11198" lon="-2.82473">
        <ele>114.6</ele>
        <time>2021-08-08T12:51:09Z</time>
      </trkpt>
      <trkpt lat="48.112" lon="-2.8248">
        <ele>114.6</ele>
        <time>2021-08-08T12:51:10Z</time>
      </trkpt>
      <trkpt lat="48.11201" lon="-2.82487">
        <ele>114.6</ele>
        <time>2021-08-08T12:51:11Z</time>
      </trkpt>
      <trkpt lat="48.11202" lon="-2.82494">
        <ele>114.6</ele>
        <time>2021-08-08T12:51:12Z</time>
      </trkpt>
      <trkpt lat="48.11202" lon="-2.82501">
        <ele>114.6</ele>
        <time>2021-08-08T12:51:13Z</time>
      </trkpt>
      <trkpt lat="48.11203" lon="-2.82508">
        <ele>114.8</ele>
        <time>2021-08-08T12:51:14Z</time>
      </trkpt>
      <trkpt lat="48.11203" lon="-2.82515">
        <ele>114.8</ele>
        <time>2021-08-08T12:51:15Z</time>
      </trkpt>
      <trkpt lat="48.11204" lon="-2.82522">
        <ele>115.4</ele>
        <time>2021-08-08T12:51:16Z</time>
      </trkpt>
      <trkpt lat="48.11205" lon="-2.82528">
        <ele>116</ele>
        <time>2021-08-08T12:51:17Z</time>
      </trkpt>
      <trkpt lat="48.11205" lon="-2.82535">
        <ele>116.4</ele>
        <time>2021-08-08T12:51:18Z</time>
      </trkpt>
      <trkpt lat="48.11206" lon="-2.82541">
        <ele>116.4</ele>
        <time>2021-08-08T12:51:19Z</time>
      </trkpt>
      <trkpt lat="48.11206" lon="-2.82547">
        <ele>116.6</ele>
        <time>2021-08-08T12:51:20Z</time>
      </trkpt>
      <trkpt lat="48.11207" lon="-2.82554">
        <ele>116.8</ele>
        <time>2021-08-08T12:51:21Z</time>
      </trkpt>
      <trkpt lat="48.11208" lon="-2.8256">
        <ele>116.8</ele>
        <time>2021-08-08T12:51:22Z</time>
      </trkpt>
      <trkpt lat="48.11208" lon="-2.82566">
        <ele>117</ele>
        <time>2021-08-08T12:51:23Z</time>
      </trkpt>
      <trkpt lat="48.11209" lon="-2.82572">
        <ele>117</ele>
        <time>2021-08-08T12:51:24Z</time>
      </trkpt>
      <trkpt lat="48.11209" lon="-2.82578">
        <ele>117.2</ele>
        <time>2021-08-08T12:51:25Z</time>
      </trkpt>
      <trkpt lat="48.1121" lon="-2.82584">
        <ele>117.2</ele>
        <time>2021-08-08T12:51:26Z</time>
      </trkpt>
      <trkpt lat="48.11211" lon="-2.8259">
        <ele>117.2</ele>
        <time>2021-08-08T12:51:27Z</time>
      </trkpt>
      <trkpt lat="48.11211" lon="-2.82595">
        <ele>117.4</ele>
        <time>2021-08-08T12:51:28Z</time>
      </trkpt>
      <trkpt lat="48.11211" lon="-2.82601">
        <ele>117.4</ele>
        <time>2021-08-08T12:51:29Z</time>
      </trkpt>
      <trkpt lat="48.11212" lon="-2.82607">
        <ele>117.4</ele>
        <time>2021-08-08T12:51:30Z</time>
      </trkpt>
      <trkpt lat="48.11213" lon="-2.82612">
        <ele>117.4</ele>
        <time>2021-08-08T12:51:31Z</time>
      </trkpt>
      <trkpt lat="48.11213" lon="-2.82618">
        <ele>117.4</ele>
        <time>2021-08-08T12:51:32Z</time>
      </trkpt>
      <trkpt lat="48.11214" lon="-2.82623">
        <ele>117.4</ele>
        <time>2021-08-08T12:51:33Z</time>
      </trkpt>
      <trkpt lat="48.11214" lon="-2.82629">
        <ele>117.4</ele>
        <time>2021-08-08T12:51:34Z</time>
      </trkpt>
      <trkpt lat="48.11215" lon="-2.82634">
        <ele>117.4</ele>
        <time>2021-08-08T12:51:35Z</time>
      </trkpt>
      <trkpt lat="48.11216" lon="-2.82639">
        <ele>117.6</ele>
        <time>2021-08-08T12:51:36Z</time>
      </trkpt>
      <trkpt lat="48.11216" lon="-2.82644">
        <ele>117.6</ele>
        <time>2021-08-08T12:51:37Z</time>
      </trkpt>
      <trkpt lat="48.11218" lon="-2.82649">
        <ele>117.6</ele>
        <time>2021-08-08T12:51:38Z</time>
      </trkpt>
      <trkpt lat="48.11219" lon="-2.82653">
        <ele>117.6</ele>
        <time>2021-08-08T12:51:39Z</time>
      </trkpt>
      <trkpt lat="48.1122" lon="-2.82658">
        <ele>117.6</ele>
        <time>2021-08-08T12:51:40Z</time>
      </trkpt>
      <trkpt lat="48.11221" lon="-2.82663">
        <ele>117.6</ele>
        <time>2021-08-08T12:51:41Z</time>
      </trkpt>
      <trkpt lat="48.11221" lon="-2.82667">
        <ele>117.6</ele>
        <time>2021-08-08T12:51:42Z</time>
      </trkpt>
      <trkpt lat="48.11223" lon="-2.82672">
        <ele>117.6</ele>
        <time>2021-08-08T12:51:43Z</time>
      </trkpt>
      <trkpt lat="48.11224" lon="-2.82678">
        <ele>117.6</ele>
        <time>2021-08-08T12:51:44Z</time>
      </trkpt>
      <trkpt lat="48.11224" lon="-2.82684">
        <ele>117.8</ele>
        <time>2021-08-08T12:51:45Z</time>
      </trkpt>
      <trkpt lat="48.11225" lon="-2.82691">
        <ele>117.8</ele>
        <time>2021-08-08T12:51:46Z</time>
      </trkpt>
      <trkpt lat="48.11226" lon="-2.82697">
        <ele>118</ele>
        <time>2021-08-08T12:51:47Z</time>
      </trkpt>
      <trkpt lat="48.11227" lon="-2.82703">
        <ele>118</ele>
        <time>2021-08-08T12:51:48Z</time>
      </trkpt>
      <trkpt lat="48.11227" lon="-2.8271">
        <ele>118.2</ele>
        <time>2021-08-08T12:51:49Z</time>
      </trkpt>
      <trkpt lat="48.11228" lon="-2.82717">
        <ele>118.2</ele>
        <time>2021-08-08T12:51:50Z</time>
      </trkpt>
      <trkpt lat="48.11229" lon="-2.82723">
        <ele>118.4</ele>
        <time>2021-08-08T12:51:51Z</time>
      </trkpt>
      <trkpt lat="48.1123" lon="-2.8273">
        <ele>118.6</ele>
        <time>2021-08-08T12:51:52Z</time>
      </trkpt>
      <trkpt lat="48.11232" lon="-2.82737">
        <ele>119</ele>
        <time>2021-08-08T12:51:53Z</time>
      </trkpt>
      <trkpt lat="48.11233" lon="-2.82743">
        <ele>119</ele>
        <time>2021-08-08T12:51:54Z</time>
      </trkpt>
      <trkpt lat="48.11234" lon="-2.82749">
        <ele>119.2</ele>
        <time>2021-08-08T12:51:55Z</time>
      </trkpt>
      <trkpt lat="48.11236" lon="-2.82756">
        <ele>119.2</ele>
        <time>2021-08-08T12:51:56Z</time>
      </trkpt>
      <trkpt lat="48.11237" lon="-2.82762">
        <ele>119.2</ele>
        <time>2021-08-08T12:51:57Z</time>
      </trkpt>
      <trkpt lat="48.11239" lon="-2.82767">
        <ele>119.2</ele>
        <time>2021-08-08T12:51:58Z</time>
      </trkpt>
      <trkpt lat="48.1124" lon="-2.82773">
        <ele>119.2</ele>
        <time>2021-08-08T12:51:59Z</time>
      </trkpt>
      <trkpt lat="48.11241" lon="-2.82779">
        <ele>119.2</ele>
        <time>2021-08-08T12:52:00Z</time>
      </trkpt>
      <trkpt lat="48.11242" lon="-2.82784">
        <ele>119.4</ele>
        <time>2021-08-08T12:52:01Z</time>
      </trkpt>
      <trkpt lat="48.11243" lon="-2.8279">
        <ele>119.4</ele>
        <time>2021-08-08T12:52:02Z</time>
      </trkpt>
      <trkpt lat="48.11245" lon="-2.82795">
        <ele>119.6</ele>
        <time>2021-08-08T12:52:03Z</time>
      </trkpt>
      <trkpt lat="48.11246" lon="-2.828">
        <ele>119.6</ele>
        <time>2021-08-08T12:52:04Z</time>
      </trkpt>
      <trkpt lat="48.11247" lon="-2.82805">
        <ele>119.6</ele>
        <time>2021-08-08T12:52:05Z</time>
      </trkpt>
      <trkpt lat="48.11248" lon="-2.82809">
        <ele>119.6</ele>
        <time>2021-08-08T12:52:06Z</time>
      </trkpt>
      <trkpt lat="48.11249" lon="-2.82813">
        <ele>119.8</ele>
        <time>2021-08-08T12:52:07Z</time>
      </trkpt>
      <trkpt lat="48.1125" lon="-2.82817">
        <ele>119.8</ele>
        <time>2021-08-08T12:52:08Z</time>
      </trkpt>
      <trkpt lat="48.11251" lon="-2.82821">
        <ele>120</ele>
        <time>2021-08-08T12:52:09Z</time>
      </trkpt>
      <trkpt lat="48.11252" lon="-2.82825">
        <ele>120</ele>
        <time>2021-08-08T12:52:10Z</time>
      </trkpt>
      <trkpt lat="48.11253" lon="-2.8283">
        <ele>120.2</ele>
        <time>2021-08-08T12:52:11Z</time>
      </trkpt>
      <trkpt lat="48.11255" lon="-2.82834">
        <ele>120.4</ele>
        <time>2021-08-08T12:52:12Z</time>
      </trkpt>
      <trkpt lat="48.11256" lon="-2.82838">
        <ele>120.6</ele>
        <time>2021-08-08T12:52:13Z</time>
      </trkpt>
      <trkpt lat="48.11258" lon="-2.82843">
        <ele>120.8</ele>
        <time>2021-08-08T12:52:14Z</time>
      </trkpt>
      <trkpt lat="48.1126" lon="-2.82848">
        <ele>120.8</ele>
        <time>2021-08-08T12:52:15Z</time>
      </trkpt>
      <trkpt lat="48.11261" lon="-2.82852">
        <ele>121</ele>
        <time>2021-08-08T12:52:16Z</time>
      </trkpt>
      <trkpt lat="48.11263" lon="-2.82856">
        <ele>121</ele>
        <time>2021-08-08T12:52:17Z</time>
      </trkpt>
      <trkpt lat="48.11265" lon="-2.8286">
        <ele>121.2</ele>
        <time>2021-08-08T12:52:18Z</time>
      </trkpt>
      <trkpt lat="48.11267" lon="-2.82865">
        <ele>121.2</ele>
        <time>2021-08-08T12:52:19Z</time>
      </trkpt>
      <trkpt lat="48.1127" lon="-2.8287">
        <ele>121.2</ele>
        <time>2021-08-08T12:52:20Z</time>
      </trkpt>
      <trkpt lat="48.11272" lon="-2.82875">
        <ele>121.2</ele>
        <time>2021-08-08T12:52:21Z</time>
      </trkpt>
      <trkpt lat="48.11275" lon="-2.8288">
        <ele>121.2</ele>
        <time>2021-08-08T12:52:22Z</time>
      </trkpt>
      <trkpt lat="48.11276" lon="-2.82886">
        <ele>121.2</ele>
        <time>2021-08-08T12:52:23Z</time>
      </trkpt>
      <trkpt lat="48.11278" lon="-2.82891">
        <ele>121.2</ele>
        <time>2021-08-08T12:52:24Z</time>
      </trkpt>
      <trkpt lat="48.11281" lon="-2.82896">
        <ele>121.2</ele>
        <time>2021-08-08T12:52:25Z</time>
      </trkpt>
      <trkpt lat="48.11282" lon="-2.829">
        <ele>121.2</ele>
        <time>2021-08-08T12:52:26Z</time>
      </trkpt>
      <trkpt lat="48.11284" lon="-2.82904">
        <ele>121.4</ele>
        <time>2021-08-08T12:52:27Z</time>
      </trkpt>
      <trkpt lat="48.11286" lon="-2.82907">
        <ele>121.4</ele>
        <time>2021-08-08T12:52:28Z</time>
      </trkpt>
      <trkpt lat="48.11288" lon="-2.82911">
        <ele>121.4</ele>
        <time>2021-08-08T12:52:29Z</time>
      </trkpt>
      <trkpt lat="48.1129" lon="-2.82914">
        <ele>121.4</ele>
        <time>2021-08-08T12:52:30Z</time>
      </trkpt>
      <trkpt lat="48.11292" lon="-2.82918">
        <ele>121.4</ele>
        <time>2021-08-08T12:52:31Z</time>
      </trkpt>
      <trkpt lat="48.11294" lon="-2.82921">
        <ele>121.4</ele>
        <time>2021-08-08T12:52:32Z</time>
      </trkpt>
      <trkpt lat="48.11297" lon="-2.82925">
        <ele>121.4</ele>
        <time>2021-08-08T12:52:33Z</time>
      </trkpt>
      <trkpt lat="48.113" lon="-2.82929">
        <ele>121.4</ele>
        <time>2021-08-08T12:52:34Z</time>
      </trkpt>
      <trkpt lat="48.11303" lon="-2.82934">
        <ele>121.4</ele>
        <time>2021-08-08T12:52:35Z</time>
      </trkpt>
      <trkpt lat="48.11306" lon="-2.82939">
        <ele>121.6</ele>
        <time>2021-08-08T12:52:36Z</time>
      </trkpt>
      <trkpt lat="48.11309" lon="-2.82943">
        <ele>121.6</ele>
        <time>2021-08-08T12:52:37Z</time>
      </trkpt>
      <trkpt lat="48.11312" lon="-2.82949">
        <ele>121.6</ele>
        <time>2021-08-08T12:52:38Z</time>
      </trkpt>
      <trkpt lat="48.11315" lon="-2.82954">
        <ele>121.6</ele>
        <time>2021-08-08T12:52:39Z</time>
      </trkpt>
      <trkpt lat="48.11318" lon="-2.82959">
        <ele>121.4</ele>
        <time>2021-08-08T12:52:40Z</time>
      </trkpt>
      <trkpt lat="48.11321" lon="-2.82963">
        <ele>121.8</ele>
        <time>2021-08-08T12:52:41Z</time>
      </trkpt>
      <trkpt lat="48.11324" lon="-2.82968">
        <ele>121.6</ele>
        <time>2021-08-08T12:52:42Z</time>
      </trkpt>
      <trkpt lat="48.11327" lon="-2.82973">
        <ele>121.8</ele>
        <time>2021-08-08T12:52:43Z</time>
      </trkpt>
      <trkpt lat="48.1133" lon="-2.82977">
        <ele>122</ele>
        <time>2021-08-08T12:52:44Z</time>
      </trkpt>
      <trkpt lat="48.11333" lon="-2.82981">
        <ele>122.2</ele>
        <time>2021-08-08T12:52:45Z</time>
      </trkpt>
      <trkpt lat="48.11336" lon="-2.82985">
        <ele>122.2</ele>
        <time>2021-08-08T12:52:46Z</time>
      </trkpt>
      <trkpt lat="48.11339" lon="-2.82989">
        <ele>122.4</ele>
        <time>2021-08-08T12:52:47Z</time>
      </trkpt>
      <trkpt lat="48.11342" lon="-2.82993">
        <ele>122.4</ele>
        <time>2021-08-08T12:52:48Z</time>
      </trkpt>
      <trkpt lat="48.11345" lon="-2.82997">
        <ele>122.6</ele>
        <time>2021-08-08T12:52:49Z</time>
      </trkpt>
      <trkpt lat="48.11348" lon="-2.83002">
        <ele>122.6</ele>
        <time>2021-08-08T12:52:50Z</time>
      </trkpt>
      <trkpt lat="48.1135" lon="-2.83006">
        <ele>122.8</ele>
        <time>2021-08-08T12:52:51Z</time>
      </trkpt>
      <trkpt lat="48.11353" lon="-2.8301">
        <ele>122.8</ele>
        <time>2021-08-08T12:52:52Z</time>
      </trkpt>
      <trkpt lat="48.11356" lon="-2.83014">
        <ele>123</ele>
        <time>2021-08-08T12:52:53Z</time>
      </trkpt>
      <trkpt lat="48.1136" lon="-2.83018">
        <ele>123</ele>
        <time>2021-08-08T12:52:54Z</time>
      </trkpt>
      <trkpt lat="48.11363" lon="-2.83023">
        <ele>123</ele>
        <time>2021-08-08T12:52:55Z</time>
      </trkpt>
      <trkpt lat="48.11366" lon="-2.83027">
        <ele>123</ele>
        <time>2021-08-08T12:52:56Z</time>
      </trkpt>
      <trkpt lat="48.11369" lon="-2.83031">
        <ele>123</ele>
        <time>2021-08-08T12:52:57Z</time>
      </trkpt>
      <trkpt lat="48.11372" lon="-2.83036">
        <ele>123</ele>
        <time>2021-08-08T12:52:58Z</time>
      </trkpt>
      <trkpt lat="48.11375" lon="-2.8304">
        <ele>123</ele>
        <time>2021-08-08T12:52:59Z</time>
      </trkpt>
      <trkpt lat="48.11378" lon="-2.83044">
        <ele>123</ele>
        <time>2021-08-08T12:53:00Z</time>
      </trkpt>
      <trkpt lat="48.11381" lon="-2.83048">
        <ele>123</ele>
        <time>2021-08-08T12:53:01Z</time>
      </trkpt>
      <trkpt lat="48.11385" lon="-2.83052">
        <ele>123</ele>
        <time>2021-08-08T12:53:02Z</time>
      </trkpt>
      <trkpt lat="48.11388" lon="-2.83056">
        <ele>123</ele>
        <time>2021-08-08T12:53:03Z</time>
      </trkpt>
      <trkpt lat="48.1139" lon="-2.8306">
        <ele>123</ele>
        <time>2021-08-08T12:53:04Z</time>
      </trkpt>
      <trkpt lat="48.11393" lon="-2.83064">
        <ele>123</ele>
        <time>2021-08-08T12:53:05Z</time>
      </trkpt>
      <trkpt lat="48.11396" lon="-2.83067">
        <ele>123</ele>
        <time>2021-08-08T12:53:06Z</time>
      </trkpt>
      <trkpt lat="48.11399" lon="-2.83071">
        <ele>123</ele>
        <time>2021-08-08T12:53:07Z</time>
      </trkpt>
      <trkpt lat="48.11402" lon="-2.83074">
        <ele>123</ele>
        <time>2021-08-08T12:53:08Z</time>
      </trkpt>
      <trkpt lat="48.11404" lon="-2.83078">
        <ele>123</ele>
        <time>2021-08-08T12:53:09Z</time>
      </trkpt>
      <trkpt lat="48.11407" lon="-2.83081">
        <ele>123</ele>
        <time>2021-08-08T12:53:10Z</time>
      </trkpt>
      <trkpt lat="48.11409" lon="-2.83084">
        <ele>123</ele>
        <time>2021-08-08T12:53:11Z</time>
      </trkpt>
      <trkpt lat="48.11412" lon="-2.83087">
        <ele>123</ele>
        <time>2021-08-08T12:53:12Z</time>
      </trkpt>
      <trkpt lat="48.11414" lon="-2.8309">
        <ele>123.4</ele>
        <time>2021-08-08T12:53:13Z</time>
      </trkpt>
      <trkpt lat="48.11416" lon="-2.83093">
        <ele>123.6</ele>
        <time>2021-08-08T12:53:14Z</time>
      </trkpt>
      <trkpt lat="48.11418" lon="-2.83096">
        <ele>123.8</ele>
        <time>2021-08-08T12:53:15Z</time>
      </trkpt>
      <trkpt lat="48.11421" lon="-2.83099">
        <ele>124</ele>
        <time>2021-08-08T12:53:16Z</time>
      </trkpt>
      <trkpt lat="48.11423" lon="-2.83101">
        <ele>124.2</ele>
        <time>2021-08-08T12:53:17Z</time>
      </trkpt>
      <trkpt lat="48.11425" lon="-2.83103">
        <ele>124.4</ele>
        <time>2021-08-08T12:53:18Z</time>
      </trkpt>
      <trkpt lat="48.11427" lon="-2.83105">
        <ele>124.4</ele>
        <time>2021-08-08T12:53:19Z</time>
      </trkpt>
      <trkpt lat="48.11429" lon="-2.83107">
        <ele>124.6</ele>
        <time>2021-08-08T12:53:20Z</time>
      </trkpt>
      <trkpt lat="48.1143" lon="-2.83109">
        <ele>124.8</ele>
        <time>2021-08-08T12:53:21Z</time>
      </trkpt>
      <trkpt lat="48.11432" lon="-2.8311">
        <ele>124.8</ele>
        <time>2021-08-08T12:53:22Z</time>
      </trkpt>
      <trkpt lat="48.11434" lon="-2.83111">
        <ele>125</ele>
        <time>2021-08-08T12:53:23Z</time>
      </trkpt>
      <trkpt lat="48.11436" lon="-2.83113">
        <ele>125.4</ele>
        <time>2021-08-08T12:53:24Z</time>
      </trkpt>
      <trkpt lat="48.11437" lon="-2.83115">
        <ele>125.6</ele>
        <time>2021-08-08T12:53:25Z</time>
      </trkpt>
      <trkpt lat="48.11438" lon="-2.83117">
        <ele>125.8</ele>
        <time>2021-08-08T12:53:26Z</time>
      </trkpt>
      <trkpt lat="48.1144" lon="-2.83118">
        <ele>126</ele>
        <time>2021-08-08T12:53:27Z</time>
      </trkpt>
      <trkpt lat="48.11441" lon="-2.8312">
        <ele>126</ele>
        <time>2021-08-08T12:53:28Z</time>
      </trkpt>
      <trkpt lat="48.11441" lon="-2.83121">
        <ele>126.2</ele>
        <time>2021-08-08T12:53:29Z</time>
      </trkpt>
      <trkpt lat="48.11442" lon="-2.83123">
        <ele>126.4</ele>
        <time>2021-08-08T12:53:30Z</time>
      </trkpt>
      <trkpt lat="48.11443" lon="-2.83125">
        <ele>126.4</ele>
        <time>2021-08-08T12:53:31Z</time>
      </trkpt>
      <trkpt lat="48.11444" lon="-2.83127">
        <ele>126.4</ele>
        <time>2021-08-08T12:53:32Z</time>
      </trkpt>
      <trkpt lat="48.11446" lon="-2.8313">
        <ele>126.6</ele>
        <time>2021-08-08T12:53:33Z</time>
      </trkpt>
      <trkpt lat="48.11448" lon="-2.83132">
        <ele>126.6</ele>
        <time>2021-08-08T12:53:34Z</time>
      </trkpt>
      <trkpt lat="48.1145" lon="-2.83134">
        <ele>126.6</ele>
        <time>2021-08-08T12:53:35Z</time>
      </trkpt>
      <trkpt lat="48.11451" lon="-2.83136">
        <ele>126.6</ele>
        <time>2021-08-08T12:53:36Z</time>
      </trkpt>
      <trkpt lat="48.11453" lon="-2.83139">
        <ele>126.6</ele>
        <time>2021-08-08T12:53:37Z</time>
      </trkpt>
      <trkpt lat="48.11454" lon="-2.83142">
        <ele>126.6</ele>
        <time>2021-08-08T12:53:38Z</time>
      </trkpt>
      <trkpt lat="48.11456" lon="-2.83144">
        <ele>126.4</ele>
        <time>2021-08-08T12:53:39Z</time>
      </trkpt>
      <trkpt lat="48.11457" lon="-2.83146">
        <ele>126.2</ele>
        <time>2021-08-08T12:53:40Z</time>
      </trkpt>
      <trkpt lat="48.11459" lon="-2.83147">
        <ele>126.2</ele>
        <time>2021-08-08T12:53:41Z</time>
      </trkpt>
      <trkpt lat="48.1146" lon="-2.83148">
        <ele>126.2</ele>
        <time>2021-08-08T12:53:42Z</time>
      </trkpt>
      <trkpt lat="48.11461" lon="-2.83149">
        <ele>126.2</ele>
        <time>2021-08-08T12:53:43Z</time>
      </trkpt>
      <trkpt lat="48.11462" lon="-2.83151">
        <ele>126.2</ele>
        <time>2021-08-08T12:53:44Z</time>
      </trkpt>
      <trkpt lat="48.11463" lon="-2.83154">
        <ele>126.2</ele>
        <time>2021-08-08T12:53:45Z</time>
      </trkpt>
      <trkpt lat="48.11464" lon="-2.83156">
        <ele>126.2</ele>
        <time>2021-08-08T12:53:46Z</time>
      </trkpt>
      <trkpt lat="48.11466" lon="-2.83158">
        <ele>126.2</ele>
        <time>2021-08-08T12:53:47Z</time>
      </trkpt>
      <trkpt lat="48.11467" lon="-2.8316">
        <ele>126.2</ele>
        <time>2021-08-08T12:53:48Z</time>
      </trkpt>
      <trkpt lat="48.11469" lon="-2.83162">
        <ele>126.2</ele>
        <time>2021-08-08T12:53:49Z</time>
      </trkpt>
      <trkpt lat="48.1147" lon="-2.83164">
        <ele>126.2</ele>
        <time>2021-08-08T12:53:50Z</time>
      </trkpt>
      <trkpt lat="48.11472" lon="-2.83166">
        <ele>126.2</ele>
        <time>2021-08-08T12:53:51Z</time>
      </trkpt>
      <trkpt lat="48.11474" lon="-2.83168">
        <ele>126.4</ele>
        <time>2021-08-08T12:53:52Z</time>
      </trkpt>
      <trkpt lat="48.11476" lon="-2.8317">
        <ele>126.4</ele>
        <time>2021-08-08T12:53:53Z</time>
      </trkpt>
      <trkpt lat="48.11478" lon="-2.83173">
        <ele>126.4</ele>
        <time>2021-08-08T12:53:54Z</time>
      </trkpt>
      <trkpt lat="48.1148" lon="-2.83176">
        <ele>126.4</ele>
        <time>2021-08-08T12:53:55Z</time>
      </trkpt>
      <trkpt lat="48.11483" lon="-2.83178">
        <ele>126.4</ele>
        <time>2021-08-08T12:53:56Z</time>
      </trkpt>
      <trkpt lat="48.11485" lon="-2.83181">
        <ele>126.4</ele>
        <time>2021-08-08T12:53:57Z</time>
      </trkpt>
      <trkpt lat="48.11488" lon="-2.83184">
        <ele>126.4</ele>
        <time>2021-08-08T12:53:58Z</time>
      </trkpt>
      <trkpt lat="48.1149" lon="-2.83187">
        <ele>126.2</ele>
        <time>2021-08-08T12:53:59Z</time>
      </trkpt>
      <trkpt lat="48.11492" lon="-2.83189">
        <ele>126.2</ele>
        <time>2021-08-08T12:54:00Z</time>
      </trkpt>
      <trkpt lat="48.11494" lon="-2.83192">
        <ele>126</ele>
        <time>2021-08-08T12:54:01Z</time>
      </trkpt>
      <trkpt lat="48.11497" lon="-2.83195">
        <ele>125.8</ele>
        <time>2021-08-08T12:54:02Z</time>
      </trkpt>
      <trkpt lat="48.11499" lon="-2.83198">
        <ele>125.8</ele>
        <time>2021-08-08T12:54:03Z</time>
      </trkpt>
      <trkpt lat="48.11502" lon="-2.83201">
        <ele>125.8</ele>
        <time>2021-08-08T12:54:04Z</time>
      </trkpt>
      <trkpt lat="48.11504" lon="-2.83203">
        <ele>125.8</ele>
        <time>2021-08-08T12:54:05Z</time>
      </trkpt>
      <trkpt lat="48.11507" lon="-2.83206">
        <ele>125.8</ele>
        <time>2021-08-08T12:54:06Z</time>
      </trkpt>
      <trkpt lat="48.11509" lon="-2.83209">
        <ele>125.8</ele>
        <time>2021-08-08T12:54:07Z</time>
      </trkpt>
      <trkpt lat="48.11512" lon="-2.83212">
        <ele>125.8</ele>
        <time>2021-08-08T12:54:08Z</time>
      </trkpt>
      <trkpt lat="48.11514" lon="-2.83216">
        <ele>125.8</ele>
        <time>2021-08-08T12:54:09Z</time>
      </trkpt>
      <trkpt lat="48.11517" lon="-2.83219">
        <ele>125.8</ele>
        <time>2021-08-08T12:54:10Z</time>
      </trkpt>
      <trkpt lat="48.11519" lon="-2.83222">
        <ele>125.8</ele>
        <time>2021-08-08T12:54:11Z</time>
      </trkpt>
      <trkpt lat="48.11522" lon="-2.83225">
        <ele>125.8</ele>
        <time>2021-08-08T12:54:12Z</time>
      </trkpt>
      <trkpt lat="48.11524" lon="-2.83227">
        <ele>125.8</ele>
        <time>2021-08-08T12:54:13Z</time>
      </trkpt>
      <trkpt lat="48.11527" lon="-2.8323">
        <ele>126</ele>
        <time>2021-08-08T12:54:14Z</time>
      </trkpt>
      <trkpt lat="48.11529" lon="-2.83233">
        <ele>126</ele>
        <time>2021-08-08T12:54:15Z</time>
      </trkpt>
      <trkpt lat="48.11531" lon="-2.83235">
        <ele>126.4</ele>
        <time>2021-08-08T12:54:16Z</time>
      </trkpt>
      <trkpt lat="48.11533" lon="-2.83238">
        <ele>126.6</ele>
        <time>2021-08-08T12:54:17Z</time>
      </trkpt>
      <trkpt lat="48.11534" lon="-2.8324">
        <ele>126.6</ele>
        <time>2021-08-08T12:54:18Z</time>
      </trkpt>
      <trkpt lat="48.11536" lon="-2.83243">
        <ele>126.8</ele>
        <time>2021-08-08T12:54:19Z</time>
      </trkpt>
      <trkpt lat="48.11539" lon="-2.83246">
        <ele>127</ele>
        <time>2021-08-08T12:54:20Z</time>
      </trkpt>
      <trkpt lat="48.11541" lon="-2.83248">
        <ele>127.2</ele>
        <time>2021-08-08T12:54:21Z</time>
      </trkpt>
      <trkpt lat="48.11542" lon="-2.83251">
        <ele>127.4</ele>
        <time>2021-08-08T12:54:22Z</time>
      </trkpt>
      <trkpt lat="48.11544" lon="-2.83253">
        <ele>127.6</ele>
        <time>2021-08-08T12:54:23Z</time>
      </trkpt>
      <trkpt lat="48.11545" lon="-2.83256">
        <ele>127.6</ele>
        <time>2021-08-08T12:54:24Z</time>
      </trkpt>
      <trkpt lat="48.11547" lon="-2.83259">
        <ele>127.8</ele>
        <time>2021-08-08T12:54:25Z</time>
      </trkpt>
      <trkpt lat="48.11549" lon="-2.83261">
        <ele>127.8</ele>
        <time>2021-08-08T12:54:26Z</time>
      </trkpt>
      <trkpt lat="48.11551" lon="-2.83264">
        <ele>127.8</ele>
        <time>2021-08-08T12:54:27Z</time>
      </trkpt>
      <trkpt lat="48.11554" lon="-2.83268">
        <ele>127.8</ele>
        <time>2021-08-08T12:54:28Z</time>
      </trkpt>
      <trkpt lat="48.11556" lon="-2.8327">
        <ele>127.8</ele>
        <time>2021-08-08T12:54:29Z</time>
      </trkpt>
      <trkpt lat="48.11559" lon="-2.83273">
        <ele>127.8</ele>
        <time>2021-08-08T12:54:30Z</time>
      </trkpt>
      <trkpt lat="48.11562" lon="-2.83277">
        <ele>127.8</ele>
        <time>2021-08-08T12:54:31Z</time>
      </trkpt>
      <trkpt lat="48.11564" lon="-2.8328">
        <ele>127.8</ele>
        <time>2021-08-08T12:54:32Z</time>
      </trkpt>
      <trkpt lat="48.11567" lon="-2.83284">
        <ele>127.8</ele>
        <time>2021-08-08T12:54:33Z</time>
      </trkpt>
      <trkpt lat="48.11569" lon="-2.83288">
        <ele>127.8</ele>
        <time>2021-08-08T12:54:34Z</time>
      </trkpt>
      <trkpt lat="48.11571" lon="-2.83292">
        <ele>127.8</ele>
        <time>2021-08-08T12:54:35Z</time>
      </trkpt>
      <trkpt lat="48.11574" lon="-2.83295">
        <ele>127.8</ele>
        <time>2021-08-08T12:54:36Z</time>
      </trkpt>
      <trkpt lat="48.11576" lon="-2.833">
        <ele>127.8</ele>
        <time>2021-08-08T12:54:37Z</time>
      </trkpt>
      <trkpt lat="48.1158" lon="-2.83305">
        <ele>127.8</ele>
        <time>2021-08-08T12:54:38Z</time>
      </trkpt>
      <trkpt lat="48.11582" lon="-2.8331">
        <ele>127.8</ele>
        <time>2021-08-08T12:54:39Z</time>
      </trkpt>
      <trkpt lat="48.11585" lon="-2.83315">
        <ele>127.8</ele>
        <time>2021-08-08T12:54:40Z</time>
      </trkpt>
      <trkpt lat="48.11588" lon="-2.83321">
        <ele>127.8</ele>
        <time>2021-08-08T12:54:41Z</time>
      </trkpt>
      <trkpt lat="48.11591" lon="-2.83326">
        <ele>127.8</ele>
        <time>2021-08-08T12:54:42Z</time>
      </trkpt>
      <trkpt lat="48.11594" lon="-2.83331">
        <ele>127.8</ele>
        <time>2021-08-08T12:54:43Z</time>
      </trkpt>
      <trkpt lat="48.11596" lon="-2.83336">
        <ele>127.8</ele>
        <time>2021-08-08T12:54:44Z</time>
      </trkpt>
      <trkpt lat="48.11599" lon="-2.83341">
        <ele>128</ele>
        <time>2021-08-08T12:54:45Z</time>
      </trkpt>
      <trkpt lat="48.11601" lon="-2.83345">
        <ele>128</ele>
        <time>2021-08-08T12:54:46Z</time>
      </trkpt>
      <trkpt lat="48.11603" lon="-2.8335">
        <ele>128</ele>
        <time>2021-08-08T12:54:47Z</time>
      </trkpt>
      <trkpt lat="48.11606" lon="-2.83354">
        <ele>128.2</ele>
        <time>2021-08-08T12:54:48Z</time>
      </trkpt>
      <trkpt lat="48.11608" lon="-2.83359">
        <ele>128.4</ele>
        <time>2021-08-08T12:54:49Z</time>
      </trkpt>
      <trkpt lat="48.1161" lon="-2.83363">
        <ele>128.8</ele>
        <time>2021-08-08T12:54:50Z</time>
      </trkpt>
      <trkpt lat="48.11612" lon="-2.83368">
        <ele>129.4</ele>
        <time>2021-08-08T12:54:51Z</time>
      </trkpt>
      <trkpt lat="48.11615" lon="-2.83373">
        <ele>129.6</ele>
        <time>2021-08-08T12:54:52Z</time>
      </trkpt>
      <trkpt lat="48.11617" lon="-2.83377">
        <ele>129.8</ele>
        <time>2021-08-08T12:54:53Z</time>
      </trkpt>
      <trkpt lat="48.11619" lon="-2.83382">
        <ele>130</ele>
        <time>2021-08-08T12:54:54Z</time>
      </trkpt>
      <trkpt lat="48.11621" lon="-2.83387">
        <ele>130.2</ele>
        <time>2021-08-08T12:54:55Z</time>
      </trkpt>
      <trkpt lat="48.11623" lon="-2.83391">
        <ele>130.2</ele>
        <time>2021-08-08T12:54:56Z</time>
      </trkpt>
      <trkpt lat="48.11626" lon="-2.83396">
        <ele>130.4</ele>
        <time>2021-08-08T12:54:57Z</time>
      </trkpt>
      <trkpt lat="48.11628" lon="-2.83401">
        <ele>130.6</ele>
        <time>2021-08-08T12:54:58Z</time>
      </trkpt>
      <trkpt lat="48.1163" lon="-2.83405">
        <ele>130.8</ele>
        <time>2021-08-08T12:54:59Z</time>
      </trkpt>
      <trkpt lat="48.11632" lon="-2.83409">
        <ele>130.8</ele>
        <time>2021-08-08T12:55:00Z</time>
      </trkpt>
      <trkpt lat="48.11634" lon="-2.83413">
        <ele>131</ele>
        <time>2021-08-08T12:55:01Z</time>
      </trkpt>
      <trkpt lat="48.11636" lon="-2.83418">
        <ele>131.2</ele>
        <time>2021-08-08T12:55:02Z</time>
      </trkpt>
      <trkpt lat="48.11638" lon="-2.83422">
        <ele>131.2</ele>
        <time>2021-08-08T12:55:03Z</time>
      </trkpt>
      <trkpt lat="48.11639" lon="-2.83426">
        <ele>131.4</ele>
        <time>2021-08-08T12:55:04Z</time>
      </trkpt>
      <trkpt lat="48.11641" lon="-2.8343">
        <ele>131.4</ele>
        <time>2021-08-08T12:55:05Z</time>
      </trkpt>
      <trkpt lat="48.11643" lon="-2.83433">
        <ele>131.6</ele>
        <time>2021-08-08T12:55:06Z</time>
      </trkpt>
      <trkpt lat="48.11645" lon="-2.83436">
        <ele>131.4</ele>
        <time>2021-08-08T12:55:07Z</time>
      </trkpt>
      <trkpt lat="48.11647" lon="-2.8344">
        <ele>131.4</ele>
        <time>2021-08-08T12:55:08Z</time>
      </trkpt>
      <trkpt lat="48.11649" lon="-2.83443">
        <ele>131.6</ele>
        <time>2021-08-08T12:55:09Z</time>
      </trkpt>
      <trkpt lat="48.11651" lon="-2.83447">
        <ele>131.6</ele>
        <time>2021-08-08T12:55:10Z</time>
      </trkpt>
      <trkpt lat="48.11653" lon="-2.8345">
        <ele>131.6</ele>
        <time>2021-08-08T12:55:11Z</time>
      </trkpt>
      <trkpt lat="48.11655" lon="-2.83454">
        <ele>131.8</ele>
        <time>2021-08-08T12:55:12Z</time>
      </trkpt>
      <trkpt lat="48.11657" lon="-2.83458">
        <ele>131.6</ele>
        <time>2021-08-08T12:55:13Z</time>
      </trkpt>
      <trkpt lat="48.11658" lon="-2.83463">
        <ele>131.8</ele>
        <time>2021-08-08T12:55:14Z</time>
      </trkpt>
      <trkpt lat="48.1166" lon="-2.83467">
        <ele>131.8</ele>
        <time>2021-08-08T12:55:15Z</time>
      </trkpt>
      <trkpt lat="48.11662" lon="-2.83472">
        <ele>131.8</ele>
        <time>2021-08-08T12:55:16Z</time>
      </trkpt>
      <trkpt lat="48.11663" lon="-2.83476">
        <ele>131.8</ele>
        <time>2021-08-08T12:55:17Z</time>
      </trkpt>
      <trkpt lat="48.11665" lon="-2.83479">
        <ele>131.8</ele>
        <time>2021-08-08T12:55:18Z</time>
      </trkpt>
      <trkpt lat="48.11667" lon="-2.83483">
        <ele>131.8</ele>
        <time>2021-08-08T12:55:19Z</time>
      </trkpt>
      <trkpt lat="48.11669" lon="-2.83487">
        <ele>131.8</ele>
        <time>2021-08-08T12:55:20Z</time>
      </trkpt>
      <trkpt lat="48.1167" lon="-2.83492">
        <ele>131.8</ele>
        <time>2021-08-08T12:55:21Z</time>
      </trkpt>
      <trkpt lat="48.11671" lon="-2.83497">
        <ele>131.8</ele>
        <time>2021-08-08T12:55:22Z</time>
      </trkpt>
      <trkpt lat="48.11673" lon="-2.83503">
        <ele>131.8</ele>
        <time>2021-08-08T12:55:23Z</time>
      </trkpt>
      <trkpt lat="48.11674" lon="-2.83507">
        <ele>131.8</ele>
        <time>2021-08-08T12:55:24Z</time>
      </trkpt>
      <trkpt lat="48.11674" lon="-2.83512">
        <ele>131.8</ele>
        <time>2021-08-08T12:55:25Z</time>
      </trkpt>
      <trkpt lat="48.11674" lon="-2.83517">
        <ele>131.8</ele>
        <time>2021-08-08T12:55:26Z</time>
      </trkpt>
      <trkpt lat="48.11675" lon="-2.83522">
        <ele>131.8</ele>
        <time>2021-08-08T12:55:27Z</time>
      </trkpt>
      <trkpt lat="48.11676" lon="-2.83525">
        <ele>131.8</ele>
        <time>2021-08-08T12:55:28Z</time>
      </trkpt>
      <trkpt lat="48.11676" lon="-2.83529">
        <ele>131.8</ele>
        <time>2021-08-08T12:55:29Z</time>
      </trkpt>
      <trkpt lat="48.11676" lon="-2.83532">
        <ele>131.8</ele>
        <time>2021-08-08T12:55:30Z</time>
      </trkpt>
      <trkpt lat="48.11676" lon="-2.83538">
        <ele>131.8</ele>
        <time>2021-08-08T12:55:31Z</time>
      </trkpt>
      <trkpt lat="48.11676" lon="-2.83544">
        <ele>131.8</ele>
        <time>2021-08-08T12:55:32Z</time>
      </trkpt>
      <trkpt lat="48.11675" lon="-2.8355">
        <ele>131.8</ele>
        <time>2021-08-08T12:55:33Z</time>
      </trkpt>
      <trkpt lat="48.11675" lon="-2.83556">
        <ele>131.8</ele>
        <time>2021-08-08T12:55:34Z</time>
      </trkpt>
      <trkpt lat="48.11674" lon="-2.83563">
        <ele>131.8</ele>
        <time>2021-08-08T12:55:35Z</time>
      </trkpt>
      <trkpt lat="48.11673" lon="-2.8357">
        <ele>131.8</ele>
        <time>2021-08-08T12:55:36Z</time>
      </trkpt>
      <trkpt lat="48.11672" lon="-2.83576">
        <ele>131.8</ele>
        <time>2021-08-08T12:55:37Z</time>
      </trkpt>
      <trkpt lat="48.11671" lon="-2.83582">
        <ele>131.8</ele>
        <time>2021-08-08T12:55:38Z</time>
      </trkpt>
      <trkpt lat="48.11669" lon="-2.83588">
        <ele>131.8</ele>
        <time>2021-08-08T12:55:39Z</time>
      </trkpt>
      <trkpt lat="48.11668" lon="-2.83594">
        <ele>132</ele>
        <time>2021-08-08T12:55:40Z</time>
      </trkpt>
      <trkpt lat="48.11666" lon="-2.836">
        <ele>132</ele>
        <time>2021-08-08T12:55:41Z</time>
      </trkpt>
      <trkpt lat="48.11664" lon="-2.83606">
        <ele>132.2</ele>
        <time>2021-08-08T12:55:42Z</time>
      </trkpt>
      <trkpt lat="48.11663" lon="-2.83612">
        <ele>132.2</ele>
        <time>2021-08-08T12:55:43Z</time>
      </trkpt>
      <trkpt lat="48.11661" lon="-2.83617">
        <ele>132.2</ele>
        <time>2021-08-08T12:55:44Z</time>
      </trkpt>
      <trkpt lat="48.11659" lon="-2.83621">
        <ele>132.2</ele>
        <time>2021-08-08T12:55:45Z</time>
      </trkpt>
      <trkpt lat="48.11657" lon="-2.83627">
        <ele>132.2</ele>
        <time>2021-08-08T12:55:46Z</time>
      </trkpt>
      <trkpt lat="48.11655" lon="-2.83633">
        <ele>132.2</ele>
        <time>2021-08-08T12:55:47Z</time>
      </trkpt>
      <trkpt lat="48.11652" lon="-2.8364">
        <ele>132.2</ele>
        <time>2021-08-08T12:55:48Z</time>
      </trkpt>
      <trkpt lat="48.11649" lon="-2.83647">
        <ele>132.2</ele>
        <time>2021-08-08T12:55:49Z</time>
      </trkpt>
      <trkpt lat="48.11647" lon="-2.83654">
        <ele>132.2</ele>
        <time>2021-08-08T12:55:50Z</time>
      </trkpt>
      <trkpt lat="48.11645" lon="-2.8366">
        <ele>132.2</ele>
        <time>2021-08-08T12:55:51Z</time>
      </trkpt>
      <trkpt lat="48.11643" lon="-2.83666">
        <ele>132.2</ele>
        <time>2021-08-08T12:55:52Z</time>
      </trkpt>
      <trkpt lat="48.11642" lon="-2.83672">
        <ele>132.2</ele>
        <time>2021-08-08T12:55:53Z</time>
      </trkpt>
      <trkpt lat="48.1164" lon="-2.83678">
        <ele>132.2</ele>
        <time>2021-08-08T12:55:54Z</time>
      </trkpt>
      <trkpt lat="48.11638" lon="-2.83683">
        <ele>132.2</ele>
        <time>2021-08-08T12:55:55Z</time>
      </trkpt>
      <trkpt lat="48.11636" lon="-2.83688">
        <ele>132.2</ele>
        <time>2021-08-08T12:55:56Z</time>
      </trkpt>
      <trkpt lat="48.11633" lon="-2.83694">
        <ele>132</ele>
        <time>2021-08-08T12:55:57Z</time>
      </trkpt>
      <trkpt lat="48.11631" lon="-2.83699">
        <ele>131.8</ele>
        <time>2021-08-08T12:55:58Z</time>
      </trkpt>
      <trkpt lat="48.11628" lon="-2.83705">
        <ele>131.8</ele>
        <time>2021-08-08T12:55:59Z</time>
      </trkpt>
      <trkpt lat="48.11626" lon="-2.8371">
        <ele>131.8</ele>
        <time>2021-08-08T12:56:00Z</time>
      </trkpt>
      <trkpt lat="48.11623" lon="-2.83716">
        <ele>131.8</ele>
        <time>2021-08-08T12:56:01Z</time>
      </trkpt>
      <trkpt lat="48.1162" lon="-2.83721">
        <ele>132</ele>
        <time>2021-08-08T12:56:02Z</time>
      </trkpt>
      <trkpt lat="48.11618" lon="-2.83727">
        <ele>132</ele>
        <time>2021-08-08T12:56:03Z</time>
      </trkpt>
      <trkpt lat="48.11615" lon="-2.83734">
        <ele>131.8</ele>
        <time>2021-08-08T12:56:04Z</time>
      </trkpt>
      <trkpt lat="48.11613" lon="-2.8374">
        <ele>131.8</ele>
        <time>2021-08-08T12:56:05Z</time>
      </trkpt>
      <trkpt lat="48.1161" lon="-2.83747">
        <ele>131.8</ele>
        <time>2021-08-08T12:56:06Z</time>
      </trkpt>
      <trkpt lat="48.11607" lon="-2.83753">
        <ele>132</ele>
        <time>2021-08-08T12:56:07Z</time>
      </trkpt>
      <trkpt lat="48.11604" lon="-2.83759">
        <ele>132</ele>
        <time>2021-08-08T12:56:08Z</time>
      </trkpt>
      <trkpt lat="48.11602" lon="-2.83765">
        <ele>132</ele>
        <time>2021-08-08T12:56:09Z</time>
      </trkpt>
      <trkpt lat="48.116" lon="-2.8377">
        <ele>132.2</ele>
        <time>2021-08-08T12:56:10Z</time>
      </trkpt>
      <trkpt lat="48.11598" lon="-2.83776">
        <ele>132.2</ele>
        <time>2021-08-08T12:56:11Z</time>
      </trkpt>
      <trkpt lat="48.11596" lon="-2.83783">
        <ele>132.2</ele>
        <time>2021-08-08T12:56:12Z</time>
      </trkpt>
      <trkpt lat="48.11593" lon="-2.83789">
        <ele>132.2</ele>
        <time>2021-08-08T12:56:13Z</time>
      </trkpt>
      <trkpt lat="48.1159" lon="-2.83795">
        <ele>132.2</ele>
        <time>2021-08-08T12:56:14Z</time>
      </trkpt>
      <trkpt lat="48.11587" lon="-2.83801">
        <ele>132.4</ele>
        <time>2021-08-08T12:56:15Z</time>
      </trkpt>
      <trkpt lat="48.11584" lon="-2.83807">
        <ele>132.4</ele>
        <time>2021-08-08T12:56:16Z</time>
      </trkpt>
      <trkpt lat="48.11581" lon="-2.83814">
        <ele>132.4</ele>
        <time>2021-08-08T12:56:17Z</time>
      </trkpt>
      <trkpt lat="48.11578" lon="-2.8382">
        <ele>132.4</ele>
        <time>2021-08-08T12:56:18Z</time>
      </trkpt>
      <trkpt lat="48.11576" lon="-2.83827">
        <ele>132.4</ele>
        <time>2021-08-08T12:56:19Z</time>
      </trkpt>
      <trkpt lat="48.11573" lon="-2.83833">
        <ele>132.6</ele>
        <time>2021-08-08T12:56:20Z</time>
      </trkpt>
      <trkpt lat="48.1157" lon="-2.83839">
        <ele>132.6</ele>
        <time>2021-08-08T12:56:21Z</time>
      </trkpt>
      <trkpt lat="48.11568" lon="-2.83845">
        <ele>132.6</ele>
        <time>2021-08-08T12:56:22Z</time>
      </trkpt>
      <trkpt lat="48.11565" lon="-2.83852">
        <ele>132.6</ele>
        <time>2021-08-08T12:56:23Z</time>
      </trkpt>
      <trkpt lat="48.11562" lon="-2.83859">
        <ele>132.6</ele>
        <time>2021-08-08T12:56:24Z</time>
      </trkpt>
      <trkpt lat="48.1156" lon="-2.83865">
        <ele>132.6</ele>
        <time>2021-08-08T12:56:25Z</time>
      </trkpt>
      <trkpt lat="48.11558" lon="-2.83871">
        <ele>132.6</ele>
        <time>2021-08-08T12:56:26Z</time>
      </trkpt>
      <trkpt lat="48.11555" lon="-2.83877">
        <ele>132.4</ele>
        <time>2021-08-08T12:56:27Z</time>
      </trkpt>
      <trkpt lat="48.11552" lon="-2.83884">
        <ele>132.4</ele>
        <time>2021-08-08T12:56:28Z</time>
      </trkpt>
      <trkpt lat="48.1155" lon="-2.8389">
        <ele>132.6</ele>
        <time>2021-08-08T12:56:29Z</time>
      </trkpt>
      <trkpt lat="48.11547" lon="-2.83897">
        <ele>132.6</ele>
        <time>2021-08-08T12:56:30Z</time>
      </trkpt>
      <trkpt lat="48.11544" lon="-2.83903">
        <ele>132.6</ele>
        <time>2021-08-08T12:56:31Z</time>
      </trkpt>
      <trkpt lat="48.11542" lon="-2.8391">
        <ele>132.6</ele>
        <time>2021-08-08T12:56:32Z</time>
      </trkpt>
      <trkpt lat="48.11539" lon="-2.83916">
        <ele>132.4</ele>
        <time>2021-08-08T12:56:33Z</time>
      </trkpt>
      <trkpt lat="48.11536" lon="-2.83923">
        <ele>132.4</ele>
        <time>2021-08-08T12:56:34Z</time>
      </trkpt>
      <trkpt lat="48.11533" lon="-2.83929">
        <ele>132.4</ele>
        <time>2021-08-08T12:56:35Z</time>
      </trkpt>
      <trkpt lat="48.11531" lon="-2.83936">
        <ele>132.4</ele>
        <time>2021-08-08T12:56:36Z</time>
      </trkpt>
      <trkpt lat="48.11528" lon="-2.83943">
        <ele>132.4</ele>
        <time>2021-08-08T12:56:37Z</time>
      </trkpt>
      <trkpt lat="48.11525" lon="-2.83949">
        <ele>132.4</ele>
        <time>2021-08-08T12:56:38Z</time>
      </trkpt>
      <trkpt lat="48.11523" lon="-2.83956">
        <ele>132.2</ele>
        <time>2021-08-08T12:56:39Z</time>
      </trkpt>
      <trkpt lat="48.1152" lon="-2.83962">
        <ele>132.2</ele>
        <time>2021-08-08T12:56:40Z</time>
      </trkpt>
      <trkpt lat="48.11517" lon="-2.83968">
        <ele>132.2</ele>
        <time>2021-08-08T12:56:41Z</time>
      </trkpt>
      <trkpt lat="48.11514" lon="-2.83974">
        <ele>132.4</ele>
        <time>2021-08-08T12:56:42Z</time>
      </trkpt>
      <trkpt lat="48.11512" lon="-2.8398">
        <ele>132.4</ele>
        <time>2021-08-08T12:56:43Z</time>
      </trkpt>
      <trkpt lat="48.11509" lon="-2.83987">
        <ele>132.4</ele>
        <time>2021-08-08T12:56:44Z</time>
      </trkpt>
      <trkpt lat="48.11506" lon="-2.83994">
        <ele>132.4</ele>
        <time>2021-08-08T12:56:45Z</time>
      </trkpt>
      <trkpt lat="48.11503" lon="-2.84">
        <ele>132.4</ele>
        <time>2021-08-08T12:56:46Z</time>
      </trkpt>
      <trkpt lat="48.11501" lon="-2.84007">
        <ele>132.4</ele>
        <time>2021-08-08T12:56:47Z</time>
      </trkpt>
      <trkpt lat="48.11498" lon="-2.84014">
        <ele>132.4</ele>
        <time>2021-08-08T12:56:48Z</time>
      </trkpt>
      <trkpt lat="48.11495" lon="-2.84021">
        <ele>132.4</ele>
        <time>2021-08-08T12:56:49Z</time>
      </trkpt>
      <trkpt lat="48.11493" lon="-2.84028">
        <ele>132.4</ele>
        <time>2021-08-08T12:56:50Z</time>
      </trkpt>
      <trkpt lat="48.1149" lon="-2.84035">
        <ele>132.4</ele>
        <time>2021-08-08T12:56:51Z</time>
      </trkpt>
      <trkpt lat="48.11487" lon="-2.84041">
        <ele>132.4</ele>
        <time>2021-08-08T12:56:52Z</time>
      </trkpt>
      <trkpt lat="48.11485" lon="-2.84047">
        <ele>132.4</ele>
        <time>2021-08-08T12:56:53Z</time>
      </trkpt>
      <trkpt lat="48.11482" lon="-2.84054">
        <ele>132.4</ele>
        <time>2021-08-08T12:56:54Z</time>
      </trkpt>
      <trkpt lat="48.11479" lon="-2.8406">
        <ele>132.2</ele>
        <time>2021-08-08T12:56:55Z</time>
      </trkpt>
      <trkpt lat="48.11476" lon="-2.84065">
        <ele>132.2</ele>
        <time>2021-08-08T12:56:56Z</time>
      </trkpt>
      <trkpt lat="48.11473" lon="-2.84071">
        <ele>132.4</ele>
        <time>2021-08-08T12:56:57Z</time>
      </trkpt>
      <trkpt lat="48.1147" lon="-2.84078">
        <ele>132.4</ele>
        <time>2021-08-08T12:56:58Z</time>
      </trkpt>
      <trkpt lat="48.11468" lon="-2.84084">
        <ele>132.6</ele>
        <time>2021-08-08T12:56:59Z</time>
      </trkpt>
      <trkpt lat="48.11465" lon="-2.8409">
        <ele>132.6</ele>
        <time>2021-08-08T12:57:00Z</time>
      </trkpt>
      <trkpt lat="48.11462" lon="-2.84096">
        <ele>132.8</ele>
        <time>2021-08-08T12:57:01Z</time>
      </trkpt>
      <trkpt lat="48.11459" lon="-2.84101">
        <ele>132.8</ele>
        <time>2021-08-08T12:57:02Z</time>
      </trkpt>
      <trkpt lat="48.11457" lon="-2.84107">
        <ele>132.8</ele>
        <time>2021-08-08T12:57:03Z</time>
      </trkpt>
      <trkpt lat="48.11455" lon="-2.84112">
        <ele>132.8</ele>
        <time>2021-08-08T12:57:04Z</time>
      </trkpt>
      <trkpt lat="48.11452" lon="-2.84118">
        <ele>132.8</ele>
        <time>2021-08-08T12:57:05Z</time>
      </trkpt>
      <trkpt lat="48.11449" lon="-2.84124">
        <ele>132.8</ele>
        <time>2021-08-08T12:57:06Z</time>
      </trkpt>
      <trkpt lat="48.11446" lon="-2.8413">
        <ele>132.8</ele>
        <time>2021-08-08T12:57:07Z</time>
      </trkpt>
      <trkpt lat="48.11443" lon="-2.84136">
        <ele>132.8</ele>
        <time>2021-08-08T12:57:08Z</time>
      </trkpt>
      <trkpt lat="48.1144" lon="-2.84143">
        <ele>132.8</ele>
        <time>2021-08-08T12:57:09Z</time>
      </trkpt>
      <trkpt lat="48.11437" lon="-2.8415">
        <ele>132.8</ele>
        <time>2021-08-08T12:57:10Z</time>
      </trkpt>
      <trkpt lat="48.11434" lon="-2.84157">
        <ele>132.6</ele>
        <time>2021-08-08T12:57:11Z</time>
      </trkpt>
      <trkpt lat="48.11431" lon="-2.84164">
        <ele>132.4</ele>
        <time>2021-08-08T12:57:12Z</time>
      </trkpt>
      <trkpt lat="48.11429" lon="-2.84171">
        <ele>132.4</ele>
        <time>2021-08-08T12:57:13Z</time>
      </trkpt>
      <trkpt lat="48.11426" lon="-2.84178">
        <ele>132.4</ele>
        <time>2021-08-08T12:57:14Z</time>
      </trkpt>
      <trkpt lat="48.11423" lon="-2.84184">
        <ele>132.4</ele>
        <time>2021-08-08T12:57:15Z</time>
      </trkpt>
      <trkpt lat="48.11421" lon="-2.84191">
        <ele>132.4</ele>
        <time>2021-08-08T12:57:16Z</time>
      </trkpt>
      <trkpt lat="48.11418" lon="-2.84197">
        <ele>132.4</ele>
        <time>2021-08-08T12:57:17Z</time>
      </trkpt>
      <trkpt lat="48.11416" lon="-2.84202">
        <ele>132.4</ele>
        <time>2021-08-08T12:57:18Z</time>
      </trkpt>
      <trkpt lat="48.11413" lon="-2.84207">
        <ele>132.4</ele>
        <time>2021-08-08T12:57:19Z</time>
      </trkpt>
      <trkpt lat="48.11411" lon="-2.8421">
        <ele>132.4</ele>
        <time>2021-08-08T12:57:20Z</time>
      </trkpt>
      <trkpt lat="48.11409" lon="-2.84214">
        <ele>132.4</ele>
        <time>2021-08-08T12:57:21Z</time>
      </trkpt>
      <trkpt lat="48.11408" lon="-2.84217">
        <ele>132.4</ele>
        <time>2021-08-08T12:57:22Z</time>
      </trkpt>
      <trkpt lat="48.11406" lon="-2.8422">
        <ele>132.4</ele>
        <time>2021-08-08T12:57:23Z</time>
      </trkpt>
      <trkpt lat="48.11405" lon="-2.84222">
        <ele>132.4</ele>
        <time>2021-08-08T12:57:24Z</time>
      </trkpt>
      <trkpt lat="48.11404" lon="-2.84225">
        <ele>132.4</ele>
        <time>2021-08-08T12:57:25Z</time>
      </trkpt>
      <trkpt lat="48.11402" lon="-2.84228">
        <ele>132.4</ele>
        <time>2021-08-08T12:57:26Z</time>
      </trkpt>
      <trkpt lat="48.114" lon="-2.84232">
        <ele>132.6</ele>
        <time>2021-08-08T12:57:27Z</time>
      </trkpt>
      <trkpt lat="48.11398" lon="-2.84235">
        <ele>132.6</ele>
        <time>2021-08-08T12:57:28Z</time>
      </trkpt>
      <trkpt lat="48.11396" lon="-2.8424">
        <ele>132.6</ele>
        <time>2021-08-08T12:57:29Z</time>
      </trkpt>
      <trkpt lat="48.11394" lon="-2.84245">
        <ele>132.6</ele>
        <time>2021-08-08T12:57:30Z</time>
      </trkpt>
      <trkpt lat="48.11393" lon="-2.84248">
        <ele>132.6</ele>
        <time>2021-08-08T12:57:31Z</time>
      </trkpt>
      <trkpt lat="48.11391" lon="-2.84253">
        <ele>132.6</ele>
        <time>2021-08-08T12:57:32Z</time>
      </trkpt>
      <trkpt lat="48.11389" lon="-2.84257">
        <ele>132.6</ele>
        <time>2021-08-08T12:57:33Z</time>
      </trkpt>
      <trkpt lat="48.11387" lon="-2.84261">
        <ele>132.6</ele>
        <time>2021-08-08T12:57:34Z</time>
      </trkpt>
      <trkpt lat="48.11385" lon="-2.84264">
        <ele>132.6</ele>
        <time>2021-08-08T12:57:35Z</time>
      </trkpt>
      <trkpt lat="48.11383" lon="-2.84269">
        <ele>132.6</ele>
        <time>2021-08-08T12:57:36Z</time>
      </trkpt>
      <trkpt lat="48.11381" lon="-2.84275">
        <ele>132.6</ele>
        <time>2021-08-08T12:57:37Z</time>
      </trkpt>
      <trkpt lat="48.11379" lon="-2.84279">
        <ele>132.6</ele>
        <time>2021-08-08T12:57:38Z</time>
      </trkpt>
      <trkpt lat="48.11377" lon="-2.84283">
        <ele>132.6</ele>
        <time>2021-08-08T12:57:39Z</time>
      </trkpt>
      <trkpt lat="48.11375" lon="-2.84287">
        <ele>132.6</ele>
        <time>2021-08-08T12:57:40Z</time>
      </trkpt>
      <trkpt lat="48.11373" lon="-2.84291">
        <ele>133</ele>
        <time>2021-08-08T12:57:41Z</time>
      </trkpt>
      <trkpt lat="48.11371" lon="-2.84297">
        <ele>133</ele>
        <time>2021-08-08T12:57:42Z</time>
      </trkpt>
      <trkpt lat="48.11369" lon="-2.84304">
        <ele>132.8</ele>
        <time>2021-08-08T12:57:43Z</time>
      </trkpt>
      <trkpt lat="48.11366" lon="-2.8431">
        <ele>132.8</ele>
        <time>2021-08-08T12:57:44Z</time>
      </trkpt>
      <trkpt lat="48.11364" lon="-2.84318">
        <ele>132.8</ele>
        <time>2021-08-08T12:57:45Z</time>
      </trkpt>
      <trkpt lat="48.11362" lon="-2.84325">
        <ele>132.8</ele>
        <time>2021-08-08T12:57:46Z</time>
      </trkpt>
      <trkpt lat="48.11359" lon="-2.84332">
        <ele>132.8</ele>
        <time>2021-08-08T12:57:47Z</time>
      </trkpt>
      <trkpt lat="48.11356" lon="-2.8434">
        <ele>132.8</ele>
        <time>2021-08-08T12:57:48Z</time>
      </trkpt>
      <trkpt lat="48.11353" lon="-2.84348">
        <ele>132.8</ele>
        <time>2021-08-08T12:57:49Z</time>
      </trkpt>
      <trkpt lat="48.11351" lon="-2.84355">
        <ele>132.8</ele>
        <time>2021-08-08T12:57:50Z</time>
      </trkpt>
      <trkpt lat="48.11349" lon="-2.84363">
        <ele>132.8</ele>
        <time>2021-08-08T12:57:51Z</time>
      </trkpt>
      <trkpt lat="48.11347" lon="-2.8437">
        <ele>132.8</ele>
        <time>2021-08-08T12:57:52Z</time>
      </trkpt>
      <trkpt lat="48.11345" lon="-2.84378">
        <ele>133</ele>
        <time>2021-08-08T12:57:53Z</time>
      </trkpt>
      <trkpt lat="48.11343" lon="-2.84384">
        <ele>133</ele>
        <time>2021-08-08T12:57:54Z</time>
      </trkpt>
      <trkpt lat="48.11342" lon="-2.84392">
        <ele>133</ele>
        <time>2021-08-08T12:57:55Z</time>
      </trkpt>
      <trkpt lat="48.11341" lon="-2.84398">
        <ele>133</ele>
        <time>2021-08-08T12:57:56Z</time>
      </trkpt>
      <trkpt lat="48.1134" lon="-2.84405">
        <ele>133</ele>
        <time>2021-08-08T12:57:57Z</time>
      </trkpt>
      <trkpt lat="48.11339" lon="-2.84411">
        <ele>133</ele>
        <time>2021-08-08T12:57:58Z</time>
      </trkpt>
      <trkpt lat="48.11338" lon="-2.84417">
        <ele>133</ele>
        <time>2021-08-08T12:57:59Z</time>
      </trkpt>
      <trkpt lat="48.11337" lon="-2.84424">
        <ele>133</ele>
        <time>2021-08-08T12:58:00Z</time>
      </trkpt>
      <trkpt lat="48.11336" lon="-2.84431">
        <ele>133</ele>
        <time>2021-08-08T12:58:01Z</time>
      </trkpt>
      <trkpt lat="48.11336" lon="-2.84437">
        <ele>133</ele>
        <time>2021-08-08T12:58:02Z</time>
      </trkpt>
      <trkpt lat="48.11335" lon="-2.84442">
        <ele>133</ele>
        <time>2021-08-08T12:58:03Z</time>
      </trkpt>
      <trkpt lat="48.11335" lon="-2.84448">
        <ele>133</ele>
        <time>2021-08-08T12:58:04Z</time>
      </trkpt>
      <trkpt lat="48.11335" lon="-2.84454">
        <ele>132.6</ele>
        <time>2021-08-08T12:58:05Z</time>
      </trkpt>
      <trkpt lat="48.11335" lon="-2.8446">
        <ele>132.6</ele>
        <time>2021-08-08T12:58:06Z</time>
      </trkpt>
      <trkpt lat="48.11335" lon="-2.84466">
        <ele>132.4</ele>
        <time>2021-08-08T12:58:07Z</time>
      </trkpt>
      <trkpt lat="48.11335" lon="-2.84472">
        <ele>132.2</ele>
        <time>2021-08-08T12:58:08Z</time>
      </trkpt>
      <trkpt lat="48.11335" lon="-2.84479">
        <ele>132.2</ele>
        <time>2021-08-08T12:58:09Z</time>
      </trkpt>
      <trkpt lat="48.11336" lon="-2.84486">
        <ele>132.2</ele>
        <time>2021-08-08T12:58:10Z</time>
      </trkpt>
      <trkpt lat="48.11336" lon="-2.84492">
        <ele>132.2</ele>
        <time>2021-08-08T12:58:11Z</time>
      </trkpt>
      <trkpt lat="48.11337" lon="-2.84499">
        <ele>132.2</ele>
        <time>2021-08-08T12:58:12Z</time>
      </trkpt>
      <trkpt lat="48.11337" lon="-2.84505">
        <ele>132.2</ele>
        <time>2021-08-08T12:58:13Z</time>
      </trkpt>
      <trkpt lat="48.11338" lon="-2.8451">
        <ele>132.2</ele>
        <time>2021-08-08T12:58:14Z</time>
      </trkpt>
      <trkpt lat="48.11338" lon="-2.84515">
        <ele>132</ele>
        <time>2021-08-08T12:58:15Z</time>
      </trkpt>
      <trkpt lat="48.11338" lon="-2.84521">
        <ele>132</ele>
        <time>2021-08-08T12:58:16Z</time>
      </trkpt>
      <trkpt lat="48.11338" lon="-2.84528">
        <ele>132</ele>
        <time>2021-08-08T12:58:17Z</time>
      </trkpt>
      <trkpt lat="48.11339" lon="-2.84535">
        <ele>132</ele>
        <time>2021-08-08T12:58:18Z</time>
      </trkpt>
      <trkpt lat="48.11339" lon="-2.84542">
        <ele>132</ele>
        <time>2021-08-08T12:58:19Z</time>
      </trkpt>
      <trkpt lat="48.1134" lon="-2.84548">
        <ele>132</ele>
        <time>2021-08-08T12:58:20Z</time>
      </trkpt>
      <trkpt lat="48.1134" lon="-2.84554">
        <ele>132</ele>
        <time>2021-08-08T12:58:21Z</time>
      </trkpt>
      <trkpt lat="48.11341" lon="-2.8456">
        <ele>132</ele>
        <time>2021-08-08T12:58:22Z</time>
      </trkpt>
      <trkpt lat="48.11342" lon="-2.84566">
        <ele>132.2</ele>
        <time>2021-08-08T12:58:23Z</time>
      </trkpt>
      <trkpt lat="48.11344" lon="-2.84571">
        <ele>132.2</ele>
        <time>2021-08-08T12:58:24Z</time>
      </trkpt>
      <trkpt lat="48.11345" lon="-2.84577">
        <ele>132</ele>
        <time>2021-08-08T12:58:25Z</time>
      </trkpt>
      <trkpt lat="48.11345" lon="-2.84583">
        <ele>132</ele>
        <time>2021-08-08T12:58:26Z</time>
      </trkpt>
      <trkpt lat="48.11346" lon="-2.84589">
        <ele>132</ele>
        <time>2021-08-08T12:58:27Z</time>
      </trkpt>
      <trkpt lat="48.11347" lon="-2.84595">
        <ele>132</ele>
        <time>2021-08-08T12:58:28Z</time>
      </trkpt>
      <trkpt lat="48.11348" lon="-2.84604">
        <ele>132</ele>
        <time>2021-08-08T12:58:29Z</time>
      </trkpt>
      <trkpt lat="48.11348" lon="-2.84612">
        <ele>132</ele>
        <time>2021-08-08T12:58:30Z</time>
      </trkpt>
      <trkpt lat="48.11349" lon="-2.84618">
        <ele>132</ele>
        <time>2021-08-08T12:58:31Z</time>
      </trkpt>
      <trkpt lat="48.1135" lon="-2.84625">
        <ele>132</ele>
        <time>2021-08-08T12:58:32Z</time>
      </trkpt>
      <trkpt lat="48.11351" lon="-2.84632">
        <ele>131.8</ele>
        <time>2021-08-08T12:58:33Z</time>
      </trkpt>
      <trkpt lat="48.11352" lon="-2.84637">
        <ele>131.8</ele>
        <time>2021-08-08T12:58:34Z</time>
      </trkpt>
      <trkpt lat="48.11352" lon="-2.84645">
        <ele>131.8</ele>
        <time>2021-08-08T12:58:35Z</time>
      </trkpt>
      <trkpt lat="48.11352" lon="-2.84651">
        <ele>131.8</ele>
        <time>2021-08-08T12:58:36Z</time>
      </trkpt>
      <trkpt lat="48.11353" lon="-2.84658">
        <ele>131.8</ele>
        <time>2021-08-08T12:58:37Z</time>
      </trkpt>
      <trkpt lat="48.11353" lon="-2.84664">
        <ele>131.8</ele>
        <time>2021-08-08T12:58:38Z</time>
      </trkpt>
      <trkpt lat="48.11354" lon="-2.84669">
        <ele>131.8</ele>
        <time>2021-08-08T12:58:39Z</time>
      </trkpt>
      <trkpt lat="48.11354" lon="-2.84674">
        <ele>131.8</ele>
        <time>2021-08-08T12:58:40Z</time>
      </trkpt>
      <trkpt lat="48.11355" lon="-2.84679">
        <ele>131.8</ele>
        <time>2021-08-08T12:58:41Z</time>
      </trkpt>
      <trkpt lat="48.11356" lon="-2.84686">
        <ele>131.8</ele>
        <time>2021-08-08T12:58:42Z</time>
      </trkpt>
      <trkpt lat="48.11358" lon="-2.84691">
        <ele>131.8</ele>
        <time>2021-08-08T12:58:43Z</time>
      </trkpt>
      <trkpt lat="48.11359" lon="-2.84697">
        <ele>131.8</ele>
        <time>2021-08-08T12:58:44Z</time>
      </trkpt>
      <trkpt lat="48.1136" lon="-2.84702">
        <ele>131.8</ele>
        <time>2021-08-08T12:58:45Z</time>
      </trkpt>
      <trkpt lat="48.11361" lon="-2.84707">
        <ele>131.8</ele>
        <time>2021-08-08T12:58:46Z</time>
      </trkpt>
      <trkpt lat="48.11362" lon="-2.84712">
        <ele>131.8</ele>
        <time>2021-08-08T12:58:47Z</time>
      </trkpt>
      <trkpt lat="48.11363" lon="-2.84718">
        <ele>131.8</ele>
        <time>2021-08-08T12:58:48Z</time>
      </trkpt>
      <trkpt lat="48.11364" lon="-2.84722">
        <ele>131.8</ele>
        <time>2021-08-08T12:58:49Z</time>
      </trkpt>
      <trkpt lat="48.11365" lon="-2.84725">
        <ele>131.8</ele>
        <time>2021-08-08T12:58:50Z</time>
      </trkpt>
      <trkpt lat="48.11366" lon="-2.84728">
        <ele>131.8</ele>
        <time>2021-08-08T12:58:51Z</time>
      </trkpt>
      <trkpt lat="48.11368" lon="-2.84732">
        <ele>131.8</ele>
        <time>2021-08-08T12:58:52Z</time>
      </trkpt>
      <trkpt lat="48.1137" lon="-2.84736">
        <ele>131.8</ele>
        <time>2021-08-08T12:58:53Z</time>
      </trkpt>
      <trkpt lat="48.11372" lon="-2.84741">
        <ele>132</ele>
        <time>2021-08-08T12:58:54Z</time>
      </trkpt>
      <trkpt lat="48.11375" lon="-2.84746">
        <ele>132</ele>
        <time>2021-08-08T12:58:55Z</time>
      </trkpt>
      <trkpt lat="48.11379" lon="-2.84752">
        <ele>132</ele>
        <time>2021-08-08T12:58:56Z</time>
      </trkpt>
      <trkpt lat="48.11381" lon="-2.84758">
        <ele>132</ele>
        <time>2021-08-08T12:58:57Z</time>
      </trkpt>
      <trkpt lat="48.11384" lon="-2.8477">
        <ele>132.2</ele>
        <time>2021-08-08T12:58:58Z</time>
      </trkpt>
      <trkpt lat="48.11387" lon="-2.84783">
        <ele>132.2</ele>
        <time>2021-08-08T12:58:59Z</time>
      </trkpt>
      <trkpt lat="48.11391" lon="-2.84791">
        <ele>132.2</ele>
        <time>2021-08-08T12:59:00Z</time>
      </trkpt>
      <trkpt lat="48.11394" lon="-2.84797">
        <ele>132</ele>
        <time>2021-08-08T12:59:01Z</time>
      </trkpt>
      <trkpt lat="48.11398" lon="-2.84802">
        <ele>132</ele>
        <time>2021-08-08T12:59:02Z</time>
      </trkpt>
      <trkpt lat="48.11401" lon="-2.84808">
        <ele>131.8</ele>
        <time>2021-08-08T12:59:03Z</time>
      </trkpt>
      <trkpt lat="48.11404" lon="-2.8482">
        <ele>131.8</ele>
        <time>2021-08-08T12:59:04Z</time>
      </trkpt>
      <trkpt lat="48.11407" lon="-2.8483">
        <ele>131.8</ele>
        <time>2021-08-08T12:59:05Z</time>
      </trkpt>
      <trkpt lat="48.1141" lon="-2.84838">
        <ele>131.8</ele>
        <time>2021-08-08T12:59:06Z</time>
      </trkpt>
      <trkpt lat="48.11414" lon="-2.84846">
        <ele>132</ele>
        <time>2021-08-08T12:59:07Z</time>
      </trkpt>
      <trkpt lat="48.11417" lon="-2.84853">
        <ele>132</ele>
        <time>2021-08-08T12:59:08Z</time>
      </trkpt>
      <trkpt lat="48.11421" lon="-2.84859">
        <ele>132</ele>
        <time>2021-08-08T12:59:09Z</time>
      </trkpt>
      <trkpt lat="48.11425" lon="-2.84865">
        <ele>132</ele>
        <time>2021-08-08T12:59:10Z</time>
      </trkpt>
      <trkpt lat="48.11429" lon="-2.8487">
        <ele>132</ele>
        <time>2021-08-08T12:59:11Z</time>
      </trkpt>
      <trkpt lat="48.11434" lon="-2.84876">
        <ele>132</ele>
        <time>2021-08-08T12:59:12Z</time>
      </trkpt>
      <trkpt lat="48.11438" lon="-2.8488">
        <ele>132</ele>
        <time>2021-08-08T12:59:13Z</time>
      </trkpt>
      <trkpt lat="48.11443" lon="-2.84886">
        <ele>131.8</ele>
        <time>2021-08-08T12:59:14Z</time>
      </trkpt>
      <trkpt lat="48.11448" lon="-2.84892">
        <ele>131.8</ele>
        <time>2021-08-08T12:59:15Z</time>
      </trkpt>
      <trkpt lat="48.11453" lon="-2.84897">
        <ele>131.8</ele>
        <time>2021-08-08T12:59:16Z</time>
      </trkpt>
      <trkpt lat="48.11458" lon="-2.84902">
        <ele>131.8</ele>
        <time>2021-08-08T12:59:17Z</time>
      </trkpt>
      <trkpt lat="48.11463" lon="-2.84907">
        <ele>131.8</ele>
        <time>2021-08-08T12:59:18Z</time>
      </trkpt>
      <trkpt lat="48.11468" lon="-2.84911">
        <ele>131.8</ele>
        <time>2021-08-08T12:59:19Z</time>
      </trkpt>
      <trkpt lat="48.11472" lon="-2.84915">
        <ele>131.8</ele>
        <time>2021-08-08T12:59:20Z</time>
      </trkpt>
      <trkpt lat="48.11477" lon="-2.84918">
        <ele>131.8</ele>
        <time>2021-08-08T12:59:21Z</time>
      </trkpt>
      <trkpt lat="48.11481" lon="-2.8492">
        <ele>131.8</ele>
        <time>2021-08-08T12:59:22Z</time>
      </trkpt>
      <trkpt lat="48.11485" lon="-2.84922">
        <ele>131.8</ele>
        <time>2021-08-08T12:59:23Z</time>
      </trkpt>
      <trkpt lat="48.1149" lon="-2.84925">
        <ele>131.8</ele>
        <time>2021-08-08T12:59:24Z</time>
      </trkpt>
      <trkpt lat="48.11494" lon="-2.84927">
        <ele>131.8</ele>
        <time>2021-08-08T12:59:25Z</time>
      </trkpt>
      <trkpt lat="48.11498" lon="-2.84929">
        <ele>131.8</ele>
        <time>2021-08-08T12:59:26Z</time>
      </trkpt>
      <trkpt lat="48.11502" lon="-2.84931">
        <ele>131.8</ele>
        <time>2021-08-08T12:59:27Z</time>
      </trkpt>
      <trkpt lat="48.11506" lon="-2.84932">
        <ele>131.8</ele>
        <time>2021-08-08T12:59:28Z</time>
      </trkpt>
      <trkpt lat="48.11511" lon="-2.84934">
        <ele>131.8</ele>
        <time>2021-08-08T12:59:29Z</time>
      </trkpt>
      <trkpt lat="48.11515" lon="-2.84935">
        <ele>132</ele>
        <time>2021-08-08T12:59:30Z</time>
      </trkpt>
      <trkpt lat="48.11519" lon="-2.84936">
        <ele>132.2</ele>
        <time>2021-08-08T12:59:31Z</time>
      </trkpt>
      <trkpt lat="48.11522" lon="-2.84937">
        <ele>132.2</ele>
        <time>2021-08-08T12:59:32Z</time>
      </trkpt>
      <trkpt lat="48.11526" lon="-2.84938">
        <ele>132.4</ele>
        <time>2021-08-08T12:59:33Z</time>
      </trkpt>
      <trkpt lat="48.11531" lon="-2.84939">
        <ele>132.4</ele>
        <time>2021-08-08T12:59:34Z</time>
      </trkpt>
      <trkpt lat="48.11535" lon="-2.84941">
        <ele>132.4</ele>
        <time>2021-08-08T12:59:35Z</time>
      </trkpt>
      <trkpt lat="48.1154" lon="-2.84942">
        <ele>132.4</ele>
        <time>2021-08-08T12:59:36Z</time>
      </trkpt>
      <trkpt lat="48.11545" lon="-2.84943">
        <ele>132.4</ele>
        <time>2021-08-08T12:59:37Z</time>
      </trkpt>
      <trkpt lat="48.1155" lon="-2.84945">
        <ele>132.4</ele>
        <time>2021-08-08T12:59:38Z</time>
      </trkpt>
      <trkpt lat="48.11556" lon="-2.84946">
        <ele>132.4</ele>
        <time>2021-08-08T12:59:39Z</time>
      </trkpt>
      <trkpt lat="48.11562" lon="-2.84947">
        <ele>132.4</ele>
        <time>2021-08-08T12:59:40Z</time>
      </trkpt>
      <trkpt lat="48.11567" lon="-2.84949">
        <ele>132.4</ele>
        <time>2021-08-08T12:59:41Z</time>
      </trkpt>
      <trkpt lat="48.11572" lon="-2.8495">
        <ele>132.4</ele>
        <time>2021-08-08T12:59:42Z</time>
      </trkpt>
      <trkpt lat="48.11578" lon="-2.84951">
        <ele>132.4</ele>
        <time>2021-08-08T12:59:43Z</time>
      </trkpt>
      <trkpt lat="48.11583" lon="-2.84951">
        <ele>132.4</ele>
        <time>2021-08-08T12:59:44Z</time>
      </trkpt>
      <trkpt lat="48.11588" lon="-2.84953">
        <ele>132.2</ele>
        <time>2021-08-08T12:59:45Z</time>
      </trkpt>
      <trkpt lat="48.11594" lon="-2.84954">
        <ele>132.2</ele>
        <time>2021-08-08T12:59:46Z</time>
      </trkpt>
      <trkpt lat="48.11598" lon="-2.84955">
        <ele>132</ele>
        <time>2021-08-08T12:59:47Z</time>
      </trkpt>
      <trkpt lat="48.11602" lon="-2.84956">
        <ele>131.8</ele>
        <time>2021-08-08T12:59:48Z</time>
      </trkpt>
      <trkpt lat="48.11606" lon="-2.84956">
        <ele>131.8</ele>
        <time>2021-08-08T12:59:49Z</time>
      </trkpt>
      <trkpt lat="48.11611" lon="-2.84957">
        <ele>131.8</ele>
        <time>2021-08-08T12:59:50Z</time>
      </trkpt>
      <trkpt lat="48.11615" lon="-2.84959">
        <ele>131.6</ele>
        <time>2021-08-08T12:59:51Z</time>
      </trkpt>
      <trkpt lat="48.11619" lon="-2.8496">
        <ele>131.6</ele>
        <time>2021-08-08T12:59:52Z</time>
      </trkpt>
      <trkpt lat="48.11623" lon="-2.84962">
        <ele>131.6</ele>
        <time>2021-08-08T12:59:53Z</time>
      </trkpt>
      <trkpt lat="48.11627" lon="-2.84963">
        <ele>131.6</ele>
        <time>2021-08-08T12:59:54Z</time>
      </trkpt>
      <trkpt lat="48.11632" lon="-2.84963">
        <ele>131.6</ele>
        <time>2021-08-08T12:59:55Z</time>
      </trkpt>
      <trkpt lat="48.11637" lon="-2.84964">
        <ele>131.6</ele>
        <time>2021-08-08T12:59:56Z</time>
      </trkpt>
      <trkpt lat="48.11642" lon="-2.84965">
        <ele>131.6</ele>
        <time>2021-08-08T12:59:57Z</time>
      </trkpt>
      <trkpt lat="48.11646" lon="-2.84966">
        <ele>131.6</ele>
        <time>2021-08-08T12:59:58Z</time>
      </trkpt>
      <trkpt lat="48.11652" lon="-2.84967">
        <ele>131.6</ele>
        <time>2021-08-08T12:59:59Z</time>
      </trkpt>
      <trkpt lat="48.11657" lon="-2.84967">
        <ele>131.6</ele>
        <time>2021-08-08T13:00:00Z</time>
      </trkpt>
      <trkpt lat="48.11662" lon="-2.84968">
        <ele>131.6</ele>
        <time>2021-08-08T13:00:01Z</time>
      </trkpt>
      <trkpt lat="48.11668" lon="-2.84968">
        <ele>131.8</ele>
        <time>2021-08-08T13:00:02Z</time>
      </trkpt>
      <trkpt lat="48.11673" lon="-2.84969">
        <ele>131.8</ele>
        <time>2021-08-08T13:00:03Z</time>
      </trkpt>
      <trkpt lat="48.11678" lon="-2.8497">
        <ele>131.8</ele>
        <time>2021-08-08T13:00:04Z</time>
      </trkpt>
      <trkpt lat="48.11683" lon="-2.84971">
        <ele>131.8</ele>
        <time>2021-08-08T13:00:05Z</time>
      </trkpt>
      <trkpt lat="48.11688" lon="-2.84972">
        <ele>131.8</ele>
        <time>2021-08-08T13:00:06Z</time>
      </trkpt>
      <trkpt lat="48.11692" lon="-2.84973">
        <ele>131.8</ele>
        <time>2021-08-08T13:00:07Z</time>
      </trkpt>
      <trkpt lat="48.11696" lon="-2.84974">
        <ele>131.8</ele>
        <time>2021-08-08T13:00:08Z</time>
      </trkpt>
      <trkpt lat="48.117" lon="-2.84975">
        <ele>131.8</ele>
        <time>2021-08-08T13:00:09Z</time>
      </trkpt>
      <trkpt lat="48.11704" lon="-2.84975">
        <ele>131.8</ele>
        <time>2021-08-08T13:00:10Z</time>
      </trkpt>
      <trkpt lat="48.11708" lon="-2.84977">
        <ele>131.8</ele>
        <time>2021-08-08T13:00:11Z</time>
      </trkpt>
      <trkpt lat="48.11712" lon="-2.84978">
        <ele>131.8</ele>
        <time>2021-08-08T13:00:12Z</time>
      </trkpt>
      <trkpt lat="48.11716" lon="-2.84979">
        <ele>131.6</ele>
        <time>2021-08-08T13:00:13Z</time>
      </trkpt>
      <trkpt lat="48.1172" lon="-2.8498">
        <ele>131.6</ele>
        <time>2021-08-08T13:00:14Z</time>
      </trkpt>
      <trkpt lat="48.11725" lon="-2.84981">
        <ele>131.6</ele>
        <time>2021-08-08T13:00:15Z</time>
      </trkpt>
      <trkpt lat="48.11729" lon="-2.84982">
        <ele>131.4</ele>
        <time>2021-08-08T13:00:16Z</time>
      </trkpt>
      <trkpt lat="48.11733" lon="-2.84983">
        <ele>131.4</ele>
        <time>2021-08-08T13:00:17Z</time>
      </trkpt>
      <trkpt lat="48.11736" lon="-2.84984">
        <ele>131.4</ele>
        <time>2021-08-08T13:00:18Z</time>
      </trkpt>
      <trkpt lat="48.1174" lon="-2.84984">
        <ele>131.4</ele>
        <time>2021-08-08T13:00:19Z</time>
      </trkpt>
      <trkpt lat="48.11744" lon="-2.84985">
        <ele>131.4</ele>
        <time>2021-08-08T13:00:20Z</time>
      </trkpt>
      <trkpt lat="48.11747" lon="-2.84984">
        <ele>131.4</ele>
        <time>2021-08-08T13:00:21Z</time>
      </trkpt>
      <trkpt lat="48.11752" lon="-2.84984">
        <ele>131.4</ele>
        <time>2021-08-08T13:00:22Z</time>
      </trkpt>
      <trkpt lat="48.11755" lon="-2.84984">
        <ele>131.4</ele>
        <time>2021-08-08T13:00:23Z</time>
      </trkpt>
      <trkpt lat="48.11759" lon="-2.84984">
        <ele>131.4</ele>
        <time>2021-08-08T13:00:24Z</time>
      </trkpt>
      <trkpt lat="48.11764" lon="-2.84985">
        <ele>131.4</ele>
        <time>2021-08-08T13:00:25Z</time>
      </trkpt>
      <trkpt lat="48.11769" lon="-2.84987">
        <ele>131.4</ele>
        <time>2021-08-08T13:00:26Z</time>
      </trkpt>
      <trkpt lat="48.11773" lon="-2.84989">
        <ele>131.4</ele>
        <time>2021-08-08T13:00:27Z</time>
      </trkpt>
      <trkpt lat="48.11777" lon="-2.84991">
        <ele>131.6</ele>
        <time>2021-08-08T13:00:28Z</time>
      </trkpt>
      <trkpt lat="48.11782" lon="-2.84994">
        <ele>131.6</ele>
        <time>2021-08-08T13:00:29Z</time>
      </trkpt>
      <trkpt lat="48.11787" lon="-2.84997">
        <ele>131.8</ele>
        <time>2021-08-08T13:00:30Z</time>
      </trkpt>
      <trkpt lat="48.11791" lon="-2.84999">
        <ele>131.8</ele>
        <time>2021-08-08T13:00:31Z</time>
      </trkpt>
      <trkpt lat="48.11795" lon="-2.85002">
        <ele>131.8</ele>
        <time>2021-08-08T13:00:32Z</time>
      </trkpt>
      <trkpt lat="48.118" lon="-2.85005">
        <ele>131.8</ele>
        <time>2021-08-08T13:00:33Z</time>
      </trkpt>
      <trkpt lat="48.11804" lon="-2.85008">
        <ele>132</ele>
        <time>2021-08-08T13:00:34Z</time>
      </trkpt>
      <trkpt lat="48.11808" lon="-2.85012">
        <ele>132</ele>
        <time>2021-08-08T13:00:35Z</time>
      </trkpt>
      <trkpt lat="48.11812" lon="-2.85015">
        <ele>132</ele>
        <time>2021-08-08T13:00:36Z</time>
      </trkpt>
      <trkpt lat="48.11815" lon="-2.85018">
        <ele>132</ele>
        <time>2021-08-08T13:00:37Z</time>
      </trkpt>
      <trkpt lat="48.11818" lon="-2.85021">
        <ele>132</ele>
        <time>2021-08-08T13:00:38Z</time>
      </trkpt>
      <trkpt lat="48.11821" lon="-2.85024">
        <ele>132</ele>
        <time>2021-08-08T13:00:39Z</time>
      </trkpt>
      <trkpt lat="48.11825" lon="-2.85028">
        <ele>132</ele>
        <time>2021-08-08T13:00:40Z</time>
      </trkpt>
      <trkpt lat="48.11827" lon="-2.85031">
        <ele>132</ele>
        <time>2021-08-08T13:00:41Z</time>
      </trkpt>
      <trkpt lat="48.1183" lon="-2.85034">
        <ele>132</ele>
        <time>2021-08-08T13:00:42Z</time>
      </trkpt>
      <trkpt lat="48.11833" lon="-2.85038">
        <ele>132</ele>
        <time>2021-08-08T13:00:43Z</time>
      </trkpt>
      <trkpt lat="48.11836" lon="-2.85042">
        <ele>132</ele>
        <time>2021-08-08T13:00:44Z</time>
      </trkpt>
      <trkpt lat="48.11839" lon="-2.85046">
        <ele>132</ele>
        <time>2021-08-08T13:00:45Z</time>
      </trkpt>
      <trkpt lat="48.11842" lon="-2.85049">
        <ele>132</ele>
        <time>2021-08-08T13:00:46Z</time>
      </trkpt>
      <trkpt lat="48.11845" lon="-2.85053">
        <ele>132</ele>
        <time>2021-08-08T13:00:47Z</time>
      </trkpt>
      <trkpt lat="48.11849" lon="-2.85057">
        <ele>132</ele>
        <time>2021-08-08T13:00:48Z</time>
      </trkpt>
      <trkpt lat="48.11852" lon="-2.85061">
        <ele>132</ele>
        <time>2021-08-08T13:00:49Z</time>
      </trkpt>
      <trkpt lat="48.11854" lon="-2.85066">
        <ele>132</ele>
        <time>2021-08-08T13:00:50Z</time>
      </trkpt>
      <trkpt lat="48.11855" lon="-2.8507">
        <ele>132</ele>
        <time>2021-08-08T13:00:51Z</time>
      </trkpt>
      <trkpt lat="48.11857" lon="-2.85074">
        <ele>132.2</ele>
        <time>2021-08-08T13:00:52Z</time>
      </trkpt>
      <trkpt lat="48.1186" lon="-2.85078">
        <ele>132.2</ele>
        <time>2021-08-08T13:00:53Z</time>
      </trkpt>
      <trkpt lat="48.11862" lon="-2.85082">
        <ele>132.4</ele>
        <time>2021-08-08T13:00:54Z</time>
      </trkpt>
      <trkpt lat="48.11864" lon="-2.85086">
        <ele>132.4</ele>
        <time>2021-08-08T13:00:55Z</time>
      </trkpt>
      <trkpt lat="48.11865" lon="-2.8509">
        <ele>132.4</ele>
        <time>2021-08-08T13:00:56Z</time>
      </trkpt>
      <trkpt lat="48.11867" lon="-2.85094">
        <ele>132.4</ele>
        <time>2021-08-08T13:00:57Z</time>
      </trkpt>
      <trkpt lat="48.11869" lon="-2.85097">
        <ele>132.6</ele>
        <time>2021-08-08T13:00:58Z</time>
      </trkpt>
      <trkpt lat="48.1187" lon="-2.85101">
        <ele>132.6</ele>
        <time>2021-08-08T13:00:59Z</time>
      </trkpt>
      <trkpt lat="48.11872" lon="-2.85104">
        <ele>132.6</ele>
        <time>2021-08-08T13:01:00Z</time>
      </trkpt>
      <trkpt lat="48.11873" lon="-2.85107">
        <ele>132.6</ele>
        <time>2021-08-08T13:01:01Z</time>
      </trkpt>
      <trkpt lat="48.11874" lon="-2.85111">
        <ele>132.6</ele>
        <time>2021-08-08T13:01:02Z</time>
      </trkpt>
      <trkpt lat="48.11875" lon="-2.85115">
        <ele>132.6</ele>
        <time>2021-08-08T13:01:03Z</time>
      </trkpt>
      <trkpt lat="48.11876" lon="-2.85119">
        <ele>132.6</ele>
        <time>2021-08-08T13:01:04Z</time>
      </trkpt>
      <trkpt lat="48.11877" lon="-2.85124">
        <ele>132.6</ele>
        <time>2021-08-08T13:01:05Z</time>
      </trkpt>
      <trkpt lat="48.11878" lon="-2.85129">
        <ele>132.6</ele>
        <time>2021-08-08T13:01:06Z</time>
      </trkpt>
      <trkpt lat="48.11879" lon="-2.85133">
        <ele>132.6</ele>
        <time>2021-08-08T13:01:07Z</time>
      </trkpt>
      <trkpt lat="48.11881" lon="-2.85138">
        <ele>132.6</ele>
        <time>2021-08-08T13:01:08Z</time>
      </trkpt>
      <trkpt lat="48.11882" lon="-2.85145">
        <ele>132.6</ele>
        <time>2021-08-08T13:01:09Z</time>
      </trkpt>
      <trkpt lat="48.11883" lon="-2.85151">
        <ele>132.6</ele>
        <time>2021-08-08T13:01:10Z</time>
      </trkpt>
      <trkpt lat="48.11883" lon="-2.85158">
        <ele>132.4</ele>
        <time>2021-08-08T13:01:11Z</time>
      </trkpt>
      <trkpt lat="48.11884" lon="-2.85165">
        <ele>132.4</ele>
        <time>2021-08-08T13:01:12Z</time>
      </trkpt>
      <trkpt lat="48.11885" lon="-2.85172">
        <ele>132.4</ele>
        <time>2021-08-08T13:01:13Z</time>
      </trkpt>
      <trkpt lat="48.11886" lon="-2.85179">
        <ele>132.2</ele>
        <time>2021-08-08T13:01:14Z</time>
      </trkpt>
      <trkpt lat="48.11886" lon="-2.85186">
        <ele>132.2</ele>
        <time>2021-08-08T13:01:15Z</time>
      </trkpt>
      <trkpt lat="48.11887" lon="-2.85192">
        <ele>132.2</ele>
        <time>2021-08-08T13:01:16Z</time>
      </trkpt>
      <trkpt lat="48.11888" lon="-2.85199">
        <ele>132.2</ele>
        <time>2021-08-08T13:01:17Z</time>
      </trkpt>
      <trkpt lat="48.11888" lon="-2.85206">
        <ele>132</ele>
        <time>2021-08-08T13:01:18Z</time>
      </trkpt>
      <trkpt lat="48.11889" lon="-2.85214">
        <ele>132</ele>
        <time>2021-08-08T13:01:19Z</time>
      </trkpt>
      <trkpt lat="48.11889" lon="-2.85221">
        <ele>131.8</ele>
        <time>2021-08-08T13:01:20Z</time>
      </trkpt>
      <trkpt lat="48.1189" lon="-2.85228">
        <ele>131.8</ele>
        <time>2021-08-08T13:01:21Z</time>
      </trkpt>
      <trkpt lat="48.11891" lon="-2.85235">
        <ele>131.8</ele>
        <time>2021-08-08T13:01:22Z</time>
      </trkpt>
      <trkpt lat="48.11892" lon="-2.85242">
        <ele>131.8</ele>
        <time>2021-08-08T13:01:23Z</time>
      </trkpt>
      <trkpt lat="48.11892" lon="-2.85248">
        <ele>131.8</ele>
        <time>2021-08-08T13:01:24Z</time>
      </trkpt>
      <trkpt lat="48.11892" lon="-2.85255">
        <ele>131.8</ele>
        <time>2021-08-08T13:01:25Z</time>
      </trkpt>
      <trkpt lat="48.11893" lon="-2.85262">
        <ele>131.6</ele>
        <time>2021-08-08T13:01:26Z</time>
      </trkpt>
      <trkpt lat="48.11893" lon="-2.85269">
        <ele>131.6</ele>
        <time>2021-08-08T13:01:27Z</time>
      </trkpt>
      <trkpt lat="48.11894" lon="-2.85276">
        <ele>131.6</ele>
        <time>2021-08-08T13:01:28Z</time>
      </trkpt>
      <trkpt lat="48.11894" lon="-2.85284">
        <ele>131.6</ele>
        <time>2021-08-08T13:01:29Z</time>
      </trkpt>
      <trkpt lat="48.11894" lon="-2.85292">
        <ele>131.6</ele>
        <time>2021-08-08T13:01:30Z</time>
      </trkpt>
      <trkpt lat="48.11895" lon="-2.85299">
        <ele>131.4</ele>
        <time>2021-08-08T13:01:31Z</time>
      </trkpt>
      <trkpt lat="48.11896" lon="-2.85307">
        <ele>131.4</ele>
        <time>2021-08-08T13:01:32Z</time>
      </trkpt>
      <trkpt lat="48.11896" lon="-2.85315">
        <ele>131.4</ele>
        <time>2021-08-08T13:01:33Z</time>
      </trkpt>
      <trkpt lat="48.11897" lon="-2.85323">
        <ele>131.2</ele>
        <time>2021-08-08T13:01:34Z</time>
      </trkpt>
      <trkpt lat="48.11897" lon="-2.8533">
        <ele>131.2</ele>
        <time>2021-08-08T13:01:35Z</time>
      </trkpt>
      <trkpt lat="48.11897" lon="-2.85337">
        <ele>131</ele>
        <time>2021-08-08T13:01:36Z</time>
      </trkpt>
      <trkpt lat="48.11898" lon="-2.85344">
        <ele>131</ele>
        <time>2021-08-08T13:01:37Z</time>
      </trkpt>
      <trkpt lat="48.11898" lon="-2.85352">
        <ele>130.8</ele>
        <time>2021-08-08T13:01:38Z</time>
      </trkpt>
      <trkpt lat="48.11898" lon="-2.85359">
        <ele>130.8</ele>
        <time>2021-08-08T13:01:39Z</time>
      </trkpt>
      <trkpt lat="48.11899" lon="-2.85367">
        <ele>130.8</ele>
        <time>2021-08-08T13:01:40Z</time>
      </trkpt>
      <trkpt lat="48.11899" lon="-2.85374">
        <ele>130.8</ele>
        <time>2021-08-08T13:01:41Z</time>
      </trkpt>
      <trkpt lat="48.11899" lon="-2.85382">
        <ele>130.8</ele>
        <time>2021-08-08T13:01:42Z</time>
      </trkpt>
      <trkpt lat="48.119" lon="-2.8539">
        <ele>130.8</ele>
        <time>2021-08-08T13:01:43Z</time>
      </trkpt>
      <trkpt lat="48.119" lon="-2.85397">
        <ele>130.8</ele>
        <time>2021-08-08T13:01:44Z</time>
      </trkpt>
      <trkpt lat="48.11901" lon="-2.85405">
        <ele>130.8</ele>
        <time>2021-08-08T13:01:45Z</time>
      </trkpt>
      <trkpt lat="48.11902" lon="-2.85413">
        <ele>130.8</ele>
        <time>2021-08-08T13:01:46Z</time>
      </trkpt>
      <trkpt lat="48.11903" lon="-2.8542">
        <ele>130.8</ele>
        <time>2021-08-08T13:01:47Z</time>
      </trkpt>
      <trkpt lat="48.11904" lon="-2.85428">
        <ele>130.8</ele>
        <time>2021-08-08T13:01:48Z</time>
      </trkpt>
      <trkpt lat="48.11906" lon="-2.85436">
        <ele>130.8</ele>
        <time>2021-08-08T13:01:49Z</time>
      </trkpt>
      <trkpt lat="48.11907" lon="-2.85443">
        <ele>130.8</ele>
        <time>2021-08-08T13:01:50Z</time>
      </trkpt>
      <trkpt lat="48.11909" lon="-2.8545">
        <ele>130.8</ele>
        <time>2021-08-08T13:01:51Z</time>
      </trkpt>
      <trkpt lat="48.11911" lon="-2.85457">
        <ele>130.8</ele>
        <time>2021-08-08T13:01:52Z</time>
      </trkpt>
      <trkpt lat="48.11914" lon="-2.85464">
        <ele>130.8</ele>
        <time>2021-08-08T13:01:53Z</time>
      </trkpt>
      <trkpt lat="48.11916" lon="-2.8547">
        <ele>130.8</ele>
        <time>2021-08-08T13:01:54Z</time>
      </trkpt>
      <trkpt lat="48.11918" lon="-2.85475">
        <ele>130.8</ele>
        <time>2021-08-08T13:01:55Z</time>
      </trkpt>
      <trkpt lat="48.11919" lon="-2.85481">
        <ele>130.8</ele>
        <time>2021-08-08T13:01:56Z</time>
      </trkpt>
      <trkpt lat="48.11921" lon="-2.85487">
        <ele>130.8</ele>
        <time>2021-08-08T13:01:57Z</time>
      </trkpt>
      <trkpt lat="48.11923" lon="-2.85494">
        <ele>130.8</ele>
        <time>2021-08-08T13:01:58Z</time>
      </trkpt>
      <trkpt lat="48.11925" lon="-2.855">
        <ele>130.8</ele>
        <time>2021-08-08T13:01:59Z</time>
      </trkpt>
      <trkpt lat="48.11927" lon="-2.85506">
        <ele>130.8</ele>
        <time>2021-08-08T13:02:00Z</time>
      </trkpt>
      <trkpt lat="48.1193" lon="-2.85512">
        <ele>130.8</ele>
        <time>2021-08-08T13:02:01Z</time>
      </trkpt>
      <trkpt lat="48.11932" lon="-2.85517">
        <ele>130.8</ele>
        <time>2021-08-08T13:02:02Z</time>
      </trkpt>
      <trkpt lat="48.11934" lon="-2.85521">
        <ele>130.8</ele>
        <time>2021-08-08T13:02:03Z</time>
      </trkpt>
      <trkpt lat="48.11935" lon="-2.85526">
        <ele>130.8</ele>
        <time>2021-08-08T13:02:04Z</time>
      </trkpt>
      <trkpt lat="48.11937" lon="-2.8553">
        <ele>130.8</ele>
        <time>2021-08-08T13:02:05Z</time>
      </trkpt>
      <trkpt lat="48.1194" lon="-2.85537">
        <ele>130.8</ele>
        <time>2021-08-08T13:02:06Z</time>
      </trkpt>
      <trkpt lat="48.11941" lon="-2.85546">
        <ele>130.8</ele>
        <time>2021-08-08T13:02:07Z</time>
      </trkpt>
      <trkpt lat="48.11943" lon="-2.85552">
        <ele>130.8</ele>
        <time>2021-08-08T13:02:08Z</time>
      </trkpt>
      <trkpt lat="48.11945" lon="-2.85561">
        <ele>130.8</ele>
        <time>2021-08-08T13:02:09Z</time>
      </trkpt>
      <trkpt lat="48.11948" lon="-2.85569">
        <ele>130.8</ele>
        <time>2021-08-08T13:02:10Z</time>
      </trkpt>
      <trkpt lat="48.1195" lon="-2.85577">
        <ele>130.8</ele>
        <time>2021-08-08T13:02:11Z</time>
      </trkpt>
      <trkpt lat="48.11952" lon="-2.85584">
        <ele>130.8</ele>
        <time>2021-08-08T13:02:12Z</time>
      </trkpt>
      <trkpt lat="48.11954" lon="-2.85592">
        <ele>130.8</ele>
        <time>2021-08-08T13:02:13Z</time>
      </trkpt>
      <trkpt lat="48.11956" lon="-2.856">
        <ele>130.8</ele>
        <time>2021-08-08T13:02:14Z</time>
      </trkpt>
      <trkpt lat="48.11959" lon="-2.85607">
        <ele>130.8</ele>
        <time>2021-08-08T13:02:15Z</time>
      </trkpt>
      <trkpt lat="48.1196" lon="-2.85615">
        <ele>130.8</ele>
        <time>2021-08-08T13:02:16Z</time>
      </trkpt>
      <trkpt lat="48.11962" lon="-2.85623">
        <ele>130.8</ele>
        <time>2021-08-08T13:02:17Z</time>
      </trkpt>
      <trkpt lat="48.11965" lon="-2.8563">
        <ele>130.8</ele>
        <time>2021-08-08T13:02:18Z</time>
      </trkpt>
      <trkpt lat="48.11967" lon="-2.85636">
        <ele>130.8</ele>
        <time>2021-08-08T13:02:19Z</time>
      </trkpt>
      <trkpt lat="48.11969" lon="-2.85642">
        <ele>130.8</ele>
        <time>2021-08-08T13:02:20Z</time>
      </trkpt>
      <trkpt lat="48.11971" lon="-2.85649">
        <ele>130.8</ele>
        <time>2021-08-08T13:02:21Z</time>
      </trkpt>
      <trkpt lat="48.11974" lon="-2.85655">
        <ele>130.6</ele>
        <time>2021-08-08T13:02:22Z</time>
      </trkpt>
      <trkpt lat="48.11976" lon="-2.85661">
        <ele>130.6</ele>
        <time>2021-08-08T13:02:23Z</time>
      </trkpt>
      <trkpt lat="48.11978" lon="-2.85667">
        <ele>130.4</ele>
        <time>2021-08-08T13:02:24Z</time>
      </trkpt>
      <trkpt lat="48.1198" lon="-2.85673">
        <ele>130.4</ele>
        <time>2021-08-08T13:02:25Z</time>
      </trkpt>
      <trkpt lat="48.11982" lon="-2.85679">
        <ele>130.4</ele>
        <time>2021-08-08T13:02:26Z</time>
      </trkpt>
      <trkpt lat="48.11983" lon="-2.85686">
        <ele>130.4</ele>
        <time>2021-08-08T13:02:27Z</time>
      </trkpt>
      <trkpt lat="48.11985" lon="-2.85692">
        <ele>130.4</ele>
        <time>2021-08-08T13:02:28Z</time>
      </trkpt>
      <trkpt lat="48.11987" lon="-2.85698">
        <ele>130.4</ele>
        <time>2021-08-08T13:02:29Z</time>
      </trkpt>
      <trkpt lat="48.11988" lon="-2.85705">
        <ele>130.4</ele>
        <time>2021-08-08T13:02:30Z</time>
      </trkpt>
      <trkpt lat="48.11989" lon="-2.85712">
        <ele>130.6</ele>
        <time>2021-08-08T13:02:31Z</time>
      </trkpt>
      <trkpt lat="48.1199" lon="-2.85721">
        <ele>130.6</ele>
        <time>2021-08-08T13:02:32Z</time>
      </trkpt>
      <trkpt lat="48.1199" lon="-2.85731">
        <ele>130.6</ele>
        <time>2021-08-08T13:02:33Z</time>
      </trkpt>
      <trkpt lat="48.1199" lon="-2.8574">
        <ele>130.6</ele>
        <time>2021-08-08T13:02:34Z</time>
      </trkpt>
      <trkpt lat="48.1199" lon="-2.85748">
        <ele>130.6</ele>
        <time>2021-08-08T13:02:35Z</time>
      </trkpt>
      <trkpt lat="48.11991" lon="-2.85757">
        <ele>130.6</ele>
        <time>2021-08-08T13:02:36Z</time>
      </trkpt>
      <trkpt lat="48.11991" lon="-2.85765">
        <ele>130.6</ele>
        <time>2021-08-08T13:02:37Z</time>
      </trkpt>
      <trkpt lat="48.1199" lon="-2.85773">
        <ele>130.8</ele>
        <time>2021-08-08T13:02:38Z</time>
      </trkpt>
      <trkpt lat="48.1199" lon="-2.85781">
        <ele>130.8</ele>
        <time>2021-08-08T13:02:39Z</time>
      </trkpt>
      <trkpt lat="48.11989" lon="-2.85789">
        <ele>130.8</ele>
        <time>2021-08-08T13:02:40Z</time>
      </trkpt>
      <trkpt lat="48.11988" lon="-2.85795">
        <ele>130.8</ele>
        <time>2021-08-08T13:02:41Z</time>
      </trkpt>
      <trkpt lat="48.11988" lon="-2.85802">
        <ele>130.8</ele>
        <time>2021-08-08T13:02:42Z</time>
      </trkpt>
      <trkpt lat="48.11987" lon="-2.85809">
        <ele>130.8</ele>
        <time>2021-08-08T13:02:43Z</time>
      </trkpt>
      <trkpt lat="48.11986" lon="-2.85815">
        <ele>130.8</ele>
        <time>2021-08-08T13:02:44Z</time>
      </trkpt>
      <trkpt lat="48.11985" lon="-2.85821">
        <ele>130.8</ele>
        <time>2021-08-08T13:02:45Z</time>
      </trkpt>
      <trkpt lat="48.11984" lon="-2.85826">
        <ele>130.6</ele>
        <time>2021-08-08T13:02:46Z</time>
      </trkpt>
      <trkpt lat="48.11983" lon="-2.8583">
        <ele>130.6</ele>
        <time>2021-08-08T13:02:47Z</time>
      </trkpt>
      <trkpt lat="48.11982" lon="-2.85836">
        <ele>130.6</ele>
        <time>2021-08-08T13:02:48Z</time>
      </trkpt>
      <trkpt lat="48.1198" lon="-2.85842">
        <ele>130.6</ele>
        <time>2021-08-08T13:02:49Z</time>
      </trkpt>
      <trkpt lat="48.11978" lon="-2.85848">
        <ele>130.6</ele>
        <time>2021-08-08T13:02:50Z</time>
      </trkpt>
      <trkpt lat="48.11976" lon="-2.85855">
        <ele>130.6</ele>
        <time>2021-08-08T13:02:51Z</time>
      </trkpt>
      <trkpt lat="48.11974" lon="-2.85863">
        <ele>130.6</ele>
        <time>2021-08-08T13:02:52Z</time>
      </trkpt>
      <trkpt lat="48.11972" lon="-2.8587">
        <ele>130.6</ele>
        <time>2021-08-08T13:02:53Z</time>
      </trkpt>
      <trkpt lat="48.11971" lon="-2.85878">
        <ele>130.6</ele>
        <time>2021-08-08T13:02:54Z</time>
      </trkpt>
      <trkpt lat="48.11969" lon="-2.85887">
        <ele>130.6</ele>
        <time>2021-08-08T13:02:55Z</time>
      </trkpt>
      <trkpt lat="48.11967" lon="-2.85895">
        <ele>130.6</ele>
        <time>2021-08-08T13:02:56Z</time>
      </trkpt>
      <trkpt lat="48.11965" lon="-2.85902">
        <ele>130.8</ele>
        <time>2021-08-08T13:02:57Z</time>
      </trkpt>
      <trkpt lat="48.11963" lon="-2.85909">
        <ele>130.8</ele>
        <time>2021-08-08T13:02:58Z</time>
      </trkpt>
      <trkpt lat="48.11961" lon="-2.85918">
        <ele>131</ele>
        <time>2021-08-08T13:02:59Z</time>
      </trkpt>
      <trkpt lat="48.11959" lon="-2.85926">
        <ele>131</ele>
        <time>2021-08-08T13:03:00Z</time>
      </trkpt>
      <trkpt lat="48.11956" lon="-2.85934">
        <ele>131.2</ele>
        <time>2021-08-08T13:03:01Z</time>
      </trkpt>
      <trkpt lat="48.11955" lon="-2.85942">
        <ele>131.2</ele>
        <time>2021-08-08T13:03:02Z</time>
      </trkpt>
      <trkpt lat="48.11953" lon="-2.85949">
        <ele>131.2</ele>
        <time>2021-08-08T13:03:03Z</time>
      </trkpt>
      <trkpt lat="48.11951" lon="-2.85958">
        <ele>131.2</ele>
        <time>2021-08-08T13:03:04Z</time>
      </trkpt>
      <trkpt lat="48.1195" lon="-2.85966">
        <ele>131.2</ele>
        <time>2021-08-08T13:03:05Z</time>
      </trkpt>
      <trkpt lat="48.11948" lon="-2.85972">
        <ele>131.2</ele>
        <time>2021-08-08T13:03:06Z</time>
      </trkpt>
      <trkpt lat="48.11947" lon="-2.85979">
        <ele>131.2</ele>
        <time>2021-08-08T13:03:07Z</time>
      </trkpt>
      <trkpt lat="48.11946" lon="-2.85984">
        <ele>131.2</ele>
        <time>2021-08-08T13:03:08Z</time>
      </trkpt>
      <trkpt lat="48.11944" lon="-2.85991">
        <ele>131.2</ele>
        <time>2021-08-08T13:03:09Z</time>
      </trkpt>
      <trkpt lat="48.11942" lon="-2.85999">
        <ele>131.2</ele>
        <time>2021-08-08T13:03:10Z</time>
      </trkpt>
      <trkpt lat="48.11941" lon="-2.86008">
        <ele>131.2</ele>
        <time>2021-08-08T13:03:11Z</time>
      </trkpt>
      <trkpt lat="48.11939" lon="-2.86016">
        <ele>131.2</ele>
        <time>2021-08-08T13:03:12Z</time>
      </trkpt>
      <trkpt lat="48.11938" lon="-2.86023">
        <ele>131.2</ele>
        <time>2021-08-08T13:03:13Z</time>
      </trkpt>
      <trkpt lat="48.11936" lon="-2.8603">
        <ele>131.2</ele>
        <time>2021-08-08T13:03:14Z</time>
      </trkpt>
      <trkpt lat="48.11934" lon="-2.86038">
        <ele>131.2</ele>
        <time>2021-08-08T13:03:15Z</time>
      </trkpt>
      <trkpt lat="48.11932" lon="-2.86046">
        <ele>131.2</ele>
        <time>2021-08-08T13:03:16Z</time>
      </trkpt>
      <trkpt lat="48.11931" lon="-2.86053">
        <ele>131.2</ele>
        <time>2021-08-08T13:03:17Z</time>
      </trkpt>
      <trkpt lat="48.11929" lon="-2.86061">
        <ele>131.2</ele>
        <time>2021-08-08T13:03:18Z</time>
      </trkpt>
      <trkpt lat="48.11928" lon="-2.86068">
        <ele>131.2</ele>
        <time>2021-08-08T13:03:19Z</time>
      </trkpt>
      <trkpt lat="48.11927" lon="-2.86074">
        <ele>131.2</ele>
        <time>2021-08-08T13:03:20Z</time>
      </trkpt>
      <trkpt lat="48.11926" lon="-2.86081">
        <ele>131.4</ele>
        <time>2021-08-08T13:03:21Z</time>
      </trkpt>
      <trkpt lat="48.11925" lon="-2.86087">
        <ele>131.4</ele>
        <time>2021-08-08T13:03:22Z</time>
      </trkpt>
      <trkpt lat="48.11924" lon="-2.86094">
        <ele>131.4</ele>
        <time>2021-08-08T13:03:23Z</time>
      </trkpt>
      <trkpt lat="48.11923" lon="-2.86101">
        <ele>131.4</ele>
        <time>2021-08-08T13:03:24Z</time>
      </trkpt>
      <trkpt lat="48.11923" lon="-2.86108">
        <ele>131.6</ele>
        <time>2021-08-08T13:03:25Z</time>
      </trkpt>
      <trkpt lat="48.11923" lon="-2.86114">
        <ele>131.6</ele>
        <time>2021-08-08T13:03:26Z</time>
      </trkpt>
      <trkpt lat="48.11923" lon="-2.86121">
        <ele>131.8</ele>
        <time>2021-08-08T13:03:27Z</time>
      </trkpt>
      <trkpt lat="48.11923" lon="-2.86128">
        <ele>132</ele>
        <time>2021-08-08T13:03:28Z</time>
      </trkpt>
      <trkpt lat="48.11924" lon="-2.86136">
        <ele>132</ele>
        <time>2021-08-08T13:03:29Z</time>
      </trkpt>
      <trkpt lat="48.11924" lon="-2.86143">
        <ele>132</ele>
        <time>2021-08-08T13:03:30Z</time>
      </trkpt>
      <trkpt lat="48.11925" lon="-2.8615">
        <ele>132.2</ele>
        <time>2021-08-08T13:03:31Z</time>
      </trkpt>
      <trkpt lat="48.11926" lon="-2.86155">
        <ele>132.2</ele>
        <time>2021-08-08T13:03:32Z</time>
      </trkpt>
      <trkpt lat="48.11927" lon="-2.86162">
        <ele>132.2</ele>
        <time>2021-08-08T13:03:33Z</time>
      </trkpt>
      <trkpt lat="48.11928" lon="-2.86168">
        <ele>132.2</ele>
        <time>2021-08-08T13:03:34Z</time>
      </trkpt>
      <trkpt lat="48.11929" lon="-2.86174">
        <ele>132.2</ele>
        <time>2021-08-08T13:03:35Z</time>
      </trkpt>
      <trkpt lat="48.11931" lon="-2.86178">
        <ele>132.2</ele>
        <time>2021-08-08T13:03:36Z</time>
      </trkpt>
      <trkpt lat="48.11933" lon="-2.86183">
        <ele>132.2</ele>
        <time>2021-08-08T13:03:37Z</time>
      </trkpt>
      <trkpt lat="48.11934" lon="-2.86187">
        <ele>132.2</ele>
        <time>2021-08-08T13:03:38Z</time>
      </trkpt>
      <trkpt lat="48.11935" lon="-2.86191">
        <ele>132.2</ele>
        <time>2021-08-08T13:03:39Z</time>
      </trkpt>
      <trkpt lat="48.11937" lon="-2.86196">
        <ele>132.2</ele>
        <time>2021-08-08T13:03:40Z</time>
      </trkpt>
      <trkpt lat="48.11939" lon="-2.862">
        <ele>132.2</ele>
        <time>2021-08-08T13:03:41Z</time>
      </trkpt>
      <trkpt lat="48.11941" lon="-2.86204">
        <ele>132</ele>
        <time>2021-08-08T13:03:42Z</time>
      </trkpt>
      <trkpt lat="48.11943" lon="-2.86209">
        <ele>132</ele>
        <time>2021-08-08T13:03:43Z</time>
      </trkpt>
      <trkpt lat="48.11945" lon="-2.86213">
        <ele>132</ele>
        <time>2021-08-08T13:03:44Z</time>
      </trkpt>
      <trkpt lat="48.11947" lon="-2.86217">
        <ele>132</ele>
        <time>2021-08-08T13:03:45Z</time>
      </trkpt>
      <trkpt lat="48.1195" lon="-2.86221">
        <ele>132</ele>
        <time>2021-08-08T13:03:46Z</time>
      </trkpt>
      <trkpt lat="48.11953" lon="-2.86225">
        <ele>132</ele>
        <time>2021-08-08T13:03:47Z</time>
      </trkpt>
      <trkpt lat="48.11955" lon="-2.86229">
        <ele>132.2</ele>
        <time>2021-08-08T13:03:48Z</time>
      </trkpt>
      <trkpt lat="48.11958" lon="-2.86235">
        <ele>132.2</ele>
        <time>2021-08-08T13:03:49Z</time>
      </trkpt>
      <trkpt lat="48.1196" lon="-2.8624">
        <ele>132.2</ele>
        <time>2021-08-08T13:03:50Z</time>
      </trkpt>
      <trkpt lat="48.11962" lon="-2.86246">
        <ele>132.2</ele>
        <time>2021-08-08T13:03:51Z</time>
      </trkpt>
      <trkpt lat="48.11964" lon="-2.86251">
        <ele>132.2</ele>
        <time>2021-08-08T13:03:52Z</time>
      </trkpt>
      <trkpt lat="48.11966" lon="-2.86257">
        <ele>132.2</ele>
        <time>2021-08-08T13:03:53Z</time>
      </trkpt>
      <trkpt lat="48.11968" lon="-2.86262">
        <ele>132.2</ele>
        <time>2021-08-08T13:03:54Z</time>
      </trkpt>
      <trkpt lat="48.11969" lon="-2.86267">
        <ele>132.2</ele>
        <time>2021-08-08T13:03:55Z</time>
      </trkpt>
      <trkpt lat="48.11971" lon="-2.86273">
        <ele>132.2</ele>
        <time>2021-08-08T13:03:56Z</time>
      </trkpt>
      <trkpt lat="48.11973" lon="-2.86278">
        <ele>132.2</ele>
        <time>2021-08-08T13:03:57Z</time>
      </trkpt>
      <trkpt lat="48.11974" lon="-2.86282">
        <ele>132.2</ele>
        <time>2021-08-08T13:03:58Z</time>
      </trkpt>
      <trkpt lat="48.11975" lon="-2.86288">
        <ele>132.2</ele>
        <time>2021-08-08T13:03:59Z</time>
      </trkpt>
      <trkpt lat="48.11976" lon="-2.86295">
        <ele>132.2</ele>
        <time>2021-08-08T13:04:00Z</time>
      </trkpt>
      <trkpt lat="48.11976" lon="-2.86301">
        <ele>132.2</ele>
        <time>2021-08-08T13:04:01Z</time>
      </trkpt>
      <trkpt lat="48.11977" lon="-2.86309">
        <ele>132</ele>
        <time>2021-08-08T13:04:02Z</time>
      </trkpt>
      <trkpt lat="48.11978" lon="-2.86316">
        <ele>132</ele>
        <time>2021-08-08T13:04:03Z</time>
      </trkpt>
      <trkpt lat="48.11979" lon="-2.86324">
        <ele>132</ele>
        <time>2021-08-08T13:04:04Z</time>
      </trkpt>
      <trkpt lat="48.1198" lon="-2.86331">
        <ele>132</ele>
        <time>2021-08-08T13:04:05Z</time>
      </trkpt>
      <trkpt lat="48.1198" lon="-2.86337">
        <ele>132</ele>
        <time>2021-08-08T13:04:06Z</time>
      </trkpt>
      <trkpt lat="48.1198" lon="-2.86344">
        <ele>132</ele>
        <time>2021-08-08T13:04:07Z</time>
      </trkpt>
      <trkpt lat="48.1198" lon="-2.86353">
        <ele>132</ele>
        <time>2021-08-08T13:04:08Z</time>
      </trkpt>
      <trkpt lat="48.1198" lon="-2.86362">
        <ele>131.8</ele>
        <time>2021-08-08T13:04:09Z</time>
      </trkpt>
      <trkpt lat="48.1198" lon="-2.86372">
        <ele>131.8</ele>
        <time>2021-08-08T13:04:10Z</time>
      </trkpt>
      <trkpt lat="48.11979" lon="-2.86382">
        <ele>131.8</ele>
        <time>2021-08-08T13:04:11Z</time>
      </trkpt>
      <trkpt lat="48.11978" lon="-2.86392">
        <ele>131.6</ele>
        <time>2021-08-08T13:04:12Z</time>
      </trkpt>
      <trkpt lat="48.11977" lon="-2.86401">
        <ele>131.6</ele>
        <time>2021-08-08T13:04:13Z</time>
      </trkpt>
      <trkpt lat="48.11976" lon="-2.86411">
        <ele>131.6</ele>
        <time>2021-08-08T13:04:14Z</time>
      </trkpt>
      <trkpt lat="48.11975" lon="-2.86419">
        <ele>131.6</ele>
        <time>2021-08-08T13:04:15Z</time>
      </trkpt>
      <trkpt lat="48.11974" lon="-2.86427">
        <ele>131.4</ele>
        <time>2021-08-08T13:04:16Z</time>
      </trkpt>
      <trkpt lat="48.11972" lon="-2.86435">
        <ele>131.4</ele>
        <time>2021-08-08T13:04:17Z</time>
      </trkpt>
      <trkpt lat="48.1197" lon="-2.86443">
        <ele>131.4</ele>
        <time>2021-08-08T13:04:18Z</time>
      </trkpt>
      <trkpt lat="48.11968" lon="-2.8645">
        <ele>131.4</ele>
        <time>2021-08-08T13:04:19Z</time>
      </trkpt>
      <trkpt lat="48.11966" lon="-2.86457">
        <ele>131.4</ele>
        <time>2021-08-08T13:04:20Z</time>
      </trkpt>
      <trkpt lat="48.11964" lon="-2.86464">
        <ele>131.4</ele>
        <time>2021-08-08T13:04:21Z</time>
      </trkpt>
      <trkpt lat="48.11962" lon="-2.86471">
        <ele>131.4</ele>
        <time>2021-08-08T13:04:22Z</time>
      </trkpt>
      <trkpt lat="48.1196" lon="-2.86478">
        <ele>131.4</ele>
        <time>2021-08-08T13:04:23Z</time>
      </trkpt>
      <trkpt lat="48.11958" lon="-2.86484">
        <ele>131.4</ele>
        <time>2021-08-08T13:04:24Z</time>
      </trkpt>
      <trkpt lat="48.11956" lon="-2.8649">
        <ele>131.4</ele>
        <time>2021-08-08T13:04:25Z</time>
      </trkpt>
      <trkpt lat="48.11954" lon="-2.86496">
        <ele>131.2</ele>
        <time>2021-08-08T13:04:26Z</time>
      </trkpt>
      <trkpt lat="48.11951" lon="-2.86502">
        <ele>131.2</ele>
        <time>2021-08-08T13:04:27Z</time>
      </trkpt>
      <trkpt lat="48.11948" lon="-2.86508">
        <ele>131.2</ele>
        <time>2021-08-08T13:04:28Z</time>
      </trkpt>
      <trkpt lat="48.11946" lon="-2.86515">
        <ele>131</ele>
        <time>2021-08-08T13:04:29Z</time>
      </trkpt>
      <trkpt lat="48.11942" lon="-2.86521">
        <ele>131</ele>
        <time>2021-08-08T13:04:30Z</time>
      </trkpt>
      <trkpt lat="48.1194" lon="-2.86528">
        <ele>131</ele>
        <time>2021-08-08T13:04:31Z</time>
      </trkpt>
      <trkpt lat="48.11937" lon="-2.86535">
        <ele>131</ele>
        <time>2021-08-08T13:04:32Z</time>
      </trkpt>
      <trkpt lat="48.11933" lon="-2.86541">
        <ele>131</ele>
        <time>2021-08-08T13:04:33Z</time>
      </trkpt>
      <trkpt lat="48.1193" lon="-2.86546">
        <ele>131</ele>
        <time>2021-08-08T13:04:34Z</time>
      </trkpt>
      <trkpt lat="48.11927" lon="-2.86552">
        <ele>131</ele>
        <time>2021-08-08T13:04:35Z</time>
      </trkpt>
      <trkpt lat="48.11924" lon="-2.86557">
        <ele>131</ele>
        <time>2021-08-08T13:04:36Z</time>
      </trkpt>
      <trkpt lat="48.11921" lon="-2.86563">
        <ele>131</ele>
        <time>2021-08-08T13:04:37Z</time>
      </trkpt>
      <trkpt lat="48.11918" lon="-2.86568">
        <ele>131</ele>
        <time>2021-08-08T13:04:38Z</time>
      </trkpt>
      <trkpt lat="48.11915" lon="-2.86574">
        <ele>131</ele>
        <time>2021-08-08T13:04:39Z</time>
      </trkpt>
      <trkpt lat="48.11912" lon="-2.8658">
        <ele>131</ele>
        <time>2021-08-08T13:04:40Z</time>
      </trkpt>
      <trkpt lat="48.11908" lon="-2.86586">
        <ele>131</ele>
        <time>2021-08-08T13:04:41Z</time>
      </trkpt>
      <trkpt lat="48.11903" lon="-2.86592">
        <ele>131</ele>
        <time>2021-08-08T13:04:42Z</time>
      </trkpt>
      <trkpt lat="48.119" lon="-2.86598">
        <ele>131</ele>
        <time>2021-08-08T13:04:43Z</time>
      </trkpt>
      <trkpt lat="48.11897" lon="-2.86604">
        <ele>131</ele>
        <time>2021-08-08T13:04:44Z</time>
      </trkpt>
      <trkpt lat="48.11894" lon="-2.86609">
        <ele>131</ele>
        <time>2021-08-08T13:04:45Z</time>
      </trkpt>
      <trkpt lat="48.11891" lon="-2.86615">
        <ele>130.8</ele>
        <time>2021-08-08T13:04:46Z</time>
      </trkpt>
      <trkpt lat="48.11888" lon="-2.86621">
        <ele>130.8</ele>
        <time>2021-08-08T13:04:47Z</time>
      </trkpt>
      <trkpt lat="48.11885" lon="-2.86626">
        <ele>130.8</ele>
        <time>2021-08-08T13:04:48Z</time>
      </trkpt>
      <trkpt lat="48.11882" lon="-2.86632">
        <ele>130.8</ele>
        <time>2021-08-08T13:04:49Z</time>
      </trkpt>
      <trkpt lat="48.11878" lon="-2.86638">
        <ele>130.8</ele>
        <time>2021-08-08T13:04:50Z</time>
      </trkpt>
      <trkpt lat="48.11875" lon="-2.86643">
        <ele>130.8</ele>
        <time>2021-08-08T13:04:51Z</time>
      </trkpt>
      <trkpt lat="48.11871" lon="-2.86648">
        <ele>130.8</ele>
        <time>2021-08-08T13:04:52Z</time>
      </trkpt>
      <trkpt lat="48.11868" lon="-2.86653">
        <ele>130.8</ele>
        <time>2021-08-08T13:04:53Z</time>
      </trkpt>
      <trkpt lat="48.11865" lon="-2.86658">
        <ele>130.8</ele>
        <time>2021-08-08T13:04:54Z</time>
      </trkpt>
      <trkpt lat="48.11862" lon="-2.86663">
        <ele>130.8</ele>
        <time>2021-08-08T13:04:55Z</time>
      </trkpt>
      <trkpt lat="48.11859" lon="-2.86668">
        <ele>130.8</ele>
        <time>2021-08-08T13:04:56Z</time>
      </trkpt>
      <trkpt lat="48.11856" lon="-2.86673">
        <ele>130.8</ele>
        <time>2021-08-08T13:04:57Z</time>
      </trkpt>
      <trkpt lat="48.11852" lon="-2.86678">
        <ele>130.8</ele>
        <time>2021-08-08T13:04:58Z</time>
      </trkpt>
      <trkpt lat="48.11849" lon="-2.86684">
        <ele>131</ele>
        <time>2021-08-08T13:04:59Z</time>
      </trkpt>
      <trkpt lat="48.11847" lon="-2.86689">
        <ele>131</ele>
        <time>2021-08-08T13:05:00Z</time>
      </trkpt>
      <trkpt lat="48.11844" lon="-2.86694">
        <ele>131</ele>
        <time>2021-08-08T13:05:01Z</time>
      </trkpt>
      <trkpt lat="48.11842" lon="-2.86698">
        <ele>131</ele>
        <time>2021-08-08T13:05:02Z</time>
      </trkpt>
      <trkpt lat="48.1184" lon="-2.86703">
        <ele>131</ele>
        <time>2021-08-08T13:05:03Z</time>
      </trkpt>
      <trkpt lat="48.11837" lon="-2.86709">
        <ele>131</ele>
        <time>2021-08-08T13:05:04Z</time>
      </trkpt>
      <trkpt lat="48.11836" lon="-2.86715">
        <ele>131</ele>
        <time>2021-08-08T13:05:05Z</time>
      </trkpt>
      <trkpt lat="48.11833" lon="-2.86722">
        <ele>131</ele>
        <time>2021-08-08T13:05:06Z</time>
      </trkpt>
      <trkpt lat="48.11832" lon="-2.86728">
        <ele>131</ele>
        <time>2021-08-08T13:05:07Z</time>
      </trkpt>
      <trkpt lat="48.1183" lon="-2.86735">
        <ele>131.2</ele>
        <time>2021-08-08T13:05:08Z</time>
      </trkpt>
      <trkpt lat="48.11828" lon="-2.86742">
        <ele>131.2</ele>
        <time>2021-08-08T13:05:09Z</time>
      </trkpt>
      <trkpt lat="48.11826" lon="-2.8675">
        <ele>131.2</ele>
        <time>2021-08-08T13:05:10Z</time>
      </trkpt>
      <trkpt lat="48.11824" lon="-2.86758">
        <ele>131</ele>
        <time>2021-08-08T13:05:11Z</time>
      </trkpt>
      <trkpt lat="48.11822" lon="-2.86766">
        <ele>131</ele>
        <time>2021-08-08T13:05:12Z</time>
      </trkpt>
      <trkpt lat="48.1182" lon="-2.86774">
        <ele>131</ele>
        <time>2021-08-08T13:05:13Z</time>
      </trkpt>
      <trkpt lat="48.11818" lon="-2.86782">
        <ele>131</ele>
        <time>2021-08-08T13:05:14Z</time>
      </trkpt>
      <trkpt lat="48.11816" lon="-2.8679">
        <ele>131</ele>
        <time>2021-08-08T13:05:15Z</time>
      </trkpt>
      <trkpt lat="48.11814" lon="-2.86797">
        <ele>131</ele>
        <time>2021-08-08T13:05:16Z</time>
      </trkpt>
      <trkpt lat="48.11813" lon="-2.86803">
        <ele>131</ele>
        <time>2021-08-08T13:05:17Z</time>
      </trkpt>
      <trkpt lat="48.11811" lon="-2.86809">
        <ele>131</ele>
        <time>2021-08-08T13:05:18Z</time>
      </trkpt>
      <trkpt lat="48.1181" lon="-2.86816">
        <ele>131</ele>
        <time>2021-08-08T13:05:19Z</time>
      </trkpt>
      <trkpt lat="48.11808" lon="-2.86823">
        <ele>131</ele>
        <time>2021-08-08T13:05:20Z</time>
      </trkpt>
      <trkpt lat="48.11807" lon="-2.8683">
        <ele>131</ele>
        <time>2021-08-08T13:05:21Z</time>
      </trkpt>
      <trkpt lat="48.11806" lon="-2.86835">
        <ele>131</ele>
        <time>2021-08-08T13:05:22Z</time>
      </trkpt>
      <trkpt lat="48.11805" lon="-2.86841">
        <ele>131</ele>
        <time>2021-08-08T13:05:23Z</time>
      </trkpt>
      <trkpt lat="48.11804" lon="-2.86846">
        <ele>131</ele>
        <time>2021-08-08T13:05:24Z</time>
      </trkpt>
      <trkpt lat="48.11803" lon="-2.86851">
        <ele>131</ele>
        <time>2021-08-08T13:05:25Z</time>
      </trkpt>
      <trkpt lat="48.11802" lon="-2.86857">
        <ele>131</ele>
        <time>2021-08-08T13:05:26Z</time>
      </trkpt>
      <trkpt lat="48.11801" lon="-2.86863">
        <ele>130.8</ele>
        <time>2021-08-08T13:05:27Z</time>
      </trkpt>
      <trkpt lat="48.118" lon="-2.86869">
        <ele>130.8</ele>
        <time>2021-08-08T13:05:28Z</time>
      </trkpt>
      <trkpt lat="48.11799" lon="-2.86874">
        <ele>130.8</ele>
        <time>2021-08-08T13:05:29Z</time>
      </trkpt>
      <trkpt lat="48.11797" lon="-2.86881">
        <ele>130.6</ele>
        <time>2021-08-08T13:05:30Z</time>
      </trkpt>
      <trkpt lat="48.11796" lon="-2.86888">
        <ele>130.6</ele>
        <time>2021-08-08T13:05:31Z</time>
      </trkpt>
      <trkpt lat="48.11796" lon="-2.86895">
        <ele>130.6</ele>
        <time>2021-08-08T13:05:32Z</time>
      </trkpt>
      <trkpt lat="48.11795" lon="-2.86903">
        <ele>130.4</ele>
        <time>2021-08-08T13:05:33Z</time>
      </trkpt>
      <trkpt lat="48.11795" lon="-2.86908">
        <ele>130.4</ele>
        <time>2021-08-08T13:05:34Z</time>
      </trkpt>
      <trkpt lat="48.11794" lon="-2.86912">
        <ele>130.4</ele>
        <time>2021-08-08T13:05:35Z</time>
      </trkpt>
      <trkpt lat="48.11793" lon="-2.86918">
        <ele>130.4</ele>
        <time>2021-08-08T13:05:36Z</time>
      </trkpt>
      <trkpt lat="48.11792" lon="-2.86924">
        <ele>130.4</ele>
        <time>2021-08-08T13:05:37Z</time>
      </trkpt>
      <trkpt lat="48.11792" lon="-2.8693">
        <ele>130.4</ele>
        <time>2021-08-08T13:05:38Z</time>
      </trkpt>
      <trkpt lat="48.11791" lon="-2.86936">
        <ele>130.2</ele>
        <time>2021-08-08T13:05:39Z</time>
      </trkpt>
      <trkpt lat="48.11791" lon="-2.86943">
        <ele>130.2</ele>
        <time>2021-08-08T13:05:40Z</time>
      </trkpt>
      <trkpt lat="48.1179" lon="-2.86949">
        <ele>130.2</ele>
        <time>2021-08-08T13:05:41Z</time>
      </trkpt>
      <trkpt lat="48.1179" lon="-2.86956">
        <ele>130.2</ele>
        <time>2021-08-08T13:05:42Z</time>
      </trkpt>
      <trkpt lat="48.11789" lon="-2.86963">
        <ele>130.2</ele>
        <time>2021-08-08T13:05:43Z</time>
      </trkpt>
      <trkpt lat="48.1179" lon="-2.86969">
        <ele>130.2</ele>
        <time>2021-08-08T13:05:44Z</time>
      </trkpt>
      <trkpt lat="48.1179" lon="-2.86975">
        <ele>130.2</ele>
        <time>2021-08-08T13:05:45Z</time>
      </trkpt>
      <trkpt lat="48.11789" lon="-2.8698">
        <ele>130.2</ele>
        <time>2021-08-08T13:05:46Z</time>
      </trkpt>
      <trkpt lat="48.11789" lon="-2.86986">
        <ele>130.2</ele>
        <time>2021-08-08T13:05:47Z</time>
      </trkpt>
      <trkpt lat="48.11788" lon="-2.8699">
        <ele>130.2</ele>
        <time>2021-08-08T13:05:48Z</time>
      </trkpt>
      <trkpt lat="48.11788" lon="-2.86996">
        <ele>130.2</ele>
        <time>2021-08-08T13:05:49Z</time>
      </trkpt>
      <trkpt lat="48.11788" lon="-2.87001">
        <ele>130.2</ele>
        <time>2021-08-08T13:05:50Z</time>
      </trkpt>
      <trkpt lat="48.11787" lon="-2.87007">
        <ele>130.2</ele>
        <time>2021-08-08T13:05:51Z</time>
      </trkpt>
      <trkpt lat="48.11786" lon="-2.87014">
        <ele>130.2</ele>
        <time>2021-08-08T13:05:52Z</time>
      </trkpt>
      <trkpt lat="48.11785" lon="-2.87021">
        <ele>130.2</ele>
        <time>2021-08-08T13:05:53Z</time>
      </trkpt>
      <trkpt lat="48.11785" lon="-2.87027">
        <ele>130.2</ele>
        <time>2021-08-08T13:05:54Z</time>
      </trkpt>
      <trkpt lat="48.11784" lon="-2.87034">
        <ele>130.2</ele>
        <time>2021-08-08T13:05:55Z</time>
      </trkpt>
      <trkpt lat="48.11784" lon="-2.87041">
        <ele>130.2</ele>
        <time>2021-08-08T13:05:56Z</time>
      </trkpt>
      <trkpt lat="48.11783" lon="-2.87047">
        <ele>130.2</ele>
        <time>2021-08-08T13:05:57Z</time>
      </trkpt>
      <trkpt lat="48.11782" lon="-2.87055">
        <ele>130.2</ele>
        <time>2021-08-08T13:05:58Z</time>
      </trkpt>
      <trkpt lat="48.1178" lon="-2.87064">
        <ele>130.4</ele>
        <time>2021-08-08T13:05:59Z</time>
      </trkpt>
      <trkpt lat="48.11779" lon="-2.87072">
        <ele>130.4</ele>
        <time>2021-08-08T13:06:00Z</time>
      </trkpt>
      <trkpt lat="48.11778" lon="-2.8708">
        <ele>130.4</ele>
        <time>2021-08-08T13:06:01Z</time>
      </trkpt>
      <trkpt lat="48.11777" lon="-2.87087">
        <ele>130.4</ele>
        <time>2021-08-08T13:06:02Z</time>
      </trkpt>
      <trkpt lat="48.11776" lon="-2.87096">
        <ele>130.4</ele>
        <time>2021-08-08T13:06:03Z</time>
      </trkpt>
      <trkpt lat="48.11775" lon="-2.87106">
        <ele>130.4</ele>
        <time>2021-08-08T13:06:04Z</time>
      </trkpt>
      <trkpt lat="48.11775" lon="-2.87115">
        <ele>130.4</ele>
        <time>2021-08-08T13:06:05Z</time>
      </trkpt>
      <trkpt lat="48.11774" lon="-2.87124">
        <ele>130.4</ele>
        <time>2021-08-08T13:06:06Z</time>
      </trkpt>
      <trkpt lat="48.11774" lon="-2.87132">
        <ele>130.4</ele>
        <time>2021-08-08T13:06:07Z</time>
      </trkpt>
      <trkpt lat="48.11774" lon="-2.8714">
        <ele>130.4</ele>
        <time>2021-08-08T13:06:08Z</time>
      </trkpt>
      <trkpt lat="48.11774" lon="-2.87148">
        <ele>130.6</ele>
        <time>2021-08-08T13:06:09Z</time>
      </trkpt>
      <trkpt lat="48.11774" lon="-2.87156">
        <ele>130.6</ele>
        <time>2021-08-08T13:06:10Z</time>
      </trkpt>
      <trkpt lat="48.11775" lon="-2.87162">
        <ele>130.6</ele>
        <time>2021-08-08T13:06:11Z</time>
      </trkpt>
      <trkpt lat="48.11775" lon="-2.87167">
        <ele>130.6</ele>
        <time>2021-08-08T13:06:12Z</time>
      </trkpt>
      <trkpt lat="48.11776" lon="-2.87172">
        <ele>130.8</ele>
        <time>2021-08-08T13:06:13Z</time>
      </trkpt>
      <trkpt lat="48.11777" lon="-2.87177">
        <ele>130.8</ele>
        <time>2021-08-08T13:06:14Z</time>
      </trkpt>
      <trkpt lat="48.11777" lon="-2.87182">
        <ele>130.8</ele>
        <time>2021-08-08T13:06:15Z</time>
      </trkpt>
      <trkpt lat="48.11778" lon="-2.87186">
        <ele>131</ele>
        <time>2021-08-08T13:06:16Z</time>
      </trkpt>
      <trkpt lat="48.11778" lon="-2.87192">
        <ele>131</ele>
        <time>2021-08-08T13:06:17Z</time>
      </trkpt>
      <trkpt lat="48.11778" lon="-2.87197">
        <ele>131</ele>
        <time>2021-08-08T13:06:18Z</time>
      </trkpt>
      <trkpt lat="48.11778" lon="-2.87202">
        <ele>131.2</ele>
        <time>2021-08-08T13:06:19Z</time>
      </trkpt>
      <trkpt lat="48.11778" lon="-2.87205">
        <ele>131.6</ele>
        <time>2021-08-08T13:06:20Z</time>
      </trkpt>
      <trkpt lat="48.11779" lon="-2.8721">
        <ele>131.8</ele>
        <time>2021-08-08T13:06:21Z</time>
      </trkpt>
      <trkpt lat="48.1178" lon="-2.87213">
        <ele>132</ele>
        <time>2021-08-08T13:06:22Z</time>
      </trkpt>
      <trkpt lat="48.1178" lon="-2.87217">
        <ele>132.4</ele>
        <time>2021-08-08T13:06:23Z</time>
      </trkpt>
      <trkpt lat="48.11781" lon="-2.87221">
        <ele>132.6</ele>
        <time>2021-08-08T13:06:24Z</time>
      </trkpt>
      <trkpt lat="48.11781" lon="-2.87223">
        <ele>132.8</ele>
        <time>2021-08-08T13:06:25Z</time>
      </trkpt>
      <trkpt lat="48.11782" lon="-2.87225">
        <ele>133.2</ele>
        <time>2021-08-08T13:06:26Z</time>
      </trkpt>
      <trkpt lat="48.11782" lon="-2.87228">
        <ele>133.4</ele>
        <time>2021-08-08T13:06:27Z</time>
      </trkpt>
      <trkpt lat="48.11782" lon="-2.8723">
        <ele>133.6</ele>
        <time>2021-08-08T13:06:28Z</time>
      </trkpt>
      <trkpt lat="48.11782" lon="-2.87232">
        <ele>133.8</ele>
        <time>2021-08-08T13:06:29Z</time>
      </trkpt>
      <trkpt lat="48.11782" lon="-2.87232">
        <ele>134</ele>
        <time>2021-08-08T13:06:30Z</time>
      </trkpt>
      <trkpt lat="48.11782" lon="-2.87233">
        <ele>134.2</ele>
        <time>2021-08-08T13:06:31Z</time>
      </trkpt>
      <trkpt lat="48.11782" lon="-2.87248">
        <ele>134.2</ele>
        <time>2021-08-08T13:12:01Z</time>
      </trkpt>
      <trkpt lat="48.11782" lon="-2.87251">
        <ele>134.2</ele>
        <time>2021-08-08T13:12:02Z</time>
      </trkpt>
      <trkpt lat="48.11783" lon="-2.87253">
        <ele>134.2</ele>
        <time>2021-08-08T13:12:03Z</time>
      </trkpt>
      <trkpt lat="48.11784" lon="-2.87256">
        <ele>134.2</ele>
        <time>2021-08-08T13:12:04Z</time>
      </trkpt>
      <trkpt lat="48.11786" lon="-2.8726">
        <ele>134.2</ele>
        <time>2021-08-08T13:12:05Z</time>
      </trkpt>
      <trkpt lat="48.11787" lon="-2.87263">
        <ele>134</ele>
        <time>2021-08-08T13:12:06Z</time>
      </trkpt>
      <trkpt lat="48.11788" lon="-2.87267">
        <ele>134</ele>
        <time>2021-08-08T13:12:07Z</time>
      </trkpt>
      <trkpt lat="48.11789" lon="-2.87272">
        <ele>134</ele>
        <time>2021-08-08T13:12:08Z</time>
      </trkpt>
      <trkpt lat="48.1179" lon="-2.87277">
        <ele>134</ele>
        <time>2021-08-08T13:12:09Z</time>
      </trkpt>
      <trkpt lat="48.11791" lon="-2.87283">
        <ele>133.6</ele>
        <time>2021-08-08T13:12:10Z</time>
      </trkpt>
      <trkpt lat="48.11792" lon="-2.87289">
        <ele>133.6</ele>
        <time>2021-08-08T13:12:11Z</time>
      </trkpt>
      <trkpt lat="48.11793" lon="-2.87296">
        <ele>133.6</ele>
        <time>2021-08-08T13:12:12Z</time>
      </trkpt>
      <trkpt lat="48.11794" lon="-2.87303">
        <ele>133</ele>
        <time>2021-08-08T13:12:13Z</time>
      </trkpt>
      <trkpt lat="48.11796" lon="-2.8731">
        <ele>133</ele>
        <time>2021-08-08T13:12:14Z</time>
      </trkpt>
      <trkpt lat="48.11797" lon="-2.87317">
        <ele>132.4</ele>
        <time>2021-08-08T13:12:15Z</time>
      </trkpt>
      <trkpt lat="48.11798" lon="-2.87324">
        <ele>132.2</ele>
        <time>2021-08-08T13:12:16Z</time>
      </trkpt>
      <trkpt lat="48.11799" lon="-2.87332">
        <ele>131.8</ele>
        <time>2021-08-08T13:12:17Z</time>
      </trkpt>
      <trkpt lat="48.118" lon="-2.87341">
        <ele>131.4</ele>
        <time>2021-08-08T13:12:18Z</time>
      </trkpt>
      <trkpt lat="48.118" lon="-2.8735">
        <ele>131</ele>
        <time>2021-08-08T13:12:19Z</time>
      </trkpt>
      <trkpt lat="48.118" lon="-2.87359">
        <ele>130.8</ele>
        <time>2021-08-08T13:12:20Z</time>
      </trkpt>
      <trkpt lat="48.118" lon="-2.87368">
        <ele>130.6</ele>
        <time>2021-08-08T13:12:21Z</time>
      </trkpt>
      <trkpt lat="48.118" lon="-2.87376">
        <ele>130.4</ele>
        <time>2021-08-08T13:12:22Z</time>
      </trkpt>
      <trkpt lat="48.118" lon="-2.87385">
        <ele>130.2</ele>
        <time>2021-08-08T13:12:23Z</time>
      </trkpt>
      <trkpt lat="48.11799" lon="-2.87394">
        <ele>130</ele>
        <time>2021-08-08T13:12:24Z</time>
      </trkpt>
      <trkpt lat="48.11798" lon="-2.87403">
        <ele>129.8</ele>
        <time>2021-08-08T13:12:25Z</time>
      </trkpt>
      <trkpt lat="48.11797" lon="-2.87411">
        <ele>129.8</ele>
        <time>2021-08-08T13:12:26Z</time>
      </trkpt>
      <trkpt lat="48.11795" lon="-2.87419">
        <ele>129.8</ele>
        <time>2021-08-08T13:12:27Z</time>
      </trkpt>
      <trkpt lat="48.11795" lon="-2.87425">
        <ele>129.8</ele>
        <time>2021-08-08T13:12:28Z</time>
      </trkpt>
      <trkpt lat="48.11794" lon="-2.87429">
        <ele>129.6</ele>
        <time>2021-08-08T13:12:29Z</time>
      </trkpt>
      <trkpt lat="48.11794" lon="-2.87434">
        <ele>129.6</ele>
        <time>2021-08-08T13:12:30Z</time>
      </trkpt>
      <trkpt lat="48.11794" lon="-2.87438">
        <ele>129.4</ele>
        <time>2021-08-08T13:12:31Z</time>
      </trkpt>
      <trkpt lat="48.11793" lon="-2.87444">
        <ele>129.4</ele>
        <time>2021-08-08T13:12:32Z</time>
      </trkpt>
      <trkpt lat="48.11793" lon="-2.87449">
        <ele>129.4</ele>
        <time>2021-08-08T13:12:33Z</time>
      </trkpt>
      <trkpt lat="48.11792" lon="-2.87455">
        <ele>129.4</ele>
        <time>2021-08-08T13:12:34Z</time>
      </trkpt>
      <trkpt lat="48.11791" lon="-2.87464">
        <ele>129.4</ele>
        <time>2021-08-08T13:12:35Z</time>
      </trkpt>
      <trkpt lat="48.1179" lon="-2.87472">
        <ele>129.4</ele>
        <time>2021-08-08T13:12:36Z</time>
      </trkpt>
      <trkpt lat="48.11789" lon="-2.8748">
        <ele>129.4</ele>
        <time>2021-08-08T13:12:37Z</time>
      </trkpt>
      <trkpt lat="48.11787" lon="-2.87488">
        <ele>129.2</ele>
        <time>2021-08-08T13:12:38Z</time>
      </trkpt>
      <trkpt lat="48.11785" lon="-2.87496">
        <ele>129</ele>
        <time>2021-08-08T13:12:39Z</time>
      </trkpt>
      <trkpt lat="48.11784" lon="-2.87504">
        <ele>129</ele>
        <time>2021-08-08T13:12:40Z</time>
      </trkpt>
      <trkpt lat="48.11782" lon="-2.87511">
        <ele>129</ele>
        <time>2021-08-08T13:12:41Z</time>
      </trkpt>
      <trkpt lat="48.11781" lon="-2.87517">
        <ele>129</ele>
        <time>2021-08-08T13:12:42Z</time>
      </trkpt>
      <trkpt lat="48.1178" lon="-2.87524">
        <ele>129</ele>
        <time>2021-08-08T13:12:43Z</time>
      </trkpt>
      <trkpt lat="48.11779" lon="-2.87532">
        <ele>129</ele>
        <time>2021-08-08T13:12:44Z</time>
      </trkpt>
      <trkpt lat="48.11777" lon="-2.8754">
        <ele>129</ele>
        <time>2021-08-08T13:12:45Z</time>
      </trkpt>
      <trkpt lat="48.11775" lon="-2.87548">
        <ele>129</ele>
        <time>2021-08-08T13:12:46Z</time>
      </trkpt>
      <trkpt lat="48.11774" lon="-2.87556">
        <ele>129</ele>
        <time>2021-08-08T13:12:47Z</time>
      </trkpt>
      <trkpt lat="48.11773" lon="-2.87565">
        <ele>129.2</ele>
        <time>2021-08-08T13:12:48Z</time>
      </trkpt>
      <trkpt lat="48.11771" lon="-2.87573">
        <ele>129.2</ele>
        <time>2021-08-08T13:12:49Z</time>
      </trkpt>
      <trkpt lat="48.1177" lon="-2.87581">
        <ele>129.2</ele>
        <time>2021-08-08T13:12:50Z</time>
      </trkpt>
      <trkpt lat="48.11768" lon="-2.87589">
        <ele>129.2</ele>
        <time>2021-08-08T13:12:51Z</time>
      </trkpt>
      <trkpt lat="48.11766" lon="-2.87597">
        <ele>129.2</ele>
        <time>2021-08-08T13:12:52Z</time>
      </trkpt>
      <trkpt lat="48.11765" lon="-2.87605">
        <ele>129.2</ele>
        <time>2021-08-08T13:12:53Z</time>
      </trkpt>
      <trkpt lat="48.11764" lon="-2.87612">
        <ele>129.2</ele>
        <time>2021-08-08T13:12:54Z</time>
      </trkpt>
      <trkpt lat="48.11763" lon="-2.87619">
        <ele>129.2</ele>
        <time>2021-08-08T13:12:55Z</time>
      </trkpt>
      <trkpt lat="48.11762" lon="-2.87627">
        <ele>129.2</ele>
        <time>2021-08-08T13:12:56Z</time>
      </trkpt>
      <trkpt lat="48.1176" lon="-2.87634">
        <ele>129.2</ele>
        <time>2021-08-08T13:12:57Z</time>
      </trkpt>
      <trkpt lat="48.11759" lon="-2.87641">
        <ele>129.2</ele>
        <time>2021-08-08T13:12:58Z</time>
      </trkpt>
      <trkpt lat="48.11757" lon="-2.87647">
        <ele>129.2</ele>
        <time>2021-08-08T13:12:59Z</time>
      </trkpt>
      <trkpt lat="48.11756" lon="-2.87652">
        <ele>129.2</ele>
        <time>2021-08-08T13:13:00Z</time>
      </trkpt>
      <trkpt lat="48.11755" lon="-2.87659">
        <ele>129.4</ele>
        <time>2021-08-08T13:13:01Z</time>
      </trkpt>
      <trkpt lat="48.11753" lon="-2.87665">
        <ele>129.4</ele>
        <time>2021-08-08T13:13:02Z</time>
      </trkpt>
      <trkpt lat="48.11752" lon="-2.87671">
        <ele>129.4</ele>
        <time>2021-08-08T13:13:03Z</time>
      </trkpt>
      <trkpt lat="48.1175" lon="-2.87677">
        <ele>129.4</ele>
        <time>2021-08-08T13:13:04Z</time>
      </trkpt>
      <trkpt lat="48.11749" lon="-2.87684">
        <ele>129.4</ele>
        <time>2021-08-08T13:13:05Z</time>
      </trkpt>
      <trkpt lat="48.11748" lon="-2.8769">
        <ele>129.4</ele>
        <time>2021-08-08T13:13:06Z</time>
      </trkpt>
      <trkpt lat="48.11746" lon="-2.87697">
        <ele>129.6</ele>
        <time>2021-08-08T13:13:07Z</time>
      </trkpt>
      <trkpt lat="48.11745" lon="-2.87704">
        <ele>129.6</ele>
        <time>2021-08-08T13:13:08Z</time>
      </trkpt>
      <trkpt lat="48.11744" lon="-2.8771">
        <ele>129.6</ele>
        <time>2021-08-08T13:13:09Z</time>
      </trkpt>
      <trkpt lat="48.11743" lon="-2.87717">
        <ele>129.6</ele>
        <time>2021-08-08T13:13:10Z</time>
      </trkpt>
      <trkpt lat="48.11742" lon="-2.87723">
        <ele>129.8</ele>
        <time>2021-08-08T13:13:11Z</time>
      </trkpt>
      <trkpt lat="48.11741" lon="-2.87729">
        <ele>129.8</ele>
        <time>2021-08-08T13:13:12Z</time>
      </trkpt>
      <trkpt lat="48.1174" lon="-2.87736">
        <ele>129.8</ele>
        <time>2021-08-08T13:13:13Z</time>
      </trkpt>
      <trkpt lat="48.11739" lon="-2.87743">
        <ele>129.8</ele>
        <time>2021-08-08T13:13:14Z</time>
      </trkpt>
      <trkpt lat="48.11738" lon="-2.87749">
        <ele>129.8</ele>
        <time>2021-08-08T13:13:15Z</time>
      </trkpt>
      <trkpt lat="48.11736" lon="-2.87756">
        <ele>129.8</ele>
        <time>2021-08-08T13:13:16Z</time>
      </trkpt>
      <trkpt lat="48.11735" lon="-2.87762">
        <ele>129.8</ele>
        <time>2021-08-08T13:13:17Z</time>
      </trkpt>
      <trkpt lat="48.11734" lon="-2.87769">
        <ele>130</ele>
        <time>2021-08-08T13:13:18Z</time>
      </trkpt>
      <trkpt lat="48.11733" lon="-2.87775">
        <ele>130</ele>
        <time>2021-08-08T13:13:19Z</time>
      </trkpt>
      <trkpt lat="48.11731" lon="-2.87782">
        <ele>130</ele>
        <time>2021-08-08T13:13:20Z</time>
      </trkpt>
      <trkpt lat="48.1173" lon="-2.87788">
        <ele>130</ele>
        <time>2021-08-08T13:13:21Z</time>
      </trkpt>
      <trkpt lat="48.11728" lon="-2.87795">
        <ele>130</ele>
        <time>2021-08-08T13:13:22Z</time>
      </trkpt>
      <trkpt lat="48.11727" lon="-2.87801">
        <ele>130</ele>
        <time>2021-08-08T13:13:23Z</time>
      </trkpt>
      <trkpt lat="48.11726" lon="-2.87808">
        <ele>130</ele>
        <time>2021-08-08T13:13:24Z</time>
      </trkpt>
      <trkpt lat="48.11724" lon="-2.87814">
        <ele>130</ele>
        <time>2021-08-08T13:13:25Z</time>
      </trkpt>
      <trkpt lat="48.11723" lon="-2.87821">
        <ele>130</ele>
        <time>2021-08-08T13:13:26Z</time>
      </trkpt>
      <trkpt lat="48.11722" lon="-2.87827">
        <ele>129.8</ele>
        <time>2021-08-08T13:13:27Z</time>
      </trkpt>
      <trkpt lat="48.1172" lon="-2.87833">
        <ele>129.8</ele>
        <time>2021-08-08T13:13:28Z</time>
      </trkpt>
      <trkpt lat="48.11719" lon="-2.87839">
        <ele>129.8</ele>
        <time>2021-08-08T13:13:29Z</time>
      </trkpt>
      <trkpt lat="48.11718" lon="-2.87844">
        <ele>129.8</ele>
        <time>2021-08-08T13:13:30Z</time>
      </trkpt>
      <trkpt lat="48.11717" lon="-2.8785">
        <ele>129.8</ele>
        <time>2021-08-08T13:13:31Z</time>
      </trkpt>
      <trkpt lat="48.11716" lon="-2.87856">
        <ele>129.6</ele>
        <time>2021-08-08T13:13:32Z</time>
      </trkpt>
      <trkpt lat="48.11715" lon="-2.87861">
        <ele>129.6</ele>
        <time>2021-08-08T13:13:33Z</time>
      </trkpt>
      <trkpt lat="48.11714" lon="-2.87866">
        <ele>129.6</ele>
        <time>2021-08-08T13:13:34Z</time>
      </trkpt>
      <trkpt lat="48.11713" lon="-2.8787">
        <ele>129.6</ele>
        <time>2021-08-08T13:13:35Z</time>
      </trkpt>
      <trkpt lat="48.11712" lon="-2.87876">
        <ele>129.6</ele>
        <time>2021-08-08T13:13:36Z</time>
      </trkpt>
      <trkpt lat="48.11711" lon="-2.87882">
        <ele>129.6</ele>
        <time>2021-08-08T13:13:37Z</time>
      </trkpt>
      <trkpt lat="48.1171" lon="-2.87887">
        <ele>129.6</ele>
        <time>2021-08-08T13:13:38Z</time>
      </trkpt>
      <trkpt lat="48.11709" lon="-2.87892">
        <ele>129.6</ele>
        <time>2021-08-08T13:13:39Z</time>
      </trkpt>
      <trkpt lat="48.11708" lon="-2.87897">
        <ele>129.4</ele>
        <time>2021-08-08T13:13:40Z</time>
      </trkpt>
      <trkpt lat="48.11707" lon="-2.87903">
        <ele>129.4</ele>
        <time>2021-08-08T13:13:41Z</time>
      </trkpt>
      <trkpt lat="48.11706" lon="-2.87908">
        <ele>129.4</ele>
        <time>2021-08-08T13:13:42Z</time>
      </trkpt>
      <trkpt lat="48.11705" lon="-2.87913">
        <ele>129.4</ele>
        <time>2021-08-08T13:13:43Z</time>
      </trkpt>
      <trkpt lat="48.11704" lon="-2.87918">
        <ele>129.2</ele>
        <time>2021-08-08T13:13:44Z</time>
      </trkpt>
      <trkpt lat="48.11703" lon="-2.87924">
        <ele>129.2</ele>
        <time>2021-08-08T13:13:45Z</time>
      </trkpt>
      <trkpt lat="48.11702" lon="-2.87929">
        <ele>129.2</ele>
        <time>2021-08-08T13:13:46Z</time>
      </trkpt>
      <trkpt lat="48.117" lon="-2.87935">
        <ele>129.2</ele>
        <time>2021-08-08T13:13:47Z</time>
      </trkpt>
      <trkpt lat="48.11699" lon="-2.87941">
        <ele>129.2</ele>
        <time>2021-08-08T13:13:48Z</time>
      </trkpt>
      <trkpt lat="48.11697" lon="-2.87947">
        <ele>129</ele>
        <time>2021-08-08T13:13:49Z</time>
      </trkpt>
      <trkpt lat="48.11695" lon="-2.87954">
        <ele>129</ele>
        <time>2021-08-08T13:13:50Z</time>
      </trkpt>
      <trkpt lat="48.11692" lon="-2.8796">
        <ele>129</ele>
        <time>2021-08-08T13:13:51Z</time>
      </trkpt>
      <trkpt lat="48.11689" lon="-2.87967">
        <ele>129</ele>
        <time>2021-08-08T13:13:52Z</time>
      </trkpt>
      <trkpt lat="48.11687" lon="-2.87973">
        <ele>129</ele>
        <time>2021-08-08T13:13:53Z</time>
      </trkpt>
      <trkpt lat="48.11684" lon="-2.87979">
        <ele>129</ele>
        <time>2021-08-08T13:13:54Z</time>
      </trkpt>
      <trkpt lat="48.11681" lon="-2.87985">
        <ele>129</ele>
        <time>2021-08-08T13:13:55Z</time>
      </trkpt>
      <trkpt lat="48.11678" lon="-2.87991">
        <ele>129</ele>
        <time>2021-08-08T13:13:56Z</time>
      </trkpt>
      <trkpt lat="48.11675" lon="-2.87997">
        <ele>129</ele>
        <time>2021-08-08T13:13:57Z</time>
      </trkpt>
      <trkpt lat="48.11672" lon="-2.88002">
        <ele>129</ele>
        <time>2021-08-08T13:13:58Z</time>
      </trkpt>
      <trkpt lat="48.11669" lon="-2.88007">
        <ele>129</ele>
        <time>2021-08-08T13:13:59Z</time>
      </trkpt>
      <trkpt lat="48.11666" lon="-2.88012">
        <ele>129</ele>
        <time>2021-08-08T13:14:00Z</time>
      </trkpt>
      <trkpt lat="48.11663" lon="-2.88017">
        <ele>129</ele>
        <time>2021-08-08T13:14:01Z</time>
      </trkpt>
      <trkpt lat="48.11659" lon="-2.88022">
        <ele>129</ele>
        <time>2021-08-08T13:14:02Z</time>
      </trkpt>
      <trkpt lat="48.11656" lon="-2.88026">
        <ele>129</ele>
        <time>2021-08-08T13:14:03Z</time>
      </trkpt>
      <trkpt lat="48.11652" lon="-2.88031">
        <ele>129</ele>
        <time>2021-08-08T13:14:04Z</time>
      </trkpt>
      <trkpt lat="48.11649" lon="-2.88035">
        <ele>129</ele>
        <time>2021-08-08T13:14:05Z</time>
      </trkpt>
      <trkpt lat="48.11646" lon="-2.88039">
        <ele>129</ele>
        <time>2021-08-08T13:14:06Z</time>
      </trkpt>
      <trkpt lat="48.11642" lon="-2.88043">
        <ele>129</ele>
        <time>2021-08-08T13:14:07Z</time>
      </trkpt>
      <trkpt lat="48.11638" lon="-2.88046">
        <ele>129</ele>
        <time>2021-08-08T13:14:08Z</time>
      </trkpt>
      <trkpt lat="48.11635" lon="-2.88051">
        <ele>129</ele>
        <time>2021-08-08T13:14:09Z</time>
      </trkpt>
      <trkpt lat="48.11632" lon="-2.88054">
        <ele>129</ele>
        <time>2021-08-08T13:14:10Z</time>
      </trkpt>
      <trkpt lat="48.11628" lon="-2.88058">
        <ele>129</ele>
        <time>2021-08-08T13:14:11Z</time>
      </trkpt>
      <trkpt lat="48.11624" lon="-2.88061">
        <ele>129</ele>
        <time>2021-08-08T13:14:12Z</time>
      </trkpt>
      <trkpt lat="48.1162" lon="-2.88065">
        <ele>129.2</ele>
        <time>2021-08-08T13:14:13Z</time>
      </trkpt>
      <trkpt lat="48.11615" lon="-2.88069">
        <ele>129.2</ele>
        <time>2021-08-08T13:14:14Z</time>
      </trkpt>
      <trkpt lat="48.11611" lon="-2.88072">
        <ele>129.4</ele>
        <time>2021-08-08T13:14:15Z</time>
      </trkpt>
      <trkpt lat="48.11607" lon="-2.88076">
        <ele>129.6</ele>
        <time>2021-08-08T13:14:16Z</time>
      </trkpt>
      <trkpt lat="48.11603" lon="-2.88079">
        <ele>129.8</ele>
        <time>2021-08-08T13:14:17Z</time>
      </trkpt>
      <trkpt lat="48.11599" lon="-2.88083">
        <ele>129.8</ele>
        <time>2021-08-08T13:14:18Z</time>
      </trkpt>
      <trkpt lat="48.11595" lon="-2.88087">
        <ele>130</ele>
        <time>2021-08-08T13:14:19Z</time>
      </trkpt>
      <trkpt lat="48.11591" lon="-2.88091">
        <ele>130</ele>
        <time>2021-08-08T13:14:20Z</time>
      </trkpt>
      <trkpt lat="48.11587" lon="-2.88095">
        <ele>130</ele>
        <time>2021-08-08T13:14:21Z</time>
      </trkpt>
      <trkpt lat="48.11583" lon="-2.881">
        <ele>130</ele>
        <time>2021-08-08T13:14:22Z</time>
      </trkpt>
      <trkpt lat="48.11579" lon="-2.88105">
        <ele>130</ele>
        <time>2021-08-08T13:14:23Z</time>
      </trkpt>
      <trkpt lat="48.11576" lon="-2.8811">
        <ele>130</ele>
        <time>2021-08-08T13:14:24Z</time>
      </trkpt>
      <trkpt lat="48.11572" lon="-2.88115">
        <ele>130</ele>
        <time>2021-08-08T13:14:25Z</time>
      </trkpt>
      <trkpt lat="48.11569" lon="-2.88121">
        <ele>130</ele>
        <time>2021-08-08T13:14:26Z</time>
      </trkpt>
      <trkpt lat="48.11566" lon="-2.88126">
        <ele>130</ele>
        <time>2021-08-08T13:14:27Z</time>
      </trkpt>
      <trkpt lat="48.11562" lon="-2.88132">
        <ele>130</ele>
        <time>2021-08-08T13:14:28Z</time>
      </trkpt>
      <trkpt lat="48.11559" lon="-2.88138">
        <ele>130</ele>
        <time>2021-08-08T13:14:29Z</time>
      </trkpt>
      <trkpt lat="48.11556" lon="-2.88144">
        <ele>130</ele>
        <time>2021-08-08T13:14:30Z</time>
      </trkpt>
      <trkpt lat="48.11553" lon="-2.88151">
        <ele>130</ele>
        <time>2021-08-08T13:14:31Z</time>
      </trkpt>
      <trkpt lat="48.11551" lon="-2.88157">
        <ele>130</ele>
        <time>2021-08-08T13:14:32Z</time>
      </trkpt>
      <trkpt lat="48.11548" lon="-2.88164">
        <ele>130</ele>
        <time>2021-08-08T13:14:33Z</time>
      </trkpt>
      <trkpt lat="48.11546" lon="-2.88171">
        <ele>130</ele>
        <time>2021-08-08T13:14:34Z</time>
      </trkpt>
      <trkpt lat="48.11544" lon="-2.88177">
        <ele>130</ele>
        <time>2021-08-08T13:14:35Z</time>
      </trkpt>
      <trkpt lat="48.11542" lon="-2.88183">
        <ele>130</ele>
        <time>2021-08-08T13:14:36Z</time>
      </trkpt>
      <trkpt lat="48.11539" lon="-2.88189">
        <ele>129.8</ele>
        <time>2021-08-08T13:14:37Z</time>
      </trkpt>
      <trkpt lat="48.11537" lon="-2.88195">
        <ele>129.8</ele>
        <time>2021-08-08T13:14:38Z</time>
      </trkpt>
      <trkpt lat="48.11535" lon="-2.88202">
        <ele>129.8</ele>
        <time>2021-08-08T13:14:39Z</time>
      </trkpt>
      <trkpt lat="48.11533" lon="-2.88208">
        <ele>129.8</ele>
        <time>2021-08-08T13:14:40Z</time>
      </trkpt>
      <trkpt lat="48.11532" lon="-2.88215">
        <ele>130</ele>
        <time>2021-08-08T13:14:41Z</time>
      </trkpt>
      <trkpt lat="48.1153" lon="-2.88221">
        <ele>130</ele>
        <time>2021-08-08T13:14:42Z</time>
      </trkpt>
      <trkpt lat="48.11527" lon="-2.88227">
        <ele>130</ele>
        <time>2021-08-08T13:14:43Z</time>
      </trkpt>
      <trkpt lat="48.11525" lon="-2.88233">
        <ele>130</ele>
        <time>2021-08-08T13:14:44Z</time>
      </trkpt>
      <trkpt lat="48.11523" lon="-2.88239">
        <ele>130</ele>
        <time>2021-08-08T13:14:45Z</time>
      </trkpt>
      <trkpt lat="48.11521" lon="-2.88245">
        <ele>130</ele>
        <time>2021-08-08T13:14:46Z</time>
      </trkpt>
      <trkpt lat="48.11519" lon="-2.88251">
        <ele>130</ele>
        <time>2021-08-08T13:14:47Z</time>
      </trkpt>
      <trkpt lat="48.11518" lon="-2.88257">
        <ele>130</ele>
        <time>2021-08-08T13:14:48Z</time>
      </trkpt>
      <trkpt lat="48.11516" lon="-2.88263">
        <ele>130</ele>
        <time>2021-08-08T13:14:49Z</time>
      </trkpt>
      <trkpt lat="48.11514" lon="-2.88269">
        <ele>130</ele>
        <time>2021-08-08T13:14:50Z</time>
      </trkpt>
      <trkpt lat="48.11511" lon="-2.88275">
        <ele>130</ele>
        <time>2021-08-08T13:14:51Z</time>
      </trkpt>
      <trkpt lat="48.11509" lon="-2.88281">
        <ele>130</ele>
        <time>2021-08-08T13:14:52Z</time>
      </trkpt>
      <trkpt lat="48.11507" lon="-2.88288">
        <ele>130</ele>
        <time>2021-08-08T13:14:53Z</time>
      </trkpt>
      <trkpt lat="48.11505" lon="-2.88294">
        <ele>130</ele>
        <time>2021-08-08T13:14:54Z</time>
      </trkpt>
      <trkpt lat="48.11503" lon="-2.883">
        <ele>130</ele>
        <time>2021-08-08T13:14:55Z</time>
      </trkpt>
      <trkpt lat="48.11501" lon="-2.88306">
        <ele>130</ele>
        <time>2021-08-08T13:14:56Z</time>
      </trkpt>
      <trkpt lat="48.11499" lon="-2.88313">
        <ele>130</ele>
        <time>2021-08-08T13:14:57Z</time>
      </trkpt>
      <trkpt lat="48.11498" lon="-2.88318">
        <ele>130</ele>
        <time>2021-08-08T13:14:58Z</time>
      </trkpt>
      <trkpt lat="48.11496" lon="-2.88324">
        <ele>129.8</ele>
        <time>2021-08-08T13:14:59Z</time>
      </trkpt>
      <trkpt lat="48.11494" lon="-2.88329">
        <ele>129.8</ele>
        <time>2021-08-08T13:15:00Z</time>
      </trkpt>
      <trkpt lat="48.11493" lon="-2.88335">
        <ele>129.8</ele>
        <time>2021-08-08T13:15:01Z</time>
      </trkpt>
      <trkpt lat="48.11491" lon="-2.88341">
        <ele>129.6</ele>
        <time>2021-08-08T13:15:02Z</time>
      </trkpt>
      <trkpt lat="48.1149" lon="-2.88347">
        <ele>129.6</ele>
        <time>2021-08-08T13:15:03Z</time>
      </trkpt>
      <trkpt lat="48.11488" lon="-2.88352">
        <ele>129.6</ele>
        <time>2021-08-08T13:15:04Z</time>
      </trkpt>
      <trkpt lat="48.11487" lon="-2.88356">
        <ele>129.6</ele>
        <time>2021-08-08T13:15:05Z</time>
      </trkpt>
      <trkpt lat="48.11486" lon="-2.88361">
        <ele>129.6</ele>
        <time>2021-08-08T13:15:06Z</time>
      </trkpt>
      <trkpt lat="48.11485" lon="-2.88365">
        <ele>129.6</ele>
        <time>2021-08-08T13:15:07Z</time>
      </trkpt>
      <trkpt lat="48.11484" lon="-2.8837">
        <ele>129.6</ele>
        <time>2021-08-08T13:15:08Z</time>
      </trkpt>
      <trkpt lat="48.11483" lon="-2.88375">
        <ele>129.6</ele>
        <time>2021-08-08T13:15:09Z</time>
      </trkpt>
      <trkpt lat="48.11481" lon="-2.8838">
        <ele>129.6</ele>
        <time>2021-08-08T13:15:10Z</time>
      </trkpt>
      <trkpt lat="48.1148" lon="-2.88384">
        <ele>129.8</ele>
        <time>2021-08-08T13:15:11Z</time>
      </trkpt>
      <trkpt lat="48.11479" lon="-2.88388">
        <ele>130</ele>
        <time>2021-08-08T13:15:12Z</time>
      </trkpt>
      <trkpt lat="48.11477" lon="-2.88393">
        <ele>130.2</ele>
        <time>2021-08-08T13:15:13Z</time>
      </trkpt>
      <trkpt lat="48.11475" lon="-2.88398">
        <ele>130.2</ele>
        <time>2021-08-08T13:15:14Z</time>
      </trkpt>
      <trkpt lat="48.11474" lon="-2.88403">
        <ele>130.2</ele>
        <time>2021-08-08T13:15:15Z</time>
      </trkpt>
      <trkpt lat="48.11472" lon="-2.88408">
        <ele>130.2</ele>
        <time>2021-08-08T13:15:16Z</time>
      </trkpt>
      <trkpt lat="48.11471" lon="-2.88414">
        <ele>130.2</ele>
        <time>2021-08-08T13:15:17Z</time>
      </trkpt>
      <trkpt lat="48.11469" lon="-2.8842">
        <ele>130.2</ele>
        <time>2021-08-08T13:15:18Z</time>
      </trkpt>
      <trkpt lat="48.11467" lon="-2.88427">
        <ele>130.2</ele>
        <time>2021-08-08T13:15:19Z</time>
      </trkpt>
      <trkpt lat="48.11465" lon="-2.88434">
        <ele>130.2</ele>
        <time>2021-08-08T13:15:20Z</time>
      </trkpt>
      <trkpt lat="48.11463" lon="-2.88441">
        <ele>130.2</ele>
        <time>2021-08-08T13:15:21Z</time>
      </trkpt>
      <trkpt lat="48.11462" lon="-2.88447">
        <ele>130.2</ele>
        <time>2021-08-08T13:15:22Z</time>
      </trkpt>
      <trkpt lat="48.1146" lon="-2.88454">
        <ele>130.2</ele>
        <time>2021-08-08T13:15:23Z</time>
      </trkpt>
      <trkpt lat="48.11459" lon="-2.88462">
        <ele>130.2</ele>
        <time>2021-08-08T13:15:24Z</time>
      </trkpt>
      <trkpt lat="48.11458" lon="-2.88468">
        <ele>130.2</ele>
        <time>2021-08-08T13:15:25Z</time>
      </trkpt>
      <trkpt lat="48.11457" lon="-2.88475">
        <ele>130.2</ele>
        <time>2021-08-08T13:15:26Z</time>
      </trkpt>
      <trkpt lat="48.11456" lon="-2.88481">
        <ele>130</ele>
        <time>2021-08-08T13:15:27Z</time>
      </trkpt>
      <trkpt lat="48.11456" lon="-2.88488">
        <ele>130</ele>
        <time>2021-08-08T13:15:28Z</time>
      </trkpt>
      <trkpt lat="48.11455" lon="-2.88495">
        <ele>130</ele>
        <time>2021-08-08T13:15:29Z</time>
      </trkpt>
      <trkpt lat="48.11454" lon="-2.88501">
        <ele>130</ele>
        <time>2021-08-08T13:15:30Z</time>
      </trkpt>
      <trkpt lat="48.11454" lon="-2.88507">
        <ele>130</ele>
        <time>2021-08-08T13:15:31Z</time>
      </trkpt>
      <trkpt lat="48.11453" lon="-2.88512">
        <ele>129.8</ele>
        <time>2021-08-08T13:15:32Z</time>
      </trkpt>
      <trkpt lat="48.11453" lon="-2.88518">
        <ele>129.8</ele>
        <time>2021-08-08T13:15:33Z</time>
      </trkpt>
      <trkpt lat="48.11452" lon="-2.88524">
        <ele>129.8</ele>
        <time>2021-08-08T13:15:34Z</time>
      </trkpt>
      <trkpt lat="48.11452" lon="-2.88531">
        <ele>129.8</ele>
        <time>2021-08-08T13:15:35Z</time>
      </trkpt>
      <trkpt lat="48.11451" lon="-2.88538">
        <ele>129.8</ele>
        <time>2021-08-08T13:15:36Z</time>
      </trkpt>
      <trkpt lat="48.1145" lon="-2.88545">
        <ele>129.8</ele>
        <time>2021-08-08T13:15:37Z</time>
      </trkpt>
      <trkpt lat="48.11449" lon="-2.88551">
        <ele>129.8</ele>
        <time>2021-08-08T13:15:38Z</time>
      </trkpt>
      <trkpt lat="48.11449" lon="-2.88558">
        <ele>129.8</ele>
        <time>2021-08-08T13:15:39Z</time>
      </trkpt>
      <trkpt lat="48.11448" lon="-2.88564">
        <ele>129.8</ele>
        <time>2021-08-08T13:15:40Z</time>
      </trkpt>
      <trkpt lat="48.11447" lon="-2.8857">
        <ele>129.8</ele>
        <time>2021-08-08T13:15:41Z</time>
      </trkpt>
      <trkpt lat="48.11447" lon="-2.88575">
        <ele>129.8</ele>
        <time>2021-08-08T13:15:42Z</time>
      </trkpt>
      <trkpt lat="48.11446" lon="-2.8858">
        <ele>129.8</ele>
        <time>2021-08-08T13:15:43Z</time>
      </trkpt>
      <trkpt lat="48.11446" lon="-2.88584">
        <ele>129.8</ele>
        <time>2021-08-08T13:15:44Z</time>
      </trkpt>
      <trkpt lat="48.11445" lon="-2.88589">
        <ele>129.8</ele>
        <time>2021-08-08T13:15:45Z</time>
      </trkpt>
      <trkpt lat="48.11445" lon="-2.88593">
        <ele>130</ele>
        <time>2021-08-08T13:15:46Z</time>
      </trkpt>
      <trkpt lat="48.11445" lon="-2.88598">
        <ele>130</ele>
        <time>2021-08-08T13:15:47Z</time>
      </trkpt>
      <trkpt lat="48.11445" lon="-2.88603">
        <ele>130</ele>
        <time>2021-08-08T13:15:48Z</time>
      </trkpt>
      <trkpt lat="48.11444" lon="-2.8861">
        <ele>130</ele>
        <time>2021-08-08T13:15:49Z</time>
      </trkpt>
      <trkpt lat="48.11444" lon="-2.88616">
        <ele>130</ele>
        <time>2021-08-08T13:15:50Z</time>
      </trkpt>
      <trkpt lat="48.11443" lon="-2.88623">
        <ele>130</ele>
        <time>2021-08-08T13:15:51Z</time>
      </trkpt>
      <trkpt lat="48.11442" lon="-2.88628">
        <ele>130</ele>
        <time>2021-08-08T13:15:52Z</time>
      </trkpt>
      <trkpt lat="48.11442" lon="-2.88634">
        <ele>130</ele>
        <time>2021-08-08T13:15:53Z</time>
      </trkpt>
      <trkpt lat="48.11441" lon="-2.88641">
        <ele>130</ele>
        <time>2021-08-08T13:15:54Z</time>
      </trkpt>
      <trkpt lat="48.11441" lon="-2.88648">
        <ele>130</ele>
        <time>2021-08-08T13:15:55Z</time>
      </trkpt>
      <trkpt lat="48.1144" lon="-2.88655">
        <ele>130</ele>
        <time>2021-08-08T13:15:56Z</time>
      </trkpt>
      <trkpt lat="48.11439" lon="-2.88662">
        <ele>130</ele>
        <time>2021-08-08T13:15:57Z</time>
      </trkpt>
      <trkpt lat="48.11438" lon="-2.88669">
        <ele>130</ele>
        <time>2021-08-08T13:15:58Z</time>
      </trkpt>
      <trkpt lat="48.11437" lon="-2.88676">
        <ele>130</ele>
        <time>2021-08-08T13:15:59Z</time>
      </trkpt>
      <trkpt lat="48.11436" lon="-2.88683">
        <ele>130</ele>
        <time>2021-08-08T13:16:00Z</time>
      </trkpt>
      <trkpt lat="48.11436" lon="-2.8869">
        <ele>130</ele>
        <time>2021-08-08T13:16:01Z</time>
      </trkpt>
      <trkpt lat="48.11435" lon="-2.88696">
        <ele>130</ele>
        <time>2021-08-08T13:16:02Z</time>
      </trkpt>
      <trkpt lat="48.11435" lon="-2.88701">
        <ele>130</ele>
        <time>2021-08-08T13:16:03Z</time>
      </trkpt>
      <trkpt lat="48.11435" lon="-2.88705">
        <ele>130</ele>
        <time>2021-08-08T13:16:04Z</time>
      </trkpt>
      <trkpt lat="48.11435" lon="-2.88708">
        <ele>130</ele>
        <time>2021-08-08T13:16:05Z</time>
      </trkpt>
      <trkpt lat="48.11435" lon="-2.88712">
        <ele>130.2</ele>
        <time>2021-08-08T13:16:06Z</time>
      </trkpt>
      <trkpt lat="48.11434" lon="-2.88717">
        <ele>130.2</ele>
        <time>2021-08-08T13:16:07Z</time>
      </trkpt>
      <trkpt lat="48.11434" lon="-2.88722">
        <ele>130.2</ele>
        <time>2021-08-08T13:16:08Z</time>
      </trkpt>
      <trkpt lat="48.11434" lon="-2.88727">
        <ele>130.2</ele>
        <time>2021-08-08T13:16:09Z</time>
      </trkpt>
      <trkpt lat="48.11434" lon="-2.88731">
        <ele>130.4</ele>
        <time>2021-08-08T13:16:10Z</time>
      </trkpt>
      <trkpt lat="48.11434" lon="-2.88736">
        <ele>130.4</ele>
        <time>2021-08-08T13:16:11Z</time>
      </trkpt>
      <trkpt lat="48.11434" lon="-2.88741">
        <ele>130.4</ele>
        <time>2021-08-08T13:16:12Z</time>
      </trkpt>
      <trkpt lat="48.11434" lon="-2.88745">
        <ele>130.4</ele>
        <time>2021-08-08T13:16:13Z</time>
      </trkpt>
      <trkpt lat="48.11434" lon="-2.88749">
        <ele>130.4</ele>
        <time>2021-08-08T13:16:14Z</time>
      </trkpt>
      <trkpt lat="48.11434" lon="-2.88754">
        <ele>130.4</ele>
        <time>2021-08-08T13:16:15Z</time>
      </trkpt>
      <trkpt lat="48.11434" lon="-2.88759">
        <ele>130.6</ele>
        <time>2021-08-08T13:16:16Z</time>
      </trkpt>
      <trkpt lat="48.11434" lon="-2.88764">
        <ele>130.6</ele>
        <time>2021-08-08T13:16:17Z</time>
      </trkpt>
      <trkpt lat="48.11434" lon="-2.88769">
        <ele>130.6</ele>
        <time>2021-08-08T13:16:18Z</time>
      </trkpt>
      <trkpt lat="48.11433" lon="-2.88775">
        <ele>130.6</ele>
        <time>2021-08-08T13:16:19Z</time>
      </trkpt>
      <trkpt lat="48.11433" lon="-2.8878">
        <ele>130.6</ele>
        <time>2021-08-08T13:16:20Z</time>
      </trkpt>
      <trkpt lat="48.11433" lon="-2.88784">
        <ele>130.6</ele>
        <time>2021-08-08T13:16:21Z</time>
      </trkpt>
      <trkpt lat="48.11433" lon="-2.88787">
        <ele>130.6</ele>
        <time>2021-08-08T13:16:22Z</time>
      </trkpt>
      <trkpt lat="48.11433" lon="-2.88791">
        <ele>130.6</ele>
        <time>2021-08-08T13:16:23Z</time>
      </trkpt>
      <trkpt lat="48.11433" lon="-2.88795">
        <ele>130.4</ele>
        <time>2021-08-08T13:16:24Z</time>
      </trkpt>
      <trkpt lat="48.11433" lon="-2.88798">
        <ele>130.4</ele>
        <time>2021-08-08T13:16:25Z</time>
      </trkpt>
      <trkpt lat="48.11433" lon="-2.88803">
        <ele>130.4</ele>
        <time>2021-08-08T13:16:26Z</time>
      </trkpt>
      <trkpt lat="48.11433" lon="-2.88808">
        <ele>130.4</ele>
        <time>2021-08-08T13:16:27Z</time>
      </trkpt>
      <trkpt lat="48.11433" lon="-2.88813">
        <ele>130.4</ele>
        <time>2021-08-08T13:16:28Z</time>
      </trkpt>
      <trkpt lat="48.11434" lon="-2.88818">
        <ele>130.4</ele>
        <time>2021-08-08T13:16:29Z</time>
      </trkpt>
      <trkpt lat="48.11434" lon="-2.88822">
        <ele>130.4</ele>
        <time>2021-08-08T13:16:30Z</time>
      </trkpt>
      <trkpt lat="48.11434" lon="-2.88827">
        <ele>130.4</ele>
        <time>2021-08-08T13:16:31Z</time>
      </trkpt>
      <trkpt lat="48.11435" lon="-2.88831">
        <ele>130.4</ele>
        <time>2021-08-08T13:16:32Z</time>
      </trkpt>
      <trkpt lat="48.11435" lon="-2.88836">
        <ele>130.4</ele>
        <time>2021-08-08T13:16:33Z</time>
      </trkpt>
      <trkpt lat="48.11434" lon="-2.88842">
        <ele>130.4</ele>
        <time>2021-08-08T13:16:34Z</time>
      </trkpt>
      <trkpt lat="48.11434" lon="-2.88849">
        <ele>130.4</ele>
        <time>2021-08-08T13:16:35Z</time>
      </trkpt>
      <trkpt lat="48.11434" lon="-2.88856">
        <ele>130.4</ele>
        <time>2021-08-08T13:16:36Z</time>
      </trkpt>
      <trkpt lat="48.11434" lon="-2.88863">
        <ele>130.4</ele>
        <time>2021-08-08T13:16:37Z</time>
      </trkpt>
      <trkpt lat="48.11434" lon="-2.8887">
        <ele>130.4</ele>
        <time>2021-08-08T13:16:38Z</time>
      </trkpt>
      <trkpt lat="48.11435" lon="-2.88877">
        <ele>130.4</ele>
        <time>2021-08-08T13:16:39Z</time>
      </trkpt>
      <trkpt lat="48.11435" lon="-2.88884">
        <ele>130.4</ele>
        <time>2021-08-08T13:16:40Z</time>
      </trkpt>
      <trkpt lat="48.11436" lon="-2.88892">
        <ele>130.4</ele>
        <time>2021-08-08T13:16:41Z</time>
      </trkpt>
      <trkpt lat="48.11437" lon="-2.88899">
        <ele>130.4</ele>
        <time>2021-08-08T13:16:42Z</time>
      </trkpt>
      <trkpt lat="48.11438" lon="-2.88906">
        <ele>130.4</ele>
        <time>2021-08-08T13:16:43Z</time>
      </trkpt>
      <trkpt lat="48.11438" lon="-2.88912">
        <ele>130.4</ele>
        <time>2021-08-08T13:16:44Z</time>
      </trkpt>
      <trkpt lat="48.11439" lon="-2.88919">
        <ele>130.4</ele>
        <time>2021-08-08T13:16:45Z</time>
      </trkpt>
      <trkpt lat="48.1144" lon="-2.88925">
        <ele>130.4</ele>
        <time>2021-08-08T13:16:46Z</time>
      </trkpt>
      <trkpt lat="48.11441" lon="-2.88931">
        <ele>130.4</ele>
        <time>2021-08-08T13:16:47Z</time>
      </trkpt>
      <trkpt lat="48.11442" lon="-2.88937">
        <ele>130.4</ele>
        <time>2021-08-08T13:16:48Z</time>
      </trkpt>
      <trkpt lat="48.11442" lon="-2.88942">
        <ele>130.4</ele>
        <time>2021-08-08T13:16:49Z</time>
      </trkpt>
      <trkpt lat="48.11442" lon="-2.88947">
        <ele>130.2</ele>
        <time>2021-08-08T13:16:50Z</time>
      </trkpt>
      <trkpt lat="48.11443" lon="-2.88952">
        <ele>130.2</ele>
        <time>2021-08-08T13:16:51Z</time>
      </trkpt>
      <trkpt lat="48.11444" lon="-2.88956">
        <ele>130.2</ele>
        <time>2021-08-08T13:16:52Z</time>
      </trkpt>
      <trkpt lat="48.11444" lon="-2.8896">
        <ele>130.2</ele>
        <time>2021-08-08T13:16:53Z</time>
      </trkpt>
      <trkpt lat="48.11445" lon="-2.88962">
        <ele>130.2</ele>
        <time>2021-08-08T13:16:54Z</time>
      </trkpt>
      <trkpt lat="48.11445" lon="-2.88964">
        <ele>130.2</ele>
        <time>2021-08-08T13:16:55Z</time>
      </trkpt>
      <trkpt lat="48.11446" lon="-2.88966">
        <ele>130.2</ele>
        <time>2021-08-08T13:16:56Z</time>
      </trkpt>
      <trkpt lat="48.11446" lon="-2.88968">
        <ele>130.4</ele>
        <time>2021-08-08T13:16:58Z</time>
      </trkpt>
      <trkpt lat="48.11446" lon="-2.88968">
        <ele>130.4</ele>
        <time>2021-08-08T13:16:59Z</time>
      </trkpt>
      <trkpt lat="48.11446" lon="-2.88968">
        <ele>130.4</ele>
        <time>2021-08-08T13:17:00Z</time>
      </trkpt>
      <trkpt lat="48.11446" lon="-2.88969">
        <ele>131.4</ele>
        <time>2021-08-08T13:17:13Z</time>
      </trkpt>
      <trkpt lat="48.11447" lon="-2.88971">
        <ele>131.4</ele>
        <time>2021-08-08T13:17:14Z</time>
      </trkpt>
      <trkpt lat="48.11447" lon="-2.88972">
        <ele>131.4</ele>
        <time>2021-08-08T13:17:15Z</time>
      </trkpt>
      <trkpt lat="48.11448" lon="-2.88973">
        <ele>131.6</ele>
        <time>2021-08-08T13:17:16Z</time>
      </trkpt>
      <trkpt lat="48.11448" lon="-2.88976">
        <ele>131.6</ele>
        <time>2021-08-08T13:17:17Z</time>
      </trkpt>
      <trkpt lat="48.11447" lon="-2.88978">
        <ele>131.6</ele>
        <time>2021-08-08T13:17:18Z</time>
      </trkpt>
      <trkpt lat="48.11446" lon="-2.88981">
        <ele>131.6</ele>
        <time>2021-08-08T13:17:19Z</time>
      </trkpt>
      <trkpt lat="48.11447" lon="-2.88983">
        <ele>131.8</ele>
        <time>2021-08-08T13:17:20Z</time>
      </trkpt>
      <trkpt lat="48.11448" lon="-2.88987">
        <ele>131.8</ele>
        <time>2021-08-08T13:17:21Z</time>
      </trkpt>
      <trkpt lat="48.11449" lon="-2.88991">
        <ele>131.8</ele>
        <time>2021-08-08T13:17:22Z</time>
      </trkpt>
      <trkpt lat="48.11449" lon="-2.88997">
        <ele>131.8</ele>
        <time>2021-08-08T13:17:23Z</time>
      </trkpt>
      <trkpt lat="48.1145" lon="-2.89003">
        <ele>131.8</ele>
        <time>2021-08-08T13:17:24Z</time>
      </trkpt>
      <trkpt lat="48.11451" lon="-2.8901">
        <ele>131.8</ele>
        <time>2021-08-08T13:17:25Z</time>
      </trkpt>
      <trkpt lat="48.11452" lon="-2.89017">
        <ele>131.8</ele>
        <time>2021-08-08T13:17:26Z</time>
      </trkpt>
      <trkpt lat="48.11452" lon="-2.89025">
        <ele>131.8</ele>
        <time>2021-08-08T13:17:27Z</time>
      </trkpt>
      <trkpt lat="48.11452" lon="-2.89033">
        <ele>131.8</ele>
        <time>2021-08-08T13:17:28Z</time>
      </trkpt>
      <trkpt lat="48.11452" lon="-2.89042">
        <ele>131.6</ele>
        <time>2021-08-08T13:17:29Z</time>
      </trkpt>
      <trkpt lat="48.11452" lon="-2.89051">
        <ele>131.2</ele>
        <time>2021-08-08T13:17:30Z</time>
      </trkpt>
      <trkpt lat="48.11451" lon="-2.8906">
        <ele>130.6</ele>
        <time>2021-08-08T13:17:31Z</time>
      </trkpt>
      <trkpt lat="48.1145" lon="-2.8907">
        <ele>129.8</ele>
        <time>2021-08-08T13:17:32Z</time>
      </trkpt>
      <trkpt lat="48.11449" lon="-2.8908">
        <ele>129.2</ele>
        <time>2021-08-08T13:17:33Z</time>
      </trkpt>
      <trkpt lat="48.11448" lon="-2.8909">
        <ele>128.6</ele>
        <time>2021-08-08T13:17:34Z</time>
      </trkpt>
      <trkpt lat="48.11447" lon="-2.89101">
        <ele>127.8</ele>
        <time>2021-08-08T13:17:35Z</time>
      </trkpt>
      <trkpt lat="48.11445" lon="-2.89111">
        <ele>127</ele>
        <time>2021-08-08T13:17:36Z</time>
      </trkpt>
      <trkpt lat="48.11444" lon="-2.89121">
        <ele>126.2</ele>
        <time>2021-08-08T13:17:37Z</time>
      </trkpt>
      <trkpt lat="48.11444" lon="-2.89131">
        <ele>125.8</ele>
        <time>2021-08-08T13:17:38Z</time>
      </trkpt>
      <trkpt lat="48.11442" lon="-2.89141">
        <ele>125.6</ele>
        <time>2021-08-08T13:17:39Z</time>
      </trkpt>
      <trkpt lat="48.11441" lon="-2.89152">
        <ele>125.4</ele>
        <time>2021-08-08T13:17:40Z</time>
      </trkpt>
      <trkpt lat="48.11439" lon="-2.89162">
        <ele>125.2</ele>
        <time>2021-08-08T13:17:41Z</time>
      </trkpt>
      <trkpt lat="48.11437" lon="-2.89173">
        <ele>125.2</ele>
        <time>2021-08-08T13:17:42Z</time>
      </trkpt>
      <trkpt lat="48.11435" lon="-2.89183">
        <ele>124.6</ele>
        <time>2021-08-08T13:17:43Z</time>
      </trkpt>
      <trkpt lat="48.11432" lon="-2.89193">
        <ele>124</ele>
        <time>2021-08-08T13:17:44Z</time>
      </trkpt>
      <trkpt lat="48.11429" lon="-2.89203">
        <ele>123.6</ele>
        <time>2021-08-08T13:17:45Z</time>
      </trkpt>
      <trkpt lat="48.11426" lon="-2.89212">
        <ele>123.4</ele>
        <time>2021-08-08T13:17:46Z</time>
      </trkpt>
      <trkpt lat="48.11422" lon="-2.89221">
        <ele>123.2</ele>
        <time>2021-08-08T13:17:47Z</time>
      </trkpt>
      <trkpt lat="48.11419" lon="-2.89231">
        <ele>123</ele>
        <time>2021-08-08T13:17:48Z</time>
      </trkpt>
      <trkpt lat="48.11416" lon="-2.8924">
        <ele>122.6</ele>
        <time>2021-08-08T13:17:49Z</time>
      </trkpt>
      <trkpt lat="48.11413" lon="-2.89249">
        <ele>122.2</ele>
        <time>2021-08-08T13:17:50Z</time>
      </trkpt>
      <trkpt lat="48.1141" lon="-2.89259">
        <ele>122.2</ele>
        <time>2021-08-08T13:17:51Z</time>
      </trkpt>
      <trkpt lat="48.11406" lon="-2.89268">
        <ele>122</ele>
        <time>2021-08-08T13:17:52Z</time>
      </trkpt>
      <trkpt lat="48.11403" lon="-2.89277">
        <ele>122</ele>
        <time>2021-08-08T13:17:53Z</time>
      </trkpt>
      <trkpt lat="48.11401" lon="-2.89286">
        <ele>121.8</ele>
        <time>2021-08-08T13:17:54Z</time>
      </trkpt>
      <trkpt lat="48.11399" lon="-2.89295">
        <ele>121.8</ele>
        <time>2021-08-08T13:17:55Z</time>
      </trkpt>
      <trkpt lat="48.11398" lon="-2.89303">
        <ele>121.8</ele>
        <time>2021-08-08T13:17:56Z</time>
      </trkpt>
      <trkpt lat="48.11397" lon="-2.89312">
        <ele>121.8</ele>
        <time>2021-08-08T13:17:57Z</time>
      </trkpt>
      <trkpt lat="48.11397" lon="-2.89319">
        <ele>121.6</ele>
        <time>2021-08-08T13:17:58Z</time>
      </trkpt>
      <trkpt lat="48.11396" lon="-2.89327">
        <ele>121.6</ele>
        <time>2021-08-08T13:17:59Z</time>
      </trkpt>
      <trkpt lat="48.11396" lon="-2.89334">
        <ele>121.6</ele>
        <time>2021-08-08T13:18:00Z</time>
      </trkpt>
      <trkpt lat="48.11395" lon="-2.89342">
        <ele>121</ele>
        <time>2021-08-08T13:18:01Z</time>
      </trkpt>
      <trkpt lat="48.11395" lon="-2.8935">
        <ele>120.4</ele>
        <time>2021-08-08T13:18:02Z</time>
      </trkpt>
      <trkpt lat="48.11396" lon="-2.89358">
        <ele>120</ele>
        <time>2021-08-08T13:18:03Z</time>
      </trkpt>
      <trkpt lat="48.11396" lon="-2.89366">
        <ele>119.8</ele>
        <time>2021-08-08T13:18:04Z</time>
      </trkpt>
      <trkpt lat="48.11396" lon="-2.89374">
        <ele>119.8</ele>
        <time>2021-08-08T13:18:05Z</time>
      </trkpt>
      <trkpt lat="48.11396" lon="-2.89384">
        <ele>119.8</ele>
        <time>2021-08-08T13:18:06Z</time>
      </trkpt>
      <trkpt lat="48.11396" lon="-2.89393">
        <ele>119.6</ele>
        <time>2021-08-08T13:18:07Z</time>
      </trkpt>
      <trkpt lat="48.11396" lon="-2.89403">
        <ele>119.6</ele>
        <time>2021-08-08T13:18:08Z</time>
      </trkpt>
      <trkpt lat="48.11397" lon="-2.89412">
        <ele>119.6</ele>
        <time>2021-08-08T13:18:09Z</time>
      </trkpt>
      <trkpt lat="48.11397" lon="-2.89422">
        <ele>119.4</ele>
        <time>2021-08-08T13:18:10Z</time>
      </trkpt>
      <trkpt lat="48.11398" lon="-2.89431">
        <ele>119.4</ele>
        <time>2021-08-08T13:18:11Z</time>
      </trkpt>
      <trkpt lat="48.11398" lon="-2.89442">
        <ele>119.4</ele>
        <time>2021-08-08T13:18:12Z</time>
      </trkpt>
      <trkpt lat="48.114" lon="-2.89452">
        <ele>119.4</ele>
        <time>2021-08-08T13:18:13Z</time>
      </trkpt>
      <trkpt lat="48.11401" lon="-2.89462">
        <ele>119.4</ele>
        <time>2021-08-08T13:18:14Z</time>
      </trkpt>
      <trkpt lat="48.11402" lon="-2.89474">
        <ele>119.4</ele>
        <time>2021-08-08T13:18:15Z</time>
      </trkpt>
      <trkpt lat="48.11403" lon="-2.89488">
        <ele>119.4</ele>
        <time>2021-08-08T13:18:16Z</time>
      </trkpt>
      <trkpt lat="48.11404" lon="-2.895">
        <ele>119</ele>
        <time>2021-08-08T13:18:17Z</time>
      </trkpt>
      <trkpt lat="48.11405" lon="-2.89513">
        <ele>118.8</ele>
        <time>2021-08-08T13:18:18Z</time>
      </trkpt>
      <trkpt lat="48.11406" lon="-2.89527">
        <ele>118</ele>
        <time>2021-08-08T13:18:19Z</time>
      </trkpt>
      <trkpt lat="48.11407" lon="-2.8954">
        <ele>117.4</ele>
        <time>2021-08-08T13:18:20Z</time>
      </trkpt>
      <trkpt lat="48.11409" lon="-2.89553">
        <ele>116.6</ele>
        <time>2021-08-08T13:18:21Z</time>
      </trkpt>
      <trkpt lat="48.1141" lon="-2.89565">
        <ele>116.2</ele>
        <time>2021-08-08T13:18:22Z</time>
      </trkpt>
      <trkpt lat="48.11412" lon="-2.89577">
        <ele>116</ele>
        <time>2021-08-08T13:18:23Z</time>
      </trkpt>
      <trkpt lat="48.11414" lon="-2.8959">
        <ele>115.8</ele>
        <time>2021-08-08T13:18:24Z</time>
      </trkpt>
      <trkpt lat="48.11415" lon="-2.89602">
        <ele>115.8</ele>
        <time>2021-08-08T13:18:25Z</time>
      </trkpt>
      <trkpt lat="48.11417" lon="-2.89614">
        <ele>115.6</ele>
        <time>2021-08-08T13:18:26Z</time>
      </trkpt>
      <trkpt lat="48.11419" lon="-2.89626">
        <ele>115</ele>
        <time>2021-08-08T13:18:27Z</time>
      </trkpt>
      <trkpt lat="48.11421" lon="-2.89639">
        <ele>114.8</ele>
        <time>2021-08-08T13:18:28Z</time>
      </trkpt>
      <trkpt lat="48.11423" lon="-2.89651">
        <ele>114.6</ele>
        <time>2021-08-08T13:18:29Z</time>
      </trkpt>
      <trkpt lat="48.11425" lon="-2.89664">
        <ele>114.6</ele>
        <time>2021-08-08T13:18:30Z</time>
      </trkpt>
      <trkpt lat="48.11426" lon="-2.89675">
        <ele>114.4</ele>
        <time>2021-08-08T13:18:31Z</time>
      </trkpt>
      <trkpt lat="48.11428" lon="-2.89688">
        <ele>114.4</ele>
        <time>2021-08-08T13:18:32Z</time>
      </trkpt>
      <trkpt lat="48.11429" lon="-2.897">
        <ele>114.4</ele>
        <time>2021-08-08T13:18:33Z</time>
      </trkpt>
      <trkpt lat="48.11431" lon="-2.89713">
        <ele>114.2</ele>
        <time>2021-08-08T13:18:34Z</time>
      </trkpt>
      <trkpt lat="48.11432" lon="-2.89726">
        <ele>114</ele>
        <time>2021-08-08T13:18:35Z</time>
      </trkpt>
      <trkpt lat="48.11434" lon="-2.89738">
        <ele>113.8</ele>
        <time>2021-08-08T13:18:36Z</time>
      </trkpt>
      <trkpt lat="48.11436" lon="-2.89751">
        <ele>113.6</ele>
        <time>2021-08-08T13:18:37Z</time>
      </trkpt>
      <trkpt lat="48.11438" lon="-2.89763">
        <ele>113.6</ele>
        <time>2021-08-08T13:18:38Z</time>
      </trkpt>
      <trkpt lat="48.11439" lon="-2.89777">
        <ele>113.6</ele>
        <time>2021-08-08T13:18:39Z</time>
      </trkpt>
      <trkpt lat="48.11441" lon="-2.89789">
        <ele>113.4</ele>
        <time>2021-08-08T13:18:40Z</time>
      </trkpt>
      <trkpt lat="48.11443" lon="-2.89801">
        <ele>113.4</ele>
        <time>2021-08-08T13:18:41Z</time>
      </trkpt>
      <trkpt lat="48.11444" lon="-2.89813">
        <ele>113.2</ele>
        <time>2021-08-08T13:18:42Z</time>
      </trkpt>
      <trkpt lat="48.11446" lon="-2.89825">
        <ele>112.4</ele>
        <time>2021-08-08T13:18:43Z</time>
      </trkpt>
      <trkpt lat="48.11448" lon="-2.89836">
        <ele>111.8</ele>
        <time>2021-08-08T13:18:44Z</time>
      </trkpt>
      <trkpt lat="48.11449" lon="-2.89847">
        <ele>111.2</ele>
        <time>2021-08-08T13:18:45Z</time>
      </trkpt>
      <trkpt lat="48.11451" lon="-2.89858">
        <ele>111</ele>
        <time>2021-08-08T13:18:46Z</time>
      </trkpt>
      <trkpt lat="48.11452" lon="-2.89868">
        <ele>110.8</ele>
        <time>2021-08-08T13:18:47Z</time>
      </trkpt>
      <trkpt lat="48.11454" lon="-2.89878">
        <ele>110.8</ele>
        <time>2021-08-08T13:18:48Z</time>
      </trkpt>
      <trkpt lat="48.11455" lon="-2.89886">
        <ele>110.6</ele>
        <time>2021-08-08T13:18:49Z</time>
      </trkpt>
      <trkpt lat="48.11456" lon="-2.89896">
        <ele>110.6</ele>
        <time>2021-08-08T13:18:50Z</time>
      </trkpt>
      <trkpt lat="48.11457" lon="-2.89905">
        <ele>110.6</ele>
        <time>2021-08-08T13:18:51Z</time>
      </trkpt>
      <trkpt lat="48.11459" lon="-2.89914">
        <ele>110.6</ele>
        <time>2021-08-08T13:18:52Z</time>
      </trkpt>
      <trkpt lat="48.1146" lon="-2.89924">
        <ele>110.4</ele>
        <time>2021-08-08T13:18:53Z</time>
      </trkpt>
      <trkpt lat="48.11462" lon="-2.89934">
        <ele>110.4</ele>
        <time>2021-08-08T13:18:54Z</time>
      </trkpt>
      <trkpt lat="48.11463" lon="-2.89945">
        <ele>110.2</ele>
        <time>2021-08-08T13:18:55Z</time>
      </trkpt>
      <trkpt lat="48.11465" lon="-2.89956">
        <ele>110</ele>
        <time>2021-08-08T13:18:56Z</time>
      </trkpt>
      <trkpt lat="48.11466" lon="-2.89967">
        <ele>110</ele>
        <time>2021-08-08T13:18:57Z</time>
      </trkpt>
      <trkpt lat="48.11468" lon="-2.89978">
        <ele>110</ele>
        <time>2021-08-08T13:18:58Z</time>
      </trkpt>
      <trkpt lat="48.1147" lon="-2.89989">
        <ele>110</ele>
        <time>2021-08-08T13:18:59Z</time>
      </trkpt>
      <trkpt lat="48.11471" lon="-2.89999">
        <ele>110.2</ele>
        <time>2021-08-08T13:19:00Z</time>
      </trkpt>
      <trkpt lat="48.11473" lon="-2.90009">
        <ele>110.2</ele>
        <time>2021-08-08T13:19:01Z</time>
      </trkpt>
      <trkpt lat="48.11474" lon="-2.90018">
        <ele>110.4</ele>
        <time>2021-08-08T13:19:02Z</time>
      </trkpt>
      <trkpt lat="48.11475" lon="-2.90027">
        <ele>110.6</ele>
        <time>2021-08-08T13:19:03Z</time>
      </trkpt>
      <trkpt lat="48.11476" lon="-2.90036">
        <ele>110.6</ele>
        <time>2021-08-08T13:19:04Z</time>
      </trkpt>
      <trkpt lat="48.11477" lon="-2.90046">
        <ele>110.2</ele>
        <time>2021-08-08T13:19:05Z</time>
      </trkpt>
      <trkpt lat="48.11477" lon="-2.90055">
        <ele>110</ele>
        <time>2021-08-08T13:19:06Z</time>
      </trkpt>
      <trkpt lat="48.11478" lon="-2.90065">
        <ele>109.8</ele>
        <time>2021-08-08T13:19:07Z</time>
      </trkpt>
      <trkpt lat="48.1148" lon="-2.90074">
        <ele>109.6</ele>
        <time>2021-08-08T13:19:08Z</time>
      </trkpt>
      <trkpt lat="48.11481" lon="-2.90084">
        <ele>109.2</ele>
        <time>2021-08-08T13:19:09Z</time>
      </trkpt>
      <trkpt lat="48.11483" lon="-2.90094">
        <ele>109</ele>
        <time>2021-08-08T13:19:10Z</time>
      </trkpt>
      <trkpt lat="48.11485" lon="-2.90103">
        <ele>108.8</ele>
        <time>2021-08-08T13:19:11Z</time>
      </trkpt>
      <trkpt lat="48.11486" lon="-2.90111">
        <ele>108.8</ele>
        <time>2021-08-08T13:19:12Z</time>
      </trkpt>
      <trkpt lat="48.11488" lon="-2.90119">
        <ele>108.8</ele>
        <time>2021-08-08T13:19:13Z</time>
      </trkpt>
      <trkpt lat="48.11489" lon="-2.90126">
        <ele>108.8</ele>
        <time>2021-08-08T13:19:14Z</time>
      </trkpt>
      <trkpt lat="48.1149" lon="-2.90133">
        <ele>108.8</ele>
        <time>2021-08-08T13:19:15Z</time>
      </trkpt>
      <trkpt lat="48.11492" lon="-2.90141">
        <ele>109</ele>
        <time>2021-08-08T13:19:16Z</time>
      </trkpt>
      <trkpt lat="48.11493" lon="-2.90149">
        <ele>108.8</ele>
        <time>2021-08-08T13:19:17Z</time>
      </trkpt>
      <trkpt lat="48.11494" lon="-2.90157">
        <ele>108.8</ele>
        <time>2021-08-08T13:19:18Z</time>
      </trkpt>
      <trkpt lat="48.11495" lon="-2.90164">
        <ele>108.6</ele>
        <time>2021-08-08T13:19:19Z</time>
      </trkpt>
      <trkpt lat="48.11496" lon="-2.90171">
        <ele>108.6</ele>
        <time>2021-08-08T13:19:20Z</time>
      </trkpt>
      <trkpt lat="48.11496" lon="-2.90177">
        <ele>108.6</ele>
        <time>2021-08-08T13:19:21Z</time>
      </trkpt>
      <trkpt lat="48.11497" lon="-2.90184">
        <ele>108.6</ele>
        <time>2021-08-08T13:19:22Z</time>
      </trkpt>
      <trkpt lat="48.11498" lon="-2.9019">
        <ele>108.6</ele>
        <time>2021-08-08T13:19:23Z</time>
      </trkpt>
      <trkpt lat="48.11499" lon="-2.90197">
        <ele>108.6</ele>
        <time>2021-08-08T13:19:24Z</time>
      </trkpt>
      <trkpt lat="48.115" lon="-2.90203">
        <ele>108.6</ele>
        <time>2021-08-08T13:19:25Z</time>
      </trkpt>
      <trkpt lat="48.11501" lon="-2.9021">
        <ele>108.4</ele>
        <time>2021-08-08T13:19:26Z</time>
      </trkpt>
      <trkpt lat="48.11502" lon="-2.90216">
        <ele>108.4</ele>
        <time>2021-08-08T13:19:27Z</time>
      </trkpt>
      <trkpt lat="48.11503" lon="-2.90222">
        <ele>108.4</ele>
        <time>2021-08-08T13:19:28Z</time>
      </trkpt>
      <trkpt lat="48.11504" lon="-2.90227">
        <ele>108.4</ele>
        <time>2021-08-08T13:19:29Z</time>
      </trkpt>
      <trkpt lat="48.11505" lon="-2.90232">
        <ele>108.4</ele>
        <time>2021-08-08T13:19:30Z</time>
      </trkpt>
      <trkpt lat="48.11506" lon="-2.90237">
        <ele>108.4</ele>
        <time>2021-08-08T13:19:31Z</time>
      </trkpt>
      <trkpt lat="48.11506" lon="-2.90241">
        <ele>108.4</ele>
        <time>2021-08-08T13:19:32Z</time>
      </trkpt>
      <trkpt lat="48.11506" lon="-2.90244">
        <ele>108.4</ele>
        <time>2021-08-08T13:19:33Z</time>
      </trkpt>
      <trkpt lat="48.11505" lon="-2.90248">
        <ele>108.4</ele>
        <time>2021-08-08T13:19:34Z</time>
      </trkpt>
      <trkpt lat="48.11503" lon="-2.9025">
        <ele>108.4</ele>
        <time>2021-08-08T13:19:35Z</time>
      </trkpt>
      <trkpt lat="48.11501" lon="-2.90251">
        <ele>108.4</ele>
        <time>2021-08-08T13:19:36Z</time>
      </trkpt>
      <trkpt lat="48.11499" lon="-2.90253">
        <ele>108.4</ele>
        <time>2021-08-08T13:19:37Z</time>
      </trkpt>
      <trkpt lat="48.11497" lon="-2.90254">
        <ele>108.6</ele>
        <time>2021-08-08T13:19:38Z</time>
      </trkpt>
      <trkpt lat="48.11494" lon="-2.90255">
        <ele>108.6</ele>
        <time>2021-08-08T13:19:39Z</time>
      </trkpt>
      <trkpt lat="48.11492" lon="-2.90256">
        <ele>108.6</ele>
        <time>2021-08-08T13:19:40Z</time>
      </trkpt>
      <trkpt lat="48.11489" lon="-2.90257">
        <ele>108.8</ele>
        <time>2021-08-08T13:19:41Z</time>
      </trkpt>
      <trkpt lat="48.11488" lon="-2.9026">
        <ele>109</ele>
        <time>2021-08-08T13:19:42Z</time>
      </trkpt>
      <trkpt lat="48.11488" lon="-2.90264">
        <ele>109.2</ele>
        <time>2021-08-08T13:19:43Z</time>
      </trkpt>
      <trkpt lat="48.11489" lon="-2.90269">
        <ele>109.4</ele>
        <time>2021-08-08T13:19:44Z</time>
      </trkpt>
      <trkpt lat="48.1149" lon="-2.90275">
        <ele>109.4</ele>
        <time>2021-08-08T13:19:45Z</time>
      </trkpt>
      <trkpt lat="48.11492" lon="-2.90281">
        <ele>109.4</ele>
        <time>2021-08-08T13:19:46Z</time>
      </trkpt>
      <trkpt lat="48.11493" lon="-2.90289">
        <ele>109.4</ele>
        <time>2021-08-08T13:19:47Z</time>
      </trkpt>
      <trkpt lat="48.11494" lon="-2.90296">
        <ele>109.4</ele>
        <time>2021-08-08T13:19:48Z</time>
      </trkpt>
      <trkpt lat="48.11495" lon="-2.90303">
        <ele>109.4</ele>
        <time>2021-08-08T13:19:49Z</time>
      </trkpt>
      <trkpt lat="48.11496" lon="-2.90311">
        <ele>109.4</ele>
        <time>2021-08-08T13:19:50Z</time>
      </trkpt>
      <trkpt lat="48.11497" lon="-2.90319">
        <ele>109.4</ele>
        <time>2021-08-08T13:19:51Z</time>
      </trkpt>
      <trkpt lat="48.11497" lon="-2.90327">
        <ele>109</ele>
        <time>2021-08-08T13:19:52Z</time>
      </trkpt>
      <trkpt lat="48.11498" lon="-2.90335">
        <ele>108.6</ele>
        <time>2021-08-08T13:19:53Z</time>
      </trkpt>
      <trkpt lat="48.11498" lon="-2.90342">
        <ele>108.2</ele>
        <time>2021-08-08T13:19:54Z</time>
      </trkpt>
      <trkpt lat="48.11497" lon="-2.9035">
        <ele>107.6</ele>
        <time>2021-08-08T13:19:55Z</time>
      </trkpt>
      <trkpt lat="48.11496" lon="-2.90357">
        <ele>107.2</ele>
        <time>2021-08-08T13:19:56Z</time>
      </trkpt>
      <trkpt lat="48.11495" lon="-2.90365">
        <ele>106.4</ele>
        <time>2021-08-08T13:19:57Z</time>
      </trkpt>
      <trkpt lat="48.11493" lon="-2.90372">
        <ele>105.6</ele>
        <time>2021-08-08T13:19:58Z</time>
      </trkpt>
      <trkpt lat="48.1149" lon="-2.9038">
        <ele>105.4</ele>
        <time>2021-08-08T13:19:59Z</time>
      </trkpt>
      <trkpt lat="48.11488" lon="-2.90387">
        <ele>105.2</ele>
        <time>2021-08-08T13:20:00Z</time>
      </trkpt>
      <trkpt lat="48.11485" lon="-2.90394">
        <ele>105</ele>
        <time>2021-08-08T13:20:01Z</time>
      </trkpt>
      <trkpt lat="48.11481" lon="-2.90401">
        <ele>105</ele>
        <time>2021-08-08T13:20:02Z</time>
      </trkpt>
      <trkpt lat="48.11478" lon="-2.90407">
        <ele>105</ele>
        <time>2021-08-08T13:20:03Z</time>
      </trkpt>
      <trkpt lat="48.11474" lon="-2.90413">
        <ele>105</ele>
        <time>2021-08-08T13:20:04Z</time>
      </trkpt>
      <trkpt lat="48.11469" lon="-2.90419">
        <ele>104.8</ele>
        <time>2021-08-08T13:20:05Z</time>
      </trkpt>
      <trkpt lat="48.11464" lon="-2.90425">
        <ele>104.8</ele>
        <time>2021-08-08T13:20:06Z</time>
      </trkpt>
      <trkpt lat="48.11459" lon="-2.90432">
        <ele>104.8</ele>
        <time>2021-08-08T13:20:07Z</time>
      </trkpt>
      <trkpt lat="48.11454" lon="-2.90438">
        <ele>104.6</ele>
        <time>2021-08-08T13:20:08Z</time>
      </trkpt>
      <trkpt lat="48.11449" lon="-2.90443">
        <ele>104.6</ele>
        <time>2021-08-08T13:20:09Z</time>
      </trkpt>
      <trkpt lat="48.11443" lon="-2.90449">
        <ele>104.6</ele>
        <time>2021-08-08T13:20:10Z</time>
      </trkpt>
      <trkpt lat="48.11438" lon="-2.90454">
        <ele>104.6</ele>
        <time>2021-08-08T13:20:11Z</time>
      </trkpt>
      <trkpt lat="48.11433" lon="-2.9046">
        <ele>104.6</ele>
        <time>2021-08-08T13:20:12Z</time>
      </trkpt>
      <trkpt lat="48.11428" lon="-2.90466">
        <ele>104.6</ele>
        <time>2021-08-08T13:20:13Z</time>
      </trkpt>
      <trkpt lat="48.11424" lon="-2.90471">
        <ele>104.6</ele>
        <time>2021-08-08T13:20:14Z</time>
      </trkpt>
      <trkpt lat="48.1142" lon="-2.90477">
        <ele>104.8</ele>
        <time>2021-08-08T13:20:15Z</time>
      </trkpt>
      <trkpt lat="48.11415" lon="-2.90482">
        <ele>104.8</ele>
        <time>2021-08-08T13:20:16Z</time>
      </trkpt>
      <trkpt lat="48.11412" lon="-2.90488">
        <ele>104.8</ele>
        <time>2021-08-08T13:20:17Z</time>
      </trkpt>
      <trkpt lat="48.11408" lon="-2.90494">
        <ele>104.8</ele>
        <time>2021-08-08T13:20:18Z</time>
      </trkpt>
      <trkpt lat="48.11406" lon="-2.905">
        <ele>104.8</ele>
        <time>2021-08-08T13:20:19Z</time>
      </trkpt>
      <trkpt lat="48.11402" lon="-2.90506">
        <ele>105</ele>
        <time>2021-08-08T13:20:20Z</time>
      </trkpt>
      <trkpt lat="48.11399" lon="-2.90513">
        <ele>105</ele>
        <time>2021-08-08T13:20:21Z</time>
      </trkpt>
      <trkpt lat="48.11396" lon="-2.90519">
        <ele>105</ele>
        <time>2021-08-08T13:20:22Z</time>
      </trkpt>
      <trkpt lat="48.11393" lon="-2.90526">
        <ele>105</ele>
        <time>2021-08-08T13:20:23Z</time>
      </trkpt>
      <trkpt lat="48.1139" lon="-2.90533">
        <ele>105.2</ele>
        <time>2021-08-08T13:20:24Z</time>
      </trkpt>
      <trkpt lat="48.11387" lon="-2.9054">
        <ele>105.2</ele>
        <time>2021-08-08T13:20:25Z</time>
      </trkpt>
      <trkpt lat="48.11384" lon="-2.90547">
        <ele>105.2</ele>
        <time>2021-08-08T13:20:26Z</time>
      </trkpt>
      <trkpt lat="48.11382" lon="-2.90554">
        <ele>105.2</ele>
        <time>2021-08-08T13:20:27Z</time>
      </trkpt>
      <trkpt lat="48.11379" lon="-2.90561">
        <ele>105.4</ele>
        <time>2021-08-08T13:20:28Z</time>
      </trkpt>
      <trkpt lat="48.11376" lon="-2.90568">
        <ele>105.4</ele>
        <time>2021-08-08T13:20:29Z</time>
      </trkpt>
      <trkpt lat="48.11373" lon="-2.90576">
        <ele>105.4</ele>
        <time>2021-08-08T13:20:30Z</time>
      </trkpt>
      <trkpt lat="48.1137" lon="-2.90583">
        <ele>105.2</ele>
        <time>2021-08-08T13:20:31Z</time>
      </trkpt>
      <trkpt lat="48.11368" lon="-2.90589">
        <ele>105.2</ele>
        <time>2021-08-08T13:20:32Z</time>
      </trkpt>
      <trkpt lat="48.11365" lon="-2.90596">
        <ele>105.2</ele>
        <time>2021-08-08T13:20:33Z</time>
      </trkpt>
      <trkpt lat="48.11363" lon="-2.90602">
        <ele>105</ele>
        <time>2021-08-08T13:20:34Z</time>
      </trkpt>
      <trkpt lat="48.11361" lon="-2.90609">
        <ele>105</ele>
        <time>2021-08-08T13:20:35Z</time>
      </trkpt>
      <trkpt lat="48.11358" lon="-2.90615">
        <ele>105</ele>
        <time>2021-08-08T13:20:36Z</time>
      </trkpt>
      <trkpt lat="48.11356" lon="-2.90621">
        <ele>104.8</ele>
        <time>2021-08-08T13:20:37Z</time>
      </trkpt>
      <trkpt lat="48.11353" lon="-2.90628">
        <ele>104.8</ele>
        <time>2021-08-08T13:20:38Z</time>
      </trkpt>
      <trkpt lat="48.11351" lon="-2.90633">
        <ele>104.8</ele>
        <time>2021-08-08T13:20:39Z</time>
      </trkpt>
      <trkpt lat="48.11349" lon="-2.90638">
        <ele>104.8</ele>
        <time>2021-08-08T13:20:40Z</time>
      </trkpt>
      <trkpt lat="48.11347" lon="-2.90643">
        <ele>104.8</ele>
        <time>2021-08-08T13:20:41Z</time>
      </trkpt>
      <trkpt lat="48.11346" lon="-2.90649">
        <ele>104.8</ele>
        <time>2021-08-08T13:20:42Z</time>
      </trkpt>
      <trkpt lat="48.11344" lon="-2.90655">
        <ele>104.8</ele>
        <time>2021-08-08T13:20:43Z</time>
      </trkpt>
      <trkpt lat="48.11341" lon="-2.90661">
        <ele>104.8</ele>
        <time>2021-08-08T13:20:44Z</time>
      </trkpt>
      <trkpt lat="48.11338" lon="-2.90667">
        <ele>104.8</ele>
        <time>2021-08-08T13:20:45Z</time>
      </trkpt>
      <trkpt lat="48.11336" lon="-2.90673">
        <ele>104.8</ele>
        <time>2021-08-08T13:20:46Z</time>
      </trkpt>
      <trkpt lat="48.11334" lon="-2.90679">
        <ele>104.8</ele>
        <time>2021-08-08T13:20:47Z</time>
      </trkpt>
      <trkpt lat="48.11332" lon="-2.90685">
        <ele>104.8</ele>
        <time>2021-08-08T13:20:48Z</time>
      </trkpt>
      <trkpt lat="48.1133" lon="-2.90691">
        <ele>104.8</ele>
        <time>2021-08-08T13:20:49Z</time>
      </trkpt>
      <trkpt lat="48.11328" lon="-2.90697">
        <ele>104.8</ele>
        <time>2021-08-08T13:20:50Z</time>
      </trkpt>
      <trkpt lat="48.11326" lon="-2.90703">
        <ele>104.8</ele>
        <time>2021-08-08T13:20:51Z</time>
      </trkpt>
      <trkpt lat="48.11324" lon="-2.90709">
        <ele>104.8</ele>
        <time>2021-08-08T13:20:52Z</time>
      </trkpt>
      <trkpt lat="48.11321" lon="-2.90715">
        <ele>104.8</ele>
        <time>2021-08-08T13:20:53Z</time>
      </trkpt>
      <trkpt lat="48.11319" lon="-2.90721">
        <ele>105</ele>
        <time>2021-08-08T13:20:54Z</time>
      </trkpt>
      <trkpt lat="48.11317" lon="-2.90726">
        <ele>105</ele>
        <time>2021-08-08T13:20:55Z</time>
      </trkpt>
      <trkpt lat="48.11315" lon="-2.90731">
        <ele>105</ele>
        <time>2021-08-08T13:20:56Z</time>
      </trkpt>
      <trkpt lat="48.11313" lon="-2.90736">
        <ele>105.2</ele>
        <time>2021-08-08T13:20:57Z</time>
      </trkpt>
      <trkpt lat="48.11311" lon="-2.90741">
        <ele>105.4</ele>
        <time>2021-08-08T13:20:58Z</time>
      </trkpt>
      <trkpt lat="48.11308" lon="-2.90746">
        <ele>105.4</ele>
        <time>2021-08-08T13:20:59Z</time>
      </trkpt>
      <trkpt lat="48.11306" lon="-2.90752">
        <ele>105.6</ele>
        <time>2021-08-08T13:21:00Z</time>
      </trkpt>
      <trkpt lat="48.11304" lon="-2.90757">
        <ele>105.6</ele>
        <time>2021-08-08T13:21:01Z</time>
      </trkpt>
      <trkpt lat="48.11302" lon="-2.90763">
        <ele>105.6</ele>
        <time>2021-08-08T13:21:02Z</time>
      </trkpt>
      <trkpt lat="48.113" lon="-2.90769">
        <ele>105.6</ele>
        <time>2021-08-08T13:21:03Z</time>
      </trkpt>
      <trkpt lat="48.11298" lon="-2.90774">
        <ele>105.6</ele>
        <time>2021-08-08T13:21:04Z</time>
      </trkpt>
      <trkpt lat="48.11296" lon="-2.9078">
        <ele>105.6</ele>
        <time>2021-08-08T13:21:05Z</time>
      </trkpt>
      <trkpt lat="48.11294" lon="-2.90785">
        <ele>105.6</ele>
        <time>2021-08-08T13:21:06Z</time>
      </trkpt>
      <trkpt lat="48.11291" lon="-2.90791">
        <ele>105.6</ele>
        <time>2021-08-08T13:21:07Z</time>
      </trkpt>
      <trkpt lat="48.11289" lon="-2.90798">
        <ele>105.6</ele>
        <time>2021-08-08T13:21:08Z</time>
      </trkpt>
      <trkpt lat="48.11286" lon="-2.90805">
        <ele>105.6</ele>
        <time>2021-08-08T13:21:09Z</time>
      </trkpt>
      <trkpt lat="48.11283" lon="-2.90812">
        <ele>105.6</ele>
        <time>2021-08-08T13:21:10Z</time>
      </trkpt>
      <trkpt lat="48.1128" lon="-2.9082">
        <ele>105.6</ele>
        <time>2021-08-08T13:21:11Z</time>
      </trkpt>
      <trkpt lat="48.11277" lon="-2.90827">
        <ele>105.4</ele>
        <time>2021-08-08T13:21:12Z</time>
      </trkpt>
      <trkpt lat="48.11275" lon="-2.90834">
        <ele>104.8</ele>
        <time>2021-08-08T13:21:13Z</time>
      </trkpt>
      <trkpt lat="48.11272" lon="-2.90841">
        <ele>104.6</ele>
        <time>2021-08-08T13:21:14Z</time>
      </trkpt>
      <trkpt lat="48.11269" lon="-2.90848">
        <ele>104.2</ele>
        <time>2021-08-08T13:21:15Z</time>
      </trkpt>
      <trkpt lat="48.11267" lon="-2.90855">
        <ele>104</ele>
        <time>2021-08-08T13:21:16Z</time>
      </trkpt>
      <trkpt lat="48.11264" lon="-2.90861">
        <ele>103.8</ele>
        <time>2021-08-08T13:21:17Z</time>
      </trkpt>
      <trkpt lat="48.11262" lon="-2.90868">
        <ele>103.8</ele>
        <time>2021-08-08T13:21:18Z</time>
      </trkpt>
      <trkpt lat="48.1126" lon="-2.90875">
        <ele>103.6</ele>
        <time>2021-08-08T13:21:19Z</time>
      </trkpt>
      <trkpt lat="48.11257" lon="-2.90882">
        <ele>103.6</ele>
        <time>2021-08-08T13:21:20Z</time>
      </trkpt>
      <trkpt lat="48.11254" lon="-2.90889">
        <ele>103.6</ele>
        <time>2021-08-08T13:21:21Z</time>
      </trkpt>
      <trkpt lat="48.11252" lon="-2.90895">
        <ele>103.6</ele>
        <time>2021-08-08T13:21:22Z</time>
      </trkpt>
      <trkpt lat="48.1125" lon="-2.90903">
        <ele>103.6</ele>
        <time>2021-08-08T13:21:23Z</time>
      </trkpt>
      <trkpt lat="48.11249" lon="-2.90909">
        <ele>103.6</ele>
        <time>2021-08-08T13:21:24Z</time>
      </trkpt>
      <trkpt lat="48.11247" lon="-2.90917">
        <ele>103.6</ele>
        <time>2021-08-08T13:21:25Z</time>
      </trkpt>
      <trkpt lat="48.11245" lon="-2.90924">
        <ele>103.6</ele>
        <time>2021-08-08T13:21:26Z</time>
      </trkpt>
      <trkpt lat="48.11244" lon="-2.90932">
        <ele>103.6</ele>
        <time>2021-08-08T13:21:27Z</time>
      </trkpt>
      <trkpt lat="48.11243" lon="-2.9094">
        <ele>103.6</ele>
        <time>2021-08-08T13:21:28Z</time>
      </trkpt>
      <trkpt lat="48.11243" lon="-2.90948">
        <ele>103.8</ele>
        <time>2021-08-08T13:21:29Z</time>
      </trkpt>
      <trkpt lat="48.11242" lon="-2.90956">
        <ele>103.8</ele>
        <time>2021-08-08T13:21:30Z</time>
      </trkpt>
      <trkpt lat="48.11242" lon="-2.90964">
        <ele>103.8</ele>
        <time>2021-08-08T13:21:31Z</time>
      </trkpt>
      <trkpt lat="48.11242" lon="-2.90972">
        <ele>104</ele>
        <time>2021-08-08T13:21:32Z</time>
      </trkpt>
      <trkpt lat="48.11241" lon="-2.9098">
        <ele>104</ele>
        <time>2021-08-08T13:21:33Z</time>
      </trkpt>
      <trkpt lat="48.11242" lon="-2.90988">
        <ele>104</ele>
        <time>2021-08-08T13:21:34Z</time>
      </trkpt>
      <trkpt lat="48.11242" lon="-2.90995">
        <ele>103.8</ele>
        <time>2021-08-08T13:21:35Z</time>
      </trkpt>
      <trkpt lat="48.11242" lon="-2.91003">
        <ele>103.8</ele>
        <time>2021-08-08T13:21:36Z</time>
      </trkpt>
      <trkpt lat="48.11242" lon="-2.9101">
        <ele>103.8</ele>
        <time>2021-08-08T13:21:37Z</time>
      </trkpt>
      <trkpt lat="48.11242" lon="-2.91017">
        <ele>103.8</ele>
        <time>2021-08-08T13:21:38Z</time>
      </trkpt>
      <trkpt lat="48.11242" lon="-2.91024">
        <ele>104</ele>
        <time>2021-08-08T13:21:39Z</time>
      </trkpt>
      <trkpt lat="48.11242" lon="-2.91032">
        <ele>104</ele>
        <time>2021-08-08T13:21:40Z</time>
      </trkpt>
      <trkpt lat="48.11242" lon="-2.91039">
        <ele>104</ele>
        <time>2021-08-08T13:21:41Z</time>
      </trkpt>
      <trkpt lat="48.11242" lon="-2.91046">
        <ele>104</ele>
        <time>2021-08-08T13:21:42Z</time>
      </trkpt>
      <trkpt lat="48.11243" lon="-2.91053">
        <ele>104</ele>
        <time>2021-08-08T13:21:43Z</time>
      </trkpt>
      <trkpt lat="48.11243" lon="-2.9106">
        <ele>104</ele>
        <time>2021-08-08T13:21:44Z</time>
      </trkpt>
      <trkpt lat="48.11243" lon="-2.91066">
        <ele>104</ele>
        <time>2021-08-08T13:21:45Z</time>
      </trkpt>
      <trkpt lat="48.11243" lon="-2.91074">
        <ele>104</ele>
        <time>2021-08-08T13:21:46Z</time>
      </trkpt>
      <trkpt lat="48.11242" lon="-2.91081">
        <ele>104</ele>
        <time>2021-08-08T13:21:47Z</time>
      </trkpt>
      <trkpt lat="48.11241" lon="-2.91089">
        <ele>104</ele>
        <time>2021-08-08T13:21:48Z</time>
      </trkpt>
      <trkpt lat="48.1124" lon="-2.91096">
        <ele>104</ele>
        <time>2021-08-08T13:21:49Z</time>
      </trkpt>
      <trkpt lat="48.11238" lon="-2.91104">
        <ele>104</ele>
        <time>2021-08-08T13:21:50Z</time>
      </trkpt>
      <trkpt lat="48.11236" lon="-2.91112">
        <ele>104</ele>
        <time>2021-08-08T13:21:51Z</time>
      </trkpt>
      <trkpt lat="48.11234" lon="-2.91119">
        <ele>104</ele>
        <time>2021-08-08T13:21:52Z</time>
      </trkpt>
      <trkpt lat="48.11232" lon="-2.91126">
        <ele>104</ele>
        <time>2021-08-08T13:21:53Z</time>
      </trkpt>
      <trkpt lat="48.1123" lon="-2.91133">
        <ele>104</ele>
        <time>2021-08-08T13:21:54Z</time>
      </trkpt>
      <trkpt lat="48.11226" lon="-2.91141">
        <ele>104</ele>
        <time>2021-08-08T13:21:55Z</time>
      </trkpt>
      <trkpt lat="48.11223" lon="-2.91148">
        <ele>104</ele>
        <time>2021-08-08T13:21:56Z</time>
      </trkpt>
      <trkpt lat="48.11219" lon="-2.91155">
        <ele>104</ele>
        <time>2021-08-08T13:21:57Z</time>
      </trkpt>
      <trkpt lat="48.11215" lon="-2.91161">
        <ele>104</ele>
        <time>2021-08-08T13:21:58Z</time>
      </trkpt>
      <trkpt lat="48.11211" lon="-2.91166">
        <ele>104</ele>
        <time>2021-08-08T13:21:59Z</time>
      </trkpt>
      <trkpt lat="48.11207" lon="-2.91171">
        <ele>104</ele>
        <time>2021-08-08T13:22:00Z</time>
      </trkpt>
      <trkpt lat="48.11203" lon="-2.91175">
        <ele>104</ele>
        <time>2021-08-08T13:22:01Z</time>
      </trkpt>
      <trkpt lat="48.11199" lon="-2.91179">
        <ele>104</ele>
        <time>2021-08-08T13:22:02Z</time>
      </trkpt>
      <trkpt lat="48.11195" lon="-2.91182">
        <ele>104</ele>
        <time>2021-08-08T13:22:03Z</time>
      </trkpt>
      <trkpt lat="48.11191" lon="-2.91185">
        <ele>104</ele>
        <time>2021-08-08T13:22:04Z</time>
      </trkpt>
      <trkpt lat="48.11186" lon="-2.91187">
        <ele>104</ele>
        <time>2021-08-08T13:22:05Z</time>
      </trkpt>
      <trkpt lat="48.11182" lon="-2.9119">
        <ele>104</ele>
        <time>2021-08-08T13:22:06Z</time>
      </trkpt>
      <trkpt lat="48.11177" lon="-2.91191">
        <ele>104</ele>
        <time>2021-08-08T13:22:07Z</time>
      </trkpt>
      <trkpt lat="48.11172" lon="-2.91192">
        <ele>104</ele>
        <time>2021-08-08T13:22:08Z</time>
      </trkpt>
      <trkpt lat="48.11167" lon="-2.91193">
        <ele>103.8</ele>
        <time>2021-08-08T13:22:09Z</time>
      </trkpt>
      <trkpt lat="48.11162" lon="-2.91193">
        <ele>103.8</ele>
        <time>2021-08-08T13:22:10Z</time>
      </trkpt>
      <trkpt lat="48.11158" lon="-2.91192">
        <ele>103.8</ele>
        <time>2021-08-08T13:22:11Z</time>
      </trkpt>
      <trkpt lat="48.11153" lon="-2.91191">
        <ele>104</ele>
        <time>2021-08-08T13:22:12Z</time>
      </trkpt>
      <trkpt lat="48.11149" lon="-2.9119">
        <ele>104</ele>
        <time>2021-08-08T13:22:13Z</time>
      </trkpt>
      <trkpt lat="48.11144" lon="-2.91189">
        <ele>104</ele>
        <time>2021-08-08T13:22:14Z</time>
      </trkpt>
      <trkpt lat="48.1114" lon="-2.91188">
        <ele>104</ele>
        <time>2021-08-08T13:22:15Z</time>
      </trkpt>
      <trkpt lat="48.11135" lon="-2.91186">
        <ele>104</ele>
        <time>2021-08-08T13:22:16Z</time>
      </trkpt>
      <trkpt lat="48.1113" lon="-2.91185">
        <ele>104</ele>
        <time>2021-08-08T13:22:17Z</time>
      </trkpt>
      <trkpt lat="48.11126" lon="-2.91183">
        <ele>104</ele>
        <time>2021-08-08T13:22:18Z</time>
      </trkpt>
      <trkpt lat="48.11122" lon="-2.91181">
        <ele>104</ele>
        <time>2021-08-08T13:22:19Z</time>
      </trkpt>
      <trkpt lat="48.11118" lon="-2.9118">
        <ele>104.2</ele>
        <time>2021-08-08T13:22:20Z</time>
      </trkpt>
      <trkpt lat="48.11114" lon="-2.91178">
        <ele>104.2</ele>
        <time>2021-08-08T13:22:21Z</time>
      </trkpt>
      <trkpt lat="48.11111" lon="-2.91177">
        <ele>104.2</ele>
        <time>2021-08-08T13:22:22Z</time>
      </trkpt>
      <trkpt lat="48.11107" lon="-2.91176">
        <ele>104.4</ele>
        <time>2021-08-08T13:22:23Z</time>
      </trkpt>
      <trkpt lat="48.11105" lon="-2.91175">
        <ele>104.4</ele>
        <time>2021-08-08T13:22:24Z</time>
      </trkpt>
      <trkpt lat="48.11102" lon="-2.91174">
        <ele>104.6</ele>
        <time>2021-08-08T13:22:25Z</time>
      </trkpt>
      <trkpt lat="48.11099" lon="-2.91173">
        <ele>104.6</ele>
        <time>2021-08-08T13:22:26Z</time>
      </trkpt>
      <trkpt lat="48.11096" lon="-2.91173">
        <ele>104.8</ele>
        <time>2021-08-08T13:22:27Z</time>
      </trkpt>
      <trkpt lat="48.11093" lon="-2.91172">
        <ele>104.8</ele>
        <time>2021-08-08T13:22:28Z</time>
      </trkpt>
      <trkpt lat="48.1109" lon="-2.91171">
        <ele>105</ele>
        <time>2021-08-08T13:22:29Z</time>
      </trkpt>
      <trkpt lat="48.11087" lon="-2.9117">
        <ele>105.6</ele>
        <time>2021-08-08T13:22:30Z</time>
      </trkpt>
      <trkpt lat="48.11086" lon="-2.9117">
        <ele>106</ele>
        <time>2021-08-08T13:22:31Z</time>
      </trkpt>
      <trkpt lat="48.11084" lon="-2.91171">
        <ele>106.4</ele>
        <time>2021-08-08T13:22:32Z</time>
      </trkpt>
      <trkpt lat="48.11083" lon="-2.91172">
        <ele>106.6</ele>
        <time>2021-08-08T13:22:33Z</time>
      </trkpt>
      <trkpt lat="48.11082" lon="-2.91171">
        <ele>106.8</ele>
        <time>2021-08-08T13:22:34Z</time>
      </trkpt>
      <trkpt lat="48.11081" lon="-2.91171">
        <ele>107</ele>
        <time>2021-08-08T13:22:35Z</time>
      </trkpt>
      <trkpt lat="48.11079" lon="-2.9117">
        <ele>108.8</ele>
        <time>2021-08-08T13:22:59Z</time>
      </trkpt>
      <trkpt lat="48.11077" lon="-2.9117">
        <ele>108.8</ele>
        <time>2021-08-08T13:23:00Z</time>
      </trkpt>
      <trkpt lat="48.11075" lon="-2.9117">
        <ele>108.8</ele>
        <time>2021-08-08T13:23:01Z</time>
      </trkpt>
      <trkpt lat="48.11073" lon="-2.91169">
        <ele>108.8</ele>
        <time>2021-08-08T13:23:02Z</time>
      </trkpt>
      <trkpt lat="48.1107" lon="-2.91168">
        <ele>108.8</ele>
        <time>2021-08-08T13:23:03Z</time>
      </trkpt>
      <trkpt lat="48.11066" lon="-2.91167">
        <ele>108.8</ele>
        <time>2021-08-08T13:23:04Z</time>
      </trkpt>
      <trkpt lat="48.11062" lon="-2.91165">
        <ele>108.8</ele>
        <time>2021-08-08T13:23:05Z</time>
      </trkpt>
      <trkpt lat="48.11057" lon="-2.91164">
        <ele>108.8</ele>
        <time>2021-08-08T13:23:06Z</time>
      </trkpt>
      <trkpt lat="48.11052" lon="-2.91162">
        <ele>108.8</ele>
        <time>2021-08-08T13:23:07Z</time>
      </trkpt>
      <trkpt lat="48.11046" lon="-2.9116">
        <ele>108.6</ele>
        <time>2021-08-08T13:23:08Z</time>
      </trkpt>
      <trkpt lat="48.11039" lon="-2.91158">
        <ele>108.2</ele>
        <time>2021-08-08T13:23:09Z</time>
      </trkpt>
      <trkpt lat="48.11032" lon="-2.91156">
        <ele>107.4</ele>
        <time>2021-08-08T13:23:10Z</time>
      </trkpt>
      <trkpt lat="48.11024" lon="-2.91153">
        <ele>106.8</ele>
        <time>2021-08-08T13:23:11Z</time>
      </trkpt>
      <trkpt lat="48.11017" lon="-2.9115">
        <ele>106.2</ele>
        <time>2021-08-08T13:23:12Z</time>
      </trkpt>
      <trkpt lat="48.1101" lon="-2.91148">
        <ele>106</ele>
        <time>2021-08-08T13:23:13Z</time>
      </trkpt>
      <trkpt lat="48.11003" lon="-2.91145">
        <ele>105.8</ele>
        <time>2021-08-08T13:23:14Z</time>
      </trkpt>
      <trkpt lat="48.10996" lon="-2.91143">
        <ele>105.6</ele>
        <time>2021-08-08T13:23:15Z</time>
      </trkpt>
      <trkpt lat="48.1099" lon="-2.91141">
        <ele>105.6</ele>
        <time>2021-08-08T13:23:16Z</time>
      </trkpt>
      <trkpt lat="48.10983" lon="-2.9114">
        <ele>105</ele>
        <time>2021-08-08T13:23:17Z</time>
      </trkpt>
      <trkpt lat="48.10976" lon="-2.91139">
        <ele>104.2</ele>
        <time>2021-08-08T13:23:18Z</time>
      </trkpt>
      <trkpt lat="48.1097" lon="-2.91138">
        <ele>103.4</ele>
        <time>2021-08-08T13:23:19Z</time>
      </trkpt>
      <trkpt lat="48.10964" lon="-2.91138">
        <ele>102.8</ele>
        <time>2021-08-08T13:23:20Z</time>
      </trkpt>
      <trkpt lat="48.10957" lon="-2.91138">
        <ele>102.6</ele>
        <time>2021-08-08T13:23:21Z</time>
      </trkpt>
      <trkpt lat="48.1095" lon="-2.91138">
        <ele>102.4</ele>
        <time>2021-08-08T13:23:22Z</time>
      </trkpt>
      <trkpt lat="48.10944" lon="-2.91138">
        <ele>102.2</ele>
        <time>2021-08-08T13:23:23Z</time>
      </trkpt>
      <trkpt lat="48.10938" lon="-2.91138">
        <ele>102.2</ele>
        <time>2021-08-08T13:23:24Z</time>
      </trkpt>
      <trkpt lat="48.10931" lon="-2.91139">
        <ele>102.2</ele>
        <time>2021-08-08T13:23:25Z</time>
      </trkpt>
      <trkpt lat="48.10925" lon="-2.91139">
        <ele>102.2</ele>
        <time>2021-08-08T13:23:26Z</time>
      </trkpt>
      <trkpt lat="48.10918" lon="-2.9114">
        <ele>102.2</ele>
        <time>2021-08-08T13:23:27Z</time>
      </trkpt>
      <trkpt lat="48.10911" lon="-2.9114">
        <ele>102.2</ele>
        <time>2021-08-08T13:23:28Z</time>
      </trkpt>
      <trkpt lat="48.10905" lon="-2.91141">
        <ele>102.2</ele>
        <time>2021-08-08T13:23:29Z</time>
      </trkpt>
      <trkpt lat="48.10898" lon="-2.91141">
        <ele>102.2</ele>
        <time>2021-08-08T13:23:30Z</time>
      </trkpt>
      <trkpt lat="48.10891" lon="-2.91141">
        <ele>102.2</ele>
        <time>2021-08-08T13:23:31Z</time>
      </trkpt>
      <trkpt lat="48.10885" lon="-2.91142">
        <ele>102.2</ele>
        <time>2021-08-08T13:23:32Z</time>
      </trkpt>
      <trkpt lat="48.10879" lon="-2.91142">
        <ele>102.2</ele>
        <time>2021-08-08T13:23:33Z</time>
      </trkpt>
      <trkpt lat="48.10874" lon="-2.91142">
        <ele>102.2</ele>
        <time>2021-08-08T13:23:34Z</time>
      </trkpt>
      <trkpt lat="48.10868" lon="-2.91141">
        <ele>102.2</ele>
        <time>2021-08-08T13:23:35Z</time>
      </trkpt>
      <trkpt lat="48.10863" lon="-2.91141">
        <ele>102.2</ele>
        <time>2021-08-08T13:23:36Z</time>
      </trkpt>
      <trkpt lat="48.10858" lon="-2.91142">
        <ele>102.2</ele>
        <time>2021-08-08T13:23:37Z</time>
      </trkpt>
      <trkpt lat="48.10852" lon="-2.91143">
        <ele>102.4</ele>
        <time>2021-08-08T13:23:38Z</time>
      </trkpt>
      <trkpt lat="48.10845" lon="-2.91144">
        <ele>102.6</ele>
        <time>2021-08-08T13:23:39Z</time>
      </trkpt>
      <trkpt lat="48.10839" lon="-2.91144">
        <ele>102.8</ele>
        <time>2021-08-08T13:23:40Z</time>
      </trkpt>
      <trkpt lat="48.10833" lon="-2.91145">
        <ele>103</ele>
        <time>2021-08-08T13:23:41Z</time>
      </trkpt>
      <trkpt lat="48.10827" lon="-2.91145">
        <ele>103</ele>
        <time>2021-08-08T13:23:42Z</time>
      </trkpt>
      <trkpt lat="48.1082" lon="-2.91146">
        <ele>103</ele>
        <time>2021-08-08T13:23:43Z</time>
      </trkpt>
      <trkpt lat="48.10815" lon="-2.91147">
        <ele>103</ele>
        <time>2021-08-08T13:23:44Z</time>
      </trkpt>
      <trkpt lat="48.10809" lon="-2.91147">
        <ele>103</ele>
        <time>2021-08-08T13:23:45Z</time>
      </trkpt>
      <trkpt lat="48.10803" lon="-2.91147">
        <ele>103.2</ele>
        <time>2021-08-08T13:23:46Z</time>
      </trkpt>
      <trkpt lat="48.10798" lon="-2.91147">
        <ele>103.2</ele>
        <time>2021-08-08T13:23:47Z</time>
      </trkpt>
      <trkpt lat="48.10793" lon="-2.91148">
        <ele>103.2</ele>
        <time>2021-08-08T13:23:48Z</time>
      </trkpt>
      <trkpt lat="48.10788" lon="-2.91148">
        <ele>103.2</ele>
        <time>2021-08-08T13:23:49Z</time>
      </trkpt>
      <trkpt lat="48.10783" lon="-2.91149">
        <ele>103.4</ele>
        <time>2021-08-08T13:23:50Z</time>
      </trkpt>
      <trkpt lat="48.10777" lon="-2.91149">
        <ele>103.4</ele>
        <time>2021-08-08T13:23:51Z</time>
      </trkpt>
      <trkpt lat="48.10771" lon="-2.9115">
        <ele>103.4</ele>
        <time>2021-08-08T13:23:52Z</time>
      </trkpt>
      <trkpt lat="48.10765" lon="-2.91151">
        <ele>103.6</ele>
        <time>2021-08-08T13:23:53Z</time>
      </trkpt>
      <trkpt lat="48.10759" lon="-2.91152">
        <ele>103.6</ele>
        <time>2021-08-08T13:23:54Z</time>
      </trkpt>
      <trkpt lat="48.10753" lon="-2.91153">
        <ele>103.6</ele>
        <time>2021-08-08T13:23:55Z</time>
      </trkpt>
      <trkpt lat="48.10747" lon="-2.91154">
        <ele>103.8</ele>
        <time>2021-08-08T13:23:56Z</time>
      </trkpt>
      <trkpt lat="48.10742" lon="-2.91155">
        <ele>103.8</ele>
        <time>2021-08-08T13:23:57Z</time>
      </trkpt>
      <trkpt lat="48.10737" lon="-2.91155">
        <ele>103.8</ele>
        <time>2021-08-08T13:23:58Z</time>
      </trkpt>
      <trkpt lat="48.10731" lon="-2.91156">
        <ele>103.8</ele>
        <time>2021-08-08T13:23:59Z</time>
      </trkpt>
      <trkpt lat="48.10726" lon="-2.91156">
        <ele>104</ele>
        <time>2021-08-08T13:24:00Z</time>
      </trkpt>
      <trkpt lat="48.10721" lon="-2.91158">
        <ele>104.2</ele>
        <time>2021-08-08T13:24:01Z</time>
      </trkpt>
      <trkpt lat="48.10716" lon="-2.91158">
        <ele>104.2</ele>
        <time>2021-08-08T13:24:02Z</time>
      </trkpt>
      <trkpt lat="48.10711" lon="-2.91159">
        <ele>104.2</ele>
        <time>2021-08-08T13:24:03Z</time>
      </trkpt>
      <trkpt lat="48.10707" lon="-2.9116">
        <ele>104.4</ele>
        <time>2021-08-08T13:24:04Z</time>
      </trkpt>
      <trkpt lat="48.10703" lon="-2.91161">
        <ele>104.4</ele>
        <time>2021-08-08T13:24:05Z</time>
      </trkpt>
      <trkpt lat="48.107" lon="-2.91162">
        <ele>104.4</ele>
        <time>2021-08-08T13:24:06Z</time>
      </trkpt>
      <trkpt lat="48.10696" lon="-2.91163">
        <ele>104.4</ele>
        <time>2021-08-08T13:24:07Z</time>
      </trkpt>
      <trkpt lat="48.10693" lon="-2.91165">
        <ele>104.6</ele>
        <time>2021-08-08T13:24:08Z</time>
      </trkpt>
      <trkpt lat="48.10689" lon="-2.91167">
        <ele>104.6</ele>
        <time>2021-08-08T13:24:09Z</time>
      </trkpt>
      <trkpt lat="48.10685" lon="-2.91169">
        <ele>104.8</ele>
        <time>2021-08-08T13:24:10Z</time>
      </trkpt>
      <trkpt lat="48.10681" lon="-2.91171">
        <ele>104.8</ele>
        <time>2021-08-08T13:24:11Z</time>
      </trkpt>
      <trkpt lat="48.10677" lon="-2.91174">
        <ele>104.8</ele>
        <time>2021-08-08T13:24:12Z</time>
      </trkpt>
      <trkpt lat="48.10673" lon="-2.91176">
        <ele>104.8</ele>
        <time>2021-08-08T13:24:13Z</time>
      </trkpt>
      <trkpt lat="48.1067" lon="-2.91179">
        <ele>105</ele>
        <time>2021-08-08T13:24:14Z</time>
      </trkpt>
      <trkpt lat="48.10666" lon="-2.91181">
        <ele>105</ele>
        <time>2021-08-08T13:24:15Z</time>
      </trkpt>
      <trkpt lat="48.10662" lon="-2.91184">
        <ele>105</ele>
        <time>2021-08-08T13:24:16Z</time>
      </trkpt>
      <trkpt lat="48.10658" lon="-2.91188">
        <ele>105</ele>
        <time>2021-08-08T13:24:17Z</time>
      </trkpt>
      <trkpt lat="48.10655" lon="-2.91191">
        <ele>105</ele>
        <time>2021-08-08T13:24:18Z</time>
      </trkpt>
      <trkpt lat="48.10651" lon="-2.91195">
        <ele>105</ele>
        <time>2021-08-08T13:24:19Z</time>
      </trkpt>
      <trkpt lat="48.10647" lon="-2.91199">
        <ele>105</ele>
        <time>2021-08-08T13:24:20Z</time>
      </trkpt>
      <trkpt lat="48.10643" lon="-2.91203">
        <ele>105</ele>
        <time>2021-08-08T13:24:21Z</time>
      </trkpt>
      <trkpt lat="48.1064" lon="-2.91208">
        <ele>105</ele>
        <time>2021-08-08T13:24:22Z</time>
      </trkpt>
      <trkpt lat="48.10636" lon="-2.91212">
        <ele>105</ele>
        <time>2021-08-08T13:24:23Z</time>
      </trkpt>
      <trkpt lat="48.10632" lon="-2.91217">
        <ele>105</ele>
        <time>2021-08-08T13:24:24Z</time>
      </trkpt>
      <trkpt lat="48.10629" lon="-2.91223">
        <ele>104.8</ele>
        <time>2021-08-08T13:24:25Z</time>
      </trkpt>
      <trkpt lat="48.10625" lon="-2.91228">
        <ele>104.8</ele>
        <time>2021-08-08T13:24:26Z</time>
      </trkpt>
      <trkpt lat="48.10622" lon="-2.91234">
        <ele>104.8</ele>
        <time>2021-08-08T13:24:27Z</time>
      </trkpt>
      <trkpt lat="48.10618" lon="-2.9124">
        <ele>104.8</ele>
        <time>2021-08-08T13:24:28Z</time>
      </trkpt>
      <trkpt lat="48.10615" lon="-2.91246">
        <ele>104.6</ele>
        <time>2021-08-08T13:24:29Z</time>
      </trkpt>
      <trkpt lat="48.10612" lon="-2.91253">
        <ele>104.6</ele>
        <time>2021-08-08T13:24:30Z</time>
      </trkpt>
      <trkpt lat="48.10609" lon="-2.9126">
        <ele>104.4</ele>
        <time>2021-08-08T13:24:31Z</time>
      </trkpt>
      <trkpt lat="48.10606" lon="-2.91266">
        <ele>104.4</ele>
        <time>2021-08-08T13:24:32Z</time>
      </trkpt>
      <trkpt lat="48.10604" lon="-2.91272">
        <ele>104.2</ele>
        <time>2021-08-08T13:24:33Z</time>
      </trkpt>
      <trkpt lat="48.10602" lon="-2.91279">
        <ele>104.2</ele>
        <time>2021-08-08T13:24:34Z</time>
      </trkpt>
      <trkpt lat="48.106" lon="-2.91284">
        <ele>104</ele>
        <time>2021-08-08T13:24:35Z</time>
      </trkpt>
      <trkpt lat="48.10598" lon="-2.91289">
        <ele>104</ele>
        <time>2021-08-08T13:24:36Z</time>
      </trkpt>
      <trkpt lat="48.10597" lon="-2.91294">
        <ele>104</ele>
        <time>2021-08-08T13:24:37Z</time>
      </trkpt>
      <trkpt lat="48.10596" lon="-2.91299">
        <ele>104</ele>
        <time>2021-08-08T13:24:38Z</time>
      </trkpt>
      <trkpt lat="48.10595" lon="-2.91303">
        <ele>104</ele>
        <time>2021-08-08T13:24:39Z</time>
      </trkpt>
      <trkpt lat="48.10594" lon="-2.91307">
        <ele>104</ele>
        <time>2021-08-08T13:24:40Z</time>
      </trkpt>
      <trkpt lat="48.10593" lon="-2.91312">
        <ele>104</ele>
        <time>2021-08-08T13:24:41Z</time>
      </trkpt>
      <trkpt lat="48.10592" lon="-2.91317">
        <ele>104</ele>
        <time>2021-08-08T13:24:42Z</time>
      </trkpt>
      <trkpt lat="48.10591" lon="-2.91323">
        <ele>104</ele>
        <time>2021-08-08T13:24:43Z</time>
      </trkpt>
      <trkpt lat="48.1059" lon="-2.91329">
        <ele>104</ele>
        <time>2021-08-08T13:24:44Z</time>
      </trkpt>
      <trkpt lat="48.10589" lon="-2.91336">
        <ele>104</ele>
        <time>2021-08-08T13:24:45Z</time>
      </trkpt>
      <trkpt lat="48.10589" lon="-2.91342">
        <ele>104</ele>
        <time>2021-08-08T13:24:46Z</time>
      </trkpt>
      <trkpt lat="48.10588" lon="-2.91348">
        <ele>104.2</ele>
        <time>2021-08-08T13:24:47Z</time>
      </trkpt>
      <trkpt lat="48.10588" lon="-2.91355">
        <ele>104.2</ele>
        <time>2021-08-08T13:24:48Z</time>
      </trkpt>
      <trkpt lat="48.10587" lon="-2.91361">
        <ele>104.2</ele>
        <time>2021-08-08T13:24:49Z</time>
      </trkpt>
      <trkpt lat="48.10587" lon="-2.91367">
        <ele>104.2</ele>
        <time>2021-08-08T13:24:50Z</time>
      </trkpt>
      <trkpt lat="48.10587" lon="-2.91374">
        <ele>104.2</ele>
        <time>2021-08-08T13:24:51Z</time>
      </trkpt>
      <trkpt lat="48.10588" lon="-2.91381">
        <ele>104.2</ele>
        <time>2021-08-08T13:24:52Z</time>
      </trkpt>
      <trkpt lat="48.10588" lon="-2.91387">
        <ele>104.2</ele>
        <time>2021-08-08T13:24:53Z</time>
      </trkpt>
      <trkpt lat="48.10588" lon="-2.91393">
        <ele>104.2</ele>
        <time>2021-08-08T13:24:54Z</time>
      </trkpt>
      <trkpt lat="48.10589" lon="-2.914">
        <ele>104.2</ele>
        <time>2021-08-08T13:24:55Z</time>
      </trkpt>
      <trkpt lat="48.1059" lon="-2.91407">
        <ele>104.2</ele>
        <time>2021-08-08T13:24:56Z</time>
      </trkpt>
      <trkpt lat="48.10591" lon="-2.91414">
        <ele>104.2</ele>
        <time>2021-08-08T13:24:57Z</time>
      </trkpt>
      <trkpt lat="48.10592" lon="-2.91421">
        <ele>104.2</ele>
        <time>2021-08-08T13:24:58Z</time>
      </trkpt>
      <trkpt lat="48.10593" lon="-2.91428">
        <ele>104.2</ele>
        <time>2021-08-08T13:24:59Z</time>
      </trkpt>
      <trkpt lat="48.10595" lon="-2.91435">
        <ele>104</ele>
        <time>2021-08-08T13:25:00Z</time>
      </trkpt>
      <trkpt lat="48.10596" lon="-2.91443">
        <ele>104</ele>
        <time>2021-08-08T13:25:01Z</time>
      </trkpt>
      <trkpt lat="48.10597" lon="-2.91451">
        <ele>104</ele>
        <time>2021-08-08T13:25:02Z</time>
      </trkpt>
      <trkpt lat="48.10598" lon="-2.91458">
        <ele>104</ele>
        <time>2021-08-08T13:25:03Z</time>
      </trkpt>
      <trkpt lat="48.106" lon="-2.91465">
        <ele>104</ele>
        <time>2021-08-08T13:25:04Z</time>
      </trkpt>
      <trkpt lat="48.10601" lon="-2.91472">
        <ele>104</ele>
        <time>2021-08-08T13:25:05Z</time>
      </trkpt>
      <trkpt lat="48.10602" lon="-2.91479">
        <ele>104</ele>
        <time>2021-08-08T13:25:06Z</time>
      </trkpt>
      <trkpt lat="48.10604" lon="-2.91487">
        <ele>104</ele>
        <time>2021-08-08T13:25:07Z</time>
      </trkpt>
      <trkpt lat="48.10605" lon="-2.91493">
        <ele>104</ele>
        <time>2021-08-08T13:25:08Z</time>
      </trkpt>
      <trkpt lat="48.10607" lon="-2.915">
        <ele>104</ele>
        <time>2021-08-08T13:25:09Z</time>
      </trkpt>
      <trkpt lat="48.10608" lon="-2.91506">
        <ele>104</ele>
        <time>2021-08-08T13:25:10Z</time>
      </trkpt>
      <trkpt lat="48.1061" lon="-2.91512">
        <ele>104</ele>
        <time>2021-08-08T13:25:11Z</time>
      </trkpt>
      <trkpt lat="48.10612" lon="-2.91518">
        <ele>104</ele>
        <time>2021-08-08T13:25:12Z</time>
      </trkpt>
      <trkpt lat="48.10613" lon="-2.91525">
        <ele>104</ele>
        <time>2021-08-08T13:25:13Z</time>
      </trkpt>
      <trkpt lat="48.10615" lon="-2.91532">
        <ele>104</ele>
        <time>2021-08-08T13:25:14Z</time>
      </trkpt>
      <trkpt lat="48.10616" lon="-2.91539">
        <ele>104.2</ele>
        <time>2021-08-08T13:25:15Z</time>
      </trkpt>
      <trkpt lat="48.10618" lon="-2.91546">
        <ele>104.2</ele>
        <time>2021-08-08T13:25:16Z</time>
      </trkpt>
      <trkpt lat="48.10619" lon="-2.91553">
        <ele>104.2</ele>
        <time>2021-08-08T13:25:17Z</time>
      </trkpt>
      <trkpt lat="48.10621" lon="-2.9156">
        <ele>104.2</ele>
        <time>2021-08-08T13:25:18Z</time>
      </trkpt>
      <trkpt lat="48.10623" lon="-2.91567">
        <ele>104.4</ele>
        <time>2021-08-08T13:25:19Z</time>
      </trkpt>
      <trkpt lat="48.10624" lon="-2.91574">
        <ele>104.4</ele>
        <time>2021-08-08T13:25:20Z</time>
      </trkpt>
      <trkpt lat="48.10625" lon="-2.91581">
        <ele>104.4</ele>
        <time>2021-08-08T13:25:21Z</time>
      </trkpt>
      <trkpt lat="48.10625" lon="-2.91587">
        <ele>104.4</ele>
        <time>2021-08-08T13:25:22Z</time>
      </trkpt>
      <trkpt lat="48.10626" lon="-2.91594">
        <ele>104.6</ele>
        <time>2021-08-08T13:25:23Z</time>
      </trkpt>
      <trkpt lat="48.10626" lon="-2.916">
        <ele>104.6</ele>
        <time>2021-08-08T13:25:24Z</time>
      </trkpt>
      <trkpt lat="48.10626" lon="-2.91607">
        <ele>104.6</ele>
        <time>2021-08-08T13:25:25Z</time>
      </trkpt>
      <trkpt lat="48.10626" lon="-2.91613">
        <ele>104.6</ele>
        <time>2021-08-08T13:25:26Z</time>
      </trkpt>
      <trkpt lat="48.10626" lon="-2.91619">
        <ele>104.6</ele>
        <time>2021-08-08T13:25:27Z</time>
      </trkpt>
      <trkpt lat="48.10626" lon="-2.91625">
        <ele>104.6</ele>
        <time>2021-08-08T13:25:28Z</time>
      </trkpt>
      <trkpt lat="48.10625" lon="-2.9163">
        <ele>104.6</ele>
        <time>2021-08-08T13:25:29Z</time>
      </trkpt>
      <trkpt lat="48.10625" lon="-2.91635">
        <ele>104.6</ele>
        <time>2021-08-08T13:25:30Z</time>
      </trkpt>
      <trkpt lat="48.10625" lon="-2.9164">
        <ele>104.8</ele>
        <time>2021-08-08T13:25:31Z</time>
      </trkpt>
      <trkpt lat="48.10626" lon="-2.91644">
        <ele>104.8</ele>
        <time>2021-08-08T13:25:32Z</time>
      </trkpt>
      <trkpt lat="48.10627" lon="-2.91648">
        <ele>104.8</ele>
        <time>2021-08-08T13:25:33Z</time>
      </trkpt>
      <trkpt lat="48.10628" lon="-2.91653">
        <ele>104.8</ele>
        <time>2021-08-08T13:25:34Z</time>
      </trkpt>
      <trkpt lat="48.10628" lon="-2.91657">
        <ele>104.8</ele>
        <time>2021-08-08T13:25:35Z</time>
      </trkpt>
      <trkpt lat="48.10628" lon="-2.9166">
        <ele>104.8</ele>
        <time>2021-08-08T13:25:36Z</time>
      </trkpt>
      <trkpt lat="48.10628" lon="-2.91663">
        <ele>104.8</ele>
        <time>2021-08-08T13:25:37Z</time>
      </trkpt>
      <trkpt lat="48.10628" lon="-2.91665">
        <ele>104.8</ele>
        <time>2021-08-08T13:25:38Z</time>
      </trkpt>
      <trkpt lat="48.10628" lon="-2.91666">
        <ele>105</ele>
        <time>2021-08-08T13:25:40Z</time>
      </trkpt>
      <trkpt lat="48.10628" lon="-2.91666">
        <ele>105</ele>
        <time>2021-08-08T13:25:41Z</time>
      </trkpt>
      <trkpt lat="48.1063" lon="-2.91674">
        <ele>105.8</ele>
        <time>2021-08-08T13:26:29Z</time>
      </trkpt>
      <trkpt lat="48.1063" lon="-2.91675">
        <ele>105.8</ele>
        <time>2021-08-08T13:26:30Z</time>
      </trkpt>
      <trkpt lat="48.1063" lon="-2.91675">
        <ele>105.8</ele>
        <time>2021-08-08T13:26:31Z</time>
      </trkpt>
      <trkpt lat="48.10637" lon="-2.9169">
        <ele>105.4</ele>
        <time>2021-08-08T13:31:18Z</time>
      </trkpt>
      <trkpt lat="48.10636" lon="-2.91692">
        <ele>105.4</ele>
        <time>2021-08-08T13:31:19Z</time>
      </trkpt>
      <trkpt lat="48.10635" lon="-2.91694">
        <ele>105.4</ele>
        <time>2021-08-08T13:31:20Z</time>
      </trkpt>
      <trkpt lat="48.10634" lon="-2.91695">
        <ele>105.4</ele>
        <time>2021-08-08T13:31:21Z</time>
      </trkpt>
      <trkpt lat="48.10634" lon="-2.91697">
        <ele>105.4</ele>
        <time>2021-08-08T13:31:22Z</time>
      </trkpt>
      <trkpt lat="48.10634" lon="-2.91699">
        <ele>105.2</ele>
        <time>2021-08-08T13:31:23Z</time>
      </trkpt>
      <trkpt lat="48.10634" lon="-2.91701">
        <ele>105.2</ele>
        <time>2021-08-08T13:31:24Z</time>
      </trkpt>
      <trkpt lat="48.10634" lon="-2.91703">
        <ele>105.2</ele>
        <time>2021-08-08T13:31:25Z</time>
      </trkpt>
      <trkpt lat="48.10634" lon="-2.91705">
        <ele>105.2</ele>
        <time>2021-08-08T13:31:26Z</time>
      </trkpt>
      <trkpt lat="48.10634" lon="-2.91708">
        <ele>105.2</ele>
        <time>2021-08-08T13:31:27Z</time>
      </trkpt>
      <trkpt lat="48.10634" lon="-2.91711">
        <ele>105.2</ele>
        <time>2021-08-08T13:31:28Z</time>
      </trkpt>
      <trkpt lat="48.10634" lon="-2.91715">
        <ele>105.2</ele>
        <time>2021-08-08T13:31:29Z</time>
      </trkpt>
      <trkpt lat="48.10633" lon="-2.91719">
        <ele>105</ele>
        <time>2021-08-08T13:31:30Z</time>
      </trkpt>
      <trkpt lat="48.10632" lon="-2.91723">
        <ele>105</ele>
        <time>2021-08-08T13:31:31Z</time>
      </trkpt>
      <trkpt lat="48.10632" lon="-2.91727">
        <ele>105</ele>
        <time>2021-08-08T13:31:32Z</time>
      </trkpt>
      <trkpt lat="48.10631" lon="-2.91731">
        <ele>105</ele>
        <time>2021-08-08T13:31:33Z</time>
      </trkpt>
      <trkpt lat="48.10631" lon="-2.91736">
        <ele>105</ele>
        <time>2021-08-08T13:31:34Z</time>
      </trkpt>
      <trkpt lat="48.1063" lon="-2.9174">
        <ele>105</ele>
        <time>2021-08-08T13:31:35Z</time>
      </trkpt>
      <trkpt lat="48.10629" lon="-2.91746">
        <ele>105</ele>
        <time>2021-08-08T13:31:36Z</time>
      </trkpt>
      <trkpt lat="48.10628" lon="-2.91752">
        <ele>104.8</ele>
        <time>2021-08-08T13:31:37Z</time>
      </trkpt>
      <trkpt lat="48.10627" lon="-2.91757">
        <ele>104.8</ele>
        <time>2021-08-08T13:31:38Z</time>
      </trkpt>
      <trkpt lat="48.10626" lon="-2.91762">
        <ele>104.8</ele>
        <time>2021-08-08T13:31:39Z</time>
      </trkpt>
      <trkpt lat="48.10625" lon="-2.91767">
        <ele>104.8</ele>
        <time>2021-08-08T13:31:40Z</time>
      </trkpt>
      <trkpt lat="48.10624" lon="-2.91773">
        <ele>104.6</ele>
        <time>2021-08-08T13:31:41Z</time>
      </trkpt>
      <trkpt lat="48.10624" lon="-2.91779">
        <ele>104.6</ele>
        <time>2021-08-08T13:31:42Z</time>
      </trkpt>
      <trkpt lat="48.10624" lon="-2.91785">
        <ele>104.6</ele>
        <time>2021-08-08T13:31:43Z</time>
      </trkpt>
      <trkpt lat="48.10623" lon="-2.91791">
        <ele>104.6</ele>
        <time>2021-08-08T13:31:44Z</time>
      </trkpt>
      <trkpt lat="48.10623" lon="-2.91797">
        <ele>104.4</ele>
        <time>2021-08-08T13:31:45Z</time>
      </trkpt>
      <trkpt lat="48.10622" lon="-2.91803">
        <ele>104.4</ele>
        <time>2021-08-08T13:31:46Z</time>
      </trkpt>
      <trkpt lat="48.10621" lon="-2.91809">
        <ele>104.4</ele>
        <time>2021-08-08T13:31:47Z</time>
      </trkpt>
      <trkpt lat="48.1062" lon="-2.91815">
        <ele>104.4</ele>
        <time>2021-08-08T13:31:48Z</time>
      </trkpt>
      <trkpt lat="48.10619" lon="-2.91821">
        <ele>104.4</ele>
        <time>2021-08-08T13:31:49Z</time>
      </trkpt>
      <trkpt lat="48.10618" lon="-2.91827">
        <ele>104.4</ele>
        <time>2021-08-08T13:31:50Z</time>
      </trkpt>
      <trkpt lat="48.10617" lon="-2.91833">
        <ele>104.4</ele>
        <time>2021-08-08T13:31:51Z</time>
      </trkpt>
      <trkpt lat="48.10616" lon="-2.91839">
        <ele>104</ele>
        <time>2021-08-08T13:31:52Z</time>
      </trkpt>
      <trkpt lat="48.10616" lon="-2.91846">
        <ele>104</ele>
        <time>2021-08-08T13:31:53Z</time>
      </trkpt>
      <trkpt lat="48.10616" lon="-2.91852">
        <ele>104</ele>
        <time>2021-08-08T13:31:54Z</time>
      </trkpt>
      <trkpt lat="48.10616" lon="-2.91859">
        <ele>104</ele>
        <time>2021-08-08T13:31:55Z</time>
      </trkpt>
      <trkpt lat="48.10616" lon="-2.91866">
        <ele>104</ele>
        <time>2021-08-08T13:31:56Z</time>
      </trkpt>
      <trkpt lat="48.10616" lon="-2.91872">
        <ele>104</ele>
        <time>2021-08-08T13:31:57Z</time>
      </trkpt>
      <trkpt lat="48.10616" lon="-2.91879">
        <ele>104</ele>
        <time>2021-08-08T13:31:58Z</time>
      </trkpt>
      <trkpt lat="48.10616" lon="-2.91885">
        <ele>104</ele>
        <time>2021-08-08T13:31:59Z</time>
      </trkpt>
      <trkpt lat="48.10617" lon="-2.91892">
        <ele>104</ele>
        <time>2021-08-08T13:32:00Z</time>
      </trkpt>
      <trkpt lat="48.10617" lon="-2.91899">
        <ele>104</ele>
        <time>2021-08-08T13:32:01Z</time>
      </trkpt>
      <trkpt lat="48.10617" lon="-2.91906">
        <ele>104</ele>
        <time>2021-08-08T13:32:02Z</time>
      </trkpt>
      <trkpt lat="48.10617" lon="-2.91913">
        <ele>104.2</ele>
        <time>2021-08-08T13:32:03Z</time>
      </trkpt>
      <trkpt lat="48.10617" lon="-2.9192">
        <ele>104.2</ele>
        <time>2021-08-08T13:32:04Z</time>
      </trkpt>
      <trkpt lat="48.10617" lon="-2.91927">
        <ele>104.2</ele>
        <time>2021-08-08T13:32:05Z</time>
      </trkpt>
      <trkpt lat="48.10616" lon="-2.91933">
        <ele>104.2</ele>
        <time>2021-08-08T13:32:06Z</time>
      </trkpt>
      <trkpt lat="48.10616" lon="-2.9194">
        <ele>104.2</ele>
        <time>2021-08-08T13:32:07Z</time>
      </trkpt>
      <trkpt lat="48.10616" lon="-2.91947">
        <ele>104</ele>
        <time>2021-08-08T13:32:08Z</time>
      </trkpt>
      <trkpt lat="48.10616" lon="-2.91954">
        <ele>104</ele>
        <time>2021-08-08T13:32:09Z</time>
      </trkpt>
      <trkpt lat="48.10615" lon="-2.91961">
        <ele>104.2</ele>
        <time>2021-08-08T13:32:10Z</time>
      </trkpt>
      <trkpt lat="48.10615" lon="-2.91968">
        <ele>104.2</ele>
        <time>2021-08-08T13:32:11Z</time>
      </trkpt>
      <trkpt lat="48.10615" lon="-2.91974">
        <ele>104.2</ele>
        <time>2021-08-08T13:32:12Z</time>
      </trkpt>
      <trkpt lat="48.10614" lon="-2.91981">
        <ele>104.2</ele>
        <time>2021-08-08T13:32:13Z</time>
      </trkpt>
      <trkpt lat="48.10614" lon="-2.91987">
        <ele>104.4</ele>
        <time>2021-08-08T13:32:14Z</time>
      </trkpt>
      <trkpt lat="48.10614" lon="-2.91994">
        <ele>104.6</ele>
        <time>2021-08-08T13:32:15Z</time>
      </trkpt>
      <trkpt lat="48.10613" lon="-2.92001">
        <ele>104.4</ele>
        <time>2021-08-08T13:32:16Z</time>
      </trkpt>
      <trkpt lat="48.1061" lon="-2.92006">
        <ele>104.4</ele>
        <time>2021-08-08T13:32:17Z</time>
      </trkpt>
      <trkpt lat="48.1061" lon="-2.92012">
        <ele>104.4</ele>
        <time>2021-08-08T13:32:18Z</time>
      </trkpt>
      <trkpt lat="48.10611" lon="-2.92019">
        <ele>104.4</ele>
        <time>2021-08-08T13:32:19Z</time>
      </trkpt>
      <trkpt lat="48.1061" lon="-2.92025">
        <ele>104.4</ele>
        <time>2021-08-08T13:32:20Z</time>
      </trkpt>
      <trkpt lat="48.10609" lon="-2.92032">
        <ele>104.4</ele>
        <time>2021-08-08T13:32:21Z</time>
      </trkpt>
      <trkpt lat="48.10608" lon="-2.92039">
        <ele>104.4</ele>
        <time>2021-08-08T13:32:22Z</time>
      </trkpt>
      <trkpt lat="48.10608" lon="-2.92045">
        <ele>104.6</ele>
        <time>2021-08-08T13:32:23Z</time>
      </trkpt>
      <trkpt lat="48.10607" lon="-2.92052">
        <ele>104.6</ele>
        <time>2021-08-08T13:32:24Z</time>
      </trkpt>
      <trkpt lat="48.10607" lon="-2.92059">
        <ele>104.6</ele>
        <time>2021-08-08T13:32:25Z</time>
      </trkpt>
      <trkpt lat="48.10607" lon="-2.92067">
        <ele>104.6</ele>
        <time>2021-08-08T13:32:26Z</time>
      </trkpt>
      <trkpt lat="48.10609" lon="-2.92074">
        <ele>104.6</ele>
        <time>2021-08-08T13:32:27Z</time>
      </trkpt>
      <trkpt lat="48.10612" lon="-2.92081">
        <ele>104.6</ele>
        <time>2021-08-08T13:32:28Z</time>
      </trkpt>
      <trkpt lat="48.10614" lon="-2.92087">
        <ele>104.6</ele>
        <time>2021-08-08T13:32:29Z</time>
      </trkpt>
      <trkpt lat="48.10615" lon="-2.92093">
        <ele>104.6</ele>
        <time>2021-08-08T13:32:30Z</time>
      </trkpt>
      <trkpt lat="48.10616" lon="-2.92099">
        <ele>104.6</ele>
        <time>2021-08-08T13:32:31Z</time>
      </trkpt>
      <trkpt lat="48.10619" lon="-2.92106">
        <ele>104.6</ele>
        <time>2021-08-08T13:32:32Z</time>
      </trkpt>
      <trkpt lat="48.10619" lon="-2.92113">
        <ele>104.6</ele>
        <time>2021-08-08T13:32:33Z</time>
      </trkpt>
      <trkpt lat="48.10619" lon="-2.9212">
        <ele>104.6</ele>
        <time>2021-08-08T13:32:34Z</time>
      </trkpt>
      <trkpt lat="48.1062" lon="-2.92127">
        <ele>104.6</ele>
        <time>2021-08-08T13:32:35Z</time>
      </trkpt>
      <trkpt lat="48.1062" lon="-2.92135">
        <ele>104.6</ele>
        <time>2021-08-08T13:32:36Z</time>
      </trkpt>
      <trkpt lat="48.1062" lon="-2.92142">
        <ele>104.6</ele>
        <time>2021-08-08T13:32:37Z</time>
      </trkpt>
      <trkpt lat="48.1062" lon="-2.92149">
        <ele>104.6</ele>
        <time>2021-08-08T13:32:38Z</time>
      </trkpt>
      <trkpt lat="48.1062" lon="-2.92157">
        <ele>104.6</ele>
        <time>2021-08-08T13:32:39Z</time>
      </trkpt>
      <trkpt lat="48.1062" lon="-2.92164">
        <ele>104.6</ele>
        <time>2021-08-08T13:32:40Z</time>
      </trkpt>
      <trkpt lat="48.10619" lon="-2.92171">
        <ele>104.6</ele>
        <time>2021-08-08T13:32:41Z</time>
      </trkpt>
      <trkpt lat="48.10619" lon="-2.92178">
        <ele>104.6</ele>
        <time>2021-08-08T13:32:42Z</time>
      </trkpt>
      <trkpt lat="48.10618" lon="-2.92185">
        <ele>104.6</ele>
        <time>2021-08-08T13:32:43Z</time>
      </trkpt>
      <trkpt lat="48.10618" lon="-2.92192">
        <ele>104.6</ele>
        <time>2021-08-08T13:32:44Z</time>
      </trkpt>
      <trkpt lat="48.10617" lon="-2.92198">
        <ele>104.6</ele>
        <time>2021-08-08T13:32:45Z</time>
      </trkpt>
      <trkpt lat="48.10617" lon="-2.92205">
        <ele>104.6</ele>
        <time>2021-08-08T13:32:46Z</time>
      </trkpt>
      <trkpt lat="48.10617" lon="-2.9221">
        <ele>104.6</ele>
        <time>2021-08-08T13:32:47Z</time>
      </trkpt>
      <trkpt lat="48.10617" lon="-2.92215">
        <ele>104.6</ele>
        <time>2021-08-08T13:32:48Z</time>
      </trkpt>
      <trkpt lat="48.10617" lon="-2.92219">
        <ele>104.6</ele>
        <time>2021-08-08T13:32:49Z</time>
      </trkpt>
      <trkpt lat="48.10618" lon="-2.92223">
        <ele>104.6</ele>
        <time>2021-08-08T13:32:50Z</time>
      </trkpt>
      <trkpt lat="48.10618" lon="-2.92225">
        <ele>104.6</ele>
        <time>2021-08-08T13:32:51Z</time>
      </trkpt>
      <trkpt lat="48.10619" lon="-2.92226">
        <ele>104.8</ele>
        <time>2021-08-08T13:32:52Z</time>
      </trkpt>
      <trkpt lat="48.10619" lon="-2.92227">
        <ele>104.8</ele>
        <time>2021-08-08T13:32:53Z</time>
      </trkpt>
      <trkpt lat="48.10619" lon="-2.92229">
        <ele>105.8</ele>
        <time>2021-08-08T13:33:08Z</time>
      </trkpt>
      <trkpt lat="48.10619" lon="-2.9223">
        <ele>105.8</ele>
        <time>2021-08-08T13:33:09Z</time>
      </trkpt>
      <trkpt lat="48.10618" lon="-2.92231">
        <ele>105.8</ele>
        <time>2021-08-08T13:33:10Z</time>
      </trkpt>
      <trkpt lat="48.10618" lon="-2.92232">
        <ele>105.8</ele>
        <time>2021-08-08T13:33:11Z</time>
      </trkpt>
      <trkpt lat="48.10619" lon="-2.92234">
        <ele>105.8</ele>
        <time>2021-08-08T13:33:12Z</time>
      </trkpt>
      <trkpt lat="48.10619" lon="-2.92235">
        <ele>105.6</ele>
        <time>2021-08-08T13:33:13Z</time>
      </trkpt>
      <trkpt lat="48.10619" lon="-2.92237">
        <ele>105.6</ele>
        <time>2021-08-08T13:33:14Z</time>
      </trkpt>
      <trkpt lat="48.10619" lon="-2.92238">
        <ele>105.6</ele>
        <time>2021-08-08T13:33:15Z</time>
      </trkpt>
      <trkpt lat="48.10619" lon="-2.92239">
        <ele>105.6</ele>
        <time>2021-08-08T13:33:16Z</time>
      </trkpt>
      <trkpt lat="48.10619" lon="-2.92241">
        <ele>105.6</ele>
        <time>2021-08-08T13:33:18Z</time>
      </trkpt>
      <trkpt lat="48.10619" lon="-2.92243">
        <ele>105.6</ele>
        <time>2021-08-08T13:33:19Z</time>
      </trkpt>
      <trkpt lat="48.1062" lon="-2.92244">
        <ele>105.6</ele>
        <time>2021-08-08T13:33:20Z</time>
      </trkpt>
      <trkpt lat="48.1062" lon="-2.92246">
        <ele>105.6</ele>
        <time>2021-08-08T13:33:21Z</time>
      </trkpt>
      <trkpt lat="48.10619" lon="-2.92248">
        <ele>105.6</ele>
        <time>2021-08-08T13:33:22Z</time>
      </trkpt>
      <trkpt lat="48.10619" lon="-2.9225">
        <ele>105.6</ele>
        <time>2021-08-08T13:33:23Z</time>
      </trkpt>
      <trkpt lat="48.10619" lon="-2.92252">
        <ele>105.6</ele>
        <time>2021-08-08T13:33:24Z</time>
      </trkpt>
      <trkpt lat="48.10619" lon="-2.92257">
        <ele>105.6</ele>
        <time>2021-08-08T13:33:25Z</time>
      </trkpt>
      <trkpt lat="48.1062" lon="-2.9226">
        <ele>105.4</ele>
        <time>2021-08-08T13:33:26Z</time>
      </trkpt>
      <trkpt lat="48.1062" lon="-2.92264">
        <ele>105.4</ele>
        <time>2021-08-08T13:33:27Z</time>
      </trkpt>
      <trkpt lat="48.10619" lon="-2.92267">
        <ele>105.4</ele>
        <time>2021-08-08T13:33:28Z</time>
      </trkpt>
      <trkpt lat="48.10619" lon="-2.92272">
        <ele>105.4</ele>
        <time>2021-08-08T13:33:29Z</time>
      </trkpt>
      <trkpt lat="48.10618" lon="-2.92276">
        <ele>105.4</ele>
        <time>2021-08-08T13:33:30Z</time>
      </trkpt>
      <trkpt lat="48.10617" lon="-2.9228">
        <ele>105.4</ele>
        <time>2021-08-08T13:33:31Z</time>
      </trkpt>
      <trkpt lat="48.10617" lon="-2.92284">
        <ele>105.2</ele>
        <time>2021-08-08T13:33:32Z</time>
      </trkpt>
      <trkpt lat="48.10617" lon="-2.92288">
        <ele>105.2</ele>
        <time>2021-08-08T13:33:33Z</time>
      </trkpt>
      <trkpt lat="48.10616" lon="-2.92292">
        <ele>105.2</ele>
        <time>2021-08-08T13:33:34Z</time>
      </trkpt>
      <trkpt lat="48.10615" lon="-2.92296">
        <ele>105.2</ele>
        <time>2021-08-08T13:33:35Z</time>
      </trkpt>
      <trkpt lat="48.10615" lon="-2.92298">
        <ele>105.2</ele>
        <time>2021-08-08T13:33:36Z</time>
      </trkpt>
      <trkpt lat="48.10614" lon="-2.92301">
        <ele>105.2</ele>
        <time>2021-08-08T13:33:37Z</time>
      </trkpt>
      <trkpt lat="48.10614" lon="-2.92303">
        <ele>105.2</ele>
        <time>2021-08-08T13:33:38Z</time>
      </trkpt>
      <trkpt lat="48.10614" lon="-2.92303">
        <ele>105.2</ele>
        <time>2021-08-08T13:33:39Z</time>
      </trkpt>
      <trkpt lat="48.10614" lon="-2.92304">
        <ele>105.2</ele>
        <time>2021-08-08T13:33:40Z</time>
      </trkpt>
      <trkpt lat="48.10613" lon="-2.92315">
        <ele>105.6</ele>
        <time>2021-08-08T13:34:22Z</time>
      </trkpt>
      <trkpt lat="48.10613" lon="-2.92316">
        <ele>105.6</ele>
        <time>2021-08-08T13:34:23Z</time>
      </trkpt>
      <trkpt lat="48.10613" lon="-2.92319">
        <ele>105.6</ele>
        <time>2021-08-08T13:34:24Z</time>
      </trkpt>
      <trkpt lat="48.10613" lon="-2.92321">
        <ele>105.6</ele>
        <time>2021-08-08T13:34:25Z</time>
      </trkpt>
      <trkpt lat="48.10613" lon="-2.92323">
        <ele>105.6</ele>
        <time>2021-08-08T13:34:26Z</time>
      </trkpt>
      <trkpt lat="48.10613" lon="-2.92325">
        <ele>105.6</ele>
        <time>2021-08-08T13:34:27Z</time>
      </trkpt>
      <trkpt lat="48.10612" lon="-2.92328">
        <ele>105.6</ele>
        <time>2021-08-08T13:34:28Z</time>
      </trkpt>
      <trkpt lat="48.10612" lon="-2.92333">
        <ele>105.4</ele>
        <time>2021-08-08T13:34:29Z</time>
      </trkpt>
      <trkpt lat="48.10611" lon="-2.92339">
        <ele>105.4</ele>
        <time>2021-08-08T13:34:30Z</time>
      </trkpt>
      <trkpt lat="48.10611" lon="-2.92346">
        <ele>105.4</ele>
        <time>2021-08-08T13:34:31Z</time>
      </trkpt>
      <trkpt lat="48.1061" lon="-2.92352">
        <ele>105.4</ele>
        <time>2021-08-08T13:34:32Z</time>
      </trkpt>
      <trkpt lat="48.10609" lon="-2.92358">
        <ele>105.2</ele>
        <time>2021-08-08T13:34:33Z</time>
      </trkpt>
      <trkpt lat="48.10608" lon="-2.92362">
        <ele>105.2</ele>
        <time>2021-08-08T13:34:34Z</time>
      </trkpt>
      <trkpt lat="48.10607" lon="-2.92368">
        <ele>105</ele>
        <time>2021-08-08T13:34:35Z</time>
      </trkpt>
      <trkpt lat="48.10607" lon="-2.92373">
        <ele>104.8</ele>
        <time>2021-08-08T13:34:36Z</time>
      </trkpt>
      <trkpt lat="48.10606" lon="-2.92378">
        <ele>104.8</ele>
        <time>2021-08-08T13:34:37Z</time>
      </trkpt>
      <trkpt lat="48.10604" lon="-2.92384">
        <ele>104.8</ele>
        <time>2021-08-08T13:34:38Z</time>
      </trkpt>
      <trkpt lat="48.10603" lon="-2.92389">
        <ele>104.8</ele>
        <time>2021-08-08T13:34:39Z</time>
      </trkpt>
      <trkpt lat="48.10602" lon="-2.92395">
        <ele>104.8</ele>
        <time>2021-08-08T13:34:40Z</time>
      </trkpt>
      <trkpt lat="48.10601" lon="-2.92401">
        <ele>104.6</ele>
        <time>2021-08-08T13:34:41Z</time>
      </trkpt>
      <trkpt lat="48.106" lon="-2.92408">
        <ele>104.6</ele>
        <time>2021-08-08T13:34:42Z</time>
      </trkpt>
      <trkpt lat="48.10599" lon="-2.92415">
        <ele>104.6</ele>
        <time>2021-08-08T13:34:43Z</time>
      </trkpt>
      <trkpt lat="48.10598" lon="-2.92423">
        <ele>104.6</ele>
        <time>2021-08-08T13:34:44Z</time>
      </trkpt>
      <trkpt lat="48.10596" lon="-2.92431">
        <ele>104.4</ele>
        <time>2021-08-08T13:34:45Z</time>
      </trkpt>
      <trkpt lat="48.10595" lon="-2.92439">
        <ele>104.4</ele>
        <time>2021-08-08T13:34:46Z</time>
      </trkpt>
      <trkpt lat="48.10594" lon="-2.92447">
        <ele>104.4</ele>
        <time>2021-08-08T13:34:47Z</time>
      </trkpt>
      <trkpt lat="48.10593" lon="-2.92456">
        <ele>104.2</ele>
        <time>2021-08-08T13:34:48Z</time>
      </trkpt>
      <trkpt lat="48.10592" lon="-2.92465">
        <ele>104</ele>
        <time>2021-08-08T13:34:49Z</time>
      </trkpt>
      <trkpt lat="48.1059" lon="-2.92473">
        <ele>104</ele>
        <time>2021-08-08T13:34:50Z</time>
      </trkpt>
      <trkpt lat="48.10589" lon="-2.92481">
        <ele>103.8</ele>
        <time>2021-08-08T13:34:51Z</time>
      </trkpt>
      <trkpt lat="48.10588" lon="-2.92489">
        <ele>103.2</ele>
        <time>2021-08-08T13:34:52Z</time>
      </trkpt>
      <trkpt lat="48.10587" lon="-2.92497">
        <ele>102.8</ele>
        <time>2021-08-08T13:34:53Z</time>
      </trkpt>
      <trkpt lat="48.10586" lon="-2.92503">
        <ele>102.6</ele>
        <time>2021-08-08T13:34:54Z</time>
      </trkpt>
      <trkpt lat="48.10586" lon="-2.9251">
        <ele>102.6</ele>
        <time>2021-08-08T13:34:55Z</time>
      </trkpt>
      <trkpt lat="48.10584" lon="-2.92517">
        <ele>102.4</ele>
        <time>2021-08-08T13:34:56Z</time>
      </trkpt>
      <trkpt lat="48.10583" lon="-2.92524">
        <ele>102.2</ele>
        <time>2021-08-08T13:34:57Z</time>
      </trkpt>
      <trkpt lat="48.10582" lon="-2.92531">
        <ele>102.2</ele>
        <time>2021-08-08T13:34:58Z</time>
      </trkpt>
      <trkpt lat="48.10581" lon="-2.92538">
        <ele>102</ele>
        <time>2021-08-08T13:34:59Z</time>
      </trkpt>
      <trkpt lat="48.1058" lon="-2.92545">
        <ele>101.8</ele>
        <time>2021-08-08T13:35:00Z</time>
      </trkpt>
      <trkpt lat="48.10578" lon="-2.92552">
        <ele>101.6</ele>
        <time>2021-08-08T13:35:01Z</time>
      </trkpt>
      <trkpt lat="48.10577" lon="-2.9256">
        <ele>101.4</ele>
        <time>2021-08-08T13:35:02Z</time>
      </trkpt>
      <trkpt lat="48.10576" lon="-2.92567">
        <ele>101.4</ele>
        <time>2021-08-08T13:35:03Z</time>
      </trkpt>
      <trkpt lat="48.10575" lon="-2.92575">
        <ele>101.2</ele>
        <time>2021-08-08T13:35:04Z</time>
      </trkpt>
      <trkpt lat="48.10574" lon="-2.92583">
        <ele>101</ele>
        <time>2021-08-08T13:35:05Z</time>
      </trkpt>
      <trkpt lat="48.10574" lon="-2.92591">
        <ele>101</ele>
        <time>2021-08-08T13:35:06Z</time>
      </trkpt>
      <trkpt lat="48.10573" lon="-2.92599">
        <ele>101</ele>
        <time>2021-08-08T13:35:07Z</time>
      </trkpt>
      <trkpt lat="48.10573" lon="-2.92607">
        <ele>100.8</ele>
        <time>2021-08-08T13:35:08Z</time>
      </trkpt>
      <trkpt lat="48.10573" lon="-2.92615">
        <ele>100.8</ele>
        <time>2021-08-08T13:35:09Z</time>
      </trkpt>
      <trkpt lat="48.10574" lon="-2.92623">
        <ele>100.6</ele>
        <time>2021-08-08T13:35:10Z</time>
      </trkpt>
      <trkpt lat="48.10574" lon="-2.92631">
        <ele>100.4</ele>
        <time>2021-08-08T13:35:11Z</time>
      </trkpt>
      <trkpt lat="48.10575" lon="-2.92638">
        <ele>100.4</ele>
        <time>2021-08-08T13:35:12Z</time>
      </trkpt>
      <trkpt lat="48.10576" lon="-2.92645">
        <ele>100.2</ele>
        <time>2021-08-08T13:35:13Z</time>
      </trkpt>
      <trkpt lat="48.10577" lon="-2.92653">
        <ele>100.2</ele>
        <time>2021-08-08T13:35:14Z</time>
      </trkpt>
      <trkpt lat="48.10578" lon="-2.9266">
        <ele>100</ele>
        <time>2021-08-08T13:35:15Z</time>
      </trkpt>
      <trkpt lat="48.10579" lon="-2.92667">
        <ele>100</ele>
        <time>2021-08-08T13:35:16Z</time>
      </trkpt>
      <trkpt lat="48.10579" lon="-2.92674">
        <ele>100</ele>
        <time>2021-08-08T13:35:17Z</time>
      </trkpt>
      <trkpt lat="48.1058" lon="-2.92681">
        <ele>100</ele>
        <time>2021-08-08T13:35:18Z</time>
      </trkpt>
      <trkpt lat="48.1058" lon="-2.92689">
        <ele>100</ele>
        <time>2021-08-08T13:35:19Z</time>
      </trkpt>
      <trkpt lat="48.10581" lon="-2.92696">
        <ele>99.8</ele>
        <time>2021-08-08T13:35:20Z</time>
      </trkpt>
      <trkpt lat="48.10582" lon="-2.92703">
        <ele>99.8</ele>
        <time>2021-08-08T13:35:21Z</time>
      </trkpt>
      <trkpt lat="48.10583" lon="-2.9271">
        <ele>99.6</ele>
        <time>2021-08-08T13:35:22Z</time>
      </trkpt>
      <trkpt lat="48.10584" lon="-2.92717">
        <ele>99.6</ele>
        <time>2021-08-08T13:35:23Z</time>
      </trkpt>
      <trkpt lat="48.10585" lon="-2.92725">
        <ele>99.6</ele>
        <time>2021-08-08T13:35:24Z</time>
      </trkpt>
      <trkpt lat="48.10585" lon="-2.92732">
        <ele>99.6</ele>
        <time>2021-08-08T13:35:25Z</time>
      </trkpt>
      <trkpt lat="48.10587" lon="-2.9274">
        <ele>99.4</ele>
        <time>2021-08-08T13:35:26Z</time>
      </trkpt>
      <trkpt lat="48.10589" lon="-2.92748">
        <ele>99.2</ele>
        <time>2021-08-08T13:35:27Z</time>
      </trkpt>
      <trkpt lat="48.10591" lon="-2.92756">
        <ele>99</ele>
        <time>2021-08-08T13:35:28Z</time>
      </trkpt>
      <trkpt lat="48.10593" lon="-2.92764">
        <ele>98.8</ele>
        <time>2021-08-08T13:35:29Z</time>
      </trkpt>
      <trkpt lat="48.10595" lon="-2.92772">
        <ele>98.6</ele>
        <time>2021-08-08T13:35:30Z</time>
      </trkpt>
      <trkpt lat="48.10597" lon="-2.9278">
        <ele>98.4</ele>
        <time>2021-08-08T13:35:31Z</time>
      </trkpt>
      <trkpt lat="48.106" lon="-2.92787">
        <ele>98.2</ele>
        <time>2021-08-08T13:35:32Z</time>
      </trkpt>
      <trkpt lat="48.10601" lon="-2.92795">
        <ele>98</ele>
        <time>2021-08-08T13:35:33Z</time>
      </trkpt>
      <trkpt lat="48.10603" lon="-2.92803">
        <ele>98</ele>
        <time>2021-08-08T13:35:34Z</time>
      </trkpt>
      <trkpt lat="48.10605" lon="-2.9281">
        <ele>97.8</ele>
        <time>2021-08-08T13:35:35Z</time>
      </trkpt>
      <trkpt lat="48.10607" lon="-2.92817">
        <ele>97.8</ele>
        <time>2021-08-08T13:35:36Z</time>
      </trkpt>
      <trkpt lat="48.10608" lon="-2.92824">
        <ele>97.6</ele>
        <time>2021-08-08T13:35:37Z</time>
      </trkpt>
      <trkpt lat="48.1061" lon="-2.92831">
        <ele>97.2</ele>
        <time>2021-08-08T13:35:38Z</time>
      </trkpt>
      <trkpt lat="48.10612" lon="-2.92838">
        <ele>97</ele>
        <time>2021-08-08T13:35:39Z</time>
      </trkpt>
      <trkpt lat="48.10614" lon="-2.92846">
        <ele>96.8</ele>
        <time>2021-08-08T13:35:40Z</time>
      </trkpt>
      <trkpt lat="48.10616" lon="-2.92853">
        <ele>96.6</ele>
        <time>2021-08-08T13:35:41Z</time>
      </trkpt>
      <trkpt lat="48.10618" lon="-2.92861">
        <ele>96.6</ele>
        <time>2021-08-08T13:35:42Z</time>
      </trkpt>
      <trkpt lat="48.1062" lon="-2.92868">
        <ele>96.4</ele>
        <time>2021-08-08T13:35:43Z</time>
      </trkpt>
      <trkpt lat="48.10622" lon="-2.92875">
        <ele>96.4</ele>
        <time>2021-08-08T13:35:44Z</time>
      </trkpt>
      <trkpt lat="48.10623" lon="-2.92883">
        <ele>96.2</ele>
        <time>2021-08-08T13:35:45Z</time>
      </trkpt>
      <trkpt lat="48.10625" lon="-2.9289">
        <ele>96.2</ele>
        <time>2021-08-08T13:35:46Z</time>
      </trkpt>
      <trkpt lat="48.10628" lon="-2.92897">
        <ele>96</ele>
        <time>2021-08-08T13:35:47Z</time>
      </trkpt>
      <trkpt lat="48.1063" lon="-2.92903">
        <ele>96</ele>
        <time>2021-08-08T13:35:48Z</time>
      </trkpt>
      <trkpt lat="48.10632" lon="-2.92911">
        <ele>96</ele>
        <time>2021-08-08T13:35:49Z</time>
      </trkpt>
      <trkpt lat="48.10634" lon="-2.92918">
        <ele>95.8</ele>
        <time>2021-08-08T13:35:50Z</time>
      </trkpt>
      <trkpt lat="48.10635" lon="-2.92925">
        <ele>95.8</ele>
        <time>2021-08-08T13:35:51Z</time>
      </trkpt>
      <trkpt lat="48.10637" lon="-2.92933">
        <ele>95.6</ele>
        <time>2021-08-08T13:35:52Z</time>
      </trkpt>
      <trkpt lat="48.10638" lon="-2.9294">
        <ele>95.6</ele>
        <time>2021-08-08T13:35:53Z</time>
      </trkpt>
      <trkpt lat="48.10639" lon="-2.92947">
        <ele>95.4</ele>
        <time>2021-08-08T13:35:54Z</time>
      </trkpt>
      <trkpt lat="48.1064" lon="-2.92954">
        <ele>95.4</ele>
        <time>2021-08-08T13:35:55Z</time>
      </trkpt>
      <trkpt lat="48.10641" lon="-2.9296">
        <ele>95.4</ele>
        <time>2021-08-08T13:35:56Z</time>
      </trkpt>
      <trkpt lat="48.10642" lon="-2.92967">
        <ele>95.2</ele>
        <time>2021-08-08T13:35:57Z</time>
      </trkpt>
      <trkpt lat="48.10643" lon="-2.92974">
        <ele>95.2</ele>
        <time>2021-08-08T13:35:58Z</time>
      </trkpt>
      <trkpt lat="48.10644" lon="-2.92981">
        <ele>95.2</ele>
        <time>2021-08-08T13:35:59Z</time>
      </trkpt>
      <trkpt lat="48.10645" lon="-2.92988">
        <ele>95</ele>
        <time>2021-08-08T13:36:00Z</time>
      </trkpt>
      <trkpt lat="48.10646" lon="-2.92996">
        <ele>95</ele>
        <time>2021-08-08T13:36:01Z</time>
      </trkpt>
      <trkpt lat="48.10646" lon="-2.93004">
        <ele>95</ele>
        <time>2021-08-08T13:36:02Z</time>
      </trkpt>
      <trkpt lat="48.10647" lon="-2.93013">
        <ele>95</ele>
        <time>2021-08-08T13:36:03Z</time>
      </trkpt>
      <trkpt lat="48.10648" lon="-2.93021">
        <ele>94.8</ele>
        <time>2021-08-08T13:36:04Z</time>
      </trkpt>
      <trkpt lat="48.10649" lon="-2.93029">
        <ele>94.8</ele>
        <time>2021-08-08T13:36:05Z</time>
      </trkpt>
      <trkpt lat="48.1065" lon="-2.93038">
        <ele>94.6</ele>
        <time>2021-08-08T13:36:06Z</time>
      </trkpt>
      <trkpt lat="48.10651" lon="-2.93047">
        <ele>94.6</ele>
        <time>2021-08-08T13:36:07Z</time>
      </trkpt>
      <trkpt lat="48.10652" lon="-2.93055">
        <ele>94.6</ele>
        <time>2021-08-08T13:36:08Z</time>
      </trkpt>
      <trkpt lat="48.10653" lon="-2.93064">
        <ele>94.6</ele>
        <time>2021-08-08T13:36:09Z</time>
      </trkpt>
      <trkpt lat="48.10654" lon="-2.93074">
        <ele>94.6</ele>
        <time>2021-08-08T13:36:10Z</time>
      </trkpt>
      <trkpt lat="48.10655" lon="-2.93083">
        <ele>94.6</ele>
        <time>2021-08-08T13:36:11Z</time>
      </trkpt>
      <trkpt lat="48.10656" lon="-2.93092">
        <ele>94.2</ele>
        <time>2021-08-08T13:36:12Z</time>
      </trkpt>
      <trkpt lat="48.10657" lon="-2.93101">
        <ele>94</ele>
        <time>2021-08-08T13:36:13Z</time>
      </trkpt>
      <trkpt lat="48.10659" lon="-2.9311">
        <ele>93.8</ele>
        <time>2021-08-08T13:36:14Z</time>
      </trkpt>
      <trkpt lat="48.1066" lon="-2.93118">
        <ele>93.6</ele>
        <time>2021-08-08T13:36:15Z</time>
      </trkpt>
      <trkpt lat="48.10661" lon="-2.93127">
        <ele>93.4</ele>
        <time>2021-08-08T13:36:16Z</time>
      </trkpt>
      <trkpt lat="48.10661" lon="-2.93135">
        <ele>93</ele>
        <time>2021-08-08T13:36:17Z</time>
      </trkpt>
      <trkpt lat="48.10662" lon="-2.93143">
        <ele>92.8</ele>
        <time>2021-08-08T13:36:18Z</time>
      </trkpt>
      <trkpt lat="48.10663" lon="-2.93151">
        <ele>92.4</ele>
        <time>2021-08-08T13:36:19Z</time>
      </trkpt>
      <trkpt lat="48.10664" lon="-2.93159">
        <ele>92.2</ele>
        <time>2021-08-08T13:36:20Z</time>
      </trkpt>
      <trkpt lat="48.10664" lon="-2.93167">
        <ele>92</ele>
        <time>2021-08-08T13:36:21Z</time>
      </trkpt>
      <trkpt lat="48.10665" lon="-2.93174">
        <ele>91.8</ele>
        <time>2021-08-08T13:36:22Z</time>
      </trkpt>
      <trkpt lat="48.10665" lon="-2.93182">
        <ele>91.8</ele>
        <time>2021-08-08T13:36:23Z</time>
      </trkpt>
      <trkpt lat="48.10666" lon="-2.9319">
        <ele>91.8</ele>
        <time>2021-08-08T13:36:24Z</time>
      </trkpt>
      <trkpt lat="48.10667" lon="-2.93199">
        <ele>91.6</ele>
        <time>2021-08-08T13:36:25Z</time>
      </trkpt>
      <trkpt lat="48.10668" lon="-2.93208">
        <ele>91.6</ele>
        <time>2021-08-08T13:36:26Z</time>
      </trkpt>
      <trkpt lat="48.1067" lon="-2.93217">
        <ele>91.4</ele>
        <time>2021-08-08T13:36:27Z</time>
      </trkpt>
      <trkpt lat="48.10671" lon="-2.93227">
        <ele>91.4</ele>
        <time>2021-08-08T13:36:28Z</time>
      </trkpt>
      <trkpt lat="48.10672" lon="-2.93237">
        <ele>91</ele>
        <time>2021-08-08T13:36:29Z</time>
      </trkpt>
      <trkpt lat="48.10673" lon="-2.93246">
        <ele>90.8</ele>
        <time>2021-08-08T13:36:30Z</time>
      </trkpt>
      <trkpt lat="48.10674" lon="-2.93255">
        <ele>90.6</ele>
        <time>2021-08-08T13:36:31Z</time>
      </trkpt>
      <trkpt lat="48.10675" lon="-2.93264">
        <ele>90.4</ele>
        <time>2021-08-08T13:36:32Z</time>
      </trkpt>
      <trkpt lat="48.10675" lon="-2.93273">
        <ele>90.4</ele>
        <time>2021-08-08T13:36:33Z</time>
      </trkpt>
      <trkpt lat="48.10676" lon="-2.93282">
        <ele>90.2</ele>
        <time>2021-08-08T13:36:34Z</time>
      </trkpt>
      <trkpt lat="48.10677" lon="-2.9329">
        <ele>89.8</ele>
        <time>2021-08-08T13:36:35Z</time>
      </trkpt>
      <trkpt lat="48.10677" lon="-2.93299">
        <ele>89.6</ele>
        <time>2021-08-08T13:36:36Z</time>
      </trkpt>
      <trkpt lat="48.10678" lon="-2.93307">
        <ele>89.2</ele>
        <time>2021-08-08T13:36:37Z</time>
      </trkpt>
      <trkpt lat="48.10678" lon="-2.93315">
        <ele>89</ele>
        <time>2021-08-08T13:36:38Z</time>
      </trkpt>
      <trkpt lat="48.10678" lon="-2.93324">
        <ele>89</ele>
        <time>2021-08-08T13:36:39Z</time>
      </trkpt>
      <trkpt lat="48.10678" lon="-2.93333">
        <ele>88.8</ele>
        <time>2021-08-08T13:36:40Z</time>
      </trkpt>
      <trkpt lat="48.10678" lon="-2.93341">
        <ele>88.8</ele>
        <time>2021-08-08T13:36:41Z</time>
      </trkpt>
      <trkpt lat="48.10678" lon="-2.93349">
        <ele>88.8</ele>
        <time>2021-08-08T13:36:42Z</time>
      </trkpt>
      <trkpt lat="48.10677" lon="-2.93356">
        <ele>88.8</ele>
        <time>2021-08-08T13:36:43Z</time>
      </trkpt>
      <trkpt lat="48.10677" lon="-2.93363">
        <ele>88.8</ele>
        <time>2021-08-08T13:36:44Z</time>
      </trkpt>
      <trkpt lat="48.10677" lon="-2.9337">
        <ele>88.8</ele>
        <time>2021-08-08T13:36:45Z</time>
      </trkpt>
      <trkpt lat="48.10677" lon="-2.93377">
        <ele>88.8</ele>
        <time>2021-08-08T13:36:46Z</time>
      </trkpt>
      <trkpt lat="48.10676" lon="-2.93384">
        <ele>89</ele>
        <time>2021-08-08T13:36:47Z</time>
      </trkpt>
      <trkpt lat="48.10675" lon="-2.93391">
        <ele>89</ele>
        <time>2021-08-08T13:36:48Z</time>
      </trkpt>
      <trkpt lat="48.10675" lon="-2.93398">
        <ele>89.2</ele>
        <time>2021-08-08T13:36:49Z</time>
      </trkpt>
      <trkpt lat="48.10675" lon="-2.93405">
        <ele>89.2</ele>
        <time>2021-08-08T13:36:50Z</time>
      </trkpt>
      <trkpt lat="48.10674" lon="-2.93411">
        <ele>89.2</ele>
        <time>2021-08-08T13:36:51Z</time>
      </trkpt>
      <trkpt lat="48.10674" lon="-2.93417">
        <ele>89.2</ele>
        <time>2021-08-08T13:36:52Z</time>
      </trkpt>
      <trkpt lat="48.10674" lon="-2.93423">
        <ele>89.2</ele>
        <time>2021-08-08T13:36:53Z</time>
      </trkpt>
      <trkpt lat="48.10673" lon="-2.93429">
        <ele>89.2</ele>
        <time>2021-08-08T13:36:54Z</time>
      </trkpt>
      <trkpt lat="48.10673" lon="-2.93435">
        <ele>89.2</ele>
        <time>2021-08-08T13:36:55Z</time>
      </trkpt>
      <trkpt lat="48.10672" lon="-2.93441">
        <ele>89.2</ele>
        <time>2021-08-08T13:36:56Z</time>
      </trkpt>
      <trkpt lat="48.10672" lon="-2.93448">
        <ele>89.2</ele>
        <time>2021-08-08T13:36:57Z</time>
      </trkpt>
      <trkpt lat="48.10672" lon="-2.93455">
        <ele>89.2</ele>
        <time>2021-08-08T13:36:58Z</time>
      </trkpt>
      <trkpt lat="48.10672" lon="-2.93462">
        <ele>89.2</ele>
        <time>2021-08-08T13:36:59Z</time>
      </trkpt>
      <trkpt lat="48.10672" lon="-2.93469">
        <ele>89.2</ele>
        <time>2021-08-08T13:37:00Z</time>
      </trkpt>
      <trkpt lat="48.10672" lon="-2.93476">
        <ele>89.2</ele>
        <time>2021-08-08T13:37:01Z</time>
      </trkpt>
      <trkpt lat="48.10672" lon="-2.93482">
        <ele>89</ele>
        <time>2021-08-08T13:37:02Z</time>
      </trkpt>
      <trkpt lat="48.10671" lon="-2.93489">
        <ele>88.8</ele>
        <time>2021-08-08T13:37:03Z</time>
      </trkpt>
      <trkpt lat="48.10671" lon="-2.93496">
        <ele>88.4</ele>
        <time>2021-08-08T13:37:04Z</time>
      </trkpt>
      <trkpt lat="48.10671" lon="-2.93503">
        <ele>87.8</ele>
        <time>2021-08-08T13:37:05Z</time>
      </trkpt>
      <trkpt lat="48.1067" lon="-2.93511">
        <ele>87.4</ele>
        <time>2021-08-08T13:37:06Z</time>
      </trkpt>
      <trkpt lat="48.10669" lon="-2.93518">
        <ele>87.2</ele>
        <time>2021-08-08T13:37:07Z</time>
      </trkpt>
      <trkpt lat="48.10668" lon="-2.93525">
        <ele>86.8</ele>
        <time>2021-08-08T13:37:08Z</time>
      </trkpt>
      <trkpt lat="48.10668" lon="-2.9353">
        <ele>86.6</ele>
        <time>2021-08-08T13:37:09Z</time>
      </trkpt>
      <trkpt lat="48.10668" lon="-2.93536">
        <ele>86.6</ele>
        <time>2021-08-08T13:37:10Z</time>
      </trkpt>
      <trkpt lat="48.10668" lon="-2.93543">
        <ele>86.4</ele>
        <time>2021-08-08T13:37:11Z</time>
      </trkpt>
      <trkpt lat="48.10668" lon="-2.9355">
        <ele>86.4</ele>
        <time>2021-08-08T13:37:12Z</time>
      </trkpt>
      <trkpt lat="48.10668" lon="-2.93556">
        <ele>86.4</ele>
        <time>2021-08-08T13:37:13Z</time>
      </trkpt>
      <trkpt lat="48.10667" lon="-2.93563">
        <ele>86.4</ele>
        <time>2021-08-08T13:37:14Z</time>
      </trkpt>
      <trkpt lat="48.10667" lon="-2.93569">
        <ele>86.4</ele>
        <time>2021-08-08T13:37:15Z</time>
      </trkpt>
      <trkpt lat="48.10666" lon="-2.93575">
        <ele>86.4</ele>
        <time>2021-08-08T13:37:16Z</time>
      </trkpt>
      <trkpt lat="48.10666" lon="-2.93581">
        <ele>86.4</ele>
        <time>2021-08-08T13:37:17Z</time>
      </trkpt>
      <trkpt lat="48.10665" lon="-2.93587">
        <ele>86.4</ele>
        <time>2021-08-08T13:37:18Z</time>
      </trkpt>
      <trkpt lat="48.10664" lon="-2.93594">
        <ele>86.4</ele>
        <time>2021-08-08T13:37:19Z</time>
      </trkpt>
      <trkpt lat="48.10664" lon="-2.936">
        <ele>86.4</ele>
        <time>2021-08-08T13:37:20Z</time>
      </trkpt>
      <trkpt lat="48.10664" lon="-2.93605">
        <ele>86.4</ele>
        <time>2021-08-08T13:37:21Z</time>
      </trkpt>
      <trkpt lat="48.10665" lon="-2.93611">
        <ele>86.4</ele>
        <time>2021-08-08T13:37:22Z</time>
      </trkpt>
      <trkpt lat="48.10665" lon="-2.93616">
        <ele>86.2</ele>
        <time>2021-08-08T13:37:23Z</time>
      </trkpt>
      <trkpt lat="48.10664" lon="-2.93623">
        <ele>86.2</ele>
        <time>2021-08-08T13:37:24Z</time>
      </trkpt>
      <trkpt lat="48.10664" lon="-2.9363">
        <ele>86.2</ele>
        <time>2021-08-08T13:37:25Z</time>
      </trkpt>
      <trkpt lat="48.10665" lon="-2.93637">
        <ele>86.2</ele>
        <time>2021-08-08T13:37:26Z</time>
      </trkpt>
      <trkpt lat="48.10665" lon="-2.93643">
        <ele>86.2</ele>
        <time>2021-08-08T13:37:27Z</time>
      </trkpt>
      <trkpt lat="48.10666" lon="-2.93649">
        <ele>86.2</ele>
        <time>2021-08-08T13:37:28Z</time>
      </trkpt>
      <trkpt lat="48.10666" lon="-2.93654">
        <ele>86</ele>
        <time>2021-08-08T13:37:29Z</time>
      </trkpt>
      <trkpt lat="48.10667" lon="-2.93662">
        <ele>86</ele>
        <time>2021-08-08T13:37:30Z</time>
      </trkpt>
      <trkpt lat="48.10667" lon="-2.9367">
        <ele>86</ele>
        <time>2021-08-08T13:37:31Z</time>
      </trkpt>
      <trkpt lat="48.10668" lon="-2.93679">
        <ele>86</ele>
        <time>2021-08-08T13:37:32Z</time>
      </trkpt>
      <trkpt lat="48.10668" lon="-2.93688">
        <ele>85.8</ele>
        <time>2021-08-08T13:37:33Z</time>
      </trkpt>
      <trkpt lat="48.10668" lon="-2.93696">
        <ele>85.8</ele>
        <time>2021-08-08T13:37:34Z</time>
      </trkpt>
      <trkpt lat="48.10668" lon="-2.93704">
        <ele>85.8</ele>
        <time>2021-08-08T13:37:35Z</time>
      </trkpt>
      <trkpt lat="48.10668" lon="-2.93713">
        <ele>85.8</ele>
        <time>2021-08-08T13:37:36Z</time>
      </trkpt>
      <trkpt lat="48.10669" lon="-2.93721">
        <ele>85.8</ele>
        <time>2021-08-08T13:37:37Z</time>
      </trkpt>
      <trkpt lat="48.1067" lon="-2.93728">
        <ele>85.8</ele>
        <time>2021-08-08T13:37:38Z</time>
      </trkpt>
      <trkpt lat="48.10671" lon="-2.93735">
        <ele>85.8</ele>
        <time>2021-08-08T13:37:39Z</time>
      </trkpt>
      <trkpt lat="48.10671" lon="-2.93741">
        <ele>85.8</ele>
        <time>2021-08-08T13:37:40Z</time>
      </trkpt>
      <trkpt lat="48.10671" lon="-2.93749">
        <ele>85.8</ele>
        <time>2021-08-08T13:37:41Z</time>
      </trkpt>
      <trkpt lat="48.10671" lon="-2.93757">
        <ele>85.8</ele>
        <time>2021-08-08T13:37:42Z</time>
      </trkpt>
      <trkpt lat="48.10672" lon="-2.93765">
        <ele>85.8</ele>
        <time>2021-08-08T13:37:43Z</time>
      </trkpt>
      <trkpt lat="48.10672" lon="-2.93774">
        <ele>85.8</ele>
        <time>2021-08-08T13:37:44Z</time>
      </trkpt>
      <trkpt lat="48.10672" lon="-2.93783">
        <ele>85.8</ele>
        <time>2021-08-08T13:37:45Z</time>
      </trkpt>
      <trkpt lat="48.10671" lon="-2.93791">
        <ele>85.6</ele>
        <time>2021-08-08T13:37:46Z</time>
      </trkpt>
      <trkpt lat="48.10671" lon="-2.93799">
        <ele>85.6</ele>
        <time>2021-08-08T13:37:47Z</time>
      </trkpt>
      <trkpt lat="48.10672" lon="-2.93806">
        <ele>85.6</ele>
        <time>2021-08-08T13:37:48Z</time>
      </trkpt>
      <trkpt lat="48.10673" lon="-2.93815">
        <ele>85.6</ele>
        <time>2021-08-08T13:37:49Z</time>
      </trkpt>
      <trkpt lat="48.10673" lon="-2.93823">
        <ele>85.4</ele>
        <time>2021-08-08T13:37:50Z</time>
      </trkpt>
      <trkpt lat="48.10674" lon="-2.93832">
        <ele>85.4</ele>
        <time>2021-08-08T13:37:51Z</time>
      </trkpt>
      <trkpt lat="48.10674" lon="-2.93842">
        <ele>85.2</ele>
        <time>2021-08-08T13:37:52Z</time>
      </trkpt>
      <trkpt lat="48.10675" lon="-2.93852">
        <ele>85</ele>
        <time>2021-08-08T13:37:53Z</time>
      </trkpt>
      <trkpt lat="48.10675" lon="-2.93861">
        <ele>84.8</ele>
        <time>2021-08-08T13:37:54Z</time>
      </trkpt>
      <trkpt lat="48.10676" lon="-2.9387">
        <ele>84.6</ele>
        <time>2021-08-08T13:37:55Z</time>
      </trkpt>
      <trkpt lat="48.10677" lon="-2.93878">
        <ele>84.6</ele>
        <time>2021-08-08T13:37:56Z</time>
      </trkpt>
      <trkpt lat="48.10678" lon="-2.93887">
        <ele>84.6</ele>
        <time>2021-08-08T13:37:57Z</time>
      </trkpt>
      <trkpt lat="48.10679" lon="-2.93896">
        <ele>84.4</ele>
        <time>2021-08-08T13:37:58Z</time>
      </trkpt>
      <trkpt lat="48.1068" lon="-2.93905">
        <ele>84.2</ele>
        <time>2021-08-08T13:37:59Z</time>
      </trkpt>
      <trkpt lat="48.1068" lon="-2.93914">
        <ele>84</ele>
        <time>2021-08-08T13:38:00Z</time>
      </trkpt>
      <trkpt lat="48.1068" lon="-2.93924">
        <ele>84</ele>
        <time>2021-08-08T13:38:01Z</time>
      </trkpt>
      <trkpt lat="48.1068" lon="-2.93934">
        <ele>83.6</ele>
        <time>2021-08-08T13:38:02Z</time>
      </trkpt>
      <trkpt lat="48.1068" lon="-2.93944">
        <ele>83.4</ele>
        <time>2021-08-08T13:38:03Z</time>
      </trkpt>
      <trkpt lat="48.10681" lon="-2.93954">
        <ele>83</ele>
        <time>2021-08-08T13:38:04Z</time>
      </trkpt>
      <trkpt lat="48.10682" lon="-2.93963">
        <ele>82.6</ele>
        <time>2021-08-08T13:38:05Z</time>
      </trkpt>
      <trkpt lat="48.10682" lon="-2.93973">
        <ele>82</ele>
        <time>2021-08-08T13:38:06Z</time>
      </trkpt>
      <trkpt lat="48.10682" lon="-2.93983">
        <ele>81.6</ele>
        <time>2021-08-08T13:38:07Z</time>
      </trkpt>
      <trkpt lat="48.10681" lon="-2.93992">
        <ele>80.2</ele>
        <time>2021-08-08T13:38:08Z</time>
      </trkpt>
      <trkpt lat="48.1068" lon="-2.94">
        <ele>79.6</ele>
        <time>2021-08-08T13:38:09Z</time>
      </trkpt>
      <trkpt lat="48.10678" lon="-2.94008">
        <ele>79.2</ele>
        <time>2021-08-08T13:38:10Z</time>
      </trkpt>
      <trkpt lat="48.10677" lon="-2.94015">
        <ele>79</ele>
        <time>2021-08-08T13:38:11Z</time>
      </trkpt>
      <trkpt lat="48.10675" lon="-2.94022">
        <ele>78.8</ele>
        <time>2021-08-08T13:38:12Z</time>
      </trkpt>
      <trkpt lat="48.10672" lon="-2.94028">
        <ele>78.4</ele>
        <time>2021-08-08T13:38:13Z</time>
      </trkpt>
      <trkpt lat="48.1067" lon="-2.94035">
        <ele>78.2</ele>
        <time>2021-08-08T13:38:14Z</time>
      </trkpt>
      <trkpt lat="48.10667" lon="-2.94042">
        <ele>78</ele>
        <time>2021-08-08T13:38:15Z</time>
      </trkpt>
      <trkpt lat="48.10664" lon="-2.94048">
        <ele>78</ele>
        <time>2021-08-08T13:38:16Z</time>
      </trkpt>
      <trkpt lat="48.10661" lon="-2.94053">
        <ele>77.8</ele>
        <time>2021-08-08T13:38:17Z</time>
      </trkpt>
      <trkpt lat="48.10658" lon="-2.94058">
        <ele>77.8</ele>
        <time>2021-08-08T13:38:18Z</time>
      </trkpt>
      <trkpt lat="48.10654" lon="-2.94063">
        <ele>77.8</ele>
        <time>2021-08-08T13:38:19Z</time>
      </trkpt>
      <trkpt lat="48.1065" lon="-2.94068">
        <ele>77.8</ele>
        <time>2021-08-08T13:38:20Z</time>
      </trkpt>
      <trkpt lat="48.10646" lon="-2.94073">
        <ele>77.8</ele>
        <time>2021-08-08T13:38:21Z</time>
      </trkpt>
      <trkpt lat="48.10643" lon="-2.94076">
        <ele>77.8</ele>
        <time>2021-08-08T13:38:22Z</time>
      </trkpt>
      <trkpt lat="48.10639" lon="-2.94079">
        <ele>77.8</ele>
        <time>2021-08-08T13:38:23Z</time>
      </trkpt>
      <trkpt lat="48.10635" lon="-2.94081">
        <ele>77.8</ele>
        <time>2021-08-08T13:38:24Z</time>
      </trkpt>
      <trkpt lat="48.10631" lon="-2.94083">
        <ele>77.8</ele>
        <time>2021-08-08T13:38:25Z</time>
      </trkpt>
      <trkpt lat="48.10627" lon="-2.94085">
        <ele>77.8</ele>
        <time>2021-08-08T13:38:26Z</time>
      </trkpt>
      <trkpt lat="48.10624" lon="-2.94086">
        <ele>77.8</ele>
        <time>2021-08-08T13:38:27Z</time>
      </trkpt>
      <trkpt lat="48.10621" lon="-2.94087">
        <ele>77.8</ele>
        <time>2021-08-08T13:38:28Z</time>
      </trkpt>
      <trkpt lat="48.10617" lon="-2.94089">
        <ele>78</ele>
        <time>2021-08-08T13:38:29Z</time>
      </trkpt>
      <trkpt lat="48.10614" lon="-2.94089">
        <ele>78</ele>
        <time>2021-08-08T13:38:30Z</time>
      </trkpt>
      <trkpt lat="48.1061" lon="-2.9409">
        <ele>78</ele>
        <time>2021-08-08T13:38:31Z</time>
      </trkpt>
      <trkpt lat="48.10606" lon="-2.9409">
        <ele>78</ele>
        <time>2021-08-08T13:38:32Z</time>
      </trkpt>
      <trkpt lat="48.10601" lon="-2.94089">
        <ele>78</ele>
        <time>2021-08-08T13:38:33Z</time>
      </trkpt>
      <trkpt lat="48.10596" lon="-2.94089">
        <ele>78.2</ele>
        <time>2021-08-08T13:38:34Z</time>
      </trkpt>
      <trkpt lat="48.10591" lon="-2.94089">
        <ele>78.2</ele>
        <time>2021-08-08T13:38:35Z</time>
      </trkpt>
      <trkpt lat="48.10586" lon="-2.94088">
        <ele>78.4</ele>
        <time>2021-08-08T13:38:36Z</time>
      </trkpt>
      <trkpt lat="48.10581" lon="-2.94086">
        <ele>78.6</ele>
        <time>2021-08-08T13:38:37Z</time>
      </trkpt>
      <trkpt lat="48.10577" lon="-2.94085">
        <ele>78.6</ele>
        <time>2021-08-08T13:38:38Z</time>
      </trkpt>
      <trkpt lat="48.10573" lon="-2.94083">
        <ele>78.8</ele>
        <time>2021-08-08T13:38:39Z</time>
      </trkpt>
      <trkpt lat="48.10568" lon="-2.94083">
        <ele>78.8</ele>
        <time>2021-08-08T13:38:40Z</time>
      </trkpt>
      <trkpt lat="48.10563" lon="-2.94082">
        <ele>78.8</ele>
        <time>2021-08-08T13:38:41Z</time>
      </trkpt>
      <trkpt lat="48.10558" lon="-2.94081">
        <ele>78.8</ele>
        <time>2021-08-08T13:38:42Z</time>
      </trkpt>
      <trkpt lat="48.10554" lon="-2.94079">
        <ele>78.8</ele>
        <time>2021-08-08T13:38:43Z</time>
      </trkpt>
      <trkpt lat="48.10549" lon="-2.94078">
        <ele>78.8</ele>
        <time>2021-08-08T13:38:44Z</time>
      </trkpt>
      <trkpt lat="48.10546" lon="-2.94077">
        <ele>78.8</ele>
        <time>2021-08-08T13:38:45Z</time>
      </trkpt>
      <trkpt lat="48.10542" lon="-2.94076">
        <ele>78.8</ele>
        <time>2021-08-08T13:38:46Z</time>
      </trkpt>
      <trkpt lat="48.10537" lon="-2.94075">
        <ele>78.8</ele>
        <time>2021-08-08T13:38:47Z</time>
      </trkpt>
      <trkpt lat="48.10533" lon="-2.94074">
        <ele>78.8</ele>
        <time>2021-08-08T13:38:48Z</time>
      </trkpt>
      <trkpt lat="48.10529" lon="-2.94072">
        <ele>78.8</ele>
        <time>2021-08-08T13:38:49Z</time>
      </trkpt>
      <trkpt lat="48.10525" lon="-2.9407">
        <ele>78.8</ele>
        <time>2021-08-08T13:38:50Z</time>
      </trkpt>
      <trkpt lat="48.10521" lon="-2.94069">
        <ele>78.8</ele>
        <time>2021-08-08T13:38:51Z</time>
      </trkpt>
      <trkpt lat="48.10516" lon="-2.94067">
        <ele>78.8</ele>
        <time>2021-08-08T13:38:52Z</time>
      </trkpt>
      <trkpt lat="48.10511" lon="-2.94066">
        <ele>78.8</ele>
        <time>2021-08-08T13:38:53Z</time>
      </trkpt>
      <trkpt lat="48.10505" lon="-2.94064">
        <ele>78.8</ele>
        <time>2021-08-08T13:38:54Z</time>
      </trkpt>
      <trkpt lat="48.10499" lon="-2.94062">
        <ele>78.8</ele>
        <time>2021-08-08T13:38:55Z</time>
      </trkpt>
      <trkpt lat="48.10493" lon="-2.94059">
        <ele>78.6</ele>
        <time>2021-08-08T13:38:56Z</time>
      </trkpt>
      <trkpt lat="48.10487" lon="-2.94057">
        <ele>78.4</ele>
        <time>2021-08-08T13:38:57Z</time>
      </trkpt>
      <trkpt lat="48.10481" lon="-2.94055">
        <ele>78</ele>
        <time>2021-08-08T13:38:58Z</time>
      </trkpt>
      <trkpt lat="48.10475" lon="-2.94053">
        <ele>78</ele>
        <time>2021-08-08T13:38:59Z</time>
      </trkpt>
      <trkpt lat="48.10469" lon="-2.94051">
        <ele>77.8</ele>
        <time>2021-08-08T13:39:00Z</time>
      </trkpt>
      <trkpt lat="48.10463" lon="-2.94049">
        <ele>77.4</ele>
        <time>2021-08-08T13:39:01Z</time>
      </trkpt>
      <trkpt lat="48.10456" lon="-2.94047">
        <ele>77.2</ele>
        <time>2021-08-08T13:39:02Z</time>
      </trkpt>
      <trkpt lat="48.10451" lon="-2.94045">
        <ele>76.8</ele>
        <time>2021-08-08T13:39:03Z</time>
      </trkpt>
      <trkpt lat="48.10446" lon="-2.94044">
        <ele>76.6</ele>
        <time>2021-08-08T13:39:04Z</time>
      </trkpt>
      <trkpt lat="48.10441" lon="-2.94042">
        <ele>76.2</ele>
        <time>2021-08-08T13:39:05Z</time>
      </trkpt>
      <trkpt lat="48.10435" lon="-2.9404">
        <ele>76</ele>
        <time>2021-08-08T13:39:06Z</time>
      </trkpt>
      <trkpt lat="48.1043" lon="-2.94038">
        <ele>75.6</ele>
        <time>2021-08-08T13:39:07Z</time>
      </trkpt>
      <trkpt lat="48.10425" lon="-2.94037">
        <ele>75.6</ele>
        <time>2021-08-08T13:39:08Z</time>
      </trkpt>
      <trkpt lat="48.1042" lon="-2.94035">
        <ele>75.6</ele>
        <time>2021-08-08T13:39:09Z</time>
      </trkpt>
      <trkpt lat="48.10415" lon="-2.94034">
        <ele>75.6</ele>
        <time>2021-08-08T13:39:10Z</time>
      </trkpt>
      <trkpt lat="48.10411" lon="-2.94032">
        <ele>75.6</ele>
        <time>2021-08-08T13:39:11Z</time>
      </trkpt>
      <trkpt lat="48.10406" lon="-2.9403">
        <ele>75.6</ele>
        <time>2021-08-08T13:39:12Z</time>
      </trkpt>
      <trkpt lat="48.10401" lon="-2.94029">
        <ele>75.6</ele>
        <time>2021-08-08T13:39:13Z</time>
      </trkpt>
      <trkpt lat="48.10396" lon="-2.94028">
        <ele>75.6</ele>
        <time>2021-08-08T13:39:14Z</time>
      </trkpt>
      <trkpt lat="48.10391" lon="-2.94027">
        <ele>75.6</ele>
        <time>2021-08-08T13:39:15Z</time>
      </trkpt>
      <trkpt lat="48.10386" lon="-2.94026">
        <ele>75.6</ele>
        <time>2021-08-08T13:39:16Z</time>
      </trkpt>
      <trkpt lat="48.10382" lon="-2.94024">
        <ele>75.8</ele>
        <time>2021-08-08T13:39:17Z</time>
      </trkpt>
      <trkpt lat="48.10377" lon="-2.94023">
        <ele>75.8</ele>
        <time>2021-08-08T13:39:18Z</time>
      </trkpt>
      <trkpt lat="48.10372" lon="-2.94021">
        <ele>75.8</ele>
        <time>2021-08-08T13:39:19Z</time>
      </trkpt>
      <trkpt lat="48.10368" lon="-2.9402">
        <ele>75.8</ele>
        <time>2021-08-08T13:39:20Z</time>
      </trkpt>
      <trkpt lat="48.10364" lon="-2.94019">
        <ele>76</ele>
        <time>2021-08-08T13:39:21Z</time>
      </trkpt>
      <trkpt lat="48.10361" lon="-2.94018">
        <ele>76</ele>
        <time>2021-08-08T13:39:22Z</time>
      </trkpt>
      <trkpt lat="48.10359" lon="-2.94018">
        <ele>76</ele>
        <time>2021-08-08T13:39:23Z</time>
      </trkpt>
      <trkpt lat="48.10356" lon="-2.94017">
        <ele>76</ele>
        <time>2021-08-08T13:39:24Z</time>
      </trkpt>
      <trkpt lat="48.10353" lon="-2.94016">
        <ele>76.2</ele>
        <time>2021-08-08T13:39:25Z</time>
      </trkpt>
      <trkpt lat="48.10349" lon="-2.94016">
        <ele>76.2</ele>
        <time>2021-08-08T13:39:26Z</time>
      </trkpt>
      <trkpt lat="48.10346" lon="-2.94016">
        <ele>76.2</ele>
        <time>2021-08-08T13:39:27Z</time>
      </trkpt>
      <trkpt lat="48.10341" lon="-2.94015">
        <ele>76.2</ele>
        <time>2021-08-08T13:39:28Z</time>
      </trkpt>
      <trkpt lat="48.10337" lon="-2.94014">
        <ele>76.2</ele>
        <time>2021-08-08T13:39:29Z</time>
      </trkpt>
      <trkpt lat="48.10332" lon="-2.94013">
        <ele>76.2</ele>
        <time>2021-08-08T13:39:30Z</time>
      </trkpt>
      <trkpt lat="48.10328" lon="-2.94012">
        <ele>76.2</ele>
        <time>2021-08-08T13:39:31Z</time>
      </trkpt>
      <trkpt lat="48.10322" lon="-2.9401">
        <ele>76.2</ele>
        <time>2021-08-08T13:39:32Z</time>
      </trkpt>
      <trkpt lat="48.10317" lon="-2.94008">
        <ele>76.2</ele>
        <time>2021-08-08T13:39:33Z</time>
      </trkpt>
      <trkpt lat="48.10311" lon="-2.94006">
        <ele>76.2</ele>
        <time>2021-08-08T13:39:34Z</time>
      </trkpt>
      <trkpt lat="48.10306" lon="-2.94004">
        <ele>76.2</ele>
        <time>2021-08-08T13:39:35Z</time>
      </trkpt>
      <trkpt lat="48.103" lon="-2.94001">
        <ele>76</ele>
        <time>2021-08-08T13:39:36Z</time>
      </trkpt>
      <trkpt lat="48.10295" lon="-2.93999">
        <ele>75.8</ele>
        <time>2021-08-08T13:39:37Z</time>
      </trkpt>
      <trkpt lat="48.10289" lon="-2.93997">
        <ele>75.6</ele>
        <time>2021-08-08T13:39:38Z</time>
      </trkpt>
      <trkpt lat="48.10284" lon="-2.93995">
        <ele>75.2</ele>
        <time>2021-08-08T13:39:39Z</time>
      </trkpt>
      <trkpt lat="48.1028" lon="-2.93993">
        <ele>75</ele>
        <time>2021-08-08T13:39:40Z</time>
      </trkpt>
      <trkpt lat="48.10276" lon="-2.9399">
        <ele>74.6</ele>
        <time>2021-08-08T13:39:41Z</time>
      </trkpt>
      <trkpt lat="48.10271" lon="-2.93988">
        <ele>74.6</ele>
        <time>2021-08-08T13:39:42Z</time>
      </trkpt>
      <trkpt lat="48.10267" lon="-2.93986">
        <ele>74.4</ele>
        <time>2021-08-08T13:39:43Z</time>
      </trkpt>
      <trkpt lat="48.10263" lon="-2.93983">
        <ele>74.4</ele>
        <time>2021-08-08T13:39:44Z</time>
      </trkpt>
      <trkpt lat="48.10259" lon="-2.93981">
        <ele>74.2</ele>
        <time>2021-08-08T13:39:45Z</time>
      </trkpt>
      <trkpt lat="48.10255" lon="-2.9398">
        <ele>74.2</ele>
        <time>2021-08-08T13:39:46Z</time>
      </trkpt>
      <trkpt lat="48.10251" lon="-2.93978">
        <ele>74.2</ele>
        <time>2021-08-08T13:39:47Z</time>
      </trkpt>
      <trkpt lat="48.10247" lon="-2.93977">
        <ele>74.2</ele>
        <time>2021-08-08T13:39:48Z</time>
      </trkpt>
      <trkpt lat="48.10243" lon="-2.93976">
        <ele>74.2</ele>
        <time>2021-08-08T13:39:49Z</time>
      </trkpt>
      <trkpt lat="48.10238" lon="-2.93973">
        <ele>74.2</ele>
        <time>2021-08-08T13:39:50Z</time>
      </trkpt>
      <trkpt lat="48.10233" lon="-2.93972">
        <ele>74.2</ele>
        <time>2021-08-08T13:39:51Z</time>
      </trkpt>
      <trkpt lat="48.10228" lon="-2.9397">
        <ele>74.2</ele>
        <time>2021-08-08T13:39:52Z</time>
      </trkpt>
      <trkpt lat="48.10223" lon="-2.93968">
        <ele>74.2</ele>
        <time>2021-08-08T13:39:53Z</time>
      </trkpt>
      <trkpt lat="48.10218" lon="-2.93966">
        <ele>74.2</ele>
        <time>2021-08-08T13:39:54Z</time>
      </trkpt>
      <trkpt lat="48.10212" lon="-2.93966">
        <ele>74.2</ele>
        <time>2021-08-08T13:39:55Z</time>
      </trkpt>
      <trkpt lat="48.10207" lon="-2.93965">
        <ele>74.2</ele>
        <time>2021-08-08T13:39:56Z</time>
      </trkpt>
      <trkpt lat="48.10202" lon="-2.93965">
        <ele>74.2</ele>
        <time>2021-08-08T13:39:57Z</time>
      </trkpt>
      <trkpt lat="48.10197" lon="-2.93963">
        <ele>74.2</ele>
        <time>2021-08-08T13:39:58Z</time>
      </trkpt>
      <trkpt lat="48.10192" lon="-2.93961">
        <ele>74.2</ele>
        <time>2021-08-08T13:39:59Z</time>
      </trkpt>
      <trkpt lat="48.10188" lon="-2.93959">
        <ele>74.2</ele>
        <time>2021-08-08T13:40:00Z</time>
      </trkpt>
      <trkpt lat="48.10183" lon="-2.93957">
        <ele>74.4</ele>
        <time>2021-08-08T13:40:01Z</time>
      </trkpt>
      <trkpt lat="48.10178" lon="-2.93955">
        <ele>74.6</ele>
        <time>2021-08-08T13:40:02Z</time>
      </trkpt>
      <trkpt lat="48.10174" lon="-2.93952">
        <ele>74.6</ele>
        <time>2021-08-08T13:40:03Z</time>
      </trkpt>
      <trkpt lat="48.10166" lon="-2.93951">
        <ele>74.8</ele>
        <time>2021-08-08T13:40:04Z</time>
      </trkpt>
      <trkpt lat="48.10159" lon="-2.93948">
        <ele>74.8</ele>
        <time>2021-08-08T13:40:05Z</time>
      </trkpt>
      <trkpt lat="48.10153" lon="-2.93945">
        <ele>74.8</ele>
        <time>2021-08-08T13:40:06Z</time>
      </trkpt>
      <trkpt lat="48.10147" lon="-2.93942">
        <ele>74.8</ele>
        <time>2021-08-08T13:40:07Z</time>
      </trkpt>
      <trkpt lat="48.10142" lon="-2.93939">
        <ele>74.8</ele>
        <time>2021-08-08T13:40:08Z</time>
      </trkpt>
      <trkpt lat="48.10137" lon="-2.93935">
        <ele>74.8</ele>
        <time>2021-08-08T13:40:09Z</time>
      </trkpt>
      <trkpt lat="48.10131" lon="-2.93933">
        <ele>74.8</ele>
        <time>2021-08-08T13:40:10Z</time>
      </trkpt>
      <trkpt lat="48.10126" lon="-2.9393">
        <ele>74.8</ele>
        <time>2021-08-08T13:40:11Z</time>
      </trkpt>
      <trkpt lat="48.10121" lon="-2.93927">
        <ele>74.8</ele>
        <time>2021-08-08T13:40:12Z</time>
      </trkpt>
      <trkpt lat="48.10116" lon="-2.93924">
        <ele>74.8</ele>
        <time>2021-08-08T13:40:13Z</time>
      </trkpt>
      <trkpt lat="48.10111" lon="-2.93921">
        <ele>74.8</ele>
        <time>2021-08-08T13:40:14Z</time>
      </trkpt>
      <trkpt lat="48.10106" lon="-2.93918">
        <ele>74.8</ele>
        <time>2021-08-08T13:40:15Z</time>
      </trkpt>
      <trkpt lat="48.10101" lon="-2.93915">
        <ele>74.8</ele>
        <time>2021-08-08T13:40:16Z</time>
      </trkpt>
      <trkpt lat="48.10095" lon="-2.93912">
        <ele>74.8</ele>
        <time>2021-08-08T13:40:17Z</time>
      </trkpt>
      <trkpt lat="48.1009" lon="-2.93909">
        <ele>74.8</ele>
        <time>2021-08-08T13:40:18Z</time>
      </trkpt>
      <trkpt lat="48.10085" lon="-2.93906">
        <ele>74.8</ele>
        <time>2021-08-08T13:40:19Z</time>
      </trkpt>
      <trkpt lat="48.1008" lon="-2.93902">
        <ele>74.6</ele>
        <time>2021-08-08T13:40:20Z</time>
      </trkpt>
      <trkpt lat="48.10074" lon="-2.93899">
        <ele>74.6</ele>
        <time>2021-08-08T13:40:21Z</time>
      </trkpt>
      <trkpt lat="48.10068" lon="-2.93896">
        <ele>74.6</ele>
        <time>2021-08-08T13:40:22Z</time>
      </trkpt>
      <trkpt lat="48.10063" lon="-2.93893">
        <ele>74.6</ele>
        <time>2021-08-08T13:40:23Z</time>
      </trkpt>
      <trkpt lat="48.10058" lon="-2.9389">
        <ele>74.4</ele>
        <time>2021-08-08T13:40:24Z</time>
      </trkpt>
      <trkpt lat="48.10054" lon="-2.93888">
        <ele>74.4</ele>
        <time>2021-08-08T13:40:25Z</time>
      </trkpt>
      <trkpt lat="48.1005" lon="-2.93886">
        <ele>74.4</ele>
        <time>2021-08-08T13:40:26Z</time>
      </trkpt>
      <trkpt lat="48.10045" lon="-2.93882">
        <ele>74.4</ele>
        <time>2021-08-08T13:40:27Z</time>
      </trkpt>
      <trkpt lat="48.1004" lon="-2.93879">
        <ele>74.2</ele>
        <time>2021-08-08T13:40:28Z</time>
      </trkpt>
      <trkpt lat="48.10034" lon="-2.93875">
        <ele>74.2</ele>
        <time>2021-08-08T13:40:29Z</time>
      </trkpt>
      <trkpt lat="48.10029" lon="-2.93872">
        <ele>74.2</ele>
        <time>2021-08-08T13:40:30Z</time>
      </trkpt>
      <trkpt lat="48.10024" lon="-2.93869">
        <ele>74.2</ele>
        <time>2021-08-08T13:40:31Z</time>
      </trkpt>
      <trkpt lat="48.10018" lon="-2.93866">
        <ele>74</ele>
        <time>2021-08-08T13:40:32Z</time>
      </trkpt>
      <trkpt lat="48.10014" lon="-2.93864">
        <ele>74</ele>
        <time>2021-08-08T13:40:33Z</time>
      </trkpt>
      <trkpt lat="48.10009" lon="-2.93862">
        <ele>74</ele>
        <time>2021-08-08T13:40:34Z</time>
      </trkpt>
      <trkpt lat="48.10004" lon="-2.93859">
        <ele>74</ele>
        <time>2021-08-08T13:40:35Z</time>
      </trkpt>
      <trkpt lat="48.09999" lon="-2.93856">
        <ele>74</ele>
        <time>2021-08-08T13:40:36Z</time>
      </trkpt>
      <trkpt lat="48.09994" lon="-2.93852">
        <ele>74</ele>
        <time>2021-08-08T13:40:37Z</time>
      </trkpt>
      <trkpt lat="48.0999" lon="-2.93849">
        <ele>74</ele>
        <time>2021-08-08T13:40:38Z</time>
      </trkpt>
      <trkpt lat="48.09985" lon="-2.93846">
        <ele>74</ele>
        <time>2021-08-08T13:40:39Z</time>
      </trkpt>
      <trkpt lat="48.09981" lon="-2.93843">
        <ele>74</ele>
        <time>2021-08-08T13:40:40Z</time>
      </trkpt>
      <trkpt lat="48.09976" lon="-2.93841">
        <ele>74</ele>
        <time>2021-08-08T13:40:41Z</time>
      </trkpt>
      <trkpt lat="48.09971" lon="-2.93838">
        <ele>74</ele>
        <time>2021-08-08T13:40:42Z</time>
      </trkpt>
      <trkpt lat="48.09967" lon="-2.93835">
        <ele>74</ele>
        <time>2021-08-08T13:40:43Z</time>
      </trkpt>
      <trkpt lat="48.09963" lon="-2.93832">
        <ele>74</ele>
        <time>2021-08-08T13:40:44Z</time>
      </trkpt>
      <trkpt lat="48.09959" lon="-2.93829">
        <ele>74</ele>
        <time>2021-08-08T13:40:45Z</time>
      </trkpt>
      <trkpt lat="48.09954" lon="-2.93827">
        <ele>74</ele>
        <time>2021-08-08T13:40:46Z</time>
      </trkpt>
      <trkpt lat="48.09949" lon="-2.93825">
        <ele>74</ele>
        <time>2021-08-08T13:40:47Z</time>
      </trkpt>
      <trkpt lat="48.09945" lon="-2.93823">
        <ele>74</ele>
        <time>2021-08-08T13:40:48Z</time>
      </trkpt>
      <trkpt lat="48.09941" lon="-2.93822">
        <ele>74</ele>
        <time>2021-08-08T13:40:49Z</time>
      </trkpt>
      <trkpt lat="48.09937" lon="-2.9382">
        <ele>74</ele>
        <time>2021-08-08T13:40:50Z</time>
      </trkpt>
      <trkpt lat="48.09933" lon="-2.93818">
        <ele>74.2</ele>
        <time>2021-08-08T13:40:51Z</time>
      </trkpt>
      <trkpt lat="48.0993" lon="-2.93815">
        <ele>74.2</ele>
        <time>2021-08-08T13:40:52Z</time>
      </trkpt>
      <trkpt lat="48.09926" lon="-2.93812">
        <ele>74.2</ele>
        <time>2021-08-08T13:40:53Z</time>
      </trkpt>
      <trkpt lat="48.09922" lon="-2.9381">
        <ele>74.2</ele>
        <time>2021-08-08T13:40:54Z</time>
      </trkpt>
      <trkpt lat="48.09918" lon="-2.93807">
        <ele>74.4</ele>
        <time>2021-08-08T13:40:55Z</time>
      </trkpt>
      <trkpt lat="48.09914" lon="-2.93805">
        <ele>74.4</ele>
        <time>2021-08-08T13:40:56Z</time>
      </trkpt>
      <trkpt lat="48.09909" lon="-2.93803">
        <ele>74.4</ele>
        <time>2021-08-08T13:40:57Z</time>
      </trkpt>
      <trkpt lat="48.09904" lon="-2.938">
        <ele>74.2</ele>
        <time>2021-08-08T13:40:58Z</time>
      </trkpt>
      <trkpt lat="48.09899" lon="-2.93797">
        <ele>74.2</ele>
        <time>2021-08-08T13:40:59Z</time>
      </trkpt>
      <trkpt lat="48.09894" lon="-2.93793">
        <ele>74.2</ele>
        <time>2021-08-08T13:41:00Z</time>
      </trkpt>
      <trkpt lat="48.09889" lon="-2.9379">
        <ele>74.2</ele>
        <time>2021-08-08T13:41:01Z</time>
      </trkpt>
      <trkpt lat="48.09884" lon="-2.93786">
        <ele>74.2</ele>
        <time>2021-08-08T13:41:02Z</time>
      </trkpt>
      <trkpt lat="48.09879" lon="-2.93783">
        <ele>74.2</ele>
        <time>2021-08-08T13:41:03Z</time>
      </trkpt>
      <trkpt lat="48.09875" lon="-2.9378">
        <ele>74.2</ele>
        <time>2021-08-08T13:41:04Z</time>
      </trkpt>
      <trkpt lat="48.09871" lon="-2.93778">
        <ele>74.2</ele>
        <time>2021-08-08T13:41:05Z</time>
      </trkpt>
      <trkpt lat="48.09867" lon="-2.93775">
        <ele>74.2</ele>
        <time>2021-08-08T13:41:06Z</time>
      </trkpt>
      <trkpt lat="48.09863" lon="-2.93771">
        <ele>74.2</ele>
        <time>2021-08-08T13:41:07Z</time>
      </trkpt>
      <trkpt lat="48.09859" lon="-2.93769">
        <ele>74.2</ele>
        <time>2021-08-08T13:41:08Z</time>
      </trkpt>
      <trkpt lat="48.09855" lon="-2.93766">
        <ele>74.2</ele>
        <time>2021-08-08T13:41:09Z</time>
      </trkpt>
      <trkpt lat="48.09851" lon="-2.93763">
        <ele>74.2</ele>
        <time>2021-08-08T13:41:10Z</time>
      </trkpt>
      <trkpt lat="48.09846" lon="-2.9376">
        <ele>74</ele>
        <time>2021-08-08T13:41:11Z</time>
      </trkpt>
      <trkpt lat="48.09841" lon="-2.93758">
        <ele>74.2</ele>
        <time>2021-08-08T13:41:12Z</time>
      </trkpt>
      <trkpt lat="48.09837" lon="-2.93756">
        <ele>74</ele>
        <time>2021-08-08T13:41:13Z</time>
      </trkpt>
      <trkpt lat="48.09833" lon="-2.93755">
        <ele>74</ele>
        <time>2021-08-08T13:41:14Z</time>
      </trkpt>
      <trkpt lat="48.09829" lon="-2.93753">
        <ele>74</ele>
        <time>2021-08-08T13:41:15Z</time>
      </trkpt>
      <trkpt lat="48.09824" lon="-2.93751">
        <ele>74</ele>
        <time>2021-08-08T13:41:16Z</time>
      </trkpt>
      <trkpt lat="48.0982" lon="-2.93749">
        <ele>74</ele>
        <time>2021-08-08T13:41:17Z</time>
      </trkpt>
      <trkpt lat="48.09815" lon="-2.93747">
        <ele>74</ele>
        <time>2021-08-08T13:41:18Z</time>
      </trkpt>
      <trkpt lat="48.09811" lon="-2.93744">
        <ele>74</ele>
        <time>2021-08-08T13:41:19Z</time>
      </trkpt>
      <trkpt lat="48.09806" lon="-2.93741">
        <ele>74</ele>
        <time>2021-08-08T13:41:20Z</time>
      </trkpt>
      <trkpt lat="48.09802" lon="-2.93739">
        <ele>74</ele>
        <time>2021-08-08T13:41:21Z</time>
      </trkpt>
      <trkpt lat="48.09797" lon="-2.93737">
        <ele>74</ele>
        <time>2021-08-08T13:41:22Z</time>
      </trkpt>
      <trkpt lat="48.09793" lon="-2.93734">
        <ele>74</ele>
        <time>2021-08-08T13:41:23Z</time>
      </trkpt>
      <trkpt lat="48.09788" lon="-2.93731">
        <ele>74.2</ele>
        <time>2021-08-08T13:41:24Z</time>
      </trkpt>
      <trkpt lat="48.09783" lon="-2.93728">
        <ele>74</ele>
        <time>2021-08-08T13:41:25Z</time>
      </trkpt>
      <trkpt lat="48.09778" lon="-2.93725">
        <ele>74</ele>
        <time>2021-08-08T13:41:26Z</time>
      </trkpt>
      <trkpt lat="48.09773" lon="-2.93722">
        <ele>74</ele>
        <time>2021-08-08T13:41:27Z</time>
      </trkpt>
      <trkpt lat="48.09768" lon="-2.93718">
        <ele>74</ele>
        <time>2021-08-08T13:41:28Z</time>
      </trkpt>
      <trkpt lat="48.09763" lon="-2.93715">
        <ele>74</ele>
        <time>2021-08-08T13:41:29Z</time>
      </trkpt>
      <trkpt lat="48.09759" lon="-2.93712">
        <ele>74</ele>
        <time>2021-08-08T13:41:30Z</time>
      </trkpt>
      <trkpt lat="48.09755" lon="-2.9371">
        <ele>74</ele>
        <time>2021-08-08T13:41:31Z</time>
      </trkpt>
      <trkpt lat="48.09751" lon="-2.93707">
        <ele>73.8</ele>
        <time>2021-08-08T13:41:32Z</time>
      </trkpt>
      <trkpt lat="48.09747" lon="-2.93705">
        <ele>73.8</ele>
        <time>2021-08-08T13:41:33Z</time>
      </trkpt>
      <trkpt lat="48.09742" lon="-2.93703">
        <ele>73.8</ele>
        <time>2021-08-08T13:41:34Z</time>
      </trkpt>
      <trkpt lat="48.09738" lon="-2.937">
        <ele>73.8</ele>
        <time>2021-08-08T13:41:35Z</time>
      </trkpt>
      <trkpt lat="48.09734" lon="-2.93697">
        <ele>73.8</ele>
        <time>2021-08-08T13:41:36Z</time>
      </trkpt>
      <trkpt lat="48.09729" lon="-2.93695">
        <ele>73.8</ele>
        <time>2021-08-08T13:41:37Z</time>
      </trkpt>
      <trkpt lat="48.09724" lon="-2.93692">
        <ele>73.8</ele>
        <time>2021-08-08T13:41:38Z</time>
      </trkpt>
      <trkpt lat="48.09719" lon="-2.93689">
        <ele>73.8</ele>
        <time>2021-08-08T13:41:39Z</time>
      </trkpt>
      <trkpt lat="48.09714" lon="-2.93686">
        <ele>73.8</ele>
        <time>2021-08-08T13:41:40Z</time>
      </trkpt>
      <trkpt lat="48.09709" lon="-2.93682">
        <ele>73.6</ele>
        <time>2021-08-08T13:41:41Z</time>
      </trkpt>
      <trkpt lat="48.09704" lon="-2.93679">
        <ele>73</ele>
        <time>2021-08-08T13:41:42Z</time>
      </trkpt>
      <trkpt lat="48.09699" lon="-2.93676">
        <ele>72.6</ele>
        <time>2021-08-08T13:41:43Z</time>
      </trkpt>
      <trkpt lat="48.09694" lon="-2.93674">
        <ele>72.4</ele>
        <time>2021-08-08T13:41:44Z</time>
      </trkpt>
      <trkpt lat="48.09689" lon="-2.93671">
        <ele>72.2</ele>
        <time>2021-08-08T13:41:45Z</time>
      </trkpt>
      <trkpt lat="48.09684" lon="-2.93669">
        <ele>72.2</ele>
        <time>2021-08-08T13:41:46Z</time>
      </trkpt>
      <trkpt lat="48.09679" lon="-2.93668">
        <ele>72</ele>
        <time>2021-08-08T13:41:47Z</time>
      </trkpt>
      <trkpt lat="48.09674" lon="-2.93667">
        <ele>72</ele>
        <time>2021-08-08T13:41:48Z</time>
      </trkpt>
      <trkpt lat="48.09668" lon="-2.93666">
        <ele>71.8</ele>
        <time>2021-08-08T13:41:49Z</time>
      </trkpt>
      <trkpt lat="48.09662" lon="-2.93665">
        <ele>71.8</ele>
        <time>2021-08-08T13:41:50Z</time>
      </trkpt>
      <trkpt lat="48.09657" lon="-2.93664">
        <ele>71.8</ele>
        <time>2021-08-08T13:41:51Z</time>
      </trkpt>
      <trkpt lat="48.09651" lon="-2.93664">
        <ele>71.6</ele>
        <time>2021-08-08T13:41:52Z</time>
      </trkpt>
      <trkpt lat="48.09645" lon="-2.93664">
        <ele>71.4</ele>
        <time>2021-08-08T13:41:53Z</time>
      </trkpt>
      <trkpt lat="48.0964" lon="-2.93663">
        <ele>71.2</ele>
        <time>2021-08-08T13:41:54Z</time>
      </trkpt>
      <trkpt lat="48.09635" lon="-2.93663">
        <ele>71</ele>
        <time>2021-08-08T13:41:55Z</time>
      </trkpt>
      <trkpt lat="48.09629" lon="-2.93662">
        <ele>71</ele>
        <time>2021-08-08T13:41:56Z</time>
      </trkpt>
      <trkpt lat="48.09625" lon="-2.93662">
        <ele>71</ele>
        <time>2021-08-08T13:41:57Z</time>
      </trkpt>
      <trkpt lat="48.0962" lon="-2.93661">
        <ele>70.8</ele>
        <time>2021-08-08T13:41:58Z</time>
      </trkpt>
      <trkpt lat="48.09614" lon="-2.93661">
        <ele>70.8</ele>
        <time>2021-08-08T13:41:59Z</time>
      </trkpt>
      <trkpt lat="48.09609" lon="-2.9366">
        <ele>70.8</ele>
        <time>2021-08-08T13:42:00Z</time>
      </trkpt>
      <trkpt lat="48.09604" lon="-2.9366">
        <ele>70.8</ele>
        <time>2021-08-08T13:42:01Z</time>
      </trkpt>
      <trkpt lat="48.09599" lon="-2.9366">
        <ele>70.8</ele>
        <time>2021-08-08T13:42:02Z</time>
      </trkpt>
      <trkpt lat="48.09595" lon="-2.9366">
        <ele>70.8</ele>
        <time>2021-08-08T13:42:03Z</time>
      </trkpt>
      <trkpt lat="48.09591" lon="-2.93659">
        <ele>70.8</ele>
        <time>2021-08-08T13:42:04Z</time>
      </trkpt>
      <trkpt lat="48.09586" lon="-2.93659">
        <ele>70.8</ele>
        <time>2021-08-08T13:42:05Z</time>
      </trkpt>
      <trkpt lat="48.09581" lon="-2.93659">
        <ele>70.8</ele>
        <time>2021-08-08T13:42:06Z</time>
      </trkpt>
      <trkpt lat="48.09576" lon="-2.93659">
        <ele>70.8</ele>
        <time>2021-08-08T13:42:07Z</time>
      </trkpt>
      <trkpt lat="48.09571" lon="-2.93659">
        <ele>70.8</ele>
        <time>2021-08-08T13:42:08Z</time>
      </trkpt>
      <trkpt lat="48.09566" lon="-2.93658">
        <ele>70.8</ele>
        <time>2021-08-08T13:42:09Z</time>
      </trkpt>
      <trkpt lat="48.09561" lon="-2.93658">
        <ele>70.8</ele>
        <time>2021-08-08T13:42:10Z</time>
      </trkpt>
      <trkpt lat="48.09557" lon="-2.93658">
        <ele>71</ele>
        <time>2021-08-08T13:42:11Z</time>
      </trkpt>
      <trkpt lat="48.09553" lon="-2.93658">
        <ele>71</ele>
        <time>2021-08-08T13:42:12Z</time>
      </trkpt>
      <trkpt lat="48.09549" lon="-2.93658">
        <ele>71</ele>
        <time>2021-08-08T13:42:13Z</time>
      </trkpt>
      <trkpt lat="48.09545" lon="-2.93657">
        <ele>71</ele>
        <time>2021-08-08T13:42:14Z</time>
      </trkpt>
      <trkpt lat="48.09541" lon="-2.93657">
        <ele>71</ele>
        <time>2021-08-08T13:42:15Z</time>
      </trkpt>
      <trkpt lat="48.09536" lon="-2.93657">
        <ele>71</ele>
        <time>2021-08-08T13:42:16Z</time>
      </trkpt>
      <trkpt lat="48.09533" lon="-2.93657">
        <ele>71</ele>
        <time>2021-08-08T13:42:17Z</time>
      </trkpt>
      <trkpt lat="48.0953" lon="-2.93656">
        <ele>71</ele>
        <time>2021-08-08T13:42:18Z</time>
      </trkpt>
      <trkpt lat="48.09527" lon="-2.93656">
        <ele>71.2</ele>
        <time>2021-08-08T13:42:19Z</time>
      </trkpt>
      <trkpt lat="48.09524" lon="-2.93656">
        <ele>71.2</ele>
        <time>2021-08-08T13:42:20Z</time>
      </trkpt>
      <trkpt lat="48.0952" lon="-2.93656">
        <ele>71.2</ele>
        <time>2021-08-08T13:42:21Z</time>
      </trkpt>
      <trkpt lat="48.09516" lon="-2.93655">
        <ele>71.2</ele>
        <time>2021-08-08T13:42:22Z</time>
      </trkpt>
      <trkpt lat="48.09512" lon="-2.93654">
        <ele>71.2</ele>
        <time>2021-08-08T13:42:23Z</time>
      </trkpt>
      <trkpt lat="48.09509" lon="-2.93654">
        <ele>71.2</ele>
        <time>2021-08-08T13:42:24Z</time>
      </trkpt>
      <trkpt lat="48.09505" lon="-2.93654">
        <ele>71.2</ele>
        <time>2021-08-08T13:42:25Z</time>
      </trkpt>
      <trkpt lat="48.09501" lon="-2.93653">
        <ele>71.2</ele>
        <time>2021-08-08T13:42:26Z</time>
      </trkpt>
      <trkpt lat="48.09497" lon="-2.93653">
        <ele>71.2</ele>
        <time>2021-08-08T13:42:27Z</time>
      </trkpt>
      <trkpt lat="48.09493" lon="-2.93653">
        <ele>71.4</ele>
        <time>2021-08-08T13:42:28Z</time>
      </trkpt>
      <trkpt lat="48.09489" lon="-2.93652">
        <ele>71.4</ele>
        <time>2021-08-08T13:42:29Z</time>
      </trkpt>
      <trkpt lat="48.09484" lon="-2.93651">
        <ele>71.4</ele>
        <time>2021-08-08T13:42:30Z</time>
      </trkpt>
      <trkpt lat="48.09478" lon="-2.93651">
        <ele>71.4</ele>
        <time>2021-08-08T13:42:31Z</time>
      </trkpt>
      <trkpt lat="48.09473" lon="-2.93651">
        <ele>71.4</ele>
        <time>2021-08-08T13:42:32Z</time>
      </trkpt>
      <trkpt lat="48.09468" lon="-2.93651">
        <ele>71.4</ele>
        <time>2021-08-08T13:42:33Z</time>
      </trkpt>
      <trkpt lat="48.09462" lon="-2.93651">
        <ele>71.4</ele>
        <time>2021-08-08T13:42:34Z</time>
      </trkpt>
      <trkpt lat="48.09456" lon="-2.9365">
        <ele>71.4</ele>
        <time>2021-08-08T13:42:35Z</time>
      </trkpt>
      <trkpt lat="48.09451" lon="-2.9365">
        <ele>71.4</ele>
        <time>2021-08-08T13:42:36Z</time>
      </trkpt>
      <trkpt lat="48.09445" lon="-2.93649">
        <ele>71.4</ele>
        <time>2021-08-08T13:42:37Z</time>
      </trkpt>
      <trkpt lat="48.0944" lon="-2.93649">
        <ele>71.2</ele>
        <time>2021-08-08T13:42:38Z</time>
      </trkpt>
      <trkpt lat="48.09434" lon="-2.93649">
        <ele>71.2</ele>
        <time>2021-08-08T13:42:39Z</time>
      </trkpt>
      <trkpt lat="48.09428" lon="-2.93648">
        <ele>71</ele>
        <time>2021-08-08T13:42:40Z</time>
      </trkpt>
      <trkpt lat="48.09422" lon="-2.93648">
        <ele>71</ele>
        <time>2021-08-08T13:42:41Z</time>
      </trkpt>
      <trkpt lat="48.09417" lon="-2.93648">
        <ele>70.8</ele>
        <time>2021-08-08T13:42:42Z</time>
      </trkpt>
      <trkpt lat="48.09412" lon="-2.93647">
        <ele>70.8</ele>
        <time>2021-08-08T13:42:43Z</time>
      </trkpt>
      <trkpt lat="48.09407" lon="-2.93647">
        <ele>70.6</ele>
        <time>2021-08-08T13:42:44Z</time>
      </trkpt>
      <trkpt lat="48.09403" lon="-2.93646">
        <ele>70.2</ele>
        <time>2021-08-08T13:42:45Z</time>
      </trkpt>
      <trkpt lat="48.09398" lon="-2.93646">
        <ele>70.2</ele>
        <time>2021-08-08T13:42:46Z</time>
      </trkpt>
      <trkpt lat="48.09394" lon="-2.93645">
        <ele>69.8</ele>
        <time>2021-08-08T13:42:47Z</time>
      </trkpt>
      <trkpt lat="48.0939" lon="-2.93644">
        <ele>69.4</ele>
        <time>2021-08-08T13:42:48Z</time>
      </trkpt>
      <trkpt lat="48.09386" lon="-2.93643">
        <ele>69</ele>
        <time>2021-08-08T13:42:49Z</time>
      </trkpt>
      <trkpt lat="48.09381" lon="-2.93643">
        <ele>68.6</ele>
        <time>2021-08-08T13:42:50Z</time>
      </trkpt>
      <trkpt lat="48.09377" lon="-2.93643">
        <ele>68.4</ele>
        <time>2021-08-08T13:42:51Z</time>
      </trkpt>
      <trkpt lat="48.09372" lon="-2.93643">
        <ele>68.2</ele>
        <time>2021-08-08T13:42:52Z</time>
      </trkpt>
      <trkpt lat="48.09367" lon="-2.93643">
        <ele>68.2</ele>
        <time>2021-08-08T13:42:53Z</time>
      </trkpt>
      <trkpt lat="48.09362" lon="-2.93644">
        <ele>68.2</ele>
        <time>2021-08-08T13:42:54Z</time>
      </trkpt>
      <trkpt lat="48.09357" lon="-2.93644">
        <ele>68.2</ele>
        <time>2021-08-08T13:42:55Z</time>
      </trkpt>
      <trkpt lat="48.09352" lon="-2.93645">
        <ele>68.2</ele>
        <time>2021-08-08T13:42:56Z</time>
      </trkpt>
      <trkpt lat="48.09348" lon="-2.93645">
        <ele>68.2</ele>
        <time>2021-08-08T13:42:57Z</time>
      </trkpt>
      <trkpt lat="48.09343" lon="-2.93646">
        <ele>68.2</ele>
        <time>2021-08-08T13:42:58Z</time>
      </trkpt>
      <trkpt lat="48.0934" lon="-2.93647">
        <ele>68.2</ele>
        <time>2021-08-08T13:42:59Z</time>
      </trkpt>
      <trkpt lat="48.09336" lon="-2.93648">
        <ele>68.2</ele>
        <time>2021-08-08T13:43:00Z</time>
      </trkpt>
      <trkpt lat="48.09332" lon="-2.93648">
        <ele>68.2</ele>
        <time>2021-08-08T13:43:01Z</time>
      </trkpt>
      <trkpt lat="48.09328" lon="-2.93648">
        <ele>68.2</ele>
        <time>2021-08-08T13:43:02Z</time>
      </trkpt>
      <trkpt lat="48.09324" lon="-2.93648">
        <ele>68.2</ele>
        <time>2021-08-08T13:43:03Z</time>
      </trkpt>
      <trkpt lat="48.0932" lon="-2.93649">
        <ele>68.2</ele>
        <time>2021-08-08T13:43:04Z</time>
      </trkpt>
      <trkpt lat="48.09316" lon="-2.93649">
        <ele>68.2</ele>
        <time>2021-08-08T13:43:05Z</time>
      </trkpt>
      <trkpt lat="48.09312" lon="-2.9365">
        <ele>68.2</ele>
        <time>2021-08-08T13:43:06Z</time>
      </trkpt>
      <trkpt lat="48.09307" lon="-2.93651">
        <ele>68.2</ele>
        <time>2021-08-08T13:43:07Z</time>
      </trkpt>
      <trkpt lat="48.09302" lon="-2.93652">
        <ele>68.4</ele>
        <time>2021-08-08T13:43:08Z</time>
      </trkpt>
      <trkpt lat="48.09298" lon="-2.93652">
        <ele>68.4</ele>
        <time>2021-08-08T13:43:09Z</time>
      </trkpt>
      <trkpt lat="48.09294" lon="-2.93653">
        <ele>68.4</ele>
        <time>2021-08-08T13:43:10Z</time>
      </trkpt>
      <trkpt lat="48.0929" lon="-2.93654">
        <ele>68.4</ele>
        <time>2021-08-08T13:43:11Z</time>
      </trkpt>
      <trkpt lat="48.09285" lon="-2.93654">
        <ele>68.6</ele>
        <time>2021-08-08T13:43:12Z</time>
      </trkpt>
      <trkpt lat="48.09279" lon="-2.93655">
        <ele>68.6</ele>
        <time>2021-08-08T13:43:13Z</time>
      </trkpt>
      <trkpt lat="48.09274" lon="-2.93655">
        <ele>68.6</ele>
        <time>2021-08-08T13:43:14Z</time>
      </trkpt>
      <trkpt lat="48.09269" lon="-2.93656">
        <ele>68.6</ele>
        <time>2021-08-08T13:43:15Z</time>
      </trkpt>
      <trkpt lat="48.09264" lon="-2.93657">
        <ele>68.8</ele>
        <time>2021-08-08T13:43:16Z</time>
      </trkpt>
      <trkpt lat="48.09258" lon="-2.93659">
        <ele>68.8</ele>
        <time>2021-08-08T13:43:17Z</time>
      </trkpt>
      <trkpt lat="48.09253" lon="-2.93661">
        <ele>68.8</ele>
        <time>2021-08-08T13:43:18Z</time>
      </trkpt>
      <trkpt lat="48.09248" lon="-2.93662">
        <ele>68.8</ele>
        <time>2021-08-08T13:43:19Z</time>
      </trkpt>
      <trkpt lat="48.09243" lon="-2.93663">
        <ele>68.8</ele>
        <time>2021-08-08T13:43:20Z</time>
      </trkpt>
      <trkpt lat="48.09237" lon="-2.93665">
        <ele>68.8</ele>
        <time>2021-08-08T13:43:21Z</time>
      </trkpt>
      <trkpt lat="48.09232" lon="-2.93666">
        <ele>68.8</ele>
        <time>2021-08-08T13:43:22Z</time>
      </trkpt>
      <trkpt lat="48.09227" lon="-2.93667">
        <ele>68.8</ele>
        <time>2021-08-08T13:43:23Z</time>
      </trkpt>
      <trkpt lat="48.09222" lon="-2.93668">
        <ele>69</ele>
        <time>2021-08-08T13:43:24Z</time>
      </trkpt>
      <trkpt lat="48.09217" lon="-2.93669">
        <ele>69</ele>
        <time>2021-08-08T13:43:25Z</time>
      </trkpt>
      <trkpt lat="48.09212" lon="-2.9367">
        <ele>68.8</ele>
        <time>2021-08-08T13:43:26Z</time>
      </trkpt>
      <trkpt lat="48.09206" lon="-2.93672">
        <ele>68.8</ele>
        <time>2021-08-08T13:43:27Z</time>
      </trkpt>
      <trkpt lat="48.09201" lon="-2.93674">
        <ele>68.8</ele>
        <time>2021-08-08T13:43:28Z</time>
      </trkpt>
      <trkpt lat="48.09195" lon="-2.93675">
        <ele>68.8</ele>
        <time>2021-08-08T13:43:29Z</time>
      </trkpt>
      <trkpt lat="48.0919" lon="-2.93676">
        <ele>68.8</ele>
        <time>2021-08-08T13:43:30Z</time>
      </trkpt>
      <trkpt lat="48.09185" lon="-2.93676">
        <ele>68.8</ele>
        <time>2021-08-08T13:43:31Z</time>
      </trkpt>
      <trkpt lat="48.0918" lon="-2.93677">
        <ele>68.8</ele>
        <time>2021-08-08T13:43:32Z</time>
      </trkpt>
      <trkpt lat="48.09174" lon="-2.93679">
        <ele>68.8</ele>
        <time>2021-08-08T13:43:33Z</time>
      </trkpt>
      <trkpt lat="48.09169" lon="-2.9368">
        <ele>68.8</ele>
        <time>2021-08-08T13:43:34Z</time>
      </trkpt>
      <trkpt lat="48.09162" lon="-2.93681">
        <ele>68.8</ele>
        <time>2021-08-08T13:43:35Z</time>
      </trkpt>
      <trkpt lat="48.09157" lon="-2.93682">
        <ele>68.8</ele>
        <time>2021-08-08T13:43:36Z</time>
      </trkpt>
      <trkpt lat="48.09151" lon="-2.93683">
        <ele>68.8</ele>
        <time>2021-08-08T13:43:37Z</time>
      </trkpt>
      <trkpt lat="48.09146" lon="-2.93684">
        <ele>68.8</ele>
        <time>2021-08-08T13:43:38Z</time>
      </trkpt>
      <trkpt lat="48.09141" lon="-2.93685">
        <ele>68.8</ele>
        <time>2021-08-08T13:43:39Z</time>
      </trkpt>
      <trkpt lat="48.09136" lon="-2.93686">
        <ele>68.8</ele>
        <time>2021-08-08T13:43:40Z</time>
      </trkpt>
      <trkpt lat="48.09131" lon="-2.93688">
        <ele>68.8</ele>
        <time>2021-08-08T13:43:41Z</time>
      </trkpt>
      <trkpt lat="48.09126" lon="-2.93689">
        <ele>68.8</ele>
        <time>2021-08-08T13:43:42Z</time>
      </trkpt>
      <trkpt lat="48.09121" lon="-2.9369">
        <ele>68.8</ele>
        <time>2021-08-08T13:43:43Z</time>
      </trkpt>
      <trkpt lat="48.09117" lon="-2.93691">
        <ele>68.8</ele>
        <time>2021-08-08T13:43:44Z</time>
      </trkpt>
      <trkpt lat="48.09113" lon="-2.93691">
        <ele>69</ele>
        <time>2021-08-08T13:43:45Z</time>
      </trkpt>
      <trkpt lat="48.09109" lon="-2.93692">
        <ele>69</ele>
        <time>2021-08-08T13:43:46Z</time>
      </trkpt>
      <trkpt lat="48.09105" lon="-2.93693">
        <ele>69</ele>
        <time>2021-08-08T13:43:47Z</time>
      </trkpt>
      <trkpt lat="48.091" lon="-2.93694">
        <ele>69</ele>
        <time>2021-08-08T13:43:48Z</time>
      </trkpt>
      <trkpt lat="48.09095" lon="-2.93695">
        <ele>69</ele>
        <time>2021-08-08T13:43:49Z</time>
      </trkpt>
      <trkpt lat="48.0909" lon="-2.93696">
        <ele>69</ele>
        <time>2021-08-08T13:43:50Z</time>
      </trkpt>
      <trkpt lat="48.09086" lon="-2.93697">
        <ele>69</ele>
        <time>2021-08-08T13:43:51Z</time>
      </trkpt>
      <trkpt lat="48.09082" lon="-2.93698">
        <ele>69</ele>
        <time>2021-08-08T13:43:52Z</time>
      </trkpt>
      <trkpt lat="48.09078" lon="-2.93699">
        <ele>69</ele>
        <time>2021-08-08T13:43:53Z</time>
      </trkpt>
      <trkpt lat="48.09073" lon="-2.937">
        <ele>69</ele>
        <time>2021-08-08T13:43:54Z</time>
      </trkpt>
      <trkpt lat="48.0907" lon="-2.937">
        <ele>69</ele>
        <time>2021-08-08T13:43:55Z</time>
      </trkpt>
      <trkpt lat="48.09065" lon="-2.93702">
        <ele>69</ele>
        <time>2021-08-08T13:43:56Z</time>
      </trkpt>
      <trkpt lat="48.09061" lon="-2.93702">
        <ele>68.8</ele>
        <time>2021-08-08T13:43:57Z</time>
      </trkpt>
      <trkpt lat="48.09058" lon="-2.93703">
        <ele>68.8</ele>
        <time>2021-08-08T13:43:58Z</time>
      </trkpt>
      <trkpt lat="48.09055" lon="-2.93703">
        <ele>68.8</ele>
        <time>2021-08-08T13:43:59Z</time>
      </trkpt>
      <trkpt lat="48.0905" lon="-2.93705">
        <ele>68.6</ele>
        <time>2021-08-08T13:44:00Z</time>
      </trkpt>
      <trkpt lat="48.09044" lon="-2.93706">
        <ele>68.6</ele>
        <time>2021-08-08T13:44:01Z</time>
      </trkpt>
      <trkpt lat="48.09039" lon="-2.93707">
        <ele>68.6</ele>
        <time>2021-08-08T13:44:02Z</time>
      </trkpt>
      <trkpt lat="48.09034" lon="-2.93708">
        <ele>68.6</ele>
        <time>2021-08-08T13:44:03Z</time>
      </trkpt>
      <trkpt lat="48.09029" lon="-2.9371">
        <ele>68.6</ele>
        <time>2021-08-08T13:44:04Z</time>
      </trkpt>
      <trkpt lat="48.09023" lon="-2.93711">
        <ele>68.6</ele>
        <time>2021-08-08T13:44:05Z</time>
      </trkpt>
      <trkpt lat="48.09017" lon="-2.93712">
        <ele>68.6</ele>
        <time>2021-08-08T13:44:06Z</time>
      </trkpt>
      <trkpt lat="48.09011" lon="-2.93713">
        <ele>68.6</ele>
        <time>2021-08-08T13:44:07Z</time>
      </trkpt>
      <trkpt lat="48.09006" lon="-2.93714">
        <ele>68.6</ele>
        <time>2021-08-08T13:44:08Z</time>
      </trkpt>
      <trkpt lat="48.09002" lon="-2.93714">
        <ele>68.6</ele>
        <time>2021-08-08T13:44:09Z</time>
      </trkpt>
      <trkpt lat="48.08998" lon="-2.93715">
        <ele>68.6</ele>
        <time>2021-08-08T13:44:10Z</time>
      </trkpt>
      <trkpt lat="48.08994" lon="-2.93715">
        <ele>68.6</ele>
        <time>2021-08-08T13:44:11Z</time>
      </trkpt>
      <trkpt lat="48.08989" lon="-2.93717">
        <ele>68.6</ele>
        <time>2021-08-08T13:44:12Z</time>
      </trkpt>
      <trkpt lat="48.08985" lon="-2.93718">
        <ele>68.6</ele>
        <time>2021-08-08T13:44:13Z</time>
      </trkpt>
      <trkpt lat="48.0898" lon="-2.9372">
        <ele>68.6</ele>
        <time>2021-08-08T13:44:14Z</time>
      </trkpt>
      <trkpt lat="48.08977" lon="-2.93722">
        <ele>68.6</ele>
        <time>2021-08-08T13:44:15Z</time>
      </trkpt>
      <trkpt lat="48.08972" lon="-2.93724">
        <ele>68.6</ele>
        <time>2021-08-08T13:44:16Z</time>
      </trkpt>
      <trkpt lat="48.08968" lon="-2.93727">
        <ele>68.4</ele>
        <time>2021-08-08T13:44:17Z</time>
      </trkpt>
      <trkpt lat="48.08964" lon="-2.9373">
        <ele>68.4</ele>
        <time>2021-08-08T13:44:18Z</time>
      </trkpt>
      <trkpt lat="48.0896" lon="-2.93733">
        <ele>68.2</ele>
        <time>2021-08-08T13:44:19Z</time>
      </trkpt>
      <trkpt lat="48.08956" lon="-2.93737">
        <ele>67.8</ele>
        <time>2021-08-08T13:44:20Z</time>
      </trkpt>
      <trkpt lat="48.08953" lon="-2.9374">
        <ele>67.6</ele>
        <time>2021-08-08T13:44:21Z</time>
      </trkpt>
      <trkpt lat="48.0895" lon="-2.93743">
        <ele>67.4</ele>
        <time>2021-08-08T13:44:22Z</time>
      </trkpt>
      <trkpt lat="48.08946" lon="-2.93747">
        <ele>67.2</ele>
        <time>2021-08-08T13:44:23Z</time>
      </trkpt>
      <trkpt lat="48.08942" lon="-2.9375">
        <ele>67</ele>
        <time>2021-08-08T13:44:24Z</time>
      </trkpt>
      <trkpt lat="48.08939" lon="-2.93753">
        <ele>66.8</ele>
        <time>2021-08-08T13:44:25Z</time>
      </trkpt>
      <trkpt lat="48.08937" lon="-2.93754">
        <ele>66.8</ele>
        <time>2021-08-08T13:44:26Z</time>
      </trkpt>
      <trkpt lat="48.08934" lon="-2.93756">
        <ele>66.8</ele>
        <time>2021-08-08T13:44:27Z</time>
      </trkpt>
      <trkpt lat="48.08932" lon="-2.93757">
        <ele>66.8</ele>
        <time>2021-08-08T13:44:28Z</time>
      </trkpt>
      <trkpt lat="48.08922" lon="-2.93762">
        <ele>67.4</ele>
        <time>2021-08-08T13:45:12Z</time>
      </trkpt>
      <trkpt lat="48.08922" lon="-2.93762">
        <ele>67.4</ele>
        <time>2021-08-08T13:45:13Z</time>
      </trkpt>
      <trkpt lat="48.08922" lon="-2.93762">
        <ele>67.4</ele>
        <time>2021-08-08T13:45:14Z</time>
      </trkpt>
      <trkpt lat="48.08901" lon="-2.93791">
        <ele>67</ele>
        <time>2021-08-08T13:51:41Z</time>
      </trkpt>
      <trkpt lat="48.089" lon="-2.93794">
        <ele>67</ele>
        <time>2021-08-08T13:51:42Z</time>
      </trkpt>
      <trkpt lat="48.08898" lon="-2.93796">
        <ele>67</ele>
        <time>2021-08-08T13:51:43Z</time>
      </trkpt>
      <trkpt lat="48.08898" lon="-2.93798">
        <ele>67</ele>
        <time>2021-08-08T13:51:44Z</time>
      </trkpt>
      <trkpt lat="48.08896" lon="-2.93801">
        <ele>67</ele>
        <time>2021-08-08T13:51:45Z</time>
      </trkpt>
      <trkpt lat="48.08895" lon="-2.93804">
        <ele>67</ele>
        <time>2021-08-08T13:51:46Z</time>
      </trkpt>
      <trkpt lat="48.08893" lon="-2.93807">
        <ele>67</ele>
        <time>2021-08-08T13:51:47Z</time>
      </trkpt>
      <trkpt lat="48.08891" lon="-2.9381">
        <ele>67</ele>
        <time>2021-08-08T13:51:48Z</time>
      </trkpt>
      <trkpt lat="48.08889" lon="-2.93813">
        <ele>67</ele>
        <time>2021-08-08T13:51:49Z</time>
      </trkpt>
      <trkpt lat="48.08886" lon="-2.93817">
        <ele>67</ele>
        <time>2021-08-08T13:51:50Z</time>
      </trkpt>
      <trkpt lat="48.08884" lon="-2.93821">
        <ele>67</ele>
        <time>2021-08-08T13:51:51Z</time>
      </trkpt>
      <trkpt lat="48.08882" lon="-2.93824">
        <ele>67</ele>
        <time>2021-08-08T13:51:52Z</time>
      </trkpt>
      <trkpt lat="48.08879" lon="-2.93829">
        <ele>67</ele>
        <time>2021-08-08T13:51:53Z</time>
      </trkpt>
      <trkpt lat="48.08877" lon="-2.93833">
        <ele>67</ele>
        <time>2021-08-08T13:51:54Z</time>
      </trkpt>
      <trkpt lat="48.08874" lon="-2.93837">
        <ele>67</ele>
        <time>2021-08-08T13:51:55Z</time>
      </trkpt>
      <trkpt lat="48.08871" lon="-2.93841">
        <ele>67</ele>
        <time>2021-08-08T13:51:56Z</time>
      </trkpt>
      <trkpt lat="48.08868" lon="-2.93846">
        <ele>66.8</ele>
        <time>2021-08-08T13:51:57Z</time>
      </trkpt>
      <trkpt lat="48.08865" lon="-2.9385">
        <ele>66.8</ele>
        <time>2021-08-08T13:51:58Z</time>
      </trkpt>
      <trkpt lat="48.08862" lon="-2.93854">
        <ele>66.8</ele>
        <time>2021-08-08T13:51:59Z</time>
      </trkpt>
      <trkpt lat="48.08859" lon="-2.93858">
        <ele>66.6</ele>
        <time>2021-08-08T13:52:00Z</time>
      </trkpt>
      <trkpt lat="48.08856" lon="-2.93863">
        <ele>66.6</ele>
        <time>2021-08-08T13:52:01Z</time>
      </trkpt>
      <trkpt lat="48.08853" lon="-2.93867">
        <ele>66.6</ele>
        <time>2021-08-08T13:52:02Z</time>
      </trkpt>
      <trkpt lat="48.0885" lon="-2.93871">
        <ele>66.6</ele>
        <time>2021-08-08T13:52:03Z</time>
      </trkpt>
      <trkpt lat="48.08847" lon="-2.93876">
        <ele>66.4</ele>
        <time>2021-08-08T13:52:04Z</time>
      </trkpt>
      <trkpt lat="48.08844" lon="-2.93881">
        <ele>66.4</ele>
        <time>2021-08-08T13:52:05Z</time>
      </trkpt>
      <trkpt lat="48.08841" lon="-2.93885">
        <ele>66.4</ele>
        <time>2021-08-08T13:52:06Z</time>
      </trkpt>
      <trkpt lat="48.08839" lon="-2.9389">
        <ele>66.4</ele>
        <time>2021-08-08T13:52:07Z</time>
      </trkpt>
      <trkpt lat="48.08837" lon="-2.93895">
        <ele>66.4</ele>
        <time>2021-08-08T13:52:08Z</time>
      </trkpt>
      <trkpt lat="48.08835" lon="-2.93899">
        <ele>66.4</ele>
        <time>2021-08-08T13:52:09Z</time>
      </trkpt>
      <trkpt lat="48.08832" lon="-2.93903">
        <ele>66.4</ele>
        <time>2021-08-08T13:52:10Z</time>
      </trkpt>
      <trkpt lat="48.0883" lon="-2.93908">
        <ele>66.2</ele>
        <time>2021-08-08T13:52:11Z</time>
      </trkpt>
      <trkpt lat="48.08827" lon="-2.93912">
        <ele>66.2</ele>
        <time>2021-08-08T13:52:12Z</time>
      </trkpt>
      <trkpt lat="48.08824" lon="-2.93917">
        <ele>66</ele>
        <time>2021-08-08T13:52:13Z</time>
      </trkpt>
      <trkpt lat="48.08821" lon="-2.93922">
        <ele>66</ele>
        <time>2021-08-08T13:52:14Z</time>
      </trkpt>
      <trkpt lat="48.08817" lon="-2.93928">
        <ele>65.8</ele>
        <time>2021-08-08T13:52:15Z</time>
      </trkpt>
      <trkpt lat="48.08814" lon="-2.93933">
        <ele>65.8</ele>
        <time>2021-08-08T13:52:16Z</time>
      </trkpt>
      <trkpt lat="48.08811" lon="-2.93939">
        <ele>65.8</ele>
        <time>2021-08-08T13:52:17Z</time>
      </trkpt>
      <trkpt lat="48.08807" lon="-2.93944">
        <ele>65.8</ele>
        <time>2021-08-08T13:52:18Z</time>
      </trkpt>
      <trkpt lat="48.08804" lon="-2.9395">
        <ele>65.8</ele>
        <time>2021-08-08T13:52:19Z</time>
      </trkpt>
      <trkpt lat="48.088" lon="-2.93957">
        <ele>65.8</ele>
        <time>2021-08-08T13:52:20Z</time>
      </trkpt>
      <trkpt lat="48.08796" lon="-2.93963">
        <ele>65.8</ele>
        <time>2021-08-08T13:52:21Z</time>
      </trkpt>
      <trkpt lat="48.08792" lon="-2.93969">
        <ele>65.6</ele>
        <time>2021-08-08T13:52:22Z</time>
      </trkpt>
      <trkpt lat="48.08788" lon="-2.93975">
        <ele>65.6</ele>
        <time>2021-08-08T13:52:23Z</time>
      </trkpt>
      <trkpt lat="48.08784" lon="-2.93981">
        <ele>65.6</ele>
        <time>2021-08-08T13:52:24Z</time>
      </trkpt>
      <trkpt lat="48.0878" lon="-2.93988">
        <ele>65.6</ele>
        <time>2021-08-08T13:52:25Z</time>
      </trkpt>
      <trkpt lat="48.08776" lon="-2.93994">
        <ele>65.6</ele>
        <time>2021-08-08T13:52:26Z</time>
      </trkpt>
      <trkpt lat="48.08772" lon="-2.94">
        <ele>65.6</ele>
        <time>2021-08-08T13:52:27Z</time>
      </trkpt>
      <trkpt lat="48.08769" lon="-2.94006">
        <ele>65.6</ele>
        <time>2021-08-08T13:52:28Z</time>
      </trkpt>
      <trkpt lat="48.08765" lon="-2.94012">
        <ele>65.6</ele>
        <time>2021-08-08T13:52:29Z</time>
      </trkpt>
      <trkpt lat="48.08761" lon="-2.94018">
        <ele>65.6</ele>
        <time>2021-08-08T13:52:30Z</time>
      </trkpt>
      <trkpt lat="48.08757" lon="-2.94024">
        <ele>65.6</ele>
        <time>2021-08-08T13:52:31Z</time>
      </trkpt>
      <trkpt lat="48.08754" lon="-2.9403">
        <ele>65.6</ele>
        <time>2021-08-08T13:52:32Z</time>
      </trkpt>
      <trkpt lat="48.08749" lon="-2.94036">
        <ele>65.6</ele>
        <time>2021-08-08T13:52:33Z</time>
      </trkpt>
      <trkpt lat="48.08745" lon="-2.94042">
        <ele>65.6</ele>
        <time>2021-08-08T13:52:34Z</time>
      </trkpt>
      <trkpt lat="48.08741" lon="-2.94048">
        <ele>65.6</ele>
        <time>2021-08-08T13:52:35Z</time>
      </trkpt>
      <trkpt lat="48.08736" lon="-2.94054">
        <ele>65.6</ele>
        <time>2021-08-08T13:52:36Z</time>
      </trkpt>
      <trkpt lat="48.08733" lon="-2.94059">
        <ele>65.6</ele>
        <time>2021-08-08T13:52:37Z</time>
      </trkpt>
      <trkpt lat="48.0873" lon="-2.94065">
        <ele>66</ele>
        <time>2021-08-08T13:52:38Z</time>
      </trkpt>
      <trkpt lat="48.08726" lon="-2.9407">
        <ele>66</ele>
        <time>2021-08-08T13:52:39Z</time>
      </trkpt>
      <trkpt lat="48.08723" lon="-2.94074">
        <ele>66</ele>
        <time>2021-08-08T13:52:40Z</time>
      </trkpt>
      <trkpt lat="48.08721" lon="-2.94079">
        <ele>66</ele>
        <time>2021-08-08T13:52:41Z</time>
      </trkpt>
      <trkpt lat="48.08718" lon="-2.94082">
        <ele>66.2</ele>
        <time>2021-08-08T13:52:42Z</time>
      </trkpt>
      <trkpt lat="48.08715" lon="-2.94086">
        <ele>66.2</ele>
        <time>2021-08-08T13:52:43Z</time>
      </trkpt>
      <trkpt lat="48.08712" lon="-2.9409">
        <ele>66.2</ele>
        <time>2021-08-08T13:52:44Z</time>
      </trkpt>
      <trkpt lat="48.08709" lon="-2.94094">
        <ele>66.2</ele>
        <time>2021-08-08T13:52:45Z</time>
      </trkpt>
      <trkpt lat="48.08706" lon="-2.94099">
        <ele>66.4</ele>
        <time>2021-08-08T13:52:46Z</time>
      </trkpt>
      <trkpt lat="48.08703" lon="-2.94103">
        <ele>66.4</ele>
        <time>2021-08-08T13:52:47Z</time>
      </trkpt>
      <trkpt lat="48.087" lon="-2.94108">
        <ele>66.6</ele>
        <time>2021-08-08T13:52:48Z</time>
      </trkpt>
      <trkpt lat="48.08698" lon="-2.94113">
        <ele>66.8</ele>
        <time>2021-08-08T13:52:49Z</time>
      </trkpt>
      <trkpt lat="48.08695" lon="-2.94118">
        <ele>66.8</ele>
        <time>2021-08-08T13:52:50Z</time>
      </trkpt>
      <trkpt lat="48.08692" lon="-2.94123">
        <ele>66.8</ele>
        <time>2021-08-08T13:52:51Z</time>
      </trkpt>
      <trkpt lat="48.08689" lon="-2.94128">
        <ele>66.8</ele>
        <time>2021-08-08T13:52:52Z</time>
      </trkpt>
      <trkpt lat="48.08685" lon="-2.94133">
        <ele>66.8</ele>
        <time>2021-08-08T13:52:53Z</time>
      </trkpt>
      <trkpt lat="48.08682" lon="-2.94137">
        <ele>66.8</ele>
        <time>2021-08-08T13:52:54Z</time>
      </trkpt>
      <trkpt lat="48.0868" lon="-2.94141">
        <ele>66.8</ele>
        <time>2021-08-08T13:52:55Z</time>
      </trkpt>
      <trkpt lat="48.08677" lon="-2.94145">
        <ele>66.8</ele>
        <time>2021-08-08T13:52:56Z</time>
      </trkpt>
      <trkpt lat="48.08675" lon="-2.94149">
        <ele>66.8</ele>
        <time>2021-08-08T13:52:57Z</time>
      </trkpt>
      <trkpt lat="48.08673" lon="-2.94153">
        <ele>66.8</ele>
        <time>2021-08-08T13:52:58Z</time>
      </trkpt>
      <trkpt lat="48.08671" lon="-2.94157">
        <ele>66.8</ele>
        <time>2021-08-08T13:52:59Z</time>
      </trkpt>
      <trkpt lat="48.0867" lon="-2.9416">
        <ele>66.8</ele>
        <time>2021-08-08T13:53:00Z</time>
      </trkpt>
      <trkpt lat="48.08668" lon="-2.94164">
        <ele>67</ele>
        <time>2021-08-08T13:53:01Z</time>
      </trkpt>
      <trkpt lat="48.08666" lon="-2.94168">
        <ele>66.8</ele>
        <time>2021-08-08T13:53:02Z</time>
      </trkpt>
      <trkpt lat="48.08663" lon="-2.94172">
        <ele>66.8</ele>
        <time>2021-08-08T13:53:03Z</time>
      </trkpt>
      <trkpt lat="48.08661" lon="-2.94176">
        <ele>66.8</ele>
        <time>2021-08-08T13:53:04Z</time>
      </trkpt>
      <trkpt lat="48.08659" lon="-2.9418">
        <ele>66.6</ele>
        <time>2021-08-08T13:53:05Z</time>
      </trkpt>
      <trkpt lat="48.08656" lon="-2.94184">
        <ele>66.6</ele>
        <time>2021-08-08T13:53:06Z</time>
      </trkpt>
      <trkpt lat="48.08654" lon="-2.94188">
        <ele>66.6</ele>
        <time>2021-08-08T13:53:07Z</time>
      </trkpt>
      <trkpt lat="48.08651" lon="-2.94192">
        <ele>66.6</ele>
        <time>2021-08-08T13:53:08Z</time>
      </trkpt>
      <trkpt lat="48.08648" lon="-2.94197">
        <ele>66.6</ele>
        <time>2021-08-08T13:53:09Z</time>
      </trkpt>
      <trkpt lat="48.08644" lon="-2.94202">
        <ele>66.6</ele>
        <time>2021-08-08T13:53:10Z</time>
      </trkpt>
      <trkpt lat="48.08641" lon="-2.94208">
        <ele>66.6</ele>
        <time>2021-08-08T13:53:11Z</time>
      </trkpt>
      <trkpt lat="48.08638" lon="-2.94213">
        <ele>66.6</ele>
        <time>2021-08-08T13:53:12Z</time>
      </trkpt>
      <trkpt lat="48.08634" lon="-2.94218">
        <ele>66.6</ele>
        <time>2021-08-08T13:53:13Z</time>
      </trkpt>
      <trkpt lat="48.08631" lon="-2.94223">
        <ele>66.6</ele>
        <time>2021-08-08T13:53:14Z</time>
      </trkpt>
      <trkpt lat="48.08627" lon="-2.94229">
        <ele>66.6</ele>
        <time>2021-08-08T13:53:15Z</time>
      </trkpt>
      <trkpt lat="48.08624" lon="-2.94234">
        <ele>66.6</ele>
        <time>2021-08-08T13:53:16Z</time>
      </trkpt>
      <trkpt lat="48.08621" lon="-2.9424">
        <ele>66.6</ele>
        <time>2021-08-08T13:53:17Z</time>
      </trkpt>
      <trkpt lat="48.08617" lon="-2.94246">
        <ele>66.6</ele>
        <time>2021-08-08T13:53:18Z</time>
      </trkpt>
      <trkpt lat="48.08614" lon="-2.94252">
        <ele>66.6</ele>
        <time>2021-08-08T13:53:19Z</time>
      </trkpt>
      <trkpt lat="48.08611" lon="-2.94259">
        <ele>66.6</ele>
        <time>2021-08-08T13:53:20Z</time>
      </trkpt>
      <trkpt lat="48.08609" lon="-2.94265">
        <ele>66.6</ele>
        <time>2021-08-08T13:53:21Z</time>
      </trkpt>
      <trkpt lat="48.08606" lon="-2.94272">
        <ele>66.6</ele>
        <time>2021-08-08T13:53:22Z</time>
      </trkpt>
      <trkpt lat="48.08604" lon="-2.94279">
        <ele>66.6</ele>
        <time>2021-08-08T13:53:23Z</time>
      </trkpt>
      <trkpt lat="48.08601" lon="-2.94285">
        <ele>66.6</ele>
        <time>2021-08-08T13:53:24Z</time>
      </trkpt>
      <trkpt lat="48.086" lon="-2.94291">
        <ele>66.6</ele>
        <time>2021-08-08T13:53:25Z</time>
      </trkpt>
      <trkpt lat="48.08598" lon="-2.94297">
        <ele>66.6</ele>
        <time>2021-08-08T13:53:26Z</time>
      </trkpt>
      <trkpt lat="48.08597" lon="-2.94303">
        <ele>66.6</ele>
        <time>2021-08-08T13:53:27Z</time>
      </trkpt>
      <trkpt lat="48.08596" lon="-2.94308">
        <ele>66.6</ele>
        <time>2021-08-08T13:53:28Z</time>
      </trkpt>
      <trkpt lat="48.08595" lon="-2.94313">
        <ele>66.6</ele>
        <time>2021-08-08T13:53:29Z</time>
      </trkpt>
      <trkpt lat="48.08593" lon="-2.94319">
        <ele>66.6</ele>
        <time>2021-08-08T13:53:30Z</time>
      </trkpt>
      <trkpt lat="48.08592" lon="-2.94325">
        <ele>66.6</ele>
        <time>2021-08-08T13:53:31Z</time>
      </trkpt>
      <trkpt lat="48.08591" lon="-2.94331">
        <ele>66.6</ele>
        <time>2021-08-08T13:53:32Z</time>
      </trkpt>
      <trkpt lat="48.0859" lon="-2.94337">
        <ele>66.6</ele>
        <time>2021-08-08T13:53:33Z</time>
      </trkpt>
      <trkpt lat="48.08589" lon="-2.94344">
        <ele>66.6</ele>
        <time>2021-08-08T13:53:34Z</time>
      </trkpt>
      <trkpt lat="48.08588" lon="-2.94351">
        <ele>66.6</ele>
        <time>2021-08-08T13:53:35Z</time>
      </trkpt>
      <trkpt lat="48.08587" lon="-2.94358">
        <ele>66.6</ele>
        <time>2021-08-08T13:53:36Z</time>
      </trkpt>
      <trkpt lat="48.08586" lon="-2.94366">
        <ele>66.6</ele>
        <time>2021-08-08T13:53:37Z</time>
      </trkpt>
      <trkpt lat="48.08585" lon="-2.94373">
        <ele>66.6</ele>
        <time>2021-08-08T13:53:38Z</time>
      </trkpt>
      <trkpt lat="48.08584" lon="-2.94379">
        <ele>66.6</ele>
        <time>2021-08-08T13:53:39Z</time>
      </trkpt>
      <trkpt lat="48.08583" lon="-2.94384">
        <ele>66.6</ele>
        <time>2021-08-08T13:53:40Z</time>
      </trkpt>
      <trkpt lat="48.08581" lon="-2.94389">
        <ele>66.6</ele>
        <time>2021-08-08T13:53:41Z</time>
      </trkpt>
      <trkpt lat="48.0858" lon="-2.94393">
        <ele>66.6</ele>
        <time>2021-08-08T13:53:42Z</time>
      </trkpt>
      <trkpt lat="48.08579" lon="-2.94397">
        <ele>66.8</ele>
        <time>2021-08-08T13:53:43Z</time>
      </trkpt>
      <trkpt lat="48.08579" lon="-2.94401">
        <ele>66.8</ele>
        <time>2021-08-08T13:53:44Z</time>
      </trkpt>
      <trkpt lat="48.08579" lon="-2.94406">
        <ele>67</ele>
        <time>2021-08-08T13:53:45Z</time>
      </trkpt>
      <trkpt lat="48.08579" lon="-2.94412">
        <ele>67</ele>
        <time>2021-08-08T13:53:46Z</time>
      </trkpt>
      <trkpt lat="48.08578" lon="-2.94418">
        <ele>67</ele>
        <time>2021-08-08T13:53:47Z</time>
      </trkpt>
      <trkpt lat="48.08578" lon="-2.94425">
        <ele>67</ele>
        <time>2021-08-08T13:53:48Z</time>
      </trkpt>
      <trkpt lat="48.08577" lon="-2.94432">
        <ele>67</ele>
        <time>2021-08-08T13:53:49Z</time>
      </trkpt>
      <trkpt lat="48.08576" lon="-2.94439">
        <ele>66.8</ele>
        <time>2021-08-08T13:53:50Z</time>
      </trkpt>
      <trkpt lat="48.08575" lon="-2.94447">
        <ele>66.8</ele>
        <time>2021-08-08T13:53:51Z</time>
      </trkpt>
      <trkpt lat="48.08574" lon="-2.94454">
        <ele>66.6</ele>
        <time>2021-08-08T13:53:52Z</time>
      </trkpt>
      <trkpt lat="48.08574" lon="-2.9446">
        <ele>66.6</ele>
        <time>2021-08-08T13:53:53Z</time>
      </trkpt>
      <trkpt lat="48.08574" lon="-2.94466">
        <ele>66.6</ele>
        <time>2021-08-08T13:53:54Z</time>
      </trkpt>
      <trkpt lat="48.08573" lon="-2.94472">
        <ele>66.6</ele>
        <time>2021-08-08T13:53:55Z</time>
      </trkpt>
      <trkpt lat="48.08573" lon="-2.94479">
        <ele>66.6</ele>
        <time>2021-08-08T13:53:56Z</time>
      </trkpt>
      <trkpt lat="48.08572" lon="-2.94486">
        <ele>66.6</ele>
        <time>2021-08-08T13:53:57Z</time>
      </trkpt>
      <trkpt lat="48.08571" lon="-2.94495">
        <ele>66.6</ele>
        <time>2021-08-08T13:53:58Z</time>
      </trkpt>
      <trkpt lat="48.0857" lon="-2.94503">
        <ele>66.4</ele>
        <time>2021-08-08T13:53:59Z</time>
      </trkpt>
      <trkpt lat="48.08568" lon="-2.94512">
        <ele>66.4</ele>
        <time>2021-08-08T13:54:00Z</time>
      </trkpt>
      <trkpt lat="48.08567" lon="-2.94522">
        <ele>66.2</ele>
        <time>2021-08-08T13:54:01Z</time>
      </trkpt>
      <trkpt lat="48.08566" lon="-2.94531">
        <ele>66.2</ele>
        <time>2021-08-08T13:54:02Z</time>
      </trkpt>
      <trkpt lat="48.08566" lon="-2.9454">
        <ele>66.2</ele>
        <time>2021-08-08T13:54:03Z</time>
      </trkpt>
      <trkpt lat="48.08565" lon="-2.94549">
        <ele>66.2</ele>
        <time>2021-08-08T13:54:04Z</time>
      </trkpt>
      <trkpt lat="48.08564" lon="-2.94558">
        <ele>66</ele>
        <time>2021-08-08T13:54:05Z</time>
      </trkpt>
      <trkpt lat="48.08563" lon="-2.94568">
        <ele>65.8</ele>
        <time>2021-08-08T13:54:06Z</time>
      </trkpt>
      <trkpt lat="48.08562" lon="-2.94577">
        <ele>65.4</ele>
        <time>2021-08-08T13:54:07Z</time>
      </trkpt>
      <trkpt lat="48.0856" lon="-2.94587">
        <ele>65</ele>
        <time>2021-08-08T13:54:08Z</time>
      </trkpt>
      <trkpt lat="48.08559" lon="-2.94597">
        <ele>64.8</ele>
        <time>2021-08-08T13:54:09Z</time>
      </trkpt>
      <trkpt lat="48.08558" lon="-2.94605">
        <ele>64.4</ele>
        <time>2021-08-08T13:54:10Z</time>
      </trkpt>
      <trkpt lat="48.08557" lon="-2.94614">
        <ele>64</ele>
        <time>2021-08-08T13:54:11Z</time>
      </trkpt>
      <trkpt lat="48.08556" lon="-2.94623">
        <ele>63.8</ele>
        <time>2021-08-08T13:54:12Z</time>
      </trkpt>
      <trkpt lat="48.08556" lon="-2.94631">
        <ele>63.8</ele>
        <time>2021-08-08T13:54:13Z</time>
      </trkpt>
      <trkpt lat="48.08555" lon="-2.94639">
        <ele>63.8</ele>
        <time>2021-08-08T13:54:14Z</time>
      </trkpt>
      <trkpt lat="48.08554" lon="-2.94648">
        <ele>63.6</ele>
        <time>2021-08-08T13:54:15Z</time>
      </trkpt>
      <trkpt lat="48.08552" lon="-2.94656">
        <ele>63.6</ele>
        <time>2021-08-08T13:54:16Z</time>
      </trkpt>
      <trkpt lat="48.08551" lon="-2.94663">
        <ele>63.6</ele>
        <time>2021-08-08T13:54:17Z</time>
      </trkpt>
      <trkpt lat="48.08549" lon="-2.9467">
        <ele>63.6</ele>
        <time>2021-08-08T13:54:18Z</time>
      </trkpt>
      <trkpt lat="48.08548" lon="-2.94677">
        <ele>63.6</ele>
        <time>2021-08-08T13:54:19Z</time>
      </trkpt>
      <trkpt lat="48.08546" lon="-2.94684">
        <ele>63.6</ele>
        <time>2021-08-08T13:54:20Z</time>
      </trkpt>
      <trkpt lat="48.08545" lon="-2.94691">
        <ele>63.6</ele>
        <time>2021-08-08T13:54:21Z</time>
      </trkpt>
      <trkpt lat="48.08542" lon="-2.94698">
        <ele>63.6</ele>
        <time>2021-08-08T13:54:22Z</time>
      </trkpt>
      <trkpt lat="48.0854" lon="-2.94705">
        <ele>63.6</ele>
        <time>2021-08-08T13:54:23Z</time>
      </trkpt>
      <trkpt lat="48.08538" lon="-2.9471">
        <ele>63.6</ele>
        <time>2021-08-08T13:54:24Z</time>
      </trkpt>
      <trkpt lat="48.08535" lon="-2.94716">
        <ele>63.6</ele>
        <time>2021-08-08T13:54:25Z</time>
      </trkpt>
      <trkpt lat="48.08533" lon="-2.94722">
        <ele>63.6</ele>
        <time>2021-08-08T13:54:26Z</time>
      </trkpt>
      <trkpt lat="48.0853" lon="-2.94727">
        <ele>63.6</ele>
        <time>2021-08-08T13:54:27Z</time>
      </trkpt>
      <trkpt lat="48.08527" lon="-2.94733">
        <ele>63.6</ele>
        <time>2021-08-08T13:54:28Z</time>
      </trkpt>
      <trkpt lat="48.08524" lon="-2.94739">
        <ele>63.6</ele>
        <time>2021-08-08T13:54:29Z</time>
      </trkpt>
      <trkpt lat="48.08522" lon="-2.94744">
        <ele>63.6</ele>
        <time>2021-08-08T13:54:30Z</time>
      </trkpt>
      <trkpt lat="48.08519" lon="-2.94749">
        <ele>63.6</ele>
        <time>2021-08-08T13:54:31Z</time>
      </trkpt>
      <trkpt lat="48.08516" lon="-2.94755">
        <ele>63.6</ele>
        <time>2021-08-08T13:54:32Z</time>
      </trkpt>
      <trkpt lat="48.08513" lon="-2.94761">
        <ele>63.6</ele>
        <time>2021-08-08T13:54:33Z</time>
      </trkpt>
      <trkpt lat="48.0851" lon="-2.94767">
        <ele>63.6</ele>
        <time>2021-08-08T13:54:34Z</time>
      </trkpt>
      <trkpt lat="48.08507" lon="-2.94772">
        <ele>63.6</ele>
        <time>2021-08-08T13:54:35Z</time>
      </trkpt>
      <trkpt lat="48.08503" lon="-2.94777">
        <ele>63.6</ele>
        <time>2021-08-08T13:54:36Z</time>
      </trkpt>
      <trkpt lat="48.085" lon="-2.94782">
        <ele>63.4</ele>
        <time>2021-08-08T13:54:37Z</time>
      </trkpt>
      <trkpt lat="48.08497" lon="-2.94788">
        <ele>63.4</ele>
        <time>2021-08-08T13:54:38Z</time>
      </trkpt>
      <trkpt lat="48.08495" lon="-2.94793">
        <ele>63.4</ele>
        <time>2021-08-08T13:54:39Z</time>
      </trkpt>
      <trkpt lat="48.08492" lon="-2.94799">
        <ele>63.4</ele>
        <time>2021-08-08T13:54:40Z</time>
      </trkpt>
      <trkpt lat="48.08488" lon="-2.94804">
        <ele>63.4</ele>
        <time>2021-08-08T13:54:41Z</time>
      </trkpt>
      <trkpt lat="48.08485" lon="-2.9481">
        <ele>63.4</ele>
        <time>2021-08-08T13:54:42Z</time>
      </trkpt>
      <trkpt lat="48.08481" lon="-2.94815">
        <ele>63.4</ele>
        <time>2021-08-08T13:54:43Z</time>
      </trkpt>
      <trkpt lat="48.08478" lon="-2.94821">
        <ele>63.4</ele>
        <time>2021-08-08T13:54:44Z</time>
      </trkpt>
      <trkpt lat="48.08474" lon="-2.94826">
        <ele>63.4</ele>
        <time>2021-08-08T13:54:45Z</time>
      </trkpt>
      <trkpt lat="48.08471" lon="-2.94832">
        <ele>63.4</ele>
        <time>2021-08-08T13:54:46Z</time>
      </trkpt>
      <trkpt lat="48.08467" lon="-2.94837">
        <ele>63.4</ele>
        <time>2021-08-08T13:54:47Z</time>
      </trkpt>
      <trkpt lat="48.08464" lon="-2.94843">
        <ele>63.4</ele>
        <time>2021-08-08T13:54:48Z</time>
      </trkpt>
      <trkpt lat="48.08461" lon="-2.94848">
        <ele>63.4</ele>
        <time>2021-08-08T13:54:49Z</time>
      </trkpt>
      <trkpt lat="48.08459" lon="-2.94852">
        <ele>63.4</ele>
        <time>2021-08-08T13:54:50Z</time>
      </trkpt>
      <trkpt lat="48.08456" lon="-2.94857">
        <ele>63.4</ele>
        <time>2021-08-08T13:54:51Z</time>
      </trkpt>
      <trkpt lat="48.08453" lon="-2.94862">
        <ele>63.4</ele>
        <time>2021-08-08T13:54:52Z</time>
      </trkpt>
      <trkpt lat="48.0845" lon="-2.94867">
        <ele>63.4</ele>
        <time>2021-08-08T13:54:53Z</time>
      </trkpt>
      <trkpt lat="48.08447" lon="-2.94873">
        <ele>63.4</ele>
        <time>2021-08-08T13:54:54Z</time>
      </trkpt>
      <trkpt lat="48.08443" lon="-2.94878">
        <ele>63.4</ele>
        <time>2021-08-08T13:54:55Z</time>
      </trkpt>
      <trkpt lat="48.0844" lon="-2.94884">
        <ele>63.4</ele>
        <time>2021-08-08T13:54:56Z</time>
      </trkpt>
      <trkpt lat="48.08437" lon="-2.94889">
        <ele>63.4</ele>
        <time>2021-08-08T13:54:57Z</time>
      </trkpt>
      <trkpt lat="48.08433" lon="-2.94894">
        <ele>63.4</ele>
        <time>2021-08-08T13:54:58Z</time>
      </trkpt>
      <trkpt lat="48.0843" lon="-2.94899">
        <ele>63.6</ele>
        <time>2021-08-08T13:54:59Z</time>
      </trkpt>
      <trkpt lat="48.08428" lon="-2.94904">
        <ele>63.6</ele>
        <time>2021-08-08T13:55:00Z</time>
      </trkpt>
      <trkpt lat="48.08425" lon="-2.94909">
        <ele>63.6</ele>
        <time>2021-08-08T13:55:01Z</time>
      </trkpt>
      <trkpt lat="48.08422" lon="-2.94913">
        <ele>63.6</ele>
        <time>2021-08-08T13:55:02Z</time>
      </trkpt>
      <trkpt lat="48.08419" lon="-2.94918">
        <ele>63.6</ele>
        <time>2021-08-08T13:55:03Z</time>
      </trkpt>
      <trkpt lat="48.08415" lon="-2.94924">
        <ele>63.6</ele>
        <time>2021-08-08T13:55:04Z</time>
      </trkpt>
      <trkpt lat="48.08412" lon="-2.9493">
        <ele>63.6</ele>
        <time>2021-08-08T13:55:05Z</time>
      </trkpt>
      <trkpt lat="48.08409" lon="-2.94936">
        <ele>63.6</ele>
        <time>2021-08-08T13:55:06Z</time>
      </trkpt>
      <trkpt lat="48.08406" lon="-2.94942">
        <ele>63.4</ele>
        <time>2021-08-08T13:55:07Z</time>
      </trkpt>
      <trkpt lat="48.08403" lon="-2.94949">
        <ele>63.4</ele>
        <time>2021-08-08T13:55:08Z</time>
      </trkpt>
      <trkpt lat="48.08398" lon="-2.94955">
        <ele>63.4</ele>
        <time>2021-08-08T13:55:09Z</time>
      </trkpt>
      <trkpt lat="48.08394" lon="-2.94962">
        <ele>63.4</ele>
        <time>2021-08-08T13:55:10Z</time>
      </trkpt>
      <trkpt lat="48.08391" lon="-2.94968">
        <ele>63.4</ele>
        <time>2021-08-08T13:55:11Z</time>
      </trkpt>
      <trkpt lat="48.08386" lon="-2.94975">
        <ele>63.2</ele>
        <time>2021-08-08T13:55:12Z</time>
      </trkpt>
      <trkpt lat="48.08383" lon="-2.94981">
        <ele>63.2</ele>
        <time>2021-08-08T13:55:13Z</time>
      </trkpt>
      <trkpt lat="48.08379" lon="-2.94986">
        <ele>63</ele>
        <time>2021-08-08T13:55:14Z</time>
      </trkpt>
      <trkpt lat="48.08376" lon="-2.94991">
        <ele>62.6</ele>
        <time>2021-08-08T13:55:15Z</time>
      </trkpt>
      <trkpt lat="48.08373" lon="-2.94997">
        <ele>62.4</ele>
        <time>2021-08-08T13:55:16Z</time>
      </trkpt>
      <trkpt lat="48.0837" lon="-2.95002">
        <ele>62.2</ele>
        <time>2021-08-08T13:55:17Z</time>
      </trkpt>
      <trkpt lat="48.08367" lon="-2.95006">
        <ele>62.2</ele>
        <time>2021-08-08T13:55:18Z</time>
      </trkpt>
      <trkpt lat="48.08365" lon="-2.95011">
        <ele>62</ele>
        <time>2021-08-08T13:55:19Z</time>
      </trkpt>
      <trkpt lat="48.08362" lon="-2.95016">
        <ele>62</ele>
        <time>2021-08-08T13:55:20Z</time>
      </trkpt>
      <trkpt lat="48.08359" lon="-2.95022">
        <ele>62</ele>
        <time>2021-08-08T13:55:21Z</time>
      </trkpt>
      <trkpt lat="48.08356" lon="-2.95028">
        <ele>62</ele>
        <time>2021-08-08T13:55:22Z</time>
      </trkpt>
      <trkpt lat="48.08353" lon="-2.95033">
        <ele>62</ele>
        <time>2021-08-08T13:55:23Z</time>
      </trkpt>
      <trkpt lat="48.0835" lon="-2.95038">
        <ele>61.8</ele>
        <time>2021-08-08T13:55:24Z</time>
      </trkpt>
      <trkpt lat="48.08347" lon="-2.95043">
        <ele>61.8</ele>
        <time>2021-08-08T13:55:25Z</time>
      </trkpt>
      <trkpt lat="48.08343" lon="-2.95048">
        <ele>61.8</ele>
        <time>2021-08-08T13:55:26Z</time>
      </trkpt>
      <trkpt lat="48.0834" lon="-2.95053">
        <ele>61.8</ele>
        <time>2021-08-08T13:55:27Z</time>
      </trkpt>
      <trkpt lat="48.08336" lon="-2.95058">
        <ele>61.8</ele>
        <time>2021-08-08T13:55:28Z</time>
      </trkpt>
      <trkpt lat="48.08333" lon="-2.95064">
        <ele>61.8</ele>
        <time>2021-08-08T13:55:29Z</time>
      </trkpt>
      <trkpt lat="48.08329" lon="-2.9507">
        <ele>61.6</ele>
        <time>2021-08-08T13:55:30Z</time>
      </trkpt>
      <trkpt lat="48.08325" lon="-2.95075">
        <ele>61.6</ele>
        <time>2021-08-08T13:55:31Z</time>
      </trkpt>
      <trkpt lat="48.08322" lon="-2.95081">
        <ele>61.6</ele>
        <time>2021-08-08T13:55:32Z</time>
      </trkpt>
      <trkpt lat="48.0832" lon="-2.95086">
        <ele>61.6</ele>
        <time>2021-08-08T13:55:33Z</time>
      </trkpt>
      <trkpt lat="48.08317" lon="-2.95091">
        <ele>61.6</ele>
        <time>2021-08-08T13:55:34Z</time>
      </trkpt>
      <trkpt lat="48.08315" lon="-2.95096">
        <ele>61.6</ele>
        <time>2021-08-08T13:55:35Z</time>
      </trkpt>
      <trkpt lat="48.08312" lon="-2.95101">
        <ele>61.6</ele>
        <time>2021-08-08T13:55:36Z</time>
      </trkpt>
      <trkpt lat="48.08309" lon="-2.95106">
        <ele>61.4</ele>
        <time>2021-08-08T13:55:37Z</time>
      </trkpt>
      <trkpt lat="48.08306" lon="-2.95111">
        <ele>61.4</ele>
        <time>2021-08-08T13:55:38Z</time>
      </trkpt>
      <trkpt lat="48.08303" lon="-2.95116">
        <ele>61.4</ele>
        <time>2021-08-08T13:55:39Z</time>
      </trkpt>
      <trkpt lat="48.083" lon="-2.95122">
        <ele>61.4</ele>
        <time>2021-08-08T13:55:40Z</time>
      </trkpt>
      <trkpt lat="48.08298" lon="-2.95127">
        <ele>61.4</ele>
        <time>2021-08-08T13:55:41Z</time>
      </trkpt>
      <trkpt lat="48.08294" lon="-2.95132">
        <ele>61.6</ele>
        <time>2021-08-08T13:55:42Z</time>
      </trkpt>
      <trkpt lat="48.08291" lon="-2.95137">
        <ele>61.6</ele>
        <time>2021-08-08T13:55:43Z</time>
      </trkpt>
      <trkpt lat="48.08288" lon="-2.95142">
        <ele>61.6</ele>
        <time>2021-08-08T13:55:44Z</time>
      </trkpt>
      <trkpt lat="48.08285" lon="-2.95147">
        <ele>61.6</ele>
        <time>2021-08-08T13:55:45Z</time>
      </trkpt>
      <trkpt lat="48.08282" lon="-2.95151">
        <ele>61.6</ele>
        <time>2021-08-08T13:55:46Z</time>
      </trkpt>
      <trkpt lat="48.08279" lon="-2.95155">
        <ele>61.6</ele>
        <time>2021-08-08T13:55:47Z</time>
      </trkpt>
      <trkpt lat="48.08275" lon="-2.9516">
        <ele>61.6</ele>
        <time>2021-08-08T13:55:48Z</time>
      </trkpt>
      <trkpt lat="48.08271" lon="-2.95164">
        <ele>61.6</ele>
        <time>2021-08-08T13:55:49Z</time>
      </trkpt>
      <trkpt lat="48.08266" lon="-2.95169">
        <ele>61.6</ele>
        <time>2021-08-08T13:55:50Z</time>
      </trkpt>
      <trkpt lat="48.08262" lon="-2.95174">
        <ele>61.8</ele>
        <time>2021-08-08T13:55:51Z</time>
      </trkpt>
      <trkpt lat="48.08258" lon="-2.95179">
        <ele>61.8</ele>
        <time>2021-08-08T13:55:52Z</time>
      </trkpt>
      <trkpt lat="48.08254" lon="-2.95183">
        <ele>61.8</ele>
        <time>2021-08-08T13:55:53Z</time>
      </trkpt>
      <trkpt lat="48.0825" lon="-2.95188">
        <ele>62</ele>
        <time>2021-08-08T13:55:54Z</time>
      </trkpt>
      <trkpt lat="48.08246" lon="-2.95192">
        <ele>62</ele>
        <time>2021-08-08T13:55:55Z</time>
      </trkpt>
      <trkpt lat="48.08241" lon="-2.95197">
        <ele>62</ele>
        <time>2021-08-08T13:55:56Z</time>
      </trkpt>
      <trkpt lat="48.08237" lon="-2.95201">
        <ele>62</ele>
        <time>2021-08-08T13:55:57Z</time>
      </trkpt>
      <trkpt lat="48.08233" lon="-2.95205">
        <ele>62</ele>
        <time>2021-08-08T13:55:58Z</time>
      </trkpt>
      <trkpt lat="48.08228" lon="-2.9521">
        <ele>62</ele>
        <time>2021-08-08T13:55:59Z</time>
      </trkpt>
      <trkpt lat="48.08224" lon="-2.95214">
        <ele>62</ele>
        <time>2021-08-08T13:56:00Z</time>
      </trkpt>
      <trkpt lat="48.0822" lon="-2.95218">
        <ele>62.2</ele>
        <time>2021-08-08T13:56:01Z</time>
      </trkpt>
      <trkpt lat="48.08216" lon="-2.95222">
        <ele>62.2</ele>
        <time>2021-08-08T13:56:02Z</time>
      </trkpt>
      <trkpt lat="48.08212" lon="-2.95226">
        <ele>62.2</ele>
        <time>2021-08-08T13:56:03Z</time>
      </trkpt>
      <trkpt lat="48.08207" lon="-2.9523">
        <ele>62.2</ele>
        <time>2021-08-08T13:56:04Z</time>
      </trkpt>
      <trkpt lat="48.08203" lon="-2.95234">
        <ele>62.2</ele>
        <time>2021-08-08T13:56:05Z</time>
      </trkpt>
      <trkpt lat="48.08199" lon="-2.95239">
        <ele>62</ele>
        <time>2021-08-08T13:56:06Z</time>
      </trkpt>
      <trkpt lat="48.08194" lon="-2.95243">
        <ele>62</ele>
        <time>2021-08-08T13:56:07Z</time>
      </trkpt>
      <trkpt lat="48.0819" lon="-2.95247">
        <ele>62</ele>
        <time>2021-08-08T13:56:08Z</time>
      </trkpt>
      <trkpt lat="48.08186" lon="-2.95251">
        <ele>62</ele>
        <time>2021-08-08T13:56:09Z</time>
      </trkpt>
      <trkpt lat="48.08181" lon="-2.95255">
        <ele>62</ele>
        <time>2021-08-08T13:56:10Z</time>
      </trkpt>
      <trkpt lat="48.08177" lon="-2.95259">
        <ele>62</ele>
        <time>2021-08-08T13:56:11Z</time>
      </trkpt>
      <trkpt lat="48.08172" lon="-2.95264">
        <ele>62</ele>
        <time>2021-08-08T13:56:12Z</time>
      </trkpt>
      <trkpt lat="48.08168" lon="-2.95268">
        <ele>62</ele>
        <time>2021-08-08T13:56:13Z</time>
      </trkpt>
      <trkpt lat="48.08164" lon="-2.95271">
        <ele>62</ele>
        <time>2021-08-08T13:56:14Z</time>
      </trkpt>
      <trkpt lat="48.0816" lon="-2.95275">
        <ele>62</ele>
        <time>2021-08-08T13:56:15Z</time>
      </trkpt>
      <trkpt lat="48.08157" lon="-2.95278">
        <ele>61.8</ele>
        <time>2021-08-08T13:56:16Z</time>
      </trkpt>
      <trkpt lat="48.08153" lon="-2.95282">
        <ele>61.8</ele>
        <time>2021-08-08T13:56:17Z</time>
      </trkpt>
      <trkpt lat="48.0815" lon="-2.95285">
        <ele>61.8</ele>
        <time>2021-08-08T13:56:18Z</time>
      </trkpt>
      <trkpt lat="48.08147" lon="-2.95288">
        <ele>61.8</ele>
        <time>2021-08-08T13:56:19Z</time>
      </trkpt>
      <trkpt lat="48.08143" lon="-2.95291">
        <ele>61.8</ele>
        <time>2021-08-08T13:56:20Z</time>
      </trkpt>
      <trkpt lat="48.08139" lon="-2.95294">
        <ele>61.8</ele>
        <time>2021-08-08T13:56:21Z</time>
      </trkpt>
      <trkpt lat="48.08135" lon="-2.95298">
        <ele>61.6</ele>
        <time>2021-08-08T13:56:22Z</time>
      </trkpt>
      <trkpt lat="48.08132" lon="-2.95302">
        <ele>61.6</ele>
        <time>2021-08-08T13:56:23Z</time>
      </trkpt>
      <trkpt lat="48.08128" lon="-2.95305">
        <ele>61.6</ele>
        <time>2021-08-08T13:56:24Z</time>
      </trkpt>
      <trkpt lat="48.08124" lon="-2.95309">
        <ele>61.6</ele>
        <time>2021-08-08T13:56:25Z</time>
      </trkpt>
      <trkpt lat="48.0812" lon="-2.95313">
        <ele>61.6</ele>
        <time>2021-08-08T13:56:26Z</time>
      </trkpt>
      <trkpt lat="48.08116" lon="-2.95316">
        <ele>61.6</ele>
        <time>2021-08-08T13:56:27Z</time>
      </trkpt>
      <trkpt lat="48.08113" lon="-2.9532">
        <ele>61.6</ele>
        <time>2021-08-08T13:56:28Z</time>
      </trkpt>
      <trkpt lat="48.08109" lon="-2.95323">
        <ele>61.6</ele>
        <time>2021-08-08T13:56:29Z</time>
      </trkpt>
      <trkpt lat="48.08106" lon="-2.95327">
        <ele>61.6</ele>
        <time>2021-08-08T13:56:30Z</time>
      </trkpt>
      <trkpt lat="48.08102" lon="-2.9533">
        <ele>61.6</ele>
        <time>2021-08-08T13:56:31Z</time>
      </trkpt>
      <trkpt lat="48.08098" lon="-2.95334">
        <ele>61.6</ele>
        <time>2021-08-08T13:56:32Z</time>
      </trkpt>
      <trkpt lat="48.08094" lon="-2.95337">
        <ele>61.8</ele>
        <time>2021-08-08T13:56:33Z</time>
      </trkpt>
      <trkpt lat="48.08091" lon="-2.9534">
        <ele>61.8</ele>
        <time>2021-08-08T13:56:34Z</time>
      </trkpt>
      <trkpt lat="48.08087" lon="-2.95342">
        <ele>61.8</ele>
        <time>2021-08-08T13:56:35Z</time>
      </trkpt>
      <trkpt lat="48.08083" lon="-2.95346">
        <ele>61.8</ele>
        <time>2021-08-08T13:56:36Z</time>
      </trkpt>
      <trkpt lat="48.08079" lon="-2.9535">
        <ele>61.8</ele>
        <time>2021-08-08T13:56:37Z</time>
      </trkpt>
      <trkpt lat="48.08075" lon="-2.95354">
        <ele>61.8</ele>
        <time>2021-08-08T13:56:38Z</time>
      </trkpt>
      <trkpt lat="48.08071" lon="-2.95358">
        <ele>62</ele>
        <time>2021-08-08T13:56:39Z</time>
      </trkpt>
      <trkpt lat="48.08067" lon="-2.95361">
        <ele>62</ele>
        <time>2021-08-08T13:56:40Z</time>
      </trkpt>
      <trkpt lat="48.08063" lon="-2.95365">
        <ele>62</ele>
        <time>2021-08-08T13:56:41Z</time>
      </trkpt>
      <trkpt lat="48.08058" lon="-2.95369">
        <ele>62</ele>
        <time>2021-08-08T13:56:42Z</time>
      </trkpt>
      <trkpt lat="48.08053" lon="-2.95374">
        <ele>62</ele>
        <time>2021-08-08T13:56:43Z</time>
      </trkpt>
      <trkpt lat="48.08049" lon="-2.95378">
        <ele>62</ele>
        <time>2021-08-08T13:56:44Z</time>
      </trkpt>
      <trkpt lat="48.08045" lon="-2.95382">
        <ele>62</ele>
        <time>2021-08-08T13:56:45Z</time>
      </trkpt>
      <trkpt lat="48.0804" lon="-2.95387">
        <ele>62</ele>
        <time>2021-08-08T13:56:46Z</time>
      </trkpt>
      <trkpt lat="48.08036" lon="-2.95391">
        <ele>61.8</ele>
        <time>2021-08-08T13:56:47Z</time>
      </trkpt>
      <trkpt lat="48.08031" lon="-2.95397">
        <ele>61.8</ele>
        <time>2021-08-08T13:56:48Z</time>
      </trkpt>
      <trkpt lat="48.08026" lon="-2.95402">
        <ele>61.4</ele>
        <time>2021-08-08T13:56:49Z</time>
      </trkpt>
      <trkpt lat="48.0802" lon="-2.95407">
        <ele>61.4</ele>
        <time>2021-08-08T13:56:50Z</time>
      </trkpt>
      <trkpt lat="48.08015" lon="-2.95413">
        <ele>61.4</ele>
        <time>2021-08-08T13:56:51Z</time>
      </trkpt>
      <trkpt lat="48.08009" lon="-2.95418">
        <ele>61</ele>
        <time>2021-08-08T13:56:52Z</time>
      </trkpt>
      <trkpt lat="48.08004" lon="-2.95423">
        <ele>60.8</ele>
        <time>2021-08-08T13:56:53Z</time>
      </trkpt>
      <trkpt lat="48.07998" lon="-2.95429">
        <ele>60.4</ele>
        <time>2021-08-08T13:56:54Z</time>
      </trkpt>
      <trkpt lat="48.07993" lon="-2.95434">
        <ele>60.2</ele>
        <time>2021-08-08T13:56:55Z</time>
      </trkpt>
      <trkpt lat="48.07988" lon="-2.9544">
        <ele>60</ele>
        <time>2021-08-08T13:56:56Z</time>
      </trkpt>
      <trkpt lat="48.07982" lon="-2.95445">
        <ele>60</ele>
        <time>2021-08-08T13:56:57Z</time>
      </trkpt>
      <trkpt lat="48.07978" lon="-2.9545">
        <ele>60</ele>
        <time>2021-08-08T13:56:58Z</time>
      </trkpt>
      <trkpt lat="48.07974" lon="-2.95454">
        <ele>59.8</ele>
        <time>2021-08-08T13:56:59Z</time>
      </trkpt>
      <trkpt lat="48.07969" lon="-2.95459">
        <ele>59.8</ele>
        <time>2021-08-08T13:57:00Z</time>
      </trkpt>
      <trkpt lat="48.07965" lon="-2.95463">
        <ele>59.8</ele>
        <time>2021-08-08T13:57:01Z</time>
      </trkpt>
      <trkpt lat="48.07961" lon="-2.95468">
        <ele>59.8</ele>
        <time>2021-08-08T13:57:02Z</time>
      </trkpt>
      <trkpt lat="48.07956" lon="-2.95472">
        <ele>59.8</ele>
        <time>2021-08-08T13:57:03Z</time>
      </trkpt>
      <trkpt lat="48.07951" lon="-2.95476">
        <ele>59.8</ele>
        <time>2021-08-08T13:57:04Z</time>
      </trkpt>
      <trkpt lat="48.07947" lon="-2.9548">
        <ele>59.8</ele>
        <time>2021-08-08T13:57:05Z</time>
      </trkpt>
      <trkpt lat="48.07942" lon="-2.95485">
        <ele>59.8</ele>
        <time>2021-08-08T13:57:06Z</time>
      </trkpt>
      <trkpt lat="48.07938" lon="-2.95489">
        <ele>59.8</ele>
        <time>2021-08-08T13:57:07Z</time>
      </trkpt>
      <trkpt lat="48.07934" lon="-2.95493">
        <ele>59.8</ele>
        <time>2021-08-08T13:57:08Z</time>
      </trkpt>
      <trkpt lat="48.07931" lon="-2.95496">
        <ele>59.8</ele>
        <time>2021-08-08T13:57:09Z</time>
      </trkpt>
      <trkpt lat="48.07927" lon="-2.955">
        <ele>59.8</ele>
        <time>2021-08-08T13:57:10Z</time>
      </trkpt>
      <trkpt lat="48.07923" lon="-2.95504">
        <ele>59.8</ele>
        <time>2021-08-08T13:57:11Z</time>
      </trkpt>
      <trkpt lat="48.07918" lon="-2.95508">
        <ele>59.8</ele>
        <time>2021-08-08T13:57:12Z</time>
      </trkpt>
      <trkpt lat="48.07914" lon="-2.95513">
        <ele>59.8</ele>
        <time>2021-08-08T13:57:13Z</time>
      </trkpt>
      <trkpt lat="48.07909" lon="-2.95517">
        <ele>59.8</ele>
        <time>2021-08-08T13:57:14Z</time>
      </trkpt>
      <trkpt lat="48.07905" lon="-2.95521">
        <ele>59.8</ele>
        <time>2021-08-08T13:57:15Z</time>
      </trkpt>
      <trkpt lat="48.07901" lon="-2.95525">
        <ele>59.8</ele>
        <time>2021-08-08T13:57:16Z</time>
      </trkpt>
      <trkpt lat="48.07897" lon="-2.9553">
        <ele>59.8</ele>
        <time>2021-08-08T13:57:17Z</time>
      </trkpt>
      <trkpt lat="48.07893" lon="-2.95534">
        <ele>59.8</ele>
        <time>2021-08-08T13:57:18Z</time>
      </trkpt>
      <trkpt lat="48.07889" lon="-2.95538">
        <ele>59.8</ele>
        <time>2021-08-08T13:57:19Z</time>
      </trkpt>
      <trkpt lat="48.07885" lon="-2.95541">
        <ele>59.8</ele>
        <time>2021-08-08T13:57:20Z</time>
      </trkpt>
      <trkpt lat="48.07881" lon="-2.95545">
        <ele>59.8</ele>
        <time>2021-08-08T13:57:21Z</time>
      </trkpt>
      <trkpt lat="48.07878" lon="-2.95549">
        <ele>59.8</ele>
        <time>2021-08-08T13:57:22Z</time>
      </trkpt>
      <trkpt lat="48.07874" lon="-2.95553">
        <ele>59.8</ele>
        <time>2021-08-08T13:57:23Z</time>
      </trkpt>
      <trkpt lat="48.07869" lon="-2.95557">
        <ele>59.8</ele>
        <time>2021-08-08T13:57:24Z</time>
      </trkpt>
      <trkpt lat="48.07865" lon="-2.95561">
        <ele>59.6</ele>
        <time>2021-08-08T13:57:25Z</time>
      </trkpt>
      <trkpt lat="48.07861" lon="-2.95566">
        <ele>59.6</ele>
        <time>2021-08-08T13:57:26Z</time>
      </trkpt>
      <trkpt lat="48.07857" lon="-2.9557">
        <ele>59.6</ele>
        <time>2021-08-08T13:57:27Z</time>
      </trkpt>
      <trkpt lat="48.07853" lon="-2.95575">
        <ele>59.6</ele>
        <time>2021-08-08T13:57:28Z</time>
      </trkpt>
      <trkpt lat="48.07848" lon="-2.95579">
        <ele>59.6</ele>
        <time>2021-08-08T13:57:29Z</time>
      </trkpt>
      <trkpt lat="48.07845" lon="-2.95582">
        <ele>59.4</ele>
        <time>2021-08-08T13:57:30Z</time>
      </trkpt>
      <trkpt lat="48.07842" lon="-2.95586">
        <ele>59.4</ele>
        <time>2021-08-08T13:57:31Z</time>
      </trkpt>
      <trkpt lat="48.07838" lon="-2.95589">
        <ele>59.4</ele>
        <time>2021-08-08T13:57:32Z</time>
      </trkpt>
      <trkpt lat="48.07835" lon="-2.95592">
        <ele>59.4</ele>
        <time>2021-08-08T13:57:33Z</time>
      </trkpt>
      <trkpt lat="48.07831" lon="-2.95596">
        <ele>59.4</ele>
        <time>2021-08-08T13:57:34Z</time>
      </trkpt>
      <trkpt lat="48.07827" lon="-2.95599">
        <ele>59.4</ele>
        <time>2021-08-08T13:57:35Z</time>
      </trkpt>
      <trkpt lat="48.07822" lon="-2.95603">
        <ele>59.4</ele>
        <time>2021-08-08T13:57:36Z</time>
      </trkpt>
      <trkpt lat="48.07818" lon="-2.95607">
        <ele>59.2</ele>
        <time>2021-08-08T13:57:37Z</time>
      </trkpt>
      <trkpt lat="48.07813" lon="-2.95612">
        <ele>59.2</ele>
        <time>2021-08-08T13:57:38Z</time>
      </trkpt>
      <trkpt lat="48.07809" lon="-2.95617">
        <ele>59.2</ele>
        <time>2021-08-08T13:57:39Z</time>
      </trkpt>
      <trkpt lat="48.07804" lon="-2.95621">
        <ele>59.2</ele>
        <time>2021-08-08T13:57:40Z</time>
      </trkpt>
      <trkpt lat="48.078" lon="-2.95626">
        <ele>59.2</ele>
        <time>2021-08-08T13:57:41Z</time>
      </trkpt>
      <trkpt lat="48.07795" lon="-2.95629">
        <ele>59.2</ele>
        <time>2021-08-08T13:57:42Z</time>
      </trkpt>
      <trkpt lat="48.07791" lon="-2.95634">
        <ele>59.2</ele>
        <time>2021-08-08T13:57:43Z</time>
      </trkpt>
      <trkpt lat="48.07786" lon="-2.95638">
        <ele>59.2</ele>
        <time>2021-08-08T13:57:44Z</time>
      </trkpt>
      <trkpt lat="48.07782" lon="-2.95642">
        <ele>59.2</ele>
        <time>2021-08-08T13:57:45Z</time>
      </trkpt>
      <trkpt lat="48.07778" lon="-2.95646">
        <ele>59.2</ele>
        <time>2021-08-08T13:57:46Z</time>
      </trkpt>
      <trkpt lat="48.07773" lon="-2.9565">
        <ele>59.2</ele>
        <time>2021-08-08T13:57:47Z</time>
      </trkpt>
      <trkpt lat="48.07769" lon="-2.95655">
        <ele>59.2</ele>
        <time>2021-08-08T13:57:48Z</time>
      </trkpt>
      <trkpt lat="48.07764" lon="-2.9566">
        <ele>59.4</ele>
        <time>2021-08-08T13:57:49Z</time>
      </trkpt>
      <trkpt lat="48.0776" lon="-2.95664">
        <ele>59.4</ele>
        <time>2021-08-08T13:57:50Z</time>
      </trkpt>
      <trkpt lat="48.07755" lon="-2.95668">
        <ele>59.8</ele>
        <time>2021-08-08T13:57:51Z</time>
      </trkpt>
      <trkpt lat="48.07751" lon="-2.95673">
        <ele>59.6</ele>
        <time>2021-08-08T13:57:52Z</time>
      </trkpt>
      <trkpt lat="48.07746" lon="-2.95677">
        <ele>59.8</ele>
        <time>2021-08-08T13:57:53Z</time>
      </trkpt>
      <trkpt lat="48.07742" lon="-2.95681">
        <ele>60</ele>
        <time>2021-08-08T13:57:54Z</time>
      </trkpt>
      <trkpt lat="48.07737" lon="-2.95685">
        <ele>60</ele>
        <time>2021-08-08T13:57:55Z</time>
      </trkpt>
      <trkpt lat="48.07733" lon="-2.9569">
        <ele>60</ele>
        <time>2021-08-08T13:57:56Z</time>
      </trkpt>
      <trkpt lat="48.07728" lon="-2.95694">
        <ele>60</ele>
        <time>2021-08-08T13:57:57Z</time>
      </trkpt>
      <trkpt lat="48.07724" lon="-2.95698">
        <ele>60.2</ele>
        <time>2021-08-08T13:57:58Z</time>
      </trkpt>
      <trkpt lat="48.0772" lon="-2.95701">
        <ele>60.2</ele>
        <time>2021-08-08T13:57:59Z</time>
      </trkpt>
      <trkpt lat="48.07715" lon="-2.95705">
        <ele>60.2</ele>
        <time>2021-08-08T13:58:00Z</time>
      </trkpt>
      <trkpt lat="48.0771" lon="-2.9571">
        <ele>60.2</ele>
        <time>2021-08-08T13:58:01Z</time>
      </trkpt>
      <trkpt lat="48.07706" lon="-2.95714">
        <ele>60.2</ele>
        <time>2021-08-08T13:58:02Z</time>
      </trkpt>
      <trkpt lat="48.07701" lon="-2.95718">
        <ele>60.2</ele>
        <time>2021-08-08T13:58:03Z</time>
      </trkpt>
      <trkpt lat="48.07697" lon="-2.95723">
        <ele>60.2</ele>
        <time>2021-08-08T13:58:04Z</time>
      </trkpt>
      <trkpt lat="48.07693" lon="-2.95727">
        <ele>60.2</ele>
        <time>2021-08-08T13:58:05Z</time>
      </trkpt>
      <trkpt lat="48.0769" lon="-2.95731">
        <ele>60</ele>
        <time>2021-08-08T13:58:06Z</time>
      </trkpt>
      <trkpt lat="48.07686" lon="-2.95735">
        <ele>60</ele>
        <time>2021-08-08T13:58:07Z</time>
      </trkpt>
      <trkpt lat="48.07682" lon="-2.95738">
        <ele>60</ele>
        <time>2021-08-08T13:58:08Z</time>
      </trkpt>
      <trkpt lat="48.07678" lon="-2.95742">
        <ele>60</ele>
        <time>2021-08-08T13:58:09Z</time>
      </trkpt>
      <trkpt lat="48.07674" lon="-2.95745">
        <ele>59.8</ele>
        <time>2021-08-08T13:58:10Z</time>
      </trkpt>
      <trkpt lat="48.0767" lon="-2.95749">
        <ele>59.8</ele>
        <time>2021-08-08T13:58:11Z</time>
      </trkpt>
      <trkpt lat="48.07666" lon="-2.95752">
        <ele>59.8</ele>
        <time>2021-08-08T13:58:12Z</time>
      </trkpt>
      <trkpt lat="48.07662" lon="-2.95756">
        <ele>59.8</ele>
        <time>2021-08-08T13:58:13Z</time>
      </trkpt>
      <trkpt lat="48.07658" lon="-2.9576">
        <ele>59.8</ele>
        <time>2021-08-08T13:58:14Z</time>
      </trkpt>
      <trkpt lat="48.07653" lon="-2.95764">
        <ele>59.6</ele>
        <time>2021-08-08T13:58:15Z</time>
      </trkpt>
      <trkpt lat="48.07648" lon="-2.95768">
        <ele>59.6</ele>
        <time>2021-08-08T13:58:16Z</time>
      </trkpt>
      <trkpt lat="48.07643" lon="-2.95773">
        <ele>59.6</ele>
        <time>2021-08-08T13:58:17Z</time>
      </trkpt>
      <trkpt lat="48.07637" lon="-2.95778">
        <ele>59.4</ele>
        <time>2021-08-08T13:58:18Z</time>
      </trkpt>
      <trkpt lat="48.07633" lon="-2.95782">
        <ele>59.4</ele>
        <time>2021-08-08T13:58:19Z</time>
      </trkpt>
      <trkpt lat="48.07628" lon="-2.95787">
        <ele>59.2</ele>
        <time>2021-08-08T13:58:20Z</time>
      </trkpt>
      <trkpt lat="48.07623" lon="-2.95791">
        <ele>59.2</ele>
        <time>2021-08-08T13:58:21Z</time>
      </trkpt>
      <trkpt lat="48.07618" lon="-2.95796">
        <ele>59</ele>
        <time>2021-08-08T13:58:22Z</time>
      </trkpt>
      <trkpt lat="48.07613" lon="-2.95801">
        <ele>58.8</ele>
        <time>2021-08-08T13:58:23Z</time>
      </trkpt>
      <trkpt lat="48.07607" lon="-2.95805">
        <ele>58.8</ele>
        <time>2021-08-08T13:58:24Z</time>
      </trkpt>
      <trkpt lat="48.07603" lon="-2.9581">
        <ele>58.6</ele>
        <time>2021-08-08T13:58:25Z</time>
      </trkpt>
      <trkpt lat="48.07598" lon="-2.95814">
        <ele>58.6</ele>
        <time>2021-08-08T13:58:26Z</time>
      </trkpt>
      <trkpt lat="48.07593" lon="-2.95819">
        <ele>58.4</ele>
        <time>2021-08-08T13:58:27Z</time>
      </trkpt>
      <trkpt lat="48.07588" lon="-2.95823">
        <ele>58.2</ele>
        <time>2021-08-08T13:58:28Z</time>
      </trkpt>
      <trkpt lat="48.07584" lon="-2.95828">
        <ele>58</ele>
        <time>2021-08-08T13:58:29Z</time>
      </trkpt>
      <trkpt lat="48.07579" lon="-2.95833">
        <ele>57.6</ele>
        <time>2021-08-08T13:58:30Z</time>
      </trkpt>
      <trkpt lat="48.07576" lon="-2.95837">
        <ele>57.4</ele>
        <time>2021-08-08T13:58:31Z</time>
      </trkpt>
      <trkpt lat="48.07572" lon="-2.95841">
        <ele>57.4</ele>
        <time>2021-08-08T13:58:32Z</time>
      </trkpt>
      <trkpt lat="48.07569" lon="-2.95845">
        <ele>57.4</ele>
        <time>2021-08-08T13:58:33Z</time>
      </trkpt>
      <trkpt lat="48.07566" lon="-2.95849">
        <ele>57.4</ele>
        <time>2021-08-08T13:58:34Z</time>
      </trkpt>
      <trkpt lat="48.07563" lon="-2.95853">
        <ele>57.4</ele>
        <time>2021-08-08T13:58:35Z</time>
      </trkpt>
      <trkpt lat="48.0756" lon="-2.95857">
        <ele>57.2</ele>
        <time>2021-08-08T13:58:36Z</time>
      </trkpt>
      <trkpt lat="48.07557" lon="-2.95862">
        <ele>57.2</ele>
        <time>2021-08-08T13:58:37Z</time>
      </trkpt>
      <trkpt lat="48.07553" lon="-2.95867">
        <ele>57.2</ele>
        <time>2021-08-08T13:58:38Z</time>
      </trkpt>
      <trkpt lat="48.0755" lon="-2.95871">
        <ele>57.2</ele>
        <time>2021-08-08T13:58:39Z</time>
      </trkpt>
      <trkpt lat="48.07548" lon="-2.95875">
        <ele>57.4</ele>
        <time>2021-08-08T13:58:40Z</time>
      </trkpt>
      <trkpt lat="48.07545" lon="-2.9588">
        <ele>57.6</ele>
        <time>2021-08-08T13:58:41Z</time>
      </trkpt>
      <trkpt lat="48.07543" lon="-2.95885">
        <ele>57.6</ele>
        <time>2021-08-08T13:58:42Z</time>
      </trkpt>
      <trkpt lat="48.0754" lon="-2.9589">
        <ele>57.6</ele>
        <time>2021-08-08T13:58:43Z</time>
      </trkpt>
      <trkpt lat="48.07538" lon="-2.95895">
        <ele>57.6</ele>
        <time>2021-08-08T13:58:44Z</time>
      </trkpt>
      <trkpt lat="48.07536" lon="-2.959">
        <ele>57.6</ele>
        <time>2021-08-08T13:58:45Z</time>
      </trkpt>
      <trkpt lat="48.07534" lon="-2.95906">
        <ele>57.6</ele>
        <time>2021-08-08T13:58:46Z</time>
      </trkpt>
      <trkpt lat="48.07533" lon="-2.95912">
        <ele>57.6</ele>
        <time>2021-08-08T13:58:47Z</time>
      </trkpt>
      <trkpt lat="48.07531" lon="-2.95919">
        <ele>57.6</ele>
        <time>2021-08-08T13:58:48Z</time>
      </trkpt>
      <trkpt lat="48.07528" lon="-2.95926">
        <ele>57.6</ele>
        <time>2021-08-08T13:58:49Z</time>
      </trkpt>
      <trkpt lat="48.07527" lon="-2.95932">
        <ele>57.6</ele>
        <time>2021-08-08T13:58:50Z</time>
      </trkpt>
      <trkpt lat="48.07525" lon="-2.95939">
        <ele>57.6</ele>
        <time>2021-08-08T13:58:51Z</time>
      </trkpt>
      <trkpt lat="48.07523" lon="-2.95945">
        <ele>57.6</ele>
        <time>2021-08-08T13:58:52Z</time>
      </trkpt>
      <trkpt lat="48.07521" lon="-2.95952">
        <ele>57.6</ele>
        <time>2021-08-08T13:58:53Z</time>
      </trkpt>
      <trkpt lat="48.07519" lon="-2.95959">
        <ele>57.6</ele>
        <time>2021-08-08T13:58:54Z</time>
      </trkpt>
      <trkpt lat="48.07517" lon="-2.95965">
        <ele>57.6</ele>
        <time>2021-08-08T13:58:55Z</time>
      </trkpt>
      <trkpt lat="48.07515" lon="-2.95972">
        <ele>57.6</ele>
        <time>2021-08-08T13:58:56Z</time>
      </trkpt>
      <trkpt lat="48.07513" lon="-2.95979">
        <ele>57.6</ele>
        <time>2021-08-08T13:58:57Z</time>
      </trkpt>
      <trkpt lat="48.07511" lon="-2.95987">
        <ele>57.6</ele>
        <time>2021-08-08T13:58:58Z</time>
      </trkpt>
      <trkpt lat="48.07509" lon="-2.95994">
        <ele>57.6</ele>
        <time>2021-08-08T13:58:59Z</time>
      </trkpt>
      <trkpt lat="48.07507" lon="-2.96002">
        <ele>57.6</ele>
        <time>2021-08-08T13:59:00Z</time>
      </trkpt>
      <trkpt lat="48.07505" lon="-2.96008">
        <ele>57.6</ele>
        <time>2021-08-08T13:59:01Z</time>
      </trkpt>
      <trkpt lat="48.07504" lon="-2.96015">
        <ele>57.6</ele>
        <time>2021-08-08T13:59:02Z</time>
      </trkpt>
      <trkpt lat="48.07502" lon="-2.96021">
        <ele>57.6</ele>
        <time>2021-08-08T13:59:03Z</time>
      </trkpt>
      <trkpt lat="48.075" lon="-2.96028">
        <ele>57.6</ele>
        <time>2021-08-08T13:59:04Z</time>
      </trkpt>
      <trkpt lat="48.07498" lon="-2.96034">
        <ele>57.8</ele>
        <time>2021-08-08T13:59:05Z</time>
      </trkpt>
      <trkpt lat="48.07496" lon="-2.9604">
        <ele>57.8</ele>
        <time>2021-08-08T13:59:06Z</time>
      </trkpt>
      <trkpt lat="48.07494" lon="-2.96047">
        <ele>57.8</ele>
        <time>2021-08-08T13:59:07Z</time>
      </trkpt>
      <trkpt lat="48.07492" lon="-2.96054">
        <ele>57.8</ele>
        <time>2021-08-08T13:59:08Z</time>
      </trkpt>
      <trkpt lat="48.07491" lon="-2.9606">
        <ele>57.8</ele>
        <time>2021-08-08T13:59:09Z</time>
      </trkpt>
      <trkpt lat="48.07489" lon="-2.96066">
        <ele>58</ele>
        <time>2021-08-08T13:59:10Z</time>
      </trkpt>
      <trkpt lat="48.07488" lon="-2.96072">
        <ele>58</ele>
        <time>2021-08-08T13:59:11Z</time>
      </trkpt>
      <trkpt lat="48.07486" lon="-2.96078">
        <ele>58.2</ele>
        <time>2021-08-08T13:59:12Z</time>
      </trkpt>
      <trkpt lat="48.07484" lon="-2.96085">
        <ele>58.2</ele>
        <time>2021-08-08T13:59:13Z</time>
      </trkpt>
      <trkpt lat="48.07482" lon="-2.96091">
        <ele>58.2</ele>
        <time>2021-08-08T13:59:14Z</time>
      </trkpt>
      <trkpt lat="48.0748" lon="-2.96098">
        <ele>58.2</ele>
        <time>2021-08-08T13:59:15Z</time>
      </trkpt>
      <trkpt lat="48.07478" lon="-2.96104">
        <ele>58.2</ele>
        <time>2021-08-08T13:59:16Z</time>
      </trkpt>
      <trkpt lat="48.07476" lon="-2.96111">
        <ele>58.2</ele>
        <time>2021-08-08T13:59:17Z</time>
      </trkpt>
      <trkpt lat="48.07474" lon="-2.96118">
        <ele>58.2</ele>
        <time>2021-08-08T13:59:18Z</time>
      </trkpt>
      <trkpt lat="48.07472" lon="-2.96125">
        <ele>58.2</ele>
        <time>2021-08-08T13:59:19Z</time>
      </trkpt>
      <trkpt lat="48.0747" lon="-2.96132">
        <ele>58.2</ele>
        <time>2021-08-08T13:59:20Z</time>
      </trkpt>
      <trkpt lat="48.07468" lon="-2.96138">
        <ele>58.2</ele>
        <time>2021-08-08T13:59:21Z</time>
      </trkpt>
      <trkpt lat="48.07466" lon="-2.96145">
        <ele>58.2</ele>
        <time>2021-08-08T13:59:22Z</time>
      </trkpt>
      <trkpt lat="48.07465" lon="-2.9615">
        <ele>58.2</ele>
        <time>2021-08-08T13:59:23Z</time>
      </trkpt>
      <trkpt lat="48.07463" lon="-2.96155">
        <ele>58.2</ele>
        <time>2021-08-08T13:59:24Z</time>
      </trkpt>
      <trkpt lat="48.07461" lon="-2.96161">
        <ele>58</ele>
        <time>2021-08-08T13:59:25Z</time>
      </trkpt>
      <trkpt lat="48.0746" lon="-2.96167">
        <ele>58.2</ele>
        <time>2021-08-08T13:59:26Z</time>
      </trkpt>
      <trkpt lat="48.07458" lon="-2.96173">
        <ele>58</ele>
        <time>2021-08-08T13:59:27Z</time>
      </trkpt>
      <trkpt lat="48.07456" lon="-2.96179">
        <ele>58</ele>
        <time>2021-08-08T13:59:28Z</time>
      </trkpt>
      <trkpt lat="48.07454" lon="-2.96186">
        <ele>58</ele>
        <time>2021-08-08T13:59:29Z</time>
      </trkpt>
      <trkpt lat="48.07452" lon="-2.96192">
        <ele>58</ele>
        <time>2021-08-08T13:59:30Z</time>
      </trkpt>
      <trkpt lat="48.0745" lon="-2.96197">
        <ele>58</ele>
        <time>2021-08-08T13:59:31Z</time>
      </trkpt>
      <trkpt lat="48.07448" lon="-2.96202">
        <ele>58</ele>
        <time>2021-08-08T13:59:32Z</time>
      </trkpt>
      <trkpt lat="48.07446" lon="-2.96207">
        <ele>58</ele>
        <time>2021-08-08T13:59:33Z</time>
      </trkpt>
      <trkpt lat="48.07445" lon="-2.96211">
        <ele>58</ele>
        <time>2021-08-08T13:59:34Z</time>
      </trkpt>
      <trkpt lat="48.07444" lon="-2.96214">
        <ele>58.2</ele>
        <time>2021-08-08T13:59:35Z</time>
      </trkpt>
      <trkpt lat="48.07443" lon="-2.96216">
        <ele>58.2</ele>
        <time>2021-08-08T13:59:36Z</time>
      </trkpt>
      <trkpt lat="48.07443" lon="-2.96218">
        <ele>58.4</ele>
        <time>2021-08-08T13:59:37Z</time>
      </trkpt>
      <trkpt lat="48.07442" lon="-2.9622">
        <ele>59.8</ele>
        <time>2021-08-08T14:00:23Z</time>
      </trkpt>
      <trkpt lat="48.07442" lon="-2.96221">
        <ele>59.8</ele>
        <time>2021-08-08T14:00:24Z</time>
      </trkpt>
      <trkpt lat="48.07442" lon="-2.96222">
        <ele>59.8</ele>
        <time>2021-08-08T14:00:25Z</time>
      </trkpt>
      <trkpt lat="48.07442" lon="-2.96223">
        <ele>59.8</ele>
        <time>2021-08-08T14:00:26Z</time>
      </trkpt>
      <trkpt lat="48.07442" lon="-2.96224">
        <ele>59.8</ele>
        <time>2021-08-08T14:00:27Z</time>
      </trkpt>
      <trkpt lat="48.07443" lon="-2.96225">
        <ele>59.8</ele>
        <time>2021-08-08T14:00:28Z</time>
      </trkpt>
      <trkpt lat="48.07444" lon="-2.96226">
        <ele>59.8</ele>
        <time>2021-08-08T14:00:29Z</time>
      </trkpt>
      <trkpt lat="48.07445" lon="-2.96228">
        <ele>59.8</ele>
        <time>2021-08-08T14:00:30Z</time>
      </trkpt>
      <trkpt lat="48.07447" lon="-2.96229">
        <ele>59.8</ele>
        <time>2021-08-08T14:00:31Z</time>
      </trkpt>
      <trkpt lat="48.07449" lon="-2.96231">
        <ele>59.8</ele>
        <time>2021-08-08T14:00:32Z</time>
      </trkpt>
      <trkpt lat="48.07451" lon="-2.96233">
        <ele>59.8</ele>
        <time>2021-08-08T14:00:33Z</time>
      </trkpt>
      <trkpt lat="48.07454" lon="-2.96235">
        <ele>59.8</ele>
        <time>2021-08-08T14:00:34Z</time>
      </trkpt>
      <trkpt lat="48.07456" lon="-2.96238">
        <ele>59.8</ele>
        <time>2021-08-08T14:00:35Z</time>
      </trkpt>
      <trkpt lat="48.07459" lon="-2.96241">
        <ele>59.8</ele>
        <time>2021-08-08T14:00:36Z</time>
      </trkpt>
      <trkpt lat="48.0746" lon="-2.96246">
        <ele>59.8</ele>
        <time>2021-08-08T14:00:37Z</time>
      </trkpt>
      <trkpt lat="48.07461" lon="-2.96251">
        <ele>59.8</ele>
        <time>2021-08-08T14:00:38Z</time>
      </trkpt>
      <trkpt lat="48.07461" lon="-2.96256">
        <ele>59.8</ele>
        <time>2021-08-08T14:00:39Z</time>
      </trkpt>
      <trkpt lat="48.07461" lon="-2.96262">
        <ele>59.8</ele>
        <time>2021-08-08T14:00:40Z</time>
      </trkpt>
      <trkpt lat="48.07461" lon="-2.96268">
        <ele>59.6</ele>
        <time>2021-08-08T14:00:41Z</time>
      </trkpt>
      <trkpt lat="48.0746" lon="-2.96274">
        <ele>59.6</ele>
        <time>2021-08-08T14:00:42Z</time>
      </trkpt>
      <trkpt lat="48.07459" lon="-2.9628">
        <ele>59.6</ele>
        <time>2021-08-08T14:00:43Z</time>
      </trkpt>
      <trkpt lat="48.07458" lon="-2.96286">
        <ele>59.6</ele>
        <time>2021-08-08T14:00:44Z</time>
      </trkpt>
      <trkpt lat="48.07456" lon="-2.96292">
        <ele>59.6</ele>
        <time>2021-08-08T14:00:45Z</time>
      </trkpt>
      <trkpt lat="48.07454" lon="-2.96299">
        <ele>59.4</ele>
        <time>2021-08-08T14:00:46Z</time>
      </trkpt>
      <trkpt lat="48.07453" lon="-2.96305">
        <ele>59.2</ele>
        <time>2021-08-08T14:00:47Z</time>
      </trkpt>
      <trkpt lat="48.07451" lon="-2.96312">
        <ele>59</ele>
        <time>2021-08-08T14:00:48Z</time>
      </trkpt>
      <trkpt lat="48.07449" lon="-2.96318">
        <ele>58.8</ele>
        <time>2021-08-08T14:00:49Z</time>
      </trkpt>
      <trkpt lat="48.07446" lon="-2.96324">
        <ele>58.6</ele>
        <time>2021-08-08T14:00:50Z</time>
      </trkpt>
      <trkpt lat="48.07443" lon="-2.9633">
        <ele>58.2</ele>
        <time>2021-08-08T14:00:51Z</time>
      </trkpt>
      <trkpt lat="48.0744" lon="-2.96337">
        <ele>57.6</ele>
        <time>2021-08-08T14:00:52Z</time>
      </trkpt>
      <trkpt lat="48.07437" lon="-2.96344">
        <ele>57.4</ele>
        <time>2021-08-08T14:00:53Z</time>
      </trkpt>
      <trkpt lat="48.07433" lon="-2.96352">
        <ele>57</ele>
        <time>2021-08-08T14:00:54Z</time>
      </trkpt>
      <trkpt lat="48.0743" lon="-2.96358">
        <ele>56.8</ele>
        <time>2021-08-08T14:00:55Z</time>
      </trkpt>
      <trkpt lat="48.07426" lon="-2.96364">
        <ele>56.8</ele>
        <time>2021-08-08T14:00:56Z</time>
      </trkpt>
      <trkpt lat="48.07422" lon="-2.96369">
        <ele>56.4</ele>
        <time>2021-08-08T14:00:57Z</time>
      </trkpt>
      <trkpt lat="48.07418" lon="-2.96373">
        <ele>56</ele>
        <time>2021-08-08T14:00:58Z</time>
      </trkpt>
      <trkpt lat="48.07413" lon="-2.96378">
        <ele>56</ele>
        <time>2021-08-08T14:00:59Z</time>
      </trkpt>
      <trkpt lat="48.0741" lon="-2.96381">
        <ele>55.8</ele>
        <time>2021-08-08T14:01:00Z</time>
      </trkpt>
      <trkpt lat="48.07406" lon="-2.96384">
        <ele>55.8</ele>
        <time>2021-08-08T14:01:01Z</time>
      </trkpt>
      <trkpt lat="48.07403" lon="-2.96387">
        <ele>55.8</ele>
        <time>2021-08-08T14:01:02Z</time>
      </trkpt>
      <trkpt lat="48.07399" lon="-2.9639">
        <ele>55.8</ele>
        <time>2021-08-08T14:01:03Z</time>
      </trkpt>
      <trkpt lat="48.07397" lon="-2.96392">
        <ele>55.8</ele>
        <time>2021-08-08T14:01:04Z</time>
      </trkpt>
      <trkpt lat="48.07393" lon="-2.96395">
        <ele>55.8</ele>
        <time>2021-08-08T14:01:05Z</time>
      </trkpt>
      <trkpt lat="48.0739" lon="-2.96398">
        <ele>55.8</ele>
        <time>2021-08-08T14:01:06Z</time>
      </trkpt>
      <trkpt lat="48.07385" lon="-2.96402">
        <ele>55.8</ele>
        <time>2021-08-08T14:01:07Z</time>
      </trkpt>
      <trkpt lat="48.07381" lon="-2.96405">
        <ele>55.8</ele>
        <time>2021-08-08T14:01:08Z</time>
      </trkpt>
      <trkpt lat="48.07378" lon="-2.96408">
        <ele>56</ele>
        <time>2021-08-08T14:01:09Z</time>
      </trkpt>
      <trkpt lat="48.07374" lon="-2.96411">
        <ele>56</ele>
        <time>2021-08-08T14:01:10Z</time>
      </trkpt>
      <trkpt lat="48.07371" lon="-2.96413">
        <ele>56</ele>
        <time>2021-08-08T14:01:11Z</time>
      </trkpt>
      <trkpt lat="48.07368" lon="-2.96415">
        <ele>56.2</ele>
        <time>2021-08-08T14:01:12Z</time>
      </trkpt>
      <trkpt lat="48.07365" lon="-2.96418">
        <ele>56.2</ele>
        <time>2021-08-08T14:01:13Z</time>
      </trkpt>
      <trkpt lat="48.07362" lon="-2.9642">
        <ele>56.2</ele>
        <time>2021-08-08T14:01:14Z</time>
      </trkpt>
      <trkpt lat="48.0736" lon="-2.96422">
        <ele>56.2</ele>
        <time>2021-08-08T14:01:15Z</time>
      </trkpt>
      <trkpt lat="48.07357" lon="-2.96424">
        <ele>56.2</ele>
        <time>2021-08-08T14:01:16Z</time>
      </trkpt>
      <trkpt lat="48.07355" lon="-2.96426">
        <ele>56.2</ele>
        <time>2021-08-08T14:01:17Z</time>
      </trkpt>
      <trkpt lat="48.07352" lon="-2.96428">
        <ele>56.2</ele>
        <time>2021-08-08T14:01:18Z</time>
      </trkpt>
      <trkpt lat="48.07349" lon="-2.9643">
        <ele>56.2</ele>
        <time>2021-08-08T14:01:19Z</time>
      </trkpt>
      <trkpt lat="48.07346" lon="-2.96433">
        <ele>56.2</ele>
        <time>2021-08-08T14:01:20Z</time>
      </trkpt>
      <trkpt lat="48.07343" lon="-2.96436">
        <ele>56.2</ele>
        <time>2021-08-08T14:01:21Z</time>
      </trkpt>
      <trkpt lat="48.07339" lon="-2.96439">
        <ele>56.2</ele>
        <time>2021-08-08T14:01:22Z</time>
      </trkpt>
      <trkpt lat="48.07335" lon="-2.96443">
        <ele>56.2</ele>
        <time>2021-08-08T14:01:23Z</time>
      </trkpt>
      <trkpt lat="48.07331" lon="-2.96446">
        <ele>56.2</ele>
        <time>2021-08-08T14:01:24Z</time>
      </trkpt>
      <trkpt lat="48.07327" lon="-2.96449">
        <ele>56.2</ele>
        <time>2021-08-08T14:01:25Z</time>
      </trkpt>
      <trkpt lat="48.07323" lon="-2.96452">
        <ele>56</ele>
        <time>2021-08-08T14:01:26Z</time>
      </trkpt>
      <trkpt lat="48.07319" lon="-2.96454">
        <ele>56</ele>
        <time>2021-08-08T14:01:27Z</time>
      </trkpt>
      <trkpt lat="48.07315" lon="-2.96457">
        <ele>56</ele>
        <time>2021-08-08T14:01:28Z</time>
      </trkpt>
      <trkpt lat="48.07311" lon="-2.96458">
        <ele>55.8</ele>
        <time>2021-08-08T14:01:29Z</time>
      </trkpt>
      <trkpt lat="48.07307" lon="-2.9646">
        <ele>55.8</ele>
        <time>2021-08-08T14:01:30Z</time>
      </trkpt>
      <trkpt lat="48.07304" lon="-2.96462">
        <ele>55.8</ele>
        <time>2021-08-08T14:01:31Z</time>
      </trkpt>
      <trkpt lat="48.07301" lon="-2.96465">
        <ele>55.8</ele>
        <time>2021-08-08T14:01:32Z</time>
      </trkpt>
      <trkpt lat="48.07298" lon="-2.96467">
        <ele>55.8</ele>
        <time>2021-08-08T14:01:33Z</time>
      </trkpt>
      <trkpt lat="48.07295" lon="-2.96469">
        <ele>55.8</ele>
        <time>2021-08-08T14:01:34Z</time>
      </trkpt>
      <trkpt lat="48.07293" lon="-2.96472">
        <ele>55.8</ele>
        <time>2021-08-08T14:01:35Z</time>
      </trkpt>
      <trkpt lat="48.0729" lon="-2.96474">
        <ele>55.8</ele>
        <time>2021-08-08T14:01:36Z</time>
      </trkpt>
      <trkpt lat="48.07287" lon="-2.96476">
        <ele>55.8</ele>
        <time>2021-08-08T14:01:37Z</time>
      </trkpt>
      <trkpt lat="48.07284" lon="-2.96478">
        <ele>55.8</ele>
        <time>2021-08-08T14:01:38Z</time>
      </trkpt>
      <trkpt lat="48.07281" lon="-2.9648">
        <ele>56</ele>
        <time>2021-08-08T14:01:39Z</time>
      </trkpt>
      <trkpt lat="48.07277" lon="-2.96483">
        <ele>56</ele>
        <time>2021-08-08T14:01:40Z</time>
      </trkpt>
      <trkpt lat="48.07274" lon="-2.96485">
        <ele>56.2</ele>
        <time>2021-08-08T14:01:41Z</time>
      </trkpt>
      <trkpt lat="48.07271" lon="-2.96487">
        <ele>56.2</ele>
        <time>2021-08-08T14:01:42Z</time>
      </trkpt>
      <trkpt lat="48.07268" lon="-2.96489">
        <ele>56.2</ele>
        <time>2021-08-08T14:01:43Z</time>
      </trkpt>
      <trkpt lat="48.07265" lon="-2.96491">
        <ele>56.4</ele>
        <time>2021-08-08T14:01:44Z</time>
      </trkpt>
      <trkpt lat="48.07262" lon="-2.96494">
        <ele>56.6</ele>
        <time>2021-08-08T14:01:45Z</time>
      </trkpt>
      <trkpt lat="48.07259" lon="-2.96496">
        <ele>57</ele>
        <time>2021-08-08T14:01:46Z</time>
      </trkpt>
      <trkpt lat="48.07256" lon="-2.96498">
        <ele>57</ele>
        <time>2021-08-08T14:01:47Z</time>
      </trkpt>
      <trkpt lat="48.07253" lon="-2.965">
        <ele>57</ele>
        <time>2021-08-08T14:01:48Z</time>
      </trkpt>
      <trkpt lat="48.07251" lon="-2.96501">
        <ele>57.2</ele>
        <time>2021-08-08T14:01:49Z</time>
      </trkpt>
      <trkpt lat="48.0725" lon="-2.96502">
        <ele>57.2</ele>
        <time>2021-08-08T14:01:50Z</time>
      </trkpt>
      <trkpt lat="48.07248" lon="-2.96503">
        <ele>57.2</ele>
        <time>2021-08-08T14:01:51Z</time>
      </trkpt>
      <trkpt lat="48.07246" lon="-2.96505">
        <ele>57.2</ele>
        <time>2021-08-08T14:01:52Z</time>
      </trkpt>
      <trkpt lat="48.07245" lon="-2.96507">
        <ele>57.4</ele>
        <time>2021-08-08T14:01:53Z</time>
      </trkpt>
      <trkpt lat="48.07243" lon="-2.9651">
        <ele>57.4</ele>
        <time>2021-08-08T14:01:54Z</time>
      </trkpt>
      <trkpt lat="48.07242" lon="-2.96512">
        <ele>57.4</ele>
        <time>2021-08-08T14:01:55Z</time>
      </trkpt>
      <trkpt lat="48.07241" lon="-2.96515">
        <ele>57.6</ele>
        <time>2021-08-08T14:01:56Z</time>
      </trkpt>
      <trkpt lat="48.07239" lon="-2.96518">
        <ele>57.8</ele>
        <time>2021-08-08T14:01:57Z</time>
      </trkpt>
      <trkpt lat="48.07238" lon="-2.96522">
        <ele>58</ele>
        <time>2021-08-08T14:01:58Z</time>
      </trkpt>
      <trkpt lat="48.07237" lon="-2.96526">
        <ele>58</ele>
        <time>2021-08-08T14:01:59Z</time>
      </trkpt>
      <trkpt lat="48.07236" lon="-2.96531">
        <ele>58</ele>
        <time>2021-08-08T14:02:00Z</time>
      </trkpt>
      <trkpt lat="48.07234" lon="-2.96537">
        <ele>58.2</ele>
        <time>2021-08-08T14:02:01Z</time>
      </trkpt>
      <trkpt lat="48.07233" lon="-2.96542">
        <ele>58.2</ele>
        <time>2021-08-08T14:02:02Z</time>
      </trkpt>
      <trkpt lat="48.07231" lon="-2.96548">
        <ele>58.2</ele>
        <time>2021-08-08T14:02:03Z</time>
      </trkpt>
      <trkpt lat="48.0723" lon="-2.96554">
        <ele>58.2</ele>
        <time>2021-08-08T14:02:04Z</time>
      </trkpt>
      <trkpt lat="48.07229" lon="-2.9656">
        <ele>58.2</ele>
        <time>2021-08-08T14:02:05Z</time>
      </trkpt>
      <trkpt lat="48.07229" lon="-2.96565">
        <ele>58.2</ele>
        <time>2021-08-08T14:02:06Z</time>
      </trkpt>
      <trkpt lat="48.07229" lon="-2.96571">
        <ele>58</ele>
        <time>2021-08-08T14:02:07Z</time>
      </trkpt>
      <trkpt lat="48.07229" lon="-2.96577">
        <ele>57.8</ele>
        <time>2021-08-08T14:02:08Z</time>
      </trkpt>
      <trkpt lat="48.07229" lon="-2.96582">
        <ele>57.6</ele>
        <time>2021-08-08T14:02:09Z</time>
      </trkpt>
      <trkpt lat="48.07229" lon="-2.96587">
        <ele>57.4</ele>
        <time>2021-08-08T14:02:10Z</time>
      </trkpt>
      <trkpt lat="48.07229" lon="-2.96592">
        <ele>57.4</ele>
        <time>2021-08-08T14:02:11Z</time>
      </trkpt>
      <trkpt lat="48.0723" lon="-2.96596">
        <ele>57.4</ele>
        <time>2021-08-08T14:02:12Z</time>
      </trkpt>
      <trkpt lat="48.0723" lon="-2.966">
        <ele>57.4</ele>
        <time>2021-08-08T14:02:13Z</time>
      </trkpt>
      <trkpt lat="48.07231" lon="-2.96604">
        <ele>57.2</ele>
        <time>2021-08-08T14:02:14Z</time>
      </trkpt>
      <trkpt lat="48.07233" lon="-2.96608">
        <ele>57.2</ele>
        <time>2021-08-08T14:02:15Z</time>
      </trkpt>
      <trkpt lat="48.07234" lon="-2.96612">
        <ele>57.2</ele>
        <time>2021-08-08T14:02:16Z</time>
      </trkpt>
      <trkpt lat="48.07235" lon="-2.96617">
        <ele>57.2</ele>
        <time>2021-08-08T14:02:17Z</time>
      </trkpt>
      <trkpt lat="48.07237" lon="-2.96621">
        <ele>57.2</ele>
        <time>2021-08-08T14:02:18Z</time>
      </trkpt>
      <trkpt lat="48.07238" lon="-2.96625">
        <ele>57.2</ele>
        <time>2021-08-08T14:02:19Z</time>
      </trkpt>
      <trkpt lat="48.0724" lon="-2.96629">
        <ele>57.2</ele>
        <time>2021-08-08T14:02:20Z</time>
      </trkpt>
      <trkpt lat="48.07241" lon="-2.96633">
        <ele>57.4</ele>
        <time>2021-08-08T14:02:21Z</time>
      </trkpt>
      <trkpt lat="48.07242" lon="-2.96636">
        <ele>57.4</ele>
        <time>2021-08-08T14:02:22Z</time>
      </trkpt>
      <trkpt lat="48.07243" lon="-2.9664">
        <ele>57.4</ele>
        <time>2021-08-08T14:02:23Z</time>
      </trkpt>
      <trkpt lat="48.07244" lon="-2.96644">
        <ele>57.4</ele>
        <time>2021-08-08T14:02:24Z</time>
      </trkpt>
      <trkpt lat="48.07245" lon="-2.96648">
        <ele>57.6</ele>
        <time>2021-08-08T14:02:25Z</time>
      </trkpt>
      <trkpt lat="48.07246" lon="-2.96652">
        <ele>57.6</ele>
        <time>2021-08-08T14:02:26Z</time>
      </trkpt>
      <trkpt lat="48.07247" lon="-2.96655">
        <ele>57.8</ele>
        <time>2021-08-08T14:02:27Z</time>
      </trkpt>
      <trkpt lat="48.07247" lon="-2.96658">
        <ele>57.8</ele>
        <time>2021-08-08T14:02:28Z</time>
      </trkpt>
      <trkpt lat="48.07248" lon="-2.96661">
        <ele>58</ele>
        <time>2021-08-08T14:02:29Z</time>
      </trkpt>
      <trkpt lat="48.07248" lon="-2.96662">
        <ele>58</ele>
        <time>2021-08-08T14:02:30Z</time>
      </trkpt>
      <trkpt lat="48.07248" lon="-2.96664">
        <ele>58</ele>
        <time>2021-08-08T14:02:31Z</time>
      </trkpt>
      <trkpt lat="48.07248" lon="-2.96666">
        <ele>58</ele>
        <time>2021-08-08T14:02:32Z</time>
      </trkpt>
      <trkpt lat="48.07247" lon="-2.96669">
        <ele>58.2</ele>
        <time>2021-08-08T14:02:33Z</time>
      </trkpt>
      <trkpt lat="48.07246" lon="-2.96671">
        <ele>58.2</ele>
        <time>2021-08-08T14:02:34Z</time>
      </trkpt>
      <trkpt lat="48.07245" lon="-2.96672">
        <ele>58.4</ele>
        <time>2021-08-08T14:02:35Z</time>
      </trkpt>
      <trkpt lat="48.07243" lon="-2.96676">
        <ele>58.6</ele>
        <time>2021-08-08T14:03:35Z</time>
      </trkpt>
      <trkpt lat="48.07242" lon="-2.96676">
        <ele>58.6</ele>
        <time>2021-08-08T14:03:36Z</time>
      </trkpt>
      <trkpt lat="48.07241" lon="-2.96675">
        <ele>58.6</ele>
        <time>2021-08-08T14:03:37Z</time>
      </trkpt>
      <trkpt lat="48.0724" lon="-2.96661">
        <ele>58.4</ele>
        <time>2021-08-08T14:03:47Z</time>
      </trkpt>
      <trkpt lat="48.07239" lon="-2.96657">
        <ele>58.4</ele>
        <time>2021-08-08T14:03:48Z</time>
      </trkpt>
      <trkpt lat="48.07238" lon="-2.96654">
        <ele>58.4</ele>
        <time>2021-08-08T14:03:49Z</time>
      </trkpt>
      <trkpt lat="48.07237" lon="-2.9665">
        <ele>58.4</ele>
        <time>2021-08-08T14:03:50Z</time>
      </trkpt>
      <trkpt lat="48.07236" lon="-2.96646">
        <ele>58.2</ele>
        <time>2021-08-08T14:03:51Z</time>
      </trkpt>
      <trkpt lat="48.07235" lon="-2.96643">
        <ele>58.2</ele>
        <time>2021-08-08T14:03:52Z</time>
      </trkpt>
      <trkpt lat="48.07234" lon="-2.96639">
        <ele>58</ele>
        <time>2021-08-08T14:03:53Z</time>
      </trkpt>
      <trkpt lat="48.07233" lon="-2.96634">
        <ele>58</ele>
        <time>2021-08-08T14:03:54Z</time>
      </trkpt>
      <trkpt lat="48.07233" lon="-2.9663">
        <ele>57.8</ele>
        <time>2021-08-08T14:03:55Z</time>
      </trkpt>
      <trkpt lat="48.07232" lon="-2.96625">
        <ele>57.8</ele>
        <time>2021-08-08T14:03:56Z</time>
      </trkpt>
      <trkpt lat="48.07231" lon="-2.9662">
        <ele>57.6</ele>
        <time>2021-08-08T14:03:57Z</time>
      </trkpt>
      <trkpt lat="48.0723" lon="-2.96614">
        <ele>57.6</ele>
        <time>2021-08-08T14:03:58Z</time>
      </trkpt>
      <trkpt lat="48.0723" lon="-2.96609">
        <ele>57.4</ele>
        <time>2021-08-08T14:03:59Z</time>
      </trkpt>
      <trkpt lat="48.07229" lon="-2.96603">
        <ele>57.4</ele>
        <time>2021-08-08T14:04:00Z</time>
      </trkpt>
      <trkpt lat="48.07229" lon="-2.96597">
        <ele>57.2</ele>
        <time>2021-08-08T14:04:01Z</time>
      </trkpt>
      <trkpt lat="48.07229" lon="-2.96591">
        <ele>57.2</ele>
        <time>2021-08-08T14:04:02Z</time>
      </trkpt>
      <trkpt lat="48.07229" lon="-2.96585">
        <ele>57</ele>
        <time>2021-08-08T14:04:03Z</time>
      </trkpt>
      <trkpt lat="48.07229" lon="-2.96579">
        <ele>57</ele>
        <time>2021-08-08T14:04:04Z</time>
      </trkpt>
      <trkpt lat="48.07229" lon="-2.96572">
        <ele>57</ele>
        <time>2021-08-08T14:04:05Z</time>
      </trkpt>
      <trkpt lat="48.0723" lon="-2.96565">
        <ele>56.8</ele>
        <time>2021-08-08T14:04:06Z</time>
      </trkpt>
      <trkpt lat="48.07231" lon="-2.96558">
        <ele>56.8</ele>
        <time>2021-08-08T14:04:07Z</time>
      </trkpt>
      <trkpt lat="48.07232" lon="-2.96551">
        <ele>56.8</ele>
        <time>2021-08-08T14:04:08Z</time>
      </trkpt>
      <trkpt lat="48.07233" lon="-2.96544">
        <ele>56.8</ele>
        <time>2021-08-08T14:04:09Z</time>
      </trkpt>
      <trkpt lat="48.07235" lon="-2.96537">
        <ele>56.8</ele>
        <time>2021-08-08T14:04:10Z</time>
      </trkpt>
      <trkpt lat="48.07236" lon="-2.96531">
        <ele>56.8</ele>
        <time>2021-08-08T14:04:11Z</time>
      </trkpt>
      <trkpt lat="48.07238" lon="-2.96525">
        <ele>56.8</ele>
        <time>2021-08-08T14:04:12Z</time>
      </trkpt>
      <trkpt lat="48.0724" lon="-2.96519">
        <ele>56.8</ele>
        <time>2021-08-08T14:04:13Z</time>
      </trkpt>
      <trkpt lat="48.07243" lon="-2.96514">
        <ele>56.8</ele>
        <time>2021-08-08T14:04:14Z</time>
      </trkpt>
      <trkpt lat="48.07247" lon="-2.96509">
        <ele>57</ele>
        <time>2021-08-08T14:04:15Z</time>
      </trkpt>
      <trkpt lat="48.07251" lon="-2.96505">
        <ele>57</ele>
        <time>2021-08-08T14:04:16Z</time>
      </trkpt>
      <trkpt lat="48.07255" lon="-2.96501">
        <ele>57</ele>
        <time>2021-08-08T14:04:17Z</time>
      </trkpt>
      <trkpt lat="48.07259" lon="-2.96497">
        <ele>57</ele>
        <time>2021-08-08T14:04:18Z</time>
      </trkpt>
      <trkpt lat="48.07263" lon="-2.96493">
        <ele>57</ele>
        <time>2021-08-08T14:04:19Z</time>
      </trkpt>
      <trkpt lat="48.07267" lon="-2.96489">
        <ele>57</ele>
        <time>2021-08-08T14:04:20Z</time>
      </trkpt>
      <trkpt lat="48.07272" lon="-2.96486">
        <ele>57</ele>
        <time>2021-08-08T14:04:21Z</time>
      </trkpt>
      <trkpt lat="48.07276" lon="-2.96482">
        <ele>57</ele>
        <time>2021-08-08T14:04:22Z</time>
      </trkpt>
      <trkpt lat="48.07281" lon="-2.96478">
        <ele>57</ele>
        <time>2021-08-08T14:04:23Z</time>
      </trkpt>
      <trkpt lat="48.07286" lon="-2.96475">
        <ele>57</ele>
        <time>2021-08-08T14:04:24Z</time>
      </trkpt>
      <trkpt lat="48.0729" lon="-2.96472">
        <ele>57</ele>
        <time>2021-08-08T14:04:25Z</time>
      </trkpt>
      <trkpt lat="48.07295" lon="-2.96468">
        <ele>57</ele>
        <time>2021-08-08T14:04:26Z</time>
      </trkpt>
      <trkpt lat="48.07299" lon="-2.96465">
        <ele>57</ele>
        <time>2021-08-08T14:04:27Z</time>
      </trkpt>
      <trkpt lat="48.07304" lon="-2.96463">
        <ele>56.8</ele>
        <time>2021-08-08T14:04:28Z</time>
      </trkpt>
      <trkpt lat="48.07308" lon="-2.96461">
        <ele>56.8</ele>
        <time>2021-08-08T14:04:29Z</time>
      </trkpt>
      <trkpt lat="48.07311" lon="-2.96459">
        <ele>56.6</ele>
        <time>2021-08-08T14:04:30Z</time>
      </trkpt>
      <trkpt lat="48.07315" lon="-2.96455">
        <ele>56.4</ele>
        <time>2021-08-08T14:04:31Z</time>
      </trkpt>
      <trkpt lat="48.07318" lon="-2.96452">
        <ele>56.4</ele>
        <time>2021-08-08T14:04:32Z</time>
      </trkpt>
      <trkpt lat="48.07321" lon="-2.96449">
        <ele>56.2</ele>
        <time>2021-08-08T14:04:33Z</time>
      </trkpt>
      <trkpt lat="48.07325" lon="-2.96446">
        <ele>56.2</ele>
        <time>2021-08-08T14:04:34Z</time>
      </trkpt>
      <trkpt lat="48.07328" lon="-2.96443">
        <ele>56</ele>
        <time>2021-08-08T14:04:35Z</time>
      </trkpt>
      <trkpt lat="48.07331" lon="-2.96441">
        <ele>56</ele>
        <time>2021-08-08T14:04:36Z</time>
      </trkpt>
      <trkpt lat="48.07335" lon="-2.96439">
        <ele>56</ele>
        <time>2021-08-08T14:04:37Z</time>
      </trkpt>
      <trkpt lat="48.07337" lon="-2.96439">
        <ele>55.8</ele>
        <time>2021-08-08T14:04:38Z</time>
      </trkpt>
      <trkpt lat="48.07337" lon="-2.96442">
        <ele>55.8</ele>
        <time>2021-08-08T14:04:39Z</time>
      </trkpt>
      <trkpt lat="48.07337" lon="-2.96445">
        <ele>55.8</ele>
        <time>2021-08-08T14:04:40Z</time>
      </trkpt>
      <trkpt lat="48.07337" lon="-2.96448">
        <ele>55.8</ele>
        <time>2021-08-08T14:04:41Z</time>
      </trkpt>
      <trkpt lat="48.07337" lon="-2.9645">
        <ele>55.8</ele>
        <time>2021-08-08T14:04:42Z</time>
      </trkpt>
      <trkpt lat="48.07337" lon="-2.96452">
        <ele>55.8</ele>
        <time>2021-08-08T14:04:43Z</time>
      </trkpt>
      <trkpt lat="48.07338" lon="-2.96455">
        <ele>55.8</ele>
        <time>2021-08-08T14:04:44Z</time>
      </trkpt>
      <trkpt lat="48.07339" lon="-2.96457">
        <ele>55.8</ele>
        <time>2021-08-08T14:04:45Z</time>
      </trkpt>
      <trkpt lat="48.0734" lon="-2.96458">
        <ele>56</ele>
        <time>2021-08-08T14:04:46Z</time>
      </trkpt>
      <trkpt lat="48.07342" lon="-2.9646">
        <ele>56</ele>
        <time>2021-08-08T14:04:47Z</time>
      </trkpt>
      <trkpt lat="48.07343" lon="-2.96461">
        <ele>56</ele>
        <time>2021-08-08T14:04:48Z</time>
      </trkpt>
      <trkpt lat="48.07345" lon="-2.96463">
        <ele>56</ele>
        <time>2021-08-08T14:04:49Z</time>
      </trkpt>
      <trkpt lat="48.07346" lon="-2.96466">
        <ele>56</ele>
        <time>2021-08-08T14:04:50Z</time>
      </trkpt>
      <trkpt lat="48.07345" lon="-2.96469">
        <ele>56</ele>
        <time>2021-08-08T14:04:51Z</time>
      </trkpt>
      <trkpt lat="48.07344" lon="-2.96471">
        <ele>56</ele>
        <time>2021-08-08T14:04:52Z</time>
      </trkpt>
      <trkpt lat="48.07342" lon="-2.96471">
        <ele>56</ele>
        <time>2021-08-08T14:04:53Z</time>
      </trkpt>
      <trkpt lat="48.0734" lon="-2.96469">
        <ele>56</ele>
        <time>2021-08-08T14:04:54Z</time>
      </trkpt>
      <trkpt lat="48.0734" lon="-2.96466">
        <ele>56</ele>
        <time>2021-08-08T14:04:55Z</time>
      </trkpt>
      <trkpt lat="48.0734" lon="-2.96463">
        <ele>56</ele>
        <time>2021-08-08T14:04:56Z</time>
      </trkpt>
      <trkpt lat="48.07339" lon="-2.96461">
        <ele>56</ele>
        <time>2021-08-08T14:04:57Z</time>
      </trkpt>
      <trkpt lat="48.07338" lon="-2.96459">
        <ele>56</ele>
        <time>2021-08-08T14:04:58Z</time>
      </trkpt>
      <trkpt lat="48.07338" lon="-2.96457">
        <ele>55.8</ele>
        <time>2021-08-08T14:04:59Z</time>
      </trkpt>
      <trkpt lat="48.07337" lon="-2.96456">
        <ele>55.8</ele>
        <time>2021-08-08T14:05:00Z</time>
      </trkpt>
      <trkpt lat="48.07337" lon="-2.96455">
        <ele>55.8</ele>
        <time>2021-08-08T14:05:01Z</time>
      </trkpt>
      <trkpt lat="48.07337" lon="-2.96454">
        <ele>55.8</ele>
        <time>2021-08-08T14:05:02Z</time>
      </trkpt>
      <trkpt lat="48.07336" lon="-2.96454">
        <ele>56</ele>
        <time>2021-08-08T14:05:03Z</time>
      </trkpt>
      <trkpt lat="48.07337" lon="-2.96454">
        <ele>55.6</ele>
        <time>2021-08-08T14:05:04Z</time>
      </trkpt>
      <trkpt lat="48.07336" lon="-2.96452">
        <ele>56.6</ele>
        <time>2021-08-08T14:05:31Z</time>
      </trkpt>
      <trkpt lat="48.07337" lon="-2.96452">
        <ele>56.6</ele>
        <time>2021-08-08T14:05:32Z</time>
      </trkpt>
      <trkpt lat="48.07338" lon="-2.96453">
        <ele>56.6</ele>
        <time>2021-08-08T14:05:33Z</time>
      </trkpt>
      <trkpt lat="48.07338" lon="-2.96454">
        <ele>56.6</ele>
        <time>2021-08-08T14:05:34Z</time>
      </trkpt>
      <trkpt lat="48.0734" lon="-2.96457">
        <ele>56.6</ele>
        <time>2021-08-08T14:05:35Z</time>
      </trkpt>
      <trkpt lat="48.07341" lon="-2.9646">
        <ele>56.6</ele>
        <time>2021-08-08T14:05:36Z</time>
      </trkpt>
      <trkpt lat="48.07342" lon="-2.96464">
        <ele>56.6</ele>
        <time>2021-08-08T14:05:37Z</time>
      </trkpt>
      <trkpt lat="48.07342" lon="-2.96468">
        <ele>56.6</ele>
        <time>2021-08-08T14:05:38Z</time>
      </trkpt>
      <trkpt lat="48.07342" lon="-2.96473">
        <ele>56.6</ele>
        <time>2021-08-08T14:05:39Z</time>
      </trkpt>
      <trkpt lat="48.07342" lon="-2.96477">
        <ele>56.6</ele>
        <time>2021-08-08T14:05:40Z</time>
      </trkpt>
      <trkpt lat="48.07343" lon="-2.96481">
        <ele>56.6</ele>
        <time>2021-08-08T14:05:41Z</time>
      </trkpt>
      <trkpt lat="48.07343" lon="-2.96484">
        <ele>56.4</ele>
        <time>2021-08-08T14:05:42Z</time>
      </trkpt>
      <trkpt lat="48.07343" lon="-2.96486">
        <ele>56.2</ele>
        <time>2021-08-08T14:05:43Z</time>
      </trkpt>
      <trkpt lat="48.07344" lon="-2.96488">
        <ele>56</ele>
        <time>2021-08-08T14:05:44Z</time>
      </trkpt>
      <trkpt lat="48.07344" lon="-2.9649">
        <ele>56</ele>
        <time>2021-08-08T14:05:45Z</time>
      </trkpt>
      <trkpt lat="48.07345" lon="-2.96491">
        <ele>55.8</ele>
        <time>2021-08-08T14:05:46Z</time>
      </trkpt>
      <trkpt lat="48.07345" lon="-2.96493">
        <ele>55.6</ele>
        <time>2021-08-08T14:05:47Z</time>
      </trkpt>
      <trkpt lat="48.07346" lon="-2.96494">
        <ele>55.4</ele>
        <time>2021-08-08T14:05:48Z</time>
      </trkpt>
      <trkpt lat="48.07346" lon="-2.96495">
        <ele>55.2</ele>
        <time>2021-08-08T14:05:49Z</time>
      </trkpt>
      <trkpt lat="48.07347" lon="-2.96496">
        <ele>55.2</ele>
        <time>2021-08-08T14:05:50Z</time>
      </trkpt>
      <trkpt lat="48.07347" lon="-2.96497">
        <ele>55</ele>
        <time>2021-08-08T14:05:51Z</time>
      </trkpt>
      <trkpt lat="48.07348" lon="-2.96499">
        <ele>55</ele>
        <time>2021-08-08T14:05:52Z</time>
      </trkpt>
      <trkpt lat="48.07348" lon="-2.96502">
        <ele>55</ele>
        <time>2021-08-08T14:05:53Z</time>
      </trkpt>
      <trkpt lat="48.07347" lon="-2.96504">
        <ele>55</ele>
        <time>2021-08-08T14:05:54Z</time>
      </trkpt>
      <trkpt lat="48.07347" lon="-2.96506">
        <ele>55</ele>
        <time>2021-08-08T14:05:55Z</time>
      </trkpt>
      <trkpt lat="48.07346" lon="-2.96507">
        <ele>55</ele>
        <time>2021-08-08T14:05:56Z</time>
      </trkpt>
      <trkpt lat="48.07347" lon="-2.96508">
        <ele>54.8</ele>
        <time>2021-08-08T14:05:57Z</time>
      </trkpt>
      <trkpt lat="48.07347" lon="-2.96508">
        <ele>54.6</ele>
        <time>2021-08-08T14:05:58Z</time>
      </trkpt>
      <trkpt lat="48.07348" lon="-2.96508">
        <ele>54.6</ele>
        <time>2021-08-08T14:05:59Z</time>
      </trkpt>
      <trkpt lat="48.07348" lon="-2.96508">
        <ele>54.6</ele>
        <time>2021-08-08T14:06:00Z</time>
      </trkpt>
      <trkpt lat="48.07349" lon="-2.96507">
        <ele>54.6</ele>
        <time>2021-08-08T14:06:01Z</time>
      </trkpt>
      <trkpt lat="48.07349" lon="-2.96507">
        <ele>54.6</ele>
        <time>2021-08-08T14:06:02Z</time>
      </trkpt>
      <trkpt lat="48.07351" lon="-2.96506">
        <ele>54.6</ele>
        <time>2021-08-08T14:06:03Z</time>
      </trkpt>
      <trkpt lat="48.07351" lon="-2.96505">
        <ele>54.6</ele>
        <time>2021-08-08T14:06:04Z</time>
      </trkpt>
      <trkpt lat="48.07353" lon="-2.96505">
        <ele>54.6</ele>
        <time>2021-08-08T14:06:05Z</time>
      </trkpt>
      <trkpt lat="48.07353" lon="-2.96504">
        <ele>54.6</ele>
        <time>2021-08-08T14:06:06Z</time>
      </trkpt>
      <trkpt lat="48.07355" lon="-2.96502">
        <ele>54.6</ele>
        <time>2021-08-08T14:06:07Z</time>
      </trkpt>
      <trkpt lat="48.07356" lon="-2.96501">
        <ele>54.6</ele>
        <time>2021-08-08T14:06:08Z</time>
      </trkpt>
      <trkpt lat="48.07357" lon="-2.96499">
        <ele>54.8</ele>
        <time>2021-08-08T14:06:09Z</time>
      </trkpt>
      <trkpt lat="48.07357" lon="-2.96499">
        <ele>55</ele>
        <time>2021-08-08T14:06:10Z</time>
      </trkpt>
      <trkpt lat="48.07358" lon="-2.96499">
        <ele>55.2</ele>
        <time>2021-08-08T14:06:11Z</time>
      </trkpt>
      <trkpt lat="48.07359" lon="-2.96499">
        <ele>55.2</ele>
        <time>2021-08-08T14:06:12Z</time>
      </trkpt>
      <trkpt lat="48.07361" lon="-2.96499">
        <ele>55.2</ele>
        <time>2021-08-08T14:06:13Z</time>
      </trkpt>
      <trkpt lat="48.07363" lon="-2.96499">
        <ele>55.2</ele>
        <time>2021-08-08T14:06:14Z</time>
      </trkpt>
      <trkpt lat="48.07364" lon="-2.96498">
        <ele>55.4</ele>
        <time>2021-08-08T14:06:15Z</time>
      </trkpt>
      <trkpt lat="48.07366" lon="-2.96498">
        <ele>55.4</ele>
        <time>2021-08-08T14:06:16Z</time>
      </trkpt>
      <trkpt lat="48.07367" lon="-2.96498">
        <ele>55.4</ele>
        <time>2021-08-08T14:06:17Z</time>
      </trkpt>
      <trkpt lat="48.07368" lon="-2.96498">
        <ele>55.6</ele>
        <time>2021-08-08T14:06:18Z</time>
      </trkpt>
      <trkpt lat="48.07369" lon="-2.96498">
        <ele>55.6</ele>
        <time>2021-08-08T14:06:19Z</time>
      </trkpt>
      <trkpt lat="48.0737" lon="-2.96498">
        <ele>55.6</ele>
        <time>2021-08-08T14:06:20Z</time>
      </trkpt>
      <trkpt lat="48.07371" lon="-2.96498">
        <ele>55.6</ele>
        <time>2021-08-08T14:06:21Z</time>
      </trkpt>
      <trkpt lat="48.07372" lon="-2.96498">
        <ele>55.6</ele>
        <time>2021-08-08T14:06:22Z</time>
      </trkpt>
      <trkpt lat="48.07373" lon="-2.96498">
        <ele>55.6</ele>
        <time>2021-08-08T14:06:23Z</time>
      </trkpt>
      <trkpt lat="48.07374" lon="-2.96498">
        <ele>55.8</ele>
        <time>2021-08-08T14:06:24Z</time>
      </trkpt>
      <trkpt lat="48.07375" lon="-2.96499">
        <ele>55.8</ele>
        <time>2021-08-08T14:06:25Z</time>
      </trkpt>
      <trkpt lat="48.07376" lon="-2.96499">
        <ele>55.8</ele>
        <time>2021-08-08T14:06:26Z</time>
      </trkpt>
      <trkpt lat="48.07377" lon="-2.965">
        <ele>55.8</ele>
        <time>2021-08-08T14:06:27Z</time>
      </trkpt>
      <trkpt lat="48.07378" lon="-2.965">
        <ele>55.8</ele>
        <time>2021-08-08T14:06:28Z</time>
      </trkpt>
      <trkpt lat="48.07379" lon="-2.965">
        <ele>55.8</ele>
        <time>2021-08-08T14:06:29Z</time>
      </trkpt>
      <trkpt lat="48.07383" lon="-2.96498">
        <ele>55.8</ele>
        <time>2021-08-08T14:06:49Z</time>
      </trkpt>
      <trkpt lat="48.07383" lon="-2.96499">
        <ele>55.8</ele>
        <time>2021-08-08T14:06:50Z</time>
      </trkpt>
      <trkpt lat="48.07383" lon="-2.96499">
        <ele>55.8</ele>
        <time>2021-08-08T14:06:51Z</time>
      </trkpt>
      <trkpt lat="48.07383" lon="-2.96499">
        <ele>55.8</ele>
        <time>2021-08-08T14:06:52Z</time>
      </trkpt>
      <trkpt lat="48.07383" lon="-2.96499">
        <ele>55.8</ele>
        <time>2021-08-08T14:06:53Z</time>
      </trkpt>
      <trkpt lat="48.07362" lon="-2.96422">
        <ele>60</ele>
        <time>2021-08-09T07:25:14Z</time>
      </trkpt>
      <trkpt lat="48.07369" lon="-2.96415">
        <ele>60.2</ele>
        <time>2021-08-09T07:25:16Z</time>
      </trkpt>
      <trkpt lat="48.07372" lon="-2.96412">
        <ele>60.2</ele>
        <time>2021-08-09T07:25:17Z</time>
      </trkpt>
      <trkpt lat="48.07375" lon="-2.96409">
        <ele>60.2</ele>
        <time>2021-08-09T07:25:18Z</time>
      </trkpt>
      <trkpt lat="48.07379" lon="-2.96405">
        <ele>60.2</ele>
        <time>2021-08-09T07:25:19Z</time>
      </trkpt>
      <trkpt lat="48.07382" lon="-2.96402">
        <ele>60.2</ele>
        <time>2021-08-09T07:25:20Z</time>
      </trkpt>
      <trkpt lat="48.07386" lon="-2.96399">
        <ele>60.2</ele>
        <time>2021-08-09T07:25:21Z</time>
      </trkpt>
      <trkpt lat="48.07389" lon="-2.96396">
        <ele>60.2</ele>
        <time>2021-08-09T07:25:22Z</time>
      </trkpt>
      <trkpt lat="48.07397" lon="-2.96389">
        <ele>60</ele>
        <time>2021-08-09T07:25:24Z</time>
      </trkpt>
      <trkpt lat="48.074" lon="-2.96385">
        <ele>60</ele>
        <time>2021-08-09T07:25:25Z</time>
      </trkpt>
      <trkpt lat="48.07404" lon="-2.96382">
        <ele>60</ele>
        <time>2021-08-09T07:25:26Z</time>
      </trkpt>
      <trkpt lat="48.07408" lon="-2.96378">
        <ele>60</ele>
        <time>2021-08-09T07:25:27Z</time>
      </trkpt>
      <trkpt lat="48.07412" lon="-2.96374">
        <ele>60</ele>
        <time>2021-08-09T07:25:28Z</time>
      </trkpt>
      <trkpt lat="48.07416" lon="-2.96369">
        <ele>60</ele>
        <time>2021-08-09T07:25:29Z</time>
      </trkpt>
      <trkpt lat="48.07419" lon="-2.96364">
        <ele>60</ele>
        <time>2021-08-09T07:25:30Z</time>
      </trkpt>
      <trkpt lat="48.07422" lon="-2.96359">
        <ele>60.2</ele>
        <time>2021-08-09T07:25:31Z</time>
      </trkpt>
      <trkpt lat="48.07425" lon="-2.96354">
        <ele>60.2</ele>
        <time>2021-08-09T07:25:32Z</time>
      </trkpt>
      <trkpt lat="48.07428" lon="-2.96348">
        <ele>60.2</ele>
        <time>2021-08-09T07:25:33Z</time>
      </trkpt>
      <trkpt lat="48.07432" lon="-2.96338">
        <ele>60.4</ele>
        <time>2021-08-09T07:25:35Z</time>
      </trkpt>
      <trkpt lat="48.07435" lon="-2.96334">
        <ele>60.4</ele>
        <time>2021-08-09T07:25:36Z</time>
      </trkpt>
      <trkpt lat="48.07437" lon="-2.96329">
        <ele>60.4</ele>
        <time>2021-08-09T07:25:37Z</time>
      </trkpt>
      <trkpt lat="48.07439" lon="-2.96324">
        <ele>60.4</ele>
        <time>2021-08-09T07:25:38Z</time>
      </trkpt>
      <trkpt lat="48.07441" lon="-2.96319">
        <ele>60.6</ele>
        <time>2021-08-09T07:25:39Z</time>
      </trkpt>
      <trkpt lat="48.07442" lon="-2.96314">
        <ele>60.4</ele>
        <time>2021-08-09T07:25:40Z</time>
      </trkpt>
      <trkpt lat="48.07444" lon="-2.96309">
        <ele>60.6</ele>
        <time>2021-08-09T07:25:41Z</time>
      </trkpt>
      <trkpt lat="48.07445" lon="-2.96303">
        <ele>60.6</ele>
        <time>2021-08-09T07:25:42Z</time>
      </trkpt>
      <trkpt lat="48.07447" lon="-2.96299">
        <ele>61</ele>
        <time>2021-08-09T07:25:43Z</time>
      </trkpt>
      <trkpt lat="48.07448" lon="-2.96295">
        <ele>61</ele>
        <time>2021-08-09T07:25:44Z</time>
      </trkpt>
      <trkpt lat="48.07452" lon="-2.96285">
        <ele>61.2</ele>
        <time>2021-08-09T07:25:46Z</time>
      </trkpt>
      <trkpt lat="48.07453" lon="-2.9628">
        <ele>61.2</ele>
        <time>2021-08-09T07:25:47Z</time>
      </trkpt>
      <trkpt lat="48.07454" lon="-2.96276">
        <ele>61.4</ele>
        <time>2021-08-09T07:25:48Z</time>
      </trkpt>
      <trkpt lat="48.07455" lon="-2.96272">
        <ele>61.4</ele>
        <time>2021-08-09T07:25:49Z</time>
      </trkpt>
      <trkpt lat="48.07455" lon="-2.96269">
        <ele>61.4</ele>
        <time>2021-08-09T07:25:50Z</time>
      </trkpt>
      <trkpt lat="48.07455" lon="-2.96265">
        <ele>61.8</ele>
        <time>2021-08-09T07:25:53Z</time>
      </trkpt>
      <trkpt lat="48.07456" lon="-2.96263">
        <ele>62</ele>
        <time>2021-08-09T07:25:54Z</time>
      </trkpt>
      <trkpt lat="48.07455" lon="-2.96261">
        <ele>62.2</ele>
        <time>2021-08-09T07:25:55Z</time>
      </trkpt>
      <trkpt lat="48.07454" lon="-2.96259">
        <ele>62.2</ele>
        <time>2021-08-09T07:25:56Z</time>
      </trkpt>
      <trkpt lat="48.07452" lon="-2.96258">
        <ele>62.6</ele>
        <time>2021-08-09T07:25:57Z</time>
      </trkpt>
      <trkpt lat="48.0745" lon="-2.96256">
        <ele>62.8</ele>
        <time>2021-08-09T07:25:58Z</time>
      </trkpt>
      <trkpt lat="48.07447" lon="-2.96253">
        <ele>63</ele>
        <time>2021-08-09T07:25:59Z</time>
      </trkpt>
      <trkpt lat="48.07444" lon="-2.96251">
        <ele>63</ele>
        <time>2021-08-09T07:26:00Z</time>
      </trkpt>
      <trkpt lat="48.07441" lon="-2.96249">
        <ele>63</ele>
        <time>2021-08-09T07:26:01Z</time>
      </trkpt>
      <trkpt lat="48.07438" lon="-2.96246">
        <ele>63</ele>
        <time>2021-08-09T07:26:02Z</time>
      </trkpt>
      <trkpt lat="48.07434" lon="-2.96244">
        <ele>63</ele>
        <time>2021-08-09T07:26:03Z</time>
      </trkpt>
      <trkpt lat="48.0743" lon="-2.96241">
        <ele>63</ele>
        <time>2021-08-09T07:26:04Z</time>
      </trkpt>
      <trkpt lat="48.07425" lon="-2.96238">
        <ele>63</ele>
        <time>2021-08-09T07:26:05Z</time>
      </trkpt>
      <trkpt lat="48.07417" lon="-2.96233">
        <ele>63</ele>
        <time>2021-08-09T07:26:07Z</time>
      </trkpt>
      <trkpt lat="48.07412" lon="-2.9623">
        <ele>63</ele>
        <time>2021-08-09T07:26:08Z</time>
      </trkpt>
      <trkpt lat="48.07407" lon="-2.96229">
        <ele>62.8</ele>
        <time>2021-08-09T07:26:09Z</time>
      </trkpt>
      <trkpt lat="48.07402" lon="-2.96229">
        <ele>62.8</ele>
        <time>2021-08-09T07:26:10Z</time>
      </trkpt>
      <trkpt lat="48.07397" lon="-2.96229">
        <ele>62.6</ele>
        <time>2021-08-09T07:26:11Z</time>
      </trkpt>
      <trkpt lat="48.07392" lon="-2.96229">
        <ele>62.4</ele>
        <time>2021-08-09T07:26:12Z</time>
      </trkpt>
      <trkpt lat="48.07387" lon="-2.96231">
        <ele>62.2</ele>
        <time>2021-08-09T07:26:13Z</time>
      </trkpt>
      <trkpt lat="48.07382" lon="-2.96233">
        <ele>62</ele>
        <time>2021-08-09T07:26:14Z</time>
      </trkpt>
      <trkpt lat="48.07377" lon="-2.96235">
        <ele>61.8</ele>
        <time>2021-08-09T07:26:15Z</time>
      </trkpt>
      <trkpt lat="48.07372" lon="-2.96238">
        <ele>61.6</ele>
        <time>2021-08-09T07:26:16Z</time>
      </trkpt>
      <trkpt lat="48.07362" lon="-2.96244">
        <ele>61.6</ele>
        <time>2021-08-09T07:26:18Z</time>
      </trkpt>
      <trkpt lat="48.07358" lon="-2.96247">
        <ele>61.4</ele>
        <time>2021-08-09T07:26:19Z</time>
      </trkpt>
      <trkpt lat="48.07353" lon="-2.96251">
        <ele>61.4</ele>
        <time>2021-08-09T07:26:20Z</time>
      </trkpt>
      <trkpt lat="48.07348" lon="-2.96254">
        <ele>61.4</ele>
        <time>2021-08-09T07:26:21Z</time>
      </trkpt>
      <trkpt lat="48.07344" lon="-2.96257">
        <ele>61</ele>
        <time>2021-08-09T07:26:22Z</time>
      </trkpt>
      <trkpt lat="48.07339" lon="-2.96261">
        <ele>61</ele>
        <time>2021-08-09T07:26:23Z</time>
      </trkpt>
      <trkpt lat="48.07334" lon="-2.96264">
        <ele>60.6</ele>
        <time>2021-08-09T07:26:24Z</time>
      </trkpt>
      <trkpt lat="48.07329" lon="-2.96267">
        <ele>60.4</ele>
        <time>2021-08-09T07:26:25Z</time>
      </trkpt>
      <trkpt lat="48.07324" lon="-2.9627">
        <ele>60.2</ele>
        <time>2021-08-09T07:26:26Z</time>
      </trkpt>
      <trkpt lat="48.07319" lon="-2.96273">
        <ele>60.2</ele>
        <time>2021-08-09T07:26:27Z</time>
      </trkpt>
      <trkpt lat="48.07309" lon="-2.9628">
        <ele>60.2</ele>
        <time>2021-08-09T07:26:29Z</time>
      </trkpt>
      <trkpt lat="48.07304" lon="-2.96283">
        <ele>60.2</ele>
        <time>2021-08-09T07:26:30Z</time>
      </trkpt>
      <trkpt lat="48.07299" lon="-2.96286">
        <ele>60.2</ele>
        <time>2021-08-09T07:26:31Z</time>
      </trkpt>
      <trkpt lat="48.07294" lon="-2.96289">
        <ele>60</ele>
        <time>2021-08-09T07:26:32Z</time>
      </trkpt>
      <trkpt lat="48.07289" lon="-2.96293">
        <ele>60</ele>
        <time>2021-08-09T07:26:33Z</time>
      </trkpt>
      <trkpt lat="48.07284" lon="-2.96296">
        <ele>60</ele>
        <time>2021-08-09T07:26:34Z</time>
      </trkpt>
      <trkpt lat="48.07279" lon="-2.96299">
        <ele>60</ele>
        <time>2021-08-09T07:26:35Z</time>
      </trkpt>
      <trkpt lat="48.07274" lon="-2.96303">
        <ele>60</ele>
        <time>2021-08-09T07:26:36Z</time>
      </trkpt>
      <trkpt lat="48.07269" lon="-2.96306">
        <ele>60</ele>
        <time>2021-08-09T07:26:37Z</time>
      </trkpt>
      <trkpt lat="48.07264" lon="-2.9631">
        <ele>59.8</ele>
        <time>2021-08-09T07:26:38Z</time>
      </trkpt>
      <trkpt lat="48.07254" lon="-2.96317">
        <ele>59.6</ele>
        <time>2021-08-09T07:26:40Z</time>
      </trkpt>
      <trkpt lat="48.07249" lon="-2.9632">
        <ele>59.4</ele>
        <time>2021-08-09T07:26:41Z</time>
      </trkpt>
      <trkpt lat="48.07244" lon="-2.96323">
        <ele>59.4</ele>
        <time>2021-08-09T07:26:42Z</time>
      </trkpt>
      <trkpt lat="48.07239" lon="-2.96327">
        <ele>59.4</ele>
        <time>2021-08-09T07:26:43Z</time>
      </trkpt>
      <trkpt lat="48.07234" lon="-2.96331">
        <ele>59.2</ele>
        <time>2021-08-09T07:26:44Z</time>
      </trkpt>
      <trkpt lat="48.07229" lon="-2.96334">
        <ele>59.2</ele>
        <time>2021-08-09T07:26:45Z</time>
      </trkpt>
      <trkpt lat="48.07223" lon="-2.96338">
        <ele>59.2</ele>
        <time>2021-08-09T07:26:46Z</time>
      </trkpt>
      <trkpt lat="48.07218" lon="-2.96342">
        <ele>59.2</ele>
        <time>2021-08-09T07:26:47Z</time>
      </trkpt>
      <trkpt lat="48.07213" lon="-2.96345">
        <ele>59.2</ele>
        <time>2021-08-09T07:26:48Z</time>
      </trkpt>
      <trkpt lat="48.07208" lon="-2.96349">
        <ele>59.2</ele>
        <time>2021-08-09T07:26:49Z</time>
      </trkpt>
      <trkpt lat="48.07198" lon="-2.96356">
        <ele>59.2</ele>
        <time>2021-08-09T07:26:51Z</time>
      </trkpt>
      <trkpt lat="48.07193" lon="-2.96359">
        <ele>59.2</ele>
        <time>2021-08-09T07:26:52Z</time>
      </trkpt>
      <trkpt lat="48.07188" lon="-2.96363">
        <ele>59.2</ele>
        <time>2021-08-09T07:26:53Z</time>
      </trkpt>
      <trkpt lat="48.07183" lon="-2.96367">
        <ele>59.2</ele>
        <time>2021-08-09T07:26:54Z</time>
      </trkpt>
      <trkpt lat="48.07179" lon="-2.96371">
        <ele>59</ele>
        <time>2021-08-09T07:26:55Z</time>
      </trkpt>
      <trkpt lat="48.07174" lon="-2.96375">
        <ele>59.2</ele>
        <time>2021-08-09T07:26:56Z</time>
      </trkpt>
      <trkpt lat="48.07169" lon="-2.96379">
        <ele>59.2</ele>
        <time>2021-08-09T07:26:57Z</time>
      </trkpt>
      <trkpt lat="48.07164" lon="-2.96383">
        <ele>59.2</ele>
        <time>2021-08-09T07:26:58Z</time>
      </trkpt>
      <trkpt lat="48.07159" lon="-2.96387">
        <ele>59.2</ele>
        <time>2021-08-09T07:26:59Z</time>
      </trkpt>
      <trkpt lat="48.07154" lon="-2.9639">
        <ele>59</ele>
        <time>2021-08-09T07:27:00Z</time>
      </trkpt>
      <trkpt lat="48.07144" lon="-2.96397">
        <ele>59</ele>
        <time>2021-08-09T07:27:02Z</time>
      </trkpt>
      <trkpt lat="48.07139" lon="-2.96401">
        <ele>59</ele>
        <time>2021-08-09T07:27:03Z</time>
      </trkpt>
      <trkpt lat="48.07134" lon="-2.96404">
        <ele>59</ele>
        <time>2021-08-09T07:27:04Z</time>
      </trkpt>
      <trkpt lat="48.07128" lon="-2.96407">
        <ele>58.8</ele>
        <time>2021-08-09T07:27:05Z</time>
      </trkpt>
      <trkpt lat="48.07123" lon="-2.96411">
        <ele>58.8</ele>
        <time>2021-08-09T07:27:06Z</time>
      </trkpt>
      <trkpt lat="48.07118" lon="-2.96414">
        <ele>58.8</ele>
        <time>2021-08-09T07:27:07Z</time>
      </trkpt>
      <trkpt lat="48.07113" lon="-2.96418">
        <ele>58.8</ele>
        <time>2021-08-09T07:27:08Z</time>
      </trkpt>
      <trkpt lat="48.07108" lon="-2.96422">
        <ele>58.8</ele>
        <time>2021-08-09T07:27:09Z</time>
      </trkpt>
      <trkpt lat="48.07102" lon="-2.96425">
        <ele>58.8</ele>
        <time>2021-08-09T07:27:10Z</time>
      </trkpt>
      <trkpt lat="48.07097" lon="-2.96429">
        <ele>58.8</ele>
        <time>2021-08-09T07:27:11Z</time>
      </trkpt>
      <trkpt lat="48.07087" lon="-2.96434">
        <ele>58.8</ele>
        <time>2021-08-09T07:27:13Z</time>
      </trkpt>
      <trkpt lat="48.07082" lon="-2.96437">
        <ele>58.8</ele>
        <time>2021-08-09T07:27:14Z</time>
      </trkpt>
      <trkpt lat="48.07076" lon="-2.96438">
        <ele>58.8</ele>
        <time>2021-08-09T07:27:15Z</time>
      </trkpt>
      <trkpt lat="48.07071" lon="-2.9644">
        <ele>58.8</ele>
        <time>2021-08-09T07:27:16Z</time>
      </trkpt>
      <trkpt lat="48.07066" lon="-2.96441">
        <ele>58.8</ele>
        <time>2021-08-09T07:27:17Z</time>
      </trkpt>
      <trkpt lat="48.07061" lon="-2.96442">
        <ele>58.8</ele>
        <time>2021-08-09T07:27:18Z</time>
      </trkpt>
      <trkpt lat="48.07056" lon="-2.96443">
        <ele>58.8</ele>
        <time>2021-08-09T07:27:19Z</time>
      </trkpt>
      <trkpt lat="48.07051" lon="-2.96443">
        <ele>58.8</ele>
        <time>2021-08-09T07:27:20Z</time>
      </trkpt>
      <trkpt lat="48.07046" lon="-2.96443">
        <ele>58.8</ele>
        <time>2021-08-09T07:27:21Z</time>
      </trkpt>
      <trkpt lat="48.07041" lon="-2.96443">
        <ele>58.8</ele>
        <time>2021-08-09T07:27:22Z</time>
      </trkpt>
      <trkpt lat="48.07031" lon="-2.96444">
        <ele>59</ele>
        <time>2021-08-09T07:27:24Z</time>
      </trkpt>
      <trkpt lat="48.07026" lon="-2.96444">
        <ele>59.2</ele>
        <time>2021-08-09T07:27:25Z</time>
      </trkpt>
      <trkpt lat="48.07021" lon="-2.96444">
        <ele>59.2</ele>
        <time>2021-08-09T07:27:26Z</time>
      </trkpt>
      <trkpt lat="48.07016" lon="-2.96444">
        <ele>59.2</ele>
        <time>2021-08-09T07:27:27Z</time>
      </trkpt>
      <trkpt lat="48.07012" lon="-2.96445">
        <ele>59.4</ele>
        <time>2021-08-09T07:27:28Z</time>
      </trkpt>
      <trkpt lat="48.07007" lon="-2.96445">
        <ele>59.4</ele>
        <time>2021-08-09T07:27:29Z</time>
      </trkpt>
      <trkpt lat="48.07002" lon="-2.96446">
        <ele>59.6</ele>
        <time>2021-08-09T07:27:30Z</time>
      </trkpt>
      <trkpt lat="48.06997" lon="-2.96446">
        <ele>59.6</ele>
        <time>2021-08-09T07:27:31Z</time>
      </trkpt>
      <trkpt lat="48.06993" lon="-2.96447">
        <ele>59.8</ele>
        <time>2021-08-09T07:27:32Z</time>
      </trkpt>
      <trkpt lat="48.06988" lon="-2.96447">
        <ele>59.8</ele>
        <time>2021-08-09T07:27:33Z</time>
      </trkpt>
      <trkpt lat="48.06979" lon="-2.96448">
        <ele>59.8</ele>
        <time>2021-08-09T07:27:35Z</time>
      </trkpt>
      <trkpt lat="48.06974" lon="-2.9645">
        <ele>60</ele>
        <time>2021-08-09T07:27:36Z</time>
      </trkpt>
      <trkpt lat="48.0697" lon="-2.96451">
        <ele>60.2</ele>
        <time>2021-08-09T07:27:37Z</time>
      </trkpt>
      <trkpt lat="48.06965" lon="-2.96453">
        <ele>60.2</ele>
        <time>2021-08-09T07:27:38Z</time>
      </trkpt>
      <trkpt lat="48.06961" lon="-2.96454">
        <ele>60.2</ele>
        <time>2021-08-09T07:27:39Z</time>
      </trkpt>
      <trkpt lat="48.06957" lon="-2.96456">
        <ele>60.4</ele>
        <time>2021-08-09T07:27:40Z</time>
      </trkpt>
      <trkpt lat="48.06953" lon="-2.96457">
        <ele>60.4</ele>
        <time>2021-08-09T07:27:41Z</time>
      </trkpt>
      <trkpt lat="48.06948" lon="-2.96459">
        <ele>60.4</ele>
        <time>2021-08-09T07:27:42Z</time>
      </trkpt>
      <trkpt lat="48.06944" lon="-2.9646">
        <ele>60.6</ele>
        <time>2021-08-09T07:27:43Z</time>
      </trkpt>
      <trkpt lat="48.0694" lon="-2.96462">
        <ele>60.6</ele>
        <time>2021-08-09T07:27:44Z</time>
      </trkpt>
      <trkpt lat="48.06932" lon="-2.96464">
        <ele>61</ele>
        <time>2021-08-09T07:27:46Z</time>
      </trkpt>
      <trkpt lat="48.06928" lon="-2.96466">
        <ele>61</ele>
        <time>2021-08-09T07:27:47Z</time>
      </trkpt>
      <trkpt lat="48.06924" lon="-2.96467">
        <ele>61</ele>
        <time>2021-08-09T07:27:48Z</time>
      </trkpt>
      <trkpt lat="48.0692" lon="-2.96468">
        <ele>61.4</ele>
        <time>2021-08-09T07:27:49Z</time>
      </trkpt>
      <trkpt lat="48.06915" lon="-2.9647">
        <ele>61.8</ele>
        <time>2021-08-09T07:27:50Z</time>
      </trkpt>
      <trkpt lat="48.06911" lon="-2.96471">
        <ele>61.8</ele>
        <time>2021-08-09T07:27:51Z</time>
      </trkpt>
      <trkpt lat="48.06907" lon="-2.96472">
        <ele>62</ele>
        <time>2021-08-09T07:27:52Z</time>
      </trkpt>
      <trkpt lat="48.06903" lon="-2.96474">
        <ele>62.2</ele>
        <time>2021-08-09T07:27:53Z</time>
      </trkpt>
      <trkpt lat="48.06899" lon="-2.96476">
        <ele>62.2</ele>
        <time>2021-08-09T07:27:54Z</time>
      </trkpt>
      <trkpt lat="48.06895" lon="-2.96477">
        <ele>62.4</ele>
        <time>2021-08-09T07:27:55Z</time>
      </trkpt>
      <trkpt lat="48.06887" lon="-2.96481">
        <ele>62.8</ele>
        <time>2021-08-09T07:27:57Z</time>
      </trkpt>
      <trkpt lat="48.06883" lon="-2.96483">
        <ele>63</ele>
        <time>2021-08-09T07:27:58Z</time>
      </trkpt>
      <trkpt lat="48.06878" lon="-2.96484">
        <ele>63.2</ele>
        <time>2021-08-09T07:27:59Z</time>
      </trkpt>
      <trkpt lat="48.06874" lon="-2.96485">
        <ele>63.2</ele>
        <time>2021-08-09T07:28:00Z</time>
      </trkpt>
      <trkpt lat="48.0687" lon="-2.96486">
        <ele>63.2</ele>
        <time>2021-08-09T07:28:01Z</time>
      </trkpt>
      <trkpt lat="48.06866" lon="-2.96488">
        <ele>63.4</ele>
        <time>2021-08-09T07:28:02Z</time>
      </trkpt>
      <trkpt lat="48.06861" lon="-2.96489">
        <ele>63.4</ele>
        <time>2021-08-09T07:28:03Z</time>
      </trkpt>
      <trkpt lat="48.06857" lon="-2.9649">
        <ele>63.6</ele>
        <time>2021-08-09T07:28:04Z</time>
      </trkpt>
      <trkpt lat="48.06853" lon="-2.96492">
        <ele>63.6</ele>
        <time>2021-08-09T07:28:05Z</time>
      </trkpt>
      <trkpt lat="48.0685" lon="-2.96494">
        <ele>63.6</ele>
        <time>2021-08-09T07:28:06Z</time>
      </trkpt>
      <trkpt lat="48.06842" lon="-2.96497">
        <ele>63.6</ele>
        <time>2021-08-09T07:28:08Z</time>
      </trkpt>
      <trkpt lat="48.06838" lon="-2.96498">
        <ele>63.6</ele>
        <time>2021-08-09T07:28:09Z</time>
      </trkpt>
      <trkpt lat="48.06835" lon="-2.965">
        <ele>63.6</ele>
        <time>2021-08-09T07:28:10Z</time>
      </trkpt>
      <trkpt lat="48.06831" lon="-2.96501">
        <ele>63.6</ele>
        <time>2021-08-09T07:28:11Z</time>
      </trkpt>
      <trkpt lat="48.06828" lon="-2.96502">
        <ele>63.6</ele>
        <time>2021-08-09T07:28:12Z</time>
      </trkpt>
      <trkpt lat="48.06825" lon="-2.96503">
        <ele>63.6</ele>
        <time>2021-08-09T07:28:13Z</time>
      </trkpt>
      <trkpt lat="48.06823" lon="-2.96504">
        <ele>63.6</ele>
        <time>2021-08-09T07:28:14Z</time>
      </trkpt>
      <trkpt lat="48.0682" lon="-2.96505">
        <ele>63.6</ele>
        <time>2021-08-09T07:28:15Z</time>
      </trkpt>
      <trkpt lat="48.06818" lon="-2.96506">
        <ele>63.6</ele>
        <time>2021-08-09T07:28:16Z</time>
      </trkpt>
      <trkpt lat="48.06816" lon="-2.96507">
        <ele>63.6</ele>
        <time>2021-08-09T07:28:17Z</time>
      </trkpt>
      <trkpt lat="48.06811" lon="-2.96508">
        <ele>63.8</ele>
        <time>2021-08-09T07:28:19Z</time>
      </trkpt>
      <trkpt lat="48.0681" lon="-2.96509">
        <ele>63.8</ele>
        <time>2021-08-09T07:28:20Z</time>
      </trkpt>
      <trkpt lat="48.06809" lon="-2.9651">
        <ele>63.8</ele>
        <time>2021-08-09T07:28:21Z</time>
      </trkpt>
      <trkpt lat="48.06807" lon="-2.9651">
        <ele>63.8</ele>
        <time>2021-08-09T07:28:22Z</time>
      </trkpt>
      <trkpt lat="48.06806" lon="-2.96511">
        <ele>64</ele>
        <time>2021-08-09T07:28:23Z</time>
      </trkpt>
      <trkpt lat="48.06805" lon="-2.96512">
        <ele>64</ele>
        <time>2021-08-09T07:28:24Z</time>
      </trkpt>
      <trkpt lat="48.06804" lon="-2.96512">
        <ele>64</ele>
        <time>2021-08-09T07:28:25Z</time>
      </trkpt>
      <trkpt lat="48.06803" lon="-2.96512">
        <ele>64</ele>
        <time>2021-08-09T07:28:26Z</time>
      </trkpt>
      <trkpt lat="48.06802" lon="-2.96512">
        <ele>64.2</ele>
        <time>2021-08-09T07:28:27Z</time>
      </trkpt>
      <trkpt lat="48.068" lon="-2.96513">
        <ele>64.2</ele>
        <time>2021-08-09T07:28:28Z</time>
      </trkpt>
      <trkpt lat="48.06799" lon="-2.96513">
        <ele>64.2</ele>
        <time>2021-08-09T07:28:29Z</time>
      </trkpt>
      <trkpt lat="48.06798" lon="-2.96513">
        <ele>64.2</ele>
        <time>2021-08-09T07:28:30Z</time>
      </trkpt>
      <trkpt lat="48.06796" lon="-2.96512">
        <ele>64.2</ele>
        <time>2021-08-09T07:28:31Z</time>
      </trkpt>
      <trkpt lat="48.06794" lon="-2.9651">
        <ele>64.2</ele>
        <time>2021-08-09T07:28:32Z</time>
      </trkpt>
      <trkpt lat="48.06793" lon="-2.96508">
        <ele>64.2</ele>
        <time>2021-08-09T07:28:33Z</time>
      </trkpt>
      <trkpt lat="48.06792" lon="-2.96507">
        <ele>64.4</ele>
        <time>2021-08-09T07:28:34Z</time>
      </trkpt>
      <trkpt lat="48.0679" lon="-2.96506">
        <ele>64.4</ele>
        <time>2021-08-09T07:28:35Z</time>
      </trkpt>
      <trkpt lat="48.06789" lon="-2.96506">
        <ele>64.4</ele>
        <time>2021-08-09T07:28:36Z</time>
      </trkpt>
      <trkpt lat="48.06789" lon="-2.96506">
        <ele>64.4</ele>
        <time>2021-08-09T07:28:37Z</time>
      </trkpt>
      <trkpt lat="48.06788" lon="-2.96507">
        <ele>64.4</ele>
        <time>2021-08-09T07:28:38Z</time>
      </trkpt>
      <trkpt lat="48.06787" lon="-2.96507">
        <ele>64.4</ele>
        <time>2021-08-09T07:28:39Z</time>
      </trkpt>
      <trkpt lat="48.06787" lon="-2.96507">
        <ele>64.4</ele>
        <time>2021-08-09T07:28:41Z</time>
      </trkpt>
      <trkpt lat="48.06787" lon="-2.96507">
        <ele>64.4</ele>
        <time>2021-08-09T07:28:42Z</time>
      </trkpt>
      <trkpt lat="48.06787" lon="-2.96508">
        <ele>64.4</ele>
        <time>2021-08-09T07:28:43Z</time>
      </trkpt>
      <trkpt lat="48.06786" lon="-2.96508">
        <ele>64.4</ele>
        <time>2021-08-09T07:28:44Z</time>
      </trkpt>
      <trkpt lat="48.06787" lon="-2.96508">
        <ele>64.4</ele>
        <time>2021-08-09T07:28:45Z</time>
      </trkpt>
      <trkpt lat="48.06786" lon="-2.96508">
        <ele>64.4</ele>
        <time>2021-08-09T07:28:47Z</time>
      </trkpt>
      <trkpt lat="48.06801" lon="-2.96504">
        <ele>63.8</ele>
        <time>2021-08-09T07:34:35Z</time>
      </trkpt>
      <trkpt lat="48.06803" lon="-2.96503">
        <ele>63.8</ele>
        <time>2021-08-09T07:34:36Z</time>
      </trkpt>
      <trkpt lat="48.06804" lon="-2.96501">
        <ele>63.8</ele>
        <time>2021-08-09T07:34:37Z</time>
      </trkpt>
      <trkpt lat="48.06802" lon="-2.96496">
        <ele>63.8</ele>
        <time>2021-08-09T07:34:39Z</time>
      </trkpt>
      <trkpt lat="48.06801" lon="-2.96493">
        <ele>63.8</ele>
        <time>2021-08-09T07:34:40Z</time>
      </trkpt>
      <trkpt lat="48.06799" lon="-2.9649">
        <ele>63.8</ele>
        <time>2021-08-09T07:34:41Z</time>
      </trkpt>
      <trkpt lat="48.06797" lon="-2.96487">
        <ele>63.8</ele>
        <time>2021-08-09T07:34:42Z</time>
      </trkpt>
      <trkpt lat="48.06796" lon="-2.96484">
        <ele>63.8</ele>
        <time>2021-08-09T07:34:43Z</time>
      </trkpt>
      <trkpt lat="48.06794" lon="-2.96482">
        <ele>63.8</ele>
        <time>2021-08-09T07:34:44Z</time>
      </trkpt>
      <trkpt lat="48.06792" lon="-2.96479">
        <ele>63.8</ele>
        <time>2021-08-09T07:34:45Z</time>
      </trkpt>
      <trkpt lat="48.06789" lon="-2.96475">
        <ele>63.8</ele>
        <time>2021-08-09T07:34:46Z</time>
      </trkpt>
      <trkpt lat="48.06783" lon="-2.9647">
        <ele>63.8</ele>
        <time>2021-08-09T07:34:48Z</time>
      </trkpt>
      <trkpt lat="48.0678" lon="-2.96467">
        <ele>63.8</ele>
        <time>2021-08-09T07:34:49Z</time>
      </trkpt>
      <trkpt lat="48.06777" lon="-2.96464">
        <ele>63.8</ele>
        <time>2021-08-09T07:34:50Z</time>
      </trkpt>
      <trkpt lat="48.06774" lon="-2.9646">
        <ele>63.8</ele>
        <time>2021-08-09T07:34:51Z</time>
      </trkpt>
      <trkpt lat="48.06771" lon="-2.96456">
        <ele>63.8</ele>
        <time>2021-08-09T07:34:52Z</time>
      </trkpt>
      <trkpt lat="48.06768" lon="-2.96453">
        <ele>63.8</ele>
        <time>2021-08-09T07:34:53Z</time>
      </trkpt>
      <trkpt lat="48.06765" lon="-2.9645">
        <ele>63.8</ele>
        <time>2021-08-09T07:34:54Z</time>
      </trkpt>
      <trkpt lat="48.06762" lon="-2.96447">
        <ele>63.8</ele>
        <time>2021-08-09T07:34:55Z</time>
      </trkpt>
      <trkpt lat="48.06759" lon="-2.96443">
        <ele>63.8</ele>
        <time>2021-08-09T07:34:56Z</time>
      </trkpt>
      <trkpt lat="48.06756" lon="-2.9644">
        <ele>63.8</ele>
        <time>2021-08-09T07:34:57Z</time>
      </trkpt>
      <trkpt lat="48.06753" lon="-2.96438">
        <ele>64</ele>
        <time>2021-08-09T07:34:58Z</time>
      </trkpt>
      <trkpt lat="48.0675" lon="-2.96435">
        <ele>64</ele>
        <time>2021-08-09T07:34:59Z</time>
      </trkpt>
      <trkpt lat="48.06746" lon="-2.96433">
        <ele>64</ele>
        <time>2021-08-09T07:35:00Z</time>
      </trkpt>
      <trkpt lat="48.06743" lon="-2.9643">
        <ele>64</ele>
        <time>2021-08-09T07:35:01Z</time>
      </trkpt>
      <trkpt lat="48.0674" lon="-2.96427">
        <ele>64</ele>
        <time>2021-08-09T07:35:02Z</time>
      </trkpt>
      <trkpt lat="48.06737" lon="-2.96424">
        <ele>64</ele>
        <time>2021-08-09T07:35:03Z</time>
      </trkpt>
      <trkpt lat="48.06733" lon="-2.96422">
        <ele>64</ele>
        <time>2021-08-09T07:35:04Z</time>
      </trkpt>
      <trkpt lat="48.06729" lon="-2.9642">
        <ele>64</ele>
        <time>2021-08-09T07:35:05Z</time>
      </trkpt>
      <trkpt lat="48.06726" lon="-2.96417">
        <ele>64</ele>
        <time>2021-08-09T07:35:06Z</time>
      </trkpt>
      <trkpt lat="48.06723" lon="-2.96413">
        <ele>64.2</ele>
        <time>2021-08-09T07:35:07Z</time>
      </trkpt>
      <trkpt lat="48.06719" lon="-2.96411">
        <ele>64.2</ele>
        <time>2021-08-09T07:35:08Z</time>
      </trkpt>
      <trkpt lat="48.06712" lon="-2.96406">
        <ele>64.2</ele>
        <time>2021-08-09T07:35:10Z</time>
      </trkpt>
      <trkpt lat="48.06709" lon="-2.96404">
        <ele>64.2</ele>
        <time>2021-08-09T07:35:11Z</time>
      </trkpt>
      <trkpt lat="48.06705" lon="-2.964">
        <ele>64.2</ele>
        <time>2021-08-09T07:35:12Z</time>
      </trkpt>
      <trkpt lat="48.06703" lon="-2.96397">
        <ele>64.4</ele>
        <time>2021-08-09T07:35:13Z</time>
      </trkpt>
      <trkpt lat="48.06699" lon="-2.96396">
        <ele>64.4</ele>
        <time>2021-08-09T07:35:14Z</time>
      </trkpt>
      <trkpt lat="48.06696" lon="-2.96393">
        <ele>64.4</ele>
        <time>2021-08-09T07:35:15Z</time>
      </trkpt>
      <trkpt lat="48.06693" lon="-2.9639">
        <ele>64.6</ele>
        <time>2021-08-09T07:35:16Z</time>
      </trkpt>
      <trkpt lat="48.0669" lon="-2.96388">
        <ele>64.6</ele>
        <time>2021-08-09T07:35:17Z</time>
      </trkpt>
      <trkpt lat="48.06687" lon="-2.96385">
        <ele>64.8</ele>
        <time>2021-08-09T07:35:18Z</time>
      </trkpt>
      <trkpt lat="48.06685" lon="-2.96382">
        <ele>64.8</ele>
        <time>2021-08-09T07:35:19Z</time>
      </trkpt>
      <trkpt lat="48.06682" lon="-2.9638">
        <ele>64.8</ele>
        <time>2021-08-09T07:35:20Z</time>
      </trkpt>
      <trkpt lat="48.0668" lon="-2.96375">
        <ele>65</ele>
        <time>2021-08-09T07:35:21Z</time>
      </trkpt>
      <trkpt lat="48.06678" lon="-2.96371">
        <ele>65.2</ele>
        <time>2021-08-09T07:35:22Z</time>
      </trkpt>
      <trkpt lat="48.06677" lon="-2.9637">
        <ele>65.6</ele>
        <time>2021-08-09T07:35:23Z</time>
      </trkpt>
      <trkpt lat="48.06676" lon="-2.9637">
        <ele>66</ele>
        <time>2021-08-09T07:35:24Z</time>
      </trkpt>
      <trkpt lat="48.06674" lon="-2.96368">
        <ele>66.2</ele>
        <time>2021-08-09T07:35:25Z</time>
      </trkpt>
      <trkpt lat="48.06673" lon="-2.96366">
        <ele>66.4</ele>
        <time>2021-08-09T07:35:26Z</time>
      </trkpt>
      <trkpt lat="48.06671" lon="-2.96364">
        <ele>66.4</ele>
        <time>2021-08-09T07:35:27Z</time>
      </trkpt>
      <trkpt lat="48.06669" lon="-2.96361">
        <ele>66.4</ele>
        <time>2021-08-09T07:35:28Z</time>
      </trkpt>
      <trkpt lat="48.06667" lon="-2.96359">
        <ele>66.6</ele>
        <time>2021-08-09T07:35:29Z</time>
      </trkpt>
      <trkpt lat="48.06665" lon="-2.96355">
        <ele>67</ele>
        <time>2021-08-09T07:35:30Z</time>
      </trkpt>
      <trkpt lat="48.0666" lon="-2.96349">
        <ele>67.2</ele>
        <time>2021-08-09T07:35:32Z</time>
      </trkpt>
      <trkpt lat="48.06657" lon="-2.96346">
        <ele>67.2</ele>
        <time>2021-08-09T07:35:33Z</time>
      </trkpt>
      <trkpt lat="48.06655" lon="-2.96343">
        <ele>67.4</ele>
        <time>2021-08-09T07:35:34Z</time>
      </trkpt>
      <trkpt lat="48.06653" lon="-2.9634">
        <ele>67.4</ele>
        <time>2021-08-09T07:35:35Z</time>
      </trkpt>
      <trkpt lat="48.0665" lon="-2.96337">
        <ele>67.4</ele>
        <time>2021-08-09T07:35:36Z</time>
      </trkpt>
      <trkpt lat="48.06647" lon="-2.96334">
        <ele>67.4</ele>
        <time>2021-08-09T07:35:37Z</time>
      </trkpt>
      <trkpt lat="48.06644" lon="-2.96331">
        <ele>67.4</ele>
        <time>2021-08-09T07:35:38Z</time>
      </trkpt>
      <trkpt lat="48.06641" lon="-2.96328">
        <ele>67.4</ele>
        <time>2021-08-09T07:35:39Z</time>
      </trkpt>
      <trkpt lat="48.06639" lon="-2.96325">
        <ele>67.4</ele>
        <time>2021-08-09T07:35:40Z</time>
      </trkpt>
      <trkpt lat="48.06636" lon="-2.96322">
        <ele>67.4</ele>
        <time>2021-08-09T07:35:41Z</time>
      </trkpt>
      <trkpt lat="48.0663" lon="-2.96317">
        <ele>67.4</ele>
        <time>2021-08-09T07:35:43Z</time>
      </trkpt>
      <trkpt lat="48.06627" lon="-2.96315">
        <ele>67.6</ele>
        <time>2021-08-09T07:35:44Z</time>
      </trkpt>
      <trkpt lat="48.06624" lon="-2.96313">
        <ele>67.6</ele>
        <time>2021-08-09T07:35:45Z</time>
      </trkpt>
      <trkpt lat="48.06621" lon="-2.9631">
        <ele>67.8</ele>
        <time>2021-08-09T07:35:46Z</time>
      </trkpt>
      <trkpt lat="48.06618" lon="-2.96308">
        <ele>67.8</ele>
        <time>2021-08-09T07:35:47Z</time>
      </trkpt>
      <trkpt lat="48.06615" lon="-2.96306">
        <ele>67.8</ele>
        <time>2021-08-09T07:35:48Z</time>
      </trkpt>
      <trkpt lat="48.06612" lon="-2.96304">
        <ele>68</ele>
        <time>2021-08-09T07:35:49Z</time>
      </trkpt>
      <trkpt lat="48.06609" lon="-2.96301">
        <ele>68</ele>
        <time>2021-08-09T07:35:50Z</time>
      </trkpt>
      <trkpt lat="48.06607" lon="-2.96299">
        <ele>68</ele>
        <time>2021-08-09T07:35:51Z</time>
      </trkpt>
      <trkpt lat="48.06604" lon="-2.96296">
        <ele>68.2</ele>
        <time>2021-08-09T07:35:52Z</time>
      </trkpt>
      <trkpt lat="48.06601" lon="-2.96294">
        <ele>68.2</ele>
        <time>2021-08-09T07:35:53Z</time>
      </trkpt>
      <trkpt lat="48.06598" lon="-2.96291">
        <ele>68.4</ele>
        <time>2021-08-09T07:35:54Z</time>
      </trkpt>
      <trkpt lat="48.06595" lon="-2.96288">
        <ele>68.8</ele>
        <time>2021-08-09T07:35:55Z</time>
      </trkpt>
      <trkpt lat="48.06593" lon="-2.96286">
        <ele>69</ele>
        <time>2021-08-09T07:35:56Z</time>
      </trkpt>
      <trkpt lat="48.0659" lon="-2.96284">
        <ele>69.2</ele>
        <time>2021-08-09T07:35:57Z</time>
      </trkpt>
      <trkpt lat="48.06587" lon="-2.96281">
        <ele>69.2</ele>
        <time>2021-08-09T07:35:58Z</time>
      </trkpt>
      <trkpt lat="48.06584" lon="-2.96279">
        <ele>69.2</ele>
        <time>2021-08-09T07:35:59Z</time>
      </trkpt>
      <trkpt lat="48.06581" lon="-2.96277">
        <ele>69.4</ele>
        <time>2021-08-09T07:36:00Z</time>
      </trkpt>
      <trkpt lat="48.06578" lon="-2.96275">
        <ele>69.4</ele>
        <time>2021-08-09T07:36:01Z</time>
      </trkpt>
      <trkpt lat="48.06575" lon="-2.96272">
        <ele>69.4</ele>
        <time>2021-08-09T07:36:02Z</time>
      </trkpt>
      <trkpt lat="48.06572" lon="-2.9627">
        <ele>69.4</ele>
        <time>2021-08-09T07:36:03Z</time>
      </trkpt>
      <trkpt lat="48.06565" lon="-2.96265">
        <ele>69.4</ele>
        <time>2021-08-09T07:36:05Z</time>
      </trkpt>
      <trkpt lat="48.06561" lon="-2.96262">
        <ele>69.4</ele>
        <time>2021-08-09T07:36:06Z</time>
      </trkpt>
      <trkpt lat="48.06558" lon="-2.9626">
        <ele>69.4</ele>
        <time>2021-08-09T07:36:07Z</time>
      </trkpt>
      <trkpt lat="48.06554" lon="-2.96257">
        <ele>69.6</ele>
        <time>2021-08-09T07:36:08Z</time>
      </trkpt>
      <trkpt lat="48.0655" lon="-2.96255">
        <ele>69.6</ele>
        <time>2021-08-09T07:36:09Z</time>
      </trkpt>
      <trkpt lat="48.06547" lon="-2.96252">
        <ele>69.6</ele>
        <time>2021-08-09T07:36:10Z</time>
      </trkpt>
      <trkpt lat="48.06543" lon="-2.9625">
        <ele>69.8</ele>
        <time>2021-08-09T07:36:11Z</time>
      </trkpt>
      <trkpt lat="48.0654" lon="-2.96248">
        <ele>69.8</ele>
        <time>2021-08-09T07:36:12Z</time>
      </trkpt>
      <trkpt lat="48.06536" lon="-2.96245">
        <ele>69.8</ele>
        <time>2021-08-09T07:36:13Z</time>
      </trkpt>
      <trkpt lat="48.06533" lon="-2.96243">
        <ele>69.8</ele>
        <time>2021-08-09T07:36:14Z</time>
      </trkpt>
      <trkpt lat="48.06526" lon="-2.96237">
        <ele>69.8</ele>
        <time>2021-08-09T07:36:16Z</time>
      </trkpt>
      <trkpt lat="48.06523" lon="-2.96234">
        <ele>70</ele>
        <time>2021-08-09T07:36:17Z</time>
      </trkpt>
      <trkpt lat="48.06519" lon="-2.96231">
        <ele>70</ele>
        <time>2021-08-09T07:36:18Z</time>
      </trkpt>
      <trkpt lat="48.06516" lon="-2.96228">
        <ele>70</ele>
        <time>2021-08-09T07:36:19Z</time>
      </trkpt>
      <trkpt lat="48.06513" lon="-2.96225">
        <ele>70</ele>
        <time>2021-08-09T07:36:20Z</time>
      </trkpt>
      <trkpt lat="48.06509" lon="-2.96223">
        <ele>70</ele>
        <time>2021-08-09T07:36:21Z</time>
      </trkpt>
      <trkpt lat="48.06506" lon="-2.9622">
        <ele>70.2</ele>
        <time>2021-08-09T07:36:22Z</time>
      </trkpt>
      <trkpt lat="48.06503" lon="-2.96217">
        <ele>70.4</ele>
        <time>2021-08-09T07:36:23Z</time>
      </trkpt>
      <trkpt lat="48.065" lon="-2.96214">
        <ele>70.6</ele>
        <time>2021-08-09T07:36:24Z</time>
      </trkpt>
      <trkpt lat="48.06497" lon="-2.96211">
        <ele>70.8</ele>
        <time>2021-08-09T07:36:25Z</time>
      </trkpt>
      <trkpt lat="48.06494" lon="-2.96208">
        <ele>71.2</ele>
        <time>2021-08-09T07:36:26Z</time>
      </trkpt>
      <trkpt lat="48.06492" lon="-2.96206">
        <ele>71.4</ele>
        <time>2021-08-09T07:36:27Z</time>
      </trkpt>
      <trkpt lat="48.06489" lon="-2.96203">
        <ele>71.6</ele>
        <time>2021-08-09T07:36:28Z</time>
      </trkpt>
      <trkpt lat="48.06486" lon="-2.96201">
        <ele>71.6</ele>
        <time>2021-08-09T07:36:29Z</time>
      </trkpt>
      <trkpt lat="48.06483" lon="-2.96198">
        <ele>71.8</ele>
        <time>2021-08-09T07:36:30Z</time>
      </trkpt>
      <trkpt lat="48.06481" lon="-2.96196">
        <ele>71.8</ele>
        <time>2021-08-09T07:36:31Z</time>
      </trkpt>
      <trkpt lat="48.06478" lon="-2.96193">
        <ele>72</ele>
        <time>2021-08-09T07:36:32Z</time>
      </trkpt>
      <trkpt lat="48.06475" lon="-2.96191">
        <ele>72.4</ele>
        <time>2021-08-09T07:36:33Z</time>
      </trkpt>
      <trkpt lat="48.06473" lon="-2.96189">
        <ele>72.6</ele>
        <time>2021-08-09T07:36:34Z</time>
      </trkpt>
      <trkpt lat="48.0647" lon="-2.96188">
        <ele>72.8</ele>
        <time>2021-08-09T07:36:35Z</time>
      </trkpt>
      <trkpt lat="48.06467" lon="-2.96188">
        <ele>72.8</ele>
        <time>2021-08-09T07:36:36Z</time>
      </trkpt>
      <trkpt lat="48.06463" lon="-2.96189">
        <ele>73</ele>
        <time>2021-08-09T07:36:38Z</time>
      </trkpt>
      <trkpt lat="48.06461" lon="-2.96189">
        <ele>73.2</ele>
        <time>2021-08-09T07:36:39Z</time>
      </trkpt>
      <trkpt lat="48.06458" lon="-2.9619">
        <ele>73.4</ele>
        <time>2021-08-09T07:36:40Z</time>
      </trkpt>
      <trkpt lat="48.06456" lon="-2.96189">
        <ele>73.6</ele>
        <time>2021-08-09T07:36:41Z</time>
      </trkpt>
      <trkpt lat="48.06453" lon="-2.96187">
        <ele>73.8</ele>
        <time>2021-08-09T07:36:42Z</time>
      </trkpt>
      <trkpt lat="48.06451" lon="-2.96185">
        <ele>74</ele>
        <time>2021-08-09T07:36:43Z</time>
      </trkpt>
      <trkpt lat="48.06449" lon="-2.96182">
        <ele>74.2</ele>
        <time>2021-08-09T07:36:44Z</time>
      </trkpt>
      <trkpt lat="48.06447" lon="-2.96177">
        <ele>74.6</ele>
        <time>2021-08-09T07:36:45Z</time>
      </trkpt>
      <trkpt lat="48.06445" lon="-2.96174">
        <ele>74.8</ele>
        <time>2021-08-09T07:36:46Z</time>
      </trkpt>
      <trkpt lat="48.06442" lon="-2.96171">
        <ele>75</ele>
        <time>2021-08-09T07:36:47Z</time>
      </trkpt>
      <trkpt lat="48.06438" lon="-2.96165">
        <ele>75.6</ele>
        <time>2021-08-09T07:36:49Z</time>
      </trkpt>
      <trkpt lat="48.06436" lon="-2.96161">
        <ele>75.6</ele>
        <time>2021-08-09T07:36:50Z</time>
      </trkpt>
      <trkpt lat="48.06434" lon="-2.96158">
        <ele>75.8</ele>
        <time>2021-08-09T07:36:51Z</time>
      </trkpt>
      <trkpt lat="48.06431" lon="-2.96155">
        <ele>75.8</ele>
        <time>2021-08-09T07:36:52Z</time>
      </trkpt>
      <trkpt lat="48.06429" lon="-2.96153">
        <ele>76</ele>
        <time>2021-08-09T07:36:53Z</time>
      </trkpt>
      <trkpt lat="48.06427" lon="-2.9615">
        <ele>76.2</ele>
        <time>2021-08-09T07:36:54Z</time>
      </trkpt>
      <trkpt lat="48.06425" lon="-2.96147">
        <ele>76.2</ele>
        <time>2021-08-09T07:36:55Z</time>
      </trkpt>
      <trkpt lat="48.06423" lon="-2.96144">
        <ele>76.2</ele>
        <time>2021-08-09T07:36:56Z</time>
      </trkpt>
      <trkpt lat="48.06421" lon="-2.96141">
        <ele>76.4</ele>
        <time>2021-08-09T07:36:57Z</time>
      </trkpt>
      <trkpt lat="48.06419" lon="-2.96139">
        <ele>76.4</ele>
        <time>2021-08-09T07:36:58Z</time>
      </trkpt>
      <trkpt lat="48.06415" lon="-2.96132">
        <ele>76.6</ele>
        <time>2021-08-09T07:37:00Z</time>
      </trkpt>
      <trkpt lat="48.06413" lon="-2.96129">
        <ele>77</ele>
        <time>2021-08-09T07:37:01Z</time>
      </trkpt>
      <trkpt lat="48.06411" lon="-2.96126">
        <ele>77.2</ele>
        <time>2021-08-09T07:37:02Z</time>
      </trkpt>
      <trkpt lat="48.06409" lon="-2.96124">
        <ele>77.4</ele>
        <time>2021-08-09T07:37:03Z</time>
      </trkpt>
      <trkpt lat="48.06407" lon="-2.96121">
        <ele>77.6</ele>
        <time>2021-08-09T07:37:04Z</time>
      </trkpt>
      <trkpt lat="48.06405" lon="-2.96118">
        <ele>77.8</ele>
        <time>2021-08-09T07:37:05Z</time>
      </trkpt>
      <trkpt lat="48.06403" lon="-2.96115">
        <ele>78.2</ele>
        <time>2021-08-09T07:37:06Z</time>
      </trkpt>
      <trkpt lat="48.06401" lon="-2.96112">
        <ele>78.2</ele>
        <time>2021-08-09T07:37:07Z</time>
      </trkpt>
      <trkpt lat="48.06399" lon="-2.96109">
        <ele>78.4</ele>
        <time>2021-08-09T07:37:08Z</time>
      </trkpt>
      <trkpt lat="48.06397" lon="-2.96106">
        <ele>78.6</ele>
        <time>2021-08-09T07:37:09Z</time>
      </trkpt>
      <trkpt lat="48.06393" lon="-2.96099">
        <ele>78.8</ele>
        <time>2021-08-09T07:37:11Z</time>
      </trkpt>
      <trkpt lat="48.06391" lon="-2.96096">
        <ele>79</ele>
        <time>2021-08-09T07:37:12Z</time>
      </trkpt>
      <trkpt lat="48.06389" lon="-2.96093">
        <ele>79.2</ele>
        <time>2021-08-09T07:37:13Z</time>
      </trkpt>
      <trkpt lat="48.06387" lon="-2.9609">
        <ele>79.4</ele>
        <time>2021-08-09T07:37:14Z</time>
      </trkpt>
      <trkpt lat="48.06385" lon="-2.96087">
        <ele>79.4</ele>
        <time>2021-08-09T07:37:15Z</time>
      </trkpt>
      <trkpt lat="48.06383" lon="-2.96083">
        <ele>79.4</ele>
        <time>2021-08-09T07:37:16Z</time>
      </trkpt>
      <trkpt lat="48.0638" lon="-2.9608">
        <ele>79.6</ele>
        <time>2021-08-09T07:37:17Z</time>
      </trkpt>
      <trkpt lat="48.06378" lon="-2.96077">
        <ele>79.8</ele>
        <time>2021-08-09T07:37:18Z</time>
      </trkpt>
      <trkpt lat="48.06376" lon="-2.96075">
        <ele>79.8</ele>
        <time>2021-08-09T07:37:19Z</time>
      </trkpt>
      <trkpt lat="48.06374" lon="-2.96072">
        <ele>79.8</ele>
        <time>2021-08-09T07:37:20Z</time>
      </trkpt>
      <trkpt lat="48.06369" lon="-2.96066">
        <ele>80.2</ele>
        <time>2021-08-09T07:37:22Z</time>
      </trkpt>
      <trkpt lat="48.06367" lon="-2.96063">
        <ele>80.2</ele>
        <time>2021-08-09T07:37:23Z</time>
      </trkpt>
      <trkpt lat="48.06365" lon="-2.9606">
        <ele>80.4</ele>
        <time>2021-08-09T07:37:24Z</time>
      </trkpt>
      <trkpt lat="48.06362" lon="-2.96057">
        <ele>80.4</ele>
        <time>2021-08-09T07:37:25Z</time>
      </trkpt>
      <trkpt lat="48.0636" lon="-2.96053">
        <ele>80.4</ele>
        <time>2021-08-09T07:37:26Z</time>
      </trkpt>
      <trkpt lat="48.06358" lon="-2.9605">
        <ele>80.6</ele>
        <time>2021-08-09T07:37:27Z</time>
      </trkpt>
      <trkpt lat="48.06355" lon="-2.96046">
        <ele>80.6</ele>
        <time>2021-08-09T07:37:28Z</time>
      </trkpt>
      <trkpt lat="48.06353" lon="-2.96043">
        <ele>80.6</ele>
        <time>2021-08-09T07:37:29Z</time>
      </trkpt>
      <trkpt lat="48.06351" lon="-2.9604">
        <ele>80.6</ele>
        <time>2021-08-09T07:37:30Z</time>
      </trkpt>
      <trkpt lat="48.06348" lon="-2.96036">
        <ele>80.8</ele>
        <time>2021-08-09T07:37:31Z</time>
      </trkpt>
      <trkpt lat="48.06343" lon="-2.96029">
        <ele>81.2</ele>
        <time>2021-08-09T07:37:33Z</time>
      </trkpt>
      <trkpt lat="48.06341" lon="-2.96024">
        <ele>81.2</ele>
        <time>2021-08-09T07:37:34Z</time>
      </trkpt>
      <trkpt lat="48.06338" lon="-2.96021">
        <ele>81.2</ele>
        <time>2021-08-09T07:37:35Z</time>
      </trkpt>
      <trkpt lat="48.06335" lon="-2.96017">
        <ele>81.2</ele>
        <time>2021-08-09T07:37:36Z</time>
      </trkpt>
      <trkpt lat="48.06333" lon="-2.96013">
        <ele>81.4</ele>
        <time>2021-08-09T07:37:37Z</time>
      </trkpt>
      <trkpt lat="48.0633" lon="-2.96009">
        <ele>81.2</ele>
        <time>2021-08-09T07:37:38Z</time>
      </trkpt>
      <trkpt lat="48.06327" lon="-2.96004">
        <ele>81.2</ele>
        <time>2021-08-09T07:37:39Z</time>
      </trkpt>
      <trkpt lat="48.06325" lon="-2.96">
        <ele>81.2</ele>
        <time>2021-08-09T07:37:40Z</time>
      </trkpt>
      <trkpt lat="48.06322" lon="-2.95996">
        <ele>81.2</ele>
        <time>2021-08-09T07:37:41Z</time>
      </trkpt>
      <trkpt lat="48.06319" lon="-2.95993">
        <ele>81.2</ele>
        <time>2021-08-09T07:37:42Z</time>
      </trkpt>
      <trkpt lat="48.06312" lon="-2.95986">
        <ele>81.2</ele>
        <time>2021-08-09T07:37:44Z</time>
      </trkpt>
      <trkpt lat="48.0631" lon="-2.95982">
        <ele>81.2</ele>
        <time>2021-08-09T07:37:45Z</time>
      </trkpt>
      <trkpt lat="48.06308" lon="-2.95977">
        <ele>81.2</ele>
        <time>2021-08-09T07:37:46Z</time>
      </trkpt>
      <trkpt lat="48.06305" lon="-2.95972">
        <ele>81.2</ele>
        <time>2021-08-09T07:37:47Z</time>
      </trkpt>
      <trkpt lat="48.06303" lon="-2.95968">
        <ele>81.2</ele>
        <time>2021-08-09T07:37:48Z</time>
      </trkpt>
      <trkpt lat="48.063" lon="-2.95964">
        <ele>81.4</ele>
        <time>2021-08-09T07:37:49Z</time>
      </trkpt>
      <trkpt lat="48.06297" lon="-2.9596">
        <ele>81.4</ele>
        <time>2021-08-09T07:37:50Z</time>
      </trkpt>
      <trkpt lat="48.06295" lon="-2.95957">
        <ele>81.4</ele>
        <time>2021-08-09T07:37:51Z</time>
      </trkpt>
      <trkpt lat="48.06292" lon="-2.95954">
        <ele>81.4</ele>
        <time>2021-08-09T07:37:52Z</time>
      </trkpt>
      <trkpt lat="48.06289" lon="-2.9595">
        <ele>81.4</ele>
        <time>2021-08-09T07:37:53Z</time>
      </trkpt>
      <trkpt lat="48.06283" lon="-2.95942">
        <ele>81.6</ele>
        <time>2021-08-09T07:37:55Z</time>
      </trkpt>
      <trkpt lat="48.06281" lon="-2.95938">
        <ele>81.6</ele>
        <time>2021-08-09T07:37:56Z</time>
      </trkpt>
      <trkpt lat="48.06278" lon="-2.95934">
        <ele>81.8</ele>
        <time>2021-08-09T07:37:57Z</time>
      </trkpt>
      <trkpt lat="48.06275" lon="-2.9593">
        <ele>82</ele>
        <time>2021-08-09T07:37:58Z</time>
      </trkpt>
      <trkpt lat="48.06272" lon="-2.95926">
        <ele>82.2</ele>
        <time>2021-08-09T07:37:59Z</time>
      </trkpt>
      <trkpt lat="48.0627" lon="-2.95922">
        <ele>82.2</ele>
        <time>2021-08-09T07:38:00Z</time>
      </trkpt>
      <trkpt lat="48.06267" lon="-2.95918">
        <ele>82.4</ele>
        <time>2021-08-09T07:38:01Z</time>
      </trkpt>
      <trkpt lat="48.06264" lon="-2.95914">
        <ele>82.4</ele>
        <time>2021-08-09T07:38:02Z</time>
      </trkpt>
      <trkpt lat="48.06261" lon="-2.9591">
        <ele>82.6</ele>
        <time>2021-08-09T07:38:03Z</time>
      </trkpt>
      <trkpt lat="48.06258" lon="-2.95906">
        <ele>82.6</ele>
        <time>2021-08-09T07:38:04Z</time>
      </trkpt>
      <trkpt lat="48.06253" lon="-2.95898">
        <ele>82.6</ele>
        <time>2021-08-09T07:38:06Z</time>
      </trkpt>
      <trkpt lat="48.0625" lon="-2.95894">
        <ele>82.6</ele>
        <time>2021-08-09T07:38:07Z</time>
      </trkpt>
      <trkpt lat="48.06248" lon="-2.95891">
        <ele>82.6</ele>
        <time>2021-08-09T07:38:08Z</time>
      </trkpt>
      <trkpt lat="48.06245" lon="-2.95887">
        <ele>82.8</ele>
        <time>2021-08-09T07:38:09Z</time>
      </trkpt>
      <trkpt lat="48.06242" lon="-2.95884">
        <ele>82.8</ele>
        <time>2021-08-09T07:38:10Z</time>
      </trkpt>
      <trkpt lat="48.06238" lon="-2.95882">
        <ele>82.8</ele>
        <time>2021-08-09T07:38:11Z</time>
      </trkpt>
      <trkpt lat="48.06235" lon="-2.95879">
        <ele>83</ele>
        <time>2021-08-09T07:38:12Z</time>
      </trkpt>
      <trkpt lat="48.06232" lon="-2.95877">
        <ele>83</ele>
        <time>2021-08-09T07:38:13Z</time>
      </trkpt>
      <trkpt lat="48.06228" lon="-2.95875">
        <ele>83</ele>
        <time>2021-08-09T07:38:14Z</time>
      </trkpt>
      <trkpt lat="48.06225" lon="-2.95873">
        <ele>83.2</ele>
        <time>2021-08-09T07:38:15Z</time>
      </trkpt>
      <trkpt lat="48.06219" lon="-2.95865">
        <ele>83.4</ele>
        <time>2021-08-09T07:38:17Z</time>
      </trkpt>
      <trkpt lat="48.06217" lon="-2.9586">
        <ele>83.4</ele>
        <time>2021-08-09T07:38:18Z</time>
      </trkpt>
      <trkpt lat="48.06216" lon="-2.95854">
        <ele>83.6</ele>
        <time>2021-08-09T07:38:19Z</time>
      </trkpt>
      <trkpt lat="48.06215" lon="-2.95848">
        <ele>83.8</ele>
        <time>2021-08-09T07:38:20Z</time>
      </trkpt>
      <trkpt lat="48.06214" lon="-2.95843">
        <ele>83.8</ele>
        <time>2021-08-09T07:38:21Z</time>
      </trkpt>
      <trkpt lat="48.06212" lon="-2.95838">
        <ele>84</ele>
        <time>2021-08-09T07:38:22Z</time>
      </trkpt>
      <trkpt lat="48.06211" lon="-2.95834">
        <ele>84</ele>
        <time>2021-08-09T07:38:23Z</time>
      </trkpt>
      <trkpt lat="48.06208" lon="-2.9583">
        <ele>84.2</ele>
        <time>2021-08-09T07:38:24Z</time>
      </trkpt>
      <trkpt lat="48.06206" lon="-2.95827">
        <ele>84.2</ele>
        <time>2021-08-09T07:38:25Z</time>
      </trkpt>
      <trkpt lat="48.06203" lon="-2.95824">
        <ele>84.2</ele>
        <time>2021-08-09T07:38:26Z</time>
      </trkpt>
      <trkpt lat="48.062" lon="-2.95822">
        <ele>84.2</ele>
        <time>2021-08-09T07:38:27Z</time>
      </trkpt>
      <trkpt lat="48.06198" lon="-2.95819">
        <ele>84.4</ele>
        <time>2021-08-09T07:38:28Z</time>
      </trkpt>
      <trkpt lat="48.06196" lon="-2.95814">
        <ele>84.4</ele>
        <time>2021-08-09T07:38:29Z</time>
      </trkpt>
      <trkpt lat="48.06194" lon="-2.9581">
        <ele>84.6</ele>
        <time>2021-08-09T07:38:30Z</time>
      </trkpt>
      <trkpt lat="48.06193" lon="-2.95806">
        <ele>84.8</ele>
        <time>2021-08-09T07:38:31Z</time>
      </trkpt>
      <trkpt lat="48.0619" lon="-2.95803">
        <ele>84.8</ele>
        <time>2021-08-09T07:38:32Z</time>
      </trkpt>
      <trkpt lat="48.06188" lon="-2.958">
        <ele>85</ele>
        <time>2021-08-09T07:38:33Z</time>
      </trkpt>
      <trkpt lat="48.06186" lon="-2.95796">
        <ele>85.2</ele>
        <time>2021-08-09T07:38:34Z</time>
      </trkpt>
      <trkpt lat="48.06184" lon="-2.95793">
        <ele>85.6</ele>
        <time>2021-08-09T07:38:35Z</time>
      </trkpt>
      <trkpt lat="48.06182" lon="-2.9579">
        <ele>85.8</ele>
        <time>2021-08-09T07:38:36Z</time>
      </trkpt>
      <trkpt lat="48.06179" lon="-2.95787">
        <ele>86</ele>
        <time>2021-08-09T07:38:37Z</time>
      </trkpt>
      <trkpt lat="48.06175" lon="-2.9578">
        <ele>86.4</ele>
        <time>2021-08-09T07:38:39Z</time>
      </trkpt>
      <trkpt lat="48.06173" lon="-2.95777">
        <ele>86.6</ele>
        <time>2021-08-09T07:38:40Z</time>
      </trkpt>
      <trkpt lat="48.0617" lon="-2.95774">
        <ele>86.8</ele>
        <time>2021-08-09T07:38:41Z</time>
      </trkpt>
      <trkpt lat="48.06168" lon="-2.95771">
        <ele>86.8</ele>
        <time>2021-08-09T07:38:42Z</time>
      </trkpt>
      <trkpt lat="48.06166" lon="-2.95768">
        <ele>87</ele>
        <time>2021-08-09T07:38:43Z</time>
      </trkpt>
      <trkpt lat="48.06164" lon="-2.95765">
        <ele>87.2</ele>
        <time>2021-08-09T07:38:44Z</time>
      </trkpt>
      <trkpt lat="48.06162" lon="-2.95762">
        <ele>87.4</ele>
        <time>2021-08-09T07:38:45Z</time>
      </trkpt>
      <trkpt lat="48.0616" lon="-2.95758">
        <ele>87.6</ele>
        <time>2021-08-09T07:38:46Z</time>
      </trkpt>
      <trkpt lat="48.06158" lon="-2.95755">
        <ele>87.8</ele>
        <time>2021-08-09T07:38:47Z</time>
      </trkpt>
      <trkpt lat="48.06156" lon="-2.95752">
        <ele>88</ele>
        <time>2021-08-09T07:38:48Z</time>
      </trkpt>
      <trkpt lat="48.06152" lon="-2.95747">
        <ele>88.8</ele>
        <time>2021-08-09T07:38:50Z</time>
      </trkpt>
      <trkpt lat="48.06149" lon="-2.95744">
        <ele>89</ele>
        <time>2021-08-09T07:38:51Z</time>
      </trkpt>
      <trkpt lat="48.06147" lon="-2.95741">
        <ele>89</ele>
        <time>2021-08-09T07:38:52Z</time>
      </trkpt>
      <trkpt lat="48.06145" lon="-2.95738">
        <ele>89.4</ele>
        <time>2021-08-09T07:38:53Z</time>
      </trkpt>
      <trkpt lat="48.06143" lon="-2.95735">
        <ele>89.6</ele>
        <time>2021-08-09T07:38:54Z</time>
      </trkpt>
      <trkpt lat="48.06141" lon="-2.95733">
        <ele>89.8</ele>
        <time>2021-08-09T07:38:55Z</time>
      </trkpt>
      <trkpt lat="48.06139" lon="-2.9573">
        <ele>89.8</ele>
        <time>2021-08-09T07:38:56Z</time>
      </trkpt>
      <trkpt lat="48.06137" lon="-2.95727">
        <ele>90</ele>
        <time>2021-08-09T07:38:57Z</time>
      </trkpt>
      <trkpt lat="48.06135" lon="-2.95724">
        <ele>90.2</ele>
        <time>2021-08-09T07:38:58Z</time>
      </trkpt>
      <trkpt lat="48.06134" lon="-2.9572">
        <ele>90.4</ele>
        <time>2021-08-09T07:38:59Z</time>
      </trkpt>
      <trkpt lat="48.0613" lon="-2.95714">
        <ele>90.6</ele>
        <time>2021-08-09T07:39:01Z</time>
      </trkpt>
      <trkpt lat="48.06128" lon="-2.9571">
        <ele>90.8</ele>
        <time>2021-08-09T07:39:02Z</time>
      </trkpt>
      <trkpt lat="48.06127" lon="-2.95707">
        <ele>91</ele>
        <time>2021-08-09T07:39:03Z</time>
      </trkpt>
      <trkpt lat="48.06125" lon="-2.95703">
        <ele>91.2</ele>
        <time>2021-08-09T07:39:04Z</time>
      </trkpt>
      <trkpt lat="48.06123" lon="-2.957">
        <ele>91.2</ele>
        <time>2021-08-09T07:39:05Z</time>
      </trkpt>
      <trkpt lat="48.06121" lon="-2.95696">
        <ele>91.4</ele>
        <time>2021-08-09T07:39:06Z</time>
      </trkpt>
      <trkpt lat="48.06119" lon="-2.95693">
        <ele>91.6</ele>
        <time>2021-08-09T07:39:07Z</time>
      </trkpt>
      <trkpt lat="48.06117" lon="-2.95689">
        <ele>91.6</ele>
        <time>2021-08-09T07:39:08Z</time>
      </trkpt>
      <trkpt lat="48.06116" lon="-2.95686">
        <ele>92</ele>
        <time>2021-08-09T07:39:09Z</time>
      </trkpt>
      <trkpt lat="48.06114" lon="-2.95682">
        <ele>92.4</ele>
        <time>2021-08-09T07:39:10Z</time>
      </trkpt>
      <trkpt lat="48.0611" lon="-2.95675">
        <ele>92.8</ele>
        <time>2021-08-09T07:39:12Z</time>
      </trkpt>
      <trkpt lat="48.06108" lon="-2.95671">
        <ele>93</ele>
        <time>2021-08-09T07:39:13Z</time>
      </trkpt>
      <trkpt lat="48.06106" lon="-2.95667">
        <ele>93.2</ele>
        <time>2021-08-09T07:39:14Z</time>
      </trkpt>
      <trkpt lat="48.06104" lon="-2.95663">
        <ele>93.4</ele>
        <time>2021-08-09T07:39:15Z</time>
      </trkpt>
      <trkpt lat="48.06103" lon="-2.95659">
        <ele>93.6</ele>
        <time>2021-08-09T07:39:16Z</time>
      </trkpt>
      <trkpt lat="48.06101" lon="-2.95655">
        <ele>93.8</ele>
        <time>2021-08-09T07:39:17Z</time>
      </trkpt>
      <trkpt lat="48.06099" lon="-2.95651">
        <ele>94</ele>
        <time>2021-08-09T07:39:18Z</time>
      </trkpt>
      <trkpt lat="48.06097" lon="-2.95647">
        <ele>94.2</ele>
        <time>2021-08-09T07:39:19Z</time>
      </trkpt>
      <trkpt lat="48.06094" lon="-2.95643">
        <ele>94.2</ele>
        <time>2021-08-09T07:39:20Z</time>
      </trkpt>
      <trkpt lat="48.06092" lon="-2.95639">
        <ele>94.2</ele>
        <time>2021-08-09T07:39:21Z</time>
      </trkpt>
      <trkpt lat="48.06089" lon="-2.95635">
        <ele>94.2</ele>
        <time>2021-08-09T07:39:22Z</time>
      </trkpt>
      <trkpt lat="48.06087" lon="-2.9563">
        <ele>94.2</ele>
        <time>2021-08-09T07:39:23Z</time>
      </trkpt>
      <trkpt lat="48.06084" lon="-2.95626">
        <ele>94.2</ele>
        <time>2021-08-09T07:39:24Z</time>
      </trkpt>
      <trkpt lat="48.06082" lon="-2.95621">
        <ele>94.4</ele>
        <time>2021-08-09T07:39:25Z</time>
      </trkpt>
      <trkpt lat="48.06079" lon="-2.95616">
        <ele>94.4</ele>
        <time>2021-08-09T07:39:26Z</time>
      </trkpt>
      <trkpt lat="48.06076" lon="-2.9561">
        <ele>94.4</ele>
        <time>2021-08-09T07:39:27Z</time>
      </trkpt>
      <trkpt lat="48.06074" lon="-2.95605">
        <ele>94.4</ele>
        <time>2021-08-09T07:39:28Z</time>
      </trkpt>
      <trkpt lat="48.06071" lon="-2.956">
        <ele>94.4</ele>
        <time>2021-08-09T07:39:29Z</time>
      </trkpt>
      <trkpt lat="48.06068" lon="-2.95595">
        <ele>94.4</ele>
        <time>2021-08-09T07:39:30Z</time>
      </trkpt>
      <trkpt lat="48.06065" lon="-2.9559">
        <ele>94.4</ele>
        <time>2021-08-09T07:39:31Z</time>
      </trkpt>
      <trkpt lat="48.06062" lon="-2.95585">
        <ele>94.4</ele>
        <time>2021-08-09T07:39:32Z</time>
      </trkpt>
      <trkpt lat="48.06056" lon="-2.95574">
        <ele>94.4</ele>
        <time>2021-08-09T07:39:34Z</time>
      </trkpt>
      <trkpt lat="48.06053" lon="-2.95569">
        <ele>94.4</ele>
        <time>2021-08-09T07:39:35Z</time>
      </trkpt>
      <trkpt lat="48.06049" lon="-2.95564">
        <ele>94.4</ele>
        <time>2021-08-09T07:39:36Z</time>
      </trkpt>
      <trkpt lat="48.06046" lon="-2.95558">
        <ele>94.2</ele>
        <time>2021-08-09T07:39:37Z</time>
      </trkpt>
      <trkpt lat="48.06043" lon="-2.95553">
        <ele>94.2</ele>
        <time>2021-08-09T07:39:38Z</time>
      </trkpt>
      <trkpt lat="48.0604" lon="-2.95547">
        <ele>94.2</ele>
        <time>2021-08-09T07:39:39Z</time>
      </trkpt>
      <trkpt lat="48.06037" lon="-2.95542">
        <ele>94.4</ele>
        <time>2021-08-09T07:39:40Z</time>
      </trkpt>
      <trkpt lat="48.06033" lon="-2.95536">
        <ele>94.2</ele>
        <time>2021-08-09T07:39:41Z</time>
      </trkpt>
      <trkpt lat="48.0603" lon="-2.9553">
        <ele>94.2</ele>
        <time>2021-08-09T07:39:42Z</time>
      </trkpt>
      <trkpt lat="48.06026" lon="-2.95524">
        <ele>94.2</ele>
        <time>2021-08-09T07:39:43Z</time>
      </trkpt>
      <trkpt lat="48.0602" lon="-2.95512">
        <ele>94.2</ele>
        <time>2021-08-09T07:39:45Z</time>
      </trkpt>
      <trkpt lat="48.06017" lon="-2.95506">
        <ele>94.2</ele>
        <time>2021-08-09T07:39:46Z</time>
      </trkpt>
      <trkpt lat="48.06013" lon="-2.955">
        <ele>94.2</ele>
        <time>2021-08-09T07:39:47Z</time>
      </trkpt>
      <trkpt lat="48.0601" lon="-2.95494">
        <ele>94.6</ele>
        <time>2021-08-09T07:39:48Z</time>
      </trkpt>
      <trkpt lat="48.06007" lon="-2.95489">
        <ele>94.4</ele>
        <time>2021-08-09T07:39:49Z</time>
      </trkpt>
      <trkpt lat="48.06003" lon="-2.95483">
        <ele>94.2</ele>
        <time>2021-08-09T07:39:50Z</time>
      </trkpt>
      <trkpt lat="48.06" lon="-2.95478">
        <ele>94.2</ele>
        <time>2021-08-09T07:39:51Z</time>
      </trkpt>
      <trkpt lat="48.05997" lon="-2.95472">
        <ele>94.2</ele>
        <time>2021-08-09T07:39:52Z</time>
      </trkpt>
      <trkpt lat="48.05993" lon="-2.95467">
        <ele>94.2</ele>
        <time>2021-08-09T07:39:53Z</time>
      </trkpt>
      <trkpt lat="48.0599" lon="-2.95461">
        <ele>94.4</ele>
        <time>2021-08-09T07:39:54Z</time>
      </trkpt>
      <trkpt lat="48.05983" lon="-2.95449">
        <ele>94.4</ele>
        <time>2021-08-09T07:39:56Z</time>
      </trkpt>
      <trkpt lat="48.0598" lon="-2.95444">
        <ele>94.4</ele>
        <time>2021-08-09T07:39:57Z</time>
      </trkpt>
      <trkpt lat="48.05976" lon="-2.95437">
        <ele>94</ele>
        <time>2021-08-09T07:39:58Z</time>
      </trkpt>
      <trkpt lat="48.05973" lon="-2.95431">
        <ele>94</ele>
        <time>2021-08-09T07:39:59Z</time>
      </trkpt>
      <trkpt lat="48.0597" lon="-2.95425">
        <ele>94.2</ele>
        <time>2021-08-09T07:40:00Z</time>
      </trkpt>
      <trkpt lat="48.05966" lon="-2.95419">
        <ele>94</ele>
        <time>2021-08-09T07:40:01Z</time>
      </trkpt>
      <trkpt lat="48.05962" lon="-2.95413">
        <ele>94.2</ele>
        <time>2021-08-09T07:40:02Z</time>
      </trkpt>
      <trkpt lat="48.05959" lon="-2.95407">
        <ele>94</ele>
        <time>2021-08-09T07:40:03Z</time>
      </trkpt>
      <trkpt lat="48.05955" lon="-2.95401">
        <ele>94</ele>
        <time>2021-08-09T07:40:04Z</time>
      </trkpt>
      <trkpt lat="48.05952" lon="-2.95394">
        <ele>94</ele>
        <time>2021-08-09T07:40:05Z</time>
      </trkpt>
      <trkpt lat="48.05944" lon="-2.95381">
        <ele>93.8</ele>
        <time>2021-08-09T07:40:07Z</time>
      </trkpt>
      <trkpt lat="48.0594" lon="-2.95375">
        <ele>93.6</ele>
        <time>2021-08-09T07:40:08Z</time>
      </trkpt>
      <trkpt lat="48.05937" lon="-2.95369">
        <ele>93.8</ele>
        <time>2021-08-09T07:40:09Z</time>
      </trkpt>
      <trkpt lat="48.05933" lon="-2.95362">
        <ele>93.6</ele>
        <time>2021-08-09T07:40:10Z</time>
      </trkpt>
      <trkpt lat="48.05929" lon="-2.95355">
        <ele>93.6</ele>
        <time>2021-08-09T07:40:11Z</time>
      </trkpt>
      <trkpt lat="48.05926" lon="-2.95348">
        <ele>93.4</ele>
        <time>2021-08-09T07:40:12Z</time>
      </trkpt>
      <trkpt lat="48.05922" lon="-2.95341">
        <ele>93.2</ele>
        <time>2021-08-09T07:40:13Z</time>
      </trkpt>
      <trkpt lat="48.05919" lon="-2.95333">
        <ele>93.2</ele>
        <time>2021-08-09T07:40:14Z</time>
      </trkpt>
      <trkpt lat="48.05916" lon="-2.95324">
        <ele>93.2</ele>
        <time>2021-08-09T07:40:15Z</time>
      </trkpt>
      <trkpt lat="48.05913" lon="-2.95315">
        <ele>93.2</ele>
        <time>2021-08-09T07:40:16Z</time>
      </trkpt>
      <trkpt lat="48.05911" lon="-2.95305">
        <ele>93</ele>
        <time>2021-08-09T07:40:17Z</time>
      </trkpt>
      <trkpt lat="48.05908" lon="-2.95295">
        <ele>93</ele>
        <time>2021-08-09T07:40:18Z</time>
      </trkpt>
      <trkpt lat="48.05906" lon="-2.95285">
        <ele>92.8</ele>
        <time>2021-08-09T07:40:19Z</time>
      </trkpt>
      <trkpt lat="48.05903" lon="-2.95274">
        <ele>92.8</ele>
        <time>2021-08-09T07:40:20Z</time>
      </trkpt>
      <trkpt lat="48.05901" lon="-2.95263">
        <ele>92.8</ele>
        <time>2021-08-09T07:40:21Z</time>
      </trkpt>
      <trkpt lat="48.05898" lon="-2.95252">
        <ele>92.6</ele>
        <time>2021-08-09T07:40:22Z</time>
      </trkpt>
      <trkpt lat="48.05895" lon="-2.95241">
        <ele>92.2</ele>
        <time>2021-08-09T07:40:23Z</time>
      </trkpt>
      <trkpt lat="48.05893" lon="-2.95229">
        <ele>91.8</ele>
        <time>2021-08-09T07:40:24Z</time>
      </trkpt>
      <trkpt lat="48.0589" lon="-2.95217">
        <ele>91.4</ele>
        <time>2021-08-09T07:40:25Z</time>
      </trkpt>
      <trkpt lat="48.05887" lon="-2.95206">
        <ele>91</ele>
        <time>2021-08-09T07:40:26Z</time>
      </trkpt>
      <trkpt lat="48.05884" lon="-2.95193">
        <ele>90.2</ele>
        <time>2021-08-09T07:40:27Z</time>
      </trkpt>
      <trkpt lat="48.05881" lon="-2.95181">
        <ele>89.4</ele>
        <time>2021-08-09T07:40:28Z</time>
      </trkpt>
      <trkpt lat="48.05878" lon="-2.95169">
        <ele>89.2</ele>
        <time>2021-08-09T07:40:29Z</time>
      </trkpt>
      <trkpt lat="48.05875" lon="-2.95156">
        <ele>88.8</ele>
        <time>2021-08-09T07:40:30Z</time>
      </trkpt>
      <trkpt lat="48.05872" lon="-2.95143">
        <ele>88.6</ele>
        <time>2021-08-09T07:40:31Z</time>
      </trkpt>
      <trkpt lat="48.05869" lon="-2.9513">
        <ele>88.2</ele>
        <time>2021-08-09T07:40:32Z</time>
      </trkpt>
      <trkpt lat="48.05866" lon="-2.95117">
        <ele>87.8</ele>
        <time>2021-08-09T07:40:33Z</time>
      </trkpt>
      <trkpt lat="48.05863" lon="-2.95104">
        <ele>87.6</ele>
        <time>2021-08-09T07:40:34Z</time>
      </trkpt>
      <trkpt lat="48.0586" lon="-2.95091">
        <ele>87.4</ele>
        <time>2021-08-09T07:40:35Z</time>
      </trkpt>
      <trkpt lat="48.05857" lon="-2.95077">
        <ele>87.4</ele>
        <time>2021-08-09T07:40:36Z</time>
      </trkpt>
      <trkpt lat="48.05854" lon="-2.95064">
        <ele>87.2</ele>
        <time>2021-08-09T07:40:37Z</time>
      </trkpt>
      <trkpt lat="48.05851" lon="-2.9505">
        <ele>87</ele>
        <time>2021-08-09T07:40:38Z</time>
      </trkpt>
      <trkpt lat="48.05844" lon="-2.95024">
        <ele>86</ele>
        <time>2021-08-09T07:40:40Z</time>
      </trkpt>
      <trkpt lat="48.05841" lon="-2.95011">
        <ele>85.4</ele>
        <time>2021-08-09T07:40:41Z</time>
      </trkpt>
      <trkpt lat="48.05838" lon="-2.94999">
        <ele>84.2</ele>
        <time>2021-08-09T07:40:42Z</time>
      </trkpt>
      <trkpt lat="48.05836" lon="-2.94987">
        <ele>83.8</ele>
        <time>2021-08-09T07:40:43Z</time>
      </trkpt>
      <trkpt lat="48.05833" lon="-2.94976">
        <ele>83</ele>
        <time>2021-08-09T07:40:44Z</time>
      </trkpt>
      <trkpt lat="48.05829" lon="-2.94967">
        <ele>82.4</ele>
        <time>2021-08-09T07:40:45Z</time>
      </trkpt>
      <trkpt lat="48.05824" lon="-2.94959">
        <ele>80.8</ele>
        <time>2021-08-09T07:40:46Z</time>
      </trkpt>
      <trkpt lat="48.05817" lon="-2.94954">
        <ele>80.4</ele>
        <time>2021-08-09T07:40:47Z</time>
      </trkpt>
      <trkpt lat="48.0581" lon="-2.94953">
        <ele>80.2</ele>
        <time>2021-08-09T07:40:48Z</time>
      </trkpt>
      <trkpt lat="48.05803" lon="-2.94954">
        <ele>80</ele>
        <time>2021-08-09T07:40:49Z</time>
      </trkpt>
      <trkpt lat="48.05797" lon="-2.94958">
        <ele>80</ele>
        <time>2021-08-09T07:40:50Z</time>
      </trkpt>
      <trkpt lat="48.05791" lon="-2.94962">
        <ele>79.8</ele>
        <time>2021-08-09T07:40:51Z</time>
      </trkpt>
      <trkpt lat="48.05786" lon="-2.94965">
        <ele>79.8</ele>
        <time>2021-08-09T07:40:52Z</time>
      </trkpt>
      <trkpt lat="48.0578" lon="-2.94967">
        <ele>79.8</ele>
        <time>2021-08-09T07:40:53Z</time>
      </trkpt>
      <trkpt lat="48.05774" lon="-2.94968">
        <ele>79.8</ele>
        <time>2021-08-09T07:40:54Z</time>
      </trkpt>
      <trkpt lat="48.05769" lon="-2.94969">
        <ele>79.8</ele>
        <time>2021-08-09T07:40:55Z</time>
      </trkpt>
      <trkpt lat="48.05763" lon="-2.94969">
        <ele>79.8</ele>
        <time>2021-08-09T07:40:56Z</time>
      </trkpt>
      <trkpt lat="48.05758" lon="-2.94969">
        <ele>79.8</ele>
        <time>2021-08-09T07:40:57Z</time>
      </trkpt>
      <trkpt lat="48.05753" lon="-2.94969">
        <ele>79.8</ele>
        <time>2021-08-09T07:40:58Z</time>
      </trkpt>
      <trkpt lat="48.05748" lon="-2.94968">
        <ele>80</ele>
        <time>2021-08-09T07:40:59Z</time>
      </trkpt>
      <trkpt lat="48.05743" lon="-2.94967">
        <ele>80</ele>
        <time>2021-08-09T07:41:00Z</time>
      </trkpt>
      <trkpt lat="48.05733" lon="-2.94966">
        <ele>80.6</ele>
        <time>2021-08-09T07:41:02Z</time>
      </trkpt>
      <trkpt lat="48.05728" lon="-2.94965">
        <ele>80.8</ele>
        <time>2021-08-09T07:41:03Z</time>
      </trkpt>
      <trkpt lat="48.05723" lon="-2.94964">
        <ele>81</ele>
        <time>2021-08-09T07:41:04Z</time>
      </trkpt>
      <trkpt lat="48.05718" lon="-2.94963">
        <ele>81.2</ele>
        <time>2021-08-09T07:41:05Z</time>
      </trkpt>
      <trkpt lat="48.05714" lon="-2.94962">
        <ele>81.2</ele>
        <time>2021-08-09T07:41:06Z</time>
      </trkpt>
      <trkpt lat="48.05709" lon="-2.94962">
        <ele>81.4</ele>
        <time>2021-08-09T07:41:07Z</time>
      </trkpt>
      <trkpt lat="48.05704" lon="-2.94961">
        <ele>81.6</ele>
        <time>2021-08-09T07:41:08Z</time>
      </trkpt>
      <trkpt lat="48.05699" lon="-2.9496">
        <ele>81.6</ele>
        <time>2021-08-09T07:41:09Z</time>
      </trkpt>
      <trkpt lat="48.05694" lon="-2.94959">
        <ele>81.8</ele>
        <time>2021-08-09T07:41:10Z</time>
      </trkpt>
      <trkpt lat="48.05689" lon="-2.94959">
        <ele>81.8</ele>
        <time>2021-08-09T07:41:11Z</time>
      </trkpt>
      <trkpt lat="48.0568" lon="-2.94957">
        <ele>82.2</ele>
        <time>2021-08-09T07:41:13Z</time>
      </trkpt>
      <trkpt lat="48.05675" lon="-2.94956">
        <ele>82.4</ele>
        <time>2021-08-09T07:41:14Z</time>
      </trkpt>
      <trkpt lat="48.05671" lon="-2.94954">
        <ele>82.4</ele>
        <time>2021-08-09T07:41:15Z</time>
      </trkpt>
      <trkpt lat="48.05666" lon="-2.94953">
        <ele>82.6</ele>
        <time>2021-08-09T07:41:16Z</time>
      </trkpt>
      <trkpt lat="48.05662" lon="-2.94952">
        <ele>82.6</ele>
        <time>2021-08-09T07:41:17Z</time>
      </trkpt>
      <trkpt lat="48.05658" lon="-2.9495">
        <ele>82.6</ele>
        <time>2021-08-09T07:41:18Z</time>
      </trkpt>
      <trkpt lat="48.05653" lon="-2.94949">
        <ele>82.8</ele>
        <time>2021-08-09T07:41:19Z</time>
      </trkpt>
      <trkpt lat="48.05649" lon="-2.94947">
        <ele>82.8</ele>
        <time>2021-08-09T07:41:20Z</time>
      </trkpt>
      <trkpt lat="48.05644" lon="-2.94946">
        <ele>82.8</ele>
        <time>2021-08-09T07:41:21Z</time>
      </trkpt>
      <trkpt lat="48.05639" lon="-2.94944">
        <ele>83</ele>
        <time>2021-08-09T07:41:22Z</time>
      </trkpt>
      <trkpt lat="48.05629" lon="-2.9494">
        <ele>83</ele>
        <time>2021-08-09T07:41:24Z</time>
      </trkpt>
      <trkpt lat="48.05624" lon="-2.94939">
        <ele>83.2</ele>
        <time>2021-08-09T07:41:25Z</time>
      </trkpt>
      <trkpt lat="48.05619" lon="-2.94938">
        <ele>83.2</ele>
        <time>2021-08-09T07:41:26Z</time>
      </trkpt>
      <trkpt lat="48.05614" lon="-2.94937">
        <ele>83.2</ele>
        <time>2021-08-09T07:41:27Z</time>
      </trkpt>
      <trkpt lat="48.05608" lon="-2.94935">
        <ele>83.2</ele>
        <time>2021-08-09T07:41:28Z</time>
      </trkpt>
      <trkpt lat="48.05603" lon="-2.94933">
        <ele>83.2</ele>
        <time>2021-08-09T07:41:29Z</time>
      </trkpt>
      <trkpt lat="48.05597" lon="-2.9493">
        <ele>83.2</ele>
        <time>2021-08-09T07:41:30Z</time>
      </trkpt>
      <trkpt lat="48.05592" lon="-2.94927">
        <ele>83.2</ele>
        <time>2021-08-09T07:41:31Z</time>
      </trkpt>
      <trkpt lat="48.05587" lon="-2.94923">
        <ele>83.2</ele>
        <time>2021-08-09T07:41:32Z</time>
      </trkpt>
      <trkpt lat="48.05582" lon="-2.94919">
        <ele>83.2</ele>
        <time>2021-08-09T07:41:33Z</time>
      </trkpt>
      <trkpt lat="48.05572" lon="-2.9491">
        <ele>83</ele>
        <time>2021-08-09T07:41:35Z</time>
      </trkpt>
      <trkpt lat="48.05568" lon="-2.94906">
        <ele>83</ele>
        <time>2021-08-09T07:41:36Z</time>
      </trkpt>
      <trkpt lat="48.05563" lon="-2.94901">
        <ele>83</ele>
        <time>2021-08-09T07:41:37Z</time>
      </trkpt>
      <trkpt lat="48.05559" lon="-2.94897">
        <ele>82.8</ele>
        <time>2021-08-09T07:41:38Z</time>
      </trkpt>
      <trkpt lat="48.05555" lon="-2.94892">
        <ele>82.8</ele>
        <time>2021-08-09T07:41:39Z</time>
      </trkpt>
      <trkpt lat="48.0555" lon="-2.94888">
        <ele>82.8</ele>
        <time>2021-08-09T07:41:40Z</time>
      </trkpt>
      <trkpt lat="48.05546" lon="-2.94884">
        <ele>82.8</ele>
        <time>2021-08-09T07:41:41Z</time>
      </trkpt>
      <trkpt lat="48.05541" lon="-2.9488">
        <ele>82.8</ele>
        <time>2021-08-09T07:41:42Z</time>
      </trkpt>
      <trkpt lat="48.05536" lon="-2.94875">
        <ele>82.8</ele>
        <time>2021-08-09T07:41:43Z</time>
      </trkpt>
      <trkpt lat="48.05532" lon="-2.9487">
        <ele>82.8</ele>
        <time>2021-08-09T07:41:44Z</time>
      </trkpt>
      <trkpt lat="48.05523" lon="-2.94861">
        <ele>82.6</ele>
        <time>2021-08-09T07:41:46Z</time>
      </trkpt>
      <trkpt lat="48.05518" lon="-2.94857">
        <ele>82.6</ele>
        <time>2021-08-09T07:41:47Z</time>
      </trkpt>
      <trkpt lat="48.05513" lon="-2.94855">
        <ele>82.6</ele>
        <time>2021-08-09T07:41:48Z</time>
      </trkpt>
      <trkpt lat="48.05508" lon="-2.94854">
        <ele>82.6</ele>
        <time>2021-08-09T07:41:49Z</time>
      </trkpt>
      <trkpt lat="48.05504" lon="-2.94853">
        <ele>82.6</ele>
        <time>2021-08-09T07:41:50Z</time>
      </trkpt>
      <trkpt lat="48.055" lon="-2.94851">
        <ele>82.6</ele>
        <time>2021-08-09T07:41:51Z</time>
      </trkpt>
      <trkpt lat="48.05497" lon="-2.94848">
        <ele>82.6</ele>
        <time>2021-08-09T07:41:52Z</time>
      </trkpt>
      <trkpt lat="48.05494" lon="-2.94843">
        <ele>82.6</ele>
        <time>2021-08-09T07:41:53Z</time>
      </trkpt>
      <trkpt lat="48.05491" lon="-2.94839">
        <ele>82.6</ele>
        <time>2021-08-09T07:41:54Z</time>
      </trkpt>
      <trkpt lat="48.05488" lon="-2.94834">
        <ele>82.6</ele>
        <time>2021-08-09T07:41:55Z</time>
      </trkpt>
      <trkpt lat="48.05485" lon="-2.9483">
        <ele>82.6</ele>
        <time>2021-08-09T07:41:56Z</time>
      </trkpt>
      <trkpt lat="48.05481" lon="-2.94825">
        <ele>82.8</ele>
        <time>2021-08-09T07:41:57Z</time>
      </trkpt>
      <trkpt lat="48.05478" lon="-2.9482">
        <ele>82.8</ele>
        <time>2021-08-09T07:41:58Z</time>
      </trkpt>
      <trkpt lat="48.05476" lon="-2.94814">
        <ele>82.8</ele>
        <time>2021-08-09T07:41:59Z</time>
      </trkpt>
      <trkpt lat="48.05475" lon="-2.94806">
        <ele>82.8</ele>
        <time>2021-08-09T07:42:00Z</time>
      </trkpt>
      <trkpt lat="48.05473" lon="-2.94798">
        <ele>82.8</ele>
        <time>2021-08-09T07:42:01Z</time>
      </trkpt>
      <trkpt lat="48.0547" lon="-2.94789">
        <ele>82.8</ele>
        <time>2021-08-09T07:42:02Z</time>
      </trkpt>
      <trkpt lat="48.05467" lon="-2.94779">
        <ele>82.8</ele>
        <time>2021-08-09T07:42:03Z</time>
      </trkpt>
      <trkpt lat="48.05464" lon="-2.94769">
        <ele>82.8</ele>
        <time>2021-08-09T07:42:04Z</time>
      </trkpt>
      <trkpt lat="48.05462" lon="-2.94758">
        <ele>82.8</ele>
        <time>2021-08-09T07:42:05Z</time>
      </trkpt>
      <trkpt lat="48.0546" lon="-2.94748">
        <ele>82.8</ele>
        <time>2021-08-09T07:42:06Z</time>
      </trkpt>
      <trkpt lat="48.05458" lon="-2.94728">
        <ele>82.8</ele>
        <time>2021-08-09T07:42:08Z</time>
      </trkpt>
      <trkpt lat="48.05458" lon="-2.94719">
        <ele>82.4</ele>
        <time>2021-08-09T07:42:09Z</time>
      </trkpt>
      <trkpt lat="48.05458" lon="-2.94711">
        <ele>81.6</ele>
        <time>2021-08-09T07:42:10Z</time>
      </trkpt>
      <trkpt lat="48.05458" lon="-2.94703">
        <ele>80.8</ele>
        <time>2021-08-09T07:42:11Z</time>
      </trkpt>
      <trkpt lat="48.05458" lon="-2.94697">
        <ele>79.8</ele>
        <time>2021-08-09T07:42:12Z</time>
      </trkpt>
      <trkpt lat="48.05458" lon="-2.94691">
        <ele>78.8</ele>
        <time>2021-08-09T07:42:13Z</time>
      </trkpt>
      <trkpt lat="48.05457" lon="-2.94686">
        <ele>78</ele>
        <time>2021-08-09T07:42:14Z</time>
      </trkpt>
      <trkpt lat="48.05454" lon="-2.94684">
        <ele>77.8</ele>
        <time>2021-08-09T07:42:15Z</time>
      </trkpt>
      <trkpt lat="48.0545" lon="-2.94683">
        <ele>77.8</ele>
        <time>2021-08-09T07:42:16Z</time>
      </trkpt>
      <trkpt lat="48.05446" lon="-2.94683">
        <ele>77.6</ele>
        <time>2021-08-09T07:42:17Z</time>
      </trkpt>
      <trkpt lat="48.05439" lon="-2.94683">
        <ele>77.4</ele>
        <time>2021-08-09T07:42:19Z</time>
      </trkpt>
      <trkpt lat="48.05435" lon="-2.94681">
        <ele>77.4</ele>
        <time>2021-08-09T07:42:20Z</time>
      </trkpt>
      <trkpt lat="48.05432" lon="-2.94679">
        <ele>77.4</ele>
        <time>2021-08-09T07:42:21Z</time>
      </trkpt>
      <trkpt lat="48.0543" lon="-2.94675">
        <ele>77.2</ele>
        <time>2021-08-09T07:42:22Z</time>
      </trkpt>
      <trkpt lat="48.05429" lon="-2.9467">
        <ele>77.4</ele>
        <time>2021-08-09T07:42:23Z</time>
      </trkpt>
      <trkpt lat="48.05429" lon="-2.94666">
        <ele>77.4</ele>
        <time>2021-08-09T07:42:24Z</time>
      </trkpt>
      <trkpt lat="48.05429" lon="-2.94662">
        <ele>77.4</ele>
        <time>2021-08-09T07:42:25Z</time>
      </trkpt>
      <trkpt lat="48.05429" lon="-2.94659">
        <ele>77.4</ele>
        <time>2021-08-09T07:42:26Z</time>
      </trkpt>
      <trkpt lat="48.05429" lon="-2.94656">
        <ele>77.4</ele>
        <time>2021-08-09T07:42:27Z</time>
      </trkpt>
      <trkpt lat="48.0543" lon="-2.94655">
        <ele>77.6</ele>
        <time>2021-08-09T07:42:28Z</time>
      </trkpt>
      <trkpt lat="48.0543" lon="-2.94654">
        <ele>78</ele>
        <time>2021-08-09T07:42:36Z</time>
      </trkpt>
      <trkpt lat="48.0543" lon="-2.94654">
        <ele>78</ele>
        <time>2021-08-09T07:42:37Z</time>
      </trkpt>
      <trkpt lat="48.05431" lon="-2.94654">
        <ele>78</ele>
        <time>2021-08-09T07:42:38Z</time>
      </trkpt>
      <trkpt lat="48.05433" lon="-2.94655">
        <ele>78</ele>
        <time>2021-08-09T07:42:40Z</time>
      </trkpt>
      <trkpt lat="48.05433" lon="-2.94655">
        <ele>78</ele>
        <time>2021-08-09T07:42:41Z</time>
      </trkpt>
      <trkpt lat="48.05435" lon="-2.94655">
        <ele>78</ele>
        <time>2021-08-09T07:42:42Z</time>
      </trkpt>
      <trkpt lat="48.05436" lon="-2.94654">
        <ele>78</ele>
        <time>2021-08-09T07:42:43Z</time>
      </trkpt>
      <trkpt lat="48.05448" lon="-2.94656">
        <ele>77.8</ele>
        <time>2021-08-09T08:11:41Z</time>
      </trkpt>
      <trkpt lat="48.05451" lon="-2.94658">
        <ele>77.8</ele>
        <time>2021-08-09T08:11:43Z</time>
      </trkpt>
      <trkpt lat="48.05453" lon="-2.94658">
        <ele>77.8</ele>
        <time>2021-08-09T08:11:44Z</time>
      </trkpt>
      <trkpt lat="48.05455" lon="-2.94659">
        <ele>77.8</ele>
        <time>2021-08-09T08:11:45Z</time>
      </trkpt>
      <trkpt lat="48.05457" lon="-2.9466">
        <ele>77.8</ele>
        <time>2021-08-09T08:11:46Z</time>
      </trkpt>
      <trkpt lat="48.05458" lon="-2.94662">
        <ele>77.8</ele>
        <time>2021-08-09T08:11:47Z</time>
      </trkpt>
      <trkpt lat="48.05459" lon="-2.94665">
        <ele>77.8</ele>
        <time>2021-08-09T08:11:48Z</time>
      </trkpt>
      <trkpt lat="48.0546" lon="-2.94671">
        <ele>78</ele>
        <time>2021-08-09T08:11:50Z</time>
      </trkpt>
      <trkpt lat="48.05461" lon="-2.94674">
        <ele>78</ele>
        <time>2021-08-09T08:11:51Z</time>
      </trkpt>
      <trkpt lat="48.05464" lon="-2.94675">
        <ele>78.2</ele>
        <time>2021-08-09T08:11:52Z</time>
      </trkpt>
      <trkpt lat="48.05466" lon="-2.94676">
        <ele>78.2</ele>
        <time>2021-08-09T08:11:53Z</time>
      </trkpt>
      <trkpt lat="48.05469" lon="-2.94677">
        <ele>78.2</ele>
        <time>2021-08-09T08:11:54Z</time>
      </trkpt>
      <trkpt lat="48.05472" lon="-2.94679">
        <ele>78.4</ele>
        <time>2021-08-09T08:11:55Z</time>
      </trkpt>
      <trkpt lat="48.05474" lon="-2.94681">
        <ele>78.4</ele>
        <time>2021-08-09T08:11:56Z</time>
      </trkpt>
      <trkpt lat="48.05475" lon="-2.94685">
        <ele>78.6</ele>
        <time>2021-08-09T08:11:57Z</time>
      </trkpt>
      <trkpt lat="48.05476" lon="-2.94689">
        <ele>78.6</ele>
        <time>2021-08-09T08:11:58Z</time>
      </trkpt>
      <trkpt lat="48.05477" lon="-2.94693">
        <ele>78.8</ele>
        <time>2021-08-09T08:11:59Z</time>
      </trkpt>
      <trkpt lat="48.05478" lon="-2.94697">
        <ele>78.8</ele>
        <time>2021-08-09T08:12:00Z</time>
      </trkpt>
      <trkpt lat="48.05479" lon="-2.94701">
        <ele>79</ele>
        <time>2021-08-09T08:12:01Z</time>
      </trkpt>
      <trkpt lat="48.05479" lon="-2.94706">
        <ele>79</ele>
        <time>2021-08-09T08:12:02Z</time>
      </trkpt>
      <trkpt lat="48.05479" lon="-2.9471">
        <ele>79</ele>
        <time>2021-08-09T08:12:03Z</time>
      </trkpt>
      <trkpt lat="48.05479" lon="-2.94714">
        <ele>79.2</ele>
        <time>2021-08-09T08:12:04Z</time>
      </trkpt>
      <trkpt lat="48.05478" lon="-2.94718">
        <ele>79.2</ele>
        <time>2021-08-09T08:12:05Z</time>
      </trkpt>
      <trkpt lat="48.05477" lon="-2.94722">
        <ele>79.4</ele>
        <time>2021-08-09T08:12:06Z</time>
      </trkpt>
      <trkpt lat="48.05477" lon="-2.94726">
        <ele>79.4</ele>
        <time>2021-08-09T08:12:07Z</time>
      </trkpt>
      <trkpt lat="48.05477" lon="-2.9473">
        <ele>79.6</ele>
        <time>2021-08-09T08:12:08Z</time>
      </trkpt>
      <trkpt lat="48.05477" lon="-2.94734">
        <ele>79.6</ele>
        <time>2021-08-09T08:12:09Z</time>
      </trkpt>
      <trkpt lat="48.05477" lon="-2.94738">
        <ele>79.8</ele>
        <time>2021-08-09T08:12:10Z</time>
      </trkpt>
      <trkpt lat="48.05477" lon="-2.94742">
        <ele>79.8</ele>
        <time>2021-08-09T08:12:11Z</time>
      </trkpt>
      <trkpt lat="48.05476" lon="-2.94746">
        <ele>80</ele>
        <time>2021-08-09T08:12:12Z</time>
      </trkpt>
      <trkpt lat="48.05476" lon="-2.9475">
        <ele>80.2</ele>
        <time>2021-08-09T08:12:13Z</time>
      </trkpt>
      <trkpt lat="48.05476" lon="-2.94754">
        <ele>80.4</ele>
        <time>2021-08-09T08:12:14Z</time>
      </trkpt>
      <trkpt lat="48.05477" lon="-2.94758">
        <ele>80.6</ele>
        <time>2021-08-09T08:12:15Z</time>
      </trkpt>
      <trkpt lat="48.05477" lon="-2.94762">
        <ele>80.8</ele>
        <time>2021-08-09T08:12:16Z</time>
      </trkpt>
      <trkpt lat="48.05477" lon="-2.94766">
        <ele>80.8</ele>
        <time>2021-08-09T08:12:17Z</time>
      </trkpt>
      <trkpt lat="48.05477" lon="-2.94769">
        <ele>80.8</ele>
        <time>2021-08-09T08:12:18Z</time>
      </trkpt>
      <trkpt lat="48.05478" lon="-2.94777">
        <ele>81.2</ele>
        <time>2021-08-09T08:12:20Z</time>
      </trkpt>
      <trkpt lat="48.05479" lon="-2.94781">
        <ele>81.2</ele>
        <time>2021-08-09T08:12:21Z</time>
      </trkpt>
      <trkpt lat="48.0548" lon="-2.94788">
        <ele>81.4</ele>
        <time>2021-08-09T08:12:23Z</time>
      </trkpt>
      <trkpt lat="48.05481" lon="-2.94792">
        <ele>81.6</ele>
        <time>2021-08-09T08:12:24Z</time>
      </trkpt>
      <trkpt lat="48.05483" lon="-2.948">
        <ele>81.8</ele>
        <time>2021-08-09T08:12:26Z</time>
      </trkpt>
      <trkpt lat="48.05483" lon="-2.94803">
        <ele>81.8</ele>
        <time>2021-08-09T08:12:27Z</time>
      </trkpt>
      <trkpt lat="48.05484" lon="-2.94806">
        <ele>82</ele>
        <time>2021-08-09T08:12:28Z</time>
      </trkpt>
      <trkpt lat="48.05484" lon="-2.9481">
        <ele>82</ele>
        <time>2021-08-09T08:12:29Z</time>
      </trkpt>
      <trkpt lat="48.05484" lon="-2.94813">
        <ele>82.2</ele>
        <time>2021-08-09T08:12:30Z</time>
      </trkpt>
      <trkpt lat="48.05485" lon="-2.94816">
        <ele>82.4</ele>
        <time>2021-08-09T08:12:31Z</time>
      </trkpt>
      <trkpt lat="48.05486" lon="-2.94819">
        <ele>82.4</ele>
        <time>2021-08-09T08:12:32Z</time>
      </trkpt>
      <trkpt lat="48.05489" lon="-2.94822">
        <ele>82.8</ele>
        <time>2021-08-09T08:12:34Z</time>
      </trkpt>
      <trkpt lat="48.05492" lon="-2.94822">
        <ele>83</ele>
        <time>2021-08-09T08:12:36Z</time>
      </trkpt>
      <trkpt lat="48.05494" lon="-2.94822">
        <ele>83.2</ele>
        <time>2021-08-09T08:12:37Z</time>
      </trkpt>
      <trkpt lat="48.05494" lon="-2.94822">
        <ele>83.2</ele>
        <time>2021-08-09T08:12:38Z</time>
      </trkpt>
      <trkpt lat="48.05495" lon="-2.94823">
        <ele>84.6</ele>
        <time>2021-08-09T08:13:24Z</time>
      </trkpt>
      <trkpt lat="48.05495" lon="-2.94824">
        <ele>84.6</ele>
        <time>2021-08-09T08:13:25Z</time>
      </trkpt>
      <trkpt lat="48.05494" lon="-2.94825">
        <ele>84.6</ele>
        <time>2021-08-09T08:13:26Z</time>
      </trkpt>
      <trkpt lat="48.05493" lon="-2.94826">
        <ele>84.6</ele>
        <time>2021-08-09T08:13:27Z</time>
      </trkpt>
      <trkpt lat="48.05492" lon="-2.94825">
        <ele>84.6</ele>
        <time>2021-08-09T08:13:28Z</time>
      </trkpt>
      <trkpt lat="48.0549" lon="-2.94825">
        <ele>84.6</ele>
        <time>2021-08-09T08:13:29Z</time>
      </trkpt>
      <trkpt lat="48.05487" lon="-2.94825">
        <ele>84.6</ele>
        <time>2021-08-09T08:13:30Z</time>
      </trkpt>
      <trkpt lat="48.05485" lon="-2.94826">
        <ele>84.6</ele>
        <time>2021-08-09T08:13:31Z</time>
      </trkpt>
      <trkpt lat="48.05484" lon="-2.94829">
        <ele>84.6</ele>
        <time>2021-08-09T08:13:32Z</time>
      </trkpt>
      <trkpt lat="48.05484" lon="-2.94831">
        <ele>84.6</ele>
        <time>2021-08-09T08:13:33Z</time>
      </trkpt>
      <trkpt lat="48.05486" lon="-2.94835">
        <ele>84.6</ele>
        <time>2021-08-09T08:13:34Z</time>
      </trkpt>
      <trkpt lat="48.05488" lon="-2.94838">
        <ele>84.6</ele>
        <time>2021-08-09T08:13:35Z</time>
      </trkpt>
      <trkpt lat="48.05489" lon="-2.94842">
        <ele>84.6</ele>
        <time>2021-08-09T08:13:36Z</time>
      </trkpt>
      <trkpt lat="48.0549" lon="-2.9485">
        <ele>84.6</ele>
        <time>2021-08-09T08:13:38Z</time>
      </trkpt>
      <trkpt lat="48.05489" lon="-2.94854">
        <ele>84.6</ele>
        <time>2021-08-09T08:13:39Z</time>
      </trkpt>
      <trkpt lat="48.05488" lon="-2.94858">
        <ele>84.6</ele>
        <time>2021-08-09T08:13:40Z</time>
      </trkpt>
      <trkpt lat="48.05487" lon="-2.94861">
        <ele>84.6</ele>
        <time>2021-08-09T08:13:41Z</time>
      </trkpt>
      <trkpt lat="48.05487" lon="-2.94865">
        <ele>84.6</ele>
        <time>2021-08-09T08:13:42Z</time>
      </trkpt>
      <trkpt lat="48.05486" lon="-2.94869">
        <ele>84.6</ele>
        <time>2021-08-09T08:13:43Z</time>
      </trkpt>
      <trkpt lat="48.05485" lon="-2.94873">
        <ele>84.6</ele>
        <time>2021-08-09T08:13:44Z</time>
      </trkpt>
      <trkpt lat="48.05483" lon="-2.94881">
        <ele>84.6</ele>
        <time>2021-08-09T08:13:46Z</time>
      </trkpt>
      <trkpt lat="48.05483" lon="-2.94885">
        <ele>84.8</ele>
        <time>2021-08-09T08:13:47Z</time>
      </trkpt>
      <trkpt lat="48.05482" lon="-2.94893">
        <ele>84.8</ele>
        <time>2021-08-09T08:13:49Z</time>
      </trkpt>
      <trkpt lat="48.05481" lon="-2.94897">
        <ele>85</ele>
        <time>2021-08-09T08:13:50Z</time>
      </trkpt>
      <trkpt lat="48.05481" lon="-2.94901">
        <ele>85</ele>
        <time>2021-08-09T08:13:51Z</time>
      </trkpt>
      <trkpt lat="48.05481" lon="-2.94906">
        <ele>85.2</ele>
        <time>2021-08-09T08:13:52Z</time>
      </trkpt>
      <trkpt lat="48.0548" lon="-2.9491">
        <ele>85.2</ele>
        <time>2021-08-09T08:13:53Z</time>
      </trkpt>
      <trkpt lat="48.0548" lon="-2.94915">
        <ele>85.2</ele>
        <time>2021-08-09T08:13:54Z</time>
      </trkpt>
      <trkpt lat="48.05479" lon="-2.9492">
        <ele>85.4</ele>
        <time>2021-08-09T08:13:55Z</time>
      </trkpt>
      <trkpt lat="48.05478" lon="-2.94929">
        <ele>85.4</ele>
        <time>2021-08-09T08:13:57Z</time>
      </trkpt>
      <trkpt lat="48.05478" lon="-2.94934">
        <ele>85.4</ele>
        <time>2021-08-09T08:13:58Z</time>
      </trkpt>
      <trkpt lat="48.05477" lon="-2.94939">
        <ele>85.6</ele>
        <time>2021-08-09T08:13:59Z</time>
      </trkpt>
      <trkpt lat="48.05476" lon="-2.94944">
        <ele>85.6</ele>
        <time>2021-08-09T08:14:00Z</time>
      </trkpt>
      <trkpt lat="48.05475" lon="-2.94949">
        <ele>85.6</ele>
        <time>2021-08-09T08:14:01Z</time>
      </trkpt>
      <trkpt lat="48.05475" lon="-2.94954">
        <ele>85.6</ele>
        <time>2021-08-09T08:14:02Z</time>
      </trkpt>
      <trkpt lat="48.05474" lon="-2.94959">
        <ele>85.6</ele>
        <time>2021-08-09T08:14:03Z</time>
      </trkpt>
      <trkpt lat="48.05473" lon="-2.94967">
        <ele>85.8</ele>
        <time>2021-08-09T08:14:05Z</time>
      </trkpt>
      <trkpt lat="48.05473" lon="-2.94971">
        <ele>85.8</ele>
        <time>2021-08-09T08:14:06Z</time>
      </trkpt>
      <trkpt lat="48.05473" lon="-2.94979">
        <ele>85.8</ele>
        <time>2021-08-09T08:14:08Z</time>
      </trkpt>
      <trkpt lat="48.05472" lon="-2.94983">
        <ele>85.8</ele>
        <time>2021-08-09T08:14:09Z</time>
      </trkpt>
      <trkpt lat="48.0547" lon="-2.94993">
        <ele>85.8</ele>
        <time>2021-08-09T08:14:11Z</time>
      </trkpt>
      <trkpt lat="48.05469" lon="-2.94997">
        <ele>85.8</ele>
        <time>2021-08-09T08:14:12Z</time>
      </trkpt>
      <trkpt lat="48.05467" lon="-2.95006">
        <ele>85.8</ele>
        <time>2021-08-09T08:14:14Z</time>
      </trkpt>
      <trkpt lat="48.05466" lon="-2.95009">
        <ele>85.8</ele>
        <time>2021-08-09T08:14:15Z</time>
      </trkpt>
      <trkpt lat="48.05466" lon="-2.95016">
        <ele>85.8</ele>
        <time>2021-08-09T08:14:17Z</time>
      </trkpt>
      <trkpt lat="48.05465" lon="-2.95019">
        <ele>85.8</ele>
        <time>2021-08-09T08:14:18Z</time>
      </trkpt>
      <trkpt lat="48.05465" lon="-2.95023">
        <ele>85.6</ele>
        <time>2021-08-09T08:14:19Z</time>
      </trkpt>
      <trkpt lat="48.05464" lon="-2.95027">
        <ele>85.6</ele>
        <time>2021-08-09T08:14:20Z</time>
      </trkpt>
      <trkpt lat="48.05464" lon="-2.95032">
        <ele>85.6</ele>
        <time>2021-08-09T08:14:21Z</time>
      </trkpt>
      <trkpt lat="48.05463" lon="-2.95038">
        <ele>85.4</ele>
        <time>2021-08-09T08:14:22Z</time>
      </trkpt>
      <trkpt lat="48.05463" lon="-2.95043">
        <ele>85.4</ele>
        <time>2021-08-09T08:14:23Z</time>
      </trkpt>
      <trkpt lat="48.05462" lon="-2.9505">
        <ele>85.4</ele>
        <time>2021-08-09T08:14:24Z</time>
      </trkpt>
      <trkpt lat="48.05461" lon="-2.95056">
        <ele>85.2</ele>
        <time>2021-08-09T08:14:25Z</time>
      </trkpt>
      <trkpt lat="48.0546" lon="-2.95062">
        <ele>85.2</ele>
        <time>2021-08-09T08:14:26Z</time>
      </trkpt>
      <trkpt lat="48.0546" lon="-2.95069">
        <ele>85</ele>
        <time>2021-08-09T08:14:27Z</time>
      </trkpt>
      <trkpt lat="48.05459" lon="-2.95076">
        <ele>85</ele>
        <time>2021-08-09T08:14:28Z</time>
      </trkpt>
      <trkpt lat="48.05457" lon="-2.95091">
        <ele>84.8</ele>
        <time>2021-08-09T08:14:30Z</time>
      </trkpt>
      <trkpt lat="48.05455" lon="-2.951">
        <ele>84.6</ele>
        <time>2021-08-09T08:14:31Z</time>
      </trkpt>
      <trkpt lat="48.05454" lon="-2.95108">
        <ele>84.2</ele>
        <time>2021-08-09T08:14:32Z</time>
      </trkpt>
      <trkpt lat="48.05453" lon="-2.95116">
        <ele>84</ele>
        <time>2021-08-09T08:14:33Z</time>
      </trkpt>
      <trkpt lat="48.05451" lon="-2.95125">
        <ele>83.6</ele>
        <time>2021-08-09T08:14:34Z</time>
      </trkpt>
      <trkpt lat="48.05449" lon="-2.95133">
        <ele>83.2</ele>
        <time>2021-08-09T08:14:35Z</time>
      </trkpt>
      <trkpt lat="48.05448" lon="-2.95142">
        <ele>83</ele>
        <time>2021-08-09T08:14:36Z</time>
      </trkpt>
      <trkpt lat="48.05447" lon="-2.95151">
        <ele>82.6</ele>
        <time>2021-08-09T08:14:37Z</time>
      </trkpt>
      <trkpt lat="48.05446" lon="-2.95161">
        <ele>82</ele>
        <time>2021-08-09T08:14:38Z</time>
      </trkpt>
      <trkpt lat="48.05445" lon="-2.9517">
        <ele>81.6</ele>
        <time>2021-08-09T08:14:39Z</time>
      </trkpt>
      <trkpt lat="48.05444" lon="-2.95179">
        <ele>81</ele>
        <time>2021-08-09T08:14:40Z</time>
      </trkpt>
      <trkpt lat="48.05443" lon="-2.95188">
        <ele>80.4</ele>
        <time>2021-08-09T08:14:41Z</time>
      </trkpt>
      <trkpt lat="48.05442" lon="-2.95197">
        <ele>80</ele>
        <time>2021-08-09T08:14:42Z</time>
      </trkpt>
      <trkpt lat="48.05441" lon="-2.95207">
        <ele>79.8</ele>
        <time>2021-08-09T08:14:43Z</time>
      </trkpt>
      <trkpt lat="48.0544" lon="-2.95215">
        <ele>79.4</ele>
        <time>2021-08-09T08:14:44Z</time>
      </trkpt>
      <trkpt lat="48.05439" lon="-2.95224">
        <ele>79.4</ele>
        <time>2021-08-09T08:14:45Z</time>
      </trkpt>
      <trkpt lat="48.05438" lon="-2.95231">
        <ele>79.2</ele>
        <time>2021-08-09T08:14:46Z</time>
      </trkpt>
      <trkpt lat="48.05437" lon="-2.95238">
        <ele>79</ele>
        <time>2021-08-09T08:14:47Z</time>
      </trkpt>
      <trkpt lat="48.05436" lon="-2.95245">
        <ele>78.4</ele>
        <time>2021-08-09T08:14:48Z</time>
      </trkpt>
      <trkpt lat="48.05435" lon="-2.95251">
        <ele>78.2</ele>
        <time>2021-08-09T08:14:49Z</time>
      </trkpt>
      <trkpt lat="48.05434" lon="-2.95256">
        <ele>78</ele>
        <time>2021-08-09T08:14:50Z</time>
      </trkpt>
      <trkpt lat="48.05435" lon="-2.95264">
        <ele>78</ele>
        <time>2021-08-09T08:14:52Z</time>
      </trkpt>
      <trkpt lat="48.05436" lon="-2.95266">
        <ele>78</ele>
        <time>2021-08-09T08:14:53Z</time>
      </trkpt>
      <trkpt lat="48.05437" lon="-2.95269">
        <ele>78</ele>
        <time>2021-08-09T08:14:54Z</time>
      </trkpt>
      <trkpt lat="48.05438" lon="-2.95272">
        <ele>78</ele>
        <time>2021-08-09T08:14:55Z</time>
      </trkpt>
      <trkpt lat="48.05439" lon="-2.95276">
        <ele>78</ele>
        <time>2021-08-09T08:14:56Z</time>
      </trkpt>
      <trkpt lat="48.0544" lon="-2.95282">
        <ele>78</ele>
        <time>2021-08-09T08:14:57Z</time>
      </trkpt>
      <trkpt lat="48.0544" lon="-2.95288">
        <ele>77.8</ele>
        <time>2021-08-09T08:14:58Z</time>
      </trkpt>
      <trkpt lat="48.05438" lon="-2.95294">
        <ele>77.8</ele>
        <time>2021-08-09T08:14:59Z</time>
      </trkpt>
      <trkpt lat="48.05436" lon="-2.95301">
        <ele>77.8</ele>
        <time>2021-08-09T08:15:00Z</time>
      </trkpt>
      <trkpt lat="48.05434" lon="-2.95309">
        <ele>77.8</ele>
        <time>2021-08-09T08:15:01Z</time>
      </trkpt>
      <trkpt lat="48.0543" lon="-2.95327">
        <ele>77.8</ele>
        <time>2021-08-09T08:15:03Z</time>
      </trkpt>
      <trkpt lat="48.05429" lon="-2.95338">
        <ele>77.8</ele>
        <time>2021-08-09T08:15:04Z</time>
      </trkpt>
      <trkpt lat="48.05427" lon="-2.95348">
        <ele>77.8</ele>
        <time>2021-08-09T08:15:05Z</time>
      </trkpt>
      <trkpt lat="48.05425" lon="-2.95358">
        <ele>77.8</ele>
        <time>2021-08-09T08:15:06Z</time>
      </trkpt>
      <trkpt lat="48.05424" lon="-2.95369">
        <ele>77.8</ele>
        <time>2021-08-09T08:15:07Z</time>
      </trkpt>
      <trkpt lat="48.05422" lon="-2.9538">
        <ele>77.6</ele>
        <time>2021-08-09T08:15:08Z</time>
      </trkpt>
      <trkpt lat="48.05421" lon="-2.9539">
        <ele>77.2</ele>
        <time>2021-08-09T08:15:09Z</time>
      </trkpt>
      <trkpt lat="48.05419" lon="-2.95402">
        <ele>76.4</ele>
        <time>2021-08-09T08:15:10Z</time>
      </trkpt>
      <trkpt lat="48.05417" lon="-2.95414">
        <ele>75.8</ele>
        <time>2021-08-09T08:15:11Z</time>
      </trkpt>
      <trkpt lat="48.05416" lon="-2.95425">
        <ele>74.8</ele>
        <time>2021-08-09T08:15:12Z</time>
      </trkpt>
      <trkpt lat="48.05414" lon="-2.95437">
        <ele>74.4</ele>
        <time>2021-08-09T08:15:13Z</time>
      </trkpt>
      <trkpt lat="48.05412" lon="-2.9545">
        <ele>74</ele>
        <time>2021-08-09T08:15:14Z</time>
      </trkpt>
      <trkpt lat="48.0541" lon="-2.95462">
        <ele>73.4</ele>
        <time>2021-08-09T08:15:15Z</time>
      </trkpt>
      <trkpt lat="48.05408" lon="-2.95475">
        <ele>73</ele>
        <time>2021-08-09T08:15:16Z</time>
      </trkpt>
      <trkpt lat="48.05406" lon="-2.95488">
        <ele>72.4</ele>
        <time>2021-08-09T08:15:17Z</time>
      </trkpt>
      <trkpt lat="48.05404" lon="-2.95501">
        <ele>72</ele>
        <time>2021-08-09T08:15:18Z</time>
      </trkpt>
      <trkpt lat="48.05402" lon="-2.95515">
        <ele>71.6</ele>
        <time>2021-08-09T08:15:19Z</time>
      </trkpt>
      <trkpt lat="48.05401" lon="-2.95528">
        <ele>71.2</ele>
        <time>2021-08-09T08:15:20Z</time>
      </trkpt>
      <trkpt lat="48.05399" lon="-2.95541">
        <ele>70.2</ele>
        <time>2021-08-09T08:15:21Z</time>
      </trkpt>
      <trkpt lat="48.05397" lon="-2.95555">
        <ele>69.6</ele>
        <time>2021-08-09T08:15:22Z</time>
      </trkpt>
      <trkpt lat="48.05395" lon="-2.95568">
        <ele>69.2</ele>
        <time>2021-08-09T08:15:23Z</time>
      </trkpt>
      <trkpt lat="48.05391" lon="-2.95595">
        <ele>68</ele>
        <time>2021-08-09T08:15:25Z</time>
      </trkpt>
      <trkpt lat="48.05389" lon="-2.95608">
        <ele>67.6</ele>
        <time>2021-08-09T08:15:26Z</time>
      </trkpt>
      <trkpt lat="48.05387" lon="-2.95621">
        <ele>67</ele>
        <time>2021-08-09T08:15:27Z</time>
      </trkpt>
      <trkpt lat="48.05385" lon="-2.95633">
        <ele>66.6</ele>
        <time>2021-08-09T08:15:28Z</time>
      </trkpt>
      <trkpt lat="48.05383" lon="-2.95645">
        <ele>66.4</ele>
        <time>2021-08-09T08:15:29Z</time>
      </trkpt>
      <trkpt lat="48.05381" lon="-2.95657">
        <ele>66</ele>
        <time>2021-08-09T08:15:30Z</time>
      </trkpt>
      <trkpt lat="48.05381" lon="-2.95669">
        <ele>65.6</ele>
        <time>2021-08-09T08:15:31Z</time>
      </trkpt>
      <trkpt lat="48.0538" lon="-2.95681">
        <ele>65</ele>
        <time>2021-08-09T08:15:32Z</time>
      </trkpt>
      <trkpt lat="48.05378" lon="-2.95693">
        <ele>64.8</ele>
        <time>2021-08-09T08:15:33Z</time>
      </trkpt>
      <trkpt lat="48.05375" lon="-2.95705">
        <ele>64.4</ele>
        <time>2021-08-09T08:15:34Z</time>
      </trkpt>
      <trkpt lat="48.05372" lon="-2.95716">
        <ele>63.8</ele>
        <time>2021-08-09T08:15:35Z</time>
      </trkpt>
      <trkpt lat="48.0537" lon="-2.95728">
        <ele>63.4</ele>
        <time>2021-08-09T08:15:36Z</time>
      </trkpt>
      <trkpt lat="48.05369" lon="-2.95741">
        <ele>63.2</ele>
        <time>2021-08-09T08:15:37Z</time>
      </trkpt>
      <trkpt lat="48.05368" lon="-2.95754">
        <ele>63</ele>
        <time>2021-08-09T08:15:38Z</time>
      </trkpt>
      <trkpt lat="48.05366" lon="-2.95766">
        <ele>62.8</ele>
        <time>2021-08-09T08:15:39Z</time>
      </trkpt>
      <trkpt lat="48.05364" lon="-2.95779">
        <ele>62.4</ele>
        <time>2021-08-09T08:15:40Z</time>
      </trkpt>
      <trkpt lat="48.05362" lon="-2.95792">
        <ele>61.2</ele>
        <time>2021-08-09T08:15:41Z</time>
      </trkpt>
      <trkpt lat="48.0536" lon="-2.95805">
        <ele>60.6</ele>
        <time>2021-08-09T08:15:42Z</time>
      </trkpt>
      <trkpt lat="48.05358" lon="-2.95818">
        <ele>60.2</ele>
        <time>2021-08-09T08:15:43Z</time>
      </trkpt>
      <trkpt lat="48.05356" lon="-2.95831">
        <ele>60</ele>
        <time>2021-08-09T08:15:44Z</time>
      </trkpt>
      <trkpt lat="48.05355" lon="-2.95843">
        <ele>59.4</ele>
        <time>2021-08-09T08:15:45Z</time>
      </trkpt>
      <trkpt lat="48.05353" lon="-2.95855">
        <ele>59.2</ele>
        <time>2021-08-09T08:15:46Z</time>
      </trkpt>
      <trkpt lat="48.05351" lon="-2.95867">
        <ele>59</ele>
        <time>2021-08-09T08:15:47Z</time>
      </trkpt>
      <trkpt lat="48.05349" lon="-2.95878">
        <ele>58.4</ele>
        <time>2021-08-09T08:15:48Z</time>
      </trkpt>
      <trkpt lat="48.05348" lon="-2.95889">
        <ele>57.6</ele>
        <time>2021-08-09T08:15:49Z</time>
      </trkpt>
      <trkpt lat="48.05347" lon="-2.95899">
        <ele>57</ele>
        <time>2021-08-09T08:15:50Z</time>
      </trkpt>
      <trkpt lat="48.05346" lon="-2.95908">
        <ele>56.6</ele>
        <time>2021-08-09T08:15:51Z</time>
      </trkpt>
      <trkpt lat="48.05345" lon="-2.95915">
        <ele>56.4</ele>
        <time>2021-08-09T08:15:52Z</time>
      </trkpt>
      <trkpt lat="48.05345" lon="-2.95923">
        <ele>56.2</ele>
        <time>2021-08-09T08:15:53Z</time>
      </trkpt>
      <trkpt lat="48.05346" lon="-2.95931">
        <ele>56.2</ele>
        <time>2021-08-09T08:15:54Z</time>
      </trkpt>
      <trkpt lat="48.05349" lon="-2.95939">
        <ele>56</ele>
        <time>2021-08-09T08:15:55Z</time>
      </trkpt>
      <trkpt lat="48.05352" lon="-2.95946">
        <ele>56</ele>
        <time>2021-08-09T08:15:56Z</time>
      </trkpt>
      <trkpt lat="48.05362" lon="-2.95957">
        <ele>55.8</ele>
        <time>2021-08-09T08:15:58Z</time>
      </trkpt>
      <trkpt lat="48.05368" lon="-2.95962">
        <ele>55.8</ele>
        <time>2021-08-09T08:15:59Z</time>
      </trkpt>
      <trkpt lat="48.05375" lon="-2.95965">
        <ele>55.6</ele>
        <time>2021-08-09T08:16:00Z</time>
      </trkpt>
      <trkpt lat="48.05381" lon="-2.95969">
        <ele>55.6</ele>
        <time>2021-08-09T08:16:01Z</time>
      </trkpt>
      <trkpt lat="48.05388" lon="-2.95973">
        <ele>55.6</ele>
        <time>2021-08-09T08:16:02Z</time>
      </trkpt>
      <trkpt lat="48.05395" lon="-2.95975">
        <ele>55.6</ele>
        <time>2021-08-09T08:16:03Z</time>
      </trkpt>
      <trkpt lat="48.05402" lon="-2.95978">
        <ele>55.6</ele>
        <time>2021-08-09T08:16:04Z</time>
      </trkpt>
      <trkpt lat="48.05409" lon="-2.9598">
        <ele>55.6</ele>
        <time>2021-08-09T08:16:05Z</time>
      </trkpt>
      <trkpt lat="48.05416" lon="-2.95982">
        <ele>55.4</ele>
        <time>2021-08-09T08:16:06Z</time>
      </trkpt>
      <trkpt lat="48.05423" lon="-2.95984">
        <ele>55.4</ele>
        <time>2021-08-09T08:16:07Z</time>
      </trkpt>
      <trkpt lat="48.05437" lon="-2.95989">
        <ele>55</ele>
        <time>2021-08-09T08:16:09Z</time>
      </trkpt>
      <trkpt lat="48.05444" lon="-2.95991">
        <ele>55</ele>
        <time>2021-08-09T08:16:10Z</time>
      </trkpt>
      <trkpt lat="48.05451" lon="-2.95993">
        <ele>55</ele>
        <time>2021-08-09T08:16:11Z</time>
      </trkpt>
      <trkpt lat="48.05458" lon="-2.95995">
        <ele>55</ele>
        <time>2021-08-09T08:16:12Z</time>
      </trkpt>
      <trkpt lat="48.05465" lon="-2.95998">
        <ele>55</ele>
        <time>2021-08-09T08:16:13Z</time>
      </trkpt>
      <trkpt lat="48.05472" lon="-2.96">
        <ele>55</ele>
        <time>2021-08-09T08:16:14Z</time>
      </trkpt>
      <trkpt lat="48.05479" lon="-2.96002">
        <ele>55</ele>
        <time>2021-08-09T08:16:15Z</time>
      </trkpt>
      <trkpt lat="48.05486" lon="-2.96004">
        <ele>55</ele>
        <time>2021-08-09T08:16:16Z</time>
      </trkpt>
      <trkpt lat="48.05493" lon="-2.96006">
        <ele>55</ele>
        <time>2021-08-09T08:16:17Z</time>
      </trkpt>
      <trkpt lat="48.055" lon="-2.96008">
        <ele>55</ele>
        <time>2021-08-09T08:16:18Z</time>
      </trkpt>
      <trkpt lat="48.05507" lon="-2.9601">
        <ele>55</ele>
        <time>2021-08-09T08:16:19Z</time>
      </trkpt>
      <trkpt lat="48.05514" lon="-2.96012">
        <ele>55</ele>
        <time>2021-08-09T08:16:20Z</time>
      </trkpt>
      <trkpt lat="48.05522" lon="-2.96014">
        <ele>55</ele>
        <time>2021-08-09T08:16:21Z</time>
      </trkpt>
      <trkpt lat="48.05528" lon="-2.96016">
        <ele>55</ele>
        <time>2021-08-09T08:16:22Z</time>
      </trkpt>
      <trkpt lat="48.05535" lon="-2.96019">
        <ele>55</ele>
        <time>2021-08-09T08:16:23Z</time>
      </trkpt>
      <trkpt lat="48.05542" lon="-2.96021">
        <ele>55</ele>
        <time>2021-08-09T08:16:24Z</time>
      </trkpt>
      <trkpt lat="48.05549" lon="-2.96023">
        <ele>55</ele>
        <time>2021-08-09T08:16:25Z</time>
      </trkpt>
      <trkpt lat="48.05556" lon="-2.96026">
        <ele>55</ele>
        <time>2021-08-09T08:16:26Z</time>
      </trkpt>
      <trkpt lat="48.05563" lon="-2.9603">
        <ele>55</ele>
        <time>2021-08-09T08:16:27Z</time>
      </trkpt>
      <trkpt lat="48.05569" lon="-2.96033">
        <ele>55</ele>
        <time>2021-08-09T08:16:28Z</time>
      </trkpt>
      <trkpt lat="48.05576" lon="-2.96036">
        <ele>55</ele>
        <time>2021-08-09T08:16:29Z</time>
      </trkpt>
      <trkpt lat="48.05588" lon="-2.96045">
        <ele>55</ele>
        <time>2021-08-09T08:16:31Z</time>
      </trkpt>
      <trkpt lat="48.05594" lon="-2.9605">
        <ele>55.2</ele>
        <time>2021-08-09T08:16:32Z</time>
      </trkpt>
      <trkpt lat="48.05599" lon="-2.96055">
        <ele>55.2</ele>
        <time>2021-08-09T08:16:33Z</time>
      </trkpt>
      <trkpt lat="48.05605" lon="-2.9606">
        <ele>55</ele>
        <time>2021-08-09T08:16:34Z</time>
      </trkpt>
      <trkpt lat="48.0561" lon="-2.96065">
        <ele>55</ele>
        <time>2021-08-09T08:16:35Z</time>
      </trkpt>
      <trkpt lat="48.05615" lon="-2.9607">
        <ele>55.2</ele>
        <time>2021-08-09T08:16:36Z</time>
      </trkpt>
      <trkpt lat="48.05621" lon="-2.96073">
        <ele>55.2</ele>
        <time>2021-08-09T08:16:37Z</time>
      </trkpt>
      <trkpt lat="48.05626" lon="-2.96077">
        <ele>55.4</ele>
        <time>2021-08-09T08:16:38Z</time>
      </trkpt>
      <trkpt lat="48.0563" lon="-2.96083">
        <ele>55.4</ele>
        <time>2021-08-09T08:16:39Z</time>
      </trkpt>
      <trkpt lat="48.05633" lon="-2.9609">
        <ele>55.4</ele>
        <time>2021-08-09T08:16:40Z</time>
      </trkpt>
      <trkpt lat="48.05636" lon="-2.96098">
        <ele>55.4</ele>
        <time>2021-08-09T08:16:41Z</time>
      </trkpt>
      <trkpt lat="48.0564" lon="-2.96106">
        <ele>55.4</ele>
        <time>2021-08-09T08:16:42Z</time>
      </trkpt>
      <trkpt lat="48.05644" lon="-2.96114">
        <ele>55.2</ele>
        <time>2021-08-09T08:16:43Z</time>
      </trkpt>
      <trkpt lat="48.05648" lon="-2.96121">
        <ele>55.4</ele>
        <time>2021-08-09T08:16:44Z</time>
      </trkpt>
      <trkpt lat="48.05652" lon="-2.96129">
        <ele>55.4</ele>
        <time>2021-08-09T08:16:45Z</time>
      </trkpt>
      <trkpt lat="48.05657" lon="-2.96137">
        <ele>55.4</ele>
        <time>2021-08-09T08:16:46Z</time>
      </trkpt>
      <trkpt lat="48.05661" lon="-2.96145">
        <ele>55.4</ele>
        <time>2021-08-09T08:16:47Z</time>
      </trkpt>
      <trkpt lat="48.05665" lon="-2.96153">
        <ele>55.4</ele>
        <time>2021-08-09T08:16:48Z</time>
      </trkpt>
      <trkpt lat="48.05669" lon="-2.96161">
        <ele>55.2</ele>
        <time>2021-08-09T08:16:49Z</time>
      </trkpt>
      <trkpt lat="48.05673" lon="-2.96169">
        <ele>55</ele>
        <time>2021-08-09T08:16:50Z</time>
      </trkpt>
      <trkpt lat="48.05677" lon="-2.96177">
        <ele>54.8</ele>
        <time>2021-08-09T08:16:51Z</time>
      </trkpt>
      <trkpt lat="48.05685" lon="-2.96193">
        <ele>54.6</ele>
        <time>2021-08-09T08:16:53Z</time>
      </trkpt>
      <trkpt lat="48.05689" lon="-2.96201">
        <ele>54.6</ele>
        <time>2021-08-09T08:16:54Z</time>
      </trkpt>
      <trkpt lat="48.05693" lon="-2.9621">
        <ele>54.6</ele>
        <time>2021-08-09T08:16:55Z</time>
      </trkpt>
      <trkpt lat="48.05697" lon="-2.96218">
        <ele>54.4</ele>
        <time>2021-08-09T08:16:56Z</time>
      </trkpt>
      <trkpt lat="48.05701" lon="-2.96226">
        <ele>54.4</ele>
        <time>2021-08-09T08:16:57Z</time>
      </trkpt>
      <trkpt lat="48.05706" lon="-2.96235">
        <ele>54.4</ele>
        <time>2021-08-09T08:16:58Z</time>
      </trkpt>
      <trkpt lat="48.0571" lon="-2.96243">
        <ele>54.4</ele>
        <time>2021-08-09T08:16:59Z</time>
      </trkpt>
      <trkpt lat="48.05714" lon="-2.96251">
        <ele>54.2</ele>
        <time>2021-08-09T08:17:00Z</time>
      </trkpt>
      <trkpt lat="48.05718" lon="-2.96259">
        <ele>54.2</ele>
        <time>2021-08-09T08:17:01Z</time>
      </trkpt>
      <trkpt lat="48.05722" lon="-2.96268">
        <ele>54.2</ele>
        <time>2021-08-09T08:17:02Z</time>
      </trkpt>
      <trkpt lat="48.0573" lon="-2.96284">
        <ele>54.2</ele>
        <time>2021-08-09T08:17:04Z</time>
      </trkpt>
      <trkpt lat="48.05734" lon="-2.96292">
        <ele>54</ele>
        <time>2021-08-09T08:17:05Z</time>
      </trkpt>
      <trkpt lat="48.05738" lon="-2.96299">
        <ele>54</ele>
        <time>2021-08-09T08:17:06Z</time>
      </trkpt>
      <trkpt lat="48.05742" lon="-2.96306">
        <ele>54</ele>
        <time>2021-08-09T08:17:07Z</time>
      </trkpt>
      <trkpt lat="48.05746" lon="-2.96314">
        <ele>54</ele>
        <time>2021-08-09T08:17:08Z</time>
      </trkpt>
      <trkpt lat="48.0575" lon="-2.96321">
        <ele>54</ele>
        <time>2021-08-09T08:17:09Z</time>
      </trkpt>
      <trkpt lat="48.05754" lon="-2.96329">
        <ele>54</ele>
        <time>2021-08-09T08:17:10Z</time>
      </trkpt>
      <trkpt lat="48.05758" lon="-2.96336">
        <ele>54</ele>
        <time>2021-08-09T08:17:11Z</time>
      </trkpt>
      <trkpt lat="48.05762" lon="-2.96344">
        <ele>53.8</ele>
        <time>2021-08-09T08:17:12Z</time>
      </trkpt>
      <trkpt lat="48.05765" lon="-2.96351">
        <ele>53.8</ele>
        <time>2021-08-09T08:17:13Z</time>
      </trkpt>
      <trkpt lat="48.05773" lon="-2.96367">
        <ele>53.8</ele>
        <time>2021-08-09T08:17:15Z</time>
      </trkpt>
      <trkpt lat="48.05776" lon="-2.96375">
        <ele>53.8</ele>
        <time>2021-08-09T08:17:16Z</time>
      </trkpt>
      <trkpt lat="48.0578" lon="-2.96384">
        <ele>53.8</ele>
        <time>2021-08-09T08:17:17Z</time>
      </trkpt>
      <trkpt lat="48.05783" lon="-2.96393">
        <ele>53.8</ele>
        <time>2021-08-09T08:17:18Z</time>
      </trkpt>
      <trkpt lat="48.05786" lon="-2.96402">
        <ele>53.8</ele>
        <time>2021-08-09T08:17:19Z</time>
      </trkpt>
      <trkpt lat="48.05789" lon="-2.96411">
        <ele>54</ele>
        <time>2021-08-09T08:17:20Z</time>
      </trkpt>
      <trkpt lat="48.05792" lon="-2.9642">
        <ele>54</ele>
        <time>2021-08-09T08:17:21Z</time>
      </trkpt>
      <trkpt lat="48.05794" lon="-2.9643">
        <ele>54.2</ele>
        <time>2021-08-09T08:17:22Z</time>
      </trkpt>
      <trkpt lat="48.05797" lon="-2.96439">
        <ele>54.2</ele>
        <time>2021-08-09T08:17:23Z</time>
      </trkpt>
      <trkpt lat="48.05799" lon="-2.96449">
        <ele>54.2</ele>
        <time>2021-08-09T08:17:24Z</time>
      </trkpt>
      <trkpt lat="48.05804" lon="-2.96468">
        <ele>54.4</ele>
        <time>2021-08-09T08:17:26Z</time>
      </trkpt>
      <trkpt lat="48.05806" lon="-2.96478">
        <ele>54.4</ele>
        <time>2021-08-09T08:17:27Z</time>
      </trkpt>
      <trkpt lat="48.05809" lon="-2.96488">
        <ele>54.4</ele>
        <time>2021-08-09T08:17:28Z</time>
      </trkpt>
      <trkpt lat="48.05811" lon="-2.96497">
        <ele>54.4</ele>
        <time>2021-08-09T08:17:29Z</time>
      </trkpt>
      <trkpt lat="48.05813" lon="-2.96507">
        <ele>54.4</ele>
        <time>2021-08-09T08:17:30Z</time>
      </trkpt>
      <trkpt lat="48.05816" lon="-2.96516">
        <ele>54.4</ele>
        <time>2021-08-09T08:17:31Z</time>
      </trkpt>
      <trkpt lat="48.05818" lon="-2.96526">
        <ele>54.4</ele>
        <time>2021-08-09T08:17:32Z</time>
      </trkpt>
      <trkpt lat="48.0582" lon="-2.96535">
        <ele>54.4</ele>
        <time>2021-08-09T08:17:33Z</time>
      </trkpt>
      <trkpt lat="48.05823" lon="-2.96544">
        <ele>54.4</ele>
        <time>2021-08-09T08:17:34Z</time>
      </trkpt>
      <trkpt lat="48.05825" lon="-2.96553">
        <ele>54.4</ele>
        <time>2021-08-09T08:17:35Z</time>
      </trkpt>
      <trkpt lat="48.05831" lon="-2.96571">
        <ele>54.4</ele>
        <time>2021-08-09T08:17:37Z</time>
      </trkpt>
      <trkpt lat="48.05833" lon="-2.9658">
        <ele>54.4</ele>
        <time>2021-08-09T08:17:38Z</time>
      </trkpt>
      <trkpt lat="48.05837" lon="-2.96589">
        <ele>54.2</ele>
        <time>2021-08-09T08:17:39Z</time>
      </trkpt>
      <trkpt lat="48.0584" lon="-2.96597">
        <ele>54.2</ele>
        <time>2021-08-09T08:17:40Z</time>
      </trkpt>
      <trkpt lat="48.05843" lon="-2.96605">
        <ele>54.2</ele>
        <time>2021-08-09T08:17:41Z</time>
      </trkpt>
      <trkpt lat="48.05847" lon="-2.96613">
        <ele>54.2</ele>
        <time>2021-08-09T08:17:42Z</time>
      </trkpt>
      <trkpt lat="48.0585" lon="-2.9662">
        <ele>54.2</ele>
        <time>2021-08-09T08:17:43Z</time>
      </trkpt>
      <trkpt lat="48.05854" lon="-2.96628">
        <ele>54.2</ele>
        <time>2021-08-09T08:17:44Z</time>
      </trkpt>
      <trkpt lat="48.05856" lon="-2.96637">
        <ele>54.2</ele>
        <time>2021-08-09T08:17:45Z</time>
      </trkpt>
      <trkpt lat="48.05859" lon="-2.96646">
        <ele>54.2</ele>
        <time>2021-08-09T08:17:46Z</time>
      </trkpt>
      <trkpt lat="48.05865" lon="-2.96663">
        <ele>54.2</ele>
        <time>2021-08-09T08:17:48Z</time>
      </trkpt>
      <trkpt lat="48.05869" lon="-2.96671">
        <ele>54.2</ele>
        <time>2021-08-09T08:17:49Z</time>
      </trkpt>
      <trkpt lat="48.05872" lon="-2.96679">
        <ele>54.2</ele>
        <time>2021-08-09T08:17:50Z</time>
      </trkpt>
      <trkpt lat="48.05875" lon="-2.96687">
        <ele>54</ele>
        <time>2021-08-09T08:17:51Z</time>
      </trkpt>
      <trkpt lat="48.05878" lon="-2.96695">
        <ele>54</ele>
        <time>2021-08-09T08:17:52Z</time>
      </trkpt>
      <trkpt lat="48.05882" lon="-2.96703">
        <ele>54</ele>
        <time>2021-08-09T08:17:53Z</time>
      </trkpt>
      <trkpt lat="48.05885" lon="-2.96711">
        <ele>54</ele>
        <time>2021-08-09T08:17:54Z</time>
      </trkpt>
      <trkpt lat="48.05889" lon="-2.9672">
        <ele>54</ele>
        <time>2021-08-09T08:17:55Z</time>
      </trkpt>
      <trkpt lat="48.05892" lon="-2.96727">
        <ele>54</ele>
        <time>2021-08-09T08:17:56Z</time>
      </trkpt>
      <trkpt lat="48.05896" lon="-2.96735">
        <ele>53.8</ele>
        <time>2021-08-09T08:17:57Z</time>
      </trkpt>
      <trkpt lat="48.05903" lon="-2.96751">
        <ele>53.6</ele>
        <time>2021-08-09T08:17:59Z</time>
      </trkpt>
      <trkpt lat="48.05906" lon="-2.96759">
        <ele>53.8</ele>
        <time>2021-08-09T08:18:00Z</time>
      </trkpt>
      <trkpt lat="48.05909" lon="-2.96766">
        <ele>53.4</ele>
        <time>2021-08-09T08:18:01Z</time>
      </trkpt>
      <trkpt lat="48.05913" lon="-2.96773">
        <ele>53.4</ele>
        <time>2021-08-09T08:18:02Z</time>
      </trkpt>
      <trkpt lat="48.05917" lon="-2.96779">
        <ele>53.2</ele>
        <time>2021-08-09T08:18:03Z</time>
      </trkpt>
      <trkpt lat="48.0592" lon="-2.96783">
        <ele>53.2</ele>
        <time>2021-08-09T08:18:04Z</time>
      </trkpt>
      <trkpt lat="48.05922" lon="-2.96786">
        <ele>53.2</ele>
        <time>2021-08-09T08:18:05Z</time>
      </trkpt>
      <trkpt lat="48.05924" lon="-2.96789">
        <ele>53.2</ele>
        <time>2021-08-09T08:18:06Z</time>
      </trkpt>
      <trkpt lat="48.05926" lon="-2.96792">
        <ele>53.2</ele>
        <time>2021-08-09T08:18:07Z</time>
      </trkpt>
      <trkpt lat="48.05928" lon="-2.96794">
        <ele>53.2</ele>
        <time>2021-08-09T08:18:08Z</time>
      </trkpt>
      <trkpt lat="48.05932" lon="-2.96801">
        <ele>53.4</ele>
        <time>2021-08-09T08:18:10Z</time>
      </trkpt>
      <trkpt lat="48.05933" lon="-2.96805">
        <ele>53.6</ele>
        <time>2021-08-09T08:18:11Z</time>
      </trkpt>
      <trkpt lat="48.05933" lon="-2.96811">
        <ele>54.2</ele>
        <time>2021-08-09T08:18:12Z</time>
      </trkpt>
      <trkpt lat="48.05932" lon="-2.96817">
        <ele>54.4</ele>
        <time>2021-08-09T08:18:13Z</time>
      </trkpt>
      <trkpt lat="48.05932" lon="-2.96823">
        <ele>54.8</ele>
        <time>2021-08-09T08:18:14Z</time>
      </trkpt>
      <trkpt lat="48.05933" lon="-2.96828">
        <ele>55</ele>
        <time>2021-08-09T08:18:15Z</time>
      </trkpt>
      <trkpt lat="48.05935" lon="-2.96833">
        <ele>55.2</ele>
        <time>2021-08-09T08:18:16Z</time>
      </trkpt>
      <trkpt lat="48.05937" lon="-2.96838">
        <ele>55.4</ele>
        <time>2021-08-09T08:18:17Z</time>
      </trkpt>
      <trkpt lat="48.0594" lon="-2.96844">
        <ele>55.6</ele>
        <time>2021-08-09T08:18:18Z</time>
      </trkpt>
      <trkpt lat="48.05942" lon="-2.96849">
        <ele>55.6</ele>
        <time>2021-08-09T08:18:19Z</time>
      </trkpt>
      <trkpt lat="48.05946" lon="-2.96859">
        <ele>55.8</ele>
        <time>2021-08-09T08:18:21Z</time>
      </trkpt>
      <trkpt lat="48.05949" lon="-2.96864">
        <ele>55.8</ele>
        <time>2021-08-09T08:18:22Z</time>
      </trkpt>
      <trkpt lat="48.05951" lon="-2.96868">
        <ele>56</ele>
        <time>2021-08-09T08:18:23Z</time>
      </trkpt>
      <trkpt lat="48.05953" lon="-2.96873">
        <ele>56</ele>
        <time>2021-08-09T08:18:24Z</time>
      </trkpt>
      <trkpt lat="48.05956" lon="-2.96877">
        <ele>56.2</ele>
        <time>2021-08-09T08:18:25Z</time>
      </trkpt>
      <trkpt lat="48.05958" lon="-2.96882">
        <ele>56.2</ele>
        <time>2021-08-09T08:18:26Z</time>
      </trkpt>
      <trkpt lat="48.0596" lon="-2.96886">
        <ele>56.2</ele>
        <time>2021-08-09T08:18:27Z</time>
      </trkpt>
      <trkpt lat="48.05963" lon="-2.96891">
        <ele>56.6</ele>
        <time>2021-08-09T08:18:28Z</time>
      </trkpt>
      <trkpt lat="48.05965" lon="-2.96895">
        <ele>56.8</ele>
        <time>2021-08-09T08:18:29Z</time>
      </trkpt>
      <trkpt lat="48.05967" lon="-2.96899">
        <ele>57.2</ele>
        <time>2021-08-09T08:18:30Z</time>
      </trkpt>
      <trkpt lat="48.05968" lon="-2.96903">
        <ele>57.4</ele>
        <time>2021-08-09T08:18:31Z</time>
      </trkpt>
      <trkpt lat="48.0597" lon="-2.96907">
        <ele>57.6</ele>
        <time>2021-08-09T08:18:32Z</time>
      </trkpt>
      <trkpt lat="48.05973" lon="-2.96911">
        <ele>57.8</ele>
        <time>2021-08-09T08:18:33Z</time>
      </trkpt>
      <trkpt lat="48.05975" lon="-2.96916">
        <ele>58</ele>
        <time>2021-08-09T08:18:34Z</time>
      </trkpt>
      <trkpt lat="48.05977" lon="-2.96922">
        <ele>58.4</ele>
        <time>2021-08-09T08:18:35Z</time>
      </trkpt>
      <trkpt lat="48.05979" lon="-2.96927">
        <ele>58.6</ele>
        <time>2021-08-09T08:18:36Z</time>
      </trkpt>
      <trkpt lat="48.05982" lon="-2.96933">
        <ele>59</ele>
        <time>2021-08-09T08:18:37Z</time>
      </trkpt>
      <trkpt lat="48.05985" lon="-2.96939">
        <ele>59</ele>
        <time>2021-08-09T08:18:38Z</time>
      </trkpt>
      <trkpt lat="48.0599" lon="-2.96944">
        <ele>59.2</ele>
        <time>2021-08-09T08:18:39Z</time>
      </trkpt>
      <trkpt lat="48.05995" lon="-2.96949">
        <ele>59.2</ele>
        <time>2021-08-09T08:18:40Z</time>
      </trkpt>
      <trkpt lat="48.06" lon="-2.96954">
        <ele>59.2</ele>
        <time>2021-08-09T08:18:41Z</time>
      </trkpt>
      <trkpt lat="48.06006" lon="-2.96958">
        <ele>59.2</ele>
        <time>2021-08-09T08:18:42Z</time>
      </trkpt>
      <trkpt lat="48.06012" lon="-2.96963">
        <ele>59.2</ele>
        <time>2021-08-09T08:18:43Z</time>
      </trkpt>
      <trkpt lat="48.06018" lon="-2.96967">
        <ele>59.2</ele>
        <time>2021-08-09T08:18:44Z</time>
      </trkpt>
      <trkpt lat="48.06025" lon="-2.96971">
        <ele>59.2</ele>
        <time>2021-08-09T08:18:45Z</time>
      </trkpt>
      <trkpt lat="48.06032" lon="-2.96976">
        <ele>59.2</ele>
        <time>2021-08-09T08:18:46Z</time>
      </trkpt>
      <trkpt lat="48.06039" lon="-2.9698">
        <ele>59</ele>
        <time>2021-08-09T08:18:47Z</time>
      </trkpt>
      <trkpt lat="48.06046" lon="-2.96983">
        <ele>58.8</ele>
        <time>2021-08-09T08:18:48Z</time>
      </trkpt>
      <trkpt lat="48.06054" lon="-2.96986">
        <ele>58.2</ele>
        <time>2021-08-09T08:18:49Z</time>
      </trkpt>
      <trkpt lat="48.06062" lon="-2.96989">
        <ele>57.4</ele>
        <time>2021-08-09T08:18:50Z</time>
      </trkpt>
      <trkpt lat="48.06069" lon="-2.96991">
        <ele>57</ele>
        <time>2021-08-09T08:18:51Z</time>
      </trkpt>
      <trkpt lat="48.06077" lon="-2.96992">
        <ele>56.6</ele>
        <time>2021-08-09T08:18:52Z</time>
      </trkpt>
      <trkpt lat="48.06093" lon="-2.96994">
        <ele>56.2</ele>
        <time>2021-08-09T08:18:54Z</time>
      </trkpt>
      <trkpt lat="48.06101" lon="-2.96995">
        <ele>56</ele>
        <time>2021-08-09T08:18:55Z</time>
      </trkpt>
      <trkpt lat="48.06108" lon="-2.96995">
        <ele>55.6</ele>
        <time>2021-08-09T08:18:56Z</time>
      </trkpt>
      <trkpt lat="48.06116" lon="-2.96994">
        <ele>55.2</ele>
        <time>2021-08-09T08:18:57Z</time>
      </trkpt>
      <trkpt lat="48.06124" lon="-2.96993">
        <ele>55</ele>
        <time>2021-08-09T08:18:58Z</time>
      </trkpt>
      <trkpt lat="48.06131" lon="-2.96992">
        <ele>54.8</ele>
        <time>2021-08-09T08:18:59Z</time>
      </trkpt>
      <trkpt lat="48.06139" lon="-2.96991">
        <ele>54.8</ele>
        <time>2021-08-09T08:19:00Z</time>
      </trkpt>
      <trkpt lat="48.06147" lon="-2.9699">
        <ele>54.6</ele>
        <time>2021-08-09T08:19:01Z</time>
      </trkpt>
      <trkpt lat="48.06154" lon="-2.96988">
        <ele>54.6</ele>
        <time>2021-08-09T08:19:02Z</time>
      </trkpt>
      <trkpt lat="48.06162" lon="-2.96986">
        <ele>54.6</ele>
        <time>2021-08-09T08:19:03Z</time>
      </trkpt>
      <trkpt lat="48.06177" lon="-2.96982">
        <ele>54.4</ele>
        <time>2021-08-09T08:19:05Z</time>
      </trkpt>
      <trkpt lat="48.06184" lon="-2.9698">
        <ele>54.4</ele>
        <time>2021-08-09T08:19:06Z</time>
      </trkpt>
      <trkpt lat="48.06191" lon="-2.96977">
        <ele>54.4</ele>
        <time>2021-08-09T08:19:07Z</time>
      </trkpt>
      <trkpt lat="48.06199" lon="-2.96975">
        <ele>54.4</ele>
        <time>2021-08-09T08:19:08Z</time>
      </trkpt>
      <trkpt lat="48.06206" lon="-2.96973">
        <ele>54.4</ele>
        <time>2021-08-09T08:19:09Z</time>
      </trkpt>
      <trkpt lat="48.06213" lon="-2.9697">
        <ele>54.4</ele>
        <time>2021-08-09T08:19:10Z</time>
      </trkpt>
      <trkpt lat="48.0622" lon="-2.96967">
        <ele>54.4</ele>
        <time>2021-08-09T08:19:11Z</time>
      </trkpt>
      <trkpt lat="48.06228" lon="-2.96965">
        <ele>54.4</ele>
        <time>2021-08-09T08:19:12Z</time>
      </trkpt>
      <trkpt lat="48.06235" lon="-2.96962">
        <ele>54.4</ele>
        <time>2021-08-09T08:19:13Z</time>
      </trkpt>
      <trkpt lat="48.06243" lon="-2.96959">
        <ele>54.4</ele>
        <time>2021-08-09T08:19:14Z</time>
      </trkpt>
      <trkpt lat="48.06257" lon="-2.96954">
        <ele>54.4</ele>
        <time>2021-08-09T08:19:16Z</time>
      </trkpt>
      <trkpt lat="48.06264" lon="-2.96952">
        <ele>54.4</ele>
        <time>2021-08-09T08:19:17Z</time>
      </trkpt>
      <trkpt lat="48.06271" lon="-2.96949">
        <ele>54.4</ele>
        <time>2021-08-09T08:19:18Z</time>
      </trkpt>
      <trkpt lat="48.06278" lon="-2.96947">
        <ele>54.4</ele>
        <time>2021-08-09T08:19:19Z</time>
      </trkpt>
      <trkpt lat="48.06285" lon="-2.96945">
        <ele>54.4</ele>
        <time>2021-08-09T08:19:20Z</time>
      </trkpt>
      <trkpt lat="48.06292" lon="-2.96942">
        <ele>54.4</ele>
        <time>2021-08-09T08:19:21Z</time>
      </trkpt>
      <trkpt lat="48.06299" lon="-2.9694">
        <ele>54.6</ele>
        <time>2021-08-09T08:19:22Z</time>
      </trkpt>
      <trkpt lat="48.06306" lon="-2.96938">
        <ele>54.6</ele>
        <time>2021-08-09T08:19:23Z</time>
      </trkpt>
      <trkpt lat="48.06313" lon="-2.96935">
        <ele>54.6</ele>
        <time>2021-08-09T08:19:24Z</time>
      </trkpt>
      <trkpt lat="48.0632" lon="-2.96933">
        <ele>54.8</ele>
        <time>2021-08-09T08:19:25Z</time>
      </trkpt>
      <trkpt lat="48.06334" lon="-2.96928">
        <ele>54.8</ele>
        <time>2021-08-09T08:19:27Z</time>
      </trkpt>
      <trkpt lat="48.06341" lon="-2.96925">
        <ele>54.8</ele>
        <time>2021-08-09T08:19:28Z</time>
      </trkpt>
      <trkpt lat="48.06348" lon="-2.96922">
        <ele>54.8</ele>
        <time>2021-08-09T08:19:29Z</time>
      </trkpt>
      <trkpt lat="48.06355" lon="-2.9692">
        <ele>54.8</ele>
        <time>2021-08-09T08:19:30Z</time>
      </trkpt>
      <trkpt lat="48.06363" lon="-2.96917">
        <ele>54.8</ele>
        <time>2021-08-09T08:19:31Z</time>
      </trkpt>
      <trkpt lat="48.0637" lon="-2.96914">
        <ele>54.8</ele>
        <time>2021-08-09T08:19:32Z</time>
      </trkpt>
      <trkpt lat="48.06377" lon="-2.96912">
        <ele>54.8</ele>
        <time>2021-08-09T08:19:33Z</time>
      </trkpt>
      <trkpt lat="48.06384" lon="-2.9691">
        <ele>54.8</ele>
        <time>2021-08-09T08:19:34Z</time>
      </trkpt>
      <trkpt lat="48.06391" lon="-2.96908">
        <ele>54.8</ele>
        <time>2021-08-09T08:19:35Z</time>
      </trkpt>
      <trkpt lat="48.06398" lon="-2.96906">
        <ele>54.8</ele>
        <time>2021-08-09T08:19:36Z</time>
      </trkpt>
      <trkpt lat="48.06411" lon="-2.96901">
        <ele>54.8</ele>
        <time>2021-08-09T08:19:38Z</time>
      </trkpt>
      <trkpt lat="48.06418" lon="-2.96899">
        <ele>54.8</ele>
        <time>2021-08-09T08:19:39Z</time>
      </trkpt>
      <trkpt lat="48.06425" lon="-2.96896">
        <ele>54.8</ele>
        <time>2021-08-09T08:19:40Z</time>
      </trkpt>
      <trkpt lat="48.06432" lon="-2.96894">
        <ele>54.8</ele>
        <time>2021-08-09T08:19:41Z</time>
      </trkpt>
      <trkpt lat="48.06439" lon="-2.96892">
        <ele>54.8</ele>
        <time>2021-08-09T08:19:42Z</time>
      </trkpt>
      <trkpt lat="48.06446" lon="-2.96889">
        <ele>54.8</ele>
        <time>2021-08-09T08:19:43Z</time>
      </trkpt>
      <trkpt lat="48.06453" lon="-2.96887">
        <ele>54.8</ele>
        <time>2021-08-09T08:19:44Z</time>
      </trkpt>
      <trkpt lat="48.0646" lon="-2.96885">
        <ele>54.8</ele>
        <time>2021-08-09T08:19:45Z</time>
      </trkpt>
      <trkpt lat="48.06467" lon="-2.96883">
        <ele>54.8</ele>
        <time>2021-08-09T08:19:46Z</time>
      </trkpt>
      <trkpt lat="48.06473" lon="-2.96882">
        <ele>54.8</ele>
        <time>2021-08-09T08:19:47Z</time>
      </trkpt>
      <trkpt lat="48.06488" lon="-2.96877">
        <ele>54.8</ele>
        <time>2021-08-09T08:19:49Z</time>
      </trkpt>
      <trkpt lat="48.06494" lon="-2.96874">
        <ele>55.2</ele>
        <time>2021-08-09T08:19:50Z</time>
      </trkpt>
      <trkpt lat="48.06501" lon="-2.96872">
        <ele>55.4</ele>
        <time>2021-08-09T08:19:51Z</time>
      </trkpt>
      <trkpt lat="48.06507" lon="-2.9687">
        <ele>55.6</ele>
        <time>2021-08-09T08:19:52Z</time>
      </trkpt>
      <trkpt lat="48.06513" lon="-2.96868">
        <ele>55.8</ele>
        <time>2021-08-09T08:19:53Z</time>
      </trkpt>
      <trkpt lat="48.06518" lon="-2.96866">
        <ele>55.8</ele>
        <time>2021-08-09T08:19:54Z</time>
      </trkpt>
      <trkpt lat="48.06524" lon="-2.96864">
        <ele>55.8</ele>
        <time>2021-08-09T08:19:55Z</time>
      </trkpt>
      <trkpt lat="48.06529" lon="-2.96862">
        <ele>56</ele>
        <time>2021-08-09T08:19:56Z</time>
      </trkpt>
      <trkpt lat="48.06534" lon="-2.9686">
        <ele>56</ele>
        <time>2021-08-09T08:19:57Z</time>
      </trkpt>
      <trkpt lat="48.06539" lon="-2.96857">
        <ele>56.2</ele>
        <time>2021-08-09T08:19:58Z</time>
      </trkpt>
      <trkpt lat="48.06544" lon="-2.96855">
        <ele>56.2</ele>
        <time>2021-08-09T08:19:59Z</time>
      </trkpt>
      <trkpt lat="48.06548" lon="-2.96852">
        <ele>56.4</ele>
        <time>2021-08-09T08:20:00Z</time>
      </trkpt>
      <trkpt lat="48.06553" lon="-2.9685">
        <ele>56.8</ele>
        <time>2021-08-09T08:20:01Z</time>
      </trkpt>
      <trkpt lat="48.06557" lon="-2.96849">
        <ele>57.6</ele>
        <time>2021-08-09T08:20:02Z</time>
      </trkpt>
      <trkpt lat="48.06562" lon="-2.96848">
        <ele>57.8</ele>
        <time>2021-08-09T08:20:03Z</time>
      </trkpt>
      <trkpt lat="48.06567" lon="-2.96847">
        <ele>58</ele>
        <time>2021-08-09T08:20:04Z</time>
      </trkpt>
      <trkpt lat="48.06572" lon="-2.96846">
        <ele>58</ele>
        <time>2021-08-09T08:20:05Z</time>
      </trkpt>
      <trkpt lat="48.06578" lon="-2.96844">
        <ele>58</ele>
        <time>2021-08-09T08:20:06Z</time>
      </trkpt>
      <trkpt lat="48.06583" lon="-2.96842">
        <ele>58</ele>
        <time>2021-08-09T08:20:07Z</time>
      </trkpt>
      <trkpt lat="48.06589" lon="-2.9684">
        <ele>58</ele>
        <time>2021-08-09T08:20:08Z</time>
      </trkpt>
      <trkpt lat="48.06595" lon="-2.96838">
        <ele>58</ele>
        <time>2021-08-09T08:20:09Z</time>
      </trkpt>
      <trkpt lat="48.06607" lon="-2.96833">
        <ele>58</ele>
        <time>2021-08-09T08:20:11Z</time>
      </trkpt>
      <trkpt lat="48.06614" lon="-2.96831">
        <ele>58</ele>
        <time>2021-08-09T08:20:12Z</time>
      </trkpt>
      <trkpt lat="48.06621" lon="-2.96829">
        <ele>58</ele>
        <time>2021-08-09T08:20:13Z</time>
      </trkpt>
      <trkpt lat="48.06628" lon="-2.96827">
        <ele>57.8</ele>
        <time>2021-08-09T08:20:14Z</time>
      </trkpt>
      <trkpt lat="48.06635" lon="-2.96825">
        <ele>57.8</ele>
        <time>2021-08-09T08:20:15Z</time>
      </trkpt>
      <trkpt lat="48.06642" lon="-2.96825">
        <ele>57.4</ele>
        <time>2021-08-09T08:20:16Z</time>
      </trkpt>
      <trkpt lat="48.0665" lon="-2.96824">
        <ele>57</ele>
        <time>2021-08-09T08:20:17Z</time>
      </trkpt>
      <trkpt lat="48.06657" lon="-2.96825">
        <ele>56.8</ele>
        <time>2021-08-09T08:20:18Z</time>
      </trkpt>
      <trkpt lat="48.06664" lon="-2.96827">
        <ele>56.6</ele>
        <time>2021-08-09T08:20:19Z</time>
      </trkpt>
      <trkpt lat="48.06672" lon="-2.96829">
        <ele>56.4</ele>
        <time>2021-08-09T08:20:20Z</time>
      </trkpt>
      <trkpt lat="48.06686" lon="-2.96833">
        <ele>56</ele>
        <time>2021-08-09T08:20:22Z</time>
      </trkpt>
      <trkpt lat="48.06694" lon="-2.96835">
        <ele>55.8</ele>
        <time>2021-08-09T08:20:23Z</time>
      </trkpt>
      <trkpt lat="48.06701" lon="-2.96837">
        <ele>55.8</ele>
        <time>2021-08-09T08:20:24Z</time>
      </trkpt>
      <trkpt lat="48.06709" lon="-2.96839">
        <ele>55.6</ele>
        <time>2021-08-09T08:20:25Z</time>
      </trkpt>
      <trkpt lat="48.06716" lon="-2.9684">
        <ele>55.4</ele>
        <time>2021-08-09T08:20:26Z</time>
      </trkpt>
      <trkpt lat="48.06723" lon="-2.96841">
        <ele>55.2</ele>
        <time>2021-08-09T08:20:27Z</time>
      </trkpt>
      <trkpt lat="48.06731" lon="-2.96842">
        <ele>55.2</ele>
        <time>2021-08-09T08:20:28Z</time>
      </trkpt>
      <trkpt lat="48.06738" lon="-2.96845">
        <ele>55.2</ele>
        <time>2021-08-09T08:20:29Z</time>
      </trkpt>
      <trkpt lat="48.06745" lon="-2.96848">
        <ele>55.2</ele>
        <time>2021-08-09T08:20:30Z</time>
      </trkpt>
      <trkpt lat="48.06753" lon="-2.96848">
        <ele>55</ele>
        <time>2021-08-09T08:20:31Z</time>
      </trkpt>
      <trkpt lat="48.06767" lon="-2.96846">
        <ele>55</ele>
        <time>2021-08-09T08:20:33Z</time>
      </trkpt>
      <trkpt lat="48.06773" lon="-2.96844">
        <ele>55</ele>
        <time>2021-08-09T08:20:34Z</time>
      </trkpt>
      <trkpt lat="48.06779" lon="-2.96843">
        <ele>55</ele>
        <time>2021-08-09T08:20:35Z</time>
      </trkpt>
      <trkpt lat="48.06785" lon="-2.96841">
        <ele>55</ele>
        <time>2021-08-09T08:20:36Z</time>
      </trkpt>
      <trkpt lat="48.06791" lon="-2.96837">
        <ele>55.2</ele>
        <time>2021-08-09T08:20:37Z</time>
      </trkpt>
      <trkpt lat="48.06798" lon="-2.96834">
        <ele>55.2</ele>
        <time>2021-08-09T08:20:38Z</time>
      </trkpt>
      <trkpt lat="48.06804" lon="-2.96831">
        <ele>55.2</ele>
        <time>2021-08-09T08:20:39Z</time>
      </trkpt>
      <trkpt lat="48.0681" lon="-2.96828">
        <ele>55.4</ele>
        <time>2021-08-09T08:20:40Z</time>
      </trkpt>
      <trkpt lat="48.06816" lon="-2.96824">
        <ele>55.4</ele>
        <time>2021-08-09T08:20:41Z</time>
      </trkpt>
      <trkpt lat="48.06823" lon="-2.96821">
        <ele>55.6</ele>
        <time>2021-08-09T08:20:42Z</time>
      </trkpt>
      <trkpt lat="48.06829" lon="-2.96818">
        <ele>55.8</ele>
        <time>2021-08-09T08:20:43Z</time>
      </trkpt>
      <trkpt lat="48.06834" lon="-2.96815">
        <ele>55.8</ele>
        <time>2021-08-09T08:20:44Z</time>
      </trkpt>
      <trkpt lat="48.0684" lon="-2.96811">
        <ele>55.8</ele>
        <time>2021-08-09T08:20:45Z</time>
      </trkpt>
      <trkpt lat="48.06845" lon="-2.96806">
        <ele>55.8</ele>
        <time>2021-08-09T08:20:46Z</time>
      </trkpt>
      <trkpt lat="48.0685" lon="-2.96801">
        <ele>56</ele>
        <time>2021-08-09T08:20:47Z</time>
      </trkpt>
      <trkpt lat="48.06855" lon="-2.96795">
        <ele>56</ele>
        <time>2021-08-09T08:20:48Z</time>
      </trkpt>
      <trkpt lat="48.06859" lon="-2.96789">
        <ele>56</ele>
        <time>2021-08-09T08:20:49Z</time>
      </trkpt>
      <trkpt lat="48.06863" lon="-2.96784">
        <ele>56.2</ele>
        <time>2021-08-09T08:20:50Z</time>
      </trkpt>
      <trkpt lat="48.06866" lon="-2.96778">
        <ele>56.2</ele>
        <time>2021-08-09T08:20:51Z</time>
      </trkpt>
      <trkpt lat="48.0687" lon="-2.96772">
        <ele>56.4</ele>
        <time>2021-08-09T08:20:52Z</time>
      </trkpt>
      <trkpt lat="48.06873" lon="-2.96766">
        <ele>56.8</ele>
        <time>2021-08-09T08:20:53Z</time>
      </trkpt>
      <trkpt lat="48.0688" lon="-2.96755">
        <ele>57.8</ele>
        <time>2021-08-09T08:20:55Z</time>
      </trkpt>
      <trkpt lat="48.06884" lon="-2.96749">
        <ele>58.2</ele>
        <time>2021-08-09T08:20:56Z</time>
      </trkpt>
      <trkpt lat="48.06888" lon="-2.96742">
        <ele>58.4</ele>
        <time>2021-08-09T08:20:57Z</time>
      </trkpt>
      <trkpt lat="48.06892" lon="-2.96735">
        <ele>58.4</ele>
        <time>2021-08-09T08:20:58Z</time>
      </trkpt>
      <trkpt lat="48.06896" lon="-2.96728">
        <ele>58.6</ele>
        <time>2021-08-09T08:20:59Z</time>
      </trkpt>
      <trkpt lat="48.06901" lon="-2.9672">
        <ele>58.6</ele>
        <time>2021-08-09T08:21:00Z</time>
      </trkpt>
      <trkpt lat="48.06905" lon="-2.96711">
        <ele>58.6</ele>
        <time>2021-08-09T08:21:01Z</time>
      </trkpt>
      <trkpt lat="48.0691" lon="-2.96703">
        <ele>58.6</ele>
        <time>2021-08-09T08:21:02Z</time>
      </trkpt>
      <trkpt lat="48.06915" lon="-2.96695">
        <ele>58.6</ele>
        <time>2021-08-09T08:21:03Z</time>
      </trkpt>
      <trkpt lat="48.0692" lon="-2.96687">
        <ele>58.6</ele>
        <time>2021-08-09T08:21:04Z</time>
      </trkpt>
      <trkpt lat="48.0693" lon="-2.96673">
        <ele>58.2</ele>
        <time>2021-08-09T08:21:06Z</time>
      </trkpt>
      <trkpt lat="48.06937" lon="-2.96667">
        <ele>58</ele>
        <time>2021-08-09T08:21:07Z</time>
      </trkpt>
      <trkpt lat="48.06943" lon="-2.96662">
        <ele>57.6</ele>
        <time>2021-08-09T08:21:08Z</time>
      </trkpt>
      <trkpt lat="48.0695" lon="-2.96658">
        <ele>57.2</ele>
        <time>2021-08-09T08:21:09Z</time>
      </trkpt>
      <trkpt lat="48.06956" lon="-2.96653">
        <ele>56.6</ele>
        <time>2021-08-09T08:21:10Z</time>
      </trkpt>
      <trkpt lat="48.06962" lon="-2.96648">
        <ele>56.4</ele>
        <time>2021-08-09T08:21:11Z</time>
      </trkpt>
      <trkpt lat="48.06968" lon="-2.96644">
        <ele>56.2</ele>
        <time>2021-08-09T08:21:12Z</time>
      </trkpt>
      <trkpt lat="48.06974" lon="-2.96639">
        <ele>56.2</ele>
        <time>2021-08-09T08:21:13Z</time>
      </trkpt>
      <trkpt lat="48.0698" lon="-2.96635">
        <ele>56.2</ele>
        <time>2021-08-09T08:21:14Z</time>
      </trkpt>
      <trkpt lat="48.06986" lon="-2.96631">
        <ele>56.2</ele>
        <time>2021-08-09T08:21:15Z</time>
      </trkpt>
      <trkpt lat="48.06997" lon="-2.96624">
        <ele>56</ele>
        <time>2021-08-09T08:21:17Z</time>
      </trkpt>
      <trkpt lat="48.07002" lon="-2.9662">
        <ele>56</ele>
        <time>2021-08-09T08:21:18Z</time>
      </trkpt>
      <trkpt lat="48.07006" lon="-2.96617">
        <ele>56</ele>
        <time>2021-08-09T08:21:19Z</time>
      </trkpt>
      <trkpt lat="48.0701" lon="-2.96614">
        <ele>56</ele>
        <time>2021-08-09T08:21:20Z</time>
      </trkpt>
      <trkpt lat="48.07014" lon="-2.96611">
        <ele>56</ele>
        <time>2021-08-09T08:21:21Z</time>
      </trkpt>
      <trkpt lat="48.07019" lon="-2.96611">
        <ele>56.4</ele>
        <time>2021-08-09T08:21:22Z</time>
      </trkpt>
      <trkpt lat="48.07023" lon="-2.96612">
        <ele>56.8</ele>
        <time>2021-08-09T08:21:23Z</time>
      </trkpt>
      <trkpt lat="48.07026" lon="-2.96616">
        <ele>57</ele>
        <time>2021-08-09T08:21:24Z</time>
      </trkpt>
      <trkpt lat="48.07029" lon="-2.96621">
        <ele>57.4</ele>
        <time>2021-08-09T08:21:25Z</time>
      </trkpt>
      <trkpt lat="48.0703" lon="-2.96626">
        <ele>57.4</ele>
        <time>2021-08-09T08:21:26Z</time>
      </trkpt>
      <trkpt lat="48.07034" lon="-2.96635">
        <ele>57.8</ele>
        <time>2021-08-09T08:21:28Z</time>
      </trkpt>
      <trkpt lat="48.07037" lon="-2.96639">
        <ele>58.2</ele>
        <time>2021-08-09T08:21:29Z</time>
      </trkpt>
      <trkpt lat="48.07042" lon="-2.9664">
        <ele>58.4</ele>
        <time>2021-08-09T08:21:30Z</time>
      </trkpt>
      <trkpt lat="48.07046" lon="-2.96639">
        <ele>58.4</ele>
        <time>2021-08-09T08:21:31Z</time>
      </trkpt>
      <trkpt lat="48.07051" lon="-2.96636">
        <ele>58.4</ele>
        <time>2021-08-09T08:21:32Z</time>
      </trkpt>
      <trkpt lat="48.07055" lon="-2.96632">
        <ele>58.6</ele>
        <time>2021-08-09T08:21:33Z</time>
      </trkpt>
      <trkpt lat="48.07059" lon="-2.96629">
        <ele>58.6</ele>
        <time>2021-08-09T08:21:34Z</time>
      </trkpt>
      <trkpt lat="48.07063" lon="-2.96625">
        <ele>58.6</ele>
        <time>2021-08-09T08:21:35Z</time>
      </trkpt>
      <trkpt lat="48.07067" lon="-2.96622">
        <ele>58.6</ele>
        <time>2021-08-09T08:21:36Z</time>
      </trkpt>
      <trkpt lat="48.07072" lon="-2.96619">
        <ele>58.6</ele>
        <time>2021-08-09T08:21:37Z</time>
      </trkpt>
      <trkpt lat="48.07076" lon="-2.96616">
        <ele>58.6</ele>
        <time>2021-08-09T08:21:38Z</time>
      </trkpt>
      <trkpt lat="48.07082" lon="-2.96613">
        <ele>58.6</ele>
        <time>2021-08-09T08:21:39Z</time>
      </trkpt>
      <trkpt lat="48.07087" lon="-2.96609">
        <ele>58.6</ele>
        <time>2021-08-09T08:21:40Z</time>
      </trkpt>
      <trkpt lat="48.07092" lon="-2.96606">
        <ele>58.6</ele>
        <time>2021-08-09T08:21:41Z</time>
      </trkpt>
      <trkpt lat="48.07098" lon="-2.96603">
        <ele>58.6</ele>
        <time>2021-08-09T08:21:42Z</time>
      </trkpt>
      <trkpt lat="48.07103" lon="-2.96599">
        <ele>58.6</ele>
        <time>2021-08-09T08:21:43Z</time>
      </trkpt>
      <trkpt lat="48.07108" lon="-2.96596">
        <ele>58.4</ele>
        <time>2021-08-09T08:21:44Z</time>
      </trkpt>
      <trkpt lat="48.07113" lon="-2.96593">
        <ele>58.4</ele>
        <time>2021-08-09T08:21:45Z</time>
      </trkpt>
      <trkpt lat="48.07119" lon="-2.96591">
        <ele>58.4</ele>
        <time>2021-08-09T08:21:46Z</time>
      </trkpt>
      <trkpt lat="48.07124" lon="-2.96589">
        <ele>58.4</ele>
        <time>2021-08-09T08:21:47Z</time>
      </trkpt>
      <trkpt lat="48.07129" lon="-2.96587">
        <ele>58.4</ele>
        <time>2021-08-09T08:21:48Z</time>
      </trkpt>
      <trkpt lat="48.07141" lon="-2.96586">
        <ele>58</ele>
        <time>2021-08-09T08:21:50Z</time>
      </trkpt>
      <trkpt lat="48.07146" lon="-2.96587">
        <ele>58</ele>
        <time>2021-08-09T08:21:51Z</time>
      </trkpt>
      <trkpt lat="48.07151" lon="-2.96589">
        <ele>57.8</ele>
        <time>2021-08-09T08:21:52Z</time>
      </trkpt>
      <trkpt lat="48.07156" lon="-2.96591">
        <ele>57.8</ele>
        <time>2021-08-09T08:21:53Z</time>
      </trkpt>
      <trkpt lat="48.0716" lon="-2.96594">
        <ele>57.8</ele>
        <time>2021-08-09T08:21:54Z</time>
      </trkpt>
      <trkpt lat="48.07165" lon="-2.96597">
        <ele>57.6</ele>
        <time>2021-08-09T08:21:55Z</time>
      </trkpt>
      <trkpt lat="48.07169" lon="-2.966">
        <ele>57.6</ele>
        <time>2021-08-09T08:21:56Z</time>
      </trkpt>
      <trkpt lat="48.07173" lon="-2.96604">
        <ele>57.6</ele>
        <time>2021-08-09T08:21:57Z</time>
      </trkpt>
      <trkpt lat="48.07177" lon="-2.96608">
        <ele>57.6</ele>
        <time>2021-08-09T08:21:58Z</time>
      </trkpt>
      <trkpt lat="48.07181" lon="-2.96614">
        <ele>57.6</ele>
        <time>2021-08-09T08:21:59Z</time>
      </trkpt>
      <trkpt lat="48.07185" lon="-2.96618">
        <ele>57.4</ele>
        <time>2021-08-09T08:22:00Z</time>
      </trkpt>
      <trkpt lat="48.07188" lon="-2.96622">
        <ele>57.4</ele>
        <time>2021-08-09T08:22:01Z</time>
      </trkpt>
      <trkpt lat="48.0719" lon="-2.96626">
        <ele>57.4</ele>
        <time>2021-08-09T08:22:02Z</time>
      </trkpt>
      <trkpt lat="48.07192" lon="-2.96631">
        <ele>57.6</ele>
        <time>2021-08-09T08:22:03Z</time>
      </trkpt>
      <trkpt lat="48.07195" lon="-2.96636">
        <ele>57.6</ele>
        <time>2021-08-09T08:22:04Z</time>
      </trkpt>
      <trkpt lat="48.07198" lon="-2.96641">
        <ele>57.6</ele>
        <time>2021-08-09T08:22:05Z</time>
      </trkpt>
      <trkpt lat="48.072" lon="-2.96646">
        <ele>57.6</ele>
        <time>2021-08-09T08:22:06Z</time>
      </trkpt>
      <trkpt lat="48.07202" lon="-2.96651">
        <ele>57.6</ele>
        <time>2021-08-09T08:22:07Z</time>
      </trkpt>
      <trkpt lat="48.07204" lon="-2.96655">
        <ele>57.6</ele>
        <time>2021-08-09T08:22:08Z</time>
      </trkpt>
      <trkpt lat="48.07205" lon="-2.96658">
        <ele>57.8</ele>
        <time>2021-08-09T08:22:09Z</time>
      </trkpt>
      <trkpt lat="48.07207" lon="-2.96661">
        <ele>58.2</ele>
        <time>2021-08-09T08:22:10Z</time>
      </trkpt>
      <trkpt lat="48.07211" lon="-2.96668">
        <ele>58.6</ele>
        <time>2021-08-09T08:22:12Z</time>
      </trkpt>
      <trkpt lat="48.07214" lon="-2.9667">
        <ele>58.8</ele>
        <time>2021-08-09T08:22:13Z</time>
      </trkpt>
      <trkpt lat="48.07217" lon="-2.96671">
        <ele>59</ele>
        <time>2021-08-09T08:22:14Z</time>
      </trkpt>
      <trkpt lat="48.0722" lon="-2.96671">
        <ele>59.2</ele>
        <time>2021-08-09T08:22:15Z</time>
      </trkpt>
      <trkpt lat="48.07222" lon="-2.96671">
        <ele>59.4</ele>
        <time>2021-08-09T08:22:16Z</time>
      </trkpt>
      <trkpt lat="48.07223" lon="-2.96671">
        <ele>59.6</ele>
        <time>2021-08-09T08:22:17Z</time>
      </trkpt>
      <trkpt lat="48.07225" lon="-2.96671">
        <ele>60</ele>
        <time>2021-08-09T08:22:18Z</time>
      </trkpt>
      <trkpt lat="48.07228" lon="-2.9667">
        <ele>60.2</ele>
        <time>2021-08-09T08:22:19Z</time>
      </trkpt>
      <trkpt lat="48.07231" lon="-2.96669">
        <ele>60.4</ele>
        <time>2021-08-09T08:22:20Z</time>
      </trkpt>
      <trkpt lat="48.07233" lon="-2.96667">
        <ele>60.6</ele>
        <time>2021-08-09T08:22:21Z</time>
      </trkpt>
      <trkpt lat="48.07234" lon="-2.96658">
        <ele>60.8</ele>
        <time>2021-08-09T08:22:23Z</time>
      </trkpt>
      <trkpt lat="48.07233" lon="-2.96652">
        <ele>60.8</ele>
        <time>2021-08-09T08:22:24Z</time>
      </trkpt>
      <trkpt lat="48.07232" lon="-2.96646">
        <ele>60.8</ele>
        <time>2021-08-09T08:22:25Z</time>
      </trkpt>
      <trkpt lat="48.07231" lon="-2.9664">
        <ele>60.8</ele>
        <time>2021-08-09T08:22:26Z</time>
      </trkpt>
      <trkpt lat="48.0723" lon="-2.96633">
        <ele>60.8</ele>
        <time>2021-08-09T08:22:27Z</time>
      </trkpt>
      <trkpt lat="48.07229" lon="-2.96626">
        <ele>60.8</ele>
        <time>2021-08-09T08:22:28Z</time>
      </trkpt>
      <trkpt lat="48.07227" lon="-2.96618">
        <ele>60.6</ele>
        <time>2021-08-09T08:22:29Z</time>
      </trkpt>
      <trkpt lat="48.07226" lon="-2.96611">
        <ele>60.4</ele>
        <time>2021-08-09T08:22:30Z</time>
      </trkpt>
      <trkpt lat="48.07225" lon="-2.96603">
        <ele>60.2</ele>
        <time>2021-08-09T08:22:31Z</time>
      </trkpt>
      <trkpt lat="48.07225" lon="-2.96596">
        <ele>60</ele>
        <time>2021-08-09T08:22:32Z</time>
      </trkpt>
      <trkpt lat="48.07225" lon="-2.9658">
        <ele>59.4</ele>
        <time>2021-08-09T08:22:34Z</time>
      </trkpt>
      <trkpt lat="48.07225" lon="-2.96572">
        <ele>59.2</ele>
        <time>2021-08-09T08:22:35Z</time>
      </trkpt>
      <trkpt lat="48.07225" lon="-2.96564">
        <ele>59</ele>
        <time>2021-08-09T08:22:36Z</time>
      </trkpt>
      <trkpt lat="48.07227" lon="-2.96557">
        <ele>59</ele>
        <time>2021-08-09T08:22:37Z</time>
      </trkpt>
      <trkpt lat="48.07228" lon="-2.9655">
        <ele>59</ele>
        <time>2021-08-09T08:22:38Z</time>
      </trkpt>
      <trkpt lat="48.0723" lon="-2.96543">
        <ele>59</ele>
        <time>2021-08-09T08:22:39Z</time>
      </trkpt>
      <trkpt lat="48.07232" lon="-2.96537">
        <ele>59</ele>
        <time>2021-08-09T08:22:40Z</time>
      </trkpt>
      <trkpt lat="48.07233" lon="-2.96531">
        <ele>59</ele>
        <time>2021-08-09T08:22:41Z</time>
      </trkpt>
      <trkpt lat="48.07235" lon="-2.96525">
        <ele>59</ele>
        <time>2021-08-09T08:22:42Z</time>
      </trkpt>
      <trkpt lat="48.07238" lon="-2.96519">
        <ele>59</ele>
        <time>2021-08-09T08:22:43Z</time>
      </trkpt>
      <trkpt lat="48.0724" lon="-2.96513">
        <ele>59</ele>
        <time>2021-08-09T08:22:44Z</time>
      </trkpt>
      <trkpt lat="48.07244" lon="-2.96508">
        <ele>59</ele>
        <time>2021-08-09T08:22:45Z</time>
      </trkpt>
      <trkpt lat="48.07249" lon="-2.96503">
        <ele>59</ele>
        <time>2021-08-09T08:22:46Z</time>
      </trkpt>
      <trkpt lat="48.07253" lon="-2.965">
        <ele>59</ele>
        <time>2021-08-09T08:22:47Z</time>
      </trkpt>
      <trkpt lat="48.07257" lon="-2.96496">
        <ele>59</ele>
        <time>2021-08-09T08:22:48Z</time>
      </trkpt>
      <trkpt lat="48.07262" lon="-2.96493">
        <ele>59.2</ele>
        <time>2021-08-09T08:22:49Z</time>
      </trkpt>
      <trkpt lat="48.07267" lon="-2.96489">
        <ele>59.2</ele>
        <time>2021-08-09T08:22:50Z</time>
      </trkpt>
      <trkpt lat="48.07272" lon="-2.96484">
        <ele>59.2</ele>
        <time>2021-08-09T08:22:51Z</time>
      </trkpt>
      <trkpt lat="48.07277" lon="-2.9648">
        <ele>59.2</ele>
        <time>2021-08-09T08:22:52Z</time>
      </trkpt>
      <trkpt lat="48.07282" lon="-2.96476">
        <ele>59.2</ele>
        <time>2021-08-09T08:22:53Z</time>
      </trkpt>
      <trkpt lat="48.07288" lon="-2.96472">
        <ele>59.4</ele>
        <time>2021-08-09T08:22:54Z</time>
      </trkpt>
      <trkpt lat="48.07298" lon="-2.96464">
        <ele>59.4</ele>
        <time>2021-08-09T08:22:56Z</time>
      </trkpt>
      <trkpt lat="48.07303" lon="-2.9646">
        <ele>59</ele>
        <time>2021-08-09T08:22:57Z</time>
      </trkpt>
      <trkpt lat="48.07309" lon="-2.96456">
        <ele>59</ele>
        <time>2021-08-09T08:22:58Z</time>
      </trkpt>
      <trkpt lat="48.07314" lon="-2.96452">
        <ele>59</ele>
        <time>2021-08-09T08:22:59Z</time>
      </trkpt>
      <trkpt lat="48.07319" lon="-2.96448">
        <ele>58.8</ele>
        <time>2021-08-09T08:23:00Z</time>
      </trkpt>
      <trkpt lat="48.07323" lon="-2.96444">
        <ele>58.6</ele>
        <time>2021-08-09T08:23:01Z</time>
      </trkpt>
      <trkpt lat="48.07327" lon="-2.96441">
        <ele>58.6</ele>
        <time>2021-08-09T08:23:02Z</time>
      </trkpt>
      <trkpt lat="48.07331" lon="-2.96439">
        <ele>58.6</ele>
        <time>2021-08-09T08:23:03Z</time>
      </trkpt>
      <trkpt lat="48.07333" lon="-2.96437">
        <ele>58.6</ele>
        <time>2021-08-09T08:23:04Z</time>
      </trkpt>
      <trkpt lat="48.07335" lon="-2.96437">
        <ele>58.6</ele>
        <time>2021-08-09T08:23:05Z</time>
      </trkpt>
      <trkpt lat="48.07337" lon="-2.9644">
        <ele>58.6</ele>
        <time>2021-08-09T08:23:06Z</time>
      </trkpt>
      <trkpt lat="48.07338" lon="-2.96444">
        <ele>58.6</ele>
        <time>2021-08-09T08:23:07Z</time>
      </trkpt>
      <trkpt lat="48.07339" lon="-2.96448">
        <ele>58.6</ele>
        <time>2021-08-09T08:23:08Z</time>
      </trkpt>
      <trkpt lat="48.07341" lon="-2.96452">
        <ele>58.6</ele>
        <time>2021-08-09T08:23:09Z</time>
      </trkpt>
      <trkpt lat="48.07342" lon="-2.96458">
        <ele>58.6</ele>
        <time>2021-08-09T08:23:10Z</time>
      </trkpt>
      <trkpt lat="48.07343" lon="-2.96463">
        <ele>58.8</ele>
        <time>2021-08-09T08:23:11Z</time>
      </trkpt>
      <trkpt lat="48.07343" lon="-2.96467">
        <ele>58.8</ele>
        <time>2021-08-09T08:23:12Z</time>
      </trkpt>
      <trkpt lat="48.07343" lon="-2.96472">
        <ele>58.8</ele>
        <time>2021-08-09T08:23:13Z</time>
      </trkpt>
      <trkpt lat="48.07344" lon="-2.96476">
        <ele>58.8</ele>
        <time>2021-08-09T08:23:14Z</time>
      </trkpt>
      <trkpt lat="48.07345" lon="-2.9648">
        <ele>58.8</ele>
        <time>2021-08-09T08:23:15Z</time>
      </trkpt>
      <trkpt lat="48.07347" lon="-2.96482">
        <ele>58.8</ele>
        <time>2021-08-09T08:23:16Z</time>
      </trkpt>
      <trkpt lat="48.07349" lon="-2.96487">
        <ele>58.8</ele>
        <time>2021-08-09T08:23:18Z</time>
      </trkpt>
      <trkpt lat="48.0735" lon="-2.96489">
        <ele>58.8</ele>
        <time>2021-08-09T08:23:19Z</time>
      </trkpt>
      <trkpt lat="48.07352" lon="-2.9649">
        <ele>58.6</ele>
        <time>2021-08-09T08:23:20Z</time>
      </trkpt>
      <trkpt lat="48.07354" lon="-2.9649">
        <ele>58.4</ele>
        <time>2021-08-09T08:23:21Z</time>
      </trkpt>
      <trkpt lat="48.07355" lon="-2.9649">
        <ele>58.4</ele>
        <time>2021-08-09T08:23:22Z</time>
      </trkpt>
      <trkpt lat="48.07357" lon="-2.96489">
        <ele>58.4</ele>
        <time>2021-08-09T08:23:23Z</time>
      </trkpt>
      <trkpt lat="48.07358" lon="-2.96489">
        <ele>58.4</ele>
        <time>2021-08-09T08:23:24Z</time>
      </trkpt>
      <trkpt lat="48.0736" lon="-2.96489">
        <ele>58.4</ele>
        <time>2021-08-09T08:23:25Z</time>
      </trkpt>
      <trkpt lat="48.07362" lon="-2.96489">
        <ele>58.4</ele>
        <time>2021-08-09T08:23:26Z</time>
      </trkpt>
      <trkpt lat="48.07364" lon="-2.96488">
        <ele>58.4</ele>
        <time>2021-08-09T08:23:27Z</time>
      </trkpt>
      <trkpt lat="48.07368" lon="-2.96488">
        <ele>58.4</ele>
        <time>2021-08-09T08:23:29Z</time>
      </trkpt>
      <trkpt lat="48.0737" lon="-2.96488">
        <ele>58.4</ele>
        <time>2021-08-09T08:23:30Z</time>
      </trkpt>
      <trkpt lat="48.07372" lon="-2.96489">
        <ele>58.4</ele>
        <time>2021-08-09T08:23:31Z</time>
      </trkpt>
      <trkpt lat="48.07374" lon="-2.96489">
        <ele>58.4</ele>
        <time>2021-08-09T08:23:32Z</time>
      </trkpt>
      <trkpt lat="48.07375" lon="-2.9649">
        <ele>58.4</ele>
        <time>2021-08-09T08:23:33Z</time>
      </trkpt>
      <trkpt lat="48.07376" lon="-2.9649">
        <ele>58.4</ele>
        <time>2021-08-09T08:23:34Z</time>
      </trkpt>
      <trkpt lat="48.07377" lon="-2.9649">
        <ele>58.4</ele>
        <time>2021-08-09T08:23:35Z</time>
      </trkpt>
      <trkpt lat="48.07378" lon="-2.96491">
        <ele>58.6</ele>
        <time>2021-08-09T08:23:36Z</time>
      </trkpt>
      <trkpt lat="48.07379" lon="-2.96491">
        <ele>58.6</ele>
        <time>2021-08-09T08:23:37Z</time>
      </trkpt>
      <trkpt lat="48.0738" lon="-2.96493">
        <ele>58.8</ele>
        <time>2021-08-09T08:23:46Z</time>
      </trkpt>
      <trkpt lat="48.07381" lon="-2.96493">
        <ele>58.8</ele>
        <time>2021-08-09T08:23:47Z</time>
      </trkpt>
      <trkpt lat="48.07381" lon="-2.96494">
        <ele>58.8</ele>
        <time>2021-08-09T08:23:48Z</time>
      </trkpt>
      <trkpt lat="48.07383" lon="-2.96501">
        <ele>56.6</ele>
        <time>2021-08-09T09:19:05Z</time>
      </trkpt>
      <trkpt lat="48.07382" lon="-2.96501">
        <ele>56.6</ele>
        <time>2021-08-09T09:19:06Z</time>
      </trkpt>
      <trkpt lat="48.07381" lon="-2.965">
        <ele>56.6</ele>
        <time>2021-08-09T09:19:07Z</time>
      </trkpt>
      <trkpt lat="48.07379" lon="-2.965">
        <ele>56.6</ele>
        <time>2021-08-09T09:19:08Z</time>
      </trkpt>
      <trkpt lat="48.07375" lon="-2.965">
        <ele>56.4</ele>
        <time>2021-08-09T09:19:10Z</time>
      </trkpt>
      <trkpt lat="48.07373" lon="-2.965">
        <ele>56.4</ele>
        <time>2021-08-09T09:19:11Z</time>
      </trkpt>
      <trkpt lat="48.07371" lon="-2.965">
        <ele>56.2</ele>
        <time>2021-08-09T09:19:12Z</time>
      </trkpt>
      <trkpt lat="48.07369" lon="-2.96501">
        <ele>56.2</ele>
        <time>2021-08-09T09:19:13Z</time>
      </trkpt>
      <trkpt lat="48.07367" lon="-2.96501">
        <ele>56.2</ele>
        <time>2021-08-09T09:19:14Z</time>
      </trkpt>
      <trkpt lat="48.07366" lon="-2.96502">
        <ele>56.2</ele>
        <time>2021-08-09T09:19:15Z</time>
      </trkpt>
      <trkpt lat="48.07364" lon="-2.96503">
        <ele>56.2</ele>
        <time>2021-08-09T09:19:16Z</time>
      </trkpt>
      <trkpt lat="48.07362" lon="-2.96503">
        <ele>56.2</ele>
        <time>2021-08-09T09:19:17Z</time>
      </trkpt>
      <trkpt lat="48.0736" lon="-2.96504">
        <ele>56</ele>
        <time>2021-08-09T09:19:18Z</time>
      </trkpt>
      <trkpt lat="48.07359" lon="-2.96503">
        <ele>56</ele>
        <time>2021-08-09T09:19:20Z</time>
      </trkpt>
      <trkpt lat="48.07359" lon="-2.96502">
        <ele>56</ele>
        <time>2021-08-09T09:19:21Z</time>
      </trkpt>
      <trkpt lat="48.07358" lon="-2.96501">
        <ele>56.2</ele>
        <time>2021-08-09T09:19:22Z</time>
      </trkpt>
      <trkpt lat="48.07357" lon="-2.96499">
        <ele>56.2</ele>
        <time>2021-08-09T09:19:23Z</time>
      </trkpt>
      <trkpt lat="48.07356" lon="-2.96497">
        <ele>56.2</ele>
        <time>2021-08-09T09:19:24Z</time>
      </trkpt>
      <trkpt lat="48.07355" lon="-2.96495">
        <ele>56.2</ele>
        <time>2021-08-09T09:19:25Z</time>
      </trkpt>
      <trkpt lat="48.07355" lon="-2.96492">
        <ele>56.2</ele>
        <time>2021-08-09T09:19:26Z</time>
      </trkpt>
      <trkpt lat="48.07355" lon="-2.96489">
        <ele>56.2</ele>
        <time>2021-08-09T09:19:27Z</time>
      </trkpt>
      <trkpt lat="48.07355" lon="-2.96488">
        <ele>56.4</ele>
        <time>2021-08-09T09:19:28Z</time>
      </trkpt>
      <trkpt lat="48.07355" lon="-2.96487">
        <ele>56.4</ele>
        <time>2021-08-09T09:19:29Z</time>
      </trkpt>
      <trkpt lat="48.07355" lon="-2.96487">
        <ele>56.6</ele>
        <time>2021-08-09T09:19:31Z</time>
      </trkpt>
      <trkpt lat="48.07355" lon="-2.96487">
        <ele>56.8</ele>
        <time>2021-08-09T09:19:32Z</time>
      </trkpt>
      <trkpt lat="48.07355" lon="-2.96487">
        <ele>56.8</ele>
        <time>2021-08-09T09:19:33Z</time>
      </trkpt>
      <trkpt lat="48.07354" lon="-2.96476">
        <ele>57</ele>
        <time>2021-08-09T09:21:34Z</time>
      </trkpt>
      <trkpt lat="48.07353" lon="-2.96475">
        <ele>57</ele>
        <time>2021-08-09T09:21:35Z</time>
      </trkpt>
      <trkpt lat="48.07352" lon="-2.96473">
        <ele>57</ele>
        <time>2021-08-09T09:21:36Z</time>
      </trkpt>
      <trkpt lat="48.07352" lon="-2.96471">
        <ele>57</ele>
        <time>2021-08-09T09:21:37Z</time>
      </trkpt>
      <trkpt lat="48.07351" lon="-2.96466">
        <ele>57</ele>
        <time>2021-08-09T09:21:39Z</time>
      </trkpt>
      <trkpt lat="48.07351" lon="-2.96463">
        <ele>57</ele>
        <time>2021-08-09T09:21:40Z</time>
      </trkpt>
      <trkpt lat="48.0735" lon="-2.9646">
        <ele>57</ele>
        <time>2021-08-09T09:21:41Z</time>
      </trkpt>
      <trkpt lat="48.0735" lon="-2.96458">
        <ele>57</ele>
        <time>2021-08-09T09:21:42Z</time>
      </trkpt>
      <trkpt lat="48.07349" lon="-2.96455">
        <ele>57</ele>
        <time>2021-08-09T09:21:43Z</time>
      </trkpt>
      <trkpt lat="48.07349" lon="-2.96452">
        <ele>57</ele>
        <time>2021-08-09T09:21:44Z</time>
      </trkpt>
      <trkpt lat="48.07348" lon="-2.9645">
        <ele>57</ele>
        <time>2021-08-09T09:21:45Z</time>
      </trkpt>
      <trkpt lat="48.07347" lon="-2.96448">
        <ele>57</ele>
        <time>2021-08-09T09:21:46Z</time>
      </trkpt>
      <trkpt lat="48.07345" lon="-2.96447">
        <ele>57</ele>
        <time>2021-08-09T09:21:48Z</time>
      </trkpt>
      <trkpt lat="48.07343" lon="-2.96448">
        <ele>57</ele>
        <time>2021-08-09T09:21:49Z</time>
      </trkpt>
      <trkpt lat="48.07342" lon="-2.96449">
        <ele>57</ele>
        <time>2021-08-09T09:21:50Z</time>
      </trkpt>
      <trkpt lat="48.0734" lon="-2.96449">
        <ele>56.8</ele>
        <time>2021-08-09T09:21:51Z</time>
      </trkpt>
      <trkpt lat="48.07338" lon="-2.9645">
        <ele>56.8</ele>
        <time>2021-08-09T09:21:52Z</time>
      </trkpt>
      <trkpt lat="48.07336" lon="-2.9645">
        <ele>56.8</ele>
        <time>2021-08-09T09:21:53Z</time>
      </trkpt>
      <trkpt lat="48.07333" lon="-2.96451">
        <ele>56.8</ele>
        <time>2021-08-09T09:21:54Z</time>
      </trkpt>
      <trkpt lat="48.0733" lon="-2.96452">
        <ele>56.8</ele>
        <time>2021-08-09T09:21:55Z</time>
      </trkpt>
      <trkpt lat="48.07327" lon="-2.96456">
        <ele>56.8</ele>
        <time>2021-08-09T09:21:56Z</time>
      </trkpt>
      <trkpt lat="48.07325" lon="-2.96458">
        <ele>56.8</ele>
        <time>2021-08-09T09:21:57Z</time>
      </trkpt>
      <trkpt lat="48.07321" lon="-2.96464">
        <ele>56.8</ele>
        <time>2021-08-09T09:21:59Z</time>
      </trkpt>
      <trkpt lat="48.07318" lon="-2.96466">
        <ele>56.8</ele>
        <time>2021-08-09T09:22:00Z</time>
      </trkpt>
      <trkpt lat="48.07315" lon="-2.96467">
        <ele>56.8</ele>
        <time>2021-08-09T09:22:01Z</time>
      </trkpt>
      <trkpt lat="48.07313" lon="-2.96468">
        <ele>56.8</ele>
        <time>2021-08-09T09:22:02Z</time>
      </trkpt>
      <trkpt lat="48.0731" lon="-2.96468">
        <ele>56.8</ele>
        <time>2021-08-09T09:22:03Z</time>
      </trkpt>
      <trkpt lat="48.07307" lon="-2.96469">
        <ele>56.6</ele>
        <time>2021-08-09T09:22:04Z</time>
      </trkpt>
      <trkpt lat="48.07305" lon="-2.9647">
        <ele>56.6</ele>
        <time>2021-08-09T09:22:05Z</time>
      </trkpt>
      <trkpt lat="48.07302" lon="-2.96472">
        <ele>56.6</ele>
        <time>2021-08-09T09:22:06Z</time>
      </trkpt>
      <trkpt lat="48.07299" lon="-2.96474">
        <ele>56.6</ele>
        <time>2021-08-09T09:22:07Z</time>
      </trkpt>
      <trkpt lat="48.07297" lon="-2.96475">
        <ele>56.6</ele>
        <time>2021-08-09T09:22:08Z</time>
      </trkpt>
      <trkpt lat="48.07291" lon="-2.96479">
        <ele>56.6</ele>
        <time>2021-08-09T09:22:10Z</time>
      </trkpt>
      <trkpt lat="48.07288" lon="-2.96481">
        <ele>56.6</ele>
        <time>2021-08-09T09:22:11Z</time>
      </trkpt>
      <trkpt lat="48.07285" lon="-2.96482">
        <ele>56.6</ele>
        <time>2021-08-09T09:22:12Z</time>
      </trkpt>
      <trkpt lat="48.07282" lon="-2.96484">
        <ele>56.8</ele>
        <time>2021-08-09T09:22:13Z</time>
      </trkpt>
      <trkpt lat="48.07279" lon="-2.96484">
        <ele>56.8</ele>
        <time>2021-08-09T09:22:14Z</time>
      </trkpt>
      <trkpt lat="48.07277" lon="-2.96486">
        <ele>56.8</ele>
        <time>2021-08-09T09:22:15Z</time>
      </trkpt>
      <trkpt lat="48.07274" lon="-2.96489">
        <ele>56.8</ele>
        <time>2021-08-09T09:22:16Z</time>
      </trkpt>
      <trkpt lat="48.07272" lon="-2.96491">
        <ele>56.8</ele>
        <time>2021-08-09T09:22:17Z</time>
      </trkpt>
      <trkpt lat="48.07269" lon="-2.96493">
        <ele>56.6</ele>
        <time>2021-08-09T09:22:18Z</time>
      </trkpt>
      <trkpt lat="48.07266" lon="-2.96494">
        <ele>56.6</ele>
        <time>2021-08-09T09:22:19Z</time>
      </trkpt>
      <trkpt lat="48.07262" lon="-2.96498">
        <ele>56.8</ele>
        <time>2021-08-09T09:22:21Z</time>
      </trkpt>
      <trkpt lat="48.07259" lon="-2.96499">
        <ele>56.8</ele>
        <time>2021-08-09T09:22:22Z</time>
      </trkpt>
      <trkpt lat="48.07257" lon="-2.96502">
        <ele>57</ele>
        <time>2021-08-09T09:22:23Z</time>
      </trkpt>
      <trkpt lat="48.07254" lon="-2.96504">
        <ele>57</ele>
        <time>2021-08-09T09:22:24Z</time>
      </trkpt>
      <trkpt lat="48.07251" lon="-2.96507">
        <ele>57</ele>
        <time>2021-08-09T09:22:25Z</time>
      </trkpt>
      <trkpt lat="48.07249" lon="-2.96509">
        <ele>57</ele>
        <time>2021-08-09T09:22:26Z</time>
      </trkpt>
      <trkpt lat="48.07246" lon="-2.96511">
        <ele>57</ele>
        <time>2021-08-09T09:22:27Z</time>
      </trkpt>
      <trkpt lat="48.07244" lon="-2.96515">
        <ele>57</ele>
        <time>2021-08-09T09:22:28Z</time>
      </trkpt>
      <trkpt lat="48.07242" lon="-2.96518">
        <ele>57.2</ele>
        <time>2021-08-09T09:22:29Z</time>
      </trkpt>
      <trkpt lat="48.0724" lon="-2.96522">
        <ele>57</ele>
        <time>2021-08-09T09:22:30Z</time>
      </trkpt>
      <trkpt lat="48.07238" lon="-2.96526">
        <ele>57</ele>
        <time>2021-08-09T09:22:31Z</time>
      </trkpt>
      <trkpt lat="48.07237" lon="-2.9653">
        <ele>57.2</ele>
        <time>2021-08-09T09:22:32Z</time>
      </trkpt>
      <trkpt lat="48.07236" lon="-2.96535">
        <ele>57.4</ele>
        <time>2021-08-09T09:22:33Z</time>
      </trkpt>
      <trkpt lat="48.07234" lon="-2.96539">
        <ele>57.6</ele>
        <time>2021-08-09T09:22:34Z</time>
      </trkpt>
      <trkpt lat="48.07232" lon="-2.96544">
        <ele>58</ele>
        <time>2021-08-09T09:22:35Z</time>
      </trkpt>
      <trkpt lat="48.07231" lon="-2.96549">
        <ele>58.2</ele>
        <time>2021-08-09T09:22:36Z</time>
      </trkpt>
      <trkpt lat="48.0723" lon="-2.96554">
        <ele>58.2</ele>
        <time>2021-08-09T09:22:37Z</time>
      </trkpt>
      <trkpt lat="48.07229" lon="-2.9656">
        <ele>58.2</ele>
        <time>2021-08-09T09:22:38Z</time>
      </trkpt>
      <trkpt lat="48.07229" lon="-2.96565">
        <ele>58.4</ele>
        <time>2021-08-09T09:22:39Z</time>
      </trkpt>
      <trkpt lat="48.07228" lon="-2.9657">
        <ele>58.4</ele>
        <time>2021-08-09T09:22:40Z</time>
      </trkpt>
      <trkpt lat="48.07228" lon="-2.96575">
        <ele>58.4</ele>
        <time>2021-08-09T09:22:41Z</time>
      </trkpt>
      <trkpt lat="48.07228" lon="-2.96584">
        <ele>58.4</ele>
        <time>2021-08-09T09:22:43Z</time>
      </trkpt>
      <trkpt lat="48.07228" lon="-2.96588">
        <ele>58.4</ele>
        <time>2021-08-09T09:22:44Z</time>
      </trkpt>
      <trkpt lat="48.07229" lon="-2.96592">
        <ele>58.4</ele>
        <time>2021-08-09T09:22:45Z</time>
      </trkpt>
      <trkpt lat="48.07229" lon="-2.96596">
        <ele>58.2</ele>
        <time>2021-08-09T09:22:46Z</time>
      </trkpt>
      <trkpt lat="48.0723" lon="-2.966">
        <ele>58.2</ele>
        <time>2021-08-09T09:22:47Z</time>
      </trkpt>
      <trkpt lat="48.0723" lon="-2.96603">
        <ele>58.2</ele>
        <time>2021-08-09T09:22:48Z</time>
      </trkpt>
      <trkpt lat="48.0723" lon="-2.96607">
        <ele>58.2</ele>
        <time>2021-08-09T09:22:49Z</time>
      </trkpt>
      <trkpt lat="48.0723" lon="-2.96611">
        <ele>58.2</ele>
        <time>2021-08-09T09:22:50Z</time>
      </trkpt>
      <trkpt lat="48.0723" lon="-2.96615">
        <ele>58.2</ele>
        <time>2021-08-09T09:22:51Z</time>
      </trkpt>
      <trkpt lat="48.07231" lon="-2.96618">
        <ele>58.2</ele>
        <time>2021-08-09T09:22:52Z</time>
      </trkpt>
      <trkpt lat="48.07232" lon="-2.96627">
        <ele>58.2</ele>
        <time>2021-08-09T09:22:54Z</time>
      </trkpt>
      <trkpt lat="48.07234" lon="-2.96632">
        <ele>58.2</ele>
        <time>2021-08-09T09:22:55Z</time>
      </trkpt>
      <trkpt lat="48.07235" lon="-2.96636">
        <ele>58.2</ele>
        <time>2021-08-09T09:22:56Z</time>
      </trkpt>
      <trkpt lat="48.07236" lon="-2.96641">
        <ele>58.2</ele>
        <time>2021-08-09T09:22:57Z</time>
      </trkpt>
      <trkpt lat="48.07237" lon="-2.96645">
        <ele>58.2</ele>
        <time>2021-08-09T09:22:58Z</time>
      </trkpt>
      <trkpt lat="48.07239" lon="-2.9665">
        <ele>58.2</ele>
        <time>2021-08-09T09:22:59Z</time>
      </trkpt>
      <trkpt lat="48.0724" lon="-2.96654">
        <ele>58.4</ele>
        <time>2021-08-09T09:23:00Z</time>
      </trkpt>
      <trkpt lat="48.07241" lon="-2.96658">
        <ele>58.4</ele>
        <time>2021-08-09T09:23:01Z</time>
      </trkpt>
      <trkpt lat="48.07243" lon="-2.96662">
        <ele>58.4</ele>
        <time>2021-08-09T09:23:02Z</time>
      </trkpt>
      <trkpt lat="48.07244" lon="-2.96665">
        <ele>58.4</ele>
        <time>2021-08-09T09:23:03Z</time>
      </trkpt>
      <trkpt lat="48.07248" lon="-2.96671">
        <ele>58.4</ele>
        <time>2021-08-09T09:23:05Z</time>
      </trkpt>
      <trkpt lat="48.07249" lon="-2.96674">
        <ele>58.6</ele>
        <time>2021-08-09T09:23:06Z</time>
      </trkpt>
      <trkpt lat="48.07251" lon="-2.96677">
        <ele>58.6</ele>
        <time>2021-08-09T09:23:07Z</time>
      </trkpt>
      <trkpt lat="48.07252" lon="-2.9668">
        <ele>58.6</ele>
        <time>2021-08-09T09:23:08Z</time>
      </trkpt>
      <trkpt lat="48.07254" lon="-2.96684">
        <ele>58.6</ele>
        <time>2021-08-09T09:23:09Z</time>
      </trkpt>
      <trkpt lat="48.07256" lon="-2.96688">
        <ele>58.6</ele>
        <time>2021-08-09T09:23:10Z</time>
      </trkpt>
      <trkpt lat="48.07259" lon="-2.96693">
        <ele>58.6</ele>
        <time>2021-08-09T09:23:11Z</time>
      </trkpt>
      <trkpt lat="48.07263" lon="-2.96698">
        <ele>58.6</ele>
        <time>2021-08-09T09:23:12Z</time>
      </trkpt>
      <trkpt lat="48.07266" lon="-2.96704">
        <ele>58.6</ele>
        <time>2021-08-09T09:23:13Z</time>
      </trkpt>
      <trkpt lat="48.07269" lon="-2.9671">
        <ele>58.4</ele>
        <time>2021-08-09T09:23:14Z</time>
      </trkpt>
      <trkpt lat="48.07276" lon="-2.96722">
        <ele>58.2</ele>
        <time>2021-08-09T09:23:16Z</time>
      </trkpt>
      <trkpt lat="48.0728" lon="-2.96728">
        <ele>58.2</ele>
        <time>2021-08-09T09:23:17Z</time>
      </trkpt>
      <trkpt lat="48.07284" lon="-2.96734">
        <ele>58</ele>
        <time>2021-08-09T09:23:18Z</time>
      </trkpt>
      <trkpt lat="48.07288" lon="-2.96739">
        <ele>58</ele>
        <time>2021-08-09T09:23:19Z</time>
      </trkpt>
      <trkpt lat="48.07292" lon="-2.96744">
        <ele>57.8</ele>
        <time>2021-08-09T09:23:20Z</time>
      </trkpt>
      <trkpt lat="48.07296" lon="-2.96749">
        <ele>57.8</ele>
        <time>2021-08-09T09:23:21Z</time>
      </trkpt>
      <trkpt lat="48.073" lon="-2.96752">
        <ele>57.6</ele>
        <time>2021-08-09T09:23:22Z</time>
      </trkpt>
      <trkpt lat="48.07303" lon="-2.96756">
        <ele>57.4</ele>
        <time>2021-08-09T09:23:23Z</time>
      </trkpt>
      <trkpt lat="48.07307" lon="-2.9676">
        <ele>57</ele>
        <time>2021-08-09T09:23:24Z</time>
      </trkpt>
      <trkpt lat="48.07309" lon="-2.96763">
        <ele>56.8</ele>
        <time>2021-08-09T09:23:25Z</time>
      </trkpt>
      <trkpt lat="48.07312" lon="-2.96767">
        <ele>56.6</ele>
        <time>2021-08-09T09:23:26Z</time>
      </trkpt>
      <trkpt lat="48.07316" lon="-2.96772">
        <ele>56.2</ele>
        <time>2021-08-09T09:23:27Z</time>
      </trkpt>
      <trkpt lat="48.0732" lon="-2.96776">
        <ele>56.2</ele>
        <time>2021-08-09T09:23:28Z</time>
      </trkpt>
      <trkpt lat="48.07323" lon="-2.9678">
        <ele>56</ele>
        <time>2021-08-09T09:23:29Z</time>
      </trkpt>
      <trkpt lat="48.07327" lon="-2.96784">
        <ele>56</ele>
        <time>2021-08-09T09:23:30Z</time>
      </trkpt>
      <trkpt lat="48.07331" lon="-2.96786">
        <ele>56</ele>
        <time>2021-08-09T09:23:31Z</time>
      </trkpt>
      <trkpt lat="48.07335" lon="-2.96789">
        <ele>56</ele>
        <time>2021-08-09T09:23:32Z</time>
      </trkpt>
      <trkpt lat="48.07339" lon="-2.96793">
        <ele>56</ele>
        <time>2021-08-09T09:23:33Z</time>
      </trkpt>
      <trkpt lat="48.07344" lon="-2.96795">
        <ele>56</ele>
        <time>2021-08-09T09:23:34Z</time>
      </trkpt>
      <trkpt lat="48.07348" lon="-2.96797">
        <ele>56</ele>
        <time>2021-08-09T09:23:35Z</time>
      </trkpt>
      <trkpt lat="48.07352" lon="-2.968">
        <ele>56.2</ele>
        <time>2021-08-09T09:23:36Z</time>
      </trkpt>
      <trkpt lat="48.07357" lon="-2.96803">
        <ele>56.4</ele>
        <time>2021-08-09T09:23:37Z</time>
      </trkpt>
      <trkpt lat="48.07361" lon="-2.96806">
        <ele>56.4</ele>
        <time>2021-08-09T09:23:38Z</time>
      </trkpt>
      <trkpt lat="48.07365" lon="-2.96808">
        <ele>56.4</ele>
        <time>2021-08-09T09:23:39Z</time>
      </trkpt>
      <trkpt lat="48.07369" lon="-2.9681">
        <ele>56.4</ele>
        <time>2021-08-09T09:23:40Z</time>
      </trkpt>
      <trkpt lat="48.07373" lon="-2.96812">
        <ele>56.6</ele>
        <time>2021-08-09T09:23:41Z</time>
      </trkpt>
      <trkpt lat="48.07377" lon="-2.96815">
        <ele>56.6</ele>
        <time>2021-08-09T09:23:42Z</time>
      </trkpt>
      <trkpt lat="48.07381" lon="-2.96817">
        <ele>56.6</ele>
        <time>2021-08-09T09:23:43Z</time>
      </trkpt>
      <trkpt lat="48.07385" lon="-2.96819">
        <ele>56.8</ele>
        <time>2021-08-09T09:23:44Z</time>
      </trkpt>
      <trkpt lat="48.07389" lon="-2.96821">
        <ele>56.8</ele>
        <time>2021-08-09T09:23:45Z</time>
      </trkpt>
      <trkpt lat="48.07393" lon="-2.96823">
        <ele>56.8</ele>
        <time>2021-08-09T09:23:46Z</time>
      </trkpt>
      <trkpt lat="48.07396" lon="-2.96826">
        <ele>56.8</ele>
        <time>2021-08-09T09:23:47Z</time>
      </trkpt>
      <trkpt lat="48.07403" lon="-2.96831">
        <ele>57</ele>
        <time>2021-08-09T09:23:49Z</time>
      </trkpt>
      <trkpt lat="48.07406" lon="-2.96834">
        <ele>57.2</ele>
        <time>2021-08-09T09:23:50Z</time>
      </trkpt>
      <trkpt lat="48.07409" lon="-2.96837">
        <ele>57</ele>
        <time>2021-08-09T09:23:51Z</time>
      </trkpt>
      <trkpt lat="48.07413" lon="-2.96839">
        <ele>57</ele>
        <time>2021-08-09T09:23:52Z</time>
      </trkpt>
      <trkpt lat="48.07417" lon="-2.96842">
        <ele>57</ele>
        <time>2021-08-09T09:23:53Z</time>
      </trkpt>
      <trkpt lat="48.0742" lon="-2.96845">
        <ele>57</ele>
        <time>2021-08-09T09:23:54Z</time>
      </trkpt>
      <trkpt lat="48.07424" lon="-2.96848">
        <ele>57</ele>
        <time>2021-08-09T09:23:55Z</time>
      </trkpt>
      <trkpt lat="48.07427" lon="-2.96851">
        <ele>57.2</ele>
        <time>2021-08-09T09:23:56Z</time>
      </trkpt>
      <trkpt lat="48.07431" lon="-2.96854">
        <ele>57.2</ele>
        <time>2021-08-09T09:23:57Z</time>
      </trkpt>
      <trkpt lat="48.07435" lon="-2.96857">
        <ele>57.2</ele>
        <time>2021-08-09T09:23:58Z</time>
      </trkpt>
      <trkpt lat="48.07443" lon="-2.96863">
        <ele>57.2</ele>
        <time>2021-08-09T09:24:00Z</time>
      </trkpt>
      <trkpt lat="48.07447" lon="-2.96866">
        <ele>57.2</ele>
        <time>2021-08-09T09:24:01Z</time>
      </trkpt>
      <trkpt lat="48.0745" lon="-2.96869">
        <ele>57.2</ele>
        <time>2021-08-09T09:24:02Z</time>
      </trkpt>
      <trkpt lat="48.07453" lon="-2.96872">
        <ele>57.2</ele>
        <time>2021-08-09T09:24:03Z</time>
      </trkpt>
      <trkpt lat="48.07456" lon="-2.96874">
        <ele>57.2</ele>
        <time>2021-08-09T09:24:04Z</time>
      </trkpt>
      <trkpt lat="48.07459" lon="-2.96877">
        <ele>57.2</ele>
        <time>2021-08-09T09:24:05Z</time>
      </trkpt>
      <trkpt lat="48.07462" lon="-2.9688">
        <ele>57.2</ele>
        <time>2021-08-09T09:24:06Z</time>
      </trkpt>
      <trkpt lat="48.07465" lon="-2.96882">
        <ele>57.2</ele>
        <time>2021-08-09T09:24:07Z</time>
      </trkpt>
      <trkpt lat="48.07468" lon="-2.96884">
        <ele>57.2</ele>
        <time>2021-08-09T09:24:08Z</time>
      </trkpt>
      <trkpt lat="48.07472" lon="-2.96887">
        <ele>57.2</ele>
        <time>2021-08-09T09:24:09Z</time>
      </trkpt>
      <trkpt lat="48.07479" lon="-2.96894">
        <ele>57.2</ele>
        <time>2021-08-09T09:24:11Z</time>
      </trkpt>
      <trkpt lat="48.07483" lon="-2.96897">
        <ele>57.2</ele>
        <time>2021-08-09T09:24:12Z</time>
      </trkpt>
      <trkpt lat="48.07486" lon="-2.969">
        <ele>57.2</ele>
        <time>2021-08-09T09:24:13Z</time>
      </trkpt>
      <trkpt lat="48.0749" lon="-2.96903">
        <ele>57.2</ele>
        <time>2021-08-09T09:24:14Z</time>
      </trkpt>
      <trkpt lat="48.07493" lon="-2.96906">
        <ele>57.2</ele>
        <time>2021-08-09T09:24:15Z</time>
      </trkpt>
      <trkpt lat="48.07497" lon="-2.9691">
        <ele>57.2</ele>
        <time>2021-08-09T09:24:16Z</time>
      </trkpt>
      <trkpt lat="48.075" lon="-2.96913">
        <ele>57.2</ele>
        <time>2021-08-09T09:24:17Z</time>
      </trkpt>
      <trkpt lat="48.07503" lon="-2.96916">
        <ele>57.2</ele>
        <time>2021-08-09T09:24:18Z</time>
      </trkpt>
      <trkpt lat="48.07506" lon="-2.96918">
        <ele>57.2</ele>
        <time>2021-08-09T09:24:19Z</time>
      </trkpt>
      <trkpt lat="48.07509" lon="-2.96921">
        <ele>57.2</ele>
        <time>2021-08-09T09:24:20Z</time>
      </trkpt>
      <trkpt lat="48.07516" lon="-2.96927">
        <ele>57.2</ele>
        <time>2021-08-09T09:24:22Z</time>
      </trkpt>
      <trkpt lat="48.07518" lon="-2.9693">
        <ele>57.2</ele>
        <time>2021-08-09T09:24:23Z</time>
      </trkpt>
      <trkpt lat="48.07521" lon="-2.96933">
        <ele>57.2</ele>
        <time>2021-08-09T09:24:24Z</time>
      </trkpt>
      <trkpt lat="48.07523" lon="-2.96935">
        <ele>57.2</ele>
        <time>2021-08-09T09:24:25Z</time>
      </trkpt>
      <trkpt lat="48.07526" lon="-2.96937">
        <ele>57.2</ele>
        <time>2021-08-09T09:24:26Z</time>
      </trkpt>
      <trkpt lat="48.07528" lon="-2.9694">
        <ele>57.2</ele>
        <time>2021-08-09T09:24:27Z</time>
      </trkpt>
      <trkpt lat="48.07531" lon="-2.96942">
        <ele>57.2</ele>
        <time>2021-08-09T09:24:28Z</time>
      </trkpt>
      <trkpt lat="48.07533" lon="-2.96945">
        <ele>57.2</ele>
        <time>2021-08-09T09:24:29Z</time>
      </trkpt>
      <trkpt lat="48.07536" lon="-2.96947">
        <ele>57.2</ele>
        <time>2021-08-09T09:24:30Z</time>
      </trkpt>
      <trkpt lat="48.07538" lon="-2.9695">
        <ele>57.2</ele>
        <time>2021-08-09T09:24:31Z</time>
      </trkpt>
      <trkpt lat="48.07544" lon="-2.96956">
        <ele>57.2</ele>
        <time>2021-08-09T09:24:33Z</time>
      </trkpt>
      <trkpt lat="48.07547" lon="-2.96959">
        <ele>57.2</ele>
        <time>2021-08-09T09:24:34Z</time>
      </trkpt>
      <trkpt lat="48.0755" lon="-2.96962">
        <ele>57.2</ele>
        <time>2021-08-09T09:24:35Z</time>
      </trkpt>
      <trkpt lat="48.07553" lon="-2.96966">
        <ele>57.2</ele>
        <time>2021-08-09T09:24:36Z</time>
      </trkpt>
      <trkpt lat="48.07557" lon="-2.9697">
        <ele>57.2</ele>
        <time>2021-08-09T09:24:37Z</time>
      </trkpt>
      <trkpt lat="48.0756" lon="-2.96975">
        <ele>57.2</ele>
        <time>2021-08-09T09:24:38Z</time>
      </trkpt>
      <trkpt lat="48.07563" lon="-2.9698">
        <ele>57.2</ele>
        <time>2021-08-09T09:24:39Z</time>
      </trkpt>
      <trkpt lat="48.07567" lon="-2.96986">
        <ele>57.2</ele>
        <time>2021-08-09T09:24:40Z</time>
      </trkpt>
      <trkpt lat="48.0757" lon="-2.96992">
        <ele>57</ele>
        <time>2021-08-09T09:24:41Z</time>
      </trkpt>
      <trkpt lat="48.07572" lon="-2.96998">
        <ele>57</ele>
        <time>2021-08-09T09:24:42Z</time>
      </trkpt>
      <trkpt lat="48.07578" lon="-2.97009">
        <ele>57.2</ele>
        <time>2021-08-09T09:24:44Z</time>
      </trkpt>
      <trkpt lat="48.0758" lon="-2.97014">
        <ele>57</ele>
        <time>2021-08-09T09:24:45Z</time>
      </trkpt>
      <trkpt lat="48.07583" lon="-2.97021">
        <ele>56.8</ele>
        <time>2021-08-09T09:24:46Z</time>
      </trkpt>
      <trkpt lat="48.07585" lon="-2.97027">
        <ele>56.8</ele>
        <time>2021-08-09T09:24:47Z</time>
      </trkpt>
      <trkpt lat="48.07588" lon="-2.97033">
        <ele>56.8</ele>
        <time>2021-08-09T09:24:48Z</time>
      </trkpt>
      <trkpt lat="48.0759" lon="-2.9704">
        <ele>56.6</ele>
        <time>2021-08-09T09:24:49Z</time>
      </trkpt>
      <trkpt lat="48.07593" lon="-2.97046">
        <ele>56.6</ele>
        <time>2021-08-09T09:24:50Z</time>
      </trkpt>
      <trkpt lat="48.07595" lon="-2.97051">
        <ele>56.6</ele>
        <time>2021-08-09T09:24:51Z</time>
      </trkpt>
      <trkpt lat="48.07597" lon="-2.97057">
        <ele>56.6</ele>
        <time>2021-08-09T09:24:52Z</time>
      </trkpt>
      <trkpt lat="48.07599" lon="-2.97062">
        <ele>56.6</ele>
        <time>2021-08-09T09:24:53Z</time>
      </trkpt>
      <trkpt lat="48.07603" lon="-2.97072">
        <ele>56.6</ele>
        <time>2021-08-09T09:24:55Z</time>
      </trkpt>
      <trkpt lat="48.07604" lon="-2.97076">
        <ele>56.6</ele>
        <time>2021-08-09T09:24:56Z</time>
      </trkpt>
      <trkpt lat="48.07606" lon="-2.97081">
        <ele>56.6</ele>
        <time>2021-08-09T09:24:57Z</time>
      </trkpt>
      <trkpt lat="48.07607" lon="-2.97085">
        <ele>56.6</ele>
        <time>2021-08-09T09:24:58Z</time>
      </trkpt>
      <trkpt lat="48.07609" lon="-2.97089">
        <ele>56.8</ele>
        <time>2021-08-09T09:24:59Z</time>
      </trkpt>
      <trkpt lat="48.07611" lon="-2.97094">
        <ele>56.8</ele>
        <time>2021-08-09T09:25:00Z</time>
      </trkpt>
      <trkpt lat="48.07614" lon="-2.97099">
        <ele>57</ele>
        <time>2021-08-09T09:25:01Z</time>
      </trkpt>
      <trkpt lat="48.07616" lon="-2.97103">
        <ele>57</ele>
        <time>2021-08-09T09:25:02Z</time>
      </trkpt>
      <trkpt lat="48.07617" lon="-2.97108">
        <ele>57</ele>
        <time>2021-08-09T09:25:03Z</time>
      </trkpt>
      <trkpt lat="48.07619" lon="-2.97113">
        <ele>57</ele>
        <time>2021-08-09T09:25:04Z</time>
      </trkpt>
      <trkpt lat="48.07623" lon="-2.97123">
        <ele>57</ele>
        <time>2021-08-09T09:25:06Z</time>
      </trkpt>
      <trkpt lat="48.07625" lon="-2.97129">
        <ele>57</ele>
        <time>2021-08-09T09:25:07Z</time>
      </trkpt>
      <trkpt lat="48.07627" lon="-2.97135">
        <ele>57</ele>
        <time>2021-08-09T09:25:08Z</time>
      </trkpt>
      <trkpt lat="48.07629" lon="-2.97141">
        <ele>57</ele>
        <time>2021-08-09T09:25:09Z</time>
      </trkpt>
      <trkpt lat="48.0763" lon="-2.97148">
        <ele>57</ele>
        <time>2021-08-09T09:25:10Z</time>
      </trkpt>
      <trkpt lat="48.07631" lon="-2.97153">
        <ele>57</ele>
        <time>2021-08-09T09:25:11Z</time>
      </trkpt>
      <trkpt lat="48.07632" lon="-2.97158">
        <ele>57</ele>
        <time>2021-08-09T09:25:12Z</time>
      </trkpt>
      <trkpt lat="48.07634" lon="-2.97163">
        <ele>57</ele>
        <time>2021-08-09T09:25:13Z</time>
      </trkpt>
      <trkpt lat="48.07635" lon="-2.9717">
        <ele>57</ele>
        <time>2021-08-09T09:25:14Z</time>
      </trkpt>
      <trkpt lat="48.07637" lon="-2.97176">
        <ele>57</ele>
        <time>2021-08-09T09:25:15Z</time>
      </trkpt>
      <trkpt lat="48.07641" lon="-2.97188">
        <ele>56.8</ele>
        <time>2021-08-09T09:25:17Z</time>
      </trkpt>
      <trkpt lat="48.07642" lon="-2.97193">
        <ele>56.8</ele>
        <time>2021-08-09T09:25:18Z</time>
      </trkpt>
      <trkpt lat="48.07643" lon="-2.97199">
        <ele>56.8</ele>
        <time>2021-08-09T09:25:19Z</time>
      </trkpt>
      <trkpt lat="48.07645" lon="-2.97205">
        <ele>56.8</ele>
        <time>2021-08-09T09:25:20Z</time>
      </trkpt>
      <trkpt lat="48.07646" lon="-2.97211">
        <ele>56.8</ele>
        <time>2021-08-09T09:25:21Z</time>
      </trkpt>
      <trkpt lat="48.07647" lon="-2.97216">
        <ele>56.8</ele>
        <time>2021-08-09T09:25:22Z</time>
      </trkpt>
      <trkpt lat="48.07648" lon="-2.97222">
        <ele>56.8</ele>
        <time>2021-08-09T09:25:23Z</time>
      </trkpt>
      <trkpt lat="48.07649" lon="-2.97227">
        <ele>56.8</ele>
        <time>2021-08-09T09:25:24Z</time>
      </trkpt>
      <trkpt lat="48.0765" lon="-2.97232">
        <ele>56.8</ele>
        <time>2021-08-09T09:25:25Z</time>
      </trkpt>
      <trkpt lat="48.07651" lon="-2.97238">
        <ele>56.8</ele>
        <time>2021-08-09T09:25:26Z</time>
      </trkpt>
      <trkpt lat="48.07652" lon="-2.97243">
        <ele>56.8</ele>
        <time>2021-08-09T09:25:27Z</time>
      </trkpt>
      <trkpt lat="48.07654" lon="-2.97248">
        <ele>56.8</ele>
        <time>2021-08-09T09:25:28Z</time>
      </trkpt>
      <trkpt lat="48.07655" lon="-2.97255">
        <ele>56.8</ele>
        <time>2021-08-09T09:25:29Z</time>
      </trkpt>
      <trkpt lat="48.07655" lon="-2.97261">
        <ele>56.8</ele>
        <time>2021-08-09T09:25:30Z</time>
      </trkpt>
      <trkpt lat="48.07656" lon="-2.97267">
        <ele>56.8</ele>
        <time>2021-08-09T09:25:31Z</time>
      </trkpt>
      <trkpt lat="48.07657" lon="-2.97273">
        <ele>56.8</ele>
        <time>2021-08-09T09:25:32Z</time>
      </trkpt>
      <trkpt lat="48.07657" lon="-2.97279">
        <ele>56.8</ele>
        <time>2021-08-09T09:25:33Z</time>
      </trkpt>
      <trkpt lat="48.07658" lon="-2.97284">
        <ele>56.8</ele>
        <time>2021-08-09T09:25:34Z</time>
      </trkpt>
      <trkpt lat="48.07659" lon="-2.97289">
        <ele>56.8</ele>
        <time>2021-08-09T09:25:35Z</time>
      </trkpt>
      <trkpt lat="48.0766" lon="-2.97294">
        <ele>56.8</ele>
        <time>2021-08-09T09:25:36Z</time>
      </trkpt>
      <trkpt lat="48.0766" lon="-2.973">
        <ele>56.8</ele>
        <time>2021-08-09T09:25:37Z</time>
      </trkpt>
      <trkpt lat="48.07661" lon="-2.97313">
        <ele>56.8</ele>
        <time>2021-08-09T09:25:39Z</time>
      </trkpt>
      <trkpt lat="48.07661" lon="-2.9732">
        <ele>56.8</ele>
        <time>2021-08-09T09:25:40Z</time>
      </trkpt>
      <trkpt lat="48.07661" lon="-2.97326">
        <ele>56.8</ele>
        <time>2021-08-09T09:25:41Z</time>
      </trkpt>
      <trkpt lat="48.07661" lon="-2.97332">
        <ele>56.8</ele>
        <time>2021-08-09T09:25:42Z</time>
      </trkpt>
      <trkpt lat="48.07661" lon="-2.97338">
        <ele>56.8</ele>
        <time>2021-08-09T09:25:43Z</time>
      </trkpt>
      <trkpt lat="48.07661" lon="-2.97344">
        <ele>56.8</ele>
        <time>2021-08-09T09:25:44Z</time>
      </trkpt>
      <trkpt lat="48.07661" lon="-2.9735">
        <ele>56.8</ele>
        <time>2021-08-09T09:25:45Z</time>
      </trkpt>
      <trkpt lat="48.07661" lon="-2.97356">
        <ele>56.8</ele>
        <time>2021-08-09T09:25:46Z</time>
      </trkpt>
      <trkpt lat="48.07661" lon="-2.97361">
        <ele>56.8</ele>
        <time>2021-08-09T09:25:47Z</time>
      </trkpt>
      <trkpt lat="48.07662" lon="-2.97366">
        <ele>56.8</ele>
        <time>2021-08-09T09:25:48Z</time>
      </trkpt>
      <trkpt lat="48.07662" lon="-2.97376">
        <ele>56.8</ele>
        <time>2021-08-09T09:25:50Z</time>
      </trkpt>
      <trkpt lat="48.07662" lon="-2.97381">
        <ele>56.8</ele>
        <time>2021-08-09T09:25:51Z</time>
      </trkpt>
      <trkpt lat="48.07662" lon="-2.97386">
        <ele>56.8</ele>
        <time>2021-08-09T09:25:52Z</time>
      </trkpt>
      <trkpt lat="48.07662" lon="-2.97392">
        <ele>56.8</ele>
        <time>2021-08-09T09:25:53Z</time>
      </trkpt>
      <trkpt lat="48.07662" lon="-2.97398">
        <ele>56.8</ele>
        <time>2021-08-09T09:25:54Z</time>
      </trkpt>
      <trkpt lat="48.07661" lon="-2.97404">
        <ele>56.8</ele>
        <time>2021-08-09T09:25:55Z</time>
      </trkpt>
      <trkpt lat="48.07661" lon="-2.9741">
        <ele>56.8</ele>
        <time>2021-08-09T09:25:56Z</time>
      </trkpt>
      <trkpt lat="48.0766" lon="-2.97416">
        <ele>56.6</ele>
        <time>2021-08-09T09:25:57Z</time>
      </trkpt>
      <trkpt lat="48.0766" lon="-2.97422">
        <ele>56.6</ele>
        <time>2021-08-09T09:25:58Z</time>
      </trkpt>
      <trkpt lat="48.07659" lon="-2.97429">
        <ele>56.4</ele>
        <time>2021-08-09T09:25:59Z</time>
      </trkpt>
      <trkpt lat="48.07658" lon="-2.97435">
        <ele>56.4</ele>
        <time>2021-08-09T09:26:00Z</time>
      </trkpt>
      <trkpt lat="48.07657" lon="-2.97441">
        <ele>56.4</ele>
        <time>2021-08-09T09:26:01Z</time>
      </trkpt>
      <trkpt lat="48.07656" lon="-2.97447">
        <ele>56.4</ele>
        <time>2021-08-09T09:26:02Z</time>
      </trkpt>
      <trkpt lat="48.07655" lon="-2.97452">
        <ele>56.4</ele>
        <time>2021-08-09T09:26:03Z</time>
      </trkpt>
      <trkpt lat="48.07653" lon="-2.97458">
        <ele>56.2</ele>
        <time>2021-08-09T09:26:04Z</time>
      </trkpt>
      <trkpt lat="48.07652" lon="-2.97464">
        <ele>56.2</ele>
        <time>2021-08-09T09:26:05Z</time>
      </trkpt>
      <trkpt lat="48.0765" lon="-2.9747">
        <ele>56.2</ele>
        <time>2021-08-09T09:26:06Z</time>
      </trkpt>
      <trkpt lat="48.07649" lon="-2.97475">
        <ele>56.2</ele>
        <time>2021-08-09T09:26:07Z</time>
      </trkpt>
      <trkpt lat="48.07647" lon="-2.97481">
        <ele>56.2</ele>
        <time>2021-08-09T09:26:08Z</time>
      </trkpt>
      <trkpt lat="48.07645" lon="-2.97487">
        <ele>56</ele>
        <time>2021-08-09T09:26:09Z</time>
      </trkpt>
      <trkpt lat="48.07643" lon="-2.97492">
        <ele>56</ele>
        <time>2021-08-09T09:26:10Z</time>
      </trkpt>
      <trkpt lat="48.07641" lon="-2.97498">
        <ele>56</ele>
        <time>2021-08-09T09:26:11Z</time>
      </trkpt>
      <trkpt lat="48.07639" lon="-2.97505">
        <ele>56</ele>
        <time>2021-08-09T09:26:12Z</time>
      </trkpt>
      <trkpt lat="48.07636" lon="-2.97511">
        <ele>56</ele>
        <time>2021-08-09T09:26:13Z</time>
      </trkpt>
      <trkpt lat="48.07633" lon="-2.97518">
        <ele>56</ele>
        <time>2021-08-09T09:26:14Z</time>
      </trkpt>
      <trkpt lat="48.0763" lon="-2.97525">
        <ele>56</ele>
        <time>2021-08-09T09:26:15Z</time>
      </trkpt>
      <trkpt lat="48.07628" lon="-2.97532">
        <ele>56</ele>
        <time>2021-08-09T09:26:16Z</time>
      </trkpt>
      <trkpt lat="48.07625" lon="-2.97539">
        <ele>56</ele>
        <time>2021-08-09T09:26:17Z</time>
      </trkpt>
      <trkpt lat="48.07623" lon="-2.97546">
        <ele>56</ele>
        <time>2021-08-09T09:26:18Z</time>
      </trkpt>
      <trkpt lat="48.0762" lon="-2.97552">
        <ele>56</ele>
        <time>2021-08-09T09:26:19Z</time>
      </trkpt>
      <trkpt lat="48.07618" lon="-2.97559">
        <ele>56</ele>
        <time>2021-08-09T09:26:20Z</time>
      </trkpt>
      <trkpt lat="48.07615" lon="-2.97565">
        <ele>56</ele>
        <time>2021-08-09T09:26:21Z</time>
      </trkpt>
      <trkpt lat="48.07611" lon="-2.97577">
        <ele>56</ele>
        <time>2021-08-09T09:26:23Z</time>
      </trkpt>
      <trkpt lat="48.07609" lon="-2.97582">
        <ele>55.8</ele>
        <time>2021-08-09T09:26:24Z</time>
      </trkpt>
      <trkpt lat="48.07607" lon="-2.97587">
        <ele>55.8</ele>
        <time>2021-08-09T09:26:25Z</time>
      </trkpt>
      <trkpt lat="48.07606" lon="-2.97592">
        <ele>55.8</ele>
        <time>2021-08-09T09:26:26Z</time>
      </trkpt>
      <trkpt lat="48.07604" lon="-2.97598">
        <ele>55.8</ele>
        <time>2021-08-09T09:26:27Z</time>
      </trkpt>
      <trkpt lat="48.07603" lon="-2.97604">
        <ele>55.8</ele>
        <time>2021-08-09T09:26:28Z</time>
      </trkpt>
      <trkpt lat="48.07601" lon="-2.9761">
        <ele>55.8</ele>
        <time>2021-08-09T09:26:29Z</time>
      </trkpt>
      <trkpt lat="48.076" lon="-2.97616">
        <ele>55.8</ele>
        <time>2021-08-09T09:26:30Z</time>
      </trkpt>
      <trkpt lat="48.07598" lon="-2.97621">
        <ele>55.8</ele>
        <time>2021-08-09T09:26:31Z</time>
      </trkpt>
      <trkpt lat="48.07597" lon="-2.97627">
        <ele>55.8</ele>
        <time>2021-08-09T09:26:32Z</time>
      </trkpt>
      <trkpt lat="48.07596" lon="-2.97632">
        <ele>55.8</ele>
        <time>2021-08-09T09:26:33Z</time>
      </trkpt>
      <trkpt lat="48.07595" lon="-2.97637">
        <ele>56</ele>
        <time>2021-08-09T09:26:34Z</time>
      </trkpt>
      <trkpt lat="48.07594" lon="-2.97643">
        <ele>56</ele>
        <time>2021-08-09T09:26:35Z</time>
      </trkpt>
      <trkpt lat="48.07593" lon="-2.97648">
        <ele>56</ele>
        <time>2021-08-09T09:26:36Z</time>
      </trkpt>
      <trkpt lat="48.07592" lon="-2.97654">
        <ele>56</ele>
        <time>2021-08-09T09:26:37Z</time>
      </trkpt>
      <trkpt lat="48.07591" lon="-2.9766">
        <ele>56</ele>
        <time>2021-08-09T09:26:38Z</time>
      </trkpt>
      <trkpt lat="48.0759" lon="-2.97666">
        <ele>56</ele>
        <time>2021-08-09T09:26:39Z</time>
      </trkpt>
      <trkpt lat="48.07589" lon="-2.97671">
        <ele>56</ele>
        <time>2021-08-09T09:26:40Z</time>
      </trkpt>
      <trkpt lat="48.07588" lon="-2.97675">
        <ele>56</ele>
        <time>2021-08-09T09:26:41Z</time>
      </trkpt>
      <trkpt lat="48.07587" lon="-2.97681">
        <ele>56</ele>
        <time>2021-08-09T09:26:42Z</time>
      </trkpt>
      <trkpt lat="48.07587" lon="-2.97686">
        <ele>56</ele>
        <time>2021-08-09T09:26:43Z</time>
      </trkpt>
      <trkpt lat="48.07585" lon="-2.97698">
        <ele>56</ele>
        <time>2021-08-09T09:26:45Z</time>
      </trkpt>
      <trkpt lat="48.07584" lon="-2.97704">
        <ele>56</ele>
        <time>2021-08-09T09:26:46Z</time>
      </trkpt>
      <trkpt lat="48.07583" lon="-2.9771">
        <ele>56</ele>
        <time>2021-08-09T09:26:47Z</time>
      </trkpt>
      <trkpt lat="48.07583" lon="-2.97716">
        <ele>55.8</ele>
        <time>2021-08-09T09:26:48Z</time>
      </trkpt>
      <trkpt lat="48.07582" lon="-2.97721">
        <ele>55.8</ele>
        <time>2021-08-09T09:26:49Z</time>
      </trkpt>
      <trkpt lat="48.07581" lon="-2.97726">
        <ele>55.8</ele>
        <time>2021-08-09T09:26:50Z</time>
      </trkpt>
      <trkpt lat="48.0758" lon="-2.97732">
        <ele>55.8</ele>
        <time>2021-08-09T09:26:51Z</time>
      </trkpt>
      <trkpt lat="48.07579" lon="-2.97738">
        <ele>55.8</ele>
        <time>2021-08-09T09:26:52Z</time>
      </trkpt>
      <trkpt lat="48.07579" lon="-2.97743">
        <ele>55.6</ele>
        <time>2021-08-09T09:26:53Z</time>
      </trkpt>
      <trkpt lat="48.07578" lon="-2.97749">
        <ele>55.6</ele>
        <time>2021-08-09T09:26:54Z</time>
      </trkpt>
      <trkpt lat="48.07577" lon="-2.9776">
        <ele>55.6</ele>
        <time>2021-08-09T09:26:56Z</time>
      </trkpt>
      <trkpt lat="48.07577" lon="-2.97766">
        <ele>55.6</ele>
        <time>2021-08-09T09:26:57Z</time>
      </trkpt>
      <trkpt lat="48.07576" lon="-2.97771">
        <ele>55.6</ele>
        <time>2021-08-09T09:26:58Z</time>
      </trkpt>
      <trkpt lat="48.07576" lon="-2.97776">
        <ele>55.6</ele>
        <time>2021-08-09T09:26:59Z</time>
      </trkpt>
      <trkpt lat="48.07575" lon="-2.97782">
        <ele>55.6</ele>
        <time>2021-08-09T09:27:00Z</time>
      </trkpt>
      <trkpt lat="48.07575" lon="-2.97789">
        <ele>55.6</ele>
        <time>2021-08-09T09:27:01Z</time>
      </trkpt>
      <trkpt lat="48.07574" lon="-2.97795">
        <ele>55.8</ele>
        <time>2021-08-09T09:27:02Z</time>
      </trkpt>
      <trkpt lat="48.07574" lon="-2.97801">
        <ele>55.8</ele>
        <time>2021-08-09T09:27:03Z</time>
      </trkpt>
      <trkpt lat="48.07573" lon="-2.97808">
        <ele>55.8</ele>
        <time>2021-08-09T09:27:04Z</time>
      </trkpt>
      <trkpt lat="48.07572" lon="-2.97814">
        <ele>55.8</ele>
        <time>2021-08-09T09:27:05Z</time>
      </trkpt>
      <trkpt lat="48.07571" lon="-2.97827">
        <ele>55.8</ele>
        <time>2021-08-09T09:27:07Z</time>
      </trkpt>
      <trkpt lat="48.07571" lon="-2.97832">
        <ele>56</ele>
        <time>2021-08-09T09:27:08Z</time>
      </trkpt>
      <trkpt lat="48.0757" lon="-2.97838">
        <ele>56.2</ele>
        <time>2021-08-09T09:27:09Z</time>
      </trkpt>
      <trkpt lat="48.0757" lon="-2.97844">
        <ele>56.2</ele>
        <time>2021-08-09T09:27:10Z</time>
      </trkpt>
      <trkpt lat="48.0757" lon="-2.97849">
        <ele>56.2</ele>
        <time>2021-08-09T09:27:11Z</time>
      </trkpt>
      <trkpt lat="48.0757" lon="-2.97853">
        <ele>56.6</ele>
        <time>2021-08-09T09:27:12Z</time>
      </trkpt>
      <trkpt lat="48.0757" lon="-2.97858">
        <ele>56.6</ele>
        <time>2021-08-09T09:27:13Z</time>
      </trkpt>
      <trkpt lat="48.0757" lon="-2.97864">
        <ele>56.4</ele>
        <time>2021-08-09T09:27:14Z</time>
      </trkpt>
      <trkpt lat="48.0757" lon="-2.9787">
        <ele>56.6</ele>
        <time>2021-08-09T09:27:15Z</time>
      </trkpt>
      <trkpt lat="48.0757" lon="-2.97876">
        <ele>56.6</ele>
        <time>2021-08-09T09:27:16Z</time>
      </trkpt>
      <trkpt lat="48.07568" lon="-2.97889">
        <ele>56.8</ele>
        <time>2021-08-09T09:27:18Z</time>
      </trkpt>
      <trkpt lat="48.07566" lon="-2.97899">
        <ele>56.6</ele>
        <time>2021-08-09T09:27:19Z</time>
      </trkpt>
      <trkpt lat="48.07565" lon="-2.97907">
        <ele>56.6</ele>
        <time>2021-08-09T09:27:20Z</time>
      </trkpt>
      <trkpt lat="48.07564" lon="-2.97914">
        <ele>56.6</ele>
        <time>2021-08-09T09:27:21Z</time>
      </trkpt>
      <trkpt lat="48.07563" lon="-2.97922">
        <ele>56.6</ele>
        <time>2021-08-09T09:27:22Z</time>
      </trkpt>
      <trkpt lat="48.07562" lon="-2.97928">
        <ele>56.6</ele>
        <time>2021-08-09T09:27:23Z</time>
      </trkpt>
      <trkpt lat="48.0756" lon="-2.97935">
        <ele>56.6</ele>
        <time>2021-08-09T09:27:24Z</time>
      </trkpt>
      <trkpt lat="48.07559" lon="-2.97942">
        <ele>56.6</ele>
        <time>2021-08-09T09:27:25Z</time>
      </trkpt>
      <trkpt lat="48.07558" lon="-2.97949">
        <ele>56.6</ele>
        <time>2021-08-09T09:27:26Z</time>
      </trkpt>
      <trkpt lat="48.07557" lon="-2.97955">
        <ele>56.6</ele>
        <time>2021-08-09T09:27:27Z</time>
      </trkpt>
      <trkpt lat="48.07556" lon="-2.97969">
        <ele>56.8</ele>
        <time>2021-08-09T09:27:29Z</time>
      </trkpt>
      <trkpt lat="48.07555" lon="-2.97976">
        <ele>56.8</ele>
        <time>2021-08-09T09:27:30Z</time>
      </trkpt>
      <trkpt lat="48.07554" lon="-2.97982">
        <ele>57</ele>
        <time>2021-08-09T09:27:31Z</time>
      </trkpt>
      <trkpt lat="48.07553" lon="-2.97989">
        <ele>57</ele>
        <time>2021-08-09T09:27:32Z</time>
      </trkpt>
      <trkpt lat="48.07552" lon="-2.97995">
        <ele>57</ele>
        <time>2021-08-09T09:27:33Z</time>
      </trkpt>
      <trkpt lat="48.07552" lon="-2.98001">
        <ele>57.2</ele>
        <time>2021-08-09T09:27:34Z</time>
      </trkpt>
      <trkpt lat="48.07551" lon="-2.98007">
        <ele>57.2</ele>
        <time>2021-08-09T09:27:35Z</time>
      </trkpt>
      <trkpt lat="48.07551" lon="-2.98013">
        <ele>57.2</ele>
        <time>2021-08-09T09:27:36Z</time>
      </trkpt>
      <trkpt lat="48.0755" lon="-2.9802">
        <ele>57.4</ele>
        <time>2021-08-09T09:27:37Z</time>
      </trkpt>
      <trkpt lat="48.07549" lon="-2.98026">
        <ele>57.4</ele>
        <time>2021-08-09T09:27:38Z</time>
      </trkpt>
      <trkpt lat="48.07547" lon="-2.98038">
        <ele>57.4</ele>
        <time>2021-08-09T09:27:40Z</time>
      </trkpt>
      <trkpt lat="48.07547" lon="-2.98044">
        <ele>57.4</ele>
        <time>2021-08-09T09:27:41Z</time>
      </trkpt>
      <trkpt lat="48.07546" lon="-2.98051">
        <ele>57.4</ele>
        <time>2021-08-09T09:27:42Z</time>
      </trkpt>
      <trkpt lat="48.07546" lon="-2.98056">
        <ele>57.4</ele>
        <time>2021-08-09T09:27:43Z</time>
      </trkpt>
      <trkpt lat="48.07545" lon="-2.98063">
        <ele>57.4</ele>
        <time>2021-08-09T09:27:44Z</time>
      </trkpt>
      <trkpt lat="48.07545" lon="-2.98068">
        <ele>57.4</ele>
        <time>2021-08-09T09:27:45Z</time>
      </trkpt>
      <trkpt lat="48.07544" lon="-2.98074">
        <ele>57.4</ele>
        <time>2021-08-09T09:27:46Z</time>
      </trkpt>
      <trkpt lat="48.07543" lon="-2.98079">
        <ele>57.4</ele>
        <time>2021-08-09T09:27:47Z</time>
      </trkpt>
      <trkpt lat="48.07543" lon="-2.98084">
        <ele>57.4</ele>
        <time>2021-08-09T09:27:48Z</time>
      </trkpt>
      <trkpt lat="48.07543" lon="-2.98089">
        <ele>57.4</ele>
        <time>2021-08-09T09:27:49Z</time>
      </trkpt>
      <trkpt lat="48.07543" lon="-2.98098">
        <ele>57.4</ele>
        <time>2021-08-09T09:27:51Z</time>
      </trkpt>
      <trkpt lat="48.07543" lon="-2.98103">
        <ele>57.2</ele>
        <time>2021-08-09T09:27:52Z</time>
      </trkpt>
      <trkpt lat="48.07544" lon="-2.98107">
        <ele>57.2</ele>
        <time>2021-08-09T09:27:53Z</time>
      </trkpt>
      <trkpt lat="48.07544" lon="-2.98113">
        <ele>57.2</ele>
        <time>2021-08-09T09:27:54Z</time>
      </trkpt>
      <trkpt lat="48.07544" lon="-2.98118">
        <ele>57.2</ele>
        <time>2021-08-09T09:27:55Z</time>
      </trkpt>
      <trkpt lat="48.07545" lon="-2.98123">
        <ele>57.2</ele>
        <time>2021-08-09T09:27:56Z</time>
      </trkpt>
      <trkpt lat="48.07545" lon="-2.98128">
        <ele>57.2</ele>
        <time>2021-08-09T09:27:57Z</time>
      </trkpt>
      <trkpt lat="48.07545" lon="-2.98134">
        <ele>57.2</ele>
        <time>2021-08-09T09:27:58Z</time>
      </trkpt>
      <trkpt lat="48.07546" lon="-2.98139">
        <ele>57.2</ele>
        <time>2021-08-09T09:27:59Z</time>
      </trkpt>
      <trkpt lat="48.07547" lon="-2.98144">
        <ele>57.2</ele>
        <time>2021-08-09T09:28:00Z</time>
      </trkpt>
      <trkpt lat="48.07548" lon="-2.98157">
        <ele>57.2</ele>
        <time>2021-08-09T09:28:02Z</time>
      </trkpt>
      <trkpt lat="48.07549" lon="-2.98164">
        <ele>57.2</ele>
        <time>2021-08-09T09:28:03Z</time>
      </trkpt>
      <trkpt lat="48.07551" lon="-2.98169">
        <ele>57.2</ele>
        <time>2021-08-09T09:28:04Z</time>
      </trkpt>
      <trkpt lat="48.07552" lon="-2.98175">
        <ele>57.4</ele>
        <time>2021-08-09T09:28:05Z</time>
      </trkpt>
      <trkpt lat="48.07554" lon="-2.9818">
        <ele>57.4</ele>
        <time>2021-08-09T09:28:06Z</time>
      </trkpt>
      <trkpt lat="48.07555" lon="-2.98186">
        <ele>57.4</ele>
        <time>2021-08-09T09:28:07Z</time>
      </trkpt>
      <trkpt lat="48.07557" lon="-2.98192">
        <ele>57.4</ele>
        <time>2021-08-09T09:28:08Z</time>
      </trkpt>
      <trkpt lat="48.07559" lon="-2.98197">
        <ele>57.6</ele>
        <time>2021-08-09T09:28:09Z</time>
      </trkpt>
      <trkpt lat="48.0756" lon="-2.98202">
        <ele>57.6</ele>
        <time>2021-08-09T09:28:10Z</time>
      </trkpt>
      <trkpt lat="48.07562" lon="-2.98207">
        <ele>57.6</ele>
        <time>2021-08-09T09:28:11Z</time>
      </trkpt>
      <trkpt lat="48.07565" lon="-2.98219">
        <ele>57.6</ele>
        <time>2021-08-09T09:28:13Z</time>
      </trkpt>
      <trkpt lat="48.07567" lon="-2.98225">
        <ele>57.6</ele>
        <time>2021-08-09T09:28:14Z</time>
      </trkpt>
      <trkpt lat="48.07568" lon="-2.98232">
        <ele>57.6</ele>
        <time>2021-08-09T09:28:15Z</time>
      </trkpt>
      <trkpt lat="48.07571" lon="-2.98237">
        <ele>57.6</ele>
        <time>2021-08-09T09:28:16Z</time>
      </trkpt>
      <trkpt lat="48.07573" lon="-2.98244">
        <ele>57.6</ele>
        <time>2021-08-09T09:28:17Z</time>
      </trkpt>
      <trkpt lat="48.07575" lon="-2.9825">
        <ele>57.6</ele>
        <time>2021-08-09T09:28:18Z</time>
      </trkpt>
      <trkpt lat="48.07577" lon="-2.98256">
        <ele>57.6</ele>
        <time>2021-08-09T09:28:19Z</time>
      </trkpt>
      <trkpt lat="48.07579" lon="-2.98263">
        <ele>57.4</ele>
        <time>2021-08-09T09:28:20Z</time>
      </trkpt>
      <trkpt lat="48.07581" lon="-2.9827">
        <ele>57.4</ele>
        <time>2021-08-09T09:28:21Z</time>
      </trkpt>
      <trkpt lat="48.07583" lon="-2.98276">
        <ele>57.4</ele>
        <time>2021-08-09T09:28:22Z</time>
      </trkpt>
      <trkpt lat="48.07585" lon="-2.98281">
        <ele>57.4</ele>
        <time>2021-08-09T09:28:23Z</time>
      </trkpt>
      <trkpt lat="48.07587" lon="-2.98286">
        <ele>57.4</ele>
        <time>2021-08-09T09:28:24Z</time>
      </trkpt>
      <trkpt lat="48.07589" lon="-2.98292">
        <ele>57.4</ele>
        <time>2021-08-09T09:28:25Z</time>
      </trkpt>
      <trkpt lat="48.07591" lon="-2.98299">
        <ele>57.4</ele>
        <time>2021-08-09T09:28:26Z</time>
      </trkpt>
      <trkpt lat="48.07593" lon="-2.98305">
        <ele>57.4</ele>
        <time>2021-08-09T09:28:27Z</time>
      </trkpt>
      <trkpt lat="48.07595" lon="-2.98311">
        <ele>57.4</ele>
        <time>2021-08-09T09:28:28Z</time>
      </trkpt>
      <trkpt lat="48.07596" lon="-2.98317">
        <ele>57.4</ele>
        <time>2021-08-09T09:28:29Z</time>
      </trkpt>
      <trkpt lat="48.07598" lon="-2.98322">
        <ele>57.4</ele>
        <time>2021-08-09T09:28:30Z</time>
      </trkpt>
      <trkpt lat="48.076" lon="-2.98329">
        <ele>57.6</ele>
        <time>2021-08-09T09:28:31Z</time>
      </trkpt>
      <trkpt lat="48.07602" lon="-2.98335">
        <ele>57.6</ele>
        <time>2021-08-09T09:28:32Z</time>
      </trkpt>
      <trkpt lat="48.07604" lon="-2.98339">
        <ele>57.6</ele>
        <time>2021-08-09T09:28:33Z</time>
      </trkpt>
      <trkpt lat="48.0761" lon="-2.9835">
        <ele>57.6</ele>
        <time>2021-08-09T09:28:35Z</time>
      </trkpt>
      <trkpt lat="48.07613" lon="-2.98355">
        <ele>57.8</ele>
        <time>2021-08-09T09:28:36Z</time>
      </trkpt>
      <trkpt lat="48.07615" lon="-2.9836">
        <ele>57.8</ele>
        <time>2021-08-09T09:28:37Z</time>
      </trkpt>
      <trkpt lat="48.07618" lon="-2.98366">
        <ele>57.8</ele>
        <time>2021-08-09T09:28:38Z</time>
      </trkpt>
      <trkpt lat="48.0762" lon="-2.98371">
        <ele>57.8</ele>
        <time>2021-08-09T09:28:39Z</time>
      </trkpt>
      <trkpt lat="48.07622" lon="-2.98377">
        <ele>57.8</ele>
        <time>2021-08-09T09:28:40Z</time>
      </trkpt>
      <trkpt lat="48.07624" lon="-2.98382">
        <ele>57.8</ele>
        <time>2021-08-09T09:28:41Z</time>
      </trkpt>
      <trkpt lat="48.07626" lon="-2.98387">
        <ele>57.8</ele>
        <time>2021-08-09T09:28:42Z</time>
      </trkpt>
      <trkpt lat="48.07628" lon="-2.98392">
        <ele>57.8</ele>
        <time>2021-08-09T09:28:43Z</time>
      </trkpt>
      <trkpt lat="48.07631" lon="-2.98397">
        <ele>57.8</ele>
        <time>2021-08-09T09:28:44Z</time>
      </trkpt>
      <trkpt lat="48.07634" lon="-2.98401">
        <ele>57.8</ele>
        <time>2021-08-09T09:28:45Z</time>
      </trkpt>
      <trkpt lat="48.07637" lon="-2.98406">
        <ele>57.8</ele>
        <time>2021-08-09T09:28:46Z</time>
      </trkpt>
      <trkpt lat="48.0764" lon="-2.98411">
        <ele>57.8</ele>
        <time>2021-08-09T09:28:47Z</time>
      </trkpt>
      <trkpt lat="48.07643" lon="-2.98416">
        <ele>57.8</ele>
        <time>2021-08-09T09:28:48Z</time>
      </trkpt>
      <trkpt lat="48.07645" lon="-2.9842">
        <ele>57.8</ele>
        <time>2021-08-09T09:28:49Z</time>
      </trkpt>
      <trkpt lat="48.07648" lon="-2.98424">
        <ele>57.8</ele>
        <time>2021-08-09T09:28:50Z</time>
      </trkpt>
      <trkpt lat="48.07651" lon="-2.98428">
        <ele>57.8</ele>
        <time>2021-08-09T09:28:51Z</time>
      </trkpt>
      <trkpt lat="48.07654" lon="-2.98433">
        <ele>57.8</ele>
        <time>2021-08-09T09:28:52Z</time>
      </trkpt>
      <trkpt lat="48.07656" lon="-2.98438">
        <ele>57.8</ele>
        <time>2021-08-09T09:28:53Z</time>
      </trkpt>
      <trkpt lat="48.07659" lon="-2.98444">
        <ele>57.8</ele>
        <time>2021-08-09T09:28:54Z</time>
      </trkpt>
      <trkpt lat="48.07661" lon="-2.98448">
        <ele>57.8</ele>
        <time>2021-08-09T09:28:55Z</time>
      </trkpt>
      <trkpt lat="48.07664" lon="-2.98453">
        <ele>57.8</ele>
        <time>2021-08-09T09:28:56Z</time>
      </trkpt>
      <trkpt lat="48.07667" lon="-2.98457">
        <ele>57.8</ele>
        <time>2021-08-09T09:28:57Z</time>
      </trkpt>
      <trkpt lat="48.07669" lon="-2.98461">
        <ele>57.8</ele>
        <time>2021-08-09T09:28:58Z</time>
      </trkpt>
      <trkpt lat="48.07672" lon="-2.98465">
        <ele>57.8</ele>
        <time>2021-08-09T09:28:59Z</time>
      </trkpt>
      <trkpt lat="48.07675" lon="-2.98468">
        <ele>57.8</ele>
        <time>2021-08-09T09:29:00Z</time>
      </trkpt>
      <trkpt lat="48.07678" lon="-2.98471">
        <ele>58</ele>
        <time>2021-08-09T09:29:01Z</time>
      </trkpt>
      <trkpt lat="48.07681" lon="-2.98475">
        <ele>58</ele>
        <time>2021-08-09T09:29:02Z</time>
      </trkpt>
      <trkpt lat="48.07684" lon="-2.98479">
        <ele>58</ele>
        <time>2021-08-09T09:29:03Z</time>
      </trkpt>
      <trkpt lat="48.07687" lon="-2.98481">
        <ele>58</ele>
        <time>2021-08-09T09:29:04Z</time>
      </trkpt>
      <trkpt lat="48.07691" lon="-2.98483">
        <ele>58</ele>
        <time>2021-08-09T09:29:05Z</time>
      </trkpt>
      <trkpt lat="48.07695" lon="-2.98485">
        <ele>58</ele>
        <time>2021-08-09T09:29:06Z</time>
      </trkpt>
      <trkpt lat="48.07698" lon="-2.98488">
        <ele>58</ele>
        <time>2021-08-09T09:29:07Z</time>
      </trkpt>
      <trkpt lat="48.07702" lon="-2.9849">
        <ele>58</ele>
        <time>2021-08-09T09:29:08Z</time>
      </trkpt>
      <trkpt lat="48.07706" lon="-2.98492">
        <ele>58</ele>
        <time>2021-08-09T09:29:09Z</time>
      </trkpt>
      <trkpt lat="48.0771" lon="-2.98494">
        <ele>58</ele>
        <time>2021-08-09T09:29:10Z</time>
      </trkpt>
      <trkpt lat="48.07713" lon="-2.98496">
        <ele>58</ele>
        <time>2021-08-09T09:29:11Z</time>
      </trkpt>
      <trkpt lat="48.07717" lon="-2.98497">
        <ele>58</ele>
        <time>2021-08-09T09:29:12Z</time>
      </trkpt>
      <trkpt lat="48.07722" lon="-2.98498">
        <ele>58</ele>
        <time>2021-08-09T09:29:13Z</time>
      </trkpt>
      <trkpt lat="48.07726" lon="-2.98499">
        <ele>58</ele>
        <time>2021-08-09T09:29:14Z</time>
      </trkpt>
      <trkpt lat="48.0773" lon="-2.98501">
        <ele>58</ele>
        <time>2021-08-09T09:29:15Z</time>
      </trkpt>
      <trkpt lat="48.07734" lon="-2.98501">
        <ele>58</ele>
        <time>2021-08-09T09:29:16Z</time>
      </trkpt>
      <trkpt lat="48.07737" lon="-2.98501">
        <ele>58</ele>
        <time>2021-08-09T09:29:17Z</time>
      </trkpt>
      <trkpt lat="48.07741" lon="-2.98501">
        <ele>58</ele>
        <time>2021-08-09T09:29:18Z</time>
      </trkpt>
      <trkpt lat="48.07744" lon="-2.98501">
        <ele>57.8</ele>
        <time>2021-08-09T09:29:19Z</time>
      </trkpt>
      <trkpt lat="48.07748" lon="-2.98502">
        <ele>57.6</ele>
        <time>2021-08-09T09:29:20Z</time>
      </trkpt>
      <trkpt lat="48.07751" lon="-2.98502">
        <ele>57.6</ele>
        <time>2021-08-09T09:29:21Z</time>
      </trkpt>
      <trkpt lat="48.07755" lon="-2.98501">
        <ele>57.6</ele>
        <time>2021-08-09T09:29:22Z</time>
      </trkpt>
      <trkpt lat="48.07758" lon="-2.98501">
        <ele>57.6</ele>
        <time>2021-08-09T09:29:23Z</time>
      </trkpt>
      <trkpt lat="48.07761" lon="-2.98499">
        <ele>57.4</ele>
        <time>2021-08-09T09:29:24Z</time>
      </trkpt>
      <trkpt lat="48.07765" lon="-2.98498">
        <ele>57.4</ele>
        <time>2021-08-09T09:29:25Z</time>
      </trkpt>
      <trkpt lat="48.07769" lon="-2.98496">
        <ele>57.4</ele>
        <time>2021-08-09T09:29:26Z</time>
      </trkpt>
      <trkpt lat="48.07773" lon="-2.98495">
        <ele>57.4</ele>
        <time>2021-08-09T09:29:27Z</time>
      </trkpt>
      <trkpt lat="48.07777" lon="-2.98493">
        <ele>57.4</ele>
        <time>2021-08-09T09:29:28Z</time>
      </trkpt>
      <trkpt lat="48.07785" lon="-2.9849">
        <ele>57.4</ele>
        <time>2021-08-09T09:29:30Z</time>
      </trkpt>
      <trkpt lat="48.07789" lon="-2.98489">
        <ele>57.4</ele>
        <time>2021-08-09T09:29:31Z</time>
      </trkpt>
      <trkpt lat="48.07793" lon="-2.98487">
        <ele>57.4</ele>
        <time>2021-08-09T09:29:32Z</time>
      </trkpt>
      <trkpt lat="48.07797" lon="-2.98485">
        <ele>57.4</ele>
        <time>2021-08-09T09:29:33Z</time>
      </trkpt>
      <trkpt lat="48.078" lon="-2.98483">
        <ele>57.4</ele>
        <time>2021-08-09T09:29:34Z</time>
      </trkpt>
      <trkpt lat="48.07803" lon="-2.98481">
        <ele>57.4</ele>
        <time>2021-08-09T09:29:35Z</time>
      </trkpt>
      <trkpt lat="48.07807" lon="-2.98479">
        <ele>57.4</ele>
        <time>2021-08-09T09:29:36Z</time>
      </trkpt>
      <trkpt lat="48.0781" lon="-2.98478">
        <ele>57.4</ele>
        <time>2021-08-09T09:29:37Z</time>
      </trkpt>
      <trkpt lat="48.07814" lon="-2.98476">
        <ele>57.6</ele>
        <time>2021-08-09T09:29:38Z</time>
      </trkpt>
      <trkpt lat="48.07818" lon="-2.98473">
        <ele>57.6</ele>
        <time>2021-08-09T09:29:39Z</time>
      </trkpt>
      <trkpt lat="48.07825" lon="-2.98469">
        <ele>57.6</ele>
        <time>2021-08-09T09:29:41Z</time>
      </trkpt>
      <trkpt lat="48.07828" lon="-2.98467">
        <ele>57.8</ele>
        <time>2021-08-09T09:29:42Z</time>
      </trkpt>
      <trkpt lat="48.07831" lon="-2.98465">
        <ele>57.8</ele>
        <time>2021-08-09T09:29:43Z</time>
      </trkpt>
      <trkpt lat="48.07835" lon="-2.98463">
        <ele>57.8</ele>
        <time>2021-08-09T09:29:44Z</time>
      </trkpt>
      <trkpt lat="48.07838" lon="-2.98461">
        <ele>57.8</ele>
        <time>2021-08-09T09:29:45Z</time>
      </trkpt>
      <trkpt lat="48.07842" lon="-2.98459">
        <ele>57.8</ele>
        <time>2021-08-09T09:29:46Z</time>
      </trkpt>
      <trkpt lat="48.07846" lon="-2.98457">
        <ele>57.8</ele>
        <time>2021-08-09T09:29:47Z</time>
      </trkpt>
      <trkpt lat="48.07849" lon="-2.98455">
        <ele>58</ele>
        <time>2021-08-09T09:29:48Z</time>
      </trkpt>
      <trkpt lat="48.07854" lon="-2.98453">
        <ele>58</ele>
        <time>2021-08-09T09:29:49Z</time>
      </trkpt>
      <trkpt lat="48.07858" lon="-2.98452">
        <ele>58</ele>
        <time>2021-08-09T09:29:50Z</time>
      </trkpt>
      <trkpt lat="48.07862" lon="-2.98449">
        <ele>58</ele>
        <time>2021-08-09T09:29:51Z</time>
      </trkpt>
      <trkpt lat="48.07866" lon="-2.98447">
        <ele>58</ele>
        <time>2021-08-09T09:29:52Z</time>
      </trkpt>
      <trkpt lat="48.0787" lon="-2.98444">
        <ele>58</ele>
        <time>2021-08-09T09:29:53Z</time>
      </trkpt>
      <trkpt lat="48.07874" lon="-2.98443">
        <ele>58</ele>
        <time>2021-08-09T09:29:54Z</time>
      </trkpt>
      <trkpt lat="48.07878" lon="-2.98441">
        <ele>58</ele>
        <time>2021-08-09T09:29:55Z</time>
      </trkpt>
      <trkpt lat="48.07882" lon="-2.9844">
        <ele>58</ele>
        <time>2021-08-09T09:29:56Z</time>
      </trkpt>
      <trkpt lat="48.07886" lon="-2.98438">
        <ele>58</ele>
        <time>2021-08-09T09:29:57Z</time>
      </trkpt>
      <trkpt lat="48.07889" lon="-2.98437">
        <ele>58</ele>
        <time>2021-08-09T09:29:58Z</time>
      </trkpt>
      <trkpt lat="48.07893" lon="-2.98435">
        <ele>58</ele>
        <time>2021-08-09T09:29:59Z</time>
      </trkpt>
      <trkpt lat="48.07897" lon="-2.98434">
        <ele>58</ele>
        <time>2021-08-09T09:30:00Z</time>
      </trkpt>
      <trkpt lat="48.07901" lon="-2.98432">
        <ele>58</ele>
        <time>2021-08-09T09:30:01Z</time>
      </trkpt>
      <trkpt lat="48.07906" lon="-2.9843">
        <ele>58</ele>
        <time>2021-08-09T09:30:02Z</time>
      </trkpt>
      <trkpt lat="48.0791" lon="-2.98428">
        <ele>58</ele>
        <time>2021-08-09T09:30:03Z</time>
      </trkpt>
      <trkpt lat="48.07914" lon="-2.98426">
        <ele>57.8</ele>
        <time>2021-08-09T09:30:04Z</time>
      </trkpt>
      <trkpt lat="48.07918" lon="-2.98424">
        <ele>57.8</ele>
        <time>2021-08-09T09:30:05Z</time>
      </trkpt>
      <trkpt lat="48.07922" lon="-2.98422">
        <ele>57.8</ele>
        <time>2021-08-09T09:30:06Z</time>
      </trkpt>
      <trkpt lat="48.07925" lon="-2.98421">
        <ele>57.8</ele>
        <time>2021-08-09T09:30:07Z</time>
      </trkpt>
      <trkpt lat="48.0793" lon="-2.98419">
        <ele>57.8</ele>
        <time>2021-08-09T09:30:08Z</time>
      </trkpt>
      <trkpt lat="48.07934" lon="-2.98418">
        <ele>57.8</ele>
        <time>2021-08-09T09:30:09Z</time>
      </trkpt>
      <trkpt lat="48.07938" lon="-2.98417">
        <ele>57.8</ele>
        <time>2021-08-09T09:30:10Z</time>
      </trkpt>
      <trkpt lat="48.07942" lon="-2.98415">
        <ele>57.8</ele>
        <time>2021-08-09T09:30:11Z</time>
      </trkpt>
      <trkpt lat="48.07947" lon="-2.98413">
        <ele>57.8</ele>
        <time>2021-08-09T09:30:12Z</time>
      </trkpt>
      <trkpt lat="48.07954" lon="-2.9841">
        <ele>57.8</ele>
        <time>2021-08-09T09:30:14Z</time>
      </trkpt>
      <trkpt lat="48.07958" lon="-2.98409">
        <ele>57.8</ele>
        <time>2021-08-09T09:30:15Z</time>
      </trkpt>
      <trkpt lat="48.07961" lon="-2.98408">
        <ele>57.8</ele>
        <time>2021-08-09T09:30:16Z</time>
      </trkpt>
      <trkpt lat="48.07964" lon="-2.98407">
        <ele>57.8</ele>
        <time>2021-08-09T09:30:17Z</time>
      </trkpt>
      <trkpt lat="48.07968" lon="-2.98406">
        <ele>57.8</ele>
        <time>2021-08-09T09:30:18Z</time>
      </trkpt>
      <trkpt lat="48.07972" lon="-2.98405">
        <ele>57.8</ele>
        <time>2021-08-09T09:30:19Z</time>
      </trkpt>
      <trkpt lat="48.07976" lon="-2.98404">
        <ele>57.8</ele>
        <time>2021-08-09T09:30:20Z</time>
      </trkpt>
      <trkpt lat="48.0798" lon="-2.98404">
        <ele>57.8</ele>
        <time>2021-08-09T09:30:21Z</time>
      </trkpt>
      <trkpt lat="48.07984" lon="-2.98403">
        <ele>57.8</ele>
        <time>2021-08-09T09:30:22Z</time>
      </trkpt>
      <trkpt lat="48.07989" lon="-2.98402">
        <ele>57.8</ele>
        <time>2021-08-09T09:30:23Z</time>
      </trkpt>
      <trkpt lat="48.07997" lon="-2.984">
        <ele>57.8</ele>
        <time>2021-08-09T09:30:25Z</time>
      </trkpt>
      <trkpt lat="48.08002" lon="-2.98399">
        <ele>57.8</ele>
        <time>2021-08-09T09:30:26Z</time>
      </trkpt>
      <trkpt lat="48.08006" lon="-2.98399">
        <ele>57.8</ele>
        <time>2021-08-09T09:30:27Z</time>
      </trkpt>
      <trkpt lat="48.0801" lon="-2.98398">
        <ele>57.8</ele>
        <time>2021-08-09T09:30:28Z</time>
      </trkpt>
      <trkpt lat="48.08014" lon="-2.98397">
        <ele>58</ele>
        <time>2021-08-09T09:30:29Z</time>
      </trkpt>
      <trkpt lat="48.08018" lon="-2.98396">
        <ele>58</ele>
        <time>2021-08-09T09:30:30Z</time>
      </trkpt>
      <trkpt lat="48.08021" lon="-2.98396">
        <ele>58</ele>
        <time>2021-08-09T09:30:31Z</time>
      </trkpt>
      <trkpt lat="48.08025" lon="-2.98395">
        <ele>57.8</ele>
        <time>2021-08-09T09:30:32Z</time>
      </trkpt>
      <trkpt lat="48.08028" lon="-2.98394">
        <ele>57.8</ele>
        <time>2021-08-09T09:30:33Z</time>
      </trkpt>
      <trkpt lat="48.08032" lon="-2.98394">
        <ele>57.8</ele>
        <time>2021-08-09T09:30:34Z</time>
      </trkpt>
      <trkpt lat="48.0804" lon="-2.98392">
        <ele>57.8</ele>
        <time>2021-08-09T09:30:36Z</time>
      </trkpt>
      <trkpt lat="48.08045" lon="-2.98391">
        <ele>57.8</ele>
        <time>2021-08-09T09:30:37Z</time>
      </trkpt>
      <trkpt lat="48.08049" lon="-2.9839">
        <ele>57.8</ele>
        <time>2021-08-09T09:30:38Z</time>
      </trkpt>
      <trkpt lat="48.08053" lon="-2.98389">
        <ele>57.8</ele>
        <time>2021-08-09T09:30:39Z</time>
      </trkpt>
      <trkpt lat="48.08057" lon="-2.98388">
        <ele>57.8</ele>
        <time>2021-08-09T09:30:40Z</time>
      </trkpt>
      <trkpt lat="48.08061" lon="-2.98387">
        <ele>57.8</ele>
        <time>2021-08-09T09:30:41Z</time>
      </trkpt>
      <trkpt lat="48.08066" lon="-2.98387">
        <ele>57.8</ele>
        <time>2021-08-09T09:30:42Z</time>
      </trkpt>
      <trkpt lat="48.0807" lon="-2.98386">
        <ele>57.8</ele>
        <time>2021-08-09T09:30:43Z</time>
      </trkpt>
      <trkpt lat="48.08074" lon="-2.98386">
        <ele>57.8</ele>
        <time>2021-08-09T09:30:44Z</time>
      </trkpt>
      <trkpt lat="48.08078" lon="-2.98386">
        <ele>57.8</ele>
        <time>2021-08-09T09:30:45Z</time>
      </trkpt>
      <trkpt lat="48.08086" lon="-2.98385">
        <ele>57.8</ele>
        <time>2021-08-09T09:30:47Z</time>
      </trkpt>
      <trkpt lat="48.0809" lon="-2.98384">
        <ele>57.8</ele>
        <time>2021-08-09T09:30:48Z</time>
      </trkpt>
      <trkpt lat="48.08094" lon="-2.98383">
        <ele>57.8</ele>
        <time>2021-08-09T09:30:49Z</time>
      </trkpt>
      <trkpt lat="48.08098" lon="-2.98383">
        <ele>57.8</ele>
        <time>2021-08-09T09:30:50Z</time>
      </trkpt>
      <trkpt lat="48.08101" lon="-2.98382">
        <ele>57.8</ele>
        <time>2021-08-09T09:30:51Z</time>
      </trkpt>
      <trkpt lat="48.08105" lon="-2.98381">
        <ele>57.8</ele>
        <time>2021-08-09T09:30:52Z</time>
      </trkpt>
      <trkpt lat="48.08109" lon="-2.9838">
        <ele>57.8</ele>
        <time>2021-08-09T09:30:53Z</time>
      </trkpt>
      <trkpt lat="48.08112" lon="-2.98379">
        <ele>57.8</ele>
        <time>2021-08-09T09:30:54Z</time>
      </trkpt>
      <trkpt lat="48.08116" lon="-2.98378">
        <ele>58</ele>
        <time>2021-08-09T09:30:55Z</time>
      </trkpt>
      <trkpt lat="48.0812" lon="-2.98376">
        <ele>58</ele>
        <time>2021-08-09T09:30:56Z</time>
      </trkpt>
      <trkpt lat="48.08124" lon="-2.98375">
        <ele>58</ele>
        <time>2021-08-09T09:30:57Z</time>
      </trkpt>
      <trkpt lat="48.08128" lon="-2.98374">
        <ele>58</ele>
        <time>2021-08-09T09:30:58Z</time>
      </trkpt>
      <trkpt lat="48.08133" lon="-2.98373">
        <ele>58</ele>
        <time>2021-08-09T09:30:59Z</time>
      </trkpt>
      <trkpt lat="48.08137" lon="-2.98372">
        <ele>58</ele>
        <time>2021-08-09T09:31:00Z</time>
      </trkpt>
      <trkpt lat="48.08141" lon="-2.9837">
        <ele>58</ele>
        <time>2021-08-09T09:31:01Z</time>
      </trkpt>
      <trkpt lat="48.08146" lon="-2.9837">
        <ele>58</ele>
        <time>2021-08-09T09:31:02Z</time>
      </trkpt>
      <trkpt lat="48.0815" lon="-2.98368">
        <ele>58</ele>
        <time>2021-08-09T09:31:03Z</time>
      </trkpt>
      <trkpt lat="48.08153" lon="-2.98367">
        <ele>58</ele>
        <time>2021-08-09T09:31:04Z</time>
      </trkpt>
      <trkpt lat="48.08157" lon="-2.98366">
        <ele>58</ele>
        <time>2021-08-09T09:31:05Z</time>
      </trkpt>
      <trkpt lat="48.08161" lon="-2.98365">
        <ele>58.2</ele>
        <time>2021-08-09T09:31:06Z</time>
      </trkpt>
      <trkpt lat="48.08166" lon="-2.98364">
        <ele>58.2</ele>
        <time>2021-08-09T09:31:07Z</time>
      </trkpt>
      <trkpt lat="48.08174" lon="-2.98363">
        <ele>58.2</ele>
        <time>2021-08-09T09:31:09Z</time>
      </trkpt>
      <trkpt lat="48.08179" lon="-2.98362">
        <ele>58.2</ele>
        <time>2021-08-09T09:31:10Z</time>
      </trkpt>
      <trkpt lat="48.08183" lon="-2.98361">
        <ele>58.2</ele>
        <time>2021-08-09T09:31:11Z</time>
      </trkpt>
      <trkpt lat="48.08187" lon="-2.98361">
        <ele>58.2</ele>
        <time>2021-08-09T09:31:12Z</time>
      </trkpt>
      <trkpt lat="48.08192" lon="-2.98361">
        <ele>58.2</ele>
        <time>2021-08-09T09:31:13Z</time>
      </trkpt>
      <trkpt lat="48.08196" lon="-2.9836">
        <ele>58.2</ele>
        <time>2021-08-09T09:31:14Z</time>
      </trkpt>
      <trkpt lat="48.08201" lon="-2.9836">
        <ele>58.2</ele>
        <time>2021-08-09T09:31:15Z</time>
      </trkpt>
      <trkpt lat="48.08205" lon="-2.9836">
        <ele>58.2</ele>
        <time>2021-08-09T09:31:16Z</time>
      </trkpt>
      <trkpt lat="48.08209" lon="-2.9836">
        <ele>58.2</ele>
        <time>2021-08-09T09:31:17Z</time>
      </trkpt>
      <trkpt lat="48.08213" lon="-2.9836">
        <ele>58.2</ele>
        <time>2021-08-09T09:31:18Z</time>
      </trkpt>
      <trkpt lat="48.08218" lon="-2.9836">
        <ele>58.2</ele>
        <time>2021-08-09T09:31:19Z</time>
      </trkpt>
      <trkpt lat="48.08222" lon="-2.98359">
        <ele>58.2</ele>
        <time>2021-08-09T09:31:20Z</time>
      </trkpt>
      <trkpt lat="48.08227" lon="-2.98359">
        <ele>58.2</ele>
        <time>2021-08-09T09:31:21Z</time>
      </trkpt>
      <trkpt lat="48.08231" lon="-2.98359">
        <ele>58.2</ele>
        <time>2021-08-09T09:31:22Z</time>
      </trkpt>
      <trkpt lat="48.08236" lon="-2.98359">
        <ele>58.2</ele>
        <time>2021-08-09T09:31:23Z</time>
      </trkpt>
      <trkpt lat="48.0824" lon="-2.98359">
        <ele>58.2</ele>
        <time>2021-08-09T09:31:24Z</time>
      </trkpt>
      <trkpt lat="48.08244" lon="-2.98358">
        <ele>58.2</ele>
        <time>2021-08-09T09:31:25Z</time>
      </trkpt>
      <trkpt lat="48.08248" lon="-2.98358">
        <ele>58.2</ele>
        <time>2021-08-09T09:31:26Z</time>
      </trkpt>
      <trkpt lat="48.08252" lon="-2.98358">
        <ele>58.2</ele>
        <time>2021-08-09T09:31:27Z</time>
      </trkpt>
      <trkpt lat="48.08256" lon="-2.98357">
        <ele>58.2</ele>
        <time>2021-08-09T09:31:28Z</time>
      </trkpt>
      <trkpt lat="48.0826" lon="-2.98357">
        <ele>58.2</ele>
        <time>2021-08-09T09:31:29Z</time>
      </trkpt>
      <trkpt lat="48.08264" lon="-2.98357">
        <ele>58.2</ele>
        <time>2021-08-09T09:31:30Z</time>
      </trkpt>
      <trkpt lat="48.08267" lon="-2.98356">
        <ele>58.2</ele>
        <time>2021-08-09T09:31:31Z</time>
      </trkpt>
      <trkpt lat="48.08271" lon="-2.98356">
        <ele>58.2</ele>
        <time>2021-08-09T09:31:32Z</time>
      </trkpt>
      <trkpt lat="48.08275" lon="-2.98355">
        <ele>58.4</ele>
        <time>2021-08-09T09:31:33Z</time>
      </trkpt>
      <trkpt lat="48.08278" lon="-2.98355">
        <ele>58.4</ele>
        <time>2021-08-09T09:31:34Z</time>
      </trkpt>
      <trkpt lat="48.08282" lon="-2.98355">
        <ele>58.4</ele>
        <time>2021-08-09T09:31:35Z</time>
      </trkpt>
      <trkpt lat="48.08286" lon="-2.98355">
        <ele>58.4</ele>
        <time>2021-08-09T09:31:36Z</time>
      </trkpt>
      <trkpt lat="48.08289" lon="-2.98355">
        <ele>58.4</ele>
        <time>2021-08-09T09:31:37Z</time>
      </trkpt>
      <trkpt lat="48.08293" lon="-2.98355">
        <ele>58.4</ele>
        <time>2021-08-09T09:31:38Z</time>
      </trkpt>
      <trkpt lat="48.08297" lon="-2.98355">
        <ele>58.4</ele>
        <time>2021-08-09T09:31:39Z</time>
      </trkpt>
      <trkpt lat="48.08304" lon="-2.98355">
        <ele>58.4</ele>
        <time>2021-08-09T09:31:41Z</time>
      </trkpt>
      <trkpt lat="48.08307" lon="-2.98355">
        <ele>58.4</ele>
        <time>2021-08-09T09:31:42Z</time>
      </trkpt>
      <trkpt lat="48.0831" lon="-2.98355">
        <ele>58.4</ele>
        <time>2021-08-09T09:31:43Z</time>
      </trkpt>
      <trkpt lat="48.08314" lon="-2.98355">
        <ele>58.6</ele>
        <time>2021-08-09T09:31:44Z</time>
      </trkpt>
      <trkpt lat="48.08318" lon="-2.98355">
        <ele>58.6</ele>
        <time>2021-08-09T09:31:45Z</time>
      </trkpt>
      <trkpt lat="48.08322" lon="-2.98355">
        <ele>58.6</ele>
        <time>2021-08-09T09:31:46Z</time>
      </trkpt>
      <trkpt lat="48.08325" lon="-2.98354">
        <ele>58.6</ele>
        <time>2021-08-09T09:31:47Z</time>
      </trkpt>
      <trkpt lat="48.08329" lon="-2.98355">
        <ele>58.4</ele>
        <time>2021-08-09T09:31:48Z</time>
      </trkpt>
      <trkpt lat="48.08334" lon="-2.98355">
        <ele>58.4</ele>
        <time>2021-08-09T09:31:49Z</time>
      </trkpt>
      <trkpt lat="48.08338" lon="-2.98354">
        <ele>58.4</ele>
        <time>2021-08-09T09:31:50Z</time>
      </trkpt>
      <trkpt lat="48.08345" lon="-2.98355">
        <ele>58.2</ele>
        <time>2021-08-09T09:31:52Z</time>
      </trkpt>
      <trkpt lat="48.0835" lon="-2.98355">
        <ele>58.2</ele>
        <time>2021-08-09T09:31:53Z</time>
      </trkpt>
      <trkpt lat="48.08354" lon="-2.98355">
        <ele>58.4</ele>
        <time>2021-08-09T09:31:54Z</time>
      </trkpt>
      <trkpt lat="48.08358" lon="-2.98354">
        <ele>58.4</ele>
        <time>2021-08-09T09:31:55Z</time>
      </trkpt>
      <trkpt lat="48.08362" lon="-2.98355">
        <ele>58.2</ele>
        <time>2021-08-09T09:31:56Z</time>
      </trkpt>
      <trkpt lat="48.08367" lon="-2.98355">
        <ele>58.2</ele>
        <time>2021-08-09T09:31:57Z</time>
      </trkpt>
      <trkpt lat="48.08371" lon="-2.98355">
        <ele>58.2</ele>
        <time>2021-08-09T09:31:58Z</time>
      </trkpt>
      <trkpt lat="48.08375" lon="-2.98355">
        <ele>58.2</ele>
        <time>2021-08-09T09:31:59Z</time>
      </trkpt>
      <trkpt lat="48.0838" lon="-2.98356">
        <ele>58.2</ele>
        <time>2021-08-09T09:32:00Z</time>
      </trkpt>
      <trkpt lat="48.08384" lon="-2.98357">
        <ele>58.2</ele>
        <time>2021-08-09T09:32:01Z</time>
      </trkpt>
      <trkpt lat="48.08394" lon="-2.98359">
        <ele>58</ele>
        <time>2021-08-09T09:32:03Z</time>
      </trkpt>
      <trkpt lat="48.08398" lon="-2.9836">
        <ele>58</ele>
        <time>2021-08-09T09:32:04Z</time>
      </trkpt>
      <trkpt lat="48.08403" lon="-2.98361">
        <ele>58</ele>
        <time>2021-08-09T09:32:05Z</time>
      </trkpt>
      <trkpt lat="48.08407" lon="-2.98363">
        <ele>58</ele>
        <time>2021-08-09T09:32:06Z</time>
      </trkpt>
      <trkpt lat="48.08412" lon="-2.98365">
        <ele>58</ele>
        <time>2021-08-09T09:32:07Z</time>
      </trkpt>
      <trkpt lat="48.08416" lon="-2.98366">
        <ele>58</ele>
        <time>2021-08-09T09:32:08Z</time>
      </trkpt>
      <trkpt lat="48.08421" lon="-2.98368">
        <ele>58</ele>
        <time>2021-08-09T09:32:09Z</time>
      </trkpt>
      <trkpt lat="48.08425" lon="-2.98369">
        <ele>58</ele>
        <time>2021-08-09T09:32:10Z</time>
      </trkpt>
      <trkpt lat="48.0843" lon="-2.98371">
        <ele>57.8</ele>
        <time>2021-08-09T09:32:11Z</time>
      </trkpt>
      <trkpt lat="48.08435" lon="-2.98373">
        <ele>57.8</ele>
        <time>2021-08-09T09:32:12Z</time>
      </trkpt>
      <trkpt lat="48.08439" lon="-2.98375">
        <ele>57.8</ele>
        <time>2021-08-09T09:32:13Z</time>
      </trkpt>
      <trkpt lat="48.08444" lon="-2.98376">
        <ele>57.8</ele>
        <time>2021-08-09T09:32:14Z</time>
      </trkpt>
      <trkpt lat="48.08448" lon="-2.98377">
        <ele>57.8</ele>
        <time>2021-08-09T09:32:15Z</time>
      </trkpt>
      <trkpt lat="48.08452" lon="-2.98379">
        <ele>57.8</ele>
        <time>2021-08-09T09:32:16Z</time>
      </trkpt>
      <trkpt lat="48.08456" lon="-2.98381">
        <ele>58</ele>
        <time>2021-08-09T09:32:17Z</time>
      </trkpt>
      <trkpt lat="48.0846" lon="-2.98382">
        <ele>58</ele>
        <time>2021-08-09T09:32:18Z</time>
      </trkpt>
      <trkpt lat="48.08465" lon="-2.98384">
        <ele>58</ele>
        <time>2021-08-09T09:32:19Z</time>
      </trkpt>
      <trkpt lat="48.08469" lon="-2.98386">
        <ele>58</ele>
        <time>2021-08-09T09:32:20Z</time>
      </trkpt>
      <trkpt lat="48.08474" lon="-2.98388">
        <ele>58</ele>
        <time>2021-08-09T09:32:21Z</time>
      </trkpt>
      <trkpt lat="48.08478" lon="-2.98391">
        <ele>58</ele>
        <time>2021-08-09T09:32:22Z</time>
      </trkpt>
      <trkpt lat="48.08482" lon="-2.98393">
        <ele>58</ele>
        <time>2021-08-09T09:32:23Z</time>
      </trkpt>
      <trkpt lat="48.08491" lon="-2.98398">
        <ele>58</ele>
        <time>2021-08-09T09:32:25Z</time>
      </trkpt>
      <trkpt lat="48.08495" lon="-2.98401">
        <ele>58</ele>
        <time>2021-08-09T09:32:26Z</time>
      </trkpt>
      <trkpt lat="48.085" lon="-2.98403">
        <ele>58</ele>
        <time>2021-08-09T09:32:27Z</time>
      </trkpt>
      <trkpt lat="48.08504" lon="-2.98406">
        <ele>58</ele>
        <time>2021-08-09T09:32:28Z</time>
      </trkpt>
      <trkpt lat="48.08508" lon="-2.98409">
        <ele>58</ele>
        <time>2021-08-09T09:32:29Z</time>
      </trkpt>
      <trkpt lat="48.08513" lon="-2.98411">
        <ele>58</ele>
        <time>2021-08-09T09:32:30Z</time>
      </trkpt>
      <trkpt lat="48.08517" lon="-2.98414">
        <ele>58</ele>
        <time>2021-08-09T09:32:31Z</time>
      </trkpt>
      <trkpt lat="48.08521" lon="-2.98416">
        <ele>58</ele>
        <time>2021-08-09T09:32:32Z</time>
      </trkpt>
      <trkpt lat="48.08525" lon="-2.98419">
        <ele>58</ele>
        <time>2021-08-09T09:32:33Z</time>
      </trkpt>
      <trkpt lat="48.0853" lon="-2.98422">
        <ele>58</ele>
        <time>2021-08-09T09:32:34Z</time>
      </trkpt>
      <trkpt lat="48.08538" lon="-2.98427">
        <ele>58</ele>
        <time>2021-08-09T09:32:36Z</time>
      </trkpt>
      <trkpt lat="48.08542" lon="-2.9843">
        <ele>57.8</ele>
        <time>2021-08-09T09:32:37Z</time>
      </trkpt>
      <trkpt lat="48.08546" lon="-2.98432">
        <ele>57.8</ele>
        <time>2021-08-09T09:32:38Z</time>
      </trkpt>
      <trkpt lat="48.0855" lon="-2.98434">
        <ele>57.8</ele>
        <time>2021-08-09T09:32:39Z</time>
      </trkpt>
      <trkpt lat="48.08554" lon="-2.98436">
        <ele>57.8</ele>
        <time>2021-08-09T09:32:40Z</time>
      </trkpt>
      <trkpt lat="48.08558" lon="-2.98438">
        <ele>57.8</ele>
        <time>2021-08-09T09:32:41Z</time>
      </trkpt>
      <trkpt lat="48.08562" lon="-2.9844">
        <ele>57.8</ele>
        <time>2021-08-09T09:32:42Z</time>
      </trkpt>
      <trkpt lat="48.08566" lon="-2.98442">
        <ele>57.8</ele>
        <time>2021-08-09T09:32:43Z</time>
      </trkpt>
      <trkpt lat="48.0857" lon="-2.98444">
        <ele>57.8</ele>
        <time>2021-08-09T09:32:44Z</time>
      </trkpt>
      <trkpt lat="48.08574" lon="-2.98447">
        <ele>57.8</ele>
        <time>2021-08-09T09:32:45Z</time>
      </trkpt>
      <trkpt lat="48.08582" lon="-2.98452">
        <ele>57.8</ele>
        <time>2021-08-09T09:32:47Z</time>
      </trkpt>
      <trkpt lat="48.08586" lon="-2.98454">
        <ele>57.8</ele>
        <time>2021-08-09T09:32:48Z</time>
      </trkpt>
      <trkpt lat="48.0859" lon="-2.98456">
        <ele>57.8</ele>
        <time>2021-08-09T09:32:49Z</time>
      </trkpt>
      <trkpt lat="48.08593" lon="-2.98459">
        <ele>57.8</ele>
        <time>2021-08-09T09:32:50Z</time>
      </trkpt>
      <trkpt lat="48.08597" lon="-2.98461">
        <ele>57.8</ele>
        <time>2021-08-09T09:32:51Z</time>
      </trkpt>
      <trkpt lat="48.08601" lon="-2.98463">
        <ele>57.6</ele>
        <time>2021-08-09T09:32:52Z</time>
      </trkpt>
      <trkpt lat="48.08605" lon="-2.98465">
        <ele>57.6</ele>
        <time>2021-08-09T09:32:53Z</time>
      </trkpt>
      <trkpt lat="48.08609" lon="-2.98467">
        <ele>57.6</ele>
        <time>2021-08-09T09:32:54Z</time>
      </trkpt>
      <trkpt lat="48.08613" lon="-2.98469">
        <ele>57.6</ele>
        <time>2021-08-09T09:32:55Z</time>
      </trkpt>
      <trkpt lat="48.08617" lon="-2.98472">
        <ele>57.6</ele>
        <time>2021-08-09T09:32:56Z</time>
      </trkpt>
      <trkpt lat="48.08624" lon="-2.98476">
        <ele>57.6</ele>
        <time>2021-08-09T09:32:58Z</time>
      </trkpt>
      <trkpt lat="48.08628" lon="-2.98478">
        <ele>57.6</ele>
        <time>2021-08-09T09:32:59Z</time>
      </trkpt>
      <trkpt lat="48.08632" lon="-2.9848">
        <ele>57.6</ele>
        <time>2021-08-09T09:33:00Z</time>
      </trkpt>
      <trkpt lat="48.08635" lon="-2.98482">
        <ele>57.4</ele>
        <time>2021-08-09T09:33:01Z</time>
      </trkpt>
      <trkpt lat="48.08639" lon="-2.98484">
        <ele>57.4</ele>
        <time>2021-08-09T09:33:02Z</time>
      </trkpt>
      <trkpt lat="48.08642" lon="-2.98487">
        <ele>57.4</ele>
        <time>2021-08-09T09:33:03Z</time>
      </trkpt>
      <trkpt lat="48.08645" lon="-2.98489">
        <ele>57.4</ele>
        <time>2021-08-09T09:33:04Z</time>
      </trkpt>
      <trkpt lat="48.08649" lon="-2.98492">
        <ele>57.4</ele>
        <time>2021-08-09T09:33:05Z</time>
      </trkpt>
      <trkpt lat="48.08652" lon="-2.98495">
        <ele>57.4</ele>
        <time>2021-08-09T09:33:06Z</time>
      </trkpt>
      <trkpt lat="48.08656" lon="-2.98497">
        <ele>57.4</ele>
        <time>2021-08-09T09:33:07Z</time>
      </trkpt>
      <trkpt lat="48.08663" lon="-2.98502">
        <ele>57.4</ele>
        <time>2021-08-09T09:33:09Z</time>
      </trkpt>
      <trkpt lat="48.08666" lon="-2.98505">
        <ele>57.6</ele>
        <time>2021-08-09T09:33:10Z</time>
      </trkpt>
      <trkpt lat="48.0867" lon="-2.98508">
        <ele>57.6</ele>
        <time>2021-08-09T09:33:11Z</time>
      </trkpt>
      <trkpt lat="48.08673" lon="-2.98511">
        <ele>57.6</ele>
        <time>2021-08-09T09:33:12Z</time>
      </trkpt>
      <trkpt lat="48.08677" lon="-2.98514">
        <ele>57.4</ele>
        <time>2021-08-09T09:33:13Z</time>
      </trkpt>
      <trkpt lat="48.08681" lon="-2.98517">
        <ele>57.4</ele>
        <time>2021-08-09T09:33:14Z</time>
      </trkpt>
      <trkpt lat="48.08684" lon="-2.9852">
        <ele>57.4</ele>
        <time>2021-08-09T09:33:15Z</time>
      </trkpt>
      <trkpt lat="48.08688" lon="-2.98524">
        <ele>57.4</ele>
        <time>2021-08-09T09:33:16Z</time>
      </trkpt>
      <trkpt lat="48.08691" lon="-2.98527">
        <ele>57.4</ele>
        <time>2021-08-09T09:33:17Z</time>
      </trkpt>
      <trkpt lat="48.08695" lon="-2.9853">
        <ele>57.4</ele>
        <time>2021-08-09T09:33:18Z</time>
      </trkpt>
      <trkpt lat="48.08703" lon="-2.98535">
        <ele>57.2</ele>
        <time>2021-08-09T09:33:20Z</time>
      </trkpt>
      <trkpt lat="48.08707" lon="-2.98538">
        <ele>57</ele>
        <time>2021-08-09T09:33:21Z</time>
      </trkpt>
      <trkpt lat="48.08711" lon="-2.98541">
        <ele>57</ele>
        <time>2021-08-09T09:33:22Z</time>
      </trkpt>
      <trkpt lat="48.08715" lon="-2.98543">
        <ele>56.8</ele>
        <time>2021-08-09T09:33:23Z</time>
      </trkpt>
      <trkpt lat="48.08718" lon="-2.98546">
        <ele>56.8</ele>
        <time>2021-08-09T09:33:24Z</time>
      </trkpt>
      <trkpt lat="48.08722" lon="-2.98549">
        <ele>56.8</ele>
        <time>2021-08-09T09:33:25Z</time>
      </trkpt>
      <trkpt lat="48.08726" lon="-2.98552">
        <ele>56.8</ele>
        <time>2021-08-09T09:33:26Z</time>
      </trkpt>
      <trkpt lat="48.0873" lon="-2.98554">
        <ele>56.8</ele>
        <time>2021-08-09T09:33:27Z</time>
      </trkpt>
      <trkpt lat="48.08734" lon="-2.98557">
        <ele>56.8</ele>
        <time>2021-08-09T09:33:28Z</time>
      </trkpt>
      <trkpt lat="48.08738" lon="-2.98559">
        <ele>56.8</ele>
        <time>2021-08-09T09:33:29Z</time>
      </trkpt>
      <trkpt lat="48.08746" lon="-2.98563">
        <ele>57</ele>
        <time>2021-08-09T09:33:31Z</time>
      </trkpt>
      <trkpt lat="48.08749" lon="-2.98565">
        <ele>57</ele>
        <time>2021-08-09T09:33:32Z</time>
      </trkpt>
      <trkpt lat="48.08753" lon="-2.98567">
        <ele>57</ele>
        <time>2021-08-09T09:33:33Z</time>
      </trkpt>
      <trkpt lat="48.08758" lon="-2.9857">
        <ele>57.2</ele>
        <time>2021-08-09T09:33:34Z</time>
      </trkpt>
      <trkpt lat="48.08762" lon="-2.98572">
        <ele>57.2</ele>
        <time>2021-08-09T09:33:35Z</time>
      </trkpt>
      <trkpt lat="48.08766" lon="-2.98574">
        <ele>57.2</ele>
        <time>2021-08-09T09:33:36Z</time>
      </trkpt>
      <trkpt lat="48.0877" lon="-2.98577">
        <ele>57.2</ele>
        <time>2021-08-09T09:33:37Z</time>
      </trkpt>
      <trkpt lat="48.08774" lon="-2.98579">
        <ele>57.2</ele>
        <time>2021-08-09T09:33:38Z</time>
      </trkpt>
      <trkpt lat="48.08778" lon="-2.98582">
        <ele>57.2</ele>
        <time>2021-08-09T09:33:39Z</time>
      </trkpt>
      <trkpt lat="48.08782" lon="-2.98585">
        <ele>57.2</ele>
        <time>2021-08-09T09:33:40Z</time>
      </trkpt>
      <trkpt lat="48.08791" lon="-2.9859">
        <ele>57.4</ele>
        <time>2021-08-09T09:33:42Z</time>
      </trkpt>
      <trkpt lat="48.08795" lon="-2.98593">
        <ele>57.6</ele>
        <time>2021-08-09T09:33:43Z</time>
      </trkpt>
      <trkpt lat="48.088" lon="-2.98596">
        <ele>57.6</ele>
        <time>2021-08-09T09:33:44Z</time>
      </trkpt>
      <trkpt lat="48.08804" lon="-2.98599">
        <ele>57.6</ele>
        <time>2021-08-09T09:33:45Z</time>
      </trkpt>
      <trkpt lat="48.08808" lon="-2.98601">
        <ele>57.6</ele>
        <time>2021-08-09T09:33:46Z</time>
      </trkpt>
      <trkpt lat="48.08812" lon="-2.98604">
        <ele>57.6</ele>
        <time>2021-08-09T09:33:47Z</time>
      </trkpt>
      <trkpt lat="48.08816" lon="-2.98607">
        <ele>57.6</ele>
        <time>2021-08-09T09:33:48Z</time>
      </trkpt>
      <trkpt lat="48.0882" lon="-2.9861">
        <ele>57.6</ele>
        <time>2021-08-09T09:33:49Z</time>
      </trkpt>
      <trkpt lat="48.08824" lon="-2.98613">
        <ele>57.6</ele>
        <time>2021-08-09T09:33:50Z</time>
      </trkpt>
      <trkpt lat="48.08829" lon="-2.98616">
        <ele>57.6</ele>
        <time>2021-08-09T09:33:51Z</time>
      </trkpt>
      <trkpt lat="48.08837" lon="-2.98623">
        <ele>57.6</ele>
        <time>2021-08-09T09:33:53Z</time>
      </trkpt>
      <trkpt lat="48.08841" lon="-2.98627">
        <ele>57.6</ele>
        <time>2021-08-09T09:33:54Z</time>
      </trkpt>
      <trkpt lat="48.08846" lon="-2.9863">
        <ele>57.6</ele>
        <time>2021-08-09T09:33:55Z</time>
      </trkpt>
      <trkpt lat="48.0885" lon="-2.98634">
        <ele>57.6</ele>
        <time>2021-08-09T09:33:56Z</time>
      </trkpt>
      <trkpt lat="48.08854" lon="-2.98637">
        <ele>57.6</ele>
        <time>2021-08-09T09:33:57Z</time>
      </trkpt>
      <trkpt lat="48.08857" lon="-2.9864">
        <ele>57.6</ele>
        <time>2021-08-09T09:33:58Z</time>
      </trkpt>
      <trkpt lat="48.08861" lon="-2.98643">
        <ele>57.6</ele>
        <time>2021-08-09T09:33:59Z</time>
      </trkpt>
      <trkpt lat="48.08865" lon="-2.98646">
        <ele>57.6</ele>
        <time>2021-08-09T09:34:00Z</time>
      </trkpt>
      <trkpt lat="48.08868" lon="-2.98649">
        <ele>57.6</ele>
        <time>2021-08-09T09:34:01Z</time>
      </trkpt>
      <trkpt lat="48.08872" lon="-2.98652">
        <ele>57.6</ele>
        <time>2021-08-09T09:34:02Z</time>
      </trkpt>
      <trkpt lat="48.08879" lon="-2.98658">
        <ele>57.8</ele>
        <time>2021-08-09T09:34:04Z</time>
      </trkpt>
      <trkpt lat="48.08883" lon="-2.98662">
        <ele>57.8</ele>
        <time>2021-08-09T09:34:05Z</time>
      </trkpt>
      <trkpt lat="48.08886" lon="-2.98665">
        <ele>57.8</ele>
        <time>2021-08-09T09:34:06Z</time>
      </trkpt>
      <trkpt lat="48.0889" lon="-2.98668">
        <ele>57.8</ele>
        <time>2021-08-09T09:34:07Z</time>
      </trkpt>
      <trkpt lat="48.08894" lon="-2.98672">
        <ele>57.8</ele>
        <time>2021-08-09T09:34:08Z</time>
      </trkpt>
      <trkpt lat="48.08897" lon="-2.98674">
        <ele>57.8</ele>
        <time>2021-08-09T09:34:09Z</time>
      </trkpt>
      <trkpt lat="48.08901" lon="-2.98677">
        <ele>57.8</ele>
        <time>2021-08-09T09:34:10Z</time>
      </trkpt>
      <trkpt lat="48.08905" lon="-2.9868">
        <ele>57.8</ele>
        <time>2021-08-09T09:34:11Z</time>
      </trkpt>
      <trkpt lat="48.08909" lon="-2.98682">
        <ele>57.8</ele>
        <time>2021-08-09T09:34:12Z</time>
      </trkpt>
      <trkpt lat="48.08912" lon="-2.98685">
        <ele>57.8</ele>
        <time>2021-08-09T09:34:13Z</time>
      </trkpt>
      <trkpt lat="48.08919" lon="-2.9869">
        <ele>57.8</ele>
        <time>2021-08-09T09:34:15Z</time>
      </trkpt>
      <trkpt lat="48.08923" lon="-2.98694">
        <ele>57.6</ele>
        <time>2021-08-09T09:34:16Z</time>
      </trkpt>
      <trkpt lat="48.08927" lon="-2.98697">
        <ele>57.6</ele>
        <time>2021-08-09T09:34:17Z</time>
      </trkpt>
      <trkpt lat="48.0893" lon="-2.98701">
        <ele>57.6</ele>
        <time>2021-08-09T09:34:18Z</time>
      </trkpt>
      <trkpt lat="48.08934" lon="-2.98705">
        <ele>57.6</ele>
        <time>2021-08-09T09:34:19Z</time>
      </trkpt>
      <trkpt lat="48.08938" lon="-2.98709">
        <ele>57.6</ele>
        <time>2021-08-09T09:34:20Z</time>
      </trkpt>
      <trkpt lat="48.08942" lon="-2.98714">
        <ele>57.6</ele>
        <time>2021-08-09T09:34:21Z</time>
      </trkpt>
      <trkpt lat="48.08946" lon="-2.98718">
        <ele>57.6</ele>
        <time>2021-08-09T09:34:22Z</time>
      </trkpt>
      <trkpt lat="48.0895" lon="-2.98722">
        <ele>57.6</ele>
        <time>2021-08-09T09:34:23Z</time>
      </trkpt>
      <trkpt lat="48.08955" lon="-2.98726">
        <ele>57.6</ele>
        <time>2021-08-09T09:34:24Z</time>
      </trkpt>
      <trkpt lat="48.08964" lon="-2.98734">
        <ele>57.6</ele>
        <time>2021-08-09T09:34:26Z</time>
      </trkpt>
      <trkpt lat="48.08968" lon="-2.98739">
        <ele>57.6</ele>
        <time>2021-08-09T09:34:27Z</time>
      </trkpt>
      <trkpt lat="48.08973" lon="-2.98743">
        <ele>57.6</ele>
        <time>2021-08-09T09:34:28Z</time>
      </trkpt>
      <trkpt lat="48.08977" lon="-2.98747">
        <ele>57.6</ele>
        <time>2021-08-09T09:34:29Z</time>
      </trkpt>
      <trkpt lat="48.08981" lon="-2.98752">
        <ele>57.6</ele>
        <time>2021-08-09T09:34:30Z</time>
      </trkpt>
      <trkpt lat="48.08985" lon="-2.98756">
        <ele>57.8</ele>
        <time>2021-08-09T09:34:31Z</time>
      </trkpt>
      <trkpt lat="48.08989" lon="-2.9876">
        <ele>57.8</ele>
        <time>2021-08-09T09:34:32Z</time>
      </trkpt>
      <trkpt lat="48.08993" lon="-2.98764">
        <ele>57.8</ele>
        <time>2021-08-09T09:34:33Z</time>
      </trkpt>
      <trkpt lat="48.08997" lon="-2.98768">
        <ele>57.8</ele>
        <time>2021-08-09T09:34:34Z</time>
      </trkpt>
      <trkpt lat="48.09" lon="-2.98771">
        <ele>57.8</ele>
        <time>2021-08-09T09:34:35Z</time>
      </trkpt>
      <trkpt lat="48.09008" lon="-2.98779">
        <ele>57.8</ele>
        <time>2021-08-09T09:34:37Z</time>
      </trkpt>
      <trkpt lat="48.09011" lon="-2.98783">
        <ele>57.8</ele>
        <time>2021-08-09T09:34:38Z</time>
      </trkpt>
      <trkpt lat="48.09014" lon="-2.98787">
        <ele>57.8</ele>
        <time>2021-08-09T09:34:39Z</time>
      </trkpt>
      <trkpt lat="48.09017" lon="-2.9879">
        <ele>57.8</ele>
        <time>2021-08-09T09:34:40Z</time>
      </trkpt>
      <trkpt lat="48.09021" lon="-2.98794">
        <ele>57.8</ele>
        <time>2021-08-09T09:34:41Z</time>
      </trkpt>
      <trkpt lat="48.09024" lon="-2.98797">
        <ele>57.8</ele>
        <time>2021-08-09T09:34:42Z</time>
      </trkpt>
      <trkpt lat="48.09026" lon="-2.98801">
        <ele>57.8</ele>
        <time>2021-08-09T09:34:43Z</time>
      </trkpt>
      <trkpt lat="48.09029" lon="-2.98804">
        <ele>57.8</ele>
        <time>2021-08-09T09:34:44Z</time>
      </trkpt>
      <trkpt lat="48.09032" lon="-2.98807">
        <ele>58</ele>
        <time>2021-08-09T09:34:45Z</time>
      </trkpt>
      <trkpt lat="48.09034" lon="-2.9881">
        <ele>58</ele>
        <time>2021-08-09T09:34:46Z</time>
      </trkpt>
      <trkpt lat="48.09039" lon="-2.98817">
        <ele>58.2</ele>
        <time>2021-08-09T09:34:48Z</time>
      </trkpt>
      <trkpt lat="48.09042" lon="-2.98821">
        <ele>58.2</ele>
        <time>2021-08-09T09:34:49Z</time>
      </trkpt>
      <trkpt lat="48.09045" lon="-2.98825">
        <ele>58.2</ele>
        <time>2021-08-09T09:34:50Z</time>
      </trkpt>
      <trkpt lat="48.09048" lon="-2.98829">
        <ele>58.2</ele>
        <time>2021-08-09T09:34:51Z</time>
      </trkpt>
      <trkpt lat="48.09052" lon="-2.98833">
        <ele>58.2</ele>
        <time>2021-08-09T09:34:52Z</time>
      </trkpt>
      <trkpt lat="48.09055" lon="-2.98837">
        <ele>58.4</ele>
        <time>2021-08-09T09:34:53Z</time>
      </trkpt>
      <trkpt lat="48.09058" lon="-2.98841">
        <ele>58.4</ele>
        <time>2021-08-09T09:34:54Z</time>
      </trkpt>
      <trkpt lat="48.09062" lon="-2.98845">
        <ele>58.4</ele>
        <time>2021-08-09T09:34:55Z</time>
      </trkpt>
      <trkpt lat="48.09065" lon="-2.9885">
        <ele>58.4</ele>
        <time>2021-08-09T09:34:56Z</time>
      </trkpt>
      <trkpt lat="48.09068" lon="-2.98855">
        <ele>58.4</ele>
        <time>2021-08-09T09:34:57Z</time>
      </trkpt>
      <trkpt lat="48.09072" lon="-2.9886">
        <ele>58.4</ele>
        <time>2021-08-09T09:34:58Z</time>
      </trkpt>
      <trkpt lat="48.09075" lon="-2.98864">
        <ele>58.4</ele>
        <time>2021-08-09T09:34:59Z</time>
      </trkpt>
      <trkpt lat="48.09078" lon="-2.98869">
        <ele>58.4</ele>
        <time>2021-08-09T09:35:00Z</time>
      </trkpt>
      <trkpt lat="48.09082" lon="-2.98873">
        <ele>58.4</ele>
        <time>2021-08-09T09:35:01Z</time>
      </trkpt>
      <trkpt lat="48.09085" lon="-2.98877">
        <ele>58.4</ele>
        <time>2021-08-09T09:35:02Z</time>
      </trkpt>
      <trkpt lat="48.09088" lon="-2.98881">
        <ele>58.4</ele>
        <time>2021-08-09T09:35:03Z</time>
      </trkpt>
      <trkpt lat="48.09091" lon="-2.98885">
        <ele>58.4</ele>
        <time>2021-08-09T09:35:04Z</time>
      </trkpt>
      <trkpt lat="48.09094" lon="-2.98889">
        <ele>58.4</ele>
        <time>2021-08-09T09:35:05Z</time>
      </trkpt>
      <trkpt lat="48.09097" lon="-2.98893">
        <ele>58.4</ele>
        <time>2021-08-09T09:35:06Z</time>
      </trkpt>
      <trkpt lat="48.09099" lon="-2.98897">
        <ele>58.4</ele>
        <time>2021-08-09T09:35:07Z</time>
      </trkpt>
      <trkpt lat="48.09102" lon="-2.989">
        <ele>58.4</ele>
        <time>2021-08-09T09:35:08Z</time>
      </trkpt>
      <trkpt lat="48.09109" lon="-2.98907">
        <ele>58.4</ele>
        <time>2021-08-09T09:35:10Z</time>
      </trkpt>
      <trkpt lat="48.09112" lon="-2.98911">
        <ele>58.6</ele>
        <time>2021-08-09T09:35:11Z</time>
      </trkpt>
      <trkpt lat="48.09116" lon="-2.98914">
        <ele>58.6</ele>
        <time>2021-08-09T09:35:12Z</time>
      </trkpt>
      <trkpt lat="48.09119" lon="-2.98918">
        <ele>58.6</ele>
        <time>2021-08-09T09:35:13Z</time>
      </trkpt>
      <trkpt lat="48.09122" lon="-2.98921">
        <ele>58.6</ele>
        <time>2021-08-09T09:35:14Z</time>
      </trkpt>
      <trkpt lat="48.09126" lon="-2.98924">
        <ele>58.8</ele>
        <time>2021-08-09T09:35:15Z</time>
      </trkpt>
      <trkpt lat="48.09129" lon="-2.98927">
        <ele>58.8</ele>
        <time>2021-08-09T09:35:16Z</time>
      </trkpt>
      <trkpt lat="48.09133" lon="-2.9893">
        <ele>58.8</ele>
        <time>2021-08-09T09:35:17Z</time>
      </trkpt>
      <trkpt lat="48.09137" lon="-2.98933">
        <ele>58.8</ele>
        <time>2021-08-09T09:35:18Z</time>
      </trkpt>
      <trkpt lat="48.0914" lon="-2.98935">
        <ele>59</ele>
        <time>2021-08-09T09:35:19Z</time>
      </trkpt>
      <trkpt lat="48.09144" lon="-2.98938">
        <ele>59</ele>
        <time>2021-08-09T09:35:20Z</time>
      </trkpt>
      <trkpt lat="48.09147" lon="-2.98941">
        <ele>59</ele>
        <time>2021-08-09T09:35:21Z</time>
      </trkpt>
      <trkpt lat="48.09151" lon="-2.98944">
        <ele>59</ele>
        <time>2021-08-09T09:35:22Z</time>
      </trkpt>
      <trkpt lat="48.09155" lon="-2.98947">
        <ele>59</ele>
        <time>2021-08-09T09:35:23Z</time>
      </trkpt>
      <trkpt lat="48.09158" lon="-2.9895">
        <ele>59</ele>
        <time>2021-08-09T09:35:24Z</time>
      </trkpt>
      <trkpt lat="48.09162" lon="-2.98952">
        <ele>59</ele>
        <time>2021-08-09T09:35:25Z</time>
      </trkpt>
      <trkpt lat="48.09166" lon="-2.98955">
        <ele>59</ele>
        <time>2021-08-09T09:35:26Z</time>
      </trkpt>
      <trkpt lat="48.09169" lon="-2.98958">
        <ele>59</ele>
        <time>2021-08-09T09:35:27Z</time>
      </trkpt>
      <trkpt lat="48.09173" lon="-2.9896">
        <ele>59</ele>
        <time>2021-08-09T09:35:28Z</time>
      </trkpt>
      <trkpt lat="48.09177" lon="-2.98963">
        <ele>59.2</ele>
        <time>2021-08-09T09:35:29Z</time>
      </trkpt>
      <trkpt lat="48.0918" lon="-2.98965">
        <ele>59.2</ele>
        <time>2021-08-09T09:35:30Z</time>
      </trkpt>
      <trkpt lat="48.09187" lon="-2.98971">
        <ele>59.2</ele>
        <time>2021-08-09T09:35:32Z</time>
      </trkpt>
      <trkpt lat="48.0919" lon="-2.98973">
        <ele>59.2</ele>
        <time>2021-08-09T09:35:33Z</time>
      </trkpt>
      <trkpt lat="48.09193" lon="-2.98975">
        <ele>59.4</ele>
        <time>2021-08-09T09:35:34Z</time>
      </trkpt>
      <trkpt lat="48.09197" lon="-2.98978">
        <ele>59.4</ele>
        <time>2021-08-09T09:35:35Z</time>
      </trkpt>
      <trkpt lat="48.092" lon="-2.9898">
        <ele>59.4</ele>
        <time>2021-08-09T09:35:36Z</time>
      </trkpt>
      <trkpt lat="48.09204" lon="-2.98983">
        <ele>59.4</ele>
        <time>2021-08-09T09:35:37Z</time>
      </trkpt>
      <trkpt lat="48.09208" lon="-2.98985">
        <ele>59.4</ele>
        <time>2021-08-09T09:35:38Z</time>
      </trkpt>
      <trkpt lat="48.09212" lon="-2.98988">
        <ele>59.4</ele>
        <time>2021-08-09T09:35:39Z</time>
      </trkpt>
      <trkpt lat="48.09215" lon="-2.98991">
        <ele>59.4</ele>
        <time>2021-08-09T09:35:40Z</time>
      </trkpt>
      <trkpt lat="48.09219" lon="-2.98993">
        <ele>59.4</ele>
        <time>2021-08-09T09:35:41Z</time>
      </trkpt>
      <trkpt lat="48.09225" lon="-2.98998">
        <ele>59.4</ele>
        <time>2021-08-09T09:35:43Z</time>
      </trkpt>
      <trkpt lat="48.09229" lon="-2.99">
        <ele>59.4</ele>
        <time>2021-08-09T09:35:44Z</time>
      </trkpt>
      <trkpt lat="48.09233" lon="-2.99002">
        <ele>59.4</ele>
        <time>2021-08-09T09:35:45Z</time>
      </trkpt>
      <trkpt lat="48.09237" lon="-2.99004">
        <ele>59.4</ele>
        <time>2021-08-09T09:35:46Z</time>
      </trkpt>
      <trkpt lat="48.09241" lon="-2.99006">
        <ele>59.4</ele>
        <time>2021-08-09T09:35:47Z</time>
      </trkpt>
      <trkpt lat="48.09245" lon="-2.99008">
        <ele>59.4</ele>
        <time>2021-08-09T09:35:48Z</time>
      </trkpt>
      <trkpt lat="48.09249" lon="-2.9901">
        <ele>59.6</ele>
        <time>2021-08-09T09:35:49Z</time>
      </trkpt>
      <trkpt lat="48.09254" lon="-2.99011">
        <ele>59.6</ele>
        <time>2021-08-09T09:35:50Z</time>
      </trkpt>
      <trkpt lat="48.09258" lon="-2.99011">
        <ele>59.6</ele>
        <time>2021-08-09T09:35:51Z</time>
      </trkpt>
      <trkpt lat="48.09263" lon="-2.99011">
        <ele>59.4</ele>
        <time>2021-08-09T09:35:52Z</time>
      </trkpt>
      <trkpt lat="48.09267" lon="-2.99011">
        <ele>59.4</ele>
        <time>2021-08-09T09:35:53Z</time>
      </trkpt>
      <trkpt lat="48.09272" lon="-2.9901">
        <ele>59.4</ele>
        <time>2021-08-09T09:35:54Z</time>
      </trkpt>
      <trkpt lat="48.09277" lon="-2.99009">
        <ele>59.4</ele>
        <time>2021-08-09T09:35:55Z</time>
      </trkpt>
      <trkpt lat="48.09281" lon="-2.99008">
        <ele>59.4</ele>
        <time>2021-08-09T09:35:56Z</time>
      </trkpt>
      <trkpt lat="48.09286" lon="-2.99007">
        <ele>59.4</ele>
        <time>2021-08-09T09:35:57Z</time>
      </trkpt>
      <trkpt lat="48.0929" lon="-2.99006">
        <ele>59.4</ele>
        <time>2021-08-09T09:35:58Z</time>
      </trkpt>
      <trkpt lat="48.09294" lon="-2.99005">
        <ele>59.4</ele>
        <time>2021-08-09T09:35:59Z</time>
      </trkpt>
      <trkpt lat="48.09299" lon="-2.99004">
        <ele>59.4</ele>
        <time>2021-08-09T09:36:00Z</time>
      </trkpt>
      <trkpt lat="48.09303" lon="-2.99003">
        <ele>59.4</ele>
        <time>2021-08-09T09:36:01Z</time>
      </trkpt>
      <trkpt lat="48.09308" lon="-2.99003">
        <ele>59.4</ele>
        <time>2021-08-09T09:36:02Z</time>
      </trkpt>
      <trkpt lat="48.09312" lon="-2.99002">
        <ele>59.4</ele>
        <time>2021-08-09T09:36:03Z</time>
      </trkpt>
      <trkpt lat="48.09322" lon="-2.99">
        <ele>59.4</ele>
        <time>2021-08-09T09:36:05Z</time>
      </trkpt>
      <trkpt lat="48.09326" lon="-2.99">
        <ele>59.4</ele>
        <time>2021-08-09T09:36:06Z</time>
      </trkpt>
      <trkpt lat="48.09331" lon="-2.98999">
        <ele>59.4</ele>
        <time>2021-08-09T09:36:07Z</time>
      </trkpt>
      <trkpt lat="48.09335" lon="-2.98999">
        <ele>59.4</ele>
        <time>2021-08-09T09:36:08Z</time>
      </trkpt>
      <trkpt lat="48.0934" lon="-2.98998">
        <ele>59.4</ele>
        <time>2021-08-09T09:36:09Z</time>
      </trkpt>
      <trkpt lat="48.09345" lon="-2.98998">
        <ele>59.4</ele>
        <time>2021-08-09T09:36:10Z</time>
      </trkpt>
      <trkpt lat="48.0935" lon="-2.98998">
        <ele>59.4</ele>
        <time>2021-08-09T09:36:11Z</time>
      </trkpt>
      <trkpt lat="48.09355" lon="-2.98998">
        <ele>59.4</ele>
        <time>2021-08-09T09:36:12Z</time>
      </trkpt>
      <trkpt lat="48.0936" lon="-2.98998">
        <ele>59.4</ele>
        <time>2021-08-09T09:36:13Z</time>
      </trkpt>
      <trkpt lat="48.09365" lon="-2.98998">
        <ele>59.4</ele>
        <time>2021-08-09T09:36:14Z</time>
      </trkpt>
      <trkpt lat="48.09369" lon="-2.98998">
        <ele>59.4</ele>
        <time>2021-08-09T09:36:15Z</time>
      </trkpt>
      <trkpt lat="48.09374" lon="-2.98998">
        <ele>59.4</ele>
        <time>2021-08-09T09:36:16Z</time>
      </trkpt>
      <trkpt lat="48.09379" lon="-2.98999">
        <ele>59.4</ele>
        <time>2021-08-09T09:36:17Z</time>
      </trkpt>
      <trkpt lat="48.09384" lon="-2.98999">
        <ele>59.2</ele>
        <time>2021-08-09T09:36:18Z</time>
      </trkpt>
      <trkpt lat="48.09388" lon="-2.99">
        <ele>59.2</ele>
        <time>2021-08-09T09:36:19Z</time>
      </trkpt>
      <trkpt lat="48.09393" lon="-2.99002">
        <ele>59.2</ele>
        <time>2021-08-09T09:36:20Z</time>
      </trkpt>
      <trkpt lat="48.09398" lon="-2.99003">
        <ele>59.2</ele>
        <time>2021-08-09T09:36:21Z</time>
      </trkpt>
      <trkpt lat="48.09403" lon="-2.99005">
        <ele>59.2</ele>
        <time>2021-08-09T09:36:22Z</time>
      </trkpt>
      <trkpt lat="48.09407" lon="-2.99007">
        <ele>59</ele>
        <time>2021-08-09T09:36:23Z</time>
      </trkpt>
      <trkpt lat="48.09412" lon="-2.99008">
        <ele>59</ele>
        <time>2021-08-09T09:36:24Z</time>
      </trkpt>
      <trkpt lat="48.09416" lon="-2.9901">
        <ele>59</ele>
        <time>2021-08-09T09:36:25Z</time>
      </trkpt>
      <trkpt lat="48.09425" lon="-2.99013">
        <ele>59</ele>
        <time>2021-08-09T09:36:27Z</time>
      </trkpt>
      <trkpt lat="48.0943" lon="-2.99015">
        <ele>59</ele>
        <time>2021-08-09T09:36:28Z</time>
      </trkpt>
      <trkpt lat="48.09435" lon="-2.99017">
        <ele>59</ele>
        <time>2021-08-09T09:36:29Z</time>
      </trkpt>
      <trkpt lat="48.09439" lon="-2.99018">
        <ele>59</ele>
        <time>2021-08-09T09:36:30Z</time>
      </trkpt>
      <trkpt lat="48.09444" lon="-2.9902">
        <ele>59</ele>
        <time>2021-08-09T09:36:31Z</time>
      </trkpt>
      <trkpt lat="48.09448" lon="-2.99021">
        <ele>59</ele>
        <time>2021-08-09T09:36:32Z</time>
      </trkpt>
      <trkpt lat="48.09453" lon="-2.99023">
        <ele>58.8</ele>
        <time>2021-08-09T09:36:33Z</time>
      </trkpt>
      <trkpt lat="48.09458" lon="-2.99024">
        <ele>58.8</ele>
        <time>2021-08-09T09:36:34Z</time>
      </trkpt>
      <trkpt lat="48.09463" lon="-2.99026">
        <ele>58.8</ele>
        <time>2021-08-09T09:36:35Z</time>
      </trkpt>
      <trkpt lat="48.09467" lon="-2.99028">
        <ele>59</ele>
        <time>2021-08-09T09:36:36Z</time>
      </trkpt>
      <trkpt lat="48.09477" lon="-2.99032">
        <ele>59</ele>
        <time>2021-08-09T09:36:38Z</time>
      </trkpt>
      <trkpt lat="48.09482" lon="-2.99034">
        <ele>59</ele>
        <time>2021-08-09T09:36:39Z</time>
      </trkpt>
      <trkpt lat="48.09487" lon="-2.99036">
        <ele>59</ele>
        <time>2021-08-09T09:36:40Z</time>
      </trkpt>
      <trkpt lat="48.09492" lon="-2.99038">
        <ele>59</ele>
        <time>2021-08-09T09:36:41Z</time>
      </trkpt>
      <trkpt lat="48.09497" lon="-2.9904">
        <ele>59</ele>
        <time>2021-08-09T09:36:42Z</time>
      </trkpt>
      <trkpt lat="48.09501" lon="-2.99041">
        <ele>59</ele>
        <time>2021-08-09T09:36:43Z</time>
      </trkpt>
      <trkpt lat="48.09506" lon="-2.99043">
        <ele>59</ele>
        <time>2021-08-09T09:36:44Z</time>
      </trkpt>
      <trkpt lat="48.09511" lon="-2.99044">
        <ele>59</ele>
        <time>2021-08-09T09:36:45Z</time>
      </trkpt>
      <trkpt lat="48.09516" lon="-2.99045">
        <ele>59</ele>
        <time>2021-08-09T09:36:46Z</time>
      </trkpt>
      <trkpt lat="48.0952" lon="-2.99047">
        <ele>59</ele>
        <time>2021-08-09T09:36:47Z</time>
      </trkpt>
      <trkpt lat="48.0953" lon="-2.9905">
        <ele>59</ele>
        <time>2021-08-09T09:36:49Z</time>
      </trkpt>
      <trkpt lat="48.09534" lon="-2.99052">
        <ele>59</ele>
        <time>2021-08-09T09:36:50Z</time>
      </trkpt>
      <trkpt lat="48.09539" lon="-2.99053">
        <ele>59</ele>
        <time>2021-08-09T09:36:51Z</time>
      </trkpt>
      <trkpt lat="48.09544" lon="-2.99055">
        <ele>59</ele>
        <time>2021-08-09T09:36:52Z</time>
      </trkpt>
      <trkpt lat="48.09548" lon="-2.99057">
        <ele>59</ele>
        <time>2021-08-09T09:36:53Z</time>
      </trkpt>
      <trkpt lat="48.09553" lon="-2.99059">
        <ele>59</ele>
        <time>2021-08-09T09:36:54Z</time>
      </trkpt>
      <trkpt lat="48.09557" lon="-2.99061">
        <ele>58.8</ele>
        <time>2021-08-09T09:36:55Z</time>
      </trkpt>
      <trkpt lat="48.09561" lon="-2.99063">
        <ele>58.8</ele>
        <time>2021-08-09T09:36:56Z</time>
      </trkpt>
      <trkpt lat="48.09566" lon="-2.99065">
        <ele>58.8</ele>
        <time>2021-08-09T09:36:57Z</time>
      </trkpt>
      <trkpt lat="48.0957" lon="-2.99067">
        <ele>58.6</ele>
        <time>2021-08-09T09:36:58Z</time>
      </trkpt>
      <trkpt lat="48.09579" lon="-2.99071">
        <ele>58.4</ele>
        <time>2021-08-09T09:37:00Z</time>
      </trkpt>
      <trkpt lat="48.09583" lon="-2.99073">
        <ele>58.4</ele>
        <time>2021-08-09T09:37:01Z</time>
      </trkpt>
      <trkpt lat="48.09587" lon="-2.99075">
        <ele>58.6</ele>
        <time>2021-08-09T09:37:02Z</time>
      </trkpt>
      <trkpt lat="48.09591" lon="-2.99077">
        <ele>58.6</ele>
        <time>2021-08-09T09:37:03Z</time>
      </trkpt>
      <trkpt lat="48.09595" lon="-2.99079">
        <ele>58.6</ele>
        <time>2021-08-09T09:37:04Z</time>
      </trkpt>
      <trkpt lat="48.09599" lon="-2.99081">
        <ele>58.6</ele>
        <time>2021-08-09T09:37:05Z</time>
      </trkpt>
      <trkpt lat="48.09603" lon="-2.99083">
        <ele>58.6</ele>
        <time>2021-08-09T09:37:06Z</time>
      </trkpt>
      <trkpt lat="48.09607" lon="-2.99085">
        <ele>58.6</ele>
        <time>2021-08-09T09:37:07Z</time>
      </trkpt>
      <trkpt lat="48.09612" lon="-2.99088">
        <ele>58.6</ele>
        <time>2021-08-09T09:37:08Z</time>
      </trkpt>
      <trkpt lat="48.09616" lon="-2.9909">
        <ele>58.6</ele>
        <time>2021-08-09T09:37:09Z</time>
      </trkpt>
      <trkpt lat="48.0962" lon="-2.99093">
        <ele>58.8</ele>
        <time>2021-08-09T09:37:10Z</time>
      </trkpt>
      <trkpt lat="48.09624" lon="-2.99096">
        <ele>58.8</ele>
        <time>2021-08-09T09:37:11Z</time>
      </trkpt>
      <trkpt lat="48.09628" lon="-2.99099">
        <ele>58.8</ele>
        <time>2021-08-09T09:37:12Z</time>
      </trkpt>
      <trkpt lat="48.09631" lon="-2.99102">
        <ele>58.8</ele>
        <time>2021-08-09T09:37:13Z</time>
      </trkpt>
      <trkpt lat="48.09635" lon="-2.99105">
        <ele>58.8</ele>
        <time>2021-08-09T09:37:14Z</time>
      </trkpt>
      <trkpt lat="48.09639" lon="-2.99108">
        <ele>58.8</ele>
        <time>2021-08-09T09:37:15Z</time>
      </trkpt>
      <trkpt lat="48.09643" lon="-2.99111">
        <ele>58.8</ele>
        <time>2021-08-09T09:37:16Z</time>
      </trkpt>
      <trkpt lat="48.09647" lon="-2.99114">
        <ele>59</ele>
        <time>2021-08-09T09:37:17Z</time>
      </trkpt>
      <trkpt lat="48.09651" lon="-2.99118">
        <ele>59</ele>
        <time>2021-08-09T09:37:18Z</time>
      </trkpt>
      <trkpt lat="48.09655" lon="-2.99121">
        <ele>59</ele>
        <time>2021-08-09T09:37:19Z</time>
      </trkpt>
      <trkpt lat="48.09659" lon="-2.99124">
        <ele>59</ele>
        <time>2021-08-09T09:37:20Z</time>
      </trkpt>
      <trkpt lat="48.09667" lon="-2.99131">
        <ele>59.2</ele>
        <time>2021-08-09T09:37:22Z</time>
      </trkpt>
      <trkpt lat="48.09671" lon="-2.99135">
        <ele>59.2</ele>
        <time>2021-08-09T09:37:23Z</time>
      </trkpt>
      <trkpt lat="48.09675" lon="-2.9914">
        <ele>59.2</ele>
        <time>2021-08-09T09:37:24Z</time>
      </trkpt>
      <trkpt lat="48.09678" lon="-2.99144">
        <ele>59.2</ele>
        <time>2021-08-09T09:37:25Z</time>
      </trkpt>
      <trkpt lat="48.09682" lon="-2.99147">
        <ele>59.2</ele>
        <time>2021-08-09T09:37:26Z</time>
      </trkpt>
      <trkpt lat="48.09685" lon="-2.9915">
        <ele>59.2</ele>
        <time>2021-08-09T09:37:27Z</time>
      </trkpt>
      <trkpt lat="48.09688" lon="-2.99154">
        <ele>59.2</ele>
        <time>2021-08-09T09:37:28Z</time>
      </trkpt>
      <trkpt lat="48.0969" lon="-2.99157">
        <ele>59.2</ele>
        <time>2021-08-09T09:37:29Z</time>
      </trkpt>
      <trkpt lat="48.09693" lon="-2.99161">
        <ele>59.2</ele>
        <time>2021-08-09T09:37:30Z</time>
      </trkpt>
      <trkpt lat="48.09696" lon="-2.99166">
        <ele>59.2</ele>
        <time>2021-08-09T09:37:31Z</time>
      </trkpt>
      <trkpt lat="48.097" lon="-2.99171">
        <ele>59.2</ele>
        <time>2021-08-09T09:37:32Z</time>
      </trkpt>
      <trkpt lat="48.09704" lon="-2.99176">
        <ele>59.2</ele>
        <time>2021-08-09T09:37:33Z</time>
      </trkpt>
      <trkpt lat="48.09707" lon="-2.99181">
        <ele>59.2</ele>
        <time>2021-08-09T09:37:34Z</time>
      </trkpt>
      <trkpt lat="48.09711" lon="-2.99186">
        <ele>59.2</ele>
        <time>2021-08-09T09:37:35Z</time>
      </trkpt>
      <trkpt lat="48.09715" lon="-2.99191">
        <ele>59.2</ele>
        <time>2021-08-09T09:37:36Z</time>
      </trkpt>
      <trkpt lat="48.09718" lon="-2.99196">
        <ele>59</ele>
        <time>2021-08-09T09:37:37Z</time>
      </trkpt>
      <trkpt lat="48.09722" lon="-2.99201">
        <ele>59</ele>
        <time>2021-08-09T09:37:38Z</time>
      </trkpt>
      <trkpt lat="48.09725" lon="-2.99206">
        <ele>59</ele>
        <time>2021-08-09T09:37:39Z</time>
      </trkpt>
      <trkpt lat="48.09729" lon="-2.99211">
        <ele>59</ele>
        <time>2021-08-09T09:37:40Z</time>
      </trkpt>
      <trkpt lat="48.09732" lon="-2.99215">
        <ele>59</ele>
        <time>2021-08-09T09:37:41Z</time>
      </trkpt>
      <trkpt lat="48.09735" lon="-2.9922">
        <ele>59</ele>
        <time>2021-08-09T09:37:42Z</time>
      </trkpt>
      <trkpt lat="48.09742" lon="-2.99229">
        <ele>59</ele>
        <time>2021-08-09T09:37:44Z</time>
      </trkpt>
      <trkpt lat="48.09746" lon="-2.99234">
        <ele>59</ele>
        <time>2021-08-09T09:37:45Z</time>
      </trkpt>
      <trkpt lat="48.0975" lon="-2.99239">
        <ele>59</ele>
        <time>2021-08-09T09:37:46Z</time>
      </trkpt>
      <trkpt lat="48.09753" lon="-2.99243">
        <ele>59</ele>
        <time>2021-08-09T09:37:47Z</time>
      </trkpt>
      <trkpt lat="48.09757" lon="-2.99248">
        <ele>59</ele>
        <time>2021-08-09T09:37:48Z</time>
      </trkpt>
      <trkpt lat="48.09761" lon="-2.99253">
        <ele>59</ele>
        <time>2021-08-09T09:37:49Z</time>
      </trkpt>
      <trkpt lat="48.09764" lon="-2.99258">
        <ele>59</ele>
        <time>2021-08-09T09:37:50Z</time>
      </trkpt>
      <trkpt lat="48.09768" lon="-2.99263">
        <ele>59</ele>
        <time>2021-08-09T09:37:51Z</time>
      </trkpt>
      <trkpt lat="48.09771" lon="-2.99268">
        <ele>59</ele>
        <time>2021-08-09T09:37:52Z</time>
      </trkpt>
      <trkpt lat="48.09774" lon="-2.99272">
        <ele>59</ele>
        <time>2021-08-09T09:37:53Z</time>
      </trkpt>
      <trkpt lat="48.09781" lon="-2.99281">
        <ele>58.6</ele>
        <time>2021-08-09T09:37:55Z</time>
      </trkpt>
      <trkpt lat="48.09785" lon="-2.99285">
        <ele>58.8</ele>
        <time>2021-08-09T09:37:56Z</time>
      </trkpt>
      <trkpt lat="48.09788" lon="-2.9929">
        <ele>58.6</ele>
        <time>2021-08-09T09:37:57Z</time>
      </trkpt>
      <trkpt lat="48.09792" lon="-2.99296">
        <ele>58.6</ele>
        <time>2021-08-09T09:37:58Z</time>
      </trkpt>
      <trkpt lat="48.09796" lon="-2.99301">
        <ele>58.6</ele>
        <time>2021-08-09T09:37:59Z</time>
      </trkpt>
      <trkpt lat="48.098" lon="-2.99306">
        <ele>58.6</ele>
        <time>2021-08-09T09:38:00Z</time>
      </trkpt>
      <trkpt lat="48.09803" lon="-2.99311">
        <ele>58.4</ele>
        <time>2021-08-09T09:38:01Z</time>
      </trkpt>
      <trkpt lat="48.09807" lon="-2.99316">
        <ele>58.4</ele>
        <time>2021-08-09T09:38:02Z</time>
      </trkpt>
      <trkpt lat="48.09811" lon="-2.99321">
        <ele>58.6</ele>
        <time>2021-08-09T09:38:03Z</time>
      </trkpt>
      <trkpt lat="48.09814" lon="-2.99327">
        <ele>58.6</ele>
        <time>2021-08-09T09:38:04Z</time>
      </trkpt>
      <trkpt lat="48.09821" lon="-2.99337">
        <ele>58.6</ele>
        <time>2021-08-09T09:38:06Z</time>
      </trkpt>
      <trkpt lat="48.09824" lon="-2.99342">
        <ele>58.6</ele>
        <time>2021-08-09T09:38:07Z</time>
      </trkpt>
      <trkpt lat="48.09828" lon="-2.99348">
        <ele>58.8</ele>
        <time>2021-08-09T09:38:08Z</time>
      </trkpt>
      <trkpt lat="48.09831" lon="-2.99353">
        <ele>58.8</ele>
        <time>2021-08-09T09:38:09Z</time>
      </trkpt>
      <trkpt lat="48.09834" lon="-2.99358">
        <ele>58.8</ele>
        <time>2021-08-09T09:38:10Z</time>
      </trkpt>
      <trkpt lat="48.09837" lon="-2.99363">
        <ele>58.8</ele>
        <time>2021-08-09T09:38:11Z</time>
      </trkpt>
      <trkpt lat="48.0984" lon="-2.99368">
        <ele>58.8</ele>
        <time>2021-08-09T09:38:12Z</time>
      </trkpt>
      <trkpt lat="48.09844" lon="-2.99373">
        <ele>58.8</ele>
        <time>2021-08-09T09:38:13Z</time>
      </trkpt>
      <trkpt lat="48.09848" lon="-2.99379">
        <ele>59</ele>
        <time>2021-08-09T09:38:14Z</time>
      </trkpt>
      <trkpt lat="48.09852" lon="-2.99384">
        <ele>59</ele>
        <time>2021-08-09T09:38:15Z</time>
      </trkpt>
      <trkpt lat="48.09855" lon="-2.9939">
        <ele>59</ele>
        <time>2021-08-09T09:38:16Z</time>
      </trkpt>
      <trkpt lat="48.09858" lon="-2.99395">
        <ele>59</ele>
        <time>2021-08-09T09:38:17Z</time>
      </trkpt>
      <trkpt lat="48.09862" lon="-2.994">
        <ele>59.2</ele>
        <time>2021-08-09T09:38:18Z</time>
      </trkpt>
      <trkpt lat="48.09865" lon="-2.99405">
        <ele>59.2</ele>
        <time>2021-08-09T09:38:19Z</time>
      </trkpt>
      <trkpt lat="48.09869" lon="-2.99411">
        <ele>59.2</ele>
        <time>2021-08-09T09:38:20Z</time>
      </trkpt>
      <trkpt lat="48.09872" lon="-2.99416">
        <ele>59.2</ele>
        <time>2021-08-09T09:38:21Z</time>
      </trkpt>
      <trkpt lat="48.09875" lon="-2.99421">
        <ele>59.2</ele>
        <time>2021-08-09T09:38:22Z</time>
      </trkpt>
      <trkpt lat="48.09878" lon="-2.99426">
        <ele>59.2</ele>
        <time>2021-08-09T09:38:23Z</time>
      </trkpt>
      <trkpt lat="48.09881" lon="-2.99431">
        <ele>59.2</ele>
        <time>2021-08-09T09:38:24Z</time>
      </trkpt>
      <trkpt lat="48.09884" lon="-2.99437">
        <ele>59.2</ele>
        <time>2021-08-09T09:38:25Z</time>
      </trkpt>
      <trkpt lat="48.09887" lon="-2.99442">
        <ele>59.2</ele>
        <time>2021-08-09T09:38:26Z</time>
      </trkpt>
      <trkpt lat="48.09894" lon="-2.99452">
        <ele>59.2</ele>
        <time>2021-08-09T09:38:28Z</time>
      </trkpt>
      <trkpt lat="48.09898" lon="-2.99457">
        <ele>59.2</ele>
        <time>2021-08-09T09:38:29Z</time>
      </trkpt>
      <trkpt lat="48.09901" lon="-2.99462">
        <ele>59.2</ele>
        <time>2021-08-09T09:38:30Z</time>
      </trkpt>
      <trkpt lat="48.09904" lon="-2.99466">
        <ele>59.2</ele>
        <time>2021-08-09T09:38:31Z</time>
      </trkpt>
      <trkpt lat="48.09907" lon="-2.99472">
        <ele>59.2</ele>
        <time>2021-08-09T09:38:32Z</time>
      </trkpt>
      <trkpt lat="48.0991" lon="-2.99476">
        <ele>59</ele>
        <time>2021-08-09T09:38:33Z</time>
      </trkpt>
      <trkpt lat="48.09914" lon="-2.9948">
        <ele>59</ele>
        <time>2021-08-09T09:38:34Z</time>
      </trkpt>
      <trkpt lat="48.09918" lon="-2.99484">
        <ele>59</ele>
        <time>2021-08-09T09:38:35Z</time>
      </trkpt>
      <trkpt lat="48.09921" lon="-2.99488">
        <ele>59</ele>
        <time>2021-08-09T09:38:36Z</time>
      </trkpt>
      <trkpt lat="48.09925" lon="-2.99493">
        <ele>59</ele>
        <time>2021-08-09T09:38:37Z</time>
      </trkpt>
      <trkpt lat="48.09934" lon="-2.99501">
        <ele>58.8</ele>
        <time>2021-08-09T09:38:39Z</time>
      </trkpt>
      <trkpt lat="48.09938" lon="-2.99505">
        <ele>58.8</ele>
        <time>2021-08-09T09:38:40Z</time>
      </trkpt>
      <trkpt lat="48.09942" lon="-2.99509">
        <ele>58.8</ele>
        <time>2021-08-09T09:38:41Z</time>
      </trkpt>
      <trkpt lat="48.09947" lon="-2.99513">
        <ele>58.8</ele>
        <time>2021-08-09T09:38:42Z</time>
      </trkpt>
      <trkpt lat="48.09951" lon="-2.99517">
        <ele>58.8</ele>
        <time>2021-08-09T09:38:43Z</time>
      </trkpt>
      <trkpt lat="48.09956" lon="-2.9952">
        <ele>58.8</ele>
        <time>2021-08-09T09:38:44Z</time>
      </trkpt>
      <trkpt lat="48.0996" lon="-2.99523">
        <ele>58.8</ele>
        <time>2021-08-09T09:38:45Z</time>
      </trkpt>
      <trkpt lat="48.09964" lon="-2.99527">
        <ele>58.8</ele>
        <time>2021-08-09T09:38:46Z</time>
      </trkpt>
      <trkpt lat="48.09968" lon="-2.9953">
        <ele>58.8</ele>
        <time>2021-08-09T09:38:47Z</time>
      </trkpt>
      <trkpt lat="48.09972" lon="-2.99533">
        <ele>58.8</ele>
        <time>2021-08-09T09:38:48Z</time>
      </trkpt>
      <trkpt lat="48.09981" lon="-2.99539">
        <ele>58.8</ele>
        <time>2021-08-09T09:38:50Z</time>
      </trkpt>
      <trkpt lat="48.09985" lon="-2.99542">
        <ele>58.8</ele>
        <time>2021-08-09T09:38:51Z</time>
      </trkpt>
      <trkpt lat="48.09988" lon="-2.99544">
        <ele>58.8</ele>
        <time>2021-08-09T09:38:52Z</time>
      </trkpt>
      <trkpt lat="48.09992" lon="-2.99547">
        <ele>58.8</ele>
        <time>2021-08-09T09:38:53Z</time>
      </trkpt>
      <trkpt lat="48.09996" lon="-2.9955">
        <ele>58.8</ele>
        <time>2021-08-09T09:38:54Z</time>
      </trkpt>
      <trkpt lat="48.1" lon="-2.99553">
        <ele>58.8</ele>
        <time>2021-08-09T09:38:55Z</time>
      </trkpt>
      <trkpt lat="48.10004" lon="-2.99555">
        <ele>58.8</ele>
        <time>2021-08-09T09:38:56Z</time>
      </trkpt>
      <trkpt lat="48.10008" lon="-2.99558">
        <ele>58.8</ele>
        <time>2021-08-09T09:38:57Z</time>
      </trkpt>
      <trkpt lat="48.10012" lon="-2.99561">
        <ele>58.8</ele>
        <time>2021-08-09T09:38:58Z</time>
      </trkpt>
      <trkpt lat="48.10016" lon="-2.99564">
        <ele>58.6</ele>
        <time>2021-08-09T09:38:59Z</time>
      </trkpt>
      <trkpt lat="48.10024" lon="-2.99569">
        <ele>58.6</ele>
        <time>2021-08-09T09:39:01Z</time>
      </trkpt>
      <trkpt lat="48.10028" lon="-2.99572">
        <ele>58.6</ele>
        <time>2021-08-09T09:39:02Z</time>
      </trkpt>
      <trkpt lat="48.10033" lon="-2.99575">
        <ele>58.6</ele>
        <time>2021-08-09T09:39:03Z</time>
      </trkpt>
      <trkpt lat="48.10037" lon="-2.99579">
        <ele>58.6</ele>
        <time>2021-08-09T09:39:04Z</time>
      </trkpt>
      <trkpt lat="48.10041" lon="-2.99582">
        <ele>58.6</ele>
        <time>2021-08-09T09:39:05Z</time>
      </trkpt>
      <trkpt lat="48.10045" lon="-2.99585">
        <ele>58.6</ele>
        <time>2021-08-09T09:39:06Z</time>
      </trkpt>
      <trkpt lat="48.10049" lon="-2.99589">
        <ele>58.6</ele>
        <time>2021-08-09T09:39:07Z</time>
      </trkpt>
      <trkpt lat="48.10053" lon="-2.99592">
        <ele>58.6</ele>
        <time>2021-08-09T09:39:08Z</time>
      </trkpt>
      <trkpt lat="48.10058" lon="-2.99595">
        <ele>58.6</ele>
        <time>2021-08-09T09:39:09Z</time>
      </trkpt>
      <trkpt lat="48.10062" lon="-2.99598">
        <ele>58.6</ele>
        <time>2021-08-09T09:39:10Z</time>
      </trkpt>
      <trkpt lat="48.10071" lon="-2.99605">
        <ele>58.6</ele>
        <time>2021-08-09T09:39:12Z</time>
      </trkpt>
      <trkpt lat="48.10075" lon="-2.99608">
        <ele>58.6</ele>
        <time>2021-08-09T09:39:13Z</time>
      </trkpt>
      <trkpt lat="48.1008" lon="-2.99611">
        <ele>58.6</ele>
        <time>2021-08-09T09:39:14Z</time>
      </trkpt>
      <trkpt lat="48.10084" lon="-2.99614">
        <ele>58.6</ele>
        <time>2021-08-09T09:39:15Z</time>
      </trkpt>
      <trkpt lat="48.10088" lon="-2.99617">
        <ele>58.6</ele>
        <time>2021-08-09T09:39:16Z</time>
      </trkpt>
      <trkpt lat="48.10093" lon="-2.99619">
        <ele>58.6</ele>
        <time>2021-08-09T09:39:17Z</time>
      </trkpt>
      <trkpt lat="48.10097" lon="-2.99622">
        <ele>58.4</ele>
        <time>2021-08-09T09:39:18Z</time>
      </trkpt>
      <trkpt lat="48.10101" lon="-2.99625">
        <ele>58.4</ele>
        <time>2021-08-09T09:39:19Z</time>
      </trkpt>
      <trkpt lat="48.10106" lon="-2.99628">
        <ele>58.2</ele>
        <time>2021-08-09T09:39:20Z</time>
      </trkpt>
      <trkpt lat="48.1011" lon="-2.99631">
        <ele>58.2</ele>
        <time>2021-08-09T09:39:21Z</time>
      </trkpt>
      <trkpt lat="48.10119" lon="-2.99638">
        <ele>58</ele>
        <time>2021-08-09T09:39:23Z</time>
      </trkpt>
      <trkpt lat="48.10123" lon="-2.99641">
        <ele>58</ele>
        <time>2021-08-09T09:39:24Z</time>
      </trkpt>
      <trkpt lat="48.10128" lon="-2.99644">
        <ele>58</ele>
        <time>2021-08-09T09:39:25Z</time>
      </trkpt>
      <trkpt lat="48.10132" lon="-2.99648">
        <ele>57.8</ele>
        <time>2021-08-09T09:39:26Z</time>
      </trkpt>
      <trkpt lat="48.10137" lon="-2.99651">
        <ele>57.8</ele>
        <time>2021-08-09T09:39:27Z</time>
      </trkpt>
      <trkpt lat="48.10141" lon="-2.99654">
        <ele>57.8</ele>
        <time>2021-08-09T09:39:28Z</time>
      </trkpt>
      <trkpt lat="48.10146" lon="-2.99657">
        <ele>57.8</ele>
        <time>2021-08-09T09:39:29Z</time>
      </trkpt>
      <trkpt lat="48.1015" lon="-2.9966">
        <ele>57.8</ele>
        <time>2021-08-09T09:39:30Z</time>
      </trkpt>
      <trkpt lat="48.10155" lon="-2.99663">
        <ele>57.8</ele>
        <time>2021-08-09T09:39:31Z</time>
      </trkpt>
      <trkpt lat="48.10159" lon="-2.99666">
        <ele>57.8</ele>
        <time>2021-08-09T09:39:32Z</time>
      </trkpt>
      <trkpt lat="48.10169" lon="-2.99673">
        <ele>58</ele>
        <time>2021-08-09T09:39:34Z</time>
      </trkpt>
      <trkpt lat="48.10174" lon="-2.99676">
        <ele>58</ele>
        <time>2021-08-09T09:39:35Z</time>
      </trkpt>
      <trkpt lat="48.10178" lon="-2.99679">
        <ele>58.2</ele>
        <time>2021-08-09T09:39:36Z</time>
      </trkpt>
      <trkpt lat="48.10183" lon="-2.99683">
        <ele>58.2</ele>
        <time>2021-08-09T09:39:37Z</time>
      </trkpt>
      <trkpt lat="48.10187" lon="-2.99686">
        <ele>58.2</ele>
        <time>2021-08-09T09:39:38Z</time>
      </trkpt>
      <trkpt lat="48.10191" lon="-2.99689">
        <ele>58.2</ele>
        <time>2021-08-09T09:39:39Z</time>
      </trkpt>
      <trkpt lat="48.10196" lon="-2.99692">
        <ele>58.2</ele>
        <time>2021-08-09T09:39:40Z</time>
      </trkpt>
      <trkpt lat="48.102" lon="-2.99695">
        <ele>58.2</ele>
        <time>2021-08-09T09:39:41Z</time>
      </trkpt>
      <trkpt lat="48.10204" lon="-2.99699">
        <ele>58.2</ele>
        <time>2021-08-09T09:39:42Z</time>
      </trkpt>
      <trkpt lat="48.10209" lon="-2.99702">
        <ele>58.2</ele>
        <time>2021-08-09T09:39:43Z</time>
      </trkpt>
      <trkpt lat="48.10218" lon="-2.99709">
        <ele>58.2</ele>
        <time>2021-08-09T09:39:45Z</time>
      </trkpt>
      <trkpt lat="48.10222" lon="-2.99712">
        <ele>58.2</ele>
        <time>2021-08-09T09:39:46Z</time>
      </trkpt>
      <trkpt lat="48.10226" lon="-2.99716">
        <ele>58.2</ele>
        <time>2021-08-09T09:39:47Z</time>
      </trkpt>
      <trkpt lat="48.10231" lon="-2.99719">
        <ele>58.2</ele>
        <time>2021-08-09T09:39:48Z</time>
      </trkpt>
      <trkpt lat="48.10235" lon="-2.99722">
        <ele>58.2</ele>
        <time>2021-08-09T09:39:49Z</time>
      </trkpt>
      <trkpt lat="48.1024" lon="-2.99726">
        <ele>58.4</ele>
        <time>2021-08-09T09:39:50Z</time>
      </trkpt>
      <trkpt lat="48.10244" lon="-2.99729">
        <ele>58.4</ele>
        <time>2021-08-09T09:39:51Z</time>
      </trkpt>
      <trkpt lat="48.10249" lon="-2.99732">
        <ele>58.4</ele>
        <time>2021-08-09T09:39:52Z</time>
      </trkpt>
      <trkpt lat="48.10253" lon="-2.99735">
        <ele>58.4</ele>
        <time>2021-08-09T09:39:53Z</time>
      </trkpt>
      <trkpt lat="48.10257" lon="-2.99739">
        <ele>58.4</ele>
        <time>2021-08-09T09:39:54Z</time>
      </trkpt>
      <trkpt lat="48.10266" lon="-2.99748">
        <ele>58.4</ele>
        <time>2021-08-09T09:39:56Z</time>
      </trkpt>
      <trkpt lat="48.1027" lon="-2.99752">
        <ele>58.4</ele>
        <time>2021-08-09T09:39:57Z</time>
      </trkpt>
      <trkpt lat="48.10274" lon="-2.99756">
        <ele>58.4</ele>
        <time>2021-08-09T09:39:58Z</time>
      </trkpt>
      <trkpt lat="48.10278" lon="-2.9976">
        <ele>58.4</ele>
        <time>2021-08-09T09:39:59Z</time>
      </trkpt>
      <trkpt lat="48.10281" lon="-2.99765">
        <ele>58.4</ele>
        <time>2021-08-09T09:40:00Z</time>
      </trkpt>
      <trkpt lat="48.10285" lon="-2.99769">
        <ele>58.4</ele>
        <time>2021-08-09T09:40:01Z</time>
      </trkpt>
      <trkpt lat="48.10289" lon="-2.99773">
        <ele>58.4</ele>
        <time>2021-08-09T09:40:02Z</time>
      </trkpt>
      <trkpt lat="48.10293" lon="-2.99778">
        <ele>58.4</ele>
        <time>2021-08-09T09:40:03Z</time>
      </trkpt>
      <trkpt lat="48.10297" lon="-2.99781">
        <ele>58.4</ele>
        <time>2021-08-09T09:40:04Z</time>
      </trkpt>
      <trkpt lat="48.10301" lon="-2.99785">
        <ele>58.4</ele>
        <time>2021-08-09T09:40:05Z</time>
      </trkpt>
      <trkpt lat="48.10308" lon="-2.99793">
        <ele>58.4</ele>
        <time>2021-08-09T09:40:07Z</time>
      </trkpt>
      <trkpt lat="48.10312" lon="-2.99797">
        <ele>58.4</ele>
        <time>2021-08-09T09:40:08Z</time>
      </trkpt>
      <trkpt lat="48.10316" lon="-2.99801">
        <ele>58.4</ele>
        <time>2021-08-09T09:40:09Z</time>
      </trkpt>
      <trkpt lat="48.1032" lon="-2.99805">
        <ele>58.4</ele>
        <time>2021-08-09T09:40:10Z</time>
      </trkpt>
      <trkpt lat="48.10323" lon="-2.99809">
        <ele>58.2</ele>
        <time>2021-08-09T09:40:11Z</time>
      </trkpt>
      <trkpt lat="48.10327" lon="-2.99813">
        <ele>58.2</ele>
        <time>2021-08-09T09:40:12Z</time>
      </trkpt>
      <trkpt lat="48.10331" lon="-2.99817">
        <ele>58.2</ele>
        <time>2021-08-09T09:40:13Z</time>
      </trkpt>
      <trkpt lat="48.10334" lon="-2.99821">
        <ele>58.2</ele>
        <time>2021-08-09T09:40:14Z</time>
      </trkpt>
      <trkpt lat="48.10338" lon="-2.99825">
        <ele>58.2</ele>
        <time>2021-08-09T09:40:15Z</time>
      </trkpt>
      <trkpt lat="48.10342" lon="-2.99829">
        <ele>58</ele>
        <time>2021-08-09T09:40:16Z</time>
      </trkpt>
      <trkpt lat="48.10349" lon="-2.99837">
        <ele>58</ele>
        <time>2021-08-09T09:40:18Z</time>
      </trkpt>
      <trkpt lat="48.10352" lon="-2.9984">
        <ele>57.8</ele>
        <time>2021-08-09T09:40:19Z</time>
      </trkpt>
      <trkpt lat="48.10356" lon="-2.99844">
        <ele>57.8</ele>
        <time>2021-08-09T09:40:20Z</time>
      </trkpt>
      <trkpt lat="48.10359" lon="-2.99847">
        <ele>57.8</ele>
        <time>2021-08-09T09:40:21Z</time>
      </trkpt>
      <trkpt lat="48.10363" lon="-2.99849">
        <ele>57.8</ele>
        <time>2021-08-09T09:40:22Z</time>
      </trkpt>
      <trkpt lat="48.10366" lon="-2.99853">
        <ele>57.8</ele>
        <time>2021-08-09T09:40:23Z</time>
      </trkpt>
      <trkpt lat="48.1037" lon="-2.99856">
        <ele>57.8</ele>
        <time>2021-08-09T09:40:24Z</time>
      </trkpt>
      <trkpt lat="48.10374" lon="-2.9986">
        <ele>57.6</ele>
        <time>2021-08-09T09:40:25Z</time>
      </trkpt>
      <trkpt lat="48.10377" lon="-2.99863">
        <ele>57.6</ele>
        <time>2021-08-09T09:40:26Z</time>
      </trkpt>
      <trkpt lat="48.10381" lon="-2.99867">
        <ele>57.6</ele>
        <time>2021-08-09T09:40:27Z</time>
      </trkpt>
      <trkpt lat="48.10388" lon="-2.99876">
        <ele>57.6</ele>
        <time>2021-08-09T09:40:29Z</time>
      </trkpt>
      <trkpt lat="48.10392" lon="-2.9988">
        <ele>57.6</ele>
        <time>2021-08-09T09:40:30Z</time>
      </trkpt>
      <trkpt lat="48.10396" lon="-2.99884">
        <ele>57.6</ele>
        <time>2021-08-09T09:40:31Z</time>
      </trkpt>
      <trkpt lat="48.10399" lon="-2.99888">
        <ele>57.8</ele>
        <time>2021-08-09T09:40:32Z</time>
      </trkpt>
      <trkpt lat="48.10403" lon="-2.99891">
        <ele>57.8</ele>
        <time>2021-08-09T09:40:33Z</time>
      </trkpt>
      <trkpt lat="48.10407" lon="-2.99895">
        <ele>58</ele>
        <time>2021-08-09T09:40:34Z</time>
      </trkpt>
      <trkpt lat="48.1041" lon="-2.99899">
        <ele>58.2</ele>
        <time>2021-08-09T09:40:35Z</time>
      </trkpt>
      <trkpt lat="48.10414" lon="-2.99903">
        <ele>58.2</ele>
        <time>2021-08-09T09:40:36Z</time>
      </trkpt>
      <trkpt lat="48.10417" lon="-2.99907">
        <ele>58.2</ele>
        <time>2021-08-09T09:40:37Z</time>
      </trkpt>
      <trkpt lat="48.10421" lon="-2.99912">
        <ele>58.4</ele>
        <time>2021-08-09T09:40:38Z</time>
      </trkpt>
      <trkpt lat="48.10425" lon="-2.99916">
        <ele>58.4</ele>
        <time>2021-08-09T09:40:39Z</time>
      </trkpt>
      <trkpt lat="48.10428" lon="-2.99921">
        <ele>58.4</ele>
        <time>2021-08-09T09:40:40Z</time>
      </trkpt>
      <trkpt lat="48.10432" lon="-2.99926">
        <ele>58.4</ele>
        <time>2021-08-09T09:40:41Z</time>
      </trkpt>
      <trkpt lat="48.10436" lon="-2.9993">
        <ele>58.4</ele>
        <time>2021-08-09T09:40:42Z</time>
      </trkpt>
      <trkpt lat="48.10439" lon="-2.99934">
        <ele>58.4</ele>
        <time>2021-08-09T09:40:43Z</time>
      </trkpt>
      <trkpt lat="48.10443" lon="-2.99938">
        <ele>58.4</ele>
        <time>2021-08-09T09:40:44Z</time>
      </trkpt>
      <trkpt lat="48.10446" lon="-2.99942">
        <ele>58.2</ele>
        <time>2021-08-09T09:40:45Z</time>
      </trkpt>
      <trkpt lat="48.10449" lon="-2.99945">
        <ele>58.2</ele>
        <time>2021-08-09T09:40:46Z</time>
      </trkpt>
      <trkpt lat="48.10452" lon="-2.99949">
        <ele>58.2</ele>
        <time>2021-08-09T09:40:47Z</time>
      </trkpt>
      <trkpt lat="48.10455" lon="-2.99952">
        <ele>58</ele>
        <time>2021-08-09T09:40:48Z</time>
      </trkpt>
      <trkpt lat="48.10458" lon="-2.99956">
        <ele>58</ele>
        <time>2021-08-09T09:40:49Z</time>
      </trkpt>
      <trkpt lat="48.10466" lon="-2.99964">
        <ele>58</ele>
        <time>2021-08-09T09:40:51Z</time>
      </trkpt>
      <trkpt lat="48.10469" lon="-2.99968">
        <ele>58</ele>
        <time>2021-08-09T09:40:52Z</time>
      </trkpt>
      <trkpt lat="48.10472" lon="-2.99972">
        <ele>58</ele>
        <time>2021-08-09T09:40:53Z</time>
      </trkpt>
      <trkpt lat="48.10475" lon="-2.99977">
        <ele>58</ele>
        <time>2021-08-09T09:40:54Z</time>
      </trkpt>
      <trkpt lat="48.10478" lon="-2.99982">
        <ele>58</ele>
        <time>2021-08-09T09:40:55Z</time>
      </trkpt>
      <trkpt lat="48.10481" lon="-2.99987">
        <ele>58</ele>
        <time>2021-08-09T09:40:56Z</time>
      </trkpt>
      <trkpt lat="48.10484" lon="-2.99992">
        <ele>58</ele>
        <time>2021-08-09T09:40:57Z</time>
      </trkpt>
      <trkpt lat="48.10487" lon="-2.99996">
        <ele>58</ele>
        <time>2021-08-09T09:40:58Z</time>
      </trkpt>
      <trkpt lat="48.1049" lon="-3">
        <ele>58</ele>
        <time>2021-08-09T09:40:59Z</time>
      </trkpt>
      <trkpt lat="48.10493" lon="-3.00004">
        <ele>58.2</ele>
        <time>2021-08-09T09:41:00Z</time>
      </trkpt>
      <trkpt lat="48.10499" lon="-3.00014">
        <ele>58.2</ele>
        <time>2021-08-09T09:41:02Z</time>
      </trkpt>
      <trkpt lat="48.10501" lon="-3.00019">
        <ele>58.2</ele>
        <time>2021-08-09T09:41:03Z</time>
      </trkpt>
      <trkpt lat="48.10504" lon="-3.00023">
        <ele>58.2</ele>
        <time>2021-08-09T09:41:04Z</time>
      </trkpt>
      <trkpt lat="48.10507" lon="-3.00028">
        <ele>58.2</ele>
        <time>2021-08-09T09:41:05Z</time>
      </trkpt>
      <trkpt lat="48.1051" lon="-3.00033">
        <ele>58.2</ele>
        <time>2021-08-09T09:41:06Z</time>
      </trkpt>
      <trkpt lat="48.10513" lon="-3.00038">
        <ele>58.2</ele>
        <time>2021-08-09T09:41:07Z</time>
      </trkpt>
      <trkpt lat="48.10516" lon="-3.00043">
        <ele>58.2</ele>
        <time>2021-08-09T09:41:08Z</time>
      </trkpt>
      <trkpt lat="48.10519" lon="-3.00048">
        <ele>58.2</ele>
        <time>2021-08-09T09:41:09Z</time>
      </trkpt>
      <trkpt lat="48.10521" lon="-3.00053">
        <ele>58.2</ele>
        <time>2021-08-09T09:41:10Z</time>
      </trkpt>
      <trkpt lat="48.10524" lon="-3.00058">
        <ele>58.2</ele>
        <time>2021-08-09T09:41:11Z</time>
      </trkpt>
      <trkpt lat="48.1053" lon="-3.00068">
        <ele>58.2</ele>
        <time>2021-08-09T09:41:13Z</time>
      </trkpt>
      <trkpt lat="48.10533" lon="-3.00071">
        <ele>58</ele>
        <time>2021-08-09T09:41:14Z</time>
      </trkpt>
      <trkpt lat="48.10537" lon="-3.00076">
        <ele>58.2</ele>
        <time>2021-08-09T09:41:15Z</time>
      </trkpt>
      <trkpt lat="48.1054" lon="-3.0008">
        <ele>58.2</ele>
        <time>2021-08-09T09:41:16Z</time>
      </trkpt>
      <trkpt lat="48.10544" lon="-3.00085">
        <ele>58.2</ele>
        <time>2021-08-09T09:41:17Z</time>
      </trkpt>
      <trkpt lat="48.10548" lon="-3.0009">
        <ele>58.2</ele>
        <time>2021-08-09T09:41:18Z</time>
      </trkpt>
      <trkpt lat="48.10553" lon="-3.00095">
        <ele>58.2</ele>
        <time>2021-08-09T09:41:19Z</time>
      </trkpt>
      <trkpt lat="48.10557" lon="-3.00101">
        <ele>58.2</ele>
        <time>2021-08-09T09:41:20Z</time>
      </trkpt>
      <trkpt lat="48.10561" lon="-3.00105">
        <ele>58.2</ele>
        <time>2021-08-09T09:41:21Z</time>
      </trkpt>
      <trkpt lat="48.10565" lon="-3.0011">
        <ele>58.2</ele>
        <time>2021-08-09T09:41:22Z</time>
      </trkpt>
      <trkpt lat="48.10573" lon="-3.00118">
        <ele>58</ele>
        <time>2021-08-09T09:41:24Z</time>
      </trkpt>
      <trkpt lat="48.10578" lon="-3.00122">
        <ele>58</ele>
        <time>2021-08-09T09:41:25Z</time>
      </trkpt>
      <trkpt lat="48.10582" lon="-3.00126">
        <ele>58</ele>
        <time>2021-08-09T09:41:26Z</time>
      </trkpt>
      <trkpt lat="48.10586" lon="-3.0013">
        <ele>58</ele>
        <time>2021-08-09T09:41:27Z</time>
      </trkpt>
      <trkpt lat="48.1059" lon="-3.00134">
        <ele>58</ele>
        <time>2021-08-09T09:41:28Z</time>
      </trkpt>
      <trkpt lat="48.10594" lon="-3.00138">
        <ele>58</ele>
        <time>2021-08-09T09:41:29Z</time>
      </trkpt>
      <trkpt lat="48.10598" lon="-3.00141">
        <ele>58</ele>
        <time>2021-08-09T09:41:30Z</time>
      </trkpt>
      <trkpt lat="48.10601" lon="-3.00144">
        <ele>58</ele>
        <time>2021-08-09T09:41:31Z</time>
      </trkpt>
      <trkpt lat="48.10605" lon="-3.00147">
        <ele>58</ele>
        <time>2021-08-09T09:41:32Z</time>
      </trkpt>
      <trkpt lat="48.10609" lon="-3.00151">
        <ele>58</ele>
        <time>2021-08-09T09:41:33Z</time>
      </trkpt>
      <trkpt lat="48.10618" lon="-3.0016">
        <ele>57.8</ele>
        <time>2021-08-09T09:41:35Z</time>
      </trkpt>
      <trkpt lat="48.10622" lon="-3.00165">
        <ele>57.8</ele>
        <time>2021-08-09T09:41:36Z</time>
      </trkpt>
      <trkpt lat="48.10626" lon="-3.00169">
        <ele>57.8</ele>
        <time>2021-08-09T09:41:37Z</time>
      </trkpt>
      <trkpt lat="48.1063" lon="-3.00174">
        <ele>57.8</ele>
        <time>2021-08-09T09:41:38Z</time>
      </trkpt>
      <trkpt lat="48.10634" lon="-3.00179">
        <ele>57.8</ele>
        <time>2021-08-09T09:41:39Z</time>
      </trkpt>
      <trkpt lat="48.10638" lon="-3.00183">
        <ele>57.6</ele>
        <time>2021-08-09T09:41:40Z</time>
      </trkpt>
      <trkpt lat="48.10642" lon="-3.00188">
        <ele>57.6</ele>
        <time>2021-08-09T09:41:41Z</time>
      </trkpt>
      <trkpt lat="48.10646" lon="-3.00191">
        <ele>57.6</ele>
        <time>2021-08-09T09:41:42Z</time>
      </trkpt>
      <trkpt lat="48.1065" lon="-3.00195">
        <ele>57.6</ele>
        <time>2021-08-09T09:41:43Z</time>
      </trkpt>
      <trkpt lat="48.10654" lon="-3.00199">
        <ele>57.6</ele>
        <time>2021-08-09T09:41:44Z</time>
      </trkpt>
      <trkpt lat="48.10661" lon="-3.00207">
        <ele>57.6</ele>
        <time>2021-08-09T09:41:46Z</time>
      </trkpt>
      <trkpt lat="48.10665" lon="-3.00211">
        <ele>57.6</ele>
        <time>2021-08-09T09:41:47Z</time>
      </trkpt>
      <trkpt lat="48.10668" lon="-3.00214">
        <ele>57.6</ele>
        <time>2021-08-09T09:41:48Z</time>
      </trkpt>
      <trkpt lat="48.10672" lon="-3.00217">
        <ele>57.6</ele>
        <time>2021-08-09T09:41:49Z</time>
      </trkpt>
      <trkpt lat="48.10676" lon="-3.00221">
        <ele>57.8</ele>
        <time>2021-08-09T09:41:50Z</time>
      </trkpt>
      <trkpt lat="48.10679" lon="-3.00225">
        <ele>57.8</ele>
        <time>2021-08-09T09:41:51Z</time>
      </trkpt>
      <trkpt lat="48.10683" lon="-3.00229">
        <ele>57.8</ele>
        <time>2021-08-09T09:41:52Z</time>
      </trkpt>
      <trkpt lat="48.10687" lon="-3.00234">
        <ele>57.8</ele>
        <time>2021-08-09T09:41:53Z</time>
      </trkpt>
      <trkpt lat="48.10691" lon="-3.00238">
        <ele>57.8</ele>
        <time>2021-08-09T09:41:54Z</time>
      </trkpt>
      <trkpt lat="48.10695" lon="-3.00243">
        <ele>57.8</ele>
        <time>2021-08-09T09:41:55Z</time>
      </trkpt>
      <trkpt lat="48.10703" lon="-3.00252">
        <ele>57.8</ele>
        <time>2021-08-09T09:41:57Z</time>
      </trkpt>
      <trkpt lat="48.10707" lon="-3.00256">
        <ele>57.8</ele>
        <time>2021-08-09T09:41:58Z</time>
      </trkpt>
      <trkpt lat="48.10711" lon="-3.0026">
        <ele>58</ele>
        <time>2021-08-09T09:41:59Z</time>
      </trkpt>
      <trkpt lat="48.10715" lon="-3.00265">
        <ele>58</ele>
        <time>2021-08-09T09:42:00Z</time>
      </trkpt>
      <trkpt lat="48.10719" lon="-3.00269">
        <ele>58</ele>
        <time>2021-08-09T09:42:01Z</time>
      </trkpt>
      <trkpt lat="48.10722" lon="-3.00273">
        <ele>58.2</ele>
        <time>2021-08-09T09:42:02Z</time>
      </trkpt>
      <trkpt lat="48.10726" lon="-3.00277">
        <ele>58.2</ele>
        <time>2021-08-09T09:42:03Z</time>
      </trkpt>
      <trkpt lat="48.1073" lon="-3.00281">
        <ele>58.2</ele>
        <time>2021-08-09T09:42:04Z</time>
      </trkpt>
      <trkpt lat="48.10734" lon="-3.00285">
        <ele>58.4</ele>
        <time>2021-08-09T09:42:05Z</time>
      </trkpt>
      <trkpt lat="48.10737" lon="-3.00289">
        <ele>58.4</ele>
        <time>2021-08-09T09:42:06Z</time>
      </trkpt>
      <trkpt lat="48.10741" lon="-3.00293">
        <ele>58.4</ele>
        <time>2021-08-09T09:42:07Z</time>
      </trkpt>
      <trkpt lat="48.10744" lon="-3.00297">
        <ele>58.4</ele>
        <time>2021-08-09T09:42:08Z</time>
      </trkpt>
      <trkpt lat="48.10747" lon="-3.00301">
        <ele>58.6</ele>
        <time>2021-08-09T09:42:09Z</time>
      </trkpt>
      <trkpt lat="48.10751" lon="-3.00305">
        <ele>58.6</ele>
        <time>2021-08-09T09:42:10Z</time>
      </trkpt>
      <trkpt lat="48.10755" lon="-3.00309">
        <ele>58.6</ele>
        <time>2021-08-09T09:42:11Z</time>
      </trkpt>
      <trkpt lat="48.10758" lon="-3.00313">
        <ele>58.6</ele>
        <time>2021-08-09T09:42:12Z</time>
      </trkpt>
      <trkpt lat="48.10761" lon="-3.00317">
        <ele>58.6</ele>
        <time>2021-08-09T09:42:13Z</time>
      </trkpt>
      <trkpt lat="48.10765" lon="-3.0032">
        <ele>58.6</ele>
        <time>2021-08-09T09:42:14Z</time>
      </trkpt>
      <trkpt lat="48.10769" lon="-3.00324">
        <ele>58.6</ele>
        <time>2021-08-09T09:42:15Z</time>
      </trkpt>
      <trkpt lat="48.10772" lon="-3.00327">
        <ele>58.4</ele>
        <time>2021-08-09T09:42:16Z</time>
      </trkpt>
      <trkpt lat="48.10776" lon="-3.00331">
        <ele>58.4</ele>
        <time>2021-08-09T09:42:17Z</time>
      </trkpt>
      <trkpt lat="48.10783" lon="-3.00339">
        <ele>58.4</ele>
        <time>2021-08-09T09:42:19Z</time>
      </trkpt>
      <trkpt lat="48.10787" lon="-3.00343">
        <ele>58.4</ele>
        <time>2021-08-09T09:42:20Z</time>
      </trkpt>
      <trkpt lat="48.10791" lon="-3.00347">
        <ele>58.2</ele>
        <time>2021-08-09T09:42:21Z</time>
      </trkpt>
      <trkpt lat="48.10795" lon="-3.00351">
        <ele>58.2</ele>
        <time>2021-08-09T09:42:22Z</time>
      </trkpt>
      <trkpt lat="48.10798" lon="-3.00355">
        <ele>58.2</ele>
        <time>2021-08-09T09:42:23Z</time>
      </trkpt>
      <trkpt lat="48.10802" lon="-3.00359">
        <ele>58.2</ele>
        <time>2021-08-09T09:42:24Z</time>
      </trkpt>
      <trkpt lat="48.10806" lon="-3.00363">
        <ele>58</ele>
        <time>2021-08-09T09:42:25Z</time>
      </trkpt>
      <trkpt lat="48.10811" lon="-3.00367">
        <ele>58</ele>
        <time>2021-08-09T09:42:26Z</time>
      </trkpt>
      <trkpt lat="48.10815" lon="-3.0037">
        <ele>58</ele>
        <time>2021-08-09T09:42:27Z</time>
      </trkpt>
      <trkpt lat="48.10819" lon="-3.00372">
        <ele>58</ele>
        <time>2021-08-09T09:42:28Z</time>
      </trkpt>
      <trkpt lat="48.10828" lon="-3.00376">
        <ele>58</ele>
        <time>2021-08-09T09:42:30Z</time>
      </trkpt>
      <trkpt lat="48.10832" lon="-3.00379">
        <ele>58</ele>
        <time>2021-08-09T09:42:31Z</time>
      </trkpt>
      <trkpt lat="48.10835" lon="-3.0038">
        <ele>58</ele>
        <time>2021-08-09T09:42:32Z</time>
      </trkpt>
      <trkpt lat="48.10839" lon="-3.00382">
        <ele>58</ele>
        <time>2021-08-09T09:42:33Z</time>
      </trkpt>
      <trkpt lat="48.10843" lon="-3.00384">
        <ele>58</ele>
        <time>2021-08-09T09:42:34Z</time>
      </trkpt>
      <trkpt lat="48.10847" lon="-3.00386">
        <ele>58</ele>
        <time>2021-08-09T09:42:35Z</time>
      </trkpt>
      <trkpt lat="48.10851" lon="-3.00387">
        <ele>58</ele>
        <time>2021-08-09T09:42:36Z</time>
      </trkpt>
      <trkpt lat="48.10855" lon="-3.00389">
        <ele>58</ele>
        <time>2021-08-09T09:42:37Z</time>
      </trkpt>
      <trkpt lat="48.10859" lon="-3.0039">
        <ele>58</ele>
        <time>2021-08-09T09:42:38Z</time>
      </trkpt>
      <trkpt lat="48.10863" lon="-3.00391">
        <ele>58</ele>
        <time>2021-08-09T09:42:39Z</time>
      </trkpt>
      <trkpt lat="48.10872" lon="-3.00395">
        <ele>58</ele>
        <time>2021-08-09T09:42:41Z</time>
      </trkpt>
      <trkpt lat="48.10877" lon="-3.00397">
        <ele>58</ele>
        <time>2021-08-09T09:42:42Z</time>
      </trkpt>
      <trkpt lat="48.10882" lon="-3.00399">
        <ele>58</ele>
        <time>2021-08-09T09:42:43Z</time>
      </trkpt>
      <trkpt lat="48.10887" lon="-3.00402">
        <ele>58</ele>
        <time>2021-08-09T09:42:44Z</time>
      </trkpt>
      <trkpt lat="48.10892" lon="-3.00403">
        <ele>57.8</ele>
        <time>2021-08-09T09:42:45Z</time>
      </trkpt>
      <trkpt lat="48.10897" lon="-3.00404">
        <ele>58</ele>
        <time>2021-08-09T09:42:46Z</time>
      </trkpt>
      <trkpt lat="48.10901" lon="-3.00406">
        <ele>58</ele>
        <time>2021-08-09T09:42:47Z</time>
      </trkpt>
      <trkpt lat="48.10906" lon="-3.00408">
        <ele>58</ele>
        <time>2021-08-09T09:42:48Z</time>
      </trkpt>
      <trkpt lat="48.1091" lon="-3.00409">
        <ele>58</ele>
        <time>2021-08-09T09:42:49Z</time>
      </trkpt>
      <trkpt lat="48.10914" lon="-3.00411">
        <ele>58</ele>
        <time>2021-08-09T09:42:50Z</time>
      </trkpt>
      <trkpt lat="48.10923" lon="-3.00414">
        <ele>58</ele>
        <time>2021-08-09T09:42:52Z</time>
      </trkpt>
      <trkpt lat="48.10928" lon="-3.00416">
        <ele>58</ele>
        <time>2021-08-09T09:42:53Z</time>
      </trkpt>
      <trkpt lat="48.10933" lon="-3.00417">
        <ele>58</ele>
        <time>2021-08-09T09:42:54Z</time>
      </trkpt>
      <trkpt lat="48.10938" lon="-3.00419">
        <ele>58</ele>
        <time>2021-08-09T09:42:55Z</time>
      </trkpt>
      <trkpt lat="48.10943" lon="-3.0042">
        <ele>58</ele>
        <time>2021-08-09T09:42:56Z</time>
      </trkpt>
      <trkpt lat="48.10948" lon="-3.00421">
        <ele>58</ele>
        <time>2021-08-09T09:42:57Z</time>
      </trkpt>
      <trkpt lat="48.10952" lon="-3.00422">
        <ele>58.2</ele>
        <time>2021-08-09T09:42:58Z</time>
      </trkpt>
      <trkpt lat="48.10957" lon="-3.00423">
        <ele>58.2</ele>
        <time>2021-08-09T09:42:59Z</time>
      </trkpt>
      <trkpt lat="48.10961" lon="-3.00424">
        <ele>58.2</ele>
        <time>2021-08-09T09:43:00Z</time>
      </trkpt>
      <trkpt lat="48.10966" lon="-3.00423">
        <ele>58.2</ele>
        <time>2021-08-09T09:43:01Z</time>
      </trkpt>
      <trkpt lat="48.10971" lon="-3.00423">
        <ele>58.2</ele>
        <time>2021-08-09T09:43:02Z</time>
      </trkpt>
      <trkpt lat="48.10976" lon="-3.00423">
        <ele>58.2</ele>
        <time>2021-08-09T09:43:03Z</time>
      </trkpt>
      <trkpt lat="48.1098" lon="-3.00422">
        <ele>58.2</ele>
        <time>2021-08-09T09:43:04Z</time>
      </trkpt>
      <trkpt lat="48.10985" lon="-3.00421">
        <ele>58.2</ele>
        <time>2021-08-09T09:43:05Z</time>
      </trkpt>
      <trkpt lat="48.1099" lon="-3.0042">
        <ele>58.2</ele>
        <time>2021-08-09T09:43:06Z</time>
      </trkpt>
      <trkpt lat="48.10995" lon="-3.00418">
        <ele>58.2</ele>
        <time>2021-08-09T09:43:07Z</time>
      </trkpt>
      <trkpt lat="48.11" lon="-3.00416">
        <ele>58.2</ele>
        <time>2021-08-09T09:43:08Z</time>
      </trkpt>
      <trkpt lat="48.11004" lon="-3.00414">
        <ele>58.2</ele>
        <time>2021-08-09T09:43:09Z</time>
      </trkpt>
      <trkpt lat="48.11008" lon="-3.00413">
        <ele>58.2</ele>
        <time>2021-08-09T09:43:10Z</time>
      </trkpt>
      <trkpt lat="48.11012" lon="-3.00411">
        <ele>58.2</ele>
        <time>2021-08-09T09:43:11Z</time>
      </trkpt>
      <trkpt lat="48.11016" lon="-3.00409">
        <ele>58.2</ele>
        <time>2021-08-09T09:43:12Z</time>
      </trkpt>
      <trkpt lat="48.1102" lon="-3.00407">
        <ele>58.2</ele>
        <time>2021-08-09T09:43:13Z</time>
      </trkpt>
      <trkpt lat="48.11024" lon="-3.00406">
        <ele>58.2</ele>
        <time>2021-08-09T09:43:14Z</time>
      </trkpt>
      <trkpt lat="48.11028" lon="-3.00404">
        <ele>58.2</ele>
        <time>2021-08-09T09:43:15Z</time>
      </trkpt>
      <trkpt lat="48.11033" lon="-3.00403">
        <ele>58.2</ele>
        <time>2021-08-09T09:43:16Z</time>
      </trkpt>
      <trkpt lat="48.11037" lon="-3.00402">
        <ele>58.4</ele>
        <time>2021-08-09T09:43:17Z</time>
      </trkpt>
      <trkpt lat="48.1104" lon="-3.004">
        <ele>58.4</ele>
        <time>2021-08-09T09:43:18Z</time>
      </trkpt>
      <trkpt lat="48.11044" lon="-3.00399">
        <ele>58.4</ele>
        <time>2021-08-09T09:43:19Z</time>
      </trkpt>
      <trkpt lat="48.11047" lon="-3.00399">
        <ele>58.4</ele>
        <time>2021-08-09T09:43:20Z</time>
      </trkpt>
      <trkpt lat="48.11051" lon="-3.00398">
        <ele>58.2</ele>
        <time>2021-08-09T09:43:21Z</time>
      </trkpt>
      <trkpt lat="48.11056" lon="-3.00397">
        <ele>58.4</ele>
        <time>2021-08-09T09:43:22Z</time>
      </trkpt>
      <trkpt lat="48.1106" lon="-3.00395">
        <ele>58.4</ele>
        <time>2021-08-09T09:43:23Z</time>
      </trkpt>
      <trkpt lat="48.11069" lon="-3.00392">
        <ele>58.4</ele>
        <time>2021-08-09T09:43:25Z</time>
      </trkpt>
      <trkpt lat="48.11074" lon="-3.00391">
        <ele>58.4</ele>
        <time>2021-08-09T09:43:26Z</time>
      </trkpt>
      <trkpt lat="48.11078" lon="-3.00388">
        <ele>58.4</ele>
        <time>2021-08-09T09:43:27Z</time>
      </trkpt>
      <trkpt lat="48.11083" lon="-3.00387">
        <ele>58.4</ele>
        <time>2021-08-09T09:43:28Z</time>
      </trkpt>
      <trkpt lat="48.11087" lon="-3.00385">
        <ele>58.4</ele>
        <time>2021-08-09T09:43:29Z</time>
      </trkpt>
      <trkpt lat="48.11092" lon="-3.00383">
        <ele>58.4</ele>
        <time>2021-08-09T09:43:30Z</time>
      </trkpt>
      <trkpt lat="48.11096" lon="-3.00381">
        <ele>58.4</ele>
        <time>2021-08-09T09:43:31Z</time>
      </trkpt>
      <trkpt lat="48.11101" lon="-3.0038">
        <ele>58.4</ele>
        <time>2021-08-09T09:43:32Z</time>
      </trkpt>
      <trkpt lat="48.11105" lon="-3.00378">
        <ele>58.4</ele>
        <time>2021-08-09T09:43:33Z</time>
      </trkpt>
      <trkpt lat="48.1111" lon="-3.00376">
        <ele>58.4</ele>
        <time>2021-08-09T09:43:34Z</time>
      </trkpt>
      <trkpt lat="48.1112" lon="-3.00372">
        <ele>58.4</ele>
        <time>2021-08-09T09:43:36Z</time>
      </trkpt>
      <trkpt lat="48.11125" lon="-3.0037">
        <ele>58.4</ele>
        <time>2021-08-09T09:43:37Z</time>
      </trkpt>
      <trkpt lat="48.1113" lon="-3.00368">
        <ele>58.4</ele>
        <time>2021-08-09T09:43:38Z</time>
      </trkpt>
      <trkpt lat="48.11135" lon="-3.00366">
        <ele>58.4</ele>
        <time>2021-08-09T09:43:39Z</time>
      </trkpt>
      <trkpt lat="48.11139" lon="-3.00364">
        <ele>58.4</ele>
        <time>2021-08-09T09:43:40Z</time>
      </trkpt>
      <trkpt lat="48.11144" lon="-3.00361">
        <ele>58.4</ele>
        <time>2021-08-09T09:43:41Z</time>
      </trkpt>
      <trkpt lat="48.11149" lon="-3.00359">
        <ele>58.4</ele>
        <time>2021-08-09T09:43:42Z</time>
      </trkpt>
      <trkpt lat="48.11153" lon="-3.00356">
        <ele>58.4</ele>
        <time>2021-08-09T09:43:43Z</time>
      </trkpt>
      <trkpt lat="48.11157" lon="-3.00353">
        <ele>58.4</ele>
        <time>2021-08-09T09:43:44Z</time>
      </trkpt>
      <trkpt lat="48.11162" lon="-3.0035">
        <ele>58.4</ele>
        <time>2021-08-09T09:43:45Z</time>
      </trkpt>
      <trkpt lat="48.1117" lon="-3.00345">
        <ele>58.4</ele>
        <time>2021-08-09T09:43:47Z</time>
      </trkpt>
      <trkpt lat="48.11175" lon="-3.00342">
        <ele>58.4</ele>
        <time>2021-08-09T09:43:48Z</time>
      </trkpt>
      <trkpt lat="48.1118" lon="-3.00338">
        <ele>58.4</ele>
        <time>2021-08-09T09:43:49Z</time>
      </trkpt>
      <trkpt lat="48.11185" lon="-3.00335">
        <ele>58.4</ele>
        <time>2021-08-09T09:43:50Z</time>
      </trkpt>
      <trkpt lat="48.11189" lon="-3.00332">
        <ele>58.4</ele>
        <time>2021-08-09T09:43:51Z</time>
      </trkpt>
      <trkpt lat="48.11192" lon="-3.00329">
        <ele>58.4</ele>
        <time>2021-08-09T09:43:52Z</time>
      </trkpt>
      <trkpt lat="48.11195" lon="-3.00325">
        <ele>58.4</ele>
        <time>2021-08-09T09:43:53Z</time>
      </trkpt>
      <trkpt lat="48.11199" lon="-3.00322">
        <ele>58.4</ele>
        <time>2021-08-09T09:43:54Z</time>
      </trkpt>
      <trkpt lat="48.11202" lon="-3.00318">
        <ele>58.4</ele>
        <time>2021-08-09T09:43:55Z</time>
      </trkpt>
      <trkpt lat="48.11205" lon="-3.00315">
        <ele>58.4</ele>
        <time>2021-08-09T09:43:56Z</time>
      </trkpt>
      <trkpt lat="48.11211" lon="-3.00307">
        <ele>58.6</ele>
        <time>2021-08-09T09:43:58Z</time>
      </trkpt>
      <trkpt lat="48.11214" lon="-3.00303">
        <ele>58.6</ele>
        <time>2021-08-09T09:43:59Z</time>
      </trkpt>
      <trkpt lat="48.11217" lon="-3.00299">
        <ele>58.6</ele>
        <time>2021-08-09T09:44:00Z</time>
      </trkpt>
      <trkpt lat="48.11219" lon="-3.00295">
        <ele>58.6</ele>
        <time>2021-08-09T09:44:01Z</time>
      </trkpt>
      <trkpt lat="48.11221" lon="-3.00291">
        <ele>58.6</ele>
        <time>2021-08-09T09:44:02Z</time>
      </trkpt>
      <trkpt lat="48.11223" lon="-3.00287">
        <ele>58.4</ele>
        <time>2021-08-09T09:44:03Z</time>
      </trkpt>
      <trkpt lat="48.11226" lon="-3.00282">
        <ele>58.4</ele>
        <time>2021-08-09T09:44:04Z</time>
      </trkpt>
      <trkpt lat="48.1123" lon="-3.00278">
        <ele>58.6</ele>
        <time>2021-08-09T09:44:05Z</time>
      </trkpt>
      <trkpt lat="48.11233" lon="-3.00273">
        <ele>58.6</ele>
        <time>2021-08-09T09:44:06Z</time>
      </trkpt>
      <trkpt lat="48.11236" lon="-3.00269">
        <ele>58.6</ele>
        <time>2021-08-09T09:44:07Z</time>
      </trkpt>
      <trkpt lat="48.11242" lon="-3.00261">
        <ele>58.6</ele>
        <time>2021-08-09T09:44:09Z</time>
      </trkpt>
      <trkpt lat="48.11245" lon="-3.00256">
        <ele>58.8</ele>
        <time>2021-08-09T09:44:10Z</time>
      </trkpt>
      <trkpt lat="48.11248" lon="-3.00251">
        <ele>58.8</ele>
        <time>2021-08-09T09:44:11Z</time>
      </trkpt>
      <trkpt lat="48.11251" lon="-3.00247">
        <ele>58.8</ele>
        <time>2021-08-09T09:44:12Z</time>
      </trkpt>
      <trkpt lat="48.11253" lon="-3.00242">
        <ele>58.8</ele>
        <time>2021-08-09T09:44:13Z</time>
      </trkpt>
      <trkpt lat="48.11256" lon="-3.00237">
        <ele>58.8</ele>
        <time>2021-08-09T09:44:14Z</time>
      </trkpt>
      <trkpt lat="48.11259" lon="-3.00232">
        <ele>58.8</ele>
        <time>2021-08-09T09:44:15Z</time>
      </trkpt>
      <trkpt lat="48.11262" lon="-3.00226">
        <ele>58.8</ele>
        <time>2021-08-09T09:44:16Z</time>
      </trkpt>
      <trkpt lat="48.11265" lon="-3.0022">
        <ele>58.8</ele>
        <time>2021-08-09T09:44:17Z</time>
      </trkpt>
      <trkpt lat="48.1127" lon="-3.00214">
        <ele>58.8</ele>
        <time>2021-08-09T09:44:18Z</time>
      </trkpt>
      <trkpt lat="48.11278" lon="-3.00202">
        <ele>58.8</ele>
        <time>2021-08-09T09:44:20Z</time>
      </trkpt>
      <trkpt lat="48.11282" lon="-3.00196">
        <ele>58.8</ele>
        <time>2021-08-09T09:44:21Z</time>
      </trkpt>
      <trkpt lat="48.11285" lon="-3.00189">
        <ele>59</ele>
        <time>2021-08-09T09:44:22Z</time>
      </trkpt>
      <trkpt lat="48.11288" lon="-3.00182">
        <ele>59</ele>
        <time>2021-08-09T09:44:23Z</time>
      </trkpt>
      <trkpt lat="48.11291" lon="-3.00175">
        <ele>59</ele>
        <time>2021-08-09T09:44:24Z</time>
      </trkpt>
      <trkpt lat="48.11294" lon="-3.00169">
        <ele>59</ele>
        <time>2021-08-09T09:44:25Z</time>
      </trkpt>
      <trkpt lat="48.11295" lon="-3.00162">
        <ele>59</ele>
        <time>2021-08-09T09:44:26Z</time>
      </trkpt>
      <trkpt lat="48.11297" lon="-3.00155">
        <ele>59</ele>
        <time>2021-08-09T09:44:27Z</time>
      </trkpt>
      <trkpt lat="48.11299" lon="-3.00149">
        <ele>59</ele>
        <time>2021-08-09T09:44:28Z</time>
      </trkpt>
      <trkpt lat="48.11301" lon="-3.00143">
        <ele>59</ele>
        <time>2021-08-09T09:44:29Z</time>
      </trkpt>
      <trkpt lat="48.11303" lon="-3.0013">
        <ele>59.2</ele>
        <time>2021-08-09T09:44:31Z</time>
      </trkpt>
      <trkpt lat="48.11304" lon="-3.00123">
        <ele>59.4</ele>
        <time>2021-08-09T09:44:32Z</time>
      </trkpt>
      <trkpt lat="48.11306" lon="-3.00116">
        <ele>59.4</ele>
        <time>2021-08-09T09:44:33Z</time>
      </trkpt>
      <trkpt lat="48.11308" lon="-3.0011">
        <ele>59.4</ele>
        <time>2021-08-09T09:44:34Z</time>
      </trkpt>
      <trkpt lat="48.11309" lon="-3.00103">
        <ele>59.6</ele>
        <time>2021-08-09T09:44:35Z</time>
      </trkpt>
      <trkpt lat="48.11311" lon="-3.00096">
        <ele>59.6</ele>
        <time>2021-08-09T09:44:36Z</time>
      </trkpt>
      <trkpt lat="48.11312" lon="-3.0009">
        <ele>59.6</ele>
        <time>2021-08-09T09:44:37Z</time>
      </trkpt>
      <trkpt lat="48.11313" lon="-3.00083">
        <ele>59.6</ele>
        <time>2021-08-09T09:44:38Z</time>
      </trkpt>
      <trkpt lat="48.11314" lon="-3.00077">
        <ele>59.8</ele>
        <time>2021-08-09T09:44:39Z</time>
      </trkpt>
      <trkpt lat="48.11315" lon="-3.00071">
        <ele>59.8</ele>
        <time>2021-08-09T09:44:40Z</time>
      </trkpt>
      <trkpt lat="48.11317" lon="-3.00064">
        <ele>59.8</ele>
        <time>2021-08-09T09:44:41Z</time>
      </trkpt>
      <trkpt lat="48.11318" lon="-3.00058">
        <ele>59.8</ele>
        <time>2021-08-09T09:44:42Z</time>
      </trkpt>
      <trkpt lat="48.11319" lon="-3.00051">
        <ele>59.8</ele>
        <time>2021-08-09T09:44:43Z</time>
      </trkpt>
      <trkpt lat="48.1132" lon="-3.00044">
        <ele>59.8</ele>
        <time>2021-08-09T09:44:44Z</time>
      </trkpt>
      <trkpt lat="48.11321" lon="-3.00037">
        <ele>60</ele>
        <time>2021-08-09T09:44:45Z</time>
      </trkpt>
      <trkpt lat="48.11323" lon="-3.0003">
        <ele>60</ele>
        <time>2021-08-09T09:44:46Z</time>
      </trkpt>
      <trkpt lat="48.11324" lon="-3.00023">
        <ele>60</ele>
        <time>2021-08-09T09:44:47Z</time>
      </trkpt>
      <trkpt lat="48.11326" lon="-3.00016">
        <ele>60</ele>
        <time>2021-08-09T09:44:48Z</time>
      </trkpt>
      <trkpt lat="48.11327" lon="-3.00009">
        <ele>60</ele>
        <time>2021-08-09T09:44:49Z</time>
      </trkpt>
      <trkpt lat="48.11328" lon="-3.00003">
        <ele>60</ele>
        <time>2021-08-09T09:44:50Z</time>
      </trkpt>
      <trkpt lat="48.11329" lon="-2.99996">
        <ele>60</ele>
        <time>2021-08-09T09:44:51Z</time>
      </trkpt>
      <trkpt lat="48.11331" lon="-2.99984">
        <ele>60</ele>
        <time>2021-08-09T09:44:53Z</time>
      </trkpt>
      <trkpt lat="48.11332" lon="-2.99978">
        <ele>60</ele>
        <time>2021-08-09T09:44:54Z</time>
      </trkpt>
      <trkpt lat="48.11333" lon="-2.99971">
        <ele>60</ele>
        <time>2021-08-09T09:44:55Z</time>
      </trkpt>
      <trkpt lat="48.11334" lon="-2.99966">
        <ele>60</ele>
        <time>2021-08-09T09:44:56Z</time>
      </trkpt>
      <trkpt lat="48.11336" lon="-2.99962">
        <ele>60</ele>
        <time>2021-08-09T09:44:57Z</time>
      </trkpt>
      <trkpt lat="48.11337" lon="-2.99958">
        <ele>60</ele>
        <time>2021-08-09T09:44:58Z</time>
      </trkpt>
      <trkpt lat="48.11337" lon="-2.99956">
        <ele>59.8</ele>
        <time>2021-08-09T09:44:59Z</time>
      </trkpt>
      <trkpt lat="48.11337" lon="-2.99954">
        <ele>59.8</ele>
        <time>2021-08-09T09:45:00Z</time>
      </trkpt>
      <trkpt lat="48.11337" lon="-2.99951">
        <ele>59.8</ele>
        <time>2021-08-09T09:45:01Z</time>
      </trkpt>
      <trkpt lat="48.11337" lon="-2.99949">
        <ele>59.8</ele>
        <time>2021-08-09T09:45:02Z</time>
      </trkpt>
      <trkpt lat="48.11338" lon="-2.99942">
        <ele>59.8</ele>
        <time>2021-08-09T09:45:04Z</time>
      </trkpt>
      <trkpt lat="48.11338" lon="-2.99939">
        <ele>60</ele>
        <time>2021-08-09T09:45:05Z</time>
      </trkpt>
      <trkpt lat="48.11339" lon="-2.99934">
        <ele>60</ele>
        <time>2021-08-09T09:45:06Z</time>
      </trkpt>
      <trkpt lat="48.11339" lon="-2.9993">
        <ele>60</ele>
        <time>2021-08-09T09:45:07Z</time>
      </trkpt>
      <trkpt lat="48.1134" lon="-2.99925">
        <ele>60.2</ele>
        <time>2021-08-09T09:45:08Z</time>
      </trkpt>
      <trkpt lat="48.1134" lon="-2.9992">
        <ele>60.4</ele>
        <time>2021-08-09T09:45:09Z</time>
      </trkpt>
      <trkpt lat="48.11341" lon="-2.99914">
        <ele>60.4</ele>
        <time>2021-08-09T09:45:10Z</time>
      </trkpt>
      <trkpt lat="48.11341" lon="-2.99908">
        <ele>60.4</ele>
        <time>2021-08-09T09:45:11Z</time>
      </trkpt>
      <trkpt lat="48.11342" lon="-2.99902">
        <ele>60.4</ele>
        <time>2021-08-09T09:45:12Z</time>
      </trkpt>
      <trkpt lat="48.11343" lon="-2.99895">
        <ele>60.4</ele>
        <time>2021-08-09T09:45:13Z</time>
      </trkpt>
      <trkpt lat="48.11344" lon="-2.99882">
        <ele>60.4</ele>
        <time>2021-08-09T09:45:15Z</time>
      </trkpt>
      <trkpt lat="48.11345" lon="-2.99875">
        <ele>60.2</ele>
        <time>2021-08-09T09:45:16Z</time>
      </trkpt>
      <trkpt lat="48.11346" lon="-2.99868">
        <ele>60.2</ele>
        <time>2021-08-09T09:45:17Z</time>
      </trkpt>
      <trkpt lat="48.11347" lon="-2.9986">
        <ele>60</ele>
        <time>2021-08-09T09:45:18Z</time>
      </trkpt>
      <trkpt lat="48.11348" lon="-2.99853">
        <ele>59.8</ele>
        <time>2021-08-09T09:45:19Z</time>
      </trkpt>
      <trkpt lat="48.11349" lon="-2.99846">
        <ele>59.8</ele>
        <time>2021-08-09T09:45:20Z</time>
      </trkpt>
      <trkpt lat="48.11349" lon="-2.99839">
        <ele>59.8</ele>
        <time>2021-08-09T09:45:21Z</time>
      </trkpt>
      <trkpt lat="48.1135" lon="-2.99832">
        <ele>59.8</ele>
        <time>2021-08-09T09:45:22Z</time>
      </trkpt>
      <trkpt lat="48.11351" lon="-2.99825">
        <ele>59.8</ele>
        <time>2021-08-09T09:45:23Z</time>
      </trkpt>
      <trkpt lat="48.11351" lon="-2.99818">
        <ele>59.8</ele>
        <time>2021-08-09T09:45:24Z</time>
      </trkpt>
      <trkpt lat="48.11353" lon="-2.99803">
        <ele>59.8</ele>
        <time>2021-08-09T09:45:26Z</time>
      </trkpt>
      <trkpt lat="48.11353" lon="-2.99796">
        <ele>59.8</ele>
        <time>2021-08-09T09:45:27Z</time>
      </trkpt>
      <trkpt lat="48.11354" lon="-2.99789">
        <ele>59.8</ele>
        <time>2021-08-09T09:45:28Z</time>
      </trkpt>
      <trkpt lat="48.11354" lon="-2.99782">
        <ele>59.8</ele>
        <time>2021-08-09T09:45:29Z</time>
      </trkpt>
      <trkpt lat="48.11355" lon="-2.99775">
        <ele>59.8</ele>
        <time>2021-08-09T09:45:30Z</time>
      </trkpt>
      <trkpt lat="48.11356" lon="-2.99769">
        <ele>59.8</ele>
        <time>2021-08-09T09:45:31Z</time>
      </trkpt>
      <trkpt lat="48.11357" lon="-2.99762">
        <ele>59.8</ele>
        <time>2021-08-09T09:45:32Z</time>
      </trkpt>
      <trkpt lat="48.11358" lon="-2.99755">
        <ele>59.8</ele>
        <time>2021-08-09T09:45:33Z</time>
      </trkpt>
      <trkpt lat="48.11358" lon="-2.99749">
        <ele>60</ele>
        <time>2021-08-09T09:45:34Z</time>
      </trkpt>
      <trkpt lat="48.11359" lon="-2.99742">
        <ele>60</ele>
        <time>2021-08-09T09:45:35Z</time>
      </trkpt>
      <trkpt lat="48.11361" lon="-2.99727">
        <ele>60</ele>
        <time>2021-08-09T09:45:37Z</time>
      </trkpt>
      <trkpt lat="48.11362" lon="-2.99721">
        <ele>60</ele>
        <time>2021-08-09T09:45:38Z</time>
      </trkpt>
      <trkpt lat="48.11363" lon="-2.99713">
        <ele>60</ele>
        <time>2021-08-09T09:45:39Z</time>
      </trkpt>
      <trkpt lat="48.11364" lon="-2.99706">
        <ele>60</ele>
        <time>2021-08-09T09:45:40Z</time>
      </trkpt>
      <trkpt lat="48.11364" lon="-2.99698">
        <ele>60</ele>
        <time>2021-08-09T09:45:41Z</time>
      </trkpt>
      <trkpt lat="48.11365" lon="-2.9969">
        <ele>60</ele>
        <time>2021-08-09T09:45:42Z</time>
      </trkpt>
      <trkpt lat="48.11366" lon="-2.99682">
        <ele>60</ele>
        <time>2021-08-09T09:45:43Z</time>
      </trkpt>
      <trkpt lat="48.11367" lon="-2.99675">
        <ele>60</ele>
        <time>2021-08-09T09:45:44Z</time>
      </trkpt>
      <trkpt lat="48.11367" lon="-2.99667">
        <ele>60</ele>
        <time>2021-08-09T09:45:45Z</time>
      </trkpt>
      <trkpt lat="48.11368" lon="-2.9966">
        <ele>60</ele>
        <time>2021-08-09T09:45:46Z</time>
      </trkpt>
      <trkpt lat="48.11369" lon="-2.99652">
        <ele>60</ele>
        <time>2021-08-09T09:45:47Z</time>
      </trkpt>
      <trkpt lat="48.1137" lon="-2.99646">
        <ele>60</ele>
        <time>2021-08-09T09:45:48Z</time>
      </trkpt>
      <trkpt lat="48.11371" lon="-2.99639">
        <ele>60</ele>
        <time>2021-08-09T09:45:49Z</time>
      </trkpt>
      <trkpt lat="48.11372" lon="-2.99632">
        <ele>60</ele>
        <time>2021-08-09T09:45:50Z</time>
      </trkpt>
      <trkpt lat="48.11373" lon="-2.99625">
        <ele>60.2</ele>
        <time>2021-08-09T09:45:51Z</time>
      </trkpt>
      <trkpt lat="48.11375" lon="-2.99618">
        <ele>60.2</ele>
        <time>2021-08-09T09:45:52Z</time>
      </trkpt>
      <trkpt lat="48.11376" lon="-2.99612">
        <ele>60.2</ele>
        <time>2021-08-09T09:45:53Z</time>
      </trkpt>
      <trkpt lat="48.11378" lon="-2.99605">
        <ele>60.2</ele>
        <time>2021-08-09T09:45:54Z</time>
      </trkpt>
      <trkpt lat="48.1138" lon="-2.99598">
        <ele>60.2</ele>
        <time>2021-08-09T09:45:55Z</time>
      </trkpt>
      <trkpt lat="48.11382" lon="-2.99592">
        <ele>60.2</ele>
        <time>2021-08-09T09:45:56Z</time>
      </trkpt>
      <trkpt lat="48.11383" lon="-2.99586">
        <ele>60.2</ele>
        <time>2021-08-09T09:45:57Z</time>
      </trkpt>
      <trkpt lat="48.11387" lon="-2.99573">
        <ele>60.4</ele>
        <time>2021-08-09T09:45:59Z</time>
      </trkpt>
      <trkpt lat="48.1139" lon="-2.99568">
        <ele>60.4</ele>
        <time>2021-08-09T09:46:00Z</time>
      </trkpt>
      <trkpt lat="48.11392" lon="-2.99562">
        <ele>60.4</ele>
        <time>2021-08-09T09:46:01Z</time>
      </trkpt>
      <trkpt lat="48.11396" lon="-2.99557">
        <ele>60.4</ele>
        <time>2021-08-09T09:46:02Z</time>
      </trkpt>
      <trkpt lat="48.11399" lon="-2.99552">
        <ele>60.4</ele>
        <time>2021-08-09T09:46:03Z</time>
      </trkpt>
      <trkpt lat="48.11402" lon="-2.99547">
        <ele>60.4</ele>
        <time>2021-08-09T09:46:04Z</time>
      </trkpt>
      <trkpt lat="48.11405" lon="-2.99542">
        <ele>60.4</ele>
        <time>2021-08-09T09:46:05Z</time>
      </trkpt>
      <trkpt lat="48.11409" lon="-2.99537">
        <ele>60.4</ele>
        <time>2021-08-09T09:46:06Z</time>
      </trkpt>
      <trkpt lat="48.11413" lon="-2.99532">
        <ele>60.4</ele>
        <time>2021-08-09T09:46:07Z</time>
      </trkpt>
      <trkpt lat="48.11417" lon="-2.99527">
        <ele>60.4</ele>
        <time>2021-08-09T09:46:08Z</time>
      </trkpt>
      <trkpt lat="48.11425" lon="-2.99518">
        <ele>60.4</ele>
        <time>2021-08-09T09:46:10Z</time>
      </trkpt>
      <trkpt lat="48.11429" lon="-2.99514">
        <ele>60.4</ele>
        <time>2021-08-09T09:46:11Z</time>
      </trkpt>
      <trkpt lat="48.11433" lon="-2.9951">
        <ele>60.2</ele>
        <time>2021-08-09T09:46:12Z</time>
      </trkpt>
      <trkpt lat="48.11437" lon="-2.99506">
        <ele>60.2</ele>
        <time>2021-08-09T09:46:13Z</time>
      </trkpt>
      <trkpt lat="48.11441" lon="-2.99502">
        <ele>60.2</ele>
        <time>2021-08-09T09:46:14Z</time>
      </trkpt>
      <trkpt lat="48.11445" lon="-2.99498">
        <ele>60</ele>
        <time>2021-08-09T09:46:15Z</time>
      </trkpt>
      <trkpt lat="48.1145" lon="-2.99494">
        <ele>60</ele>
        <time>2021-08-09T09:46:16Z</time>
      </trkpt>
      <trkpt lat="48.11454" lon="-2.9949">
        <ele>60</ele>
        <time>2021-08-09T09:46:17Z</time>
      </trkpt>
      <trkpt lat="48.11458" lon="-2.99487">
        <ele>60</ele>
        <time>2021-08-09T09:46:18Z</time>
      </trkpt>
      <trkpt lat="48.11462" lon="-2.99483">
        <ele>60</ele>
        <time>2021-08-09T09:46:19Z</time>
      </trkpt>
      <trkpt lat="48.1147" lon="-2.99476">
        <ele>60</ele>
        <time>2021-08-09T09:46:21Z</time>
      </trkpt>
      <trkpt lat="48.11475" lon="-2.99473">
        <ele>60</ele>
        <time>2021-08-09T09:46:22Z</time>
      </trkpt>
      <trkpt lat="48.11479" lon="-2.99469">
        <ele>60</ele>
        <time>2021-08-09T09:46:23Z</time>
      </trkpt>
      <trkpt lat="48.11483" lon="-2.99466">
        <ele>60</ele>
        <time>2021-08-09T09:46:24Z</time>
      </trkpt>
      <trkpt lat="48.11487" lon="-2.99462">
        <ele>60</ele>
        <time>2021-08-09T09:46:25Z</time>
      </trkpt>
      <trkpt lat="48.11491" lon="-2.99458">
        <ele>60</ele>
        <time>2021-08-09T09:46:26Z</time>
      </trkpt>
      <trkpt lat="48.11495" lon="-2.99455">
        <ele>60</ele>
        <time>2021-08-09T09:46:27Z</time>
      </trkpt>
      <trkpt lat="48.11499" lon="-2.99451">
        <ele>60.2</ele>
        <time>2021-08-09T09:46:28Z</time>
      </trkpt>
      <trkpt lat="48.11502" lon="-2.99448">
        <ele>60.2</ele>
        <time>2021-08-09T09:46:29Z</time>
      </trkpt>
      <trkpt lat="48.11505" lon="-2.99444">
        <ele>60.2</ele>
        <time>2021-08-09T09:46:30Z</time>
      </trkpt>
      <trkpt lat="48.11512" lon="-2.99436">
        <ele>60.2</ele>
        <time>2021-08-09T09:46:32Z</time>
      </trkpt>
      <trkpt lat="48.11515" lon="-2.99433">
        <ele>60.2</ele>
        <time>2021-08-09T09:46:33Z</time>
      </trkpt>
      <trkpt lat="48.11518" lon="-2.99429">
        <ele>60.2</ele>
        <time>2021-08-09T09:46:34Z</time>
      </trkpt>
      <trkpt lat="48.11522" lon="-2.99425">
        <ele>60.2</ele>
        <time>2021-08-09T09:46:35Z</time>
      </trkpt>
      <trkpt lat="48.11526" lon="-2.99421">
        <ele>60.2</ele>
        <time>2021-08-09T09:46:36Z</time>
      </trkpt>
      <trkpt lat="48.1153" lon="-2.99417">
        <ele>60.2</ele>
        <time>2021-08-09T09:46:37Z</time>
      </trkpt>
      <trkpt lat="48.11534" lon="-2.99413">
        <ele>60.2</ele>
        <time>2021-08-09T09:46:38Z</time>
      </trkpt>
      <trkpt lat="48.11539" lon="-2.99409">
        <ele>60.2</ele>
        <time>2021-08-09T09:46:39Z</time>
      </trkpt>
      <trkpt lat="48.11543" lon="-2.99405">
        <ele>60.2</ele>
        <time>2021-08-09T09:46:40Z</time>
      </trkpt>
      <trkpt lat="48.11547" lon="-2.99401">
        <ele>60.2</ele>
        <time>2021-08-09T09:46:41Z</time>
      </trkpt>
      <trkpt lat="48.11555" lon="-2.99393">
        <ele>60.2</ele>
        <time>2021-08-09T09:46:43Z</time>
      </trkpt>
      <trkpt lat="48.11559" lon="-2.9939">
        <ele>60.2</ele>
        <time>2021-08-09T09:46:44Z</time>
      </trkpt>
      <trkpt lat="48.11562" lon="-2.99387">
        <ele>60.2</ele>
        <time>2021-08-09T09:46:45Z</time>
      </trkpt>
      <trkpt lat="48.11566" lon="-2.99383">
        <ele>60.2</ele>
        <time>2021-08-09T09:46:46Z</time>
      </trkpt>
      <trkpt lat="48.11569" lon="-2.9938">
        <ele>60.2</ele>
        <time>2021-08-09T09:46:47Z</time>
      </trkpt>
      <trkpt lat="48.11573" lon="-2.99377">
        <ele>60.2</ele>
        <time>2021-08-09T09:46:48Z</time>
      </trkpt>
      <trkpt lat="48.11577" lon="-2.99374">
        <ele>60.2</ele>
        <time>2021-08-09T09:46:49Z</time>
      </trkpt>
      <trkpt lat="48.11581" lon="-2.9937">
        <ele>60.2</ele>
        <time>2021-08-09T09:46:50Z</time>
      </trkpt>
      <trkpt lat="48.11585" lon="-2.99366">
        <ele>60.2</ele>
        <time>2021-08-09T09:46:51Z</time>
      </trkpt>
      <trkpt lat="48.11589" lon="-2.99363">
        <ele>60.2</ele>
        <time>2021-08-09T09:46:52Z</time>
      </trkpt>
      <trkpt lat="48.11597" lon="-2.99355">
        <ele>60.2</ele>
        <time>2021-08-09T09:46:54Z</time>
      </trkpt>
      <trkpt lat="48.11601" lon="-2.99352">
        <ele>60.2</ele>
        <time>2021-08-09T09:46:55Z</time>
      </trkpt>
      <trkpt lat="48.11605" lon="-2.99348">
        <ele>60.2</ele>
        <time>2021-08-09T09:46:56Z</time>
      </trkpt>
      <trkpt lat="48.11608" lon="-2.99344">
        <ele>60.2</ele>
        <time>2021-08-09T09:46:57Z</time>
      </trkpt>
      <trkpt lat="48.11612" lon="-2.9934">
        <ele>60.2</ele>
        <time>2021-08-09T09:46:58Z</time>
      </trkpt>
      <trkpt lat="48.11616" lon="-2.99336">
        <ele>60</ele>
        <time>2021-08-09T09:46:59Z</time>
      </trkpt>
      <trkpt lat="48.11619" lon="-2.99332">
        <ele>60</ele>
        <time>2021-08-09T09:47:00Z</time>
      </trkpt>
      <trkpt lat="48.11623" lon="-2.99328">
        <ele>60</ele>
        <time>2021-08-09T09:47:01Z</time>
      </trkpt>
      <trkpt lat="48.11627" lon="-2.99325">
        <ele>60</ele>
        <time>2021-08-09T09:47:02Z</time>
      </trkpt>
      <trkpt lat="48.11631" lon="-2.99321">
        <ele>60</ele>
        <time>2021-08-09T09:47:03Z</time>
      </trkpt>
      <trkpt lat="48.11636" lon="-2.99317">
        <ele>60</ele>
        <time>2021-08-09T09:47:04Z</time>
      </trkpt>
      <trkpt lat="48.1164" lon="-2.99314">
        <ele>60</ele>
        <time>2021-08-09T09:47:05Z</time>
      </trkpt>
      <trkpt lat="48.11644" lon="-2.99311">
        <ele>60</ele>
        <time>2021-08-09T09:47:06Z</time>
      </trkpt>
      <trkpt lat="48.11648" lon="-2.99307">
        <ele>60</ele>
        <time>2021-08-09T09:47:07Z</time>
      </trkpt>
      <trkpt lat="48.11652" lon="-2.99304">
        <ele>60</ele>
        <time>2021-08-09T09:47:08Z</time>
      </trkpt>
      <trkpt lat="48.11657" lon="-2.993">
        <ele>60</ele>
        <time>2021-08-09T09:47:09Z</time>
      </trkpt>
      <trkpt lat="48.11661" lon="-2.99297">
        <ele>60</ele>
        <time>2021-08-09T09:47:10Z</time>
      </trkpt>
      <trkpt lat="48.11665" lon="-2.99294">
        <ele>60</ele>
        <time>2021-08-09T09:47:11Z</time>
      </trkpt>
      <trkpt lat="48.11669" lon="-2.9929">
        <ele>60.2</ele>
        <time>2021-08-09T09:47:12Z</time>
      </trkpt>
      <trkpt lat="48.11674" lon="-2.99287">
        <ele>60.2</ele>
        <time>2021-08-09T09:47:13Z</time>
      </trkpt>
      <trkpt lat="48.11678" lon="-2.99284">
        <ele>60.2</ele>
        <time>2021-08-09T09:47:14Z</time>
      </trkpt>
      <trkpt lat="48.11683" lon="-2.99282">
        <ele>60</ele>
        <time>2021-08-09T09:47:15Z</time>
      </trkpt>
      <trkpt lat="48.11687" lon="-2.9928">
        <ele>60</ele>
        <time>2021-08-09T09:47:16Z</time>
      </trkpt>
      <trkpt lat="48.11692" lon="-2.99277">
        <ele>60</ele>
        <time>2021-08-09T09:47:17Z</time>
      </trkpt>
      <trkpt lat="48.11697" lon="-2.99275">
        <ele>60</ele>
        <time>2021-08-09T09:47:18Z</time>
      </trkpt>
      <trkpt lat="48.11702" lon="-2.99273">
        <ele>60</ele>
        <time>2021-08-09T09:47:19Z</time>
      </trkpt>
      <trkpt lat="48.11707" lon="-2.99272">
        <ele>60</ele>
        <time>2021-08-09T09:47:20Z</time>
      </trkpt>
      <trkpt lat="48.11713" lon="-2.99271">
        <ele>60</ele>
        <time>2021-08-09T09:47:21Z</time>
      </trkpt>
      <trkpt lat="48.11718" lon="-2.99271">
        <ele>60</ele>
        <time>2021-08-09T09:47:22Z</time>
      </trkpt>
      <trkpt lat="48.11723" lon="-2.99271">
        <ele>60.2</ele>
        <time>2021-08-09T09:47:23Z</time>
      </trkpt>
      <trkpt lat="48.11727" lon="-2.99272">
        <ele>60.2</ele>
        <time>2021-08-09T09:47:24Z</time>
      </trkpt>
      <trkpt lat="48.11732" lon="-2.99273">
        <ele>59.8</ele>
        <time>2021-08-09T09:47:25Z</time>
      </trkpt>
      <trkpt lat="48.11741" lon="-2.99275">
        <ele>59.8</ele>
        <time>2021-08-09T09:47:27Z</time>
      </trkpt>
      <trkpt lat="48.11746" lon="-2.99276">
        <ele>59.8</ele>
        <time>2021-08-09T09:47:28Z</time>
      </trkpt>
      <trkpt lat="48.1175" lon="-2.99277">
        <ele>59.8</ele>
        <time>2021-08-09T09:47:29Z</time>
      </trkpt>
      <trkpt lat="48.11755" lon="-2.99278">
        <ele>59.8</ele>
        <time>2021-08-09T09:47:30Z</time>
      </trkpt>
      <trkpt lat="48.11759" lon="-2.99279">
        <ele>59.8</ele>
        <time>2021-08-09T09:47:31Z</time>
      </trkpt>
      <trkpt lat="48.11763" lon="-2.9928">
        <ele>59.8</ele>
        <time>2021-08-09T09:47:32Z</time>
      </trkpt>
      <trkpt lat="48.11768" lon="-2.9928">
        <ele>59.8</ele>
        <time>2021-08-09T09:47:33Z</time>
      </trkpt>
      <trkpt lat="48.11772" lon="-2.99281">
        <ele>59.8</ele>
        <time>2021-08-09T09:47:34Z</time>
      </trkpt>
      <trkpt lat="48.11777" lon="-2.99282">
        <ele>59.8</ele>
        <time>2021-08-09T09:47:35Z</time>
      </trkpt>
      <trkpt lat="48.11782" lon="-2.99284">
        <ele>59.8</ele>
        <time>2021-08-09T09:47:36Z</time>
      </trkpt>
      <trkpt lat="48.11787" lon="-2.99286">
        <ele>59.8</ele>
        <time>2021-08-09T09:47:37Z</time>
      </trkpt>
      <trkpt lat="48.11792" lon="-2.99289">
        <ele>59.8</ele>
        <time>2021-08-09T09:47:38Z</time>
      </trkpt>
      <trkpt lat="48.11797" lon="-2.9929">
        <ele>59.8</ele>
        <time>2021-08-09T09:47:39Z</time>
      </trkpt>
      <trkpt lat="48.11802" lon="-2.99292">
        <ele>59.8</ele>
        <time>2021-08-09T09:47:40Z</time>
      </trkpt>
      <trkpt lat="48.11806" lon="-2.99294">
        <ele>59.8</ele>
        <time>2021-08-09T09:47:41Z</time>
      </trkpt>
      <trkpt lat="48.11811" lon="-2.99296">
        <ele>59.8</ele>
        <time>2021-08-09T09:47:42Z</time>
      </trkpt>
      <trkpt lat="48.11816" lon="-2.99297">
        <ele>59.8</ele>
        <time>2021-08-09T09:47:43Z</time>
      </trkpt>
      <trkpt lat="48.11821" lon="-2.99299">
        <ele>59.8</ele>
        <time>2021-08-09T09:47:44Z</time>
      </trkpt>
      <trkpt lat="48.11826" lon="-2.993">
        <ele>60</ele>
        <time>2021-08-09T09:47:45Z</time>
      </trkpt>
      <trkpt lat="48.11831" lon="-2.99302">
        <ele>60</ele>
        <time>2021-08-09T09:47:46Z</time>
      </trkpt>
      <trkpt lat="48.11835" lon="-2.99304">
        <ele>60</ele>
        <time>2021-08-09T09:47:47Z</time>
      </trkpt>
      <trkpt lat="48.11845" lon="-2.99306">
        <ele>60</ele>
        <time>2021-08-09T09:47:49Z</time>
      </trkpt>
      <trkpt lat="48.1185" lon="-2.99307">
        <ele>60</ele>
        <time>2021-08-09T09:47:50Z</time>
      </trkpt>
      <trkpt lat="48.11854" lon="-2.99308">
        <ele>60</ele>
        <time>2021-08-09T09:47:51Z</time>
      </trkpt>
      <trkpt lat="48.11859" lon="-2.99309">
        <ele>60</ele>
        <time>2021-08-09T09:47:52Z</time>
      </trkpt>
      <trkpt lat="48.11864" lon="-2.9931">
        <ele>60</ele>
        <time>2021-08-09T09:47:53Z</time>
      </trkpt>
      <trkpt lat="48.11869" lon="-2.99311">
        <ele>60</ele>
        <time>2021-08-09T09:47:54Z</time>
      </trkpt>
      <trkpt lat="48.11873" lon="-2.99313">
        <ele>60</ele>
        <time>2021-08-09T09:47:55Z</time>
      </trkpt>
      <trkpt lat="48.11878" lon="-2.99315">
        <ele>59.8</ele>
        <time>2021-08-09T09:47:56Z</time>
      </trkpt>
      <trkpt lat="48.11883" lon="-2.99316">
        <ele>59.8</ele>
        <time>2021-08-09T09:47:57Z</time>
      </trkpt>
      <trkpt lat="48.11887" lon="-2.99318">
        <ele>60</ele>
        <time>2021-08-09T09:47:58Z</time>
      </trkpt>
      <trkpt lat="48.11896" lon="-2.99323">
        <ele>60</ele>
        <time>2021-08-09T09:48:00Z</time>
      </trkpt>
      <trkpt lat="48.119" lon="-2.99325">
        <ele>60.2</ele>
        <time>2021-08-09T09:48:01Z</time>
      </trkpt>
      <trkpt lat="48.11904" lon="-2.99328">
        <ele>60.2</ele>
        <time>2021-08-09T09:48:02Z</time>
      </trkpt>
      <trkpt lat="48.11908" lon="-2.9933">
        <ele>60</ele>
        <time>2021-08-09T09:48:03Z</time>
      </trkpt>
      <trkpt lat="48.11912" lon="-2.99333">
        <ele>60</ele>
        <time>2021-08-09T09:48:04Z</time>
      </trkpt>
      <trkpt lat="48.11915" lon="-2.99335">
        <ele>60</ele>
        <time>2021-08-09T09:48:05Z</time>
      </trkpt>
      <trkpt lat="48.11918" lon="-2.99337">
        <ele>60</ele>
        <time>2021-08-09T09:48:06Z</time>
      </trkpt>
      <trkpt lat="48.11922" lon="-2.99339">
        <ele>60</ele>
        <time>2021-08-09T09:48:07Z</time>
      </trkpt>
      <trkpt lat="48.11927" lon="-2.99342">
        <ele>60</ele>
        <time>2021-08-09T09:48:08Z</time>
      </trkpt>
      <trkpt lat="48.11931" lon="-2.99345">
        <ele>60</ele>
        <time>2021-08-09T09:48:09Z</time>
      </trkpt>
      <trkpt lat="48.11936" lon="-2.99347">
        <ele>60</ele>
        <time>2021-08-09T09:48:10Z</time>
      </trkpt>
      <trkpt lat="48.1194" lon="-2.9935">
        <ele>60</ele>
        <time>2021-08-09T09:48:11Z</time>
      </trkpt>
      <trkpt lat="48.11945" lon="-2.99352">
        <ele>60</ele>
        <time>2021-08-09T09:48:12Z</time>
      </trkpt>
      <trkpt lat="48.11949" lon="-2.99354">
        <ele>60</ele>
        <time>2021-08-09T09:48:13Z</time>
      </trkpt>
      <trkpt lat="48.11954" lon="-2.99357">
        <ele>60.2</ele>
        <time>2021-08-09T09:48:14Z</time>
      </trkpt>
      <trkpt lat="48.11959" lon="-2.9936">
        <ele>60.2</ele>
        <time>2021-08-09T09:48:15Z</time>
      </trkpt>
      <trkpt lat="48.11963" lon="-2.99363">
        <ele>60.2</ele>
        <time>2021-08-09T09:48:16Z</time>
      </trkpt>
      <trkpt lat="48.11968" lon="-2.99367">
        <ele>60.2</ele>
        <time>2021-08-09T09:48:17Z</time>
      </trkpt>
      <trkpt lat="48.11972" lon="-2.99369">
        <ele>60.2</ele>
        <time>2021-08-09T09:48:18Z</time>
      </trkpt>
      <trkpt lat="48.11976" lon="-2.99372">
        <ele>60.2</ele>
        <time>2021-08-09T09:48:19Z</time>
      </trkpt>
      <trkpt lat="48.1198" lon="-2.99375">
        <ele>60.2</ele>
        <time>2021-08-09T09:48:20Z</time>
      </trkpt>
      <trkpt lat="48.11988" lon="-2.99381">
        <ele>60.2</ele>
        <time>2021-08-09T09:48:22Z</time>
      </trkpt>
      <trkpt lat="48.11992" lon="-2.99386">
        <ele>60.2</ele>
        <time>2021-08-09T09:48:23Z</time>
      </trkpt>
      <trkpt lat="48.11996" lon="-2.99392">
        <ele>60.2</ele>
        <time>2021-08-09T09:48:24Z</time>
      </trkpt>
      <trkpt lat="48.12" lon="-2.99397">
        <ele>60.2</ele>
        <time>2021-08-09T09:48:25Z</time>
      </trkpt>
      <trkpt lat="48.12005" lon="-2.99402">
        <ele>60</ele>
        <time>2021-08-09T09:48:26Z</time>
      </trkpt>
      <trkpt lat="48.12009" lon="-2.99407">
        <ele>60</ele>
        <time>2021-08-09T09:48:27Z</time>
      </trkpt>
      <trkpt lat="48.12013" lon="-2.99411">
        <ele>60</ele>
        <time>2021-08-09T09:48:28Z</time>
      </trkpt>
      <trkpt lat="48.12018" lon="-2.99416">
        <ele>59.6</ele>
        <time>2021-08-09T09:48:29Z</time>
      </trkpt>
      <trkpt lat="48.12022" lon="-2.9942">
        <ele>59.6</ele>
        <time>2021-08-09T09:48:30Z</time>
      </trkpt>
      <trkpt lat="48.12026" lon="-2.99424">
        <ele>59.6</ele>
        <time>2021-08-09T09:48:31Z</time>
      </trkpt>
      <trkpt lat="48.12035" lon="-2.99432">
        <ele>59.8</ele>
        <time>2021-08-09T09:48:33Z</time>
      </trkpt>
      <trkpt lat="48.12039" lon="-2.99434">
        <ele>59.6</ele>
        <time>2021-08-09T09:48:34Z</time>
      </trkpt>
      <trkpt lat="48.12043" lon="-2.99436">
        <ele>59.6</ele>
        <time>2021-08-09T09:48:35Z</time>
      </trkpt>
      <trkpt lat="48.12047" lon="-2.99438">
        <ele>59.6</ele>
        <time>2021-08-09T09:48:36Z</time>
      </trkpt>
      <trkpt lat="48.12051" lon="-2.9944">
        <ele>59.6</ele>
        <time>2021-08-09T09:48:37Z</time>
      </trkpt>
      <trkpt lat="48.12056" lon="-2.99442">
        <ele>59.6</ele>
        <time>2021-08-09T09:48:38Z</time>
      </trkpt>
      <trkpt lat="48.1206" lon="-2.99444">
        <ele>59.6</ele>
        <time>2021-08-09T09:48:39Z</time>
      </trkpt>
      <trkpt lat="48.12064" lon="-2.99446">
        <ele>59.6</ele>
        <time>2021-08-09T09:48:40Z</time>
      </trkpt>
      <trkpt lat="48.12069" lon="-2.99447">
        <ele>59.6</ele>
        <time>2021-08-09T09:48:41Z</time>
      </trkpt>
      <trkpt lat="48.12073" lon="-2.99448">
        <ele>59.8</ele>
        <time>2021-08-09T09:48:42Z</time>
      </trkpt>
      <trkpt lat="48.12083" lon="-2.9945">
        <ele>59.8</ele>
        <time>2021-08-09T09:48:44Z</time>
      </trkpt>
      <trkpt lat="48.12088" lon="-2.99452">
        <ele>59.8</ele>
        <time>2021-08-09T09:48:45Z</time>
      </trkpt>
      <trkpt lat="48.12093" lon="-2.99453">
        <ele>59.8</ele>
        <time>2021-08-09T09:48:46Z</time>
      </trkpt>
      <trkpt lat="48.12097" lon="-2.99454">
        <ele>60</ele>
        <time>2021-08-09T09:48:47Z</time>
      </trkpt>
      <trkpt lat="48.12102" lon="-2.99456">
        <ele>60</ele>
        <time>2021-08-09T09:48:48Z</time>
      </trkpt>
      <trkpt lat="48.12106" lon="-2.99457">
        <ele>60</ele>
        <time>2021-08-09T09:48:49Z</time>
      </trkpt>
      <trkpt lat="48.12111" lon="-2.99458">
        <ele>60</ele>
        <time>2021-08-09T09:48:50Z</time>
      </trkpt>
      <trkpt lat="48.12115" lon="-2.99459">
        <ele>60</ele>
        <time>2021-08-09T09:48:51Z</time>
      </trkpt>
      <trkpt lat="48.12119" lon="-2.9946">
        <ele>60</ele>
        <time>2021-08-09T09:48:52Z</time>
      </trkpt>
      <trkpt lat="48.12124" lon="-2.99461">
        <ele>60.2</ele>
        <time>2021-08-09T09:48:53Z</time>
      </trkpt>
      <trkpt lat="48.12132" lon="-2.99463">
        <ele>60.2</ele>
        <time>2021-08-09T09:48:55Z</time>
      </trkpt>
      <trkpt lat="48.12136" lon="-2.99464">
        <ele>60.2</ele>
        <time>2021-08-09T09:48:56Z</time>
      </trkpt>
      <trkpt lat="48.1214" lon="-2.99465">
        <ele>60.4</ele>
        <time>2021-08-09T09:48:57Z</time>
      </trkpt>
      <trkpt lat="48.12144" lon="-2.99466">
        <ele>60.4</ele>
        <time>2021-08-09T09:48:58Z</time>
      </trkpt>
      <trkpt lat="48.12148" lon="-2.99466">
        <ele>60.4</ele>
        <time>2021-08-09T09:48:59Z</time>
      </trkpt>
      <trkpt lat="48.12153" lon="-2.99467">
        <ele>60.6</ele>
        <time>2021-08-09T09:49:00Z</time>
      </trkpt>
      <trkpt lat="48.12156" lon="-2.99468">
        <ele>60.6</ele>
        <time>2021-08-09T09:49:01Z</time>
      </trkpt>
      <trkpt lat="48.1216" lon="-2.99468">
        <ele>60.8</ele>
        <time>2021-08-09T09:49:02Z</time>
      </trkpt>
      <trkpt lat="48.12164" lon="-2.99469">
        <ele>60.8</ele>
        <time>2021-08-09T09:49:03Z</time>
      </trkpt>
      <trkpt lat="48.12168" lon="-2.99469">
        <ele>60.8</ele>
        <time>2021-08-09T09:49:04Z</time>
      </trkpt>
      <trkpt lat="48.12171" lon="-2.99469">
        <ele>61</ele>
        <time>2021-08-09T09:49:05Z</time>
      </trkpt>
      <trkpt lat="48.12175" lon="-2.99469">
        <ele>61.2</ele>
        <time>2021-08-09T09:49:06Z</time>
      </trkpt>
      <trkpt lat="48.12178" lon="-2.9947">
        <ele>61.2</ele>
        <time>2021-08-09T09:49:07Z</time>
      </trkpt>
      <trkpt lat="48.12182" lon="-2.9947">
        <ele>61.6</ele>
        <time>2021-08-09T09:49:08Z</time>
      </trkpt>
      <trkpt lat="48.12185" lon="-2.9947">
        <ele>61.8</ele>
        <time>2021-08-09T09:49:09Z</time>
      </trkpt>
      <trkpt lat="48.12189" lon="-2.9947">
        <ele>61.8</ele>
        <time>2021-08-09T09:49:10Z</time>
      </trkpt>
      <trkpt lat="48.12192" lon="-2.99471">
        <ele>61.8</ele>
        <time>2021-08-09T09:49:11Z</time>
      </trkpt>
      <trkpt lat="48.12195" lon="-2.99472">
        <ele>62</ele>
        <time>2021-08-09T09:49:12Z</time>
      </trkpt>
      <trkpt lat="48.12198" lon="-2.99474">
        <ele>62.2</ele>
        <time>2021-08-09T09:49:13Z</time>
      </trkpt>
      <trkpt lat="48.12201" lon="-2.99475">
        <ele>62.4</ele>
        <time>2021-08-09T09:49:14Z</time>
      </trkpt>
      <trkpt lat="48.12205" lon="-2.99475">
        <ele>62.8</ele>
        <time>2021-08-09T09:49:15Z</time>
      </trkpt>
      <trkpt lat="48.12212" lon="-2.99478">
        <ele>63</ele>
        <time>2021-08-09T09:49:17Z</time>
      </trkpt>
      <trkpt lat="48.12217" lon="-2.99479">
        <ele>63</ele>
        <time>2021-08-09T09:49:18Z</time>
      </trkpt>
      <trkpt lat="48.12222" lon="-2.9948">
        <ele>63</ele>
        <time>2021-08-09T09:49:19Z</time>
      </trkpt>
      <trkpt lat="48.12227" lon="-2.99481">
        <ele>63</ele>
        <time>2021-08-09T09:49:20Z</time>
      </trkpt>
      <trkpt lat="48.12232" lon="-2.99482">
        <ele>63</ele>
        <time>2021-08-09T09:49:21Z</time>
      </trkpt>
      <trkpt lat="48.12238" lon="-2.99483">
        <ele>63</ele>
        <time>2021-08-09T09:49:22Z</time>
      </trkpt>
      <trkpt lat="48.12244" lon="-2.99484">
        <ele>63</ele>
        <time>2021-08-09T09:49:23Z</time>
      </trkpt>
      <trkpt lat="48.1225" lon="-2.99486">
        <ele>63</ele>
        <time>2021-08-09T09:49:24Z</time>
      </trkpt>
      <trkpt lat="48.12256" lon="-2.99487">
        <ele>63</ele>
        <time>2021-08-09T09:49:25Z</time>
      </trkpt>
      <trkpt lat="48.12262" lon="-2.99489">
        <ele>62.8</ele>
        <time>2021-08-09T09:49:26Z</time>
      </trkpt>
      <trkpt lat="48.12274" lon="-2.99495">
        <ele>62.4</ele>
        <time>2021-08-09T09:49:28Z</time>
      </trkpt>
      <trkpt lat="48.12279" lon="-2.99499">
        <ele>62</ele>
        <time>2021-08-09T09:49:29Z</time>
      </trkpt>
      <trkpt lat="48.12284" lon="-2.99502">
        <ele>61.8</ele>
        <time>2021-08-09T09:49:30Z</time>
      </trkpt>
      <trkpt lat="48.12289" lon="-2.99506">
        <ele>61.4</ele>
        <time>2021-08-09T09:49:31Z</time>
      </trkpt>
      <trkpt lat="48.12294" lon="-2.9951">
        <ele>61.2</ele>
        <time>2021-08-09T09:49:32Z</time>
      </trkpt>
      <trkpt lat="48.12298" lon="-2.99514">
        <ele>61</ele>
        <time>2021-08-09T09:49:33Z</time>
      </trkpt>
      <trkpt lat="48.12303" lon="-2.99518">
        <ele>60.8</ele>
        <time>2021-08-09T09:49:34Z</time>
      </trkpt>
      <trkpt lat="48.12307" lon="-2.99523">
        <ele>60.8</ele>
        <time>2021-08-09T09:49:35Z</time>
      </trkpt>
      <trkpt lat="48.12311" lon="-2.99529">
        <ele>60.6</ele>
        <time>2021-08-09T09:49:36Z</time>
      </trkpt>
      <trkpt lat="48.12314" lon="-2.99534">
        <ele>60.6</ele>
        <time>2021-08-09T09:49:37Z</time>
      </trkpt>
      <trkpt lat="48.12321" lon="-2.99545">
        <ele>60.4</ele>
        <time>2021-08-09T09:49:39Z</time>
      </trkpt>
      <trkpt lat="48.12324" lon="-2.99551">
        <ele>60.4</ele>
        <time>2021-08-09T09:49:40Z</time>
      </trkpt>
      <trkpt lat="48.12327" lon="-2.99557">
        <ele>60.4</ele>
        <time>2021-08-09T09:49:41Z</time>
      </trkpt>
      <trkpt lat="48.1233" lon="-2.99563">
        <ele>60.4</ele>
        <time>2021-08-09T09:49:42Z</time>
      </trkpt>
      <trkpt lat="48.12333" lon="-2.99569">
        <ele>60.4</ele>
        <time>2021-08-09T09:49:43Z</time>
      </trkpt>
      <trkpt lat="48.12336" lon="-2.99574">
        <ele>60.4</ele>
        <time>2021-08-09T09:49:44Z</time>
      </trkpt>
      <trkpt lat="48.12339" lon="-2.9958">
        <ele>60.4</ele>
        <time>2021-08-09T09:49:45Z</time>
      </trkpt>
      <trkpt lat="48.12341" lon="-2.99585">
        <ele>60.4</ele>
        <time>2021-08-09T09:49:46Z</time>
      </trkpt>
      <trkpt lat="48.12344" lon="-2.99591">
        <ele>60.4</ele>
        <time>2021-08-09T09:49:47Z</time>
      </trkpt>
      <trkpt lat="48.12346" lon="-2.99597">
        <ele>60.4</ele>
        <time>2021-08-09T09:49:48Z</time>
      </trkpt>
      <trkpt lat="48.12351" lon="-2.9961">
        <ele>60.4</ele>
        <time>2021-08-09T09:49:50Z</time>
      </trkpt>
      <trkpt lat="48.12353" lon="-2.99616">
        <ele>60.4</ele>
        <time>2021-08-09T09:49:51Z</time>
      </trkpt>
      <trkpt lat="48.12355" lon="-2.99622">
        <ele>60.6</ele>
        <time>2021-08-09T09:49:52Z</time>
      </trkpt>
      <trkpt lat="48.12357" lon="-2.99629">
        <ele>60.6</ele>
        <time>2021-08-09T09:49:53Z</time>
      </trkpt>
      <trkpt lat="48.12359" lon="-2.99635">
        <ele>60.6</ele>
        <time>2021-08-09T09:49:54Z</time>
      </trkpt>
      <trkpt lat="48.1236" lon="-2.99642">
        <ele>60.6</ele>
        <time>2021-08-09T09:49:55Z</time>
      </trkpt>
      <trkpt lat="48.12361" lon="-2.99648">
        <ele>60.6</ele>
        <time>2021-08-09T09:49:56Z</time>
      </trkpt>
      <trkpt lat="48.12362" lon="-2.99655">
        <ele>60.6</ele>
        <time>2021-08-09T09:49:57Z</time>
      </trkpt>
      <trkpt lat="48.12364" lon="-2.99662">
        <ele>60.6</ele>
        <time>2021-08-09T09:49:58Z</time>
      </trkpt>
      <trkpt lat="48.12365" lon="-2.99669">
        <ele>60.6</ele>
        <time>2021-08-09T09:49:59Z</time>
      </trkpt>
      <trkpt lat="48.12366" lon="-2.99676">
        <ele>60.6</ele>
        <time>2021-08-09T09:50:00Z</time>
      </trkpt>
      <trkpt lat="48.12367" lon="-2.99684">
        <ele>60.6</ele>
        <time>2021-08-09T09:50:01Z</time>
      </trkpt>
      <trkpt lat="48.12368" lon="-2.99692">
        <ele>60.6</ele>
        <time>2021-08-09T09:50:02Z</time>
      </trkpt>
      <trkpt lat="48.12369" lon="-2.99699">
        <ele>60.6</ele>
        <time>2021-08-09T09:50:03Z</time>
      </trkpt>
      <trkpt lat="48.1237" lon="-2.99706">
        <ele>60.6</ele>
        <time>2021-08-09T09:50:04Z</time>
      </trkpt>
      <trkpt lat="48.12371" lon="-2.99714">
        <ele>60.6</ele>
        <time>2021-08-09T09:50:05Z</time>
      </trkpt>
      <trkpt lat="48.12372" lon="-2.99721">
        <ele>60.6</ele>
        <time>2021-08-09T09:50:06Z</time>
      </trkpt>
      <trkpt lat="48.12373" lon="-2.99728">
        <ele>60.6</ele>
        <time>2021-08-09T09:50:07Z</time>
      </trkpt>
      <trkpt lat="48.12374" lon="-2.99735">
        <ele>60.6</ele>
        <time>2021-08-09T09:50:08Z</time>
      </trkpt>
      <trkpt lat="48.12375" lon="-2.99742">
        <ele>60.6</ele>
        <time>2021-08-09T09:50:09Z</time>
      </trkpt>
      <trkpt lat="48.12376" lon="-2.99748">
        <ele>60.6</ele>
        <time>2021-08-09T09:50:10Z</time>
      </trkpt>
      <trkpt lat="48.12378" lon="-2.99762">
        <ele>60.4</ele>
        <time>2021-08-09T09:50:12Z</time>
      </trkpt>
      <trkpt lat="48.12379" lon="-2.99769">
        <ele>60.4</ele>
        <time>2021-08-09T09:50:13Z</time>
      </trkpt>
      <trkpt lat="48.1238" lon="-2.99775">
        <ele>60.4</ele>
        <time>2021-08-09T09:50:14Z</time>
      </trkpt>
      <trkpt lat="48.12381" lon="-2.99782">
        <ele>60.2</ele>
        <time>2021-08-09T09:50:15Z</time>
      </trkpt>
      <trkpt lat="48.12382" lon="-2.99788">
        <ele>60.2</ele>
        <time>2021-08-09T09:50:16Z</time>
      </trkpt>
      <trkpt lat="48.12383" lon="-2.99795">
        <ele>60.2</ele>
        <time>2021-08-09T09:50:17Z</time>
      </trkpt>
      <trkpt lat="48.12383" lon="-2.99802">
        <ele>60.2</ele>
        <time>2021-08-09T09:50:18Z</time>
      </trkpt>
      <trkpt lat="48.12384" lon="-2.99809">
        <ele>60.2</ele>
        <time>2021-08-09T09:50:19Z</time>
      </trkpt>
      <trkpt lat="48.12384" lon="-2.99815">
        <ele>60.2</ele>
        <time>2021-08-09T09:50:20Z</time>
      </trkpt>
      <trkpt lat="48.12385" lon="-2.99823">
        <ele>60</ele>
        <time>2021-08-09T09:50:21Z</time>
      </trkpt>
      <trkpt lat="48.12385" lon="-2.9983">
        <ele>60</ele>
        <time>2021-08-09T09:50:22Z</time>
      </trkpt>
      <trkpt lat="48.12385" lon="-2.99837">
        <ele>60</ele>
        <time>2021-08-09T09:50:23Z</time>
      </trkpt>
      <trkpt lat="48.12386" lon="-2.99845">
        <ele>60</ele>
        <time>2021-08-09T09:50:24Z</time>
      </trkpt>
      <trkpt lat="48.12386" lon="-2.99852">
        <ele>60</ele>
        <time>2021-08-09T09:50:25Z</time>
      </trkpt>
      <trkpt lat="48.12386" lon="-2.9986">
        <ele>59.8</ele>
        <time>2021-08-09T09:50:26Z</time>
      </trkpt>
      <trkpt lat="48.12385" lon="-2.99867">
        <ele>59.8</ele>
        <time>2021-08-09T09:50:27Z</time>
      </trkpt>
      <trkpt lat="48.12385" lon="-2.99875">
        <ele>59.8</ele>
        <time>2021-08-09T09:50:28Z</time>
      </trkpt>
      <trkpt lat="48.12384" lon="-2.99882">
        <ele>59.6</ele>
        <time>2021-08-09T09:50:29Z</time>
      </trkpt>
      <trkpt lat="48.12383" lon="-2.9989">
        <ele>59.6</ele>
        <time>2021-08-09T09:50:30Z</time>
      </trkpt>
      <trkpt lat="48.12383" lon="-2.99897">
        <ele>59.6</ele>
        <time>2021-08-09T09:50:31Z</time>
      </trkpt>
      <trkpt lat="48.12382" lon="-2.99903">
        <ele>59.4</ele>
        <time>2021-08-09T09:50:32Z</time>
      </trkpt>
      <trkpt lat="48.12381" lon="-2.99915">
        <ele>59.4</ele>
        <time>2021-08-09T09:50:34Z</time>
      </trkpt>
      <trkpt lat="48.1238" lon="-2.99921">
        <ele>59.4</ele>
        <time>2021-08-09T09:50:35Z</time>
      </trkpt>
      <trkpt lat="48.12379" lon="-2.99927">
        <ele>59.4</ele>
        <time>2021-08-09T09:50:36Z</time>
      </trkpt>
      <trkpt lat="48.12378" lon="-2.99932">
        <ele>59.2</ele>
        <time>2021-08-09T09:50:37Z</time>
      </trkpt>
      <trkpt lat="48.12377" lon="-2.99937">
        <ele>59.2</ele>
        <time>2021-08-09T09:50:38Z</time>
      </trkpt>
      <trkpt lat="48.12376" lon="-2.99941">
        <ele>59.2</ele>
        <time>2021-08-09T09:50:39Z</time>
      </trkpt>
      <trkpt lat="48.12374" lon="-2.99946">
        <ele>59.2</ele>
        <time>2021-08-09T09:50:40Z</time>
      </trkpt>
      <trkpt lat="48.12372" lon="-2.99951">
        <ele>59.2</ele>
        <time>2021-08-09T09:50:41Z</time>
      </trkpt>
      <trkpt lat="48.12371" lon="-2.99956">
        <ele>59.2</ele>
        <time>2021-08-09T09:50:42Z</time>
      </trkpt>
      <trkpt lat="48.12369" lon="-2.99961">
        <ele>59.2</ele>
        <time>2021-08-09T09:50:43Z</time>
      </trkpt>
      <trkpt lat="48.12366" lon="-2.99971">
        <ele>59.2</ele>
        <time>2021-08-09T09:50:45Z</time>
      </trkpt>
      <trkpt lat="48.12364" lon="-2.99977">
        <ele>59.2</ele>
        <time>2021-08-09T09:50:46Z</time>
      </trkpt>
      <trkpt lat="48.12362" lon="-2.99983">
        <ele>59.2</ele>
        <time>2021-08-09T09:50:47Z</time>
      </trkpt>
      <trkpt lat="48.1236" lon="-2.99989">
        <ele>59.2</ele>
        <time>2021-08-09T09:50:48Z</time>
      </trkpt>
      <trkpt lat="48.12357" lon="-2.99995">
        <ele>59.2</ele>
        <time>2021-08-09T09:50:49Z</time>
      </trkpt>
      <trkpt lat="48.12355" lon="-3.00001">
        <ele>59.2</ele>
        <time>2021-08-09T09:50:50Z</time>
      </trkpt>
      <trkpt lat="48.12353" lon="-3.00006">
        <ele>59.4</ele>
        <time>2021-08-09T09:50:51Z</time>
      </trkpt>
      <trkpt lat="48.12351" lon="-3.00011">
        <ele>59.4</ele>
        <time>2021-08-09T09:50:52Z</time>
      </trkpt>
      <trkpt lat="48.12349" lon="-3.00016">
        <ele>59.6</ele>
        <time>2021-08-09T09:50:53Z</time>
      </trkpt>
      <trkpt lat="48.12348" lon="-3.0002">
        <ele>59.6</ele>
        <time>2021-08-09T09:50:54Z</time>
      </trkpt>
      <trkpt lat="48.12342" lon="-3.00033">
        <ele>59.8</ele>
        <time>2021-08-09T09:50:56Z</time>
      </trkpt>
      <trkpt lat="48.12338" lon="-3.0004">
        <ele>59.8</ele>
        <time>2021-08-09T09:50:57Z</time>
      </trkpt>
      <trkpt lat="48.12335" lon="-3.00046">
        <ele>60</ele>
        <time>2021-08-09T09:50:58Z</time>
      </trkpt>
      <trkpt lat="48.12332" lon="-3.00051">
        <ele>60</ele>
        <time>2021-08-09T09:50:59Z</time>
      </trkpt>
      <trkpt lat="48.12329" lon="-3.00056">
        <ele>60</ele>
        <time>2021-08-09T09:51:00Z</time>
      </trkpt>
      <trkpt lat="48.12326" lon="-3.00062">
        <ele>60</ele>
        <time>2021-08-09T09:51:01Z</time>
      </trkpt>
      <trkpt lat="48.12323" lon="-3.00067">
        <ele>60.2</ele>
        <time>2021-08-09T09:51:02Z</time>
      </trkpt>
      <trkpt lat="48.12321" lon="-3.00071">
        <ele>60.2</ele>
        <time>2021-08-09T09:51:03Z</time>
      </trkpt>
      <trkpt lat="48.12318" lon="-3.00076">
        <ele>60.2</ele>
        <time>2021-08-09T09:51:04Z</time>
      </trkpt>
      <trkpt lat="48.12315" lon="-3.00082">
        <ele>60.2</ele>
        <time>2021-08-09T09:51:05Z</time>
      </trkpt>
      <trkpt lat="48.12308" lon="-3.00095">
        <ele>60.2</ele>
        <time>2021-08-09T09:51:07Z</time>
      </trkpt>
      <trkpt lat="48.12305" lon="-3.00101">
        <ele>60.2</ele>
        <time>2021-08-09T09:51:08Z</time>
      </trkpt>
      <trkpt lat="48.12302" lon="-3.00105">
        <ele>60.2</ele>
        <time>2021-08-09T09:51:09Z</time>
      </trkpt>
      <trkpt lat="48.12299" lon="-3.0011">
        <ele>60.2</ele>
        <time>2021-08-09T09:51:10Z</time>
      </trkpt>
      <trkpt lat="48.12296" lon="-3.00114">
        <ele>60.2</ele>
        <time>2021-08-09T09:51:11Z</time>
      </trkpt>
      <trkpt lat="48.12293" lon="-3.00119">
        <ele>60.2</ele>
        <time>2021-08-09T09:51:12Z</time>
      </trkpt>
      <trkpt lat="48.12289" lon="-3.00125">
        <ele>60.2</ele>
        <time>2021-08-09T09:51:13Z</time>
      </trkpt>
      <trkpt lat="48.12285" lon="-3.00131">
        <ele>60.2</ele>
        <time>2021-08-09T09:51:14Z</time>
      </trkpt>
      <trkpt lat="48.12282" lon="-3.00136">
        <ele>60.2</ele>
        <time>2021-08-09T09:51:15Z</time>
      </trkpt>
      <trkpt lat="48.12279" lon="-3.00141">
        <ele>60.2</ele>
        <time>2021-08-09T09:51:16Z</time>
      </trkpt>
      <trkpt lat="48.12272" lon="-3.00151">
        <ele>60.2</ele>
        <time>2021-08-09T09:51:18Z</time>
      </trkpt>
      <trkpt lat="48.12269" lon="-3.00155">
        <ele>60.2</ele>
        <time>2021-08-09T09:51:19Z</time>
      </trkpt>
      <trkpt lat="48.12267" lon="-3.00159">
        <ele>60.2</ele>
        <time>2021-08-09T09:51:20Z</time>
      </trkpt>
      <trkpt lat="48.12264" lon="-3.00164">
        <ele>60.2</ele>
        <time>2021-08-09T09:51:21Z</time>
      </trkpt>
      <trkpt lat="48.12261" lon="-3.0017">
        <ele>60.2</ele>
        <time>2021-08-09T09:51:22Z</time>
      </trkpt>
      <trkpt lat="48.12258" lon="-3.00176">
        <ele>60.2</ele>
        <time>2021-08-09T09:51:23Z</time>
      </trkpt>
      <trkpt lat="48.12255" lon="-3.00181">
        <ele>60.2</ele>
        <time>2021-08-09T09:51:24Z</time>
      </trkpt>
      <trkpt lat="48.12252" lon="-3.00186">
        <ele>60.2</ele>
        <time>2021-08-09T09:51:25Z</time>
      </trkpt>
      <trkpt lat="48.12249" lon="-3.00191">
        <ele>60.2</ele>
        <time>2021-08-09T09:51:26Z</time>
      </trkpt>
      <trkpt lat="48.12246" lon="-3.00196">
        <ele>60.2</ele>
        <time>2021-08-09T09:51:27Z</time>
      </trkpt>
      <trkpt lat="48.12239" lon="-3.00205">
        <ele>60.2</ele>
        <time>2021-08-09T09:51:29Z</time>
      </trkpt>
      <trkpt lat="48.12236" lon="-3.0021">
        <ele>60.2</ele>
        <time>2021-08-09T09:51:30Z</time>
      </trkpt>
      <trkpt lat="48.12233" lon="-3.00215">
        <ele>60.4</ele>
        <time>2021-08-09T09:51:31Z</time>
      </trkpt>
      <trkpt lat="48.12229" lon="-3.00221">
        <ele>60.4</ele>
        <time>2021-08-09T09:51:32Z</time>
      </trkpt>
      <trkpt lat="48.12226" lon="-3.00226">
        <ele>60.4</ele>
        <time>2021-08-09T09:51:33Z</time>
      </trkpt>
      <trkpt lat="48.12222" lon="-3.00232">
        <ele>60.4</ele>
        <time>2021-08-09T09:51:34Z</time>
      </trkpt>
      <trkpt lat="48.12219" lon="-3.00237">
        <ele>60.4</ele>
        <time>2021-08-09T09:51:35Z</time>
      </trkpt>
      <trkpt lat="48.12215" lon="-3.00243">
        <ele>60.4</ele>
        <time>2021-08-09T09:51:36Z</time>
      </trkpt>
      <trkpt lat="48.12212" lon="-3.00249">
        <ele>60.4</ele>
        <time>2021-08-09T09:51:37Z</time>
      </trkpt>
      <trkpt lat="48.12205" lon="-3.0026">
        <ele>60.2</ele>
        <time>2021-08-09T09:51:39Z</time>
      </trkpt>
      <trkpt lat="48.12202" lon="-3.00264">
        <ele>60.2</ele>
        <time>2021-08-09T09:51:40Z</time>
      </trkpt>
      <trkpt lat="48.12199" lon="-3.00269">
        <ele>60.2</ele>
        <time>2021-08-09T09:51:41Z</time>
      </trkpt>
      <trkpt lat="48.12196" lon="-3.00274">
        <ele>60.2</ele>
        <time>2021-08-09T09:51:42Z</time>
      </trkpt>
      <trkpt lat="48.12192" lon="-3.00279">
        <ele>60.2</ele>
        <time>2021-08-09T09:51:43Z</time>
      </trkpt>
      <trkpt lat="48.12189" lon="-3.00284">
        <ele>60.2</ele>
        <time>2021-08-09T09:51:44Z</time>
      </trkpt>
      <trkpt lat="48.12185" lon="-3.00291">
        <ele>60.2</ele>
        <time>2021-08-09T09:51:45Z</time>
      </trkpt>
      <trkpt lat="48.12182" lon="-3.00297">
        <ele>60.2</ele>
        <time>2021-08-09T09:51:46Z</time>
      </trkpt>
      <trkpt lat="48.12179" lon="-3.00302">
        <ele>60.2</ele>
        <time>2021-08-09T09:51:47Z</time>
      </trkpt>
      <trkpt lat="48.12176" lon="-3.00308">
        <ele>60.2</ele>
        <time>2021-08-09T09:51:48Z</time>
      </trkpt>
      <trkpt lat="48.1217" lon="-3.00318">
        <ele>60.2</ele>
        <time>2021-08-09T09:51:50Z</time>
      </trkpt>
      <trkpt lat="48.12168" lon="-3.00324">
        <ele>60.2</ele>
        <time>2021-08-09T09:51:51Z</time>
      </trkpt>
      <trkpt lat="48.12166" lon="-3.0033">
        <ele>60.2</ele>
        <time>2021-08-09T09:51:52Z</time>
      </trkpt>
      <trkpt lat="48.12163" lon="-3.00336">
        <ele>60.2</ele>
        <time>2021-08-09T09:51:53Z</time>
      </trkpt>
      <trkpt lat="48.12161" lon="-3.00343">
        <ele>60.2</ele>
        <time>2021-08-09T09:51:54Z</time>
      </trkpt>
      <trkpt lat="48.12159" lon="-3.00349">
        <ele>60.2</ele>
        <time>2021-08-09T09:51:55Z</time>
      </trkpt>
      <trkpt lat="48.12158" lon="-3.00356">
        <ele>60.2</ele>
        <time>2021-08-09T09:51:56Z</time>
      </trkpt>
      <trkpt lat="48.12156" lon="-3.00363">
        <ele>60.2</ele>
        <time>2021-08-09T09:51:57Z</time>
      </trkpt>
      <trkpt lat="48.12155" lon="-3.00369">
        <ele>60.4</ele>
        <time>2021-08-09T09:51:58Z</time>
      </trkpt>
      <trkpt lat="48.12154" lon="-3.00376">
        <ele>60.4</ele>
        <time>2021-08-09T09:51:59Z</time>
      </trkpt>
      <trkpt lat="48.12153" lon="-3.00383">
        <ele>60.4</ele>
        <time>2021-08-09T09:52:00Z</time>
      </trkpt>
      <trkpt lat="48.12151" lon="-3.00389">
        <ele>60.4</ele>
        <time>2021-08-09T09:52:01Z</time>
      </trkpt>
      <trkpt lat="48.1215" lon="-3.00395">
        <ele>60.4</ele>
        <time>2021-08-09T09:52:02Z</time>
      </trkpt>
      <trkpt lat="48.12149" lon="-3.00401">
        <ele>60.6</ele>
        <time>2021-08-09T09:52:03Z</time>
      </trkpt>
      <trkpt lat="48.12148" lon="-3.00407">
        <ele>60.6</ele>
        <time>2021-08-09T09:52:04Z</time>
      </trkpt>
      <trkpt lat="48.12147" lon="-3.00412">
        <ele>60.6</ele>
        <time>2021-08-09T09:52:05Z</time>
      </trkpt>
      <trkpt lat="48.12146" lon="-3.00418">
        <ele>60.6</ele>
        <time>2021-08-09T09:52:06Z</time>
      </trkpt>
      <trkpt lat="48.12145" lon="-3.00423">
        <ele>60.8</ele>
        <time>2021-08-09T09:52:07Z</time>
      </trkpt>
      <trkpt lat="48.12144" lon="-3.00429">
        <ele>61</ele>
        <time>2021-08-09T09:52:08Z</time>
      </trkpt>
      <trkpt lat="48.12143" lon="-3.00434">
        <ele>61</ele>
        <time>2021-08-09T09:52:09Z</time>
      </trkpt>
      <trkpt lat="48.12142" lon="-3.00439">
        <ele>61.2</ele>
        <time>2021-08-09T09:52:10Z</time>
      </trkpt>
      <trkpt lat="48.1214" lon="-3.0045">
        <ele>61.4</ele>
        <time>2021-08-09T09:52:12Z</time>
      </trkpt>
      <trkpt lat="48.12139" lon="-3.00455">
        <ele>61.4</ele>
        <time>2021-08-09T09:52:13Z</time>
      </trkpt>
      <trkpt lat="48.12138" lon="-3.00462">
        <ele>61.6</ele>
        <time>2021-08-09T09:52:14Z</time>
      </trkpt>
      <trkpt lat="48.12137" lon="-3.00468">
        <ele>61.6</ele>
        <time>2021-08-09T09:52:15Z</time>
      </trkpt>
      <trkpt lat="48.12136" lon="-3.00475">
        <ele>61.6</ele>
        <time>2021-08-09T09:52:16Z</time>
      </trkpt>
      <trkpt lat="48.12135" lon="-3.00481">
        <ele>61.6</ele>
        <time>2021-08-09T09:52:17Z</time>
      </trkpt>
      <trkpt lat="48.12134" lon="-3.00488">
        <ele>61.6</ele>
        <time>2021-08-09T09:52:18Z</time>
      </trkpt>
      <trkpt lat="48.12132" lon="-3.00495">
        <ele>61.6</ele>
        <time>2021-08-09T09:52:19Z</time>
      </trkpt>
      <trkpt lat="48.12131" lon="-3.00501">
        <ele>61.6</ele>
        <time>2021-08-09T09:52:20Z</time>
      </trkpt>
      <trkpt lat="48.1213" lon="-3.00508">
        <ele>61.6</ele>
        <time>2021-08-09T09:52:21Z</time>
      </trkpt>
      <trkpt lat="48.12129" lon="-3.00515">
        <ele>61.6</ele>
        <time>2021-08-09T09:52:22Z</time>
      </trkpt>
      <trkpt lat="48.12128" lon="-3.00522">
        <ele>61.6</ele>
        <time>2021-08-09T09:52:23Z</time>
      </trkpt>
      <trkpt lat="48.12127" lon="-3.00529">
        <ele>61.6</ele>
        <time>2021-08-09T09:52:24Z</time>
      </trkpt>
      <trkpt lat="48.12126" lon="-3.00536">
        <ele>61.6</ele>
        <time>2021-08-09T09:52:25Z</time>
      </trkpt>
      <trkpt lat="48.12125" lon="-3.00542">
        <ele>61.6</ele>
        <time>2021-08-09T09:52:26Z</time>
      </trkpt>
      <trkpt lat="48.12125" lon="-3.00548">
        <ele>61.4</ele>
        <time>2021-08-09T09:52:27Z</time>
      </trkpt>
      <trkpt lat="48.12124" lon="-3.00554">
        <ele>61.4</ele>
        <time>2021-08-09T09:52:28Z</time>
      </trkpt>
      <trkpt lat="48.12124" lon="-3.0056">
        <ele>61.4</ele>
        <time>2021-08-09T09:52:29Z</time>
      </trkpt>
      <trkpt lat="48.12124" lon="-3.00567">
        <ele>61.4</ele>
        <time>2021-08-09T09:52:30Z</time>
      </trkpt>
      <trkpt lat="48.12124" lon="-3.00573">
        <ele>61.4</ele>
        <time>2021-08-09T09:52:31Z</time>
      </trkpt>
      <trkpt lat="48.12124" lon="-3.0058">
        <ele>61.4</ele>
        <time>2021-08-09T09:52:32Z</time>
      </trkpt>
      <trkpt lat="48.12126" lon="-3.00594">
        <ele>61.4</ele>
        <time>2021-08-09T09:52:34Z</time>
      </trkpt>
      <trkpt lat="48.12127" lon="-3.00601">
        <ele>61.4</ele>
        <time>2021-08-09T09:52:35Z</time>
      </trkpt>
      <trkpt lat="48.12129" lon="-3.00608">
        <ele>61.4</ele>
        <time>2021-08-09T09:52:36Z</time>
      </trkpt>
      <trkpt lat="48.1213" lon="-3.00614">
        <ele>61.4</ele>
        <time>2021-08-09T09:52:37Z</time>
      </trkpt>
      <trkpt lat="48.12132" lon="-3.00621">
        <ele>61.4</ele>
        <time>2021-08-09T09:52:38Z</time>
      </trkpt>
      <trkpt lat="48.12133" lon="-3.00627">
        <ele>61.4</ele>
        <time>2021-08-09T09:52:39Z</time>
      </trkpt>
      <trkpt lat="48.12136" lon="-3.00634">
        <ele>61.4</ele>
        <time>2021-08-09T09:52:40Z</time>
      </trkpt>
      <trkpt lat="48.12138" lon="-3.0064">
        <ele>61.4</ele>
        <time>2021-08-09T09:52:41Z</time>
      </trkpt>
      <trkpt lat="48.1214" lon="-3.00646">
        <ele>61.4</ele>
        <time>2021-08-09T09:52:42Z</time>
      </trkpt>
      <trkpt lat="48.12142" lon="-3.00652">
        <ele>61.6</ele>
        <time>2021-08-09T09:52:43Z</time>
      </trkpt>
      <trkpt lat="48.12147" lon="-3.00664">
        <ele>61.6</ele>
        <time>2021-08-09T09:52:45Z</time>
      </trkpt>
      <trkpt lat="48.12149" lon="-3.0067">
        <ele>61.6</ele>
        <time>2021-08-09T09:52:46Z</time>
      </trkpt>
      <trkpt lat="48.12151" lon="-3.00676">
        <ele>61.6</ele>
        <time>2021-08-09T09:52:47Z</time>
      </trkpt>
      <trkpt lat="48.12153" lon="-3.00683">
        <ele>61.6</ele>
        <time>2021-08-09T09:52:48Z</time>
      </trkpt>
      <trkpt lat="48.12155" lon="-3.00689">
        <ele>61.8</ele>
        <time>2021-08-09T09:52:49Z</time>
      </trkpt>
      <trkpt lat="48.12157" lon="-3.00695">
        <ele>61.8</ele>
        <time>2021-08-09T09:52:50Z</time>
      </trkpt>
      <trkpt lat="48.12159" lon="-3.00701">
        <ele>61.8</ele>
        <time>2021-08-09T09:52:51Z</time>
      </trkpt>
      <trkpt lat="48.1216" lon="-3.00707">
        <ele>61.8</ele>
        <time>2021-08-09T09:52:52Z</time>
      </trkpt>
      <trkpt lat="48.12162" lon="-3.00712">
        <ele>61.8</ele>
        <time>2021-08-09T09:52:53Z</time>
      </trkpt>
      <trkpt lat="48.12164" lon="-3.00718">
        <ele>62</ele>
        <time>2021-08-09T09:52:54Z</time>
      </trkpt>
      <trkpt lat="48.12165" lon="-3.00723">
        <ele>62</ele>
        <time>2021-08-09T09:52:55Z</time>
      </trkpt>
      <trkpt lat="48.12165" lon="-3.0073">
        <ele>62</ele>
        <time>2021-08-09T09:52:56Z</time>
      </trkpt>
      <trkpt lat="48.12167" lon="-3.00737">
        <ele>62</ele>
        <time>2021-08-09T09:52:57Z</time>
      </trkpt>
      <trkpt lat="48.12169" lon="-3.00745">
        <ele>62</ele>
        <time>2021-08-09T09:52:58Z</time>
      </trkpt>
      <trkpt lat="48.1217" lon="-3.00752">
        <ele>62</ele>
        <time>2021-08-09T09:52:59Z</time>
      </trkpt>
      <trkpt lat="48.12171" lon="-3.00759">
        <ele>62</ele>
        <time>2021-08-09T09:53:00Z</time>
      </trkpt>
      <trkpt lat="48.12172" lon="-3.00766">
        <ele>62</ele>
        <time>2021-08-09T09:53:01Z</time>
      </trkpt>
      <trkpt lat="48.12173" lon="-3.00774">
        <ele>62</ele>
        <time>2021-08-09T09:53:02Z</time>
      </trkpt>
      <trkpt lat="48.12175" lon="-3.0078">
        <ele>62</ele>
        <time>2021-08-09T09:53:03Z</time>
      </trkpt>
      <trkpt lat="48.12176" lon="-3.00786">
        <ele>62</ele>
        <time>2021-08-09T09:53:04Z</time>
      </trkpt>
      <trkpt lat="48.12177" lon="-3.00792">
        <ele>62</ele>
        <time>2021-08-09T09:53:05Z</time>
      </trkpt>
      <trkpt lat="48.12179" lon="-3.00797">
        <ele>62</ele>
        <time>2021-08-09T09:53:06Z</time>
      </trkpt>
      <trkpt lat="48.1218" lon="-3.00802">
        <ele>62</ele>
        <time>2021-08-09T09:53:07Z</time>
      </trkpt>
      <trkpt lat="48.12181" lon="-3.00808">
        <ele>62</ele>
        <time>2021-08-09T09:53:08Z</time>
      </trkpt>
      <trkpt lat="48.12182" lon="-3.00814">
        <ele>62</ele>
        <time>2021-08-09T09:53:09Z</time>
      </trkpt>
      <trkpt lat="48.12183" lon="-3.00821">
        <ele>62</ele>
        <time>2021-08-09T09:53:10Z</time>
      </trkpt>
      <trkpt lat="48.12184" lon="-3.00828">
        <ele>62</ele>
        <time>2021-08-09T09:53:11Z</time>
      </trkpt>
      <trkpt lat="48.12184" lon="-3.00834">
        <ele>61.8</ele>
        <time>2021-08-09T09:53:12Z</time>
      </trkpt>
      <trkpt lat="48.12184" lon="-3.0084">
        <ele>61.8</ele>
        <time>2021-08-09T09:53:13Z</time>
      </trkpt>
      <trkpt lat="48.12185" lon="-3.00846">
        <ele>61.8</ele>
        <time>2021-08-09T09:53:14Z</time>
      </trkpt>
      <trkpt lat="48.12185" lon="-3.00851">
        <ele>61.8</ele>
        <time>2021-08-09T09:53:15Z</time>
      </trkpt>
      <trkpt lat="48.12185" lon="-3.00857">
        <ele>61.8</ele>
        <time>2021-08-09T09:53:16Z</time>
      </trkpt>
      <trkpt lat="48.12186" lon="-3.00862">
        <ele>61.8</ele>
        <time>2021-08-09T09:53:17Z</time>
      </trkpt>
      <trkpt lat="48.12186" lon="-3.00866">
        <ele>62</ele>
        <time>2021-08-09T09:53:18Z</time>
      </trkpt>
      <trkpt lat="48.12187" lon="-3.00871">
        <ele>62</ele>
        <time>2021-08-09T09:53:19Z</time>
      </trkpt>
      <trkpt lat="48.12187" lon="-3.00876">
        <ele>62</ele>
        <time>2021-08-09T09:53:20Z</time>
      </trkpt>
      <trkpt lat="48.12187" lon="-3.00881">
        <ele>62</ele>
        <time>2021-08-09T09:53:21Z</time>
      </trkpt>
      <trkpt lat="48.12187" lon="-3.00886">
        <ele>62</ele>
        <time>2021-08-09T09:53:22Z</time>
      </trkpt>
      <trkpt lat="48.12188" lon="-3.00891">
        <ele>62</ele>
        <time>2021-08-09T09:53:23Z</time>
      </trkpt>
      <trkpt lat="48.12188" lon="-3.00896">
        <ele>62</ele>
        <time>2021-08-09T09:53:24Z</time>
      </trkpt>
      <trkpt lat="48.12188" lon="-3.00901">
        <ele>62</ele>
        <time>2021-08-09T09:53:25Z</time>
      </trkpt>
      <trkpt lat="48.12188" lon="-3.00906">
        <ele>62</ele>
        <time>2021-08-09T09:53:26Z</time>
      </trkpt>
      <trkpt lat="48.12188" lon="-3.00911">
        <ele>62</ele>
        <time>2021-08-09T09:53:27Z</time>
      </trkpt>
      <trkpt lat="48.12189" lon="-3.00923">
        <ele>62</ele>
        <time>2021-08-09T09:53:29Z</time>
      </trkpt>
      <trkpt lat="48.12189" lon="-3.00928">
        <ele>62</ele>
        <time>2021-08-09T09:53:30Z</time>
      </trkpt>
      <trkpt lat="48.12189" lon="-3.00933">
        <ele>62</ele>
        <time>2021-08-09T09:53:31Z</time>
      </trkpt>
      <trkpt lat="48.1219" lon="-3.00938">
        <ele>62</ele>
        <time>2021-08-09T09:53:32Z</time>
      </trkpt>
      <trkpt lat="48.12191" lon="-3.00943">
        <ele>62</ele>
        <time>2021-08-09T09:53:33Z</time>
      </trkpt>
      <trkpt lat="48.12191" lon="-3.00949">
        <ele>62</ele>
        <time>2021-08-09T09:53:34Z</time>
      </trkpt>
      <trkpt lat="48.12192" lon="-3.00954">
        <ele>62</ele>
        <time>2021-08-09T09:53:35Z</time>
      </trkpt>
      <trkpt lat="48.12192" lon="-3.00959">
        <ele>62</ele>
        <time>2021-08-09T09:53:36Z</time>
      </trkpt>
      <trkpt lat="48.12192" lon="-3.00965">
        <ele>62</ele>
        <time>2021-08-09T09:53:37Z</time>
      </trkpt>
      <trkpt lat="48.12192" lon="-3.00971">
        <ele>62</ele>
        <time>2021-08-09T09:53:38Z</time>
      </trkpt>
      <trkpt lat="48.12194" lon="-3.0098">
        <ele>62</ele>
        <time>2021-08-09T09:53:40Z</time>
      </trkpt>
      <trkpt lat="48.12194" lon="-3.00986">
        <ele>62</ele>
        <time>2021-08-09T09:53:41Z</time>
      </trkpt>
      <trkpt lat="48.12195" lon="-3.00992">
        <ele>62</ele>
        <time>2021-08-09T09:53:42Z</time>
      </trkpt>
      <trkpt lat="48.12195" lon="-3.00999">
        <ele>61.8</ele>
        <time>2021-08-09T09:53:43Z</time>
      </trkpt>
      <trkpt lat="48.12195" lon="-3.01006">
        <ele>61.8</ele>
        <time>2021-08-09T09:53:44Z</time>
      </trkpt>
      <trkpt lat="48.12196" lon="-3.01012">
        <ele>62</ele>
        <time>2021-08-09T09:53:45Z</time>
      </trkpt>
      <trkpt lat="48.12195" lon="-3.01022">
        <ele>61.6</ele>
        <time>2021-08-09T09:53:46Z</time>
      </trkpt>
      <trkpt lat="48.12195" lon="-3.0103">
        <ele>61.6</ele>
        <time>2021-08-09T09:53:47Z</time>
      </trkpt>
      <trkpt lat="48.12194" lon="-3.01039">
        <ele>61.6</ele>
        <time>2021-08-09T09:53:48Z</time>
      </trkpt>
      <trkpt lat="48.12193" lon="-3.01047">
        <ele>61.4</ele>
        <time>2021-08-09T09:53:49Z</time>
      </trkpt>
      <trkpt lat="48.12192" lon="-3.01057">
        <ele>61.4</ele>
        <time>2021-08-09T09:53:50Z</time>
      </trkpt>
      <trkpt lat="48.12191" lon="-3.01066">
        <ele>61.4</ele>
        <time>2021-08-09T09:53:51Z</time>
      </trkpt>
      <trkpt lat="48.1219" lon="-3.01075">
        <ele>61.4</ele>
        <time>2021-08-09T09:53:52Z</time>
      </trkpt>
      <trkpt lat="48.12188" lon="-3.01087">
        <ele>61.4</ele>
        <time>2021-08-09T09:53:53Z</time>
      </trkpt>
      <trkpt lat="48.12187" lon="-3.01097">
        <ele>61.4</ele>
        <time>2021-08-09T09:53:54Z</time>
      </trkpt>
      <trkpt lat="48.12186" lon="-3.01108">
        <ele>61.4</ele>
        <time>2021-08-09T09:53:55Z</time>
      </trkpt>
      <trkpt lat="48.12184" lon="-3.01118">
        <ele>61.4</ele>
        <time>2021-08-09T09:53:56Z</time>
      </trkpt>
      <trkpt lat="48.12183" lon="-3.01129">
        <ele>61.4</ele>
        <time>2021-08-09T09:53:57Z</time>
      </trkpt>
      <trkpt lat="48.12183" lon="-3.01139">
        <ele>61.4</ele>
        <time>2021-08-09T09:53:58Z</time>
      </trkpt>
      <trkpt lat="48.12182" lon="-3.01149">
        <ele>61.4</ele>
        <time>2021-08-09T09:53:59Z</time>
      </trkpt>
      <trkpt lat="48.12182" lon="-3.01158">
        <ele>61.4</ele>
        <time>2021-08-09T09:54:00Z</time>
      </trkpt>
      <trkpt lat="48.12184" lon="-3.01174">
        <ele>61.4</ele>
        <time>2021-08-09T09:54:02Z</time>
      </trkpt>
      <trkpt lat="48.12185" lon="-3.01181">
        <ele>61.4</ele>
        <time>2021-08-09T09:54:03Z</time>
      </trkpt>
      <trkpt lat="48.12187" lon="-3.01189">
        <ele>61.6</ele>
        <time>2021-08-09T09:54:04Z</time>
      </trkpt>
      <trkpt lat="48.12188" lon="-3.01197">
        <ele>61.6</ele>
        <time>2021-08-09T09:54:05Z</time>
      </trkpt>
      <trkpt lat="48.12189" lon="-3.01205">
        <ele>61.6</ele>
        <time>2021-08-09T09:54:06Z</time>
      </trkpt>
      <trkpt lat="48.12191" lon="-3.01212">
        <ele>61.6</ele>
        <time>2021-08-09T09:54:07Z</time>
      </trkpt>
      <trkpt lat="48.12193" lon="-3.0122">
        <ele>61.6</ele>
        <time>2021-08-09T09:54:08Z</time>
      </trkpt>
      <trkpt lat="48.12195" lon="-3.01227">
        <ele>61.6</ele>
        <time>2021-08-09T09:54:09Z</time>
      </trkpt>
      <trkpt lat="48.12197" lon="-3.01233">
        <ele>61.6</ele>
        <time>2021-08-09T09:54:10Z</time>
      </trkpt>
      <trkpt lat="48.12198" lon="-3.0124">
        <ele>61.6</ele>
        <time>2021-08-09T09:54:11Z</time>
      </trkpt>
      <trkpt lat="48.122" lon="-3.01247">
        <ele>61.6</ele>
        <time>2021-08-09T09:54:12Z</time>
      </trkpt>
      <trkpt lat="48.12202" lon="-3.01253">
        <ele>61.6</ele>
        <time>2021-08-09T09:54:13Z</time>
      </trkpt>
      <trkpt lat="48.12204" lon="-3.01259">
        <ele>61.6</ele>
        <time>2021-08-09T09:54:14Z</time>
      </trkpt>
      <trkpt lat="48.12206" lon="-3.01265">
        <ele>61.6</ele>
        <time>2021-08-09T09:54:15Z</time>
      </trkpt>
      <trkpt lat="48.12209" lon="-3.01271">
        <ele>61.6</ele>
        <time>2021-08-09T09:54:16Z</time>
      </trkpt>
      <trkpt lat="48.12212" lon="-3.01276">
        <ele>61.6</ele>
        <time>2021-08-09T09:54:17Z</time>
      </trkpt>
      <trkpt lat="48.12215" lon="-3.01282">
        <ele>61.6</ele>
        <time>2021-08-09T09:54:18Z</time>
      </trkpt>
      <trkpt lat="48.12218" lon="-3.01288">
        <ele>61.6</ele>
        <time>2021-08-09T09:54:19Z</time>
      </trkpt>
      <trkpt lat="48.12221" lon="-3.01294">
        <ele>61.6</ele>
        <time>2021-08-09T09:54:20Z</time>
      </trkpt>
      <trkpt lat="48.12224" lon="-3.013">
        <ele>61.4</ele>
        <time>2021-08-09T09:54:21Z</time>
      </trkpt>
      <trkpt lat="48.12228" lon="-3.01306">
        <ele>61.4</ele>
        <time>2021-08-09T09:54:22Z</time>
      </trkpt>
      <trkpt lat="48.12231" lon="-3.01311">
        <ele>61.4</ele>
        <time>2021-08-09T09:54:23Z</time>
      </trkpt>
      <trkpt lat="48.12234" lon="-3.01317">
        <ele>61.4</ele>
        <time>2021-08-09T09:54:24Z</time>
      </trkpt>
      <trkpt lat="48.12238" lon="-3.01322">
        <ele>61.4</ele>
        <time>2021-08-09T09:54:25Z</time>
      </trkpt>
      <trkpt lat="48.12241" lon="-3.01328">
        <ele>61.2</ele>
        <time>2021-08-09T09:54:26Z</time>
      </trkpt>
      <trkpt lat="48.12244" lon="-3.01333">
        <ele>61.2</ele>
        <time>2021-08-09T09:54:27Z</time>
      </trkpt>
      <trkpt lat="48.12248" lon="-3.01338">
        <ele>61.2</ele>
        <time>2021-08-09T09:54:28Z</time>
      </trkpt>
      <trkpt lat="48.12251" lon="-3.01343">
        <ele>61.2</ele>
        <time>2021-08-09T09:54:29Z</time>
      </trkpt>
      <trkpt lat="48.12254" lon="-3.01348">
        <ele>61.2</ele>
        <time>2021-08-09T09:54:30Z</time>
      </trkpt>
      <trkpt lat="48.12258" lon="-3.01354">
        <ele>61.4</ele>
        <time>2021-08-09T09:54:31Z</time>
      </trkpt>
      <trkpt lat="48.12261" lon="-3.01359">
        <ele>61.4</ele>
        <time>2021-08-09T09:54:32Z</time>
      </trkpt>
      <trkpt lat="48.12264" lon="-3.01364">
        <ele>61.6</ele>
        <time>2021-08-09T09:54:33Z</time>
      </trkpt>
      <trkpt lat="48.1227" lon="-3.01374">
        <ele>61.8</ele>
        <time>2021-08-09T09:54:35Z</time>
      </trkpt>
      <trkpt lat="48.12274" lon="-3.01377">
        <ele>61.8</ele>
        <time>2021-08-09T09:54:36Z</time>
      </trkpt>
      <trkpt lat="48.12278" lon="-3.01381">
        <ele>62</ele>
        <time>2021-08-09T09:54:37Z</time>
      </trkpt>
      <trkpt lat="48.12281" lon="-3.01386">
        <ele>62</ele>
        <time>2021-08-09T09:54:38Z</time>
      </trkpt>
      <trkpt lat="48.12285" lon="-3.01391">
        <ele>62</ele>
        <time>2021-08-09T09:54:39Z</time>
      </trkpt>
      <trkpt lat="48.12288" lon="-3.01395">
        <ele>62</ele>
        <time>2021-08-09T09:54:40Z</time>
      </trkpt>
      <trkpt lat="48.12291" lon="-3.014">
        <ele>62</ele>
        <time>2021-08-09T09:54:41Z</time>
      </trkpt>
      <trkpt lat="48.12295" lon="-3.01404">
        <ele>62</ele>
        <time>2021-08-09T09:54:42Z</time>
      </trkpt>
      <trkpt lat="48.12298" lon="-3.01408">
        <ele>62</ele>
        <time>2021-08-09T09:54:43Z</time>
      </trkpt>
      <trkpt lat="48.12302" lon="-3.01412">
        <ele>62</ele>
        <time>2021-08-09T09:54:44Z</time>
      </trkpt>
      <trkpt lat="48.12308" lon="-3.01419">
        <ele>62</ele>
        <time>2021-08-09T09:54:46Z</time>
      </trkpt>
      <trkpt lat="48.12312" lon="-3.01421">
        <ele>62</ele>
        <time>2021-08-09T09:54:47Z</time>
      </trkpt>
      <trkpt lat="48.12316" lon="-3.01424">
        <ele>62</ele>
        <time>2021-08-09T09:54:48Z</time>
      </trkpt>
      <trkpt lat="48.12319" lon="-3.01428">
        <ele>62</ele>
        <time>2021-08-09T09:54:49Z</time>
      </trkpt>
      <trkpt lat="48.12323" lon="-3.01431">
        <ele>62</ele>
        <time>2021-08-09T09:54:50Z</time>
      </trkpt>
      <trkpt lat="48.12326" lon="-3.01434">
        <ele>62</ele>
        <time>2021-08-09T09:54:51Z</time>
      </trkpt>
      <trkpt lat="48.1233" lon="-3.01437">
        <ele>62</ele>
        <time>2021-08-09T09:54:52Z</time>
      </trkpt>
      <trkpt lat="48.12334" lon="-3.0144">
        <ele>62</ele>
        <time>2021-08-09T09:54:53Z</time>
      </trkpt>
      <trkpt lat="48.12337" lon="-3.01442">
        <ele>62</ele>
        <time>2021-08-09T09:54:54Z</time>
      </trkpt>
      <trkpt lat="48.12341" lon="-3.01445">
        <ele>62</ele>
        <time>2021-08-09T09:54:55Z</time>
      </trkpt>
      <trkpt lat="48.12347" lon="-3.01449">
        <ele>62</ele>
        <time>2021-08-09T09:54:57Z</time>
      </trkpt>
      <trkpt lat="48.1235" lon="-3.01452">
        <ele>62</ele>
        <time>2021-08-09T09:54:58Z</time>
      </trkpt>
      <trkpt lat="48.12353" lon="-3.01453">
        <ele>62</ele>
        <time>2021-08-09T09:54:59Z</time>
      </trkpt>
      <trkpt lat="48.12357" lon="-3.01455">
        <ele>62</ele>
        <time>2021-08-09T09:55:00Z</time>
      </trkpt>
      <trkpt lat="48.12361" lon="-3.01456">
        <ele>62</ele>
        <time>2021-08-09T09:55:01Z</time>
      </trkpt>
      <trkpt lat="48.12365" lon="-3.01459">
        <ele>62.2</ele>
        <time>2021-08-09T09:55:02Z</time>
      </trkpt>
      <trkpt lat="48.12369" lon="-3.01461">
        <ele>62.2</ele>
        <time>2021-08-09T09:55:03Z</time>
      </trkpt>
      <trkpt lat="48.12373" lon="-3.01463">
        <ele>62.2</ele>
        <time>2021-08-09T09:55:04Z</time>
      </trkpt>
      <trkpt lat="48.12377" lon="-3.01464">
        <ele>62.4</ele>
        <time>2021-08-09T09:55:05Z</time>
      </trkpt>
      <trkpt lat="48.12381" lon="-3.01466">
        <ele>62.4</ele>
        <time>2021-08-09T09:55:06Z</time>
      </trkpt>
      <trkpt lat="48.12385" lon="-3.01468">
        <ele>62.4</ele>
        <time>2021-08-09T09:55:07Z</time>
      </trkpt>
      <trkpt lat="48.12389" lon="-3.01471">
        <ele>62.4</ele>
        <time>2021-08-09T09:55:08Z</time>
      </trkpt>
      <trkpt lat="48.12394" lon="-3.01473">
        <ele>62.4</ele>
        <time>2021-08-09T09:55:09Z</time>
      </trkpt>
      <trkpt lat="48.12399" lon="-3.01475">
        <ele>62.4</ele>
        <time>2021-08-09T09:55:10Z</time>
      </trkpt>
      <trkpt lat="48.12404" lon="-3.01478">
        <ele>62.4</ele>
        <time>2021-08-09T09:55:11Z</time>
      </trkpt>
      <trkpt lat="48.12409" lon="-3.0148">
        <ele>62.4</ele>
        <time>2021-08-09T09:55:12Z</time>
      </trkpt>
      <trkpt lat="48.12413" lon="-3.01482">
        <ele>62.4</ele>
        <time>2021-08-09T09:55:13Z</time>
      </trkpt>
      <trkpt lat="48.12418" lon="-3.01485">
        <ele>62.4</ele>
        <time>2021-08-09T09:55:14Z</time>
      </trkpt>
      <trkpt lat="48.12422" lon="-3.01487">
        <ele>62.4</ele>
        <time>2021-08-09T09:55:15Z</time>
      </trkpt>
      <trkpt lat="48.12427" lon="-3.01489">
        <ele>62.4</ele>
        <time>2021-08-09T09:55:16Z</time>
      </trkpt>
      <trkpt lat="48.12432" lon="-3.0149">
        <ele>62.4</ele>
        <time>2021-08-09T09:55:17Z</time>
      </trkpt>
      <trkpt lat="48.12441" lon="-3.01495">
        <ele>62.4</ele>
        <time>2021-08-09T09:55:19Z</time>
      </trkpt>
      <trkpt lat="48.12446" lon="-3.01496">
        <ele>62.4</ele>
        <time>2021-08-09T09:55:20Z</time>
      </trkpt>
      <trkpt lat="48.12451" lon="-3.01498">
        <ele>62.4</ele>
        <time>2021-08-09T09:55:21Z</time>
      </trkpt>
      <trkpt lat="48.12455" lon="-3.015">
        <ele>62.4</ele>
        <time>2021-08-09T09:55:22Z</time>
      </trkpt>
      <trkpt lat="48.12459" lon="-3.01502">
        <ele>62.4</ele>
        <time>2021-08-09T09:55:23Z</time>
      </trkpt>
      <trkpt lat="48.12464" lon="-3.01503">
        <ele>62.4</ele>
        <time>2021-08-09T09:55:24Z</time>
      </trkpt>
      <trkpt lat="48.12469" lon="-3.01505">
        <ele>62.4</ele>
        <time>2021-08-09T09:55:25Z</time>
      </trkpt>
      <trkpt lat="48.12474" lon="-3.01506">
        <ele>62.4</ele>
        <time>2021-08-09T09:55:26Z</time>
      </trkpt>
      <trkpt lat="48.12479" lon="-3.01506">
        <ele>62.6</ele>
        <time>2021-08-09T09:55:27Z</time>
      </trkpt>
      <trkpt lat="48.12483" lon="-3.01507">
        <ele>62.6</ele>
        <time>2021-08-09T09:55:28Z</time>
      </trkpt>
      <trkpt lat="48.12488" lon="-3.01507">
        <ele>62.6</ele>
        <time>2021-08-09T09:55:29Z</time>
      </trkpt>
      <trkpt lat="48.12493" lon="-3.01508">
        <ele>62.6</ele>
        <time>2021-08-09T09:55:30Z</time>
      </trkpt>
      <trkpt lat="48.12497" lon="-3.01509">
        <ele>62.6</ele>
        <time>2021-08-09T09:55:31Z</time>
      </trkpt>
      <trkpt lat="48.12502" lon="-3.0151">
        <ele>62.6</ele>
        <time>2021-08-09T09:55:32Z</time>
      </trkpt>
      <trkpt lat="48.12507" lon="-3.01511">
        <ele>62.6</ele>
        <time>2021-08-09T09:55:33Z</time>
      </trkpt>
      <trkpt lat="48.12513" lon="-3.01512">
        <ele>62.6</ele>
        <time>2021-08-09T09:55:34Z</time>
      </trkpt>
      <trkpt lat="48.12518" lon="-3.01513">
        <ele>62.6</ele>
        <time>2021-08-09T09:55:35Z</time>
      </trkpt>
      <trkpt lat="48.12523" lon="-3.01514">
        <ele>62.6</ele>
        <time>2021-08-09T09:55:36Z</time>
      </trkpt>
      <trkpt lat="48.12528" lon="-3.01515">
        <ele>62.6</ele>
        <time>2021-08-09T09:55:37Z</time>
      </trkpt>
      <trkpt lat="48.12534" lon="-3.01515">
        <ele>62.6</ele>
        <time>2021-08-09T09:55:38Z</time>
      </trkpt>
      <trkpt lat="48.12539" lon="-3.01516">
        <ele>62.6</ele>
        <time>2021-08-09T09:55:39Z</time>
      </trkpt>
      <trkpt lat="48.12549" lon="-3.01517">
        <ele>62.4</ele>
        <time>2021-08-09T09:55:41Z</time>
      </trkpt>
      <trkpt lat="48.12553" lon="-3.01518">
        <ele>62.4</ele>
        <time>2021-08-09T09:55:42Z</time>
      </trkpt>
      <trkpt lat="48.12558" lon="-3.01519">
        <ele>62.4</ele>
        <time>2021-08-09T09:55:43Z</time>
      </trkpt>
      <trkpt lat="48.12562" lon="-3.01519">
        <ele>62.4</ele>
        <time>2021-08-09T09:55:44Z</time>
      </trkpt>
      <trkpt lat="48.12567" lon="-3.01519">
        <ele>62.4</ele>
        <time>2021-08-09T09:55:45Z</time>
      </trkpt>
      <trkpt lat="48.12572" lon="-3.01519">
        <ele>62.4</ele>
        <time>2021-08-09T09:55:46Z</time>
      </trkpt>
      <trkpt lat="48.12577" lon="-3.01519">
        <ele>62.4</ele>
        <time>2021-08-09T09:55:47Z</time>
      </trkpt>
      <trkpt lat="48.12582" lon="-3.01519">
        <ele>62.4</ele>
        <time>2021-08-09T09:55:48Z</time>
      </trkpt>
      <trkpt lat="48.12588" lon="-3.01518">
        <ele>62.4</ele>
        <time>2021-08-09T09:55:49Z</time>
      </trkpt>
      <trkpt lat="48.12592" lon="-3.01517">
        <ele>62.4</ele>
        <time>2021-08-09T09:55:50Z</time>
      </trkpt>
      <trkpt lat="48.12599" lon="-3.01514">
        <ele>62.4</ele>
        <time>2021-08-09T09:55:52Z</time>
      </trkpt>
      <trkpt lat="48.12603" lon="-3.01513">
        <ele>62.4</ele>
        <time>2021-08-09T09:55:53Z</time>
      </trkpt>
      <trkpt lat="48.12607" lon="-3.01512">
        <ele>62.4</ele>
        <time>2021-08-09T09:55:54Z</time>
      </trkpt>
      <trkpt lat="48.12611" lon="-3.01511">
        <ele>62.6</ele>
        <time>2021-08-09T09:55:55Z</time>
      </trkpt>
      <trkpt lat="48.12615" lon="-3.0151">
        <ele>62.6</ele>
        <time>2021-08-09T09:55:56Z</time>
      </trkpt>
      <trkpt lat="48.1262" lon="-3.01508">
        <ele>62.6</ele>
        <time>2021-08-09T09:55:57Z</time>
      </trkpt>
      <trkpt lat="48.12624" lon="-3.01507">
        <ele>62.6</ele>
        <time>2021-08-09T09:55:58Z</time>
      </trkpt>
      <trkpt lat="48.12628" lon="-3.01506">
        <ele>62.6</ele>
        <time>2021-08-09T09:55:59Z</time>
      </trkpt>
      <trkpt lat="48.12633" lon="-3.01504">
        <ele>62.6</ele>
        <time>2021-08-09T09:56:00Z</time>
      </trkpt>
      <trkpt lat="48.12637" lon="-3.01502">
        <ele>62.8</ele>
        <time>2021-08-09T09:56:01Z</time>
      </trkpt>
      <trkpt lat="48.12647" lon="-3.01498">
        <ele>62.8</ele>
        <time>2021-08-09T09:56:03Z</time>
      </trkpt>
      <trkpt lat="48.12652" lon="-3.01496">
        <ele>62.8</ele>
        <time>2021-08-09T09:56:04Z</time>
      </trkpt>
      <trkpt lat="48.12656" lon="-3.01494">
        <ele>62.8</ele>
        <time>2021-08-09T09:56:05Z</time>
      </trkpt>
      <trkpt lat="48.12661" lon="-3.01492">
        <ele>62.8</ele>
        <time>2021-08-09T09:56:06Z</time>
      </trkpt>
      <trkpt lat="48.12665" lon="-3.0149">
        <ele>62.8</ele>
        <time>2021-08-09T09:56:07Z</time>
      </trkpt>
      <trkpt lat="48.12669" lon="-3.01488">
        <ele>62.8</ele>
        <time>2021-08-09T09:56:08Z</time>
      </trkpt>
      <trkpt lat="48.12674" lon="-3.01486">
        <ele>62.8</ele>
        <time>2021-08-09T09:56:09Z</time>
      </trkpt>
      <trkpt lat="48.12678" lon="-3.01484">
        <ele>62.8</ele>
        <time>2021-08-09T09:56:10Z</time>
      </trkpt>
      <trkpt lat="48.12682" lon="-3.01482">
        <ele>62.8</ele>
        <time>2021-08-09T09:56:11Z</time>
      </trkpt>
      <trkpt lat="48.12687" lon="-3.0148">
        <ele>62.8</ele>
        <time>2021-08-09T09:56:12Z</time>
      </trkpt>
      <trkpt lat="48.12696" lon="-3.01476">
        <ele>62.8</ele>
        <time>2021-08-09T09:56:14Z</time>
      </trkpt>
      <trkpt lat="48.12701" lon="-3.01473">
        <ele>63</ele>
        <time>2021-08-09T09:56:15Z</time>
      </trkpt>
      <trkpt lat="48.12705" lon="-3.01471">
        <ele>63</ele>
        <time>2021-08-09T09:56:16Z</time>
      </trkpt>
      <trkpt lat="48.12709" lon="-3.0147">
        <ele>63</ele>
        <time>2021-08-09T09:56:17Z</time>
      </trkpt>
      <trkpt lat="48.12713" lon="-3.01467">
        <ele>63</ele>
        <time>2021-08-09T09:56:18Z</time>
      </trkpt>
      <trkpt lat="48.12718" lon="-3.01465">
        <ele>63</ele>
        <time>2021-08-09T09:56:19Z</time>
      </trkpt>
      <trkpt lat="48.12722" lon="-3.01463">
        <ele>63</ele>
        <time>2021-08-09T09:56:20Z</time>
      </trkpt>
      <trkpt lat="48.12726" lon="-3.01461">
        <ele>63</ele>
        <time>2021-08-09T09:56:21Z</time>
      </trkpt>
      <trkpt lat="48.12731" lon="-3.01458">
        <ele>63</ele>
        <time>2021-08-09T09:56:22Z</time>
      </trkpt>
      <trkpt lat="48.12736" lon="-3.01456">
        <ele>63</ele>
        <time>2021-08-09T09:56:23Z</time>
      </trkpt>
      <trkpt lat="48.12744" lon="-3.0145">
        <ele>63</ele>
        <time>2021-08-09T09:56:25Z</time>
      </trkpt>
      <trkpt lat="48.12748" lon="-3.01448">
        <ele>63</ele>
        <time>2021-08-09T09:56:26Z</time>
      </trkpt>
      <trkpt lat="48.12753" lon="-3.01444">
        <ele>63</ele>
        <time>2021-08-09T09:56:27Z</time>
      </trkpt>
      <trkpt lat="48.12757" lon="-3.01442">
        <ele>63</ele>
        <time>2021-08-09T09:56:28Z</time>
      </trkpt>
      <trkpt lat="48.12761" lon="-3.01439">
        <ele>63</ele>
        <time>2021-08-09T09:56:29Z</time>
      </trkpt>
      <trkpt lat="48.12765" lon="-3.01436">
        <ele>63</ele>
        <time>2021-08-09T09:56:30Z</time>
      </trkpt>
      <trkpt lat="48.12769" lon="-3.01433">
        <ele>63</ele>
        <time>2021-08-09T09:56:31Z</time>
      </trkpt>
      <trkpt lat="48.12774" lon="-3.0143">
        <ele>63</ele>
        <time>2021-08-09T09:56:32Z</time>
      </trkpt>
      <trkpt lat="48.12778" lon="-3.01427">
        <ele>63</ele>
        <time>2021-08-09T09:56:33Z</time>
      </trkpt>
      <trkpt lat="48.12783" lon="-3.01424">
        <ele>63</ele>
        <time>2021-08-09T09:56:34Z</time>
      </trkpt>
      <trkpt lat="48.12786" lon="-3.01421">
        <ele>63.2</ele>
        <time>2021-08-09T09:56:35Z</time>
      </trkpt>
      <trkpt lat="48.1279" lon="-3.01419">
        <ele>63.2</ele>
        <time>2021-08-09T09:56:36Z</time>
      </trkpt>
      <trkpt lat="48.12794" lon="-3.01416">
        <ele>63.2</ele>
        <time>2021-08-09T09:56:37Z</time>
      </trkpt>
      <trkpt lat="48.12798" lon="-3.01413">
        <ele>63.2</ele>
        <time>2021-08-09T09:56:38Z</time>
      </trkpt>
      <trkpt lat="48.12802" lon="-3.01411">
        <ele>63.4</ele>
        <time>2021-08-09T09:56:39Z</time>
      </trkpt>
      <trkpt lat="48.12807" lon="-3.01408">
        <ele>63.4</ele>
        <time>2021-08-09T09:56:40Z</time>
      </trkpt>
      <trkpt lat="48.12811" lon="-3.01404">
        <ele>63.4</ele>
        <time>2021-08-09T09:56:41Z</time>
      </trkpt>
      <trkpt lat="48.12815" lon="-3.01401">
        <ele>63.6</ele>
        <time>2021-08-09T09:56:42Z</time>
      </trkpt>
      <trkpt lat="48.12819" lon="-3.01397">
        <ele>63.6</ele>
        <time>2021-08-09T09:56:43Z</time>
      </trkpt>
      <trkpt lat="48.12822" lon="-3.01394">
        <ele>63.6</ele>
        <time>2021-08-09T09:56:44Z</time>
      </trkpt>
      <trkpt lat="48.12826" lon="-3.01389">
        <ele>63.6</ele>
        <time>2021-08-09T09:56:45Z</time>
      </trkpt>
      <trkpt lat="48.12832" lon="-3.01379">
        <ele>63.8</ele>
        <time>2021-08-09T09:56:47Z</time>
      </trkpt>
      <trkpt lat="48.12835" lon="-3.01374">
        <ele>63.8</ele>
        <time>2021-08-09T09:56:48Z</time>
      </trkpt>
      <trkpt lat="48.12838" lon="-3.01368">
        <ele>63.8</ele>
        <time>2021-08-09T09:56:49Z</time>
      </trkpt>
      <trkpt lat="48.12841" lon="-3.01363">
        <ele>63.8</ele>
        <time>2021-08-09T09:56:50Z</time>
      </trkpt>
      <trkpt lat="48.12843" lon="-3.01357">
        <ele>63.8</ele>
        <time>2021-08-09T09:56:51Z</time>
      </trkpt>
      <trkpt lat="48.12845" lon="-3.01351">
        <ele>63.8</ele>
        <time>2021-08-09T09:56:52Z</time>
      </trkpt>
      <trkpt lat="48.12846" lon="-3.01345">
        <ele>63.8</ele>
        <time>2021-08-09T09:56:53Z</time>
      </trkpt>
      <trkpt lat="48.12848" lon="-3.01339">
        <ele>64</ele>
        <time>2021-08-09T09:56:54Z</time>
      </trkpt>
      <trkpt lat="48.1285" lon="-3.01332">
        <ele>64</ele>
        <time>2021-08-09T09:56:55Z</time>
      </trkpt>
      <trkpt lat="48.12852" lon="-3.01326">
        <ele>64</ele>
        <time>2021-08-09T09:56:56Z</time>
      </trkpt>
      <trkpt lat="48.12856" lon="-3.01314">
        <ele>64</ele>
        <time>2021-08-09T09:56:58Z</time>
      </trkpt>
      <trkpt lat="48.12857" lon="-3.01307">
        <ele>64</ele>
        <time>2021-08-09T09:56:59Z</time>
      </trkpt>
      <trkpt lat="48.12859" lon="-3.01301">
        <ele>64</ele>
        <time>2021-08-09T09:57:00Z</time>
      </trkpt>
      <trkpt lat="48.12861" lon="-3.01295">
        <ele>64</ele>
        <time>2021-08-09T09:57:01Z</time>
      </trkpt>
      <trkpt lat="48.12862" lon="-3.01289">
        <ele>64</ele>
        <time>2021-08-09T09:57:02Z</time>
      </trkpt>
      <trkpt lat="48.12864" lon="-3.01282">
        <ele>64</ele>
        <time>2021-08-09T09:57:03Z</time>
      </trkpt>
      <trkpt lat="48.12866" lon="-3.01276">
        <ele>64</ele>
        <time>2021-08-09T09:57:04Z</time>
      </trkpt>
      <trkpt lat="48.12867" lon="-3.0127">
        <ele>64</ele>
        <time>2021-08-09T09:57:05Z</time>
      </trkpt>
      <trkpt lat="48.12869" lon="-3.01263">
        <ele>64</ele>
        <time>2021-08-09T09:57:06Z</time>
      </trkpt>
      <trkpt lat="48.12871" lon="-3.01257">
        <ele>64</ele>
        <time>2021-08-09T09:57:07Z</time>
      </trkpt>
      <trkpt lat="48.12874" lon="-3.01245">
        <ele>63.8</ele>
        <time>2021-08-09T09:57:09Z</time>
      </trkpt>
      <trkpt lat="48.12876" lon="-3.01239">
        <ele>63.8</ele>
        <time>2021-08-09T09:57:10Z</time>
      </trkpt>
      <trkpt lat="48.12878" lon="-3.01234">
        <ele>63.8</ele>
        <time>2021-08-09T09:57:11Z</time>
      </trkpt>
      <trkpt lat="48.12879" lon="-3.0123">
        <ele>63.8</ele>
        <time>2021-08-09T09:57:12Z</time>
      </trkpt>
      <trkpt lat="48.1288" lon="-3.01224">
        <ele>63.8</ele>
        <time>2021-08-09T09:57:13Z</time>
      </trkpt>
      <trkpt lat="48.12882" lon="-3.0122">
        <ele>63.8</ele>
        <time>2021-08-09T09:57:14Z</time>
      </trkpt>
      <trkpt lat="48.12884" lon="-3.01215">
        <ele>63.8</ele>
        <time>2021-08-09T09:57:15Z</time>
      </trkpt>
      <trkpt lat="48.12886" lon="-3.0121">
        <ele>63.8</ele>
        <time>2021-08-09T09:57:16Z</time>
      </trkpt>
      <trkpt lat="48.12889" lon="-3.01205">
        <ele>63.8</ele>
        <time>2021-08-09T09:57:17Z</time>
      </trkpt>
      <trkpt lat="48.12891" lon="-3.012">
        <ele>63.8</ele>
        <time>2021-08-09T09:57:18Z</time>
      </trkpt>
      <trkpt lat="48.12894" lon="-3.01196">
        <ele>63.8</ele>
        <time>2021-08-09T09:57:19Z</time>
      </trkpt>
      <trkpt lat="48.12897" lon="-3.01191">
        <ele>63.8</ele>
        <time>2021-08-09T09:57:20Z</time>
      </trkpt>
      <trkpt lat="48.12899" lon="-3.01187">
        <ele>63.8</ele>
        <time>2021-08-09T09:57:21Z</time>
      </trkpt>
      <trkpt lat="48.12902" lon="-3.01183">
        <ele>63.8</ele>
        <time>2021-08-09T09:57:22Z</time>
      </trkpt>
      <trkpt lat="48.12905" lon="-3.01178">
        <ele>63.8</ele>
        <time>2021-08-09T09:57:23Z</time>
      </trkpt>
      <trkpt lat="48.12908" lon="-3.01172">
        <ele>63.8</ele>
        <time>2021-08-09T09:57:24Z</time>
      </trkpt>
      <trkpt lat="48.12912" lon="-3.01167">
        <ele>63.8</ele>
        <time>2021-08-09T09:57:25Z</time>
      </trkpt>
      <trkpt lat="48.12915" lon="-3.01161">
        <ele>63.8</ele>
        <time>2021-08-09T09:57:26Z</time>
      </trkpt>
      <trkpt lat="48.12919" lon="-3.01156">
        <ele>63.8</ele>
        <time>2021-08-09T09:57:27Z</time>
      </trkpt>
      <trkpt lat="48.12923" lon="-3.0115">
        <ele>63.8</ele>
        <time>2021-08-09T09:57:28Z</time>
      </trkpt>
      <trkpt lat="48.12927" lon="-3.01144">
        <ele>63.6</ele>
        <time>2021-08-09T09:57:29Z</time>
      </trkpt>
      <trkpt lat="48.12936" lon="-3.01132">
        <ele>63.6</ele>
        <time>2021-08-09T09:57:31Z</time>
      </trkpt>
      <trkpt lat="48.1294" lon="-3.01126">
        <ele>63.6</ele>
        <time>2021-08-09T09:57:32Z</time>
      </trkpt>
      <trkpt lat="48.12943" lon="-3.01121">
        <ele>63.6</ele>
        <time>2021-08-09T09:57:33Z</time>
      </trkpt>
      <trkpt lat="48.12947" lon="-3.01115">
        <ele>63.6</ele>
        <time>2021-08-09T09:57:34Z</time>
      </trkpt>
      <trkpt lat="48.1295" lon="-3.01111">
        <ele>63.6</ele>
        <time>2021-08-09T09:57:35Z</time>
      </trkpt>
      <trkpt lat="48.12953" lon="-3.01106">
        <ele>63.6</ele>
        <time>2021-08-09T09:57:36Z</time>
      </trkpt>
      <trkpt lat="48.12956" lon="-3.01101">
        <ele>63.6</ele>
        <time>2021-08-09T09:57:37Z</time>
      </trkpt>
      <trkpt lat="48.12959" lon="-3.01095">
        <ele>63.6</ele>
        <time>2021-08-09T09:57:38Z</time>
      </trkpt>
      <trkpt lat="48.1296" lon="-3.0109">
        <ele>63.6</ele>
        <time>2021-08-09T09:57:39Z</time>
      </trkpt>
      <trkpt lat="48.12962" lon="-3.01085">
        <ele>63.6</ele>
        <time>2021-08-09T09:57:40Z</time>
      </trkpt>
      <trkpt lat="48.12967" lon="-3.01074">
        <ele>63.6</ele>
        <time>2021-08-09T09:57:42Z</time>
      </trkpt>
      <trkpt lat="48.12969" lon="-3.01068">
        <ele>63.6</ele>
        <time>2021-08-09T09:57:43Z</time>
      </trkpt>
      <trkpt lat="48.12972" lon="-3.01062">
        <ele>63.6</ele>
        <time>2021-08-09T09:57:44Z</time>
      </trkpt>
      <trkpt lat="48.12975" lon="-3.01055">
        <ele>63.6</ele>
        <time>2021-08-09T09:57:45Z</time>
      </trkpt>
      <trkpt lat="48.12978" lon="-3.01048">
        <ele>63.6</ele>
        <time>2021-08-09T09:57:46Z</time>
      </trkpt>
      <trkpt lat="48.12981" lon="-3.01042">
        <ele>63.6</ele>
        <time>2021-08-09T09:57:47Z</time>
      </trkpt>
      <trkpt lat="48.12983" lon="-3.01035">
        <ele>63.6</ele>
        <time>2021-08-09T09:57:48Z</time>
      </trkpt>
      <trkpt lat="48.12986" lon="-3.01029">
        <ele>63.6</ele>
        <time>2021-08-09T09:57:49Z</time>
      </trkpt>
      <trkpt lat="48.12988" lon="-3.01023">
        <ele>63.6</ele>
        <time>2021-08-09T09:57:50Z</time>
      </trkpt>
      <trkpt lat="48.12991" lon="-3.01017">
        <ele>63.6</ele>
        <time>2021-08-09T09:57:51Z</time>
      </trkpt>
      <trkpt lat="48.12997" lon="-3.01004">
        <ele>63.6</ele>
        <time>2021-08-09T09:57:53Z</time>
      </trkpt>
      <trkpt lat="48.12999" lon="-3.00997">
        <ele>63.6</ele>
        <time>2021-08-09T09:57:54Z</time>
      </trkpt>
      <trkpt lat="48.13001" lon="-3.00991">
        <ele>63.6</ele>
        <time>2021-08-09T09:57:55Z</time>
      </trkpt>
      <trkpt lat="48.13003" lon="-3.00984">
        <ele>63.6</ele>
        <time>2021-08-09T09:57:56Z</time>
      </trkpt>
      <trkpt lat="48.13005" lon="-3.00978">
        <ele>63.6</ele>
        <time>2021-08-09T09:57:57Z</time>
      </trkpt>
      <trkpt lat="48.13007" lon="-3.00971">
        <ele>63.6</ele>
        <time>2021-08-09T09:57:58Z</time>
      </trkpt>
      <trkpt lat="48.13009" lon="-3.00965">
        <ele>63.6</ele>
        <time>2021-08-09T09:57:59Z</time>
      </trkpt>
      <trkpt lat="48.13011" lon="-3.00958">
        <ele>63.6</ele>
        <time>2021-08-09T09:58:00Z</time>
      </trkpt>
      <trkpt lat="48.13013" lon="-3.00951">
        <ele>63.6</ele>
        <time>2021-08-09T09:58:01Z</time>
      </trkpt>
      <trkpt lat="48.13015" lon="-3.00944">
        <ele>63.6</ele>
        <time>2021-08-09T09:58:02Z</time>
      </trkpt>
      <trkpt lat="48.13016" lon="-3.00937">
        <ele>63.6</ele>
        <time>2021-08-09T09:58:03Z</time>
      </trkpt>
      <trkpt lat="48.13018" lon="-3.0093">
        <ele>63.6</ele>
        <time>2021-08-09T09:58:04Z</time>
      </trkpt>
      <trkpt lat="48.13019" lon="-3.00923">
        <ele>63.6</ele>
        <time>2021-08-09T09:58:05Z</time>
      </trkpt>
      <trkpt lat="48.1302" lon="-3.00915">
        <ele>63.6</ele>
        <time>2021-08-09T09:58:06Z</time>
      </trkpt>
      <trkpt lat="48.1302" lon="-3.00908">
        <ele>63.6</ele>
        <time>2021-08-09T09:58:07Z</time>
      </trkpt>
      <trkpt lat="48.1302" lon="-3.00901">
        <ele>63.6</ele>
        <time>2021-08-09T09:58:08Z</time>
      </trkpt>
      <trkpt lat="48.13022" lon="-3.00893">
        <ele>63.6</ele>
        <time>2021-08-09T09:58:09Z</time>
      </trkpt>
      <trkpt lat="48.13023" lon="-3.00886">
        <ele>63.6</ele>
        <time>2021-08-09T09:58:10Z</time>
      </trkpt>
      <trkpt lat="48.13024" lon="-3.00879">
        <ele>63.6</ele>
        <time>2021-08-09T09:58:11Z</time>
      </trkpt>
      <trkpt lat="48.13026" lon="-3.00872">
        <ele>63.6</ele>
        <time>2021-08-09T09:58:12Z</time>
      </trkpt>
      <trkpt lat="48.13028" lon="-3.00864">
        <ele>63.6</ele>
        <time>2021-08-09T09:58:13Z</time>
      </trkpt>
      <trkpt lat="48.13029" lon="-3.00857">
        <ele>63.6</ele>
        <time>2021-08-09T09:58:14Z</time>
      </trkpt>
      <trkpt lat="48.13031" lon="-3.0085">
        <ele>63.6</ele>
        <time>2021-08-09T09:58:15Z</time>
      </trkpt>
      <trkpt lat="48.13032" lon="-3.00843">
        <ele>63.6</ele>
        <time>2021-08-09T09:58:16Z</time>
      </trkpt>
      <trkpt lat="48.13032" lon="-3.00836">
        <ele>63.6</ele>
        <time>2021-08-09T09:58:17Z</time>
      </trkpt>
      <trkpt lat="48.13033" lon="-3.00829">
        <ele>63.6</ele>
        <time>2021-08-09T09:58:18Z</time>
      </trkpt>
      <trkpt lat="48.13033" lon="-3.00822">
        <ele>63.6</ele>
        <time>2021-08-09T09:58:19Z</time>
      </trkpt>
      <trkpt lat="48.13035" lon="-3.00815">
        <ele>63.6</ele>
        <time>2021-08-09T09:58:20Z</time>
      </trkpt>
      <trkpt lat="48.13036" lon="-3.00808">
        <ele>63.6</ele>
        <time>2021-08-09T09:58:21Z</time>
      </trkpt>
      <trkpt lat="48.13037" lon="-3.00801">
        <ele>63.6</ele>
        <time>2021-08-09T09:58:22Z</time>
      </trkpt>
      <trkpt lat="48.13039" lon="-3.00794">
        <ele>63.6</ele>
        <time>2021-08-09T09:58:23Z</time>
      </trkpt>
      <trkpt lat="48.1304" lon="-3.00788">
        <ele>63.6</ele>
        <time>2021-08-09T09:58:24Z</time>
      </trkpt>
      <trkpt lat="48.13042" lon="-3.00775">
        <ele>63.6</ele>
        <time>2021-08-09T09:58:26Z</time>
      </trkpt>
      <trkpt lat="48.13043" lon="-3.00769">
        <ele>63.6</ele>
        <time>2021-08-09T09:58:27Z</time>
      </trkpt>
      <trkpt lat="48.13043" lon="-3.00762">
        <ele>63.6</ele>
        <time>2021-08-09T09:58:28Z</time>
      </trkpt>
      <trkpt lat="48.13043" lon="-3.00756">
        <ele>63.6</ele>
        <time>2021-08-09T09:58:29Z</time>
      </trkpt>
      <trkpt lat="48.13044" lon="-3.0075">
        <ele>63.6</ele>
        <time>2021-08-09T09:58:30Z</time>
      </trkpt>
      <trkpt lat="48.13044" lon="-3.00744">
        <ele>63.6</ele>
        <time>2021-08-09T09:58:31Z</time>
      </trkpt>
      <trkpt lat="48.13045" lon="-3.00738">
        <ele>63.8</ele>
        <time>2021-08-09T09:58:32Z</time>
      </trkpt>
      <trkpt lat="48.13046" lon="-3.00731">
        <ele>63.8</ele>
        <time>2021-08-09T09:58:33Z</time>
      </trkpt>
      <trkpt lat="48.13046" lon="-3.00725">
        <ele>63.8</ele>
        <time>2021-08-09T09:58:34Z</time>
      </trkpt>
      <trkpt lat="48.13047" lon="-3.00718">
        <ele>63.8</ele>
        <time>2021-08-09T09:58:35Z</time>
      </trkpt>
      <trkpt lat="48.13049" lon="-3.00704">
        <ele>63.8</ele>
        <time>2021-08-09T09:58:37Z</time>
      </trkpt>
      <trkpt lat="48.1305" lon="-3.00697">
        <ele>63.8</ele>
        <time>2021-08-09T09:58:38Z</time>
      </trkpt>
      <trkpt lat="48.1305" lon="-3.0069">
        <ele>63.8</ele>
        <time>2021-08-09T09:58:39Z</time>
      </trkpt>
      <trkpt lat="48.13051" lon="-3.00683">
        <ele>63.8</ele>
        <time>2021-08-09T09:58:40Z</time>
      </trkpt>
      <trkpt lat="48.13052" lon="-3.00677">
        <ele>63.8</ele>
        <time>2021-08-09T09:58:41Z</time>
      </trkpt>
      <trkpt lat="48.13053" lon="-3.0067">
        <ele>63.8</ele>
        <time>2021-08-09T09:58:42Z</time>
      </trkpt>
      <trkpt lat="48.13054" lon="-3.00664">
        <ele>63.6</ele>
        <time>2021-08-09T09:58:43Z</time>
      </trkpt>
      <trkpt lat="48.13055" lon="-3.00657">
        <ele>63.6</ele>
        <time>2021-08-09T09:58:44Z</time>
      </trkpt>
      <trkpt lat="48.13056" lon="-3.0065">
        <ele>63.6</ele>
        <time>2021-08-09T09:58:45Z</time>
      </trkpt>
      <trkpt lat="48.13056" lon="-3.00644">
        <ele>63.6</ele>
        <time>2021-08-09T09:58:46Z</time>
      </trkpt>
      <trkpt lat="48.13057" lon="-3.00632">
        <ele>63.6</ele>
        <time>2021-08-09T09:58:48Z</time>
      </trkpt>
      <trkpt lat="48.13058" lon="-3.00626">
        <ele>63.6</ele>
        <time>2021-08-09T09:58:49Z</time>
      </trkpt>
      <trkpt lat="48.13059" lon="-3.00619">
        <ele>63.6</ele>
        <time>2021-08-09T09:58:50Z</time>
      </trkpt>
      <trkpt lat="48.1306" lon="-3.00613">
        <ele>63.6</ele>
        <time>2021-08-09T09:58:51Z</time>
      </trkpt>
      <trkpt lat="48.13062" lon="-3.00606">
        <ele>63.6</ele>
        <time>2021-08-09T09:58:52Z</time>
      </trkpt>
      <trkpt lat="48.13063" lon="-3.00599">
        <ele>63.6</ele>
        <time>2021-08-09T09:58:53Z</time>
      </trkpt>
      <trkpt lat="48.13064" lon="-3.00592">
        <ele>63.6</ele>
        <time>2021-08-09T09:58:54Z</time>
      </trkpt>
      <trkpt lat="48.13065" lon="-3.00586">
        <ele>63.6</ele>
        <time>2021-08-09T09:58:55Z</time>
      </trkpt>
      <trkpt lat="48.13066" lon="-3.0058">
        <ele>63.6</ele>
        <time>2021-08-09T09:58:56Z</time>
      </trkpt>
      <trkpt lat="48.13068" lon="-3.00574">
        <ele>63.6</ele>
        <time>2021-08-09T09:58:57Z</time>
      </trkpt>
      <trkpt lat="48.1307" lon="-3.0056">
        <ele>63.6</ele>
        <time>2021-08-09T09:58:59Z</time>
      </trkpt>
      <trkpt lat="48.13071" lon="-3.00553">
        <ele>63.6</ele>
        <time>2021-08-09T09:59:00Z</time>
      </trkpt>
      <trkpt lat="48.13072" lon="-3.00547">
        <ele>63.6</ele>
        <time>2021-08-09T09:59:01Z</time>
      </trkpt>
      <trkpt lat="48.13074" lon="-3.00541">
        <ele>63.6</ele>
        <time>2021-08-09T09:59:02Z</time>
      </trkpt>
      <trkpt lat="48.13075" lon="-3.00534">
        <ele>63.6</ele>
        <time>2021-08-09T09:59:03Z</time>
      </trkpt>
      <trkpt lat="48.13076" lon="-3.00528">
        <ele>63.6</ele>
        <time>2021-08-09T09:59:04Z</time>
      </trkpt>
      <trkpt lat="48.13077" lon="-3.00522">
        <ele>63.6</ele>
        <time>2021-08-09T09:59:05Z</time>
      </trkpt>
      <trkpt lat="48.13078" lon="-3.00515">
        <ele>63.6</ele>
        <time>2021-08-09T09:59:06Z</time>
      </trkpt>
      <trkpt lat="48.1308" lon="-3.00509">
        <ele>63.6</ele>
        <time>2021-08-09T09:59:07Z</time>
      </trkpt>
      <trkpt lat="48.13081" lon="-3.00503">
        <ele>63.6</ele>
        <time>2021-08-09T09:59:08Z</time>
      </trkpt>
      <trkpt lat="48.13083" lon="-3.00491">
        <ele>63.6</ele>
        <time>2021-08-09T09:59:10Z</time>
      </trkpt>
      <trkpt lat="48.13083" lon="-3.00484">
        <ele>63.8</ele>
        <time>2021-08-09T09:59:11Z</time>
      </trkpt>
      <trkpt lat="48.13084" lon="-3.00478">
        <ele>63.8</ele>
        <time>2021-08-09T09:59:12Z</time>
      </trkpt>
      <trkpt lat="48.13084" lon="-3.00473">
        <ele>64</ele>
        <time>2021-08-09T09:59:13Z</time>
      </trkpt>
      <trkpt lat="48.13086" lon="-3.00467">
        <ele>64</ele>
        <time>2021-08-09T09:59:14Z</time>
      </trkpt>
      <trkpt lat="48.13087" lon="-3.00461">
        <ele>64</ele>
        <time>2021-08-09T09:59:15Z</time>
      </trkpt>
      <trkpt lat="48.13088" lon="-3.00455">
        <ele>64</ele>
        <time>2021-08-09T09:59:16Z</time>
      </trkpt>
      <trkpt lat="48.13089" lon="-3.00449">
        <ele>64.2</ele>
        <time>2021-08-09T09:59:17Z</time>
      </trkpt>
      <trkpt lat="48.13091" lon="-3.00443">
        <ele>64.4</ele>
        <time>2021-08-09T09:59:18Z</time>
      </trkpt>
      <trkpt lat="48.13093" lon="-3.00437">
        <ele>64.4</ele>
        <time>2021-08-09T09:59:19Z</time>
      </trkpt>
      <trkpt lat="48.13097" lon="-3.00426">
        <ele>64.6</ele>
        <time>2021-08-09T09:59:21Z</time>
      </trkpt>
      <trkpt lat="48.13101" lon="-3.00421">
        <ele>64.6</ele>
        <time>2021-08-09T09:59:22Z</time>
      </trkpt>
      <trkpt lat="48.13103" lon="-3.00417">
        <ele>64.6</ele>
        <time>2021-08-09T09:59:23Z</time>
      </trkpt>
      <trkpt lat="48.13107" lon="-3.00412">
        <ele>64.6</ele>
        <time>2021-08-09T09:59:24Z</time>
      </trkpt>
      <trkpt lat="48.1311" lon="-3.00408">
        <ele>64.6</ele>
        <time>2021-08-09T09:59:25Z</time>
      </trkpt>
      <trkpt lat="48.13114" lon="-3.00404">
        <ele>64.6</ele>
        <time>2021-08-09T09:59:26Z</time>
      </trkpt>
      <trkpt lat="48.13118" lon="-3.004">
        <ele>64.8</ele>
        <time>2021-08-09T09:59:27Z</time>
      </trkpt>
      <trkpt lat="48.13121" lon="-3.00395">
        <ele>64.8</ele>
        <time>2021-08-09T09:59:28Z</time>
      </trkpt>
      <trkpt lat="48.13124" lon="-3.00391">
        <ele>64.8</ele>
        <time>2021-08-09T09:59:29Z</time>
      </trkpt>
      <trkpt lat="48.13127" lon="-3.00387">
        <ele>64.8</ele>
        <time>2021-08-09T09:59:30Z</time>
      </trkpt>
      <trkpt lat="48.13134" lon="-3.00378">
        <ele>64.8</ele>
        <time>2021-08-09T09:59:32Z</time>
      </trkpt>
      <trkpt lat="48.13137" lon="-3.00374">
        <ele>64.8</ele>
        <time>2021-08-09T09:59:33Z</time>
      </trkpt>
      <trkpt lat="48.13141" lon="-3.00369">
        <ele>64.8</ele>
        <time>2021-08-09T09:59:34Z</time>
      </trkpt>
      <trkpt lat="48.13144" lon="-3.00364">
        <ele>64.8</ele>
        <time>2021-08-09T09:59:35Z</time>
      </trkpt>
      <trkpt lat="48.13147" lon="-3.0036">
        <ele>65</ele>
        <time>2021-08-09T09:59:36Z</time>
      </trkpt>
      <trkpt lat="48.13151" lon="-3.00355">
        <ele>65.2</ele>
        <time>2021-08-09T09:59:37Z</time>
      </trkpt>
      <trkpt lat="48.13154" lon="-3.0035">
        <ele>65.2</ele>
        <time>2021-08-09T09:59:38Z</time>
      </trkpt>
      <trkpt lat="48.13158" lon="-3.00346">
        <ele>65.2</ele>
        <time>2021-08-09T09:59:39Z</time>
      </trkpt>
      <trkpt lat="48.13161" lon="-3.00342">
        <ele>65.4</ele>
        <time>2021-08-09T09:59:40Z</time>
      </trkpt>
      <trkpt lat="48.13164" lon="-3.00337">
        <ele>65.4</ele>
        <time>2021-08-09T09:59:41Z</time>
      </trkpt>
      <trkpt lat="48.13168" lon="-3.00333">
        <ele>65.4</ele>
        <time>2021-08-09T09:59:42Z</time>
      </trkpt>
      <trkpt lat="48.13171" lon="-3.00329">
        <ele>65.2</ele>
        <time>2021-08-09T09:59:43Z</time>
      </trkpt>
      <trkpt lat="48.13175" lon="-3.00325">
        <ele>65.2</ele>
        <time>2021-08-09T09:59:44Z</time>
      </trkpt>
      <trkpt lat="48.13178" lon="-3.00321">
        <ele>65.2</ele>
        <time>2021-08-09T09:59:45Z</time>
      </trkpt>
      <trkpt lat="48.13182" lon="-3.00316">
        <ele>65.2</ele>
        <time>2021-08-09T09:59:46Z</time>
      </trkpt>
      <trkpt lat="48.13185" lon="-3.00312">
        <ele>65.2</ele>
        <time>2021-08-09T09:59:47Z</time>
      </trkpt>
      <trkpt lat="48.13189" lon="-3.00307">
        <ele>65.2</ele>
        <time>2021-08-09T09:59:48Z</time>
      </trkpt>
      <trkpt lat="48.13193" lon="-3.00303">
        <ele>65.2</ele>
        <time>2021-08-09T09:59:49Z</time>
      </trkpt>
      <trkpt lat="48.13197" lon="-3.00299">
        <ele>65.2</ele>
        <time>2021-08-09T09:59:50Z</time>
      </trkpt>
      <trkpt lat="48.13201" lon="-3.00295">
        <ele>65.2</ele>
        <time>2021-08-09T09:59:51Z</time>
      </trkpt>
      <trkpt lat="48.13205" lon="-3.00291">
        <ele>65.2</ele>
        <time>2021-08-09T09:59:52Z</time>
      </trkpt>
      <trkpt lat="48.13212" lon="-3.00284">
        <ele>65</ele>
        <time>2021-08-09T09:59:54Z</time>
      </trkpt>
      <trkpt lat="48.13216" lon="-3.00281">
        <ele>65</ele>
        <time>2021-08-09T09:59:55Z</time>
      </trkpt>
      <trkpt lat="48.1322" lon="-3.00277">
        <ele>65</ele>
        <time>2021-08-09T09:59:56Z</time>
      </trkpt>
      <trkpt lat="48.13224" lon="-3.00274">
        <ele>64.8</ele>
        <time>2021-08-09T09:59:57Z</time>
      </trkpt>
      <trkpt lat="48.13228" lon="-3.0027">
        <ele>64.8</ele>
        <time>2021-08-09T09:59:58Z</time>
      </trkpt>
      <trkpt lat="48.13232" lon="-3.00267">
        <ele>64.8</ele>
        <time>2021-08-09T09:59:59Z</time>
      </trkpt>
      <trkpt lat="48.13237" lon="-3.00264">
        <ele>64.8</ele>
        <time>2021-08-09T10:00:00Z</time>
      </trkpt>
      <trkpt lat="48.13241" lon="-3.00261">
        <ele>64.6</ele>
        <time>2021-08-09T10:00:01Z</time>
      </trkpt>
      <trkpt lat="48.13246" lon="-3.00257">
        <ele>64.6</ele>
        <time>2021-08-09T10:00:02Z</time>
      </trkpt>
      <trkpt lat="48.13251" lon="-3.00254">
        <ele>64.6</ele>
        <time>2021-08-09T10:00:03Z</time>
      </trkpt>
      <trkpt lat="48.1326" lon="-3.00248">
        <ele>64.6</ele>
        <time>2021-08-09T10:00:05Z</time>
      </trkpt>
      <trkpt lat="48.13265" lon="-3.00245">
        <ele>64.6</ele>
        <time>2021-08-09T10:00:06Z</time>
      </trkpt>
      <trkpt lat="48.1327" lon="-3.00243">
        <ele>64.4</ele>
        <time>2021-08-09T10:00:07Z</time>
      </trkpt>
      <trkpt lat="48.13276" lon="-3.00241">
        <ele>64.4</ele>
        <time>2021-08-09T10:00:08Z</time>
      </trkpt>
      <trkpt lat="48.1328" lon="-3.00239">
        <ele>64.4</ele>
        <time>2021-08-09T10:00:09Z</time>
      </trkpt>
      <trkpt lat="48.13285" lon="-3.00237">
        <ele>64.4</ele>
        <time>2021-08-09T10:00:10Z</time>
      </trkpt>
      <trkpt lat="48.1329" lon="-3.00235">
        <ele>64.4</ele>
        <time>2021-08-09T10:00:11Z</time>
      </trkpt>
      <trkpt lat="48.13295" lon="-3.00233">
        <ele>64.4</ele>
        <time>2021-08-09T10:00:12Z</time>
      </trkpt>
      <trkpt lat="48.133" lon="-3.00231">
        <ele>64.4</ele>
        <time>2021-08-09T10:00:13Z</time>
      </trkpt>
      <trkpt lat="48.13304" lon="-3.00229">
        <ele>64.4</ele>
        <time>2021-08-09T10:00:14Z</time>
      </trkpt>
      <trkpt lat="48.1331" lon="-3.00229">
        <ele>64.4</ele>
        <time>2021-08-09T10:00:15Z</time>
      </trkpt>
      <trkpt lat="48.13315" lon="-3.00227">
        <ele>64.4</ele>
        <time>2021-08-09T10:00:16Z</time>
      </trkpt>
      <trkpt lat="48.1332" lon="-3.00226">
        <ele>64.4</ele>
        <time>2021-08-09T10:00:17Z</time>
      </trkpt>
      <trkpt lat="48.13325" lon="-3.00224">
        <ele>64.4</ele>
        <time>2021-08-09T10:00:18Z</time>
      </trkpt>
      <trkpt lat="48.1333" lon="-3.00223">
        <ele>64.4</ele>
        <time>2021-08-09T10:00:19Z</time>
      </trkpt>
      <trkpt lat="48.13334" lon="-3.00222">
        <ele>64.4</ele>
        <time>2021-08-09T10:00:20Z</time>
      </trkpt>
      <trkpt lat="48.13339" lon="-3.0022">
        <ele>64.4</ele>
        <time>2021-08-09T10:00:21Z</time>
      </trkpt>
      <trkpt lat="48.13344" lon="-3.00219">
        <ele>64.4</ele>
        <time>2021-08-09T10:00:22Z</time>
      </trkpt>
      <trkpt lat="48.13348" lon="-3.00217">
        <ele>64.4</ele>
        <time>2021-08-09T10:00:23Z</time>
      </trkpt>
      <trkpt lat="48.13352" lon="-3.00215">
        <ele>64.4</ele>
        <time>2021-08-09T10:00:24Z</time>
      </trkpt>
      <trkpt lat="48.13357" lon="-3.00214">
        <ele>64.2</ele>
        <time>2021-08-09T10:00:25Z</time>
      </trkpt>
      <trkpt lat="48.13362" lon="-3.00214">
        <ele>64.4</ele>
        <time>2021-08-09T10:00:26Z</time>
      </trkpt>
      <trkpt lat="48.13367" lon="-3.00213">
        <ele>64.4</ele>
        <time>2021-08-09T10:00:27Z</time>
      </trkpt>
      <trkpt lat="48.13372" lon="-3.00212">
        <ele>64.4</ele>
        <time>2021-08-09T10:00:28Z</time>
      </trkpt>
      <trkpt lat="48.13377" lon="-3.00212">
        <ele>64.2</ele>
        <time>2021-08-09T10:00:29Z</time>
      </trkpt>
      <trkpt lat="48.13381" lon="-3.00214">
        <ele>64.2</ele>
        <time>2021-08-09T10:00:30Z</time>
      </trkpt>
      <trkpt lat="48.13386" lon="-3.00215">
        <ele>64.2</ele>
        <time>2021-08-09T10:00:31Z</time>
      </trkpt>
      <trkpt lat="48.13391" lon="-3.00216">
        <ele>64</ele>
        <time>2021-08-09T10:00:32Z</time>
      </trkpt>
      <trkpt lat="48.13396" lon="-3.00218">
        <ele>64</ele>
        <time>2021-08-09T10:00:33Z</time>
      </trkpt>
      <trkpt lat="48.134" lon="-3.00219">
        <ele>64</ele>
        <time>2021-08-09T10:00:34Z</time>
      </trkpt>
      <trkpt lat="48.13404" lon="-3.00222">
        <ele>64</ele>
        <time>2021-08-09T10:00:35Z</time>
      </trkpt>
      <trkpt lat="48.13409" lon="-3.00226">
        <ele>64</ele>
        <time>2021-08-09T10:00:36Z</time>
      </trkpt>
      <trkpt lat="48.13416" lon="-3.00233">
        <ele>64</ele>
        <time>2021-08-09T10:00:38Z</time>
      </trkpt>
      <trkpt lat="48.13419" lon="-3.00237">
        <ele>64</ele>
        <time>2021-08-09T10:00:39Z</time>
      </trkpt>
      <trkpt lat="48.13423" lon="-3.00241">
        <ele>64</ele>
        <time>2021-08-09T10:00:40Z</time>
      </trkpt>
      <trkpt lat="48.13427" lon="-3.00244">
        <ele>64</ele>
        <time>2021-08-09T10:00:41Z</time>
      </trkpt>
      <trkpt lat="48.1343" lon="-3.00247">
        <ele>63.8</ele>
        <time>2021-08-09T10:00:42Z</time>
      </trkpt>
      <trkpt lat="48.13434" lon="-3.00251">
        <ele>63.8</ele>
        <time>2021-08-09T10:00:43Z</time>
      </trkpt>
      <trkpt lat="48.13437" lon="-3.00254">
        <ele>63.8</ele>
        <time>2021-08-09T10:00:44Z</time>
      </trkpt>
      <trkpt lat="48.13441" lon="-3.00258">
        <ele>63.8</ele>
        <time>2021-08-09T10:00:45Z</time>
      </trkpt>
      <trkpt lat="48.13445" lon="-3.00262">
        <ele>63.8</ele>
        <time>2021-08-09T10:00:46Z</time>
      </trkpt>
      <trkpt lat="48.13448" lon="-3.00266">
        <ele>63.8</ele>
        <time>2021-08-09T10:00:47Z</time>
      </trkpt>
      <trkpt lat="48.13456" lon="-3.00275">
        <ele>63.8</ele>
        <time>2021-08-09T10:00:49Z</time>
      </trkpt>
      <trkpt lat="48.13459" lon="-3.00279">
        <ele>63.8</ele>
        <time>2021-08-09T10:00:50Z</time>
      </trkpt>
      <trkpt lat="48.13463" lon="-3.00283">
        <ele>63.8</ele>
        <time>2021-08-09T10:00:51Z</time>
      </trkpt>
      <trkpt lat="48.13467" lon="-3.00287">
        <ele>63.8</ele>
        <time>2021-08-09T10:00:52Z</time>
      </trkpt>
      <trkpt lat="48.13471" lon="-3.00291">
        <ele>63.8</ele>
        <time>2021-08-09T10:00:53Z</time>
      </trkpt>
      <trkpt lat="48.13474" lon="-3.00295">
        <ele>63.8</ele>
        <time>2021-08-09T10:00:54Z</time>
      </trkpt>
      <trkpt lat="48.13478" lon="-3.00299">
        <ele>63.8</ele>
        <time>2021-08-09T10:00:55Z</time>
      </trkpt>
      <trkpt lat="48.13482" lon="-3.00304">
        <ele>63.8</ele>
        <time>2021-08-09T10:00:56Z</time>
      </trkpt>
      <trkpt lat="48.13485" lon="-3.00308">
        <ele>63.8</ele>
        <time>2021-08-09T10:00:57Z</time>
      </trkpt>
      <trkpt lat="48.13489" lon="-3.00312">
        <ele>64</ele>
        <time>2021-08-09T10:00:58Z</time>
      </trkpt>
      <trkpt lat="48.13496" lon="-3.0032">
        <ele>64</ele>
        <time>2021-08-09T10:01:00Z</time>
      </trkpt>
      <trkpt lat="48.135" lon="-3.00324">
        <ele>64</ele>
        <time>2021-08-09T10:01:01Z</time>
      </trkpt>
      <trkpt lat="48.13504" lon="-3.00329">
        <ele>64</ele>
        <time>2021-08-09T10:01:02Z</time>
      </trkpt>
      <trkpt lat="48.13507" lon="-3.00333">
        <ele>64</ele>
        <time>2021-08-09T10:01:03Z</time>
      </trkpt>
      <trkpt lat="48.13511" lon="-3.00338">
        <ele>64</ele>
        <time>2021-08-09T10:01:04Z</time>
      </trkpt>
      <trkpt lat="48.13514" lon="-3.00342">
        <ele>64</ele>
        <time>2021-08-09T10:01:05Z</time>
      </trkpt>
      <trkpt lat="48.13518" lon="-3.00346">
        <ele>64</ele>
        <time>2021-08-09T10:01:06Z</time>
      </trkpt>
      <trkpt lat="48.13521" lon="-3.00351">
        <ele>64</ele>
        <time>2021-08-09T10:01:07Z</time>
      </trkpt>
      <trkpt lat="48.13525" lon="-3.00355">
        <ele>64</ele>
        <time>2021-08-09T10:01:08Z</time>
      </trkpt>
      <trkpt lat="48.13528" lon="-3.0036">
        <ele>64</ele>
        <time>2021-08-09T10:01:09Z</time>
      </trkpt>
      <trkpt lat="48.13535" lon="-3.00369">
        <ele>64</ele>
        <time>2021-08-09T10:01:11Z</time>
      </trkpt>
      <trkpt lat="48.13539" lon="-3.00373">
        <ele>64</ele>
        <time>2021-08-09T10:01:12Z</time>
      </trkpt>
      <trkpt lat="48.13543" lon="-3.00377">
        <ele>64</ele>
        <time>2021-08-09T10:01:13Z</time>
      </trkpt>
      <trkpt lat="48.13546" lon="-3.00382">
        <ele>64</ele>
        <time>2021-08-09T10:01:14Z</time>
      </trkpt>
      <trkpt lat="48.13549" lon="-3.00386">
        <ele>64</ele>
        <time>2021-08-09T10:01:15Z</time>
      </trkpt>
      <trkpt lat="48.13553" lon="-3.0039">
        <ele>64</ele>
        <time>2021-08-09T10:01:16Z</time>
      </trkpt>
      <trkpt lat="48.13556" lon="-3.00394">
        <ele>64</ele>
        <time>2021-08-09T10:01:17Z</time>
      </trkpt>
      <trkpt lat="48.1356" lon="-3.00398">
        <ele>63.8</ele>
        <time>2021-08-09T10:01:18Z</time>
      </trkpt>
      <trkpt lat="48.13564" lon="-3.00402">
        <ele>63.8</ele>
        <time>2021-08-09T10:01:19Z</time>
      </trkpt>
      <trkpt lat="48.13567" lon="-3.00407">
        <ele>63.8</ele>
        <time>2021-08-09T10:01:20Z</time>
      </trkpt>
      <trkpt lat="48.13574" lon="-3.00416">
        <ele>63.8</ele>
        <time>2021-08-09T10:01:22Z</time>
      </trkpt>
      <trkpt lat="48.13578" lon="-3.00421">
        <ele>63.8</ele>
        <time>2021-08-09T10:01:23Z</time>
      </trkpt>
      <trkpt lat="48.13582" lon="-3.00426">
        <ele>63.8</ele>
        <time>2021-08-09T10:01:24Z</time>
      </trkpt>
      <trkpt lat="48.13585" lon="-3.00431">
        <ele>63.8</ele>
        <time>2021-08-09T10:01:25Z</time>
      </trkpt>
      <trkpt lat="48.13588" lon="-3.00435">
        <ele>63.8</ele>
        <time>2021-08-09T10:01:26Z</time>
      </trkpt>
      <trkpt lat="48.13591" lon="-3.0044">
        <ele>63.8</ele>
        <time>2021-08-09T10:01:27Z</time>
      </trkpt>
      <trkpt lat="48.13594" lon="-3.00445">
        <ele>63.8</ele>
        <time>2021-08-09T10:01:28Z</time>
      </trkpt>
      <trkpt lat="48.13598" lon="-3.0045">
        <ele>63.8</ele>
        <time>2021-08-09T10:01:29Z</time>
      </trkpt>
      <trkpt lat="48.13601" lon="-3.00455">
        <ele>63.8</ele>
        <time>2021-08-09T10:01:30Z</time>
      </trkpt>
      <trkpt lat="48.13604" lon="-3.0046">
        <ele>63.8</ele>
        <time>2021-08-09T10:01:31Z</time>
      </trkpt>
      <trkpt lat="48.13607" lon="-3.00465">
        <ele>63.8</ele>
        <time>2021-08-09T10:01:32Z</time>
      </trkpt>
      <trkpt lat="48.1361" lon="-3.0047">
        <ele>63.8</ele>
        <time>2021-08-09T10:01:33Z</time>
      </trkpt>
      <trkpt lat="48.13612" lon="-3.00475">
        <ele>63.8</ele>
        <time>2021-08-09T10:01:34Z</time>
      </trkpt>
      <trkpt lat="48.13615" lon="-3.00481">
        <ele>63.8</ele>
        <time>2021-08-09T10:01:35Z</time>
      </trkpt>
      <trkpt lat="48.13618" lon="-3.00486">
        <ele>63.8</ele>
        <time>2021-08-09T10:01:36Z</time>
      </trkpt>
      <trkpt lat="48.1362" lon="-3.00492">
        <ele>63.8</ele>
        <time>2021-08-09T10:01:37Z</time>
      </trkpt>
      <trkpt lat="48.13623" lon="-3.00497">
        <ele>63.8</ele>
        <time>2021-08-09T10:01:38Z</time>
      </trkpt>
      <trkpt lat="48.13624" lon="-3.00503">
        <ele>63.8</ele>
        <time>2021-08-09T10:01:39Z</time>
      </trkpt>
      <trkpt lat="48.13626" lon="-3.00508">
        <ele>63.8</ele>
        <time>2021-08-09T10:01:40Z</time>
      </trkpt>
      <trkpt lat="48.13628" lon="-3.00514">
        <ele>63.8</ele>
        <time>2021-08-09T10:01:41Z</time>
      </trkpt>
      <trkpt lat="48.1363" lon="-3.00519">
        <ele>63.8</ele>
        <time>2021-08-09T10:01:42Z</time>
      </trkpt>
      <trkpt lat="48.13633" lon="-3.00531">
        <ele>63.8</ele>
        <time>2021-08-09T10:01:44Z</time>
      </trkpt>
      <trkpt lat="48.13634" lon="-3.00537">
        <ele>63.8</ele>
        <time>2021-08-09T10:01:45Z</time>
      </trkpt>
      <trkpt lat="48.13636" lon="-3.00542">
        <ele>63.8</ele>
        <time>2021-08-09T10:01:46Z</time>
      </trkpt>
      <trkpt lat="48.13638" lon="-3.00549">
        <ele>63.8</ele>
        <time>2021-08-09T10:01:47Z</time>
      </trkpt>
      <trkpt lat="48.1364" lon="-3.00555">
        <ele>64</ele>
        <time>2021-08-09T10:01:48Z</time>
      </trkpt>
      <trkpt lat="48.13641" lon="-3.00561">
        <ele>64</ele>
        <time>2021-08-09T10:01:49Z</time>
      </trkpt>
      <trkpt lat="48.13643" lon="-3.00568">
        <ele>64</ele>
        <time>2021-08-09T10:01:50Z</time>
      </trkpt>
      <trkpt lat="48.13645" lon="-3.00574">
        <ele>64</ele>
        <time>2021-08-09T10:01:51Z</time>
      </trkpt>
      <trkpt lat="48.13646" lon="-3.0058">
        <ele>64</ele>
        <time>2021-08-09T10:01:52Z</time>
      </trkpt>
      <trkpt lat="48.13647" lon="-3.00586">
        <ele>64.2</ele>
        <time>2021-08-09T10:01:53Z</time>
      </trkpt>
      <trkpt lat="48.13649" lon="-3.00599">
        <ele>64.2</ele>
        <time>2021-08-09T10:01:55Z</time>
      </trkpt>
      <trkpt lat="48.1365" lon="-3.00606">
        <ele>64.2</ele>
        <time>2021-08-09T10:01:56Z</time>
      </trkpt>
      <trkpt lat="48.13651" lon="-3.00613">
        <ele>64.2</ele>
        <time>2021-08-09T10:01:57Z</time>
      </trkpt>
      <trkpt lat="48.13652" lon="-3.00619">
        <ele>64.2</ele>
        <time>2021-08-09T10:01:58Z</time>
      </trkpt>
      <trkpt lat="48.13653" lon="-3.00625">
        <ele>64.2</ele>
        <time>2021-08-09T10:01:59Z</time>
      </trkpt>
      <trkpt lat="48.13653" lon="-3.0063">
        <ele>64.2</ele>
        <time>2021-08-09T10:02:00Z</time>
      </trkpt>
      <trkpt lat="48.13654" lon="-3.00635">
        <ele>64.2</ele>
        <time>2021-08-09T10:02:01Z</time>
      </trkpt>
      <trkpt lat="48.13655" lon="-3.00641">
        <ele>64.2</ele>
        <time>2021-08-09T10:02:02Z</time>
      </trkpt>
      <trkpt lat="48.13656" lon="-3.00648">
        <ele>64.4</ele>
        <time>2021-08-09T10:02:03Z</time>
      </trkpt>
      <trkpt lat="48.13657" lon="-3.00655">
        <ele>64.4</ele>
        <time>2021-08-09T10:02:04Z</time>
      </trkpt>
      <trkpt lat="48.13658" lon="-3.00669">
        <ele>64.4</ele>
        <time>2021-08-09T10:02:06Z</time>
      </trkpt>
      <trkpt lat="48.13659" lon="-3.00675">
        <ele>64.4</ele>
        <time>2021-08-09T10:02:07Z</time>
      </trkpt>
      <trkpt lat="48.13659" lon="-3.00682">
        <ele>64.4</ele>
        <time>2021-08-09T10:02:08Z</time>
      </trkpt>
      <trkpt lat="48.13659" lon="-3.00689">
        <ele>64.2</ele>
        <time>2021-08-09T10:02:09Z</time>
      </trkpt>
      <trkpt lat="48.1366" lon="-3.00696">
        <ele>64.2</ele>
        <time>2021-08-09T10:02:10Z</time>
      </trkpt>
      <trkpt lat="48.1366" lon="-3.00703">
        <ele>64.2</ele>
        <time>2021-08-09T10:02:11Z</time>
      </trkpt>
      <trkpt lat="48.1366" lon="-3.0071">
        <ele>64.2</ele>
        <time>2021-08-09T10:02:12Z</time>
      </trkpt>
      <trkpt lat="48.13659" lon="-3.00717">
        <ele>64.2</ele>
        <time>2021-08-09T10:02:13Z</time>
      </trkpt>
      <trkpt lat="48.13659" lon="-3.00724">
        <ele>64.2</ele>
        <time>2021-08-09T10:02:14Z</time>
      </trkpt>
      <trkpt lat="48.13659" lon="-3.00731">
        <ele>64.2</ele>
        <time>2021-08-09T10:02:15Z</time>
      </trkpt>
      <trkpt lat="48.13659" lon="-3.00746">
        <ele>64.2</ele>
        <time>2021-08-09T10:02:17Z</time>
      </trkpt>
      <trkpt lat="48.13658" lon="-3.00754">
        <ele>64.2</ele>
        <time>2021-08-09T10:02:18Z</time>
      </trkpt>
      <trkpt lat="48.13658" lon="-3.0076">
        <ele>64.2</ele>
        <time>2021-08-09T10:02:19Z</time>
      </trkpt>
      <trkpt lat="48.13657" lon="-3.00767">
        <ele>64.2</ele>
        <time>2021-08-09T10:02:20Z</time>
      </trkpt>
      <trkpt lat="48.13657" lon="-3.00773">
        <ele>64.2</ele>
        <time>2021-08-09T10:02:21Z</time>
      </trkpt>
      <trkpt lat="48.13656" lon="-3.00779">
        <ele>64.2</ele>
        <time>2021-08-09T10:02:22Z</time>
      </trkpt>
      <trkpt lat="48.13655" lon="-3.00786">
        <ele>64.2</ele>
        <time>2021-08-09T10:02:23Z</time>
      </trkpt>
      <trkpt lat="48.13654" lon="-3.00792">
        <ele>64.2</ele>
        <time>2021-08-09T10:02:24Z</time>
      </trkpt>
      <trkpt lat="48.13653" lon="-3.00798">
        <ele>64.2</ele>
        <time>2021-08-09T10:02:25Z</time>
      </trkpt>
      <trkpt lat="48.13653" lon="-3.00804">
        <ele>64.2</ele>
        <time>2021-08-09T10:02:26Z</time>
      </trkpt>
      <trkpt lat="48.13652" lon="-3.0081">
        <ele>64.2</ele>
        <time>2021-08-09T10:02:27Z</time>
      </trkpt>
      <trkpt lat="48.13651" lon="-3.00816">
        <ele>64.2</ele>
        <time>2021-08-09T10:02:28Z</time>
      </trkpt>
      <trkpt lat="48.1365" lon="-3.00823">
        <ele>64</ele>
        <time>2021-08-09T10:02:29Z</time>
      </trkpt>
      <trkpt lat="48.13649" lon="-3.0083">
        <ele>64</ele>
        <time>2021-08-09T10:02:30Z</time>
      </trkpt>
      <trkpt lat="48.13649" lon="-3.00837">
        <ele>64</ele>
        <time>2021-08-09T10:02:31Z</time>
      </trkpt>
      <trkpt lat="48.13648" lon="-3.00843">
        <ele>64</ele>
        <time>2021-08-09T10:02:32Z</time>
      </trkpt>
      <trkpt lat="48.13647" lon="-3.0085">
        <ele>64</ele>
        <time>2021-08-09T10:02:33Z</time>
      </trkpt>
      <trkpt lat="48.13647" lon="-3.00858">
        <ele>64</ele>
        <time>2021-08-09T10:02:34Z</time>
      </trkpt>
      <trkpt lat="48.13646" lon="-3.00865">
        <ele>64</ele>
        <time>2021-08-09T10:02:35Z</time>
      </trkpt>
      <trkpt lat="48.13645" lon="-3.00871">
        <ele>64</ele>
        <time>2021-08-09T10:02:36Z</time>
      </trkpt>
      <trkpt lat="48.13646" lon="-3.00879">
        <ele>64</ele>
        <time>2021-08-09T10:02:37Z</time>
      </trkpt>
      <trkpt lat="48.13647" lon="-3.00893">
        <ele>64</ele>
        <time>2021-08-09T10:02:39Z</time>
      </trkpt>
      <trkpt lat="48.13648" lon="-3.00901">
        <ele>63.8</ele>
        <time>2021-08-09T10:02:40Z</time>
      </trkpt>
      <trkpt lat="48.13649" lon="-3.00908">
        <ele>63.8</ele>
        <time>2021-08-09T10:02:41Z</time>
      </trkpt>
      <trkpt lat="48.1365" lon="-3.00915">
        <ele>63.8</ele>
        <time>2021-08-09T10:02:42Z</time>
      </trkpt>
      <trkpt lat="48.13652" lon="-3.00922">
        <ele>63.6</ele>
        <time>2021-08-09T10:02:43Z</time>
      </trkpt>
      <trkpt lat="48.13653" lon="-3.00929">
        <ele>63.6</ele>
        <time>2021-08-09T10:02:44Z</time>
      </trkpt>
      <trkpt lat="48.13655" lon="-3.00936">
        <ele>63.6</ele>
        <time>2021-08-09T10:02:45Z</time>
      </trkpt>
      <trkpt lat="48.13657" lon="-3.00942">
        <ele>63.6</ele>
        <time>2021-08-09T10:02:46Z</time>
      </trkpt>
      <trkpt lat="48.13659" lon="-3.00948">
        <ele>63.6</ele>
        <time>2021-08-09T10:02:47Z</time>
      </trkpt>
      <trkpt lat="48.13662" lon="-3.00954">
        <ele>63.6</ele>
        <time>2021-08-09T10:02:48Z</time>
      </trkpt>
      <trkpt lat="48.13665" lon="-3.0096">
        <ele>63.6</ele>
        <time>2021-08-09T10:02:49Z</time>
      </trkpt>
      <trkpt lat="48.13668" lon="-3.00966">
        <ele>63.6</ele>
        <time>2021-08-09T10:02:50Z</time>
      </trkpt>
      <trkpt lat="48.13671" lon="-3.00972">
        <ele>63.6</ele>
        <time>2021-08-09T10:02:51Z</time>
      </trkpt>
      <trkpt lat="48.13674" lon="-3.00978">
        <ele>63.6</ele>
        <time>2021-08-09T10:02:52Z</time>
      </trkpt>
      <trkpt lat="48.13677" lon="-3.00983">
        <ele>63.6</ele>
        <time>2021-08-09T10:02:53Z</time>
      </trkpt>
      <trkpt lat="48.13681" lon="-3.00988">
        <ele>63.6</ele>
        <time>2021-08-09T10:02:54Z</time>
      </trkpt>
      <trkpt lat="48.13684" lon="-3.00993">
        <ele>63.8</ele>
        <time>2021-08-09T10:02:55Z</time>
      </trkpt>
      <trkpt lat="48.13688" lon="-3.00998">
        <ele>63.8</ele>
        <time>2021-08-09T10:02:56Z</time>
      </trkpt>
      <trkpt lat="48.13692" lon="-3.01003">
        <ele>63.8</ele>
        <time>2021-08-09T10:02:57Z</time>
      </trkpt>
      <trkpt lat="48.13696" lon="-3.01007">
        <ele>63.8</ele>
        <time>2021-08-09T10:02:58Z</time>
      </trkpt>
      <trkpt lat="48.137" lon="-3.01011">
        <ele>63.8</ele>
        <time>2021-08-09T10:02:59Z</time>
      </trkpt>
      <trkpt lat="48.13708" lon="-3.01019">
        <ele>64</ele>
        <time>2021-08-09T10:03:01Z</time>
      </trkpt>
      <trkpt lat="48.13712" lon="-3.01022">
        <ele>64</ele>
        <time>2021-08-09T10:03:02Z</time>
      </trkpt>
      <trkpt lat="48.13716" lon="-3.01026">
        <ele>64</ele>
        <time>2021-08-09T10:03:03Z</time>
      </trkpt>
      <trkpt lat="48.1372" lon="-3.01029">
        <ele>64</ele>
        <time>2021-08-09T10:03:04Z</time>
      </trkpt>
      <trkpt lat="48.13724" lon="-3.01032">
        <ele>64</ele>
        <time>2021-08-09T10:03:05Z</time>
      </trkpt>
      <trkpt lat="48.13728" lon="-3.01036">
        <ele>64</ele>
        <time>2021-08-09T10:03:06Z</time>
      </trkpt>
      <trkpt lat="48.13731" lon="-3.0104">
        <ele>64</ele>
        <time>2021-08-09T10:03:07Z</time>
      </trkpt>
      <trkpt lat="48.13735" lon="-3.01043">
        <ele>64</ele>
        <time>2021-08-09T10:03:08Z</time>
      </trkpt>
      <trkpt lat="48.13738" lon="-3.01046">
        <ele>64</ele>
        <time>2021-08-09T10:03:09Z</time>
      </trkpt>
      <trkpt lat="48.13741" lon="-3.01049">
        <ele>64</ele>
        <time>2021-08-09T10:03:10Z</time>
      </trkpt>
      <trkpt lat="48.13745" lon="-3.01052">
        <ele>64</ele>
        <time>2021-08-09T10:03:11Z</time>
      </trkpt>
      <trkpt lat="48.13748" lon="-3.01054">
        <ele>64</ele>
        <time>2021-08-09T10:03:12Z</time>
      </trkpt>
      <trkpt lat="48.13752" lon="-3.01056">
        <ele>64</ele>
        <time>2021-08-09T10:03:13Z</time>
      </trkpt>
      <trkpt lat="48.13755" lon="-3.01058">
        <ele>64</ele>
        <time>2021-08-09T10:03:14Z</time>
      </trkpt>
      <trkpt lat="48.13759" lon="-3.0106">
        <ele>64</ele>
        <time>2021-08-09T10:03:15Z</time>
      </trkpt>
      <trkpt lat="48.13762" lon="-3.01061">
        <ele>64</ele>
        <time>2021-08-09T10:03:16Z</time>
      </trkpt>
      <trkpt lat="48.13764" lon="-3.01062">
        <ele>64</ele>
        <time>2021-08-09T10:03:17Z</time>
      </trkpt>
      <trkpt lat="48.13767" lon="-3.01064">
        <ele>64.2</ele>
        <time>2021-08-09T10:03:18Z</time>
      </trkpt>
      <trkpt lat="48.1377" lon="-3.01065">
        <ele>64.4</ele>
        <time>2021-08-09T10:03:19Z</time>
      </trkpt>
      <trkpt lat="48.13773" lon="-3.01067">
        <ele>64.4</ele>
        <time>2021-08-09T10:03:20Z</time>
      </trkpt>
      <trkpt lat="48.13778" lon="-3.01068">
        <ele>64.4</ele>
        <time>2021-08-09T10:03:21Z</time>
      </trkpt>
      <trkpt lat="48.13781" lon="-3.01069">
        <ele>64.4</ele>
        <time>2021-08-09T10:03:22Z</time>
      </trkpt>
      <trkpt lat="48.13785" lon="-3.0107">
        <ele>64.6</ele>
        <time>2021-08-09T10:03:23Z</time>
      </trkpt>
      <trkpt lat="48.1379" lon="-3.01071">
        <ele>64.6</ele>
        <time>2021-08-09T10:03:24Z</time>
      </trkpt>
      <trkpt lat="48.13793" lon="-3.01073">
        <ele>64.6</ele>
        <time>2021-08-09T10:03:25Z</time>
      </trkpt>
      <trkpt lat="48.13797" lon="-3.01073">
        <ele>64.6</ele>
        <time>2021-08-09T10:03:26Z</time>
      </trkpt>
      <trkpt lat="48.13801" lon="-3.01074">
        <ele>64.6</ele>
        <time>2021-08-09T10:03:27Z</time>
      </trkpt>
      <trkpt lat="48.13805" lon="-3.01076">
        <ele>64.6</ele>
        <time>2021-08-09T10:03:28Z</time>
      </trkpt>
      <trkpt lat="48.13809" lon="-3.01076">
        <ele>64.6</ele>
        <time>2021-08-09T10:03:29Z</time>
      </trkpt>
      <trkpt lat="48.13814" lon="-3.01077">
        <ele>64.6</ele>
        <time>2021-08-09T10:03:30Z</time>
      </trkpt>
      <trkpt lat="48.13817" lon="-3.01077">
        <ele>64.6</ele>
        <time>2021-08-09T10:03:31Z</time>
      </trkpt>
      <trkpt lat="48.1382" lon="-3.01077">
        <ele>64.6</ele>
        <time>2021-08-09T10:03:32Z</time>
      </trkpt>
      <trkpt lat="48.13828" lon="-3.01076">
        <ele>64.6</ele>
        <time>2021-08-09T10:03:34Z</time>
      </trkpt>
      <trkpt lat="48.13833" lon="-3.01075">
        <ele>64.6</ele>
        <time>2021-08-09T10:03:35Z</time>
      </trkpt>
      <trkpt lat="48.13838" lon="-3.01075">
        <ele>64.6</ele>
        <time>2021-08-09T10:03:36Z</time>
      </trkpt>
      <trkpt lat="48.13843" lon="-3.01073">
        <ele>64.6</ele>
        <time>2021-08-09T10:03:37Z</time>
      </trkpt>
      <trkpt lat="48.13847" lon="-3.01071">
        <ele>64.6</ele>
        <time>2021-08-09T10:03:38Z</time>
      </trkpt>
      <trkpt lat="48.13852" lon="-3.01069">
        <ele>64.8</ele>
        <time>2021-08-09T10:03:39Z</time>
      </trkpt>
      <trkpt lat="48.13856" lon="-3.01066">
        <ele>64.8</ele>
        <time>2021-08-09T10:03:40Z</time>
      </trkpt>
      <trkpt lat="48.1386" lon="-3.01063">
        <ele>64.8</ele>
        <time>2021-08-09T10:03:41Z</time>
      </trkpt>
      <trkpt lat="48.13864" lon="-3.0106">
        <ele>64.8</ele>
        <time>2021-08-09T10:03:42Z</time>
      </trkpt>
      <trkpt lat="48.13868" lon="-3.01056">
        <ele>64.8</ele>
        <time>2021-08-09T10:03:43Z</time>
      </trkpt>
      <trkpt lat="48.13877" lon="-3.0105">
        <ele>65</ele>
        <time>2021-08-09T10:03:45Z</time>
      </trkpt>
      <trkpt lat="48.13881" lon="-3.01047">
        <ele>65</ele>
        <time>2021-08-09T10:03:46Z</time>
      </trkpt>
      <trkpt lat="48.13885" lon="-3.01043">
        <ele>65</ele>
        <time>2021-08-09T10:03:47Z</time>
      </trkpt>
      <trkpt lat="48.13889" lon="-3.0104">
        <ele>64.8</ele>
        <time>2021-08-09T10:03:48Z</time>
      </trkpt>
      <trkpt lat="48.13893" lon="-3.01037">
        <ele>65</ele>
        <time>2021-08-09T10:03:49Z</time>
      </trkpt>
      <trkpt lat="48.13897" lon="-3.01033">
        <ele>65</ele>
        <time>2021-08-09T10:03:50Z</time>
      </trkpt>
      <trkpt lat="48.13901" lon="-3.0103">
        <ele>65</ele>
        <time>2021-08-09T10:03:51Z</time>
      </trkpt>
      <trkpt lat="48.13906" lon="-3.01027">
        <ele>65</ele>
        <time>2021-08-09T10:03:52Z</time>
      </trkpt>
      <trkpt lat="48.13909" lon="-3.01024">
        <ele>65</ele>
        <time>2021-08-09T10:03:53Z</time>
      </trkpt>
      <trkpt lat="48.13914" lon="-3.01021">
        <ele>65.2</ele>
        <time>2021-08-09T10:03:54Z</time>
      </trkpt>
      <trkpt lat="48.1392" lon="-3.01018">
        <ele>65</ele>
        <time>2021-08-09T10:03:55Z</time>
      </trkpt>
      <trkpt lat="48.13924" lon="-3.01015">
        <ele>65</ele>
        <time>2021-08-09T10:03:56Z</time>
      </trkpt>
      <trkpt lat="48.13929" lon="-3.01011">
        <ele>65</ele>
        <time>2021-08-09T10:03:57Z</time>
      </trkpt>
      <trkpt lat="48.13933" lon="-3.01006">
        <ele>64.8</ele>
        <time>2021-08-09T10:03:58Z</time>
      </trkpt>
      <trkpt lat="48.13938" lon="-3.01003">
        <ele>64.8</ele>
        <time>2021-08-09T10:03:59Z</time>
      </trkpt>
      <trkpt lat="48.13942" lon="-3.00999">
        <ele>64.8</ele>
        <time>2021-08-09T10:04:00Z</time>
      </trkpt>
      <trkpt lat="48.13947" lon="-3.00995">
        <ele>64.8</ele>
        <time>2021-08-09T10:04:01Z</time>
      </trkpt>
      <trkpt lat="48.13951" lon="-3.00992">
        <ele>64.8</ele>
        <time>2021-08-09T10:04:02Z</time>
      </trkpt>
      <trkpt lat="48.13956" lon="-3.00989">
        <ele>64.8</ele>
        <time>2021-08-09T10:04:03Z</time>
      </trkpt>
      <trkpt lat="48.13961" lon="-3.00985">
        <ele>64.8</ele>
        <time>2021-08-09T10:04:04Z</time>
      </trkpt>
      <trkpt lat="48.13965" lon="-3.00981">
        <ele>64.8</ele>
        <time>2021-08-09T10:04:05Z</time>
      </trkpt>
      <trkpt lat="48.13973" lon="-3.00974">
        <ele>64.8</ele>
        <time>2021-08-09T10:04:07Z</time>
      </trkpt>
      <trkpt lat="48.13977" lon="-3.0097">
        <ele>64.6</ele>
        <time>2021-08-09T10:04:08Z</time>
      </trkpt>
      <trkpt lat="48.13981" lon="-3.00966">
        <ele>64.6</ele>
        <time>2021-08-09T10:04:09Z</time>
      </trkpt>
      <trkpt lat="48.13985" lon="-3.00962">
        <ele>64.6</ele>
        <time>2021-08-09T10:04:10Z</time>
      </trkpt>
      <trkpt lat="48.13989" lon="-3.00958">
        <ele>64.8</ele>
        <time>2021-08-09T10:04:11Z</time>
      </trkpt>
      <trkpt lat="48.13993" lon="-3.00955">
        <ele>64.8</ele>
        <time>2021-08-09T10:04:12Z</time>
      </trkpt>
      <trkpt lat="48.13998" lon="-3.00951">
        <ele>64.8</ele>
        <time>2021-08-09T10:04:13Z</time>
      </trkpt>
      <trkpt lat="48.14002" lon="-3.00947">
        <ele>64.8</ele>
        <time>2021-08-09T10:04:14Z</time>
      </trkpt>
      <trkpt lat="48.14005" lon="-3.00944">
        <ele>64.8</ele>
        <time>2021-08-09T10:04:15Z</time>
      </trkpt>
      <trkpt lat="48.14009" lon="-3.0094">
        <ele>64.8</ele>
        <time>2021-08-09T10:04:16Z</time>
      </trkpt>
      <trkpt lat="48.14017" lon="-3.00933">
        <ele>64.8</ele>
        <time>2021-08-09T10:04:18Z</time>
      </trkpt>
      <trkpt lat="48.14021" lon="-3.00929">
        <ele>64.8</ele>
        <time>2021-08-09T10:04:19Z</time>
      </trkpt>
      <trkpt lat="48.14025" lon="-3.00925">
        <ele>64.8</ele>
        <time>2021-08-09T10:04:20Z</time>
      </trkpt>
      <trkpt lat="48.14029" lon="-3.00921">
        <ele>64.8</ele>
        <time>2021-08-09T10:04:21Z</time>
      </trkpt>
      <trkpt lat="48.14033" lon="-3.00917">
        <ele>65</ele>
        <time>2021-08-09T10:04:22Z</time>
      </trkpt>
      <trkpt lat="48.14037" lon="-3.00913">
        <ele>65</ele>
        <time>2021-08-09T10:04:23Z</time>
      </trkpt>
      <trkpt lat="48.14042" lon="-3.0091">
        <ele>65</ele>
        <time>2021-08-09T10:04:24Z</time>
      </trkpt>
      <trkpt lat="48.14046" lon="-3.00906">
        <ele>65</ele>
        <time>2021-08-09T10:04:25Z</time>
      </trkpt>
      <trkpt lat="48.1405" lon="-3.00902">
        <ele>65</ele>
        <time>2021-08-09T10:04:26Z</time>
      </trkpt>
      <trkpt lat="48.14054" lon="-3.00898">
        <ele>65</ele>
        <time>2021-08-09T10:04:27Z</time>
      </trkpt>
      <trkpt lat="48.14061" lon="-3.00888">
        <ele>65</ele>
        <time>2021-08-09T10:04:29Z</time>
      </trkpt>
      <trkpt lat="48.14064" lon="-3.00883">
        <ele>65</ele>
        <time>2021-08-09T10:04:30Z</time>
      </trkpt>
      <trkpt lat="48.14067" lon="-3.00879">
        <ele>65</ele>
        <time>2021-08-09T10:04:31Z</time>
      </trkpt>
      <trkpt lat="48.1407" lon="-3.00874">
        <ele>65</ele>
        <time>2021-08-09T10:04:32Z</time>
      </trkpt>
      <trkpt lat="48.14072" lon="-3.00869">
        <ele>65</ele>
        <time>2021-08-09T10:04:33Z</time>
      </trkpt>
      <trkpt lat="48.14075" lon="-3.00864">
        <ele>65</ele>
        <time>2021-08-09T10:04:34Z</time>
      </trkpt>
      <trkpt lat="48.14078" lon="-3.00858">
        <ele>65</ele>
        <time>2021-08-09T10:04:35Z</time>
      </trkpt>
      <trkpt lat="48.14081" lon="-3.00853">
        <ele>65</ele>
        <time>2021-08-09T10:04:36Z</time>
      </trkpt>
      <trkpt lat="48.14084" lon="-3.00848">
        <ele>65</ele>
        <time>2021-08-09T10:04:37Z</time>
      </trkpt>
      <trkpt lat="48.14086" lon="-3.00843">
        <ele>65</ele>
        <time>2021-08-09T10:04:38Z</time>
      </trkpt>
      <trkpt lat="48.14092" lon="-3.00833">
        <ele>65</ele>
        <time>2021-08-09T10:04:40Z</time>
      </trkpt>
      <trkpt lat="48.14095" lon="-3.00827">
        <ele>65</ele>
        <time>2021-08-09T10:04:41Z</time>
      </trkpt>
      <trkpt lat="48.14099" lon="-3.00823">
        <ele>65</ele>
        <time>2021-08-09T10:04:42Z</time>
      </trkpt>
      <trkpt lat="48.14103" lon="-3.00818">
        <ele>65</ele>
        <time>2021-08-09T10:04:43Z</time>
      </trkpt>
      <trkpt lat="48.14107" lon="-3.00813">
        <ele>65</ele>
        <time>2021-08-09T10:04:44Z</time>
      </trkpt>
      <trkpt lat="48.14111" lon="-3.00808">
        <ele>65</ele>
        <time>2021-08-09T10:04:45Z</time>
      </trkpt>
      <trkpt lat="48.14114" lon="-3.00803">
        <ele>65</ele>
        <time>2021-08-09T10:04:46Z</time>
      </trkpt>
      <trkpt lat="48.14119" lon="-3.00799">
        <ele>65</ele>
        <time>2021-08-09T10:04:47Z</time>
      </trkpt>
      <trkpt lat="48.14123" lon="-3.00795">
        <ele>65</ele>
        <time>2021-08-09T10:04:48Z</time>
      </trkpt>
      <trkpt lat="48.14128" lon="-3.00791">
        <ele>65</ele>
        <time>2021-08-09T10:04:49Z</time>
      </trkpt>
      <trkpt lat="48.14137" lon="-3.00783">
        <ele>64.8</ele>
        <time>2021-08-09T10:04:51Z</time>
      </trkpt>
      <trkpt lat="48.14142" lon="-3.00779">
        <ele>64.6</ele>
        <time>2021-08-09T10:04:52Z</time>
      </trkpt>
      <trkpt lat="48.14146" lon="-3.00776">
        <ele>64.6</ele>
        <time>2021-08-09T10:04:53Z</time>
      </trkpt>
      <trkpt lat="48.14151" lon="-3.00773">
        <ele>64.6</ele>
        <time>2021-08-09T10:04:54Z</time>
      </trkpt>
      <trkpt lat="48.14155" lon="-3.0077">
        <ele>64.6</ele>
        <time>2021-08-09T10:04:55Z</time>
      </trkpt>
      <trkpt lat="48.1416" lon="-3.00767">
        <ele>64.6</ele>
        <time>2021-08-09T10:04:56Z</time>
      </trkpt>
      <trkpt lat="48.14165" lon="-3.00764">
        <ele>64.4</ele>
        <time>2021-08-09T10:04:57Z</time>
      </trkpt>
      <trkpt lat="48.14169" lon="-3.00761">
        <ele>64.4</ele>
        <time>2021-08-09T10:04:58Z</time>
      </trkpt>
      <trkpt lat="48.14173" lon="-3.00758">
        <ele>64.4</ele>
        <time>2021-08-09T10:04:59Z</time>
      </trkpt>
      <trkpt lat="48.14178" lon="-3.00755">
        <ele>64.4</ele>
        <time>2021-08-09T10:05:00Z</time>
      </trkpt>
      <trkpt lat="48.14182" lon="-3.00751">
        <ele>64.4</ele>
        <time>2021-08-09T10:05:01Z</time>
      </trkpt>
      <trkpt lat="48.14185" lon="-3.00748">
        <ele>64.6</ele>
        <time>2021-08-09T10:05:02Z</time>
      </trkpt>
      <trkpt lat="48.14189" lon="-3.00743">
        <ele>64.6</ele>
        <time>2021-08-09T10:05:03Z</time>
      </trkpt>
      <trkpt lat="48.14193" lon="-3.00739">
        <ele>64.6</ele>
        <time>2021-08-09T10:05:04Z</time>
      </trkpt>
      <trkpt lat="48.14197" lon="-3.00735">
        <ele>64.6</ele>
        <time>2021-08-09T10:05:05Z</time>
      </trkpt>
      <trkpt lat="48.14201" lon="-3.00731">
        <ele>64.6</ele>
        <time>2021-08-09T10:05:06Z</time>
      </trkpt>
      <trkpt lat="48.14205" lon="-3.00726">
        <ele>64.6</ele>
        <time>2021-08-09T10:05:07Z</time>
      </trkpt>
      <trkpt lat="48.14208" lon="-3.00722">
        <ele>64.6</ele>
        <time>2021-08-09T10:05:08Z</time>
      </trkpt>
      <trkpt lat="48.14212" lon="-3.00717">
        <ele>64.8</ele>
        <time>2021-08-09T10:05:09Z</time>
      </trkpt>
      <trkpt lat="48.14214" lon="-3.00713">
        <ele>64.8</ele>
        <time>2021-08-09T10:05:10Z</time>
      </trkpt>
      <trkpt lat="48.14218" lon="-3.00708">
        <ele>64.8</ele>
        <time>2021-08-09T10:05:11Z</time>
      </trkpt>
      <trkpt lat="48.14221" lon="-3.00702">
        <ele>65</ele>
        <time>2021-08-09T10:05:12Z</time>
      </trkpt>
      <trkpt lat="48.14225" lon="-3.00697">
        <ele>65</ele>
        <time>2021-08-09T10:05:13Z</time>
      </trkpt>
      <trkpt lat="48.14227" lon="-3.00691">
        <ele>65</ele>
        <time>2021-08-09T10:05:14Z</time>
      </trkpt>
      <trkpt lat="48.1423" lon="-3.00685">
        <ele>65.2</ele>
        <time>2021-08-09T10:05:15Z</time>
      </trkpt>
      <trkpt lat="48.14233" lon="-3.00679">
        <ele>65.2</ele>
        <time>2021-08-09T10:05:16Z</time>
      </trkpt>
      <trkpt lat="48.14235" lon="-3.00673">
        <ele>65.2</ele>
        <time>2021-08-09T10:05:17Z</time>
      </trkpt>
      <trkpt lat="48.14238" lon="-3.00667">
        <ele>65.2</ele>
        <time>2021-08-09T10:05:18Z</time>
      </trkpt>
      <trkpt lat="48.1424" lon="-3.00661">
        <ele>65.2</ele>
        <time>2021-08-09T10:05:19Z</time>
      </trkpt>
      <trkpt lat="48.14242" lon="-3.00654">
        <ele>65.2</ele>
        <time>2021-08-09T10:05:20Z</time>
      </trkpt>
      <trkpt lat="48.14244" lon="-3.00648">
        <ele>65.4</ele>
        <time>2021-08-09T10:05:21Z</time>
      </trkpt>
      <trkpt lat="48.14246" lon="-3.00641">
        <ele>65.4</ele>
        <time>2021-08-09T10:05:22Z</time>
      </trkpt>
      <trkpt lat="48.1425" lon="-3.00629">
        <ele>65.4</ele>
        <time>2021-08-09T10:05:24Z</time>
      </trkpt>
      <trkpt lat="48.14253" lon="-3.00623">
        <ele>65.6</ele>
        <time>2021-08-09T10:05:25Z</time>
      </trkpt>
      <trkpt lat="48.14255" lon="-3.00617">
        <ele>65.6</ele>
        <time>2021-08-09T10:05:26Z</time>
      </trkpt>
      <trkpt lat="48.14257" lon="-3.00612">
        <ele>65.6</ele>
        <time>2021-08-09T10:05:27Z</time>
      </trkpt>
      <trkpt lat="48.1426" lon="-3.00606">
        <ele>65.6</ele>
        <time>2021-08-09T10:05:28Z</time>
      </trkpt>
      <trkpt lat="48.14261" lon="-3.00601">
        <ele>65.8</ele>
        <time>2021-08-09T10:05:29Z</time>
      </trkpt>
      <trkpt lat="48.14263" lon="-3.00597">
        <ele>65.8</ele>
        <time>2021-08-09T10:05:30Z</time>
      </trkpt>
      <trkpt lat="48.14264" lon="-3.00592">
        <ele>65.8</ele>
        <time>2021-08-09T10:05:31Z</time>
      </trkpt>
      <trkpt lat="48.14266" lon="-3.00587">
        <ele>65.8</ele>
        <time>2021-08-09T10:05:32Z</time>
      </trkpt>
      <trkpt lat="48.14268" lon="-3.00582">
        <ele>65.8</ele>
        <time>2021-08-09T10:05:33Z</time>
      </trkpt>
      <trkpt lat="48.14271" lon="-3.00572">
        <ele>66</ele>
        <time>2021-08-09T10:05:35Z</time>
      </trkpt>
      <trkpt lat="48.14272" lon="-3.00567">
        <ele>66</ele>
        <time>2021-08-09T10:05:36Z</time>
      </trkpt>
      <trkpt lat="48.14274" lon="-3.00563">
        <ele>66.2</ele>
        <time>2021-08-09T10:05:37Z</time>
      </trkpt>
      <trkpt lat="48.14275" lon="-3.00558">
        <ele>66.2</ele>
        <time>2021-08-09T10:05:38Z</time>
      </trkpt>
      <trkpt lat="48.14276" lon="-3.00553">
        <ele>66.2</ele>
        <time>2021-08-09T10:05:39Z</time>
      </trkpt>
      <trkpt lat="48.14278" lon="-3.00549">
        <ele>66.4</ele>
        <time>2021-08-09T10:05:40Z</time>
      </trkpt>
      <trkpt lat="48.1428" lon="-3.00545">
        <ele>66.8</ele>
        <time>2021-08-09T10:05:41Z</time>
      </trkpt>
      <trkpt lat="48.14281" lon="-3.00541">
        <ele>66.8</ele>
        <time>2021-08-09T10:05:42Z</time>
      </trkpt>
      <trkpt lat="48.14284" lon="-3.00538">
        <ele>66.8</ele>
        <time>2021-08-09T10:05:43Z</time>
      </trkpt>
      <trkpt lat="48.14285" lon="-3.00534">
        <ele>67</ele>
        <time>2021-08-09T10:05:44Z</time>
      </trkpt>
      <trkpt lat="48.14288" lon="-3.00529">
        <ele>67.2</ele>
        <time>2021-08-09T10:05:46Z</time>
      </trkpt>
      <trkpt lat="48.14288" lon="-3.00527">
        <ele>67.2</ele>
        <time>2021-08-09T10:05:47Z</time>
      </trkpt>
      <trkpt lat="48.14289" lon="-3.00525">
        <ele>67.2</ele>
        <time>2021-08-09T10:05:48Z</time>
      </trkpt>
      <trkpt lat="48.1429" lon="-3.00523">
        <ele>67.4</ele>
        <time>2021-08-09T10:05:49Z</time>
      </trkpt>
      <trkpt lat="48.14291" lon="-3.00521">
        <ele>67.6</ele>
        <time>2021-08-09T10:05:50Z</time>
      </trkpt>
      <trkpt lat="48.14292" lon="-3.00519">
        <ele>67.8</ele>
        <time>2021-08-09T10:05:51Z</time>
      </trkpt>
      <trkpt lat="48.14293" lon="-3.00517">
        <ele>67.8</ele>
        <time>2021-08-09T10:05:52Z</time>
      </trkpt>
      <trkpt lat="48.14294" lon="-3.00515">
        <ele>67.8</ele>
        <time>2021-08-09T10:05:53Z</time>
      </trkpt>
      <trkpt lat="48.14295" lon="-3.00514">
        <ele>67.8</ele>
        <time>2021-08-09T10:05:54Z</time>
      </trkpt>
      <trkpt lat="48.14296" lon="-3.00511">
        <ele>68</ele>
        <time>2021-08-09T10:05:55Z</time>
      </trkpt>
      <trkpt lat="48.14298" lon="-3.00509">
        <ele>68</ele>
        <time>2021-08-09T10:05:56Z</time>
      </trkpt>
      <trkpt lat="48.14299" lon="-3.00506">
        <ele>68</ele>
        <time>2021-08-09T10:05:57Z</time>
      </trkpt>
      <trkpt lat="48.143" lon="-3.00503">
        <ele>68</ele>
        <time>2021-08-09T10:05:58Z</time>
      </trkpt>
      <trkpt lat="48.14302" lon="-3.005">
        <ele>68</ele>
        <time>2021-08-09T10:05:59Z</time>
      </trkpt>
      <trkpt lat="48.14303" lon="-3.00497">
        <ele>68</ele>
        <time>2021-08-09T10:06:00Z</time>
      </trkpt>
      <trkpt lat="48.14305" lon="-3.00494">
        <ele>68</ele>
        <time>2021-08-09T10:06:01Z</time>
      </trkpt>
      <trkpt lat="48.14306" lon="-3.00491">
        <ele>68</ele>
        <time>2021-08-09T10:06:02Z</time>
      </trkpt>
      <trkpt lat="48.14307" lon="-3.00488">
        <ele>68</ele>
        <time>2021-08-09T10:06:03Z</time>
      </trkpt>
      <trkpt lat="48.14308" lon="-3.00485">
        <ele>68</ele>
        <time>2021-08-09T10:06:04Z</time>
      </trkpt>
      <trkpt lat="48.14309" lon="-3.00482">
        <ele>68</ele>
        <time>2021-08-09T10:06:05Z</time>
      </trkpt>
      <trkpt lat="48.1431" lon="-3.0048">
        <ele>68</ele>
        <time>2021-08-09T10:06:06Z</time>
      </trkpt>
      <trkpt lat="48.14311" lon="-3.00475">
        <ele>68</ele>
        <time>2021-08-09T10:06:08Z</time>
      </trkpt>
      <trkpt lat="48.14311" lon="-3.00473">
        <ele>68</ele>
        <time>2021-08-09T10:06:09Z</time>
      </trkpt>
      <trkpt lat="48.14312" lon="-3.00472">
        <ele>68</ele>
        <time>2021-08-09T10:06:10Z</time>
      </trkpt>
      <trkpt lat="48.14312" lon="-3.0047">
        <ele>68</ele>
        <time>2021-08-09T10:06:29Z</time>
      </trkpt>
      <trkpt lat="48.14312" lon="-3.0047">
        <ele>68</ele>
        <time>2021-08-09T10:06:31Z</time>
      </trkpt>
      <trkpt lat="48.14312" lon="-3.00469">
        <ele>67.8</ele>
        <time>2021-08-09T10:06:37Z</time>
      </trkpt>
      <trkpt lat="48.14312" lon="-3.00469">
        <ele>67.8</ele>
        <time>2021-08-09T10:06:38Z</time>
      </trkpt>
      <trkpt lat="48.14312" lon="-3.00469">
        <ele>67.8</ele>
        <time>2021-08-09T10:06:39Z</time>
      </trkpt>
      <trkpt lat="48.14312" lon="-3.00469">
        <ele>67.8</ele>
        <time>2021-08-09T10:06:40Z</time>
      </trkpt>
      <trkpt lat="48.14321" lon="-3.00468">
        <ele>68.2</ele>
        <time>2021-08-09T10:18:22Z</time>
      </trkpt>
      <trkpt lat="48.14322" lon="-3.00466">
        <ele>68.2</ele>
        <time>2021-08-09T10:18:23Z</time>
      </trkpt>
      <trkpt lat="48.14322" lon="-3.00463">
        <ele>68.2</ele>
        <time>2021-08-09T10:18:24Z</time>
      </trkpt>
      <trkpt lat="48.14323" lon="-3.00461">
        <ele>68</ele>
        <time>2021-08-09T10:18:25Z</time>
      </trkpt>
      <trkpt lat="48.14325" lon="-3.00458">
        <ele>68</ele>
        <time>2021-08-09T10:18:26Z</time>
      </trkpt>
      <trkpt lat="48.14326" lon="-3.00454">
        <ele>68</ele>
        <time>2021-08-09T10:18:27Z</time>
      </trkpt>
      <trkpt lat="48.14328" lon="-3.0045">
        <ele>68</ele>
        <time>2021-08-09T10:18:28Z</time>
      </trkpt>
      <trkpt lat="48.14329" lon="-3.00446">
        <ele>68</ele>
        <time>2021-08-09T10:18:29Z</time>
      </trkpt>
      <trkpt lat="48.14331" lon="-3.00442">
        <ele>68</ele>
        <time>2021-08-09T10:18:30Z</time>
      </trkpt>
      <trkpt lat="48.14333" lon="-3.00437">
        <ele>68</ele>
        <time>2021-08-09T10:18:31Z</time>
      </trkpt>
      <trkpt lat="48.14335" lon="-3.00432">
        <ele>68</ele>
        <time>2021-08-09T10:18:32Z</time>
      </trkpt>
      <trkpt lat="48.14339" lon="-3.00422">
        <ele>68</ele>
        <time>2021-08-09T10:18:34Z</time>
      </trkpt>
      <trkpt lat="48.14342" lon="-3.00416">
        <ele>67.8</ele>
        <time>2021-08-09T10:18:35Z</time>
      </trkpt>
      <trkpt lat="48.14344" lon="-3.0041">
        <ele>67.8</ele>
        <time>2021-08-09T10:18:36Z</time>
      </trkpt>
      <trkpt lat="48.14347" lon="-3.00404">
        <ele>67.8</ele>
        <time>2021-08-09T10:18:37Z</time>
      </trkpt>
      <trkpt lat="48.1435" lon="-3.00398">
        <ele>67.6</ele>
        <time>2021-08-09T10:18:38Z</time>
      </trkpt>
      <trkpt lat="48.14353" lon="-3.00391">
        <ele>67.6</ele>
        <time>2021-08-09T10:18:39Z</time>
      </trkpt>
      <trkpt lat="48.14357" lon="-3.00385">
        <ele>67.6</ele>
        <time>2021-08-09T10:18:40Z</time>
      </trkpt>
      <trkpt lat="48.1436" lon="-3.00378">
        <ele>67.6</ele>
        <time>2021-08-09T10:18:41Z</time>
      </trkpt>
      <trkpt lat="48.14363" lon="-3.00372">
        <ele>67.4</ele>
        <time>2021-08-09T10:18:42Z</time>
      </trkpt>
      <trkpt lat="48.14367" lon="-3.00366">
        <ele>67.2</ele>
        <time>2021-08-09T10:18:43Z</time>
      </trkpt>
      <trkpt lat="48.14374" lon="-3.00352">
        <ele>67</ele>
        <time>2021-08-09T10:18:45Z</time>
      </trkpt>
      <trkpt lat="48.14377" lon="-3.00346">
        <ele>67</ele>
        <time>2021-08-09T10:18:46Z</time>
      </trkpt>
      <trkpt lat="48.14381" lon="-3.0034">
        <ele>66.8</ele>
        <time>2021-08-09T10:18:47Z</time>
      </trkpt>
      <trkpt lat="48.14384" lon="-3.00333">
        <ele>66.8</ele>
        <time>2021-08-09T10:18:48Z</time>
      </trkpt>
      <trkpt lat="48.14388" lon="-3.00327">
        <ele>66.6</ele>
        <time>2021-08-09T10:18:49Z</time>
      </trkpt>
      <trkpt lat="48.14391" lon="-3.00321">
        <ele>66.6</ele>
        <time>2021-08-09T10:18:50Z</time>
      </trkpt>
      <trkpt lat="48.14395" lon="-3.00316">
        <ele>66.4</ele>
        <time>2021-08-09T10:18:51Z</time>
      </trkpt>
      <trkpt lat="48.14399" lon="-3.0031">
        <ele>66.4</ele>
        <time>2021-08-09T10:18:52Z</time>
      </trkpt>
      <trkpt lat="48.14403" lon="-3.00305">
        <ele>66.4</ele>
        <time>2021-08-09T10:18:53Z</time>
      </trkpt>
      <trkpt lat="48.14407" lon="-3.00299">
        <ele>66.4</ele>
        <time>2021-08-09T10:18:54Z</time>
      </trkpt>
      <trkpt lat="48.14415" lon="-3.00289">
        <ele>66.4</ele>
        <time>2021-08-09T10:18:56Z</time>
      </trkpt>
      <trkpt lat="48.14419" lon="-3.00283">
        <ele>66.4</ele>
        <time>2021-08-09T10:18:57Z</time>
      </trkpt>
      <trkpt lat="48.14423" lon="-3.00277">
        <ele>66.4</ele>
        <time>2021-08-09T10:18:58Z</time>
      </trkpt>
      <trkpt lat="48.14428" lon="-3.00272">
        <ele>66.4</ele>
        <time>2021-08-09T10:18:59Z</time>
      </trkpt>
      <trkpt lat="48.14432" lon="-3.00267">
        <ele>66.6</ele>
        <time>2021-08-09T10:19:00Z</time>
      </trkpt>
      <trkpt lat="48.14437" lon="-3.00261">
        <ele>66.6</ele>
        <time>2021-08-09T10:19:01Z</time>
      </trkpt>
      <trkpt lat="48.14442" lon="-3.00256">
        <ele>66.6</ele>
        <time>2021-08-09T10:19:02Z</time>
      </trkpt>
      <trkpt lat="48.14447" lon="-3.00252">
        <ele>66.6</ele>
        <time>2021-08-09T10:19:03Z</time>
      </trkpt>
      <trkpt lat="48.14452" lon="-3.00248">
        <ele>66.6</ele>
        <time>2021-08-09T10:19:04Z</time>
      </trkpt>
      <trkpt lat="48.14458" lon="-3.00245">
        <ele>66.6</ele>
        <time>2021-08-09T10:19:05Z</time>
      </trkpt>
      <trkpt lat="48.1447" lon="-3.00243">
        <ele>66.6</ele>
        <time>2021-08-09T10:19:07Z</time>
      </trkpt>
      <trkpt lat="48.14476" lon="-3.00242">
        <ele>66.6</ele>
        <time>2021-08-09T10:19:08Z</time>
      </trkpt>
      <trkpt lat="48.14482" lon="-3.00243">
        <ele>66.6</ele>
        <time>2021-08-09T10:19:09Z</time>
      </trkpt>
      <trkpt lat="48.14488" lon="-3.00245">
        <ele>66.6</ele>
        <time>2021-08-09T10:19:10Z</time>
      </trkpt>
      <trkpt lat="48.14493" lon="-3.00247">
        <ele>66.6</ele>
        <time>2021-08-09T10:19:11Z</time>
      </trkpt>
      <trkpt lat="48.14499" lon="-3.00249">
        <ele>66.6</ele>
        <time>2021-08-09T10:19:12Z</time>
      </trkpt>
      <trkpt lat="48.14504" lon="-3.00252">
        <ele>66.4</ele>
        <time>2021-08-09T10:19:13Z</time>
      </trkpt>
      <trkpt lat="48.1451" lon="-3.00254">
        <ele>66.4</ele>
        <time>2021-08-09T10:19:14Z</time>
      </trkpt>
      <trkpt lat="48.14515" lon="-3.00257">
        <ele>66.4</ele>
        <time>2021-08-09T10:19:15Z</time>
      </trkpt>
      <trkpt lat="48.1452" lon="-3.0026">
        <ele>66.2</ele>
        <time>2021-08-09T10:19:16Z</time>
      </trkpt>
      <trkpt lat="48.1453" lon="-3.00266">
        <ele>66.2</ele>
        <time>2021-08-09T10:19:18Z</time>
      </trkpt>
      <trkpt lat="48.14535" lon="-3.00269">
        <ele>66.2</ele>
        <time>2021-08-09T10:19:19Z</time>
      </trkpt>
      <trkpt lat="48.14541" lon="-3.00272">
        <ele>66</ele>
        <time>2021-08-09T10:19:20Z</time>
      </trkpt>
      <trkpt lat="48.14546" lon="-3.00275">
        <ele>66</ele>
        <time>2021-08-09T10:19:21Z</time>
      </trkpt>
      <trkpt lat="48.14551" lon="-3.00277">
        <ele>65.8</ele>
        <time>2021-08-09T10:19:22Z</time>
      </trkpt>
      <trkpt lat="48.14555" lon="-3.0028">
        <ele>65.8</ele>
        <time>2021-08-09T10:19:23Z</time>
      </trkpt>
      <trkpt lat="48.1456" lon="-3.00282">
        <ele>65.8</ele>
        <time>2021-08-09T10:19:24Z</time>
      </trkpt>
      <trkpt lat="48.14565" lon="-3.00284">
        <ele>65.6</ele>
        <time>2021-08-09T10:19:25Z</time>
      </trkpt>
      <trkpt lat="48.1457" lon="-3.00286">
        <ele>65.6</ele>
        <time>2021-08-09T10:19:26Z</time>
      </trkpt>
      <trkpt lat="48.14575" lon="-3.00289">
        <ele>65.6</ele>
        <time>2021-08-09T10:19:27Z</time>
      </trkpt>
      <trkpt lat="48.1458" lon="-3.0029">
        <ele>65.6</ele>
        <time>2021-08-09T10:19:28Z</time>
      </trkpt>
      <trkpt lat="48.14586" lon="-3.00293">
        <ele>65.6</ele>
        <time>2021-08-09T10:19:29Z</time>
      </trkpt>
      <trkpt lat="48.14591" lon="-3.00295">
        <ele>65.4</ele>
        <time>2021-08-09T10:19:30Z</time>
      </trkpt>
      <trkpt lat="48.14596" lon="-3.00297">
        <ele>65.4</ele>
        <time>2021-08-09T10:19:31Z</time>
      </trkpt>
      <trkpt lat="48.14601" lon="-3.003">
        <ele>65.2</ele>
        <time>2021-08-09T10:19:32Z</time>
      </trkpt>
      <trkpt lat="48.14607" lon="-3.00302">
        <ele>65.2</ele>
        <time>2021-08-09T10:19:33Z</time>
      </trkpt>
      <trkpt lat="48.14612" lon="-3.00305">
        <ele>65.2</ele>
        <time>2021-08-09T10:19:34Z</time>
      </trkpt>
      <trkpt lat="48.14617" lon="-3.00307">
        <ele>65.4</ele>
        <time>2021-08-09T10:19:35Z</time>
      </trkpt>
      <trkpt lat="48.14622" lon="-3.00309">
        <ele>65.4</ele>
        <time>2021-08-09T10:19:36Z</time>
      </trkpt>
      <trkpt lat="48.14628" lon="-3.00311">
        <ele>65.6</ele>
        <time>2021-08-09T10:19:37Z</time>
      </trkpt>
      <trkpt lat="48.14633" lon="-3.00313">
        <ele>65.6</ele>
        <time>2021-08-09T10:19:38Z</time>
      </trkpt>
      <trkpt lat="48.14644" lon="-3.00317">
        <ele>65.6</ele>
        <time>2021-08-09T10:19:40Z</time>
      </trkpt>
      <trkpt lat="48.14649" lon="-3.00319">
        <ele>65.8</ele>
        <time>2021-08-09T10:19:41Z</time>
      </trkpt>
      <trkpt lat="48.14654" lon="-3.00321">
        <ele>65.8</ele>
        <time>2021-08-09T10:19:42Z</time>
      </trkpt>
      <trkpt lat="48.14659" lon="-3.00322">
        <ele>65.8</ele>
        <time>2021-08-09T10:19:43Z</time>
      </trkpt>
      <trkpt lat="48.14664" lon="-3.00324">
        <ele>65.8</ele>
        <time>2021-08-09T10:19:44Z</time>
      </trkpt>
      <trkpt lat="48.14669" lon="-3.00326">
        <ele>65.8</ele>
        <time>2021-08-09T10:19:45Z</time>
      </trkpt>
      <trkpt lat="48.14675" lon="-3.00327">
        <ele>65.8</ele>
        <time>2021-08-09T10:19:46Z</time>
      </trkpt>
      <trkpt lat="48.1468" lon="-3.00329">
        <ele>66.2</ele>
        <time>2021-08-09T10:19:47Z</time>
      </trkpt>
      <trkpt lat="48.14685" lon="-3.00331">
        <ele>66.2</ele>
        <time>2021-08-09T10:19:48Z</time>
      </trkpt>
      <trkpt lat="48.14691" lon="-3.00333">
        <ele>66.4</ele>
        <time>2021-08-09T10:19:49Z</time>
      </trkpt>
      <trkpt lat="48.14702" lon="-3.00336">
        <ele>66.6</ele>
        <time>2021-08-09T10:19:51Z</time>
      </trkpt>
      <trkpt lat="48.14708" lon="-3.00338">
        <ele>66.6</ele>
        <time>2021-08-09T10:19:52Z</time>
      </trkpt>
      <trkpt lat="48.14713" lon="-3.0034">
        <ele>66.6</ele>
        <time>2021-08-09T10:19:53Z</time>
      </trkpt>
      <trkpt lat="48.14719" lon="-3.00342">
        <ele>66.6</ele>
        <time>2021-08-09T10:19:54Z</time>
      </trkpt>
      <trkpt lat="48.14724" lon="-3.00344">
        <ele>66.6</ele>
        <time>2021-08-09T10:19:55Z</time>
      </trkpt>
      <trkpt lat="48.1473" lon="-3.00346">
        <ele>66.6</ele>
        <time>2021-08-09T10:19:56Z</time>
      </trkpt>
      <trkpt lat="48.14736" lon="-3.00348">
        <ele>66.6</ele>
        <time>2021-08-09T10:19:57Z</time>
      </trkpt>
      <trkpt lat="48.14741" lon="-3.0035">
        <ele>66.6</ele>
        <time>2021-08-09T10:19:58Z</time>
      </trkpt>
      <trkpt lat="48.14747" lon="-3.00353">
        <ele>66.6</ele>
        <time>2021-08-09T10:19:59Z</time>
      </trkpt>
      <trkpt lat="48.14752" lon="-3.00355">
        <ele>66.4</ele>
        <time>2021-08-09T10:20:00Z</time>
      </trkpt>
      <trkpt lat="48.14763" lon="-3.00362">
        <ele>66.4</ele>
        <time>2021-08-09T10:20:02Z</time>
      </trkpt>
      <trkpt lat="48.14768" lon="-3.00365">
        <ele>66.4</ele>
        <time>2021-08-09T10:20:03Z</time>
      </trkpt>
      <trkpt lat="48.14773" lon="-3.00369">
        <ele>66.4</ele>
        <time>2021-08-09T10:20:04Z</time>
      </trkpt>
      <trkpt lat="48.14778" lon="-3.00373">
        <ele>66.2</ele>
        <time>2021-08-09T10:20:05Z</time>
      </trkpt>
      <trkpt lat="48.14783" lon="-3.00376">
        <ele>66</ele>
        <time>2021-08-09T10:20:06Z</time>
      </trkpt>
      <trkpt lat="48.14789" lon="-3.0038">
        <ele>66</ele>
        <time>2021-08-09T10:20:07Z</time>
      </trkpt>
      <trkpt lat="48.14794" lon="-3.00384">
        <ele>65.8</ele>
        <time>2021-08-09T10:20:08Z</time>
      </trkpt>
      <trkpt lat="48.14798" lon="-3.00388">
        <ele>65.8</ele>
        <time>2021-08-09T10:20:09Z</time>
      </trkpt>
      <trkpt lat="48.14803" lon="-3.00392">
        <ele>65.6</ele>
        <time>2021-08-09T10:20:10Z</time>
      </trkpt>
      <trkpt lat="48.14807" lon="-3.00396">
        <ele>65.6</ele>
        <time>2021-08-09T10:20:11Z</time>
      </trkpt>
      <trkpt lat="48.14811" lon="-3.00401">
        <ele>65.6</ele>
        <time>2021-08-09T10:20:12Z</time>
      </trkpt>
      <trkpt lat="48.14816" lon="-3.00405">
        <ele>65.6</ele>
        <time>2021-08-09T10:20:13Z</time>
      </trkpt>
      <trkpt lat="48.1482" lon="-3.0041">
        <ele>65.6</ele>
        <time>2021-08-09T10:20:14Z</time>
      </trkpt>
      <trkpt lat="48.14824" lon="-3.00415">
        <ele>65.6</ele>
        <time>2021-08-09T10:20:15Z</time>
      </trkpt>
      <trkpt lat="48.14828" lon="-3.0042">
        <ele>65.6</ele>
        <time>2021-08-09T10:20:16Z</time>
      </trkpt>
      <trkpt lat="48.14832" lon="-3.00426">
        <ele>65.6</ele>
        <time>2021-08-09T10:20:17Z</time>
      </trkpt>
      <trkpt lat="48.14835" lon="-3.00431">
        <ele>65.6</ele>
        <time>2021-08-09T10:20:18Z</time>
      </trkpt>
      <trkpt lat="48.14839" lon="-3.00437">
        <ele>65.6</ele>
        <time>2021-08-09T10:20:19Z</time>
      </trkpt>
      <trkpt lat="48.14843" lon="-3.00442">
        <ele>65.6</ele>
        <time>2021-08-09T10:20:20Z</time>
      </trkpt>
      <trkpt lat="48.14847" lon="-3.00448">
        <ele>65.6</ele>
        <time>2021-08-09T10:20:21Z</time>
      </trkpt>
      <trkpt lat="48.14851" lon="-3.00453">
        <ele>65.6</ele>
        <time>2021-08-09T10:20:22Z</time>
      </trkpt>
      <trkpt lat="48.14859" lon="-3.00464">
        <ele>65.6</ele>
        <time>2021-08-09T10:20:24Z</time>
      </trkpt>
      <trkpt lat="48.14863" lon="-3.0047">
        <ele>65.6</ele>
        <time>2021-08-09T10:20:25Z</time>
      </trkpt>
      <trkpt lat="48.14867" lon="-3.00476">
        <ele>65.6</ele>
        <time>2021-08-09T10:20:26Z</time>
      </trkpt>
      <trkpt lat="48.14871" lon="-3.00482">
        <ele>65.6</ele>
        <time>2021-08-09T10:20:27Z</time>
      </trkpt>
      <trkpt lat="48.14875" lon="-3.00488">
        <ele>65.6</ele>
        <time>2021-08-09T10:20:28Z</time>
      </trkpt>
      <trkpt lat="48.14879" lon="-3.00494">
        <ele>65.6</ele>
        <time>2021-08-09T10:20:29Z</time>
      </trkpt>
      <trkpt lat="48.14883" lon="-3.005">
        <ele>65.6</ele>
        <time>2021-08-09T10:20:30Z</time>
      </trkpt>
      <trkpt lat="48.14887" lon="-3.00507">
        <ele>65.6</ele>
        <time>2021-08-09T10:20:31Z</time>
      </trkpt>
      <trkpt lat="48.14891" lon="-3.00513">
        <ele>65.6</ele>
        <time>2021-08-09T10:20:32Z</time>
      </trkpt>
      <trkpt lat="48.14895" lon="-3.0052">
        <ele>65.6</ele>
        <time>2021-08-09T10:20:33Z</time>
      </trkpt>
      <trkpt lat="48.14903" lon="-3.00533">
        <ele>65.6</ele>
        <time>2021-08-09T10:20:35Z</time>
      </trkpt>
      <trkpt lat="48.14907" lon="-3.0054">
        <ele>65.6</ele>
        <time>2021-08-09T10:20:36Z</time>
      </trkpt>
      <trkpt lat="48.14911" lon="-3.00546">
        <ele>65.6</ele>
        <time>2021-08-09T10:20:37Z</time>
      </trkpt>
      <trkpt lat="48.14915" lon="-3.00553">
        <ele>65.6</ele>
        <time>2021-08-09T10:20:38Z</time>
      </trkpt>
      <trkpt lat="48.14919" lon="-3.00559">
        <ele>65.6</ele>
        <time>2021-08-09T10:20:39Z</time>
      </trkpt>
      <trkpt lat="48.14922" lon="-3.00566">
        <ele>65.4</ele>
        <time>2021-08-09T10:20:40Z</time>
      </trkpt>
      <trkpt lat="48.14926" lon="-3.00572">
        <ele>65.4</ele>
        <time>2021-08-09T10:20:41Z</time>
      </trkpt>
      <trkpt lat="48.1493" lon="-3.00579">
        <ele>65.4</ele>
        <time>2021-08-09T10:20:42Z</time>
      </trkpt>
      <trkpt lat="48.14933" lon="-3.00585">
        <ele>65.4</ele>
        <time>2021-08-09T10:20:43Z</time>
      </trkpt>
      <trkpt lat="48.14936" lon="-3.00592">
        <ele>65.4</ele>
        <time>2021-08-09T10:20:44Z</time>
      </trkpt>
      <trkpt lat="48.1494" lon="-3.00599">
        <ele>65.4</ele>
        <time>2021-08-09T10:20:45Z</time>
      </trkpt>
      <trkpt lat="48.14944" lon="-3.00606">
        <ele>65.6</ele>
        <time>2021-08-09T10:20:46Z</time>
      </trkpt>
      <trkpt lat="48.14948" lon="-3.00613">
        <ele>65.6</ele>
        <time>2021-08-09T10:20:47Z</time>
      </trkpt>
      <trkpt lat="48.14952" lon="-3.0062">
        <ele>65.6</ele>
        <time>2021-08-09T10:20:48Z</time>
      </trkpt>
      <trkpt lat="48.14956" lon="-3.00627">
        <ele>65.6</ele>
        <time>2021-08-09T10:20:49Z</time>
      </trkpt>
      <trkpt lat="48.1496" lon="-3.00634">
        <ele>65.6</ele>
        <time>2021-08-09T10:20:50Z</time>
      </trkpt>
      <trkpt lat="48.14963" lon="-3.0064">
        <ele>65.6</ele>
        <time>2021-08-09T10:20:51Z</time>
      </trkpt>
      <trkpt lat="48.14967" lon="-3.00646">
        <ele>65.6</ele>
        <time>2021-08-09T10:20:52Z</time>
      </trkpt>
      <trkpt lat="48.1497" lon="-3.00653">
        <ele>65.6</ele>
        <time>2021-08-09T10:20:53Z</time>
      </trkpt>
      <trkpt lat="48.14973" lon="-3.00659">
        <ele>65.6</ele>
        <time>2021-08-09T10:20:54Z</time>
      </trkpt>
      <trkpt lat="48.14976" lon="-3.00665">
        <ele>65.6</ele>
        <time>2021-08-09T10:20:55Z</time>
      </trkpt>
      <trkpt lat="48.14982" lon="-3.00675">
        <ele>65.6</ele>
        <time>2021-08-09T10:20:57Z</time>
      </trkpt>
      <trkpt lat="48.14985" lon="-3.00681">
        <ele>65.6</ele>
        <time>2021-08-09T10:20:58Z</time>
      </trkpt>
      <trkpt lat="48.14989" lon="-3.00687">
        <ele>65.6</ele>
        <time>2021-08-09T10:20:59Z</time>
      </trkpt>
      <trkpt lat="48.14991" lon="-3.00693">
        <ele>65.6</ele>
        <time>2021-08-09T10:21:00Z</time>
      </trkpt>
      <trkpt lat="48.14994" lon="-3.00699">
        <ele>65.6</ele>
        <time>2021-08-09T10:21:01Z</time>
      </trkpt>
      <trkpt lat="48.14997" lon="-3.00705">
        <ele>65.6</ele>
        <time>2021-08-09T10:21:02Z</time>
      </trkpt>
      <trkpt lat="48.15" lon="-3.00711">
        <ele>65.6</ele>
        <time>2021-08-09T10:21:03Z</time>
      </trkpt>
      <trkpt lat="48.15003" lon="-3.00717">
        <ele>65.6</ele>
        <time>2021-08-09T10:21:04Z</time>
      </trkpt>
      <trkpt lat="48.15005" lon="-3.00722">
        <ele>65.6</ele>
        <time>2021-08-09T10:21:05Z</time>
      </trkpt>
      <trkpt lat="48.15008" lon="-3.00726">
        <ele>65.6</ele>
        <time>2021-08-09T10:21:06Z</time>
      </trkpt>
      <trkpt lat="48.15013" lon="-3.00736">
        <ele>65.6</ele>
        <time>2021-08-09T10:21:08Z</time>
      </trkpt>
      <trkpt lat="48.15015" lon="-3.0074">
        <ele>65.6</ele>
        <time>2021-08-09T10:21:09Z</time>
      </trkpt>
      <trkpt lat="48.15016" lon="-3.00744">
        <ele>65.8</ele>
        <time>2021-08-09T10:21:10Z</time>
      </trkpt>
      <trkpt lat="48.15019" lon="-3.00748">
        <ele>65.8</ele>
        <time>2021-08-09T10:21:11Z</time>
      </trkpt>
      <trkpt lat="48.15021" lon="-3.00752">
        <ele>66.2</ele>
        <time>2021-08-09T10:21:12Z</time>
      </trkpt>
      <trkpt lat="48.15023" lon="-3.00756">
        <ele>66.4</ele>
        <time>2021-08-09T10:21:13Z</time>
      </trkpt>
      <trkpt lat="48.15026" lon="-3.0076">
        <ele>66.6</ele>
        <time>2021-08-09T10:21:14Z</time>
      </trkpt>
      <trkpt lat="48.15028" lon="-3.00764">
        <ele>66.6</ele>
        <time>2021-08-09T10:21:15Z</time>
      </trkpt>
      <trkpt lat="48.1503" lon="-3.00768">
        <ele>66.8</ele>
        <time>2021-08-09T10:21:16Z</time>
      </trkpt>
      <trkpt lat="48.15031" lon="-3.00772">
        <ele>66.8</ele>
        <time>2021-08-09T10:21:17Z</time>
      </trkpt>
      <trkpt lat="48.15037" lon="-3.00781">
        <ele>66.8</ele>
        <time>2021-08-09T10:21:19Z</time>
      </trkpt>
      <trkpt lat="48.15039" lon="-3.00785">
        <ele>66.8</ele>
        <time>2021-08-09T10:21:20Z</time>
      </trkpt>
      <trkpt lat="48.15041" lon="-3.00789">
        <ele>66.8</ele>
        <time>2021-08-09T10:21:21Z</time>
      </trkpt>
      <trkpt lat="48.15043" lon="-3.00794">
        <ele>66.8</ele>
        <time>2021-08-09T10:21:22Z</time>
      </trkpt>
      <trkpt lat="48.15045" lon="-3.00798">
        <ele>66.8</ele>
        <time>2021-08-09T10:21:23Z</time>
      </trkpt>
      <trkpt lat="48.15047" lon="-3.00803">
        <ele>66.8</ele>
        <time>2021-08-09T10:21:24Z</time>
      </trkpt>
      <trkpt lat="48.15049" lon="-3.00809">
        <ele>66.8</ele>
        <time>2021-08-09T10:21:25Z</time>
      </trkpt>
      <trkpt lat="48.15051" lon="-3.00815">
        <ele>66.6</ele>
        <time>2021-08-09T10:21:26Z</time>
      </trkpt>
      <trkpt lat="48.15054" lon="-3.00821">
        <ele>66.6</ele>
        <time>2021-08-09T10:21:27Z</time>
      </trkpt>
      <trkpt lat="48.15057" lon="-3.00827">
        <ele>66.6</ele>
        <time>2021-08-09T10:21:28Z</time>
      </trkpt>
      <trkpt lat="48.15059" lon="-3.00833">
        <ele>66.6</ele>
        <time>2021-08-09T10:21:29Z</time>
      </trkpt>
      <trkpt lat="48.15061" lon="-3.00839">
        <ele>66.6</ele>
        <time>2021-08-09T10:21:30Z</time>
      </trkpt>
      <trkpt lat="48.15063" lon="-3.00845">
        <ele>66.4</ele>
        <time>2021-08-09T10:21:31Z</time>
      </trkpt>
      <trkpt lat="48.15065" lon="-3.00851">
        <ele>66.4</ele>
        <time>2021-08-09T10:21:32Z</time>
      </trkpt>
      <trkpt lat="48.15067" lon="-3.00857">
        <ele>66.4</ele>
        <time>2021-08-09T10:21:33Z</time>
      </trkpt>
      <trkpt lat="48.15069" lon="-3.00862">
        <ele>66.4</ele>
        <time>2021-08-09T10:21:34Z</time>
      </trkpt>
      <trkpt lat="48.15071" lon="-3.00866">
        <ele>66.4</ele>
        <time>2021-08-09T10:21:35Z</time>
      </trkpt>
      <trkpt lat="48.15073" lon="-3.0087">
        <ele>66.4</ele>
        <time>2021-08-09T10:21:36Z</time>
      </trkpt>
      <trkpt lat="48.15074" lon="-3.00874">
        <ele>66.4</ele>
        <time>2021-08-09T10:21:37Z</time>
      </trkpt>
      <trkpt lat="48.15075" lon="-3.00878">
        <ele>66.4</ele>
        <time>2021-08-09T10:21:38Z</time>
      </trkpt>
      <trkpt lat="48.15076" lon="-3.00882">
        <ele>66.4</ele>
        <time>2021-08-09T10:21:39Z</time>
      </trkpt>
      <trkpt lat="48.15078" lon="-3.00891">
        <ele>66.4</ele>
        <time>2021-08-09T10:21:41Z</time>
      </trkpt>
      <trkpt lat="48.15079" lon="-3.00895">
        <ele>66.4</ele>
        <time>2021-08-09T10:21:42Z</time>
      </trkpt>
      <trkpt lat="48.1508" lon="-3.00899">
        <ele>66.4</ele>
        <time>2021-08-09T10:21:43Z</time>
      </trkpt>
      <trkpt lat="48.15082" lon="-3.00903">
        <ele>66.4</ele>
        <time>2021-08-09T10:21:44Z</time>
      </trkpt>
      <trkpt lat="48.15084" lon="-3.00908">
        <ele>66.4</ele>
        <time>2021-08-09T10:21:45Z</time>
      </trkpt>
      <trkpt lat="48.15085" lon="-3.00913">
        <ele>66.4</ele>
        <time>2021-08-09T10:21:46Z</time>
      </trkpt>
      <trkpt lat="48.15086" lon="-3.00918">
        <ele>66.6</ele>
        <time>2021-08-09T10:21:47Z</time>
      </trkpt>
      <trkpt lat="48.15087" lon="-3.00923">
        <ele>66.6</ele>
        <time>2021-08-09T10:21:48Z</time>
      </trkpt>
      <trkpt lat="48.15089" lon="-3.00928">
        <ele>66.6</ele>
        <time>2021-08-09T10:21:49Z</time>
      </trkpt>
      <trkpt lat="48.15091" lon="-3.00934">
        <ele>66.6</ele>
        <time>2021-08-09T10:21:50Z</time>
      </trkpt>
      <trkpt lat="48.15096" lon="-3.00946">
        <ele>66.6</ele>
        <time>2021-08-09T10:21:52Z</time>
      </trkpt>
      <trkpt lat="48.15097" lon="-3.00951">
        <ele>66.4</ele>
        <time>2021-08-09T10:21:53Z</time>
      </trkpt>
      <trkpt lat="48.15098" lon="-3.00957">
        <ele>66.4</ele>
        <time>2021-08-09T10:21:54Z</time>
      </trkpt>
      <trkpt lat="48.15099" lon="-3.00961">
        <ele>66.4</ele>
        <time>2021-08-09T10:21:55Z</time>
      </trkpt>
      <trkpt lat="48.15101" lon="-3.00966">
        <ele>66.4</ele>
        <time>2021-08-09T10:21:56Z</time>
      </trkpt>
      <trkpt lat="48.15102" lon="-3.00972">
        <ele>66.4</ele>
        <time>2021-08-09T10:21:57Z</time>
      </trkpt>
      <trkpt lat="48.15104" lon="-3.00977">
        <ele>66.4</ele>
        <time>2021-08-09T10:21:58Z</time>
      </trkpt>
      <trkpt lat="48.15105" lon="-3.00981">
        <ele>66.4</ele>
        <time>2021-08-09T10:21:59Z</time>
      </trkpt>
      <trkpt lat="48.15106" lon="-3.00985">
        <ele>66.4</ele>
        <time>2021-08-09T10:22:00Z</time>
      </trkpt>
      <trkpt lat="48.15108" lon="-3.0099">
        <ele>66.4</ele>
        <time>2021-08-09T10:22:01Z</time>
      </trkpt>
      <trkpt lat="48.15112" lon="-3.01001">
        <ele>66.2</ele>
        <time>2021-08-09T10:22:03Z</time>
      </trkpt>
      <trkpt lat="48.15115" lon="-3.01008">
        <ele>66.2</ele>
        <time>2021-08-09T10:22:04Z</time>
      </trkpt>
      <trkpt lat="48.15118" lon="-3.01013">
        <ele>66.2</ele>
        <time>2021-08-09T10:22:05Z</time>
      </trkpt>
      <trkpt lat="48.15122" lon="-3.01019">
        <ele>66.2</ele>
        <time>2021-08-09T10:22:06Z</time>
      </trkpt>
      <trkpt lat="48.15124" lon="-3.01025">
        <ele>66.2</ele>
        <time>2021-08-09T10:22:07Z</time>
      </trkpt>
      <trkpt lat="48.15127" lon="-3.01029">
        <ele>66.2</ele>
        <time>2021-08-09T10:22:08Z</time>
      </trkpt>
      <trkpt lat="48.1513" lon="-3.01036">
        <ele>66.2</ele>
        <time>2021-08-09T10:22:09Z</time>
      </trkpt>
      <trkpt lat="48.15133" lon="-3.01041">
        <ele>66.2</ele>
        <time>2021-08-09T10:22:10Z</time>
      </trkpt>
      <trkpt lat="48.15136" lon="-3.01046">
        <ele>66.2</ele>
        <time>2021-08-09T10:22:11Z</time>
      </trkpt>
      <trkpt lat="48.15139" lon="-3.0105">
        <ele>66.2</ele>
        <time>2021-08-09T10:22:12Z</time>
      </trkpt>
      <trkpt lat="48.15141" lon="-3.01054">
        <ele>66.2</ele>
        <time>2021-08-09T10:22:13Z</time>
      </trkpt>
      <trkpt lat="48.15143" lon="-3.01058">
        <ele>66.2</ele>
        <time>2021-08-09T10:22:14Z</time>
      </trkpt>
      <trkpt lat="48.15146" lon="-3.01062">
        <ele>66</ele>
        <time>2021-08-09T10:22:15Z</time>
      </trkpt>
      <trkpt lat="48.15149" lon="-3.01066">
        <ele>66</ele>
        <time>2021-08-09T10:22:16Z</time>
      </trkpt>
      <trkpt lat="48.15153" lon="-3.0107">
        <ele>66</ele>
        <time>2021-08-09T10:22:17Z</time>
      </trkpt>
      <trkpt lat="48.15156" lon="-3.01073">
        <ele>66</ele>
        <time>2021-08-09T10:22:18Z</time>
      </trkpt>
      <trkpt lat="48.1516" lon="-3.01077">
        <ele>66</ele>
        <time>2021-08-09T10:22:19Z</time>
      </trkpt>
      <trkpt lat="48.15164" lon="-3.0108">
        <ele>66</ele>
        <time>2021-08-09T10:22:20Z</time>
      </trkpt>
      <trkpt lat="48.15167" lon="-3.01083">
        <ele>66</ele>
        <time>2021-08-09T10:22:21Z</time>
      </trkpt>
      <trkpt lat="48.15171" lon="-3.01085">
        <ele>66</ele>
        <time>2021-08-09T10:22:22Z</time>
      </trkpt>
      <trkpt lat="48.15174" lon="-3.01089">
        <ele>66</ele>
        <time>2021-08-09T10:22:23Z</time>
      </trkpt>
      <trkpt lat="48.15183" lon="-3.01097">
        <ele>66</ele>
        <time>2021-08-09T10:22:25Z</time>
      </trkpt>
      <trkpt lat="48.15188" lon="-3.01101">
        <ele>66</ele>
        <time>2021-08-09T10:22:26Z</time>
      </trkpt>
      <trkpt lat="48.15192" lon="-3.01105">
        <ele>66</ele>
        <time>2021-08-09T10:22:27Z</time>
      </trkpt>
      <trkpt lat="48.15196" lon="-3.01109">
        <ele>66</ele>
        <time>2021-08-09T10:22:28Z</time>
      </trkpt>
      <trkpt lat="48.15201" lon="-3.01113">
        <ele>66</ele>
        <time>2021-08-09T10:22:29Z</time>
      </trkpt>
      <trkpt lat="48.15205" lon="-3.01116">
        <ele>66</ele>
        <time>2021-08-09T10:22:30Z</time>
      </trkpt>
      <trkpt lat="48.15209" lon="-3.0112">
        <ele>66</ele>
        <time>2021-08-09T10:22:31Z</time>
      </trkpt>
      <trkpt lat="48.15212" lon="-3.01124">
        <ele>65.8</ele>
        <time>2021-08-09T10:22:32Z</time>
      </trkpt>
      <trkpt lat="48.15214" lon="-3.01127">
        <ele>65.8</ele>
        <time>2021-08-09T10:22:33Z</time>
      </trkpt>
      <trkpt lat="48.15217" lon="-3.01131">
        <ele>65.8</ele>
        <time>2021-08-09T10:22:34Z</time>
      </trkpt>
      <trkpt lat="48.15223" lon="-3.01137">
        <ele>65.8</ele>
        <time>2021-08-09T10:22:36Z</time>
      </trkpt>
      <trkpt lat="48.15227" lon="-3.01139">
        <ele>65.8</ele>
        <time>2021-08-09T10:22:37Z</time>
      </trkpt>
      <trkpt lat="48.1523" lon="-3.01142">
        <ele>65.8</ele>
        <time>2021-08-09T10:22:38Z</time>
      </trkpt>
      <trkpt lat="48.15234" lon="-3.01144">
        <ele>65.8</ele>
        <time>2021-08-09T10:22:39Z</time>
      </trkpt>
      <trkpt lat="48.15238" lon="-3.01146">
        <ele>65.8</ele>
        <time>2021-08-09T10:22:40Z</time>
      </trkpt>
      <trkpt lat="48.15242" lon="-3.01148">
        <ele>65.8</ele>
        <time>2021-08-09T10:22:41Z</time>
      </trkpt>
      <trkpt lat="48.15245" lon="-3.0115">
        <ele>65.8</ele>
        <time>2021-08-09T10:22:42Z</time>
      </trkpt>
      <trkpt lat="48.15249" lon="-3.01153">
        <ele>65.8</ele>
        <time>2021-08-09T10:22:43Z</time>
      </trkpt>
      <trkpt lat="48.15253" lon="-3.01156">
        <ele>65.8</ele>
        <time>2021-08-09T10:22:44Z</time>
      </trkpt>
      <trkpt lat="48.15257" lon="-3.0116">
        <ele>65.8</ele>
        <time>2021-08-09T10:22:45Z</time>
      </trkpt>
      <trkpt lat="48.15266" lon="-3.01166">
        <ele>65.8</ele>
        <time>2021-08-09T10:22:47Z</time>
      </trkpt>
      <trkpt lat="48.15271" lon="-3.01169">
        <ele>65.8</ele>
        <time>2021-08-09T10:22:48Z</time>
      </trkpt>
      <trkpt lat="48.15276" lon="-3.01172">
        <ele>65.8</ele>
        <time>2021-08-09T10:22:49Z</time>
      </trkpt>
      <trkpt lat="48.1528" lon="-3.01174">
        <ele>65.8</ele>
        <time>2021-08-09T10:22:50Z</time>
      </trkpt>
      <trkpt lat="48.15284" lon="-3.01176">
        <ele>66</ele>
        <time>2021-08-09T10:22:51Z</time>
      </trkpt>
      <trkpt lat="48.15288" lon="-3.01177">
        <ele>66</ele>
        <time>2021-08-09T10:22:52Z</time>
      </trkpt>
      <trkpt lat="48.15291" lon="-3.01179">
        <ele>66</ele>
        <time>2021-08-09T10:22:53Z</time>
      </trkpt>
      <trkpt lat="48.15295" lon="-3.0118">
        <ele>66</ele>
        <time>2021-08-09T10:22:54Z</time>
      </trkpt>
      <trkpt lat="48.15299" lon="-3.01181">
        <ele>66</ele>
        <time>2021-08-09T10:22:55Z</time>
      </trkpt>
      <trkpt lat="48.15303" lon="-3.01182">
        <ele>66.2</ele>
        <time>2021-08-09T10:22:56Z</time>
      </trkpt>
      <trkpt lat="48.15307" lon="-3.01183">
        <ele>66.2</ele>
        <time>2021-08-09T10:22:57Z</time>
      </trkpt>
      <trkpt lat="48.15311" lon="-3.01184">
        <ele>66.2</ele>
        <time>2021-08-09T10:22:58Z</time>
      </trkpt>
      <trkpt lat="48.15316" lon="-3.01184">
        <ele>66.4</ele>
        <time>2021-08-09T10:22:59Z</time>
      </trkpt>
      <trkpt lat="48.1532" lon="-3.01184">
        <ele>66.4</ele>
        <time>2021-08-09T10:23:00Z</time>
      </trkpt>
      <trkpt lat="48.15324" lon="-3.01184">
        <ele>66.4</ele>
        <time>2021-08-09T10:23:01Z</time>
      </trkpt>
      <trkpt lat="48.15328" lon="-3.01183">
        <ele>66.4</ele>
        <time>2021-08-09T10:23:02Z</time>
      </trkpt>
      <trkpt lat="48.15332" lon="-3.01183">
        <ele>66.4</ele>
        <time>2021-08-09T10:23:03Z</time>
      </trkpt>
      <trkpt lat="48.15336" lon="-3.01182">
        <ele>66.4</ele>
        <time>2021-08-09T10:23:04Z</time>
      </trkpt>
      <trkpt lat="48.1534" lon="-3.01181">
        <ele>66.6</ele>
        <time>2021-08-09T10:23:05Z</time>
      </trkpt>
      <trkpt lat="48.15343" lon="-3.01181">
        <ele>66.6</ele>
        <time>2021-08-09T10:23:06Z</time>
      </trkpt>
      <trkpt lat="48.15347" lon="-3.0118">
        <ele>66.6</ele>
        <time>2021-08-09T10:23:07Z</time>
      </trkpt>
      <trkpt lat="48.15355" lon="-3.01179">
        <ele>66.6</ele>
        <time>2021-08-09T10:23:09Z</time>
      </trkpt>
      <trkpt lat="48.15358" lon="-3.01178">
        <ele>66.6</ele>
        <time>2021-08-09T10:23:10Z</time>
      </trkpt>
      <trkpt lat="48.15362" lon="-3.01177">
        <ele>66.6</ele>
        <time>2021-08-09T10:23:11Z</time>
      </trkpt>
      <trkpt lat="48.15365" lon="-3.01175">
        <ele>66.6</ele>
        <time>2021-08-09T10:23:12Z</time>
      </trkpt>
      <trkpt lat="48.15369" lon="-3.01174">
        <ele>66.8</ele>
        <time>2021-08-09T10:23:13Z</time>
      </trkpt>
      <trkpt lat="48.15373" lon="-3.01171">
        <ele>66.8</ele>
        <time>2021-08-09T10:23:14Z</time>
      </trkpt>
      <trkpt lat="48.15377" lon="-3.01168">
        <ele>66.8</ele>
        <time>2021-08-09T10:23:15Z</time>
      </trkpt>
      <trkpt lat="48.15381" lon="-3.01165">
        <ele>66.8</ele>
        <time>2021-08-09T10:23:16Z</time>
      </trkpt>
      <trkpt lat="48.15385" lon="-3.01163">
        <ele>66.8</ele>
        <time>2021-08-09T10:23:17Z</time>
      </trkpt>
      <trkpt lat="48.15388" lon="-3.0116">
        <ele>66.8</ele>
        <time>2021-08-09T10:23:18Z</time>
      </trkpt>
      <trkpt lat="48.15395" lon="-3.01154">
        <ele>66.8</ele>
        <time>2021-08-09T10:23:20Z</time>
      </trkpt>
      <trkpt lat="48.15398" lon="-3.01151">
        <ele>66.8</ele>
        <time>2021-08-09T10:23:21Z</time>
      </trkpt>
      <trkpt lat="48.15402" lon="-3.01149">
        <ele>67</ele>
        <time>2021-08-09T10:23:22Z</time>
      </trkpt>
      <trkpt lat="48.15405" lon="-3.01146">
        <ele>67</ele>
        <time>2021-08-09T10:23:23Z</time>
      </trkpt>
      <trkpt lat="48.15408" lon="-3.01143">
        <ele>67</ele>
        <time>2021-08-09T10:23:24Z</time>
      </trkpt>
      <trkpt lat="48.15411" lon="-3.01141">
        <ele>67</ele>
        <time>2021-08-09T10:23:25Z</time>
      </trkpt>
      <trkpt lat="48.15415" lon="-3.01138">
        <ele>67</ele>
        <time>2021-08-09T10:23:26Z</time>
      </trkpt>
      <trkpt lat="48.15418" lon="-3.01135">
        <ele>67</ele>
        <time>2021-08-09T10:23:27Z</time>
      </trkpt>
      <trkpt lat="48.15421" lon="-3.01132">
        <ele>67</ele>
        <time>2021-08-09T10:23:28Z</time>
      </trkpt>
      <trkpt lat="48.15425" lon="-3.01128">
        <ele>67</ele>
        <time>2021-08-09T10:23:29Z</time>
      </trkpt>
      <trkpt lat="48.15432" lon="-3.01123">
        <ele>67</ele>
        <time>2021-08-09T10:23:31Z</time>
      </trkpt>
      <trkpt lat="48.15436" lon="-3.0112">
        <ele>67.2</ele>
        <time>2021-08-09T10:23:32Z</time>
      </trkpt>
      <trkpt lat="48.15439" lon="-3.01118">
        <ele>67.2</ele>
        <time>2021-08-09T10:23:33Z</time>
      </trkpt>
      <trkpt lat="48.15443" lon="-3.01116">
        <ele>67.2</ele>
        <time>2021-08-09T10:23:34Z</time>
      </trkpt>
      <trkpt lat="48.15446" lon="-3.01113">
        <ele>67.2</ele>
        <time>2021-08-09T10:23:35Z</time>
      </trkpt>
      <trkpt lat="48.15449" lon="-3.01111">
        <ele>67.2</ele>
        <time>2021-08-09T10:23:36Z</time>
      </trkpt>
      <trkpt lat="48.15453" lon="-3.01109">
        <ele>67.2</ele>
        <time>2021-08-09T10:23:37Z</time>
      </trkpt>
      <trkpt lat="48.15457" lon="-3.01107">
        <ele>67.4</ele>
        <time>2021-08-09T10:23:38Z</time>
      </trkpt>
      <trkpt lat="48.1546" lon="-3.01105">
        <ele>67.4</ele>
        <time>2021-08-09T10:23:39Z</time>
      </trkpt>
      <trkpt lat="48.15464" lon="-3.01103">
        <ele>67.4</ele>
        <time>2021-08-09T10:23:40Z</time>
      </trkpt>
      <trkpt lat="48.15473" lon="-3.01101">
        <ele>67.6</ele>
        <time>2021-08-09T10:23:42Z</time>
      </trkpt>
      <trkpt lat="48.15477" lon="-3.011">
        <ele>67.6</ele>
        <time>2021-08-09T10:23:43Z</time>
      </trkpt>
      <trkpt lat="48.15482" lon="-3.01099">
        <ele>67.6</ele>
        <time>2021-08-09T10:23:44Z</time>
      </trkpt>
      <trkpt lat="48.15487" lon="-3.01099">
        <ele>67.6</ele>
        <time>2021-08-09T10:23:45Z</time>
      </trkpt>
      <trkpt lat="48.15491" lon="-3.01098">
        <ele>67.6</ele>
        <time>2021-08-09T10:23:46Z</time>
      </trkpt>
      <trkpt lat="48.15495" lon="-3.01098">
        <ele>67.6</ele>
        <time>2021-08-09T10:23:47Z</time>
      </trkpt>
      <trkpt lat="48.15499" lon="-3.01097">
        <ele>67.6</ele>
        <time>2021-08-09T10:23:48Z</time>
      </trkpt>
      <trkpt lat="48.15504" lon="-3.01097">
        <ele>67.6</ele>
        <time>2021-08-09T10:23:49Z</time>
      </trkpt>
      <trkpt lat="48.15508" lon="-3.01097">
        <ele>67.6</ele>
        <time>2021-08-09T10:23:50Z</time>
      </trkpt>
      <trkpt lat="48.15511" lon="-3.01097">
        <ele>67.8</ele>
        <time>2021-08-09T10:23:51Z</time>
      </trkpt>
      <trkpt lat="48.15519" lon="-3.01097">
        <ele>67.8</ele>
        <time>2021-08-09T10:23:53Z</time>
      </trkpt>
      <trkpt lat="48.15523" lon="-3.01097">
        <ele>67.8</ele>
        <time>2021-08-09T10:23:54Z</time>
      </trkpt>
      <trkpt lat="48.15526" lon="-3.01097">
        <ele>67.8</ele>
        <time>2021-08-09T10:23:55Z</time>
      </trkpt>
      <trkpt lat="48.15529" lon="-3.01096">
        <ele>67.8</ele>
        <time>2021-08-09T10:23:56Z</time>
      </trkpt>
      <trkpt lat="48.15532" lon="-3.01096">
        <ele>67.8</ele>
        <time>2021-08-09T10:23:57Z</time>
      </trkpt>
      <trkpt lat="48.15536" lon="-3.01096">
        <ele>67.8</ele>
        <time>2021-08-09T10:23:58Z</time>
      </trkpt>
      <trkpt lat="48.15539" lon="-3.01096">
        <ele>67.8</ele>
        <time>2021-08-09T10:23:59Z</time>
      </trkpt>
      <trkpt lat="48.15543" lon="-3.01095">
        <ele>68</ele>
        <time>2021-08-09T10:24:00Z</time>
      </trkpt>
      <trkpt lat="48.15547" lon="-3.01095">
        <ele>68</ele>
        <time>2021-08-09T10:24:01Z</time>
      </trkpt>
      <trkpt lat="48.15551" lon="-3.01095">
        <ele>68.2</ele>
        <time>2021-08-09T10:24:02Z</time>
      </trkpt>
      <trkpt lat="48.1556" lon="-3.01094">
        <ele>68.2</ele>
        <time>2021-08-09T10:24:04Z</time>
      </trkpt>
      <trkpt lat="48.15564" lon="-3.01094">
        <ele>68.2</ele>
        <time>2021-08-09T10:24:05Z</time>
      </trkpt>
      <trkpt lat="48.15569" lon="-3.01094">
        <ele>68.2</ele>
        <time>2021-08-09T10:24:06Z</time>
      </trkpt>
      <trkpt lat="48.15573" lon="-3.01093">
        <ele>68.4</ele>
        <time>2021-08-09T10:24:07Z</time>
      </trkpt>
      <trkpt lat="48.15578" lon="-3.01093">
        <ele>68.4</ele>
        <time>2021-08-09T10:24:08Z</time>
      </trkpt>
      <trkpt lat="48.15582" lon="-3.01093">
        <ele>68.4</ele>
        <time>2021-08-09T10:24:09Z</time>
      </trkpt>
      <trkpt lat="48.15587" lon="-3.01093">
        <ele>68.4</ele>
        <time>2021-08-09T10:24:10Z</time>
      </trkpt>
      <trkpt lat="48.15592" lon="-3.01093">
        <ele>68.4</ele>
        <time>2021-08-09T10:24:11Z</time>
      </trkpt>
      <trkpt lat="48.15597" lon="-3.01094">
        <ele>68.4</ele>
        <time>2021-08-09T10:24:12Z</time>
      </trkpt>
      <trkpt lat="48.15602" lon="-3.01094">
        <ele>68.4</ele>
        <time>2021-08-09T10:24:13Z</time>
      </trkpt>
      <trkpt lat="48.15612" lon="-3.01095">
        <ele>68.4</ele>
        <time>2021-08-09T10:24:15Z</time>
      </trkpt>
      <trkpt lat="48.15617" lon="-3.01095">
        <ele>68.2</ele>
        <time>2021-08-09T10:24:16Z</time>
      </trkpt>
      <trkpt lat="48.15622" lon="-3.01095">
        <ele>68.2</ele>
        <time>2021-08-09T10:24:17Z</time>
      </trkpt>
      <trkpt lat="48.15627" lon="-3.01095">
        <ele>68</ele>
        <time>2021-08-09T10:24:18Z</time>
      </trkpt>
      <trkpt lat="48.15631" lon="-3.01095">
        <ele>68</ele>
        <time>2021-08-09T10:24:19Z</time>
      </trkpt>
      <trkpt lat="48.15636" lon="-3.01096">
        <ele>68</ele>
        <time>2021-08-09T10:24:20Z</time>
      </trkpt>
      <trkpt lat="48.15641" lon="-3.01096">
        <ele>68</ele>
        <time>2021-08-09T10:24:21Z</time>
      </trkpt>
      <trkpt lat="48.15646" lon="-3.01096">
        <ele>68</ele>
        <time>2021-08-09T10:24:22Z</time>
      </trkpt>
      <trkpt lat="48.15651" lon="-3.01095">
        <ele>68</ele>
        <time>2021-08-09T10:24:23Z</time>
      </trkpt>
      <trkpt lat="48.15655" lon="-3.01095">
        <ele>68</ele>
        <time>2021-08-09T10:24:24Z</time>
      </trkpt>
      <trkpt lat="48.15665" lon="-3.01096">
        <ele>68</ele>
        <time>2021-08-09T10:24:26Z</time>
      </trkpt>
      <trkpt lat="48.15671" lon="-3.01096">
        <ele>67.8</ele>
        <time>2021-08-09T10:24:27Z</time>
      </trkpt>
      <trkpt lat="48.15676" lon="-3.01095">
        <ele>67.8</ele>
        <time>2021-08-09T10:24:28Z</time>
      </trkpt>
      <trkpt lat="48.15681" lon="-3.01095">
        <ele>67.8</ele>
        <time>2021-08-09T10:24:29Z</time>
      </trkpt>
      <trkpt lat="48.15686" lon="-3.01095">
        <ele>67.8</ele>
        <time>2021-08-09T10:24:30Z</time>
      </trkpt>
      <trkpt lat="48.15691" lon="-3.01094">
        <ele>67.8</ele>
        <time>2021-08-09T10:24:31Z</time>
      </trkpt>
      <trkpt lat="48.15696" lon="-3.01094">
        <ele>67.8</ele>
        <time>2021-08-09T10:24:32Z</time>
      </trkpt>
      <trkpt lat="48.15701" lon="-3.01094">
        <ele>68</ele>
        <time>2021-08-09T10:24:33Z</time>
      </trkpt>
      <trkpt lat="48.15705" lon="-3.01093">
        <ele>68</ele>
        <time>2021-08-09T10:24:34Z</time>
      </trkpt>
      <trkpt lat="48.15709" lon="-3.01093">
        <ele>68</ele>
        <time>2021-08-09T10:24:35Z</time>
      </trkpt>
      <trkpt lat="48.15718" lon="-3.01091">
        <ele>68</ele>
        <time>2021-08-09T10:24:37Z</time>
      </trkpt>
      <trkpt lat="48.15723" lon="-3.01091">
        <ele>68</ele>
        <time>2021-08-09T10:24:38Z</time>
      </trkpt>
      <trkpt lat="48.15728" lon="-3.0109">
        <ele>68</ele>
        <time>2021-08-09T10:24:39Z</time>
      </trkpt>
      <trkpt lat="48.15732" lon="-3.0109">
        <ele>68</ele>
        <time>2021-08-09T10:24:40Z</time>
      </trkpt>
      <trkpt lat="48.15737" lon="-3.01089">
        <ele>68</ele>
        <time>2021-08-09T10:24:41Z</time>
      </trkpt>
      <trkpt lat="48.15741" lon="-3.01089">
        <ele>67.8</ele>
        <time>2021-08-09T10:24:42Z</time>
      </trkpt>
      <trkpt lat="48.15745" lon="-3.01088">
        <ele>67.8</ele>
        <time>2021-08-09T10:24:43Z</time>
      </trkpt>
      <trkpt lat="48.15749" lon="-3.01088">
        <ele>67.8</ele>
        <time>2021-08-09T10:24:44Z</time>
      </trkpt>
      <trkpt lat="48.15754" lon="-3.01087">
        <ele>67.8</ele>
        <time>2021-08-09T10:24:45Z</time>
      </trkpt>
      <trkpt lat="48.15758" lon="-3.01086">
        <ele>67.8</ele>
        <time>2021-08-09T10:24:46Z</time>
      </trkpt>
      <trkpt lat="48.15765" lon="-3.01085">
        <ele>67.8</ele>
        <time>2021-08-09T10:24:48Z</time>
      </trkpt>
      <trkpt lat="48.15768" lon="-3.01084">
        <ele>67.8</ele>
        <time>2021-08-09T10:24:49Z</time>
      </trkpt>
      <trkpt lat="48.15772" lon="-3.01083">
        <ele>67.8</ele>
        <time>2021-08-09T10:24:50Z</time>
      </trkpt>
      <trkpt lat="48.15776" lon="-3.01083">
        <ele>67.8</ele>
        <time>2021-08-09T10:24:51Z</time>
      </trkpt>
      <trkpt lat="48.15779" lon="-3.01082">
        <ele>68</ele>
        <time>2021-08-09T10:24:52Z</time>
      </trkpt>
      <trkpt lat="48.15783" lon="-3.01081">
        <ele>68</ele>
        <time>2021-08-09T10:24:53Z</time>
      </trkpt>
      <trkpt lat="48.15788" lon="-3.01079">
        <ele>68</ele>
        <time>2021-08-09T10:24:54Z</time>
      </trkpt>
      <trkpt lat="48.15792" lon="-3.01078">
        <ele>68</ele>
        <time>2021-08-09T10:24:55Z</time>
      </trkpt>
      <trkpt lat="48.15796" lon="-3.01077">
        <ele>68</ele>
        <time>2021-08-09T10:24:56Z</time>
      </trkpt>
      <trkpt lat="48.15801" lon="-3.01076">
        <ele>68</ele>
        <time>2021-08-09T10:24:57Z</time>
      </trkpt>
      <trkpt lat="48.15809" lon="-3.01074">
        <ele>68</ele>
        <time>2021-08-09T10:24:59Z</time>
      </trkpt>
      <trkpt lat="48.15813" lon="-3.01073">
        <ele>68</ele>
        <time>2021-08-09T10:25:00Z</time>
      </trkpt>
      <trkpt lat="48.15818" lon="-3.01072">
        <ele>68</ele>
        <time>2021-08-09T10:25:01Z</time>
      </trkpt>
      <trkpt lat="48.15822" lon="-3.01071">
        <ele>68</ele>
        <time>2021-08-09T10:25:02Z</time>
      </trkpt>
      <trkpt lat="48.15827" lon="-3.0107">
        <ele>68</ele>
        <time>2021-08-09T10:25:03Z</time>
      </trkpt>
      <trkpt lat="48.15832" lon="-3.01069">
        <ele>68</ele>
        <time>2021-08-09T10:25:04Z</time>
      </trkpt>
      <trkpt lat="48.15838" lon="-3.01067">
        <ele>68</ele>
        <time>2021-08-09T10:25:05Z</time>
      </trkpt>
      <trkpt lat="48.15844" lon="-3.01066">
        <ele>68</ele>
        <time>2021-08-09T10:25:06Z</time>
      </trkpt>
      <trkpt lat="48.15849" lon="-3.01064">
        <ele>68</ele>
        <time>2021-08-09T10:25:07Z</time>
      </trkpt>
      <trkpt lat="48.15854" lon="-3.01062">
        <ele>68</ele>
        <time>2021-08-09T10:25:08Z</time>
      </trkpt>
      <trkpt lat="48.15865" lon="-3.01059">
        <ele>67.8</ele>
        <time>2021-08-09T10:25:10Z</time>
      </trkpt>
      <trkpt lat="48.1587" lon="-3.01057">
        <ele>67.8</ele>
        <time>2021-08-09T10:25:11Z</time>
      </trkpt>
      <trkpt lat="48.15874" lon="-3.01055">
        <ele>67.8</ele>
        <time>2021-08-09T10:25:12Z</time>
      </trkpt>
      <trkpt lat="48.15878" lon="-3.01053">
        <ele>67.8</ele>
        <time>2021-08-09T10:25:13Z</time>
      </trkpt>
      <trkpt lat="48.15882" lon="-3.0105">
        <ele>67.8</ele>
        <time>2021-08-09T10:25:14Z</time>
      </trkpt>
      <trkpt lat="48.15886" lon="-3.01048">
        <ele>67.8</ele>
        <time>2021-08-09T10:25:15Z</time>
      </trkpt>
      <trkpt lat="48.1589" lon="-3.01045">
        <ele>67.8</ele>
        <time>2021-08-09T10:25:16Z</time>
      </trkpt>
      <trkpt lat="48.15894" lon="-3.01043">
        <ele>67.8</ele>
        <time>2021-08-09T10:25:17Z</time>
      </trkpt>
      <trkpt lat="48.15898" lon="-3.01039">
        <ele>67.8</ele>
        <time>2021-08-09T10:25:18Z</time>
      </trkpt>
      <trkpt lat="48.15901" lon="-3.01036">
        <ele>67.8</ele>
        <time>2021-08-09T10:25:19Z</time>
      </trkpt>
      <trkpt lat="48.15907" lon="-3.01027">
        <ele>68</ele>
        <time>2021-08-09T10:25:21Z</time>
      </trkpt>
      <trkpt lat="48.1591" lon="-3.01022">
        <ele>68</ele>
        <time>2021-08-09T10:25:22Z</time>
      </trkpt>
      <trkpt lat="48.15912" lon="-3.01016">
        <ele>68</ele>
        <time>2021-08-09T10:25:23Z</time>
      </trkpt>
      <trkpt lat="48.15914" lon="-3.01011">
        <ele>68.2</ele>
        <time>2021-08-09T10:25:24Z</time>
      </trkpt>
      <trkpt lat="48.15917" lon="-3.01005">
        <ele>68.2</ele>
        <time>2021-08-09T10:25:25Z</time>
      </trkpt>
      <trkpt lat="48.15918" lon="-3.00999">
        <ele>68.2</ele>
        <time>2021-08-09T10:25:26Z</time>
      </trkpt>
      <trkpt lat="48.1592" lon="-3.00992">
        <ele>68.2</ele>
        <time>2021-08-09T10:25:27Z</time>
      </trkpt>
      <trkpt lat="48.15921" lon="-3.00985">
        <ele>68.2</ele>
        <time>2021-08-09T10:25:28Z</time>
      </trkpt>
      <trkpt lat="48.15921" lon="-3.00979">
        <ele>68.2</ele>
        <time>2021-08-09T10:25:29Z</time>
      </trkpt>
      <trkpt lat="48.15922" lon="-3.00972">
        <ele>68.2</ele>
        <time>2021-08-09T10:25:30Z</time>
      </trkpt>
      <trkpt lat="48.15922" lon="-3.00966">
        <ele>68.2</ele>
        <time>2021-08-09T10:25:31Z</time>
      </trkpt>
      <trkpt lat="48.15923" lon="-3.0096">
        <ele>68.2</ele>
        <time>2021-08-09T10:25:32Z</time>
      </trkpt>
      <trkpt lat="48.15924" lon="-3.00953">
        <ele>68.2</ele>
        <time>2021-08-09T10:25:33Z</time>
      </trkpt>
      <trkpt lat="48.15924" lon="-3.00947">
        <ele>68.2</ele>
        <time>2021-08-09T10:25:34Z</time>
      </trkpt>
      <trkpt lat="48.15924" lon="-3.00941">
        <ele>68.2</ele>
        <time>2021-08-09T10:25:35Z</time>
      </trkpt>
      <trkpt lat="48.15925" lon="-3.00934">
        <ele>68.2</ele>
        <time>2021-08-09T10:25:36Z</time>
      </trkpt>
      <trkpt lat="48.15925" lon="-3.00928">
        <ele>68.2</ele>
        <time>2021-08-09T10:25:37Z</time>
      </trkpt>
      <trkpt lat="48.15926" lon="-3.00922">
        <ele>68</ele>
        <time>2021-08-09T10:25:38Z</time>
      </trkpt>
      <trkpt lat="48.15926" lon="-3.00915">
        <ele>68</ele>
        <time>2021-08-09T10:25:39Z</time>
      </trkpt>
      <trkpt lat="48.15926" lon="-3.00908">
        <ele>68</ele>
        <time>2021-08-09T10:25:40Z</time>
      </trkpt>
      <trkpt lat="48.15927" lon="-3.00901">
        <ele>68</ele>
        <time>2021-08-09T10:25:41Z</time>
      </trkpt>
      <trkpt lat="48.15927" lon="-3.00895">
        <ele>68</ele>
        <time>2021-08-09T10:25:42Z</time>
      </trkpt>
      <trkpt lat="48.15928" lon="-3.0089">
        <ele>68</ele>
        <time>2021-08-09T10:25:43Z</time>
      </trkpt>
      <trkpt lat="48.15929" lon="-3.00885">
        <ele>68</ele>
        <time>2021-08-09T10:25:44Z</time>
      </trkpt>
      <trkpt lat="48.1593" lon="-3.0088">
        <ele>68</ele>
        <time>2021-08-09T10:25:45Z</time>
      </trkpt>
      <trkpt lat="48.1593" lon="-3.00874">
        <ele>68</ele>
        <time>2021-08-09T10:25:46Z</time>
      </trkpt>
      <trkpt lat="48.15931" lon="-3.00868">
        <ele>68</ele>
        <time>2021-08-09T10:25:47Z</time>
      </trkpt>
      <trkpt lat="48.15931" lon="-3.00861">
        <ele>68</ele>
        <time>2021-08-09T10:25:48Z</time>
      </trkpt>
      <trkpt lat="48.15931" lon="-3.00854">
        <ele>68</ele>
        <time>2021-08-09T10:25:49Z</time>
      </trkpt>
      <trkpt lat="48.15931" lon="-3.00848">
        <ele>68</ele>
        <time>2021-08-09T10:25:50Z</time>
      </trkpt>
      <trkpt lat="48.15931" lon="-3.00841">
        <ele>68</ele>
        <time>2021-08-09T10:25:51Z</time>
      </trkpt>
      <trkpt lat="48.15931" lon="-3.00834">
        <ele>68</ele>
        <time>2021-08-09T10:25:52Z</time>
      </trkpt>
      <trkpt lat="48.15931" lon="-3.00821">
        <ele>68</ele>
        <time>2021-08-09T10:25:54Z</time>
      </trkpt>
      <trkpt lat="48.15931" lon="-3.00814">
        <ele>68</ele>
        <time>2021-08-09T10:25:55Z</time>
      </trkpt>
      <trkpt lat="48.15931" lon="-3.00807">
        <ele>68</ele>
        <time>2021-08-09T10:25:56Z</time>
      </trkpt>
      <trkpt lat="48.15931" lon="-3.008">
        <ele>68</ele>
        <time>2021-08-09T10:25:57Z</time>
      </trkpt>
      <trkpt lat="48.15931" lon="-3.00793">
        <ele>68</ele>
        <time>2021-08-09T10:25:58Z</time>
      </trkpt>
      <trkpt lat="48.15931" lon="-3.00786">
        <ele>68</ele>
        <time>2021-08-09T10:25:59Z</time>
      </trkpt>
      <trkpt lat="48.15931" lon="-3.00779">
        <ele>68</ele>
        <time>2021-08-09T10:26:00Z</time>
      </trkpt>
      <trkpt lat="48.15931" lon="-3.00773">
        <ele>68.2</ele>
        <time>2021-08-09T10:26:01Z</time>
      </trkpt>
      <trkpt lat="48.15931" lon="-3.00766">
        <ele>68.2</ele>
        <time>2021-08-09T10:26:02Z</time>
      </trkpt>
      <trkpt lat="48.15931" lon="-3.0076">
        <ele>68.2</ele>
        <time>2021-08-09T10:26:03Z</time>
      </trkpt>
      <trkpt lat="48.15931" lon="-3.00747">
        <ele>68.2</ele>
        <time>2021-08-09T10:26:05Z</time>
      </trkpt>
      <trkpt lat="48.15931" lon="-3.00741">
        <ele>68.2</ele>
        <time>2021-08-09T10:26:06Z</time>
      </trkpt>
      <trkpt lat="48.1593" lon="-3.00735">
        <ele>68.2</ele>
        <time>2021-08-09T10:26:07Z</time>
      </trkpt>
      <trkpt lat="48.1593" lon="-3.00729">
        <ele>68.2</ele>
        <time>2021-08-09T10:26:08Z</time>
      </trkpt>
      <trkpt lat="48.1593" lon="-3.00722">
        <ele>68.2</ele>
        <time>2021-08-09T10:26:09Z</time>
      </trkpt>
      <trkpt lat="48.1593" lon="-3.00716">
        <ele>68.2</ele>
        <time>2021-08-09T10:26:10Z</time>
      </trkpt>
      <trkpt lat="48.15929" lon="-3.00709">
        <ele>68.4</ele>
        <time>2021-08-09T10:26:11Z</time>
      </trkpt>
      <trkpt lat="48.15928" lon="-3.00703">
        <ele>68.4</ele>
        <time>2021-08-09T10:26:12Z</time>
      </trkpt>
      <trkpt lat="48.15928" lon="-3.00697">
        <ele>68.4</ele>
        <time>2021-08-09T10:26:13Z</time>
      </trkpt>
      <trkpt lat="48.15928" lon="-3.00691">
        <ele>68.4</ele>
        <time>2021-08-09T10:26:14Z</time>
      </trkpt>
      <trkpt lat="48.15927" lon="-3.00679">
        <ele>68.4</ele>
        <time>2021-08-09T10:26:16Z</time>
      </trkpt>
      <trkpt lat="48.15927" lon="-3.00674">
        <ele>68.4</ele>
        <time>2021-08-09T10:26:17Z</time>
      </trkpt>
      <trkpt lat="48.15927" lon="-3.00669">
        <ele>68.4</ele>
        <time>2021-08-09T10:26:18Z</time>
      </trkpt>
      <trkpt lat="48.15927" lon="-3.00665">
        <ele>68.4</ele>
        <time>2021-08-09T10:26:19Z</time>
      </trkpt>
      <trkpt lat="48.15927" lon="-3.0066">
        <ele>68.6</ele>
        <time>2021-08-09T10:26:20Z</time>
      </trkpt>
      <trkpt lat="48.15927" lon="-3.00655">
        <ele>68.6</ele>
        <time>2021-08-09T10:26:21Z</time>
      </trkpt>
      <trkpt lat="48.15926" lon="-3.0065">
        <ele>68.6</ele>
        <time>2021-08-09T10:26:22Z</time>
      </trkpt>
      <trkpt lat="48.15925" lon="-3.00645">
        <ele>68.6</ele>
        <time>2021-08-09T10:26:23Z</time>
      </trkpt>
      <trkpt lat="48.15924" lon="-3.00639">
        <ele>68.6</ele>
        <time>2021-08-09T10:26:24Z</time>
      </trkpt>
      <trkpt lat="48.15922" lon="-3.00633">
        <ele>68.6</ele>
        <time>2021-08-09T10:26:25Z</time>
      </trkpt>
      <trkpt lat="48.1592" lon="-3.00622">
        <ele>68.6</ele>
        <time>2021-08-09T10:26:27Z</time>
      </trkpt>
      <trkpt lat="48.15918" lon="-3.00616">
        <ele>68.4</ele>
        <time>2021-08-09T10:26:28Z</time>
      </trkpt>
      <trkpt lat="48.15917" lon="-3.00609">
        <ele>68.4</ele>
        <time>2021-08-09T10:26:29Z</time>
      </trkpt>
      <trkpt lat="48.15915" lon="-3.00603">
        <ele>68.4</ele>
        <time>2021-08-09T10:26:30Z</time>
      </trkpt>
      <trkpt lat="48.15913" lon="-3.00596">
        <ele>68.4</ele>
        <time>2021-08-09T10:26:31Z</time>
      </trkpt>
      <trkpt lat="48.15911" lon="-3.0059">
        <ele>68.4</ele>
        <time>2021-08-09T10:26:32Z</time>
      </trkpt>
      <trkpt lat="48.1591" lon="-3.00583">
        <ele>68.4</ele>
        <time>2021-08-09T10:26:33Z</time>
      </trkpt>
      <trkpt lat="48.15908" lon="-3.00576">
        <ele>68.2</ele>
        <time>2021-08-09T10:26:34Z</time>
      </trkpt>
      <trkpt lat="48.15906" lon="-3.0057">
        <ele>68.2</ele>
        <time>2021-08-09T10:26:35Z</time>
      </trkpt>
      <trkpt lat="48.15904" lon="-3.00564">
        <ele>68.2</ele>
        <time>2021-08-09T10:26:36Z</time>
      </trkpt>
      <trkpt lat="48.159" lon="-3.00552">
        <ele>68.2</ele>
        <time>2021-08-09T10:26:38Z</time>
      </trkpt>
      <trkpt lat="48.15899" lon="-3.00546">
        <ele>68.2</ele>
        <time>2021-08-09T10:26:39Z</time>
      </trkpt>
      <trkpt lat="48.15897" lon="-3.0054">
        <ele>68</ele>
        <time>2021-08-09T10:26:40Z</time>
      </trkpt>
      <trkpt lat="48.15895" lon="-3.00534">
        <ele>68</ele>
        <time>2021-08-09T10:26:41Z</time>
      </trkpt>
      <trkpt lat="48.15893" lon="-3.0053">
        <ele>68</ele>
        <time>2021-08-09T10:26:42Z</time>
      </trkpt>
      <trkpt lat="48.15892" lon="-3.00524">
        <ele>68</ele>
        <time>2021-08-09T10:26:43Z</time>
      </trkpt>
      <trkpt lat="48.1589" lon="-3.0052">
        <ele>68</ele>
        <time>2021-08-09T10:26:44Z</time>
      </trkpt>
      <trkpt lat="48.15889" lon="-3.00515">
        <ele>68</ele>
        <time>2021-08-09T10:26:45Z</time>
      </trkpt>
      <trkpt lat="48.15888" lon="-3.00511">
        <ele>68.2</ele>
        <time>2021-08-09T10:26:46Z</time>
      </trkpt>
      <trkpt lat="48.15885" lon="-3.00503">
        <ele>68.2</ele>
        <time>2021-08-09T10:26:48Z</time>
      </trkpt>
      <trkpt lat="48.15884" lon="-3.00499">
        <ele>68.2</ele>
        <time>2021-08-09T10:26:49Z</time>
      </trkpt>
      <trkpt lat="48.15883" lon="-3.00494">
        <ele>68.2</ele>
        <time>2021-08-09T10:26:50Z</time>
      </trkpt>
      <trkpt lat="48.15882" lon="-3.0049">
        <ele>68.4</ele>
        <time>2021-08-09T10:26:51Z</time>
      </trkpt>
      <trkpt lat="48.1588" lon="-3.00485">
        <ele>68.4</ele>
        <time>2021-08-09T10:26:52Z</time>
      </trkpt>
      <trkpt lat="48.15879" lon="-3.0048">
        <ele>68.6</ele>
        <time>2021-08-09T10:26:53Z</time>
      </trkpt>
      <trkpt lat="48.15877" lon="-3.00475">
        <ele>68.6</ele>
        <time>2021-08-09T10:26:54Z</time>
      </trkpt>
      <trkpt lat="48.15876" lon="-3.0047">
        <ele>68.6</ele>
        <time>2021-08-09T10:26:55Z</time>
      </trkpt>
      <trkpt lat="48.15874" lon="-3.00464">
        <ele>68.6</ele>
        <time>2021-08-09T10:26:56Z</time>
      </trkpt>
      <trkpt lat="48.15872" lon="-3.0046">
        <ele>68.6</ele>
        <time>2021-08-09T10:26:57Z</time>
      </trkpt>
      <trkpt lat="48.1587" lon="-3.00454">
        <ele>68.6</ele>
        <time>2021-08-09T10:26:58Z</time>
      </trkpt>
      <trkpt lat="48.15869" lon="-3.00449">
        <ele>68.6</ele>
        <time>2021-08-09T10:26:59Z</time>
      </trkpt>
      <trkpt lat="48.15867" lon="-3.00443">
        <ele>68.6</ele>
        <time>2021-08-09T10:27:00Z</time>
      </trkpt>
      <trkpt lat="48.15865" lon="-3.00437">
        <ele>68.8</ele>
        <time>2021-08-09T10:27:01Z</time>
      </trkpt>
      <trkpt lat="48.15863" lon="-3.00431">
        <ele>68.8</ele>
        <time>2021-08-09T10:27:02Z</time>
      </trkpt>
      <trkpt lat="48.15861" lon="-3.00426">
        <ele>68.8</ele>
        <time>2021-08-09T10:27:03Z</time>
      </trkpt>
      <trkpt lat="48.1586" lon="-3.0042">
        <ele>68.8</ele>
        <time>2021-08-09T10:27:04Z</time>
      </trkpt>
      <trkpt lat="48.15858" lon="-3.00414">
        <ele>68.8</ele>
        <time>2021-08-09T10:27:05Z</time>
      </trkpt>
      <trkpt lat="48.15856" lon="-3.00408">
        <ele>68.8</ele>
        <time>2021-08-09T10:27:06Z</time>
      </trkpt>
      <trkpt lat="48.15854" lon="-3.00403">
        <ele>68.8</ele>
        <time>2021-08-09T10:27:07Z</time>
      </trkpt>
      <trkpt lat="48.15852" lon="-3.00398">
        <ele>69</ele>
        <time>2021-08-09T10:27:08Z</time>
      </trkpt>
      <trkpt lat="48.15849" lon="-3.00387">
        <ele>69</ele>
        <time>2021-08-09T10:27:10Z</time>
      </trkpt>
      <trkpt lat="48.15847" lon="-3.00381">
        <ele>69</ele>
        <time>2021-08-09T10:27:11Z</time>
      </trkpt>
      <trkpt lat="48.15845" lon="-3.00373">
        <ele>69</ele>
        <time>2021-08-09T10:27:12Z</time>
      </trkpt>
      <trkpt lat="48.15844" lon="-3.00366">
        <ele>69.2</ele>
        <time>2021-08-09T10:27:13Z</time>
      </trkpt>
      <trkpt lat="48.15843" lon="-3.00358">
        <ele>69.2</ele>
        <time>2021-08-09T10:27:14Z</time>
      </trkpt>
      <trkpt lat="48.15842" lon="-3.00351">
        <ele>69.2</ele>
        <time>2021-08-09T10:27:15Z</time>
      </trkpt>
      <trkpt lat="48.15841" lon="-3.00344">
        <ele>69.2</ele>
        <time>2021-08-09T10:27:16Z</time>
      </trkpt>
      <trkpt lat="48.1584" lon="-3.00337">
        <ele>69.2</ele>
        <time>2021-08-09T10:27:17Z</time>
      </trkpt>
      <trkpt lat="48.15839" lon="-3.00331">
        <ele>69.2</ele>
        <time>2021-08-09T10:27:18Z</time>
      </trkpt>
      <trkpt lat="48.15838" lon="-3.00324">
        <ele>69.2</ele>
        <time>2021-08-09T10:27:19Z</time>
      </trkpt>
      <trkpt lat="48.15836" lon="-3.00311">
        <ele>69.2</ele>
        <time>2021-08-09T10:27:21Z</time>
      </trkpt>
      <trkpt lat="48.15835" lon="-3.00304">
        <ele>69.2</ele>
        <time>2021-08-09T10:27:22Z</time>
      </trkpt>
      <trkpt lat="48.15835" lon="-3.00298">
        <ele>69.2</ele>
        <time>2021-08-09T10:27:23Z</time>
      </trkpt>
      <trkpt lat="48.15834" lon="-3.00292">
        <ele>69.2</ele>
        <time>2021-08-09T10:27:24Z</time>
      </trkpt>
      <trkpt lat="48.15834" lon="-3.00285">
        <ele>69.2</ele>
        <time>2021-08-09T10:27:25Z</time>
      </trkpt>
      <trkpt lat="48.15834" lon="-3.00278">
        <ele>69.2</ele>
        <time>2021-08-09T10:27:26Z</time>
      </trkpt>
      <trkpt lat="48.15833" lon="-3.00272">
        <ele>69</ele>
        <time>2021-08-09T10:27:27Z</time>
      </trkpt>
      <trkpt lat="48.15834" lon="-3.00266">
        <ele>69</ele>
        <time>2021-08-09T10:27:28Z</time>
      </trkpt>
      <trkpt lat="48.15834" lon="-3.00259">
        <ele>69</ele>
        <time>2021-08-09T10:27:29Z</time>
      </trkpt>
      <trkpt lat="48.15834" lon="-3.00252">
        <ele>69</ele>
        <time>2021-08-09T10:27:30Z</time>
      </trkpt>
      <trkpt lat="48.15835" lon="-3.00238">
        <ele>69</ele>
        <time>2021-08-09T10:27:32Z</time>
      </trkpt>
      <trkpt lat="48.15836" lon="-3.00231">
        <ele>68.8</ele>
        <time>2021-08-09T10:27:33Z</time>
      </trkpt>
      <trkpt lat="48.15837" lon="-3.00224">
        <ele>69</ele>
        <time>2021-08-09T10:27:34Z</time>
      </trkpt>
      <trkpt lat="48.15837" lon="-3.00218">
        <ele>69</ele>
        <time>2021-08-09T10:27:35Z</time>
      </trkpt>
      <trkpt lat="48.15838" lon="-3.00211">
        <ele>69</ele>
        <time>2021-08-09T10:27:36Z</time>
      </trkpt>
      <trkpt lat="48.15838" lon="-3.00205">
        <ele>69</ele>
        <time>2021-08-09T10:27:37Z</time>
      </trkpt>
      <trkpt lat="48.15839" lon="-3.00198">
        <ele>69</ele>
        <time>2021-08-09T10:27:38Z</time>
      </trkpt>
      <trkpt lat="48.15839" lon="-3.00192">
        <ele>69</ele>
        <time>2021-08-09T10:27:39Z</time>
      </trkpt>
      <trkpt lat="48.1584" lon="-3.00185">
        <ele>69</ele>
        <time>2021-08-09T10:27:40Z</time>
      </trkpt>
      <trkpt lat="48.15841" lon="-3.00179">
        <ele>69</ele>
        <time>2021-08-09T10:27:41Z</time>
      </trkpt>
      <trkpt lat="48.15841" lon="-3.00173">
        <ele>69</ele>
        <time>2021-08-09T10:27:42Z</time>
      </trkpt>
      <trkpt lat="48.15842" lon="-3.00167">
        <ele>69</ele>
        <time>2021-08-09T10:27:43Z</time>
      </trkpt>
      <trkpt lat="48.15843" lon="-3.00161">
        <ele>69</ele>
        <time>2021-08-09T10:27:44Z</time>
      </trkpt>
      <trkpt lat="48.15843" lon="-3.00154">
        <ele>69.2</ele>
        <time>2021-08-09T10:27:45Z</time>
      </trkpt>
      <trkpt lat="48.15844" lon="-3.00148">
        <ele>69.2</ele>
        <time>2021-08-09T10:27:46Z</time>
      </trkpt>
      <trkpt lat="48.15845" lon="-3.00142">
        <ele>69.4</ele>
        <time>2021-08-09T10:27:47Z</time>
      </trkpt>
      <trkpt lat="48.15846" lon="-3.00135">
        <ele>69.4</ele>
        <time>2021-08-09T10:27:48Z</time>
      </trkpt>
      <trkpt lat="48.15847" lon="-3.00129">
        <ele>69.4</ele>
        <time>2021-08-09T10:27:49Z</time>
      </trkpt>
      <trkpt lat="48.15849" lon="-3.00122">
        <ele>69.4</ele>
        <time>2021-08-09T10:27:50Z</time>
      </trkpt>
      <trkpt lat="48.1585" lon="-3.00116">
        <ele>69.4</ele>
        <time>2021-08-09T10:27:51Z</time>
      </trkpt>
      <trkpt lat="48.15852" lon="-3.00109">
        <ele>69.4</ele>
        <time>2021-08-09T10:27:52Z</time>
      </trkpt>
      <trkpt lat="48.15857" lon="-3.00098">
        <ele>69.4</ele>
        <time>2021-08-09T10:27:54Z</time>
      </trkpt>
      <trkpt lat="48.15859" lon="-3.00093">
        <ele>69.4</ele>
        <time>2021-08-09T10:27:55Z</time>
      </trkpt>
      <trkpt lat="48.15861" lon="-3.00088">
        <ele>69.4</ele>
        <time>2021-08-09T10:27:56Z</time>
      </trkpt>
      <trkpt lat="48.15863" lon="-3.00084">
        <ele>69.4</ele>
        <time>2021-08-09T10:27:57Z</time>
      </trkpt>
      <trkpt lat="48.15865" lon="-3.00079">
        <ele>69.4</ele>
        <time>2021-08-09T10:27:58Z</time>
      </trkpt>
      <trkpt lat="48.15867" lon="-3.00074">
        <ele>69.4</ele>
        <time>2021-08-09T10:27:59Z</time>
      </trkpt>
      <trkpt lat="48.1587" lon="-3.00069">
        <ele>69.2</ele>
        <time>2021-08-09T10:28:00Z</time>
      </trkpt>
      <trkpt lat="48.15872" lon="-3.00064">
        <ele>69.2</ele>
        <time>2021-08-09T10:28:01Z</time>
      </trkpt>
      <trkpt lat="48.15874" lon="-3.00059">
        <ele>69.2</ele>
        <time>2021-08-09T10:28:02Z</time>
      </trkpt>
      <trkpt lat="48.15877" lon="-3.00055">
        <ele>69.2</ele>
        <time>2021-08-09T10:28:03Z</time>
      </trkpt>
      <trkpt lat="48.15883" lon="-3.00045">
        <ele>69.2</ele>
        <time>2021-08-09T10:28:05Z</time>
      </trkpt>
      <trkpt lat="48.15886" lon="-3.00041">
        <ele>69.2</ele>
        <time>2021-08-09T10:28:06Z</time>
      </trkpt>
      <trkpt lat="48.15889" lon="-3.00036">
        <ele>69.2</ele>
        <time>2021-08-09T10:28:07Z</time>
      </trkpt>
      <trkpt lat="48.15892" lon="-3.00032">
        <ele>69</ele>
        <time>2021-08-09T10:28:08Z</time>
      </trkpt>
      <trkpt lat="48.15896" lon="-3.00029">
        <ele>69</ele>
        <time>2021-08-09T10:28:09Z</time>
      </trkpt>
      <trkpt lat="48.159" lon="-3.00026">
        <ele>69</ele>
        <time>2021-08-09T10:28:10Z</time>
      </trkpt>
      <trkpt lat="48.15905" lon="-3.00023">
        <ele>69</ele>
        <time>2021-08-09T10:28:11Z</time>
      </trkpt>
      <trkpt lat="48.15909" lon="-3.0002">
        <ele>69</ele>
        <time>2021-08-09T10:28:12Z</time>
      </trkpt>
      <trkpt lat="48.15912" lon="-3.00016">
        <ele>68.8</ele>
        <time>2021-08-09T10:28:13Z</time>
      </trkpt>
      <trkpt lat="48.15916" lon="-3.00013">
        <ele>69</ele>
        <time>2021-08-09T10:28:14Z</time>
      </trkpt>
      <trkpt lat="48.15924" lon="-3.00007">
        <ele>68.8</ele>
        <time>2021-08-09T10:28:16Z</time>
      </trkpt>
      <trkpt lat="48.15927" lon="-3.00005">
        <ele>68.8</ele>
        <time>2021-08-09T10:28:17Z</time>
      </trkpt>
      <trkpt lat="48.15932" lon="-3.00003">
        <ele>68.6</ele>
        <time>2021-08-09T10:28:18Z</time>
      </trkpt>
      <trkpt lat="48.15936" lon="-3.00001">
        <ele>68.4</ele>
        <time>2021-08-09T10:28:19Z</time>
      </trkpt>
      <trkpt lat="48.1594" lon="-2.99999">
        <ele>68.4</ele>
        <time>2021-08-09T10:28:20Z</time>
      </trkpt>
      <trkpt lat="48.15944" lon="-2.99998">
        <ele>68.4</ele>
        <time>2021-08-09T10:28:21Z</time>
      </trkpt>
      <trkpt lat="48.15947" lon="-2.99997">
        <ele>68.4</ele>
        <time>2021-08-09T10:28:22Z</time>
      </trkpt>
      <trkpt lat="48.15951" lon="-2.99995">
        <ele>68.2</ele>
        <time>2021-08-09T10:28:23Z</time>
      </trkpt>
      <trkpt lat="48.15958" lon="-2.99994">
        <ele>68.2</ele>
        <time>2021-08-09T10:28:25Z</time>
      </trkpt>
      <trkpt lat="48.15962" lon="-2.99993">
        <ele>68.2</ele>
        <time>2021-08-09T10:28:26Z</time>
      </trkpt>
      <trkpt lat="48.15965" lon="-2.99991">
        <ele>68.2</ele>
        <time>2021-08-09T10:28:27Z</time>
      </trkpt>
      <trkpt lat="48.15969" lon="-2.9999">
        <ele>68.2</ele>
        <time>2021-08-09T10:28:28Z</time>
      </trkpt>
      <trkpt lat="48.15973" lon="-2.99989">
        <ele>68.2</ele>
        <time>2021-08-09T10:28:29Z</time>
      </trkpt>
      <trkpt lat="48.15976" lon="-2.99988">
        <ele>68.2</ele>
        <time>2021-08-09T10:28:30Z</time>
      </trkpt>
      <trkpt lat="48.1598" lon="-2.99987">
        <ele>68.2</ele>
        <time>2021-08-09T10:28:31Z</time>
      </trkpt>
      <trkpt lat="48.15984" lon="-2.99986">
        <ele>68.4</ele>
        <time>2021-08-09T10:28:32Z</time>
      </trkpt>
      <trkpt lat="48.15988" lon="-2.99985">
        <ele>68.4</ele>
        <time>2021-08-09T10:28:33Z</time>
      </trkpt>
      <trkpt lat="48.15992" lon="-2.99984">
        <ele>68.4</ele>
        <time>2021-08-09T10:28:34Z</time>
      </trkpt>
      <trkpt lat="48.16" lon="-2.99982">
        <ele>68.4</ele>
        <time>2021-08-09T10:28:36Z</time>
      </trkpt>
      <trkpt lat="48.16004" lon="-2.99981">
        <ele>68.4</ele>
        <time>2021-08-09T10:28:37Z</time>
      </trkpt>
      <trkpt lat="48.16008" lon="-2.9998">
        <ele>68.4</ele>
        <time>2021-08-09T10:28:38Z</time>
      </trkpt>
      <trkpt lat="48.16011" lon="-2.99978">
        <ele>68.6</ele>
        <time>2021-08-09T10:28:39Z</time>
      </trkpt>
      <trkpt lat="48.16015" lon="-2.99977">
        <ele>68.6</ele>
        <time>2021-08-09T10:28:40Z</time>
      </trkpt>
      <trkpt lat="48.16019" lon="-2.99975">
        <ele>68.6</ele>
        <time>2021-08-09T10:28:41Z</time>
      </trkpt>
      <trkpt lat="48.16023" lon="-2.99973">
        <ele>68.6</ele>
        <time>2021-08-09T10:28:42Z</time>
      </trkpt>
      <trkpt lat="48.16028" lon="-2.99971">
        <ele>68.6</ele>
        <time>2021-08-09T10:28:43Z</time>
      </trkpt>
      <trkpt lat="48.16032" lon="-2.99969">
        <ele>68.6</ele>
        <time>2021-08-09T10:28:44Z</time>
      </trkpt>
      <trkpt lat="48.16037" lon="-2.99966">
        <ele>68.6</ele>
        <time>2021-08-09T10:28:45Z</time>
      </trkpt>
      <trkpt lat="48.16045" lon="-2.99961">
        <ele>68.8</ele>
        <time>2021-08-09T10:28:47Z</time>
      </trkpt>
      <trkpt lat="48.16049" lon="-2.99959">
        <ele>68.8</ele>
        <time>2021-08-09T10:28:48Z</time>
      </trkpt>
      <trkpt lat="48.16053" lon="-2.99957">
        <ele>68.8</ele>
        <time>2021-08-09T10:28:49Z</time>
      </trkpt>
      <trkpt lat="48.16057" lon="-2.99954">
        <ele>68.8</ele>
        <time>2021-08-09T10:28:50Z</time>
      </trkpt>
      <trkpt lat="48.16061" lon="-2.99951">
        <ele>68.8</ele>
        <time>2021-08-09T10:28:51Z</time>
      </trkpt>
      <trkpt lat="48.16065" lon="-2.99949">
        <ele>68.8</ele>
        <time>2021-08-09T10:28:52Z</time>
      </trkpt>
      <trkpt lat="48.16069" lon="-2.99946">
        <ele>68.8</ele>
        <time>2021-08-09T10:28:53Z</time>
      </trkpt>
      <trkpt lat="48.16073" lon="-2.99943">
        <ele>69</ele>
        <time>2021-08-09T10:28:54Z</time>
      </trkpt>
      <trkpt lat="48.16077" lon="-2.99941">
        <ele>69</ele>
        <time>2021-08-09T10:28:55Z</time>
      </trkpt>
      <trkpt lat="48.1608" lon="-2.99939">
        <ele>69</ele>
        <time>2021-08-09T10:28:56Z</time>
      </trkpt>
      <trkpt lat="48.16084" lon="-2.99937">
        <ele>69</ele>
        <time>2021-08-09T10:28:57Z</time>
      </trkpt>
      <trkpt lat="48.16089" lon="-2.99935">
        <ele>69</ele>
        <time>2021-08-09T10:28:58Z</time>
      </trkpt>
      <trkpt lat="48.16094" lon="-2.99933">
        <ele>69</ele>
        <time>2021-08-09T10:28:59Z</time>
      </trkpt>
      <trkpt lat="48.16098" lon="-2.99931">
        <ele>69.2</ele>
        <time>2021-08-09T10:29:00Z</time>
      </trkpt>
      <trkpt lat="48.16103" lon="-2.99928">
        <ele>69.2</ele>
        <time>2021-08-09T10:29:01Z</time>
      </trkpt>
      <trkpt lat="48.16107" lon="-2.99926">
        <ele>69.2</ele>
        <time>2021-08-09T10:29:02Z</time>
      </trkpt>
      <trkpt lat="48.16111" lon="-2.99924">
        <ele>69.2</ele>
        <time>2021-08-09T10:29:03Z</time>
      </trkpt>
      <trkpt lat="48.16115" lon="-2.99922">
        <ele>69.2</ele>
        <time>2021-08-09T10:29:04Z</time>
      </trkpt>
      <trkpt lat="48.1612" lon="-2.99919">
        <ele>69.2</ele>
        <time>2021-08-09T10:29:05Z</time>
      </trkpt>
      <trkpt lat="48.16123" lon="-2.99917">
        <ele>69.2</ele>
        <time>2021-08-09T10:29:06Z</time>
      </trkpt>
      <trkpt lat="48.16127" lon="-2.99914">
        <ele>69.2</ele>
        <time>2021-08-09T10:29:07Z</time>
      </trkpt>
      <trkpt lat="48.16133" lon="-2.9991">
        <ele>69.4</ele>
        <time>2021-08-09T10:29:09Z</time>
      </trkpt>
      <trkpt lat="48.16137" lon="-2.99908">
        <ele>69.4</ele>
        <time>2021-08-09T10:29:10Z</time>
      </trkpt>
      <trkpt lat="48.16141" lon="-2.99906">
        <ele>69.4</ele>
        <time>2021-08-09T10:29:11Z</time>
      </trkpt>
      <trkpt lat="48.16145" lon="-2.99904">
        <ele>69.4</ele>
        <time>2021-08-09T10:29:12Z</time>
      </trkpt>
      <trkpt lat="48.16149" lon="-2.99902">
        <ele>69.6</ele>
        <time>2021-08-09T10:29:13Z</time>
      </trkpt>
      <trkpt lat="48.16153" lon="-2.99899">
        <ele>69.6</ele>
        <time>2021-08-09T10:29:14Z</time>
      </trkpt>
      <trkpt lat="48.16157" lon="-2.99897">
        <ele>69.6</ele>
        <time>2021-08-09T10:29:15Z</time>
      </trkpt>
      <trkpt lat="48.16161" lon="-2.99894">
        <ele>69.6</ele>
        <time>2021-08-09T10:29:16Z</time>
      </trkpt>
      <trkpt lat="48.16165" lon="-2.99892">
        <ele>69.6</ele>
        <time>2021-08-09T10:29:17Z</time>
      </trkpt>
      <trkpt lat="48.16169" lon="-2.99889">
        <ele>69.6</ele>
        <time>2021-08-09T10:29:18Z</time>
      </trkpt>
      <trkpt lat="48.16177" lon="-2.99885">
        <ele>69.6</ele>
        <time>2021-08-09T10:29:20Z</time>
      </trkpt>
      <trkpt lat="48.1618" lon="-2.99883">
        <ele>69.6</ele>
        <time>2021-08-09T10:29:21Z</time>
      </trkpt>
      <trkpt lat="48.16184" lon="-2.99881">
        <ele>69.6</ele>
        <time>2021-08-09T10:29:22Z</time>
      </trkpt>
      <trkpt lat="48.16188" lon="-2.99878">
        <ele>69.8</ele>
        <time>2021-08-09T10:29:23Z</time>
      </trkpt>
      <trkpt lat="48.16191" lon="-2.99876">
        <ele>69.8</ele>
        <time>2021-08-09T10:29:24Z</time>
      </trkpt>
      <trkpt lat="48.16195" lon="-2.99874">
        <ele>69.8</ele>
        <time>2021-08-09T10:29:25Z</time>
      </trkpt>
      <trkpt lat="48.16199" lon="-2.99873">
        <ele>69.8</ele>
        <time>2021-08-09T10:29:26Z</time>
      </trkpt>
      <trkpt lat="48.16202" lon="-2.99871">
        <ele>69.8</ele>
        <time>2021-08-09T10:29:27Z</time>
      </trkpt>
      <trkpt lat="48.16206" lon="-2.99869">
        <ele>69.8</ele>
        <time>2021-08-09T10:29:28Z</time>
      </trkpt>
      <trkpt lat="48.16209" lon="-2.99867">
        <ele>70</ele>
        <time>2021-08-09T10:29:29Z</time>
      </trkpt>
      <trkpt lat="48.16216" lon="-2.99863">
        <ele>70.2</ele>
        <time>2021-08-09T10:29:31Z</time>
      </trkpt>
      <trkpt lat="48.1622" lon="-2.9986">
        <ele>70.4</ele>
        <time>2021-08-09T10:29:32Z</time>
      </trkpt>
      <trkpt lat="48.16224" lon="-2.99858">
        <ele>70.8</ele>
        <time>2021-08-09T10:29:33Z</time>
      </trkpt>
      <trkpt lat="48.16228" lon="-2.99856">
        <ele>70.8</ele>
        <time>2021-08-09T10:29:34Z</time>
      </trkpt>
      <trkpt lat="48.16231" lon="-2.99853">
        <ele>70.8</ele>
        <time>2021-08-09T10:29:35Z</time>
      </trkpt>
      <trkpt lat="48.16235" lon="-2.9985">
        <ele>71</ele>
        <time>2021-08-09T10:29:36Z</time>
      </trkpt>
      <trkpt lat="48.16239" lon="-2.99848">
        <ele>71</ele>
        <time>2021-08-09T10:29:37Z</time>
      </trkpt>
      <trkpt lat="48.16243" lon="-2.99845">
        <ele>71</ele>
        <time>2021-08-09T10:29:38Z</time>
      </trkpt>
      <trkpt lat="48.16247" lon="-2.99842">
        <ele>71</ele>
        <time>2021-08-09T10:29:39Z</time>
      </trkpt>
      <trkpt lat="48.16252" lon="-2.99839">
        <ele>71</ele>
        <time>2021-08-09T10:29:40Z</time>
      </trkpt>
      <trkpt lat="48.1626" lon="-2.99834">
        <ele>71</ele>
        <time>2021-08-09T10:29:42Z</time>
      </trkpt>
      <trkpt lat="48.16264" lon="-2.99831">
        <ele>71</ele>
        <time>2021-08-09T10:29:43Z</time>
      </trkpt>
      <trkpt lat="48.16269" lon="-2.99828">
        <ele>70.8</ele>
        <time>2021-08-09T10:29:44Z</time>
      </trkpt>
      <trkpt lat="48.16273" lon="-2.99826">
        <ele>70.8</ele>
        <time>2021-08-09T10:29:45Z</time>
      </trkpt>
      <trkpt lat="48.16278" lon="-2.99824">
        <ele>70.8</ele>
        <time>2021-08-09T10:29:46Z</time>
      </trkpt>
      <trkpt lat="48.16282" lon="-2.99821">
        <ele>70.8</ele>
        <time>2021-08-09T10:29:47Z</time>
      </trkpt>
      <trkpt lat="48.16286" lon="-2.99819">
        <ele>70.8</ele>
        <time>2021-08-09T10:29:48Z</time>
      </trkpt>
      <trkpt lat="48.16289" lon="-2.99817">
        <ele>70.8</ele>
        <time>2021-08-09T10:29:49Z</time>
      </trkpt>
      <trkpt lat="48.16293" lon="-2.99814">
        <ele>70.8</ele>
        <time>2021-08-09T10:29:50Z</time>
      </trkpt>
      <trkpt lat="48.16297" lon="-2.99812">
        <ele>70.6</ele>
        <time>2021-08-09T10:29:51Z</time>
      </trkpt>
      <trkpt lat="48.16303" lon="-2.99808">
        <ele>70.6</ele>
        <time>2021-08-09T10:29:53Z</time>
      </trkpt>
      <trkpt lat="48.16306" lon="-2.99806">
        <ele>70.6</ele>
        <time>2021-08-09T10:29:54Z</time>
      </trkpt>
      <trkpt lat="48.1631" lon="-2.99804">
        <ele>70.6</ele>
        <time>2021-08-09T10:29:55Z</time>
      </trkpt>
      <trkpt lat="48.16313" lon="-2.99802">
        <ele>70.6</ele>
        <time>2021-08-09T10:29:56Z</time>
      </trkpt>
      <trkpt lat="48.16316" lon="-2.998">
        <ele>70.6</ele>
        <time>2021-08-09T10:29:57Z</time>
      </trkpt>
      <trkpt lat="48.16319" lon="-2.99798">
        <ele>70.8</ele>
        <time>2021-08-09T10:29:58Z</time>
      </trkpt>
      <trkpt lat="48.16322" lon="-2.99796">
        <ele>70.8</ele>
        <time>2021-08-09T10:29:59Z</time>
      </trkpt>
      <trkpt lat="48.16325" lon="-2.99794">
        <ele>70.8</ele>
        <time>2021-08-09T10:30:00Z</time>
      </trkpt>
      <trkpt lat="48.16327" lon="-2.99793">
        <ele>70.8</ele>
        <time>2021-08-09T10:30:01Z</time>
      </trkpt>
      <trkpt lat="48.1633" lon="-2.99791">
        <ele>70.8</ele>
        <time>2021-08-09T10:30:02Z</time>
      </trkpt>
      <trkpt lat="48.16336" lon="-2.99786">
        <ele>71</ele>
        <time>2021-08-09T10:30:04Z</time>
      </trkpt>
      <trkpt lat="48.16339" lon="-2.99784">
        <ele>71</ele>
        <time>2021-08-09T10:30:05Z</time>
      </trkpt>
      <trkpt lat="48.16341" lon="-2.99782">
        <ele>71</ele>
        <time>2021-08-09T10:30:06Z</time>
      </trkpt>
      <trkpt lat="48.16345" lon="-2.9978">
        <ele>71.2</ele>
        <time>2021-08-09T10:30:07Z</time>
      </trkpt>
      <trkpt lat="48.16348" lon="-2.99777">
        <ele>71.2</ele>
        <time>2021-08-09T10:30:08Z</time>
      </trkpt>
      <trkpt lat="48.16352" lon="-2.99775">
        <ele>71.2</ele>
        <time>2021-08-09T10:30:09Z</time>
      </trkpt>
      <trkpt lat="48.16356" lon="-2.99773">
        <ele>71.2</ele>
        <time>2021-08-09T10:30:10Z</time>
      </trkpt>
      <trkpt lat="48.16359" lon="-2.99771">
        <ele>71.2</ele>
        <time>2021-08-09T10:30:11Z</time>
      </trkpt>
      <trkpt lat="48.16361" lon="-2.99769">
        <ele>71.2</ele>
        <time>2021-08-09T10:30:12Z</time>
      </trkpt>
      <trkpt lat="48.16365" lon="-2.99767">
        <ele>71.2</ele>
        <time>2021-08-09T10:30:13Z</time>
      </trkpt>
      <trkpt lat="48.16369" lon="-2.99765">
        <ele>71.2</ele>
        <time>2021-08-09T10:30:14Z</time>
      </trkpt>
      <trkpt lat="48.16372" lon="-2.99762">
        <ele>71.2</ele>
        <time>2021-08-09T10:30:15Z</time>
      </trkpt>
      <trkpt lat="48.16376" lon="-2.9976">
        <ele>71.2</ele>
        <time>2021-08-09T10:30:16Z</time>
      </trkpt>
      <trkpt lat="48.1638" lon="-2.99757">
        <ele>71.2</ele>
        <time>2021-08-09T10:30:17Z</time>
      </trkpt>
      <trkpt lat="48.16383" lon="-2.99755">
        <ele>71.2</ele>
        <time>2021-08-09T10:30:18Z</time>
      </trkpt>
      <trkpt lat="48.16386" lon="-2.99752">
        <ele>71.2</ele>
        <time>2021-08-09T10:30:19Z</time>
      </trkpt>
      <trkpt lat="48.1639" lon="-2.99749">
        <ele>71.2</ele>
        <time>2021-08-09T10:30:20Z</time>
      </trkpt>
      <trkpt lat="48.16394" lon="-2.99747">
        <ele>71.2</ele>
        <time>2021-08-09T10:30:21Z</time>
      </trkpt>
      <trkpt lat="48.16398" lon="-2.99744">
        <ele>71.2</ele>
        <time>2021-08-09T10:30:22Z</time>
      </trkpt>
      <trkpt lat="48.16402" lon="-2.99742">
        <ele>71.2</ele>
        <time>2021-08-09T10:30:23Z</time>
      </trkpt>
      <trkpt lat="48.16406" lon="-2.99739">
        <ele>71.2</ele>
        <time>2021-08-09T10:30:24Z</time>
      </trkpt>
      <trkpt lat="48.16415" lon="-2.99733">
        <ele>71.2</ele>
        <time>2021-08-09T10:30:26Z</time>
      </trkpt>
      <trkpt lat="48.16419" lon="-2.9973">
        <ele>71</ele>
        <time>2021-08-09T10:30:27Z</time>
      </trkpt>
      <trkpt lat="48.16424" lon="-2.99727">
        <ele>71</ele>
        <time>2021-08-09T10:30:28Z</time>
      </trkpt>
      <trkpt lat="48.16428" lon="-2.99725">
        <ele>71</ele>
        <time>2021-08-09T10:30:29Z</time>
      </trkpt>
      <trkpt lat="48.16432" lon="-2.99722">
        <ele>71</ele>
        <time>2021-08-09T10:30:30Z</time>
      </trkpt>
      <trkpt lat="48.16437" lon="-2.99719">
        <ele>71</ele>
        <time>2021-08-09T10:30:31Z</time>
      </trkpt>
      <trkpt lat="48.16442" lon="-2.99715">
        <ele>71</ele>
        <time>2021-08-09T10:30:32Z</time>
      </trkpt>
      <trkpt lat="48.16447" lon="-2.99712">
        <ele>71</ele>
        <time>2021-08-09T10:30:33Z</time>
      </trkpt>
      <trkpt lat="48.16452" lon="-2.9971">
        <ele>71.2</ele>
        <time>2021-08-09T10:30:34Z</time>
      </trkpt>
      <trkpt lat="48.16457" lon="-2.99707">
        <ele>71.2</ele>
        <time>2021-08-09T10:30:35Z</time>
      </trkpt>
      <trkpt lat="48.16467" lon="-2.99701">
        <ele>71.2</ele>
        <time>2021-08-09T10:30:37Z</time>
      </trkpt>
      <trkpt lat="48.16472" lon="-2.99699">
        <ele>71.2</ele>
        <time>2021-08-09T10:30:38Z</time>
      </trkpt>
      <trkpt lat="48.16476" lon="-2.99697">
        <ele>71.2</ele>
        <time>2021-08-09T10:30:39Z</time>
      </trkpt>
      <trkpt lat="48.1648" lon="-2.99695">
        <ele>71.4</ele>
        <time>2021-08-09T10:30:40Z</time>
      </trkpt>
      <trkpt lat="48.16483" lon="-2.99693">
        <ele>71.6</ele>
        <time>2021-08-09T10:30:41Z</time>
      </trkpt>
      <trkpt lat="48.16486" lon="-2.99692">
        <ele>71.6</ele>
        <time>2021-08-09T10:30:42Z</time>
      </trkpt>
      <trkpt lat="48.16489" lon="-2.99691">
        <ele>71.8</ele>
        <time>2021-08-09T10:30:43Z</time>
      </trkpt>
      <trkpt lat="48.16491" lon="-2.9969">
        <ele>71.8</ele>
        <time>2021-08-09T10:30:44Z</time>
      </trkpt>
      <trkpt lat="48.16493" lon="-2.9969">
        <ele>72</ele>
        <time>2021-08-09T10:30:45Z</time>
      </trkpt>
      <trkpt lat="48.16494" lon="-2.99689">
        <ele>72.2</ele>
        <time>2021-08-09T10:30:46Z</time>
      </trkpt>
      <trkpt lat="48.16495" lon="-2.99688">
        <ele>72.2</ele>
        <time>2021-08-09T10:30:47Z</time>
      </trkpt>
      <trkpt lat="48.16496" lon="-2.99686">
        <ele>72.6</ele>
        <time>2021-08-09T10:30:48Z</time>
      </trkpt>
      <trkpt lat="48.16497" lon="-2.99685">
        <ele>72.6</ele>
        <time>2021-08-09T10:30:49Z</time>
      </trkpt>
      <trkpt lat="48.16498" lon="-2.99685">
        <ele>72.8</ele>
        <time>2021-08-09T10:30:50Z</time>
      </trkpt>
      <trkpt lat="48.16498" lon="-2.99684">
        <ele>73</ele>
        <time>2021-08-09T10:30:51Z</time>
      </trkpt>
      <trkpt lat="48.16502" lon="-2.99683">
        <ele>74.2</ele>
        <time>2021-08-09T10:31:06Z</time>
      </trkpt>
      <trkpt lat="48.16503" lon="-2.99683">
        <ele>74.2</ele>
        <time>2021-08-09T10:31:07Z</time>
      </trkpt>
      <trkpt lat="48.16503" lon="-2.99683">
        <ele>74.2</ele>
        <time>2021-08-09T10:31:08Z</time>
      </trkpt>
      <trkpt lat="48.16504" lon="-2.99682">
        <ele>74.2</ele>
        <time>2021-08-09T10:31:09Z</time>
      </trkpt>
      <trkpt lat="48.16515" lon="-2.99676">
        <ele>74.4</ele>
        <time>2021-08-09T10:31:18Z</time>
      </trkpt>
      <trkpt lat="48.16518" lon="-2.99674">
        <ele>74.4</ele>
        <time>2021-08-09T10:31:19Z</time>
      </trkpt>
      <trkpt lat="48.16522" lon="-2.99673">
        <ele>74.4</ele>
        <time>2021-08-09T10:31:20Z</time>
      </trkpt>
      <trkpt lat="48.16529" lon="-2.99669">
        <ele>74.4</ele>
        <time>2021-08-09T10:31:22Z</time>
      </trkpt>
      <trkpt lat="48.16533" lon="-2.99666">
        <ele>74.4</ele>
        <time>2021-08-09T10:31:23Z</time>
      </trkpt>
      <trkpt lat="48.16537" lon="-2.99663">
        <ele>74.4</ele>
        <time>2021-08-09T10:31:24Z</time>
      </trkpt>
      <trkpt lat="48.16541" lon="-2.9966">
        <ele>74</ele>
        <time>2021-08-09T10:31:25Z</time>
      </trkpt>
      <trkpt lat="48.16547" lon="-2.99657">
        <ele>73.8</ele>
        <time>2021-08-09T10:31:26Z</time>
      </trkpt>
      <trkpt lat="48.16551" lon="-2.99655">
        <ele>73.6</ele>
        <time>2021-08-09T10:31:27Z</time>
      </trkpt>
      <trkpt lat="48.16556" lon="-2.99651">
        <ele>73.4</ele>
        <time>2021-08-09T10:31:28Z</time>
      </trkpt>
      <trkpt lat="48.16562" lon="-2.99649">
        <ele>73.2</ele>
        <time>2021-08-09T10:31:29Z</time>
      </trkpt>
      <trkpt lat="48.16572" lon="-2.99642">
        <ele>72.8</ele>
        <time>2021-08-09T10:31:31Z</time>
      </trkpt>
      <trkpt lat="48.16578" lon="-2.99639">
        <ele>72.8</ele>
        <time>2021-08-09T10:31:32Z</time>
      </trkpt>
      <trkpt lat="48.16583" lon="-2.99635">
        <ele>72.8</ele>
        <time>2021-08-09T10:31:33Z</time>
      </trkpt>
      <trkpt lat="48.16589" lon="-2.99632">
        <ele>72.8</ele>
        <time>2021-08-09T10:31:34Z</time>
      </trkpt>
      <trkpt lat="48.16595" lon="-2.99628">
        <ele>72.8</ele>
        <time>2021-08-09T10:31:35Z</time>
      </trkpt>
      <trkpt lat="48.16601" lon="-2.99624">
        <ele>72.6</ele>
        <time>2021-08-09T10:31:36Z</time>
      </trkpt>
      <trkpt lat="48.16606" lon="-2.99621">
        <ele>72.6</ele>
        <time>2021-08-09T10:31:37Z</time>
      </trkpt>
      <trkpt lat="48.16612" lon="-2.99617">
        <ele>72.6</ele>
        <time>2021-08-09T10:31:38Z</time>
      </trkpt>
      <trkpt lat="48.16617" lon="-2.99613">
        <ele>72.6</ele>
        <time>2021-08-09T10:31:39Z</time>
      </trkpt>
      <trkpt lat="48.16623" lon="-2.9961">
        <ele>72.6</ele>
        <time>2021-08-09T10:31:40Z</time>
      </trkpt>
      <trkpt lat="48.16634" lon="-2.99604">
        <ele>72.6</ele>
        <time>2021-08-09T10:31:42Z</time>
      </trkpt>
      <trkpt lat="48.16638" lon="-2.99601">
        <ele>72.6</ele>
        <time>2021-08-09T10:31:43Z</time>
      </trkpt>
      <trkpt lat="48.16643" lon="-2.99599">
        <ele>72.6</ele>
        <time>2021-08-09T10:31:44Z</time>
      </trkpt>
      <trkpt lat="48.16647" lon="-2.99596">
        <ele>72.6</ele>
        <time>2021-08-09T10:31:45Z</time>
      </trkpt>
      <trkpt lat="48.16651" lon="-2.99593">
        <ele>72.6</ele>
        <time>2021-08-09T10:31:46Z</time>
      </trkpt>
      <trkpt lat="48.16656" lon="-2.99591">
        <ele>72.6</ele>
        <time>2021-08-09T10:31:47Z</time>
      </trkpt>
      <trkpt lat="48.1666" lon="-2.99589">
        <ele>72.6</ele>
        <time>2021-08-09T10:31:48Z</time>
      </trkpt>
      <trkpt lat="48.16664" lon="-2.99587">
        <ele>72.6</ele>
        <time>2021-08-09T10:31:49Z</time>
      </trkpt>
      <trkpt lat="48.16667" lon="-2.99584">
        <ele>72.6</ele>
        <time>2021-08-09T10:31:50Z</time>
      </trkpt>
      <trkpt lat="48.16671" lon="-2.99582">
        <ele>72.8</ele>
        <time>2021-08-09T10:31:51Z</time>
      </trkpt>
      <trkpt lat="48.16678" lon="-2.99577">
        <ele>72.8</ele>
        <time>2021-08-09T10:31:53Z</time>
      </trkpt>
      <trkpt lat="48.16681" lon="-2.99575">
        <ele>73</ele>
        <time>2021-08-09T10:31:54Z</time>
      </trkpt>
      <trkpt lat="48.16685" lon="-2.99573">
        <ele>73</ele>
        <time>2021-08-09T10:31:55Z</time>
      </trkpt>
      <trkpt lat="48.16689" lon="-2.9957">
        <ele>73</ele>
        <time>2021-08-09T10:31:56Z</time>
      </trkpt>
      <trkpt lat="48.16693" lon="-2.99568">
        <ele>73.2</ele>
        <time>2021-08-09T10:31:57Z</time>
      </trkpt>
      <trkpt lat="48.16697" lon="-2.99565">
        <ele>73.2</ele>
        <time>2021-08-09T10:31:58Z</time>
      </trkpt>
      <trkpt lat="48.16701" lon="-2.99563">
        <ele>73.2</ele>
        <time>2021-08-09T10:31:59Z</time>
      </trkpt>
      <trkpt lat="48.16706" lon="-2.9956">
        <ele>73.2</ele>
        <time>2021-08-09T10:32:00Z</time>
      </trkpt>
      <trkpt lat="48.1671" lon="-2.99558">
        <ele>73.2</ele>
        <time>2021-08-09T10:32:01Z</time>
      </trkpt>
      <trkpt lat="48.16713" lon="-2.99556">
        <ele>73.4</ele>
        <time>2021-08-09T10:32:02Z</time>
      </trkpt>
      <trkpt lat="48.16721" lon="-2.99551">
        <ele>73.4</ele>
        <time>2021-08-09T10:32:04Z</time>
      </trkpt>
      <trkpt lat="48.16725" lon="-2.99549">
        <ele>73.6</ele>
        <time>2021-08-09T10:32:05Z</time>
      </trkpt>
      <trkpt lat="48.16729" lon="-2.99546">
        <ele>73.6</ele>
        <time>2021-08-09T10:32:06Z</time>
      </trkpt>
      <trkpt lat="48.16733" lon="-2.99544">
        <ele>73.6</ele>
        <time>2021-08-09T10:32:07Z</time>
      </trkpt>
      <trkpt lat="48.16737" lon="-2.99541">
        <ele>73.6</ele>
        <time>2021-08-09T10:32:08Z</time>
      </trkpt>
      <trkpt lat="48.16741" lon="-2.99538">
        <ele>73.6</ele>
        <time>2021-08-09T10:32:09Z</time>
      </trkpt>
      <trkpt lat="48.16745" lon="-2.99536">
        <ele>73.8</ele>
        <time>2021-08-09T10:32:10Z</time>
      </trkpt>
      <trkpt lat="48.16749" lon="-2.99533">
        <ele>73.8</ele>
        <time>2021-08-09T10:32:11Z</time>
      </trkpt>
      <trkpt lat="48.16754" lon="-2.9953">
        <ele>73.8</ele>
        <time>2021-08-09T10:32:12Z</time>
      </trkpt>
      <trkpt lat="48.16759" lon="-2.99528">
        <ele>73.8</ele>
        <time>2021-08-09T10:32:13Z</time>
      </trkpt>
      <trkpt lat="48.16769" lon="-2.99522">
        <ele>73.8</ele>
        <time>2021-08-09T10:32:15Z</time>
      </trkpt>
      <trkpt lat="48.16773" lon="-2.9952">
        <ele>73.8</ele>
        <time>2021-08-09T10:32:16Z</time>
      </trkpt>
      <trkpt lat="48.16777" lon="-2.99517">
        <ele>73.8</ele>
        <time>2021-08-09T10:32:17Z</time>
      </trkpt>
      <trkpt lat="48.16781" lon="-2.99514">
        <ele>73.8</ele>
        <time>2021-08-09T10:32:18Z</time>
      </trkpt>
      <trkpt lat="48.16785" lon="-2.99512">
        <ele>73.8</ele>
        <time>2021-08-09T10:32:19Z</time>
      </trkpt>
      <trkpt lat="48.16789" lon="-2.9951">
        <ele>73.8</ele>
        <time>2021-08-09T10:32:20Z</time>
      </trkpt>
      <trkpt lat="48.16794" lon="-2.99509">
        <ele>73.8</ele>
        <time>2021-08-09T10:32:21Z</time>
      </trkpt>
      <trkpt lat="48.16798" lon="-2.99507">
        <ele>73.8</ele>
        <time>2021-08-09T10:32:22Z</time>
      </trkpt>
      <trkpt lat="48.16803" lon="-2.99505">
        <ele>73.6</ele>
        <time>2021-08-09T10:32:23Z</time>
      </trkpt>
      <trkpt lat="48.16808" lon="-2.99504">
        <ele>73.6</ele>
        <time>2021-08-09T10:32:24Z</time>
      </trkpt>
      <trkpt lat="48.16819" lon="-2.99501">
        <ele>73.6</ele>
        <time>2021-08-09T10:32:26Z</time>
      </trkpt>
      <trkpt lat="48.16824" lon="-2.995">
        <ele>73.6</ele>
        <time>2021-08-09T10:32:27Z</time>
      </trkpt>
      <trkpt lat="48.16829" lon="-2.99498">
        <ele>73.4</ele>
        <time>2021-08-09T10:32:28Z</time>
      </trkpt>
      <trkpt lat="48.16834" lon="-2.99497">
        <ele>73.4</ele>
        <time>2021-08-09T10:32:29Z</time>
      </trkpt>
      <trkpt lat="48.16839" lon="-2.99496">
        <ele>73.4</ele>
        <time>2021-08-09T10:32:30Z</time>
      </trkpt>
      <trkpt lat="48.16844" lon="-2.99495">
        <ele>73.4</ele>
        <time>2021-08-09T10:32:31Z</time>
      </trkpt>
      <trkpt lat="48.16848" lon="-2.99494">
        <ele>73.4</ele>
        <time>2021-08-09T10:32:32Z</time>
      </trkpt>
      <trkpt lat="48.16852" lon="-2.99493">
        <ele>73.4</ele>
        <time>2021-08-09T10:32:33Z</time>
      </trkpt>
      <trkpt lat="48.16856" lon="-2.99492">
        <ele>73.4</ele>
        <time>2021-08-09T10:32:34Z</time>
      </trkpt>
      <trkpt lat="48.1686" lon="-2.99491">
        <ele>73.4</ele>
        <time>2021-08-09T10:32:35Z</time>
      </trkpt>
      <trkpt lat="48.16869" lon="-2.99489">
        <ele>73.4</ele>
        <time>2021-08-09T10:32:37Z</time>
      </trkpt>
      <trkpt lat="48.16874" lon="-2.99488">
        <ele>73.6</ele>
        <time>2021-08-09T10:32:38Z</time>
      </trkpt>
      <trkpt lat="48.16879" lon="-2.99486">
        <ele>73.8</ele>
        <time>2021-08-09T10:32:39Z</time>
      </trkpt>
      <trkpt lat="48.16883" lon="-2.99484">
        <ele>73.8</ele>
        <time>2021-08-09T10:32:40Z</time>
      </trkpt>
      <trkpt lat="48.16888" lon="-2.99483">
        <ele>73.8</ele>
        <time>2021-08-09T10:32:41Z</time>
      </trkpt>
      <trkpt lat="48.16893" lon="-2.99482">
        <ele>73.8</ele>
        <time>2021-08-09T10:32:42Z</time>
      </trkpt>
      <trkpt lat="48.16898" lon="-2.9948">
        <ele>73.8</ele>
        <time>2021-08-09T10:32:43Z</time>
      </trkpt>
      <trkpt lat="48.16903" lon="-2.99479">
        <ele>73.8</ele>
        <time>2021-08-09T10:32:44Z</time>
      </trkpt>
      <trkpt lat="48.16907" lon="-2.99478">
        <ele>73.8</ele>
        <time>2021-08-09T10:32:45Z</time>
      </trkpt>
      <trkpt lat="48.16912" lon="-2.99477">
        <ele>73.8</ele>
        <time>2021-08-09T10:32:46Z</time>
      </trkpt>
      <trkpt lat="48.16916" lon="-2.99475">
        <ele>73.8</ele>
        <time>2021-08-09T10:32:47Z</time>
      </trkpt>
      <trkpt lat="48.16921" lon="-2.99474">
        <ele>74</ele>
        <time>2021-08-09T10:32:48Z</time>
      </trkpt>
      <trkpt lat="48.16926" lon="-2.99472">
        <ele>74</ele>
        <time>2021-08-09T10:32:49Z</time>
      </trkpt>
      <trkpt lat="48.1693" lon="-2.99471">
        <ele>74</ele>
        <time>2021-08-09T10:32:50Z</time>
      </trkpt>
      <trkpt lat="48.16935" lon="-2.9947">
        <ele>74</ele>
        <time>2021-08-09T10:32:51Z</time>
      </trkpt>
      <trkpt lat="48.1694" lon="-2.99469">
        <ele>74</ele>
        <time>2021-08-09T10:32:52Z</time>
      </trkpt>
      <trkpt lat="48.16944" lon="-2.99467">
        <ele>74</ele>
        <time>2021-08-09T10:32:53Z</time>
      </trkpt>
      <trkpt lat="48.16949" lon="-2.99466">
        <ele>74</ele>
        <time>2021-08-09T10:32:54Z</time>
      </trkpt>
      <trkpt lat="48.16953" lon="-2.99465">
        <ele>74</ele>
        <time>2021-08-09T10:32:55Z</time>
      </trkpt>
      <trkpt lat="48.16958" lon="-2.99463">
        <ele>73.8</ele>
        <time>2021-08-09T10:32:56Z</time>
      </trkpt>
      <trkpt lat="48.16963" lon="-2.99462">
        <ele>73.8</ele>
        <time>2021-08-09T10:32:57Z</time>
      </trkpt>
      <trkpt lat="48.16973" lon="-2.9946">
        <ele>73.8</ele>
        <time>2021-08-09T10:32:59Z</time>
      </trkpt>
      <trkpt lat="48.16978" lon="-2.99459">
        <ele>73.8</ele>
        <time>2021-08-09T10:33:00Z</time>
      </trkpt>
      <trkpt lat="48.16983" lon="-2.99457">
        <ele>73.8</ele>
        <time>2021-08-09T10:33:01Z</time>
      </trkpt>
      <trkpt lat="48.16988" lon="-2.99456">
        <ele>73.8</ele>
        <time>2021-08-09T10:33:02Z</time>
      </trkpt>
      <trkpt lat="48.16992" lon="-2.99455">
        <ele>73.8</ele>
        <time>2021-08-09T10:33:03Z</time>
      </trkpt>
      <trkpt lat="48.16997" lon="-2.99454">
        <ele>73.8</ele>
        <time>2021-08-09T10:33:04Z</time>
      </trkpt>
      <trkpt lat="48.17002" lon="-2.99453">
        <ele>73.8</ele>
        <time>2021-08-09T10:33:05Z</time>
      </trkpt>
      <trkpt lat="48.17006" lon="-2.99452">
        <ele>73.8</ele>
        <time>2021-08-09T10:33:06Z</time>
      </trkpt>
      <trkpt lat="48.17011" lon="-2.99451">
        <ele>73.8</ele>
        <time>2021-08-09T10:33:07Z</time>
      </trkpt>
      <trkpt lat="48.17016" lon="-2.99449">
        <ele>73.8</ele>
        <time>2021-08-09T10:33:08Z</time>
      </trkpt>
      <trkpt lat="48.17025" lon="-2.99447">
        <ele>73.8</ele>
        <time>2021-08-09T10:33:10Z</time>
      </trkpt>
      <trkpt lat="48.17029" lon="-2.99446">
        <ele>73.8</ele>
        <time>2021-08-09T10:33:11Z</time>
      </trkpt>
      <trkpt lat="48.17033" lon="-2.99445">
        <ele>73.6</ele>
        <time>2021-08-09T10:33:12Z</time>
      </trkpt>
      <trkpt lat="48.17037" lon="-2.99445">
        <ele>73.6</ele>
        <time>2021-08-09T10:33:13Z</time>
      </trkpt>
      <trkpt lat="48.17042" lon="-2.99444">
        <ele>73.4</ele>
        <time>2021-08-09T10:33:14Z</time>
      </trkpt>
      <trkpt lat="48.17046" lon="-2.99444">
        <ele>73.4</ele>
        <time>2021-08-09T10:33:15Z</time>
      </trkpt>
      <trkpt lat="48.1705" lon="-2.99445">
        <ele>73.2</ele>
        <time>2021-08-09T10:33:16Z</time>
      </trkpt>
      <trkpt lat="48.17055" lon="-2.99446">
        <ele>73.2</ele>
        <time>2021-08-09T10:33:17Z</time>
      </trkpt>
      <trkpt lat="48.17059" lon="-2.99447">
        <ele>73.2</ele>
        <time>2021-08-09T10:33:18Z</time>
      </trkpt>
      <trkpt lat="48.17064" lon="-2.99448">
        <ele>73.2</ele>
        <time>2021-08-09T10:33:19Z</time>
      </trkpt>
      <trkpt lat="48.17073" lon="-2.99452">
        <ele>73.2</ele>
        <time>2021-08-09T10:33:21Z</time>
      </trkpt>
      <trkpt lat="48.17078" lon="-2.99454">
        <ele>73.2</ele>
        <time>2021-08-09T10:33:22Z</time>
      </trkpt>
      <trkpt lat="48.17082" lon="-2.99456">
        <ele>73.2</ele>
        <time>2021-08-09T10:33:23Z</time>
      </trkpt>
      <trkpt lat="48.17087" lon="-2.99459">
        <ele>73.2</ele>
        <time>2021-08-09T10:33:24Z</time>
      </trkpt>
      <trkpt lat="48.17091" lon="-2.99461">
        <ele>73.2</ele>
        <time>2021-08-09T10:33:25Z</time>
      </trkpt>
      <trkpt lat="48.17095" lon="-2.99464">
        <ele>73.2</ele>
        <time>2021-08-09T10:33:26Z</time>
      </trkpt>
      <trkpt lat="48.17099" lon="-2.99468">
        <ele>73.2</ele>
        <time>2021-08-09T10:33:27Z</time>
      </trkpt>
      <trkpt lat="48.17103" lon="-2.99471">
        <ele>73.4</ele>
        <time>2021-08-09T10:33:28Z</time>
      </trkpt>
      <trkpt lat="48.17108" lon="-2.99475">
        <ele>73.4</ele>
        <time>2021-08-09T10:33:29Z</time>
      </trkpt>
      <trkpt lat="48.17112" lon="-2.99479">
        <ele>73.4</ele>
        <time>2021-08-09T10:33:30Z</time>
      </trkpt>
      <trkpt lat="48.17121" lon="-2.99488">
        <ele>73.4</ele>
        <time>2021-08-09T10:33:32Z</time>
      </trkpt>
      <trkpt lat="48.17125" lon="-2.99492">
        <ele>73.4</ele>
        <time>2021-08-09T10:33:33Z</time>
      </trkpt>
      <trkpt lat="48.17129" lon="-2.99496">
        <ele>73.4</ele>
        <time>2021-08-09T10:33:34Z</time>
      </trkpt>
      <trkpt lat="48.17132" lon="-2.99501">
        <ele>73.4</ele>
        <time>2021-08-09T10:33:35Z</time>
      </trkpt>
      <trkpt lat="48.17135" lon="-2.99505">
        <ele>73.4</ele>
        <time>2021-08-09T10:33:36Z</time>
      </trkpt>
      <trkpt lat="48.17139" lon="-2.99509">
        <ele>73.4</ele>
        <time>2021-08-09T10:33:37Z</time>
      </trkpt>
      <trkpt lat="48.17142" lon="-2.99514">
        <ele>73.4</ele>
        <time>2021-08-09T10:33:38Z</time>
      </trkpt>
      <trkpt lat="48.17144" lon="-2.99518">
        <ele>73.4</ele>
        <time>2021-08-09T10:33:39Z</time>
      </trkpt>
      <trkpt lat="48.17147" lon="-2.99523">
        <ele>73.4</ele>
        <time>2021-08-09T10:33:40Z</time>
      </trkpt>
      <trkpt lat="48.17149" lon="-2.99528">
        <ele>73.2</ele>
        <time>2021-08-09T10:33:41Z</time>
      </trkpt>
      <trkpt lat="48.17151" lon="-2.99534">
        <ele>73.2</ele>
        <time>2021-08-09T10:33:42Z</time>
      </trkpt>
      <trkpt lat="48.17153" lon="-2.99541">
        <ele>73.2</ele>
        <time>2021-08-09T10:33:43Z</time>
      </trkpt>
      <trkpt lat="48.17154" lon="-2.99547">
        <ele>73</ele>
        <time>2021-08-09T10:33:44Z</time>
      </trkpt>
      <trkpt lat="48.17156" lon="-2.99553">
        <ele>73</ele>
        <time>2021-08-09T10:33:45Z</time>
      </trkpt>
      <trkpt lat="48.17158" lon="-2.99559">
        <ele>73</ele>
        <time>2021-08-09T10:33:46Z</time>
      </trkpt>
      <trkpt lat="48.17159" lon="-2.99564">
        <ele>73</ele>
        <time>2021-08-09T10:33:47Z</time>
      </trkpt>
      <trkpt lat="48.17161" lon="-2.9957">
        <ele>73</ele>
        <time>2021-08-09T10:33:48Z</time>
      </trkpt>
      <trkpt lat="48.17162" lon="-2.99576">
        <ele>72.8</ele>
        <time>2021-08-09T10:33:49Z</time>
      </trkpt>
      <trkpt lat="48.17162" lon="-2.99582">
        <ele>72.8</ele>
        <time>2021-08-09T10:33:50Z</time>
      </trkpt>
      <trkpt lat="48.17164" lon="-2.99588">
        <ele>72.8</ele>
        <time>2021-08-09T10:33:51Z</time>
      </trkpt>
      <trkpt lat="48.17165" lon="-2.99594">
        <ele>72.8</ele>
        <time>2021-08-09T10:33:52Z</time>
      </trkpt>
      <trkpt lat="48.17168" lon="-2.99606">
        <ele>73</ele>
        <time>2021-08-09T10:33:54Z</time>
      </trkpt>
      <trkpt lat="48.17169" lon="-2.99613">
        <ele>73</ele>
        <time>2021-08-09T10:33:55Z</time>
      </trkpt>
      <trkpt lat="48.1717" lon="-2.99619">
        <ele>73</ele>
        <time>2021-08-09T10:33:56Z</time>
      </trkpt>
      <trkpt lat="48.17172" lon="-2.99626">
        <ele>73</ele>
        <time>2021-08-09T10:33:57Z</time>
      </trkpt>
      <trkpt lat="48.17173" lon="-2.99633">
        <ele>73.2</ele>
        <time>2021-08-09T10:33:58Z</time>
      </trkpt>
      <trkpt lat="48.17174" lon="-2.9964">
        <ele>73.2</ele>
        <time>2021-08-09T10:33:59Z</time>
      </trkpt>
      <trkpt lat="48.17176" lon="-2.99646">
        <ele>73.2</ele>
        <time>2021-08-09T10:34:00Z</time>
      </trkpt>
      <trkpt lat="48.17177" lon="-2.99652">
        <ele>73.2</ele>
        <time>2021-08-09T10:34:01Z</time>
      </trkpt>
      <trkpt lat="48.17178" lon="-2.99658">
        <ele>73.2</ele>
        <time>2021-08-09T10:34:02Z</time>
      </trkpt>
      <trkpt lat="48.17179" lon="-2.99663">
        <ele>73.2</ele>
        <time>2021-08-09T10:34:03Z</time>
      </trkpt>
      <trkpt lat="48.17182" lon="-2.99675">
        <ele>73.4</ele>
        <time>2021-08-09T10:34:05Z</time>
      </trkpt>
      <trkpt lat="48.17183" lon="-2.99681">
        <ele>73.4</ele>
        <time>2021-08-09T10:34:06Z</time>
      </trkpt>
      <trkpt lat="48.17184" lon="-2.99687">
        <ele>73.4</ele>
        <time>2021-08-09T10:34:07Z</time>
      </trkpt>
      <trkpt lat="48.17186" lon="-2.99694">
        <ele>73.4</ele>
        <time>2021-08-09T10:34:08Z</time>
      </trkpt>
      <trkpt lat="48.17187" lon="-2.997">
        <ele>73.4</ele>
        <time>2021-08-09T10:34:09Z</time>
      </trkpt>
      <trkpt lat="48.17188" lon="-2.99706">
        <ele>73.4</ele>
        <time>2021-08-09T10:34:10Z</time>
      </trkpt>
      <trkpt lat="48.1719" lon="-2.99712">
        <ele>73.2</ele>
        <time>2021-08-09T10:34:11Z</time>
      </trkpt>
      <trkpt lat="48.17191" lon="-2.99719">
        <ele>73.2</ele>
        <time>2021-08-09T10:34:12Z</time>
      </trkpt>
      <trkpt lat="48.17192" lon="-2.99725">
        <ele>73.2</ele>
        <time>2021-08-09T10:34:13Z</time>
      </trkpt>
      <trkpt lat="48.17194" lon="-2.99732">
        <ele>73.2</ele>
        <time>2021-08-09T10:34:14Z</time>
      </trkpt>
      <trkpt lat="48.17195" lon="-2.99737">
        <ele>73.2</ele>
        <time>2021-08-09T10:34:15Z</time>
      </trkpt>
      <trkpt lat="48.17196" lon="-2.99743">
        <ele>73.2</ele>
        <time>2021-08-09T10:34:16Z</time>
      </trkpt>
      <trkpt lat="48.17197" lon="-2.99749">
        <ele>73.2</ele>
        <time>2021-08-09T10:34:17Z</time>
      </trkpt>
      <trkpt lat="48.17198" lon="-2.99755">
        <ele>73.2</ele>
        <time>2021-08-09T10:34:18Z</time>
      </trkpt>
      <trkpt lat="48.172" lon="-2.9976">
        <ele>73.2</ele>
        <time>2021-08-09T10:34:19Z</time>
      </trkpt>
      <trkpt lat="48.17201" lon="-2.99766">
        <ele>73.2</ele>
        <time>2021-08-09T10:34:20Z</time>
      </trkpt>
      <trkpt lat="48.17202" lon="-2.99772">
        <ele>73</ele>
        <time>2021-08-09T10:34:21Z</time>
      </trkpt>
      <trkpt lat="48.17203" lon="-2.99777">
        <ele>73</ele>
        <time>2021-08-09T10:34:22Z</time>
      </trkpt>
      <trkpt lat="48.17204" lon="-2.99783">
        <ele>73</ele>
        <time>2021-08-09T10:34:23Z</time>
      </trkpt>
      <trkpt lat="48.17205" lon="-2.99789">
        <ele>73</ele>
        <time>2021-08-09T10:34:24Z</time>
      </trkpt>
      <trkpt lat="48.17206" lon="-2.99794">
        <ele>73.2</ele>
        <time>2021-08-09T10:34:25Z</time>
      </trkpt>
      <trkpt lat="48.17208" lon="-2.99806">
        <ele>73.2</ele>
        <time>2021-08-09T10:34:27Z</time>
      </trkpt>
      <trkpt lat="48.1721" lon="-2.99812">
        <ele>73.2</ele>
        <time>2021-08-09T10:34:28Z</time>
      </trkpt>
      <trkpt lat="48.1721" lon="-2.99818">
        <ele>73.2</ele>
        <time>2021-08-09T10:34:29Z</time>
      </trkpt>
      <trkpt lat="48.17211" lon="-2.99824">
        <ele>73.2</ele>
        <time>2021-08-09T10:34:30Z</time>
      </trkpt>
      <trkpt lat="48.17212" lon="-2.99831">
        <ele>73.4</ele>
        <time>2021-08-09T10:34:31Z</time>
      </trkpt>
      <trkpt lat="48.17213" lon="-2.99837">
        <ele>73.4</ele>
        <time>2021-08-09T10:34:32Z</time>
      </trkpt>
      <trkpt lat="48.17215" lon="-2.99844">
        <ele>73.4</ele>
        <time>2021-08-09T10:34:33Z</time>
      </trkpt>
      <trkpt lat="48.17216" lon="-2.9985">
        <ele>73.4</ele>
        <time>2021-08-09T10:34:34Z</time>
      </trkpt>
      <trkpt lat="48.17217" lon="-2.99857">
        <ele>73.4</ele>
        <time>2021-08-09T10:34:35Z</time>
      </trkpt>
      <trkpt lat="48.17219" lon="-2.99863">
        <ele>73.4</ele>
        <time>2021-08-09T10:34:36Z</time>
      </trkpt>
      <trkpt lat="48.1722" lon="-2.99871">
        <ele>73.4</ele>
        <time>2021-08-09T10:34:37Z</time>
      </trkpt>
      <trkpt lat="48.17221" lon="-2.99877">
        <ele>73.4</ele>
        <time>2021-08-09T10:34:38Z</time>
      </trkpt>
      <trkpt lat="48.17222" lon="-2.99884">
        <ele>73.4</ele>
        <time>2021-08-09T10:34:39Z</time>
      </trkpt>
      <trkpt lat="48.17223" lon="-2.99892">
        <ele>73.4</ele>
        <time>2021-08-09T10:34:40Z</time>
      </trkpt>
      <trkpt lat="48.17224" lon="-2.99899">
        <ele>73.4</ele>
        <time>2021-08-09T10:34:41Z</time>
      </trkpt>
      <trkpt lat="48.17225" lon="-2.99906">
        <ele>73.2</ele>
        <time>2021-08-09T10:34:42Z</time>
      </trkpt>
      <trkpt lat="48.17226" lon="-2.99913">
        <ele>73.2</ele>
        <time>2021-08-09T10:34:43Z</time>
      </trkpt>
      <trkpt lat="48.17227" lon="-2.99921">
        <ele>73.2</ele>
        <time>2021-08-09T10:34:44Z</time>
      </trkpt>
      <trkpt lat="48.17228" lon="-2.99928">
        <ele>73</ele>
        <time>2021-08-09T10:34:45Z</time>
      </trkpt>
      <trkpt lat="48.1723" lon="-2.99935">
        <ele>73</ele>
        <time>2021-08-09T10:34:46Z</time>
      </trkpt>
      <trkpt lat="48.17231" lon="-2.99941">
        <ele>73.2</ele>
        <time>2021-08-09T10:34:47Z</time>
      </trkpt>
      <trkpt lat="48.17233" lon="-2.99956">
        <ele>73</ele>
        <time>2021-08-09T10:34:49Z</time>
      </trkpt>
      <trkpt lat="48.17235" lon="-2.99963">
        <ele>73</ele>
        <time>2021-08-09T10:34:50Z</time>
      </trkpt>
      <trkpt lat="48.17236" lon="-2.9997">
        <ele>73</ele>
        <time>2021-08-09T10:34:51Z</time>
      </trkpt>
      <trkpt lat="48.17238" lon="-2.99977">
        <ele>73</ele>
        <time>2021-08-09T10:34:52Z</time>
      </trkpt>
      <trkpt lat="48.17239" lon="-2.99983">
        <ele>73</ele>
        <time>2021-08-09T10:34:53Z</time>
      </trkpt>
      <trkpt lat="48.1724" lon="-2.99989">
        <ele>73</ele>
        <time>2021-08-09T10:34:54Z</time>
      </trkpt>
      <trkpt lat="48.17241" lon="-2.99997">
        <ele>73</ele>
        <time>2021-08-09T10:34:55Z</time>
      </trkpt>
      <trkpt lat="48.17243" lon="-3.00004">
        <ele>73</ele>
        <time>2021-08-09T10:34:56Z</time>
      </trkpt>
      <trkpt lat="48.17244" lon="-3.00011">
        <ele>73</ele>
        <time>2021-08-09T10:34:57Z</time>
      </trkpt>
      <trkpt lat="48.17245" lon="-3.00018">
        <ele>73</ele>
        <time>2021-08-09T10:34:58Z</time>
      </trkpt>
      <trkpt lat="48.17248" lon="-3.00034">
        <ele>73.2</ele>
        <time>2021-08-09T10:35:00Z</time>
      </trkpt>
      <trkpt lat="48.17249" lon="-3.00042">
        <ele>73.2</ele>
        <time>2021-08-09T10:35:01Z</time>
      </trkpt>
      <trkpt lat="48.17251" lon="-3.00048">
        <ele>73.2</ele>
        <time>2021-08-09T10:35:02Z</time>
      </trkpt>
      <trkpt lat="48.17252" lon="-3.00056">
        <ele>73.2</ele>
        <time>2021-08-09T10:35:03Z</time>
      </trkpt>
      <trkpt lat="48.17253" lon="-3.00063">
        <ele>73.2</ele>
        <time>2021-08-09T10:35:04Z</time>
      </trkpt>
      <trkpt lat="48.17254" lon="-3.00069">
        <ele>73.2</ele>
        <time>2021-08-09T10:35:05Z</time>
      </trkpt>
      <trkpt lat="48.17255" lon="-3.00075">
        <ele>73.2</ele>
        <time>2021-08-09T10:35:06Z</time>
      </trkpt>
      <trkpt lat="48.17257" lon="-3.00081">
        <ele>73.2</ele>
        <time>2021-08-09T10:35:07Z</time>
      </trkpt>
      <trkpt lat="48.17258" lon="-3.00087">
        <ele>73.4</ele>
        <time>2021-08-09T10:35:08Z</time>
      </trkpt>
      <trkpt lat="48.17259" lon="-3.00093">
        <ele>73.4</ele>
        <time>2021-08-09T10:35:09Z</time>
      </trkpt>
      <trkpt lat="48.1726" lon="-3.00098">
        <ele>73.6</ele>
        <time>2021-08-09T10:35:10Z</time>
      </trkpt>
      <trkpt lat="48.17262" lon="-3.00104">
        <ele>73.6</ele>
        <time>2021-08-09T10:35:11Z</time>
      </trkpt>
      <trkpt lat="48.17263" lon="-3.0011">
        <ele>73.6</ele>
        <time>2021-08-09T10:35:12Z</time>
      </trkpt>
      <trkpt lat="48.17265" lon="-3.00116">
        <ele>73.6</ele>
        <time>2021-08-09T10:35:13Z</time>
      </trkpt>
      <trkpt lat="48.17266" lon="-3.00122">
        <ele>73.8</ele>
        <time>2021-08-09T10:35:14Z</time>
      </trkpt>
      <trkpt lat="48.17267" lon="-3.00129">
        <ele>73.8</ele>
        <time>2021-08-09T10:35:15Z</time>
      </trkpt>
      <trkpt lat="48.17269" lon="-3.00136">
        <ele>73.8</ele>
        <time>2021-08-09T10:35:16Z</time>
      </trkpt>
      <trkpt lat="48.1727" lon="-3.00144">
        <ele>73.8</ele>
        <time>2021-08-09T10:35:17Z</time>
      </trkpt>
      <trkpt lat="48.17271" lon="-3.00151">
        <ele>73.8</ele>
        <time>2021-08-09T10:35:18Z</time>
      </trkpt>
      <trkpt lat="48.17273" lon="-3.00158">
        <ele>73.8</ele>
        <time>2021-08-09T10:35:19Z</time>
      </trkpt>
      <trkpt lat="48.17274" lon="-3.00165">
        <ele>73.8</ele>
        <time>2021-08-09T10:35:20Z</time>
      </trkpt>
      <trkpt lat="48.17276" lon="-3.00178">
        <ele>73.8</ele>
        <time>2021-08-09T10:35:22Z</time>
      </trkpt>
      <trkpt lat="48.17277" lon="-3.00186">
        <ele>73.8</ele>
        <time>2021-08-09T10:35:23Z</time>
      </trkpt>
      <trkpt lat="48.17279" lon="-3.00193">
        <ele>73.8</ele>
        <time>2021-08-09T10:35:24Z</time>
      </trkpt>
      <trkpt lat="48.1728" lon="-3.002">
        <ele>73.8</ele>
        <time>2021-08-09T10:35:25Z</time>
      </trkpt>
      <trkpt lat="48.17281" lon="-3.00207">
        <ele>73.8</ele>
        <time>2021-08-09T10:35:26Z</time>
      </trkpt>
      <trkpt lat="48.17283" lon="-3.00214">
        <ele>73.8</ele>
        <time>2021-08-09T10:35:27Z</time>
      </trkpt>
      <trkpt lat="48.17284" lon="-3.00221">
        <ele>73.8</ele>
        <time>2021-08-09T10:35:28Z</time>
      </trkpt>
      <trkpt lat="48.17285" lon="-3.00229">
        <ele>73.8</ele>
        <time>2021-08-09T10:35:29Z</time>
      </trkpt>
      <trkpt lat="48.17287" lon="-3.00237">
        <ele>73.8</ele>
        <time>2021-08-09T10:35:30Z</time>
      </trkpt>
      <trkpt lat="48.17288" lon="-3.00244">
        <ele>73.8</ele>
        <time>2021-08-09T10:35:31Z</time>
      </trkpt>
      <trkpt lat="48.17291" lon="-3.00259">
        <ele>73.6</ele>
        <time>2021-08-09T10:35:33Z</time>
      </trkpt>
      <trkpt lat="48.17292" lon="-3.00266">
        <ele>73.6</ele>
        <time>2021-08-09T10:35:34Z</time>
      </trkpt>
      <trkpt lat="48.17293" lon="-3.00274">
        <ele>73.6</ele>
        <time>2021-08-09T10:35:35Z</time>
      </trkpt>
      <trkpt lat="48.17295" lon="-3.00281">
        <ele>73.6</ele>
        <time>2021-08-09T10:35:36Z</time>
      </trkpt>
      <trkpt lat="48.17296" lon="-3.00288">
        <ele>73.6</ele>
        <time>2021-08-09T10:35:37Z</time>
      </trkpt>
      <trkpt lat="48.17297" lon="-3.00294">
        <ele>73.6</ele>
        <time>2021-08-09T10:35:38Z</time>
      </trkpt>
      <trkpt lat="48.17299" lon="-3.00301">
        <ele>73.6</ele>
        <time>2021-08-09T10:35:39Z</time>
      </trkpt>
      <trkpt lat="48.173" lon="-3.00307">
        <ele>73.4</ele>
        <time>2021-08-09T10:35:40Z</time>
      </trkpt>
      <trkpt lat="48.17301" lon="-3.00314">
        <ele>73.4</ele>
        <time>2021-08-09T10:35:41Z</time>
      </trkpt>
      <trkpt lat="48.17302" lon="-3.00321">
        <ele>73.4</ele>
        <time>2021-08-09T10:35:42Z</time>
      </trkpt>
      <trkpt lat="48.17304" lon="-3.00335">
        <ele>73.4</ele>
        <time>2021-08-09T10:35:44Z</time>
      </trkpt>
      <trkpt lat="48.17306" lon="-3.00343">
        <ele>73.4</ele>
        <time>2021-08-09T10:35:45Z</time>
      </trkpt>
      <trkpt lat="48.17307" lon="-3.00351">
        <ele>73.4</ele>
        <time>2021-08-09T10:35:46Z</time>
      </trkpt>
      <trkpt lat="48.17308" lon="-3.00359">
        <ele>73.4</ele>
        <time>2021-08-09T10:35:47Z</time>
      </trkpt>
      <trkpt lat="48.17309" lon="-3.00365">
        <ele>73.4</ele>
        <time>2021-08-09T10:35:48Z</time>
      </trkpt>
      <trkpt lat="48.17311" lon="-3.00372">
        <ele>73.6</ele>
        <time>2021-08-09T10:35:49Z</time>
      </trkpt>
      <trkpt lat="48.17312" lon="-3.00379">
        <ele>73.6</ele>
        <time>2021-08-09T10:35:50Z</time>
      </trkpt>
      <trkpt lat="48.17313" lon="-3.00386">
        <ele>73.6</ele>
        <time>2021-08-09T10:35:51Z</time>
      </trkpt>
      <trkpt lat="48.17314" lon="-3.00393">
        <ele>73.6</ele>
        <time>2021-08-09T10:35:52Z</time>
      </trkpt>
      <trkpt lat="48.17316" lon="-3.004">
        <ele>73.6</ele>
        <time>2021-08-09T10:35:53Z</time>
      </trkpt>
      <trkpt lat="48.17318" lon="-3.00414">
        <ele>73.8</ele>
        <time>2021-08-09T10:35:55Z</time>
      </trkpt>
      <trkpt lat="48.17319" lon="-3.00422">
        <ele>73.8</ele>
        <time>2021-08-09T10:35:56Z</time>
      </trkpt>
      <trkpt lat="48.1732" lon="-3.00429">
        <ele>73.8</ele>
        <time>2021-08-09T10:35:57Z</time>
      </trkpt>
      <trkpt lat="48.17322" lon="-3.00437">
        <ele>73.8</ele>
        <time>2021-08-09T10:35:58Z</time>
      </trkpt>
      <trkpt lat="48.17323" lon="-3.00444">
        <ele>73.8</ele>
        <time>2021-08-09T10:35:59Z</time>
      </trkpt>
      <trkpt lat="48.17324" lon="-3.00451">
        <ele>73.8</ele>
        <time>2021-08-09T10:36:00Z</time>
      </trkpt>
      <trkpt lat="48.17325" lon="-3.00458">
        <ele>73.8</ele>
        <time>2021-08-09T10:36:01Z</time>
      </trkpt>
      <trkpt lat="48.17326" lon="-3.00464">
        <ele>73.8</ele>
        <time>2021-08-09T10:36:02Z</time>
      </trkpt>
      <trkpt lat="48.17327" lon="-3.0047">
        <ele>73.8</ele>
        <time>2021-08-09T10:36:03Z</time>
      </trkpt>
      <trkpt lat="48.17328" lon="-3.00475">
        <ele>73.8</ele>
        <time>2021-08-09T10:36:04Z</time>
      </trkpt>
      <trkpt lat="48.1733" lon="-3.00484">
        <ele>73.8</ele>
        <time>2021-08-09T10:36:06Z</time>
      </trkpt>
      <trkpt lat="48.17331" lon="-3.00489">
        <ele>73.8</ele>
        <time>2021-08-09T10:36:07Z</time>
      </trkpt>
      <trkpt lat="48.17332" lon="-3.00493">
        <ele>73.8</ele>
        <time>2021-08-09T10:36:08Z</time>
      </trkpt>
      <trkpt lat="48.17333" lon="-3.00497">
        <ele>74</ele>
        <time>2021-08-09T10:36:09Z</time>
      </trkpt>
      <trkpt lat="48.17334" lon="-3.005">
        <ele>74</ele>
        <time>2021-08-09T10:36:10Z</time>
      </trkpt>
      <trkpt lat="48.17334" lon="-3.00503">
        <ele>74.2</ele>
        <time>2021-08-09T10:36:11Z</time>
      </trkpt>
      <trkpt lat="48.17335" lon="-3.00506">
        <ele>74.2</ele>
        <time>2021-08-09T10:36:12Z</time>
      </trkpt>
      <trkpt lat="48.17336" lon="-3.00509">
        <ele>74.4</ele>
        <time>2021-08-09T10:36:13Z</time>
      </trkpt>
      <trkpt lat="48.17336" lon="-3.00511">
        <ele>74.6</ele>
        <time>2021-08-09T10:36:14Z</time>
      </trkpt>
      <trkpt lat="48.17337" lon="-3.00513">
        <ele>74.6</ele>
        <time>2021-08-09T10:36:15Z</time>
      </trkpt>
      <trkpt lat="48.17337" lon="-3.00518">
        <ele>75.4</ele>
        <time>2021-08-09T10:36:17Z</time>
      </trkpt>
      <trkpt lat="48.17337" lon="-3.00521">
        <ele>75.6</ele>
        <time>2021-08-09T10:36:18Z</time>
      </trkpt>
      <trkpt lat="48.17338" lon="-3.00525">
        <ele>75.6</ele>
        <time>2021-08-09T10:36:19Z</time>
      </trkpt>
      <trkpt lat="48.17338" lon="-3.00529">
        <ele>75.6</ele>
        <time>2021-08-09T10:36:20Z</time>
      </trkpt>
      <trkpt lat="48.17339" lon="-3.00533">
        <ele>75.6</ele>
        <time>2021-08-09T10:36:21Z</time>
      </trkpt>
      <trkpt lat="48.17339" lon="-3.00538">
        <ele>75.6</ele>
        <time>2021-08-09T10:36:22Z</time>
      </trkpt>
      <trkpt lat="48.1734" lon="-3.00543">
        <ele>75.6</ele>
        <time>2021-08-09T10:36:23Z</time>
      </trkpt>
      <trkpt lat="48.17341" lon="-3.00548">
        <ele>75.6</ele>
        <time>2021-08-09T10:36:24Z</time>
      </trkpt>
      <trkpt lat="48.17342" lon="-3.00553">
        <ele>75.8</ele>
        <time>2021-08-09T10:36:25Z</time>
      </trkpt>
      <trkpt lat="48.17343" lon="-3.00557">
        <ele>75.8</ele>
        <time>2021-08-09T10:36:26Z</time>
      </trkpt>
      <trkpt lat="48.17344" lon="-3.00562">
        <ele>75.8</ele>
        <time>2021-08-09T10:36:27Z</time>
      </trkpt>
      <trkpt lat="48.17345" lon="-3.00567">
        <ele>75.6</ele>
        <time>2021-08-09T10:36:28Z</time>
      </trkpt>
      <trkpt lat="48.17346" lon="-3.00573">
        <ele>75.6</ele>
        <time>2021-08-09T10:36:29Z</time>
      </trkpt>
      <trkpt lat="48.17347" lon="-3.00579">
        <ele>75.6</ele>
        <time>2021-08-09T10:36:30Z</time>
      </trkpt>
      <trkpt lat="48.17348" lon="-3.00584">
        <ele>75.6</ele>
        <time>2021-08-09T10:36:31Z</time>
      </trkpt>
      <trkpt lat="48.17349" lon="-3.0059">
        <ele>75.6</ele>
        <time>2021-08-09T10:36:32Z</time>
      </trkpt>
      <trkpt lat="48.1735" lon="-3.00597">
        <ele>75.6</ele>
        <time>2021-08-09T10:36:33Z</time>
      </trkpt>
      <trkpt lat="48.17352" lon="-3.00603">
        <ele>75.6</ele>
        <time>2021-08-09T10:36:34Z</time>
      </trkpt>
      <trkpt lat="48.17353" lon="-3.0061">
        <ele>75.6</ele>
        <time>2021-08-09T10:36:35Z</time>
      </trkpt>
      <trkpt lat="48.17355" lon="-3.00616">
        <ele>75.6</ele>
        <time>2021-08-09T10:36:36Z</time>
      </trkpt>
      <trkpt lat="48.17356" lon="-3.00622">
        <ele>75.6</ele>
        <time>2021-08-09T10:36:37Z</time>
      </trkpt>
      <trkpt lat="48.17359" lon="-3.00635">
        <ele>75.6</ele>
        <time>2021-08-09T10:36:39Z</time>
      </trkpt>
      <trkpt lat="48.17361" lon="-3.00641">
        <ele>75.6</ele>
        <time>2021-08-09T10:36:40Z</time>
      </trkpt>
      <trkpt lat="48.17363" lon="-3.00646">
        <ele>75.6</ele>
        <time>2021-08-09T10:36:41Z</time>
      </trkpt>
      <trkpt lat="48.17364" lon="-3.00652">
        <ele>75.8</ele>
        <time>2021-08-09T10:36:42Z</time>
      </trkpt>
      <trkpt lat="48.17366" lon="-3.00657">
        <ele>75.8</ele>
        <time>2021-08-09T10:36:43Z</time>
      </trkpt>
      <trkpt lat="48.17368" lon="-3.00663">
        <ele>75.8</ele>
        <time>2021-08-09T10:36:44Z</time>
      </trkpt>
      <trkpt lat="48.1737" lon="-3.00668">
        <ele>75.8</ele>
        <time>2021-08-09T10:36:45Z</time>
      </trkpt>
      <trkpt lat="48.17373" lon="-3.00673">
        <ele>75.8</ele>
        <time>2021-08-09T10:36:46Z</time>
      </trkpt>
      <trkpt lat="48.17375" lon="-3.00678">
        <ele>75.8</ele>
        <time>2021-08-09T10:36:47Z</time>
      </trkpt>
      <trkpt lat="48.17378" lon="-3.00682">
        <ele>75.8</ele>
        <time>2021-08-09T10:36:48Z</time>
      </trkpt>
      <trkpt lat="48.17382" lon="-3.00691">
        <ele>75.8</ele>
        <time>2021-08-09T10:36:50Z</time>
      </trkpt>
      <trkpt lat="48.17384" lon="-3.00694">
        <ele>76</ele>
        <time>2021-08-09T10:36:51Z</time>
      </trkpt>
      <trkpt lat="48.17386" lon="-3.00697">
        <ele>76</ele>
        <time>2021-08-09T10:36:52Z</time>
      </trkpt>
      <trkpt lat="48.17389" lon="-3.007">
        <ele>76</ele>
        <time>2021-08-09T10:36:53Z</time>
      </trkpt>
      <trkpt lat="48.17391" lon="-3.00703">
        <ele>76</ele>
        <time>2021-08-09T10:36:54Z</time>
      </trkpt>
      <trkpt lat="48.17394" lon="-3.00707">
        <ele>76</ele>
        <time>2021-08-09T10:36:55Z</time>
      </trkpt>
      <trkpt lat="48.17397" lon="-3.00709">
        <ele>76</ele>
        <time>2021-08-09T10:36:56Z</time>
      </trkpt>
      <trkpt lat="48.174" lon="-3.00711">
        <ele>76</ele>
        <time>2021-08-09T10:36:57Z</time>
      </trkpt>
      <trkpt lat="48.17402" lon="-3.00714">
        <ele>76</ele>
        <time>2021-08-09T10:36:58Z</time>
      </trkpt>
      <trkpt lat="48.17405" lon="-3.00716">
        <ele>76</ele>
        <time>2021-08-09T10:36:59Z</time>
      </trkpt>
      <trkpt lat="48.17409" lon="-3.00719">
        <ele>76</ele>
        <time>2021-08-09T10:37:00Z</time>
      </trkpt>
      <trkpt lat="48.17412" lon="-3.00722">
        <ele>76</ele>
        <time>2021-08-09T10:37:01Z</time>
      </trkpt>
      <trkpt lat="48.17416" lon="-3.00725">
        <ele>76</ele>
        <time>2021-08-09T10:37:02Z</time>
      </trkpt>
      <trkpt lat="48.17421" lon="-3.00729">
        <ele>76</ele>
        <time>2021-08-09T10:37:03Z</time>
      </trkpt>
      <trkpt lat="48.17425" lon="-3.00733">
        <ele>76</ele>
        <time>2021-08-09T10:37:04Z</time>
      </trkpt>
      <trkpt lat="48.17429" lon="-3.00736">
        <ele>76</ele>
        <time>2021-08-09T10:37:05Z</time>
      </trkpt>
      <trkpt lat="48.17433" lon="-3.0074">
        <ele>76</ele>
        <time>2021-08-09T10:37:06Z</time>
      </trkpt>
      <trkpt lat="48.17436" lon="-3.00743">
        <ele>76</ele>
        <time>2021-08-09T10:37:07Z</time>
      </trkpt>
      <trkpt lat="48.1744" lon="-3.00748">
        <ele>76</ele>
        <time>2021-08-09T10:37:08Z</time>
      </trkpt>
      <trkpt lat="48.17444" lon="-3.00753">
        <ele>76</ele>
        <time>2021-08-09T10:37:09Z</time>
      </trkpt>
      <trkpt lat="48.17449" lon="-3.00757">
        <ele>76</ele>
        <time>2021-08-09T10:37:10Z</time>
      </trkpt>
      <trkpt lat="48.17458" lon="-3.00765">
        <ele>76</ele>
        <time>2021-08-09T10:37:12Z</time>
      </trkpt>
      <trkpt lat="48.17463" lon="-3.00769">
        <ele>76</ele>
        <time>2021-08-09T10:37:13Z</time>
      </trkpt>
      <trkpt lat="48.17468" lon="-3.00773">
        <ele>76.2</ele>
        <time>2021-08-09T10:37:14Z</time>
      </trkpt>
      <trkpt lat="48.17473" lon="-3.00776">
        <ele>76</ele>
        <time>2021-08-09T10:37:15Z</time>
      </trkpt>
      <trkpt lat="48.17478" lon="-3.0078">
        <ele>76</ele>
        <time>2021-08-09T10:37:16Z</time>
      </trkpt>
      <trkpt lat="48.17482" lon="-3.00784">
        <ele>76.2</ele>
        <time>2021-08-09T10:37:17Z</time>
      </trkpt>
      <trkpt lat="48.17486" lon="-3.00788">
        <ele>76.2</ele>
        <time>2021-08-09T10:37:18Z</time>
      </trkpt>
      <trkpt lat="48.1749" lon="-3.00791">
        <ele>76.2</ele>
        <time>2021-08-09T10:37:19Z</time>
      </trkpt>
      <trkpt lat="48.17494" lon="-3.00794">
        <ele>76.2</ele>
        <time>2021-08-09T10:37:20Z</time>
      </trkpt>
      <trkpt lat="48.17498" lon="-3.00798">
        <ele>76.2</ele>
        <time>2021-08-09T10:37:21Z</time>
      </trkpt>
      <trkpt lat="48.17506" lon="-3.00805">
        <ele>76.2</ele>
        <time>2021-08-09T10:37:23Z</time>
      </trkpt>
      <trkpt lat="48.1751" lon="-3.00808">
        <ele>76.2</ele>
        <time>2021-08-09T10:37:24Z</time>
      </trkpt>
      <trkpt lat="48.17514" lon="-3.00812">
        <ele>76.2</ele>
        <time>2021-08-09T10:37:25Z</time>
      </trkpt>
      <trkpt lat="48.17518" lon="-3.00815">
        <ele>76.4</ele>
        <time>2021-08-09T10:37:26Z</time>
      </trkpt>
      <trkpt lat="48.17521" lon="-3.00818">
        <ele>76.4</ele>
        <time>2021-08-09T10:37:27Z</time>
      </trkpt>
      <trkpt lat="48.17525" lon="-3.00822">
        <ele>76.4</ele>
        <time>2021-08-09T10:37:28Z</time>
      </trkpt>
      <trkpt lat="48.17528" lon="-3.00824">
        <ele>76.6</ele>
        <time>2021-08-09T10:37:29Z</time>
      </trkpt>
      <trkpt lat="48.17531" lon="-3.00827">
        <ele>76.6</ele>
        <time>2021-08-09T10:37:30Z</time>
      </trkpt>
      <trkpt lat="48.17534" lon="-3.0083">
        <ele>76.8</ele>
        <time>2021-08-09T10:37:31Z</time>
      </trkpt>
      <trkpt lat="48.17536" lon="-3.00834">
        <ele>77</ele>
        <time>2021-08-09T10:37:32Z</time>
      </trkpt>
      <trkpt lat="48.17541" lon="-3.00839">
        <ele>77.2</ele>
        <time>2021-08-09T10:37:34Z</time>
      </trkpt>
      <trkpt lat="48.17543" lon="-3.0084">
        <ele>77.2</ele>
        <time>2021-08-09T10:37:35Z</time>
      </trkpt>
      <trkpt lat="48.17545" lon="-3.00842">
        <ele>77.4</ele>
        <time>2021-08-09T10:37:36Z</time>
      </trkpt>
      <trkpt lat="48.17546" lon="-3.00842">
        <ele>77.4</ele>
        <time>2021-08-09T10:37:37Z</time>
      </trkpt>
      <trkpt lat="48.17547" lon="-3.00842">
        <ele>77.6</ele>
        <time>2021-08-09T10:37:38Z</time>
      </trkpt>
      <trkpt lat="48.17549" lon="-3.00844">
        <ele>77.8</ele>
        <time>2021-08-09T10:37:39Z</time>
      </trkpt>
      <trkpt lat="48.1755" lon="-3.00846">
        <ele>77.8</ele>
        <time>2021-08-09T10:37:40Z</time>
      </trkpt>
      <trkpt lat="48.17551" lon="-3.00848">
        <ele>78.2</ele>
        <time>2021-08-09T10:37:41Z</time>
      </trkpt>
      <trkpt lat="48.17553" lon="-3.0085">
        <ele>78.2</ele>
        <time>2021-08-09T10:37:42Z</time>
      </trkpt>
      <trkpt lat="48.17554" lon="-3.00852">
        <ele>78.6</ele>
        <time>2021-08-09T10:37:43Z</time>
      </trkpt>
      <trkpt lat="48.17558" lon="-3.00855">
        <ele>78.8</ele>
        <time>2021-08-09T10:37:45Z</time>
      </trkpt>
      <trkpt lat="48.1756" lon="-3.00856">
        <ele>79</ele>
        <time>2021-08-09T10:37:46Z</time>
      </trkpt>
      <trkpt lat="48.17561" lon="-3.00857">
        <ele>79</ele>
        <time>2021-08-09T10:37:47Z</time>
      </trkpt>
      <trkpt lat="48.17562" lon="-3.00858">
        <ele>79.2</ele>
        <time>2021-08-09T10:37:48Z</time>
      </trkpt>
      <trkpt lat="48.17564" lon="-3.00859">
        <ele>79.2</ele>
        <time>2021-08-09T10:37:49Z</time>
      </trkpt>
      <trkpt lat="48.17565" lon="-3.00861">
        <ele>79.2</ele>
        <time>2021-08-09T10:37:50Z</time>
      </trkpt>
      <trkpt lat="48.17567" lon="-3.00863">
        <ele>79.4</ele>
        <time>2021-08-09T10:37:51Z</time>
      </trkpt>
      <trkpt lat="48.1757" lon="-3.00866">
        <ele>79.4</ele>
        <time>2021-08-09T10:37:52Z</time>
      </trkpt>
      <trkpt lat="48.17573" lon="-3.00869">
        <ele>79.2</ele>
        <time>2021-08-09T10:37:53Z</time>
      </trkpt>
      <trkpt lat="48.17577" lon="-3.00872">
        <ele>79.4</ele>
        <time>2021-08-09T10:37:54Z</time>
      </trkpt>
      <trkpt lat="48.17583" lon="-3.00878">
        <ele>79.4</ele>
        <time>2021-08-09T10:37:56Z</time>
      </trkpt>
      <trkpt lat="48.17586" lon="-3.0088">
        <ele>79.4</ele>
        <time>2021-08-09T10:37:57Z</time>
      </trkpt>
      <trkpt lat="48.17587" lon="-3.00882">
        <ele>79.4</ele>
        <time>2021-08-09T10:37:58Z</time>
      </trkpt>
      <trkpt lat="48.17588" lon="-3.00883">
        <ele>79.4</ele>
        <time>2021-08-09T10:37:59Z</time>
      </trkpt>
      <trkpt lat="48.17589" lon="-3.00884">
        <ele>79.6</ele>
        <time>2021-08-09T10:38:00Z</time>
      </trkpt>
      <trkpt lat="48.1759" lon="-3.00886">
        <ele>79.4</ele>
        <time>2021-08-09T10:38:03Z</time>
      </trkpt>
      <trkpt lat="48.1759" lon="-3.00887">
        <ele>79.4</ele>
        <time>2021-08-09T10:38:04Z</time>
      </trkpt>
      <trkpt lat="48.17591" lon="-3.00888">
        <ele>79.4</ele>
        <time>2021-08-09T10:38:05Z</time>
      </trkpt>
      <trkpt lat="48.17591" lon="-3.0089">
        <ele>79.4</ele>
        <time>2021-08-09T10:38:06Z</time>
      </trkpt>
      <trkpt lat="48.1759" lon="-3.00892">
        <ele>79.4</ele>
        <time>2021-08-09T10:38:07Z</time>
      </trkpt>
      <trkpt lat="48.17589" lon="-3.00893">
        <ele>79.4</ele>
        <time>2021-08-09T10:38:08Z</time>
      </trkpt>
      <trkpt lat="48.17588" lon="-3.00893">
        <ele>79.4</ele>
        <time>2021-08-09T10:38:09Z</time>
      </trkpt>
      <trkpt lat="48.17587" lon="-3.00893">
        <ele>79.4</ele>
        <time>2021-08-09T10:38:10Z</time>
      </trkpt>
      <trkpt lat="48.17585" lon="-3.00893">
        <ele>79.4</ele>
        <time>2021-08-09T10:38:11Z</time>
      </trkpt>
      <trkpt lat="48.17583" lon="-3.00889">
        <ele>79.4</ele>
        <time>2021-08-09T10:38:13Z</time>
      </trkpt>
      <trkpt lat="48.17582" lon="-3.00886">
        <ele>79.4</ele>
        <time>2021-08-09T10:38:14Z</time>
      </trkpt>
      <trkpt lat="48.17582" lon="-3.00884">
        <ele>79.4</ele>
        <time>2021-08-09T10:38:15Z</time>
      </trkpt>
      <trkpt lat="48.17581" lon="-3.00882">
        <ele>79.4</ele>
        <time>2021-08-09T10:38:16Z</time>
      </trkpt>
      <trkpt lat="48.17581" lon="-3.0088">
        <ele>79.4</ele>
        <time>2021-08-09T10:38:17Z</time>
      </trkpt>
      <trkpt lat="48.17582" lon="-3.0088">
        <ele>79.4</ele>
        <time>2021-08-09T10:38:18Z</time>
      </trkpt>
      <trkpt lat="48.17584" lon="-3.0088">
        <ele>79.4</ele>
        <time>2021-08-09T10:38:19Z</time>
      </trkpt>
      <trkpt lat="48.17585" lon="-3.00882">
        <ele>79.4</ele>
        <time>2021-08-09T10:38:20Z</time>
      </trkpt>
      <trkpt lat="48.17587" lon="-3.00884">
        <ele>79.4</ele>
        <time>2021-08-09T10:38:21Z</time>
      </trkpt>
      <trkpt lat="48.17589" lon="-3.00886">
        <ele>79.4</ele>
        <time>2021-08-09T10:38:22Z</time>
      </trkpt>
      <trkpt lat="48.17592" lon="-3.00892">
        <ele>79.2</ele>
        <time>2021-08-09T10:38:24Z</time>
      </trkpt>
      <trkpt lat="48.17593" lon="-3.00893">
        <ele>79.2</ele>
        <time>2021-08-09T10:38:25Z</time>
      </trkpt>
      <trkpt lat="48.17595" lon="-3.00893">
        <ele>79.2</ele>
        <time>2021-08-09T10:38:26Z</time>
      </trkpt>
      <trkpt lat="48.17597" lon="-3.00893">
        <ele>79.2</ele>
        <time>2021-08-09T10:38:27Z</time>
      </trkpt>
      <trkpt lat="48.17599" lon="-3.00895">
        <ele>79.2</ele>
        <time>2021-08-09T10:38:28Z</time>
      </trkpt>
      <trkpt lat="48.17601" lon="-3.00897">
        <ele>79.2</ele>
        <time>2021-08-09T10:38:29Z</time>
      </trkpt>
      <trkpt lat="48.17603" lon="-3.00898">
        <ele>79</ele>
        <time>2021-08-09T10:38:30Z</time>
      </trkpt>
      <trkpt lat="48.17605" lon="-3.009">
        <ele>79</ele>
        <time>2021-08-09T10:38:31Z</time>
      </trkpt>
      <trkpt lat="48.17607" lon="-3.00902">
        <ele>79</ele>
        <time>2021-08-09T10:38:32Z</time>
      </trkpt>
      <trkpt lat="48.17609" lon="-3.00904">
        <ele>79</ele>
        <time>2021-08-09T10:38:33Z</time>
      </trkpt>
      <trkpt lat="48.17612" lon="-3.00906">
        <ele>79</ele>
        <time>2021-08-09T10:38:34Z</time>
      </trkpt>
      <trkpt lat="48.17615" lon="-3.00908">
        <ele>79</ele>
        <time>2021-08-09T10:38:35Z</time>
      </trkpt>
      <trkpt lat="48.17617" lon="-3.0091">
        <ele>78.8</ele>
        <time>2021-08-09T10:38:36Z</time>
      </trkpt>
      <trkpt lat="48.1762" lon="-3.00912">
        <ele>78.8</ele>
        <time>2021-08-09T10:38:37Z</time>
      </trkpt>
      <trkpt lat="48.17623" lon="-3.00915">
        <ele>78.8</ele>
        <time>2021-08-09T10:38:38Z</time>
      </trkpt>
      <trkpt lat="48.17625" lon="-3.00917">
        <ele>78.8</ele>
        <time>2021-08-09T10:38:39Z</time>
      </trkpt>
      <trkpt lat="48.17628" lon="-3.00919">
        <ele>78.8</ele>
        <time>2021-08-09T10:38:40Z</time>
      </trkpt>
      <trkpt lat="48.17631" lon="-3.00921">
        <ele>78.8</ele>
        <time>2021-08-09T10:38:41Z</time>
      </trkpt>
      <trkpt lat="48.17634" lon="-3.00924">
        <ele>78.8</ele>
        <time>2021-08-09T10:38:42Z</time>
      </trkpt>
      <trkpt lat="48.17637" lon="-3.00926">
        <ele>78.8</ele>
        <time>2021-08-09T10:38:43Z</time>
      </trkpt>
      <trkpt lat="48.1764" lon="-3.00929">
        <ele>78.8</ele>
        <time>2021-08-09T10:38:44Z</time>
      </trkpt>
      <trkpt lat="48.17644" lon="-3.00933">
        <ele>78.8</ele>
        <time>2021-08-09T10:38:45Z</time>
      </trkpt>
      <trkpt lat="48.17647" lon="-3.00936">
        <ele>78.8</ele>
        <time>2021-08-09T10:38:46Z</time>
      </trkpt>
      <trkpt lat="48.17651" lon="-3.00939">
        <ele>78.8</ele>
        <time>2021-08-09T10:38:47Z</time>
      </trkpt>
      <trkpt lat="48.17654" lon="-3.00941">
        <ele>78.6</ele>
        <time>2021-08-09T10:38:48Z</time>
      </trkpt>
      <trkpt lat="48.17657" lon="-3.00944">
        <ele>78.6</ele>
        <time>2021-08-09T10:38:49Z</time>
      </trkpt>
      <trkpt lat="48.17661" lon="-3.00947">
        <ele>78.6</ele>
        <time>2021-08-09T10:38:50Z</time>
      </trkpt>
      <trkpt lat="48.17664" lon="-3.0095">
        <ele>78.6</ele>
        <time>2021-08-09T10:38:51Z</time>
      </trkpt>
      <trkpt lat="48.17668" lon="-3.00953">
        <ele>78.6</ele>
        <time>2021-08-09T10:38:52Z</time>
      </trkpt>
      <trkpt lat="48.17671" lon="-3.00956">
        <ele>78.6</ele>
        <time>2021-08-09T10:38:53Z</time>
      </trkpt>
      <trkpt lat="48.17675" lon="-3.00959">
        <ele>78.6</ele>
        <time>2021-08-09T10:38:54Z</time>
      </trkpt>
      <trkpt lat="48.1768" lon="-3.00962">
        <ele>78.4</ele>
        <time>2021-08-09T10:38:55Z</time>
      </trkpt>
      <trkpt lat="48.17689" lon="-3.00967">
        <ele>78.4</ele>
        <time>2021-08-09T10:38:57Z</time>
      </trkpt>
      <trkpt lat="48.17693" lon="-3.0097">
        <ele>78.4</ele>
        <time>2021-08-09T10:38:58Z</time>
      </trkpt>
      <trkpt lat="48.17698" lon="-3.00972">
        <ele>78.4</ele>
        <time>2021-08-09T10:38:59Z</time>
      </trkpt>
      <trkpt lat="48.17702" lon="-3.00973">
        <ele>78.2</ele>
        <time>2021-08-09T10:39:00Z</time>
      </trkpt>
      <trkpt lat="48.17707" lon="-3.00975">
        <ele>78.2</ele>
        <time>2021-08-09T10:39:01Z</time>
      </trkpt>
      <trkpt lat="48.17711" lon="-3.00977">
        <ele>78</ele>
        <time>2021-08-09T10:39:02Z</time>
      </trkpt>
      <trkpt lat="48.17716" lon="-3.00979">
        <ele>78</ele>
        <time>2021-08-09T10:39:03Z</time>
      </trkpt>
      <trkpt lat="48.1772" lon="-3.0098">
        <ele>78</ele>
        <time>2021-08-09T10:39:04Z</time>
      </trkpt>
      <trkpt lat="48.17725" lon="-3.00981">
        <ele>78</ele>
        <time>2021-08-09T10:39:05Z</time>
      </trkpt>
      <trkpt lat="48.17729" lon="-3.00983">
        <ele>78</ele>
        <time>2021-08-09T10:39:06Z</time>
      </trkpt>
      <trkpt lat="48.17738" lon="-3.00985">
        <ele>77.8</ele>
        <time>2021-08-09T10:39:08Z</time>
      </trkpt>
      <trkpt lat="48.17742" lon="-3.00986">
        <ele>77.8</ele>
        <time>2021-08-09T10:39:09Z</time>
      </trkpt>
      <trkpt lat="48.17747" lon="-3.00987">
        <ele>77.8</ele>
        <time>2021-08-09T10:39:10Z</time>
      </trkpt>
      <trkpt lat="48.17752" lon="-3.00988">
        <ele>77.8</ele>
        <time>2021-08-09T10:39:11Z</time>
      </trkpt>
      <trkpt lat="48.17757" lon="-3.0099">
        <ele>77.8</ele>
        <time>2021-08-09T10:39:12Z</time>
      </trkpt>
      <trkpt lat="48.17762" lon="-3.00991">
        <ele>77.8</ele>
        <time>2021-08-09T10:39:13Z</time>
      </trkpt>
      <trkpt lat="48.17766" lon="-3.00992">
        <ele>77.8</ele>
        <time>2021-08-09T10:39:14Z</time>
      </trkpt>
      <trkpt lat="48.17771" lon="-3.00993">
        <ele>77.8</ele>
        <time>2021-08-09T10:39:15Z</time>
      </trkpt>
      <trkpt lat="48.17775" lon="-3.00994">
        <ele>77.8</ele>
        <time>2021-08-09T10:39:16Z</time>
      </trkpt>
      <trkpt lat="48.1778" lon="-3.00995">
        <ele>77.8</ele>
        <time>2021-08-09T10:39:17Z</time>
      </trkpt>
      <trkpt lat="48.17789" lon="-3.00997">
        <ele>77.8</ele>
        <time>2021-08-09T10:39:19Z</time>
      </trkpt>
      <trkpt lat="48.17793" lon="-3.00998">
        <ele>77.8</ele>
        <time>2021-08-09T10:39:20Z</time>
      </trkpt>
      <trkpt lat="48.17798" lon="-3.00999">
        <ele>77.8</ele>
        <time>2021-08-09T10:39:21Z</time>
      </trkpt>
      <trkpt lat="48.17802" lon="-3.01">
        <ele>77.8</ele>
        <time>2021-08-09T10:39:22Z</time>
      </trkpt>
      <trkpt lat="48.17807" lon="-3.01001">
        <ele>78</ele>
        <time>2021-08-09T10:39:23Z</time>
      </trkpt>
      <trkpt lat="48.17812" lon="-3.01002">
        <ele>78</ele>
        <time>2021-08-09T10:39:24Z</time>
      </trkpt>
      <trkpt lat="48.17817" lon="-3.01003">
        <ele>78</ele>
        <time>2021-08-09T10:39:25Z</time>
      </trkpt>
      <trkpt lat="48.17821" lon="-3.01004">
        <ele>78</ele>
        <time>2021-08-09T10:39:26Z</time>
      </trkpt>
      <trkpt lat="48.17826" lon="-3.01006">
        <ele>78.2</ele>
        <time>2021-08-09T10:39:27Z</time>
      </trkpt>
      <trkpt lat="48.17831" lon="-3.01007">
        <ele>78.2</ele>
        <time>2021-08-09T10:39:28Z</time>
      </trkpt>
      <trkpt lat="48.1784" lon="-3.01009">
        <ele>78.4</ele>
        <time>2021-08-09T10:39:30Z</time>
      </trkpt>
      <trkpt lat="48.17844" lon="-3.0101">
        <ele>78.4</ele>
        <time>2021-08-09T10:39:31Z</time>
      </trkpt>
      <trkpt lat="48.17849" lon="-3.01011">
        <ele>78.4</ele>
        <time>2021-08-09T10:39:32Z</time>
      </trkpt>
      <trkpt lat="48.17853" lon="-3.01013">
        <ele>78.6</ele>
        <time>2021-08-09T10:39:33Z</time>
      </trkpt>
      <trkpt lat="48.17858" lon="-3.01014">
        <ele>78.6</ele>
        <time>2021-08-09T10:39:34Z</time>
      </trkpt>
      <trkpt lat="48.17863" lon="-3.01015">
        <ele>78.6</ele>
        <time>2021-08-09T10:39:35Z</time>
      </trkpt>
      <trkpt lat="48.17868" lon="-3.01016">
        <ele>78.6</ele>
        <time>2021-08-09T10:39:36Z</time>
      </trkpt>
      <trkpt lat="48.17872" lon="-3.01016">
        <ele>78.8</ele>
        <time>2021-08-09T10:39:37Z</time>
      </trkpt>
      <trkpt lat="48.17877" lon="-3.01017">
        <ele>78.8</ele>
        <time>2021-08-09T10:39:38Z</time>
      </trkpt>
      <trkpt lat="48.17882" lon="-3.01018">
        <ele>78.8</ele>
        <time>2021-08-09T10:39:39Z</time>
      </trkpt>
      <trkpt lat="48.17891" lon="-3.01019">
        <ele>78.8</ele>
        <time>2021-08-09T10:39:41Z</time>
      </trkpt>
      <trkpt lat="48.17895" lon="-3.01019">
        <ele>78.8</ele>
        <time>2021-08-09T10:39:42Z</time>
      </trkpt>
      <trkpt lat="48.179" lon="-3.01019">
        <ele>78.8</ele>
        <time>2021-08-09T10:39:43Z</time>
      </trkpt>
      <trkpt lat="48.17904" lon="-3.0102">
        <ele>78.8</ele>
        <time>2021-08-09T10:39:44Z</time>
      </trkpt>
      <trkpt lat="48.17909" lon="-3.0102">
        <ele>78.8</ele>
        <time>2021-08-09T10:39:45Z</time>
      </trkpt>
      <trkpt lat="48.17913" lon="-3.0102">
        <ele>78.8</ele>
        <time>2021-08-09T10:39:46Z</time>
      </trkpt>
      <trkpt lat="48.17917" lon="-3.01021">
        <ele>78.8</ele>
        <time>2021-08-09T10:39:47Z</time>
      </trkpt>
      <trkpt lat="48.17921" lon="-3.01021">
        <ele>78.8</ele>
        <time>2021-08-09T10:39:48Z</time>
      </trkpt>
      <trkpt lat="48.17925" lon="-3.0102">
        <ele>78.8</ele>
        <time>2021-08-09T10:39:49Z</time>
      </trkpt>
      <trkpt lat="48.17928" lon="-3.0102">
        <ele>78.8</ele>
        <time>2021-08-09T10:39:50Z</time>
      </trkpt>
      <trkpt lat="48.17932" lon="-3.0102">
        <ele>78.8</ele>
        <time>2021-08-09T10:39:51Z</time>
      </trkpt>
      <trkpt lat="48.17935" lon="-3.01021">
        <ele>78.8</ele>
        <time>2021-08-09T10:39:52Z</time>
      </trkpt>
      <trkpt lat="48.17939" lon="-3.01021">
        <ele>78.8</ele>
        <time>2021-08-09T10:39:53Z</time>
      </trkpt>
      <trkpt lat="48.17942" lon="-3.0102">
        <ele>78.8</ele>
        <time>2021-08-09T10:39:54Z</time>
      </trkpt>
      <trkpt lat="48.17945" lon="-3.01021">
        <ele>78.8</ele>
        <time>2021-08-09T10:39:55Z</time>
      </trkpt>
      <trkpt lat="48.17949" lon="-3.01021">
        <ele>78.8</ele>
        <time>2021-08-09T10:39:56Z</time>
      </trkpt>
      <trkpt lat="48.17953" lon="-3.01021">
        <ele>78.8</ele>
        <time>2021-08-09T10:39:57Z</time>
      </trkpt>
      <trkpt lat="48.17957" lon="-3.01021">
        <ele>78.8</ele>
        <time>2021-08-09T10:39:58Z</time>
      </trkpt>
      <trkpt lat="48.1796" lon="-3.0102">
        <ele>78.8</ele>
        <time>2021-08-09T10:39:59Z</time>
      </trkpt>
      <trkpt lat="48.17964" lon="-3.0102">
        <ele>78.8</ele>
        <time>2021-08-09T10:40:00Z</time>
      </trkpt>
      <trkpt lat="48.17968" lon="-3.0102">
        <ele>78.8</ele>
        <time>2021-08-09T10:40:01Z</time>
      </trkpt>
      <trkpt lat="48.17977" lon="-3.01021">
        <ele>78.8</ele>
        <time>2021-08-09T10:40:03Z</time>
      </trkpt>
      <trkpt lat="48.17982" lon="-3.01021">
        <ele>78.8</ele>
        <time>2021-08-09T10:40:04Z</time>
      </trkpt>
      <trkpt lat="48.17986" lon="-3.01021">
        <ele>78.8</ele>
        <time>2021-08-09T10:40:05Z</time>
      </trkpt>
      <trkpt lat="48.1799" lon="-3.01021">
        <ele>78.8</ele>
        <time>2021-08-09T10:40:06Z</time>
      </trkpt>
      <trkpt lat="48.17995" lon="-3.01021">
        <ele>78.8</ele>
        <time>2021-08-09T10:40:07Z</time>
      </trkpt>
      <trkpt lat="48.17999" lon="-3.01021">
        <ele>78.8</ele>
        <time>2021-08-09T10:40:08Z</time>
      </trkpt>
      <trkpt lat="48.18004" lon="-3.01021">
        <ele>78.8</ele>
        <time>2021-08-09T10:40:09Z</time>
      </trkpt>
      <trkpt lat="48.18008" lon="-3.01021">
        <ele>78.8</ele>
        <time>2021-08-09T10:40:10Z</time>
      </trkpt>
      <trkpt lat="48.18012" lon="-3.01021">
        <ele>78.8</ele>
        <time>2021-08-09T10:40:11Z</time>
      </trkpt>
      <trkpt lat="48.18017" lon="-3.01022">
        <ele>78.8</ele>
        <time>2021-08-09T10:40:12Z</time>
      </trkpt>
      <trkpt lat="48.18021" lon="-3.01021">
        <ele>78.8</ele>
        <time>2021-08-09T10:40:13Z</time>
      </trkpt>
      <trkpt lat="48.18025" lon="-3.01021">
        <ele>78.8</ele>
        <time>2021-08-09T10:40:14Z</time>
      </trkpt>
      <trkpt lat="48.18029" lon="-3.01021">
        <ele>78.8</ele>
        <time>2021-08-09T10:40:15Z</time>
      </trkpt>
      <trkpt lat="48.18034" lon="-3.01021">
        <ele>78.8</ele>
        <time>2021-08-09T10:40:16Z</time>
      </trkpt>
      <trkpt lat="48.18038" lon="-3.01021">
        <ele>78.6</ele>
        <time>2021-08-09T10:40:17Z</time>
      </trkpt>
      <trkpt lat="48.18042" lon="-3.01021">
        <ele>78.6</ele>
        <time>2021-08-09T10:40:18Z</time>
      </trkpt>
      <trkpt lat="48.18046" lon="-3.01021">
        <ele>78.6</ele>
        <time>2021-08-09T10:40:19Z</time>
      </trkpt>
      <trkpt lat="48.1805" lon="-3.01021">
        <ele>78.6</ele>
        <time>2021-08-09T10:40:20Z</time>
      </trkpt>
      <trkpt lat="48.18054" lon="-3.01022">
        <ele>78.6</ele>
        <time>2021-08-09T10:40:21Z</time>
      </trkpt>
      <trkpt lat="48.18058" lon="-3.01022">
        <ele>78.6</ele>
        <time>2021-08-09T10:40:22Z</time>
      </trkpt>
      <trkpt lat="48.18062" lon="-3.01024">
        <ele>78.8</ele>
        <time>2021-08-09T10:40:23Z</time>
      </trkpt>
      <trkpt lat="48.18069" lon="-3.01026">
        <ele>78.8</ele>
        <time>2021-08-09T10:40:25Z</time>
      </trkpt>
      <trkpt lat="48.18072" lon="-3.01027">
        <ele>78.8</ele>
        <time>2021-08-09T10:40:26Z</time>
      </trkpt>
      <trkpt lat="48.18076" lon="-3.01029">
        <ele>78.8</ele>
        <time>2021-08-09T10:40:27Z</time>
      </trkpt>
      <trkpt lat="48.1808" lon="-3.0103">
        <ele>78.8</ele>
        <time>2021-08-09T10:40:28Z</time>
      </trkpt>
      <trkpt lat="48.18083" lon="-3.01031">
        <ele>79</ele>
        <time>2021-08-09T10:40:29Z</time>
      </trkpt>
      <trkpt lat="48.18086" lon="-3.01032">
        <ele>79</ele>
        <time>2021-08-09T10:40:30Z</time>
      </trkpt>
      <trkpt lat="48.18089" lon="-3.01034">
        <ele>79</ele>
        <time>2021-08-09T10:40:31Z</time>
      </trkpt>
      <trkpt lat="48.18093" lon="-3.01035">
        <ele>79</ele>
        <time>2021-08-09T10:40:32Z</time>
      </trkpt>
      <trkpt lat="48.18096" lon="-3.01036">
        <ele>79</ele>
        <time>2021-08-09T10:40:33Z</time>
      </trkpt>
      <trkpt lat="48.18099" lon="-3.01037">
        <ele>79</ele>
        <time>2021-08-09T10:40:34Z</time>
      </trkpt>
      <trkpt lat="48.18106" lon="-3.01038">
        <ele>79</ele>
        <time>2021-08-09T10:40:36Z</time>
      </trkpt>
      <trkpt lat="48.18109" lon="-3.01039">
        <ele>79</ele>
        <time>2021-08-09T10:40:37Z</time>
      </trkpt>
      <trkpt lat="48.18113" lon="-3.0104">
        <ele>79</ele>
        <time>2021-08-09T10:40:38Z</time>
      </trkpt>
      <trkpt lat="48.18116" lon="-3.01041">
        <ele>79</ele>
        <time>2021-08-09T10:40:39Z</time>
      </trkpt>
      <trkpt lat="48.18119" lon="-3.01041">
        <ele>79</ele>
        <time>2021-08-09T10:40:40Z</time>
      </trkpt>
      <trkpt lat="48.18122" lon="-3.01042">
        <ele>79</ele>
        <time>2021-08-09T10:40:41Z</time>
      </trkpt>
      <trkpt lat="48.18126" lon="-3.01043">
        <ele>79</ele>
        <time>2021-08-09T10:40:42Z</time>
      </trkpt>
      <trkpt lat="48.18129" lon="-3.01044">
        <ele>79</ele>
        <time>2021-08-09T10:40:43Z</time>
      </trkpt>
      <trkpt lat="48.18133" lon="-3.01045">
        <ele>79</ele>
        <time>2021-08-09T10:40:44Z</time>
      </trkpt>
      <trkpt lat="48.18137" lon="-3.01046">
        <ele>79</ele>
        <time>2021-08-09T10:40:45Z</time>
      </trkpt>
      <trkpt lat="48.18144" lon="-3.01047">
        <ele>79</ele>
        <time>2021-08-09T10:40:47Z</time>
      </trkpt>
      <trkpt lat="48.18148" lon="-3.01048">
        <ele>79</ele>
        <time>2021-08-09T10:40:48Z</time>
      </trkpt>
      <trkpt lat="48.18152" lon="-3.01048">
        <ele>79</ele>
        <time>2021-08-09T10:40:49Z</time>
      </trkpt>
      <trkpt lat="48.18156" lon="-3.01049">
        <ele>79</ele>
        <time>2021-08-09T10:40:50Z</time>
      </trkpt>
      <trkpt lat="48.18159" lon="-3.01049">
        <ele>79</ele>
        <time>2021-08-09T10:40:51Z</time>
      </trkpt>
      <trkpt lat="48.18162" lon="-3.01049">
        <ele>79</ele>
        <time>2021-08-09T10:40:52Z</time>
      </trkpt>
      <trkpt lat="48.18166" lon="-3.01049">
        <ele>79</ele>
        <time>2021-08-09T10:40:53Z</time>
      </trkpt>
      <trkpt lat="48.1817" lon="-3.01049">
        <ele>79</ele>
        <time>2021-08-09T10:40:54Z</time>
      </trkpt>
      <trkpt lat="48.18174" lon="-3.01049">
        <ele>79</ele>
        <time>2021-08-09T10:40:55Z</time>
      </trkpt>
      <trkpt lat="48.18179" lon="-3.01049">
        <ele>79</ele>
        <time>2021-08-09T10:40:56Z</time>
      </trkpt>
      <trkpt lat="48.18183" lon="-3.01049">
        <ele>79.2</ele>
        <time>2021-08-09T10:40:57Z</time>
      </trkpt>
      <trkpt lat="48.18187" lon="-3.01049">
        <ele>79.2</ele>
        <time>2021-08-09T10:40:58Z</time>
      </trkpt>
      <trkpt lat="48.18192" lon="-3.01049">
        <ele>79.2</ele>
        <time>2021-08-09T10:40:59Z</time>
      </trkpt>
      <trkpt lat="48.18196" lon="-3.01049">
        <ele>79.2</ele>
        <time>2021-08-09T10:41:00Z</time>
      </trkpt>
      <trkpt lat="48.182" lon="-3.01049">
        <ele>79.2</ele>
        <time>2021-08-09T10:41:01Z</time>
      </trkpt>
      <trkpt lat="48.18204" lon="-3.01049">
        <ele>79.2</ele>
        <time>2021-08-09T10:41:02Z</time>
      </trkpt>
      <trkpt lat="48.18208" lon="-3.01049">
        <ele>79.2</ele>
        <time>2021-08-09T10:41:03Z</time>
      </trkpt>
      <trkpt lat="48.18212" lon="-3.01049">
        <ele>79.2</ele>
        <time>2021-08-09T10:41:04Z</time>
      </trkpt>
      <trkpt lat="48.18217" lon="-3.0105">
        <ele>79.2</ele>
        <time>2021-08-09T10:41:05Z</time>
      </trkpt>
      <trkpt lat="48.18221" lon="-3.0105">
        <ele>79.2</ele>
        <time>2021-08-09T10:41:06Z</time>
      </trkpt>
      <trkpt lat="48.18225" lon="-3.0105">
        <ele>79.2</ele>
        <time>2021-08-09T10:41:07Z</time>
      </trkpt>
      <trkpt lat="48.18233" lon="-3.01051">
        <ele>79.2</ele>
        <time>2021-08-09T10:41:09Z</time>
      </trkpt>
      <trkpt lat="48.18238" lon="-3.01051">
        <ele>79.2</ele>
        <time>2021-08-09T10:41:10Z</time>
      </trkpt>
      <trkpt lat="48.18242" lon="-3.01051">
        <ele>79.2</ele>
        <time>2021-08-09T10:41:11Z</time>
      </trkpt>
      <trkpt lat="48.18246" lon="-3.01051">
        <ele>79.2</ele>
        <time>2021-08-09T10:41:12Z</time>
      </trkpt>
      <trkpt lat="48.18251" lon="-3.01052">
        <ele>79</ele>
        <time>2021-08-09T10:41:13Z</time>
      </trkpt>
      <trkpt lat="48.18255" lon="-3.01052">
        <ele>79</ele>
        <time>2021-08-09T10:41:14Z</time>
      </trkpt>
      <trkpt lat="48.1826" lon="-3.01052">
        <ele>79</ele>
        <time>2021-08-09T10:41:15Z</time>
      </trkpt>
      <trkpt lat="48.18264" lon="-3.01053">
        <ele>79</ele>
        <time>2021-08-09T10:41:16Z</time>
      </trkpt>
      <trkpt lat="48.18268" lon="-3.01052">
        <ele>79</ele>
        <time>2021-08-09T10:41:17Z</time>
      </trkpt>
      <trkpt lat="48.18273" lon="-3.01053">
        <ele>79</ele>
        <time>2021-08-09T10:41:18Z</time>
      </trkpt>
      <trkpt lat="48.18281" lon="-3.01053">
        <ele>79.2</ele>
        <time>2021-08-09T10:41:20Z</time>
      </trkpt>
      <trkpt lat="48.18286" lon="-3.01053">
        <ele>79.2</ele>
        <time>2021-08-09T10:41:21Z</time>
      </trkpt>
      <trkpt lat="48.18291" lon="-3.01053">
        <ele>79.2</ele>
        <time>2021-08-09T10:41:22Z</time>
      </trkpt>
      <trkpt lat="48.18295" lon="-3.01053">
        <ele>79</ele>
        <time>2021-08-09T10:41:23Z</time>
      </trkpt>
      <trkpt lat="48.183" lon="-3.01053">
        <ele>79</ele>
        <time>2021-08-09T10:41:24Z</time>
      </trkpt>
      <trkpt lat="48.18304" lon="-3.01053">
        <ele>79</ele>
        <time>2021-08-09T10:41:25Z</time>
      </trkpt>
      <trkpt lat="48.18309" lon="-3.01053">
        <ele>79</ele>
        <time>2021-08-09T10:41:26Z</time>
      </trkpt>
      <trkpt lat="48.18313" lon="-3.01053">
        <ele>79</ele>
        <time>2021-08-09T10:41:27Z</time>
      </trkpt>
      <trkpt lat="48.18317" lon="-3.01053">
        <ele>79</ele>
        <time>2021-08-09T10:41:28Z</time>
      </trkpt>
      <trkpt lat="48.18322" lon="-3.01053">
        <ele>79</ele>
        <time>2021-08-09T10:41:29Z</time>
      </trkpt>
      <trkpt lat="48.1833" lon="-3.01054">
        <ele>79.2</ele>
        <time>2021-08-09T10:41:31Z</time>
      </trkpt>
      <trkpt lat="48.18334" lon="-3.01055">
        <ele>79.2</ele>
        <time>2021-08-09T10:41:32Z</time>
      </trkpt>
      <trkpt lat="48.18338" lon="-3.01055">
        <ele>79.2</ele>
        <time>2021-08-09T10:41:33Z</time>
      </trkpt>
      <trkpt lat="48.18342" lon="-3.01055">
        <ele>79.2</ele>
        <time>2021-08-09T10:41:34Z</time>
      </trkpt>
      <trkpt lat="48.18346" lon="-3.01055">
        <ele>79.2</ele>
        <time>2021-08-09T10:41:35Z</time>
      </trkpt>
      <trkpt lat="48.1835" lon="-3.01056">
        <ele>79.2</ele>
        <time>2021-08-09T10:41:36Z</time>
      </trkpt>
      <trkpt lat="48.18354" lon="-3.01056">
        <ele>79</ele>
        <time>2021-08-09T10:41:37Z</time>
      </trkpt>
      <trkpt lat="48.18358" lon="-3.01057">
        <ele>79</ele>
        <time>2021-08-09T10:41:38Z</time>
      </trkpt>
      <trkpt lat="48.18362" lon="-3.01058">
        <ele>79</ele>
        <time>2021-08-09T10:41:39Z</time>
      </trkpt>
      <trkpt lat="48.18366" lon="-3.01059">
        <ele>79.2</ele>
        <time>2021-08-09T10:41:40Z</time>
      </trkpt>
      <trkpt lat="48.18373" lon="-3.01063">
        <ele>79.2</ele>
        <time>2021-08-09T10:41:42Z</time>
      </trkpt>
      <trkpt lat="48.18376" lon="-3.01065">
        <ele>79.2</ele>
        <time>2021-08-09T10:41:43Z</time>
      </trkpt>
      <trkpt lat="48.18379" lon="-3.01067">
        <ele>79.4</ele>
        <time>2021-08-09T10:41:44Z</time>
      </trkpt>
      <trkpt lat="48.18382" lon="-3.0107">
        <ele>79.4</ele>
        <time>2021-08-09T10:41:45Z</time>
      </trkpt>
      <trkpt lat="48.18385" lon="-3.01072">
        <ele>79.4</ele>
        <time>2021-08-09T10:41:46Z</time>
      </trkpt>
      <trkpt lat="48.18389" lon="-3.01074">
        <ele>79.4</ele>
        <time>2021-08-09T10:41:47Z</time>
      </trkpt>
      <trkpt lat="48.18391" lon="-3.01076">
        <ele>79.4</ele>
        <time>2021-08-09T10:41:48Z</time>
      </trkpt>
      <trkpt lat="48.18395" lon="-3.01078">
        <ele>79.4</ele>
        <time>2021-08-09T10:41:49Z</time>
      </trkpt>
      <trkpt lat="48.18398" lon="-3.01081">
        <ele>79.6</ele>
        <time>2021-08-09T10:41:50Z</time>
      </trkpt>
      <trkpt lat="48.18401" lon="-3.01084">
        <ele>79.6</ele>
        <time>2021-08-09T10:41:51Z</time>
      </trkpt>
      <trkpt lat="48.18408" lon="-3.01089">
        <ele>79.6</ele>
        <time>2021-08-09T10:41:53Z</time>
      </trkpt>
      <trkpt lat="48.18412" lon="-3.01091">
        <ele>79.6</ele>
        <time>2021-08-09T10:41:54Z</time>
      </trkpt>
      <trkpt lat="48.18416" lon="-3.01094">
        <ele>79.6</ele>
        <time>2021-08-09T10:41:55Z</time>
      </trkpt>
      <trkpt lat="48.18419" lon="-3.01097">
        <ele>79.6</ele>
        <time>2021-08-09T10:41:56Z</time>
      </trkpt>
      <trkpt lat="48.18423" lon="-3.011">
        <ele>79.6</ele>
        <time>2021-08-09T10:41:57Z</time>
      </trkpt>
      <trkpt lat="48.18426" lon="-3.01102">
        <ele>79.6</ele>
        <time>2021-08-09T10:41:58Z</time>
      </trkpt>
      <trkpt lat="48.1843" lon="-3.01104">
        <ele>79.6</ele>
        <time>2021-08-09T10:41:59Z</time>
      </trkpt>
      <trkpt lat="48.18434" lon="-3.01106">
        <ele>79.6</ele>
        <time>2021-08-09T10:42:00Z</time>
      </trkpt>
      <trkpt lat="48.18437" lon="-3.01108">
        <ele>79.6</ele>
        <time>2021-08-09T10:42:01Z</time>
      </trkpt>
      <trkpt lat="48.1844" lon="-3.01111">
        <ele>79.4</ele>
        <time>2021-08-09T10:42:02Z</time>
      </trkpt>
      <trkpt lat="48.18447" lon="-3.01115">
        <ele>79.2</ele>
        <time>2021-08-09T10:42:04Z</time>
      </trkpt>
      <trkpt lat="48.18451" lon="-3.01117">
        <ele>79</ele>
        <time>2021-08-09T10:42:05Z</time>
      </trkpt>
      <trkpt lat="48.18455" lon="-3.0112">
        <ele>79</ele>
        <time>2021-08-09T10:42:06Z</time>
      </trkpt>
      <trkpt lat="48.1846" lon="-3.01123">
        <ele>79</ele>
        <time>2021-08-09T10:42:07Z</time>
      </trkpt>
      <trkpt lat="48.18464" lon="-3.01125">
        <ele>79</ele>
        <time>2021-08-09T10:42:08Z</time>
      </trkpt>
      <trkpt lat="48.18468" lon="-3.01128">
        <ele>79</ele>
        <time>2021-08-09T10:42:09Z</time>
      </trkpt>
      <trkpt lat="48.18472" lon="-3.0113">
        <ele>79</ele>
        <time>2021-08-09T10:42:10Z</time>
      </trkpt>
      <trkpt lat="48.18476" lon="-3.01133">
        <ele>79</ele>
        <time>2021-08-09T10:42:11Z</time>
      </trkpt>
      <trkpt lat="48.1848" lon="-3.01136">
        <ele>79</ele>
        <time>2021-08-09T10:42:12Z</time>
      </trkpt>
      <trkpt lat="48.18484" lon="-3.01138">
        <ele>79</ele>
        <time>2021-08-09T10:42:13Z</time>
      </trkpt>
      <trkpt lat="48.18489" lon="-3.01141">
        <ele>79</ele>
        <time>2021-08-09T10:42:14Z</time>
      </trkpt>
      <trkpt lat="48.18493" lon="-3.01143">
        <ele>79</ele>
        <time>2021-08-09T10:42:15Z</time>
      </trkpt>
      <trkpt lat="48.18496" lon="-3.01146">
        <ele>79</ele>
        <time>2021-08-09T10:42:16Z</time>
      </trkpt>
      <trkpt lat="48.185" lon="-3.01148">
        <ele>79</ele>
        <time>2021-08-09T10:42:17Z</time>
      </trkpt>
      <trkpt lat="48.18504" lon="-3.0115">
        <ele>79</ele>
        <time>2021-08-09T10:42:18Z</time>
      </trkpt>
      <trkpt lat="48.18508" lon="-3.01153">
        <ele>79</ele>
        <time>2021-08-09T10:42:19Z</time>
      </trkpt>
      <trkpt lat="48.18511" lon="-3.01155">
        <ele>79</ele>
        <time>2021-08-09T10:42:20Z</time>
      </trkpt>
      <trkpt lat="48.18515" lon="-3.01158">
        <ele>79</ele>
        <time>2021-08-09T10:42:21Z</time>
      </trkpt>
      <trkpt lat="48.18519" lon="-3.0116">
        <ele>79</ele>
        <time>2021-08-09T10:42:22Z</time>
      </trkpt>
      <trkpt lat="48.18524" lon="-3.01163">
        <ele>79</ele>
        <time>2021-08-09T10:42:23Z</time>
      </trkpt>
      <trkpt lat="48.18528" lon="-3.01166">
        <ele>79</ele>
        <time>2021-08-09T10:42:24Z</time>
      </trkpt>
      <trkpt lat="48.18532" lon="-3.01169">
        <ele>79</ele>
        <time>2021-08-09T10:42:25Z</time>
      </trkpt>
      <trkpt lat="48.18536" lon="-3.01171">
        <ele>79</ele>
        <time>2021-08-09T10:42:26Z</time>
      </trkpt>
      <trkpt lat="48.18541" lon="-3.01173">
        <ele>79</ele>
        <time>2021-08-09T10:42:27Z</time>
      </trkpt>
      <trkpt lat="48.18545" lon="-3.01175">
        <ele>79</ele>
        <time>2021-08-09T10:42:28Z</time>
      </trkpt>
      <trkpt lat="48.18549" lon="-3.01177">
        <ele>79</ele>
        <time>2021-08-09T10:42:29Z</time>
      </trkpt>
      <trkpt lat="48.18554" lon="-3.01179">
        <ele>78.8</ele>
        <time>2021-08-09T10:42:30Z</time>
      </trkpt>
      <trkpt lat="48.18558" lon="-3.01182">
        <ele>78.8</ele>
        <time>2021-08-09T10:42:31Z</time>
      </trkpt>
      <trkpt lat="48.18562" lon="-3.01184">
        <ele>78.8</ele>
        <time>2021-08-09T10:42:32Z</time>
      </trkpt>
      <trkpt lat="48.18567" lon="-3.01187">
        <ele>78.6</ele>
        <time>2021-08-09T10:42:33Z</time>
      </trkpt>
      <trkpt lat="48.18571" lon="-3.01189">
        <ele>78.6</ele>
        <time>2021-08-09T10:42:34Z</time>
      </trkpt>
      <trkpt lat="48.18576" lon="-3.01191">
        <ele>78.6</ele>
        <time>2021-08-09T10:42:35Z</time>
      </trkpt>
      <trkpt lat="48.18584" lon="-3.01197">
        <ele>78.6</ele>
        <time>2021-08-09T10:42:37Z</time>
      </trkpt>
      <trkpt lat="48.18588" lon="-3.01199">
        <ele>78.6</ele>
        <time>2021-08-09T10:42:38Z</time>
      </trkpt>
      <trkpt lat="48.18593" lon="-3.01202">
        <ele>78.4</ele>
        <time>2021-08-09T10:42:39Z</time>
      </trkpt>
      <trkpt lat="48.18597" lon="-3.01204">
        <ele>78.4</ele>
        <time>2021-08-09T10:42:40Z</time>
      </trkpt>
      <trkpt lat="48.18601" lon="-3.01206">
        <ele>78.6</ele>
        <time>2021-08-09T10:42:41Z</time>
      </trkpt>
      <trkpt lat="48.18605" lon="-3.01208">
        <ele>78.6</ele>
        <time>2021-08-09T10:42:42Z</time>
      </trkpt>
      <trkpt lat="48.18609" lon="-3.01211">
        <ele>78.6</ele>
        <time>2021-08-09T10:42:43Z</time>
      </trkpt>
      <trkpt lat="48.18613" lon="-3.01213">
        <ele>78.6</ele>
        <time>2021-08-09T10:42:44Z</time>
      </trkpt>
      <trkpt lat="48.18618" lon="-3.01216">
        <ele>78.6</ele>
        <time>2021-08-09T10:42:45Z</time>
      </trkpt>
      <trkpt lat="48.18622" lon="-3.01218">
        <ele>78.6</ele>
        <time>2021-08-09T10:42:46Z</time>
      </trkpt>
      <trkpt lat="48.1863" lon="-3.01223">
        <ele>78.6</ele>
        <time>2021-08-09T10:42:48Z</time>
      </trkpt>
      <trkpt lat="48.18634" lon="-3.01225">
        <ele>78.8</ele>
        <time>2021-08-09T10:42:49Z</time>
      </trkpt>
      <trkpt lat="48.18637" lon="-3.01228">
        <ele>78.8</ele>
        <time>2021-08-09T10:42:50Z</time>
      </trkpt>
      <trkpt lat="48.18641" lon="-3.0123">
        <ele>78.8</ele>
        <time>2021-08-09T10:42:51Z</time>
      </trkpt>
      <trkpt lat="48.18645" lon="-3.01232">
        <ele>79</ele>
        <time>2021-08-09T10:42:52Z</time>
      </trkpt>
      <trkpt lat="48.18649" lon="-3.01234">
        <ele>79</ele>
        <time>2021-08-09T10:42:53Z</time>
      </trkpt>
      <trkpt lat="48.18653" lon="-3.01236">
        <ele>79</ele>
        <time>2021-08-09T10:42:54Z</time>
      </trkpt>
      <trkpt lat="48.18656" lon="-3.01239">
        <ele>79</ele>
        <time>2021-08-09T10:42:55Z</time>
      </trkpt>
      <trkpt lat="48.1866" lon="-3.01241">
        <ele>79</ele>
        <time>2021-08-09T10:42:56Z</time>
      </trkpt>
      <trkpt lat="48.18663" lon="-3.01243">
        <ele>79</ele>
        <time>2021-08-09T10:42:57Z</time>
      </trkpt>
      <trkpt lat="48.1867" lon="-3.01248">
        <ele>79</ele>
        <time>2021-08-09T10:42:59Z</time>
      </trkpt>
      <trkpt lat="48.18674" lon="-3.0125">
        <ele>79</ele>
        <time>2021-08-09T10:43:00Z</time>
      </trkpt>
      <trkpt lat="48.18677" lon="-3.01253">
        <ele>79</ele>
        <time>2021-08-09T10:43:01Z</time>
      </trkpt>
      <trkpt lat="48.18681" lon="-3.01256">
        <ele>79</ele>
        <time>2021-08-09T10:43:02Z</time>
      </trkpt>
      <trkpt lat="48.18685" lon="-3.01258">
        <ele>79</ele>
        <time>2021-08-09T10:43:03Z</time>
      </trkpt>
      <trkpt lat="48.18688" lon="-3.01261">
        <ele>79</ele>
        <time>2021-08-09T10:43:04Z</time>
      </trkpt>
      <trkpt lat="48.18691" lon="-3.01264">
        <ele>78.8</ele>
        <time>2021-08-09T10:43:05Z</time>
      </trkpt>
      <trkpt lat="48.18695" lon="-3.01266">
        <ele>78.8</ele>
        <time>2021-08-09T10:43:06Z</time>
      </trkpt>
      <trkpt lat="48.18698" lon="-3.01269">
        <ele>78.8</ele>
        <time>2021-08-09T10:43:07Z</time>
      </trkpt>
      <trkpt lat="48.18701" lon="-3.01272">
        <ele>78.8</ele>
        <time>2021-08-09T10:43:08Z</time>
      </trkpt>
      <trkpt lat="48.18707" lon="-3.01277">
        <ele>78.8</ele>
        <time>2021-08-09T10:43:10Z</time>
      </trkpt>
      <trkpt lat="48.1871" lon="-3.0128">
        <ele>78.8</ele>
        <time>2021-08-09T10:43:11Z</time>
      </trkpt>
      <trkpt lat="48.18713" lon="-3.01282">
        <ele>78.8</ele>
        <time>2021-08-09T10:43:12Z</time>
      </trkpt>
      <trkpt lat="48.18716" lon="-3.01285">
        <ele>78.8</ele>
        <time>2021-08-09T10:43:13Z</time>
      </trkpt>
      <trkpt lat="48.18719" lon="-3.01289">
        <ele>78.6</ele>
        <time>2021-08-09T10:43:14Z</time>
      </trkpt>
      <trkpt lat="48.18722" lon="-3.01292">
        <ele>78.6</ele>
        <time>2021-08-09T10:43:15Z</time>
      </trkpt>
      <trkpt lat="48.18725" lon="-3.01295">
        <ele>78.6</ele>
        <time>2021-08-09T10:43:16Z</time>
      </trkpt>
      <trkpt lat="48.18728" lon="-3.01299">
        <ele>78.6</ele>
        <time>2021-08-09T10:43:17Z</time>
      </trkpt>
      <trkpt lat="48.18732" lon="-3.01303">
        <ele>78.6</ele>
        <time>2021-08-09T10:43:18Z</time>
      </trkpt>
      <trkpt lat="48.18735" lon="-3.01306">
        <ele>78.6</ele>
        <time>2021-08-09T10:43:19Z</time>
      </trkpt>
      <trkpt lat="48.18741" lon="-3.01314">
        <ele>78.6</ele>
        <time>2021-08-09T10:43:21Z</time>
      </trkpt>
      <trkpt lat="48.18744" lon="-3.01318">
        <ele>78.6</ele>
        <time>2021-08-09T10:43:22Z</time>
      </trkpt>
      <trkpt lat="48.18747" lon="-3.01323">
        <ele>78.8</ele>
        <time>2021-08-09T10:43:23Z</time>
      </trkpt>
      <trkpt lat="48.1875" lon="-3.01327">
        <ele>78.8</ele>
        <time>2021-08-09T10:43:24Z</time>
      </trkpt>
      <trkpt lat="48.18753" lon="-3.01332">
        <ele>78.8</ele>
        <time>2021-08-09T10:43:25Z</time>
      </trkpt>
      <trkpt lat="48.18756" lon="-3.01336">
        <ele>78.8</ele>
        <time>2021-08-09T10:43:26Z</time>
      </trkpt>
      <trkpt lat="48.18759" lon="-3.01341">
        <ele>78.8</ele>
        <time>2021-08-09T10:43:27Z</time>
      </trkpt>
      <trkpt lat="48.18762" lon="-3.01345">
        <ele>78.8</ele>
        <time>2021-08-09T10:43:28Z</time>
      </trkpt>
      <trkpt lat="48.18764" lon="-3.01349">
        <ele>78.6</ele>
        <time>2021-08-09T10:43:29Z</time>
      </trkpt>
      <trkpt lat="48.18767" lon="-3.01353">
        <ele>78.4</ele>
        <time>2021-08-09T10:43:30Z</time>
      </trkpt>
      <trkpt lat="48.18773" lon="-3.01361">
        <ele>78.4</ele>
        <time>2021-08-09T10:43:32Z</time>
      </trkpt>
      <trkpt lat="48.18776" lon="-3.01365">
        <ele>78</ele>
        <time>2021-08-09T10:43:33Z</time>
      </trkpt>
      <trkpt lat="48.18779" lon="-3.0137">
        <ele>78</ele>
        <time>2021-08-09T10:43:34Z</time>
      </trkpt>
      <trkpt lat="48.18782" lon="-3.01374">
        <ele>78</ele>
        <time>2021-08-09T10:43:35Z</time>
      </trkpt>
      <trkpt lat="48.18785" lon="-3.01378">
        <ele>77.8</ele>
        <time>2021-08-09T10:43:36Z</time>
      </trkpt>
      <trkpt lat="48.18788" lon="-3.01382">
        <ele>77.8</ele>
        <time>2021-08-09T10:43:37Z</time>
      </trkpt>
      <trkpt lat="48.18791" lon="-3.01387">
        <ele>77.6</ele>
        <time>2021-08-09T10:43:38Z</time>
      </trkpt>
      <trkpt lat="48.18794" lon="-3.01391">
        <ele>77.4</ele>
        <time>2021-08-09T10:43:39Z</time>
      </trkpt>
      <trkpt lat="48.18797" lon="-3.01395">
        <ele>77.4</ele>
        <time>2021-08-09T10:43:40Z</time>
      </trkpt>
      <trkpt lat="48.18799" lon="-3.01398">
        <ele>77.4</ele>
        <time>2021-08-09T10:43:41Z</time>
      </trkpt>
      <trkpt lat="48.18805" lon="-3.01405">
        <ele>77.4</ele>
        <time>2021-08-09T10:43:43Z</time>
      </trkpt>
      <trkpt lat="48.18807" lon="-3.0141">
        <ele>77.4</ele>
        <time>2021-08-09T10:43:44Z</time>
      </trkpt>
      <trkpt lat="48.1881" lon="-3.01414">
        <ele>77.4</ele>
        <time>2021-08-09T10:43:45Z</time>
      </trkpt>
      <trkpt lat="48.18812" lon="-3.01417">
        <ele>77.4</ele>
        <time>2021-08-09T10:43:46Z</time>
      </trkpt>
      <trkpt lat="48.18815" lon="-3.01421">
        <ele>77.4</ele>
        <time>2021-08-09T10:43:47Z</time>
      </trkpt>
      <trkpt lat="48.18818" lon="-3.01424">
        <ele>77.4</ele>
        <time>2021-08-09T10:43:48Z</time>
      </trkpt>
      <trkpt lat="48.18821" lon="-3.01428">
        <ele>77.4</ele>
        <time>2021-08-09T10:43:49Z</time>
      </trkpt>
      <trkpt lat="48.18823" lon="-3.01432">
        <ele>77.4</ele>
        <time>2021-08-09T10:43:50Z</time>
      </trkpt>
      <trkpt lat="48.18826" lon="-3.01436">
        <ele>77.4</ele>
        <time>2021-08-09T10:43:51Z</time>
      </trkpt>
      <trkpt lat="48.18828" lon="-3.0144">
        <ele>77.6</ele>
        <time>2021-08-09T10:43:52Z</time>
      </trkpt>
      <trkpt lat="48.18831" lon="-3.01443">
        <ele>77.6</ele>
        <time>2021-08-09T10:43:53Z</time>
      </trkpt>
      <trkpt lat="48.18834" lon="-3.01446">
        <ele>77.8</ele>
        <time>2021-08-09T10:43:54Z</time>
      </trkpt>
      <trkpt lat="48.18836" lon="-3.0145">
        <ele>78</ele>
        <time>2021-08-09T10:43:55Z</time>
      </trkpt>
      <trkpt lat="48.18839" lon="-3.01453">
        <ele>78.2</ele>
        <time>2021-08-09T10:43:56Z</time>
      </trkpt>
      <trkpt lat="48.18842" lon="-3.01457">
        <ele>78.2</ele>
        <time>2021-08-09T10:43:57Z</time>
      </trkpt>
      <trkpt lat="48.18845" lon="-3.01461">
        <ele>78.4</ele>
        <time>2021-08-09T10:43:58Z</time>
      </trkpt>
      <trkpt lat="48.18848" lon="-3.01465">
        <ele>78.4</ele>
        <time>2021-08-09T10:43:59Z</time>
      </trkpt>
      <trkpt lat="48.18851" lon="-3.0147">
        <ele>78.4</ele>
        <time>2021-08-09T10:44:00Z</time>
      </trkpt>
      <trkpt lat="48.18854" lon="-3.01474">
        <ele>78.4</ele>
        <time>2021-08-09T10:44:01Z</time>
      </trkpt>
      <trkpt lat="48.18857" lon="-3.01479">
        <ele>78.4</ele>
        <time>2021-08-09T10:44:02Z</time>
      </trkpt>
      <trkpt lat="48.18861" lon="-3.01484">
        <ele>78.4</ele>
        <time>2021-08-09T10:44:03Z</time>
      </trkpt>
      <trkpt lat="48.18867" lon="-3.01493">
        <ele>78.4</ele>
        <time>2021-08-09T10:44:05Z</time>
      </trkpt>
      <trkpt lat="48.1887" lon="-3.01497">
        <ele>78.2</ele>
        <time>2021-08-09T10:44:06Z</time>
      </trkpt>
      <trkpt lat="48.18873" lon="-3.01502">
        <ele>78.2</ele>
        <time>2021-08-09T10:44:07Z</time>
      </trkpt>
      <trkpt lat="48.18876" lon="-3.01506">
        <ele>78.2</ele>
        <time>2021-08-09T10:44:08Z</time>
      </trkpt>
      <trkpt lat="48.18879" lon="-3.0151">
        <ele>78.2</ele>
        <time>2021-08-09T10:44:09Z</time>
      </trkpt>
      <trkpt lat="48.18882" lon="-3.01514">
        <ele>78.2</ele>
        <time>2021-08-09T10:44:10Z</time>
      </trkpt>
      <trkpt lat="48.18885" lon="-3.01518">
        <ele>78</ele>
        <time>2021-08-09T10:44:11Z</time>
      </trkpt>
      <trkpt lat="48.18888" lon="-3.01522">
        <ele>78</ele>
        <time>2021-08-09T10:44:12Z</time>
      </trkpt>
      <trkpt lat="48.18891" lon="-3.01526">
        <ele>78</ele>
        <time>2021-08-09T10:44:13Z</time>
      </trkpt>
      <trkpt lat="48.18894" lon="-3.0153">
        <ele>78</ele>
        <time>2021-08-09T10:44:14Z</time>
      </trkpt>
      <trkpt lat="48.18899" lon="-3.01538">
        <ele>78</ele>
        <time>2021-08-09T10:44:16Z</time>
      </trkpt>
      <trkpt lat="48.18902" lon="-3.01542">
        <ele>78</ele>
        <time>2021-08-09T10:44:17Z</time>
      </trkpt>
      <trkpt lat="48.18904" lon="-3.01546">
        <ele>78</ele>
        <time>2021-08-09T10:44:18Z</time>
      </trkpt>
      <trkpt lat="48.18907" lon="-3.0155">
        <ele>78</ele>
        <time>2021-08-09T10:44:19Z</time>
      </trkpt>
      <trkpt lat="48.18909" lon="-3.01554">
        <ele>78</ele>
        <time>2021-08-09T10:44:20Z</time>
      </trkpt>
      <trkpt lat="48.18912" lon="-3.01558">
        <ele>78</ele>
        <time>2021-08-09T10:44:21Z</time>
      </trkpt>
      <trkpt lat="48.18915" lon="-3.01561">
        <ele>77.8</ele>
        <time>2021-08-09T10:44:22Z</time>
      </trkpt>
      <trkpt lat="48.18918" lon="-3.01565">
        <ele>77.8</ele>
        <time>2021-08-09T10:44:23Z</time>
      </trkpt>
      <trkpt lat="48.18921" lon="-3.01569">
        <ele>77.8</ele>
        <time>2021-08-09T10:44:24Z</time>
      </trkpt>
      <trkpt lat="48.18924" lon="-3.01573">
        <ele>77.8</ele>
        <time>2021-08-09T10:44:25Z</time>
      </trkpt>
      <trkpt lat="48.18929" lon="-3.01581">
        <ele>77.6</ele>
        <time>2021-08-09T10:44:27Z</time>
      </trkpt>
      <trkpt lat="48.18931" lon="-3.01584">
        <ele>77.8</ele>
        <time>2021-08-09T10:44:28Z</time>
      </trkpt>
      <trkpt lat="48.18934" lon="-3.01588">
        <ele>77.6</ele>
        <time>2021-08-09T10:44:29Z</time>
      </trkpt>
      <trkpt lat="48.18936" lon="-3.01591">
        <ele>77.8</ele>
        <time>2021-08-09T10:44:30Z</time>
      </trkpt>
      <trkpt lat="48.18939" lon="-3.01594">
        <ele>77.8</ele>
        <time>2021-08-09T10:44:31Z</time>
      </trkpt>
      <trkpt lat="48.18941" lon="-3.01598">
        <ele>77.8</ele>
        <time>2021-08-09T10:44:32Z</time>
      </trkpt>
      <trkpt lat="48.18944" lon="-3.01602">
        <ele>77.8</ele>
        <time>2021-08-09T10:44:33Z</time>
      </trkpt>
      <trkpt lat="48.18946" lon="-3.01605">
        <ele>77.8</ele>
        <time>2021-08-09T10:44:34Z</time>
      </trkpt>
      <trkpt lat="48.18949" lon="-3.01609">
        <ele>77.8</ele>
        <time>2021-08-09T10:44:35Z</time>
      </trkpt>
      <trkpt lat="48.18951" lon="-3.01611">
        <ele>78</ele>
        <time>2021-08-09T10:44:36Z</time>
      </trkpt>
      <trkpt lat="48.18955" lon="-3.01615">
        <ele>78</ele>
        <time>2021-08-09T10:44:38Z</time>
      </trkpt>
      <trkpt lat="48.18956" lon="-3.01617">
        <ele>78</ele>
        <time>2021-08-09T10:44:39Z</time>
      </trkpt>
      <trkpt lat="48.18958" lon="-3.0162">
        <ele>78.2</ele>
        <time>2021-08-09T10:44:40Z</time>
      </trkpt>
      <trkpt lat="48.18959" lon="-3.01622">
        <ele>78.4</ele>
        <time>2021-08-09T10:44:41Z</time>
      </trkpt>
      <trkpt lat="48.1896" lon="-3.01625">
        <ele>78.4</ele>
        <time>2021-08-09T10:44:42Z</time>
      </trkpt>
      <trkpt lat="48.18961" lon="-3.01628">
        <ele>78.6</ele>
        <time>2021-08-09T10:44:43Z</time>
      </trkpt>
      <trkpt lat="48.18963" lon="-3.01631">
        <ele>78.8</ele>
        <time>2021-08-09T10:44:44Z</time>
      </trkpt>
      <trkpt lat="48.18964" lon="-3.01634">
        <ele>78.8</ele>
        <time>2021-08-09T10:44:45Z</time>
      </trkpt>
      <trkpt lat="48.18966" lon="-3.01637">
        <ele>78.8</ele>
        <time>2021-08-09T10:44:46Z</time>
      </trkpt>
      <trkpt lat="48.18967" lon="-3.01641">
        <ele>79</ele>
        <time>2021-08-09T10:44:47Z</time>
      </trkpt>
      <trkpt lat="48.18971" lon="-3.01649">
        <ele>79.2</ele>
        <time>2021-08-09T10:44:49Z</time>
      </trkpt>
      <trkpt lat="48.18973" lon="-3.01653">
        <ele>79.2</ele>
        <time>2021-08-09T10:44:50Z</time>
      </trkpt>
      <trkpt lat="48.18975" lon="-3.01657">
        <ele>79.2</ele>
        <time>2021-08-09T10:44:51Z</time>
      </trkpt>
      <trkpt lat="48.18977" lon="-3.01661">
        <ele>79.2</ele>
        <time>2021-08-09T10:44:52Z</time>
      </trkpt>
      <trkpt lat="48.18979" lon="-3.01666">
        <ele>79.2</ele>
        <time>2021-08-09T10:44:53Z</time>
      </trkpt>
      <trkpt lat="48.18981" lon="-3.01671">
        <ele>79.2</ele>
        <time>2021-08-09T10:44:54Z</time>
      </trkpt>
      <trkpt lat="48.18983" lon="-3.01675">
        <ele>79.2</ele>
        <time>2021-08-09T10:44:55Z</time>
      </trkpt>
      <trkpt lat="48.18986" lon="-3.01679">
        <ele>79.2</ele>
        <time>2021-08-09T10:44:56Z</time>
      </trkpt>
      <trkpt lat="48.18988" lon="-3.01683">
        <ele>79.2</ele>
        <time>2021-08-09T10:44:57Z</time>
      </trkpt>
      <trkpt lat="48.1899" lon="-3.01687">
        <ele>79.2</ele>
        <time>2021-08-09T10:44:58Z</time>
      </trkpt>
      <trkpt lat="48.18993" lon="-3.01694">
        <ele>79.2</ele>
        <time>2021-08-09T10:45:00Z</time>
      </trkpt>
      <trkpt lat="48.18995" lon="-3.01698">
        <ele>79.2</ele>
        <time>2021-08-09T10:45:01Z</time>
      </trkpt>
      <trkpt lat="48.18996" lon="-3.01701">
        <ele>79.2</ele>
        <time>2021-08-09T10:45:02Z</time>
      </trkpt>
      <trkpt lat="48.18997" lon="-3.01703">
        <ele>79.2</ele>
        <time>2021-08-09T10:45:03Z</time>
      </trkpt>
      <trkpt lat="48.18998" lon="-3.01706">
        <ele>79.2</ele>
        <time>2021-08-09T10:45:04Z</time>
      </trkpt>
      <trkpt lat="48.18999" lon="-3.01708">
        <ele>79.2</ele>
        <time>2021-08-09T10:45:05Z</time>
      </trkpt>
      <trkpt lat="48.19001" lon="-3.0171">
        <ele>79.2</ele>
        <time>2021-08-09T10:45:06Z</time>
      </trkpt>
      <trkpt lat="48.19002" lon="-3.0171">
        <ele>79.2</ele>
        <time>2021-08-09T10:45:07Z</time>
      </trkpt>
      <trkpt lat="48.19004" lon="-3.0171">
        <ele>79.4</ele>
        <time>2021-08-09T10:45:08Z</time>
      </trkpt>
      <trkpt lat="48.19005" lon="-3.01709">
        <ele>79.4</ele>
        <time>2021-08-09T10:45:09Z</time>
      </trkpt>
      <trkpt lat="48.19005" lon="-3.01707">
        <ele>79.4</ele>
        <time>2021-08-09T10:45:10Z</time>
      </trkpt>
      <trkpt lat="48.19005" lon="-3.01705">
        <ele>79.6</ele>
        <time>2021-08-09T10:45:11Z</time>
      </trkpt>
      <trkpt lat="48.19005" lon="-3.01703">
        <ele>79.6</ele>
        <time>2021-08-09T10:45:12Z</time>
      </trkpt>
      <trkpt lat="48.19005" lon="-3.01701">
        <ele>79.8</ele>
        <time>2021-08-09T10:45:13Z</time>
      </trkpt>
      <trkpt lat="48.19004" lon="-3.01698">
        <ele>80.2</ele>
        <time>2021-08-09T10:45:14Z</time>
      </trkpt>
      <trkpt lat="48.19004" lon="-3.01695">
        <ele>80.4</ele>
        <time>2021-08-09T10:45:15Z</time>
      </trkpt>
      <trkpt lat="48.19004" lon="-3.01692">
        <ele>80.6</ele>
        <time>2021-08-09T10:45:16Z</time>
      </trkpt>
      <trkpt lat="48.19003" lon="-3.01688">
        <ele>80.8</ele>
        <time>2021-08-09T10:45:17Z</time>
      </trkpt>
      <trkpt lat="48.19003" lon="-3.01684">
        <ele>80.8</ele>
        <time>2021-08-09T10:45:18Z</time>
      </trkpt>
      <trkpt lat="48.19002" lon="-3.01681">
        <ele>81</ele>
        <time>2021-08-09T10:45:19Z</time>
      </trkpt>
      <trkpt lat="48.19002" lon="-3.01677">
        <ele>81</ele>
        <time>2021-08-09T10:45:20Z</time>
      </trkpt>
      <trkpt lat="48.19" lon="-3.01668">
        <ele>81.2</ele>
        <time>2021-08-09T10:45:22Z</time>
      </trkpt>
      <trkpt lat="48.19" lon="-3.01663">
        <ele>81.2</ele>
        <time>2021-08-09T10:45:23Z</time>
      </trkpt>
      <trkpt lat="48.18999" lon="-3.01659">
        <ele>81.2</ele>
        <time>2021-08-09T10:45:24Z</time>
      </trkpt>
      <trkpt lat="48.18999" lon="-3.01655">
        <ele>81.2</ele>
        <time>2021-08-09T10:45:25Z</time>
      </trkpt>
      <trkpt lat="48.18998" lon="-3.0165">
        <ele>81.2</ele>
        <time>2021-08-09T10:45:26Z</time>
      </trkpt>
      <trkpt lat="48.18997" lon="-3.01646">
        <ele>81.2</ele>
        <time>2021-08-09T10:45:27Z</time>
      </trkpt>
      <trkpt lat="48.18997" lon="-3.01642">
        <ele>81.2</ele>
        <time>2021-08-09T10:45:28Z</time>
      </trkpt>
      <trkpt lat="48.18996" lon="-3.01638">
        <ele>81.2</ele>
        <time>2021-08-09T10:45:29Z</time>
      </trkpt>
      <trkpt lat="48.18995" lon="-3.01635">
        <ele>81.2</ele>
        <time>2021-08-09T10:45:30Z</time>
      </trkpt>
      <trkpt lat="48.18994" lon="-3.01632">
        <ele>81.4</ele>
        <time>2021-08-09T10:45:31Z</time>
      </trkpt>
      <trkpt lat="48.18992" lon="-3.01625">
        <ele>81.4</ele>
        <time>2021-08-09T10:45:33Z</time>
      </trkpt>
      <trkpt lat="48.18991" lon="-3.01622">
        <ele>81.4</ele>
        <time>2021-08-09T10:45:34Z</time>
      </trkpt>
      <trkpt lat="48.1899" lon="-3.01618">
        <ele>81.6</ele>
        <time>2021-08-09T10:45:35Z</time>
      </trkpt>
      <trkpt lat="48.18989" lon="-3.01614">
        <ele>81.8</ele>
        <time>2021-08-09T10:45:36Z</time>
      </trkpt>
      <trkpt lat="48.18989" lon="-3.01611">
        <ele>82</ele>
        <time>2021-08-09T10:45:37Z</time>
      </trkpt>
      <trkpt lat="48.18988" lon="-3.01608">
        <ele>82.2</ele>
        <time>2021-08-09T10:45:38Z</time>
      </trkpt>
      <trkpt lat="48.18987" lon="-3.01605">
        <ele>82.4</ele>
        <time>2021-08-09T10:45:39Z</time>
      </trkpt>
      <trkpt lat="48.18986" lon="-3.01602">
        <ele>82.6</ele>
        <time>2021-08-09T10:45:40Z</time>
      </trkpt>
      <trkpt lat="48.18986" lon="-3.01598">
        <ele>82.6</ele>
        <time>2021-08-09T10:45:41Z</time>
      </trkpt>
      <trkpt lat="48.18986" lon="-3.01595">
        <ele>82.8</ele>
        <time>2021-08-09T10:45:42Z</time>
      </trkpt>
      <trkpt lat="48.18984" lon="-3.01588">
        <ele>83</ele>
        <time>2021-08-09T10:45:44Z</time>
      </trkpt>
      <trkpt lat="48.18983" lon="-3.01585">
        <ele>83.2</ele>
        <time>2021-08-09T10:45:45Z</time>
      </trkpt>
      <trkpt lat="48.18981" lon="-3.0158">
        <ele>83.2</ele>
        <time>2021-08-09T10:45:46Z</time>
      </trkpt>
      <trkpt lat="48.1898" lon="-3.01575">
        <ele>83.4</ele>
        <time>2021-08-09T10:45:47Z</time>
      </trkpt>
      <trkpt lat="48.18978" lon="-3.01571">
        <ele>83.6</ele>
        <time>2021-08-09T10:45:48Z</time>
      </trkpt>
      <trkpt lat="48.18977" lon="-3.01566">
        <ele>83.8</ele>
        <time>2021-08-09T10:45:49Z</time>
      </trkpt>
      <trkpt lat="48.18976" lon="-3.01562">
        <ele>84</ele>
        <time>2021-08-09T10:45:50Z</time>
      </trkpt>
      <trkpt lat="48.18974" lon="-3.01557">
        <ele>84</ele>
        <time>2021-08-09T10:45:51Z</time>
      </trkpt>
      <trkpt lat="48.18973" lon="-3.01553">
        <ele>84.2</ele>
        <time>2021-08-09T10:45:52Z</time>
      </trkpt>
      <trkpt lat="48.18971" lon="-3.01548">
        <ele>84.4</ele>
        <time>2021-08-09T10:45:53Z</time>
      </trkpt>
      <trkpt lat="48.1897" lon="-3.01544">
        <ele>84.6</ele>
        <time>2021-08-09T10:45:54Z</time>
      </trkpt>
      <trkpt lat="48.18969" lon="-3.01539">
        <ele>84.6</ele>
        <time>2021-08-09T10:45:55Z</time>
      </trkpt>
      <trkpt lat="48.18967" lon="-3.01535">
        <ele>84.6</ele>
        <time>2021-08-09T10:45:56Z</time>
      </trkpt>
      <trkpt lat="48.18966" lon="-3.01531">
        <ele>84.8</ele>
        <time>2021-08-09T10:45:57Z</time>
      </trkpt>
      <trkpt lat="48.18964" lon="-3.01526">
        <ele>84.8</ele>
        <time>2021-08-09T10:45:58Z</time>
      </trkpt>
      <trkpt lat="48.18963" lon="-3.01522">
        <ele>84.8</ele>
        <time>2021-08-09T10:45:59Z</time>
      </trkpt>
      <trkpt lat="48.18961" lon="-3.01518">
        <ele>84.8</ele>
        <time>2021-08-09T10:46:00Z</time>
      </trkpt>
      <trkpt lat="48.1896" lon="-3.01514">
        <ele>85</ele>
        <time>2021-08-09T10:46:01Z</time>
      </trkpt>
      <trkpt lat="48.18958" lon="-3.0151">
        <ele>85</ele>
        <time>2021-08-09T10:46:02Z</time>
      </trkpt>
      <trkpt lat="48.18957" lon="-3.01506">
        <ele>85.2</ele>
        <time>2021-08-09T10:46:03Z</time>
      </trkpt>
      <trkpt lat="48.18956" lon="-3.01502">
        <ele>85.2</ele>
        <time>2021-08-09T10:46:04Z</time>
      </trkpt>
      <trkpt lat="48.18953" lon="-3.01494">
        <ele>85.4</ele>
        <time>2021-08-09T10:46:06Z</time>
      </trkpt>
      <trkpt lat="48.18952" lon="-3.01491">
        <ele>85.6</ele>
        <time>2021-08-09T10:46:07Z</time>
      </trkpt>
      <trkpt lat="48.1895" lon="-3.01487">
        <ele>85.6</ele>
        <time>2021-08-09T10:46:08Z</time>
      </trkpt>
      <trkpt lat="48.18949" lon="-3.01483">
        <ele>85.6</ele>
        <time>2021-08-09T10:46:09Z</time>
      </trkpt>
      <trkpt lat="48.18947" lon="-3.01479">
        <ele>85.8</ele>
        <time>2021-08-09T10:46:10Z</time>
      </trkpt>
      <trkpt lat="48.18946" lon="-3.01475">
        <ele>85.8</ele>
        <time>2021-08-09T10:46:11Z</time>
      </trkpt>
      <trkpt lat="48.18944" lon="-3.01471">
        <ele>85.8</ele>
        <time>2021-08-09T10:46:12Z</time>
      </trkpt>
      <trkpt lat="48.18943" lon="-3.01467">
        <ele>86</ele>
        <time>2021-08-09T10:46:13Z</time>
      </trkpt>
      <trkpt lat="48.18941" lon="-3.01464">
        <ele>86</ele>
        <time>2021-08-09T10:46:14Z</time>
      </trkpt>
      <trkpt lat="48.18939" lon="-3.0146">
        <ele>86.2</ele>
        <time>2021-08-09T10:46:15Z</time>
      </trkpt>
      <trkpt lat="48.18936" lon="-3.01453">
        <ele>86.4</ele>
        <time>2021-08-09T10:46:17Z</time>
      </trkpt>
      <trkpt lat="48.18934" lon="-3.0145">
        <ele>86.6</ele>
        <time>2021-08-09T10:46:18Z</time>
      </trkpt>
      <trkpt lat="48.18933" lon="-3.01447">
        <ele>86.8</ele>
        <time>2021-08-09T10:46:19Z</time>
      </trkpt>
      <trkpt lat="48.18931" lon="-3.01443">
        <ele>87</ele>
        <time>2021-08-09T10:46:20Z</time>
      </trkpt>
      <trkpt lat="48.18929" lon="-3.0144">
        <ele>87.2</ele>
        <time>2021-08-09T10:46:21Z</time>
      </trkpt>
      <trkpt lat="48.18928" lon="-3.01437">
        <ele>87.4</ele>
        <time>2021-08-09T10:46:22Z</time>
      </trkpt>
      <trkpt lat="48.18926" lon="-3.01434">
        <ele>87.2</ele>
        <time>2021-08-09T10:46:23Z</time>
      </trkpt>
      <trkpt lat="48.18925" lon="-3.01431">
        <ele>87.4</ele>
        <time>2021-08-09T10:46:24Z</time>
      </trkpt>
      <trkpt lat="48.18923" lon="-3.01429">
        <ele>87.4</ele>
        <time>2021-08-09T10:46:25Z</time>
      </trkpt>
      <trkpt lat="48.18922" lon="-3.01426">
        <ele>87.6</ele>
        <time>2021-08-09T10:46:26Z</time>
      </trkpt>
      <trkpt lat="48.1892" lon="-3.01422">
        <ele>87.8</ele>
        <time>2021-08-09T10:46:28Z</time>
      </trkpt>
      <trkpt lat="48.18918" lon="-3.01419">
        <ele>87.8</ele>
        <time>2021-08-09T10:46:29Z</time>
      </trkpt>
      <trkpt lat="48.18917" lon="-3.01417">
        <ele>87.8</ele>
        <time>2021-08-09T10:46:30Z</time>
      </trkpt>
      <trkpt lat="48.18916" lon="-3.01415">
        <ele>88</ele>
        <time>2021-08-09T10:46:31Z</time>
      </trkpt>
      <trkpt lat="48.18915" lon="-3.01413">
        <ele>88</ele>
        <time>2021-08-09T10:46:32Z</time>
      </trkpt>
      <trkpt lat="48.18914" lon="-3.01412">
        <ele>88</ele>
        <time>2021-08-09T10:46:33Z</time>
      </trkpt>
      <trkpt lat="48.18913" lon="-3.01411">
        <ele>88.2</ele>
        <time>2021-08-09T10:46:34Z</time>
      </trkpt>
      <trkpt lat="48.18912" lon="-3.0141">
        <ele>88.2</ele>
        <time>2021-08-09T10:46:35Z</time>
      </trkpt>
      <trkpt lat="48.18911" lon="-3.01409">
        <ele>88.4</ele>
        <time>2021-08-09T10:46:36Z</time>
      </trkpt>
      <trkpt lat="48.18909" lon="-3.01407">
        <ele>88.4</ele>
        <time>2021-08-09T10:46:37Z</time>
      </trkpt>
      <trkpt lat="48.18908" lon="-3.01404">
        <ele>88.8</ele>
        <time>2021-08-09T10:46:39Z</time>
      </trkpt>
      <trkpt lat="48.18907" lon="-3.01402">
        <ele>88.8</ele>
        <time>2021-08-09T10:46:40Z</time>
      </trkpt>
      <trkpt lat="48.18906" lon="-3.01401">
        <ele>89</ele>
        <time>2021-08-09T10:46:41Z</time>
      </trkpt>
      <trkpt lat="48.18905" lon="-3.014">
        <ele>89</ele>
        <time>2021-08-09T10:46:42Z</time>
      </trkpt>
      <trkpt lat="48.18904" lon="-3.01398">
        <ele>89.2</ele>
        <time>2021-08-09T10:46:43Z</time>
      </trkpt>
      <trkpt lat="48.18903" lon="-3.01397">
        <ele>89.4</ele>
        <time>2021-08-09T10:46:44Z</time>
      </trkpt>
      <trkpt lat="48.18901" lon="-3.01396">
        <ele>89.6</ele>
        <time>2021-08-09T10:46:45Z</time>
      </trkpt>
      <trkpt lat="48.189" lon="-3.01395">
        <ele>89.8</ele>
        <time>2021-08-09T10:46:46Z</time>
      </trkpt>
      <trkpt lat="48.18899" lon="-3.01394">
        <ele>90</ele>
        <time>2021-08-09T10:46:47Z</time>
      </trkpt>
      <trkpt lat="48.18899" lon="-3.01393">
        <ele>90</ele>
        <time>2021-08-09T10:46:48Z</time>
      </trkpt>
      <trkpt lat="48.18897" lon="-3.0139">
        <ele>90.4</ele>
        <time>2021-08-09T10:46:50Z</time>
      </trkpt>
      <trkpt lat="48.18897" lon="-3.01389">
        <ele>90.6</ele>
        <time>2021-08-09T10:46:51Z</time>
      </trkpt>
      <trkpt lat="48.18896" lon="-3.01388">
        <ele>90.8</ele>
        <time>2021-08-09T10:46:52Z</time>
      </trkpt>
      <trkpt lat="48.18895" lon="-3.01387">
        <ele>91</ele>
        <time>2021-08-09T10:46:53Z</time>
      </trkpt>
      <trkpt lat="48.18894" lon="-3.01386">
        <ele>91.2</ele>
        <time>2021-08-09T10:46:54Z</time>
      </trkpt>
      <trkpt lat="48.18892" lon="-3.01384">
        <ele>91.4</ele>
        <time>2021-08-09T10:46:55Z</time>
      </trkpt>
      <trkpt lat="48.18891" lon="-3.01383">
        <ele>91.6</ele>
        <time>2021-08-09T10:46:56Z</time>
      </trkpt>
      <trkpt lat="48.18889" lon="-3.01382">
        <ele>92</ele>
        <time>2021-08-09T10:46:57Z</time>
      </trkpt>
      <trkpt lat="48.18888" lon="-3.01381">
        <ele>92.2</ele>
        <time>2021-08-09T10:46:58Z</time>
      </trkpt>
      <trkpt lat="48.18887" lon="-3.01381">
        <ele>92.4</ele>
        <time>2021-08-09T10:46:59Z</time>
      </trkpt>
      <trkpt lat="48.18884" lon="-3.0138">
        <ele>92.8</ele>
        <time>2021-08-09T10:47:01Z</time>
      </trkpt>
      <trkpt lat="48.18883" lon="-3.01379">
        <ele>93</ele>
        <time>2021-08-09T10:47:02Z</time>
      </trkpt>
      <trkpt lat="48.18882" lon="-3.01378">
        <ele>93.2</ele>
        <time>2021-08-09T10:47:03Z</time>
      </trkpt>
      <trkpt lat="48.18881" lon="-3.01376">
        <ele>93.6</ele>
        <time>2021-08-09T10:47:04Z</time>
      </trkpt>
      <trkpt lat="48.18879" lon="-3.01376">
        <ele>93.8</ele>
        <time>2021-08-09T10:47:05Z</time>
      </trkpt>
      <trkpt lat="48.18878" lon="-3.01375">
        <ele>94</ele>
        <time>2021-08-09T10:47:06Z</time>
      </trkpt>
      <trkpt lat="48.18876" lon="-3.01374">
        <ele>94.2</ele>
        <time>2021-08-09T10:47:07Z</time>
      </trkpt>
      <trkpt lat="48.18875" lon="-3.01373">
        <ele>94.4</ele>
        <time>2021-08-09T10:47:08Z</time>
      </trkpt>
      <trkpt lat="48.18874" lon="-3.01372">
        <ele>94.6</ele>
        <time>2021-08-09T10:47:09Z</time>
      </trkpt>
      <trkpt lat="48.18872" lon="-3.0137">
        <ele>95</ele>
        <time>2021-08-09T10:47:10Z</time>
      </trkpt>
      <trkpt lat="48.1887" lon="-3.01368">
        <ele>95.4</ele>
        <time>2021-08-09T10:47:12Z</time>
      </trkpt>
      <trkpt lat="48.18868" lon="-3.01367">
        <ele>95.6</ele>
        <time>2021-08-09T10:47:13Z</time>
      </trkpt>
      <trkpt lat="48.18867" lon="-3.01365">
        <ele>95.8</ele>
        <time>2021-08-09T10:47:14Z</time>
      </trkpt>
      <trkpt lat="48.18865" lon="-3.01364">
        <ele>96</ele>
        <time>2021-08-09T10:47:15Z</time>
      </trkpt>
      <trkpt lat="48.18864" lon="-3.01363">
        <ele>96.2</ele>
        <time>2021-08-09T10:47:16Z</time>
      </trkpt>
      <trkpt lat="48.18862" lon="-3.01361">
        <ele>96.2</ele>
        <time>2021-08-09T10:47:17Z</time>
      </trkpt>
      <trkpt lat="48.18861" lon="-3.01359">
        <ele>96.4</ele>
        <time>2021-08-09T10:47:18Z</time>
      </trkpt>
      <trkpt lat="48.1886" lon="-3.01358">
        <ele>96.6</ele>
        <time>2021-08-09T10:47:19Z</time>
      </trkpt>
      <trkpt lat="48.18859" lon="-3.01357">
        <ele>96.8</ele>
        <time>2021-08-09T10:47:20Z</time>
      </trkpt>
      <trkpt lat="48.18857" lon="-3.01355">
        <ele>97</ele>
        <time>2021-08-09T10:47:21Z</time>
      </trkpt>
      <trkpt lat="48.18855" lon="-3.01351">
        <ele>97.2</ele>
        <time>2021-08-09T10:47:23Z</time>
      </trkpt>
      <trkpt lat="48.18854" lon="-3.01349">
        <ele>97.4</ele>
        <time>2021-08-09T10:47:24Z</time>
      </trkpt>
      <trkpt lat="48.18853" lon="-3.01347">
        <ele>97.8</ele>
        <time>2021-08-09T10:47:25Z</time>
      </trkpt>
      <trkpt lat="48.18852" lon="-3.01345">
        <ele>98.2</ele>
        <time>2021-08-09T10:47:26Z</time>
      </trkpt>
      <trkpt lat="48.18851" lon="-3.01343">
        <ele>98.4</ele>
        <time>2021-08-09T10:47:27Z</time>
      </trkpt>
      <trkpt lat="48.18851" lon="-3.0134">
        <ele>98.6</ele>
        <time>2021-08-09T10:47:28Z</time>
      </trkpt>
      <trkpt lat="48.1885" lon="-3.01338">
        <ele>98.8</ele>
        <time>2021-08-09T10:47:29Z</time>
      </trkpt>
      <trkpt lat="48.1885" lon="-3.01336">
        <ele>99</ele>
        <time>2021-08-09T10:47:30Z</time>
      </trkpt>
      <trkpt lat="48.1885" lon="-3.01334">
        <ele>99.2</ele>
        <time>2021-08-09T10:47:31Z</time>
      </trkpt>
      <trkpt lat="48.18849" lon="-3.01331">
        <ele>99.4</ele>
        <time>2021-08-09T10:47:32Z</time>
      </trkpt>
      <trkpt lat="48.18848" lon="-3.01327">
        <ele>99.8</ele>
        <time>2021-08-09T10:47:34Z</time>
      </trkpt>
      <trkpt lat="48.18849" lon="-3.01325">
        <ele>100</ele>
        <time>2021-08-09T10:47:35Z</time>
      </trkpt>
      <trkpt lat="48.18849" lon="-3.01323">
        <ele>100.2</ele>
        <time>2021-08-09T10:47:36Z</time>
      </trkpt>
      <trkpt lat="48.1885" lon="-3.01321">
        <ele>100.4</ele>
        <time>2021-08-09T10:47:37Z</time>
      </trkpt>
      <trkpt lat="48.18858" lon="-3.01307">
        <ele>102.2</ele>
        <time>2021-08-09T10:47:46Z</time>
      </trkpt>
      <trkpt lat="48.18858" lon="-3.01306">
        <ele>102.6</ele>
        <time>2021-08-09T10:47:47Z</time>
      </trkpt>
      <trkpt lat="48.18859" lon="-3.01305">
        <ele>102.8</ele>
        <time>2021-08-09T10:47:48Z</time>
      </trkpt>
      <trkpt lat="48.1886" lon="-3.01304">
        <ele>103</ele>
        <time>2021-08-09T10:47:49Z</time>
      </trkpt>
      <trkpt lat="48.18861" lon="-3.01303">
        <ele>103.2</ele>
        <time>2021-08-09T10:47:50Z</time>
      </trkpt>
      <trkpt lat="48.18862" lon="-3.01302">
        <ele>103.6</ele>
        <time>2021-08-09T10:47:51Z</time>
      </trkpt>
      <trkpt lat="48.18863" lon="-3.01301">
        <ele>103.8</ele>
        <time>2021-08-09T10:47:52Z</time>
      </trkpt>
      <trkpt lat="48.18864" lon="-3.013">
        <ele>104</ele>
        <time>2021-08-09T10:47:53Z</time>
      </trkpt>
      <trkpt lat="48.18865" lon="-3.01298">
        <ele>104.6</ele>
        <time>2021-08-09T10:47:54Z</time>
      </trkpt>
      <trkpt lat="48.18866" lon="-3.01297">
        <ele>104.6</ele>
        <time>2021-08-09T10:47:55Z</time>
      </trkpt>
      <trkpt lat="48.18867" lon="-3.01296">
        <ele>104.8</ele>
        <time>2021-08-09T10:47:56Z</time>
      </trkpt>
      <trkpt lat="48.18867" lon="-3.01295">
        <ele>105</ele>
        <time>2021-08-09T10:47:57Z</time>
      </trkpt>
      <trkpt lat="48.18869" lon="-3.01294">
        <ele>105.2</ele>
        <time>2021-08-09T10:47:58Z</time>
      </trkpt>
      <trkpt lat="48.1887" lon="-3.01293">
        <ele>105.2</ele>
        <time>2021-08-09T10:47:59Z</time>
      </trkpt>
      <trkpt lat="48.18872" lon="-3.01291">
        <ele>105.6</ele>
        <time>2021-08-09T10:48:01Z</time>
      </trkpt>
      <trkpt lat="48.18873" lon="-3.01289">
        <ele>106</ele>
        <time>2021-08-09T10:48:02Z</time>
      </trkpt>
      <trkpt lat="48.18874" lon="-3.01288">
        <ele>106</ele>
        <time>2021-08-09T10:48:03Z</time>
      </trkpt>
      <trkpt lat="48.18875" lon="-3.01287">
        <ele>106.2</ele>
        <time>2021-08-09T10:48:04Z</time>
      </trkpt>
      <trkpt lat="48.18876" lon="-3.01286">
        <ele>106.4</ele>
        <time>2021-08-09T10:48:05Z</time>
      </trkpt>
      <trkpt lat="48.18877" lon="-3.01284">
        <ele>106.6</ele>
        <time>2021-08-09T10:48:06Z</time>
      </trkpt>
      <trkpt lat="48.18878" lon="-3.01283">
        <ele>106.8</ele>
        <time>2021-08-09T10:48:07Z</time>
      </trkpt>
      <trkpt lat="48.18879" lon="-3.01281">
        <ele>107</ele>
        <time>2021-08-09T10:48:08Z</time>
      </trkpt>
      <trkpt lat="48.1888" lon="-3.0128">
        <ele>107</ele>
        <time>2021-08-09T10:48:09Z</time>
      </trkpt>
      <trkpt lat="48.18881" lon="-3.01279">
        <ele>107.2</ele>
        <time>2021-08-09T10:48:10Z</time>
      </trkpt>
      <trkpt lat="48.18882" lon="-3.01278">
        <ele>107.4</ele>
        <time>2021-08-09T10:48:11Z</time>
      </trkpt>
      <trkpt lat="48.18883" lon="-3.01276">
        <ele>107.6</ele>
        <time>2021-08-09T10:48:12Z</time>
      </trkpt>
      <trkpt lat="48.18884" lon="-3.01275">
        <ele>107.8</ele>
        <time>2021-08-09T10:48:13Z</time>
      </trkpt>
      <trkpt lat="48.18885" lon="-3.01273">
        <ele>108</ele>
        <time>2021-08-09T10:48:14Z</time>
      </trkpt>
      <trkpt lat="48.18901" lon="-3.01248">
        <ele>111</ele>
        <time>2021-08-09T10:48:31Z</time>
      </trkpt>
      <trkpt lat="48.18902" lon="-3.01246">
        <ele>111</ele>
        <time>2021-08-09T10:48:32Z</time>
      </trkpt>
      <trkpt lat="48.18904" lon="-3.01244">
        <ele>111.2</ele>
        <time>2021-08-09T10:48:33Z</time>
      </trkpt>
      <trkpt lat="48.18907" lon="-3.0124">
        <ele>111.4</ele>
        <time>2021-08-09T10:48:35Z</time>
      </trkpt>
      <trkpt lat="48.18908" lon="-3.01238">
        <ele>111.6</ele>
        <time>2021-08-09T10:48:36Z</time>
      </trkpt>
      <trkpt lat="48.1891" lon="-3.01236">
        <ele>111.8</ele>
        <time>2021-08-09T10:48:37Z</time>
      </trkpt>
      <trkpt lat="48.18911" lon="-3.01235">
        <ele>112</ele>
        <time>2021-08-09T10:48:38Z</time>
      </trkpt>
      <trkpt lat="48.18913" lon="-3.01233">
        <ele>112</ele>
        <time>2021-08-09T10:48:39Z</time>
      </trkpt>
      <trkpt lat="48.18914" lon="-3.01232">
        <ele>112.2</ele>
        <time>2021-08-09T10:48:40Z</time>
      </trkpt>
      <trkpt lat="48.18915" lon="-3.0123">
        <ele>112.6</ele>
        <time>2021-08-09T10:48:41Z</time>
      </trkpt>
      <trkpt lat="48.18916" lon="-3.01228">
        <ele>112.8</ele>
        <time>2021-08-09T10:48:42Z</time>
      </trkpt>
      <trkpt lat="48.18918" lon="-3.01227">
        <ele>113</ele>
        <time>2021-08-09T10:48:43Z</time>
      </trkpt>
      <trkpt lat="48.18919" lon="-3.01226">
        <ele>113.2</ele>
        <time>2021-08-09T10:48:44Z</time>
      </trkpt>
      <trkpt lat="48.1892" lon="-3.01224">
        <ele>113.4</ele>
        <time>2021-08-09T10:48:45Z</time>
      </trkpt>
      <trkpt lat="48.18923" lon="-3.01221">
        <ele>113.8</ele>
        <time>2021-08-09T10:48:47Z</time>
      </trkpt>
      <trkpt lat="48.18924" lon="-3.01219">
        <ele>114</ele>
        <time>2021-08-09T10:48:48Z</time>
      </trkpt>
      <trkpt lat="48.18925" lon="-3.01218">
        <ele>114.2</ele>
        <time>2021-08-09T10:48:49Z</time>
      </trkpt>
      <trkpt lat="48.18926" lon="-3.01216">
        <ele>114.4</ele>
        <time>2021-08-09T10:48:50Z</time>
      </trkpt>
      <trkpt lat="48.18928" lon="-3.01215">
        <ele>114.4</ele>
        <time>2021-08-09T10:48:51Z</time>
      </trkpt>
      <trkpt lat="48.18929" lon="-3.01213">
        <ele>114.6</ele>
        <time>2021-08-09T10:48:52Z</time>
      </trkpt>
      <trkpt lat="48.1893" lon="-3.01212">
        <ele>114.8</ele>
        <time>2021-08-09T10:48:53Z</time>
      </trkpt>
      <trkpt lat="48.18931" lon="-3.0121">
        <ele>115</ele>
        <time>2021-08-09T10:48:54Z</time>
      </trkpt>
      <trkpt lat="48.18934" lon="-3.01208">
        <ele>115.4</ele>
        <time>2021-08-09T10:48:56Z</time>
      </trkpt>
      <trkpt lat="48.18935" lon="-3.01207">
        <ele>115.6</ele>
        <time>2021-08-09T10:48:57Z</time>
      </trkpt>
      <trkpt lat="48.18937" lon="-3.01205">
        <ele>115.8</ele>
        <time>2021-08-09T10:48:58Z</time>
      </trkpt>
      <trkpt lat="48.18938" lon="-3.01204">
        <ele>116</ele>
        <time>2021-08-09T10:48:59Z</time>
      </trkpt>
      <trkpt lat="48.18939" lon="-3.01202">
        <ele>116</ele>
        <time>2021-08-09T10:49:00Z</time>
      </trkpt>
      <trkpt lat="48.18941" lon="-3.012">
        <ele>116.2</ele>
        <time>2021-08-09T10:49:01Z</time>
      </trkpt>
      <trkpt lat="48.18942" lon="-3.01198">
        <ele>116.4</ele>
        <time>2021-08-09T10:49:02Z</time>
      </trkpt>
      <trkpt lat="48.18944" lon="-3.01197">
        <ele>116.6</ele>
        <time>2021-08-09T10:49:03Z</time>
      </trkpt>
      <trkpt lat="48.18945" lon="-3.01195">
        <ele>116.8</ele>
        <time>2021-08-09T10:49:04Z</time>
      </trkpt>
      <trkpt lat="48.18947" lon="-3.01193">
        <ele>116.8</ele>
        <time>2021-08-09T10:49:05Z</time>
      </trkpt>
      <trkpt lat="48.18949" lon="-3.0119">
        <ele>117.4</ele>
        <time>2021-08-09T10:49:07Z</time>
      </trkpt>
      <trkpt lat="48.18951" lon="-3.01189">
        <ele>117.4</ele>
        <time>2021-08-09T10:49:08Z</time>
      </trkpt>
      <trkpt lat="48.18952" lon="-3.01187">
        <ele>117.6</ele>
        <time>2021-08-09T10:49:09Z</time>
      </trkpt>
      <trkpt lat="48.18954" lon="-3.01185">
        <ele>117.8</ele>
        <time>2021-08-09T10:49:10Z</time>
      </trkpt>
      <trkpt lat="48.18955" lon="-3.01184">
        <ele>118</ele>
        <time>2021-08-09T10:49:11Z</time>
      </trkpt>
      <trkpt lat="48.18957" lon="-3.01182">
        <ele>118.2</ele>
        <time>2021-08-09T10:49:12Z</time>
      </trkpt>
      <trkpt lat="48.18958" lon="-3.0118">
        <ele>118.2</ele>
        <time>2021-08-09T10:49:13Z</time>
      </trkpt>
      <trkpt lat="48.18959" lon="-3.01179">
        <ele>118.4</ele>
        <time>2021-08-09T10:49:14Z</time>
      </trkpt>
      <trkpt lat="48.18961" lon="-3.01177">
        <ele>118.6</ele>
        <time>2021-08-09T10:49:15Z</time>
      </trkpt>
      <trkpt lat="48.18962" lon="-3.01175">
        <ele>118.8</ele>
        <time>2021-08-09T10:49:16Z</time>
      </trkpt>
      <trkpt lat="48.18965" lon="-3.01172">
        <ele>119.2</ele>
        <time>2021-08-09T10:49:18Z</time>
      </trkpt>
      <trkpt lat="48.18966" lon="-3.01171">
        <ele>119.2</ele>
        <time>2021-08-09T10:49:19Z</time>
      </trkpt>
      <trkpt lat="48.18968" lon="-3.01169">
        <ele>119.4</ele>
        <time>2021-08-09T10:49:20Z</time>
      </trkpt>
      <trkpt lat="48.18969" lon="-3.01168">
        <ele>119.8</ele>
        <time>2021-08-09T10:49:21Z</time>
      </trkpt>
      <trkpt lat="48.18971" lon="-3.01167">
        <ele>120</ele>
        <time>2021-08-09T10:49:22Z</time>
      </trkpt>
      <trkpt lat="48.18972" lon="-3.01165">
        <ele>120.2</ele>
        <time>2021-08-09T10:49:23Z</time>
      </trkpt>
      <trkpt lat="48.18974" lon="-3.01164">
        <ele>120.4</ele>
        <time>2021-08-09T10:49:24Z</time>
      </trkpt>
      <trkpt lat="48.18975" lon="-3.01162">
        <ele>120.4</ele>
        <time>2021-08-09T10:49:25Z</time>
      </trkpt>
      <trkpt lat="48.18976" lon="-3.01161">
        <ele>120.6</ele>
        <time>2021-08-09T10:49:26Z</time>
      </trkpt>
      <trkpt lat="48.18978" lon="-3.01159">
        <ele>120.6</ele>
        <time>2021-08-09T10:49:27Z</time>
      </trkpt>
      <trkpt lat="48.1898" lon="-3.01155">
        <ele>120.8</ele>
        <time>2021-08-09T10:49:29Z</time>
      </trkpt>
      <trkpt lat="48.18981" lon="-3.01153">
        <ele>121</ele>
        <time>2021-08-09T10:49:30Z</time>
      </trkpt>
      <trkpt lat="48.18983" lon="-3.01151">
        <ele>121.2</ele>
        <time>2021-08-09T10:49:31Z</time>
      </trkpt>
      <trkpt lat="48.18984" lon="-3.01149">
        <ele>121.2</ele>
        <time>2021-08-09T10:49:32Z</time>
      </trkpt>
      <trkpt lat="48.18985" lon="-3.01147">
        <ele>121.4</ele>
        <time>2021-08-09T10:49:33Z</time>
      </trkpt>
      <trkpt lat="48.18986" lon="-3.01146">
        <ele>121.6</ele>
        <time>2021-08-09T10:49:34Z</time>
      </trkpt>
      <trkpt lat="48.18987" lon="-3.01144">
        <ele>121.8</ele>
        <time>2021-08-09T10:49:35Z</time>
      </trkpt>
      <trkpt lat="48.18988" lon="-3.01142">
        <ele>121.8</ele>
        <time>2021-08-09T10:49:36Z</time>
      </trkpt>
      <trkpt lat="48.18989" lon="-3.0114">
        <ele>122</ele>
        <time>2021-08-09T10:49:37Z</time>
      </trkpt>
      <trkpt lat="48.18991" lon="-3.01138">
        <ele>122.2</ele>
        <time>2021-08-09T10:49:38Z</time>
      </trkpt>
      <trkpt lat="48.18993" lon="-3.01135">
        <ele>122.4</ele>
        <time>2021-08-09T10:49:40Z</time>
      </trkpt>
      <trkpt lat="48.18995" lon="-3.01133">
        <ele>122.6</ele>
        <time>2021-08-09T10:49:41Z</time>
      </trkpt>
      <trkpt lat="48.18996" lon="-3.01131">
        <ele>122.6</ele>
        <time>2021-08-09T10:49:42Z</time>
      </trkpt>
      <trkpt lat="48.18997" lon="-3.01129">
        <ele>122.8</ele>
        <time>2021-08-09T10:49:43Z</time>
      </trkpt>
      <trkpt lat="48.18998" lon="-3.01127">
        <ele>122.8</ele>
        <time>2021-08-09T10:49:44Z</time>
      </trkpt>
      <trkpt lat="48.18999" lon="-3.01125">
        <ele>122.8</ele>
        <time>2021-08-09T10:49:45Z</time>
      </trkpt>
      <trkpt lat="48.19" lon="-3.01123">
        <ele>123</ele>
        <time>2021-08-09T10:49:46Z</time>
      </trkpt>
      <trkpt lat="48.19001" lon="-3.01121">
        <ele>123.2</ele>
        <time>2021-08-09T10:49:47Z</time>
      </trkpt>
      <trkpt lat="48.19001" lon="-3.01119">
        <ele>123.4</ele>
        <time>2021-08-09T10:49:48Z</time>
      </trkpt>
      <trkpt lat="48.19002" lon="-3.01117">
        <ele>123.6</ele>
        <time>2021-08-09T10:49:49Z</time>
      </trkpt>
      <trkpt lat="48.19005" lon="-3.01113">
        <ele>124</ele>
        <time>2021-08-09T10:49:51Z</time>
      </trkpt>
      <trkpt lat="48.19006" lon="-3.01112">
        <ele>124.2</ele>
        <time>2021-08-09T10:49:52Z</time>
      </trkpt>
      <trkpt lat="48.19007" lon="-3.0111">
        <ele>124.2</ele>
        <time>2021-08-09T10:49:53Z</time>
      </trkpt>
      <trkpt lat="48.19008" lon="-3.01107">
        <ele>124.4</ele>
        <time>2021-08-09T10:49:54Z</time>
      </trkpt>
      <trkpt lat="48.19009" lon="-3.01105">
        <ele>124.4</ele>
        <time>2021-08-09T10:49:55Z</time>
      </trkpt>
      <trkpt lat="48.1901" lon="-3.01103">
        <ele>124.6</ele>
        <time>2021-08-09T10:49:56Z</time>
      </trkpt>
      <trkpt lat="48.19011" lon="-3.01101">
        <ele>124.8</ele>
        <time>2021-08-09T10:49:57Z</time>
      </trkpt>
      <trkpt lat="48.19012" lon="-3.01099">
        <ele>124.8</ele>
        <time>2021-08-09T10:49:58Z</time>
      </trkpt>
      <trkpt lat="48.19014" lon="-3.01097">
        <ele>125</ele>
        <time>2021-08-09T10:49:59Z</time>
      </trkpt>
      <trkpt lat="48.19015" lon="-3.01095">
        <ele>125.2</ele>
        <time>2021-08-09T10:50:00Z</time>
      </trkpt>
      <trkpt lat="48.19018" lon="-3.0109">
        <ele>125.4</ele>
        <time>2021-08-09T10:50:02Z</time>
      </trkpt>
      <trkpt lat="48.19019" lon="-3.01087">
        <ele>125.6</ele>
        <time>2021-08-09T10:50:03Z</time>
      </trkpt>
      <trkpt lat="48.1902" lon="-3.01085">
        <ele>125.8</ele>
        <time>2021-08-09T10:50:04Z</time>
      </trkpt>
      <trkpt lat="48.19022" lon="-3.01082">
        <ele>125.8</ele>
        <time>2021-08-09T10:50:05Z</time>
      </trkpt>
      <trkpt lat="48.19023" lon="-3.01079">
        <ele>126</ele>
        <time>2021-08-09T10:50:06Z</time>
      </trkpt>
      <trkpt lat="48.19024" lon="-3.01077">
        <ele>126.2</ele>
        <time>2021-08-09T10:50:07Z</time>
      </trkpt>
      <trkpt lat="48.19025" lon="-3.01074">
        <ele>126.4</ele>
        <time>2021-08-09T10:50:08Z</time>
      </trkpt>
      <trkpt lat="48.19027" lon="-3.01071">
        <ele>126.4</ele>
        <time>2021-08-09T10:50:09Z</time>
      </trkpt>
      <trkpt lat="48.19028" lon="-3.01069">
        <ele>126.6</ele>
        <time>2021-08-09T10:50:10Z</time>
      </trkpt>
      <trkpt lat="48.19029" lon="-3.01067">
        <ele>126.6</ele>
        <time>2021-08-09T10:50:11Z</time>
      </trkpt>
      <trkpt lat="48.19033" lon="-3.01062">
        <ele>127</ele>
        <time>2021-08-09T10:50:13Z</time>
      </trkpt>
      <trkpt lat="48.19034" lon="-3.0106">
        <ele>127</ele>
        <time>2021-08-09T10:50:14Z</time>
      </trkpt>
      <trkpt lat="48.19035" lon="-3.01057">
        <ele>127.2</ele>
        <time>2021-08-09T10:50:15Z</time>
      </trkpt>
      <trkpt lat="48.19037" lon="-3.01055">
        <ele>127.4</ele>
        <time>2021-08-09T10:50:16Z</time>
      </trkpt>
      <trkpt lat="48.19038" lon="-3.01052">
        <ele>127.6</ele>
        <time>2021-08-09T10:50:17Z</time>
      </trkpt>
      <trkpt lat="48.19039" lon="-3.01049">
        <ele>127.8</ele>
        <time>2021-08-09T10:50:18Z</time>
      </trkpt>
      <trkpt lat="48.1904" lon="-3.01047">
        <ele>128.2</ele>
        <time>2021-08-09T10:50:19Z</time>
      </trkpt>
      <trkpt lat="48.19041" lon="-3.01044">
        <ele>128.2</ele>
        <time>2021-08-09T10:50:20Z</time>
      </trkpt>
      <trkpt lat="48.19043" lon="-3.01042">
        <ele>128.2</ele>
        <time>2021-08-09T10:50:21Z</time>
      </trkpt>
      <trkpt lat="48.19044" lon="-3.0104">
        <ele>128.4</ele>
        <time>2021-08-09T10:50:22Z</time>
      </trkpt>
      <trkpt lat="48.19047" lon="-3.01036">
        <ele>128.8</ele>
        <time>2021-08-09T10:50:24Z</time>
      </trkpt>
      <trkpt lat="48.19048" lon="-3.01034">
        <ele>128.8</ele>
        <time>2021-08-09T10:50:25Z</time>
      </trkpt>
      <trkpt lat="48.1905" lon="-3.01031">
        <ele>129</ele>
        <time>2021-08-09T10:50:26Z</time>
      </trkpt>
      <trkpt lat="48.19051" lon="-3.01029">
        <ele>129.2</ele>
        <time>2021-08-09T10:50:27Z</time>
      </trkpt>
      <trkpt lat="48.19052" lon="-3.01026">
        <ele>129.2</ele>
        <time>2021-08-09T10:50:28Z</time>
      </trkpt>
      <trkpt lat="48.19053" lon="-3.01023">
        <ele>129.4</ele>
        <time>2021-08-09T10:50:29Z</time>
      </trkpt>
      <trkpt lat="48.19055" lon="-3.01021">
        <ele>129.6</ele>
        <time>2021-08-09T10:50:30Z</time>
      </trkpt>
      <trkpt lat="48.19056" lon="-3.01019">
        <ele>129.8</ele>
        <time>2021-08-09T10:50:31Z</time>
      </trkpt>
      <trkpt lat="48.19057" lon="-3.01016">
        <ele>129.8</ele>
        <time>2021-08-09T10:50:32Z</time>
      </trkpt>
      <trkpt lat="48.19059" lon="-3.01014">
        <ele>130</ele>
        <time>2021-08-09T10:50:33Z</time>
      </trkpt>
      <trkpt lat="48.1906" lon="-3.01011">
        <ele>130</ele>
        <time>2021-08-09T10:50:34Z</time>
      </trkpt>
      <trkpt lat="48.19061" lon="-3.01008">
        <ele>130.2</ele>
        <time>2021-08-09T10:50:35Z</time>
      </trkpt>
      <trkpt lat="48.19062" lon="-3.01006">
        <ele>130.2</ele>
        <time>2021-08-09T10:50:36Z</time>
      </trkpt>
      <trkpt lat="48.19064" lon="-3.01003">
        <ele>130.4</ele>
        <time>2021-08-09T10:50:37Z</time>
      </trkpt>
      <trkpt lat="48.19065" lon="-3.01002">
        <ele>130.4</ele>
        <time>2021-08-09T10:50:38Z</time>
      </trkpt>
      <trkpt lat="48.19067" lon="-3.01">
        <ele>130.4</ele>
        <time>2021-08-09T10:50:39Z</time>
      </trkpt>
      <trkpt lat="48.19068" lon="-3.00998">
        <ele>130.4</ele>
        <time>2021-08-09T10:50:40Z</time>
      </trkpt>
      <trkpt lat="48.1907" lon="-3.00995">
        <ele>130.6</ele>
        <time>2021-08-09T10:50:41Z</time>
      </trkpt>
      <trkpt lat="48.19071" lon="-3.00993">
        <ele>130.8</ele>
        <time>2021-08-09T10:50:42Z</time>
      </trkpt>
      <trkpt lat="48.19073" lon="-3.00991">
        <ele>130.8</ele>
        <time>2021-08-09T10:50:43Z</time>
      </trkpt>
      <trkpt lat="48.19075" lon="-3.00989">
        <ele>131</ele>
        <time>2021-08-09T10:50:44Z</time>
      </trkpt>
      <trkpt lat="48.19078" lon="-3.00986">
        <ele>131.2</ele>
        <time>2021-08-09T10:50:46Z</time>
      </trkpt>
      <trkpt lat="48.1908" lon="-3.00984">
        <ele>131.2</ele>
        <time>2021-08-09T10:50:47Z</time>
      </trkpt>
      <trkpt lat="48.19082" lon="-3.00983">
        <ele>131.4</ele>
        <time>2021-08-09T10:50:48Z</time>
      </trkpt>
      <trkpt lat="48.19084" lon="-3.00982">
        <ele>131.4</ele>
        <time>2021-08-09T10:50:49Z</time>
      </trkpt>
      <trkpt lat="48.19085" lon="-3.0098">
        <ele>131.6</ele>
        <time>2021-08-09T10:50:50Z</time>
      </trkpt>
      <trkpt lat="48.19087" lon="-3.00979">
        <ele>131.6</ele>
        <time>2021-08-09T10:50:51Z</time>
      </trkpt>
      <trkpt lat="48.19088" lon="-3.00978">
        <ele>131.8</ele>
        <time>2021-08-09T10:50:52Z</time>
      </trkpt>
      <trkpt lat="48.1909" lon="-3.00977">
        <ele>131.8</ele>
        <time>2021-08-09T10:50:53Z</time>
      </trkpt>
      <trkpt lat="48.19091" lon="-3.00975">
        <ele>131.8</ele>
        <time>2021-08-09T10:50:54Z</time>
      </trkpt>
      <trkpt lat="48.19093" lon="-3.00974">
        <ele>131.8</ele>
        <time>2021-08-09T10:50:55Z</time>
      </trkpt>
      <trkpt lat="48.19096" lon="-3.00971">
        <ele>132.2</ele>
        <time>2021-08-09T10:50:57Z</time>
      </trkpt>
      <trkpt lat="48.19098" lon="-3.00971">
        <ele>132.2</ele>
        <time>2021-08-09T10:50:58Z</time>
      </trkpt>
      <trkpt lat="48.191" lon="-3.00971">
        <ele>132.4</ele>
        <time>2021-08-09T10:50:59Z</time>
      </trkpt>
      <trkpt lat="48.19101" lon="-3.0097">
        <ele>132.4</ele>
        <time>2021-08-09T10:51:00Z</time>
      </trkpt>
      <trkpt lat="48.19103" lon="-3.0097">
        <ele>132.4</ele>
        <time>2021-08-09T10:51:01Z</time>
      </trkpt>
      <trkpt lat="48.19105" lon="-3.00969">
        <ele>132.6</ele>
        <time>2021-08-09T10:51:02Z</time>
      </trkpt>
      <trkpt lat="48.19106" lon="-3.00968">
        <ele>132.8</ele>
        <time>2021-08-09T10:51:03Z</time>
      </trkpt>
      <trkpt lat="48.19108" lon="-3.00967">
        <ele>132.8</ele>
        <time>2021-08-09T10:51:04Z</time>
      </trkpt>
      <trkpt lat="48.1911" lon="-3.00966">
        <ele>133.2</ele>
        <time>2021-08-09T10:51:05Z</time>
      </trkpt>
      <trkpt lat="48.19111" lon="-3.00966">
        <ele>133.4</ele>
        <time>2021-08-09T10:51:06Z</time>
      </trkpt>
      <trkpt lat="48.19115" lon="-3.00964">
        <ele>133.8</ele>
        <time>2021-08-09T10:51:08Z</time>
      </trkpt>
      <trkpt lat="48.19116" lon="-3.00964">
        <ele>134</ele>
        <time>2021-08-09T10:51:09Z</time>
      </trkpt>
      <trkpt lat="48.19118" lon="-3.00963">
        <ele>134.2</ele>
        <time>2021-08-09T10:51:10Z</time>
      </trkpt>
      <trkpt lat="48.1912" lon="-3.00962">
        <ele>134.4</ele>
        <time>2021-08-09T10:51:11Z</time>
      </trkpt>
      <trkpt lat="48.19121" lon="-3.00961">
        <ele>134.6</ele>
        <time>2021-08-09T10:51:12Z</time>
      </trkpt>
      <trkpt lat="48.19123" lon="-3.00961">
        <ele>135.2</ele>
        <time>2021-08-09T10:51:13Z</time>
      </trkpt>
      <trkpt lat="48.19125" lon="-3.0096">
        <ele>135.2</ele>
        <time>2021-08-09T10:51:14Z</time>
      </trkpt>
      <trkpt lat="48.19126" lon="-3.00959">
        <ele>135.6</ele>
        <time>2021-08-09T10:51:15Z</time>
      </trkpt>
      <trkpt lat="48.19128" lon="-3.00958">
        <ele>135.8</ele>
        <time>2021-08-09T10:51:16Z</time>
      </trkpt>
      <trkpt lat="48.1913" lon="-3.00957">
        <ele>135.8</ele>
        <time>2021-08-09T10:51:17Z</time>
      </trkpt>
      <trkpt lat="48.19131" lon="-3.00957">
        <ele>136</ele>
        <time>2021-08-09T10:51:18Z</time>
      </trkpt>
      <trkpt lat="48.19133" lon="-3.00956">
        <ele>136</ele>
        <time>2021-08-09T10:51:19Z</time>
      </trkpt>
      <trkpt lat="48.19135" lon="-3.00955">
        <ele>136.4</ele>
        <time>2021-08-09T10:51:20Z</time>
      </trkpt>
      <trkpt lat="48.19136" lon="-3.00955">
        <ele>136.6</ele>
        <time>2021-08-09T10:51:21Z</time>
      </trkpt>
      <trkpt lat="48.19138" lon="-3.00954">
        <ele>136.6</ele>
        <time>2021-08-09T10:51:22Z</time>
      </trkpt>
      <trkpt lat="48.1914" lon="-3.00953">
        <ele>137</ele>
        <time>2021-08-09T10:51:23Z</time>
      </trkpt>
      <trkpt lat="48.19141" lon="-3.00952">
        <ele>137</ele>
        <time>2021-08-09T10:51:24Z</time>
      </trkpt>
      <trkpt lat="48.19143" lon="-3.00951">
        <ele>137.2</ele>
        <time>2021-08-09T10:51:25Z</time>
      </trkpt>
      <trkpt lat="48.19145" lon="-3.0095">
        <ele>137.2</ele>
        <time>2021-08-09T10:51:26Z</time>
      </trkpt>
      <trkpt lat="48.19147" lon="-3.00949">
        <ele>137.4</ele>
        <time>2021-08-09T10:51:27Z</time>
      </trkpt>
      <trkpt lat="48.19148" lon="-3.00948">
        <ele>137.6</ele>
        <time>2021-08-09T10:51:28Z</time>
      </trkpt>
      <trkpt lat="48.19152" lon="-3.00946">
        <ele>138</ele>
        <time>2021-08-09T10:51:30Z</time>
      </trkpt>
      <trkpt lat="48.19154" lon="-3.00946">
        <ele>138</ele>
        <time>2021-08-09T10:51:31Z</time>
      </trkpt>
      <trkpt lat="48.19156" lon="-3.00945">
        <ele>138.2</ele>
        <time>2021-08-09T10:51:32Z</time>
      </trkpt>
      <trkpt lat="48.19158" lon="-3.00944">
        <ele>138.4</ele>
        <time>2021-08-09T10:51:33Z</time>
      </trkpt>
      <trkpt lat="48.1916" lon="-3.00943">
        <ele>138.4</ele>
        <time>2021-08-09T10:51:34Z</time>
      </trkpt>
      <trkpt lat="48.19162" lon="-3.00941">
        <ele>138.4</ele>
        <time>2021-08-09T10:51:35Z</time>
      </trkpt>
      <trkpt lat="48.19163" lon="-3.0094">
        <ele>138.6</ele>
        <time>2021-08-09T10:51:36Z</time>
      </trkpt>
      <trkpt lat="48.19165" lon="-3.00938">
        <ele>138.8</ele>
        <time>2021-08-09T10:51:37Z</time>
      </trkpt>
      <trkpt lat="48.19167" lon="-3.00937">
        <ele>138.8</ele>
        <time>2021-08-09T10:51:38Z</time>
      </trkpt>
      <trkpt lat="48.19169" lon="-3.00936">
        <ele>139</ele>
        <time>2021-08-09T10:51:39Z</time>
      </trkpt>
      <trkpt lat="48.19173" lon="-3.00933">
        <ele>139.2</ele>
        <time>2021-08-09T10:51:41Z</time>
      </trkpt>
      <trkpt lat="48.19176" lon="-3.00932">
        <ele>139.4</ele>
        <time>2021-08-09T10:51:42Z</time>
      </trkpt>
      <trkpt lat="48.19178" lon="-3.00931">
        <ele>139.8</ele>
        <time>2021-08-09T10:51:43Z</time>
      </trkpt>
      <trkpt lat="48.1918" lon="-3.0093">
        <ele>139.8</ele>
        <time>2021-08-09T10:51:44Z</time>
      </trkpt>
      <trkpt lat="48.19182" lon="-3.00929">
        <ele>140</ele>
        <time>2021-08-09T10:51:45Z</time>
      </trkpt>
      <trkpt lat="48.19184" lon="-3.00927">
        <ele>140</ele>
        <time>2021-08-09T10:51:46Z</time>
      </trkpt>
      <trkpt lat="48.19186" lon="-3.00927">
        <ele>140.2</ele>
        <time>2021-08-09T10:51:47Z</time>
      </trkpt>
      <trkpt lat="48.19188" lon="-3.00926">
        <ele>140.4</ele>
        <time>2021-08-09T10:51:48Z</time>
      </trkpt>
      <trkpt lat="48.1919" lon="-3.00925">
        <ele>140.6</ele>
        <time>2021-08-09T10:51:49Z</time>
      </trkpt>
      <trkpt lat="48.19193" lon="-3.00925">
        <ele>140.6</ele>
        <time>2021-08-09T10:51:50Z</time>
      </trkpt>
      <trkpt lat="48.19198" lon="-3.00923">
        <ele>141</ele>
        <time>2021-08-09T10:51:52Z</time>
      </trkpt>
      <trkpt lat="48.192" lon="-3.00923">
        <ele>141</ele>
        <time>2021-08-09T10:51:53Z</time>
      </trkpt>
      <trkpt lat="48.19203" lon="-3.00922">
        <ele>141.2</ele>
        <time>2021-08-09T10:51:54Z</time>
      </trkpt>
      <trkpt lat="48.19205" lon="-3.00922">
        <ele>141.2</ele>
        <time>2021-08-09T10:51:55Z</time>
      </trkpt>
      <trkpt lat="48.19208" lon="-3.00921">
        <ele>141.4</ele>
        <time>2021-08-09T10:51:56Z</time>
      </trkpt>
      <trkpt lat="48.1921" lon="-3.00921">
        <ele>141.4</ele>
        <time>2021-08-09T10:51:57Z</time>
      </trkpt>
      <trkpt lat="48.19213" lon="-3.0092">
        <ele>141.4</ele>
        <time>2021-08-09T10:51:58Z</time>
      </trkpt>
      <trkpt lat="48.19215" lon="-3.00919">
        <ele>141.6</ele>
        <time>2021-08-09T10:51:59Z</time>
      </trkpt>
      <trkpt lat="48.19218" lon="-3.00918">
        <ele>141.6</ele>
        <time>2021-08-09T10:52:00Z</time>
      </trkpt>
      <trkpt lat="48.1922" lon="-3.00917">
        <ele>141.8</ele>
        <time>2021-08-09T10:52:01Z</time>
      </trkpt>
      <trkpt lat="48.19225" lon="-3.00915">
        <ele>142.2</ele>
        <time>2021-08-09T10:52:03Z</time>
      </trkpt>
      <trkpt lat="48.19227" lon="-3.00915">
        <ele>142.4</ele>
        <time>2021-08-09T10:52:04Z</time>
      </trkpt>
      <trkpt lat="48.19228" lon="-3.00915">
        <ele>142.6</ele>
        <time>2021-08-09T10:52:05Z</time>
      </trkpt>
      <trkpt lat="48.1923" lon="-3.00914">
        <ele>142.8</ele>
        <time>2021-08-09T10:52:06Z</time>
      </trkpt>
      <trkpt lat="48.19232" lon="-3.00914">
        <ele>142.8</ele>
        <time>2021-08-09T10:52:07Z</time>
      </trkpt>
      <trkpt lat="48.19233" lon="-3.00913">
        <ele>143</ele>
        <time>2021-08-09T10:52:08Z</time>
      </trkpt>
      <trkpt lat="48.19236" lon="-3.00913">
        <ele>143.2</ele>
        <time>2021-08-09T10:52:09Z</time>
      </trkpt>
      <trkpt lat="48.19238" lon="-3.00913">
        <ele>143.4</ele>
        <time>2021-08-09T10:52:10Z</time>
      </trkpt>
      <trkpt lat="48.1924" lon="-3.00913">
        <ele>143.6</ele>
        <time>2021-08-09T10:52:11Z</time>
      </trkpt>
      <trkpt lat="48.19242" lon="-3.00913">
        <ele>143.6</ele>
        <time>2021-08-09T10:52:12Z</time>
      </trkpt>
      <trkpt lat="48.19247" lon="-3.00912">
        <ele>144</ele>
        <time>2021-08-09T10:52:14Z</time>
      </trkpt>
      <trkpt lat="48.1925" lon="-3.00911">
        <ele>144.2</ele>
        <time>2021-08-09T10:52:15Z</time>
      </trkpt>
      <trkpt lat="48.19253" lon="-3.0091">
        <ele>144.6</ele>
        <time>2021-08-09T10:52:16Z</time>
      </trkpt>
      <trkpt lat="48.19256" lon="-3.00909">
        <ele>144.8</ele>
        <time>2021-08-09T10:52:17Z</time>
      </trkpt>
      <trkpt lat="48.19258" lon="-3.00908">
        <ele>144.8</ele>
        <time>2021-08-09T10:52:18Z</time>
      </trkpt>
      <trkpt lat="48.19261" lon="-3.00908">
        <ele>145</ele>
        <time>2021-08-09T10:52:19Z</time>
      </trkpt>
      <trkpt lat="48.19263" lon="-3.00907">
        <ele>145</ele>
        <time>2021-08-09T10:52:20Z</time>
      </trkpt>
      <trkpt lat="48.19266" lon="-3.00906">
        <ele>145.2</ele>
        <time>2021-08-09T10:52:21Z</time>
      </trkpt>
      <trkpt lat="48.19268" lon="-3.00905">
        <ele>145.2</ele>
        <time>2021-08-09T10:52:22Z</time>
      </trkpt>
      <trkpt lat="48.1927" lon="-3.00905">
        <ele>145.4</ele>
        <time>2021-08-09T10:52:23Z</time>
      </trkpt>
      <trkpt lat="48.19274" lon="-3.00904">
        <ele>145.6</ele>
        <time>2021-08-09T10:52:25Z</time>
      </trkpt>
      <trkpt lat="48.19276" lon="-3.00904">
        <ele>145.6</ele>
        <time>2021-08-09T10:52:26Z</time>
      </trkpt>
      <trkpt lat="48.19279" lon="-3.00904">
        <ele>145.6</ele>
        <time>2021-08-09T10:52:27Z</time>
      </trkpt>
      <trkpt lat="48.19281" lon="-3.00903">
        <ele>145.8</ele>
        <time>2021-08-09T10:52:28Z</time>
      </trkpt>
      <trkpt lat="48.19284" lon="-3.00902">
        <ele>146</ele>
        <time>2021-08-09T10:52:29Z</time>
      </trkpt>
      <trkpt lat="48.19286" lon="-3.00901">
        <ele>146</ele>
        <time>2021-08-09T10:52:30Z</time>
      </trkpt>
      <trkpt lat="48.19288" lon="-3.00901">
        <ele>146.2</ele>
        <time>2021-08-09T10:52:31Z</time>
      </trkpt>
      <trkpt lat="48.19291" lon="-3.009">
        <ele>146.4</ele>
        <time>2021-08-09T10:52:32Z</time>
      </trkpt>
      <trkpt lat="48.19293" lon="-3.009">
        <ele>146.4</ele>
        <time>2021-08-09T10:52:33Z</time>
      </trkpt>
      <trkpt lat="48.19296" lon="-3.00899">
        <ele>146.6</ele>
        <time>2021-08-09T10:52:34Z</time>
      </trkpt>
      <trkpt lat="48.19298" lon="-3.00898">
        <ele>146.6</ele>
        <time>2021-08-09T10:52:35Z</time>
      </trkpt>
      <trkpt lat="48.19301" lon="-3.00898">
        <ele>146.8</ele>
        <time>2021-08-09T10:52:36Z</time>
      </trkpt>
      <trkpt lat="48.19303" lon="-3.00898">
        <ele>147</ele>
        <time>2021-08-09T10:52:37Z</time>
      </trkpt>
      <trkpt lat="48.19305" lon="-3.00897">
        <ele>147.2</ele>
        <time>2021-08-09T10:52:38Z</time>
      </trkpt>
      <trkpt lat="48.19308" lon="-3.00897">
        <ele>147.4</ele>
        <time>2021-08-09T10:52:39Z</time>
      </trkpt>
      <trkpt lat="48.1931" lon="-3.00897">
        <ele>147.4</ele>
        <time>2021-08-09T10:52:40Z</time>
      </trkpt>
      <trkpt lat="48.19312" lon="-3.00897">
        <ele>147.6</ele>
        <time>2021-08-09T10:52:41Z</time>
      </trkpt>
      <trkpt lat="48.19315" lon="-3.00897">
        <ele>147.6</ele>
        <time>2021-08-09T10:52:42Z</time>
      </trkpt>
      <trkpt lat="48.19317" lon="-3.00897">
        <ele>148</ele>
        <time>2021-08-09T10:52:43Z</time>
      </trkpt>
      <trkpt lat="48.1932" lon="-3.00897">
        <ele>148.2</ele>
        <time>2021-08-09T10:52:44Z</time>
      </trkpt>
      <trkpt lat="48.19322" lon="-3.00897">
        <ele>148.2</ele>
        <time>2021-08-09T10:52:45Z</time>
      </trkpt>
      <trkpt lat="48.19327" lon="-3.00897">
        <ele>148.4</ele>
        <time>2021-08-09T10:52:47Z</time>
      </trkpt>
      <trkpt lat="48.19329" lon="-3.00897">
        <ele>148.4</ele>
        <time>2021-08-09T10:52:48Z</time>
      </trkpt>
      <trkpt lat="48.19332" lon="-3.00897">
        <ele>148.6</ele>
        <time>2021-08-09T10:52:49Z</time>
      </trkpt>
      <trkpt lat="48.19334" lon="-3.00897">
        <ele>148.8</ele>
        <time>2021-08-09T10:52:50Z</time>
      </trkpt>
      <trkpt lat="48.19337" lon="-3.00897">
        <ele>149</ele>
        <time>2021-08-09T10:52:51Z</time>
      </trkpt>
      <trkpt lat="48.19339" lon="-3.00897">
        <ele>149</ele>
        <time>2021-08-09T10:52:52Z</time>
      </trkpt>
      <trkpt lat="48.19342" lon="-3.00897">
        <ele>149.2</ele>
        <time>2021-08-09T10:52:53Z</time>
      </trkpt>
      <trkpt lat="48.19345" lon="-3.00897">
        <ele>149.2</ele>
        <time>2021-08-09T10:52:54Z</time>
      </trkpt>
      <trkpt lat="48.19347" lon="-3.00897">
        <ele>149.2</ele>
        <time>2021-08-09T10:52:55Z</time>
      </trkpt>
      <trkpt lat="48.1935" lon="-3.00897">
        <ele>149.4</ele>
        <time>2021-08-09T10:52:56Z</time>
      </trkpt>
      <trkpt lat="48.19355" lon="-3.00897">
        <ele>149.6</ele>
        <time>2021-08-09T10:52:58Z</time>
      </trkpt>
      <trkpt lat="48.19357" lon="-3.00897">
        <ele>149.6</ele>
        <time>2021-08-09T10:52:59Z</time>
      </trkpt>
      <trkpt lat="48.19359" lon="-3.00897">
        <ele>149.6</ele>
        <time>2021-08-09T10:53:00Z</time>
      </trkpt>
      <trkpt lat="48.19362" lon="-3.00898">
        <ele>149.6</ele>
        <time>2021-08-09T10:53:01Z</time>
      </trkpt>
      <trkpt lat="48.19364" lon="-3.00898">
        <ele>149.8</ele>
        <time>2021-08-09T10:53:02Z</time>
      </trkpt>
      <trkpt lat="48.19367" lon="-3.00898">
        <ele>149.8</ele>
        <time>2021-08-09T10:53:03Z</time>
      </trkpt>
      <trkpt lat="48.19369" lon="-3.00898">
        <ele>150</ele>
        <time>2021-08-09T10:53:04Z</time>
      </trkpt>
      <trkpt lat="48.19372" lon="-3.00898">
        <ele>150</ele>
        <time>2021-08-09T10:53:05Z</time>
      </trkpt>
      <trkpt lat="48.19374" lon="-3.00899">
        <ele>150</ele>
        <time>2021-08-09T10:53:06Z</time>
      </trkpt>
      <trkpt lat="48.19376" lon="-3.00899">
        <ele>150.2</ele>
        <time>2021-08-09T10:53:07Z</time>
      </trkpt>
      <trkpt lat="48.19379" lon="-3.00899">
        <ele>150.2</ele>
        <time>2021-08-09T10:53:08Z</time>
      </trkpt>
      <trkpt lat="48.19381" lon="-3.00899">
        <ele>150.4</ele>
        <time>2021-08-09T10:53:09Z</time>
      </trkpt>
      <trkpt lat="48.19384" lon="-3.00899">
        <ele>150.6</ele>
        <time>2021-08-09T10:53:10Z</time>
      </trkpt>
      <trkpt lat="48.19386" lon="-3.00898">
        <ele>150.8</ele>
        <time>2021-08-09T10:53:11Z</time>
      </trkpt>
      <trkpt lat="48.19389" lon="-3.00899">
        <ele>150.8</ele>
        <time>2021-08-09T10:53:12Z</time>
      </trkpt>
      <trkpt lat="48.19391" lon="-3.00899">
        <ele>151.2</ele>
        <time>2021-08-09T10:53:13Z</time>
      </trkpt>
      <trkpt lat="48.19394" lon="-3.00899">
        <ele>151.2</ele>
        <time>2021-08-09T10:53:14Z</time>
      </trkpt>
      <trkpt lat="48.19396" lon="-3.00899">
        <ele>151.4</ele>
        <time>2021-08-09T10:53:15Z</time>
      </trkpt>
      <trkpt lat="48.19399" lon="-3.00899">
        <ele>151.4</ele>
        <time>2021-08-09T10:53:16Z</time>
      </trkpt>
      <trkpt lat="48.19401" lon="-3.00899">
        <ele>151.4</ele>
        <time>2021-08-09T10:53:17Z</time>
      </trkpt>
      <trkpt lat="48.19404" lon="-3.00899">
        <ele>151.6</ele>
        <time>2021-08-09T10:53:18Z</time>
      </trkpt>
      <trkpt lat="48.1941" lon="-3.00899">
        <ele>151.6</ele>
        <time>2021-08-09T10:53:20Z</time>
      </trkpt>
      <trkpt lat="48.19413" lon="-3.00899">
        <ele>151.8</ele>
        <time>2021-08-09T10:53:21Z</time>
      </trkpt>
      <trkpt lat="48.19416" lon="-3.00899">
        <ele>151.8</ele>
        <time>2021-08-09T10:53:22Z</time>
      </trkpt>
      <trkpt lat="48.1942" lon="-3.00899">
        <ele>151.8</ele>
        <time>2021-08-09T10:53:23Z</time>
      </trkpt>
      <trkpt lat="48.19423" lon="-3.009">
        <ele>151.8</ele>
        <time>2021-08-09T10:53:24Z</time>
      </trkpt>
      <trkpt lat="48.19426" lon="-3.009">
        <ele>152</ele>
        <time>2021-08-09T10:53:25Z</time>
      </trkpt>
      <trkpt lat="48.19429" lon="-3.009">
        <ele>152.2</ele>
        <time>2021-08-09T10:53:26Z</time>
      </trkpt>
      <trkpt lat="48.19432" lon="-3.00901">
        <ele>152.2</ele>
        <time>2021-08-09T10:53:27Z</time>
      </trkpt>
      <trkpt lat="48.19436" lon="-3.00901">
        <ele>152.4</ele>
        <time>2021-08-09T10:53:28Z</time>
      </trkpt>
      <trkpt lat="48.19439" lon="-3.00901">
        <ele>152.4</ele>
        <time>2021-08-09T10:53:29Z</time>
      </trkpt>
      <trkpt lat="48.19445" lon="-3.009">
        <ele>152.4</ele>
        <time>2021-08-09T10:53:31Z</time>
      </trkpt>
      <trkpt lat="48.19448" lon="-3.009">
        <ele>152.4</ele>
        <time>2021-08-09T10:53:32Z</time>
      </trkpt>
      <trkpt lat="48.19451" lon="-3.00899">
        <ele>152.4</ele>
        <time>2021-08-09T10:53:33Z</time>
      </trkpt>
      <trkpt lat="48.19454" lon="-3.00899">
        <ele>152.6</ele>
        <time>2021-08-09T10:53:34Z</time>
      </trkpt>
      <trkpt lat="48.19457" lon="-3.00898">
        <ele>152.8</ele>
        <time>2021-08-09T10:53:35Z</time>
      </trkpt>
      <trkpt lat="48.1946" lon="-3.00898">
        <ele>153</ele>
        <time>2021-08-09T10:53:36Z</time>
      </trkpt>
      <trkpt lat="48.19463" lon="-3.00898">
        <ele>153.2</ele>
        <time>2021-08-09T10:53:37Z</time>
      </trkpt>
      <trkpt lat="48.19466" lon="-3.00898">
        <ele>153.2</ele>
        <time>2021-08-09T10:53:38Z</time>
      </trkpt>
      <trkpt lat="48.19468" lon="-3.00897">
        <ele>153.4</ele>
        <time>2021-08-09T10:53:39Z</time>
      </trkpt>
      <trkpt lat="48.19471" lon="-3.00897">
        <ele>153.4</ele>
        <time>2021-08-09T10:53:40Z</time>
      </trkpt>
      <trkpt lat="48.19476" lon="-3.00897">
        <ele>153.8</ele>
        <time>2021-08-09T10:53:42Z</time>
      </trkpt>
      <trkpt lat="48.19479" lon="-3.00896">
        <ele>153.8</ele>
        <time>2021-08-09T10:53:43Z</time>
      </trkpt>
      <trkpt lat="48.19481" lon="-3.00896">
        <ele>154</ele>
        <time>2021-08-09T10:53:44Z</time>
      </trkpt>
      <trkpt lat="48.19484" lon="-3.00896">
        <ele>154</ele>
        <time>2021-08-09T10:53:45Z</time>
      </trkpt>
      <trkpt lat="48.19486" lon="-3.00895">
        <ele>154.2</ele>
        <time>2021-08-09T10:53:46Z</time>
      </trkpt>
      <trkpt lat="48.19488" lon="-3.00895">
        <ele>154.4</ele>
        <time>2021-08-09T10:53:47Z</time>
      </trkpt>
      <trkpt lat="48.1949" lon="-3.00894">
        <ele>154.6</ele>
        <time>2021-08-09T10:53:48Z</time>
      </trkpt>
      <trkpt lat="48.19492" lon="-3.00893">
        <ele>154.8</ele>
        <time>2021-08-09T10:53:49Z</time>
      </trkpt>
      <trkpt lat="48.19495" lon="-3.00893">
        <ele>155</ele>
        <time>2021-08-09T10:53:50Z</time>
      </trkpt>
      <trkpt lat="48.19497" lon="-3.00892">
        <ele>155.2</ele>
        <time>2021-08-09T10:53:51Z</time>
      </trkpt>
      <trkpt lat="48.19502" lon="-3.0089">
        <ele>155.4</ele>
        <time>2021-08-09T10:53:53Z</time>
      </trkpt>
      <trkpt lat="48.19505" lon="-3.0089">
        <ele>155.6</ele>
        <time>2021-08-09T10:53:54Z</time>
      </trkpt>
      <trkpt lat="48.19508" lon="-3.00889">
        <ele>155.6</ele>
        <time>2021-08-09T10:53:55Z</time>
      </trkpt>
      <trkpt lat="48.19511" lon="-3.00888">
        <ele>155.8</ele>
        <time>2021-08-09T10:53:56Z</time>
      </trkpt>
      <trkpt lat="48.19513" lon="-3.00887">
        <ele>156</ele>
        <time>2021-08-09T10:53:57Z</time>
      </trkpt>
      <trkpt lat="48.19516" lon="-3.00885">
        <ele>156.2</ele>
        <time>2021-08-09T10:53:58Z</time>
      </trkpt>
      <trkpt lat="48.19518" lon="-3.00884">
        <ele>156.4</ele>
        <time>2021-08-09T10:53:59Z</time>
      </trkpt>
      <trkpt lat="48.19521" lon="-3.00883">
        <ele>156.6</ele>
        <time>2021-08-09T10:54:00Z</time>
      </trkpt>
      <trkpt lat="48.19523" lon="-3.00882">
        <ele>156.6</ele>
        <time>2021-08-09T10:54:01Z</time>
      </trkpt>
      <trkpt lat="48.19525" lon="-3.00882">
        <ele>156.6</ele>
        <time>2021-08-09T10:54:02Z</time>
      </trkpt>
      <trkpt lat="48.19529" lon="-3.00881">
        <ele>156.8</ele>
        <time>2021-08-09T10:54:04Z</time>
      </trkpt>
      <trkpt lat="48.19532" lon="-3.0088">
        <ele>157</ele>
        <time>2021-08-09T10:54:05Z</time>
      </trkpt>
      <trkpt lat="48.19534" lon="-3.00879">
        <ele>157</ele>
        <time>2021-08-09T10:54:06Z</time>
      </trkpt>
      <trkpt lat="48.19536" lon="-3.00878">
        <ele>157</ele>
        <time>2021-08-09T10:54:07Z</time>
      </trkpt>
      <trkpt lat="48.19539" lon="-3.00877">
        <ele>157.2</ele>
        <time>2021-08-09T10:54:08Z</time>
      </trkpt>
      <trkpt lat="48.19541" lon="-3.00875">
        <ele>157.2</ele>
        <time>2021-08-09T10:54:09Z</time>
      </trkpt>
      <trkpt lat="48.19543" lon="-3.00874">
        <ele>157.2</ele>
        <time>2021-08-09T10:54:10Z</time>
      </trkpt>
      <trkpt lat="48.19545" lon="-3.00873">
        <ele>157.2</ele>
        <time>2021-08-09T10:54:11Z</time>
      </trkpt>
      <trkpt lat="48.19547" lon="-3.00872">
        <ele>157.4</ele>
        <time>2021-08-09T10:54:12Z</time>
      </trkpt>
      <trkpt lat="48.19549" lon="-3.00871">
        <ele>157.4</ele>
        <time>2021-08-09T10:54:13Z</time>
      </trkpt>
      <trkpt lat="48.19553" lon="-3.00868">
        <ele>157.6</ele>
        <time>2021-08-09T10:54:15Z</time>
      </trkpt>
      <trkpt lat="48.19555" lon="-3.00867">
        <ele>157.6</ele>
        <time>2021-08-09T10:54:16Z</time>
      </trkpt>
      <trkpt lat="48.19556" lon="-3.00866">
        <ele>157.6</ele>
        <time>2021-08-09T10:54:17Z</time>
      </trkpt>
      <trkpt lat="48.19558" lon="-3.00864">
        <ele>157.6</ele>
        <time>2021-08-09T10:54:18Z</time>
      </trkpt>
      <trkpt lat="48.19559" lon="-3.00863">
        <ele>157.6</ele>
        <time>2021-08-09T10:54:19Z</time>
      </trkpt>
      <trkpt lat="48.1956" lon="-3.00862">
        <ele>157.6</ele>
        <time>2021-08-09T10:54:20Z</time>
      </trkpt>
      <trkpt lat="48.19562" lon="-3.00862">
        <ele>157</ele>
        <time>2021-08-09T10:56:02Z</time>
      </trkpt>
      <trkpt lat="48.19563" lon="-3.00861">
        <ele>157</ele>
        <time>2021-08-09T10:56:03Z</time>
      </trkpt>
      <trkpt lat="48.19565" lon="-3.00859">
        <ele>156.8</ele>
        <time>2021-08-09T10:56:04Z</time>
      </trkpt>
      <trkpt lat="48.19567" lon="-3.00857">
        <ele>156.8</ele>
        <time>2021-08-09T10:56:05Z</time>
      </trkpt>
      <trkpt lat="48.19569" lon="-3.00853">
        <ele>156.8</ele>
        <time>2021-08-09T10:56:06Z</time>
      </trkpt>
      <trkpt lat="48.19571" lon="-3.00849">
        <ele>156.8</ele>
        <time>2021-08-09T10:56:07Z</time>
      </trkpt>
      <trkpt lat="48.19573" lon="-3.00844">
        <ele>156.8</ele>
        <time>2021-08-09T10:56:08Z</time>
      </trkpt>
      <trkpt lat="48.19575" lon="-3.00839">
        <ele>156.8</ele>
        <time>2021-08-09T10:56:09Z</time>
      </trkpt>
      <trkpt lat="48.19578" lon="-3.0083">
        <ele>156.6</ele>
        <time>2021-08-09T10:56:11Z</time>
      </trkpt>
      <trkpt lat="48.19578" lon="-3.00828">
        <ele>156.6</ele>
        <time>2021-08-09T10:56:12Z</time>
      </trkpt>
      <trkpt lat="48.19586" lon="-3.00813">
        <ele>156</ele>
        <time>2021-08-09T10:59:55Z</time>
      </trkpt>
      <trkpt lat="48.19587" lon="-3.00811">
        <ele>156</ele>
        <time>2021-08-09T10:59:56Z</time>
      </trkpt>
      <trkpt lat="48.19589" lon="-3.00806">
        <ele>156</ele>
        <time>2021-08-09T10:59:58Z</time>
      </trkpt>
      <trkpt lat="48.19591" lon="-3.00803">
        <ele>156</ele>
        <time>2021-08-09T10:59:59Z</time>
      </trkpt>
      <trkpt lat="48.19592" lon="-3.00799">
        <ele>156</ele>
        <time>2021-08-09T11:00:00Z</time>
      </trkpt>
      <trkpt lat="48.19593" lon="-3.00796">
        <ele>155.8</ele>
        <time>2021-08-09T11:00:01Z</time>
      </trkpt>
      <trkpt lat="48.19595" lon="-3.00792">
        <ele>155.8</ele>
        <time>2021-08-09T11:00:02Z</time>
      </trkpt>
      <trkpt lat="48.19596" lon="-3.00788">
        <ele>155.8</ele>
        <time>2021-08-09T11:00:03Z</time>
      </trkpt>
      <trkpt lat="48.19597" lon="-3.00783">
        <ele>155.8</ele>
        <time>2021-08-09T11:00:04Z</time>
      </trkpt>
      <trkpt lat="48.196" lon="-3.00772">
        <ele>155.8</ele>
        <time>2021-08-09T11:00:06Z</time>
      </trkpt>
      <trkpt lat="48.19601" lon="-3.00766">
        <ele>155.6</ele>
        <time>2021-08-09T11:00:07Z</time>
      </trkpt>
      <trkpt lat="48.19604" lon="-3.0076">
        <ele>155.6</ele>
        <time>2021-08-09T11:00:08Z</time>
      </trkpt>
      <trkpt lat="48.19606" lon="-3.00752">
        <ele>155.4</ele>
        <time>2021-08-09T11:00:09Z</time>
      </trkpt>
      <trkpt lat="48.19609" lon="-3.00745">
        <ele>155.4</ele>
        <time>2021-08-09T11:00:10Z</time>
      </trkpt>
      <trkpt lat="48.19612" lon="-3.00738">
        <ele>155.2</ele>
        <time>2021-08-09T11:00:11Z</time>
      </trkpt>
      <trkpt lat="48.19617" lon="-3.00732">
        <ele>155</ele>
        <time>2021-08-09T11:00:12Z</time>
      </trkpt>
      <trkpt lat="48.19622" lon="-3.00725">
        <ele>155</ele>
        <time>2021-08-09T11:00:13Z</time>
      </trkpt>
      <trkpt lat="48.19628" lon="-3.00719">
        <ele>154.8</ele>
        <time>2021-08-09T11:00:14Z</time>
      </trkpt>
      <trkpt lat="48.19635" lon="-3.00713">
        <ele>154.6</ele>
        <time>2021-08-09T11:00:15Z</time>
      </trkpt>
      <trkpt lat="48.19643" lon="-3.00707">
        <ele>154.4</ele>
        <time>2021-08-09T11:00:16Z</time>
      </trkpt>
      <trkpt lat="48.1965" lon="-3.00701">
        <ele>154.2</ele>
        <time>2021-08-09T11:00:17Z</time>
      </trkpt>
      <trkpt lat="48.19656" lon="-3.00694">
        <ele>153.8</ele>
        <time>2021-08-09T11:00:18Z</time>
      </trkpt>
      <trkpt lat="48.19663" lon="-3.00688">
        <ele>153.4</ele>
        <time>2021-08-09T11:00:19Z</time>
      </trkpt>
      <trkpt lat="48.19669" lon="-3.00683">
        <ele>153</ele>
        <time>2021-08-09T11:00:20Z</time>
      </trkpt>
      <trkpt lat="48.19675" lon="-3.00678">
        <ele>152.2</ele>
        <time>2021-08-09T11:00:21Z</time>
      </trkpt>
      <trkpt lat="48.1968" lon="-3.00672">
        <ele>151</ele>
        <time>2021-08-09T11:00:22Z</time>
      </trkpt>
      <trkpt lat="48.19685" lon="-3.00667">
        <ele>149.6</ele>
        <time>2021-08-09T11:00:23Z</time>
      </trkpt>
      <trkpt lat="48.1969" lon="-3.00662">
        <ele>148.6</ele>
        <time>2021-08-09T11:00:24Z</time>
      </trkpt>
      <trkpt lat="48.19695" lon="-3.00657">
        <ele>148.2</ele>
        <time>2021-08-09T11:00:25Z</time>
      </trkpt>
      <trkpt lat="48.197" lon="-3.00651">
        <ele>147.8</ele>
        <time>2021-08-09T11:00:26Z</time>
      </trkpt>
      <trkpt lat="48.19704" lon="-3.00643">
        <ele>147.6</ele>
        <time>2021-08-09T11:00:27Z</time>
      </trkpt>
      <trkpt lat="48.19707" lon="-3.00634">
        <ele>147</ele>
        <time>2021-08-09T11:00:28Z</time>
      </trkpt>
      <trkpt lat="48.19709" lon="-3.00624">
        <ele>146.6</ele>
        <time>2021-08-09T11:00:29Z</time>
      </trkpt>
      <trkpt lat="48.1971" lon="-3.00615">
        <ele>146</ele>
        <time>2021-08-09T11:00:30Z</time>
      </trkpt>
      <trkpt lat="48.19711" lon="-3.00605">
        <ele>146</ele>
        <time>2021-08-09T11:00:31Z</time>
      </trkpt>
      <trkpt lat="48.19712" lon="-3.00596">
        <ele>145.6</ele>
        <time>2021-08-09T11:00:32Z</time>
      </trkpt>
      <trkpt lat="48.19713" lon="-3.00587">
        <ele>145.2</ele>
        <time>2021-08-09T11:00:33Z</time>
      </trkpt>
      <trkpt lat="48.19714" lon="-3.00579">
        <ele>145</ele>
        <time>2021-08-09T11:00:34Z</time>
      </trkpt>
      <trkpt lat="48.19714" lon="-3.0057">
        <ele>144.8</ele>
        <time>2021-08-09T11:00:35Z</time>
      </trkpt>
      <trkpt lat="48.19715" lon="-3.00562">
        <ele>144.8</ele>
        <time>2021-08-09T11:00:36Z</time>
      </trkpt>
      <trkpt lat="48.19716" lon="-3.00555">
        <ele>144.6</ele>
        <time>2021-08-09T11:00:37Z</time>
      </trkpt>
      <trkpt lat="48.19716" lon="-3.0054">
        <ele>144.6</ele>
        <time>2021-08-09T11:00:39Z</time>
      </trkpt>
      <trkpt lat="48.19717" lon="-3.00533">
        <ele>144.6</ele>
        <time>2021-08-09T11:00:40Z</time>
      </trkpt>
      <trkpt lat="48.19717" lon="-3.00526">
        <ele>144.6</ele>
        <time>2021-08-09T11:00:41Z</time>
      </trkpt>
      <trkpt lat="48.19718" lon="-3.00519">
        <ele>144.6</ele>
        <time>2021-08-09T11:00:42Z</time>
      </trkpt>
      <trkpt lat="48.19718" lon="-3.00512">
        <ele>144.6</ele>
        <time>2021-08-09T11:00:43Z</time>
      </trkpt>
      <trkpt lat="48.19719" lon="-3.00505">
        <ele>144.8</ele>
        <time>2021-08-09T11:00:44Z</time>
      </trkpt>
      <trkpt lat="48.19719" lon="-3.00498">
        <ele>145</ele>
        <time>2021-08-09T11:00:45Z</time>
      </trkpt>
      <trkpt lat="48.1972" lon="-3.00492">
        <ele>145</ele>
        <time>2021-08-09T11:00:46Z</time>
      </trkpt>
      <trkpt lat="48.19721" lon="-3.00485">
        <ele>145.2</ele>
        <time>2021-08-09T11:00:47Z</time>
      </trkpt>
      <trkpt lat="48.19721" lon="-3.00479">
        <ele>145.4</ele>
        <time>2021-08-09T11:00:48Z</time>
      </trkpt>
      <trkpt lat="48.19722" lon="-3.00466">
        <ele>145.8</ele>
        <time>2021-08-09T11:00:50Z</time>
      </trkpt>
      <trkpt lat="48.19723" lon="-3.0046">
        <ele>145.8</ele>
        <time>2021-08-09T11:00:51Z</time>
      </trkpt>
      <trkpt lat="48.19724" lon="-3.00454">
        <ele>146.2</ele>
        <time>2021-08-09T11:00:52Z</time>
      </trkpt>
      <trkpt lat="48.19724" lon="-3.00449">
        <ele>146.2</ele>
        <time>2021-08-09T11:00:53Z</time>
      </trkpt>
      <trkpt lat="48.19725" lon="-3.00443">
        <ele>146.4</ele>
        <time>2021-08-09T11:00:54Z</time>
      </trkpt>
      <trkpt lat="48.19725" lon="-3.00438">
        <ele>146.4</ele>
        <time>2021-08-09T11:00:55Z</time>
      </trkpt>
      <trkpt lat="48.19725" lon="-3.00432">
        <ele>146.4</ele>
        <time>2021-08-09T11:00:56Z</time>
      </trkpt>
      <trkpt lat="48.19725" lon="-3.00427">
        <ele>146.6</ele>
        <time>2021-08-09T11:00:57Z</time>
      </trkpt>
      <trkpt lat="48.19726" lon="-3.00422">
        <ele>147</ele>
        <time>2021-08-09T11:00:58Z</time>
      </trkpt>
      <trkpt lat="48.19726" lon="-3.00418">
        <ele>147.4</ele>
        <time>2021-08-09T11:00:59Z</time>
      </trkpt>
      <trkpt lat="48.19728" lon="-3.00409">
        <ele>147.6</ele>
        <time>2021-08-09T11:01:01Z</time>
      </trkpt>
      <trkpt lat="48.19728" lon="-3.00405">
        <ele>147.6</ele>
        <time>2021-08-09T11:01:02Z</time>
      </trkpt>
      <trkpt lat="48.19729" lon="-3.00401">
        <ele>147.8</ele>
        <time>2021-08-09T11:01:03Z</time>
      </trkpt>
      <trkpt lat="48.1973" lon="-3.00398">
        <ele>147.8</ele>
        <time>2021-08-09T11:01:04Z</time>
      </trkpt>
      <trkpt lat="48.1973" lon="-3.00394">
        <ele>148.2</ele>
        <time>2021-08-09T11:01:05Z</time>
      </trkpt>
      <trkpt lat="48.19731" lon="-3.0039">
        <ele>148.4</ele>
        <time>2021-08-09T11:01:06Z</time>
      </trkpt>
      <trkpt lat="48.19732" lon="-3.00386">
        <ele>148.6</ele>
        <time>2021-08-09T11:01:07Z</time>
      </trkpt>
      <trkpt lat="48.19733" lon="-3.00383">
        <ele>148.8</ele>
        <time>2021-08-09T11:01:08Z</time>
      </trkpt>
      <trkpt lat="48.19733" lon="-3.00379">
        <ele>149</ele>
        <time>2021-08-09T11:01:09Z</time>
      </trkpt>
      <trkpt lat="48.19734" lon="-3.00375">
        <ele>149.2</ele>
        <time>2021-08-09T11:01:10Z</time>
      </trkpt>
      <trkpt lat="48.19737" lon="-3.00368">
        <ele>149.4</ele>
        <time>2021-08-09T11:01:12Z</time>
      </trkpt>
      <trkpt lat="48.19738" lon="-3.00365">
        <ele>149.6</ele>
        <time>2021-08-09T11:01:13Z</time>
      </trkpt>
      <trkpt lat="48.19739" lon="-3.00361">
        <ele>149.8</ele>
        <time>2021-08-09T11:01:14Z</time>
      </trkpt>
      <trkpt lat="48.19741" lon="-3.00358">
        <ele>149.8</ele>
        <time>2021-08-09T11:01:15Z</time>
      </trkpt>
      <trkpt lat="48.19742" lon="-3.00355">
        <ele>150</ele>
        <time>2021-08-09T11:01:16Z</time>
      </trkpt>
      <trkpt lat="48.19744" lon="-3.00351">
        <ele>150.2</ele>
        <time>2021-08-09T11:01:17Z</time>
      </trkpt>
      <trkpt lat="48.19745" lon="-3.00348">
        <ele>150.2</ele>
        <time>2021-08-09T11:01:18Z</time>
      </trkpt>
      <trkpt lat="48.19747" lon="-3.00345">
        <ele>150.4</ele>
        <time>2021-08-09T11:01:19Z</time>
      </trkpt>
      <trkpt lat="48.19749" lon="-3.00342">
        <ele>150.6</ele>
        <time>2021-08-09T11:01:20Z</time>
      </trkpt>
      <trkpt lat="48.19751" lon="-3.00339">
        <ele>150.8</ele>
        <time>2021-08-09T11:01:21Z</time>
      </trkpt>
      <trkpt lat="48.19753" lon="-3.00336">
        <ele>150.8</ele>
        <time>2021-08-09T11:01:22Z</time>
      </trkpt>
      <trkpt lat="48.19755" lon="-3.00333">
        <ele>151</ele>
        <time>2021-08-09T11:01:23Z</time>
      </trkpt>
      <trkpt lat="48.19757" lon="-3.0033">
        <ele>151.2</ele>
        <time>2021-08-09T11:01:24Z</time>
      </trkpt>
      <trkpt lat="48.19759" lon="-3.00328">
        <ele>151.4</ele>
        <time>2021-08-09T11:01:25Z</time>
      </trkpt>
      <trkpt lat="48.19761" lon="-3.00325">
        <ele>151.6</ele>
        <time>2021-08-09T11:01:26Z</time>
      </trkpt>
      <trkpt lat="48.19763" lon="-3.00322">
        <ele>151.6</ele>
        <time>2021-08-09T11:01:27Z</time>
      </trkpt>
      <trkpt lat="48.19765" lon="-3.00319">
        <ele>152</ele>
        <time>2021-08-09T11:01:28Z</time>
      </trkpt>
      <trkpt lat="48.19767" lon="-3.00317">
        <ele>152</ele>
        <time>2021-08-09T11:01:29Z</time>
      </trkpt>
      <trkpt lat="48.19769" lon="-3.00314">
        <ele>152.2</ele>
        <time>2021-08-09T11:01:30Z</time>
      </trkpt>
      <trkpt lat="48.19771" lon="-3.00312">
        <ele>152.2</ele>
        <time>2021-08-09T11:01:31Z</time>
      </trkpt>
      <trkpt lat="48.19775" lon="-3.00306">
        <ele>152.6</ele>
        <time>2021-08-09T11:01:33Z</time>
      </trkpt>
      <trkpt lat="48.19778" lon="-3.00304">
        <ele>152.8</ele>
        <time>2021-08-09T11:01:34Z</time>
      </trkpt>
      <trkpt lat="48.1978" lon="-3.00301">
        <ele>153</ele>
        <time>2021-08-09T11:01:35Z</time>
      </trkpt>
      <trkpt lat="48.19782" lon="-3.00299">
        <ele>153.2</ele>
        <time>2021-08-09T11:01:36Z</time>
      </trkpt>
      <trkpt lat="48.19785" lon="-3.00296">
        <ele>153</ele>
        <time>2021-08-09T11:01:37Z</time>
      </trkpt>
      <trkpt lat="48.19787" lon="-3.00293">
        <ele>153.4</ele>
        <time>2021-08-09T11:01:38Z</time>
      </trkpt>
      <trkpt lat="48.19789" lon="-3.00291">
        <ele>153.8</ele>
        <time>2021-08-09T11:01:39Z</time>
      </trkpt>
      <trkpt lat="48.19791" lon="-3.00288">
        <ele>154.2</ele>
        <time>2021-08-09T11:01:40Z</time>
      </trkpt>
      <trkpt lat="48.19794" lon="-3.00285">
        <ele>154.2</ele>
        <time>2021-08-09T11:01:41Z</time>
      </trkpt>
      <trkpt lat="48.19796" lon="-3.00283">
        <ele>154.4</ele>
        <time>2021-08-09T11:01:42Z</time>
      </trkpt>
      <trkpt lat="48.19801" lon="-3.00276">
        <ele>154.6</ele>
        <time>2021-08-09T11:01:44Z</time>
      </trkpt>
      <trkpt lat="48.19803" lon="-3.00274">
        <ele>154.8</ele>
        <time>2021-08-09T11:01:45Z</time>
      </trkpt>
      <trkpt lat="48.19805" lon="-3.00271">
        <ele>154.8</ele>
        <time>2021-08-09T11:01:46Z</time>
      </trkpt>
      <trkpt lat="48.19807" lon="-3.00267">
        <ele>155</ele>
        <time>2021-08-09T11:01:47Z</time>
      </trkpt>
      <trkpt lat="48.19809" lon="-3.00264">
        <ele>155.2</ele>
        <time>2021-08-09T11:01:48Z</time>
      </trkpt>
      <trkpt lat="48.19812" lon="-3.00262">
        <ele>155.4</ele>
        <time>2021-08-09T11:01:49Z</time>
      </trkpt>
      <trkpt lat="48.19814" lon="-3.00259">
        <ele>155.6</ele>
        <time>2021-08-09T11:01:50Z</time>
      </trkpt>
      <trkpt lat="48.19816" lon="-3.00256">
        <ele>155.6</ele>
        <time>2021-08-09T11:01:51Z</time>
      </trkpt>
      <trkpt lat="48.19819" lon="-3.00254">
        <ele>156</ele>
        <time>2021-08-09T11:01:52Z</time>
      </trkpt>
      <trkpt lat="48.19821" lon="-3.00251">
        <ele>156.2</ele>
        <time>2021-08-09T11:01:53Z</time>
      </trkpt>
      <trkpt lat="48.19825" lon="-3.00245">
        <ele>156.6</ele>
        <time>2021-08-09T11:01:55Z</time>
      </trkpt>
      <trkpt lat="48.19828" lon="-3.00243">
        <ele>156.8</ele>
        <time>2021-08-09T11:01:56Z</time>
      </trkpt>
      <trkpt lat="48.1983" lon="-3.0024">
        <ele>157.2</ele>
        <time>2021-08-09T11:01:57Z</time>
      </trkpt>
      <trkpt lat="48.19833" lon="-3.00238">
        <ele>157.4</ele>
        <time>2021-08-09T11:01:58Z</time>
      </trkpt>
      <trkpt lat="48.19835" lon="-3.00235">
        <ele>157.4</ele>
        <time>2021-08-09T11:01:59Z</time>
      </trkpt>
      <trkpt lat="48.19837" lon="-3.00232">
        <ele>157.6</ele>
        <time>2021-08-09T11:02:00Z</time>
      </trkpt>
      <trkpt lat="48.19839" lon="-3.00229">
        <ele>157.6</ele>
        <time>2021-08-09T11:02:01Z</time>
      </trkpt>
      <trkpt lat="48.19841" lon="-3.00226">
        <ele>157.8</ele>
        <time>2021-08-09T11:02:02Z</time>
      </trkpt>
      <trkpt lat="48.19844" lon="-3.00223">
        <ele>157.8</ele>
        <time>2021-08-09T11:02:03Z</time>
      </trkpt>
      <trkpt lat="48.19846" lon="-3.0022">
        <ele>158.2</ele>
        <time>2021-08-09T11:02:04Z</time>
      </trkpt>
      <trkpt lat="48.19851" lon="-3.00214">
        <ele>158.4</ele>
        <time>2021-08-09T11:02:06Z</time>
      </trkpt>
      <trkpt lat="48.19853" lon="-3.00211">
        <ele>158.6</ele>
        <time>2021-08-09T11:02:07Z</time>
      </trkpt>
      <trkpt lat="48.19856" lon="-3.00208">
        <ele>159</ele>
        <time>2021-08-09T11:02:08Z</time>
      </trkpt>
      <trkpt lat="48.19858" lon="-3.00205">
        <ele>159</ele>
        <time>2021-08-09T11:02:09Z</time>
      </trkpt>
      <trkpt lat="48.1986" lon="-3.00202">
        <ele>159.2</ele>
        <time>2021-08-09T11:02:10Z</time>
      </trkpt>
      <trkpt lat="48.19863" lon="-3.00199">
        <ele>159.4</ele>
        <time>2021-08-09T11:02:11Z</time>
      </trkpt>
      <trkpt lat="48.19865" lon="-3.00196">
        <ele>159.6</ele>
        <time>2021-08-09T11:02:12Z</time>
      </trkpt>
      <trkpt lat="48.19868" lon="-3.00193">
        <ele>159.8</ele>
        <time>2021-08-09T11:02:13Z</time>
      </trkpt>
      <trkpt lat="48.1987" lon="-3.00189">
        <ele>160</ele>
        <time>2021-08-09T11:02:14Z</time>
      </trkpt>
      <trkpt lat="48.19873" lon="-3.00186">
        <ele>160.4</ele>
        <time>2021-08-09T11:02:15Z</time>
      </trkpt>
      <trkpt lat="48.19876" lon="-3.00182">
        <ele>160.6</ele>
        <time>2021-08-09T11:02:16Z</time>
      </trkpt>
      <trkpt lat="48.1988" lon="-3.00179">
        <ele>160.8</ele>
        <time>2021-08-09T11:02:17Z</time>
      </trkpt>
      <trkpt lat="48.19883" lon="-3.00175">
        <ele>161</ele>
        <time>2021-08-09T11:02:18Z</time>
      </trkpt>
      <trkpt lat="48.19886" lon="-3.00171">
        <ele>161.2</ele>
        <time>2021-08-09T11:02:19Z</time>
      </trkpt>
      <trkpt lat="48.19889" lon="-3.00167">
        <ele>161.2</ele>
        <time>2021-08-09T11:02:20Z</time>
      </trkpt>
      <trkpt lat="48.19892" lon="-3.00163">
        <ele>161.4</ele>
        <time>2021-08-09T11:02:21Z</time>
      </trkpt>
      <trkpt lat="48.19896" lon="-3.00159">
        <ele>161.4</ele>
        <time>2021-08-09T11:02:22Z</time>
      </trkpt>
      <trkpt lat="48.19899" lon="-3.00155">
        <ele>161.4</ele>
        <time>2021-08-09T11:02:23Z</time>
      </trkpt>
      <trkpt lat="48.19902" lon="-3.00151">
        <ele>161.4</ele>
        <time>2021-08-09T11:02:24Z</time>
      </trkpt>
      <trkpt lat="48.19906" lon="-3.00147">
        <ele>161.4</ele>
        <time>2021-08-09T11:02:25Z</time>
      </trkpt>
      <trkpt lat="48.19909" lon="-3.00143">
        <ele>161.4</ele>
        <time>2021-08-09T11:02:26Z</time>
      </trkpt>
      <trkpt lat="48.19916" lon="-3.00134">
        <ele>161.4</ele>
        <time>2021-08-09T11:02:28Z</time>
      </trkpt>
      <trkpt lat="48.1992" lon="-3.00129">
        <ele>161.4</ele>
        <time>2021-08-09T11:02:29Z</time>
      </trkpt>
      <trkpt lat="48.19924" lon="-3.00124">
        <ele>161.4</ele>
        <time>2021-08-09T11:02:30Z</time>
      </trkpt>
      <trkpt lat="48.19928" lon="-3.0012">
        <ele>161.4</ele>
        <time>2021-08-09T11:02:31Z</time>
      </trkpt>
      <trkpt lat="48.19932" lon="-3.00115">
        <ele>161.4</ele>
        <time>2021-08-09T11:02:32Z</time>
      </trkpt>
      <trkpt lat="48.19936" lon="-3.00109">
        <ele>161</ele>
        <time>2021-08-09T11:02:33Z</time>
      </trkpt>
      <trkpt lat="48.1994" lon="-3.00104">
        <ele>160.8</ele>
        <time>2021-08-09T11:02:34Z</time>
      </trkpt>
      <trkpt lat="48.19945" lon="-3.00099">
        <ele>160.6</ele>
        <time>2021-08-09T11:02:35Z</time>
      </trkpt>
      <trkpt lat="48.19949" lon="-3.00093">
        <ele>160.4</ele>
        <time>2021-08-09T11:02:36Z</time>
      </trkpt>
      <trkpt lat="48.19954" lon="-3.00087">
        <ele>160.4</ele>
        <time>2021-08-09T11:02:37Z</time>
      </trkpt>
      <trkpt lat="48.19962" lon="-3.00076">
        <ele>160.2</ele>
        <time>2021-08-09T11:02:39Z</time>
      </trkpt>
      <trkpt lat="48.19967" lon="-3.00071">
        <ele>160.2</ele>
        <time>2021-08-09T11:02:40Z</time>
      </trkpt>
      <trkpt lat="48.19971" lon="-3.00066">
        <ele>160.2</ele>
        <time>2021-08-09T11:02:41Z</time>
      </trkpt>
      <trkpt lat="48.19976" lon="-3.0006">
        <ele>160</ele>
        <time>2021-08-09T11:02:42Z</time>
      </trkpt>
      <trkpt lat="48.1998" lon="-3.00055">
        <ele>159.8</ele>
        <time>2021-08-09T11:02:43Z</time>
      </trkpt>
      <trkpt lat="48.19984" lon="-3.0005">
        <ele>159.4</ele>
        <time>2021-08-09T11:02:44Z</time>
      </trkpt>
      <trkpt lat="48.19988" lon="-3.00045">
        <ele>158.8</ele>
        <time>2021-08-09T11:02:45Z</time>
      </trkpt>
      <trkpt lat="48.19992" lon="-3.0004">
        <ele>158.6</ele>
        <time>2021-08-09T11:02:46Z</time>
      </trkpt>
      <trkpt lat="48.19995" lon="-3.00036">
        <ele>158.4</ele>
        <time>2021-08-09T11:02:47Z</time>
      </trkpt>
      <trkpt lat="48.19999" lon="-3.0003">
        <ele>158.4</ele>
        <time>2021-08-09T11:02:48Z</time>
      </trkpt>
      <trkpt lat="48.20004" lon="-3.0002">
        <ele>158.2</ele>
        <time>2021-08-09T11:02:50Z</time>
      </trkpt>
      <trkpt lat="48.20007" lon="-3.00015">
        <ele>158.2</ele>
        <time>2021-08-09T11:02:51Z</time>
      </trkpt>
      <trkpt lat="48.2001" lon="-3.0001">
        <ele>158.2</ele>
        <time>2021-08-09T11:02:52Z</time>
      </trkpt>
      <trkpt lat="48.20013" lon="-3.00008">
        <ele>158.2</ele>
        <time>2021-08-09T11:02:53Z</time>
      </trkpt>
      <trkpt lat="48.20016" lon="-3.00007">
        <ele>158.2</ele>
        <time>2021-08-09T11:02:54Z</time>
      </trkpt>
      <trkpt lat="48.20019" lon="-3.00009">
        <ele>158.2</ele>
        <time>2021-08-09T11:02:55Z</time>
      </trkpt>
      <trkpt lat="48.20021" lon="-3.00013">
        <ele>158.6</ele>
        <time>2021-08-09T11:02:56Z</time>
      </trkpt>
      <trkpt lat="48.20023" lon="-3.00016">
        <ele>158.6</ele>
        <time>2021-08-09T11:02:57Z</time>
      </trkpt>
      <trkpt lat="48.20024" lon="-3.0002">
        <ele>158.6</ele>
        <time>2021-08-09T11:02:58Z</time>
      </trkpt>
      <trkpt lat="48.20027" lon="-3.00024">
        <ele>158.6</ele>
        <time>2021-08-09T11:02:59Z</time>
      </trkpt>
      <trkpt lat="48.20029" lon="-3.00027">
        <ele>158.6</ele>
        <time>2021-08-09T11:03:00Z</time>
      </trkpt>
      <trkpt lat="48.20032" lon="-3.00031">
        <ele>158.6</ele>
        <time>2021-08-09T11:03:01Z</time>
      </trkpt>
      <trkpt lat="48.20036" lon="-3.00034">
        <ele>158.6</ele>
        <time>2021-08-09T11:03:02Z</time>
      </trkpt>
      <trkpt lat="48.20039" lon="-3.00038">
        <ele>158.6</ele>
        <time>2021-08-09T11:03:03Z</time>
      </trkpt>
      <trkpt lat="48.20043" lon="-3.0004">
        <ele>158.6</ele>
        <time>2021-08-09T11:03:04Z</time>
      </trkpt>
      <trkpt lat="48.20047" lon="-3.00042">
        <ele>158.6</ele>
        <time>2021-08-09T11:03:05Z</time>
      </trkpt>
      <trkpt lat="48.20051" lon="-3.00043">
        <ele>158.6</ele>
        <time>2021-08-09T11:03:06Z</time>
      </trkpt>
      <trkpt lat="48.20055" lon="-3.00045">
        <ele>158.6</ele>
        <time>2021-08-09T11:03:07Z</time>
      </trkpt>
      <trkpt lat="48.20059" lon="-3.00045">
        <ele>158.4</ele>
        <time>2021-08-09T11:03:08Z</time>
      </trkpt>
      <trkpt lat="48.20063" lon="-3.00046">
        <ele>158.2</ele>
        <time>2021-08-09T11:03:09Z</time>
      </trkpt>
      <trkpt lat="48.20067" lon="-3.00046">
        <ele>158.2</ele>
        <time>2021-08-09T11:03:10Z</time>
      </trkpt>
      <trkpt lat="48.20075" lon="-3.00046">
        <ele>158</ele>
        <time>2021-08-09T11:03:12Z</time>
      </trkpt>
      <trkpt lat="48.20078" lon="-3.00045">
        <ele>158</ele>
        <time>2021-08-09T11:03:13Z</time>
      </trkpt>
      <trkpt lat="48.20082" lon="-3.00044">
        <ele>158</ele>
        <time>2021-08-09T11:03:14Z</time>
      </trkpt>
      <trkpt lat="48.20085" lon="-3.00043">
        <ele>158</ele>
        <time>2021-08-09T11:03:15Z</time>
      </trkpt>
      <trkpt lat="48.20088" lon="-3.00043">
        <ele>158</ele>
        <time>2021-08-09T11:03:16Z</time>
      </trkpt>
      <trkpt lat="48.20092" lon="-3.00043">
        <ele>158</ele>
        <time>2021-08-09T11:03:17Z</time>
      </trkpt>
      <trkpt lat="48.20095" lon="-3.00042">
        <ele>158</ele>
        <time>2021-08-09T11:03:18Z</time>
      </trkpt>
      <trkpt lat="48.20098" lon="-3.00042">
        <ele>158</ele>
        <time>2021-08-09T11:03:19Z</time>
      </trkpt>
      <trkpt lat="48.20102" lon="-3.00041">
        <ele>158</ele>
        <time>2021-08-09T11:03:20Z</time>
      </trkpt>
      <trkpt lat="48.20105" lon="-3.0004">
        <ele>158</ele>
        <time>2021-08-09T11:03:21Z</time>
      </trkpt>
      <trkpt lat="48.20111" lon="-3.00039">
        <ele>158.4</ele>
        <time>2021-08-09T11:03:23Z</time>
      </trkpt>
      <trkpt lat="48.20114" lon="-3.00039">
        <ele>158.6</ele>
        <time>2021-08-09T11:03:24Z</time>
      </trkpt>
      <trkpt lat="48.20117" lon="-3.00037">
        <ele>158.6</ele>
        <time>2021-08-09T11:03:25Z</time>
      </trkpt>
      <trkpt lat="48.2012" lon="-3.00036">
        <ele>158.6</ele>
        <time>2021-08-09T11:03:26Z</time>
      </trkpt>
      <trkpt lat="48.20124" lon="-3.00036">
        <ele>158.6</ele>
        <time>2021-08-09T11:03:27Z</time>
      </trkpt>
      <trkpt lat="48.20127" lon="-3.00035">
        <ele>158.8</ele>
        <time>2021-08-09T11:03:28Z</time>
      </trkpt>
      <trkpt lat="48.2013" lon="-3.00034">
        <ele>158.8</ele>
        <time>2021-08-09T11:03:29Z</time>
      </trkpt>
      <trkpt lat="48.20134" lon="-3.00034">
        <ele>158.8</ele>
        <time>2021-08-09T11:03:30Z</time>
      </trkpt>
      <trkpt lat="48.20137" lon="-3.00033">
        <ele>159</ele>
        <time>2021-08-09T11:03:31Z</time>
      </trkpt>
      <trkpt lat="48.20141" lon="-3.00032">
        <ele>159.2</ele>
        <time>2021-08-09T11:03:32Z</time>
      </trkpt>
      <trkpt lat="48.20148" lon="-3.00031">
        <ele>159.4</ele>
        <time>2021-08-09T11:03:34Z</time>
      </trkpt>
      <trkpt lat="48.20152" lon="-3.00031">
        <ele>159.4</ele>
        <time>2021-08-09T11:03:35Z</time>
      </trkpt>
      <trkpt lat="48.20156" lon="-3.0003">
        <ele>159.6</ele>
        <time>2021-08-09T11:03:36Z</time>
      </trkpt>
      <trkpt lat="48.2016" lon="-3.0003">
        <ele>159.6</ele>
        <time>2021-08-09T11:03:37Z</time>
      </trkpt>
      <trkpt lat="48.20163" lon="-3.00029">
        <ele>159.6</ele>
        <time>2021-08-09T11:03:38Z</time>
      </trkpt>
      <trkpt lat="48.20167" lon="-3.00029">
        <ele>159.6</ele>
        <time>2021-08-09T11:03:39Z</time>
      </trkpt>
      <trkpt lat="48.20171" lon="-3.00028">
        <ele>159.6</ele>
        <time>2021-08-09T11:03:40Z</time>
      </trkpt>
      <trkpt lat="48.20175" lon="-3.00028">
        <ele>159.6</ele>
        <time>2021-08-09T11:03:41Z</time>
      </trkpt>
      <trkpt lat="48.20179" lon="-3.00028">
        <ele>159.6</ele>
        <time>2021-08-09T11:03:42Z</time>
      </trkpt>
      <trkpt lat="48.20182" lon="-3.00028">
        <ele>159.6</ele>
        <time>2021-08-09T11:03:43Z</time>
      </trkpt>
      <trkpt lat="48.20188" lon="-3.00028">
        <ele>159.6</ele>
        <time>2021-08-09T11:03:45Z</time>
      </trkpt>
      <trkpt lat="48.20191" lon="-3.00028">
        <ele>159.6</ele>
        <time>2021-08-09T11:03:46Z</time>
      </trkpt>
      <trkpt lat="48.20193" lon="-3.00028">
        <ele>159.8</ele>
        <time>2021-08-09T11:03:47Z</time>
      </trkpt>
      <trkpt lat="48.20196" lon="-3.00028">
        <ele>159.8</ele>
        <time>2021-08-09T11:03:48Z</time>
      </trkpt>
      <trkpt lat="48.20199" lon="-3.00028">
        <ele>159.8</ele>
        <time>2021-08-09T11:03:49Z</time>
      </trkpt>
      <trkpt lat="48.20201" lon="-3.00029">
        <ele>159.8</ele>
        <time>2021-08-09T11:03:50Z</time>
      </trkpt>
      <trkpt lat="48.20204" lon="-3.00029">
        <ele>159.8</ele>
        <time>2021-08-09T11:03:51Z</time>
      </trkpt>
      <trkpt lat="48.20207" lon="-3.0003">
        <ele>159.8</ele>
        <time>2021-08-09T11:03:52Z</time>
      </trkpt>
      <trkpt lat="48.2021" lon="-3.00031">
        <ele>159.8</ele>
        <time>2021-08-09T11:03:53Z</time>
      </trkpt>
      <trkpt lat="48.20212" lon="-3.00031">
        <ele>159.8</ele>
        <time>2021-08-09T11:03:54Z</time>
      </trkpt>
      <trkpt lat="48.20216" lon="-3.00032">
        <ele>159.8</ele>
        <time>2021-08-09T11:03:56Z</time>
      </trkpt>
      <trkpt lat="48.20218" lon="-3.00033">
        <ele>159.8</ele>
        <time>2021-08-09T11:03:57Z</time>
      </trkpt>
      <trkpt lat="48.2022" lon="-3.00033">
        <ele>159.8</ele>
        <time>2021-08-09T11:03:58Z</time>
      </trkpt>
      <trkpt lat="48.20222" lon="-3.00034">
        <ele>159.8</ele>
        <time>2021-08-09T11:03:59Z</time>
      </trkpt>
      <trkpt lat="48.20224" lon="-3.00035">
        <ele>159.8</ele>
        <time>2021-08-09T11:04:00Z</time>
      </trkpt>
      <trkpt lat="48.20226" lon="-3.00035">
        <ele>159.8</ele>
        <time>2021-08-09T11:04:01Z</time>
      </trkpt>
      <trkpt lat="48.20227" lon="-3.00036">
        <ele>159.8</ele>
        <time>2021-08-09T11:04:02Z</time>
      </trkpt>
      <trkpt lat="48.20229" lon="-3.00036">
        <ele>159.8</ele>
        <time>2021-08-09T11:04:03Z</time>
      </trkpt>
      <trkpt lat="48.20231" lon="-3.00037">
        <ele>159.8</ele>
        <time>2021-08-09T11:04:04Z</time>
      </trkpt>
      <trkpt lat="48.20234" lon="-3.00037">
        <ele>159.6</ele>
        <time>2021-08-09T11:04:05Z</time>
      </trkpt>
      <trkpt lat="48.20239" lon="-3.00037">
        <ele>159.6</ele>
        <time>2021-08-09T11:04:07Z</time>
      </trkpt>
      <trkpt lat="48.20242" lon="-3.00038">
        <ele>159.6</ele>
        <time>2021-08-09T11:04:08Z</time>
      </trkpt>
      <trkpt lat="48.20245" lon="-3.00039">
        <ele>159.6</ele>
        <time>2021-08-09T11:04:09Z</time>
      </trkpt>
      <trkpt lat="48.20248" lon="-3.0004">
        <ele>159.4</ele>
        <time>2021-08-09T11:04:10Z</time>
      </trkpt>
      <trkpt lat="48.20252" lon="-3.00041">
        <ele>159.4</ele>
        <time>2021-08-09T11:04:11Z</time>
      </trkpt>
      <trkpt lat="48.20255" lon="-3.00042">
        <ele>159.4</ele>
        <time>2021-08-09T11:04:12Z</time>
      </trkpt>
      <trkpt lat="48.20259" lon="-3.00043">
        <ele>159.4</ele>
        <time>2021-08-09T11:04:13Z</time>
      </trkpt>
      <trkpt lat="48.20262" lon="-3.00044">
        <ele>159.4</ele>
        <time>2021-08-09T11:04:14Z</time>
      </trkpt>
      <trkpt lat="48.20266" lon="-3.00045">
        <ele>159.2</ele>
        <time>2021-08-09T11:04:15Z</time>
      </trkpt>
      <trkpt lat="48.20269" lon="-3.00046">
        <ele>159.2</ele>
        <time>2021-08-09T11:04:16Z</time>
      </trkpt>
      <trkpt lat="48.20277" lon="-3.00047">
        <ele>159</ele>
        <time>2021-08-09T11:04:18Z</time>
      </trkpt>
      <trkpt lat="48.20281" lon="-3.00048">
        <ele>159</ele>
        <time>2021-08-09T11:04:19Z</time>
      </trkpt>
      <trkpt lat="48.20284" lon="-3.00048">
        <ele>158.8</ele>
        <time>2021-08-09T11:04:20Z</time>
      </trkpt>
      <trkpt lat="48.20288" lon="-3.0005">
        <ele>158.8</ele>
        <time>2021-08-09T11:04:21Z</time>
      </trkpt>
      <trkpt lat="48.20292" lon="-3.00051">
        <ele>158.8</ele>
        <time>2021-08-09T11:04:22Z</time>
      </trkpt>
      <trkpt lat="48.20296" lon="-3.00053">
        <ele>158.6</ele>
        <time>2021-08-09T11:04:23Z</time>
      </trkpt>
      <trkpt lat="48.203" lon="-3.00054">
        <ele>158.6</ele>
        <time>2021-08-09T11:04:24Z</time>
      </trkpt>
      <trkpt lat="48.20303" lon="-3.00055">
        <ele>158.6</ele>
        <time>2021-08-09T11:04:25Z</time>
      </trkpt>
      <trkpt lat="48.20307" lon="-3.00057">
        <ele>158.6</ele>
        <time>2021-08-09T11:04:26Z</time>
      </trkpt>
      <trkpt lat="48.20311" lon="-3.0006">
        <ele>158.4</ele>
        <time>2021-08-09T11:04:27Z</time>
      </trkpt>
      <trkpt lat="48.20315" lon="-3.00061">
        <ele>158.2</ele>
        <time>2021-08-09T11:04:28Z</time>
      </trkpt>
      <trkpt lat="48.20319" lon="-3.00062">
        <ele>158.2</ele>
        <time>2021-08-09T11:04:29Z</time>
      </trkpt>
      <trkpt lat="48.20323" lon="-3.00063">
        <ele>158</ele>
        <time>2021-08-09T11:04:30Z</time>
      </trkpt>
      <trkpt lat="48.20327" lon="-3.00065">
        <ele>157.8</ele>
        <time>2021-08-09T11:04:31Z</time>
      </trkpt>
      <trkpt lat="48.20331" lon="-3.00067">
        <ele>157.4</ele>
        <time>2021-08-09T11:04:32Z</time>
      </trkpt>
      <trkpt lat="48.20335" lon="-3.00068">
        <ele>157.2</ele>
        <time>2021-08-09T11:04:33Z</time>
      </trkpt>
      <trkpt lat="48.2034" lon="-3.0007">
        <ele>157.2</ele>
        <time>2021-08-09T11:04:34Z</time>
      </trkpt>
      <trkpt lat="48.20344" lon="-3.00071">
        <ele>157</ele>
        <time>2021-08-09T11:04:35Z</time>
      </trkpt>
      <trkpt lat="48.20349" lon="-3.00073">
        <ele>157</ele>
        <time>2021-08-09T11:04:36Z</time>
      </trkpt>
      <trkpt lat="48.20354" lon="-3.00073">
        <ele>156.8</ele>
        <time>2021-08-09T11:04:37Z</time>
      </trkpt>
      <trkpt lat="48.20359" lon="-3.00074">
        <ele>156.6</ele>
        <time>2021-08-09T11:04:38Z</time>
      </trkpt>
      <trkpt lat="48.20365" lon="-3.00075">
        <ele>156.4</ele>
        <time>2021-08-09T11:04:39Z</time>
      </trkpt>
      <trkpt lat="48.2037" lon="-3.00075">
        <ele>156.4</ele>
        <time>2021-08-09T11:04:40Z</time>
      </trkpt>
      <trkpt lat="48.20376" lon="-3.00074">
        <ele>156.4</ele>
        <time>2021-08-09T11:04:41Z</time>
      </trkpt>
      <trkpt lat="48.20382" lon="-3.00074">
        <ele>156.2</ele>
        <time>2021-08-09T11:04:42Z</time>
      </trkpt>
      <trkpt lat="48.20387" lon="-3.00073">
        <ele>156.2</ele>
        <time>2021-08-09T11:04:43Z</time>
      </trkpt>
      <trkpt lat="48.20392" lon="-3.00072">
        <ele>156</ele>
        <time>2021-08-09T11:04:44Z</time>
      </trkpt>
      <trkpt lat="48.20397" lon="-3.00071">
        <ele>155.8</ele>
        <time>2021-08-09T11:04:45Z</time>
      </trkpt>
      <trkpt lat="48.20401" lon="-3.00072">
        <ele>155.6</ele>
        <time>2021-08-09T11:04:46Z</time>
      </trkpt>
      <trkpt lat="48.20405" lon="-3.00074">
        <ele>155.6</ele>
        <time>2021-08-09T11:04:47Z</time>
      </trkpt>
      <trkpt lat="48.20408" lon="-3.00078">
        <ele>155.4</ele>
        <time>2021-08-09T11:04:48Z</time>
      </trkpt>
      <trkpt lat="48.2041" lon="-3.0008">
        <ele>155.2</ele>
        <time>2021-08-09T11:04:49Z</time>
      </trkpt>
      <trkpt lat="48.20413" lon="-3.00083">
        <ele>154.6</ele>
        <time>2021-08-09T11:04:51Z</time>
      </trkpt>
      <trkpt lat="48.20414" lon="-3.00083">
        <ele>154.6</ele>
        <time>2021-08-09T11:04:52Z</time>
      </trkpt>
      <trkpt lat="48.2042" lon="-3.00083">
        <ele>154.6</ele>
        <time>2021-08-09T11:07:26Z</time>
      </trkpt>
      <trkpt lat="48.20424" lon="-3.00081">
        <ele>154.6</ele>
        <time>2021-08-09T11:07:27Z</time>
      </trkpt>
      <trkpt lat="48.20427" lon="-3.00079">
        <ele>154.6</ele>
        <time>2021-08-09T11:07:28Z</time>
      </trkpt>
      <trkpt lat="48.20431" lon="-3.00077">
        <ele>154.6</ele>
        <time>2021-08-09T11:07:29Z</time>
      </trkpt>
      <trkpt lat="48.20439" lon="-3.00073">
        <ele>154.6</ele>
        <time>2021-08-09T11:07:31Z</time>
      </trkpt>
      <trkpt lat="48.20443" lon="-3.00071">
        <ele>154.6</ele>
        <time>2021-08-09T11:07:32Z</time>
      </trkpt>
      <trkpt lat="48.20447" lon="-3.00069">
        <ele>154.4</ele>
        <time>2021-08-09T11:07:33Z</time>
      </trkpt>
      <trkpt lat="48.20452" lon="-3.00067">
        <ele>154.4</ele>
        <time>2021-08-09T11:07:34Z</time>
      </trkpt>
      <trkpt lat="48.20456" lon="-3.00065">
        <ele>154.2</ele>
        <time>2021-08-09T11:07:35Z</time>
      </trkpt>
      <trkpt lat="48.20461" lon="-3.00063">
        <ele>154</ele>
        <time>2021-08-09T11:07:36Z</time>
      </trkpt>
      <trkpt lat="48.20466" lon="-3.0006">
        <ele>153.8</ele>
        <time>2021-08-09T11:07:37Z</time>
      </trkpt>
      <trkpt lat="48.20472" lon="-3.00058">
        <ele>153.8</ele>
        <time>2021-08-09T11:07:38Z</time>
      </trkpt>
      <trkpt lat="48.20483" lon="-3.00053">
        <ele>153.6</ele>
        <time>2021-08-09T11:07:40Z</time>
      </trkpt>
      <trkpt lat="48.20489" lon="-3.00051">
        <ele>153.6</ele>
        <time>2021-08-09T11:07:41Z</time>
      </trkpt>
      <trkpt lat="48.20495" lon="-3.00048">
        <ele>153.6</ele>
        <time>2021-08-09T11:07:42Z</time>
      </trkpt>
      <trkpt lat="48.20501" lon="-3.00046">
        <ele>153.4</ele>
        <time>2021-08-09T11:07:43Z</time>
      </trkpt>
      <trkpt lat="48.20507" lon="-3.00044">
        <ele>153.2</ele>
        <time>2021-08-09T11:07:44Z</time>
      </trkpt>
      <trkpt lat="48.20513" lon="-3.00041">
        <ele>153</ele>
        <time>2021-08-09T11:07:45Z</time>
      </trkpt>
      <trkpt lat="48.20519" lon="-3.00039">
        <ele>152.6</ele>
        <time>2021-08-09T11:07:46Z</time>
      </trkpt>
      <trkpt lat="48.20525" lon="-3.00037">
        <ele>152.4</ele>
        <time>2021-08-09T11:07:47Z</time>
      </trkpt>
      <trkpt lat="48.20531" lon="-3.00035">
        <ele>152.2</ele>
        <time>2021-08-09T11:07:48Z</time>
      </trkpt>
      <trkpt lat="48.20537" lon="-3.00034">
        <ele>151.8</ele>
        <time>2021-08-09T11:07:49Z</time>
      </trkpt>
      <trkpt lat="48.2055" lon="-3.00032">
        <ele>151.6</ele>
        <time>2021-08-09T11:07:51Z</time>
      </trkpt>
      <trkpt lat="48.20555" lon="-3.00031">
        <ele>151.6</ele>
        <time>2021-08-09T11:07:52Z</time>
      </trkpt>
      <trkpt lat="48.20562" lon="-3.0003">
        <ele>151.4</ele>
        <time>2021-08-09T11:07:53Z</time>
      </trkpt>
      <trkpt lat="48.20568" lon="-3.00029">
        <ele>151.6</ele>
        <time>2021-08-09T11:07:54Z</time>
      </trkpt>
      <trkpt lat="48.20575" lon="-3.00028">
        <ele>151.2</ele>
        <time>2021-08-09T11:07:55Z</time>
      </trkpt>
      <trkpt lat="48.20581" lon="-3.00028">
        <ele>150.2</ele>
        <time>2021-08-09T11:07:56Z</time>
      </trkpt>
      <trkpt lat="48.20588" lon="-3.00029">
        <ele>149.6</ele>
        <time>2021-08-09T11:07:57Z</time>
      </trkpt>
      <trkpt lat="48.20595" lon="-3.00029">
        <ele>149.4</ele>
        <time>2021-08-09T11:07:58Z</time>
      </trkpt>
      <trkpt lat="48.20601" lon="-3.00029">
        <ele>149</ele>
        <time>2021-08-09T11:07:59Z</time>
      </trkpt>
      <trkpt lat="48.20608" lon="-3.0003">
        <ele>148.8</ele>
        <time>2021-08-09T11:08:00Z</time>
      </trkpt>
      <trkpt lat="48.20615" lon="-3.00031">
        <ele>148.6</ele>
        <time>2021-08-09T11:08:01Z</time>
      </trkpt>
      <trkpt lat="48.20621" lon="-3.00032">
        <ele>148.4</ele>
        <time>2021-08-09T11:08:02Z</time>
      </trkpt>
      <trkpt lat="48.20628" lon="-3.00034">
        <ele>148.4</ele>
        <time>2021-08-09T11:08:03Z</time>
      </trkpt>
      <trkpt lat="48.20635" lon="-3.00036">
        <ele>148.2</ele>
        <time>2021-08-09T11:08:04Z</time>
      </trkpt>
      <trkpt lat="48.20642" lon="-3.00039">
        <ele>148.2</ele>
        <time>2021-08-09T11:08:05Z</time>
      </trkpt>
      <trkpt lat="48.20648" lon="-3.00041">
        <ele>148.2</ele>
        <time>2021-08-09T11:08:06Z</time>
      </trkpt>
      <trkpt lat="48.20654" lon="-3.00042">
        <ele>148.2</ele>
        <time>2021-08-09T11:08:07Z</time>
      </trkpt>
      <trkpt lat="48.2066" lon="-3.00045">
        <ele>148.2</ele>
        <time>2021-08-09T11:08:08Z</time>
      </trkpt>
      <trkpt lat="48.20667" lon="-3.00047">
        <ele>148.2</ele>
        <time>2021-08-09T11:08:09Z</time>
      </trkpt>
      <trkpt lat="48.20674" lon="-3.0005">
        <ele>148</ele>
        <time>2021-08-09T11:08:10Z</time>
      </trkpt>
      <trkpt lat="48.20682" lon="-3.00053">
        <ele>148</ele>
        <time>2021-08-09T11:08:11Z</time>
      </trkpt>
      <trkpt lat="48.20697" lon="-3.00059">
        <ele>148</ele>
        <time>2021-08-09T11:08:13Z</time>
      </trkpt>
      <trkpt lat="48.20705" lon="-3.00063">
        <ele>148</ele>
        <time>2021-08-09T11:08:14Z</time>
      </trkpt>
      <trkpt lat="48.20712" lon="-3.00066">
        <ele>147.8</ele>
        <time>2021-08-09T11:08:15Z</time>
      </trkpt>
      <trkpt lat="48.20719" lon="-3.00071">
        <ele>147.8</ele>
        <time>2021-08-09T11:08:16Z</time>
      </trkpt>
      <trkpt lat="48.20727" lon="-3.00076">
        <ele>147.6</ele>
        <time>2021-08-09T11:08:17Z</time>
      </trkpt>
      <trkpt lat="48.20734" lon="-3.00081">
        <ele>147.6</ele>
        <time>2021-08-09T11:08:18Z</time>
      </trkpt>
      <trkpt lat="48.20741" lon="-3.00087">
        <ele>147.6</ele>
        <time>2021-08-09T11:08:19Z</time>
      </trkpt>
      <trkpt lat="48.20748" lon="-3.00093">
        <ele>147.4</ele>
        <time>2021-08-09T11:08:20Z</time>
      </trkpt>
      <trkpt lat="48.20755" lon="-3.00099">
        <ele>147.4</ele>
        <time>2021-08-09T11:08:21Z</time>
      </trkpt>
      <trkpt lat="48.20762" lon="-3.00105">
        <ele>147.4</ele>
        <time>2021-08-09T11:08:22Z</time>
      </trkpt>
      <trkpt lat="48.20776" lon="-3.00118">
        <ele>147</ele>
        <time>2021-08-09T11:08:24Z</time>
      </trkpt>
      <trkpt lat="48.20782" lon="-3.00125">
        <ele>146.6</ele>
        <time>2021-08-09T11:08:25Z</time>
      </trkpt>
      <trkpt lat="48.20789" lon="-3.00131">
        <ele>146.2</ele>
        <time>2021-08-09T11:08:26Z</time>
      </trkpt>
      <trkpt lat="48.20795" lon="-3.00138">
        <ele>146</ele>
        <time>2021-08-09T11:08:27Z</time>
      </trkpt>
      <trkpt lat="48.20802" lon="-3.00146">
        <ele>145.8</ele>
        <time>2021-08-09T11:08:28Z</time>
      </trkpt>
      <trkpt lat="48.20808" lon="-3.00153">
        <ele>145.6</ele>
        <time>2021-08-09T11:08:29Z</time>
      </trkpt>
      <trkpt lat="48.20815" lon="-3.0016">
        <ele>145.6</ele>
        <time>2021-08-09T11:08:30Z</time>
      </trkpt>
      <trkpt lat="48.20821" lon="-3.00168">
        <ele>145.6</ele>
        <time>2021-08-09T11:08:31Z</time>
      </trkpt>
      <trkpt lat="48.20828" lon="-3.00175">
        <ele>145.4</ele>
        <time>2021-08-09T11:08:32Z</time>
      </trkpt>
      <trkpt lat="48.20835" lon="-3.00183">
        <ele>145.2</ele>
        <time>2021-08-09T11:08:33Z</time>
      </trkpt>
      <trkpt lat="48.20848" lon="-3.00197">
        <ele>144.6</ele>
        <time>2021-08-09T11:08:35Z</time>
      </trkpt>
      <trkpt lat="48.20855" lon="-3.00204">
        <ele>144.4</ele>
        <time>2021-08-09T11:08:36Z</time>
      </trkpt>
      <trkpt lat="48.20861" lon="-3.00211">
        <ele>144.2</ele>
        <time>2021-08-09T11:08:37Z</time>
      </trkpt>
      <trkpt lat="48.20868" lon="-3.00218">
        <ele>144</ele>
        <time>2021-08-09T11:08:38Z</time>
      </trkpt>
      <trkpt lat="48.20874" lon="-3.00224">
        <ele>143.8</ele>
        <time>2021-08-09T11:08:39Z</time>
      </trkpt>
      <trkpt lat="48.2088" lon="-3.00231">
        <ele>143.8</ele>
        <time>2021-08-09T11:08:40Z</time>
      </trkpt>
      <trkpt lat="48.20886" lon="-3.00237">
        <ele>143.8</ele>
        <time>2021-08-09T11:08:41Z</time>
      </trkpt>
      <trkpt lat="48.20892" lon="-3.00243">
        <ele>143.8</ele>
        <time>2021-08-09T11:08:42Z</time>
      </trkpt>
      <trkpt lat="48.20898" lon="-3.00249">
        <ele>143.6</ele>
        <time>2021-08-09T11:08:43Z</time>
      </trkpt>
      <trkpt lat="48.20903" lon="-3.00254">
        <ele>143.6</ele>
        <time>2021-08-09T11:08:44Z</time>
      </trkpt>
      <trkpt lat="48.20915" lon="-3.00267">
        <ele>143.6</ele>
        <time>2021-08-09T11:08:46Z</time>
      </trkpt>
      <trkpt lat="48.20921" lon="-3.00273">
        <ele>143.6</ele>
        <time>2021-08-09T11:08:47Z</time>
      </trkpt>
      <trkpt lat="48.20927" lon="-3.00278">
        <ele>143.6</ele>
        <time>2021-08-09T11:08:48Z</time>
      </trkpt>
      <trkpt lat="48.20932" lon="-3.00284">
        <ele>143.6</ele>
        <time>2021-08-09T11:08:49Z</time>
      </trkpt>
      <trkpt lat="48.20937" lon="-3.0029">
        <ele>143.6</ele>
        <time>2021-08-09T11:08:50Z</time>
      </trkpt>
      <trkpt lat="48.20942" lon="-3.00296">
        <ele>143.6</ele>
        <time>2021-08-09T11:08:51Z</time>
      </trkpt>
      <trkpt lat="48.20947" lon="-3.00302">
        <ele>143.6</ele>
        <time>2021-08-09T11:08:52Z</time>
      </trkpt>
      <trkpt lat="48.20952" lon="-3.00308">
        <ele>143.6</ele>
        <time>2021-08-09T11:08:53Z</time>
      </trkpt>
      <trkpt lat="48.20956" lon="-3.00314">
        <ele>143.8</ele>
        <time>2021-08-09T11:08:54Z</time>
      </trkpt>
      <trkpt lat="48.20961" lon="-3.0032">
        <ele>144</ele>
        <time>2021-08-09T11:08:55Z</time>
      </trkpt>
      <trkpt lat="48.20972" lon="-3.00332">
        <ele>144</ele>
        <time>2021-08-09T11:08:57Z</time>
      </trkpt>
      <trkpt lat="48.20977" lon="-3.00338">
        <ele>144.2</ele>
        <time>2021-08-09T11:08:58Z</time>
      </trkpt>
      <trkpt lat="48.20982" lon="-3.00344">
        <ele>144.4</ele>
        <time>2021-08-09T11:08:59Z</time>
      </trkpt>
      <trkpt lat="48.20987" lon="-3.0035">
        <ele>144.4</ele>
        <time>2021-08-09T11:09:00Z</time>
      </trkpt>
      <trkpt lat="48.20992" lon="-3.00356">
        <ele>144.6</ele>
        <time>2021-08-09T11:09:01Z</time>
      </trkpt>
      <trkpt lat="48.20997" lon="-3.00361">
        <ele>144.8</ele>
        <time>2021-08-09T11:09:02Z</time>
      </trkpt>
      <trkpt lat="48.21001" lon="-3.00367">
        <ele>145</ele>
        <time>2021-08-09T11:09:03Z</time>
      </trkpt>
      <trkpt lat="48.21006" lon="-3.00372">
        <ele>145</ele>
        <time>2021-08-09T11:09:04Z</time>
      </trkpt>
      <trkpt lat="48.2101" lon="-3.00378">
        <ele>145.2</ele>
        <time>2021-08-09T11:09:05Z</time>
      </trkpt>
      <trkpt lat="48.21015" lon="-3.00383">
        <ele>145.4</ele>
        <time>2021-08-09T11:09:06Z</time>
      </trkpt>
      <trkpt lat="48.21024" lon="-3.00394">
        <ele>145.6</ele>
        <time>2021-08-09T11:09:08Z</time>
      </trkpt>
      <trkpt lat="48.21028" lon="-3.00399">
        <ele>145.6</ele>
        <time>2021-08-09T11:09:09Z</time>
      </trkpt>
      <trkpt lat="48.21032" lon="-3.00404">
        <ele>145.6</ele>
        <time>2021-08-09T11:09:10Z</time>
      </trkpt>
      <trkpt lat="48.21036" lon="-3.0041">
        <ele>145.6</ele>
        <time>2021-08-09T11:09:11Z</time>
      </trkpt>
      <trkpt lat="48.21041" lon="-3.00415">
        <ele>145.6</ele>
        <time>2021-08-09T11:09:12Z</time>
      </trkpt>
      <trkpt lat="48.21045" lon="-3.0042">
        <ele>145.8</ele>
        <time>2021-08-09T11:09:13Z</time>
      </trkpt>
      <trkpt lat="48.2105" lon="-3.00425">
        <ele>146</ele>
        <time>2021-08-09T11:09:14Z</time>
      </trkpt>
      <trkpt lat="48.21054" lon="-3.0043">
        <ele>146</ele>
        <time>2021-08-09T11:09:15Z</time>
      </trkpt>
      <trkpt lat="48.21059" lon="-3.00435">
        <ele>146</ele>
        <time>2021-08-09T11:09:16Z</time>
      </trkpt>
      <trkpt lat="48.21063" lon="-3.00439">
        <ele>146</ele>
        <time>2021-08-09T11:09:17Z</time>
      </trkpt>
      <trkpt lat="48.21067" lon="-3.00444">
        <ele>146</ele>
        <time>2021-08-09T11:09:18Z</time>
      </trkpt>
      <trkpt lat="48.21071" lon="-3.00448">
        <ele>146.2</ele>
        <time>2021-08-09T11:09:19Z</time>
      </trkpt>
      <trkpt lat="48.21075" lon="-3.00453">
        <ele>146.2</ele>
        <time>2021-08-09T11:09:20Z</time>
      </trkpt>
      <trkpt lat="48.2108" lon="-3.00459">
        <ele>146.2</ele>
        <time>2021-08-09T11:09:21Z</time>
      </trkpt>
      <trkpt lat="48.21084" lon="-3.00464">
        <ele>146.2</ele>
        <time>2021-08-09T11:09:22Z</time>
      </trkpt>
      <trkpt lat="48.21089" lon="-3.00469">
        <ele>146.2</ele>
        <time>2021-08-09T11:09:23Z</time>
      </trkpt>
      <trkpt lat="48.21093" lon="-3.00475">
        <ele>146</ele>
        <time>2021-08-09T11:09:24Z</time>
      </trkpt>
      <trkpt lat="48.21098" lon="-3.0048">
        <ele>146</ele>
        <time>2021-08-09T11:09:25Z</time>
      </trkpt>
      <trkpt lat="48.21103" lon="-3.00485">
        <ele>146</ele>
        <time>2021-08-09T11:09:26Z</time>
      </trkpt>
      <trkpt lat="48.21108" lon="-3.00491">
        <ele>146</ele>
        <time>2021-08-09T11:09:27Z</time>
      </trkpt>
      <trkpt lat="48.21113" lon="-3.00495">
        <ele>146</ele>
        <time>2021-08-09T11:09:28Z</time>
      </trkpt>
      <trkpt lat="48.21118" lon="-3.005">
        <ele>146</ele>
        <time>2021-08-09T11:09:29Z</time>
      </trkpt>
      <trkpt lat="48.21122" lon="-3.00506">
        <ele>146</ele>
        <time>2021-08-09T11:09:30Z</time>
      </trkpt>
      <trkpt lat="48.21127" lon="-3.00512">
        <ele>146</ele>
        <time>2021-08-09T11:09:31Z</time>
      </trkpt>
      <trkpt lat="48.21132" lon="-3.00517">
        <ele>146</ele>
        <time>2021-08-09T11:09:32Z</time>
      </trkpt>
      <trkpt lat="48.21137" lon="-3.00523">
        <ele>146</ele>
        <time>2021-08-09T11:09:33Z</time>
      </trkpt>
      <trkpt lat="48.21142" lon="-3.00529">
        <ele>145.8</ele>
        <time>2021-08-09T11:09:34Z</time>
      </trkpt>
      <trkpt lat="48.21147" lon="-3.00534">
        <ele>145.8</ele>
        <time>2021-08-09T11:09:35Z</time>
      </trkpt>
      <trkpt lat="48.21152" lon="-3.0054">
        <ele>145.8</ele>
        <time>2021-08-09T11:09:36Z</time>
      </trkpt>
      <trkpt lat="48.21157" lon="-3.00546">
        <ele>145.8</ele>
        <time>2021-08-09T11:09:37Z</time>
      </trkpt>
      <trkpt lat="48.21162" lon="-3.00552">
        <ele>145.8</ele>
        <time>2021-08-09T11:09:38Z</time>
      </trkpt>
      <trkpt lat="48.21167" lon="-3.00557">
        <ele>145.6</ele>
        <time>2021-08-09T11:09:39Z</time>
      </trkpt>
      <trkpt lat="48.21178" lon="-3.00569">
        <ele>145.6</ele>
        <time>2021-08-09T11:09:41Z</time>
      </trkpt>
      <trkpt lat="48.21183" lon="-3.00575">
        <ele>145.6</ele>
        <time>2021-08-09T11:09:42Z</time>
      </trkpt>
      <trkpt lat="48.21188" lon="-3.00581">
        <ele>145.4</ele>
        <time>2021-08-09T11:09:43Z</time>
      </trkpt>
      <trkpt lat="48.21193" lon="-3.00586">
        <ele>145.2</ele>
        <time>2021-08-09T11:09:44Z</time>
      </trkpt>
      <trkpt lat="48.21198" lon="-3.00592">
        <ele>145</ele>
        <time>2021-08-09T11:09:45Z</time>
      </trkpt>
      <trkpt lat="48.21203" lon="-3.00598">
        <ele>144.6</ele>
        <time>2021-08-09T11:09:46Z</time>
      </trkpt>
      <trkpt lat="48.21208" lon="-3.00604">
        <ele>144.6</ele>
        <time>2021-08-09T11:09:47Z</time>
      </trkpt>
      <trkpt lat="48.21213" lon="-3.00609">
        <ele>144.4</ele>
        <time>2021-08-09T11:09:48Z</time>
      </trkpt>
      <trkpt lat="48.21217" lon="-3.00614">
        <ele>144.4</ele>
        <time>2021-08-09T11:09:49Z</time>
      </trkpt>
      <trkpt lat="48.21222" lon="-3.00619">
        <ele>144.4</ele>
        <time>2021-08-09T11:09:50Z</time>
      </trkpt>
      <trkpt lat="48.2123" lon="-3.0063">
        <ele>144.2</ele>
        <time>2021-08-09T11:09:52Z</time>
      </trkpt>
      <trkpt lat="48.21234" lon="-3.00634">
        <ele>144.2</ele>
        <time>2021-08-09T11:09:53Z</time>
      </trkpt>
      <trkpt lat="48.21237" lon="-3.00638">
        <ele>144.2</ele>
        <time>2021-08-09T11:09:54Z</time>
      </trkpt>
      <trkpt lat="48.2124" lon="-3.00641">
        <ele>144.2</ele>
        <time>2021-08-09T11:09:55Z</time>
      </trkpt>
      <trkpt lat="48.21242" lon="-3.00644">
        <ele>144.2</ele>
        <time>2021-08-09T11:09:56Z</time>
      </trkpt>
      <trkpt lat="48.21243" lon="-3.00646">
        <ele>144.2</ele>
        <time>2021-08-09T11:09:57Z</time>
      </trkpt>
      <trkpt lat="48.21244" lon="-3.00648">
        <ele>144.2</ele>
        <time>2021-08-09T11:09:58Z</time>
      </trkpt>
      <trkpt lat="48.21244" lon="-3.00649">
        <ele>144.4</ele>
        <time>2021-08-09T11:09:59Z</time>
      </trkpt>
      <trkpt lat="48.21244" lon="-3.00652">
        <ele>144.4</ele>
        <time>2021-08-09T11:10:00Z</time>
      </trkpt>
      <trkpt lat="48.21244" lon="-3.00654">
        <ele>144.6</ele>
        <time>2021-08-09T11:10:01Z</time>
      </trkpt>
      <trkpt lat="48.21244" lon="-3.00657">
        <ele>144.8</ele>
        <time>2021-08-09T11:10:02Z</time>
      </trkpt>
      <trkpt lat="48.21243" lon="-3.0066">
        <ele>145.2</ele>
        <time>2021-08-09T11:10:03Z</time>
      </trkpt>
      <trkpt lat="48.21242" lon="-3.00663">
        <ele>145.2</ele>
        <time>2021-08-09T11:10:04Z</time>
      </trkpt>
      <trkpt lat="48.21241" lon="-3.00667">
        <ele>145.4</ele>
        <time>2021-08-09T11:10:05Z</time>
      </trkpt>
      <trkpt lat="48.2124" lon="-3.00671">
        <ele>145.4</ele>
        <time>2021-08-09T11:10:06Z</time>
      </trkpt>
      <trkpt lat="48.21239" lon="-3.00676">
        <ele>145.4</ele>
        <time>2021-08-09T11:10:07Z</time>
      </trkpt>
      <trkpt lat="48.21238" lon="-3.00682">
        <ele>145.4</ele>
        <time>2021-08-09T11:10:08Z</time>
      </trkpt>
      <trkpt lat="48.21236" lon="-3.00688">
        <ele>145.4</ele>
        <time>2021-08-09T11:10:09Z</time>
      </trkpt>
      <trkpt lat="48.21235" lon="-3.00696">
        <ele>145.4</ele>
        <time>2021-08-09T11:10:10Z</time>
      </trkpt>
      <trkpt lat="48.21233" lon="-3.00703">
        <ele>145.4</ele>
        <time>2021-08-09T11:10:11Z</time>
      </trkpt>
      <trkpt lat="48.21232" lon="-3.00711">
        <ele>145.2</ele>
        <time>2021-08-09T11:10:12Z</time>
      </trkpt>
      <trkpt lat="48.2123" lon="-3.00719">
        <ele>145.2</ele>
        <time>2021-08-09T11:10:13Z</time>
      </trkpt>
      <trkpt lat="48.21229" lon="-3.00727">
        <ele>145</ele>
        <time>2021-08-09T11:10:14Z</time>
      </trkpt>
      <trkpt lat="48.21227" lon="-3.00735">
        <ele>144.8</ele>
        <time>2021-08-09T11:10:15Z</time>
      </trkpt>
      <trkpt lat="48.21225" lon="-3.00744">
        <ele>144.4</ele>
        <time>2021-08-09T11:10:16Z</time>
      </trkpt>
      <trkpt lat="48.21222" lon="-3.00752">
        <ele>144</ele>
        <time>2021-08-09T11:10:17Z</time>
      </trkpt>
      <trkpt lat="48.2122" lon="-3.00761">
        <ele>143.4</ele>
        <time>2021-08-09T11:10:18Z</time>
      </trkpt>
      <trkpt lat="48.21218" lon="-3.00771">
        <ele>143</ele>
        <time>2021-08-09T11:10:19Z</time>
      </trkpt>
      <trkpt lat="48.21215" lon="-3.0078">
        <ele>142.4</ele>
        <time>2021-08-09T11:10:20Z</time>
      </trkpt>
      <trkpt lat="48.21213" lon="-3.00789">
        <ele>142</ele>
        <time>2021-08-09T11:10:21Z</time>
      </trkpt>
      <trkpt lat="48.21212" lon="-3.00798">
        <ele>141.6</ele>
        <time>2021-08-09T11:10:22Z</time>
      </trkpt>
      <trkpt lat="48.21211" lon="-3.00807">
        <ele>141.2</ele>
        <time>2021-08-09T11:10:23Z</time>
      </trkpt>
      <trkpt lat="48.2121" lon="-3.00816">
        <ele>141</ele>
        <time>2021-08-09T11:10:24Z</time>
      </trkpt>
      <trkpt lat="48.21209" lon="-3.00824">
        <ele>140.4</ele>
        <time>2021-08-09T11:10:25Z</time>
      </trkpt>
      <trkpt lat="48.21209" lon="-3.00833">
        <ele>140</ele>
        <time>2021-08-09T11:10:26Z</time>
      </trkpt>
      <trkpt lat="48.2121" lon="-3.00842">
        <ele>139.4</ele>
        <time>2021-08-09T11:10:27Z</time>
      </trkpt>
      <trkpt lat="48.21211" lon="-3.00852">
        <ele>139.2</ele>
        <time>2021-08-09T11:10:28Z</time>
      </trkpt>
      <trkpt lat="48.21212" lon="-3.00861">
        <ele>138.8</ele>
        <time>2021-08-09T11:10:29Z</time>
      </trkpt>
      <trkpt lat="48.21213" lon="-3.0087">
        <ele>138.6</ele>
        <time>2021-08-09T11:10:30Z</time>
      </trkpt>
      <trkpt lat="48.21215" lon="-3.00879">
        <ele>138.4</ele>
        <time>2021-08-09T11:10:31Z</time>
      </trkpt>
      <trkpt lat="48.21216" lon="-3.00889">
        <ele>138.2</ele>
        <time>2021-08-09T11:10:32Z</time>
      </trkpt>
      <trkpt lat="48.21219" lon="-3.00899">
        <ele>138</ele>
        <time>2021-08-09T11:10:33Z</time>
      </trkpt>
      <trkpt lat="48.21222" lon="-3.0091">
        <ele>137.8</ele>
        <time>2021-08-09T11:10:34Z</time>
      </trkpt>
      <trkpt lat="48.21225" lon="-3.00921">
        <ele>137.6</ele>
        <time>2021-08-09T11:10:35Z</time>
      </trkpt>
      <trkpt lat="48.21228" lon="-3.00932">
        <ele>137</ele>
        <time>2021-08-09T11:10:36Z</time>
      </trkpt>
      <trkpt lat="48.21232" lon="-3.00942">
        <ele>136.2</ele>
        <time>2021-08-09T11:10:37Z</time>
      </trkpt>
      <trkpt lat="48.21235" lon="-3.00953">
        <ele>135.2</ele>
        <time>2021-08-09T11:10:38Z</time>
      </trkpt>
      <trkpt lat="48.21238" lon="-3.00966">
        <ele>134.8</ele>
        <time>2021-08-09T11:10:39Z</time>
      </trkpt>
      <trkpt lat="48.2124" lon="-3.00979">
        <ele>134.4</ele>
        <time>2021-08-09T11:10:40Z</time>
      </trkpt>
      <trkpt lat="48.21242" lon="-3.00992">
        <ele>132.8</ele>
        <time>2021-08-09T11:10:41Z</time>
      </trkpt>
      <trkpt lat="48.21244" lon="-3.01007">
        <ele>131.2</ele>
        <time>2021-08-09T11:10:42Z</time>
      </trkpt>
      <trkpt lat="48.21246" lon="-3.01021">
        <ele>129.6</ele>
        <time>2021-08-09T11:10:43Z</time>
      </trkpt>
      <trkpt lat="48.21248" lon="-3.01036">
        <ele>128.4</ele>
        <time>2021-08-09T11:10:44Z</time>
      </trkpt>
      <trkpt lat="48.2125" lon="-3.0105">
        <ele>127.6</ele>
        <time>2021-08-09T11:10:45Z</time>
      </trkpt>
      <trkpt lat="48.21251" lon="-3.01065">
        <ele>127.2</ele>
        <time>2021-08-09T11:10:46Z</time>
      </trkpt>
      <trkpt lat="48.21253" lon="-3.0108">
        <ele>126.8</ele>
        <time>2021-08-09T11:10:47Z</time>
      </trkpt>
      <trkpt lat="48.21255" lon="-3.01095">
        <ele>126.2</ele>
        <time>2021-08-09T11:10:48Z</time>
      </trkpt>
      <trkpt lat="48.21257" lon="-3.01109">
        <ele>125.2</ele>
        <time>2021-08-09T11:10:49Z</time>
      </trkpt>
      <trkpt lat="48.2126" lon="-3.01123">
        <ele>124.4</ele>
        <time>2021-08-09T11:10:50Z</time>
      </trkpt>
      <trkpt lat="48.21263" lon="-3.01137">
        <ele>123.2</ele>
        <time>2021-08-09T11:10:51Z</time>
      </trkpt>
      <trkpt lat="48.21266" lon="-3.01149">
        <ele>121.8</ele>
        <time>2021-08-09T11:10:52Z</time>
      </trkpt>
      <trkpt lat="48.21269" lon="-3.01162">
        <ele>120.8</ele>
        <time>2021-08-09T11:10:53Z</time>
      </trkpt>
      <trkpt lat="48.21272" lon="-3.01173">
        <ele>120.2</ele>
        <time>2021-08-09T11:10:54Z</time>
      </trkpt>
      <trkpt lat="48.21274" lon="-3.01185">
        <ele>120</ele>
        <time>2021-08-09T11:10:55Z</time>
      </trkpt>
      <trkpt lat="48.21276" lon="-3.01196">
        <ele>119.8</ele>
        <time>2021-08-09T11:10:56Z</time>
      </trkpt>
      <trkpt lat="48.21279" lon="-3.01216">
        <ele>119.8</ele>
        <time>2021-08-09T11:10:58Z</time>
      </trkpt>
      <trkpt lat="48.2128" lon="-3.01225">
        <ele>119.6</ele>
        <time>2021-08-09T11:10:59Z</time>
      </trkpt>
      <trkpt lat="48.21281" lon="-3.01233">
        <ele>119.6</ele>
        <time>2021-08-09T11:11:00Z</time>
      </trkpt>
      <trkpt lat="48.21283" lon="-3.0124">
        <ele>119.6</ele>
        <time>2021-08-09T11:11:01Z</time>
      </trkpt>
      <trkpt lat="48.21284" lon="-3.01246">
        <ele>119.6</ele>
        <time>2021-08-09T11:11:02Z</time>
      </trkpt>
      <trkpt lat="48.21285" lon="-3.01251">
        <ele>119.8</ele>
        <time>2021-08-09T11:11:03Z</time>
      </trkpt>
      <trkpt lat="48.21286" lon="-3.01255">
        <ele>120</ele>
        <time>2021-08-09T11:11:04Z</time>
      </trkpt>
      <trkpt lat="48.21287" lon="-3.01259">
        <ele>120.6</ele>
        <time>2021-08-09T11:11:05Z</time>
      </trkpt>
      <trkpt lat="48.21288" lon="-3.01261">
        <ele>121.2</ele>
        <time>2021-08-09T11:11:06Z</time>
      </trkpt>
      <trkpt lat="48.21289" lon="-3.01264">
        <ele>121.8</ele>
        <time>2021-08-09T11:11:07Z</time>
      </trkpt>
      <trkpt lat="48.21289" lon="-3.01267">
        <ele>122.6</ele>
        <time>2021-08-09T11:11:08Z</time>
      </trkpt>
      <trkpt lat="48.2129" lon="-3.01269">
        <ele>124.2</ele>
        <time>2021-08-09T11:11:09Z</time>
      </trkpt>
      <trkpt lat="48.21291" lon="-3.01271">
        <ele>125.2</ele>
        <time>2021-08-09T11:11:10Z</time>
      </trkpt>
      <trkpt lat="48.21292" lon="-3.01272">
        <ele>125.8</ele>
        <time>2021-08-09T11:11:11Z</time>
      </trkpt>
      <trkpt lat="48.21292" lon="-3.01274">
        <ele>126.2</ele>
        <time>2021-08-09T11:11:12Z</time>
      </trkpt>
      <trkpt lat="48.21293" lon="-3.01275">
        <ele>126.8</ele>
        <time>2021-08-09T11:11:13Z</time>
      </trkpt>
      <trkpt lat="48.21293" lon="-3.01277">
        <ele>127</ele>
        <time>2021-08-09T11:11:14Z</time>
      </trkpt>
      <trkpt lat="48.21294" lon="-3.01279">
        <ele>127.4</ele>
        <time>2021-08-09T11:11:15Z</time>
      </trkpt>
      <trkpt lat="48.21295" lon="-3.01281">
        <ele>127.8</ele>
        <time>2021-08-09T11:11:16Z</time>
      </trkpt>
      <trkpt lat="48.21295" lon="-3.01283">
        <ele>128</ele>
        <time>2021-08-09T11:11:17Z</time>
      </trkpt>
      <trkpt lat="48.21296" lon="-3.01285">
        <ele>128.2</ele>
        <time>2021-08-09T11:11:18Z</time>
      </trkpt>
      <trkpt lat="48.21297" lon="-3.0129">
        <ele>128.6</ele>
        <time>2021-08-09T11:11:20Z</time>
      </trkpt>
      <trkpt lat="48.21298" lon="-3.01292">
        <ele>128.6</ele>
        <time>2021-08-09T11:11:21Z</time>
      </trkpt>
      <trkpt lat="48.21299" lon="-3.01294">
        <ele>128.8</ele>
        <time>2021-08-09T11:11:22Z</time>
      </trkpt>
      <trkpt lat="48.213" lon="-3.01297">
        <ele>128.8</ele>
        <time>2021-08-09T11:11:23Z</time>
      </trkpt>
      <trkpt lat="48.21301" lon="-3.013">
        <ele>129</ele>
        <time>2021-08-09T11:11:24Z</time>
      </trkpt>
      <trkpt lat="48.21302" lon="-3.01302">
        <ele>129</ele>
        <time>2021-08-09T11:11:25Z</time>
      </trkpt>
      <trkpt lat="48.21303" lon="-3.01305">
        <ele>129</ele>
        <time>2021-08-09T11:11:26Z</time>
      </trkpt>
      <trkpt lat="48.21304" lon="-3.01307">
        <ele>129</ele>
        <time>2021-08-09T11:11:27Z</time>
      </trkpt>
      <trkpt lat="48.21305" lon="-3.0131">
        <ele>129</ele>
        <time>2021-08-09T11:11:28Z</time>
      </trkpt>
      <trkpt lat="48.21305" lon="-3.01312">
        <ele>129.2</ele>
        <time>2021-08-09T11:11:29Z</time>
      </trkpt>
      <trkpt lat="48.21307" lon="-3.01317">
        <ele>129.2</ele>
        <time>2021-08-09T11:11:31Z</time>
      </trkpt>
      <trkpt lat="48.21308" lon="-3.01319">
        <ele>129.2</ele>
        <time>2021-08-09T11:11:32Z</time>
      </trkpt>
      <trkpt lat="48.21309" lon="-3.01321">
        <ele>129.2</ele>
        <time>2021-08-09T11:11:33Z</time>
      </trkpt>
      <trkpt lat="48.21309" lon="-3.01324">
        <ele>129.2</ele>
        <time>2021-08-09T11:11:34Z</time>
      </trkpt>
      <trkpt lat="48.2131" lon="-3.01326">
        <ele>129.4</ele>
        <time>2021-08-09T11:11:35Z</time>
      </trkpt>
      <trkpt lat="48.21311" lon="-3.01328">
        <ele>129.4</ele>
        <time>2021-08-09T11:11:36Z</time>
      </trkpt>
      <trkpt lat="48.21311" lon="-3.01331">
        <ele>129.4</ele>
        <time>2021-08-09T11:11:37Z</time>
      </trkpt>
      <trkpt lat="48.21312" lon="-3.01333">
        <ele>129.6</ele>
        <time>2021-08-09T11:11:38Z</time>
      </trkpt>
      <trkpt lat="48.21312" lon="-3.01336">
        <ele>129.6</ele>
        <time>2021-08-09T11:11:39Z</time>
      </trkpt>
      <trkpt lat="48.21313" lon="-3.01338">
        <ele>129.6</ele>
        <time>2021-08-09T11:11:40Z</time>
      </trkpt>
      <trkpt lat="48.21313" lon="-3.0134">
        <ele>129.6</ele>
        <time>2021-08-09T11:11:41Z</time>
      </trkpt>
      <trkpt lat="48.21314" lon="-3.01343">
        <ele>129.6</ele>
        <time>2021-08-09T11:11:42Z</time>
      </trkpt>
      <trkpt lat="48.21314" lon="-3.01347">
        <ele>129.8</ele>
        <time>2021-08-09T11:11:43Z</time>
      </trkpt>
      <trkpt lat="48.21315" lon="-3.0135">
        <ele>129.8</ele>
        <time>2021-08-09T11:11:44Z</time>
      </trkpt>
      <trkpt lat="48.21315" lon="-3.01354">
        <ele>129.8</ele>
        <time>2021-08-09T11:11:45Z</time>
      </trkpt>
      <trkpt lat="48.21316" lon="-3.01359">
        <ele>130</ele>
        <time>2021-08-09T11:11:46Z</time>
      </trkpt>
      <trkpt lat="48.21316" lon="-3.01363">
        <ele>130</ele>
        <time>2021-08-09T11:11:47Z</time>
      </trkpt>
      <trkpt lat="48.21317" lon="-3.01368">
        <ele>130.2</ele>
        <time>2021-08-09T11:11:48Z</time>
      </trkpt>
      <trkpt lat="48.21318" lon="-3.01372">
        <ele>130.2</ele>
        <time>2021-08-09T11:11:49Z</time>
      </trkpt>
      <trkpt lat="48.21318" lon="-3.01377">
        <ele>130.2</ele>
        <time>2021-08-09T11:11:50Z</time>
      </trkpt>
      <trkpt lat="48.21319" lon="-3.01382">
        <ele>130.2</ele>
        <time>2021-08-09T11:11:51Z</time>
      </trkpt>
      <trkpt lat="48.2132" lon="-3.0139">
        <ele>130.4</ele>
        <time>2021-08-09T11:11:53Z</time>
      </trkpt>
      <trkpt lat="48.21321" lon="-3.01395">
        <ele>130.4</ele>
        <time>2021-08-09T11:11:54Z</time>
      </trkpt>
      <trkpt lat="48.21322" lon="-3.01399">
        <ele>130.4</ele>
        <time>2021-08-09T11:11:55Z</time>
      </trkpt>
      <trkpt lat="48.21323" lon="-3.01404">
        <ele>130.4</ele>
        <time>2021-08-09T11:11:56Z</time>
      </trkpt>
      <trkpt lat="48.21324" lon="-3.01408">
        <ele>130.4</ele>
        <time>2021-08-09T11:11:57Z</time>
      </trkpt>
      <trkpt lat="48.21324" lon="-3.01412">
        <ele>130.6</ele>
        <time>2021-08-09T11:11:58Z</time>
      </trkpt>
      <trkpt lat="48.21325" lon="-3.01416">
        <ele>130.6</ele>
        <time>2021-08-09T11:11:59Z</time>
      </trkpt>
      <trkpt lat="48.21326" lon="-3.01421">
        <ele>130.6</ele>
        <time>2021-08-09T11:12:00Z</time>
      </trkpt>
      <trkpt lat="48.21328" lon="-3.01425">
        <ele>130.8</ele>
        <time>2021-08-09T11:12:01Z</time>
      </trkpt>
      <trkpt lat="48.21329" lon="-3.0143">
        <ele>130.8</ele>
        <time>2021-08-09T11:12:02Z</time>
      </trkpt>
      <trkpt lat="48.21331" lon="-3.01438">
        <ele>131</ele>
        <time>2021-08-09T11:12:04Z</time>
      </trkpt>
      <trkpt lat="48.21332" lon="-3.01442">
        <ele>131</ele>
        <time>2021-08-09T11:12:05Z</time>
      </trkpt>
      <trkpt lat="48.21334" lon="-3.01447">
        <ele>131.2</ele>
        <time>2021-08-09T11:12:06Z</time>
      </trkpt>
      <trkpt lat="48.21335" lon="-3.01451">
        <ele>131.4</ele>
        <time>2021-08-09T11:12:07Z</time>
      </trkpt>
      <trkpt lat="48.21336" lon="-3.01455">
        <ele>131.4</ele>
        <time>2021-08-09T11:12:08Z</time>
      </trkpt>
      <trkpt lat="48.21338" lon="-3.01459">
        <ele>131.6</ele>
        <time>2021-08-09T11:12:09Z</time>
      </trkpt>
      <trkpt lat="48.21339" lon="-3.01463">
        <ele>131.6</ele>
        <time>2021-08-09T11:12:10Z</time>
      </trkpt>
      <trkpt lat="48.21341" lon="-3.01467">
        <ele>131.8</ele>
        <time>2021-08-09T11:12:11Z</time>
      </trkpt>
      <trkpt lat="48.21343" lon="-3.0147">
        <ele>131.8</ele>
        <time>2021-08-09T11:12:12Z</time>
      </trkpt>
      <trkpt lat="48.21344" lon="-3.01474">
        <ele>131.8</ele>
        <time>2021-08-09T11:12:13Z</time>
      </trkpt>
      <trkpt lat="48.21347" lon="-3.01481">
        <ele>132</ele>
        <time>2021-08-09T11:12:15Z</time>
      </trkpt>
      <trkpt lat="48.21348" lon="-3.01485">
        <ele>132</ele>
        <time>2021-08-09T11:12:16Z</time>
      </trkpt>
      <trkpt lat="48.21349" lon="-3.01489">
        <ele>132</ele>
        <time>2021-08-09T11:12:17Z</time>
      </trkpt>
      <trkpt lat="48.21351" lon="-3.01492">
        <ele>132</ele>
        <time>2021-08-09T11:12:18Z</time>
      </trkpt>
      <trkpt lat="48.21352" lon="-3.01495">
        <ele>132.2</ele>
        <time>2021-08-09T11:12:19Z</time>
      </trkpt>
      <trkpt lat="48.21353" lon="-3.01498">
        <ele>132.2</ele>
        <time>2021-08-09T11:12:20Z</time>
      </trkpt>
      <trkpt lat="48.21355" lon="-3.01501">
        <ele>132.2</ele>
        <time>2021-08-09T11:12:21Z</time>
      </trkpt>
      <trkpt lat="48.21356" lon="-3.01505">
        <ele>132.2</ele>
        <time>2021-08-09T11:12:22Z</time>
      </trkpt>
      <trkpt lat="48.21357" lon="-3.01509">
        <ele>132.4</ele>
        <time>2021-08-09T11:12:23Z</time>
      </trkpt>
      <trkpt lat="48.21358" lon="-3.01513">
        <ele>132.4</ele>
        <time>2021-08-09T11:12:24Z</time>
      </trkpt>
      <trkpt lat="48.2136" lon="-3.01518">
        <ele>132.4</ele>
        <time>2021-08-09T11:12:25Z</time>
      </trkpt>
      <trkpt lat="48.21361" lon="-3.01524">
        <ele>132.6</ele>
        <time>2021-08-09T11:12:26Z</time>
      </trkpt>
      <trkpt lat="48.21362" lon="-3.01529">
        <ele>132.6</ele>
        <time>2021-08-09T11:12:27Z</time>
      </trkpt>
      <trkpt lat="48.21363" lon="-3.01536">
        <ele>132.6</ele>
        <time>2021-08-09T11:12:28Z</time>
      </trkpt>
      <trkpt lat="48.21364" lon="-3.01542">
        <ele>132.6</ele>
        <time>2021-08-09T11:12:29Z</time>
      </trkpt>
      <trkpt lat="48.21364" lon="-3.01548">
        <ele>132.6</ele>
        <time>2021-08-09T11:12:30Z</time>
      </trkpt>
      <trkpt lat="48.21365" lon="-3.01554">
        <ele>132.6</ele>
        <time>2021-08-09T11:12:31Z</time>
      </trkpt>
      <trkpt lat="48.21364" lon="-3.0156">
        <ele>132.6</ele>
        <time>2021-08-09T11:12:32Z</time>
      </trkpt>
      <trkpt lat="48.21364" lon="-3.01567">
        <ele>132.6</ele>
        <time>2021-08-09T11:12:33Z</time>
      </trkpt>
      <trkpt lat="48.21364" lon="-3.01573">
        <ele>132.6</ele>
        <time>2021-08-09T11:12:34Z</time>
      </trkpt>
      <trkpt lat="48.21364" lon="-3.0158">
        <ele>132.6</ele>
        <time>2021-08-09T11:12:35Z</time>
      </trkpt>
      <trkpt lat="48.21364" lon="-3.01594">
        <ele>132.2</ele>
        <time>2021-08-09T11:12:37Z</time>
      </trkpt>
      <trkpt lat="48.21364" lon="-3.01602">
        <ele>132</ele>
        <time>2021-08-09T11:12:38Z</time>
      </trkpt>
      <trkpt lat="48.21364" lon="-3.0161">
        <ele>132</ele>
        <time>2021-08-09T11:12:39Z</time>
      </trkpt>
      <trkpt lat="48.21364" lon="-3.01618">
        <ele>131.8</ele>
        <time>2021-08-09T11:12:40Z</time>
      </trkpt>
      <trkpt lat="48.21364" lon="-3.01626">
        <ele>131.6</ele>
        <time>2021-08-09T11:12:41Z</time>
      </trkpt>
      <trkpt lat="48.21363" lon="-3.01634">
        <ele>131.6</ele>
        <time>2021-08-09T11:12:42Z</time>
      </trkpt>
      <trkpt lat="48.21363" lon="-3.01642">
        <ele>131.6</ele>
        <time>2021-08-09T11:12:43Z</time>
      </trkpt>
      <trkpt lat="48.21362" lon="-3.01651">
        <ele>131.4</ele>
        <time>2021-08-09T11:12:44Z</time>
      </trkpt>
      <trkpt lat="48.2136" lon="-3.01659">
        <ele>131.4</ele>
        <time>2021-08-09T11:12:45Z</time>
      </trkpt>
      <trkpt lat="48.21358" lon="-3.01667">
        <ele>131.4</ele>
        <time>2021-08-09T11:12:46Z</time>
      </trkpt>
      <trkpt lat="48.21354" lon="-3.01682">
        <ele>131</ele>
        <time>2021-08-09T11:12:48Z</time>
      </trkpt>
      <trkpt lat="48.21351" lon="-3.01689">
        <ele>130.8</ele>
        <time>2021-08-09T11:12:49Z</time>
      </trkpt>
      <trkpt lat="48.21348" lon="-3.01696">
        <ele>130.8</ele>
        <time>2021-08-09T11:12:50Z</time>
      </trkpt>
      <trkpt lat="48.21344" lon="-3.01703">
        <ele>130.4</ele>
        <time>2021-08-09T11:12:51Z</time>
      </trkpt>
      <trkpt lat="48.2134" lon="-3.01709">
        <ele>130</ele>
        <time>2021-08-09T11:12:52Z</time>
      </trkpt>
      <trkpt lat="48.21337" lon="-3.01717">
        <ele>129.6</ele>
        <time>2021-08-09T11:12:53Z</time>
      </trkpt>
      <trkpt lat="48.21333" lon="-3.01725">
        <ele>129.4</ele>
        <time>2021-08-09T11:12:54Z</time>
      </trkpt>
      <trkpt lat="48.2133" lon="-3.01733">
        <ele>129.4</ele>
        <time>2021-08-09T11:12:55Z</time>
      </trkpt>
      <trkpt lat="48.21327" lon="-3.01742">
        <ele>129.2</ele>
        <time>2021-08-09T11:12:56Z</time>
      </trkpt>
      <trkpt lat="48.21324" lon="-3.01752">
        <ele>129.2</ele>
        <time>2021-08-09T11:12:57Z</time>
      </trkpt>
      <trkpt lat="48.21318" lon="-3.01771">
        <ele>129</ele>
        <time>2021-08-09T11:12:59Z</time>
      </trkpt>
      <trkpt lat="48.21315" lon="-3.01781">
        <ele>128.8</ele>
        <time>2021-08-09T11:13:00Z</time>
      </trkpt>
      <trkpt lat="48.21312" lon="-3.01791">
        <ele>128.4</ele>
        <time>2021-08-09T11:13:01Z</time>
      </trkpt>
      <trkpt lat="48.2131" lon="-3.018">
        <ele>127.8</ele>
        <time>2021-08-09T11:13:02Z</time>
      </trkpt>
      <trkpt lat="48.21307" lon="-3.0181">
        <ele>127.4</ele>
        <time>2021-08-09T11:13:03Z</time>
      </trkpt>
      <trkpt lat="48.21306" lon="-3.01818">
        <ele>127</ele>
        <time>2021-08-09T11:13:04Z</time>
      </trkpt>
      <trkpt lat="48.21304" lon="-3.01825">
        <ele>126.6</ele>
        <time>2021-08-09T11:13:05Z</time>
      </trkpt>
      <trkpt lat="48.21303" lon="-3.01831">
        <ele>126.4</ele>
        <time>2021-08-09T11:13:06Z</time>
      </trkpt>
      <trkpt lat="48.21302" lon="-3.01835">
        <ele>126</ele>
        <time>2021-08-09T11:13:07Z</time>
      </trkpt>
      <trkpt lat="48.213" lon="-3.01838">
        <ele>125.6</ele>
        <time>2021-08-09T11:13:08Z</time>
      </trkpt>
      <trkpt lat="48.21298" lon="-3.01841">
        <ele>125.4</ele>
        <time>2021-08-09T11:13:10Z</time>
      </trkpt>
      <trkpt lat="48.21297" lon="-3.01843">
        <ele>125.4</ele>
        <time>2021-08-09T11:13:11Z</time>
      </trkpt>
      <trkpt lat="48.21296" lon="-3.01845">
        <ele>125.2</ele>
        <time>2021-08-09T11:13:12Z</time>
      </trkpt>
      <trkpt lat="48.21296" lon="-3.01848">
        <ele>125.2</ele>
        <time>2021-08-09T11:13:13Z</time>
      </trkpt>
      <trkpt lat="48.21295" lon="-3.01851">
        <ele>125</ele>
        <time>2021-08-09T11:13:14Z</time>
      </trkpt>
      <trkpt lat="48.21293" lon="-3.01855">
        <ele>125</ele>
        <time>2021-08-09T11:13:15Z</time>
      </trkpt>
      <trkpt lat="48.21292" lon="-3.0186">
        <ele>124.8</ele>
        <time>2021-08-09T11:13:16Z</time>
      </trkpt>
      <trkpt lat="48.21291" lon="-3.01864">
        <ele>124.6</ele>
        <time>2021-08-09T11:13:17Z</time>
      </trkpt>
      <trkpt lat="48.2129" lon="-3.01869">
        <ele>124.6</ele>
        <time>2021-08-09T11:13:18Z</time>
      </trkpt>
      <trkpt lat="48.21288" lon="-3.01873">
        <ele>124.4</ele>
        <time>2021-08-09T11:13:19Z</time>
      </trkpt>
      <trkpt lat="48.21286" lon="-3.01882">
        <ele>124.4</ele>
        <time>2021-08-09T11:13:21Z</time>
      </trkpt>
      <trkpt lat="48.21285" lon="-3.01887">
        <ele>124.4</ele>
        <time>2021-08-09T11:13:22Z</time>
      </trkpt>
      <trkpt lat="48.21283" lon="-3.01891">
        <ele>124.4</ele>
        <time>2021-08-09T11:13:23Z</time>
      </trkpt>
      <trkpt lat="48.21283" lon="-3.01895">
        <ele>124.2</ele>
        <time>2021-08-09T11:13:24Z</time>
      </trkpt>
      <trkpt lat="48.21282" lon="-3.01899">
        <ele>123.8</ele>
        <time>2021-08-09T11:13:25Z</time>
      </trkpt>
      <trkpt lat="48.21281" lon="-3.01904">
        <ele>123.4</ele>
        <time>2021-08-09T11:13:26Z</time>
      </trkpt>
      <trkpt lat="48.21279" lon="-3.01908">
        <ele>123</ele>
        <time>2021-08-09T11:13:27Z</time>
      </trkpt>
      <trkpt lat="48.21278" lon="-3.01912">
        <ele>122.8</ele>
        <time>2021-08-09T11:13:28Z</time>
      </trkpt>
      <trkpt lat="48.21277" lon="-3.01917">
        <ele>122.6</ele>
        <time>2021-08-09T11:13:29Z</time>
      </trkpt>
      <trkpt lat="48.21276" lon="-3.01921">
        <ele>122.6</ele>
        <time>2021-08-09T11:13:30Z</time>
      </trkpt>
      <trkpt lat="48.21275" lon="-3.01926">
        <ele>122.4</ele>
        <time>2021-08-09T11:13:31Z</time>
      </trkpt>
      <trkpt lat="48.21273" lon="-3.01931">
        <ele>122.4</ele>
        <time>2021-08-09T11:13:32Z</time>
      </trkpt>
      <trkpt lat="48.21272" lon="-3.01935">
        <ele>122.2</ele>
        <time>2021-08-09T11:13:33Z</time>
      </trkpt>
      <trkpt lat="48.21271" lon="-3.01938">
        <ele>122</ele>
        <time>2021-08-09T11:13:34Z</time>
      </trkpt>
      <trkpt lat="48.2127" lon="-3.01942">
        <ele>122</ele>
        <time>2021-08-09T11:13:35Z</time>
      </trkpt>
      <trkpt lat="48.21269" lon="-3.01945">
        <ele>121.8</ele>
        <time>2021-08-09T11:13:36Z</time>
      </trkpt>
      <trkpt lat="48.2127" lon="-3.01948">
        <ele>121.8</ele>
        <time>2021-08-09T11:13:37Z</time>
      </trkpt>
      <trkpt lat="48.21271" lon="-3.01951">
        <ele>121.6</ele>
        <time>2021-08-09T11:13:38Z</time>
      </trkpt>
      <trkpt lat="48.21271" lon="-3.01953">
        <ele>121.2</ele>
        <time>2021-08-09T11:13:39Z</time>
      </trkpt>
      <trkpt lat="48.21272" lon="-3.01956">
        <ele>121</ele>
        <time>2021-08-09T11:13:40Z</time>
      </trkpt>
      <trkpt lat="48.21272" lon="-3.01958">
        <ele>120.8</ele>
        <time>2021-08-09T11:13:41Z</time>
      </trkpt>
      <trkpt lat="48.21273" lon="-3.0196">
        <ele>120.8</ele>
        <time>2021-08-09T11:13:42Z</time>
      </trkpt>
      <trkpt lat="48.21273" lon="-3.0196">
        <ele>120.8</ele>
        <time>2021-08-09T11:13:43Z</time>
      </trkpt>
      <trkpt lat="48.21273" lon="-3.0196">
        <ele>120.8</ele>
        <time>2021-08-09T11:13:44Z</time>
      </trkpt>
      <trkpt lat="48.21273" lon="-3.01963">
        <ele>121</ele>
        <time>2021-08-09T11:14:05Z</time>
      </trkpt>
      <trkpt lat="48.21272" lon="-3.01965">
        <ele>121</ele>
        <time>2021-08-09T11:14:06Z</time>
      </trkpt>
      <trkpt lat="48.21273" lon="-3.01967">
        <ele>121</ele>
        <time>2021-08-09T11:14:07Z</time>
      </trkpt>
      <trkpt lat="48.21274" lon="-3.0197">
        <ele>121</ele>
        <time>2021-08-09T11:14:08Z</time>
      </trkpt>
      <trkpt lat="48.21275" lon="-3.01973">
        <ele>121</ele>
        <time>2021-08-09T11:14:09Z</time>
      </trkpt>
      <trkpt lat="48.21276" lon="-3.01976">
        <ele>121</ele>
        <time>2021-08-09T11:14:10Z</time>
      </trkpt>
      <trkpt lat="48.21277" lon="-3.0198">
        <ele>120.8</ele>
        <time>2021-08-09T11:14:11Z</time>
      </trkpt>
      <trkpt lat="48.21278" lon="-3.01984">
        <ele>120.8</ele>
        <time>2021-08-09T11:14:12Z</time>
      </trkpt>
      <trkpt lat="48.2128" lon="-3.01989">
        <ele>120.6</ele>
        <time>2021-08-09T11:14:13Z</time>
      </trkpt>
      <trkpt lat="48.21281" lon="-3.01993">
        <ele>120.4</ele>
        <time>2021-08-09T11:14:14Z</time>
      </trkpt>
      <trkpt lat="48.21283" lon="-3.01997">
        <ele>120.4</ele>
        <time>2021-08-09T11:14:15Z</time>
      </trkpt>
      <trkpt lat="48.21284" lon="-3.02001">
        <ele>120.2</ele>
        <time>2021-08-09T11:14:16Z</time>
      </trkpt>
      <trkpt lat="48.21286" lon="-3.02006">
        <ele>120.2</ele>
        <time>2021-08-09T11:14:17Z</time>
      </trkpt>
      <trkpt lat="48.21287" lon="-3.0201">
        <ele>120.2</ele>
        <time>2021-08-09T11:14:18Z</time>
      </trkpt>
      <trkpt lat="48.21288" lon="-3.02015">
        <ele>120.2</ele>
        <time>2021-08-09T11:14:19Z</time>
      </trkpt>
      <trkpt lat="48.2129" lon="-3.02019">
        <ele>120</ele>
        <time>2021-08-09T11:14:20Z</time>
      </trkpt>
      <trkpt lat="48.21293" lon="-3.02028">
        <ele>120</ele>
        <time>2021-08-09T11:14:22Z</time>
      </trkpt>
      <trkpt lat="48.21294" lon="-3.02032">
        <ele>120</ele>
        <time>2021-08-09T11:14:23Z</time>
      </trkpt>
      <trkpt lat="48.21296" lon="-3.02035">
        <ele>120</ele>
        <time>2021-08-09T11:14:24Z</time>
      </trkpt>
      <trkpt lat="48.21298" lon="-3.02038">
        <ele>120</ele>
        <time>2021-08-09T11:14:25Z</time>
      </trkpt>
      <trkpt lat="48.213" lon="-3.0204">
        <ele>120</ele>
        <time>2021-08-09T11:14:26Z</time>
      </trkpt>
      <trkpt lat="48.21302" lon="-3.02042">
        <ele>120</ele>
        <time>2021-08-09T11:14:27Z</time>
      </trkpt>
      <trkpt lat="48.21302" lon="-3.02044">
        <ele>120</ele>
        <time>2021-08-09T11:14:28Z</time>
      </trkpt>
      <trkpt lat="48.21303" lon="-3.02046">
        <ele>120.2</ele>
        <time>2021-08-09T11:14:29Z</time>
      </trkpt>
      <trkpt lat="48.21304" lon="-3.02048">
        <ele>120.2</ele>
        <time>2021-08-09T11:14:30Z</time>
      </trkpt>
      <trkpt lat="48.21305" lon="-3.0205">
        <ele>120.4</ele>
        <time>2021-08-09T11:14:31Z</time>
      </trkpt>
      <trkpt lat="48.21306" lon="-3.02051">
        <ele>120.4</ele>
        <time>2021-08-09T11:14:32Z</time>
      </trkpt>
      <trkpt lat="48.21306" lon="-3.02051">
        <ele>120.6</ele>
        <time>2021-08-09T11:14:33Z</time>
      </trkpt>
      <trkpt lat="48.21306" lon="-3.02051">
        <ele>120.6</ele>
        <time>2021-08-09T11:14:34Z</time>
      </trkpt>
      <trkpt lat="48.21302" lon="-3.02048">
        <ele>121.2</ele>
        <time>2021-08-09T12:13:02Z</time>
      </trkpt>
      <trkpt lat="48.213" lon="-3.02046">
        <ele>121.2</ele>
        <time>2021-08-09T12:13:03Z</time>
      </trkpt>
      <trkpt lat="48.21298" lon="-3.02044">
        <ele>121.2</ele>
        <time>2021-08-09T12:13:04Z</time>
      </trkpt>
      <trkpt lat="48.21296" lon="-3.0204">
        <ele>121.2</ele>
        <time>2021-08-09T12:13:05Z</time>
      </trkpt>
      <trkpt lat="48.21294" lon="-3.02036">
        <ele>121.2</ele>
        <time>2021-08-09T12:13:06Z</time>
      </trkpt>
      <trkpt lat="48.21292" lon="-3.02031">
        <ele>121.2</ele>
        <time>2021-08-09T12:13:07Z</time>
      </trkpt>
      <trkpt lat="48.2129" lon="-3.02025">
        <ele>121.2</ele>
        <time>2021-08-09T12:13:08Z</time>
      </trkpt>
      <trkpt lat="48.21288" lon="-3.0202">
        <ele>121.2</ele>
        <time>2021-08-09T12:13:09Z</time>
      </trkpt>
      <trkpt lat="48.21286" lon="-3.02014">
        <ele>121</ele>
        <time>2021-08-09T12:13:10Z</time>
      </trkpt>
      <trkpt lat="48.21284" lon="-3.02009">
        <ele>120.8</ele>
        <time>2021-08-09T12:13:11Z</time>
      </trkpt>
      <trkpt lat="48.21283" lon="-3.02003">
        <ele>120.8</ele>
        <time>2021-08-09T12:13:12Z</time>
      </trkpt>
      <trkpt lat="48.21279" lon="-3.01991">
        <ele>120.8</ele>
        <time>2021-08-09T12:13:14Z</time>
      </trkpt>
      <trkpt lat="48.21277" lon="-3.01985">
        <ele>120.6</ele>
        <time>2021-08-09T12:13:15Z</time>
      </trkpt>
      <trkpt lat="48.21275" lon="-3.01979">
        <ele>120.6</ele>
        <time>2021-08-09T12:13:16Z</time>
      </trkpt>
      <trkpt lat="48.21273" lon="-3.01973">
        <ele>120.4</ele>
        <time>2021-08-09T12:13:17Z</time>
      </trkpt>
      <trkpt lat="48.21272" lon="-3.01967">
        <ele>120.4</ele>
        <time>2021-08-09T12:13:18Z</time>
      </trkpt>
      <trkpt lat="48.21271" lon="-3.01961">
        <ele>120.4</ele>
        <time>2021-08-09T12:13:19Z</time>
      </trkpt>
      <trkpt lat="48.21271" lon="-3.01955">
        <ele>120.4</ele>
        <time>2021-08-09T12:13:20Z</time>
      </trkpt>
      <trkpt lat="48.2127" lon="-3.01949">
        <ele>120.4</ele>
        <time>2021-08-09T12:13:21Z</time>
      </trkpt>
      <trkpt lat="48.21271" lon="-3.01943">
        <ele>120.4</ele>
        <time>2021-08-09T12:13:22Z</time>
      </trkpt>
      <trkpt lat="48.21272" lon="-3.01937">
        <ele>120.6</ele>
        <time>2021-08-09T12:13:23Z</time>
      </trkpt>
      <trkpt lat="48.21274" lon="-3.01932">
        <ele>120.6</ele>
        <time>2021-08-09T12:13:24Z</time>
      </trkpt>
      <trkpt lat="48.21275" lon="-3.01927">
        <ele>120.8</ele>
        <time>2021-08-09T12:13:25Z</time>
      </trkpt>
      <trkpt lat="48.21276" lon="-3.01921">
        <ele>120.8</ele>
        <time>2021-08-09T12:13:26Z</time>
      </trkpt>
      <trkpt lat="48.21278" lon="-3.01916">
        <ele>120.8</ele>
        <time>2021-08-09T12:13:27Z</time>
      </trkpt>
      <trkpt lat="48.21279" lon="-3.01911">
        <ele>120.8</ele>
        <time>2021-08-09T12:13:28Z</time>
      </trkpt>
      <trkpt lat="48.2128" lon="-3.01906">
        <ele>121</ele>
        <time>2021-08-09T12:13:29Z</time>
      </trkpt>
      <trkpt lat="48.21281" lon="-3.01902">
        <ele>121</ele>
        <time>2021-08-09T12:13:30Z</time>
      </trkpt>
      <trkpt lat="48.21282" lon="-3.01897">
        <ele>121</ele>
        <time>2021-08-09T12:13:31Z</time>
      </trkpt>
      <trkpt lat="48.21283" lon="-3.01893">
        <ele>121</ele>
        <time>2021-08-09T12:13:32Z</time>
      </trkpt>
      <trkpt lat="48.21284" lon="-3.01888">
        <ele>121</ele>
        <time>2021-08-09T12:13:33Z</time>
      </trkpt>
      <trkpt lat="48.21285" lon="-3.01884">
        <ele>121.2</ele>
        <time>2021-08-09T12:13:34Z</time>
      </trkpt>
      <trkpt lat="48.21287" lon="-3.01875">
        <ele>121.6</ele>
        <time>2021-08-09T12:13:36Z</time>
      </trkpt>
      <trkpt lat="48.21289" lon="-3.0187">
        <ele>121.6</ele>
        <time>2021-08-09T12:13:37Z</time>
      </trkpt>
      <trkpt lat="48.2129" lon="-3.01866">
        <ele>122</ele>
        <time>2021-08-09T12:13:38Z</time>
      </trkpt>
      <trkpt lat="48.21291" lon="-3.01862">
        <ele>122.2</ele>
        <time>2021-08-09T12:13:39Z</time>
      </trkpt>
      <trkpt lat="48.21291" lon="-3.01858">
        <ele>122.2</ele>
        <time>2021-08-09T12:13:40Z</time>
      </trkpt>
      <trkpt lat="48.21292" lon="-3.01854">
        <ele>122.4</ele>
        <time>2021-08-09T12:13:41Z</time>
      </trkpt>
      <trkpt lat="48.21293" lon="-3.01851">
        <ele>122.6</ele>
        <time>2021-08-09T12:13:42Z</time>
      </trkpt>
      <trkpt lat="48.21294" lon="-3.01848">
        <ele>123.2</ele>
        <time>2021-08-09T12:13:43Z</time>
      </trkpt>
      <trkpt lat="48.21295" lon="-3.01845">
        <ele>123.4</ele>
        <time>2021-08-09T12:13:44Z</time>
      </trkpt>
      <trkpt lat="48.21296" lon="-3.01843">
        <ele>123.4</ele>
        <time>2021-08-09T12:13:45Z</time>
      </trkpt>
      <trkpt lat="48.21299" lon="-3.01839">
        <ele>123.6</ele>
        <time>2021-08-09T12:13:47Z</time>
      </trkpt>
      <trkpt lat="48.213" lon="-3.01838">
        <ele>123.8</ele>
        <time>2021-08-09T12:13:48Z</time>
      </trkpt>
      <trkpt lat="48.21301" lon="-3.01835">
        <ele>124</ele>
        <time>2021-08-09T12:13:49Z</time>
      </trkpt>
      <trkpt lat="48.21302" lon="-3.01832">
        <ele>124.4</ele>
        <time>2021-08-09T12:13:50Z</time>
      </trkpt>
      <trkpt lat="48.21303" lon="-3.01829">
        <ele>124.6</ele>
        <time>2021-08-09T12:13:51Z</time>
      </trkpt>
      <trkpt lat="48.21304" lon="-3.01825">
        <ele>125</ele>
        <time>2021-08-09T12:13:52Z</time>
      </trkpt>
      <trkpt lat="48.21305" lon="-3.01822">
        <ele>125.2</ele>
        <time>2021-08-09T12:13:53Z</time>
      </trkpt>
      <trkpt lat="48.21306" lon="-3.01818">
        <ele>125.4</ele>
        <time>2021-08-09T12:13:54Z</time>
      </trkpt>
      <trkpt lat="48.21306" lon="-3.01814">
        <ele>125.6</ele>
        <time>2021-08-09T12:13:55Z</time>
      </trkpt>
      <trkpt lat="48.21307" lon="-3.0181">
        <ele>125.6</ele>
        <time>2021-08-09T12:13:56Z</time>
      </trkpt>
      <trkpt lat="48.21309" lon="-3.01801">
        <ele>126</ele>
        <time>2021-08-09T12:13:58Z</time>
      </trkpt>
      <trkpt lat="48.2131" lon="-3.01797">
        <ele>126.2</ele>
        <time>2021-08-09T12:13:59Z</time>
      </trkpt>
      <trkpt lat="48.21311" lon="-3.01793">
        <ele>126.2</ele>
        <time>2021-08-09T12:14:00Z</time>
      </trkpt>
      <trkpt lat="48.21312" lon="-3.01789">
        <ele>126.2</ele>
        <time>2021-08-09T12:14:01Z</time>
      </trkpt>
      <trkpt lat="48.21313" lon="-3.01785">
        <ele>126.2</ele>
        <time>2021-08-09T12:14:02Z</time>
      </trkpt>
      <trkpt lat="48.21314" lon="-3.01781">
        <ele>126.4</ele>
        <time>2021-08-09T12:14:03Z</time>
      </trkpt>
      <trkpt lat="48.21315" lon="-3.01777">
        <ele>126.4</ele>
        <time>2021-08-09T12:14:04Z</time>
      </trkpt>
      <trkpt lat="48.21317" lon="-3.01772">
        <ele>126.6</ele>
        <time>2021-08-09T12:14:05Z</time>
      </trkpt>
      <trkpt lat="48.21318" lon="-3.01768">
        <ele>126.8</ele>
        <time>2021-08-09T12:14:06Z</time>
      </trkpt>
      <trkpt lat="48.21319" lon="-3.01764">
        <ele>127</ele>
        <time>2021-08-09T12:14:07Z</time>
      </trkpt>
      <trkpt lat="48.21321" lon="-3.01755">
        <ele>127.4</ele>
        <time>2021-08-09T12:14:09Z</time>
      </trkpt>
      <trkpt lat="48.21323" lon="-3.01751">
        <ele>127.4</ele>
        <time>2021-08-09T12:14:10Z</time>
      </trkpt>
      <trkpt lat="48.21324" lon="-3.01746">
        <ele>127.6</ele>
        <time>2021-08-09T12:14:11Z</time>
      </trkpt>
      <trkpt lat="48.21325" lon="-3.01742">
        <ele>128</ele>
        <time>2021-08-09T12:14:12Z</time>
      </trkpt>
      <trkpt lat="48.21326" lon="-3.01738">
        <ele>128</ele>
        <time>2021-08-09T12:14:13Z</time>
      </trkpt>
      <trkpt lat="48.21328" lon="-3.01734">
        <ele>128.2</ele>
        <time>2021-08-09T12:14:14Z</time>
      </trkpt>
      <trkpt lat="48.21329" lon="-3.0173">
        <ele>128.4</ele>
        <time>2021-08-09T12:14:15Z</time>
      </trkpt>
      <trkpt lat="48.21331" lon="-3.01726">
        <ele>128.4</ele>
        <time>2021-08-09T12:14:16Z</time>
      </trkpt>
      <trkpt lat="48.21332" lon="-3.01722">
        <ele>128.6</ele>
        <time>2021-08-09T12:14:17Z</time>
      </trkpt>
      <trkpt lat="48.21334" lon="-3.01718">
        <ele>128.6</ele>
        <time>2021-08-09T12:14:18Z</time>
      </trkpt>
      <trkpt lat="48.21337" lon="-3.01711">
        <ele>128.8</ele>
        <time>2021-08-09T12:14:20Z</time>
      </trkpt>
      <trkpt lat="48.21338" lon="-3.01707">
        <ele>128.8</ele>
        <time>2021-08-09T12:14:21Z</time>
      </trkpt>
      <trkpt lat="48.2134" lon="-3.01703">
        <ele>128.8</ele>
        <time>2021-08-09T12:14:22Z</time>
      </trkpt>
      <trkpt lat="48.21342" lon="-3.017">
        <ele>128.8</ele>
        <time>2021-08-09T12:14:23Z</time>
      </trkpt>
      <trkpt lat="48.21344" lon="-3.01696">
        <ele>129</ele>
        <time>2021-08-09T12:14:24Z</time>
      </trkpt>
      <trkpt lat="48.21346" lon="-3.01692">
        <ele>129.2</ele>
        <time>2021-08-09T12:14:25Z</time>
      </trkpt>
      <trkpt lat="48.21348" lon="-3.01688">
        <ele>129.4</ele>
        <time>2021-08-09T12:14:26Z</time>
      </trkpt>
      <trkpt lat="48.2135" lon="-3.01684">
        <ele>129.8</ele>
        <time>2021-08-09T12:14:27Z</time>
      </trkpt>
      <trkpt lat="48.21352" lon="-3.0168">
        <ele>130</ele>
        <time>2021-08-09T12:14:28Z</time>
      </trkpt>
      <trkpt lat="48.21353" lon="-3.01676">
        <ele>130.2</ele>
        <time>2021-08-09T12:14:29Z</time>
      </trkpt>
      <trkpt lat="48.21355" lon="-3.01671">
        <ele>130.4</ele>
        <time>2021-08-09T12:14:30Z</time>
      </trkpt>
      <trkpt lat="48.21356" lon="-3.01666">
        <ele>130.4</ele>
        <time>2021-08-09T12:14:31Z</time>
      </trkpt>
      <trkpt lat="48.21357" lon="-3.01661">
        <ele>130.6</ele>
        <time>2021-08-09T12:14:32Z</time>
      </trkpt>
      <trkpt lat="48.21358" lon="-3.01656">
        <ele>130.6</ele>
        <time>2021-08-09T12:14:33Z</time>
      </trkpt>
      <trkpt lat="48.21359" lon="-3.0165">
        <ele>130.8</ele>
        <time>2021-08-09T12:14:34Z</time>
      </trkpt>
      <trkpt lat="48.2136" lon="-3.01645">
        <ele>130.8</ele>
        <time>2021-08-09T12:14:35Z</time>
      </trkpt>
      <trkpt lat="48.2136" lon="-3.0164">
        <ele>130.8</ele>
        <time>2021-08-09T12:14:36Z</time>
      </trkpt>
      <trkpt lat="48.21361" lon="-3.01634">
        <ele>130.8</ele>
        <time>2021-08-09T12:14:37Z</time>
      </trkpt>
      <trkpt lat="48.21361" lon="-3.01629">
        <ele>130.8</ele>
        <time>2021-08-09T12:14:38Z</time>
      </trkpt>
      <trkpt lat="48.21361" lon="-3.01624">
        <ele>131</ele>
        <time>2021-08-09T12:14:39Z</time>
      </trkpt>
      <trkpt lat="48.21361" lon="-3.01621">
        <ele>131</ele>
        <time>2021-08-09T12:14:40Z</time>
      </trkpt>
      <trkpt lat="48.21361" lon="-3.0162">
        <ele>131</ele>
        <time>2021-08-09T12:14:41Z</time>
      </trkpt>
      <trkpt lat="48.21361" lon="-3.01619">
        <ele>132.4</ele>
        <time>2021-08-09T12:14:51Z</time>
      </trkpt>
      <trkpt lat="48.21362" lon="-3.01618">
        <ele>132.4</ele>
        <time>2021-08-09T12:14:52Z</time>
      </trkpt>
      <trkpt lat="48.21362" lon="-3.01618">
        <ele>132.4</ele>
        <time>2021-08-09T12:14:53Z</time>
      </trkpt>
      <trkpt lat="48.21362" lon="-3.01616">
        <ele>132.4</ele>
        <time>2021-08-09T12:15:09Z</time>
      </trkpt>
      <trkpt lat="48.21363" lon="-3.01615">
        <ele>132.4</ele>
        <time>2021-08-09T12:15:10Z</time>
      </trkpt>
      <trkpt lat="48.21363" lon="-3.01612">
        <ele>132.6</ele>
        <time>2021-08-09T12:15:11Z</time>
      </trkpt>
      <trkpt lat="48.21364" lon="-3.01609">
        <ele>132.6</ele>
        <time>2021-08-09T12:15:12Z</time>
      </trkpt>
      <trkpt lat="48.21363" lon="-3.01601">
        <ele>132.6</ele>
        <time>2021-08-09T12:15:14Z</time>
      </trkpt>
      <trkpt lat="48.21363" lon="-3.01597">
        <ele>132.6</ele>
        <time>2021-08-09T12:15:15Z</time>
      </trkpt>
      <trkpt lat="48.21363" lon="-3.01592">
        <ele>132.6</ele>
        <time>2021-08-09T12:15:16Z</time>
      </trkpt>
      <trkpt lat="48.21363" lon="-3.01586">
        <ele>132.6</ele>
        <time>2021-08-09T12:15:17Z</time>
      </trkpt>
      <trkpt lat="48.21363" lon="-3.01581">
        <ele>132.6</ele>
        <time>2021-08-09T12:15:18Z</time>
      </trkpt>
      <trkpt lat="48.21363" lon="-3.01575">
        <ele>132.6</ele>
        <time>2021-08-09T12:15:19Z</time>
      </trkpt>
      <trkpt lat="48.21363" lon="-3.01569">
        <ele>132.6</ele>
        <time>2021-08-09T12:15:20Z</time>
      </trkpt>
      <trkpt lat="48.21363" lon="-3.01563">
        <ele>132.6</ele>
        <time>2021-08-09T12:15:21Z</time>
      </trkpt>
      <trkpt lat="48.21363" lon="-3.01556">
        <ele>132.6</ele>
        <time>2021-08-09T12:15:22Z</time>
      </trkpt>
      <trkpt lat="48.21362" lon="-3.0155">
        <ele>132.6</ele>
        <time>2021-08-09T12:15:23Z</time>
      </trkpt>
      <trkpt lat="48.21362" lon="-3.01544">
        <ele>132.6</ele>
        <time>2021-08-09T12:15:24Z</time>
      </trkpt>
      <trkpt lat="48.21361" lon="-3.01538">
        <ele>132.6</ele>
        <time>2021-08-09T12:15:25Z</time>
      </trkpt>
      <trkpt lat="48.2136" lon="-3.01531">
        <ele>132.6</ele>
        <time>2021-08-09T12:15:26Z</time>
      </trkpt>
      <trkpt lat="48.21359" lon="-3.01525">
        <ele>132.6</ele>
        <time>2021-08-09T12:15:27Z</time>
      </trkpt>
      <trkpt lat="48.21359" lon="-3.01519">
        <ele>132.6</ele>
        <time>2021-08-09T12:15:28Z</time>
      </trkpt>
      <trkpt lat="48.21357" lon="-3.01513">
        <ele>132.6</ele>
        <time>2021-08-09T12:15:29Z</time>
      </trkpt>
      <trkpt lat="48.21356" lon="-3.01507">
        <ele>132.6</ele>
        <time>2021-08-09T12:15:30Z</time>
      </trkpt>
      <trkpt lat="48.21354" lon="-3.01502">
        <ele>132.8</ele>
        <time>2021-08-09T12:15:31Z</time>
      </trkpt>
      <trkpt lat="48.21352" lon="-3.01497">
        <ele>133</ele>
        <time>2021-08-09T12:15:32Z</time>
      </trkpt>
      <trkpt lat="48.21349" lon="-3.01492">
        <ele>133.2</ele>
        <time>2021-08-09T12:15:33Z</time>
      </trkpt>
      <trkpt lat="48.21347" lon="-3.01487">
        <ele>133.4</ele>
        <time>2021-08-09T12:15:34Z</time>
      </trkpt>
      <trkpt lat="48.21344" lon="-3.01481">
        <ele>133.4</ele>
        <time>2021-08-09T12:15:35Z</time>
      </trkpt>
      <trkpt lat="48.21342" lon="-3.01475">
        <ele>133.6</ele>
        <time>2021-08-09T12:15:36Z</time>
      </trkpt>
      <trkpt lat="48.2134" lon="-3.01467">
        <ele>133.6</ele>
        <time>2021-08-09T12:15:37Z</time>
      </trkpt>
      <trkpt lat="48.21337" lon="-3.0146">
        <ele>133.6</ele>
        <time>2021-08-09T12:15:38Z</time>
      </trkpt>
      <trkpt lat="48.21335" lon="-3.01452">
        <ele>133.6</ele>
        <time>2021-08-09T12:15:39Z</time>
      </trkpt>
      <trkpt lat="48.21332" lon="-3.01444">
        <ele>133.6</ele>
        <time>2021-08-09T12:15:40Z</time>
      </trkpt>
      <trkpt lat="48.21329" lon="-3.01436">
        <ele>133.6</ele>
        <time>2021-08-09T12:15:41Z</time>
      </trkpt>
      <trkpt lat="48.21326" lon="-3.01427">
        <ele>133.6</ele>
        <time>2021-08-09T12:15:42Z</time>
      </trkpt>
      <trkpt lat="48.21324" lon="-3.01418">
        <ele>133.4</ele>
        <time>2021-08-09T12:15:43Z</time>
      </trkpt>
      <trkpt lat="48.2132" lon="-3.01399">
        <ele>132.8</ele>
        <time>2021-08-09T12:15:45Z</time>
      </trkpt>
      <trkpt lat="48.21318" lon="-3.01388">
        <ele>132.6</ele>
        <time>2021-08-09T12:15:46Z</time>
      </trkpt>
      <trkpt lat="48.21317" lon="-3.01377">
        <ele>132.2</ele>
        <time>2021-08-09T12:15:47Z</time>
      </trkpt>
      <trkpt lat="48.21315" lon="-3.01366">
        <ele>132</ele>
        <time>2021-08-09T12:15:48Z</time>
      </trkpt>
      <trkpt lat="48.21314" lon="-3.01355">
        <ele>131.6</ele>
        <time>2021-08-09T12:15:49Z</time>
      </trkpt>
      <trkpt lat="48.21312" lon="-3.01343">
        <ele>131.2</ele>
        <time>2021-08-09T12:15:50Z</time>
      </trkpt>
      <trkpt lat="48.21309" lon="-3.01332">
        <ele>131</ele>
        <time>2021-08-09T12:15:51Z</time>
      </trkpt>
      <trkpt lat="48.21306" lon="-3.0132">
        <ele>130.8</ele>
        <time>2021-08-09T12:15:52Z</time>
      </trkpt>
      <trkpt lat="48.21303" lon="-3.01309">
        <ele>130.6</ele>
        <time>2021-08-09T12:15:53Z</time>
      </trkpt>
      <trkpt lat="48.21299" lon="-3.01298">
        <ele>130.4</ele>
        <time>2021-08-09T12:15:54Z</time>
      </trkpt>
      <trkpt lat="48.21294" lon="-3.01286">
        <ele>130</ele>
        <time>2021-08-09T12:15:55Z</time>
      </trkpt>
      <trkpt lat="48.2129" lon="-3.01274">
        <ele>129.6</ele>
        <time>2021-08-09T12:15:56Z</time>
      </trkpt>
      <trkpt lat="48.21287" lon="-3.01262">
        <ele>129.2</ele>
        <time>2021-08-09T12:15:57Z</time>
      </trkpt>
      <trkpt lat="48.21283" lon="-3.01249">
        <ele>129</ele>
        <time>2021-08-09T12:15:58Z</time>
      </trkpt>
      <trkpt lat="48.21281" lon="-3.01234">
        <ele>128.8</ele>
        <time>2021-08-09T12:15:59Z</time>
      </trkpt>
      <trkpt lat="48.21279" lon="-3.01219">
        <ele>128.2</ele>
        <time>2021-08-09T12:16:00Z</time>
      </trkpt>
      <trkpt lat="48.21277" lon="-3.01203">
        <ele>127.4</ele>
        <time>2021-08-09T12:16:01Z</time>
      </trkpt>
      <trkpt lat="48.21274" lon="-3.01188">
        <ele>126.6</ele>
        <time>2021-08-09T12:16:02Z</time>
      </trkpt>
      <trkpt lat="48.21272" lon="-3.01173">
        <ele>126.2</ele>
        <time>2021-08-09T12:16:03Z</time>
      </trkpt>
      <trkpt lat="48.21268" lon="-3.01158">
        <ele>125.6</ele>
        <time>2021-08-09T12:16:04Z</time>
      </trkpt>
      <trkpt lat="48.21265" lon="-3.01144">
        <ele>124.8</ele>
        <time>2021-08-09T12:16:05Z</time>
      </trkpt>
      <trkpt lat="48.21261" lon="-3.0113">
        <ele>123.8</ele>
        <time>2021-08-09T12:16:06Z</time>
      </trkpt>
      <trkpt lat="48.21258" lon="-3.01116">
        <ele>122.6</ele>
        <time>2021-08-09T12:16:07Z</time>
      </trkpt>
      <trkpt lat="48.21256" lon="-3.01103">
        <ele>121.8</ele>
        <time>2021-08-09T12:16:08Z</time>
      </trkpt>
      <trkpt lat="48.21254" lon="-3.01089">
        <ele>121.4</ele>
        <time>2021-08-09T12:16:09Z</time>
      </trkpt>
      <trkpt lat="48.21252" lon="-3.01076">
        <ele>121.2</ele>
        <time>2021-08-09T12:16:10Z</time>
      </trkpt>
      <trkpt lat="48.21251" lon="-3.01063">
        <ele>121.2</ele>
        <time>2021-08-09T12:16:11Z</time>
      </trkpt>
      <trkpt lat="48.2125" lon="-3.01051">
        <ele>121.2</ele>
        <time>2021-08-09T12:16:12Z</time>
      </trkpt>
      <trkpt lat="48.21248" lon="-3.01039">
        <ele>121.2</ele>
        <time>2021-08-09T12:16:13Z</time>
      </trkpt>
      <trkpt lat="48.21247" lon="-3.01028">
        <ele>121.2</ele>
        <time>2021-08-09T12:16:14Z</time>
      </trkpt>
      <trkpt lat="48.21246" lon="-3.01019">
        <ele>121.2</ele>
        <time>2021-08-09T12:16:15Z</time>
      </trkpt>
      <trkpt lat="48.21245" lon="-3.0101">
        <ele>121.2</ele>
        <time>2021-08-09T12:16:16Z</time>
      </trkpt>
      <trkpt lat="48.21243" lon="-3.00995">
        <ele>122</ele>
        <time>2021-08-09T12:16:18Z</time>
      </trkpt>
      <trkpt lat="48.21242" lon="-3.00988">
        <ele>122.2</ele>
        <time>2021-08-09T12:16:19Z</time>
      </trkpt>
      <trkpt lat="48.21241" lon="-3.00982">
        <ele>122.4</ele>
        <time>2021-08-09T12:16:20Z</time>
      </trkpt>
      <trkpt lat="48.2124" lon="-3.00976">
        <ele>122.8</ele>
        <time>2021-08-09T12:16:21Z</time>
      </trkpt>
      <trkpt lat="48.21239" lon="-3.00971">
        <ele>123.2</ele>
        <time>2021-08-09T12:16:22Z</time>
      </trkpt>
      <trkpt lat="48.21238" lon="-3.00966">
        <ele>123.8</ele>
        <time>2021-08-09T12:16:23Z</time>
      </trkpt>
      <trkpt lat="48.21238" lon="-3.00962">
        <ele>124.2</ele>
        <time>2021-08-09T12:16:24Z</time>
      </trkpt>
      <trkpt lat="48.21237" lon="-3.00958">
        <ele>125</ele>
        <time>2021-08-09T12:16:25Z</time>
      </trkpt>
      <trkpt lat="48.21236" lon="-3.00954">
        <ele>125.6</ele>
        <time>2021-08-09T12:16:26Z</time>
      </trkpt>
      <trkpt lat="48.21236" lon="-3.00951">
        <ele>126.4</ele>
        <time>2021-08-09T12:16:27Z</time>
      </trkpt>
      <trkpt lat="48.21235" lon="-3.00945">
        <ele>128</ele>
        <time>2021-08-09T12:16:29Z</time>
      </trkpt>
      <trkpt lat="48.21234" lon="-3.00942">
        <ele>128.8</ele>
        <time>2021-08-09T12:16:30Z</time>
      </trkpt>
      <trkpt lat="48.21234" lon="-3.00939">
        <ele>129.6</ele>
        <time>2021-08-09T12:16:31Z</time>
      </trkpt>
      <trkpt lat="48.21234" lon="-3.00937">
        <ele>130.4</ele>
        <time>2021-08-09T12:16:32Z</time>
      </trkpt>
      <trkpt lat="48.21233" lon="-3.00934">
        <ele>130.8</ele>
        <time>2021-08-09T12:16:33Z</time>
      </trkpt>
      <trkpt lat="48.21233" lon="-3.00931">
        <ele>131.2</ele>
        <time>2021-08-09T12:16:34Z</time>
      </trkpt>
      <trkpt lat="48.21232" lon="-3.00927">
        <ele>131.4</ele>
        <time>2021-08-09T12:16:35Z</time>
      </trkpt>
      <trkpt lat="48.2123" lon="-3.00924">
        <ele>131.4</ele>
        <time>2021-08-09T12:16:36Z</time>
      </trkpt>
      <trkpt lat="48.21229" lon="-3.0092">
        <ele>131.6</ele>
        <time>2021-08-09T12:16:37Z</time>
      </trkpt>
      <trkpt lat="48.21228" lon="-3.00917">
        <ele>131.8</ele>
        <time>2021-08-09T12:16:38Z</time>
      </trkpt>
      <trkpt lat="48.21225" lon="-3.00909">
        <ele>131.8</ele>
        <time>2021-08-09T12:16:40Z</time>
      </trkpt>
      <trkpt lat="48.21224" lon="-3.00906">
        <ele>132</ele>
        <time>2021-08-09T12:16:41Z</time>
      </trkpt>
      <trkpt lat="48.21223" lon="-3.00902">
        <ele>132</ele>
        <time>2021-08-09T12:16:42Z</time>
      </trkpt>
      <trkpt lat="48.21222" lon="-3.00898">
        <ele>132</ele>
        <time>2021-08-09T12:16:43Z</time>
      </trkpt>
      <trkpt lat="48.2122" lon="-3.00894">
        <ele>132</ele>
        <time>2021-08-09T12:16:44Z</time>
      </trkpt>
      <trkpt lat="48.21219" lon="-3.00891">
        <ele>132.2</ele>
        <time>2021-08-09T12:16:45Z</time>
      </trkpt>
      <trkpt lat="48.21218" lon="-3.00887">
        <ele>132.4</ele>
        <time>2021-08-09T12:16:46Z</time>
      </trkpt>
      <trkpt lat="48.21218" lon="-3.00882">
        <ele>132.6</ele>
        <time>2021-08-09T12:16:47Z</time>
      </trkpt>
      <trkpt lat="48.21217" lon="-3.00878">
        <ele>132.8</ele>
        <time>2021-08-09T12:16:48Z</time>
      </trkpt>
      <trkpt lat="48.21216" lon="-3.00874">
        <ele>132.8</ele>
        <time>2021-08-09T12:16:49Z</time>
      </trkpt>
      <trkpt lat="48.21214" lon="-3.00866">
        <ele>133</ele>
        <time>2021-08-09T12:16:51Z</time>
      </trkpt>
      <trkpt lat="48.21214" lon="-3.00861">
        <ele>133.4</ele>
        <time>2021-08-09T12:16:52Z</time>
      </trkpt>
      <trkpt lat="48.21213" lon="-3.00857">
        <ele>133.8</ele>
        <time>2021-08-09T12:16:53Z</time>
      </trkpt>
      <trkpt lat="48.21212" lon="-3.00853">
        <ele>134.4</ele>
        <time>2021-08-09T12:16:54Z</time>
      </trkpt>
      <trkpt lat="48.21212" lon="-3.00849">
        <ele>134.8</ele>
        <time>2021-08-09T12:16:55Z</time>
      </trkpt>
      <trkpt lat="48.21211" lon="-3.00844">
        <ele>135.2</ele>
        <time>2021-08-09T12:16:56Z</time>
      </trkpt>
      <trkpt lat="48.21211" lon="-3.0084">
        <ele>135.4</ele>
        <time>2021-08-09T12:16:57Z</time>
      </trkpt>
      <trkpt lat="48.21211" lon="-3.00835">
        <ele>135.6</ele>
        <time>2021-08-09T12:16:58Z</time>
      </trkpt>
      <trkpt lat="48.21211" lon="-3.0083">
        <ele>135.8</ele>
        <time>2021-08-09T12:16:59Z</time>
      </trkpt>
      <trkpt lat="48.21211" lon="-3.00826">
        <ele>135.8</ele>
        <time>2021-08-09T12:17:00Z</time>
      </trkpt>
      <trkpt lat="48.21212" lon="-3.00816">
        <ele>136.2</ele>
        <time>2021-08-09T12:17:02Z</time>
      </trkpt>
      <trkpt lat="48.21212" lon="-3.00812">
        <ele>136.4</ele>
        <time>2021-08-09T12:17:03Z</time>
      </trkpt>
      <trkpt lat="48.21213" lon="-3.00807">
        <ele>136.6</ele>
        <time>2021-08-09T12:17:04Z</time>
      </trkpt>
      <trkpt lat="48.21213" lon="-3.00802">
        <ele>136.8</ele>
        <time>2021-08-09T12:17:05Z</time>
      </trkpt>
      <trkpt lat="48.21214" lon="-3.00797">
        <ele>137</ele>
        <time>2021-08-09T12:17:06Z</time>
      </trkpt>
      <trkpt lat="48.21215" lon="-3.00792">
        <ele>137.2</ele>
        <time>2021-08-09T12:17:07Z</time>
      </trkpt>
      <trkpt lat="48.21216" lon="-3.00787">
        <ele>137.4</ele>
        <time>2021-08-09T12:17:08Z</time>
      </trkpt>
      <trkpt lat="48.21217" lon="-3.00782">
        <ele>137.6</ele>
        <time>2021-08-09T12:17:09Z</time>
      </trkpt>
      <trkpt lat="48.21219" lon="-3.00777">
        <ele>138</ele>
        <time>2021-08-09T12:17:10Z</time>
      </trkpt>
      <trkpt lat="48.2122" lon="-3.00773">
        <ele>138.2</ele>
        <time>2021-08-09T12:17:11Z</time>
      </trkpt>
      <trkpt lat="48.21221" lon="-3.00768">
        <ele>138.6</ele>
        <time>2021-08-09T12:17:12Z</time>
      </trkpt>
      <trkpt lat="48.21222" lon="-3.00764">
        <ele>138.8</ele>
        <time>2021-08-09T12:17:13Z</time>
      </trkpt>
      <trkpt lat="48.21223" lon="-3.00759">
        <ele>139</ele>
        <time>2021-08-09T12:17:14Z</time>
      </trkpt>
      <trkpt lat="48.21225" lon="-3.00755">
        <ele>139.2</ele>
        <time>2021-08-09T12:17:15Z</time>
      </trkpt>
      <trkpt lat="48.21226" lon="-3.00751">
        <ele>139.2</ele>
        <time>2021-08-09T12:17:16Z</time>
      </trkpt>
      <trkpt lat="48.21227" lon="-3.00746">
        <ele>139.4</ele>
        <time>2021-08-09T12:17:17Z</time>
      </trkpt>
      <trkpt lat="48.21228" lon="-3.00742">
        <ele>139.6</ele>
        <time>2021-08-09T12:17:18Z</time>
      </trkpt>
      <trkpt lat="48.21229" lon="-3.00737">
        <ele>139.8</ele>
        <time>2021-08-09T12:17:19Z</time>
      </trkpt>
      <trkpt lat="48.2123" lon="-3.00733">
        <ele>139.8</ele>
        <time>2021-08-09T12:17:20Z</time>
      </trkpt>
      <trkpt lat="48.21231" lon="-3.0073">
        <ele>140</ele>
        <time>2021-08-09T12:17:21Z</time>
      </trkpt>
      <trkpt lat="48.21232" lon="-3.00726">
        <ele>140</ele>
        <time>2021-08-09T12:17:22Z</time>
      </trkpt>
      <trkpt lat="48.21234" lon="-3.00718">
        <ele>140.6</ele>
        <time>2021-08-09T12:17:24Z</time>
      </trkpt>
      <trkpt lat="48.21235" lon="-3.00714">
        <ele>140.8</ele>
        <time>2021-08-09T12:17:25Z</time>
      </trkpt>
      <trkpt lat="48.21236" lon="-3.0071">
        <ele>140.8</ele>
        <time>2021-08-09T12:17:26Z</time>
      </trkpt>
      <trkpt lat="48.21237" lon="-3.00706">
        <ele>141</ele>
        <time>2021-08-09T12:17:27Z</time>
      </trkpt>
      <trkpt lat="48.21238" lon="-3.00702">
        <ele>141.2</ele>
        <time>2021-08-09T12:17:28Z</time>
      </trkpt>
      <trkpt lat="48.21239" lon="-3.00698">
        <ele>141.4</ele>
        <time>2021-08-09T12:17:29Z</time>
      </trkpt>
      <trkpt lat="48.2124" lon="-3.00693">
        <ele>141.6</ele>
        <time>2021-08-09T12:17:30Z</time>
      </trkpt>
      <trkpt lat="48.21241" lon="-3.00689">
        <ele>141.8</ele>
        <time>2021-08-09T12:17:31Z</time>
      </trkpt>
      <trkpt lat="48.21242" lon="-3.00684">
        <ele>141.8</ele>
        <time>2021-08-09T12:17:32Z</time>
      </trkpt>
      <trkpt lat="48.21243" lon="-3.0068">
        <ele>142</ele>
        <time>2021-08-09T12:17:33Z</time>
      </trkpt>
      <trkpt lat="48.21245" lon="-3.00672">
        <ele>142.4</ele>
        <time>2021-08-09T12:17:35Z</time>
      </trkpt>
      <trkpt lat="48.21246" lon="-3.00667">
        <ele>142.8</ele>
        <time>2021-08-09T12:17:36Z</time>
      </trkpt>
      <trkpt lat="48.21247" lon="-3.00662">
        <ele>143</ele>
        <time>2021-08-09T12:17:37Z</time>
      </trkpt>
      <trkpt lat="48.21247" lon="-3.00657">
        <ele>143.4</ele>
        <time>2021-08-09T12:17:38Z</time>
      </trkpt>
      <trkpt lat="48.21246" lon="-3.00652">
        <ele>143.8</ele>
        <time>2021-08-09T12:17:39Z</time>
      </trkpt>
      <trkpt lat="48.21246" lon="-3.00647">
        <ele>144.2</ele>
        <time>2021-08-09T12:17:40Z</time>
      </trkpt>
      <trkpt lat="48.21245" lon="-3.00641">
        <ele>144.4</ele>
        <time>2021-08-09T12:17:41Z</time>
      </trkpt>
      <trkpt lat="48.21243" lon="-3.00637">
        <ele>144.4</ele>
        <time>2021-08-09T12:17:42Z</time>
      </trkpt>
      <trkpt lat="48.21241" lon="-3.00632">
        <ele>144.6</ele>
        <time>2021-08-09T12:17:43Z</time>
      </trkpt>
      <trkpt lat="48.21239" lon="-3.00629">
        <ele>144.6</ele>
        <time>2021-08-09T12:17:44Z</time>
      </trkpt>
      <trkpt lat="48.21234" lon="-3.00622">
        <ele>144.8</ele>
        <time>2021-08-09T12:17:46Z</time>
      </trkpt>
      <trkpt lat="48.21232" lon="-3.00619">
        <ele>144.8</ele>
        <time>2021-08-09T12:17:47Z</time>
      </trkpt>
      <trkpt lat="48.21229" lon="-3.00616">
        <ele>145</ele>
        <time>2021-08-09T12:17:48Z</time>
      </trkpt>
      <trkpt lat="48.21226" lon="-3.00613">
        <ele>145</ele>
        <time>2021-08-09T12:17:49Z</time>
      </trkpt>
      <trkpt lat="48.21223" lon="-3.0061">
        <ele>145</ele>
        <time>2021-08-09T12:17:50Z</time>
      </trkpt>
      <trkpt lat="48.21221" lon="-3.00606">
        <ele>145</ele>
        <time>2021-08-09T12:17:51Z</time>
      </trkpt>
      <trkpt lat="48.21218" lon="-3.00603">
        <ele>145.2</ele>
        <time>2021-08-09T12:17:52Z</time>
      </trkpt>
      <trkpt lat="48.21215" lon="-3.006">
        <ele>145.2</ele>
        <time>2021-08-09T12:17:53Z</time>
      </trkpt>
      <trkpt lat="48.21212" lon="-3.00597">
        <ele>145.2</ele>
        <time>2021-08-09T12:17:54Z</time>
      </trkpt>
      <trkpt lat="48.21209" lon="-3.00594">
        <ele>145.2</ele>
        <time>2021-08-09T12:17:55Z</time>
      </trkpt>
      <trkpt lat="48.21203" lon="-3.00587">
        <ele>145.4</ele>
        <time>2021-08-09T12:17:57Z</time>
      </trkpt>
      <trkpt lat="48.212" lon="-3.00584">
        <ele>145.4</ele>
        <time>2021-08-09T12:17:58Z</time>
      </trkpt>
      <trkpt lat="48.21197" lon="-3.0058">
        <ele>145.4</ele>
        <time>2021-08-09T12:17:59Z</time>
      </trkpt>
      <trkpt lat="48.21194" lon="-3.00577">
        <ele>145.6</ele>
        <time>2021-08-09T12:18:00Z</time>
      </trkpt>
      <trkpt lat="48.21191" lon="-3.00573">
        <ele>145.6</ele>
        <time>2021-08-09T12:18:01Z</time>
      </trkpt>
      <trkpt lat="48.21187" lon="-3.0057">
        <ele>145.6</ele>
        <time>2021-08-09T12:18:02Z</time>
      </trkpt>
      <trkpt lat="48.21184" lon="-3.00566">
        <ele>145.8</ele>
        <time>2021-08-09T12:18:03Z</time>
      </trkpt>
      <trkpt lat="48.21181" lon="-3.00563">
        <ele>145.8</ele>
        <time>2021-08-09T12:18:04Z</time>
      </trkpt>
      <trkpt lat="48.21178" lon="-3.00559">
        <ele>145.8</ele>
        <time>2021-08-09T12:18:05Z</time>
      </trkpt>
      <trkpt lat="48.21174" lon="-3.00556">
        <ele>146</ele>
        <time>2021-08-09T12:18:06Z</time>
      </trkpt>
      <trkpt lat="48.21168" lon="-3.00549">
        <ele>146.2</ele>
        <time>2021-08-09T12:18:08Z</time>
      </trkpt>
      <trkpt lat="48.21165" lon="-3.00546">
        <ele>146.4</ele>
        <time>2021-08-09T12:18:09Z</time>
      </trkpt>
      <trkpt lat="48.21161" lon="-3.00542">
        <ele>146.4</ele>
        <time>2021-08-09T12:18:10Z</time>
      </trkpt>
      <trkpt lat="48.21159" lon="-3.00537">
        <ele>146.4</ele>
        <time>2021-08-09T12:18:11Z</time>
      </trkpt>
      <trkpt lat="48.21156" lon="-3.00534">
        <ele>146.4</ele>
        <time>2021-08-09T12:18:12Z</time>
      </trkpt>
      <trkpt lat="48.21152" lon="-3.0053">
        <ele>146.6</ele>
        <time>2021-08-09T12:18:13Z</time>
      </trkpt>
      <trkpt lat="48.21149" lon="-3.00527">
        <ele>146.6</ele>
        <time>2021-08-09T12:18:14Z</time>
      </trkpt>
      <trkpt lat="48.21146" lon="-3.00523">
        <ele>146.8</ele>
        <time>2021-08-09T12:18:15Z</time>
      </trkpt>
      <trkpt lat="48.21143" lon="-3.0052">
        <ele>147</ele>
        <time>2021-08-09T12:18:16Z</time>
      </trkpt>
      <trkpt lat="48.21136" lon="-3.00513">
        <ele>147.2</ele>
        <time>2021-08-09T12:18:18Z</time>
      </trkpt>
      <trkpt lat="48.21133" lon="-3.0051">
        <ele>147.4</ele>
        <time>2021-08-09T12:18:19Z</time>
      </trkpt>
      <trkpt lat="48.2113" lon="-3.00506">
        <ele>147.4</ele>
        <time>2021-08-09T12:18:20Z</time>
      </trkpt>
      <trkpt lat="48.21127" lon="-3.00502">
        <ele>147.6</ele>
        <time>2021-08-09T12:18:21Z</time>
      </trkpt>
      <trkpt lat="48.21124" lon="-3.00498">
        <ele>147.6</ele>
        <time>2021-08-09T12:18:22Z</time>
      </trkpt>
      <trkpt lat="48.21122" lon="-3.00494">
        <ele>147.6</ele>
        <time>2021-08-09T12:18:23Z</time>
      </trkpt>
      <trkpt lat="48.21119" lon="-3.0049">
        <ele>147.8</ele>
        <time>2021-08-09T12:18:24Z</time>
      </trkpt>
      <trkpt lat="48.21117" lon="-3.00487">
        <ele>147.8</ele>
        <time>2021-08-09T12:18:25Z</time>
      </trkpt>
      <trkpt lat="48.21115" lon="-3.00486">
        <ele>148</ele>
        <time>2021-08-09T12:18:26Z</time>
      </trkpt>
      <trkpt lat="48.21113" lon="-3.00487">
        <ele>148</ele>
        <time>2021-08-09T12:18:27Z</time>
      </trkpt>
      <trkpt lat="48.21111" lon="-3.00491">
        <ele>148.2</ele>
        <time>2021-08-09T12:18:29Z</time>
      </trkpt>
      <trkpt lat="48.2111" lon="-3.00492">
        <ele>148.2</ele>
        <time>2021-08-09T12:18:30Z</time>
      </trkpt>
      <trkpt lat="48.21109" lon="-3.00493">
        <ele>148.2</ele>
        <time>2021-08-09T12:18:31Z</time>
      </trkpt>
      <trkpt lat="48.21108" lon="-3.00492">
        <ele>148.2</ele>
        <time>2021-08-09T12:18:32Z</time>
      </trkpt>
      <trkpt lat="48.21106" lon="-3.00491">
        <ele>148.2</ele>
        <time>2021-08-09T12:18:33Z</time>
      </trkpt>
      <trkpt lat="48.21104" lon="-3.00489">
        <ele>148.2</ele>
        <time>2021-08-09T12:18:34Z</time>
      </trkpt>
      <trkpt lat="48.211" lon="-3.00486">
        <ele>148.2</ele>
        <time>2021-08-09T12:18:35Z</time>
      </trkpt>
      <trkpt lat="48.21096" lon="-3.00482">
        <ele>147.8</ele>
        <time>2021-08-09T12:18:36Z</time>
      </trkpt>
      <trkpt lat="48.21092" lon="-3.00478">
        <ele>147.6</ele>
        <time>2021-08-09T12:18:37Z</time>
      </trkpt>
      <trkpt lat="48.21088" lon="-3.00473">
        <ele>147.6</ele>
        <time>2021-08-09T12:18:38Z</time>
      </trkpt>
      <trkpt lat="48.21078" lon="-3.00463">
        <ele>147.2</ele>
        <time>2021-08-09T12:18:40Z</time>
      </trkpt>
      <trkpt lat="48.21074" lon="-3.00459">
        <ele>147.2</ele>
        <time>2021-08-09T12:18:41Z</time>
      </trkpt>
      <trkpt lat="48.2107" lon="-3.00454">
        <ele>147</ele>
        <time>2021-08-09T12:18:42Z</time>
      </trkpt>
      <trkpt lat="48.21065" lon="-3.00449">
        <ele>146.8</ele>
        <time>2021-08-09T12:18:43Z</time>
      </trkpt>
      <trkpt lat="48.2106" lon="-3.00443">
        <ele>146.4</ele>
        <time>2021-08-09T12:18:44Z</time>
      </trkpt>
      <trkpt lat="48.21055" lon="-3.00436">
        <ele>146.2</ele>
        <time>2021-08-09T12:18:45Z</time>
      </trkpt>
      <trkpt lat="48.21049" lon="-3.0043">
        <ele>146</ele>
        <time>2021-08-09T12:18:46Z</time>
      </trkpt>
      <trkpt lat="48.21045" lon="-3.00425">
        <ele>145.8</ele>
        <time>2021-08-09T12:18:47Z</time>
      </trkpt>
      <trkpt lat="48.21039" lon="-3.00419">
        <ele>145.8</ele>
        <time>2021-08-09T12:18:48Z</time>
      </trkpt>
      <trkpt lat="48.21034" lon="-3.00413">
        <ele>145.6</ele>
        <time>2021-08-09T12:18:49Z</time>
      </trkpt>
      <trkpt lat="48.21028" lon="-3.00406">
        <ele>145.6</ele>
        <time>2021-08-09T12:18:50Z</time>
      </trkpt>
      <trkpt lat="48.21024" lon="-3.004">
        <ele>145.4</ele>
        <time>2021-08-09T12:18:51Z</time>
      </trkpt>
      <trkpt lat="48.21018" lon="-3.00393">
        <ele>145.2</ele>
        <time>2021-08-09T12:18:52Z</time>
      </trkpt>
      <trkpt lat="48.21012" lon="-3.00386">
        <ele>145.2</ele>
        <time>2021-08-09T12:18:53Z</time>
      </trkpt>
      <trkpt lat="48.21006" lon="-3.00379">
        <ele>145.2</ele>
        <time>2021-08-09T12:18:54Z</time>
      </trkpt>
      <trkpt lat="48.21001" lon="-3.00372">
        <ele>145</ele>
        <time>2021-08-09T12:18:55Z</time>
      </trkpt>
      <trkpt lat="48.20994" lon="-3.00365">
        <ele>145</ele>
        <time>2021-08-09T12:18:56Z</time>
      </trkpt>
      <trkpt lat="48.20988" lon="-3.00358">
        <ele>145</ele>
        <time>2021-08-09T12:18:57Z</time>
      </trkpt>
      <trkpt lat="48.20983" lon="-3.00352">
        <ele>145</ele>
        <time>2021-08-09T12:18:58Z</time>
      </trkpt>
      <trkpt lat="48.20977" lon="-3.00344">
        <ele>144.8</ele>
        <time>2021-08-09T12:18:59Z</time>
      </trkpt>
      <trkpt lat="48.20971" lon="-3.00338">
        <ele>144.8</ele>
        <time>2021-08-09T12:19:00Z</time>
      </trkpt>
      <trkpt lat="48.20966" lon="-3.00331">
        <ele>144.6</ele>
        <time>2021-08-09T12:19:01Z</time>
      </trkpt>
      <trkpt lat="48.20961" lon="-3.00326">
        <ele>144.6</ele>
        <time>2021-08-09T12:19:02Z</time>
      </trkpt>
      <trkpt lat="48.20956" lon="-3.0032">
        <ele>144.4</ele>
        <time>2021-08-09T12:19:03Z</time>
      </trkpt>
      <trkpt lat="48.2095" lon="-3.00313">
        <ele>144.2</ele>
        <time>2021-08-09T12:19:04Z</time>
      </trkpt>
      <trkpt lat="48.20945" lon="-3.00306">
        <ele>143.6</ele>
        <time>2021-08-09T12:19:05Z</time>
      </trkpt>
      <trkpt lat="48.2094" lon="-3.00299">
        <ele>143.2</ele>
        <time>2021-08-09T12:19:06Z</time>
      </trkpt>
      <trkpt lat="48.20934" lon="-3.00292">
        <ele>143</ele>
        <time>2021-08-09T12:19:07Z</time>
      </trkpt>
      <trkpt lat="48.2093" lon="-3.00286">
        <ele>143</ele>
        <time>2021-08-09T12:19:08Z</time>
      </trkpt>
      <trkpt lat="48.20925" lon="-3.00281">
        <ele>143</ele>
        <time>2021-08-09T12:19:09Z</time>
      </trkpt>
      <trkpt lat="48.20919" lon="-3.00275">
        <ele>142.8</ele>
        <time>2021-08-09T12:19:10Z</time>
      </trkpt>
      <trkpt lat="48.20913" lon="-3.00268">
        <ele>142.8</ele>
        <time>2021-08-09T12:19:11Z</time>
      </trkpt>
      <trkpt lat="48.20903" lon="-3.00254">
        <ele>142.8</ele>
        <time>2021-08-09T12:19:13Z</time>
      </trkpt>
      <trkpt lat="48.20898" lon="-3.00248">
        <ele>142.8</ele>
        <time>2021-08-09T12:19:14Z</time>
      </trkpt>
      <trkpt lat="48.20893" lon="-3.0024">
        <ele>142.8</ele>
        <time>2021-08-09T12:19:15Z</time>
      </trkpt>
      <trkpt lat="48.20886" lon="-3.00233">
        <ele>142.8</ele>
        <time>2021-08-09T12:19:16Z</time>
      </trkpt>
      <trkpt lat="48.2088" lon="-3.00226">
        <ele>142.8</ele>
        <time>2021-08-09T12:19:17Z</time>
      </trkpt>
      <trkpt lat="48.20875" lon="-3.00221">
        <ele>142.8</ele>
        <time>2021-08-09T12:19:18Z</time>
      </trkpt>
      <trkpt lat="48.20869" lon="-3.00217">
        <ele>142.8</ele>
        <time>2021-08-09T12:19:19Z</time>
      </trkpt>
      <trkpt lat="48.20864" lon="-3.00211">
        <ele>142.8</ele>
        <time>2021-08-09T12:19:20Z</time>
      </trkpt>
      <trkpt lat="48.20858" lon="-3.00205">
        <ele>142.8</ele>
        <time>2021-08-09T12:19:21Z</time>
      </trkpt>
      <trkpt lat="48.20852" lon="-3.00198">
        <ele>143</ele>
        <time>2021-08-09T12:19:22Z</time>
      </trkpt>
      <trkpt lat="48.20841" lon="-3.00185">
        <ele>143</ele>
        <time>2021-08-09T12:19:24Z</time>
      </trkpt>
      <trkpt lat="48.20836" lon="-3.00179">
        <ele>143</ele>
        <time>2021-08-09T12:19:25Z</time>
      </trkpt>
      <trkpt lat="48.20831" lon="-3.00173">
        <ele>143</ele>
        <time>2021-08-09T12:19:26Z</time>
      </trkpt>
      <trkpt lat="48.20826" lon="-3.00167">
        <ele>143.2</ele>
        <time>2021-08-09T12:19:27Z</time>
      </trkpt>
      <trkpt lat="48.20821" lon="-3.00161">
        <ele>143</ele>
        <time>2021-08-09T12:19:28Z</time>
      </trkpt>
      <trkpt lat="48.20816" lon="-3.00156">
        <ele>143</ele>
        <time>2021-08-09T12:19:29Z</time>
      </trkpt>
      <trkpt lat="48.20811" lon="-3.00151">
        <ele>143</ele>
        <time>2021-08-09T12:19:30Z</time>
      </trkpt>
      <trkpt lat="48.20806" lon="-3.00145">
        <ele>143</ele>
        <time>2021-08-09T12:19:31Z</time>
      </trkpt>
      <trkpt lat="48.20802" lon="-3.0014">
        <ele>143</ele>
        <time>2021-08-09T12:19:32Z</time>
      </trkpt>
      <trkpt lat="48.20797" lon="-3.00136">
        <ele>143.2</ele>
        <time>2021-08-09T12:19:33Z</time>
      </trkpt>
      <trkpt lat="48.20789" lon="-3.00127">
        <ele>143.6</ele>
        <time>2021-08-09T12:19:35Z</time>
      </trkpt>
      <trkpt lat="48.20785" lon="-3.00123">
        <ele>143.8</ele>
        <time>2021-08-09T12:19:36Z</time>
      </trkpt>
      <trkpt lat="48.20781" lon="-3.00118">
        <ele>144</ele>
        <time>2021-08-09T12:19:37Z</time>
      </trkpt>
      <trkpt lat="48.20776" lon="-3.00113">
        <ele>144.4</ele>
        <time>2021-08-09T12:19:38Z</time>
      </trkpt>
      <trkpt lat="48.20772" lon="-3.00108">
        <ele>144.8</ele>
        <time>2021-08-09T12:19:39Z</time>
      </trkpt>
      <trkpt lat="48.20767" lon="-3.00104">
        <ele>145</ele>
        <time>2021-08-09T12:19:40Z</time>
      </trkpt>
      <trkpt lat="48.20761" lon="-3.001">
        <ele>145.2</ele>
        <time>2021-08-09T12:19:41Z</time>
      </trkpt>
      <trkpt lat="48.20756" lon="-3.00096">
        <ele>145.4</ele>
        <time>2021-08-09T12:19:42Z</time>
      </trkpt>
      <trkpt lat="48.20751" lon="-3.00093">
        <ele>145.6</ele>
        <time>2021-08-09T12:19:43Z</time>
      </trkpt>
      <trkpt lat="48.20747" lon="-3.0009">
        <ele>145.6</ele>
        <time>2021-08-09T12:19:44Z</time>
      </trkpt>
      <trkpt lat="48.20739" lon="-3.00088">
        <ele>145.8</ele>
        <time>2021-08-09T12:19:46Z</time>
      </trkpt>
      <trkpt lat="48.20735" lon="-3.00086">
        <ele>145.8</ele>
        <time>2021-08-09T12:19:47Z</time>
      </trkpt>
      <trkpt lat="48.20732" lon="-3.00085">
        <ele>145.8</ele>
        <time>2021-08-09T12:19:48Z</time>
      </trkpt>
      <trkpt lat="48.20728" lon="-3.00083">
        <ele>145.8</ele>
        <time>2021-08-09T12:19:49Z</time>
      </trkpt>
      <trkpt lat="48.20724" lon="-3.00081">
        <ele>145.8</ele>
        <time>2021-08-09T12:19:50Z</time>
      </trkpt>
      <trkpt lat="48.20719" lon="-3.00078">
        <ele>145.8</ele>
        <time>2021-08-09T12:19:51Z</time>
      </trkpt>
      <trkpt lat="48.20714" lon="-3.00076">
        <ele>145.8</ele>
        <time>2021-08-09T12:19:52Z</time>
      </trkpt>
      <trkpt lat="48.2071" lon="-3.00074">
        <ele>145.8</ele>
        <time>2021-08-09T12:19:53Z</time>
      </trkpt>
      <trkpt lat="48.20705" lon="-3.00072">
        <ele>145.8</ele>
        <time>2021-08-09T12:19:54Z</time>
      </trkpt>
      <trkpt lat="48.20699" lon="-3.00069">
        <ele>146</ele>
        <time>2021-08-09T12:19:55Z</time>
      </trkpt>
      <trkpt lat="48.2069" lon="-3.00065">
        <ele>146</ele>
        <time>2021-08-09T12:19:57Z</time>
      </trkpt>
      <trkpt lat="48.20685" lon="-3.00064">
        <ele>146</ele>
        <time>2021-08-09T12:19:58Z</time>
      </trkpt>
      <trkpt lat="48.2068" lon="-3.00063">
        <ele>146</ele>
        <time>2021-08-09T12:19:59Z</time>
      </trkpt>
      <trkpt lat="48.20676" lon="-3.00062">
        <ele>146</ele>
        <time>2021-08-09T12:20:00Z</time>
      </trkpt>
      <trkpt lat="48.20671" lon="-3.00061">
        <ele>146.2</ele>
        <time>2021-08-09T12:20:01Z</time>
      </trkpt>
      <trkpt lat="48.20666" lon="-3.0006">
        <ele>146.2</ele>
        <time>2021-08-09T12:20:02Z</time>
      </trkpt>
      <trkpt lat="48.20661" lon="-3.00057">
        <ele>146.2</ele>
        <time>2021-08-09T12:20:03Z</time>
      </trkpt>
      <trkpt lat="48.20657" lon="-3.00055">
        <ele>146.2</ele>
        <time>2021-08-09T12:20:04Z</time>
      </trkpt>
      <trkpt lat="48.20653" lon="-3.00053">
        <ele>146.2</ele>
        <time>2021-08-09T12:20:05Z</time>
      </trkpt>
      <trkpt lat="48.20649" lon="-3.00051">
        <ele>146.4</ele>
        <time>2021-08-09T12:20:06Z</time>
      </trkpt>
      <trkpt lat="48.20645" lon="-3.00051">
        <ele>146.6</ele>
        <time>2021-08-09T12:20:07Z</time>
      </trkpt>
      <trkpt lat="48.2064" lon="-3.00051">
        <ele>147</ele>
        <time>2021-08-09T12:20:08Z</time>
      </trkpt>
      <trkpt lat="48.20635" lon="-3.0005">
        <ele>147.2</ele>
        <time>2021-08-09T12:20:09Z</time>
      </trkpt>
      <trkpt lat="48.20631" lon="-3.0005">
        <ele>147.4</ele>
        <time>2021-08-09T12:20:10Z</time>
      </trkpt>
      <trkpt lat="48.20626" lon="-3.0005">
        <ele>147.6</ele>
        <time>2021-08-09T12:20:11Z</time>
      </trkpt>
      <trkpt lat="48.20621" lon="-3.0005">
        <ele>147.6</ele>
        <time>2021-08-09T12:20:12Z</time>
      </trkpt>
      <trkpt lat="48.20616" lon="-3.0005">
        <ele>147.6</ele>
        <time>2021-08-09T12:20:13Z</time>
      </trkpt>
      <trkpt lat="48.20611" lon="-3.0005">
        <ele>147.8</ele>
        <time>2021-08-09T12:20:14Z</time>
      </trkpt>
      <trkpt lat="48.20605" lon="-3.0005">
        <ele>147.8</ele>
        <time>2021-08-09T12:20:15Z</time>
      </trkpt>
      <trkpt lat="48.206" lon="-3.00049">
        <ele>147.8</ele>
        <time>2021-08-09T12:20:16Z</time>
      </trkpt>
      <trkpt lat="48.20595" lon="-3.0005">
        <ele>148</ele>
        <time>2021-08-09T12:20:17Z</time>
      </trkpt>
      <trkpt lat="48.20583" lon="-3.0005">
        <ele>148.4</ele>
        <time>2021-08-09T12:20:19Z</time>
      </trkpt>
      <trkpt lat="48.20578" lon="-3.00049">
        <ele>148.4</ele>
        <time>2021-08-09T12:20:20Z</time>
      </trkpt>
      <trkpt lat="48.20572" lon="-3.00049">
        <ele>148.4</ele>
        <time>2021-08-09T12:20:21Z</time>
      </trkpt>
      <trkpt lat="48.20566" lon="-3.00049">
        <ele>148.6</ele>
        <time>2021-08-09T12:20:22Z</time>
      </trkpt>
      <trkpt lat="48.20562" lon="-3.0005">
        <ele>148.6</ele>
        <time>2021-08-09T12:20:23Z</time>
      </trkpt>
      <trkpt lat="48.20556" lon="-3.00051">
        <ele>148.8</ele>
        <time>2021-08-09T12:20:24Z</time>
      </trkpt>
      <trkpt lat="48.2055" lon="-3.00051">
        <ele>149</ele>
        <time>2021-08-09T12:20:25Z</time>
      </trkpt>
      <trkpt lat="48.20545" lon="-3.00052">
        <ele>149</ele>
        <time>2021-08-09T12:20:26Z</time>
      </trkpt>
      <trkpt lat="48.2054" lon="-3.00053">
        <ele>149.4</ele>
        <time>2021-08-09T12:20:27Z</time>
      </trkpt>
      <trkpt lat="48.20535" lon="-3.00054">
        <ele>149.6</ele>
        <time>2021-08-09T12:20:28Z</time>
      </trkpt>
      <trkpt lat="48.2053" lon="-3.00056">
        <ele>149.8</ele>
        <time>2021-08-09T12:20:29Z</time>
      </trkpt>
      <trkpt lat="48.20524" lon="-3.00058">
        <ele>150</ele>
        <time>2021-08-09T12:20:30Z</time>
      </trkpt>
      <trkpt lat="48.20519" lon="-3.00058">
        <ele>150.2</ele>
        <time>2021-08-09T12:20:31Z</time>
      </trkpt>
      <trkpt lat="48.20514" lon="-3.00058">
        <ele>150.2</ele>
        <time>2021-08-09T12:20:32Z</time>
      </trkpt>
      <trkpt lat="48.20508" lon="-3.00059">
        <ele>150.2</ele>
        <time>2021-08-09T12:20:33Z</time>
      </trkpt>
      <trkpt lat="48.20502" lon="-3.00061">
        <ele>150.2</ele>
        <time>2021-08-09T12:20:34Z</time>
      </trkpt>
      <trkpt lat="48.20497" lon="-3.00062">
        <ele>150.2</ele>
        <time>2021-08-09T12:20:35Z</time>
      </trkpt>
      <trkpt lat="48.20491" lon="-3.00063">
        <ele>150.2</ele>
        <time>2021-08-09T12:20:36Z</time>
      </trkpt>
      <trkpt lat="48.20485" lon="-3.00065">
        <ele>150.4</ele>
        <time>2021-08-09T12:20:37Z</time>
      </trkpt>
      <trkpt lat="48.20479" lon="-3.00066">
        <ele>150.4</ele>
        <time>2021-08-09T12:20:38Z</time>
      </trkpt>
      <trkpt lat="48.20474" lon="-3.00067">
        <ele>150.4</ele>
        <time>2021-08-09T12:20:39Z</time>
      </trkpt>
      <trkpt lat="48.20464" lon="-3.00071">
        <ele>150.4</ele>
        <time>2021-08-09T12:20:41Z</time>
      </trkpt>
      <trkpt lat="48.20459" lon="-3.00073">
        <ele>150.4</ele>
        <time>2021-08-09T12:20:42Z</time>
      </trkpt>
      <trkpt lat="48.20454" lon="-3.00074">
        <ele>150.4</ele>
        <time>2021-08-09T12:20:43Z</time>
      </trkpt>
      <trkpt lat="48.20449" lon="-3.00076">
        <ele>150.4</ele>
        <time>2021-08-09T12:20:44Z</time>
      </trkpt>
      <trkpt lat="48.20445" lon="-3.00078">
        <ele>150.4</ele>
        <time>2021-08-09T12:20:45Z</time>
      </trkpt>
      <trkpt lat="48.2044" lon="-3.0008">
        <ele>150.4</ele>
        <time>2021-08-09T12:20:46Z</time>
      </trkpt>
      <trkpt lat="48.20436" lon="-3.00082">
        <ele>150.4</ele>
        <time>2021-08-09T12:20:47Z</time>
      </trkpt>
      <trkpt lat="48.20431" lon="-3.00084">
        <ele>150.4</ele>
        <time>2021-08-09T12:20:48Z</time>
      </trkpt>
      <trkpt lat="48.20427" lon="-3.00086">
        <ele>150.4</ele>
        <time>2021-08-09T12:20:49Z</time>
      </trkpt>
      <trkpt lat="48.20424" lon="-3.00087">
        <ele>150.4</ele>
        <time>2021-08-09T12:20:50Z</time>
      </trkpt>
      <trkpt lat="48.2042" lon="-3.00089">
        <ele>150.4</ele>
        <time>2021-08-09T12:20:51Z</time>
      </trkpt>
      <trkpt lat="48.20417" lon="-3.00089">
        <ele>150.4</ele>
        <time>2021-08-09T12:20:52Z</time>
      </trkpt>
      <trkpt lat="48.20415" lon="-3.0009">
        <ele>150.4</ele>
        <time>2021-08-09T12:20:53Z</time>
      </trkpt>
      <trkpt lat="48.20413" lon="-3.00091">
        <ele>150.4</ele>
        <time>2021-08-09T12:20:54Z</time>
      </trkpt>
      <trkpt lat="48.20413" lon="-3.00092">
        <ele>150.4</ele>
        <time>2021-08-09T12:20:55Z</time>
      </trkpt>
      <trkpt lat="48.20412" lon="-3.00093">
        <ele>150.6</ele>
        <time>2021-08-09T12:20:56Z</time>
      </trkpt>
      <trkpt lat="48.20412" lon="-3.00094">
        <ele>150.6</ele>
        <time>2021-08-09T12:20:57Z</time>
      </trkpt>
      <trkpt lat="48.20412" lon="-3.00094">
        <ele>150.6</ele>
        <time>2021-08-09T12:20:58Z</time>
      </trkpt>
      <trkpt lat="48.20412" lon="-3.00095">
        <ele>151.2</ele>
        <time>2021-08-09T12:20:59Z</time>
      </trkpt>
      <trkpt lat="48.20412" lon="-3.00097">
        <ele>153</ele>
        <time>2021-08-09T12:21:03Z</time>
      </trkpt>
      <trkpt lat="48.20413" lon="-3.00098">
        <ele>153.2</ele>
        <time>2021-08-09T12:21:04Z</time>
      </trkpt>
      <trkpt lat="48.20414" lon="-3.00099">
        <ele>153.2</ele>
        <time>2021-08-09T12:21:05Z</time>
      </trkpt>
      <trkpt lat="48.20415" lon="-3.00101">
        <ele>153.2</ele>
        <time>2021-08-09T12:21:06Z</time>
      </trkpt>
      <trkpt lat="48.20416" lon="-3.00106">
        <ele>153.4</ele>
        <time>2021-08-09T12:21:08Z</time>
      </trkpt>
      <trkpt lat="48.20416" lon="-3.00108">
        <ele>153.4</ele>
        <time>2021-08-09T12:21:09Z</time>
      </trkpt>
      <trkpt lat="48.20416" lon="-3.00109">
        <ele>153.4</ele>
        <time>2021-08-09T12:21:10Z</time>
      </trkpt>
      <trkpt lat="48.20411" lon="-3.0011">
        <ele>153.2</ele>
        <time>2021-08-09T12:22:33Z</time>
      </trkpt>
      <trkpt lat="48.2041" lon="-3.00107">
        <ele>153.2</ele>
        <time>2021-08-09T12:22:34Z</time>
      </trkpt>
      <trkpt lat="48.2041" lon="-3.00104">
        <ele>153.2</ele>
        <time>2021-08-09T12:22:35Z</time>
      </trkpt>
      <trkpt lat="48.2041" lon="-3.001">
        <ele>153.2</ele>
        <time>2021-08-09T12:22:36Z</time>
      </trkpt>
      <trkpt lat="48.20409" lon="-3.00097">
        <ele>153.2</ele>
        <time>2021-08-09T12:22:37Z</time>
      </trkpt>
      <trkpt lat="48.20408" lon="-3.00093">
        <ele>153.2</ele>
        <time>2021-08-09T12:22:38Z</time>
      </trkpt>
      <trkpt lat="48.20405" lon="-3.00092">
        <ele>153.2</ele>
        <time>2021-08-09T12:22:39Z</time>
      </trkpt>
      <trkpt lat="48.20401" lon="-3.00093">
        <ele>153.2</ele>
        <time>2021-08-09T12:22:40Z</time>
      </trkpt>
      <trkpt lat="48.20398" lon="-3.00094">
        <ele>153.2</ele>
        <time>2021-08-09T12:22:41Z</time>
      </trkpt>
      <trkpt lat="48.20394" lon="-3.00096">
        <ele>153.2</ele>
        <time>2021-08-09T12:22:42Z</time>
      </trkpt>
      <trkpt lat="48.2039" lon="-3.00098">
        <ele>153.2</ele>
        <time>2021-08-09T12:22:43Z</time>
      </trkpt>
      <trkpt lat="48.20382" lon="-3.00102">
        <ele>153.2</ele>
        <time>2021-08-09T12:22:45Z</time>
      </trkpt>
      <trkpt lat="48.20378" lon="-3.00104">
        <ele>153</ele>
        <time>2021-08-09T12:22:46Z</time>
      </trkpt>
      <trkpt lat="48.20374" lon="-3.00106">
        <ele>152.6</ele>
        <time>2021-08-09T12:22:47Z</time>
      </trkpt>
      <trkpt lat="48.2037" lon="-3.00108">
        <ele>152.2</ele>
        <time>2021-08-09T12:22:48Z</time>
      </trkpt>
      <trkpt lat="48.20365" lon="-3.0011">
        <ele>152</ele>
        <time>2021-08-09T12:22:49Z</time>
      </trkpt>
      <trkpt lat="48.20361" lon="-3.00112">
        <ele>151.8</ele>
        <time>2021-08-09T12:22:50Z</time>
      </trkpt>
      <trkpt lat="48.20357" lon="-3.00114">
        <ele>151.8</ele>
        <time>2021-08-09T12:22:51Z</time>
      </trkpt>
      <trkpt lat="48.20352" lon="-3.00116">
        <ele>151.8</ele>
        <time>2021-08-09T12:22:52Z</time>
      </trkpt>
      <trkpt lat="48.20348" lon="-3.00118">
        <ele>151.6</ele>
        <time>2021-08-09T12:22:53Z</time>
      </trkpt>
      <trkpt lat="48.20343" lon="-3.0012">
        <ele>151.6</ele>
        <time>2021-08-09T12:22:54Z</time>
      </trkpt>
      <trkpt lat="48.20334" lon="-3.00124">
        <ele>151.6</ele>
        <time>2021-08-09T12:22:56Z</time>
      </trkpt>
      <trkpt lat="48.2033" lon="-3.00126">
        <ele>151.6</ele>
        <time>2021-08-09T12:22:57Z</time>
      </trkpt>
      <trkpt lat="48.20325" lon="-3.00128">
        <ele>151.6</ele>
        <time>2021-08-09T12:22:58Z</time>
      </trkpt>
      <trkpt lat="48.20321" lon="-3.00129">
        <ele>151.6</ele>
        <time>2021-08-09T12:22:59Z</time>
      </trkpt>
      <trkpt lat="48.20316" lon="-3.00131">
        <ele>151.8</ele>
        <time>2021-08-09T12:23:00Z</time>
      </trkpt>
      <trkpt lat="48.20312" lon="-3.00133">
        <ele>151.8</ele>
        <time>2021-08-09T12:23:01Z</time>
      </trkpt>
      <trkpt lat="48.20307" lon="-3.00135">
        <ele>152.2</ele>
        <time>2021-08-09T12:23:02Z</time>
      </trkpt>
      <trkpt lat="48.20303" lon="-3.00136">
        <ele>152.4</ele>
        <time>2021-08-09T12:23:03Z</time>
      </trkpt>
      <trkpt lat="48.20298" lon="-3.00138">
        <ele>152.6</ele>
        <time>2021-08-09T12:23:04Z</time>
      </trkpt>
      <trkpt lat="48.20293" lon="-3.00139">
        <ele>152.8</ele>
        <time>2021-08-09T12:23:05Z</time>
      </trkpt>
      <trkpt lat="48.20289" lon="-3.00141">
        <ele>152.8</ele>
        <time>2021-08-09T12:23:06Z</time>
      </trkpt>
      <trkpt lat="48.20284" lon="-3.00142">
        <ele>152.6</ele>
        <time>2021-08-09T12:23:07Z</time>
      </trkpt>
      <trkpt lat="48.20279" lon="-3.00143">
        <ele>153</ele>
        <time>2021-08-09T12:23:08Z</time>
      </trkpt>
      <trkpt lat="48.20274" lon="-3.00144">
        <ele>153</ele>
        <time>2021-08-09T12:23:09Z</time>
      </trkpt>
      <trkpt lat="48.20269" lon="-3.00145">
        <ele>153.2</ele>
        <time>2021-08-09T12:23:10Z</time>
      </trkpt>
      <trkpt lat="48.20264" lon="-3.00146">
        <ele>153</ele>
        <time>2021-08-09T12:23:11Z</time>
      </trkpt>
      <trkpt lat="48.20258" lon="-3.00147">
        <ele>153.2</ele>
        <time>2021-08-09T12:23:12Z</time>
      </trkpt>
      <trkpt lat="48.20253" lon="-3.00148">
        <ele>153.2</ele>
        <time>2021-08-09T12:23:13Z</time>
      </trkpt>
      <trkpt lat="48.20248" lon="-3.00148">
        <ele>153.2</ele>
        <time>2021-08-09T12:23:14Z</time>
      </trkpt>
      <trkpt lat="48.20243" lon="-3.00148">
        <ele>153.2</ele>
        <time>2021-08-09T12:23:15Z</time>
      </trkpt>
      <trkpt lat="48.20238" lon="-3.00148">
        <ele>153.4</ele>
        <time>2021-08-09T12:23:16Z</time>
      </trkpt>
      <trkpt lat="48.20227" lon="-3.00147">
        <ele>153.6</ele>
        <time>2021-08-09T12:23:18Z</time>
      </trkpt>
      <trkpt lat="48.20223" lon="-3.00147">
        <ele>153.6</ele>
        <time>2021-08-09T12:23:19Z</time>
      </trkpt>
      <trkpt lat="48.20218" lon="-3.00147">
        <ele>153.6</ele>
        <time>2021-08-09T12:23:20Z</time>
      </trkpt>
      <trkpt lat="48.20214" lon="-3.00147">
        <ele>153.6</ele>
        <time>2021-08-09T12:23:21Z</time>
      </trkpt>
      <trkpt lat="48.20209" lon="-3.00146">
        <ele>153.6</ele>
        <time>2021-08-09T12:23:22Z</time>
      </trkpt>
      <trkpt lat="48.20206" lon="-3.00146">
        <ele>153.8</ele>
        <time>2021-08-09T12:23:23Z</time>
      </trkpt>
      <trkpt lat="48.20202" lon="-3.00146">
        <ele>153.8</ele>
        <time>2021-08-09T12:23:24Z</time>
      </trkpt>
      <trkpt lat="48.20199" lon="-3.00146">
        <ele>153.8</ele>
        <time>2021-08-09T12:23:25Z</time>
      </trkpt>
      <trkpt lat="48.20195" lon="-3.00146">
        <ele>154</ele>
        <time>2021-08-09T12:23:26Z</time>
      </trkpt>
      <trkpt lat="48.20191" lon="-3.00146">
        <ele>154</ele>
        <time>2021-08-09T12:23:27Z</time>
      </trkpt>
      <trkpt lat="48.20187" lon="-3.00145">
        <ele>154</ele>
        <time>2021-08-09T12:23:28Z</time>
      </trkpt>
      <trkpt lat="48.20184" lon="-3.00145">
        <ele>154.2</ele>
        <time>2021-08-09T12:23:29Z</time>
      </trkpt>
      <trkpt lat="48.2018" lon="-3.00144">
        <ele>154.2</ele>
        <time>2021-08-09T12:23:30Z</time>
      </trkpt>
      <trkpt lat="48.20176" lon="-3.00144">
        <ele>154.2</ele>
        <time>2021-08-09T12:23:31Z</time>
      </trkpt>
      <trkpt lat="48.20172" lon="-3.00143">
        <ele>154.2</ele>
        <time>2021-08-09T12:23:32Z</time>
      </trkpt>
      <trkpt lat="48.20168" lon="-3.00142">
        <ele>154</ele>
        <time>2021-08-09T12:23:33Z</time>
      </trkpt>
      <trkpt lat="48.20163" lon="-3.00141">
        <ele>154</ele>
        <time>2021-08-09T12:23:34Z</time>
      </trkpt>
      <trkpt lat="48.20158" lon="-3.00141">
        <ele>154</ele>
        <time>2021-08-09T12:23:35Z</time>
      </trkpt>
      <trkpt lat="48.20153" lon="-3.00141">
        <ele>154</ele>
        <time>2021-08-09T12:23:36Z</time>
      </trkpt>
      <trkpt lat="48.20148" lon="-3.0014">
        <ele>154</ele>
        <time>2021-08-09T12:23:37Z</time>
      </trkpt>
      <trkpt lat="48.20143" lon="-3.00139">
        <ele>154</ele>
        <time>2021-08-09T12:23:38Z</time>
      </trkpt>
      <trkpt lat="48.20133" lon="-3.00136">
        <ele>153.8</ele>
        <time>2021-08-09T12:23:40Z</time>
      </trkpt>
      <trkpt lat="48.20128" lon="-3.00134">
        <ele>153.6</ele>
        <time>2021-08-09T12:23:41Z</time>
      </trkpt>
      <trkpt lat="48.20123" lon="-3.00132">
        <ele>153.4</ele>
        <time>2021-08-09T12:23:42Z</time>
      </trkpt>
      <trkpt lat="48.20118" lon="-3.00129">
        <ele>153.2</ele>
        <time>2021-08-09T12:23:43Z</time>
      </trkpt>
      <trkpt lat="48.20113" lon="-3.00126">
        <ele>153.2</ele>
        <time>2021-08-09T12:23:44Z</time>
      </trkpt>
      <trkpt lat="48.20108" lon="-3.00123">
        <ele>153</ele>
        <time>2021-08-09T12:23:45Z</time>
      </trkpt>
      <trkpt lat="48.20103" lon="-3.0012">
        <ele>153</ele>
        <time>2021-08-09T12:23:46Z</time>
      </trkpt>
      <trkpt lat="48.20097" lon="-3.00116">
        <ele>152.8</ele>
        <time>2021-08-09T12:23:47Z</time>
      </trkpt>
      <trkpt lat="48.20092" lon="-3.00113">
        <ele>152.8</ele>
        <time>2021-08-09T12:23:48Z</time>
      </trkpt>
      <trkpt lat="48.20086" lon="-3.00109">
        <ele>152.6</ele>
        <time>2021-08-09T12:23:49Z</time>
      </trkpt>
      <trkpt lat="48.20081" lon="-3.00106">
        <ele>152.4</ele>
        <time>2021-08-09T12:23:50Z</time>
      </trkpt>
      <trkpt lat="48.20074" lon="-3.00101">
        <ele>152</ele>
        <time>2021-08-09T12:23:51Z</time>
      </trkpt>
      <trkpt lat="48.20068" lon="-3.00097">
        <ele>151.8</ele>
        <time>2021-08-09T12:23:52Z</time>
      </trkpt>
      <trkpt lat="48.20062" lon="-3.00092">
        <ele>151.8</ele>
        <time>2021-08-09T12:23:53Z</time>
      </trkpt>
      <trkpt lat="48.20056" lon="-3.00088">
        <ele>151.6</ele>
        <time>2021-08-09T12:23:54Z</time>
      </trkpt>
      <trkpt lat="48.20051" lon="-3.00082">
        <ele>151.4</ele>
        <time>2021-08-09T12:23:55Z</time>
      </trkpt>
      <trkpt lat="48.20045" lon="-3.00077">
        <ele>151.4</ele>
        <time>2021-08-09T12:23:56Z</time>
      </trkpt>
      <trkpt lat="48.20039" lon="-3.00072">
        <ele>151.4</ele>
        <time>2021-08-09T12:23:57Z</time>
      </trkpt>
      <trkpt lat="48.20034" lon="-3.00067">
        <ele>151.2</ele>
        <time>2021-08-09T12:23:58Z</time>
      </trkpt>
      <trkpt lat="48.20028" lon="-3.00061">
        <ele>151.2</ele>
        <time>2021-08-09T12:23:59Z</time>
      </trkpt>
      <trkpt lat="48.20022" lon="-3.00055">
        <ele>151.2</ele>
        <time>2021-08-09T12:24:00Z</time>
      </trkpt>
      <trkpt lat="48.20017" lon="-3.00049">
        <ele>151.2</ele>
        <time>2021-08-09T12:24:01Z</time>
      </trkpt>
      <trkpt lat="48.20011" lon="-3.00041">
        <ele>151.2</ele>
        <time>2021-08-09T12:24:02Z</time>
      </trkpt>
      <trkpt lat="48.20006" lon="-3.00033">
        <ele>151.2</ele>
        <time>2021-08-09T12:24:03Z</time>
      </trkpt>
      <trkpt lat="48.19999" lon="-3.00025">
        <ele>151</ele>
        <time>2021-08-09T12:24:04Z</time>
      </trkpt>
      <trkpt lat="48.19993" lon="-3.00017">
        <ele>150.8</ele>
        <time>2021-08-09T12:24:05Z</time>
      </trkpt>
      <trkpt lat="48.19987" lon="-3.00009">
        <ele>150.6</ele>
        <time>2021-08-09T12:24:06Z</time>
      </trkpt>
      <trkpt lat="48.19981" lon="-3.00001">
        <ele>150.6</ele>
        <time>2021-08-09T12:24:07Z</time>
      </trkpt>
      <trkpt lat="48.19976" lon="-2.99993">
        <ele>150.6</ele>
        <time>2021-08-09T12:24:08Z</time>
      </trkpt>
      <trkpt lat="48.19971" lon="-2.99984">
        <ele>150.4</ele>
        <time>2021-08-09T12:24:09Z</time>
      </trkpt>
      <trkpt lat="48.19966" lon="-2.99975">
        <ele>150.2</ele>
        <time>2021-08-09T12:24:10Z</time>
      </trkpt>
      <trkpt lat="48.19962" lon="-2.99968">
        <ele>150.2</ele>
        <time>2021-08-09T12:24:11Z</time>
      </trkpt>
      <trkpt lat="48.19953" lon="-2.99952">
        <ele>150</ele>
        <time>2021-08-09T12:24:13Z</time>
      </trkpt>
      <trkpt lat="48.19949" lon="-2.99944">
        <ele>149.8</ele>
        <time>2021-08-09T12:24:14Z</time>
      </trkpt>
      <trkpt lat="48.19945" lon="-2.99935">
        <ele>149.6</ele>
        <time>2021-08-09T12:24:15Z</time>
      </trkpt>
      <trkpt lat="48.19941" lon="-2.99927">
        <ele>149.2</ele>
        <time>2021-08-09T12:24:16Z</time>
      </trkpt>
      <trkpt lat="48.19937" lon="-2.99919">
        <ele>149</ele>
        <time>2021-08-09T12:24:17Z</time>
      </trkpt>
      <trkpt lat="48.19934" lon="-2.99912">
        <ele>148.8</ele>
        <time>2021-08-09T12:24:18Z</time>
      </trkpt>
      <trkpt lat="48.1993" lon="-2.99905">
        <ele>148.6</ele>
        <time>2021-08-09T12:24:19Z</time>
      </trkpt>
      <trkpt lat="48.19927" lon="-2.99898">
        <ele>148.6</ele>
        <time>2021-08-09T12:24:20Z</time>
      </trkpt>
      <trkpt lat="48.19924" lon="-2.9989">
        <ele>148.4</ele>
        <time>2021-08-09T12:24:21Z</time>
      </trkpt>
      <trkpt lat="48.19921" lon="-2.99882">
        <ele>148.4</ele>
        <time>2021-08-09T12:24:22Z</time>
      </trkpt>
      <trkpt lat="48.19915" lon="-2.99866">
        <ele>147.6</ele>
        <time>2021-08-09T12:24:24Z</time>
      </trkpt>
      <trkpt lat="48.19912" lon="-2.99859">
        <ele>147.6</ele>
        <time>2021-08-09T12:24:25Z</time>
      </trkpt>
      <trkpt lat="48.19909" lon="-2.99853">
        <ele>147.4</ele>
        <time>2021-08-09T12:24:26Z</time>
      </trkpt>
      <trkpt lat="48.19907" lon="-2.99846">
        <ele>147.4</ele>
        <time>2021-08-09T12:24:27Z</time>
      </trkpt>
      <trkpt lat="48.19905" lon="-2.9984">
        <ele>147.4</ele>
        <time>2021-08-09T12:24:28Z</time>
      </trkpt>
      <trkpt lat="48.19904" lon="-2.99836">
        <ele>147.4</ele>
        <time>2021-08-09T12:24:29Z</time>
      </trkpt>
      <trkpt lat="48.19902" lon="-2.99834">
        <ele>147.4</ele>
        <time>2021-08-09T12:24:30Z</time>
      </trkpt>
      <trkpt lat="48.19901" lon="-2.99834">
        <ele>147.2</ele>
        <time>2021-08-09T12:24:31Z</time>
      </trkpt>
      <trkpt lat="48.199" lon="-2.99833">
        <ele>147.2</ele>
        <time>2021-08-09T12:24:32Z</time>
      </trkpt>
      <trkpt lat="48.19899" lon="-2.99834">
        <ele>147.2</ele>
        <time>2021-08-09T12:24:33Z</time>
      </trkpt>
      <trkpt lat="48.19899" lon="-2.99835">
        <ele>147.2</ele>
        <time>2021-08-09T12:24:34Z</time>
      </trkpt>
      <trkpt lat="48.19899" lon="-2.9984">
        <ele>147.2</ele>
        <time>2021-08-09T12:25:36Z</time>
      </trkpt>
      <trkpt lat="48.19898" lon="-2.99842">
        <ele>147.2</ele>
        <time>2021-08-09T12:25:37Z</time>
      </trkpt>
      <trkpt lat="48.19898" lon="-2.99845">
        <ele>147.2</ele>
        <time>2021-08-09T12:25:38Z</time>
      </trkpt>
      <trkpt lat="48.19898" lon="-2.99848">
        <ele>147.2</ele>
        <time>2021-08-09T12:25:39Z</time>
      </trkpt>
      <trkpt lat="48.19897" lon="-2.99855">
        <ele>147.2</ele>
        <time>2021-08-09T12:25:41Z</time>
      </trkpt>
      <trkpt lat="48.19897" lon="-2.99859">
        <ele>147.2</ele>
        <time>2021-08-09T12:25:42Z</time>
      </trkpt>
      <trkpt lat="48.19896" lon="-2.99862">
        <ele>147.2</ele>
        <time>2021-08-09T12:25:43Z</time>
      </trkpt>
      <trkpt lat="48.19895" lon="-2.99865">
        <ele>147.2</ele>
        <time>2021-08-09T12:25:44Z</time>
      </trkpt>
      <trkpt lat="48.19895" lon="-2.99868">
        <ele>147.2</ele>
        <time>2021-08-09T12:25:45Z</time>
      </trkpt>
      <trkpt lat="48.19894" lon="-2.99872">
        <ele>147</ele>
        <time>2021-08-09T12:25:46Z</time>
      </trkpt>
      <trkpt lat="48.19894" lon="-2.99875">
        <ele>147</ele>
        <time>2021-08-09T12:25:47Z</time>
      </trkpt>
      <trkpt lat="48.19894" lon="-2.99878">
        <ele>146.8</ele>
        <time>2021-08-09T12:25:48Z</time>
      </trkpt>
      <trkpt lat="48.19893" lon="-2.99881">
        <ele>146.8</ele>
        <time>2021-08-09T12:25:49Z</time>
      </trkpt>
      <trkpt lat="48.19892" lon="-2.99886">
        <ele>146.8</ele>
        <time>2021-08-09T12:25:51Z</time>
      </trkpt>
      <trkpt lat="48.19891" lon="-2.99889">
        <ele>146.8</ele>
        <time>2021-08-09T12:25:52Z</time>
      </trkpt>
      <trkpt lat="48.1989" lon="-2.99892">
        <ele>146.8</ele>
        <time>2021-08-09T12:25:53Z</time>
      </trkpt>
      <trkpt lat="48.19889" lon="-2.99894">
        <ele>146.8</ele>
        <time>2021-08-09T12:25:54Z</time>
      </trkpt>
      <trkpt lat="48.19888" lon="-2.99897">
        <ele>146.8</ele>
        <time>2021-08-09T12:25:55Z</time>
      </trkpt>
      <trkpt lat="48.19887" lon="-2.999">
        <ele>146.8</ele>
        <time>2021-08-09T12:25:56Z</time>
      </trkpt>
      <trkpt lat="48.19886" lon="-2.99903">
        <ele>147</ele>
        <time>2021-08-09T12:25:57Z</time>
      </trkpt>
      <trkpt lat="48.19885" lon="-2.99906">
        <ele>147</ele>
        <time>2021-08-09T12:25:58Z</time>
      </trkpt>
      <trkpt lat="48.19884" lon="-2.99909">
        <ele>147</ele>
        <time>2021-08-09T12:25:59Z</time>
      </trkpt>
      <trkpt lat="48.19882" lon="-2.99912">
        <ele>147</ele>
        <time>2021-08-09T12:26:00Z</time>
      </trkpt>
      <trkpt lat="48.19878" lon="-2.99918">
        <ele>147</ele>
        <time>2021-08-09T12:26:02Z</time>
      </trkpt>
      <trkpt lat="48.19877" lon="-2.99921">
        <ele>147</ele>
        <time>2021-08-09T12:26:03Z</time>
      </trkpt>
      <trkpt lat="48.19875" lon="-2.99924">
        <ele>147</ele>
        <time>2021-08-09T12:26:04Z</time>
      </trkpt>
      <trkpt lat="48.19873" lon="-2.99927">
        <ele>147</ele>
        <time>2021-08-09T12:26:05Z</time>
      </trkpt>
      <trkpt lat="48.19871" lon="-2.99931">
        <ele>147</ele>
        <time>2021-08-09T12:26:06Z</time>
      </trkpt>
      <trkpt lat="48.19868" lon="-2.99935">
        <ele>147</ele>
        <time>2021-08-09T12:26:07Z</time>
      </trkpt>
      <trkpt lat="48.19866" lon="-2.99938">
        <ele>147</ele>
        <time>2021-08-09T12:26:08Z</time>
      </trkpt>
      <trkpt lat="48.19863" lon="-2.99942">
        <ele>147</ele>
        <time>2021-08-09T12:26:09Z</time>
      </trkpt>
      <trkpt lat="48.1986" lon="-2.99946">
        <ele>147</ele>
        <time>2021-08-09T12:26:10Z</time>
      </trkpt>
      <trkpt lat="48.19856" lon="-2.99949">
        <ele>147</ele>
        <time>2021-08-09T12:26:11Z</time>
      </trkpt>
      <trkpt lat="48.19852" lon="-2.99951">
        <ele>147</ele>
        <time>2021-08-09T12:26:12Z</time>
      </trkpt>
      <trkpt lat="48.19847" lon="-2.99954">
        <ele>147</ele>
        <time>2021-08-09T12:26:13Z</time>
      </trkpt>
      <trkpt lat="48.19843" lon="-2.99957">
        <ele>146.8</ele>
        <time>2021-08-09T12:26:14Z</time>
      </trkpt>
      <trkpt lat="48.19838" lon="-2.99961">
        <ele>146.8</ele>
        <time>2021-08-09T12:26:15Z</time>
      </trkpt>
      <trkpt lat="48.19834" lon="-2.99966">
        <ele>146.8</ele>
        <time>2021-08-09T12:26:16Z</time>
      </trkpt>
      <trkpt lat="48.1983" lon="-2.99969">
        <ele>146.8</ele>
        <time>2021-08-09T12:26:17Z</time>
      </trkpt>
      <trkpt lat="48.19826" lon="-2.99972">
        <ele>146.6</ele>
        <time>2021-08-09T12:26:18Z</time>
      </trkpt>
      <trkpt lat="48.19822" lon="-2.99975">
        <ele>146.6</ele>
        <time>2021-08-09T12:26:19Z</time>
      </trkpt>
      <trkpt lat="48.19819" lon="-2.99979">
        <ele>146.6</ele>
        <time>2021-08-09T12:26:20Z</time>
      </trkpt>
      <trkpt lat="48.19815" lon="-2.99983">
        <ele>146.6</ele>
        <time>2021-08-09T12:26:21Z</time>
      </trkpt>
      <trkpt lat="48.19811" lon="-2.99988">
        <ele>146.4</ele>
        <time>2021-08-09T12:26:22Z</time>
      </trkpt>
      <trkpt lat="48.19807" lon="-2.99992">
        <ele>146.4</ele>
        <time>2021-08-09T12:26:23Z</time>
      </trkpt>
      <trkpt lat="48.19803" lon="-2.99995">
        <ele>146.4</ele>
        <time>2021-08-09T12:26:24Z</time>
      </trkpt>
      <trkpt lat="48.19799" lon="-3">
        <ele>146.4</ele>
        <time>2021-08-09T12:26:25Z</time>
      </trkpt>
      <trkpt lat="48.19795" lon="-3.00005">
        <ele>146.4</ele>
        <time>2021-08-09T12:26:26Z</time>
      </trkpt>
      <trkpt lat="48.1979" lon="-3.0001">
        <ele>146.2</ele>
        <time>2021-08-09T12:26:27Z</time>
      </trkpt>
      <trkpt lat="48.19786" lon="-3.00016">
        <ele>146.2</ele>
        <time>2021-08-09T12:26:28Z</time>
      </trkpt>
      <trkpt lat="48.19783" lon="-3.00022">
        <ele>146.2</ele>
        <time>2021-08-09T12:26:29Z</time>
      </trkpt>
      <trkpt lat="48.19779" lon="-3.00029">
        <ele>146.2</ele>
        <time>2021-08-09T12:26:30Z</time>
      </trkpt>
      <trkpt lat="48.19777" lon="-3.00036">
        <ele>146.2</ele>
        <time>2021-08-09T12:26:31Z</time>
      </trkpt>
      <trkpt lat="48.19774" lon="-3.00042">
        <ele>146.2</ele>
        <time>2021-08-09T12:26:32Z</time>
      </trkpt>
      <trkpt lat="48.19771" lon="-3.00049">
        <ele>146.2</ele>
        <time>2021-08-09T12:26:33Z</time>
      </trkpt>
      <trkpt lat="48.19766" lon="-3.00061">
        <ele>146</ele>
        <time>2021-08-09T12:26:35Z</time>
      </trkpt>
      <trkpt lat="48.19764" lon="-3.00067">
        <ele>145.8</ele>
        <time>2021-08-09T12:26:36Z</time>
      </trkpt>
      <trkpt lat="48.19763" lon="-3.00073">
        <ele>145.4</ele>
        <time>2021-08-09T12:26:37Z</time>
      </trkpt>
      <trkpt lat="48.19761" lon="-3.00079">
        <ele>145.2</ele>
        <time>2021-08-09T12:26:38Z</time>
      </trkpt>
      <trkpt lat="48.19759" lon="-3.00086">
        <ele>145</ele>
        <time>2021-08-09T12:26:39Z</time>
      </trkpt>
      <trkpt lat="48.19757" lon="-3.00094">
        <ele>145</ele>
        <time>2021-08-09T12:26:40Z</time>
      </trkpt>
      <trkpt lat="48.19755" lon="-3.00101">
        <ele>144.8</ele>
        <time>2021-08-09T12:26:41Z</time>
      </trkpt>
      <trkpt lat="48.19753" lon="-3.00109">
        <ele>144.8</ele>
        <time>2021-08-09T12:26:42Z</time>
      </trkpt>
      <trkpt lat="48.19751" lon="-3.00116">
        <ele>144.6</ele>
        <time>2021-08-09T12:26:43Z</time>
      </trkpt>
      <trkpt lat="48.19749" lon="-3.00124">
        <ele>144.6</ele>
        <time>2021-08-09T12:26:44Z</time>
      </trkpt>
      <trkpt lat="48.19746" lon="-3.00139">
        <ele>144.6</ele>
        <time>2021-08-09T12:26:46Z</time>
      </trkpt>
      <trkpt lat="48.19745" lon="-3.00147">
        <ele>144.4</ele>
        <time>2021-08-09T12:26:47Z</time>
      </trkpt>
      <trkpt lat="48.19745" lon="-3.00155">
        <ele>144.4</ele>
        <time>2021-08-09T12:26:48Z</time>
      </trkpt>
      <trkpt lat="48.19744" lon="-3.00164">
        <ele>144.2</ele>
        <time>2021-08-09T12:26:49Z</time>
      </trkpt>
      <trkpt lat="48.19744" lon="-3.00172">
        <ele>144.2</ele>
        <time>2021-08-09T12:26:50Z</time>
      </trkpt>
      <trkpt lat="48.19743" lon="-3.0018">
        <ele>144.2</ele>
        <time>2021-08-09T12:26:51Z</time>
      </trkpt>
      <trkpt lat="48.19742" lon="-3.00188">
        <ele>144.2</ele>
        <time>2021-08-09T12:26:52Z</time>
      </trkpt>
      <trkpt lat="48.19742" lon="-3.00196">
        <ele>144.2</ele>
        <time>2021-08-09T12:26:53Z</time>
      </trkpt>
      <trkpt lat="48.19741" lon="-3.00204">
        <ele>144.2</ele>
        <time>2021-08-09T12:26:54Z</time>
      </trkpt>
      <trkpt lat="48.1974" lon="-3.00211">
        <ele>144</ele>
        <time>2021-08-09T12:26:55Z</time>
      </trkpt>
      <trkpt lat="48.19739" lon="-3.00227">
        <ele>143.8</ele>
        <time>2021-08-09T12:26:57Z</time>
      </trkpt>
      <trkpt lat="48.19739" lon="-3.00234">
        <ele>143.6</ele>
        <time>2021-08-09T12:26:58Z</time>
      </trkpt>
      <trkpt lat="48.19738" lon="-3.00241">
        <ele>143.6</ele>
        <time>2021-08-09T12:26:59Z</time>
      </trkpt>
      <trkpt lat="48.19737" lon="-3.00248">
        <ele>143.8</ele>
        <time>2021-08-09T12:27:00Z</time>
      </trkpt>
      <trkpt lat="48.19736" lon="-3.00256">
        <ele>143.8</ele>
        <time>2021-08-09T12:27:01Z</time>
      </trkpt>
      <trkpt lat="48.19735" lon="-3.00264">
        <ele>143.8</ele>
        <time>2021-08-09T12:27:02Z</time>
      </trkpt>
      <trkpt lat="48.19734" lon="-3.00271">
        <ele>144</ele>
        <time>2021-08-09T12:27:03Z</time>
      </trkpt>
      <trkpt lat="48.19734" lon="-3.0028">
        <ele>144</ele>
        <time>2021-08-09T12:27:04Z</time>
      </trkpt>
      <trkpt lat="48.19733" lon="-3.00288">
        <ele>143.8</ele>
        <time>2021-08-09T12:27:05Z</time>
      </trkpt>
      <trkpt lat="48.19732" lon="-3.00296">
        <ele>144</ele>
        <time>2021-08-09T12:27:06Z</time>
      </trkpt>
      <trkpt lat="48.19732" lon="-3.00304">
        <ele>144</ele>
        <time>2021-08-09T12:27:07Z</time>
      </trkpt>
      <trkpt lat="48.19731" lon="-3.00313">
        <ele>144.2</ele>
        <time>2021-08-09T12:27:08Z</time>
      </trkpt>
      <trkpt lat="48.1973" lon="-3.00321">
        <ele>144.2</ele>
        <time>2021-08-09T12:27:09Z</time>
      </trkpt>
      <trkpt lat="48.1973" lon="-3.00329">
        <ele>144.4</ele>
        <time>2021-08-09T12:27:10Z</time>
      </trkpt>
      <trkpt lat="48.19729" lon="-3.00336">
        <ele>144.6</ele>
        <time>2021-08-09T12:27:11Z</time>
      </trkpt>
      <trkpt lat="48.19729" lon="-3.00343">
        <ele>144.6</ele>
        <time>2021-08-09T12:27:12Z</time>
      </trkpt>
      <trkpt lat="48.19728" lon="-3.0035">
        <ele>144.6</ele>
        <time>2021-08-09T12:27:13Z</time>
      </trkpt>
      <trkpt lat="48.19728" lon="-3.00356">
        <ele>144.6</ele>
        <time>2021-08-09T12:27:14Z</time>
      </trkpt>
      <trkpt lat="48.19727" lon="-3.00362">
        <ele>144.8</ele>
        <time>2021-08-09T12:27:15Z</time>
      </trkpt>
      <trkpt lat="48.19727" lon="-3.00368">
        <ele>144.8</ele>
        <time>2021-08-09T12:27:16Z</time>
      </trkpt>
      <trkpt lat="48.19726" lon="-3.00373">
        <ele>145</ele>
        <time>2021-08-09T12:27:17Z</time>
      </trkpt>
      <trkpt lat="48.19723" lon="-3.00382">
        <ele>145</ele>
        <time>2021-08-09T12:27:19Z</time>
      </trkpt>
      <trkpt lat="48.1972" lon="-3.00384">
        <ele>145</ele>
        <time>2021-08-09T12:27:20Z</time>
      </trkpt>
      <trkpt lat="48.19717" lon="-3.00387">
        <ele>145</ele>
        <time>2021-08-09T12:27:21Z</time>
      </trkpt>
      <trkpt lat="48.19715" lon="-3.00391">
        <ele>144.8</ele>
        <time>2021-08-09T12:27:22Z</time>
      </trkpt>
      <trkpt lat="48.19712" lon="-3.00396">
        <ele>144.8</ele>
        <time>2021-08-09T12:27:23Z</time>
      </trkpt>
      <trkpt lat="48.19709" lon="-3.00401">
        <ele>144.8</ele>
        <time>2021-08-09T12:27:24Z</time>
      </trkpt>
      <trkpt lat="48.19706" lon="-3.00407">
        <ele>144.8</ele>
        <time>2021-08-09T12:27:25Z</time>
      </trkpt>
      <trkpt lat="48.19703" lon="-3.00412">
        <ele>144.6</ele>
        <time>2021-08-09T12:27:26Z</time>
      </trkpt>
      <trkpt lat="48.19701" lon="-3.00419">
        <ele>144.6</ele>
        <time>2021-08-09T12:27:27Z</time>
      </trkpt>
      <trkpt lat="48.19698" lon="-3.00426">
        <ele>144.6</ele>
        <time>2021-08-09T12:27:28Z</time>
      </trkpt>
      <trkpt lat="48.19694" lon="-3.00433">
        <ele>144.2</ele>
        <time>2021-08-09T12:27:29Z</time>
      </trkpt>
      <trkpt lat="48.19691" lon="-3.0044">
        <ele>143.6</ele>
        <time>2021-08-09T12:27:30Z</time>
      </trkpt>
      <trkpt lat="48.19687" lon="-3.00448">
        <ele>143</ele>
        <time>2021-08-09T12:27:31Z</time>
      </trkpt>
      <trkpt lat="48.19682" lon="-3.00457">
        <ele>142.6</ele>
        <time>2021-08-09T12:27:32Z</time>
      </trkpt>
      <trkpt lat="48.19677" lon="-3.00466">
        <ele>142.2</ele>
        <time>2021-08-09T12:27:33Z</time>
      </trkpt>
      <trkpt lat="48.19673" lon="-3.00475">
        <ele>142</ele>
        <time>2021-08-09T12:27:34Z</time>
      </trkpt>
      <trkpt lat="48.19668" lon="-3.00484">
        <ele>141.4</ele>
        <time>2021-08-09T12:27:35Z</time>
      </trkpt>
      <trkpt lat="48.19663" lon="-3.00494">
        <ele>140.8</ele>
        <time>2021-08-09T12:27:36Z</time>
      </trkpt>
      <trkpt lat="48.19658" lon="-3.00503">
        <ele>140.2</ele>
        <time>2021-08-09T12:27:37Z</time>
      </trkpt>
      <trkpt lat="48.19653" lon="-3.00513">
        <ele>139.6</ele>
        <time>2021-08-09T12:27:38Z</time>
      </trkpt>
      <trkpt lat="48.19647" lon="-3.00522">
        <ele>139.2</ele>
        <time>2021-08-09T12:27:39Z</time>
      </trkpt>
      <trkpt lat="48.19636" lon="-3.00539">
        <ele>138.4</ele>
        <time>2021-08-09T12:27:41Z</time>
      </trkpt>
      <trkpt lat="48.19631" lon="-3.00547">
        <ele>138.2</ele>
        <time>2021-08-09T12:27:42Z</time>
      </trkpt>
      <trkpt lat="48.19626" lon="-3.00555">
        <ele>138</ele>
        <time>2021-08-09T12:27:43Z</time>
      </trkpt>
      <trkpt lat="48.19622" lon="-3.00563">
        <ele>138</ele>
        <time>2021-08-09T12:27:44Z</time>
      </trkpt>
      <trkpt lat="48.19617" lon="-3.0057">
        <ele>138</ele>
        <time>2021-08-09T12:27:45Z</time>
      </trkpt>
      <trkpt lat="48.19613" lon="-3.00577">
        <ele>138</ele>
        <time>2021-08-09T12:27:46Z</time>
      </trkpt>
      <trkpt lat="48.19609" lon="-3.00583">
        <ele>138</ele>
        <time>2021-08-09T12:27:47Z</time>
      </trkpt>
      <trkpt lat="48.19606" lon="-3.0059">
        <ele>138</ele>
        <time>2021-08-09T12:27:48Z</time>
      </trkpt>
      <trkpt lat="48.19604" lon="-3.00598">
        <ele>138</ele>
        <time>2021-08-09T12:27:49Z</time>
      </trkpt>
      <trkpt lat="48.19604" lon="-3.00605">
        <ele>138</ele>
        <time>2021-08-09T12:27:50Z</time>
      </trkpt>
      <trkpt lat="48.19608" lon="-3.00615">
        <ele>138</ele>
        <time>2021-08-09T12:27:52Z</time>
      </trkpt>
      <trkpt lat="48.19609" lon="-3.00619">
        <ele>138.2</ele>
        <time>2021-08-09T12:27:53Z</time>
      </trkpt>
      <trkpt lat="48.1961" lon="-3.00622">
        <ele>138.6</ele>
        <time>2021-08-09T12:27:54Z</time>
      </trkpt>
      <trkpt lat="48.19611" lon="-3.00626">
        <ele>139</ele>
        <time>2021-08-09T12:27:55Z</time>
      </trkpt>
      <trkpt lat="48.19613" lon="-3.00629">
        <ele>139.4</ele>
        <time>2021-08-09T12:27:56Z</time>
      </trkpt>
      <trkpt lat="48.19614" lon="-3.00633">
        <ele>140</ele>
        <time>2021-08-09T12:27:57Z</time>
      </trkpt>
      <trkpt lat="48.19615" lon="-3.00636">
        <ele>140.6</ele>
        <time>2021-08-09T12:27:58Z</time>
      </trkpt>
      <trkpt lat="48.19616" lon="-3.00639">
        <ele>141.2</ele>
        <time>2021-08-09T12:27:59Z</time>
      </trkpt>
      <trkpt lat="48.19616" lon="-3.00643">
        <ele>142</ele>
        <time>2021-08-09T12:28:00Z</time>
      </trkpt>
      <trkpt lat="48.19617" lon="-3.00646">
        <ele>142.8</ele>
        <time>2021-08-09T12:28:01Z</time>
      </trkpt>
      <trkpt lat="48.19618" lon="-3.00649">
        <ele>143.4</ele>
        <time>2021-08-09T12:28:02Z</time>
      </trkpt>
      <trkpt lat="48.19619" lon="-3.00652">
        <ele>144</ele>
        <time>2021-08-09T12:28:03Z</time>
      </trkpt>
      <trkpt lat="48.19619" lon="-3.00654">
        <ele>144.4</ele>
        <time>2021-08-09T12:28:04Z</time>
      </trkpt>
      <trkpt lat="48.1962" lon="-3.00656">
        <ele>144.8</ele>
        <time>2021-08-09T12:28:05Z</time>
      </trkpt>
      <trkpt lat="48.1962" lon="-3.00658">
        <ele>145</ele>
        <time>2021-08-09T12:28:06Z</time>
      </trkpt>
      <trkpt lat="48.19621" lon="-3.00661">
        <ele>145.4</ele>
        <time>2021-08-09T12:28:07Z</time>
      </trkpt>
      <trkpt lat="48.19621" lon="-3.00663">
        <ele>145.6</ele>
        <time>2021-08-09T12:28:08Z</time>
      </trkpt>
      <trkpt lat="48.19622" lon="-3.00666">
        <ele>145.8</ele>
        <time>2021-08-09T12:28:09Z</time>
      </trkpt>
      <trkpt lat="48.19622" lon="-3.00669">
        <ele>146.2</ele>
        <time>2021-08-09T12:28:10Z</time>
      </trkpt>
      <trkpt lat="48.19623" lon="-3.00672">
        <ele>146.4</ele>
        <time>2021-08-09T12:28:11Z</time>
      </trkpt>
      <trkpt lat="48.19623" lon="-3.00675">
        <ele>146.6</ele>
        <time>2021-08-09T12:28:12Z</time>
      </trkpt>
      <trkpt lat="48.19624" lon="-3.00682">
        <ele>146.8</ele>
        <time>2021-08-09T12:28:14Z</time>
      </trkpt>
      <trkpt lat="48.19624" lon="-3.00686">
        <ele>147</ele>
        <time>2021-08-09T12:28:15Z</time>
      </trkpt>
      <trkpt lat="48.19624" lon="-3.00689">
        <ele>147</ele>
        <time>2021-08-09T12:28:16Z</time>
      </trkpt>
      <trkpt lat="48.19624" lon="-3.00693">
        <ele>147.2</ele>
        <time>2021-08-09T12:28:17Z</time>
      </trkpt>
      <trkpt lat="48.19624" lon="-3.00697">
        <ele>147.2</ele>
        <time>2021-08-09T12:28:18Z</time>
      </trkpt>
      <trkpt lat="48.19623" lon="-3.007">
        <ele>147.2</ele>
        <time>2021-08-09T12:28:19Z</time>
      </trkpt>
      <trkpt lat="48.19623" lon="-3.00703">
        <ele>147.2</ele>
        <time>2021-08-09T12:28:20Z</time>
      </trkpt>
      <trkpt lat="48.19622" lon="-3.00706">
        <ele>147.4</ele>
        <time>2021-08-09T12:28:21Z</time>
      </trkpt>
      <trkpt lat="48.19621" lon="-3.00709">
        <ele>147.4</ele>
        <time>2021-08-09T12:28:22Z</time>
      </trkpt>
      <trkpt lat="48.1962" lon="-3.00712">
        <ele>147.6</ele>
        <time>2021-08-09T12:28:23Z</time>
      </trkpt>
      <trkpt lat="48.1962" lon="-3.00715">
        <ele>147.6</ele>
        <time>2021-08-09T12:28:24Z</time>
      </trkpt>
      <trkpt lat="48.1962" lon="-3.00718">
        <ele>147.6</ele>
        <time>2021-08-09T12:28:25Z</time>
      </trkpt>
      <trkpt lat="48.1962" lon="-3.00721">
        <ele>147.8</ele>
        <time>2021-08-09T12:28:26Z</time>
      </trkpt>
      <trkpt lat="48.1962" lon="-3.00725">
        <ele>148</ele>
        <time>2021-08-09T12:28:27Z</time>
      </trkpt>
      <trkpt lat="48.1962" lon="-3.00729">
        <ele>147.8</ele>
        <time>2021-08-09T12:28:28Z</time>
      </trkpt>
      <trkpt lat="48.19619" lon="-3.00732">
        <ele>148</ele>
        <time>2021-08-09T12:28:29Z</time>
      </trkpt>
      <trkpt lat="48.19618" lon="-3.00735">
        <ele>148.2</ele>
        <time>2021-08-09T12:28:30Z</time>
      </trkpt>
      <trkpt lat="48.19616" lon="-3.00738">
        <ele>148.4</ele>
        <time>2021-08-09T12:28:31Z</time>
      </trkpt>
      <trkpt lat="48.19615" lon="-3.00739">
        <ele>148.8</ele>
        <time>2021-08-09T12:28:32Z</time>
      </trkpt>
      <trkpt lat="48.19614" lon="-3.00741">
        <ele>149</ele>
        <time>2021-08-09T12:28:33Z</time>
      </trkpt>
      <trkpt lat="48.19613" lon="-3.00744">
        <ele>149.4</ele>
        <time>2021-08-09T12:28:34Z</time>
      </trkpt>
      <trkpt lat="48.19611" lon="-3.0075">
        <ele>149.6</ele>
        <time>2021-08-09T12:28:36Z</time>
      </trkpt>
      <trkpt lat="48.19611" lon="-3.00753">
        <ele>149.6</ele>
        <time>2021-08-09T12:28:37Z</time>
      </trkpt>
      <trkpt lat="48.1961" lon="-3.00756">
        <ele>149.6</ele>
        <time>2021-08-09T12:28:38Z</time>
      </trkpt>
      <trkpt lat="48.19609" lon="-3.00759">
        <ele>149.8</ele>
        <time>2021-08-09T12:28:39Z</time>
      </trkpt>
      <trkpt lat="48.19608" lon="-3.00762">
        <ele>150</ele>
        <time>2021-08-09T12:28:40Z</time>
      </trkpt>
      <trkpt lat="48.19607" lon="-3.00765">
        <ele>150.4</ele>
        <time>2021-08-09T12:28:41Z</time>
      </trkpt>
      <trkpt lat="48.19606" lon="-3.00768">
        <ele>150.4</ele>
        <time>2021-08-09T12:28:42Z</time>
      </trkpt>
      <trkpt lat="48.19606" lon="-3.00771">
        <ele>150.6</ele>
        <time>2021-08-09T12:28:43Z</time>
      </trkpt>
      <trkpt lat="48.19605" lon="-3.00774">
        <ele>150.8</ele>
        <time>2021-08-09T12:28:44Z</time>
      </trkpt>
      <trkpt lat="48.19604" lon="-3.00778">
        <ele>151</ele>
        <time>2021-08-09T12:28:45Z</time>
      </trkpt>
      <trkpt lat="48.19602" lon="-3.00784">
        <ele>151.2</ele>
        <time>2021-08-09T12:28:47Z</time>
      </trkpt>
      <trkpt lat="48.19601" lon="-3.00788">
        <ele>151.4</ele>
        <time>2021-08-09T12:28:48Z</time>
      </trkpt>
      <trkpt lat="48.196" lon="-3.00791">
        <ele>151.8</ele>
        <time>2021-08-09T12:28:49Z</time>
      </trkpt>
      <trkpt lat="48.19599" lon="-3.00794">
        <ele>152</ele>
        <time>2021-08-09T12:28:50Z</time>
      </trkpt>
      <trkpt lat="48.19597" lon="-3.00798">
        <ele>152</ele>
        <time>2021-08-09T12:28:51Z</time>
      </trkpt>
      <trkpt lat="48.19596" lon="-3.00801">
        <ele>152.2</ele>
        <time>2021-08-09T12:28:52Z</time>
      </trkpt>
      <trkpt lat="48.19595" lon="-3.00805">
        <ele>152.4</ele>
        <time>2021-08-09T12:28:53Z</time>
      </trkpt>
      <trkpt lat="48.19594" lon="-3.00808">
        <ele>152.4</ele>
        <time>2021-08-09T12:28:54Z</time>
      </trkpt>
      <trkpt lat="48.19593" lon="-3.00811">
        <ele>152.6</ele>
        <time>2021-08-09T12:28:55Z</time>
      </trkpt>
      <trkpt lat="48.19591" lon="-3.00814">
        <ele>152.8</ele>
        <time>2021-08-09T12:28:56Z</time>
      </trkpt>
      <trkpt lat="48.19589" lon="-3.00818">
        <ele>153</ele>
        <time>2021-08-09T12:28:58Z</time>
      </trkpt>
      <trkpt lat="48.19587" lon="-3.0082">
        <ele>153.2</ele>
        <time>2021-08-09T12:28:59Z</time>
      </trkpt>
      <trkpt lat="48.19586" lon="-3.00821">
        <ele>153.2</ele>
        <time>2021-08-09T12:29:00Z</time>
      </trkpt>
      <trkpt lat="48.19585" lon="-3.00823">
        <ele>153.4</ele>
        <time>2021-08-09T12:29:01Z</time>
      </trkpt>
      <trkpt lat="48.19584" lon="-3.00826">
        <ele>153.4</ele>
        <time>2021-08-09T12:29:02Z</time>
      </trkpt>
      <trkpt lat="48.19584" lon="-3.00828">
        <ele>153.6</ele>
        <time>2021-08-09T12:29:03Z</time>
      </trkpt>
      <trkpt lat="48.19583" lon="-3.00831">
        <ele>153.6</ele>
        <time>2021-08-09T12:29:04Z</time>
      </trkpt>
      <trkpt lat="48.19582" lon="-3.00833">
        <ele>153.6</ele>
        <time>2021-08-09T12:29:05Z</time>
      </trkpt>
      <trkpt lat="48.19581" lon="-3.00835">
        <ele>153.8</ele>
        <time>2021-08-09T12:29:06Z</time>
      </trkpt>
      <trkpt lat="48.1958" lon="-3.00837">
        <ele>153.8</ele>
        <time>2021-08-09T12:29:07Z</time>
      </trkpt>
      <trkpt lat="48.19577" lon="-3.00839">
        <ele>153.8</ele>
        <time>2021-08-09T12:29:09Z</time>
      </trkpt>
      <trkpt lat="48.19576" lon="-3.0084">
        <ele>153.8</ele>
        <time>2021-08-09T12:29:10Z</time>
      </trkpt>
      <trkpt lat="48.19575" lon="-3.00842">
        <ele>153.8</ele>
        <time>2021-08-09T12:29:11Z</time>
      </trkpt>
      <trkpt lat="48.19576" lon="-3.00844">
        <ele>154</ele>
        <time>2021-08-09T12:29:12Z</time>
      </trkpt>
      <trkpt lat="48.19576" lon="-3.00845">
        <ele>154</ele>
        <time>2021-08-09T12:29:13Z</time>
      </trkpt>
      <trkpt lat="48.19576" lon="-3.00843">
        <ele>154</ele>
        <time>2021-08-09T12:29:15Z</time>
      </trkpt>
      <trkpt lat="48.19576" lon="-3.00841">
        <ele>154.2</ele>
        <time>2021-08-09T12:29:16Z</time>
      </trkpt>
      <trkpt lat="48.19575" lon="-3.0084">
        <ele>154.2</ele>
        <time>2021-08-09T12:29:17Z</time>
      </trkpt>
      <trkpt lat="48.19575" lon="-3.00838">
        <ele>154.4</ele>
        <time>2021-08-09T12:29:18Z</time>
      </trkpt>
      <trkpt lat="48.19575" lon="-3.00837">
        <ele>154.4</ele>
        <time>2021-08-09T12:29:19Z</time>
      </trkpt>
      <trkpt lat="48.19575" lon="-3.00837">
        <ele>154.6</ele>
        <time>2021-08-09T12:29:20Z</time>
      </trkpt>
      <trkpt lat="48.19575" lon="-3.00837">
        <ele>154.6</ele>
        <time>2021-08-09T12:29:21Z</time>
      </trkpt>
      <trkpt lat="48.19585" lon="-3.00814">
        <ele>154</ele>
        <time>2021-08-09T12:36:42Z</time>
      </trkpt>
      <trkpt lat="48.19586" lon="-3.00811">
        <ele>153.8</ele>
        <time>2021-08-09T12:36:43Z</time>
      </trkpt>
      <trkpt lat="48.19587" lon="-3.00808">
        <ele>153.8</ele>
        <time>2021-08-09T12:36:44Z</time>
      </trkpt>
      <trkpt lat="48.19588" lon="-3.00803">
        <ele>153.8</ele>
        <time>2021-08-09T12:36:45Z</time>
      </trkpt>
      <trkpt lat="48.1959" lon="-3.00798">
        <ele>153.8</ele>
        <time>2021-08-09T12:36:46Z</time>
      </trkpt>
      <trkpt lat="48.19592" lon="-3.00793">
        <ele>153.8</ele>
        <time>2021-08-09T12:36:47Z</time>
      </trkpt>
      <trkpt lat="48.19594" lon="-3.00787">
        <ele>153.8</ele>
        <time>2021-08-09T12:36:48Z</time>
      </trkpt>
      <trkpt lat="48.19595" lon="-3.00782">
        <ele>153.8</ele>
        <time>2021-08-09T12:36:49Z</time>
      </trkpt>
      <trkpt lat="48.19597" lon="-3.00775">
        <ele>153.8</ele>
        <time>2021-08-09T12:36:50Z</time>
      </trkpt>
      <trkpt lat="48.19599" lon="-3.00769">
        <ele>153.8</ele>
        <time>2021-08-09T12:36:51Z</time>
      </trkpt>
      <trkpt lat="48.19601" lon="-3.00761">
        <ele>153.8</ele>
        <time>2021-08-09T12:36:52Z</time>
      </trkpt>
      <trkpt lat="48.19604" lon="-3.00753">
        <ele>153.6</ele>
        <time>2021-08-09T12:36:53Z</time>
      </trkpt>
      <trkpt lat="48.19606" lon="-3.00745">
        <ele>153.4</ele>
        <time>2021-08-09T12:36:54Z</time>
      </trkpt>
      <trkpt lat="48.1961" lon="-3.00737">
        <ele>153.4</ele>
        <time>2021-08-09T12:36:55Z</time>
      </trkpt>
      <trkpt lat="48.19615" lon="-3.0073">
        <ele>153.2</ele>
        <time>2021-08-09T12:36:56Z</time>
      </trkpt>
      <trkpt lat="48.19621" lon="-3.00723">
        <ele>153</ele>
        <time>2021-08-09T12:36:57Z</time>
      </trkpt>
      <trkpt lat="48.19627" lon="-3.00717">
        <ele>152.6</ele>
        <time>2021-08-09T12:36:58Z</time>
      </trkpt>
      <trkpt lat="48.19632" lon="-3.00711">
        <ele>152.4</ele>
        <time>2021-08-09T12:36:59Z</time>
      </trkpt>
      <trkpt lat="48.19638" lon="-3.00707">
        <ele>152</ele>
        <time>2021-08-09T12:37:00Z</time>
      </trkpt>
      <trkpt lat="48.19643" lon="-3.00702">
        <ele>151.6</ele>
        <time>2021-08-09T12:37:01Z</time>
      </trkpt>
      <trkpt lat="48.19649" lon="-3.00696">
        <ele>151.2</ele>
        <time>2021-08-09T12:37:02Z</time>
      </trkpt>
      <trkpt lat="48.19655" lon="-3.00691">
        <ele>150.6</ele>
        <time>2021-08-09T12:37:03Z</time>
      </trkpt>
      <trkpt lat="48.1966" lon="-3.00686">
        <ele>149.8</ele>
        <time>2021-08-09T12:37:04Z</time>
      </trkpt>
      <trkpt lat="48.19666" lon="-3.00681">
        <ele>149.2</ele>
        <time>2021-08-09T12:37:05Z</time>
      </trkpt>
      <trkpt lat="48.19671" lon="-3.00676">
        <ele>148.6</ele>
        <time>2021-08-09T12:37:06Z</time>
      </trkpt>
      <trkpt lat="48.19677" lon="-3.00671">
        <ele>148</ele>
        <time>2021-08-09T12:37:07Z</time>
      </trkpt>
      <trkpt lat="48.19681" lon="-3.00666">
        <ele>147.2</ele>
        <time>2021-08-09T12:37:08Z</time>
      </trkpt>
      <trkpt lat="48.19686" lon="-3.00661">
        <ele>146.6</ele>
        <time>2021-08-09T12:37:09Z</time>
      </trkpt>
      <trkpt lat="48.19693" lon="-3.00653">
        <ele>145.4</ele>
        <time>2021-08-09T12:37:11Z</time>
      </trkpt>
      <trkpt lat="48.19696" lon="-3.00649">
        <ele>145</ele>
        <time>2021-08-09T12:37:12Z</time>
      </trkpt>
      <trkpt lat="48.19699" lon="-3.00646">
        <ele>144.8</ele>
        <time>2021-08-09T12:37:13Z</time>
      </trkpt>
      <trkpt lat="48.19701" lon="-3.00642">
        <ele>144.6</ele>
        <time>2021-08-09T12:37:14Z</time>
      </trkpt>
      <trkpt lat="48.19703" lon="-3.00639">
        <ele>144.2</ele>
        <time>2021-08-09T12:37:15Z</time>
      </trkpt>
      <trkpt lat="48.19704" lon="-3.00637">
        <ele>143.8</ele>
        <time>2021-08-09T12:37:16Z</time>
      </trkpt>
      <trkpt lat="48.19706" lon="-3.00635">
        <ele>143.6</ele>
        <time>2021-08-09T12:37:17Z</time>
      </trkpt>
      <trkpt lat="48.19706" lon="-3.00633">
        <ele>143.6</ele>
        <time>2021-08-09T12:37:18Z</time>
      </trkpt>
      <trkpt lat="48.19706" lon="-3.00633">
        <ele>143.4</ele>
        <time>2021-08-09T12:37:31Z</time>
      </trkpt>
      <trkpt lat="48.19705" lon="-3.00633">
        <ele>143.4</ele>
        <time>2021-08-09T12:37:32Z</time>
      </trkpt>
      <trkpt lat="48.19705" lon="-3.00633">
        <ele>143.4</ele>
        <time>2021-08-09T12:37:33Z</time>
      </trkpt>
      <trkpt lat="48.19705" lon="-3.00634">
        <ele>143.2</ele>
        <time>2021-08-09T12:37:38Z</time>
      </trkpt>
      <trkpt lat="48.19705" lon="-3.00635">
        <ele>143.2</ele>
        <time>2021-08-09T12:37:39Z</time>
      </trkpt>
      <trkpt lat="48.19704" lon="-3.00638">
        <ele>143.2</ele>
        <time>2021-08-09T12:37:41Z</time>
      </trkpt>
      <trkpt lat="48.19703" lon="-3.00641">
        <ele>143.2</ele>
        <time>2021-08-09T12:37:42Z</time>
      </trkpt>
      <trkpt lat="48.19703" lon="-3.00643">
        <ele>143.2</ele>
        <time>2021-08-09T12:37:43Z</time>
      </trkpt>
      <trkpt lat="48.19702" lon="-3.00646">
        <ele>143.2</ele>
        <time>2021-08-09T12:37:44Z</time>
      </trkpt>
      <trkpt lat="48.19701" lon="-3.00648">
        <ele>143.2</ele>
        <time>2021-08-09T12:37:45Z</time>
      </trkpt>
      <trkpt lat="48.197" lon="-3.00651">
        <ele>143.2</ele>
        <time>2021-08-09T12:37:46Z</time>
      </trkpt>
      <trkpt lat="48.19699" lon="-3.00653">
        <ele>143.2</ele>
        <time>2021-08-09T12:37:47Z</time>
      </trkpt>
      <trkpt lat="48.19696" lon="-3.00657">
        <ele>143.2</ele>
        <time>2021-08-09T12:37:49Z</time>
      </trkpt>
      <trkpt lat="48.19694" lon="-3.0066">
        <ele>143.2</ele>
        <time>2021-08-09T12:37:50Z</time>
      </trkpt>
      <trkpt lat="48.19692" lon="-3.00662">
        <ele>143.2</ele>
        <time>2021-08-09T12:37:51Z</time>
      </trkpt>
      <trkpt lat="48.1969" lon="-3.00664">
        <ele>143.2</ele>
        <time>2021-08-09T12:37:52Z</time>
      </trkpt>
      <trkpt lat="48.19688" lon="-3.00666">
        <ele>143.2</ele>
        <time>2021-08-09T12:37:53Z</time>
      </trkpt>
      <trkpt lat="48.19686" lon="-3.00669">
        <ele>143.2</ele>
        <time>2021-08-09T12:37:54Z</time>
      </trkpt>
      <trkpt lat="48.19684" lon="-3.00671">
        <ele>143.2</ele>
        <time>2021-08-09T12:37:55Z</time>
      </trkpt>
      <trkpt lat="48.19682" lon="-3.00673">
        <ele>143.2</ele>
        <time>2021-08-09T12:37:56Z</time>
      </trkpt>
      <trkpt lat="48.1968" lon="-3.00675">
        <ele>143.4</ele>
        <time>2021-08-09T12:37:57Z</time>
      </trkpt>
      <trkpt lat="48.19678" lon="-3.00676">
        <ele>143.4</ele>
        <time>2021-08-09T12:37:58Z</time>
      </trkpt>
      <trkpt lat="48.19674" lon="-3.0068">
        <ele>144</ele>
        <time>2021-08-09T12:38:00Z</time>
      </trkpt>
      <trkpt lat="48.19672" lon="-3.00681">
        <ele>144.2</ele>
        <time>2021-08-09T12:38:01Z</time>
      </trkpt>
      <trkpt lat="48.19671" lon="-3.00683">
        <ele>144.4</ele>
        <time>2021-08-09T12:38:02Z</time>
      </trkpt>
      <trkpt lat="48.19671" lon="-3.00684">
        <ele>144.6</ele>
        <time>2021-08-09T12:38:03Z</time>
      </trkpt>
      <trkpt lat="48.19671" lon="-3.00684">
        <ele>144.6</ele>
        <time>2021-08-09T12:38:04Z</time>
      </trkpt>
      <trkpt lat="48.19671" lon="-3.00685">
        <ele>146.4</ele>
        <time>2021-08-09T12:38:54Z</time>
      </trkpt>
      <trkpt lat="48.19671" lon="-3.00685">
        <ele>146.4</ele>
        <time>2021-08-09T12:38:55Z</time>
      </trkpt>
      <trkpt lat="48.1967" lon="-3.00685">
        <ele>146.4</ele>
        <time>2021-08-09T12:38:56Z</time>
      </trkpt>
      <trkpt lat="48.19669" lon="-3.00683">
        <ele>146.4</ele>
        <time>2021-08-09T12:38:57Z</time>
      </trkpt>
      <trkpt lat="48.1967" lon="-3.00681">
        <ele>146.4</ele>
        <time>2021-08-09T12:38:58Z</time>
      </trkpt>
      <trkpt lat="48.19671" lon="-3.00679">
        <ele>146.4</ele>
        <time>2021-08-09T12:38:59Z</time>
      </trkpt>
      <trkpt lat="48.19673" lon="-3.00677">
        <ele>146.4</ele>
        <time>2021-08-09T12:39:00Z</time>
      </trkpt>
      <trkpt lat="48.19675" lon="-3.00675">
        <ele>146.2</ele>
        <time>2021-08-09T12:39:01Z</time>
      </trkpt>
      <trkpt lat="48.19678" lon="-3.00674">
        <ele>146.2</ele>
        <time>2021-08-09T12:39:02Z</time>
      </trkpt>
      <trkpt lat="48.1968" lon="-3.00672">
        <ele>146.2</ele>
        <time>2021-08-09T12:39:03Z</time>
      </trkpt>
      <trkpt lat="48.19684" lon="-3.00667">
        <ele>146.2</ele>
        <time>2021-08-09T12:39:05Z</time>
      </trkpt>
      <trkpt lat="48.19686" lon="-3.00664">
        <ele>146</ele>
        <time>2021-08-09T12:39:06Z</time>
      </trkpt>
      <trkpt lat="48.19689" lon="-3.0066">
        <ele>145.8</ele>
        <time>2021-08-09T12:39:07Z</time>
      </trkpt>
      <trkpt lat="48.19692" lon="-3.00657">
        <ele>145.4</ele>
        <time>2021-08-09T12:39:08Z</time>
      </trkpt>
      <trkpt lat="48.19695" lon="-3.00653">
        <ele>145.4</ele>
        <time>2021-08-09T12:39:09Z</time>
      </trkpt>
      <trkpt lat="48.19699" lon="-3.00648">
        <ele>145.2</ele>
        <time>2021-08-09T12:39:10Z</time>
      </trkpt>
      <trkpt lat="48.19702" lon="-3.00644">
        <ele>145</ele>
        <time>2021-08-09T12:39:11Z</time>
      </trkpt>
      <trkpt lat="48.19705" lon="-3.00639">
        <ele>144.8</ele>
        <time>2021-08-09T12:39:12Z</time>
      </trkpt>
      <trkpt lat="48.19708" lon="-3.00634">
        <ele>144.6</ele>
        <time>2021-08-09T12:39:13Z</time>
      </trkpt>
      <trkpt lat="48.19709" lon="-3.00627">
        <ele>144.6</ele>
        <time>2021-08-09T12:39:14Z</time>
      </trkpt>
      <trkpt lat="48.1971" lon="-3.00615">
        <ele>143.8</ele>
        <time>2021-08-09T12:39:16Z</time>
      </trkpt>
      <trkpt lat="48.19711" lon="-3.00609">
        <ele>143.4</ele>
        <time>2021-08-09T12:39:17Z</time>
      </trkpt>
      <trkpt lat="48.19711" lon="-3.00603">
        <ele>143.4</ele>
        <time>2021-08-09T12:39:18Z</time>
      </trkpt>
      <trkpt lat="48.19712" lon="-3.00597">
        <ele>143.2</ele>
        <time>2021-08-09T12:39:19Z</time>
      </trkpt>
      <trkpt lat="48.19712" lon="-3.00592">
        <ele>143</ele>
        <time>2021-08-09T12:39:20Z</time>
      </trkpt>
      <trkpt lat="48.19713" lon="-3.00586">
        <ele>142.8</ele>
        <time>2021-08-09T12:39:21Z</time>
      </trkpt>
      <trkpt lat="48.19713" lon="-3.0058">
        <ele>142.6</ele>
        <time>2021-08-09T12:39:22Z</time>
      </trkpt>
      <trkpt lat="48.19713" lon="-3.00574">
        <ele>142.6</ele>
        <time>2021-08-09T12:39:23Z</time>
      </trkpt>
      <trkpt lat="48.19714" lon="-3.00568">
        <ele>142.6</ele>
        <time>2021-08-09T12:39:24Z</time>
      </trkpt>
      <trkpt lat="48.19714" lon="-3.00562">
        <ele>142.4</ele>
        <time>2021-08-09T12:39:25Z</time>
      </trkpt>
      <trkpt lat="48.19715" lon="-3.00551">
        <ele>142.4</ele>
        <time>2021-08-09T12:39:27Z</time>
      </trkpt>
      <trkpt lat="48.19715" lon="-3.00545">
        <ele>142.4</ele>
        <time>2021-08-09T12:39:28Z</time>
      </trkpt>
      <trkpt lat="48.19716" lon="-3.0054">
        <ele>142.4</ele>
        <time>2021-08-09T12:39:29Z</time>
      </trkpt>
      <trkpt lat="48.19716" lon="-3.00534">
        <ele>142.4</ele>
        <time>2021-08-09T12:39:30Z</time>
      </trkpt>
      <trkpt lat="48.19717" lon="-3.00529">
        <ele>142.6</ele>
        <time>2021-08-09T12:39:31Z</time>
      </trkpt>
      <trkpt lat="48.19717" lon="-3.00523">
        <ele>142.6</ele>
        <time>2021-08-09T12:39:32Z</time>
      </trkpt>
      <trkpt lat="48.19717" lon="-3.00518">
        <ele>142.6</ele>
        <time>2021-08-09T12:39:33Z</time>
      </trkpt>
      <trkpt lat="48.19718" lon="-3.00512">
        <ele>142.8</ele>
        <time>2021-08-09T12:39:34Z</time>
      </trkpt>
      <trkpt lat="48.19718" lon="-3.00507">
        <ele>142.8</ele>
        <time>2021-08-09T12:39:35Z</time>
      </trkpt>
      <trkpt lat="48.19719" lon="-3.00502">
        <ele>143</ele>
        <time>2021-08-09T12:39:36Z</time>
      </trkpt>
      <trkpt lat="48.19719" lon="-3.00491">
        <ele>143</ele>
        <time>2021-08-09T12:39:38Z</time>
      </trkpt>
      <trkpt lat="48.1972" lon="-3.00486">
        <ele>143.2</ele>
        <time>2021-08-09T12:39:39Z</time>
      </trkpt>
      <trkpt lat="48.1972" lon="-3.00481">
        <ele>143.2</ele>
        <time>2021-08-09T12:39:40Z</time>
      </trkpt>
      <trkpt lat="48.1972" lon="-3.00475">
        <ele>143.4</ele>
        <time>2021-08-09T12:39:41Z</time>
      </trkpt>
      <trkpt lat="48.19721" lon="-3.0047">
        <ele>143.4</ele>
        <time>2021-08-09T12:39:42Z</time>
      </trkpt>
      <trkpt lat="48.19721" lon="-3.00465">
        <ele>143.4</ele>
        <time>2021-08-09T12:39:43Z</time>
      </trkpt>
      <trkpt lat="48.19721" lon="-3.0046">
        <ele>143.4</ele>
        <time>2021-08-09T12:39:44Z</time>
      </trkpt>
      <trkpt lat="48.19722" lon="-3.00455">
        <ele>143.4</ele>
        <time>2021-08-09T12:39:45Z</time>
      </trkpt>
      <trkpt lat="48.19722" lon="-3.0045">
        <ele>143.6</ele>
        <time>2021-08-09T12:39:46Z</time>
      </trkpt>
      <trkpt lat="48.19722" lon="-3.00445">
        <ele>143.8</ele>
        <time>2021-08-09T12:39:47Z</time>
      </trkpt>
      <trkpt lat="48.19723" lon="-3.00435">
        <ele>144</ele>
        <time>2021-08-09T12:39:49Z</time>
      </trkpt>
      <trkpt lat="48.19723" lon="-3.00431">
        <ele>144.2</ele>
        <time>2021-08-09T12:39:50Z</time>
      </trkpt>
      <trkpt lat="48.19723" lon="-3.00427">
        <ele>144.4</ele>
        <time>2021-08-09T12:39:51Z</time>
      </trkpt>
      <trkpt lat="48.19724" lon="-3.00423">
        <ele>144.4</ele>
        <time>2021-08-09T12:39:52Z</time>
      </trkpt>
      <trkpt lat="48.19724" lon="-3.0042">
        <ele>144.6</ele>
        <time>2021-08-09T12:39:53Z</time>
      </trkpt>
      <trkpt lat="48.19724" lon="-3.00416">
        <ele>144.6</ele>
        <time>2021-08-09T12:39:54Z</time>
      </trkpt>
      <trkpt lat="48.19725" lon="-3.00413">
        <ele>144.8</ele>
        <time>2021-08-09T12:39:55Z</time>
      </trkpt>
      <trkpt lat="48.19725" lon="-3.00409">
        <ele>145</ele>
        <time>2021-08-09T12:39:56Z</time>
      </trkpt>
      <trkpt lat="48.19726" lon="-3.00406">
        <ele>145.2</ele>
        <time>2021-08-09T12:39:57Z</time>
      </trkpt>
      <trkpt lat="48.19726" lon="-3.00403">
        <ele>145.2</ele>
        <time>2021-08-09T12:39:58Z</time>
      </trkpt>
      <trkpt lat="48.19728" lon="-3.00396">
        <ele>145.6</ele>
        <time>2021-08-09T12:40:00Z</time>
      </trkpt>
      <trkpt lat="48.19728" lon="-3.00393">
        <ele>145.8</ele>
        <time>2021-08-09T12:40:01Z</time>
      </trkpt>
      <trkpt lat="48.19729" lon="-3.00389">
        <ele>145.8</ele>
        <time>2021-08-09T12:40:02Z</time>
      </trkpt>
      <trkpt lat="48.1973" lon="-3.00386">
        <ele>146</ele>
        <time>2021-08-09T12:40:03Z</time>
      </trkpt>
      <trkpt lat="48.19731" lon="-3.00383">
        <ele>146.2</ele>
        <time>2021-08-09T12:40:04Z</time>
      </trkpt>
      <trkpt lat="48.19732" lon="-3.00379">
        <ele>146.4</ele>
        <time>2021-08-09T12:40:05Z</time>
      </trkpt>
      <trkpt lat="48.19733" lon="-3.00376">
        <ele>146.6</ele>
        <time>2021-08-09T12:40:06Z</time>
      </trkpt>
      <trkpt lat="48.19734" lon="-3.00373">
        <ele>146.8</ele>
        <time>2021-08-09T12:40:07Z</time>
      </trkpt>
      <trkpt lat="48.19735" lon="-3.00369">
        <ele>147</ele>
        <time>2021-08-09T12:40:08Z</time>
      </trkpt>
      <trkpt lat="48.19736" lon="-3.00366">
        <ele>147.2</ele>
        <time>2021-08-09T12:40:09Z</time>
      </trkpt>
      <trkpt lat="48.19739" lon="-3.00359">
        <ele>147.4</ele>
        <time>2021-08-09T12:40:11Z</time>
      </trkpt>
      <trkpt lat="48.1974" lon="-3.00357">
        <ele>147.4</ele>
        <time>2021-08-09T12:40:12Z</time>
      </trkpt>
      <trkpt lat="48.19741" lon="-3.00355">
        <ele>147.6</ele>
        <time>2021-08-09T12:40:13Z</time>
      </trkpt>
      <trkpt lat="48.19743" lon="-3.00354">
        <ele>147.8</ele>
        <time>2021-08-09T12:40:14Z</time>
      </trkpt>
      <trkpt lat="48.19744" lon="-3.00352">
        <ele>148</ele>
        <time>2021-08-09T12:40:15Z</time>
      </trkpt>
      <trkpt lat="48.19744" lon="-3.0035">
        <ele>148.2</ele>
        <time>2021-08-09T12:40:16Z</time>
      </trkpt>
      <trkpt lat="48.19745" lon="-3.00347">
        <ele>148.2</ele>
        <time>2021-08-09T12:40:17Z</time>
      </trkpt>
      <trkpt lat="48.19746" lon="-3.00345">
        <ele>148.4</ele>
        <time>2021-08-09T12:40:18Z</time>
      </trkpt>
      <trkpt lat="48.19747" lon="-3.00343">
        <ele>148.6</ele>
        <time>2021-08-09T12:40:19Z</time>
      </trkpt>
      <trkpt lat="48.19749" lon="-3.0034">
        <ele>148.8</ele>
        <time>2021-08-09T12:40:20Z</time>
      </trkpt>
      <trkpt lat="48.1975" lon="-3.00338">
        <ele>149</ele>
        <time>2021-08-09T12:40:21Z</time>
      </trkpt>
      <trkpt lat="48.19751" lon="-3.00336">
        <ele>149</ele>
        <time>2021-08-09T12:40:22Z</time>
      </trkpt>
      <trkpt lat="48.19753" lon="-3.00334">
        <ele>149.2</ele>
        <time>2021-08-09T12:40:23Z</time>
      </trkpt>
      <trkpt lat="48.19755" lon="-3.00332">
        <ele>149.2</ele>
        <time>2021-08-09T12:40:24Z</time>
      </trkpt>
      <trkpt lat="48.19756" lon="-3.00329">
        <ele>149.4</ele>
        <time>2021-08-09T12:40:25Z</time>
      </trkpt>
      <trkpt lat="48.19758" lon="-3.00327">
        <ele>149.4</ele>
        <time>2021-08-09T12:40:26Z</time>
      </trkpt>
      <trkpt lat="48.1976" lon="-3.00325">
        <ele>149.6</ele>
        <time>2021-08-09T12:40:27Z</time>
      </trkpt>
      <trkpt lat="48.19761" lon="-3.00322">
        <ele>149.6</ele>
        <time>2021-08-09T12:40:28Z</time>
      </trkpt>
      <trkpt lat="48.19763" lon="-3.0032">
        <ele>149.8</ele>
        <time>2021-08-09T12:40:29Z</time>
      </trkpt>
      <trkpt lat="48.19765" lon="-3.00317">
        <ele>149.8</ele>
        <time>2021-08-09T12:40:30Z</time>
      </trkpt>
      <trkpt lat="48.19766" lon="-3.00314">
        <ele>150</ele>
        <time>2021-08-09T12:40:31Z</time>
      </trkpt>
      <trkpt lat="48.1977" lon="-3.0031">
        <ele>150</ele>
        <time>2021-08-09T12:40:33Z</time>
      </trkpt>
      <trkpt lat="48.19772" lon="-3.00307">
        <ele>150.2</ele>
        <time>2021-08-09T12:40:34Z</time>
      </trkpt>
      <trkpt lat="48.19774" lon="-3.00305">
        <ele>150.4</ele>
        <time>2021-08-09T12:40:35Z</time>
      </trkpt>
      <trkpt lat="48.19775" lon="-3.00302">
        <ele>150.6</ele>
        <time>2021-08-09T12:40:36Z</time>
      </trkpt>
      <trkpt lat="48.19777" lon="-3.003">
        <ele>150.8</ele>
        <time>2021-08-09T12:40:37Z</time>
      </trkpt>
      <trkpt lat="48.19779" lon="-3.00298">
        <ele>151</ele>
        <time>2021-08-09T12:40:38Z</time>
      </trkpt>
      <trkpt lat="48.19781" lon="-3.00296">
        <ele>151</ele>
        <time>2021-08-09T12:40:39Z</time>
      </trkpt>
      <trkpt lat="48.19783" lon="-3.00294">
        <ele>151.2</ele>
        <time>2021-08-09T12:40:40Z</time>
      </trkpt>
      <trkpt lat="48.19785" lon="-3.00292">
        <ele>151.2</ele>
        <time>2021-08-09T12:40:41Z</time>
      </trkpt>
      <trkpt lat="48.19787" lon="-3.0029">
        <ele>151.4</ele>
        <time>2021-08-09T12:40:42Z</time>
      </trkpt>
      <trkpt lat="48.19791" lon="-3.00285">
        <ele>151.6</ele>
        <time>2021-08-09T12:40:44Z</time>
      </trkpt>
      <trkpt lat="48.19793" lon="-3.00283">
        <ele>151.6</ele>
        <time>2021-08-09T12:40:45Z</time>
      </trkpt>
      <trkpt lat="48.19794" lon="-3.00281">
        <ele>151.8</ele>
        <time>2021-08-09T12:40:46Z</time>
      </trkpt>
      <trkpt lat="48.19797" lon="-3.00279">
        <ele>151.8</ele>
        <time>2021-08-09T12:40:47Z</time>
      </trkpt>
      <trkpt lat="48.19798" lon="-3.00277">
        <ele>152</ele>
        <time>2021-08-09T12:40:48Z</time>
      </trkpt>
      <trkpt lat="48.198" lon="-3.00275">
        <ele>152.4</ele>
        <time>2021-08-09T12:40:49Z</time>
      </trkpt>
      <trkpt lat="48.19802" lon="-3.00273">
        <ele>152.6</ele>
        <time>2021-08-09T12:40:50Z</time>
      </trkpt>
      <trkpt lat="48.19804" lon="-3.0027">
        <ele>152.8</ele>
        <time>2021-08-09T12:40:51Z</time>
      </trkpt>
      <trkpt lat="48.19806" lon="-3.00268">
        <ele>153</ele>
        <time>2021-08-09T12:40:52Z</time>
      </trkpt>
      <trkpt lat="48.19808" lon="-3.00266">
        <ele>153.2</ele>
        <time>2021-08-09T12:40:53Z</time>
      </trkpt>
      <trkpt lat="48.19811" lon="-3.00261">
        <ele>153.4</ele>
        <time>2021-08-09T12:40:55Z</time>
      </trkpt>
      <trkpt lat="48.19813" lon="-3.00259">
        <ele>153.4</ele>
        <time>2021-08-09T12:40:56Z</time>
      </trkpt>
      <trkpt lat="48.19815" lon="-3.00256">
        <ele>153.6</ele>
        <time>2021-08-09T12:40:57Z</time>
      </trkpt>
      <trkpt lat="48.19817" lon="-3.00254">
        <ele>153.8</ele>
        <time>2021-08-09T12:40:58Z</time>
      </trkpt>
      <trkpt lat="48.19818" lon="-3.00252">
        <ele>154</ele>
        <time>2021-08-09T12:40:59Z</time>
      </trkpt>
      <trkpt lat="48.1982" lon="-3.0025">
        <ele>154.2</ele>
        <time>2021-08-09T12:41:00Z</time>
      </trkpt>
      <trkpt lat="48.19822" lon="-3.00248">
        <ele>154.2</ele>
        <time>2021-08-09T12:41:01Z</time>
      </trkpt>
      <trkpt lat="48.19824" lon="-3.00245">
        <ele>154.4</ele>
        <time>2021-08-09T12:41:02Z</time>
      </trkpt>
      <trkpt lat="48.19826" lon="-3.00243">
        <ele>154.6</ele>
        <time>2021-08-09T12:41:03Z</time>
      </trkpt>
      <trkpt lat="48.19828" lon="-3.0024">
        <ele>154.6</ele>
        <time>2021-08-09T12:41:04Z</time>
      </trkpt>
      <trkpt lat="48.1983" lon="-3.00238">
        <ele>154.8</ele>
        <time>2021-08-09T12:41:05Z</time>
      </trkpt>
      <trkpt lat="48.19832" lon="-3.00236">
        <ele>154.8</ele>
        <time>2021-08-09T12:41:06Z</time>
      </trkpt>
      <trkpt lat="48.19833" lon="-3.00233">
        <ele>155</ele>
        <time>2021-08-09T12:41:07Z</time>
      </trkpt>
      <trkpt lat="48.19835" lon="-3.00231">
        <ele>155</ele>
        <time>2021-08-09T12:41:08Z</time>
      </trkpt>
      <trkpt lat="48.19837" lon="-3.00228">
        <ele>155.2</ele>
        <time>2021-08-09T12:41:09Z</time>
      </trkpt>
      <trkpt lat="48.19839" lon="-3.00226">
        <ele>155.4</ele>
        <time>2021-08-09T12:41:10Z</time>
      </trkpt>
      <trkpt lat="48.19841" lon="-3.00224">
        <ele>155.4</ele>
        <time>2021-08-09T12:41:11Z</time>
      </trkpt>
      <trkpt lat="48.19843" lon="-3.00222">
        <ele>155.6</ele>
        <time>2021-08-09T12:41:12Z</time>
      </trkpt>
      <trkpt lat="48.19845" lon="-3.00219">
        <ele>155.6</ele>
        <time>2021-08-09T12:41:13Z</time>
      </trkpt>
      <trkpt lat="48.19846" lon="-3.00217">
        <ele>155.8</ele>
        <time>2021-08-09T12:41:14Z</time>
      </trkpt>
      <trkpt lat="48.19848" lon="-3.00214">
        <ele>156</ele>
        <time>2021-08-09T12:41:15Z</time>
      </trkpt>
      <trkpt lat="48.19852" lon="-3.0021">
        <ele>156.2</ele>
        <time>2021-08-09T12:41:17Z</time>
      </trkpt>
      <trkpt lat="48.19854" lon="-3.00207">
        <ele>156.6</ele>
        <time>2021-08-09T12:41:18Z</time>
      </trkpt>
      <trkpt lat="48.19856" lon="-3.00205">
        <ele>156.8</ele>
        <time>2021-08-09T12:41:19Z</time>
      </trkpt>
      <trkpt lat="48.19858" lon="-3.00203">
        <ele>156.8</ele>
        <time>2021-08-09T12:41:20Z</time>
      </trkpt>
      <trkpt lat="48.1986" lon="-3.00201">
        <ele>157</ele>
        <time>2021-08-09T12:41:21Z</time>
      </trkpt>
      <trkpt lat="48.19862" lon="-3.00198">
        <ele>157</ele>
        <time>2021-08-09T12:41:22Z</time>
      </trkpt>
      <trkpt lat="48.19864" lon="-3.00196">
        <ele>157.2</ele>
        <time>2021-08-09T12:41:23Z</time>
      </trkpt>
      <trkpt lat="48.19866" lon="-3.00194">
        <ele>157.4</ele>
        <time>2021-08-09T12:41:24Z</time>
      </trkpt>
      <trkpt lat="48.19868" lon="-3.00191">
        <ele>157.6</ele>
        <time>2021-08-09T12:41:25Z</time>
      </trkpt>
      <trkpt lat="48.1987" lon="-3.00189">
        <ele>157.8</ele>
        <time>2021-08-09T12:41:26Z</time>
      </trkpt>
      <trkpt lat="48.19873" lon="-3.00185">
        <ele>158</ele>
        <time>2021-08-09T12:41:28Z</time>
      </trkpt>
      <trkpt lat="48.19875" lon="-3.00182">
        <ele>158.2</ele>
        <time>2021-08-09T12:41:29Z</time>
      </trkpt>
      <trkpt lat="48.19877" lon="-3.0018">
        <ele>158.2</ele>
        <time>2021-08-09T12:41:30Z</time>
      </trkpt>
      <trkpt lat="48.19878" lon="-3.00178">
        <ele>158.4</ele>
        <time>2021-08-09T12:41:31Z</time>
      </trkpt>
      <trkpt lat="48.1988" lon="-3.00176">
        <ele>158.4</ele>
        <time>2021-08-09T12:41:32Z</time>
      </trkpt>
      <trkpt lat="48.19881" lon="-3.00174">
        <ele>158.6</ele>
        <time>2021-08-09T12:41:33Z</time>
      </trkpt>
      <trkpt lat="48.19883" lon="-3.00172">
        <ele>158.6</ele>
        <time>2021-08-09T12:41:34Z</time>
      </trkpt>
      <trkpt lat="48.19884" lon="-3.0017">
        <ele>158.8</ele>
        <time>2021-08-09T12:41:35Z</time>
      </trkpt>
      <trkpt lat="48.19886" lon="-3.00169">
        <ele>158.8</ele>
        <time>2021-08-09T12:41:36Z</time>
      </trkpt>
      <trkpt lat="48.19889" lon="-3.00165">
        <ele>158.8</ele>
        <time>2021-08-09T12:41:38Z</time>
      </trkpt>
      <trkpt lat="48.1989" lon="-3.00163">
        <ele>158.8</ele>
        <time>2021-08-09T12:41:39Z</time>
      </trkpt>
      <trkpt lat="48.19891" lon="-3.00161">
        <ele>158.8</ele>
        <time>2021-08-09T12:41:40Z</time>
      </trkpt>
      <trkpt lat="48.19893" lon="-3.0016">
        <ele>158.8</ele>
        <time>2021-08-09T12:41:41Z</time>
      </trkpt>
      <trkpt lat="48.19894" lon="-3.00158">
        <ele>158.8</ele>
        <time>2021-08-09T12:41:42Z</time>
      </trkpt>
      <trkpt lat="48.19895" lon="-3.00156">
        <ele>158.8</ele>
        <time>2021-08-09T12:41:43Z</time>
      </trkpt>
      <trkpt lat="48.19897" lon="-3.00155">
        <ele>158.8</ele>
        <time>2021-08-09T12:41:44Z</time>
      </trkpt>
      <trkpt lat="48.19899" lon="-3.00153">
        <ele>158.8</ele>
        <time>2021-08-09T12:41:45Z</time>
      </trkpt>
      <trkpt lat="48.199" lon="-3.0015">
        <ele>158.8</ele>
        <time>2021-08-09T12:41:46Z</time>
      </trkpt>
      <trkpt lat="48.19902" lon="-3.00148">
        <ele>158.8</ele>
        <time>2021-08-09T12:41:47Z</time>
      </trkpt>
      <trkpt lat="48.19906" lon="-3.00143">
        <ele>158.8</ele>
        <time>2021-08-09T12:41:49Z</time>
      </trkpt>
      <trkpt lat="48.19908" lon="-3.00141">
        <ele>158.6</ele>
        <time>2021-08-09T12:41:50Z</time>
      </trkpt>
      <trkpt lat="48.1991" lon="-3.00139">
        <ele>158.6</ele>
        <time>2021-08-09T12:41:51Z</time>
      </trkpt>
      <trkpt lat="48.19911" lon="-3.00137">
        <ele>158.6</ele>
        <time>2021-08-09T12:41:52Z</time>
      </trkpt>
      <trkpt lat="48.19913" lon="-3.00135">
        <ele>158.6</ele>
        <time>2021-08-09T12:41:53Z</time>
      </trkpt>
      <trkpt lat="48.19914" lon="-3.00133">
        <ele>158.6</ele>
        <time>2021-08-09T12:41:54Z</time>
      </trkpt>
      <trkpt lat="48.19915" lon="-3.00132">
        <ele>158.4</ele>
        <time>2021-08-09T12:41:55Z</time>
      </trkpt>
      <trkpt lat="48.19916" lon="-3.0013">
        <ele>158.4</ele>
        <time>2021-08-09T12:41:56Z</time>
      </trkpt>
      <trkpt lat="48.19918" lon="-3.00129">
        <ele>158.4</ele>
        <time>2021-08-09T12:41:57Z</time>
      </trkpt>
      <trkpt lat="48.19919" lon="-3.00127">
        <ele>158.2</ele>
        <time>2021-08-09T12:41:58Z</time>
      </trkpt>
      <trkpt lat="48.19922" lon="-3.00123">
        <ele>158.2</ele>
        <time>2021-08-09T12:42:00Z</time>
      </trkpt>
      <trkpt lat="48.19923" lon="-3.00122">
        <ele>158.2</ele>
        <time>2021-08-09T12:42:01Z</time>
      </trkpt>
      <trkpt lat="48.19925" lon="-3.0012">
        <ele>158.2</ele>
        <time>2021-08-09T12:42:02Z</time>
      </trkpt>
      <trkpt lat="48.19926" lon="-3.00118">
        <ele>158.2</ele>
        <time>2021-08-09T12:42:03Z</time>
      </trkpt>
      <trkpt lat="48.19927" lon="-3.00117">
        <ele>158.2</ele>
        <time>2021-08-09T12:42:04Z</time>
      </trkpt>
      <trkpt lat="48.19928" lon="-3.00115">
        <ele>158.2</ele>
        <time>2021-08-09T12:42:05Z</time>
      </trkpt>
      <trkpt lat="48.1993" lon="-3.00113">
        <ele>158.2</ele>
        <time>2021-08-09T12:42:06Z</time>
      </trkpt>
      <trkpt lat="48.19931" lon="-3.00112">
        <ele>158</ele>
        <time>2021-08-09T12:42:07Z</time>
      </trkpt>
      <trkpt lat="48.19932" lon="-3.00111">
        <ele>158</ele>
        <time>2021-08-09T12:42:08Z</time>
      </trkpt>
      <trkpt lat="48.19933" lon="-3.00109">
        <ele>158</ele>
        <time>2021-08-09T12:42:09Z</time>
      </trkpt>
      <trkpt lat="48.19935" lon="-3.00107">
        <ele>158</ele>
        <time>2021-08-09T12:42:11Z</time>
      </trkpt>
      <trkpt lat="48.19936" lon="-3.00106">
        <ele>157.8</ele>
        <time>2021-08-09T12:42:12Z</time>
      </trkpt>
      <trkpt lat="48.19937" lon="-3.00105">
        <ele>157.8</ele>
        <time>2021-08-09T12:42:13Z</time>
      </trkpt>
      <trkpt lat="48.19938" lon="-3.00104">
        <ele>157.8</ele>
        <time>2021-08-09T12:42:14Z</time>
      </trkpt>
      <trkpt lat="48.19938" lon="-3.00103">
        <ele>157.8</ele>
        <time>2021-08-09T12:42:15Z</time>
      </trkpt>
      <trkpt lat="48.19939" lon="-3.00102">
        <ele>157.8</ele>
        <time>2021-08-09T12:42:16Z</time>
      </trkpt>
      <trkpt lat="48.1994" lon="-3.00101">
        <ele>157.8</ele>
        <time>2021-08-09T12:42:17Z</time>
      </trkpt>
      <trkpt lat="48.19941" lon="-3.001">
        <ele>157.6</ele>
        <time>2021-08-09T12:42:18Z</time>
      </trkpt>
      <trkpt lat="48.19948" lon="-3.00098">
        <ele>157.6</ele>
        <time>2021-08-09T12:42:24Z</time>
      </trkpt>
      <trkpt lat="48.1995" lon="-3.00099">
        <ele>157.6</ele>
        <time>2021-08-09T12:42:25Z</time>
      </trkpt>
      <trkpt lat="48.19951" lon="-3.00101">
        <ele>157.6</ele>
        <time>2021-08-09T12:42:26Z</time>
      </trkpt>
      <trkpt lat="48.19953" lon="-3.001">
        <ele>157.6</ele>
        <time>2021-08-09T12:42:27Z</time>
      </trkpt>
      <trkpt lat="48.19955" lon="-3.00099">
        <ele>157.6</ele>
        <time>2021-08-09T12:42:28Z</time>
      </trkpt>
      <trkpt lat="48.19956" lon="-3.00098">
        <ele>157.6</ele>
        <time>2021-08-09T12:42:29Z</time>
      </trkpt>
      <trkpt lat="48.19956" lon="-3.00093">
        <ele>157.6</ele>
        <time>2021-08-09T12:42:31Z</time>
      </trkpt>
      <trkpt lat="48.19955" lon="-3.00094">
        <ele>157.4</ele>
        <time>2021-08-09T12:42:32Z</time>
      </trkpt>
      <trkpt lat="48.19953" lon="-3.00096">
        <ele>157.4</ele>
        <time>2021-08-09T12:42:33Z</time>
      </trkpt>
      <trkpt lat="48.19951" lon="-3.00099">
        <ele>157.4</ele>
        <time>2021-08-09T12:42:34Z</time>
      </trkpt>
      <trkpt lat="48.19949" lon="-3.00102">
        <ele>157.4</ele>
        <time>2021-08-09T12:42:35Z</time>
      </trkpt>
      <trkpt lat="48.19946" lon="-3.00105">
        <ele>157.4</ele>
        <time>2021-08-09T12:42:36Z</time>
      </trkpt>
      <trkpt lat="48.19943" lon="-3.00109">
        <ele>157.4</ele>
        <time>2021-08-09T12:42:37Z</time>
      </trkpt>
      <trkpt lat="48.1994" lon="-3.00113">
        <ele>157.4</ele>
        <time>2021-08-09T12:42:38Z</time>
      </trkpt>
      <trkpt lat="48.19937" lon="-3.00117">
        <ele>157.2</ele>
        <time>2021-08-09T12:42:39Z</time>
      </trkpt>
      <trkpt lat="48.19934" lon="-3.00121">
        <ele>157.2</ele>
        <time>2021-08-09T12:42:40Z</time>
      </trkpt>
      <trkpt lat="48.19928" lon="-3.00129">
        <ele>157</ele>
        <time>2021-08-09T12:42:42Z</time>
      </trkpt>
      <trkpt lat="48.19924" lon="-3.00133">
        <ele>156.8</ele>
        <time>2021-08-09T12:42:43Z</time>
      </trkpt>
      <trkpt lat="48.19921" lon="-3.00137">
        <ele>156.6</ele>
        <time>2021-08-09T12:42:44Z</time>
      </trkpt>
      <trkpt lat="48.19918" lon="-3.00141">
        <ele>156.2</ele>
        <time>2021-08-09T12:42:45Z</time>
      </trkpt>
      <trkpt lat="48.19915" lon="-3.00146">
        <ele>156</ele>
        <time>2021-08-09T12:42:46Z</time>
      </trkpt>
      <trkpt lat="48.19912" lon="-3.0015">
        <ele>156</ele>
        <time>2021-08-09T12:42:47Z</time>
      </trkpt>
      <trkpt lat="48.19908" lon="-3.00153">
        <ele>156</ele>
        <time>2021-08-09T12:42:48Z</time>
      </trkpt>
      <trkpt lat="48.19905" lon="-3.00157">
        <ele>156</ele>
        <time>2021-08-09T12:42:49Z</time>
      </trkpt>
      <trkpt lat="48.19902" lon="-3.00161">
        <ele>156</ele>
        <time>2021-08-09T12:42:50Z</time>
      </trkpt>
      <trkpt lat="48.19899" lon="-3.00165">
        <ele>156</ele>
        <time>2021-08-09T12:42:51Z</time>
      </trkpt>
      <trkpt lat="48.19896" lon="-3.00169">
        <ele>156</ele>
        <time>2021-08-09T12:42:52Z</time>
      </trkpt>
      <trkpt lat="48.19892" lon="-3.00174">
        <ele>156</ele>
        <time>2021-08-09T12:42:53Z</time>
      </trkpt>
      <trkpt lat="48.19889" lon="-3.00178">
        <ele>156</ele>
        <time>2021-08-09T12:42:54Z</time>
      </trkpt>
      <trkpt lat="48.19885" lon="-3.00182">
        <ele>156</ele>
        <time>2021-08-09T12:42:55Z</time>
      </trkpt>
      <trkpt lat="48.19882" lon="-3.00186">
        <ele>156</ele>
        <time>2021-08-09T12:42:56Z</time>
      </trkpt>
      <trkpt lat="48.19878" lon="-3.0019">
        <ele>156</ele>
        <time>2021-08-09T12:42:57Z</time>
      </trkpt>
      <trkpt lat="48.19874" lon="-3.00194">
        <ele>156</ele>
        <time>2021-08-09T12:42:58Z</time>
      </trkpt>
      <trkpt lat="48.19871" lon="-3.00199">
        <ele>156</ele>
        <time>2021-08-09T12:42:59Z</time>
      </trkpt>
      <trkpt lat="48.19867" lon="-3.00204">
        <ele>156</ele>
        <time>2021-08-09T12:43:00Z</time>
      </trkpt>
      <trkpt lat="48.19863" lon="-3.00209">
        <ele>156</ele>
        <time>2021-08-09T12:43:01Z</time>
      </trkpt>
      <trkpt lat="48.19859" lon="-3.00214">
        <ele>156</ele>
        <time>2021-08-09T12:43:02Z</time>
      </trkpt>
      <trkpt lat="48.1985" lon="-3.00224">
        <ele>156</ele>
        <time>2021-08-09T12:43:04Z</time>
      </trkpt>
      <trkpt lat="48.19846" lon="-3.0023">
        <ele>156</ele>
        <time>2021-08-09T12:43:05Z</time>
      </trkpt>
      <trkpt lat="48.19841" lon="-3.00236">
        <ele>156</ele>
        <time>2021-08-09T12:43:06Z</time>
      </trkpt>
      <trkpt lat="48.19836" lon="-3.00242">
        <ele>156</ele>
        <time>2021-08-09T12:43:07Z</time>
      </trkpt>
      <trkpt lat="48.1983" lon="-3.00248">
        <ele>156</ele>
        <time>2021-08-09T12:43:08Z</time>
      </trkpt>
      <trkpt lat="48.19825" lon="-3.00255">
        <ele>156</ele>
        <time>2021-08-09T12:43:09Z</time>
      </trkpt>
      <trkpt lat="48.1982" lon="-3.00262">
        <ele>155.8</ele>
        <time>2021-08-09T12:43:10Z</time>
      </trkpt>
      <trkpt lat="48.19814" lon="-3.00269">
        <ele>155.6</ele>
        <time>2021-08-09T12:43:11Z</time>
      </trkpt>
      <trkpt lat="48.19808" lon="-3.00275">
        <ele>155.4</ele>
        <time>2021-08-09T12:43:12Z</time>
      </trkpt>
      <trkpt lat="48.19802" lon="-3.00282">
        <ele>154.8</ele>
        <time>2021-08-09T12:43:13Z</time>
      </trkpt>
      <trkpt lat="48.19796" lon="-3.00289">
        <ele>153.2</ele>
        <time>2021-08-09T12:43:14Z</time>
      </trkpt>
      <trkpt lat="48.1979" lon="-3.00295">
        <ele>152.8</ele>
        <time>2021-08-09T12:43:15Z</time>
      </trkpt>
      <trkpt lat="48.19783" lon="-3.00302">
        <ele>152.6</ele>
        <time>2021-08-09T12:43:16Z</time>
      </trkpt>
      <trkpt lat="48.19777" lon="-3.00309">
        <ele>151.8</ele>
        <time>2021-08-09T12:43:17Z</time>
      </trkpt>
      <trkpt lat="48.19771" lon="-3.00317">
        <ele>150.8</ele>
        <time>2021-08-09T12:43:18Z</time>
      </trkpt>
      <trkpt lat="48.19765" lon="-3.00325">
        <ele>150.2</ele>
        <time>2021-08-09T12:43:19Z</time>
      </trkpt>
      <trkpt lat="48.19759" lon="-3.00334">
        <ele>149.6</ele>
        <time>2021-08-09T12:43:20Z</time>
      </trkpt>
      <trkpt lat="48.19753" lon="-3.00344">
        <ele>149.2</ele>
        <time>2021-08-09T12:43:21Z</time>
      </trkpt>
      <trkpt lat="48.19748" lon="-3.00355">
        <ele>148.4</ele>
        <time>2021-08-09T12:43:22Z</time>
      </trkpt>
      <trkpt lat="48.19744" lon="-3.00366">
        <ele>147.6</ele>
        <time>2021-08-09T12:43:23Z</time>
      </trkpt>
      <trkpt lat="48.19739" lon="-3.00379">
        <ele>147.2</ele>
        <time>2021-08-09T12:43:24Z</time>
      </trkpt>
      <trkpt lat="48.19733" lon="-3.00405">
        <ele>146.8</ele>
        <time>2021-08-09T12:43:26Z</time>
      </trkpt>
      <trkpt lat="48.19731" lon="-3.00418">
        <ele>146.6</ele>
        <time>2021-08-09T12:43:27Z</time>
      </trkpt>
      <trkpt lat="48.19729" lon="-3.00432">
        <ele>146.4</ele>
        <time>2021-08-09T12:43:28Z</time>
      </trkpt>
      <trkpt lat="48.19728" lon="-3.00446">
        <ele>145.6</ele>
        <time>2021-08-09T12:43:29Z</time>
      </trkpt>
      <trkpt lat="48.19727" lon="-3.00461">
        <ele>144.8</ele>
        <time>2021-08-09T12:43:30Z</time>
      </trkpt>
      <trkpt lat="48.19726" lon="-3.00475">
        <ele>144</ele>
        <time>2021-08-09T12:43:31Z</time>
      </trkpt>
      <trkpt lat="48.19724" lon="-3.00488">
        <ele>143.2</ele>
        <time>2021-08-09T12:43:32Z</time>
      </trkpt>
      <trkpt lat="48.19723" lon="-3.00502">
        <ele>142.4</ele>
        <time>2021-08-09T12:43:33Z</time>
      </trkpt>
      <trkpt lat="48.19722" lon="-3.00516">
        <ele>141.6</ele>
        <time>2021-08-09T12:43:34Z</time>
      </trkpt>
      <trkpt lat="48.19721" lon="-3.00529">
        <ele>140.8</ele>
        <time>2021-08-09T12:43:35Z</time>
      </trkpt>
      <trkpt lat="48.19719" lon="-3.00555">
        <ele>139.8</ele>
        <time>2021-08-09T12:43:37Z</time>
      </trkpt>
      <trkpt lat="48.19717" lon="-3.00568">
        <ele>139.6</ele>
        <time>2021-08-09T12:43:38Z</time>
      </trkpt>
      <trkpt lat="48.19716" lon="-3.0058">
        <ele>139.4</ele>
        <time>2021-08-09T12:43:39Z</time>
      </trkpt>
      <trkpt lat="48.19715" lon="-3.00593">
        <ele>139.4</ele>
        <time>2021-08-09T12:43:40Z</time>
      </trkpt>
      <trkpt lat="48.19714" lon="-3.00605">
        <ele>139.2</ele>
        <time>2021-08-09T12:43:41Z</time>
      </trkpt>
      <trkpt lat="48.19713" lon="-3.00617">
        <ele>139.2</ele>
        <time>2021-08-09T12:43:42Z</time>
      </trkpt>
      <trkpt lat="48.19712" lon="-3.00628">
        <ele>139</ele>
        <time>2021-08-09T12:43:43Z</time>
      </trkpt>
      <trkpt lat="48.1971" lon="-3.00639">
        <ele>139</ele>
        <time>2021-08-09T12:43:44Z</time>
      </trkpt>
      <trkpt lat="48.19707" lon="-3.00648">
        <ele>138.8</ele>
        <time>2021-08-09T12:43:45Z</time>
      </trkpt>
      <trkpt lat="48.19702" lon="-3.00655">
        <ele>138.8</ele>
        <time>2021-08-09T12:43:46Z</time>
      </trkpt>
      <trkpt lat="48.19697" lon="-3.00661">
        <ele>138.8</ele>
        <time>2021-08-09T12:43:47Z</time>
      </trkpt>
      <trkpt lat="48.19692" lon="-3.00665">
        <ele>138.8</ele>
        <time>2021-08-09T12:43:48Z</time>
      </trkpt>
      <trkpt lat="48.19688" lon="-3.00668">
        <ele>138.8</ele>
        <time>2021-08-09T12:43:49Z</time>
      </trkpt>
      <trkpt lat="48.19684" lon="-3.00672">
        <ele>139</ele>
        <time>2021-08-09T12:43:50Z</time>
      </trkpt>
      <trkpt lat="48.1968" lon="-3.00676">
        <ele>139</ele>
        <time>2021-08-09T12:43:51Z</time>
      </trkpt>
      <trkpt lat="48.19676" lon="-3.00679">
        <ele>139</ele>
        <time>2021-08-09T12:43:52Z</time>
      </trkpt>
      <trkpt lat="48.19673" lon="-3.00682">
        <ele>139</ele>
        <time>2021-08-09T12:43:53Z</time>
      </trkpt>
      <trkpt lat="48.19669" lon="-3.00685">
        <ele>139</ele>
        <time>2021-08-09T12:43:54Z</time>
      </trkpt>
      <trkpt lat="48.19666" lon="-3.00688">
        <ele>139.6</ele>
        <time>2021-08-09T12:43:55Z</time>
      </trkpt>
      <trkpt lat="48.19663" lon="-3.00692">
        <ele>140.2</ele>
        <time>2021-08-09T12:43:56Z</time>
      </trkpt>
      <trkpt lat="48.1966" lon="-3.00695">
        <ele>141</ele>
        <time>2021-08-09T12:43:57Z</time>
      </trkpt>
      <trkpt lat="48.19654" lon="-3.007">
        <ele>142</ele>
        <time>2021-08-09T12:43:59Z</time>
      </trkpt>
      <trkpt lat="48.19651" lon="-3.00703">
        <ele>142.6</ele>
        <time>2021-08-09T12:44:00Z</time>
      </trkpt>
      <trkpt lat="48.19648" lon="-3.00705">
        <ele>143.2</ele>
        <time>2021-08-09T12:44:01Z</time>
      </trkpt>
      <trkpt lat="48.19645" lon="-3.00708">
        <ele>143.6</ele>
        <time>2021-08-09T12:44:02Z</time>
      </trkpt>
      <trkpt lat="48.19642" lon="-3.0071">
        <ele>144</ele>
        <time>2021-08-09T12:44:03Z</time>
      </trkpt>
      <trkpt lat="48.19639" lon="-3.00712">
        <ele>144.4</ele>
        <time>2021-08-09T12:44:04Z</time>
      </trkpt>
      <trkpt lat="48.19636" lon="-3.00714">
        <ele>144.8</ele>
        <time>2021-08-09T12:44:05Z</time>
      </trkpt>
      <trkpt lat="48.19634" lon="-3.00717">
        <ele>145</ele>
        <time>2021-08-09T12:44:06Z</time>
      </trkpt>
      <trkpt lat="48.19631" lon="-3.00719">
        <ele>145.2</ele>
        <time>2021-08-09T12:44:07Z</time>
      </trkpt>
      <trkpt lat="48.19629" lon="-3.0072">
        <ele>145.6</ele>
        <time>2021-08-09T12:44:08Z</time>
      </trkpt>
      <trkpt lat="48.19624" lon="-3.00724">
        <ele>146</ele>
        <time>2021-08-09T12:44:10Z</time>
      </trkpt>
      <trkpt lat="48.19622" lon="-3.00726">
        <ele>146.2</ele>
        <time>2021-08-09T12:44:11Z</time>
      </trkpt>
      <trkpt lat="48.19621" lon="-3.00728">
        <ele>146.4</ele>
        <time>2021-08-09T12:44:12Z</time>
      </trkpt>
      <trkpt lat="48.19619" lon="-3.0073">
        <ele>146.6</ele>
        <time>2021-08-09T12:44:13Z</time>
      </trkpt>
      <trkpt lat="48.19618" lon="-3.00733">
        <ele>146.8</ele>
        <time>2021-08-09T12:44:14Z</time>
      </trkpt>
      <trkpt lat="48.19617" lon="-3.00735">
        <ele>147</ele>
        <time>2021-08-09T12:44:15Z</time>
      </trkpt>
      <trkpt lat="48.19616" lon="-3.00738">
        <ele>147.4</ele>
        <time>2021-08-09T12:44:16Z</time>
      </trkpt>
      <trkpt lat="48.19614" lon="-3.0074">
        <ele>147.6</ele>
        <time>2021-08-09T12:44:17Z</time>
      </trkpt>
      <trkpt lat="48.19613" lon="-3.00743">
        <ele>148</ele>
        <time>2021-08-09T12:44:18Z</time>
      </trkpt>
      <trkpt lat="48.19612" lon="-3.00745">
        <ele>148.4</ele>
        <time>2021-08-09T12:44:19Z</time>
      </trkpt>
      <trkpt lat="48.1961" lon="-3.0075">
        <ele>148.8</ele>
        <time>2021-08-09T12:44:21Z</time>
      </trkpt>
      <trkpt lat="48.19609" lon="-3.00753">
        <ele>149</ele>
        <time>2021-08-09T12:44:22Z</time>
      </trkpt>
      <trkpt lat="48.19609" lon="-3.00755">
        <ele>149.2</ele>
        <time>2021-08-09T12:44:23Z</time>
      </trkpt>
      <trkpt lat="48.19608" lon="-3.00758">
        <ele>149.4</ele>
        <time>2021-08-09T12:44:24Z</time>
      </trkpt>
      <trkpt lat="48.19607" lon="-3.00761">
        <ele>149.6</ele>
        <time>2021-08-09T12:44:25Z</time>
      </trkpt>
      <trkpt lat="48.19607" lon="-3.00764">
        <ele>150</ele>
        <time>2021-08-09T12:44:26Z</time>
      </trkpt>
      <trkpt lat="48.19606" lon="-3.00767">
        <ele>150</ele>
        <time>2021-08-09T12:44:27Z</time>
      </trkpt>
      <trkpt lat="48.19605" lon="-3.00769">
        <ele>150.2</ele>
        <time>2021-08-09T12:44:28Z</time>
      </trkpt>
      <trkpt lat="48.19604" lon="-3.00771">
        <ele>150.2</ele>
        <time>2021-08-09T12:44:29Z</time>
      </trkpt>
      <trkpt lat="48.19604" lon="-3.00773">
        <ele>150.4</ele>
        <time>2021-08-09T12:44:30Z</time>
      </trkpt>
      <trkpt lat="48.19603" lon="-3.00774">
        <ele>150.4</ele>
        <time>2021-08-09T12:44:31Z</time>
      </trkpt>
      <trkpt lat="48.19602" lon="-3.00775">
        <ele>150.6</ele>
        <time>2021-08-09T12:44:32Z</time>
      </trkpt>
      <trkpt lat="48.19601" lon="-3.00774">
        <ele>150.6</ele>
        <time>2021-08-09T12:44:33Z</time>
      </trkpt>
      <trkpt lat="48.19601" lon="-3.00772">
        <ele>150.8</ele>
        <time>2021-08-09T12:44:34Z</time>
      </trkpt>
      <trkpt lat="48.19602" lon="-3.00769">
        <ele>151</ele>
        <time>2021-08-09T12:44:35Z</time>
      </trkpt>
      <trkpt lat="48.19602" lon="-3.00767">
        <ele>151.4</ele>
        <time>2021-08-09T12:44:36Z</time>
      </trkpt>
      <trkpt lat="48.19602" lon="-3.00765">
        <ele>151.4</ele>
        <time>2021-08-09T12:44:37Z</time>
      </trkpt>
      <trkpt lat="48.19602" lon="-3.00765">
        <ele>151.6</ele>
        <time>2021-08-09T12:44:38Z</time>
      </trkpt>
      <trkpt lat="48.19601" lon="-3.00763">
        <ele>152.4</ele>
        <time>2021-08-09T12:44:54Z</time>
      </trkpt>
      <trkpt lat="48.19601" lon="-3.00761">
        <ele>152.2</ele>
        <time>2021-08-09T12:44:55Z</time>
      </trkpt>
      <trkpt lat="48.19602" lon="-3.00759">
        <ele>152.2</ele>
        <time>2021-08-09T12:44:56Z</time>
      </trkpt>
      <trkpt lat="48.19602" lon="-3.00756">
        <ele>152.2</ele>
        <time>2021-08-09T12:44:57Z</time>
      </trkpt>
      <trkpt lat="48.19603" lon="-3.00753">
        <ele>152.2</ele>
        <time>2021-08-09T12:44:58Z</time>
      </trkpt>
      <trkpt lat="48.19604" lon="-3.0075">
        <ele>152.2</ele>
        <time>2021-08-09T12:44:59Z</time>
      </trkpt>
      <trkpt lat="48.19605" lon="-3.00748">
        <ele>152.2</ele>
        <time>2021-08-09T12:45:00Z</time>
      </trkpt>
      <trkpt lat="48.19606" lon="-3.00746">
        <ele>152</ele>
        <time>2021-08-09T12:45:01Z</time>
      </trkpt>
      <trkpt lat="48.19606" lon="-3.00744">
        <ele>152</ele>
        <time>2021-08-09T12:45:02Z</time>
      </trkpt>
      <trkpt lat="48.19607" lon="-3.00741">
        <ele>152</ele>
        <time>2021-08-09T12:45:03Z</time>
      </trkpt>
      <trkpt lat="48.19607" lon="-3.00738">
        <ele>152</ele>
        <time>2021-08-09T12:45:04Z</time>
      </trkpt>
      <trkpt lat="48.19608" lon="-3.00736">
        <ele>152</ele>
        <time>2021-08-09T12:45:05Z</time>
      </trkpt>
      <trkpt lat="48.19609" lon="-3.00733">
        <ele>151.8</ele>
        <time>2021-08-09T12:45:06Z</time>
      </trkpt>
      <trkpt lat="48.1961" lon="-3.0073">
        <ele>151.8</ele>
        <time>2021-08-09T12:45:07Z</time>
      </trkpt>
      <trkpt lat="48.19612" lon="-3.00728">
        <ele>151.6</ele>
        <time>2021-08-09T12:45:08Z</time>
      </trkpt>
      <trkpt lat="48.19613" lon="-3.00726">
        <ele>151.4</ele>
        <time>2021-08-09T12:45:09Z</time>
      </trkpt>
      <trkpt lat="48.19614" lon="-3.00724">
        <ele>151.4</ele>
        <time>2021-08-09T12:45:10Z</time>
      </trkpt>
      <trkpt lat="48.19615" lon="-3.00721">
        <ele>151.2</ele>
        <time>2021-08-09T12:45:11Z</time>
      </trkpt>
      <trkpt lat="48.19616" lon="-3.00719">
        <ele>151</ele>
        <time>2021-08-09T12:45:12Z</time>
      </trkpt>
      <trkpt lat="48.19616" lon="-3.00717">
        <ele>151</ele>
        <time>2021-08-09T12:45:13Z</time>
      </trkpt>
      <trkpt lat="48.19617" lon="-3.00715">
        <ele>150.8</ele>
        <time>2021-08-09T12:45:14Z</time>
      </trkpt>
      <trkpt lat="48.19617" lon="-3.00714">
        <ele>150.8</ele>
        <time>2021-08-09T12:45:15Z</time>
      </trkpt>
      <trkpt lat="48.19617" lon="-3.00712">
        <ele>150.6</ele>
        <time>2021-08-09T12:45:16Z</time>
      </trkpt>
      <trkpt lat="48.19617" lon="-3.00711">
        <ele>150.4</ele>
        <time>2021-08-09T12:45:17Z</time>
      </trkpt>
      <trkpt lat="48.19617" lon="-3.00709">
        <ele>150.2</ele>
        <time>2021-08-09T12:45:18Z</time>
      </trkpt>
      <trkpt lat="48.19618" lon="-3.00708">
        <ele>150</ele>
        <time>2021-08-09T12:45:19Z</time>
      </trkpt>
      <trkpt lat="48.19618" lon="-3.00706">
        <ele>149.8</ele>
        <time>2021-08-09T12:45:20Z</time>
      </trkpt>
      <trkpt lat="48.19618" lon="-3.00704">
        <ele>149.6</ele>
        <time>2021-08-09T12:45:21Z</time>
      </trkpt>
      <trkpt lat="48.19619" lon="-3.00698">
        <ele>149.4</ele>
        <time>2021-08-09T12:45:24Z</time>
      </trkpt>
      <trkpt lat="48.19619" lon="-3.00695">
        <ele>149.2</ele>
        <time>2021-08-09T12:45:25Z</time>
      </trkpt>
      <trkpt lat="48.19619" lon="-3.00692">
        <ele>149.2</ele>
        <time>2021-08-09T12:45:26Z</time>
      </trkpt>
      <trkpt lat="48.19619" lon="-3.00688">
        <ele>149.2</ele>
        <time>2021-08-09T12:45:27Z</time>
      </trkpt>
      <trkpt lat="48.19619" lon="-3.00681">
        <ele>148.8</ele>
        <time>2021-08-09T12:45:29Z</time>
      </trkpt>
      <trkpt lat="48.19618" lon="-3.00677">
        <ele>148.8</ele>
        <time>2021-08-09T12:45:30Z</time>
      </trkpt>
      <trkpt lat="48.19617" lon="-3.00672">
        <ele>148.8</ele>
        <time>2021-08-09T12:45:31Z</time>
      </trkpt>
      <trkpt lat="48.19616" lon="-3.00667">
        <ele>148.6</ele>
        <time>2021-08-09T12:45:32Z</time>
      </trkpt>
      <trkpt lat="48.19614" lon="-3.00661">
        <ele>148.4</ele>
        <time>2021-08-09T12:45:33Z</time>
      </trkpt>
      <trkpt lat="48.19612" lon="-3.00655">
        <ele>148.2</ele>
        <time>2021-08-09T12:45:34Z</time>
      </trkpt>
      <trkpt lat="48.1961" lon="-3.00648">
        <ele>148</ele>
        <time>2021-08-09T12:45:35Z</time>
      </trkpt>
      <trkpt lat="48.19608" lon="-3.00642">
        <ele>147.8</ele>
        <time>2021-08-09T12:45:36Z</time>
      </trkpt>
      <trkpt lat="48.19604" lon="-3.00628">
        <ele>147.2</ele>
        <time>2021-08-09T12:45:38Z</time>
      </trkpt>
      <trkpt lat="48.19601" lon="-3.00621">
        <ele>147</ele>
        <time>2021-08-09T12:45:39Z</time>
      </trkpt>
      <trkpt lat="48.19599" lon="-3.00613">
        <ele>146.4</ele>
        <time>2021-08-09T12:45:40Z</time>
      </trkpt>
      <trkpt lat="48.19598" lon="-3.00605">
        <ele>146</ele>
        <time>2021-08-09T12:45:41Z</time>
      </trkpt>
      <trkpt lat="48.19599" lon="-3.00597">
        <ele>145.4</ele>
        <time>2021-08-09T12:45:42Z</time>
      </trkpt>
      <trkpt lat="48.19602" lon="-3.0059">
        <ele>144.8</ele>
        <time>2021-08-09T12:45:43Z</time>
      </trkpt>
      <trkpt lat="48.19606" lon="-3.00583">
        <ele>144.2</ele>
        <time>2021-08-09T12:45:44Z</time>
      </trkpt>
      <trkpt lat="48.1961" lon="-3.00577">
        <ele>143.6</ele>
        <time>2021-08-09T12:45:45Z</time>
      </trkpt>
      <trkpt lat="48.19615" lon="-3.0057">
        <ele>143.2</ele>
        <time>2021-08-09T12:45:46Z</time>
      </trkpt>
      <trkpt lat="48.19619" lon="-3.00564">
        <ele>142.6</ele>
        <time>2021-08-09T12:45:47Z</time>
      </trkpt>
      <trkpt lat="48.19624" lon="-3.00557">
        <ele>141.8</ele>
        <time>2021-08-09T12:45:48Z</time>
      </trkpt>
      <trkpt lat="48.19628" lon="-3.0055">
        <ele>141.2</ele>
        <time>2021-08-09T12:45:49Z</time>
      </trkpt>
      <trkpt lat="48.19633" lon="-3.00542">
        <ele>140.8</ele>
        <time>2021-08-09T12:45:50Z</time>
      </trkpt>
      <trkpt lat="48.19637" lon="-3.00535">
        <ele>140.6</ele>
        <time>2021-08-09T12:45:51Z</time>
      </trkpt>
      <trkpt lat="48.19641" lon="-3.00528">
        <ele>140.2</ele>
        <time>2021-08-09T12:45:52Z</time>
      </trkpt>
      <trkpt lat="48.19645" lon="-3.00521">
        <ele>140</ele>
        <time>2021-08-09T12:45:53Z</time>
      </trkpt>
      <trkpt lat="48.19648" lon="-3.00515">
        <ele>139.6</ele>
        <time>2021-08-09T12:45:54Z</time>
      </trkpt>
      <trkpt lat="48.19652" lon="-3.00508">
        <ele>139.4</ele>
        <time>2021-08-09T12:45:55Z</time>
      </trkpt>
      <trkpt lat="48.19655" lon="-3.00502">
        <ele>139.2</ele>
        <time>2021-08-09T12:45:56Z</time>
      </trkpt>
      <trkpt lat="48.19658" lon="-3.00496">
        <ele>138.8</ele>
        <time>2021-08-09T12:45:57Z</time>
      </trkpt>
      <trkpt lat="48.19664" lon="-3.00484">
        <ele>138.8</ele>
        <time>2021-08-09T12:45:59Z</time>
      </trkpt>
      <trkpt lat="48.19667" lon="-3.00478">
        <ele>138.8</ele>
        <time>2021-08-09T12:46:00Z</time>
      </trkpt>
      <trkpt lat="48.19669" lon="-3.00472">
        <ele>138.8</ele>
        <time>2021-08-09T12:46:01Z</time>
      </trkpt>
      <trkpt lat="48.19672" lon="-3.00466">
        <ele>138.8</ele>
        <time>2021-08-09T12:46:02Z</time>
      </trkpt>
      <trkpt lat="48.19675" lon="-3.0046">
        <ele>138.8</ele>
        <time>2021-08-09T12:46:03Z</time>
      </trkpt>
      <trkpt lat="48.19678" lon="-3.00455">
        <ele>138.8</ele>
        <time>2021-08-09T12:46:04Z</time>
      </trkpt>
      <trkpt lat="48.1968" lon="-3.0045">
        <ele>138.8</ele>
        <time>2021-08-09T12:46:05Z</time>
      </trkpt>
      <trkpt lat="48.19683" lon="-3.00446">
        <ele>138.8</ele>
        <time>2021-08-09T12:46:06Z</time>
      </trkpt>
      <trkpt lat="48.19685" lon="-3.00441">
        <ele>139</ele>
        <time>2021-08-09T12:46:07Z</time>
      </trkpt>
      <trkpt lat="48.19687" lon="-3.00437">
        <ele>139</ele>
        <time>2021-08-09T12:46:08Z</time>
      </trkpt>
      <trkpt lat="48.19692" lon="-3.00429">
        <ele>139.6</ele>
        <time>2021-08-09T12:46:10Z</time>
      </trkpt>
      <trkpt lat="48.19694" lon="-3.00425">
        <ele>139.8</ele>
        <time>2021-08-09T12:46:11Z</time>
      </trkpt>
      <trkpt lat="48.19696" lon="-3.0042">
        <ele>140.2</ele>
        <time>2021-08-09T12:46:12Z</time>
      </trkpt>
      <trkpt lat="48.19699" lon="-3.00416">
        <ele>140.6</ele>
        <time>2021-08-09T12:46:13Z</time>
      </trkpt>
      <trkpt lat="48.19702" lon="-3.00412">
        <ele>141</ele>
        <time>2021-08-09T12:46:14Z</time>
      </trkpt>
      <trkpt lat="48.19704" lon="-3.00408">
        <ele>141.4</ele>
        <time>2021-08-09T12:46:15Z</time>
      </trkpt>
      <trkpt lat="48.19706" lon="-3.00404">
        <ele>141.8</ele>
        <time>2021-08-09T12:46:16Z</time>
      </trkpt>
      <trkpt lat="48.19709" lon="-3.004">
        <ele>142.2</ele>
        <time>2021-08-09T12:46:17Z</time>
      </trkpt>
      <trkpt lat="48.19711" lon="-3.00397">
        <ele>142.8</ele>
        <time>2021-08-09T12:46:18Z</time>
      </trkpt>
      <trkpt lat="48.19713" lon="-3.00393">
        <ele>143</ele>
        <time>2021-08-09T12:46:19Z</time>
      </trkpt>
      <trkpt lat="48.19717" lon="-3.00385">
        <ele>143.4</ele>
        <time>2021-08-09T12:46:21Z</time>
      </trkpt>
      <trkpt lat="48.19718" lon="-3.0038">
        <ele>143.8</ele>
        <time>2021-08-09T12:46:22Z</time>
      </trkpt>
      <trkpt lat="48.19718" lon="-3.00375">
        <ele>144</ele>
        <time>2021-08-09T12:46:23Z</time>
      </trkpt>
      <trkpt lat="48.19719" lon="-3.00369">
        <ele>144.4</ele>
        <time>2021-08-09T12:46:24Z</time>
      </trkpt>
      <trkpt lat="48.1972" lon="-3.00363">
        <ele>144.6</ele>
        <time>2021-08-09T12:46:25Z</time>
      </trkpt>
      <trkpt lat="48.1972" lon="-3.00357">
        <ele>144.8</ele>
        <time>2021-08-09T12:46:26Z</time>
      </trkpt>
      <trkpt lat="48.19721" lon="-3.00351">
        <ele>145</ele>
        <time>2021-08-09T12:46:27Z</time>
      </trkpt>
      <trkpt lat="48.19721" lon="-3.00345">
        <ele>145</ele>
        <time>2021-08-09T12:46:28Z</time>
      </trkpt>
      <trkpt lat="48.19722" lon="-3.00338">
        <ele>145</ele>
        <time>2021-08-09T12:46:29Z</time>
      </trkpt>
      <trkpt lat="48.19722" lon="-3.0033">
        <ele>145.2</ele>
        <time>2021-08-09T12:46:30Z</time>
      </trkpt>
      <trkpt lat="48.19724" lon="-3.00315">
        <ele>145.2</ele>
        <time>2021-08-09T12:46:32Z</time>
      </trkpt>
      <trkpt lat="48.19725" lon="-3.00308">
        <ele>145.2</ele>
        <time>2021-08-09T12:46:33Z</time>
      </trkpt>
      <trkpt lat="48.19726" lon="-3.003">
        <ele>145.2</ele>
        <time>2021-08-09T12:46:34Z</time>
      </trkpt>
      <trkpt lat="48.19727" lon="-3.00293">
        <ele>145.2</ele>
        <time>2021-08-09T12:46:35Z</time>
      </trkpt>
      <trkpt lat="48.19728" lon="-3.00285">
        <ele>145.2</ele>
        <time>2021-08-09T12:46:36Z</time>
      </trkpt>
      <trkpt lat="48.19728" lon="-3.00278">
        <ele>145</ele>
        <time>2021-08-09T12:46:37Z</time>
      </trkpt>
      <trkpt lat="48.19729" lon="-3.00271">
        <ele>144.8</ele>
        <time>2021-08-09T12:46:38Z</time>
      </trkpt>
      <trkpt lat="48.1973" lon="-3.00263">
        <ele>144.4</ele>
        <time>2021-08-09T12:46:39Z</time>
      </trkpt>
      <trkpt lat="48.19731" lon="-3.00257">
        <ele>144.4</ele>
        <time>2021-08-09T12:46:40Z</time>
      </trkpt>
      <trkpt lat="48.19731" lon="-3.00242">
        <ele>144.2</ele>
        <time>2021-08-09T12:46:42Z</time>
      </trkpt>
      <trkpt lat="48.19731" lon="-3.00236">
        <ele>144.2</ele>
        <time>2021-08-09T12:46:43Z</time>
      </trkpt>
      <trkpt lat="48.19731" lon="-3.00229">
        <ele>144.2</ele>
        <time>2021-08-09T12:46:44Z</time>
      </trkpt>
      <trkpt lat="48.19732" lon="-3.00222">
        <ele>144.2</ele>
        <time>2021-08-09T12:46:45Z</time>
      </trkpt>
      <trkpt lat="48.19732" lon="-3.00215">
        <ele>144.2</ele>
        <time>2021-08-09T12:46:46Z</time>
      </trkpt>
      <trkpt lat="48.19733" lon="-3.00208">
        <ele>144.2</ele>
        <time>2021-08-09T12:46:47Z</time>
      </trkpt>
      <trkpt lat="48.19733" lon="-3.002">
        <ele>144.2</ele>
        <time>2021-08-09T12:46:48Z</time>
      </trkpt>
      <trkpt lat="48.19734" lon="-3.00193">
        <ele>144.4</ele>
        <time>2021-08-09T12:46:49Z</time>
      </trkpt>
      <trkpt lat="48.19735" lon="-3.00185">
        <ele>144.4</ele>
        <time>2021-08-09T12:46:50Z</time>
      </trkpt>
      <trkpt lat="48.19735" lon="-3.00178">
        <ele>144.6</ele>
        <time>2021-08-09T12:46:51Z</time>
      </trkpt>
      <trkpt lat="48.19736" lon="-3.00164">
        <ele>144.6</ele>
        <time>2021-08-09T12:46:53Z</time>
      </trkpt>
      <trkpt lat="48.19737" lon="-3.00157">
        <ele>144.8</ele>
        <time>2021-08-09T12:46:54Z</time>
      </trkpt>
      <trkpt lat="48.19738" lon="-3.0015">
        <ele>144.8</ele>
        <time>2021-08-09T12:46:55Z</time>
      </trkpt>
      <trkpt lat="48.19738" lon="-3.00144">
        <ele>144.8</ele>
        <time>2021-08-09T12:46:56Z</time>
      </trkpt>
      <trkpt lat="48.19739" lon="-3.00138">
        <ele>144.8</ele>
        <time>2021-08-09T12:46:57Z</time>
      </trkpt>
      <trkpt lat="48.1974" lon="-3.00133">
        <ele>144.8</ele>
        <time>2021-08-09T12:46:58Z</time>
      </trkpt>
      <trkpt lat="48.19741" lon="-3.00128">
        <ele>144.8</ele>
        <time>2021-08-09T12:46:59Z</time>
      </trkpt>
      <trkpt lat="48.19742" lon="-3.00122">
        <ele>144.8</ele>
        <time>2021-08-09T12:47:00Z</time>
      </trkpt>
      <trkpt lat="48.19744" lon="-3.00116">
        <ele>145</ele>
        <time>2021-08-09T12:47:01Z</time>
      </trkpt>
      <trkpt lat="48.19745" lon="-3.00109">
        <ele>145</ele>
        <time>2021-08-09T12:47:02Z</time>
      </trkpt>
      <trkpt lat="48.19748" lon="-3.00098">
        <ele>145</ele>
        <time>2021-08-09T12:47:04Z</time>
      </trkpt>
      <trkpt lat="48.19749" lon="-3.00092">
        <ele>145</ele>
        <time>2021-08-09T12:47:05Z</time>
      </trkpt>
      <trkpt lat="48.19751" lon="-3.00087">
        <ele>145.2</ele>
        <time>2021-08-09T12:47:06Z</time>
      </trkpt>
      <trkpt lat="48.19752" lon="-3.00083">
        <ele>145.2</ele>
        <time>2021-08-09T12:47:07Z</time>
      </trkpt>
      <trkpt lat="48.19754" lon="-3.00079">
        <ele>145.4</ele>
        <time>2021-08-09T12:47:08Z</time>
      </trkpt>
      <trkpt lat="48.19755" lon="-3.00073">
        <ele>145.4</ele>
        <time>2021-08-09T12:47:09Z</time>
      </trkpt>
      <trkpt lat="48.19757" lon="-3.00067">
        <ele>145.4</ele>
        <time>2021-08-09T12:47:10Z</time>
      </trkpt>
      <trkpt lat="48.19759" lon="-3.00061">
        <ele>145.4</ele>
        <time>2021-08-09T12:47:11Z</time>
      </trkpt>
      <trkpt lat="48.19761" lon="-3.00057">
        <ele>145.4</ele>
        <time>2021-08-09T12:47:12Z</time>
      </trkpt>
      <trkpt lat="48.19762" lon="-3.00051">
        <ele>145.4</ele>
        <time>2021-08-09T12:47:13Z</time>
      </trkpt>
      <trkpt lat="48.19763" lon="-3.00047">
        <ele>145.4</ele>
        <time>2021-08-09T12:47:14Z</time>
      </trkpt>
      <trkpt lat="48.19765" lon="-3.00043">
        <ele>145.4</ele>
        <time>2021-08-09T12:47:15Z</time>
      </trkpt>
      <trkpt lat="48.19771" lon="-3.00034">
        <ele>145.4</ele>
        <time>2021-08-09T12:47:17Z</time>
      </trkpt>
      <trkpt lat="48.19774" lon="-3.0003">
        <ele>145.4</ele>
        <time>2021-08-09T12:47:18Z</time>
      </trkpt>
      <trkpt lat="48.19778" lon="-3.00026">
        <ele>145.4</ele>
        <time>2021-08-09T12:47:19Z</time>
      </trkpt>
      <trkpt lat="48.19784" lon="-3.00017">
        <ele>145.4</ele>
        <time>2021-08-09T12:47:21Z</time>
      </trkpt>
      <trkpt lat="48.19788" lon="-3.00013">
        <ele>145.4</ele>
        <time>2021-08-09T12:47:22Z</time>
      </trkpt>
      <trkpt lat="48.19792" lon="-3.0001">
        <ele>145.4</ele>
        <time>2021-08-09T12:47:23Z</time>
      </trkpt>
      <trkpt lat="48.19795" lon="-3.00007">
        <ele>145.4</ele>
        <time>2021-08-09T12:47:24Z</time>
      </trkpt>
      <trkpt lat="48.19798" lon="-3.00003">
        <ele>145.4</ele>
        <time>2021-08-09T12:47:25Z</time>
      </trkpt>
      <trkpt lat="48.19801" lon="-2.99999">
        <ele>145.4</ele>
        <time>2021-08-09T12:47:26Z</time>
      </trkpt>
      <trkpt lat="48.19806" lon="-2.99992">
        <ele>145.4</ele>
        <time>2021-08-09T12:47:28Z</time>
      </trkpt>
      <trkpt lat="48.19808" lon="-2.99989">
        <ele>145.4</ele>
        <time>2021-08-09T12:47:29Z</time>
      </trkpt>
      <trkpt lat="48.19811" lon="-2.99986">
        <ele>145.4</ele>
        <time>2021-08-09T12:47:30Z</time>
      </trkpt>
      <trkpt lat="48.19815" lon="-2.99985">
        <ele>145.4</ele>
        <time>2021-08-09T12:47:31Z</time>
      </trkpt>
      <trkpt lat="48.19818" lon="-2.99983">
        <ele>145.6</ele>
        <time>2021-08-09T12:47:32Z</time>
      </trkpt>
      <trkpt lat="48.1982" lon="-2.9998">
        <ele>145.6</ele>
        <time>2021-08-09T12:47:33Z</time>
      </trkpt>
      <trkpt lat="48.19823" lon="-2.99976">
        <ele>145.8</ele>
        <time>2021-08-09T12:47:34Z</time>
      </trkpt>
      <trkpt lat="48.19826" lon="-2.99972">
        <ele>145.8</ele>
        <time>2021-08-09T12:47:35Z</time>
      </trkpt>
      <trkpt lat="48.19829" lon="-2.99968">
        <ele>145.8</ele>
        <time>2021-08-09T12:47:36Z</time>
      </trkpt>
      <trkpt lat="48.19832" lon="-2.99965">
        <ele>146</ele>
        <time>2021-08-09T12:47:37Z</time>
      </trkpt>
      <trkpt lat="48.19835" lon="-2.99963">
        <ele>146</ele>
        <time>2021-08-09T12:47:38Z</time>
      </trkpt>
      <trkpt lat="48.19838" lon="-2.99961">
        <ele>146</ele>
        <time>2021-08-09T12:47:39Z</time>
      </trkpt>
      <trkpt lat="48.1984" lon="-2.9996">
        <ele>146</ele>
        <time>2021-08-09T12:47:40Z</time>
      </trkpt>
      <trkpt lat="48.19842" lon="-2.99959">
        <ele>146.2</ele>
        <time>2021-08-09T12:47:41Z</time>
      </trkpt>
      <trkpt lat="48.19844" lon="-2.99958">
        <ele>146.2</ele>
        <time>2021-08-09T12:47:42Z</time>
      </trkpt>
      <trkpt lat="48.19845" lon="-2.99957">
        <ele>146.2</ele>
        <time>2021-08-09T12:47:43Z</time>
      </trkpt>
      <trkpt lat="48.19846" lon="-2.99955">
        <ele>146.4</ele>
        <time>2021-08-09T12:47:44Z</time>
      </trkpt>
      <trkpt lat="48.19847" lon="-2.99953">
        <ele>146.4</ele>
        <time>2021-08-09T12:47:45Z</time>
      </trkpt>
      <trkpt lat="48.19848" lon="-2.99952">
        <ele>146.4</ele>
        <time>2021-08-09T12:47:46Z</time>
      </trkpt>
      <trkpt lat="48.19849" lon="-2.9995">
        <ele>146.6</ele>
        <time>2021-08-09T12:47:47Z</time>
      </trkpt>
      <trkpt lat="48.1985" lon="-2.99948">
        <ele>146.6</ele>
        <time>2021-08-09T12:47:48Z</time>
      </trkpt>
      <trkpt lat="48.19851" lon="-2.99945">
        <ele>146.6</ele>
        <time>2021-08-09T12:47:49Z</time>
      </trkpt>
      <trkpt lat="48.19852" lon="-2.99943">
        <ele>146.6</ele>
        <time>2021-08-09T12:47:50Z</time>
      </trkpt>
      <trkpt lat="48.19854" lon="-2.99938">
        <ele>146.6</ele>
        <time>2021-08-09T12:47:52Z</time>
      </trkpt>
      <trkpt lat="48.19856" lon="-2.99936">
        <ele>146.6</ele>
        <time>2021-08-09T12:47:53Z</time>
      </trkpt>
      <trkpt lat="48.19857" lon="-2.99933">
        <ele>146.6</ele>
        <time>2021-08-09T12:47:54Z</time>
      </trkpt>
      <trkpt lat="48.19859" lon="-2.9993">
        <ele>146.6</ele>
        <time>2021-08-09T12:47:55Z</time>
      </trkpt>
      <trkpt lat="48.19861" lon="-2.99927">
        <ele>146.6</ele>
        <time>2021-08-09T12:47:56Z</time>
      </trkpt>
      <trkpt lat="48.19863" lon="-2.99924">
        <ele>146.6</ele>
        <time>2021-08-09T12:47:57Z</time>
      </trkpt>
      <trkpt lat="48.19864" lon="-2.9992">
        <ele>146.6</ele>
        <time>2021-08-09T12:47:58Z</time>
      </trkpt>
      <trkpt lat="48.19866" lon="-2.99917">
        <ele>146.6</ele>
        <time>2021-08-09T12:47:59Z</time>
      </trkpt>
      <trkpt lat="48.19867" lon="-2.99913">
        <ele>146.4</ele>
        <time>2021-08-09T12:48:00Z</time>
      </trkpt>
      <trkpt lat="48.19868" lon="-2.99909">
        <ele>146.4</ele>
        <time>2021-08-09T12:48:01Z</time>
      </trkpt>
      <trkpt lat="48.1987" lon="-2.999">
        <ele>146.2</ele>
        <time>2021-08-09T12:48:03Z</time>
      </trkpt>
      <trkpt lat="48.19871" lon="-2.99894">
        <ele>146.2</ele>
        <time>2021-08-09T12:48:04Z</time>
      </trkpt>
      <trkpt lat="48.19872" lon="-2.99887">
        <ele>146</ele>
        <time>2021-08-09T12:48:05Z</time>
      </trkpt>
      <trkpt lat="48.19874" lon="-2.99879">
        <ele>146</ele>
        <time>2021-08-09T12:48:06Z</time>
      </trkpt>
      <trkpt lat="48.19876" lon="-2.99871">
        <ele>146</ele>
        <time>2021-08-09T12:48:07Z</time>
      </trkpt>
      <trkpt lat="48.19878" lon="-2.99864">
        <ele>146</ele>
        <time>2021-08-09T12:48:08Z</time>
      </trkpt>
      <trkpt lat="48.1988" lon="-2.99856">
        <ele>145.8</ele>
        <time>2021-08-09T12:48:09Z</time>
      </trkpt>
      <trkpt lat="48.19881" lon="-2.99848">
        <ele>145.8</ele>
        <time>2021-08-09T12:48:10Z</time>
      </trkpt>
      <trkpt lat="48.19882" lon="-2.99842">
        <ele>145.8</ele>
        <time>2021-08-09T12:48:11Z</time>
      </trkpt>
      <trkpt lat="48.19885" lon="-2.99838">
        <ele>145.8</ele>
        <time>2021-08-09T12:48:12Z</time>
      </trkpt>
      <trkpt lat="48.1989" lon="-2.99837">
        <ele>145.8</ele>
        <time>2021-08-09T12:48:14Z</time>
      </trkpt>
      <trkpt lat="48.19892" lon="-2.99838">
        <ele>145.8</ele>
        <time>2021-08-09T12:48:15Z</time>
      </trkpt>
      <trkpt lat="48.19894" lon="-2.9984">
        <ele>145.8</ele>
        <time>2021-08-09T12:48:16Z</time>
      </trkpt>
      <trkpt lat="48.19895" lon="-2.99843">
        <ele>145.8</ele>
        <time>2021-08-09T12:48:17Z</time>
      </trkpt>
      <trkpt lat="48.19897" lon="-2.99845">
        <ele>146</ele>
        <time>2021-08-09T12:48:18Z</time>
      </trkpt>
      <trkpt lat="48.19898" lon="-2.99848">
        <ele>146</ele>
        <time>2021-08-09T12:48:19Z</time>
      </trkpt>
      <trkpt lat="48.19898" lon="-2.9985">
        <ele>146</ele>
        <time>2021-08-09T12:48:20Z</time>
      </trkpt>
      <trkpt lat="48.199" lon="-2.99854">
        <ele>146</ele>
        <time>2021-08-09T12:48:21Z</time>
      </trkpt>
      <trkpt lat="48.19902" lon="-2.99857">
        <ele>146.2</ele>
        <time>2021-08-09T12:48:22Z</time>
      </trkpt>
      <trkpt lat="48.19904" lon="-2.99861">
        <ele>146.2</ele>
        <time>2021-08-09T12:48:23Z</time>
      </trkpt>
      <trkpt lat="48.19907" lon="-2.99867">
        <ele>146.4</ele>
        <time>2021-08-09T12:48:25Z</time>
      </trkpt>
      <trkpt lat="48.19909" lon="-2.99869">
        <ele>146.6</ele>
        <time>2021-08-09T12:48:26Z</time>
      </trkpt>
      <trkpt lat="48.1991" lon="-2.99872">
        <ele>146.6</ele>
        <time>2021-08-09T12:48:27Z</time>
      </trkpt>
      <trkpt lat="48.19912" lon="-2.99875">
        <ele>146.6</ele>
        <time>2021-08-09T12:48:28Z</time>
      </trkpt>
      <trkpt lat="48.19913" lon="-2.99878">
        <ele>146.8</ele>
        <time>2021-08-09T12:48:29Z</time>
      </trkpt>
      <trkpt lat="48.19914" lon="-2.99882">
        <ele>146.8</ele>
        <time>2021-08-09T12:48:30Z</time>
      </trkpt>
      <trkpt lat="48.19916" lon="-2.99885">
        <ele>147</ele>
        <time>2021-08-09T12:48:31Z</time>
      </trkpt>
      <trkpt lat="48.19917" lon="-2.99889">
        <ele>147</ele>
        <time>2021-08-09T12:48:32Z</time>
      </trkpt>
      <trkpt lat="48.19918" lon="-2.99892">
        <ele>147</ele>
        <time>2021-08-09T12:48:33Z</time>
      </trkpt>
      <trkpt lat="48.19919" lon="-2.99895">
        <ele>147</ele>
        <time>2021-08-09T12:48:34Z</time>
      </trkpt>
      <trkpt lat="48.19922" lon="-2.99899">
        <ele>147.2</ele>
        <time>2021-08-09T12:48:35Z</time>
      </trkpt>
      <trkpt lat="48.19923" lon="-2.99902">
        <ele>147.2</ele>
        <time>2021-08-09T12:48:36Z</time>
      </trkpt>
      <trkpt lat="48.19926" lon="-2.99906">
        <ele>147.2</ele>
        <time>2021-08-09T12:48:37Z</time>
      </trkpt>
      <trkpt lat="48.19928" lon="-2.9991">
        <ele>147.2</ele>
        <time>2021-08-09T12:48:38Z</time>
      </trkpt>
      <trkpt lat="48.19929" lon="-2.99914">
        <ele>147.2</ele>
        <time>2021-08-09T12:48:39Z</time>
      </trkpt>
      <trkpt lat="48.19931" lon="-2.99917">
        <ele>147.2</ele>
        <time>2021-08-09T12:48:40Z</time>
      </trkpt>
      <trkpt lat="48.19934" lon="-2.99921">
        <ele>147.2</ele>
        <time>2021-08-09T12:48:41Z</time>
      </trkpt>
      <trkpt lat="48.19936" lon="-2.99924">
        <ele>147.2</ele>
        <time>2021-08-09T12:48:42Z</time>
      </trkpt>
      <trkpt lat="48.19938" lon="-2.99928">
        <ele>147.4</ele>
        <time>2021-08-09T12:48:43Z</time>
      </trkpt>
      <trkpt lat="48.19941" lon="-2.99933">
        <ele>147.6</ele>
        <time>2021-08-09T12:48:44Z</time>
      </trkpt>
      <trkpt lat="48.19944" lon="-2.99938">
        <ele>147.6</ele>
        <time>2021-08-09T12:48:45Z</time>
      </trkpt>
      <trkpt lat="48.19946" lon="-2.99942">
        <ele>147.8</ele>
        <time>2021-08-09T12:48:46Z</time>
      </trkpt>
      <trkpt lat="48.19949" lon="-2.99946">
        <ele>147.8</ele>
        <time>2021-08-09T12:48:47Z</time>
      </trkpt>
      <trkpt lat="48.19952" lon="-2.99949">
        <ele>147.8</ele>
        <time>2021-08-09T12:48:48Z</time>
      </trkpt>
      <trkpt lat="48.19954" lon="-2.99953">
        <ele>147.8</ele>
        <time>2021-08-09T12:48:49Z</time>
      </trkpt>
      <trkpt lat="48.19956" lon="-2.99957">
        <ele>148</ele>
        <time>2021-08-09T12:48:50Z</time>
      </trkpt>
      <trkpt lat="48.19958" lon="-2.99961">
        <ele>148.2</ele>
        <time>2021-08-09T12:48:51Z</time>
      </trkpt>
      <trkpt lat="48.1996" lon="-2.99965">
        <ele>148.2</ele>
        <time>2021-08-09T12:48:52Z</time>
      </trkpt>
      <trkpt lat="48.19963" lon="-2.99969">
        <ele>148.4</ele>
        <time>2021-08-09T12:48:53Z</time>
      </trkpt>
      <trkpt lat="48.19965" lon="-2.99974">
        <ele>148.4</ele>
        <time>2021-08-09T12:48:54Z</time>
      </trkpt>
      <trkpt lat="48.19967" lon="-2.99978">
        <ele>148.6</ele>
        <time>2021-08-09T12:48:55Z</time>
      </trkpt>
      <trkpt lat="48.19969" lon="-2.99982">
        <ele>148.6</ele>
        <time>2021-08-09T12:48:56Z</time>
      </trkpt>
      <trkpt lat="48.19974" lon="-2.99989">
        <ele>149</ele>
        <time>2021-08-09T12:48:58Z</time>
      </trkpt>
      <trkpt lat="48.19978" lon="-2.99993">
        <ele>149.2</ele>
        <time>2021-08-09T12:48:59Z</time>
      </trkpt>
      <trkpt lat="48.1998" lon="-2.99996">
        <ele>149.2</ele>
        <time>2021-08-09T12:49:00Z</time>
      </trkpt>
      <trkpt lat="48.19982" lon="-3">
        <ele>149.2</ele>
        <time>2021-08-09T12:49:01Z</time>
      </trkpt>
      <trkpt lat="48.19984" lon="-3.00003">
        <ele>149.4</ele>
        <time>2021-08-09T12:49:02Z</time>
      </trkpt>
      <trkpt lat="48.19986" lon="-3.00006">
        <ele>149.4</ele>
        <time>2021-08-09T12:49:03Z</time>
      </trkpt>
      <trkpt lat="48.19989" lon="-3.00008">
        <ele>149.4</ele>
        <time>2021-08-09T12:49:04Z</time>
      </trkpt>
      <trkpt lat="48.19991" lon="-3.00011">
        <ele>149.4</ele>
        <time>2021-08-09T12:49:05Z</time>
      </trkpt>
      <trkpt lat="48.19994" lon="-3.00014">
        <ele>149.6</ele>
        <time>2021-08-09T12:49:06Z</time>
      </trkpt>
      <trkpt lat="48.19995" lon="-3.00017">
        <ele>149.6</ele>
        <time>2021-08-09T12:49:07Z</time>
      </trkpt>
      <trkpt lat="48.2" lon="-3.00024">
        <ele>149.8</ele>
        <time>2021-08-09T12:49:09Z</time>
      </trkpt>
      <trkpt lat="48.20003" lon="-3.00028">
        <ele>149.8</ele>
        <time>2021-08-09T12:49:10Z</time>
      </trkpt>
      <trkpt lat="48.20005" lon="-3.00032">
        <ele>149.8</ele>
        <time>2021-08-09T12:49:11Z</time>
      </trkpt>
      <trkpt lat="48.20008" lon="-3.00035">
        <ele>150</ele>
        <time>2021-08-09T12:49:12Z</time>
      </trkpt>
      <trkpt lat="48.2001" lon="-3.00038">
        <ele>149.8</ele>
        <time>2021-08-09T12:49:13Z</time>
      </trkpt>
      <trkpt lat="48.20013" lon="-3.00042">
        <ele>150</ele>
        <time>2021-08-09T12:49:14Z</time>
      </trkpt>
      <trkpt lat="48.20015" lon="-3.00044">
        <ele>150</ele>
        <time>2021-08-09T12:49:15Z</time>
      </trkpt>
      <trkpt lat="48.20018" lon="-3.00046">
        <ele>150</ele>
        <time>2021-08-09T12:49:16Z</time>
      </trkpt>
      <trkpt lat="48.2002" lon="-3.00049">
        <ele>150</ele>
        <time>2021-08-09T12:49:17Z</time>
      </trkpt>
      <trkpt lat="48.20022" lon="-3.00051">
        <ele>150</ele>
        <time>2021-08-09T12:49:18Z</time>
      </trkpt>
      <trkpt lat="48.20028" lon="-3.00055">
        <ele>150.2</ele>
        <time>2021-08-09T12:49:20Z</time>
      </trkpt>
      <trkpt lat="48.20031" lon="-3.00058">
        <ele>150.2</ele>
        <time>2021-08-09T12:49:21Z</time>
      </trkpt>
      <trkpt lat="48.20033" lon="-3.0006">
        <ele>150.2</ele>
        <time>2021-08-09T12:49:22Z</time>
      </trkpt>
      <trkpt lat="48.20036" lon="-3.00062">
        <ele>150.2</ele>
        <time>2021-08-09T12:49:23Z</time>
      </trkpt>
      <trkpt lat="48.20037" lon="-3.00065">
        <ele>150.4</ele>
        <time>2021-08-09T12:49:24Z</time>
      </trkpt>
      <trkpt lat="48.20039" lon="-3.00067">
        <ele>150.4</ele>
        <time>2021-08-09T12:49:25Z</time>
      </trkpt>
      <trkpt lat="48.20042" lon="-3.0007">
        <ele>150.6</ele>
        <time>2021-08-09T12:49:26Z</time>
      </trkpt>
      <trkpt lat="48.20045" lon="-3.00073">
        <ele>150.6</ele>
        <time>2021-08-09T12:49:27Z</time>
      </trkpt>
      <trkpt lat="48.20047" lon="-3.00075">
        <ele>150.6</ele>
        <time>2021-08-09T12:49:28Z</time>
      </trkpt>
      <trkpt lat="48.20049" lon="-3.00077">
        <ele>150.8</ele>
        <time>2021-08-09T12:49:29Z</time>
      </trkpt>
      <trkpt lat="48.20053" lon="-3.00081">
        <ele>150.8</ele>
        <time>2021-08-09T12:49:31Z</time>
      </trkpt>
      <trkpt lat="48.20056" lon="-3.00083">
        <ele>151</ele>
        <time>2021-08-09T12:49:32Z</time>
      </trkpt>
      <trkpt lat="48.20059" lon="-3.00085">
        <ele>151</ele>
        <time>2021-08-09T12:49:33Z</time>
      </trkpt>
      <trkpt lat="48.20062" lon="-3.00087">
        <ele>151.2</ele>
        <time>2021-08-09T12:49:34Z</time>
      </trkpt>
      <trkpt lat="48.20065" lon="-3.0009">
        <ele>151.2</ele>
        <time>2021-08-09T12:49:35Z</time>
      </trkpt>
      <trkpt lat="48.20068" lon="-3.00092">
        <ele>151.4</ele>
        <time>2021-08-09T12:49:36Z</time>
      </trkpt>
      <trkpt lat="48.20072" lon="-3.00095">
        <ele>151.4</ele>
        <time>2021-08-09T12:49:37Z</time>
      </trkpt>
      <trkpt lat="48.20077" lon="-3.00098">
        <ele>151.4</ele>
        <time>2021-08-09T12:49:38Z</time>
      </trkpt>
      <trkpt lat="48.2008" lon="-3.00101">
        <ele>151.4</ele>
        <time>2021-08-09T12:49:39Z</time>
      </trkpt>
      <trkpt lat="48.20084" lon="-3.00103">
        <ele>151.6</ele>
        <time>2021-08-09T12:49:40Z</time>
      </trkpt>
      <trkpt lat="48.2009" lon="-3.00107">
        <ele>151.6</ele>
        <time>2021-08-09T12:49:42Z</time>
      </trkpt>
      <trkpt lat="48.20093" lon="-3.00109">
        <ele>151.6</ele>
        <time>2021-08-09T12:49:43Z</time>
      </trkpt>
      <trkpt lat="48.20097" lon="-3.00111">
        <ele>151.6</ele>
        <time>2021-08-09T12:49:44Z</time>
      </trkpt>
      <trkpt lat="48.201" lon="-3.00112">
        <ele>151.6</ele>
        <time>2021-08-09T12:49:45Z</time>
      </trkpt>
      <trkpt lat="48.20103" lon="-3.00114">
        <ele>151.8</ele>
        <time>2021-08-09T12:49:46Z</time>
      </trkpt>
      <trkpt lat="48.20106" lon="-3.00116">
        <ele>151.8</ele>
        <time>2021-08-09T12:49:47Z</time>
      </trkpt>
      <trkpt lat="48.2011" lon="-3.00118">
        <ele>152</ele>
        <time>2021-08-09T12:49:48Z</time>
      </trkpt>
      <trkpt lat="48.20114" lon="-3.0012">
        <ele>152</ele>
        <time>2021-08-09T12:49:49Z</time>
      </trkpt>
      <trkpt lat="48.20117" lon="-3.00121">
        <ele>152.2</ele>
        <time>2021-08-09T12:49:50Z</time>
      </trkpt>
      <trkpt lat="48.2012" lon="-3.00123">
        <ele>152</ele>
        <time>2021-08-09T12:49:51Z</time>
      </trkpt>
      <trkpt lat="48.20124" lon="-3.00125">
        <ele>152</ele>
        <time>2021-08-09T12:49:52Z</time>
      </trkpt>
      <trkpt lat="48.20128" lon="-3.00126">
        <ele>152.2</ele>
        <time>2021-08-09T12:49:53Z</time>
      </trkpt>
      <trkpt lat="48.20131" lon="-3.00128">
        <ele>152.2</ele>
        <time>2021-08-09T12:49:54Z</time>
      </trkpt>
      <trkpt lat="48.20134" lon="-3.00128">
        <ele>152.2</ele>
        <time>2021-08-09T12:49:55Z</time>
      </trkpt>
      <trkpt lat="48.20138" lon="-3.0013">
        <ele>152.4</ele>
        <time>2021-08-09T12:49:56Z</time>
      </trkpt>
      <trkpt lat="48.20141" lon="-3.00131">
        <ele>152.4</ele>
        <time>2021-08-09T12:49:57Z</time>
      </trkpt>
      <trkpt lat="48.20144" lon="-3.00132">
        <ele>152.6</ele>
        <time>2021-08-09T12:49:58Z</time>
      </trkpt>
      <trkpt lat="48.20148" lon="-3.00133">
        <ele>152.6</ele>
        <time>2021-08-09T12:49:59Z</time>
      </trkpt>
      <trkpt lat="48.20151" lon="-3.00134">
        <ele>152.8</ele>
        <time>2021-08-09T12:50:00Z</time>
      </trkpt>
      <trkpt lat="48.20154" lon="-3.00135">
        <ele>152.8</ele>
        <time>2021-08-09T12:50:01Z</time>
      </trkpt>
      <trkpt lat="48.20158" lon="-3.00136">
        <ele>152.8</ele>
        <time>2021-08-09T12:50:02Z</time>
      </trkpt>
      <trkpt lat="48.20161" lon="-3.00137">
        <ele>153</ele>
        <time>2021-08-09T12:50:03Z</time>
      </trkpt>
      <trkpt lat="48.20165" lon="-3.00138">
        <ele>153.2</ele>
        <time>2021-08-09T12:50:04Z</time>
      </trkpt>
      <trkpt lat="48.20168" lon="-3.00138">
        <ele>153.2</ele>
        <time>2021-08-09T12:50:05Z</time>
      </trkpt>
      <trkpt lat="48.20172" lon="-3.00139">
        <ele>153.2</ele>
        <time>2021-08-09T12:50:06Z</time>
      </trkpt>
      <trkpt lat="48.20175" lon="-3.0014">
        <ele>153.4</ele>
        <time>2021-08-09T12:50:07Z</time>
      </trkpt>
      <trkpt lat="48.20179" lon="-3.00141">
        <ele>153.4</ele>
        <time>2021-08-09T12:50:08Z</time>
      </trkpt>
      <trkpt lat="48.20183" lon="-3.00142">
        <ele>153.4</ele>
        <time>2021-08-09T12:50:09Z</time>
      </trkpt>
      <trkpt lat="48.20187" lon="-3.00143">
        <ele>153.4</ele>
        <time>2021-08-09T12:50:10Z</time>
      </trkpt>
      <trkpt lat="48.20191" lon="-3.00143">
        <ele>153.6</ele>
        <time>2021-08-09T12:50:11Z</time>
      </trkpt>
      <trkpt lat="48.20195" lon="-3.00144">
        <ele>153.6</ele>
        <time>2021-08-09T12:50:12Z</time>
      </trkpt>
      <trkpt lat="48.202" lon="-3.00144">
        <ele>153.6</ele>
        <time>2021-08-09T12:50:13Z</time>
      </trkpt>
      <trkpt lat="48.2021" lon="-3.00145">
        <ele>153.6</ele>
        <time>2021-08-09T12:50:15Z</time>
      </trkpt>
      <trkpt lat="48.20215" lon="-3.00145">
        <ele>153.6</ele>
        <time>2021-08-09T12:50:16Z</time>
      </trkpt>
      <trkpt lat="48.2022" lon="-3.00146">
        <ele>153.6</ele>
        <time>2021-08-09T12:50:17Z</time>
      </trkpt>
      <trkpt lat="48.20225" lon="-3.00146">
        <ele>153.8</ele>
        <time>2021-08-09T12:50:18Z</time>
      </trkpt>
      <trkpt lat="48.2023" lon="-3.00146">
        <ele>153.8</ele>
        <time>2021-08-09T12:50:19Z</time>
      </trkpt>
      <trkpt lat="48.20235" lon="-3.00146">
        <ele>153.8</ele>
        <time>2021-08-09T12:50:20Z</time>
      </trkpt>
      <trkpt lat="48.2024" lon="-3.00146">
        <ele>153.8</ele>
        <time>2021-08-09T12:50:21Z</time>
      </trkpt>
      <trkpt lat="48.20245" lon="-3.00145">
        <ele>153.8</ele>
        <time>2021-08-09T12:50:22Z</time>
      </trkpt>
      <trkpt lat="48.20249" lon="-3.00145">
        <ele>153.8</ele>
        <time>2021-08-09T12:50:23Z</time>
      </trkpt>
      <trkpt lat="48.20254" lon="-3.00145">
        <ele>153.8</ele>
        <time>2021-08-09T12:50:24Z</time>
      </trkpt>
      <trkpt lat="48.20264" lon="-3.00143">
        <ele>153.8</ele>
        <time>2021-08-09T12:50:26Z</time>
      </trkpt>
      <trkpt lat="48.20268" lon="-3.00142">
        <ele>153.8</ele>
        <time>2021-08-09T12:50:27Z</time>
      </trkpt>
      <trkpt lat="48.20273" lon="-3.00141">
        <ele>153.8</ele>
        <time>2021-08-09T12:50:28Z</time>
      </trkpt>
      <trkpt lat="48.20278" lon="-3.0014">
        <ele>153.8</ele>
        <time>2021-08-09T12:50:29Z</time>
      </trkpt>
      <trkpt lat="48.20283" lon="-3.00139">
        <ele>153.8</ele>
        <time>2021-08-09T12:50:30Z</time>
      </trkpt>
      <trkpt lat="48.20287" lon="-3.00138">
        <ele>153.8</ele>
        <time>2021-08-09T12:50:31Z</time>
      </trkpt>
      <trkpt lat="48.20292" lon="-3.00137">
        <ele>153.6</ele>
        <time>2021-08-09T12:50:32Z</time>
      </trkpt>
      <trkpt lat="48.20297" lon="-3.00136">
        <ele>153.6</ele>
        <time>2021-08-09T12:50:33Z</time>
      </trkpt>
      <trkpt lat="48.20302" lon="-3.00134">
        <ele>153.6</ele>
        <time>2021-08-09T12:50:34Z</time>
      </trkpt>
      <trkpt lat="48.20306" lon="-3.00133">
        <ele>153.6</ele>
        <time>2021-08-09T12:50:35Z</time>
      </trkpt>
      <trkpt lat="48.20315" lon="-3.0013">
        <ele>153.6</ele>
        <time>2021-08-09T12:50:37Z</time>
      </trkpt>
      <trkpt lat="48.2032" lon="-3.00128">
        <ele>153.6</ele>
        <time>2021-08-09T12:50:38Z</time>
      </trkpt>
      <trkpt lat="48.20324" lon="-3.00127">
        <ele>153.4</ele>
        <time>2021-08-09T12:50:39Z</time>
      </trkpt>
      <trkpt lat="48.20329" lon="-3.00125">
        <ele>153.4</ele>
        <time>2021-08-09T12:50:40Z</time>
      </trkpt>
      <trkpt lat="48.20333" lon="-3.00123">
        <ele>153.4</ele>
        <time>2021-08-09T12:50:41Z</time>
      </trkpt>
      <trkpt lat="48.20338" lon="-3.00121">
        <ele>153.2</ele>
        <time>2021-08-09T12:50:42Z</time>
      </trkpt>
      <trkpt lat="48.20342" lon="-3.00119">
        <ele>153.2</ele>
        <time>2021-08-09T12:50:43Z</time>
      </trkpt>
      <trkpt lat="48.20347" lon="-3.00118">
        <ele>153</ele>
        <time>2021-08-09T12:50:44Z</time>
      </trkpt>
      <trkpt lat="48.20352" lon="-3.00116">
        <ele>152.8</ele>
        <time>2021-08-09T12:50:45Z</time>
      </trkpt>
      <trkpt lat="48.20356" lon="-3.00114">
        <ele>152.8</ele>
        <time>2021-08-09T12:50:46Z</time>
      </trkpt>
      <trkpt lat="48.20366" lon="-3.00109">
        <ele>152.6</ele>
        <time>2021-08-09T12:50:48Z</time>
      </trkpt>
      <trkpt lat="48.2037" lon="-3.00107">
        <ele>152.6</ele>
        <time>2021-08-09T12:50:49Z</time>
      </trkpt>
      <trkpt lat="48.20375" lon="-3.00104">
        <ele>152.4</ele>
        <time>2021-08-09T12:50:50Z</time>
      </trkpt>
      <trkpt lat="48.20379" lon="-3.00102">
        <ele>152.4</ele>
        <time>2021-08-09T12:50:51Z</time>
      </trkpt>
      <trkpt lat="48.20384" lon="-3.001">
        <ele>152.2</ele>
        <time>2021-08-09T12:50:52Z</time>
      </trkpt>
      <trkpt lat="48.20388" lon="-3.00097">
        <ele>152.2</ele>
        <time>2021-08-09T12:50:53Z</time>
      </trkpt>
      <trkpt lat="48.20392" lon="-3.00095">
        <ele>152</ele>
        <time>2021-08-09T12:50:54Z</time>
      </trkpt>
      <trkpt lat="48.20395" lon="-3.00094">
        <ele>152</ele>
        <time>2021-08-09T12:50:55Z</time>
      </trkpt>
      <trkpt lat="48.20399" lon="-3.00092">
        <ele>152</ele>
        <time>2021-08-09T12:50:56Z</time>
      </trkpt>
      <trkpt lat="48.20402" lon="-3.00091">
        <ele>152</ele>
        <time>2021-08-09T12:50:57Z</time>
      </trkpt>
      <trkpt lat="48.20407" lon="-3.00088">
        <ele>152</ele>
        <time>2021-08-09T12:50:59Z</time>
      </trkpt>
      <trkpt lat="48.2041" lon="-3.00087">
        <ele>152</ele>
        <time>2021-08-09T12:51:00Z</time>
      </trkpt>
      <trkpt lat="48.20414" lon="-3.00084">
        <ele>152</ele>
        <time>2021-08-09T12:51:01Z</time>
      </trkpt>
      <trkpt lat="48.20418" lon="-3.00082">
        <ele>152</ele>
        <time>2021-08-09T12:51:02Z</time>
      </trkpt>
      <trkpt lat="48.20422" lon="-3.0008">
        <ele>151.8</ele>
        <time>2021-08-09T12:51:03Z</time>
      </trkpt>
      <trkpt lat="48.20426" lon="-3.00078">
        <ele>151.8</ele>
        <time>2021-08-09T12:51:04Z</time>
      </trkpt>
      <trkpt lat="48.2043" lon="-3.00075">
        <ele>151.8</ele>
        <time>2021-08-09T12:51:05Z</time>
      </trkpt>
      <trkpt lat="48.20435" lon="-3.00073">
        <ele>151.8</ele>
        <time>2021-08-09T12:51:06Z</time>
      </trkpt>
      <trkpt lat="48.2044" lon="-3.00071">
        <ele>151.8</ele>
        <time>2021-08-09T12:51:07Z</time>
      </trkpt>
      <trkpt lat="48.20446" lon="-3.00068">
        <ele>151.8</ele>
        <time>2021-08-09T12:51:08Z</time>
      </trkpt>
      <trkpt lat="48.20451" lon="-3.00066">
        <ele>151.8</ele>
        <time>2021-08-09T12:51:09Z</time>
      </trkpt>
      <trkpt lat="48.20457" lon="-3.00064">
        <ele>151.8</ele>
        <time>2021-08-09T12:51:10Z</time>
      </trkpt>
      <trkpt lat="48.20462" lon="-3.00061">
        <ele>151.6</ele>
        <time>2021-08-09T12:51:11Z</time>
      </trkpt>
      <trkpt lat="48.20468" lon="-3.00059">
        <ele>151.4</ele>
        <time>2021-08-09T12:51:12Z</time>
      </trkpt>
      <trkpt lat="48.20474" lon="-3.00057">
        <ele>151.4</ele>
        <time>2021-08-09T12:51:13Z</time>
      </trkpt>
      <trkpt lat="48.2048" lon="-3.00055">
        <ele>151.2</ele>
        <time>2021-08-09T12:51:14Z</time>
      </trkpt>
      <trkpt lat="48.20486" lon="-3.00052">
        <ele>151.2</ele>
        <time>2021-08-09T12:51:15Z</time>
      </trkpt>
      <trkpt lat="48.20492" lon="-3.0005">
        <ele>151.2</ele>
        <time>2021-08-09T12:51:16Z</time>
      </trkpt>
      <trkpt lat="48.20498" lon="-3.00048">
        <ele>151</ele>
        <time>2021-08-09T12:51:17Z</time>
      </trkpt>
      <trkpt lat="48.20503" lon="-3.00046">
        <ele>151</ele>
        <time>2021-08-09T12:51:18Z</time>
      </trkpt>
      <trkpt lat="48.20508" lon="-3.00043">
        <ele>150.8</ele>
        <time>2021-08-09T12:51:19Z</time>
      </trkpt>
      <trkpt lat="48.20519" lon="-3.0004">
        <ele>150.4</ele>
        <time>2021-08-09T12:51:21Z</time>
      </trkpt>
      <trkpt lat="48.20525" lon="-3.00038">
        <ele>150</ele>
        <time>2021-08-09T12:51:22Z</time>
      </trkpt>
      <trkpt lat="48.20529" lon="-3.00036">
        <ele>150</ele>
        <time>2021-08-09T12:51:23Z</time>
      </trkpt>
      <trkpt lat="48.20534" lon="-3.00035">
        <ele>149.6</ele>
        <time>2021-08-09T12:51:24Z</time>
      </trkpt>
      <trkpt lat="48.20538" lon="-3.00034">
        <ele>149.4</ele>
        <time>2021-08-09T12:51:25Z</time>
      </trkpt>
      <trkpt lat="48.20543" lon="-3.00033">
        <ele>149.2</ele>
        <time>2021-08-09T12:51:26Z</time>
      </trkpt>
      <trkpt lat="48.20548" lon="-3.00031">
        <ele>149.2</ele>
        <time>2021-08-09T12:51:27Z</time>
      </trkpt>
      <trkpt lat="48.20553" lon="-3.0003">
        <ele>149</ele>
        <time>2021-08-09T12:51:28Z</time>
      </trkpt>
      <trkpt lat="48.20558" lon="-3.00029">
        <ele>149</ele>
        <time>2021-08-09T12:51:29Z</time>
      </trkpt>
      <trkpt lat="48.20563" lon="-3.00029">
        <ele>148.8</ele>
        <time>2021-08-09T12:51:30Z</time>
      </trkpt>
      <trkpt lat="48.20567" lon="-3.00029">
        <ele>148.8</ele>
        <time>2021-08-09T12:51:31Z</time>
      </trkpt>
      <trkpt lat="48.20572" lon="-3.00028">
        <ele>148.4</ele>
        <time>2021-08-09T12:51:32Z</time>
      </trkpt>
      <trkpt lat="48.20577" lon="-3.00028">
        <ele>148</ele>
        <time>2021-08-09T12:51:33Z</time>
      </trkpt>
      <trkpt lat="48.20581" lon="-3.00027">
        <ele>147.8</ele>
        <time>2021-08-09T12:51:34Z</time>
      </trkpt>
      <trkpt lat="48.20585" lon="-3.00027">
        <ele>147.4</ele>
        <time>2021-08-09T12:51:35Z</time>
      </trkpt>
      <trkpt lat="48.2059" lon="-3.00027">
        <ele>147.2</ele>
        <time>2021-08-09T12:51:36Z</time>
      </trkpt>
      <trkpt lat="48.20594" lon="-3.00028">
        <ele>147</ele>
        <time>2021-08-09T12:51:37Z</time>
      </trkpt>
      <trkpt lat="48.20598" lon="-3.00027">
        <ele>147</ele>
        <time>2021-08-09T12:51:38Z</time>
      </trkpt>
      <trkpt lat="48.20602" lon="-3.00027">
        <ele>146.8</ele>
        <time>2021-08-09T12:51:39Z</time>
      </trkpt>
      <trkpt lat="48.20607" lon="-3.00027">
        <ele>146.8</ele>
        <time>2021-08-09T12:51:40Z</time>
      </trkpt>
      <trkpt lat="48.20611" lon="-3.00028">
        <ele>146.8</ele>
        <time>2021-08-09T12:51:41Z</time>
      </trkpt>
      <trkpt lat="48.20615" lon="-3.00029">
        <ele>146.8</ele>
        <time>2021-08-09T12:51:42Z</time>
      </trkpt>
      <trkpt lat="48.20619" lon="-3.0003">
        <ele>146.8</ele>
        <time>2021-08-09T12:51:43Z</time>
      </trkpt>
      <trkpt lat="48.20624" lon="-3.00032">
        <ele>146.8</ele>
        <time>2021-08-09T12:51:44Z</time>
      </trkpt>
      <trkpt lat="48.20629" lon="-3.00033">
        <ele>146.8</ele>
        <time>2021-08-09T12:51:45Z</time>
      </trkpt>
      <trkpt lat="48.20634" lon="-3.00035">
        <ele>146.8</ele>
        <time>2021-08-09T12:51:46Z</time>
      </trkpt>
      <trkpt lat="48.2064" lon="-3.00036">
        <ele>146.8</ele>
        <time>2021-08-09T12:51:47Z</time>
      </trkpt>
      <trkpt lat="48.20646" lon="-3.00037">
        <ele>146.8</ele>
        <time>2021-08-09T12:51:48Z</time>
      </trkpt>
      <trkpt lat="48.20651" lon="-3.00038">
        <ele>146.8</ele>
        <time>2021-08-09T12:51:49Z</time>
      </trkpt>
      <trkpt lat="48.20656" lon="-3.0004">
        <ele>146.8</ele>
        <time>2021-08-09T12:51:50Z</time>
      </trkpt>
      <trkpt lat="48.20662" lon="-3.00041">
        <ele>146.8</ele>
        <time>2021-08-09T12:51:51Z</time>
      </trkpt>
      <trkpt lat="48.20667" lon="-3.00042">
        <ele>146.8</ele>
        <time>2021-08-09T12:51:52Z</time>
      </trkpt>
      <trkpt lat="48.20677" lon="-3.00047">
        <ele>146.8</ele>
        <time>2021-08-09T12:51:54Z</time>
      </trkpt>
      <trkpt lat="48.20682" lon="-3.00049">
        <ele>146.6</ele>
        <time>2021-08-09T12:51:55Z</time>
      </trkpt>
      <trkpt lat="48.20687" lon="-3.00052">
        <ele>146.6</ele>
        <time>2021-08-09T12:51:56Z</time>
      </trkpt>
      <trkpt lat="48.20692" lon="-3.00055">
        <ele>146.6</ele>
        <time>2021-08-09T12:51:57Z</time>
      </trkpt>
      <trkpt lat="48.20698" lon="-3.00059">
        <ele>146.4</ele>
        <time>2021-08-09T12:51:58Z</time>
      </trkpt>
      <trkpt lat="48.20702" lon="-3.00061">
        <ele>146.4</ele>
        <time>2021-08-09T12:51:59Z</time>
      </trkpt>
      <trkpt lat="48.20706" lon="-3.00064">
        <ele>146.4</ele>
        <time>2021-08-09T12:52:00Z</time>
      </trkpt>
      <trkpt lat="48.20712" lon="-3.00067">
        <ele>146.4</ele>
        <time>2021-08-09T12:52:01Z</time>
      </trkpt>
      <trkpt lat="48.20717" lon="-3.00071">
        <ele>146.2</ele>
        <time>2021-08-09T12:52:02Z</time>
      </trkpt>
      <trkpt lat="48.20723" lon="-3.00074">
        <ele>146.2</ele>
        <time>2021-08-09T12:52:03Z</time>
      </trkpt>
      <trkpt lat="48.20734" lon="-3.00082">
        <ele>146</ele>
        <time>2021-08-09T12:52:05Z</time>
      </trkpt>
      <trkpt lat="48.2074" lon="-3.00087">
        <ele>145.8</ele>
        <time>2021-08-09T12:52:06Z</time>
      </trkpt>
      <trkpt lat="48.20746" lon="-3.00093">
        <ele>145.6</ele>
        <time>2021-08-09T12:52:07Z</time>
      </trkpt>
      <trkpt lat="48.20751" lon="-3.00097">
        <ele>145.4</ele>
        <time>2021-08-09T12:52:08Z</time>
      </trkpt>
      <trkpt lat="48.20756" lon="-3.00101">
        <ele>145.4</ele>
        <time>2021-08-09T12:52:09Z</time>
      </trkpt>
      <trkpt lat="48.20759" lon="-3.00105">
        <ele>145.2</ele>
        <time>2021-08-09T12:52:10Z</time>
      </trkpt>
      <trkpt lat="48.20763" lon="-3.00108">
        <ele>145</ele>
        <time>2021-08-09T12:52:11Z</time>
      </trkpt>
      <trkpt lat="48.20767" lon="-3.00112">
        <ele>145</ele>
        <time>2021-08-09T12:52:12Z</time>
      </trkpt>
      <trkpt lat="48.20771" lon="-3.00117">
        <ele>144.8</ele>
        <time>2021-08-09T12:52:13Z</time>
      </trkpt>
      <trkpt lat="48.20776" lon="-3.00122">
        <ele>144.6</ele>
        <time>2021-08-09T12:52:14Z</time>
      </trkpt>
      <trkpt lat="48.20785" lon="-3.00132">
        <ele>144.4</ele>
        <time>2021-08-09T12:52:16Z</time>
      </trkpt>
      <trkpt lat="48.20789" lon="-3.00137">
        <ele>144.2</ele>
        <time>2021-08-09T12:52:17Z</time>
      </trkpt>
      <trkpt lat="48.20794" lon="-3.00142">
        <ele>144.2</ele>
        <time>2021-08-09T12:52:18Z</time>
      </trkpt>
      <trkpt lat="48.20799" lon="-3.00148">
        <ele>144.2</ele>
        <time>2021-08-09T12:52:19Z</time>
      </trkpt>
      <trkpt lat="48.20804" lon="-3.00153">
        <ele>144</ele>
        <time>2021-08-09T12:52:20Z</time>
      </trkpt>
      <trkpt lat="48.20809" lon="-3.00159">
        <ele>144</ele>
        <time>2021-08-09T12:52:21Z</time>
      </trkpt>
      <trkpt lat="48.20815" lon="-3.00165">
        <ele>144</ele>
        <time>2021-08-09T12:52:22Z</time>
      </trkpt>
      <trkpt lat="48.2082" lon="-3.00172">
        <ele>143.8</ele>
        <time>2021-08-09T12:52:23Z</time>
      </trkpt>
      <trkpt lat="48.20827" lon="-3.00179">
        <ele>143.8</ele>
        <time>2021-08-09T12:52:24Z</time>
      </trkpt>
      <trkpt lat="48.20833" lon="-3.00185">
        <ele>143.6</ele>
        <time>2021-08-09T12:52:25Z</time>
      </trkpt>
      <trkpt lat="48.20838" lon="-3.00191">
        <ele>143.6</ele>
        <time>2021-08-09T12:52:26Z</time>
      </trkpt>
      <trkpt lat="48.20844" lon="-3.00197">
        <ele>143.4</ele>
        <time>2021-08-09T12:52:27Z</time>
      </trkpt>
      <trkpt lat="48.20851" lon="-3.00203">
        <ele>143.2</ele>
        <time>2021-08-09T12:52:28Z</time>
      </trkpt>
      <trkpt lat="48.20856" lon="-3.00209">
        <ele>143.2</ele>
        <time>2021-08-09T12:52:29Z</time>
      </trkpt>
      <trkpt lat="48.20861" lon="-3.00215">
        <ele>143</ele>
        <time>2021-08-09T12:52:30Z</time>
      </trkpt>
      <trkpt lat="48.20866" lon="-3.0022">
        <ele>143</ele>
        <time>2021-08-09T12:52:31Z</time>
      </trkpt>
      <trkpt lat="48.2087" lon="-3.00224">
        <ele>143</ele>
        <time>2021-08-09T12:52:32Z</time>
      </trkpt>
      <trkpt lat="48.20873" lon="-3.00228">
        <ele>142.8</ele>
        <time>2021-08-09T12:52:33Z</time>
      </trkpt>
      <trkpt lat="48.20877" lon="-3.00231">
        <ele>142.8</ele>
        <time>2021-08-09T12:52:34Z</time>
      </trkpt>
      <trkpt lat="48.20881" lon="-3.00235">
        <ele>142.8</ele>
        <time>2021-08-09T12:52:35Z</time>
      </trkpt>
      <trkpt lat="48.20884" lon="-3.00239">
        <ele>142.6</ele>
        <time>2021-08-09T12:52:36Z</time>
      </trkpt>
      <trkpt lat="48.20887" lon="-3.00244">
        <ele>142.4</ele>
        <time>2021-08-09T12:52:37Z</time>
      </trkpt>
      <trkpt lat="48.20891" lon="-3.00249">
        <ele>142.2</ele>
        <time>2021-08-09T12:52:38Z</time>
      </trkpt>
      <trkpt lat="48.20894" lon="-3.00253">
        <ele>142</ele>
        <time>2021-08-09T12:52:39Z</time>
      </trkpt>
      <trkpt lat="48.20897" lon="-3.00256">
        <ele>142</ele>
        <time>2021-08-09T12:52:40Z</time>
      </trkpt>
      <trkpt lat="48.209" lon="-3.0026">
        <ele>142</ele>
        <time>2021-08-09T12:52:41Z</time>
      </trkpt>
      <trkpt lat="48.20902" lon="-3.00263">
        <ele>142</ele>
        <time>2021-08-09T12:52:42Z</time>
      </trkpt>
      <trkpt lat="48.20905" lon="-3.00267">
        <ele>142</ele>
        <time>2021-08-09T12:52:43Z</time>
      </trkpt>
      <trkpt lat="48.20908" lon="-3.0027">
        <ele>142</ele>
        <time>2021-08-09T12:52:44Z</time>
      </trkpt>
      <trkpt lat="48.20912" lon="-3.00273">
        <ele>142</ele>
        <time>2021-08-09T12:52:45Z</time>
      </trkpt>
      <trkpt lat="48.20915" lon="-3.00277">
        <ele>142</ele>
        <time>2021-08-09T12:52:46Z</time>
      </trkpt>
      <trkpt lat="48.20918" lon="-3.00281">
        <ele>142</ele>
        <time>2021-08-09T12:52:47Z</time>
      </trkpt>
      <trkpt lat="48.20923" lon="-3.0029">
        <ele>142</ele>
        <time>2021-08-09T12:52:49Z</time>
      </trkpt>
      <trkpt lat="48.20927" lon="-3.00294">
        <ele>142.2</ele>
        <time>2021-08-09T12:52:50Z</time>
      </trkpt>
      <trkpt lat="48.2093" lon="-3.00298">
        <ele>142.2</ele>
        <time>2021-08-09T12:52:51Z</time>
      </trkpt>
      <trkpt lat="48.20933" lon="-3.00302">
        <ele>142.4</ele>
        <time>2021-08-09T12:52:52Z</time>
      </trkpt>
      <trkpt lat="48.20937" lon="-3.00308">
        <ele>142.4</ele>
        <time>2021-08-09T12:52:53Z</time>
      </trkpt>
      <trkpt lat="48.20941" lon="-3.00313">
        <ele>142.6</ele>
        <time>2021-08-09T12:52:54Z</time>
      </trkpt>
      <trkpt lat="48.20946" lon="-3.00318">
        <ele>142.6</ele>
        <time>2021-08-09T12:52:55Z</time>
      </trkpt>
      <trkpt lat="48.2095" lon="-3.00323">
        <ele>142.6</ele>
        <time>2021-08-09T12:52:56Z</time>
      </trkpt>
      <trkpt lat="48.20954" lon="-3.00327">
        <ele>142.6</ele>
        <time>2021-08-09T12:52:57Z</time>
      </trkpt>
      <trkpt lat="48.20957" lon="-3.00332">
        <ele>142.8</ele>
        <time>2021-08-09T12:52:58Z</time>
      </trkpt>
      <trkpt lat="48.20965" lon="-3.00341">
        <ele>142.8</ele>
        <time>2021-08-09T12:53:00Z</time>
      </trkpt>
      <trkpt lat="48.20969" lon="-3.00346">
        <ele>142.8</ele>
        <time>2021-08-09T12:53:01Z</time>
      </trkpt>
      <trkpt lat="48.20973" lon="-3.0035">
        <ele>142.8</ele>
        <time>2021-08-09T12:53:02Z</time>
      </trkpt>
      <trkpt lat="48.20978" lon="-3.00356">
        <ele>142.8</ele>
        <time>2021-08-09T12:53:03Z</time>
      </trkpt>
      <trkpt lat="48.20983" lon="-3.00361">
        <ele>143</ele>
        <time>2021-08-09T12:53:04Z</time>
      </trkpt>
      <trkpt lat="48.20988" lon="-3.00366">
        <ele>143</ele>
        <time>2021-08-09T12:53:05Z</time>
      </trkpt>
      <trkpt lat="48.20992" lon="-3.00371">
        <ele>143.2</ele>
        <time>2021-08-09T12:53:06Z</time>
      </trkpt>
      <trkpt lat="48.20996" lon="-3.00375">
        <ele>143.2</ele>
        <time>2021-08-09T12:53:07Z</time>
      </trkpt>
      <trkpt lat="48.20999" lon="-3.00379">
        <ele>143.2</ele>
        <time>2021-08-09T12:53:08Z</time>
      </trkpt>
      <trkpt lat="48.21002" lon="-3.00383">
        <ele>143.4</ele>
        <time>2021-08-09T12:53:09Z</time>
      </trkpt>
      <trkpt lat="48.21007" lon="-3.00388">
        <ele>143.4</ele>
        <time>2021-08-09T12:53:10Z</time>
      </trkpt>
      <trkpt lat="48.21011" lon="-3.00392">
        <ele>143.6</ele>
        <time>2021-08-09T12:53:11Z</time>
      </trkpt>
      <trkpt lat="48.21014" lon="-3.00397">
        <ele>143.6</ele>
        <time>2021-08-09T12:53:12Z</time>
      </trkpt>
      <trkpt lat="48.21018" lon="-3.00401">
        <ele>143.6</ele>
        <time>2021-08-09T12:53:13Z</time>
      </trkpt>
      <trkpt lat="48.21021" lon="-3.00405">
        <ele>143.6</ele>
        <time>2021-08-09T12:53:14Z</time>
      </trkpt>
      <trkpt lat="48.21025" lon="-3.00408">
        <ele>143.8</ele>
        <time>2021-08-09T12:53:15Z</time>
      </trkpt>
      <trkpt lat="48.21028" lon="-3.00412">
        <ele>143.8</ele>
        <time>2021-08-09T12:53:16Z</time>
      </trkpt>
      <trkpt lat="48.21031" lon="-3.00415">
        <ele>143.8</ele>
        <time>2021-08-09T12:53:17Z</time>
      </trkpt>
      <trkpt lat="48.21034" lon="-3.00419">
        <ele>143.8</ele>
        <time>2021-08-09T12:53:18Z</time>
      </trkpt>
      <trkpt lat="48.21037" lon="-3.00423">
        <ele>143.8</ele>
        <time>2021-08-09T12:53:19Z</time>
      </trkpt>
      <trkpt lat="48.21041" lon="-3.00428">
        <ele>143.8</ele>
        <time>2021-08-09T12:53:20Z</time>
      </trkpt>
      <trkpt lat="48.21047" lon="-3.00436">
        <ele>143.8</ele>
        <time>2021-08-09T12:53:22Z</time>
      </trkpt>
      <trkpt lat="48.21051" lon="-3.00441">
        <ele>143.8</ele>
        <time>2021-08-09T12:53:23Z</time>
      </trkpt>
      <trkpt lat="48.21055" lon="-3.00446">
        <ele>143.8</ele>
        <time>2021-08-09T12:53:24Z</time>
      </trkpt>
      <trkpt lat="48.21059" lon="-3.00451">
        <ele>143.8</ele>
        <time>2021-08-09T12:53:25Z</time>
      </trkpt>
      <trkpt lat="48.21064" lon="-3.00457">
        <ele>143.8</ele>
        <time>2021-08-09T12:53:26Z</time>
      </trkpt>
      <trkpt lat="48.21068" lon="-3.00462">
        <ele>143.8</ele>
        <time>2021-08-09T12:53:27Z</time>
      </trkpt>
      <trkpt lat="48.21073" lon="-3.00468">
        <ele>143.8</ele>
        <time>2021-08-09T12:53:28Z</time>
      </trkpt>
      <trkpt lat="48.21078" lon="-3.00474">
        <ele>143.8</ele>
        <time>2021-08-09T12:53:29Z</time>
      </trkpt>
      <trkpt lat="48.21082" lon="-3.0048">
        <ele>143.8</ele>
        <time>2021-08-09T12:53:30Z</time>
      </trkpt>
      <trkpt lat="48.21087" lon="-3.00485">
        <ele>143.8</ele>
        <time>2021-08-09T12:53:31Z</time>
      </trkpt>
      <trkpt lat="48.21099" lon="-3.00496">
        <ele>143.8</ele>
        <time>2021-08-09T12:53:33Z</time>
      </trkpt>
      <trkpt lat="48.21107" lon="-3.00504">
        <ele>143.8</ele>
        <time>2021-08-09T12:53:34Z</time>
      </trkpt>
      <trkpt lat="48.21114" lon="-3.00511">
        <ele>143.8</ele>
        <time>2021-08-09T12:53:35Z</time>
      </trkpt>
      <trkpt lat="48.21119" lon="-3.00518">
        <ele>143.8</ele>
        <time>2021-08-09T12:53:36Z</time>
      </trkpt>
      <trkpt lat="48.21125" lon="-3.00524">
        <ele>143.8</ele>
        <time>2021-08-09T12:53:37Z</time>
      </trkpt>
      <trkpt lat="48.21131" lon="-3.0053">
        <ele>143.8</ele>
        <time>2021-08-09T12:53:38Z</time>
      </trkpt>
      <trkpt lat="48.21139" lon="-3.00537">
        <ele>143.8</ele>
        <time>2021-08-09T12:53:39Z</time>
      </trkpt>
      <trkpt lat="48.21145" lon="-3.00543">
        <ele>143.6</ele>
        <time>2021-08-09T12:53:40Z</time>
      </trkpt>
      <trkpt lat="48.21152" lon="-3.0055">
        <ele>143.6</ele>
        <time>2021-08-09T12:53:41Z</time>
      </trkpt>
      <trkpt lat="48.21158" lon="-3.00556">
        <ele>143.6</ele>
        <time>2021-08-09T12:53:42Z</time>
      </trkpt>
      <trkpt lat="48.2117" lon="-3.00569">
        <ele>143.2</ele>
        <time>2021-08-09T12:53:44Z</time>
      </trkpt>
      <trkpt lat="48.21176" lon="-3.00575">
        <ele>143.2</ele>
        <time>2021-08-09T12:53:45Z</time>
      </trkpt>
      <trkpt lat="48.21182" lon="-3.00581">
        <ele>143.2</ele>
        <time>2021-08-09T12:53:46Z</time>
      </trkpt>
      <trkpt lat="48.21187" lon="-3.00586">
        <ele>143</ele>
        <time>2021-08-09T12:53:47Z</time>
      </trkpt>
      <trkpt lat="48.21192" lon="-3.00592">
        <ele>143</ele>
        <time>2021-08-09T12:53:48Z</time>
      </trkpt>
      <trkpt lat="48.21198" lon="-3.00597">
        <ele>143</ele>
        <time>2021-08-09T12:53:49Z</time>
      </trkpt>
      <trkpt lat="48.21203" lon="-3.00603">
        <ele>143</ele>
        <time>2021-08-09T12:53:50Z</time>
      </trkpt>
      <trkpt lat="48.21208" lon="-3.00608">
        <ele>143</ele>
        <time>2021-08-09T12:53:51Z</time>
      </trkpt>
      <trkpt lat="48.21213" lon="-3.00614">
        <ele>142.8</ele>
        <time>2021-08-09T12:53:52Z</time>
      </trkpt>
      <trkpt lat="48.21217" lon="-3.00619">
        <ele>142.6</ele>
        <time>2021-08-09T12:53:53Z</time>
      </trkpt>
      <trkpt lat="48.21222" lon="-3.00624">
        <ele>142.4</ele>
        <time>2021-08-09T12:53:54Z</time>
      </trkpt>
      <trkpt lat="48.21226" lon="-3.0063">
        <ele>142.4</ele>
        <time>2021-08-09T12:53:55Z</time>
      </trkpt>
      <trkpt lat="48.2123" lon="-3.00634">
        <ele>142.4</ele>
        <time>2021-08-09T12:53:56Z</time>
      </trkpt>
      <trkpt lat="48.21233" lon="-3.00638">
        <ele>142.4</ele>
        <time>2021-08-09T12:53:57Z</time>
      </trkpt>
      <trkpt lat="48.21236" lon="-3.00642">
        <ele>142.4</ele>
        <time>2021-08-09T12:53:58Z</time>
      </trkpt>
      <trkpt lat="48.21239" lon="-3.00646">
        <ele>142.4</ele>
        <time>2021-08-09T12:53:59Z</time>
      </trkpt>
      <trkpt lat="48.21242" lon="-3.0065">
        <ele>142.4</ele>
        <time>2021-08-09T12:54:00Z</time>
      </trkpt>
      <trkpt lat="48.21243" lon="-3.00654">
        <ele>142.4</ele>
        <time>2021-08-09T12:54:01Z</time>
      </trkpt>
      <trkpt lat="48.21243" lon="-3.00658">
        <ele>142.4</ele>
        <time>2021-08-09T12:54:02Z</time>
      </trkpt>
      <trkpt lat="48.21242" lon="-3.00662">
        <ele>142.2</ele>
        <time>2021-08-09T12:54:03Z</time>
      </trkpt>
      <trkpt lat="48.21242" lon="-3.00667">
        <ele>142.2</ele>
        <time>2021-08-09T12:54:04Z</time>
      </trkpt>
      <trkpt lat="48.2124" lon="-3.00675">
        <ele>141.8</ele>
        <time>2021-08-09T12:54:06Z</time>
      </trkpt>
      <trkpt lat="48.21239" lon="-3.00679">
        <ele>141.8</ele>
        <time>2021-08-09T12:54:07Z</time>
      </trkpt>
      <trkpt lat="48.21239" lon="-3.00683">
        <ele>141.8</ele>
        <time>2021-08-09T12:54:08Z</time>
      </trkpt>
      <trkpt lat="48.21238" lon="-3.00686">
        <ele>142</ele>
        <time>2021-08-09T12:54:09Z</time>
      </trkpt>
      <trkpt lat="48.21237" lon="-3.00691">
        <ele>141.8</ele>
        <time>2021-08-09T12:54:10Z</time>
      </trkpt>
      <trkpt lat="48.21236" lon="-3.00696">
        <ele>141.8</ele>
        <time>2021-08-09T12:54:11Z</time>
      </trkpt>
      <trkpt lat="48.21235" lon="-3.00701">
        <ele>141.8</ele>
        <time>2021-08-09T12:54:12Z</time>
      </trkpt>
      <trkpt lat="48.21234" lon="-3.00707">
        <ele>141.6</ele>
        <time>2021-08-09T12:54:13Z</time>
      </trkpt>
      <trkpt lat="48.21232" lon="-3.00713">
        <ele>141.4</ele>
        <time>2021-08-09T12:54:14Z</time>
      </trkpt>
      <trkpt lat="48.21231" lon="-3.0072">
        <ele>141.2</ele>
        <time>2021-08-09T12:54:15Z</time>
      </trkpt>
      <trkpt lat="48.21228" lon="-3.00735">
        <ele>141.2</ele>
        <time>2021-08-09T12:54:17Z</time>
      </trkpt>
      <trkpt lat="48.21226" lon="-3.00742">
        <ele>141.2</ele>
        <time>2021-08-09T12:54:18Z</time>
      </trkpt>
      <trkpt lat="48.21224" lon="-3.00751">
        <ele>141</ele>
        <time>2021-08-09T12:54:19Z</time>
      </trkpt>
      <trkpt lat="48.21222" lon="-3.00759">
        <ele>140.6</ele>
        <time>2021-08-09T12:54:20Z</time>
      </trkpt>
      <trkpt lat="48.2122" lon="-3.00769">
        <ele>139.8</ele>
        <time>2021-08-09T12:54:21Z</time>
      </trkpt>
      <trkpt lat="48.21217" lon="-3.00779">
        <ele>138.8</ele>
        <time>2021-08-09T12:54:22Z</time>
      </trkpt>
      <trkpt lat="48.21215" lon="-3.00789">
        <ele>138</ele>
        <time>2021-08-09T12:54:23Z</time>
      </trkpt>
      <trkpt lat="48.21213" lon="-3.008">
        <ele>137.6</ele>
        <time>2021-08-09T12:54:24Z</time>
      </trkpt>
      <trkpt lat="48.21212" lon="-3.00811">
        <ele>137</ele>
        <time>2021-08-09T12:54:25Z</time>
      </trkpt>
      <trkpt lat="48.21211" lon="-3.00823">
        <ele>136.2</ele>
        <time>2021-08-09T12:54:26Z</time>
      </trkpt>
      <trkpt lat="48.21211" lon="-3.00835">
        <ele>135.6</ele>
        <time>2021-08-09T12:54:27Z</time>
      </trkpt>
      <trkpt lat="48.21212" lon="-3.00848">
        <ele>135.2</ele>
        <time>2021-08-09T12:54:28Z</time>
      </trkpt>
      <trkpt lat="48.21214" lon="-3.00861">
        <ele>135</ele>
        <time>2021-08-09T12:54:29Z</time>
      </trkpt>
      <trkpt lat="48.21216" lon="-3.00875">
        <ele>134.4</ele>
        <time>2021-08-09T12:54:30Z</time>
      </trkpt>
      <trkpt lat="48.21219" lon="-3.00889">
        <ele>134</ele>
        <time>2021-08-09T12:54:31Z</time>
      </trkpt>
      <trkpt lat="48.21223" lon="-3.00904">
        <ele>133.4</ele>
        <time>2021-08-09T12:54:32Z</time>
      </trkpt>
      <trkpt lat="48.21227" lon="-3.00919">
        <ele>132.4</ele>
        <time>2021-08-09T12:54:33Z</time>
      </trkpt>
      <trkpt lat="48.21231" lon="-3.00935">
        <ele>131.6</ele>
        <time>2021-08-09T12:54:34Z</time>
      </trkpt>
      <trkpt lat="48.21235" lon="-3.00952">
        <ele>131.2</ele>
        <time>2021-08-09T12:54:35Z</time>
      </trkpt>
      <trkpt lat="48.21239" lon="-3.0097">
        <ele>130.6</ele>
        <time>2021-08-09T12:54:36Z</time>
      </trkpt>
      <trkpt lat="48.21242" lon="-3.00989">
        <ele>129.8</ele>
        <time>2021-08-09T12:54:37Z</time>
      </trkpt>
      <trkpt lat="48.21247" lon="-3.0103">
        <ele>128.2</ele>
        <time>2021-08-09T12:54:39Z</time>
      </trkpt>
      <trkpt lat="48.2125" lon="-3.01053">
        <ele>127.6</ele>
        <time>2021-08-09T12:54:40Z</time>
      </trkpt>
      <trkpt lat="48.21253" lon="-3.01075">
        <ele>127</ele>
        <time>2021-08-09T12:54:41Z</time>
      </trkpt>
      <trkpt lat="48.21255" lon="-3.01096">
        <ele>126</ele>
        <time>2021-08-09T12:54:42Z</time>
      </trkpt>
      <trkpt lat="48.21259" lon="-3.01117">
        <ele>123.6</ele>
        <time>2021-08-09T12:54:43Z</time>
      </trkpt>
      <trkpt lat="48.21264" lon="-3.01136">
        <ele>121.4</ele>
        <time>2021-08-09T12:54:44Z</time>
      </trkpt>
      <trkpt lat="48.21269" lon="-3.01155">
        <ele>118.8</ele>
        <time>2021-08-09T12:54:45Z</time>
      </trkpt>
      <trkpt lat="48.21273" lon="-3.01174">
        <ele>116.6</ele>
        <time>2021-08-09T12:54:46Z</time>
      </trkpt>
      <trkpt lat="48.21277" lon="-3.01193">
        <ele>115.2</ele>
        <time>2021-08-09T12:54:47Z</time>
      </trkpt>
      <trkpt lat="48.2128" lon="-3.01211">
        <ele>114.6</ele>
        <time>2021-08-09T12:54:48Z</time>
      </trkpt>
      <trkpt lat="48.21283" lon="-3.01227">
        <ele>114.2</ele>
        <time>2021-08-09T12:54:49Z</time>
      </trkpt>
      <trkpt lat="48.21286" lon="-3.01243">
        <ele>113.8</ele>
        <time>2021-08-09T12:54:50Z</time>
      </trkpt>
      <trkpt lat="48.21289" lon="-3.01256">
        <ele>113.8</ele>
        <time>2021-08-09T12:54:51Z</time>
      </trkpt>
      <trkpt lat="48.21292" lon="-3.01268">
        <ele>113.8</ele>
        <time>2021-08-09T12:54:52Z</time>
      </trkpt>
      <trkpt lat="48.21296" lon="-3.01277">
        <ele>113.8</ele>
        <time>2021-08-09T12:54:53Z</time>
      </trkpt>
      <trkpt lat="48.21299" lon="-3.01286">
        <ele>113.8</ele>
        <time>2021-08-09T12:54:54Z</time>
      </trkpt>
      <trkpt lat="48.21302" lon="-3.01295">
        <ele>113.8</ele>
        <time>2021-08-09T12:54:55Z</time>
      </trkpt>
      <trkpt lat="48.21305" lon="-3.01302">
        <ele>114.2</ele>
        <time>2021-08-09T12:54:56Z</time>
      </trkpt>
      <trkpt lat="48.21308" lon="-3.0131">
        <ele>115</ele>
        <time>2021-08-09T12:54:57Z</time>
      </trkpt>
      <trkpt lat="48.2131" lon="-3.01317">
        <ele>116.4</ele>
        <time>2021-08-09T12:54:58Z</time>
      </trkpt>
      <trkpt lat="48.21313" lon="-3.01324">
        <ele>118.2</ele>
        <time>2021-08-09T12:54:59Z</time>
      </trkpt>
      <trkpt lat="48.21314" lon="-3.01331">
        <ele>120.6</ele>
        <time>2021-08-09T12:55:00Z</time>
      </trkpt>
      <trkpt lat="48.21315" lon="-3.01338">
        <ele>122.4</ele>
        <time>2021-08-09T12:55:01Z</time>
      </trkpt>
      <trkpt lat="48.21316" lon="-3.01345">
        <ele>123.8</ele>
        <time>2021-08-09T12:55:02Z</time>
      </trkpt>
      <trkpt lat="48.21317" lon="-3.01352">
        <ele>124.8</ele>
        <time>2021-08-09T12:55:03Z</time>
      </trkpt>
      <trkpt lat="48.21318" lon="-3.01358">
        <ele>125.6</ele>
        <time>2021-08-09T12:55:04Z</time>
      </trkpt>
      <trkpt lat="48.21319" lon="-3.01364">
        <ele>126.2</ele>
        <time>2021-08-09T12:55:05Z</time>
      </trkpt>
      <trkpt lat="48.2132" lon="-3.0137">
        <ele>126.8</ele>
        <time>2021-08-09T12:55:06Z</time>
      </trkpt>
      <trkpt lat="48.2132" lon="-3.01376">
        <ele>127</ele>
        <time>2021-08-09T12:55:07Z</time>
      </trkpt>
      <trkpt lat="48.21321" lon="-3.01381">
        <ele>127.2</ele>
        <time>2021-08-09T12:55:08Z</time>
      </trkpt>
      <trkpt lat="48.21322" lon="-3.01387">
        <ele>127.4</ele>
        <time>2021-08-09T12:55:09Z</time>
      </trkpt>
      <trkpt lat="48.21323" lon="-3.01392">
        <ele>127.4</ele>
        <time>2021-08-09T12:55:10Z</time>
      </trkpt>
      <trkpt lat="48.21324" lon="-3.01402">
        <ele>127.8</ele>
        <time>2021-08-09T12:55:12Z</time>
      </trkpt>
      <trkpt lat="48.21325" lon="-3.01406">
        <ele>127.8</ele>
        <time>2021-08-09T12:55:13Z</time>
      </trkpt>
      <trkpt lat="48.21326" lon="-3.01411">
        <ele>128</ele>
        <time>2021-08-09T12:55:14Z</time>
      </trkpt>
      <trkpt lat="48.21327" lon="-3.01415">
        <ele>128.2</ele>
        <time>2021-08-09T12:55:15Z</time>
      </trkpt>
      <trkpt lat="48.21328" lon="-3.0142">
        <ele>128.4</ele>
        <time>2021-08-09T12:55:16Z</time>
      </trkpt>
      <trkpt lat="48.21329" lon="-3.01425">
        <ele>128.6</ele>
        <time>2021-08-09T12:55:17Z</time>
      </trkpt>
      <trkpt lat="48.21331" lon="-3.01429">
        <ele>128.6</ele>
        <time>2021-08-09T12:55:18Z</time>
      </trkpt>
      <trkpt lat="48.21332" lon="-3.01434">
        <ele>128.8</ele>
        <time>2021-08-09T12:55:19Z</time>
      </trkpt>
      <trkpt lat="48.21333" lon="-3.01439">
        <ele>129</ele>
        <time>2021-08-09T12:55:20Z</time>
      </trkpt>
      <trkpt lat="48.21335" lon="-3.01443">
        <ele>129.2</ele>
        <time>2021-08-09T12:55:21Z</time>
      </trkpt>
      <trkpt lat="48.21338" lon="-3.01452">
        <ele>129.4</ele>
        <time>2021-08-09T12:55:23Z</time>
      </trkpt>
      <trkpt lat="48.2134" lon="-3.01457">
        <ele>129.4</ele>
        <time>2021-08-09T12:55:24Z</time>
      </trkpt>
      <trkpt lat="48.21341" lon="-3.01461">
        <ele>129.4</ele>
        <time>2021-08-09T12:55:25Z</time>
      </trkpt>
      <trkpt lat="48.21342" lon="-3.01466">
        <ele>129.6</ele>
        <time>2021-08-09T12:55:26Z</time>
      </trkpt>
      <trkpt lat="48.21344" lon="-3.0147">
        <ele>129.6</ele>
        <time>2021-08-09T12:55:27Z</time>
      </trkpt>
      <trkpt lat="48.21345" lon="-3.01473">
        <ele>129.6</ele>
        <time>2021-08-09T12:55:28Z</time>
      </trkpt>
      <trkpt lat="48.21346" lon="-3.01476">
        <ele>129.8</ele>
        <time>2021-08-09T12:55:29Z</time>
      </trkpt>
      <trkpt lat="48.21347" lon="-3.0148">
        <ele>129.8</ele>
        <time>2021-08-09T12:55:30Z</time>
      </trkpt>
      <trkpt lat="48.21348" lon="-3.01482">
        <ele>129.8</ele>
        <time>2021-08-09T12:55:31Z</time>
      </trkpt>
      <trkpt lat="48.2135" lon="-3.01485">
        <ele>129.8</ele>
        <time>2021-08-09T12:55:32Z</time>
      </trkpt>
      <trkpt lat="48.21352" lon="-3.01491">
        <ele>130</ele>
        <time>2021-08-09T12:55:34Z</time>
      </trkpt>
      <trkpt lat="48.21353" lon="-3.01494">
        <ele>130.2</ele>
        <time>2021-08-09T12:55:35Z</time>
      </trkpt>
      <trkpt lat="48.21354" lon="-3.01496">
        <ele>130.4</ele>
        <time>2021-08-09T12:55:36Z</time>
      </trkpt>
      <trkpt lat="48.21355" lon="-3.01497">
        <ele>130.4</ele>
        <time>2021-08-09T12:55:37Z</time>
      </trkpt>
      <trkpt lat="48.21356" lon="-3.01498">
        <ele>130.4</ele>
        <time>2021-08-09T12:55:38Z</time>
      </trkpt>
      <trkpt lat="48.21357" lon="-3.01499">
        <ele>130.6</ele>
        <time>2021-08-09T12:55:39Z</time>
      </trkpt>
      <trkpt lat="48.21358" lon="-3.01499">
        <ele>130.8</ele>
        <time>2021-08-09T12:55:40Z</time>
      </trkpt>
      <trkpt lat="48.21359" lon="-3.01501">
        <ele>131</ele>
        <time>2021-08-09T12:55:41Z</time>
      </trkpt>
      <trkpt lat="48.2136" lon="-3.01502">
        <ele>131</ele>
        <time>2021-08-09T12:55:42Z</time>
      </trkpt>
      <trkpt lat="48.21361" lon="-3.01503">
        <ele>131.2</ele>
        <time>2021-08-09T12:55:43Z</time>
      </trkpt>
      <trkpt lat="48.21361" lon="-3.01508">
        <ele>131.4</ele>
        <time>2021-08-09T12:55:45Z</time>
      </trkpt>
      <trkpt lat="48.21361" lon="-3.01511">
        <ele>131.4</ele>
        <time>2021-08-09T12:55:46Z</time>
      </trkpt>
      <trkpt lat="48.21361" lon="-3.01515">
        <ele>131.4</ele>
        <time>2021-08-09T12:55:47Z</time>
      </trkpt>
      <trkpt lat="48.21361" lon="-3.01519">
        <ele>131.4</ele>
        <time>2021-08-09T12:55:48Z</time>
      </trkpt>
      <trkpt lat="48.21361" lon="-3.01524">
        <ele>131.4</ele>
        <time>2021-08-09T12:55:49Z</time>
      </trkpt>
      <trkpt lat="48.21362" lon="-3.0153">
        <ele>131.4</ele>
        <time>2021-08-09T12:55:50Z</time>
      </trkpt>
      <trkpt lat="48.21362" lon="-3.01537">
        <ele>131.4</ele>
        <time>2021-08-09T12:55:51Z</time>
      </trkpt>
      <trkpt lat="48.21363" lon="-3.01544">
        <ele>131.4</ele>
        <time>2021-08-09T12:55:52Z</time>
      </trkpt>
      <trkpt lat="48.21363" lon="-3.01551">
        <ele>131.4</ele>
        <time>2021-08-09T12:55:53Z</time>
      </trkpt>
      <trkpt lat="48.21363" lon="-3.01558">
        <ele>131.4</ele>
        <time>2021-08-09T12:55:54Z</time>
      </trkpt>
      <trkpt lat="48.21364" lon="-3.01573">
        <ele>131</ele>
        <time>2021-08-09T12:55:56Z</time>
      </trkpt>
      <trkpt lat="48.21364" lon="-3.01581">
        <ele>130.6</ele>
        <time>2021-08-09T12:55:57Z</time>
      </trkpt>
      <trkpt lat="48.21364" lon="-3.01588">
        <ele>130.4</ele>
        <time>2021-08-09T12:55:58Z</time>
      </trkpt>
      <trkpt lat="48.21364" lon="-3.01595">
        <ele>130</ele>
        <time>2021-08-09T12:55:59Z</time>
      </trkpt>
      <trkpt lat="48.21364" lon="-3.01603">
        <ele>129.8</ele>
        <time>2021-08-09T12:56:00Z</time>
      </trkpt>
      <trkpt lat="48.21364" lon="-3.0161">
        <ele>129.6</ele>
        <time>2021-08-09T12:56:01Z</time>
      </trkpt>
      <trkpt lat="48.21364" lon="-3.01617">
        <ele>129.6</ele>
        <time>2021-08-09T12:56:02Z</time>
      </trkpt>
      <trkpt lat="48.21363" lon="-3.01624">
        <ele>129.4</ele>
        <time>2021-08-09T12:56:03Z</time>
      </trkpt>
      <trkpt lat="48.21363" lon="-3.0163">
        <ele>129.4</ele>
        <time>2021-08-09T12:56:04Z</time>
      </trkpt>
      <trkpt lat="48.21363" lon="-3.01637">
        <ele>129.4</ele>
        <time>2021-08-09T12:56:05Z</time>
      </trkpt>
      <trkpt lat="48.21362" lon="-3.01644">
        <ele>129.4</ele>
        <time>2021-08-09T12:56:06Z</time>
      </trkpt>
      <trkpt lat="48.21361" lon="-3.01651">
        <ele>129.4</ele>
        <time>2021-08-09T12:56:07Z</time>
      </trkpt>
      <trkpt lat="48.2136" lon="-3.01658">
        <ele>129.4</ele>
        <time>2021-08-09T12:56:08Z</time>
      </trkpt>
      <trkpt lat="48.21359" lon="-3.01664">
        <ele>129.4</ele>
        <time>2021-08-09T12:56:09Z</time>
      </trkpt>
      <trkpt lat="48.21357" lon="-3.01671">
        <ele>129.2</ele>
        <time>2021-08-09T12:56:10Z</time>
      </trkpt>
      <trkpt lat="48.21352" lon="-3.01682">
        <ele>129.2</ele>
        <time>2021-08-09T12:56:12Z</time>
      </trkpt>
      <trkpt lat="48.2135" lon="-3.01687">
        <ele>129.2</ele>
        <time>2021-08-09T12:56:13Z</time>
      </trkpt>
      <trkpt lat="48.21348" lon="-3.01692">
        <ele>129.2</ele>
        <time>2021-08-09T12:56:14Z</time>
      </trkpt>
      <trkpt lat="48.21346" lon="-3.01697">
        <ele>129</ele>
        <time>2021-08-09T12:56:15Z</time>
      </trkpt>
      <trkpt lat="48.21344" lon="-3.01702">
        <ele>129</ele>
        <time>2021-08-09T12:56:16Z</time>
      </trkpt>
      <trkpt lat="48.2134" lon="-3.01709">
        <ele>128.8</ele>
        <time>2021-08-09T12:56:18Z</time>
      </trkpt>
      <trkpt lat="48.21338" lon="-3.01713">
        <ele>128.6</ele>
        <time>2021-08-09T12:56:19Z</time>
      </trkpt>
      <trkpt lat="48.21335" lon="-3.01722">
        <ele>128.4</ele>
        <time>2021-08-09T12:56:21Z</time>
      </trkpt>
      <trkpt lat="48.21333" lon="-3.01726">
        <ele>128.4</ele>
        <time>2021-08-09T12:56:22Z</time>
      </trkpt>
      <trkpt lat="48.2133" lon="-3.01736">
        <ele>128</ele>
        <time>2021-08-09T12:56:24Z</time>
      </trkpt>
      <trkpt lat="48.21328" lon="-3.01741">
        <ele>128</ele>
        <time>2021-08-09T12:56:25Z</time>
      </trkpt>
      <trkpt lat="48.21326" lon="-3.01747">
        <ele>127.8</ele>
        <time>2021-08-09T12:56:26Z</time>
      </trkpt>
      <trkpt lat="48.21324" lon="-3.01754">
        <ele>127.6</ele>
        <time>2021-08-09T12:56:27Z</time>
      </trkpt>
      <trkpt lat="48.21322" lon="-3.0176">
        <ele>127.2</ele>
        <time>2021-08-09T12:56:28Z</time>
      </trkpt>
      <trkpt lat="48.2132" lon="-3.01768">
        <ele>127</ele>
        <time>2021-08-09T12:56:29Z</time>
      </trkpt>
      <trkpt lat="48.21316" lon="-3.01784">
        <ele>126.4</ele>
        <time>2021-08-09T12:56:31Z</time>
      </trkpt>
      <trkpt lat="48.21313" lon="-3.01792">
        <ele>126.4</ele>
        <time>2021-08-09T12:56:32Z</time>
      </trkpt>
      <trkpt lat="48.21309" lon="-3.01809">
        <ele>126.2</ele>
        <time>2021-08-09T12:56:34Z</time>
      </trkpt>
      <trkpt lat="48.21306" lon="-3.01819">
        <ele>126</ele>
        <time>2021-08-09T12:56:35Z</time>
      </trkpt>
      <trkpt lat="48.21304" lon="-3.01828">
        <ele>125.6</ele>
        <time>2021-08-09T12:56:36Z</time>
      </trkpt>
      <trkpt lat="48.213" lon="-3.01836">
        <ele>125.2</ele>
        <time>2021-08-09T12:56:37Z</time>
      </trkpt>
      <trkpt lat="48.21297" lon="-3.01845">
        <ele>124.8</ele>
        <time>2021-08-09T12:56:38Z</time>
      </trkpt>
      <trkpt lat="48.21294" lon="-3.01855">
        <ele>124.4</ele>
        <time>2021-08-09T12:56:39Z</time>
      </trkpt>
      <trkpt lat="48.21292" lon="-3.01865">
        <ele>124</ele>
        <time>2021-08-09T12:56:40Z</time>
      </trkpt>
      <trkpt lat="48.21289" lon="-3.01875">
        <ele>123.4</ele>
        <time>2021-08-09T12:56:41Z</time>
      </trkpt>
      <trkpt lat="48.21286" lon="-3.01885">
        <ele>122.8</ele>
        <time>2021-08-09T12:56:42Z</time>
      </trkpt>
      <trkpt lat="48.21284" lon="-3.01895">
        <ele>122.4</ele>
        <time>2021-08-09T12:56:43Z</time>
      </trkpt>
      <trkpt lat="48.21279" lon="-3.01912">
        <ele>121.8</ele>
        <time>2021-08-09T12:56:45Z</time>
      </trkpt>
      <trkpt lat="48.21277" lon="-3.01921">
        <ele>120.8</ele>
        <time>2021-08-09T12:56:46Z</time>
      </trkpt>
      <trkpt lat="48.21275" lon="-3.0193">
        <ele>120</ele>
        <time>2021-08-09T12:56:47Z</time>
      </trkpt>
      <trkpt lat="48.21273" lon="-3.01938">
        <ele>119.2</ele>
        <time>2021-08-09T12:56:48Z</time>
      </trkpt>
      <trkpt lat="48.21272" lon="-3.01952">
        <ele>118.8</ele>
        <time>2021-08-09T12:56:50Z</time>
      </trkpt>
      <trkpt lat="48.21273" lon="-3.01959">
        <ele>118.6</ele>
        <time>2021-08-09T12:56:51Z</time>
      </trkpt>
      <trkpt lat="48.21274" lon="-3.01965">
        <ele>118.2</ele>
        <time>2021-08-09T12:56:52Z</time>
      </trkpt>
      <trkpt lat="48.21275" lon="-3.01971">
        <ele>118.2</ele>
        <time>2021-08-09T12:56:53Z</time>
      </trkpt>
      <trkpt lat="48.21277" lon="-3.01977">
        <ele>118.2</ele>
        <time>2021-08-09T12:56:54Z</time>
      </trkpt>
      <trkpt lat="48.21279" lon="-3.01983">
        <ele>118</ele>
        <time>2021-08-09T12:56:55Z</time>
      </trkpt>
      <trkpt lat="48.21281" lon="-3.01988">
        <ele>118</ele>
        <time>2021-08-09T12:56:56Z</time>
      </trkpt>
      <trkpt lat="48.21282" lon="-3.01993">
        <ele>118</ele>
        <time>2021-08-09T12:56:57Z</time>
      </trkpt>
      <trkpt lat="48.21284" lon="-3.01998">
        <ele>118.2</ele>
        <time>2021-08-09T12:56:58Z</time>
      </trkpt>
      <trkpt lat="48.21286" lon="-3.02003">
        <ele>118.2</ele>
        <time>2021-08-09T12:56:59Z</time>
      </trkpt>
      <trkpt lat="48.21289" lon="-3.02012">
        <ele>118.4</ele>
        <time>2021-08-09T12:57:01Z</time>
      </trkpt>
      <trkpt lat="48.21291" lon="-3.02017">
        <ele>118.4</ele>
        <time>2021-08-09T12:57:02Z</time>
      </trkpt>
      <trkpt lat="48.21293" lon="-3.02022">
        <ele>118.6</ele>
        <time>2021-08-09T12:57:03Z</time>
      </trkpt>
      <trkpt lat="48.21295" lon="-3.02027">
        <ele>118.6</ele>
        <time>2021-08-09T12:57:04Z</time>
      </trkpt>
      <trkpt lat="48.21296" lon="-3.02031">
        <ele>118.6</ele>
        <time>2021-08-09T12:57:05Z</time>
      </trkpt>
      <trkpt lat="48.21298" lon="-3.02035">
        <ele>118.6</ele>
        <time>2021-08-09T12:57:06Z</time>
      </trkpt>
      <trkpt lat="48.213" lon="-3.02039">
        <ele>118.8</ele>
        <time>2021-08-09T12:57:07Z</time>
      </trkpt>
      <trkpt lat="48.21302" lon="-3.02041">
        <ele>118.8</ele>
        <time>2021-08-09T12:57:08Z</time>
      </trkpt>
      <trkpt lat="48.21303" lon="-3.02043">
        <ele>118.8</ele>
        <time>2021-08-09T12:57:09Z</time>
      </trkpt>
      <trkpt lat="48.21304" lon="-3.02045">
        <ele>118.8</ele>
        <time>2021-08-09T12:57:10Z</time>
      </trkpt>
      <trkpt lat="48.21305" lon="-3.0205">
        <ele>118.8</ele>
        <time>2021-08-09T12:57:12Z</time>
      </trkpt>
      <trkpt lat="48.21306" lon="-3.02052">
        <ele>118.8</ele>
        <time>2021-08-09T12:57:13Z</time>
      </trkpt>
      <trkpt lat="48.21306" lon="-3.02053">
        <ele>119</ele>
        <time>2021-08-09T12:57:14Z</time>
      </trkpt>
      <trkpt lat="48.21305" lon="-3.02048">
        <ele>120</ele>
        <time>2021-08-09T13:08:23Z</time>
      </trkpt>
      <trkpt lat="48.21305" lon="-3.02047">
        <ele>120</ele>
        <time>2021-08-09T13:08:24Z</time>
      </trkpt>
      <trkpt lat="48.21305" lon="-3.02047">
        <ele>120.2</ele>
        <time>2021-08-09T13:08:25Z</time>
      </trkpt>
      <trkpt lat="48.21305" lon="-3.02047">
        <ele>120.2</ele>
        <time>2021-08-09T13:08:26Z</time>
      </trkpt>
      <trkpt lat="48.21304" lon="-3.02047">
        <ele>120.2</ele>
        <time>2021-08-09T13:08:27Z</time>
      </trkpt>
      <trkpt lat="48.21304" lon="-3.02047">
        <ele>120.2</ele>
        <time>2021-08-09T13:08:28Z</time>
      </trkpt>
      <trkpt lat="48.21303" lon="-3.02046">
        <ele>120.2</ele>
        <time>2021-08-09T13:08:29Z</time>
      </trkpt>
      <trkpt lat="48.21302" lon="-3.02045">
        <ele>120.2</ele>
        <time>2021-08-09T13:08:30Z</time>
      </trkpt>
      <trkpt lat="48.21301" lon="-3.02043">
        <ele>120.2</ele>
        <time>2021-08-09T13:08:31Z</time>
      </trkpt>
      <trkpt lat="48.21299" lon="-3.02041">
        <ele>120.2</ele>
        <time>2021-08-09T13:08:32Z</time>
      </trkpt>
      <trkpt lat="48.21297" lon="-3.02038">
        <ele>120.2</ele>
        <time>2021-08-09T13:08:33Z</time>
      </trkpt>
      <trkpt lat="48.21295" lon="-3.02034">
        <ele>120.2</ele>
        <time>2021-08-09T13:08:34Z</time>
      </trkpt>
      <trkpt lat="48.21293" lon="-3.0203">
        <ele>120.2</ele>
        <time>2021-08-09T13:08:35Z</time>
      </trkpt>
      <trkpt lat="48.21292" lon="-3.02026">
        <ele>120.2</ele>
        <time>2021-08-09T13:08:36Z</time>
      </trkpt>
      <trkpt lat="48.2129" lon="-3.02021">
        <ele>120.2</ele>
        <time>2021-08-09T13:08:37Z</time>
      </trkpt>
      <trkpt lat="48.21289" lon="-3.02016">
        <ele>120.2</ele>
        <time>2021-08-09T13:08:38Z</time>
      </trkpt>
      <trkpt lat="48.21287" lon="-3.02011">
        <ele>120.2</ele>
        <time>2021-08-09T13:08:39Z</time>
      </trkpt>
      <trkpt lat="48.21285" lon="-3.02006">
        <ele>120.2</ele>
        <time>2021-08-09T13:08:40Z</time>
      </trkpt>
      <trkpt lat="48.21281" lon="-3.01996">
        <ele>120</ele>
        <time>2021-08-09T13:08:42Z</time>
      </trkpt>
      <trkpt lat="48.2128" lon="-3.01991">
        <ele>120</ele>
        <time>2021-08-09T13:08:43Z</time>
      </trkpt>
      <trkpt lat="48.21278" lon="-3.01985">
        <ele>120</ele>
        <time>2021-08-09T13:08:44Z</time>
      </trkpt>
      <trkpt lat="48.21276" lon="-3.0198">
        <ele>120</ele>
        <time>2021-08-09T13:08:45Z</time>
      </trkpt>
      <trkpt lat="48.21274" lon="-3.01975">
        <ele>120</ele>
        <time>2021-08-09T13:08:46Z</time>
      </trkpt>
      <trkpt lat="48.21273" lon="-3.01969">
        <ele>120</ele>
        <time>2021-08-09T13:08:47Z</time>
      </trkpt>
      <trkpt lat="48.21273" lon="-3.01964">
        <ele>119.8</ele>
        <time>2021-08-09T13:08:48Z</time>
      </trkpt>
      <trkpt lat="48.21272" lon="-3.01959">
        <ele>119.8</ele>
        <time>2021-08-09T13:08:49Z</time>
      </trkpt>
      <trkpt lat="48.21271" lon="-3.01953">
        <ele>119.6</ele>
        <time>2021-08-09T13:08:50Z</time>
      </trkpt>
      <trkpt lat="48.21271" lon="-3.01948">
        <ele>119.6</ele>
        <time>2021-08-09T13:08:51Z</time>
      </trkpt>
      <trkpt lat="48.21271" lon="-3.01943">
        <ele>119.6</ele>
        <time>2021-08-09T13:08:52Z</time>
      </trkpt>
      <trkpt lat="48.21272" lon="-3.01938">
        <ele>119.6</ele>
        <time>2021-08-09T13:08:53Z</time>
      </trkpt>
      <trkpt lat="48.21273" lon="-3.01933">
        <ele>119.6</ele>
        <time>2021-08-09T13:08:54Z</time>
      </trkpt>
      <trkpt lat="48.21274" lon="-3.01928">
        <ele>119.6</ele>
        <time>2021-08-09T13:08:55Z</time>
      </trkpt>
      <trkpt lat="48.21275" lon="-3.01923">
        <ele>119.6</ele>
        <time>2021-08-09T13:08:56Z</time>
      </trkpt>
      <trkpt lat="48.21276" lon="-3.01918">
        <ele>119.6</ele>
        <time>2021-08-09T13:08:57Z</time>
      </trkpt>
      <trkpt lat="48.21277" lon="-3.01914">
        <ele>119.6</ele>
        <time>2021-08-09T13:08:58Z</time>
      </trkpt>
      <trkpt lat="48.21278" lon="-3.01909">
        <ele>119.8</ele>
        <time>2021-08-09T13:08:59Z</time>
      </trkpt>
      <trkpt lat="48.21279" lon="-3.01904">
        <ele>119.8</ele>
        <time>2021-08-09T13:09:00Z</time>
      </trkpt>
      <trkpt lat="48.2128" lon="-3.019">
        <ele>119.8</ele>
        <time>2021-08-09T13:09:01Z</time>
      </trkpt>
      <trkpt lat="48.21281" lon="-3.01896">
        <ele>119.8</ele>
        <time>2021-08-09T13:09:02Z</time>
      </trkpt>
      <trkpt lat="48.21284" lon="-3.01888">
        <ele>120</ele>
        <time>2021-08-09T13:09:04Z</time>
      </trkpt>
      <trkpt lat="48.21284" lon="-3.01884">
        <ele>120</ele>
        <time>2021-08-09T13:09:05Z</time>
      </trkpt>
      <trkpt lat="48.21285" lon="-3.0188">
        <ele>120.2</ele>
        <time>2021-08-09T13:09:06Z</time>
      </trkpt>
      <trkpt lat="48.21286" lon="-3.01877">
        <ele>120.2</ele>
        <time>2021-08-09T13:09:07Z</time>
      </trkpt>
      <trkpt lat="48.21288" lon="-3.01873">
        <ele>120.4</ele>
        <time>2021-08-09T13:09:08Z</time>
      </trkpt>
      <trkpt lat="48.21289" lon="-3.01869">
        <ele>120.6</ele>
        <time>2021-08-09T13:09:09Z</time>
      </trkpt>
      <trkpt lat="48.2129" lon="-3.01865">
        <ele>121.2</ele>
        <time>2021-08-09T13:09:10Z</time>
      </trkpt>
      <trkpt lat="48.21291" lon="-3.01862">
        <ele>121.4</ele>
        <time>2021-08-09T13:09:11Z</time>
      </trkpt>
      <trkpt lat="48.21291" lon="-3.01858">
        <ele>121.8</ele>
        <time>2021-08-09T13:09:12Z</time>
      </trkpt>
      <trkpt lat="48.21292" lon="-3.01855">
        <ele>122</ele>
        <time>2021-08-09T13:09:13Z</time>
      </trkpt>
      <trkpt lat="48.21293" lon="-3.01852">
        <ele>122.2</ele>
        <time>2021-08-09T13:09:14Z</time>
      </trkpt>
      <trkpt lat="48.21294" lon="-3.01849">
        <ele>122.4</ele>
        <time>2021-08-09T13:09:15Z</time>
      </trkpt>
      <trkpt lat="48.21295" lon="-3.01847">
        <ele>122.4</ele>
        <time>2021-08-09T13:09:16Z</time>
      </trkpt>
      <trkpt lat="48.21296" lon="-3.01844">
        <ele>122.6</ele>
        <time>2021-08-09T13:09:17Z</time>
      </trkpt>
      <trkpt lat="48.21296" lon="-3.01843">
        <ele>122.8</ele>
        <time>2021-08-09T13:09:18Z</time>
      </trkpt>
      <trkpt lat="48.21297" lon="-3.01841">
        <ele>122.8</ele>
        <time>2021-08-09T13:09:19Z</time>
      </trkpt>
      <trkpt lat="48.21299" lon="-3.0184">
        <ele>123.2</ele>
        <time>2021-08-09T13:09:20Z</time>
      </trkpt>
      <trkpt lat="48.213" lon="-3.0184">
        <ele>123.4</ele>
        <time>2021-08-09T13:09:21Z</time>
      </trkpt>
      <trkpt lat="48.21302" lon="-3.0184">
        <ele>123.8</ele>
        <time>2021-08-09T13:09:22Z</time>
      </trkpt>
      <trkpt lat="48.21304" lon="-3.0184">
        <ele>124</ele>
        <time>2021-08-09T13:09:23Z</time>
      </trkpt>
      <trkpt lat="48.21306" lon="-3.01841">
        <ele>124.2</ele>
        <time>2021-08-09T13:09:24Z</time>
      </trkpt>
      <trkpt lat="48.21308" lon="-3.01843">
        <ele>124.4</ele>
        <time>2021-08-09T13:09:25Z</time>
      </trkpt>
      <trkpt lat="48.21309" lon="-3.01846">
        <ele>124.6</ele>
        <time>2021-08-09T13:09:26Z</time>
      </trkpt>
      <trkpt lat="48.21311" lon="-3.01849">
        <ele>124.8</ele>
        <time>2021-08-09T13:09:27Z</time>
      </trkpt>
      <trkpt lat="48.21313" lon="-3.01853">
        <ele>124.8</ele>
        <time>2021-08-09T13:09:28Z</time>
      </trkpt>
      <trkpt lat="48.21315" lon="-3.01857">
        <ele>124.8</ele>
        <time>2021-08-09T13:09:29Z</time>
      </trkpt>
      <trkpt lat="48.21317" lon="-3.01861">
        <ele>124.8</ele>
        <time>2021-08-09T13:09:30Z</time>
      </trkpt>
      <trkpt lat="48.21319" lon="-3.01865">
        <ele>124.8</ele>
        <time>2021-08-09T13:09:31Z</time>
      </trkpt>
      <trkpt lat="48.21321" lon="-3.01869">
        <ele>124.8</ele>
        <time>2021-08-09T13:09:32Z</time>
      </trkpt>
      <trkpt lat="48.21324" lon="-3.01873">
        <ele>124.8</ele>
        <time>2021-08-09T13:09:33Z</time>
      </trkpt>
      <trkpt lat="48.21326" lon="-3.01877">
        <ele>124.8</ele>
        <time>2021-08-09T13:09:34Z</time>
      </trkpt>
      <trkpt lat="48.21329" lon="-3.01881">
        <ele>125</ele>
        <time>2021-08-09T13:09:35Z</time>
      </trkpt>
      <trkpt lat="48.21333" lon="-3.01888">
        <ele>124.6</ele>
        <time>2021-08-09T13:09:37Z</time>
      </trkpt>
      <trkpt lat="48.21336" lon="-3.01892">
        <ele>124.6</ele>
        <time>2021-08-09T13:09:38Z</time>
      </trkpt>
      <trkpt lat="48.21339" lon="-3.01895">
        <ele>124.6</ele>
        <time>2021-08-09T13:09:39Z</time>
      </trkpt>
      <trkpt lat="48.21341" lon="-3.01899">
        <ele>124.6</ele>
        <time>2021-08-09T13:09:40Z</time>
      </trkpt>
      <trkpt lat="48.21344" lon="-3.01902">
        <ele>124.8</ele>
        <time>2021-08-09T13:09:41Z</time>
      </trkpt>
      <trkpt lat="48.21346" lon="-3.01905">
        <ele>124.6</ele>
        <time>2021-08-09T13:09:42Z</time>
      </trkpt>
      <trkpt lat="48.21348" lon="-3.01908">
        <ele>124.6</ele>
        <time>2021-08-09T13:09:43Z</time>
      </trkpt>
      <trkpt lat="48.21351" lon="-3.01911">
        <ele>124.6</ele>
        <time>2021-08-09T13:09:44Z</time>
      </trkpt>
      <trkpt lat="48.21353" lon="-3.01915">
        <ele>124.6</ele>
        <time>2021-08-09T13:09:45Z</time>
      </trkpt>
      <trkpt lat="48.21355" lon="-3.01918">
        <ele>124.6</ele>
        <time>2021-08-09T13:09:46Z</time>
      </trkpt>
      <trkpt lat="48.2136" lon="-3.01924">
        <ele>124.6</ele>
        <time>2021-08-09T13:09:48Z</time>
      </trkpt>
      <trkpt lat="48.21362" lon="-3.01927">
        <ele>124.8</ele>
        <time>2021-08-09T13:09:49Z</time>
      </trkpt>
      <trkpt lat="48.21364" lon="-3.01931">
        <ele>125</ele>
        <time>2021-08-09T13:09:50Z</time>
      </trkpt>
      <trkpt lat="48.21366" lon="-3.01934">
        <ele>125.2</ele>
        <time>2021-08-09T13:09:51Z</time>
      </trkpt>
      <trkpt lat="48.21368" lon="-3.01938">
        <ele>125.4</ele>
        <time>2021-08-09T13:09:52Z</time>
      </trkpt>
      <trkpt lat="48.2137" lon="-3.01941">
        <ele>125.4</ele>
        <time>2021-08-09T13:09:53Z</time>
      </trkpt>
      <trkpt lat="48.21373" lon="-3.01945">
        <ele>125.4</ele>
        <time>2021-08-09T13:09:54Z</time>
      </trkpt>
      <trkpt lat="48.21375" lon="-3.01949">
        <ele>125.4</ele>
        <time>2021-08-09T13:09:55Z</time>
      </trkpt>
      <trkpt lat="48.21376" lon="-3.01953">
        <ele>125.6</ele>
        <time>2021-08-09T13:09:56Z</time>
      </trkpt>
      <trkpt lat="48.21378" lon="-3.01957">
        <ele>125.6</ele>
        <time>2021-08-09T13:09:57Z</time>
      </trkpt>
      <trkpt lat="48.21383" lon="-3.01966">
        <ele>125.8</ele>
        <time>2021-08-09T13:09:59Z</time>
      </trkpt>
      <trkpt lat="48.21385" lon="-3.01971">
        <ele>126.2</ele>
        <time>2021-08-09T13:10:00Z</time>
      </trkpt>
      <trkpt lat="48.21387" lon="-3.01975">
        <ele>126.2</ele>
        <time>2021-08-09T13:10:01Z</time>
      </trkpt>
      <trkpt lat="48.21388" lon="-3.01979">
        <ele>126.6</ele>
        <time>2021-08-09T13:10:02Z</time>
      </trkpt>
      <trkpt lat="48.2139" lon="-3.01984">
        <ele>126.8</ele>
        <time>2021-08-09T13:10:03Z</time>
      </trkpt>
      <trkpt lat="48.21392" lon="-3.01989">
        <ele>126.8</ele>
        <time>2021-08-09T13:10:04Z</time>
      </trkpt>
      <trkpt lat="48.21394" lon="-3.01993">
        <ele>127</ele>
        <time>2021-08-09T13:10:05Z</time>
      </trkpt>
      <trkpt lat="48.21396" lon="-3.01998">
        <ele>127</ele>
        <time>2021-08-09T13:10:06Z</time>
      </trkpt>
      <trkpt lat="48.21397" lon="-3.02003">
        <ele>127.2</ele>
        <time>2021-08-09T13:10:07Z</time>
      </trkpt>
      <trkpt lat="48.21399" lon="-3.02007">
        <ele>127.2</ele>
        <time>2021-08-09T13:10:08Z</time>
      </trkpt>
      <trkpt lat="48.21401" lon="-3.02012">
        <ele>127.4</ele>
        <time>2021-08-09T13:10:09Z</time>
      </trkpt>
      <trkpt lat="48.21403" lon="-3.02016">
        <ele>127.4</ele>
        <time>2021-08-09T13:10:10Z</time>
      </trkpt>
      <trkpt lat="48.21405" lon="-3.02021">
        <ele>127.6</ele>
        <time>2021-08-09T13:10:11Z</time>
      </trkpt>
      <trkpt lat="48.21407" lon="-3.02025">
        <ele>127.6</ele>
        <time>2021-08-09T13:10:12Z</time>
      </trkpt>
      <trkpt lat="48.21409" lon="-3.0203">
        <ele>127.6</ele>
        <time>2021-08-09T13:10:13Z</time>
      </trkpt>
      <trkpt lat="48.21411" lon="-3.02034">
        <ele>127.8</ele>
        <time>2021-08-09T13:10:14Z</time>
      </trkpt>
      <trkpt lat="48.21413" lon="-3.02039">
        <ele>127.8</ele>
        <time>2021-08-09T13:10:15Z</time>
      </trkpt>
      <trkpt lat="48.21415" lon="-3.02043">
        <ele>128</ele>
        <time>2021-08-09T13:10:16Z</time>
      </trkpt>
      <trkpt lat="48.21417" lon="-3.02048">
        <ele>128</ele>
        <time>2021-08-09T13:10:17Z</time>
      </trkpt>
      <trkpt lat="48.21419" lon="-3.02052">
        <ele>128</ele>
        <time>2021-08-09T13:10:18Z</time>
      </trkpt>
      <trkpt lat="48.21421" lon="-3.02057">
        <ele>128.2</ele>
        <time>2021-08-09T13:10:19Z</time>
      </trkpt>
      <trkpt lat="48.21425" lon="-3.02066">
        <ele>128.2</ele>
        <time>2021-08-09T13:10:21Z</time>
      </trkpt>
      <trkpt lat="48.21426" lon="-3.02071">
        <ele>128.4</ele>
        <time>2021-08-09T13:10:22Z</time>
      </trkpt>
      <trkpt lat="48.21428" lon="-3.02076">
        <ele>128.4</ele>
        <time>2021-08-09T13:10:23Z</time>
      </trkpt>
      <trkpt lat="48.2143" lon="-3.02081">
        <ele>128.6</ele>
        <time>2021-08-09T13:10:24Z</time>
      </trkpt>
      <trkpt lat="48.21431" lon="-3.02086">
        <ele>128.6</ele>
        <time>2021-08-09T13:10:25Z</time>
      </trkpt>
      <trkpt lat="48.21433" lon="-3.02092">
        <ele>128.8</ele>
        <time>2021-08-09T13:10:26Z</time>
      </trkpt>
      <trkpt lat="48.21434" lon="-3.02097">
        <ele>128.8</ele>
        <time>2021-08-09T13:10:27Z</time>
      </trkpt>
      <trkpt lat="48.21436" lon="-3.02102">
        <ele>128.8</ele>
        <time>2021-08-09T13:10:28Z</time>
      </trkpt>
      <trkpt lat="48.21438" lon="-3.02107">
        <ele>129</ele>
        <time>2021-08-09T13:10:29Z</time>
      </trkpt>
      <trkpt lat="48.2144" lon="-3.02111">
        <ele>129</ele>
        <time>2021-08-09T13:10:30Z</time>
      </trkpt>
      <trkpt lat="48.21443" lon="-3.02123">
        <ele>129</ele>
        <time>2021-08-09T13:10:32Z</time>
      </trkpt>
      <trkpt lat="48.21443" lon="-3.02129">
        <ele>129</ele>
        <time>2021-08-09T13:10:33Z</time>
      </trkpt>
      <trkpt lat="48.21444" lon="-3.02135">
        <ele>129</ele>
        <time>2021-08-09T13:10:34Z</time>
      </trkpt>
      <trkpt lat="48.21445" lon="-3.02141">
        <ele>129</ele>
        <time>2021-08-09T13:10:35Z</time>
      </trkpt>
      <trkpt lat="48.21446" lon="-3.02147">
        <ele>129</ele>
        <time>2021-08-09T13:10:36Z</time>
      </trkpt>
      <trkpt lat="48.21447" lon="-3.02154">
        <ele>129</ele>
        <time>2021-08-09T13:10:37Z</time>
      </trkpt>
      <trkpt lat="48.21447" lon="-3.02162">
        <ele>128.8</ele>
        <time>2021-08-09T13:10:38Z</time>
      </trkpt>
      <trkpt lat="48.21448" lon="-3.0217">
        <ele>128.8</ele>
        <time>2021-08-09T13:10:39Z</time>
      </trkpt>
      <trkpt lat="48.21448" lon="-3.02177">
        <ele>128.6</ele>
        <time>2021-08-09T13:10:40Z</time>
      </trkpt>
      <trkpt lat="48.21448" lon="-3.02185">
        <ele>128.6</ele>
        <time>2021-08-09T13:10:41Z</time>
      </trkpt>
      <trkpt lat="48.2145" lon="-3.02202">
        <ele>128.4</ele>
        <time>2021-08-09T13:10:43Z</time>
      </trkpt>
      <trkpt lat="48.21452" lon="-3.0221">
        <ele>128.4</ele>
        <time>2021-08-09T13:10:44Z</time>
      </trkpt>
      <trkpt lat="48.21453" lon="-3.02219">
        <ele>128.2</ele>
        <time>2021-08-09T13:10:45Z</time>
      </trkpt>
      <trkpt lat="48.21454" lon="-3.02229">
        <ele>128</ele>
        <time>2021-08-09T13:10:46Z</time>
      </trkpt>
      <trkpt lat="48.21455" lon="-3.02238">
        <ele>127.8</ele>
        <time>2021-08-09T13:10:47Z</time>
      </trkpt>
      <trkpt lat="48.21456" lon="-3.02247">
        <ele>127.8</ele>
        <time>2021-08-09T13:10:48Z</time>
      </trkpt>
      <trkpt lat="48.21456" lon="-3.02256">
        <ele>127.4</ele>
        <time>2021-08-09T13:10:49Z</time>
      </trkpt>
      <trkpt lat="48.21456" lon="-3.02265">
        <ele>127.2</ele>
        <time>2021-08-09T13:10:50Z</time>
      </trkpt>
      <trkpt lat="48.21456" lon="-3.02274">
        <ele>127.2</ele>
        <time>2021-08-09T13:10:51Z</time>
      </trkpt>
      <trkpt lat="48.21456" lon="-3.02283">
        <ele>127.2</ele>
        <time>2021-08-09T13:10:52Z</time>
      </trkpt>
      <trkpt lat="48.21456" lon="-3.02299">
        <ele>127.2</ele>
        <time>2021-08-09T13:10:54Z</time>
      </trkpt>
      <trkpt lat="48.21455" lon="-3.02306">
        <ele>127.2</ele>
        <time>2021-08-09T13:10:55Z</time>
      </trkpt>
      <trkpt lat="48.21455" lon="-3.02314">
        <ele>127.2</ele>
        <time>2021-08-09T13:10:56Z</time>
      </trkpt>
      <trkpt lat="48.21455" lon="-3.02321">
        <ele>127.2</ele>
        <time>2021-08-09T13:10:57Z</time>
      </trkpt>
      <trkpt lat="48.21454" lon="-3.02328">
        <ele>127.2</ele>
        <time>2021-08-09T13:10:58Z</time>
      </trkpt>
      <trkpt lat="48.21452" lon="-3.02335">
        <ele>127.2</ele>
        <time>2021-08-09T13:10:59Z</time>
      </trkpt>
      <trkpt lat="48.21451" lon="-3.02342">
        <ele>127.4</ele>
        <time>2021-08-09T13:11:00Z</time>
      </trkpt>
      <trkpt lat="48.2145" lon="-3.02349">
        <ele>127.4</ele>
        <time>2021-08-09T13:11:01Z</time>
      </trkpt>
      <trkpt lat="48.21449" lon="-3.02355">
        <ele>127.8</ele>
        <time>2021-08-09T13:11:02Z</time>
      </trkpt>
      <trkpt lat="48.21448" lon="-3.02362">
        <ele>128</ele>
        <time>2021-08-09T13:11:03Z</time>
      </trkpt>
      <trkpt lat="48.21447" lon="-3.02368">
        <ele>128.4</ele>
        <time>2021-08-09T13:11:04Z</time>
      </trkpt>
      <trkpt lat="48.21446" lon="-3.02375">
        <ele>128.6</ele>
        <time>2021-08-09T13:11:05Z</time>
      </trkpt>
      <trkpt lat="48.21446" lon="-3.02381">
        <ele>128.8</ele>
        <time>2021-08-09T13:11:06Z</time>
      </trkpt>
      <trkpt lat="48.21446" lon="-3.02387">
        <ele>128.8</ele>
        <time>2021-08-09T13:11:07Z</time>
      </trkpt>
      <trkpt lat="48.21445" lon="-3.02392">
        <ele>129</ele>
        <time>2021-08-09T13:11:08Z</time>
      </trkpt>
      <trkpt lat="48.21446" lon="-3.02398">
        <ele>129.2</ele>
        <time>2021-08-09T13:11:09Z</time>
      </trkpt>
      <trkpt lat="48.21446" lon="-3.02403">
        <ele>129.4</ele>
        <time>2021-08-09T13:11:10Z</time>
      </trkpt>
      <trkpt lat="48.21446" lon="-3.02407">
        <ele>129.4</ele>
        <time>2021-08-09T13:11:11Z</time>
      </trkpt>
      <trkpt lat="48.21446" lon="-3.02412">
        <ele>129.6</ele>
        <time>2021-08-09T13:11:12Z</time>
      </trkpt>
      <trkpt lat="48.21447" lon="-3.02417">
        <ele>129.6</ele>
        <time>2021-08-09T13:11:13Z</time>
      </trkpt>
      <trkpt lat="48.21447" lon="-3.02427">
        <ele>129.8</ele>
        <time>2021-08-09T13:11:15Z</time>
      </trkpt>
      <trkpt lat="48.21447" lon="-3.02432">
        <ele>130</ele>
        <time>2021-08-09T13:11:16Z</time>
      </trkpt>
      <trkpt lat="48.21447" lon="-3.02437">
        <ele>130</ele>
        <time>2021-08-09T13:11:17Z</time>
      </trkpt>
      <trkpt lat="48.21447" lon="-3.02441">
        <ele>130.6</ele>
        <time>2021-08-09T13:11:18Z</time>
      </trkpt>
      <trkpt lat="48.21447" lon="-3.02446">
        <ele>130.8</ele>
        <time>2021-08-09T13:11:19Z</time>
      </trkpt>
      <trkpt lat="48.21447" lon="-3.02451">
        <ele>131</ele>
        <time>2021-08-09T13:11:20Z</time>
      </trkpt>
      <trkpt lat="48.21447" lon="-3.02456">
        <ele>131.4</ele>
        <time>2021-08-09T13:11:21Z</time>
      </trkpt>
      <trkpt lat="48.21447" lon="-3.02462">
        <ele>131.4</ele>
        <time>2021-08-09T13:11:22Z</time>
      </trkpt>
      <trkpt lat="48.21447" lon="-3.02466">
        <ele>131.6</ele>
        <time>2021-08-09T13:11:23Z</time>
      </trkpt>
      <trkpt lat="48.21448" lon="-3.02471">
        <ele>131.8</ele>
        <time>2021-08-09T13:11:24Z</time>
      </trkpt>
      <trkpt lat="48.21449" lon="-3.0248">
        <ele>132.2</ele>
        <time>2021-08-09T13:11:26Z</time>
      </trkpt>
      <trkpt lat="48.21449" lon="-3.02485">
        <ele>132.4</ele>
        <time>2021-08-09T13:11:27Z</time>
      </trkpt>
      <trkpt lat="48.2145" lon="-3.02489">
        <ele>132.4</ele>
        <time>2021-08-09T13:11:28Z</time>
      </trkpt>
      <trkpt lat="48.21451" lon="-3.02494">
        <ele>132.6</ele>
        <time>2021-08-09T13:11:29Z</time>
      </trkpt>
      <trkpt lat="48.21451" lon="-3.02498">
        <ele>132.8</ele>
        <time>2021-08-09T13:11:30Z</time>
      </trkpt>
      <trkpt lat="48.21452" lon="-3.02502">
        <ele>133</ele>
        <time>2021-08-09T13:11:31Z</time>
      </trkpt>
      <trkpt lat="48.21453" lon="-3.02506">
        <ele>133.4</ele>
        <time>2021-08-09T13:11:32Z</time>
      </trkpt>
      <trkpt lat="48.21454" lon="-3.02511">
        <ele>133.6</ele>
        <time>2021-08-09T13:11:33Z</time>
      </trkpt>
      <trkpt lat="48.21456" lon="-3.02515">
        <ele>133.8</ele>
        <time>2021-08-09T13:11:34Z</time>
      </trkpt>
      <trkpt lat="48.21457" lon="-3.02519">
        <ele>133.8</ele>
        <time>2021-08-09T13:11:35Z</time>
      </trkpt>
      <trkpt lat="48.2146" lon="-3.02526">
        <ele>134</ele>
        <time>2021-08-09T13:11:37Z</time>
      </trkpt>
      <trkpt lat="48.21461" lon="-3.02529">
        <ele>134.2</ele>
        <time>2021-08-09T13:11:38Z</time>
      </trkpt>
      <trkpt lat="48.21463" lon="-3.02532">
        <ele>134.4</ele>
        <time>2021-08-09T13:11:39Z</time>
      </trkpt>
      <trkpt lat="48.21465" lon="-3.02535">
        <ele>134.4</ele>
        <time>2021-08-09T13:11:40Z</time>
      </trkpt>
      <trkpt lat="48.21466" lon="-3.02538">
        <ele>134.6</ele>
        <time>2021-08-09T13:11:41Z</time>
      </trkpt>
      <trkpt lat="48.21468" lon="-3.02541">
        <ele>134.6</ele>
        <time>2021-08-09T13:11:42Z</time>
      </trkpt>
      <trkpt lat="48.2147" lon="-3.02544">
        <ele>134.8</ele>
        <time>2021-08-09T13:11:43Z</time>
      </trkpt>
      <trkpt lat="48.21472" lon="-3.02547">
        <ele>135</ele>
        <time>2021-08-09T13:11:44Z</time>
      </trkpt>
      <trkpt lat="48.21474" lon="-3.02549">
        <ele>135</ele>
        <time>2021-08-09T13:11:45Z</time>
      </trkpt>
      <trkpt lat="48.21476" lon="-3.02552">
        <ele>135.2</ele>
        <time>2021-08-09T13:11:46Z</time>
      </trkpt>
      <trkpt lat="48.2148" lon="-3.02557">
        <ele>135.8</ele>
        <time>2021-08-09T13:11:48Z</time>
      </trkpt>
      <trkpt lat="48.21482" lon="-3.0256">
        <ele>136</ele>
        <time>2021-08-09T13:11:49Z</time>
      </trkpt>
      <trkpt lat="48.21484" lon="-3.02562">
        <ele>136</ele>
        <time>2021-08-09T13:11:50Z</time>
      </trkpt>
      <trkpt lat="48.21486" lon="-3.02564">
        <ele>136.2</ele>
        <time>2021-08-09T13:11:51Z</time>
      </trkpt>
      <trkpt lat="48.21488" lon="-3.02566">
        <ele>136.2</ele>
        <time>2021-08-09T13:11:52Z</time>
      </trkpt>
      <trkpt lat="48.21491" lon="-3.02569">
        <ele>136.2</ele>
        <time>2021-08-09T13:11:53Z</time>
      </trkpt>
      <trkpt lat="48.21493" lon="-3.02571">
        <ele>136.4</ele>
        <time>2021-08-09T13:11:54Z</time>
      </trkpt>
      <trkpt lat="48.21495" lon="-3.02574">
        <ele>136.4</ele>
        <time>2021-08-09T13:11:55Z</time>
      </trkpt>
      <trkpt lat="48.21497" lon="-3.02577">
        <ele>136.6</ele>
        <time>2021-08-09T13:11:56Z</time>
      </trkpt>
      <trkpt lat="48.21499" lon="-3.02579">
        <ele>136.6</ele>
        <time>2021-08-09T13:11:57Z</time>
      </trkpt>
      <trkpt lat="48.21503" lon="-3.02585">
        <ele>137</ele>
        <time>2021-08-09T13:11:59Z</time>
      </trkpt>
      <trkpt lat="48.21505" lon="-3.02589">
        <ele>137.2</ele>
        <time>2021-08-09T13:12:00Z</time>
      </trkpt>
      <trkpt lat="48.21507" lon="-3.02592">
        <ele>137.2</ele>
        <time>2021-08-09T13:12:01Z</time>
      </trkpt>
      <trkpt lat="48.21508" lon="-3.02596">
        <ele>137.4</ele>
        <time>2021-08-09T13:12:02Z</time>
      </trkpt>
      <trkpt lat="48.2151" lon="-3.02599">
        <ele>137.4</ele>
        <time>2021-08-09T13:12:03Z</time>
      </trkpt>
      <trkpt lat="48.21511" lon="-3.02603">
        <ele>137.6</ele>
        <time>2021-08-09T13:12:04Z</time>
      </trkpt>
      <trkpt lat="48.21513" lon="-3.02606">
        <ele>137.6</ele>
        <time>2021-08-09T13:12:05Z</time>
      </trkpt>
      <trkpt lat="48.21514" lon="-3.0261">
        <ele>137.6</ele>
        <time>2021-08-09T13:12:06Z</time>
      </trkpt>
      <trkpt lat="48.21515" lon="-3.02613">
        <ele>137.6</ele>
        <time>2021-08-09T13:12:07Z</time>
      </trkpt>
      <trkpt lat="48.21516" lon="-3.02617">
        <ele>137.8</ele>
        <time>2021-08-09T13:12:08Z</time>
      </trkpt>
      <trkpt lat="48.21517" lon="-3.02621">
        <ele>137.8</ele>
        <time>2021-08-09T13:12:09Z</time>
      </trkpt>
      <trkpt lat="48.21518" lon="-3.02625">
        <ele>137.8</ele>
        <time>2021-08-09T13:12:10Z</time>
      </trkpt>
      <trkpt lat="48.21518" lon="-3.02629">
        <ele>138</ele>
        <time>2021-08-09T13:12:11Z</time>
      </trkpt>
      <trkpt lat="48.21519" lon="-3.02632">
        <ele>138</ele>
        <time>2021-08-09T13:12:12Z</time>
      </trkpt>
      <trkpt lat="48.2152" lon="-3.02636">
        <ele>138</ele>
        <time>2021-08-09T13:12:13Z</time>
      </trkpt>
      <trkpt lat="48.2152" lon="-3.0264">
        <ele>138.2</ele>
        <time>2021-08-09T13:12:14Z</time>
      </trkpt>
      <trkpt lat="48.21521" lon="-3.02644">
        <ele>138.6</ele>
        <time>2021-08-09T13:12:15Z</time>
      </trkpt>
      <trkpt lat="48.21522" lon="-3.02647">
        <ele>138.6</ele>
        <time>2021-08-09T13:12:16Z</time>
      </trkpt>
      <trkpt lat="48.21522" lon="-3.0265">
        <ele>138.8</ele>
        <time>2021-08-09T13:12:17Z</time>
      </trkpt>
      <trkpt lat="48.21523" lon="-3.02653">
        <ele>139</ele>
        <time>2021-08-09T13:12:18Z</time>
      </trkpt>
      <trkpt lat="48.21524" lon="-3.02656">
        <ele>139</ele>
        <time>2021-08-09T13:12:19Z</time>
      </trkpt>
      <trkpt lat="48.21526" lon="-3.02662">
        <ele>139.4</ele>
        <time>2021-08-09T13:12:21Z</time>
      </trkpt>
      <trkpt lat="48.21527" lon="-3.02666">
        <ele>139.6</ele>
        <time>2021-08-09T13:12:22Z</time>
      </trkpt>
      <trkpt lat="48.21527" lon="-3.0267">
        <ele>139.6</ele>
        <time>2021-08-09T13:12:23Z</time>
      </trkpt>
      <trkpt lat="48.21528" lon="-3.02674">
        <ele>139.8</ele>
        <time>2021-08-09T13:12:24Z</time>
      </trkpt>
      <trkpt lat="48.21529" lon="-3.02678">
        <ele>140</ele>
        <time>2021-08-09T13:12:25Z</time>
      </trkpt>
      <trkpt lat="48.2153" lon="-3.02682">
        <ele>140.2</ele>
        <time>2021-08-09T13:12:26Z</time>
      </trkpt>
      <trkpt lat="48.2153" lon="-3.02685">
        <ele>140.2</ele>
        <time>2021-08-09T13:12:27Z</time>
      </trkpt>
      <trkpt lat="48.21531" lon="-3.02689">
        <ele>140.4</ele>
        <time>2021-08-09T13:12:28Z</time>
      </trkpt>
      <trkpt lat="48.21532" lon="-3.02693">
        <ele>140.6</ele>
        <time>2021-08-09T13:12:29Z</time>
      </trkpt>
      <trkpt lat="48.21533" lon="-3.02698">
        <ele>140.6</ele>
        <time>2021-08-09T13:12:30Z</time>
      </trkpt>
      <trkpt lat="48.21534" lon="-3.02706">
        <ele>141</ele>
        <time>2021-08-09T13:12:32Z</time>
      </trkpt>
      <trkpt lat="48.21534" lon="-3.0271">
        <ele>141</ele>
        <time>2021-08-09T13:12:33Z</time>
      </trkpt>
      <trkpt lat="48.21535" lon="-3.02713">
        <ele>141.2</ele>
        <time>2021-08-09T13:12:34Z</time>
      </trkpt>
      <trkpt lat="48.21536" lon="-3.02716">
        <ele>141.6</ele>
        <time>2021-08-09T13:12:35Z</time>
      </trkpt>
      <trkpt lat="48.21537" lon="-3.02719">
        <ele>141.8</ele>
        <time>2021-08-09T13:12:36Z</time>
      </trkpt>
      <trkpt lat="48.21538" lon="-3.02723">
        <ele>142</ele>
        <time>2021-08-09T13:12:37Z</time>
      </trkpt>
      <trkpt lat="48.21539" lon="-3.02727">
        <ele>142</ele>
        <time>2021-08-09T13:12:38Z</time>
      </trkpt>
      <trkpt lat="48.2154" lon="-3.0273">
        <ele>142</ele>
        <time>2021-08-09T13:12:39Z</time>
      </trkpt>
      <trkpt lat="48.2154" lon="-3.02734">
        <ele>142.2</ele>
        <time>2021-08-09T13:12:40Z</time>
      </trkpt>
      <trkpt lat="48.2154" lon="-3.02739">
        <ele>142.2</ele>
        <time>2021-08-09T13:12:41Z</time>
      </trkpt>
      <trkpt lat="48.21541" lon="-3.02747">
        <ele>142.6</ele>
        <time>2021-08-09T13:12:43Z</time>
      </trkpt>
      <trkpt lat="48.21542" lon="-3.02751">
        <ele>142.8</ele>
        <time>2021-08-09T13:12:44Z</time>
      </trkpt>
      <trkpt lat="48.21543" lon="-3.02755">
        <ele>143.2</ele>
        <time>2021-08-09T13:12:45Z</time>
      </trkpt>
      <trkpt lat="48.21543" lon="-3.02759">
        <ele>143.8</ele>
        <time>2021-08-09T13:12:46Z</time>
      </trkpt>
      <trkpt lat="48.21544" lon="-3.02763">
        <ele>144</ele>
        <time>2021-08-09T13:12:47Z</time>
      </trkpt>
      <trkpt lat="48.21545" lon="-3.02767">
        <ele>144.2</ele>
        <time>2021-08-09T13:12:48Z</time>
      </trkpt>
      <trkpt lat="48.21545" lon="-3.02771">
        <ele>144.4</ele>
        <time>2021-08-09T13:12:49Z</time>
      </trkpt>
      <trkpt lat="48.21546" lon="-3.02774">
        <ele>144.4</ele>
        <time>2021-08-09T13:12:50Z</time>
      </trkpt>
      <trkpt lat="48.21547" lon="-3.02778">
        <ele>144.6</ele>
        <time>2021-08-09T13:12:51Z</time>
      </trkpt>
      <trkpt lat="48.21547" lon="-3.02782">
        <ele>144.8</ele>
        <time>2021-08-09T13:12:52Z</time>
      </trkpt>
      <trkpt lat="48.21548" lon="-3.02785">
        <ele>145</ele>
        <time>2021-08-09T13:12:53Z</time>
      </trkpt>
      <trkpt lat="48.21549" lon="-3.02789">
        <ele>145</ele>
        <time>2021-08-09T13:12:54Z</time>
      </trkpt>
      <trkpt lat="48.21549" lon="-3.02793">
        <ele>145.2</ele>
        <time>2021-08-09T13:12:55Z</time>
      </trkpt>
      <trkpt lat="48.2155" lon="-3.02797">
        <ele>145.4</ele>
        <time>2021-08-09T13:12:56Z</time>
      </trkpt>
      <trkpt lat="48.2155" lon="-3.028">
        <ele>145.6</ele>
        <time>2021-08-09T13:12:57Z</time>
      </trkpt>
      <trkpt lat="48.21551" lon="-3.02804">
        <ele>145.8</ele>
        <time>2021-08-09T13:12:58Z</time>
      </trkpt>
      <trkpt lat="48.21551" lon="-3.02808">
        <ele>146</ele>
        <time>2021-08-09T13:12:59Z</time>
      </trkpt>
      <trkpt lat="48.21552" lon="-3.02811">
        <ele>146.2</ele>
        <time>2021-08-09T13:13:00Z</time>
      </trkpt>
      <trkpt lat="48.21552" lon="-3.02813">
        <ele>146.6</ele>
        <time>2021-08-09T13:13:01Z</time>
      </trkpt>
      <trkpt lat="48.21553" lon="-3.02816">
        <ele>147</ele>
        <time>2021-08-09T13:13:02Z</time>
      </trkpt>
      <trkpt lat="48.21553" lon="-3.02819">
        <ele>147.2</ele>
        <time>2021-08-09T13:13:03Z</time>
      </trkpt>
      <trkpt lat="48.21554" lon="-3.02826">
        <ele>147.6</ele>
        <time>2021-08-09T13:13:05Z</time>
      </trkpt>
      <trkpt lat="48.21554" lon="-3.02829">
        <ele>147.8</ele>
        <time>2021-08-09T13:13:06Z</time>
      </trkpt>
      <trkpt lat="48.21554" lon="-3.02832">
        <ele>148</ele>
        <time>2021-08-09T13:13:07Z</time>
      </trkpt>
      <trkpt lat="48.21555" lon="-3.02835">
        <ele>148.2</ele>
        <time>2021-08-09T13:13:08Z</time>
      </trkpt>
      <trkpt lat="48.21555" lon="-3.02838">
        <ele>148.4</ele>
        <time>2021-08-09T13:13:09Z</time>
      </trkpt>
      <trkpt lat="48.21555" lon="-3.02842">
        <ele>148.6</ele>
        <time>2021-08-09T13:13:10Z</time>
      </trkpt>
      <trkpt lat="48.21556" lon="-3.02845">
        <ele>149</ele>
        <time>2021-08-09T13:13:11Z</time>
      </trkpt>
      <trkpt lat="48.21556" lon="-3.02848">
        <ele>149.2</ele>
        <time>2021-08-09T13:13:12Z</time>
      </trkpt>
      <trkpt lat="48.21557" lon="-3.02851">
        <ele>149.4</ele>
        <time>2021-08-09T13:13:13Z</time>
      </trkpt>
      <trkpt lat="48.21557" lon="-3.02855">
        <ele>149.8</ele>
        <time>2021-08-09T13:13:14Z</time>
      </trkpt>
      <trkpt lat="48.21557" lon="-3.02861">
        <ele>150.4</ele>
        <time>2021-08-09T13:13:16Z</time>
      </trkpt>
      <trkpt lat="48.21558" lon="-3.02864">
        <ele>150.8</ele>
        <time>2021-08-09T13:13:17Z</time>
      </trkpt>
      <trkpt lat="48.21558" lon="-3.02866">
        <ele>150.8</ele>
        <time>2021-08-09T13:13:18Z</time>
      </trkpt>
      <trkpt lat="48.21558" lon="-3.0287">
        <ele>151</ele>
        <time>2021-08-09T13:13:19Z</time>
      </trkpt>
      <trkpt lat="48.21558" lon="-3.02873">
        <ele>151.2</ele>
        <time>2021-08-09T13:13:20Z</time>
      </trkpt>
      <trkpt lat="48.21558" lon="-3.02876">
        <ele>151.4</ele>
        <time>2021-08-09T13:13:21Z</time>
      </trkpt>
      <trkpt lat="48.21558" lon="-3.0288">
        <ele>151.6</ele>
        <time>2021-08-09T13:13:22Z</time>
      </trkpt>
      <trkpt lat="48.21558" lon="-3.02883">
        <ele>151.8</ele>
        <time>2021-08-09T13:13:23Z</time>
      </trkpt>
      <trkpt lat="48.21558" lon="-3.02886">
        <ele>152.2</ele>
        <time>2021-08-09T13:13:24Z</time>
      </trkpt>
      <trkpt lat="48.21558" lon="-3.0289">
        <ele>152.4</ele>
        <time>2021-08-09T13:13:25Z</time>
      </trkpt>
      <trkpt lat="48.21557" lon="-3.02894">
        <ele>152.6</ele>
        <time>2021-08-09T13:13:26Z</time>
      </trkpt>
      <trkpt lat="48.21557" lon="-3.02897">
        <ele>152.8</ele>
        <time>2021-08-09T13:13:27Z</time>
      </trkpt>
      <trkpt lat="48.21557" lon="-3.029">
        <ele>152.8</ele>
        <time>2021-08-09T13:13:28Z</time>
      </trkpt>
      <trkpt lat="48.21557" lon="-3.02903">
        <ele>153</ele>
        <time>2021-08-09T13:13:29Z</time>
      </trkpt>
      <trkpt lat="48.21557" lon="-3.02906">
        <ele>153.2</ele>
        <time>2021-08-09T13:13:30Z</time>
      </trkpt>
      <trkpt lat="48.21557" lon="-3.02909">
        <ele>153.4</ele>
        <time>2021-08-09T13:13:31Z</time>
      </trkpt>
      <trkpt lat="48.21557" lon="-3.02913">
        <ele>153.4</ele>
        <time>2021-08-09T13:13:32Z</time>
      </trkpt>
      <trkpt lat="48.21557" lon="-3.02917">
        <ele>153.6</ele>
        <time>2021-08-09T13:13:33Z</time>
      </trkpt>
      <trkpt lat="48.21557" lon="-3.0292">
        <ele>153.8</ele>
        <time>2021-08-09T13:13:34Z</time>
      </trkpt>
      <trkpt lat="48.21557" lon="-3.02923">
        <ele>154</ele>
        <time>2021-08-09T13:13:35Z</time>
      </trkpt>
      <trkpt lat="48.21557" lon="-3.02927">
        <ele>154.2</ele>
        <time>2021-08-09T13:13:36Z</time>
      </trkpt>
      <trkpt lat="48.21557" lon="-3.0293">
        <ele>154.4</ele>
        <time>2021-08-09T13:13:37Z</time>
      </trkpt>
      <trkpt lat="48.21557" lon="-3.02933">
        <ele>154.6</ele>
        <time>2021-08-09T13:13:38Z</time>
      </trkpt>
      <trkpt lat="48.21557" lon="-3.02937">
        <ele>154.8</ele>
        <time>2021-08-09T13:13:39Z</time>
      </trkpt>
      <trkpt lat="48.21557" lon="-3.0294">
        <ele>155</ele>
        <time>2021-08-09T13:13:40Z</time>
      </trkpt>
      <trkpt lat="48.21557" lon="-3.02944">
        <ele>155.2</ele>
        <time>2021-08-09T13:13:41Z</time>
      </trkpt>
      <trkpt lat="48.21557" lon="-3.02947">
        <ele>155.4</ele>
        <time>2021-08-09T13:13:42Z</time>
      </trkpt>
      <trkpt lat="48.21556" lon="-3.02951">
        <ele>155.4</ele>
        <time>2021-08-09T13:13:43Z</time>
      </trkpt>
      <trkpt lat="48.21556" lon="-3.02954">
        <ele>155.8</ele>
        <time>2021-08-09T13:13:44Z</time>
      </trkpt>
      <trkpt lat="48.21556" lon="-3.02958">
        <ele>155.8</ele>
        <time>2021-08-09T13:13:45Z</time>
      </trkpt>
      <trkpt lat="48.21556" lon="-3.0296">
        <ele>156</ele>
        <time>2021-08-09T13:13:46Z</time>
      </trkpt>
      <trkpt lat="48.21557" lon="-3.02963">
        <ele>156.2</ele>
        <time>2021-08-09T13:13:47Z</time>
      </trkpt>
      <trkpt lat="48.21557" lon="-3.02969">
        <ele>156.4</ele>
        <time>2021-08-09T13:13:49Z</time>
      </trkpt>
      <trkpt lat="48.21557" lon="-3.02973">
        <ele>156.6</ele>
        <time>2021-08-09T13:13:50Z</time>
      </trkpt>
      <trkpt lat="48.21557" lon="-3.02976">
        <ele>156.8</ele>
        <time>2021-08-09T13:13:51Z</time>
      </trkpt>
      <trkpt lat="48.21557" lon="-3.02979">
        <ele>157</ele>
        <time>2021-08-09T13:13:52Z</time>
      </trkpt>
      <trkpt lat="48.21557" lon="-3.02982">
        <ele>157</ele>
        <time>2021-08-09T13:13:53Z</time>
      </trkpt>
      <trkpt lat="48.21557" lon="-3.02984">
        <ele>157.2</ele>
        <time>2021-08-09T13:13:54Z</time>
      </trkpt>
      <trkpt lat="48.21558" lon="-3.02987">
        <ele>157.4</ele>
        <time>2021-08-09T13:13:55Z</time>
      </trkpt>
      <trkpt lat="48.21557" lon="-3.0299">
        <ele>157.6</ele>
        <time>2021-08-09T13:13:56Z</time>
      </trkpt>
      <trkpt lat="48.21557" lon="-3.02993">
        <ele>157.8</ele>
        <time>2021-08-09T13:13:57Z</time>
      </trkpt>
      <trkpt lat="48.21557" lon="-3.02995">
        <ele>157.8</ele>
        <time>2021-08-09T13:13:58Z</time>
      </trkpt>
      <trkpt lat="48.21557" lon="-3.02998">
        <ele>158</ele>
        <time>2021-08-09T13:13:59Z</time>
      </trkpt>
      <trkpt lat="48.21557" lon="-3.03001">
        <ele>158</ele>
        <time>2021-08-09T13:14:00Z</time>
      </trkpt>
      <trkpt lat="48.21558" lon="-3.03004">
        <ele>158.2</ele>
        <time>2021-08-09T13:14:01Z</time>
      </trkpt>
      <trkpt lat="48.21558" lon="-3.03006">
        <ele>158.6</ele>
        <time>2021-08-09T13:14:02Z</time>
      </trkpt>
      <trkpt lat="48.21559" lon="-3.03009">
        <ele>158.8</ele>
        <time>2021-08-09T13:14:03Z</time>
      </trkpt>
      <trkpt lat="48.21559" lon="-3.03012">
        <ele>159.2</ele>
        <time>2021-08-09T13:14:04Z</time>
      </trkpt>
      <trkpt lat="48.21559" lon="-3.03015">
        <ele>159.4</ele>
        <time>2021-08-09T13:14:05Z</time>
      </trkpt>
      <trkpt lat="48.21559" lon="-3.03018">
        <ele>159.4</ele>
        <time>2021-08-09T13:14:06Z</time>
      </trkpt>
      <trkpt lat="48.21558" lon="-3.03022">
        <ele>159.6</ele>
        <time>2021-08-09T13:14:07Z</time>
      </trkpt>
      <trkpt lat="48.21558" lon="-3.03025">
        <ele>159.8</ele>
        <time>2021-08-09T13:14:08Z</time>
      </trkpt>
      <trkpt lat="48.21558" lon="-3.03029">
        <ele>160</ele>
        <time>2021-08-09T13:14:09Z</time>
      </trkpt>
      <trkpt lat="48.21556" lon="-3.03036">
        <ele>160.4</ele>
        <time>2021-08-09T13:14:11Z</time>
      </trkpt>
      <trkpt lat="48.21555" lon="-3.03039">
        <ele>160.8</ele>
        <time>2021-08-09T13:14:12Z</time>
      </trkpt>
      <trkpt lat="48.21555" lon="-3.03042">
        <ele>161</ele>
        <time>2021-08-09T13:14:13Z</time>
      </trkpt>
      <trkpt lat="48.21554" lon="-3.03045">
        <ele>161.2</ele>
        <time>2021-08-09T13:14:14Z</time>
      </trkpt>
      <trkpt lat="48.21553" lon="-3.03048">
        <ele>161.4</ele>
        <time>2021-08-09T13:14:15Z</time>
      </trkpt>
      <trkpt lat="48.21553" lon="-3.03052">
        <ele>161.6</ele>
        <time>2021-08-09T13:14:16Z</time>
      </trkpt>
      <trkpt lat="48.21552" lon="-3.03055">
        <ele>161.8</ele>
        <time>2021-08-09T13:14:17Z</time>
      </trkpt>
      <trkpt lat="48.21551" lon="-3.03058">
        <ele>162</ele>
        <time>2021-08-09T13:14:18Z</time>
      </trkpt>
      <trkpt lat="48.21551" lon="-3.03062">
        <ele>162.2</ele>
        <time>2021-08-09T13:14:19Z</time>
      </trkpt>
      <trkpt lat="48.2155" lon="-3.03065">
        <ele>162.2</ele>
        <time>2021-08-09T13:14:20Z</time>
      </trkpt>
      <trkpt lat="48.21549" lon="-3.03071">
        <ele>162.6</ele>
        <time>2021-08-09T13:14:22Z</time>
      </trkpt>
      <trkpt lat="48.21548" lon="-3.03074">
        <ele>162.8</ele>
        <time>2021-08-09T13:14:23Z</time>
      </trkpt>
      <trkpt lat="48.21548" lon="-3.03077">
        <ele>163</ele>
        <time>2021-08-09T13:14:24Z</time>
      </trkpt>
      <trkpt lat="48.21548" lon="-3.03081">
        <ele>163.2</ele>
        <time>2021-08-09T13:14:25Z</time>
      </trkpt>
      <trkpt lat="48.21548" lon="-3.03084">
        <ele>163.2</ele>
        <time>2021-08-09T13:14:26Z</time>
      </trkpt>
      <trkpt lat="48.21549" lon="-3.03087">
        <ele>163.4</ele>
        <time>2021-08-09T13:14:27Z</time>
      </trkpt>
      <trkpt lat="48.21549" lon="-3.0309">
        <ele>163.6</ele>
        <time>2021-08-09T13:14:28Z</time>
      </trkpt>
      <trkpt lat="48.21551" lon="-3.03093">
        <ele>163.8</ele>
        <time>2021-08-09T13:14:29Z</time>
      </trkpt>
      <trkpt lat="48.21552" lon="-3.03096">
        <ele>164</ele>
        <time>2021-08-09T13:14:30Z</time>
      </trkpt>
      <trkpt lat="48.21553" lon="-3.03099">
        <ele>164.2</ele>
        <time>2021-08-09T13:14:31Z</time>
      </trkpt>
      <trkpt lat="48.21554" lon="-3.03105">
        <ele>164.6</ele>
        <time>2021-08-09T13:14:33Z</time>
      </trkpt>
      <trkpt lat="48.21553" lon="-3.03107">
        <ele>164.8</ele>
        <time>2021-08-09T13:14:34Z</time>
      </trkpt>
      <trkpt lat="48.21552" lon="-3.03109">
        <ele>165</ele>
        <time>2021-08-09T13:14:35Z</time>
      </trkpt>
      <trkpt lat="48.21552" lon="-3.0311">
        <ele>165</ele>
        <time>2021-08-09T13:14:36Z</time>
      </trkpt>
      <trkpt lat="48.21549" lon="-3.03116">
        <ele>166</ele>
        <time>2021-08-09T13:17:29Z</time>
      </trkpt>
      <trkpt lat="48.21548" lon="-3.03119">
        <ele>166</ele>
        <time>2021-08-09T13:17:30Z</time>
      </trkpt>
      <trkpt lat="48.21547" lon="-3.03123">
        <ele>166</ele>
        <time>2021-08-09T13:17:31Z</time>
      </trkpt>
      <trkpt lat="48.21545" lon="-3.0313">
        <ele>166</ele>
        <time>2021-08-09T13:17:33Z</time>
      </trkpt>
      <trkpt lat="48.21544" lon="-3.03134">
        <ele>165.8</ele>
        <time>2021-08-09T13:17:34Z</time>
      </trkpt>
      <trkpt lat="48.21542" lon="-3.03138">
        <ele>165.8</ele>
        <time>2021-08-09T13:17:35Z</time>
      </trkpt>
      <trkpt lat="48.21541" lon="-3.03143">
        <ele>165.8</ele>
        <time>2021-08-09T13:17:36Z</time>
      </trkpt>
      <trkpt lat="48.21539" lon="-3.03147">
        <ele>165.6</ele>
        <time>2021-08-09T13:17:37Z</time>
      </trkpt>
      <trkpt lat="48.21538" lon="-3.03152">
        <ele>165.6</ele>
        <time>2021-08-09T13:17:38Z</time>
      </trkpt>
      <trkpt lat="48.21536" lon="-3.03157">
        <ele>165.4</ele>
        <time>2021-08-09T13:17:39Z</time>
      </trkpt>
      <trkpt lat="48.21535" lon="-3.03162">
        <ele>165.2</ele>
        <time>2021-08-09T13:17:40Z</time>
      </trkpt>
      <trkpt lat="48.21533" lon="-3.03172">
        <ele>165</ele>
        <time>2021-08-09T13:17:42Z</time>
      </trkpt>
      <trkpt lat="48.21532" lon="-3.03177">
        <ele>165</ele>
        <time>2021-08-09T13:17:43Z</time>
      </trkpt>
      <trkpt lat="48.21531" lon="-3.03182">
        <ele>165</ele>
        <time>2021-08-09T13:17:44Z</time>
      </trkpt>
      <trkpt lat="48.21529" lon="-3.03187">
        <ele>164.8</ele>
        <time>2021-08-09T13:17:45Z</time>
      </trkpt>
      <trkpt lat="48.21528" lon="-3.03191">
        <ele>164.8</ele>
        <time>2021-08-09T13:17:46Z</time>
      </trkpt>
      <trkpt lat="48.21528" lon="-3.03195">
        <ele>164.8</ele>
        <time>2021-08-09T13:17:47Z</time>
      </trkpt>
      <trkpt lat="48.21527" lon="-3.03199">
        <ele>164.8</ele>
        <time>2021-08-09T13:17:48Z</time>
      </trkpt>
      <trkpt lat="48.21526" lon="-3.03203">
        <ele>164.6</ele>
        <time>2021-08-09T13:17:49Z</time>
      </trkpt>
      <trkpt lat="48.21525" lon="-3.03207">
        <ele>164.6</ele>
        <time>2021-08-09T13:17:50Z</time>
      </trkpt>
      <trkpt lat="48.21524" lon="-3.03212">
        <ele>164.6</ele>
        <time>2021-08-09T13:17:51Z</time>
      </trkpt>
      <trkpt lat="48.21523" lon="-3.03217">
        <ele>164.6</ele>
        <time>2021-08-09T13:17:52Z</time>
      </trkpt>
      <trkpt lat="48.21521" lon="-3.03222">
        <ele>164.6</ele>
        <time>2021-08-09T13:17:53Z</time>
      </trkpt>
      <trkpt lat="48.2152" lon="-3.03227">
        <ele>164.6</ele>
        <time>2021-08-09T13:17:54Z</time>
      </trkpt>
      <trkpt lat="48.21519" lon="-3.03233">
        <ele>164.6</ele>
        <time>2021-08-09T13:17:55Z</time>
      </trkpt>
      <trkpt lat="48.21518" lon="-3.03238">
        <ele>164.6</ele>
        <time>2021-08-09T13:17:56Z</time>
      </trkpt>
      <trkpt lat="48.21517" lon="-3.03243">
        <ele>164.8</ele>
        <time>2021-08-09T13:17:57Z</time>
      </trkpt>
      <trkpt lat="48.21516" lon="-3.03249">
        <ele>164.8</ele>
        <time>2021-08-09T13:17:58Z</time>
      </trkpt>
      <trkpt lat="48.21515" lon="-3.03254">
        <ele>164.8</ele>
        <time>2021-08-09T13:17:59Z</time>
      </trkpt>
      <trkpt lat="48.21514" lon="-3.03259">
        <ele>164.8</ele>
        <time>2021-08-09T13:18:00Z</time>
      </trkpt>
      <trkpt lat="48.21513" lon="-3.03265">
        <ele>164.8</ele>
        <time>2021-08-09T13:18:01Z</time>
      </trkpt>
      <trkpt lat="48.21512" lon="-3.0327">
        <ele>164.8</ele>
        <time>2021-08-09T13:18:02Z</time>
      </trkpt>
      <trkpt lat="48.2151" lon="-3.03281">
        <ele>165</ele>
        <time>2021-08-09T13:18:04Z</time>
      </trkpt>
      <trkpt lat="48.21509" lon="-3.03286">
        <ele>165.2</ele>
        <time>2021-08-09T13:18:05Z</time>
      </trkpt>
      <trkpt lat="48.21508" lon="-3.03291">
        <ele>165.4</ele>
        <time>2021-08-09T13:18:06Z</time>
      </trkpt>
      <trkpt lat="48.21507" lon="-3.03297">
        <ele>165.4</ele>
        <time>2021-08-09T13:18:07Z</time>
      </trkpt>
      <trkpt lat="48.21506" lon="-3.03302">
        <ele>165.6</ele>
        <time>2021-08-09T13:18:08Z</time>
      </trkpt>
      <trkpt lat="48.21506" lon="-3.03307">
        <ele>165.6</ele>
        <time>2021-08-09T13:18:09Z</time>
      </trkpt>
      <trkpt lat="48.21505" lon="-3.03313">
        <ele>165.6</ele>
        <time>2021-08-09T13:18:10Z</time>
      </trkpt>
      <trkpt lat="48.21504" lon="-3.03319">
        <ele>165.6</ele>
        <time>2021-08-09T13:18:11Z</time>
      </trkpt>
      <trkpt lat="48.21504" lon="-3.03324">
        <ele>165.6</ele>
        <time>2021-08-09T13:18:12Z</time>
      </trkpt>
      <trkpt lat="48.21503" lon="-3.0333">
        <ele>165.6</ele>
        <time>2021-08-09T13:18:13Z</time>
      </trkpt>
      <trkpt lat="48.21501" lon="-3.0334">
        <ele>165.8</ele>
        <time>2021-08-09T13:18:15Z</time>
      </trkpt>
      <trkpt lat="48.21501" lon="-3.03346">
        <ele>165.8</ele>
        <time>2021-08-09T13:18:16Z</time>
      </trkpt>
      <trkpt lat="48.215" lon="-3.03351">
        <ele>165.8</ele>
        <time>2021-08-09T13:18:17Z</time>
      </trkpt>
      <trkpt lat="48.215" lon="-3.03356">
        <ele>166</ele>
        <time>2021-08-09T13:18:18Z</time>
      </trkpt>
      <trkpt lat="48.21499" lon="-3.03361">
        <ele>166.2</ele>
        <time>2021-08-09T13:18:19Z</time>
      </trkpt>
      <trkpt lat="48.21499" lon="-3.03366">
        <ele>166.2</ele>
        <time>2021-08-09T13:18:20Z</time>
      </trkpt>
      <trkpt lat="48.21499" lon="-3.03371">
        <ele>166.2</ele>
        <time>2021-08-09T13:18:21Z</time>
      </trkpt>
      <trkpt lat="48.21499" lon="-3.03376">
        <ele>166.4</ele>
        <time>2021-08-09T13:18:22Z</time>
      </trkpt>
      <trkpt lat="48.21499" lon="-3.03381">
        <ele>166.4</ele>
        <time>2021-08-09T13:18:23Z</time>
      </trkpt>
      <trkpt lat="48.21498" lon="-3.03387">
        <ele>166.6</ele>
        <time>2021-08-09T13:18:24Z</time>
      </trkpt>
      <trkpt lat="48.21497" lon="-3.03398">
        <ele>167</ele>
        <time>2021-08-09T13:18:26Z</time>
      </trkpt>
      <trkpt lat="48.21497" lon="-3.03403">
        <ele>167</ele>
        <time>2021-08-09T13:18:27Z</time>
      </trkpt>
      <trkpt lat="48.21496" lon="-3.03408">
        <ele>167.2</ele>
        <time>2021-08-09T13:18:28Z</time>
      </trkpt>
      <trkpt lat="48.21496" lon="-3.03413">
        <ele>167.6</ele>
        <time>2021-08-09T13:18:29Z</time>
      </trkpt>
      <trkpt lat="48.21496" lon="-3.03417">
        <ele>167.8</ele>
        <time>2021-08-09T13:18:30Z</time>
      </trkpt>
      <trkpt lat="48.21496" lon="-3.03421">
        <ele>168</ele>
        <time>2021-08-09T13:18:31Z</time>
      </trkpt>
      <trkpt lat="48.21496" lon="-3.03424">
        <ele>168</ele>
        <time>2021-08-09T13:18:32Z</time>
      </trkpt>
      <trkpt lat="48.21496" lon="-3.03427">
        <ele>168.2</ele>
        <time>2021-08-09T13:18:33Z</time>
      </trkpt>
      <trkpt lat="48.21496" lon="-3.03431">
        <ele>168.4</ele>
        <time>2021-08-09T13:18:34Z</time>
      </trkpt>
      <trkpt lat="48.21496" lon="-3.03435">
        <ele>168.4</ele>
        <time>2021-08-09T13:18:35Z</time>
      </trkpt>
      <trkpt lat="48.21496" lon="-3.03439">
        <ele>168.4</ele>
        <time>2021-08-09T13:18:36Z</time>
      </trkpt>
      <trkpt lat="48.21496" lon="-3.03443">
        <ele>168.6</ele>
        <time>2021-08-09T13:18:37Z</time>
      </trkpt>
      <trkpt lat="48.21495" lon="-3.03449">
        <ele>168.8</ele>
        <time>2021-08-09T13:18:38Z</time>
      </trkpt>
      <trkpt lat="48.21495" lon="-3.03453">
        <ele>169</ele>
        <time>2021-08-09T13:18:39Z</time>
      </trkpt>
      <trkpt lat="48.21496" lon="-3.03457">
        <ele>169</ele>
        <time>2021-08-09T13:18:40Z</time>
      </trkpt>
      <trkpt lat="48.21496" lon="-3.03461">
        <ele>169.2</ele>
        <time>2021-08-09T13:18:41Z</time>
      </trkpt>
      <trkpt lat="48.21496" lon="-3.03467">
        <ele>169.2</ele>
        <time>2021-08-09T13:18:42Z</time>
      </trkpt>
      <trkpt lat="48.21496" lon="-3.03472">
        <ele>169.2</ele>
        <time>2021-08-09T13:18:43Z</time>
      </trkpt>
      <trkpt lat="48.21496" lon="-3.03477">
        <ele>169.2</ele>
        <time>2021-08-09T13:18:44Z</time>
      </trkpt>
      <trkpt lat="48.21496" lon="-3.03482">
        <ele>169.4</ele>
        <time>2021-08-09T13:18:45Z</time>
      </trkpt>
      <trkpt lat="48.21496" lon="-3.03488">
        <ele>169.4</ele>
        <time>2021-08-09T13:18:46Z</time>
      </trkpt>
      <trkpt lat="48.21496" lon="-3.03493">
        <ele>169.4</ele>
        <time>2021-08-09T13:18:47Z</time>
      </trkpt>
      <trkpt lat="48.21496" lon="-3.03499">
        <ele>169.4</ele>
        <time>2021-08-09T13:18:48Z</time>
      </trkpt>
      <trkpt lat="48.21496" lon="-3.03505">
        <ele>169.4</ele>
        <time>2021-08-09T13:18:49Z</time>
      </trkpt>
      <trkpt lat="48.21496" lon="-3.0351">
        <ele>169.4</ele>
        <time>2021-08-09T13:18:50Z</time>
      </trkpt>
      <trkpt lat="48.21495" lon="-3.03516">
        <ele>169.4</ele>
        <time>2021-08-09T13:18:51Z</time>
      </trkpt>
      <trkpt lat="48.21495" lon="-3.03521">
        <ele>169.6</ele>
        <time>2021-08-09T13:18:52Z</time>
      </trkpt>
      <trkpt lat="48.21495" lon="-3.03527">
        <ele>169.6</ele>
        <time>2021-08-09T13:18:53Z</time>
      </trkpt>
      <trkpt lat="48.21495" lon="-3.03532">
        <ele>169.6</ele>
        <time>2021-08-09T13:18:54Z</time>
      </trkpt>
      <trkpt lat="48.21495" lon="-3.03537">
        <ele>169.6</ele>
        <time>2021-08-09T13:18:55Z</time>
      </trkpt>
      <trkpt lat="48.21495" lon="-3.03542">
        <ele>169.6</ele>
        <time>2021-08-09T13:18:56Z</time>
      </trkpt>
      <trkpt lat="48.21495" lon="-3.03547">
        <ele>169.6</ele>
        <time>2021-08-09T13:18:57Z</time>
      </trkpt>
      <trkpt lat="48.21495" lon="-3.03557">
        <ele>169.8</ele>
        <time>2021-08-09T13:18:59Z</time>
      </trkpt>
      <trkpt lat="48.21495" lon="-3.03563">
        <ele>169.8</ele>
        <time>2021-08-09T13:19:00Z</time>
      </trkpt>
      <trkpt lat="48.21495" lon="-3.03568">
        <ele>169.8</ele>
        <time>2021-08-09T13:19:01Z</time>
      </trkpt>
      <trkpt lat="48.21495" lon="-3.03573">
        <ele>169.8</ele>
        <time>2021-08-09T13:19:02Z</time>
      </trkpt>
      <trkpt lat="48.21495" lon="-3.03579">
        <ele>169.8</ele>
        <time>2021-08-09T13:19:03Z</time>
      </trkpt>
      <trkpt lat="48.21495" lon="-3.03585">
        <ele>169.8</ele>
        <time>2021-08-09T13:19:04Z</time>
      </trkpt>
      <trkpt lat="48.21495" lon="-3.0359">
        <ele>170</ele>
        <time>2021-08-09T13:19:05Z</time>
      </trkpt>
      <trkpt lat="48.21495" lon="-3.03596">
        <ele>170</ele>
        <time>2021-08-09T13:19:06Z</time>
      </trkpt>
      <trkpt lat="48.21495" lon="-3.03602">
        <ele>170</ele>
        <time>2021-08-09T13:19:07Z</time>
      </trkpt>
      <trkpt lat="48.21493" lon="-3.03608">
        <ele>170</ele>
        <time>2021-08-09T13:19:08Z</time>
      </trkpt>
      <trkpt lat="48.21488" lon="-3.03618">
        <ele>170</ele>
        <time>2021-08-09T13:19:10Z</time>
      </trkpt>
      <trkpt lat="48.21485" lon="-3.03623">
        <ele>170</ele>
        <time>2021-08-09T13:19:11Z</time>
      </trkpt>
      <trkpt lat="48.21483" lon="-3.03628">
        <ele>170</ele>
        <time>2021-08-09T13:19:12Z</time>
      </trkpt>
      <trkpt lat="48.21482" lon="-3.03634">
        <ele>170</ele>
        <time>2021-08-09T13:19:13Z</time>
      </trkpt>
      <trkpt lat="48.21482" lon="-3.03641">
        <ele>170</ele>
        <time>2021-08-09T13:19:14Z</time>
      </trkpt>
      <trkpt lat="48.21482" lon="-3.03647">
        <ele>170</ele>
        <time>2021-08-09T13:19:15Z</time>
      </trkpt>
      <trkpt lat="48.21484" lon="-3.03652">
        <ele>169.8</ele>
        <time>2021-08-09T13:19:16Z</time>
      </trkpt>
      <trkpt lat="48.21485" lon="-3.03658">
        <ele>169.8</ele>
        <time>2021-08-09T13:19:17Z</time>
      </trkpt>
      <trkpt lat="48.21486" lon="-3.03664">
        <ele>169.8</ele>
        <time>2021-08-09T13:19:18Z</time>
      </trkpt>
      <trkpt lat="48.21487" lon="-3.03669">
        <ele>169.6</ele>
        <time>2021-08-09T13:19:19Z</time>
      </trkpt>
      <trkpt lat="48.21489" lon="-3.0368">
        <ele>169.4</ele>
        <time>2021-08-09T13:19:21Z</time>
      </trkpt>
      <trkpt lat="48.2149" lon="-3.03685">
        <ele>169.4</ele>
        <time>2021-08-09T13:19:22Z</time>
      </trkpt>
      <trkpt lat="48.21491" lon="-3.03691">
        <ele>169.4</ele>
        <time>2021-08-09T13:19:23Z</time>
      </trkpt>
      <trkpt lat="48.21492" lon="-3.03696">
        <ele>169.4</ele>
        <time>2021-08-09T13:19:24Z</time>
      </trkpt>
      <trkpt lat="48.21493" lon="-3.03702">
        <ele>169.4</ele>
        <time>2021-08-09T13:19:25Z</time>
      </trkpt>
      <trkpt lat="48.21494" lon="-3.03707">
        <ele>169.4</ele>
        <time>2021-08-09T13:19:26Z</time>
      </trkpt>
      <trkpt lat="48.21495" lon="-3.03712">
        <ele>169.4</ele>
        <time>2021-08-09T13:19:27Z</time>
      </trkpt>
      <trkpt lat="48.21496" lon="-3.03718">
        <ele>169.4</ele>
        <time>2021-08-09T13:19:28Z</time>
      </trkpt>
      <trkpt lat="48.21496" lon="-3.03723">
        <ele>169.4</ele>
        <time>2021-08-09T13:19:29Z</time>
      </trkpt>
      <trkpt lat="48.21497" lon="-3.03728">
        <ele>169.4</ele>
        <time>2021-08-09T13:19:30Z</time>
      </trkpt>
      <trkpt lat="48.21499" lon="-3.03738">
        <ele>169.8</ele>
        <time>2021-08-09T13:19:32Z</time>
      </trkpt>
      <trkpt lat="48.215" lon="-3.03743">
        <ele>169.8</ele>
        <time>2021-08-09T13:19:33Z</time>
      </trkpt>
      <trkpt lat="48.21501" lon="-3.03748">
        <ele>169.8</ele>
        <time>2021-08-09T13:19:34Z</time>
      </trkpt>
      <trkpt lat="48.21502" lon="-3.03754">
        <ele>169.8</ele>
        <time>2021-08-09T13:19:35Z</time>
      </trkpt>
      <trkpt lat="48.21503" lon="-3.03759">
        <ele>169.8</ele>
        <time>2021-08-09T13:19:36Z</time>
      </trkpt>
      <trkpt lat="48.21504" lon="-3.03764">
        <ele>169.8</ele>
        <time>2021-08-09T13:19:37Z</time>
      </trkpt>
      <trkpt lat="48.21505" lon="-3.0377">
        <ele>169.8</ele>
        <time>2021-08-09T13:19:38Z</time>
      </trkpt>
      <trkpt lat="48.21507" lon="-3.03775">
        <ele>169.8</ele>
        <time>2021-08-09T13:19:39Z</time>
      </trkpt>
      <trkpt lat="48.21509" lon="-3.03779">
        <ele>170</ele>
        <time>2021-08-09T13:19:40Z</time>
      </trkpt>
      <trkpt lat="48.21511" lon="-3.03784">
        <ele>170</ele>
        <time>2021-08-09T13:19:41Z</time>
      </trkpt>
      <trkpt lat="48.21515" lon="-3.03792">
        <ele>170</ele>
        <time>2021-08-09T13:19:43Z</time>
      </trkpt>
      <trkpt lat="48.21517" lon="-3.03798">
        <ele>170</ele>
        <time>2021-08-09T13:19:44Z</time>
      </trkpt>
      <trkpt lat="48.21518" lon="-3.03804">
        <ele>170</ele>
        <time>2021-08-09T13:19:45Z</time>
      </trkpt>
      <trkpt lat="48.2152" lon="-3.0381">
        <ele>170</ele>
        <time>2021-08-09T13:19:46Z</time>
      </trkpt>
      <trkpt lat="48.21521" lon="-3.03818">
        <ele>170</ele>
        <time>2021-08-09T13:19:47Z</time>
      </trkpt>
      <trkpt lat="48.21523" lon="-3.03826">
        <ele>170</ele>
        <time>2021-08-09T13:19:48Z</time>
      </trkpt>
      <trkpt lat="48.21524" lon="-3.03834">
        <ele>170</ele>
        <time>2021-08-09T13:19:49Z</time>
      </trkpt>
      <trkpt lat="48.21526" lon="-3.03842">
        <ele>170</ele>
        <time>2021-08-09T13:19:50Z</time>
      </trkpt>
      <trkpt lat="48.21528" lon="-3.0385">
        <ele>170</ele>
        <time>2021-08-09T13:19:51Z</time>
      </trkpt>
      <trkpt lat="48.21529" lon="-3.03859">
        <ele>169.8</ele>
        <time>2021-08-09T13:19:52Z</time>
      </trkpt>
      <trkpt lat="48.21532" lon="-3.03875">
        <ele>169</ele>
        <time>2021-08-09T13:19:54Z</time>
      </trkpt>
      <trkpt lat="48.21534" lon="-3.03883">
        <ele>168.6</ele>
        <time>2021-08-09T13:19:55Z</time>
      </trkpt>
      <trkpt lat="48.21535" lon="-3.0389">
        <ele>168</ele>
        <time>2021-08-09T13:19:56Z</time>
      </trkpt>
      <trkpt lat="48.21536" lon="-3.03898">
        <ele>167.6</ele>
        <time>2021-08-09T13:19:57Z</time>
      </trkpt>
      <trkpt lat="48.21537" lon="-3.03906">
        <ele>167.2</ele>
        <time>2021-08-09T13:19:58Z</time>
      </trkpt>
      <trkpt lat="48.21539" lon="-3.03914">
        <ele>167</ele>
        <time>2021-08-09T13:19:59Z</time>
      </trkpt>
      <trkpt lat="48.2154" lon="-3.03921">
        <ele>166.8</ele>
        <time>2021-08-09T13:20:00Z</time>
      </trkpt>
      <trkpt lat="48.2154" lon="-3.03928">
        <ele>166.6</ele>
        <time>2021-08-09T13:20:01Z</time>
      </trkpt>
      <trkpt lat="48.21541" lon="-3.03935">
        <ele>166.6</ele>
        <time>2021-08-09T13:20:02Z</time>
      </trkpt>
      <trkpt lat="48.21542" lon="-3.03941">
        <ele>166.6</ele>
        <time>2021-08-09T13:20:03Z</time>
      </trkpt>
      <trkpt lat="48.21544" lon="-3.03952">
        <ele>166.6</ele>
        <time>2021-08-09T13:20:05Z</time>
      </trkpt>
      <trkpt lat="48.21545" lon="-3.03957">
        <ele>166.6</ele>
        <time>2021-08-09T13:20:06Z</time>
      </trkpt>
      <trkpt lat="48.21547" lon="-3.03961">
        <ele>166.6</ele>
        <time>2021-08-09T13:20:07Z</time>
      </trkpt>
      <trkpt lat="48.21548" lon="-3.03964">
        <ele>166.8</ele>
        <time>2021-08-09T13:20:08Z</time>
      </trkpt>
      <trkpt lat="48.2155" lon="-3.03967">
        <ele>166.8</ele>
        <time>2021-08-09T13:20:09Z</time>
      </trkpt>
      <trkpt lat="48.21551" lon="-3.03968">
        <ele>166.8</ele>
        <time>2021-08-09T13:20:10Z</time>
      </trkpt>
      <trkpt lat="48.21553" lon="-3.03969">
        <ele>167</ele>
        <time>2021-08-09T13:20:11Z</time>
      </trkpt>
      <trkpt lat="48.21554" lon="-3.0397">
        <ele>167.2</ele>
        <time>2021-08-09T13:20:12Z</time>
      </trkpt>
      <trkpt lat="48.21556" lon="-3.03971">
        <ele>167.4</ele>
        <time>2021-08-09T13:20:13Z</time>
      </trkpt>
      <trkpt lat="48.21558" lon="-3.03972">
        <ele>167.8</ele>
        <time>2021-08-09T13:20:14Z</time>
      </trkpt>
      <trkpt lat="48.2156" lon="-3.03974">
        <ele>168.2</ele>
        <time>2021-08-09T13:20:15Z</time>
      </trkpt>
      <trkpt lat="48.21561" lon="-3.03977">
        <ele>168.8</ele>
        <time>2021-08-09T13:20:16Z</time>
      </trkpt>
      <trkpt lat="48.21563" lon="-3.03981">
        <ele>169.2</ele>
        <time>2021-08-09T13:20:17Z</time>
      </trkpt>
      <trkpt lat="48.21564" lon="-3.03986">
        <ele>169.4</ele>
        <time>2021-08-09T13:20:18Z</time>
      </trkpt>
      <trkpt lat="48.21564" lon="-3.03991">
        <ele>169.6</ele>
        <time>2021-08-09T13:20:19Z</time>
      </trkpt>
      <trkpt lat="48.21565" lon="-3.03996">
        <ele>169.6</ele>
        <time>2021-08-09T13:20:20Z</time>
      </trkpt>
      <trkpt lat="48.21565" lon="-3.04002">
        <ele>169.8</ele>
        <time>2021-08-09T13:20:21Z</time>
      </trkpt>
      <trkpt lat="48.21565" lon="-3.04007">
        <ele>169.8</ele>
        <time>2021-08-09T13:20:22Z</time>
      </trkpt>
      <trkpt lat="48.21565" lon="-3.04013">
        <ele>169.8</ele>
        <time>2021-08-09T13:20:23Z</time>
      </trkpt>
      <trkpt lat="48.21565" lon="-3.04019">
        <ele>169.8</ele>
        <time>2021-08-09T13:20:24Z</time>
      </trkpt>
      <trkpt lat="48.21565" lon="-3.04024">
        <ele>169.8</ele>
        <time>2021-08-09T13:20:25Z</time>
      </trkpt>
      <trkpt lat="48.21565" lon="-3.04036">
        <ele>169.8</ele>
        <time>2021-08-09T13:20:27Z</time>
      </trkpt>
      <trkpt lat="48.21566" lon="-3.04041">
        <ele>169.8</ele>
        <time>2021-08-09T13:20:28Z</time>
      </trkpt>
      <trkpt lat="48.21566" lon="-3.04047">
        <ele>169.8</ele>
        <time>2021-08-09T13:20:29Z</time>
      </trkpt>
      <trkpt lat="48.21566" lon="-3.04052">
        <ele>169.8</ele>
        <time>2021-08-09T13:20:30Z</time>
      </trkpt>
      <trkpt lat="48.21565" lon="-3.04058">
        <ele>169.8</ele>
        <time>2021-08-09T13:20:31Z</time>
      </trkpt>
      <trkpt lat="48.21565" lon="-3.04063">
        <ele>169.8</ele>
        <time>2021-08-09T13:20:32Z</time>
      </trkpt>
      <trkpt lat="48.21564" lon="-3.04069">
        <ele>169.8</ele>
        <time>2021-08-09T13:20:33Z</time>
      </trkpt>
      <trkpt lat="48.21564" lon="-3.04075">
        <ele>169.8</ele>
        <time>2021-08-09T13:20:34Z</time>
      </trkpt>
      <trkpt lat="48.21563" lon="-3.0408">
        <ele>169.8</ele>
        <time>2021-08-09T13:20:35Z</time>
      </trkpt>
      <trkpt lat="48.21562" lon="-3.04086">
        <ele>169.8</ele>
        <time>2021-08-09T13:20:36Z</time>
      </trkpt>
      <trkpt lat="48.21561" lon="-3.04091">
        <ele>169.8</ele>
        <time>2021-08-09T13:20:37Z</time>
      </trkpt>
      <trkpt lat="48.2156" lon="-3.04097">
        <ele>169.8</ele>
        <time>2021-08-09T13:20:38Z</time>
      </trkpt>
      <trkpt lat="48.21559" lon="-3.04102">
        <ele>169.8</ele>
        <time>2021-08-09T13:20:39Z</time>
      </trkpt>
      <trkpt lat="48.21558" lon="-3.04107">
        <ele>169.8</ele>
        <time>2021-08-09T13:20:40Z</time>
      </trkpt>
      <trkpt lat="48.21558" lon="-3.04112">
        <ele>169.8</ele>
        <time>2021-08-09T13:20:41Z</time>
      </trkpt>
      <trkpt lat="48.21557" lon="-3.04117">
        <ele>169.8</ele>
        <time>2021-08-09T13:20:42Z</time>
      </trkpt>
      <trkpt lat="48.21556" lon="-3.04123">
        <ele>169.8</ele>
        <time>2021-08-09T13:20:43Z</time>
      </trkpt>
      <trkpt lat="48.21555" lon="-3.04128">
        <ele>169.8</ele>
        <time>2021-08-09T13:20:44Z</time>
      </trkpt>
      <trkpt lat="48.21553" lon="-3.04133">
        <ele>169.8</ele>
        <time>2021-08-09T13:20:45Z</time>
      </trkpt>
      <trkpt lat="48.21552" lon="-3.04139">
        <ele>170</ele>
        <time>2021-08-09T13:20:46Z</time>
      </trkpt>
      <trkpt lat="48.21551" lon="-3.04143">
        <ele>170.2</ele>
        <time>2021-08-09T13:20:47Z</time>
      </trkpt>
      <trkpt lat="48.2155" lon="-3.04148">
        <ele>170.4</ele>
        <time>2021-08-09T13:20:48Z</time>
      </trkpt>
      <trkpt lat="48.21549" lon="-3.04152">
        <ele>170.6</ele>
        <time>2021-08-09T13:20:49Z</time>
      </trkpt>
      <trkpt lat="48.21548" lon="-3.04157">
        <ele>170.6</ele>
        <time>2021-08-09T13:20:50Z</time>
      </trkpt>
      <trkpt lat="48.21547" lon="-3.04162">
        <ele>170.8</ele>
        <time>2021-08-09T13:20:51Z</time>
      </trkpt>
      <trkpt lat="48.21545" lon="-3.04166">
        <ele>170.8</ele>
        <time>2021-08-09T13:20:52Z</time>
      </trkpt>
      <trkpt lat="48.21544" lon="-3.04172">
        <ele>170.8</ele>
        <time>2021-08-09T13:20:53Z</time>
      </trkpt>
      <trkpt lat="48.21542" lon="-3.04178">
        <ele>170.8</ele>
        <time>2021-08-09T13:20:54Z</time>
      </trkpt>
      <trkpt lat="48.21541" lon="-3.04183">
        <ele>171</ele>
        <time>2021-08-09T13:20:55Z</time>
      </trkpt>
      <trkpt lat="48.2154" lon="-3.04189">
        <ele>171</ele>
        <time>2021-08-09T13:20:56Z</time>
      </trkpt>
      <trkpt lat="48.21538" lon="-3.04194">
        <ele>171</ele>
        <time>2021-08-09T13:20:57Z</time>
      </trkpt>
      <trkpt lat="48.21536" lon="-3.04199">
        <ele>171.2</ele>
        <time>2021-08-09T13:20:58Z</time>
      </trkpt>
      <trkpt lat="48.21532" lon="-3.0421">
        <ele>171.2</ele>
        <time>2021-08-09T13:21:00Z</time>
      </trkpt>
      <trkpt lat="48.2153" lon="-3.04216">
        <ele>171.2</ele>
        <time>2021-08-09T13:21:01Z</time>
      </trkpt>
      <trkpt lat="48.21528" lon="-3.04221">
        <ele>171.2</ele>
        <time>2021-08-09T13:21:02Z</time>
      </trkpt>
      <trkpt lat="48.21527" lon="-3.04227">
        <ele>171.2</ele>
        <time>2021-08-09T13:21:03Z</time>
      </trkpt>
      <trkpt lat="48.21525" lon="-3.04232">
        <ele>171.2</ele>
        <time>2021-08-09T13:21:04Z</time>
      </trkpt>
      <trkpt lat="48.21523" lon="-3.04238">
        <ele>171.2</ele>
        <time>2021-08-09T13:21:05Z</time>
      </trkpt>
      <trkpt lat="48.21521" lon="-3.04244">
        <ele>171.4</ele>
        <time>2021-08-09T13:21:06Z</time>
      </trkpt>
      <trkpt lat="48.2152" lon="-3.04249">
        <ele>171.4</ele>
        <time>2021-08-09T13:21:07Z</time>
      </trkpt>
      <trkpt lat="48.21518" lon="-3.04255">
        <ele>171.4</ele>
        <time>2021-08-09T13:21:08Z</time>
      </trkpt>
      <trkpt lat="48.21516" lon="-3.04261">
        <ele>171.4</ele>
        <time>2021-08-09T13:21:09Z</time>
      </trkpt>
      <trkpt lat="48.21514" lon="-3.04267">
        <ele>171.6</ele>
        <time>2021-08-09T13:21:10Z</time>
      </trkpt>
      <trkpt lat="48.21513" lon="-3.04273">
        <ele>171.6</ele>
        <time>2021-08-09T13:21:11Z</time>
      </trkpt>
      <trkpt lat="48.21511" lon="-3.04278">
        <ele>171.6</ele>
        <time>2021-08-09T13:21:12Z</time>
      </trkpt>
      <trkpt lat="48.21509" lon="-3.04284">
        <ele>171.6</ele>
        <time>2021-08-09T13:21:13Z</time>
      </trkpt>
      <trkpt lat="48.21507" lon="-3.0429">
        <ele>171.6</ele>
        <time>2021-08-09T13:21:14Z</time>
      </trkpt>
      <trkpt lat="48.21506" lon="-3.04295">
        <ele>171.6</ele>
        <time>2021-08-09T13:21:15Z</time>
      </trkpt>
      <trkpt lat="48.21504" lon="-3.04301">
        <ele>171.8</ele>
        <time>2021-08-09T13:21:16Z</time>
      </trkpt>
      <trkpt lat="48.21502" lon="-3.04307">
        <ele>171.8</ele>
        <time>2021-08-09T13:21:17Z</time>
      </trkpt>
      <trkpt lat="48.215" lon="-3.04313">
        <ele>171.8</ele>
        <time>2021-08-09T13:21:18Z</time>
      </trkpt>
      <trkpt lat="48.21498" lon="-3.04319">
        <ele>172</ele>
        <time>2021-08-09T13:21:19Z</time>
      </trkpt>
      <trkpt lat="48.21496" lon="-3.04324">
        <ele>172</ele>
        <time>2021-08-09T13:21:20Z</time>
      </trkpt>
      <trkpt lat="48.21493" lon="-3.04336">
        <ele>172.2</ele>
        <time>2021-08-09T13:21:22Z</time>
      </trkpt>
      <trkpt lat="48.21491" lon="-3.04343">
        <ele>172.2</ele>
        <time>2021-08-09T13:21:23Z</time>
      </trkpt>
      <trkpt lat="48.2149" lon="-3.04349">
        <ele>172.2</ele>
        <time>2021-08-09T13:21:24Z</time>
      </trkpt>
      <trkpt lat="48.21489" lon="-3.04355">
        <ele>172.2</ele>
        <time>2021-08-09T13:21:25Z</time>
      </trkpt>
      <trkpt lat="48.21487" lon="-3.04361">
        <ele>172.2</ele>
        <time>2021-08-09T13:21:26Z</time>
      </trkpt>
      <trkpt lat="48.21486" lon="-3.04367">
        <ele>172.4</ele>
        <time>2021-08-09T13:21:27Z</time>
      </trkpt>
      <trkpt lat="48.21485" lon="-3.04373">
        <ele>172.4</ele>
        <time>2021-08-09T13:21:28Z</time>
      </trkpt>
      <trkpt lat="48.21484" lon="-3.04379">
        <ele>172.4</ele>
        <time>2021-08-09T13:21:29Z</time>
      </trkpt>
      <trkpt lat="48.21483" lon="-3.04385">
        <ele>172.4</ele>
        <time>2021-08-09T13:21:30Z</time>
      </trkpt>
      <trkpt lat="48.21482" lon="-3.04391">
        <ele>172.4</ele>
        <time>2021-08-09T13:21:31Z</time>
      </trkpt>
      <trkpt lat="48.21481" lon="-3.04404">
        <ele>172.2</ele>
        <time>2021-08-09T13:21:33Z</time>
      </trkpt>
      <trkpt lat="48.2148" lon="-3.0441">
        <ele>172.2</ele>
        <time>2021-08-09T13:21:34Z</time>
      </trkpt>
      <trkpt lat="48.21479" lon="-3.04416">
        <ele>172.2</ele>
        <time>2021-08-09T13:21:35Z</time>
      </trkpt>
      <trkpt lat="48.21478" lon="-3.04423">
        <ele>172.2</ele>
        <time>2021-08-09T13:21:36Z</time>
      </trkpt>
      <trkpt lat="48.21478" lon="-3.04429">
        <ele>172.2</ele>
        <time>2021-08-09T13:21:37Z</time>
      </trkpt>
      <trkpt lat="48.21477" lon="-3.04434">
        <ele>172.2</ele>
        <time>2021-08-09T13:21:38Z</time>
      </trkpt>
      <trkpt lat="48.21477" lon="-3.04439">
        <ele>172.2</ele>
        <time>2021-08-09T13:21:39Z</time>
      </trkpt>
      <trkpt lat="48.21477" lon="-3.04445">
        <ele>172.2</ele>
        <time>2021-08-09T13:21:40Z</time>
      </trkpt>
      <trkpt lat="48.21477" lon="-3.04451">
        <ele>172.2</ele>
        <time>2021-08-09T13:21:41Z</time>
      </trkpt>
      <trkpt lat="48.21477" lon="-3.04457">
        <ele>172.2</ele>
        <time>2021-08-09T13:21:42Z</time>
      </trkpt>
      <trkpt lat="48.21477" lon="-3.04463">
        <ele>172.2</ele>
        <time>2021-08-09T13:21:43Z</time>
      </trkpt>
      <trkpt lat="48.21477" lon="-3.04468">
        <ele>172.4</ele>
        <time>2021-08-09T13:21:44Z</time>
      </trkpt>
      <trkpt lat="48.21478" lon="-3.04474">
        <ele>172.4</ele>
        <time>2021-08-09T13:21:45Z</time>
      </trkpt>
      <trkpt lat="48.21478" lon="-3.04479">
        <ele>172.4</ele>
        <time>2021-08-09T13:21:46Z</time>
      </trkpt>
      <trkpt lat="48.21478" lon="-3.04484">
        <ele>172.4</ele>
        <time>2021-08-09T13:21:47Z</time>
      </trkpt>
      <trkpt lat="48.21478" lon="-3.04489">
        <ele>172.4</ele>
        <time>2021-08-09T13:21:48Z</time>
      </trkpt>
      <trkpt lat="48.21479" lon="-3.04494">
        <ele>172.4</ele>
        <time>2021-08-09T13:21:49Z</time>
      </trkpt>
      <trkpt lat="48.2148" lon="-3.045">
        <ele>172.4</ele>
        <time>2021-08-09T13:21:50Z</time>
      </trkpt>
      <trkpt lat="48.21481" lon="-3.04505">
        <ele>172.6</ele>
        <time>2021-08-09T13:21:51Z</time>
      </trkpt>
      <trkpt lat="48.21481" lon="-3.0451">
        <ele>172.6</ele>
        <time>2021-08-09T13:21:52Z</time>
      </trkpt>
      <trkpt lat="48.21482" lon="-3.04516">
        <ele>172.6</ele>
        <time>2021-08-09T13:21:53Z</time>
      </trkpt>
      <trkpt lat="48.21482" lon="-3.04527">
        <ele>172.8</ele>
        <time>2021-08-09T13:21:55Z</time>
      </trkpt>
      <trkpt lat="48.21483" lon="-3.04531">
        <ele>172.8</ele>
        <time>2021-08-09T13:21:56Z</time>
      </trkpt>
      <trkpt lat="48.21483" lon="-3.04536">
        <ele>173</ele>
        <time>2021-08-09T13:21:57Z</time>
      </trkpt>
      <trkpt lat="48.21484" lon="-3.0454">
        <ele>173</ele>
        <time>2021-08-09T13:21:58Z</time>
      </trkpt>
      <trkpt lat="48.21484" lon="-3.04545">
        <ele>173.2</ele>
        <time>2021-08-09T13:21:59Z</time>
      </trkpt>
      <trkpt lat="48.21485" lon="-3.04549">
        <ele>173.2</ele>
        <time>2021-08-09T13:22:00Z</time>
      </trkpt>
      <trkpt lat="48.21486" lon="-3.04553">
        <ele>173.4</ele>
        <time>2021-08-09T13:22:01Z</time>
      </trkpt>
      <trkpt lat="48.21487" lon="-3.04557">
        <ele>173.4</ele>
        <time>2021-08-09T13:22:02Z</time>
      </trkpt>
      <trkpt lat="48.21488" lon="-3.04562">
        <ele>173.6</ele>
        <time>2021-08-09T13:22:03Z</time>
      </trkpt>
      <trkpt lat="48.21489" lon="-3.04566">
        <ele>173.8</ele>
        <time>2021-08-09T13:22:04Z</time>
      </trkpt>
      <trkpt lat="48.21492" lon="-3.04575">
        <ele>174</ele>
        <time>2021-08-09T13:22:06Z</time>
      </trkpt>
      <trkpt lat="48.21493" lon="-3.0458">
        <ele>174.2</ele>
        <time>2021-08-09T13:22:07Z</time>
      </trkpt>
      <trkpt lat="48.21494" lon="-3.04585">
        <ele>174.2</ele>
        <time>2021-08-09T13:22:08Z</time>
      </trkpt>
      <trkpt lat="48.21496" lon="-3.04589">
        <ele>174.2</ele>
        <time>2021-08-09T13:22:09Z</time>
      </trkpt>
      <trkpt lat="48.21498" lon="-3.04594">
        <ele>174.2</ele>
        <time>2021-08-09T13:22:10Z</time>
      </trkpt>
      <trkpt lat="48.21499" lon="-3.04599">
        <ele>174.4</ele>
        <time>2021-08-09T13:22:11Z</time>
      </trkpt>
      <trkpt lat="48.215" lon="-3.04604">
        <ele>174.4</ele>
        <time>2021-08-09T13:22:12Z</time>
      </trkpt>
      <trkpt lat="48.21502" lon="-3.04609">
        <ele>174.6</ele>
        <time>2021-08-09T13:22:13Z</time>
      </trkpt>
      <trkpt lat="48.21504" lon="-3.04613">
        <ele>174.6</ele>
        <time>2021-08-09T13:22:14Z</time>
      </trkpt>
      <trkpt lat="48.21505" lon="-3.04617">
        <ele>174.6</ele>
        <time>2021-08-09T13:22:15Z</time>
      </trkpt>
      <trkpt lat="48.21506" lon="-3.0462">
        <ele>174.6</ele>
        <time>2021-08-09T13:22:16Z</time>
      </trkpt>
      <trkpt lat="48.21507" lon="-3.04624">
        <ele>174.8</ele>
        <time>2021-08-09T13:22:17Z</time>
      </trkpt>
      <trkpt lat="48.21509" lon="-3.04628">
        <ele>174.8</ele>
        <time>2021-08-09T13:22:18Z</time>
      </trkpt>
      <trkpt lat="48.2151" lon="-3.04631">
        <ele>174.8</ele>
        <time>2021-08-09T13:22:19Z</time>
      </trkpt>
      <trkpt lat="48.21511" lon="-3.04634">
        <ele>175</ele>
        <time>2021-08-09T13:22:20Z</time>
      </trkpt>
      <trkpt lat="48.21512" lon="-3.04638">
        <ele>175</ele>
        <time>2021-08-09T13:22:21Z</time>
      </trkpt>
      <trkpt lat="48.21514" lon="-3.04641">
        <ele>175</ele>
        <time>2021-08-09T13:22:22Z</time>
      </trkpt>
      <trkpt lat="48.21515" lon="-3.04645">
        <ele>175</ele>
        <time>2021-08-09T13:22:23Z</time>
      </trkpt>
      <trkpt lat="48.21516" lon="-3.04649">
        <ele>175.2</ele>
        <time>2021-08-09T13:22:24Z</time>
      </trkpt>
      <trkpt lat="48.21517" lon="-3.04652">
        <ele>175.2</ele>
        <time>2021-08-09T13:22:25Z</time>
      </trkpt>
      <trkpt lat="48.21519" lon="-3.04656">
        <ele>175.2</ele>
        <time>2021-08-09T13:22:26Z</time>
      </trkpt>
      <trkpt lat="48.21521" lon="-3.04663">
        <ele>175.4</ele>
        <time>2021-08-09T13:22:28Z</time>
      </trkpt>
      <trkpt lat="48.21523" lon="-3.04667">
        <ele>175.4</ele>
        <time>2021-08-09T13:22:29Z</time>
      </trkpt>
      <trkpt lat="48.21524" lon="-3.04671">
        <ele>175.6</ele>
        <time>2021-08-09T13:22:30Z</time>
      </trkpt>
      <trkpt lat="48.21525" lon="-3.04674">
        <ele>175.6</ele>
        <time>2021-08-09T13:22:31Z</time>
      </trkpt>
      <trkpt lat="48.21526" lon="-3.04679">
        <ele>175.6</ele>
        <time>2021-08-09T13:22:32Z</time>
      </trkpt>
      <trkpt lat="48.21527" lon="-3.04684">
        <ele>175.6</ele>
        <time>2021-08-09T13:22:33Z</time>
      </trkpt>
      <trkpt lat="48.21529" lon="-3.04689">
        <ele>175.6</ele>
        <time>2021-08-09T13:22:34Z</time>
      </trkpt>
      <trkpt lat="48.2153" lon="-3.04695">
        <ele>175.6</ele>
        <time>2021-08-09T13:22:35Z</time>
      </trkpt>
      <trkpt lat="48.21532" lon="-3.04701">
        <ele>175.8</ele>
        <time>2021-08-09T13:22:36Z</time>
      </trkpt>
      <trkpt lat="48.21534" lon="-3.04706">
        <ele>175.8</ele>
        <time>2021-08-09T13:22:37Z</time>
      </trkpt>
      <trkpt lat="48.21537" lon="-3.04717">
        <ele>176</ele>
        <time>2021-08-09T13:22:39Z</time>
      </trkpt>
      <trkpt lat="48.21539" lon="-3.04723">
        <ele>176</ele>
        <time>2021-08-09T13:22:40Z</time>
      </trkpt>
      <trkpt lat="48.2154" lon="-3.04728">
        <ele>176.2</ele>
        <time>2021-08-09T13:22:41Z</time>
      </trkpt>
      <trkpt lat="48.21542" lon="-3.04733">
        <ele>176.2</ele>
        <time>2021-08-09T13:22:42Z</time>
      </trkpt>
      <trkpt lat="48.21543" lon="-3.04738">
        <ele>176.2</ele>
        <time>2021-08-09T13:22:43Z</time>
      </trkpt>
      <trkpt lat="48.21544" lon="-3.04742">
        <ele>176.2</ele>
        <time>2021-08-09T13:22:44Z</time>
      </trkpt>
      <trkpt lat="48.21545" lon="-3.04746">
        <ele>176.2</ele>
        <time>2021-08-09T13:22:45Z</time>
      </trkpt>
      <trkpt lat="48.21547" lon="-3.0475">
        <ele>176.4</ele>
        <time>2021-08-09T13:22:46Z</time>
      </trkpt>
      <trkpt lat="48.21548" lon="-3.04754">
        <ele>176.4</ele>
        <time>2021-08-09T13:22:47Z</time>
      </trkpt>
      <trkpt lat="48.2155" lon="-3.04758">
        <ele>176.4</ele>
        <time>2021-08-09T13:22:48Z</time>
      </trkpt>
      <trkpt lat="48.21553" lon="-3.04768">
        <ele>176.6</ele>
        <time>2021-08-09T13:22:50Z</time>
      </trkpt>
      <trkpt lat="48.21555" lon="-3.04774">
        <ele>176.8</ele>
        <time>2021-08-09T13:22:51Z</time>
      </trkpt>
      <trkpt lat="48.21556" lon="-3.0478">
        <ele>176.8</ele>
        <time>2021-08-09T13:22:52Z</time>
      </trkpt>
      <trkpt lat="48.21558" lon="-3.04785">
        <ele>176.8</ele>
        <time>2021-08-09T13:22:53Z</time>
      </trkpt>
      <trkpt lat="48.21559" lon="-3.0479">
        <ele>177</ele>
        <time>2021-08-09T13:22:54Z</time>
      </trkpt>
      <trkpt lat="48.2156" lon="-3.04795">
        <ele>177.4</ele>
        <time>2021-08-09T13:22:55Z</time>
      </trkpt>
      <trkpt lat="48.21562" lon="-3.048">
        <ele>177.6</ele>
        <time>2021-08-09T13:22:56Z</time>
      </trkpt>
      <trkpt lat="48.21563" lon="-3.04806">
        <ele>177.8</ele>
        <time>2021-08-09T13:22:57Z</time>
      </trkpt>
      <trkpt lat="48.21565" lon="-3.0481">
        <ele>178</ele>
        <time>2021-08-09T13:22:58Z</time>
      </trkpt>
      <trkpt lat="48.21566" lon="-3.04815">
        <ele>178</ele>
        <time>2021-08-09T13:22:59Z</time>
      </trkpt>
      <trkpt lat="48.21569" lon="-3.04824">
        <ele>178.2</ele>
        <time>2021-08-09T13:23:01Z</time>
      </trkpt>
      <trkpt lat="48.2157" lon="-3.04828">
        <ele>178.4</ele>
        <time>2021-08-09T13:23:02Z</time>
      </trkpt>
      <trkpt lat="48.21572" lon="-3.04832">
        <ele>178.4</ele>
        <time>2021-08-09T13:23:03Z</time>
      </trkpt>
      <trkpt lat="48.21574" lon="-3.04837">
        <ele>178.4</ele>
        <time>2021-08-09T13:23:04Z</time>
      </trkpt>
      <trkpt lat="48.21575" lon="-3.04842">
        <ele>178.6</ele>
        <time>2021-08-09T13:23:05Z</time>
      </trkpt>
      <trkpt lat="48.21577" lon="-3.04847">
        <ele>178.6</ele>
        <time>2021-08-09T13:23:06Z</time>
      </trkpt>
      <trkpt lat="48.21578" lon="-3.04852">
        <ele>178.6</ele>
        <time>2021-08-09T13:23:07Z</time>
      </trkpt>
      <trkpt lat="48.21579" lon="-3.04857">
        <ele>178.6</ele>
        <time>2021-08-09T13:23:08Z</time>
      </trkpt>
      <trkpt lat="48.21581" lon="-3.04861">
        <ele>178.8</ele>
        <time>2021-08-09T13:23:09Z</time>
      </trkpt>
      <trkpt lat="48.21582" lon="-3.04865">
        <ele>178.8</ele>
        <time>2021-08-09T13:23:10Z</time>
      </trkpt>
      <trkpt lat="48.21585" lon="-3.04874">
        <ele>179.2</ele>
        <time>2021-08-09T13:23:12Z</time>
      </trkpt>
      <trkpt lat="48.21586" lon="-3.04879">
        <ele>179.2</ele>
        <time>2021-08-09T13:23:13Z</time>
      </trkpt>
      <trkpt lat="48.21588" lon="-3.04884">
        <ele>179.4</ele>
        <time>2021-08-09T13:23:14Z</time>
      </trkpt>
      <trkpt lat="48.21589" lon="-3.04888">
        <ele>179.6</ele>
        <time>2021-08-09T13:23:15Z</time>
      </trkpt>
      <trkpt lat="48.2159" lon="-3.04893">
        <ele>179.6</ele>
        <time>2021-08-09T13:23:16Z</time>
      </trkpt>
      <trkpt lat="48.21592" lon="-3.04897">
        <ele>179.8</ele>
        <time>2021-08-09T13:23:17Z</time>
      </trkpt>
      <trkpt lat="48.21593" lon="-3.049">
        <ele>179.8</ele>
        <time>2021-08-09T13:23:18Z</time>
      </trkpt>
      <trkpt lat="48.21594" lon="-3.04905">
        <ele>179.8</ele>
        <time>2021-08-09T13:23:19Z</time>
      </trkpt>
      <trkpt lat="48.21595" lon="-3.04909">
        <ele>179.8</ele>
        <time>2021-08-09T13:23:20Z</time>
      </trkpt>
      <trkpt lat="48.21597" lon="-3.04915">
        <ele>179.8</ele>
        <time>2021-08-09T13:23:21Z</time>
      </trkpt>
      <trkpt lat="48.216" lon="-3.04924">
        <ele>180</ele>
        <time>2021-08-09T13:23:23Z</time>
      </trkpt>
      <trkpt lat="48.21601" lon="-3.04927">
        <ele>180.2</ele>
        <time>2021-08-09T13:23:24Z</time>
      </trkpt>
      <trkpt lat="48.21603" lon="-3.04932">
        <ele>180.2</ele>
        <time>2021-08-09T13:23:25Z</time>
      </trkpt>
      <trkpt lat="48.21605" lon="-3.04936">
        <ele>180.2</ele>
        <time>2021-08-09T13:23:26Z</time>
      </trkpt>
      <trkpt lat="48.21606" lon="-3.04942">
        <ele>180.4</ele>
        <time>2021-08-09T13:23:27Z</time>
      </trkpt>
      <trkpt lat="48.21608" lon="-3.04946">
        <ele>180.4</ele>
        <time>2021-08-09T13:23:28Z</time>
      </trkpt>
      <trkpt lat="48.21609" lon="-3.04951">
        <ele>180.4</ele>
        <time>2021-08-09T13:23:29Z</time>
      </trkpt>
      <trkpt lat="48.21611" lon="-3.04956">
        <ele>180.4</ele>
        <time>2021-08-09T13:23:30Z</time>
      </trkpt>
      <trkpt lat="48.21612" lon="-3.0496">
        <ele>180.4</ele>
        <time>2021-08-09T13:23:31Z</time>
      </trkpt>
      <trkpt lat="48.21614" lon="-3.04965">
        <ele>180.4</ele>
        <time>2021-08-09T13:23:32Z</time>
      </trkpt>
      <trkpt lat="48.21617" lon="-3.04972">
        <ele>180.4</ele>
        <time>2021-08-09T13:23:34Z</time>
      </trkpt>
      <trkpt lat="48.21618" lon="-3.04976">
        <ele>180.6</ele>
        <time>2021-08-09T13:23:35Z</time>
      </trkpt>
      <trkpt lat="48.21621" lon="-3.04979">
        <ele>180.6</ele>
        <time>2021-08-09T13:23:36Z</time>
      </trkpt>
      <trkpt lat="48.21623" lon="-3.04983">
        <ele>180.6</ele>
        <time>2021-08-09T13:23:37Z</time>
      </trkpt>
      <trkpt lat="48.21625" lon="-3.04986">
        <ele>180.6</ele>
        <time>2021-08-09T13:23:38Z</time>
      </trkpt>
      <trkpt lat="48.21626" lon="-3.04991">
        <ele>180.8</ele>
        <time>2021-08-09T13:23:39Z</time>
      </trkpt>
      <trkpt lat="48.21627" lon="-3.04995">
        <ele>180.8</ele>
        <time>2021-08-09T13:23:40Z</time>
      </trkpt>
      <trkpt lat="48.21629" lon="-3.05">
        <ele>180.8</ele>
        <time>2021-08-09T13:23:41Z</time>
      </trkpt>
      <trkpt lat="48.21631" lon="-3.05004">
        <ele>181</ele>
        <time>2021-08-09T13:23:42Z</time>
      </trkpt>
      <trkpt lat="48.21632" lon="-3.0501">
        <ele>181</ele>
        <time>2021-08-09T13:23:43Z</time>
      </trkpt>
      <trkpt lat="48.21635" lon="-3.0502">
        <ele>181.4</ele>
        <time>2021-08-09T13:23:45Z</time>
      </trkpt>
      <trkpt lat="48.21637" lon="-3.05025">
        <ele>181.4</ele>
        <time>2021-08-09T13:23:46Z</time>
      </trkpt>
      <trkpt lat="48.21638" lon="-3.0503">
        <ele>181.6</ele>
        <time>2021-08-09T13:23:47Z</time>
      </trkpt>
      <trkpt lat="48.2164" lon="-3.05034">
        <ele>181.6</ele>
        <time>2021-08-09T13:23:48Z</time>
      </trkpt>
      <trkpt lat="48.21641" lon="-3.05038">
        <ele>181.6</ele>
        <time>2021-08-09T13:23:49Z</time>
      </trkpt>
      <trkpt lat="48.21643" lon="-3.05042">
        <ele>181.6</ele>
        <time>2021-08-09T13:23:50Z</time>
      </trkpt>
      <trkpt lat="48.21644" lon="-3.05047">
        <ele>181.6</ele>
        <time>2021-08-09T13:23:51Z</time>
      </trkpt>
      <trkpt lat="48.21646" lon="-3.05051">
        <ele>181.6</ele>
        <time>2021-08-09T13:23:52Z</time>
      </trkpt>
      <trkpt lat="48.21647" lon="-3.05056">
        <ele>181.8</ele>
        <time>2021-08-09T13:23:53Z</time>
      </trkpt>
      <trkpt lat="48.21649" lon="-3.0506">
        <ele>181.8</ele>
        <time>2021-08-09T13:23:54Z</time>
      </trkpt>
      <trkpt lat="48.21652" lon="-3.05068">
        <ele>181.8</ele>
        <time>2021-08-09T13:23:56Z</time>
      </trkpt>
      <trkpt lat="48.21654" lon="-3.05073">
        <ele>181.8</ele>
        <time>2021-08-09T13:23:57Z</time>
      </trkpt>
      <trkpt lat="48.21656" lon="-3.05079">
        <ele>181.8</ele>
        <time>2021-08-09T13:23:58Z</time>
      </trkpt>
      <trkpt lat="48.21657" lon="-3.05083">
        <ele>181.8</ele>
        <time>2021-08-09T13:23:59Z</time>
      </trkpt>
      <trkpt lat="48.21659" lon="-3.05087">
        <ele>182</ele>
        <time>2021-08-09T13:24:00Z</time>
      </trkpt>
      <trkpt lat="48.2166" lon="-3.05091">
        <ele>182</ele>
        <time>2021-08-09T13:24:01Z</time>
      </trkpt>
      <trkpt lat="48.21662" lon="-3.05094">
        <ele>182.2</ele>
        <time>2021-08-09T13:24:02Z</time>
      </trkpt>
      <trkpt lat="48.21664" lon="-3.05099">
        <ele>182.2</ele>
        <time>2021-08-09T13:24:03Z</time>
      </trkpt>
      <trkpt lat="48.21665" lon="-3.05103">
        <ele>182.4</ele>
        <time>2021-08-09T13:24:04Z</time>
      </trkpt>
      <trkpt lat="48.21667" lon="-3.05107">
        <ele>182.4</ele>
        <time>2021-08-09T13:24:05Z</time>
      </trkpt>
      <trkpt lat="48.2167" lon="-3.05115">
        <ele>182.6</ele>
        <time>2021-08-09T13:24:07Z</time>
      </trkpt>
      <trkpt lat="48.21671" lon="-3.05119">
        <ele>182.6</ele>
        <time>2021-08-09T13:24:08Z</time>
      </trkpt>
      <trkpt lat="48.21672" lon="-3.05124">
        <ele>182.8</ele>
        <time>2021-08-09T13:24:09Z</time>
      </trkpt>
      <trkpt lat="48.21673" lon="-3.05128">
        <ele>182.8</ele>
        <time>2021-08-09T13:24:10Z</time>
      </trkpt>
      <trkpt lat="48.21674" lon="-3.05132">
        <ele>182.8</ele>
        <time>2021-08-09T13:24:11Z</time>
      </trkpt>
      <trkpt lat="48.21675" lon="-3.05136">
        <ele>183</ele>
        <time>2021-08-09T13:24:12Z</time>
      </trkpt>
      <trkpt lat="48.21676" lon="-3.05141">
        <ele>183</ele>
        <time>2021-08-09T13:24:13Z</time>
      </trkpt>
      <trkpt lat="48.21677" lon="-3.05147">
        <ele>183</ele>
        <time>2021-08-09T13:24:14Z</time>
      </trkpt>
      <trkpt lat="48.21678" lon="-3.05152">
        <ele>183.2</ele>
        <time>2021-08-09T13:24:15Z</time>
      </trkpt>
      <trkpt lat="48.2168" lon="-3.05157">
        <ele>183.2</ele>
        <time>2021-08-09T13:24:16Z</time>
      </trkpt>
      <trkpt lat="48.21682" lon="-3.05162">
        <ele>183.2</ele>
        <time>2021-08-09T13:24:17Z</time>
      </trkpt>
      <trkpt lat="48.21683" lon="-3.05167">
        <ele>183.4</ele>
        <time>2021-08-09T13:24:18Z</time>
      </trkpt>
      <trkpt lat="48.21685" lon="-3.05171">
        <ele>183.4</ele>
        <time>2021-08-09T13:24:19Z</time>
      </trkpt>
      <trkpt lat="48.21687" lon="-3.05175">
        <ele>183.6</ele>
        <time>2021-08-09T13:24:20Z</time>
      </trkpt>
      <trkpt lat="48.21688" lon="-3.05179">
        <ele>183.6</ele>
        <time>2021-08-09T13:24:21Z</time>
      </trkpt>
      <trkpt lat="48.2169" lon="-3.05183">
        <ele>183.8</ele>
        <time>2021-08-09T13:24:22Z</time>
      </trkpt>
      <trkpt lat="48.21691" lon="-3.05187">
        <ele>183.8</ele>
        <time>2021-08-09T13:24:23Z</time>
      </trkpt>
      <trkpt lat="48.21693" lon="-3.0519">
        <ele>183.8</ele>
        <time>2021-08-09T13:24:24Z</time>
      </trkpt>
      <trkpt lat="48.21695" lon="-3.05194">
        <ele>183.8</ele>
        <time>2021-08-09T13:24:25Z</time>
      </trkpt>
      <trkpt lat="48.21696" lon="-3.05197">
        <ele>184</ele>
        <time>2021-08-09T13:24:26Z</time>
      </trkpt>
      <trkpt lat="48.21697" lon="-3.052">
        <ele>184</ele>
        <time>2021-08-09T13:24:27Z</time>
      </trkpt>
      <trkpt lat="48.21701" lon="-3.05208">
        <ele>184</ele>
        <time>2021-08-09T13:24:29Z</time>
      </trkpt>
      <trkpt lat="48.21702" lon="-3.05212">
        <ele>184</ele>
        <time>2021-08-09T13:24:30Z</time>
      </trkpt>
      <trkpt lat="48.21704" lon="-3.05217">
        <ele>184</ele>
        <time>2021-08-09T13:24:31Z</time>
      </trkpt>
      <trkpt lat="48.21705" lon="-3.05222">
        <ele>184</ele>
        <time>2021-08-09T13:24:32Z</time>
      </trkpt>
      <trkpt lat="48.21706" lon="-3.05227">
        <ele>184.2</ele>
        <time>2021-08-09T13:24:33Z</time>
      </trkpt>
      <trkpt lat="48.21707" lon="-3.05231">
        <ele>184.2</ele>
        <time>2021-08-09T13:24:34Z</time>
      </trkpt>
      <trkpt lat="48.21707" lon="-3.05236">
        <ele>184.2</ele>
        <time>2021-08-09T13:24:35Z</time>
      </trkpt>
      <trkpt lat="48.21708" lon="-3.05241">
        <ele>184.2</ele>
        <time>2021-08-09T13:24:36Z</time>
      </trkpt>
      <trkpt lat="48.21709" lon="-3.05248">
        <ele>184.2</ele>
        <time>2021-08-09T13:24:37Z</time>
      </trkpt>
      <trkpt lat="48.2171" lon="-3.05256">
        <ele>184.2</ele>
        <time>2021-08-09T13:24:38Z</time>
      </trkpt>
      <trkpt lat="48.21712" lon="-3.05272">
        <ele>184.4</ele>
        <time>2021-08-09T13:24:40Z</time>
      </trkpt>
      <trkpt lat="48.21712" lon="-3.05279">
        <ele>184.4</ele>
        <time>2021-08-09T13:24:41Z</time>
      </trkpt>
      <trkpt lat="48.21714" lon="-3.05285">
        <ele>184.4</ele>
        <time>2021-08-09T13:24:42Z</time>
      </trkpt>
      <trkpt lat="48.21715" lon="-3.05292">
        <ele>184.4</ele>
        <time>2021-08-09T13:24:43Z</time>
      </trkpt>
      <trkpt lat="48.21716" lon="-3.053">
        <ele>184.8</ele>
        <time>2021-08-09T13:24:44Z</time>
      </trkpt>
      <trkpt lat="48.21717" lon="-3.05307">
        <ele>184.8</ele>
        <time>2021-08-09T13:24:45Z</time>
      </trkpt>
      <trkpt lat="48.21718" lon="-3.05313">
        <ele>184.8</ele>
        <time>2021-08-09T13:24:46Z</time>
      </trkpt>
      <trkpt lat="48.21719" lon="-3.05319">
        <ele>185</ele>
        <time>2021-08-09T13:24:47Z</time>
      </trkpt>
      <trkpt lat="48.2172" lon="-3.05325">
        <ele>185</ele>
        <time>2021-08-09T13:24:48Z</time>
      </trkpt>
      <trkpt lat="48.21721" lon="-3.05331">
        <ele>185</ele>
        <time>2021-08-09T13:24:49Z</time>
      </trkpt>
      <trkpt lat="48.21724" lon="-3.05342">
        <ele>185.4</ele>
        <time>2021-08-09T13:24:51Z</time>
      </trkpt>
      <trkpt lat="48.21726" lon="-3.05346">
        <ele>185.6</ele>
        <time>2021-08-09T13:24:52Z</time>
      </trkpt>
      <trkpt lat="48.21727" lon="-3.05351">
        <ele>185.6</ele>
        <time>2021-08-09T13:24:53Z</time>
      </trkpt>
      <trkpt lat="48.21728" lon="-3.05357">
        <ele>185.8</ele>
        <time>2021-08-09T13:24:54Z</time>
      </trkpt>
      <trkpt lat="48.21729" lon="-3.05362">
        <ele>185.8</ele>
        <time>2021-08-09T13:24:55Z</time>
      </trkpt>
      <trkpt lat="48.21728" lon="-3.05368">
        <ele>185.8</ele>
        <time>2021-08-09T13:24:56Z</time>
      </trkpt>
      <trkpt lat="48.21728" lon="-3.05374">
        <ele>185.8</ele>
        <time>2021-08-09T13:24:57Z</time>
      </trkpt>
      <trkpt lat="48.21729" lon="-3.05379">
        <ele>185.8</ele>
        <time>2021-08-09T13:24:58Z</time>
      </trkpt>
      <trkpt lat="48.2173" lon="-3.05384">
        <ele>185.8</ele>
        <time>2021-08-09T13:24:59Z</time>
      </trkpt>
      <trkpt lat="48.2173" lon="-3.0539">
        <ele>185.8</ele>
        <time>2021-08-09T13:25:00Z</time>
      </trkpt>
      <trkpt lat="48.2173" lon="-3.05404">
        <ele>185.8</ele>
        <time>2021-08-09T13:25:02Z</time>
      </trkpt>
      <trkpt lat="48.21731" lon="-3.05411">
        <ele>185.8</ele>
        <time>2021-08-09T13:25:03Z</time>
      </trkpt>
      <trkpt lat="48.21731" lon="-3.05416">
        <ele>185.8</ele>
        <time>2021-08-09T13:25:04Z</time>
      </trkpt>
      <trkpt lat="48.21731" lon="-3.05421">
        <ele>185.8</ele>
        <time>2021-08-09T13:25:05Z</time>
      </trkpt>
      <trkpt lat="48.21731" lon="-3.05427">
        <ele>185.8</ele>
        <time>2021-08-09T13:25:06Z</time>
      </trkpt>
      <trkpt lat="48.21731" lon="-3.05433">
        <ele>185.8</ele>
        <time>2021-08-09T13:25:07Z</time>
      </trkpt>
      <trkpt lat="48.21731" lon="-3.05439">
        <ele>185.8</ele>
        <time>2021-08-09T13:25:08Z</time>
      </trkpt>
      <trkpt lat="48.2173" lon="-3.05445">
        <ele>185.8</ele>
        <time>2021-08-09T13:25:09Z</time>
      </trkpt>
      <trkpt lat="48.2173" lon="-3.0545">
        <ele>185.8</ele>
        <time>2021-08-09T13:25:10Z</time>
      </trkpt>
      <trkpt lat="48.2173" lon="-3.05455">
        <ele>185.8</ele>
        <time>2021-08-09T13:25:11Z</time>
      </trkpt>
      <trkpt lat="48.21729" lon="-3.05461">
        <ele>185.8</ele>
        <time>2021-08-09T13:25:12Z</time>
      </trkpt>
      <trkpt lat="48.21729" lon="-3.05469">
        <ele>185.8</ele>
        <time>2021-08-09T13:25:13Z</time>
      </trkpt>
      <trkpt lat="48.21728" lon="-3.05476">
        <ele>185.8</ele>
        <time>2021-08-09T13:25:14Z</time>
      </trkpt>
      <trkpt lat="48.21728" lon="-3.05483">
        <ele>185.8</ele>
        <time>2021-08-09T13:25:15Z</time>
      </trkpt>
      <trkpt lat="48.21728" lon="-3.05489">
        <ele>185.8</ele>
        <time>2021-08-09T13:25:16Z</time>
      </trkpt>
      <trkpt lat="48.21728" lon="-3.05495">
        <ele>185.8</ele>
        <time>2021-08-09T13:25:17Z</time>
      </trkpt>
      <trkpt lat="48.21727" lon="-3.05501">
        <ele>186</ele>
        <time>2021-08-09T13:25:18Z</time>
      </trkpt>
      <trkpt lat="48.21727" lon="-3.05506">
        <ele>186</ele>
        <time>2021-08-09T13:25:19Z</time>
      </trkpt>
      <trkpt lat="48.21727" lon="-3.05511">
        <ele>186.2</ele>
        <time>2021-08-09T13:25:20Z</time>
      </trkpt>
      <trkpt lat="48.21727" lon="-3.05517">
        <ele>186.4</ele>
        <time>2021-08-09T13:25:21Z</time>
      </trkpt>
      <trkpt lat="48.21726" lon="-3.05524">
        <ele>186.6</ele>
        <time>2021-08-09T13:25:22Z</time>
      </trkpt>
      <trkpt lat="48.21726" lon="-3.0553">
        <ele>186.6</ele>
        <time>2021-08-09T13:25:23Z</time>
      </trkpt>
      <trkpt lat="48.21725" lon="-3.05537">
        <ele>186.8</ele>
        <time>2021-08-09T13:25:24Z</time>
      </trkpt>
      <trkpt lat="48.21724" lon="-3.05544">
        <ele>186.8</ele>
        <time>2021-08-09T13:25:25Z</time>
      </trkpt>
      <trkpt lat="48.21724" lon="-3.0555">
        <ele>186.8</ele>
        <time>2021-08-09T13:25:26Z</time>
      </trkpt>
      <trkpt lat="48.21723" lon="-3.05556">
        <ele>186.8</ele>
        <time>2021-08-09T13:25:27Z</time>
      </trkpt>
      <trkpt lat="48.21723" lon="-3.05562">
        <ele>187</ele>
        <time>2021-08-09T13:25:28Z</time>
      </trkpt>
      <trkpt lat="48.21722" lon="-3.05567">
        <ele>187</ele>
        <time>2021-08-09T13:25:29Z</time>
      </trkpt>
      <trkpt lat="48.21721" lon="-3.05573">
        <ele>187.2</ele>
        <time>2021-08-09T13:25:30Z</time>
      </trkpt>
      <trkpt lat="48.21721" lon="-3.05578">
        <ele>187.4</ele>
        <time>2021-08-09T13:25:31Z</time>
      </trkpt>
      <trkpt lat="48.21721" lon="-3.05583">
        <ele>187.6</ele>
        <time>2021-08-09T13:25:32Z</time>
      </trkpt>
      <trkpt lat="48.2172" lon="-3.05588">
        <ele>187.6</ele>
        <time>2021-08-09T13:25:33Z</time>
      </trkpt>
      <trkpt lat="48.2172" lon="-3.05593">
        <ele>187.6</ele>
        <time>2021-08-09T13:25:34Z</time>
      </trkpt>
      <trkpt lat="48.2172" lon="-3.05599">
        <ele>187.6</ele>
        <time>2021-08-09T13:25:35Z</time>
      </trkpt>
      <trkpt lat="48.2172" lon="-3.05605">
        <ele>187.8</ele>
        <time>2021-08-09T13:25:36Z</time>
      </trkpt>
      <trkpt lat="48.21719" lon="-3.05611">
        <ele>187.8</ele>
        <time>2021-08-09T13:25:37Z</time>
      </trkpt>
      <trkpt lat="48.21718" lon="-3.05617">
        <ele>187.8</ele>
        <time>2021-08-09T13:25:38Z</time>
      </trkpt>
      <trkpt lat="48.21718" lon="-3.05623">
        <ele>187.8</ele>
        <time>2021-08-09T13:25:39Z</time>
      </trkpt>
      <trkpt lat="48.21718" lon="-3.05627">
        <ele>188</ele>
        <time>2021-08-09T13:25:40Z</time>
      </trkpt>
      <trkpt lat="48.21717" lon="-3.05632">
        <ele>188</ele>
        <time>2021-08-09T13:25:41Z</time>
      </trkpt>
      <trkpt lat="48.21716" lon="-3.05637">
        <ele>188.2</ele>
        <time>2021-08-09T13:25:42Z</time>
      </trkpt>
      <trkpt lat="48.21716" lon="-3.05642">
        <ele>188.2</ele>
        <time>2021-08-09T13:25:43Z</time>
      </trkpt>
      <trkpt lat="48.21715" lon="-3.05647">
        <ele>188.4</ele>
        <time>2021-08-09T13:25:44Z</time>
      </trkpt>
      <trkpt lat="48.21715" lon="-3.05652">
        <ele>188.8</ele>
        <time>2021-08-09T13:25:45Z</time>
      </trkpt>
      <trkpt lat="48.21714" lon="-3.05658">
        <ele>188.8</ele>
        <time>2021-08-09T13:25:46Z</time>
      </trkpt>
      <trkpt lat="48.21713" lon="-3.05666">
        <ele>189</ele>
        <time>2021-08-09T13:25:47Z</time>
      </trkpt>
      <trkpt lat="48.21712" lon="-3.05674">
        <ele>189</ele>
        <time>2021-08-09T13:25:48Z</time>
      </trkpt>
      <trkpt lat="48.2171" lon="-3.05681">
        <ele>189.2</ele>
        <time>2021-08-09T13:25:49Z</time>
      </trkpt>
      <trkpt lat="48.21708" lon="-3.05687">
        <ele>189.2</ele>
        <time>2021-08-09T13:25:50Z</time>
      </trkpt>
      <trkpt lat="48.21707" lon="-3.05693">
        <ele>189.2</ele>
        <time>2021-08-09T13:25:51Z</time>
      </trkpt>
      <trkpt lat="48.21705" lon="-3.05698">
        <ele>189.2</ele>
        <time>2021-08-09T13:25:52Z</time>
      </trkpt>
      <trkpt lat="48.21704" lon="-3.05704">
        <ele>189.2</ele>
        <time>2021-08-09T13:25:53Z</time>
      </trkpt>
      <trkpt lat="48.21703" lon="-3.0571">
        <ele>189.2</ele>
        <time>2021-08-09T13:25:54Z</time>
      </trkpt>
      <trkpt lat="48.21702" lon="-3.05716">
        <ele>189.2</ele>
        <time>2021-08-09T13:25:55Z</time>
      </trkpt>
      <trkpt lat="48.217" lon="-3.05729">
        <ele>189.2</ele>
        <time>2021-08-09T13:25:57Z</time>
      </trkpt>
      <trkpt lat="48.21699" lon="-3.05735">
        <ele>189.4</ele>
        <time>2021-08-09T13:25:58Z</time>
      </trkpt>
      <trkpt lat="48.21698" lon="-3.05742">
        <ele>189.4</ele>
        <time>2021-08-09T13:25:59Z</time>
      </trkpt>
      <trkpt lat="48.21696" lon="-3.05748">
        <ele>189.4</ele>
        <time>2021-08-09T13:26:00Z</time>
      </trkpt>
      <trkpt lat="48.21695" lon="-3.05755">
        <ele>189.6</ele>
        <time>2021-08-09T13:26:01Z</time>
      </trkpt>
      <trkpt lat="48.21693" lon="-3.05761">
        <ele>189.8</ele>
        <time>2021-08-09T13:26:02Z</time>
      </trkpt>
      <trkpt lat="48.21692" lon="-3.05767">
        <ele>189.8</ele>
        <time>2021-08-09T13:26:03Z</time>
      </trkpt>
      <trkpt lat="48.2169" lon="-3.05773">
        <ele>190</ele>
        <time>2021-08-09T13:26:04Z</time>
      </trkpt>
      <trkpt lat="48.21689" lon="-3.0578">
        <ele>190.2</ele>
        <time>2021-08-09T13:26:05Z</time>
      </trkpt>
      <trkpt lat="48.21687" lon="-3.05785">
        <ele>190.2</ele>
        <time>2021-08-09T13:26:06Z</time>
      </trkpt>
      <trkpt lat="48.21685" lon="-3.05797">
        <ele>190.2</ele>
        <time>2021-08-09T13:26:08Z</time>
      </trkpt>
      <trkpt lat="48.21683" lon="-3.05801">
        <ele>190.2</ele>
        <time>2021-08-09T13:26:09Z</time>
      </trkpt>
      <trkpt lat="48.21681" lon="-3.05806">
        <ele>190.2</ele>
        <time>2021-08-09T13:26:10Z</time>
      </trkpt>
      <trkpt lat="48.2168" lon="-3.05811">
        <ele>190.4</ele>
        <time>2021-08-09T13:26:11Z</time>
      </trkpt>
      <trkpt lat="48.21678" lon="-3.05816">
        <ele>190.6</ele>
        <time>2021-08-09T13:26:12Z</time>
      </trkpt>
      <trkpt lat="48.21676" lon="-3.05822">
        <ele>190.6</ele>
        <time>2021-08-09T13:26:13Z</time>
      </trkpt>
      <trkpt lat="48.21675" lon="-3.05827">
        <ele>190.8</ele>
        <time>2021-08-09T13:26:14Z</time>
      </trkpt>
      <trkpt lat="48.21673" lon="-3.05832">
        <ele>191</ele>
        <time>2021-08-09T13:26:15Z</time>
      </trkpt>
      <trkpt lat="48.21672" lon="-3.05837">
        <ele>191</ele>
        <time>2021-08-09T13:26:16Z</time>
      </trkpt>
      <trkpt lat="48.21671" lon="-3.05842">
        <ele>191</ele>
        <time>2021-08-09T13:26:17Z</time>
      </trkpt>
      <trkpt lat="48.21669" lon="-3.05847">
        <ele>191.2</ele>
        <time>2021-08-09T13:26:18Z</time>
      </trkpt>
      <trkpt lat="48.21668" lon="-3.05852">
        <ele>191.4</ele>
        <time>2021-08-09T13:26:19Z</time>
      </trkpt>
      <trkpt lat="48.21667" lon="-3.05857">
        <ele>191.4</ele>
        <time>2021-08-09T13:26:20Z</time>
      </trkpt>
      <trkpt lat="48.21665" lon="-3.05862">
        <ele>191.6</ele>
        <time>2021-08-09T13:26:21Z</time>
      </trkpt>
      <trkpt lat="48.21663" lon="-3.05867">
        <ele>191.6</ele>
        <time>2021-08-09T13:26:22Z</time>
      </trkpt>
      <trkpt lat="48.2166" lon="-3.05872">
        <ele>191.6</ele>
        <time>2021-08-09T13:26:23Z</time>
      </trkpt>
      <trkpt lat="48.21658" lon="-3.05877">
        <ele>191.8</ele>
        <time>2021-08-09T13:26:24Z</time>
      </trkpt>
      <trkpt lat="48.21655" lon="-3.05882">
        <ele>192</ele>
        <time>2021-08-09T13:26:25Z</time>
      </trkpt>
      <trkpt lat="48.21653" lon="-3.05888">
        <ele>192</ele>
        <time>2021-08-09T13:26:26Z</time>
      </trkpt>
      <trkpt lat="48.2165" lon="-3.05893">
        <ele>192</ele>
        <time>2021-08-09T13:26:27Z</time>
      </trkpt>
      <trkpt lat="48.21644" lon="-3.05905">
        <ele>192.4</ele>
        <time>2021-08-09T13:26:29Z</time>
      </trkpt>
      <trkpt lat="48.21642" lon="-3.0591">
        <ele>192.4</ele>
        <time>2021-08-09T13:26:30Z</time>
      </trkpt>
      <trkpt lat="48.21639" lon="-3.05915">
        <ele>192.6</ele>
        <time>2021-08-09T13:26:31Z</time>
      </trkpt>
      <trkpt lat="48.21636" lon="-3.0592">
        <ele>192.6</ele>
        <time>2021-08-09T13:26:32Z</time>
      </trkpt>
      <trkpt lat="48.21634" lon="-3.05926">
        <ele>193</ele>
        <time>2021-08-09T13:26:33Z</time>
      </trkpt>
      <trkpt lat="48.21632" lon="-3.05931">
        <ele>193</ele>
        <time>2021-08-09T13:26:34Z</time>
      </trkpt>
      <trkpt lat="48.21629" lon="-3.05936">
        <ele>193.2</ele>
        <time>2021-08-09T13:26:35Z</time>
      </trkpt>
      <trkpt lat="48.21627" lon="-3.05941">
        <ele>193.4</ele>
        <time>2021-08-09T13:26:36Z</time>
      </trkpt>
      <trkpt lat="48.21624" lon="-3.05945">
        <ele>193.6</ele>
        <time>2021-08-09T13:26:37Z</time>
      </trkpt>
      <trkpt lat="48.21622" lon="-3.0595">
        <ele>193.6</ele>
        <time>2021-08-09T13:26:38Z</time>
      </trkpt>
      <trkpt lat="48.2162" lon="-3.05955">
        <ele>193.6</ele>
        <time>2021-08-09T13:26:39Z</time>
      </trkpt>
      <trkpt lat="48.21617" lon="-3.0596">
        <ele>193.6</ele>
        <time>2021-08-09T13:26:40Z</time>
      </trkpt>
      <trkpt lat="48.21615" lon="-3.05965">
        <ele>193.8</ele>
        <time>2021-08-09T13:26:41Z</time>
      </trkpt>
      <trkpt lat="48.21614" lon="-3.05969">
        <ele>193.8</ele>
        <time>2021-08-09T13:26:42Z</time>
      </trkpt>
      <trkpt lat="48.21613" lon="-3.05972">
        <ele>193.8</ele>
        <time>2021-08-09T13:26:43Z</time>
      </trkpt>
      <trkpt lat="48.21612" lon="-3.05976">
        <ele>193.8</ele>
        <time>2021-08-09T13:26:44Z</time>
      </trkpt>
      <trkpt lat="48.2161" lon="-3.05979">
        <ele>193.8</ele>
        <time>2021-08-09T13:26:45Z</time>
      </trkpt>
      <trkpt lat="48.21609" lon="-3.05982">
        <ele>193.8</ele>
        <time>2021-08-09T13:26:46Z</time>
      </trkpt>
      <trkpt lat="48.21607" lon="-3.05985">
        <ele>193.8</ele>
        <time>2021-08-09T13:26:47Z</time>
      </trkpt>
      <trkpt lat="48.21606" lon="-3.05988">
        <ele>193.8</ele>
        <time>2021-08-09T13:26:48Z</time>
      </trkpt>
      <trkpt lat="48.21604" lon="-3.05992">
        <ele>193.8</ele>
        <time>2021-08-09T13:26:49Z</time>
      </trkpt>
      <trkpt lat="48.21602" lon="-3.05996">
        <ele>193.8</ele>
        <time>2021-08-09T13:26:50Z</time>
      </trkpt>
      <trkpt lat="48.216" lon="-3.06">
        <ele>194</ele>
        <time>2021-08-09T13:26:51Z</time>
      </trkpt>
      <trkpt lat="48.21598" lon="-3.06004">
        <ele>194</ele>
        <time>2021-08-09T13:26:52Z</time>
      </trkpt>
      <trkpt lat="48.21596" lon="-3.06008">
        <ele>194</ele>
        <time>2021-08-09T13:26:53Z</time>
      </trkpt>
      <trkpt lat="48.21593" lon="-3.06013">
        <ele>194</ele>
        <time>2021-08-09T13:26:54Z</time>
      </trkpt>
      <trkpt lat="48.21592" lon="-3.06018">
        <ele>194.2</ele>
        <time>2021-08-09T13:26:55Z</time>
      </trkpt>
      <trkpt lat="48.2159" lon="-3.06023">
        <ele>194.4</ele>
        <time>2021-08-09T13:26:56Z</time>
      </trkpt>
      <trkpt lat="48.21587" lon="-3.06028">
        <ele>194.6</ele>
        <time>2021-08-09T13:26:57Z</time>
      </trkpt>
      <trkpt lat="48.21585" lon="-3.06032">
        <ele>194.8</ele>
        <time>2021-08-09T13:26:58Z</time>
      </trkpt>
      <trkpt lat="48.21582" lon="-3.06037">
        <ele>194.8</ele>
        <time>2021-08-09T13:26:59Z</time>
      </trkpt>
      <trkpt lat="48.21581" lon="-3.06041">
        <ele>194.8</ele>
        <time>2021-08-09T13:27:00Z</time>
      </trkpt>
      <trkpt lat="48.2158" lon="-3.06045">
        <ele>195</ele>
        <time>2021-08-09T13:27:01Z</time>
      </trkpt>
      <trkpt lat="48.21578" lon="-3.06049">
        <ele>195</ele>
        <time>2021-08-09T13:27:02Z</time>
      </trkpt>
      <trkpt lat="48.21576" lon="-3.06053">
        <ele>195.2</ele>
        <time>2021-08-09T13:27:03Z</time>
      </trkpt>
      <trkpt lat="48.21575" lon="-3.06057">
        <ele>195.2</ele>
        <time>2021-08-09T13:27:04Z</time>
      </trkpt>
      <trkpt lat="48.21573" lon="-3.0606">
        <ele>195.2</ele>
        <time>2021-08-09T13:27:05Z</time>
      </trkpt>
      <trkpt lat="48.21571" lon="-3.06064">
        <ele>195.4</ele>
        <time>2021-08-09T13:27:06Z</time>
      </trkpt>
      <trkpt lat="48.21569" lon="-3.06068">
        <ele>195.4</ele>
        <time>2021-08-09T13:27:07Z</time>
      </trkpt>
      <trkpt lat="48.21566" lon="-3.06073">
        <ele>195.4</ele>
        <time>2021-08-09T13:27:08Z</time>
      </trkpt>
      <trkpt lat="48.21563" lon="-3.06077">
        <ele>195.6</ele>
        <time>2021-08-09T13:27:09Z</time>
      </trkpt>
      <trkpt lat="48.21562" lon="-3.06082">
        <ele>196</ele>
        <time>2021-08-09T13:27:10Z</time>
      </trkpt>
      <trkpt lat="48.21561" lon="-3.06086">
        <ele>196</ele>
        <time>2021-08-09T13:27:11Z</time>
      </trkpt>
      <trkpt lat="48.2156" lon="-3.0609">
        <ele>196.4</ele>
        <time>2021-08-09T13:27:12Z</time>
      </trkpt>
      <trkpt lat="48.2156" lon="-3.06094">
        <ele>196.6</ele>
        <time>2021-08-09T13:27:13Z</time>
      </trkpt>
      <trkpt lat="48.21558" lon="-3.06098">
        <ele>196.6</ele>
        <time>2021-08-09T13:27:14Z</time>
      </trkpt>
      <trkpt lat="48.21557" lon="-3.06102">
        <ele>196.8</ele>
        <time>2021-08-09T13:27:15Z</time>
      </trkpt>
      <trkpt lat="48.21555" lon="-3.06106">
        <ele>197</ele>
        <time>2021-08-09T13:27:16Z</time>
      </trkpt>
      <trkpt lat="48.21554" lon="-3.06111">
        <ele>197</ele>
        <time>2021-08-09T13:27:17Z</time>
      </trkpt>
      <trkpt lat="48.21553" lon="-3.06115">
        <ele>197</ele>
        <time>2021-08-09T13:27:18Z</time>
      </trkpt>
      <trkpt lat="48.21551" lon="-3.06119">
        <ele>197</ele>
        <time>2021-08-09T13:27:19Z</time>
      </trkpt>
      <trkpt lat="48.21549" lon="-3.06125">
        <ele>197</ele>
        <time>2021-08-09T13:27:20Z</time>
      </trkpt>
      <trkpt lat="48.21548" lon="-3.0613">
        <ele>197.2</ele>
        <time>2021-08-09T13:27:21Z</time>
      </trkpt>
      <trkpt lat="48.21546" lon="-3.06137">
        <ele>197.2</ele>
        <time>2021-08-09T13:27:22Z</time>
      </trkpt>
      <trkpt lat="48.21544" lon="-3.06143">
        <ele>197.2</ele>
        <time>2021-08-09T13:27:23Z</time>
      </trkpt>
      <trkpt lat="48.21541" lon="-3.0615">
        <ele>197.4</ele>
        <time>2021-08-09T13:27:24Z</time>
      </trkpt>
      <trkpt lat="48.21539" lon="-3.06156">
        <ele>197.4</ele>
        <time>2021-08-09T13:27:25Z</time>
      </trkpt>
      <trkpt lat="48.21537" lon="-3.06163">
        <ele>197.2</ele>
        <time>2021-08-09T13:27:26Z</time>
      </trkpt>
      <trkpt lat="48.21535" lon="-3.06168">
        <ele>197.4</ele>
        <time>2021-08-09T13:27:27Z</time>
      </trkpt>
      <trkpt lat="48.21533" lon="-3.06173">
        <ele>197.4</ele>
        <time>2021-08-09T13:27:28Z</time>
      </trkpt>
      <trkpt lat="48.21532" lon="-3.06179">
        <ele>197.6</ele>
        <time>2021-08-09T13:27:29Z</time>
      </trkpt>
      <trkpt lat="48.2153" lon="-3.06184">
        <ele>197.6</ele>
        <time>2021-08-09T13:27:30Z</time>
      </trkpt>
      <trkpt lat="48.21529" lon="-3.06189">
        <ele>197.6</ele>
        <time>2021-08-09T13:27:31Z</time>
      </trkpt>
      <trkpt lat="48.21529" lon="-3.06194">
        <ele>197.8</ele>
        <time>2021-08-09T13:27:32Z</time>
      </trkpt>
      <trkpt lat="48.21527" lon="-3.06199">
        <ele>198</ele>
        <time>2021-08-09T13:27:33Z</time>
      </trkpt>
      <trkpt lat="48.21526" lon="-3.06204">
        <ele>198.2</ele>
        <time>2021-08-09T13:27:34Z</time>
      </trkpt>
      <trkpt lat="48.21526" lon="-3.06208">
        <ele>198.2</ele>
        <time>2021-08-09T13:27:35Z</time>
      </trkpt>
      <trkpt lat="48.21525" lon="-3.06213">
        <ele>198.4</ele>
        <time>2021-08-09T13:27:36Z</time>
      </trkpt>
      <trkpt lat="48.21525" lon="-3.06217">
        <ele>198.4</ele>
        <time>2021-08-09T13:27:37Z</time>
      </trkpt>
      <trkpt lat="48.21524" lon="-3.06222">
        <ele>198.4</ele>
        <time>2021-08-09T13:27:38Z</time>
      </trkpt>
      <trkpt lat="48.21524" lon="-3.06227">
        <ele>198.6</ele>
        <time>2021-08-09T13:27:39Z</time>
      </trkpt>
      <trkpt lat="48.21524" lon="-3.06231">
        <ele>198.8</ele>
        <time>2021-08-09T13:27:40Z</time>
      </trkpt>
      <trkpt lat="48.21524" lon="-3.06236">
        <ele>198.8</ele>
        <time>2021-08-09T13:27:41Z</time>
      </trkpt>
      <trkpt lat="48.21523" lon="-3.06241">
        <ele>198.8</ele>
        <time>2021-08-09T13:27:42Z</time>
      </trkpt>
      <trkpt lat="48.21523" lon="-3.06246">
        <ele>198.8</ele>
        <time>2021-08-09T13:27:43Z</time>
      </trkpt>
      <trkpt lat="48.21523" lon="-3.06251">
        <ele>198.8</ele>
        <time>2021-08-09T13:27:44Z</time>
      </trkpt>
      <trkpt lat="48.21523" lon="-3.06257">
        <ele>198.8</ele>
        <time>2021-08-09T13:27:45Z</time>
      </trkpt>
      <trkpt lat="48.21524" lon="-3.06263">
        <ele>199</ele>
        <time>2021-08-09T13:27:46Z</time>
      </trkpt>
      <trkpt lat="48.21524" lon="-3.06269">
        <ele>199</ele>
        <time>2021-08-09T13:27:47Z</time>
      </trkpt>
      <trkpt lat="48.21523" lon="-3.06276">
        <ele>199</ele>
        <time>2021-08-09T13:27:48Z</time>
      </trkpt>
      <trkpt lat="48.21523" lon="-3.06282">
        <ele>199.2</ele>
        <time>2021-08-09T13:27:49Z</time>
      </trkpt>
      <trkpt lat="48.21523" lon="-3.06288">
        <ele>199.2</ele>
        <time>2021-08-09T13:27:50Z</time>
      </trkpt>
      <trkpt lat="48.21523" lon="-3.06294">
        <ele>199.2</ele>
        <time>2021-08-09T13:27:51Z</time>
      </trkpt>
      <trkpt lat="48.21523" lon="-3.063">
        <ele>199.2</ele>
        <time>2021-08-09T13:27:52Z</time>
      </trkpt>
      <trkpt lat="48.21523" lon="-3.06307">
        <ele>199.2</ele>
        <time>2021-08-09T13:27:53Z</time>
      </trkpt>
      <trkpt lat="48.21523" lon="-3.06313">
        <ele>199.2</ele>
        <time>2021-08-09T13:27:54Z</time>
      </trkpt>
      <trkpt lat="48.21524" lon="-3.06322">
        <ele>199.2</ele>
        <time>2021-08-09T13:27:55Z</time>
      </trkpt>
      <trkpt lat="48.21525" lon="-3.06338">
        <ele>199.2</ele>
        <time>2021-08-09T13:27:57Z</time>
      </trkpt>
      <trkpt lat="48.21525" lon="-3.06346">
        <ele>199.2</ele>
        <time>2021-08-09T13:27:58Z</time>
      </trkpt>
      <trkpt lat="48.21526" lon="-3.06354">
        <ele>199.4</ele>
        <time>2021-08-09T13:27:59Z</time>
      </trkpt>
      <trkpt lat="48.21527" lon="-3.06362">
        <ele>199.4</ele>
        <time>2021-08-09T13:28:00Z</time>
      </trkpt>
      <trkpt lat="48.21528" lon="-3.0637">
        <ele>199.4</ele>
        <time>2021-08-09T13:28:01Z</time>
      </trkpt>
      <trkpt lat="48.21529" lon="-3.06378">
        <ele>199.4</ele>
        <time>2021-08-09T13:28:02Z</time>
      </trkpt>
      <trkpt lat="48.21529" lon="-3.06386">
        <ele>199.4</ele>
        <time>2021-08-09T13:28:03Z</time>
      </trkpt>
      <trkpt lat="48.2153" lon="-3.06394">
        <ele>199.4</ele>
        <time>2021-08-09T13:28:04Z</time>
      </trkpt>
      <trkpt lat="48.21531" lon="-3.06402">
        <ele>199.4</ele>
        <time>2021-08-09T13:28:05Z</time>
      </trkpt>
      <trkpt lat="48.21532" lon="-3.06409">
        <ele>199.4</ele>
        <time>2021-08-09T13:28:06Z</time>
      </trkpt>
      <trkpt lat="48.21534" lon="-3.06423">
        <ele>199.6</ele>
        <time>2021-08-09T13:28:08Z</time>
      </trkpt>
      <trkpt lat="48.21535" lon="-3.06429">
        <ele>199.6</ele>
        <time>2021-08-09T13:28:09Z</time>
      </trkpt>
      <trkpt lat="48.21537" lon="-3.06435">
        <ele>199.6</ele>
        <time>2021-08-09T13:28:10Z</time>
      </trkpt>
      <trkpt lat="48.21538" lon="-3.06441">
        <ele>199.8</ele>
        <time>2021-08-09T13:28:11Z</time>
      </trkpt>
      <trkpt lat="48.21539" lon="-3.06447">
        <ele>199.8</ele>
        <time>2021-08-09T13:28:12Z</time>
      </trkpt>
      <trkpt lat="48.2154" lon="-3.06453">
        <ele>199.8</ele>
        <time>2021-08-09T13:28:13Z</time>
      </trkpt>
      <trkpt lat="48.21541" lon="-3.06458">
        <ele>200</ele>
        <time>2021-08-09T13:28:14Z</time>
      </trkpt>
      <trkpt lat="48.21542" lon="-3.06464">
        <ele>200</ele>
        <time>2021-08-09T13:28:15Z</time>
      </trkpt>
      <trkpt lat="48.21543" lon="-3.06469">
        <ele>200</ele>
        <time>2021-08-09T13:28:16Z</time>
      </trkpt>
      <trkpt lat="48.21543" lon="-3.06473">
        <ele>200</ele>
        <time>2021-08-09T13:28:17Z</time>
      </trkpt>
      <trkpt lat="48.21544" lon="-3.0648">
        <ele>200.2</ele>
        <time>2021-08-09T13:28:19Z</time>
      </trkpt>
      <trkpt lat="48.21545" lon="-3.06483">
        <ele>200.2</ele>
        <time>2021-08-09T13:28:20Z</time>
      </trkpt>
      <trkpt lat="48.21545" lon="-3.06486">
        <ele>200.2</ele>
        <time>2021-08-09T13:28:21Z</time>
      </trkpt>
      <trkpt lat="48.21547" lon="-3.06489">
        <ele>200.2</ele>
        <time>2021-08-09T13:28:22Z</time>
      </trkpt>
      <trkpt lat="48.21548" lon="-3.06492">
        <ele>200.2</ele>
        <time>2021-08-09T13:28:23Z</time>
      </trkpt>
      <trkpt lat="48.21549" lon="-3.06495">
        <ele>200.2</ele>
        <time>2021-08-09T13:28:24Z</time>
      </trkpt>
      <trkpt lat="48.21551" lon="-3.06499">
        <ele>200.2</ele>
        <time>2021-08-09T13:28:25Z</time>
      </trkpt>
      <trkpt lat="48.21552" lon="-3.06502">
        <ele>200.2</ele>
        <time>2021-08-09T13:28:26Z</time>
      </trkpt>
      <trkpt lat="48.21553" lon="-3.06505">
        <ele>200.2</ele>
        <time>2021-08-09T13:28:27Z</time>
      </trkpt>
      <trkpt lat="48.21554" lon="-3.06509">
        <ele>200.2</ele>
        <time>2021-08-09T13:28:28Z</time>
      </trkpt>
      <trkpt lat="48.21557" lon="-3.06514">
        <ele>200.2</ele>
        <time>2021-08-09T13:28:30Z</time>
      </trkpt>
      <trkpt lat="48.21559" lon="-3.06517">
        <ele>200.2</ele>
        <time>2021-08-09T13:28:31Z</time>
      </trkpt>
      <trkpt lat="48.2156" lon="-3.06519">
        <ele>200.4</ele>
        <time>2021-08-09T13:28:32Z</time>
      </trkpt>
      <trkpt lat="48.21562" lon="-3.06522">
        <ele>200.4</ele>
        <time>2021-08-09T13:28:33Z</time>
      </trkpt>
      <trkpt lat="48.21563" lon="-3.06525">
        <ele>200.4</ele>
        <time>2021-08-09T13:28:34Z</time>
      </trkpt>
      <trkpt lat="48.21565" lon="-3.06527">
        <ele>200.4</ele>
        <time>2021-08-09T13:28:35Z</time>
      </trkpt>
      <trkpt lat="48.21567" lon="-3.06529">
        <ele>200.4</ele>
        <time>2021-08-09T13:28:36Z</time>
      </trkpt>
      <trkpt lat="48.21568" lon="-3.06532">
        <ele>200.4</ele>
        <time>2021-08-09T13:28:37Z</time>
      </trkpt>
      <trkpt lat="48.21569" lon="-3.06535">
        <ele>200.4</ele>
        <time>2021-08-09T13:28:38Z</time>
      </trkpt>
      <trkpt lat="48.2157" lon="-3.06537">
        <ele>200.6</ele>
        <time>2021-08-09T13:28:39Z</time>
      </trkpt>
      <trkpt lat="48.21572" lon="-3.06541">
        <ele>200.6</ele>
        <time>2021-08-09T13:28:41Z</time>
      </trkpt>
      <trkpt lat="48.21573" lon="-3.06543">
        <ele>200.6</ele>
        <time>2021-08-09T13:28:42Z</time>
      </trkpt>
      <trkpt lat="48.21573" lon="-3.06544">
        <ele>200.6</ele>
        <time>2021-08-09T13:28:43Z</time>
      </trkpt>
      <trkpt lat="48.21573" lon="-3.06545">
        <ele>200.6</ele>
        <time>2021-08-09T13:28:44Z</time>
      </trkpt>
      <trkpt lat="48.21579" lon="-3.06554">
        <ele>200.6</ele>
        <time>2021-08-09T13:32:59Z</time>
      </trkpt>
      <trkpt lat="48.2158" lon="-3.06555">
        <ele>200.6</ele>
        <time>2021-08-09T13:33:00Z</time>
      </trkpt>
      <trkpt lat="48.21581" lon="-3.06557">
        <ele>200.6</ele>
        <time>2021-08-09T13:33:01Z</time>
      </trkpt>
      <trkpt lat="48.21582" lon="-3.06559">
        <ele>200.6</ele>
        <time>2021-08-09T13:33:02Z</time>
      </trkpt>
      <trkpt lat="48.21584" lon="-3.06561">
        <ele>200.6</ele>
        <time>2021-08-09T13:33:03Z</time>
      </trkpt>
      <trkpt lat="48.21586" lon="-3.06564">
        <ele>200.6</ele>
        <time>2021-08-09T13:33:04Z</time>
      </trkpt>
      <trkpt lat="48.21587" lon="-3.06567">
        <ele>200.6</ele>
        <time>2021-08-09T13:33:05Z</time>
      </trkpt>
      <trkpt lat="48.21588" lon="-3.06571">
        <ele>200.4</ele>
        <time>2021-08-09T13:33:06Z</time>
      </trkpt>
      <trkpt lat="48.2159" lon="-3.06575">
        <ele>200.4</ele>
        <time>2021-08-09T13:33:07Z</time>
      </trkpt>
      <trkpt lat="48.21592" lon="-3.06579">
        <ele>200.4</ele>
        <time>2021-08-09T13:33:08Z</time>
      </trkpt>
      <trkpt lat="48.21594" lon="-3.06583">
        <ele>200.2</ele>
        <time>2021-08-09T13:33:09Z</time>
      </trkpt>
      <trkpt lat="48.21596" lon="-3.06586">
        <ele>200.2</ele>
        <time>2021-08-09T13:33:10Z</time>
      </trkpt>
      <trkpt lat="48.21598" lon="-3.0659">
        <ele>200.2</ele>
        <time>2021-08-09T13:33:11Z</time>
      </trkpt>
      <trkpt lat="48.216" lon="-3.06593">
        <ele>200.2</ele>
        <time>2021-08-09T13:33:12Z</time>
      </trkpt>
      <trkpt lat="48.21602" lon="-3.06597">
        <ele>200</ele>
        <time>2021-08-09T13:33:13Z</time>
      </trkpt>
      <trkpt lat="48.21604" lon="-3.06602">
        <ele>200</ele>
        <time>2021-08-09T13:33:14Z</time>
      </trkpt>
      <trkpt lat="48.21605" lon="-3.06606">
        <ele>200</ele>
        <time>2021-08-09T13:33:15Z</time>
      </trkpt>
      <trkpt lat="48.21608" lon="-3.06611">
        <ele>200</ele>
        <time>2021-08-09T13:33:16Z</time>
      </trkpt>
      <trkpt lat="48.21611" lon="-3.06616">
        <ele>200</ele>
        <time>2021-08-09T13:33:17Z</time>
      </trkpt>
      <trkpt lat="48.21613" lon="-3.06621">
        <ele>200</ele>
        <time>2021-08-09T13:33:18Z</time>
      </trkpt>
      <trkpt lat="48.21615" lon="-3.06625">
        <ele>200</ele>
        <time>2021-08-09T13:33:19Z</time>
      </trkpt>
      <trkpt lat="48.21617" lon="-3.06629">
        <ele>200</ele>
        <time>2021-08-09T13:33:20Z</time>
      </trkpt>
      <trkpt lat="48.21619" lon="-3.06634">
        <ele>200</ele>
        <time>2021-08-09T13:33:21Z</time>
      </trkpt>
      <trkpt lat="48.21621" lon="-3.06639">
        <ele>200</ele>
        <time>2021-08-09T13:33:22Z</time>
      </trkpt>
      <trkpt lat="48.21624" lon="-3.06644">
        <ele>200</ele>
        <time>2021-08-09T13:33:23Z</time>
      </trkpt>
      <trkpt lat="48.21628" lon="-3.0665">
        <ele>200</ele>
        <time>2021-08-09T13:33:24Z</time>
      </trkpt>
      <trkpt lat="48.21633" lon="-3.06656">
        <ele>200</ele>
        <time>2021-08-09T13:33:25Z</time>
      </trkpt>
      <trkpt lat="48.21639" lon="-3.06662">
        <ele>199.8</ele>
        <time>2021-08-09T13:33:26Z</time>
      </trkpt>
      <trkpt lat="48.21644" lon="-3.06667">
        <ele>199.8</ele>
        <time>2021-08-09T13:33:27Z</time>
      </trkpt>
      <trkpt lat="48.2165" lon="-3.06673">
        <ele>199.8</ele>
        <time>2021-08-09T13:33:28Z</time>
      </trkpt>
      <trkpt lat="48.21655" lon="-3.06678">
        <ele>199.8</ele>
        <time>2021-08-09T13:33:29Z</time>
      </trkpt>
      <trkpt lat="48.2166" lon="-3.06684">
        <ele>199.8</ele>
        <time>2021-08-09T13:33:30Z</time>
      </trkpt>
      <trkpt lat="48.21666" lon="-3.0669">
        <ele>199.8</ele>
        <time>2021-08-09T13:33:31Z</time>
      </trkpt>
      <trkpt lat="48.21671" lon="-3.06695">
        <ele>199.6</ele>
        <time>2021-08-09T13:33:32Z</time>
      </trkpt>
      <trkpt lat="48.21676" lon="-3.06701">
        <ele>199.6</ele>
        <time>2021-08-09T13:33:33Z</time>
      </trkpt>
      <trkpt lat="48.21682" lon="-3.06707">
        <ele>199.6</ele>
        <time>2021-08-09T13:33:34Z</time>
      </trkpt>
      <trkpt lat="48.21687" lon="-3.06713">
        <ele>199.4</ele>
        <time>2021-08-09T13:33:35Z</time>
      </trkpt>
      <trkpt lat="48.21692" lon="-3.06719">
        <ele>199</ele>
        <time>2021-08-09T13:33:36Z</time>
      </trkpt>
      <trkpt lat="48.21696" lon="-3.06725">
        <ele>198.8</ele>
        <time>2021-08-09T13:33:37Z</time>
      </trkpt>
      <trkpt lat="48.21701" lon="-3.0673">
        <ele>198.8</ele>
        <time>2021-08-09T13:33:38Z</time>
      </trkpt>
      <trkpt lat="48.21706" lon="-3.06737">
        <ele>198.6</ele>
        <time>2021-08-09T13:33:39Z</time>
      </trkpt>
      <trkpt lat="48.21711" lon="-3.06743">
        <ele>198.6</ele>
        <time>2021-08-09T13:33:40Z</time>
      </trkpt>
      <trkpt lat="48.21715" lon="-3.06749">
        <ele>198.4</ele>
        <time>2021-08-09T13:33:41Z</time>
      </trkpt>
      <trkpt lat="48.2172" lon="-3.06756">
        <ele>198.2</ele>
        <time>2021-08-09T13:33:42Z</time>
      </trkpt>
      <trkpt lat="48.21724" lon="-3.06762">
        <ele>198.2</ele>
        <time>2021-08-09T13:33:43Z</time>
      </trkpt>
      <trkpt lat="48.21729" lon="-3.06768">
        <ele>198</ele>
        <time>2021-08-09T13:33:44Z</time>
      </trkpt>
      <trkpt lat="48.21734" lon="-3.06774">
        <ele>198</ele>
        <time>2021-08-09T13:33:45Z</time>
      </trkpt>
      <trkpt lat="48.21738" lon="-3.0678">
        <ele>198</ele>
        <time>2021-08-09T13:33:46Z</time>
      </trkpt>
      <trkpt lat="48.21742" lon="-3.06787">
        <ele>198</ele>
        <time>2021-08-09T13:33:47Z</time>
      </trkpt>
      <trkpt lat="48.21747" lon="-3.06793">
        <ele>197.8</ele>
        <time>2021-08-09T13:33:48Z</time>
      </trkpt>
      <trkpt lat="48.21751" lon="-3.068">
        <ele>197.8</ele>
        <time>2021-08-09T13:33:49Z</time>
      </trkpt>
      <trkpt lat="48.21755" lon="-3.06807">
        <ele>197.8</ele>
        <time>2021-08-09T13:33:50Z</time>
      </trkpt>
      <trkpt lat="48.2176" lon="-3.06813">
        <ele>197.8</ele>
        <time>2021-08-09T13:33:51Z</time>
      </trkpt>
      <trkpt lat="48.21764" lon="-3.0682">
        <ele>197.8</ele>
        <time>2021-08-09T13:33:52Z</time>
      </trkpt>
      <trkpt lat="48.21767" lon="-3.06827">
        <ele>197.8</ele>
        <time>2021-08-09T13:33:53Z</time>
      </trkpt>
      <trkpt lat="48.21771" lon="-3.06834">
        <ele>197.8</ele>
        <time>2021-08-09T13:33:54Z</time>
      </trkpt>
      <trkpt lat="48.21775" lon="-3.0684">
        <ele>197.8</ele>
        <time>2021-08-09T13:33:55Z</time>
      </trkpt>
      <trkpt lat="48.21779" lon="-3.06846">
        <ele>197.8</ele>
        <time>2021-08-09T13:33:56Z</time>
      </trkpt>
      <trkpt lat="48.21783" lon="-3.06853">
        <ele>197.8</ele>
        <time>2021-08-09T13:33:57Z</time>
      </trkpt>
      <trkpt lat="48.21788" lon="-3.06859">
        <ele>197.6</ele>
        <time>2021-08-09T13:33:58Z</time>
      </trkpt>
      <trkpt lat="48.21791" lon="-3.06866">
        <ele>197.6</ele>
        <time>2021-08-09T13:33:59Z</time>
      </trkpt>
      <trkpt lat="48.21795" lon="-3.06872">
        <ele>197.6</ele>
        <time>2021-08-09T13:34:00Z</time>
      </trkpt>
      <trkpt lat="48.21798" lon="-3.0688">
        <ele>197.6</ele>
        <time>2021-08-09T13:34:01Z</time>
      </trkpt>
      <trkpt lat="48.21802" lon="-3.06887">
        <ele>197.4</ele>
        <time>2021-08-09T13:34:02Z</time>
      </trkpt>
      <trkpt lat="48.21805" lon="-3.06895">
        <ele>197.4</ele>
        <time>2021-08-09T13:34:03Z</time>
      </trkpt>
      <trkpt lat="48.21808" lon="-3.06903">
        <ele>197.4</ele>
        <time>2021-08-09T13:34:04Z</time>
      </trkpt>
      <trkpt lat="48.21811" lon="-3.06912">
        <ele>197.2</ele>
        <time>2021-08-09T13:34:05Z</time>
      </trkpt>
      <trkpt lat="48.21815" lon="-3.0692">
        <ele>197.2</ele>
        <time>2021-08-09T13:34:06Z</time>
      </trkpt>
      <trkpt lat="48.21817" lon="-3.06928">
        <ele>197.2</ele>
        <time>2021-08-09T13:34:07Z</time>
      </trkpt>
      <trkpt lat="48.2182" lon="-3.06937">
        <ele>197.2</ele>
        <time>2021-08-09T13:34:08Z</time>
      </trkpt>
      <trkpt lat="48.21823" lon="-3.06945">
        <ele>197</ele>
        <time>2021-08-09T13:34:09Z</time>
      </trkpt>
      <trkpt lat="48.21825" lon="-3.06954">
        <ele>197</ele>
        <time>2021-08-09T13:34:10Z</time>
      </trkpt>
      <trkpt lat="48.21828" lon="-3.06962">
        <ele>197</ele>
        <time>2021-08-09T13:34:11Z</time>
      </trkpt>
      <trkpt lat="48.2183" lon="-3.06971">
        <ele>197</ele>
        <time>2021-08-09T13:34:12Z</time>
      </trkpt>
      <trkpt lat="48.21833" lon="-3.06979">
        <ele>196.8</ele>
        <time>2021-08-09T13:34:13Z</time>
      </trkpt>
      <trkpt lat="48.21837" lon="-3.06994">
        <ele>196.8</ele>
        <time>2021-08-09T13:34:15Z</time>
      </trkpt>
      <trkpt lat="48.21838" lon="-3.07001">
        <ele>196.8</ele>
        <time>2021-08-09T13:34:16Z</time>
      </trkpt>
      <trkpt lat="48.2184" lon="-3.0701">
        <ele>196.6</ele>
        <time>2021-08-09T13:34:17Z</time>
      </trkpt>
      <trkpt lat="48.21842" lon="-3.07018">
        <ele>196.4</ele>
        <time>2021-08-09T13:34:18Z</time>
      </trkpt>
      <trkpt lat="48.21844" lon="-3.07027">
        <ele>196.4</ele>
        <time>2021-08-09T13:34:19Z</time>
      </trkpt>
      <trkpt lat="48.21845" lon="-3.07036">
        <ele>196.2</ele>
        <time>2021-08-09T13:34:20Z</time>
      </trkpt>
      <trkpt lat="48.21847" lon="-3.07043">
        <ele>196.2</ele>
        <time>2021-08-09T13:34:21Z</time>
      </trkpt>
      <trkpt lat="48.21848" lon="-3.07051">
        <ele>196.2</ele>
        <time>2021-08-09T13:34:22Z</time>
      </trkpt>
      <trkpt lat="48.21849" lon="-3.07059">
        <ele>196.2</ele>
        <time>2021-08-09T13:34:23Z</time>
      </trkpt>
      <trkpt lat="48.21851" lon="-3.07068">
        <ele>196.2</ele>
        <time>2021-08-09T13:34:24Z</time>
      </trkpt>
      <trkpt lat="48.21851" lon="-3.07077">
        <ele>196.2</ele>
        <time>2021-08-09T13:34:25Z</time>
      </trkpt>
      <trkpt lat="48.21852" lon="-3.07085">
        <ele>196.2</ele>
        <time>2021-08-09T13:34:26Z</time>
      </trkpt>
      <trkpt lat="48.21853" lon="-3.07094">
        <ele>196.2</ele>
        <time>2021-08-09T13:34:27Z</time>
      </trkpt>
      <trkpt lat="48.21854" lon="-3.07102">
        <ele>196.2</ele>
        <time>2021-08-09T13:34:28Z</time>
      </trkpt>
      <trkpt lat="48.21855" lon="-3.0711">
        <ele>196.2</ele>
        <time>2021-08-09T13:34:29Z</time>
      </trkpt>
      <trkpt lat="48.21856" lon="-3.07117">
        <ele>196.2</ele>
        <time>2021-08-09T13:34:30Z</time>
      </trkpt>
      <trkpt lat="48.21856" lon="-3.07125">
        <ele>196.2</ele>
        <time>2021-08-09T13:34:31Z</time>
      </trkpt>
      <trkpt lat="48.21857" lon="-3.07133">
        <ele>196.2</ele>
        <time>2021-08-09T13:34:32Z</time>
      </trkpt>
      <trkpt lat="48.21858" lon="-3.0714">
        <ele>196.2</ele>
        <time>2021-08-09T13:34:33Z</time>
      </trkpt>
      <trkpt lat="48.21858" lon="-3.07147">
        <ele>196.2</ele>
        <time>2021-08-09T13:34:34Z</time>
      </trkpt>
      <trkpt lat="48.21859" lon="-3.07157">
        <ele>196.2</ele>
        <time>2021-08-09T13:34:36Z</time>
      </trkpt>
      <trkpt lat="48.2186" lon="-3.07162">
        <ele>196.4</ele>
        <time>2021-08-09T13:34:37Z</time>
      </trkpt>
      <trkpt lat="48.21861" lon="-3.07168">
        <ele>196.4</ele>
        <time>2021-08-09T13:34:38Z</time>
      </trkpt>
      <trkpt lat="48.2186" lon="-3.07174">
        <ele>196.4</ele>
        <time>2021-08-09T13:34:39Z</time>
      </trkpt>
      <trkpt lat="48.2186" lon="-3.07181">
        <ele>196.4</ele>
        <time>2021-08-09T13:34:40Z</time>
      </trkpt>
      <trkpt lat="48.2186" lon="-3.0719">
        <ele>196.4</ele>
        <time>2021-08-09T13:34:41Z</time>
      </trkpt>
      <trkpt lat="48.2186" lon="-3.07199">
        <ele>196.4</ele>
        <time>2021-08-09T13:34:42Z</time>
      </trkpt>
      <trkpt lat="48.2186" lon="-3.07208">
        <ele>196.4</ele>
        <time>2021-08-09T13:34:43Z</time>
      </trkpt>
      <trkpt lat="48.21859" lon="-3.07217">
        <ele>196.4</ele>
        <time>2021-08-09T13:34:44Z</time>
      </trkpt>
      <trkpt lat="48.21859" lon="-3.07225">
        <ele>196.4</ele>
        <time>2021-08-09T13:34:45Z</time>
      </trkpt>
      <trkpt lat="48.21859" lon="-3.07233">
        <ele>196.4</ele>
        <time>2021-08-09T13:34:46Z</time>
      </trkpt>
      <trkpt lat="48.21858" lon="-3.07241">
        <ele>196.4</ele>
        <time>2021-08-09T13:34:47Z</time>
      </trkpt>
      <trkpt lat="48.21858" lon="-3.07248">
        <ele>196.4</ele>
        <time>2021-08-09T13:34:48Z</time>
      </trkpt>
      <trkpt lat="48.21858" lon="-3.07255">
        <ele>196.4</ele>
        <time>2021-08-09T13:34:49Z</time>
      </trkpt>
      <trkpt lat="48.21857" lon="-3.07262">
        <ele>196.4</ele>
        <time>2021-08-09T13:34:50Z</time>
      </trkpt>
      <trkpt lat="48.21857" lon="-3.07269">
        <ele>196.4</ele>
        <time>2021-08-09T13:34:51Z</time>
      </trkpt>
      <trkpt lat="48.21857" lon="-3.07275">
        <ele>196.2</ele>
        <time>2021-08-09T13:34:52Z</time>
      </trkpt>
      <trkpt lat="48.21856" lon="-3.07283">
        <ele>196.2</ele>
        <time>2021-08-09T13:34:53Z</time>
      </trkpt>
      <trkpt lat="48.21856" lon="-3.0729">
        <ele>196.2</ele>
        <time>2021-08-09T13:34:54Z</time>
      </trkpt>
      <trkpt lat="48.21856" lon="-3.07297">
        <ele>196.2</ele>
        <time>2021-08-09T13:34:55Z</time>
      </trkpt>
      <trkpt lat="48.21856" lon="-3.07304">
        <ele>196.2</ele>
        <time>2021-08-09T13:34:56Z</time>
      </trkpt>
      <trkpt lat="48.21856" lon="-3.0731">
        <ele>196.2</ele>
        <time>2021-08-09T13:34:57Z</time>
      </trkpt>
      <trkpt lat="48.21856" lon="-3.07318">
        <ele>196.2</ele>
        <time>2021-08-09T13:34:58Z</time>
      </trkpt>
      <trkpt lat="48.21856" lon="-3.07325">
        <ele>196.2</ele>
        <time>2021-08-09T13:34:59Z</time>
      </trkpt>
      <trkpt lat="48.21855" lon="-3.07331">
        <ele>196.2</ele>
        <time>2021-08-09T13:35:00Z</time>
      </trkpt>
      <trkpt lat="48.21855" lon="-3.07338">
        <ele>196.4</ele>
        <time>2021-08-09T13:35:01Z</time>
      </trkpt>
      <trkpt lat="48.21854" lon="-3.07345">
        <ele>196.4</ele>
        <time>2021-08-09T13:35:02Z</time>
      </trkpt>
      <trkpt lat="48.21854" lon="-3.07353">
        <ele>196.4</ele>
        <time>2021-08-09T13:35:03Z</time>
      </trkpt>
      <trkpt lat="48.21854" lon="-3.0736">
        <ele>196.4</ele>
        <time>2021-08-09T13:35:04Z</time>
      </trkpt>
      <trkpt lat="48.21854" lon="-3.07367">
        <ele>196.4</ele>
        <time>2021-08-09T13:35:05Z</time>
      </trkpt>
      <trkpt lat="48.21853" lon="-3.07375">
        <ele>196.4</ele>
        <time>2021-08-09T13:35:06Z</time>
      </trkpt>
      <trkpt lat="48.21853" lon="-3.07383">
        <ele>196.4</ele>
        <time>2021-08-09T13:35:07Z</time>
      </trkpt>
      <trkpt lat="48.21853" lon="-3.0739">
        <ele>196.4</ele>
        <time>2021-08-09T13:35:08Z</time>
      </trkpt>
      <trkpt lat="48.21853" lon="-3.07397">
        <ele>196.4</ele>
        <time>2021-08-09T13:35:09Z</time>
      </trkpt>
      <trkpt lat="48.21853" lon="-3.07403">
        <ele>196.4</ele>
        <time>2021-08-09T13:35:10Z</time>
      </trkpt>
      <trkpt lat="48.21853" lon="-3.07411">
        <ele>196.4</ele>
        <time>2021-08-09T13:35:11Z</time>
      </trkpt>
      <trkpt lat="48.21852" lon="-3.07419">
        <ele>196.4</ele>
        <time>2021-08-09T13:35:12Z</time>
      </trkpt>
      <trkpt lat="48.21852" lon="-3.07427">
        <ele>196.4</ele>
        <time>2021-08-09T13:35:13Z</time>
      </trkpt>
      <trkpt lat="48.21852" lon="-3.07435">
        <ele>196.4</ele>
        <time>2021-08-09T13:35:14Z</time>
      </trkpt>
      <trkpt lat="48.21851" lon="-3.07444">
        <ele>196.4</ele>
        <time>2021-08-09T13:35:15Z</time>
      </trkpt>
      <trkpt lat="48.21851" lon="-3.07452">
        <ele>196.4</ele>
        <time>2021-08-09T13:35:16Z</time>
      </trkpt>
      <trkpt lat="48.21851" lon="-3.07461">
        <ele>196.4</ele>
        <time>2021-08-09T13:35:17Z</time>
      </trkpt>
      <trkpt lat="48.21851" lon="-3.07469">
        <ele>196.4</ele>
        <time>2021-08-09T13:35:18Z</time>
      </trkpt>
      <trkpt lat="48.21851" lon="-3.07477">
        <ele>196.4</ele>
        <time>2021-08-09T13:35:19Z</time>
      </trkpt>
      <trkpt lat="48.21851" lon="-3.07486">
        <ele>196.4</ele>
        <time>2021-08-09T13:35:20Z</time>
      </trkpt>
      <trkpt lat="48.21851" lon="-3.07495">
        <ele>196.6</ele>
        <time>2021-08-09T13:35:21Z</time>
      </trkpt>
      <trkpt lat="48.21851" lon="-3.07504">
        <ele>196.8</ele>
        <time>2021-08-09T13:35:22Z</time>
      </trkpt>
      <trkpt lat="48.21851" lon="-3.07513">
        <ele>196.8</ele>
        <time>2021-08-09T13:35:23Z</time>
      </trkpt>
      <trkpt lat="48.21851" lon="-3.07521">
        <ele>196.8</ele>
        <time>2021-08-09T13:35:24Z</time>
      </trkpt>
      <trkpt lat="48.21851" lon="-3.07529">
        <ele>197</ele>
        <time>2021-08-09T13:35:25Z</time>
      </trkpt>
      <trkpt lat="48.21851" lon="-3.07538">
        <ele>197</ele>
        <time>2021-08-09T13:35:26Z</time>
      </trkpt>
      <trkpt lat="48.21851" lon="-3.07547">
        <ele>197</ele>
        <time>2021-08-09T13:35:27Z</time>
      </trkpt>
      <trkpt lat="48.21851" lon="-3.07556">
        <ele>197</ele>
        <time>2021-08-09T13:35:28Z</time>
      </trkpt>
      <trkpt lat="48.21852" lon="-3.07564">
        <ele>197.2</ele>
        <time>2021-08-09T13:35:29Z</time>
      </trkpt>
      <trkpt lat="48.21852" lon="-3.07574">
        <ele>197.2</ele>
        <time>2021-08-09T13:35:30Z</time>
      </trkpt>
      <trkpt lat="48.21853" lon="-3.07583">
        <ele>197.2</ele>
        <time>2021-08-09T13:35:31Z</time>
      </trkpt>
      <trkpt lat="48.21854" lon="-3.0759">
        <ele>197.2</ele>
        <time>2021-08-09T13:35:32Z</time>
      </trkpt>
      <trkpt lat="48.21855" lon="-3.07599">
        <ele>197.2</ele>
        <time>2021-08-09T13:35:33Z</time>
      </trkpt>
      <trkpt lat="48.21856" lon="-3.07607">
        <ele>197.2</ele>
        <time>2021-08-09T13:35:34Z</time>
      </trkpt>
      <trkpt lat="48.21857" lon="-3.07615">
        <ele>197.2</ele>
        <time>2021-08-09T13:35:35Z</time>
      </trkpt>
      <trkpt lat="48.21858" lon="-3.07623">
        <ele>197.4</ele>
        <time>2021-08-09T13:35:36Z</time>
      </trkpt>
      <trkpt lat="48.21859" lon="-3.0763">
        <ele>197.4</ele>
        <time>2021-08-09T13:35:37Z</time>
      </trkpt>
      <trkpt lat="48.2186" lon="-3.07638">
        <ele>197.4</ele>
        <time>2021-08-09T13:35:38Z</time>
      </trkpt>
      <trkpt lat="48.21861" lon="-3.07645">
        <ele>197.4</ele>
        <time>2021-08-09T13:35:39Z</time>
      </trkpt>
      <trkpt lat="48.21862" lon="-3.07653">
        <ele>197.4</ele>
        <time>2021-08-09T13:35:40Z</time>
      </trkpt>
      <trkpt lat="48.21864" lon="-3.07662">
        <ele>197.4</ele>
        <time>2021-08-09T13:35:41Z</time>
      </trkpt>
      <trkpt lat="48.21865" lon="-3.07669">
        <ele>197.2</ele>
        <time>2021-08-09T13:35:42Z</time>
      </trkpt>
      <trkpt lat="48.21866" lon="-3.07678">
        <ele>197.2</ele>
        <time>2021-08-09T13:35:43Z</time>
      </trkpt>
      <trkpt lat="48.21868" lon="-3.07685">
        <ele>197.2</ele>
        <time>2021-08-09T13:35:44Z</time>
      </trkpt>
      <trkpt lat="48.2187" lon="-3.07692">
        <ele>197.2</ele>
        <time>2021-08-09T13:35:45Z</time>
      </trkpt>
      <trkpt lat="48.21871" lon="-3.077">
        <ele>197.2</ele>
        <time>2021-08-09T13:35:46Z</time>
      </trkpt>
      <trkpt lat="48.21873" lon="-3.07709">
        <ele>197.2</ele>
        <time>2021-08-09T13:35:47Z</time>
      </trkpt>
      <trkpt lat="48.21874" lon="-3.07719">
        <ele>197.2</ele>
        <time>2021-08-09T13:35:48Z</time>
      </trkpt>
      <trkpt lat="48.21876" lon="-3.07728">
        <ele>197.2</ele>
        <time>2021-08-09T13:35:49Z</time>
      </trkpt>
      <trkpt lat="48.21877" lon="-3.07737">
        <ele>197.2</ele>
        <time>2021-08-09T13:35:50Z</time>
      </trkpt>
      <trkpt lat="48.21878" lon="-3.07745">
        <ele>197.2</ele>
        <time>2021-08-09T13:35:51Z</time>
      </trkpt>
      <trkpt lat="48.2188" lon="-3.07753">
        <ele>197.2</ele>
        <time>2021-08-09T13:35:52Z</time>
      </trkpt>
      <trkpt lat="48.21881" lon="-3.07761">
        <ele>197.2</ele>
        <time>2021-08-09T13:35:53Z</time>
      </trkpt>
      <trkpt lat="48.21883" lon="-3.07769">
        <ele>197.2</ele>
        <time>2021-08-09T13:35:54Z</time>
      </trkpt>
      <trkpt lat="48.21884" lon="-3.07777">
        <ele>197.2</ele>
        <time>2021-08-09T13:35:55Z</time>
      </trkpt>
      <trkpt lat="48.21886" lon="-3.07787">
        <ele>197.2</ele>
        <time>2021-08-09T13:35:56Z</time>
      </trkpt>
      <trkpt lat="48.21887" lon="-3.07796">
        <ele>197.2</ele>
        <time>2021-08-09T13:35:57Z</time>
      </trkpt>
      <trkpt lat="48.21889" lon="-3.07805">
        <ele>197.2</ele>
        <time>2021-08-09T13:35:58Z</time>
      </trkpt>
      <trkpt lat="48.2189" lon="-3.07814">
        <ele>197.2</ele>
        <time>2021-08-09T13:35:59Z</time>
      </trkpt>
      <trkpt lat="48.21892" lon="-3.07823">
        <ele>197.2</ele>
        <time>2021-08-09T13:36:00Z</time>
      </trkpt>
      <trkpt lat="48.21893" lon="-3.07832">
        <ele>197.2</ele>
        <time>2021-08-09T13:36:01Z</time>
      </trkpt>
      <trkpt lat="48.21895" lon="-3.07841">
        <ele>197.2</ele>
        <time>2021-08-09T13:36:02Z</time>
      </trkpt>
      <trkpt lat="48.21896" lon="-3.0785">
        <ele>197.2</ele>
        <time>2021-08-09T13:36:03Z</time>
      </trkpt>
      <trkpt lat="48.21898" lon="-3.07859">
        <ele>197.2</ele>
        <time>2021-08-09T13:36:04Z</time>
      </trkpt>
      <trkpt lat="48.21899" lon="-3.07867">
        <ele>197.2</ele>
        <time>2021-08-09T13:36:05Z</time>
      </trkpt>
      <trkpt lat="48.219" lon="-3.07876">
        <ele>197.2</ele>
        <time>2021-08-09T13:36:06Z</time>
      </trkpt>
      <trkpt lat="48.21902" lon="-3.07884">
        <ele>197.2</ele>
        <time>2021-08-09T13:36:07Z</time>
      </trkpt>
      <trkpt lat="48.21903" lon="-3.07893">
        <ele>197.2</ele>
        <time>2021-08-09T13:36:08Z</time>
      </trkpt>
      <trkpt lat="48.21904" lon="-3.07902">
        <ele>197.2</ele>
        <time>2021-08-09T13:36:09Z</time>
      </trkpt>
      <trkpt lat="48.21906" lon="-3.0791">
        <ele>197.2</ele>
        <time>2021-08-09T13:36:10Z</time>
      </trkpt>
      <trkpt lat="48.21907" lon="-3.07919">
        <ele>197.2</ele>
        <time>2021-08-09T13:36:11Z</time>
      </trkpt>
      <trkpt lat="48.21908" lon="-3.07928">
        <ele>197.2</ele>
        <time>2021-08-09T13:36:12Z</time>
      </trkpt>
      <trkpt lat="48.21909" lon="-3.07937">
        <ele>197.2</ele>
        <time>2021-08-09T13:36:13Z</time>
      </trkpt>
      <trkpt lat="48.21911" lon="-3.07945">
        <ele>197.2</ele>
        <time>2021-08-09T13:36:14Z</time>
      </trkpt>
      <trkpt lat="48.21912" lon="-3.07954">
        <ele>197.2</ele>
        <time>2021-08-09T13:36:15Z</time>
      </trkpt>
      <trkpt lat="48.21913" lon="-3.07963">
        <ele>197.2</ele>
        <time>2021-08-09T13:36:16Z</time>
      </trkpt>
      <trkpt lat="48.21914" lon="-3.07971">
        <ele>197.2</ele>
        <time>2021-08-09T13:36:17Z</time>
      </trkpt>
      <trkpt lat="48.21914" lon="-3.07979">
        <ele>197</ele>
        <time>2021-08-09T13:36:18Z</time>
      </trkpt>
      <trkpt lat="48.21915" lon="-3.07987">
        <ele>196.8</ele>
        <time>2021-08-09T13:36:19Z</time>
      </trkpt>
      <trkpt lat="48.21915" lon="-3.07996">
        <ele>196.8</ele>
        <time>2021-08-09T13:36:20Z</time>
      </trkpt>
      <trkpt lat="48.21916" lon="-3.08004">
        <ele>196.8</ele>
        <time>2021-08-09T13:36:21Z</time>
      </trkpt>
      <trkpt lat="48.21916" lon="-3.08012">
        <ele>196.8</ele>
        <time>2021-08-09T13:36:22Z</time>
      </trkpt>
      <trkpt lat="48.21917" lon="-3.08022">
        <ele>196.8</ele>
        <time>2021-08-09T13:36:23Z</time>
      </trkpt>
      <trkpt lat="48.21917" lon="-3.08031">
        <ele>196.8</ele>
        <time>2021-08-09T13:36:24Z</time>
      </trkpt>
      <trkpt lat="48.21918" lon="-3.0804">
        <ele>196.8</ele>
        <time>2021-08-09T13:36:25Z</time>
      </trkpt>
      <trkpt lat="48.21918" lon="-3.0805">
        <ele>196.8</ele>
        <time>2021-08-09T13:36:26Z</time>
      </trkpt>
      <trkpt lat="48.21918" lon="-3.08059">
        <ele>196.6</ele>
        <time>2021-08-09T13:36:27Z</time>
      </trkpt>
      <trkpt lat="48.21918" lon="-3.08068">
        <ele>196.6</ele>
        <time>2021-08-09T13:36:28Z</time>
      </trkpt>
      <trkpt lat="48.21917" lon="-3.08077">
        <ele>196.6</ele>
        <time>2021-08-09T13:36:29Z</time>
      </trkpt>
      <trkpt lat="48.21917" lon="-3.08085">
        <ele>196.6</ele>
        <time>2021-08-09T13:36:30Z</time>
      </trkpt>
      <trkpt lat="48.21916" lon="-3.08094">
        <ele>196.6</ele>
        <time>2021-08-09T13:36:31Z</time>
      </trkpt>
      <trkpt lat="48.21916" lon="-3.08103">
        <ele>196.2</ele>
        <time>2021-08-09T13:36:32Z</time>
      </trkpt>
      <trkpt lat="48.21916" lon="-3.08111">
        <ele>196.2</ele>
        <time>2021-08-09T13:36:33Z</time>
      </trkpt>
      <trkpt lat="48.21916" lon="-3.08119">
        <ele>196</ele>
        <time>2021-08-09T13:36:34Z</time>
      </trkpt>
      <trkpt lat="48.21916" lon="-3.08127">
        <ele>196</ele>
        <time>2021-08-09T13:36:35Z</time>
      </trkpt>
      <trkpt lat="48.21916" lon="-3.08136">
        <ele>196</ele>
        <time>2021-08-09T13:36:36Z</time>
      </trkpt>
      <trkpt lat="48.21916" lon="-3.08144">
        <ele>195.8</ele>
        <time>2021-08-09T13:36:37Z</time>
      </trkpt>
      <trkpt lat="48.21915" lon="-3.08151">
        <ele>195.8</ele>
        <time>2021-08-09T13:36:38Z</time>
      </trkpt>
      <trkpt lat="48.21915" lon="-3.0816">
        <ele>195.8</ele>
        <time>2021-08-09T13:36:39Z</time>
      </trkpt>
      <trkpt lat="48.21914" lon="-3.08167">
        <ele>195.8</ele>
        <time>2021-08-09T13:36:40Z</time>
      </trkpt>
      <trkpt lat="48.21914" lon="-3.08175">
        <ele>195.8</ele>
        <time>2021-08-09T13:36:41Z</time>
      </trkpt>
      <trkpt lat="48.21913" lon="-3.08183">
        <ele>195.6</ele>
        <time>2021-08-09T13:36:42Z</time>
      </trkpt>
      <trkpt lat="48.21912" lon="-3.08191">
        <ele>195.6</ele>
        <time>2021-08-09T13:36:43Z</time>
      </trkpt>
      <trkpt lat="48.21911" lon="-3.082">
        <ele>195.6</ele>
        <time>2021-08-09T13:36:44Z</time>
      </trkpt>
      <trkpt lat="48.2191" lon="-3.08208">
        <ele>195.6</ele>
        <time>2021-08-09T13:36:45Z</time>
      </trkpt>
      <trkpt lat="48.21909" lon="-3.08216">
        <ele>195.4</ele>
        <time>2021-08-09T13:36:46Z</time>
      </trkpt>
      <trkpt lat="48.21908" lon="-3.08224">
        <ele>195.2</ele>
        <time>2021-08-09T13:36:47Z</time>
      </trkpt>
      <trkpt lat="48.21906" lon="-3.08233">
        <ele>195.2</ele>
        <time>2021-08-09T13:36:48Z</time>
      </trkpt>
      <trkpt lat="48.21905" lon="-3.08242">
        <ele>195.2</ele>
        <time>2021-08-09T13:36:49Z</time>
      </trkpt>
      <trkpt lat="48.21903" lon="-3.08251">
        <ele>195.2</ele>
        <time>2021-08-09T13:36:50Z</time>
      </trkpt>
      <trkpt lat="48.21901" lon="-3.0826">
        <ele>195.2</ele>
        <time>2021-08-09T13:36:51Z</time>
      </trkpt>
      <trkpt lat="48.21898" lon="-3.08268">
        <ele>195.2</ele>
        <time>2021-08-09T13:36:52Z</time>
      </trkpt>
      <trkpt lat="48.21897" lon="-3.08273">
        <ele>195.2</ele>
        <time>2021-08-09T13:36:53Z</time>
      </trkpt>
      <trkpt lat="48.21895" lon="-3.08278">
        <ele>195.2</ele>
        <time>2021-08-09T13:36:54Z</time>
      </trkpt>
      <trkpt lat="48.21894" lon="-3.08283">
        <ele>195.2</ele>
        <time>2021-08-09T13:36:55Z</time>
      </trkpt>
      <trkpt lat="48.21894" lon="-3.08288">
        <ele>195.2</ele>
        <time>2021-08-09T13:36:56Z</time>
      </trkpt>
      <trkpt lat="48.21892" lon="-3.08295">
        <ele>195.2</ele>
        <time>2021-08-09T13:36:57Z</time>
      </trkpt>
      <trkpt lat="48.2189" lon="-3.08303">
        <ele>195.4</ele>
        <time>2021-08-09T13:36:58Z</time>
      </trkpt>
      <trkpt lat="48.21889" lon="-3.08311">
        <ele>195.4</ele>
        <time>2021-08-09T13:36:59Z</time>
      </trkpt>
      <trkpt lat="48.21887" lon="-3.08319">
        <ele>195.4</ele>
        <time>2021-08-09T13:37:00Z</time>
      </trkpt>
      <trkpt lat="48.21885" lon="-3.08328">
        <ele>195.4</ele>
        <time>2021-08-09T13:37:01Z</time>
      </trkpt>
      <trkpt lat="48.21883" lon="-3.08335">
        <ele>195.4</ele>
        <time>2021-08-09T13:37:02Z</time>
      </trkpt>
      <trkpt lat="48.21881" lon="-3.08343">
        <ele>195.4</ele>
        <time>2021-08-09T13:37:03Z</time>
      </trkpt>
      <trkpt lat="48.21878" lon="-3.08351">
        <ele>195.4</ele>
        <time>2021-08-09T13:37:04Z</time>
      </trkpt>
      <trkpt lat="48.21876" lon="-3.08358">
        <ele>195.4</ele>
        <time>2021-08-09T13:37:05Z</time>
      </trkpt>
      <trkpt lat="48.21873" lon="-3.08366">
        <ele>195.2</ele>
        <time>2021-08-09T13:37:06Z</time>
      </trkpt>
      <trkpt lat="48.21871" lon="-3.08374">
        <ele>195</ele>
        <time>2021-08-09T13:37:07Z</time>
      </trkpt>
      <trkpt lat="48.21868" lon="-3.08381">
        <ele>195</ele>
        <time>2021-08-09T13:37:08Z</time>
      </trkpt>
      <trkpt lat="48.21866" lon="-3.08389">
        <ele>195</ele>
        <time>2021-08-09T13:37:09Z</time>
      </trkpt>
      <trkpt lat="48.21863" lon="-3.08396">
        <ele>195</ele>
        <time>2021-08-09T13:37:10Z</time>
      </trkpt>
      <trkpt lat="48.2186" lon="-3.08404">
        <ele>195</ele>
        <time>2021-08-09T13:37:11Z</time>
      </trkpt>
      <trkpt lat="48.21858" lon="-3.08413">
        <ele>195</ele>
        <time>2021-08-09T13:37:12Z</time>
      </trkpt>
      <trkpt lat="48.21855" lon="-3.08421">
        <ele>195</ele>
        <time>2021-08-09T13:37:13Z</time>
      </trkpt>
      <trkpt lat="48.21852" lon="-3.08428">
        <ele>195</ele>
        <time>2021-08-09T13:37:14Z</time>
      </trkpt>
      <trkpt lat="48.2185" lon="-3.08436">
        <ele>195</ele>
        <time>2021-08-09T13:37:15Z</time>
      </trkpt>
      <trkpt lat="48.21847" lon="-3.08443">
        <ele>195</ele>
        <time>2021-08-09T13:37:16Z</time>
      </trkpt>
      <trkpt lat="48.21845" lon="-3.0845">
        <ele>195</ele>
        <time>2021-08-09T13:37:17Z</time>
      </trkpt>
      <trkpt lat="48.21843" lon="-3.08457">
        <ele>195</ele>
        <time>2021-08-09T13:37:18Z</time>
      </trkpt>
      <trkpt lat="48.21841" lon="-3.08462">
        <ele>195</ele>
        <time>2021-08-09T13:37:19Z</time>
      </trkpt>
      <trkpt lat="48.21839" lon="-3.08467">
        <ele>195</ele>
        <time>2021-08-09T13:37:20Z</time>
      </trkpt>
      <trkpt lat="48.21837" lon="-3.08472">
        <ele>195.2</ele>
        <time>2021-08-09T13:37:21Z</time>
      </trkpt>
      <trkpt lat="48.21835" lon="-3.08477">
        <ele>195.2</ele>
        <time>2021-08-09T13:37:22Z</time>
      </trkpt>
      <trkpt lat="48.21834" lon="-3.08481">
        <ele>195.2</ele>
        <time>2021-08-09T13:37:23Z</time>
      </trkpt>
      <trkpt lat="48.21832" lon="-3.08486">
        <ele>195.4</ele>
        <time>2021-08-09T13:37:24Z</time>
      </trkpt>
      <trkpt lat="48.21831" lon="-3.0849">
        <ele>195.4</ele>
        <time>2021-08-09T13:37:25Z</time>
      </trkpt>
      <trkpt lat="48.21829" lon="-3.08495">
        <ele>195.6</ele>
        <time>2021-08-09T13:37:26Z</time>
      </trkpt>
      <trkpt lat="48.21828" lon="-3.085">
        <ele>195.6</ele>
        <time>2021-08-09T13:37:27Z</time>
      </trkpt>
      <trkpt lat="48.21826" lon="-3.08505">
        <ele>195.6</ele>
        <time>2021-08-09T13:37:28Z</time>
      </trkpt>
      <trkpt lat="48.21824" lon="-3.0851">
        <ele>195.6</ele>
        <time>2021-08-09T13:37:29Z</time>
      </trkpt>
      <trkpt lat="48.21823" lon="-3.08515">
        <ele>195.8</ele>
        <time>2021-08-09T13:37:30Z</time>
      </trkpt>
      <trkpt lat="48.21821" lon="-3.0852">
        <ele>195.8</ele>
        <time>2021-08-09T13:37:31Z</time>
      </trkpt>
      <trkpt lat="48.21819" lon="-3.08526">
        <ele>195.8</ele>
        <time>2021-08-09T13:37:32Z</time>
      </trkpt>
      <trkpt lat="48.21817" lon="-3.08531">
        <ele>195.8</ele>
        <time>2021-08-09T13:37:33Z</time>
      </trkpt>
      <trkpt lat="48.21815" lon="-3.08536">
        <ele>196</ele>
        <time>2021-08-09T13:37:34Z</time>
      </trkpt>
      <trkpt lat="48.21814" lon="-3.08541">
        <ele>196</ele>
        <time>2021-08-09T13:37:35Z</time>
      </trkpt>
      <trkpt lat="48.21813" lon="-3.08546">
        <ele>196</ele>
        <time>2021-08-09T13:37:36Z</time>
      </trkpt>
      <trkpt lat="48.21811" lon="-3.08551">
        <ele>196</ele>
        <time>2021-08-09T13:37:37Z</time>
      </trkpt>
      <trkpt lat="48.2181" lon="-3.08555">
        <ele>196</ele>
        <time>2021-08-09T13:37:38Z</time>
      </trkpt>
      <trkpt lat="48.21808" lon="-3.0856">
        <ele>196</ele>
        <time>2021-08-09T13:37:39Z</time>
      </trkpt>
      <trkpt lat="48.21807" lon="-3.08565">
        <ele>196</ele>
        <time>2021-08-09T13:37:40Z</time>
      </trkpt>
      <trkpt lat="48.21806" lon="-3.08569">
        <ele>196</ele>
        <time>2021-08-09T13:37:41Z</time>
      </trkpt>
      <trkpt lat="48.21804" lon="-3.08574">
        <ele>196</ele>
        <time>2021-08-09T13:37:42Z</time>
      </trkpt>
      <trkpt lat="48.21802" lon="-3.0858">
        <ele>196</ele>
        <time>2021-08-09T13:37:43Z</time>
      </trkpt>
      <trkpt lat="48.218" lon="-3.08585">
        <ele>196</ele>
        <time>2021-08-09T13:37:44Z</time>
      </trkpt>
      <trkpt lat="48.21798" lon="-3.0859">
        <ele>196</ele>
        <time>2021-08-09T13:37:45Z</time>
      </trkpt>
      <trkpt lat="48.21796" lon="-3.08595">
        <ele>196</ele>
        <time>2021-08-09T13:37:46Z</time>
      </trkpt>
      <trkpt lat="48.21794" lon="-3.086">
        <ele>196</ele>
        <time>2021-08-09T13:37:47Z</time>
      </trkpt>
      <trkpt lat="48.21792" lon="-3.08605">
        <ele>196</ele>
        <time>2021-08-09T13:37:48Z</time>
      </trkpt>
      <trkpt lat="48.21791" lon="-3.0861">
        <ele>196</ele>
        <time>2021-08-09T13:37:49Z</time>
      </trkpt>
      <trkpt lat="48.21789" lon="-3.08613">
        <ele>196</ele>
        <time>2021-08-09T13:37:50Z</time>
      </trkpt>
      <trkpt lat="48.21788" lon="-3.08617">
        <ele>196</ele>
        <time>2021-08-09T13:37:51Z</time>
      </trkpt>
      <trkpt lat="48.21787" lon="-3.08621">
        <ele>196</ele>
        <time>2021-08-09T13:37:52Z</time>
      </trkpt>
      <trkpt lat="48.21786" lon="-3.08626">
        <ele>196</ele>
        <time>2021-08-09T13:37:53Z</time>
      </trkpt>
      <trkpt lat="48.21784" lon="-3.0863">
        <ele>195.8</ele>
        <time>2021-08-09T13:37:54Z</time>
      </trkpt>
      <trkpt lat="48.21782" lon="-3.08635">
        <ele>195.8</ele>
        <time>2021-08-09T13:37:55Z</time>
      </trkpt>
      <trkpt lat="48.2178" lon="-3.08641">
        <ele>195.8</ele>
        <time>2021-08-09T13:37:56Z</time>
      </trkpt>
      <trkpt lat="48.21778" lon="-3.08647">
        <ele>195.8</ele>
        <time>2021-08-09T13:37:57Z</time>
      </trkpt>
      <trkpt lat="48.21776" lon="-3.08653">
        <ele>195.8</ele>
        <time>2021-08-09T13:37:58Z</time>
      </trkpt>
      <trkpt lat="48.21774" lon="-3.0866">
        <ele>195.8</ele>
        <time>2021-08-09T13:37:59Z</time>
      </trkpt>
      <trkpt lat="48.21772" lon="-3.08667">
        <ele>195.6</ele>
        <time>2021-08-09T13:38:00Z</time>
      </trkpt>
      <trkpt lat="48.21771" lon="-3.08675">
        <ele>195.6</ele>
        <time>2021-08-09T13:38:01Z</time>
      </trkpt>
      <trkpt lat="48.21769" lon="-3.08682">
        <ele>195.6</ele>
        <time>2021-08-09T13:38:02Z</time>
      </trkpt>
      <trkpt lat="48.21767" lon="-3.08689">
        <ele>195.6</ele>
        <time>2021-08-09T13:38:03Z</time>
      </trkpt>
      <trkpt lat="48.21765" lon="-3.08697">
        <ele>195.4</ele>
        <time>2021-08-09T13:38:04Z</time>
      </trkpt>
      <trkpt lat="48.21764" lon="-3.08704">
        <ele>195.4</ele>
        <time>2021-08-09T13:38:05Z</time>
      </trkpt>
      <trkpt lat="48.21762" lon="-3.08711">
        <ele>195.2</ele>
        <time>2021-08-09T13:38:06Z</time>
      </trkpt>
      <trkpt lat="48.2176" lon="-3.08718">
        <ele>195.2</ele>
        <time>2021-08-09T13:38:07Z</time>
      </trkpt>
      <trkpt lat="48.21759" lon="-3.08724">
        <ele>195</ele>
        <time>2021-08-09T13:38:08Z</time>
      </trkpt>
      <trkpt lat="48.21758" lon="-3.0873">
        <ele>195</ele>
        <time>2021-08-09T13:38:09Z</time>
      </trkpt>
      <trkpt lat="48.21756" lon="-3.08736">
        <ele>194.8</ele>
        <time>2021-08-09T13:38:10Z</time>
      </trkpt>
      <trkpt lat="48.21755" lon="-3.08743">
        <ele>194.8</ele>
        <time>2021-08-09T13:38:11Z</time>
      </trkpt>
      <trkpt lat="48.21754" lon="-3.08749">
        <ele>194.8</ele>
        <time>2021-08-09T13:38:12Z</time>
      </trkpt>
      <trkpt lat="48.21753" lon="-3.08756">
        <ele>194.6</ele>
        <time>2021-08-09T13:38:13Z</time>
      </trkpt>
      <trkpt lat="48.21752" lon="-3.08763">
        <ele>194.4</ele>
        <time>2021-08-09T13:38:14Z</time>
      </trkpt>
      <trkpt lat="48.21751" lon="-3.08771">
        <ele>194.2</ele>
        <time>2021-08-09T13:38:15Z</time>
      </trkpt>
      <trkpt lat="48.2175" lon="-3.08779">
        <ele>194.2</ele>
        <time>2021-08-09T13:38:16Z</time>
      </trkpt>
      <trkpt lat="48.2175" lon="-3.08787">
        <ele>194.2</ele>
        <time>2021-08-09T13:38:17Z</time>
      </trkpt>
      <trkpt lat="48.21749" lon="-3.08795">
        <ele>194.2</ele>
        <time>2021-08-09T13:38:18Z</time>
      </trkpt>
      <trkpt lat="48.21748" lon="-3.08802">
        <ele>194</ele>
        <time>2021-08-09T13:38:19Z</time>
      </trkpt>
      <trkpt lat="48.21747" lon="-3.0881">
        <ele>194</ele>
        <time>2021-08-09T13:38:20Z</time>
      </trkpt>
      <trkpt lat="48.21747" lon="-3.08818">
        <ele>194</ele>
        <time>2021-08-09T13:38:21Z</time>
      </trkpt>
      <trkpt lat="48.21747" lon="-3.08826">
        <ele>194</ele>
        <time>2021-08-09T13:38:22Z</time>
      </trkpt>
      <trkpt lat="48.21746" lon="-3.08835">
        <ele>194</ele>
        <time>2021-08-09T13:38:23Z</time>
      </trkpt>
      <trkpt lat="48.21746" lon="-3.08843">
        <ele>194</ele>
        <time>2021-08-09T13:38:24Z</time>
      </trkpt>
      <trkpt lat="48.21745" lon="-3.08851">
        <ele>194</ele>
        <time>2021-08-09T13:38:25Z</time>
      </trkpt>
      <trkpt lat="48.21745" lon="-3.08859">
        <ele>194</ele>
        <time>2021-08-09T13:38:26Z</time>
      </trkpt>
      <trkpt lat="48.21745" lon="-3.08867">
        <ele>194</ele>
        <time>2021-08-09T13:38:27Z</time>
      </trkpt>
      <trkpt lat="48.21745" lon="-3.08875">
        <ele>194</ele>
        <time>2021-08-09T13:38:28Z</time>
      </trkpt>
      <trkpt lat="48.21745" lon="-3.08883">
        <ele>194</ele>
        <time>2021-08-09T13:38:29Z</time>
      </trkpt>
      <trkpt lat="48.21745" lon="-3.08891">
        <ele>194</ele>
        <time>2021-08-09T13:38:30Z</time>
      </trkpt>
      <trkpt lat="48.21745" lon="-3.08899">
        <ele>194</ele>
        <time>2021-08-09T13:38:31Z</time>
      </trkpt>
      <trkpt lat="48.21745" lon="-3.08908">
        <ele>194</ele>
        <time>2021-08-09T13:38:32Z</time>
      </trkpt>
      <trkpt lat="48.21745" lon="-3.08916">
        <ele>194</ele>
        <time>2021-08-09T13:38:33Z</time>
      </trkpt>
      <trkpt lat="48.21746" lon="-3.08923">
        <ele>193.8</ele>
        <time>2021-08-09T13:38:34Z</time>
      </trkpt>
      <trkpt lat="48.21746" lon="-3.0893">
        <ele>193.8</ele>
        <time>2021-08-09T13:38:35Z</time>
      </trkpt>
      <trkpt lat="48.21746" lon="-3.08938">
        <ele>193.8</ele>
        <time>2021-08-09T13:38:36Z</time>
      </trkpt>
      <trkpt lat="48.21747" lon="-3.08944">
        <ele>193.8</ele>
        <time>2021-08-09T13:38:37Z</time>
      </trkpt>
      <trkpt lat="48.21747" lon="-3.08951">
        <ele>193.6</ele>
        <time>2021-08-09T13:38:38Z</time>
      </trkpt>
      <trkpt lat="48.21748" lon="-3.08958">
        <ele>193.6</ele>
        <time>2021-08-09T13:38:39Z</time>
      </trkpt>
      <trkpt lat="48.21749" lon="-3.08965">
        <ele>193.6</ele>
        <time>2021-08-09T13:38:40Z</time>
      </trkpt>
      <trkpt lat="48.21751" lon="-3.08973">
        <ele>193.4</ele>
        <time>2021-08-09T13:38:41Z</time>
      </trkpt>
      <trkpt lat="48.21752" lon="-3.0898">
        <ele>193.4</ele>
        <time>2021-08-09T13:38:42Z</time>
      </trkpt>
      <trkpt lat="48.21754" lon="-3.08988">
        <ele>193.2</ele>
        <time>2021-08-09T13:38:43Z</time>
      </trkpt>
      <trkpt lat="48.21755" lon="-3.08996">
        <ele>193</ele>
        <time>2021-08-09T13:38:44Z</time>
      </trkpt>
      <trkpt lat="48.21757" lon="-3.09004">
        <ele>192.8</ele>
        <time>2021-08-09T13:38:45Z</time>
      </trkpt>
      <trkpt lat="48.21758" lon="-3.09012">
        <ele>192.8</ele>
        <time>2021-08-09T13:38:46Z</time>
      </trkpt>
      <trkpt lat="48.2176" lon="-3.0902">
        <ele>192.8</ele>
        <time>2021-08-09T13:38:47Z</time>
      </trkpt>
      <trkpt lat="48.21761" lon="-3.09029">
        <ele>192.6</ele>
        <time>2021-08-09T13:38:48Z</time>
      </trkpt>
      <trkpt lat="48.21763" lon="-3.09037">
        <ele>192.6</ele>
        <time>2021-08-09T13:38:49Z</time>
      </trkpt>
      <trkpt lat="48.21764" lon="-3.09046">
        <ele>192.4</ele>
        <time>2021-08-09T13:38:50Z</time>
      </trkpt>
      <trkpt lat="48.21766" lon="-3.09054">
        <ele>192.4</ele>
        <time>2021-08-09T13:38:51Z</time>
      </trkpt>
      <trkpt lat="48.21768" lon="-3.09062">
        <ele>192.4</ele>
        <time>2021-08-09T13:38:52Z</time>
      </trkpt>
      <trkpt lat="48.21769" lon="-3.09069">
        <ele>192.2</ele>
        <time>2021-08-09T13:38:53Z</time>
      </trkpt>
      <trkpt lat="48.21771" lon="-3.09077">
        <ele>192.2</ele>
        <time>2021-08-09T13:38:54Z</time>
      </trkpt>
      <trkpt lat="48.21772" lon="-3.09085">
        <ele>192.2</ele>
        <time>2021-08-09T13:38:55Z</time>
      </trkpt>
      <trkpt lat="48.21774" lon="-3.09093">
        <ele>192</ele>
        <time>2021-08-09T13:38:56Z</time>
      </trkpt>
      <trkpt lat="48.21776" lon="-3.09101">
        <ele>192</ele>
        <time>2021-08-09T13:38:57Z</time>
      </trkpt>
      <trkpt lat="48.21777" lon="-3.09109">
        <ele>192</ele>
        <time>2021-08-09T13:38:58Z</time>
      </trkpt>
      <trkpt lat="48.21779" lon="-3.09116">
        <ele>192</ele>
        <time>2021-08-09T13:38:59Z</time>
      </trkpt>
      <trkpt lat="48.21781" lon="-3.09124">
        <ele>191.8</ele>
        <time>2021-08-09T13:39:00Z</time>
      </trkpt>
      <trkpt lat="48.21782" lon="-3.09132">
        <ele>191.8</ele>
        <time>2021-08-09T13:39:01Z</time>
      </trkpt>
      <trkpt lat="48.21784" lon="-3.09139">
        <ele>191.8</ele>
        <time>2021-08-09T13:39:02Z</time>
      </trkpt>
      <trkpt lat="48.21786" lon="-3.09147">
        <ele>191.8</ele>
        <time>2021-08-09T13:39:03Z</time>
      </trkpt>
      <trkpt lat="48.21788" lon="-3.09154">
        <ele>191.6</ele>
        <time>2021-08-09T13:39:04Z</time>
      </trkpt>
      <trkpt lat="48.21789" lon="-3.09161">
        <ele>191.6</ele>
        <time>2021-08-09T13:39:05Z</time>
      </trkpt>
      <trkpt lat="48.21791" lon="-3.09169">
        <ele>191.2</ele>
        <time>2021-08-09T13:39:06Z</time>
      </trkpt>
      <trkpt lat="48.21792" lon="-3.09176">
        <ele>191</ele>
        <time>2021-08-09T13:39:07Z</time>
      </trkpt>
      <trkpt lat="48.21794" lon="-3.09184">
        <ele>191</ele>
        <time>2021-08-09T13:39:08Z</time>
      </trkpt>
      <trkpt lat="48.21795" lon="-3.09192">
        <ele>190.8</ele>
        <time>2021-08-09T13:39:09Z</time>
      </trkpt>
      <trkpt lat="48.21797" lon="-3.09199">
        <ele>190.8</ele>
        <time>2021-08-09T13:39:10Z</time>
      </trkpt>
      <trkpt lat="48.21798" lon="-3.09206">
        <ele>190.6</ele>
        <time>2021-08-09T13:39:11Z</time>
      </trkpt>
      <trkpt lat="48.218" lon="-3.09214">
        <ele>190.6</ele>
        <time>2021-08-09T13:39:12Z</time>
      </trkpt>
      <trkpt lat="48.21801" lon="-3.09221">
        <ele>190.4</ele>
        <time>2021-08-09T13:39:13Z</time>
      </trkpt>
      <trkpt lat="48.21803" lon="-3.09229">
        <ele>190.4</ele>
        <time>2021-08-09T13:39:14Z</time>
      </trkpt>
      <trkpt lat="48.21804" lon="-3.09237">
        <ele>190.4</ele>
        <time>2021-08-09T13:39:15Z</time>
      </trkpt>
      <trkpt lat="48.21806" lon="-3.09245">
        <ele>190.2</ele>
        <time>2021-08-09T13:39:16Z</time>
      </trkpt>
      <trkpt lat="48.21807" lon="-3.09254">
        <ele>190.2</ele>
        <time>2021-08-09T13:39:17Z</time>
      </trkpt>
      <trkpt lat="48.21808" lon="-3.09263">
        <ele>190</ele>
        <time>2021-08-09T13:39:18Z</time>
      </trkpt>
      <trkpt lat="48.2181" lon="-3.09273">
        <ele>189.6</ele>
        <time>2021-08-09T13:39:19Z</time>
      </trkpt>
      <trkpt lat="48.21811" lon="-3.09283">
        <ele>189.4</ele>
        <time>2021-08-09T13:39:20Z</time>
      </trkpt>
      <trkpt lat="48.21812" lon="-3.09293">
        <ele>189.4</ele>
        <time>2021-08-09T13:39:21Z</time>
      </trkpt>
      <trkpt lat="48.21813" lon="-3.09304">
        <ele>189.2</ele>
        <time>2021-08-09T13:39:22Z</time>
      </trkpt>
      <trkpt lat="48.21814" lon="-3.09314">
        <ele>189</ele>
        <time>2021-08-09T13:39:23Z</time>
      </trkpt>
      <trkpt lat="48.21815" lon="-3.09325">
        <ele>188.8</ele>
        <time>2021-08-09T13:39:24Z</time>
      </trkpt>
      <trkpt lat="48.21816" lon="-3.09336">
        <ele>188.8</ele>
        <time>2021-08-09T13:39:25Z</time>
      </trkpt>
      <trkpt lat="48.21816" lon="-3.09347">
        <ele>188.8</ele>
        <time>2021-08-09T13:39:26Z</time>
      </trkpt>
      <trkpt lat="48.21817" lon="-3.09358">
        <ele>188.8</ele>
        <time>2021-08-09T13:39:27Z</time>
      </trkpt>
      <trkpt lat="48.21817" lon="-3.09368">
        <ele>188.6</ele>
        <time>2021-08-09T13:39:28Z</time>
      </trkpt>
      <trkpt lat="48.21817" lon="-3.0938">
        <ele>188.6</ele>
        <time>2021-08-09T13:39:29Z</time>
      </trkpt>
      <trkpt lat="48.21818" lon="-3.09391">
        <ele>188.6</ele>
        <time>2021-08-09T13:39:30Z</time>
      </trkpt>
      <trkpt lat="48.21817" lon="-3.09401">
        <ele>188.4</ele>
        <time>2021-08-09T13:39:31Z</time>
      </trkpt>
      <trkpt lat="48.21817" lon="-3.09411">
        <ele>188.2</ele>
        <time>2021-08-09T13:39:32Z</time>
      </trkpt>
      <trkpt lat="48.21816" lon="-3.09421">
        <ele>188</ele>
        <time>2021-08-09T13:39:33Z</time>
      </trkpt>
      <trkpt lat="48.21815" lon="-3.09432">
        <ele>187.8</ele>
        <time>2021-08-09T13:39:34Z</time>
      </trkpt>
      <trkpt lat="48.21815" lon="-3.09443">
        <ele>187.8</ele>
        <time>2021-08-09T13:39:35Z</time>
      </trkpt>
      <trkpt lat="48.21814" lon="-3.09453">
        <ele>187.6</ele>
        <time>2021-08-09T13:39:36Z</time>
      </trkpt>
      <trkpt lat="48.21813" lon="-3.09463">
        <ele>187.6</ele>
        <time>2021-08-09T13:39:37Z</time>
      </trkpt>
      <trkpt lat="48.21812" lon="-3.09474">
        <ele>187.6</ele>
        <time>2021-08-09T13:39:38Z</time>
      </trkpt>
      <trkpt lat="48.21811" lon="-3.09484">
        <ele>187.4</ele>
        <time>2021-08-09T13:39:39Z</time>
      </trkpt>
      <trkpt lat="48.2181" lon="-3.09494">
        <ele>187.4</ele>
        <time>2021-08-09T13:39:40Z</time>
      </trkpt>
      <trkpt lat="48.21809" lon="-3.09505">
        <ele>187.4</ele>
        <time>2021-08-09T13:39:41Z</time>
      </trkpt>
      <trkpt lat="48.21807" lon="-3.09515">
        <ele>187.4</ele>
        <time>2021-08-09T13:39:42Z</time>
      </trkpt>
      <trkpt lat="48.21806" lon="-3.09525">
        <ele>187.2</ele>
        <time>2021-08-09T13:39:43Z</time>
      </trkpt>
      <trkpt lat="48.21805" lon="-3.09534">
        <ele>187.2</ele>
        <time>2021-08-09T13:39:44Z</time>
      </trkpt>
      <trkpt lat="48.21803" lon="-3.09545">
        <ele>187.2</ele>
        <time>2021-08-09T13:39:45Z</time>
      </trkpt>
      <trkpt lat="48.21801" lon="-3.09555">
        <ele>187.2</ele>
        <time>2021-08-09T13:39:46Z</time>
      </trkpt>
      <trkpt lat="48.21799" lon="-3.09565">
        <ele>187.2</ele>
        <time>2021-08-09T13:39:47Z</time>
      </trkpt>
      <trkpt lat="48.21798" lon="-3.09573">
        <ele>187.2</ele>
        <time>2021-08-09T13:39:48Z</time>
      </trkpt>
      <trkpt lat="48.21796" lon="-3.09583">
        <ele>187</ele>
        <time>2021-08-09T13:39:49Z</time>
      </trkpt>
      <trkpt lat="48.21793" lon="-3.09593">
        <ele>187</ele>
        <time>2021-08-09T13:39:50Z</time>
      </trkpt>
      <trkpt lat="48.21791" lon="-3.09603">
        <ele>187</ele>
        <time>2021-08-09T13:39:51Z</time>
      </trkpt>
      <trkpt lat="48.21789" lon="-3.09611">
        <ele>186.8</ele>
        <time>2021-08-09T13:39:52Z</time>
      </trkpt>
      <trkpt lat="48.21787" lon="-3.0962">
        <ele>186.6</ele>
        <time>2021-08-09T13:39:53Z</time>
      </trkpt>
      <trkpt lat="48.21785" lon="-3.0963">
        <ele>186.6</ele>
        <time>2021-08-09T13:39:54Z</time>
      </trkpt>
      <trkpt lat="48.21783" lon="-3.09639">
        <ele>186.4</ele>
        <time>2021-08-09T13:39:55Z</time>
      </trkpt>
      <trkpt lat="48.2178" lon="-3.09648">
        <ele>186.4</ele>
        <time>2021-08-09T13:39:56Z</time>
      </trkpt>
      <trkpt lat="48.21778" lon="-3.09657">
        <ele>186.2</ele>
        <time>2021-08-09T13:39:57Z</time>
      </trkpt>
      <trkpt lat="48.21775" lon="-3.09667">
        <ele>186.2</ele>
        <time>2021-08-09T13:39:58Z</time>
      </trkpt>
      <trkpt lat="48.21773" lon="-3.09675">
        <ele>186</ele>
        <time>2021-08-09T13:39:59Z</time>
      </trkpt>
      <trkpt lat="48.2177" lon="-3.09685">
        <ele>185.8</ele>
        <time>2021-08-09T13:40:00Z</time>
      </trkpt>
      <trkpt lat="48.21767" lon="-3.09695">
        <ele>185.6</ele>
        <time>2021-08-09T13:40:01Z</time>
      </trkpt>
      <trkpt lat="48.21764" lon="-3.09704">
        <ele>185.6</ele>
        <time>2021-08-09T13:40:02Z</time>
      </trkpt>
      <trkpt lat="48.21761" lon="-3.09714">
        <ele>185.4</ele>
        <time>2021-08-09T13:40:03Z</time>
      </trkpt>
      <trkpt lat="48.21758" lon="-3.09723">
        <ele>185.2</ele>
        <time>2021-08-09T13:40:04Z</time>
      </trkpt>
      <trkpt lat="48.21756" lon="-3.09732">
        <ele>185</ele>
        <time>2021-08-09T13:40:05Z</time>
      </trkpt>
      <trkpt lat="48.21753" lon="-3.09741">
        <ele>185</ele>
        <time>2021-08-09T13:40:06Z</time>
      </trkpt>
      <trkpt lat="48.2175" lon="-3.0975">
        <ele>184.6</ele>
        <time>2021-08-09T13:40:07Z</time>
      </trkpt>
      <trkpt lat="48.21746" lon="-3.09759">
        <ele>184.4</ele>
        <time>2021-08-09T13:40:08Z</time>
      </trkpt>
      <trkpt lat="48.21743" lon="-3.09769">
        <ele>184.2</ele>
        <time>2021-08-09T13:40:09Z</time>
      </trkpt>
      <trkpt lat="48.2174" lon="-3.09778">
        <ele>184</ele>
        <time>2021-08-09T13:40:10Z</time>
      </trkpt>
      <trkpt lat="48.21737" lon="-3.09788">
        <ele>184</ele>
        <time>2021-08-09T13:40:11Z</time>
      </trkpt>
      <trkpt lat="48.21733" lon="-3.09799">
        <ele>184</ele>
        <time>2021-08-09T13:40:12Z</time>
      </trkpt>
      <trkpt lat="48.2173" lon="-3.0981">
        <ele>183.6</ele>
        <time>2021-08-09T13:40:13Z</time>
      </trkpt>
      <trkpt lat="48.21727" lon="-3.09822">
        <ele>183.4</ele>
        <time>2021-08-09T13:40:14Z</time>
      </trkpt>
      <trkpt lat="48.21723" lon="-3.09833">
        <ele>183</ele>
        <time>2021-08-09T13:40:15Z</time>
      </trkpt>
      <trkpt lat="48.2172" lon="-3.09844">
        <ele>182.6</ele>
        <time>2021-08-09T13:40:16Z</time>
      </trkpt>
      <trkpt lat="48.21716" lon="-3.09855">
        <ele>182.2</ele>
        <time>2021-08-09T13:40:17Z</time>
      </trkpt>
      <trkpt lat="48.21713" lon="-3.09867">
        <ele>181.4</ele>
        <time>2021-08-09T13:40:18Z</time>
      </trkpt>
      <trkpt lat="48.21709" lon="-3.09878">
        <ele>181</ele>
        <time>2021-08-09T13:40:19Z</time>
      </trkpt>
      <trkpt lat="48.21706" lon="-3.09888">
        <ele>180.8</ele>
        <time>2021-08-09T13:40:20Z</time>
      </trkpt>
      <trkpt lat="48.21703" lon="-3.09899">
        <ele>180.4</ele>
        <time>2021-08-09T13:40:21Z</time>
      </trkpt>
      <trkpt lat="48.217" lon="-3.0991">
        <ele>180.2</ele>
        <time>2021-08-09T13:40:22Z</time>
      </trkpt>
      <trkpt lat="48.21696" lon="-3.09921">
        <ele>180</ele>
        <time>2021-08-09T13:40:23Z</time>
      </trkpt>
      <trkpt lat="48.21693" lon="-3.09931">
        <ele>179.6</ele>
        <time>2021-08-09T13:40:24Z</time>
      </trkpt>
      <trkpt lat="48.21689" lon="-3.09941">
        <ele>179.4</ele>
        <time>2021-08-09T13:40:25Z</time>
      </trkpt>
      <trkpt lat="48.21686" lon="-3.09951">
        <ele>179.2</ele>
        <time>2021-08-09T13:40:26Z</time>
      </trkpt>
      <trkpt lat="48.21683" lon="-3.0996">
        <ele>179.2</ele>
        <time>2021-08-09T13:40:27Z</time>
      </trkpt>
      <trkpt lat="48.2168" lon="-3.0997">
        <ele>179</ele>
        <time>2021-08-09T13:40:28Z</time>
      </trkpt>
      <trkpt lat="48.21677" lon="-3.0998">
        <ele>179</ele>
        <time>2021-08-09T13:40:29Z</time>
      </trkpt>
      <trkpt lat="48.21674" lon="-3.0999">
        <ele>179</ele>
        <time>2021-08-09T13:40:30Z</time>
      </trkpt>
      <trkpt lat="48.21671" lon="-3.10001">
        <ele>179</ele>
        <time>2021-08-09T13:40:31Z</time>
      </trkpt>
      <trkpt lat="48.21668" lon="-3.1001">
        <ele>179</ele>
        <time>2021-08-09T13:40:32Z</time>
      </trkpt>
      <trkpt lat="48.21665" lon="-3.1002">
        <ele>178.8</ele>
        <time>2021-08-09T13:40:33Z</time>
      </trkpt>
      <trkpt lat="48.21662" lon="-3.10029">
        <ele>178.8</ele>
        <time>2021-08-09T13:40:34Z</time>
      </trkpt>
      <trkpt lat="48.21659" lon="-3.10039">
        <ele>178.8</ele>
        <time>2021-08-09T13:40:35Z</time>
      </trkpt>
      <trkpt lat="48.21656" lon="-3.10049">
        <ele>178.8</ele>
        <time>2021-08-09T13:40:36Z</time>
      </trkpt>
      <trkpt lat="48.21653" lon="-3.10059">
        <ele>178.8</ele>
        <time>2021-08-09T13:40:37Z</time>
      </trkpt>
      <trkpt lat="48.2165" lon="-3.10069">
        <ele>178.8</ele>
        <time>2021-08-09T13:40:38Z</time>
      </trkpt>
      <trkpt lat="48.21647" lon="-3.10079">
        <ele>178.8</ele>
        <time>2021-08-09T13:40:39Z</time>
      </trkpt>
      <trkpt lat="48.21644" lon="-3.10088">
        <ele>178.6</ele>
        <time>2021-08-09T13:40:40Z</time>
      </trkpt>
      <trkpt lat="48.21641" lon="-3.10098">
        <ele>178.6</ele>
        <time>2021-08-09T13:40:41Z</time>
      </trkpt>
      <trkpt lat="48.21638" lon="-3.10107">
        <ele>178.6</ele>
        <time>2021-08-09T13:40:42Z</time>
      </trkpt>
      <trkpt lat="48.21635" lon="-3.10117">
        <ele>178.6</ele>
        <time>2021-08-09T13:40:43Z</time>
      </trkpt>
      <trkpt lat="48.21632" lon="-3.10127">
        <ele>178.6</ele>
        <time>2021-08-09T13:40:44Z</time>
      </trkpt>
      <trkpt lat="48.21628" lon="-3.10137">
        <ele>178.6</ele>
        <time>2021-08-09T13:40:45Z</time>
      </trkpt>
      <trkpt lat="48.21625" lon="-3.10146">
        <ele>178.4</ele>
        <time>2021-08-09T13:40:46Z</time>
      </trkpt>
      <trkpt lat="48.21622" lon="-3.10156">
        <ele>178.4</ele>
        <time>2021-08-09T13:40:47Z</time>
      </trkpt>
      <trkpt lat="48.21619" lon="-3.10166">
        <ele>178.2</ele>
        <time>2021-08-09T13:40:48Z</time>
      </trkpt>
      <trkpt lat="48.21616" lon="-3.10176">
        <ele>178</ele>
        <time>2021-08-09T13:40:49Z</time>
      </trkpt>
      <trkpt lat="48.21613" lon="-3.10185">
        <ele>177.8</ele>
        <time>2021-08-09T13:40:50Z</time>
      </trkpt>
      <trkpt lat="48.2161" lon="-3.10195">
        <ele>177.4</ele>
        <time>2021-08-09T13:40:51Z</time>
      </trkpt>
      <trkpt lat="48.21607" lon="-3.10205">
        <ele>177.4</ele>
        <time>2021-08-09T13:40:52Z</time>
      </trkpt>
      <trkpt lat="48.21603" lon="-3.10214">
        <ele>177.2</ele>
        <time>2021-08-09T13:40:53Z</time>
      </trkpt>
      <trkpt lat="48.216" lon="-3.10223">
        <ele>177.2</ele>
        <time>2021-08-09T13:40:54Z</time>
      </trkpt>
      <trkpt lat="48.21597" lon="-3.10233">
        <ele>177.2</ele>
        <time>2021-08-09T13:40:55Z</time>
      </trkpt>
      <trkpt lat="48.21594" lon="-3.10242">
        <ele>177</ele>
        <time>2021-08-09T13:40:56Z</time>
      </trkpt>
      <trkpt lat="48.21591" lon="-3.10251">
        <ele>177</ele>
        <time>2021-08-09T13:40:57Z</time>
      </trkpt>
      <trkpt lat="48.21588" lon="-3.1026">
        <ele>177</ele>
        <time>2021-08-09T13:40:58Z</time>
      </trkpt>
      <trkpt lat="48.21585" lon="-3.10268">
        <ele>177</ele>
        <time>2021-08-09T13:40:59Z</time>
      </trkpt>
      <trkpt lat="48.21582" lon="-3.10277">
        <ele>177</ele>
        <time>2021-08-09T13:41:00Z</time>
      </trkpt>
      <trkpt lat="48.2158" lon="-3.10286">
        <ele>177.2</ele>
        <time>2021-08-09T13:41:01Z</time>
      </trkpt>
      <trkpt lat="48.21577" lon="-3.10294">
        <ele>177.2</ele>
        <time>2021-08-09T13:41:02Z</time>
      </trkpt>
      <trkpt lat="48.21575" lon="-3.10301">
        <ele>177.2</ele>
        <time>2021-08-09T13:41:03Z</time>
      </trkpt>
      <trkpt lat="48.21572" lon="-3.10307">
        <ele>177.2</ele>
        <time>2021-08-09T13:41:04Z</time>
      </trkpt>
      <trkpt lat="48.2157" lon="-3.10312">
        <ele>177.4</ele>
        <time>2021-08-09T13:41:05Z</time>
      </trkpt>
      <trkpt lat="48.21568" lon="-3.10317">
        <ele>177.4</ele>
        <time>2021-08-09T13:41:06Z</time>
      </trkpt>
      <trkpt lat="48.21567" lon="-3.10321">
        <ele>177.6</ele>
        <time>2021-08-09T13:41:07Z</time>
      </trkpt>
      <trkpt lat="48.21566" lon="-3.10325">
        <ele>177.8</ele>
        <time>2021-08-09T13:41:08Z</time>
      </trkpt>
      <trkpt lat="48.21564" lon="-3.10328">
        <ele>177.8</ele>
        <time>2021-08-09T13:41:09Z</time>
      </trkpt>
      <trkpt lat="48.21563" lon="-3.10331">
        <ele>178</ele>
        <time>2021-08-09T13:41:10Z</time>
      </trkpt>
      <trkpt lat="48.21562" lon="-3.10334">
        <ele>178.4</ele>
        <time>2021-08-09T13:41:11Z</time>
      </trkpt>
      <trkpt lat="48.21561" lon="-3.10337">
        <ele>178.8</ele>
        <time>2021-08-09T13:41:12Z</time>
      </trkpt>
      <trkpt lat="48.21559" lon="-3.10339">
        <ele>179</ele>
        <time>2021-08-09T13:41:13Z</time>
      </trkpt>
      <trkpt lat="48.21557" lon="-3.10342">
        <ele>179.4</ele>
        <time>2021-08-09T13:41:14Z</time>
      </trkpt>
      <trkpt lat="48.21555" lon="-3.10346">
        <ele>179.8</ele>
        <time>2021-08-09T13:41:15Z</time>
      </trkpt>
      <trkpt lat="48.21554" lon="-3.1035">
        <ele>179.8</ele>
        <time>2021-08-09T13:41:16Z</time>
      </trkpt>
      <trkpt lat="48.21552" lon="-3.10354">
        <ele>180</ele>
        <time>2021-08-09T13:41:17Z</time>
      </trkpt>
      <trkpt lat="48.2155" lon="-3.10358">
        <ele>180</ele>
        <time>2021-08-09T13:41:18Z</time>
      </trkpt>
      <trkpt lat="48.21547" lon="-3.10363">
        <ele>180</ele>
        <time>2021-08-09T13:41:19Z</time>
      </trkpt>
      <trkpt lat="48.21545" lon="-3.10369">
        <ele>180</ele>
        <time>2021-08-09T13:41:20Z</time>
      </trkpt>
      <trkpt lat="48.21542" lon="-3.10375">
        <ele>180</ele>
        <time>2021-08-09T13:41:21Z</time>
      </trkpt>
      <trkpt lat="48.21539" lon="-3.10381">
        <ele>180</ele>
        <time>2021-08-09T13:41:22Z</time>
      </trkpt>
      <trkpt lat="48.21537" lon="-3.10388">
        <ele>180</ele>
        <time>2021-08-09T13:41:23Z</time>
      </trkpt>
      <trkpt lat="48.21533" lon="-3.10394">
        <ele>180</ele>
        <time>2021-08-09T13:41:24Z</time>
      </trkpt>
      <trkpt lat="48.2153" lon="-3.104">
        <ele>179.6</ele>
        <time>2021-08-09T13:41:25Z</time>
      </trkpt>
      <trkpt lat="48.21526" lon="-3.10406">
        <ele>179.4</ele>
        <time>2021-08-09T13:41:26Z</time>
      </trkpt>
      <trkpt lat="48.21522" lon="-3.10412">
        <ele>179.2</ele>
        <time>2021-08-09T13:41:27Z</time>
      </trkpt>
      <trkpt lat="48.21518" lon="-3.10419">
        <ele>179</ele>
        <time>2021-08-09T13:41:28Z</time>
      </trkpt>
      <trkpt lat="48.21513" lon="-3.10426">
        <ele>178.8</ele>
        <time>2021-08-09T13:41:29Z</time>
      </trkpt>
      <trkpt lat="48.21509" lon="-3.10433">
        <ele>178.6</ele>
        <time>2021-08-09T13:41:30Z</time>
      </trkpt>
      <trkpt lat="48.21505" lon="-3.10441">
        <ele>178.4</ele>
        <time>2021-08-09T13:41:31Z</time>
      </trkpt>
      <trkpt lat="48.21502" lon="-3.10447">
        <ele>178</ele>
        <time>2021-08-09T13:41:32Z</time>
      </trkpt>
      <trkpt lat="48.21498" lon="-3.10454">
        <ele>177.6</ele>
        <time>2021-08-09T13:41:33Z</time>
      </trkpt>
      <trkpt lat="48.21495" lon="-3.1046">
        <ele>177.2</ele>
        <time>2021-08-09T13:41:34Z</time>
      </trkpt>
      <trkpt lat="48.21491" lon="-3.10465">
        <ele>176.8</ele>
        <time>2021-08-09T13:41:35Z</time>
      </trkpt>
      <trkpt lat="48.21488" lon="-3.10472">
        <ele>176.6</ele>
        <time>2021-08-09T13:41:36Z</time>
      </trkpt>
      <trkpt lat="48.21484" lon="-3.10478">
        <ele>176.4</ele>
        <time>2021-08-09T13:41:37Z</time>
      </trkpt>
      <trkpt lat="48.21481" lon="-3.10484">
        <ele>176.4</ele>
        <time>2021-08-09T13:41:38Z</time>
      </trkpt>
      <trkpt lat="48.21478" lon="-3.1049">
        <ele>176.2</ele>
        <time>2021-08-09T13:41:39Z</time>
      </trkpt>
      <trkpt lat="48.21475" lon="-3.10497">
        <ele>176.2</ele>
        <time>2021-08-09T13:41:40Z</time>
      </trkpt>
      <trkpt lat="48.21471" lon="-3.10502">
        <ele>176.2</ele>
        <time>2021-08-09T13:41:41Z</time>
      </trkpt>
      <trkpt lat="48.21468" lon="-3.10508">
        <ele>176.2</ele>
        <time>2021-08-09T13:41:42Z</time>
      </trkpt>
      <trkpt lat="48.21464" lon="-3.10514">
        <ele>176.2</ele>
        <time>2021-08-09T13:41:43Z</time>
      </trkpt>
      <trkpt lat="48.21461" lon="-3.10519">
        <ele>176.2</ele>
        <time>2021-08-09T13:41:44Z</time>
      </trkpt>
      <trkpt lat="48.21457" lon="-3.10525">
        <ele>176.2</ele>
        <time>2021-08-09T13:41:45Z</time>
      </trkpt>
      <trkpt lat="48.21454" lon="-3.10531">
        <ele>176.2</ele>
        <time>2021-08-09T13:41:46Z</time>
      </trkpt>
      <trkpt lat="48.2145" lon="-3.10537">
        <ele>176</ele>
        <time>2021-08-09T13:41:47Z</time>
      </trkpt>
      <trkpt lat="48.21448" lon="-3.10543">
        <ele>176</ele>
        <time>2021-08-09T13:41:48Z</time>
      </trkpt>
      <trkpt lat="48.21445" lon="-3.10549">
        <ele>176</ele>
        <time>2021-08-09T13:41:49Z</time>
      </trkpt>
      <trkpt lat="48.21443" lon="-3.10556">
        <ele>175.8</ele>
        <time>2021-08-09T13:41:50Z</time>
      </trkpt>
      <trkpt lat="48.2144" lon="-3.10561">
        <ele>175.8</ele>
        <time>2021-08-09T13:41:51Z</time>
      </trkpt>
      <trkpt lat="48.21437" lon="-3.10566">
        <ele>175.6</ele>
        <time>2021-08-09T13:41:52Z</time>
      </trkpt>
      <trkpt lat="48.21434" lon="-3.10571">
        <ele>175.6</ele>
        <time>2021-08-09T13:41:53Z</time>
      </trkpt>
      <trkpt lat="48.21432" lon="-3.10575">
        <ele>175.4</ele>
        <time>2021-08-09T13:41:54Z</time>
      </trkpt>
      <trkpt lat="48.21429" lon="-3.1058">
        <ele>175.4</ele>
        <time>2021-08-09T13:41:55Z</time>
      </trkpt>
      <trkpt lat="48.21427" lon="-3.10584">
        <ele>175.4</ele>
        <time>2021-08-09T13:41:56Z</time>
      </trkpt>
      <trkpt lat="48.21424" lon="-3.10588">
        <ele>175.2</ele>
        <time>2021-08-09T13:41:57Z</time>
      </trkpt>
      <trkpt lat="48.21422" lon="-3.10592">
        <ele>175.2</ele>
        <time>2021-08-09T13:41:58Z</time>
      </trkpt>
      <trkpt lat="48.2142" lon="-3.10596">
        <ele>175.2</ele>
        <time>2021-08-09T13:41:59Z</time>
      </trkpt>
      <trkpt lat="48.21417" lon="-3.106">
        <ele>175.2</ele>
        <time>2021-08-09T13:42:00Z</time>
      </trkpt>
      <trkpt lat="48.21415" lon="-3.10603">
        <ele>175.2</ele>
        <time>2021-08-09T13:42:01Z</time>
      </trkpt>
      <trkpt lat="48.21413" lon="-3.10607">
        <ele>175.2</ele>
        <time>2021-08-09T13:42:02Z</time>
      </trkpt>
      <trkpt lat="48.2141" lon="-3.10611">
        <ele>175.2</ele>
        <time>2021-08-09T13:42:03Z</time>
      </trkpt>
      <trkpt lat="48.21409" lon="-3.10614">
        <ele>175.4</ele>
        <time>2021-08-09T13:42:04Z</time>
      </trkpt>
      <trkpt lat="48.21406" lon="-3.10618">
        <ele>175.8</ele>
        <time>2021-08-09T13:42:05Z</time>
      </trkpt>
      <trkpt lat="48.21404" lon="-3.10622">
        <ele>176.2</ele>
        <time>2021-08-09T13:42:06Z</time>
      </trkpt>
      <trkpt lat="48.21401" lon="-3.10626">
        <ele>176.6</ele>
        <time>2021-08-09T13:42:07Z</time>
      </trkpt>
      <trkpt lat="48.21399" lon="-3.1063">
        <ele>176.8</ele>
        <time>2021-08-09T13:42:08Z</time>
      </trkpt>
      <trkpt lat="48.21397" lon="-3.10633">
        <ele>177</ele>
        <time>2021-08-09T13:42:09Z</time>
      </trkpt>
      <trkpt lat="48.21395" lon="-3.10637">
        <ele>177.2</ele>
        <time>2021-08-09T13:42:10Z</time>
      </trkpt>
      <trkpt lat="48.21393" lon="-3.10641">
        <ele>177.4</ele>
        <time>2021-08-09T13:42:11Z</time>
      </trkpt>
      <trkpt lat="48.21391" lon="-3.10645">
        <ele>177.6</ele>
        <time>2021-08-09T13:42:12Z</time>
      </trkpt>
      <trkpt lat="48.21389" lon="-3.1065">
        <ele>177.8</ele>
        <time>2021-08-09T13:42:13Z</time>
      </trkpt>
      <trkpt lat="48.21387" lon="-3.10655">
        <ele>178</ele>
        <time>2021-08-09T13:42:14Z</time>
      </trkpt>
      <trkpt lat="48.21385" lon="-3.1066">
        <ele>178</ele>
        <time>2021-08-09T13:42:15Z</time>
      </trkpt>
      <trkpt lat="48.21382" lon="-3.10666">
        <ele>178</ele>
        <time>2021-08-09T13:42:16Z</time>
      </trkpt>
      <trkpt lat="48.21379" lon="-3.10672">
        <ele>178</ele>
        <time>2021-08-09T13:42:17Z</time>
      </trkpt>
      <trkpt lat="48.21375" lon="-3.10677">
        <ele>178</ele>
        <time>2021-08-09T13:42:18Z</time>
      </trkpt>
      <trkpt lat="48.21371" lon="-3.10683">
        <ele>178</ele>
        <time>2021-08-09T13:42:19Z</time>
      </trkpt>
      <trkpt lat="48.21366" lon="-3.1069">
        <ele>178</ele>
        <time>2021-08-09T13:42:20Z</time>
      </trkpt>
      <trkpt lat="48.21363" lon="-3.10698">
        <ele>178</ele>
        <time>2021-08-09T13:42:21Z</time>
      </trkpt>
      <trkpt lat="48.2136" lon="-3.10707">
        <ele>178</ele>
        <time>2021-08-09T13:42:22Z</time>
      </trkpt>
      <trkpt lat="48.21358" lon="-3.10716">
        <ele>178</ele>
        <time>2021-08-09T13:42:23Z</time>
      </trkpt>
      <trkpt lat="48.21356" lon="-3.10726">
        <ele>177.4</ele>
        <time>2021-08-09T13:42:24Z</time>
      </trkpt>
      <trkpt lat="48.21354" lon="-3.10736">
        <ele>176.8</ele>
        <time>2021-08-09T13:42:25Z</time>
      </trkpt>
      <trkpt lat="48.21353" lon="-3.10747">
        <ele>176.2</ele>
        <time>2021-08-09T13:42:26Z</time>
      </trkpt>
      <trkpt lat="48.21351" lon="-3.10758">
        <ele>175.8</ele>
        <time>2021-08-09T13:42:27Z</time>
      </trkpt>
      <trkpt lat="48.2135" lon="-3.10769">
        <ele>175.4</ele>
        <time>2021-08-09T13:42:28Z</time>
      </trkpt>
      <trkpt lat="48.21348" lon="-3.10781">
        <ele>175.2</ele>
        <time>2021-08-09T13:42:29Z</time>
      </trkpt>
      <trkpt lat="48.21347" lon="-3.10792">
        <ele>174.6</ele>
        <time>2021-08-09T13:42:30Z</time>
      </trkpt>
      <trkpt lat="48.21346" lon="-3.10804">
        <ele>174</ele>
        <time>2021-08-09T13:42:31Z</time>
      </trkpt>
      <trkpt lat="48.21344" lon="-3.10816">
        <ele>173.8</ele>
        <time>2021-08-09T13:42:32Z</time>
      </trkpt>
      <trkpt lat="48.21343" lon="-3.10829">
        <ele>173.6</ele>
        <time>2021-08-09T13:42:33Z</time>
      </trkpt>
      <trkpt lat="48.21342" lon="-3.10841">
        <ele>173.4</ele>
        <time>2021-08-09T13:42:34Z</time>
      </trkpt>
      <trkpt lat="48.21341" lon="-3.10852">
        <ele>173.4</ele>
        <time>2021-08-09T13:42:35Z</time>
      </trkpt>
      <trkpt lat="48.2134" lon="-3.10862">
        <ele>173.2</ele>
        <time>2021-08-09T13:42:36Z</time>
      </trkpt>
      <trkpt lat="48.21338" lon="-3.10871">
        <ele>172.8</ele>
        <time>2021-08-09T13:42:37Z</time>
      </trkpt>
      <trkpt lat="48.21336" lon="-3.1088">
        <ele>172.4</ele>
        <time>2021-08-09T13:42:38Z</time>
      </trkpt>
      <trkpt lat="48.21335" lon="-3.10887">
        <ele>172</ele>
        <time>2021-08-09T13:42:39Z</time>
      </trkpt>
      <trkpt lat="48.21336" lon="-3.10894">
        <ele>171.8</ele>
        <time>2021-08-09T13:42:40Z</time>
      </trkpt>
      <trkpt lat="48.21339" lon="-3.10899">
        <ele>171.6</ele>
        <time>2021-08-09T13:42:41Z</time>
      </trkpt>
      <trkpt lat="48.21342" lon="-3.10903">
        <ele>171.2</ele>
        <time>2021-08-09T13:42:42Z</time>
      </trkpt>
      <trkpt lat="48.21345" lon="-3.10907">
        <ele>171</ele>
        <time>2021-08-09T13:42:43Z</time>
      </trkpt>
      <trkpt lat="48.21348" lon="-3.10911">
        <ele>170.8</ele>
        <time>2021-08-09T13:42:44Z</time>
      </trkpt>
      <trkpt lat="48.21351" lon="-3.10915">
        <ele>170.6</ele>
        <time>2021-08-09T13:42:45Z</time>
      </trkpt>
      <trkpt lat="48.21353" lon="-3.10919">
        <ele>170.6</ele>
        <time>2021-08-09T13:42:46Z</time>
      </trkpt>
      <trkpt lat="48.21356" lon="-3.10923">
        <ele>170.4</ele>
        <time>2021-08-09T13:42:47Z</time>
      </trkpt>
      <trkpt lat="48.21359" lon="-3.10927">
        <ele>170.4</ele>
        <time>2021-08-09T13:42:48Z</time>
      </trkpt>
      <trkpt lat="48.21362" lon="-3.10931">
        <ele>170.2</ele>
        <time>2021-08-09T13:42:49Z</time>
      </trkpt>
      <trkpt lat="48.21365" lon="-3.10935">
        <ele>169.8</ele>
        <time>2021-08-09T13:42:50Z</time>
      </trkpt>
      <trkpt lat="48.21368" lon="-3.10938">
        <ele>169.6</ele>
        <time>2021-08-09T13:42:51Z</time>
      </trkpt>
      <trkpt lat="48.21371" lon="-3.10942">
        <ele>169.6</ele>
        <time>2021-08-09T13:42:52Z</time>
      </trkpt>
      <trkpt lat="48.21374" lon="-3.10946">
        <ele>169.4</ele>
        <time>2021-08-09T13:42:53Z</time>
      </trkpt>
      <trkpt lat="48.21378" lon="-3.10954">
        <ele>169.2</ele>
        <time>2021-08-09T13:42:55Z</time>
      </trkpt>
      <trkpt lat="48.21379" lon="-3.10957">
        <ele>169.2</ele>
        <time>2021-08-09T13:42:56Z</time>
      </trkpt>
      <trkpt lat="48.21381" lon="-3.1096">
        <ele>169.2</ele>
        <time>2021-08-09T13:42:57Z</time>
      </trkpt>
      <trkpt lat="48.21383" lon="-3.10963">
        <ele>169.2</ele>
        <time>2021-08-09T13:42:58Z</time>
      </trkpt>
      <trkpt lat="48.21386" lon="-3.10968">
        <ele>169.2</ele>
        <time>2021-08-09T13:43:00Z</time>
      </trkpt>
      <trkpt lat="48.2139" lon="-3.10974">
        <ele>169.2</ele>
        <time>2021-08-09T13:43:02Z</time>
      </trkpt>
      <trkpt lat="48.21392" lon="-3.10977">
        <ele>169.4</ele>
        <time>2021-08-09T13:43:03Z</time>
      </trkpt>
      <trkpt lat="48.21394" lon="-3.1098">
        <ele>169.4</ele>
        <time>2021-08-09T13:43:04Z</time>
      </trkpt>
      <trkpt lat="48.21397" lon="-3.10984">
        <ele>169.4</ele>
        <time>2021-08-09T13:43:05Z</time>
      </trkpt>
      <trkpt lat="48.21401" lon="-3.10992">
        <ele>169.6</ele>
        <time>2021-08-09T13:43:07Z</time>
      </trkpt>
      <trkpt lat="48.21404" lon="-3.10996">
        <ele>169.6</ele>
        <time>2021-08-09T13:43:08Z</time>
      </trkpt>
      <trkpt lat="48.21409" lon="-3.11006">
        <ele>169.8</ele>
        <time>2021-08-09T13:43:10Z</time>
      </trkpt>
      <trkpt lat="48.21412" lon="-3.1101">
        <ele>170</ele>
        <time>2021-08-09T13:43:11Z</time>
      </trkpt>
      <trkpt lat="48.21415" lon="-3.11016">
        <ele>170</ele>
        <time>2021-08-09T13:43:12Z</time>
      </trkpt>
      <trkpt lat="48.21421" lon="-3.11028">
        <ele>170</ele>
        <time>2021-08-09T13:43:14Z</time>
      </trkpt>
      <trkpt lat="48.21425" lon="-3.11034">
        <ele>170</ele>
        <time>2021-08-09T13:43:15Z</time>
      </trkpt>
      <trkpt lat="48.21428" lon="-3.1104">
        <ele>169.6</ele>
        <time>2021-08-09T13:43:16Z</time>
      </trkpt>
      <trkpt lat="48.21431" lon="-3.11045">
        <ele>169.4</ele>
        <time>2021-08-09T13:43:17Z</time>
      </trkpt>
      <trkpt lat="48.21438" lon="-3.11059">
        <ele>168.8</ele>
        <time>2021-08-09T13:43:19Z</time>
      </trkpt>
      <trkpt lat="48.21442" lon="-3.11066">
        <ele>168.6</ele>
        <time>2021-08-09T13:43:20Z</time>
      </trkpt>
      <trkpt lat="48.21446" lon="-3.11073">
        <ele>168.4</ele>
        <time>2021-08-09T13:43:21Z</time>
      </trkpt>
      <trkpt lat="48.21449" lon="-3.1108">
        <ele>168.4</ele>
        <time>2021-08-09T13:43:22Z</time>
      </trkpt>
      <trkpt lat="48.21453" lon="-3.11086">
        <ele>168.2</ele>
        <time>2021-08-09T13:43:23Z</time>
      </trkpt>
      <trkpt lat="48.21457" lon="-3.11093">
        <ele>168.2</ele>
        <time>2021-08-09T13:43:24Z</time>
      </trkpt>
      <trkpt lat="48.2146" lon="-3.11099">
        <ele>168.2</ele>
        <time>2021-08-09T13:43:25Z</time>
      </trkpt>
      <trkpt lat="48.21464" lon="-3.11105">
        <ele>168</ele>
        <time>2021-08-09T13:43:26Z</time>
      </trkpt>
      <trkpt lat="48.21467" lon="-3.11111">
        <ele>167.8</ele>
        <time>2021-08-09T13:43:27Z</time>
      </trkpt>
      <trkpt lat="48.21473" lon="-3.11122">
        <ele>167.6</ele>
        <time>2021-08-09T13:43:29Z</time>
      </trkpt>
      <trkpt lat="48.21476" lon="-3.11129">
        <ele>167.6</ele>
        <time>2021-08-09T13:43:30Z</time>
      </trkpt>
      <trkpt lat="48.21479" lon="-3.11136">
        <ele>167.4</ele>
        <time>2021-08-09T13:43:31Z</time>
      </trkpt>
      <trkpt lat="48.21482" lon="-3.11143">
        <ele>167.4</ele>
        <time>2021-08-09T13:43:32Z</time>
      </trkpt>
      <trkpt lat="48.21485" lon="-3.1115">
        <ele>167.2</ele>
        <time>2021-08-09T13:43:33Z</time>
      </trkpt>
      <trkpt lat="48.21487" lon="-3.11157">
        <ele>167.2</ele>
        <time>2021-08-09T13:43:34Z</time>
      </trkpt>
      <trkpt lat="48.21489" lon="-3.11165">
        <ele>167</ele>
        <time>2021-08-09T13:43:35Z</time>
      </trkpt>
      <trkpt lat="48.21492" lon="-3.11173">
        <ele>167</ele>
        <time>2021-08-09T13:43:36Z</time>
      </trkpt>
      <trkpt lat="48.21494" lon="-3.11181">
        <ele>167</ele>
        <time>2021-08-09T13:43:37Z</time>
      </trkpt>
      <trkpt lat="48.21496" lon="-3.11189">
        <ele>166.8</ele>
        <time>2021-08-09T13:43:38Z</time>
      </trkpt>
      <trkpt lat="48.21498" lon="-3.11196">
        <ele>166.6</ele>
        <time>2021-08-09T13:43:39Z</time>
      </trkpt>
      <trkpt lat="48.21501" lon="-3.11212">
        <ele>166.2</ele>
        <time>2021-08-09T13:43:41Z</time>
      </trkpt>
      <trkpt lat="48.21502" lon="-3.11219">
        <ele>166.2</ele>
        <time>2021-08-09T13:43:42Z</time>
      </trkpt>
      <trkpt lat="48.21504" lon="-3.11228">
        <ele>166</ele>
        <time>2021-08-09T13:43:43Z</time>
      </trkpt>
      <trkpt lat="48.21505" lon="-3.11236">
        <ele>165.8</ele>
        <time>2021-08-09T13:43:44Z</time>
      </trkpt>
      <trkpt lat="48.21507" lon="-3.11255">
        <ele>165.6</ele>
        <time>2021-08-09T13:43:46Z</time>
      </trkpt>
      <trkpt lat="48.21509" lon="-3.11274">
        <ele>165.4</ele>
        <time>2021-08-09T13:43:48Z</time>
      </trkpt>
      <trkpt lat="48.2151" lon="-3.11284">
        <ele>165.2</ele>
        <time>2021-08-09T13:43:49Z</time>
      </trkpt>
      <trkpt lat="48.21511" lon="-3.11294">
        <ele>165</ele>
        <time>2021-08-09T13:43:50Z</time>
      </trkpt>
      <trkpt lat="48.21511" lon="-3.11304">
        <ele>165</ele>
        <time>2021-08-09T13:43:51Z</time>
      </trkpt>
      <trkpt lat="48.21512" lon="-3.11325">
        <ele>164.4</ele>
        <time>2021-08-09T13:43:53Z</time>
      </trkpt>
      <trkpt lat="48.21513" lon="-3.11335">
        <ele>163.6</ele>
        <time>2021-08-09T13:43:54Z</time>
      </trkpt>
      <trkpt lat="48.21513" lon="-3.11345">
        <ele>163.4</ele>
        <time>2021-08-09T13:43:55Z</time>
      </trkpt>
      <trkpt lat="48.21514" lon="-3.11354">
        <ele>163</ele>
        <time>2021-08-09T13:43:56Z</time>
      </trkpt>
      <trkpt lat="48.21515" lon="-3.11364">
        <ele>162.8</ele>
        <time>2021-08-09T13:43:57Z</time>
      </trkpt>
      <trkpt lat="48.21515" lon="-3.11373">
        <ele>162.8</ele>
        <time>2021-08-09T13:43:58Z</time>
      </trkpt>
      <trkpt lat="48.21516" lon="-3.11383">
        <ele>162.8</ele>
        <time>2021-08-09T13:43:59Z</time>
      </trkpt>
      <trkpt lat="48.21517" lon="-3.11392">
        <ele>162.8</ele>
        <time>2021-08-09T13:44:00Z</time>
      </trkpt>
      <trkpt lat="48.21518" lon="-3.1141">
        <ele>162.8</ele>
        <time>2021-08-09T13:44:02Z</time>
      </trkpt>
      <trkpt lat="48.21519" lon="-3.1142">
        <ele>162.8</ele>
        <time>2021-08-09T13:44:03Z</time>
      </trkpt>
      <trkpt lat="48.2152" lon="-3.11437">
        <ele>162.6</ele>
        <time>2021-08-09T13:44:05Z</time>
      </trkpt>
      <trkpt lat="48.21523" lon="-3.11455">
        <ele>162.6</ele>
        <time>2021-08-09T13:44:07Z</time>
      </trkpt>
      <trkpt lat="48.21524" lon="-3.11463">
        <ele>162.6</ele>
        <time>2021-08-09T13:44:08Z</time>
      </trkpt>
      <trkpt lat="48.21526" lon="-3.11482">
        <ele>162.6</ele>
        <time>2021-08-09T13:44:10Z</time>
      </trkpt>
      <trkpt lat="48.21527" lon="-3.1149">
        <ele>162.6</ele>
        <time>2021-08-09T13:44:11Z</time>
      </trkpt>
      <trkpt lat="48.21529" lon="-3.11498">
        <ele>162.6</ele>
        <time>2021-08-09T13:44:12Z</time>
      </trkpt>
      <trkpt lat="48.2153" lon="-3.11507">
        <ele>162.6</ele>
        <time>2021-08-09T13:44:13Z</time>
      </trkpt>
      <trkpt lat="48.21531" lon="-3.11515">
        <ele>162.4</ele>
        <time>2021-08-09T13:44:14Z</time>
      </trkpt>
      <trkpt lat="48.21532" lon="-3.11523">
        <ele>162.4</ele>
        <time>2021-08-09T13:44:15Z</time>
      </trkpt>
      <trkpt lat="48.21535" lon="-3.1154">
        <ele>161.8</ele>
        <time>2021-08-09T13:44:17Z</time>
      </trkpt>
      <trkpt lat="48.21537" lon="-3.11547">
        <ele>161.6</ele>
        <time>2021-08-09T13:44:18Z</time>
      </trkpt>
      <trkpt lat="48.21539" lon="-3.11555">
        <ele>161.4</ele>
        <time>2021-08-09T13:44:19Z</time>
      </trkpt>
      <trkpt lat="48.21541" lon="-3.11563">
        <ele>161.2</ele>
        <time>2021-08-09T13:44:20Z</time>
      </trkpt>
      <trkpt lat="48.21545" lon="-3.11579">
        <ele>160.6</ele>
        <time>2021-08-09T13:44:22Z</time>
      </trkpt>
      <trkpt lat="48.21548" lon="-3.11593">
        <ele>160</ele>
        <time>2021-08-09T13:44:24Z</time>
      </trkpt>
      <trkpt lat="48.21553" lon="-3.11611">
        <ele>159.6</ele>
        <time>2021-08-09T13:44:26Z</time>
      </trkpt>
      <trkpt lat="48.21556" lon="-3.1162">
        <ele>159.4</ele>
        <time>2021-08-09T13:44:27Z</time>
      </trkpt>
      <trkpt lat="48.2156" lon="-3.11636">
        <ele>159.2</ele>
        <time>2021-08-09T13:44:29Z</time>
      </trkpt>
      <trkpt lat="48.21565" lon="-3.11653">
        <ele>159</ele>
        <time>2021-08-09T13:44:31Z</time>
      </trkpt>
      <trkpt lat="48.21567" lon="-3.11664">
        <ele>158.6</ele>
        <time>2021-08-09T13:44:32Z</time>
      </trkpt>
      <trkpt lat="48.21572" lon="-3.1168">
        <ele>158.6</ele>
        <time>2021-08-09T13:44:34Z</time>
      </trkpt>
      <trkpt lat="48.21577" lon="-3.11696">
        <ele>158.4</ele>
        <time>2021-08-09T13:44:36Z</time>
      </trkpt>
      <trkpt lat="48.21583" lon="-3.11716">
        <ele>158.2</ele>
        <time>2021-08-09T13:44:38Z</time>
      </trkpt>
      <trkpt lat="48.21586" lon="-3.11725">
        <ele>158.2</ele>
        <time>2021-08-09T13:44:39Z</time>
      </trkpt>
      <trkpt lat="48.21592" lon="-3.11744">
        <ele>157.6</ele>
        <time>2021-08-09T13:44:41Z</time>
      </trkpt>
      <trkpt lat="48.21598" lon="-3.11764">
        <ele>157.2</ele>
        <time>2021-08-09T13:44:43Z</time>
      </trkpt>
      <trkpt lat="48.21601" lon="-3.11773">
        <ele>157</ele>
        <time>2021-08-09T13:44:44Z</time>
      </trkpt>
      <trkpt lat="48.21604" lon="-3.11783">
        <ele>157</ele>
        <time>2021-08-09T13:44:45Z</time>
      </trkpt>
      <trkpt lat="48.21608" lon="-3.11793">
        <ele>156.8</ele>
        <time>2021-08-09T13:44:46Z</time>
      </trkpt>
      <trkpt lat="48.21612" lon="-3.11803">
        <ele>156.6</ele>
        <time>2021-08-09T13:44:47Z</time>
      </trkpt>
      <trkpt lat="48.21615" lon="-3.11812">
        <ele>156.6</ele>
        <time>2021-08-09T13:44:48Z</time>
      </trkpt>
      <trkpt lat="48.21623" lon="-3.1183">
        <ele>156.4</ele>
        <time>2021-08-09T13:44:50Z</time>
      </trkpt>
      <trkpt lat="48.21626" lon="-3.11839">
        <ele>156.2</ele>
        <time>2021-08-09T13:44:51Z</time>
      </trkpt>
      <trkpt lat="48.2163" lon="-3.11847">
        <ele>156</ele>
        <time>2021-08-09T13:44:52Z</time>
      </trkpt>
      <trkpt lat="48.21634" lon="-3.11855">
        <ele>156</ele>
        <time>2021-08-09T13:44:53Z</time>
      </trkpt>
      <trkpt lat="48.21638" lon="-3.11863">
        <ele>155.8</ele>
        <time>2021-08-09T13:44:54Z</time>
      </trkpt>
      <trkpt lat="48.21641" lon="-3.11873">
        <ele>155.8</ele>
        <time>2021-08-09T13:44:55Z</time>
      </trkpt>
      <trkpt lat="48.21645" lon="-3.11882">
        <ele>155.6</ele>
        <time>2021-08-09T13:44:56Z</time>
      </trkpt>
      <trkpt lat="48.21649" lon="-3.11891">
        <ele>155.6</ele>
        <time>2021-08-09T13:44:57Z</time>
      </trkpt>
      <trkpt lat="48.21653" lon="-3.11899">
        <ele>155.6</ele>
        <time>2021-08-09T13:44:58Z</time>
      </trkpt>
      <trkpt lat="48.21657" lon="-3.11908">
        <ele>155.4</ele>
        <time>2021-08-09T13:44:59Z</time>
      </trkpt>
      <trkpt lat="48.21662" lon="-3.11917">
        <ele>155.4</ele>
        <time>2021-08-09T13:45:00Z</time>
      </trkpt>
      <trkpt lat="48.21667" lon="-3.11926">
        <ele>155.2</ele>
        <time>2021-08-09T13:45:01Z</time>
      </trkpt>
      <trkpt lat="48.21672" lon="-3.11935">
        <ele>155</ele>
        <time>2021-08-09T13:45:02Z</time>
      </trkpt>
      <trkpt lat="48.21677" lon="-3.11945">
        <ele>154.8</ele>
        <time>2021-08-09T13:45:03Z</time>
      </trkpt>
      <trkpt lat="48.21682" lon="-3.11955">
        <ele>154.8</ele>
        <time>2021-08-09T13:45:04Z</time>
      </trkpt>
      <trkpt lat="48.21687" lon="-3.11964">
        <ele>154.6</ele>
        <time>2021-08-09T13:45:05Z</time>
      </trkpt>
      <trkpt lat="48.21692" lon="-3.11972">
        <ele>154.6</ele>
        <time>2021-08-09T13:45:06Z</time>
      </trkpt>
      <trkpt lat="48.21699" lon="-3.1198">
        <ele>154.6</ele>
        <time>2021-08-09T13:45:07Z</time>
      </trkpt>
      <trkpt lat="48.21705" lon="-3.11991">
        <ele>154.6</ele>
        <time>2021-08-09T13:45:08Z</time>
      </trkpt>
      <trkpt lat="48.21711" lon="-3.12">
        <ele>154.6</ele>
        <time>2021-08-09T13:45:09Z</time>
      </trkpt>
      <trkpt lat="48.21716" lon="-3.12009">
        <ele>154.4</ele>
        <time>2021-08-09T13:45:10Z</time>
      </trkpt>
      <trkpt lat="48.21723" lon="-3.12018">
        <ele>154.2</ele>
        <time>2021-08-09T13:45:11Z</time>
      </trkpt>
      <trkpt lat="48.21729" lon="-3.12027">
        <ele>154</ele>
        <time>2021-08-09T13:45:12Z</time>
      </trkpt>
      <trkpt lat="48.21735" lon="-3.12036">
        <ele>153.8</ele>
        <time>2021-08-09T13:45:13Z</time>
      </trkpt>
      <trkpt lat="48.21741" lon="-3.12046">
        <ele>153.2</ele>
        <time>2021-08-09T13:45:14Z</time>
      </trkpt>
      <trkpt lat="48.21747" lon="-3.12056">
        <ele>153</ele>
        <time>2021-08-09T13:45:15Z</time>
      </trkpt>
      <trkpt lat="48.21753" lon="-3.12066">
        <ele>152.8</ele>
        <time>2021-08-09T13:45:16Z</time>
      </trkpt>
      <trkpt lat="48.21758" lon="-3.12075">
        <ele>152.6</ele>
        <time>2021-08-09T13:45:17Z</time>
      </trkpt>
      <trkpt lat="48.21765" lon="-3.12084">
        <ele>152.4</ele>
        <time>2021-08-09T13:45:18Z</time>
      </trkpt>
      <trkpt lat="48.21771" lon="-3.12093">
        <ele>152.4</ele>
        <time>2021-08-09T13:45:19Z</time>
      </trkpt>
      <trkpt lat="48.21777" lon="-3.12103">
        <ele>152.2</ele>
        <time>2021-08-09T13:45:20Z</time>
      </trkpt>
      <trkpt lat="48.21784" lon="-3.12113">
        <ele>152.2</ele>
        <time>2021-08-09T13:45:21Z</time>
      </trkpt>
      <trkpt lat="48.21789" lon="-3.12123">
        <ele>152</ele>
        <time>2021-08-09T13:45:22Z</time>
      </trkpt>
      <trkpt lat="48.21794" lon="-3.12133">
        <ele>151.8</ele>
        <time>2021-08-09T13:45:23Z</time>
      </trkpt>
      <trkpt lat="48.21799" lon="-3.12142">
        <ele>151.4</ele>
        <time>2021-08-09T13:45:24Z</time>
      </trkpt>
      <trkpt lat="48.21804" lon="-3.12152">
        <ele>151</ele>
        <time>2021-08-09T13:45:25Z</time>
      </trkpt>
      <trkpt lat="48.21809" lon="-3.12162">
        <ele>150.8</ele>
        <time>2021-08-09T13:45:26Z</time>
      </trkpt>
      <trkpt lat="48.21813" lon="-3.12173">
        <ele>150.4</ele>
        <time>2021-08-09T13:45:27Z</time>
      </trkpt>
      <trkpt lat="48.21817" lon="-3.12183">
        <ele>150.4</ele>
        <time>2021-08-09T13:45:28Z</time>
      </trkpt>
      <trkpt lat="48.2182" lon="-3.12193">
        <ele>150.2</ele>
        <time>2021-08-09T13:45:29Z</time>
      </trkpt>
      <trkpt lat="48.21823" lon="-3.12203">
        <ele>150</ele>
        <time>2021-08-09T13:45:30Z</time>
      </trkpt>
      <trkpt lat="48.21826" lon="-3.12213">
        <ele>150</ele>
        <time>2021-08-09T13:45:31Z</time>
      </trkpt>
      <trkpt lat="48.21829" lon="-3.12224">
        <ele>149.8</ele>
        <time>2021-08-09T13:45:32Z</time>
      </trkpt>
      <trkpt lat="48.21832" lon="-3.12234">
        <ele>149.8</ele>
        <time>2021-08-09T13:45:33Z</time>
      </trkpt>
      <trkpt lat="48.21834" lon="-3.12243">
        <ele>149.8</ele>
        <time>2021-08-09T13:45:34Z</time>
      </trkpt>
      <trkpt lat="48.21837" lon="-3.12253">
        <ele>149.6</ele>
        <time>2021-08-09T13:45:35Z</time>
      </trkpt>
      <trkpt lat="48.21839" lon="-3.12263">
        <ele>149.2</ele>
        <time>2021-08-09T13:45:36Z</time>
      </trkpt>
      <trkpt lat="48.21841" lon="-3.12273">
        <ele>149</ele>
        <time>2021-08-09T13:45:37Z</time>
      </trkpt>
      <trkpt lat="48.21842" lon="-3.12285">
        <ele>148.8</ele>
        <time>2021-08-09T13:45:38Z</time>
      </trkpt>
      <trkpt lat="48.21843" lon="-3.12296">
        <ele>148.8</ele>
        <time>2021-08-09T13:45:39Z</time>
      </trkpt>
      <trkpt lat="48.21843" lon="-3.12308">
        <ele>148.8</ele>
        <time>2021-08-09T13:45:40Z</time>
      </trkpt>
      <trkpt lat="48.21843" lon="-3.1232">
        <ele>148.8</ele>
        <time>2021-08-09T13:45:41Z</time>
      </trkpt>
      <trkpt lat="48.21843" lon="-3.12331">
        <ele>148.6</ele>
        <time>2021-08-09T13:45:42Z</time>
      </trkpt>
      <trkpt lat="48.21842" lon="-3.12342">
        <ele>148.6</ele>
        <time>2021-08-09T13:45:43Z</time>
      </trkpt>
      <trkpt lat="48.21842" lon="-3.12351">
        <ele>148.6</ele>
        <time>2021-08-09T13:45:44Z</time>
      </trkpt>
      <trkpt lat="48.21841" lon="-3.1236">
        <ele>148.6</ele>
        <time>2021-08-09T13:45:45Z</time>
      </trkpt>
      <trkpt lat="48.2184" lon="-3.1237">
        <ele>148.6</ele>
        <time>2021-08-09T13:45:46Z</time>
      </trkpt>
      <trkpt lat="48.21838" lon="-3.12379">
        <ele>148.4</ele>
        <time>2021-08-09T13:45:47Z</time>
      </trkpt>
      <trkpt lat="48.21836" lon="-3.12388">
        <ele>148.4</ele>
        <time>2021-08-09T13:45:48Z</time>
      </trkpt>
      <trkpt lat="48.21835" lon="-3.12395">
        <ele>148.4</ele>
        <time>2021-08-09T13:45:49Z</time>
      </trkpt>
      <trkpt lat="48.21834" lon="-3.12404">
        <ele>148.4</ele>
        <time>2021-08-09T13:45:50Z</time>
      </trkpt>
      <trkpt lat="48.21832" lon="-3.12411">
        <ele>148.4</ele>
        <time>2021-08-09T13:45:51Z</time>
      </trkpt>
      <trkpt lat="48.2183" lon="-3.12418">
        <ele>148.4</ele>
        <time>2021-08-09T13:45:52Z</time>
      </trkpt>
      <trkpt lat="48.21828" lon="-3.12427">
        <ele>148.4</ele>
        <time>2021-08-09T13:45:53Z</time>
      </trkpt>
      <trkpt lat="48.21826" lon="-3.12436">
        <ele>148.4</ele>
        <time>2021-08-09T13:45:54Z</time>
      </trkpt>
      <trkpt lat="48.21823" lon="-3.12444">
        <ele>148.2</ele>
        <time>2021-08-09T13:45:55Z</time>
      </trkpt>
      <trkpt lat="48.21821" lon="-3.12453">
        <ele>147.8</ele>
        <time>2021-08-09T13:45:56Z</time>
      </trkpt>
      <trkpt lat="48.21818" lon="-3.12461">
        <ele>147.4</ele>
        <time>2021-08-09T13:45:57Z</time>
      </trkpt>
      <trkpt lat="48.21815" lon="-3.12469">
        <ele>146.8</ele>
        <time>2021-08-09T13:45:58Z</time>
      </trkpt>
      <trkpt lat="48.21812" lon="-3.12475">
        <ele>146.6</ele>
        <time>2021-08-09T13:45:59Z</time>
      </trkpt>
      <trkpt lat="48.21809" lon="-3.12482">
        <ele>146.4</ele>
        <time>2021-08-09T13:46:00Z</time>
      </trkpt>
      <trkpt lat="48.21806" lon="-3.12488">
        <ele>146.2</ele>
        <time>2021-08-09T13:46:01Z</time>
      </trkpt>
      <trkpt lat="48.21802" lon="-3.12496">
        <ele>146.2</ele>
        <time>2021-08-09T13:46:02Z</time>
      </trkpt>
      <trkpt lat="48.21798" lon="-3.12503">
        <ele>146.2</ele>
        <time>2021-08-09T13:46:03Z</time>
      </trkpt>
      <trkpt lat="48.21795" lon="-3.12511">
        <ele>146</ele>
        <time>2021-08-09T13:46:04Z</time>
      </trkpt>
      <trkpt lat="48.21791" lon="-3.12518">
        <ele>146</ele>
        <time>2021-08-09T13:46:05Z</time>
      </trkpt>
      <trkpt lat="48.21788" lon="-3.12526">
        <ele>146</ele>
        <time>2021-08-09T13:46:06Z</time>
      </trkpt>
      <trkpt lat="48.21785" lon="-3.12534">
        <ele>146</ele>
        <time>2021-08-09T13:46:07Z</time>
      </trkpt>
      <trkpt lat="48.21781" lon="-3.12542">
        <ele>146</ele>
        <time>2021-08-09T13:46:08Z</time>
      </trkpt>
      <trkpt lat="48.21778" lon="-3.1255">
        <ele>146</ele>
        <time>2021-08-09T13:46:09Z</time>
      </trkpt>
      <trkpt lat="48.21775" lon="-3.12559">
        <ele>146</ele>
        <time>2021-08-09T13:46:10Z</time>
      </trkpt>
      <trkpt lat="48.21771" lon="-3.12566">
        <ele>146</ele>
        <time>2021-08-09T13:46:11Z</time>
      </trkpt>
      <trkpt lat="48.21768" lon="-3.12573">
        <ele>145.8</ele>
        <time>2021-08-09T13:46:12Z</time>
      </trkpt>
      <trkpt lat="48.21764" lon="-3.12581">
        <ele>145.6</ele>
        <time>2021-08-09T13:46:13Z</time>
      </trkpt>
      <trkpt lat="48.2176" lon="-3.12588">
        <ele>145.2</ele>
        <time>2021-08-09T13:46:14Z</time>
      </trkpt>
      <trkpt lat="48.21756" lon="-3.12597">
        <ele>145</ele>
        <time>2021-08-09T13:46:15Z</time>
      </trkpt>
      <trkpt lat="48.21751" lon="-3.12606">
        <ele>144.8</ele>
        <time>2021-08-09T13:46:16Z</time>
      </trkpt>
      <trkpt lat="48.21747" lon="-3.12614">
        <ele>144.6</ele>
        <time>2021-08-09T13:46:17Z</time>
      </trkpt>
      <trkpt lat="48.21743" lon="-3.12622">
        <ele>144.4</ele>
        <time>2021-08-09T13:46:18Z</time>
      </trkpt>
      <trkpt lat="48.21739" lon="-3.12631">
        <ele>144.4</ele>
        <time>2021-08-09T13:46:19Z</time>
      </trkpt>
      <trkpt lat="48.21736" lon="-3.12639">
        <ele>144.2</ele>
        <time>2021-08-09T13:46:20Z</time>
      </trkpt>
      <trkpt lat="48.21732" lon="-3.12649">
        <ele>144.2</ele>
        <time>2021-08-09T13:46:21Z</time>
      </trkpt>
      <trkpt lat="48.21729" lon="-3.12656">
        <ele>144.2</ele>
        <time>2021-08-09T13:46:22Z</time>
      </trkpt>
      <trkpt lat="48.21726" lon="-3.12664">
        <ele>144.2</ele>
        <time>2021-08-09T13:46:23Z</time>
      </trkpt>
      <trkpt lat="48.21722" lon="-3.12673">
        <ele>144.2</ele>
        <time>2021-08-09T13:46:24Z</time>
      </trkpt>
      <trkpt lat="48.21719" lon="-3.12682">
        <ele>144.2</ele>
        <time>2021-08-09T13:46:25Z</time>
      </trkpt>
      <trkpt lat="48.21715" lon="-3.12691">
        <ele>144.2</ele>
        <time>2021-08-09T13:46:26Z</time>
      </trkpt>
      <trkpt lat="48.21711" lon="-3.12701">
        <ele>144</ele>
        <time>2021-08-09T13:46:27Z</time>
      </trkpt>
      <trkpt lat="48.21708" lon="-3.12711">
        <ele>144</ele>
        <time>2021-08-09T13:46:28Z</time>
      </trkpt>
      <trkpt lat="48.21704" lon="-3.12721">
        <ele>143.8</ele>
        <time>2021-08-09T13:46:29Z</time>
      </trkpt>
      <trkpt lat="48.217" lon="-3.1273">
        <ele>143.8</ele>
        <time>2021-08-09T13:46:30Z</time>
      </trkpt>
      <trkpt lat="48.21697" lon="-3.12739">
        <ele>143.6</ele>
        <time>2021-08-09T13:46:31Z</time>
      </trkpt>
      <trkpt lat="48.21694" lon="-3.12748">
        <ele>143.6</ele>
        <time>2021-08-09T13:46:32Z</time>
      </trkpt>
      <trkpt lat="48.2169" lon="-3.12758">
        <ele>143.4</ele>
        <time>2021-08-09T13:46:33Z</time>
      </trkpt>
      <trkpt lat="48.21687" lon="-3.12766">
        <ele>143.4</ele>
        <time>2021-08-09T13:46:34Z</time>
      </trkpt>
      <trkpt lat="48.21683" lon="-3.12775">
        <ele>143.4</ele>
        <time>2021-08-09T13:46:35Z</time>
      </trkpt>
      <trkpt lat="48.21679" lon="-3.12784">
        <ele>143.4</ele>
        <time>2021-08-09T13:46:36Z</time>
      </trkpt>
      <trkpt lat="48.21675" lon="-3.12792">
        <ele>143.2</ele>
        <time>2021-08-09T13:46:37Z</time>
      </trkpt>
      <trkpt lat="48.21671" lon="-3.128">
        <ele>143.2</ele>
        <time>2021-08-09T13:46:38Z</time>
      </trkpt>
      <trkpt lat="48.21666" lon="-3.12808">
        <ele>143.2</ele>
        <time>2021-08-09T13:46:39Z</time>
      </trkpt>
      <trkpt lat="48.21662" lon="-3.12815">
        <ele>143.2</ele>
        <time>2021-08-09T13:46:40Z</time>
      </trkpt>
      <trkpt lat="48.21658" lon="-3.12823">
        <ele>143.2</ele>
        <time>2021-08-09T13:46:41Z</time>
      </trkpt>
      <trkpt lat="48.21654" lon="-3.12829">
        <ele>143.2</ele>
        <time>2021-08-09T13:46:42Z</time>
      </trkpt>
      <trkpt lat="48.2165" lon="-3.12835">
        <ele>143.2</ele>
        <time>2021-08-09T13:46:43Z</time>
      </trkpt>
      <trkpt lat="48.21646" lon="-3.12841">
        <ele>143.2</ele>
        <time>2021-08-09T13:46:44Z</time>
      </trkpt>
      <trkpt lat="48.21642" lon="-3.12847">
        <ele>143.2</ele>
        <time>2021-08-09T13:46:45Z</time>
      </trkpt>
      <trkpt lat="48.21638" lon="-3.12853">
        <ele>143.2</ele>
        <time>2021-08-09T13:46:46Z</time>
      </trkpt>
      <trkpt lat="48.21634" lon="-3.12858">
        <ele>143</ele>
        <time>2021-08-09T13:46:47Z</time>
      </trkpt>
      <trkpt lat="48.21632" lon="-3.12863">
        <ele>143</ele>
        <time>2021-08-09T13:46:48Z</time>
      </trkpt>
      <trkpt lat="48.21629" lon="-3.12867">
        <ele>143</ele>
        <time>2021-08-09T13:46:49Z</time>
      </trkpt>
      <trkpt lat="48.21627" lon="-3.1287">
        <ele>143</ele>
        <time>2021-08-09T13:46:50Z</time>
      </trkpt>
      <trkpt lat="48.21625" lon="-3.12873">
        <ele>143</ele>
        <time>2021-08-09T13:46:51Z</time>
      </trkpt>
      <trkpt lat="48.21623" lon="-3.12875">
        <ele>143</ele>
        <time>2021-08-09T13:46:52Z</time>
      </trkpt>
      <trkpt lat="48.21622" lon="-3.12877">
        <ele>143</ele>
        <time>2021-08-09T13:46:53Z</time>
      </trkpt>
      <trkpt lat="48.2162" lon="-3.12878">
        <ele>143</ele>
        <time>2021-08-09T13:46:55Z</time>
      </trkpt>
      <trkpt lat="48.21619" lon="-3.12878">
        <ele>143</ele>
        <time>2021-08-09T13:46:56Z</time>
      </trkpt>
      <trkpt lat="48.21619" lon="-3.12878">
        <ele>143</ele>
        <time>2021-08-09T13:46:57Z</time>
      </trkpt>
      <trkpt lat="48.21614" lon="-3.12881">
        <ele>143</ele>
        <time>2021-08-09T13:48:05Z</time>
      </trkpt>
      <trkpt lat="48.21612" lon="-3.12879">
        <ele>143</ele>
        <time>2021-08-09T13:48:06Z</time>
      </trkpt>
      <trkpt lat="48.21611" lon="-3.12874">
        <ele>143</ele>
        <time>2021-08-09T13:48:07Z</time>
      </trkpt>
      <trkpt lat="48.21611" lon="-3.12868">
        <ele>143</ele>
        <time>2021-08-09T13:48:08Z</time>
      </trkpt>
      <trkpt lat="48.21611" lon="-3.1286">
        <ele>143</ele>
        <time>2021-08-09T13:48:09Z</time>
      </trkpt>
      <trkpt lat="48.21612" lon="-3.12851">
        <ele>143</ele>
        <time>2021-08-09T13:48:10Z</time>
      </trkpt>
      <trkpt lat="48.21613" lon="-3.1284">
        <ele>143</ele>
        <time>2021-08-09T13:48:11Z</time>
      </trkpt>
      <trkpt lat="48.21613" lon="-3.12827">
        <ele>143</ele>
        <time>2021-08-09T13:48:12Z</time>
      </trkpt>
      <trkpt lat="48.2161" lon="-3.12815">
        <ele>142.8</ele>
        <time>2021-08-09T13:48:13Z</time>
      </trkpt>
      <trkpt lat="48.21603" lon="-3.12804">
        <ele>142.8</ele>
        <time>2021-08-09T13:48:14Z</time>
      </trkpt>
      <trkpt lat="48.21593" lon="-3.12798">
        <ele>142.4</ele>
        <time>2021-08-09T13:48:15Z</time>
      </trkpt>
      <trkpt lat="48.21582" lon="-3.12796">
        <ele>141.8</ele>
        <time>2021-08-09T13:48:16Z</time>
      </trkpt>
      <trkpt lat="48.21571" lon="-3.12796">
        <ele>140.8</ele>
        <time>2021-08-09T13:48:17Z</time>
      </trkpt>
      <trkpt lat="48.21559" lon="-3.12795">
        <ele>139.8</ele>
        <time>2021-08-09T13:48:18Z</time>
      </trkpt>
      <trkpt lat="48.21546" lon="-3.12795">
        <ele>138.4</ele>
        <time>2021-08-09T13:48:19Z</time>
      </trkpt>
      <trkpt lat="48.21534" lon="-3.12795">
        <ele>137</ele>
        <time>2021-08-09T13:48:20Z</time>
      </trkpt>
      <trkpt lat="48.21524" lon="-3.12796">
        <ele>135.2</ele>
        <time>2021-08-09T13:48:21Z</time>
      </trkpt>
      <trkpt lat="48.21516" lon="-3.12799">
        <ele>130.8</ele>
        <time>2021-08-09T13:48:22Z</time>
      </trkpt>
      <trkpt lat="48.2151" lon="-3.12803">
        <ele>129</ele>
        <time>2021-08-09T13:48:23Z</time>
      </trkpt>
      <trkpt lat="48.21507" lon="-3.12808">
        <ele>128.2</ele>
        <time>2021-08-09T13:48:24Z</time>
      </trkpt>
      <trkpt lat="48.21505" lon="-3.12812">
        <ele>127.8</ele>
        <time>2021-08-09T13:48:25Z</time>
      </trkpt>
      <trkpt lat="48.21504" lon="-3.12815">
        <ele>127.6</ele>
        <time>2021-08-09T13:48:26Z</time>
      </trkpt>
      <trkpt lat="48.21501" lon="-3.12818">
        <ele>127.4</ele>
        <time>2021-08-09T13:48:27Z</time>
      </trkpt>
      <trkpt lat="48.21498" lon="-3.12819">
        <ele>127.4</ele>
        <time>2021-08-09T13:48:28Z</time>
      </trkpt>
      <trkpt lat="48.21495" lon="-3.12819">
        <ele>127.4</ele>
        <time>2021-08-09T13:48:29Z</time>
      </trkpt>
      <trkpt lat="48.21493" lon="-3.12818">
        <ele>127.4</ele>
        <time>2021-08-09T13:48:30Z</time>
      </trkpt>
      <trkpt lat="48.2149" lon="-3.12816">
        <ele>127.4</ele>
        <time>2021-08-09T13:48:31Z</time>
      </trkpt>
      <trkpt lat="48.21487" lon="-3.12816">
        <ele>127.2</ele>
        <time>2021-08-09T13:48:32Z</time>
      </trkpt>
      <trkpt lat="48.21483" lon="-3.12815">
        <ele>127</ele>
        <time>2021-08-09T13:48:33Z</time>
      </trkpt>
      <trkpt lat="48.21479" lon="-3.12815">
        <ele>127</ele>
        <time>2021-08-09T13:48:34Z</time>
      </trkpt>
      <trkpt lat="48.21474" lon="-3.12815">
        <ele>126.8</ele>
        <time>2021-08-09T13:48:35Z</time>
      </trkpt>
      <trkpt lat="48.21469" lon="-3.12815">
        <ele>126.8</ele>
        <time>2021-08-09T13:48:36Z</time>
      </trkpt>
      <trkpt lat="48.21464" lon="-3.12814">
        <ele>126.8</ele>
        <time>2021-08-09T13:48:37Z</time>
      </trkpt>
      <trkpt lat="48.21459" lon="-3.12814">
        <ele>126.8</ele>
        <time>2021-08-09T13:48:38Z</time>
      </trkpt>
      <trkpt lat="48.21455" lon="-3.12815">
        <ele>126.8</ele>
        <time>2021-08-09T13:48:39Z</time>
      </trkpt>
      <trkpt lat="48.2145" lon="-3.12815">
        <ele>126.8</ele>
        <time>2021-08-09T13:48:40Z</time>
      </trkpt>
      <trkpt lat="48.21446" lon="-3.12814">
        <ele>126.8</ele>
        <time>2021-08-09T13:48:41Z</time>
      </trkpt>
      <trkpt lat="48.21442" lon="-3.1281">
        <ele>126.8</ele>
        <time>2021-08-09T13:48:42Z</time>
      </trkpt>
      <trkpt lat="48.21438" lon="-3.12807">
        <ele>126.6</ele>
        <time>2021-08-09T13:48:43Z</time>
      </trkpt>
      <trkpt lat="48.21433" lon="-3.12805">
        <ele>126.4</ele>
        <time>2021-08-09T13:48:44Z</time>
      </trkpt>
      <trkpt lat="48.21428" lon="-3.12805">
        <ele>126.2</ele>
        <time>2021-08-09T13:48:45Z</time>
      </trkpt>
      <trkpt lat="48.21422" lon="-3.12805">
        <ele>126</ele>
        <time>2021-08-09T13:48:46Z</time>
      </trkpt>
      <trkpt lat="48.21417" lon="-3.12806">
        <ele>125.8</ele>
        <time>2021-08-09T13:48:47Z</time>
      </trkpt>
      <trkpt lat="48.21411" lon="-3.12806">
        <ele>125.6</ele>
        <time>2021-08-09T13:48:48Z</time>
      </trkpt>
      <trkpt lat="48.21406" lon="-3.12807">
        <ele>125.6</ele>
        <time>2021-08-09T13:48:49Z</time>
      </trkpt>
      <trkpt lat="48.214" lon="-3.12808">
        <ele>125.2</ele>
        <time>2021-08-09T13:48:50Z</time>
      </trkpt>
      <trkpt lat="48.21394" lon="-3.1281">
        <ele>124.6</ele>
        <time>2021-08-09T13:48:51Z</time>
      </trkpt>
      <trkpt lat="48.21389" lon="-3.12812">
        <ele>124.6</ele>
        <time>2021-08-09T13:48:52Z</time>
      </trkpt>
      <trkpt lat="48.21384" lon="-3.12814">
        <ele>124.6</ele>
        <time>2021-08-09T13:48:53Z</time>
      </trkpt>
      <trkpt lat="48.21379" lon="-3.12817">
        <ele>124.4</ele>
        <time>2021-08-09T13:48:54Z</time>
      </trkpt>
      <trkpt lat="48.21375" lon="-3.12819">
        <ele>124.4</ele>
        <time>2021-08-09T13:48:55Z</time>
      </trkpt>
      <trkpt lat="48.2137" lon="-3.12821">
        <ele>124.4</ele>
        <time>2021-08-09T13:48:56Z</time>
      </trkpt>
      <trkpt lat="48.21366" lon="-3.12824">
        <ele>124</ele>
        <time>2021-08-09T13:48:57Z</time>
      </trkpt>
      <trkpt lat="48.21363" lon="-3.12826">
        <ele>124</ele>
        <time>2021-08-09T13:48:58Z</time>
      </trkpt>
      <trkpt lat="48.21359" lon="-3.12829">
        <ele>123.8</ele>
        <time>2021-08-09T13:48:59Z</time>
      </trkpt>
      <trkpt lat="48.21356" lon="-3.12833">
        <ele>123.8</ele>
        <time>2021-08-09T13:49:00Z</time>
      </trkpt>
      <trkpt lat="48.21352" lon="-3.12837">
        <ele>123.8</ele>
        <time>2021-08-09T13:49:01Z</time>
      </trkpt>
      <trkpt lat="48.21349" lon="-3.12841">
        <ele>123.6</ele>
        <time>2021-08-09T13:49:02Z</time>
      </trkpt>
      <trkpt lat="48.21346" lon="-3.12845">
        <ele>123.6</ele>
        <time>2021-08-09T13:49:03Z</time>
      </trkpt>
      <trkpt lat="48.21342" lon="-3.12849">
        <ele>123.6</ele>
        <time>2021-08-09T13:49:04Z</time>
      </trkpt>
      <trkpt lat="48.21339" lon="-3.12852">
        <ele>123.6</ele>
        <time>2021-08-09T13:49:05Z</time>
      </trkpt>
      <trkpt lat="48.21337" lon="-3.12854">
        <ele>123.6</ele>
        <time>2021-08-09T13:49:06Z</time>
      </trkpt>
      <trkpt lat="48.21336" lon="-3.12856">
        <ele>123.6</ele>
        <time>2021-08-09T13:49:07Z</time>
      </trkpt>
      <trkpt lat="48.21335" lon="-3.12857">
        <ele>123.6</ele>
        <time>2021-08-09T13:49:08Z</time>
      </trkpt>
      <trkpt lat="48.21335" lon="-3.12857">
        <ele>123.6</ele>
        <time>2021-08-09T13:49:09Z</time>
      </trkpt>
      <trkpt lat="48.21334" lon="-3.12858">
        <ele>123.8</ele>
        <time>2021-08-09T13:49:10Z</time>
      </trkpt>
      <trkpt lat="48.21333" lon="-3.12858">
        <ele>124</ele>
        <time>2021-08-09T13:49:11Z</time>
      </trkpt>
      <trkpt lat="48.21333" lon="-3.12859">
        <ele>124.2</ele>
        <time>2021-08-09T13:49:12Z</time>
      </trkpt>
      <trkpt lat="48.21329" lon="-3.12859">
        <ele>125.2</ele>
        <time>2021-08-09T13:49:18Z</time>
      </trkpt>
      <trkpt lat="48.21328" lon="-3.12857">
        <ele>125.4</ele>
        <time>2021-08-09T13:49:20Z</time>
      </trkpt>
      <trkpt lat="48.21327" lon="-3.12856">
        <ele>125.4</ele>
        <time>2021-08-09T13:49:21Z</time>
      </trkpt>
      <trkpt lat="48.21324" lon="-3.12851">
        <ele>125.4</ele>
        <time>2021-08-09T13:49:25Z</time>
      </trkpt>
      <trkpt lat="48.21323" lon="-3.1285">
        <ele>125.4</ele>
        <time>2021-08-09T13:49:26Z</time>
      </trkpt>
      <trkpt lat="48.21322" lon="-3.12849">
        <ele>125.4</ele>
        <time>2021-08-09T13:49:27Z</time>
      </trkpt>
      <trkpt lat="48.21321" lon="-3.12849">
        <ele>125.4</ele>
        <time>2021-08-09T13:49:28Z</time>
      </trkpt>
      <trkpt lat="48.21319" lon="-3.1285">
        <ele>125.4</ele>
        <time>2021-08-09T13:49:30Z</time>
      </trkpt>
      <trkpt lat="48.21317" lon="-3.1285">
        <ele>125.4</ele>
        <time>2021-08-09T13:49:31Z</time>
      </trkpt>
      <trkpt lat="48.21316" lon="-3.1285">
        <ele>125.4</ele>
        <time>2021-08-09T13:49:32Z</time>
      </trkpt>
      <trkpt lat="48.21314" lon="-3.1285">
        <ele>125.4</ele>
        <time>2021-08-09T13:49:33Z</time>
      </trkpt>
      <trkpt lat="48.21313" lon="-3.12849">
        <ele>125.4</ele>
        <time>2021-08-09T13:49:34Z</time>
      </trkpt>
      <trkpt lat="48.21312" lon="-3.1285">
        <ele>125.4</ele>
        <time>2021-08-09T13:49:35Z</time>
      </trkpt>
      <trkpt lat="48.21311" lon="-3.12851">
        <ele>125.4</ele>
        <time>2021-08-09T13:49:36Z</time>
      </trkpt>
      <trkpt lat="48.21309" lon="-3.12853">
        <ele>125.4</ele>
        <time>2021-08-09T13:49:37Z</time>
      </trkpt>
      <trkpt lat="48.21308" lon="-3.12854">
        <ele>125.4</ele>
        <time>2021-08-09T13:49:38Z</time>
      </trkpt>
      <trkpt lat="48.21306" lon="-3.12855">
        <ele>125.4</ele>
        <time>2021-08-09T13:49:39Z</time>
      </trkpt>
      <trkpt lat="48.21306" lon="-3.12856">
        <ele>125.4</ele>
        <time>2021-08-09T13:49:40Z</time>
      </trkpt>
      <trkpt lat="48.21306" lon="-3.12856">
        <ele>125.4</ele>
        <time>2021-08-09T13:49:41Z</time>
      </trkpt>
      <trkpt lat="48.21306" lon="-3.12855">
        <ele>125.4</ele>
        <time>2021-08-09T13:49:42Z</time>
      </trkpt>
      <trkpt lat="48.21306" lon="-3.12856">
        <ele>125.6</ele>
        <time>2021-08-09T13:50:04Z</time>
      </trkpt>
      <trkpt lat="48.21305" lon="-3.12857">
        <ele>125.6</ele>
        <time>2021-08-09T13:50:05Z</time>
      </trkpt>
      <trkpt lat="48.21304" lon="-3.12858">
        <ele>125.6</ele>
        <time>2021-08-09T13:50:06Z</time>
      </trkpt>
      <trkpt lat="48.21302" lon="-3.1286">
        <ele>125.6</ele>
        <time>2021-08-09T13:50:07Z</time>
      </trkpt>
      <trkpt lat="48.21298" lon="-3.12865">
        <ele>125.6</ele>
        <time>2021-08-09T13:50:09Z</time>
      </trkpt>
      <trkpt lat="48.21295" lon="-3.12868">
        <ele>125.8</ele>
        <time>2021-08-09T13:50:10Z</time>
      </trkpt>
      <trkpt lat="48.21293" lon="-3.12871">
        <ele>125.8</ele>
        <time>2021-08-09T13:50:11Z</time>
      </trkpt>
      <trkpt lat="48.21291" lon="-3.12874">
        <ele>125.8</ele>
        <time>2021-08-09T13:50:12Z</time>
      </trkpt>
      <trkpt lat="48.21289" lon="-3.12876">
        <ele>125.8</ele>
        <time>2021-08-09T13:50:13Z</time>
      </trkpt>
      <trkpt lat="48.21287" lon="-3.12879">
        <ele>125.8</ele>
        <time>2021-08-09T13:50:14Z</time>
      </trkpt>
      <trkpt lat="48.21285" lon="-3.12881">
        <ele>125.6</ele>
        <time>2021-08-09T13:50:15Z</time>
      </trkpt>
      <trkpt lat="48.21284" lon="-3.12884">
        <ele>125.4</ele>
        <time>2021-08-09T13:50:16Z</time>
      </trkpt>
      <trkpt lat="48.21282" lon="-3.12886">
        <ele>125.2</ele>
        <time>2021-08-09T13:50:17Z</time>
      </trkpt>
      <trkpt lat="48.21281" lon="-3.12888">
        <ele>125.2</ele>
        <time>2021-08-09T13:50:18Z</time>
      </trkpt>
      <trkpt lat="48.21279" lon="-3.1289">
        <ele>125.2</ele>
        <time>2021-08-09T13:50:19Z</time>
      </trkpt>
      <trkpt lat="48.21277" lon="-3.1289">
        <ele>125.2</ele>
        <time>2021-08-09T13:50:20Z</time>
      </trkpt>
      <trkpt lat="48.21276" lon="-3.12889">
        <ele>125.2</ele>
        <time>2021-08-09T13:50:21Z</time>
      </trkpt>
      <trkpt lat="48.21276" lon="-3.12887">
        <ele>125.2</ele>
        <time>2021-08-09T13:50:22Z</time>
      </trkpt>
      <trkpt lat="48.21277" lon="-3.12885">
        <ele>125.2</ele>
        <time>2021-08-09T13:50:23Z</time>
      </trkpt>
      <trkpt lat="48.21278" lon="-3.12883">
        <ele>125.2</ele>
        <time>2021-08-09T13:50:24Z</time>
      </trkpt>
      <trkpt lat="48.2128" lon="-3.1288">
        <ele>125.2</ele>
        <time>2021-08-09T13:50:25Z</time>
      </trkpt>
      <trkpt lat="48.21282" lon="-3.12878">
        <ele>125.2</ele>
        <time>2021-08-09T13:50:26Z</time>
      </trkpt>
      <trkpt lat="48.21284" lon="-3.12875">
        <ele>125.2</ele>
        <time>2021-08-09T13:50:27Z</time>
      </trkpt>
      <trkpt lat="48.21285" lon="-3.12872">
        <ele>125.4</ele>
        <time>2021-08-09T13:50:28Z</time>
      </trkpt>
      <trkpt lat="48.21286" lon="-3.1287">
        <ele>125.4</ele>
        <time>2021-08-09T13:50:29Z</time>
      </trkpt>
      <trkpt lat="48.21286" lon="-3.12868">
        <ele>125.4</ele>
        <time>2021-08-09T13:50:30Z</time>
      </trkpt>
      <trkpt lat="48.21286" lon="-3.12866">
        <ele>125.4</ele>
        <time>2021-08-09T13:50:31Z</time>
      </trkpt>
      <trkpt lat="48.21286" lon="-3.12866">
        <ele>125.4</ele>
        <time>2021-08-09T13:50:32Z</time>
      </trkpt>
      <trkpt lat="48.21286" lon="-3.12866">
        <ele>125.4</ele>
        <time>2021-08-09T13:50:34Z</time>
      </trkpt>
      <trkpt lat="48.21286" lon="-3.12865">
        <ele>125.6</ele>
        <time>2021-08-09T13:51:21Z</time>
      </trkpt>
      <trkpt lat="48.21286" lon="-3.12865">
        <ele>125.6</ele>
        <time>2021-08-09T13:51:22Z</time>
      </trkpt>
      <trkpt lat="48.21287" lon="-3.12864">
        <ele>125.6</ele>
        <time>2021-08-09T13:51:23Z</time>
      </trkpt>
      <trkpt lat="48.21289" lon="-3.12863">
        <ele>125.4</ele>
        <time>2021-08-09T13:51:24Z</time>
      </trkpt>
      <trkpt lat="48.21291" lon="-3.12857">
        <ele>125.4</ele>
        <time>2021-08-09T13:51:26Z</time>
      </trkpt>
      <trkpt lat="48.21294" lon="-3.12854">
        <ele>125.4</ele>
        <time>2021-08-09T13:51:27Z</time>
      </trkpt>
      <trkpt lat="48.21296" lon="-3.12851">
        <ele>125.4</ele>
        <time>2021-08-09T13:51:28Z</time>
      </trkpt>
      <trkpt lat="48.21299" lon="-3.12848">
        <ele>125.4</ele>
        <time>2021-08-09T13:51:29Z</time>
      </trkpt>
      <trkpt lat="48.21301" lon="-3.12845">
        <ele>125.4</ele>
        <time>2021-08-09T13:51:30Z</time>
      </trkpt>
      <trkpt lat="48.21303" lon="-3.12842">
        <ele>125.4</ele>
        <time>2021-08-09T13:51:31Z</time>
      </trkpt>
      <trkpt lat="48.21305" lon="-3.12839">
        <ele>125.4</ele>
        <time>2021-08-09T13:51:32Z</time>
      </trkpt>
      <trkpt lat="48.21307" lon="-3.12837">
        <ele>125.6</ele>
        <time>2021-08-09T13:51:33Z</time>
      </trkpt>
      <trkpt lat="48.21308" lon="-3.12835">
        <ele>125.6</ele>
        <time>2021-08-09T13:51:34Z</time>
      </trkpt>
      <trkpt lat="48.21309" lon="-3.12833">
        <ele>125.6</ele>
        <time>2021-08-09T13:51:35Z</time>
      </trkpt>
      <trkpt lat="48.2131" lon="-3.12831">
        <ele>125.6</ele>
        <time>2021-08-09T13:51:36Z</time>
      </trkpt>
      <trkpt lat="48.2131" lon="-3.12828">
        <ele>125.4</ele>
        <time>2021-08-09T13:51:37Z</time>
      </trkpt>
      <trkpt lat="48.21309" lon="-3.12826">
        <ele>125.4</ele>
        <time>2021-08-09T13:51:38Z</time>
      </trkpt>
      <trkpt lat="48.21308" lon="-3.12826">
        <ele>125.4</ele>
        <time>2021-08-09T13:51:39Z</time>
      </trkpt>
      <trkpt lat="48.21306" lon="-3.12825">
        <ele>125.4</ele>
        <time>2021-08-09T13:51:40Z</time>
      </trkpt>
      <trkpt lat="48.21304" lon="-3.12824">
        <ele>125.4</ele>
        <time>2021-08-09T13:51:41Z</time>
      </trkpt>
      <trkpt lat="48.21302" lon="-3.12823">
        <ele>125.4</ele>
        <time>2021-08-09T13:51:42Z</time>
      </trkpt>
      <trkpt lat="48.21301" lon="-3.12821">
        <ele>125.6</ele>
        <time>2021-08-09T13:51:43Z</time>
      </trkpt>
      <trkpt lat="48.21299" lon="-3.1282">
        <ele>125.6</ele>
        <time>2021-08-09T13:51:44Z</time>
      </trkpt>
      <trkpt lat="48.21297" lon="-3.12818">
        <ele>125.6</ele>
        <time>2021-08-09T13:51:45Z</time>
      </trkpt>
      <trkpt lat="48.21295" lon="-3.12816">
        <ele>125.6</ele>
        <time>2021-08-09T13:51:46Z</time>
      </trkpt>
      <trkpt lat="48.21293" lon="-3.12815">
        <ele>125.8</ele>
        <time>2021-08-09T13:51:47Z</time>
      </trkpt>
      <trkpt lat="48.21291" lon="-3.12814">
        <ele>125.8</ele>
        <time>2021-08-09T13:51:48Z</time>
      </trkpt>
      <trkpt lat="48.21288" lon="-3.12812">
        <ele>125.8</ele>
        <time>2021-08-09T13:51:49Z</time>
      </trkpt>
      <trkpt lat="48.21287" lon="-3.12811">
        <ele>125.8</ele>
        <time>2021-08-09T13:51:50Z</time>
      </trkpt>
      <trkpt lat="48.21285" lon="-3.1281">
        <ele>125.8</ele>
        <time>2021-08-09T13:51:51Z</time>
      </trkpt>
      <trkpt lat="48.21283" lon="-3.12809">
        <ele>125.8</ele>
        <time>2021-08-09T13:51:52Z</time>
      </trkpt>
      <trkpt lat="48.21281" lon="-3.12807">
        <ele>126</ele>
        <time>2021-08-09T13:51:53Z</time>
      </trkpt>
      <trkpt lat="48.21279" lon="-3.12806">
        <ele>126.2</ele>
        <time>2021-08-09T13:51:54Z</time>
      </trkpt>
      <trkpt lat="48.21276" lon="-3.12804">
        <ele>126.4</ele>
        <time>2021-08-09T13:51:55Z</time>
      </trkpt>
      <trkpt lat="48.21274" lon="-3.12802">
        <ele>126.6</ele>
        <time>2021-08-09T13:51:56Z</time>
      </trkpt>
      <trkpt lat="48.21272" lon="-3.128">
        <ele>126.6</ele>
        <time>2021-08-09T13:51:57Z</time>
      </trkpt>
      <trkpt lat="48.21269" lon="-3.12798">
        <ele>126.8</ele>
        <time>2021-08-09T13:51:58Z</time>
      </trkpt>
      <trkpt lat="48.21267" lon="-3.12796">
        <ele>126.8</ele>
        <time>2021-08-09T13:51:59Z</time>
      </trkpt>
      <trkpt lat="48.21265" lon="-3.12794">
        <ele>127</ele>
        <time>2021-08-09T13:52:00Z</time>
      </trkpt>
      <trkpt lat="48.21263" lon="-3.12792">
        <ele>127</ele>
        <time>2021-08-09T13:52:01Z</time>
      </trkpt>
      <trkpt lat="48.2126" lon="-3.12791">
        <ele>127.2</ele>
        <time>2021-08-09T13:52:02Z</time>
      </trkpt>
      <trkpt lat="48.21258" lon="-3.12789">
        <ele>127.4</ele>
        <time>2021-08-09T13:52:03Z</time>
      </trkpt>
      <trkpt lat="48.21256" lon="-3.12787">
        <ele>127.6</ele>
        <time>2021-08-09T13:52:04Z</time>
      </trkpt>
      <trkpt lat="48.21254" lon="-3.12785">
        <ele>127.8</ele>
        <time>2021-08-09T13:52:05Z</time>
      </trkpt>
      <trkpt lat="48.21251" lon="-3.12783">
        <ele>127.8</ele>
        <time>2021-08-09T13:52:06Z</time>
      </trkpt>
      <trkpt lat="48.21249" lon="-3.12781">
        <ele>127.8</ele>
        <time>2021-08-09T13:52:07Z</time>
      </trkpt>
      <trkpt lat="48.21246" lon="-3.1278">
        <ele>128</ele>
        <time>2021-08-09T13:52:08Z</time>
      </trkpt>
      <trkpt lat="48.21243" lon="-3.12778">
        <ele>128</ele>
        <time>2021-08-09T13:52:09Z</time>
      </trkpt>
      <trkpt lat="48.21241" lon="-3.12776">
        <ele>128</ele>
        <time>2021-08-09T13:52:10Z</time>
      </trkpt>
      <trkpt lat="48.21238" lon="-3.12773">
        <ele>128</ele>
        <time>2021-08-09T13:52:11Z</time>
      </trkpt>
      <trkpt lat="48.21236" lon="-3.12771">
        <ele>128.2</ele>
        <time>2021-08-09T13:52:12Z</time>
      </trkpt>
      <trkpt lat="48.21233" lon="-3.12768">
        <ele>128.2</ele>
        <time>2021-08-09T13:52:13Z</time>
      </trkpt>
      <trkpt lat="48.2123" lon="-3.12765">
        <ele>128.2</ele>
        <time>2021-08-09T13:52:14Z</time>
      </trkpt>
      <trkpt lat="48.21228" lon="-3.12763">
        <ele>128.2</ele>
        <time>2021-08-09T13:52:15Z</time>
      </trkpt>
      <trkpt lat="48.21225" lon="-3.12761">
        <ele>128.4</ele>
        <time>2021-08-09T13:52:16Z</time>
      </trkpt>
      <trkpt lat="48.21223" lon="-3.12759">
        <ele>128.4</ele>
        <time>2021-08-09T13:52:17Z</time>
      </trkpt>
      <trkpt lat="48.21221" lon="-3.12758">
        <ele>128.6</ele>
        <time>2021-08-09T13:52:18Z</time>
      </trkpt>
      <trkpt lat="48.21219" lon="-3.12757">
        <ele>128.6</ele>
        <time>2021-08-09T13:52:19Z</time>
      </trkpt>
      <trkpt lat="48.21217" lon="-3.12756">
        <ele>128.8</ele>
        <time>2021-08-09T13:52:20Z</time>
      </trkpt>
      <trkpt lat="48.21215" lon="-3.12754">
        <ele>129</ele>
        <time>2021-08-09T13:52:21Z</time>
      </trkpt>
      <trkpt lat="48.21214" lon="-3.12753">
        <ele>129</ele>
        <time>2021-08-09T13:52:22Z</time>
      </trkpt>
      <trkpt lat="48.21212" lon="-3.12751">
        <ele>129.2</ele>
        <time>2021-08-09T13:52:23Z</time>
      </trkpt>
      <trkpt lat="48.2121" lon="-3.12749">
        <ele>129.2</ele>
        <time>2021-08-09T13:52:24Z</time>
      </trkpt>
      <trkpt lat="48.21209" lon="-3.12747">
        <ele>129.2</ele>
        <time>2021-08-09T13:52:25Z</time>
      </trkpt>
      <trkpt lat="48.21207" lon="-3.12746">
        <ele>129.4</ele>
        <time>2021-08-09T13:52:26Z</time>
      </trkpt>
      <trkpt lat="48.21205" lon="-3.12745">
        <ele>129.4</ele>
        <time>2021-08-09T13:52:27Z</time>
      </trkpt>
      <trkpt lat="48.21204" lon="-3.12745">
        <ele>129.4</ele>
        <time>2021-08-09T13:52:28Z</time>
      </trkpt>
      <trkpt lat="48.21203" lon="-3.12744">
        <ele>129.4</ele>
        <time>2021-08-09T13:52:29Z</time>
      </trkpt>
      <trkpt lat="48.21199" lon="-3.12741">
        <ele>129.6</ele>
        <time>2021-08-09T13:52:34Z</time>
      </trkpt>
      <trkpt lat="48.21198" lon="-3.1274">
        <ele>129.6</ele>
        <time>2021-08-09T13:52:35Z</time>
      </trkpt>
      <trkpt lat="48.21197" lon="-3.12739">
        <ele>129.6</ele>
        <time>2021-08-09T13:52:36Z</time>
      </trkpt>
      <trkpt lat="48.21196" lon="-3.12739">
        <ele>129.8</ele>
        <time>2021-08-09T13:52:37Z</time>
      </trkpt>
      <trkpt lat="48.21196" lon="-3.12738">
        <ele>129.8</ele>
        <time>2021-08-09T13:52:38Z</time>
      </trkpt>
      <trkpt lat="48.21195" lon="-3.12738">
        <ele>129.8</ele>
        <time>2021-08-09T13:52:39Z</time>
      </trkpt>
      <trkpt lat="48.21143" lon="-3.1271">
        <ele>129.4</ele>
        <time>2021-08-09T13:55:38Z</time>
      </trkpt>
      <trkpt lat="48.21146" lon="-3.12711">
        <ele>129.4</ele>
        <time>2021-08-09T13:55:39Z</time>
      </trkpt>
      <trkpt lat="48.21148" lon="-3.12712">
        <ele>129.4</ele>
        <time>2021-08-09T13:55:40Z</time>
      </trkpt>
      <trkpt lat="48.21151" lon="-3.12713">
        <ele>129.4</ele>
        <time>2021-08-09T13:55:41Z</time>
      </trkpt>
      <trkpt lat="48.21154" lon="-3.12715">
        <ele>129.4</ele>
        <time>2021-08-09T13:55:42Z</time>
      </trkpt>
      <trkpt lat="48.21156" lon="-3.12716">
        <ele>129.2</ele>
        <time>2021-08-09T13:55:43Z</time>
      </trkpt>
      <trkpt lat="48.21159" lon="-3.12718">
        <ele>129.4</ele>
        <time>2021-08-09T13:55:44Z</time>
      </trkpt>
      <trkpt lat="48.21161" lon="-3.12721">
        <ele>129.4</ele>
        <time>2021-08-09T13:55:45Z</time>
      </trkpt>
      <trkpt lat="48.21162" lon="-3.12724">
        <ele>129.2</ele>
        <time>2021-08-09T13:55:46Z</time>
      </trkpt>
      <trkpt lat="48.21161" lon="-3.12728">
        <ele>129.2</ele>
        <time>2021-08-09T13:55:47Z</time>
      </trkpt>
      <trkpt lat="48.21161" lon="-3.12732">
        <ele>129.2</ele>
        <time>2021-08-09T13:55:48Z</time>
      </trkpt>
      <trkpt lat="48.2116" lon="-3.12736">
        <ele>129.2</ele>
        <time>2021-08-09T13:55:49Z</time>
      </trkpt>
      <trkpt lat="48.2116" lon="-3.12739">
        <ele>129.2</ele>
        <time>2021-08-09T13:55:50Z</time>
      </trkpt>
      <trkpt lat="48.2116" lon="-3.12742">
        <ele>129.2</ele>
        <time>2021-08-09T13:55:51Z</time>
      </trkpt>
      <trkpt lat="48.21159" lon="-3.12744">
        <ele>129</ele>
        <time>2021-08-09T13:55:52Z</time>
      </trkpt>
      <trkpt lat="48.21161" lon="-3.12728">
        <ele>129.6</ele>
        <time>2021-08-09T13:58:43Z</time>
      </trkpt>
      <trkpt lat="48.21162" lon="-3.12725">
        <ele>129.8</ele>
        <time>2021-08-09T13:58:44Z</time>
      </trkpt>
      <trkpt lat="48.21163" lon="-3.12724">
        <ele>129.8</ele>
        <time>2021-08-09T13:58:45Z</time>
      </trkpt>
      <trkpt lat="48.21164" lon="-3.12723">
        <ele>129.8</ele>
        <time>2021-08-09T13:58:46Z</time>
      </trkpt>
      <trkpt lat="48.21166" lon="-3.12722">
        <ele>130</ele>
        <time>2021-08-09T13:58:47Z</time>
      </trkpt>
      <trkpt lat="48.21168" lon="-3.12721">
        <ele>130</ele>
        <time>2021-08-09T13:58:48Z</time>
      </trkpt>
      <trkpt lat="48.21171" lon="-3.12722">
        <ele>130</ele>
        <time>2021-08-09T13:58:49Z</time>
      </trkpt>
      <trkpt lat="48.21173" lon="-3.12723">
        <ele>130</ele>
        <time>2021-08-09T13:58:50Z</time>
      </trkpt>
      <trkpt lat="48.21176" lon="-3.12725">
        <ele>130</ele>
        <time>2021-08-09T13:58:51Z</time>
      </trkpt>
      <trkpt lat="48.21179" lon="-3.12727">
        <ele>130.2</ele>
        <time>2021-08-09T13:58:52Z</time>
      </trkpt>
      <trkpt lat="48.21182" lon="-3.1273">
        <ele>130.2</ele>
        <time>2021-08-09T13:58:53Z</time>
      </trkpt>
      <trkpt lat="48.21185" lon="-3.12732">
        <ele>130.2</ele>
        <time>2021-08-09T13:58:54Z</time>
      </trkpt>
      <trkpt lat="48.21188" lon="-3.12734">
        <ele>130.2</ele>
        <time>2021-08-09T13:58:55Z</time>
      </trkpt>
      <trkpt lat="48.21192" lon="-3.12735">
        <ele>130.2</ele>
        <time>2021-08-09T13:58:56Z</time>
      </trkpt>
      <trkpt lat="48.21196" lon="-3.12737">
        <ele>130.2</ele>
        <time>2021-08-09T13:58:57Z</time>
      </trkpt>
      <trkpt lat="48.21199" lon="-3.12739">
        <ele>130.2</ele>
        <time>2021-08-09T13:58:58Z</time>
      </trkpt>
      <trkpt lat="48.21202" lon="-3.12741">
        <ele>130.2</ele>
        <time>2021-08-09T13:58:59Z</time>
      </trkpt>
      <trkpt lat="48.21204" lon="-3.12743">
        <ele>130.2</ele>
        <time>2021-08-09T13:59:00Z</time>
      </trkpt>
      <trkpt lat="48.21207" lon="-3.12744">
        <ele>130.2</ele>
        <time>2021-08-09T13:59:01Z</time>
      </trkpt>
      <trkpt lat="48.21208" lon="-3.12746">
        <ele>130.2</ele>
        <time>2021-08-09T13:59:02Z</time>
      </trkpt>
      <trkpt lat="48.21211" lon="-3.12748">
        <ele>130.2</ele>
        <time>2021-08-09T13:59:03Z</time>
      </trkpt>
      <trkpt lat="48.21213" lon="-3.12749">
        <ele>130.2</ele>
        <time>2021-08-09T13:59:04Z</time>
      </trkpt>
      <trkpt lat="48.21216" lon="-3.12751">
        <ele>130</ele>
        <time>2021-08-09T13:59:05Z</time>
      </trkpt>
      <trkpt lat="48.21218" lon="-3.12753">
        <ele>130</ele>
        <time>2021-08-09T13:59:06Z</time>
      </trkpt>
      <trkpt lat="48.2122" lon="-3.12755">
        <ele>129.8</ele>
        <time>2021-08-09T13:59:07Z</time>
      </trkpt>
      <trkpt lat="48.21223" lon="-3.12756">
        <ele>129.2</ele>
        <time>2021-08-09T13:59:08Z</time>
      </trkpt>
      <trkpt lat="48.21225" lon="-3.12757">
        <ele>128.8</ele>
        <time>2021-08-09T13:59:09Z</time>
      </trkpt>
      <trkpt lat="48.21227" lon="-3.12758">
        <ele>128.6</ele>
        <time>2021-08-09T13:59:10Z</time>
      </trkpt>
      <trkpt lat="48.21229" lon="-3.1276">
        <ele>128.6</ele>
        <time>2021-08-09T13:59:11Z</time>
      </trkpt>
      <trkpt lat="48.21231" lon="-3.12762">
        <ele>128.4</ele>
        <time>2021-08-09T13:59:12Z</time>
      </trkpt>
      <trkpt lat="48.21233" lon="-3.12764">
        <ele>128.4</ele>
        <time>2021-08-09T13:59:13Z</time>
      </trkpt>
      <trkpt lat="48.21236" lon="-3.12766">
        <ele>128.4</ele>
        <time>2021-08-09T13:59:14Z</time>
      </trkpt>
      <trkpt lat="48.21239" lon="-3.12769">
        <ele>128.2</ele>
        <time>2021-08-09T13:59:15Z</time>
      </trkpt>
      <trkpt lat="48.21242" lon="-3.12772">
        <ele>128.2</ele>
        <time>2021-08-09T13:59:16Z</time>
      </trkpt>
      <trkpt lat="48.21245" lon="-3.12775">
        <ele>128.2</ele>
        <time>2021-08-09T13:59:17Z</time>
      </trkpt>
      <trkpt lat="48.21248" lon="-3.12777">
        <ele>128.2</ele>
        <time>2021-08-09T13:59:18Z</time>
      </trkpt>
      <trkpt lat="48.21252" lon="-3.1278">
        <ele>128.2</ele>
        <time>2021-08-09T13:59:19Z</time>
      </trkpt>
      <trkpt lat="48.21255" lon="-3.12782">
        <ele>128.2</ele>
        <time>2021-08-09T13:59:20Z</time>
      </trkpt>
      <trkpt lat="48.21258" lon="-3.12784">
        <ele>128.2</ele>
        <time>2021-08-09T13:59:21Z</time>
      </trkpt>
      <trkpt lat="48.21262" lon="-3.12786">
        <ele>128</ele>
        <time>2021-08-09T13:59:22Z</time>
      </trkpt>
      <trkpt lat="48.21266" lon="-3.12789">
        <ele>128</ele>
        <time>2021-08-09T13:59:23Z</time>
      </trkpt>
      <trkpt lat="48.21271" lon="-3.12792">
        <ele>127.8</ele>
        <time>2021-08-09T13:59:24Z</time>
      </trkpt>
      <trkpt lat="48.21275" lon="-3.12796">
        <ele>127.6</ele>
        <time>2021-08-09T13:59:25Z</time>
      </trkpt>
      <trkpt lat="48.2128" lon="-3.12799">
        <ele>127</ele>
        <time>2021-08-09T13:59:26Z</time>
      </trkpt>
      <trkpt lat="48.21285" lon="-3.12802">
        <ele>126.6</ele>
        <time>2021-08-09T13:59:27Z</time>
      </trkpt>
      <trkpt lat="48.2129" lon="-3.12805">
        <ele>126.4</ele>
        <time>2021-08-09T13:59:28Z</time>
      </trkpt>
      <trkpt lat="48.21293" lon="-3.12809">
        <ele>126.2</ele>
        <time>2021-08-09T13:59:29Z</time>
      </trkpt>
      <trkpt lat="48.21296" lon="-3.12813">
        <ele>126</ele>
        <time>2021-08-09T13:59:30Z</time>
      </trkpt>
      <trkpt lat="48.21298" lon="-3.12817">
        <ele>125.8</ele>
        <time>2021-08-09T13:59:31Z</time>
      </trkpt>
      <trkpt lat="48.21299" lon="-3.12821">
        <ele>125.6</ele>
        <time>2021-08-09T13:59:32Z</time>
      </trkpt>
      <trkpt lat="48.21299" lon="-3.12823">
        <ele>125.4</ele>
        <time>2021-08-09T13:59:33Z</time>
      </trkpt>
      <trkpt lat="48.21295" lon="-3.12826">
        <ele>125.4</ele>
        <time>2021-08-09T13:59:36Z</time>
      </trkpt>
      <trkpt lat="48.21295" lon="-3.12829">
        <ele>125.4</ele>
        <time>2021-08-09T13:59:37Z</time>
      </trkpt>
      <trkpt lat="48.21294" lon="-3.12832">
        <ele>125.4</ele>
        <time>2021-08-09T13:59:38Z</time>
      </trkpt>
      <trkpt lat="48.21293" lon="-3.12835">
        <ele>125.4</ele>
        <time>2021-08-09T13:59:39Z</time>
      </trkpt>
      <trkpt lat="48.21291" lon="-3.12838">
        <ele>125.4</ele>
        <time>2021-08-09T13:59:40Z</time>
      </trkpt>
      <trkpt lat="48.2129" lon="-3.12841">
        <ele>125.4</ele>
        <time>2021-08-09T13:59:41Z</time>
      </trkpt>
      <trkpt lat="48.21289" lon="-3.12843">
        <ele>125.4</ele>
        <time>2021-08-09T13:59:42Z</time>
      </trkpt>
      <trkpt lat="48.21287" lon="-3.12846">
        <ele>125.4</ele>
        <time>2021-08-09T13:59:43Z</time>
      </trkpt>
      <trkpt lat="48.21286" lon="-3.12849">
        <ele>125.4</ele>
        <time>2021-08-09T13:59:44Z</time>
      </trkpt>
      <trkpt lat="48.21284" lon="-3.12851">
        <ele>125.4</ele>
        <time>2021-08-09T13:59:45Z</time>
      </trkpt>
      <trkpt lat="48.21284" lon="-3.12853">
        <ele>125.4</ele>
        <time>2021-08-09T13:59:46Z</time>
      </trkpt>
      <trkpt lat="48.21283" lon="-3.12855">
        <ele>125.4</ele>
        <time>2021-08-09T13:59:47Z</time>
      </trkpt>
      <trkpt lat="48.21282" lon="-3.12857">
        <ele>125.4</ele>
        <time>2021-08-09T13:59:48Z</time>
      </trkpt>
      <trkpt lat="48.21282" lon="-3.12859">
        <ele>125.4</ele>
        <time>2021-08-09T13:59:49Z</time>
      </trkpt>
      <trkpt lat="48.21281" lon="-3.12861">
        <ele>125.4</ele>
        <time>2021-08-09T13:59:50Z</time>
      </trkpt>
      <trkpt lat="48.2128" lon="-3.12863">
        <ele>125.2</ele>
        <time>2021-08-09T13:59:51Z</time>
      </trkpt>
      <trkpt lat="48.2128" lon="-3.12866">
        <ele>125</ele>
        <time>2021-08-09T13:59:52Z</time>
      </trkpt>
      <trkpt lat="48.2128" lon="-3.1287">
        <ele>124.8</ele>
        <time>2021-08-09T13:59:53Z</time>
      </trkpt>
      <trkpt lat="48.21279" lon="-3.12874">
        <ele>124.8</ele>
        <time>2021-08-09T13:59:54Z</time>
      </trkpt>
      <trkpt lat="48.21278" lon="-3.12877">
        <ele>124.6</ele>
        <time>2021-08-09T13:59:55Z</time>
      </trkpt>
      <trkpt lat="48.21276" lon="-3.12881">
        <ele>124.6</ele>
        <time>2021-08-09T13:59:56Z</time>
      </trkpt>
      <trkpt lat="48.21274" lon="-3.12885">
        <ele>124.6</ele>
        <time>2021-08-09T13:59:57Z</time>
      </trkpt>
      <trkpt lat="48.21272" lon="-3.12889">
        <ele>124.6</ele>
        <time>2021-08-09T13:59:58Z</time>
      </trkpt>
      <trkpt lat="48.2127" lon="-3.12893">
        <ele>124.6</ele>
        <time>2021-08-09T13:59:59Z</time>
      </trkpt>
      <trkpt lat="48.21268" lon="-3.12897">
        <ele>124.6</ele>
        <time>2021-08-09T14:00:00Z</time>
      </trkpt>
      <trkpt lat="48.21266" lon="-3.12901">
        <ele>124.6</ele>
        <time>2021-08-09T14:00:01Z</time>
      </trkpt>
      <trkpt lat="48.21264" lon="-3.12905">
        <ele>124.6</ele>
        <time>2021-08-09T14:00:02Z</time>
      </trkpt>
      <trkpt lat="48.21262" lon="-3.1291">
        <ele>124.6</ele>
        <time>2021-08-09T14:00:03Z</time>
      </trkpt>
      <trkpt lat="48.21259" lon="-3.12914">
        <ele>124.6</ele>
        <time>2021-08-09T14:00:04Z</time>
      </trkpt>
      <trkpt lat="48.21257" lon="-3.12919">
        <ele>124.6</ele>
        <time>2021-08-09T14:00:05Z</time>
      </trkpt>
      <trkpt lat="48.21254" lon="-3.12923">
        <ele>124.6</ele>
        <time>2021-08-09T14:00:06Z</time>
      </trkpt>
      <trkpt lat="48.21252" lon="-3.12927">
        <ele>124.6</ele>
        <time>2021-08-09T14:00:07Z</time>
      </trkpt>
      <trkpt lat="48.2125" lon="-3.12931">
        <ele>124.6</ele>
        <time>2021-08-09T14:00:08Z</time>
      </trkpt>
      <trkpt lat="48.21248" lon="-3.12935">
        <ele>124.6</ele>
        <time>2021-08-09T14:00:09Z</time>
      </trkpt>
      <trkpt lat="48.21246" lon="-3.12939">
        <ele>124.6</ele>
        <time>2021-08-09T14:00:10Z</time>
      </trkpt>
      <trkpt lat="48.21244" lon="-3.12943">
        <ele>124.6</ele>
        <time>2021-08-09T14:00:11Z</time>
      </trkpt>
      <trkpt lat="48.21242" lon="-3.12946">
        <ele>124.8</ele>
        <time>2021-08-09T14:00:12Z</time>
      </trkpt>
      <trkpt lat="48.2124" lon="-3.1295">
        <ele>124.8</ele>
        <time>2021-08-09T14:00:13Z</time>
      </trkpt>
      <trkpt lat="48.21238" lon="-3.12954">
        <ele>125</ele>
        <time>2021-08-09T14:00:14Z</time>
      </trkpt>
      <trkpt lat="48.21235" lon="-3.12957">
        <ele>125</ele>
        <time>2021-08-09T14:00:15Z</time>
      </trkpt>
      <trkpt lat="48.21233" lon="-3.12961">
        <ele>125</ele>
        <time>2021-08-09T14:00:16Z</time>
      </trkpt>
      <trkpt lat="48.21231" lon="-3.12964">
        <ele>125</ele>
        <time>2021-08-09T14:00:17Z</time>
      </trkpt>
      <trkpt lat="48.2123" lon="-3.12967">
        <ele>125.2</ele>
        <time>2021-08-09T14:00:18Z</time>
      </trkpt>
      <trkpt lat="48.21228" lon="-3.12971">
        <ele>125.2</ele>
        <time>2021-08-09T14:00:19Z</time>
      </trkpt>
      <trkpt lat="48.21226" lon="-3.12974">
        <ele>125.2</ele>
        <time>2021-08-09T14:00:20Z</time>
      </trkpt>
      <trkpt lat="48.21224" lon="-3.12977">
        <ele>125.2</ele>
        <time>2021-08-09T14:00:21Z</time>
      </trkpt>
      <trkpt lat="48.21222" lon="-3.1298">
        <ele>125.2</ele>
        <time>2021-08-09T14:00:22Z</time>
      </trkpt>
      <trkpt lat="48.2122" lon="-3.12983">
        <ele>125.2</ele>
        <time>2021-08-09T14:00:23Z</time>
      </trkpt>
      <trkpt lat="48.21218" lon="-3.12986">
        <ele>125.2</ele>
        <time>2021-08-09T14:00:24Z</time>
      </trkpt>
      <trkpt lat="48.21217" lon="-3.12989">
        <ele>125.4</ele>
        <time>2021-08-09T14:00:25Z</time>
      </trkpt>
      <trkpt lat="48.21215" lon="-3.12992">
        <ele>125.4</ele>
        <time>2021-08-09T14:00:26Z</time>
      </trkpt>
      <trkpt lat="48.21214" lon="-3.12995">
        <ele>125.4</ele>
        <time>2021-08-09T14:00:27Z</time>
      </trkpt>
      <trkpt lat="48.21213" lon="-3.12997">
        <ele>125.4</ele>
        <time>2021-08-09T14:00:28Z</time>
      </trkpt>
      <trkpt lat="48.21212" lon="-3.13">
        <ele>125.8</ele>
        <time>2021-08-09T14:00:29Z</time>
      </trkpt>
      <trkpt lat="48.21211" lon="-3.13002">
        <ele>126</ele>
        <time>2021-08-09T14:00:30Z</time>
      </trkpt>
      <trkpt lat="48.21211" lon="-3.13005">
        <ele>126.2</ele>
        <time>2021-08-09T14:00:31Z</time>
      </trkpt>
      <trkpt lat="48.21212" lon="-3.13006">
        <ele>126.4</ele>
        <time>2021-08-09T14:00:32Z</time>
      </trkpt>
      <trkpt lat="48.21213" lon="-3.13008">
        <ele>126.4</ele>
        <time>2021-08-09T14:00:33Z</time>
      </trkpt>
      <trkpt lat="48.21215" lon="-3.13009">
        <ele>126.4</ele>
        <time>2021-08-09T14:00:34Z</time>
      </trkpt>
      <trkpt lat="48.21216" lon="-3.1301">
        <ele>126.4</ele>
        <time>2021-08-09T14:00:35Z</time>
      </trkpt>
      <trkpt lat="48.21216" lon="-3.13012">
        <ele>126.4</ele>
        <time>2021-08-09T14:00:36Z</time>
      </trkpt>
      <trkpt lat="48.21217" lon="-3.13013">
        <ele>126.4</ele>
        <time>2021-08-09T14:00:37Z</time>
      </trkpt>
      <trkpt lat="48.21217" lon="-3.13014">
        <ele>126.4</ele>
        <time>2021-08-09T14:00:38Z</time>
      </trkpt>
      <trkpt lat="48.21217" lon="-3.13014">
        <ele>126.4</ele>
        <time>2021-08-09T14:00:41Z</time>
      </trkpt>
      <trkpt lat="48.21217" lon="-3.13014">
        <ele>126.4</ele>
        <time>2021-08-09T14:00:42Z</time>
      </trkpt>
      <trkpt lat="48.21217" lon="-3.13014">
        <ele>126.4</ele>
        <time>2021-08-09T14:00:43Z</time>
      </trkpt>
      <trkpt lat="48.21217" lon="-3.13015">
        <ele>126.4</ele>
        <time>2021-08-09T14:00:44Z</time>
      </trkpt>
      <trkpt lat="48.21217" lon="-3.13017">
        <ele>126.2</ele>
        <time>2021-08-09T14:00:56Z</time>
      </trkpt>
      <trkpt lat="48.21217" lon="-3.13017">
        <ele>126.2</ele>
        <time>2021-08-09T14:00:57Z</time>
      </trkpt>
      <trkpt lat="48.21217" lon="-3.13017">
        <ele>126.2</ele>
        <time>2021-08-09T14:00:58Z</time>
      </trkpt>
      <trkpt lat="48.21219" lon="-3.13018">
        <ele>126.2</ele>
        <time>2021-08-09T14:03:39Z</time>
      </trkpt>
      <trkpt lat="48.21219" lon="-3.13019">
        <ele>126.2</ele>
        <time>2021-08-09T14:03:40Z</time>
      </trkpt>
      <trkpt lat="48.21221" lon="-3.13021">
        <ele>126.2</ele>
        <time>2021-08-09T14:03:41Z</time>
      </trkpt>
      <trkpt lat="48.21222" lon="-3.13024">
        <ele>126.2</ele>
        <time>2021-08-09T14:03:42Z</time>
      </trkpt>
      <trkpt lat="48.21224" lon="-3.13025">
        <ele>126.2</ele>
        <time>2021-08-09T14:03:43Z</time>
      </trkpt>
      <trkpt lat="48.21227" lon="-3.13027">
        <ele>126.2</ele>
        <time>2021-08-09T14:03:44Z</time>
      </trkpt>
      <trkpt lat="48.21229" lon="-3.13029">
        <ele>126.2</ele>
        <time>2021-08-09T14:03:45Z</time>
      </trkpt>
      <trkpt lat="48.21231" lon="-3.13032">
        <ele>126</ele>
        <time>2021-08-09T14:03:46Z</time>
      </trkpt>
      <trkpt lat="48.21233" lon="-3.13035">
        <ele>125.8</ele>
        <time>2021-08-09T14:03:47Z</time>
      </trkpt>
      <trkpt lat="48.21235" lon="-3.13038">
        <ele>125.6</ele>
        <time>2021-08-09T14:03:48Z</time>
      </trkpt>
      <trkpt lat="48.21237" lon="-3.13041">
        <ele>125.4</ele>
        <time>2021-08-09T14:03:49Z</time>
      </trkpt>
      <trkpt lat="48.21239" lon="-3.13044">
        <ele>125.4</ele>
        <time>2021-08-09T14:03:50Z</time>
      </trkpt>
      <trkpt lat="48.21241" lon="-3.13047">
        <ele>125.2</ele>
        <time>2021-08-09T14:03:51Z</time>
      </trkpt>
      <trkpt lat="48.21243" lon="-3.1305">
        <ele>125.2</ele>
        <time>2021-08-09T14:03:52Z</time>
      </trkpt>
      <trkpt lat="48.21245" lon="-3.13054">
        <ele>125.2</ele>
        <time>2021-08-09T14:03:53Z</time>
      </trkpt>
      <trkpt lat="48.21247" lon="-3.13057">
        <ele>125.2</ele>
        <time>2021-08-09T14:03:54Z</time>
      </trkpt>
      <trkpt lat="48.21249" lon="-3.13061">
        <ele>125.2</ele>
        <time>2021-08-09T14:03:55Z</time>
      </trkpt>
      <trkpt lat="48.21252" lon="-3.13064">
        <ele>125.2</ele>
        <time>2021-08-09T14:03:56Z</time>
      </trkpt>
      <trkpt lat="48.21254" lon="-3.13068">
        <ele>125.2</ele>
        <time>2021-08-09T14:03:57Z</time>
      </trkpt>
      <trkpt lat="48.21257" lon="-3.13072">
        <ele>125.2</ele>
        <time>2021-08-09T14:03:58Z</time>
      </trkpt>
      <trkpt lat="48.21259" lon="-3.13075">
        <ele>125.2</ele>
        <time>2021-08-09T14:03:59Z</time>
      </trkpt>
      <trkpt lat="48.21262" lon="-3.13078">
        <ele>125.2</ele>
        <time>2021-08-09T14:04:00Z</time>
      </trkpt>
      <trkpt lat="48.21265" lon="-3.13082">
        <ele>125.2</ele>
        <time>2021-08-09T14:04:01Z</time>
      </trkpt>
      <trkpt lat="48.21267" lon="-3.13086">
        <ele>125</ele>
        <time>2021-08-09T14:04:02Z</time>
      </trkpt>
      <trkpt lat="48.2127" lon="-3.13089">
        <ele>125</ele>
        <time>2021-08-09T14:04:03Z</time>
      </trkpt>
      <trkpt lat="48.21273" lon="-3.13093">
        <ele>125</ele>
        <time>2021-08-09T14:04:04Z</time>
      </trkpt>
      <trkpt lat="48.21275" lon="-3.13096">
        <ele>125</ele>
        <time>2021-08-09T14:04:05Z</time>
      </trkpt>
      <trkpt lat="48.21278" lon="-3.13099">
        <ele>125</ele>
        <time>2021-08-09T14:04:06Z</time>
      </trkpt>
      <trkpt lat="48.2128" lon="-3.13102">
        <ele>125</ele>
        <time>2021-08-09T14:04:07Z</time>
      </trkpt>
      <trkpt lat="48.21282" lon="-3.13105">
        <ele>124.8</ele>
        <time>2021-08-09T14:04:08Z</time>
      </trkpt>
      <trkpt lat="48.21284" lon="-3.13109">
        <ele>124.8</ele>
        <time>2021-08-09T14:04:09Z</time>
      </trkpt>
      <trkpt lat="48.21286" lon="-3.13113">
        <ele>124.8</ele>
        <time>2021-08-09T14:04:10Z</time>
      </trkpt>
      <trkpt lat="48.21288" lon="-3.13117">
        <ele>124.8</ele>
        <time>2021-08-09T14:04:11Z</time>
      </trkpt>
      <trkpt lat="48.21291" lon="-3.13121">
        <ele>124.8</ele>
        <time>2021-08-09T14:04:12Z</time>
      </trkpt>
      <trkpt lat="48.21294" lon="-3.13125">
        <ele>124.8</ele>
        <time>2021-08-09T14:04:13Z</time>
      </trkpt>
      <trkpt lat="48.21298" lon="-3.13129">
        <ele>124.6</ele>
        <time>2021-08-09T14:04:14Z</time>
      </trkpt>
      <trkpt lat="48.21302" lon="-3.13133">
        <ele>124.6</ele>
        <time>2021-08-09T14:04:15Z</time>
      </trkpt>
      <trkpt lat="48.21307" lon="-3.13138">
        <ele>124.6</ele>
        <time>2021-08-09T14:04:16Z</time>
      </trkpt>
      <trkpt lat="48.21311" lon="-3.13142">
        <ele>124.6</ele>
        <time>2021-08-09T14:04:17Z</time>
      </trkpt>
      <trkpt lat="48.21316" lon="-3.13147">
        <ele>124.6</ele>
        <time>2021-08-09T14:04:18Z</time>
      </trkpt>
      <trkpt lat="48.2132" lon="-3.13152">
        <ele>124.4</ele>
        <time>2021-08-09T14:04:19Z</time>
      </trkpt>
      <trkpt lat="48.21324" lon="-3.13157">
        <ele>124.4</ele>
        <time>2021-08-09T14:04:20Z</time>
      </trkpt>
      <trkpt lat="48.21327" lon="-3.13163">
        <ele>124</ele>
        <time>2021-08-09T14:04:21Z</time>
      </trkpt>
      <trkpt lat="48.21331" lon="-3.13167">
        <ele>123.8</ele>
        <time>2021-08-09T14:04:22Z</time>
      </trkpt>
      <trkpt lat="48.21335" lon="-3.13173">
        <ele>123.8</ele>
        <time>2021-08-09T14:04:23Z</time>
      </trkpt>
      <trkpt lat="48.21338" lon="-3.13178">
        <ele>123.8</ele>
        <time>2021-08-09T14:04:24Z</time>
      </trkpt>
      <trkpt lat="48.21342" lon="-3.13184">
        <ele>123.6</ele>
        <time>2021-08-09T14:04:25Z</time>
      </trkpt>
      <trkpt lat="48.21345" lon="-3.1319">
        <ele>123.4</ele>
        <time>2021-08-09T14:04:26Z</time>
      </trkpt>
      <trkpt lat="48.21348" lon="-3.13197">
        <ele>123.2</ele>
        <time>2021-08-09T14:04:27Z</time>
      </trkpt>
      <trkpt lat="48.21351" lon="-3.13203">
        <ele>123</ele>
        <time>2021-08-09T14:04:28Z</time>
      </trkpt>
      <trkpt lat="48.21354" lon="-3.1321">
        <ele>123</ele>
        <time>2021-08-09T14:04:29Z</time>
      </trkpt>
      <trkpt lat="48.21356" lon="-3.13218">
        <ele>122.8</ele>
        <time>2021-08-09T14:04:30Z</time>
      </trkpt>
      <trkpt lat="48.21358" lon="-3.13225">
        <ele>122.8</ele>
        <time>2021-08-09T14:04:31Z</time>
      </trkpt>
      <trkpt lat="48.21361" lon="-3.13232">
        <ele>122.8</ele>
        <time>2021-08-09T14:04:32Z</time>
      </trkpt>
      <trkpt lat="48.21363" lon="-3.1324">
        <ele>122.8</ele>
        <time>2021-08-09T14:04:33Z</time>
      </trkpt>
      <trkpt lat="48.21365" lon="-3.13247">
        <ele>122.8</ele>
        <time>2021-08-09T14:04:34Z</time>
      </trkpt>
      <trkpt lat="48.21366" lon="-3.13255">
        <ele>122.8</ele>
        <time>2021-08-09T14:04:35Z</time>
      </trkpt>
      <trkpt lat="48.21367" lon="-3.13262">
        <ele>122.8</ele>
        <time>2021-08-09T14:04:36Z</time>
      </trkpt>
      <trkpt lat="48.21368" lon="-3.1327">
        <ele>122.8</ele>
        <time>2021-08-09T14:04:37Z</time>
      </trkpt>
      <trkpt lat="48.21368" lon="-3.13277">
        <ele>122.8</ele>
        <time>2021-08-09T14:04:38Z</time>
      </trkpt>
      <trkpt lat="48.21368" lon="-3.13285">
        <ele>122.8</ele>
        <time>2021-08-09T14:04:39Z</time>
      </trkpt>
      <trkpt lat="48.21368" lon="-3.13293">
        <ele>122.8</ele>
        <time>2021-08-09T14:04:40Z</time>
      </trkpt>
      <trkpt lat="48.21368" lon="-3.13301">
        <ele>122.8</ele>
        <time>2021-08-09T14:04:41Z</time>
      </trkpt>
      <trkpt lat="48.21368" lon="-3.13308">
        <ele>123</ele>
        <time>2021-08-09T14:04:42Z</time>
      </trkpt>
      <trkpt lat="48.21368" lon="-3.13316">
        <ele>123</ele>
        <time>2021-08-09T14:04:43Z</time>
      </trkpt>
      <trkpt lat="48.21368" lon="-3.13324">
        <ele>123.2</ele>
        <time>2021-08-09T14:04:44Z</time>
      </trkpt>
      <trkpt lat="48.21367" lon="-3.13332">
        <ele>123.2</ele>
        <time>2021-08-09T14:04:45Z</time>
      </trkpt>
      <trkpt lat="48.21367" lon="-3.1334">
        <ele>123.4</ele>
        <time>2021-08-09T14:04:46Z</time>
      </trkpt>
      <trkpt lat="48.21368" lon="-3.13347">
        <ele>123.4</ele>
        <time>2021-08-09T14:04:47Z</time>
      </trkpt>
      <trkpt lat="48.21368" lon="-3.13354">
        <ele>123.6</ele>
        <time>2021-08-09T14:04:48Z</time>
      </trkpt>
      <trkpt lat="48.21369" lon="-3.13362">
        <ele>123.6</ele>
        <time>2021-08-09T14:04:49Z</time>
      </trkpt>
      <trkpt lat="48.21369" lon="-3.13369">
        <ele>123.6</ele>
        <time>2021-08-09T14:04:50Z</time>
      </trkpt>
      <trkpt lat="48.21369" lon="-3.13377">
        <ele>123.6</ele>
        <time>2021-08-09T14:04:51Z</time>
      </trkpt>
      <trkpt lat="48.2137" lon="-3.13383">
        <ele>123.8</ele>
        <time>2021-08-09T14:04:52Z</time>
      </trkpt>
      <trkpt lat="48.21371" lon="-3.1339">
        <ele>123.8</ele>
        <time>2021-08-09T14:04:53Z</time>
      </trkpt>
      <trkpt lat="48.21371" lon="-3.13397">
        <ele>123.8</ele>
        <time>2021-08-09T14:04:54Z</time>
      </trkpt>
      <trkpt lat="48.21372" lon="-3.13404">
        <ele>123.8</ele>
        <time>2021-08-09T14:04:55Z</time>
      </trkpt>
      <trkpt lat="48.21373" lon="-3.13411">
        <ele>123.8</ele>
        <time>2021-08-09T14:04:56Z</time>
      </trkpt>
      <trkpt lat="48.21374" lon="-3.13417">
        <ele>124</ele>
        <time>2021-08-09T14:04:57Z</time>
      </trkpt>
      <trkpt lat="48.21375" lon="-3.13424">
        <ele>124</ele>
        <time>2021-08-09T14:04:58Z</time>
      </trkpt>
      <trkpt lat="48.21377" lon="-3.1343">
        <ele>124</ele>
        <time>2021-08-09T14:04:59Z</time>
      </trkpt>
      <trkpt lat="48.21378" lon="-3.13436">
        <ele>124.2</ele>
        <time>2021-08-09T14:05:00Z</time>
      </trkpt>
      <trkpt lat="48.2138" lon="-3.13441">
        <ele>124.2</ele>
        <time>2021-08-09T14:05:01Z</time>
      </trkpt>
      <trkpt lat="48.21381" lon="-3.13448">
        <ele>124.2</ele>
        <time>2021-08-09T14:05:02Z</time>
      </trkpt>
      <trkpt lat="48.21382" lon="-3.13454">
        <ele>124.2</ele>
        <time>2021-08-09T14:05:03Z</time>
      </trkpt>
      <trkpt lat="48.21383" lon="-3.13461">
        <ele>124.2</ele>
        <time>2021-08-09T14:05:04Z</time>
      </trkpt>
      <trkpt lat="48.21385" lon="-3.13468">
        <ele>124.4</ele>
        <time>2021-08-09T14:05:05Z</time>
      </trkpt>
      <trkpt lat="48.21385" lon="-3.13476">
        <ele>124.2</ele>
        <time>2021-08-09T14:05:06Z</time>
      </trkpt>
      <trkpt lat="48.21386" lon="-3.13483">
        <ele>124.2</ele>
        <time>2021-08-09T14:05:07Z</time>
      </trkpt>
      <trkpt lat="48.21386" lon="-3.13491">
        <ele>124.2</ele>
        <time>2021-08-09T14:05:08Z</time>
      </trkpt>
      <trkpt lat="48.21387" lon="-3.13499">
        <ele>124.4</ele>
        <time>2021-08-09T14:05:09Z</time>
      </trkpt>
      <trkpt lat="48.21387" lon="-3.13507">
        <ele>124.4</ele>
        <time>2021-08-09T14:05:10Z</time>
      </trkpt>
      <trkpt lat="48.21387" lon="-3.13514">
        <ele>124.4</ele>
        <time>2021-08-09T14:05:11Z</time>
      </trkpt>
      <trkpt lat="48.21387" lon="-3.13523">
        <ele>124.4</ele>
        <time>2021-08-09T14:05:12Z</time>
      </trkpt>
      <trkpt lat="48.21387" lon="-3.1353">
        <ele>124.4</ele>
        <time>2021-08-09T14:05:13Z</time>
      </trkpt>
      <trkpt lat="48.21388" lon="-3.13538">
        <ele>124.4</ele>
        <time>2021-08-09T14:05:14Z</time>
      </trkpt>
      <trkpt lat="48.21389" lon="-3.13546">
        <ele>124.6</ele>
        <time>2021-08-09T14:05:15Z</time>
      </trkpt>
      <trkpt lat="48.2139" lon="-3.13555">
        <ele>124.6</ele>
        <time>2021-08-09T14:05:16Z</time>
      </trkpt>
      <trkpt lat="48.21391" lon="-3.13563">
        <ele>124.6</ele>
        <time>2021-08-09T14:05:17Z</time>
      </trkpt>
      <trkpt lat="48.21392" lon="-3.13571">
        <ele>124.6</ele>
        <time>2021-08-09T14:05:18Z</time>
      </trkpt>
      <trkpt lat="48.21393" lon="-3.1358">
        <ele>124.6</ele>
        <time>2021-08-09T14:05:19Z</time>
      </trkpt>
      <trkpt lat="48.21394" lon="-3.13588">
        <ele>124.6</ele>
        <time>2021-08-09T14:05:20Z</time>
      </trkpt>
      <trkpt lat="48.21395" lon="-3.13596">
        <ele>124.6</ele>
        <time>2021-08-09T14:05:21Z</time>
      </trkpt>
      <trkpt lat="48.21396" lon="-3.13605">
        <ele>124.6</ele>
        <time>2021-08-09T14:05:22Z</time>
      </trkpt>
      <trkpt lat="48.21397" lon="-3.13613">
        <ele>124.6</ele>
        <time>2021-08-09T14:05:23Z</time>
      </trkpt>
      <trkpt lat="48.21398" lon="-3.13622">
        <ele>124.4</ele>
        <time>2021-08-09T14:05:24Z</time>
      </trkpt>
      <trkpt lat="48.21399" lon="-3.1363">
        <ele>124.4</ele>
        <time>2021-08-09T14:05:25Z</time>
      </trkpt>
      <trkpt lat="48.214" lon="-3.13639">
        <ele>124.4</ele>
        <time>2021-08-09T14:05:26Z</time>
      </trkpt>
      <trkpt lat="48.214" lon="-3.13648">
        <ele>124.4</ele>
        <time>2021-08-09T14:05:27Z</time>
      </trkpt>
      <trkpt lat="48.21401" lon="-3.13658">
        <ele>124.4</ele>
        <time>2021-08-09T14:05:28Z</time>
      </trkpt>
      <trkpt lat="48.21403" lon="-3.13667">
        <ele>124.2</ele>
        <time>2021-08-09T14:05:29Z</time>
      </trkpt>
      <trkpt lat="48.21404" lon="-3.13676">
        <ele>124.2</ele>
        <time>2021-08-09T14:05:30Z</time>
      </trkpt>
      <trkpt lat="48.21407" lon="-3.13685">
        <ele>124.2</ele>
        <time>2021-08-09T14:05:31Z</time>
      </trkpt>
      <trkpt lat="48.21409" lon="-3.13694">
        <ele>124.2</ele>
        <time>2021-08-09T14:05:32Z</time>
      </trkpt>
      <trkpt lat="48.21411" lon="-3.13703">
        <ele>124.2</ele>
        <time>2021-08-09T14:05:33Z</time>
      </trkpt>
      <trkpt lat="48.21414" lon="-3.13711">
        <ele>124</ele>
        <time>2021-08-09T14:05:34Z</time>
      </trkpt>
      <trkpt lat="48.21417" lon="-3.1372">
        <ele>123.8</ele>
        <time>2021-08-09T14:05:35Z</time>
      </trkpt>
      <trkpt lat="48.2142" lon="-3.13729">
        <ele>123.8</ele>
        <time>2021-08-09T14:05:36Z</time>
      </trkpt>
      <trkpt lat="48.21423" lon="-3.13738">
        <ele>123.8</ele>
        <time>2021-08-09T14:05:37Z</time>
      </trkpt>
      <trkpt lat="48.21425" lon="-3.13747">
        <ele>123.8</ele>
        <time>2021-08-09T14:05:38Z</time>
      </trkpt>
      <trkpt lat="48.21428" lon="-3.13756">
        <ele>123.6</ele>
        <time>2021-08-09T14:05:39Z</time>
      </trkpt>
      <trkpt lat="48.2143" lon="-3.13766">
        <ele>123.6</ele>
        <time>2021-08-09T14:05:40Z</time>
      </trkpt>
      <trkpt lat="48.21431" lon="-3.13775">
        <ele>123.6</ele>
        <time>2021-08-09T14:05:41Z</time>
      </trkpt>
      <trkpt lat="48.21433" lon="-3.13784">
        <ele>123.4</ele>
        <time>2021-08-09T14:05:42Z</time>
      </trkpt>
      <trkpt lat="48.21434" lon="-3.13793">
        <ele>123.4</ele>
        <time>2021-08-09T14:05:43Z</time>
      </trkpt>
      <trkpt lat="48.21435" lon="-3.13803">
        <ele>123.4</ele>
        <time>2021-08-09T14:05:44Z</time>
      </trkpt>
      <trkpt lat="48.21436" lon="-3.13812">
        <ele>123.4</ele>
        <time>2021-08-09T14:05:45Z</time>
      </trkpt>
      <trkpt lat="48.21437" lon="-3.1382">
        <ele>123.4</ele>
        <time>2021-08-09T14:05:46Z</time>
      </trkpt>
      <trkpt lat="48.21437" lon="-3.13829">
        <ele>123.2</ele>
        <time>2021-08-09T14:05:47Z</time>
      </trkpt>
      <trkpt lat="48.21437" lon="-3.13838">
        <ele>123.4</ele>
        <time>2021-08-09T14:05:48Z</time>
      </trkpt>
      <trkpt lat="48.21438" lon="-3.13846">
        <ele>123.4</ele>
        <time>2021-08-09T14:05:49Z</time>
      </trkpt>
      <trkpt lat="48.21438" lon="-3.13855">
        <ele>123.4</ele>
        <time>2021-08-09T14:05:50Z</time>
      </trkpt>
      <trkpt lat="48.21438" lon="-3.13864">
        <ele>123.4</ele>
        <time>2021-08-09T14:05:51Z</time>
      </trkpt>
      <trkpt lat="48.21438" lon="-3.13872">
        <ele>123.4</ele>
        <time>2021-08-09T14:05:52Z</time>
      </trkpt>
      <trkpt lat="48.21438" lon="-3.13881">
        <ele>123.4</ele>
        <time>2021-08-09T14:05:53Z</time>
      </trkpt>
      <trkpt lat="48.21438" lon="-3.13889">
        <ele>123.4</ele>
        <time>2021-08-09T14:05:54Z</time>
      </trkpt>
      <trkpt lat="48.21438" lon="-3.13897">
        <ele>123.4</ele>
        <time>2021-08-09T14:05:55Z</time>
      </trkpt>
      <trkpt lat="48.21438" lon="-3.13906">
        <ele>123.4</ele>
        <time>2021-08-09T14:05:56Z</time>
      </trkpt>
      <trkpt lat="48.21438" lon="-3.13914">
        <ele>123.2</ele>
        <time>2021-08-09T14:05:57Z</time>
      </trkpt>
      <trkpt lat="48.21438" lon="-3.13922">
        <ele>123.4</ele>
        <time>2021-08-09T14:05:58Z</time>
      </trkpt>
      <trkpt lat="48.21438" lon="-3.1393">
        <ele>123.6</ele>
        <time>2021-08-09T14:05:59Z</time>
      </trkpt>
      <trkpt lat="48.21438" lon="-3.13939">
        <ele>123.6</ele>
        <time>2021-08-09T14:06:00Z</time>
      </trkpt>
      <trkpt lat="48.21438" lon="-3.13947">
        <ele>123.6</ele>
        <time>2021-08-09T14:06:01Z</time>
      </trkpt>
      <trkpt lat="48.21438" lon="-3.13956">
        <ele>123.6</ele>
        <time>2021-08-09T14:06:02Z</time>
      </trkpt>
      <trkpt lat="48.21439" lon="-3.13965">
        <ele>123.6</ele>
        <time>2021-08-09T14:06:03Z</time>
      </trkpt>
      <trkpt lat="48.21439" lon="-3.13973">
        <ele>123.8</ele>
        <time>2021-08-09T14:06:04Z</time>
      </trkpt>
      <trkpt lat="48.2144" lon="-3.13982">
        <ele>123.8</ele>
        <time>2021-08-09T14:06:05Z</time>
      </trkpt>
      <trkpt lat="48.2144" lon="-3.13991">
        <ele>124</ele>
        <time>2021-08-09T14:06:06Z</time>
      </trkpt>
      <trkpt lat="48.21441" lon="-3.13999">
        <ele>124</ele>
        <time>2021-08-09T14:06:07Z</time>
      </trkpt>
      <trkpt lat="48.21442" lon="-3.14008">
        <ele>124.2</ele>
        <time>2021-08-09T14:06:08Z</time>
      </trkpt>
      <trkpt lat="48.21442" lon="-3.14016">
        <ele>124.2</ele>
        <time>2021-08-09T14:06:09Z</time>
      </trkpt>
      <trkpt lat="48.21443" lon="-3.14025">
        <ele>124.2</ele>
        <time>2021-08-09T14:06:10Z</time>
      </trkpt>
      <trkpt lat="48.21444" lon="-3.14033">
        <ele>124.2</ele>
        <time>2021-08-09T14:06:11Z</time>
      </trkpt>
      <trkpt lat="48.21444" lon="-3.14042">
        <ele>124.2</ele>
        <time>2021-08-09T14:06:12Z</time>
      </trkpt>
      <trkpt lat="48.21445" lon="-3.14051">
        <ele>124.2</ele>
        <time>2021-08-09T14:06:13Z</time>
      </trkpt>
      <trkpt lat="48.21446" lon="-3.14059">
        <ele>124.2</ele>
        <time>2021-08-09T14:06:14Z</time>
      </trkpt>
      <trkpt lat="48.21447" lon="-3.14067">
        <ele>124.4</ele>
        <time>2021-08-09T14:06:15Z</time>
      </trkpt>
      <trkpt lat="48.21448" lon="-3.14076">
        <ele>124.4</ele>
        <time>2021-08-09T14:06:16Z</time>
      </trkpt>
      <trkpt lat="48.21449" lon="-3.14084">
        <ele>124.4</ele>
        <time>2021-08-09T14:06:17Z</time>
      </trkpt>
      <trkpt lat="48.21449" lon="-3.14092">
        <ele>124.4</ele>
        <time>2021-08-09T14:06:18Z</time>
      </trkpt>
      <trkpt lat="48.21449" lon="-3.14101">
        <ele>124.4</ele>
        <time>2021-08-09T14:06:19Z</time>
      </trkpt>
      <trkpt lat="48.21449" lon="-3.14109">
        <ele>124.4</ele>
        <time>2021-08-09T14:06:20Z</time>
      </trkpt>
      <trkpt lat="48.21449" lon="-3.14117">
        <ele>124.4</ele>
        <time>2021-08-09T14:06:21Z</time>
      </trkpt>
      <trkpt lat="48.21448" lon="-3.14125">
        <ele>124.4</ele>
        <time>2021-08-09T14:06:22Z</time>
      </trkpt>
      <trkpt lat="48.21447" lon="-3.14134">
        <ele>124.4</ele>
        <time>2021-08-09T14:06:23Z</time>
      </trkpt>
      <trkpt lat="48.21446" lon="-3.14142">
        <ele>124.4</ele>
        <time>2021-08-09T14:06:24Z</time>
      </trkpt>
      <trkpt lat="48.21444" lon="-3.1415">
        <ele>124.4</ele>
        <time>2021-08-09T14:06:25Z</time>
      </trkpt>
      <trkpt lat="48.21443" lon="-3.14158">
        <ele>124.4</ele>
        <time>2021-08-09T14:06:26Z</time>
      </trkpt>
      <trkpt lat="48.21442" lon="-3.14166">
        <ele>124.2</ele>
        <time>2021-08-09T14:06:27Z</time>
      </trkpt>
      <trkpt lat="48.21441" lon="-3.14174">
        <ele>124.2</ele>
        <time>2021-08-09T14:06:28Z</time>
      </trkpt>
      <trkpt lat="48.2144" lon="-3.14183">
        <ele>124.2</ele>
        <time>2021-08-09T14:06:29Z</time>
      </trkpt>
      <trkpt lat="48.21439" lon="-3.14191">
        <ele>124.2</ele>
        <time>2021-08-09T14:06:30Z</time>
      </trkpt>
      <trkpt lat="48.21439" lon="-3.14199">
        <ele>124.2</ele>
        <time>2021-08-09T14:06:31Z</time>
      </trkpt>
      <trkpt lat="48.2144" lon="-3.14207">
        <ele>124.2</ele>
        <time>2021-08-09T14:06:32Z</time>
      </trkpt>
      <trkpt lat="48.21441" lon="-3.14216">
        <ele>124.2</ele>
        <time>2021-08-09T14:06:33Z</time>
      </trkpt>
      <trkpt lat="48.21442" lon="-3.14224">
        <ele>124.2</ele>
        <time>2021-08-09T14:06:34Z</time>
      </trkpt>
      <trkpt lat="48.21444" lon="-3.14232">
        <ele>124.2</ele>
        <time>2021-08-09T14:06:35Z</time>
      </trkpt>
      <trkpt lat="48.21445" lon="-3.1424">
        <ele>124.2</ele>
        <time>2021-08-09T14:06:36Z</time>
      </trkpt>
      <trkpt lat="48.21447" lon="-3.14248">
        <ele>124.2</ele>
        <time>2021-08-09T14:06:37Z</time>
      </trkpt>
      <trkpt lat="48.21449" lon="-3.14256">
        <ele>124.2</ele>
        <time>2021-08-09T14:06:38Z</time>
      </trkpt>
      <trkpt lat="48.21451" lon="-3.14264">
        <ele>124.2</ele>
        <time>2021-08-09T14:06:39Z</time>
      </trkpt>
      <trkpt lat="48.21453" lon="-3.14272">
        <ele>124.2</ele>
        <time>2021-08-09T14:06:40Z</time>
      </trkpt>
      <trkpt lat="48.21454" lon="-3.1428">
        <ele>124.2</ele>
        <time>2021-08-09T14:06:41Z</time>
      </trkpt>
      <trkpt lat="48.21456" lon="-3.14288">
        <ele>124</ele>
        <time>2021-08-09T14:06:42Z</time>
      </trkpt>
      <trkpt lat="48.21457" lon="-3.14297">
        <ele>124</ele>
        <time>2021-08-09T14:06:43Z</time>
      </trkpt>
      <trkpt lat="48.21457" lon="-3.14305">
        <ele>124</ele>
        <time>2021-08-09T14:06:44Z</time>
      </trkpt>
      <trkpt lat="48.21458" lon="-3.14313">
        <ele>124</ele>
        <time>2021-08-09T14:06:45Z</time>
      </trkpt>
      <trkpt lat="48.21457" lon="-3.14321">
        <ele>124</ele>
        <time>2021-08-09T14:06:46Z</time>
      </trkpt>
      <trkpt lat="48.21457" lon="-3.14329">
        <ele>124</ele>
        <time>2021-08-09T14:06:47Z</time>
      </trkpt>
      <trkpt lat="48.21456" lon="-3.14337">
        <ele>123.8</ele>
        <time>2021-08-09T14:06:48Z</time>
      </trkpt>
      <trkpt lat="48.21454" lon="-3.14345">
        <ele>123.8</ele>
        <time>2021-08-09T14:06:49Z</time>
      </trkpt>
      <trkpt lat="48.21453" lon="-3.14354">
        <ele>123.8</ele>
        <time>2021-08-09T14:06:50Z</time>
      </trkpt>
      <trkpt lat="48.21451" lon="-3.14362">
        <ele>123.6</ele>
        <time>2021-08-09T14:06:51Z</time>
      </trkpt>
      <trkpt lat="48.2145" lon="-3.1437">
        <ele>123.6</ele>
        <time>2021-08-09T14:06:52Z</time>
      </trkpt>
      <trkpt lat="48.21449" lon="-3.14379">
        <ele>123.4</ele>
        <time>2021-08-09T14:06:53Z</time>
      </trkpt>
      <trkpt lat="48.21447" lon="-3.14388">
        <ele>123.4</ele>
        <time>2021-08-09T14:06:54Z</time>
      </trkpt>
      <trkpt lat="48.21446" lon="-3.14396">
        <ele>123.4</ele>
        <time>2021-08-09T14:06:55Z</time>
      </trkpt>
      <trkpt lat="48.21444" lon="-3.14405">
        <ele>123.4</ele>
        <time>2021-08-09T14:06:56Z</time>
      </trkpt>
      <trkpt lat="48.21443" lon="-3.14413">
        <ele>123.4</ele>
        <time>2021-08-09T14:06:57Z</time>
      </trkpt>
      <trkpt lat="48.21441" lon="-3.14422">
        <ele>123.2</ele>
        <time>2021-08-09T14:06:58Z</time>
      </trkpt>
      <trkpt lat="48.2144" lon="-3.1443">
        <ele>123.2</ele>
        <time>2021-08-09T14:06:59Z</time>
      </trkpt>
      <trkpt lat="48.21438" lon="-3.14438">
        <ele>123.2</ele>
        <time>2021-08-09T14:07:00Z</time>
      </trkpt>
      <trkpt lat="48.21437" lon="-3.14447">
        <ele>123.2</ele>
        <time>2021-08-09T14:07:01Z</time>
      </trkpt>
      <trkpt lat="48.21436" lon="-3.14456">
        <ele>123.2</ele>
        <time>2021-08-09T14:07:02Z</time>
      </trkpt>
      <trkpt lat="48.21434" lon="-3.14465">
        <ele>123.4</ele>
        <time>2021-08-09T14:07:03Z</time>
      </trkpt>
      <trkpt lat="48.21433" lon="-3.14474">
        <ele>123.4</ele>
        <time>2021-08-09T14:07:04Z</time>
      </trkpt>
      <trkpt lat="48.21431" lon="-3.14482">
        <ele>123.4</ele>
        <time>2021-08-09T14:07:05Z</time>
      </trkpt>
      <trkpt lat="48.2143" lon="-3.14491">
        <ele>123.4</ele>
        <time>2021-08-09T14:07:06Z</time>
      </trkpt>
      <trkpt lat="48.21428" lon="-3.145">
        <ele>123.4</ele>
        <time>2021-08-09T14:07:07Z</time>
      </trkpt>
      <trkpt lat="48.21427" lon="-3.14508">
        <ele>123.6</ele>
        <time>2021-08-09T14:07:08Z</time>
      </trkpt>
      <trkpt lat="48.21425" lon="-3.14517">
        <ele>123.8</ele>
        <time>2021-08-09T14:07:09Z</time>
      </trkpt>
      <trkpt lat="48.21423" lon="-3.14526">
        <ele>124.2</ele>
        <time>2021-08-09T14:07:10Z</time>
      </trkpt>
      <trkpt lat="48.21421" lon="-3.14534">
        <ele>124.2</ele>
        <time>2021-08-09T14:07:11Z</time>
      </trkpt>
      <trkpt lat="48.21419" lon="-3.14543">
        <ele>124.4</ele>
        <time>2021-08-09T14:07:12Z</time>
      </trkpt>
      <trkpt lat="48.21417" lon="-3.14551">
        <ele>124.4</ele>
        <time>2021-08-09T14:07:13Z</time>
      </trkpt>
      <trkpt lat="48.21415" lon="-3.1456">
        <ele>124.4</ele>
        <time>2021-08-09T14:07:14Z</time>
      </trkpt>
      <trkpt lat="48.21413" lon="-3.14569">
        <ele>124.6</ele>
        <time>2021-08-09T14:07:15Z</time>
      </trkpt>
      <trkpt lat="48.21412" lon="-3.14577">
        <ele>124.6</ele>
        <time>2021-08-09T14:07:16Z</time>
      </trkpt>
      <trkpt lat="48.2141" lon="-3.14586">
        <ele>124.6</ele>
        <time>2021-08-09T14:07:17Z</time>
      </trkpt>
      <trkpt lat="48.21408" lon="-3.14595">
        <ele>124.6</ele>
        <time>2021-08-09T14:07:18Z</time>
      </trkpt>
      <trkpt lat="48.21407" lon="-3.14604">
        <ele>124.6</ele>
        <time>2021-08-09T14:07:19Z</time>
      </trkpt>
      <trkpt lat="48.21406" lon="-3.14613">
        <ele>124.6</ele>
        <time>2021-08-09T14:07:20Z</time>
      </trkpt>
      <trkpt lat="48.21405" lon="-3.14622">
        <ele>124.6</ele>
        <time>2021-08-09T14:07:21Z</time>
      </trkpt>
      <trkpt lat="48.21403" lon="-3.14631">
        <ele>124.6</ele>
        <time>2021-08-09T14:07:22Z</time>
      </trkpt>
      <trkpt lat="48.21402" lon="-3.1464">
        <ele>124.6</ele>
        <time>2021-08-09T14:07:23Z</time>
      </trkpt>
      <trkpt lat="48.21401" lon="-3.14649">
        <ele>124.6</ele>
        <time>2021-08-09T14:07:24Z</time>
      </trkpt>
      <trkpt lat="48.214" lon="-3.14657">
        <ele>124.6</ele>
        <time>2021-08-09T14:07:25Z</time>
      </trkpt>
      <trkpt lat="48.214" lon="-3.14666">
        <ele>124.6</ele>
        <time>2021-08-09T14:07:26Z</time>
      </trkpt>
      <trkpt lat="48.21399" lon="-3.14675">
        <ele>124.6</ele>
        <time>2021-08-09T14:07:27Z</time>
      </trkpt>
      <trkpt lat="48.21398" lon="-3.14684">
        <ele>124.6</ele>
        <time>2021-08-09T14:07:28Z</time>
      </trkpt>
      <trkpt lat="48.21396" lon="-3.14692">
        <ele>124.6</ele>
        <time>2021-08-09T14:07:29Z</time>
      </trkpt>
      <trkpt lat="48.21395" lon="-3.147">
        <ele>124.6</ele>
        <time>2021-08-09T14:07:30Z</time>
      </trkpt>
      <trkpt lat="48.21394" lon="-3.14707">
        <ele>124.6</ele>
        <time>2021-08-09T14:07:31Z</time>
      </trkpt>
      <trkpt lat="48.21393" lon="-3.14714">
        <ele>124.6</ele>
        <time>2021-08-09T14:07:32Z</time>
      </trkpt>
      <trkpt lat="48.21391" lon="-3.14721">
        <ele>124.6</ele>
        <time>2021-08-09T14:07:33Z</time>
      </trkpt>
      <trkpt lat="48.2139" lon="-3.14728">
        <ele>124.6</ele>
        <time>2021-08-09T14:07:34Z</time>
      </trkpt>
      <trkpt lat="48.21388" lon="-3.14735">
        <ele>124.6</ele>
        <time>2021-08-09T14:07:35Z</time>
      </trkpt>
      <trkpt lat="48.21387" lon="-3.14742">
        <ele>124.6</ele>
        <time>2021-08-09T14:07:36Z</time>
      </trkpt>
      <trkpt lat="48.21385" lon="-3.14748">
        <ele>124.6</ele>
        <time>2021-08-09T14:07:37Z</time>
      </trkpt>
      <trkpt lat="48.21384" lon="-3.14755">
        <ele>124.6</ele>
        <time>2021-08-09T14:07:38Z</time>
      </trkpt>
      <trkpt lat="48.21383" lon="-3.14761">
        <ele>124.6</ele>
        <time>2021-08-09T14:07:39Z</time>
      </trkpt>
      <trkpt lat="48.21381" lon="-3.14767">
        <ele>124.6</ele>
        <time>2021-08-09T14:07:40Z</time>
      </trkpt>
      <trkpt lat="48.2138" lon="-3.14773">
        <ele>124.6</ele>
        <time>2021-08-09T14:07:41Z</time>
      </trkpt>
      <trkpt lat="48.21378" lon="-3.14779">
        <ele>124.6</ele>
        <time>2021-08-09T14:07:42Z</time>
      </trkpt>
      <trkpt lat="48.21376" lon="-3.14785">
        <ele>124.6</ele>
        <time>2021-08-09T14:07:43Z</time>
      </trkpt>
      <trkpt lat="48.21375" lon="-3.14791">
        <ele>124.6</ele>
        <time>2021-08-09T14:07:44Z</time>
      </trkpt>
      <trkpt lat="48.21373" lon="-3.14797">
        <ele>124.6</ele>
        <time>2021-08-09T14:07:45Z</time>
      </trkpt>
      <trkpt lat="48.21371" lon="-3.14803">
        <ele>124.6</ele>
        <time>2021-08-09T14:07:46Z</time>
      </trkpt>
      <trkpt lat="48.2137" lon="-3.14809">
        <ele>124.6</ele>
        <time>2021-08-09T14:07:47Z</time>
      </trkpt>
      <trkpt lat="48.21368" lon="-3.14815">
        <ele>124.6</ele>
        <time>2021-08-09T14:07:48Z</time>
      </trkpt>
      <trkpt lat="48.21366" lon="-3.14821">
        <ele>124.6</ele>
        <time>2021-08-09T14:07:49Z</time>
      </trkpt>
      <trkpt lat="48.21364" lon="-3.14827">
        <ele>124.6</ele>
        <time>2021-08-09T14:07:50Z</time>
      </trkpt>
      <trkpt lat="48.21362" lon="-3.14833">
        <ele>124.6</ele>
        <time>2021-08-09T14:07:51Z</time>
      </trkpt>
      <trkpt lat="48.2136" lon="-3.14838">
        <ele>124.6</ele>
        <time>2021-08-09T14:07:52Z</time>
      </trkpt>
      <trkpt lat="48.21359" lon="-3.14844">
        <ele>124.6</ele>
        <time>2021-08-09T14:07:53Z</time>
      </trkpt>
      <trkpt lat="48.21357" lon="-3.1485">
        <ele>124.6</ele>
        <time>2021-08-09T14:07:54Z</time>
      </trkpt>
      <trkpt lat="48.21355" lon="-3.14856">
        <ele>124.6</ele>
        <time>2021-08-09T14:07:55Z</time>
      </trkpt>
      <trkpt lat="48.21353" lon="-3.14862">
        <ele>124.8</ele>
        <time>2021-08-09T14:07:56Z</time>
      </trkpt>
      <trkpt lat="48.21351" lon="-3.14868">
        <ele>124.6</ele>
        <time>2021-08-09T14:07:57Z</time>
      </trkpt>
      <trkpt lat="48.2135" lon="-3.14873">
        <ele>124.6</ele>
        <time>2021-08-09T14:07:58Z</time>
      </trkpt>
      <trkpt lat="48.21348" lon="-3.14879">
        <ele>124.6</ele>
        <time>2021-08-09T14:07:59Z</time>
      </trkpt>
      <trkpt lat="48.21346" lon="-3.14884">
        <ele>124.8</ele>
        <time>2021-08-09T14:08:00Z</time>
      </trkpt>
      <trkpt lat="48.21345" lon="-3.1489">
        <ele>124.6</ele>
        <time>2021-08-09T14:08:01Z</time>
      </trkpt>
      <trkpt lat="48.21343" lon="-3.14896">
        <ele>124.6</ele>
        <time>2021-08-09T14:08:02Z</time>
      </trkpt>
      <trkpt lat="48.21341" lon="-3.14902">
        <ele>124.6</ele>
        <time>2021-08-09T14:08:03Z</time>
      </trkpt>
      <trkpt lat="48.21339" lon="-3.14908">
        <ele>124.6</ele>
        <time>2021-08-09T14:08:04Z</time>
      </trkpt>
      <trkpt lat="48.21337" lon="-3.14914">
        <ele>124.6</ele>
        <time>2021-08-09T14:08:05Z</time>
      </trkpt>
      <trkpt lat="48.21336" lon="-3.1492">
        <ele>124.6</ele>
        <time>2021-08-09T14:08:06Z</time>
      </trkpt>
      <trkpt lat="48.21334" lon="-3.14926">
        <ele>124.6</ele>
        <time>2021-08-09T14:08:07Z</time>
      </trkpt>
      <trkpt lat="48.21332" lon="-3.14932">
        <ele>124.8</ele>
        <time>2021-08-09T14:08:08Z</time>
      </trkpt>
      <trkpt lat="48.21331" lon="-3.14938">
        <ele>124.8</ele>
        <time>2021-08-09T14:08:09Z</time>
      </trkpt>
      <trkpt lat="48.21329" lon="-3.14944">
        <ele>124.8</ele>
        <time>2021-08-09T14:08:10Z</time>
      </trkpt>
      <trkpt lat="48.21328" lon="-3.1495">
        <ele>124.8</ele>
        <time>2021-08-09T14:08:11Z</time>
      </trkpt>
      <trkpt lat="48.21327" lon="-3.14957">
        <ele>124.8</ele>
        <time>2021-08-09T14:08:12Z</time>
      </trkpt>
      <trkpt lat="48.21326" lon="-3.14963">
        <ele>124.8</ele>
        <time>2021-08-09T14:08:13Z</time>
      </trkpt>
      <trkpt lat="48.21325" lon="-3.1497">
        <ele>124.8</ele>
        <time>2021-08-09T14:08:14Z</time>
      </trkpt>
      <trkpt lat="48.21325" lon="-3.14977">
        <ele>124.8</ele>
        <time>2021-08-09T14:08:15Z</time>
      </trkpt>
      <trkpt lat="48.21324" lon="-3.14984">
        <ele>124.8</ele>
        <time>2021-08-09T14:08:16Z</time>
      </trkpt>
      <trkpt lat="48.21324" lon="-3.14992">
        <ele>124.8</ele>
        <time>2021-08-09T14:08:17Z</time>
      </trkpt>
      <trkpt lat="48.21323" lon="-3.14998">
        <ele>124.8</ele>
        <time>2021-08-09T14:08:18Z</time>
      </trkpt>
      <trkpt lat="48.21323" lon="-3.15005">
        <ele>124.8</ele>
        <time>2021-08-09T14:08:19Z</time>
      </trkpt>
      <trkpt lat="48.21322" lon="-3.15012">
        <ele>124.8</ele>
        <time>2021-08-09T14:08:20Z</time>
      </trkpt>
      <trkpt lat="48.21321" lon="-3.15019">
        <ele>124.8</ele>
        <time>2021-08-09T14:08:21Z</time>
      </trkpt>
      <trkpt lat="48.21321" lon="-3.15026">
        <ele>124.8</ele>
        <time>2021-08-09T14:08:22Z</time>
      </trkpt>
      <trkpt lat="48.2132" lon="-3.15032">
        <ele>125</ele>
        <time>2021-08-09T14:08:23Z</time>
      </trkpt>
      <trkpt lat="48.21319" lon="-3.15039">
        <ele>125</ele>
        <time>2021-08-09T14:08:24Z</time>
      </trkpt>
      <trkpt lat="48.21319" lon="-3.15045">
        <ele>125</ele>
        <time>2021-08-09T14:08:25Z</time>
      </trkpt>
      <trkpt lat="48.21318" lon="-3.15051">
        <ele>125</ele>
        <time>2021-08-09T14:08:26Z</time>
      </trkpt>
      <trkpt lat="48.21317" lon="-3.15057">
        <ele>125</ele>
        <time>2021-08-09T14:08:27Z</time>
      </trkpt>
      <trkpt lat="48.21315" lon="-3.15063">
        <ele>125</ele>
        <time>2021-08-09T14:08:28Z</time>
      </trkpt>
      <trkpt lat="48.21314" lon="-3.15068">
        <ele>125</ele>
        <time>2021-08-09T14:08:29Z</time>
      </trkpt>
      <trkpt lat="48.21313" lon="-3.15074">
        <ele>125</ele>
        <time>2021-08-09T14:08:30Z</time>
      </trkpt>
      <trkpt lat="48.21311" lon="-3.1508">
        <ele>125</ele>
        <time>2021-08-09T14:08:31Z</time>
      </trkpt>
      <trkpt lat="48.2131" lon="-3.15086">
        <ele>125</ele>
        <time>2021-08-09T14:08:32Z</time>
      </trkpt>
      <trkpt lat="48.21308" lon="-3.15091">
        <ele>125</ele>
        <time>2021-08-09T14:08:33Z</time>
      </trkpt>
      <trkpt lat="48.21306" lon="-3.15097">
        <ele>125</ele>
        <time>2021-08-09T14:08:34Z</time>
      </trkpt>
      <trkpt lat="48.21304" lon="-3.15102">
        <ele>125</ele>
        <time>2021-08-09T14:08:35Z</time>
      </trkpt>
      <trkpt lat="48.21302" lon="-3.15107">
        <ele>125</ele>
        <time>2021-08-09T14:08:36Z</time>
      </trkpt>
      <trkpt lat="48.213" lon="-3.15113">
        <ele>125</ele>
        <time>2021-08-09T14:08:37Z</time>
      </trkpt>
      <trkpt lat="48.21297" lon="-3.15118">
        <ele>125</ele>
        <time>2021-08-09T14:08:38Z</time>
      </trkpt>
      <trkpt lat="48.21295" lon="-3.15123">
        <ele>125</ele>
        <time>2021-08-09T14:08:39Z</time>
      </trkpt>
      <trkpt lat="48.21292" lon="-3.15128">
        <ele>125</ele>
        <time>2021-08-09T14:08:40Z</time>
      </trkpt>
      <trkpt lat="48.2129" lon="-3.15133">
        <ele>125</ele>
        <time>2021-08-09T14:08:41Z</time>
      </trkpt>
      <trkpt lat="48.21288" lon="-3.15139">
        <ele>125</ele>
        <time>2021-08-09T14:08:42Z</time>
      </trkpt>
      <trkpt lat="48.21285" lon="-3.15144">
        <ele>125</ele>
        <time>2021-08-09T14:08:43Z</time>
      </trkpt>
      <trkpt lat="48.21283" lon="-3.15149">
        <ele>125</ele>
        <time>2021-08-09T14:08:44Z</time>
      </trkpt>
      <trkpt lat="48.21281" lon="-3.15154">
        <ele>125</ele>
        <time>2021-08-09T14:08:45Z</time>
      </trkpt>
      <trkpt lat="48.21279" lon="-3.15159">
        <ele>125</ele>
        <time>2021-08-09T14:08:46Z</time>
      </trkpt>
      <trkpt lat="48.21277" lon="-3.15164">
        <ele>125</ele>
        <time>2021-08-09T14:08:47Z</time>
      </trkpt>
      <trkpt lat="48.21275" lon="-3.15169">
        <ele>125</ele>
        <time>2021-08-09T14:08:48Z</time>
      </trkpt>
      <trkpt lat="48.21273" lon="-3.15173">
        <ele>124.8</ele>
        <time>2021-08-09T14:08:49Z</time>
      </trkpt>
      <trkpt lat="48.21271" lon="-3.15177">
        <ele>124.8</ele>
        <time>2021-08-09T14:08:50Z</time>
      </trkpt>
      <trkpt lat="48.21268" lon="-3.15181">
        <ele>125</ele>
        <time>2021-08-09T14:08:51Z</time>
      </trkpt>
      <trkpt lat="48.21266" lon="-3.15186">
        <ele>125</ele>
        <time>2021-08-09T14:08:52Z</time>
      </trkpt>
      <trkpt lat="48.21263" lon="-3.1519">
        <ele>125</ele>
        <time>2021-08-09T14:08:53Z</time>
      </trkpt>
      <trkpt lat="48.21261" lon="-3.15195">
        <ele>125</ele>
        <time>2021-08-09T14:08:54Z</time>
      </trkpt>
      <trkpt lat="48.21259" lon="-3.152">
        <ele>125</ele>
        <time>2021-08-09T14:08:55Z</time>
      </trkpt>
      <trkpt lat="48.21256" lon="-3.15205">
        <ele>125</ele>
        <time>2021-08-09T14:08:56Z</time>
      </trkpt>
      <trkpt lat="48.21253" lon="-3.15209">
        <ele>125</ele>
        <time>2021-08-09T14:08:57Z</time>
      </trkpt>
      <trkpt lat="48.21251" lon="-3.15214">
        <ele>125.2</ele>
        <time>2021-08-09T14:08:58Z</time>
      </trkpt>
      <trkpt lat="48.21249" lon="-3.15219">
        <ele>125.2</ele>
        <time>2021-08-09T14:08:59Z</time>
      </trkpt>
      <trkpt lat="48.21246" lon="-3.15223">
        <ele>125.4</ele>
        <time>2021-08-09T14:09:00Z</time>
      </trkpt>
      <trkpt lat="48.21244" lon="-3.15228">
        <ele>125.4</ele>
        <time>2021-08-09T14:09:01Z</time>
      </trkpt>
      <trkpt lat="48.21241" lon="-3.15233">
        <ele>125.6</ele>
        <time>2021-08-09T14:09:02Z</time>
      </trkpt>
      <trkpt lat="48.21239" lon="-3.15238">
        <ele>125.8</ele>
        <time>2021-08-09T14:09:03Z</time>
      </trkpt>
      <trkpt lat="48.21236" lon="-3.15242">
        <ele>126</ele>
        <time>2021-08-09T14:09:04Z</time>
      </trkpt>
      <trkpt lat="48.21234" lon="-3.15247">
        <ele>126</ele>
        <time>2021-08-09T14:09:05Z</time>
      </trkpt>
      <trkpt lat="48.21231" lon="-3.15252">
        <ele>126.2</ele>
        <time>2021-08-09T14:09:06Z</time>
      </trkpt>
      <trkpt lat="48.21228" lon="-3.15257">
        <ele>126.2</ele>
        <time>2021-08-09T14:09:07Z</time>
      </trkpt>
      <trkpt lat="48.21225" lon="-3.15262">
        <ele>126.2</ele>
        <time>2021-08-09T14:09:08Z</time>
      </trkpt>
      <trkpt lat="48.21223" lon="-3.15267">
        <ele>126.4</ele>
        <time>2021-08-09T14:09:09Z</time>
      </trkpt>
      <trkpt lat="48.2122" lon="-3.15272">
        <ele>126.4</ele>
        <time>2021-08-09T14:09:10Z</time>
      </trkpt>
      <trkpt lat="48.21218" lon="-3.15278">
        <ele>126.4</ele>
        <time>2021-08-09T14:09:11Z</time>
      </trkpt>
      <trkpt lat="48.21215" lon="-3.15283">
        <ele>126.4</ele>
        <time>2021-08-09T14:09:12Z</time>
      </trkpt>
      <trkpt lat="48.21213" lon="-3.15288">
        <ele>126.4</ele>
        <time>2021-08-09T14:09:13Z</time>
      </trkpt>
      <trkpt lat="48.21211" lon="-3.15293">
        <ele>126.4</ele>
        <time>2021-08-09T14:09:14Z</time>
      </trkpt>
      <trkpt lat="48.21209" lon="-3.15298">
        <ele>126.4</ele>
        <time>2021-08-09T14:09:15Z</time>
      </trkpt>
      <trkpt lat="48.21207" lon="-3.15304">
        <ele>126.4</ele>
        <time>2021-08-09T14:09:16Z</time>
      </trkpt>
      <trkpt lat="48.21205" lon="-3.15309">
        <ele>126.4</ele>
        <time>2021-08-09T14:09:17Z</time>
      </trkpt>
      <trkpt lat="48.21204" lon="-3.15315">
        <ele>126.4</ele>
        <time>2021-08-09T14:09:18Z</time>
      </trkpt>
      <trkpt lat="48.21203" lon="-3.15321">
        <ele>126.4</ele>
        <time>2021-08-09T14:09:19Z</time>
      </trkpt>
      <trkpt lat="48.21201" lon="-3.15328">
        <ele>126.6</ele>
        <time>2021-08-09T14:09:20Z</time>
      </trkpt>
      <trkpt lat="48.212" lon="-3.15334">
        <ele>126.6</ele>
        <time>2021-08-09T14:09:21Z</time>
      </trkpt>
      <trkpt lat="48.21199" lon="-3.1534">
        <ele>126.6</ele>
        <time>2021-08-09T14:09:22Z</time>
      </trkpt>
      <trkpt lat="48.21199" lon="-3.15346">
        <ele>126.6</ele>
        <time>2021-08-09T14:09:23Z</time>
      </trkpt>
      <trkpt lat="48.21198" lon="-3.15353">
        <ele>126.6</ele>
        <time>2021-08-09T14:09:24Z</time>
      </trkpt>
      <trkpt lat="48.21198" lon="-3.15359">
        <ele>126.6</ele>
        <time>2021-08-09T14:09:25Z</time>
      </trkpt>
      <trkpt lat="48.21197" lon="-3.15366">
        <ele>126.6</ele>
        <time>2021-08-09T14:09:26Z</time>
      </trkpt>
      <trkpt lat="48.21196" lon="-3.15374">
        <ele>126.6</ele>
        <time>2021-08-09T14:09:27Z</time>
      </trkpt>
      <trkpt lat="48.21195" lon="-3.15382">
        <ele>126.6</ele>
        <time>2021-08-09T14:09:28Z</time>
      </trkpt>
      <trkpt lat="48.21195" lon="-3.15389">
        <ele>126.6</ele>
        <time>2021-08-09T14:09:29Z</time>
      </trkpt>
      <trkpt lat="48.21195" lon="-3.15397">
        <ele>126.6</ele>
        <time>2021-08-09T14:09:30Z</time>
      </trkpt>
      <trkpt lat="48.21195" lon="-3.15404">
        <ele>126.6</ele>
        <time>2021-08-09T14:09:31Z</time>
      </trkpt>
      <trkpt lat="48.21195" lon="-3.15411">
        <ele>126.6</ele>
        <time>2021-08-09T14:09:32Z</time>
      </trkpt>
      <trkpt lat="48.21195" lon="-3.15418">
        <ele>126.6</ele>
        <time>2021-08-09T14:09:33Z</time>
      </trkpt>
      <trkpt lat="48.21194" lon="-3.15426">
        <ele>126.6</ele>
        <time>2021-08-09T14:09:34Z</time>
      </trkpt>
      <trkpt lat="48.21194" lon="-3.15433">
        <ele>126.6</ele>
        <time>2021-08-09T14:09:35Z</time>
      </trkpt>
      <trkpt lat="48.21193" lon="-3.1544">
        <ele>126.6</ele>
        <time>2021-08-09T14:09:36Z</time>
      </trkpt>
      <trkpt lat="48.21194" lon="-3.15448">
        <ele>126.4</ele>
        <time>2021-08-09T14:09:37Z</time>
      </trkpt>
      <trkpt lat="48.21194" lon="-3.15455">
        <ele>126.4</ele>
        <time>2021-08-09T14:09:38Z</time>
      </trkpt>
      <trkpt lat="48.21195" lon="-3.15462">
        <ele>126.4</ele>
        <time>2021-08-09T14:09:39Z</time>
      </trkpt>
      <trkpt lat="48.21195" lon="-3.15468">
        <ele>126.4</ele>
        <time>2021-08-09T14:09:40Z</time>
      </trkpt>
      <trkpt lat="48.21195" lon="-3.15475">
        <ele>126.6</ele>
        <time>2021-08-09T14:09:41Z</time>
      </trkpt>
      <trkpt lat="48.21196" lon="-3.15482">
        <ele>126.6</ele>
        <time>2021-08-09T14:09:42Z</time>
      </trkpt>
      <trkpt lat="48.21196" lon="-3.15488">
        <ele>126.6</ele>
        <time>2021-08-09T14:09:43Z</time>
      </trkpt>
      <trkpt lat="48.21197" lon="-3.15495">
        <ele>126.6</ele>
        <time>2021-08-09T14:09:44Z</time>
      </trkpt>
      <trkpt lat="48.21197" lon="-3.15501">
        <ele>126.6</ele>
        <time>2021-08-09T14:09:45Z</time>
      </trkpt>
      <trkpt lat="48.21197" lon="-3.15506">
        <ele>126.6</ele>
        <time>2021-08-09T14:09:46Z</time>
      </trkpt>
      <trkpt lat="48.21198" lon="-3.15512">
        <ele>126.8</ele>
        <time>2021-08-09T14:09:47Z</time>
      </trkpt>
      <trkpt lat="48.21198" lon="-3.15517">
        <ele>127</ele>
        <time>2021-08-09T14:09:48Z</time>
      </trkpt>
      <trkpt lat="48.21199" lon="-3.15522">
        <ele>127.2</ele>
        <time>2021-08-09T14:09:49Z</time>
      </trkpt>
      <trkpt lat="48.212" lon="-3.15526">
        <ele>127.4</ele>
        <time>2021-08-09T14:09:50Z</time>
      </trkpt>
      <trkpt lat="48.21201" lon="-3.1553">
        <ele>127.6</ele>
        <time>2021-08-09T14:09:51Z</time>
      </trkpt>
      <trkpt lat="48.21202" lon="-3.15535">
        <ele>127.6</ele>
        <time>2021-08-09T14:09:52Z</time>
      </trkpt>
      <trkpt lat="48.21202" lon="-3.15539">
        <ele>127.6</ele>
        <time>2021-08-09T14:09:53Z</time>
      </trkpt>
      <trkpt lat="48.21203" lon="-3.15544">
        <ele>127.8</ele>
        <time>2021-08-09T14:09:54Z</time>
      </trkpt>
      <trkpt lat="48.21204" lon="-3.15549">
        <ele>127.8</ele>
        <time>2021-08-09T14:09:55Z</time>
      </trkpt>
      <trkpt lat="48.21205" lon="-3.15553">
        <ele>127.8</ele>
        <time>2021-08-09T14:09:56Z</time>
      </trkpt>
      <trkpt lat="48.21206" lon="-3.15558">
        <ele>127.8</ele>
        <time>2021-08-09T14:09:57Z</time>
      </trkpt>
      <trkpt lat="48.21206" lon="-3.15562">
        <ele>127.8</ele>
        <time>2021-08-09T14:09:58Z</time>
      </trkpt>
      <trkpt lat="48.21207" lon="-3.15567">
        <ele>127.8</ele>
        <time>2021-08-09T14:09:59Z</time>
      </trkpt>
      <trkpt lat="48.21208" lon="-3.15572">
        <ele>127.8</ele>
        <time>2021-08-09T14:10:00Z</time>
      </trkpt>
      <trkpt lat="48.21209" lon="-3.15577">
        <ele>127.8</ele>
        <time>2021-08-09T14:10:01Z</time>
      </trkpt>
      <trkpt lat="48.2121" lon="-3.15582">
        <ele>127.8</ele>
        <time>2021-08-09T14:10:02Z</time>
      </trkpt>
      <trkpt lat="48.21211" lon="-3.15587">
        <ele>127.8</ele>
        <time>2021-08-09T14:10:03Z</time>
      </trkpt>
      <trkpt lat="48.21212" lon="-3.15593">
        <ele>128</ele>
        <time>2021-08-09T14:10:04Z</time>
      </trkpt>
      <trkpt lat="48.21213" lon="-3.15598">
        <ele>128</ele>
        <time>2021-08-09T14:10:05Z</time>
      </trkpt>
      <trkpt lat="48.21214" lon="-3.15604">
        <ele>128</ele>
        <time>2021-08-09T14:10:06Z</time>
      </trkpt>
      <trkpt lat="48.21215" lon="-3.1561">
        <ele>128</ele>
        <time>2021-08-09T14:10:07Z</time>
      </trkpt>
      <trkpt lat="48.21216" lon="-3.15617">
        <ele>128</ele>
        <time>2021-08-09T14:10:08Z</time>
      </trkpt>
      <trkpt lat="48.21217" lon="-3.15623">
        <ele>127.8</ele>
        <time>2021-08-09T14:10:09Z</time>
      </trkpt>
      <trkpt lat="48.21217" lon="-3.1563">
        <ele>127.8</ele>
        <time>2021-08-09T14:10:10Z</time>
      </trkpt>
      <trkpt lat="48.21218" lon="-3.15637">
        <ele>127.8</ele>
        <time>2021-08-09T14:10:11Z</time>
      </trkpt>
      <trkpt lat="48.21219" lon="-3.15645">
        <ele>127.8</ele>
        <time>2021-08-09T14:10:12Z</time>
      </trkpt>
      <trkpt lat="48.2122" lon="-3.15652">
        <ele>127.8</ele>
        <time>2021-08-09T14:10:13Z</time>
      </trkpt>
      <trkpt lat="48.21221" lon="-3.15659">
        <ele>127.8</ele>
        <time>2021-08-09T14:10:14Z</time>
      </trkpt>
      <trkpt lat="48.21222" lon="-3.15666">
        <ele>127.8</ele>
        <time>2021-08-09T14:10:15Z</time>
      </trkpt>
      <trkpt lat="48.21224" lon="-3.15674">
        <ele>127.8</ele>
        <time>2021-08-09T14:10:16Z</time>
      </trkpt>
      <trkpt lat="48.21225" lon="-3.15681">
        <ele>127.8</ele>
        <time>2021-08-09T14:10:17Z</time>
      </trkpt>
      <trkpt lat="48.21227" lon="-3.15688">
        <ele>127.8</ele>
        <time>2021-08-09T14:10:18Z</time>
      </trkpt>
      <trkpt lat="48.21228" lon="-3.15694">
        <ele>127.8</ele>
        <time>2021-08-09T14:10:19Z</time>
      </trkpt>
      <trkpt lat="48.2123" lon="-3.15701">
        <ele>127.8</ele>
        <time>2021-08-09T14:10:20Z</time>
      </trkpt>
      <trkpt lat="48.21231" lon="-3.15708">
        <ele>127.8</ele>
        <time>2021-08-09T14:10:21Z</time>
      </trkpt>
      <trkpt lat="48.21233" lon="-3.15716">
        <ele>127.8</ele>
        <time>2021-08-09T14:10:22Z</time>
      </trkpt>
      <trkpt lat="48.21235" lon="-3.15724">
        <ele>127.8</ele>
        <time>2021-08-09T14:10:23Z</time>
      </trkpt>
      <trkpt lat="48.21238" lon="-3.15732">
        <ele>127.8</ele>
        <time>2021-08-09T14:10:24Z</time>
      </trkpt>
      <trkpt lat="48.21242" lon="-3.1574">
        <ele>127.6</ele>
        <time>2021-08-09T14:10:25Z</time>
      </trkpt>
      <trkpt lat="48.21244" lon="-3.15747">
        <ele>127.6</ele>
        <time>2021-08-09T14:10:26Z</time>
      </trkpt>
      <trkpt lat="48.21247" lon="-3.15755">
        <ele>127.6</ele>
        <time>2021-08-09T14:10:27Z</time>
      </trkpt>
      <trkpt lat="48.21251" lon="-3.15761">
        <ele>127.6</ele>
        <time>2021-08-09T14:10:28Z</time>
      </trkpt>
      <trkpt lat="48.21254" lon="-3.15767">
        <ele>127.6</ele>
        <time>2021-08-09T14:10:29Z</time>
      </trkpt>
      <trkpt lat="48.21257" lon="-3.15774">
        <ele>127.6</ele>
        <time>2021-08-09T14:10:30Z</time>
      </trkpt>
      <trkpt lat="48.2126" lon="-3.1578">
        <ele>127.6</ele>
        <time>2021-08-09T14:10:31Z</time>
      </trkpt>
      <trkpt lat="48.21264" lon="-3.15786">
        <ele>127.6</ele>
        <time>2021-08-09T14:10:32Z</time>
      </trkpt>
      <trkpt lat="48.21267" lon="-3.15792">
        <ele>127.6</ele>
        <time>2021-08-09T14:10:33Z</time>
      </trkpt>
      <trkpt lat="48.21271" lon="-3.15798">
        <ele>127.4</ele>
        <time>2021-08-09T14:10:34Z</time>
      </trkpt>
      <trkpt lat="48.21275" lon="-3.15805">
        <ele>127.4</ele>
        <time>2021-08-09T14:10:35Z</time>
      </trkpt>
      <trkpt lat="48.2128" lon="-3.1581">
        <ele>127.4</ele>
        <time>2021-08-09T14:10:36Z</time>
      </trkpt>
      <trkpt lat="48.21284" lon="-3.15815">
        <ele>127.4</ele>
        <time>2021-08-09T14:10:37Z</time>
      </trkpt>
      <trkpt lat="48.21289" lon="-3.15821">
        <ele>127.2</ele>
        <time>2021-08-09T14:10:38Z</time>
      </trkpt>
      <trkpt lat="48.21293" lon="-3.15826">
        <ele>127.2</ele>
        <time>2021-08-09T14:10:39Z</time>
      </trkpt>
      <trkpt lat="48.21298" lon="-3.15831">
        <ele>127.2</ele>
        <time>2021-08-09T14:10:40Z</time>
      </trkpt>
      <trkpt lat="48.21302" lon="-3.15836">
        <ele>127.2</ele>
        <time>2021-08-09T14:10:41Z</time>
      </trkpt>
      <trkpt lat="48.21307" lon="-3.15841">
        <ele>127.2</ele>
        <time>2021-08-09T14:10:42Z</time>
      </trkpt>
      <trkpt lat="48.21311" lon="-3.15845">
        <ele>127.2</ele>
        <time>2021-08-09T14:10:43Z</time>
      </trkpt>
      <trkpt lat="48.21315" lon="-3.15849">
        <ele>127</ele>
        <time>2021-08-09T14:10:44Z</time>
      </trkpt>
      <trkpt lat="48.21319" lon="-3.15853">
        <ele>127</ele>
        <time>2021-08-09T14:10:45Z</time>
      </trkpt>
      <trkpt lat="48.21324" lon="-3.15857">
        <ele>127</ele>
        <time>2021-08-09T14:10:46Z</time>
      </trkpt>
      <trkpt lat="48.21329" lon="-3.1586">
        <ele>127</ele>
        <time>2021-08-09T14:10:47Z</time>
      </trkpt>
      <trkpt lat="48.21333" lon="-3.15864">
        <ele>127</ele>
        <time>2021-08-09T14:10:48Z</time>
      </trkpt>
      <trkpt lat="48.21337" lon="-3.15868">
        <ele>126.8</ele>
        <time>2021-08-09T14:10:49Z</time>
      </trkpt>
      <trkpt lat="48.21341" lon="-3.15872">
        <ele>126.8</ele>
        <time>2021-08-09T14:10:50Z</time>
      </trkpt>
      <trkpt lat="48.21345" lon="-3.15876">
        <ele>126.8</ele>
        <time>2021-08-09T14:10:51Z</time>
      </trkpt>
      <trkpt lat="48.21349" lon="-3.1588">
        <ele>126.8</ele>
        <time>2021-08-09T14:10:52Z</time>
      </trkpt>
      <trkpt lat="48.21353" lon="-3.15884">
        <ele>126.8</ele>
        <time>2021-08-09T14:10:53Z</time>
      </trkpt>
      <trkpt lat="48.21357" lon="-3.15888">
        <ele>126.8</ele>
        <time>2021-08-09T14:10:54Z</time>
      </trkpt>
      <trkpt lat="48.21361" lon="-3.15892">
        <ele>126.6</ele>
        <time>2021-08-09T14:10:55Z</time>
      </trkpt>
      <trkpt lat="48.21364" lon="-3.15897">
        <ele>126.6</ele>
        <time>2021-08-09T14:10:56Z</time>
      </trkpt>
      <trkpt lat="48.21367" lon="-3.15902">
        <ele>126.6</ele>
        <time>2021-08-09T14:10:57Z</time>
      </trkpt>
      <trkpt lat="48.21371" lon="-3.15907">
        <ele>126.8</ele>
        <time>2021-08-09T14:10:58Z</time>
      </trkpt>
      <trkpt lat="48.21375" lon="-3.15912">
        <ele>126.8</ele>
        <time>2021-08-09T14:10:59Z</time>
      </trkpt>
      <trkpt lat="48.21378" lon="-3.15916">
        <ele>126.8</ele>
        <time>2021-08-09T14:11:00Z</time>
      </trkpt>
      <trkpt lat="48.21381" lon="-3.15921">
        <ele>126.8</ele>
        <time>2021-08-09T14:11:01Z</time>
      </trkpt>
      <trkpt lat="48.21384" lon="-3.15925">
        <ele>126.8</ele>
        <time>2021-08-09T14:11:02Z</time>
      </trkpt>
      <trkpt lat="48.21387" lon="-3.1593">
        <ele>126.8</ele>
        <time>2021-08-09T14:11:03Z</time>
      </trkpt>
      <trkpt lat="48.2139" lon="-3.15935">
        <ele>126.8</ele>
        <time>2021-08-09T14:11:04Z</time>
      </trkpt>
      <trkpt lat="48.21394" lon="-3.1594">
        <ele>126.8</ele>
        <time>2021-08-09T14:11:05Z</time>
      </trkpt>
      <trkpt lat="48.21398" lon="-3.15945">
        <ele>126.8</ele>
        <time>2021-08-09T14:11:06Z</time>
      </trkpt>
      <trkpt lat="48.21401" lon="-3.15949">
        <ele>126.8</ele>
        <time>2021-08-09T14:11:07Z</time>
      </trkpt>
      <trkpt lat="48.21406" lon="-3.15954">
        <ele>126.8</ele>
        <time>2021-08-09T14:11:08Z</time>
      </trkpt>
      <trkpt lat="48.21409" lon="-3.15958">
        <ele>126.8</ele>
        <time>2021-08-09T14:11:09Z</time>
      </trkpt>
      <trkpt lat="48.21413" lon="-3.15963">
        <ele>127</ele>
        <time>2021-08-09T14:11:10Z</time>
      </trkpt>
      <trkpt lat="48.21417" lon="-3.15968">
        <ele>127</ele>
        <time>2021-08-09T14:11:11Z</time>
      </trkpt>
      <trkpt lat="48.21422" lon="-3.15973">
        <ele>127</ele>
        <time>2021-08-09T14:11:12Z</time>
      </trkpt>
      <trkpt lat="48.21426" lon="-3.15978">
        <ele>127</ele>
        <time>2021-08-09T14:11:13Z</time>
      </trkpt>
      <trkpt lat="48.21429" lon="-3.15982">
        <ele>127</ele>
        <time>2021-08-09T14:11:14Z</time>
      </trkpt>
      <trkpt lat="48.21434" lon="-3.15987">
        <ele>127</ele>
        <time>2021-08-09T14:11:15Z</time>
      </trkpt>
      <trkpt lat="48.21438" lon="-3.15991">
        <ele>127</ele>
        <time>2021-08-09T14:11:16Z</time>
      </trkpt>
      <trkpt lat="48.21442" lon="-3.15996">
        <ele>127.2</ele>
        <time>2021-08-09T14:11:17Z</time>
      </trkpt>
      <trkpt lat="48.21446" lon="-3.16001">
        <ele>127.2</ele>
        <time>2021-08-09T14:11:18Z</time>
      </trkpt>
      <trkpt lat="48.2145" lon="-3.16006">
        <ele>127.2</ele>
        <time>2021-08-09T14:11:19Z</time>
      </trkpt>
      <trkpt lat="48.21454" lon="-3.16011">
        <ele>127.2</ele>
        <time>2021-08-09T14:11:20Z</time>
      </trkpt>
      <trkpt lat="48.21458" lon="-3.16016">
        <ele>127.2</ele>
        <time>2021-08-09T14:11:21Z</time>
      </trkpt>
      <trkpt lat="48.21461" lon="-3.1602">
        <ele>127.2</ele>
        <time>2021-08-09T14:11:22Z</time>
      </trkpt>
      <trkpt lat="48.21465" lon="-3.16024">
        <ele>127.2</ele>
        <time>2021-08-09T14:11:23Z</time>
      </trkpt>
      <trkpt lat="48.21468" lon="-3.16028">
        <ele>127.2</ele>
        <time>2021-08-09T14:11:24Z</time>
      </trkpt>
      <trkpt lat="48.21472" lon="-3.16032">
        <ele>127</ele>
        <time>2021-08-09T14:11:25Z</time>
      </trkpt>
      <trkpt lat="48.21476" lon="-3.16036">
        <ele>127</ele>
        <time>2021-08-09T14:11:26Z</time>
      </trkpt>
      <trkpt lat="48.2148" lon="-3.1604">
        <ele>127</ele>
        <time>2021-08-09T14:11:27Z</time>
      </trkpt>
      <trkpt lat="48.21484" lon="-3.16043">
        <ele>127</ele>
        <time>2021-08-09T14:11:28Z</time>
      </trkpt>
      <trkpt lat="48.21488" lon="-3.16047">
        <ele>127</ele>
        <time>2021-08-09T14:11:29Z</time>
      </trkpt>
      <trkpt lat="48.21491" lon="-3.1605">
        <ele>127</ele>
        <time>2021-08-09T14:11:30Z</time>
      </trkpt>
      <trkpt lat="48.21495" lon="-3.16053">
        <ele>127</ele>
        <time>2021-08-09T14:11:31Z</time>
      </trkpt>
      <trkpt lat="48.21498" lon="-3.16056">
        <ele>127</ele>
        <time>2021-08-09T14:11:32Z</time>
      </trkpt>
      <trkpt lat="48.21502" lon="-3.16059">
        <ele>127</ele>
        <time>2021-08-09T14:11:33Z</time>
      </trkpt>
      <trkpt lat="48.21505" lon="-3.16062">
        <ele>127</ele>
        <time>2021-08-09T14:11:34Z</time>
      </trkpt>
      <trkpt lat="48.21508" lon="-3.16064">
        <ele>127</ele>
        <time>2021-08-09T14:11:35Z</time>
      </trkpt>
      <trkpt lat="48.21511" lon="-3.16066">
        <ele>127</ele>
        <time>2021-08-09T14:11:36Z</time>
      </trkpt>
      <trkpt lat="48.21514" lon="-3.16069">
        <ele>127.2</ele>
        <time>2021-08-09T14:11:37Z</time>
      </trkpt>
      <trkpt lat="48.21519" lon="-3.16072">
        <ele>127.2</ele>
        <time>2021-08-09T14:11:38Z</time>
      </trkpt>
      <trkpt lat="48.21524" lon="-3.16075">
        <ele>127.2</ele>
        <time>2021-08-09T14:11:39Z</time>
      </trkpt>
      <trkpt lat="48.21529" lon="-3.16078">
        <ele>127.4</ele>
        <time>2021-08-09T14:11:40Z</time>
      </trkpt>
      <trkpt lat="48.21535" lon="-3.16085">
        <ele>127.4</ele>
        <time>2021-08-09T14:11:42Z</time>
      </trkpt>
      <trkpt lat="48.21539" lon="-3.16088">
        <ele>127.4</ele>
        <time>2021-08-09T14:11:43Z</time>
      </trkpt>
      <trkpt lat="48.21543" lon="-3.16091">
        <ele>127.4</ele>
        <time>2021-08-09T14:11:44Z</time>
      </trkpt>
      <trkpt lat="48.21547" lon="-3.16093">
        <ele>127.4</ele>
        <time>2021-08-09T14:11:45Z</time>
      </trkpt>
      <trkpt lat="48.2155" lon="-3.16095">
        <ele>127.4</ele>
        <time>2021-08-09T14:11:46Z</time>
      </trkpt>
      <trkpt lat="48.21555" lon="-3.16096">
        <ele>127.6</ele>
        <time>2021-08-09T14:11:47Z</time>
      </trkpt>
      <trkpt lat="48.2156" lon="-3.16097">
        <ele>127.6</ele>
        <time>2021-08-09T14:11:48Z</time>
      </trkpt>
      <trkpt lat="48.21565" lon="-3.16098">
        <ele>127.6</ele>
        <time>2021-08-09T14:11:49Z</time>
      </trkpt>
      <trkpt lat="48.2157" lon="-3.16099">
        <ele>127.6</ele>
        <time>2021-08-09T14:11:50Z</time>
      </trkpt>
      <trkpt lat="48.21575" lon="-3.161">
        <ele>127.6</ele>
        <time>2021-08-09T14:11:51Z</time>
      </trkpt>
      <trkpt lat="48.2158" lon="-3.161">
        <ele>127.6</ele>
        <time>2021-08-09T14:11:52Z</time>
      </trkpt>
      <trkpt lat="48.21585" lon="-3.16101">
        <ele>127.4</ele>
        <time>2021-08-09T14:11:53Z</time>
      </trkpt>
      <trkpt lat="48.2159" lon="-3.16102">
        <ele>127.4</ele>
        <time>2021-08-09T14:11:54Z</time>
      </trkpt>
      <trkpt lat="48.21595" lon="-3.16102">
        <ele>127.4</ele>
        <time>2021-08-09T14:11:55Z</time>
      </trkpt>
      <trkpt lat="48.216" lon="-3.16102">
        <ele>127.4</ele>
        <time>2021-08-09T14:11:56Z</time>
      </trkpt>
      <trkpt lat="48.21605" lon="-3.16101">
        <ele>127.4</ele>
        <time>2021-08-09T14:11:57Z</time>
      </trkpt>
      <trkpt lat="48.2161" lon="-3.16101">
        <ele>127.4</ele>
        <time>2021-08-09T14:11:58Z</time>
      </trkpt>
      <trkpt lat="48.21616" lon="-3.161">
        <ele>127.4</ele>
        <time>2021-08-09T14:11:59Z</time>
      </trkpt>
      <trkpt lat="48.21622" lon="-3.16099">
        <ele>127.4</ele>
        <time>2021-08-09T14:12:00Z</time>
      </trkpt>
      <trkpt lat="48.21628" lon="-3.16098">
        <ele>127.4</ele>
        <time>2021-08-09T14:12:01Z</time>
      </trkpt>
      <trkpt lat="48.21634" lon="-3.16098">
        <ele>127.4</ele>
        <time>2021-08-09T14:12:02Z</time>
      </trkpt>
      <trkpt lat="48.2164" lon="-3.16097">
        <ele>127.4</ele>
        <time>2021-08-09T14:12:03Z</time>
      </trkpt>
      <trkpt lat="48.21645" lon="-3.16096">
        <ele>127.2</ele>
        <time>2021-08-09T14:12:04Z</time>
      </trkpt>
      <trkpt lat="48.21651" lon="-3.16095">
        <ele>127.2</ele>
        <time>2021-08-09T14:12:05Z</time>
      </trkpt>
      <trkpt lat="48.21656" lon="-3.16094">
        <ele>127.2</ele>
        <time>2021-08-09T14:12:06Z</time>
      </trkpt>
      <trkpt lat="48.21661" lon="-3.16092">
        <ele>127.2</ele>
        <time>2021-08-09T14:12:07Z</time>
      </trkpt>
      <trkpt lat="48.21667" lon="-3.1609">
        <ele>127.2</ele>
        <time>2021-08-09T14:12:08Z</time>
      </trkpt>
      <trkpt lat="48.21673" lon="-3.16089">
        <ele>127.2</ele>
        <time>2021-08-09T14:12:09Z</time>
      </trkpt>
      <trkpt lat="48.21679" lon="-3.16087">
        <ele>127.2</ele>
        <time>2021-08-09T14:12:10Z</time>
      </trkpt>
      <trkpt lat="48.21684" lon="-3.16084">
        <ele>127</ele>
        <time>2021-08-09T14:12:11Z</time>
      </trkpt>
      <trkpt lat="48.2169" lon="-3.16082">
        <ele>127.2</ele>
        <time>2021-08-09T14:12:12Z</time>
      </trkpt>
      <trkpt lat="48.21695" lon="-3.16079">
        <ele>127.2</ele>
        <time>2021-08-09T14:12:13Z</time>
      </trkpt>
      <trkpt lat="48.21699" lon="-3.16077">
        <ele>127.2</ele>
        <time>2021-08-09T14:12:14Z</time>
      </trkpt>
      <trkpt lat="48.21704" lon="-3.16075">
        <ele>127</ele>
        <time>2021-08-09T14:12:15Z</time>
      </trkpt>
      <trkpt lat="48.2171" lon="-3.16073">
        <ele>127</ele>
        <time>2021-08-09T14:12:16Z</time>
      </trkpt>
      <trkpt lat="48.21715" lon="-3.1607">
        <ele>127</ele>
        <time>2021-08-09T14:12:17Z</time>
      </trkpt>
      <trkpt lat="48.2172" lon="-3.16068">
        <ele>127.2</ele>
        <time>2021-08-09T14:12:18Z</time>
      </trkpt>
      <trkpt lat="48.21725" lon="-3.16065">
        <ele>127.2</ele>
        <time>2021-08-09T14:12:19Z</time>
      </trkpt>
      <trkpt lat="48.2173" lon="-3.16063">
        <ele>127.2</ele>
        <time>2021-08-09T14:12:20Z</time>
      </trkpt>
      <trkpt lat="48.21735" lon="-3.1606">
        <ele>127.4</ele>
        <time>2021-08-09T14:12:21Z</time>
      </trkpt>
      <trkpt lat="48.2174" lon="-3.16058">
        <ele>127.4</ele>
        <time>2021-08-09T14:12:22Z</time>
      </trkpt>
      <trkpt lat="48.21745" lon="-3.16056">
        <ele>127.2</ele>
        <time>2021-08-09T14:12:23Z</time>
      </trkpt>
      <trkpt lat="48.2175" lon="-3.16053">
        <ele>127.2</ele>
        <time>2021-08-09T14:12:24Z</time>
      </trkpt>
      <trkpt lat="48.21755" lon="-3.16051">
        <ele>127.2</ele>
        <time>2021-08-09T14:12:25Z</time>
      </trkpt>
      <trkpt lat="48.2176" lon="-3.16049">
        <ele>127.2</ele>
        <time>2021-08-09T14:12:26Z</time>
      </trkpt>
      <trkpt lat="48.21765" lon="-3.16047">
        <ele>127.2</ele>
        <time>2021-08-09T14:12:27Z</time>
      </trkpt>
      <trkpt lat="48.2177" lon="-3.16044">
        <ele>127.2</ele>
        <time>2021-08-09T14:12:28Z</time>
      </trkpt>
      <trkpt lat="48.21775" lon="-3.16042">
        <ele>127.2</ele>
        <time>2021-08-09T14:12:29Z</time>
      </trkpt>
      <trkpt lat="48.2178" lon="-3.16039">
        <ele>127.2</ele>
        <time>2021-08-09T14:12:30Z</time>
      </trkpt>
      <trkpt lat="48.21785" lon="-3.16037">
        <ele>127.2</ele>
        <time>2021-08-09T14:12:31Z</time>
      </trkpt>
      <trkpt lat="48.2179" lon="-3.16035">
        <ele>127.4</ele>
        <time>2021-08-09T14:12:32Z</time>
      </trkpt>
      <trkpt lat="48.21795" lon="-3.16032">
        <ele>127.4</ele>
        <time>2021-08-09T14:12:33Z</time>
      </trkpt>
      <trkpt lat="48.218" lon="-3.1603">
        <ele>127.4</ele>
        <time>2021-08-09T14:12:34Z</time>
      </trkpt>
      <trkpt lat="48.21805" lon="-3.16028">
        <ele>127.6</ele>
        <time>2021-08-09T14:12:35Z</time>
      </trkpt>
      <trkpt lat="48.2181" lon="-3.16027">
        <ele>127.6</ele>
        <time>2021-08-09T14:12:36Z</time>
      </trkpt>
      <trkpt lat="48.21815" lon="-3.16026">
        <ele>127.6</ele>
        <time>2021-08-09T14:12:37Z</time>
      </trkpt>
      <trkpt lat="48.2182" lon="-3.16025">
        <ele>127.6</ele>
        <time>2021-08-09T14:12:38Z</time>
      </trkpt>
      <trkpt lat="48.21825" lon="-3.16025">
        <ele>127.6</ele>
        <time>2021-08-09T14:12:39Z</time>
      </trkpt>
      <trkpt lat="48.2183" lon="-3.16025">
        <ele>127.8</ele>
        <time>2021-08-09T14:12:40Z</time>
      </trkpt>
      <trkpt lat="48.21834" lon="-3.16025">
        <ele>127.8</ele>
        <time>2021-08-09T14:12:41Z</time>
      </trkpt>
      <trkpt lat="48.21839" lon="-3.16025">
        <ele>127.8</ele>
        <time>2021-08-09T14:12:42Z</time>
      </trkpt>
      <trkpt lat="48.21844" lon="-3.16025">
        <ele>127.8</ele>
        <time>2021-08-09T14:12:43Z</time>
      </trkpt>
      <trkpt lat="48.21849" lon="-3.16025">
        <ele>128</ele>
        <time>2021-08-09T14:12:44Z</time>
      </trkpt>
      <trkpt lat="48.21854" lon="-3.16025">
        <ele>128</ele>
        <time>2021-08-09T14:12:45Z</time>
      </trkpt>
      <trkpt lat="48.21858" lon="-3.16025">
        <ele>128.2</ele>
        <time>2021-08-09T14:12:46Z</time>
      </trkpt>
      <trkpt lat="48.21863" lon="-3.16025">
        <ele>128.2</ele>
        <time>2021-08-09T14:12:47Z</time>
      </trkpt>
      <trkpt lat="48.21867" lon="-3.16026">
        <ele>128.2</ele>
        <time>2021-08-09T14:12:48Z</time>
      </trkpt>
      <trkpt lat="48.21872" lon="-3.16028">
        <ele>128.2</ele>
        <time>2021-08-09T14:12:49Z</time>
      </trkpt>
      <trkpt lat="48.21876" lon="-3.1603">
        <ele>128</ele>
        <time>2021-08-09T14:12:50Z</time>
      </trkpt>
      <trkpt lat="48.2188" lon="-3.16032">
        <ele>128</ele>
        <time>2021-08-09T14:12:51Z</time>
      </trkpt>
      <trkpt lat="48.21884" lon="-3.16035">
        <ele>128</ele>
        <time>2021-08-09T14:12:52Z</time>
      </trkpt>
      <trkpt lat="48.21889" lon="-3.16038">
        <ele>128</ele>
        <time>2021-08-09T14:12:53Z</time>
      </trkpt>
      <trkpt lat="48.21893" lon="-3.16042">
        <ele>128</ele>
        <time>2021-08-09T14:12:54Z</time>
      </trkpt>
      <trkpt lat="48.21898" lon="-3.16046">
        <ele>128</ele>
        <time>2021-08-09T14:12:55Z</time>
      </trkpt>
      <trkpt lat="48.21902" lon="-3.1605">
        <ele>128</ele>
        <time>2021-08-09T14:12:56Z</time>
      </trkpt>
      <trkpt lat="48.21905" lon="-3.16054">
        <ele>128</ele>
        <time>2021-08-09T14:12:57Z</time>
      </trkpt>
      <trkpt lat="48.21908" lon="-3.16057">
        <ele>128</ele>
        <time>2021-08-09T14:12:58Z</time>
      </trkpt>
      <trkpt lat="48.21911" lon="-3.16061">
        <ele>128</ele>
        <time>2021-08-09T14:12:59Z</time>
      </trkpt>
      <trkpt lat="48.21914" lon="-3.16064">
        <ele>128</ele>
        <time>2021-08-09T14:13:00Z</time>
      </trkpt>
      <trkpt lat="48.21917" lon="-3.16068">
        <ele>128</ele>
        <time>2021-08-09T14:13:01Z</time>
      </trkpt>
      <trkpt lat="48.21921" lon="-3.16072">
        <ele>128</ele>
        <time>2021-08-09T14:13:02Z</time>
      </trkpt>
      <trkpt lat="48.21924" lon="-3.16075">
        <ele>128</ele>
        <time>2021-08-09T14:13:03Z</time>
      </trkpt>
      <trkpt lat="48.21927" lon="-3.16079">
        <ele>128</ele>
        <time>2021-08-09T14:13:04Z</time>
      </trkpt>
      <trkpt lat="48.21931" lon="-3.16083">
        <ele>128</ele>
        <time>2021-08-09T14:13:05Z</time>
      </trkpt>
      <trkpt lat="48.21935" lon="-3.16087">
        <ele>128</ele>
        <time>2021-08-09T14:13:06Z</time>
      </trkpt>
      <trkpt lat="48.21938" lon="-3.16091">
        <ele>128</ele>
        <time>2021-08-09T14:13:07Z</time>
      </trkpt>
      <trkpt lat="48.21942" lon="-3.16094">
        <ele>128</ele>
        <time>2021-08-09T14:13:08Z</time>
      </trkpt>
      <trkpt lat="48.21946" lon="-3.16098">
        <ele>128</ele>
        <time>2021-08-09T14:13:09Z</time>
      </trkpt>
      <trkpt lat="48.2195" lon="-3.16101">
        <ele>128</ele>
        <time>2021-08-09T14:13:10Z</time>
      </trkpt>
      <trkpt lat="48.21953" lon="-3.16104">
        <ele>128</ele>
        <time>2021-08-09T14:13:11Z</time>
      </trkpt>
      <trkpt lat="48.21957" lon="-3.16107">
        <ele>128</ele>
        <time>2021-08-09T14:13:12Z</time>
      </trkpt>
      <trkpt lat="48.21961" lon="-3.1611">
        <ele>128</ele>
        <time>2021-08-09T14:13:13Z</time>
      </trkpt>
      <trkpt lat="48.21965" lon="-3.16113">
        <ele>128</ele>
        <time>2021-08-09T14:13:14Z</time>
      </trkpt>
      <trkpt lat="48.21968" lon="-3.16117">
        <ele>128</ele>
        <time>2021-08-09T14:13:15Z</time>
      </trkpt>
      <trkpt lat="48.21972" lon="-3.16121">
        <ele>128</ele>
        <time>2021-08-09T14:13:16Z</time>
      </trkpt>
      <trkpt lat="48.21976" lon="-3.16127">
        <ele>128</ele>
        <time>2021-08-09T14:13:17Z</time>
      </trkpt>
      <trkpt lat="48.21979" lon="-3.16134">
        <ele>127.8</ele>
        <time>2021-08-09T14:13:18Z</time>
      </trkpt>
      <trkpt lat="48.21983" lon="-3.1614">
        <ele>127.8</ele>
        <time>2021-08-09T14:13:19Z</time>
      </trkpt>
      <trkpt lat="48.21986" lon="-3.16147">
        <ele>127.8</ele>
        <time>2021-08-09T14:13:20Z</time>
      </trkpt>
      <trkpt lat="48.21989" lon="-3.16154">
        <ele>127.8</ele>
        <time>2021-08-09T14:13:21Z</time>
      </trkpt>
      <trkpt lat="48.21991" lon="-3.1616">
        <ele>127.8</ele>
        <time>2021-08-09T14:13:22Z</time>
      </trkpt>
      <trkpt lat="48.21994" lon="-3.16167">
        <ele>127.8</ele>
        <time>2021-08-09T14:13:23Z</time>
      </trkpt>
      <trkpt lat="48.21996" lon="-3.16173">
        <ele>127.8</ele>
        <time>2021-08-09T14:13:24Z</time>
      </trkpt>
      <trkpt lat="48.21999" lon="-3.16179">
        <ele>127.8</ele>
        <time>2021-08-09T14:13:25Z</time>
      </trkpt>
      <trkpt lat="48.22002" lon="-3.16184">
        <ele>127.6</ele>
        <time>2021-08-09T14:13:26Z</time>
      </trkpt>
      <trkpt lat="48.22004" lon="-3.16191">
        <ele>127.6</ele>
        <time>2021-08-09T14:13:27Z</time>
      </trkpt>
      <trkpt lat="48.22005" lon="-3.16197">
        <ele>127.6</ele>
        <time>2021-08-09T14:13:28Z</time>
      </trkpt>
      <trkpt lat="48.22007" lon="-3.16204">
        <ele>127.6</ele>
        <time>2021-08-09T14:13:29Z</time>
      </trkpt>
      <trkpt lat="48.22007" lon="-3.1621">
        <ele>127.6</ele>
        <time>2021-08-09T14:13:30Z</time>
      </trkpt>
      <trkpt lat="48.22008" lon="-3.16218">
        <ele>127.6</ele>
        <time>2021-08-09T14:13:31Z</time>
      </trkpt>
      <trkpt lat="48.22008" lon="-3.16225">
        <ele>127.4</ele>
        <time>2021-08-09T14:13:32Z</time>
      </trkpt>
      <trkpt lat="48.22008" lon="-3.16232">
        <ele>127.4</ele>
        <time>2021-08-09T14:13:33Z</time>
      </trkpt>
      <trkpt lat="48.22008" lon="-3.16238">
        <ele>127.4</ele>
        <time>2021-08-09T14:13:34Z</time>
      </trkpt>
      <trkpt lat="48.22008" lon="-3.16245">
        <ele>127.4</ele>
        <time>2021-08-09T14:13:35Z</time>
      </trkpt>
      <trkpt lat="48.22009" lon="-3.16252">
        <ele>127.4</ele>
        <time>2021-08-09T14:13:36Z</time>
      </trkpt>
      <trkpt lat="48.22009" lon="-3.16259">
        <ele>127.2</ele>
        <time>2021-08-09T14:13:37Z</time>
      </trkpt>
      <trkpt lat="48.22008" lon="-3.16265">
        <ele>127.2</ele>
        <time>2021-08-09T14:13:38Z</time>
      </trkpt>
      <trkpt lat="48.22008" lon="-3.16272">
        <ele>127.2</ele>
        <time>2021-08-09T14:13:39Z</time>
      </trkpt>
      <trkpt lat="48.22007" lon="-3.1628">
        <ele>127.2</ele>
        <time>2021-08-09T14:13:40Z</time>
      </trkpt>
      <trkpt lat="48.22006" lon="-3.16288">
        <ele>127.2</ele>
        <time>2021-08-09T14:13:41Z</time>
      </trkpt>
      <trkpt lat="48.22005" lon="-3.16296">
        <ele>127</ele>
        <time>2021-08-09T14:13:42Z</time>
      </trkpt>
      <trkpt lat="48.22004" lon="-3.16303">
        <ele>127</ele>
        <time>2021-08-09T14:13:43Z</time>
      </trkpt>
      <trkpt lat="48.22002" lon="-3.1631">
        <ele>127.2</ele>
        <time>2021-08-09T14:13:44Z</time>
      </trkpt>
      <trkpt lat="48.22001" lon="-3.16318">
        <ele>127</ele>
        <time>2021-08-09T14:13:45Z</time>
      </trkpt>
      <trkpt lat="48.21999" lon="-3.16325">
        <ele>127</ele>
        <time>2021-08-09T14:13:46Z</time>
      </trkpt>
      <trkpt lat="48.21998" lon="-3.16333">
        <ele>127</ele>
        <time>2021-08-09T14:13:47Z</time>
      </trkpt>
      <trkpt lat="48.21996" lon="-3.16341">
        <ele>127</ele>
        <time>2021-08-09T14:13:48Z</time>
      </trkpt>
      <trkpt lat="48.21995" lon="-3.16348">
        <ele>127</ele>
        <time>2021-08-09T14:13:49Z</time>
      </trkpt>
      <trkpt lat="48.21993" lon="-3.16355">
        <ele>127</ele>
        <time>2021-08-09T14:13:50Z</time>
      </trkpt>
      <trkpt lat="48.21991" lon="-3.16363">
        <ele>127</ele>
        <time>2021-08-09T14:13:51Z</time>
      </trkpt>
      <trkpt lat="48.2199" lon="-3.16369">
        <ele>127.2</ele>
        <time>2021-08-09T14:13:52Z</time>
      </trkpt>
      <trkpt lat="48.21988" lon="-3.16376">
        <ele>127.2</ele>
        <time>2021-08-09T14:13:53Z</time>
      </trkpt>
      <trkpt lat="48.21986" lon="-3.16383">
        <ele>127.2</ele>
        <time>2021-08-09T14:13:54Z</time>
      </trkpt>
      <trkpt lat="48.21984" lon="-3.16389">
        <ele>127.2</ele>
        <time>2021-08-09T14:13:55Z</time>
      </trkpt>
      <trkpt lat="48.21982" lon="-3.16395">
        <ele>127.2</ele>
        <time>2021-08-09T14:13:56Z</time>
      </trkpt>
      <trkpt lat="48.21979" lon="-3.16401">
        <ele>127.2</ele>
        <time>2021-08-09T14:13:57Z</time>
      </trkpt>
      <trkpt lat="48.21977" lon="-3.16406">
        <ele>127.2</ele>
        <time>2021-08-09T14:13:58Z</time>
      </trkpt>
      <trkpt lat="48.21974" lon="-3.16412">
        <ele>127.2</ele>
        <time>2021-08-09T14:13:59Z</time>
      </trkpt>
      <trkpt lat="48.21971" lon="-3.16417">
        <ele>127.2</ele>
        <time>2021-08-09T14:14:00Z</time>
      </trkpt>
      <trkpt lat="48.21968" lon="-3.16423">
        <ele>127.2</ele>
        <time>2021-08-09T14:14:01Z</time>
      </trkpt>
      <trkpt lat="48.21965" lon="-3.16428">
        <ele>127.2</ele>
        <time>2021-08-09T14:14:02Z</time>
      </trkpt>
      <trkpt lat="48.21962" lon="-3.16433">
        <ele>127.2</ele>
        <time>2021-08-09T14:14:03Z</time>
      </trkpt>
      <trkpt lat="48.2196" lon="-3.16438">
        <ele>127.4</ele>
        <time>2021-08-09T14:14:04Z</time>
      </trkpt>
      <trkpt lat="48.21957" lon="-3.16443">
        <ele>127.4</ele>
        <time>2021-08-09T14:14:05Z</time>
      </trkpt>
      <trkpt lat="48.21954" lon="-3.16449">
        <ele>127.4</ele>
        <time>2021-08-09T14:14:06Z</time>
      </trkpt>
      <trkpt lat="48.21952" lon="-3.16455">
        <ele>127.6</ele>
        <time>2021-08-09T14:14:07Z</time>
      </trkpt>
      <trkpt lat="48.21949" lon="-3.16461">
        <ele>127.6</ele>
        <time>2021-08-09T14:14:08Z</time>
      </trkpt>
      <trkpt lat="48.21946" lon="-3.16467">
        <ele>127.6</ele>
        <time>2021-08-09T14:14:09Z</time>
      </trkpt>
      <trkpt lat="48.21943" lon="-3.16473">
        <ele>127.6</ele>
        <time>2021-08-09T14:14:10Z</time>
      </trkpt>
      <trkpt lat="48.2194" lon="-3.16479">
        <ele>127.6</ele>
        <time>2021-08-09T14:14:11Z</time>
      </trkpt>
      <trkpt lat="48.21938" lon="-3.16485">
        <ele>127.8</ele>
        <time>2021-08-09T14:14:12Z</time>
      </trkpt>
      <trkpt lat="48.21935" lon="-3.16492">
        <ele>127.8</ele>
        <time>2021-08-09T14:14:13Z</time>
      </trkpt>
      <trkpt lat="48.21932" lon="-3.16498">
        <ele>128</ele>
        <time>2021-08-09T14:14:14Z</time>
      </trkpt>
      <trkpt lat="48.21929" lon="-3.16505">
        <ele>128</ele>
        <time>2021-08-09T14:14:15Z</time>
      </trkpt>
      <trkpt lat="48.21926" lon="-3.16511">
        <ele>128</ele>
        <time>2021-08-09T14:14:16Z</time>
      </trkpt>
      <trkpt lat="48.21924" lon="-3.16517">
        <ele>128</ele>
        <time>2021-08-09T14:14:17Z</time>
      </trkpt>
      <trkpt lat="48.21921" lon="-3.16524">
        <ele>128</ele>
        <time>2021-08-09T14:14:18Z</time>
      </trkpt>
      <trkpt lat="48.21918" lon="-3.16531">
        <ele>128</ele>
        <time>2021-08-09T14:14:19Z</time>
      </trkpt>
      <trkpt lat="48.21915" lon="-3.16538">
        <ele>128.2</ele>
        <time>2021-08-09T14:14:20Z</time>
      </trkpt>
      <trkpt lat="48.21913" lon="-3.16544">
        <ele>128.2</ele>
        <time>2021-08-09T14:14:21Z</time>
      </trkpt>
      <trkpt lat="48.21912" lon="-3.1655">
        <ele>128.2</ele>
        <time>2021-08-09T14:14:22Z</time>
      </trkpt>
      <trkpt lat="48.21911" lon="-3.16555">
        <ele>128.2</ele>
        <time>2021-08-09T14:14:23Z</time>
      </trkpt>
      <trkpt lat="48.21911" lon="-3.16561">
        <ele>128.2</ele>
        <time>2021-08-09T14:14:24Z</time>
      </trkpt>
      <trkpt lat="48.2191" lon="-3.16567">
        <ele>128.2</ele>
        <time>2021-08-09T14:14:25Z</time>
      </trkpt>
      <trkpt lat="48.21909" lon="-3.16573">
        <ele>128.2</ele>
        <time>2021-08-09T14:14:26Z</time>
      </trkpt>
      <trkpt lat="48.21908" lon="-3.16579">
        <ele>128.4</ele>
        <time>2021-08-09T14:14:27Z</time>
      </trkpt>
      <trkpt lat="48.21907" lon="-3.16585">
        <ele>128.4</ele>
        <time>2021-08-09T14:14:28Z</time>
      </trkpt>
      <trkpt lat="48.21906" lon="-3.16591">
        <ele>128.4</ele>
        <time>2021-08-09T14:14:29Z</time>
      </trkpt>
      <trkpt lat="48.21906" lon="-3.16598">
        <ele>128.4</ele>
        <time>2021-08-09T14:14:30Z</time>
      </trkpt>
      <trkpt lat="48.21905" lon="-3.16605">
        <ele>128.4</ele>
        <time>2021-08-09T14:14:31Z</time>
      </trkpt>
      <trkpt lat="48.21904" lon="-3.16612">
        <ele>128.4</ele>
        <time>2021-08-09T14:14:32Z</time>
      </trkpt>
      <trkpt lat="48.21903" lon="-3.1662">
        <ele>128.4</ele>
        <time>2021-08-09T14:14:33Z</time>
      </trkpt>
      <trkpt lat="48.21902" lon="-3.16627">
        <ele>128.2</ele>
        <time>2021-08-09T14:14:34Z</time>
      </trkpt>
      <trkpt lat="48.21901" lon="-3.16635">
        <ele>128</ele>
        <time>2021-08-09T14:14:35Z</time>
      </trkpt>
      <trkpt lat="48.21899" lon="-3.16643">
        <ele>128</ele>
        <time>2021-08-09T14:14:36Z</time>
      </trkpt>
      <trkpt lat="48.21898" lon="-3.16649">
        <ele>128</ele>
        <time>2021-08-09T14:14:37Z</time>
      </trkpt>
      <trkpt lat="48.21897" lon="-3.16656">
        <ele>128</ele>
        <time>2021-08-09T14:14:38Z</time>
      </trkpt>
      <trkpt lat="48.21896" lon="-3.16662">
        <ele>128</ele>
        <time>2021-08-09T14:14:39Z</time>
      </trkpt>
      <trkpt lat="48.21895" lon="-3.16669">
        <ele>128.2</ele>
        <time>2021-08-09T14:14:40Z</time>
      </trkpt>
      <trkpt lat="48.21894" lon="-3.16676">
        <ele>128</ele>
        <time>2021-08-09T14:14:41Z</time>
      </trkpt>
      <trkpt lat="48.21892" lon="-3.16683">
        <ele>128</ele>
        <time>2021-08-09T14:14:42Z</time>
      </trkpt>
      <trkpt lat="48.21891" lon="-3.1669">
        <ele>128</ele>
        <time>2021-08-09T14:14:43Z</time>
      </trkpt>
      <trkpt lat="48.2189" lon="-3.16696">
        <ele>128</ele>
        <time>2021-08-09T14:14:44Z</time>
      </trkpt>
      <trkpt lat="48.21888" lon="-3.16704">
        <ele>127.8</ele>
        <time>2021-08-09T14:14:45Z</time>
      </trkpt>
      <trkpt lat="48.21887" lon="-3.16713">
        <ele>127.8</ele>
        <time>2021-08-09T14:14:46Z</time>
      </trkpt>
      <trkpt lat="48.21886" lon="-3.1672">
        <ele>127.8</ele>
        <time>2021-08-09T14:14:47Z</time>
      </trkpt>
      <trkpt lat="48.21885" lon="-3.16728">
        <ele>127.8</ele>
        <time>2021-08-09T14:14:48Z</time>
      </trkpt>
      <trkpt lat="48.21885" lon="-3.16736">
        <ele>127.8</ele>
        <time>2021-08-09T14:14:49Z</time>
      </trkpt>
      <trkpt lat="48.21884" lon="-3.16745">
        <ele>127.8</ele>
        <time>2021-08-09T14:14:50Z</time>
      </trkpt>
      <trkpt lat="48.21884" lon="-3.16753">
        <ele>127.8</ele>
        <time>2021-08-09T14:14:51Z</time>
      </trkpt>
      <trkpt lat="48.21883" lon="-3.16761">
        <ele>127.8</ele>
        <time>2021-08-09T14:14:52Z</time>
      </trkpt>
      <trkpt lat="48.21883" lon="-3.16769">
        <ele>127.8</ele>
        <time>2021-08-09T14:14:53Z</time>
      </trkpt>
      <trkpt lat="48.21883" lon="-3.16776">
        <ele>127.6</ele>
        <time>2021-08-09T14:14:54Z</time>
      </trkpt>
      <trkpt lat="48.21884" lon="-3.16784">
        <ele>127.6</ele>
        <time>2021-08-09T14:14:55Z</time>
      </trkpt>
      <trkpt lat="48.21884" lon="-3.16792">
        <ele>127.6</ele>
        <time>2021-08-09T14:14:56Z</time>
      </trkpt>
      <trkpt lat="48.21884" lon="-3.168">
        <ele>127.6</ele>
        <time>2021-08-09T14:14:57Z</time>
      </trkpt>
      <trkpt lat="48.21884" lon="-3.16808">
        <ele>127.6</ele>
        <time>2021-08-09T14:14:58Z</time>
      </trkpt>
      <trkpt lat="48.21885" lon="-3.16815">
        <ele>127.4</ele>
        <time>2021-08-09T14:14:59Z</time>
      </trkpt>
      <trkpt lat="48.21885" lon="-3.16823">
        <ele>127.4</ele>
        <time>2021-08-09T14:15:00Z</time>
      </trkpt>
      <trkpt lat="48.21886" lon="-3.1683">
        <ele>127.4</ele>
        <time>2021-08-09T14:15:01Z</time>
      </trkpt>
      <trkpt lat="48.21886" lon="-3.16838">
        <ele>127.6</ele>
        <time>2021-08-09T14:15:02Z</time>
      </trkpt>
      <trkpt lat="48.21886" lon="-3.16845">
        <ele>127.6</ele>
        <time>2021-08-09T14:15:03Z</time>
      </trkpt>
      <trkpt lat="48.21887" lon="-3.16852">
        <ele>127.6</ele>
        <time>2021-08-09T14:15:04Z</time>
      </trkpt>
      <trkpt lat="48.21888" lon="-3.16858">
        <ele>127.6</ele>
        <time>2021-08-09T14:15:05Z</time>
      </trkpt>
      <trkpt lat="48.21888" lon="-3.16864">
        <ele>127.6</ele>
        <time>2021-08-09T14:15:06Z</time>
      </trkpt>
      <trkpt lat="48.21889" lon="-3.1687">
        <ele>127.6</ele>
        <time>2021-08-09T14:15:07Z</time>
      </trkpt>
      <trkpt lat="48.2189" lon="-3.16876">
        <ele>127.6</ele>
        <time>2021-08-09T14:15:08Z</time>
      </trkpt>
      <trkpt lat="48.21891" lon="-3.16883">
        <ele>127.6</ele>
        <time>2021-08-09T14:15:09Z</time>
      </trkpt>
      <trkpt lat="48.21892" lon="-3.1689">
        <ele>127.6</ele>
        <time>2021-08-09T14:15:10Z</time>
      </trkpt>
      <trkpt lat="48.21893" lon="-3.16897">
        <ele>127.4</ele>
        <time>2021-08-09T14:15:11Z</time>
      </trkpt>
      <trkpt lat="48.21895" lon="-3.16904">
        <ele>127.6</ele>
        <time>2021-08-09T14:15:12Z</time>
      </trkpt>
      <trkpt lat="48.21896" lon="-3.16912">
        <ele>127.6</ele>
        <time>2021-08-09T14:15:13Z</time>
      </trkpt>
      <trkpt lat="48.21898" lon="-3.16919">
        <ele>127.8</ele>
        <time>2021-08-09T14:15:14Z</time>
      </trkpt>
      <trkpt lat="48.21899" lon="-3.16927">
        <ele>128</ele>
        <time>2021-08-09T14:15:15Z</time>
      </trkpt>
      <trkpt lat="48.21901" lon="-3.16935">
        <ele>128</ele>
        <time>2021-08-09T14:15:16Z</time>
      </trkpt>
      <trkpt lat="48.21903" lon="-3.16942">
        <ele>128</ele>
        <time>2021-08-09T14:15:17Z</time>
      </trkpt>
      <trkpt lat="48.21906" lon="-3.16949">
        <ele>128.2</ele>
        <time>2021-08-09T14:15:18Z</time>
      </trkpt>
      <trkpt lat="48.21908" lon="-3.16956">
        <ele>128.2</ele>
        <time>2021-08-09T14:15:19Z</time>
      </trkpt>
      <trkpt lat="48.2191" lon="-3.16961">
        <ele>128.2</ele>
        <time>2021-08-09T14:15:20Z</time>
      </trkpt>
      <trkpt lat="48.21912" lon="-3.16966">
        <ele>128.2</ele>
        <time>2021-08-09T14:15:21Z</time>
      </trkpt>
      <trkpt lat="48.21914" lon="-3.16971">
        <ele>128.2</ele>
        <time>2021-08-09T14:15:22Z</time>
      </trkpt>
      <trkpt lat="48.21917" lon="-3.16976">
        <ele>128.2</ele>
        <time>2021-08-09T14:15:23Z</time>
      </trkpt>
      <trkpt lat="48.2192" lon="-3.16982">
        <ele>128.2</ele>
        <time>2021-08-09T14:15:24Z</time>
      </trkpt>
      <trkpt lat="48.21923" lon="-3.16987">
        <ele>128.2</ele>
        <time>2021-08-09T14:15:25Z</time>
      </trkpt>
      <trkpt lat="48.21928" lon="-3.16992">
        <ele>128.2</ele>
        <time>2021-08-09T14:15:26Z</time>
      </trkpt>
      <trkpt lat="48.21931" lon="-3.16997">
        <ele>128.2</ele>
        <time>2021-08-09T14:15:27Z</time>
      </trkpt>
      <trkpt lat="48.21935" lon="-3.17002">
        <ele>128.2</ele>
        <time>2021-08-09T14:15:28Z</time>
      </trkpt>
      <trkpt lat="48.21937" lon="-3.17007">
        <ele>128.2</ele>
        <time>2021-08-09T14:15:29Z</time>
      </trkpt>
      <trkpt lat="48.21939" lon="-3.17012">
        <ele>128.2</ele>
        <time>2021-08-09T14:15:30Z</time>
      </trkpt>
      <trkpt lat="48.21943" lon="-3.17017">
        <ele>128.2</ele>
        <time>2021-08-09T14:15:31Z</time>
      </trkpt>
      <trkpt lat="48.21946" lon="-3.17022">
        <ele>128.2</ele>
        <time>2021-08-09T14:15:32Z</time>
      </trkpt>
      <trkpt lat="48.2195" lon="-3.17027">
        <ele>128</ele>
        <time>2021-08-09T14:15:33Z</time>
      </trkpt>
      <trkpt lat="48.21953" lon="-3.17032">
        <ele>128</ele>
        <time>2021-08-09T14:15:34Z</time>
      </trkpt>
      <trkpt lat="48.21956" lon="-3.17037">
        <ele>128</ele>
        <time>2021-08-09T14:15:35Z</time>
      </trkpt>
      <trkpt lat="48.21959" lon="-3.17041">
        <ele>127.8</ele>
        <time>2021-08-09T14:15:36Z</time>
      </trkpt>
      <trkpt lat="48.21963" lon="-3.17045">
        <ele>127.8</ele>
        <time>2021-08-09T14:15:37Z</time>
      </trkpt>
      <trkpt lat="48.21967" lon="-3.17049">
        <ele>127.6</ele>
        <time>2021-08-09T14:15:38Z</time>
      </trkpt>
      <trkpt lat="48.2197" lon="-3.17052">
        <ele>127.6</ele>
        <time>2021-08-09T14:15:39Z</time>
      </trkpt>
      <trkpt lat="48.21974" lon="-3.17056">
        <ele>127.6</ele>
        <time>2021-08-09T14:15:40Z</time>
      </trkpt>
      <trkpt lat="48.21978" lon="-3.17061">
        <ele>127.6</ele>
        <time>2021-08-09T14:15:41Z</time>
      </trkpt>
      <trkpt lat="48.21982" lon="-3.17065">
        <ele>127.6</ele>
        <time>2021-08-09T14:15:42Z</time>
      </trkpt>
      <trkpt lat="48.21985" lon="-3.17069">
        <ele>127.6</ele>
        <time>2021-08-09T14:15:43Z</time>
      </trkpt>
      <trkpt lat="48.21988" lon="-3.17072">
        <ele>127.4</ele>
        <time>2021-08-09T14:15:44Z</time>
      </trkpt>
      <trkpt lat="48.21991" lon="-3.17076">
        <ele>127.4</ele>
        <time>2021-08-09T14:15:45Z</time>
      </trkpt>
      <trkpt lat="48.21995" lon="-3.17079">
        <ele>127.4</ele>
        <time>2021-08-09T14:15:46Z</time>
      </trkpt>
      <trkpt lat="48.21999" lon="-3.17082">
        <ele>127.2</ele>
        <time>2021-08-09T14:15:47Z</time>
      </trkpt>
      <trkpt lat="48.22002" lon="-3.17086">
        <ele>127.2</ele>
        <time>2021-08-09T14:15:48Z</time>
      </trkpt>
      <trkpt lat="48.22006" lon="-3.17089">
        <ele>127.2</ele>
        <time>2021-08-09T14:15:49Z</time>
      </trkpt>
      <trkpt lat="48.22009" lon="-3.17092">
        <ele>127</ele>
        <time>2021-08-09T14:15:50Z</time>
      </trkpt>
      <trkpt lat="48.22013" lon="-3.17095">
        <ele>127</ele>
        <time>2021-08-09T14:15:51Z</time>
      </trkpt>
      <trkpt lat="48.22016" lon="-3.17097">
        <ele>127</ele>
        <time>2021-08-09T14:15:52Z</time>
      </trkpt>
      <trkpt lat="48.2202" lon="-3.17099">
        <ele>127</ele>
        <time>2021-08-09T14:15:53Z</time>
      </trkpt>
      <trkpt lat="48.22024" lon="-3.17101">
        <ele>127</ele>
        <time>2021-08-09T14:15:54Z</time>
      </trkpt>
      <trkpt lat="48.22028" lon="-3.17104">
        <ele>127</ele>
        <time>2021-08-09T14:15:55Z</time>
      </trkpt>
      <trkpt lat="48.22032" lon="-3.17107">
        <ele>127</ele>
        <time>2021-08-09T14:15:56Z</time>
      </trkpt>
      <trkpt lat="48.22036" lon="-3.1711">
        <ele>127</ele>
        <time>2021-08-09T14:15:57Z</time>
      </trkpt>
      <trkpt lat="48.2204" lon="-3.17114">
        <ele>127</ele>
        <time>2021-08-09T14:15:58Z</time>
      </trkpt>
      <trkpt lat="48.22044" lon="-3.17117">
        <ele>127</ele>
        <time>2021-08-09T14:15:59Z</time>
      </trkpt>
      <trkpt lat="48.22048" lon="-3.17119">
        <ele>126.8</ele>
        <time>2021-08-09T14:16:00Z</time>
      </trkpt>
      <trkpt lat="48.22053" lon="-3.17122">
        <ele>126.8</ele>
        <time>2021-08-09T14:16:01Z</time>
      </trkpt>
      <trkpt lat="48.22056" lon="-3.17124">
        <ele>126.8</ele>
        <time>2021-08-09T14:16:02Z</time>
      </trkpt>
      <trkpt lat="48.22059" lon="-3.17126">
        <ele>127</ele>
        <time>2021-08-09T14:16:03Z</time>
      </trkpt>
      <trkpt lat="48.22063" lon="-3.17129">
        <ele>127</ele>
        <time>2021-08-09T14:16:04Z</time>
      </trkpt>
      <trkpt lat="48.22068" lon="-3.17133">
        <ele>127</ele>
        <time>2021-08-09T14:16:05Z</time>
      </trkpt>
      <trkpt lat="48.22073" lon="-3.17136">
        <ele>127.2</ele>
        <time>2021-08-09T14:16:06Z</time>
      </trkpt>
      <trkpt lat="48.22079" lon="-3.17138">
        <ele>127.2</ele>
        <time>2021-08-09T14:16:07Z</time>
      </trkpt>
      <trkpt lat="48.22084" lon="-3.1714">
        <ele>127.2</ele>
        <time>2021-08-09T14:16:08Z</time>
      </trkpt>
      <trkpt lat="48.22089" lon="-3.17142">
        <ele>127.2</ele>
        <time>2021-08-09T14:16:09Z</time>
      </trkpt>
      <trkpt lat="48.22095" lon="-3.17144">
        <ele>127.2</ele>
        <time>2021-08-09T14:16:10Z</time>
      </trkpt>
      <trkpt lat="48.221" lon="-3.17144">
        <ele>127.2</ele>
        <time>2021-08-09T14:16:11Z</time>
      </trkpt>
      <trkpt lat="48.22105" lon="-3.17145">
        <ele>127.2</ele>
        <time>2021-08-09T14:16:12Z</time>
      </trkpt>
      <trkpt lat="48.22111" lon="-3.17146">
        <ele>127.4</ele>
        <time>2021-08-09T14:16:13Z</time>
      </trkpt>
      <trkpt lat="48.22115" lon="-3.17146">
        <ele>127.4</ele>
        <time>2021-08-09T14:16:14Z</time>
      </trkpt>
      <trkpt lat="48.2212" lon="-3.17146">
        <ele>127.4</ele>
        <time>2021-08-09T14:16:15Z</time>
      </trkpt>
      <trkpt lat="48.22124" lon="-3.17146">
        <ele>127.4</ele>
        <time>2021-08-09T14:16:16Z</time>
      </trkpt>
      <trkpt lat="48.22129" lon="-3.17146">
        <ele>127.4</ele>
        <time>2021-08-09T14:16:17Z</time>
      </trkpt>
      <trkpt lat="48.22133" lon="-3.17146">
        <ele>127.2</ele>
        <time>2021-08-09T14:16:18Z</time>
      </trkpt>
      <trkpt lat="48.22138" lon="-3.17146">
        <ele>127.2</ele>
        <time>2021-08-09T14:16:19Z</time>
      </trkpt>
      <trkpt lat="48.22143" lon="-3.17146">
        <ele>127.2</ele>
        <time>2021-08-09T14:16:20Z</time>
      </trkpt>
      <trkpt lat="48.22148" lon="-3.17146">
        <ele>127.2</ele>
        <time>2021-08-09T14:16:21Z</time>
      </trkpt>
      <trkpt lat="48.22153" lon="-3.17146">
        <ele>127.2</ele>
        <time>2021-08-09T14:16:22Z</time>
      </trkpt>
      <trkpt lat="48.22157" lon="-3.17147">
        <ele>127.2</ele>
        <time>2021-08-09T14:16:23Z</time>
      </trkpt>
      <trkpt lat="48.22161" lon="-3.17148">
        <ele>127.2</ele>
        <time>2021-08-09T14:16:24Z</time>
      </trkpt>
      <trkpt lat="48.22165" lon="-3.17149">
        <ele>127.2</ele>
        <time>2021-08-09T14:16:25Z</time>
      </trkpt>
      <trkpt lat="48.2217" lon="-3.17149">
        <ele>127.2</ele>
        <time>2021-08-09T14:16:26Z</time>
      </trkpt>
      <trkpt lat="48.22175" lon="-3.1715">
        <ele>127.2</ele>
        <time>2021-08-09T14:16:27Z</time>
      </trkpt>
      <trkpt lat="48.22179" lon="-3.17151">
        <ele>127.2</ele>
        <time>2021-08-09T14:16:28Z</time>
      </trkpt>
      <trkpt lat="48.22184" lon="-3.17151">
        <ele>127.2</ele>
        <time>2021-08-09T14:16:29Z</time>
      </trkpt>
      <trkpt lat="48.22189" lon="-3.17152">
        <ele>127.2</ele>
        <time>2021-08-09T14:16:30Z</time>
      </trkpt>
      <trkpt lat="48.22194" lon="-3.17153">
        <ele>127.2</ele>
        <time>2021-08-09T14:16:31Z</time>
      </trkpt>
      <trkpt lat="48.22199" lon="-3.17153">
        <ele>127.2</ele>
        <time>2021-08-09T14:16:32Z</time>
      </trkpt>
      <trkpt lat="48.22204" lon="-3.17154">
        <ele>127.2</ele>
        <time>2021-08-09T14:16:33Z</time>
      </trkpt>
      <trkpt lat="48.22209" lon="-3.17155">
        <ele>127.2</ele>
        <time>2021-08-09T14:16:34Z</time>
      </trkpt>
      <trkpt lat="48.22214" lon="-3.17156">
        <ele>127.2</ele>
        <time>2021-08-09T14:16:35Z</time>
      </trkpt>
      <trkpt lat="48.22218" lon="-3.17157">
        <ele>127.2</ele>
        <time>2021-08-09T14:16:36Z</time>
      </trkpt>
      <trkpt lat="48.22223" lon="-3.17158">
        <ele>127.2</ele>
        <time>2021-08-09T14:16:37Z</time>
      </trkpt>
      <trkpt lat="48.22228" lon="-3.17158">
        <ele>127.4</ele>
        <time>2021-08-09T14:16:38Z</time>
      </trkpt>
      <trkpt lat="48.22233" lon="-3.17159">
        <ele>127.4</ele>
        <time>2021-08-09T14:16:39Z</time>
      </trkpt>
      <trkpt lat="48.22237" lon="-3.1716">
        <ele>127.4</ele>
        <time>2021-08-09T14:16:40Z</time>
      </trkpt>
      <trkpt lat="48.22243" lon="-3.17161">
        <ele>127.4</ele>
        <time>2021-08-09T14:16:41Z</time>
      </trkpt>
      <trkpt lat="48.22247" lon="-3.17161">
        <ele>127.4</ele>
        <time>2021-08-09T14:16:42Z</time>
      </trkpt>
      <trkpt lat="48.22252" lon="-3.17162">
        <ele>127.4</ele>
        <time>2021-08-09T14:16:43Z</time>
      </trkpt>
      <trkpt lat="48.22258" lon="-3.17163">
        <ele>127.6</ele>
        <time>2021-08-09T14:16:44Z</time>
      </trkpt>
      <trkpt lat="48.22263" lon="-3.17163">
        <ele>127.8</ele>
        <time>2021-08-09T14:16:45Z</time>
      </trkpt>
      <trkpt lat="48.22269" lon="-3.17164">
        <ele>127.8</ele>
        <time>2021-08-09T14:16:46Z</time>
      </trkpt>
      <trkpt lat="48.22274" lon="-3.17165">
        <ele>127.8</ele>
        <time>2021-08-09T14:16:47Z</time>
      </trkpt>
      <trkpt lat="48.2228" lon="-3.17166">
        <ele>127.8</ele>
        <time>2021-08-09T14:16:48Z</time>
      </trkpt>
      <trkpt lat="48.22285" lon="-3.17167">
        <ele>127.8</ele>
        <time>2021-08-09T14:16:49Z</time>
      </trkpt>
      <trkpt lat="48.2229" lon="-3.17169">
        <ele>128</ele>
        <time>2021-08-09T14:16:50Z</time>
      </trkpt>
      <trkpt lat="48.22296" lon="-3.1717">
        <ele>128</ele>
        <time>2021-08-09T14:16:51Z</time>
      </trkpt>
      <trkpt lat="48.22301" lon="-3.17172">
        <ele>128</ele>
        <time>2021-08-09T14:16:52Z</time>
      </trkpt>
      <trkpt lat="48.22306" lon="-3.17174">
        <ele>128</ele>
        <time>2021-08-09T14:16:53Z</time>
      </trkpt>
      <trkpt lat="48.22311" lon="-3.17175">
        <ele>128</ele>
        <time>2021-08-09T14:16:54Z</time>
      </trkpt>
      <trkpt lat="48.22316" lon="-3.17177">
        <ele>128.2</ele>
        <time>2021-08-09T14:16:55Z</time>
      </trkpt>
      <trkpt lat="48.22321" lon="-3.17178">
        <ele>128.2</ele>
        <time>2021-08-09T14:16:56Z</time>
      </trkpt>
      <trkpt lat="48.22326" lon="-3.1718">
        <ele>128.2</ele>
        <time>2021-08-09T14:16:57Z</time>
      </trkpt>
      <trkpt lat="48.22331" lon="-3.17181">
        <ele>128.2</ele>
        <time>2021-08-09T14:16:58Z</time>
      </trkpt>
      <trkpt lat="48.22336" lon="-3.17183">
        <ele>128.2</ele>
        <time>2021-08-09T14:16:59Z</time>
      </trkpt>
      <trkpt lat="48.22342" lon="-3.17184">
        <ele>128.2</ele>
        <time>2021-08-09T14:17:00Z</time>
      </trkpt>
      <trkpt lat="48.22347" lon="-3.17186">
        <ele>128.2</ele>
        <time>2021-08-09T14:17:01Z</time>
      </trkpt>
      <trkpt lat="48.22352" lon="-3.17188">
        <ele>128.2</ele>
        <time>2021-08-09T14:17:02Z</time>
      </trkpt>
      <trkpt lat="48.22358" lon="-3.1719">
        <ele>128.2</ele>
        <time>2021-08-09T14:17:03Z</time>
      </trkpt>
      <trkpt lat="48.22363" lon="-3.17192">
        <ele>128.2</ele>
        <time>2021-08-09T14:17:04Z</time>
      </trkpt>
      <trkpt lat="48.22368" lon="-3.17194">
        <ele>128.2</ele>
        <time>2021-08-09T14:17:05Z</time>
      </trkpt>
      <trkpt lat="48.22373" lon="-3.17196">
        <ele>128.2</ele>
        <time>2021-08-09T14:17:06Z</time>
      </trkpt>
      <trkpt lat="48.22377" lon="-3.17199">
        <ele>128.2</ele>
        <time>2021-08-09T14:17:07Z</time>
      </trkpt>
      <trkpt lat="48.22382" lon="-3.17202">
        <ele>128.2</ele>
        <time>2021-08-09T14:17:08Z</time>
      </trkpt>
      <trkpt lat="48.22386" lon="-3.17206">
        <ele>128.2</ele>
        <time>2021-08-09T14:17:09Z</time>
      </trkpt>
      <trkpt lat="48.2239" lon="-3.17209">
        <ele>128.2</ele>
        <time>2021-08-09T14:17:10Z</time>
      </trkpt>
      <trkpt lat="48.22394" lon="-3.17213">
        <ele>128.2</ele>
        <time>2021-08-09T14:17:11Z</time>
      </trkpt>
      <trkpt lat="48.22397" lon="-3.17217">
        <ele>128.2</ele>
        <time>2021-08-09T14:17:12Z</time>
      </trkpt>
      <trkpt lat="48.22401" lon="-3.17222">
        <ele>128.2</ele>
        <time>2021-08-09T14:17:13Z</time>
      </trkpt>
      <trkpt lat="48.22405" lon="-3.17226">
        <ele>128.2</ele>
        <time>2021-08-09T14:17:14Z</time>
      </trkpt>
      <trkpt lat="48.22409" lon="-3.17231">
        <ele>128.2</ele>
        <time>2021-08-09T14:17:15Z</time>
      </trkpt>
      <trkpt lat="48.22413" lon="-3.17236">
        <ele>128.2</ele>
        <time>2021-08-09T14:17:16Z</time>
      </trkpt>
      <trkpt lat="48.22417" lon="-3.1724">
        <ele>128.2</ele>
        <time>2021-08-09T14:17:17Z</time>
      </trkpt>
      <trkpt lat="48.22422" lon="-3.17244">
        <ele>128.2</ele>
        <time>2021-08-09T14:17:18Z</time>
      </trkpt>
      <trkpt lat="48.22425" lon="-3.17249">
        <ele>128.2</ele>
        <time>2021-08-09T14:17:19Z</time>
      </trkpt>
      <trkpt lat="48.22428" lon="-3.17254">
        <ele>128.2</ele>
        <time>2021-08-09T14:17:20Z</time>
      </trkpt>
      <trkpt lat="48.22432" lon="-3.17259">
        <ele>128.2</ele>
        <time>2021-08-09T14:17:21Z</time>
      </trkpt>
      <trkpt lat="48.22436" lon="-3.17264">
        <ele>128</ele>
        <time>2021-08-09T14:17:22Z</time>
      </trkpt>
      <trkpt lat="48.2244" lon="-3.17269">
        <ele>128</ele>
        <time>2021-08-09T14:17:23Z</time>
      </trkpt>
      <trkpt lat="48.22445" lon="-3.17271">
        <ele>128</ele>
        <time>2021-08-09T14:17:24Z</time>
      </trkpt>
      <trkpt lat="48.22449" lon="-3.17277">
        <ele>128.2</ele>
        <time>2021-08-09T14:17:25Z</time>
      </trkpt>
      <trkpt lat="48.22453" lon="-3.17281">
        <ele>128.2</ele>
        <time>2021-08-09T14:17:26Z</time>
      </trkpt>
      <trkpt lat="48.22457" lon="-3.17286">
        <ele>128</ele>
        <time>2021-08-09T14:17:27Z</time>
      </trkpt>
      <trkpt lat="48.22461" lon="-3.17291">
        <ele>128.2</ele>
        <time>2021-08-09T14:17:28Z</time>
      </trkpt>
      <trkpt lat="48.22464" lon="-3.17297">
        <ele>128.2</ele>
        <time>2021-08-09T14:17:29Z</time>
      </trkpt>
      <trkpt lat="48.22468" lon="-3.17303">
        <ele>128</ele>
        <time>2021-08-09T14:17:30Z</time>
      </trkpt>
      <trkpt lat="48.22472" lon="-3.17309">
        <ele>128</ele>
        <time>2021-08-09T14:17:31Z</time>
      </trkpt>
      <trkpt lat="48.22475" lon="-3.17314">
        <ele>128</ele>
        <time>2021-08-09T14:17:32Z</time>
      </trkpt>
      <trkpt lat="48.22477" lon="-3.1732">
        <ele>128</ele>
        <time>2021-08-09T14:17:33Z</time>
      </trkpt>
      <trkpt lat="48.2248" lon="-3.17326">
        <ele>128</ele>
        <time>2021-08-09T14:17:34Z</time>
      </trkpt>
      <trkpt lat="48.22482" lon="-3.17332">
        <ele>127.8</ele>
        <time>2021-08-09T14:17:35Z</time>
      </trkpt>
      <trkpt lat="48.22484" lon="-3.17339">
        <ele>127.8</ele>
        <time>2021-08-09T14:17:36Z</time>
      </trkpt>
      <trkpt lat="48.22485" lon="-3.17345">
        <ele>127.8</ele>
        <time>2021-08-09T14:17:37Z</time>
      </trkpt>
      <trkpt lat="48.22486" lon="-3.17352">
        <ele>127.6</ele>
        <time>2021-08-09T14:17:38Z</time>
      </trkpt>
      <trkpt lat="48.22487" lon="-3.1736">
        <ele>127.6</ele>
        <time>2021-08-09T14:17:39Z</time>
      </trkpt>
      <trkpt lat="48.22487" lon="-3.17366">
        <ele>127.6</ele>
        <time>2021-08-09T14:17:40Z</time>
      </trkpt>
      <trkpt lat="48.22487" lon="-3.17373">
        <ele>127.6</ele>
        <time>2021-08-09T14:17:41Z</time>
      </trkpt>
      <trkpt lat="48.22487" lon="-3.1738">
        <ele>127.6</ele>
        <time>2021-08-09T14:17:42Z</time>
      </trkpt>
      <trkpt lat="48.22486" lon="-3.17386">
        <ele>127.8</ele>
        <time>2021-08-09T14:17:43Z</time>
      </trkpt>
      <trkpt lat="48.22486" lon="-3.17392">
        <ele>127.8</ele>
        <time>2021-08-09T14:17:44Z</time>
      </trkpt>
      <trkpt lat="48.22485" lon="-3.17398">
        <ele>127.8</ele>
        <time>2021-08-09T14:17:45Z</time>
      </trkpt>
      <trkpt lat="48.22484" lon="-3.17404">
        <ele>127.8</ele>
        <time>2021-08-09T14:17:46Z</time>
      </trkpt>
      <trkpt lat="48.22483" lon="-3.17411">
        <ele>127.8</ele>
        <time>2021-08-09T14:17:47Z</time>
      </trkpt>
      <trkpt lat="48.22482" lon="-3.17417">
        <ele>127.8</ele>
        <time>2021-08-09T14:17:48Z</time>
      </trkpt>
      <trkpt lat="48.22481" lon="-3.17424">
        <ele>128</ele>
        <time>2021-08-09T14:17:49Z</time>
      </trkpt>
      <trkpt lat="48.2248" lon="-3.1743">
        <ele>127.8</ele>
        <time>2021-08-09T14:17:50Z</time>
      </trkpt>
      <trkpt lat="48.22479" lon="-3.17436">
        <ele>127.8</ele>
        <time>2021-08-09T14:17:51Z</time>
      </trkpt>
      <trkpt lat="48.22479" lon="-3.17443">
        <ele>127.8</ele>
        <time>2021-08-09T14:17:52Z</time>
      </trkpt>
      <trkpt lat="48.22478" lon="-3.17449">
        <ele>128</ele>
        <time>2021-08-09T14:17:53Z</time>
      </trkpt>
      <trkpt lat="48.22477" lon="-3.17456">
        <ele>128</ele>
        <time>2021-08-09T14:17:54Z</time>
      </trkpt>
      <trkpt lat="48.22477" lon="-3.17463">
        <ele>128</ele>
        <time>2021-08-09T14:17:55Z</time>
      </trkpt>
      <trkpt lat="48.22477" lon="-3.1747">
        <ele>128</ele>
        <time>2021-08-09T14:17:56Z</time>
      </trkpt>
      <trkpt lat="48.22476" lon="-3.17476">
        <ele>128</ele>
        <time>2021-08-09T14:17:57Z</time>
      </trkpt>
      <trkpt lat="48.22476" lon="-3.17483">
        <ele>128</ele>
        <time>2021-08-09T14:17:58Z</time>
      </trkpt>
      <trkpt lat="48.22476" lon="-3.17489">
        <ele>128</ele>
        <time>2021-08-09T14:17:59Z</time>
      </trkpt>
      <trkpt lat="48.22476" lon="-3.17496">
        <ele>127.8</ele>
        <time>2021-08-09T14:18:00Z</time>
      </trkpt>
      <trkpt lat="48.22476" lon="-3.17502">
        <ele>127.8</ele>
        <time>2021-08-09T14:18:01Z</time>
      </trkpt>
      <trkpt lat="48.22476" lon="-3.17508">
        <ele>127.8</ele>
        <time>2021-08-09T14:18:02Z</time>
      </trkpt>
      <trkpt lat="48.22476" lon="-3.17513">
        <ele>127.8</ele>
        <time>2021-08-09T14:18:03Z</time>
      </trkpt>
      <trkpt lat="48.22476" lon="-3.17519">
        <ele>127.8</ele>
        <time>2021-08-09T14:18:04Z</time>
      </trkpt>
      <trkpt lat="48.22476" lon="-3.17525">
        <ele>127.8</ele>
        <time>2021-08-09T14:18:05Z</time>
      </trkpt>
      <trkpt lat="48.22476" lon="-3.17531">
        <ele>127.8</ele>
        <time>2021-08-09T14:18:06Z</time>
      </trkpt>
      <trkpt lat="48.22476" lon="-3.17538">
        <ele>127.8</ele>
        <time>2021-08-09T14:18:07Z</time>
      </trkpt>
      <trkpt lat="48.22475" lon="-3.17544">
        <ele>128</ele>
        <time>2021-08-09T14:18:08Z</time>
      </trkpt>
      <trkpt lat="48.22475" lon="-3.17551">
        <ele>128.2</ele>
        <time>2021-08-09T14:18:09Z</time>
      </trkpt>
      <trkpt lat="48.22474" lon="-3.17559">
        <ele>128.2</ele>
        <time>2021-08-09T14:18:10Z</time>
      </trkpt>
      <trkpt lat="48.22473" lon="-3.17567">
        <ele>128.4</ele>
        <time>2021-08-09T14:18:11Z</time>
      </trkpt>
      <trkpt lat="48.22473" lon="-3.17574">
        <ele>128.4</ele>
        <time>2021-08-09T14:18:12Z</time>
      </trkpt>
      <trkpt lat="48.22472" lon="-3.1758">
        <ele>128.4</ele>
        <time>2021-08-09T14:18:13Z</time>
      </trkpt>
      <trkpt lat="48.2247" lon="-3.17586">
        <ele>128.4</ele>
        <time>2021-08-09T14:18:14Z</time>
      </trkpt>
      <trkpt lat="48.22469" lon="-3.17591">
        <ele>128.4</ele>
        <time>2021-08-09T14:18:15Z</time>
      </trkpt>
      <trkpt lat="48.22468" lon="-3.17596">
        <ele>128.6</ele>
        <time>2021-08-09T14:18:16Z</time>
      </trkpt>
      <trkpt lat="48.22467" lon="-3.17602">
        <ele>128.6</ele>
        <time>2021-08-09T14:18:17Z</time>
      </trkpt>
      <trkpt lat="48.22465" lon="-3.17608">
        <ele>128.6</ele>
        <time>2021-08-09T14:18:18Z</time>
      </trkpt>
      <trkpt lat="48.22464" lon="-3.17614">
        <ele>128.6</ele>
        <time>2021-08-09T14:18:19Z</time>
      </trkpt>
      <trkpt lat="48.22463" lon="-3.1762">
        <ele>128.6</ele>
        <time>2021-08-09T14:18:20Z</time>
      </trkpt>
      <trkpt lat="48.22462" lon="-3.17626">
        <ele>128.6</ele>
        <time>2021-08-09T14:18:21Z</time>
      </trkpt>
      <trkpt lat="48.2246" lon="-3.17633">
        <ele>128.6</ele>
        <time>2021-08-09T14:18:22Z</time>
      </trkpt>
      <trkpt lat="48.22459" lon="-3.17639">
        <ele>128.6</ele>
        <time>2021-08-09T14:18:23Z</time>
      </trkpt>
      <trkpt lat="48.22457" lon="-3.17646">
        <ele>128.8</ele>
        <time>2021-08-09T14:18:24Z</time>
      </trkpt>
      <trkpt lat="48.22456" lon="-3.17652">
        <ele>128.8</ele>
        <time>2021-08-09T14:18:25Z</time>
      </trkpt>
      <trkpt lat="48.22454" lon="-3.17659">
        <ele>128.8</ele>
        <time>2021-08-09T14:18:26Z</time>
      </trkpt>
      <trkpt lat="48.22453" lon="-3.17666">
        <ele>128.8</ele>
        <time>2021-08-09T14:18:27Z</time>
      </trkpt>
      <trkpt lat="48.22452" lon="-3.17674">
        <ele>129</ele>
        <time>2021-08-09T14:18:28Z</time>
      </trkpt>
      <trkpt lat="48.22451" lon="-3.17681">
        <ele>129</ele>
        <time>2021-08-09T14:18:29Z</time>
      </trkpt>
      <trkpt lat="48.22451" lon="-3.17688">
        <ele>129</ele>
        <time>2021-08-09T14:18:30Z</time>
      </trkpt>
      <trkpt lat="48.2245" lon="-3.17695">
        <ele>129</ele>
        <time>2021-08-09T14:18:31Z</time>
      </trkpt>
      <trkpt lat="48.22449" lon="-3.17702">
        <ele>129</ele>
        <time>2021-08-09T14:18:32Z</time>
      </trkpt>
      <trkpt lat="48.22448" lon="-3.1771">
        <ele>129</ele>
        <time>2021-08-09T14:18:33Z</time>
      </trkpt>
      <trkpt lat="48.22448" lon="-3.17717">
        <ele>129</ele>
        <time>2021-08-09T14:18:34Z</time>
      </trkpt>
      <trkpt lat="48.22447" lon="-3.17723">
        <ele>129</ele>
        <time>2021-08-09T14:18:35Z</time>
      </trkpt>
      <trkpt lat="48.22447" lon="-3.1773">
        <ele>129</ele>
        <time>2021-08-09T14:18:36Z</time>
      </trkpt>
      <trkpt lat="48.22447" lon="-3.17737">
        <ele>129</ele>
        <time>2021-08-09T14:18:37Z</time>
      </trkpt>
      <trkpt lat="48.22447" lon="-3.17743">
        <ele>129</ele>
        <time>2021-08-09T14:18:38Z</time>
      </trkpt>
      <trkpt lat="48.22446" lon="-3.1775">
        <ele>129</ele>
        <time>2021-08-09T14:18:39Z</time>
      </trkpt>
      <trkpt lat="48.22446" lon="-3.17756">
        <ele>129</ele>
        <time>2021-08-09T14:18:40Z</time>
      </trkpt>
      <trkpt lat="48.22446" lon="-3.17763">
        <ele>129</ele>
        <time>2021-08-09T14:18:41Z</time>
      </trkpt>
      <trkpt lat="48.22446" lon="-3.1777">
        <ele>129</ele>
        <time>2021-08-09T14:18:42Z</time>
      </trkpt>
      <trkpt lat="48.22446" lon="-3.17776">
        <ele>129</ele>
        <time>2021-08-09T14:18:43Z</time>
      </trkpt>
      <trkpt lat="48.22446" lon="-3.17783">
        <ele>129</ele>
        <time>2021-08-09T14:18:44Z</time>
      </trkpt>
      <trkpt lat="48.22445" lon="-3.17789">
        <ele>129</ele>
        <time>2021-08-09T14:18:45Z</time>
      </trkpt>
      <trkpt lat="48.22445" lon="-3.17795">
        <ele>129</ele>
        <time>2021-08-09T14:18:46Z</time>
      </trkpt>
      <trkpt lat="48.22445" lon="-3.178">
        <ele>129.2</ele>
        <time>2021-08-09T14:18:47Z</time>
      </trkpt>
      <trkpt lat="48.22445" lon="-3.17805">
        <ele>129.2</ele>
        <time>2021-08-09T14:18:48Z</time>
      </trkpt>
      <trkpt lat="48.22445" lon="-3.1781">
        <ele>129.2</ele>
        <time>2021-08-09T14:18:49Z</time>
      </trkpt>
      <trkpt lat="48.22445" lon="-3.17814">
        <ele>129.2</ele>
        <time>2021-08-09T14:18:50Z</time>
      </trkpt>
      <trkpt lat="48.22445" lon="-3.17818">
        <ele>129.2</ele>
        <time>2021-08-09T14:18:51Z</time>
      </trkpt>
      <trkpt lat="48.22445" lon="-3.17821">
        <ele>129.2</ele>
        <time>2021-08-09T14:18:52Z</time>
      </trkpt>
      <trkpt lat="48.22446" lon="-3.17824">
        <ele>129.2</ele>
        <time>2021-08-09T14:18:53Z</time>
      </trkpt>
      <trkpt lat="48.22446" lon="-3.17826">
        <ele>129.2</ele>
        <time>2021-08-09T14:18:54Z</time>
      </trkpt>
      <trkpt lat="48.22447" lon="-3.17829">
        <ele>129.4</ele>
        <time>2021-08-09T14:18:55Z</time>
      </trkpt>
      <trkpt lat="48.22449" lon="-3.1783">
        <ele>129.6</ele>
        <time>2021-08-09T14:18:56Z</time>
      </trkpt>
      <trkpt lat="48.22451" lon="-3.1783">
        <ele>129.6</ele>
        <time>2021-08-09T14:18:57Z</time>
      </trkpt>
      <trkpt lat="48.22454" lon="-3.1783">
        <ele>130</ele>
        <time>2021-08-09T14:18:58Z</time>
      </trkpt>
      <trkpt lat="48.22456" lon="-3.1783">
        <ele>130.4</ele>
        <time>2021-08-09T14:18:59Z</time>
      </trkpt>
      <trkpt lat="48.22459" lon="-3.1783">
        <ele>130.6</ele>
        <time>2021-08-09T14:19:00Z</time>
      </trkpt>
      <trkpt lat="48.22462" lon="-3.1783">
        <ele>130.6</ele>
        <time>2021-08-09T14:19:01Z</time>
      </trkpt>
      <trkpt lat="48.22464" lon="-3.17832">
        <ele>130.6</ele>
        <time>2021-08-09T14:19:02Z</time>
      </trkpt>
      <trkpt lat="48.22466" lon="-3.17836">
        <ele>130.8</ele>
        <time>2021-08-09T14:19:03Z</time>
      </trkpt>
      <trkpt lat="48.22467" lon="-3.17841">
        <ele>131</ele>
        <time>2021-08-09T14:19:04Z</time>
      </trkpt>
      <trkpt lat="48.22467" lon="-3.17845">
        <ele>131</ele>
        <time>2021-08-09T14:19:05Z</time>
      </trkpt>
      <trkpt lat="48.22467" lon="-3.17848">
        <ele>131</ele>
        <time>2021-08-09T14:19:06Z</time>
      </trkpt>
      <trkpt lat="48.22468" lon="-3.17851">
        <ele>131</ele>
        <time>2021-08-09T14:19:07Z</time>
      </trkpt>
      <trkpt lat="48.22468" lon="-3.17854">
        <ele>131</ele>
        <time>2021-08-09T14:19:08Z</time>
      </trkpt>
      <trkpt lat="48.22468" lon="-3.17856">
        <ele>131</ele>
        <time>2021-08-09T14:19:09Z</time>
      </trkpt>
      <trkpt lat="48.22469" lon="-3.17857">
        <ele>130.8</ele>
        <time>2021-08-09T14:19:10Z</time>
      </trkpt>
      <trkpt lat="48.22469" lon="-3.17859">
        <ele>130.8</ele>
        <time>2021-08-09T14:19:11Z</time>
      </trkpt>
      <trkpt lat="48.22469" lon="-3.1786">
        <ele>130.8</ele>
        <time>2021-08-09T14:19:12Z</time>
      </trkpt>
      <trkpt lat="48.22468" lon="-3.17861">
        <ele>130.8</ele>
        <time>2021-08-09T14:19:13Z</time>
      </trkpt>
      <trkpt lat="48.22468" lon="-3.17863">
        <ele>130.8</ele>
        <time>2021-08-09T14:19:14Z</time>
      </trkpt>
      <trkpt lat="48.22468" lon="-3.17864">
        <ele>130.8</ele>
        <time>2021-08-09T14:19:15Z</time>
      </trkpt>
      <trkpt lat="48.22468" lon="-3.17865">
        <ele>130.8</ele>
        <time>2021-08-09T14:19:16Z</time>
      </trkpt>
      <trkpt lat="48.22468" lon="-3.17867">
        <ele>130.8</ele>
        <time>2021-08-09T14:19:17Z</time>
      </trkpt>
      <trkpt lat="48.22468" lon="-3.17868">
        <ele>130.8</ele>
        <time>2021-08-09T14:19:18Z</time>
      </trkpt>
      <trkpt lat="48.22468" lon="-3.17869">
        <ele>130.8</ele>
        <time>2021-08-09T14:19:19Z</time>
      </trkpt>
      <trkpt lat="48.22467" lon="-3.17871">
        <ele>130.8</ele>
        <time>2021-08-09T14:19:20Z</time>
      </trkpt>
      <trkpt lat="48.22467" lon="-3.17872">
        <ele>130.8</ele>
        <time>2021-08-09T14:19:21Z</time>
      </trkpt>
      <trkpt lat="48.22467" lon="-3.17873">
        <ele>130.8</ele>
        <time>2021-08-09T14:19:22Z</time>
      </trkpt>
      <trkpt lat="48.22467" lon="-3.17875">
        <ele>130.8</ele>
        <time>2021-08-09T14:19:23Z</time>
      </trkpt>
      <trkpt lat="48.22467" lon="-3.17877">
        <ele>130.8</ele>
        <time>2021-08-09T14:19:24Z</time>
      </trkpt>
      <trkpt lat="48.22467" lon="-3.17879">
        <ele>130.8</ele>
        <time>2021-08-09T14:19:25Z</time>
      </trkpt>
      <trkpt lat="48.22468" lon="-3.17882">
        <ele>130.8</ele>
        <time>2021-08-09T14:19:26Z</time>
      </trkpt>
      <trkpt lat="48.22468" lon="-3.17886">
        <ele>130.8</ele>
        <time>2021-08-09T14:19:27Z</time>
      </trkpt>
      <trkpt lat="48.22468" lon="-3.17891">
        <ele>130.8</ele>
        <time>2021-08-09T14:19:28Z</time>
      </trkpt>
      <trkpt lat="48.22468" lon="-3.17897">
        <ele>130.8</ele>
        <time>2021-08-09T14:19:29Z</time>
      </trkpt>
      <trkpt lat="48.22468" lon="-3.17902">
        <ele>130.8</ele>
        <time>2021-08-09T14:19:30Z</time>
      </trkpt>
      <trkpt lat="48.22468" lon="-3.17908">
        <ele>130.8</ele>
        <time>2021-08-09T14:19:31Z</time>
      </trkpt>
      <trkpt lat="48.22468" lon="-3.17914">
        <ele>130.8</ele>
        <time>2021-08-09T14:19:32Z</time>
      </trkpt>
      <trkpt lat="48.22469" lon="-3.17919">
        <ele>130.6</ele>
        <time>2021-08-09T14:19:33Z</time>
      </trkpt>
      <trkpt lat="48.22469" lon="-3.17924">
        <ele>130.4</ele>
        <time>2021-08-09T14:19:34Z</time>
      </trkpt>
      <trkpt lat="48.2247" lon="-3.1793">
        <ele>130.4</ele>
        <time>2021-08-09T14:19:35Z</time>
      </trkpt>
      <trkpt lat="48.22471" lon="-3.17936">
        <ele>130.2</ele>
        <time>2021-08-09T14:19:36Z</time>
      </trkpt>
      <trkpt lat="48.22472" lon="-3.17942">
        <ele>130.2</ele>
        <time>2021-08-09T14:19:37Z</time>
      </trkpt>
      <trkpt lat="48.22472" lon="-3.17949">
        <ele>130.2</ele>
        <time>2021-08-09T14:19:38Z</time>
      </trkpt>
      <trkpt lat="48.22473" lon="-3.17955">
        <ele>130.2</ele>
        <time>2021-08-09T14:19:39Z</time>
      </trkpt>
      <trkpt lat="48.22473" lon="-3.17961">
        <ele>130.2</ele>
        <time>2021-08-09T14:19:40Z</time>
      </trkpt>
      <trkpt lat="48.22474" lon="-3.17967">
        <ele>130.2</ele>
        <time>2021-08-09T14:19:41Z</time>
      </trkpt>
      <trkpt lat="48.22475" lon="-3.17973">
        <ele>130.2</ele>
        <time>2021-08-09T14:19:42Z</time>
      </trkpt>
      <trkpt lat="48.22476" lon="-3.17979">
        <ele>130.2</ele>
        <time>2021-08-09T14:19:43Z</time>
      </trkpt>
      <trkpt lat="48.22476" lon="-3.17985">
        <ele>130.2</ele>
        <time>2021-08-09T14:19:44Z</time>
      </trkpt>
      <trkpt lat="48.22477" lon="-3.1799">
        <ele>130.2</ele>
        <time>2021-08-09T14:19:45Z</time>
      </trkpt>
      <trkpt lat="48.22478" lon="-3.17996">
        <ele>130.2</ele>
        <time>2021-08-09T14:19:46Z</time>
      </trkpt>
      <trkpt lat="48.2248" lon="-3.18001">
        <ele>130.4</ele>
        <time>2021-08-09T14:19:47Z</time>
      </trkpt>
      <trkpt lat="48.22481" lon="-3.18007">
        <ele>130.4</ele>
        <time>2021-08-09T14:19:48Z</time>
      </trkpt>
      <trkpt lat="48.22482" lon="-3.18012">
        <ele>130.4</ele>
        <time>2021-08-09T14:19:49Z</time>
      </trkpt>
      <trkpt lat="48.22483" lon="-3.18018">
        <ele>130.4</ele>
        <time>2021-08-09T14:19:50Z</time>
      </trkpt>
      <trkpt lat="48.22484" lon="-3.18023">
        <ele>130.4</ele>
        <time>2021-08-09T14:19:51Z</time>
      </trkpt>
      <trkpt lat="48.22485" lon="-3.18028">
        <ele>130.4</ele>
        <time>2021-08-09T14:19:52Z</time>
      </trkpt>
      <trkpt lat="48.22487" lon="-3.18033">
        <ele>130.4</ele>
        <time>2021-08-09T14:19:53Z</time>
      </trkpt>
      <trkpt lat="48.22488" lon="-3.18039">
        <ele>130.4</ele>
        <time>2021-08-09T14:19:54Z</time>
      </trkpt>
      <trkpt lat="48.22489" lon="-3.18044">
        <ele>130.4</ele>
        <time>2021-08-09T14:19:55Z</time>
      </trkpt>
      <trkpt lat="48.2249" lon="-3.18049">
        <ele>130.4</ele>
        <time>2021-08-09T14:19:56Z</time>
      </trkpt>
      <trkpt lat="48.22491" lon="-3.18055">
        <ele>130.4</ele>
        <time>2021-08-09T14:19:57Z</time>
      </trkpt>
      <trkpt lat="48.22492" lon="-3.18061">
        <ele>130.4</ele>
        <time>2021-08-09T14:19:58Z</time>
      </trkpt>
      <trkpt lat="48.22494" lon="-3.18066">
        <ele>130.4</ele>
        <time>2021-08-09T14:19:59Z</time>
      </trkpt>
      <trkpt lat="48.22495" lon="-3.18072">
        <ele>130.4</ele>
        <time>2021-08-09T14:20:00Z</time>
      </trkpt>
      <trkpt lat="48.22496" lon="-3.18078">
        <ele>130.4</ele>
        <time>2021-08-09T14:20:01Z</time>
      </trkpt>
      <trkpt lat="48.22498" lon="-3.18084">
        <ele>130.4</ele>
        <time>2021-08-09T14:20:02Z</time>
      </trkpt>
      <trkpt lat="48.22499" lon="-3.1809">
        <ele>130.4</ele>
        <time>2021-08-09T14:20:03Z</time>
      </trkpt>
      <trkpt lat="48.225" lon="-3.18096">
        <ele>130.4</ele>
        <time>2021-08-09T14:20:04Z</time>
      </trkpt>
      <trkpt lat="48.22501" lon="-3.18101">
        <ele>130.4</ele>
        <time>2021-08-09T14:20:05Z</time>
      </trkpt>
      <trkpt lat="48.22502" lon="-3.18107">
        <ele>130.4</ele>
        <time>2021-08-09T14:20:06Z</time>
      </trkpt>
      <trkpt lat="48.22503" lon="-3.18113">
        <ele>130.4</ele>
        <time>2021-08-09T14:20:07Z</time>
      </trkpt>
      <trkpt lat="48.22505" lon="-3.18118">
        <ele>130.4</ele>
        <time>2021-08-09T14:20:08Z</time>
      </trkpt>
      <trkpt lat="48.22506" lon="-3.18124">
        <ele>130.4</ele>
        <time>2021-08-09T14:20:09Z</time>
      </trkpt>
      <trkpt lat="48.22507" lon="-3.1813">
        <ele>130.4</ele>
        <time>2021-08-09T14:20:10Z</time>
      </trkpt>
      <trkpt lat="48.22509" lon="-3.18136">
        <ele>130.4</ele>
        <time>2021-08-09T14:20:11Z</time>
      </trkpt>
      <trkpt lat="48.22511" lon="-3.18142">
        <ele>130.4</ele>
        <time>2021-08-09T14:20:12Z</time>
      </trkpt>
      <trkpt lat="48.22513" lon="-3.18149">
        <ele>130.4</ele>
        <time>2021-08-09T14:20:13Z</time>
      </trkpt>
      <trkpt lat="48.22515" lon="-3.18154">
        <ele>130.2</ele>
        <time>2021-08-09T14:20:14Z</time>
      </trkpt>
      <trkpt lat="48.22517" lon="-3.1816">
        <ele>130.2</ele>
        <time>2021-08-09T14:20:15Z</time>
      </trkpt>
      <trkpt lat="48.22518" lon="-3.18166">
        <ele>130.2</ele>
        <time>2021-08-09T14:20:16Z</time>
      </trkpt>
      <trkpt lat="48.2252" lon="-3.18172">
        <ele>130.2</ele>
        <time>2021-08-09T14:20:17Z</time>
      </trkpt>
      <trkpt lat="48.22522" lon="-3.18178">
        <ele>130.2</ele>
        <time>2021-08-09T14:20:18Z</time>
      </trkpt>
      <trkpt lat="48.22524" lon="-3.18184">
        <ele>130.2</ele>
        <time>2021-08-09T14:20:19Z</time>
      </trkpt>
      <trkpt lat="48.22525" lon="-3.1819">
        <ele>130.2</ele>
        <time>2021-08-09T14:20:20Z</time>
      </trkpt>
      <trkpt lat="48.22527" lon="-3.18196">
        <ele>130</ele>
        <time>2021-08-09T14:20:21Z</time>
      </trkpt>
      <trkpt lat="48.22529" lon="-3.18201">
        <ele>130</ele>
        <time>2021-08-09T14:20:22Z</time>
      </trkpt>
      <trkpt lat="48.2253" lon="-3.18207">
        <ele>130</ele>
        <time>2021-08-09T14:20:23Z</time>
      </trkpt>
      <trkpt lat="48.22532" lon="-3.18212">
        <ele>130</ele>
        <time>2021-08-09T14:20:24Z</time>
      </trkpt>
      <trkpt lat="48.22534" lon="-3.18218">
        <ele>130</ele>
        <time>2021-08-09T14:20:25Z</time>
      </trkpt>
      <trkpt lat="48.22535" lon="-3.18223">
        <ele>130</ele>
        <time>2021-08-09T14:20:26Z</time>
      </trkpt>
      <trkpt lat="48.22537" lon="-3.18229">
        <ele>130</ele>
        <time>2021-08-09T14:20:27Z</time>
      </trkpt>
      <trkpt lat="48.22539" lon="-3.18235">
        <ele>130</ele>
        <time>2021-08-09T14:20:28Z</time>
      </trkpt>
      <trkpt lat="48.2254" lon="-3.18241">
        <ele>130</ele>
        <time>2021-08-09T14:20:29Z</time>
      </trkpt>
      <trkpt lat="48.22542" lon="-3.18247">
        <ele>130</ele>
        <time>2021-08-09T14:20:30Z</time>
      </trkpt>
      <trkpt lat="48.22543" lon="-3.18252">
        <ele>130</ele>
        <time>2021-08-09T14:20:31Z</time>
      </trkpt>
      <trkpt lat="48.22544" lon="-3.18258">
        <ele>130</ele>
        <time>2021-08-09T14:20:32Z</time>
      </trkpt>
      <trkpt lat="48.22546" lon="-3.18264">
        <ele>130</ele>
        <time>2021-08-09T14:20:33Z</time>
      </trkpt>
      <trkpt lat="48.22547" lon="-3.1827">
        <ele>130</ele>
        <time>2021-08-09T14:20:34Z</time>
      </trkpt>
      <trkpt lat="48.22548" lon="-3.18276">
        <ele>130</ele>
        <time>2021-08-09T14:20:35Z</time>
      </trkpt>
      <trkpt lat="48.22549" lon="-3.18281">
        <ele>130</ele>
        <time>2021-08-09T14:20:36Z</time>
      </trkpt>
      <trkpt lat="48.2255" lon="-3.18286">
        <ele>130</ele>
        <time>2021-08-09T14:20:37Z</time>
      </trkpt>
      <trkpt lat="48.22551" lon="-3.18291">
        <ele>130</ele>
        <time>2021-08-09T14:20:38Z</time>
      </trkpt>
      <trkpt lat="48.22552" lon="-3.18296">
        <ele>130</ele>
        <time>2021-08-09T14:20:39Z</time>
      </trkpt>
      <trkpt lat="48.22553" lon="-3.183">
        <ele>130.2</ele>
        <time>2021-08-09T14:20:40Z</time>
      </trkpt>
      <trkpt lat="48.22554" lon="-3.18304">
        <ele>130.2</ele>
        <time>2021-08-09T14:20:41Z</time>
      </trkpt>
      <trkpt lat="48.22554" lon="-3.18308">
        <ele>130.2</ele>
        <time>2021-08-09T14:20:42Z</time>
      </trkpt>
      <trkpt lat="48.22555" lon="-3.18311">
        <ele>130.2</ele>
        <time>2021-08-09T14:20:43Z</time>
      </trkpt>
      <trkpt lat="48.22557" lon="-3.18312">
        <ele>130.2</ele>
        <time>2021-08-09T14:20:44Z</time>
      </trkpt>
      <trkpt lat="48.22558" lon="-3.18313">
        <ele>130.2</ele>
        <time>2021-08-09T14:20:45Z</time>
      </trkpt>
      <trkpt lat="48.22559" lon="-3.18313">
        <ele>130.4</ele>
        <time>2021-08-09T14:20:46Z</time>
      </trkpt>
      <trkpt lat="48.2256" lon="-3.18312">
        <ele>130.4</ele>
        <time>2021-08-09T14:20:47Z</time>
      </trkpt>
      <trkpt lat="48.2256" lon="-3.1831">
        <ele>130.4</ele>
        <time>2021-08-09T14:20:48Z</time>
      </trkpt>
      <trkpt lat="48.22559" lon="-3.18309">
        <ele>130.4</ele>
        <time>2021-08-09T14:20:49Z</time>
      </trkpt>
      <trkpt lat="48.22559" lon="-3.18309">
        <ele>130.6</ele>
        <time>2021-08-09T14:20:50Z</time>
      </trkpt>
      <trkpt lat="48.22559" lon="-3.1831">
        <ele>130.6</ele>
        <time>2021-08-09T14:20:51Z</time>
      </trkpt>
      <trkpt lat="48.22562" lon="-3.18318">
        <ele>133.4</ele>
        <time>2021-08-10T09:06:13Z</time>
      </trkpt>
      <trkpt lat="48.2256" lon="-3.1832">
        <ele>133.4</ele>
        <time>2021-08-10T09:06:14Z</time>
      </trkpt>
      <trkpt lat="48.22558" lon="-3.18321">
        <ele>133.4</ele>
        <time>2021-08-10T09:06:15Z</time>
      </trkpt>
      <trkpt lat="48.22556" lon="-3.18323">
        <ele>133.4</ele>
        <time>2021-08-10T09:06:16Z</time>
      </trkpt>
      <trkpt lat="48.22554" lon="-3.18323">
        <ele>133.4</ele>
        <time>2021-08-10T09:06:17Z</time>
      </trkpt>
      <trkpt lat="48.22553" lon="-3.18322">
        <ele>133.4</ele>
        <time>2021-08-10T09:06:18Z</time>
      </trkpt>
      <trkpt lat="48.22552" lon="-3.18319">
        <ele>133.4</ele>
        <time>2021-08-10T09:06:19Z</time>
      </trkpt>
      <trkpt lat="48.2255" lon="-3.18316">
        <ele>133.4</ele>
        <time>2021-08-10T09:06:20Z</time>
      </trkpt>
      <trkpt lat="48.22548" lon="-3.18313">
        <ele>133.4</ele>
        <time>2021-08-10T09:06:21Z</time>
      </trkpt>
      <trkpt lat="48.22547" lon="-3.1831">
        <ele>133.4</ele>
        <time>2021-08-10T09:06:22Z</time>
      </trkpt>
      <trkpt lat="48.22545" lon="-3.18306">
        <ele>133.4</ele>
        <time>2021-08-10T09:06:23Z</time>
      </trkpt>
      <trkpt lat="48.22544" lon="-3.18302">
        <ele>133.4</ele>
        <time>2021-08-10T09:06:24Z</time>
      </trkpt>
      <trkpt lat="48.22543" lon="-3.18297">
        <ele>133.4</ele>
        <time>2021-08-10T09:06:25Z</time>
      </trkpt>
      <trkpt lat="48.22542" lon="-3.18292">
        <ele>133.6</ele>
        <time>2021-08-10T09:06:26Z</time>
      </trkpt>
      <trkpt lat="48.22541" lon="-3.18287">
        <ele>133.4</ele>
        <time>2021-08-10T09:06:27Z</time>
      </trkpt>
      <trkpt lat="48.22539" lon="-3.18281">
        <ele>133.4</ele>
        <time>2021-08-10T09:06:28Z</time>
      </trkpt>
      <trkpt lat="48.22538" lon="-3.18276">
        <ele>133.4</ele>
        <time>2021-08-10T09:06:29Z</time>
      </trkpt>
      <trkpt lat="48.22536" lon="-3.18271">
        <ele>133.4</ele>
        <time>2021-08-10T09:06:30Z</time>
      </trkpt>
      <trkpt lat="48.22535" lon="-3.18266">
        <ele>133.4</ele>
        <time>2021-08-10T09:06:31Z</time>
      </trkpt>
      <trkpt lat="48.22533" lon="-3.1826">
        <ele>133.4</ele>
        <time>2021-08-10T09:06:32Z</time>
      </trkpt>
      <trkpt lat="48.22532" lon="-3.18255">
        <ele>133.4</ele>
        <time>2021-08-10T09:06:33Z</time>
      </trkpt>
      <trkpt lat="48.2253" lon="-3.18249">
        <ele>133.4</ele>
        <time>2021-08-10T09:06:34Z</time>
      </trkpt>
      <trkpt lat="48.22529" lon="-3.18243">
        <ele>133.4</ele>
        <time>2021-08-10T09:06:35Z</time>
      </trkpt>
      <trkpt lat="48.22528" lon="-3.18236">
        <ele>133.4</ele>
        <time>2021-08-10T09:06:36Z</time>
      </trkpt>
      <trkpt lat="48.22527" lon="-3.18231">
        <ele>133.2</ele>
        <time>2021-08-10T09:06:37Z</time>
      </trkpt>
      <trkpt lat="48.22526" lon="-3.18226">
        <ele>133.2</ele>
        <time>2021-08-10T09:06:38Z</time>
      </trkpt>
      <trkpt lat="48.22525" lon="-3.18222">
        <ele>133.2</ele>
        <time>2021-08-10T09:06:39Z</time>
      </trkpt>
      <trkpt lat="48.22524" lon="-3.18218">
        <ele>133.2</ele>
        <time>2021-08-10T09:06:40Z</time>
      </trkpt>
      <trkpt lat="48.22522" lon="-3.18212">
        <ele>133</ele>
        <time>2021-08-10T09:06:41Z</time>
      </trkpt>
      <trkpt lat="48.2252" lon="-3.18207">
        <ele>133</ele>
        <time>2021-08-10T09:06:42Z</time>
      </trkpt>
      <trkpt lat="48.22519" lon="-3.18202">
        <ele>133</ele>
        <time>2021-08-10T09:06:43Z</time>
      </trkpt>
      <trkpt lat="48.22517" lon="-3.18196">
        <ele>133</ele>
        <time>2021-08-10T09:06:44Z</time>
      </trkpt>
      <trkpt lat="48.22515" lon="-3.18189">
        <ele>132.8</ele>
        <time>2021-08-10T09:06:45Z</time>
      </trkpt>
      <trkpt lat="48.22514" lon="-3.18183">
        <ele>132.8</ele>
        <time>2021-08-10T09:06:46Z</time>
      </trkpt>
      <trkpt lat="48.22512" lon="-3.18177">
        <ele>132.8</ele>
        <time>2021-08-10T09:06:47Z</time>
      </trkpt>
      <trkpt lat="48.2251" lon="-3.18169">
        <ele>132.8</ele>
        <time>2021-08-10T09:06:48Z</time>
      </trkpt>
      <trkpt lat="48.22508" lon="-3.18163">
        <ele>132.8</ele>
        <time>2021-08-10T09:06:49Z</time>
      </trkpt>
      <trkpt lat="48.22507" lon="-3.18157">
        <ele>132.8</ele>
        <time>2021-08-10T09:06:50Z</time>
      </trkpt>
      <trkpt lat="48.22505" lon="-3.18151">
        <ele>132.8</ele>
        <time>2021-08-10T09:06:51Z</time>
      </trkpt>
      <trkpt lat="48.22504" lon="-3.18145">
        <ele>132.8</ele>
        <time>2021-08-10T09:06:52Z</time>
      </trkpt>
      <trkpt lat="48.22503" lon="-3.18138">
        <ele>132.8</ele>
        <time>2021-08-10T09:06:53Z</time>
      </trkpt>
      <trkpt lat="48.22502" lon="-3.18133">
        <ele>132.6</ele>
        <time>2021-08-10T09:06:54Z</time>
      </trkpt>
      <trkpt lat="48.22502" lon="-3.18128">
        <ele>132.6</ele>
        <time>2021-08-10T09:06:55Z</time>
      </trkpt>
      <trkpt lat="48.225" lon="-3.18121">
        <ele>132.6</ele>
        <time>2021-08-10T09:06:56Z</time>
      </trkpt>
      <trkpt lat="48.22499" lon="-3.18115">
        <ele>132.6</ele>
        <time>2021-08-10T09:06:57Z</time>
      </trkpt>
      <trkpt lat="48.22498" lon="-3.18109">
        <ele>132.4</ele>
        <time>2021-08-10T09:06:58Z</time>
      </trkpt>
      <trkpt lat="48.22497" lon="-3.18103">
        <ele>132.4</ele>
        <time>2021-08-10T09:06:59Z</time>
      </trkpt>
      <trkpt lat="48.22496" lon="-3.18097">
        <ele>132.4</ele>
        <time>2021-08-10T09:07:00Z</time>
      </trkpt>
      <trkpt lat="48.22494" lon="-3.1809">
        <ele>132.4</ele>
        <time>2021-08-10T09:07:01Z</time>
      </trkpt>
      <trkpt lat="48.22493" lon="-3.18084">
        <ele>132.4</ele>
        <time>2021-08-10T09:07:02Z</time>
      </trkpt>
      <trkpt lat="48.22491" lon="-3.18078">
        <ele>132.4</ele>
        <time>2021-08-10T09:07:03Z</time>
      </trkpt>
      <trkpt lat="48.22489" lon="-3.18071">
        <ele>132.4</ele>
        <time>2021-08-10T09:07:04Z</time>
      </trkpt>
      <trkpt lat="48.22488" lon="-3.18065">
        <ele>132.4</ele>
        <time>2021-08-10T09:07:05Z</time>
      </trkpt>
      <trkpt lat="48.22486" lon="-3.18057">
        <ele>132.4</ele>
        <time>2021-08-10T09:07:06Z</time>
      </trkpt>
      <trkpt lat="48.22485" lon="-3.18049">
        <ele>132.4</ele>
        <time>2021-08-10T09:07:07Z</time>
      </trkpt>
      <trkpt lat="48.22484" lon="-3.18041">
        <ele>132.4</ele>
        <time>2021-08-10T09:07:08Z</time>
      </trkpt>
      <trkpt lat="48.22482" lon="-3.18033">
        <ele>132.2</ele>
        <time>2021-08-10T09:07:09Z</time>
      </trkpt>
      <trkpt lat="48.2248" lon="-3.18025">
        <ele>132.2</ele>
        <time>2021-08-10T09:07:10Z</time>
      </trkpt>
      <trkpt lat="48.22478" lon="-3.18015">
        <ele>132.2</ele>
        <time>2021-08-10T09:07:11Z</time>
      </trkpt>
      <trkpt lat="48.22477" lon="-3.18006">
        <ele>132.2</ele>
        <time>2021-08-10T09:07:12Z</time>
      </trkpt>
      <trkpt lat="48.22475" lon="-3.17998">
        <ele>132.2</ele>
        <time>2021-08-10T09:07:13Z</time>
      </trkpt>
      <trkpt lat="48.22473" lon="-3.1799">
        <ele>132.2</ele>
        <time>2021-08-10T09:07:14Z</time>
      </trkpt>
      <trkpt lat="48.22471" lon="-3.17981">
        <ele>132.4</ele>
        <time>2021-08-10T09:07:15Z</time>
      </trkpt>
      <trkpt lat="48.22469" lon="-3.17973">
        <ele>132.2</ele>
        <time>2021-08-10T09:07:16Z</time>
      </trkpt>
      <trkpt lat="48.22468" lon="-3.17965">
        <ele>132.2</ele>
        <time>2021-08-10T09:07:17Z</time>
      </trkpt>
      <trkpt lat="48.22468" lon="-3.17958">
        <ele>132.2</ele>
        <time>2021-08-10T09:07:18Z</time>
      </trkpt>
      <trkpt lat="48.22468" lon="-3.17952">
        <ele>132.4</ele>
        <time>2021-08-10T09:07:19Z</time>
      </trkpt>
      <trkpt lat="48.22468" lon="-3.17946">
        <ele>132.4</ele>
        <time>2021-08-10T09:07:20Z</time>
      </trkpt>
      <trkpt lat="48.22469" lon="-3.17941">
        <ele>132.4</ele>
        <time>2021-08-10T09:07:21Z</time>
      </trkpt>
      <trkpt lat="48.22469" lon="-3.17936">
        <ele>132.4</ele>
        <time>2021-08-10T09:07:22Z</time>
      </trkpt>
      <trkpt lat="48.22469" lon="-3.1793">
        <ele>132.4</ele>
        <time>2021-08-10T09:07:23Z</time>
      </trkpt>
      <trkpt lat="48.22468" lon="-3.17924">
        <ele>132.4</ele>
        <time>2021-08-10T09:07:24Z</time>
      </trkpt>
      <trkpt lat="48.22468" lon="-3.17918">
        <ele>132.6</ele>
        <time>2021-08-10T09:07:25Z</time>
      </trkpt>
      <trkpt lat="48.22467" lon="-3.17913">
        <ele>132.6</ele>
        <time>2021-08-10T09:07:26Z</time>
      </trkpt>
      <trkpt lat="48.22467" lon="-3.17907">
        <ele>132.6</ele>
        <time>2021-08-10T09:07:27Z</time>
      </trkpt>
      <trkpt lat="48.22467" lon="-3.17902">
        <ele>132.6</ele>
        <time>2021-08-10T09:07:28Z</time>
      </trkpt>
      <trkpt lat="48.22467" lon="-3.17897">
        <ele>132.6</ele>
        <time>2021-08-10T09:07:29Z</time>
      </trkpt>
      <trkpt lat="48.22466" lon="-3.17893">
        <ele>132.6</ele>
        <time>2021-08-10T09:07:30Z</time>
      </trkpt>
      <trkpt lat="48.22466" lon="-3.17889">
        <ele>132.8</ele>
        <time>2021-08-10T09:07:31Z</time>
      </trkpt>
      <trkpt lat="48.22465" lon="-3.17886">
        <ele>132.8</ele>
        <time>2021-08-10T09:07:32Z</time>
      </trkpt>
      <trkpt lat="48.22465" lon="-3.17882">
        <ele>132.8</ele>
        <time>2021-08-10T09:07:33Z</time>
      </trkpt>
      <trkpt lat="48.22465" lon="-3.17879">
        <ele>132.8</ele>
        <time>2021-08-10T09:07:34Z</time>
      </trkpt>
      <trkpt lat="48.22465" lon="-3.17876">
        <ele>132.8</ele>
        <time>2021-08-10T09:07:35Z</time>
      </trkpt>
      <trkpt lat="48.22465" lon="-3.17873">
        <ele>132.8</ele>
        <time>2021-08-10T09:07:36Z</time>
      </trkpt>
      <trkpt lat="48.22464" lon="-3.1787">
        <ele>133</ele>
        <time>2021-08-10T09:07:37Z</time>
      </trkpt>
      <trkpt lat="48.22464" lon="-3.17868">
        <ele>133</ele>
        <time>2021-08-10T09:07:38Z</time>
      </trkpt>
      <trkpt lat="48.22464" lon="-3.17864">
        <ele>133</ele>
        <time>2021-08-10T09:07:39Z</time>
      </trkpt>
      <trkpt lat="48.22464" lon="-3.17862">
        <ele>133.2</ele>
        <time>2021-08-10T09:07:40Z</time>
      </trkpt>
      <trkpt lat="48.22463" lon="-3.17857">
        <ele>133.2</ele>
        <time>2021-08-10T09:07:42Z</time>
      </trkpt>
      <trkpt lat="48.22463" lon="-3.17856">
        <ele>133.2</ele>
        <time>2021-08-10T09:07:43Z</time>
      </trkpt>
      <trkpt lat="48.22463" lon="-3.17855">
        <ele>133.2</ele>
        <time>2021-08-10T09:07:44Z</time>
      </trkpt>
      <trkpt lat="48.22463" lon="-3.17855">
        <ele>133.2</ele>
        <time>2021-08-10T09:07:45Z</time>
      </trkpt>
      <trkpt lat="48.22461" lon="-3.17852">
        <ele>133.2</ele>
        <time>2021-08-10T09:07:53Z</time>
      </trkpt>
      <trkpt lat="48.2246" lon="-3.17852">
        <ele>133.2</ele>
        <time>2021-08-10T09:07:54Z</time>
      </trkpt>
      <trkpt lat="48.22458" lon="-3.17852">
        <ele>133.2</ele>
        <time>2021-08-10T09:07:55Z</time>
      </trkpt>
      <trkpt lat="48.22456" lon="-3.17851">
        <ele>133.4</ele>
        <time>2021-08-10T09:07:56Z</time>
      </trkpt>
      <trkpt lat="48.22454" lon="-3.1785">
        <ele>133.4</ele>
        <time>2021-08-10T09:07:57Z</time>
      </trkpt>
      <trkpt lat="48.22451" lon="-3.1785">
        <ele>133.2</ele>
        <time>2021-08-10T09:07:58Z</time>
      </trkpt>
      <trkpt lat="48.22449" lon="-3.17849">
        <ele>133.2</ele>
        <time>2021-08-10T09:07:59Z</time>
      </trkpt>
      <trkpt lat="48.22446" lon="-3.1785">
        <ele>133.2</ele>
        <time>2021-08-10T09:08:00Z</time>
      </trkpt>
      <trkpt lat="48.22444" lon="-3.1785">
        <ele>133.2</ele>
        <time>2021-08-10T09:08:01Z</time>
      </trkpt>
      <trkpt lat="48.22442" lon="-3.17851">
        <ele>133.2</ele>
        <time>2021-08-10T09:08:02Z</time>
      </trkpt>
      <trkpt lat="48.22441" lon="-3.17853">
        <ele>133.2</ele>
        <time>2021-08-10T09:08:03Z</time>
      </trkpt>
      <trkpt lat="48.22442" lon="-3.17857">
        <ele>133.2</ele>
        <time>2021-08-10T09:08:04Z</time>
      </trkpt>
      <trkpt lat="48.22442" lon="-3.17861">
        <ele>133.4</ele>
        <time>2021-08-10T09:08:05Z</time>
      </trkpt>
      <trkpt lat="48.22442" lon="-3.17865">
        <ele>133.4</ele>
        <time>2021-08-10T09:08:06Z</time>
      </trkpt>
      <trkpt lat="48.22442" lon="-3.1787">
        <ele>133.4</ele>
        <time>2021-08-10T09:08:07Z</time>
      </trkpt>
      <trkpt lat="48.22442" lon="-3.17875">
        <ele>133.4</ele>
        <time>2021-08-10T09:08:08Z</time>
      </trkpt>
      <trkpt lat="48.22442" lon="-3.1788">
        <ele>133.4</ele>
        <time>2021-08-10T09:08:09Z</time>
      </trkpt>
      <trkpt lat="48.22441" lon="-3.17885">
        <ele>133.4</ele>
        <time>2021-08-10T09:08:10Z</time>
      </trkpt>
      <trkpt lat="48.22441" lon="-3.17891">
        <ele>133.4</ele>
        <time>2021-08-10T09:08:11Z</time>
      </trkpt>
      <trkpt lat="48.22441" lon="-3.17897">
        <ele>133.4</ele>
        <time>2021-08-10T09:08:12Z</time>
      </trkpt>
      <trkpt lat="48.2244" lon="-3.17904">
        <ele>133.4</ele>
        <time>2021-08-10T09:08:13Z</time>
      </trkpt>
      <trkpt lat="48.2244" lon="-3.1791">
        <ele>133.4</ele>
        <time>2021-08-10T09:08:14Z</time>
      </trkpt>
      <trkpt lat="48.2244" lon="-3.17916">
        <ele>133.2</ele>
        <time>2021-08-10T09:08:15Z</time>
      </trkpt>
      <trkpt lat="48.2244" lon="-3.17923">
        <ele>133.2</ele>
        <time>2021-08-10T09:08:16Z</time>
      </trkpt>
      <trkpt lat="48.2244" lon="-3.17929">
        <ele>133.2</ele>
        <time>2021-08-10T09:08:17Z</time>
      </trkpt>
      <trkpt lat="48.2244" lon="-3.17935">
        <ele>133.2</ele>
        <time>2021-08-10T09:08:18Z</time>
      </trkpt>
      <trkpt lat="48.2244" lon="-3.17941">
        <ele>133.2</ele>
        <time>2021-08-10T09:08:19Z</time>
      </trkpt>
      <trkpt lat="48.22441" lon="-3.17947">
        <ele>133</ele>
        <time>2021-08-10T09:08:20Z</time>
      </trkpt>
      <trkpt lat="48.22441" lon="-3.17952">
        <ele>133</ele>
        <time>2021-08-10T09:08:21Z</time>
      </trkpt>
      <trkpt lat="48.22441" lon="-3.17957">
        <ele>133</ele>
        <time>2021-08-10T09:08:22Z</time>
      </trkpt>
      <trkpt lat="48.22441" lon="-3.17962">
        <ele>133</ele>
        <time>2021-08-10T09:08:23Z</time>
      </trkpt>
      <trkpt lat="48.22441" lon="-3.17966">
        <ele>133</ele>
        <time>2021-08-10T09:08:24Z</time>
      </trkpt>
      <trkpt lat="48.22441" lon="-3.17971">
        <ele>133</ele>
        <time>2021-08-10T09:08:25Z</time>
      </trkpt>
      <trkpt lat="48.22441" lon="-3.17975">
        <ele>133</ele>
        <time>2021-08-10T09:08:26Z</time>
      </trkpt>
      <trkpt lat="48.22441" lon="-3.17979">
        <ele>133.2</ele>
        <time>2021-08-10T09:08:27Z</time>
      </trkpt>
      <trkpt lat="48.22441" lon="-3.17983">
        <ele>133.2</ele>
        <time>2021-08-10T09:08:28Z</time>
      </trkpt>
      <trkpt lat="48.22441" lon="-3.17988">
        <ele>133.2</ele>
        <time>2021-08-10T09:08:29Z</time>
      </trkpt>
      <trkpt lat="48.22441" lon="-3.17992">
        <ele>133.4</ele>
        <time>2021-08-10T09:08:30Z</time>
      </trkpt>
      <trkpt lat="48.22442" lon="-3.17997">
        <ele>133.6</ele>
        <time>2021-08-10T09:08:31Z</time>
      </trkpt>
      <trkpt lat="48.22443" lon="-3.18002">
        <ele>133.6</ele>
        <time>2021-08-10T09:08:32Z</time>
      </trkpt>
      <trkpt lat="48.22444" lon="-3.18008">
        <ele>133.6</ele>
        <time>2021-08-10T09:08:33Z</time>
      </trkpt>
      <trkpt lat="48.22445" lon="-3.18013">
        <ele>133.6</ele>
        <time>2021-08-10T09:08:34Z</time>
      </trkpt>
      <trkpt lat="48.22446" lon="-3.18019">
        <ele>133.6</ele>
        <time>2021-08-10T09:08:35Z</time>
      </trkpt>
      <trkpt lat="48.22447" lon="-3.18025">
        <ele>133.6</ele>
        <time>2021-08-10T09:08:36Z</time>
      </trkpt>
      <trkpt lat="48.22448" lon="-3.18031">
        <ele>133.6</ele>
        <time>2021-08-10T09:08:37Z</time>
      </trkpt>
      <trkpt lat="48.22449" lon="-3.18037">
        <ele>133.6</ele>
        <time>2021-08-10T09:08:38Z</time>
      </trkpt>
      <trkpt lat="48.2245" lon="-3.18044">
        <ele>133.4</ele>
        <time>2021-08-10T09:08:39Z</time>
      </trkpt>
      <trkpt lat="48.22452" lon="-3.18051">
        <ele>133.4</ele>
        <time>2021-08-10T09:08:40Z</time>
      </trkpt>
      <trkpt lat="48.22454" lon="-3.18058">
        <ele>133.4</ele>
        <time>2021-08-10T09:08:41Z</time>
      </trkpt>
      <trkpt lat="48.22455" lon="-3.18065">
        <ele>133.4</ele>
        <time>2021-08-10T09:08:42Z</time>
      </trkpt>
      <trkpt lat="48.22457" lon="-3.18072">
        <ele>133.2</ele>
        <time>2021-08-10T09:08:43Z</time>
      </trkpt>
      <trkpt lat="48.22459" lon="-3.18079">
        <ele>133</ele>
        <time>2021-08-10T09:08:44Z</time>
      </trkpt>
      <trkpt lat="48.2246" lon="-3.18087">
        <ele>132.8</ele>
        <time>2021-08-10T09:08:45Z</time>
      </trkpt>
      <trkpt lat="48.22462" lon="-3.18095">
        <ele>132.8</ele>
        <time>2021-08-10T09:08:46Z</time>
      </trkpt>
      <trkpt lat="48.22464" lon="-3.18102">
        <ele>132.6</ele>
        <time>2021-08-10T09:08:47Z</time>
      </trkpt>
      <trkpt lat="48.22465" lon="-3.1811">
        <ele>132.4</ele>
        <time>2021-08-10T09:08:48Z</time>
      </trkpt>
      <trkpt lat="48.22467" lon="-3.18117">
        <ele>132.4</ele>
        <time>2021-08-10T09:08:49Z</time>
      </trkpt>
      <trkpt lat="48.22469" lon="-3.18124">
        <ele>132.4</ele>
        <time>2021-08-10T09:08:50Z</time>
      </trkpt>
      <trkpt lat="48.2247" lon="-3.18131">
        <ele>132.4</ele>
        <time>2021-08-10T09:08:51Z</time>
      </trkpt>
      <trkpt lat="48.22472" lon="-3.18137">
        <ele>132.4</ele>
        <time>2021-08-10T09:08:52Z</time>
      </trkpt>
      <trkpt lat="48.22474" lon="-3.18143">
        <ele>132.4</ele>
        <time>2021-08-10T09:08:53Z</time>
      </trkpt>
      <trkpt lat="48.22476" lon="-3.18149">
        <ele>132.4</ele>
        <time>2021-08-10T09:08:54Z</time>
      </trkpt>
      <trkpt lat="48.22477" lon="-3.18154">
        <ele>132.4</ele>
        <time>2021-08-10T09:08:55Z</time>
      </trkpt>
      <trkpt lat="48.22479" lon="-3.1816">
        <ele>132.4</ele>
        <time>2021-08-10T09:08:56Z</time>
      </trkpt>
      <trkpt lat="48.22481" lon="-3.18167">
        <ele>132.4</ele>
        <time>2021-08-10T09:08:57Z</time>
      </trkpt>
      <trkpt lat="48.22482" lon="-3.18173">
        <ele>132.4</ele>
        <time>2021-08-10T09:08:58Z</time>
      </trkpt>
      <trkpt lat="48.22484" lon="-3.1818">
        <ele>132.6</ele>
        <time>2021-08-10T09:08:59Z</time>
      </trkpt>
      <trkpt lat="48.22486" lon="-3.18187">
        <ele>132.6</ele>
        <time>2021-08-10T09:09:00Z</time>
      </trkpt>
      <trkpt lat="48.22488" lon="-3.18193">
        <ele>132.6</ele>
        <time>2021-08-10T09:09:01Z</time>
      </trkpt>
      <trkpt lat="48.22489" lon="-3.18199">
        <ele>132.8</ele>
        <time>2021-08-10T09:09:02Z</time>
      </trkpt>
      <trkpt lat="48.22491" lon="-3.18206">
        <ele>132.8</ele>
        <time>2021-08-10T09:09:03Z</time>
      </trkpt>
      <trkpt lat="48.22493" lon="-3.18213">
        <ele>132.8</ele>
        <time>2021-08-10T09:09:04Z</time>
      </trkpt>
      <trkpt lat="48.22495" lon="-3.1822">
        <ele>132.8</ele>
        <time>2021-08-10T09:09:05Z</time>
      </trkpt>
      <trkpt lat="48.22496" lon="-3.18227">
        <ele>132.8</ele>
        <time>2021-08-10T09:09:06Z</time>
      </trkpt>
      <trkpt lat="48.22498" lon="-3.18234">
        <ele>132.8</ele>
        <time>2021-08-10T09:09:07Z</time>
      </trkpt>
      <trkpt lat="48.225" lon="-3.18241">
        <ele>132.8</ele>
        <time>2021-08-10T09:09:08Z</time>
      </trkpt>
      <trkpt lat="48.22502" lon="-3.18247">
        <ele>132.8</ele>
        <time>2021-08-10T09:09:09Z</time>
      </trkpt>
      <trkpt lat="48.22503" lon="-3.18253">
        <ele>132.8</ele>
        <time>2021-08-10T09:09:10Z</time>
      </trkpt>
      <trkpt lat="48.22505" lon="-3.18259">
        <ele>132.8</ele>
        <time>2021-08-10T09:09:11Z</time>
      </trkpt>
      <trkpt lat="48.22506" lon="-3.18265">
        <ele>132.8</ele>
        <time>2021-08-10T09:09:12Z</time>
      </trkpt>
      <trkpt lat="48.22508" lon="-3.18271">
        <ele>132.8</ele>
        <time>2021-08-10T09:09:13Z</time>
      </trkpt>
      <trkpt lat="48.2251" lon="-3.18277">
        <ele>132.8</ele>
        <time>2021-08-10T09:09:14Z</time>
      </trkpt>
      <trkpt lat="48.22511" lon="-3.18283">
        <ele>132.8</ele>
        <time>2021-08-10T09:09:15Z</time>
      </trkpt>
      <trkpt lat="48.22513" lon="-3.18289">
        <ele>132.6</ele>
        <time>2021-08-10T09:09:16Z</time>
      </trkpt>
      <trkpt lat="48.22515" lon="-3.18296">
        <ele>132.6</ele>
        <time>2021-08-10T09:09:17Z</time>
      </trkpt>
      <trkpt lat="48.22517" lon="-3.18302">
        <ele>132.6</ele>
        <time>2021-08-10T09:09:18Z</time>
      </trkpt>
      <trkpt lat="48.22519" lon="-3.18309">
        <ele>132.6</ele>
        <time>2021-08-10T09:09:19Z</time>
      </trkpt>
      <trkpt lat="48.2252" lon="-3.18315">
        <ele>132.6</ele>
        <time>2021-08-10T09:09:20Z</time>
      </trkpt>
      <trkpt lat="48.22522" lon="-3.18321">
        <ele>132.6</ele>
        <time>2021-08-10T09:09:21Z</time>
      </trkpt>
      <trkpt lat="48.22523" lon="-3.18327">
        <ele>132.6</ele>
        <time>2021-08-10T09:09:22Z</time>
      </trkpt>
      <trkpt lat="48.22525" lon="-3.18333">
        <ele>132.6</ele>
        <time>2021-08-10T09:09:23Z</time>
      </trkpt>
      <trkpt lat="48.22527" lon="-3.18339">
        <ele>132.6</ele>
        <time>2021-08-10T09:09:24Z</time>
      </trkpt>
      <trkpt lat="48.22529" lon="-3.18346">
        <ele>132.6</ele>
        <time>2021-08-10T09:09:25Z</time>
      </trkpt>
      <trkpt lat="48.22531" lon="-3.18352">
        <ele>132.6</ele>
        <time>2021-08-10T09:09:26Z</time>
      </trkpt>
      <trkpt lat="48.22532" lon="-3.18358">
        <ele>132.4</ele>
        <time>2021-08-10T09:09:27Z</time>
      </trkpt>
      <trkpt lat="48.22534" lon="-3.18364">
        <ele>132.4</ele>
        <time>2021-08-10T09:09:28Z</time>
      </trkpt>
      <trkpt lat="48.22536" lon="-3.1837">
        <ele>132.4</ele>
        <time>2021-08-10T09:09:29Z</time>
      </trkpt>
      <trkpt lat="48.22537" lon="-3.18377">
        <ele>132.6</ele>
        <time>2021-08-10T09:09:30Z</time>
      </trkpt>
      <trkpt lat="48.22539" lon="-3.18383">
        <ele>132.6</ele>
        <time>2021-08-10T09:09:31Z</time>
      </trkpt>
      <trkpt lat="48.22541" lon="-3.1839">
        <ele>132.6</ele>
        <time>2021-08-10T09:09:32Z</time>
      </trkpt>
      <trkpt lat="48.22543" lon="-3.18397">
        <ele>132.6</ele>
        <time>2021-08-10T09:09:33Z</time>
      </trkpt>
      <trkpt lat="48.22544" lon="-3.18403">
        <ele>132.6</ele>
        <time>2021-08-10T09:09:34Z</time>
      </trkpt>
      <trkpt lat="48.22546" lon="-3.18409">
        <ele>132.6</ele>
        <time>2021-08-10T09:09:35Z</time>
      </trkpt>
      <trkpt lat="48.22548" lon="-3.18416">
        <ele>132.6</ele>
        <time>2021-08-10T09:09:36Z</time>
      </trkpt>
      <trkpt lat="48.22549" lon="-3.18422">
        <ele>132.6</ele>
        <time>2021-08-10T09:09:37Z</time>
      </trkpt>
      <trkpt lat="48.22551" lon="-3.18428">
        <ele>132.6</ele>
        <time>2021-08-10T09:09:38Z</time>
      </trkpt>
      <trkpt lat="48.22553" lon="-3.18435">
        <ele>132.6</ele>
        <time>2021-08-10T09:09:39Z</time>
      </trkpt>
      <trkpt lat="48.22554" lon="-3.18442">
        <ele>132.6</ele>
        <time>2021-08-10T09:09:40Z</time>
      </trkpt>
      <trkpt lat="48.22555" lon="-3.18448">
        <ele>132.4</ele>
        <time>2021-08-10T09:09:41Z</time>
      </trkpt>
      <trkpt lat="48.22557" lon="-3.18454">
        <ele>132.4</ele>
        <time>2021-08-10T09:09:42Z</time>
      </trkpt>
      <trkpt lat="48.22559" lon="-3.1846">
        <ele>132.4</ele>
        <time>2021-08-10T09:09:43Z</time>
      </trkpt>
      <trkpt lat="48.2256" lon="-3.18466">
        <ele>132.4</ele>
        <time>2021-08-10T09:09:44Z</time>
      </trkpt>
      <trkpt lat="48.22562" lon="-3.18472">
        <ele>132.4</ele>
        <time>2021-08-10T09:09:45Z</time>
      </trkpt>
      <trkpt lat="48.22563" lon="-3.18479">
        <ele>132.4</ele>
        <time>2021-08-10T09:09:46Z</time>
      </trkpt>
      <trkpt lat="48.22564" lon="-3.18485">
        <ele>132.4</ele>
        <time>2021-08-10T09:09:47Z</time>
      </trkpt>
      <trkpt lat="48.22566" lon="-3.18491">
        <ele>132.4</ele>
        <time>2021-08-10T09:09:48Z</time>
      </trkpt>
      <trkpt lat="48.22568" lon="-3.18497">
        <ele>132.4</ele>
        <time>2021-08-10T09:09:49Z</time>
      </trkpt>
      <trkpt lat="48.22569" lon="-3.18504">
        <ele>132.4</ele>
        <time>2021-08-10T09:09:50Z</time>
      </trkpt>
      <trkpt lat="48.22571" lon="-3.18511">
        <ele>132.4</ele>
        <time>2021-08-10T09:09:51Z</time>
      </trkpt>
      <trkpt lat="48.22573" lon="-3.18517">
        <ele>132.4</ele>
        <time>2021-08-10T09:09:52Z</time>
      </trkpt>
      <trkpt lat="48.22574" lon="-3.18524">
        <ele>132.4</ele>
        <time>2021-08-10T09:09:53Z</time>
      </trkpt>
      <trkpt lat="48.22576" lon="-3.18531">
        <ele>132.2</ele>
        <time>2021-08-10T09:09:54Z</time>
      </trkpt>
      <trkpt lat="48.22578" lon="-3.18537">
        <ele>132.2</ele>
        <time>2021-08-10T09:09:55Z</time>
      </trkpt>
      <trkpt lat="48.2258" lon="-3.18543">
        <ele>132.2</ele>
        <time>2021-08-10T09:09:56Z</time>
      </trkpt>
      <trkpt lat="48.22581" lon="-3.18549">
        <ele>132.2</ele>
        <time>2021-08-10T09:09:57Z</time>
      </trkpt>
      <trkpt lat="48.22583" lon="-3.18556">
        <ele>132.2</ele>
        <time>2021-08-10T09:09:58Z</time>
      </trkpt>
      <trkpt lat="48.22585" lon="-3.18563">
        <ele>132.2</ele>
        <time>2021-08-10T09:09:59Z</time>
      </trkpt>
      <trkpt lat="48.22587" lon="-3.18569">
        <ele>132.2</ele>
        <time>2021-08-10T09:10:00Z</time>
      </trkpt>
      <trkpt lat="48.22589" lon="-3.18576">
        <ele>132.2</ele>
        <time>2021-08-10T09:10:01Z</time>
      </trkpt>
      <trkpt lat="48.22591" lon="-3.18583">
        <ele>132.2</ele>
        <time>2021-08-10T09:10:02Z</time>
      </trkpt>
      <trkpt lat="48.22593" lon="-3.1859">
        <ele>132.2</ele>
        <time>2021-08-10T09:10:03Z</time>
      </trkpt>
      <trkpt lat="48.22595" lon="-3.18597">
        <ele>132.2</ele>
        <time>2021-08-10T09:10:04Z</time>
      </trkpt>
      <trkpt lat="48.22597" lon="-3.18604">
        <ele>132.2</ele>
        <time>2021-08-10T09:10:05Z</time>
      </trkpt>
      <trkpt lat="48.22598" lon="-3.1861">
        <ele>132.2</ele>
        <time>2021-08-10T09:10:06Z</time>
      </trkpt>
      <trkpt lat="48.226" lon="-3.18616">
        <ele>132.2</ele>
        <time>2021-08-10T09:10:07Z</time>
      </trkpt>
      <trkpt lat="48.22602" lon="-3.18623">
        <ele>132.2</ele>
        <time>2021-08-10T09:10:08Z</time>
      </trkpt>
      <trkpt lat="48.22603" lon="-3.1863">
        <ele>132.4</ele>
        <time>2021-08-10T09:10:09Z</time>
      </trkpt>
      <trkpt lat="48.22606" lon="-3.18637">
        <ele>132.4</ele>
        <time>2021-08-10T09:10:10Z</time>
      </trkpt>
      <trkpt lat="48.22608" lon="-3.18644">
        <ele>132.4</ele>
        <time>2021-08-10T09:10:11Z</time>
      </trkpt>
      <trkpt lat="48.22609" lon="-3.18651">
        <ele>132.4</ele>
        <time>2021-08-10T09:10:12Z</time>
      </trkpt>
      <trkpt lat="48.22611" lon="-3.18658">
        <ele>132.4</ele>
        <time>2021-08-10T09:10:13Z</time>
      </trkpt>
      <trkpt lat="48.22613" lon="-3.18665">
        <ele>132.4</ele>
        <time>2021-08-10T09:10:14Z</time>
      </trkpt>
      <trkpt lat="48.22615" lon="-3.18672">
        <ele>132.4</ele>
        <time>2021-08-10T09:10:15Z</time>
      </trkpt>
      <trkpt lat="48.22617" lon="-3.18678">
        <ele>132.4</ele>
        <time>2021-08-10T09:10:16Z</time>
      </trkpt>
      <trkpt lat="48.22618" lon="-3.18685">
        <ele>132.4</ele>
        <time>2021-08-10T09:10:17Z</time>
      </trkpt>
      <trkpt lat="48.2262" lon="-3.18692">
        <ele>132.4</ele>
        <time>2021-08-10T09:10:18Z</time>
      </trkpt>
      <trkpt lat="48.22621" lon="-3.18699">
        <ele>132.4</ele>
        <time>2021-08-10T09:10:19Z</time>
      </trkpt>
      <trkpt lat="48.22622" lon="-3.18706">
        <ele>132.4</ele>
        <time>2021-08-10T09:10:20Z</time>
      </trkpt>
      <trkpt lat="48.22623" lon="-3.18714">
        <ele>132.4</ele>
        <time>2021-08-10T09:10:21Z</time>
      </trkpt>
      <trkpt lat="48.22624" lon="-3.18721">
        <ele>132.4</ele>
        <time>2021-08-10T09:10:22Z</time>
      </trkpt>
      <trkpt lat="48.22624" lon="-3.18728">
        <ele>132.4</ele>
        <time>2021-08-10T09:10:23Z</time>
      </trkpt>
      <trkpt lat="48.22625" lon="-3.18735">
        <ele>132.2</ele>
        <time>2021-08-10T09:10:24Z</time>
      </trkpt>
      <trkpt lat="48.22625" lon="-3.18742">
        <ele>132.2</ele>
        <time>2021-08-10T09:10:25Z</time>
      </trkpt>
      <trkpt lat="48.22624" lon="-3.18748">
        <ele>132.2</ele>
        <time>2021-08-10T09:10:26Z</time>
      </trkpt>
      <trkpt lat="48.22624" lon="-3.18754">
        <ele>132.2</ele>
        <time>2021-08-10T09:10:27Z</time>
      </trkpt>
      <trkpt lat="48.22624" lon="-3.1876">
        <ele>132.2</ele>
        <time>2021-08-10T09:10:28Z</time>
      </trkpt>
      <trkpt lat="48.22623" lon="-3.18766">
        <ele>132.2</ele>
        <time>2021-08-10T09:10:29Z</time>
      </trkpt>
      <trkpt lat="48.22623" lon="-3.18772">
        <ele>132.2</ele>
        <time>2021-08-10T09:10:30Z</time>
      </trkpt>
      <trkpt lat="48.22622" lon="-3.18779">
        <ele>132.2</ele>
        <time>2021-08-10T09:10:31Z</time>
      </trkpt>
      <trkpt lat="48.2262" lon="-3.18785">
        <ele>132.2</ele>
        <time>2021-08-10T09:10:32Z</time>
      </trkpt>
      <trkpt lat="48.22618" lon="-3.18792">
        <ele>132.2</ele>
        <time>2021-08-10T09:10:33Z</time>
      </trkpt>
      <trkpt lat="48.22616" lon="-3.18798">
        <ele>132.2</ele>
        <time>2021-08-10T09:10:34Z</time>
      </trkpt>
      <trkpt lat="48.22614" lon="-3.18805">
        <ele>132.2</ele>
        <time>2021-08-10T09:10:35Z</time>
      </trkpt>
      <trkpt lat="48.22611" lon="-3.18811">
        <ele>132.4</ele>
        <time>2021-08-10T09:10:36Z</time>
      </trkpt>
      <trkpt lat="48.22608" lon="-3.18816">
        <ele>132.4</ele>
        <time>2021-08-10T09:10:37Z</time>
      </trkpt>
      <trkpt lat="48.22605" lon="-3.18821">
        <ele>132.2</ele>
        <time>2021-08-10T09:10:38Z</time>
      </trkpt>
      <trkpt lat="48.22602" lon="-3.18827">
        <ele>132.4</ele>
        <time>2021-08-10T09:10:39Z</time>
      </trkpt>
      <trkpt lat="48.22598" lon="-3.18832">
        <ele>132.4</ele>
        <time>2021-08-10T09:10:40Z</time>
      </trkpt>
      <trkpt lat="48.22595" lon="-3.18837">
        <ele>132.4</ele>
        <time>2021-08-10T09:10:41Z</time>
      </trkpt>
      <trkpt lat="48.22591" lon="-3.18842">
        <ele>132.4</ele>
        <time>2021-08-10T09:10:42Z</time>
      </trkpt>
      <trkpt lat="48.22587" lon="-3.18847">
        <ele>132.4</ele>
        <time>2021-08-10T09:10:43Z</time>
      </trkpt>
      <trkpt lat="48.22584" lon="-3.18852">
        <ele>132.4</ele>
        <time>2021-08-10T09:10:44Z</time>
      </trkpt>
      <trkpt lat="48.2258" lon="-3.18858">
        <ele>132.4</ele>
        <time>2021-08-10T09:10:45Z</time>
      </trkpt>
      <trkpt lat="48.22577" lon="-3.18863">
        <ele>132.4</ele>
        <time>2021-08-10T09:10:46Z</time>
      </trkpt>
      <trkpt lat="48.22573" lon="-3.18868">
        <ele>132.4</ele>
        <time>2021-08-10T09:10:47Z</time>
      </trkpt>
      <trkpt lat="48.22569" lon="-3.18873">
        <ele>132.4</ele>
        <time>2021-08-10T09:10:48Z</time>
      </trkpt>
      <trkpt lat="48.22566" lon="-3.18878">
        <ele>132.4</ele>
        <time>2021-08-10T09:10:49Z</time>
      </trkpt>
      <trkpt lat="48.22562" lon="-3.18883">
        <ele>132.4</ele>
        <time>2021-08-10T09:10:50Z</time>
      </trkpt>
      <trkpt lat="48.22559" lon="-3.18887">
        <ele>132.2</ele>
        <time>2021-08-10T09:10:51Z</time>
      </trkpt>
      <trkpt lat="48.22556" lon="-3.18892">
        <ele>132.2</ele>
        <time>2021-08-10T09:10:52Z</time>
      </trkpt>
      <trkpt lat="48.22553" lon="-3.18896">
        <ele>132.2</ele>
        <time>2021-08-10T09:10:53Z</time>
      </trkpt>
      <trkpt lat="48.2255" lon="-3.18899">
        <ele>132.2</ele>
        <time>2021-08-10T09:10:54Z</time>
      </trkpt>
      <trkpt lat="48.22548" lon="-3.18902">
        <ele>132.2</ele>
        <time>2021-08-10T09:10:55Z</time>
      </trkpt>
      <trkpt lat="48.22545" lon="-3.18906">
        <ele>132.2</ele>
        <time>2021-08-10T09:10:56Z</time>
      </trkpt>
      <trkpt lat="48.22543" lon="-3.18909">
        <ele>132.2</ele>
        <time>2021-08-10T09:10:57Z</time>
      </trkpt>
      <trkpt lat="48.2254" lon="-3.18913">
        <ele>132.2</ele>
        <time>2021-08-10T09:10:58Z</time>
      </trkpt>
      <trkpt lat="48.22538" lon="-3.18917">
        <ele>132.2</ele>
        <time>2021-08-10T09:10:59Z</time>
      </trkpt>
      <trkpt lat="48.22536" lon="-3.18921">
        <ele>132.2</ele>
        <time>2021-08-10T09:11:00Z</time>
      </trkpt>
      <trkpt lat="48.22534" lon="-3.18924">
        <ele>132.4</ele>
        <time>2021-08-10T09:11:01Z</time>
      </trkpt>
      <trkpt lat="48.22533" lon="-3.18928">
        <ele>132.6</ele>
        <time>2021-08-10T09:11:02Z</time>
      </trkpt>
      <trkpt lat="48.22532" lon="-3.18931">
        <ele>132.8</ele>
        <time>2021-08-10T09:11:03Z</time>
      </trkpt>
      <trkpt lat="48.22531" lon="-3.18934">
        <ele>132.8</ele>
        <time>2021-08-10T09:11:04Z</time>
      </trkpt>
      <trkpt lat="48.2253" lon="-3.18937">
        <ele>132.8</ele>
        <time>2021-08-10T09:11:05Z</time>
      </trkpt>
      <trkpt lat="48.2253" lon="-3.18941">
        <ele>132.8</ele>
        <time>2021-08-10T09:11:06Z</time>
      </trkpt>
      <trkpt lat="48.22527" lon="-3.18947">
        <ele>133</ele>
        <time>2021-08-10T09:11:07Z</time>
      </trkpt>
      <trkpt lat="48.22524" lon="-3.18952">
        <ele>133</ele>
        <time>2021-08-10T09:11:08Z</time>
      </trkpt>
      <trkpt lat="48.22522" lon="-3.18958">
        <ele>133</ele>
        <time>2021-08-10T09:11:09Z</time>
      </trkpt>
      <trkpt lat="48.2252" lon="-3.18964">
        <ele>133</ele>
        <time>2021-08-10T09:11:10Z</time>
      </trkpt>
      <trkpt lat="48.22518" lon="-3.18972">
        <ele>133</ele>
        <time>2021-08-10T09:11:11Z</time>
      </trkpt>
      <trkpt lat="48.22516" lon="-3.18979">
        <ele>133</ele>
        <time>2021-08-10T09:11:12Z</time>
      </trkpt>
      <trkpt lat="48.22514" lon="-3.18986">
        <ele>133</ele>
        <time>2021-08-10T09:11:13Z</time>
      </trkpt>
      <trkpt lat="48.22514" lon="-3.18995">
        <ele>133</ele>
        <time>2021-08-10T09:11:14Z</time>
      </trkpt>
      <trkpt lat="48.22513" lon="-3.19002">
        <ele>132.8</ele>
        <time>2021-08-10T09:11:15Z</time>
      </trkpt>
      <trkpt lat="48.22512" lon="-3.19008">
        <ele>132.8</ele>
        <time>2021-08-10T09:11:16Z</time>
      </trkpt>
      <trkpt lat="48.22511" lon="-3.19014">
        <ele>132.8</ele>
        <time>2021-08-10T09:11:17Z</time>
      </trkpt>
      <trkpt lat="48.22509" lon="-3.19022">
        <ele>132.8</ele>
        <time>2021-08-10T09:11:18Z</time>
      </trkpt>
      <trkpt lat="48.22508" lon="-3.19029">
        <ele>132.6</ele>
        <time>2021-08-10T09:11:19Z</time>
      </trkpt>
      <trkpt lat="48.22507" lon="-3.19037">
        <ele>132.4</ele>
        <time>2021-08-10T09:11:20Z</time>
      </trkpt>
      <trkpt lat="48.22504" lon="-3.19052">
        <ele>132.4</ele>
        <time>2021-08-10T09:11:22Z</time>
      </trkpt>
      <trkpt lat="48.22502" lon="-3.1906">
        <ele>132.2</ele>
        <time>2021-08-10T09:11:23Z</time>
      </trkpt>
      <trkpt lat="48.225" lon="-3.19067">
        <ele>132.2</ele>
        <time>2021-08-10T09:11:24Z</time>
      </trkpt>
      <trkpt lat="48.22497" lon="-3.19075">
        <ele>132.2</ele>
        <time>2021-08-10T09:11:25Z</time>
      </trkpt>
      <trkpt lat="48.22494" lon="-3.19082">
        <ele>132.2</ele>
        <time>2021-08-10T09:11:26Z</time>
      </trkpt>
      <trkpt lat="48.22492" lon="-3.19089">
        <ele>132.2</ele>
        <time>2021-08-10T09:11:27Z</time>
      </trkpt>
      <trkpt lat="48.22489" lon="-3.19095">
        <ele>132.2</ele>
        <time>2021-08-10T09:11:28Z</time>
      </trkpt>
      <trkpt lat="48.22486" lon="-3.19102">
        <ele>132.2</ele>
        <time>2021-08-10T09:11:29Z</time>
      </trkpt>
      <trkpt lat="48.22483" lon="-3.19109">
        <ele>132.2</ele>
        <time>2021-08-10T09:11:30Z</time>
      </trkpt>
      <trkpt lat="48.2248" lon="-3.19116">
        <ele>132.2</ele>
        <time>2021-08-10T09:11:31Z</time>
      </trkpt>
      <trkpt lat="48.22477" lon="-3.19123">
        <ele>132.2</ele>
        <time>2021-08-10T09:11:32Z</time>
      </trkpt>
      <trkpt lat="48.22474" lon="-3.1913">
        <ele>132</ele>
        <time>2021-08-10T09:11:33Z</time>
      </trkpt>
      <trkpt lat="48.22472" lon="-3.19137">
        <ele>132</ele>
        <time>2021-08-10T09:11:34Z</time>
      </trkpt>
      <trkpt lat="48.22469" lon="-3.19144">
        <ele>132</ele>
        <time>2021-08-10T09:11:35Z</time>
      </trkpt>
      <trkpt lat="48.22466" lon="-3.19151">
        <ele>132</ele>
        <time>2021-08-10T09:11:36Z</time>
      </trkpt>
      <trkpt lat="48.22464" lon="-3.19157">
        <ele>132</ele>
        <time>2021-08-10T09:11:37Z</time>
      </trkpt>
      <trkpt lat="48.22461" lon="-3.19163">
        <ele>132.2</ele>
        <time>2021-08-10T09:11:38Z</time>
      </trkpt>
      <trkpt lat="48.22459" lon="-3.19169">
        <ele>132.2</ele>
        <time>2021-08-10T09:11:39Z</time>
      </trkpt>
      <trkpt lat="48.22456" lon="-3.19176">
        <ele>132.2</ele>
        <time>2021-08-10T09:11:40Z</time>
      </trkpt>
      <trkpt lat="48.22453" lon="-3.19182">
        <ele>132.2</ele>
        <time>2021-08-10T09:11:41Z</time>
      </trkpt>
      <trkpt lat="48.2245" lon="-3.19189">
        <ele>132.2</ele>
        <time>2021-08-10T09:11:42Z</time>
      </trkpt>
      <trkpt lat="48.22448" lon="-3.19195">
        <ele>132.2</ele>
        <time>2021-08-10T09:11:43Z</time>
      </trkpt>
      <trkpt lat="48.22444" lon="-3.19201">
        <ele>132</ele>
        <time>2021-08-10T09:11:44Z</time>
      </trkpt>
      <trkpt lat="48.22441" lon="-3.19206">
        <ele>132</ele>
        <time>2021-08-10T09:11:45Z</time>
      </trkpt>
      <trkpt lat="48.22438" lon="-3.19211">
        <ele>132</ele>
        <time>2021-08-10T09:11:46Z</time>
      </trkpt>
      <trkpt lat="48.22434" lon="-3.19217">
        <ele>132</ele>
        <time>2021-08-10T09:11:47Z</time>
      </trkpt>
      <trkpt lat="48.22431" lon="-3.19223">
        <ele>132</ele>
        <time>2021-08-10T09:11:48Z</time>
      </trkpt>
      <trkpt lat="48.22427" lon="-3.19228">
        <ele>132</ele>
        <time>2021-08-10T09:11:49Z</time>
      </trkpt>
      <trkpt lat="48.22424" lon="-3.19234">
        <ele>132</ele>
        <time>2021-08-10T09:11:50Z</time>
      </trkpt>
      <trkpt lat="48.2242" lon="-3.1924">
        <ele>132.2</ele>
        <time>2021-08-10T09:11:51Z</time>
      </trkpt>
      <trkpt lat="48.22417" lon="-3.19245">
        <ele>132.2</ele>
        <time>2021-08-10T09:11:52Z</time>
      </trkpt>
      <trkpt lat="48.22413" lon="-3.1925">
        <ele>132.2</ele>
        <time>2021-08-10T09:11:53Z</time>
      </trkpt>
      <trkpt lat="48.2241" lon="-3.19256">
        <ele>132.2</ele>
        <time>2021-08-10T09:11:54Z</time>
      </trkpt>
      <trkpt lat="48.22406" lon="-3.19261">
        <ele>132.2</ele>
        <time>2021-08-10T09:11:55Z</time>
      </trkpt>
      <trkpt lat="48.22403" lon="-3.19266">
        <ele>132.2</ele>
        <time>2021-08-10T09:11:56Z</time>
      </trkpt>
      <trkpt lat="48.22399" lon="-3.19271">
        <ele>132.2</ele>
        <time>2021-08-10T09:11:57Z</time>
      </trkpt>
      <trkpt lat="48.22396" lon="-3.19277">
        <ele>132.2</ele>
        <time>2021-08-10T09:11:58Z</time>
      </trkpt>
      <trkpt lat="48.22392" lon="-3.19282">
        <ele>132.2</ele>
        <time>2021-08-10T09:11:59Z</time>
      </trkpt>
      <trkpt lat="48.22388" lon="-3.19287">
        <ele>132.2</ele>
        <time>2021-08-10T09:12:00Z</time>
      </trkpt>
      <trkpt lat="48.22385" lon="-3.19293">
        <ele>132.2</ele>
        <time>2021-08-10T09:12:01Z</time>
      </trkpt>
      <trkpt lat="48.22381" lon="-3.19298">
        <ele>132.4</ele>
        <time>2021-08-10T09:12:02Z</time>
      </trkpt>
      <trkpt lat="48.22377" lon="-3.19303">
        <ele>132.4</ele>
        <time>2021-08-10T09:12:03Z</time>
      </trkpt>
      <trkpt lat="48.22374" lon="-3.19309">
        <ele>132.4</ele>
        <time>2021-08-10T09:12:04Z</time>
      </trkpt>
      <trkpt lat="48.2237" lon="-3.19314">
        <ele>132.4</ele>
        <time>2021-08-10T09:12:05Z</time>
      </trkpt>
      <trkpt lat="48.22366" lon="-3.19319">
        <ele>132.4</ele>
        <time>2021-08-10T09:12:06Z</time>
      </trkpt>
      <trkpt lat="48.22363" lon="-3.19324">
        <ele>132.4</ele>
        <time>2021-08-10T09:12:07Z</time>
      </trkpt>
      <trkpt lat="48.22359" lon="-3.19328">
        <ele>132.4</ele>
        <time>2021-08-10T09:12:08Z</time>
      </trkpt>
      <trkpt lat="48.22356" lon="-3.19333">
        <ele>132.4</ele>
        <time>2021-08-10T09:12:09Z</time>
      </trkpt>
      <trkpt lat="48.22352" lon="-3.19338">
        <ele>132.4</ele>
        <time>2021-08-10T09:12:10Z</time>
      </trkpt>
      <trkpt lat="48.22349" lon="-3.19343">
        <ele>132.4</ele>
        <time>2021-08-10T09:12:11Z</time>
      </trkpt>
      <trkpt lat="48.22345" lon="-3.19349">
        <ele>132.4</ele>
        <time>2021-08-10T09:12:12Z</time>
      </trkpt>
      <trkpt lat="48.22342" lon="-3.19354">
        <ele>132.6</ele>
        <time>2021-08-10T09:12:13Z</time>
      </trkpt>
      <trkpt lat="48.22338" lon="-3.19359">
        <ele>132.4</ele>
        <time>2021-08-10T09:12:14Z</time>
      </trkpt>
      <trkpt lat="48.22335" lon="-3.19364">
        <ele>132.4</ele>
        <time>2021-08-10T09:12:15Z</time>
      </trkpt>
      <trkpt lat="48.22331" lon="-3.19368">
        <ele>132.6</ele>
        <time>2021-08-10T09:12:16Z</time>
      </trkpt>
      <trkpt lat="48.22328" lon="-3.19373">
        <ele>132.6</ele>
        <time>2021-08-10T09:12:17Z</time>
      </trkpt>
      <trkpt lat="48.22324" lon="-3.19378">
        <ele>132.6</ele>
        <time>2021-08-10T09:12:18Z</time>
      </trkpt>
      <trkpt lat="48.22321" lon="-3.19383">
        <ele>132.6</ele>
        <time>2021-08-10T09:12:19Z</time>
      </trkpt>
      <trkpt lat="48.22317" lon="-3.19388">
        <ele>132.6</ele>
        <time>2021-08-10T09:12:20Z</time>
      </trkpt>
      <trkpt lat="48.22313" lon="-3.19393">
        <ele>132.6</ele>
        <time>2021-08-10T09:12:21Z</time>
      </trkpt>
      <trkpt lat="48.2231" lon="-3.19399">
        <ele>132.6</ele>
        <time>2021-08-10T09:12:22Z</time>
      </trkpt>
      <trkpt lat="48.22306" lon="-3.19404">
        <ele>132.6</ele>
        <time>2021-08-10T09:12:23Z</time>
      </trkpt>
      <trkpt lat="48.22302" lon="-3.1941">
        <ele>132.6</ele>
        <time>2021-08-10T09:12:24Z</time>
      </trkpt>
      <trkpt lat="48.22299" lon="-3.19416">
        <ele>132.8</ele>
        <time>2021-08-10T09:12:25Z</time>
      </trkpt>
      <trkpt lat="48.22296" lon="-3.19422">
        <ele>132.8</ele>
        <time>2021-08-10T09:12:26Z</time>
      </trkpt>
      <trkpt lat="48.22294" lon="-3.19429">
        <ele>132.8</ele>
        <time>2021-08-10T09:12:27Z</time>
      </trkpt>
      <trkpt lat="48.22291" lon="-3.19436">
        <ele>132.8</ele>
        <time>2021-08-10T09:12:28Z</time>
      </trkpt>
      <trkpt lat="48.22289" lon="-3.19443">
        <ele>132.8</ele>
        <time>2021-08-10T09:12:29Z</time>
      </trkpt>
      <trkpt lat="48.22287" lon="-3.1945">
        <ele>132.8</ele>
        <time>2021-08-10T09:12:30Z</time>
      </trkpt>
      <trkpt lat="48.22285" lon="-3.19458">
        <ele>132.8</ele>
        <time>2021-08-10T09:12:31Z</time>
      </trkpt>
      <trkpt lat="48.22283" lon="-3.19465">
        <ele>132.8</ele>
        <time>2021-08-10T09:12:32Z</time>
      </trkpt>
      <trkpt lat="48.22281" lon="-3.19472">
        <ele>132.8</ele>
        <time>2021-08-10T09:12:33Z</time>
      </trkpt>
      <trkpt lat="48.22279" lon="-3.1948">
        <ele>132.8</ele>
        <time>2021-08-10T09:12:34Z</time>
      </trkpt>
      <trkpt lat="48.22277" lon="-3.19487">
        <ele>132.8</ele>
        <time>2021-08-10T09:12:35Z</time>
      </trkpt>
      <trkpt lat="48.22275" lon="-3.19495">
        <ele>132.8</ele>
        <time>2021-08-10T09:12:36Z</time>
      </trkpt>
      <trkpt lat="48.22273" lon="-3.19502">
        <ele>132.6</ele>
        <time>2021-08-10T09:12:37Z</time>
      </trkpt>
      <trkpt lat="48.22272" lon="-3.1951">
        <ele>132.6</ele>
        <time>2021-08-10T09:12:38Z</time>
      </trkpt>
      <trkpt lat="48.2227" lon="-3.19517">
        <ele>132.6</ele>
        <time>2021-08-10T09:12:39Z</time>
      </trkpt>
      <trkpt lat="48.22268" lon="-3.19524">
        <ele>132.6</ele>
        <time>2021-08-10T09:12:40Z</time>
      </trkpt>
      <trkpt lat="48.22266" lon="-3.19531">
        <ele>132.6</ele>
        <time>2021-08-10T09:12:41Z</time>
      </trkpt>
      <trkpt lat="48.22264" lon="-3.19538">
        <ele>132.6</ele>
        <time>2021-08-10T09:12:42Z</time>
      </trkpt>
      <trkpt lat="48.22261" lon="-3.19545">
        <ele>132.6</ele>
        <time>2021-08-10T09:12:43Z</time>
      </trkpt>
      <trkpt lat="48.22259" lon="-3.19551">
        <ele>132.6</ele>
        <time>2021-08-10T09:12:44Z</time>
      </trkpt>
      <trkpt lat="48.22257" lon="-3.19557">
        <ele>132.4</ele>
        <time>2021-08-10T09:12:45Z</time>
      </trkpt>
      <trkpt lat="48.22255" lon="-3.19562">
        <ele>132.4</ele>
        <time>2021-08-10T09:12:46Z</time>
      </trkpt>
      <trkpt lat="48.22253" lon="-3.19567">
        <ele>132.4</ele>
        <time>2021-08-10T09:12:47Z</time>
      </trkpt>
      <trkpt lat="48.22251" lon="-3.19571">
        <ele>132.4</ele>
        <time>2021-08-10T09:12:48Z</time>
      </trkpt>
      <trkpt lat="48.22249" lon="-3.19575">
        <ele>132.4</ele>
        <time>2021-08-10T09:12:49Z</time>
      </trkpt>
      <trkpt lat="48.22247" lon="-3.19578">
        <ele>132.4</ele>
        <time>2021-08-10T09:12:50Z</time>
      </trkpt>
      <trkpt lat="48.22245" lon="-3.19581">
        <ele>132.4</ele>
        <time>2021-08-10T09:12:51Z</time>
      </trkpt>
      <trkpt lat="48.22244" lon="-3.19583">
        <ele>132.6</ele>
        <time>2021-08-10T09:12:52Z</time>
      </trkpt>
      <trkpt lat="48.22242" lon="-3.19586">
        <ele>132.6</ele>
        <time>2021-08-10T09:12:53Z</time>
      </trkpt>
      <trkpt lat="48.22241" lon="-3.19588">
        <ele>132.6</ele>
        <time>2021-08-10T09:12:54Z</time>
      </trkpt>
      <trkpt lat="48.2224" lon="-3.19591">
        <ele>132.8</ele>
        <time>2021-08-10T09:12:55Z</time>
      </trkpt>
      <trkpt lat="48.22239" lon="-3.19593">
        <ele>133</ele>
        <time>2021-08-10T09:12:56Z</time>
      </trkpt>
      <trkpt lat="48.22238" lon="-3.19595">
        <ele>133.2</ele>
        <time>2021-08-10T09:12:57Z</time>
      </trkpt>
      <trkpt lat="48.22237" lon="-3.19597">
        <ele>133.2</ele>
        <time>2021-08-10T09:12:58Z</time>
      </trkpt>
      <trkpt lat="48.22236" lon="-3.19598">
        <ele>133.2</ele>
        <time>2021-08-10T09:12:59Z</time>
      </trkpt>
      <trkpt lat="48.22235" lon="-3.196">
        <ele>133.4</ele>
        <time>2021-08-10T09:13:00Z</time>
      </trkpt>
      <trkpt lat="48.22235" lon="-3.19601">
        <ele>133.4</ele>
        <time>2021-08-10T09:13:01Z</time>
      </trkpt>
      <trkpt lat="48.22234" lon="-3.19602">
        <ele>133.4</ele>
        <time>2021-08-10T09:13:02Z</time>
      </trkpt>
      <trkpt lat="48.22233" lon="-3.19604">
        <ele>133.2</ele>
        <time>2021-08-10T09:13:20Z</time>
      </trkpt>
      <trkpt lat="48.22232" lon="-3.19606">
        <ele>133.2</ele>
        <time>2021-08-10T09:13:21Z</time>
      </trkpt>
      <trkpt lat="48.22231" lon="-3.19607">
        <ele>133.2</ele>
        <time>2021-08-10T09:13:22Z</time>
      </trkpt>
      <trkpt lat="48.2223" lon="-3.1961">
        <ele>133.2</ele>
        <time>2021-08-10T09:13:23Z</time>
      </trkpt>
      <trkpt lat="48.22228" lon="-3.19613">
        <ele>133.2</ele>
        <time>2021-08-10T09:13:24Z</time>
      </trkpt>
      <trkpt lat="48.22227" lon="-3.19617">
        <ele>133.2</ele>
        <time>2021-08-10T09:13:25Z</time>
      </trkpt>
      <trkpt lat="48.22225" lon="-3.19621">
        <ele>133.2</ele>
        <time>2021-08-10T09:13:26Z</time>
      </trkpt>
      <trkpt lat="48.22223" lon="-3.19626">
        <ele>133.2</ele>
        <time>2021-08-10T09:13:27Z</time>
      </trkpt>
      <trkpt lat="48.22222" lon="-3.19632">
        <ele>133.2</ele>
        <time>2021-08-10T09:13:28Z</time>
      </trkpt>
      <trkpt lat="48.2222" lon="-3.19638">
        <ele>133.2</ele>
        <time>2021-08-10T09:13:29Z</time>
      </trkpt>
      <trkpt lat="48.22218" lon="-3.19645">
        <ele>133.2</ele>
        <time>2021-08-10T09:13:30Z</time>
      </trkpt>
      <trkpt lat="48.22217" lon="-3.19652">
        <ele>133</ele>
        <time>2021-08-10T09:13:31Z</time>
      </trkpt>
      <trkpt lat="48.22216" lon="-3.19659">
        <ele>133</ele>
        <time>2021-08-10T09:13:32Z</time>
      </trkpt>
      <trkpt lat="48.22214" lon="-3.19666">
        <ele>132.8</ele>
        <time>2021-08-10T09:13:33Z</time>
      </trkpt>
      <trkpt lat="48.22211" lon="-3.19673">
        <ele>132.6</ele>
        <time>2021-08-10T09:13:34Z</time>
      </trkpt>
      <trkpt lat="48.22209" lon="-3.1968">
        <ele>132.6</ele>
        <time>2021-08-10T09:13:35Z</time>
      </trkpt>
      <trkpt lat="48.22206" lon="-3.19687">
        <ele>132.6</ele>
        <time>2021-08-10T09:13:36Z</time>
      </trkpt>
      <trkpt lat="48.22202" lon="-3.19694">
        <ele>132.4</ele>
        <time>2021-08-10T09:13:37Z</time>
      </trkpt>
      <trkpt lat="48.22199" lon="-3.19701">
        <ele>132.4</ele>
        <time>2021-08-10T09:13:38Z</time>
      </trkpt>
      <trkpt lat="48.22195" lon="-3.19707">
        <ele>132.4</ele>
        <time>2021-08-10T09:13:39Z</time>
      </trkpt>
      <trkpt lat="48.22191" lon="-3.19712">
        <ele>132.4</ele>
        <time>2021-08-10T09:13:40Z</time>
      </trkpt>
      <trkpt lat="48.22187" lon="-3.19718">
        <ele>132.4</ele>
        <time>2021-08-10T09:13:41Z</time>
      </trkpt>
      <trkpt lat="48.22182" lon="-3.19723">
        <ele>132.2</ele>
        <time>2021-08-10T09:13:42Z</time>
      </trkpt>
      <trkpt lat="48.22178" lon="-3.19729">
        <ele>132</ele>
        <time>2021-08-10T09:13:43Z</time>
      </trkpt>
      <trkpt lat="48.22173" lon="-3.19734">
        <ele>132</ele>
        <time>2021-08-10T09:13:44Z</time>
      </trkpt>
      <trkpt lat="48.22169" lon="-3.1974">
        <ele>131.8</ele>
        <time>2021-08-10T09:13:45Z</time>
      </trkpt>
      <trkpt lat="48.22164" lon="-3.19745">
        <ele>131.8</ele>
        <time>2021-08-10T09:13:46Z</time>
      </trkpt>
      <trkpt lat="48.2216" lon="-3.19751">
        <ele>131.8</ele>
        <time>2021-08-10T09:13:47Z</time>
      </trkpt>
      <trkpt lat="48.22156" lon="-3.19756">
        <ele>131.8</ele>
        <time>2021-08-10T09:13:48Z</time>
      </trkpt>
      <trkpt lat="48.22151" lon="-3.19762">
        <ele>131.6</ele>
        <time>2021-08-10T09:13:49Z</time>
      </trkpt>
      <trkpt lat="48.22146" lon="-3.19767">
        <ele>131.4</ele>
        <time>2021-08-10T09:13:50Z</time>
      </trkpt>
      <trkpt lat="48.22142" lon="-3.19773">
        <ele>131.4</ele>
        <time>2021-08-10T09:13:51Z</time>
      </trkpt>
      <trkpt lat="48.22137" lon="-3.19778">
        <ele>131.4</ele>
        <time>2021-08-10T09:13:52Z</time>
      </trkpt>
      <trkpt lat="48.22133" lon="-3.19783">
        <ele>131.4</ele>
        <time>2021-08-10T09:13:53Z</time>
      </trkpt>
      <trkpt lat="48.22129" lon="-3.19789">
        <ele>131.4</ele>
        <time>2021-08-10T09:13:54Z</time>
      </trkpt>
      <trkpt lat="48.22125" lon="-3.19794">
        <ele>131.4</ele>
        <time>2021-08-10T09:13:55Z</time>
      </trkpt>
      <trkpt lat="48.2212" lon="-3.19799">
        <ele>131.4</ele>
        <time>2021-08-10T09:13:56Z</time>
      </trkpt>
      <trkpt lat="48.22116" lon="-3.19804">
        <ele>131.4</ele>
        <time>2021-08-10T09:13:57Z</time>
      </trkpt>
      <trkpt lat="48.22112" lon="-3.19809">
        <ele>131.2</ele>
        <time>2021-08-10T09:13:58Z</time>
      </trkpt>
      <trkpt lat="48.22107" lon="-3.19815">
        <ele>131.2</ele>
        <time>2021-08-10T09:13:59Z</time>
      </trkpt>
      <trkpt lat="48.22103" lon="-3.1982">
        <ele>131.2</ele>
        <time>2021-08-10T09:14:00Z</time>
      </trkpt>
      <trkpt lat="48.22099" lon="-3.19825">
        <ele>131.2</ele>
        <time>2021-08-10T09:14:01Z</time>
      </trkpt>
      <trkpt lat="48.22095" lon="-3.1983">
        <ele>131.2</ele>
        <time>2021-08-10T09:14:02Z</time>
      </trkpt>
      <trkpt lat="48.22091" lon="-3.19835">
        <ele>131.2</ele>
        <time>2021-08-10T09:14:03Z</time>
      </trkpt>
      <trkpt lat="48.22086" lon="-3.1984">
        <ele>131.2</ele>
        <time>2021-08-10T09:14:04Z</time>
      </trkpt>
      <trkpt lat="48.22082" lon="-3.19845">
        <ele>131.2</ele>
        <time>2021-08-10T09:14:05Z</time>
      </trkpt>
      <trkpt lat="48.22077" lon="-3.19851">
        <ele>131.2</ele>
        <time>2021-08-10T09:14:06Z</time>
      </trkpt>
      <trkpt lat="48.22073" lon="-3.19856">
        <ele>131.2</ele>
        <time>2021-08-10T09:14:07Z</time>
      </trkpt>
      <trkpt lat="48.22068" lon="-3.19861">
        <ele>131.2</ele>
        <time>2021-08-10T09:14:08Z</time>
      </trkpt>
      <trkpt lat="48.22064" lon="-3.19867">
        <ele>131.2</ele>
        <time>2021-08-10T09:14:09Z</time>
      </trkpt>
      <trkpt lat="48.2206" lon="-3.19873">
        <ele>131.2</ele>
        <time>2021-08-10T09:14:10Z</time>
      </trkpt>
      <trkpt lat="48.22056" lon="-3.1988">
        <ele>131.4</ele>
        <time>2021-08-10T09:14:11Z</time>
      </trkpt>
      <trkpt lat="48.22053" lon="-3.19887">
        <ele>131.2</ele>
        <time>2021-08-10T09:14:12Z</time>
      </trkpt>
      <trkpt lat="48.2205" lon="-3.19894">
        <ele>131.2</ele>
        <time>2021-08-10T09:14:13Z</time>
      </trkpt>
      <trkpt lat="48.22046" lon="-3.19901">
        <ele>131.4</ele>
        <time>2021-08-10T09:14:14Z</time>
      </trkpt>
      <trkpt lat="48.22043" lon="-3.19908">
        <ele>131.4</ele>
        <time>2021-08-10T09:14:15Z</time>
      </trkpt>
      <trkpt lat="48.2204" lon="-3.19915">
        <ele>131.4</ele>
        <time>2021-08-10T09:14:16Z</time>
      </trkpt>
      <trkpt lat="48.22037" lon="-3.19923">
        <ele>131.4</ele>
        <time>2021-08-10T09:14:17Z</time>
      </trkpt>
      <trkpt lat="48.22033" lon="-3.1993">
        <ele>131.6</ele>
        <time>2021-08-10T09:14:18Z</time>
      </trkpt>
      <trkpt lat="48.2203" lon="-3.19937">
        <ele>131.6</ele>
        <time>2021-08-10T09:14:19Z</time>
      </trkpt>
      <trkpt lat="48.22027" lon="-3.19944">
        <ele>131.6</ele>
        <time>2021-08-10T09:14:20Z</time>
      </trkpt>
      <trkpt lat="48.22023" lon="-3.19951">
        <ele>131.6</ele>
        <time>2021-08-10T09:14:21Z</time>
      </trkpt>
      <trkpt lat="48.2202" lon="-3.19958">
        <ele>131.8</ele>
        <time>2021-08-10T09:14:22Z</time>
      </trkpt>
      <trkpt lat="48.22017" lon="-3.19965">
        <ele>131.8</ele>
        <time>2021-08-10T09:14:23Z</time>
      </trkpt>
      <trkpt lat="48.22014" lon="-3.19972">
        <ele>131.8</ele>
        <time>2021-08-10T09:14:24Z</time>
      </trkpt>
      <trkpt lat="48.22011" lon="-3.19979">
        <ele>131.8</ele>
        <time>2021-08-10T09:14:25Z</time>
      </trkpt>
      <trkpt lat="48.22008" lon="-3.19985">
        <ele>131.8</ele>
        <time>2021-08-10T09:14:26Z</time>
      </trkpt>
      <trkpt lat="48.22005" lon="-3.19992">
        <ele>131.8</ele>
        <time>2021-08-10T09:14:27Z</time>
      </trkpt>
      <trkpt lat="48.22002" lon="-3.19998">
        <ele>132</ele>
        <time>2021-08-10T09:14:28Z</time>
      </trkpt>
      <trkpt lat="48.21999" lon="-3.20004">
        <ele>132</ele>
        <time>2021-08-10T09:14:29Z</time>
      </trkpt>
      <trkpt lat="48.21997" lon="-3.20011">
        <ele>132</ele>
        <time>2021-08-10T09:14:30Z</time>
      </trkpt>
      <trkpt lat="48.21994" lon="-3.20017">
        <ele>132.2</ele>
        <time>2021-08-10T09:14:31Z</time>
      </trkpt>
      <trkpt lat="48.21991" lon="-3.20023">
        <ele>132.4</ele>
        <time>2021-08-10T09:14:32Z</time>
      </trkpt>
      <trkpt lat="48.21988" lon="-3.20029">
        <ele>132.4</ele>
        <time>2021-08-10T09:14:33Z</time>
      </trkpt>
      <trkpt lat="48.21986" lon="-3.20034">
        <ele>132.4</ele>
        <time>2021-08-10T09:14:34Z</time>
      </trkpt>
      <trkpt lat="48.21983" lon="-3.2004">
        <ele>132.6</ele>
        <time>2021-08-10T09:14:35Z</time>
      </trkpt>
      <trkpt lat="48.21981" lon="-3.20045">
        <ele>132.6</ele>
        <time>2021-08-10T09:14:36Z</time>
      </trkpt>
      <trkpt lat="48.21978" lon="-3.2005">
        <ele>132.6</ele>
        <time>2021-08-10T09:14:37Z</time>
      </trkpt>
      <trkpt lat="48.21976" lon="-3.20055">
        <ele>132.8</ele>
        <time>2021-08-10T09:14:38Z</time>
      </trkpt>
      <trkpt lat="48.21974" lon="-3.2006">
        <ele>132.8</ele>
        <time>2021-08-10T09:14:39Z</time>
      </trkpt>
      <trkpt lat="48.21971" lon="-3.20065">
        <ele>132.8</ele>
        <time>2021-08-10T09:14:40Z</time>
      </trkpt>
      <trkpt lat="48.21969" lon="-3.2007">
        <ele>133</ele>
        <time>2021-08-10T09:14:41Z</time>
      </trkpt>
      <trkpt lat="48.21967" lon="-3.20075">
        <ele>133</ele>
        <time>2021-08-10T09:14:42Z</time>
      </trkpt>
      <trkpt lat="48.21964" lon="-3.20081">
        <ele>133</ele>
        <time>2021-08-10T09:14:43Z</time>
      </trkpt>
      <trkpt lat="48.21961" lon="-3.20087">
        <ele>133</ele>
        <time>2021-08-10T09:14:44Z</time>
      </trkpt>
      <trkpt lat="48.21959" lon="-3.20092">
        <ele>133</ele>
        <time>2021-08-10T09:14:45Z</time>
      </trkpt>
      <trkpt lat="48.21956" lon="-3.20098">
        <ele>133.2</ele>
        <time>2021-08-10T09:14:46Z</time>
      </trkpt>
      <trkpt lat="48.21954" lon="-3.20103">
        <ele>133.2</ele>
        <time>2021-08-10T09:14:47Z</time>
      </trkpt>
      <trkpt lat="48.21951" lon="-3.20108">
        <ele>133.2</ele>
        <time>2021-08-10T09:14:48Z</time>
      </trkpt>
      <trkpt lat="48.21949" lon="-3.20114">
        <ele>133.2</ele>
        <time>2021-08-10T09:14:49Z</time>
      </trkpt>
      <trkpt lat="48.21946" lon="-3.20119">
        <ele>133.2</ele>
        <time>2021-08-10T09:14:50Z</time>
      </trkpt>
      <trkpt lat="48.21944" lon="-3.20125">
        <ele>133.4</ele>
        <time>2021-08-10T09:14:51Z</time>
      </trkpt>
      <trkpt lat="48.21941" lon="-3.2013">
        <ele>133.2</ele>
        <time>2021-08-10T09:14:52Z</time>
      </trkpt>
      <trkpt lat="48.21938" lon="-3.20136">
        <ele>133.2</ele>
        <time>2021-08-10T09:14:53Z</time>
      </trkpt>
      <trkpt lat="48.21935" lon="-3.20142">
        <ele>133.2</ele>
        <time>2021-08-10T09:14:54Z</time>
      </trkpt>
      <trkpt lat="48.21933" lon="-3.20148">
        <ele>133.4</ele>
        <time>2021-08-10T09:14:55Z</time>
      </trkpt>
      <trkpt lat="48.2193" lon="-3.20154">
        <ele>133.4</ele>
        <time>2021-08-10T09:14:56Z</time>
      </trkpt>
      <trkpt lat="48.21927" lon="-3.2016">
        <ele>133.4</ele>
        <time>2021-08-10T09:14:57Z</time>
      </trkpt>
      <trkpt lat="48.21925" lon="-3.20165">
        <ele>133.4</ele>
        <time>2021-08-10T09:14:58Z</time>
      </trkpt>
      <trkpt lat="48.21922" lon="-3.20171">
        <ele>133.4</ele>
        <time>2021-08-10T09:14:59Z</time>
      </trkpt>
      <trkpt lat="48.2192" lon="-3.20176">
        <ele>133.4</ele>
        <time>2021-08-10T09:15:00Z</time>
      </trkpt>
      <trkpt lat="48.21917" lon="-3.20182">
        <ele>133.4</ele>
        <time>2021-08-10T09:15:01Z</time>
      </trkpt>
      <trkpt lat="48.21915" lon="-3.20187">
        <ele>133.4</ele>
        <time>2021-08-10T09:15:02Z</time>
      </trkpt>
      <trkpt lat="48.21912" lon="-3.20192">
        <ele>133.6</ele>
        <time>2021-08-10T09:15:03Z</time>
      </trkpt>
      <trkpt lat="48.2191" lon="-3.20197">
        <ele>133.6</ele>
        <time>2021-08-10T09:15:04Z</time>
      </trkpt>
      <trkpt lat="48.21907" lon="-3.20203">
        <ele>133.6</ele>
        <time>2021-08-10T09:15:05Z</time>
      </trkpt>
      <trkpt lat="48.21905" lon="-3.20209">
        <ele>133.6</ele>
        <time>2021-08-10T09:15:06Z</time>
      </trkpt>
      <trkpt lat="48.21902" lon="-3.20215">
        <ele>133.6</ele>
        <time>2021-08-10T09:15:07Z</time>
      </trkpt>
      <trkpt lat="48.21899" lon="-3.2022">
        <ele>133.6</ele>
        <time>2021-08-10T09:15:08Z</time>
      </trkpt>
      <trkpt lat="48.21897" lon="-3.20225">
        <ele>133.6</ele>
        <time>2021-08-10T09:15:09Z</time>
      </trkpt>
      <trkpt lat="48.21894" lon="-3.2023">
        <ele>133.6</ele>
        <time>2021-08-10T09:15:10Z</time>
      </trkpt>
      <trkpt lat="48.21892" lon="-3.20235">
        <ele>133.6</ele>
        <time>2021-08-10T09:15:11Z</time>
      </trkpt>
      <trkpt lat="48.2189" lon="-3.20241">
        <ele>133.6</ele>
        <time>2021-08-10T09:15:12Z</time>
      </trkpt>
      <trkpt lat="48.21888" lon="-3.20247">
        <ele>133.6</ele>
        <time>2021-08-10T09:15:13Z</time>
      </trkpt>
      <trkpt lat="48.21885" lon="-3.20252">
        <ele>133.6</ele>
        <time>2021-08-10T09:15:14Z</time>
      </trkpt>
      <trkpt lat="48.21883" lon="-3.20258">
        <ele>133.6</ele>
        <time>2021-08-10T09:15:15Z</time>
      </trkpt>
      <trkpt lat="48.2188" lon="-3.20263">
        <ele>133.6</ele>
        <time>2021-08-10T09:15:16Z</time>
      </trkpt>
      <trkpt lat="48.21878" lon="-3.20268">
        <ele>133.6</ele>
        <time>2021-08-10T09:15:17Z</time>
      </trkpt>
      <trkpt lat="48.21876" lon="-3.20274">
        <ele>133.6</ele>
        <time>2021-08-10T09:15:18Z</time>
      </trkpt>
      <trkpt lat="48.21874" lon="-3.20279">
        <ele>133.6</ele>
        <time>2021-08-10T09:15:19Z</time>
      </trkpt>
      <trkpt lat="48.21871" lon="-3.20285">
        <ele>133.8</ele>
        <time>2021-08-10T09:15:20Z</time>
      </trkpt>
      <trkpt lat="48.21869" lon="-3.2029">
        <ele>133.8</ele>
        <time>2021-08-10T09:15:21Z</time>
      </trkpt>
      <trkpt lat="48.21867" lon="-3.20296">
        <ele>133.8</ele>
        <time>2021-08-10T09:15:22Z</time>
      </trkpt>
      <trkpt lat="48.21864" lon="-3.20301">
        <ele>133.8</ele>
        <time>2021-08-10T09:15:23Z</time>
      </trkpt>
      <trkpt lat="48.21862" lon="-3.20306">
        <ele>133.8</ele>
        <time>2021-08-10T09:15:24Z</time>
      </trkpt>
      <trkpt lat="48.21859" lon="-3.20312">
        <ele>133.8</ele>
        <time>2021-08-10T09:15:25Z</time>
      </trkpt>
      <trkpt lat="48.21857" lon="-3.20317">
        <ele>133.8</ele>
        <time>2021-08-10T09:15:26Z</time>
      </trkpt>
      <trkpt lat="48.21854" lon="-3.20322">
        <ele>133.8</ele>
        <time>2021-08-10T09:15:27Z</time>
      </trkpt>
      <trkpt lat="48.21852" lon="-3.20327">
        <ele>133.8</ele>
        <time>2021-08-10T09:15:28Z</time>
      </trkpt>
      <trkpt lat="48.21849" lon="-3.20333">
        <ele>133.8</ele>
        <time>2021-08-10T09:15:29Z</time>
      </trkpt>
      <trkpt lat="48.21847" lon="-3.20338">
        <ele>133.8</ele>
        <time>2021-08-10T09:15:30Z</time>
      </trkpt>
      <trkpt lat="48.21844" lon="-3.20343">
        <ele>133.8</ele>
        <time>2021-08-10T09:15:31Z</time>
      </trkpt>
      <trkpt lat="48.21842" lon="-3.20348">
        <ele>133.8</ele>
        <time>2021-08-10T09:15:32Z</time>
      </trkpt>
      <trkpt lat="48.21839" lon="-3.20354">
        <ele>133.8</ele>
        <time>2021-08-10T09:15:33Z</time>
      </trkpt>
      <trkpt lat="48.21837" lon="-3.2036">
        <ele>133.8</ele>
        <time>2021-08-10T09:15:34Z</time>
      </trkpt>
      <trkpt lat="48.21835" lon="-3.20365">
        <ele>133.8</ele>
        <time>2021-08-10T09:15:35Z</time>
      </trkpt>
      <trkpt lat="48.21833" lon="-3.20371">
        <ele>133.8</ele>
        <time>2021-08-10T09:15:36Z</time>
      </trkpt>
      <trkpt lat="48.2183" lon="-3.20376">
        <ele>133.8</ele>
        <time>2021-08-10T09:15:37Z</time>
      </trkpt>
      <trkpt lat="48.21828" lon="-3.20381">
        <ele>133.8</ele>
        <time>2021-08-10T09:15:38Z</time>
      </trkpt>
      <trkpt lat="48.21826" lon="-3.20385">
        <ele>133.8</ele>
        <time>2021-08-10T09:15:39Z</time>
      </trkpt>
      <trkpt lat="48.21824" lon="-3.2039">
        <ele>133.8</ele>
        <time>2021-08-10T09:15:40Z</time>
      </trkpt>
      <trkpt lat="48.21822" lon="-3.20394">
        <ele>133.8</ele>
        <time>2021-08-10T09:15:41Z</time>
      </trkpt>
      <trkpt lat="48.2182" lon="-3.20399">
        <ele>134</ele>
        <time>2021-08-10T09:15:42Z</time>
      </trkpt>
      <trkpt lat="48.21818" lon="-3.20403">
        <ele>134</ele>
        <time>2021-08-10T09:15:43Z</time>
      </trkpt>
      <trkpt lat="48.21816" lon="-3.20408">
        <ele>134</ele>
        <time>2021-08-10T09:15:44Z</time>
      </trkpt>
      <trkpt lat="48.21814" lon="-3.20412">
        <ele>134</ele>
        <time>2021-08-10T09:15:45Z</time>
      </trkpt>
      <trkpt lat="48.21812" lon="-3.20417">
        <ele>134</ele>
        <time>2021-08-10T09:15:46Z</time>
      </trkpt>
      <trkpt lat="48.21811" lon="-3.20422">
        <ele>134</ele>
        <time>2021-08-10T09:15:47Z</time>
      </trkpt>
      <trkpt lat="48.21809" lon="-3.20426">
        <ele>134.2</ele>
        <time>2021-08-10T09:15:48Z</time>
      </trkpt>
      <trkpt lat="48.21808" lon="-3.2043">
        <ele>134.4</ele>
        <time>2021-08-10T09:15:49Z</time>
      </trkpt>
      <trkpt lat="48.21807" lon="-3.20434">
        <ele>134.8</ele>
        <time>2021-08-10T09:15:50Z</time>
      </trkpt>
      <trkpt lat="48.21806" lon="-3.20439">
        <ele>135</ele>
        <time>2021-08-10T09:15:51Z</time>
      </trkpt>
      <trkpt lat="48.21804" lon="-3.20444">
        <ele>135.2</ele>
        <time>2021-08-10T09:15:52Z</time>
      </trkpt>
      <trkpt lat="48.21803" lon="-3.20448">
        <ele>135.2</ele>
        <time>2021-08-10T09:15:53Z</time>
      </trkpt>
      <trkpt lat="48.21801" lon="-3.20453">
        <ele>135.4</ele>
        <time>2021-08-10T09:15:54Z</time>
      </trkpt>
      <trkpt lat="48.218" lon="-3.20457">
        <ele>135.6</ele>
        <time>2021-08-10T09:15:55Z</time>
      </trkpt>
      <trkpt lat="48.21799" lon="-3.20462">
        <ele>135.8</ele>
        <time>2021-08-10T09:15:56Z</time>
      </trkpt>
      <trkpt lat="48.21797" lon="-3.20466">
        <ele>136</ele>
        <time>2021-08-10T09:15:57Z</time>
      </trkpt>
      <trkpt lat="48.21795" lon="-3.2047">
        <ele>136.2</ele>
        <time>2021-08-10T09:15:58Z</time>
      </trkpt>
      <trkpt lat="48.21794" lon="-3.20474">
        <ele>136.2</ele>
        <time>2021-08-10T09:15:59Z</time>
      </trkpt>
      <trkpt lat="48.21792" lon="-3.20478">
        <ele>136.4</ele>
        <time>2021-08-10T09:16:00Z</time>
      </trkpt>
      <trkpt lat="48.21791" lon="-3.20481">
        <ele>136.4</ele>
        <time>2021-08-10T09:16:01Z</time>
      </trkpt>
      <trkpt lat="48.2179" lon="-3.20485">
        <ele>136.4</ele>
        <time>2021-08-10T09:16:02Z</time>
      </trkpt>
      <trkpt lat="48.21789" lon="-3.20488">
        <ele>136.4</ele>
        <time>2021-08-10T09:16:03Z</time>
      </trkpt>
      <trkpt lat="48.21788" lon="-3.20492">
        <ele>136.6</ele>
        <time>2021-08-10T09:16:04Z</time>
      </trkpt>
      <trkpt lat="48.21787" lon="-3.20495">
        <ele>136.8</ele>
        <time>2021-08-10T09:16:05Z</time>
      </trkpt>
      <trkpt lat="48.21786" lon="-3.20498">
        <ele>136.8</ele>
        <time>2021-08-10T09:16:06Z</time>
      </trkpt>
      <trkpt lat="48.21785" lon="-3.20502">
        <ele>136.8</ele>
        <time>2021-08-10T09:16:07Z</time>
      </trkpt>
      <trkpt lat="48.21784" lon="-3.20505">
        <ele>137</ele>
        <time>2021-08-10T09:16:08Z</time>
      </trkpt>
      <trkpt lat="48.21783" lon="-3.20508">
        <ele>137</ele>
        <time>2021-08-10T09:16:09Z</time>
      </trkpt>
      <trkpt lat="48.21783" lon="-3.20512">
        <ele>137.2</ele>
        <time>2021-08-10T09:16:10Z</time>
      </trkpt>
      <trkpt lat="48.21782" lon="-3.20515">
        <ele>137.2</ele>
        <time>2021-08-10T09:16:11Z</time>
      </trkpt>
      <trkpt lat="48.21781" lon="-3.20519">
        <ele>137.4</ele>
        <time>2021-08-10T09:16:12Z</time>
      </trkpt>
      <trkpt lat="48.21779" lon="-3.20523">
        <ele>137.4</ele>
        <time>2021-08-10T09:16:13Z</time>
      </trkpt>
      <trkpt lat="48.21778" lon="-3.20528">
        <ele>137.4</ele>
        <time>2021-08-10T09:16:14Z</time>
      </trkpt>
      <trkpt lat="48.21776" lon="-3.20532">
        <ele>137.4</ele>
        <time>2021-08-10T09:16:15Z</time>
      </trkpt>
      <trkpt lat="48.21774" lon="-3.20538">
        <ele>137.4</ele>
        <time>2021-08-10T09:16:16Z</time>
      </trkpt>
      <trkpt lat="48.21772" lon="-3.20544">
        <ele>137.4</ele>
        <time>2021-08-10T09:16:17Z</time>
      </trkpt>
      <trkpt lat="48.2177" lon="-3.2055">
        <ele>137.4</ele>
        <time>2021-08-10T09:16:18Z</time>
      </trkpt>
      <trkpt lat="48.21768" lon="-3.20556">
        <ele>137.4</ele>
        <time>2021-08-10T09:16:19Z</time>
      </trkpt>
      <trkpt lat="48.21765" lon="-3.20561">
        <ele>137.4</ele>
        <time>2021-08-10T09:16:20Z</time>
      </trkpt>
      <trkpt lat="48.21762" lon="-3.20567">
        <ele>137.4</ele>
        <time>2021-08-10T09:16:21Z</time>
      </trkpt>
      <trkpt lat="48.2176" lon="-3.20572">
        <ele>137.4</ele>
        <time>2021-08-10T09:16:22Z</time>
      </trkpt>
      <trkpt lat="48.21757" lon="-3.20577">
        <ele>137.2</ele>
        <time>2021-08-10T09:16:23Z</time>
      </trkpt>
      <trkpt lat="48.21755" lon="-3.20582">
        <ele>137</ele>
        <time>2021-08-10T09:16:24Z</time>
      </trkpt>
      <trkpt lat="48.21753" lon="-3.20587">
        <ele>137</ele>
        <time>2021-08-10T09:16:25Z</time>
      </trkpt>
      <trkpt lat="48.21751" lon="-3.20592">
        <ele>136.6</ele>
        <time>2021-08-10T09:16:26Z</time>
      </trkpt>
      <trkpt lat="48.21749" lon="-3.20598">
        <ele>136.6</ele>
        <time>2021-08-10T09:16:27Z</time>
      </trkpt>
      <trkpt lat="48.21747" lon="-3.20604">
        <ele>136.6</ele>
        <time>2021-08-10T09:16:28Z</time>
      </trkpt>
      <trkpt lat="48.21745" lon="-3.2061">
        <ele>136.6</ele>
        <time>2021-08-10T09:16:29Z</time>
      </trkpt>
      <trkpt lat="48.21743" lon="-3.20615">
        <ele>136.6</ele>
        <time>2021-08-10T09:16:30Z</time>
      </trkpt>
      <trkpt lat="48.21741" lon="-3.20619">
        <ele>136.6</ele>
        <time>2021-08-10T09:16:31Z</time>
      </trkpt>
      <trkpt lat="48.2174" lon="-3.20624">
        <ele>136.6</ele>
        <time>2021-08-10T09:16:32Z</time>
      </trkpt>
      <trkpt lat="48.21738" lon="-3.20628">
        <ele>136.6</ele>
        <time>2021-08-10T09:16:33Z</time>
      </trkpt>
      <trkpt lat="48.21736" lon="-3.20633">
        <ele>136.6</ele>
        <time>2021-08-10T09:16:34Z</time>
      </trkpt>
      <trkpt lat="48.21734" lon="-3.20638">
        <ele>136.6</ele>
        <time>2021-08-10T09:16:35Z</time>
      </trkpt>
      <trkpt lat="48.21732" lon="-3.20644">
        <ele>136.6</ele>
        <time>2021-08-10T09:16:36Z</time>
      </trkpt>
      <trkpt lat="48.21731" lon="-3.2065">
        <ele>136.6</ele>
        <time>2021-08-10T09:16:37Z</time>
      </trkpt>
      <trkpt lat="48.21729" lon="-3.20656">
        <ele>136.6</ele>
        <time>2021-08-10T09:16:38Z</time>
      </trkpt>
      <trkpt lat="48.21728" lon="-3.20661">
        <ele>136.6</ele>
        <time>2021-08-10T09:16:39Z</time>
      </trkpt>
      <trkpt lat="48.21726" lon="-3.20666">
        <ele>136.6</ele>
        <time>2021-08-10T09:16:40Z</time>
      </trkpt>
      <trkpt lat="48.21725" lon="-3.20671">
        <ele>136.6</ele>
        <time>2021-08-10T09:16:41Z</time>
      </trkpt>
      <trkpt lat="48.21723" lon="-3.20677">
        <ele>136.6</ele>
        <time>2021-08-10T09:16:42Z</time>
      </trkpt>
      <trkpt lat="48.2172" lon="-3.20683">
        <ele>136.6</ele>
        <time>2021-08-10T09:16:43Z</time>
      </trkpt>
      <trkpt lat="48.21718" lon="-3.20689">
        <ele>136.6</ele>
        <time>2021-08-10T09:16:44Z</time>
      </trkpt>
      <trkpt lat="48.21715" lon="-3.20695">
        <ele>136.6</ele>
        <time>2021-08-10T09:16:45Z</time>
      </trkpt>
      <trkpt lat="48.21712" lon="-3.20701">
        <ele>136.6</ele>
        <time>2021-08-10T09:16:46Z</time>
      </trkpt>
      <trkpt lat="48.21709" lon="-3.20706">
        <ele>136.6</ele>
        <time>2021-08-10T09:16:47Z</time>
      </trkpt>
      <trkpt lat="48.21705" lon="-3.20711">
        <ele>136.6</ele>
        <time>2021-08-10T09:16:48Z</time>
      </trkpt>
      <trkpt lat="48.21702" lon="-3.20715">
        <ele>136.6</ele>
        <time>2021-08-10T09:16:49Z</time>
      </trkpt>
      <trkpt lat="48.21698" lon="-3.20719">
        <ele>136.6</ele>
        <time>2021-08-10T09:16:50Z</time>
      </trkpt>
      <trkpt lat="48.21695" lon="-3.20723">
        <ele>136.6</ele>
        <time>2021-08-10T09:16:51Z</time>
      </trkpt>
      <trkpt lat="48.21692" lon="-3.20727">
        <ele>136.6</ele>
        <time>2021-08-10T09:16:52Z</time>
      </trkpt>
      <trkpt lat="48.21689" lon="-3.20732">
        <ele>136.6</ele>
        <time>2021-08-10T09:16:53Z</time>
      </trkpt>
      <trkpt lat="48.21685" lon="-3.20737">
        <ele>136.6</ele>
        <time>2021-08-10T09:16:54Z</time>
      </trkpt>
      <trkpt lat="48.21681" lon="-3.20741">
        <ele>136.8</ele>
        <time>2021-08-10T09:16:55Z</time>
      </trkpt>
      <trkpt lat="48.21677" lon="-3.20746">
        <ele>136.8</ele>
        <time>2021-08-10T09:16:56Z</time>
      </trkpt>
      <trkpt lat="48.21672" lon="-3.20751">
        <ele>136.8</ele>
        <time>2021-08-10T09:16:57Z</time>
      </trkpt>
      <trkpt lat="48.21668" lon="-3.20756">
        <ele>136.8</ele>
        <time>2021-08-10T09:16:58Z</time>
      </trkpt>
      <trkpt lat="48.21664" lon="-3.20761">
        <ele>136.8</ele>
        <time>2021-08-10T09:16:59Z</time>
      </trkpt>
      <trkpt lat="48.21661" lon="-3.20765">
        <ele>136.6</ele>
        <time>2021-08-10T09:17:00Z</time>
      </trkpt>
      <trkpt lat="48.21657" lon="-3.20769">
        <ele>136.6</ele>
        <time>2021-08-10T09:17:01Z</time>
      </trkpt>
      <trkpt lat="48.21653" lon="-3.20773">
        <ele>136.6</ele>
        <time>2021-08-10T09:17:02Z</time>
      </trkpt>
      <trkpt lat="48.2165" lon="-3.20778">
        <ele>136.4</ele>
        <time>2021-08-10T09:17:03Z</time>
      </trkpt>
      <trkpt lat="48.21646" lon="-3.20782">
        <ele>136.4</ele>
        <time>2021-08-10T09:17:04Z</time>
      </trkpt>
      <trkpt lat="48.21642" lon="-3.20787">
        <ele>136.4</ele>
        <time>2021-08-10T09:17:05Z</time>
      </trkpt>
      <trkpt lat="48.21638" lon="-3.20791">
        <ele>136.4</ele>
        <time>2021-08-10T09:17:06Z</time>
      </trkpt>
      <trkpt lat="48.21634" lon="-3.20796">
        <ele>136.4</ele>
        <time>2021-08-10T09:17:07Z</time>
      </trkpt>
      <trkpt lat="48.21629" lon="-3.20801">
        <ele>136.4</ele>
        <time>2021-08-10T09:17:08Z</time>
      </trkpt>
      <trkpt lat="48.21624" lon="-3.20805">
        <ele>136.4</ele>
        <time>2021-08-10T09:17:09Z</time>
      </trkpt>
      <trkpt lat="48.2162" lon="-3.2081">
        <ele>136.4</ele>
        <time>2021-08-10T09:17:10Z</time>
      </trkpt>
      <trkpt lat="48.21616" lon="-3.20816">
        <ele>136.4</ele>
        <time>2021-08-10T09:17:11Z</time>
      </trkpt>
      <trkpt lat="48.21612" lon="-3.20821">
        <ele>136.4</ele>
        <time>2021-08-10T09:17:12Z</time>
      </trkpt>
      <trkpt lat="48.21609" lon="-3.20827">
        <ele>136.4</ele>
        <time>2021-08-10T09:17:13Z</time>
      </trkpt>
      <trkpt lat="48.21605" lon="-3.20833">
        <ele>136.4</ele>
        <time>2021-08-10T09:17:14Z</time>
      </trkpt>
      <trkpt lat="48.21602" lon="-3.20839">
        <ele>136.4</ele>
        <time>2021-08-10T09:17:15Z</time>
      </trkpt>
      <trkpt lat="48.216" lon="-3.20845">
        <ele>136.4</ele>
        <time>2021-08-10T09:17:16Z</time>
      </trkpt>
      <trkpt lat="48.21597" lon="-3.20851">
        <ele>136.4</ele>
        <time>2021-08-10T09:17:17Z</time>
      </trkpt>
      <trkpt lat="48.21594" lon="-3.20857">
        <ele>136.4</ele>
        <time>2021-08-10T09:17:18Z</time>
      </trkpt>
      <trkpt lat="48.21592" lon="-3.20863">
        <ele>136.4</ele>
        <time>2021-08-10T09:17:19Z</time>
      </trkpt>
      <trkpt lat="48.21589" lon="-3.20868">
        <ele>136.4</ele>
        <time>2021-08-10T09:17:20Z</time>
      </trkpt>
      <trkpt lat="48.21586" lon="-3.20874">
        <ele>136.4</ele>
        <time>2021-08-10T09:17:21Z</time>
      </trkpt>
      <trkpt lat="48.21583" lon="-3.20879">
        <ele>136.4</ele>
        <time>2021-08-10T09:17:22Z</time>
      </trkpt>
      <trkpt lat="48.2158" lon="-3.20883">
        <ele>136.4</ele>
        <time>2021-08-10T09:17:23Z</time>
      </trkpt>
      <trkpt lat="48.21577" lon="-3.20888">
        <ele>136.4</ele>
        <time>2021-08-10T09:17:24Z</time>
      </trkpt>
      <trkpt lat="48.21573" lon="-3.20892">
        <ele>136.4</ele>
        <time>2021-08-10T09:17:25Z</time>
      </trkpt>
      <trkpt lat="48.2157" lon="-3.20897">
        <ele>136.4</ele>
        <time>2021-08-10T09:17:26Z</time>
      </trkpt>
      <trkpt lat="48.21566" lon="-3.20901">
        <ele>136.4</ele>
        <time>2021-08-10T09:17:27Z</time>
      </trkpt>
      <trkpt lat="48.21562" lon="-3.20905">
        <ele>136.4</ele>
        <time>2021-08-10T09:17:28Z</time>
      </trkpt>
      <trkpt lat="48.21559" lon="-3.20909">
        <ele>136.4</ele>
        <time>2021-08-10T09:17:29Z</time>
      </trkpt>
      <trkpt lat="48.21556" lon="-3.20913">
        <ele>136.4</ele>
        <time>2021-08-10T09:17:30Z</time>
      </trkpt>
      <trkpt lat="48.21552" lon="-3.20917">
        <ele>136.4</ele>
        <time>2021-08-10T09:17:31Z</time>
      </trkpt>
      <trkpt lat="48.21548" lon="-3.20921">
        <ele>136.4</ele>
        <time>2021-08-10T09:17:32Z</time>
      </trkpt>
      <trkpt lat="48.21545" lon="-3.20925">
        <ele>136.4</ele>
        <time>2021-08-10T09:17:33Z</time>
      </trkpt>
      <trkpt lat="48.21541" lon="-3.2093">
        <ele>136.4</ele>
        <time>2021-08-10T09:17:34Z</time>
      </trkpt>
      <trkpt lat="48.21537" lon="-3.20934">
        <ele>136.4</ele>
        <time>2021-08-10T09:17:35Z</time>
      </trkpt>
      <trkpt lat="48.21533" lon="-3.20938">
        <ele>136.4</ele>
        <time>2021-08-10T09:17:36Z</time>
      </trkpt>
      <trkpt lat="48.2153" lon="-3.20943">
        <ele>136.4</ele>
        <time>2021-08-10T09:17:37Z</time>
      </trkpt>
      <trkpt lat="48.21526" lon="-3.20947">
        <ele>136.4</ele>
        <time>2021-08-10T09:17:38Z</time>
      </trkpt>
      <trkpt lat="48.21522" lon="-3.20952">
        <ele>136.4</ele>
        <time>2021-08-10T09:17:39Z</time>
      </trkpt>
      <trkpt lat="48.21517" lon="-3.20956">
        <ele>136.4</ele>
        <time>2021-08-10T09:17:40Z</time>
      </trkpt>
      <trkpt lat="48.21513" lon="-3.20961">
        <ele>136.4</ele>
        <time>2021-08-10T09:17:41Z</time>
      </trkpt>
      <trkpt lat="48.21509" lon="-3.20966">
        <ele>136.4</ele>
        <time>2021-08-10T09:17:42Z</time>
      </trkpt>
      <trkpt lat="48.21506" lon="-3.2097">
        <ele>136.2</ele>
        <time>2021-08-10T09:17:43Z</time>
      </trkpt>
      <trkpt lat="48.21502" lon="-3.20974">
        <ele>136.2</ele>
        <time>2021-08-10T09:17:44Z</time>
      </trkpt>
      <trkpt lat="48.21498" lon="-3.20979">
        <ele>136.2</ele>
        <time>2021-08-10T09:17:45Z</time>
      </trkpt>
      <trkpt lat="48.21495" lon="-3.20983">
        <ele>136.2</ele>
        <time>2021-08-10T09:17:46Z</time>
      </trkpt>
      <trkpt lat="48.2149" lon="-3.20987">
        <ele>136.2</ele>
        <time>2021-08-10T09:17:47Z</time>
      </trkpt>
      <trkpt lat="48.21486" lon="-3.20992">
        <ele>136.2</ele>
        <time>2021-08-10T09:17:48Z</time>
      </trkpt>
      <trkpt lat="48.21483" lon="-3.20996">
        <ele>136.2</ele>
        <time>2021-08-10T09:17:49Z</time>
      </trkpt>
      <trkpt lat="48.21479" lon="-3.20999">
        <ele>136.2</ele>
        <time>2021-08-10T09:17:50Z</time>
      </trkpt>
      <trkpt lat="48.21475" lon="-3.21003">
        <ele>136.2</ele>
        <time>2021-08-10T09:17:51Z</time>
      </trkpt>
      <trkpt lat="48.21472" lon="-3.21007">
        <ele>136.4</ele>
        <time>2021-08-10T09:17:52Z</time>
      </trkpt>
      <trkpt lat="48.21468" lon="-3.21012">
        <ele>136.4</ele>
        <time>2021-08-10T09:17:53Z</time>
      </trkpt>
      <trkpt lat="48.21464" lon="-3.21016">
        <ele>136.4</ele>
        <time>2021-08-10T09:17:54Z</time>
      </trkpt>
      <trkpt lat="48.2146" lon="-3.2102">
        <ele>136.4</ele>
        <time>2021-08-10T09:17:55Z</time>
      </trkpt>
      <trkpt lat="48.21456" lon="-3.21025">
        <ele>136.4</ele>
        <time>2021-08-10T09:17:56Z</time>
      </trkpt>
      <trkpt lat="48.21452" lon="-3.21029">
        <ele>136.4</ele>
        <time>2021-08-10T09:17:57Z</time>
      </trkpt>
      <trkpt lat="48.21448" lon="-3.21033">
        <ele>136.4</ele>
        <time>2021-08-10T09:17:58Z</time>
      </trkpt>
      <trkpt lat="48.21444" lon="-3.21037">
        <ele>136.4</ele>
        <time>2021-08-10T09:17:59Z</time>
      </trkpt>
      <trkpt lat="48.21441" lon="-3.21041">
        <ele>136.4</ele>
        <time>2021-08-10T09:18:00Z</time>
      </trkpt>
      <trkpt lat="48.21437" lon="-3.21046">
        <ele>136.4</ele>
        <time>2021-08-10T09:18:01Z</time>
      </trkpt>
      <trkpt lat="48.21433" lon="-3.2105">
        <ele>136.6</ele>
        <time>2021-08-10T09:18:02Z</time>
      </trkpt>
      <trkpt lat="48.21429" lon="-3.21055">
        <ele>136.6</ele>
        <time>2021-08-10T09:18:03Z</time>
      </trkpt>
      <trkpt lat="48.21425" lon="-3.21059">
        <ele>136.6</ele>
        <time>2021-08-10T09:18:04Z</time>
      </trkpt>
      <trkpt lat="48.2142" lon="-3.21063">
        <ele>136.6</ele>
        <time>2021-08-10T09:18:05Z</time>
      </trkpt>
      <trkpt lat="48.21416" lon="-3.21067">
        <ele>136.6</ele>
        <time>2021-08-10T09:18:06Z</time>
      </trkpt>
      <trkpt lat="48.21412" lon="-3.2107">
        <ele>136.6</ele>
        <time>2021-08-10T09:18:07Z</time>
      </trkpt>
      <trkpt lat="48.21408" lon="-3.21073">
        <ele>136.6</ele>
        <time>2021-08-10T09:18:08Z</time>
      </trkpt>
      <trkpt lat="48.21405" lon="-3.21076">
        <ele>136.6</ele>
        <time>2021-08-10T09:18:09Z</time>
      </trkpt>
      <trkpt lat="48.21401" lon="-3.21079">
        <ele>136.4</ele>
        <time>2021-08-10T09:18:10Z</time>
      </trkpt>
      <trkpt lat="48.21397" lon="-3.21083">
        <ele>136.4</ele>
        <time>2021-08-10T09:18:11Z</time>
      </trkpt>
      <trkpt lat="48.21393" lon="-3.21086">
        <ele>136.4</ele>
        <time>2021-08-10T09:18:12Z</time>
      </trkpt>
      <trkpt lat="48.21389" lon="-3.21088">
        <ele>136.4</ele>
        <time>2021-08-10T09:18:13Z</time>
      </trkpt>
      <trkpt lat="48.21385" lon="-3.21091">
        <ele>136.4</ele>
        <time>2021-08-10T09:18:14Z</time>
      </trkpt>
      <trkpt lat="48.21381" lon="-3.21094">
        <ele>136.4</ele>
        <time>2021-08-10T09:18:15Z</time>
      </trkpt>
      <trkpt lat="48.21377" lon="-3.21097">
        <ele>136.4</ele>
        <time>2021-08-10T09:18:16Z</time>
      </trkpt>
      <trkpt lat="48.21372" lon="-3.211">
        <ele>136.4</ele>
        <time>2021-08-10T09:18:17Z</time>
      </trkpt>
      <trkpt lat="48.21368" lon="-3.21104">
        <ele>136.4</ele>
        <time>2021-08-10T09:18:18Z</time>
      </trkpt>
      <trkpt lat="48.21364" lon="-3.21107">
        <ele>136.4</ele>
        <time>2021-08-10T09:18:19Z</time>
      </trkpt>
      <trkpt lat="48.21359" lon="-3.21111">
        <ele>136.4</ele>
        <time>2021-08-10T09:18:20Z</time>
      </trkpt>
      <trkpt lat="48.21355" lon="-3.21115">
        <ele>136.4</ele>
        <time>2021-08-10T09:18:21Z</time>
      </trkpt>
      <trkpt lat="48.2135" lon="-3.21118">
        <ele>136.4</ele>
        <time>2021-08-10T09:18:22Z</time>
      </trkpt>
      <trkpt lat="48.21345" lon="-3.21122">
        <ele>136.4</ele>
        <time>2021-08-10T09:18:23Z</time>
      </trkpt>
      <trkpt lat="48.2134" lon="-3.21125">
        <ele>136.4</ele>
        <time>2021-08-10T09:18:24Z</time>
      </trkpt>
      <trkpt lat="48.21335" lon="-3.21129">
        <ele>136.4</ele>
        <time>2021-08-10T09:18:25Z</time>
      </trkpt>
      <trkpt lat="48.2133" lon="-3.21133">
        <ele>136.4</ele>
        <time>2021-08-10T09:18:26Z</time>
      </trkpt>
      <trkpt lat="48.21326" lon="-3.21136">
        <ele>136.4</ele>
        <time>2021-08-10T09:18:27Z</time>
      </trkpt>
      <trkpt lat="48.21321" lon="-3.2114">
        <ele>136.4</ele>
        <time>2021-08-10T09:18:28Z</time>
      </trkpt>
      <trkpt lat="48.21317" lon="-3.21144">
        <ele>136.4</ele>
        <time>2021-08-10T09:18:29Z</time>
      </trkpt>
      <trkpt lat="48.21313" lon="-3.21147">
        <ele>136.2</ele>
        <time>2021-08-10T09:18:30Z</time>
      </trkpt>
      <trkpt lat="48.21308" lon="-3.21151">
        <ele>136.2</ele>
        <time>2021-08-10T09:18:31Z</time>
      </trkpt>
      <trkpt lat="48.21304" lon="-3.21154">
        <ele>136.2</ele>
        <time>2021-08-10T09:18:32Z</time>
      </trkpt>
      <trkpt lat="48.213" lon="-3.21158">
        <ele>136.2</ele>
        <time>2021-08-10T09:18:33Z</time>
      </trkpt>
      <trkpt lat="48.21296" lon="-3.21161">
        <ele>136.2</ele>
        <time>2021-08-10T09:18:34Z</time>
      </trkpt>
      <trkpt lat="48.21291" lon="-3.21164">
        <ele>136.2</ele>
        <time>2021-08-10T09:18:35Z</time>
      </trkpt>
      <trkpt lat="48.21287" lon="-3.21167">
        <ele>136.2</ele>
        <time>2021-08-10T09:18:36Z</time>
      </trkpt>
      <trkpt lat="48.21283" lon="-3.2117">
        <ele>136.2</ele>
        <time>2021-08-10T09:18:37Z</time>
      </trkpt>
      <trkpt lat="48.21279" lon="-3.21174">
        <ele>136.2</ele>
        <time>2021-08-10T09:18:38Z</time>
      </trkpt>
      <trkpt lat="48.21274" lon="-3.21177">
        <ele>136.2</ele>
        <time>2021-08-10T09:18:39Z</time>
      </trkpt>
      <trkpt lat="48.2127" lon="-3.21181">
        <ele>136.2</ele>
        <time>2021-08-10T09:18:40Z</time>
      </trkpt>
      <trkpt lat="48.21266" lon="-3.21184">
        <ele>136.2</ele>
        <time>2021-08-10T09:18:41Z</time>
      </trkpt>
      <trkpt lat="48.21262" lon="-3.21188">
        <ele>136.2</ele>
        <time>2021-08-10T09:18:42Z</time>
      </trkpt>
      <trkpt lat="48.21257" lon="-3.21191">
        <ele>136.2</ele>
        <time>2021-08-10T09:18:43Z</time>
      </trkpt>
      <trkpt lat="48.21253" lon="-3.21194">
        <ele>136.2</ele>
        <time>2021-08-10T09:18:44Z</time>
      </trkpt>
      <trkpt lat="48.21248" lon="-3.21198">
        <ele>136.2</ele>
        <time>2021-08-10T09:18:45Z</time>
      </trkpt>
      <trkpt lat="48.21243" lon="-3.21202">
        <ele>136.2</ele>
        <time>2021-08-10T09:18:46Z</time>
      </trkpt>
      <trkpt lat="48.21239" lon="-3.21205">
        <ele>136.2</ele>
        <time>2021-08-10T09:18:47Z</time>
      </trkpt>
      <trkpt lat="48.21233" lon="-3.21209">
        <ele>136.2</ele>
        <time>2021-08-10T09:18:48Z</time>
      </trkpt>
      <trkpt lat="48.21229" lon="-3.21213">
        <ele>136.2</ele>
        <time>2021-08-10T09:18:49Z</time>
      </trkpt>
      <trkpt lat="48.21224" lon="-3.21217">
        <ele>136.2</ele>
        <time>2021-08-10T09:18:50Z</time>
      </trkpt>
      <trkpt lat="48.21219" lon="-3.2122">
        <ele>136.2</ele>
        <time>2021-08-10T09:18:51Z</time>
      </trkpt>
      <trkpt lat="48.21215" lon="-3.21224">
        <ele>136.2</ele>
        <time>2021-08-10T09:18:52Z</time>
      </trkpt>
      <trkpt lat="48.2121" lon="-3.21227">
        <ele>136.2</ele>
        <time>2021-08-10T09:18:53Z</time>
      </trkpt>
      <trkpt lat="48.21206" lon="-3.21231">
        <ele>136.2</ele>
        <time>2021-08-10T09:18:54Z</time>
      </trkpt>
      <trkpt lat="48.21201" lon="-3.21234">
        <ele>136.2</ele>
        <time>2021-08-10T09:18:55Z</time>
      </trkpt>
      <trkpt lat="48.21197" lon="-3.21238">
        <ele>136.2</ele>
        <time>2021-08-10T09:18:56Z</time>
      </trkpt>
      <trkpt lat="48.21192" lon="-3.21242">
        <ele>136.2</ele>
        <time>2021-08-10T09:18:57Z</time>
      </trkpt>
      <trkpt lat="48.21188" lon="-3.21246">
        <ele>136.2</ele>
        <time>2021-08-10T09:18:58Z</time>
      </trkpt>
      <trkpt lat="48.21183" lon="-3.21249">
        <ele>136.2</ele>
        <time>2021-08-10T09:18:59Z</time>
      </trkpt>
      <trkpt lat="48.21179" lon="-3.21253">
        <ele>136.2</ele>
        <time>2021-08-10T09:19:00Z</time>
      </trkpt>
      <trkpt lat="48.21174" lon="-3.21256">
        <ele>136.2</ele>
        <time>2021-08-10T09:19:01Z</time>
      </trkpt>
      <trkpt lat="48.2117" lon="-3.21259">
        <ele>136.2</ele>
        <time>2021-08-10T09:19:02Z</time>
      </trkpt>
      <trkpt lat="48.21165" lon="-3.21263">
        <ele>136.2</ele>
        <time>2021-08-10T09:19:03Z</time>
      </trkpt>
      <trkpt lat="48.21161" lon="-3.21266">
        <ele>136.2</ele>
        <time>2021-08-10T09:19:04Z</time>
      </trkpt>
      <trkpt lat="48.21156" lon="-3.2127">
        <ele>136.2</ele>
        <time>2021-08-10T09:19:05Z</time>
      </trkpt>
      <trkpt lat="48.21151" lon="-3.21274">
        <ele>136.2</ele>
        <time>2021-08-10T09:19:06Z</time>
      </trkpt>
      <trkpt lat="48.21146" lon="-3.21277">
        <ele>136.2</ele>
        <time>2021-08-10T09:19:07Z</time>
      </trkpt>
      <trkpt lat="48.21141" lon="-3.21281">
        <ele>136.2</ele>
        <time>2021-08-10T09:19:08Z</time>
      </trkpt>
      <trkpt lat="48.21136" lon="-3.21285">
        <ele>136.2</ele>
        <time>2021-08-10T09:19:09Z</time>
      </trkpt>
      <trkpt lat="48.21131" lon="-3.21289">
        <ele>136.2</ele>
        <time>2021-08-10T09:19:10Z</time>
      </trkpt>
      <trkpt lat="48.21126" lon="-3.21292">
        <ele>136.2</ele>
        <time>2021-08-10T09:19:11Z</time>
      </trkpt>
      <trkpt lat="48.21122" lon="-3.21296">
        <ele>136.2</ele>
        <time>2021-08-10T09:19:12Z</time>
      </trkpt>
      <trkpt lat="48.21118" lon="-3.213">
        <ele>136.2</ele>
        <time>2021-08-10T09:19:13Z</time>
      </trkpt>
      <trkpt lat="48.21114" lon="-3.21303">
        <ele>136.2</ele>
        <time>2021-08-10T09:19:14Z</time>
      </trkpt>
      <trkpt lat="48.2111" lon="-3.21306">
        <ele>136.2</ele>
        <time>2021-08-10T09:19:15Z</time>
      </trkpt>
      <trkpt lat="48.21106" lon="-3.2131">
        <ele>136.2</ele>
        <time>2021-08-10T09:19:16Z</time>
      </trkpt>
      <trkpt lat="48.21102" lon="-3.21313">
        <ele>136.2</ele>
        <time>2021-08-10T09:19:17Z</time>
      </trkpt>
      <trkpt lat="48.21098" lon="-3.21317">
        <ele>136.4</ele>
        <time>2021-08-10T09:19:18Z</time>
      </trkpt>
      <trkpt lat="48.21094" lon="-3.21322">
        <ele>136.2</ele>
        <time>2021-08-10T09:19:19Z</time>
      </trkpt>
      <trkpt lat="48.2109" lon="-3.21326">
        <ele>136.2</ele>
        <time>2021-08-10T09:19:20Z</time>
      </trkpt>
      <trkpt lat="48.21086" lon="-3.2133">
        <ele>136.2</ele>
        <time>2021-08-10T09:19:21Z</time>
      </trkpt>
      <trkpt lat="48.21081" lon="-3.21335">
        <ele>136.2</ele>
        <time>2021-08-10T09:19:22Z</time>
      </trkpt>
      <trkpt lat="48.21078" lon="-3.21339">
        <ele>136.2</ele>
        <time>2021-08-10T09:19:23Z</time>
      </trkpt>
      <trkpt lat="48.21074" lon="-3.21344">
        <ele>136.2</ele>
        <time>2021-08-10T09:19:24Z</time>
      </trkpt>
      <trkpt lat="48.2107" lon="-3.21348">
        <ele>136.4</ele>
        <time>2021-08-10T09:19:25Z</time>
      </trkpt>
      <trkpt lat="48.21066" lon="-3.21352">
        <ele>136.4</ele>
        <time>2021-08-10T09:19:26Z</time>
      </trkpt>
      <trkpt lat="48.21062" lon="-3.21357">
        <ele>136.4</ele>
        <time>2021-08-10T09:19:27Z</time>
      </trkpt>
      <trkpt lat="48.21058" lon="-3.21361">
        <ele>136.4</ele>
        <time>2021-08-10T09:19:28Z</time>
      </trkpt>
      <trkpt lat="48.21054" lon="-3.21366">
        <ele>136.4</ele>
        <time>2021-08-10T09:19:29Z</time>
      </trkpt>
      <trkpt lat="48.2105" lon="-3.2137">
        <ele>136.4</ele>
        <time>2021-08-10T09:19:30Z</time>
      </trkpt>
      <trkpt lat="48.21045" lon="-3.21375">
        <ele>136.4</ele>
        <time>2021-08-10T09:19:31Z</time>
      </trkpt>
      <trkpt lat="48.21042" lon="-3.21379">
        <ele>136.4</ele>
        <time>2021-08-10T09:19:32Z</time>
      </trkpt>
      <trkpt lat="48.21038" lon="-3.21383">
        <ele>136.4</ele>
        <time>2021-08-10T09:19:33Z</time>
      </trkpt>
      <trkpt lat="48.21034" lon="-3.21387">
        <ele>136.4</ele>
        <time>2021-08-10T09:19:34Z</time>
      </trkpt>
      <trkpt lat="48.2103" lon="-3.21391">
        <ele>136.6</ele>
        <time>2021-08-10T09:19:35Z</time>
      </trkpt>
      <trkpt lat="48.21027" lon="-3.21395">
        <ele>136.6</ele>
        <time>2021-08-10T09:19:36Z</time>
      </trkpt>
      <trkpt lat="48.21024" lon="-3.21398">
        <ele>136.6</ele>
        <time>2021-08-10T09:19:37Z</time>
      </trkpt>
      <trkpt lat="48.2102" lon="-3.21401">
        <ele>136.6</ele>
        <time>2021-08-10T09:19:38Z</time>
      </trkpt>
      <trkpt lat="48.21018" lon="-3.21404">
        <ele>136.6</ele>
        <time>2021-08-10T09:19:39Z</time>
      </trkpt>
      <trkpt lat="48.21015" lon="-3.21408">
        <ele>136.8</ele>
        <time>2021-08-10T09:19:40Z</time>
      </trkpt>
      <trkpt lat="48.21012" lon="-3.2141">
        <ele>136.8</ele>
        <time>2021-08-10T09:19:41Z</time>
      </trkpt>
      <trkpt lat="48.2101" lon="-3.21413">
        <ele>136.8</ele>
        <time>2021-08-10T09:19:42Z</time>
      </trkpt>
      <trkpt lat="48.21009" lon="-3.21414">
        <ele>136.8</ele>
        <time>2021-08-10T09:19:43Z</time>
      </trkpt>
      <trkpt lat="48.21008" lon="-3.21415">
        <ele>137.2</ele>
        <time>2021-08-10T09:19:44Z</time>
      </trkpt>
      <trkpt lat="48.21007" lon="-3.21416">
        <ele>137.4</ele>
        <time>2021-08-10T09:19:45Z</time>
      </trkpt>
      <trkpt lat="48.21006" lon="-3.21417">
        <ele>137.8</ele>
        <time>2021-08-10T09:19:46Z</time>
      </trkpt>
      <trkpt lat="48.21004" lon="-3.2142">
        <ele>139.2</ele>
        <time>2021-08-10T09:19:49Z</time>
      </trkpt>
      <trkpt lat="48.21005" lon="-3.21422">
        <ele>139.4</ele>
        <time>2021-08-10T09:19:50Z</time>
      </trkpt>
      <trkpt lat="48.21006" lon="-3.21424">
        <ele>139.6</ele>
        <time>2021-08-10T09:19:51Z</time>
      </trkpt>
      <trkpt lat="48.21007" lon="-3.21427">
        <ele>139.8</ele>
        <time>2021-08-10T09:19:52Z</time>
      </trkpt>
      <trkpt lat="48.21007" lon="-3.21429">
        <ele>139.8</ele>
        <time>2021-08-10T09:19:53Z</time>
      </trkpt>
      <trkpt lat="48.21009" lon="-3.21432">
        <ele>139.8</ele>
        <time>2021-08-10T09:19:54Z</time>
      </trkpt>
      <trkpt lat="48.2101" lon="-3.21435">
        <ele>139.8</ele>
        <time>2021-08-10T09:19:55Z</time>
      </trkpt>
      <trkpt lat="48.21012" lon="-3.21437">
        <ele>139.8</ele>
        <time>2021-08-10T09:19:56Z</time>
      </trkpt>
      <trkpt lat="48.21013" lon="-3.2144">
        <ele>139.8</ele>
        <time>2021-08-10T09:19:57Z</time>
      </trkpt>
      <trkpt lat="48.21013" lon="-3.21444">
        <ele>140</ele>
        <time>2021-08-10T09:19:58Z</time>
      </trkpt>
      <trkpt lat="48.21014" lon="-3.21446">
        <ele>140</ele>
        <time>2021-08-10T09:19:59Z</time>
      </trkpt>
      <trkpt lat="48.21013" lon="-3.21449">
        <ele>140</ele>
        <time>2021-08-10T09:20:00Z</time>
      </trkpt>
      <trkpt lat="48.21013" lon="-3.21452">
        <ele>140</ele>
        <time>2021-08-10T09:20:01Z</time>
      </trkpt>
      <trkpt lat="48.21011" lon="-3.21454">
        <ele>140</ele>
        <time>2021-08-10T09:20:02Z</time>
      </trkpt>
      <trkpt lat="48.21009" lon="-3.21456">
        <ele>140.2</ele>
        <time>2021-08-10T09:20:03Z</time>
      </trkpt>
      <trkpt lat="48.21008" lon="-3.21458">
        <ele>140.2</ele>
        <time>2021-08-10T09:20:04Z</time>
      </trkpt>
      <trkpt lat="48.21006" lon="-3.21461">
        <ele>140.2</ele>
        <time>2021-08-10T09:20:05Z</time>
      </trkpt>
      <trkpt lat="48.21004" lon="-3.21463">
        <ele>140.2</ele>
        <time>2021-08-10T09:20:06Z</time>
      </trkpt>
      <trkpt lat="48.21002" lon="-3.21465">
        <ele>140.2</ele>
        <time>2021-08-10T09:20:07Z</time>
      </trkpt>
      <trkpt lat="48.21" lon="-3.21467">
        <ele>140.2</ele>
        <time>2021-08-10T09:20:08Z</time>
      </trkpt>
      <trkpt lat="48.20997" lon="-3.2147">
        <ele>140.2</ele>
        <time>2021-08-10T09:20:09Z</time>
      </trkpt>
      <trkpt lat="48.20995" lon="-3.21472">
        <ele>140.4</ele>
        <time>2021-08-10T09:20:10Z</time>
      </trkpt>
      <trkpt lat="48.20992" lon="-3.21475">
        <ele>140.4</ele>
        <time>2021-08-10T09:20:11Z</time>
      </trkpt>
      <trkpt lat="48.20989" lon="-3.21478">
        <ele>140.4</ele>
        <time>2021-08-10T09:20:12Z</time>
      </trkpt>
      <trkpt lat="48.20986" lon="-3.21482">
        <ele>140.4</ele>
        <time>2021-08-10T09:20:13Z</time>
      </trkpt>
      <trkpt lat="48.20982" lon="-3.21486">
        <ele>140.4</ele>
        <time>2021-08-10T09:20:14Z</time>
      </trkpt>
      <trkpt lat="48.20979" lon="-3.2149">
        <ele>140.4</ele>
        <time>2021-08-10T09:20:15Z</time>
      </trkpt>
      <trkpt lat="48.20975" lon="-3.21493">
        <ele>140.4</ele>
        <time>2021-08-10T09:20:16Z</time>
      </trkpt>
      <trkpt lat="48.20971" lon="-3.21497">
        <ele>140.4</ele>
        <time>2021-08-10T09:20:17Z</time>
      </trkpt>
      <trkpt lat="48.20968" lon="-3.21501">
        <ele>140.4</ele>
        <time>2021-08-10T09:20:18Z</time>
      </trkpt>
      <trkpt lat="48.20965" lon="-3.21505">
        <ele>140.4</ele>
        <time>2021-08-10T09:20:19Z</time>
      </trkpt>
      <trkpt lat="48.20961" lon="-3.21508">
        <ele>140.2</ele>
        <time>2021-08-10T09:20:20Z</time>
      </trkpt>
      <trkpt lat="48.20957" lon="-3.21512">
        <ele>140</ele>
        <time>2021-08-10T09:20:21Z</time>
      </trkpt>
      <trkpt lat="48.20954" lon="-3.21516">
        <ele>139.8</ele>
        <time>2021-08-10T09:20:22Z</time>
      </trkpt>
      <trkpt lat="48.2095" lon="-3.2152">
        <ele>139.8</ele>
        <time>2021-08-10T09:20:23Z</time>
      </trkpt>
      <trkpt lat="48.20946" lon="-3.21524">
        <ele>139.6</ele>
        <time>2021-08-10T09:20:24Z</time>
      </trkpt>
      <trkpt lat="48.20942" lon="-3.21528">
        <ele>139.6</ele>
        <time>2021-08-10T09:20:25Z</time>
      </trkpt>
      <trkpt lat="48.20938" lon="-3.21533">
        <ele>139.6</ele>
        <time>2021-08-10T09:20:26Z</time>
      </trkpt>
      <trkpt lat="48.20934" lon="-3.21537">
        <ele>139.6</ele>
        <time>2021-08-10T09:20:27Z</time>
      </trkpt>
      <trkpt lat="48.2093" lon="-3.21542">
        <ele>139.4</ele>
        <time>2021-08-10T09:20:28Z</time>
      </trkpt>
      <trkpt lat="48.20925" lon="-3.21547">
        <ele>139.4</ele>
        <time>2021-08-10T09:20:29Z</time>
      </trkpt>
      <trkpt lat="48.20921" lon="-3.21553">
        <ele>139.2</ele>
        <time>2021-08-10T09:20:30Z</time>
      </trkpt>
      <trkpt lat="48.20916" lon="-3.21558">
        <ele>139.2</ele>
        <time>2021-08-10T09:20:31Z</time>
      </trkpt>
      <trkpt lat="48.20911" lon="-3.21564">
        <ele>139</ele>
        <time>2021-08-10T09:20:32Z</time>
      </trkpt>
      <trkpt lat="48.20907" lon="-3.2157">
        <ele>139</ele>
        <time>2021-08-10T09:20:33Z</time>
      </trkpt>
      <trkpt lat="48.20903" lon="-3.21575">
        <ele>139</ele>
        <time>2021-08-10T09:20:34Z</time>
      </trkpt>
      <trkpt lat="48.20899" lon="-3.21581">
        <ele>138.6</ele>
        <time>2021-08-10T09:20:35Z</time>
      </trkpt>
      <trkpt lat="48.20894" lon="-3.21587">
        <ele>138.6</ele>
        <time>2021-08-10T09:20:36Z</time>
      </trkpt>
      <trkpt lat="48.2089" lon="-3.21592">
        <ele>138.4</ele>
        <time>2021-08-10T09:20:37Z</time>
      </trkpt>
      <trkpt lat="48.20886" lon="-3.21598">
        <ele>138.4</ele>
        <time>2021-08-10T09:20:38Z</time>
      </trkpt>
      <trkpt lat="48.20881" lon="-3.21603">
        <ele>138.4</ele>
        <time>2021-08-10T09:20:39Z</time>
      </trkpt>
      <trkpt lat="48.20877" lon="-3.21608">
        <ele>138.2</ele>
        <time>2021-08-10T09:20:40Z</time>
      </trkpt>
      <trkpt lat="48.20873" lon="-3.21613">
        <ele>138.2</ele>
        <time>2021-08-10T09:20:41Z</time>
      </trkpt>
      <trkpt lat="48.20868" lon="-3.21618">
        <ele>138.2</ele>
        <time>2021-08-10T09:20:42Z</time>
      </trkpt>
      <trkpt lat="48.20863" lon="-3.21623">
        <ele>138.2</ele>
        <time>2021-08-10T09:20:43Z</time>
      </trkpt>
      <trkpt lat="48.20859" lon="-3.21627">
        <ele>138.2</ele>
        <time>2021-08-10T09:20:44Z</time>
      </trkpt>
      <trkpt lat="48.20854" lon="-3.21632">
        <ele>138.2</ele>
        <time>2021-08-10T09:20:45Z</time>
      </trkpt>
      <trkpt lat="48.2085" lon="-3.21637">
        <ele>138.2</ele>
        <time>2021-08-10T09:20:46Z</time>
      </trkpt>
      <trkpt lat="48.20846" lon="-3.21642">
        <ele>138.2</ele>
        <time>2021-08-10T09:20:47Z</time>
      </trkpt>
      <trkpt lat="48.20841" lon="-3.21647">
        <ele>138.2</ele>
        <time>2021-08-10T09:20:48Z</time>
      </trkpt>
      <trkpt lat="48.20837" lon="-3.21651">
        <ele>138.2</ele>
        <time>2021-08-10T09:20:49Z</time>
      </trkpt>
      <trkpt lat="48.20833" lon="-3.21656">
        <ele>138.2</ele>
        <time>2021-08-10T09:20:50Z</time>
      </trkpt>
      <trkpt lat="48.20829" lon="-3.2166">
        <ele>138.2</ele>
        <time>2021-08-10T09:20:51Z</time>
      </trkpt>
      <trkpt lat="48.20825" lon="-3.21664">
        <ele>138.2</ele>
        <time>2021-08-10T09:20:52Z</time>
      </trkpt>
      <trkpt lat="48.20821" lon="-3.21669">
        <ele>138.2</ele>
        <time>2021-08-10T09:20:53Z</time>
      </trkpt>
      <trkpt lat="48.20817" lon="-3.21673">
        <ele>138.2</ele>
        <time>2021-08-10T09:20:54Z</time>
      </trkpt>
      <trkpt lat="48.20813" lon="-3.21678">
        <ele>138.2</ele>
        <time>2021-08-10T09:20:55Z</time>
      </trkpt>
      <trkpt lat="48.20808" lon="-3.21682">
        <ele>138.2</ele>
        <time>2021-08-10T09:20:56Z</time>
      </trkpt>
      <trkpt lat="48.20804" lon="-3.21687">
        <ele>138</ele>
        <time>2021-08-10T09:20:57Z</time>
      </trkpt>
      <trkpt lat="48.208" lon="-3.21692">
        <ele>138.2</ele>
        <time>2021-08-10T09:20:58Z</time>
      </trkpt>
      <trkpt lat="48.20796" lon="-3.21697">
        <ele>138.2</ele>
        <time>2021-08-10T09:20:59Z</time>
      </trkpt>
      <trkpt lat="48.20791" lon="-3.21701">
        <ele>138.2</ele>
        <time>2021-08-10T09:21:00Z</time>
      </trkpt>
      <trkpt lat="48.20787" lon="-3.21706">
        <ele>138.2</ele>
        <time>2021-08-10T09:21:01Z</time>
      </trkpt>
      <trkpt lat="48.20783" lon="-3.2171">
        <ele>138.2</ele>
        <time>2021-08-10T09:21:02Z</time>
      </trkpt>
      <trkpt lat="48.20779" lon="-3.21715">
        <ele>138.2</ele>
        <time>2021-08-10T09:21:03Z</time>
      </trkpt>
      <trkpt lat="48.20775" lon="-3.2172">
        <ele>138.2</ele>
        <time>2021-08-10T09:21:04Z</time>
      </trkpt>
      <trkpt lat="48.2077" lon="-3.21724">
        <ele>138.2</ele>
        <time>2021-08-10T09:21:05Z</time>
      </trkpt>
      <trkpt lat="48.20766" lon="-3.21729">
        <ele>138.2</ele>
        <time>2021-08-10T09:21:06Z</time>
      </trkpt>
      <trkpt lat="48.20762" lon="-3.21734">
        <ele>138.2</ele>
        <time>2021-08-10T09:21:07Z</time>
      </trkpt>
      <trkpt lat="48.20758" lon="-3.21738">
        <ele>138.2</ele>
        <time>2021-08-10T09:21:08Z</time>
      </trkpt>
      <trkpt lat="48.20753" lon="-3.21743">
        <ele>138.2</ele>
        <time>2021-08-10T09:21:09Z</time>
      </trkpt>
      <trkpt lat="48.20749" lon="-3.21748">
        <ele>138.2</ele>
        <time>2021-08-10T09:21:10Z</time>
      </trkpt>
      <trkpt lat="48.20745" lon="-3.21752">
        <ele>138.2</ele>
        <time>2021-08-10T09:21:11Z</time>
      </trkpt>
      <trkpt lat="48.20741" lon="-3.21756">
        <ele>138.2</ele>
        <time>2021-08-10T09:21:12Z</time>
      </trkpt>
      <trkpt lat="48.20738" lon="-3.2176">
        <ele>138.2</ele>
        <time>2021-08-10T09:21:13Z</time>
      </trkpt>
      <trkpt lat="48.20734" lon="-3.21764">
        <ele>138.2</ele>
        <time>2021-08-10T09:21:14Z</time>
      </trkpt>
      <trkpt lat="48.2073" lon="-3.21768">
        <ele>138.4</ele>
        <time>2021-08-10T09:21:15Z</time>
      </trkpt>
      <trkpt lat="48.20726" lon="-3.21772">
        <ele>138.4</ele>
        <time>2021-08-10T09:21:16Z</time>
      </trkpt>
      <trkpt lat="48.20722" lon="-3.21777">
        <ele>138.4</ele>
        <time>2021-08-10T09:21:17Z</time>
      </trkpt>
      <trkpt lat="48.20719" lon="-3.21782">
        <ele>138.6</ele>
        <time>2021-08-10T09:21:18Z</time>
      </trkpt>
      <trkpt lat="48.20715" lon="-3.21786">
        <ele>138.6</ele>
        <time>2021-08-10T09:21:19Z</time>
      </trkpt>
      <trkpt lat="48.2071" lon="-3.21791">
        <ele>138.6</ele>
        <time>2021-08-10T09:21:20Z</time>
      </trkpt>
      <trkpt lat="48.20706" lon="-3.21796">
        <ele>138.6</ele>
        <time>2021-08-10T09:21:21Z</time>
      </trkpt>
      <trkpt lat="48.20702" lon="-3.21801">
        <ele>138.6</ele>
        <time>2021-08-10T09:21:22Z</time>
      </trkpt>
      <trkpt lat="48.20693" lon="-3.2181">
        <ele>138.6</ele>
        <time>2021-08-10T09:21:24Z</time>
      </trkpt>
      <trkpt lat="48.20689" lon="-3.21814">
        <ele>138.6</ele>
        <time>2021-08-10T09:21:25Z</time>
      </trkpt>
      <trkpt lat="48.20684" lon="-3.21819">
        <ele>138.6</ele>
        <time>2021-08-10T09:21:26Z</time>
      </trkpt>
      <trkpt lat="48.20676" lon="-3.21828">
        <ele>138.4</ele>
        <time>2021-08-10T09:21:28Z</time>
      </trkpt>
      <trkpt lat="48.20668" lon="-3.21837">
        <ele>138.4</ele>
        <time>2021-08-10T09:21:30Z</time>
      </trkpt>
      <trkpt lat="48.2066" lon="-3.21846">
        <ele>138.2</ele>
        <time>2021-08-10T09:21:32Z</time>
      </trkpt>
      <trkpt lat="48.20656" lon="-3.21851">
        <ele>138.2</ele>
        <time>2021-08-10T09:21:33Z</time>
      </trkpt>
      <trkpt lat="48.20652" lon="-3.21856">
        <ele>138.2</ele>
        <time>2021-08-10T09:21:34Z</time>
      </trkpt>
      <trkpt lat="48.20645" lon="-3.21866">
        <ele>138.2</ele>
        <time>2021-08-10T09:21:36Z</time>
      </trkpt>
      <trkpt lat="48.20637" lon="-3.21876">
        <ele>138.2</ele>
        <time>2021-08-10T09:21:38Z</time>
      </trkpt>
      <trkpt lat="48.20633" lon="-3.21882">
        <ele>138.2</ele>
        <time>2021-08-10T09:21:39Z</time>
      </trkpt>
      <trkpt lat="48.2063" lon="-3.21887">
        <ele>138.2</ele>
        <time>2021-08-10T09:21:40Z</time>
      </trkpt>
      <trkpt lat="48.20626" lon="-3.21892">
        <ele>138.2</ele>
        <time>2021-08-10T09:21:41Z</time>
      </trkpt>
      <trkpt lat="48.20623" lon="-3.21897">
        <ele>138.2</ele>
        <time>2021-08-10T09:21:42Z</time>
      </trkpt>
      <trkpt lat="48.2062" lon="-3.21903">
        <ele>138.2</ele>
        <time>2021-08-10T09:21:43Z</time>
      </trkpt>
      <trkpt lat="48.20618" lon="-3.21908">
        <ele>138.2</ele>
        <time>2021-08-10T09:21:44Z</time>
      </trkpt>
      <trkpt lat="48.20615" lon="-3.21914">
        <ele>138.2</ele>
        <time>2021-08-10T09:21:45Z</time>
      </trkpt>
      <trkpt lat="48.20613" lon="-3.2192">
        <ele>138.2</ele>
        <time>2021-08-10T09:21:46Z</time>
      </trkpt>
      <trkpt lat="48.20611" lon="-3.21927">
        <ele>138.2</ele>
        <time>2021-08-10T09:21:47Z</time>
      </trkpt>
      <trkpt lat="48.20609" lon="-3.21933">
        <ele>138.2</ele>
        <time>2021-08-10T09:21:48Z</time>
      </trkpt>
      <trkpt lat="48.20608" lon="-3.21939">
        <ele>138.2</ele>
        <time>2021-08-10T09:21:49Z</time>
      </trkpt>
      <trkpt lat="48.20607" lon="-3.21944">
        <ele>138.2</ele>
        <time>2021-08-10T09:21:50Z</time>
      </trkpt>
      <trkpt lat="48.20605" lon="-3.2195">
        <ele>138.2</ele>
        <time>2021-08-10T09:21:51Z</time>
      </trkpt>
      <trkpt lat="48.20604" lon="-3.21956">
        <ele>138.4</ele>
        <time>2021-08-10T09:21:52Z</time>
      </trkpt>
      <trkpt lat="48.20602" lon="-3.21962">
        <ele>138.2</ele>
        <time>2021-08-10T09:21:53Z</time>
      </trkpt>
      <trkpt lat="48.20601" lon="-3.21968">
        <ele>138.2</ele>
        <time>2021-08-10T09:21:54Z</time>
      </trkpt>
      <trkpt lat="48.20599" lon="-3.21974">
        <ele>138.2</ele>
        <time>2021-08-10T09:21:55Z</time>
      </trkpt>
      <trkpt lat="48.20598" lon="-3.2198">
        <ele>138.2</ele>
        <time>2021-08-10T09:21:56Z</time>
      </trkpt>
      <trkpt lat="48.20596" lon="-3.21986">
        <ele>138.4</ele>
        <time>2021-08-10T09:21:57Z</time>
      </trkpt>
      <trkpt lat="48.20594" lon="-3.21992">
        <ele>138.4</ele>
        <time>2021-08-10T09:21:58Z</time>
      </trkpt>
      <trkpt lat="48.20592" lon="-3.21999">
        <ele>138.4</ele>
        <time>2021-08-10T09:21:59Z</time>
      </trkpt>
      <trkpt lat="48.20591" lon="-3.22006">
        <ele>138.4</ele>
        <time>2021-08-10T09:22:00Z</time>
      </trkpt>
      <trkpt lat="48.20588" lon="-3.22013">
        <ele>138.6</ele>
        <time>2021-08-10T09:22:01Z</time>
      </trkpt>
      <trkpt lat="48.20587" lon="-3.2202">
        <ele>138.6</ele>
        <time>2021-08-10T09:22:02Z</time>
      </trkpt>
      <trkpt lat="48.20585" lon="-3.22027">
        <ele>138.6</ele>
        <time>2021-08-10T09:22:03Z</time>
      </trkpt>
      <trkpt lat="48.20583" lon="-3.22034">
        <ele>138.6</ele>
        <time>2021-08-10T09:22:04Z</time>
      </trkpt>
      <trkpt lat="48.20582" lon="-3.22041">
        <ele>138.6</ele>
        <time>2021-08-10T09:22:05Z</time>
      </trkpt>
      <trkpt lat="48.2058" lon="-3.22048">
        <ele>138.6</ele>
        <time>2021-08-10T09:22:06Z</time>
      </trkpt>
      <trkpt lat="48.20578" lon="-3.22054">
        <ele>138.6</ele>
        <time>2021-08-10T09:22:07Z</time>
      </trkpt>
      <trkpt lat="48.20576" lon="-3.2206">
        <ele>138.6</ele>
        <time>2021-08-10T09:22:08Z</time>
      </trkpt>
      <trkpt lat="48.20575" lon="-3.22066">
        <ele>138.6</ele>
        <time>2021-08-10T09:22:09Z</time>
      </trkpt>
      <trkpt lat="48.20573" lon="-3.22072">
        <ele>138.6</ele>
        <time>2021-08-10T09:22:10Z</time>
      </trkpt>
      <trkpt lat="48.20572" lon="-3.22079">
        <ele>138.6</ele>
        <time>2021-08-10T09:22:11Z</time>
      </trkpt>
      <trkpt lat="48.2057" lon="-3.22085">
        <ele>138.6</ele>
        <time>2021-08-10T09:22:12Z</time>
      </trkpt>
      <trkpt lat="48.20568" lon="-3.22092">
        <ele>138.6</ele>
        <time>2021-08-10T09:22:13Z</time>
      </trkpt>
      <trkpt lat="48.20566" lon="-3.22099">
        <ele>138.6</ele>
        <time>2021-08-10T09:22:14Z</time>
      </trkpt>
      <trkpt lat="48.20565" lon="-3.22106">
        <ele>138.6</ele>
        <time>2021-08-10T09:22:15Z</time>
      </trkpt>
      <trkpt lat="48.20562" lon="-3.22113">
        <ele>138.4</ele>
        <time>2021-08-10T09:22:16Z</time>
      </trkpt>
      <trkpt lat="48.2056" lon="-3.22121">
        <ele>138.4</ele>
        <time>2021-08-10T09:22:17Z</time>
      </trkpt>
      <trkpt lat="48.20559" lon="-3.22128">
        <ele>138.4</ele>
        <time>2021-08-10T09:22:18Z</time>
      </trkpt>
      <trkpt lat="48.20557" lon="-3.22135">
        <ele>138.4</ele>
        <time>2021-08-10T09:22:19Z</time>
      </trkpt>
      <trkpt lat="48.20555" lon="-3.22143">
        <ele>138.4</ele>
        <time>2021-08-10T09:22:20Z</time>
      </trkpt>
      <trkpt lat="48.20553" lon="-3.2215">
        <ele>138.4</ele>
        <time>2021-08-10T09:22:21Z</time>
      </trkpt>
      <trkpt lat="48.20552" lon="-3.22157">
        <ele>138.4</ele>
        <time>2021-08-10T09:22:22Z</time>
      </trkpt>
      <trkpt lat="48.20551" lon="-3.22163">
        <ele>138.4</ele>
        <time>2021-08-10T09:22:23Z</time>
      </trkpt>
      <trkpt lat="48.2055" lon="-3.2217">
        <ele>138.4</ele>
        <time>2021-08-10T09:22:24Z</time>
      </trkpt>
      <trkpt lat="48.20549" lon="-3.22177">
        <ele>138.4</ele>
        <time>2021-08-10T09:22:25Z</time>
      </trkpt>
      <trkpt lat="48.20549" lon="-3.22184">
        <ele>138.4</ele>
        <time>2021-08-10T09:22:26Z</time>
      </trkpt>
      <trkpt lat="48.20549" lon="-3.22191">
        <ele>138.4</ele>
        <time>2021-08-10T09:22:27Z</time>
      </trkpt>
      <trkpt lat="48.2055" lon="-3.22197">
        <ele>138.4</ele>
        <time>2021-08-10T09:22:28Z</time>
      </trkpt>
      <trkpt lat="48.2055" lon="-3.22204">
        <ele>138.4</ele>
        <time>2021-08-10T09:22:29Z</time>
      </trkpt>
      <trkpt lat="48.20551" lon="-3.2221">
        <ele>138.4</ele>
        <time>2021-08-10T09:22:30Z</time>
      </trkpt>
      <trkpt lat="48.20551" lon="-3.22216">
        <ele>138.4</ele>
        <time>2021-08-10T09:22:31Z</time>
      </trkpt>
      <trkpt lat="48.20552" lon="-3.22222">
        <ele>138.4</ele>
        <time>2021-08-10T09:22:32Z</time>
      </trkpt>
      <trkpt lat="48.20553" lon="-3.22229">
        <ele>138.2</ele>
        <time>2021-08-10T09:22:33Z</time>
      </trkpt>
      <trkpt lat="48.20555" lon="-3.22235">
        <ele>138.2</ele>
        <time>2021-08-10T09:22:34Z</time>
      </trkpt>
      <trkpt lat="48.20556" lon="-3.22242">
        <ele>138.2</ele>
        <time>2021-08-10T09:22:35Z</time>
      </trkpt>
      <trkpt lat="48.20557" lon="-3.22249">
        <ele>138.2</ele>
        <time>2021-08-10T09:22:36Z</time>
      </trkpt>
      <trkpt lat="48.20559" lon="-3.22255">
        <ele>138.2</ele>
        <time>2021-08-10T09:22:37Z</time>
      </trkpt>
      <trkpt lat="48.2056" lon="-3.22261">
        <ele>138.4</ele>
        <time>2021-08-10T09:22:38Z</time>
      </trkpt>
      <trkpt lat="48.20562" lon="-3.22267">
        <ele>138.4</ele>
        <time>2021-08-10T09:22:39Z</time>
      </trkpt>
      <trkpt lat="48.20563" lon="-3.22274">
        <ele>138.4</ele>
        <time>2021-08-10T09:22:40Z</time>
      </trkpt>
      <trkpt lat="48.20565" lon="-3.2228">
        <ele>138.4</ele>
        <time>2021-08-10T09:22:41Z</time>
      </trkpt>
      <trkpt lat="48.20567" lon="-3.22287">
        <ele>138.4</ele>
        <time>2021-08-10T09:22:42Z</time>
      </trkpt>
      <trkpt lat="48.20568" lon="-3.22293">
        <ele>138.2</ele>
        <time>2021-08-10T09:22:43Z</time>
      </trkpt>
      <trkpt lat="48.2057" lon="-3.223">
        <ele>138.2</ele>
        <time>2021-08-10T09:22:44Z</time>
      </trkpt>
      <trkpt lat="48.20571" lon="-3.22307">
        <ele>138.2</ele>
        <time>2021-08-10T09:22:45Z</time>
      </trkpt>
      <trkpt lat="48.20573" lon="-3.22313">
        <ele>138.2</ele>
        <time>2021-08-10T09:22:46Z</time>
      </trkpt>
      <trkpt lat="48.20575" lon="-3.22319">
        <ele>138.2</ele>
        <time>2021-08-10T09:22:47Z</time>
      </trkpt>
      <trkpt lat="48.20578" lon="-3.22326">
        <ele>138.2</ele>
        <time>2021-08-10T09:22:48Z</time>
      </trkpt>
      <trkpt lat="48.2058" lon="-3.22332">
        <ele>138.4</ele>
        <time>2021-08-10T09:22:49Z</time>
      </trkpt>
      <trkpt lat="48.20583" lon="-3.22339">
        <ele>138.4</ele>
        <time>2021-08-10T09:22:50Z</time>
      </trkpt>
      <trkpt lat="48.20586" lon="-3.22345">
        <ele>138.4</ele>
        <time>2021-08-10T09:22:51Z</time>
      </trkpt>
      <trkpt lat="48.20588" lon="-3.22352">
        <ele>138.4</ele>
        <time>2021-08-10T09:22:52Z</time>
      </trkpt>
      <trkpt lat="48.20591" lon="-3.22358">
        <ele>138.6</ele>
        <time>2021-08-10T09:22:53Z</time>
      </trkpt>
      <trkpt lat="48.20594" lon="-3.22365">
        <ele>138.6</ele>
        <time>2021-08-10T09:22:54Z</time>
      </trkpt>
      <trkpt lat="48.20596" lon="-3.22371">
        <ele>138.4</ele>
        <time>2021-08-10T09:22:55Z</time>
      </trkpt>
      <trkpt lat="48.20599" lon="-3.22378">
        <ele>138.6</ele>
        <time>2021-08-10T09:22:56Z</time>
      </trkpt>
      <trkpt lat="48.20601" lon="-3.22385">
        <ele>138.4</ele>
        <time>2021-08-10T09:22:57Z</time>
      </trkpt>
      <trkpt lat="48.20602" lon="-3.22391">
        <ele>138.4</ele>
        <time>2021-08-10T09:22:58Z</time>
      </trkpt>
      <trkpt lat="48.20604" lon="-3.22398">
        <ele>138.4</ele>
        <time>2021-08-10T09:22:59Z</time>
      </trkpt>
      <trkpt lat="48.20606" lon="-3.22404">
        <ele>138.4</ele>
        <time>2021-08-10T09:23:00Z</time>
      </trkpt>
      <trkpt lat="48.20607" lon="-3.22409">
        <ele>138.4</ele>
        <time>2021-08-10T09:23:01Z</time>
      </trkpt>
      <trkpt lat="48.20609" lon="-3.22415">
        <ele>138.4</ele>
        <time>2021-08-10T09:23:02Z</time>
      </trkpt>
      <trkpt lat="48.20611" lon="-3.22421">
        <ele>138.6</ele>
        <time>2021-08-10T09:23:03Z</time>
      </trkpt>
      <trkpt lat="48.20613" lon="-3.22427">
        <ele>138.6</ele>
        <time>2021-08-10T09:23:04Z</time>
      </trkpt>
      <trkpt lat="48.20615" lon="-3.22434">
        <ele>138.6</ele>
        <time>2021-08-10T09:23:05Z</time>
      </trkpt>
      <trkpt lat="48.20618" lon="-3.2244">
        <ele>138.6</ele>
        <time>2021-08-10T09:23:06Z</time>
      </trkpt>
      <trkpt lat="48.2062" lon="-3.22447">
        <ele>138.6</ele>
        <time>2021-08-10T09:23:07Z</time>
      </trkpt>
      <trkpt lat="48.20622" lon="-3.22453">
        <ele>138.6</ele>
        <time>2021-08-10T09:23:08Z</time>
      </trkpt>
      <trkpt lat="48.20624" lon="-3.2246">
        <ele>138.6</ele>
        <time>2021-08-10T09:23:09Z</time>
      </trkpt>
      <trkpt lat="48.20627" lon="-3.22466">
        <ele>138.6</ele>
        <time>2021-08-10T09:23:10Z</time>
      </trkpt>
      <trkpt lat="48.20629" lon="-3.22472">
        <ele>138.6</ele>
        <time>2021-08-10T09:23:11Z</time>
      </trkpt>
      <trkpt lat="48.20631" lon="-3.22479">
        <ele>138.6</ele>
        <time>2021-08-10T09:23:12Z</time>
      </trkpt>
      <trkpt lat="48.20633" lon="-3.22485">
        <ele>138.6</ele>
        <time>2021-08-10T09:23:13Z</time>
      </trkpt>
      <trkpt lat="48.20635" lon="-3.22491">
        <ele>138.6</ele>
        <time>2021-08-10T09:23:14Z</time>
      </trkpt>
      <trkpt lat="48.20637" lon="-3.22498">
        <ele>138.6</ele>
        <time>2021-08-10T09:23:15Z</time>
      </trkpt>
      <trkpt lat="48.20639" lon="-3.22505">
        <ele>138.6</ele>
        <time>2021-08-10T09:23:16Z</time>
      </trkpt>
      <trkpt lat="48.20641" lon="-3.22511">
        <ele>138.6</ele>
        <time>2021-08-10T09:23:17Z</time>
      </trkpt>
      <trkpt lat="48.20643" lon="-3.22518">
        <ele>138.6</ele>
        <time>2021-08-10T09:23:18Z</time>
      </trkpt>
      <trkpt lat="48.20645" lon="-3.22524">
        <ele>138.6</ele>
        <time>2021-08-10T09:23:19Z</time>
      </trkpt>
      <trkpt lat="48.20646" lon="-3.22531">
        <ele>138.6</ele>
        <time>2021-08-10T09:23:20Z</time>
      </trkpt>
      <trkpt lat="48.20648" lon="-3.22537">
        <ele>138.6</ele>
        <time>2021-08-10T09:23:21Z</time>
      </trkpt>
      <trkpt lat="48.2065" lon="-3.22544">
        <ele>138.6</ele>
        <time>2021-08-10T09:23:22Z</time>
      </trkpt>
      <trkpt lat="48.20651" lon="-3.22551">
        <ele>138.6</ele>
        <time>2021-08-10T09:23:23Z</time>
      </trkpt>
      <trkpt lat="48.20653" lon="-3.22558">
        <ele>138.6</ele>
        <time>2021-08-10T09:23:24Z</time>
      </trkpt>
      <trkpt lat="48.20654" lon="-3.22564">
        <ele>138.6</ele>
        <time>2021-08-10T09:23:25Z</time>
      </trkpt>
      <trkpt lat="48.20656" lon="-3.22571">
        <ele>138.6</ele>
        <time>2021-08-10T09:23:26Z</time>
      </trkpt>
      <trkpt lat="48.20657" lon="-3.22578">
        <ele>138.6</ele>
        <time>2021-08-10T09:23:27Z</time>
      </trkpt>
      <trkpt lat="48.20659" lon="-3.22585">
        <ele>138.6</ele>
        <time>2021-08-10T09:23:28Z</time>
      </trkpt>
      <trkpt lat="48.20661" lon="-3.22592">
        <ele>138.6</ele>
        <time>2021-08-10T09:23:29Z</time>
      </trkpt>
      <trkpt lat="48.20663" lon="-3.22599">
        <ele>138.6</ele>
        <time>2021-08-10T09:23:30Z</time>
      </trkpt>
      <trkpt lat="48.20664" lon="-3.22606">
        <ele>138.6</ele>
        <time>2021-08-10T09:23:31Z</time>
      </trkpt>
      <trkpt lat="48.20666" lon="-3.22614">
        <ele>138.6</ele>
        <time>2021-08-10T09:23:32Z</time>
      </trkpt>
      <trkpt lat="48.20669" lon="-3.22621">
        <ele>138.6</ele>
        <time>2021-08-10T09:23:33Z</time>
      </trkpt>
      <trkpt lat="48.20671" lon="-3.22628">
        <ele>138.6</ele>
        <time>2021-08-10T09:23:34Z</time>
      </trkpt>
      <trkpt lat="48.20672" lon="-3.22635">
        <ele>138.6</ele>
        <time>2021-08-10T09:23:35Z</time>
      </trkpt>
      <trkpt lat="48.20674" lon="-3.22642">
        <ele>138.6</ele>
        <time>2021-08-10T09:23:36Z</time>
      </trkpt>
      <trkpt lat="48.20676" lon="-3.2265">
        <ele>138.6</ele>
        <time>2021-08-10T09:23:37Z</time>
      </trkpt>
      <trkpt lat="48.20678" lon="-3.22656">
        <ele>138.6</ele>
        <time>2021-08-10T09:23:38Z</time>
      </trkpt>
      <trkpt lat="48.2068" lon="-3.22663">
        <ele>138.6</ele>
        <time>2021-08-10T09:23:39Z</time>
      </trkpt>
      <trkpt lat="48.20682" lon="-3.2267">
        <ele>138.6</ele>
        <time>2021-08-10T09:23:40Z</time>
      </trkpt>
      <trkpt lat="48.20684" lon="-3.22677">
        <ele>138.6</ele>
        <time>2021-08-10T09:23:41Z</time>
      </trkpt>
      <trkpt lat="48.20686" lon="-3.22684">
        <ele>138.6</ele>
        <time>2021-08-10T09:23:42Z</time>
      </trkpt>
      <trkpt lat="48.20688" lon="-3.22691">
        <ele>138.6</ele>
        <time>2021-08-10T09:23:43Z</time>
      </trkpt>
      <trkpt lat="48.20689" lon="-3.22698">
        <ele>138.6</ele>
        <time>2021-08-10T09:23:44Z</time>
      </trkpt>
      <trkpt lat="48.20691" lon="-3.22705">
        <ele>138.6</ele>
        <time>2021-08-10T09:23:45Z</time>
      </trkpt>
      <trkpt lat="48.20694" lon="-3.22711">
        <ele>138.6</ele>
        <time>2021-08-10T09:23:46Z</time>
      </trkpt>
      <trkpt lat="48.20696" lon="-3.22717">
        <ele>138.6</ele>
        <time>2021-08-10T09:23:47Z</time>
      </trkpt>
      <trkpt lat="48.20698" lon="-3.22723">
        <ele>138.6</ele>
        <time>2021-08-10T09:23:48Z</time>
      </trkpt>
      <trkpt lat="48.207" lon="-3.22729">
        <ele>138.6</ele>
        <time>2021-08-10T09:23:49Z</time>
      </trkpt>
      <trkpt lat="48.20702" lon="-3.22736">
        <ele>138.6</ele>
        <time>2021-08-10T09:23:50Z</time>
      </trkpt>
      <trkpt lat="48.20704" lon="-3.22743">
        <ele>138.6</ele>
        <time>2021-08-10T09:23:51Z</time>
      </trkpt>
      <trkpt lat="48.20706" lon="-3.2275">
        <ele>138.6</ele>
        <time>2021-08-10T09:23:52Z</time>
      </trkpt>
      <trkpt lat="48.20708" lon="-3.22757">
        <ele>138.6</ele>
        <time>2021-08-10T09:23:53Z</time>
      </trkpt>
      <trkpt lat="48.2071" lon="-3.22764">
        <ele>138.6</ele>
        <time>2021-08-10T09:23:54Z</time>
      </trkpt>
      <trkpt lat="48.20712" lon="-3.22771">
        <ele>138.4</ele>
        <time>2021-08-10T09:23:55Z</time>
      </trkpt>
      <trkpt lat="48.20714" lon="-3.22778">
        <ele>138.4</ele>
        <time>2021-08-10T09:23:56Z</time>
      </trkpt>
      <trkpt lat="48.20716" lon="-3.22785">
        <ele>138.6</ele>
        <time>2021-08-10T09:23:57Z</time>
      </trkpt>
      <trkpt lat="48.20718" lon="-3.22792">
        <ele>138.6</ele>
        <time>2021-08-10T09:23:58Z</time>
      </trkpt>
      <trkpt lat="48.20721" lon="-3.22799">
        <ele>138.4</ele>
        <time>2021-08-10T09:23:59Z</time>
      </trkpt>
      <trkpt lat="48.20723" lon="-3.22806">
        <ele>138.4</ele>
        <time>2021-08-10T09:24:00Z</time>
      </trkpt>
      <trkpt lat="48.20725" lon="-3.22813">
        <ele>138.4</ele>
        <time>2021-08-10T09:24:01Z</time>
      </trkpt>
      <trkpt lat="48.20727" lon="-3.2282">
        <ele>138.4</ele>
        <time>2021-08-10T09:24:02Z</time>
      </trkpt>
      <trkpt lat="48.20729" lon="-3.22827">
        <ele>138.4</ele>
        <time>2021-08-10T09:24:03Z</time>
      </trkpt>
      <trkpt lat="48.20731" lon="-3.22834">
        <ele>138.4</ele>
        <time>2021-08-10T09:24:04Z</time>
      </trkpt>
      <trkpt lat="48.20733" lon="-3.22841">
        <ele>138.4</ele>
        <time>2021-08-10T09:24:05Z</time>
      </trkpt>
      <trkpt lat="48.20735" lon="-3.22848">
        <ele>138.6</ele>
        <time>2021-08-10T09:24:06Z</time>
      </trkpt>
      <trkpt lat="48.20737" lon="-3.22856">
        <ele>138.6</ele>
        <time>2021-08-10T09:24:07Z</time>
      </trkpt>
      <trkpt lat="48.20739" lon="-3.22863">
        <ele>138.6</ele>
        <time>2021-08-10T09:24:08Z</time>
      </trkpt>
      <trkpt lat="48.20741" lon="-3.2287">
        <ele>138.6</ele>
        <time>2021-08-10T09:24:09Z</time>
      </trkpt>
      <trkpt lat="48.20743" lon="-3.22876">
        <ele>138.6</ele>
        <time>2021-08-10T09:24:10Z</time>
      </trkpt>
      <trkpt lat="48.20745" lon="-3.22883">
        <ele>138.6</ele>
        <time>2021-08-10T09:24:11Z</time>
      </trkpt>
      <trkpt lat="48.20748" lon="-3.2289">
        <ele>138.6</ele>
        <time>2021-08-10T09:24:12Z</time>
      </trkpt>
      <trkpt lat="48.2075" lon="-3.22897">
        <ele>138.6</ele>
        <time>2021-08-10T09:24:13Z</time>
      </trkpt>
      <trkpt lat="48.20752" lon="-3.22904">
        <ele>138.6</ele>
        <time>2021-08-10T09:24:14Z</time>
      </trkpt>
      <trkpt lat="48.20753" lon="-3.22911">
        <ele>138.6</ele>
        <time>2021-08-10T09:24:15Z</time>
      </trkpt>
      <trkpt lat="48.20756" lon="-3.22918">
        <ele>138.6</ele>
        <time>2021-08-10T09:24:16Z</time>
      </trkpt>
      <trkpt lat="48.20758" lon="-3.22925">
        <ele>138.6</ele>
        <time>2021-08-10T09:24:17Z</time>
      </trkpt>
      <trkpt lat="48.20759" lon="-3.22932">
        <ele>138.6</ele>
        <time>2021-08-10T09:24:18Z</time>
      </trkpt>
      <trkpt lat="48.20761" lon="-3.22938">
        <ele>138.6</ele>
        <time>2021-08-10T09:24:19Z</time>
      </trkpt>
      <trkpt lat="48.20761" lon="-3.22945">
        <ele>138.6</ele>
        <time>2021-08-10T09:24:20Z</time>
      </trkpt>
      <trkpt lat="48.20763" lon="-3.22951">
        <ele>138.8</ele>
        <time>2021-08-10T09:24:21Z</time>
      </trkpt>
      <trkpt lat="48.20764" lon="-3.22958">
        <ele>138.8</ele>
        <time>2021-08-10T09:24:22Z</time>
      </trkpt>
      <trkpt lat="48.20766" lon="-3.22965">
        <ele>138.8</ele>
        <time>2021-08-10T09:24:23Z</time>
      </trkpt>
      <trkpt lat="48.20767" lon="-3.22972">
        <ele>138.8</ele>
        <time>2021-08-10T09:24:24Z</time>
      </trkpt>
      <trkpt lat="48.20769" lon="-3.22979">
        <ele>139</ele>
        <time>2021-08-10T09:24:25Z</time>
      </trkpt>
      <trkpt lat="48.20771" lon="-3.22986">
        <ele>139</ele>
        <time>2021-08-10T09:24:26Z</time>
      </trkpt>
      <trkpt lat="48.20773" lon="-3.22993">
        <ele>139.2</ele>
        <time>2021-08-10T09:24:27Z</time>
      </trkpt>
      <trkpt lat="48.20774" lon="-3.23001">
        <ele>139.2</ele>
        <time>2021-08-10T09:24:28Z</time>
      </trkpt>
      <trkpt lat="48.20775" lon="-3.23008">
        <ele>139.4</ele>
        <time>2021-08-10T09:24:29Z</time>
      </trkpt>
      <trkpt lat="48.20776" lon="-3.23015">
        <ele>139.4</ele>
        <time>2021-08-10T09:24:30Z</time>
      </trkpt>
      <trkpt lat="48.20777" lon="-3.23022">
        <ele>139.4</ele>
        <time>2021-08-10T09:24:31Z</time>
      </trkpt>
      <trkpt lat="48.20778" lon="-3.23029">
        <ele>139.4</ele>
        <time>2021-08-10T09:24:32Z</time>
      </trkpt>
      <trkpt lat="48.20779" lon="-3.23036">
        <ele>139.4</ele>
        <time>2021-08-10T09:24:33Z</time>
      </trkpt>
      <trkpt lat="48.2078" lon="-3.23043">
        <ele>139.4</ele>
        <time>2021-08-10T09:24:34Z</time>
      </trkpt>
      <trkpt lat="48.2078" lon="-3.2305">
        <ele>139.4</ele>
        <time>2021-08-10T09:24:35Z</time>
      </trkpt>
      <trkpt lat="48.20781" lon="-3.23057">
        <ele>139.4</ele>
        <time>2021-08-10T09:24:36Z</time>
      </trkpt>
      <trkpt lat="48.20782" lon="-3.23064">
        <ele>139.4</ele>
        <time>2021-08-10T09:24:37Z</time>
      </trkpt>
      <trkpt lat="48.20782" lon="-3.23072">
        <ele>139.2</ele>
        <time>2021-08-10T09:24:38Z</time>
      </trkpt>
      <trkpt lat="48.20782" lon="-3.23079">
        <ele>139.2</ele>
        <time>2021-08-10T09:24:39Z</time>
      </trkpt>
      <trkpt lat="48.20782" lon="-3.23087">
        <ele>139</ele>
        <time>2021-08-10T09:24:40Z</time>
      </trkpt>
      <trkpt lat="48.20782" lon="-3.23095">
        <ele>139</ele>
        <time>2021-08-10T09:24:41Z</time>
      </trkpt>
      <trkpt lat="48.20782" lon="-3.23102">
        <ele>139</ele>
        <time>2021-08-10T09:24:42Z</time>
      </trkpt>
      <trkpt lat="48.20782" lon="-3.2311">
        <ele>139</ele>
        <time>2021-08-10T09:24:43Z</time>
      </trkpt>
      <trkpt lat="48.20782" lon="-3.23117">
        <ele>138.8</ele>
        <time>2021-08-10T09:24:44Z</time>
      </trkpt>
      <trkpt lat="48.20782" lon="-3.23125">
        <ele>138.8</ele>
        <time>2021-08-10T09:24:45Z</time>
      </trkpt>
      <trkpt lat="48.20783" lon="-3.23132">
        <ele>138.8</ele>
        <time>2021-08-10T09:24:46Z</time>
      </trkpt>
      <trkpt lat="48.20783" lon="-3.23139">
        <ele>138.8</ele>
        <time>2021-08-10T09:24:47Z</time>
      </trkpt>
      <trkpt lat="48.20783" lon="-3.23147">
        <ele>138.8</ele>
        <time>2021-08-10T09:24:48Z</time>
      </trkpt>
      <trkpt lat="48.20782" lon="-3.23154">
        <ele>138.8</ele>
        <time>2021-08-10T09:24:49Z</time>
      </trkpt>
      <trkpt lat="48.20783" lon="-3.23162">
        <ele>138.8</ele>
        <time>2021-08-10T09:24:50Z</time>
      </trkpt>
      <trkpt lat="48.20783" lon="-3.23169">
        <ele>138.8</ele>
        <time>2021-08-10T09:24:51Z</time>
      </trkpt>
      <trkpt lat="48.20783" lon="-3.23177">
        <ele>138.8</ele>
        <time>2021-08-10T09:24:52Z</time>
      </trkpt>
      <trkpt lat="48.20783" lon="-3.23185">
        <ele>138.8</ele>
        <time>2021-08-10T09:24:53Z</time>
      </trkpt>
      <trkpt lat="48.20783" lon="-3.23192">
        <ele>138.8</ele>
        <time>2021-08-10T09:24:54Z</time>
      </trkpt>
      <trkpt lat="48.20784" lon="-3.232">
        <ele>138.8</ele>
        <time>2021-08-10T09:24:55Z</time>
      </trkpt>
      <trkpt lat="48.20784" lon="-3.23207">
        <ele>138.8</ele>
        <time>2021-08-10T09:24:56Z</time>
      </trkpt>
      <trkpt lat="48.20783" lon="-3.23214">
        <ele>138.8</ele>
        <time>2021-08-10T09:24:57Z</time>
      </trkpt>
      <trkpt lat="48.20784" lon="-3.23221">
        <ele>138.8</ele>
        <time>2021-08-10T09:24:58Z</time>
      </trkpt>
      <trkpt lat="48.20784" lon="-3.23228">
        <ele>138.8</ele>
        <time>2021-08-10T09:24:59Z</time>
      </trkpt>
      <trkpt lat="48.20785" lon="-3.23236">
        <ele>138.8</ele>
        <time>2021-08-10T09:25:00Z</time>
      </trkpt>
      <trkpt lat="48.20785" lon="-3.23244">
        <ele>138.8</ele>
        <time>2021-08-10T09:25:01Z</time>
      </trkpt>
      <trkpt lat="48.20786" lon="-3.23251">
        <ele>138.8</ele>
        <time>2021-08-10T09:25:02Z</time>
      </trkpt>
      <trkpt lat="48.20786" lon="-3.23258">
        <ele>138.8</ele>
        <time>2021-08-10T09:25:03Z</time>
      </trkpt>
      <trkpt lat="48.20787" lon="-3.23266">
        <ele>138.8</ele>
        <time>2021-08-10T09:25:04Z</time>
      </trkpt>
      <trkpt lat="48.20787" lon="-3.23273">
        <ele>138.8</ele>
        <time>2021-08-10T09:25:05Z</time>
      </trkpt>
      <trkpt lat="48.20788" lon="-3.23281">
        <ele>138.8</ele>
        <time>2021-08-10T09:25:06Z</time>
      </trkpt>
      <trkpt lat="48.20788" lon="-3.23289">
        <ele>138.8</ele>
        <time>2021-08-10T09:25:07Z</time>
      </trkpt>
      <trkpt lat="48.20788" lon="-3.23296">
        <ele>138.8</ele>
        <time>2021-08-10T09:25:08Z</time>
      </trkpt>
      <trkpt lat="48.20789" lon="-3.23304">
        <ele>138.8</ele>
        <time>2021-08-10T09:25:09Z</time>
      </trkpt>
      <trkpt lat="48.2079" lon="-3.23311">
        <ele>138.8</ele>
        <time>2021-08-10T09:25:10Z</time>
      </trkpt>
      <trkpt lat="48.20791" lon="-3.23318">
        <ele>138.8</ele>
        <time>2021-08-10T09:25:11Z</time>
      </trkpt>
      <trkpt lat="48.20792" lon="-3.23325">
        <ele>138.8</ele>
        <time>2021-08-10T09:25:12Z</time>
      </trkpt>
      <trkpt lat="48.20792" lon="-3.23332">
        <ele>138.8</ele>
        <time>2021-08-10T09:25:13Z</time>
      </trkpt>
      <trkpt lat="48.20793" lon="-3.23338">
        <ele>138.8</ele>
        <time>2021-08-10T09:25:14Z</time>
      </trkpt>
      <trkpt lat="48.20793" lon="-3.23345">
        <ele>138.8</ele>
        <time>2021-08-10T09:25:15Z</time>
      </trkpt>
      <trkpt lat="48.20793" lon="-3.23352">
        <ele>138.8</ele>
        <time>2021-08-10T09:25:16Z</time>
      </trkpt>
      <trkpt lat="48.20793" lon="-3.2336">
        <ele>138.8</ele>
        <time>2021-08-10T09:25:17Z</time>
      </trkpt>
      <trkpt lat="48.20793" lon="-3.23367">
        <ele>138.8</ele>
        <time>2021-08-10T09:25:18Z</time>
      </trkpt>
      <trkpt lat="48.20793" lon="-3.23374">
        <ele>138.8</ele>
        <time>2021-08-10T09:25:19Z</time>
      </trkpt>
      <trkpt lat="48.20793" lon="-3.23381">
        <ele>138.8</ele>
        <time>2021-08-10T09:25:20Z</time>
      </trkpt>
      <trkpt lat="48.20793" lon="-3.23387">
        <ele>138.8</ele>
        <time>2021-08-10T09:25:21Z</time>
      </trkpt>
      <trkpt lat="48.20793" lon="-3.23394">
        <ele>138.8</ele>
        <time>2021-08-10T09:25:22Z</time>
      </trkpt>
      <trkpt lat="48.20793" lon="-3.23401">
        <ele>138.8</ele>
        <time>2021-08-10T09:25:23Z</time>
      </trkpt>
      <trkpt lat="48.20793" lon="-3.23407">
        <ele>138.8</ele>
        <time>2021-08-10T09:25:24Z</time>
      </trkpt>
      <trkpt lat="48.20792" lon="-3.23413">
        <ele>138.8</ele>
        <time>2021-08-10T09:25:25Z</time>
      </trkpt>
      <trkpt lat="48.20791" lon="-3.23418">
        <ele>138.8</ele>
        <time>2021-08-10T09:25:26Z</time>
      </trkpt>
      <trkpt lat="48.2079" lon="-3.23423">
        <ele>138.6</ele>
        <time>2021-08-10T09:25:27Z</time>
      </trkpt>
      <trkpt lat="48.20789" lon="-3.23427">
        <ele>138.6</ele>
        <time>2021-08-10T09:25:28Z</time>
      </trkpt>
      <trkpt lat="48.20787" lon="-3.23433">
        <ele>138.6</ele>
        <time>2021-08-10T09:25:29Z</time>
      </trkpt>
      <trkpt lat="48.20785" lon="-3.23441">
        <ele>138.8</ele>
        <time>2021-08-10T09:25:30Z</time>
      </trkpt>
      <trkpt lat="48.20783" lon="-3.23447">
        <ele>138.6</ele>
        <time>2021-08-10T09:25:31Z</time>
      </trkpt>
      <trkpt lat="48.2078" lon="-3.23454">
        <ele>138.6</ele>
        <time>2021-08-10T09:25:32Z</time>
      </trkpt>
      <trkpt lat="48.20778" lon="-3.23461">
        <ele>138.6</ele>
        <time>2021-08-10T09:25:33Z</time>
      </trkpt>
      <trkpt lat="48.20775" lon="-3.23468">
        <ele>138.6</ele>
        <time>2021-08-10T09:25:34Z</time>
      </trkpt>
      <trkpt lat="48.20772" lon="-3.23475">
        <ele>138.6</ele>
        <time>2021-08-10T09:25:35Z</time>
      </trkpt>
      <trkpt lat="48.20768" lon="-3.23482">
        <ele>138.6</ele>
        <time>2021-08-10T09:25:36Z</time>
      </trkpt>
      <trkpt lat="48.20765" lon="-3.23489">
        <ele>138.6</ele>
        <time>2021-08-10T09:25:37Z</time>
      </trkpt>
      <trkpt lat="48.20761" lon="-3.23496">
        <ele>138.6</ele>
        <time>2021-08-10T09:25:38Z</time>
      </trkpt>
      <trkpt lat="48.20758" lon="-3.23502">
        <ele>138.6</ele>
        <time>2021-08-10T09:25:39Z</time>
      </trkpt>
      <trkpt lat="48.20754" lon="-3.23509">
        <ele>138.6</ele>
        <time>2021-08-10T09:25:40Z</time>
      </trkpt>
      <trkpt lat="48.20751" lon="-3.23514">
        <ele>138.6</ele>
        <time>2021-08-10T09:25:41Z</time>
      </trkpt>
      <trkpt lat="48.20748" lon="-3.23518">
        <ele>138.6</ele>
        <time>2021-08-10T09:25:42Z</time>
      </trkpt>
      <trkpt lat="48.20744" lon="-3.23523">
        <ele>138.6</ele>
        <time>2021-08-10T09:25:43Z</time>
      </trkpt>
      <trkpt lat="48.2074" lon="-3.23527">
        <ele>138.6</ele>
        <time>2021-08-10T09:25:44Z</time>
      </trkpt>
      <trkpt lat="48.20737" lon="-3.23531">
        <ele>138.6</ele>
        <time>2021-08-10T09:25:45Z</time>
      </trkpt>
      <trkpt lat="48.20732" lon="-3.23536">
        <ele>138.6</ele>
        <time>2021-08-10T09:25:46Z</time>
      </trkpt>
      <trkpt lat="48.20728" lon="-3.23541">
        <ele>138.6</ele>
        <time>2021-08-10T09:25:47Z</time>
      </trkpt>
      <trkpt lat="48.20725" lon="-3.23546">
        <ele>138.6</ele>
        <time>2021-08-10T09:25:48Z</time>
      </trkpt>
      <trkpt lat="48.20721" lon="-3.2355">
        <ele>138.6</ele>
        <time>2021-08-10T09:25:49Z</time>
      </trkpt>
      <trkpt lat="48.20717" lon="-3.23555">
        <ele>138.6</ele>
        <time>2021-08-10T09:25:50Z</time>
      </trkpt>
      <trkpt lat="48.20713" lon="-3.23559">
        <ele>138.6</ele>
        <time>2021-08-10T09:25:51Z</time>
      </trkpt>
      <trkpt lat="48.20708" lon="-3.23564">
        <ele>138.4</ele>
        <time>2021-08-10T09:25:52Z</time>
      </trkpt>
      <trkpt lat="48.20704" lon="-3.23569">
        <ele>138.4</ele>
        <time>2021-08-10T09:25:53Z</time>
      </trkpt>
      <trkpt lat="48.207" lon="-3.23573">
        <ele>138.4</ele>
        <time>2021-08-10T09:25:54Z</time>
      </trkpt>
      <trkpt lat="48.20695" lon="-3.23578">
        <ele>138.4</ele>
        <time>2021-08-10T09:25:55Z</time>
      </trkpt>
      <trkpt lat="48.20691" lon="-3.23583">
        <ele>138.4</ele>
        <time>2021-08-10T09:25:56Z</time>
      </trkpt>
      <trkpt lat="48.20687" lon="-3.23588">
        <ele>138.4</ele>
        <time>2021-08-10T09:25:57Z</time>
      </trkpt>
      <trkpt lat="48.20683" lon="-3.23592">
        <ele>138.4</ele>
        <time>2021-08-10T09:25:58Z</time>
      </trkpt>
      <trkpt lat="48.20679" lon="-3.23596">
        <ele>138.4</ele>
        <time>2021-08-10T09:25:59Z</time>
      </trkpt>
      <trkpt lat="48.20675" lon="-3.236">
        <ele>138.4</ele>
        <time>2021-08-10T09:26:00Z</time>
      </trkpt>
      <trkpt lat="48.20671" lon="-3.23604">
        <ele>138.4</ele>
        <time>2021-08-10T09:26:01Z</time>
      </trkpt>
      <trkpt lat="48.20668" lon="-3.23609">
        <ele>138.4</ele>
        <time>2021-08-10T09:26:02Z</time>
      </trkpt>
      <trkpt lat="48.20664" lon="-3.23613">
        <ele>138.4</ele>
        <time>2021-08-10T09:26:03Z</time>
      </trkpt>
      <trkpt lat="48.2066" lon="-3.23617">
        <ele>138.4</ele>
        <time>2021-08-10T09:26:04Z</time>
      </trkpt>
      <trkpt lat="48.20656" lon="-3.23621">
        <ele>138.4</ele>
        <time>2021-08-10T09:26:05Z</time>
      </trkpt>
      <trkpt lat="48.20652" lon="-3.23625">
        <ele>138.4</ele>
        <time>2021-08-10T09:26:06Z</time>
      </trkpt>
      <trkpt lat="48.20648" lon="-3.23628">
        <ele>138.4</ele>
        <time>2021-08-10T09:26:07Z</time>
      </trkpt>
      <trkpt lat="48.20644" lon="-3.23632">
        <ele>138.4</ele>
        <time>2021-08-10T09:26:08Z</time>
      </trkpt>
      <trkpt lat="48.20641" lon="-3.23636">
        <ele>138.4</ele>
        <time>2021-08-10T09:26:09Z</time>
      </trkpt>
      <trkpt lat="48.20637" lon="-3.2364">
        <ele>138.4</ele>
        <time>2021-08-10T09:26:10Z</time>
      </trkpt>
      <trkpt lat="48.20633" lon="-3.23643">
        <ele>138.4</ele>
        <time>2021-08-10T09:26:11Z</time>
      </trkpt>
      <trkpt lat="48.20629" lon="-3.23648">
        <ele>138.4</ele>
        <time>2021-08-10T09:26:12Z</time>
      </trkpt>
      <trkpt lat="48.20625" lon="-3.23652">
        <ele>138.6</ele>
        <time>2021-08-10T09:26:13Z</time>
      </trkpt>
      <trkpt lat="48.20622" lon="-3.23656">
        <ele>138.6</ele>
        <time>2021-08-10T09:26:14Z</time>
      </trkpt>
      <trkpt lat="48.20618" lon="-3.2366">
        <ele>138.6</ele>
        <time>2021-08-10T09:26:15Z</time>
      </trkpt>
      <trkpt lat="48.20614" lon="-3.23664">
        <ele>138.6</ele>
        <time>2021-08-10T09:26:16Z</time>
      </trkpt>
      <trkpt lat="48.20611" lon="-3.23668">
        <ele>138.8</ele>
        <time>2021-08-10T09:26:17Z</time>
      </trkpt>
      <trkpt lat="48.20607" lon="-3.23672">
        <ele>138.8</ele>
        <time>2021-08-10T09:26:18Z</time>
      </trkpt>
      <trkpt lat="48.20604" lon="-3.23676">
        <ele>138.8</ele>
        <time>2021-08-10T09:26:19Z</time>
      </trkpt>
      <trkpt lat="48.206" lon="-3.2368">
        <ele>138.8</ele>
        <time>2021-08-10T09:26:20Z</time>
      </trkpt>
      <trkpt lat="48.20597" lon="-3.23684">
        <ele>138.8</ele>
        <time>2021-08-10T09:26:21Z</time>
      </trkpt>
      <trkpt lat="48.20593" lon="-3.23688">
        <ele>138.8</ele>
        <time>2021-08-10T09:26:22Z</time>
      </trkpt>
      <trkpt lat="48.2059" lon="-3.23692">
        <ele>138.8</ele>
        <time>2021-08-10T09:26:23Z</time>
      </trkpt>
      <trkpt lat="48.20586" lon="-3.23696">
        <ele>138.8</ele>
        <time>2021-08-10T09:26:24Z</time>
      </trkpt>
      <trkpt lat="48.20582" lon="-3.237">
        <ele>138.8</ele>
        <time>2021-08-10T09:26:25Z</time>
      </trkpt>
      <trkpt lat="48.20578" lon="-3.23703">
        <ele>138.8</ele>
        <time>2021-08-10T09:26:26Z</time>
      </trkpt>
      <trkpt lat="48.20574" lon="-3.23706">
        <ele>138.8</ele>
        <time>2021-08-10T09:26:27Z</time>
      </trkpt>
      <trkpt lat="48.2057" lon="-3.23709">
        <ele>138.8</ele>
        <time>2021-08-10T09:26:28Z</time>
      </trkpt>
      <trkpt lat="48.20567" lon="-3.23712">
        <ele>138.8</ele>
        <time>2021-08-10T09:26:29Z</time>
      </trkpt>
      <trkpt lat="48.20563" lon="-3.23715">
        <ele>138.8</ele>
        <time>2021-08-10T09:26:30Z</time>
      </trkpt>
      <trkpt lat="48.20559" lon="-3.23717">
        <ele>138.8</ele>
        <time>2021-08-10T09:26:31Z</time>
      </trkpt>
      <trkpt lat="48.20555" lon="-3.23719">
        <ele>138.8</ele>
        <time>2021-08-10T09:26:32Z</time>
      </trkpt>
      <trkpt lat="48.2055" lon="-3.23721">
        <ele>138.8</ele>
        <time>2021-08-10T09:26:33Z</time>
      </trkpt>
      <trkpt lat="48.20546" lon="-3.23723">
        <ele>138.8</ele>
        <time>2021-08-10T09:26:34Z</time>
      </trkpt>
      <trkpt lat="48.20541" lon="-3.23724">
        <ele>138.8</ele>
        <time>2021-08-10T09:26:35Z</time>
      </trkpt>
      <trkpt lat="48.20536" lon="-3.23725">
        <ele>138.6</ele>
        <time>2021-08-10T09:26:36Z</time>
      </trkpt>
      <trkpt lat="48.20532" lon="-3.23726">
        <ele>138.6</ele>
        <time>2021-08-10T09:26:37Z</time>
      </trkpt>
      <trkpt lat="48.20528" lon="-3.23726">
        <ele>138.6</ele>
        <time>2021-08-10T09:26:38Z</time>
      </trkpt>
      <trkpt lat="48.20523" lon="-3.23727">
        <ele>138.6</ele>
        <time>2021-08-10T09:26:39Z</time>
      </trkpt>
      <trkpt lat="48.20519" lon="-3.23727">
        <ele>138.6</ele>
        <time>2021-08-10T09:26:40Z</time>
      </trkpt>
      <trkpt lat="48.20515" lon="-3.23727">
        <ele>138.6</ele>
        <time>2021-08-10T09:26:41Z</time>
      </trkpt>
      <trkpt lat="48.2051" lon="-3.23728">
        <ele>138.6</ele>
        <time>2021-08-10T09:26:42Z</time>
      </trkpt>
      <trkpt lat="48.20505" lon="-3.23728">
        <ele>138.6</ele>
        <time>2021-08-10T09:26:43Z</time>
      </trkpt>
      <trkpt lat="48.205" lon="-3.23727">
        <ele>138.6</ele>
        <time>2021-08-10T09:26:44Z</time>
      </trkpt>
      <trkpt lat="48.20496" lon="-3.23727">
        <ele>138.6</ele>
        <time>2021-08-10T09:26:45Z</time>
      </trkpt>
      <trkpt lat="48.20491" lon="-3.23725">
        <ele>138.4</ele>
        <time>2021-08-10T09:26:46Z</time>
      </trkpt>
      <trkpt lat="48.20486" lon="-3.23724">
        <ele>138.4</ele>
        <time>2021-08-10T09:26:47Z</time>
      </trkpt>
      <trkpt lat="48.20481" lon="-3.23722">
        <ele>138.2</ele>
        <time>2021-08-10T09:26:48Z</time>
      </trkpt>
      <trkpt lat="48.20476" lon="-3.23721">
        <ele>138.2</ele>
        <time>2021-08-10T09:26:49Z</time>
      </trkpt>
      <trkpt lat="48.20471" lon="-3.2372">
        <ele>138.2</ele>
        <time>2021-08-10T09:26:50Z</time>
      </trkpt>
      <trkpt lat="48.20467" lon="-3.23718">
        <ele>138.2</ele>
        <time>2021-08-10T09:26:51Z</time>
      </trkpt>
      <trkpt lat="48.20462" lon="-3.23717">
        <ele>138.2</ele>
        <time>2021-08-10T09:26:52Z</time>
      </trkpt>
      <trkpt lat="48.20458" lon="-3.23715">
        <ele>138.2</ele>
        <time>2021-08-10T09:26:53Z</time>
      </trkpt>
      <trkpt lat="48.20453" lon="-3.23714">
        <ele>138.2</ele>
        <time>2021-08-10T09:26:54Z</time>
      </trkpt>
      <trkpt lat="48.20448" lon="-3.23713">
        <ele>138.2</ele>
        <time>2021-08-10T09:26:55Z</time>
      </trkpt>
      <trkpt lat="48.20444" lon="-3.23711">
        <ele>138.2</ele>
        <time>2021-08-10T09:26:56Z</time>
      </trkpt>
      <trkpt lat="48.20439" lon="-3.2371">
        <ele>138.2</ele>
        <time>2021-08-10T09:26:57Z</time>
      </trkpt>
      <trkpt lat="48.20434" lon="-3.23709">
        <ele>138.2</ele>
        <time>2021-08-10T09:26:58Z</time>
      </trkpt>
      <trkpt lat="48.2043" lon="-3.23708">
        <ele>138.2</ele>
        <time>2021-08-10T09:26:59Z</time>
      </trkpt>
      <trkpt lat="48.20425" lon="-3.23707">
        <ele>138.2</ele>
        <time>2021-08-10T09:27:00Z</time>
      </trkpt>
      <trkpt lat="48.20421" lon="-3.23706">
        <ele>138.2</ele>
        <time>2021-08-10T09:27:01Z</time>
      </trkpt>
      <trkpt lat="48.20416" lon="-3.23705">
        <ele>138.2</ele>
        <time>2021-08-10T09:27:02Z</time>
      </trkpt>
      <trkpt lat="48.20411" lon="-3.23704">
        <ele>138.2</ele>
        <time>2021-08-10T09:27:03Z</time>
      </trkpt>
      <trkpt lat="48.20406" lon="-3.23703">
        <ele>138.2</ele>
        <time>2021-08-10T09:27:04Z</time>
      </trkpt>
      <trkpt lat="48.204" lon="-3.23702">
        <ele>138.2</ele>
        <time>2021-08-10T09:27:05Z</time>
      </trkpt>
      <trkpt lat="48.20395" lon="-3.23701">
        <ele>138.2</ele>
        <time>2021-08-10T09:27:06Z</time>
      </trkpt>
      <trkpt lat="48.2039" lon="-3.237">
        <ele>138.2</ele>
        <time>2021-08-10T09:27:07Z</time>
      </trkpt>
      <trkpt lat="48.20385" lon="-3.23698">
        <ele>138.2</ele>
        <time>2021-08-10T09:27:08Z</time>
      </trkpt>
      <trkpt lat="48.2038" lon="-3.23697">
        <ele>138.2</ele>
        <time>2021-08-10T09:27:09Z</time>
      </trkpt>
      <trkpt lat="48.20375" lon="-3.23696">
        <ele>138.2</ele>
        <time>2021-08-10T09:27:10Z</time>
      </trkpt>
      <trkpt lat="48.2037" lon="-3.23694">
        <ele>138.2</ele>
        <time>2021-08-10T09:27:11Z</time>
      </trkpt>
      <trkpt lat="48.20365" lon="-3.23693">
        <ele>138.2</ele>
        <time>2021-08-10T09:27:12Z</time>
      </trkpt>
      <trkpt lat="48.2036" lon="-3.23692">
        <ele>138.2</ele>
        <time>2021-08-10T09:27:13Z</time>
      </trkpt>
      <trkpt lat="48.20356" lon="-3.23691">
        <ele>138.2</ele>
        <time>2021-08-10T09:27:14Z</time>
      </trkpt>
      <trkpt lat="48.2035" lon="-3.2369">
        <ele>138.2</ele>
        <time>2021-08-10T09:27:15Z</time>
      </trkpt>
      <trkpt lat="48.20345" lon="-3.23688">
        <ele>138</ele>
        <time>2021-08-10T09:27:16Z</time>
      </trkpt>
      <trkpt lat="48.20341" lon="-3.23687">
        <ele>138</ele>
        <time>2021-08-10T09:27:17Z</time>
      </trkpt>
      <trkpt lat="48.20336" lon="-3.23686">
        <ele>138.2</ele>
        <time>2021-08-10T09:27:18Z</time>
      </trkpt>
      <trkpt lat="48.20331" lon="-3.23685">
        <ele>138.2</ele>
        <time>2021-08-10T09:27:19Z</time>
      </trkpt>
      <trkpt lat="48.20326" lon="-3.23684">
        <ele>138.2</ele>
        <time>2021-08-10T09:27:20Z</time>
      </trkpt>
      <trkpt lat="48.20321" lon="-3.23683">
        <ele>138.2</ele>
        <time>2021-08-10T09:27:21Z</time>
      </trkpt>
      <trkpt lat="48.20316" lon="-3.23683">
        <ele>138.2</ele>
        <time>2021-08-10T09:27:22Z</time>
      </trkpt>
      <trkpt lat="48.20311" lon="-3.23682">
        <ele>138.2</ele>
        <time>2021-08-10T09:27:23Z</time>
      </trkpt>
      <trkpt lat="48.20306" lon="-3.23683">
        <ele>138.2</ele>
        <time>2021-08-10T09:27:24Z</time>
      </trkpt>
      <trkpt lat="48.20301" lon="-3.23682">
        <ele>138.2</ele>
        <time>2021-08-10T09:27:25Z</time>
      </trkpt>
      <trkpt lat="48.20295" lon="-3.23683">
        <ele>138.2</ele>
        <time>2021-08-10T09:27:26Z</time>
      </trkpt>
      <trkpt lat="48.2029" lon="-3.23684">
        <ele>138.2</ele>
        <time>2021-08-10T09:27:27Z</time>
      </trkpt>
      <trkpt lat="48.20285" lon="-3.23685">
        <ele>138.2</ele>
        <time>2021-08-10T09:27:28Z</time>
      </trkpt>
      <trkpt lat="48.2028" lon="-3.23686">
        <ele>138.2</ele>
        <time>2021-08-10T09:27:29Z</time>
      </trkpt>
      <trkpt lat="48.20275" lon="-3.23688">
        <ele>138.2</ele>
        <time>2021-08-10T09:27:30Z</time>
      </trkpt>
      <trkpt lat="48.2027" lon="-3.2369">
        <ele>138.2</ele>
        <time>2021-08-10T09:27:31Z</time>
      </trkpt>
      <trkpt lat="48.20265" lon="-3.23693">
        <ele>138.2</ele>
        <time>2021-08-10T09:27:32Z</time>
      </trkpt>
      <trkpt lat="48.20261" lon="-3.23696">
        <ele>138.2</ele>
        <time>2021-08-10T09:27:33Z</time>
      </trkpt>
      <trkpt lat="48.20257" lon="-3.237">
        <ele>138.2</ele>
        <time>2021-08-10T09:27:34Z</time>
      </trkpt>
      <trkpt lat="48.20253" lon="-3.23703">
        <ele>138.2</ele>
        <time>2021-08-10T09:27:35Z</time>
      </trkpt>
      <trkpt lat="48.20248" lon="-3.23707">
        <ele>138.4</ele>
        <time>2021-08-10T09:27:36Z</time>
      </trkpt>
      <trkpt lat="48.20245" lon="-3.23711">
        <ele>138.4</ele>
        <time>2021-08-10T09:27:37Z</time>
      </trkpt>
      <trkpt lat="48.20241" lon="-3.23715">
        <ele>138.4</ele>
        <time>2021-08-10T09:27:38Z</time>
      </trkpt>
      <trkpt lat="48.20237" lon="-3.23718">
        <ele>138.4</ele>
        <time>2021-08-10T09:27:39Z</time>
      </trkpt>
      <trkpt lat="48.20234" lon="-3.23722">
        <ele>138.6</ele>
        <time>2021-08-10T09:27:40Z</time>
      </trkpt>
      <trkpt lat="48.20231" lon="-3.23725">
        <ele>138.6</ele>
        <time>2021-08-10T09:27:41Z</time>
      </trkpt>
      <trkpt lat="48.20227" lon="-3.23729">
        <ele>138.6</ele>
        <time>2021-08-10T09:27:42Z</time>
      </trkpt>
      <trkpt lat="48.20224" lon="-3.23732">
        <ele>138.6</ele>
        <time>2021-08-10T09:27:43Z</time>
      </trkpt>
      <trkpt lat="48.2022" lon="-3.23735">
        <ele>138.8</ele>
        <time>2021-08-10T09:27:44Z</time>
      </trkpt>
      <trkpt lat="48.20217" lon="-3.23738">
        <ele>138.8</ele>
        <time>2021-08-10T09:27:45Z</time>
      </trkpt>
      <trkpt lat="48.20214" lon="-3.23741">
        <ele>139</ele>
        <time>2021-08-10T09:27:46Z</time>
      </trkpt>
      <trkpt lat="48.2021" lon="-3.23744">
        <ele>139.6</ele>
        <time>2021-08-10T09:27:47Z</time>
      </trkpt>
      <trkpt lat="48.20207" lon="-3.23747">
        <ele>139.8</ele>
        <time>2021-08-10T09:27:48Z</time>
      </trkpt>
      <trkpt lat="48.20203" lon="-3.23751">
        <ele>140.2</ele>
        <time>2021-08-10T09:27:49Z</time>
      </trkpt>
      <trkpt lat="48.20199" lon="-3.23754">
        <ele>140.4</ele>
        <time>2021-08-10T09:27:50Z</time>
      </trkpt>
      <trkpt lat="48.20195" lon="-3.23757">
        <ele>140.4</ele>
        <time>2021-08-10T09:27:51Z</time>
      </trkpt>
      <trkpt lat="48.20192" lon="-3.23761">
        <ele>140.6</ele>
        <time>2021-08-10T09:27:52Z</time>
      </trkpt>
      <trkpt lat="48.20188" lon="-3.23765">
        <ele>140.6</ele>
        <time>2021-08-10T09:27:53Z</time>
      </trkpt>
      <trkpt lat="48.20184" lon="-3.23768">
        <ele>140.6</ele>
        <time>2021-08-10T09:27:54Z</time>
      </trkpt>
      <trkpt lat="48.2018" lon="-3.23772">
        <ele>140.6</ele>
        <time>2021-08-10T09:27:55Z</time>
      </trkpt>
      <trkpt lat="48.20177" lon="-3.23775">
        <ele>140.6</ele>
        <time>2021-08-10T09:27:56Z</time>
      </trkpt>
      <trkpt lat="48.20173" lon="-3.23779">
        <ele>140.6</ele>
        <time>2021-08-10T09:27:57Z</time>
      </trkpt>
      <trkpt lat="48.20169" lon="-3.23782">
        <ele>140.6</ele>
        <time>2021-08-10T09:27:58Z</time>
      </trkpt>
      <trkpt lat="48.20165" lon="-3.23786">
        <ele>140.6</ele>
        <time>2021-08-10T09:27:59Z</time>
      </trkpt>
      <trkpt lat="48.20162" lon="-3.23789">
        <ele>140.6</ele>
        <time>2021-08-10T09:28:00Z</time>
      </trkpt>
      <trkpt lat="48.20158" lon="-3.23792">
        <ele>140.6</ele>
        <time>2021-08-10T09:28:01Z</time>
      </trkpt>
      <trkpt lat="48.20154" lon="-3.23796">
        <ele>140.6</ele>
        <time>2021-08-10T09:28:02Z</time>
      </trkpt>
      <trkpt lat="48.2015" lon="-3.238">
        <ele>140.6</ele>
        <time>2021-08-10T09:28:03Z</time>
      </trkpt>
      <trkpt lat="48.20147" lon="-3.23803">
        <ele>140.6</ele>
        <time>2021-08-10T09:28:04Z</time>
      </trkpt>
      <trkpt lat="48.20143" lon="-3.23807">
        <ele>140.6</ele>
        <time>2021-08-10T09:28:05Z</time>
      </trkpt>
      <trkpt lat="48.20139" lon="-3.2381">
        <ele>140.6</ele>
        <time>2021-08-10T09:28:06Z</time>
      </trkpt>
      <trkpt lat="48.20135" lon="-3.23814">
        <ele>140.6</ele>
        <time>2021-08-10T09:28:07Z</time>
      </trkpt>
      <trkpt lat="48.20132" lon="-3.23818">
        <ele>140.6</ele>
        <time>2021-08-10T09:28:08Z</time>
      </trkpt>
      <trkpt lat="48.20128" lon="-3.23822">
        <ele>140.6</ele>
        <time>2021-08-10T09:28:09Z</time>
      </trkpt>
      <trkpt lat="48.20124" lon="-3.23825">
        <ele>140.6</ele>
        <time>2021-08-10T09:28:10Z</time>
      </trkpt>
      <trkpt lat="48.20121" lon="-3.23829">
        <ele>140.6</ele>
        <time>2021-08-10T09:28:11Z</time>
      </trkpt>
      <trkpt lat="48.20117" lon="-3.23833">
        <ele>140.6</ele>
        <time>2021-08-10T09:28:12Z</time>
      </trkpt>
      <trkpt lat="48.20113" lon="-3.23837">
        <ele>140.6</ele>
        <time>2021-08-10T09:28:13Z</time>
      </trkpt>
      <trkpt lat="48.2011" lon="-3.2384">
        <ele>140.6</ele>
        <time>2021-08-10T09:28:14Z</time>
      </trkpt>
      <trkpt lat="48.20106" lon="-3.23844">
        <ele>140.8</ele>
        <time>2021-08-10T09:28:15Z</time>
      </trkpt>
      <trkpt lat="48.20102" lon="-3.23848">
        <ele>140.8</ele>
        <time>2021-08-10T09:28:16Z</time>
      </trkpt>
      <trkpt lat="48.20098" lon="-3.23852">
        <ele>140.8</ele>
        <time>2021-08-10T09:28:17Z</time>
      </trkpt>
      <trkpt lat="48.20095" lon="-3.23856">
        <ele>140.8</ele>
        <time>2021-08-10T09:28:18Z</time>
      </trkpt>
      <trkpt lat="48.20091" lon="-3.2386">
        <ele>140.8</ele>
        <time>2021-08-10T09:28:19Z</time>
      </trkpt>
      <trkpt lat="48.20088" lon="-3.23864">
        <ele>140.8</ele>
        <time>2021-08-10T09:28:20Z</time>
      </trkpt>
      <trkpt lat="48.20084" lon="-3.23867">
        <ele>140.8</ele>
        <time>2021-08-10T09:28:21Z</time>
      </trkpt>
      <trkpt lat="48.2008" lon="-3.23871">
        <ele>140.8</ele>
        <time>2021-08-10T09:28:22Z</time>
      </trkpt>
      <trkpt lat="48.20076" lon="-3.23874">
        <ele>140.8</ele>
        <time>2021-08-10T09:28:23Z</time>
      </trkpt>
      <trkpt lat="48.20072" lon="-3.23878">
        <ele>140.8</ele>
        <time>2021-08-10T09:28:24Z</time>
      </trkpt>
      <trkpt lat="48.20069" lon="-3.23881">
        <ele>140.8</ele>
        <time>2021-08-10T09:28:25Z</time>
      </trkpt>
      <trkpt lat="48.20065" lon="-3.23885">
        <ele>140.8</ele>
        <time>2021-08-10T09:28:26Z</time>
      </trkpt>
      <trkpt lat="48.20061" lon="-3.23888">
        <ele>140.8</ele>
        <time>2021-08-10T09:28:27Z</time>
      </trkpt>
      <trkpt lat="48.20058" lon="-3.23892">
        <ele>140.8</ele>
        <time>2021-08-10T09:28:28Z</time>
      </trkpt>
      <trkpt lat="48.20054" lon="-3.23895">
        <ele>140.8</ele>
        <time>2021-08-10T09:28:29Z</time>
      </trkpt>
      <trkpt lat="48.20051" lon="-3.23899">
        <ele>140.8</ele>
        <time>2021-08-10T09:28:30Z</time>
      </trkpt>
      <trkpt lat="48.20048" lon="-3.23902">
        <ele>140.8</ele>
        <time>2021-08-10T09:28:31Z</time>
      </trkpt>
      <trkpt lat="48.20044" lon="-3.23905">
        <ele>140.8</ele>
        <time>2021-08-10T09:28:32Z</time>
      </trkpt>
      <trkpt lat="48.20041" lon="-3.23908">
        <ele>140.8</ele>
        <time>2021-08-10T09:28:33Z</time>
      </trkpt>
      <trkpt lat="48.20038" lon="-3.23911">
        <ele>140.8</ele>
        <time>2021-08-10T09:28:34Z</time>
      </trkpt>
      <trkpt lat="48.20035" lon="-3.23914">
        <ele>140.8</ele>
        <time>2021-08-10T09:28:35Z</time>
      </trkpt>
      <trkpt lat="48.20032" lon="-3.23917">
        <ele>141</ele>
        <time>2021-08-10T09:28:36Z</time>
      </trkpt>
      <trkpt lat="48.2003" lon="-3.2392">
        <ele>141</ele>
        <time>2021-08-10T09:28:37Z</time>
      </trkpt>
      <trkpt lat="48.20027" lon="-3.23923">
        <ele>141</ele>
        <time>2021-08-10T09:28:38Z</time>
      </trkpt>
      <trkpt lat="48.20023" lon="-3.23926">
        <ele>141</ele>
        <time>2021-08-10T09:28:39Z</time>
      </trkpt>
      <trkpt lat="48.2002" lon="-3.23929">
        <ele>141</ele>
        <time>2021-08-10T09:28:40Z</time>
      </trkpt>
      <trkpt lat="48.20017" lon="-3.23931">
        <ele>141</ele>
        <time>2021-08-10T09:28:41Z</time>
      </trkpt>
      <trkpt lat="48.20014" lon="-3.23935">
        <ele>141</ele>
        <time>2021-08-10T09:28:42Z</time>
      </trkpt>
      <trkpt lat="48.20011" lon="-3.23938">
        <ele>141</ele>
        <time>2021-08-10T09:28:43Z</time>
      </trkpt>
      <trkpt lat="48.20007" lon="-3.23941">
        <ele>141</ele>
        <time>2021-08-10T09:28:44Z</time>
      </trkpt>
      <trkpt lat="48.20004" lon="-3.23944">
        <ele>141</ele>
        <time>2021-08-10T09:28:45Z</time>
      </trkpt>
      <trkpt lat="48.2" lon="-3.23948">
        <ele>141</ele>
        <time>2021-08-10T09:28:46Z</time>
      </trkpt>
      <trkpt lat="48.19996" lon="-3.23952">
        <ele>141</ele>
        <time>2021-08-10T09:28:47Z</time>
      </trkpt>
      <trkpt lat="48.19993" lon="-3.23956">
        <ele>141</ele>
        <time>2021-08-10T09:28:48Z</time>
      </trkpt>
      <trkpt lat="48.19989" lon="-3.2396">
        <ele>141</ele>
        <time>2021-08-10T09:28:49Z</time>
      </trkpt>
      <trkpt lat="48.19985" lon="-3.23964">
        <ele>141</ele>
        <time>2021-08-10T09:28:50Z</time>
      </trkpt>
      <trkpt lat="48.19981" lon="-3.23968">
        <ele>141</ele>
        <time>2021-08-10T09:28:51Z</time>
      </trkpt>
      <trkpt lat="48.19978" lon="-3.23972">
        <ele>141</ele>
        <time>2021-08-10T09:28:52Z</time>
      </trkpt>
      <trkpt lat="48.19974" lon="-3.23976">
        <ele>141</ele>
        <time>2021-08-10T09:28:53Z</time>
      </trkpt>
      <trkpt lat="48.1997" lon="-3.2398">
        <ele>141</ele>
        <time>2021-08-10T09:28:54Z</time>
      </trkpt>
      <trkpt lat="48.19966" lon="-3.23984">
        <ele>141</ele>
        <time>2021-08-10T09:28:55Z</time>
      </trkpt>
      <trkpt lat="48.19962" lon="-3.23988">
        <ele>141</ele>
        <time>2021-08-10T09:28:56Z</time>
      </trkpt>
      <trkpt lat="48.19958" lon="-3.23992">
        <ele>141</ele>
        <time>2021-08-10T09:28:57Z</time>
      </trkpt>
      <trkpt lat="48.19954" lon="-3.23996">
        <ele>141</ele>
        <time>2021-08-10T09:28:58Z</time>
      </trkpt>
      <trkpt lat="48.1995" lon="-3.24">
        <ele>140.8</ele>
        <time>2021-08-10T09:28:59Z</time>
      </trkpt>
      <trkpt lat="48.19946" lon="-3.24004">
        <ele>140.8</ele>
        <time>2021-08-10T09:29:00Z</time>
      </trkpt>
      <trkpt lat="48.19942" lon="-3.24008">
        <ele>140.8</ele>
        <time>2021-08-10T09:29:01Z</time>
      </trkpt>
      <trkpt lat="48.19937" lon="-3.24012">
        <ele>140.8</ele>
        <time>2021-08-10T09:29:02Z</time>
      </trkpt>
      <trkpt lat="48.19933" lon="-3.24017">
        <ele>140.8</ele>
        <time>2021-08-10T09:29:03Z</time>
      </trkpt>
      <trkpt lat="48.19929" lon="-3.24021">
        <ele>140.8</ele>
        <time>2021-08-10T09:29:04Z</time>
      </trkpt>
      <trkpt lat="48.19925" lon="-3.24025">
        <ele>140.8</ele>
        <time>2021-08-10T09:29:05Z</time>
      </trkpt>
      <trkpt lat="48.19921" lon="-3.24029">
        <ele>140.8</ele>
        <time>2021-08-10T09:29:06Z</time>
      </trkpt>
      <trkpt lat="48.19917" lon="-3.24033">
        <ele>140.8</ele>
        <time>2021-08-10T09:29:07Z</time>
      </trkpt>
      <trkpt lat="48.19913" lon="-3.24037">
        <ele>140.8</ele>
        <time>2021-08-10T09:29:08Z</time>
      </trkpt>
      <trkpt lat="48.19909" lon="-3.24041">
        <ele>140.8</ele>
        <time>2021-08-10T09:29:09Z</time>
      </trkpt>
      <trkpt lat="48.19905" lon="-3.24045">
        <ele>140.8</ele>
        <time>2021-08-10T09:29:10Z</time>
      </trkpt>
      <trkpt lat="48.19902" lon="-3.24049">
        <ele>140.8</ele>
        <time>2021-08-10T09:29:11Z</time>
      </trkpt>
      <trkpt lat="48.19898" lon="-3.24053">
        <ele>140.8</ele>
        <time>2021-08-10T09:29:12Z</time>
      </trkpt>
      <trkpt lat="48.19894" lon="-3.24057">
        <ele>140.8</ele>
        <time>2021-08-10T09:29:13Z</time>
      </trkpt>
      <trkpt lat="48.1989" lon="-3.24061">
        <ele>140.6</ele>
        <time>2021-08-10T09:29:14Z</time>
      </trkpt>
      <trkpt lat="48.19886" lon="-3.24064">
        <ele>140.6</ele>
        <time>2021-08-10T09:29:15Z</time>
      </trkpt>
      <trkpt lat="48.19882" lon="-3.24068">
        <ele>140.6</ele>
        <time>2021-08-10T09:29:16Z</time>
      </trkpt>
      <trkpt lat="48.19878" lon="-3.24072">
        <ele>140.6</ele>
        <time>2021-08-10T09:29:17Z</time>
      </trkpt>
      <trkpt lat="48.19874" lon="-3.24077">
        <ele>140.6</ele>
        <time>2021-08-10T09:29:18Z</time>
      </trkpt>
      <trkpt lat="48.1987" lon="-3.24081">
        <ele>140.6</ele>
        <time>2021-08-10T09:29:19Z</time>
      </trkpt>
      <trkpt lat="48.19866" lon="-3.24085">
        <ele>140.6</ele>
        <time>2021-08-10T09:29:20Z</time>
      </trkpt>
      <trkpt lat="48.19862" lon="-3.2409">
        <ele>140.6</ele>
        <time>2021-08-10T09:29:21Z</time>
      </trkpt>
      <trkpt lat="48.19858" lon="-3.24094">
        <ele>140.6</ele>
        <time>2021-08-10T09:29:22Z</time>
      </trkpt>
      <trkpt lat="48.19854" lon="-3.24098">
        <ele>140.6</ele>
        <time>2021-08-10T09:29:23Z</time>
      </trkpt>
      <trkpt lat="48.1985" lon="-3.24103">
        <ele>140.6</ele>
        <time>2021-08-10T09:29:24Z</time>
      </trkpt>
      <trkpt lat="48.19845" lon="-3.24107">
        <ele>140.6</ele>
        <time>2021-08-10T09:29:25Z</time>
      </trkpt>
      <trkpt lat="48.19841" lon="-3.24112">
        <ele>140.6</ele>
        <time>2021-08-10T09:29:26Z</time>
      </trkpt>
      <trkpt lat="48.19837" lon="-3.24116">
        <ele>140.6</ele>
        <time>2021-08-10T09:29:27Z</time>
      </trkpt>
      <trkpt lat="48.19833" lon="-3.2412">
        <ele>140.6</ele>
        <time>2021-08-10T09:29:28Z</time>
      </trkpt>
      <trkpt lat="48.19829" lon="-3.24123">
        <ele>140.6</ele>
        <time>2021-08-10T09:29:29Z</time>
      </trkpt>
      <trkpt lat="48.19824" lon="-3.24127">
        <ele>140.6</ele>
        <time>2021-08-10T09:29:30Z</time>
      </trkpt>
      <trkpt lat="48.1982" lon="-3.24131">
        <ele>140.6</ele>
        <time>2021-08-10T09:29:31Z</time>
      </trkpt>
      <trkpt lat="48.19816" lon="-3.24136">
        <ele>140.6</ele>
        <time>2021-08-10T09:29:32Z</time>
      </trkpt>
      <trkpt lat="48.19812" lon="-3.2414">
        <ele>140.6</ele>
        <time>2021-08-10T09:29:33Z</time>
      </trkpt>
      <trkpt lat="48.19808" lon="-3.24144">
        <ele>140.6</ele>
        <time>2021-08-10T09:29:34Z</time>
      </trkpt>
      <trkpt lat="48.19804" lon="-3.24148">
        <ele>140.6</ele>
        <time>2021-08-10T09:29:35Z</time>
      </trkpt>
      <trkpt lat="48.19799" lon="-3.24152">
        <ele>140.6</ele>
        <time>2021-08-10T09:29:36Z</time>
      </trkpt>
      <trkpt lat="48.19795" lon="-3.24155">
        <ele>140.6</ele>
        <time>2021-08-10T09:29:37Z</time>
      </trkpt>
      <trkpt lat="48.1979" lon="-3.24158">
        <ele>140.6</ele>
        <time>2021-08-10T09:29:38Z</time>
      </trkpt>
      <trkpt lat="48.19786" lon="-3.24161">
        <ele>140.4</ele>
        <time>2021-08-10T09:29:39Z</time>
      </trkpt>
      <trkpt lat="48.19781" lon="-3.24163">
        <ele>140.4</ele>
        <time>2021-08-10T09:29:40Z</time>
      </trkpt>
      <trkpt lat="48.19776" lon="-3.24165">
        <ele>140.2</ele>
        <time>2021-08-10T09:29:41Z</time>
      </trkpt>
      <trkpt lat="48.19772" lon="-3.24168">
        <ele>140.4</ele>
        <time>2021-08-10T09:29:42Z</time>
      </trkpt>
      <trkpt lat="48.19767" lon="-3.24171">
        <ele>140.4</ele>
        <time>2021-08-10T09:29:43Z</time>
      </trkpt>
      <trkpt lat="48.19763" lon="-3.24174">
        <ele>140.4</ele>
        <time>2021-08-10T09:29:44Z</time>
      </trkpt>
      <trkpt lat="48.19758" lon="-3.24176">
        <ele>140.4</ele>
        <time>2021-08-10T09:29:45Z</time>
      </trkpt>
      <trkpt lat="48.19753" lon="-3.24179">
        <ele>140.2</ele>
        <time>2021-08-10T09:29:46Z</time>
      </trkpt>
      <trkpt lat="48.19748" lon="-3.24181">
        <ele>140.2</ele>
        <time>2021-08-10T09:29:47Z</time>
      </trkpt>
      <trkpt lat="48.19744" lon="-3.24183">
        <ele>140.2</ele>
        <time>2021-08-10T09:29:48Z</time>
      </trkpt>
      <trkpt lat="48.19739" lon="-3.24185">
        <ele>140.2</ele>
        <time>2021-08-10T09:29:49Z</time>
      </trkpt>
      <trkpt lat="48.19735" lon="-3.24186">
        <ele>140.2</ele>
        <time>2021-08-10T09:29:50Z</time>
      </trkpt>
      <trkpt lat="48.1973" lon="-3.24188">
        <ele>140.2</ele>
        <time>2021-08-10T09:29:51Z</time>
      </trkpt>
      <trkpt lat="48.19726" lon="-3.2419">
        <ele>140.2</ele>
        <time>2021-08-10T09:29:52Z</time>
      </trkpt>
      <trkpt lat="48.19721" lon="-3.24191">
        <ele>140.2</ele>
        <time>2021-08-10T09:29:53Z</time>
      </trkpt>
      <trkpt lat="48.19717" lon="-3.24193">
        <ele>140.2</ele>
        <time>2021-08-10T09:29:54Z</time>
      </trkpt>
      <trkpt lat="48.19712" lon="-3.24194">
        <ele>140.2</ele>
        <time>2021-08-10T09:29:55Z</time>
      </trkpt>
      <trkpt lat="48.19708" lon="-3.24196">
        <ele>140.2</ele>
        <time>2021-08-10T09:29:56Z</time>
      </trkpt>
      <trkpt lat="48.19703" lon="-3.24198">
        <ele>140.2</ele>
        <time>2021-08-10T09:29:57Z</time>
      </trkpt>
      <trkpt lat="48.19699" lon="-3.24199">
        <ele>140.4</ele>
        <time>2021-08-10T09:29:58Z</time>
      </trkpt>
      <trkpt lat="48.19695" lon="-3.24201">
        <ele>140.4</ele>
        <time>2021-08-10T09:29:59Z</time>
      </trkpt>
      <trkpt lat="48.19692" lon="-3.24202">
        <ele>140.6</ele>
        <time>2021-08-10T09:30:00Z</time>
      </trkpt>
      <trkpt lat="48.19688" lon="-3.24204">
        <ele>140.6</ele>
        <time>2021-08-10T09:30:01Z</time>
      </trkpt>
      <trkpt lat="48.19685" lon="-3.24205">
        <ele>140.6</ele>
        <time>2021-08-10T09:30:02Z</time>
      </trkpt>
      <trkpt lat="48.19682" lon="-3.24207">
        <ele>140.8</ele>
        <time>2021-08-10T09:30:03Z</time>
      </trkpt>
      <trkpt lat="48.19679" lon="-3.24208">
        <ele>141.2</ele>
        <time>2021-08-10T09:30:04Z</time>
      </trkpt>
      <trkpt lat="48.19676" lon="-3.24209">
        <ele>141.6</ele>
        <time>2021-08-10T09:30:05Z</time>
      </trkpt>
      <trkpt lat="48.19673" lon="-3.24211">
        <ele>141.8</ele>
        <time>2021-08-10T09:30:06Z</time>
      </trkpt>
      <trkpt lat="48.19671" lon="-3.24212">
        <ele>142</ele>
        <time>2021-08-10T09:30:07Z</time>
      </trkpt>
      <trkpt lat="48.19668" lon="-3.24213">
        <ele>142.4</ele>
        <time>2021-08-10T09:30:08Z</time>
      </trkpt>
      <trkpt lat="48.19666" lon="-3.24214">
        <ele>142.8</ele>
        <time>2021-08-10T09:30:09Z</time>
      </trkpt>
      <trkpt lat="48.19665" lon="-3.24216">
        <ele>143.2</ele>
        <time>2021-08-10T09:30:10Z</time>
      </trkpt>
      <trkpt lat="48.19664" lon="-3.24217">
        <ele>143.4</ele>
        <time>2021-08-10T09:30:11Z</time>
      </trkpt>
      <trkpt lat="48.19662" lon="-3.24218">
        <ele>143.6</ele>
        <time>2021-08-10T09:30:12Z</time>
      </trkpt>
      <trkpt lat="48.19661" lon="-3.24218">
        <ele>143.8</ele>
        <time>2021-08-10T09:30:13Z</time>
      </trkpt>
      <trkpt lat="48.19658" lon="-3.24218">
        <ele>144</ele>
        <time>2021-08-10T09:30:14Z</time>
      </trkpt>
      <trkpt lat="48.19656" lon="-3.24217">
        <ele>144.2</ele>
        <time>2021-08-10T09:30:15Z</time>
      </trkpt>
      <trkpt lat="48.19652" lon="-3.24217">
        <ele>144.2</ele>
        <time>2021-08-10T09:30:16Z</time>
      </trkpt>
      <trkpt lat="48.19648" lon="-3.24218">
        <ele>144.4</ele>
        <time>2021-08-10T09:30:17Z</time>
      </trkpt>
      <trkpt lat="48.19642" lon="-3.2422">
        <ele>144.4</ele>
        <time>2021-08-10T09:30:18Z</time>
      </trkpt>
      <trkpt lat="48.19637" lon="-3.24223">
        <ele>144.4</ele>
        <time>2021-08-10T09:30:19Z</time>
      </trkpt>
      <trkpt lat="48.19631" lon="-3.24225">
        <ele>144.4</ele>
        <time>2021-08-10T09:30:20Z</time>
      </trkpt>
      <trkpt lat="48.19626" lon="-3.24228">
        <ele>144.4</ele>
        <time>2021-08-10T09:30:21Z</time>
      </trkpt>
      <trkpt lat="48.1962" lon="-3.2423">
        <ele>144.4</ele>
        <time>2021-08-10T09:30:22Z</time>
      </trkpt>
      <trkpt lat="48.19615" lon="-3.24232">
        <ele>144.4</ele>
        <time>2021-08-10T09:30:23Z</time>
      </trkpt>
      <trkpt lat="48.1961" lon="-3.24233">
        <ele>144.4</ele>
        <time>2021-08-10T09:30:24Z</time>
      </trkpt>
      <trkpt lat="48.19605" lon="-3.24235">
        <ele>144.4</ele>
        <time>2021-08-10T09:30:25Z</time>
      </trkpt>
      <trkpt lat="48.196" lon="-3.24237">
        <ele>144.2</ele>
        <time>2021-08-10T09:30:26Z</time>
      </trkpt>
      <trkpt lat="48.19595" lon="-3.24239">
        <ele>143.6</ele>
        <time>2021-08-10T09:30:27Z</time>
      </trkpt>
      <trkpt lat="48.19591" lon="-3.2424">
        <ele>143.2</ele>
        <time>2021-08-10T09:30:28Z</time>
      </trkpt>
      <trkpt lat="48.19586" lon="-3.24242">
        <ele>143</ele>
        <time>2021-08-10T09:30:29Z</time>
      </trkpt>
      <trkpt lat="48.19581" lon="-3.24245">
        <ele>143</ele>
        <time>2021-08-10T09:30:30Z</time>
      </trkpt>
      <trkpt lat="48.19577" lon="-3.24248">
        <ele>142.8</ele>
        <time>2021-08-10T09:30:31Z</time>
      </trkpt>
      <trkpt lat="48.19573" lon="-3.2425">
        <ele>142.8</ele>
        <time>2021-08-10T09:30:32Z</time>
      </trkpt>
      <trkpt lat="48.19569" lon="-3.24251">
        <ele>142.8</ele>
        <time>2021-08-10T09:30:33Z</time>
      </trkpt>
      <trkpt lat="48.19564" lon="-3.24253">
        <ele>142.6</ele>
        <time>2021-08-10T09:30:34Z</time>
      </trkpt>
      <trkpt lat="48.1956" lon="-3.24255">
        <ele>142.6</ele>
        <time>2021-08-10T09:30:35Z</time>
      </trkpt>
      <trkpt lat="48.19555" lon="-3.24257">
        <ele>142.6</ele>
        <time>2021-08-10T09:30:36Z</time>
      </trkpt>
      <trkpt lat="48.19551" lon="-3.24259">
        <ele>142.6</ele>
        <time>2021-08-10T09:30:37Z</time>
      </trkpt>
      <trkpt lat="48.19546" lon="-3.2426">
        <ele>142.6</ele>
        <time>2021-08-10T09:30:38Z</time>
      </trkpt>
      <trkpt lat="48.19542" lon="-3.24262">
        <ele>142.6</ele>
        <time>2021-08-10T09:30:39Z</time>
      </trkpt>
      <trkpt lat="48.19538" lon="-3.24264">
        <ele>142.6</ele>
        <time>2021-08-10T09:30:40Z</time>
      </trkpt>
      <trkpt lat="48.19534" lon="-3.24266">
        <ele>142.6</ele>
        <time>2021-08-10T09:30:41Z</time>
      </trkpt>
      <trkpt lat="48.1953" lon="-3.24268">
        <ele>142.6</ele>
        <time>2021-08-10T09:30:42Z</time>
      </trkpt>
      <trkpt lat="48.19526" lon="-3.24271">
        <ele>142.6</ele>
        <time>2021-08-10T09:30:43Z</time>
      </trkpt>
      <trkpt lat="48.19523" lon="-3.24273">
        <ele>142.8</ele>
        <time>2021-08-10T09:30:44Z</time>
      </trkpt>
      <trkpt lat="48.19519" lon="-3.24275">
        <ele>142.8</ele>
        <time>2021-08-10T09:30:45Z</time>
      </trkpt>
      <trkpt lat="48.19516" lon="-3.24278">
        <ele>142.8</ele>
        <time>2021-08-10T09:30:46Z</time>
      </trkpt>
      <trkpt lat="48.19512" lon="-3.24281">
        <ele>142.8</ele>
        <time>2021-08-10T09:30:47Z</time>
      </trkpt>
      <trkpt lat="48.19509" lon="-3.24284">
        <ele>142.8</ele>
        <time>2021-08-10T09:30:48Z</time>
      </trkpt>
      <trkpt lat="48.19506" lon="-3.24287">
        <ele>142.8</ele>
        <time>2021-08-10T09:30:49Z</time>
      </trkpt>
      <trkpt lat="48.19503" lon="-3.2429">
        <ele>142.8</ele>
        <time>2021-08-10T09:30:50Z</time>
      </trkpt>
      <trkpt lat="48.195" lon="-3.24294">
        <ele>142.8</ele>
        <time>2021-08-10T09:30:51Z</time>
      </trkpt>
      <trkpt lat="48.19497" lon="-3.24297">
        <ele>142.8</ele>
        <time>2021-08-10T09:30:52Z</time>
      </trkpt>
      <trkpt lat="48.19495" lon="-3.243">
        <ele>142.8</ele>
        <time>2021-08-10T09:30:53Z</time>
      </trkpt>
      <trkpt lat="48.19492" lon="-3.24304">
        <ele>142.8</ele>
        <time>2021-08-10T09:30:54Z</time>
      </trkpt>
      <trkpt lat="48.1949" lon="-3.24307">
        <ele>142.8</ele>
        <time>2021-08-10T09:30:55Z</time>
      </trkpt>
      <trkpt lat="48.19488" lon="-3.2431">
        <ele>142.8</ele>
        <time>2021-08-10T09:30:56Z</time>
      </trkpt>
      <trkpt lat="48.19486" lon="-3.24313">
        <ele>142.8</ele>
        <time>2021-08-10T09:30:57Z</time>
      </trkpt>
      <trkpt lat="48.19485" lon="-3.24315">
        <ele>143</ele>
        <time>2021-08-10T09:30:58Z</time>
      </trkpt>
      <trkpt lat="48.19483" lon="-3.24319">
        <ele>143</ele>
        <time>2021-08-10T09:30:59Z</time>
      </trkpt>
      <trkpt lat="48.19482" lon="-3.24323">
        <ele>143</ele>
        <time>2021-08-10T09:31:00Z</time>
      </trkpt>
      <trkpt lat="48.1948" lon="-3.24326">
        <ele>143</ele>
        <time>2021-08-10T09:31:01Z</time>
      </trkpt>
      <trkpt lat="48.19478" lon="-3.2433">
        <ele>143</ele>
        <time>2021-08-10T09:31:02Z</time>
      </trkpt>
      <trkpt lat="48.19476" lon="-3.24334">
        <ele>143</ele>
        <time>2021-08-10T09:31:03Z</time>
      </trkpt>
      <trkpt lat="48.19475" lon="-3.24338">
        <ele>143</ele>
        <time>2021-08-10T09:31:04Z</time>
      </trkpt>
      <trkpt lat="48.19472" lon="-3.24343">
        <ele>143</ele>
        <time>2021-08-10T09:31:05Z</time>
      </trkpt>
      <trkpt lat="48.1947" lon="-3.24348">
        <ele>143</ele>
        <time>2021-08-10T09:31:06Z</time>
      </trkpt>
      <trkpt lat="48.19468" lon="-3.24354">
        <ele>143</ele>
        <time>2021-08-10T09:31:07Z</time>
      </trkpt>
      <trkpt lat="48.19465" lon="-3.24359">
        <ele>143</ele>
        <time>2021-08-10T09:31:08Z</time>
      </trkpt>
      <trkpt lat="48.19463" lon="-3.24364">
        <ele>143</ele>
        <time>2021-08-10T09:31:09Z</time>
      </trkpt>
      <trkpt lat="48.19461" lon="-3.24369">
        <ele>143</ele>
        <time>2021-08-10T09:31:10Z</time>
      </trkpt>
      <trkpt lat="48.19458" lon="-3.24374">
        <ele>143</ele>
        <time>2021-08-10T09:31:11Z</time>
      </trkpt>
      <trkpt lat="48.19456" lon="-3.24379">
        <ele>143</ele>
        <time>2021-08-10T09:31:12Z</time>
      </trkpt>
      <trkpt lat="48.19454" lon="-3.24384">
        <ele>143</ele>
        <time>2021-08-10T09:31:13Z</time>
      </trkpt>
      <trkpt lat="48.19452" lon="-3.24389">
        <ele>143</ele>
        <time>2021-08-10T09:31:14Z</time>
      </trkpt>
      <trkpt lat="48.1945" lon="-3.24394">
        <ele>143</ele>
        <time>2021-08-10T09:31:15Z</time>
      </trkpt>
      <trkpt lat="48.19449" lon="-3.244">
        <ele>143</ele>
        <time>2021-08-10T09:31:16Z</time>
      </trkpt>
      <trkpt lat="48.19447" lon="-3.24405">
        <ele>143.2</ele>
        <time>2021-08-10T09:31:17Z</time>
      </trkpt>
      <trkpt lat="48.19445" lon="-3.24411">
        <ele>143.2</ele>
        <time>2021-08-10T09:31:18Z</time>
      </trkpt>
      <trkpt lat="48.19444" lon="-3.24416">
        <ele>143.2</ele>
        <time>2021-08-10T09:31:19Z</time>
      </trkpt>
      <trkpt lat="48.19443" lon="-3.24422">
        <ele>143.2</ele>
        <time>2021-08-10T09:31:20Z</time>
      </trkpt>
      <trkpt lat="48.19442" lon="-3.24428">
        <ele>143.2</ele>
        <time>2021-08-10T09:31:21Z</time>
      </trkpt>
      <trkpt lat="48.19441" lon="-3.24434">
        <ele>143.2</ele>
        <time>2021-08-10T09:31:22Z</time>
      </trkpt>
      <trkpt lat="48.1944" lon="-3.2444">
        <ele>143.2</ele>
        <time>2021-08-10T09:31:23Z</time>
      </trkpt>
      <trkpt lat="48.19439" lon="-3.24446">
        <ele>143.2</ele>
        <time>2021-08-10T09:31:24Z</time>
      </trkpt>
      <trkpt lat="48.19439" lon="-3.24452">
        <ele>143.2</ele>
        <time>2021-08-10T09:31:25Z</time>
      </trkpt>
      <trkpt lat="48.19439" lon="-3.24458">
        <ele>143.2</ele>
        <time>2021-08-10T09:31:26Z</time>
      </trkpt>
      <trkpt lat="48.19439" lon="-3.24464">
        <ele>143.2</ele>
        <time>2021-08-10T09:31:27Z</time>
      </trkpt>
      <trkpt lat="48.19439" lon="-3.2447">
        <ele>143.2</ele>
        <time>2021-08-10T09:31:28Z</time>
      </trkpt>
      <trkpt lat="48.19439" lon="-3.24476">
        <ele>143.2</ele>
        <time>2021-08-10T09:31:29Z</time>
      </trkpt>
      <trkpt lat="48.19439" lon="-3.24483">
        <ele>143.2</ele>
        <time>2021-08-10T09:31:30Z</time>
      </trkpt>
      <trkpt lat="48.19439" lon="-3.2449">
        <ele>143.2</ele>
        <time>2021-08-10T09:31:31Z</time>
      </trkpt>
      <trkpt lat="48.19439" lon="-3.24497">
        <ele>143.2</ele>
        <time>2021-08-10T09:31:32Z</time>
      </trkpt>
      <trkpt lat="48.1944" lon="-3.24503">
        <ele>143.2</ele>
        <time>2021-08-10T09:31:33Z</time>
      </trkpt>
      <trkpt lat="48.1944" lon="-3.2451">
        <ele>143.2</ele>
        <time>2021-08-10T09:31:34Z</time>
      </trkpt>
      <trkpt lat="48.19441" lon="-3.24516">
        <ele>143.2</ele>
        <time>2021-08-10T09:31:35Z</time>
      </trkpt>
      <trkpt lat="48.19441" lon="-3.24523">
        <ele>143.2</ele>
        <time>2021-08-10T09:31:36Z</time>
      </trkpt>
      <trkpt lat="48.19442" lon="-3.24529">
        <ele>143.2</ele>
        <time>2021-08-10T09:31:37Z</time>
      </trkpt>
      <trkpt lat="48.19442" lon="-3.24535">
        <ele>143.2</ele>
        <time>2021-08-10T09:31:38Z</time>
      </trkpt>
      <trkpt lat="48.19443" lon="-3.24541">
        <ele>143.2</ele>
        <time>2021-08-10T09:31:39Z</time>
      </trkpt>
      <trkpt lat="48.19443" lon="-3.24547">
        <ele>143.2</ele>
        <time>2021-08-10T09:31:40Z</time>
      </trkpt>
      <trkpt lat="48.19444" lon="-3.24553">
        <ele>143.2</ele>
        <time>2021-08-10T09:31:41Z</time>
      </trkpt>
      <trkpt lat="48.19444" lon="-3.24559">
        <ele>143.2</ele>
        <time>2021-08-10T09:31:42Z</time>
      </trkpt>
      <trkpt lat="48.19445" lon="-3.24566">
        <ele>143.2</ele>
        <time>2021-08-10T09:31:43Z</time>
      </trkpt>
      <trkpt lat="48.19445" lon="-3.24572">
        <ele>143.2</ele>
        <time>2021-08-10T09:31:44Z</time>
      </trkpt>
      <trkpt lat="48.19446" lon="-3.24578">
        <ele>143.2</ele>
        <time>2021-08-10T09:31:45Z</time>
      </trkpt>
      <trkpt lat="48.19446" lon="-3.24584">
        <ele>143.2</ele>
        <time>2021-08-10T09:31:46Z</time>
      </trkpt>
      <trkpt lat="48.19447" lon="-3.2459">
        <ele>143.2</ele>
        <time>2021-08-10T09:31:47Z</time>
      </trkpt>
      <trkpt lat="48.19447" lon="-3.24596">
        <ele>143.2</ele>
        <time>2021-08-10T09:31:48Z</time>
      </trkpt>
      <trkpt lat="48.19448" lon="-3.24603">
        <ele>143.2</ele>
        <time>2021-08-10T09:31:49Z</time>
      </trkpt>
      <trkpt lat="48.19448" lon="-3.24609">
        <ele>143.2</ele>
        <time>2021-08-10T09:31:50Z</time>
      </trkpt>
      <trkpt lat="48.19449" lon="-3.24616">
        <ele>143.2</ele>
        <time>2021-08-10T09:31:51Z</time>
      </trkpt>
      <trkpt lat="48.19449" lon="-3.24622">
        <ele>143.2</ele>
        <time>2021-08-10T09:31:52Z</time>
      </trkpt>
      <trkpt lat="48.1945" lon="-3.24629">
        <ele>143.2</ele>
        <time>2021-08-10T09:31:53Z</time>
      </trkpt>
      <trkpt lat="48.1945" lon="-3.24636">
        <ele>143.2</ele>
        <time>2021-08-10T09:31:54Z</time>
      </trkpt>
      <trkpt lat="48.19451" lon="-3.24642">
        <ele>143.2</ele>
        <time>2021-08-10T09:31:55Z</time>
      </trkpt>
      <trkpt lat="48.19452" lon="-3.24649">
        <ele>143.2</ele>
        <time>2021-08-10T09:31:56Z</time>
      </trkpt>
      <trkpt lat="48.19452" lon="-3.24656">
        <ele>143.2</ele>
        <time>2021-08-10T09:31:57Z</time>
      </trkpt>
      <trkpt lat="48.19453" lon="-3.24662">
        <ele>143</ele>
        <time>2021-08-10T09:31:58Z</time>
      </trkpt>
      <trkpt lat="48.19454" lon="-3.24669">
        <ele>143</ele>
        <time>2021-08-10T09:31:59Z</time>
      </trkpt>
      <trkpt lat="48.19454" lon="-3.24676">
        <ele>143</ele>
        <time>2021-08-10T09:32:00Z</time>
      </trkpt>
      <trkpt lat="48.19454" lon="-3.24683">
        <ele>143</ele>
        <time>2021-08-10T09:32:01Z</time>
      </trkpt>
      <trkpt lat="48.19455" lon="-3.24689">
        <ele>143</ele>
        <time>2021-08-10T09:32:02Z</time>
      </trkpt>
      <trkpt lat="48.19455" lon="-3.24696">
        <ele>143</ele>
        <time>2021-08-10T09:32:03Z</time>
      </trkpt>
      <trkpt lat="48.19456" lon="-3.24702">
        <ele>142.8</ele>
        <time>2021-08-10T09:32:04Z</time>
      </trkpt>
      <trkpt lat="48.19457" lon="-3.24708">
        <ele>142.8</ele>
        <time>2021-08-10T09:32:05Z</time>
      </trkpt>
      <trkpt lat="48.19457" lon="-3.24714">
        <ele>142.8</ele>
        <time>2021-08-10T09:32:06Z</time>
      </trkpt>
      <trkpt lat="48.19458" lon="-3.2472">
        <ele>142.8</ele>
        <time>2021-08-10T09:32:07Z</time>
      </trkpt>
      <trkpt lat="48.19459" lon="-3.24726">
        <ele>142.8</ele>
        <time>2021-08-10T09:32:08Z</time>
      </trkpt>
      <trkpt lat="48.19459" lon="-3.24732">
        <ele>142.8</ele>
        <time>2021-08-10T09:32:09Z</time>
      </trkpt>
      <trkpt lat="48.1946" lon="-3.24739">
        <ele>142.8</ele>
        <time>2021-08-10T09:32:10Z</time>
      </trkpt>
      <trkpt lat="48.1946" lon="-3.24745">
        <ele>142.8</ele>
        <time>2021-08-10T09:32:11Z</time>
      </trkpt>
      <trkpt lat="48.19461" lon="-3.24751">
        <ele>142.8</ele>
        <time>2021-08-10T09:32:12Z</time>
      </trkpt>
      <trkpt lat="48.19461" lon="-3.24758">
        <ele>142.8</ele>
        <time>2021-08-10T09:32:13Z</time>
      </trkpt>
      <trkpt lat="48.19462" lon="-3.24765">
        <ele>142.8</ele>
        <time>2021-08-10T09:32:14Z</time>
      </trkpt>
      <trkpt lat="48.19463" lon="-3.24771">
        <ele>142.8</ele>
        <time>2021-08-10T09:32:15Z</time>
      </trkpt>
      <trkpt lat="48.19463" lon="-3.24778">
        <ele>142.8</ele>
        <time>2021-08-10T09:32:16Z</time>
      </trkpt>
      <trkpt lat="48.19464" lon="-3.24785">
        <ele>142.8</ele>
        <time>2021-08-10T09:32:17Z</time>
      </trkpt>
      <trkpt lat="48.19465" lon="-3.24791">
        <ele>142.8</ele>
        <time>2021-08-10T09:32:18Z</time>
      </trkpt>
      <trkpt lat="48.19465" lon="-3.24798">
        <ele>142.6</ele>
        <time>2021-08-10T09:32:19Z</time>
      </trkpt>
      <trkpt lat="48.19466" lon="-3.24804">
        <ele>142.6</ele>
        <time>2021-08-10T09:32:20Z</time>
      </trkpt>
      <trkpt lat="48.19467" lon="-3.24811">
        <ele>142.8</ele>
        <time>2021-08-10T09:32:21Z</time>
      </trkpt>
      <trkpt lat="48.19467" lon="-3.24818">
        <ele>142.4</ele>
        <time>2021-08-10T09:32:22Z</time>
      </trkpt>
      <trkpt lat="48.19468" lon="-3.24824">
        <ele>142.6</ele>
        <time>2021-08-10T09:32:23Z</time>
      </trkpt>
      <trkpt lat="48.19468" lon="-3.24831">
        <ele>142.6</ele>
        <time>2021-08-10T09:32:24Z</time>
      </trkpt>
      <trkpt lat="48.19469" lon="-3.24838">
        <ele>142.6</ele>
        <time>2021-08-10T09:32:25Z</time>
      </trkpt>
      <trkpt lat="48.19469" lon="-3.24845">
        <ele>142.6</ele>
        <time>2021-08-10T09:32:26Z</time>
      </trkpt>
      <trkpt lat="48.1947" lon="-3.24851">
        <ele>142.4</ele>
        <time>2021-08-10T09:32:27Z</time>
      </trkpt>
      <trkpt lat="48.19471" lon="-3.24858">
        <ele>142.4</ele>
        <time>2021-08-10T09:32:28Z</time>
      </trkpt>
      <trkpt lat="48.19471" lon="-3.24865">
        <ele>142.4</ele>
        <time>2021-08-10T09:32:29Z</time>
      </trkpt>
      <trkpt lat="48.19472" lon="-3.24872">
        <ele>142.4</ele>
        <time>2021-08-10T09:32:30Z</time>
      </trkpt>
      <trkpt lat="48.19472" lon="-3.24879">
        <ele>142.4</ele>
        <time>2021-08-10T09:32:31Z</time>
      </trkpt>
      <trkpt lat="48.19473" lon="-3.24886">
        <ele>142.2</ele>
        <time>2021-08-10T09:32:32Z</time>
      </trkpt>
      <trkpt lat="48.19474" lon="-3.24893">
        <ele>142.2</ele>
        <time>2021-08-10T09:32:33Z</time>
      </trkpt>
      <trkpt lat="48.19474" lon="-3.249">
        <ele>142.2</ele>
        <time>2021-08-10T09:32:34Z</time>
      </trkpt>
      <trkpt lat="48.19475" lon="-3.24907">
        <ele>142.2</ele>
        <time>2021-08-10T09:32:35Z</time>
      </trkpt>
      <trkpt lat="48.19476" lon="-3.24914">
        <ele>142.2</ele>
        <time>2021-08-10T09:32:36Z</time>
      </trkpt>
      <trkpt lat="48.19476" lon="-3.24921">
        <ele>142.2</ele>
        <time>2021-08-10T09:32:37Z</time>
      </trkpt>
      <trkpt lat="48.19477" lon="-3.24928">
        <ele>142.2</ele>
        <time>2021-08-10T09:32:38Z</time>
      </trkpt>
      <trkpt lat="48.19478" lon="-3.24934">
        <ele>142.2</ele>
        <time>2021-08-10T09:32:39Z</time>
      </trkpt>
      <trkpt lat="48.19478" lon="-3.24941">
        <ele>142.2</ele>
        <time>2021-08-10T09:32:40Z</time>
      </trkpt>
      <trkpt lat="48.19479" lon="-3.24948">
        <ele>142.2</ele>
        <time>2021-08-10T09:32:41Z</time>
      </trkpt>
      <trkpt lat="48.19479" lon="-3.24955">
        <ele>142.2</ele>
        <time>2021-08-10T09:32:42Z</time>
      </trkpt>
      <trkpt lat="48.1948" lon="-3.24962">
        <ele>142.2</ele>
        <time>2021-08-10T09:32:43Z</time>
      </trkpt>
      <trkpt lat="48.19481" lon="-3.24968">
        <ele>142.2</ele>
        <time>2021-08-10T09:32:44Z</time>
      </trkpt>
      <trkpt lat="48.19481" lon="-3.24975">
        <ele>142.2</ele>
        <time>2021-08-10T09:32:45Z</time>
      </trkpt>
      <trkpt lat="48.19482" lon="-3.24982">
        <ele>142.4</ele>
        <time>2021-08-10T09:32:46Z</time>
      </trkpt>
      <trkpt lat="48.19482" lon="-3.24989">
        <ele>142.4</ele>
        <time>2021-08-10T09:32:47Z</time>
      </trkpt>
      <trkpt lat="48.19483" lon="-3.24996">
        <ele>142.4</ele>
        <time>2021-08-10T09:32:48Z</time>
      </trkpt>
      <trkpt lat="48.19484" lon="-3.25002">
        <ele>142.4</ele>
        <time>2021-08-10T09:32:49Z</time>
      </trkpt>
      <trkpt lat="48.19485" lon="-3.25009">
        <ele>142.4</ele>
        <time>2021-08-10T09:32:50Z</time>
      </trkpt>
      <trkpt lat="48.19486" lon="-3.25016">
        <ele>142.4</ele>
        <time>2021-08-10T09:32:51Z</time>
      </trkpt>
      <trkpt lat="48.19487" lon="-3.25023">
        <ele>142.4</ele>
        <time>2021-08-10T09:32:52Z</time>
      </trkpt>
      <trkpt lat="48.19488" lon="-3.2503">
        <ele>142.4</ele>
        <time>2021-08-10T09:32:53Z</time>
      </trkpt>
      <trkpt lat="48.19489" lon="-3.25037">
        <ele>142.6</ele>
        <time>2021-08-10T09:32:54Z</time>
      </trkpt>
      <trkpt lat="48.1949" lon="-3.25043">
        <ele>142.6</ele>
        <time>2021-08-10T09:32:55Z</time>
      </trkpt>
      <trkpt lat="48.19491" lon="-3.2505">
        <ele>142.6</ele>
        <time>2021-08-10T09:32:56Z</time>
      </trkpt>
      <trkpt lat="48.19492" lon="-3.25057">
        <ele>142.6</ele>
        <time>2021-08-10T09:32:57Z</time>
      </trkpt>
      <trkpt lat="48.19493" lon="-3.25064">
        <ele>142.6</ele>
        <time>2021-08-10T09:32:58Z</time>
      </trkpt>
      <trkpt lat="48.19494" lon="-3.2507">
        <ele>142.6</ele>
        <time>2021-08-10T09:32:59Z</time>
      </trkpt>
      <trkpt lat="48.19496" lon="-3.25077">
        <ele>142.6</ele>
        <time>2021-08-10T09:33:00Z</time>
      </trkpt>
      <trkpt lat="48.19497" lon="-3.25083">
        <ele>142.6</ele>
        <time>2021-08-10T09:33:01Z</time>
      </trkpt>
      <trkpt lat="48.19498" lon="-3.2509">
        <ele>142.4</ele>
        <time>2021-08-10T09:33:02Z</time>
      </trkpt>
      <trkpt lat="48.19499" lon="-3.25097">
        <ele>142.4</ele>
        <time>2021-08-10T09:33:03Z</time>
      </trkpt>
      <trkpt lat="48.19501" lon="-3.25104">
        <ele>142.4</ele>
        <time>2021-08-10T09:33:04Z</time>
      </trkpt>
      <trkpt lat="48.19502" lon="-3.2511">
        <ele>142.2</ele>
        <time>2021-08-10T09:33:05Z</time>
      </trkpt>
      <trkpt lat="48.19503" lon="-3.25117">
        <ele>142.2</ele>
        <time>2021-08-10T09:33:06Z</time>
      </trkpt>
      <trkpt lat="48.19504" lon="-3.25124">
        <ele>142.2</ele>
        <time>2021-08-10T09:33:07Z</time>
      </trkpt>
      <trkpt lat="48.19505" lon="-3.25131">
        <ele>142</ele>
        <time>2021-08-10T09:33:08Z</time>
      </trkpt>
      <trkpt lat="48.19507" lon="-3.25138">
        <ele>142</ele>
        <time>2021-08-10T09:33:09Z</time>
      </trkpt>
      <trkpt lat="48.19508" lon="-3.25145">
        <ele>142</ele>
        <time>2021-08-10T09:33:10Z</time>
      </trkpt>
      <trkpt lat="48.19509" lon="-3.25152">
        <ele>142</ele>
        <time>2021-08-10T09:33:11Z</time>
      </trkpt>
      <trkpt lat="48.19511" lon="-3.25158">
        <ele>142</ele>
        <time>2021-08-10T09:33:12Z</time>
      </trkpt>
      <trkpt lat="48.19512" lon="-3.25165">
        <ele>142</ele>
        <time>2021-08-10T09:33:13Z</time>
      </trkpt>
      <trkpt lat="48.19513" lon="-3.25172">
        <ele>142</ele>
        <time>2021-08-10T09:33:14Z</time>
      </trkpt>
      <trkpt lat="48.19514" lon="-3.25179">
        <ele>142</ele>
        <time>2021-08-10T09:33:15Z</time>
      </trkpt>
      <trkpt lat="48.19515" lon="-3.25186">
        <ele>141.8</ele>
        <time>2021-08-10T09:33:16Z</time>
      </trkpt>
      <trkpt lat="48.19517" lon="-3.25193">
        <ele>142</ele>
        <time>2021-08-10T09:33:17Z</time>
      </trkpt>
      <trkpt lat="48.19518" lon="-3.252">
        <ele>142</ele>
        <time>2021-08-10T09:33:18Z</time>
      </trkpt>
      <trkpt lat="48.19519" lon="-3.25207">
        <ele>142</ele>
        <time>2021-08-10T09:33:19Z</time>
      </trkpt>
      <trkpt lat="48.19521" lon="-3.25214">
        <ele>142</ele>
        <time>2021-08-10T09:33:20Z</time>
      </trkpt>
      <trkpt lat="48.19522" lon="-3.25221">
        <ele>142.2</ele>
        <time>2021-08-10T09:33:21Z</time>
      </trkpt>
      <trkpt lat="48.19523" lon="-3.25228">
        <ele>142.2</ele>
        <time>2021-08-10T09:33:22Z</time>
      </trkpt>
      <trkpt lat="48.19524" lon="-3.25236">
        <ele>142.2</ele>
        <time>2021-08-10T09:33:23Z</time>
      </trkpt>
      <trkpt lat="48.19526" lon="-3.25243">
        <ele>142.2</ele>
        <time>2021-08-10T09:33:24Z</time>
      </trkpt>
      <trkpt lat="48.19527" lon="-3.2525">
        <ele>142.4</ele>
        <time>2021-08-10T09:33:25Z</time>
      </trkpt>
      <trkpt lat="48.19529" lon="-3.25257">
        <ele>142.4</ele>
        <time>2021-08-10T09:33:26Z</time>
      </trkpt>
      <trkpt lat="48.1953" lon="-3.25264">
        <ele>142.4</ele>
        <time>2021-08-10T09:33:27Z</time>
      </trkpt>
      <trkpt lat="48.19531" lon="-3.25271">
        <ele>142.4</ele>
        <time>2021-08-10T09:33:28Z</time>
      </trkpt>
      <trkpt lat="48.19533" lon="-3.25278">
        <ele>142.6</ele>
        <time>2021-08-10T09:33:29Z</time>
      </trkpt>
      <trkpt lat="48.19534" lon="-3.25285">
        <ele>142.6</ele>
        <time>2021-08-10T09:33:30Z</time>
      </trkpt>
      <trkpt lat="48.19535" lon="-3.25292">
        <ele>142.6</ele>
        <time>2021-08-10T09:33:31Z</time>
      </trkpt>
      <trkpt lat="48.19536" lon="-3.25299">
        <ele>142.8</ele>
        <time>2021-08-10T09:33:32Z</time>
      </trkpt>
      <trkpt lat="48.19538" lon="-3.25306">
        <ele>142.8</ele>
        <time>2021-08-10T09:33:33Z</time>
      </trkpt>
      <trkpt lat="48.19539" lon="-3.25312">
        <ele>142.8</ele>
        <time>2021-08-10T09:33:34Z</time>
      </trkpt>
      <trkpt lat="48.1954" lon="-3.25319">
        <ele>142.8</ele>
        <time>2021-08-10T09:33:35Z</time>
      </trkpt>
      <trkpt lat="48.19541" lon="-3.25326">
        <ele>142.8</ele>
        <time>2021-08-10T09:33:36Z</time>
      </trkpt>
      <trkpt lat="48.19543" lon="-3.25333">
        <ele>143</ele>
        <time>2021-08-10T09:33:37Z</time>
      </trkpt>
      <trkpt lat="48.19544" lon="-3.2534">
        <ele>143</ele>
        <time>2021-08-10T09:33:38Z</time>
      </trkpt>
      <trkpt lat="48.19545" lon="-3.25347">
        <ele>143</ele>
        <time>2021-08-10T09:33:39Z</time>
      </trkpt>
      <trkpt lat="48.19547" lon="-3.25354">
        <ele>143</ele>
        <time>2021-08-10T09:33:40Z</time>
      </trkpt>
      <trkpt lat="48.19548" lon="-3.25362">
        <ele>143</ele>
        <time>2021-08-10T09:33:41Z</time>
      </trkpt>
      <trkpt lat="48.19549" lon="-3.25369">
        <ele>143</ele>
        <time>2021-08-10T09:33:42Z</time>
      </trkpt>
      <trkpt lat="48.19551" lon="-3.25375">
        <ele>143</ele>
        <time>2021-08-10T09:33:43Z</time>
      </trkpt>
      <trkpt lat="48.19551" lon="-3.25382">
        <ele>143</ele>
        <time>2021-08-10T09:33:44Z</time>
      </trkpt>
      <trkpt lat="48.19552" lon="-3.25388">
        <ele>143</ele>
        <time>2021-08-10T09:33:45Z</time>
      </trkpt>
      <trkpt lat="48.19553" lon="-3.25395">
        <ele>143</ele>
        <time>2021-08-10T09:33:46Z</time>
      </trkpt>
      <trkpt lat="48.19554" lon="-3.25401">
        <ele>143</ele>
        <time>2021-08-10T09:33:47Z</time>
      </trkpt>
      <trkpt lat="48.19555" lon="-3.25407">
        <ele>143</ele>
        <time>2021-08-10T09:33:48Z</time>
      </trkpt>
      <trkpt lat="48.19557" lon="-3.25413">
        <ele>143</ele>
        <time>2021-08-10T09:33:49Z</time>
      </trkpt>
      <trkpt lat="48.19558" lon="-3.25419">
        <ele>143</ele>
        <time>2021-08-10T09:33:50Z</time>
      </trkpt>
      <trkpt lat="48.19559" lon="-3.25426">
        <ele>143</ele>
        <time>2021-08-10T09:33:51Z</time>
      </trkpt>
      <trkpt lat="48.1956" lon="-3.25432">
        <ele>143</ele>
        <time>2021-08-10T09:33:52Z</time>
      </trkpt>
      <trkpt lat="48.19561" lon="-3.25438">
        <ele>142.8</ele>
        <time>2021-08-10T09:33:53Z</time>
      </trkpt>
      <trkpt lat="48.19562" lon="-3.25445">
        <ele>142.8</ele>
        <time>2021-08-10T09:33:54Z</time>
      </trkpt>
      <trkpt lat="48.19563" lon="-3.25451">
        <ele>142.8</ele>
        <time>2021-08-10T09:33:55Z</time>
      </trkpt>
      <trkpt lat="48.19564" lon="-3.25458">
        <ele>142.8</ele>
        <time>2021-08-10T09:33:56Z</time>
      </trkpt>
      <trkpt lat="48.19566" lon="-3.25464">
        <ele>142.8</ele>
        <time>2021-08-10T09:33:57Z</time>
      </trkpt>
      <trkpt lat="48.19567" lon="-3.2547">
        <ele>142.8</ele>
        <time>2021-08-10T09:33:58Z</time>
      </trkpt>
      <trkpt lat="48.19568" lon="-3.25477">
        <ele>142.8</ele>
        <time>2021-08-10T09:33:59Z</time>
      </trkpt>
      <trkpt lat="48.19569" lon="-3.25483">
        <ele>142.8</ele>
        <time>2021-08-10T09:34:00Z</time>
      </trkpt>
      <trkpt lat="48.19571" lon="-3.2549">
        <ele>142.8</ele>
        <time>2021-08-10T09:34:01Z</time>
      </trkpt>
      <trkpt lat="48.19572" lon="-3.25496">
        <ele>142.8</ele>
        <time>2021-08-10T09:34:02Z</time>
      </trkpt>
      <trkpt lat="48.19573" lon="-3.25502">
        <ele>142.8</ele>
        <time>2021-08-10T09:34:03Z</time>
      </trkpt>
      <trkpt lat="48.19574" lon="-3.25509">
        <ele>142.8</ele>
        <time>2021-08-10T09:34:04Z</time>
      </trkpt>
      <trkpt lat="48.19575" lon="-3.25514">
        <ele>142.8</ele>
        <time>2021-08-10T09:34:05Z</time>
      </trkpt>
      <trkpt lat="48.19576" lon="-3.2552">
        <ele>142.8</ele>
        <time>2021-08-10T09:34:06Z</time>
      </trkpt>
      <trkpt lat="48.19577" lon="-3.25527">
        <ele>142.8</ele>
        <time>2021-08-10T09:34:07Z</time>
      </trkpt>
      <trkpt lat="48.19578" lon="-3.25533">
        <ele>142.8</ele>
        <time>2021-08-10T09:34:08Z</time>
      </trkpt>
      <trkpt lat="48.19579" lon="-3.25539">
        <ele>142.8</ele>
        <time>2021-08-10T09:34:09Z</time>
      </trkpt>
      <trkpt lat="48.1958" lon="-3.25545">
        <ele>142.6</ele>
        <time>2021-08-10T09:34:10Z</time>
      </trkpt>
      <trkpt lat="48.19581" lon="-3.25551">
        <ele>142.6</ele>
        <time>2021-08-10T09:34:11Z</time>
      </trkpt>
      <trkpt lat="48.19583" lon="-3.25558">
        <ele>142.6</ele>
        <time>2021-08-10T09:34:12Z</time>
      </trkpt>
      <trkpt lat="48.19584" lon="-3.25564">
        <ele>142.6</ele>
        <time>2021-08-10T09:34:13Z</time>
      </trkpt>
      <trkpt lat="48.19586" lon="-3.2557">
        <ele>142.6</ele>
        <time>2021-08-10T09:34:14Z</time>
      </trkpt>
      <trkpt lat="48.19587" lon="-3.25577">
        <ele>142.6</ele>
        <time>2021-08-10T09:34:15Z</time>
      </trkpt>
      <trkpt lat="48.19589" lon="-3.25583">
        <ele>142.6</ele>
        <time>2021-08-10T09:34:16Z</time>
      </trkpt>
      <trkpt lat="48.1959" lon="-3.2559">
        <ele>142.6</ele>
        <time>2021-08-10T09:34:17Z</time>
      </trkpt>
      <trkpt lat="48.19592" lon="-3.25597">
        <ele>142.6</ele>
        <time>2021-08-10T09:34:18Z</time>
      </trkpt>
      <trkpt lat="48.19593" lon="-3.25604">
        <ele>142.6</ele>
        <time>2021-08-10T09:34:19Z</time>
      </trkpt>
      <trkpt lat="48.19594" lon="-3.25612">
        <ele>142.6</ele>
        <time>2021-08-10T09:34:20Z</time>
      </trkpt>
      <trkpt lat="48.19596" lon="-3.25619">
        <ele>142.6</ele>
        <time>2021-08-10T09:34:21Z</time>
      </trkpt>
      <trkpt lat="48.19597" lon="-3.25626">
        <ele>142.6</ele>
        <time>2021-08-10T09:34:22Z</time>
      </trkpt>
      <trkpt lat="48.19598" lon="-3.25633">
        <ele>142.6</ele>
        <time>2021-08-10T09:34:23Z</time>
      </trkpt>
      <trkpt lat="48.19599" lon="-3.2564">
        <ele>142.4</ele>
        <time>2021-08-10T09:34:24Z</time>
      </trkpt>
      <trkpt lat="48.196" lon="-3.25647">
        <ele>142.4</ele>
        <time>2021-08-10T09:34:25Z</time>
      </trkpt>
      <trkpt lat="48.19601" lon="-3.25654">
        <ele>142.4</ele>
        <time>2021-08-10T09:34:26Z</time>
      </trkpt>
      <trkpt lat="48.19602" lon="-3.2566">
        <ele>142.4</ele>
        <time>2021-08-10T09:34:27Z</time>
      </trkpt>
      <trkpt lat="48.19603" lon="-3.25666">
        <ele>142.4</ele>
        <time>2021-08-10T09:34:28Z</time>
      </trkpt>
      <trkpt lat="48.19605" lon="-3.25672">
        <ele>142.6</ele>
        <time>2021-08-10T09:34:29Z</time>
      </trkpt>
      <trkpt lat="48.19606" lon="-3.25677">
        <ele>142.6</ele>
        <time>2021-08-10T09:34:30Z</time>
      </trkpt>
      <trkpt lat="48.19607" lon="-3.25682">
        <ele>142.6</ele>
        <time>2021-08-10T09:34:31Z</time>
      </trkpt>
      <trkpt lat="48.19608" lon="-3.25687">
        <ele>142.8</ele>
        <time>2021-08-10T09:34:32Z</time>
      </trkpt>
      <trkpt lat="48.19609" lon="-3.25692">
        <ele>143</ele>
        <time>2021-08-10T09:34:33Z</time>
      </trkpt>
      <trkpt lat="48.1961" lon="-3.25697">
        <ele>143.4</ele>
        <time>2021-08-10T09:34:34Z</time>
      </trkpt>
      <trkpt lat="48.19611" lon="-3.25702">
        <ele>143.6</ele>
        <time>2021-08-10T09:34:35Z</time>
      </trkpt>
      <trkpt lat="48.19612" lon="-3.25707">
        <ele>144</ele>
        <time>2021-08-10T09:34:36Z</time>
      </trkpt>
      <trkpt lat="48.19612" lon="-3.25712">
        <ele>144.2</ele>
        <time>2021-08-10T09:34:37Z</time>
      </trkpt>
      <trkpt lat="48.19613" lon="-3.25718">
        <ele>144.6</ele>
        <time>2021-08-10T09:34:38Z</time>
      </trkpt>
      <trkpt lat="48.19614" lon="-3.25723">
        <ele>144.8</ele>
        <time>2021-08-10T09:34:39Z</time>
      </trkpt>
      <trkpt lat="48.19616" lon="-3.25729">
        <ele>145</ele>
        <time>2021-08-10T09:34:40Z</time>
      </trkpt>
      <trkpt lat="48.19617" lon="-3.25734">
        <ele>145.2</ele>
        <time>2021-08-10T09:34:41Z</time>
      </trkpt>
      <trkpt lat="48.19618" lon="-3.2574">
        <ele>145.4</ele>
        <time>2021-08-10T09:34:42Z</time>
      </trkpt>
      <trkpt lat="48.19619" lon="-3.25746">
        <ele>145.4</ele>
        <time>2021-08-10T09:34:43Z</time>
      </trkpt>
      <trkpt lat="48.1962" lon="-3.25751">
        <ele>145.4</ele>
        <time>2021-08-10T09:34:44Z</time>
      </trkpt>
      <trkpt lat="48.19621" lon="-3.25757">
        <ele>145.6</ele>
        <time>2021-08-10T09:34:45Z</time>
      </trkpt>
      <trkpt lat="48.19621" lon="-3.25763">
        <ele>145.6</ele>
        <time>2021-08-10T09:34:46Z</time>
      </trkpt>
      <trkpt lat="48.19622" lon="-3.25769">
        <ele>145.4</ele>
        <time>2021-08-10T09:34:47Z</time>
      </trkpt>
      <trkpt lat="48.19623" lon="-3.25775">
        <ele>145.6</ele>
        <time>2021-08-10T09:34:48Z</time>
      </trkpt>
      <trkpt lat="48.19624" lon="-3.25781">
        <ele>145.6</ele>
        <time>2021-08-10T09:34:49Z</time>
      </trkpt>
      <trkpt lat="48.19625" lon="-3.25787">
        <ele>145.8</ele>
        <time>2021-08-10T09:34:50Z</time>
      </trkpt>
      <trkpt lat="48.19626" lon="-3.25792">
        <ele>145.8</ele>
        <time>2021-08-10T09:34:51Z</time>
      </trkpt>
      <trkpt lat="48.19626" lon="-3.25797">
        <ele>145.8</ele>
        <time>2021-08-10T09:34:52Z</time>
      </trkpt>
      <trkpt lat="48.19627" lon="-3.25802">
        <ele>145.8</ele>
        <time>2021-08-10T09:34:53Z</time>
      </trkpt>
      <trkpt lat="48.19627" lon="-3.25807">
        <ele>145.8</ele>
        <time>2021-08-10T09:34:54Z</time>
      </trkpt>
      <trkpt lat="48.19628" lon="-3.25813">
        <ele>146</ele>
        <time>2021-08-10T09:34:55Z</time>
      </trkpt>
      <trkpt lat="48.19628" lon="-3.25818">
        <ele>146</ele>
        <time>2021-08-10T09:34:56Z</time>
      </trkpt>
      <trkpt lat="48.19628" lon="-3.25824">
        <ele>146</ele>
        <time>2021-08-10T09:34:57Z</time>
      </trkpt>
      <trkpt lat="48.19627" lon="-3.2583">
        <ele>146</ele>
        <time>2021-08-10T09:34:58Z</time>
      </trkpt>
      <trkpt lat="48.19626" lon="-3.25836">
        <ele>146.2</ele>
        <time>2021-08-10T09:34:59Z</time>
      </trkpt>
      <trkpt lat="48.19625" lon="-3.25842">
        <ele>146.2</ele>
        <time>2021-08-10T09:35:00Z</time>
      </trkpt>
      <trkpt lat="48.19624" lon="-3.25848">
        <ele>146.2</ele>
        <time>2021-08-10T09:35:01Z</time>
      </trkpt>
      <trkpt lat="48.19621" lon="-3.25853">
        <ele>146.2</ele>
        <time>2021-08-10T09:35:02Z</time>
      </trkpt>
      <trkpt lat="48.19619" lon="-3.25858">
        <ele>146.2</ele>
        <time>2021-08-10T09:35:03Z</time>
      </trkpt>
      <trkpt lat="48.19616" lon="-3.25863">
        <ele>146</ele>
        <time>2021-08-10T09:35:04Z</time>
      </trkpt>
      <trkpt lat="48.19613" lon="-3.25867">
        <ele>146</ele>
        <time>2021-08-10T09:35:05Z</time>
      </trkpt>
      <trkpt lat="48.19609" lon="-3.25871">
        <ele>146</ele>
        <time>2021-08-10T09:35:06Z</time>
      </trkpt>
      <trkpt lat="48.19606" lon="-3.25875">
        <ele>146</ele>
        <time>2021-08-10T09:35:07Z</time>
      </trkpt>
      <trkpt lat="48.19603" lon="-3.25878">
        <ele>146.2</ele>
        <time>2021-08-10T09:35:08Z</time>
      </trkpt>
      <trkpt lat="48.19599" lon="-3.25881">
        <ele>146.2</ele>
        <time>2021-08-10T09:35:09Z</time>
      </trkpt>
      <trkpt lat="48.19596" lon="-3.25884">
        <ele>146.4</ele>
        <time>2021-08-10T09:35:10Z</time>
      </trkpt>
      <trkpt lat="48.19593" lon="-3.25886">
        <ele>146.4</ele>
        <time>2021-08-10T09:35:11Z</time>
      </trkpt>
      <trkpt lat="48.19591" lon="-3.25888">
        <ele>146.4</ele>
        <time>2021-08-10T09:35:12Z</time>
      </trkpt>
      <trkpt lat="48.19589" lon="-3.25891">
        <ele>146.4</ele>
        <time>2021-08-10T09:35:13Z</time>
      </trkpt>
      <trkpt lat="48.19586" lon="-3.25893">
        <ele>146.4</ele>
        <time>2021-08-10T09:35:14Z</time>
      </trkpt>
      <trkpt lat="48.19584" lon="-3.25895">
        <ele>146.6</ele>
        <time>2021-08-10T09:35:15Z</time>
      </trkpt>
      <trkpt lat="48.19582" lon="-3.25897">
        <ele>146.6</ele>
        <time>2021-08-10T09:35:16Z</time>
      </trkpt>
      <trkpt lat="48.1958" lon="-3.25899">
        <ele>146.6</ele>
        <time>2021-08-10T09:35:17Z</time>
      </trkpt>
      <trkpt lat="48.19578" lon="-3.25901">
        <ele>146.6</ele>
        <time>2021-08-10T09:35:18Z</time>
      </trkpt>
      <trkpt lat="48.19577" lon="-3.25902">
        <ele>147</ele>
        <time>2021-08-10T09:35:19Z</time>
      </trkpt>
      <trkpt lat="48.19575" lon="-3.25905">
        <ele>147.2</ele>
        <time>2021-08-10T09:35:20Z</time>
      </trkpt>
      <trkpt lat="48.19573" lon="-3.25907">
        <ele>147.6</ele>
        <time>2021-08-10T09:35:21Z</time>
      </trkpt>
      <trkpt lat="48.19571" lon="-3.25909">
        <ele>147.8</ele>
        <time>2021-08-10T09:35:22Z</time>
      </trkpt>
      <trkpt lat="48.1957" lon="-3.25911">
        <ele>148</ele>
        <time>2021-08-10T09:35:23Z</time>
      </trkpt>
      <trkpt lat="48.19568" lon="-3.25913">
        <ele>148.2</ele>
        <time>2021-08-10T09:35:24Z</time>
      </trkpt>
      <trkpt lat="48.19567" lon="-3.25914">
        <ele>148.4</ele>
        <time>2021-08-10T09:35:25Z</time>
      </trkpt>
      <trkpt lat="48.19565" lon="-3.25916">
        <ele>148.6</ele>
        <time>2021-08-10T09:35:26Z</time>
      </trkpt>
      <trkpt lat="48.19564" lon="-3.25918">
        <ele>148.8</ele>
        <time>2021-08-10T09:35:27Z</time>
      </trkpt>
      <trkpt lat="48.19562" lon="-3.25919">
        <ele>149</ele>
        <time>2021-08-10T09:35:28Z</time>
      </trkpt>
      <trkpt lat="48.1956" lon="-3.2592">
        <ele>149.2</ele>
        <time>2021-08-10T09:35:29Z</time>
      </trkpt>
      <trkpt lat="48.19558" lon="-3.25922">
        <ele>149.4</ele>
        <time>2021-08-10T09:35:30Z</time>
      </trkpt>
      <trkpt lat="48.19557" lon="-3.25924">
        <ele>149.6</ele>
        <time>2021-08-10T09:35:31Z</time>
      </trkpt>
      <trkpt lat="48.19555" lon="-3.25926">
        <ele>149.8</ele>
        <time>2021-08-10T09:35:32Z</time>
      </trkpt>
      <trkpt lat="48.19554" lon="-3.25928">
        <ele>150</ele>
        <time>2021-08-10T09:35:33Z</time>
      </trkpt>
      <trkpt lat="48.19552" lon="-3.2593">
        <ele>150.2</ele>
        <time>2021-08-10T09:35:34Z</time>
      </trkpt>
      <trkpt lat="48.1955" lon="-3.25931">
        <ele>150.6</ele>
        <time>2021-08-10T09:35:35Z</time>
      </trkpt>
      <trkpt lat="48.19548" lon="-3.25934">
        <ele>150.8</ele>
        <time>2021-08-10T09:35:36Z</time>
      </trkpt>
      <trkpt lat="48.19547" lon="-3.25936">
        <ele>151</ele>
        <time>2021-08-10T09:35:37Z</time>
      </trkpt>
      <trkpt lat="48.19544" lon="-3.25938">
        <ele>151.2</ele>
        <time>2021-08-10T09:35:38Z</time>
      </trkpt>
      <trkpt lat="48.19542" lon="-3.2594">
        <ele>151.2</ele>
        <time>2021-08-10T09:35:39Z</time>
      </trkpt>
      <trkpt lat="48.1954" lon="-3.25943">
        <ele>151.4</ele>
        <time>2021-08-10T09:35:40Z</time>
      </trkpt>
      <trkpt lat="48.19537" lon="-3.25945">
        <ele>151.6</ele>
        <time>2021-08-10T09:35:41Z</time>
      </trkpt>
      <trkpt lat="48.19535" lon="-3.25948">
        <ele>151.6</ele>
        <time>2021-08-10T09:35:42Z</time>
      </trkpt>
      <trkpt lat="48.19532" lon="-3.2595">
        <ele>151.6</ele>
        <time>2021-08-10T09:35:43Z</time>
      </trkpt>
      <trkpt lat="48.1953" lon="-3.25953">
        <ele>151.6</ele>
        <time>2021-08-10T09:35:44Z</time>
      </trkpt>
      <trkpt lat="48.19527" lon="-3.25956">
        <ele>151.8</ele>
        <time>2021-08-10T09:35:45Z</time>
      </trkpt>
      <trkpt lat="48.19524" lon="-3.25959">
        <ele>151.8</ele>
        <time>2021-08-10T09:35:46Z</time>
      </trkpt>
      <trkpt lat="48.19521" lon="-3.25962">
        <ele>151.8</ele>
        <time>2021-08-10T09:35:47Z</time>
      </trkpt>
      <trkpt lat="48.19519" lon="-3.25965">
        <ele>151.8</ele>
        <time>2021-08-10T09:35:48Z</time>
      </trkpt>
      <trkpt lat="48.19516" lon="-3.25967">
        <ele>151.8</ele>
        <time>2021-08-10T09:35:49Z</time>
      </trkpt>
      <trkpt lat="48.19513" lon="-3.2597">
        <ele>151.8</ele>
        <time>2021-08-10T09:35:50Z</time>
      </trkpt>
      <trkpt lat="48.19511" lon="-3.25973">
        <ele>151.8</ele>
        <time>2021-08-10T09:35:51Z</time>
      </trkpt>
      <trkpt lat="48.19508" lon="-3.25976">
        <ele>151.8</ele>
        <time>2021-08-10T09:35:52Z</time>
      </trkpt>
      <trkpt lat="48.19505" lon="-3.25979">
        <ele>151.8</ele>
        <time>2021-08-10T09:35:53Z</time>
      </trkpt>
      <trkpt lat="48.19502" lon="-3.25982">
        <ele>151.8</ele>
        <time>2021-08-10T09:35:54Z</time>
      </trkpt>
      <trkpt lat="48.19499" lon="-3.25984">
        <ele>151.8</ele>
        <time>2021-08-10T09:35:55Z</time>
      </trkpt>
      <trkpt lat="48.19496" lon="-3.25987">
        <ele>151.8</ele>
        <time>2021-08-10T09:35:56Z</time>
      </trkpt>
      <trkpt lat="48.19493" lon="-3.25991">
        <ele>151.8</ele>
        <time>2021-08-10T09:35:57Z</time>
      </trkpt>
      <trkpt lat="48.1949" lon="-3.25994">
        <ele>151.8</ele>
        <time>2021-08-10T09:35:58Z</time>
      </trkpt>
      <trkpt lat="48.19487" lon="-3.25998">
        <ele>151.8</ele>
        <time>2021-08-10T09:35:59Z</time>
      </trkpt>
      <trkpt lat="48.19483" lon="-3.26001">
        <ele>151.8</ele>
        <time>2021-08-10T09:36:00Z</time>
      </trkpt>
      <trkpt lat="48.1948" lon="-3.26004">
        <ele>151.8</ele>
        <time>2021-08-10T09:36:01Z</time>
      </trkpt>
      <trkpt lat="48.19476" lon="-3.26007">
        <ele>151.8</ele>
        <time>2021-08-10T09:36:02Z</time>
      </trkpt>
      <trkpt lat="48.19473" lon="-3.26011">
        <ele>151.8</ele>
        <time>2021-08-10T09:36:03Z</time>
      </trkpt>
      <trkpt lat="48.19469" lon="-3.26014">
        <ele>151.8</ele>
        <time>2021-08-10T09:36:04Z</time>
      </trkpt>
      <trkpt lat="48.19466" lon="-3.26017">
        <ele>151.8</ele>
        <time>2021-08-10T09:36:05Z</time>
      </trkpt>
      <trkpt lat="48.19462" lon="-3.26021">
        <ele>151.8</ele>
        <time>2021-08-10T09:36:06Z</time>
      </trkpt>
      <trkpt lat="48.19458" lon="-3.26024">
        <ele>151.8</ele>
        <time>2021-08-10T09:36:07Z</time>
      </trkpt>
      <trkpt lat="48.19454" lon="-3.26028">
        <ele>151.8</ele>
        <time>2021-08-10T09:36:08Z</time>
      </trkpt>
      <trkpt lat="48.1945" lon="-3.26032">
        <ele>151.8</ele>
        <time>2021-08-10T09:36:09Z</time>
      </trkpt>
      <trkpt lat="48.19446" lon="-3.26036">
        <ele>151.6</ele>
        <time>2021-08-10T09:36:10Z</time>
      </trkpt>
      <trkpt lat="48.19443" lon="-3.26041">
        <ele>151.6</ele>
        <time>2021-08-10T09:36:11Z</time>
      </trkpt>
      <trkpt lat="48.19441" lon="-3.26046">
        <ele>151.6</ele>
        <time>2021-08-10T09:36:12Z</time>
      </trkpt>
      <trkpt lat="48.19439" lon="-3.26052">
        <ele>151.6</ele>
        <time>2021-08-10T09:36:13Z</time>
      </trkpt>
      <trkpt lat="48.19437" lon="-3.26059">
        <ele>151.6</ele>
        <time>2021-08-10T09:36:14Z</time>
      </trkpt>
      <trkpt lat="48.19436" lon="-3.26065">
        <ele>151.6</ele>
        <time>2021-08-10T09:36:15Z</time>
      </trkpt>
      <trkpt lat="48.19435" lon="-3.26072">
        <ele>151.6</ele>
        <time>2021-08-10T09:36:16Z</time>
      </trkpt>
      <trkpt lat="48.19435" lon="-3.26078">
        <ele>151.6</ele>
        <time>2021-08-10T09:36:17Z</time>
      </trkpt>
      <trkpt lat="48.19435" lon="-3.26084">
        <ele>151.6</ele>
        <time>2021-08-10T09:36:18Z</time>
      </trkpt>
      <trkpt lat="48.19434" lon="-3.26091">
        <ele>151.6</ele>
        <time>2021-08-10T09:36:19Z</time>
      </trkpt>
      <trkpt lat="48.19434" lon="-3.26097">
        <ele>151.6</ele>
        <time>2021-08-10T09:36:20Z</time>
      </trkpt>
      <trkpt lat="48.19435" lon="-3.26103">
        <ele>151.4</ele>
        <time>2021-08-10T09:36:21Z</time>
      </trkpt>
      <trkpt lat="48.19436" lon="-3.26109">
        <ele>151.4</ele>
        <time>2021-08-10T09:36:22Z</time>
      </trkpt>
      <trkpt lat="48.19438" lon="-3.26114">
        <ele>151.4</ele>
        <time>2021-08-10T09:36:23Z</time>
      </trkpt>
      <trkpt lat="48.19441" lon="-3.26119">
        <ele>151.4</ele>
        <time>2021-08-10T09:36:24Z</time>
      </trkpt>
      <trkpt lat="48.19444" lon="-3.26124">
        <ele>151.4</ele>
        <time>2021-08-10T09:36:25Z</time>
      </trkpt>
      <trkpt lat="48.19447" lon="-3.26128">
        <ele>151.4</ele>
        <time>2021-08-10T09:36:26Z</time>
      </trkpt>
      <trkpt lat="48.1945" lon="-3.26132">
        <ele>151.4</ele>
        <time>2021-08-10T09:36:27Z</time>
      </trkpt>
      <trkpt lat="48.19454" lon="-3.26136">
        <ele>151.4</ele>
        <time>2021-08-10T09:36:28Z</time>
      </trkpt>
      <trkpt lat="48.19457" lon="-3.26139">
        <ele>151.4</ele>
        <time>2021-08-10T09:36:29Z</time>
      </trkpt>
      <trkpt lat="48.1946" lon="-3.26144">
        <ele>151.4</ele>
        <time>2021-08-10T09:36:30Z</time>
      </trkpt>
      <trkpt lat="48.19464" lon="-3.26147">
        <ele>151.4</ele>
        <time>2021-08-10T09:36:31Z</time>
      </trkpt>
      <trkpt lat="48.19467" lon="-3.26151">
        <ele>151.4</ele>
        <time>2021-08-10T09:36:32Z</time>
      </trkpt>
      <trkpt lat="48.19471" lon="-3.26155">
        <ele>151.4</ele>
        <time>2021-08-10T09:36:33Z</time>
      </trkpt>
      <trkpt lat="48.19474" lon="-3.26159">
        <ele>151.4</ele>
        <time>2021-08-10T09:36:34Z</time>
      </trkpt>
      <trkpt lat="48.19477" lon="-3.26162">
        <ele>151.4</ele>
        <time>2021-08-10T09:36:35Z</time>
      </trkpt>
      <trkpt lat="48.19481" lon="-3.26164">
        <ele>151.6</ele>
        <time>2021-08-10T09:36:36Z</time>
      </trkpt>
      <trkpt lat="48.19484" lon="-3.26167">
        <ele>151.4</ele>
        <time>2021-08-10T09:36:37Z</time>
      </trkpt>
      <trkpt lat="48.19487" lon="-3.2617">
        <ele>151.4</ele>
        <time>2021-08-10T09:36:38Z</time>
      </trkpt>
      <trkpt lat="48.1949" lon="-3.26173">
        <ele>151.4</ele>
        <time>2021-08-10T09:36:39Z</time>
      </trkpt>
      <trkpt lat="48.19493" lon="-3.26176">
        <ele>151.4</ele>
        <time>2021-08-10T09:36:40Z</time>
      </trkpt>
      <trkpt lat="48.19497" lon="-3.26179">
        <ele>151.6</ele>
        <time>2021-08-10T09:36:41Z</time>
      </trkpt>
      <trkpt lat="48.195" lon="-3.26182">
        <ele>151.8</ele>
        <time>2021-08-10T09:36:42Z</time>
      </trkpt>
      <trkpt lat="48.19503" lon="-3.26185">
        <ele>152</ele>
        <time>2021-08-10T09:36:43Z</time>
      </trkpt>
      <trkpt lat="48.19507" lon="-3.26189">
        <ele>152</ele>
        <time>2021-08-10T09:36:44Z</time>
      </trkpt>
      <trkpt lat="48.1951" lon="-3.26192">
        <ele>152</ele>
        <time>2021-08-10T09:36:45Z</time>
      </trkpt>
      <trkpt lat="48.19513" lon="-3.26195">
        <ele>152</ele>
        <time>2021-08-10T09:36:46Z</time>
      </trkpt>
      <trkpt lat="48.19516" lon="-3.26197">
        <ele>152.2</ele>
        <time>2021-08-10T09:36:47Z</time>
      </trkpt>
      <trkpt lat="48.19519" lon="-3.26201">
        <ele>152.2</ele>
        <time>2021-08-10T09:36:48Z</time>
      </trkpt>
      <trkpt lat="48.19522" lon="-3.26205">
        <ele>152.2</ele>
        <time>2021-08-10T09:36:49Z</time>
      </trkpt>
      <trkpt lat="48.19526" lon="-3.26209">
        <ele>152.2</ele>
        <time>2021-08-10T09:36:50Z</time>
      </trkpt>
      <trkpt lat="48.19529" lon="-3.26213">
        <ele>152.2</ele>
        <time>2021-08-10T09:36:51Z</time>
      </trkpt>
      <trkpt lat="48.19533" lon="-3.26217">
        <ele>152.2</ele>
        <time>2021-08-10T09:36:52Z</time>
      </trkpt>
      <trkpt lat="48.19536" lon="-3.26221">
        <ele>152.2</ele>
        <time>2021-08-10T09:36:53Z</time>
      </trkpt>
      <trkpt lat="48.1954" lon="-3.26225">
        <ele>152.2</ele>
        <time>2021-08-10T09:36:54Z</time>
      </trkpt>
      <trkpt lat="48.19542" lon="-3.2623">
        <ele>152.2</ele>
        <time>2021-08-10T09:36:55Z</time>
      </trkpt>
      <trkpt lat="48.19545" lon="-3.26234">
        <ele>152.2</ele>
        <time>2021-08-10T09:36:56Z</time>
      </trkpt>
      <trkpt lat="48.19548" lon="-3.26239">
        <ele>152.2</ele>
        <time>2021-08-10T09:36:57Z</time>
      </trkpt>
      <trkpt lat="48.19551" lon="-3.26244">
        <ele>152.2</ele>
        <time>2021-08-10T09:36:58Z</time>
      </trkpt>
      <trkpt lat="48.19554" lon="-3.26249">
        <ele>152.2</ele>
        <time>2021-08-10T09:36:59Z</time>
      </trkpt>
      <trkpt lat="48.19556" lon="-3.26255">
        <ele>152.2</ele>
        <time>2021-08-10T09:37:00Z</time>
      </trkpt>
      <trkpt lat="48.19559" lon="-3.26261">
        <ele>152.2</ele>
        <time>2021-08-10T09:37:01Z</time>
      </trkpt>
      <trkpt lat="48.19561" lon="-3.26266">
        <ele>152</ele>
        <time>2021-08-10T09:37:02Z</time>
      </trkpt>
      <trkpt lat="48.19563" lon="-3.26271">
        <ele>152</ele>
        <time>2021-08-10T09:37:03Z</time>
      </trkpt>
      <trkpt lat="48.19566" lon="-3.26275">
        <ele>152</ele>
        <time>2021-08-10T09:37:04Z</time>
      </trkpt>
      <trkpt lat="48.19568" lon="-3.2628">
        <ele>152</ele>
        <time>2021-08-10T09:37:05Z</time>
      </trkpt>
      <trkpt lat="48.1957" lon="-3.26285">
        <ele>152.2</ele>
        <time>2021-08-10T09:37:06Z</time>
      </trkpt>
      <trkpt lat="48.19572" lon="-3.2629">
        <ele>152.2</ele>
        <time>2021-08-10T09:37:07Z</time>
      </trkpt>
      <trkpt lat="48.19574" lon="-3.26295">
        <ele>152.2</ele>
        <time>2021-08-10T09:37:08Z</time>
      </trkpt>
      <trkpt lat="48.19575" lon="-3.26301">
        <ele>152.2</ele>
        <time>2021-08-10T09:37:09Z</time>
      </trkpt>
      <trkpt lat="48.19577" lon="-3.26308">
        <ele>152.2</ele>
        <time>2021-08-10T09:37:10Z</time>
      </trkpt>
      <trkpt lat="48.19579" lon="-3.26315">
        <ele>152.2</ele>
        <time>2021-08-10T09:37:11Z</time>
      </trkpt>
      <trkpt lat="48.1958" lon="-3.26322">
        <ele>152.2</ele>
        <time>2021-08-10T09:37:12Z</time>
      </trkpt>
      <trkpt lat="48.19581" lon="-3.26329">
        <ele>152.2</ele>
        <time>2021-08-10T09:37:13Z</time>
      </trkpt>
      <trkpt lat="48.19582" lon="-3.26337">
        <ele>152.2</ele>
        <time>2021-08-10T09:37:14Z</time>
      </trkpt>
      <trkpt lat="48.19583" lon="-3.26345">
        <ele>152.2</ele>
        <time>2021-08-10T09:37:15Z</time>
      </trkpt>
      <trkpt lat="48.19584" lon="-3.26352">
        <ele>152.2</ele>
        <time>2021-08-10T09:37:16Z</time>
      </trkpt>
      <trkpt lat="48.19584" lon="-3.26359">
        <ele>152.2</ele>
        <time>2021-08-10T09:37:17Z</time>
      </trkpt>
      <trkpt lat="48.19585" lon="-3.26366">
        <ele>152.2</ele>
        <time>2021-08-10T09:37:18Z</time>
      </trkpt>
      <trkpt lat="48.19586" lon="-3.26372">
        <ele>152.2</ele>
        <time>2021-08-10T09:37:19Z</time>
      </trkpt>
      <trkpt lat="48.19586" lon="-3.26379">
        <ele>152.2</ele>
        <time>2021-08-10T09:37:20Z</time>
      </trkpt>
      <trkpt lat="48.19587" lon="-3.26385">
        <ele>152.4</ele>
        <time>2021-08-10T09:37:21Z</time>
      </trkpt>
      <trkpt lat="48.19588" lon="-3.26392">
        <ele>152.4</ele>
        <time>2021-08-10T09:37:22Z</time>
      </trkpt>
      <trkpt lat="48.1959" lon="-3.26398">
        <ele>152.4</ele>
        <time>2021-08-10T09:37:23Z</time>
      </trkpt>
      <trkpt lat="48.1959" lon="-3.26405">
        <ele>152.4</ele>
        <time>2021-08-10T09:37:24Z</time>
      </trkpt>
      <trkpt lat="48.19591" lon="-3.26411">
        <ele>152.4</ele>
        <time>2021-08-10T09:37:25Z</time>
      </trkpt>
      <trkpt lat="48.19592" lon="-3.26417">
        <ele>152.4</ele>
        <time>2021-08-10T09:37:26Z</time>
      </trkpt>
      <trkpt lat="48.19593" lon="-3.26423">
        <ele>152.4</ele>
        <time>2021-08-10T09:37:27Z</time>
      </trkpt>
      <trkpt lat="48.19594" lon="-3.26429">
        <ele>152.4</ele>
        <time>2021-08-10T09:37:28Z</time>
      </trkpt>
      <trkpt lat="48.19594" lon="-3.26435">
        <ele>152.4</ele>
        <time>2021-08-10T09:37:29Z</time>
      </trkpt>
      <trkpt lat="48.19595" lon="-3.26442">
        <ele>152.4</ele>
        <time>2021-08-10T09:37:30Z</time>
      </trkpt>
      <trkpt lat="48.19595" lon="-3.2645">
        <ele>152.4</ele>
        <time>2021-08-10T09:37:31Z</time>
      </trkpt>
      <trkpt lat="48.19596" lon="-3.26458">
        <ele>152.4</ele>
        <time>2021-08-10T09:37:32Z</time>
      </trkpt>
      <trkpt lat="48.19596" lon="-3.26466">
        <ele>152.2</ele>
        <time>2021-08-10T09:37:33Z</time>
      </trkpt>
      <trkpt lat="48.19597" lon="-3.26473">
        <ele>152.2</ele>
        <time>2021-08-10T09:37:34Z</time>
      </trkpt>
      <trkpt lat="48.19598" lon="-3.26481">
        <ele>152.2</ele>
        <time>2021-08-10T09:37:35Z</time>
      </trkpt>
      <trkpt lat="48.19598" lon="-3.26488">
        <ele>152.2</ele>
        <time>2021-08-10T09:37:36Z</time>
      </trkpt>
      <trkpt lat="48.19599" lon="-3.26496">
        <ele>152.2</ele>
        <time>2021-08-10T09:37:37Z</time>
      </trkpt>
      <trkpt lat="48.19599" lon="-3.26503">
        <ele>152.2</ele>
        <time>2021-08-10T09:37:38Z</time>
      </trkpt>
      <trkpt lat="48.196" lon="-3.26509">
        <ele>152.2</ele>
        <time>2021-08-10T09:37:39Z</time>
      </trkpt>
      <trkpt lat="48.19601" lon="-3.26515">
        <ele>152.2</ele>
        <time>2021-08-10T09:37:40Z</time>
      </trkpt>
      <trkpt lat="48.19602" lon="-3.26521">
        <ele>152.2</ele>
        <time>2021-08-10T09:37:41Z</time>
      </trkpt>
      <trkpt lat="48.19603" lon="-3.26527">
        <ele>152.2</ele>
        <time>2021-08-10T09:37:42Z</time>
      </trkpt>
      <trkpt lat="48.19603" lon="-3.26533">
        <ele>152.2</ele>
        <time>2021-08-10T09:37:43Z</time>
      </trkpt>
      <trkpt lat="48.19604" lon="-3.26539">
        <ele>152.2</ele>
        <time>2021-08-10T09:37:44Z</time>
      </trkpt>
      <trkpt lat="48.19605" lon="-3.26545">
        <ele>152.2</ele>
        <time>2021-08-10T09:37:45Z</time>
      </trkpt>
      <trkpt lat="48.19606" lon="-3.2655">
        <ele>152.4</ele>
        <time>2021-08-10T09:37:46Z</time>
      </trkpt>
      <trkpt lat="48.19608" lon="-3.26556">
        <ele>152.4</ele>
        <time>2021-08-10T09:37:47Z</time>
      </trkpt>
      <trkpt lat="48.19608" lon="-3.26562">
        <ele>152.4</ele>
        <time>2021-08-10T09:37:48Z</time>
      </trkpt>
      <trkpt lat="48.19609" lon="-3.26568">
        <ele>152.4</ele>
        <time>2021-08-10T09:37:49Z</time>
      </trkpt>
      <trkpt lat="48.1961" lon="-3.26573">
        <ele>152.6</ele>
        <time>2021-08-10T09:37:50Z</time>
      </trkpt>
      <trkpt lat="48.19611" lon="-3.26579">
        <ele>152.6</ele>
        <time>2021-08-10T09:37:51Z</time>
      </trkpt>
      <trkpt lat="48.19612" lon="-3.26586">
        <ele>152.6</ele>
        <time>2021-08-10T09:37:52Z</time>
      </trkpt>
      <trkpt lat="48.19613" lon="-3.26592">
        <ele>152.6</ele>
        <time>2021-08-10T09:37:53Z</time>
      </trkpt>
      <trkpt lat="48.19615" lon="-3.26599">
        <ele>152.6</ele>
        <time>2021-08-10T09:37:54Z</time>
      </trkpt>
      <trkpt lat="48.19616" lon="-3.26606">
        <ele>152.6</ele>
        <time>2021-08-10T09:37:55Z</time>
      </trkpt>
      <trkpt lat="48.19618" lon="-3.26613">
        <ele>152.6</ele>
        <time>2021-08-10T09:37:56Z</time>
      </trkpt>
      <trkpt lat="48.19619" lon="-3.2662">
        <ele>152.6</ele>
        <time>2021-08-10T09:37:57Z</time>
      </trkpt>
      <trkpt lat="48.19621" lon="-3.26627">
        <ele>152.6</ele>
        <time>2021-08-10T09:37:58Z</time>
      </trkpt>
      <trkpt lat="48.19622" lon="-3.26634">
        <ele>152.4</ele>
        <time>2021-08-10T09:37:59Z</time>
      </trkpt>
      <trkpt lat="48.19624" lon="-3.2664">
        <ele>152.4</ele>
        <time>2021-08-10T09:38:00Z</time>
      </trkpt>
      <trkpt lat="48.19626" lon="-3.26647">
        <ele>152.4</ele>
        <time>2021-08-10T09:38:01Z</time>
      </trkpt>
      <trkpt lat="48.19627" lon="-3.26654">
        <ele>152.4</ele>
        <time>2021-08-10T09:38:02Z</time>
      </trkpt>
      <trkpt lat="48.19629" lon="-3.26661">
        <ele>152.4</ele>
        <time>2021-08-10T09:38:03Z</time>
      </trkpt>
      <trkpt lat="48.1963" lon="-3.26668">
        <ele>152.4</ele>
        <time>2021-08-10T09:38:04Z</time>
      </trkpt>
      <trkpt lat="48.19632" lon="-3.26675">
        <ele>152.6</ele>
        <time>2021-08-10T09:38:05Z</time>
      </trkpt>
      <trkpt lat="48.19634" lon="-3.26682">
        <ele>152.6</ele>
        <time>2021-08-10T09:38:06Z</time>
      </trkpt>
      <trkpt lat="48.19635" lon="-3.26688">
        <ele>152.6</ele>
        <time>2021-08-10T09:38:07Z</time>
      </trkpt>
      <trkpt lat="48.19637" lon="-3.26695">
        <ele>152.8</ele>
        <time>2021-08-10T09:38:08Z</time>
      </trkpt>
      <trkpt lat="48.19639" lon="-3.26702">
        <ele>152.6</ele>
        <time>2021-08-10T09:38:09Z</time>
      </trkpt>
      <trkpt lat="48.1964" lon="-3.26708">
        <ele>152.6</ele>
        <time>2021-08-10T09:38:10Z</time>
      </trkpt>
      <trkpt lat="48.19642" lon="-3.26714">
        <ele>152.6</ele>
        <time>2021-08-10T09:38:11Z</time>
      </trkpt>
      <trkpt lat="48.19643" lon="-3.2672">
        <ele>152.6</ele>
        <time>2021-08-10T09:38:12Z</time>
      </trkpt>
      <trkpt lat="48.19644" lon="-3.26726">
        <ele>152.6</ele>
        <time>2021-08-10T09:38:13Z</time>
      </trkpt>
      <trkpt lat="48.19645" lon="-3.26732">
        <ele>152.6</ele>
        <time>2021-08-10T09:38:14Z</time>
      </trkpt>
      <trkpt lat="48.19647" lon="-3.26737">
        <ele>152.8</ele>
        <time>2021-08-10T09:38:15Z</time>
      </trkpt>
      <trkpt lat="48.19648" lon="-3.26743">
        <ele>152.8</ele>
        <time>2021-08-10T09:38:16Z</time>
      </trkpt>
      <trkpt lat="48.19649" lon="-3.26749">
        <ele>152.8</ele>
        <time>2021-08-10T09:38:17Z</time>
      </trkpt>
      <trkpt lat="48.1965" lon="-3.26754">
        <ele>152.8</ele>
        <time>2021-08-10T09:38:18Z</time>
      </trkpt>
      <trkpt lat="48.19651" lon="-3.26759">
        <ele>152.8</ele>
        <time>2021-08-10T09:38:19Z</time>
      </trkpt>
      <trkpt lat="48.19652" lon="-3.26763">
        <ele>152.8</ele>
        <time>2021-08-10T09:38:20Z</time>
      </trkpt>
      <trkpt lat="48.19653" lon="-3.26768">
        <ele>152.8</ele>
        <time>2021-08-10T09:38:21Z</time>
      </trkpt>
      <trkpt lat="48.19654" lon="-3.26773">
        <ele>152.8</ele>
        <time>2021-08-10T09:38:22Z</time>
      </trkpt>
      <trkpt lat="48.19656" lon="-3.26777">
        <ele>152.8</ele>
        <time>2021-08-10T09:38:23Z</time>
      </trkpt>
      <trkpt lat="48.19657" lon="-3.26781">
        <ele>152.8</ele>
        <time>2021-08-10T09:38:24Z</time>
      </trkpt>
      <trkpt lat="48.19658" lon="-3.26784">
        <ele>152.8</ele>
        <time>2021-08-10T09:38:25Z</time>
      </trkpt>
      <trkpt lat="48.19658" lon="-3.26787">
        <ele>152.8</ele>
        <time>2021-08-10T09:38:26Z</time>
      </trkpt>
      <trkpt lat="48.19659" lon="-3.26791">
        <ele>152.8</ele>
        <time>2021-08-10T09:38:27Z</time>
      </trkpt>
      <trkpt lat="48.19661" lon="-3.26794">
        <ele>152.8</ele>
        <time>2021-08-10T09:38:28Z</time>
      </trkpt>
      <trkpt lat="48.19662" lon="-3.26798">
        <ele>152.8</ele>
        <time>2021-08-10T09:38:29Z</time>
      </trkpt>
      <trkpt lat="48.19663" lon="-3.26803">
        <ele>153</ele>
        <time>2021-08-10T09:38:30Z</time>
      </trkpt>
      <trkpt lat="48.19664" lon="-3.26808">
        <ele>153.2</ele>
        <time>2021-08-10T09:38:31Z</time>
      </trkpt>
      <trkpt lat="48.19665" lon="-3.26814">
        <ele>153.4</ele>
        <time>2021-08-10T09:38:32Z</time>
      </trkpt>
      <trkpt lat="48.19666" lon="-3.26819">
        <ele>153.4</ele>
        <time>2021-08-10T09:38:33Z</time>
      </trkpt>
      <trkpt lat="48.19668" lon="-3.26825">
        <ele>153.6</ele>
        <time>2021-08-10T09:38:34Z</time>
      </trkpt>
      <trkpt lat="48.19669" lon="-3.26831">
        <ele>154</ele>
        <time>2021-08-10T09:38:35Z</time>
      </trkpt>
      <trkpt lat="48.19671" lon="-3.26837">
        <ele>154</ele>
        <time>2021-08-10T09:38:36Z</time>
      </trkpt>
      <trkpt lat="48.19672" lon="-3.26843">
        <ele>154</ele>
        <time>2021-08-10T09:38:37Z</time>
      </trkpt>
      <trkpt lat="48.19673" lon="-3.26849">
        <ele>154</ele>
        <time>2021-08-10T09:38:38Z</time>
      </trkpt>
      <trkpt lat="48.19675" lon="-3.26855">
        <ele>154.2</ele>
        <time>2021-08-10T09:38:39Z</time>
      </trkpt>
      <trkpt lat="48.19677" lon="-3.26861">
        <ele>154.2</ele>
        <time>2021-08-10T09:38:40Z</time>
      </trkpt>
      <trkpt lat="48.19678" lon="-3.26867">
        <ele>154.2</ele>
        <time>2021-08-10T09:38:41Z</time>
      </trkpt>
      <trkpt lat="48.1968" lon="-3.26872">
        <ele>154.2</ele>
        <time>2021-08-10T09:38:42Z</time>
      </trkpt>
      <trkpt lat="48.19681" lon="-3.26878">
        <ele>154.2</ele>
        <time>2021-08-10T09:38:43Z</time>
      </trkpt>
      <trkpt lat="48.19683" lon="-3.26883">
        <ele>154.2</ele>
        <time>2021-08-10T09:38:44Z</time>
      </trkpt>
      <trkpt lat="48.19684" lon="-3.26888">
        <ele>154.2</ele>
        <time>2021-08-10T09:38:45Z</time>
      </trkpt>
      <trkpt lat="48.19686" lon="-3.26893">
        <ele>154.2</ele>
        <time>2021-08-10T09:38:46Z</time>
      </trkpt>
      <trkpt lat="48.19687" lon="-3.26899">
        <ele>154.2</ele>
        <time>2021-08-10T09:38:47Z</time>
      </trkpt>
      <trkpt lat="48.19689" lon="-3.26904">
        <ele>154.2</ele>
        <time>2021-08-10T09:38:48Z</time>
      </trkpt>
      <trkpt lat="48.1969" lon="-3.26908">
        <ele>154.2</ele>
        <time>2021-08-10T09:38:49Z</time>
      </trkpt>
      <trkpt lat="48.19691" lon="-3.26913">
        <ele>154.2</ele>
        <time>2021-08-10T09:38:50Z</time>
      </trkpt>
      <trkpt lat="48.19693" lon="-3.26917">
        <ele>154.2</ele>
        <time>2021-08-10T09:38:51Z</time>
      </trkpt>
      <trkpt lat="48.19694" lon="-3.26921">
        <ele>154.2</ele>
        <time>2021-08-10T09:38:52Z</time>
      </trkpt>
      <trkpt lat="48.19696" lon="-3.26926">
        <ele>154.2</ele>
        <time>2021-08-10T09:38:53Z</time>
      </trkpt>
      <trkpt lat="48.19697" lon="-3.26931">
        <ele>154.2</ele>
        <time>2021-08-10T09:38:54Z</time>
      </trkpt>
      <trkpt lat="48.19697" lon="-3.26936">
        <ele>154.2</ele>
        <time>2021-08-10T09:38:55Z</time>
      </trkpt>
      <trkpt lat="48.19698" lon="-3.26941">
        <ele>154.2</ele>
        <time>2021-08-10T09:38:56Z</time>
      </trkpt>
      <trkpt lat="48.19699" lon="-3.26945">
        <ele>154.2</ele>
        <time>2021-08-10T09:38:57Z</time>
      </trkpt>
      <trkpt lat="48.19699" lon="-3.26949">
        <ele>154.2</ele>
        <time>2021-08-10T09:38:58Z</time>
      </trkpt>
      <trkpt lat="48.197" lon="-3.26952">
        <ele>154.2</ele>
        <time>2021-08-10T09:38:59Z</time>
      </trkpt>
      <trkpt lat="48.19701" lon="-3.26956">
        <ele>154.2</ele>
        <time>2021-08-10T09:39:00Z</time>
      </trkpt>
      <trkpt lat="48.19701" lon="-3.26961">
        <ele>154.6</ele>
        <time>2021-08-10T09:39:01Z</time>
      </trkpt>
      <trkpt lat="48.19701" lon="-3.26966">
        <ele>154.6</ele>
        <time>2021-08-10T09:39:02Z</time>
      </trkpt>
      <trkpt lat="48.197" lon="-3.26972">
        <ele>154.6</ele>
        <time>2021-08-10T09:39:03Z</time>
      </trkpt>
      <trkpt lat="48.19699" lon="-3.26979">
        <ele>154.4</ele>
        <time>2021-08-10T09:39:04Z</time>
      </trkpt>
      <trkpt lat="48.19698" lon="-3.26986">
        <ele>154.4</ele>
        <time>2021-08-10T09:39:05Z</time>
      </trkpt>
      <trkpt lat="48.19696" lon="-3.26992">
        <ele>154.4</ele>
        <time>2021-08-10T09:39:06Z</time>
      </trkpt>
      <trkpt lat="48.19695" lon="-3.26998">
        <ele>154.4</ele>
        <time>2021-08-10T09:39:07Z</time>
      </trkpt>
      <trkpt lat="48.19693" lon="-3.27004">
        <ele>154.4</ele>
        <time>2021-08-10T09:39:08Z</time>
      </trkpt>
      <trkpt lat="48.19692" lon="-3.2701">
        <ele>154.4</ele>
        <time>2021-08-10T09:39:09Z</time>
      </trkpt>
      <trkpt lat="48.19691" lon="-3.27016">
        <ele>154.4</ele>
        <time>2021-08-10T09:39:10Z</time>
      </trkpt>
      <trkpt lat="48.19689" lon="-3.27023">
        <ele>154.4</ele>
        <time>2021-08-10T09:39:11Z</time>
      </trkpt>
      <trkpt lat="48.19687" lon="-3.2703">
        <ele>154.4</ele>
        <time>2021-08-10T09:39:12Z</time>
      </trkpt>
      <trkpt lat="48.19685" lon="-3.27037">
        <ele>154.4</ele>
        <time>2021-08-10T09:39:13Z</time>
      </trkpt>
      <trkpt lat="48.19684" lon="-3.27044">
        <ele>154.4</ele>
        <time>2021-08-10T09:39:14Z</time>
      </trkpt>
      <trkpt lat="48.19682" lon="-3.27051">
        <ele>154.4</ele>
        <time>2021-08-10T09:39:15Z</time>
      </trkpt>
      <trkpt lat="48.1968" lon="-3.27058">
        <ele>154.4</ele>
        <time>2021-08-10T09:39:16Z</time>
      </trkpt>
      <trkpt lat="48.19678" lon="-3.27066">
        <ele>154.4</ele>
        <time>2021-08-10T09:39:17Z</time>
      </trkpt>
      <trkpt lat="48.19677" lon="-3.27073">
        <ele>154.4</ele>
        <time>2021-08-10T09:39:18Z</time>
      </trkpt>
      <trkpt lat="48.19675" lon="-3.2708">
        <ele>154.4</ele>
        <time>2021-08-10T09:39:19Z</time>
      </trkpt>
      <trkpt lat="48.19674" lon="-3.27087">
        <ele>154.4</ele>
        <time>2021-08-10T09:39:20Z</time>
      </trkpt>
      <trkpt lat="48.19672" lon="-3.27094">
        <ele>154.4</ele>
        <time>2021-08-10T09:39:21Z</time>
      </trkpt>
      <trkpt lat="48.19671" lon="-3.27101">
        <ele>154.2</ele>
        <time>2021-08-10T09:39:22Z</time>
      </trkpt>
      <trkpt lat="48.19669" lon="-3.27107">
        <ele>154.2</ele>
        <time>2021-08-10T09:39:23Z</time>
      </trkpt>
      <trkpt lat="48.19668" lon="-3.27113">
        <ele>154.2</ele>
        <time>2021-08-10T09:39:24Z</time>
      </trkpt>
      <trkpt lat="48.19667" lon="-3.27118">
        <ele>154.2</ele>
        <time>2021-08-10T09:39:25Z</time>
      </trkpt>
      <trkpt lat="48.19666" lon="-3.27123">
        <ele>154.2</ele>
        <time>2021-08-10T09:39:26Z</time>
      </trkpt>
      <trkpt lat="48.19665" lon="-3.27129">
        <ele>154.2</ele>
        <time>2021-08-10T09:39:27Z</time>
      </trkpt>
      <trkpt lat="48.19663" lon="-3.27135">
        <ele>154.2</ele>
        <time>2021-08-10T09:39:28Z</time>
      </trkpt>
      <trkpt lat="48.19662" lon="-3.2714">
        <ele>154.2</ele>
        <time>2021-08-10T09:39:29Z</time>
      </trkpt>
      <trkpt lat="48.19661" lon="-3.27145">
        <ele>154.2</ele>
        <time>2021-08-10T09:39:30Z</time>
      </trkpt>
      <trkpt lat="48.1966" lon="-3.27151">
        <ele>154.2</ele>
        <time>2021-08-10T09:39:31Z</time>
      </trkpt>
      <trkpt lat="48.19658" lon="-3.27157">
        <ele>154.2</ele>
        <time>2021-08-10T09:39:32Z</time>
      </trkpt>
      <trkpt lat="48.19657" lon="-3.27164">
        <ele>154.2</ele>
        <time>2021-08-10T09:39:33Z</time>
      </trkpt>
      <trkpt lat="48.19657" lon="-3.27172">
        <ele>154.2</ele>
        <time>2021-08-10T09:39:34Z</time>
      </trkpt>
      <trkpt lat="48.19657" lon="-3.27179">
        <ele>154.2</ele>
        <time>2021-08-10T09:39:35Z</time>
      </trkpt>
      <trkpt lat="48.19657" lon="-3.27187">
        <ele>154.2</ele>
        <time>2021-08-10T09:39:36Z</time>
      </trkpt>
      <trkpt lat="48.19658" lon="-3.27195">
        <ele>154.2</ele>
        <time>2021-08-10T09:39:37Z</time>
      </trkpt>
      <trkpt lat="48.19659" lon="-3.27203">
        <ele>154.2</ele>
        <time>2021-08-10T09:39:38Z</time>
      </trkpt>
      <trkpt lat="48.19661" lon="-3.27209">
        <ele>154.2</ele>
        <time>2021-08-10T09:39:39Z</time>
      </trkpt>
      <trkpt lat="48.19662" lon="-3.27215">
        <ele>154.2</ele>
        <time>2021-08-10T09:39:40Z</time>
      </trkpt>
      <trkpt lat="48.19665" lon="-3.27221">
        <ele>154.4</ele>
        <time>2021-08-10T09:39:41Z</time>
      </trkpt>
      <trkpt lat="48.19667" lon="-3.27228">
        <ele>154.4</ele>
        <time>2021-08-10T09:39:42Z</time>
      </trkpt>
      <trkpt lat="48.1967" lon="-3.27233">
        <ele>154.4</ele>
        <time>2021-08-10T09:39:43Z</time>
      </trkpt>
      <trkpt lat="48.19672" lon="-3.27238">
        <ele>154.4</ele>
        <time>2021-08-10T09:39:44Z</time>
      </trkpt>
      <trkpt lat="48.19676" lon="-3.27242">
        <ele>154.4</ele>
        <time>2021-08-10T09:39:45Z</time>
      </trkpt>
      <trkpt lat="48.1968" lon="-3.27245">
        <ele>154.4</ele>
        <time>2021-08-10T09:39:46Z</time>
      </trkpt>
      <trkpt lat="48.19684" lon="-3.27249">
        <ele>154.4</ele>
        <time>2021-08-10T09:39:47Z</time>
      </trkpt>
      <trkpt lat="48.19689" lon="-3.27252">
        <ele>154.6</ele>
        <time>2021-08-10T09:39:48Z</time>
      </trkpt>
      <trkpt lat="48.19693" lon="-3.27255">
        <ele>154.6</ele>
        <time>2021-08-10T09:39:49Z</time>
      </trkpt>
      <trkpt lat="48.19697" lon="-3.27257">
        <ele>154.6</ele>
        <time>2021-08-10T09:39:50Z</time>
      </trkpt>
      <trkpt lat="48.19701" lon="-3.27258">
        <ele>154.6</ele>
        <time>2021-08-10T09:39:51Z</time>
      </trkpt>
      <trkpt lat="48.19706" lon="-3.27259">
        <ele>154.6</ele>
        <time>2021-08-10T09:39:52Z</time>
      </trkpt>
      <trkpt lat="48.1971" lon="-3.27259">
        <ele>154.6</ele>
        <time>2021-08-10T09:39:53Z</time>
      </trkpt>
      <trkpt lat="48.19715" lon="-3.27259">
        <ele>154.6</ele>
        <time>2021-08-10T09:39:54Z</time>
      </trkpt>
      <trkpt lat="48.19719" lon="-3.27258">
        <ele>154.6</ele>
        <time>2021-08-10T09:39:55Z</time>
      </trkpt>
      <trkpt lat="48.19723" lon="-3.27257">
        <ele>154.6</ele>
        <time>2021-08-10T09:39:56Z</time>
      </trkpt>
      <trkpt lat="48.19728" lon="-3.27255">
        <ele>154.4</ele>
        <time>2021-08-10T09:39:57Z</time>
      </trkpt>
      <trkpt lat="48.19732" lon="-3.27253">
        <ele>154.4</ele>
        <time>2021-08-10T09:39:58Z</time>
      </trkpt>
      <trkpt lat="48.19736" lon="-3.27251">
        <ele>154.4</ele>
        <time>2021-08-10T09:39:59Z</time>
      </trkpt>
      <trkpt lat="48.1974" lon="-3.27248">
        <ele>154.4</ele>
        <time>2021-08-10T09:40:00Z</time>
      </trkpt>
      <trkpt lat="48.19743" lon="-3.27245">
        <ele>154.4</ele>
        <time>2021-08-10T09:40:01Z</time>
      </trkpt>
      <trkpt lat="48.19746" lon="-3.27242">
        <ele>154.4</ele>
        <time>2021-08-10T09:40:02Z</time>
      </trkpt>
      <trkpt lat="48.19748" lon="-3.27239">
        <ele>154.4</ele>
        <time>2021-08-10T09:40:03Z</time>
      </trkpt>
      <trkpt lat="48.1975" lon="-3.27235">
        <ele>154.4</ele>
        <time>2021-08-10T09:40:04Z</time>
      </trkpt>
      <trkpt lat="48.19751" lon="-3.2723">
        <ele>154.4</ele>
        <time>2021-08-10T09:40:05Z</time>
      </trkpt>
      <trkpt lat="48.19753" lon="-3.27226">
        <ele>154.4</ele>
        <time>2021-08-10T09:40:06Z</time>
      </trkpt>
      <trkpt lat="48.19754" lon="-3.2722">
        <ele>154.4</ele>
        <time>2021-08-10T09:40:07Z</time>
      </trkpt>
      <trkpt lat="48.19756" lon="-3.27215">
        <ele>154.4</ele>
        <time>2021-08-10T09:40:08Z</time>
      </trkpt>
      <trkpt lat="48.19757" lon="-3.27211">
        <ele>154.4</ele>
        <time>2021-08-10T09:40:09Z</time>
      </trkpt>
      <trkpt lat="48.19759" lon="-3.27206">
        <ele>154.4</ele>
        <time>2021-08-10T09:40:10Z</time>
      </trkpt>
      <trkpt lat="48.19761" lon="-3.27201">
        <ele>154.4</ele>
        <time>2021-08-10T09:40:11Z</time>
      </trkpt>
      <trkpt lat="48.19762" lon="-3.27196">
        <ele>154.4</ele>
        <time>2021-08-10T09:40:12Z</time>
      </trkpt>
      <trkpt lat="48.19763" lon="-3.2719">
        <ele>154.4</ele>
        <time>2021-08-10T09:40:13Z</time>
      </trkpt>
      <trkpt lat="48.19765" lon="-3.27185">
        <ele>154.4</ele>
        <time>2021-08-10T09:40:14Z</time>
      </trkpt>
      <trkpt lat="48.19766" lon="-3.27179">
        <ele>154.4</ele>
        <time>2021-08-10T09:40:15Z</time>
      </trkpt>
      <trkpt lat="48.19768" lon="-3.27174">
        <ele>154.2</ele>
        <time>2021-08-10T09:40:16Z</time>
      </trkpt>
      <trkpt lat="48.1977" lon="-3.27168">
        <ele>154.2</ele>
        <time>2021-08-10T09:40:17Z</time>
      </trkpt>
      <trkpt lat="48.19771" lon="-3.27163">
        <ele>154.2</ele>
        <time>2021-08-10T09:40:18Z</time>
      </trkpt>
      <trkpt lat="48.19773" lon="-3.27159">
        <ele>154.2</ele>
        <time>2021-08-10T09:40:19Z</time>
      </trkpt>
      <trkpt lat="48.19774" lon="-3.27154">
        <ele>154.2</ele>
        <time>2021-08-10T09:40:20Z</time>
      </trkpt>
      <trkpt lat="48.19776" lon="-3.27149">
        <ele>154.2</ele>
        <time>2021-08-10T09:40:21Z</time>
      </trkpt>
      <trkpt lat="48.19778" lon="-3.27144">
        <ele>154.2</ele>
        <time>2021-08-10T09:40:22Z</time>
      </trkpt>
      <trkpt lat="48.19779" lon="-3.27138">
        <ele>154.2</ele>
        <time>2021-08-10T09:40:23Z</time>
      </trkpt>
      <trkpt lat="48.19781" lon="-3.27132">
        <ele>154.2</ele>
        <time>2021-08-10T09:40:24Z</time>
      </trkpt>
      <trkpt lat="48.19783" lon="-3.27127">
        <ele>154.2</ele>
        <time>2021-08-10T09:40:25Z</time>
      </trkpt>
      <trkpt lat="48.19785" lon="-3.27121">
        <ele>154.4</ele>
        <time>2021-08-10T09:40:26Z</time>
      </trkpt>
      <trkpt lat="48.19787" lon="-3.27115">
        <ele>154.4</ele>
        <time>2021-08-10T09:40:27Z</time>
      </trkpt>
      <trkpt lat="48.19789" lon="-3.27109">
        <ele>154.4</ele>
        <time>2021-08-10T09:40:28Z</time>
      </trkpt>
      <trkpt lat="48.19791" lon="-3.27104">
        <ele>154.4</ele>
        <time>2021-08-10T09:40:29Z</time>
      </trkpt>
      <trkpt lat="48.19793" lon="-3.271">
        <ele>154.4</ele>
        <time>2021-08-10T09:40:30Z</time>
      </trkpt>
      <trkpt lat="48.19795" lon="-3.27095">
        <ele>154.4</ele>
        <time>2021-08-10T09:40:31Z</time>
      </trkpt>
      <trkpt lat="48.19797" lon="-3.27091">
        <ele>154.4</ele>
        <time>2021-08-10T09:40:32Z</time>
      </trkpt>
      <trkpt lat="48.198" lon="-3.27087">
        <ele>154.4</ele>
        <time>2021-08-10T09:40:33Z</time>
      </trkpt>
      <trkpt lat="48.19802" lon="-3.27083">
        <ele>154.4</ele>
        <time>2021-08-10T09:40:34Z</time>
      </trkpt>
      <trkpt lat="48.19806" lon="-3.27078">
        <ele>154.4</ele>
        <time>2021-08-10T09:40:35Z</time>
      </trkpt>
      <trkpt lat="48.19809" lon="-3.27074">
        <ele>154.4</ele>
        <time>2021-08-10T09:40:36Z</time>
      </trkpt>
      <trkpt lat="48.19813" lon="-3.2707">
        <ele>154.4</ele>
        <time>2021-08-10T09:40:37Z</time>
      </trkpt>
      <trkpt lat="48.19817" lon="-3.27066">
        <ele>154.4</ele>
        <time>2021-08-10T09:40:38Z</time>
      </trkpt>
      <trkpt lat="48.19822" lon="-3.27062">
        <ele>154.4</ele>
        <time>2021-08-10T09:40:39Z</time>
      </trkpt>
      <trkpt lat="48.19827" lon="-3.27058">
        <ele>154.4</ele>
        <time>2021-08-10T09:40:40Z</time>
      </trkpt>
      <trkpt lat="48.19832" lon="-3.27054">
        <ele>154.4</ele>
        <time>2021-08-10T09:40:41Z</time>
      </trkpt>
      <trkpt lat="48.19837" lon="-3.2705">
        <ele>154.4</ele>
        <time>2021-08-10T09:40:42Z</time>
      </trkpt>
      <trkpt lat="48.19842" lon="-3.27047">
        <ele>154.4</ele>
        <time>2021-08-10T09:40:43Z</time>
      </trkpt>
      <trkpt lat="48.19847" lon="-3.27044">
        <ele>154.4</ele>
        <time>2021-08-10T09:40:44Z</time>
      </trkpt>
      <trkpt lat="48.19852" lon="-3.27041">
        <ele>154.4</ele>
        <time>2021-08-10T09:40:45Z</time>
      </trkpt>
      <trkpt lat="48.19858" lon="-3.27039">
        <ele>154.4</ele>
        <time>2021-08-10T09:40:46Z</time>
      </trkpt>
      <trkpt lat="48.19863" lon="-3.27037">
        <ele>154.4</ele>
        <time>2021-08-10T09:40:47Z</time>
      </trkpt>
      <trkpt lat="48.19869" lon="-3.27035">
        <ele>154.2</ele>
        <time>2021-08-10T09:40:48Z</time>
      </trkpt>
      <trkpt lat="48.19874" lon="-3.27033">
        <ele>154.4</ele>
        <time>2021-08-10T09:40:49Z</time>
      </trkpt>
      <trkpt lat="48.1988" lon="-3.27032">
        <ele>154.2</ele>
        <time>2021-08-10T09:40:50Z</time>
      </trkpt>
      <trkpt lat="48.19885" lon="-3.27031">
        <ele>154.2</ele>
        <time>2021-08-10T09:40:51Z</time>
      </trkpt>
      <trkpt lat="48.19891" lon="-3.2703">
        <ele>154.2</ele>
        <time>2021-08-10T09:40:52Z</time>
      </trkpt>
      <trkpt lat="48.19895" lon="-3.27029">
        <ele>154.4</ele>
        <time>2021-08-10T09:40:53Z</time>
      </trkpt>
      <trkpt lat="48.199" lon="-3.27028">
        <ele>154.4</ele>
        <time>2021-08-10T09:40:54Z</time>
      </trkpt>
      <trkpt lat="48.19905" lon="-3.27028">
        <ele>154.4</ele>
        <time>2021-08-10T09:40:55Z</time>
      </trkpt>
      <trkpt lat="48.1991" lon="-3.27028">
        <ele>154.2</ele>
        <time>2021-08-10T09:40:56Z</time>
      </trkpt>
      <trkpt lat="48.19914" lon="-3.27028">
        <ele>154.2</ele>
        <time>2021-08-10T09:40:57Z</time>
      </trkpt>
      <trkpt lat="48.19919" lon="-3.27028">
        <ele>154.2</ele>
        <time>2021-08-10T09:40:58Z</time>
      </trkpt>
      <trkpt lat="48.19923" lon="-3.27028">
        <ele>154.2</ele>
        <time>2021-08-10T09:40:59Z</time>
      </trkpt>
      <trkpt lat="48.19928" lon="-3.27029">
        <ele>154.2</ele>
        <time>2021-08-10T09:41:00Z</time>
      </trkpt>
      <trkpt lat="48.19932" lon="-3.27029">
        <ele>154.2</ele>
        <time>2021-08-10T09:41:01Z</time>
      </trkpt>
      <trkpt lat="48.19936" lon="-3.2703">
        <ele>154</ele>
        <time>2021-08-10T09:41:02Z</time>
      </trkpt>
      <trkpt lat="48.19941" lon="-3.27031">
        <ele>154</ele>
        <time>2021-08-10T09:41:03Z</time>
      </trkpt>
      <trkpt lat="48.19945" lon="-3.27032">
        <ele>154</ele>
        <time>2021-08-10T09:41:04Z</time>
      </trkpt>
      <trkpt lat="48.19949" lon="-3.27033">
        <ele>154</ele>
        <time>2021-08-10T09:41:05Z</time>
      </trkpt>
      <trkpt lat="48.19954" lon="-3.27034">
        <ele>154</ele>
        <time>2021-08-10T09:41:06Z</time>
      </trkpt>
      <trkpt lat="48.19959" lon="-3.27035">
        <ele>154</ele>
        <time>2021-08-10T09:41:07Z</time>
      </trkpt>
      <trkpt lat="48.19964" lon="-3.27037">
        <ele>153.8</ele>
        <time>2021-08-10T09:41:08Z</time>
      </trkpt>
      <trkpt lat="48.19969" lon="-3.27038">
        <ele>153.8</ele>
        <time>2021-08-10T09:41:09Z</time>
      </trkpt>
      <trkpt lat="48.19974" lon="-3.27039">
        <ele>153.8</ele>
        <time>2021-08-10T09:41:10Z</time>
      </trkpt>
      <trkpt lat="48.19979" lon="-3.2704">
        <ele>153.8</ele>
        <time>2021-08-10T09:41:11Z</time>
      </trkpt>
      <trkpt lat="48.19984" lon="-3.27041">
        <ele>153.8</ele>
        <time>2021-08-10T09:41:12Z</time>
      </trkpt>
      <trkpt lat="48.19989" lon="-3.27042">
        <ele>153.8</ele>
        <time>2021-08-10T09:41:13Z</time>
      </trkpt>
      <trkpt lat="48.19993" lon="-3.27044">
        <ele>153.8</ele>
        <time>2021-08-10T09:41:14Z</time>
      </trkpt>
      <trkpt lat="48.19998" lon="-3.27045">
        <ele>153.8</ele>
        <time>2021-08-10T09:41:15Z</time>
      </trkpt>
      <trkpt lat="48.20003" lon="-3.27047">
        <ele>153.8</ele>
        <time>2021-08-10T09:41:16Z</time>
      </trkpt>
      <trkpt lat="48.20007" lon="-3.2705">
        <ele>153.8</ele>
        <time>2021-08-10T09:41:17Z</time>
      </trkpt>
      <trkpt lat="48.20012" lon="-3.27052">
        <ele>153.8</ele>
        <time>2021-08-10T09:41:18Z</time>
      </trkpt>
      <trkpt lat="48.20016" lon="-3.27055">
        <ele>153.8</ele>
        <time>2021-08-10T09:41:19Z</time>
      </trkpt>
      <trkpt lat="48.20021" lon="-3.27058">
        <ele>153.8</ele>
        <time>2021-08-10T09:41:20Z</time>
      </trkpt>
      <trkpt lat="48.20026" lon="-3.2706">
        <ele>153.8</ele>
        <time>2021-08-10T09:41:21Z</time>
      </trkpt>
      <trkpt lat="48.2003" lon="-3.27063">
        <ele>153.8</ele>
        <time>2021-08-10T09:41:22Z</time>
      </trkpt>
      <trkpt lat="48.20034" lon="-3.27068">
        <ele>153.8</ele>
        <time>2021-08-10T09:41:23Z</time>
      </trkpt>
      <trkpt lat="48.20037" lon="-3.27072">
        <ele>153.8</ele>
        <time>2021-08-10T09:41:24Z</time>
      </trkpt>
      <trkpt lat="48.20041" lon="-3.27076">
        <ele>153.8</ele>
        <time>2021-08-10T09:41:25Z</time>
      </trkpt>
      <trkpt lat="48.20045" lon="-3.2708">
        <ele>153.6</ele>
        <time>2021-08-10T09:41:26Z</time>
      </trkpt>
      <trkpt lat="48.20049" lon="-3.27085">
        <ele>153.6</ele>
        <time>2021-08-10T09:41:27Z</time>
      </trkpt>
      <trkpt lat="48.20052" lon="-3.2709">
        <ele>153.6</ele>
        <time>2021-08-10T09:41:28Z</time>
      </trkpt>
      <trkpt lat="48.20056" lon="-3.27095">
        <ele>153.6</ele>
        <time>2021-08-10T09:41:29Z</time>
      </trkpt>
      <trkpt lat="48.2006" lon="-3.27099">
        <ele>153.6</ele>
        <time>2021-08-10T09:41:30Z</time>
      </trkpt>
      <trkpt lat="48.20063" lon="-3.27104">
        <ele>153.6</ele>
        <time>2021-08-10T09:41:31Z</time>
      </trkpt>
      <trkpt lat="48.20066" lon="-3.27109">
        <ele>153.6</ele>
        <time>2021-08-10T09:41:32Z</time>
      </trkpt>
      <trkpt lat="48.20069" lon="-3.27114">
        <ele>153.6</ele>
        <time>2021-08-10T09:41:33Z</time>
      </trkpt>
      <trkpt lat="48.20071" lon="-3.27119">
        <ele>153.8</ele>
        <time>2021-08-10T09:41:34Z</time>
      </trkpt>
      <trkpt lat="48.20074" lon="-3.27125">
        <ele>153.8</ele>
        <time>2021-08-10T09:41:35Z</time>
      </trkpt>
      <trkpt lat="48.20077" lon="-3.27131">
        <ele>153.8</ele>
        <time>2021-08-10T09:41:36Z</time>
      </trkpt>
      <trkpt lat="48.20079" lon="-3.27137">
        <ele>153.8</ele>
        <time>2021-08-10T09:41:37Z</time>
      </trkpt>
      <trkpt lat="48.20082" lon="-3.27143">
        <ele>153.8</ele>
        <time>2021-08-10T09:41:38Z</time>
      </trkpt>
      <trkpt lat="48.20085" lon="-3.27149">
        <ele>153.8</ele>
        <time>2021-08-10T09:41:39Z</time>
      </trkpt>
      <trkpt lat="48.20087" lon="-3.27155">
        <ele>153.8</ele>
        <time>2021-08-10T09:41:40Z</time>
      </trkpt>
      <trkpt lat="48.20089" lon="-3.27161">
        <ele>153.8</ele>
        <time>2021-08-10T09:41:41Z</time>
      </trkpt>
      <trkpt lat="48.20091" lon="-3.27167">
        <ele>153.8</ele>
        <time>2021-08-10T09:41:42Z</time>
      </trkpt>
      <trkpt lat="48.20092" lon="-3.27172">
        <ele>153.8</ele>
        <time>2021-08-10T09:41:43Z</time>
      </trkpt>
      <trkpt lat="48.20094" lon="-3.27178">
        <ele>153.8</ele>
        <time>2021-08-10T09:41:44Z</time>
      </trkpt>
      <trkpt lat="48.20096" lon="-3.27184">
        <ele>153.8</ele>
        <time>2021-08-10T09:41:45Z</time>
      </trkpt>
      <trkpt lat="48.20098" lon="-3.2719">
        <ele>153.8</ele>
        <time>2021-08-10T09:41:46Z</time>
      </trkpt>
      <trkpt lat="48.201" lon="-3.27196">
        <ele>153.8</ele>
        <time>2021-08-10T09:41:47Z</time>
      </trkpt>
      <trkpt lat="48.20102" lon="-3.27202">
        <ele>154</ele>
        <time>2021-08-10T09:41:48Z</time>
      </trkpt>
      <trkpt lat="48.20104" lon="-3.27208">
        <ele>154</ele>
        <time>2021-08-10T09:41:49Z</time>
      </trkpt>
      <trkpt lat="48.20106" lon="-3.27215">
        <ele>154</ele>
        <time>2021-08-10T09:41:50Z</time>
      </trkpt>
      <trkpt lat="48.20109" lon="-3.27221">
        <ele>154</ele>
        <time>2021-08-10T09:41:51Z</time>
      </trkpt>
      <trkpt lat="48.20111" lon="-3.27227">
        <ele>154</ele>
        <time>2021-08-10T09:41:52Z</time>
      </trkpt>
      <trkpt lat="48.20113" lon="-3.27234">
        <ele>154</ele>
        <time>2021-08-10T09:41:53Z</time>
      </trkpt>
      <trkpt lat="48.20115" lon="-3.2724">
        <ele>154</ele>
        <time>2021-08-10T09:41:54Z</time>
      </trkpt>
      <trkpt lat="48.20117" lon="-3.27247">
        <ele>154.2</ele>
        <time>2021-08-10T09:41:55Z</time>
      </trkpt>
      <trkpt lat="48.20119" lon="-3.27253">
        <ele>154.2</ele>
        <time>2021-08-10T09:41:56Z</time>
      </trkpt>
      <trkpt lat="48.20121" lon="-3.27259">
        <ele>154.2</ele>
        <time>2021-08-10T09:41:57Z</time>
      </trkpt>
      <trkpt lat="48.20123" lon="-3.27266">
        <ele>154.2</ele>
        <time>2021-08-10T09:41:58Z</time>
      </trkpt>
      <trkpt lat="48.20125" lon="-3.27271">
        <ele>154.4</ele>
        <time>2021-08-10T09:41:59Z</time>
      </trkpt>
      <trkpt lat="48.20126" lon="-3.27277">
        <ele>154.4</ele>
        <time>2021-08-10T09:42:00Z</time>
      </trkpt>
      <trkpt lat="48.20128" lon="-3.27283">
        <ele>154.4</ele>
        <time>2021-08-10T09:42:01Z</time>
      </trkpt>
      <trkpt lat="48.20131" lon="-3.27289">
        <ele>154.4</ele>
        <time>2021-08-10T09:42:02Z</time>
      </trkpt>
      <trkpt lat="48.20133" lon="-3.27295">
        <ele>154.4</ele>
        <time>2021-08-10T09:42:03Z</time>
      </trkpt>
      <trkpt lat="48.20135" lon="-3.27302">
        <ele>154.4</ele>
        <time>2021-08-10T09:42:04Z</time>
      </trkpt>
      <trkpt lat="48.20137" lon="-3.27308">
        <ele>154.4</ele>
        <time>2021-08-10T09:42:05Z</time>
      </trkpt>
      <trkpt lat="48.20139" lon="-3.27315">
        <ele>154.4</ele>
        <time>2021-08-10T09:42:06Z</time>
      </trkpt>
      <trkpt lat="48.20141" lon="-3.27322">
        <ele>154.4</ele>
        <time>2021-08-10T09:42:07Z</time>
      </trkpt>
      <trkpt lat="48.20143" lon="-3.27328">
        <ele>154.4</ele>
        <time>2021-08-10T09:42:08Z</time>
      </trkpt>
      <trkpt lat="48.20145" lon="-3.27334">
        <ele>154.4</ele>
        <time>2021-08-10T09:42:09Z</time>
      </trkpt>
      <trkpt lat="48.20147" lon="-3.2734">
        <ele>154.4</ele>
        <time>2021-08-10T09:42:10Z</time>
      </trkpt>
      <trkpt lat="48.20148" lon="-3.27346">
        <ele>154.4</ele>
        <time>2021-08-10T09:42:11Z</time>
      </trkpt>
      <trkpt lat="48.20149" lon="-3.27351">
        <ele>154.2</ele>
        <time>2021-08-10T09:42:12Z</time>
      </trkpt>
      <trkpt lat="48.2015" lon="-3.27357">
        <ele>154.2</ele>
        <time>2021-08-10T09:42:13Z</time>
      </trkpt>
      <trkpt lat="48.20151" lon="-3.27362">
        <ele>154.2</ele>
        <time>2021-08-10T09:42:14Z</time>
      </trkpt>
      <trkpt lat="48.20153" lon="-3.27368">
        <ele>154.2</ele>
        <time>2021-08-10T09:42:15Z</time>
      </trkpt>
      <trkpt lat="48.20154" lon="-3.27373">
        <ele>154.2</ele>
        <time>2021-08-10T09:42:16Z</time>
      </trkpt>
      <trkpt lat="48.20156" lon="-3.2738">
        <ele>154.2</ele>
        <time>2021-08-10T09:42:17Z</time>
      </trkpt>
      <trkpt lat="48.20157" lon="-3.27386">
        <ele>154.2</ele>
        <time>2021-08-10T09:42:18Z</time>
      </trkpt>
      <trkpt lat="48.20158" lon="-3.27392">
        <ele>154.2</ele>
        <time>2021-08-10T09:42:19Z</time>
      </trkpt>
      <trkpt lat="48.20159" lon="-3.27398">
        <ele>154.2</ele>
        <time>2021-08-10T09:42:20Z</time>
      </trkpt>
      <trkpt lat="48.2016" lon="-3.27404">
        <ele>154.4</ele>
        <time>2021-08-10T09:42:21Z</time>
      </trkpt>
      <trkpt lat="48.20161" lon="-3.27409">
        <ele>154.2</ele>
        <time>2021-08-10T09:42:22Z</time>
      </trkpt>
      <trkpt lat="48.20162" lon="-3.27414">
        <ele>154.2</ele>
        <time>2021-08-10T09:42:23Z</time>
      </trkpt>
      <trkpt lat="48.20163" lon="-3.27421">
        <ele>154.2</ele>
        <time>2021-08-10T09:42:24Z</time>
      </trkpt>
      <trkpt lat="48.20164" lon="-3.27426">
        <ele>154.4</ele>
        <time>2021-08-10T09:42:25Z</time>
      </trkpt>
      <trkpt lat="48.20165" lon="-3.27432">
        <ele>154.4</ele>
        <time>2021-08-10T09:42:26Z</time>
      </trkpt>
      <trkpt lat="48.20165" lon="-3.27438">
        <ele>154.6</ele>
        <time>2021-08-10T09:42:27Z</time>
      </trkpt>
      <trkpt lat="48.20165" lon="-3.27444">
        <ele>154.6</ele>
        <time>2021-08-10T09:42:28Z</time>
      </trkpt>
      <trkpt lat="48.20166" lon="-3.2745">
        <ele>154.6</ele>
        <time>2021-08-10T09:42:29Z</time>
      </trkpt>
      <trkpt lat="48.20166" lon="-3.27455">
        <ele>154.6</ele>
        <time>2021-08-10T09:42:30Z</time>
      </trkpt>
      <trkpt lat="48.20165" lon="-3.27461">
        <ele>154.6</ele>
        <time>2021-08-10T09:42:31Z</time>
      </trkpt>
      <trkpt lat="48.20166" lon="-3.27468">
        <ele>154.6</ele>
        <time>2021-08-10T09:42:32Z</time>
      </trkpt>
      <trkpt lat="48.20167" lon="-3.27475">
        <ele>154.6</ele>
        <time>2021-08-10T09:42:33Z</time>
      </trkpt>
      <trkpt lat="48.20169" lon="-3.27482">
        <ele>154.6</ele>
        <time>2021-08-10T09:42:34Z</time>
      </trkpt>
      <trkpt lat="48.2017" lon="-3.27489">
        <ele>154.6</ele>
        <time>2021-08-10T09:42:35Z</time>
      </trkpt>
      <trkpt lat="48.2017" lon="-3.27496">
        <ele>154.6</ele>
        <time>2021-08-10T09:42:36Z</time>
      </trkpt>
      <trkpt lat="48.20171" lon="-3.27502">
        <ele>154.6</ele>
        <time>2021-08-10T09:42:37Z</time>
      </trkpt>
      <trkpt lat="48.20173" lon="-3.27509">
        <ele>154.6</ele>
        <time>2021-08-10T09:42:38Z</time>
      </trkpt>
      <trkpt lat="48.20174" lon="-3.27516">
        <ele>154.6</ele>
        <time>2021-08-10T09:42:39Z</time>
      </trkpt>
      <trkpt lat="48.20175" lon="-3.27523">
        <ele>154.6</ele>
        <time>2021-08-10T09:42:40Z</time>
      </trkpt>
      <trkpt lat="48.20176" lon="-3.2753">
        <ele>154.6</ele>
        <time>2021-08-10T09:42:41Z</time>
      </trkpt>
      <trkpt lat="48.20177" lon="-3.27537">
        <ele>154.6</ele>
        <time>2021-08-10T09:42:42Z</time>
      </trkpt>
      <trkpt lat="48.20178" lon="-3.27544">
        <ele>154.6</ele>
        <time>2021-08-10T09:42:43Z</time>
      </trkpt>
      <trkpt lat="48.20177" lon="-3.2755">
        <ele>154.6</ele>
        <time>2021-08-10T09:42:44Z</time>
      </trkpt>
      <trkpt lat="48.20177" lon="-3.27555">
        <ele>154.6</ele>
        <time>2021-08-10T09:42:45Z</time>
      </trkpt>
      <trkpt lat="48.20178" lon="-3.27561">
        <ele>154.6</ele>
        <time>2021-08-10T09:42:46Z</time>
      </trkpt>
      <trkpt lat="48.20178" lon="-3.27567">
        <ele>154.6</ele>
        <time>2021-08-10T09:42:47Z</time>
      </trkpt>
      <trkpt lat="48.20178" lon="-3.27573">
        <ele>154.6</ele>
        <time>2021-08-10T09:42:48Z</time>
      </trkpt>
      <trkpt lat="48.20179" lon="-3.27579">
        <ele>154.6</ele>
        <time>2021-08-10T09:42:49Z</time>
      </trkpt>
      <trkpt lat="48.20179" lon="-3.27586">
        <ele>154.6</ele>
        <time>2021-08-10T09:42:50Z</time>
      </trkpt>
      <trkpt lat="48.20179" lon="-3.27593">
        <ele>154.6</ele>
        <time>2021-08-10T09:42:51Z</time>
      </trkpt>
      <trkpt lat="48.2018" lon="-3.276">
        <ele>154.6</ele>
        <time>2021-08-10T09:42:52Z</time>
      </trkpt>
      <trkpt lat="48.2018" lon="-3.27608">
        <ele>154.6</ele>
        <time>2021-08-10T09:42:53Z</time>
      </trkpt>
      <trkpt lat="48.20181" lon="-3.27617">
        <ele>154.6</ele>
        <time>2021-08-10T09:42:54Z</time>
      </trkpt>
      <trkpt lat="48.20182" lon="-3.27625">
        <ele>154.6</ele>
        <time>2021-08-10T09:42:55Z</time>
      </trkpt>
      <trkpt lat="48.20183" lon="-3.27634">
        <ele>154.6</ele>
        <time>2021-08-10T09:42:56Z</time>
      </trkpt>
      <trkpt lat="48.20184" lon="-3.27642">
        <ele>154.6</ele>
        <time>2021-08-10T09:42:57Z</time>
      </trkpt>
      <trkpt lat="48.20184" lon="-3.27649">
        <ele>154.4</ele>
        <time>2021-08-10T09:42:58Z</time>
      </trkpt>
      <trkpt lat="48.20185" lon="-3.27656">
        <ele>154.4</ele>
        <time>2021-08-10T09:42:59Z</time>
      </trkpt>
      <trkpt lat="48.20185" lon="-3.27663">
        <ele>154.4</ele>
        <time>2021-08-10T09:43:00Z</time>
      </trkpt>
      <trkpt lat="48.20186" lon="-3.27671">
        <ele>154.4</ele>
        <time>2021-08-10T09:43:01Z</time>
      </trkpt>
      <trkpt lat="48.20187" lon="-3.27678">
        <ele>154.2</ele>
        <time>2021-08-10T09:43:02Z</time>
      </trkpt>
      <trkpt lat="48.20188" lon="-3.27686">
        <ele>154.4</ele>
        <time>2021-08-10T09:43:03Z</time>
      </trkpt>
      <trkpt lat="48.20189" lon="-3.27693">
        <ele>154.4</ele>
        <time>2021-08-10T09:43:04Z</time>
      </trkpt>
      <trkpt lat="48.20189" lon="-3.277">
        <ele>154.2</ele>
        <time>2021-08-10T09:43:05Z</time>
      </trkpt>
      <trkpt lat="48.20189" lon="-3.27706">
        <ele>154.2</ele>
        <time>2021-08-10T09:43:06Z</time>
      </trkpt>
      <trkpt lat="48.2019" lon="-3.27713">
        <ele>154.4</ele>
        <time>2021-08-10T09:43:07Z</time>
      </trkpt>
      <trkpt lat="48.2019" lon="-3.2772">
        <ele>154.4</ele>
        <time>2021-08-10T09:43:08Z</time>
      </trkpt>
      <trkpt lat="48.20191" lon="-3.27727">
        <ele>154.4</ele>
        <time>2021-08-10T09:43:09Z</time>
      </trkpt>
      <trkpt lat="48.20192" lon="-3.27734">
        <ele>154.4</ele>
        <time>2021-08-10T09:43:10Z</time>
      </trkpt>
      <trkpt lat="48.20193" lon="-3.27742">
        <ele>154.4</ele>
        <time>2021-08-10T09:43:11Z</time>
      </trkpt>
      <trkpt lat="48.20194" lon="-3.27749">
        <ele>154.4</ele>
        <time>2021-08-10T09:43:12Z</time>
      </trkpt>
      <trkpt lat="48.20195" lon="-3.27755">
        <ele>154.4</ele>
        <time>2021-08-10T09:43:13Z</time>
      </trkpt>
      <trkpt lat="48.20196" lon="-3.27761">
        <ele>154.4</ele>
        <time>2021-08-10T09:43:14Z</time>
      </trkpt>
      <trkpt lat="48.20198" lon="-3.27766">
        <ele>154.4</ele>
        <time>2021-08-10T09:43:15Z</time>
      </trkpt>
      <trkpt lat="48.20199" lon="-3.27771">
        <ele>154.6</ele>
        <time>2021-08-10T09:43:16Z</time>
      </trkpt>
      <trkpt lat="48.20201" lon="-3.27775">
        <ele>154.6</ele>
        <time>2021-08-10T09:43:17Z</time>
      </trkpt>
      <trkpt lat="48.20202" lon="-3.27781">
        <ele>154.8</ele>
        <time>2021-08-10T09:43:18Z</time>
      </trkpt>
      <trkpt lat="48.20204" lon="-3.27786">
        <ele>154.8</ele>
        <time>2021-08-10T09:43:19Z</time>
      </trkpt>
      <trkpt lat="48.20205" lon="-3.27791">
        <ele>154.8</ele>
        <time>2021-08-10T09:43:20Z</time>
      </trkpt>
      <trkpt lat="48.20208" lon="-3.27796">
        <ele>154.8</ele>
        <time>2021-08-10T09:43:21Z</time>
      </trkpt>
      <trkpt lat="48.20211" lon="-3.27801">
        <ele>154.8</ele>
        <time>2021-08-10T09:43:22Z</time>
      </trkpt>
      <trkpt lat="48.20214" lon="-3.27806">
        <ele>155</ele>
        <time>2021-08-10T09:43:23Z</time>
      </trkpt>
      <trkpt lat="48.20217" lon="-3.27811">
        <ele>155</ele>
        <time>2021-08-10T09:43:24Z</time>
      </trkpt>
      <trkpt lat="48.20221" lon="-3.27816">
        <ele>155</ele>
        <time>2021-08-10T09:43:25Z</time>
      </trkpt>
      <trkpt lat="48.20225" lon="-3.2782">
        <ele>155</ele>
        <time>2021-08-10T09:43:26Z</time>
      </trkpt>
      <trkpt lat="48.20228" lon="-3.27823">
        <ele>155</ele>
        <time>2021-08-10T09:43:27Z</time>
      </trkpt>
      <trkpt lat="48.20232" lon="-3.27827">
        <ele>155</ele>
        <time>2021-08-10T09:43:28Z</time>
      </trkpt>
      <trkpt lat="48.20237" lon="-3.2783">
        <ele>155</ele>
        <time>2021-08-10T09:43:29Z</time>
      </trkpt>
      <trkpt lat="48.20242" lon="-3.27833">
        <ele>154.8</ele>
        <time>2021-08-10T09:43:30Z</time>
      </trkpt>
      <trkpt lat="48.20246" lon="-3.27837">
        <ele>155</ele>
        <time>2021-08-10T09:43:31Z</time>
      </trkpt>
      <trkpt lat="48.20251" lon="-3.27839">
        <ele>155.2</ele>
        <time>2021-08-10T09:43:32Z</time>
      </trkpt>
      <trkpt lat="48.20255" lon="-3.27842">
        <ele>155.2</ele>
        <time>2021-08-10T09:43:33Z</time>
      </trkpt>
      <trkpt lat="48.20259" lon="-3.27843">
        <ele>155</ele>
        <time>2021-08-10T09:43:34Z</time>
      </trkpt>
      <trkpt lat="48.20263" lon="-3.27846">
        <ele>155</ele>
        <time>2021-08-10T09:43:35Z</time>
      </trkpt>
      <trkpt lat="48.20268" lon="-3.27848">
        <ele>155</ele>
        <time>2021-08-10T09:43:36Z</time>
      </trkpt>
      <trkpt lat="48.20273" lon="-3.27851">
        <ele>155</ele>
        <time>2021-08-10T09:43:37Z</time>
      </trkpt>
      <trkpt lat="48.20278" lon="-3.27853">
        <ele>155</ele>
        <time>2021-08-10T09:43:38Z</time>
      </trkpt>
      <trkpt lat="48.20283" lon="-3.27856">
        <ele>155</ele>
        <time>2021-08-10T09:43:39Z</time>
      </trkpt>
      <trkpt lat="48.20287" lon="-3.27858">
        <ele>155</ele>
        <time>2021-08-10T09:43:40Z</time>
      </trkpt>
      <trkpt lat="48.20292" lon="-3.2786">
        <ele>155</ele>
        <time>2021-08-10T09:43:41Z</time>
      </trkpt>
      <trkpt lat="48.20297" lon="-3.27863">
        <ele>155</ele>
        <time>2021-08-10T09:43:42Z</time>
      </trkpt>
      <trkpt lat="48.20302" lon="-3.27865">
        <ele>155</ele>
        <time>2021-08-10T09:43:43Z</time>
      </trkpt>
      <trkpt lat="48.20307" lon="-3.27867">
        <ele>155</ele>
        <time>2021-08-10T09:43:44Z</time>
      </trkpt>
      <trkpt lat="48.20312" lon="-3.27869">
        <ele>154.8</ele>
        <time>2021-08-10T09:43:45Z</time>
      </trkpt>
      <trkpt lat="48.20316" lon="-3.2787">
        <ele>154.8</ele>
        <time>2021-08-10T09:43:46Z</time>
      </trkpt>
      <trkpt lat="48.2032" lon="-3.27872">
        <ele>154.8</ele>
        <time>2021-08-10T09:43:47Z</time>
      </trkpt>
      <trkpt lat="48.20324" lon="-3.27874">
        <ele>154.8</ele>
        <time>2021-08-10T09:43:48Z</time>
      </trkpt>
      <trkpt lat="48.20329" lon="-3.27876">
        <ele>154.8</ele>
        <time>2021-08-10T09:43:49Z</time>
      </trkpt>
      <trkpt lat="48.20333" lon="-3.27879">
        <ele>154.6</ele>
        <time>2021-08-10T09:43:50Z</time>
      </trkpt>
      <trkpt lat="48.20338" lon="-3.27882">
        <ele>154.6</ele>
        <time>2021-08-10T09:43:51Z</time>
      </trkpt>
      <trkpt lat="48.20342" lon="-3.27884">
        <ele>154.6</ele>
        <time>2021-08-10T09:43:52Z</time>
      </trkpt>
      <trkpt lat="48.20346" lon="-3.27886">
        <ele>154.6</ele>
        <time>2021-08-10T09:43:53Z</time>
      </trkpt>
      <trkpt lat="48.20351" lon="-3.27888">
        <ele>154.6</ele>
        <time>2021-08-10T09:43:54Z</time>
      </trkpt>
      <trkpt lat="48.20355" lon="-3.27891">
        <ele>154.6</ele>
        <time>2021-08-10T09:43:55Z</time>
      </trkpt>
      <trkpt lat="48.2036" lon="-3.27893">
        <ele>154.6</ele>
        <time>2021-08-10T09:43:56Z</time>
      </trkpt>
      <trkpt lat="48.20364" lon="-3.27895">
        <ele>154.6</ele>
        <time>2021-08-10T09:43:57Z</time>
      </trkpt>
      <trkpt lat="48.20368" lon="-3.27897">
        <ele>154.6</ele>
        <time>2021-08-10T09:43:58Z</time>
      </trkpt>
      <trkpt lat="48.20373" lon="-3.27899">
        <ele>154.6</ele>
        <time>2021-08-10T09:43:59Z</time>
      </trkpt>
      <trkpt lat="48.20377" lon="-3.27901">
        <ele>154.6</ele>
        <time>2021-08-10T09:44:00Z</time>
      </trkpt>
      <trkpt lat="48.20381" lon="-3.27903">
        <ele>154.6</ele>
        <time>2021-08-10T09:44:01Z</time>
      </trkpt>
      <trkpt lat="48.20384" lon="-3.27905">
        <ele>154.6</ele>
        <time>2021-08-10T09:44:02Z</time>
      </trkpt>
      <trkpt lat="48.20388" lon="-3.27906">
        <ele>154.4</ele>
        <time>2021-08-10T09:44:03Z</time>
      </trkpt>
      <trkpt lat="48.20392" lon="-3.27908">
        <ele>154.6</ele>
        <time>2021-08-10T09:44:04Z</time>
      </trkpt>
      <trkpt lat="48.20395" lon="-3.2791">
        <ele>154.8</ele>
        <time>2021-08-10T09:44:05Z</time>
      </trkpt>
      <trkpt lat="48.20398" lon="-3.27911">
        <ele>154.8</ele>
        <time>2021-08-10T09:44:06Z</time>
      </trkpt>
      <trkpt lat="48.20402" lon="-3.27912">
        <ele>154.8</ele>
        <time>2021-08-10T09:44:07Z</time>
      </trkpt>
      <trkpt lat="48.20405" lon="-3.27913">
        <ele>155</ele>
        <time>2021-08-10T09:44:08Z</time>
      </trkpt>
      <trkpt lat="48.20408" lon="-3.27914">
        <ele>155</ele>
        <time>2021-08-10T09:44:09Z</time>
      </trkpt>
      <trkpt lat="48.20411" lon="-3.27915">
        <ele>155.2</ele>
        <time>2021-08-10T09:44:10Z</time>
      </trkpt>
      <trkpt lat="48.20414" lon="-3.27916">
        <ele>155.2</ele>
        <time>2021-08-10T09:44:11Z</time>
      </trkpt>
      <trkpt lat="48.20418" lon="-3.27918">
        <ele>155.4</ele>
        <time>2021-08-10T09:44:12Z</time>
      </trkpt>
      <trkpt lat="48.20421" lon="-3.27919">
        <ele>155.6</ele>
        <time>2021-08-10T09:44:13Z</time>
      </trkpt>
      <trkpt lat="48.20425" lon="-3.27921">
        <ele>155.6</ele>
        <time>2021-08-10T09:44:14Z</time>
      </trkpt>
      <trkpt lat="48.20429" lon="-3.27922">
        <ele>155.8</ele>
        <time>2021-08-10T09:44:15Z</time>
      </trkpt>
      <trkpt lat="48.20432" lon="-3.27924">
        <ele>155.8</ele>
        <time>2021-08-10T09:44:16Z</time>
      </trkpt>
      <trkpt lat="48.20436" lon="-3.27925">
        <ele>155.8</ele>
        <time>2021-08-10T09:44:17Z</time>
      </trkpt>
      <trkpt lat="48.2044" lon="-3.27927">
        <ele>155.8</ele>
        <time>2021-08-10T09:44:18Z</time>
      </trkpt>
      <trkpt lat="48.20444" lon="-3.27928">
        <ele>155.8</ele>
        <time>2021-08-10T09:44:19Z</time>
      </trkpt>
      <trkpt lat="48.20448" lon="-3.2793">
        <ele>155.8</ele>
        <time>2021-08-10T09:44:20Z</time>
      </trkpt>
      <trkpt lat="48.20452" lon="-3.27932">
        <ele>155.8</ele>
        <time>2021-08-10T09:44:21Z</time>
      </trkpt>
      <trkpt lat="48.20455" lon="-3.27934">
        <ele>155.8</ele>
        <time>2021-08-10T09:44:22Z</time>
      </trkpt>
      <trkpt lat="48.2046" lon="-3.27935">
        <ele>155.8</ele>
        <time>2021-08-10T09:44:23Z</time>
      </trkpt>
      <trkpt lat="48.20464" lon="-3.27937">
        <ele>155.8</ele>
        <time>2021-08-10T09:44:24Z</time>
      </trkpt>
      <trkpt lat="48.20468" lon="-3.27939">
        <ele>155.8</ele>
        <time>2021-08-10T09:44:25Z</time>
      </trkpt>
      <trkpt lat="48.20472" lon="-3.27941">
        <ele>156</ele>
        <time>2021-08-10T09:44:26Z</time>
      </trkpt>
      <trkpt lat="48.20476" lon="-3.27943">
        <ele>156</ele>
        <time>2021-08-10T09:44:27Z</time>
      </trkpt>
      <trkpt lat="48.2048" lon="-3.27945">
        <ele>156</ele>
        <time>2021-08-10T09:44:28Z</time>
      </trkpt>
      <trkpt lat="48.20484" lon="-3.27946">
        <ele>156</ele>
        <time>2021-08-10T09:44:29Z</time>
      </trkpt>
      <trkpt lat="48.20488" lon="-3.27948">
        <ele>156</ele>
        <time>2021-08-10T09:44:30Z</time>
      </trkpt>
      <trkpt lat="48.20492" lon="-3.2795">
        <ele>155.8</ele>
        <time>2021-08-10T09:44:31Z</time>
      </trkpt>
      <trkpt lat="48.20496" lon="-3.27952">
        <ele>155.8</ele>
        <time>2021-08-10T09:44:32Z</time>
      </trkpt>
      <trkpt lat="48.205" lon="-3.27954">
        <ele>155.8</ele>
        <time>2021-08-10T09:44:33Z</time>
      </trkpt>
      <trkpt lat="48.20504" lon="-3.27956">
        <ele>155.8</ele>
        <time>2021-08-10T09:44:34Z</time>
      </trkpt>
      <trkpt lat="48.20508" lon="-3.27958">
        <ele>155.8</ele>
        <time>2021-08-10T09:44:35Z</time>
      </trkpt>
      <trkpt lat="48.20512" lon="-3.27961">
        <ele>155.8</ele>
        <time>2021-08-10T09:44:36Z</time>
      </trkpt>
      <trkpt lat="48.20516" lon="-3.27964">
        <ele>155.8</ele>
        <time>2021-08-10T09:44:37Z</time>
      </trkpt>
      <trkpt lat="48.2052" lon="-3.27967">
        <ele>155.6</ele>
        <time>2021-08-10T09:44:38Z</time>
      </trkpt>
      <trkpt lat="48.20523" lon="-3.27971">
        <ele>155.6</ele>
        <time>2021-08-10T09:44:39Z</time>
      </trkpt>
      <trkpt lat="48.20527" lon="-3.27975">
        <ele>155.6</ele>
        <time>2021-08-10T09:44:40Z</time>
      </trkpt>
      <trkpt lat="48.20531" lon="-3.27979">
        <ele>155.6</ele>
        <time>2021-08-10T09:44:41Z</time>
      </trkpt>
      <trkpt lat="48.20534" lon="-3.27983">
        <ele>155.6</ele>
        <time>2021-08-10T09:44:42Z</time>
      </trkpt>
      <trkpt lat="48.20538" lon="-3.27987">
        <ele>155.6</ele>
        <time>2021-08-10T09:44:43Z</time>
      </trkpt>
      <trkpt lat="48.20541" lon="-3.27991">
        <ele>155.6</ele>
        <time>2021-08-10T09:44:44Z</time>
      </trkpt>
      <trkpt lat="48.20543" lon="-3.27995">
        <ele>155.6</ele>
        <time>2021-08-10T09:44:45Z</time>
      </trkpt>
      <trkpt lat="48.20545" lon="-3.28">
        <ele>155.6</ele>
        <time>2021-08-10T09:44:46Z</time>
      </trkpt>
      <trkpt lat="48.20547" lon="-3.28004">
        <ele>155.6</ele>
        <time>2021-08-10T09:44:47Z</time>
      </trkpt>
      <trkpt lat="48.20549" lon="-3.28009">
        <ele>155.6</ele>
        <time>2021-08-10T09:44:48Z</time>
      </trkpt>
      <trkpt lat="48.2055" lon="-3.28014">
        <ele>155.6</ele>
        <time>2021-08-10T09:44:49Z</time>
      </trkpt>
      <trkpt lat="48.20552" lon="-3.2802">
        <ele>155.6</ele>
        <time>2021-08-10T09:44:50Z</time>
      </trkpt>
      <trkpt lat="48.20554" lon="-3.28026">
        <ele>155.6</ele>
        <time>2021-08-10T09:44:51Z</time>
      </trkpt>
      <trkpt lat="48.20555" lon="-3.28032">
        <ele>155.6</ele>
        <time>2021-08-10T09:44:52Z</time>
      </trkpt>
      <trkpt lat="48.20557" lon="-3.28039">
        <ele>155.6</ele>
        <time>2021-08-10T09:44:53Z</time>
      </trkpt>
      <trkpt lat="48.20558" lon="-3.28045">
        <ele>155.6</ele>
        <time>2021-08-10T09:44:54Z</time>
      </trkpt>
      <trkpt lat="48.20559" lon="-3.28051">
        <ele>155.6</ele>
        <time>2021-08-10T09:44:55Z</time>
      </trkpt>
      <trkpt lat="48.2056" lon="-3.28058">
        <ele>155.6</ele>
        <time>2021-08-10T09:44:56Z</time>
      </trkpt>
      <trkpt lat="48.20561" lon="-3.28065">
        <ele>155.6</ele>
        <time>2021-08-10T09:44:57Z</time>
      </trkpt>
      <trkpt lat="48.20562" lon="-3.28072">
        <ele>155.4</ele>
        <time>2021-08-10T09:44:58Z</time>
      </trkpt>
      <trkpt lat="48.20562" lon="-3.2808">
        <ele>155.4</ele>
        <time>2021-08-10T09:44:59Z</time>
      </trkpt>
      <trkpt lat="48.20562" lon="-3.28087">
        <ele>155.4</ele>
        <time>2021-08-10T09:45:00Z</time>
      </trkpt>
      <trkpt lat="48.20562" lon="-3.28094">
        <ele>155.4</ele>
        <time>2021-08-10T09:45:01Z</time>
      </trkpt>
      <trkpt lat="48.20562" lon="-3.28101">
        <ele>155.4</ele>
        <time>2021-08-10T09:45:02Z</time>
      </trkpt>
      <trkpt lat="48.20562" lon="-3.28108">
        <ele>155.4</ele>
        <time>2021-08-10T09:45:03Z</time>
      </trkpt>
      <trkpt lat="48.20562" lon="-3.28115">
        <ele>155.4</ele>
        <time>2021-08-10T09:45:04Z</time>
      </trkpt>
      <trkpt lat="48.20562" lon="-3.28121">
        <ele>155.4</ele>
        <time>2021-08-10T09:45:05Z</time>
      </trkpt>
      <trkpt lat="48.20561" lon="-3.28128">
        <ele>155.4</ele>
        <time>2021-08-10T09:45:06Z</time>
      </trkpt>
      <trkpt lat="48.20561" lon="-3.28134">
        <ele>155.4</ele>
        <time>2021-08-10T09:45:07Z</time>
      </trkpt>
      <trkpt lat="48.20561" lon="-3.28141">
        <ele>155.4</ele>
        <time>2021-08-10T09:45:08Z</time>
      </trkpt>
      <trkpt lat="48.2056" lon="-3.28148">
        <ele>155.4</ele>
        <time>2021-08-10T09:45:09Z</time>
      </trkpt>
      <trkpt lat="48.2056" lon="-3.28154">
        <ele>155.4</ele>
        <time>2021-08-10T09:45:10Z</time>
      </trkpt>
      <trkpt lat="48.20559" lon="-3.28161">
        <ele>155.2</ele>
        <time>2021-08-10T09:45:11Z</time>
      </trkpt>
      <trkpt lat="48.20559" lon="-3.28167">
        <ele>155.2</ele>
        <time>2021-08-10T09:45:12Z</time>
      </trkpt>
      <trkpt lat="48.20558" lon="-3.28174">
        <ele>155.2</ele>
        <time>2021-08-10T09:45:13Z</time>
      </trkpt>
      <trkpt lat="48.20558" lon="-3.2818">
        <ele>155.2</ele>
        <time>2021-08-10T09:45:14Z</time>
      </trkpt>
      <trkpt lat="48.20558" lon="-3.28187">
        <ele>155.2</ele>
        <time>2021-08-10T09:45:15Z</time>
      </trkpt>
      <trkpt lat="48.20557" lon="-3.28193">
        <ele>155</ele>
        <time>2021-08-10T09:45:16Z</time>
      </trkpt>
      <trkpt lat="48.20557" lon="-3.28199">
        <ele>155</ele>
        <time>2021-08-10T09:45:17Z</time>
      </trkpt>
      <trkpt lat="48.20556" lon="-3.28205">
        <ele>155</ele>
        <time>2021-08-10T09:45:18Z</time>
      </trkpt>
      <trkpt lat="48.20556" lon="-3.28211">
        <ele>155</ele>
        <time>2021-08-10T09:45:19Z</time>
      </trkpt>
      <trkpt lat="48.20555" lon="-3.28218">
        <ele>155</ele>
        <time>2021-08-10T09:45:20Z</time>
      </trkpt>
      <trkpt lat="48.20555" lon="-3.28224">
        <ele>155</ele>
        <time>2021-08-10T09:45:21Z</time>
      </trkpt>
      <trkpt lat="48.20554" lon="-3.28231">
        <ele>155</ele>
        <time>2021-08-10T09:45:22Z</time>
      </trkpt>
      <trkpt lat="48.20553" lon="-3.28237">
        <ele>155</ele>
        <time>2021-08-10T09:45:23Z</time>
      </trkpt>
      <trkpt lat="48.20553" lon="-3.28244">
        <ele>155</ele>
        <time>2021-08-10T09:45:24Z</time>
      </trkpt>
      <trkpt lat="48.20552" lon="-3.28251">
        <ele>155.2</ele>
        <time>2021-08-10T09:45:25Z</time>
      </trkpt>
      <trkpt lat="48.20552" lon="-3.28258">
        <ele>155.2</ele>
        <time>2021-08-10T09:45:26Z</time>
      </trkpt>
      <trkpt lat="48.20552" lon="-3.28265">
        <ele>155</ele>
        <time>2021-08-10T09:45:27Z</time>
      </trkpt>
      <trkpt lat="48.20551" lon="-3.28272">
        <ele>155</ele>
        <time>2021-08-10T09:45:28Z</time>
      </trkpt>
      <trkpt lat="48.2055" lon="-3.28279">
        <ele>155.2</ele>
        <time>2021-08-10T09:45:29Z</time>
      </trkpt>
      <trkpt lat="48.2055" lon="-3.28286">
        <ele>155.2</ele>
        <time>2021-08-10T09:45:30Z</time>
      </trkpt>
      <trkpt lat="48.20549" lon="-3.28293">
        <ele>155.2</ele>
        <time>2021-08-10T09:45:31Z</time>
      </trkpt>
      <trkpt lat="48.20548" lon="-3.28301">
        <ele>155.2</ele>
        <time>2021-08-10T09:45:32Z</time>
      </trkpt>
      <trkpt lat="48.20548" lon="-3.28309">
        <ele>155.2</ele>
        <time>2021-08-10T09:45:33Z</time>
      </trkpt>
      <trkpt lat="48.20547" lon="-3.28318">
        <ele>155.2</ele>
        <time>2021-08-10T09:45:34Z</time>
      </trkpt>
      <trkpt lat="48.20546" lon="-3.28327">
        <ele>155.2</ele>
        <time>2021-08-10T09:45:35Z</time>
      </trkpt>
      <trkpt lat="48.20546" lon="-3.28335">
        <ele>155</ele>
        <time>2021-08-10T09:45:36Z</time>
      </trkpt>
      <trkpt lat="48.20545" lon="-3.28344">
        <ele>155</ele>
        <time>2021-08-10T09:45:37Z</time>
      </trkpt>
      <trkpt lat="48.20544" lon="-3.28353">
        <ele>155</ele>
        <time>2021-08-10T09:45:38Z</time>
      </trkpt>
      <trkpt lat="48.20543" lon="-3.28362">
        <ele>155</ele>
        <time>2021-08-10T09:45:39Z</time>
      </trkpt>
      <trkpt lat="48.20541" lon="-3.2837">
        <ele>154.8</ele>
        <time>2021-08-10T09:45:40Z</time>
      </trkpt>
      <trkpt lat="48.20539" lon="-3.28378">
        <ele>154.8</ele>
        <time>2021-08-10T09:45:41Z</time>
      </trkpt>
      <trkpt lat="48.20537" lon="-3.28385">
        <ele>154.8</ele>
        <time>2021-08-10T09:45:42Z</time>
      </trkpt>
      <trkpt lat="48.20535" lon="-3.28392">
        <ele>154.8</ele>
        <time>2021-08-10T09:45:43Z</time>
      </trkpt>
      <trkpt lat="48.20533" lon="-3.28399">
        <ele>154.8</ele>
        <time>2021-08-10T09:45:44Z</time>
      </trkpt>
      <trkpt lat="48.2053" lon="-3.28406">
        <ele>154.8</ele>
        <time>2021-08-10T09:45:45Z</time>
      </trkpt>
      <trkpt lat="48.20528" lon="-3.28412">
        <ele>154.8</ele>
        <time>2021-08-10T09:45:46Z</time>
      </trkpt>
      <trkpt lat="48.20525" lon="-3.28417">
        <ele>154.8</ele>
        <time>2021-08-10T09:45:47Z</time>
      </trkpt>
      <trkpt lat="48.20522" lon="-3.28422">
        <ele>154.8</ele>
        <time>2021-08-10T09:45:48Z</time>
      </trkpt>
      <trkpt lat="48.20519" lon="-3.28426">
        <ele>154.8</ele>
        <time>2021-08-10T09:45:49Z</time>
      </trkpt>
      <trkpt lat="48.20516" lon="-3.28431">
        <ele>154.8</ele>
        <time>2021-08-10T09:45:50Z</time>
      </trkpt>
      <trkpt lat="48.20514" lon="-3.28435">
        <ele>154.8</ele>
        <time>2021-08-10T09:45:51Z</time>
      </trkpt>
      <trkpt lat="48.20511" lon="-3.28438">
        <ele>154.8</ele>
        <time>2021-08-10T09:45:52Z</time>
      </trkpt>
      <trkpt lat="48.20508" lon="-3.28441">
        <ele>154.8</ele>
        <time>2021-08-10T09:45:53Z</time>
      </trkpt>
      <trkpt lat="48.20505" lon="-3.28444">
        <ele>155</ele>
        <time>2021-08-10T09:45:54Z</time>
      </trkpt>
      <trkpt lat="48.20502" lon="-3.28448">
        <ele>155</ele>
        <time>2021-08-10T09:45:55Z</time>
      </trkpt>
      <trkpt lat="48.20499" lon="-3.2845">
        <ele>155.2</ele>
        <time>2021-08-10T09:45:56Z</time>
      </trkpt>
      <trkpt lat="48.20496" lon="-3.28453">
        <ele>155.2</ele>
        <time>2021-08-10T09:45:57Z</time>
      </trkpt>
      <trkpt lat="48.20493" lon="-3.28455">
        <ele>155.2</ele>
        <time>2021-08-10T09:45:58Z</time>
      </trkpt>
      <trkpt lat="48.20489" lon="-3.28458">
        <ele>155.2</ele>
        <time>2021-08-10T09:45:59Z</time>
      </trkpt>
      <trkpt lat="48.20485" lon="-3.28461">
        <ele>155.2</ele>
        <time>2021-08-10T09:46:00Z</time>
      </trkpt>
      <trkpt lat="48.20481" lon="-3.28463">
        <ele>155.2</ele>
        <time>2021-08-10T09:46:01Z</time>
      </trkpt>
      <trkpt lat="48.20477" lon="-3.28465">
        <ele>155.2</ele>
        <time>2021-08-10T09:46:02Z</time>
      </trkpt>
      <trkpt lat="48.20473" lon="-3.28468">
        <ele>155.2</ele>
        <time>2021-08-10T09:46:03Z</time>
      </trkpt>
      <trkpt lat="48.20468" lon="-3.2847">
        <ele>155.2</ele>
        <time>2021-08-10T09:46:04Z</time>
      </trkpt>
      <trkpt lat="48.20464" lon="-3.28473">
        <ele>155.2</ele>
        <time>2021-08-10T09:46:05Z</time>
      </trkpt>
      <trkpt lat="48.2046" lon="-3.28475">
        <ele>155.2</ele>
        <time>2021-08-10T09:46:06Z</time>
      </trkpt>
      <trkpt lat="48.20455" lon="-3.28477">
        <ele>155.2</ele>
        <time>2021-08-10T09:46:07Z</time>
      </trkpt>
      <trkpt lat="48.20451" lon="-3.28479">
        <ele>155.2</ele>
        <time>2021-08-10T09:46:08Z</time>
      </trkpt>
      <trkpt lat="48.20447" lon="-3.28482">
        <ele>155.2</ele>
        <time>2021-08-10T09:46:09Z</time>
      </trkpt>
      <trkpt lat="48.20442" lon="-3.28485">
        <ele>155.2</ele>
        <time>2021-08-10T09:46:10Z</time>
      </trkpt>
      <trkpt lat="48.20438" lon="-3.28487">
        <ele>155.2</ele>
        <time>2021-08-10T09:46:11Z</time>
      </trkpt>
      <trkpt lat="48.20433" lon="-3.28489">
        <ele>155.2</ele>
        <time>2021-08-10T09:46:12Z</time>
      </trkpt>
      <trkpt lat="48.20429" lon="-3.28492">
        <ele>155.2</ele>
        <time>2021-08-10T09:46:13Z</time>
      </trkpt>
      <trkpt lat="48.20424" lon="-3.28494">
        <ele>155.2</ele>
        <time>2021-08-10T09:46:14Z</time>
      </trkpt>
      <trkpt lat="48.20419" lon="-3.28496">
        <ele>155.2</ele>
        <time>2021-08-10T09:46:15Z</time>
      </trkpt>
      <trkpt lat="48.20415" lon="-3.28498">
        <ele>155.2</ele>
        <time>2021-08-10T09:46:16Z</time>
      </trkpt>
      <trkpt lat="48.2041" lon="-3.285">
        <ele>155.2</ele>
        <time>2021-08-10T09:46:17Z</time>
      </trkpt>
      <trkpt lat="48.20406" lon="-3.28503">
        <ele>155.2</ele>
        <time>2021-08-10T09:46:18Z</time>
      </trkpt>
      <trkpt lat="48.20401" lon="-3.28505">
        <ele>155.2</ele>
        <time>2021-08-10T09:46:19Z</time>
      </trkpt>
      <trkpt lat="48.20396" lon="-3.28508">
        <ele>155.2</ele>
        <time>2021-08-10T09:46:20Z</time>
      </trkpt>
      <trkpt lat="48.20392" lon="-3.2851">
        <ele>155.2</ele>
        <time>2021-08-10T09:46:21Z</time>
      </trkpt>
      <trkpt lat="48.20387" lon="-3.28512">
        <ele>155</ele>
        <time>2021-08-10T09:46:22Z</time>
      </trkpt>
      <trkpt lat="48.20383" lon="-3.28514">
        <ele>155.2</ele>
        <time>2021-08-10T09:46:23Z</time>
      </trkpt>
      <trkpt lat="48.20378" lon="-3.28517">
        <ele>155.2</ele>
        <time>2021-08-10T09:46:24Z</time>
      </trkpt>
      <trkpt lat="48.20373" lon="-3.28519">
        <ele>155.2</ele>
        <time>2021-08-10T09:46:25Z</time>
      </trkpt>
      <trkpt lat="48.20369" lon="-3.28522">
        <ele>155</ele>
        <time>2021-08-10T09:46:26Z</time>
      </trkpt>
      <trkpt lat="48.20364" lon="-3.28524">
        <ele>155.2</ele>
        <time>2021-08-10T09:46:27Z</time>
      </trkpt>
      <trkpt lat="48.2036" lon="-3.28526">
        <ele>155.2</ele>
        <time>2021-08-10T09:46:28Z</time>
      </trkpt>
      <trkpt lat="48.20355" lon="-3.28529">
        <ele>155.2</ele>
        <time>2021-08-10T09:46:29Z</time>
      </trkpt>
      <trkpt lat="48.2035" lon="-3.28531">
        <ele>155.2</ele>
        <time>2021-08-10T09:46:30Z</time>
      </trkpt>
      <trkpt lat="48.20346" lon="-3.28533">
        <ele>155.4</ele>
        <time>2021-08-10T09:46:31Z</time>
      </trkpt>
      <trkpt lat="48.20341" lon="-3.28535">
        <ele>155.4</ele>
        <time>2021-08-10T09:46:32Z</time>
      </trkpt>
      <trkpt lat="48.20337" lon="-3.28538">
        <ele>155.6</ele>
        <time>2021-08-10T09:46:33Z</time>
      </trkpt>
      <trkpt lat="48.20332" lon="-3.2854">
        <ele>155.4</ele>
        <time>2021-08-10T09:46:34Z</time>
      </trkpt>
      <trkpt lat="48.20328" lon="-3.28542">
        <ele>155.4</ele>
        <time>2021-08-10T09:46:35Z</time>
      </trkpt>
      <trkpt lat="48.20323" lon="-3.28544">
        <ele>155.4</ele>
        <time>2021-08-10T09:46:36Z</time>
      </trkpt>
      <trkpt lat="48.20318" lon="-3.28547">
        <ele>155.4</ele>
        <time>2021-08-10T09:46:37Z</time>
      </trkpt>
      <trkpt lat="48.20314" lon="-3.28549">
        <ele>155.4</ele>
        <time>2021-08-10T09:46:38Z</time>
      </trkpt>
      <trkpt lat="48.20309" lon="-3.28552">
        <ele>155.4</ele>
        <time>2021-08-10T09:46:39Z</time>
      </trkpt>
      <trkpt lat="48.20305" lon="-3.28554">
        <ele>155.4</ele>
        <time>2021-08-10T09:46:40Z</time>
      </trkpt>
      <trkpt lat="48.203" lon="-3.28557">
        <ele>155.4</ele>
        <time>2021-08-10T09:46:41Z</time>
      </trkpt>
      <trkpt lat="48.20295" lon="-3.28559">
        <ele>155.4</ele>
        <time>2021-08-10T09:46:42Z</time>
      </trkpt>
      <trkpt lat="48.20291" lon="-3.28561">
        <ele>155.4</ele>
        <time>2021-08-10T09:46:43Z</time>
      </trkpt>
      <trkpt lat="48.20286" lon="-3.28563">
        <ele>155.4</ele>
        <time>2021-08-10T09:46:44Z</time>
      </trkpt>
      <trkpt lat="48.20282" lon="-3.28565">
        <ele>155.4</ele>
        <time>2021-08-10T09:46:45Z</time>
      </trkpt>
      <trkpt lat="48.20277" lon="-3.28568">
        <ele>155.4</ele>
        <time>2021-08-10T09:46:46Z</time>
      </trkpt>
      <trkpt lat="48.20273" lon="-3.2857">
        <ele>155.4</ele>
        <time>2021-08-10T09:46:47Z</time>
      </trkpt>
      <trkpt lat="48.20268" lon="-3.28572">
        <ele>155.4</ele>
        <time>2021-08-10T09:46:48Z</time>
      </trkpt>
      <trkpt lat="48.20264" lon="-3.28575">
        <ele>155.4</ele>
        <time>2021-08-10T09:46:49Z</time>
      </trkpt>
      <trkpt lat="48.20259" lon="-3.28577">
        <ele>155.4</ele>
        <time>2021-08-10T09:46:50Z</time>
      </trkpt>
      <trkpt lat="48.20255" lon="-3.2858">
        <ele>155.4</ele>
        <time>2021-08-10T09:46:51Z</time>
      </trkpt>
      <trkpt lat="48.2025" lon="-3.28582">
        <ele>155.4</ele>
        <time>2021-08-10T09:46:52Z</time>
      </trkpt>
      <trkpt lat="48.20246" lon="-3.28584">
        <ele>155.4</ele>
        <time>2021-08-10T09:46:53Z</time>
      </trkpt>
      <trkpt lat="48.20241" lon="-3.28587">
        <ele>155.6</ele>
        <time>2021-08-10T09:46:54Z</time>
      </trkpt>
      <trkpt lat="48.20237" lon="-3.28589">
        <ele>155.6</ele>
        <time>2021-08-10T09:46:55Z</time>
      </trkpt>
      <trkpt lat="48.20232" lon="-3.28591">
        <ele>155.8</ele>
        <time>2021-08-10T09:46:56Z</time>
      </trkpt>
      <trkpt lat="48.20227" lon="-3.28594">
        <ele>155.8</ele>
        <time>2021-08-10T09:46:57Z</time>
      </trkpt>
      <trkpt lat="48.20223" lon="-3.28596">
        <ele>155.8</ele>
        <time>2021-08-10T09:46:58Z</time>
      </trkpt>
      <trkpt lat="48.20218" lon="-3.28598">
        <ele>155.8</ele>
        <time>2021-08-10T09:46:59Z</time>
      </trkpt>
      <trkpt lat="48.20213" lon="-3.286">
        <ele>155.8</ele>
        <time>2021-08-10T09:47:00Z</time>
      </trkpt>
      <trkpt lat="48.20208" lon="-3.28602">
        <ele>155.8</ele>
        <time>2021-08-10T09:47:01Z</time>
      </trkpt>
      <trkpt lat="48.20204" lon="-3.28605">
        <ele>155.8</ele>
        <time>2021-08-10T09:47:02Z</time>
      </trkpt>
      <trkpt lat="48.20199" lon="-3.28607">
        <ele>155.8</ele>
        <time>2021-08-10T09:47:03Z</time>
      </trkpt>
      <trkpt lat="48.20194" lon="-3.28609">
        <ele>155.8</ele>
        <time>2021-08-10T09:47:04Z</time>
      </trkpt>
      <trkpt lat="48.20189" lon="-3.28612">
        <ele>155.8</ele>
        <time>2021-08-10T09:47:05Z</time>
      </trkpt>
      <trkpt lat="48.20185" lon="-3.28614">
        <ele>155.8</ele>
        <time>2021-08-10T09:47:06Z</time>
      </trkpt>
      <trkpt lat="48.2018" lon="-3.28616">
        <ele>155.8</ele>
        <time>2021-08-10T09:47:07Z</time>
      </trkpt>
      <trkpt lat="48.20175" lon="-3.28619">
        <ele>155.8</ele>
        <time>2021-08-10T09:47:08Z</time>
      </trkpt>
      <trkpt lat="48.20171" lon="-3.28621">
        <ele>155.8</ele>
        <time>2021-08-10T09:47:09Z</time>
      </trkpt>
      <trkpt lat="48.20166" lon="-3.28624">
        <ele>155.8</ele>
        <time>2021-08-10T09:47:10Z</time>
      </trkpt>
      <trkpt lat="48.20162" lon="-3.28627">
        <ele>155.8</ele>
        <time>2021-08-10T09:47:11Z</time>
      </trkpt>
      <trkpt lat="48.20157" lon="-3.2863">
        <ele>155.8</ele>
        <time>2021-08-10T09:47:12Z</time>
      </trkpt>
      <trkpt lat="48.20153" lon="-3.28634">
        <ele>155.8</ele>
        <time>2021-08-10T09:47:13Z</time>
      </trkpt>
      <trkpt lat="48.20149" lon="-3.28638">
        <ele>155.6</ele>
        <time>2021-08-10T09:47:14Z</time>
      </trkpt>
      <trkpt lat="48.20145" lon="-3.28643">
        <ele>155.6</ele>
        <time>2021-08-10T09:47:15Z</time>
      </trkpt>
      <trkpt lat="48.20142" lon="-3.28648">
        <ele>155.6</ele>
        <time>2021-08-10T09:47:16Z</time>
      </trkpt>
      <trkpt lat="48.20138" lon="-3.28654">
        <ele>155.6</ele>
        <time>2021-08-10T09:47:17Z</time>
      </trkpt>
      <trkpt lat="48.20136" lon="-3.2866">
        <ele>155.6</ele>
        <time>2021-08-10T09:47:18Z</time>
      </trkpt>
      <trkpt lat="48.20133" lon="-3.28666">
        <ele>155.6</ele>
        <time>2021-08-10T09:47:19Z</time>
      </trkpt>
      <trkpt lat="48.2013" lon="-3.28672">
        <ele>155.6</ele>
        <time>2021-08-10T09:47:20Z</time>
      </trkpt>
      <trkpt lat="48.20128" lon="-3.28678">
        <ele>155.6</ele>
        <time>2021-08-10T09:47:21Z</time>
      </trkpt>
      <trkpt lat="48.20126" lon="-3.28685">
        <ele>155.6</ele>
        <time>2021-08-10T09:47:22Z</time>
      </trkpt>
      <trkpt lat="48.20124" lon="-3.28692">
        <ele>155.6</ele>
        <time>2021-08-10T09:47:23Z</time>
      </trkpt>
      <trkpt lat="48.20123" lon="-3.287">
        <ele>155.6</ele>
        <time>2021-08-10T09:47:24Z</time>
      </trkpt>
      <trkpt lat="48.20121" lon="-3.28707">
        <ele>155.4</ele>
        <time>2021-08-10T09:47:25Z</time>
      </trkpt>
      <trkpt lat="48.20121" lon="-3.28714">
        <ele>155.4</ele>
        <time>2021-08-10T09:47:26Z</time>
      </trkpt>
      <trkpt lat="48.2012" lon="-3.28722">
        <ele>155.4</ele>
        <time>2021-08-10T09:47:27Z</time>
      </trkpt>
      <trkpt lat="48.2012" lon="-3.28729">
        <ele>155.4</ele>
        <time>2021-08-10T09:47:28Z</time>
      </trkpt>
      <trkpt lat="48.20119" lon="-3.28737">
        <ele>155.2</ele>
        <time>2021-08-10T09:47:29Z</time>
      </trkpt>
      <trkpt lat="48.2012" lon="-3.28744">
        <ele>155.2</ele>
        <time>2021-08-10T09:47:30Z</time>
      </trkpt>
      <trkpt lat="48.2012" lon="-3.28751">
        <ele>155.2</ele>
        <time>2021-08-10T09:47:31Z</time>
      </trkpt>
      <trkpt lat="48.2012" lon="-3.28758">
        <ele>155.2</ele>
        <time>2021-08-10T09:47:32Z</time>
      </trkpt>
      <trkpt lat="48.2012" lon="-3.28766">
        <ele>155.2</ele>
        <time>2021-08-10T09:47:33Z</time>
      </trkpt>
      <trkpt lat="48.2012" lon="-3.28772">
        <ele>155.2</ele>
        <time>2021-08-10T09:47:34Z</time>
      </trkpt>
      <trkpt lat="48.2012" lon="-3.28779">
        <ele>155.2</ele>
        <time>2021-08-10T09:47:35Z</time>
      </trkpt>
      <trkpt lat="48.2012" lon="-3.28786">
        <ele>155.2</ele>
        <time>2021-08-10T09:47:36Z</time>
      </trkpt>
      <trkpt lat="48.2012" lon="-3.28792">
        <ele>155.2</ele>
        <time>2021-08-10T09:47:37Z</time>
      </trkpt>
      <trkpt lat="48.2012" lon="-3.28798">
        <ele>155.2</ele>
        <time>2021-08-10T09:47:38Z</time>
      </trkpt>
      <trkpt lat="48.2012" lon="-3.28805">
        <ele>155.2</ele>
        <time>2021-08-10T09:47:39Z</time>
      </trkpt>
      <trkpt lat="48.2012" lon="-3.28811">
        <ele>155.2</ele>
        <time>2021-08-10T09:47:40Z</time>
      </trkpt>
      <trkpt lat="48.2012" lon="-3.28818">
        <ele>155.2</ele>
        <time>2021-08-10T09:47:41Z</time>
      </trkpt>
      <trkpt lat="48.2012" lon="-3.28825">
        <ele>155.2</ele>
        <time>2021-08-10T09:47:42Z</time>
      </trkpt>
      <trkpt lat="48.2012" lon="-3.28832">
        <ele>155.2</ele>
        <time>2021-08-10T09:47:43Z</time>
      </trkpt>
      <trkpt lat="48.2012" lon="-3.2884">
        <ele>155.4</ele>
        <time>2021-08-10T09:47:44Z</time>
      </trkpt>
      <trkpt lat="48.2012" lon="-3.28847">
        <ele>155.4</ele>
        <time>2021-08-10T09:47:45Z</time>
      </trkpt>
      <trkpt lat="48.2012" lon="-3.28854">
        <ele>155.6</ele>
        <time>2021-08-10T09:47:46Z</time>
      </trkpt>
      <trkpt lat="48.2012" lon="-3.28861">
        <ele>155.6</ele>
        <time>2021-08-10T09:47:47Z</time>
      </trkpt>
      <trkpt lat="48.2012" lon="-3.28868">
        <ele>155.6</ele>
        <time>2021-08-10T09:47:48Z</time>
      </trkpt>
      <trkpt lat="48.20121" lon="-3.28875">
        <ele>155.6</ele>
        <time>2021-08-10T09:47:49Z</time>
      </trkpt>
      <trkpt lat="48.20121" lon="-3.28882">
        <ele>155.6</ele>
        <time>2021-08-10T09:47:50Z</time>
      </trkpt>
      <trkpt lat="48.20122" lon="-3.28889">
        <ele>155.6</ele>
        <time>2021-08-10T09:47:51Z</time>
      </trkpt>
      <trkpt lat="48.20122" lon="-3.28896">
        <ele>155.6</ele>
        <time>2021-08-10T09:47:52Z</time>
      </trkpt>
      <trkpt lat="48.20122" lon="-3.28903">
        <ele>155.6</ele>
        <time>2021-08-10T09:47:53Z</time>
      </trkpt>
      <trkpt lat="48.20122" lon="-3.28909">
        <ele>155.6</ele>
        <time>2021-08-10T09:47:54Z</time>
      </trkpt>
      <trkpt lat="48.20122" lon="-3.28916">
        <ele>155.6</ele>
        <time>2021-08-10T09:47:55Z</time>
      </trkpt>
      <trkpt lat="48.20122" lon="-3.28923">
        <ele>155.6</ele>
        <time>2021-08-10T09:47:56Z</time>
      </trkpt>
      <trkpt lat="48.20122" lon="-3.2893">
        <ele>155.6</ele>
        <time>2021-08-10T09:47:57Z</time>
      </trkpt>
      <trkpt lat="48.20123" lon="-3.28936">
        <ele>155.6</ele>
        <time>2021-08-10T09:47:58Z</time>
      </trkpt>
      <trkpt lat="48.20124" lon="-3.28942">
        <ele>155.4</ele>
        <time>2021-08-10T09:47:59Z</time>
      </trkpt>
      <trkpt lat="48.20124" lon="-3.28948">
        <ele>155.4</ele>
        <time>2021-08-10T09:48:00Z</time>
      </trkpt>
      <trkpt lat="48.20126" lon="-3.28954">
        <ele>155.4</ele>
        <time>2021-08-10T09:48:01Z</time>
      </trkpt>
      <trkpt lat="48.20128" lon="-3.2896">
        <ele>155.4</ele>
        <time>2021-08-10T09:48:02Z</time>
      </trkpt>
      <trkpt lat="48.2013" lon="-3.28966">
        <ele>155.4</ele>
        <time>2021-08-10T09:48:03Z</time>
      </trkpt>
      <trkpt lat="48.20132" lon="-3.28972">
        <ele>155.4</ele>
        <time>2021-08-10T09:48:04Z</time>
      </trkpt>
      <trkpt lat="48.20134" lon="-3.28978">
        <ele>155.4</ele>
        <time>2021-08-10T09:48:05Z</time>
      </trkpt>
      <trkpt lat="48.20136" lon="-3.28985">
        <ele>155.4</ele>
        <time>2021-08-10T09:48:06Z</time>
      </trkpt>
      <trkpt lat="48.20138" lon="-3.28991">
        <ele>155.4</ele>
        <time>2021-08-10T09:48:07Z</time>
      </trkpt>
      <trkpt lat="48.20141" lon="-3.28997">
        <ele>155.4</ele>
        <time>2021-08-10T09:48:08Z</time>
      </trkpt>
      <trkpt lat="48.20144" lon="-3.29004">
        <ele>155.4</ele>
        <time>2021-08-10T09:48:09Z</time>
      </trkpt>
      <trkpt lat="48.20146" lon="-3.2901">
        <ele>155.4</ele>
        <time>2021-08-10T09:48:10Z</time>
      </trkpt>
      <trkpt lat="48.20149" lon="-3.29016">
        <ele>155.4</ele>
        <time>2021-08-10T09:48:11Z</time>
      </trkpt>
      <trkpt lat="48.20152" lon="-3.29021">
        <ele>155.4</ele>
        <time>2021-08-10T09:48:12Z</time>
      </trkpt>
      <trkpt lat="48.20155" lon="-3.29027">
        <ele>155.6</ele>
        <time>2021-08-10T09:48:13Z</time>
      </trkpt>
      <trkpt lat="48.20158" lon="-3.29032">
        <ele>155.6</ele>
        <time>2021-08-10T09:48:14Z</time>
      </trkpt>
      <trkpt lat="48.20161" lon="-3.29037">
        <ele>155.6</ele>
        <time>2021-08-10T09:48:15Z</time>
      </trkpt>
      <trkpt lat="48.20164" lon="-3.29043">
        <ele>155.6</ele>
        <time>2021-08-10T09:48:16Z</time>
      </trkpt>
      <trkpt lat="48.20167" lon="-3.29048">
        <ele>155.6</ele>
        <time>2021-08-10T09:48:17Z</time>
      </trkpt>
      <trkpt lat="48.20171" lon="-3.29054">
        <ele>155.6</ele>
        <time>2021-08-10T09:48:18Z</time>
      </trkpt>
      <trkpt lat="48.20174" lon="-3.29059">
        <ele>155.6</ele>
        <time>2021-08-10T09:48:19Z</time>
      </trkpt>
      <trkpt lat="48.20177" lon="-3.29064">
        <ele>155.6</ele>
        <time>2021-08-10T09:48:20Z</time>
      </trkpt>
      <trkpt lat="48.2018" lon="-3.29068">
        <ele>155.6</ele>
        <time>2021-08-10T09:48:21Z</time>
      </trkpt>
      <trkpt lat="48.20183" lon="-3.29073">
        <ele>155.4</ele>
        <time>2021-08-10T09:48:22Z</time>
      </trkpt>
      <trkpt lat="48.20186" lon="-3.29078">
        <ele>155.4</ele>
        <time>2021-08-10T09:48:23Z</time>
      </trkpt>
      <trkpt lat="48.20189" lon="-3.29082">
        <ele>155.4</ele>
        <time>2021-08-10T09:48:24Z</time>
      </trkpt>
      <trkpt lat="48.20192" lon="-3.29086">
        <ele>155.4</ele>
        <time>2021-08-10T09:48:25Z</time>
      </trkpt>
      <trkpt lat="48.20196" lon="-3.2909">
        <ele>155.4</ele>
        <time>2021-08-10T09:48:26Z</time>
      </trkpt>
      <trkpt lat="48.20199" lon="-3.29094">
        <ele>155.4</ele>
        <time>2021-08-10T09:48:27Z</time>
      </trkpt>
      <trkpt lat="48.20202" lon="-3.29099">
        <ele>155.4</ele>
        <time>2021-08-10T09:48:28Z</time>
      </trkpt>
      <trkpt lat="48.20205" lon="-3.29104">
        <ele>155.4</ele>
        <time>2021-08-10T09:48:29Z</time>
      </trkpt>
      <trkpt lat="48.20208" lon="-3.29108">
        <ele>155.4</ele>
        <time>2021-08-10T09:48:30Z</time>
      </trkpt>
      <trkpt lat="48.20211" lon="-3.29114">
        <ele>155.4</ele>
        <time>2021-08-10T09:48:31Z</time>
      </trkpt>
      <trkpt lat="48.20214" lon="-3.29119">
        <ele>155.4</ele>
        <time>2021-08-10T09:48:32Z</time>
      </trkpt>
      <trkpt lat="48.20217" lon="-3.29125">
        <ele>155.4</ele>
        <time>2021-08-10T09:48:33Z</time>
      </trkpt>
      <trkpt lat="48.2022" lon="-3.29131">
        <ele>155.4</ele>
        <time>2021-08-10T09:48:34Z</time>
      </trkpt>
      <trkpt lat="48.20222" lon="-3.29136">
        <ele>155.4</ele>
        <time>2021-08-10T09:48:35Z</time>
      </trkpt>
      <trkpt lat="48.20225" lon="-3.29141">
        <ele>155.4</ele>
        <time>2021-08-10T09:48:36Z</time>
      </trkpt>
      <trkpt lat="48.20228" lon="-3.29146">
        <ele>155.4</ele>
        <time>2021-08-10T09:48:37Z</time>
      </trkpt>
      <trkpt lat="48.2023" lon="-3.29151">
        <ele>155.4</ele>
        <time>2021-08-10T09:48:38Z</time>
      </trkpt>
      <trkpt lat="48.20233" lon="-3.29155">
        <ele>155.4</ele>
        <time>2021-08-10T09:48:39Z</time>
      </trkpt>
      <trkpt lat="48.20235" lon="-3.29159">
        <ele>155.6</ele>
        <time>2021-08-10T09:48:40Z</time>
      </trkpt>
      <trkpt lat="48.20238" lon="-3.29162">
        <ele>155.6</ele>
        <time>2021-08-10T09:48:41Z</time>
      </trkpt>
      <trkpt lat="48.2024" lon="-3.29166">
        <ele>155.6</ele>
        <time>2021-08-10T09:48:42Z</time>
      </trkpt>
      <trkpt lat="48.20242" lon="-3.2917">
        <ele>155.6</ele>
        <time>2021-08-10T09:48:43Z</time>
      </trkpt>
      <trkpt lat="48.20244" lon="-3.29173">
        <ele>155.6</ele>
        <time>2021-08-10T09:48:44Z</time>
      </trkpt>
      <trkpt lat="48.20247" lon="-3.29177">
        <ele>155.6</ele>
        <time>2021-08-10T09:48:45Z</time>
      </trkpt>
      <trkpt lat="48.20249" lon="-3.29181">
        <ele>155.8</ele>
        <time>2021-08-10T09:48:46Z</time>
      </trkpt>
      <trkpt lat="48.20251" lon="-3.29185">
        <ele>156</ele>
        <time>2021-08-10T09:48:47Z</time>
      </trkpt>
      <trkpt lat="48.20254" lon="-3.29189">
        <ele>156.2</ele>
        <time>2021-08-10T09:48:48Z</time>
      </trkpt>
      <trkpt lat="48.20256" lon="-3.29193">
        <ele>156.6</ele>
        <time>2021-08-10T09:48:49Z</time>
      </trkpt>
      <trkpt lat="48.20259" lon="-3.29197">
        <ele>156.8</ele>
        <time>2021-08-10T09:48:50Z</time>
      </trkpt>
      <trkpt lat="48.20261" lon="-3.29201">
        <ele>157.4</ele>
        <time>2021-08-10T09:48:51Z</time>
      </trkpt>
      <trkpt lat="48.20264" lon="-3.29205">
        <ele>157.6</ele>
        <time>2021-08-10T09:48:52Z</time>
      </trkpt>
      <trkpt lat="48.20266" lon="-3.29209">
        <ele>157.8</ele>
        <time>2021-08-10T09:48:53Z</time>
      </trkpt>
      <trkpt lat="48.20268" lon="-3.29213">
        <ele>158</ele>
        <time>2021-08-10T09:48:54Z</time>
      </trkpt>
      <trkpt lat="48.20271" lon="-3.29216">
        <ele>158</ele>
        <time>2021-08-10T09:48:55Z</time>
      </trkpt>
      <trkpt lat="48.20274" lon="-3.29221">
        <ele>158.2</ele>
        <time>2021-08-10T09:48:56Z</time>
      </trkpt>
      <trkpt lat="48.20277" lon="-3.29225">
        <ele>158.2</ele>
        <time>2021-08-10T09:48:57Z</time>
      </trkpt>
      <trkpt lat="48.20279" lon="-3.2923">
        <ele>158.2</ele>
        <time>2021-08-10T09:48:58Z</time>
      </trkpt>
      <trkpt lat="48.20282" lon="-3.29235">
        <ele>158.2</ele>
        <time>2021-08-10T09:48:59Z</time>
      </trkpt>
      <trkpt lat="48.20285" lon="-3.2924">
        <ele>158.2</ele>
        <time>2021-08-10T09:49:00Z</time>
      </trkpt>
      <trkpt lat="48.20288" lon="-3.29245">
        <ele>158.2</ele>
        <time>2021-08-10T09:49:01Z</time>
      </trkpt>
      <trkpt lat="48.20291" lon="-3.2925">
        <ele>158.2</ele>
        <time>2021-08-10T09:49:02Z</time>
      </trkpt>
      <trkpt lat="48.20293" lon="-3.29256">
        <ele>158</ele>
        <time>2021-08-10T09:49:03Z</time>
      </trkpt>
      <trkpt lat="48.20295" lon="-3.2926">
        <ele>158</ele>
        <time>2021-08-10T09:49:04Z</time>
      </trkpt>
      <trkpt lat="48.20298" lon="-3.29265">
        <ele>157.8</ele>
        <time>2021-08-10T09:49:05Z</time>
      </trkpt>
      <trkpt lat="48.20301" lon="-3.29269">
        <ele>157.8</ele>
        <time>2021-08-10T09:49:06Z</time>
      </trkpt>
      <trkpt lat="48.20304" lon="-3.29274">
        <ele>157.8</ele>
        <time>2021-08-10T09:49:07Z</time>
      </trkpt>
      <trkpt lat="48.20307" lon="-3.29278">
        <ele>157.8</ele>
        <time>2021-08-10T09:49:08Z</time>
      </trkpt>
      <trkpt lat="48.2031" lon="-3.29284">
        <ele>157.8</ele>
        <time>2021-08-10T09:49:09Z</time>
      </trkpt>
      <trkpt lat="48.20313" lon="-3.29288">
        <ele>157.8</ele>
        <time>2021-08-10T09:49:10Z</time>
      </trkpt>
      <trkpt lat="48.20316" lon="-3.29293">
        <ele>157.8</ele>
        <time>2021-08-10T09:49:11Z</time>
      </trkpt>
      <trkpt lat="48.2032" lon="-3.29299">
        <ele>157.8</ele>
        <time>2021-08-10T09:49:12Z</time>
      </trkpt>
      <trkpt lat="48.20323" lon="-3.29303">
        <ele>157.8</ele>
        <time>2021-08-10T09:49:13Z</time>
      </trkpt>
      <trkpt lat="48.20326" lon="-3.29308">
        <ele>157.8</ele>
        <time>2021-08-10T09:49:14Z</time>
      </trkpt>
      <trkpt lat="48.20328" lon="-3.29313">
        <ele>157.8</ele>
        <time>2021-08-10T09:49:15Z</time>
      </trkpt>
      <trkpt lat="48.20331" lon="-3.29318">
        <ele>157.8</ele>
        <time>2021-08-10T09:49:16Z</time>
      </trkpt>
      <trkpt lat="48.20334" lon="-3.29323">
        <ele>157.8</ele>
        <time>2021-08-10T09:49:17Z</time>
      </trkpt>
      <trkpt lat="48.20338" lon="-3.29328">
        <ele>157.8</ele>
        <time>2021-08-10T09:49:18Z</time>
      </trkpt>
      <trkpt lat="48.20341" lon="-3.29333">
        <ele>157.8</ele>
        <time>2021-08-10T09:49:19Z</time>
      </trkpt>
      <trkpt lat="48.20344" lon="-3.29338">
        <ele>157.8</ele>
        <time>2021-08-10T09:49:20Z</time>
      </trkpt>
      <trkpt lat="48.20347" lon="-3.29343">
        <ele>157.8</ele>
        <time>2021-08-10T09:49:21Z</time>
      </trkpt>
      <trkpt lat="48.2035" lon="-3.29349">
        <ele>157.8</ele>
        <time>2021-08-10T09:49:22Z</time>
      </trkpt>
      <trkpt lat="48.20353" lon="-3.29356">
        <ele>157.8</ele>
        <time>2021-08-10T09:49:23Z</time>
      </trkpt>
      <trkpt lat="48.20357" lon="-3.29362">
        <ele>157.8</ele>
        <time>2021-08-10T09:49:24Z</time>
      </trkpt>
      <trkpt lat="48.2036" lon="-3.29368">
        <ele>157.8</ele>
        <time>2021-08-10T09:49:25Z</time>
      </trkpt>
      <trkpt lat="48.20363" lon="-3.29374">
        <ele>157.8</ele>
        <time>2021-08-10T09:49:26Z</time>
      </trkpt>
      <trkpt lat="48.20367" lon="-3.29379">
        <ele>157.6</ele>
        <time>2021-08-10T09:49:27Z</time>
      </trkpt>
      <trkpt lat="48.2037" lon="-3.29385">
        <ele>157.6</ele>
        <time>2021-08-10T09:49:28Z</time>
      </trkpt>
      <trkpt lat="48.20373" lon="-3.2939">
        <ele>157.6</ele>
        <time>2021-08-10T09:49:29Z</time>
      </trkpt>
      <trkpt lat="48.20377" lon="-3.29395">
        <ele>157.6</ele>
        <time>2021-08-10T09:49:30Z</time>
      </trkpt>
      <trkpt lat="48.2038" lon="-3.294">
        <ele>157.6</ele>
        <time>2021-08-10T09:49:31Z</time>
      </trkpt>
      <trkpt lat="48.20384" lon="-3.29406">
        <ele>157.6</ele>
        <time>2021-08-10T09:49:32Z</time>
      </trkpt>
      <trkpt lat="48.20387" lon="-3.29411">
        <ele>157.6</ele>
        <time>2021-08-10T09:49:33Z</time>
      </trkpt>
      <trkpt lat="48.20391" lon="-3.29415">
        <ele>157.6</ele>
        <time>2021-08-10T09:49:34Z</time>
      </trkpt>
      <trkpt lat="48.20395" lon="-3.29421">
        <ele>157.6</ele>
        <time>2021-08-10T09:49:35Z</time>
      </trkpt>
      <trkpt lat="48.20398" lon="-3.29426">
        <ele>157.6</ele>
        <time>2021-08-10T09:49:36Z</time>
      </trkpt>
      <trkpt lat="48.20402" lon="-3.29432">
        <ele>157.6</ele>
        <time>2021-08-10T09:49:37Z</time>
      </trkpt>
      <trkpt lat="48.20405" lon="-3.29438">
        <ele>157.6</ele>
        <time>2021-08-10T09:49:38Z</time>
      </trkpt>
      <trkpt lat="48.20409" lon="-3.29444">
        <ele>157.6</ele>
        <time>2021-08-10T09:49:39Z</time>
      </trkpt>
      <trkpt lat="48.20412" lon="-3.29449">
        <ele>157.6</ele>
        <time>2021-08-10T09:49:40Z</time>
      </trkpt>
      <trkpt lat="48.20415" lon="-3.29455">
        <ele>157.6</ele>
        <time>2021-08-10T09:49:41Z</time>
      </trkpt>
      <trkpt lat="48.20417" lon="-3.2946">
        <ele>157.6</ele>
        <time>2021-08-10T09:49:42Z</time>
      </trkpt>
      <trkpt lat="48.2042" lon="-3.29465">
        <ele>157.6</ele>
        <time>2021-08-10T09:49:43Z</time>
      </trkpt>
      <trkpt lat="48.20423" lon="-3.2947">
        <ele>157.6</ele>
        <time>2021-08-10T09:49:44Z</time>
      </trkpt>
      <trkpt lat="48.20426" lon="-3.29475">
        <ele>157.6</ele>
        <time>2021-08-10T09:49:45Z</time>
      </trkpt>
      <trkpt lat="48.20428" lon="-3.2948">
        <ele>157.4</ele>
        <time>2021-08-10T09:49:46Z</time>
      </trkpt>
      <trkpt lat="48.20431" lon="-3.29485">
        <ele>157.4</ele>
        <time>2021-08-10T09:49:47Z</time>
      </trkpt>
      <trkpt lat="48.20434" lon="-3.2949">
        <ele>157.2</ele>
        <time>2021-08-10T09:49:48Z</time>
      </trkpt>
      <trkpt lat="48.20437" lon="-3.29496">
        <ele>157</ele>
        <time>2021-08-10T09:49:49Z</time>
      </trkpt>
      <trkpt lat="48.20439" lon="-3.29502">
        <ele>157</ele>
        <time>2021-08-10T09:49:50Z</time>
      </trkpt>
      <trkpt lat="48.2044" lon="-3.29507">
        <ele>156.8</ele>
        <time>2021-08-10T09:49:51Z</time>
      </trkpt>
      <trkpt lat="48.20442" lon="-3.29512">
        <ele>156.8</ele>
        <time>2021-08-10T09:49:52Z</time>
      </trkpt>
      <trkpt lat="48.20445" lon="-3.29518">
        <ele>156.8</ele>
        <time>2021-08-10T09:49:53Z</time>
      </trkpt>
      <trkpt lat="48.20447" lon="-3.29523">
        <ele>156.8</ele>
        <time>2021-08-10T09:49:54Z</time>
      </trkpt>
      <trkpt lat="48.20448" lon="-3.29529">
        <ele>156.8</ele>
        <time>2021-08-10T09:49:55Z</time>
      </trkpt>
      <trkpt lat="48.2045" lon="-3.29534">
        <ele>156.8</ele>
        <time>2021-08-10T09:49:56Z</time>
      </trkpt>
      <trkpt lat="48.20452" lon="-3.29539">
        <ele>156.8</ele>
        <time>2021-08-10T09:49:57Z</time>
      </trkpt>
      <trkpt lat="48.20453" lon="-3.29544">
        <ele>156.8</ele>
        <time>2021-08-10T09:49:58Z</time>
      </trkpt>
      <trkpt lat="48.20454" lon="-3.2955">
        <ele>156.8</ele>
        <time>2021-08-10T09:49:59Z</time>
      </trkpt>
      <trkpt lat="48.20455" lon="-3.29555">
        <ele>156.8</ele>
        <time>2021-08-10T09:50:00Z</time>
      </trkpt>
      <trkpt lat="48.20457" lon="-3.29561">
        <ele>156.8</ele>
        <time>2021-08-10T09:50:01Z</time>
      </trkpt>
      <trkpt lat="48.20458" lon="-3.29567">
        <ele>156.8</ele>
        <time>2021-08-10T09:50:02Z</time>
      </trkpt>
      <trkpt lat="48.2046" lon="-3.29574">
        <ele>157</ele>
        <time>2021-08-10T09:50:03Z</time>
      </trkpt>
      <trkpt lat="48.20461" lon="-3.2958">
        <ele>157</ele>
        <time>2021-08-10T09:50:04Z</time>
      </trkpt>
      <trkpt lat="48.20461" lon="-3.29587">
        <ele>157</ele>
        <time>2021-08-10T09:50:05Z</time>
      </trkpt>
      <trkpt lat="48.20462" lon="-3.29594">
        <ele>157.2</ele>
        <time>2021-08-10T09:50:06Z</time>
      </trkpt>
      <trkpt lat="48.20463" lon="-3.296">
        <ele>157.2</ele>
        <time>2021-08-10T09:50:07Z</time>
      </trkpt>
      <trkpt lat="48.20463" lon="-3.29607">
        <ele>157.4</ele>
        <time>2021-08-10T09:50:08Z</time>
      </trkpt>
      <trkpt lat="48.20464" lon="-3.29615">
        <ele>157.4</ele>
        <time>2021-08-10T09:50:09Z</time>
      </trkpt>
      <trkpt lat="48.20464" lon="-3.29622">
        <ele>157.4</ele>
        <time>2021-08-10T09:50:10Z</time>
      </trkpt>
      <trkpt lat="48.20465" lon="-3.29629">
        <ele>157.4</ele>
        <time>2021-08-10T09:50:11Z</time>
      </trkpt>
      <trkpt lat="48.20466" lon="-3.29637">
        <ele>157.4</ele>
        <time>2021-08-10T09:50:12Z</time>
      </trkpt>
      <trkpt lat="48.20465" lon="-3.29646">
        <ele>157.4</ele>
        <time>2021-08-10T09:50:13Z</time>
      </trkpt>
      <trkpt lat="48.20466" lon="-3.29653">
        <ele>157.4</ele>
        <time>2021-08-10T09:50:14Z</time>
      </trkpt>
      <trkpt lat="48.20466" lon="-3.29661">
        <ele>157.4</ele>
        <time>2021-08-10T09:50:15Z</time>
      </trkpt>
      <trkpt lat="48.20467" lon="-3.29668">
        <ele>157.4</ele>
        <time>2021-08-10T09:50:16Z</time>
      </trkpt>
      <trkpt lat="48.20467" lon="-3.29676">
        <ele>157.4</ele>
        <time>2021-08-10T09:50:17Z</time>
      </trkpt>
      <trkpt lat="48.20468" lon="-3.29684">
        <ele>157.4</ele>
        <time>2021-08-10T09:50:18Z</time>
      </trkpt>
      <trkpt lat="48.20469" lon="-3.29692">
        <ele>157.4</ele>
        <time>2021-08-10T09:50:19Z</time>
      </trkpt>
      <trkpt lat="48.20469" lon="-3.297">
        <ele>157.4</ele>
        <time>2021-08-10T09:50:20Z</time>
      </trkpt>
      <trkpt lat="48.20469" lon="-3.29708">
        <ele>157.4</ele>
        <time>2021-08-10T09:50:21Z</time>
      </trkpt>
      <trkpt lat="48.2047" lon="-3.29716">
        <ele>157.4</ele>
        <time>2021-08-10T09:50:22Z</time>
      </trkpt>
      <trkpt lat="48.20471" lon="-3.29723">
        <ele>157.4</ele>
        <time>2021-08-10T09:50:23Z</time>
      </trkpt>
      <trkpt lat="48.20471" lon="-3.29731">
        <ele>157.4</ele>
        <time>2021-08-10T09:50:24Z</time>
      </trkpt>
      <trkpt lat="48.20472" lon="-3.29738">
        <ele>157.4</ele>
        <time>2021-08-10T09:50:25Z</time>
      </trkpt>
      <trkpt lat="48.20472" lon="-3.29745">
        <ele>157.4</ele>
        <time>2021-08-10T09:50:26Z</time>
      </trkpt>
      <trkpt lat="48.20472" lon="-3.29753">
        <ele>157.4</ele>
        <time>2021-08-10T09:50:27Z</time>
      </trkpt>
      <trkpt lat="48.20473" lon="-3.2976">
        <ele>157.4</ele>
        <time>2021-08-10T09:50:28Z</time>
      </trkpt>
      <trkpt lat="48.20474" lon="-3.29768">
        <ele>157.4</ele>
        <time>2021-08-10T09:50:29Z</time>
      </trkpt>
      <trkpt lat="48.20475" lon="-3.29775">
        <ele>157.4</ele>
        <time>2021-08-10T09:50:30Z</time>
      </trkpt>
      <trkpt lat="48.20475" lon="-3.29783">
        <ele>157.4</ele>
        <time>2021-08-10T09:50:31Z</time>
      </trkpt>
      <trkpt lat="48.20476" lon="-3.2979">
        <ele>157.4</ele>
        <time>2021-08-10T09:50:32Z</time>
      </trkpt>
      <trkpt lat="48.20476" lon="-3.29798">
        <ele>157.4</ele>
        <time>2021-08-10T09:50:33Z</time>
      </trkpt>
      <trkpt lat="48.20477" lon="-3.29806">
        <ele>157.4</ele>
        <time>2021-08-10T09:50:34Z</time>
      </trkpt>
      <trkpt lat="48.20477" lon="-3.29813">
        <ele>157.4</ele>
        <time>2021-08-10T09:50:35Z</time>
      </trkpt>
      <trkpt lat="48.20478" lon="-3.29821">
        <ele>157.4</ele>
        <time>2021-08-10T09:50:36Z</time>
      </trkpt>
      <trkpt lat="48.20479" lon="-3.29829">
        <ele>157.4</ele>
        <time>2021-08-10T09:50:37Z</time>
      </trkpt>
      <trkpt lat="48.20479" lon="-3.29836">
        <ele>157.4</ele>
        <time>2021-08-10T09:50:38Z</time>
      </trkpt>
      <trkpt lat="48.2048" lon="-3.29844">
        <ele>157.4</ele>
        <time>2021-08-10T09:50:39Z</time>
      </trkpt>
      <trkpt lat="48.2048" lon="-3.29852">
        <ele>157.4</ele>
        <time>2021-08-10T09:50:40Z</time>
      </trkpt>
      <trkpt lat="48.20481" lon="-3.29859">
        <ele>157.4</ele>
        <time>2021-08-10T09:50:41Z</time>
      </trkpt>
      <trkpt lat="48.20481" lon="-3.29867">
        <ele>157.4</ele>
        <time>2021-08-10T09:50:42Z</time>
      </trkpt>
      <trkpt lat="48.20481" lon="-3.29874">
        <ele>157.4</ele>
        <time>2021-08-10T09:50:43Z</time>
      </trkpt>
      <trkpt lat="48.20482" lon="-3.29882">
        <ele>157.4</ele>
        <time>2021-08-10T09:50:44Z</time>
      </trkpt>
      <trkpt lat="48.20482" lon="-3.29889">
        <ele>157.4</ele>
        <time>2021-08-10T09:50:45Z</time>
      </trkpt>
      <trkpt lat="48.20483" lon="-3.29896">
        <ele>157.4</ele>
        <time>2021-08-10T09:50:46Z</time>
      </trkpt>
      <trkpt lat="48.20483" lon="-3.29904">
        <ele>157.4</ele>
        <time>2021-08-10T09:50:47Z</time>
      </trkpt>
      <trkpt lat="48.20484" lon="-3.29912">
        <ele>157.4</ele>
        <time>2021-08-10T09:50:48Z</time>
      </trkpt>
      <trkpt lat="48.20485" lon="-3.29919">
        <ele>157.4</ele>
        <time>2021-08-10T09:50:49Z</time>
      </trkpt>
      <trkpt lat="48.20486" lon="-3.29927">
        <ele>157.4</ele>
        <time>2021-08-10T09:50:50Z</time>
      </trkpt>
      <trkpt lat="48.20486" lon="-3.29934">
        <ele>157.4</ele>
        <time>2021-08-10T09:50:51Z</time>
      </trkpt>
      <trkpt lat="48.20487" lon="-3.29941">
        <ele>157.4</ele>
        <time>2021-08-10T09:50:52Z</time>
      </trkpt>
      <trkpt lat="48.20487" lon="-3.29949">
        <ele>157.4</ele>
        <time>2021-08-10T09:50:53Z</time>
      </trkpt>
      <trkpt lat="48.20488" lon="-3.29956">
        <ele>157.4</ele>
        <time>2021-08-10T09:50:54Z</time>
      </trkpt>
      <trkpt lat="48.20488" lon="-3.29962">
        <ele>157.6</ele>
        <time>2021-08-10T09:50:55Z</time>
      </trkpt>
      <trkpt lat="48.20489" lon="-3.2997">
        <ele>157.6</ele>
        <time>2021-08-10T09:50:56Z</time>
      </trkpt>
      <trkpt lat="48.20489" lon="-3.29977">
        <ele>157.6</ele>
        <time>2021-08-10T09:50:57Z</time>
      </trkpt>
      <trkpt lat="48.2049" lon="-3.29984">
        <ele>157.6</ele>
        <time>2021-08-10T09:50:58Z</time>
      </trkpt>
      <trkpt lat="48.2049" lon="-3.29992">
        <ele>157.6</ele>
        <time>2021-08-10T09:50:59Z</time>
      </trkpt>
      <trkpt lat="48.20491" lon="-3.29999">
        <ele>157.6</ele>
        <time>2021-08-10T09:51:00Z</time>
      </trkpt>
      <trkpt lat="48.20492" lon="-3.30005">
        <ele>157.6</ele>
        <time>2021-08-10T09:51:01Z</time>
      </trkpt>
      <trkpt lat="48.20492" lon="-3.30012">
        <ele>157.6</ele>
        <time>2021-08-10T09:51:02Z</time>
      </trkpt>
      <trkpt lat="48.20492" lon="-3.30019">
        <ele>157.6</ele>
        <time>2021-08-10T09:51:03Z</time>
      </trkpt>
      <trkpt lat="48.20493" lon="-3.30026">
        <ele>157.6</ele>
        <time>2021-08-10T09:51:04Z</time>
      </trkpt>
      <trkpt lat="48.20494" lon="-3.30033">
        <ele>157.6</ele>
        <time>2021-08-10T09:51:05Z</time>
      </trkpt>
      <trkpt lat="48.20494" lon="-3.30041">
        <ele>157.6</ele>
        <time>2021-08-10T09:51:06Z</time>
      </trkpt>
      <trkpt lat="48.20496" lon="-3.30049">
        <ele>157.6</ele>
        <time>2021-08-10T09:51:07Z</time>
      </trkpt>
      <trkpt lat="48.20497" lon="-3.30056">
        <ele>157.6</ele>
        <time>2021-08-10T09:51:08Z</time>
      </trkpt>
      <trkpt lat="48.20498" lon="-3.30063">
        <ele>157.6</ele>
        <time>2021-08-10T09:51:09Z</time>
      </trkpt>
      <trkpt lat="48.20499" lon="-3.3007">
        <ele>157.6</ele>
        <time>2021-08-10T09:51:10Z</time>
      </trkpt>
      <trkpt lat="48.205" lon="-3.30078">
        <ele>157.6</ele>
        <time>2021-08-10T09:51:11Z</time>
      </trkpt>
      <trkpt lat="48.205" lon="-3.30085">
        <ele>157.6</ele>
        <time>2021-08-10T09:51:12Z</time>
      </trkpt>
      <trkpt lat="48.20501" lon="-3.30093">
        <ele>157.6</ele>
        <time>2021-08-10T09:51:13Z</time>
      </trkpt>
      <trkpt lat="48.20502" lon="-3.301">
        <ele>157.6</ele>
        <time>2021-08-10T09:51:14Z</time>
      </trkpt>
      <trkpt lat="48.20503" lon="-3.30108">
        <ele>157.6</ele>
        <time>2021-08-10T09:51:15Z</time>
      </trkpt>
      <trkpt lat="48.20503" lon="-3.30115">
        <ele>157.6</ele>
        <time>2021-08-10T09:51:16Z</time>
      </trkpt>
      <trkpt lat="48.20504" lon="-3.30123">
        <ele>157.6</ele>
        <time>2021-08-10T09:51:17Z</time>
      </trkpt>
      <trkpt lat="48.20504" lon="-3.3013">
        <ele>157.6</ele>
        <time>2021-08-10T09:51:18Z</time>
      </trkpt>
      <trkpt lat="48.20505" lon="-3.30138">
        <ele>157.6</ele>
        <time>2021-08-10T09:51:19Z</time>
      </trkpt>
      <trkpt lat="48.20505" lon="-3.30145">
        <ele>157.4</ele>
        <time>2021-08-10T09:51:20Z</time>
      </trkpt>
      <trkpt lat="48.20506" lon="-3.30153">
        <ele>157.4</ele>
        <time>2021-08-10T09:51:21Z</time>
      </trkpt>
      <trkpt lat="48.20506" lon="-3.3016">
        <ele>157.4</ele>
        <time>2021-08-10T09:51:22Z</time>
      </trkpt>
      <trkpt lat="48.20506" lon="-3.30167">
        <ele>157.2</ele>
        <time>2021-08-10T09:51:23Z</time>
      </trkpt>
      <trkpt lat="48.20507" lon="-3.30175">
        <ele>157.2</ele>
        <time>2021-08-10T09:51:24Z</time>
      </trkpt>
      <trkpt lat="48.20507" lon="-3.30182">
        <ele>157.2</ele>
        <time>2021-08-10T09:51:25Z</time>
      </trkpt>
      <trkpt lat="48.20508" lon="-3.30189">
        <ele>157.2</ele>
        <time>2021-08-10T09:51:26Z</time>
      </trkpt>
      <trkpt lat="48.20508" lon="-3.30196">
        <ele>157.2</ele>
        <time>2021-08-10T09:51:27Z</time>
      </trkpt>
      <trkpt lat="48.20509" lon="-3.30203">
        <ele>157.2</ele>
        <time>2021-08-10T09:51:28Z</time>
      </trkpt>
      <trkpt lat="48.20509" lon="-3.3021">
        <ele>157</ele>
        <time>2021-08-10T09:51:29Z</time>
      </trkpt>
      <trkpt lat="48.20509" lon="-3.30218">
        <ele>157</ele>
        <time>2021-08-10T09:51:30Z</time>
      </trkpt>
      <trkpt lat="48.2051" lon="-3.30225">
        <ele>157</ele>
        <time>2021-08-10T09:51:31Z</time>
      </trkpt>
      <trkpt lat="48.2051" lon="-3.30232">
        <ele>157</ele>
        <time>2021-08-10T09:51:32Z</time>
      </trkpt>
      <trkpt lat="48.2051" lon="-3.3024">
        <ele>157</ele>
        <time>2021-08-10T09:51:33Z</time>
      </trkpt>
      <trkpt lat="48.20511" lon="-3.30248">
        <ele>157.2</ele>
        <time>2021-08-10T09:51:34Z</time>
      </trkpt>
      <trkpt lat="48.20511" lon="-3.30255">
        <ele>157.2</ele>
        <time>2021-08-10T09:51:35Z</time>
      </trkpt>
      <trkpt lat="48.20511" lon="-3.30263">
        <ele>157.2</ele>
        <time>2021-08-10T09:51:36Z</time>
      </trkpt>
      <trkpt lat="48.20512" lon="-3.3027">
        <ele>157.2</ele>
        <time>2021-08-10T09:51:37Z</time>
      </trkpt>
      <trkpt lat="48.20512" lon="-3.30277">
        <ele>157.2</ele>
        <time>2021-08-10T09:51:38Z</time>
      </trkpt>
      <trkpt lat="48.20513" lon="-3.30284">
        <ele>157.2</ele>
        <time>2021-08-10T09:51:39Z</time>
      </trkpt>
      <trkpt lat="48.20513" lon="-3.30291">
        <ele>157.2</ele>
        <time>2021-08-10T09:51:40Z</time>
      </trkpt>
      <trkpt lat="48.20514" lon="-3.30298">
        <ele>157.2</ele>
        <time>2021-08-10T09:51:41Z</time>
      </trkpt>
      <trkpt lat="48.20514" lon="-3.30306">
        <ele>157.2</ele>
        <time>2021-08-10T09:51:42Z</time>
      </trkpt>
      <trkpt lat="48.20514" lon="-3.30313">
        <ele>157.2</ele>
        <time>2021-08-10T09:51:43Z</time>
      </trkpt>
      <trkpt lat="48.20514" lon="-3.30321">
        <ele>157.2</ele>
        <time>2021-08-10T09:51:44Z</time>
      </trkpt>
      <trkpt lat="48.20514" lon="-3.30329">
        <ele>157.4</ele>
        <time>2021-08-10T09:51:45Z</time>
      </trkpt>
      <trkpt lat="48.20514" lon="-3.30336">
        <ele>157.4</ele>
        <time>2021-08-10T09:51:46Z</time>
      </trkpt>
      <trkpt lat="48.20514" lon="-3.30343">
        <ele>157.4</ele>
        <time>2021-08-10T09:51:47Z</time>
      </trkpt>
      <trkpt lat="48.20514" lon="-3.3035">
        <ele>157.4</ele>
        <time>2021-08-10T09:51:48Z</time>
      </trkpt>
      <trkpt lat="48.20514" lon="-3.30356">
        <ele>157.4</ele>
        <time>2021-08-10T09:51:49Z</time>
      </trkpt>
      <trkpt lat="48.20513" lon="-3.30363">
        <ele>157.4</ele>
        <time>2021-08-10T09:51:50Z</time>
      </trkpt>
      <trkpt lat="48.20513" lon="-3.3037">
        <ele>157.4</ele>
        <time>2021-08-10T09:51:51Z</time>
      </trkpt>
      <trkpt lat="48.20512" lon="-3.30377">
        <ele>157.4</ele>
        <time>2021-08-10T09:51:52Z</time>
      </trkpt>
      <trkpt lat="48.20512" lon="-3.30384">
        <ele>157.6</ele>
        <time>2021-08-10T09:51:53Z</time>
      </trkpt>
      <trkpt lat="48.20512" lon="-3.30391">
        <ele>157.8</ele>
        <time>2021-08-10T09:51:54Z</time>
      </trkpt>
      <trkpt lat="48.20512" lon="-3.30398">
        <ele>157.8</ele>
        <time>2021-08-10T09:51:55Z</time>
      </trkpt>
      <trkpt lat="48.20512" lon="-3.30405">
        <ele>157.8</ele>
        <time>2021-08-10T09:51:56Z</time>
      </trkpt>
      <trkpt lat="48.20511" lon="-3.30411">
        <ele>157.8</ele>
        <time>2021-08-10T09:51:57Z</time>
      </trkpt>
      <trkpt lat="48.20511" lon="-3.30418">
        <ele>157.8</ele>
        <time>2021-08-10T09:51:58Z</time>
      </trkpt>
      <trkpt lat="48.20511" lon="-3.30423">
        <ele>158</ele>
        <time>2021-08-10T09:51:59Z</time>
      </trkpt>
      <trkpt lat="48.2051" lon="-3.30429">
        <ele>158</ele>
        <time>2021-08-10T09:52:00Z</time>
      </trkpt>
      <trkpt lat="48.2051" lon="-3.30435">
        <ele>158.2</ele>
        <time>2021-08-10T09:52:01Z</time>
      </trkpt>
      <trkpt lat="48.20511" lon="-3.30441">
        <ele>158.2</ele>
        <time>2021-08-10T09:52:02Z</time>
      </trkpt>
      <trkpt lat="48.20511" lon="-3.30446">
        <ele>158.4</ele>
        <time>2021-08-10T09:52:03Z</time>
      </trkpt>
      <trkpt lat="48.20511" lon="-3.30452">
        <ele>158.4</ele>
        <time>2021-08-10T09:52:04Z</time>
      </trkpt>
      <trkpt lat="48.2051" lon="-3.30459">
        <ele>158.4</ele>
        <time>2021-08-10T09:52:05Z</time>
      </trkpt>
      <trkpt lat="48.2051" lon="-3.30464">
        <ele>158.4</ele>
        <time>2021-08-10T09:52:06Z</time>
      </trkpt>
      <trkpt lat="48.2051" lon="-3.30469">
        <ele>158.6</ele>
        <time>2021-08-10T09:52:07Z</time>
      </trkpt>
      <trkpt lat="48.2051" lon="-3.30473">
        <ele>158.6</ele>
        <time>2021-08-10T09:52:08Z</time>
      </trkpt>
      <trkpt lat="48.2051" lon="-3.30477">
        <ele>158.8</ele>
        <time>2021-08-10T09:52:09Z</time>
      </trkpt>
      <trkpt lat="48.2051" lon="-3.3048">
        <ele>158.8</ele>
        <time>2021-08-10T09:52:10Z</time>
      </trkpt>
      <trkpt lat="48.2051" lon="-3.30482">
        <ele>159</ele>
        <time>2021-08-10T09:52:11Z</time>
      </trkpt>
      <trkpt lat="48.20509" lon="-3.30485">
        <ele>159.4</ele>
        <time>2021-08-10T09:52:12Z</time>
      </trkpt>
      <trkpt lat="48.20509" lon="-3.30488">
        <ele>159.6</ele>
        <time>2021-08-10T09:52:13Z</time>
      </trkpt>
      <trkpt lat="48.20509" lon="-3.30491">
        <ele>160.2</ele>
        <time>2021-08-10T09:52:14Z</time>
      </trkpt>
      <trkpt lat="48.20509" lon="-3.30494">
        <ele>160.4</ele>
        <time>2021-08-10T09:52:15Z</time>
      </trkpt>
      <trkpt lat="48.20509" lon="-3.30497">
        <ele>160.6</ele>
        <time>2021-08-10T09:52:16Z</time>
      </trkpt>
      <trkpt lat="48.20508" lon="-3.30501">
        <ele>160.8</ele>
        <time>2021-08-10T09:52:17Z</time>
      </trkpt>
      <trkpt lat="48.20508" lon="-3.30505">
        <ele>161</ele>
        <time>2021-08-10T09:52:18Z</time>
      </trkpt>
      <trkpt lat="48.20508" lon="-3.30508">
        <ele>161</ele>
        <time>2021-08-10T09:52:19Z</time>
      </trkpt>
      <trkpt lat="48.20507" lon="-3.30511">
        <ele>161</ele>
        <time>2021-08-10T09:52:20Z</time>
      </trkpt>
      <trkpt lat="48.20507" lon="-3.30515">
        <ele>161.2</ele>
        <time>2021-08-10T09:52:21Z</time>
      </trkpt>
      <trkpt lat="48.20507" lon="-3.30518">
        <ele>161.2</ele>
        <time>2021-08-10T09:52:22Z</time>
      </trkpt>
      <trkpt lat="48.20507" lon="-3.30521">
        <ele>161.2</ele>
        <time>2021-08-10T09:52:23Z</time>
      </trkpt>
      <trkpt lat="48.20506" lon="-3.30524">
        <ele>161.2</ele>
        <time>2021-08-10T09:52:24Z</time>
      </trkpt>
      <trkpt lat="48.20506" lon="-3.30526">
        <ele>161.2</ele>
        <time>2021-08-10T09:52:25Z</time>
      </trkpt>
      <trkpt lat="48.20506" lon="-3.30529">
        <ele>161.2</ele>
        <time>2021-08-10T09:52:26Z</time>
      </trkpt>
      <trkpt lat="48.20506" lon="-3.30532">
        <ele>161.2</ele>
        <time>2021-08-10T09:52:27Z</time>
      </trkpt>
      <trkpt lat="48.20506" lon="-3.30535">
        <ele>161.2</ele>
        <time>2021-08-10T09:52:28Z</time>
      </trkpt>
      <trkpt lat="48.20506" lon="-3.30538">
        <ele>161.2</ele>
        <time>2021-08-10T09:52:29Z</time>
      </trkpt>
      <trkpt lat="48.20506" lon="-3.30542">
        <ele>161.2</ele>
        <time>2021-08-10T09:52:30Z</time>
      </trkpt>
      <trkpt lat="48.20506" lon="-3.30544">
        <ele>161.2</ele>
        <time>2021-08-10T09:52:31Z</time>
      </trkpt>
      <trkpt lat="48.20506" lon="-3.30547">
        <ele>161.2</ele>
        <time>2021-08-10T09:52:32Z</time>
      </trkpt>
      <trkpt lat="48.20506" lon="-3.30549">
        <ele>161.2</ele>
        <time>2021-08-10T09:52:33Z</time>
      </trkpt>
      <trkpt lat="48.20506" lon="-3.30552">
        <ele>161.2</ele>
        <time>2021-08-10T09:52:34Z</time>
      </trkpt>
      <trkpt lat="48.20507" lon="-3.30554">
        <ele>161.2</ele>
        <time>2021-08-10T09:52:35Z</time>
      </trkpt>
      <trkpt lat="48.20507" lon="-3.30556">
        <ele>161.2</ele>
        <time>2021-08-10T09:52:36Z</time>
      </trkpt>
      <trkpt lat="48.20507" lon="-3.30556">
        <ele>161.2</ele>
        <time>2021-08-10T09:52:37Z</time>
      </trkpt>
      <trkpt lat="48.20507" lon="-3.30557">
        <ele>161.2</ele>
        <time>2021-08-10T09:52:38Z</time>
      </trkpt>
      <trkpt lat="48.20507" lon="-3.30558">
        <ele>161.2</ele>
        <time>2021-08-10T09:52:39Z</time>
      </trkpt>
      <trkpt lat="48.20507" lon="-3.30559">
        <ele>161.2</ele>
        <time>2021-08-10T09:52:40Z</time>
      </trkpt>
      <trkpt lat="48.20507" lon="-3.30559">
        <ele>161.4</ele>
        <time>2021-08-10T09:53:00Z</time>
      </trkpt>
      <trkpt lat="48.20507" lon="-3.30559">
        <ele>161.4</ele>
        <time>2021-08-10T09:53:01Z</time>
      </trkpt>
      <trkpt lat="48.20506" lon="-3.30559">
        <ele>161.2</ele>
        <time>2021-08-10T09:53:02Z</time>
      </trkpt>
      <trkpt lat="48.20506" lon="-3.30559">
        <ele>161.2</ele>
        <time>2021-08-10T09:53:03Z</time>
      </trkpt>
      <trkpt lat="48.20506" lon="-3.30558">
        <ele>161.2</ele>
        <time>2021-08-10T09:53:04Z</time>
      </trkpt>
      <trkpt lat="48.20507" lon="-3.30556">
        <ele>161.2</ele>
        <time>2021-08-10T09:53:05Z</time>
      </trkpt>
      <trkpt lat="48.20508" lon="-3.30546">
        <ele>161</ele>
        <time>2021-08-10T09:53:10Z</time>
      </trkpt>
      <trkpt lat="48.20508" lon="-3.30543">
        <ele>161</ele>
        <time>2021-08-10T09:53:11Z</time>
      </trkpt>
      <trkpt lat="48.20508" lon="-3.3054">
        <ele>161</ele>
        <time>2021-08-10T09:53:12Z</time>
      </trkpt>
      <trkpt lat="48.20508" lon="-3.30538">
        <ele>161</ele>
        <time>2021-08-10T09:53:13Z</time>
      </trkpt>
      <trkpt lat="48.20508" lon="-3.30536">
        <ele>161</ele>
        <time>2021-08-10T09:53:14Z</time>
      </trkpt>
      <trkpt lat="48.20507" lon="-3.30533">
        <ele>161</ele>
        <time>2021-08-10T09:53:15Z</time>
      </trkpt>
      <trkpt lat="48.20507" lon="-3.30532">
        <ele>160.8</ele>
        <time>2021-08-10T09:53:16Z</time>
      </trkpt>
      <trkpt lat="48.20506" lon="-3.30531">
        <ele>160.8</ele>
        <time>2021-08-10T09:53:17Z</time>
      </trkpt>
      <trkpt lat="48.20506" lon="-3.30531">
        <ele>160.8</ele>
        <time>2021-08-10T09:53:18Z</time>
      </trkpt>
      <trkpt lat="48.20506" lon="-3.30531">
        <ele>160.8</ele>
        <time>2021-08-10T09:53:19Z</time>
      </trkpt>
      <trkpt lat="48.20506" lon="-3.30531">
        <ele>160.8</ele>
        <time>2021-08-10T09:53:20Z</time>
      </trkpt>
      <trkpt lat="48.20506" lon="-3.30535">
        <ele>161.4</ele>
        <time>2021-08-10T09:54:35Z</time>
      </trkpt>
      <trkpt lat="48.20506" lon="-3.30535">
        <ele>161.4</ele>
        <time>2021-08-10T09:54:36Z</time>
      </trkpt>
      <trkpt lat="48.20507" lon="-3.30535">
        <ele>161.4</ele>
        <time>2021-08-10T09:54:37Z</time>
      </trkpt>
      <trkpt lat="48.20507" lon="-3.30537">
        <ele>161.4</ele>
        <time>2021-08-10T09:54:38Z</time>
      </trkpt>
      <trkpt lat="48.20507" lon="-3.30539">
        <ele>161.4</ele>
        <time>2021-08-10T09:54:39Z</time>
      </trkpt>
      <trkpt lat="48.20507" lon="-3.30542">
        <ele>161.4</ele>
        <time>2021-08-10T09:54:40Z</time>
      </trkpt>
      <trkpt lat="48.20506" lon="-3.30544">
        <ele>161.4</ele>
        <time>2021-08-10T09:54:41Z</time>
      </trkpt>
      <trkpt lat="48.20506" lon="-3.30547">
        <ele>161.4</ele>
        <time>2021-08-10T09:54:42Z</time>
      </trkpt>
      <trkpt lat="48.20506" lon="-3.30549">
        <ele>161.4</ele>
        <time>2021-08-10T09:54:43Z</time>
      </trkpt>
      <trkpt lat="48.20507" lon="-3.30551">
        <ele>161.2</ele>
        <time>2021-08-10T09:54:44Z</time>
      </trkpt>
      <trkpt lat="48.20507" lon="-3.30553">
        <ele>161.2</ele>
        <time>2021-08-10T09:54:45Z</time>
      </trkpt>
      <trkpt lat="48.20507" lon="-3.30555">
        <ele>161.2</ele>
        <time>2021-08-10T09:54:46Z</time>
      </trkpt>
      <trkpt lat="48.20508" lon="-3.30556">
        <ele>161.2</ele>
        <time>2021-08-10T09:54:47Z</time>
      </trkpt>
      <trkpt lat="48.20508" lon="-3.30557">
        <ele>161.2</ele>
        <time>2021-08-10T09:54:48Z</time>
      </trkpt>
      <trkpt lat="48.20508" lon="-3.30557">
        <ele>161.2</ele>
        <time>2021-08-10T09:54:49Z</time>
      </trkpt>
      <trkpt lat="48.20505" lon="-3.30588">
        <ele>161.2</ele>
        <time>2021-08-10T10:04:27Z</time>
      </trkpt>
      <trkpt lat="48.20505" lon="-3.30591">
        <ele>161.2</ele>
        <time>2021-08-10T10:04:28Z</time>
      </trkpt>
      <trkpt lat="48.20505" lon="-3.30595">
        <ele>161.2</ele>
        <time>2021-08-10T10:04:29Z</time>
      </trkpt>
      <trkpt lat="48.20505" lon="-3.30599">
        <ele>161.2</ele>
        <time>2021-08-10T10:04:30Z</time>
      </trkpt>
      <trkpt lat="48.20506" lon="-3.30604">
        <ele>161.2</ele>
        <time>2021-08-10T10:04:31Z</time>
      </trkpt>
      <trkpt lat="48.20506" lon="-3.3061">
        <ele>161.2</ele>
        <time>2021-08-10T10:04:32Z</time>
      </trkpt>
      <trkpt lat="48.20507" lon="-3.30616">
        <ele>161.2</ele>
        <time>2021-08-10T10:04:33Z</time>
      </trkpt>
      <trkpt lat="48.20507" lon="-3.30622">
        <ele>161</ele>
        <time>2021-08-10T10:04:34Z</time>
      </trkpt>
      <trkpt lat="48.20508" lon="-3.30629">
        <ele>161</ele>
        <time>2021-08-10T10:04:35Z</time>
      </trkpt>
      <trkpt lat="48.20509" lon="-3.30635">
        <ele>160.8</ele>
        <time>2021-08-10T10:04:36Z</time>
      </trkpt>
      <trkpt lat="48.20511" lon="-3.30641">
        <ele>160.8</ele>
        <time>2021-08-10T10:04:37Z</time>
      </trkpt>
      <trkpt lat="48.20512" lon="-3.30647">
        <ele>160.6</ele>
        <time>2021-08-10T10:04:38Z</time>
      </trkpt>
      <trkpt lat="48.20514" lon="-3.30653">
        <ele>160.4</ele>
        <time>2021-08-10T10:04:39Z</time>
      </trkpt>
      <trkpt lat="48.20516" lon="-3.30659">
        <ele>160.4</ele>
        <time>2021-08-10T10:04:40Z</time>
      </trkpt>
      <trkpt lat="48.20518" lon="-3.30664">
        <ele>160.4</ele>
        <time>2021-08-10T10:04:41Z</time>
      </trkpt>
      <trkpt lat="48.20521" lon="-3.30669">
        <ele>160.2</ele>
        <time>2021-08-10T10:04:42Z</time>
      </trkpt>
      <trkpt lat="48.20523" lon="-3.30673">
        <ele>160.2</ele>
        <time>2021-08-10T10:04:43Z</time>
      </trkpt>
      <trkpt lat="48.20526" lon="-3.30678">
        <ele>160.2</ele>
        <time>2021-08-10T10:04:44Z</time>
      </trkpt>
      <trkpt lat="48.20529" lon="-3.30683">
        <ele>160.2</ele>
        <time>2021-08-10T10:04:45Z</time>
      </trkpt>
      <trkpt lat="48.20532" lon="-3.30688">
        <ele>160</ele>
        <time>2021-08-10T10:04:46Z</time>
      </trkpt>
      <trkpt lat="48.20535" lon="-3.30694">
        <ele>160</ele>
        <time>2021-08-10T10:04:47Z</time>
      </trkpt>
      <trkpt lat="48.20537" lon="-3.30699">
        <ele>160</ele>
        <time>2021-08-10T10:04:48Z</time>
      </trkpt>
      <trkpt lat="48.2054" lon="-3.30705">
        <ele>160</ele>
        <time>2021-08-10T10:04:49Z</time>
      </trkpt>
      <trkpt lat="48.20543" lon="-3.30712">
        <ele>160</ele>
        <time>2021-08-10T10:04:50Z</time>
      </trkpt>
      <trkpt lat="48.20546" lon="-3.30719">
        <ele>160</ele>
        <time>2021-08-10T10:04:51Z</time>
      </trkpt>
      <trkpt lat="48.20549" lon="-3.30724">
        <ele>160</ele>
        <time>2021-08-10T10:04:52Z</time>
      </trkpt>
      <trkpt lat="48.20552" lon="-3.30729">
        <ele>160</ele>
        <time>2021-08-10T10:04:53Z</time>
      </trkpt>
      <trkpt lat="48.20554" lon="-3.30734">
        <ele>160</ele>
        <time>2021-08-10T10:04:54Z</time>
      </trkpt>
      <trkpt lat="48.20557" lon="-3.30739">
        <ele>160</ele>
        <time>2021-08-10T10:04:55Z</time>
      </trkpt>
      <trkpt lat="48.2056" lon="-3.30745">
        <ele>160</ele>
        <time>2021-08-10T10:04:56Z</time>
      </trkpt>
      <trkpt lat="48.20563" lon="-3.3075">
        <ele>159.8</ele>
        <time>2021-08-10T10:04:57Z</time>
      </trkpt>
      <trkpt lat="48.20566" lon="-3.30756">
        <ele>159.8</ele>
        <time>2021-08-10T10:04:58Z</time>
      </trkpt>
      <trkpt lat="48.20569" lon="-3.3076">
        <ele>159.8</ele>
        <time>2021-08-10T10:04:59Z</time>
      </trkpt>
      <trkpt lat="48.20572" lon="-3.30765">
        <ele>159.8</ele>
        <time>2021-08-10T10:05:00Z</time>
      </trkpt>
      <trkpt lat="48.20575" lon="-3.30769">
        <ele>159.8</ele>
        <time>2021-08-10T10:05:01Z</time>
      </trkpt>
      <trkpt lat="48.20578" lon="-3.30775">
        <ele>159.8</ele>
        <time>2021-08-10T10:05:02Z</time>
      </trkpt>
      <trkpt lat="48.2058" lon="-3.3078">
        <ele>159.8</ele>
        <time>2021-08-10T10:05:03Z</time>
      </trkpt>
      <trkpt lat="48.20583" lon="-3.30785">
        <ele>160</ele>
        <time>2021-08-10T10:05:04Z</time>
      </trkpt>
      <trkpt lat="48.20585" lon="-3.3079">
        <ele>160</ele>
        <time>2021-08-10T10:05:05Z</time>
      </trkpt>
      <trkpt lat="48.20587" lon="-3.30795">
        <ele>160.2</ele>
        <time>2021-08-10T10:05:06Z</time>
      </trkpt>
      <trkpt lat="48.2059" lon="-3.30801">
        <ele>160.2</ele>
        <time>2021-08-10T10:05:07Z</time>
      </trkpt>
      <trkpt lat="48.20593" lon="-3.30807">
        <ele>160.2</ele>
        <time>2021-08-10T10:05:08Z</time>
      </trkpt>
      <trkpt lat="48.20595" lon="-3.30813">
        <ele>160.2</ele>
        <time>2021-08-10T10:05:09Z</time>
      </trkpt>
      <trkpt lat="48.20598" lon="-3.30819">
        <ele>160.2</ele>
        <time>2021-08-10T10:05:10Z</time>
      </trkpt>
      <trkpt lat="48.20601" lon="-3.30825">
        <ele>160.2</ele>
        <time>2021-08-10T10:05:11Z</time>
      </trkpt>
      <trkpt lat="48.20604" lon="-3.30832">
        <ele>160.2</ele>
        <time>2021-08-10T10:05:12Z</time>
      </trkpt>
      <trkpt lat="48.20607" lon="-3.30839">
        <ele>160.2</ele>
        <time>2021-08-10T10:05:13Z</time>
      </trkpt>
      <trkpt lat="48.2061" lon="-3.30845">
        <ele>160.2</ele>
        <time>2021-08-10T10:05:14Z</time>
      </trkpt>
      <trkpt lat="48.20613" lon="-3.30851">
        <ele>160.2</ele>
        <time>2021-08-10T10:05:15Z</time>
      </trkpt>
      <trkpt lat="48.20616" lon="-3.30857">
        <ele>160.2</ele>
        <time>2021-08-10T10:05:16Z</time>
      </trkpt>
      <trkpt lat="48.20619" lon="-3.30864">
        <ele>160.2</ele>
        <time>2021-08-10T10:05:17Z</time>
      </trkpt>
      <trkpt lat="48.20622" lon="-3.30871">
        <ele>160.2</ele>
        <time>2021-08-10T10:05:18Z</time>
      </trkpt>
      <trkpt lat="48.20625" lon="-3.30878">
        <ele>160</ele>
        <time>2021-08-10T10:05:19Z</time>
      </trkpt>
      <trkpt lat="48.20628" lon="-3.30885">
        <ele>160</ele>
        <time>2021-08-10T10:05:20Z</time>
      </trkpt>
      <trkpt lat="48.20631" lon="-3.30891">
        <ele>160.2</ele>
        <time>2021-08-10T10:05:21Z</time>
      </trkpt>
      <trkpt lat="48.20634" lon="-3.30898">
        <ele>160.2</ele>
        <time>2021-08-10T10:05:22Z</time>
      </trkpt>
      <trkpt lat="48.20637" lon="-3.30904">
        <ele>160</ele>
        <time>2021-08-10T10:05:23Z</time>
      </trkpt>
      <trkpt lat="48.2064" lon="-3.3091">
        <ele>160</ele>
        <time>2021-08-10T10:05:24Z</time>
      </trkpt>
      <trkpt lat="48.20643" lon="-3.30916">
        <ele>160</ele>
        <time>2021-08-10T10:05:25Z</time>
      </trkpt>
      <trkpt lat="48.20645" lon="-3.30922">
        <ele>160.2</ele>
        <time>2021-08-10T10:05:26Z</time>
      </trkpt>
      <trkpt lat="48.20648" lon="-3.30928">
        <ele>160</ele>
        <time>2021-08-10T10:05:27Z</time>
      </trkpt>
      <trkpt lat="48.2065" lon="-3.30934">
        <ele>159.8</ele>
        <time>2021-08-10T10:05:28Z</time>
      </trkpt>
      <trkpt lat="48.20653" lon="-3.3094">
        <ele>159.8</ele>
        <time>2021-08-10T10:05:29Z</time>
      </trkpt>
      <trkpt lat="48.20656" lon="-3.30946">
        <ele>160</ele>
        <time>2021-08-10T10:05:30Z</time>
      </trkpt>
      <trkpt lat="48.20658" lon="-3.30952">
        <ele>159.8</ele>
        <time>2021-08-10T10:05:31Z</time>
      </trkpt>
      <trkpt lat="48.20661" lon="-3.30958">
        <ele>159.8</ele>
        <time>2021-08-10T10:05:32Z</time>
      </trkpt>
      <trkpt lat="48.20664" lon="-3.30964">
        <ele>159.6</ele>
        <time>2021-08-10T10:05:33Z</time>
      </trkpt>
      <trkpt lat="48.20666" lon="-3.3097">
        <ele>159.6</ele>
        <time>2021-08-10T10:05:34Z</time>
      </trkpt>
      <trkpt lat="48.20669" lon="-3.30976">
        <ele>159.6</ele>
        <time>2021-08-10T10:05:35Z</time>
      </trkpt>
      <trkpt lat="48.20672" lon="-3.30981">
        <ele>159.6</ele>
        <time>2021-08-10T10:05:36Z</time>
      </trkpt>
      <trkpt lat="48.20676" lon="-3.30986">
        <ele>159.4</ele>
        <time>2021-08-10T10:05:37Z</time>
      </trkpt>
      <trkpt lat="48.2068" lon="-3.30992">
        <ele>159.4</ele>
        <time>2021-08-10T10:05:38Z</time>
      </trkpt>
      <trkpt lat="48.20683" lon="-3.30998">
        <ele>159.4</ele>
        <time>2021-08-10T10:05:39Z</time>
      </trkpt>
      <trkpt lat="48.20686" lon="-3.31003">
        <ele>159.4</ele>
        <time>2021-08-10T10:05:40Z</time>
      </trkpt>
      <trkpt lat="48.20689" lon="-3.31009">
        <ele>159.4</ele>
        <time>2021-08-10T10:05:41Z</time>
      </trkpt>
      <trkpt lat="48.20692" lon="-3.31015">
        <ele>159.4</ele>
        <time>2021-08-10T10:05:42Z</time>
      </trkpt>
      <trkpt lat="48.20695" lon="-3.31021">
        <ele>159.4</ele>
        <time>2021-08-10T10:05:43Z</time>
      </trkpt>
      <trkpt lat="48.20698" lon="-3.31027">
        <ele>159.4</ele>
        <time>2021-08-10T10:05:44Z</time>
      </trkpt>
      <trkpt lat="48.20702" lon="-3.31033">
        <ele>159.4</ele>
        <time>2021-08-10T10:05:45Z</time>
      </trkpt>
      <trkpt lat="48.20705" lon="-3.31039">
        <ele>159.4</ele>
        <time>2021-08-10T10:05:46Z</time>
      </trkpt>
      <trkpt lat="48.20708" lon="-3.31044">
        <ele>159.4</ele>
        <time>2021-08-10T10:05:47Z</time>
      </trkpt>
      <trkpt lat="48.20711" lon="-3.3105">
        <ele>159.4</ele>
        <time>2021-08-10T10:05:48Z</time>
      </trkpt>
      <trkpt lat="48.20714" lon="-3.31056">
        <ele>159.4</ele>
        <time>2021-08-10T10:05:49Z</time>
      </trkpt>
      <trkpt lat="48.20718" lon="-3.31063">
        <ele>159.4</ele>
        <time>2021-08-10T10:05:50Z</time>
      </trkpt>
      <trkpt lat="48.20721" lon="-3.31069">
        <ele>159.4</ele>
        <time>2021-08-10T10:05:51Z</time>
      </trkpt>
      <trkpt lat="48.20723" lon="-3.31076">
        <ele>159.4</ele>
        <time>2021-08-10T10:05:52Z</time>
      </trkpt>
      <trkpt lat="48.20726" lon="-3.31082">
        <ele>159.4</ele>
        <time>2021-08-10T10:05:53Z</time>
      </trkpt>
      <trkpt lat="48.20729" lon="-3.31088">
        <ele>159.4</ele>
        <time>2021-08-10T10:05:54Z</time>
      </trkpt>
      <trkpt lat="48.20732" lon="-3.31094">
        <ele>159.4</ele>
        <time>2021-08-10T10:05:55Z</time>
      </trkpt>
      <trkpt lat="48.20735" lon="-3.31099">
        <ele>159.4</ele>
        <time>2021-08-10T10:05:56Z</time>
      </trkpt>
      <trkpt lat="48.20738" lon="-3.31105">
        <ele>159.4</ele>
        <time>2021-08-10T10:05:57Z</time>
      </trkpt>
      <trkpt lat="48.20741" lon="-3.31111">
        <ele>159.4</ele>
        <time>2021-08-10T10:05:58Z</time>
      </trkpt>
      <trkpt lat="48.20744" lon="-3.31117">
        <ele>159.4</ele>
        <time>2021-08-10T10:05:59Z</time>
      </trkpt>
      <trkpt lat="48.20746" lon="-3.31123">
        <ele>159.4</ele>
        <time>2021-08-10T10:06:00Z</time>
      </trkpt>
      <trkpt lat="48.20749" lon="-3.31129">
        <ele>159.4</ele>
        <time>2021-08-10T10:06:01Z</time>
      </trkpt>
      <trkpt lat="48.20752" lon="-3.31135">
        <ele>159.4</ele>
        <time>2021-08-10T10:06:02Z</time>
      </trkpt>
      <trkpt lat="48.20755" lon="-3.31141">
        <ele>159.4</ele>
        <time>2021-08-10T10:06:03Z</time>
      </trkpt>
      <trkpt lat="48.20758" lon="-3.31147">
        <ele>159.4</ele>
        <time>2021-08-10T10:06:04Z</time>
      </trkpt>
      <trkpt lat="48.20761" lon="-3.31153">
        <ele>159.4</ele>
        <time>2021-08-10T10:06:05Z</time>
      </trkpt>
      <trkpt lat="48.20764" lon="-3.31159">
        <ele>159.2</ele>
        <time>2021-08-10T10:06:06Z</time>
      </trkpt>
      <trkpt lat="48.20766" lon="-3.31166">
        <ele>159.2</ele>
        <time>2021-08-10T10:06:07Z</time>
      </trkpt>
      <trkpt lat="48.2077" lon="-3.31172">
        <ele>159.2</ele>
        <time>2021-08-10T10:06:08Z</time>
      </trkpt>
      <trkpt lat="48.20773" lon="-3.31178">
        <ele>159.2</ele>
        <time>2021-08-10T10:06:09Z</time>
      </trkpt>
      <trkpt lat="48.20776" lon="-3.31183">
        <ele>159.2</ele>
        <time>2021-08-10T10:06:10Z</time>
      </trkpt>
      <trkpt lat="48.20779" lon="-3.31189">
        <ele>159.2</ele>
        <time>2021-08-10T10:06:11Z</time>
      </trkpt>
      <trkpt lat="48.20782" lon="-3.31195">
        <ele>159.2</ele>
        <time>2021-08-10T10:06:12Z</time>
      </trkpt>
      <trkpt lat="48.20785" lon="-3.31201">
        <ele>159.2</ele>
        <time>2021-08-10T10:06:13Z</time>
      </trkpt>
      <trkpt lat="48.20788" lon="-3.31206">
        <ele>159.2</ele>
        <time>2021-08-10T10:06:14Z</time>
      </trkpt>
      <trkpt lat="48.2079" lon="-3.31211">
        <ele>159.2</ele>
        <time>2021-08-10T10:06:15Z</time>
      </trkpt>
      <trkpt lat="48.20793" lon="-3.31217">
        <ele>159.2</ele>
        <time>2021-08-10T10:06:16Z</time>
      </trkpt>
      <trkpt lat="48.20795" lon="-3.31222">
        <ele>159.2</ele>
        <time>2021-08-10T10:06:17Z</time>
      </trkpt>
      <trkpt lat="48.20798" lon="-3.31229">
        <ele>159.2</ele>
        <time>2021-08-10T10:06:18Z</time>
      </trkpt>
      <trkpt lat="48.20801" lon="-3.31234">
        <ele>159.2</ele>
        <time>2021-08-10T10:06:19Z</time>
      </trkpt>
      <trkpt lat="48.20804" lon="-3.3124">
        <ele>159.2</ele>
        <time>2021-08-10T10:06:20Z</time>
      </trkpt>
      <trkpt lat="48.20807" lon="-3.31246">
        <ele>159.2</ele>
        <time>2021-08-10T10:06:21Z</time>
      </trkpt>
      <trkpt lat="48.2081" lon="-3.31252">
        <ele>159.4</ele>
        <time>2021-08-10T10:06:22Z</time>
      </trkpt>
      <trkpt lat="48.20813" lon="-3.31258">
        <ele>159.4</ele>
        <time>2021-08-10T10:06:23Z</time>
      </trkpt>
      <trkpt lat="48.20816" lon="-3.31265">
        <ele>159.6</ele>
        <time>2021-08-10T10:06:24Z</time>
      </trkpt>
      <trkpt lat="48.20819" lon="-3.31271">
        <ele>159.8</ele>
        <time>2021-08-10T10:06:25Z</time>
      </trkpt>
      <trkpt lat="48.20822" lon="-3.31277">
        <ele>159.8</ele>
        <time>2021-08-10T10:06:26Z</time>
      </trkpt>
      <trkpt lat="48.20825" lon="-3.31283">
        <ele>159.8</ele>
        <time>2021-08-10T10:06:27Z</time>
      </trkpt>
      <trkpt lat="48.20829" lon="-3.31288">
        <ele>160</ele>
        <time>2021-08-10T10:06:28Z</time>
      </trkpt>
      <trkpt lat="48.20832" lon="-3.31294">
        <ele>160</ele>
        <time>2021-08-10T10:06:29Z</time>
      </trkpt>
      <trkpt lat="48.20835" lon="-3.31301">
        <ele>160</ele>
        <time>2021-08-10T10:06:30Z</time>
      </trkpt>
      <trkpt lat="48.20839" lon="-3.31307">
        <ele>160</ele>
        <time>2021-08-10T10:06:31Z</time>
      </trkpt>
      <trkpt lat="48.20842" lon="-3.31314">
        <ele>160</ele>
        <time>2021-08-10T10:06:32Z</time>
      </trkpt>
      <trkpt lat="48.20845" lon="-3.3132">
        <ele>160</ele>
        <time>2021-08-10T10:06:33Z</time>
      </trkpt>
      <trkpt lat="48.20849" lon="-3.31326">
        <ele>160</ele>
        <time>2021-08-10T10:06:34Z</time>
      </trkpt>
      <trkpt lat="48.20851" lon="-3.31332">
        <ele>160</ele>
        <time>2021-08-10T10:06:35Z</time>
      </trkpt>
      <trkpt lat="48.20854" lon="-3.31338">
        <ele>160</ele>
        <time>2021-08-10T10:06:36Z</time>
      </trkpt>
      <trkpt lat="48.20856" lon="-3.31343">
        <ele>160</ele>
        <time>2021-08-10T10:06:37Z</time>
      </trkpt>
      <trkpt lat="48.20859" lon="-3.31349">
        <ele>160</ele>
        <time>2021-08-10T10:06:38Z</time>
      </trkpt>
      <trkpt lat="48.20862" lon="-3.31355">
        <ele>160</ele>
        <time>2021-08-10T10:06:39Z</time>
      </trkpt>
      <trkpt lat="48.20865" lon="-3.31361">
        <ele>160</ele>
        <time>2021-08-10T10:06:40Z</time>
      </trkpt>
      <trkpt lat="48.20868" lon="-3.31367">
        <ele>160</ele>
        <time>2021-08-10T10:06:41Z</time>
      </trkpt>
      <trkpt lat="48.2087" lon="-3.31372">
        <ele>160</ele>
        <time>2021-08-10T10:06:42Z</time>
      </trkpt>
      <trkpt lat="48.20873" lon="-3.31378">
        <ele>160</ele>
        <time>2021-08-10T10:06:43Z</time>
      </trkpt>
      <trkpt lat="48.20876" lon="-3.31384">
        <ele>160</ele>
        <time>2021-08-10T10:06:44Z</time>
      </trkpt>
      <trkpt lat="48.20879" lon="-3.3139">
        <ele>160</ele>
        <time>2021-08-10T10:06:45Z</time>
      </trkpt>
      <trkpt lat="48.20882" lon="-3.31396">
        <ele>160</ele>
        <time>2021-08-10T10:06:46Z</time>
      </trkpt>
      <trkpt lat="48.20885" lon="-3.31402">
        <ele>160</ele>
        <time>2021-08-10T10:06:47Z</time>
      </trkpt>
      <trkpt lat="48.20888" lon="-3.31408">
        <ele>160</ele>
        <time>2021-08-10T10:06:48Z</time>
      </trkpt>
      <trkpt lat="48.20891" lon="-3.31414">
        <ele>160</ele>
        <time>2021-08-10T10:06:49Z</time>
      </trkpt>
      <trkpt lat="48.20895" lon="-3.31421">
        <ele>160</ele>
        <time>2021-08-10T10:06:50Z</time>
      </trkpt>
      <trkpt lat="48.20898" lon="-3.31427">
        <ele>160</ele>
        <time>2021-08-10T10:06:51Z</time>
      </trkpt>
      <trkpt lat="48.20901" lon="-3.31434">
        <ele>160</ele>
        <time>2021-08-10T10:06:52Z</time>
      </trkpt>
      <trkpt lat="48.20905" lon="-3.31442">
        <ele>160</ele>
        <time>2021-08-10T10:06:53Z</time>
      </trkpt>
      <trkpt lat="48.20908" lon="-3.31449">
        <ele>159.8</ele>
        <time>2021-08-10T10:06:54Z</time>
      </trkpt>
      <trkpt lat="48.20912" lon="-3.31456">
        <ele>159.8</ele>
        <time>2021-08-10T10:06:55Z</time>
      </trkpt>
      <trkpt lat="48.20915" lon="-3.31462">
        <ele>159.8</ele>
        <time>2021-08-10T10:06:56Z</time>
      </trkpt>
      <trkpt lat="48.20918" lon="-3.31468">
        <ele>159.8</ele>
        <time>2021-08-10T10:06:57Z</time>
      </trkpt>
      <trkpt lat="48.2092" lon="-3.31474">
        <ele>159.8</ele>
        <time>2021-08-10T10:06:58Z</time>
      </trkpt>
      <trkpt lat="48.20923" lon="-3.31481">
        <ele>159.8</ele>
        <time>2021-08-10T10:06:59Z</time>
      </trkpt>
      <trkpt lat="48.20927" lon="-3.31487">
        <ele>159.8</ele>
        <time>2021-08-10T10:07:00Z</time>
      </trkpt>
      <trkpt lat="48.2093" lon="-3.31493">
        <ele>159.8</ele>
        <time>2021-08-10T10:07:01Z</time>
      </trkpt>
      <trkpt lat="48.20932" lon="-3.31499">
        <ele>159.8</ele>
        <time>2021-08-10T10:07:02Z</time>
      </trkpt>
      <trkpt lat="48.20936" lon="-3.31506">
        <ele>159.8</ele>
        <time>2021-08-10T10:07:03Z</time>
      </trkpt>
      <trkpt lat="48.20939" lon="-3.31512">
        <ele>159.8</ele>
        <time>2021-08-10T10:07:04Z</time>
      </trkpt>
      <trkpt lat="48.20942" lon="-3.31518">
        <ele>159.8</ele>
        <time>2021-08-10T10:07:05Z</time>
      </trkpt>
      <trkpt lat="48.20945" lon="-3.31524">
        <ele>159.8</ele>
        <time>2021-08-10T10:07:06Z</time>
      </trkpt>
      <trkpt lat="48.20948" lon="-3.31531">
        <ele>159.8</ele>
        <time>2021-08-10T10:07:07Z</time>
      </trkpt>
      <trkpt lat="48.20952" lon="-3.31538">
        <ele>159.8</ele>
        <time>2021-08-10T10:07:08Z</time>
      </trkpt>
      <trkpt lat="48.20955" lon="-3.31545">
        <ele>160</ele>
        <time>2021-08-10T10:07:09Z</time>
      </trkpt>
      <trkpt lat="48.20958" lon="-3.31551">
        <ele>160</ele>
        <time>2021-08-10T10:07:10Z</time>
      </trkpt>
      <trkpt lat="48.20961" lon="-3.31557">
        <ele>160</ele>
        <time>2021-08-10T10:07:11Z</time>
      </trkpt>
      <trkpt lat="48.20964" lon="-3.31563">
        <ele>160</ele>
        <time>2021-08-10T10:07:12Z</time>
      </trkpt>
      <trkpt lat="48.20967" lon="-3.31569">
        <ele>160</ele>
        <time>2021-08-10T10:07:13Z</time>
      </trkpt>
      <trkpt lat="48.20971" lon="-3.31575">
        <ele>160</ele>
        <time>2021-08-10T10:07:14Z</time>
      </trkpt>
      <trkpt lat="48.20974" lon="-3.3158">
        <ele>160</ele>
        <time>2021-08-10T10:07:15Z</time>
      </trkpt>
      <trkpt lat="48.20977" lon="-3.31585">
        <ele>160</ele>
        <time>2021-08-10T10:07:16Z</time>
      </trkpt>
      <trkpt lat="48.2098" lon="-3.3159">
        <ele>160</ele>
        <time>2021-08-10T10:07:17Z</time>
      </trkpt>
      <trkpt lat="48.20983" lon="-3.31596">
        <ele>160</ele>
        <time>2021-08-10T10:07:18Z</time>
      </trkpt>
      <trkpt lat="48.20986" lon="-3.31601">
        <ele>159.8</ele>
        <time>2021-08-10T10:07:19Z</time>
      </trkpt>
      <trkpt lat="48.20989" lon="-3.31607">
        <ele>159.8</ele>
        <time>2021-08-10T10:07:20Z</time>
      </trkpt>
      <trkpt lat="48.20992" lon="-3.31613">
        <ele>159.8</ele>
        <time>2021-08-10T10:07:21Z</time>
      </trkpt>
      <trkpt lat="48.20996" lon="-3.3162">
        <ele>160</ele>
        <time>2021-08-10T10:07:22Z</time>
      </trkpt>
      <trkpt lat="48.20999" lon="-3.31627">
        <ele>159.8</ele>
        <time>2021-08-10T10:07:23Z</time>
      </trkpt>
      <trkpt lat="48.21002" lon="-3.31633">
        <ele>159.8</ele>
        <time>2021-08-10T10:07:24Z</time>
      </trkpt>
      <trkpt lat="48.21005" lon="-3.31639">
        <ele>159.8</ele>
        <time>2021-08-10T10:07:25Z</time>
      </trkpt>
      <trkpt lat="48.21008" lon="-3.31645">
        <ele>159.8</ele>
        <time>2021-08-10T10:07:26Z</time>
      </trkpt>
      <trkpt lat="48.2101" lon="-3.31651">
        <ele>159.8</ele>
        <time>2021-08-10T10:07:27Z</time>
      </trkpt>
      <trkpt lat="48.21013" lon="-3.31656">
        <ele>159.8</ele>
        <time>2021-08-10T10:07:28Z</time>
      </trkpt>
      <trkpt lat="48.21016" lon="-3.31662">
        <ele>159.8</ele>
        <time>2021-08-10T10:07:29Z</time>
      </trkpt>
      <trkpt lat="48.21018" lon="-3.31666">
        <ele>159.8</ele>
        <time>2021-08-10T10:07:30Z</time>
      </trkpt>
      <trkpt lat="48.21021" lon="-3.3167">
        <ele>159.8</ele>
        <time>2021-08-10T10:07:31Z</time>
      </trkpt>
      <trkpt lat="48.21023" lon="-3.31674">
        <ele>160</ele>
        <time>2021-08-10T10:07:32Z</time>
      </trkpt>
      <trkpt lat="48.21026" lon="-3.31678">
        <ele>160</ele>
        <time>2021-08-10T10:07:33Z</time>
      </trkpt>
      <trkpt lat="48.21028" lon="-3.31683">
        <ele>160.2</ele>
        <time>2021-08-10T10:07:34Z</time>
      </trkpt>
      <trkpt lat="48.2103" lon="-3.31687">
        <ele>160.4</ele>
        <time>2021-08-10T10:07:35Z</time>
      </trkpt>
      <trkpt lat="48.21032" lon="-3.31692">
        <ele>160.6</ele>
        <time>2021-08-10T10:07:36Z</time>
      </trkpt>
      <trkpt lat="48.21035" lon="-3.31697">
        <ele>160.8</ele>
        <time>2021-08-10T10:07:37Z</time>
      </trkpt>
      <trkpt lat="48.21038" lon="-3.31701">
        <ele>161</ele>
        <time>2021-08-10T10:07:38Z</time>
      </trkpt>
      <trkpt lat="48.2104" lon="-3.31706">
        <ele>161.4</ele>
        <time>2021-08-10T10:07:39Z</time>
      </trkpt>
      <trkpt lat="48.21043" lon="-3.31712">
        <ele>161.8</ele>
        <time>2021-08-10T10:07:40Z</time>
      </trkpt>
      <trkpt lat="48.21045" lon="-3.31717">
        <ele>162</ele>
        <time>2021-08-10T10:07:41Z</time>
      </trkpt>
      <trkpt lat="48.21048" lon="-3.31722">
        <ele>162.2</ele>
        <time>2021-08-10T10:07:42Z</time>
      </trkpt>
      <trkpt lat="48.21051" lon="-3.31727">
        <ele>162.4</ele>
        <time>2021-08-10T10:07:43Z</time>
      </trkpt>
      <trkpt lat="48.21054" lon="-3.31733">
        <ele>162.4</ele>
        <time>2021-08-10T10:07:44Z</time>
      </trkpt>
      <trkpt lat="48.21057" lon="-3.31738">
        <ele>162.4</ele>
        <time>2021-08-10T10:07:45Z</time>
      </trkpt>
      <trkpt lat="48.2106" lon="-3.31743">
        <ele>162.4</ele>
        <time>2021-08-10T10:07:46Z</time>
      </trkpt>
      <trkpt lat="48.21062" lon="-3.31749">
        <ele>162.4</ele>
        <time>2021-08-10T10:07:47Z</time>
      </trkpt>
      <trkpt lat="48.21065" lon="-3.31754">
        <ele>162.4</ele>
        <time>2021-08-10T10:07:48Z</time>
      </trkpt>
      <trkpt lat="48.21068" lon="-3.31759">
        <ele>162.4</ele>
        <time>2021-08-10T10:07:49Z</time>
      </trkpt>
      <trkpt lat="48.21071" lon="-3.31765">
        <ele>162.4</ele>
        <time>2021-08-10T10:07:50Z</time>
      </trkpt>
      <trkpt lat="48.21074" lon="-3.3177">
        <ele>162.4</ele>
        <time>2021-08-10T10:07:51Z</time>
      </trkpt>
      <trkpt lat="48.21077" lon="-3.31776">
        <ele>162.2</ele>
        <time>2021-08-10T10:07:52Z</time>
      </trkpt>
      <trkpt lat="48.2108" lon="-3.31781">
        <ele>162.2</ele>
        <time>2021-08-10T10:07:53Z</time>
      </trkpt>
      <trkpt lat="48.21083" lon="-3.31786">
        <ele>162.2</ele>
        <time>2021-08-10T10:07:54Z</time>
      </trkpt>
      <trkpt lat="48.21086" lon="-3.31791">
        <ele>162.2</ele>
        <time>2021-08-10T10:07:55Z</time>
      </trkpt>
      <trkpt lat="48.21089" lon="-3.31796">
        <ele>162.2</ele>
        <time>2021-08-10T10:07:56Z</time>
      </trkpt>
      <trkpt lat="48.21092" lon="-3.31802">
        <ele>162.2</ele>
        <time>2021-08-10T10:07:57Z</time>
      </trkpt>
      <trkpt lat="48.21095" lon="-3.31808">
        <ele>162.2</ele>
        <time>2021-08-10T10:07:58Z</time>
      </trkpt>
      <trkpt lat="48.21098" lon="-3.31814">
        <ele>162.2</ele>
        <time>2021-08-10T10:07:59Z</time>
      </trkpt>
      <trkpt lat="48.21101" lon="-3.31821">
        <ele>162.2</ele>
        <time>2021-08-10T10:08:00Z</time>
      </trkpt>
      <trkpt lat="48.21103" lon="-3.31828">
        <ele>162.2</ele>
        <time>2021-08-10T10:08:01Z</time>
      </trkpt>
      <trkpt lat="48.21105" lon="-3.31835">
        <ele>162.2</ele>
        <time>2021-08-10T10:08:02Z</time>
      </trkpt>
      <trkpt lat="48.21107" lon="-3.31842">
        <ele>162.2</ele>
        <time>2021-08-10T10:08:03Z</time>
      </trkpt>
      <trkpt lat="48.21108" lon="-3.31849">
        <ele>162.2</ele>
        <time>2021-08-10T10:08:04Z</time>
      </trkpt>
      <trkpt lat="48.21108" lon="-3.31856">
        <ele>162.2</ele>
        <time>2021-08-10T10:08:05Z</time>
      </trkpt>
      <trkpt lat="48.21108" lon="-3.31863">
        <ele>162.2</ele>
        <time>2021-08-10T10:08:06Z</time>
      </trkpt>
      <trkpt lat="48.21109" lon="-3.31871">
        <ele>162.2</ele>
        <time>2021-08-10T10:08:07Z</time>
      </trkpt>
      <trkpt lat="48.21109" lon="-3.31878">
        <ele>162.2</ele>
        <time>2021-08-10T10:08:08Z</time>
      </trkpt>
      <trkpt lat="48.2111" lon="-3.31886">
        <ele>162</ele>
        <time>2021-08-10T10:08:09Z</time>
      </trkpt>
      <trkpt lat="48.2111" lon="-3.31894">
        <ele>162</ele>
        <time>2021-08-10T10:08:10Z</time>
      </trkpt>
      <trkpt lat="48.21109" lon="-3.31901">
        <ele>162</ele>
        <time>2021-08-10T10:08:11Z</time>
      </trkpt>
      <trkpt lat="48.21109" lon="-3.31908">
        <ele>162</ele>
        <time>2021-08-10T10:08:12Z</time>
      </trkpt>
      <trkpt lat="48.21109" lon="-3.31915">
        <ele>162</ele>
        <time>2021-08-10T10:08:13Z</time>
      </trkpt>
      <trkpt lat="48.21108" lon="-3.31922">
        <ele>162</ele>
        <time>2021-08-10T10:08:14Z</time>
      </trkpt>
      <trkpt lat="48.21108" lon="-3.31929">
        <ele>162</ele>
        <time>2021-08-10T10:08:15Z</time>
      </trkpt>
      <trkpt lat="48.21108" lon="-3.31935">
        <ele>162</ele>
        <time>2021-08-10T10:08:16Z</time>
      </trkpt>
      <trkpt lat="48.21108" lon="-3.3194">
        <ele>162</ele>
        <time>2021-08-10T10:08:17Z</time>
      </trkpt>
      <trkpt lat="48.2111" lon="-3.31944">
        <ele>162</ele>
        <time>2021-08-10T10:08:18Z</time>
      </trkpt>
      <trkpt lat="48.21112" lon="-3.31948">
        <ele>162</ele>
        <time>2021-08-10T10:08:19Z</time>
      </trkpt>
      <trkpt lat="48.21114" lon="-3.31951">
        <ele>162</ele>
        <time>2021-08-10T10:08:20Z</time>
      </trkpt>
      <trkpt lat="48.21116" lon="-3.31953">
        <ele>162.2</ele>
        <time>2021-08-10T10:08:21Z</time>
      </trkpt>
      <trkpt lat="48.21118" lon="-3.31955">
        <ele>162.2</ele>
        <time>2021-08-10T10:08:22Z</time>
      </trkpt>
      <trkpt lat="48.21119" lon="-3.31957">
        <ele>162.2</ele>
        <time>2021-08-10T10:08:23Z</time>
      </trkpt>
      <trkpt lat="48.2112" lon="-3.31959">
        <ele>162.4</ele>
        <time>2021-08-10T10:08:24Z</time>
      </trkpt>
      <trkpt lat="48.2112" lon="-3.31962">
        <ele>162.4</ele>
        <time>2021-08-10T10:08:25Z</time>
      </trkpt>
      <trkpt lat="48.21119" lon="-3.31963">
        <ele>162.4</ele>
        <time>2021-08-10T10:08:26Z</time>
      </trkpt>
      <trkpt lat="48.21119" lon="-3.31964">
        <ele>162.6</ele>
        <time>2021-08-10T10:08:27Z</time>
      </trkpt>
      <trkpt lat="48.21118" lon="-3.31965">
        <ele>162.8</ele>
        <time>2021-08-10T10:08:28Z</time>
      </trkpt>
      <trkpt lat="48.21118" lon="-3.31966">
        <ele>163</ele>
        <time>2021-08-10T10:08:29Z</time>
      </trkpt>
      <trkpt lat="48.21117" lon="-3.31967">
        <ele>163</ele>
        <time>2021-08-10T10:08:30Z</time>
      </trkpt>
      <trkpt lat="48.21116" lon="-3.3197">
        <ele>163.4</ele>
        <time>2021-08-10T10:08:31Z</time>
      </trkpt>
      <trkpt lat="48.21114" lon="-3.31972">
        <ele>163.6</ele>
        <time>2021-08-10T10:08:32Z</time>
      </trkpt>
      <trkpt lat="48.21111" lon="-3.31974">
        <ele>163.8</ele>
        <time>2021-08-10T10:08:33Z</time>
      </trkpt>
      <trkpt lat="48.21109" lon="-3.31978">
        <ele>164.2</ele>
        <time>2021-08-10T10:08:34Z</time>
      </trkpt>
      <trkpt lat="48.21107" lon="-3.31983">
        <ele>164.2</ele>
        <time>2021-08-10T10:08:35Z</time>
      </trkpt>
      <trkpt lat="48.21106" lon="-3.31989">
        <ele>164.2</ele>
        <time>2021-08-10T10:08:36Z</time>
      </trkpt>
      <trkpt lat="48.21105" lon="-3.31996">
        <ele>164.4</ele>
        <time>2021-08-10T10:08:37Z</time>
      </trkpt>
      <trkpt lat="48.21104" lon="-3.32003">
        <ele>164.4</ele>
        <time>2021-08-10T10:08:38Z</time>
      </trkpt>
      <trkpt lat="48.21103" lon="-3.32009">
        <ele>164.4</ele>
        <time>2021-08-10T10:08:39Z</time>
      </trkpt>
      <trkpt lat="48.21103" lon="-3.32016">
        <ele>164.4</ele>
        <time>2021-08-10T10:08:40Z</time>
      </trkpt>
      <trkpt lat="48.21102" lon="-3.32023">
        <ele>164.4</ele>
        <time>2021-08-10T10:08:41Z</time>
      </trkpt>
      <trkpt lat="48.211" lon="-3.3203">
        <ele>164.4</ele>
        <time>2021-08-10T10:08:42Z</time>
      </trkpt>
      <trkpt lat="48.21099" lon="-3.32037">
        <ele>164.2</ele>
        <time>2021-08-10T10:08:43Z</time>
      </trkpt>
      <trkpt lat="48.21098" lon="-3.32045">
        <ele>164.2</ele>
        <time>2021-08-10T10:08:44Z</time>
      </trkpt>
      <trkpt lat="48.21097" lon="-3.32052">
        <ele>164</ele>
        <time>2021-08-10T10:08:45Z</time>
      </trkpt>
      <trkpt lat="48.21097" lon="-3.32059">
        <ele>163.8</ele>
        <time>2021-08-10T10:08:46Z</time>
      </trkpt>
      <trkpt lat="48.21096" lon="-3.32066">
        <ele>163.6</ele>
        <time>2021-08-10T10:08:47Z</time>
      </trkpt>
      <trkpt lat="48.21095" lon="-3.32073">
        <ele>163.4</ele>
        <time>2021-08-10T10:08:48Z</time>
      </trkpt>
      <trkpt lat="48.21094" lon="-3.3208">
        <ele>163.2</ele>
        <time>2021-08-10T10:08:49Z</time>
      </trkpt>
      <trkpt lat="48.21093" lon="-3.32087">
        <ele>163.2</ele>
        <time>2021-08-10T10:08:50Z</time>
      </trkpt>
      <trkpt lat="48.21091" lon="-3.32094">
        <ele>163</ele>
        <time>2021-08-10T10:08:51Z</time>
      </trkpt>
      <trkpt lat="48.2109" lon="-3.32101">
        <ele>162.6</ele>
        <time>2021-08-10T10:08:52Z</time>
      </trkpt>
      <trkpt lat="48.2109" lon="-3.32109">
        <ele>162.4</ele>
        <time>2021-08-10T10:08:53Z</time>
      </trkpt>
      <trkpt lat="48.21089" lon="-3.32116">
        <ele>162.2</ele>
        <time>2021-08-10T10:08:54Z</time>
      </trkpt>
      <trkpt lat="48.21088" lon="-3.32123">
        <ele>162.2</ele>
        <time>2021-08-10T10:08:55Z</time>
      </trkpt>
      <trkpt lat="48.21088" lon="-3.32129">
        <ele>162</ele>
        <time>2021-08-10T10:08:56Z</time>
      </trkpt>
      <trkpt lat="48.21087" lon="-3.32134">
        <ele>162</ele>
        <time>2021-08-10T10:08:57Z</time>
      </trkpt>
      <trkpt lat="48.21087" lon="-3.32139">
        <ele>162</ele>
        <time>2021-08-10T10:08:58Z</time>
      </trkpt>
      <trkpt lat="48.21087" lon="-3.32144">
        <ele>162</ele>
        <time>2021-08-10T10:08:59Z</time>
      </trkpt>
      <trkpt lat="48.21086" lon="-3.32149">
        <ele>162</ele>
        <time>2021-08-10T10:09:00Z</time>
      </trkpt>
      <trkpt lat="48.21086" lon="-3.32155">
        <ele>162</ele>
        <time>2021-08-10T10:09:01Z</time>
      </trkpt>
      <trkpt lat="48.21085" lon="-3.3216">
        <ele>162</ele>
        <time>2021-08-10T10:09:02Z</time>
      </trkpt>
      <trkpt lat="48.21085" lon="-3.32164">
        <ele>162</ele>
        <time>2021-08-10T10:09:03Z</time>
      </trkpt>
      <trkpt lat="48.21084" lon="-3.32168">
        <ele>162.2</ele>
        <time>2021-08-10T10:09:04Z</time>
      </trkpt>
      <trkpt lat="48.21084" lon="-3.32172">
        <ele>162.4</ele>
        <time>2021-08-10T10:09:05Z</time>
      </trkpt>
      <trkpt lat="48.21084" lon="-3.32177">
        <ele>162.6</ele>
        <time>2021-08-10T10:09:06Z</time>
      </trkpt>
      <trkpt lat="48.21083" lon="-3.32181">
        <ele>162.6</ele>
        <time>2021-08-10T10:09:07Z</time>
      </trkpt>
      <trkpt lat="48.21083" lon="-3.32185">
        <ele>162.8</ele>
        <time>2021-08-10T10:09:08Z</time>
      </trkpt>
      <trkpt lat="48.21084" lon="-3.3219">
        <ele>162.8</ele>
        <time>2021-08-10T10:09:09Z</time>
      </trkpt>
      <trkpt lat="48.21084" lon="-3.32193">
        <ele>163</ele>
        <time>2021-08-10T10:09:10Z</time>
      </trkpt>
      <trkpt lat="48.21085" lon="-3.32196">
        <ele>163</ele>
        <time>2021-08-10T10:09:11Z</time>
      </trkpt>
      <trkpt lat="48.21084" lon="-3.32199">
        <ele>163</ele>
        <time>2021-08-10T10:09:12Z</time>
      </trkpt>
      <trkpt lat="48.21084" lon="-3.32202">
        <ele>163</ele>
        <time>2021-08-10T10:09:13Z</time>
      </trkpt>
      <trkpt lat="48.21084" lon="-3.32206">
        <ele>163</ele>
        <time>2021-08-10T10:09:14Z</time>
      </trkpt>
      <trkpt lat="48.21084" lon="-3.3221">
        <ele>163.2</ele>
        <time>2021-08-10T10:09:15Z</time>
      </trkpt>
      <trkpt lat="48.21085" lon="-3.32214">
        <ele>163.2</ele>
        <time>2021-08-10T10:09:16Z</time>
      </trkpt>
      <trkpt lat="48.21085" lon="-3.32219">
        <ele>163.2</ele>
        <time>2021-08-10T10:09:17Z</time>
      </trkpt>
      <trkpt lat="48.21084" lon="-3.32223">
        <ele>163.2</ele>
        <time>2021-08-10T10:09:18Z</time>
      </trkpt>
      <trkpt lat="48.21084" lon="-3.32228">
        <ele>163.2</ele>
        <time>2021-08-10T10:09:19Z</time>
      </trkpt>
      <trkpt lat="48.21083" lon="-3.32232">
        <ele>163.2</ele>
        <time>2021-08-10T10:09:20Z</time>
      </trkpt>
      <trkpt lat="48.21082" lon="-3.32236">
        <ele>163.4</ele>
        <time>2021-08-10T10:09:21Z</time>
      </trkpt>
      <trkpt lat="48.21082" lon="-3.32241">
        <ele>163.4</ele>
        <time>2021-08-10T10:09:22Z</time>
      </trkpt>
      <trkpt lat="48.21081" lon="-3.32247">
        <ele>163.4</ele>
        <time>2021-08-10T10:09:23Z</time>
      </trkpt>
      <trkpt lat="48.21081" lon="-3.32254">
        <ele>163.4</ele>
        <time>2021-08-10T10:09:24Z</time>
      </trkpt>
      <trkpt lat="48.21081" lon="-3.32261">
        <ele>163.4</ele>
        <time>2021-08-10T10:09:25Z</time>
      </trkpt>
      <trkpt lat="48.2108" lon="-3.32269">
        <ele>163.4</ele>
        <time>2021-08-10T10:09:26Z</time>
      </trkpt>
      <trkpt lat="48.21079" lon="-3.32277">
        <ele>163.4</ele>
        <time>2021-08-10T10:09:27Z</time>
      </trkpt>
      <trkpt lat="48.21078" lon="-3.32285">
        <ele>163.4</ele>
        <time>2021-08-10T10:09:28Z</time>
      </trkpt>
      <trkpt lat="48.21078" lon="-3.32291">
        <ele>163.4</ele>
        <time>2021-08-10T10:09:29Z</time>
      </trkpt>
      <trkpt lat="48.21079" lon="-3.32296">
        <ele>163.4</ele>
        <time>2021-08-10T10:09:30Z</time>
      </trkpt>
      <trkpt lat="48.21078" lon="-3.32301">
        <ele>163.4</ele>
        <time>2021-08-10T10:09:31Z</time>
      </trkpt>
      <trkpt lat="48.21077" lon="-3.32307">
        <ele>163.4</ele>
        <time>2021-08-10T10:09:32Z</time>
      </trkpt>
      <trkpt lat="48.21076" lon="-3.32314">
        <ele>163.4</ele>
        <time>2021-08-10T10:09:33Z</time>
      </trkpt>
      <trkpt lat="48.21074" lon="-3.32321">
        <ele>163.4</ele>
        <time>2021-08-10T10:09:34Z</time>
      </trkpt>
      <trkpt lat="48.21073" lon="-3.32334">
        <ele>163.4</ele>
        <time>2021-08-10T10:09:35Z</time>
      </trkpt>
      <trkpt lat="48.21072" lon="-3.32345">
        <ele>163.4</ele>
        <time>2021-08-10T10:09:36Z</time>
      </trkpt>
      <trkpt lat="48.21071" lon="-3.32357">
        <ele>163.4</ele>
        <time>2021-08-10T10:09:37Z</time>
      </trkpt>
      <trkpt lat="48.21069" lon="-3.32363">
        <ele>163.4</ele>
        <time>2021-08-10T10:09:38Z</time>
      </trkpt>
      <trkpt lat="48.21068" lon="-3.3237">
        <ele>163.4</ele>
        <time>2021-08-10T10:09:39Z</time>
      </trkpt>
      <trkpt lat="48.21068" lon="-3.32377">
        <ele>163.4</ele>
        <time>2021-08-10T10:09:40Z</time>
      </trkpt>
      <trkpt lat="48.21067" lon="-3.32384">
        <ele>163.4</ele>
        <time>2021-08-10T10:09:41Z</time>
      </trkpt>
      <trkpt lat="48.21067" lon="-3.32391">
        <ele>163.4</ele>
        <time>2021-08-10T10:09:42Z</time>
      </trkpt>
      <trkpt lat="48.21067" lon="-3.32397">
        <ele>163.2</ele>
        <time>2021-08-10T10:09:43Z</time>
      </trkpt>
      <trkpt lat="48.21066" lon="-3.32404">
        <ele>163.2</ele>
        <time>2021-08-10T10:09:44Z</time>
      </trkpt>
      <trkpt lat="48.21066" lon="-3.32411">
        <ele>163.2</ele>
        <time>2021-08-10T10:09:45Z</time>
      </trkpt>
      <trkpt lat="48.21065" lon="-3.32418">
        <ele>163.2</ele>
        <time>2021-08-10T10:09:46Z</time>
      </trkpt>
      <trkpt lat="48.21064" lon="-3.32425">
        <ele>163.2</ele>
        <time>2021-08-10T10:09:47Z</time>
      </trkpt>
      <trkpt lat="48.21063" lon="-3.32432">
        <ele>163.2</ele>
        <time>2021-08-10T10:09:48Z</time>
      </trkpt>
      <trkpt lat="48.21062" lon="-3.32438">
        <ele>163.2</ele>
        <time>2021-08-10T10:09:49Z</time>
      </trkpt>
      <trkpt lat="48.21061" lon="-3.32443">
        <ele>163</ele>
        <time>2021-08-10T10:09:50Z</time>
      </trkpt>
      <trkpt lat="48.2106" lon="-3.32449">
        <ele>163</ele>
        <time>2021-08-10T10:09:51Z</time>
      </trkpt>
      <trkpt lat="48.21059" lon="-3.32455">
        <ele>163</ele>
        <time>2021-08-10T10:09:52Z</time>
      </trkpt>
      <trkpt lat="48.21058" lon="-3.32462">
        <ele>163</ele>
        <time>2021-08-10T10:09:53Z</time>
      </trkpt>
      <trkpt lat="48.21058" lon="-3.32469">
        <ele>163</ele>
        <time>2021-08-10T10:09:54Z</time>
      </trkpt>
      <trkpt lat="48.21058" lon="-3.32475">
        <ele>162.8</ele>
        <time>2021-08-10T10:09:55Z</time>
      </trkpt>
      <trkpt lat="48.21057" lon="-3.32481">
        <ele>163</ele>
        <time>2021-08-10T10:09:56Z</time>
      </trkpt>
      <trkpt lat="48.21057" lon="-3.32486">
        <ele>163</ele>
        <time>2021-08-10T10:09:57Z</time>
      </trkpt>
      <trkpt lat="48.21056" lon="-3.32492">
        <ele>162.8</ele>
        <time>2021-08-10T10:09:58Z</time>
      </trkpt>
      <trkpt lat="48.21055" lon="-3.32497">
        <ele>162.8</ele>
        <time>2021-08-10T10:09:59Z</time>
      </trkpt>
      <trkpt lat="48.21055" lon="-3.32502">
        <ele>162.8</ele>
        <time>2021-08-10T10:10:00Z</time>
      </trkpt>
      <trkpt lat="48.21055" lon="-3.32508">
        <ele>162.8</ele>
        <time>2021-08-10T10:10:01Z</time>
      </trkpt>
      <trkpt lat="48.21054" lon="-3.32514">
        <ele>162.8</ele>
        <time>2021-08-10T10:10:02Z</time>
      </trkpt>
      <trkpt lat="48.21054" lon="-3.32519">
        <ele>163.2</ele>
        <time>2021-08-10T10:10:03Z</time>
      </trkpt>
      <trkpt lat="48.21055" lon="-3.32524">
        <ele>163.2</ele>
        <time>2021-08-10T10:10:04Z</time>
      </trkpt>
      <trkpt lat="48.21054" lon="-3.3253">
        <ele>163</ele>
        <time>2021-08-10T10:10:05Z</time>
      </trkpt>
      <trkpt lat="48.21054" lon="-3.32535">
        <ele>163</ele>
        <time>2021-08-10T10:10:06Z</time>
      </trkpt>
      <trkpt lat="48.21054" lon="-3.32541">
        <ele>163.2</ele>
        <time>2021-08-10T10:10:07Z</time>
      </trkpt>
      <trkpt lat="48.21054" lon="-3.32548">
        <ele>163.2</ele>
        <time>2021-08-10T10:10:08Z</time>
      </trkpt>
      <trkpt lat="48.21054" lon="-3.32554">
        <ele>163.2</ele>
        <time>2021-08-10T10:10:09Z</time>
      </trkpt>
      <trkpt lat="48.21054" lon="-3.32562">
        <ele>163.2</ele>
        <time>2021-08-10T10:10:10Z</time>
      </trkpt>
      <trkpt lat="48.21055" lon="-3.32569">
        <ele>163.2</ele>
        <time>2021-08-10T10:10:11Z</time>
      </trkpt>
      <trkpt lat="48.21056" lon="-3.32576">
        <ele>163.2</ele>
        <time>2021-08-10T10:10:12Z</time>
      </trkpt>
      <trkpt lat="48.21057" lon="-3.32583">
        <ele>163.2</ele>
        <time>2021-08-10T10:10:13Z</time>
      </trkpt>
      <trkpt lat="48.21058" lon="-3.32591">
        <ele>163.2</ele>
        <time>2021-08-10T10:10:14Z</time>
      </trkpt>
      <trkpt lat="48.21059" lon="-3.326">
        <ele>163.2</ele>
        <time>2021-08-10T10:10:15Z</time>
      </trkpt>
      <trkpt lat="48.21061" lon="-3.32607">
        <ele>163.2</ele>
        <time>2021-08-10T10:10:16Z</time>
      </trkpt>
      <trkpt lat="48.21062" lon="-3.32614">
        <ele>163.2</ele>
        <time>2021-08-10T10:10:17Z</time>
      </trkpt>
      <trkpt lat="48.21064" lon="-3.32622">
        <ele>163.2</ele>
        <time>2021-08-10T10:10:18Z</time>
      </trkpt>
      <trkpt lat="48.21066" lon="-3.32629">
        <ele>163.2</ele>
        <time>2021-08-10T10:10:19Z</time>
      </trkpt>
      <trkpt lat="48.21068" lon="-3.32636">
        <ele>163.2</ele>
        <time>2021-08-10T10:10:20Z</time>
      </trkpt>
      <trkpt lat="48.2107" lon="-3.32644">
        <ele>163.2</ele>
        <time>2021-08-10T10:10:21Z</time>
      </trkpt>
      <trkpt lat="48.21073" lon="-3.32652">
        <ele>163.2</ele>
        <time>2021-08-10T10:10:22Z</time>
      </trkpt>
      <trkpt lat="48.21075" lon="-3.32659">
        <ele>163.2</ele>
        <time>2021-08-10T10:10:23Z</time>
      </trkpt>
      <trkpt lat="48.21076" lon="-3.32667">
        <ele>163.2</ele>
        <time>2021-08-10T10:10:24Z</time>
      </trkpt>
      <trkpt lat="48.21078" lon="-3.32674">
        <ele>163.2</ele>
        <time>2021-08-10T10:10:25Z</time>
      </trkpt>
      <trkpt lat="48.21079" lon="-3.32681">
        <ele>163</ele>
        <time>2021-08-10T10:10:26Z</time>
      </trkpt>
      <trkpt lat="48.21081" lon="-3.32687">
        <ele>163</ele>
        <time>2021-08-10T10:10:27Z</time>
      </trkpt>
      <trkpt lat="48.21082" lon="-3.32693">
        <ele>163</ele>
        <time>2021-08-10T10:10:28Z</time>
      </trkpt>
      <trkpt lat="48.21083" lon="-3.32699">
        <ele>163</ele>
        <time>2021-08-10T10:10:29Z</time>
      </trkpt>
      <trkpt lat="48.21084" lon="-3.32706">
        <ele>163</ele>
        <time>2021-08-10T10:10:30Z</time>
      </trkpt>
      <trkpt lat="48.21086" lon="-3.32713">
        <ele>163</ele>
        <time>2021-08-10T10:10:31Z</time>
      </trkpt>
      <trkpt lat="48.21088" lon="-3.32721">
        <ele>163</ele>
        <time>2021-08-10T10:10:32Z</time>
      </trkpt>
      <trkpt lat="48.21089" lon="-3.3273">
        <ele>163</ele>
        <time>2021-08-10T10:10:33Z</time>
      </trkpt>
      <trkpt lat="48.21091" lon="-3.32737">
        <ele>162.8</ele>
        <time>2021-08-10T10:10:34Z</time>
      </trkpt>
      <trkpt lat="48.21092" lon="-3.32745">
        <ele>162.8</ele>
        <time>2021-08-10T10:10:35Z</time>
      </trkpt>
      <trkpt lat="48.21093" lon="-3.32754">
        <ele>162.8</ele>
        <time>2021-08-10T10:10:36Z</time>
      </trkpt>
      <trkpt lat="48.21094" lon="-3.32762">
        <ele>162.6</ele>
        <time>2021-08-10T10:10:37Z</time>
      </trkpt>
      <trkpt lat="48.21095" lon="-3.32769">
        <ele>162.6</ele>
        <time>2021-08-10T10:10:38Z</time>
      </trkpt>
      <trkpt lat="48.21097" lon="-3.32778">
        <ele>162.6</ele>
        <time>2021-08-10T10:10:39Z</time>
      </trkpt>
      <trkpt lat="48.21099" lon="-3.32786">
        <ele>162.6</ele>
        <time>2021-08-10T10:10:40Z</time>
      </trkpt>
      <trkpt lat="48.21101" lon="-3.32794">
        <ele>162.6</ele>
        <time>2021-08-10T10:10:41Z</time>
      </trkpt>
      <trkpt lat="48.21103" lon="-3.32801">
        <ele>162.6</ele>
        <time>2021-08-10T10:10:42Z</time>
      </trkpt>
      <trkpt lat="48.21104" lon="-3.32808">
        <ele>162.6</ele>
        <time>2021-08-10T10:10:43Z</time>
      </trkpt>
      <trkpt lat="48.21105" lon="-3.32815">
        <ele>162.6</ele>
        <time>2021-08-10T10:10:44Z</time>
      </trkpt>
      <trkpt lat="48.21107" lon="-3.32822">
        <ele>162.6</ele>
        <time>2021-08-10T10:10:45Z</time>
      </trkpt>
      <trkpt lat="48.21109" lon="-3.3283">
        <ele>162.6</ele>
        <time>2021-08-10T10:10:46Z</time>
      </trkpt>
      <trkpt lat="48.2111" lon="-3.32837">
        <ele>162.6</ele>
        <time>2021-08-10T10:10:47Z</time>
      </trkpt>
      <trkpt lat="48.21112" lon="-3.32844">
        <ele>162.4</ele>
        <time>2021-08-10T10:10:48Z</time>
      </trkpt>
      <trkpt lat="48.21113" lon="-3.32851">
        <ele>162.4</ele>
        <time>2021-08-10T10:10:49Z</time>
      </trkpt>
      <trkpt lat="48.21114" lon="-3.32858">
        <ele>162.4</ele>
        <time>2021-08-10T10:10:50Z</time>
      </trkpt>
      <trkpt lat="48.21115" lon="-3.32865">
        <ele>162.4</ele>
        <time>2021-08-10T10:10:51Z</time>
      </trkpt>
      <trkpt lat="48.21116" lon="-3.32872">
        <ele>162.4</ele>
        <time>2021-08-10T10:10:52Z</time>
      </trkpt>
      <trkpt lat="48.21118" lon="-3.32879">
        <ele>162.4</ele>
        <time>2021-08-10T10:10:53Z</time>
      </trkpt>
      <trkpt lat="48.21119" lon="-3.32886">
        <ele>162.4</ele>
        <time>2021-08-10T10:10:54Z</time>
      </trkpt>
      <trkpt lat="48.21121" lon="-3.32892">
        <ele>162.4</ele>
        <time>2021-08-10T10:10:55Z</time>
      </trkpt>
      <trkpt lat="48.21123" lon="-3.32898">
        <ele>162.4</ele>
        <time>2021-08-10T10:10:56Z</time>
      </trkpt>
      <trkpt lat="48.21124" lon="-3.32904">
        <ele>162.4</ele>
        <time>2021-08-10T10:10:57Z</time>
      </trkpt>
      <trkpt lat="48.21126" lon="-3.3291">
        <ele>162.4</ele>
        <time>2021-08-10T10:10:58Z</time>
      </trkpt>
      <trkpt lat="48.21128" lon="-3.32915">
        <ele>162.4</ele>
        <time>2021-08-10T10:10:59Z</time>
      </trkpt>
      <trkpt lat="48.2113" lon="-3.3292">
        <ele>162.4</ele>
        <time>2021-08-10T10:11:00Z</time>
      </trkpt>
      <trkpt lat="48.21133" lon="-3.32924">
        <ele>162.4</ele>
        <time>2021-08-10T10:11:01Z</time>
      </trkpt>
      <trkpt lat="48.21136" lon="-3.32929">
        <ele>162.4</ele>
        <time>2021-08-10T10:11:02Z</time>
      </trkpt>
      <trkpt lat="48.21139" lon="-3.32933">
        <ele>162.4</ele>
        <time>2021-08-10T10:11:03Z</time>
      </trkpt>
      <trkpt lat="48.21142" lon="-3.32938">
        <ele>162.6</ele>
        <time>2021-08-10T10:11:04Z</time>
      </trkpt>
      <trkpt lat="48.21145" lon="-3.32943">
        <ele>162.6</ele>
        <time>2021-08-10T10:11:05Z</time>
      </trkpt>
      <trkpt lat="48.21148" lon="-3.32948">
        <ele>162.6</ele>
        <time>2021-08-10T10:11:06Z</time>
      </trkpt>
      <trkpt lat="48.21151" lon="-3.32952">
        <ele>162.6</ele>
        <time>2021-08-10T10:11:07Z</time>
      </trkpt>
      <trkpt lat="48.21154" lon="-3.32956">
        <ele>162.6</ele>
        <time>2021-08-10T10:11:08Z</time>
      </trkpt>
      <trkpt lat="48.21156" lon="-3.32961">
        <ele>162.6</ele>
        <time>2021-08-10T10:11:09Z</time>
      </trkpt>
      <trkpt lat="48.21159" lon="-3.32966">
        <ele>162.6</ele>
        <time>2021-08-10T10:11:10Z</time>
      </trkpt>
      <trkpt lat="48.21162" lon="-3.32971">
        <ele>162.6</ele>
        <time>2021-08-10T10:11:11Z</time>
      </trkpt>
      <trkpt lat="48.21165" lon="-3.32976">
        <ele>162.8</ele>
        <time>2021-08-10T10:11:12Z</time>
      </trkpt>
      <trkpt lat="48.21168" lon="-3.32981">
        <ele>162.8</ele>
        <time>2021-08-10T10:11:13Z</time>
      </trkpt>
      <trkpt lat="48.2117" lon="-3.32987">
        <ele>162.8</ele>
        <time>2021-08-10T10:11:14Z</time>
      </trkpt>
      <trkpt lat="48.21173" lon="-3.32992">
        <ele>162.8</ele>
        <time>2021-08-10T10:11:15Z</time>
      </trkpt>
      <trkpt lat="48.21176" lon="-3.32997">
        <ele>162.8</ele>
        <time>2021-08-10T10:11:16Z</time>
      </trkpt>
      <trkpt lat="48.21179" lon="-3.33002">
        <ele>162.8</ele>
        <time>2021-08-10T10:11:17Z</time>
      </trkpt>
      <trkpt lat="48.21183" lon="-3.33007">
        <ele>162.8</ele>
        <time>2021-08-10T10:11:18Z</time>
      </trkpt>
      <trkpt lat="48.21186" lon="-3.33011">
        <ele>162.8</ele>
        <time>2021-08-10T10:11:19Z</time>
      </trkpt>
      <trkpt lat="48.21189" lon="-3.33016">
        <ele>162.8</ele>
        <time>2021-08-10T10:11:20Z</time>
      </trkpt>
      <trkpt lat="48.21192" lon="-3.3302">
        <ele>162.8</ele>
        <time>2021-08-10T10:11:21Z</time>
      </trkpt>
      <trkpt lat="48.21195" lon="-3.33024">
        <ele>162.8</ele>
        <time>2021-08-10T10:11:22Z</time>
      </trkpt>
      <trkpt lat="48.21198" lon="-3.33028">
        <ele>162.8</ele>
        <time>2021-08-10T10:11:23Z</time>
      </trkpt>
      <trkpt lat="48.21201" lon="-3.33032">
        <ele>162.8</ele>
        <time>2021-08-10T10:11:24Z</time>
      </trkpt>
      <trkpt lat="48.21204" lon="-3.33036">
        <ele>162.8</ele>
        <time>2021-08-10T10:11:25Z</time>
      </trkpt>
      <trkpt lat="48.21207" lon="-3.33039">
        <ele>162.8</ele>
        <time>2021-08-10T10:11:26Z</time>
      </trkpt>
      <trkpt lat="48.2121" lon="-3.33044">
        <ele>162.8</ele>
        <time>2021-08-10T10:11:27Z</time>
      </trkpt>
      <trkpt lat="48.21213" lon="-3.33048">
        <ele>162.8</ele>
        <time>2021-08-10T10:11:28Z</time>
      </trkpt>
      <trkpt lat="48.21216" lon="-3.33052">
        <ele>162.8</ele>
        <time>2021-08-10T10:11:29Z</time>
      </trkpt>
      <trkpt lat="48.2122" lon="-3.33056">
        <ele>162.8</ele>
        <time>2021-08-10T10:11:30Z</time>
      </trkpt>
      <trkpt lat="48.21223" lon="-3.33061">
        <ele>162.8</ele>
        <time>2021-08-10T10:11:31Z</time>
      </trkpt>
      <trkpt lat="48.21226" lon="-3.33065">
        <ele>162.8</ele>
        <time>2021-08-10T10:11:32Z</time>
      </trkpt>
      <trkpt lat="48.21229" lon="-3.3307">
        <ele>162.8</ele>
        <time>2021-08-10T10:11:33Z</time>
      </trkpt>
      <trkpt lat="48.21232" lon="-3.33074">
        <ele>162.8</ele>
        <time>2021-08-10T10:11:34Z</time>
      </trkpt>
      <trkpt lat="48.21236" lon="-3.33078">
        <ele>162.8</ele>
        <time>2021-08-10T10:11:35Z</time>
      </trkpt>
      <trkpt lat="48.21239" lon="-3.33082">
        <ele>162.8</ele>
        <time>2021-08-10T10:11:36Z</time>
      </trkpt>
      <trkpt lat="48.21243" lon="-3.33085">
        <ele>162.8</ele>
        <time>2021-08-10T10:11:37Z</time>
      </trkpt>
      <trkpt lat="48.21247" lon="-3.3309">
        <ele>162.6</ele>
        <time>2021-08-10T10:11:38Z</time>
      </trkpt>
      <trkpt lat="48.2125" lon="-3.33094">
        <ele>162.6</ele>
        <time>2021-08-10T10:11:39Z</time>
      </trkpt>
      <trkpt lat="48.21254" lon="-3.33099">
        <ele>162.6</ele>
        <time>2021-08-10T10:11:40Z</time>
      </trkpt>
      <trkpt lat="48.21257" lon="-3.33103">
        <ele>162.6</ele>
        <time>2021-08-10T10:11:41Z</time>
      </trkpt>
      <trkpt lat="48.21261" lon="-3.33108">
        <ele>162.6</ele>
        <time>2021-08-10T10:11:42Z</time>
      </trkpt>
      <trkpt lat="48.21264" lon="-3.33112">
        <ele>162.6</ele>
        <time>2021-08-10T10:11:43Z</time>
      </trkpt>
      <trkpt lat="48.21267" lon="-3.33116">
        <ele>162.6</ele>
        <time>2021-08-10T10:11:44Z</time>
      </trkpt>
      <trkpt lat="48.21271" lon="-3.3312">
        <ele>162.6</ele>
        <time>2021-08-10T10:11:45Z</time>
      </trkpt>
      <trkpt lat="48.21274" lon="-3.33125">
        <ele>162.6</ele>
        <time>2021-08-10T10:11:46Z</time>
      </trkpt>
      <trkpt lat="48.21277" lon="-3.33129">
        <ele>162.8</ele>
        <time>2021-08-10T10:11:47Z</time>
      </trkpt>
      <trkpt lat="48.2128" lon="-3.33133">
        <ele>162.8</ele>
        <time>2021-08-10T10:11:48Z</time>
      </trkpt>
      <trkpt lat="48.21283" lon="-3.33136">
        <ele>162.8</ele>
        <time>2021-08-10T10:11:49Z</time>
      </trkpt>
      <trkpt lat="48.21286" lon="-3.33142">
        <ele>162.8</ele>
        <time>2021-08-10T10:11:50Z</time>
      </trkpt>
      <trkpt lat="48.21289" lon="-3.33147">
        <ele>162.6</ele>
        <time>2021-08-10T10:11:51Z</time>
      </trkpt>
      <trkpt lat="48.21292" lon="-3.33153">
        <ele>162.6</ele>
        <time>2021-08-10T10:11:52Z</time>
      </trkpt>
      <trkpt lat="48.21294" lon="-3.33158">
        <ele>162.6</ele>
        <time>2021-08-10T10:11:53Z</time>
      </trkpt>
      <trkpt lat="48.21297" lon="-3.33163">
        <ele>162.6</ele>
        <time>2021-08-10T10:11:54Z</time>
      </trkpt>
      <trkpt lat="48.21301" lon="-3.33168">
        <ele>162.6</ele>
        <time>2021-08-10T10:11:55Z</time>
      </trkpt>
      <trkpt lat="48.21304" lon="-3.33174">
        <ele>162.6</ele>
        <time>2021-08-10T10:11:56Z</time>
      </trkpt>
      <trkpt lat="48.21307" lon="-3.33179">
        <ele>162.6</ele>
        <time>2021-08-10T10:11:57Z</time>
      </trkpt>
      <trkpt lat="48.21311" lon="-3.33185">
        <ele>162.6</ele>
        <time>2021-08-10T10:11:58Z</time>
      </trkpt>
      <trkpt lat="48.21315" lon="-3.3319">
        <ele>162.6</ele>
        <time>2021-08-10T10:11:59Z</time>
      </trkpt>
      <trkpt lat="48.21318" lon="-3.33195">
        <ele>162.6</ele>
        <time>2021-08-10T10:12:00Z</time>
      </trkpt>
      <trkpt lat="48.21322" lon="-3.332">
        <ele>162.6</ele>
        <time>2021-08-10T10:12:01Z</time>
      </trkpt>
      <trkpt lat="48.21326" lon="-3.33206">
        <ele>162.6</ele>
        <time>2021-08-10T10:12:02Z</time>
      </trkpt>
      <trkpt lat="48.2133" lon="-3.33212">
        <ele>162.4</ele>
        <time>2021-08-10T10:12:03Z</time>
      </trkpt>
      <trkpt lat="48.21334" lon="-3.33218">
        <ele>162.4</ele>
        <time>2021-08-10T10:12:04Z</time>
      </trkpt>
      <trkpt lat="48.21337" lon="-3.33223">
        <ele>162.4</ele>
        <time>2021-08-10T10:12:05Z</time>
      </trkpt>
      <trkpt lat="48.21341" lon="-3.33228">
        <ele>162.4</ele>
        <time>2021-08-10T10:12:06Z</time>
      </trkpt>
      <trkpt lat="48.21344" lon="-3.33232">
        <ele>162.4</ele>
        <time>2021-08-10T10:12:07Z</time>
      </trkpt>
      <trkpt lat="48.21348" lon="-3.33237">
        <ele>162.4</ele>
        <time>2021-08-10T10:12:08Z</time>
      </trkpt>
      <trkpt lat="48.21352" lon="-3.33241">
        <ele>162.4</ele>
        <time>2021-08-10T10:12:09Z</time>
      </trkpt>
      <trkpt lat="48.21355" lon="-3.33245">
        <ele>162.4</ele>
        <time>2021-08-10T10:12:10Z</time>
      </trkpt>
      <trkpt lat="48.21359" lon="-3.3325">
        <ele>162.4</ele>
        <time>2021-08-10T10:12:11Z</time>
      </trkpt>
      <trkpt lat="48.21363" lon="-3.33256">
        <ele>162.4</ele>
        <time>2021-08-10T10:12:12Z</time>
      </trkpt>
      <trkpt lat="48.21367" lon="-3.33262">
        <ele>162.4</ele>
        <time>2021-08-10T10:12:13Z</time>
      </trkpt>
      <trkpt lat="48.2137" lon="-3.33269">
        <ele>162.4</ele>
        <time>2021-08-10T10:12:14Z</time>
      </trkpt>
      <trkpt lat="48.21374" lon="-3.33274">
        <ele>162.4</ele>
        <time>2021-08-10T10:12:15Z</time>
      </trkpt>
      <trkpt lat="48.21378" lon="-3.33279">
        <ele>162.4</ele>
        <time>2021-08-10T10:12:16Z</time>
      </trkpt>
      <trkpt lat="48.21381" lon="-3.33284">
        <ele>162.4</ele>
        <time>2021-08-10T10:12:17Z</time>
      </trkpt>
      <trkpt lat="48.21384" lon="-3.3329">
        <ele>162.4</ele>
        <time>2021-08-10T10:12:18Z</time>
      </trkpt>
      <trkpt lat="48.21388" lon="-3.33295">
        <ele>162.4</ele>
        <time>2021-08-10T10:12:19Z</time>
      </trkpt>
      <trkpt lat="48.21391" lon="-3.33301">
        <ele>162.4</ele>
        <time>2021-08-10T10:12:20Z</time>
      </trkpt>
      <trkpt lat="48.21395" lon="-3.33306">
        <ele>162.2</ele>
        <time>2021-08-10T10:12:21Z</time>
      </trkpt>
      <trkpt lat="48.21399" lon="-3.33312">
        <ele>162.2</ele>
        <time>2021-08-10T10:12:22Z</time>
      </trkpt>
      <trkpt lat="48.21402" lon="-3.33317">
        <ele>162.2</ele>
        <time>2021-08-10T10:12:23Z</time>
      </trkpt>
      <trkpt lat="48.21405" lon="-3.33322">
        <ele>162</ele>
        <time>2021-08-10T10:12:24Z</time>
      </trkpt>
      <trkpt lat="48.21408" lon="-3.33327">
        <ele>162</ele>
        <time>2021-08-10T10:12:25Z</time>
      </trkpt>
      <trkpt lat="48.21411" lon="-3.33332">
        <ele>162</ele>
        <time>2021-08-10T10:12:26Z</time>
      </trkpt>
      <trkpt lat="48.21414" lon="-3.33336">
        <ele>161.8</ele>
        <time>2021-08-10T10:12:27Z</time>
      </trkpt>
      <trkpt lat="48.21416" lon="-3.3334">
        <ele>161.8</ele>
        <time>2021-08-10T10:12:28Z</time>
      </trkpt>
      <trkpt lat="48.21418" lon="-3.33343">
        <ele>161.8</ele>
        <time>2021-08-10T10:12:29Z</time>
      </trkpt>
      <trkpt lat="48.21419" lon="-3.33346">
        <ele>161.8</ele>
        <time>2021-08-10T10:12:30Z</time>
      </trkpt>
      <trkpt lat="48.21421" lon="-3.33348">
        <ele>161.8</ele>
        <time>2021-08-10T10:12:31Z</time>
      </trkpt>
      <trkpt lat="48.21422" lon="-3.33352">
        <ele>162</ele>
        <time>2021-08-10T10:12:32Z</time>
      </trkpt>
      <trkpt lat="48.21424" lon="-3.33354">
        <ele>162</ele>
        <time>2021-08-10T10:12:33Z</time>
      </trkpt>
      <trkpt lat="48.21425" lon="-3.33356">
        <ele>162.2</ele>
        <time>2021-08-10T10:12:34Z</time>
      </trkpt>
      <trkpt lat="48.21426" lon="-3.33357">
        <ele>162.2</ele>
        <time>2021-08-10T10:12:35Z</time>
      </trkpt>
      <trkpt lat="48.21427" lon="-3.33358">
        <ele>162.2</ele>
        <time>2021-08-10T10:12:36Z</time>
      </trkpt>
      <trkpt lat="48.21428" lon="-3.3336">
        <ele>162.4</ele>
        <time>2021-08-10T10:12:37Z</time>
      </trkpt>
      <trkpt lat="48.21429" lon="-3.33362">
        <ele>162.8</ele>
        <time>2021-08-10T10:12:38Z</time>
      </trkpt>
      <trkpt lat="48.2143" lon="-3.33365">
        <ele>163</ele>
        <time>2021-08-10T10:12:39Z</time>
      </trkpt>
      <trkpt lat="48.21431" lon="-3.33368">
        <ele>163</ele>
        <time>2021-08-10T10:12:40Z</time>
      </trkpt>
      <trkpt lat="48.21433" lon="-3.33369">
        <ele>163.2</ele>
        <time>2021-08-10T10:12:41Z</time>
      </trkpt>
      <trkpt lat="48.21436" lon="-3.33371">
        <ele>163.2</ele>
        <time>2021-08-10T10:12:42Z</time>
      </trkpt>
      <trkpt lat="48.21438" lon="-3.33373">
        <ele>163.2</ele>
        <time>2021-08-10T10:12:43Z</time>
      </trkpt>
      <trkpt lat="48.21441" lon="-3.33376">
        <ele>163.4</ele>
        <time>2021-08-10T10:12:44Z</time>
      </trkpt>
      <trkpt lat="48.21443" lon="-3.33379">
        <ele>163.4</ele>
        <time>2021-08-10T10:12:45Z</time>
      </trkpt>
      <trkpt lat="48.21445" lon="-3.33382">
        <ele>163.4</ele>
        <time>2021-08-10T10:12:46Z</time>
      </trkpt>
      <trkpt lat="48.21447" lon="-3.33385">
        <ele>163.6</ele>
        <time>2021-08-10T10:12:47Z</time>
      </trkpt>
      <trkpt lat="48.2145" lon="-3.33388">
        <ele>163.6</ele>
        <time>2021-08-10T10:12:48Z</time>
      </trkpt>
      <trkpt lat="48.21452" lon="-3.33391">
        <ele>163.6</ele>
        <time>2021-08-10T10:12:49Z</time>
      </trkpt>
      <trkpt lat="48.21453" lon="-3.33394">
        <ele>163.8</ele>
        <time>2021-08-10T10:12:50Z</time>
      </trkpt>
      <trkpt lat="48.21455" lon="-3.33398">
        <ele>163.8</ele>
        <time>2021-08-10T10:12:51Z</time>
      </trkpt>
      <trkpt lat="48.21456" lon="-3.33401">
        <ele>163.8</ele>
        <time>2021-08-10T10:12:52Z</time>
      </trkpt>
      <trkpt lat="48.21458" lon="-3.33404">
        <ele>163.8</ele>
        <time>2021-08-10T10:12:53Z</time>
      </trkpt>
      <trkpt lat="48.2146" lon="-3.33406">
        <ele>164</ele>
        <time>2021-08-10T10:12:54Z</time>
      </trkpt>
      <trkpt lat="48.21461" lon="-3.33409">
        <ele>164.2</ele>
        <time>2021-08-10T10:12:55Z</time>
      </trkpt>
      <trkpt lat="48.21464" lon="-3.33412">
        <ele>164.2</ele>
        <time>2021-08-10T10:12:56Z</time>
      </trkpt>
      <trkpt lat="48.21466" lon="-3.33416">
        <ele>164.4</ele>
        <time>2021-08-10T10:12:57Z</time>
      </trkpt>
      <trkpt lat="48.21468" lon="-3.3342">
        <ele>164.6</ele>
        <time>2021-08-10T10:12:58Z</time>
      </trkpt>
      <trkpt lat="48.21471" lon="-3.33423">
        <ele>164.8</ele>
        <time>2021-08-10T10:12:59Z</time>
      </trkpt>
      <trkpt lat="48.21474" lon="-3.33427">
        <ele>164.8</ele>
        <time>2021-08-10T10:13:00Z</time>
      </trkpt>
      <trkpt lat="48.21477" lon="-3.33431">
        <ele>165</ele>
        <time>2021-08-10T10:13:01Z</time>
      </trkpt>
      <trkpt lat="48.21479" lon="-3.33435">
        <ele>165</ele>
        <time>2021-08-10T10:13:02Z</time>
      </trkpt>
      <trkpt lat="48.21482" lon="-3.33439">
        <ele>165</ele>
        <time>2021-08-10T10:13:03Z</time>
      </trkpt>
      <trkpt lat="48.21485" lon="-3.33443">
        <ele>165</ele>
        <time>2021-08-10T10:13:04Z</time>
      </trkpt>
      <trkpt lat="48.21487" lon="-3.33446">
        <ele>165</ele>
        <time>2021-08-10T10:13:05Z</time>
      </trkpt>
      <trkpt lat="48.2149" lon="-3.33449">
        <ele>165.2</ele>
        <time>2021-08-10T10:13:06Z</time>
      </trkpt>
      <trkpt lat="48.21492" lon="-3.33453">
        <ele>165.2</ele>
        <time>2021-08-10T10:13:07Z</time>
      </trkpt>
      <trkpt lat="48.21495" lon="-3.33456">
        <ele>165.2</ele>
        <time>2021-08-10T10:13:08Z</time>
      </trkpt>
      <trkpt lat="48.21497" lon="-3.3346">
        <ele>165.2</ele>
        <time>2021-08-10T10:13:09Z</time>
      </trkpt>
      <trkpt lat="48.21499" lon="-3.33464">
        <ele>165.2</ele>
        <time>2021-08-10T10:13:10Z</time>
      </trkpt>
      <trkpt lat="48.21502" lon="-3.33467">
        <ele>165.4</ele>
        <time>2021-08-10T10:13:11Z</time>
      </trkpt>
      <trkpt lat="48.21505" lon="-3.33471">
        <ele>165.4</ele>
        <time>2021-08-10T10:13:12Z</time>
      </trkpt>
      <trkpt lat="48.21507" lon="-3.33475">
        <ele>165.4</ele>
        <time>2021-08-10T10:13:13Z</time>
      </trkpt>
      <trkpt lat="48.2151" lon="-3.33478">
        <ele>165.4</ele>
        <time>2021-08-10T10:13:14Z</time>
      </trkpt>
      <trkpt lat="48.21513" lon="-3.33482">
        <ele>165.4</ele>
        <time>2021-08-10T10:13:15Z</time>
      </trkpt>
      <trkpt lat="48.21516" lon="-3.33486">
        <ele>165.4</ele>
        <time>2021-08-10T10:13:16Z</time>
      </trkpt>
      <trkpt lat="48.2152" lon="-3.33489">
        <ele>165.4</ele>
        <time>2021-08-10T10:13:17Z</time>
      </trkpt>
      <trkpt lat="48.21523" lon="-3.33493">
        <ele>165.4</ele>
        <time>2021-08-10T10:13:18Z</time>
      </trkpt>
      <trkpt lat="48.21526" lon="-3.33497">
        <ele>165.4</ele>
        <time>2021-08-10T10:13:19Z</time>
      </trkpt>
      <trkpt lat="48.21529" lon="-3.33501">
        <ele>165.4</ele>
        <time>2021-08-10T10:13:20Z</time>
      </trkpt>
      <trkpt lat="48.21533" lon="-3.33503">
        <ele>165.4</ele>
        <time>2021-08-10T10:13:21Z</time>
      </trkpt>
      <trkpt lat="48.21536" lon="-3.33506">
        <ele>165.4</ele>
        <time>2021-08-10T10:13:22Z</time>
      </trkpt>
      <trkpt lat="48.21539" lon="-3.33508">
        <ele>165.4</ele>
        <time>2021-08-10T10:13:23Z</time>
      </trkpt>
      <trkpt lat="48.21543" lon="-3.3351">
        <ele>165.4</ele>
        <time>2021-08-10T10:13:24Z</time>
      </trkpt>
      <trkpt lat="48.21547" lon="-3.33513">
        <ele>165.4</ele>
        <time>2021-08-10T10:13:25Z</time>
      </trkpt>
      <trkpt lat="48.2155" lon="-3.33515">
        <ele>165.4</ele>
        <time>2021-08-10T10:13:26Z</time>
      </trkpt>
      <trkpt lat="48.21554" lon="-3.33518">
        <ele>165.4</ele>
        <time>2021-08-10T10:13:27Z</time>
      </trkpt>
      <trkpt lat="48.21558" lon="-3.3352">
        <ele>165.4</ele>
        <time>2021-08-10T10:13:28Z</time>
      </trkpt>
      <trkpt lat="48.21563" lon="-3.33523">
        <ele>165.4</ele>
        <time>2021-08-10T10:13:29Z</time>
      </trkpt>
      <trkpt lat="48.21568" lon="-3.33526">
        <ele>165.4</ele>
        <time>2021-08-10T10:13:30Z</time>
      </trkpt>
      <trkpt lat="48.21572" lon="-3.33529">
        <ele>165.4</ele>
        <time>2021-08-10T10:13:31Z</time>
      </trkpt>
      <trkpt lat="48.21576" lon="-3.33532">
        <ele>165.4</ele>
        <time>2021-08-10T10:13:32Z</time>
      </trkpt>
      <trkpt lat="48.2158" lon="-3.33534">
        <ele>165.4</ele>
        <time>2021-08-10T10:13:33Z</time>
      </trkpt>
      <trkpt lat="48.21584" lon="-3.33536">
        <ele>165.4</ele>
        <time>2021-08-10T10:13:34Z</time>
      </trkpt>
      <trkpt lat="48.21588" lon="-3.33539">
        <ele>165.4</ele>
        <time>2021-08-10T10:13:35Z</time>
      </trkpt>
      <trkpt lat="48.21592" lon="-3.33542">
        <ele>165.4</ele>
        <time>2021-08-10T10:13:36Z</time>
      </trkpt>
      <trkpt lat="48.21596" lon="-3.33545">
        <ele>165.4</ele>
        <time>2021-08-10T10:13:37Z</time>
      </trkpt>
      <trkpt lat="48.21601" lon="-3.33549">
        <ele>165.4</ele>
        <time>2021-08-10T10:13:38Z</time>
      </trkpt>
      <trkpt lat="48.21606" lon="-3.33553">
        <ele>165.4</ele>
        <time>2021-08-10T10:13:39Z</time>
      </trkpt>
      <trkpt lat="48.21611" lon="-3.33556">
        <ele>165.4</ele>
        <time>2021-08-10T10:13:40Z</time>
      </trkpt>
      <trkpt lat="48.21616" lon="-3.33559">
        <ele>165.4</ele>
        <time>2021-08-10T10:13:41Z</time>
      </trkpt>
      <trkpt lat="48.21622" lon="-3.33562">
        <ele>165.2</ele>
        <time>2021-08-10T10:13:42Z</time>
      </trkpt>
      <trkpt lat="48.21627" lon="-3.33565">
        <ele>165</ele>
        <time>2021-08-10T10:13:43Z</time>
      </trkpt>
      <trkpt lat="48.21631" lon="-3.33567">
        <ele>165</ele>
        <time>2021-08-10T10:13:44Z</time>
      </trkpt>
      <trkpt lat="48.21635" lon="-3.3357">
        <ele>165</ele>
        <time>2021-08-10T10:13:45Z</time>
      </trkpt>
      <trkpt lat="48.21639" lon="-3.33573">
        <ele>165</ele>
        <time>2021-08-10T10:13:46Z</time>
      </trkpt>
      <trkpt lat="48.21643" lon="-3.33576">
        <ele>165</ele>
        <time>2021-08-10T10:13:47Z</time>
      </trkpt>
      <trkpt lat="48.21648" lon="-3.33578">
        <ele>165</ele>
        <time>2021-08-10T10:13:48Z</time>
      </trkpt>
      <trkpt lat="48.21652" lon="-3.33581">
        <ele>165</ele>
        <time>2021-08-10T10:13:49Z</time>
      </trkpt>
      <trkpt lat="48.21657" lon="-3.33584">
        <ele>165</ele>
        <time>2021-08-10T10:13:50Z</time>
      </trkpt>
      <trkpt lat="48.21661" lon="-3.33586">
        <ele>164.8</ele>
        <time>2021-08-10T10:13:51Z</time>
      </trkpt>
      <trkpt lat="48.21665" lon="-3.33589">
        <ele>164.8</ele>
        <time>2021-08-10T10:13:52Z</time>
      </trkpt>
      <trkpt lat="48.2167" lon="-3.33593">
        <ele>164.8</ele>
        <time>2021-08-10T10:13:53Z</time>
      </trkpt>
      <trkpt lat="48.21675" lon="-3.33596">
        <ele>164.8</ele>
        <time>2021-08-10T10:13:54Z</time>
      </trkpt>
      <trkpt lat="48.21679" lon="-3.33599">
        <ele>164.8</ele>
        <time>2021-08-10T10:13:55Z</time>
      </trkpt>
      <trkpt lat="48.21682" lon="-3.33601">
        <ele>164.8</ele>
        <time>2021-08-10T10:13:56Z</time>
      </trkpt>
      <trkpt lat="48.21686" lon="-3.33603">
        <ele>164.8</ele>
        <time>2021-08-10T10:13:57Z</time>
      </trkpt>
      <trkpt lat="48.2169" lon="-3.33605">
        <ele>165</ele>
        <time>2021-08-10T10:13:58Z</time>
      </trkpt>
      <trkpt lat="48.21694" lon="-3.33608">
        <ele>165</ele>
        <time>2021-08-10T10:13:59Z</time>
      </trkpt>
      <trkpt lat="48.21698" lon="-3.33611">
        <ele>165</ele>
        <time>2021-08-10T10:14:00Z</time>
      </trkpt>
      <trkpt lat="48.21702" lon="-3.33614">
        <ele>165</ele>
        <time>2021-08-10T10:14:01Z</time>
      </trkpt>
      <trkpt lat="48.21707" lon="-3.33617">
        <ele>165</ele>
        <time>2021-08-10T10:14:02Z</time>
      </trkpt>
      <trkpt lat="48.21711" lon="-3.3362">
        <ele>165</ele>
        <time>2021-08-10T10:14:03Z</time>
      </trkpt>
      <trkpt lat="48.21715" lon="-3.33622">
        <ele>165</ele>
        <time>2021-08-10T10:14:04Z</time>
      </trkpt>
      <trkpt lat="48.2172" lon="-3.33625">
        <ele>165</ele>
        <time>2021-08-10T10:14:05Z</time>
      </trkpt>
      <trkpt lat="48.21724" lon="-3.33627">
        <ele>165</ele>
        <time>2021-08-10T10:14:06Z</time>
      </trkpt>
      <trkpt lat="48.21729" lon="-3.3363">
        <ele>165</ele>
        <time>2021-08-10T10:14:07Z</time>
      </trkpt>
      <trkpt lat="48.21734" lon="-3.33633">
        <ele>165</ele>
        <time>2021-08-10T10:14:08Z</time>
      </trkpt>
      <trkpt lat="48.21739" lon="-3.33636">
        <ele>165</ele>
        <time>2021-08-10T10:14:09Z</time>
      </trkpt>
      <trkpt lat="48.21744" lon="-3.33639">
        <ele>165</ele>
        <time>2021-08-10T10:14:10Z</time>
      </trkpt>
      <trkpt lat="48.21749" lon="-3.33642">
        <ele>165</ele>
        <time>2021-08-10T10:14:11Z</time>
      </trkpt>
      <trkpt lat="48.21754" lon="-3.33646">
        <ele>165</ele>
        <time>2021-08-10T10:14:12Z</time>
      </trkpt>
      <trkpt lat="48.21758" lon="-3.33649">
        <ele>165</ele>
        <time>2021-08-10T10:14:13Z</time>
      </trkpt>
      <trkpt lat="48.21763" lon="-3.33651">
        <ele>165</ele>
        <time>2021-08-10T10:14:14Z</time>
      </trkpt>
      <trkpt lat="48.21767" lon="-3.33654">
        <ele>165</ele>
        <time>2021-08-10T10:14:15Z</time>
      </trkpt>
      <trkpt lat="48.21771" lon="-3.33657">
        <ele>165</ele>
        <time>2021-08-10T10:14:16Z</time>
      </trkpt>
      <trkpt lat="48.21776" lon="-3.33659">
        <ele>165</ele>
        <time>2021-08-10T10:14:17Z</time>
      </trkpt>
      <trkpt lat="48.21781" lon="-3.33662">
        <ele>164.8</ele>
        <time>2021-08-10T10:14:18Z</time>
      </trkpt>
      <trkpt lat="48.21785" lon="-3.33665">
        <ele>164.8</ele>
        <time>2021-08-10T10:14:19Z</time>
      </trkpt>
      <trkpt lat="48.2179" lon="-3.33668">
        <ele>164.8</ele>
        <time>2021-08-10T10:14:20Z</time>
      </trkpt>
      <trkpt lat="48.21795" lon="-3.33672">
        <ele>164.8</ele>
        <time>2021-08-10T10:14:21Z</time>
      </trkpt>
      <trkpt lat="48.218" lon="-3.33675">
        <ele>164.8</ele>
        <time>2021-08-10T10:14:22Z</time>
      </trkpt>
      <trkpt lat="48.21805" lon="-3.33679">
        <ele>164.8</ele>
        <time>2021-08-10T10:14:23Z</time>
      </trkpt>
      <trkpt lat="48.21809" lon="-3.33683">
        <ele>164.8</ele>
        <time>2021-08-10T10:14:24Z</time>
      </trkpt>
      <trkpt lat="48.21813" lon="-3.33687">
        <ele>164.8</ele>
        <time>2021-08-10T10:14:25Z</time>
      </trkpt>
      <trkpt lat="48.21817" lon="-3.33692">
        <ele>164.8</ele>
        <time>2021-08-10T10:14:26Z</time>
      </trkpt>
      <trkpt lat="48.21821" lon="-3.33696">
        <ele>164.8</ele>
        <time>2021-08-10T10:14:27Z</time>
      </trkpt>
      <trkpt lat="48.21825" lon="-3.33701">
        <ele>164.8</ele>
        <time>2021-08-10T10:14:28Z</time>
      </trkpt>
      <trkpt lat="48.21829" lon="-3.33706">
        <ele>164.8</ele>
        <time>2021-08-10T10:14:29Z</time>
      </trkpt>
      <trkpt lat="48.21832" lon="-3.33711">
        <ele>164.6</ele>
        <time>2021-08-10T10:14:30Z</time>
      </trkpt>
      <trkpt lat="48.21836" lon="-3.33717">
        <ele>164.6</ele>
        <time>2021-08-10T10:14:31Z</time>
      </trkpt>
      <trkpt lat="48.21839" lon="-3.33724">
        <ele>164.6</ele>
        <time>2021-08-10T10:14:32Z</time>
      </trkpt>
      <trkpt lat="48.21842" lon="-3.3373">
        <ele>164.6</ele>
        <time>2021-08-10T10:14:33Z</time>
      </trkpt>
      <trkpt lat="48.21845" lon="-3.33737">
        <ele>164.6</ele>
        <time>2021-08-10T10:14:34Z</time>
      </trkpt>
      <trkpt lat="48.21848" lon="-3.33743">
        <ele>164.6</ele>
        <time>2021-08-10T10:14:35Z</time>
      </trkpt>
      <trkpt lat="48.2185" lon="-3.33749">
        <ele>164.4</ele>
        <time>2021-08-10T10:14:36Z</time>
      </trkpt>
      <trkpt lat="48.21853" lon="-3.33755">
        <ele>164.4</ele>
        <time>2021-08-10T10:14:37Z</time>
      </trkpt>
      <trkpt lat="48.21856" lon="-3.3376">
        <ele>164.4</ele>
        <time>2021-08-10T10:14:38Z</time>
      </trkpt>
      <trkpt lat="48.21858" lon="-3.33765">
        <ele>164.2</ele>
        <time>2021-08-10T10:14:39Z</time>
      </trkpt>
      <trkpt lat="48.2186" lon="-3.33772">
        <ele>164.2</ele>
        <time>2021-08-10T10:14:40Z</time>
      </trkpt>
      <trkpt lat="48.21862" lon="-3.33778">
        <ele>164.2</ele>
        <time>2021-08-10T10:14:41Z</time>
      </trkpt>
      <trkpt lat="48.21865" lon="-3.33784">
        <ele>164.2</ele>
        <time>2021-08-10T10:14:42Z</time>
      </trkpt>
      <trkpt lat="48.21867" lon="-3.3379">
        <ele>164.2</ele>
        <time>2021-08-10T10:14:43Z</time>
      </trkpt>
      <trkpt lat="48.21869" lon="-3.33795">
        <ele>164.2</ele>
        <time>2021-08-10T10:14:44Z</time>
      </trkpt>
      <trkpt lat="48.2187" lon="-3.33801">
        <ele>164.2</ele>
        <time>2021-08-10T10:14:45Z</time>
      </trkpt>
      <trkpt lat="48.21872" lon="-3.33807">
        <ele>164.2</ele>
        <time>2021-08-10T10:14:46Z</time>
      </trkpt>
      <trkpt lat="48.21874" lon="-3.33813">
        <ele>164.2</ele>
        <time>2021-08-10T10:14:47Z</time>
      </trkpt>
      <trkpt lat="48.21876" lon="-3.33819">
        <ele>164.4</ele>
        <time>2021-08-10T10:14:48Z</time>
      </trkpt>
      <trkpt lat="48.21878" lon="-3.33825">
        <ele>164.4</ele>
        <time>2021-08-10T10:14:49Z</time>
      </trkpt>
      <trkpt lat="48.21879" lon="-3.33832">
        <ele>164.4</ele>
        <time>2021-08-10T10:14:50Z</time>
      </trkpt>
      <trkpt lat="48.21882" lon="-3.33838">
        <ele>164.4</ele>
        <time>2021-08-10T10:14:51Z</time>
      </trkpt>
      <trkpt lat="48.21884" lon="-3.33844">
        <ele>164.4</ele>
        <time>2021-08-10T10:14:52Z</time>
      </trkpt>
      <trkpt lat="48.21886" lon="-3.33851">
        <ele>164.4</ele>
        <time>2021-08-10T10:14:53Z</time>
      </trkpt>
      <trkpt lat="48.21889" lon="-3.33858">
        <ele>164.4</ele>
        <time>2021-08-10T10:14:54Z</time>
      </trkpt>
      <trkpt lat="48.21891" lon="-3.33864">
        <ele>164.4</ele>
        <time>2021-08-10T10:14:55Z</time>
      </trkpt>
      <trkpt lat="48.21894" lon="-3.3387">
        <ele>164.4</ele>
        <time>2021-08-10T10:14:56Z</time>
      </trkpt>
      <trkpt lat="48.21896" lon="-3.33877">
        <ele>164.4</ele>
        <time>2021-08-10T10:14:57Z</time>
      </trkpt>
      <trkpt lat="48.21898" lon="-3.33884">
        <ele>164.4</ele>
        <time>2021-08-10T10:14:58Z</time>
      </trkpt>
      <trkpt lat="48.219" lon="-3.33891">
        <ele>164.4</ele>
        <time>2021-08-10T10:14:59Z</time>
      </trkpt>
      <trkpt lat="48.21903" lon="-3.33898">
        <ele>164.4</ele>
        <time>2021-08-10T10:15:00Z</time>
      </trkpt>
      <trkpt lat="48.21905" lon="-3.33904">
        <ele>164.4</ele>
        <time>2021-08-10T10:15:01Z</time>
      </trkpt>
      <trkpt lat="48.21907" lon="-3.33911">
        <ele>164.4</ele>
        <time>2021-08-10T10:15:02Z</time>
      </trkpt>
      <trkpt lat="48.21909" lon="-3.33917">
        <ele>164.4</ele>
        <time>2021-08-10T10:15:03Z</time>
      </trkpt>
      <trkpt lat="48.21911" lon="-3.33924">
        <ele>164.4</ele>
        <time>2021-08-10T10:15:04Z</time>
      </trkpt>
      <trkpt lat="48.21912" lon="-3.3393">
        <ele>164.4</ele>
        <time>2021-08-10T10:15:05Z</time>
      </trkpt>
      <trkpt lat="48.21914" lon="-3.33936">
        <ele>164.4</ele>
        <time>2021-08-10T10:15:06Z</time>
      </trkpt>
      <trkpt lat="48.21916" lon="-3.33941">
        <ele>164.4</ele>
        <time>2021-08-10T10:15:07Z</time>
      </trkpt>
      <trkpt lat="48.21918" lon="-3.33947">
        <ele>164.4</ele>
        <time>2021-08-10T10:15:08Z</time>
      </trkpt>
      <trkpt lat="48.2192" lon="-3.33953">
        <ele>164.4</ele>
        <time>2021-08-10T10:15:09Z</time>
      </trkpt>
      <trkpt lat="48.21922" lon="-3.3396">
        <ele>164.6</ele>
        <time>2021-08-10T10:15:10Z</time>
      </trkpt>
      <trkpt lat="48.21924" lon="-3.33966">
        <ele>164.6</ele>
        <time>2021-08-10T10:15:11Z</time>
      </trkpt>
      <trkpt lat="48.21926" lon="-3.33972">
        <ele>164.6</ele>
        <time>2021-08-10T10:15:12Z</time>
      </trkpt>
      <trkpt lat="48.21929" lon="-3.33979">
        <ele>164.6</ele>
        <time>2021-08-10T10:15:13Z</time>
      </trkpt>
      <trkpt lat="48.21931" lon="-3.33985">
        <ele>164.6</ele>
        <time>2021-08-10T10:15:14Z</time>
      </trkpt>
      <trkpt lat="48.21933" lon="-3.33992">
        <ele>164.6</ele>
        <time>2021-08-10T10:15:15Z</time>
      </trkpt>
      <trkpt lat="48.21935" lon="-3.33998">
        <ele>164.6</ele>
        <time>2021-08-10T10:15:16Z</time>
      </trkpt>
      <trkpt lat="48.21937" lon="-3.34005">
        <ele>164.6</ele>
        <time>2021-08-10T10:15:17Z</time>
      </trkpt>
      <trkpt lat="48.2194" lon="-3.34012">
        <ele>164.6</ele>
        <time>2021-08-10T10:15:18Z</time>
      </trkpt>
      <trkpt lat="48.21942" lon="-3.34019">
        <ele>164.6</ele>
        <time>2021-08-10T10:15:19Z</time>
      </trkpt>
      <trkpt lat="48.21945" lon="-3.34026">
        <ele>164.6</ele>
        <time>2021-08-10T10:15:20Z</time>
      </trkpt>
      <trkpt lat="48.21947" lon="-3.34033">
        <ele>164.6</ele>
        <time>2021-08-10T10:15:21Z</time>
      </trkpt>
      <trkpt lat="48.21949" lon="-3.34039">
        <ele>164.6</ele>
        <time>2021-08-10T10:15:22Z</time>
      </trkpt>
      <trkpt lat="48.21951" lon="-3.34045">
        <ele>164.6</ele>
        <time>2021-08-10T10:15:23Z</time>
      </trkpt>
      <trkpt lat="48.21953" lon="-3.34051">
        <ele>164.6</ele>
        <time>2021-08-10T10:15:24Z</time>
      </trkpt>
      <trkpt lat="48.21955" lon="-3.34058">
        <ele>164.6</ele>
        <time>2021-08-10T10:15:25Z</time>
      </trkpt>
      <trkpt lat="48.21957" lon="-3.34065">
        <ele>164.6</ele>
        <time>2021-08-10T10:15:26Z</time>
      </trkpt>
      <trkpt lat="48.21959" lon="-3.34071">
        <ele>164.6</ele>
        <time>2021-08-10T10:15:27Z</time>
      </trkpt>
      <trkpt lat="48.21961" lon="-3.34077">
        <ele>164.6</ele>
        <time>2021-08-10T10:15:28Z</time>
      </trkpt>
      <trkpt lat="48.21963" lon="-3.34084">
        <ele>164.6</ele>
        <time>2021-08-10T10:15:29Z</time>
      </trkpt>
      <trkpt lat="48.21966" lon="-3.34091">
        <ele>164.6</ele>
        <time>2021-08-10T10:15:30Z</time>
      </trkpt>
      <trkpt lat="48.21968" lon="-3.34097">
        <ele>164.6</ele>
        <time>2021-08-10T10:15:31Z</time>
      </trkpt>
      <trkpt lat="48.21971" lon="-3.34103">
        <ele>164.6</ele>
        <time>2021-08-10T10:15:32Z</time>
      </trkpt>
      <trkpt lat="48.21973" lon="-3.3411">
        <ele>164.6</ele>
        <time>2021-08-10T10:15:33Z</time>
      </trkpt>
      <trkpt lat="48.21975" lon="-3.34117">
        <ele>164.6</ele>
        <time>2021-08-10T10:15:34Z</time>
      </trkpt>
      <trkpt lat="48.21977" lon="-3.34123">
        <ele>164.6</ele>
        <time>2021-08-10T10:15:35Z</time>
      </trkpt>
      <trkpt lat="48.2198" lon="-3.34129">
        <ele>164.6</ele>
        <time>2021-08-10T10:15:36Z</time>
      </trkpt>
      <trkpt lat="48.21982" lon="-3.34136">
        <ele>164.6</ele>
        <time>2021-08-10T10:15:37Z</time>
      </trkpt>
      <trkpt lat="48.21984" lon="-3.34143">
        <ele>164.6</ele>
        <time>2021-08-10T10:15:38Z</time>
      </trkpt>
      <trkpt lat="48.21986" lon="-3.34149">
        <ele>164.6</ele>
        <time>2021-08-10T10:15:39Z</time>
      </trkpt>
      <trkpt lat="48.21988" lon="-3.34155">
        <ele>164.6</ele>
        <time>2021-08-10T10:15:40Z</time>
      </trkpt>
      <trkpt lat="48.21991" lon="-3.34162">
        <ele>164.6</ele>
        <time>2021-08-10T10:15:41Z</time>
      </trkpt>
      <trkpt lat="48.21993" lon="-3.34168">
        <ele>164.6</ele>
        <time>2021-08-10T10:15:42Z</time>
      </trkpt>
      <trkpt lat="48.21995" lon="-3.34174">
        <ele>164.6</ele>
        <time>2021-08-10T10:15:43Z</time>
      </trkpt>
      <trkpt lat="48.21997" lon="-3.34181">
        <ele>164.6</ele>
        <time>2021-08-10T10:15:44Z</time>
      </trkpt>
      <trkpt lat="48.22" lon="-3.34188">
        <ele>164.6</ele>
        <time>2021-08-10T10:15:45Z</time>
      </trkpt>
      <trkpt lat="48.22002" lon="-3.34195">
        <ele>164.6</ele>
        <time>2021-08-10T10:15:46Z</time>
      </trkpt>
      <trkpt lat="48.22005" lon="-3.34202">
        <ele>164.4</ele>
        <time>2021-08-10T10:15:47Z</time>
      </trkpt>
      <trkpt lat="48.22007" lon="-3.34209">
        <ele>164.2</ele>
        <time>2021-08-10T10:15:48Z</time>
      </trkpt>
      <trkpt lat="48.22009" lon="-3.34216">
        <ele>164.2</ele>
        <time>2021-08-10T10:15:49Z</time>
      </trkpt>
      <trkpt lat="48.22011" lon="-3.34222">
        <ele>164.2</ele>
        <time>2021-08-10T10:15:50Z</time>
      </trkpt>
      <trkpt lat="48.22013" lon="-3.34228">
        <ele>164.2</ele>
        <time>2021-08-10T10:15:51Z</time>
      </trkpt>
      <trkpt lat="48.22015" lon="-3.34234">
        <ele>164.2</ele>
        <time>2021-08-10T10:15:52Z</time>
      </trkpt>
      <trkpt lat="48.22018" lon="-3.3424">
        <ele>164.2</ele>
        <time>2021-08-10T10:15:53Z</time>
      </trkpt>
      <trkpt lat="48.2202" lon="-3.34246">
        <ele>164.2</ele>
        <time>2021-08-10T10:15:54Z</time>
      </trkpt>
      <trkpt lat="48.22022" lon="-3.34253">
        <ele>164.2</ele>
        <time>2021-08-10T10:15:55Z</time>
      </trkpt>
      <trkpt lat="48.22024" lon="-3.34259">
        <ele>164.2</ele>
        <time>2021-08-10T10:15:56Z</time>
      </trkpt>
      <trkpt lat="48.22026" lon="-3.34266">
        <ele>164.2</ele>
        <time>2021-08-10T10:15:57Z</time>
      </trkpt>
      <trkpt lat="48.22028" lon="-3.34272">
        <ele>164.2</ele>
        <time>2021-08-10T10:15:58Z</time>
      </trkpt>
      <trkpt lat="48.2203" lon="-3.34278">
        <ele>164.2</ele>
        <time>2021-08-10T10:15:59Z</time>
      </trkpt>
      <trkpt lat="48.22033" lon="-3.34285">
        <ele>164.2</ele>
        <time>2021-08-10T10:16:00Z</time>
      </trkpt>
      <trkpt lat="48.22035" lon="-3.34291">
        <ele>164.2</ele>
        <time>2021-08-10T10:16:01Z</time>
      </trkpt>
      <trkpt lat="48.22037" lon="-3.34298">
        <ele>164.4</ele>
        <time>2021-08-10T10:16:02Z</time>
      </trkpt>
      <trkpt lat="48.2204" lon="-3.34304">
        <ele>164.4</ele>
        <time>2021-08-10T10:16:03Z</time>
      </trkpt>
      <trkpt lat="48.22042" lon="-3.34311">
        <ele>164.4</ele>
        <time>2021-08-10T10:16:04Z</time>
      </trkpt>
      <trkpt lat="48.22044" lon="-3.34317">
        <ele>164.4</ele>
        <time>2021-08-10T10:16:05Z</time>
      </trkpt>
      <trkpt lat="48.22047" lon="-3.34324">
        <ele>164.6</ele>
        <time>2021-08-10T10:16:06Z</time>
      </trkpt>
      <trkpt lat="48.22049" lon="-3.34331">
        <ele>164.6</ele>
        <time>2021-08-10T10:16:07Z</time>
      </trkpt>
      <trkpt lat="48.22052" lon="-3.34337">
        <ele>164.6</ele>
        <time>2021-08-10T10:16:08Z</time>
      </trkpt>
      <trkpt lat="48.22054" lon="-3.34343">
        <ele>164.6</ele>
        <time>2021-08-10T10:16:09Z</time>
      </trkpt>
      <trkpt lat="48.22057" lon="-3.34348">
        <ele>164.6</ele>
        <time>2021-08-10T10:16:10Z</time>
      </trkpt>
      <trkpt lat="48.22059" lon="-3.34353">
        <ele>164.6</ele>
        <time>2021-08-10T10:16:11Z</time>
      </trkpt>
      <trkpt lat="48.22062" lon="-3.34357">
        <ele>164.6</ele>
        <time>2021-08-10T10:16:12Z</time>
      </trkpt>
      <trkpt lat="48.22065" lon="-3.34362">
        <ele>164.8</ele>
        <time>2021-08-10T10:16:13Z</time>
      </trkpt>
      <trkpt lat="48.22069" lon="-3.34366">
        <ele>164.8</ele>
        <time>2021-08-10T10:16:14Z</time>
      </trkpt>
      <trkpt lat="48.22073" lon="-3.34369">
        <ele>164.8</ele>
        <time>2021-08-10T10:16:15Z</time>
      </trkpt>
      <trkpt lat="48.22077" lon="-3.34373">
        <ele>164.8</ele>
        <time>2021-08-10T10:16:16Z</time>
      </trkpt>
      <trkpt lat="48.22081" lon="-3.34376">
        <ele>164.8</ele>
        <time>2021-08-10T10:16:17Z</time>
      </trkpt>
      <trkpt lat="48.22084" lon="-3.34379">
        <ele>164.8</ele>
        <time>2021-08-10T10:16:18Z</time>
      </trkpt>
      <trkpt lat="48.22088" lon="-3.34382">
        <ele>164.8</ele>
        <time>2021-08-10T10:16:19Z</time>
      </trkpt>
      <trkpt lat="48.22092" lon="-3.34384">
        <ele>164.8</ele>
        <time>2021-08-10T10:16:20Z</time>
      </trkpt>
      <trkpt lat="48.22096" lon="-3.34386">
        <ele>164.8</ele>
        <time>2021-08-10T10:16:21Z</time>
      </trkpt>
      <trkpt lat="48.22099" lon="-3.34389">
        <ele>164.8</ele>
        <time>2021-08-10T10:16:22Z</time>
      </trkpt>
      <trkpt lat="48.22103" lon="-3.34392">
        <ele>164.8</ele>
        <time>2021-08-10T10:16:23Z</time>
      </trkpt>
      <trkpt lat="48.22107" lon="-3.34395">
        <ele>164.8</ele>
        <time>2021-08-10T10:16:24Z</time>
      </trkpt>
      <trkpt lat="48.22111" lon="-3.34398">
        <ele>164.8</ele>
        <time>2021-08-10T10:16:25Z</time>
      </trkpt>
      <trkpt lat="48.22115" lon="-3.344">
        <ele>164.8</ele>
        <time>2021-08-10T10:16:26Z</time>
      </trkpt>
      <trkpt lat="48.22119" lon="-3.34403">
        <ele>164.8</ele>
        <time>2021-08-10T10:16:27Z</time>
      </trkpt>
      <trkpt lat="48.22123" lon="-3.34406">
        <ele>164.8</ele>
        <time>2021-08-10T10:16:28Z</time>
      </trkpt>
      <trkpt lat="48.22127" lon="-3.34408">
        <ele>164.8</ele>
        <time>2021-08-10T10:16:29Z</time>
      </trkpt>
      <trkpt lat="48.22132" lon="-3.34411">
        <ele>164.8</ele>
        <time>2021-08-10T10:16:30Z</time>
      </trkpt>
      <trkpt lat="48.22136" lon="-3.34414">
        <ele>164.8</ele>
        <time>2021-08-10T10:16:31Z</time>
      </trkpt>
      <trkpt lat="48.22141" lon="-3.34418">
        <ele>164.8</ele>
        <time>2021-08-10T10:16:32Z</time>
      </trkpt>
      <trkpt lat="48.22145" lon="-3.34421">
        <ele>164.8</ele>
        <time>2021-08-10T10:16:33Z</time>
      </trkpt>
      <trkpt lat="48.2215" lon="-3.34424">
        <ele>164.8</ele>
        <time>2021-08-10T10:16:34Z</time>
      </trkpt>
      <trkpt lat="48.22155" lon="-3.34427">
        <ele>164.8</ele>
        <time>2021-08-10T10:16:35Z</time>
      </trkpt>
      <trkpt lat="48.2216" lon="-3.3443">
        <ele>164.8</ele>
        <time>2021-08-10T10:16:36Z</time>
      </trkpt>
      <trkpt lat="48.22164" lon="-3.34433">
        <ele>165</ele>
        <time>2021-08-10T10:16:37Z</time>
      </trkpt>
      <trkpt lat="48.22169" lon="-3.34436">
        <ele>165</ele>
        <time>2021-08-10T10:16:38Z</time>
      </trkpt>
      <trkpt lat="48.22173" lon="-3.34438">
        <ele>165</ele>
        <time>2021-08-10T10:16:39Z</time>
      </trkpt>
      <trkpt lat="48.22177" lon="-3.34441">
        <ele>165</ele>
        <time>2021-08-10T10:16:40Z</time>
      </trkpt>
      <trkpt lat="48.22182" lon="-3.34443">
        <ele>165</ele>
        <time>2021-08-10T10:16:41Z</time>
      </trkpt>
      <trkpt lat="48.22186" lon="-3.34446">
        <ele>165</ele>
        <time>2021-08-10T10:16:42Z</time>
      </trkpt>
      <trkpt lat="48.22191" lon="-3.34449">
        <ele>165</ele>
        <time>2021-08-10T10:16:43Z</time>
      </trkpt>
      <trkpt lat="48.22195" lon="-3.34452">
        <ele>165</ele>
        <time>2021-08-10T10:16:44Z</time>
      </trkpt>
      <trkpt lat="48.222" lon="-3.34454">
        <ele>165</ele>
        <time>2021-08-10T10:16:45Z</time>
      </trkpt>
      <trkpt lat="48.22204" lon="-3.34457">
        <ele>165</ele>
        <time>2021-08-10T10:16:46Z</time>
      </trkpt>
      <trkpt lat="48.22209" lon="-3.3446">
        <ele>164.8</ele>
        <time>2021-08-10T10:16:47Z</time>
      </trkpt>
      <trkpt lat="48.22213" lon="-3.34463">
        <ele>164.8</ele>
        <time>2021-08-10T10:16:48Z</time>
      </trkpt>
      <trkpt lat="48.22217" lon="-3.34466">
        <ele>164.8</ele>
        <time>2021-08-10T10:16:49Z</time>
      </trkpt>
      <trkpt lat="48.22221" lon="-3.34468">
        <ele>164.8</ele>
        <time>2021-08-10T10:16:50Z</time>
      </trkpt>
      <trkpt lat="48.22225" lon="-3.3447">
        <ele>164.8</ele>
        <time>2021-08-10T10:16:51Z</time>
      </trkpt>
      <trkpt lat="48.22229" lon="-3.34473">
        <ele>164.8</ele>
        <time>2021-08-10T10:16:52Z</time>
      </trkpt>
      <trkpt lat="48.22233" lon="-3.34475">
        <ele>164.8</ele>
        <time>2021-08-10T10:16:53Z</time>
      </trkpt>
      <trkpt lat="48.22237" lon="-3.34478">
        <ele>164.8</ele>
        <time>2021-08-10T10:16:54Z</time>
      </trkpt>
      <trkpt lat="48.22241" lon="-3.34481">
        <ele>164.8</ele>
        <time>2021-08-10T10:16:55Z</time>
      </trkpt>
      <trkpt lat="48.22245" lon="-3.34484">
        <ele>164.8</ele>
        <time>2021-08-10T10:16:56Z</time>
      </trkpt>
      <trkpt lat="48.22249" lon="-3.34486">
        <ele>164.8</ele>
        <time>2021-08-10T10:16:57Z</time>
      </trkpt>
      <trkpt lat="48.22254" lon="-3.34489">
        <ele>164.8</ele>
        <time>2021-08-10T10:16:58Z</time>
      </trkpt>
      <trkpt lat="48.22258" lon="-3.34491">
        <ele>164.8</ele>
        <time>2021-08-10T10:16:59Z</time>
      </trkpt>
      <trkpt lat="48.22263" lon="-3.34494">
        <ele>164.8</ele>
        <time>2021-08-10T10:17:00Z</time>
      </trkpt>
      <trkpt lat="48.22267" lon="-3.34496">
        <ele>164.8</ele>
        <time>2021-08-10T10:17:01Z</time>
      </trkpt>
      <trkpt lat="48.22271" lon="-3.34499">
        <ele>165</ele>
        <time>2021-08-10T10:17:02Z</time>
      </trkpt>
      <trkpt lat="48.22276" lon="-3.34501">
        <ele>165</ele>
        <time>2021-08-10T10:17:03Z</time>
      </trkpt>
      <trkpt lat="48.2228" lon="-3.34503">
        <ele>165</ele>
        <time>2021-08-10T10:17:04Z</time>
      </trkpt>
      <trkpt lat="48.22284" lon="-3.34506">
        <ele>165</ele>
        <time>2021-08-10T10:17:05Z</time>
      </trkpt>
      <trkpt lat="48.22288" lon="-3.34508">
        <ele>165</ele>
        <time>2021-08-10T10:17:06Z</time>
      </trkpt>
      <trkpt lat="48.22292" lon="-3.3451">
        <ele>165</ele>
        <time>2021-08-10T10:17:07Z</time>
      </trkpt>
      <trkpt lat="48.22297" lon="-3.34512">
        <ele>165</ele>
        <time>2021-08-10T10:17:08Z</time>
      </trkpt>
      <trkpt lat="48.22301" lon="-3.34515">
        <ele>165</ele>
        <time>2021-08-10T10:17:09Z</time>
      </trkpt>
      <trkpt lat="48.22305" lon="-3.34518">
        <ele>165</ele>
        <time>2021-08-10T10:17:10Z</time>
      </trkpt>
      <trkpt lat="48.22309" lon="-3.3452">
        <ele>165</ele>
        <time>2021-08-10T10:17:11Z</time>
      </trkpt>
      <trkpt lat="48.22314" lon="-3.34523">
        <ele>165</ele>
        <time>2021-08-10T10:17:12Z</time>
      </trkpt>
      <trkpt lat="48.22318" lon="-3.34525">
        <ele>165</ele>
        <time>2021-08-10T10:17:13Z</time>
      </trkpt>
      <trkpt lat="48.22322" lon="-3.34528">
        <ele>165.2</ele>
        <time>2021-08-10T10:17:14Z</time>
      </trkpt>
      <trkpt lat="48.22326" lon="-3.34531">
        <ele>165.2</ele>
        <time>2021-08-10T10:17:15Z</time>
      </trkpt>
      <trkpt lat="48.2233" lon="-3.34533">
        <ele>165.2</ele>
        <time>2021-08-10T10:17:16Z</time>
      </trkpt>
      <trkpt lat="48.22334" lon="-3.34536">
        <ele>165.2</ele>
        <time>2021-08-10T10:17:17Z</time>
      </trkpt>
      <trkpt lat="48.22338" lon="-3.34538">
        <ele>165.2</ele>
        <time>2021-08-10T10:17:18Z</time>
      </trkpt>
      <trkpt lat="48.22342" lon="-3.3454">
        <ele>165.2</ele>
        <time>2021-08-10T10:17:19Z</time>
      </trkpt>
      <trkpt lat="48.22346" lon="-3.34543">
        <ele>165.2</ele>
        <time>2021-08-10T10:17:20Z</time>
      </trkpt>
      <trkpt lat="48.2235" lon="-3.34546">
        <ele>165.2</ele>
        <time>2021-08-10T10:17:21Z</time>
      </trkpt>
      <trkpt lat="48.22354" lon="-3.3455">
        <ele>165.2</ele>
        <time>2021-08-10T10:17:22Z</time>
      </trkpt>
      <trkpt lat="48.22358" lon="-3.34554">
        <ele>165.4</ele>
        <time>2021-08-10T10:17:23Z</time>
      </trkpt>
      <trkpt lat="48.22362" lon="-3.34558">
        <ele>165.4</ele>
        <time>2021-08-10T10:17:24Z</time>
      </trkpt>
      <trkpt lat="48.22366" lon="-3.34563">
        <ele>165.4</ele>
        <time>2021-08-10T10:17:25Z</time>
      </trkpt>
      <trkpt lat="48.2237" lon="-3.34569">
        <ele>165.4</ele>
        <time>2021-08-10T10:17:26Z</time>
      </trkpt>
      <trkpt lat="48.22373" lon="-3.34574">
        <ele>165.4</ele>
        <time>2021-08-10T10:17:27Z</time>
      </trkpt>
      <trkpt lat="48.22376" lon="-3.34578">
        <ele>165.4</ele>
        <time>2021-08-10T10:17:28Z</time>
      </trkpt>
      <trkpt lat="48.22379" lon="-3.34583">
        <ele>165.6</ele>
        <time>2021-08-10T10:17:29Z</time>
      </trkpt>
      <trkpt lat="48.22381" lon="-3.34588">
        <ele>165.6</ele>
        <time>2021-08-10T10:17:30Z</time>
      </trkpt>
      <trkpt lat="48.22384" lon="-3.34592">
        <ele>165.6</ele>
        <time>2021-08-10T10:17:31Z</time>
      </trkpt>
      <trkpt lat="48.22386" lon="-3.34597">
        <ele>165.6</ele>
        <time>2021-08-10T10:17:32Z</time>
      </trkpt>
      <trkpt lat="48.22388" lon="-3.34602">
        <ele>165.6</ele>
        <time>2021-08-10T10:17:33Z</time>
      </trkpt>
      <trkpt lat="48.2239" lon="-3.34606">
        <ele>165.6</ele>
        <time>2021-08-10T10:17:34Z</time>
      </trkpt>
      <trkpt lat="48.22393" lon="-3.34611">
        <ele>165.6</ele>
        <time>2021-08-10T10:17:35Z</time>
      </trkpt>
      <trkpt lat="48.22395" lon="-3.34616">
        <ele>165.6</ele>
        <time>2021-08-10T10:17:36Z</time>
      </trkpt>
      <trkpt lat="48.22397" lon="-3.34621">
        <ele>165.6</ele>
        <time>2021-08-10T10:17:37Z</time>
      </trkpt>
      <trkpt lat="48.22399" lon="-3.34628">
        <ele>165.6</ele>
        <time>2021-08-10T10:17:38Z</time>
      </trkpt>
      <trkpt lat="48.224" lon="-3.34634">
        <ele>165.6</ele>
        <time>2021-08-10T10:17:39Z</time>
      </trkpt>
      <trkpt lat="48.22401" lon="-3.34641">
        <ele>165.6</ele>
        <time>2021-08-10T10:17:40Z</time>
      </trkpt>
      <trkpt lat="48.22403" lon="-3.34647">
        <ele>165.6</ele>
        <time>2021-08-10T10:17:41Z</time>
      </trkpt>
      <trkpt lat="48.22405" lon="-3.34654">
        <ele>165.6</ele>
        <time>2021-08-10T10:17:42Z</time>
      </trkpt>
      <trkpt lat="48.22406" lon="-3.3466">
        <ele>165.6</ele>
        <time>2021-08-10T10:17:43Z</time>
      </trkpt>
      <trkpt lat="48.22408" lon="-3.34666">
        <ele>165.6</ele>
        <time>2021-08-10T10:17:44Z</time>
      </trkpt>
      <trkpt lat="48.22409" lon="-3.34672">
        <ele>165.6</ele>
        <time>2021-08-10T10:17:45Z</time>
      </trkpt>
      <trkpt lat="48.2241" lon="-3.34677">
        <ele>165.6</ele>
        <time>2021-08-10T10:17:46Z</time>
      </trkpt>
      <trkpt lat="48.22411" lon="-3.34681">
        <ele>165.8</ele>
        <time>2021-08-10T10:17:47Z</time>
      </trkpt>
      <trkpt lat="48.22412" lon="-3.34685">
        <ele>165.8</ele>
        <time>2021-08-10T10:17:48Z</time>
      </trkpt>
      <trkpt lat="48.22414" lon="-3.34687">
        <ele>165.8</ele>
        <time>2021-08-10T10:17:49Z</time>
      </trkpt>
      <trkpt lat="48.22415" lon="-3.34689">
        <ele>165.8</ele>
        <time>2021-08-10T10:17:50Z</time>
      </trkpt>
      <trkpt lat="48.22415" lon="-3.34692">
        <ele>166</ele>
        <time>2021-08-10T10:17:51Z</time>
      </trkpt>
      <trkpt lat="48.22416" lon="-3.34695">
        <ele>166</ele>
        <time>2021-08-10T10:17:52Z</time>
      </trkpt>
      <trkpt lat="48.22416" lon="-3.34699">
        <ele>166.2</ele>
        <time>2021-08-10T10:17:53Z</time>
      </trkpt>
      <trkpt lat="48.22417" lon="-3.34703">
        <ele>166.4</ele>
        <time>2021-08-10T10:17:54Z</time>
      </trkpt>
      <trkpt lat="48.22418" lon="-3.34707">
        <ele>166.6</ele>
        <time>2021-08-10T10:17:55Z</time>
      </trkpt>
      <trkpt lat="48.22419" lon="-3.34712">
        <ele>167</ele>
        <time>2021-08-10T10:17:56Z</time>
      </trkpt>
      <trkpt lat="48.2242" lon="-3.34717">
        <ele>167</ele>
        <time>2021-08-10T10:17:57Z</time>
      </trkpt>
      <trkpt lat="48.22422" lon="-3.34722">
        <ele>167.2</ele>
        <time>2021-08-10T10:17:58Z</time>
      </trkpt>
      <trkpt lat="48.22423" lon="-3.34727">
        <ele>167.2</ele>
        <time>2021-08-10T10:17:59Z</time>
      </trkpt>
      <trkpt lat="48.22424" lon="-3.34733">
        <ele>167.2</ele>
        <time>2021-08-10T10:18:00Z</time>
      </trkpt>
      <trkpt lat="48.22425" lon="-3.34738">
        <ele>167.2</ele>
        <time>2021-08-10T10:18:01Z</time>
      </trkpt>
      <trkpt lat="48.22426" lon="-3.34743">
        <ele>167.2</ele>
        <time>2021-08-10T10:18:02Z</time>
      </trkpt>
      <trkpt lat="48.22427" lon="-3.34748">
        <ele>167.4</ele>
        <time>2021-08-10T10:18:03Z</time>
      </trkpt>
      <trkpt lat="48.22428" lon="-3.34753">
        <ele>167.4</ele>
        <time>2021-08-10T10:18:04Z</time>
      </trkpt>
      <trkpt lat="48.22429" lon="-3.34759">
        <ele>167.4</ele>
        <time>2021-08-10T10:18:05Z</time>
      </trkpt>
      <trkpt lat="48.2243" lon="-3.34763">
        <ele>167.4</ele>
        <time>2021-08-10T10:18:06Z</time>
      </trkpt>
      <trkpt lat="48.22431" lon="-3.34768">
        <ele>167.4</ele>
        <time>2021-08-10T10:18:07Z</time>
      </trkpt>
      <trkpt lat="48.22432" lon="-3.34773">
        <ele>167.4</ele>
        <time>2021-08-10T10:18:08Z</time>
      </trkpt>
      <trkpt lat="48.22433" lon="-3.34777">
        <ele>167.4</ele>
        <time>2021-08-10T10:18:09Z</time>
      </trkpt>
      <trkpt lat="48.22433" lon="-3.34782">
        <ele>167.4</ele>
        <time>2021-08-10T10:18:10Z</time>
      </trkpt>
      <trkpt lat="48.22434" lon="-3.34787">
        <ele>167.4</ele>
        <time>2021-08-10T10:18:11Z</time>
      </trkpt>
      <trkpt lat="48.22435" lon="-3.34792">
        <ele>167.2</ele>
        <time>2021-08-10T10:18:12Z</time>
      </trkpt>
      <trkpt lat="48.22436" lon="-3.34797">
        <ele>167.2</ele>
        <time>2021-08-10T10:18:13Z</time>
      </trkpt>
      <trkpt lat="48.22437" lon="-3.34802">
        <ele>167.2</ele>
        <time>2021-08-10T10:18:14Z</time>
      </trkpt>
      <trkpt lat="48.22438" lon="-3.34807">
        <ele>167.2</ele>
        <time>2021-08-10T10:18:15Z</time>
      </trkpt>
      <trkpt lat="48.22439" lon="-3.34813">
        <ele>167.2</ele>
        <time>2021-08-10T10:18:16Z</time>
      </trkpt>
      <trkpt lat="48.2244" lon="-3.34818">
        <ele>167.2</ele>
        <time>2021-08-10T10:18:17Z</time>
      </trkpt>
      <trkpt lat="48.22441" lon="-3.34824">
        <ele>167.2</ele>
        <time>2021-08-10T10:18:18Z</time>
      </trkpt>
      <trkpt lat="48.22442" lon="-3.3483">
        <ele>167.2</ele>
        <time>2021-08-10T10:18:19Z</time>
      </trkpt>
      <trkpt lat="48.22442" lon="-3.34836">
        <ele>167.2</ele>
        <time>2021-08-10T10:18:20Z</time>
      </trkpt>
      <trkpt lat="48.22443" lon="-3.34843">
        <ele>167.2</ele>
        <time>2021-08-10T10:18:21Z</time>
      </trkpt>
      <trkpt lat="48.22443" lon="-3.34849">
        <ele>167.2</ele>
        <time>2021-08-10T10:18:22Z</time>
      </trkpt>
      <trkpt lat="48.22443" lon="-3.34856">
        <ele>167.2</ele>
        <time>2021-08-10T10:18:23Z</time>
      </trkpt>
      <trkpt lat="48.22444" lon="-3.34862">
        <ele>167</ele>
        <time>2021-08-10T10:18:24Z</time>
      </trkpt>
      <trkpt lat="48.22444" lon="-3.34867">
        <ele>167</ele>
        <time>2021-08-10T10:18:25Z</time>
      </trkpt>
      <trkpt lat="48.22444" lon="-3.34872">
        <ele>167</ele>
        <time>2021-08-10T10:18:26Z</time>
      </trkpt>
      <trkpt lat="48.22444" lon="-3.34879">
        <ele>167</ele>
        <time>2021-08-10T10:18:27Z</time>
      </trkpt>
      <trkpt lat="48.22443" lon="-3.34885">
        <ele>167</ele>
        <time>2021-08-10T10:18:28Z</time>
      </trkpt>
      <trkpt lat="48.22443" lon="-3.34892">
        <ele>167</ele>
        <time>2021-08-10T10:18:29Z</time>
      </trkpt>
      <trkpt lat="48.22441" lon="-3.34899">
        <ele>167</ele>
        <time>2021-08-10T10:18:30Z</time>
      </trkpt>
      <trkpt lat="48.2244" lon="-3.34907">
        <ele>167</ele>
        <time>2021-08-10T10:18:31Z</time>
      </trkpt>
      <trkpt lat="48.22438" lon="-3.34915">
        <ele>167</ele>
        <time>2021-08-10T10:18:32Z</time>
      </trkpt>
      <trkpt lat="48.22436" lon="-3.34922">
        <ele>167</ele>
        <time>2021-08-10T10:18:33Z</time>
      </trkpt>
      <trkpt lat="48.22433" lon="-3.3493">
        <ele>167</ele>
        <time>2021-08-10T10:18:34Z</time>
      </trkpt>
      <trkpt lat="48.22431" lon="-3.34938">
        <ele>167</ele>
        <time>2021-08-10T10:18:35Z</time>
      </trkpt>
      <trkpt lat="48.22428" lon="-3.34946">
        <ele>167</ele>
        <time>2021-08-10T10:18:36Z</time>
      </trkpt>
      <trkpt lat="48.22426" lon="-3.34953">
        <ele>167</ele>
        <time>2021-08-10T10:18:37Z</time>
      </trkpt>
      <trkpt lat="48.22423" lon="-3.34961">
        <ele>167</ele>
        <time>2021-08-10T10:18:38Z</time>
      </trkpt>
      <trkpt lat="48.22421" lon="-3.34968">
        <ele>167</ele>
        <time>2021-08-10T10:18:39Z</time>
      </trkpt>
      <trkpt lat="48.22418" lon="-3.34975">
        <ele>167</ele>
        <time>2021-08-10T10:18:40Z</time>
      </trkpt>
      <trkpt lat="48.22416" lon="-3.34982">
        <ele>167</ele>
        <time>2021-08-10T10:18:41Z</time>
      </trkpt>
      <trkpt lat="48.22413" lon="-3.34989">
        <ele>166.8</ele>
        <time>2021-08-10T10:18:42Z</time>
      </trkpt>
      <trkpt lat="48.22411" lon="-3.34996">
        <ele>166.8</ele>
        <time>2021-08-10T10:18:43Z</time>
      </trkpt>
      <trkpt lat="48.22408" lon="-3.35002">
        <ele>166.8</ele>
        <time>2021-08-10T10:18:44Z</time>
      </trkpt>
      <trkpt lat="48.22405" lon="-3.35009">
        <ele>166.8</ele>
        <time>2021-08-10T10:18:45Z</time>
      </trkpt>
      <trkpt lat="48.22403" lon="-3.35015">
        <ele>166.8</ele>
        <time>2021-08-10T10:18:46Z</time>
      </trkpt>
      <trkpt lat="48.224" lon="-3.35021">
        <ele>166.8</ele>
        <time>2021-08-10T10:18:47Z</time>
      </trkpt>
      <trkpt lat="48.22397" lon="-3.35028">
        <ele>166.8</ele>
        <time>2021-08-10T10:18:48Z</time>
      </trkpt>
      <trkpt lat="48.22395" lon="-3.35034">
        <ele>167</ele>
        <time>2021-08-10T10:18:49Z</time>
      </trkpt>
      <trkpt lat="48.22392" lon="-3.35041">
        <ele>167</ele>
        <time>2021-08-10T10:18:50Z</time>
      </trkpt>
      <trkpt lat="48.2239" lon="-3.35047">
        <ele>167</ele>
        <time>2021-08-10T10:18:51Z</time>
      </trkpt>
      <trkpt lat="48.22387" lon="-3.35054">
        <ele>167</ele>
        <time>2021-08-10T10:18:52Z</time>
      </trkpt>
      <trkpt lat="48.22385" lon="-3.3506">
        <ele>167</ele>
        <time>2021-08-10T10:18:53Z</time>
      </trkpt>
      <trkpt lat="48.22382" lon="-3.35066">
        <ele>167</ele>
        <time>2021-08-10T10:18:54Z</time>
      </trkpt>
      <trkpt lat="48.2238" lon="-3.35071">
        <ele>167</ele>
        <time>2021-08-10T10:18:55Z</time>
      </trkpt>
      <trkpt lat="48.22377" lon="-3.35077">
        <ele>167</ele>
        <time>2021-08-10T10:18:56Z</time>
      </trkpt>
      <trkpt lat="48.22375" lon="-3.35083">
        <ele>167.2</ele>
        <time>2021-08-10T10:18:57Z</time>
      </trkpt>
      <trkpt lat="48.22372" lon="-3.35088">
        <ele>167.2</ele>
        <time>2021-08-10T10:18:58Z</time>
      </trkpt>
      <trkpt lat="48.2237" lon="-3.35094">
        <ele>167.2</ele>
        <time>2021-08-10T10:18:59Z</time>
      </trkpt>
      <trkpt lat="48.22367" lon="-3.351">
        <ele>167.2</ele>
        <time>2021-08-10T10:19:00Z</time>
      </trkpt>
      <trkpt lat="48.22365" lon="-3.35107">
        <ele>167.2</ele>
        <time>2021-08-10T10:19:01Z</time>
      </trkpt>
      <trkpt lat="48.22362" lon="-3.35113">
        <ele>167.2</ele>
        <time>2021-08-10T10:19:02Z</time>
      </trkpt>
      <trkpt lat="48.2236" lon="-3.35119">
        <ele>167.2</ele>
        <time>2021-08-10T10:19:03Z</time>
      </trkpt>
      <trkpt lat="48.22358" lon="-3.35124">
        <ele>167.2</ele>
        <time>2021-08-10T10:19:04Z</time>
      </trkpt>
      <trkpt lat="48.22356" lon="-3.35129">
        <ele>167.2</ele>
        <time>2021-08-10T10:19:05Z</time>
      </trkpt>
      <trkpt lat="48.22354" lon="-3.35134">
        <ele>167.2</ele>
        <time>2021-08-10T10:19:06Z</time>
      </trkpt>
      <trkpt lat="48.22351" lon="-3.35139">
        <ele>167.2</ele>
        <time>2021-08-10T10:19:07Z</time>
      </trkpt>
      <trkpt lat="48.22349" lon="-3.35144">
        <ele>167.2</ele>
        <time>2021-08-10T10:19:08Z</time>
      </trkpt>
      <trkpt lat="48.22347" lon="-3.35149">
        <ele>167.2</ele>
        <time>2021-08-10T10:19:09Z</time>
      </trkpt>
      <trkpt lat="48.22345" lon="-3.35154">
        <ele>167</ele>
        <time>2021-08-10T10:19:10Z</time>
      </trkpt>
      <trkpt lat="48.22342" lon="-3.35159">
        <ele>167</ele>
        <time>2021-08-10T10:19:11Z</time>
      </trkpt>
      <trkpt lat="48.22339" lon="-3.35164">
        <ele>167</ele>
        <time>2021-08-10T10:19:12Z</time>
      </trkpt>
      <trkpt lat="48.22337" lon="-3.35169">
        <ele>167</ele>
        <time>2021-08-10T10:19:13Z</time>
      </trkpt>
      <trkpt lat="48.22334" lon="-3.35174">
        <ele>167</ele>
        <time>2021-08-10T10:19:14Z</time>
      </trkpt>
      <trkpt lat="48.22331" lon="-3.35179">
        <ele>167</ele>
        <time>2021-08-10T10:19:15Z</time>
      </trkpt>
      <trkpt lat="48.22328" lon="-3.35184">
        <ele>167</ele>
        <time>2021-08-10T10:19:16Z</time>
      </trkpt>
      <trkpt lat="48.22325" lon="-3.35188">
        <ele>167</ele>
        <time>2021-08-10T10:19:17Z</time>
      </trkpt>
      <trkpt lat="48.22322" lon="-3.35193">
        <ele>167</ele>
        <time>2021-08-10T10:19:18Z</time>
      </trkpt>
      <trkpt lat="48.22319" lon="-3.35197">
        <ele>167</ele>
        <time>2021-08-10T10:19:19Z</time>
      </trkpt>
      <trkpt lat="48.22316" lon="-3.35201">
        <ele>167</ele>
        <time>2021-08-10T10:19:20Z</time>
      </trkpt>
      <trkpt lat="48.22312" lon="-3.35205">
        <ele>167</ele>
        <time>2021-08-10T10:19:21Z</time>
      </trkpt>
      <trkpt lat="48.22308" lon="-3.35208">
        <ele>167</ele>
        <time>2021-08-10T10:19:22Z</time>
      </trkpt>
      <trkpt lat="48.22304" lon="-3.35211">
        <ele>167</ele>
        <time>2021-08-10T10:19:23Z</time>
      </trkpt>
      <trkpt lat="48.223" lon="-3.35214">
        <ele>167</ele>
        <time>2021-08-10T10:19:24Z</time>
      </trkpt>
      <trkpt lat="48.22296" lon="-3.35217">
        <ele>167</ele>
        <time>2021-08-10T10:19:25Z</time>
      </trkpt>
      <trkpt lat="48.22292" lon="-3.35219">
        <ele>167</ele>
        <time>2021-08-10T10:19:26Z</time>
      </trkpt>
      <trkpt lat="48.22288" lon="-3.35222">
        <ele>167</ele>
        <time>2021-08-10T10:19:27Z</time>
      </trkpt>
      <trkpt lat="48.22284" lon="-3.35224">
        <ele>167</ele>
        <time>2021-08-10T10:19:28Z</time>
      </trkpt>
      <trkpt lat="48.2228" lon="-3.35227">
        <ele>167.2</ele>
        <time>2021-08-10T10:19:29Z</time>
      </trkpt>
      <trkpt lat="48.22276" lon="-3.35229">
        <ele>167.2</ele>
        <time>2021-08-10T10:19:30Z</time>
      </trkpt>
      <trkpt lat="48.22272" lon="-3.35231">
        <ele>167.4</ele>
        <time>2021-08-10T10:19:31Z</time>
      </trkpt>
      <trkpt lat="48.22268" lon="-3.35233">
        <ele>167.4</ele>
        <time>2021-08-10T10:19:32Z</time>
      </trkpt>
      <trkpt lat="48.22263" lon="-3.35235">
        <ele>167.4</ele>
        <time>2021-08-10T10:19:33Z</time>
      </trkpt>
      <trkpt lat="48.22259" lon="-3.35238">
        <ele>167.4</ele>
        <time>2021-08-10T10:19:34Z</time>
      </trkpt>
      <trkpt lat="48.22255" lon="-3.3524">
        <ele>167.4</ele>
        <time>2021-08-10T10:19:35Z</time>
      </trkpt>
      <trkpt lat="48.22251" lon="-3.35243">
        <ele>167.4</ele>
        <time>2021-08-10T10:19:36Z</time>
      </trkpt>
      <trkpt lat="48.22246" lon="-3.35246">
        <ele>167.6</ele>
        <time>2021-08-10T10:19:37Z</time>
      </trkpt>
      <trkpt lat="48.22242" lon="-3.35249">
        <ele>167.6</ele>
        <time>2021-08-10T10:19:38Z</time>
      </trkpt>
      <trkpt lat="48.22238" lon="-3.35251">
        <ele>167.6</ele>
        <time>2021-08-10T10:19:39Z</time>
      </trkpt>
      <trkpt lat="48.22235" lon="-3.35255">
        <ele>167.6</ele>
        <time>2021-08-10T10:19:40Z</time>
      </trkpt>
      <trkpt lat="48.22231" lon="-3.35258">
        <ele>167.6</ele>
        <time>2021-08-10T10:19:41Z</time>
      </trkpt>
      <trkpt lat="48.22228" lon="-3.35262">
        <ele>167.6</ele>
        <time>2021-08-10T10:19:42Z</time>
      </trkpt>
      <trkpt lat="48.22224" lon="-3.35267">
        <ele>167.6</ele>
        <time>2021-08-10T10:19:43Z</time>
      </trkpt>
      <trkpt lat="48.22221" lon="-3.35271">
        <ele>167.6</ele>
        <time>2021-08-10T10:19:44Z</time>
      </trkpt>
      <trkpt lat="48.22218" lon="-3.35275">
        <ele>167.6</ele>
        <time>2021-08-10T10:19:45Z</time>
      </trkpt>
      <trkpt lat="48.22215" lon="-3.35279">
        <ele>167.6</ele>
        <time>2021-08-10T10:19:46Z</time>
      </trkpt>
      <trkpt lat="48.22212" lon="-3.35284">
        <ele>167.6</ele>
        <time>2021-08-10T10:19:47Z</time>
      </trkpt>
      <trkpt lat="48.2221" lon="-3.35289">
        <ele>167.4</ele>
        <time>2021-08-10T10:19:48Z</time>
      </trkpt>
      <trkpt lat="48.22207" lon="-3.35292">
        <ele>167.4</ele>
        <time>2021-08-10T10:19:49Z</time>
      </trkpt>
      <trkpt lat="48.22205" lon="-3.35297">
        <ele>167.4</ele>
        <time>2021-08-10T10:19:50Z</time>
      </trkpt>
      <trkpt lat="48.22204" lon="-3.35302">
        <ele>167.2</ele>
        <time>2021-08-10T10:19:51Z</time>
      </trkpt>
      <trkpt lat="48.22202" lon="-3.35307">
        <ele>167.2</ele>
        <time>2021-08-10T10:19:52Z</time>
      </trkpt>
      <trkpt lat="48.22201" lon="-3.35312">
        <ele>167.2</ele>
        <time>2021-08-10T10:19:53Z</time>
      </trkpt>
      <trkpt lat="48.222" lon="-3.35317">
        <ele>167.2</ele>
        <time>2021-08-10T10:19:54Z</time>
      </trkpt>
      <trkpt lat="48.22199" lon="-3.35322">
        <ele>167.2</ele>
        <time>2021-08-10T10:19:55Z</time>
      </trkpt>
      <trkpt lat="48.22199" lon="-3.35327">
        <ele>167.2</ele>
        <time>2021-08-10T10:19:56Z</time>
      </trkpt>
      <trkpt lat="48.22198" lon="-3.35332">
        <ele>167.2</ele>
        <time>2021-08-10T10:19:57Z</time>
      </trkpt>
      <trkpt lat="48.22197" lon="-3.35338">
        <ele>167.2</ele>
        <time>2021-08-10T10:19:58Z</time>
      </trkpt>
      <trkpt lat="48.22197" lon="-3.35343">
        <ele>167.2</ele>
        <time>2021-08-10T10:19:59Z</time>
      </trkpt>
      <trkpt lat="48.22197" lon="-3.35348">
        <ele>167.2</ele>
        <time>2021-08-10T10:20:00Z</time>
      </trkpt>
      <trkpt lat="48.22198" lon="-3.35352">
        <ele>167.2</ele>
        <time>2021-08-10T10:20:01Z</time>
      </trkpt>
      <trkpt lat="48.22198" lon="-3.35356">
        <ele>167.2</ele>
        <time>2021-08-10T10:20:02Z</time>
      </trkpt>
      <trkpt lat="48.22199" lon="-3.35359">
        <ele>167.2</ele>
        <time>2021-08-10T10:20:03Z</time>
      </trkpt>
      <trkpt lat="48.222" lon="-3.35361">
        <ele>167.4</ele>
        <time>2021-08-10T10:20:04Z</time>
      </trkpt>
      <trkpt lat="48.22202" lon="-3.35365">
        <ele>167.4</ele>
        <time>2021-08-10T10:20:05Z</time>
      </trkpt>
      <trkpt lat="48.22203" lon="-3.3537">
        <ele>167.6</ele>
        <time>2021-08-10T10:20:06Z</time>
      </trkpt>
      <trkpt lat="48.22205" lon="-3.35374">
        <ele>167.6</ele>
        <time>2021-08-10T10:20:07Z</time>
      </trkpt>
      <trkpt lat="48.22207" lon="-3.35379">
        <ele>167.6</ele>
        <time>2021-08-10T10:20:08Z</time>
      </trkpt>
      <trkpt lat="48.22208" lon="-3.35384">
        <ele>167.6</ele>
        <time>2021-08-10T10:20:09Z</time>
      </trkpt>
      <trkpt lat="48.2221" lon="-3.35388">
        <ele>167.6</ele>
        <time>2021-08-10T10:20:10Z</time>
      </trkpt>
      <trkpt lat="48.22213" lon="-3.35394">
        <ele>167.6</ele>
        <time>2021-08-10T10:20:11Z</time>
      </trkpt>
      <trkpt lat="48.22215" lon="-3.35399">
        <ele>167.6</ele>
        <time>2021-08-10T10:20:12Z</time>
      </trkpt>
      <trkpt lat="48.22217" lon="-3.35407">
        <ele>167.4</ele>
        <time>2021-08-10T10:20:13Z</time>
      </trkpt>
      <trkpt lat="48.22219" lon="-3.35414">
        <ele>167.4</ele>
        <time>2021-08-10T10:20:14Z</time>
      </trkpt>
      <trkpt lat="48.2222" lon="-3.3542">
        <ele>167.4</ele>
        <time>2021-08-10T10:20:15Z</time>
      </trkpt>
      <trkpt lat="48.22221" lon="-3.35424">
        <ele>167.4</ele>
        <time>2021-08-10T10:20:16Z</time>
      </trkpt>
      <trkpt lat="48.22224" lon="-3.35429">
        <ele>167.4</ele>
        <time>2021-08-10T10:20:17Z</time>
      </trkpt>
      <trkpt lat="48.22226" lon="-3.35434">
        <ele>167.4</ele>
        <time>2021-08-10T10:20:18Z</time>
      </trkpt>
      <trkpt lat="48.22227" lon="-3.3544">
        <ele>167.4</ele>
        <time>2021-08-10T10:20:19Z</time>
      </trkpt>
      <trkpt lat="48.22228" lon="-3.35447">
        <ele>167.4</ele>
        <time>2021-08-10T10:20:20Z</time>
      </trkpt>
      <trkpt lat="48.22228" lon="-3.35453">
        <ele>167.4</ele>
        <time>2021-08-10T10:20:21Z</time>
      </trkpt>
      <trkpt lat="48.22228" lon="-3.35459">
        <ele>167.4</ele>
        <time>2021-08-10T10:20:22Z</time>
      </trkpt>
      <trkpt lat="48.22229" lon="-3.35464">
        <ele>167.4</ele>
        <time>2021-08-10T10:20:23Z</time>
      </trkpt>
      <trkpt lat="48.22231" lon="-3.35472">
        <ele>167.4</ele>
        <time>2021-08-10T10:20:24Z</time>
      </trkpt>
      <trkpt lat="48.22233" lon="-3.3548">
        <ele>167.2</ele>
        <time>2021-08-10T10:20:25Z</time>
      </trkpt>
      <trkpt lat="48.22235" lon="-3.35488">
        <ele>167.2</ele>
        <time>2021-08-10T10:20:26Z</time>
      </trkpt>
      <trkpt lat="48.22237" lon="-3.35495">
        <ele>167.2</ele>
        <time>2021-08-10T10:20:27Z</time>
      </trkpt>
      <trkpt lat="48.22238" lon="-3.35503">
        <ele>167.2</ele>
        <time>2021-08-10T10:20:28Z</time>
      </trkpt>
      <trkpt lat="48.2224" lon="-3.35511">
        <ele>167.2</ele>
        <time>2021-08-10T10:20:29Z</time>
      </trkpt>
      <trkpt lat="48.22242" lon="-3.35519">
        <ele>167.2</ele>
        <time>2021-08-10T10:20:30Z</time>
      </trkpt>
      <trkpt lat="48.22244" lon="-3.35526">
        <ele>167.2</ele>
        <time>2021-08-10T10:20:31Z</time>
      </trkpt>
      <trkpt lat="48.22246" lon="-3.35531">
        <ele>167.2</ele>
        <time>2021-08-10T10:20:32Z</time>
      </trkpt>
      <trkpt lat="48.22248" lon="-3.35536">
        <ele>167.2</ele>
        <time>2021-08-10T10:20:33Z</time>
      </trkpt>
      <trkpt lat="48.22248" lon="-3.35542">
        <ele>167.2</ele>
        <time>2021-08-10T10:20:34Z</time>
      </trkpt>
      <trkpt lat="48.22249" lon="-3.35547">
        <ele>167.2</ele>
        <time>2021-08-10T10:20:35Z</time>
      </trkpt>
      <trkpt lat="48.22249" lon="-3.35553">
        <ele>167.2</ele>
        <time>2021-08-10T10:20:36Z</time>
      </trkpt>
      <trkpt lat="48.22252" lon="-3.35558">
        <ele>167.2</ele>
        <time>2021-08-10T10:20:37Z</time>
      </trkpt>
      <trkpt lat="48.22255" lon="-3.35563">
        <ele>167.2</ele>
        <time>2021-08-10T10:20:38Z</time>
      </trkpt>
      <trkpt lat="48.22258" lon="-3.35568">
        <ele>167.2</ele>
        <time>2021-08-10T10:20:39Z</time>
      </trkpt>
      <trkpt lat="48.22261" lon="-3.35573">
        <ele>167.2</ele>
        <time>2021-08-10T10:20:40Z</time>
      </trkpt>
      <trkpt lat="48.22264" lon="-3.35577">
        <ele>167.2</ele>
        <time>2021-08-10T10:20:41Z</time>
      </trkpt>
      <trkpt lat="48.22267" lon="-3.3558">
        <ele>167.2</ele>
        <time>2021-08-10T10:20:42Z</time>
      </trkpt>
      <trkpt lat="48.2227" lon="-3.35584">
        <ele>167.2</ele>
        <time>2021-08-10T10:20:43Z</time>
      </trkpt>
      <trkpt lat="48.22272" lon="-3.35587">
        <ele>167.2</ele>
        <time>2021-08-10T10:20:44Z</time>
      </trkpt>
      <trkpt lat="48.22275" lon="-3.35591">
        <ele>167.2</ele>
        <time>2021-08-10T10:20:45Z</time>
      </trkpt>
      <trkpt lat="48.22277" lon="-3.35595">
        <ele>167.2</ele>
        <time>2021-08-10T10:20:46Z</time>
      </trkpt>
      <trkpt lat="48.2228" lon="-3.35598">
        <ele>167.2</ele>
        <time>2021-08-10T10:20:47Z</time>
      </trkpt>
      <trkpt lat="48.22281" lon="-3.35602">
        <ele>167.4</ele>
        <time>2021-08-10T10:20:48Z</time>
      </trkpt>
      <trkpt lat="48.22285" lon="-3.35608">
        <ele>167.6</ele>
        <time>2021-08-10T10:20:49Z</time>
      </trkpt>
      <trkpt lat="48.22286" lon="-3.35613">
        <ele>167.6</ele>
        <time>2021-08-10T10:20:50Z</time>
      </trkpt>
      <trkpt lat="48.22291" lon="-3.35618">
        <ele>167.6</ele>
        <time>2021-08-10T10:20:51Z</time>
      </trkpt>
      <trkpt lat="48.22293" lon="-3.35625">
        <ele>167.6</ele>
        <time>2021-08-10T10:20:52Z</time>
      </trkpt>
      <trkpt lat="48.22295" lon="-3.35629">
        <ele>167.8</ele>
        <time>2021-08-10T10:20:53Z</time>
      </trkpt>
      <trkpt lat="48.22298" lon="-3.35634">
        <ele>167.8</ele>
        <time>2021-08-10T10:20:54Z</time>
      </trkpt>
      <trkpt lat="48.22299" lon="-3.35643">
        <ele>167.8</ele>
        <time>2021-08-10T10:20:55Z</time>
      </trkpt>
      <trkpt lat="48.22302" lon="-3.35651">
        <ele>168</ele>
        <time>2021-08-10T10:20:56Z</time>
      </trkpt>
      <trkpt lat="48.22305" lon="-3.3566">
        <ele>168</ele>
        <time>2021-08-10T10:20:57Z</time>
      </trkpt>
      <trkpt lat="48.22306" lon="-3.35668">
        <ele>168.2</ele>
        <time>2021-08-10T10:20:58Z</time>
      </trkpt>
      <trkpt lat="48.22309" lon="-3.35674">
        <ele>168.2</ele>
        <time>2021-08-10T10:20:59Z</time>
      </trkpt>
      <trkpt lat="48.22312" lon="-3.35679">
        <ele>168.4</ele>
        <time>2021-08-10T10:21:00Z</time>
      </trkpt>
      <trkpt lat="48.22316" lon="-3.35685">
        <ele>168.4</ele>
        <time>2021-08-10T10:21:01Z</time>
      </trkpt>
      <trkpt lat="48.22319" lon="-3.3569">
        <ele>168.8</ele>
        <time>2021-08-10T10:21:02Z</time>
      </trkpt>
      <trkpt lat="48.22322" lon="-3.35695">
        <ele>168.8</ele>
        <time>2021-08-10T10:21:03Z</time>
      </trkpt>
      <trkpt lat="48.22325" lon="-3.35699">
        <ele>169</ele>
        <time>2021-08-10T10:21:04Z</time>
      </trkpt>
      <trkpt lat="48.22328" lon="-3.35703">
        <ele>169</ele>
        <time>2021-08-10T10:21:05Z</time>
      </trkpt>
      <trkpt lat="48.22332" lon="-3.35707">
        <ele>169</ele>
        <time>2021-08-10T10:21:06Z</time>
      </trkpt>
      <trkpt lat="48.22335" lon="-3.35711">
        <ele>169</ele>
        <time>2021-08-10T10:21:07Z</time>
      </trkpt>
      <trkpt lat="48.22338" lon="-3.35715">
        <ele>169</ele>
        <time>2021-08-10T10:21:08Z</time>
      </trkpt>
      <trkpt lat="48.22341" lon="-3.35719">
        <ele>169</ele>
        <time>2021-08-10T10:21:09Z</time>
      </trkpt>
      <trkpt lat="48.22344" lon="-3.35723">
        <ele>169</ele>
        <time>2021-08-10T10:21:10Z</time>
      </trkpt>
      <trkpt lat="48.22346" lon="-3.35728">
        <ele>169</ele>
        <time>2021-08-10T10:21:11Z</time>
      </trkpt>
      <trkpt lat="48.22349" lon="-3.35732">
        <ele>169</ele>
        <time>2021-08-10T10:21:12Z</time>
      </trkpt>
      <trkpt lat="48.22352" lon="-3.35736">
        <ele>169.2</ele>
        <time>2021-08-10T10:21:13Z</time>
      </trkpt>
      <trkpt lat="48.22355" lon="-3.35741">
        <ele>169.2</ele>
        <time>2021-08-10T10:21:14Z</time>
      </trkpt>
      <trkpt lat="48.22358" lon="-3.35746">
        <ele>169.2</ele>
        <time>2021-08-10T10:21:15Z</time>
      </trkpt>
      <trkpt lat="48.22362" lon="-3.35751">
        <ele>169.2</ele>
        <time>2021-08-10T10:21:16Z</time>
      </trkpt>
      <trkpt lat="48.22366" lon="-3.35756">
        <ele>169.2</ele>
        <time>2021-08-10T10:21:17Z</time>
      </trkpt>
      <trkpt lat="48.22369" lon="-3.35761">
        <ele>169.2</ele>
        <time>2021-08-10T10:21:18Z</time>
      </trkpt>
      <trkpt lat="48.22372" lon="-3.35766">
        <ele>169.2</ele>
        <time>2021-08-10T10:21:19Z</time>
      </trkpt>
      <trkpt lat="48.22376" lon="-3.35771">
        <ele>169.2</ele>
        <time>2021-08-10T10:21:20Z</time>
      </trkpt>
      <trkpt lat="48.22378" lon="-3.35776">
        <ele>169.4</ele>
        <time>2021-08-10T10:21:21Z</time>
      </trkpt>
      <trkpt lat="48.22381" lon="-3.35782">
        <ele>169.4</ele>
        <time>2021-08-10T10:21:22Z</time>
      </trkpt>
      <trkpt lat="48.22384" lon="-3.35788">
        <ele>169.6</ele>
        <time>2021-08-10T10:21:23Z</time>
      </trkpt>
      <trkpt lat="48.22386" lon="-3.35794">
        <ele>169.6</ele>
        <time>2021-08-10T10:21:24Z</time>
      </trkpt>
      <trkpt lat="48.22388" lon="-3.358">
        <ele>169.6</ele>
        <time>2021-08-10T10:21:25Z</time>
      </trkpt>
      <trkpt lat="48.22391" lon="-3.35806">
        <ele>169.6</ele>
        <time>2021-08-10T10:21:26Z</time>
      </trkpt>
      <trkpt lat="48.22393" lon="-3.35812">
        <ele>169.6</ele>
        <time>2021-08-10T10:21:27Z</time>
      </trkpt>
      <trkpt lat="48.22395" lon="-3.35819">
        <ele>169.6</ele>
        <time>2021-08-10T10:21:28Z</time>
      </trkpt>
      <trkpt lat="48.22396" lon="-3.35825">
        <ele>169.6</ele>
        <time>2021-08-10T10:21:29Z</time>
      </trkpt>
      <trkpt lat="48.22398" lon="-3.35831">
        <ele>169.6</ele>
        <time>2021-08-10T10:21:30Z</time>
      </trkpt>
      <trkpt lat="48.224" lon="-3.35837">
        <ele>169.6</ele>
        <time>2021-08-10T10:21:31Z</time>
      </trkpt>
      <trkpt lat="48.22401" lon="-3.35843">
        <ele>169.6</ele>
        <time>2021-08-10T10:21:32Z</time>
      </trkpt>
      <trkpt lat="48.22403" lon="-3.35849">
        <ele>169.6</ele>
        <time>2021-08-10T10:21:33Z</time>
      </trkpt>
      <trkpt lat="48.22404" lon="-3.35854">
        <ele>169.6</ele>
        <time>2021-08-10T10:21:34Z</time>
      </trkpt>
      <trkpt lat="48.22406" lon="-3.3586">
        <ele>169.6</ele>
        <time>2021-08-10T10:21:35Z</time>
      </trkpt>
      <trkpt lat="48.22407" lon="-3.35866">
        <ele>169.6</ele>
        <time>2021-08-10T10:21:36Z</time>
      </trkpt>
      <trkpt lat="48.22409" lon="-3.35873">
        <ele>169.6</ele>
        <time>2021-08-10T10:21:37Z</time>
      </trkpt>
      <trkpt lat="48.2241" lon="-3.3588">
        <ele>169.4</ele>
        <time>2021-08-10T10:21:38Z</time>
      </trkpt>
      <trkpt lat="48.22412" lon="-3.35886">
        <ele>169.4</ele>
        <time>2021-08-10T10:21:39Z</time>
      </trkpt>
      <trkpt lat="48.22414" lon="-3.35893">
        <ele>169.4</ele>
        <time>2021-08-10T10:21:40Z</time>
      </trkpt>
      <trkpt lat="48.22415" lon="-3.359">
        <ele>169.2</ele>
        <time>2021-08-10T10:21:41Z</time>
      </trkpt>
      <trkpt lat="48.22417" lon="-3.35907">
        <ele>169.2</ele>
        <time>2021-08-10T10:21:42Z</time>
      </trkpt>
      <trkpt lat="48.22419" lon="-3.35913">
        <ele>169.2</ele>
        <time>2021-08-10T10:21:43Z</time>
      </trkpt>
      <trkpt lat="48.2242" lon="-3.35919">
        <ele>169.2</ele>
        <time>2021-08-10T10:21:44Z</time>
      </trkpt>
      <trkpt lat="48.22422" lon="-3.35925">
        <ele>169.2</ele>
        <time>2021-08-10T10:21:45Z</time>
      </trkpt>
      <trkpt lat="48.22423" lon="-3.35931">
        <ele>169.2</ele>
        <time>2021-08-10T10:21:46Z</time>
      </trkpt>
      <trkpt lat="48.22425" lon="-3.35937">
        <ele>169.2</ele>
        <time>2021-08-10T10:21:47Z</time>
      </trkpt>
      <trkpt lat="48.22426" lon="-3.35942">
        <ele>169.2</ele>
        <time>2021-08-10T10:21:48Z</time>
      </trkpt>
      <trkpt lat="48.22427" lon="-3.35947">
        <ele>169.2</ele>
        <time>2021-08-10T10:21:49Z</time>
      </trkpt>
      <trkpt lat="48.22428" lon="-3.35953">
        <ele>169.2</ele>
        <time>2021-08-10T10:21:50Z</time>
      </trkpt>
      <trkpt lat="48.2243" lon="-3.35959">
        <ele>169.2</ele>
        <time>2021-08-10T10:21:51Z</time>
      </trkpt>
      <trkpt lat="48.22431" lon="-3.35965">
        <ele>169.2</ele>
        <time>2021-08-10T10:21:52Z</time>
      </trkpt>
      <trkpt lat="48.22432" lon="-3.3597">
        <ele>169.2</ele>
        <time>2021-08-10T10:21:53Z</time>
      </trkpt>
      <trkpt lat="48.22435" lon="-3.35976">
        <ele>169.4</ele>
        <time>2021-08-10T10:21:54Z</time>
      </trkpt>
      <trkpt lat="48.22437" lon="-3.35981">
        <ele>169.6</ele>
        <time>2021-08-10T10:21:55Z</time>
      </trkpt>
      <trkpt lat="48.22439" lon="-3.35987">
        <ele>169.8</ele>
        <time>2021-08-10T10:21:56Z</time>
      </trkpt>
      <trkpt lat="48.22442" lon="-3.35993">
        <ele>169.8</ele>
        <time>2021-08-10T10:21:57Z</time>
      </trkpt>
      <trkpt lat="48.22445" lon="-3.35999">
        <ele>169.8</ele>
        <time>2021-08-10T10:21:58Z</time>
      </trkpt>
      <trkpt lat="48.22448" lon="-3.36004">
        <ele>169.8</ele>
        <time>2021-08-10T10:21:59Z</time>
      </trkpt>
      <trkpt lat="48.2245" lon="-3.36009">
        <ele>169.8</ele>
        <time>2021-08-10T10:22:00Z</time>
      </trkpt>
      <trkpt lat="48.22453" lon="-3.36015">
        <ele>169.8</ele>
        <time>2021-08-10T10:22:01Z</time>
      </trkpt>
      <trkpt lat="48.22456" lon="-3.36021">
        <ele>169.8</ele>
        <time>2021-08-10T10:22:02Z</time>
      </trkpt>
      <trkpt lat="48.22459" lon="-3.36027">
        <ele>169.8</ele>
        <time>2021-08-10T10:22:03Z</time>
      </trkpt>
      <trkpt lat="48.22463" lon="-3.36033">
        <ele>169.8</ele>
        <time>2021-08-10T10:22:04Z</time>
      </trkpt>
      <trkpt lat="48.22466" lon="-3.36038">
        <ele>169.8</ele>
        <time>2021-08-10T10:22:05Z</time>
      </trkpt>
      <trkpt lat="48.2247" lon="-3.36044">
        <ele>169.8</ele>
        <time>2021-08-10T10:22:06Z</time>
      </trkpt>
      <trkpt lat="48.22473" lon="-3.3605">
        <ele>169.8</ele>
        <time>2021-08-10T10:22:07Z</time>
      </trkpt>
      <trkpt lat="48.22476" lon="-3.36055">
        <ele>169.8</ele>
        <time>2021-08-10T10:22:08Z</time>
      </trkpt>
      <trkpt lat="48.2248" lon="-3.3606">
        <ele>169.6</ele>
        <time>2021-08-10T10:22:09Z</time>
      </trkpt>
      <trkpt lat="48.22483" lon="-3.36066">
        <ele>169.6</ele>
        <time>2021-08-10T10:22:10Z</time>
      </trkpt>
      <trkpt lat="48.22487" lon="-3.3607">
        <ele>169.6</ele>
        <time>2021-08-10T10:22:11Z</time>
      </trkpt>
      <trkpt lat="48.22491" lon="-3.36074">
        <ele>169.6</ele>
        <time>2021-08-10T10:22:12Z</time>
      </trkpt>
      <trkpt lat="48.22496" lon="-3.36078">
        <ele>169.6</ele>
        <time>2021-08-10T10:22:13Z</time>
      </trkpt>
      <trkpt lat="48.225" lon="-3.36082">
        <ele>169.6</ele>
        <time>2021-08-10T10:22:14Z</time>
      </trkpt>
      <trkpt lat="48.22505" lon="-3.36085">
        <ele>169.6</ele>
        <time>2021-08-10T10:22:15Z</time>
      </trkpt>
      <trkpt lat="48.2251" lon="-3.36087">
        <ele>169.6</ele>
        <time>2021-08-10T10:22:16Z</time>
      </trkpt>
      <trkpt lat="48.22515" lon="-3.36089">
        <ele>169.6</ele>
        <time>2021-08-10T10:22:17Z</time>
      </trkpt>
      <trkpt lat="48.2252" lon="-3.36091">
        <ele>169.6</ele>
        <time>2021-08-10T10:22:18Z</time>
      </trkpt>
      <trkpt lat="48.22525" lon="-3.36092">
        <ele>169.6</ele>
        <time>2021-08-10T10:22:19Z</time>
      </trkpt>
      <trkpt lat="48.2253" lon="-3.36093">
        <ele>169.4</ele>
        <time>2021-08-10T10:22:20Z</time>
      </trkpt>
      <trkpt lat="48.22535" lon="-3.36094">
        <ele>169.4</ele>
        <time>2021-08-10T10:22:21Z</time>
      </trkpt>
      <trkpt lat="48.2254" lon="-3.36094">
        <ele>169.4</ele>
        <time>2021-08-10T10:22:22Z</time>
      </trkpt>
      <trkpt lat="48.22545" lon="-3.36094">
        <ele>169.4</ele>
        <time>2021-08-10T10:22:23Z</time>
      </trkpt>
      <trkpt lat="48.2255" lon="-3.36094">
        <ele>169.4</ele>
        <time>2021-08-10T10:22:24Z</time>
      </trkpt>
      <trkpt lat="48.22554" lon="-3.36093">
        <ele>169.4</ele>
        <time>2021-08-10T10:22:25Z</time>
      </trkpt>
      <trkpt lat="48.22559" lon="-3.36092">
        <ele>169.4</ele>
        <time>2021-08-10T10:22:26Z</time>
      </trkpt>
      <trkpt lat="48.22564" lon="-3.36091">
        <ele>169.4</ele>
        <time>2021-08-10T10:22:27Z</time>
      </trkpt>
      <trkpt lat="48.22568" lon="-3.3609">
        <ele>169.4</ele>
        <time>2021-08-10T10:22:28Z</time>
      </trkpt>
      <trkpt lat="48.22572" lon="-3.36089">
        <ele>169.4</ele>
        <time>2021-08-10T10:22:29Z</time>
      </trkpt>
      <trkpt lat="48.22577" lon="-3.36087">
        <ele>169.4</ele>
        <time>2021-08-10T10:22:30Z</time>
      </trkpt>
      <trkpt lat="48.22581" lon="-3.36085">
        <ele>169.4</ele>
        <time>2021-08-10T10:22:31Z</time>
      </trkpt>
      <trkpt lat="48.22585" lon="-3.36083">
        <ele>169.4</ele>
        <time>2021-08-10T10:22:32Z</time>
      </trkpt>
      <trkpt lat="48.22589" lon="-3.36081">
        <ele>169.6</ele>
        <time>2021-08-10T10:22:33Z</time>
      </trkpt>
      <trkpt lat="48.22593" lon="-3.36079">
        <ele>169.6</ele>
        <time>2021-08-10T10:22:34Z</time>
      </trkpt>
      <trkpt lat="48.22598" lon="-3.36076">
        <ele>169.8</ele>
        <time>2021-08-10T10:22:35Z</time>
      </trkpt>
      <trkpt lat="48.22602" lon="-3.36074">
        <ele>169.8</ele>
        <time>2021-08-10T10:22:36Z</time>
      </trkpt>
      <trkpt lat="48.22607" lon="-3.36072">
        <ele>169.8</ele>
        <time>2021-08-10T10:22:37Z</time>
      </trkpt>
      <trkpt lat="48.22612" lon="-3.36069">
        <ele>169.8</ele>
        <time>2021-08-10T10:22:38Z</time>
      </trkpt>
      <trkpt lat="48.22616" lon="-3.36066">
        <ele>169.8</ele>
        <time>2021-08-10T10:22:39Z</time>
      </trkpt>
      <trkpt lat="48.22621" lon="-3.36064">
        <ele>170</ele>
        <time>2021-08-10T10:22:40Z</time>
      </trkpt>
      <trkpt lat="48.22625" lon="-3.36061">
        <ele>170</ele>
        <time>2021-08-10T10:22:41Z</time>
      </trkpt>
      <trkpt lat="48.2263" lon="-3.36059">
        <ele>170</ele>
        <time>2021-08-10T10:22:42Z</time>
      </trkpt>
      <trkpt lat="48.22634" lon="-3.36057">
        <ele>170</ele>
        <time>2021-08-10T10:22:43Z</time>
      </trkpt>
      <trkpt lat="48.22638" lon="-3.36054">
        <ele>170</ele>
        <time>2021-08-10T10:22:44Z</time>
      </trkpt>
      <trkpt lat="48.22642" lon="-3.36052">
        <ele>170.2</ele>
        <time>2021-08-10T10:22:45Z</time>
      </trkpt>
      <trkpt lat="48.22646" lon="-3.3605">
        <ele>170.2</ele>
        <time>2021-08-10T10:22:46Z</time>
      </trkpt>
      <trkpt lat="48.2265" lon="-3.36048">
        <ele>170.4</ele>
        <time>2021-08-10T10:22:47Z</time>
      </trkpt>
      <trkpt lat="48.22654" lon="-3.36047">
        <ele>170.4</ele>
        <time>2021-08-10T10:22:48Z</time>
      </trkpt>
      <trkpt lat="48.22658" lon="-3.36045">
        <ele>170.4</ele>
        <time>2021-08-10T10:22:49Z</time>
      </trkpt>
      <trkpt lat="48.22663" lon="-3.36043">
        <ele>170.4</ele>
        <time>2021-08-10T10:22:50Z</time>
      </trkpt>
      <trkpt lat="48.22667" lon="-3.36041">
        <ele>170.6</ele>
        <time>2021-08-10T10:22:51Z</time>
      </trkpt>
      <trkpt lat="48.22671" lon="-3.36038">
        <ele>170.6</ele>
        <time>2021-08-10T10:22:52Z</time>
      </trkpt>
      <trkpt lat="48.22676" lon="-3.36036">
        <ele>170.8</ele>
        <time>2021-08-10T10:22:53Z</time>
      </trkpt>
      <trkpt lat="48.2268" lon="-3.36034">
        <ele>170.8</ele>
        <time>2021-08-10T10:22:54Z</time>
      </trkpt>
      <trkpt lat="48.22685" lon="-3.36032">
        <ele>170.8</ele>
        <time>2021-08-10T10:22:55Z</time>
      </trkpt>
      <trkpt lat="48.22689" lon="-3.3603">
        <ele>170.8</ele>
        <time>2021-08-10T10:22:56Z</time>
      </trkpt>
      <trkpt lat="48.22693" lon="-3.36028">
        <ele>170.8</ele>
        <time>2021-08-10T10:22:57Z</time>
      </trkpt>
      <trkpt lat="48.22698" lon="-3.36026">
        <ele>171</ele>
        <time>2021-08-10T10:22:58Z</time>
      </trkpt>
      <trkpt lat="48.22701" lon="-3.36024">
        <ele>171</ele>
        <time>2021-08-10T10:22:59Z</time>
      </trkpt>
      <trkpt lat="48.22705" lon="-3.36022">
        <ele>171</ele>
        <time>2021-08-10T10:23:00Z</time>
      </trkpt>
      <trkpt lat="48.22709" lon="-3.3602">
        <ele>171.2</ele>
        <time>2021-08-10T10:23:01Z</time>
      </trkpt>
      <trkpt lat="48.22712" lon="-3.36018">
        <ele>171.4</ele>
        <time>2021-08-10T10:23:02Z</time>
      </trkpt>
      <trkpt lat="48.22716" lon="-3.36017">
        <ele>171.4</ele>
        <time>2021-08-10T10:23:03Z</time>
      </trkpt>
      <trkpt lat="48.22719" lon="-3.36015">
        <ele>171.2</ele>
        <time>2021-08-10T10:23:04Z</time>
      </trkpt>
      <trkpt lat="48.22721" lon="-3.36015">
        <ele>171.4</ele>
        <time>2021-08-10T10:23:05Z</time>
      </trkpt>
      <trkpt lat="48.22724" lon="-3.36014">
        <ele>171.4</ele>
        <time>2021-08-10T10:23:06Z</time>
      </trkpt>
      <trkpt lat="48.22725" lon="-3.36013">
        <ele>171.4</ele>
        <time>2021-08-10T10:23:07Z</time>
      </trkpt>
      <trkpt lat="48.22726" lon="-3.36014">
        <ele>171.4</ele>
        <time>2021-08-10T10:23:08Z</time>
      </trkpt>
      <trkpt lat="48.22727" lon="-3.36016">
        <ele>171.6</ele>
        <time>2021-08-10T10:23:09Z</time>
      </trkpt>
      <trkpt lat="48.22728" lon="-3.36017">
        <ele>171.8</ele>
        <time>2021-08-10T10:23:10Z</time>
      </trkpt>
      <trkpt lat="48.2273" lon="-3.36018">
        <ele>172.2</ele>
        <time>2021-08-10T10:23:12Z</time>
      </trkpt>
      <trkpt lat="48.22731" lon="-3.36018">
        <ele>172.2</ele>
        <time>2021-08-10T10:23:13Z</time>
      </trkpt>
      <trkpt lat="48.22732" lon="-3.36018">
        <ele>172.4</ele>
        <time>2021-08-10T10:23:14Z</time>
      </trkpt>
      <trkpt lat="48.22733" lon="-3.36018">
        <ele>172.6</ele>
        <time>2021-08-10T10:23:15Z</time>
      </trkpt>
      <trkpt lat="48.22734" lon="-3.36018">
        <ele>172.6</ele>
        <time>2021-08-10T10:23:16Z</time>
      </trkpt>
      <trkpt lat="48.22734" lon="-3.36018">
        <ele>172.6</ele>
        <time>2021-08-10T10:23:17Z</time>
      </trkpt>
      <trkpt lat="48.22735" lon="-3.36018">
        <ele>172.8</ele>
        <time>2021-08-10T10:23:30Z</time>
      </trkpt>
      <trkpt lat="48.22735" lon="-3.36018">
        <ele>172.8</ele>
        <time>2021-08-10T10:23:31Z</time>
      </trkpt>
      <trkpt lat="48.22735" lon="-3.36018">
        <ele>172.8</ele>
        <time>2021-08-10T10:23:32Z</time>
      </trkpt>
      <trkpt lat="48.22746" lon="-3.36002">
        <ele>174.4</ele>
        <time>2021-08-10T11:15:48Z</time>
      </trkpt>
      <trkpt lat="48.22747" lon="-3.36001">
        <ele>174.4</ele>
        <time>2021-08-10T11:15:49Z</time>
      </trkpt>
      <trkpt lat="48.22749" lon="-3.36">
        <ele>174.2</ele>
        <time>2021-08-10T11:15:50Z</time>
      </trkpt>
      <trkpt lat="48.22751" lon="-3.35999">
        <ele>174.2</ele>
        <time>2021-08-10T11:15:51Z</time>
      </trkpt>
      <trkpt lat="48.22754" lon="-3.35997">
        <ele>174.2</ele>
        <time>2021-08-10T11:15:52Z</time>
      </trkpt>
      <trkpt lat="48.22756" lon="-3.35996">
        <ele>174</ele>
        <time>2021-08-10T11:15:53Z</time>
      </trkpt>
      <trkpt lat="48.22758" lon="-3.35995">
        <ele>174</ele>
        <time>2021-08-10T11:15:54Z</time>
      </trkpt>
      <trkpt lat="48.22761" lon="-3.35993">
        <ele>173.8</ele>
        <time>2021-08-10T11:15:55Z</time>
      </trkpt>
      <trkpt lat="48.22764" lon="-3.35991">
        <ele>173.8</ele>
        <time>2021-08-10T11:15:56Z</time>
      </trkpt>
      <trkpt lat="48.22766" lon="-3.35989">
        <ele>173.6</ele>
        <time>2021-08-10T11:15:57Z</time>
      </trkpt>
      <trkpt lat="48.22769" lon="-3.35988">
        <ele>173.6</ele>
        <time>2021-08-10T11:15:58Z</time>
      </trkpt>
      <trkpt lat="48.22772" lon="-3.35986">
        <ele>173.6</ele>
        <time>2021-08-10T11:15:59Z</time>
      </trkpt>
      <trkpt lat="48.22775" lon="-3.35984">
        <ele>173.6</ele>
        <time>2021-08-10T11:16:00Z</time>
      </trkpt>
      <trkpt lat="48.22778" lon="-3.35982">
        <ele>173.6</ele>
        <time>2021-08-10T11:16:01Z</time>
      </trkpt>
      <trkpt lat="48.22782" lon="-3.3598">
        <ele>173.6</ele>
        <time>2021-08-10T11:16:02Z</time>
      </trkpt>
      <trkpt lat="48.22785" lon="-3.35978">
        <ele>173.6</ele>
        <time>2021-08-10T11:16:03Z</time>
      </trkpt>
      <trkpt lat="48.22788" lon="-3.35976">
        <ele>173.6</ele>
        <time>2021-08-10T11:16:04Z</time>
      </trkpt>
      <trkpt lat="48.22792" lon="-3.35975">
        <ele>173.6</ele>
        <time>2021-08-10T11:16:05Z</time>
      </trkpt>
      <trkpt lat="48.22795" lon="-3.35974">
        <ele>173.6</ele>
        <time>2021-08-10T11:16:06Z</time>
      </trkpt>
      <trkpt lat="48.22799" lon="-3.35974">
        <ele>173.6</ele>
        <time>2021-08-10T11:16:07Z</time>
      </trkpt>
      <trkpt lat="48.22803" lon="-3.35974">
        <ele>173.6</ele>
        <time>2021-08-10T11:16:08Z</time>
      </trkpt>
      <trkpt lat="48.22808" lon="-3.35974">
        <ele>173.6</ele>
        <time>2021-08-10T11:16:09Z</time>
      </trkpt>
      <trkpt lat="48.22812" lon="-3.35975">
        <ele>173.6</ele>
        <time>2021-08-10T11:16:10Z</time>
      </trkpt>
      <trkpt lat="48.22817" lon="-3.35976">
        <ele>173.6</ele>
        <time>2021-08-10T11:16:11Z</time>
      </trkpt>
      <trkpt lat="48.22822" lon="-3.35978">
        <ele>173.6</ele>
        <time>2021-08-10T11:16:12Z</time>
      </trkpt>
      <trkpt lat="48.22827" lon="-3.3598">
        <ele>173.6</ele>
        <time>2021-08-10T11:16:13Z</time>
      </trkpt>
      <trkpt lat="48.22832" lon="-3.35983">
        <ele>173.6</ele>
        <time>2021-08-10T11:16:14Z</time>
      </trkpt>
      <trkpt lat="48.22836" lon="-3.35987">
        <ele>173.6</ele>
        <time>2021-08-10T11:16:15Z</time>
      </trkpt>
      <trkpt lat="48.22841" lon="-3.35991">
        <ele>173.6</ele>
        <time>2021-08-10T11:16:16Z</time>
      </trkpt>
      <trkpt lat="48.22845" lon="-3.35997">
        <ele>173.4</ele>
        <time>2021-08-10T11:16:17Z</time>
      </trkpt>
      <trkpt lat="48.22849" lon="-3.36003">
        <ele>173.4</ele>
        <time>2021-08-10T11:16:18Z</time>
      </trkpt>
      <trkpt lat="48.22852" lon="-3.36008">
        <ele>173.4</ele>
        <time>2021-08-10T11:16:19Z</time>
      </trkpt>
      <trkpt lat="48.22856" lon="-3.36013">
        <ele>173.4</ele>
        <time>2021-08-10T11:16:20Z</time>
      </trkpt>
      <trkpt lat="48.22859" lon="-3.36018">
        <ele>173.2</ele>
        <time>2021-08-10T11:16:21Z</time>
      </trkpt>
      <trkpt lat="48.22863" lon="-3.36024">
        <ele>173.2</ele>
        <time>2021-08-10T11:16:22Z</time>
      </trkpt>
      <trkpt lat="48.22866" lon="-3.36029">
        <ele>173</ele>
        <time>2021-08-10T11:16:23Z</time>
      </trkpt>
      <trkpt lat="48.2287" lon="-3.36034">
        <ele>172.8</ele>
        <time>2021-08-10T11:16:24Z</time>
      </trkpt>
      <trkpt lat="48.22873" lon="-3.36039">
        <ele>172.8</ele>
        <time>2021-08-10T11:16:25Z</time>
      </trkpt>
      <trkpt lat="48.22876" lon="-3.36044">
        <ele>172.8</ele>
        <time>2021-08-10T11:16:26Z</time>
      </trkpt>
      <trkpt lat="48.2288" lon="-3.36049">
        <ele>172.6</ele>
        <time>2021-08-10T11:16:27Z</time>
      </trkpt>
      <trkpt lat="48.22883" lon="-3.36054">
        <ele>172.6</ele>
        <time>2021-08-10T11:16:28Z</time>
      </trkpt>
      <trkpt lat="48.22887" lon="-3.36059">
        <ele>172.6</ele>
        <time>2021-08-10T11:16:29Z</time>
      </trkpt>
      <trkpt lat="48.22891" lon="-3.36064">
        <ele>172.6</ele>
        <time>2021-08-10T11:16:30Z</time>
      </trkpt>
      <trkpt lat="48.22894" lon="-3.36069">
        <ele>172.6</ele>
        <time>2021-08-10T11:16:31Z</time>
      </trkpt>
      <trkpt lat="48.22898" lon="-3.36074">
        <ele>172.6</ele>
        <time>2021-08-10T11:16:32Z</time>
      </trkpt>
      <trkpt lat="48.22901" lon="-3.36078">
        <ele>172.6</ele>
        <time>2021-08-10T11:16:33Z</time>
      </trkpt>
      <trkpt lat="48.22904" lon="-3.36083">
        <ele>172.6</ele>
        <time>2021-08-10T11:16:34Z</time>
      </trkpt>
      <trkpt lat="48.22907" lon="-3.36087">
        <ele>172.6</ele>
        <time>2021-08-10T11:16:35Z</time>
      </trkpt>
      <trkpt lat="48.2291" lon="-3.36092">
        <ele>172.6</ele>
        <time>2021-08-10T11:16:36Z</time>
      </trkpt>
      <trkpt lat="48.22913" lon="-3.36096">
        <ele>172.6</ele>
        <time>2021-08-10T11:16:37Z</time>
      </trkpt>
      <trkpt lat="48.22916" lon="-3.361">
        <ele>172.8</ele>
        <time>2021-08-10T11:16:38Z</time>
      </trkpt>
      <trkpt lat="48.22919" lon="-3.36104">
        <ele>172.8</ele>
        <time>2021-08-10T11:16:39Z</time>
      </trkpt>
      <trkpt lat="48.22921" lon="-3.36108">
        <ele>172.8</ele>
        <time>2021-08-10T11:16:40Z</time>
      </trkpt>
      <trkpt lat="48.22924" lon="-3.36112">
        <ele>173</ele>
        <time>2021-08-10T11:16:41Z</time>
      </trkpt>
      <trkpt lat="48.22926" lon="-3.36115">
        <ele>172.8</ele>
        <time>2021-08-10T11:16:42Z</time>
      </trkpt>
      <trkpt lat="48.22928" lon="-3.36118">
        <ele>172.8</ele>
        <time>2021-08-10T11:16:43Z</time>
      </trkpt>
      <trkpt lat="48.2293" lon="-3.36121">
        <ele>173</ele>
        <time>2021-08-10T11:16:44Z</time>
      </trkpt>
      <trkpt lat="48.22932" lon="-3.36123">
        <ele>173</ele>
        <time>2021-08-10T11:16:45Z</time>
      </trkpt>
      <trkpt lat="48.22934" lon="-3.36126">
        <ele>173</ele>
        <time>2021-08-10T11:16:46Z</time>
      </trkpt>
      <trkpt lat="48.22935" lon="-3.36129">
        <ele>173</ele>
        <time>2021-08-10T11:16:47Z</time>
      </trkpt>
      <trkpt lat="48.22937" lon="-3.36132">
        <ele>173</ele>
        <time>2021-08-10T11:16:48Z</time>
      </trkpt>
      <trkpt lat="48.2294" lon="-3.36134">
        <ele>173</ele>
        <time>2021-08-10T11:16:49Z</time>
      </trkpt>
      <trkpt lat="48.22942" lon="-3.36136">
        <ele>173.2</ele>
        <time>2021-08-10T11:16:50Z</time>
      </trkpt>
      <trkpt lat="48.22945" lon="-3.36139">
        <ele>173.2</ele>
        <time>2021-08-10T11:16:51Z</time>
      </trkpt>
      <trkpt lat="48.22947" lon="-3.36142">
        <ele>173.2</ele>
        <time>2021-08-10T11:16:52Z</time>
      </trkpt>
      <trkpt lat="48.2295" lon="-3.36145">
        <ele>173.2</ele>
        <time>2021-08-10T11:16:53Z</time>
      </trkpt>
      <trkpt lat="48.22953" lon="-3.36149">
        <ele>173.2</ele>
        <time>2021-08-10T11:16:54Z</time>
      </trkpt>
      <trkpt lat="48.22955" lon="-3.36153">
        <ele>173.2</ele>
        <time>2021-08-10T11:16:55Z</time>
      </trkpt>
      <trkpt lat="48.22958" lon="-3.36157">
        <ele>173.2</ele>
        <time>2021-08-10T11:16:56Z</time>
      </trkpt>
      <trkpt lat="48.22961" lon="-3.36161">
        <ele>173.2</ele>
        <time>2021-08-10T11:16:57Z</time>
      </trkpt>
      <trkpt lat="48.22964" lon="-3.36165">
        <ele>173.2</ele>
        <time>2021-08-10T11:16:58Z</time>
      </trkpt>
      <trkpt lat="48.22967" lon="-3.36169">
        <ele>173.2</ele>
        <time>2021-08-10T11:16:59Z</time>
      </trkpt>
      <trkpt lat="48.2297" lon="-3.36173">
        <ele>173.2</ele>
        <time>2021-08-10T11:17:00Z</time>
      </trkpt>
      <trkpt lat="48.22973" lon="-3.36177">
        <ele>173.2</ele>
        <time>2021-08-10T11:17:01Z</time>
      </trkpt>
      <trkpt lat="48.22976" lon="-3.36181">
        <ele>173.2</ele>
        <time>2021-08-10T11:17:02Z</time>
      </trkpt>
      <trkpt lat="48.22979" lon="-3.36186">
        <ele>173.2</ele>
        <time>2021-08-10T11:17:03Z</time>
      </trkpt>
      <trkpt lat="48.22982" lon="-3.3619">
        <ele>173.2</ele>
        <time>2021-08-10T11:17:04Z</time>
      </trkpt>
      <trkpt lat="48.22985" lon="-3.36194">
        <ele>173.2</ele>
        <time>2021-08-10T11:17:05Z</time>
      </trkpt>
      <trkpt lat="48.22988" lon="-3.36198">
        <ele>173.2</ele>
        <time>2021-08-10T11:17:06Z</time>
      </trkpt>
      <trkpt lat="48.2299" lon="-3.36202">
        <ele>173.2</ele>
        <time>2021-08-10T11:17:07Z</time>
      </trkpt>
      <trkpt lat="48.22993" lon="-3.36206">
        <ele>173.2</ele>
        <time>2021-08-10T11:17:08Z</time>
      </trkpt>
      <trkpt lat="48.22995" lon="-3.3621">
        <ele>173.2</ele>
        <time>2021-08-10T11:17:09Z</time>
      </trkpt>
      <trkpt lat="48.22998" lon="-3.36213">
        <ele>173.2</ele>
        <time>2021-08-10T11:17:10Z</time>
      </trkpt>
      <trkpt lat="48.23" lon="-3.36216">
        <ele>173.2</ele>
        <time>2021-08-10T11:17:11Z</time>
      </trkpt>
      <trkpt lat="48.23003" lon="-3.36218">
        <ele>173.2</ele>
        <time>2021-08-10T11:17:12Z</time>
      </trkpt>
      <trkpt lat="48.23006" lon="-3.3622">
        <ele>173.2</ele>
        <time>2021-08-10T11:17:13Z</time>
      </trkpt>
      <trkpt lat="48.23008" lon="-3.36223">
        <ele>173.4</ele>
        <time>2021-08-10T11:17:14Z</time>
      </trkpt>
      <trkpt lat="48.2301" lon="-3.36225">
        <ele>173.6</ele>
        <time>2021-08-10T11:17:15Z</time>
      </trkpt>
      <trkpt lat="48.23012" lon="-3.36228">
        <ele>173.8</ele>
        <time>2021-08-10T11:17:16Z</time>
      </trkpt>
      <trkpt lat="48.23014" lon="-3.36231">
        <ele>174</ele>
        <time>2021-08-10T11:17:17Z</time>
      </trkpt>
      <trkpt lat="48.23016" lon="-3.36235">
        <ele>174.2</ele>
        <time>2021-08-10T11:17:18Z</time>
      </trkpt>
      <trkpt lat="48.23018" lon="-3.36238">
        <ele>174.6</ele>
        <time>2021-08-10T11:17:19Z</time>
      </trkpt>
      <trkpt lat="48.2302" lon="-3.36242">
        <ele>174.8</ele>
        <time>2021-08-10T11:17:20Z</time>
      </trkpt>
      <trkpt lat="48.23023" lon="-3.36246">
        <ele>174.8</ele>
        <time>2021-08-10T11:17:21Z</time>
      </trkpt>
      <trkpt lat="48.23025" lon="-3.36249">
        <ele>175.2</ele>
        <time>2021-08-10T11:17:22Z</time>
      </trkpt>
      <trkpt lat="48.23028" lon="-3.36254">
        <ele>175.2</ele>
        <time>2021-08-10T11:17:23Z</time>
      </trkpt>
      <trkpt lat="48.23031" lon="-3.36258">
        <ele>175.4</ele>
        <time>2021-08-10T11:17:24Z</time>
      </trkpt>
      <trkpt lat="48.23034" lon="-3.36262">
        <ele>175.4</ele>
        <time>2021-08-10T11:17:25Z</time>
      </trkpt>
      <trkpt lat="48.23036" lon="-3.36266">
        <ele>175.6</ele>
        <time>2021-08-10T11:17:26Z</time>
      </trkpt>
      <trkpt lat="48.23039" lon="-3.3627">
        <ele>175.6</ele>
        <time>2021-08-10T11:17:27Z</time>
      </trkpt>
      <trkpt lat="48.23042" lon="-3.36275">
        <ele>175.6</ele>
        <time>2021-08-10T11:17:28Z</time>
      </trkpt>
      <trkpt lat="48.23045" lon="-3.36279">
        <ele>175.6</ele>
        <time>2021-08-10T11:17:29Z</time>
      </trkpt>
      <trkpt lat="48.23048" lon="-3.36283">
        <ele>175.6</ele>
        <time>2021-08-10T11:17:30Z</time>
      </trkpt>
      <trkpt lat="48.23052" lon="-3.36288">
        <ele>175.8</ele>
        <time>2021-08-10T11:17:31Z</time>
      </trkpt>
      <trkpt lat="48.23055" lon="-3.36292">
        <ele>175.8</ele>
        <time>2021-08-10T11:17:32Z</time>
      </trkpt>
      <trkpt lat="48.23058" lon="-3.36297">
        <ele>175.8</ele>
        <time>2021-08-10T11:17:33Z</time>
      </trkpt>
      <trkpt lat="48.23061" lon="-3.36302">
        <ele>175.8</ele>
        <time>2021-08-10T11:17:34Z</time>
      </trkpt>
      <trkpt lat="48.23065" lon="-3.36307">
        <ele>175.6</ele>
        <time>2021-08-10T11:17:35Z</time>
      </trkpt>
      <trkpt lat="48.23068" lon="-3.36312">
        <ele>175.6</ele>
        <time>2021-08-10T11:17:36Z</time>
      </trkpt>
      <trkpt lat="48.23071" lon="-3.36317">
        <ele>175.6</ele>
        <time>2021-08-10T11:17:37Z</time>
      </trkpt>
      <trkpt lat="48.23074" lon="-3.36322">
        <ele>175.8</ele>
        <time>2021-08-10T11:17:38Z</time>
      </trkpt>
      <trkpt lat="48.23078" lon="-3.36327">
        <ele>175.4</ele>
        <time>2021-08-10T11:17:39Z</time>
      </trkpt>
      <trkpt lat="48.23081" lon="-3.36332">
        <ele>175.4</ele>
        <time>2021-08-10T11:17:40Z</time>
      </trkpt>
      <trkpt lat="48.23085" lon="-3.36337">
        <ele>175.4</ele>
        <time>2021-08-10T11:17:41Z</time>
      </trkpt>
      <trkpt lat="48.23088" lon="-3.36342">
        <ele>175.4</ele>
        <time>2021-08-10T11:17:42Z</time>
      </trkpt>
      <trkpt lat="48.23091" lon="-3.36347">
        <ele>175.4</ele>
        <time>2021-08-10T11:17:43Z</time>
      </trkpt>
      <trkpt lat="48.23095" lon="-3.36352">
        <ele>175.2</ele>
        <time>2021-08-10T11:17:44Z</time>
      </trkpt>
      <trkpt lat="48.23099" lon="-3.36356">
        <ele>175.2</ele>
        <time>2021-08-10T11:17:45Z</time>
      </trkpt>
      <trkpt lat="48.23102" lon="-3.3636">
        <ele>175.2</ele>
        <time>2021-08-10T11:17:46Z</time>
      </trkpt>
      <trkpt lat="48.23106" lon="-3.36364">
        <ele>175.2</ele>
        <time>2021-08-10T11:17:47Z</time>
      </trkpt>
      <trkpt lat="48.23109" lon="-3.36368">
        <ele>175.2</ele>
        <time>2021-08-10T11:17:48Z</time>
      </trkpt>
      <trkpt lat="48.23113" lon="-3.36373">
        <ele>175.2</ele>
        <time>2021-08-10T11:17:49Z</time>
      </trkpt>
      <trkpt lat="48.23116" lon="-3.36378">
        <ele>175.2</ele>
        <time>2021-08-10T11:17:50Z</time>
      </trkpt>
      <trkpt lat="48.23119" lon="-3.36382">
        <ele>175</ele>
        <time>2021-08-10T11:17:51Z</time>
      </trkpt>
      <trkpt lat="48.23122" lon="-3.36387">
        <ele>175</ele>
        <time>2021-08-10T11:17:52Z</time>
      </trkpt>
      <trkpt lat="48.23124" lon="-3.36391">
        <ele>175</ele>
        <time>2021-08-10T11:17:53Z</time>
      </trkpt>
      <trkpt lat="48.23127" lon="-3.36396">
        <ele>175</ele>
        <time>2021-08-10T11:17:54Z</time>
      </trkpt>
      <trkpt lat="48.2313" lon="-3.36401">
        <ele>175</ele>
        <time>2021-08-10T11:17:55Z</time>
      </trkpt>
      <trkpt lat="48.23132" lon="-3.36405">
        <ele>175</ele>
        <time>2021-08-10T11:17:56Z</time>
      </trkpt>
      <trkpt lat="48.23134" lon="-3.3641">
        <ele>175</ele>
        <time>2021-08-10T11:17:57Z</time>
      </trkpt>
      <trkpt lat="48.23136" lon="-3.36415">
        <ele>175</ele>
        <time>2021-08-10T11:17:58Z</time>
      </trkpt>
      <trkpt lat="48.23137" lon="-3.3642">
        <ele>175.2</ele>
        <time>2021-08-10T11:17:59Z</time>
      </trkpt>
      <trkpt lat="48.23139" lon="-3.36426">
        <ele>175.2</ele>
        <time>2021-08-10T11:18:00Z</time>
      </trkpt>
      <trkpt lat="48.2314" lon="-3.36433">
        <ele>175.2</ele>
        <time>2021-08-10T11:18:01Z</time>
      </trkpt>
      <trkpt lat="48.23141" lon="-3.36439">
        <ele>175.2</ele>
        <time>2021-08-10T11:18:02Z</time>
      </trkpt>
      <trkpt lat="48.23142" lon="-3.36445">
        <ele>175.2</ele>
        <time>2021-08-10T11:18:03Z</time>
      </trkpt>
      <trkpt lat="48.23143" lon="-3.36451">
        <ele>175</ele>
        <time>2021-08-10T11:18:04Z</time>
      </trkpt>
      <trkpt lat="48.23143" lon="-3.36457">
        <ele>175.2</ele>
        <time>2021-08-10T11:18:05Z</time>
      </trkpt>
      <trkpt lat="48.23143" lon="-3.36464">
        <ele>175.2</ele>
        <time>2021-08-10T11:18:06Z</time>
      </trkpt>
      <trkpt lat="48.23144" lon="-3.3647">
        <ele>175.2</ele>
        <time>2021-08-10T11:18:07Z</time>
      </trkpt>
      <trkpt lat="48.23144" lon="-3.36476">
        <ele>175.2</ele>
        <time>2021-08-10T11:18:08Z</time>
      </trkpt>
      <trkpt lat="48.23144" lon="-3.36483">
        <ele>175.2</ele>
        <time>2021-08-10T11:18:09Z</time>
      </trkpt>
      <trkpt lat="48.23144" lon="-3.36489">
        <ele>175.2</ele>
        <time>2021-08-10T11:18:10Z</time>
      </trkpt>
      <trkpt lat="48.23145" lon="-3.36495">
        <ele>175.4</ele>
        <time>2021-08-10T11:18:11Z</time>
      </trkpt>
      <trkpt lat="48.23146" lon="-3.36501">
        <ele>175.4</ele>
        <time>2021-08-10T11:18:12Z</time>
      </trkpt>
      <trkpt lat="48.23146" lon="-3.36507">
        <ele>175.4</ele>
        <time>2021-08-10T11:18:13Z</time>
      </trkpt>
      <trkpt lat="48.23147" lon="-3.36513">
        <ele>175.6</ele>
        <time>2021-08-10T11:18:14Z</time>
      </trkpt>
      <trkpt lat="48.23148" lon="-3.36518">
        <ele>175.8</ele>
        <time>2021-08-10T11:18:15Z</time>
      </trkpt>
      <trkpt lat="48.23148" lon="-3.36524">
        <ele>176</ele>
        <time>2021-08-10T11:18:16Z</time>
      </trkpt>
      <trkpt lat="48.23149" lon="-3.36529">
        <ele>176.2</ele>
        <time>2021-08-10T11:18:17Z</time>
      </trkpt>
      <trkpt lat="48.2315" lon="-3.36535">
        <ele>176.2</ele>
        <time>2021-08-10T11:18:18Z</time>
      </trkpt>
      <trkpt lat="48.23151" lon="-3.3654">
        <ele>176.4</ele>
        <time>2021-08-10T11:18:19Z</time>
      </trkpt>
      <trkpt lat="48.23152" lon="-3.36545">
        <ele>176.6</ele>
        <time>2021-08-10T11:18:20Z</time>
      </trkpt>
      <trkpt lat="48.23152" lon="-3.36551">
        <ele>176.8</ele>
        <time>2021-08-10T11:18:21Z</time>
      </trkpt>
      <trkpt lat="48.23153" lon="-3.36556">
        <ele>176.8</ele>
        <time>2021-08-10T11:18:22Z</time>
      </trkpt>
      <trkpt lat="48.23154" lon="-3.36562">
        <ele>176.8</ele>
        <time>2021-08-10T11:18:23Z</time>
      </trkpt>
      <trkpt lat="48.23155" lon="-3.36567">
        <ele>176.8</ele>
        <time>2021-08-10T11:18:24Z</time>
      </trkpt>
      <trkpt lat="48.23156" lon="-3.36572">
        <ele>177.2</ele>
        <time>2021-08-10T11:18:25Z</time>
      </trkpt>
      <trkpt lat="48.23156" lon="-3.36578">
        <ele>177.2</ele>
        <time>2021-08-10T11:18:26Z</time>
      </trkpt>
      <trkpt lat="48.23157" lon="-3.36583">
        <ele>177.2</ele>
        <time>2021-08-10T11:18:27Z</time>
      </trkpt>
      <trkpt lat="48.23158" lon="-3.36589">
        <ele>177.2</ele>
        <time>2021-08-10T11:18:28Z</time>
      </trkpt>
      <trkpt lat="48.23158" lon="-3.36594">
        <ele>177.4</ele>
        <time>2021-08-10T11:18:29Z</time>
      </trkpt>
      <trkpt lat="48.23159" lon="-3.366">
        <ele>177.4</ele>
        <time>2021-08-10T11:18:30Z</time>
      </trkpt>
      <trkpt lat="48.23159" lon="-3.36605">
        <ele>177.4</ele>
        <time>2021-08-10T11:18:31Z</time>
      </trkpt>
      <trkpt lat="48.2316" lon="-3.36611">
        <ele>177.4</ele>
        <time>2021-08-10T11:18:32Z</time>
      </trkpt>
      <trkpt lat="48.23162" lon="-3.36616">
        <ele>177.6</ele>
        <time>2021-08-10T11:18:33Z</time>
      </trkpt>
      <trkpt lat="48.23163" lon="-3.36621">
        <ele>177.6</ele>
        <time>2021-08-10T11:18:34Z</time>
      </trkpt>
      <trkpt lat="48.23164" lon="-3.36625">
        <ele>177.8</ele>
        <time>2021-08-10T11:18:35Z</time>
      </trkpt>
      <trkpt lat="48.23165" lon="-3.36629">
        <ele>177.8</ele>
        <time>2021-08-10T11:18:36Z</time>
      </trkpt>
      <trkpt lat="48.23166" lon="-3.36633">
        <ele>177.8</ele>
        <time>2021-08-10T11:18:37Z</time>
      </trkpt>
      <trkpt lat="48.23166" lon="-3.36637">
        <ele>178</ele>
        <time>2021-08-10T11:18:38Z</time>
      </trkpt>
      <trkpt lat="48.23167" lon="-3.36641">
        <ele>178.2</ele>
        <time>2021-08-10T11:18:39Z</time>
      </trkpt>
      <trkpt lat="48.23169" lon="-3.36646">
        <ele>178.2</ele>
        <time>2021-08-10T11:18:40Z</time>
      </trkpt>
      <trkpt lat="48.2317" lon="-3.36651">
        <ele>178.4</ele>
        <time>2021-08-10T11:18:41Z</time>
      </trkpt>
      <trkpt lat="48.23171" lon="-3.36657">
        <ele>178.4</ele>
        <time>2021-08-10T11:18:42Z</time>
      </trkpt>
      <trkpt lat="48.23172" lon="-3.36663">
        <ele>178.4</ele>
        <time>2021-08-10T11:18:43Z</time>
      </trkpt>
      <trkpt lat="48.23173" lon="-3.36668">
        <ele>178.4</ele>
        <time>2021-08-10T11:18:44Z</time>
      </trkpt>
      <trkpt lat="48.23174" lon="-3.36674">
        <ele>178.4</ele>
        <time>2021-08-10T11:18:45Z</time>
      </trkpt>
      <trkpt lat="48.23174" lon="-3.3668">
        <ele>178.6</ele>
        <time>2021-08-10T11:18:46Z</time>
      </trkpt>
      <trkpt lat="48.23175" lon="-3.36685">
        <ele>178.6</ele>
        <time>2021-08-10T11:18:47Z</time>
      </trkpt>
      <trkpt lat="48.23176" lon="-3.36691">
        <ele>178.8</ele>
        <time>2021-08-10T11:18:48Z</time>
      </trkpt>
      <trkpt lat="48.23176" lon="-3.36696">
        <ele>179</ele>
        <time>2021-08-10T11:18:49Z</time>
      </trkpt>
      <trkpt lat="48.23177" lon="-3.36702">
        <ele>179</ele>
        <time>2021-08-10T11:18:50Z</time>
      </trkpt>
      <trkpt lat="48.23177" lon="-3.36708">
        <ele>179.2</ele>
        <time>2021-08-10T11:18:51Z</time>
      </trkpt>
      <trkpt lat="48.23178" lon="-3.36714">
        <ele>179.2</ele>
        <time>2021-08-10T11:18:52Z</time>
      </trkpt>
      <trkpt lat="48.23179" lon="-3.3672">
        <ele>179.2</ele>
        <time>2021-08-10T11:18:53Z</time>
      </trkpt>
      <trkpt lat="48.23181" lon="-3.36726">
        <ele>179.2</ele>
        <time>2021-08-10T11:18:54Z</time>
      </trkpt>
      <trkpt lat="48.23182" lon="-3.36732">
        <ele>179.2</ele>
        <time>2021-08-10T11:18:55Z</time>
      </trkpt>
      <trkpt lat="48.23183" lon="-3.36738">
        <ele>179.2</ele>
        <time>2021-08-10T11:18:56Z</time>
      </trkpt>
      <trkpt lat="48.23184" lon="-3.36745">
        <ele>179.2</ele>
        <time>2021-08-10T11:18:57Z</time>
      </trkpt>
      <trkpt lat="48.23185" lon="-3.36751">
        <ele>179.2</ele>
        <time>2021-08-10T11:18:58Z</time>
      </trkpt>
      <trkpt lat="48.23186" lon="-3.36757">
        <ele>179.2</ele>
        <time>2021-08-10T11:18:59Z</time>
      </trkpt>
      <trkpt lat="48.23187" lon="-3.36764">
        <ele>179.2</ele>
        <time>2021-08-10T11:19:00Z</time>
      </trkpt>
      <trkpt lat="48.23188" lon="-3.3677">
        <ele>179.2</ele>
        <time>2021-08-10T11:19:01Z</time>
      </trkpt>
      <trkpt lat="48.23189" lon="-3.36777">
        <ele>179.2</ele>
        <time>2021-08-10T11:19:02Z</time>
      </trkpt>
      <trkpt lat="48.2319" lon="-3.36783">
        <ele>179.2</ele>
        <time>2021-08-10T11:19:03Z</time>
      </trkpt>
      <trkpt lat="48.2319" lon="-3.3679">
        <ele>179.2</ele>
        <time>2021-08-10T11:19:04Z</time>
      </trkpt>
      <trkpt lat="48.2319" lon="-3.36797">
        <ele>179.2</ele>
        <time>2021-08-10T11:19:05Z</time>
      </trkpt>
      <trkpt lat="48.23189" lon="-3.36803">
        <ele>179.2</ele>
        <time>2021-08-10T11:19:06Z</time>
      </trkpt>
      <trkpt lat="48.23187" lon="-3.3681">
        <ele>179.2</ele>
        <time>2021-08-10T11:19:07Z</time>
      </trkpt>
      <trkpt lat="48.23185" lon="-3.36815">
        <ele>179.2</ele>
        <time>2021-08-10T11:19:08Z</time>
      </trkpt>
      <trkpt lat="48.23183" lon="-3.36821">
        <ele>179.2</ele>
        <time>2021-08-10T11:19:09Z</time>
      </trkpt>
      <trkpt lat="48.2318" lon="-3.36826">
        <ele>179.2</ele>
        <time>2021-08-10T11:19:10Z</time>
      </trkpt>
      <trkpt lat="48.23177" lon="-3.36831">
        <ele>179.2</ele>
        <time>2021-08-10T11:19:11Z</time>
      </trkpt>
      <trkpt lat="48.23173" lon="-3.36836">
        <ele>179.2</ele>
        <time>2021-08-10T11:19:12Z</time>
      </trkpt>
      <trkpt lat="48.2317" lon="-3.3684">
        <ele>179.2</ele>
        <time>2021-08-10T11:19:13Z</time>
      </trkpt>
      <trkpt lat="48.23166" lon="-3.36845">
        <ele>179.2</ele>
        <time>2021-08-10T11:19:14Z</time>
      </trkpt>
      <trkpt lat="48.23163" lon="-3.3685">
        <ele>179.2</ele>
        <time>2021-08-10T11:19:15Z</time>
      </trkpt>
      <trkpt lat="48.23159" lon="-3.36855">
        <ele>179.2</ele>
        <time>2021-08-10T11:19:16Z</time>
      </trkpt>
      <trkpt lat="48.23156" lon="-3.3686">
        <ele>179.2</ele>
        <time>2021-08-10T11:19:17Z</time>
      </trkpt>
      <trkpt lat="48.23152" lon="-3.36866">
        <ele>179.2</ele>
        <time>2021-08-10T11:19:18Z</time>
      </trkpt>
      <trkpt lat="48.23149" lon="-3.36871">
        <ele>179.2</ele>
        <time>2021-08-10T11:19:19Z</time>
      </trkpt>
      <trkpt lat="48.23146" lon="-3.36876">
        <ele>179.2</ele>
        <time>2021-08-10T11:19:20Z</time>
      </trkpt>
      <trkpt lat="48.23142" lon="-3.36881">
        <ele>179.2</ele>
        <time>2021-08-10T11:19:21Z</time>
      </trkpt>
      <trkpt lat="48.23138" lon="-3.36886">
        <ele>179.2</ele>
        <time>2021-08-10T11:19:22Z</time>
      </trkpt>
      <trkpt lat="48.23135" lon="-3.36891">
        <ele>179.2</ele>
        <time>2021-08-10T11:19:23Z</time>
      </trkpt>
      <trkpt lat="48.23132" lon="-3.36896">
        <ele>179.2</ele>
        <time>2021-08-10T11:19:24Z</time>
      </trkpt>
      <trkpt lat="48.23128" lon="-3.36901">
        <ele>179.2</ele>
        <time>2021-08-10T11:19:25Z</time>
      </trkpt>
      <trkpt lat="48.23125" lon="-3.36905">
        <ele>179.2</ele>
        <time>2021-08-10T11:19:26Z</time>
      </trkpt>
      <trkpt lat="48.23123" lon="-3.3691">
        <ele>179.2</ele>
        <time>2021-08-10T11:19:27Z</time>
      </trkpt>
      <trkpt lat="48.2312" lon="-3.36915">
        <ele>179.2</ele>
        <time>2021-08-10T11:19:28Z</time>
      </trkpt>
      <trkpt lat="48.23118" lon="-3.3692">
        <ele>179.2</ele>
        <time>2021-08-10T11:19:29Z</time>
      </trkpt>
      <trkpt lat="48.23116" lon="-3.36925">
        <ele>179.2</ele>
        <time>2021-08-10T11:19:30Z</time>
      </trkpt>
      <trkpt lat="48.23115" lon="-3.3693">
        <ele>179.2</ele>
        <time>2021-08-10T11:19:31Z</time>
      </trkpt>
      <trkpt lat="48.23114" lon="-3.36934">
        <ele>179.2</ele>
        <time>2021-08-10T11:19:32Z</time>
      </trkpt>
      <trkpt lat="48.23112" lon="-3.36938">
        <ele>179.2</ele>
        <time>2021-08-10T11:19:33Z</time>
      </trkpt>
      <trkpt lat="48.23111" lon="-3.36942">
        <ele>179.4</ele>
        <time>2021-08-10T11:19:34Z</time>
      </trkpt>
      <trkpt lat="48.23111" lon="-3.36946">
        <ele>179.4</ele>
        <time>2021-08-10T11:19:35Z</time>
      </trkpt>
      <trkpt lat="48.2311" lon="-3.3695">
        <ele>179.6</ele>
        <time>2021-08-10T11:19:36Z</time>
      </trkpt>
      <trkpt lat="48.23109" lon="-3.36954">
        <ele>179.8</ele>
        <time>2021-08-10T11:19:37Z</time>
      </trkpt>
      <trkpt lat="48.23108" lon="-3.36958">
        <ele>180.2</ele>
        <time>2021-08-10T11:19:38Z</time>
      </trkpt>
      <trkpt lat="48.23107" lon="-3.36962">
        <ele>180.4</ele>
        <time>2021-08-10T11:19:39Z</time>
      </trkpt>
      <trkpt lat="48.23105" lon="-3.36966">
        <ele>180.6</ele>
        <time>2021-08-10T11:19:40Z</time>
      </trkpt>
      <trkpt lat="48.23104" lon="-3.3697">
        <ele>180.8</ele>
        <time>2021-08-10T11:19:41Z</time>
      </trkpt>
      <trkpt lat="48.23103" lon="-3.36974">
        <ele>181</ele>
        <time>2021-08-10T11:19:42Z</time>
      </trkpt>
      <trkpt lat="48.23102" lon="-3.36979">
        <ele>181.4</ele>
        <time>2021-08-10T11:19:43Z</time>
      </trkpt>
      <trkpt lat="48.23101" lon="-3.36983">
        <ele>181.6</ele>
        <time>2021-08-10T11:19:44Z</time>
      </trkpt>
      <trkpt lat="48.23099" lon="-3.36988">
        <ele>181.8</ele>
        <time>2021-08-10T11:19:45Z</time>
      </trkpt>
      <trkpt lat="48.23098" lon="-3.36993">
        <ele>182</ele>
        <time>2021-08-10T11:19:46Z</time>
      </trkpt>
      <trkpt lat="48.23097" lon="-3.36998">
        <ele>182</ele>
        <time>2021-08-10T11:19:47Z</time>
      </trkpt>
      <trkpt lat="48.23097" lon="-3.37004">
        <ele>182.2</ele>
        <time>2021-08-10T11:19:48Z</time>
      </trkpt>
      <trkpt lat="48.23097" lon="-3.37009">
        <ele>182.2</ele>
        <time>2021-08-10T11:19:49Z</time>
      </trkpt>
      <trkpt lat="48.23098" lon="-3.37014">
        <ele>182.2</ele>
        <time>2021-08-10T11:19:50Z</time>
      </trkpt>
      <trkpt lat="48.23099" lon="-3.37019">
        <ele>182.2</ele>
        <time>2021-08-10T11:19:51Z</time>
      </trkpt>
      <trkpt lat="48.231" lon="-3.37024">
        <ele>182.2</ele>
        <time>2021-08-10T11:19:52Z</time>
      </trkpt>
      <trkpt lat="48.23102" lon="-3.37028">
        <ele>182.4</ele>
        <time>2021-08-10T11:19:53Z</time>
      </trkpt>
      <trkpt lat="48.23103" lon="-3.37033">
        <ele>182.4</ele>
        <time>2021-08-10T11:19:54Z</time>
      </trkpt>
      <trkpt lat="48.23105" lon="-3.37036">
        <ele>182.4</ele>
        <time>2021-08-10T11:19:55Z</time>
      </trkpt>
      <trkpt lat="48.23107" lon="-3.3704">
        <ele>182.4</ele>
        <time>2021-08-10T11:19:56Z</time>
      </trkpt>
      <trkpt lat="48.23109" lon="-3.37043">
        <ele>182.4</ele>
        <time>2021-08-10T11:19:57Z</time>
      </trkpt>
      <trkpt lat="48.23111" lon="-3.37047">
        <ele>182.4</ele>
        <time>2021-08-10T11:19:58Z</time>
      </trkpt>
      <trkpt lat="48.23113" lon="-3.37051">
        <ele>182.4</ele>
        <time>2021-08-10T11:19:59Z</time>
      </trkpt>
      <trkpt lat="48.23115" lon="-3.37056">
        <ele>182.4</ele>
        <time>2021-08-10T11:20:00Z</time>
      </trkpt>
      <trkpt lat="48.23117" lon="-3.37061">
        <ele>182.4</ele>
        <time>2021-08-10T11:20:01Z</time>
      </trkpt>
      <trkpt lat="48.23119" lon="-3.37067">
        <ele>182.4</ele>
        <time>2021-08-10T11:20:02Z</time>
      </trkpt>
      <trkpt lat="48.23121" lon="-3.37073">
        <ele>182.4</ele>
        <time>2021-08-10T11:20:03Z</time>
      </trkpt>
      <trkpt lat="48.23123" lon="-3.37078">
        <ele>182.4</ele>
        <time>2021-08-10T11:20:04Z</time>
      </trkpt>
      <trkpt lat="48.23124" lon="-3.37084">
        <ele>182.4</ele>
        <time>2021-08-10T11:20:05Z</time>
      </trkpt>
      <trkpt lat="48.23125" lon="-3.37089">
        <ele>182.4</ele>
        <time>2021-08-10T11:20:06Z</time>
      </trkpt>
      <trkpt lat="48.23127" lon="-3.37095">
        <ele>182.4</ele>
        <time>2021-08-10T11:20:07Z</time>
      </trkpt>
      <trkpt lat="48.23128" lon="-3.37101">
        <ele>182.4</ele>
        <time>2021-08-10T11:20:08Z</time>
      </trkpt>
      <trkpt lat="48.23129" lon="-3.37106">
        <ele>182.4</ele>
        <time>2021-08-10T11:20:09Z</time>
      </trkpt>
      <trkpt lat="48.23131" lon="-3.37112">
        <ele>182.4</ele>
        <time>2021-08-10T11:20:10Z</time>
      </trkpt>
      <trkpt lat="48.23132" lon="-3.37117">
        <ele>182.2</ele>
        <time>2021-08-10T11:20:11Z</time>
      </trkpt>
      <trkpt lat="48.23133" lon="-3.37123">
        <ele>182.2</ele>
        <time>2021-08-10T11:20:12Z</time>
      </trkpt>
      <trkpt lat="48.23135" lon="-3.37128">
        <ele>182.2</ele>
        <time>2021-08-10T11:20:13Z</time>
      </trkpt>
      <trkpt lat="48.23136" lon="-3.37134">
        <ele>182.2</ele>
        <time>2021-08-10T11:20:14Z</time>
      </trkpt>
      <trkpt lat="48.23137" lon="-3.37139">
        <ele>182.2</ele>
        <time>2021-08-10T11:20:15Z</time>
      </trkpt>
      <trkpt lat="48.23139" lon="-3.37145">
        <ele>182.2</ele>
        <time>2021-08-10T11:20:16Z</time>
      </trkpt>
      <trkpt lat="48.23141" lon="-3.3715">
        <ele>182.2</ele>
        <time>2021-08-10T11:20:17Z</time>
      </trkpt>
      <trkpt lat="48.23143" lon="-3.37156">
        <ele>182</ele>
        <time>2021-08-10T11:20:18Z</time>
      </trkpt>
      <trkpt lat="48.23145" lon="-3.37161">
        <ele>182</ele>
        <time>2021-08-10T11:20:19Z</time>
      </trkpt>
      <trkpt lat="48.23148" lon="-3.37166">
        <ele>182</ele>
        <time>2021-08-10T11:20:20Z</time>
      </trkpt>
      <trkpt lat="48.23151" lon="-3.3717">
        <ele>182</ele>
        <time>2021-08-10T11:20:21Z</time>
      </trkpt>
      <trkpt lat="48.23154" lon="-3.37174">
        <ele>182</ele>
        <time>2021-08-10T11:20:22Z</time>
      </trkpt>
      <trkpt lat="48.23157" lon="-3.37179">
        <ele>181.8</ele>
        <time>2021-08-10T11:20:23Z</time>
      </trkpt>
      <trkpt lat="48.2316" lon="-3.37183">
        <ele>181.8</ele>
        <time>2021-08-10T11:20:24Z</time>
      </trkpt>
      <trkpt lat="48.23164" lon="-3.37186">
        <ele>181.8</ele>
        <time>2021-08-10T11:20:25Z</time>
      </trkpt>
      <trkpt lat="48.23167" lon="-3.37189">
        <ele>181.8</ele>
        <time>2021-08-10T11:20:26Z</time>
      </trkpt>
      <trkpt lat="48.23171" lon="-3.37192">
        <ele>181.8</ele>
        <time>2021-08-10T11:20:27Z</time>
      </trkpt>
      <trkpt lat="48.23174" lon="-3.37195">
        <ele>181.8</ele>
        <time>2021-08-10T11:20:28Z</time>
      </trkpt>
      <trkpt lat="48.23178" lon="-3.37198">
        <ele>181.8</ele>
        <time>2021-08-10T11:20:29Z</time>
      </trkpt>
      <trkpt lat="48.23181" lon="-3.37201">
        <ele>181.8</ele>
        <time>2021-08-10T11:20:30Z</time>
      </trkpt>
      <trkpt lat="48.23184" lon="-3.37205">
        <ele>181.8</ele>
        <time>2021-08-10T11:20:31Z</time>
      </trkpt>
      <trkpt lat="48.23188" lon="-3.37208">
        <ele>181.8</ele>
        <time>2021-08-10T11:20:32Z</time>
      </trkpt>
      <trkpt lat="48.23191" lon="-3.3721">
        <ele>181.8</ele>
        <time>2021-08-10T11:20:33Z</time>
      </trkpt>
      <trkpt lat="48.23195" lon="-3.37212">
        <ele>181.8</ele>
        <time>2021-08-10T11:20:34Z</time>
      </trkpt>
      <trkpt lat="48.23199" lon="-3.37214">
        <ele>181.8</ele>
        <time>2021-08-10T11:20:35Z</time>
      </trkpt>
      <trkpt lat="48.23202" lon="-3.37217">
        <ele>181.8</ele>
        <time>2021-08-10T11:20:36Z</time>
      </trkpt>
      <trkpt lat="48.23206" lon="-3.37219">
        <ele>181.6</ele>
        <time>2021-08-10T11:20:37Z</time>
      </trkpt>
      <trkpt lat="48.2321" lon="-3.3722">
        <ele>181.6</ele>
        <time>2021-08-10T11:20:38Z</time>
      </trkpt>
      <trkpt lat="48.23214" lon="-3.37221">
        <ele>181.8</ele>
        <time>2021-08-10T11:20:39Z</time>
      </trkpt>
      <trkpt lat="48.23219" lon="-3.37223">
        <ele>181.8</ele>
        <time>2021-08-10T11:20:40Z</time>
      </trkpt>
      <trkpt lat="48.23223" lon="-3.37224">
        <ele>181.6</ele>
        <time>2021-08-10T11:20:41Z</time>
      </trkpt>
      <trkpt lat="48.23226" lon="-3.37224">
        <ele>181.8</ele>
        <time>2021-08-10T11:20:42Z</time>
      </trkpt>
      <trkpt lat="48.23231" lon="-3.37226">
        <ele>181.8</ele>
        <time>2021-08-10T11:20:43Z</time>
      </trkpt>
      <trkpt lat="48.23235" lon="-3.37228">
        <ele>181.8</ele>
        <time>2021-08-10T11:20:44Z</time>
      </trkpt>
      <trkpt lat="48.23239" lon="-3.37229">
        <ele>181.8</ele>
        <time>2021-08-10T11:20:45Z</time>
      </trkpt>
      <trkpt lat="48.23243" lon="-3.3723">
        <ele>181.8</ele>
        <time>2021-08-10T11:20:46Z</time>
      </trkpt>
      <trkpt lat="48.23248" lon="-3.37231">
        <ele>181.8</ele>
        <time>2021-08-10T11:20:47Z</time>
      </trkpt>
      <trkpt lat="48.23252" lon="-3.37233">
        <ele>181.8</ele>
        <time>2021-08-10T11:20:48Z</time>
      </trkpt>
      <trkpt lat="48.23256" lon="-3.37234">
        <ele>181.8</ele>
        <time>2021-08-10T11:20:49Z</time>
      </trkpt>
      <trkpt lat="48.23261" lon="-3.37236">
        <ele>181.8</ele>
        <time>2021-08-10T11:20:50Z</time>
      </trkpt>
      <trkpt lat="48.23265" lon="-3.37239">
        <ele>182</ele>
        <time>2021-08-10T11:20:51Z</time>
      </trkpt>
      <trkpt lat="48.23269" lon="-3.37242">
        <ele>182</ele>
        <time>2021-08-10T11:20:52Z</time>
      </trkpt>
      <trkpt lat="48.23272" lon="-3.37245">
        <ele>182</ele>
        <time>2021-08-10T11:20:53Z</time>
      </trkpt>
      <trkpt lat="48.23276" lon="-3.37249">
        <ele>182.2</ele>
        <time>2021-08-10T11:20:54Z</time>
      </trkpt>
      <trkpt lat="48.2328" lon="-3.37251">
        <ele>182.2</ele>
        <time>2021-08-10T11:20:55Z</time>
      </trkpt>
      <trkpt lat="48.23283" lon="-3.37254">
        <ele>182.2</ele>
        <time>2021-08-10T11:20:56Z</time>
      </trkpt>
      <trkpt lat="48.23286" lon="-3.37256">
        <ele>182.2</ele>
        <time>2021-08-10T11:20:57Z</time>
      </trkpt>
      <trkpt lat="48.23289" lon="-3.37258">
        <ele>182.2</ele>
        <time>2021-08-10T11:20:58Z</time>
      </trkpt>
      <trkpt lat="48.23292" lon="-3.3726">
        <ele>182.2</ele>
        <time>2021-08-10T11:20:59Z</time>
      </trkpt>
      <trkpt lat="48.23296" lon="-3.37262">
        <ele>182.2</ele>
        <time>2021-08-10T11:21:00Z</time>
      </trkpt>
      <trkpt lat="48.23299" lon="-3.37264">
        <ele>182.2</ele>
        <time>2021-08-10T11:21:01Z</time>
      </trkpt>
      <trkpt lat="48.23301" lon="-3.37267">
        <ele>182.2</ele>
        <time>2021-08-10T11:21:02Z</time>
      </trkpt>
      <trkpt lat="48.23304" lon="-3.37268">
        <ele>182.2</ele>
        <time>2021-08-10T11:21:03Z</time>
      </trkpt>
      <trkpt lat="48.23307" lon="-3.3727">
        <ele>182.4</ele>
        <time>2021-08-10T11:21:04Z</time>
      </trkpt>
      <trkpt lat="48.2331" lon="-3.37271">
        <ele>182.4</ele>
        <time>2021-08-10T11:21:05Z</time>
      </trkpt>
      <trkpt lat="48.23313" lon="-3.37272">
        <ele>182.4</ele>
        <time>2021-08-10T11:21:06Z</time>
      </trkpt>
      <trkpt lat="48.23316" lon="-3.37273">
        <ele>182.4</ele>
        <time>2021-08-10T11:21:07Z</time>
      </trkpt>
      <trkpt lat="48.23319" lon="-3.37274">
        <ele>182.4</ele>
        <time>2021-08-10T11:21:08Z</time>
      </trkpt>
      <trkpt lat="48.23323" lon="-3.37276">
        <ele>182.4</ele>
        <time>2021-08-10T11:21:09Z</time>
      </trkpt>
      <trkpt lat="48.23327" lon="-3.37277">
        <ele>182.4</ele>
        <time>2021-08-10T11:21:10Z</time>
      </trkpt>
      <trkpt lat="48.23331" lon="-3.37278">
        <ele>182.4</ele>
        <time>2021-08-10T11:21:11Z</time>
      </trkpt>
      <trkpt lat="48.23335" lon="-3.37279">
        <ele>182.4</ele>
        <time>2021-08-10T11:21:12Z</time>
      </trkpt>
      <trkpt lat="48.23339" lon="-3.3728">
        <ele>182.4</ele>
        <time>2021-08-10T11:21:13Z</time>
      </trkpt>
      <trkpt lat="48.23342" lon="-3.37281">
        <ele>182.4</ele>
        <time>2021-08-10T11:21:14Z</time>
      </trkpt>
      <trkpt lat="48.23346" lon="-3.37282">
        <ele>182.4</ele>
        <time>2021-08-10T11:21:15Z</time>
      </trkpt>
      <trkpt lat="48.23349" lon="-3.37283">
        <ele>182.4</ele>
        <time>2021-08-10T11:21:16Z</time>
      </trkpt>
      <trkpt lat="48.23352" lon="-3.37283">
        <ele>182.6</ele>
        <time>2021-08-10T11:21:17Z</time>
      </trkpt>
      <trkpt lat="48.23355" lon="-3.37283">
        <ele>182.6</ele>
        <time>2021-08-10T11:21:18Z</time>
      </trkpt>
      <trkpt lat="48.23358" lon="-3.37283">
        <ele>182.6</ele>
        <time>2021-08-10T11:21:19Z</time>
      </trkpt>
      <trkpt lat="48.23362" lon="-3.37283">
        <ele>182.6</ele>
        <time>2021-08-10T11:21:20Z</time>
      </trkpt>
      <trkpt lat="48.23366" lon="-3.37282">
        <ele>182.6</ele>
        <time>2021-08-10T11:21:21Z</time>
      </trkpt>
      <trkpt lat="48.2337" lon="-3.37281">
        <ele>182.6</ele>
        <time>2021-08-10T11:21:22Z</time>
      </trkpt>
      <trkpt lat="48.23374" lon="-3.3728">
        <ele>182.6</ele>
        <time>2021-08-10T11:21:23Z</time>
      </trkpt>
      <trkpt lat="48.23377" lon="-3.3728">
        <ele>182.6</ele>
        <time>2021-08-10T11:21:24Z</time>
      </trkpt>
      <trkpt lat="48.23381" lon="-3.3728">
        <ele>182.6</ele>
        <time>2021-08-10T11:21:25Z</time>
      </trkpt>
      <trkpt lat="48.23385" lon="-3.37279">
        <ele>182.6</ele>
        <time>2021-08-10T11:21:26Z</time>
      </trkpt>
      <trkpt lat="48.23388" lon="-3.37279">
        <ele>182.8</ele>
        <time>2021-08-10T11:21:27Z</time>
      </trkpt>
      <trkpt lat="48.23392" lon="-3.37279">
        <ele>182.8</ele>
        <time>2021-08-10T11:21:28Z</time>
      </trkpt>
      <trkpt lat="48.23396" lon="-3.37278">
        <ele>182.8</ele>
        <time>2021-08-10T11:21:29Z</time>
      </trkpt>
      <trkpt lat="48.234" lon="-3.37277">
        <ele>182.8</ele>
        <time>2021-08-10T11:21:30Z</time>
      </trkpt>
      <trkpt lat="48.23404" lon="-3.37276">
        <ele>182.8</ele>
        <time>2021-08-10T11:21:31Z</time>
      </trkpt>
      <trkpt lat="48.23407" lon="-3.37276">
        <ele>182.8</ele>
        <time>2021-08-10T11:21:32Z</time>
      </trkpt>
      <trkpt lat="48.2341" lon="-3.37275">
        <ele>182.8</ele>
        <time>2021-08-10T11:21:33Z</time>
      </trkpt>
      <trkpt lat="48.23413" lon="-3.37275">
        <ele>182.6</ele>
        <time>2021-08-10T11:21:34Z</time>
      </trkpt>
      <trkpt lat="48.23417" lon="-3.37274">
        <ele>182.6</ele>
        <time>2021-08-10T11:21:35Z</time>
      </trkpt>
      <trkpt lat="48.2342" lon="-3.37273">
        <ele>182.6</ele>
        <time>2021-08-10T11:21:36Z</time>
      </trkpt>
      <trkpt lat="48.23424" lon="-3.37273">
        <ele>182.6</ele>
        <time>2021-08-10T11:21:37Z</time>
      </trkpt>
      <trkpt lat="48.23427" lon="-3.37272">
        <ele>182.6</ele>
        <time>2021-08-10T11:21:38Z</time>
      </trkpt>
      <trkpt lat="48.23431" lon="-3.37271">
        <ele>182.6</ele>
        <time>2021-08-10T11:21:39Z</time>
      </trkpt>
      <trkpt lat="48.23435" lon="-3.37271">
        <ele>182.6</ele>
        <time>2021-08-10T11:21:40Z</time>
      </trkpt>
      <trkpt lat="48.23439" lon="-3.3727">
        <ele>182.6</ele>
        <time>2021-08-10T11:21:41Z</time>
      </trkpt>
      <trkpt lat="48.23442" lon="-3.37269">
        <ele>182.6</ele>
        <time>2021-08-10T11:21:42Z</time>
      </trkpt>
      <trkpt lat="48.23446" lon="-3.37268">
        <ele>182.6</ele>
        <time>2021-08-10T11:21:43Z</time>
      </trkpt>
      <trkpt lat="48.2345" lon="-3.37267">
        <ele>182.6</ele>
        <time>2021-08-10T11:21:44Z</time>
      </trkpt>
      <trkpt lat="48.23453" lon="-3.37268">
        <ele>182.6</ele>
        <time>2021-08-10T11:21:45Z</time>
      </trkpt>
      <trkpt lat="48.23457" lon="-3.37267">
        <ele>182.6</ele>
        <time>2021-08-10T11:21:46Z</time>
      </trkpt>
      <trkpt lat="48.23461" lon="-3.37266">
        <ele>182.6</ele>
        <time>2021-08-10T11:21:47Z</time>
      </trkpt>
      <trkpt lat="48.23464" lon="-3.37265">
        <ele>182.6</ele>
        <time>2021-08-10T11:21:48Z</time>
      </trkpt>
      <trkpt lat="48.23467" lon="-3.37264">
        <ele>182.6</ele>
        <time>2021-08-10T11:21:49Z</time>
      </trkpt>
      <trkpt lat="48.2347" lon="-3.37263">
        <ele>182.6</ele>
        <time>2021-08-10T11:21:50Z</time>
      </trkpt>
      <trkpt lat="48.23473" lon="-3.37261">
        <ele>182.6</ele>
        <time>2021-08-10T11:21:51Z</time>
      </trkpt>
      <trkpt lat="48.23477" lon="-3.3726">
        <ele>182.6</ele>
        <time>2021-08-10T11:21:52Z</time>
      </trkpt>
      <trkpt lat="48.23479" lon="-3.37259">
        <ele>182.6</ele>
        <time>2021-08-10T11:21:53Z</time>
      </trkpt>
      <trkpt lat="48.23482" lon="-3.37257">
        <ele>182.6</ele>
        <time>2021-08-10T11:21:54Z</time>
      </trkpt>
      <trkpt lat="48.23485" lon="-3.37255">
        <ele>182.6</ele>
        <time>2021-08-10T11:21:55Z</time>
      </trkpt>
      <trkpt lat="48.23488" lon="-3.37253">
        <ele>182.6</ele>
        <time>2021-08-10T11:21:56Z</time>
      </trkpt>
      <trkpt lat="48.23492" lon="-3.3725">
        <ele>182.6</ele>
        <time>2021-08-10T11:21:57Z</time>
      </trkpt>
      <trkpt lat="48.23495" lon="-3.37246">
        <ele>182.6</ele>
        <time>2021-08-10T11:21:58Z</time>
      </trkpt>
      <trkpt lat="48.23498" lon="-3.37243">
        <ele>182.6</ele>
        <time>2021-08-10T11:21:59Z</time>
      </trkpt>
      <trkpt lat="48.23501" lon="-3.3724">
        <ele>182.6</ele>
        <time>2021-08-10T11:22:00Z</time>
      </trkpt>
      <trkpt lat="48.23505" lon="-3.37238">
        <ele>182.6</ele>
        <time>2021-08-10T11:22:01Z</time>
      </trkpt>
      <trkpt lat="48.23508" lon="-3.37234">
        <ele>182.6</ele>
        <time>2021-08-10T11:22:02Z</time>
      </trkpt>
      <trkpt lat="48.23512" lon="-3.37232">
        <ele>182.6</ele>
        <time>2021-08-10T11:22:03Z</time>
      </trkpt>
      <trkpt lat="48.23515" lon="-3.37229">
        <ele>182.8</ele>
        <time>2021-08-10T11:22:04Z</time>
      </trkpt>
      <trkpt lat="48.23519" lon="-3.37227">
        <ele>182.8</ele>
        <time>2021-08-10T11:22:05Z</time>
      </trkpt>
      <trkpt lat="48.23523" lon="-3.37224">
        <ele>182.8</ele>
        <time>2021-08-10T11:22:06Z</time>
      </trkpt>
      <trkpt lat="48.23526" lon="-3.37221">
        <ele>182.8</ele>
        <time>2021-08-10T11:22:07Z</time>
      </trkpt>
      <trkpt lat="48.2353" lon="-3.37218">
        <ele>182.8</ele>
        <time>2021-08-10T11:22:08Z</time>
      </trkpt>
      <trkpt lat="48.23533" lon="-3.37216">
        <ele>182.8</ele>
        <time>2021-08-10T11:22:09Z</time>
      </trkpt>
      <trkpt lat="48.23537" lon="-3.37214">
        <ele>182.8</ele>
        <time>2021-08-10T11:22:10Z</time>
      </trkpt>
      <trkpt lat="48.2354" lon="-3.37211">
        <ele>182.8</ele>
        <time>2021-08-10T11:22:11Z</time>
      </trkpt>
      <trkpt lat="48.23544" lon="-3.37209">
        <ele>182.8</ele>
        <time>2021-08-10T11:22:12Z</time>
      </trkpt>
      <trkpt lat="48.23547" lon="-3.37207">
        <ele>182.8</ele>
        <time>2021-08-10T11:22:13Z</time>
      </trkpt>
      <trkpt lat="48.2355" lon="-3.37207">
        <ele>182.8</ele>
        <time>2021-08-10T11:22:14Z</time>
      </trkpt>
      <trkpt lat="48.23554" lon="-3.37206">
        <ele>182.6</ele>
        <time>2021-08-10T11:22:15Z</time>
      </trkpt>
      <trkpt lat="48.23557" lon="-3.37205">
        <ele>182.6</ele>
        <time>2021-08-10T11:22:16Z</time>
      </trkpt>
      <trkpt lat="48.23561" lon="-3.37204">
        <ele>182.6</ele>
        <time>2021-08-10T11:22:17Z</time>
      </trkpt>
      <trkpt lat="48.23565" lon="-3.37204">
        <ele>182.6</ele>
        <time>2021-08-10T11:22:18Z</time>
      </trkpt>
      <trkpt lat="48.23569" lon="-3.37204">
        <ele>182.6</ele>
        <time>2021-08-10T11:22:19Z</time>
      </trkpt>
      <trkpt lat="48.23573" lon="-3.37203">
        <ele>182.6</ele>
        <time>2021-08-10T11:22:20Z</time>
      </trkpt>
      <trkpt lat="48.23578" lon="-3.37202">
        <ele>182.6</ele>
        <time>2021-08-10T11:22:21Z</time>
      </trkpt>
      <trkpt lat="48.23583" lon="-3.37202">
        <ele>182.6</ele>
        <time>2021-08-10T11:22:22Z</time>
      </trkpt>
      <trkpt lat="48.23587" lon="-3.37203">
        <ele>182.6</ele>
        <time>2021-08-10T11:22:23Z</time>
      </trkpt>
      <trkpt lat="48.23591" lon="-3.37203">
        <ele>182.6</ele>
        <time>2021-08-10T11:22:24Z</time>
      </trkpt>
      <trkpt lat="48.23596" lon="-3.37203">
        <ele>182.6</ele>
        <time>2021-08-10T11:22:25Z</time>
      </trkpt>
      <trkpt lat="48.236" lon="-3.37203">
        <ele>182.6</ele>
        <time>2021-08-10T11:22:26Z</time>
      </trkpt>
      <trkpt lat="48.23605" lon="-3.37203">
        <ele>182.6</ele>
        <time>2021-08-10T11:22:27Z</time>
      </trkpt>
      <trkpt lat="48.23609" lon="-3.37204">
        <ele>182.6</ele>
        <time>2021-08-10T11:22:28Z</time>
      </trkpt>
      <trkpt lat="48.23613" lon="-3.37203">
        <ele>182.6</ele>
        <time>2021-08-10T11:22:29Z</time>
      </trkpt>
      <trkpt lat="48.23618" lon="-3.37203">
        <ele>182.6</ele>
        <time>2021-08-10T11:22:30Z</time>
      </trkpt>
      <trkpt lat="48.23622" lon="-3.37203">
        <ele>182.6</ele>
        <time>2021-08-10T11:22:31Z</time>
      </trkpt>
      <trkpt lat="48.23626" lon="-3.37203">
        <ele>182.6</ele>
        <time>2021-08-10T11:22:32Z</time>
      </trkpt>
      <trkpt lat="48.2363" lon="-3.37203">
        <ele>182.6</ele>
        <time>2021-08-10T11:22:33Z</time>
      </trkpt>
      <trkpt lat="48.23634" lon="-3.37203">
        <ele>182.6</ele>
        <time>2021-08-10T11:22:34Z</time>
      </trkpt>
      <trkpt lat="48.23639" lon="-3.37203">
        <ele>182.6</ele>
        <time>2021-08-10T11:22:35Z</time>
      </trkpt>
      <trkpt lat="48.23643" lon="-3.37203">
        <ele>182.8</ele>
        <time>2021-08-10T11:22:36Z</time>
      </trkpt>
      <trkpt lat="48.23647" lon="-3.37203">
        <ele>182.8</ele>
        <time>2021-08-10T11:22:37Z</time>
      </trkpt>
      <trkpt lat="48.23651" lon="-3.37204">
        <ele>182.8</ele>
        <time>2021-08-10T11:22:38Z</time>
      </trkpt>
      <trkpt lat="48.23655" lon="-3.37205">
        <ele>182.8</ele>
        <time>2021-08-10T11:22:39Z</time>
      </trkpt>
      <trkpt lat="48.23659" lon="-3.37205">
        <ele>182.8</ele>
        <time>2021-08-10T11:22:40Z</time>
      </trkpt>
      <trkpt lat="48.23663" lon="-3.37205">
        <ele>182.8</ele>
        <time>2021-08-10T11:22:41Z</time>
      </trkpt>
      <trkpt lat="48.23667" lon="-3.37206">
        <ele>182.8</ele>
        <time>2021-08-10T11:22:42Z</time>
      </trkpt>
      <trkpt lat="48.2367" lon="-3.37206">
        <ele>182.8</ele>
        <time>2021-08-10T11:22:43Z</time>
      </trkpt>
      <trkpt lat="48.23674" lon="-3.37206">
        <ele>182.8</ele>
        <time>2021-08-10T11:22:44Z</time>
      </trkpt>
      <trkpt lat="48.23677" lon="-3.37207">
        <ele>182.8</ele>
        <time>2021-08-10T11:22:45Z</time>
      </trkpt>
      <trkpt lat="48.23681" lon="-3.37207">
        <ele>182.8</ele>
        <time>2021-08-10T11:22:46Z</time>
      </trkpt>
      <trkpt lat="48.23685" lon="-3.37207">
        <ele>182.8</ele>
        <time>2021-08-10T11:22:47Z</time>
      </trkpt>
      <trkpt lat="48.23689" lon="-3.37208">
        <ele>183</ele>
        <time>2021-08-10T11:22:48Z</time>
      </trkpt>
      <trkpt lat="48.23693" lon="-3.37208">
        <ele>183</ele>
        <time>2021-08-10T11:22:49Z</time>
      </trkpt>
      <trkpt lat="48.23696" lon="-3.37209">
        <ele>183</ele>
        <time>2021-08-10T11:22:50Z</time>
      </trkpt>
      <trkpt lat="48.237" lon="-3.3721">
        <ele>183</ele>
        <time>2021-08-10T11:22:51Z</time>
      </trkpt>
      <trkpt lat="48.23704" lon="-3.3721">
        <ele>183</ele>
        <time>2021-08-10T11:22:52Z</time>
      </trkpt>
      <trkpt lat="48.23708" lon="-3.3721">
        <ele>183</ele>
        <time>2021-08-10T11:22:53Z</time>
      </trkpt>
      <trkpt lat="48.23712" lon="-3.37211">
        <ele>183</ele>
        <time>2021-08-10T11:22:54Z</time>
      </trkpt>
      <trkpt lat="48.23716" lon="-3.37211">
        <ele>183</ele>
        <time>2021-08-10T11:22:55Z</time>
      </trkpt>
      <trkpt lat="48.2372" lon="-3.37211">
        <ele>183</ele>
        <time>2021-08-10T11:22:56Z</time>
      </trkpt>
      <trkpt lat="48.23724" lon="-3.37212">
        <ele>183</ele>
        <time>2021-08-10T11:22:57Z</time>
      </trkpt>
      <trkpt lat="48.23728" lon="-3.37212">
        <ele>183</ele>
        <time>2021-08-10T11:22:58Z</time>
      </trkpt>
      <trkpt lat="48.23732" lon="-3.37212">
        <ele>183.2</ele>
        <time>2021-08-10T11:22:59Z</time>
      </trkpt>
      <trkpt lat="48.23736" lon="-3.37213">
        <ele>183</ele>
        <time>2021-08-10T11:23:00Z</time>
      </trkpt>
      <trkpt lat="48.2374" lon="-3.37213">
        <ele>183</ele>
        <time>2021-08-10T11:23:01Z</time>
      </trkpt>
      <trkpt lat="48.23744" lon="-3.37213">
        <ele>183</ele>
        <time>2021-08-10T11:23:02Z</time>
      </trkpt>
      <trkpt lat="48.23748" lon="-3.37215">
        <ele>183</ele>
        <time>2021-08-10T11:23:03Z</time>
      </trkpt>
      <trkpt lat="48.23751" lon="-3.37218">
        <ele>183</ele>
        <time>2021-08-10T11:23:04Z</time>
      </trkpt>
      <trkpt lat="48.23754" lon="-3.37222">
        <ele>183</ele>
        <time>2021-08-10T11:23:05Z</time>
      </trkpt>
      <trkpt lat="48.23757" lon="-3.37226">
        <ele>183</ele>
        <time>2021-08-10T11:23:06Z</time>
      </trkpt>
      <trkpt lat="48.23759" lon="-3.37231">
        <ele>183</ele>
        <time>2021-08-10T11:23:07Z</time>
      </trkpt>
      <trkpt lat="48.23762" lon="-3.37237">
        <ele>183</ele>
        <time>2021-08-10T11:23:08Z</time>
      </trkpt>
      <trkpt lat="48.23764" lon="-3.37243">
        <ele>183</ele>
        <time>2021-08-10T11:23:09Z</time>
      </trkpt>
      <trkpt lat="48.23766" lon="-3.37248">
        <ele>183</ele>
        <time>2021-08-10T11:23:10Z</time>
      </trkpt>
      <trkpt lat="48.23769" lon="-3.37254">
        <ele>183</ele>
        <time>2021-08-10T11:23:11Z</time>
      </trkpt>
      <trkpt lat="48.23771" lon="-3.37259">
        <ele>183</ele>
        <time>2021-08-10T11:23:12Z</time>
      </trkpt>
      <trkpt lat="48.23773" lon="-3.37263">
        <ele>183</ele>
        <time>2021-08-10T11:23:13Z</time>
      </trkpt>
      <trkpt lat="48.23775" lon="-3.37268">
        <ele>183</ele>
        <time>2021-08-10T11:23:14Z</time>
      </trkpt>
      <trkpt lat="48.23777" lon="-3.37273">
        <ele>183</ele>
        <time>2021-08-10T11:23:15Z</time>
      </trkpt>
      <trkpt lat="48.23779" lon="-3.37279">
        <ele>183</ele>
        <time>2021-08-10T11:23:16Z</time>
      </trkpt>
      <trkpt lat="48.23781" lon="-3.37284">
        <ele>183</ele>
        <time>2021-08-10T11:23:17Z</time>
      </trkpt>
      <trkpt lat="48.23784" lon="-3.3729">
        <ele>182.8</ele>
        <time>2021-08-10T11:23:18Z</time>
      </trkpt>
      <trkpt lat="48.23786" lon="-3.37296">
        <ele>182.8</ele>
        <time>2021-08-10T11:23:19Z</time>
      </trkpt>
      <trkpt lat="48.23788" lon="-3.37301">
        <ele>182.8</ele>
        <time>2021-08-10T11:23:20Z</time>
      </trkpt>
      <trkpt lat="48.2379" lon="-3.37306">
        <ele>182.8</ele>
        <time>2021-08-10T11:23:21Z</time>
      </trkpt>
      <trkpt lat="48.23791" lon="-3.3731">
        <ele>182.8</ele>
        <time>2021-08-10T11:23:22Z</time>
      </trkpt>
      <trkpt lat="48.23792" lon="-3.37315">
        <ele>182.8</ele>
        <time>2021-08-10T11:23:23Z</time>
      </trkpt>
      <trkpt lat="48.23794" lon="-3.37321">
        <ele>182.8</ele>
        <time>2021-08-10T11:23:24Z</time>
      </trkpt>
      <trkpt lat="48.23795" lon="-3.37327">
        <ele>182.8</ele>
        <time>2021-08-10T11:23:25Z</time>
      </trkpt>
      <trkpt lat="48.23796" lon="-3.37333">
        <ele>182.8</ele>
        <time>2021-08-10T11:23:26Z</time>
      </trkpt>
      <trkpt lat="48.23797" lon="-3.3734">
        <ele>182.8</ele>
        <time>2021-08-10T11:23:27Z</time>
      </trkpt>
      <trkpt lat="48.23798" lon="-3.37346">
        <ele>182.8</ele>
        <time>2021-08-10T11:23:28Z</time>
      </trkpt>
      <trkpt lat="48.23799" lon="-3.37352">
        <ele>182.8</ele>
        <time>2021-08-10T11:23:29Z</time>
      </trkpt>
      <trkpt lat="48.238" lon="-3.37358">
        <ele>182.8</ele>
        <time>2021-08-10T11:23:30Z</time>
      </trkpt>
      <trkpt lat="48.23801" lon="-3.37365">
        <ele>182.8</ele>
        <time>2021-08-10T11:23:31Z</time>
      </trkpt>
      <trkpt lat="48.23801" lon="-3.37371">
        <ele>182.8</ele>
        <time>2021-08-10T11:23:32Z</time>
      </trkpt>
      <trkpt lat="48.23802" lon="-3.37378">
        <ele>182.8</ele>
        <time>2021-08-10T11:23:33Z</time>
      </trkpt>
      <trkpt lat="48.23803" lon="-3.37384">
        <ele>182.8</ele>
        <time>2021-08-10T11:23:34Z</time>
      </trkpt>
      <trkpt lat="48.23804" lon="-3.37391">
        <ele>182.8</ele>
        <time>2021-08-10T11:23:35Z</time>
      </trkpt>
      <trkpt lat="48.23805" lon="-3.37397">
        <ele>182.8</ele>
        <time>2021-08-10T11:23:36Z</time>
      </trkpt>
      <trkpt lat="48.23805" lon="-3.37404">
        <ele>182.8</ele>
        <time>2021-08-10T11:23:37Z</time>
      </trkpt>
      <trkpt lat="48.23806" lon="-3.3741">
        <ele>182.8</ele>
        <time>2021-08-10T11:23:38Z</time>
      </trkpt>
      <trkpt lat="48.23807" lon="-3.37416">
        <ele>182.8</ele>
        <time>2021-08-10T11:23:39Z</time>
      </trkpt>
      <trkpt lat="48.23808" lon="-3.37423">
        <ele>182.8</ele>
        <time>2021-08-10T11:23:40Z</time>
      </trkpt>
      <trkpt lat="48.23809" lon="-3.37429">
        <ele>182.8</ele>
        <time>2021-08-10T11:23:41Z</time>
      </trkpt>
      <trkpt lat="48.2381" lon="-3.37435">
        <ele>182.8</ele>
        <time>2021-08-10T11:23:42Z</time>
      </trkpt>
      <trkpt lat="48.2381" lon="-3.37441">
        <ele>182.8</ele>
        <time>2021-08-10T11:23:43Z</time>
      </trkpt>
      <trkpt lat="48.23811" lon="-3.37446">
        <ele>182.8</ele>
        <time>2021-08-10T11:23:44Z</time>
      </trkpt>
      <trkpt lat="48.23812" lon="-3.37452">
        <ele>182.8</ele>
        <time>2021-08-10T11:23:45Z</time>
      </trkpt>
      <trkpt lat="48.23813" lon="-3.37457">
        <ele>182.8</ele>
        <time>2021-08-10T11:23:46Z</time>
      </trkpt>
      <trkpt lat="48.23813" lon="-3.37462">
        <ele>182.8</ele>
        <time>2021-08-10T11:23:47Z</time>
      </trkpt>
      <trkpt lat="48.23814" lon="-3.37466">
        <ele>183</ele>
        <time>2021-08-10T11:23:48Z</time>
      </trkpt>
      <trkpt lat="48.23814" lon="-3.3747">
        <ele>183.2</ele>
        <time>2021-08-10T11:23:49Z</time>
      </trkpt>
      <trkpt lat="48.23815" lon="-3.37474">
        <ele>183.2</ele>
        <time>2021-08-10T11:23:50Z</time>
      </trkpt>
      <trkpt lat="48.23816" lon="-3.37477">
        <ele>183.4</ele>
        <time>2021-08-10T11:23:51Z</time>
      </trkpt>
      <trkpt lat="48.23817" lon="-3.3748">
        <ele>183.4</ele>
        <time>2021-08-10T11:23:52Z</time>
      </trkpt>
      <trkpt lat="48.23818" lon="-3.37481">
        <ele>183.6</ele>
        <time>2021-08-10T11:23:53Z</time>
      </trkpt>
      <trkpt lat="48.23819" lon="-3.37482">
        <ele>183.8</ele>
        <time>2021-08-10T11:23:54Z</time>
      </trkpt>
      <trkpt lat="48.23819" lon="-3.37483">
        <ele>184</ele>
        <time>2021-08-10T11:23:55Z</time>
      </trkpt>
      <trkpt lat="48.2382" lon="-3.37484">
        <ele>184.2</ele>
        <time>2021-08-10T11:23:56Z</time>
      </trkpt>
      <trkpt lat="48.2382" lon="-3.37484">
        <ele>184.6</ele>
        <time>2021-08-10T11:23:57Z</time>
      </trkpt>
      <trkpt lat="48.2382" lon="-3.37485">
        <ele>184.8</ele>
        <time>2021-08-10T11:23:58Z</time>
      </trkpt>
      <trkpt lat="48.2382" lon="-3.37485">
        <ele>185</ele>
        <time>2021-08-10T11:23:59Z</time>
      </trkpt>
      <trkpt lat="48.2382" lon="-3.37485">
        <ele>185.2</ele>
        <time>2021-08-10T11:24:00Z</time>
      </trkpt>
      <trkpt lat="48.23822" lon="-3.3749">
        <ele>186</ele>
        <time>2021-08-10T11:24:22Z</time>
      </trkpt>
      <trkpt lat="48.23823" lon="-3.37491">
        <ele>186</ele>
        <time>2021-08-10T11:24:23Z</time>
      </trkpt>
      <trkpt lat="48.23823" lon="-3.37494">
        <ele>186</ele>
        <time>2021-08-10T11:24:24Z</time>
      </trkpt>
      <trkpt lat="48.23823" lon="-3.37496">
        <ele>186</ele>
        <time>2021-08-10T11:24:25Z</time>
      </trkpt>
      <trkpt lat="48.23823" lon="-3.37498">
        <ele>186</ele>
        <time>2021-08-10T11:24:26Z</time>
      </trkpt>
      <trkpt lat="48.23823" lon="-3.37501">
        <ele>186</ele>
        <time>2021-08-10T11:24:27Z</time>
      </trkpt>
      <trkpt lat="48.23823" lon="-3.37505">
        <ele>186</ele>
        <time>2021-08-10T11:24:28Z</time>
      </trkpt>
      <trkpt lat="48.23821" lon="-3.37509">
        <ele>186</ele>
        <time>2021-08-10T11:24:29Z</time>
      </trkpt>
      <trkpt lat="48.2382" lon="-3.37516">
        <ele>186</ele>
        <time>2021-08-10T11:24:30Z</time>
      </trkpt>
      <trkpt lat="48.2382" lon="-3.37524">
        <ele>186</ele>
        <time>2021-08-10T11:24:31Z</time>
      </trkpt>
      <trkpt lat="48.2382" lon="-3.37535">
        <ele>186</ele>
        <time>2021-08-10T11:24:32Z</time>
      </trkpt>
      <trkpt lat="48.2382" lon="-3.37545">
        <ele>186</ele>
        <time>2021-08-10T11:24:33Z</time>
      </trkpt>
      <trkpt lat="48.23821" lon="-3.37556">
        <ele>186</ele>
        <time>2021-08-10T11:24:34Z</time>
      </trkpt>
      <trkpt lat="48.23822" lon="-3.37566">
        <ele>185.8</ele>
        <time>2021-08-10T11:24:35Z</time>
      </trkpt>
      <trkpt lat="48.23824" lon="-3.37575">
        <ele>185.6</ele>
        <time>2021-08-10T11:24:36Z</time>
      </trkpt>
      <trkpt lat="48.23825" lon="-3.37585">
        <ele>185.4</ele>
        <time>2021-08-10T11:24:37Z</time>
      </trkpt>
      <trkpt lat="48.23826" lon="-3.37594">
        <ele>185.2</ele>
        <time>2021-08-10T11:24:38Z</time>
      </trkpt>
      <trkpt lat="48.23827" lon="-3.37603">
        <ele>184.2</ele>
        <time>2021-08-10T11:24:39Z</time>
      </trkpt>
      <trkpt lat="48.23829" lon="-3.37611">
        <ele>183.4</ele>
        <time>2021-08-10T11:24:40Z</time>
      </trkpt>
      <trkpt lat="48.23831" lon="-3.37619">
        <ele>183</ele>
        <time>2021-08-10T11:24:41Z</time>
      </trkpt>
      <trkpt lat="48.23833" lon="-3.37628">
        <ele>182.6</ele>
        <time>2021-08-10T11:24:42Z</time>
      </trkpt>
      <trkpt lat="48.23835" lon="-3.37637">
        <ele>182.4</ele>
        <time>2021-08-10T11:24:43Z</time>
      </trkpt>
      <trkpt lat="48.23837" lon="-3.37645">
        <ele>182.2</ele>
        <time>2021-08-10T11:24:44Z</time>
      </trkpt>
      <trkpt lat="48.2384" lon="-3.37653">
        <ele>182.2</ele>
        <time>2021-08-10T11:24:45Z</time>
      </trkpt>
      <trkpt lat="48.23842" lon="-3.37661">
        <ele>182.2</ele>
        <time>2021-08-10T11:24:46Z</time>
      </trkpt>
      <trkpt lat="48.23845" lon="-3.37668">
        <ele>182</ele>
        <time>2021-08-10T11:24:47Z</time>
      </trkpt>
      <trkpt lat="48.23847" lon="-3.37676">
        <ele>182</ele>
        <time>2021-08-10T11:24:48Z</time>
      </trkpt>
      <trkpt lat="48.23849" lon="-3.37684">
        <ele>182</ele>
        <time>2021-08-10T11:24:49Z</time>
      </trkpt>
      <trkpt lat="48.23852" lon="-3.37692">
        <ele>182</ele>
        <time>2021-08-10T11:24:50Z</time>
      </trkpt>
      <trkpt lat="48.23855" lon="-3.37699">
        <ele>182</ele>
        <time>2021-08-10T11:24:51Z</time>
      </trkpt>
      <trkpt lat="48.23857" lon="-3.37707">
        <ele>182</ele>
        <time>2021-08-10T11:24:52Z</time>
      </trkpt>
      <trkpt lat="48.23859" lon="-3.37714">
        <ele>182</ele>
        <time>2021-08-10T11:24:53Z</time>
      </trkpt>
      <trkpt lat="48.23862" lon="-3.37721">
        <ele>182</ele>
        <time>2021-08-10T11:24:54Z</time>
      </trkpt>
      <trkpt lat="48.23864" lon="-3.37728">
        <ele>182.2</ele>
        <time>2021-08-10T11:24:55Z</time>
      </trkpt>
      <trkpt lat="48.23866" lon="-3.37735">
        <ele>182.2</ele>
        <time>2021-08-10T11:24:56Z</time>
      </trkpt>
      <trkpt lat="48.23868" lon="-3.37741">
        <ele>182.2</ele>
        <time>2021-08-10T11:24:57Z</time>
      </trkpt>
      <trkpt lat="48.23871" lon="-3.37748">
        <ele>182.2</ele>
        <time>2021-08-10T11:24:58Z</time>
      </trkpt>
      <trkpt lat="48.23873" lon="-3.37755">
        <ele>182.2</ele>
        <time>2021-08-10T11:24:59Z</time>
      </trkpt>
      <trkpt lat="48.23875" lon="-3.37762">
        <ele>182.2</ele>
        <time>2021-08-10T11:25:00Z</time>
      </trkpt>
      <trkpt lat="48.23877" lon="-3.37768">
        <ele>182.2</ele>
        <time>2021-08-10T11:25:01Z</time>
      </trkpt>
      <trkpt lat="48.2388" lon="-3.37773">
        <ele>182.4</ele>
        <time>2021-08-10T11:25:02Z</time>
      </trkpt>
      <trkpt lat="48.23883" lon="-3.37779">
        <ele>182.4</ele>
        <time>2021-08-10T11:25:03Z</time>
      </trkpt>
      <trkpt lat="48.23885" lon="-3.37783">
        <ele>182.4</ele>
        <time>2021-08-10T11:25:04Z</time>
      </trkpt>
      <trkpt lat="48.23888" lon="-3.37788">
        <ele>182.4</ele>
        <time>2021-08-10T11:25:05Z</time>
      </trkpt>
      <trkpt lat="48.23891" lon="-3.37792">
        <ele>182.4</ele>
        <time>2021-08-10T11:25:06Z</time>
      </trkpt>
      <trkpt lat="48.23894" lon="-3.37796">
        <ele>182.4</ele>
        <time>2021-08-10T11:25:07Z</time>
      </trkpt>
      <trkpt lat="48.23898" lon="-3.37801">
        <ele>182.6</ele>
        <time>2021-08-10T11:25:08Z</time>
      </trkpt>
      <trkpt lat="48.23902" lon="-3.37805">
        <ele>182.6</ele>
        <time>2021-08-10T11:25:09Z</time>
      </trkpt>
      <trkpt lat="48.23906" lon="-3.3781">
        <ele>182.6</ele>
        <time>2021-08-10T11:25:10Z</time>
      </trkpt>
      <trkpt lat="48.23909" lon="-3.37814">
        <ele>182.6</ele>
        <time>2021-08-10T11:25:11Z</time>
      </trkpt>
      <trkpt lat="48.23913" lon="-3.37817">
        <ele>182.6</ele>
        <time>2021-08-10T11:25:12Z</time>
      </trkpt>
      <trkpt lat="48.23917" lon="-3.37821">
        <ele>182.6</ele>
        <time>2021-08-10T11:25:13Z</time>
      </trkpt>
      <trkpt lat="48.23921" lon="-3.37825">
        <ele>182.8</ele>
        <time>2021-08-10T11:25:14Z</time>
      </trkpt>
      <trkpt lat="48.23925" lon="-3.3783">
        <ele>182.8</ele>
        <time>2021-08-10T11:25:15Z</time>
      </trkpt>
      <trkpt lat="48.2393" lon="-3.37836">
        <ele>182.8</ele>
        <time>2021-08-10T11:25:16Z</time>
      </trkpt>
      <trkpt lat="48.23934" lon="-3.37841">
        <ele>182.8</ele>
        <time>2021-08-10T11:25:17Z</time>
      </trkpt>
      <trkpt lat="48.23939" lon="-3.37846">
        <ele>182.8</ele>
        <time>2021-08-10T11:25:18Z</time>
      </trkpt>
      <trkpt lat="48.23943" lon="-3.37851">
        <ele>182.8</ele>
        <time>2021-08-10T11:25:19Z</time>
      </trkpt>
      <trkpt lat="48.23947" lon="-3.37856">
        <ele>182.8</ele>
        <time>2021-08-10T11:25:20Z</time>
      </trkpt>
      <trkpt lat="48.23952" lon="-3.37861">
        <ele>182.8</ele>
        <time>2021-08-10T11:25:21Z</time>
      </trkpt>
      <trkpt lat="48.23956" lon="-3.37866">
        <ele>183</ele>
        <time>2021-08-10T11:25:22Z</time>
      </trkpt>
      <trkpt lat="48.2396" lon="-3.37871">
        <ele>183</ele>
        <time>2021-08-10T11:25:23Z</time>
      </trkpt>
      <trkpt lat="48.23964" lon="-3.37876">
        <ele>183</ele>
        <time>2021-08-10T11:25:24Z</time>
      </trkpt>
      <trkpt lat="48.23968" lon="-3.37881">
        <ele>183.2</ele>
        <time>2021-08-10T11:25:25Z</time>
      </trkpt>
      <trkpt lat="48.23972" lon="-3.37886">
        <ele>183.2</ele>
        <time>2021-08-10T11:25:26Z</time>
      </trkpt>
      <trkpt lat="48.23976" lon="-3.37891">
        <ele>183.2</ele>
        <time>2021-08-10T11:25:27Z</time>
      </trkpt>
      <trkpt lat="48.2398" lon="-3.37896">
        <ele>183.2</ele>
        <time>2021-08-10T11:25:28Z</time>
      </trkpt>
      <trkpt lat="48.23984" lon="-3.37901">
        <ele>183</ele>
        <time>2021-08-10T11:25:29Z</time>
      </trkpt>
      <trkpt lat="48.23988" lon="-3.37906">
        <ele>183</ele>
        <time>2021-08-10T11:25:30Z</time>
      </trkpt>
      <trkpt lat="48.23992" lon="-3.3791">
        <ele>183</ele>
        <time>2021-08-10T11:25:31Z</time>
      </trkpt>
      <trkpt lat="48.23997" lon="-3.37916">
        <ele>182.8</ele>
        <time>2021-08-10T11:25:32Z</time>
      </trkpt>
      <trkpt lat="48.24001" lon="-3.37921">
        <ele>182.8</ele>
        <time>2021-08-10T11:25:33Z</time>
      </trkpt>
      <trkpt lat="48.24005" lon="-3.37926">
        <ele>183</ele>
        <time>2021-08-10T11:25:34Z</time>
      </trkpt>
      <trkpt lat="48.24009" lon="-3.37931">
        <ele>183</ele>
        <time>2021-08-10T11:25:35Z</time>
      </trkpt>
      <trkpt lat="48.24013" lon="-3.37936">
        <ele>183</ele>
        <time>2021-08-10T11:25:36Z</time>
      </trkpt>
      <trkpt lat="48.24017" lon="-3.37941">
        <ele>183</ele>
        <time>2021-08-10T11:25:37Z</time>
      </trkpt>
      <trkpt lat="48.24021" lon="-3.37946">
        <ele>183</ele>
        <time>2021-08-10T11:25:38Z</time>
      </trkpt>
      <trkpt lat="48.24024" lon="-3.3795">
        <ele>183</ele>
        <time>2021-08-10T11:25:39Z</time>
      </trkpt>
      <trkpt lat="48.24028" lon="-3.37956">
        <ele>183</ele>
        <time>2021-08-10T11:25:40Z</time>
      </trkpt>
      <trkpt lat="48.24031" lon="-3.37961">
        <ele>183</ele>
        <time>2021-08-10T11:25:41Z</time>
      </trkpt>
      <trkpt lat="48.24033" lon="-3.37967">
        <ele>183</ele>
        <time>2021-08-10T11:25:42Z</time>
      </trkpt>
      <trkpt lat="48.24036" lon="-3.37973">
        <ele>183</ele>
        <time>2021-08-10T11:25:43Z</time>
      </trkpt>
      <trkpt lat="48.24038" lon="-3.3798">
        <ele>183</ele>
        <time>2021-08-10T11:25:44Z</time>
      </trkpt>
      <trkpt lat="48.24039" lon="-3.37987">
        <ele>183</ele>
        <time>2021-08-10T11:25:45Z</time>
      </trkpt>
      <trkpt lat="48.24041" lon="-3.37994">
        <ele>183</ele>
        <time>2021-08-10T11:25:46Z</time>
      </trkpt>
      <trkpt lat="48.24042" lon="-3.38001">
        <ele>183</ele>
        <time>2021-08-10T11:25:47Z</time>
      </trkpt>
      <trkpt lat="48.24043" lon="-3.38008">
        <ele>183</ele>
        <time>2021-08-10T11:25:48Z</time>
      </trkpt>
      <trkpt lat="48.24043" lon="-3.38015">
        <ele>183</ele>
        <time>2021-08-10T11:25:49Z</time>
      </trkpt>
      <trkpt lat="48.24043" lon="-3.38022">
        <ele>183</ele>
        <time>2021-08-10T11:25:50Z</time>
      </trkpt>
      <trkpt lat="48.24044" lon="-3.38028">
        <ele>183</ele>
        <time>2021-08-10T11:25:51Z</time>
      </trkpt>
      <trkpt lat="48.24044" lon="-3.38035">
        <ele>183</ele>
        <time>2021-08-10T11:25:52Z</time>
      </trkpt>
      <trkpt lat="48.24044" lon="-3.38041">
        <ele>183</ele>
        <time>2021-08-10T11:25:53Z</time>
      </trkpt>
      <trkpt lat="48.24044" lon="-3.38048">
        <ele>183</ele>
        <time>2021-08-10T11:25:54Z</time>
      </trkpt>
      <trkpt lat="48.24043" lon="-3.38055">
        <ele>183</ele>
        <time>2021-08-10T11:25:55Z</time>
      </trkpt>
      <trkpt lat="48.24043" lon="-3.38061">
        <ele>183</ele>
        <time>2021-08-10T11:25:56Z</time>
      </trkpt>
      <trkpt lat="48.24043" lon="-3.38067">
        <ele>183</ele>
        <time>2021-08-10T11:25:57Z</time>
      </trkpt>
      <trkpt lat="48.24042" lon="-3.38073">
        <ele>183</ele>
        <time>2021-08-10T11:25:58Z</time>
      </trkpt>
      <trkpt lat="48.24042" lon="-3.3808">
        <ele>182.8</ele>
        <time>2021-08-10T11:25:59Z</time>
      </trkpt>
      <trkpt lat="48.24041" lon="-3.38087">
        <ele>182.8</ele>
        <time>2021-08-10T11:26:00Z</time>
      </trkpt>
      <trkpt lat="48.24041" lon="-3.38093">
        <ele>182.8</ele>
        <time>2021-08-10T11:26:01Z</time>
      </trkpt>
      <trkpt lat="48.2404" lon="-3.38099">
        <ele>182.6</ele>
        <time>2021-08-10T11:26:02Z</time>
      </trkpt>
      <trkpt lat="48.2404" lon="-3.38106">
        <ele>182.6</ele>
        <time>2021-08-10T11:26:03Z</time>
      </trkpt>
      <trkpt lat="48.24039" lon="-3.38113">
        <ele>182.6</ele>
        <time>2021-08-10T11:26:04Z</time>
      </trkpt>
      <trkpt lat="48.24039" lon="-3.38119">
        <ele>182.6</ele>
        <time>2021-08-10T11:26:05Z</time>
      </trkpt>
      <trkpt lat="48.24038" lon="-3.38125">
        <ele>182.6</ele>
        <time>2021-08-10T11:26:06Z</time>
      </trkpt>
      <trkpt lat="48.24038" lon="-3.38131">
        <ele>182.6</ele>
        <time>2021-08-10T11:26:07Z</time>
      </trkpt>
      <trkpt lat="48.24038" lon="-3.38137">
        <ele>182.6</ele>
        <time>2021-08-10T11:26:08Z</time>
      </trkpt>
      <trkpt lat="48.24037" lon="-3.38142">
        <ele>182.6</ele>
        <time>2021-08-10T11:26:09Z</time>
      </trkpt>
      <trkpt lat="48.24036" lon="-3.38148">
        <ele>182.8</ele>
        <time>2021-08-10T11:26:10Z</time>
      </trkpt>
      <trkpt lat="48.24036" lon="-3.38154">
        <ele>182.8</ele>
        <time>2021-08-10T11:26:11Z</time>
      </trkpt>
      <trkpt lat="48.24035" lon="-3.3816">
        <ele>182.8</ele>
        <time>2021-08-10T11:26:12Z</time>
      </trkpt>
      <trkpt lat="48.24033" lon="-3.38166">
        <ele>182.8</ele>
        <time>2021-08-10T11:26:13Z</time>
      </trkpt>
      <trkpt lat="48.24032" lon="-3.38173">
        <ele>182.8</ele>
        <time>2021-08-10T11:26:14Z</time>
      </trkpt>
      <trkpt lat="48.24031" lon="-3.38179">
        <ele>182.8</ele>
        <time>2021-08-10T11:26:15Z</time>
      </trkpt>
      <trkpt lat="48.2403" lon="-3.38186">
        <ele>182.8</ele>
        <time>2021-08-10T11:26:16Z</time>
      </trkpt>
      <trkpt lat="48.2403" lon="-3.38191">
        <ele>182.6</ele>
        <time>2021-08-10T11:26:17Z</time>
      </trkpt>
      <trkpt lat="48.24031" lon="-3.38197">
        <ele>182.6</ele>
        <time>2021-08-10T11:26:18Z</time>
      </trkpt>
      <trkpt lat="48.2403" lon="-3.38203">
        <ele>182.6</ele>
        <time>2021-08-10T11:26:19Z</time>
      </trkpt>
      <trkpt lat="48.2403" lon="-3.38209">
        <ele>182.6</ele>
        <time>2021-08-10T11:26:20Z</time>
      </trkpt>
      <trkpt lat="48.24029" lon="-3.38215">
        <ele>182.6</ele>
        <time>2021-08-10T11:26:21Z</time>
      </trkpt>
      <trkpt lat="48.24029" lon="-3.38222">
        <ele>182.6</ele>
        <time>2021-08-10T11:26:22Z</time>
      </trkpt>
      <trkpt lat="48.24029" lon="-3.38228">
        <ele>182.6</ele>
        <time>2021-08-10T11:26:23Z</time>
      </trkpt>
      <trkpt lat="48.24028" lon="-3.38235">
        <ele>182.6</ele>
        <time>2021-08-10T11:26:24Z</time>
      </trkpt>
      <trkpt lat="48.24028" lon="-3.38241">
        <ele>182.8</ele>
        <time>2021-08-10T11:26:25Z</time>
      </trkpt>
      <trkpt lat="48.24027" lon="-3.38246">
        <ele>182.8</ele>
        <time>2021-08-10T11:26:26Z</time>
      </trkpt>
      <trkpt lat="48.24027" lon="-3.38251">
        <ele>182.8</ele>
        <time>2021-08-10T11:26:27Z</time>
      </trkpt>
      <trkpt lat="48.24026" lon="-3.38257">
        <ele>182.8</ele>
        <time>2021-08-10T11:26:28Z</time>
      </trkpt>
      <trkpt lat="48.24026" lon="-3.38262">
        <ele>182.8</ele>
        <time>2021-08-10T11:26:29Z</time>
      </trkpt>
      <trkpt lat="48.24026" lon="-3.38268">
        <ele>182.8</ele>
        <time>2021-08-10T11:26:30Z</time>
      </trkpt>
      <trkpt lat="48.24026" lon="-3.38272">
        <ele>182.8</ele>
        <time>2021-08-10T11:26:31Z</time>
      </trkpt>
      <trkpt lat="48.24025" lon="-3.38278">
        <ele>182.8</ele>
        <time>2021-08-10T11:26:32Z</time>
      </trkpt>
      <trkpt lat="48.24024" lon="-3.38283">
        <ele>182.8</ele>
        <time>2021-08-10T11:26:33Z</time>
      </trkpt>
      <trkpt lat="48.24023" lon="-3.38289">
        <ele>183</ele>
        <time>2021-08-10T11:26:34Z</time>
      </trkpt>
      <trkpt lat="48.24023" lon="-3.38295">
        <ele>183</ele>
        <time>2021-08-10T11:26:35Z</time>
      </trkpt>
      <trkpt lat="48.24023" lon="-3.383">
        <ele>183</ele>
        <time>2021-08-10T11:26:36Z</time>
      </trkpt>
      <trkpt lat="48.24024" lon="-3.38305">
        <ele>183</ele>
        <time>2021-08-10T11:26:37Z</time>
      </trkpt>
      <trkpt lat="48.24023" lon="-3.38311">
        <ele>183.2</ele>
        <time>2021-08-10T11:26:38Z</time>
      </trkpt>
      <trkpt lat="48.24022" lon="-3.38317">
        <ele>183.2</ele>
        <time>2021-08-10T11:26:39Z</time>
      </trkpt>
      <trkpt lat="48.24021" lon="-3.38323">
        <ele>183.2</ele>
        <time>2021-08-10T11:26:40Z</time>
      </trkpt>
      <trkpt lat="48.24021" lon="-3.38329">
        <ele>183.2</ele>
        <time>2021-08-10T11:26:41Z</time>
      </trkpt>
      <trkpt lat="48.2402" lon="-3.38336">
        <ele>183.2</ele>
        <time>2021-08-10T11:26:42Z</time>
      </trkpt>
      <trkpt lat="48.24019" lon="-3.38342">
        <ele>183.4</ele>
        <time>2021-08-10T11:26:43Z</time>
      </trkpt>
      <trkpt lat="48.24019" lon="-3.38348">
        <ele>183.4</ele>
        <time>2021-08-10T11:26:44Z</time>
      </trkpt>
      <trkpt lat="48.24019" lon="-3.38354">
        <ele>183.4</ele>
        <time>2021-08-10T11:26:45Z</time>
      </trkpt>
      <trkpt lat="48.24018" lon="-3.38359">
        <ele>183.4</ele>
        <time>2021-08-10T11:26:46Z</time>
      </trkpt>
      <trkpt lat="48.24017" lon="-3.38365">
        <ele>183.6</ele>
        <time>2021-08-10T11:26:47Z</time>
      </trkpt>
      <trkpt lat="48.24016" lon="-3.38371">
        <ele>183.6</ele>
        <time>2021-08-10T11:26:48Z</time>
      </trkpt>
      <trkpt lat="48.24016" lon="-3.38377">
        <ele>183.6</ele>
        <time>2021-08-10T11:26:49Z</time>
      </trkpt>
      <trkpt lat="48.24016" lon="-3.38383">
        <ele>183.6</ele>
        <time>2021-08-10T11:26:50Z</time>
      </trkpt>
      <trkpt lat="48.24015" lon="-3.3839">
        <ele>183.6</ele>
        <time>2021-08-10T11:26:51Z</time>
      </trkpt>
      <trkpt lat="48.24014" lon="-3.38398">
        <ele>183.6</ele>
        <time>2021-08-10T11:26:52Z</time>
      </trkpt>
      <trkpt lat="48.24014" lon="-3.38405">
        <ele>183.6</ele>
        <time>2021-08-10T11:26:53Z</time>
      </trkpt>
      <trkpt lat="48.24013" lon="-3.38412">
        <ele>183.4</ele>
        <time>2021-08-10T11:26:54Z</time>
      </trkpt>
      <trkpt lat="48.24012" lon="-3.3842">
        <ele>183.4</ele>
        <time>2021-08-10T11:26:55Z</time>
      </trkpt>
      <trkpt lat="48.24011" lon="-3.38428">
        <ele>183.6</ele>
        <time>2021-08-10T11:26:56Z</time>
      </trkpt>
      <trkpt lat="48.24011" lon="-3.38435">
        <ele>183.6</ele>
        <time>2021-08-10T11:26:57Z</time>
      </trkpt>
      <trkpt lat="48.2401" lon="-3.38442">
        <ele>183.6</ele>
        <time>2021-08-10T11:26:58Z</time>
      </trkpt>
      <trkpt lat="48.2401" lon="-3.38449">
        <ele>183.6</ele>
        <time>2021-08-10T11:26:59Z</time>
      </trkpt>
      <trkpt lat="48.24009" lon="-3.38456">
        <ele>183.4</ele>
        <time>2021-08-10T11:27:00Z</time>
      </trkpt>
      <trkpt lat="48.24008" lon="-3.38463">
        <ele>183.4</ele>
        <time>2021-08-10T11:27:01Z</time>
      </trkpt>
      <trkpt lat="48.24008" lon="-3.38469">
        <ele>183.6</ele>
        <time>2021-08-10T11:27:02Z</time>
      </trkpt>
      <trkpt lat="48.24007" lon="-3.38477">
        <ele>183.6</ele>
        <time>2021-08-10T11:27:03Z</time>
      </trkpt>
      <trkpt lat="48.24006" lon="-3.38484">
        <ele>183.6</ele>
        <time>2021-08-10T11:27:04Z</time>
      </trkpt>
      <trkpt lat="48.24006" lon="-3.3849">
        <ele>183.6</ele>
        <time>2021-08-10T11:27:05Z</time>
      </trkpt>
      <trkpt lat="48.24005" lon="-3.38498">
        <ele>183.6</ele>
        <time>2021-08-10T11:27:06Z</time>
      </trkpt>
      <trkpt lat="48.24005" lon="-3.38505">
        <ele>183.6</ele>
        <time>2021-08-10T11:27:07Z</time>
      </trkpt>
      <trkpt lat="48.24005" lon="-3.38512">
        <ele>183.6</ele>
        <time>2021-08-10T11:27:08Z</time>
      </trkpt>
      <trkpt lat="48.24005" lon="-3.38518">
        <ele>183.6</ele>
        <time>2021-08-10T11:27:09Z</time>
      </trkpt>
      <trkpt lat="48.24005" lon="-3.38525">
        <ele>183.6</ele>
        <time>2021-08-10T11:27:10Z</time>
      </trkpt>
      <trkpt lat="48.24005" lon="-3.38532">
        <ele>183.6</ele>
        <time>2021-08-10T11:27:11Z</time>
      </trkpt>
      <trkpt lat="48.24004" lon="-3.38539">
        <ele>183.6</ele>
        <time>2021-08-10T11:27:12Z</time>
      </trkpt>
      <trkpt lat="48.24003" lon="-3.38545">
        <ele>183.6</ele>
        <time>2021-08-10T11:27:13Z</time>
      </trkpt>
      <trkpt lat="48.24003" lon="-3.38551">
        <ele>183.6</ele>
        <time>2021-08-10T11:27:14Z</time>
      </trkpt>
      <trkpt lat="48.24002" lon="-3.38557">
        <ele>183.8</ele>
        <time>2021-08-10T11:27:15Z</time>
      </trkpt>
      <trkpt lat="48.24002" lon="-3.38563">
        <ele>183.8</ele>
        <time>2021-08-10T11:27:16Z</time>
      </trkpt>
      <trkpt lat="48.24001" lon="-3.38569">
        <ele>183.8</ele>
        <time>2021-08-10T11:27:17Z</time>
      </trkpt>
      <trkpt lat="48.24002" lon="-3.38575">
        <ele>183.8</ele>
        <time>2021-08-10T11:27:18Z</time>
      </trkpt>
      <trkpt lat="48.24002" lon="-3.3858">
        <ele>183.8</ele>
        <time>2021-08-10T11:27:19Z</time>
      </trkpt>
      <trkpt lat="48.24002" lon="-3.38586">
        <ele>183.8</ele>
        <time>2021-08-10T11:27:20Z</time>
      </trkpt>
      <trkpt lat="48.24002" lon="-3.38591">
        <ele>183.8</ele>
        <time>2021-08-10T11:27:21Z</time>
      </trkpt>
      <trkpt lat="48.24002" lon="-3.38597">
        <ele>183.8</ele>
        <time>2021-08-10T11:27:22Z</time>
      </trkpt>
      <trkpt lat="48.24001" lon="-3.38602">
        <ele>183.8</ele>
        <time>2021-08-10T11:27:23Z</time>
      </trkpt>
      <trkpt lat="48.24001" lon="-3.38608">
        <ele>183.8</ele>
        <time>2021-08-10T11:27:24Z</time>
      </trkpt>
      <trkpt lat="48.24001" lon="-3.38615">
        <ele>183.6</ele>
        <time>2021-08-10T11:27:25Z</time>
      </trkpt>
      <trkpt lat="48.24" lon="-3.38621">
        <ele>183.6</ele>
        <time>2021-08-10T11:27:26Z</time>
      </trkpt>
      <trkpt lat="48.24" lon="-3.38627">
        <ele>183.6</ele>
        <time>2021-08-10T11:27:27Z</time>
      </trkpt>
      <trkpt lat="48.24" lon="-3.38632">
        <ele>183.6</ele>
        <time>2021-08-10T11:27:28Z</time>
      </trkpt>
      <trkpt lat="48.23999" lon="-3.38637">
        <ele>183.6</ele>
        <time>2021-08-10T11:27:29Z</time>
      </trkpt>
      <trkpt lat="48.23999" lon="-3.38642">
        <ele>183.6</ele>
        <time>2021-08-10T11:27:30Z</time>
      </trkpt>
      <trkpt lat="48.23999" lon="-3.38646">
        <ele>183.6</ele>
        <time>2021-08-10T11:27:31Z</time>
      </trkpt>
      <trkpt lat="48.23999" lon="-3.38651">
        <ele>183.6</ele>
        <time>2021-08-10T11:27:32Z</time>
      </trkpt>
      <trkpt lat="48.23999" lon="-3.38656">
        <ele>183.6</ele>
        <time>2021-08-10T11:27:33Z</time>
      </trkpt>
      <trkpt lat="48.23998" lon="-3.38662">
        <ele>183.6</ele>
        <time>2021-08-10T11:27:34Z</time>
      </trkpt>
      <trkpt lat="48.23997" lon="-3.38668">
        <ele>183.4</ele>
        <time>2021-08-10T11:27:35Z</time>
      </trkpt>
      <trkpt lat="48.23996" lon="-3.38674">
        <ele>183.4</ele>
        <time>2021-08-10T11:27:36Z</time>
      </trkpt>
      <trkpt lat="48.23995" lon="-3.38681">
        <ele>183.4</ele>
        <time>2021-08-10T11:27:37Z</time>
      </trkpt>
      <trkpt lat="48.23994" lon="-3.38688">
        <ele>183.4</ele>
        <time>2021-08-10T11:27:38Z</time>
      </trkpt>
      <trkpt lat="48.23994" lon="-3.38695">
        <ele>183.2</ele>
        <time>2021-08-10T11:27:39Z</time>
      </trkpt>
      <trkpt lat="48.23993" lon="-3.38701">
        <ele>183.2</ele>
        <time>2021-08-10T11:27:40Z</time>
      </trkpt>
      <trkpt lat="48.23993" lon="-3.38708">
        <ele>183.2</ele>
        <time>2021-08-10T11:27:41Z</time>
      </trkpt>
      <trkpt lat="48.23993" lon="-3.38715">
        <ele>183</ele>
        <time>2021-08-10T11:27:42Z</time>
      </trkpt>
      <trkpt lat="48.23992" lon="-3.3872">
        <ele>182.8</ele>
        <time>2021-08-10T11:27:43Z</time>
      </trkpt>
      <trkpt lat="48.23992" lon="-3.38727">
        <ele>182.8</ele>
        <time>2021-08-10T11:27:44Z</time>
      </trkpt>
      <trkpt lat="48.23991" lon="-3.38733">
        <ele>182.8</ele>
        <time>2021-08-10T11:27:45Z</time>
      </trkpt>
      <trkpt lat="48.23991" lon="-3.38739">
        <ele>182.8</ele>
        <time>2021-08-10T11:27:46Z</time>
      </trkpt>
      <trkpt lat="48.2399" lon="-3.38745">
        <ele>182.8</ele>
        <time>2021-08-10T11:27:47Z</time>
      </trkpt>
      <trkpt lat="48.2399" lon="-3.38751">
        <ele>182.8</ele>
        <time>2021-08-10T11:27:48Z</time>
      </trkpt>
      <trkpt lat="48.23989" lon="-3.38758">
        <ele>182.8</ele>
        <time>2021-08-10T11:27:49Z</time>
      </trkpt>
      <trkpt lat="48.23989" lon="-3.38764">
        <ele>182.8</ele>
        <time>2021-08-10T11:27:50Z</time>
      </trkpt>
      <trkpt lat="48.23989" lon="-3.3877">
        <ele>182.8</ele>
        <time>2021-08-10T11:27:51Z</time>
      </trkpt>
      <trkpt lat="48.23989" lon="-3.38776">
        <ele>182.8</ele>
        <time>2021-08-10T11:27:52Z</time>
      </trkpt>
      <trkpt lat="48.23988" lon="-3.38782">
        <ele>182.8</ele>
        <time>2021-08-10T11:27:53Z</time>
      </trkpt>
      <trkpt lat="48.23988" lon="-3.38788">
        <ele>182.8</ele>
        <time>2021-08-10T11:27:54Z</time>
      </trkpt>
      <trkpt lat="48.23988" lon="-3.38794">
        <ele>182.8</ele>
        <time>2021-08-10T11:27:55Z</time>
      </trkpt>
      <trkpt lat="48.23987" lon="-3.38801">
        <ele>182.8</ele>
        <time>2021-08-10T11:27:56Z</time>
      </trkpt>
      <trkpt lat="48.23986" lon="-3.38808">
        <ele>182.8</ele>
        <time>2021-08-10T11:27:57Z</time>
      </trkpt>
      <trkpt lat="48.23986" lon="-3.38814">
        <ele>182.8</ele>
        <time>2021-08-10T11:27:58Z</time>
      </trkpt>
      <trkpt lat="48.23985" lon="-3.38822">
        <ele>183</ele>
        <time>2021-08-10T11:27:59Z</time>
      </trkpt>
      <trkpt lat="48.23984" lon="-3.38829">
        <ele>183</ele>
        <time>2021-08-10T11:28:00Z</time>
      </trkpt>
      <trkpt lat="48.23984" lon="-3.38836">
        <ele>183</ele>
        <time>2021-08-10T11:28:01Z</time>
      </trkpt>
      <trkpt lat="48.23983" lon="-3.38842">
        <ele>183</ele>
        <time>2021-08-10T11:28:02Z</time>
      </trkpt>
      <trkpt lat="48.23983" lon="-3.3885">
        <ele>183</ele>
        <time>2021-08-10T11:28:03Z</time>
      </trkpt>
      <trkpt lat="48.23981" lon="-3.38857">
        <ele>183</ele>
        <time>2021-08-10T11:28:04Z</time>
      </trkpt>
      <trkpt lat="48.2398" lon="-3.38864">
        <ele>183</ele>
        <time>2021-08-10T11:28:05Z</time>
      </trkpt>
      <trkpt lat="48.2398" lon="-3.38871">
        <ele>183</ele>
        <time>2021-08-10T11:28:06Z</time>
      </trkpt>
      <trkpt lat="48.23979" lon="-3.38878">
        <ele>183</ele>
        <time>2021-08-10T11:28:07Z</time>
      </trkpt>
      <trkpt lat="48.23978" lon="-3.38884">
        <ele>183</ele>
        <time>2021-08-10T11:28:08Z</time>
      </trkpt>
      <trkpt lat="48.23977" lon="-3.38891">
        <ele>183</ele>
        <time>2021-08-10T11:28:09Z</time>
      </trkpt>
      <trkpt lat="48.23976" lon="-3.38897">
        <ele>183</ele>
        <time>2021-08-10T11:28:10Z</time>
      </trkpt>
      <trkpt lat="48.23975" lon="-3.38903">
        <ele>183</ele>
        <time>2021-08-10T11:28:11Z</time>
      </trkpt>
      <trkpt lat="48.23974" lon="-3.38909">
        <ele>183</ele>
        <time>2021-08-10T11:28:12Z</time>
      </trkpt>
      <trkpt lat="48.23973" lon="-3.38915">
        <ele>183</ele>
        <time>2021-08-10T11:28:13Z</time>
      </trkpt>
      <trkpt lat="48.23972" lon="-3.3892">
        <ele>183</ele>
        <time>2021-08-10T11:28:14Z</time>
      </trkpt>
      <trkpt lat="48.23971" lon="-3.38925">
        <ele>182.8</ele>
        <time>2021-08-10T11:28:15Z</time>
      </trkpt>
      <trkpt lat="48.2397" lon="-3.38931">
        <ele>182.8</ele>
        <time>2021-08-10T11:28:16Z</time>
      </trkpt>
      <trkpt lat="48.23969" lon="-3.38937">
        <ele>182.8</ele>
        <time>2021-08-10T11:28:17Z</time>
      </trkpt>
      <trkpt lat="48.23968" lon="-3.38943">
        <ele>182.8</ele>
        <time>2021-08-10T11:28:18Z</time>
      </trkpt>
      <trkpt lat="48.23967" lon="-3.38949">
        <ele>182.8</ele>
        <time>2021-08-10T11:28:19Z</time>
      </trkpt>
      <trkpt lat="48.23965" lon="-3.38956">
        <ele>182.8</ele>
        <time>2021-08-10T11:28:20Z</time>
      </trkpt>
      <trkpt lat="48.23963" lon="-3.38962">
        <ele>182.8</ele>
        <time>2021-08-10T11:28:21Z</time>
      </trkpt>
      <trkpt lat="48.2396" lon="-3.38968">
        <ele>182.8</ele>
        <time>2021-08-10T11:28:22Z</time>
      </trkpt>
      <trkpt lat="48.23958" lon="-3.38973">
        <ele>182.8</ele>
        <time>2021-08-10T11:28:23Z</time>
      </trkpt>
      <trkpt lat="48.23957" lon="-3.3898">
        <ele>182.6</ele>
        <time>2021-08-10T11:28:24Z</time>
      </trkpt>
      <trkpt lat="48.23955" lon="-3.38986">
        <ele>182.6</ele>
        <time>2021-08-10T11:28:25Z</time>
      </trkpt>
      <trkpt lat="48.23954" lon="-3.38991">
        <ele>182.6</ele>
        <time>2021-08-10T11:28:26Z</time>
      </trkpt>
      <trkpt lat="48.23952" lon="-3.38996">
        <ele>182.8</ele>
        <time>2021-08-10T11:28:27Z</time>
      </trkpt>
      <trkpt lat="48.23951" lon="-3.39001">
        <ele>182.8</ele>
        <time>2021-08-10T11:28:28Z</time>
      </trkpt>
      <trkpt lat="48.23948" lon="-3.39006">
        <ele>182.8</ele>
        <time>2021-08-10T11:28:29Z</time>
      </trkpt>
      <trkpt lat="48.23946" lon="-3.39012">
        <ele>182.8</ele>
        <time>2021-08-10T11:28:30Z</time>
      </trkpt>
      <trkpt lat="48.23944" lon="-3.39017">
        <ele>182.8</ele>
        <time>2021-08-10T11:28:31Z</time>
      </trkpt>
      <trkpt lat="48.23942" lon="-3.39022">
        <ele>182.8</ele>
        <time>2021-08-10T11:28:32Z</time>
      </trkpt>
      <trkpt lat="48.2394" lon="-3.39026">
        <ele>182.8</ele>
        <time>2021-08-10T11:28:33Z</time>
      </trkpt>
      <trkpt lat="48.23938" lon="-3.39031">
        <ele>182.8</ele>
        <time>2021-08-10T11:28:34Z</time>
      </trkpt>
      <trkpt lat="48.23936" lon="-3.39035">
        <ele>182.8</ele>
        <time>2021-08-10T11:28:35Z</time>
      </trkpt>
      <trkpt lat="48.23934" lon="-3.39038">
        <ele>183</ele>
        <time>2021-08-10T11:28:36Z</time>
      </trkpt>
      <trkpt lat="48.23933" lon="-3.39042">
        <ele>183</ele>
        <time>2021-08-10T11:28:37Z</time>
      </trkpt>
      <trkpt lat="48.23931" lon="-3.39047">
        <ele>183</ele>
        <time>2021-08-10T11:28:38Z</time>
      </trkpt>
      <trkpt lat="48.23929" lon="-3.39052">
        <ele>183.2</ele>
        <time>2021-08-10T11:28:39Z</time>
      </trkpt>
      <trkpt lat="48.23926" lon="-3.39057">
        <ele>183.2</ele>
        <time>2021-08-10T11:28:40Z</time>
      </trkpt>
      <trkpt lat="48.23924" lon="-3.39062">
        <ele>183.2</ele>
        <time>2021-08-10T11:28:41Z</time>
      </trkpt>
      <trkpt lat="48.23922" lon="-3.39067">
        <ele>183.2</ele>
        <time>2021-08-10T11:28:42Z</time>
      </trkpt>
      <trkpt lat="48.2392" lon="-3.39072">
        <ele>183.2</ele>
        <time>2021-08-10T11:28:43Z</time>
      </trkpt>
      <trkpt lat="48.23917" lon="-3.39077">
        <ele>183.2</ele>
        <time>2021-08-10T11:28:44Z</time>
      </trkpt>
      <trkpt lat="48.23914" lon="-3.39082">
        <ele>183.2</ele>
        <time>2021-08-10T11:28:45Z</time>
      </trkpt>
      <trkpt lat="48.23912" lon="-3.39086">
        <ele>183.2</ele>
        <time>2021-08-10T11:28:46Z</time>
      </trkpt>
      <trkpt lat="48.2391" lon="-3.39089">
        <ele>183.2</ele>
        <time>2021-08-10T11:28:47Z</time>
      </trkpt>
      <trkpt lat="48.23908" lon="-3.39093">
        <ele>183</ele>
        <time>2021-08-10T11:28:48Z</time>
      </trkpt>
      <trkpt lat="48.23907" lon="-3.39096">
        <ele>183</ele>
        <time>2021-08-10T11:28:49Z</time>
      </trkpt>
      <trkpt lat="48.23906" lon="-3.39099">
        <ele>183</ele>
        <time>2021-08-10T11:28:50Z</time>
      </trkpt>
      <trkpt lat="48.23905" lon="-3.39102">
        <ele>183</ele>
        <time>2021-08-10T11:28:51Z</time>
      </trkpt>
      <trkpt lat="48.23903" lon="-3.39105">
        <ele>183</ele>
        <time>2021-08-10T11:28:52Z</time>
      </trkpt>
      <trkpt lat="48.23901" lon="-3.39108">
        <ele>183</ele>
        <time>2021-08-10T11:28:53Z</time>
      </trkpt>
      <trkpt lat="48.239" lon="-3.39112">
        <ele>183</ele>
        <time>2021-08-10T11:28:54Z</time>
      </trkpt>
      <trkpt lat="48.23899" lon="-3.39116">
        <ele>183</ele>
        <time>2021-08-10T11:28:55Z</time>
      </trkpt>
      <trkpt lat="48.23897" lon="-3.3912">
        <ele>183</ele>
        <time>2021-08-10T11:28:56Z</time>
      </trkpt>
      <trkpt lat="48.23895" lon="-3.39125">
        <ele>183</ele>
        <time>2021-08-10T11:28:57Z</time>
      </trkpt>
      <trkpt lat="48.23893" lon="-3.39129">
        <ele>183</ele>
        <time>2021-08-10T11:28:58Z</time>
      </trkpt>
      <trkpt lat="48.23891" lon="-3.39133">
        <ele>183</ele>
        <time>2021-08-10T11:28:59Z</time>
      </trkpt>
      <trkpt lat="48.23889" lon="-3.39137">
        <ele>183</ele>
        <time>2021-08-10T11:29:00Z</time>
      </trkpt>
      <trkpt lat="48.23887" lon="-3.39141">
        <ele>183</ele>
        <time>2021-08-10T11:29:01Z</time>
      </trkpt>
      <trkpt lat="48.23884" lon="-3.39145">
        <ele>183</ele>
        <time>2021-08-10T11:29:02Z</time>
      </trkpt>
      <trkpt lat="48.23883" lon="-3.39148">
        <ele>183</ele>
        <time>2021-08-10T11:29:03Z</time>
      </trkpt>
      <trkpt lat="48.23881" lon="-3.39151">
        <ele>183</ele>
        <time>2021-08-10T11:29:04Z</time>
      </trkpt>
      <trkpt lat="48.2388" lon="-3.39155">
        <ele>183</ele>
        <time>2021-08-10T11:29:05Z</time>
      </trkpt>
      <trkpt lat="48.23878" lon="-3.39158">
        <ele>183</ele>
        <time>2021-08-10T11:29:06Z</time>
      </trkpt>
      <trkpt lat="48.23876" lon="-3.39161">
        <ele>183</ele>
        <time>2021-08-10T11:29:07Z</time>
      </trkpt>
      <trkpt lat="48.23875" lon="-3.39165">
        <ele>183.2</ele>
        <time>2021-08-10T11:29:08Z</time>
      </trkpt>
      <trkpt lat="48.23873" lon="-3.39169">
        <ele>183.2</ele>
        <time>2021-08-10T11:29:09Z</time>
      </trkpt>
      <trkpt lat="48.23871" lon="-3.39173">
        <ele>183.2</ele>
        <time>2021-08-10T11:29:10Z</time>
      </trkpt>
      <trkpt lat="48.23869" lon="-3.39178">
        <ele>183.2</ele>
        <time>2021-08-10T11:29:11Z</time>
      </trkpt>
      <trkpt lat="48.23867" lon="-3.39182">
        <ele>183.2</ele>
        <time>2021-08-10T11:29:12Z</time>
      </trkpt>
      <trkpt lat="48.23865" lon="-3.39187">
        <ele>183.2</ele>
        <time>2021-08-10T11:29:13Z</time>
      </trkpt>
      <trkpt lat="48.23863" lon="-3.39191">
        <ele>183.2</ele>
        <time>2021-08-10T11:29:14Z</time>
      </trkpt>
      <trkpt lat="48.23861" lon="-3.39197">
        <ele>183.2</ele>
        <time>2021-08-10T11:29:15Z</time>
      </trkpt>
      <trkpt lat="48.2386" lon="-3.39203">
        <ele>183.2</ele>
        <time>2021-08-10T11:29:16Z</time>
      </trkpt>
      <trkpt lat="48.23857" lon="-3.39208">
        <ele>183.2</ele>
        <time>2021-08-10T11:29:17Z</time>
      </trkpt>
      <trkpt lat="48.23854" lon="-3.39214">
        <ele>183.2</ele>
        <time>2021-08-10T11:29:18Z</time>
      </trkpt>
      <trkpt lat="48.23851" lon="-3.3922">
        <ele>183.2</ele>
        <time>2021-08-10T11:29:19Z</time>
      </trkpt>
      <trkpt lat="48.23849" lon="-3.39225">
        <ele>183.2</ele>
        <time>2021-08-10T11:29:20Z</time>
      </trkpt>
      <trkpt lat="48.23847" lon="-3.3923">
        <ele>183.2</ele>
        <time>2021-08-10T11:29:21Z</time>
      </trkpt>
      <trkpt lat="48.23843" lon="-3.39235">
        <ele>183.2</ele>
        <time>2021-08-10T11:29:22Z</time>
      </trkpt>
      <trkpt lat="48.2384" lon="-3.39241">
        <ele>183.2</ele>
        <time>2021-08-10T11:29:23Z</time>
      </trkpt>
      <trkpt lat="48.23837" lon="-3.39247">
        <ele>183.2</ele>
        <time>2021-08-10T11:29:24Z</time>
      </trkpt>
      <trkpt lat="48.23834" lon="-3.39252">
        <ele>183.2</ele>
        <time>2021-08-10T11:29:25Z</time>
      </trkpt>
      <trkpt lat="48.23832" lon="-3.39258">
        <ele>183.2</ele>
        <time>2021-08-10T11:29:26Z</time>
      </trkpt>
      <trkpt lat="48.23829" lon="-3.39262">
        <ele>183</ele>
        <time>2021-08-10T11:29:27Z</time>
      </trkpt>
      <trkpt lat="48.23828" lon="-3.39266">
        <ele>183</ele>
        <time>2021-08-10T11:29:28Z</time>
      </trkpt>
      <trkpt lat="48.23826" lon="-3.39271">
        <ele>183</ele>
        <time>2021-08-10T11:29:29Z</time>
      </trkpt>
      <trkpt lat="48.23824" lon="-3.39276">
        <ele>183</ele>
        <time>2021-08-10T11:29:30Z</time>
      </trkpt>
      <trkpt lat="48.23822" lon="-3.3928">
        <ele>183</ele>
        <time>2021-08-10T11:29:31Z</time>
      </trkpt>
      <trkpt lat="48.2382" lon="-3.39285">
        <ele>183</ele>
        <time>2021-08-10T11:29:32Z</time>
      </trkpt>
      <trkpt lat="48.23819" lon="-3.39288">
        <ele>183</ele>
        <time>2021-08-10T11:29:33Z</time>
      </trkpt>
      <trkpt lat="48.23818" lon="-3.39291">
        <ele>183</ele>
        <time>2021-08-10T11:29:34Z</time>
      </trkpt>
      <trkpt lat="48.23816" lon="-3.39295">
        <ele>183</ele>
        <time>2021-08-10T11:29:35Z</time>
      </trkpt>
      <trkpt lat="48.23814" lon="-3.393">
        <ele>183</ele>
        <time>2021-08-10T11:29:36Z</time>
      </trkpt>
      <trkpt lat="48.23812" lon="-3.39305">
        <ele>183</ele>
        <time>2021-08-10T11:29:37Z</time>
      </trkpt>
      <trkpt lat="48.2381" lon="-3.39311">
        <ele>183</ele>
        <time>2021-08-10T11:29:38Z</time>
      </trkpt>
      <trkpt lat="48.23808" lon="-3.39317">
        <ele>183</ele>
        <time>2021-08-10T11:29:39Z</time>
      </trkpt>
      <trkpt lat="48.23804" lon="-3.39323">
        <ele>183</ele>
        <time>2021-08-10T11:29:40Z</time>
      </trkpt>
      <trkpt lat="48.23801" lon="-3.39329">
        <ele>183</ele>
        <time>2021-08-10T11:29:41Z</time>
      </trkpt>
      <trkpt lat="48.23798" lon="-3.39334">
        <ele>183</ele>
        <time>2021-08-10T11:29:42Z</time>
      </trkpt>
      <trkpt lat="48.23796" lon="-3.39339">
        <ele>183</ele>
        <time>2021-08-10T11:29:43Z</time>
      </trkpt>
      <trkpt lat="48.23793" lon="-3.39344">
        <ele>183.2</ele>
        <time>2021-08-10T11:29:44Z</time>
      </trkpt>
      <trkpt lat="48.2379" lon="-3.3935">
        <ele>183.2</ele>
        <time>2021-08-10T11:29:45Z</time>
      </trkpt>
      <trkpt lat="48.23787" lon="-3.39356">
        <ele>183.2</ele>
        <time>2021-08-10T11:29:46Z</time>
      </trkpt>
      <trkpt lat="48.23784" lon="-3.39363">
        <ele>183.2</ele>
        <time>2021-08-10T11:29:47Z</time>
      </trkpt>
      <trkpt lat="48.23781" lon="-3.39369">
        <ele>183.2</ele>
        <time>2021-08-10T11:29:48Z</time>
      </trkpt>
      <trkpt lat="48.23778" lon="-3.39374">
        <ele>183.4</ele>
        <time>2021-08-10T11:29:49Z</time>
      </trkpt>
      <trkpt lat="48.23776" lon="-3.39379">
        <ele>183.4</ele>
        <time>2021-08-10T11:29:50Z</time>
      </trkpt>
      <trkpt lat="48.23774" lon="-3.39384">
        <ele>183.4</ele>
        <time>2021-08-10T11:29:51Z</time>
      </trkpt>
      <trkpt lat="48.23773" lon="-3.39387">
        <ele>183.2</ele>
        <time>2021-08-10T11:29:52Z</time>
      </trkpt>
      <trkpt lat="48.23771" lon="-3.3939">
        <ele>183.4</ele>
        <time>2021-08-10T11:29:53Z</time>
      </trkpt>
      <trkpt lat="48.2377" lon="-3.39393">
        <ele>183.4</ele>
        <time>2021-08-10T11:29:54Z</time>
      </trkpt>
      <trkpt lat="48.23769" lon="-3.39396">
        <ele>183.4</ele>
        <time>2021-08-10T11:29:55Z</time>
      </trkpt>
      <trkpt lat="48.23768" lon="-3.39399">
        <ele>183.2</ele>
        <time>2021-08-10T11:29:56Z</time>
      </trkpt>
      <trkpt lat="48.23767" lon="-3.39402">
        <ele>183.2</ele>
        <time>2021-08-10T11:29:57Z</time>
      </trkpt>
      <trkpt lat="48.23765" lon="-3.39404">
        <ele>183.4</ele>
        <time>2021-08-10T11:29:58Z</time>
      </trkpt>
      <trkpt lat="48.23764" lon="-3.39407">
        <ele>183.4</ele>
        <time>2021-08-10T11:29:59Z</time>
      </trkpt>
      <trkpt lat="48.23763" lon="-3.3941">
        <ele>183.4</ele>
        <time>2021-08-10T11:30:00Z</time>
      </trkpt>
      <trkpt lat="48.23761" lon="-3.39413">
        <ele>183.4</ele>
        <time>2021-08-10T11:30:01Z</time>
      </trkpt>
      <trkpt lat="48.23759" lon="-3.39415">
        <ele>183.4</ele>
        <time>2021-08-10T11:30:02Z</time>
      </trkpt>
      <trkpt lat="48.23758" lon="-3.39418">
        <ele>183.4</ele>
        <time>2021-08-10T11:30:03Z</time>
      </trkpt>
      <trkpt lat="48.23756" lon="-3.39421">
        <ele>183.4</ele>
        <time>2021-08-10T11:30:04Z</time>
      </trkpt>
      <trkpt lat="48.23754" lon="-3.39424">
        <ele>183.6</ele>
        <time>2021-08-10T11:30:05Z</time>
      </trkpt>
      <trkpt lat="48.23753" lon="-3.39426">
        <ele>183.6</ele>
        <time>2021-08-10T11:30:06Z</time>
      </trkpt>
      <trkpt lat="48.23751" lon="-3.39429">
        <ele>183.6</ele>
        <time>2021-08-10T11:30:07Z</time>
      </trkpt>
      <trkpt lat="48.2375" lon="-3.39432">
        <ele>183.6</ele>
        <time>2021-08-10T11:30:08Z</time>
      </trkpt>
      <trkpt lat="48.23749" lon="-3.39434">
        <ele>183.6</ele>
        <time>2021-08-10T11:30:09Z</time>
      </trkpt>
      <trkpt lat="48.23748" lon="-3.39437">
        <ele>183.6</ele>
        <time>2021-08-10T11:30:10Z</time>
      </trkpt>
      <trkpt lat="48.23747" lon="-3.39439">
        <ele>183.6</ele>
        <time>2021-08-10T11:30:11Z</time>
      </trkpt>
      <trkpt lat="48.23746" lon="-3.39442">
        <ele>183.6</ele>
        <time>2021-08-10T11:30:12Z</time>
      </trkpt>
      <trkpt lat="48.23744" lon="-3.39445">
        <ele>183.6</ele>
        <time>2021-08-10T11:30:13Z</time>
      </trkpt>
      <trkpt lat="48.23742" lon="-3.39448">
        <ele>183.6</ele>
        <time>2021-08-10T11:30:14Z</time>
      </trkpt>
      <trkpt lat="48.23741" lon="-3.39451">
        <ele>183.6</ele>
        <time>2021-08-10T11:30:15Z</time>
      </trkpt>
      <trkpt lat="48.23739" lon="-3.39453">
        <ele>183.6</ele>
        <time>2021-08-10T11:30:16Z</time>
      </trkpt>
      <trkpt lat="48.23737" lon="-3.39456">
        <ele>183.6</ele>
        <time>2021-08-10T11:30:17Z</time>
      </trkpt>
      <trkpt lat="48.23734" lon="-3.3946">
        <ele>183.6</ele>
        <time>2021-08-10T11:30:18Z</time>
      </trkpt>
      <trkpt lat="48.23732" lon="-3.39464">
        <ele>183.4</ele>
        <time>2021-08-10T11:30:19Z</time>
      </trkpt>
      <trkpt lat="48.2373" lon="-3.39469">
        <ele>183.6</ele>
        <time>2021-08-10T11:30:20Z</time>
      </trkpt>
      <trkpt lat="48.23728" lon="-3.39474">
        <ele>183.4</ele>
        <time>2021-08-10T11:30:21Z</time>
      </trkpt>
      <trkpt lat="48.23726" lon="-3.39479">
        <ele>183.4</ele>
        <time>2021-08-10T11:30:22Z</time>
      </trkpt>
      <trkpt lat="48.23723" lon="-3.39485">
        <ele>183.2</ele>
        <time>2021-08-10T11:30:23Z</time>
      </trkpt>
      <trkpt lat="48.23721" lon="-3.3949">
        <ele>183.2</ele>
        <time>2021-08-10T11:30:24Z</time>
      </trkpt>
      <trkpt lat="48.23719" lon="-3.39496">
        <ele>183.2</ele>
        <time>2021-08-10T11:30:25Z</time>
      </trkpt>
      <trkpt lat="48.23716" lon="-3.39502">
        <ele>183.2</ele>
        <time>2021-08-10T11:30:26Z</time>
      </trkpt>
      <trkpt lat="48.23714" lon="-3.39507">
        <ele>183</ele>
        <time>2021-08-10T11:30:27Z</time>
      </trkpt>
      <trkpt lat="48.23711" lon="-3.39512">
        <ele>183</ele>
        <time>2021-08-10T11:30:28Z</time>
      </trkpt>
      <trkpt lat="48.23709" lon="-3.39516">
        <ele>183</ele>
        <time>2021-08-10T11:30:29Z</time>
      </trkpt>
      <trkpt lat="48.23707" lon="-3.3952">
        <ele>183</ele>
        <time>2021-08-10T11:30:30Z</time>
      </trkpt>
      <trkpt lat="48.23706" lon="-3.39524">
        <ele>183</ele>
        <time>2021-08-10T11:30:31Z</time>
      </trkpt>
      <trkpt lat="48.23705" lon="-3.39527">
        <ele>183</ele>
        <time>2021-08-10T11:30:32Z</time>
      </trkpt>
      <trkpt lat="48.23704" lon="-3.3953">
        <ele>183</ele>
        <time>2021-08-10T11:30:33Z</time>
      </trkpt>
      <trkpt lat="48.23703" lon="-3.39533">
        <ele>183</ele>
        <time>2021-08-10T11:30:34Z</time>
      </trkpt>
      <trkpt lat="48.23701" lon="-3.39537">
        <ele>183</ele>
        <time>2021-08-10T11:30:35Z</time>
      </trkpt>
      <trkpt lat="48.237" lon="-3.39541">
        <ele>183</ele>
        <time>2021-08-10T11:30:36Z</time>
      </trkpt>
      <trkpt lat="48.23698" lon="-3.39547">
        <ele>183</ele>
        <time>2021-08-10T11:30:37Z</time>
      </trkpt>
      <trkpt lat="48.23696" lon="-3.39551">
        <ele>183</ele>
        <time>2021-08-10T11:30:38Z</time>
      </trkpt>
      <trkpt lat="48.23694" lon="-3.39556">
        <ele>183</ele>
        <time>2021-08-10T11:30:39Z</time>
      </trkpt>
      <trkpt lat="48.23691" lon="-3.39562">
        <ele>183</ele>
        <time>2021-08-10T11:30:40Z</time>
      </trkpt>
      <trkpt lat="48.23689" lon="-3.39567">
        <ele>183</ele>
        <time>2021-08-10T11:30:41Z</time>
      </trkpt>
      <trkpt lat="48.23687" lon="-3.39572">
        <ele>183</ele>
        <time>2021-08-10T11:30:42Z</time>
      </trkpt>
      <trkpt lat="48.23686" lon="-3.39578">
        <ele>183</ele>
        <time>2021-08-10T11:30:43Z</time>
      </trkpt>
      <trkpt lat="48.23684" lon="-3.39582">
        <ele>183</ele>
        <time>2021-08-10T11:30:44Z</time>
      </trkpt>
      <trkpt lat="48.23683" lon="-3.39587">
        <ele>183</ele>
        <time>2021-08-10T11:30:45Z</time>
      </trkpt>
      <trkpt lat="48.23681" lon="-3.39592">
        <ele>183</ele>
        <time>2021-08-10T11:30:46Z</time>
      </trkpt>
      <trkpt lat="48.23679" lon="-3.39596">
        <ele>183</ele>
        <time>2021-08-10T11:30:47Z</time>
      </trkpt>
      <trkpt lat="48.23677" lon="-3.396">
        <ele>183</ele>
        <time>2021-08-10T11:30:48Z</time>
      </trkpt>
      <trkpt lat="48.23675" lon="-3.39603">
        <ele>183</ele>
        <time>2021-08-10T11:30:49Z</time>
      </trkpt>
      <trkpt lat="48.23672" lon="-3.39608">
        <ele>183</ele>
        <time>2021-08-10T11:30:50Z</time>
      </trkpt>
      <trkpt lat="48.2367" lon="-3.39612">
        <ele>183</ele>
        <time>2021-08-10T11:30:51Z</time>
      </trkpt>
      <trkpt lat="48.23668" lon="-3.39617">
        <ele>183</ele>
        <time>2021-08-10T11:30:52Z</time>
      </trkpt>
      <trkpt lat="48.23665" lon="-3.39622">
        <ele>183</ele>
        <time>2021-08-10T11:30:53Z</time>
      </trkpt>
      <trkpt lat="48.23663" lon="-3.39627">
        <ele>183</ele>
        <time>2021-08-10T11:30:54Z</time>
      </trkpt>
      <trkpt lat="48.2366" lon="-3.39632">
        <ele>183</ele>
        <time>2021-08-10T11:30:55Z</time>
      </trkpt>
      <trkpt lat="48.23658" lon="-3.39637">
        <ele>183</ele>
        <time>2021-08-10T11:30:56Z</time>
      </trkpt>
      <trkpt lat="48.23656" lon="-3.39642">
        <ele>183</ele>
        <time>2021-08-10T11:30:57Z</time>
      </trkpt>
      <trkpt lat="48.23653" lon="-3.39647">
        <ele>182.8</ele>
        <time>2021-08-10T11:30:58Z</time>
      </trkpt>
      <trkpt lat="48.23651" lon="-3.39652">
        <ele>182.8</ele>
        <time>2021-08-10T11:30:59Z</time>
      </trkpt>
      <trkpt lat="48.23648" lon="-3.39657">
        <ele>182.6</ele>
        <time>2021-08-10T11:31:00Z</time>
      </trkpt>
      <trkpt lat="48.23646" lon="-3.39661">
        <ele>182.6</ele>
        <time>2021-08-10T11:31:01Z</time>
      </trkpt>
      <trkpt lat="48.23643" lon="-3.39666">
        <ele>182.6</ele>
        <time>2021-08-10T11:31:02Z</time>
      </trkpt>
      <trkpt lat="48.23641" lon="-3.39672">
        <ele>182.6</ele>
        <time>2021-08-10T11:31:03Z</time>
      </trkpt>
      <trkpt lat="48.23638" lon="-3.39677">
        <ele>182.6</ele>
        <time>2021-08-10T11:31:04Z</time>
      </trkpt>
      <trkpt lat="48.23635" lon="-3.39682">
        <ele>182.6</ele>
        <time>2021-08-10T11:31:05Z</time>
      </trkpt>
      <trkpt lat="48.23633" lon="-3.39686">
        <ele>182.6</ele>
        <time>2021-08-10T11:31:06Z</time>
      </trkpt>
      <trkpt lat="48.2363" lon="-3.39692">
        <ele>182.6</ele>
        <time>2021-08-10T11:31:07Z</time>
      </trkpt>
      <trkpt lat="48.23628" lon="-3.39697">
        <ele>182.6</ele>
        <time>2021-08-10T11:31:08Z</time>
      </trkpt>
      <trkpt lat="48.23626" lon="-3.39702">
        <ele>182.6</ele>
        <time>2021-08-10T11:31:09Z</time>
      </trkpt>
      <trkpt lat="48.23624" lon="-3.39707">
        <ele>182.8</ele>
        <time>2021-08-10T11:31:10Z</time>
      </trkpt>
      <trkpt lat="48.23621" lon="-3.39711">
        <ele>182.8</ele>
        <time>2021-08-10T11:31:11Z</time>
      </trkpt>
      <trkpt lat="48.23619" lon="-3.39716">
        <ele>182.8</ele>
        <time>2021-08-10T11:31:12Z</time>
      </trkpt>
      <trkpt lat="48.23617" lon="-3.3972">
        <ele>182.8</ele>
        <time>2021-08-10T11:31:13Z</time>
      </trkpt>
      <trkpt lat="48.23614" lon="-3.39725">
        <ele>182.8</ele>
        <time>2021-08-10T11:31:14Z</time>
      </trkpt>
      <trkpt lat="48.23612" lon="-3.3973">
        <ele>182.8</ele>
        <time>2021-08-10T11:31:15Z</time>
      </trkpt>
      <trkpt lat="48.23609" lon="-3.39735">
        <ele>182.8</ele>
        <time>2021-08-10T11:31:16Z</time>
      </trkpt>
      <trkpt lat="48.23607" lon="-3.39739">
        <ele>182.8</ele>
        <time>2021-08-10T11:31:17Z</time>
      </trkpt>
      <trkpt lat="48.23604" lon="-3.39743">
        <ele>183</ele>
        <time>2021-08-10T11:31:18Z</time>
      </trkpt>
      <trkpt lat="48.23602" lon="-3.39748">
        <ele>183</ele>
        <time>2021-08-10T11:31:19Z</time>
      </trkpt>
      <trkpt lat="48.23599" lon="-3.39753">
        <ele>183</ele>
        <time>2021-08-10T11:31:20Z</time>
      </trkpt>
      <trkpt lat="48.23597" lon="-3.39757">
        <ele>183</ele>
        <time>2021-08-10T11:31:21Z</time>
      </trkpt>
      <trkpt lat="48.23595" lon="-3.39762">
        <ele>183</ele>
        <time>2021-08-10T11:31:22Z</time>
      </trkpt>
      <trkpt lat="48.23593" lon="-3.39766">
        <ele>183</ele>
        <time>2021-08-10T11:31:23Z</time>
      </trkpt>
      <trkpt lat="48.2359" lon="-3.39771">
        <ele>183</ele>
        <time>2021-08-10T11:31:24Z</time>
      </trkpt>
      <trkpt lat="48.23588" lon="-3.39776">
        <ele>182.8</ele>
        <time>2021-08-10T11:31:25Z</time>
      </trkpt>
      <trkpt lat="48.23586" lon="-3.39781">
        <ele>182.8</ele>
        <time>2021-08-10T11:31:26Z</time>
      </trkpt>
      <trkpt lat="48.23584" lon="-3.39786">
        <ele>182.8</ele>
        <time>2021-08-10T11:31:27Z</time>
      </trkpt>
      <trkpt lat="48.23581" lon="-3.39791">
        <ele>182.8</ele>
        <time>2021-08-10T11:31:28Z</time>
      </trkpt>
      <trkpt lat="48.23579" lon="-3.39796">
        <ele>182.8</ele>
        <time>2021-08-10T11:31:29Z</time>
      </trkpt>
      <trkpt lat="48.23577" lon="-3.39801">
        <ele>182.8</ele>
        <time>2021-08-10T11:31:30Z</time>
      </trkpt>
      <trkpt lat="48.23575" lon="-3.39806">
        <ele>182.8</ele>
        <time>2021-08-10T11:31:31Z</time>
      </trkpt>
      <trkpt lat="48.23573" lon="-3.3981">
        <ele>182.8</ele>
        <time>2021-08-10T11:31:32Z</time>
      </trkpt>
      <trkpt lat="48.23571" lon="-3.39815">
        <ele>182.8</ele>
        <time>2021-08-10T11:31:33Z</time>
      </trkpt>
      <trkpt lat="48.23569" lon="-3.39818">
        <ele>182.8</ele>
        <time>2021-08-10T11:31:34Z</time>
      </trkpt>
      <trkpt lat="48.23567" lon="-3.39823">
        <ele>182.8</ele>
        <time>2021-08-10T11:31:35Z</time>
      </trkpt>
      <trkpt lat="48.23566" lon="-3.39827">
        <ele>182.8</ele>
        <time>2021-08-10T11:31:36Z</time>
      </trkpt>
      <trkpt lat="48.23564" lon="-3.39831">
        <ele>182.8</ele>
        <time>2021-08-10T11:31:37Z</time>
      </trkpt>
      <trkpt lat="48.23562" lon="-3.39836">
        <ele>183</ele>
        <time>2021-08-10T11:31:38Z</time>
      </trkpt>
      <trkpt lat="48.23559" lon="-3.3984">
        <ele>183</ele>
        <time>2021-08-10T11:31:39Z</time>
      </trkpt>
      <trkpt lat="48.23557" lon="-3.39846">
        <ele>183</ele>
        <time>2021-08-10T11:31:40Z</time>
      </trkpt>
      <trkpt lat="48.23555" lon="-3.39851">
        <ele>183</ele>
        <time>2021-08-10T11:31:41Z</time>
      </trkpt>
      <trkpt lat="48.23553" lon="-3.39856">
        <ele>183.2</ele>
        <time>2021-08-10T11:31:42Z</time>
      </trkpt>
      <trkpt lat="48.2355" lon="-3.39861">
        <ele>183.2</ele>
        <time>2021-08-10T11:31:43Z</time>
      </trkpt>
      <trkpt lat="48.23548" lon="-3.39867">
        <ele>183.2</ele>
        <time>2021-08-10T11:31:44Z</time>
      </trkpt>
      <trkpt lat="48.23545" lon="-3.39872">
        <ele>183.2</ele>
        <time>2021-08-10T11:31:45Z</time>
      </trkpt>
      <trkpt lat="48.23542" lon="-3.39877">
        <ele>183.2</ele>
        <time>2021-08-10T11:31:46Z</time>
      </trkpt>
      <trkpt lat="48.2354" lon="-3.39882">
        <ele>183.2</ele>
        <time>2021-08-10T11:31:47Z</time>
      </trkpt>
      <trkpt lat="48.23538" lon="-3.39887">
        <ele>183.2</ele>
        <time>2021-08-10T11:31:48Z</time>
      </trkpt>
      <trkpt lat="48.23536" lon="-3.39891">
        <ele>183.2</ele>
        <time>2021-08-10T11:31:49Z</time>
      </trkpt>
      <trkpt lat="48.23534" lon="-3.39895">
        <ele>183.2</ele>
        <time>2021-08-10T11:31:50Z</time>
      </trkpt>
      <trkpt lat="48.23533" lon="-3.399">
        <ele>183.2</ele>
        <time>2021-08-10T11:31:51Z</time>
      </trkpt>
      <trkpt lat="48.23531" lon="-3.39904">
        <ele>183.2</ele>
        <time>2021-08-10T11:31:52Z</time>
      </trkpt>
      <trkpt lat="48.23529" lon="-3.39909">
        <ele>183.2</ele>
        <time>2021-08-10T11:31:53Z</time>
      </trkpt>
      <trkpt lat="48.23526" lon="-3.39914">
        <ele>183.2</ele>
        <time>2021-08-10T11:31:54Z</time>
      </trkpt>
      <trkpt lat="48.23524" lon="-3.39919">
        <ele>183.2</ele>
        <time>2021-08-10T11:31:55Z</time>
      </trkpt>
      <trkpt lat="48.23521" lon="-3.39924">
        <ele>183.2</ele>
        <time>2021-08-10T11:31:56Z</time>
      </trkpt>
      <trkpt lat="48.23519" lon="-3.39929">
        <ele>183.2</ele>
        <time>2021-08-10T11:31:57Z</time>
      </trkpt>
      <trkpt lat="48.23517" lon="-3.39934">
        <ele>183.2</ele>
        <time>2021-08-10T11:31:58Z</time>
      </trkpt>
      <trkpt lat="48.23514" lon="-3.39939">
        <ele>183.2</ele>
        <time>2021-08-10T11:31:59Z</time>
      </trkpt>
      <trkpt lat="48.23512" lon="-3.39944">
        <ele>183.2</ele>
        <time>2021-08-10T11:32:00Z</time>
      </trkpt>
      <trkpt lat="48.23511" lon="-3.39948">
        <ele>183</ele>
        <time>2021-08-10T11:32:01Z</time>
      </trkpt>
      <trkpt lat="48.2351" lon="-3.3995">
        <ele>183</ele>
        <time>2021-08-10T11:32:02Z</time>
      </trkpt>
      <trkpt lat="48.23508" lon="-3.39953">
        <ele>183</ele>
        <time>2021-08-10T11:32:03Z</time>
      </trkpt>
      <trkpt lat="48.23506" lon="-3.39956">
        <ele>183</ele>
        <time>2021-08-10T11:32:04Z</time>
      </trkpt>
      <trkpt lat="48.23505" lon="-3.39959">
        <ele>183.2</ele>
        <time>2021-08-10T11:32:05Z</time>
      </trkpt>
      <trkpt lat="48.23504" lon="-3.39962">
        <ele>183.4</ele>
        <time>2021-08-10T11:32:06Z</time>
      </trkpt>
      <trkpt lat="48.23504" lon="-3.39965">
        <ele>183.4</ele>
        <time>2021-08-10T11:32:07Z</time>
      </trkpt>
      <trkpt lat="48.23503" lon="-3.39967">
        <ele>183.4</ele>
        <time>2021-08-10T11:32:08Z</time>
      </trkpt>
      <trkpt lat="48.23503" lon="-3.3997">
        <ele>183.4</ele>
        <time>2021-08-10T11:32:09Z</time>
      </trkpt>
      <trkpt lat="48.23502" lon="-3.39972">
        <ele>183.6</ele>
        <time>2021-08-10T11:32:10Z</time>
      </trkpt>
      <trkpt lat="48.23501" lon="-3.39974">
        <ele>184</ele>
        <time>2021-08-10T11:32:11Z</time>
      </trkpt>
      <trkpt lat="48.235" lon="-3.39976">
        <ele>184.2</ele>
        <time>2021-08-10T11:32:12Z</time>
      </trkpt>
      <trkpt lat="48.235" lon="-3.39978">
        <ele>184.4</ele>
        <time>2021-08-10T11:32:13Z</time>
      </trkpt>
      <trkpt lat="48.23499" lon="-3.3998">
        <ele>184.8</ele>
        <time>2021-08-10T11:32:14Z</time>
      </trkpt>
      <trkpt lat="48.23498" lon="-3.39985">
        <ele>185.2</ele>
        <time>2021-08-10T11:32:15Z</time>
      </trkpt>
      <trkpt lat="48.23496" lon="-3.39988">
        <ele>185.6</ele>
        <time>2021-08-10T11:32:16Z</time>
      </trkpt>
      <trkpt lat="48.23495" lon="-3.3999">
        <ele>185.8</ele>
        <time>2021-08-10T11:32:17Z</time>
      </trkpt>
      <trkpt lat="48.23494" lon="-3.39993">
        <ele>186</ele>
        <time>2021-08-10T11:32:18Z</time>
      </trkpt>
      <trkpt lat="48.23493" lon="-3.39996">
        <ele>186.2</ele>
        <time>2021-08-10T11:32:19Z</time>
      </trkpt>
      <trkpt lat="48.23492" lon="-3.39999">
        <ele>186.2</ele>
        <time>2021-08-10T11:32:20Z</time>
      </trkpt>
      <trkpt lat="48.23491" lon="-3.40002">
        <ele>186.4</ele>
        <time>2021-08-10T11:32:23Z</time>
      </trkpt>
      <trkpt lat="48.2349" lon="-3.40005">
        <ele>186.4</ele>
        <time>2021-08-10T11:32:24Z</time>
      </trkpt>
      <trkpt lat="48.23487" lon="-3.4001">
        <ele>186.4</ele>
        <time>2021-08-10T11:32:25Z</time>
      </trkpt>
      <trkpt lat="48.23483" lon="-3.40017">
        <ele>186.4</ele>
        <time>2021-08-10T11:32:26Z</time>
      </trkpt>
      <trkpt lat="48.23478" lon="-3.40025">
        <ele>186.4</ele>
        <time>2021-08-10T11:32:27Z</time>
      </trkpt>
      <trkpt lat="48.23474" lon="-3.40034">
        <ele>186.4</ele>
        <time>2021-08-10T11:32:28Z</time>
      </trkpt>
      <trkpt lat="48.2347" lon="-3.40042">
        <ele>186.4</ele>
        <time>2021-08-10T11:32:29Z</time>
      </trkpt>
      <trkpt lat="48.23466" lon="-3.40051">
        <ele>186.4</ele>
        <time>2021-08-10T11:32:30Z</time>
      </trkpt>
      <trkpt lat="48.23462" lon="-3.40059">
        <ele>186.2</ele>
        <time>2021-08-10T11:32:31Z</time>
      </trkpt>
      <trkpt lat="48.23459" lon="-3.40067">
        <ele>185.8</ele>
        <time>2021-08-10T11:32:32Z</time>
      </trkpt>
      <trkpt lat="48.23455" lon="-3.40074">
        <ele>185.2</ele>
        <time>2021-08-10T11:32:33Z</time>
      </trkpt>
      <trkpt lat="48.23452" lon="-3.40082">
        <ele>183.2</ele>
        <time>2021-08-10T11:32:34Z</time>
      </trkpt>
      <trkpt lat="48.23449" lon="-3.4009">
        <ele>182.6</ele>
        <time>2021-08-10T11:32:35Z</time>
      </trkpt>
      <trkpt lat="48.23445" lon="-3.40097">
        <ele>182.2</ele>
        <time>2021-08-10T11:32:36Z</time>
      </trkpt>
      <trkpt lat="48.23443" lon="-3.40104">
        <ele>182.2</ele>
        <time>2021-08-10T11:32:37Z</time>
      </trkpt>
      <trkpt lat="48.2344" lon="-3.4011">
        <ele>182</ele>
        <time>2021-08-10T11:32:38Z</time>
      </trkpt>
      <trkpt lat="48.23437" lon="-3.40117">
        <ele>182</ele>
        <time>2021-08-10T11:32:39Z</time>
      </trkpt>
      <trkpt lat="48.23435" lon="-3.40124">
        <ele>182</ele>
        <time>2021-08-10T11:32:40Z</time>
      </trkpt>
      <trkpt lat="48.23431" lon="-3.4013">
        <ele>182</ele>
        <time>2021-08-10T11:32:41Z</time>
      </trkpt>
      <trkpt lat="48.23428" lon="-3.40135">
        <ele>182</ele>
        <time>2021-08-10T11:32:42Z</time>
      </trkpt>
      <trkpt lat="48.23426" lon="-3.40141">
        <ele>182</ele>
        <time>2021-08-10T11:32:43Z</time>
      </trkpt>
      <trkpt lat="48.23423" lon="-3.40147">
        <ele>182</ele>
        <time>2021-08-10T11:32:44Z</time>
      </trkpt>
      <trkpt lat="48.2342" lon="-3.40153">
        <ele>182</ele>
        <time>2021-08-10T11:32:45Z</time>
      </trkpt>
      <trkpt lat="48.23417" lon="-3.4016">
        <ele>182</ele>
        <time>2021-08-10T11:32:46Z</time>
      </trkpt>
      <trkpt lat="48.23415" lon="-3.40166">
        <ele>182</ele>
        <time>2021-08-10T11:32:47Z</time>
      </trkpt>
      <trkpt lat="48.23413" lon="-3.40172">
        <ele>182</ele>
        <time>2021-08-10T11:32:48Z</time>
      </trkpt>
      <trkpt lat="48.2341" lon="-3.40178">
        <ele>182.2</ele>
        <time>2021-08-10T11:32:49Z</time>
      </trkpt>
      <trkpt lat="48.23407" lon="-3.40184">
        <ele>182.2</ele>
        <time>2021-08-10T11:32:50Z</time>
      </trkpt>
      <trkpt lat="48.23403" lon="-3.40189">
        <ele>182.2</ele>
        <time>2021-08-10T11:32:51Z</time>
      </trkpt>
      <trkpt lat="48.234" lon="-3.40196">
        <ele>182.4</ele>
        <time>2021-08-10T11:32:52Z</time>
      </trkpt>
      <trkpt lat="48.23397" lon="-3.40202">
        <ele>182.4</ele>
        <time>2021-08-10T11:32:53Z</time>
      </trkpt>
      <trkpt lat="48.23394" lon="-3.40208">
        <ele>182.2</ele>
        <time>2021-08-10T11:32:54Z</time>
      </trkpt>
      <trkpt lat="48.23391" lon="-3.40215">
        <ele>182.2</ele>
        <time>2021-08-10T11:32:55Z</time>
      </trkpt>
      <trkpt lat="48.23387" lon="-3.40221">
        <ele>182.4</ele>
        <time>2021-08-10T11:32:56Z</time>
      </trkpt>
      <trkpt lat="48.23384" lon="-3.40227">
        <ele>182.4</ele>
        <time>2021-08-10T11:32:57Z</time>
      </trkpt>
      <trkpt lat="48.23381" lon="-3.40233">
        <ele>182.4</ele>
        <time>2021-08-10T11:32:58Z</time>
      </trkpt>
      <trkpt lat="48.23377" lon="-3.40238">
        <ele>182.6</ele>
        <time>2021-08-10T11:32:59Z</time>
      </trkpt>
      <trkpt lat="48.23373" lon="-3.40244">
        <ele>182.6</ele>
        <time>2021-08-10T11:33:00Z</time>
      </trkpt>
      <trkpt lat="48.2337" lon="-3.40249">
        <ele>182.6</ele>
        <time>2021-08-10T11:33:01Z</time>
      </trkpt>
      <trkpt lat="48.23366" lon="-3.40255">
        <ele>182.4</ele>
        <time>2021-08-10T11:33:02Z</time>
      </trkpt>
      <trkpt lat="48.23363" lon="-3.40261">
        <ele>182.4</ele>
        <time>2021-08-10T11:33:03Z</time>
      </trkpt>
      <trkpt lat="48.2336" lon="-3.40266">
        <ele>182.4</ele>
        <time>2021-08-10T11:33:04Z</time>
      </trkpt>
      <trkpt lat="48.23357" lon="-3.40271">
        <ele>182.4</ele>
        <time>2021-08-10T11:33:05Z</time>
      </trkpt>
      <trkpt lat="48.23354" lon="-3.40274">
        <ele>182.6</ele>
        <time>2021-08-10T11:33:06Z</time>
      </trkpt>
      <trkpt lat="48.23352" lon="-3.40277">
        <ele>182.6</ele>
        <time>2021-08-10T11:33:07Z</time>
      </trkpt>
      <trkpt lat="48.2335" lon="-3.40279">
        <ele>182.6</ele>
        <time>2021-08-10T11:33:08Z</time>
      </trkpt>
      <trkpt lat="48.23348" lon="-3.40281">
        <ele>182.6</ele>
        <time>2021-08-10T11:33:09Z</time>
      </trkpt>
      <trkpt lat="48.23347" lon="-3.40283">
        <ele>182.8</ele>
        <time>2021-08-10T11:33:10Z</time>
      </trkpt>
      <trkpt lat="48.23345" lon="-3.40286">
        <ele>182.8</ele>
        <time>2021-08-10T11:33:11Z</time>
      </trkpt>
      <trkpt lat="48.23344" lon="-3.40289">
        <ele>182.8</ele>
        <time>2021-08-10T11:33:12Z</time>
      </trkpt>
      <trkpt lat="48.23342" lon="-3.40291">
        <ele>182.8</ele>
        <time>2021-08-10T11:33:13Z</time>
      </trkpt>
      <trkpt lat="48.2334" lon="-3.40294">
        <ele>182.8</ele>
        <time>2021-08-10T11:33:14Z</time>
      </trkpt>
      <trkpt lat="48.23338" lon="-3.40297">
        <ele>182.8</ele>
        <time>2021-08-10T11:33:15Z</time>
      </trkpt>
      <trkpt lat="48.23336" lon="-3.40301">
        <ele>183</ele>
        <time>2021-08-10T11:33:16Z</time>
      </trkpt>
      <trkpt lat="48.23334" lon="-3.40304">
        <ele>183</ele>
        <time>2021-08-10T11:33:17Z</time>
      </trkpt>
      <trkpt lat="48.23332" lon="-3.40308">
        <ele>183</ele>
        <time>2021-08-10T11:33:18Z</time>
      </trkpt>
      <trkpt lat="48.2333" lon="-3.40311">
        <ele>183</ele>
        <time>2021-08-10T11:33:19Z</time>
      </trkpt>
      <trkpt lat="48.23328" lon="-3.40315">
        <ele>183.2</ele>
        <time>2021-08-10T11:33:20Z</time>
      </trkpt>
      <trkpt lat="48.23325" lon="-3.40319">
        <ele>183.2</ele>
        <time>2021-08-10T11:33:21Z</time>
      </trkpt>
      <trkpt lat="48.23323" lon="-3.40323">
        <ele>183.2</ele>
        <time>2021-08-10T11:33:22Z</time>
      </trkpt>
      <trkpt lat="48.2332" lon="-3.40327">
        <ele>183.2</ele>
        <time>2021-08-10T11:33:23Z</time>
      </trkpt>
      <trkpt lat="48.23317" lon="-3.40331">
        <ele>183.2</ele>
        <time>2021-08-10T11:33:24Z</time>
      </trkpt>
      <trkpt lat="48.23314" lon="-3.40335">
        <ele>183.2</ele>
        <time>2021-08-10T11:33:25Z</time>
      </trkpt>
      <trkpt lat="48.23311" lon="-3.4034">
        <ele>183.2</ele>
        <time>2021-08-10T11:33:26Z</time>
      </trkpt>
      <trkpt lat="48.23309" lon="-3.40344">
        <ele>183.2</ele>
        <time>2021-08-10T11:33:27Z</time>
      </trkpt>
      <trkpt lat="48.23306" lon="-3.40348">
        <ele>183.2</ele>
        <time>2021-08-10T11:33:28Z</time>
      </trkpt>
      <trkpt lat="48.23303" lon="-3.40353">
        <ele>183.2</ele>
        <time>2021-08-10T11:33:29Z</time>
      </trkpt>
      <trkpt lat="48.23301" lon="-3.40357">
        <ele>183.2</ele>
        <time>2021-08-10T11:33:30Z</time>
      </trkpt>
      <trkpt lat="48.23299" lon="-3.40362">
        <ele>183.2</ele>
        <time>2021-08-10T11:33:31Z</time>
      </trkpt>
      <trkpt lat="48.23296" lon="-3.40365">
        <ele>183.2</ele>
        <time>2021-08-10T11:33:32Z</time>
      </trkpt>
      <trkpt lat="48.23293" lon="-3.40369">
        <ele>183.2</ele>
        <time>2021-08-10T11:33:33Z</time>
      </trkpt>
      <trkpt lat="48.23289" lon="-3.40374">
        <ele>183.2</ele>
        <time>2021-08-10T11:33:34Z</time>
      </trkpt>
      <trkpt lat="48.23287" lon="-3.40379">
        <ele>183.2</ele>
        <time>2021-08-10T11:33:35Z</time>
      </trkpt>
      <trkpt lat="48.23284" lon="-3.40383">
        <ele>183</ele>
        <time>2021-08-10T11:33:36Z</time>
      </trkpt>
      <trkpt lat="48.23282" lon="-3.40387">
        <ele>183</ele>
        <time>2021-08-10T11:33:37Z</time>
      </trkpt>
      <trkpt lat="48.23279" lon="-3.4039">
        <ele>182.8</ele>
        <time>2021-08-10T11:33:38Z</time>
      </trkpt>
      <trkpt lat="48.23277" lon="-3.40393">
        <ele>182.8</ele>
        <time>2021-08-10T11:33:39Z</time>
      </trkpt>
      <trkpt lat="48.23275" lon="-3.40396">
        <ele>182.8</ele>
        <time>2021-08-10T11:33:40Z</time>
      </trkpt>
      <trkpt lat="48.23273" lon="-3.40399">
        <ele>182.8</ele>
        <time>2021-08-10T11:33:41Z</time>
      </trkpt>
      <trkpt lat="48.23271" lon="-3.40403">
        <ele>182.8</ele>
        <time>2021-08-10T11:33:42Z</time>
      </trkpt>
      <trkpt lat="48.23269" lon="-3.40406">
        <ele>182.8</ele>
        <time>2021-08-10T11:33:43Z</time>
      </trkpt>
      <trkpt lat="48.23267" lon="-3.40411">
        <ele>183</ele>
        <time>2021-08-10T11:33:44Z</time>
      </trkpt>
      <trkpt lat="48.23264" lon="-3.40414">
        <ele>182.8</ele>
        <time>2021-08-10T11:33:45Z</time>
      </trkpt>
      <trkpt lat="48.23262" lon="-3.40419">
        <ele>182.8</ele>
        <time>2021-08-10T11:33:46Z</time>
      </trkpt>
      <trkpt lat="48.23258" lon="-3.40423">
        <ele>182.8</ele>
        <time>2021-08-10T11:33:47Z</time>
      </trkpt>
      <trkpt lat="48.23256" lon="-3.40427">
        <ele>182.8</ele>
        <time>2021-08-10T11:33:48Z</time>
      </trkpt>
      <trkpt lat="48.23253" lon="-3.40432">
        <ele>182.8</ele>
        <time>2021-08-10T11:33:49Z</time>
      </trkpt>
      <trkpt lat="48.2325" lon="-3.40436">
        <ele>182.8</ele>
        <time>2021-08-10T11:33:50Z</time>
      </trkpt>
      <trkpt lat="48.23248" lon="-3.4044">
        <ele>182.8</ele>
        <time>2021-08-10T11:33:51Z</time>
      </trkpt>
      <trkpt lat="48.23245" lon="-3.40445">
        <ele>182.8</ele>
        <time>2021-08-10T11:33:52Z</time>
      </trkpt>
      <trkpt lat="48.23243" lon="-3.4045">
        <ele>182.8</ele>
        <time>2021-08-10T11:33:53Z</time>
      </trkpt>
      <trkpt lat="48.2324" lon="-3.40454">
        <ele>182.8</ele>
        <time>2021-08-10T11:33:54Z</time>
      </trkpt>
      <trkpt lat="48.23237" lon="-3.40459">
        <ele>182.8</ele>
        <time>2021-08-10T11:33:55Z</time>
      </trkpt>
      <trkpt lat="48.23234" lon="-3.40464">
        <ele>182.8</ele>
        <time>2021-08-10T11:33:56Z</time>
      </trkpt>
      <trkpt lat="48.23231" lon="-3.40469">
        <ele>182.8</ele>
        <time>2021-08-10T11:33:57Z</time>
      </trkpt>
      <trkpt lat="48.23229" lon="-3.40473">
        <ele>182.8</ele>
        <time>2021-08-10T11:33:58Z</time>
      </trkpt>
      <trkpt lat="48.23227" lon="-3.40476">
        <ele>182.8</ele>
        <time>2021-08-10T11:33:59Z</time>
      </trkpt>
      <trkpt lat="48.23226" lon="-3.40478">
        <ele>182.8</ele>
        <time>2021-08-10T11:34:00Z</time>
      </trkpt>
      <trkpt lat="48.23224" lon="-3.4048">
        <ele>182.8</ele>
        <time>2021-08-10T11:34:01Z</time>
      </trkpt>
      <trkpt lat="48.23222" lon="-3.40483">
        <ele>183</ele>
        <time>2021-08-10T11:34:02Z</time>
      </trkpt>
      <trkpt lat="48.23221" lon="-3.40485">
        <ele>183</ele>
        <time>2021-08-10T11:34:03Z</time>
      </trkpt>
      <trkpt lat="48.2322" lon="-3.40488">
        <ele>183</ele>
        <time>2021-08-10T11:34:04Z</time>
      </trkpt>
      <trkpt lat="48.23218" lon="-3.4049">
        <ele>183.2</ele>
        <time>2021-08-10T11:34:05Z</time>
      </trkpt>
      <trkpt lat="48.23216" lon="-3.40492">
        <ele>183.2</ele>
        <time>2021-08-10T11:34:06Z</time>
      </trkpt>
      <trkpt lat="48.23215" lon="-3.40495">
        <ele>183.2</ele>
        <time>2021-08-10T11:34:07Z</time>
      </trkpt>
      <trkpt lat="48.23214" lon="-3.40497">
        <ele>183.2</ele>
        <time>2021-08-10T11:34:08Z</time>
      </trkpt>
      <trkpt lat="48.23212" lon="-3.405">
        <ele>183.2</ele>
        <time>2021-08-10T11:34:09Z</time>
      </trkpt>
      <trkpt lat="48.23211" lon="-3.40502">
        <ele>183.2</ele>
        <time>2021-08-10T11:34:10Z</time>
      </trkpt>
      <trkpt lat="48.23209" lon="-3.40506">
        <ele>183.2</ele>
        <time>2021-08-10T11:34:11Z</time>
      </trkpt>
      <trkpt lat="48.23207" lon="-3.40509">
        <ele>183.2</ele>
        <time>2021-08-10T11:34:12Z</time>
      </trkpt>
      <trkpt lat="48.23205" lon="-3.40513">
        <ele>183.2</ele>
        <time>2021-08-10T11:34:13Z</time>
      </trkpt>
      <trkpt lat="48.23203" lon="-3.40517">
        <ele>183.2</ele>
        <time>2021-08-10T11:34:14Z</time>
      </trkpt>
      <trkpt lat="48.23201" lon="-3.40521">
        <ele>183.2</ele>
        <time>2021-08-10T11:34:15Z</time>
      </trkpt>
      <trkpt lat="48.23199" lon="-3.40525">
        <ele>183.2</ele>
        <time>2021-08-10T11:34:16Z</time>
      </trkpt>
      <trkpt lat="48.23197" lon="-3.40528">
        <ele>183.2</ele>
        <time>2021-08-10T11:34:17Z</time>
      </trkpt>
      <trkpt lat="48.23195" lon="-3.40532">
        <ele>183</ele>
        <time>2021-08-10T11:34:18Z</time>
      </trkpt>
      <trkpt lat="48.23192" lon="-3.40536">
        <ele>183</ele>
        <time>2021-08-10T11:34:19Z</time>
      </trkpt>
      <trkpt lat="48.2319" lon="-3.40539">
        <ele>183</ele>
        <time>2021-08-10T11:34:20Z</time>
      </trkpt>
      <trkpt lat="48.23187" lon="-3.40543">
        <ele>183</ele>
        <time>2021-08-10T11:34:21Z</time>
      </trkpt>
      <trkpt lat="48.23185" lon="-3.40547">
        <ele>183</ele>
        <time>2021-08-10T11:34:22Z</time>
      </trkpt>
      <trkpt lat="48.23182" lon="-3.40552">
        <ele>183</ele>
        <time>2021-08-10T11:34:23Z</time>
      </trkpt>
      <trkpt lat="48.23179" lon="-3.40556">
        <ele>183</ele>
        <time>2021-08-10T11:34:24Z</time>
      </trkpt>
      <trkpt lat="48.23177" lon="-3.4056">
        <ele>182.8</ele>
        <time>2021-08-10T11:34:25Z</time>
      </trkpt>
      <trkpt lat="48.23174" lon="-3.40564">
        <ele>182.8</ele>
        <time>2021-08-10T11:34:26Z</time>
      </trkpt>
      <trkpt lat="48.23172" lon="-3.40569">
        <ele>182.8</ele>
        <time>2021-08-10T11:34:27Z</time>
      </trkpt>
      <trkpt lat="48.23169" lon="-3.40573">
        <ele>182.8</ele>
        <time>2021-08-10T11:34:28Z</time>
      </trkpt>
      <trkpt lat="48.23167" lon="-3.40577">
        <ele>182.8</ele>
        <time>2021-08-10T11:34:29Z</time>
      </trkpt>
      <trkpt lat="48.23165" lon="-3.40581">
        <ele>182.8</ele>
        <time>2021-08-10T11:34:30Z</time>
      </trkpt>
      <trkpt lat="48.23163" lon="-3.40584">
        <ele>182.8</ele>
        <time>2021-08-10T11:34:31Z</time>
      </trkpt>
      <trkpt lat="48.2316" lon="-3.40587">
        <ele>182.8</ele>
        <time>2021-08-10T11:34:32Z</time>
      </trkpt>
      <trkpt lat="48.23158" lon="-3.4059">
        <ele>183</ele>
        <time>2021-08-10T11:34:33Z</time>
      </trkpt>
      <trkpt lat="48.23156" lon="-3.40594">
        <ele>183</ele>
        <time>2021-08-10T11:34:34Z</time>
      </trkpt>
      <trkpt lat="48.23154" lon="-3.40597">
        <ele>183</ele>
        <time>2021-08-10T11:34:35Z</time>
      </trkpt>
      <trkpt lat="48.23151" lon="-3.40601">
        <ele>183</ele>
        <time>2021-08-10T11:34:36Z</time>
      </trkpt>
      <trkpt lat="48.23149" lon="-3.40604">
        <ele>183</ele>
        <time>2021-08-10T11:34:37Z</time>
      </trkpt>
      <trkpt lat="48.23147" lon="-3.40608">
        <ele>183</ele>
        <time>2021-08-10T11:34:38Z</time>
      </trkpt>
      <trkpt lat="48.23144" lon="-3.40612">
        <ele>183</ele>
        <time>2021-08-10T11:34:39Z</time>
      </trkpt>
      <trkpt lat="48.23141" lon="-3.40615">
        <ele>182.8</ele>
        <time>2021-08-10T11:34:40Z</time>
      </trkpt>
      <trkpt lat="48.23138" lon="-3.40619">
        <ele>183</ele>
        <time>2021-08-10T11:34:41Z</time>
      </trkpt>
      <trkpt lat="48.23135" lon="-3.40623">
        <ele>183</ele>
        <time>2021-08-10T11:34:42Z</time>
      </trkpt>
      <trkpt lat="48.23133" lon="-3.40628">
        <ele>183</ele>
        <time>2021-08-10T11:34:43Z</time>
      </trkpt>
      <trkpt lat="48.2313" lon="-3.40632">
        <ele>182.8</ele>
        <time>2021-08-10T11:34:44Z</time>
      </trkpt>
      <trkpt lat="48.23127" lon="-3.40637">
        <ele>182.6</ele>
        <time>2021-08-10T11:34:45Z</time>
      </trkpt>
      <trkpt lat="48.23123" lon="-3.40641">
        <ele>182.6</ele>
        <time>2021-08-10T11:34:46Z</time>
      </trkpt>
      <trkpt lat="48.2312" lon="-3.40646">
        <ele>182.6</ele>
        <time>2021-08-10T11:34:47Z</time>
      </trkpt>
      <trkpt lat="48.23117" lon="-3.40651">
        <ele>182.6</ele>
        <time>2021-08-10T11:34:48Z</time>
      </trkpt>
      <trkpt lat="48.23114" lon="-3.40656">
        <ele>182.6</ele>
        <time>2021-08-10T11:34:49Z</time>
      </trkpt>
      <trkpt lat="48.23111" lon="-3.4066">
        <ele>182.6</ele>
        <time>2021-08-10T11:34:50Z</time>
      </trkpt>
      <trkpt lat="48.23109" lon="-3.40664">
        <ele>182.6</ele>
        <time>2021-08-10T11:34:51Z</time>
      </trkpt>
      <trkpt lat="48.23107" lon="-3.40669">
        <ele>182.4</ele>
        <time>2021-08-10T11:34:52Z</time>
      </trkpt>
      <trkpt lat="48.23104" lon="-3.40673">
        <ele>182.4</ele>
        <time>2021-08-10T11:34:53Z</time>
      </trkpt>
      <trkpt lat="48.23101" lon="-3.40677">
        <ele>182.4</ele>
        <time>2021-08-10T11:34:54Z</time>
      </trkpt>
      <trkpt lat="48.23098" lon="-3.40681">
        <ele>182.4</ele>
        <time>2021-08-10T11:34:55Z</time>
      </trkpt>
      <trkpt lat="48.23095" lon="-3.40685">
        <ele>182.4</ele>
        <time>2021-08-10T11:34:56Z</time>
      </trkpt>
      <trkpt lat="48.23091" lon="-3.4069">
        <ele>182.4</ele>
        <time>2021-08-10T11:34:57Z</time>
      </trkpt>
      <trkpt lat="48.23088" lon="-3.40696">
        <ele>182.4</ele>
        <time>2021-08-10T11:34:58Z</time>
      </trkpt>
      <trkpt lat="48.23085" lon="-3.40701">
        <ele>182.4</ele>
        <time>2021-08-10T11:34:59Z</time>
      </trkpt>
      <trkpt lat="48.23082" lon="-3.40706">
        <ele>182.4</ele>
        <time>2021-08-10T11:35:00Z</time>
      </trkpt>
      <trkpt lat="48.23079" lon="-3.40711">
        <ele>182.4</ele>
        <time>2021-08-10T11:35:01Z</time>
      </trkpt>
      <trkpt lat="48.23076" lon="-3.40716">
        <ele>182.2</ele>
        <time>2021-08-10T11:35:02Z</time>
      </trkpt>
      <trkpt lat="48.23072" lon="-3.40721">
        <ele>182.2</ele>
        <time>2021-08-10T11:35:03Z</time>
      </trkpt>
      <trkpt lat="48.2307" lon="-3.40726">
        <ele>182.2</ele>
        <time>2021-08-10T11:35:04Z</time>
      </trkpt>
      <trkpt lat="48.23067" lon="-3.40731">
        <ele>182.2</ele>
        <time>2021-08-10T11:35:05Z</time>
      </trkpt>
      <trkpt lat="48.23065" lon="-3.40737">
        <ele>182.2</ele>
        <time>2021-08-10T11:35:06Z</time>
      </trkpt>
      <trkpt lat="48.23063" lon="-3.40743">
        <ele>182.2</ele>
        <time>2021-08-10T11:35:07Z</time>
      </trkpt>
      <trkpt lat="48.23061" lon="-3.40749">
        <ele>182.2</ele>
        <time>2021-08-10T11:35:08Z</time>
      </trkpt>
      <trkpt lat="48.2306" lon="-3.40755">
        <ele>182.2</ele>
        <time>2021-08-10T11:35:09Z</time>
      </trkpt>
      <trkpt lat="48.2306" lon="-3.4076">
        <ele>182.2</ele>
        <time>2021-08-10T11:35:10Z</time>
      </trkpt>
      <trkpt lat="48.23059" lon="-3.40765">
        <ele>182.2</ele>
        <time>2021-08-10T11:35:11Z</time>
      </trkpt>
      <trkpt lat="48.23058" lon="-3.4077">
        <ele>182.2</ele>
        <time>2021-08-10T11:35:12Z</time>
      </trkpt>
      <trkpt lat="48.23057" lon="-3.40776">
        <ele>182.2</ele>
        <time>2021-08-10T11:35:13Z</time>
      </trkpt>
      <trkpt lat="48.23056" lon="-3.40782">
        <ele>182.2</ele>
        <time>2021-08-10T11:35:14Z</time>
      </trkpt>
      <trkpt lat="48.23056" lon="-3.40787">
        <ele>182.2</ele>
        <time>2021-08-10T11:35:15Z</time>
      </trkpt>
      <trkpt lat="48.23057" lon="-3.40793">
        <ele>182.2</ele>
        <time>2021-08-10T11:35:16Z</time>
      </trkpt>
      <trkpt lat="48.23057" lon="-3.40798">
        <ele>182.2</ele>
        <time>2021-08-10T11:35:17Z</time>
      </trkpt>
      <trkpt lat="48.23058" lon="-3.40803">
        <ele>182.2</ele>
        <time>2021-08-10T11:35:18Z</time>
      </trkpt>
      <trkpt lat="48.23059" lon="-3.40808">
        <ele>182.2</ele>
        <time>2021-08-10T11:35:19Z</time>
      </trkpt>
      <trkpt lat="48.23061" lon="-3.40813">
        <ele>182.2</ele>
        <time>2021-08-10T11:35:20Z</time>
      </trkpt>
      <trkpt lat="48.23063" lon="-3.40817">
        <ele>182.2</ele>
        <time>2021-08-10T11:35:21Z</time>
      </trkpt>
      <trkpt lat="48.23066" lon="-3.40822">
        <ele>182.2</ele>
        <time>2021-08-10T11:35:22Z</time>
      </trkpt>
      <trkpt lat="48.23068" lon="-3.40827">
        <ele>182.2</ele>
        <time>2021-08-10T11:35:23Z</time>
      </trkpt>
      <trkpt lat="48.23071" lon="-3.40832">
        <ele>182</ele>
        <time>2021-08-10T11:35:24Z</time>
      </trkpt>
      <trkpt lat="48.23073" lon="-3.40836">
        <ele>181.8</ele>
        <time>2021-08-10T11:35:25Z</time>
      </trkpt>
      <trkpt lat="48.23075" lon="-3.40839">
        <ele>181.8</ele>
        <time>2021-08-10T11:35:26Z</time>
      </trkpt>
      <trkpt lat="48.23077" lon="-3.40842">
        <ele>181.6</ele>
        <time>2021-08-10T11:35:27Z</time>
      </trkpt>
      <trkpt lat="48.2308" lon="-3.40847">
        <ele>181.6</ele>
        <time>2021-08-10T11:35:28Z</time>
      </trkpt>
      <trkpt lat="48.23083" lon="-3.40852">
        <ele>181.6</ele>
        <time>2021-08-10T11:35:29Z</time>
      </trkpt>
      <trkpt lat="48.23086" lon="-3.40856">
        <ele>181.6</ele>
        <time>2021-08-10T11:35:30Z</time>
      </trkpt>
      <trkpt lat="48.23089" lon="-3.40862">
        <ele>181.6</ele>
        <time>2021-08-10T11:35:31Z</time>
      </trkpt>
      <trkpt lat="48.23091" lon="-3.40868">
        <ele>181.6</ele>
        <time>2021-08-10T11:35:32Z</time>
      </trkpt>
      <trkpt lat="48.23094" lon="-3.40874">
        <ele>181.6</ele>
        <time>2021-08-10T11:35:33Z</time>
      </trkpt>
      <trkpt lat="48.23096" lon="-3.4088">
        <ele>181.6</ele>
        <time>2021-08-10T11:35:34Z</time>
      </trkpt>
      <trkpt lat="48.23097" lon="-3.40886">
        <ele>181.6</ele>
        <time>2021-08-10T11:35:35Z</time>
      </trkpt>
      <trkpt lat="48.23099" lon="-3.40893">
        <ele>181.6</ele>
        <time>2021-08-10T11:35:36Z</time>
      </trkpt>
      <trkpt lat="48.23101" lon="-3.40899">
        <ele>181.6</ele>
        <time>2021-08-10T11:35:37Z</time>
      </trkpt>
      <trkpt lat="48.23103" lon="-3.40906">
        <ele>181.6</ele>
        <time>2021-08-10T11:35:38Z</time>
      </trkpt>
      <trkpt lat="48.23106" lon="-3.40912">
        <ele>181.6</ele>
        <time>2021-08-10T11:35:39Z</time>
      </trkpt>
      <trkpt lat="48.23108" lon="-3.40919">
        <ele>181.6</ele>
        <time>2021-08-10T11:35:40Z</time>
      </trkpt>
      <trkpt lat="48.2311" lon="-3.40925">
        <ele>181.6</ele>
        <time>2021-08-10T11:35:41Z</time>
      </trkpt>
      <trkpt lat="48.23112" lon="-3.40932">
        <ele>181.6</ele>
        <time>2021-08-10T11:35:42Z</time>
      </trkpt>
      <trkpt lat="48.23115" lon="-3.40938">
        <ele>181.6</ele>
        <time>2021-08-10T11:35:43Z</time>
      </trkpt>
      <trkpt lat="48.23117" lon="-3.40945">
        <ele>181.6</ele>
        <time>2021-08-10T11:35:44Z</time>
      </trkpt>
      <trkpt lat="48.23119" lon="-3.40951">
        <ele>181.6</ele>
        <time>2021-08-10T11:35:45Z</time>
      </trkpt>
      <trkpt lat="48.23121" lon="-3.40957">
        <ele>181.6</ele>
        <time>2021-08-10T11:35:46Z</time>
      </trkpt>
      <trkpt lat="48.23124" lon="-3.40963">
        <ele>181.6</ele>
        <time>2021-08-10T11:35:47Z</time>
      </trkpt>
      <trkpt lat="48.23126" lon="-3.40968">
        <ele>181.6</ele>
        <time>2021-08-10T11:35:48Z</time>
      </trkpt>
      <trkpt lat="48.23128" lon="-3.40973">
        <ele>181.8</ele>
        <time>2021-08-10T11:35:49Z</time>
      </trkpt>
      <trkpt lat="48.23131" lon="-3.40978">
        <ele>181.6</ele>
        <time>2021-08-10T11:35:50Z</time>
      </trkpt>
      <trkpt lat="48.23133" lon="-3.40983">
        <ele>181.6</ele>
        <time>2021-08-10T11:35:51Z</time>
      </trkpt>
      <trkpt lat="48.23135" lon="-3.40988">
        <ele>181.6</ele>
        <time>2021-08-10T11:35:52Z</time>
      </trkpt>
      <trkpt lat="48.23138" lon="-3.40995">
        <ele>181.6</ele>
        <time>2021-08-10T11:35:53Z</time>
      </trkpt>
      <trkpt lat="48.2314" lon="-3.41001">
        <ele>181.6</ele>
        <time>2021-08-10T11:35:54Z</time>
      </trkpt>
      <trkpt lat="48.23143" lon="-3.41008">
        <ele>181.4</ele>
        <time>2021-08-10T11:35:55Z</time>
      </trkpt>
      <trkpt lat="48.23146" lon="-3.41017">
        <ele>181.4</ele>
        <time>2021-08-10T11:35:56Z</time>
      </trkpt>
      <trkpt lat="48.2315" lon="-3.41024">
        <ele>181.4</ele>
        <time>2021-08-10T11:35:57Z</time>
      </trkpt>
      <trkpt lat="48.23153" lon="-3.41032">
        <ele>181.4</ele>
        <time>2021-08-10T11:35:58Z</time>
      </trkpt>
      <trkpt lat="48.23157" lon="-3.4104">
        <ele>181.2</ele>
        <time>2021-08-10T11:35:59Z</time>
      </trkpt>
      <trkpt lat="48.2316" lon="-3.41047">
        <ele>181.2</ele>
        <time>2021-08-10T11:36:00Z</time>
      </trkpt>
      <trkpt lat="48.23163" lon="-3.41054">
        <ele>180.8</ele>
        <time>2021-08-10T11:36:01Z</time>
      </trkpt>
      <trkpt lat="48.23166" lon="-3.41061">
        <ele>180.4</ele>
        <time>2021-08-10T11:36:02Z</time>
      </trkpt>
      <trkpt lat="48.23168" lon="-3.41068">
        <ele>180</ele>
        <time>2021-08-10T11:36:03Z</time>
      </trkpt>
      <trkpt lat="48.23171" lon="-3.41075">
        <ele>179.4</ele>
        <time>2021-08-10T11:36:04Z</time>
      </trkpt>
      <trkpt lat="48.23174" lon="-3.41081">
        <ele>178.8</ele>
        <time>2021-08-10T11:36:05Z</time>
      </trkpt>
      <trkpt lat="48.23176" lon="-3.41087">
        <ele>178.4</ele>
        <time>2021-08-10T11:36:06Z</time>
      </trkpt>
      <trkpt lat="48.23178" lon="-3.41093">
        <ele>178.2</ele>
        <time>2021-08-10T11:36:07Z</time>
      </trkpt>
      <trkpt lat="48.23181" lon="-3.41098">
        <ele>178</ele>
        <time>2021-08-10T11:36:08Z</time>
      </trkpt>
      <trkpt lat="48.23183" lon="-3.41104">
        <ele>178</ele>
        <time>2021-08-10T11:36:09Z</time>
      </trkpt>
      <trkpt lat="48.23187" lon="-3.41111">
        <ele>178</ele>
        <time>2021-08-10T11:36:10Z</time>
      </trkpt>
      <trkpt lat="48.2319" lon="-3.41119">
        <ele>177.8</ele>
        <time>2021-08-10T11:36:11Z</time>
      </trkpt>
      <trkpt lat="48.23194" lon="-3.41127">
        <ele>177.8</ele>
        <time>2021-08-10T11:36:12Z</time>
      </trkpt>
      <trkpt lat="48.23197" lon="-3.41135">
        <ele>177.6</ele>
        <time>2021-08-10T11:36:13Z</time>
      </trkpt>
      <trkpt lat="48.23201" lon="-3.41144">
        <ele>177.4</ele>
        <time>2021-08-10T11:36:14Z</time>
      </trkpt>
      <trkpt lat="48.23205" lon="-3.41152">
        <ele>177.4</ele>
        <time>2021-08-10T11:36:15Z</time>
      </trkpt>
      <trkpt lat="48.23208" lon="-3.41159">
        <ele>177.2</ele>
        <time>2021-08-10T11:36:16Z</time>
      </trkpt>
      <trkpt lat="48.23211" lon="-3.41165">
        <ele>177</ele>
        <time>2021-08-10T11:36:17Z</time>
      </trkpt>
      <trkpt lat="48.23214" lon="-3.41171">
        <ele>177</ele>
        <time>2021-08-10T11:36:18Z</time>
      </trkpt>
      <trkpt lat="48.23217" lon="-3.41178">
        <ele>177</ele>
        <time>2021-08-10T11:36:19Z</time>
      </trkpt>
      <trkpt lat="48.2322" lon="-3.41183">
        <ele>175.8</ele>
        <time>2021-08-10T11:36:20Z</time>
      </trkpt>
      <trkpt lat="48.23223" lon="-3.4119">
        <ele>175.6</ele>
        <time>2021-08-10T11:36:21Z</time>
      </trkpt>
      <trkpt lat="48.23226" lon="-3.41196">
        <ele>175.4</ele>
        <time>2021-08-10T11:36:22Z</time>
      </trkpt>
      <trkpt lat="48.2323" lon="-3.41202">
        <ele>175</ele>
        <time>2021-08-10T11:36:23Z</time>
      </trkpt>
      <trkpt lat="48.23233" lon="-3.41209">
        <ele>175</ele>
        <time>2021-08-10T11:36:24Z</time>
      </trkpt>
      <trkpt lat="48.23237" lon="-3.41216">
        <ele>175</ele>
        <time>2021-08-10T11:36:25Z</time>
      </trkpt>
      <trkpt lat="48.23241" lon="-3.41225">
        <ele>174.8</ele>
        <time>2021-08-10T11:36:26Z</time>
      </trkpt>
      <trkpt lat="48.23245" lon="-3.41234">
        <ele>174.8</ele>
        <time>2021-08-10T11:36:27Z</time>
      </trkpt>
      <trkpt lat="48.2325" lon="-3.41243">
        <ele>174.6</ele>
        <time>2021-08-10T11:36:28Z</time>
      </trkpt>
      <trkpt lat="48.23254" lon="-3.41253">
        <ele>174.6</ele>
        <time>2021-08-10T11:36:29Z</time>
      </trkpt>
      <trkpt lat="48.23259" lon="-3.41262">
        <ele>174.4</ele>
        <time>2021-08-10T11:36:30Z</time>
      </trkpt>
      <trkpt lat="48.23263" lon="-3.4127">
        <ele>174.4</ele>
        <time>2021-08-10T11:36:31Z</time>
      </trkpt>
      <trkpt lat="48.23269" lon="-3.41278">
        <ele>174</ele>
        <time>2021-08-10T11:36:32Z</time>
      </trkpt>
      <trkpt lat="48.23274" lon="-3.41285">
        <ele>173.4</ele>
        <time>2021-08-10T11:36:33Z</time>
      </trkpt>
      <trkpt lat="48.23279" lon="-3.41291">
        <ele>173</ele>
        <time>2021-08-10T11:36:34Z</time>
      </trkpt>
      <trkpt lat="48.23284" lon="-3.41296">
        <ele>172.4</ele>
        <time>2021-08-10T11:36:35Z</time>
      </trkpt>
      <trkpt lat="48.2329" lon="-3.41301">
        <ele>172</ele>
        <time>2021-08-10T11:36:36Z</time>
      </trkpt>
      <trkpt lat="48.23295" lon="-3.41306">
        <ele>171.8</ele>
        <time>2021-08-10T11:36:37Z</time>
      </trkpt>
      <trkpt lat="48.233" lon="-3.41311">
        <ele>171.8</ele>
        <time>2021-08-10T11:36:38Z</time>
      </trkpt>
      <trkpt lat="48.23304" lon="-3.41315">
        <ele>171.6</ele>
        <time>2021-08-10T11:36:39Z</time>
      </trkpt>
      <trkpt lat="48.23308" lon="-3.4132">
        <ele>171.6</ele>
        <time>2021-08-10T11:36:40Z</time>
      </trkpt>
      <trkpt lat="48.23312" lon="-3.41325">
        <ele>171.6</ele>
        <time>2021-08-10T11:36:41Z</time>
      </trkpt>
      <trkpt lat="48.23316" lon="-3.4133">
        <ele>171.6</ele>
        <time>2021-08-10T11:36:42Z</time>
      </trkpt>
      <trkpt lat="48.2332" lon="-3.41333">
        <ele>171.6</ele>
        <time>2021-08-10T11:36:43Z</time>
      </trkpt>
      <trkpt lat="48.23324" lon="-3.41337">
        <ele>171.6</ele>
        <time>2021-08-10T11:36:44Z</time>
      </trkpt>
      <trkpt lat="48.23327" lon="-3.41341">
        <ele>171.6</ele>
        <time>2021-08-10T11:36:45Z</time>
      </trkpt>
      <trkpt lat="48.23331" lon="-3.41345">
        <ele>171.6</ele>
        <time>2021-08-10T11:36:46Z</time>
      </trkpt>
      <trkpt lat="48.23334" lon="-3.41348">
        <ele>172</ele>
        <time>2021-08-10T11:36:47Z</time>
      </trkpt>
      <trkpt lat="48.23336" lon="-3.41349">
        <ele>172.2</ele>
        <time>2021-08-10T11:36:48Z</time>
      </trkpt>
      <trkpt lat="48.23338" lon="-3.41352">
        <ele>172.4</ele>
        <time>2021-08-10T11:36:49Z</time>
      </trkpt>
      <trkpt lat="48.23341" lon="-3.41354">
        <ele>172.4</ele>
        <time>2021-08-10T11:36:50Z</time>
      </trkpt>
      <trkpt lat="48.23344" lon="-3.41357">
        <ele>172.6</ele>
        <time>2021-08-10T11:36:51Z</time>
      </trkpt>
      <trkpt lat="48.23348" lon="-3.41361">
        <ele>172.6</ele>
        <time>2021-08-10T11:36:52Z</time>
      </trkpt>
      <trkpt lat="48.23352" lon="-3.41365">
        <ele>172.6</ele>
        <time>2021-08-10T11:36:53Z</time>
      </trkpt>
      <trkpt lat="48.23356" lon="-3.4137">
        <ele>172.6</ele>
        <time>2021-08-10T11:36:54Z</time>
      </trkpt>
      <trkpt lat="48.2336" lon="-3.41375">
        <ele>172.6</ele>
        <time>2021-08-10T11:36:55Z</time>
      </trkpt>
      <trkpt lat="48.23365" lon="-3.41379">
        <ele>172.6</ele>
        <time>2021-08-10T11:36:56Z</time>
      </trkpt>
      <trkpt lat="48.23369" lon="-3.41384">
        <ele>172.6</ele>
        <time>2021-08-10T11:36:57Z</time>
      </trkpt>
      <trkpt lat="48.23374" lon="-3.41388">
        <ele>172.6</ele>
        <time>2021-08-10T11:36:58Z</time>
      </trkpt>
      <trkpt lat="48.23379" lon="-3.41392">
        <ele>172.4</ele>
        <time>2021-08-10T11:36:59Z</time>
      </trkpt>
      <trkpt lat="48.23384" lon="-3.41396">
        <ele>172</ele>
        <time>2021-08-10T11:37:00Z</time>
      </trkpt>
      <trkpt lat="48.23389" lon="-3.414">
        <ele>171.6</ele>
        <time>2021-08-10T11:37:01Z</time>
      </trkpt>
      <trkpt lat="48.23393" lon="-3.41404">
        <ele>171</ele>
        <time>2021-08-10T11:37:02Z</time>
      </trkpt>
      <trkpt lat="48.23398" lon="-3.41409">
        <ele>170.8</ele>
        <time>2021-08-10T11:37:03Z</time>
      </trkpt>
      <trkpt lat="48.23403" lon="-3.41414">
        <ele>170.2</ele>
        <time>2021-08-10T11:37:04Z</time>
      </trkpt>
      <trkpt lat="48.23408" lon="-3.41419">
        <ele>170</ele>
        <time>2021-08-10T11:37:05Z</time>
      </trkpt>
      <trkpt lat="48.23413" lon="-3.41423">
        <ele>169.8</ele>
        <time>2021-08-10T11:37:06Z</time>
      </trkpt>
      <trkpt lat="48.23418" lon="-3.41428">
        <ele>169.6</ele>
        <time>2021-08-10T11:37:07Z</time>
      </trkpt>
      <trkpt lat="48.23423" lon="-3.41433">
        <ele>169.6</ele>
        <time>2021-08-10T11:37:08Z</time>
      </trkpt>
      <trkpt lat="48.23429" lon="-3.41437">
        <ele>169.6</ele>
        <time>2021-08-10T11:37:09Z</time>
      </trkpt>
      <trkpt lat="48.23434" lon="-3.41442">
        <ele>169.4</ele>
        <time>2021-08-10T11:37:10Z</time>
      </trkpt>
      <trkpt lat="48.23439" lon="-3.41447">
        <ele>169.4</ele>
        <time>2021-08-10T11:37:11Z</time>
      </trkpt>
      <trkpt lat="48.23444" lon="-3.41452">
        <ele>169.4</ele>
        <time>2021-08-10T11:37:12Z</time>
      </trkpt>
      <trkpt lat="48.2345" lon="-3.41457">
        <ele>169.4</ele>
        <time>2021-08-10T11:37:13Z</time>
      </trkpt>
      <trkpt lat="48.23456" lon="-3.41462">
        <ele>169.4</ele>
        <time>2021-08-10T11:37:14Z</time>
      </trkpt>
      <trkpt lat="48.23462" lon="-3.41468">
        <ele>169.2</ele>
        <time>2021-08-10T11:37:15Z</time>
      </trkpt>
      <trkpt lat="48.23468" lon="-3.41474">
        <ele>169.2</ele>
        <time>2021-08-10T11:37:16Z</time>
      </trkpt>
      <trkpt lat="48.23475" lon="-3.4148">
        <ele>169.2</ele>
        <time>2021-08-10T11:37:17Z</time>
      </trkpt>
      <trkpt lat="48.23481" lon="-3.41486">
        <ele>169</ele>
        <time>2021-08-10T11:37:18Z</time>
      </trkpt>
      <trkpt lat="48.23488" lon="-3.41491">
        <ele>168.8</ele>
        <time>2021-08-10T11:37:19Z</time>
      </trkpt>
      <trkpt lat="48.23494" lon="-3.41497">
        <ele>168.8</ele>
        <time>2021-08-10T11:37:20Z</time>
      </trkpt>
      <trkpt lat="48.23501" lon="-3.41503">
        <ele>168.6</ele>
        <time>2021-08-10T11:37:21Z</time>
      </trkpt>
      <trkpt lat="48.23507" lon="-3.41509">
        <ele>168.4</ele>
        <time>2021-08-10T11:37:22Z</time>
      </trkpt>
      <trkpt lat="48.23514" lon="-3.41515">
        <ele>167.8</ele>
        <time>2021-08-10T11:37:23Z</time>
      </trkpt>
      <trkpt lat="48.2352" lon="-3.4152">
        <ele>167</ele>
        <time>2021-08-10T11:37:24Z</time>
      </trkpt>
      <trkpt lat="48.23526" lon="-3.41526">
        <ele>166.6</ele>
        <time>2021-08-10T11:37:25Z</time>
      </trkpt>
      <trkpt lat="48.23532" lon="-3.41532">
        <ele>166.4</ele>
        <time>2021-08-10T11:37:26Z</time>
      </trkpt>
      <trkpt lat="48.23539" lon="-3.41537">
        <ele>166.2</ele>
        <time>2021-08-10T11:37:27Z</time>
      </trkpt>
      <trkpt lat="48.23545" lon="-3.41542">
        <ele>166.2</ele>
        <time>2021-08-10T11:37:28Z</time>
      </trkpt>
      <trkpt lat="48.23551" lon="-3.41548">
        <ele>166</ele>
        <time>2021-08-10T11:37:29Z</time>
      </trkpt>
      <trkpt lat="48.23558" lon="-3.41554">
        <ele>166</ele>
        <time>2021-08-10T11:37:30Z</time>
      </trkpt>
      <trkpt lat="48.23565" lon="-3.4156">
        <ele>166</ele>
        <time>2021-08-10T11:37:31Z</time>
      </trkpt>
      <trkpt lat="48.23572" lon="-3.41566">
        <ele>165.8</ele>
        <time>2021-08-10T11:37:32Z</time>
      </trkpt>
      <trkpt lat="48.23579" lon="-3.41573">
        <ele>165.8</ele>
        <time>2021-08-10T11:37:33Z</time>
      </trkpt>
      <trkpt lat="48.23586" lon="-3.41579">
        <ele>165.8</ele>
        <time>2021-08-10T11:37:34Z</time>
      </trkpt>
      <trkpt lat="48.23592" lon="-3.41586">
        <ele>165.6</ele>
        <time>2021-08-10T11:37:35Z</time>
      </trkpt>
      <trkpt lat="48.23599" lon="-3.41592">
        <ele>165.6</ele>
        <time>2021-08-10T11:37:36Z</time>
      </trkpt>
      <trkpt lat="48.23606" lon="-3.41599">
        <ele>165.4</ele>
        <time>2021-08-10T11:37:37Z</time>
      </trkpt>
      <trkpt lat="48.23612" lon="-3.41605">
        <ele>165.2</ele>
        <time>2021-08-10T11:37:38Z</time>
      </trkpt>
      <trkpt lat="48.23618" lon="-3.41611">
        <ele>165</ele>
        <time>2021-08-10T11:37:39Z</time>
      </trkpt>
      <trkpt lat="48.23624" lon="-3.41616">
        <ele>164.8</ele>
        <time>2021-08-10T11:37:40Z</time>
      </trkpt>
      <trkpt lat="48.23629" lon="-3.41621">
        <ele>164.8</ele>
        <time>2021-08-10T11:37:41Z</time>
      </trkpt>
      <trkpt lat="48.23634" lon="-3.41626">
        <ele>164.6</ele>
        <time>2021-08-10T11:37:42Z</time>
      </trkpt>
      <trkpt lat="48.23639" lon="-3.41631">
        <ele>164.6</ele>
        <time>2021-08-10T11:37:43Z</time>
      </trkpt>
      <trkpt lat="48.23644" lon="-3.41636">
        <ele>164.6</ele>
        <time>2021-08-10T11:37:44Z</time>
      </trkpt>
      <trkpt lat="48.23649" lon="-3.4164">
        <ele>164.8</ele>
        <time>2021-08-10T11:37:45Z</time>
      </trkpt>
      <trkpt lat="48.23654" lon="-3.41645">
        <ele>164.8</ele>
        <time>2021-08-10T11:37:46Z</time>
      </trkpt>
      <trkpt lat="48.2366" lon="-3.4165">
        <ele>164.6</ele>
        <time>2021-08-10T11:37:47Z</time>
      </trkpt>
      <trkpt lat="48.23666" lon="-3.41655">
        <ele>164.6</ele>
        <time>2021-08-10T11:37:48Z</time>
      </trkpt>
      <trkpt lat="48.23671" lon="-3.4166">
        <ele>164.2</ele>
        <time>2021-08-10T11:37:49Z</time>
      </trkpt>
      <trkpt lat="48.23677" lon="-3.41666">
        <ele>164.2</ele>
        <time>2021-08-10T11:37:50Z</time>
      </trkpt>
      <trkpt lat="48.23682" lon="-3.41673">
        <ele>164</ele>
        <time>2021-08-10T11:37:51Z</time>
      </trkpt>
      <trkpt lat="48.23687" lon="-3.4168">
        <ele>164</ele>
        <time>2021-08-10T11:37:52Z</time>
      </trkpt>
      <trkpt lat="48.23691" lon="-3.41688">
        <ele>164</ele>
        <time>2021-08-10T11:37:53Z</time>
      </trkpt>
      <trkpt lat="48.23696" lon="-3.41696">
        <ele>164</ele>
        <time>2021-08-10T11:37:54Z</time>
      </trkpt>
      <trkpt lat="48.237" lon="-3.41705">
        <ele>164</ele>
        <time>2021-08-10T11:37:55Z</time>
      </trkpt>
      <trkpt lat="48.23703" lon="-3.41714">
        <ele>164</ele>
        <time>2021-08-10T11:37:56Z</time>
      </trkpt>
      <trkpt lat="48.23706" lon="-3.41723">
        <ele>163.8</ele>
        <time>2021-08-10T11:37:57Z</time>
      </trkpt>
      <trkpt lat="48.23708" lon="-3.41731">
        <ele>163.8</ele>
        <time>2021-08-10T11:37:58Z</time>
      </trkpt>
      <trkpt lat="48.23711" lon="-3.4174">
        <ele>163.4</ele>
        <time>2021-08-10T11:37:59Z</time>
      </trkpt>
      <trkpt lat="48.23712" lon="-3.41748">
        <ele>163</ele>
        <time>2021-08-10T11:38:00Z</time>
      </trkpt>
      <trkpt lat="48.23714" lon="-3.41756">
        <ele>162.8</ele>
        <time>2021-08-10T11:38:01Z</time>
      </trkpt>
      <trkpt lat="48.23715" lon="-3.41764">
        <ele>162.8</ele>
        <time>2021-08-10T11:38:02Z</time>
      </trkpt>
      <trkpt lat="48.23716" lon="-3.41772">
        <ele>162.6</ele>
        <time>2021-08-10T11:38:03Z</time>
      </trkpt>
      <trkpt lat="48.23717" lon="-3.4178">
        <ele>162.4</ele>
        <time>2021-08-10T11:38:04Z</time>
      </trkpt>
      <trkpt lat="48.23719" lon="-3.41787">
        <ele>162.2</ele>
        <time>2021-08-10T11:38:05Z</time>
      </trkpt>
      <trkpt lat="48.2372" lon="-3.41795">
        <ele>162</ele>
        <time>2021-08-10T11:38:06Z</time>
      </trkpt>
      <trkpt lat="48.23721" lon="-3.41802">
        <ele>162</ele>
        <time>2021-08-10T11:38:07Z</time>
      </trkpt>
      <trkpt lat="48.23722" lon="-3.4181">
        <ele>162</ele>
        <time>2021-08-10T11:38:08Z</time>
      </trkpt>
      <trkpt lat="48.23723" lon="-3.41817">
        <ele>162</ele>
        <time>2021-08-10T11:38:09Z</time>
      </trkpt>
      <trkpt lat="48.23724" lon="-3.41824">
        <ele>161.8</ele>
        <time>2021-08-10T11:38:10Z</time>
      </trkpt>
      <trkpt lat="48.23726" lon="-3.41831">
        <ele>162</ele>
        <time>2021-08-10T11:38:11Z</time>
      </trkpt>
      <trkpt lat="48.23727" lon="-3.41838">
        <ele>162</ele>
        <time>2021-08-10T11:38:12Z</time>
      </trkpt>
      <trkpt lat="48.23729" lon="-3.41846">
        <ele>162</ele>
        <time>2021-08-10T11:38:13Z</time>
      </trkpt>
      <trkpt lat="48.2373" lon="-3.41855">
        <ele>162</ele>
        <time>2021-08-10T11:38:14Z</time>
      </trkpt>
      <trkpt lat="48.23731" lon="-3.41863">
        <ele>162</ele>
        <time>2021-08-10T11:38:15Z</time>
      </trkpt>
      <trkpt lat="48.23733" lon="-3.41872">
        <ele>162</ele>
        <time>2021-08-10T11:38:16Z</time>
      </trkpt>
      <trkpt lat="48.23734" lon="-3.41882">
        <ele>162</ele>
        <time>2021-08-10T11:38:17Z</time>
      </trkpt>
      <trkpt lat="48.23736" lon="-3.41891">
        <ele>162</ele>
        <time>2021-08-10T11:38:18Z</time>
      </trkpt>
      <trkpt lat="48.23737" lon="-3.41901">
        <ele>162</ele>
        <time>2021-08-10T11:38:19Z</time>
      </trkpt>
      <trkpt lat="48.23739" lon="-3.41911">
        <ele>161.8</ele>
        <time>2021-08-10T11:38:20Z</time>
      </trkpt>
      <trkpt lat="48.2374" lon="-3.41921">
        <ele>161.6</ele>
        <time>2021-08-10T11:38:21Z</time>
      </trkpt>
      <trkpt lat="48.23742" lon="-3.41931">
        <ele>161.4</ele>
        <time>2021-08-10T11:38:22Z</time>
      </trkpt>
      <trkpt lat="48.23743" lon="-3.4194">
        <ele>161.2</ele>
        <time>2021-08-10T11:38:23Z</time>
      </trkpt>
      <trkpt lat="48.23745" lon="-3.41949">
        <ele>161</ele>
        <time>2021-08-10T11:38:24Z</time>
      </trkpt>
      <trkpt lat="48.23746" lon="-3.41958">
        <ele>160.8</ele>
        <time>2021-08-10T11:38:25Z</time>
      </trkpt>
      <trkpt lat="48.23748" lon="-3.41966">
        <ele>160.6</ele>
        <time>2021-08-10T11:38:26Z</time>
      </trkpt>
      <trkpt lat="48.23749" lon="-3.41974">
        <ele>160.4</ele>
        <time>2021-08-10T11:38:27Z</time>
      </trkpt>
      <trkpt lat="48.23751" lon="-3.41983">
        <ele>160.2</ele>
        <time>2021-08-10T11:38:28Z</time>
      </trkpt>
      <trkpt lat="48.23752" lon="-3.41991">
        <ele>159.8</ele>
        <time>2021-08-10T11:38:29Z</time>
      </trkpt>
      <trkpt lat="48.23754" lon="-3.41999">
        <ele>159.6</ele>
        <time>2021-08-10T11:38:30Z</time>
      </trkpt>
      <trkpt lat="48.23755" lon="-3.42008">
        <ele>159.4</ele>
        <time>2021-08-10T11:38:31Z</time>
      </trkpt>
      <trkpt lat="48.23756" lon="-3.42017">
        <ele>159.4</ele>
        <time>2021-08-10T11:38:32Z</time>
      </trkpt>
      <trkpt lat="48.23758" lon="-3.42026">
        <ele>159.4</ele>
        <time>2021-08-10T11:38:33Z</time>
      </trkpt>
      <trkpt lat="48.23759" lon="-3.42034">
        <ele>159.4</ele>
        <time>2021-08-10T11:38:34Z</time>
      </trkpt>
      <trkpt lat="48.23761" lon="-3.42044">
        <ele>159.2</ele>
        <time>2021-08-10T11:38:35Z</time>
      </trkpt>
      <trkpt lat="48.23762" lon="-3.42053">
        <ele>159.2</ele>
        <time>2021-08-10T11:38:36Z</time>
      </trkpt>
      <trkpt lat="48.23764" lon="-3.42063">
        <ele>159.2</ele>
        <time>2021-08-10T11:38:37Z</time>
      </trkpt>
      <trkpt lat="48.23765" lon="-3.42074">
        <ele>159.2</ele>
        <time>2021-08-10T11:38:38Z</time>
      </trkpt>
      <trkpt lat="48.23767" lon="-3.42084">
        <ele>159</ele>
        <time>2021-08-10T11:38:39Z</time>
      </trkpt>
      <trkpt lat="48.23768" lon="-3.42094">
        <ele>158.4</ele>
        <time>2021-08-10T11:38:40Z</time>
      </trkpt>
      <trkpt lat="48.23769" lon="-3.42103">
        <ele>158</ele>
        <time>2021-08-10T11:38:41Z</time>
      </trkpt>
      <trkpt lat="48.23771" lon="-3.42113">
        <ele>157.8</ele>
        <time>2021-08-10T11:38:42Z</time>
      </trkpt>
      <trkpt lat="48.23772" lon="-3.42121">
        <ele>157.6</ele>
        <time>2021-08-10T11:38:43Z</time>
      </trkpt>
      <trkpt lat="48.23774" lon="-3.4213">
        <ele>157.4</ele>
        <time>2021-08-10T11:38:44Z</time>
      </trkpt>
      <trkpt lat="48.23776" lon="-3.42139">
        <ele>157.2</ele>
        <time>2021-08-10T11:38:45Z</time>
      </trkpt>
      <trkpt lat="48.23777" lon="-3.42148">
        <ele>157.2</ele>
        <time>2021-08-10T11:38:46Z</time>
      </trkpt>
      <trkpt lat="48.23779" lon="-3.42157">
        <ele>157.2</ele>
        <time>2021-08-10T11:38:47Z</time>
      </trkpt>
      <trkpt lat="48.2378" lon="-3.42167">
        <ele>157</ele>
        <time>2021-08-10T11:38:48Z</time>
      </trkpt>
      <trkpt lat="48.23781" lon="-3.42177">
        <ele>157</ele>
        <time>2021-08-10T11:38:49Z</time>
      </trkpt>
      <trkpt lat="48.23783" lon="-3.42187">
        <ele>157</ele>
        <time>2021-08-10T11:38:50Z</time>
      </trkpt>
      <trkpt lat="48.23786" lon="-3.42197">
        <ele>156.8</ele>
        <time>2021-08-10T11:38:51Z</time>
      </trkpt>
      <trkpt lat="48.23789" lon="-3.42207">
        <ele>156.8</ele>
        <time>2021-08-10T11:38:52Z</time>
      </trkpt>
      <trkpt lat="48.23793" lon="-3.42217">
        <ele>156.8</ele>
        <time>2021-08-10T11:38:53Z</time>
      </trkpt>
      <trkpt lat="48.23798" lon="-3.42225">
        <ele>156.8</ele>
        <time>2021-08-10T11:38:54Z</time>
      </trkpt>
      <trkpt lat="48.23803" lon="-3.42233">
        <ele>156.6</ele>
        <time>2021-08-10T11:38:55Z</time>
      </trkpt>
      <trkpt lat="48.23809" lon="-3.4224">
        <ele>156.6</ele>
        <time>2021-08-10T11:38:56Z</time>
      </trkpt>
      <trkpt lat="48.23815" lon="-3.42246">
        <ele>156.4</ele>
        <time>2021-08-10T11:38:57Z</time>
      </trkpt>
      <trkpt lat="48.2382" lon="-3.42252">
        <ele>155.8</ele>
        <time>2021-08-10T11:38:58Z</time>
      </trkpt>
      <trkpt lat="48.23826" lon="-3.42257">
        <ele>155.4</ele>
        <time>2021-08-10T11:38:59Z</time>
      </trkpt>
      <trkpt lat="48.23832" lon="-3.42261">
        <ele>155</ele>
        <time>2021-08-10T11:39:00Z</time>
      </trkpt>
      <trkpt lat="48.23838" lon="-3.42265">
        <ele>154.6</ele>
        <time>2021-08-10T11:39:01Z</time>
      </trkpt>
      <trkpt lat="48.23844" lon="-3.42268">
        <ele>154.4</ele>
        <time>2021-08-10T11:39:02Z</time>
      </trkpt>
      <trkpt lat="48.2385" lon="-3.42272">
        <ele>154.2</ele>
        <time>2021-08-10T11:39:03Z</time>
      </trkpt>
      <trkpt lat="48.23856" lon="-3.42276">
        <ele>154.2</ele>
        <time>2021-08-10T11:39:04Z</time>
      </trkpt>
      <trkpt lat="48.23862" lon="-3.42279">
        <ele>154.2</ele>
        <time>2021-08-10T11:39:05Z</time>
      </trkpt>
      <trkpt lat="48.23867" lon="-3.42283">
        <ele>154.2</ele>
        <time>2021-08-10T11:39:06Z</time>
      </trkpt>
      <trkpt lat="48.23873" lon="-3.42286">
        <ele>154.2</ele>
        <time>2021-08-10T11:39:07Z</time>
      </trkpt>
      <trkpt lat="48.23879" lon="-3.4229">
        <ele>154.2</ele>
        <time>2021-08-10T11:39:08Z</time>
      </trkpt>
      <trkpt lat="48.23884" lon="-3.42294">
        <ele>154.2</ele>
        <time>2021-08-10T11:39:09Z</time>
      </trkpt>
      <trkpt lat="48.23889" lon="-3.42297">
        <ele>154.2</ele>
        <time>2021-08-10T11:39:10Z</time>
      </trkpt>
      <trkpt lat="48.23895" lon="-3.423">
        <ele>154.2</ele>
        <time>2021-08-10T11:39:11Z</time>
      </trkpt>
      <trkpt lat="48.239" lon="-3.42304">
        <ele>154.2</ele>
        <time>2021-08-10T11:39:12Z</time>
      </trkpt>
      <trkpt lat="48.23906" lon="-3.42307">
        <ele>154.2</ele>
        <time>2021-08-10T11:39:13Z</time>
      </trkpt>
      <trkpt lat="48.23911" lon="-3.42311">
        <ele>154.4</ele>
        <time>2021-08-10T11:39:14Z</time>
      </trkpt>
      <trkpt lat="48.23917" lon="-3.42314">
        <ele>154.4</ele>
        <time>2021-08-10T11:39:15Z</time>
      </trkpt>
      <trkpt lat="48.23923" lon="-3.42318">
        <ele>154.4</ele>
        <time>2021-08-10T11:39:16Z</time>
      </trkpt>
      <trkpt lat="48.23929" lon="-3.42322">
        <ele>154.4</ele>
        <time>2021-08-10T11:39:17Z</time>
      </trkpt>
      <trkpt lat="48.23936" lon="-3.42326">
        <ele>154.4</ele>
        <time>2021-08-10T11:39:18Z</time>
      </trkpt>
      <trkpt lat="48.23943" lon="-3.42331">
        <ele>154.4</ele>
        <time>2021-08-10T11:39:19Z</time>
      </trkpt>
      <trkpt lat="48.2395" lon="-3.42335">
        <ele>154.4</ele>
        <time>2021-08-10T11:39:20Z</time>
      </trkpt>
      <trkpt lat="48.23957" lon="-3.4234">
        <ele>154.4</ele>
        <time>2021-08-10T11:39:21Z</time>
      </trkpt>
      <trkpt lat="48.23963" lon="-3.42344">
        <ele>154.2</ele>
        <time>2021-08-10T11:39:22Z</time>
      </trkpt>
      <trkpt lat="48.2397" lon="-3.42348">
        <ele>154.2</ele>
        <time>2021-08-10T11:39:23Z</time>
      </trkpt>
      <trkpt lat="48.23977" lon="-3.42352">
        <ele>153.8</ele>
        <time>2021-08-10T11:39:24Z</time>
      </trkpt>
      <trkpt lat="48.23983" lon="-3.42356">
        <ele>153.6</ele>
        <time>2021-08-10T11:39:25Z</time>
      </trkpt>
      <trkpt lat="48.2399" lon="-3.4236">
        <ele>153.2</ele>
        <time>2021-08-10T11:39:26Z</time>
      </trkpt>
      <trkpt lat="48.23996" lon="-3.42364">
        <ele>152.8</ele>
        <time>2021-08-10T11:39:27Z</time>
      </trkpt>
      <trkpt lat="48.24002" lon="-3.42368">
        <ele>152.6</ele>
        <time>2021-08-10T11:39:28Z</time>
      </trkpt>
      <trkpt lat="48.24008" lon="-3.42372">
        <ele>152.6</ele>
        <time>2021-08-10T11:39:29Z</time>
      </trkpt>
      <trkpt lat="48.24014" lon="-3.42376">
        <ele>152.6</ele>
        <time>2021-08-10T11:39:30Z</time>
      </trkpt>
      <trkpt lat="48.24019" lon="-3.4238">
        <ele>152.4</ele>
        <time>2021-08-10T11:39:31Z</time>
      </trkpt>
      <trkpt lat="48.24025" lon="-3.42384">
        <ele>152.4</ele>
        <time>2021-08-10T11:39:32Z</time>
      </trkpt>
      <trkpt lat="48.24031" lon="-3.42387">
        <ele>152.4</ele>
        <time>2021-08-10T11:39:33Z</time>
      </trkpt>
      <trkpt lat="48.24036" lon="-3.4239">
        <ele>152.2</ele>
        <time>2021-08-10T11:39:34Z</time>
      </trkpt>
      <trkpt lat="48.24041" lon="-3.42393">
        <ele>152.2</ele>
        <time>2021-08-10T11:39:35Z</time>
      </trkpt>
      <trkpt lat="48.24047" lon="-3.42396">
        <ele>152</ele>
        <time>2021-08-10T11:39:36Z</time>
      </trkpt>
      <trkpt lat="48.24051" lon="-3.42399">
        <ele>152.2</ele>
        <time>2021-08-10T11:39:37Z</time>
      </trkpt>
      <trkpt lat="48.24057" lon="-3.42402">
        <ele>152.4</ele>
        <time>2021-08-10T11:39:38Z</time>
      </trkpt>
      <trkpt lat="48.24062" lon="-3.42406">
        <ele>152.4</ele>
        <time>2021-08-10T11:39:39Z</time>
      </trkpt>
      <trkpt lat="48.24067" lon="-3.42409">
        <ele>152.4</ele>
        <time>2021-08-10T11:39:40Z</time>
      </trkpt>
      <trkpt lat="48.24072" lon="-3.42413">
        <ele>152.4</ele>
        <time>2021-08-10T11:39:41Z</time>
      </trkpt>
      <trkpt lat="48.24077" lon="-3.42416">
        <ele>152.4</ele>
        <time>2021-08-10T11:39:42Z</time>
      </trkpt>
      <trkpt lat="48.24082" lon="-3.4242">
        <ele>152.6</ele>
        <time>2021-08-10T11:39:43Z</time>
      </trkpt>
      <trkpt lat="48.24087" lon="-3.42423">
        <ele>152.6</ele>
        <time>2021-08-10T11:39:44Z</time>
      </trkpt>
      <trkpt lat="48.24092" lon="-3.42426">
        <ele>152.6</ele>
        <time>2021-08-10T11:39:45Z</time>
      </trkpt>
      <trkpt lat="48.24098" lon="-3.42429">
        <ele>152.6</ele>
        <time>2021-08-10T11:39:46Z</time>
      </trkpt>
      <trkpt lat="48.24103" lon="-3.42433">
        <ele>152.6</ele>
        <time>2021-08-10T11:39:47Z</time>
      </trkpt>
      <trkpt lat="48.24108" lon="-3.42436">
        <ele>152.6</ele>
        <time>2021-08-10T11:39:48Z</time>
      </trkpt>
      <trkpt lat="48.24114" lon="-3.42439">
        <ele>152.6</ele>
        <time>2021-08-10T11:39:49Z</time>
      </trkpt>
      <trkpt lat="48.2412" lon="-3.42443">
        <ele>152.6</ele>
        <time>2021-08-10T11:39:50Z</time>
      </trkpt>
      <trkpt lat="48.24126" lon="-3.42447">
        <ele>152.6</ele>
        <time>2021-08-10T11:39:51Z</time>
      </trkpt>
      <trkpt lat="48.24132" lon="-3.4245">
        <ele>152.4</ele>
        <time>2021-08-10T11:39:52Z</time>
      </trkpt>
      <trkpt lat="48.24138" lon="-3.42454">
        <ele>152.4</ele>
        <time>2021-08-10T11:39:53Z</time>
      </trkpt>
      <trkpt lat="48.24144" lon="-3.42457">
        <ele>152.4</ele>
        <time>2021-08-10T11:39:54Z</time>
      </trkpt>
      <trkpt lat="48.2415" lon="-3.42461">
        <ele>152.4</ele>
        <time>2021-08-10T11:39:55Z</time>
      </trkpt>
      <trkpt lat="48.24156" lon="-3.42465">
        <ele>152.4</ele>
        <time>2021-08-10T11:39:56Z</time>
      </trkpt>
      <trkpt lat="48.24163" lon="-3.4247">
        <ele>152.2</ele>
        <time>2021-08-10T11:39:57Z</time>
      </trkpt>
      <trkpt lat="48.24169" lon="-3.42474">
        <ele>151.8</ele>
        <time>2021-08-10T11:39:58Z</time>
      </trkpt>
      <trkpt lat="48.24175" lon="-3.42478">
        <ele>151.4</ele>
        <time>2021-08-10T11:39:59Z</time>
      </trkpt>
      <trkpt lat="48.24181" lon="-3.42481">
        <ele>151</ele>
        <time>2021-08-10T11:40:00Z</time>
      </trkpt>
      <trkpt lat="48.24188" lon="-3.42484">
        <ele>150.8</ele>
        <time>2021-08-10T11:40:01Z</time>
      </trkpt>
      <trkpt lat="48.24194" lon="-3.42486">
        <ele>150.6</ele>
        <time>2021-08-10T11:40:02Z</time>
      </trkpt>
      <trkpt lat="48.242" lon="-3.42487">
        <ele>150.6</ele>
        <time>2021-08-10T11:40:03Z</time>
      </trkpt>
      <trkpt lat="48.24206" lon="-3.42488">
        <ele>150.4</ele>
        <time>2021-08-10T11:40:04Z</time>
      </trkpt>
      <trkpt lat="48.24211" lon="-3.42487">
        <ele>150.4</ele>
        <time>2021-08-10T11:40:05Z</time>
      </trkpt>
      <trkpt lat="48.24217" lon="-3.42487">
        <ele>150.4</ele>
        <time>2021-08-10T11:40:06Z</time>
      </trkpt>
      <trkpt lat="48.24222" lon="-3.42486">
        <ele>150.4</ele>
        <time>2021-08-10T11:40:07Z</time>
      </trkpt>
      <trkpt lat="48.24228" lon="-3.42485">
        <ele>150.4</ele>
        <time>2021-08-10T11:40:08Z</time>
      </trkpt>
      <trkpt lat="48.24233" lon="-3.42484">
        <ele>150.4</ele>
        <time>2021-08-10T11:40:09Z</time>
      </trkpt>
      <trkpt lat="48.24238" lon="-3.42483">
        <ele>150.4</ele>
        <time>2021-08-10T11:40:10Z</time>
      </trkpt>
      <trkpt lat="48.24244" lon="-3.42482">
        <ele>150.4</ele>
        <time>2021-08-10T11:40:11Z</time>
      </trkpt>
      <trkpt lat="48.24249" lon="-3.42481">
        <ele>150.2</ele>
        <time>2021-08-10T11:40:12Z</time>
      </trkpt>
      <trkpt lat="48.24254" lon="-3.42481">
        <ele>150.2</ele>
        <time>2021-08-10T11:40:13Z</time>
      </trkpt>
      <trkpt lat="48.24259" lon="-3.4248">
        <ele>150.2</ele>
        <time>2021-08-10T11:40:14Z</time>
      </trkpt>
      <trkpt lat="48.24264" lon="-3.42479">
        <ele>150.2</ele>
        <time>2021-08-10T11:40:15Z</time>
      </trkpt>
      <trkpt lat="48.24269" lon="-3.42478">
        <ele>150.4</ele>
        <time>2021-08-10T11:40:16Z</time>
      </trkpt>
      <trkpt lat="48.24275" lon="-3.42478">
        <ele>150.4</ele>
        <time>2021-08-10T11:40:17Z</time>
      </trkpt>
      <trkpt lat="48.2428" lon="-3.42477">
        <ele>150.4</ele>
        <time>2021-08-10T11:40:18Z</time>
      </trkpt>
      <trkpt lat="48.24285" lon="-3.42477">
        <ele>150.4</ele>
        <time>2021-08-10T11:40:19Z</time>
      </trkpt>
      <trkpt lat="48.2429" lon="-3.42476">
        <ele>150.4</ele>
        <time>2021-08-10T11:40:20Z</time>
      </trkpt>
      <trkpt lat="48.24296" lon="-3.42475">
        <ele>150.4</ele>
        <time>2021-08-10T11:40:21Z</time>
      </trkpt>
      <trkpt lat="48.24301" lon="-3.42473">
        <ele>150.4</ele>
        <time>2021-08-10T11:40:22Z</time>
      </trkpt>
      <trkpt lat="48.24307" lon="-3.42472">
        <ele>150.4</ele>
        <time>2021-08-10T11:40:23Z</time>
      </trkpt>
      <trkpt lat="48.24312" lon="-3.42471">
        <ele>150.4</ele>
        <time>2021-08-10T11:40:24Z</time>
      </trkpt>
      <trkpt lat="48.24319" lon="-3.4247">
        <ele>150.2</ele>
        <time>2021-08-10T11:40:25Z</time>
      </trkpt>
      <trkpt lat="48.24325" lon="-3.42468">
        <ele>150.2</ele>
        <time>2021-08-10T11:40:26Z</time>
      </trkpt>
      <trkpt lat="48.24331" lon="-3.42467">
        <ele>150</ele>
        <time>2021-08-10T11:40:27Z</time>
      </trkpt>
      <trkpt lat="48.24338" lon="-3.42466">
        <ele>150</ele>
        <time>2021-08-10T11:40:28Z</time>
      </trkpt>
      <trkpt lat="48.24345" lon="-3.42464">
        <ele>149.8</ele>
        <time>2021-08-10T11:40:29Z</time>
      </trkpt>
      <trkpt lat="48.24351" lon="-3.42463">
        <ele>149.8</ele>
        <time>2021-08-10T11:40:30Z</time>
      </trkpt>
      <trkpt lat="48.24358" lon="-3.42462">
        <ele>149.6</ele>
        <time>2021-08-10T11:40:31Z</time>
      </trkpt>
      <trkpt lat="48.24365" lon="-3.4246">
        <ele>149</ele>
        <time>2021-08-10T11:40:32Z</time>
      </trkpt>
      <trkpt lat="48.24371" lon="-3.42459">
        <ele>148.8</ele>
        <time>2021-08-10T11:40:33Z</time>
      </trkpt>
      <trkpt lat="48.24377" lon="-3.42458">
        <ele>148.6</ele>
        <time>2021-08-10T11:40:34Z</time>
      </trkpt>
      <trkpt lat="48.24384" lon="-3.42457">
        <ele>148.4</ele>
        <time>2021-08-10T11:40:35Z</time>
      </trkpt>
      <trkpt lat="48.2439" lon="-3.42456">
        <ele>148.4</ele>
        <time>2021-08-10T11:40:36Z</time>
      </trkpt>
      <trkpt lat="48.24395" lon="-3.42455">
        <ele>148.4</ele>
        <time>2021-08-10T11:40:37Z</time>
      </trkpt>
      <trkpt lat="48.24401" lon="-3.42454">
        <ele>148.4</ele>
        <time>2021-08-10T11:40:38Z</time>
      </trkpt>
      <trkpt lat="48.24407" lon="-3.42453">
        <ele>148.2</ele>
        <time>2021-08-10T11:40:39Z</time>
      </trkpt>
      <trkpt lat="48.24413" lon="-3.42452">
        <ele>148.2</ele>
        <time>2021-08-10T11:40:40Z</time>
      </trkpt>
      <trkpt lat="48.24418" lon="-3.42451">
        <ele>148</ele>
        <time>2021-08-10T11:40:41Z</time>
      </trkpt>
      <trkpt lat="48.24424" lon="-3.4245">
        <ele>148</ele>
        <time>2021-08-10T11:40:42Z</time>
      </trkpt>
      <trkpt lat="48.24429" lon="-3.42449">
        <ele>148</ele>
        <time>2021-08-10T11:40:43Z</time>
      </trkpt>
      <trkpt lat="48.24435" lon="-3.42449">
        <ele>148</ele>
        <time>2021-08-10T11:40:44Z</time>
      </trkpt>
      <trkpt lat="48.2444" lon="-3.42448">
        <ele>147.8</ele>
        <time>2021-08-10T11:40:45Z</time>
      </trkpt>
      <trkpt lat="48.24445" lon="-3.42447">
        <ele>147.8</ele>
        <time>2021-08-10T11:40:46Z</time>
      </trkpt>
      <trkpt lat="48.24451" lon="-3.42446">
        <ele>147.8</ele>
        <time>2021-08-10T11:40:47Z</time>
      </trkpt>
      <trkpt lat="48.24456" lon="-3.42444">
        <ele>147.8</ele>
        <time>2021-08-10T11:40:48Z</time>
      </trkpt>
      <trkpt lat="48.24462" lon="-3.42443">
        <ele>147.8</ele>
        <time>2021-08-10T11:40:49Z</time>
      </trkpt>
      <trkpt lat="48.24467" lon="-3.42442">
        <ele>147.6</ele>
        <time>2021-08-10T11:40:50Z</time>
      </trkpt>
      <trkpt lat="48.24473" lon="-3.42441">
        <ele>147.6</ele>
        <time>2021-08-10T11:40:51Z</time>
      </trkpt>
      <trkpt lat="48.24479" lon="-3.4244">
        <ele>147.6</ele>
        <time>2021-08-10T11:40:52Z</time>
      </trkpt>
      <trkpt lat="48.24485" lon="-3.42439">
        <ele>147.6</ele>
        <time>2021-08-10T11:40:53Z</time>
      </trkpt>
      <trkpt lat="48.24491" lon="-3.42438">
        <ele>147.6</ele>
        <time>2021-08-10T11:40:54Z</time>
      </trkpt>
      <trkpt lat="48.24497" lon="-3.42437">
        <ele>147.6</ele>
        <time>2021-08-10T11:40:55Z</time>
      </trkpt>
      <trkpt lat="48.24504" lon="-3.42435">
        <ele>147.4</ele>
        <time>2021-08-10T11:40:56Z</time>
      </trkpt>
      <trkpt lat="48.2451" lon="-3.42434">
        <ele>147.4</ele>
        <time>2021-08-10T11:40:57Z</time>
      </trkpt>
      <trkpt lat="48.24517" lon="-3.42434">
        <ele>147.2</ele>
        <time>2021-08-10T11:40:58Z</time>
      </trkpt>
      <trkpt lat="48.24524" lon="-3.42434">
        <ele>147</ele>
        <time>2021-08-10T11:40:59Z</time>
      </trkpt>
      <trkpt lat="48.24531" lon="-3.42434">
        <ele>147</ele>
        <time>2021-08-10T11:41:00Z</time>
      </trkpt>
      <trkpt lat="48.24538" lon="-3.42436">
        <ele>147</ele>
        <time>2021-08-10T11:41:01Z</time>
      </trkpt>
      <trkpt lat="48.24544" lon="-3.42438">
        <ele>146.8</ele>
        <time>2021-08-10T11:41:02Z</time>
      </trkpt>
      <trkpt lat="48.24551" lon="-3.4244">
        <ele>146.6</ele>
        <time>2021-08-10T11:41:03Z</time>
      </trkpt>
      <trkpt lat="48.24557" lon="-3.42444">
        <ele>146.4</ele>
        <time>2021-08-10T11:41:04Z</time>
      </trkpt>
      <trkpt lat="48.24563" lon="-3.42449">
        <ele>146.4</ele>
        <time>2021-08-10T11:41:05Z</time>
      </trkpt>
      <trkpt lat="48.24569" lon="-3.42453">
        <ele>146.2</ele>
        <time>2021-08-10T11:41:06Z</time>
      </trkpt>
      <trkpt lat="48.24574" lon="-3.42457">
        <ele>146</ele>
        <time>2021-08-10T11:41:07Z</time>
      </trkpt>
      <trkpt lat="48.24579" lon="-3.42461">
        <ele>145.8</ele>
        <time>2021-08-10T11:41:08Z</time>
      </trkpt>
      <trkpt lat="48.24583" lon="-3.42467">
        <ele>145.8</ele>
        <time>2021-08-10T11:41:09Z</time>
      </trkpt>
      <trkpt lat="48.24587" lon="-3.42473">
        <ele>145.6</ele>
        <time>2021-08-10T11:41:10Z</time>
      </trkpt>
      <trkpt lat="48.24591" lon="-3.42479">
        <ele>145.6</ele>
        <time>2021-08-10T11:41:11Z</time>
      </trkpt>
      <trkpt lat="48.24595" lon="-3.42486">
        <ele>145.6</ele>
        <time>2021-08-10T11:41:12Z</time>
      </trkpt>
      <trkpt lat="48.24598" lon="-3.42493">
        <ele>145.4</ele>
        <time>2021-08-10T11:41:13Z</time>
      </trkpt>
      <trkpt lat="48.24602" lon="-3.425">
        <ele>145.4</ele>
        <time>2021-08-10T11:41:14Z</time>
      </trkpt>
      <trkpt lat="48.24605" lon="-3.42507">
        <ele>145.4</ele>
        <time>2021-08-10T11:41:15Z</time>
      </trkpt>
      <trkpt lat="48.24608" lon="-3.42515">
        <ele>145.4</ele>
        <time>2021-08-10T11:41:16Z</time>
      </trkpt>
      <trkpt lat="48.24612" lon="-3.42523">
        <ele>145.6</ele>
        <time>2021-08-10T11:41:17Z</time>
      </trkpt>
      <trkpt lat="48.24615" lon="-3.4253">
        <ele>145.4</ele>
        <time>2021-08-10T11:41:18Z</time>
      </trkpt>
      <trkpt lat="48.24618" lon="-3.42538">
        <ele>145.2</ele>
        <time>2021-08-10T11:41:19Z</time>
      </trkpt>
      <trkpt lat="48.24621" lon="-3.42546">
        <ele>145.2</ele>
        <time>2021-08-10T11:41:20Z</time>
      </trkpt>
      <trkpt lat="48.24624" lon="-3.42554">
        <ele>145.2</ele>
        <time>2021-08-10T11:41:21Z</time>
      </trkpt>
      <trkpt lat="48.24627" lon="-3.42562">
        <ele>145.2</ele>
        <time>2021-08-10T11:41:22Z</time>
      </trkpt>
      <trkpt lat="48.2463" lon="-3.4257">
        <ele>145.2</ele>
        <time>2021-08-10T11:41:23Z</time>
      </trkpt>
      <trkpt lat="48.24633" lon="-3.42578">
        <ele>145.2</ele>
        <time>2021-08-10T11:41:24Z</time>
      </trkpt>
      <trkpt lat="48.24636" lon="-3.42585">
        <ele>145.2</ele>
        <time>2021-08-10T11:41:25Z</time>
      </trkpt>
      <trkpt lat="48.24639" lon="-3.42593">
        <ele>145.2</ele>
        <time>2021-08-10T11:41:26Z</time>
      </trkpt>
      <trkpt lat="48.24642" lon="-3.426">
        <ele>145.2</ele>
        <time>2021-08-10T11:41:27Z</time>
      </trkpt>
      <trkpt lat="48.24645" lon="-3.42608">
        <ele>145</ele>
        <time>2021-08-10T11:41:28Z</time>
      </trkpt>
      <trkpt lat="48.24648" lon="-3.42615">
        <ele>145.2</ele>
        <time>2021-08-10T11:41:29Z</time>
      </trkpt>
      <trkpt lat="48.24651" lon="-3.42623">
        <ele>145.2</ele>
        <time>2021-08-10T11:41:30Z</time>
      </trkpt>
      <trkpt lat="48.24654" lon="-3.4263">
        <ele>145.2</ele>
        <time>2021-08-10T11:41:31Z</time>
      </trkpt>
      <trkpt lat="48.24657" lon="-3.42638">
        <ele>145</ele>
        <time>2021-08-10T11:41:32Z</time>
      </trkpt>
      <trkpt lat="48.24659" lon="-3.42646">
        <ele>145</ele>
        <time>2021-08-10T11:41:33Z</time>
      </trkpt>
      <trkpt lat="48.24662" lon="-3.42653">
        <ele>145</ele>
        <time>2021-08-10T11:41:34Z</time>
      </trkpt>
      <trkpt lat="48.24665" lon="-3.42661">
        <ele>144.8</ele>
        <time>2021-08-10T11:41:35Z</time>
      </trkpt>
      <trkpt lat="48.24668" lon="-3.42669">
        <ele>144.8</ele>
        <time>2021-08-10T11:41:36Z</time>
      </trkpt>
      <trkpt lat="48.24671" lon="-3.42677">
        <ele>144.8</ele>
        <time>2021-08-10T11:41:37Z</time>
      </trkpt>
      <trkpt lat="48.24674" lon="-3.42684">
        <ele>144.8</ele>
        <time>2021-08-10T11:41:38Z</time>
      </trkpt>
      <trkpt lat="48.24677" lon="-3.42692">
        <ele>144.8</ele>
        <time>2021-08-10T11:41:39Z</time>
      </trkpt>
      <trkpt lat="48.2468" lon="-3.42699">
        <ele>144.6</ele>
        <time>2021-08-10T11:41:40Z</time>
      </trkpt>
      <trkpt lat="48.24683" lon="-3.42707">
        <ele>144.6</ele>
        <time>2021-08-10T11:41:41Z</time>
      </trkpt>
      <trkpt lat="48.24687" lon="-3.42715">
        <ele>144.4</ele>
        <time>2021-08-10T11:41:42Z</time>
      </trkpt>
      <trkpt lat="48.2469" lon="-3.42723">
        <ele>144.4</ele>
        <time>2021-08-10T11:41:43Z</time>
      </trkpt>
      <trkpt lat="48.24693" lon="-3.42731">
        <ele>144.4</ele>
        <time>2021-08-10T11:41:44Z</time>
      </trkpt>
      <trkpt lat="48.24696" lon="-3.42738">
        <ele>144.4</ele>
        <time>2021-08-10T11:41:45Z</time>
      </trkpt>
      <trkpt lat="48.24699" lon="-3.42745">
        <ele>144.4</ele>
        <time>2021-08-10T11:41:46Z</time>
      </trkpt>
      <trkpt lat="48.24702" lon="-3.42752">
        <ele>144.4</ele>
        <time>2021-08-10T11:41:47Z</time>
      </trkpt>
      <trkpt lat="48.24705" lon="-3.42759">
        <ele>144.4</ele>
        <time>2021-08-10T11:41:48Z</time>
      </trkpt>
      <trkpt lat="48.24708" lon="-3.42766">
        <ele>144.2</ele>
        <time>2021-08-10T11:41:49Z</time>
      </trkpt>
      <trkpt lat="48.24711" lon="-3.42774">
        <ele>144.2</ele>
        <time>2021-08-10T11:41:50Z</time>
      </trkpt>
      <trkpt lat="48.24714" lon="-3.42783">
        <ele>143.8</ele>
        <time>2021-08-10T11:41:51Z</time>
      </trkpt>
      <trkpt lat="48.24718" lon="-3.42791">
        <ele>143.6</ele>
        <time>2021-08-10T11:41:52Z</time>
      </trkpt>
      <trkpt lat="48.24721" lon="-3.42799">
        <ele>143.6</ele>
        <time>2021-08-10T11:41:53Z</time>
      </trkpt>
      <trkpt lat="48.24725" lon="-3.42806">
        <ele>143.4</ele>
        <time>2021-08-10T11:41:54Z</time>
      </trkpt>
      <trkpt lat="48.24728" lon="-3.42814">
        <ele>143</ele>
        <time>2021-08-10T11:41:55Z</time>
      </trkpt>
      <trkpt lat="48.24731" lon="-3.42822">
        <ele>143</ele>
        <time>2021-08-10T11:41:56Z</time>
      </trkpt>
      <trkpt lat="48.24734" lon="-3.4283">
        <ele>142.4</ele>
        <time>2021-08-10T11:41:57Z</time>
      </trkpt>
      <trkpt lat="48.24737" lon="-3.42837">
        <ele>142.4</ele>
        <time>2021-08-10T11:41:58Z</time>
      </trkpt>
      <trkpt lat="48.2474" lon="-3.42843">
        <ele>142</ele>
        <time>2021-08-10T11:41:59Z</time>
      </trkpt>
      <trkpt lat="48.24743" lon="-3.4285">
        <ele>142</ele>
        <time>2021-08-10T11:42:00Z</time>
      </trkpt>
      <trkpt lat="48.24747" lon="-3.42858">
        <ele>142</ele>
        <time>2021-08-10T11:42:01Z</time>
      </trkpt>
      <trkpt lat="48.2475" lon="-3.42866">
        <ele>142</ele>
        <time>2021-08-10T11:42:02Z</time>
      </trkpt>
      <trkpt lat="48.24753" lon="-3.42874">
        <ele>141.8</ele>
        <time>2021-08-10T11:42:03Z</time>
      </trkpt>
      <trkpt lat="48.24756" lon="-3.42881">
        <ele>141.8</ele>
        <time>2021-08-10T11:42:04Z</time>
      </trkpt>
      <trkpt lat="48.24759" lon="-3.42889">
        <ele>141.8</ele>
        <time>2021-08-10T11:42:05Z</time>
      </trkpt>
      <trkpt lat="48.24762" lon="-3.42896">
        <ele>141.8</ele>
        <time>2021-08-10T11:42:06Z</time>
      </trkpt>
      <trkpt lat="48.24765" lon="-3.42902">
        <ele>141.8</ele>
        <time>2021-08-10T11:42:07Z</time>
      </trkpt>
      <trkpt lat="48.24768" lon="-3.42908">
        <ele>141.8</ele>
        <time>2021-08-10T11:42:08Z</time>
      </trkpt>
      <trkpt lat="48.24771" lon="-3.42915">
        <ele>141.8</ele>
        <time>2021-08-10T11:42:09Z</time>
      </trkpt>
      <trkpt lat="48.24774" lon="-3.42921">
        <ele>141.8</ele>
        <time>2021-08-10T11:42:10Z</time>
      </trkpt>
      <trkpt lat="48.24777" lon="-3.42929">
        <ele>141.8</ele>
        <time>2021-08-10T11:42:11Z</time>
      </trkpt>
      <trkpt lat="48.2478" lon="-3.42936">
        <ele>141.8</ele>
        <time>2021-08-10T11:42:12Z</time>
      </trkpt>
      <trkpt lat="48.24783" lon="-3.42944">
        <ele>142</ele>
        <time>2021-08-10T11:42:13Z</time>
      </trkpt>
      <trkpt lat="48.24786" lon="-3.42951">
        <ele>142</ele>
        <time>2021-08-10T11:42:14Z</time>
      </trkpt>
      <trkpt lat="48.2479" lon="-3.42957">
        <ele>142</ele>
        <time>2021-08-10T11:42:15Z</time>
      </trkpt>
      <trkpt lat="48.24793" lon="-3.42963">
        <ele>142</ele>
        <time>2021-08-10T11:42:16Z</time>
      </trkpt>
      <trkpt lat="48.24797" lon="-3.4297">
        <ele>142.4</ele>
        <time>2021-08-10T11:42:17Z</time>
      </trkpt>
      <trkpt lat="48.24802" lon="-3.42976">
        <ele>142.4</ele>
        <time>2021-08-10T11:42:18Z</time>
      </trkpt>
      <trkpt lat="48.24807" lon="-3.42981">
        <ele>142.4</ele>
        <time>2021-08-10T11:42:19Z</time>
      </trkpt>
      <trkpt lat="48.24811" lon="-3.42986">
        <ele>142.4</ele>
        <time>2021-08-10T11:42:20Z</time>
      </trkpt>
      <trkpt lat="48.24816" lon="-3.4299">
        <ele>142.4</ele>
        <time>2021-08-10T11:42:21Z</time>
      </trkpt>
      <trkpt lat="48.24821" lon="-3.42993">
        <ele>142.4</ele>
        <time>2021-08-10T11:42:22Z</time>
      </trkpt>
      <trkpt lat="48.24826" lon="-3.42996">
        <ele>142.4</ele>
        <time>2021-08-10T11:42:23Z</time>
      </trkpt>
      <trkpt lat="48.24831" lon="-3.43001">
        <ele>142.4</ele>
        <time>2021-08-10T11:42:24Z</time>
      </trkpt>
      <trkpt lat="48.24836" lon="-3.43005">
        <ele>142.4</ele>
        <time>2021-08-10T11:42:25Z</time>
      </trkpt>
      <trkpt lat="48.2484" lon="-3.43008">
        <ele>142.4</ele>
        <time>2021-08-10T11:42:26Z</time>
      </trkpt>
      <trkpt lat="48.24845" lon="-3.43011">
        <ele>142.4</ele>
        <time>2021-08-10T11:42:27Z</time>
      </trkpt>
      <trkpt lat="48.24849" lon="-3.43014">
        <ele>142.4</ele>
        <time>2021-08-10T11:42:28Z</time>
      </trkpt>
      <trkpt lat="48.24854" lon="-3.43017">
        <ele>142.4</ele>
        <time>2021-08-10T11:42:29Z</time>
      </trkpt>
      <trkpt lat="48.24858" lon="-3.43019">
        <ele>142.4</ele>
        <time>2021-08-10T11:42:30Z</time>
      </trkpt>
      <trkpt lat="48.24862" lon="-3.43022">
        <ele>142.6</ele>
        <time>2021-08-10T11:42:31Z</time>
      </trkpt>
      <trkpt lat="48.24866" lon="-3.43025">
        <ele>142.6</ele>
        <time>2021-08-10T11:42:32Z</time>
      </trkpt>
      <trkpt lat="48.2487" lon="-3.43028">
        <ele>142.6</ele>
        <time>2021-08-10T11:42:33Z</time>
      </trkpt>
      <trkpt lat="48.24874" lon="-3.43032">
        <ele>142.6</ele>
        <time>2021-08-10T11:42:34Z</time>
      </trkpt>
      <trkpt lat="48.24878" lon="-3.43035">
        <ele>142.6</ele>
        <time>2021-08-10T11:42:35Z</time>
      </trkpt>
      <trkpt lat="48.24883" lon="-3.43039">
        <ele>142.6</ele>
        <time>2021-08-10T11:42:36Z</time>
      </trkpt>
      <trkpt lat="48.24887" lon="-3.43042">
        <ele>142.6</ele>
        <time>2021-08-10T11:42:37Z</time>
      </trkpt>
      <trkpt lat="48.24892" lon="-3.43047">
        <ele>142.6</ele>
        <time>2021-08-10T11:42:38Z</time>
      </trkpt>
      <trkpt lat="48.24896" lon="-3.4305">
        <ele>142.6</ele>
        <time>2021-08-10T11:42:39Z</time>
      </trkpt>
      <trkpt lat="48.24901" lon="-3.43053">
        <ele>142.6</ele>
        <time>2021-08-10T11:42:40Z</time>
      </trkpt>
      <trkpt lat="48.24906" lon="-3.43056">
        <ele>142.6</ele>
        <time>2021-08-10T11:42:41Z</time>
      </trkpt>
      <trkpt lat="48.24911" lon="-3.43059">
        <ele>142.6</ele>
        <time>2021-08-10T11:42:42Z</time>
      </trkpt>
      <trkpt lat="48.24916" lon="-3.43063">
        <ele>142.4</ele>
        <time>2021-08-10T11:42:43Z</time>
      </trkpt>
      <trkpt lat="48.24922" lon="-3.43068">
        <ele>142.4</ele>
        <time>2021-08-10T11:42:44Z</time>
      </trkpt>
      <trkpt lat="48.24928" lon="-3.43073">
        <ele>142.4</ele>
        <time>2021-08-10T11:42:45Z</time>
      </trkpt>
      <trkpt lat="48.24933" lon="-3.43078">
        <ele>142.4</ele>
        <time>2021-08-10T11:42:46Z</time>
      </trkpt>
      <trkpt lat="48.2494" lon="-3.43082">
        <ele>142.2</ele>
        <time>2021-08-10T11:42:47Z</time>
      </trkpt>
      <trkpt lat="48.24946" lon="-3.43086">
        <ele>142.2</ele>
        <time>2021-08-10T11:42:48Z</time>
      </trkpt>
      <trkpt lat="48.24952" lon="-3.43091">
        <ele>142.2</ele>
        <time>2021-08-10T11:42:49Z</time>
      </trkpt>
      <trkpt lat="48.24958" lon="-3.43095">
        <ele>142</ele>
        <time>2021-08-10T11:42:50Z</time>
      </trkpt>
      <trkpt lat="48.24965" lon="-3.43098">
        <ele>141.8</ele>
        <time>2021-08-10T11:42:51Z</time>
      </trkpt>
      <trkpt lat="48.24971" lon="-3.43103">
        <ele>141.4</ele>
        <time>2021-08-10T11:42:52Z</time>
      </trkpt>
      <trkpt lat="48.24977" lon="-3.43107">
        <ele>140.4</ele>
        <time>2021-08-10T11:42:53Z</time>
      </trkpt>
      <trkpt lat="48.24982" lon="-3.43111">
        <ele>140</ele>
        <time>2021-08-10T11:42:54Z</time>
      </trkpt>
      <trkpt lat="48.24988" lon="-3.43115">
        <ele>139.6</ele>
        <time>2021-08-10T11:42:55Z</time>
      </trkpt>
      <trkpt lat="48.24993" lon="-3.43118">
        <ele>139.2</ele>
        <time>2021-08-10T11:42:56Z</time>
      </trkpt>
      <trkpt lat="48.24999" lon="-3.43122">
        <ele>139</ele>
        <time>2021-08-10T11:42:57Z</time>
      </trkpt>
      <trkpt lat="48.25004" lon="-3.43126">
        <ele>139</ele>
        <time>2021-08-10T11:42:58Z</time>
      </trkpt>
      <trkpt lat="48.25009" lon="-3.4313">
        <ele>139</ele>
        <time>2021-08-10T11:42:59Z</time>
      </trkpt>
      <trkpt lat="48.25014" lon="-3.43133">
        <ele>139</ele>
        <time>2021-08-10T11:43:00Z</time>
      </trkpt>
      <trkpt lat="48.25019" lon="-3.43136">
        <ele>139</ele>
        <time>2021-08-10T11:43:01Z</time>
      </trkpt>
      <trkpt lat="48.25024" lon="-3.4314">
        <ele>138.8</ele>
        <time>2021-08-10T11:43:02Z</time>
      </trkpt>
      <trkpt lat="48.25029" lon="-3.43144">
        <ele>138.8</ele>
        <time>2021-08-10T11:43:03Z</time>
      </trkpt>
      <trkpt lat="48.25034" lon="-3.43147">
        <ele>138.8</ele>
        <time>2021-08-10T11:43:04Z</time>
      </trkpt>
      <trkpt lat="48.25039" lon="-3.43151">
        <ele>138.8</ele>
        <time>2021-08-10T11:43:05Z</time>
      </trkpt>
      <trkpt lat="48.25045" lon="-3.43154">
        <ele>139</ele>
        <time>2021-08-10T11:43:06Z</time>
      </trkpt>
      <trkpt lat="48.2505" lon="-3.43157">
        <ele>139</ele>
        <time>2021-08-10T11:43:07Z</time>
      </trkpt>
      <trkpt lat="48.25055" lon="-3.4316">
        <ele>139</ele>
        <time>2021-08-10T11:43:08Z</time>
      </trkpt>
      <trkpt lat="48.2506" lon="-3.43165">
        <ele>139</ele>
        <time>2021-08-10T11:43:09Z</time>
      </trkpt>
      <trkpt lat="48.25065" lon="-3.43168">
        <ele>139.2</ele>
        <time>2021-08-10T11:43:10Z</time>
      </trkpt>
      <trkpt lat="48.2507" lon="-3.43171">
        <ele>139.2</ele>
        <time>2021-08-10T11:43:11Z</time>
      </trkpt>
      <trkpt lat="48.25075" lon="-3.43175">
        <ele>139.2</ele>
        <time>2021-08-10T11:43:12Z</time>
      </trkpt>
      <trkpt lat="48.2508" lon="-3.43178">
        <ele>139.2</ele>
        <time>2021-08-10T11:43:13Z</time>
      </trkpt>
      <trkpt lat="48.25085" lon="-3.43181">
        <ele>139.2</ele>
        <time>2021-08-10T11:43:14Z</time>
      </trkpt>
      <trkpt lat="48.2509" lon="-3.43185">
        <ele>139.4</ele>
        <time>2021-08-10T11:43:15Z</time>
      </trkpt>
      <trkpt lat="48.25095" lon="-3.43189">
        <ele>139.4</ele>
        <time>2021-08-10T11:43:16Z</time>
      </trkpt>
      <trkpt lat="48.251" lon="-3.43192">
        <ele>139.4</ele>
        <time>2021-08-10T11:43:17Z</time>
      </trkpt>
      <trkpt lat="48.25106" lon="-3.43196">
        <ele>139.4</ele>
        <time>2021-08-10T11:43:18Z</time>
      </trkpt>
      <trkpt lat="48.25111" lon="-3.432">
        <ele>139.6</ele>
        <time>2021-08-10T11:43:19Z</time>
      </trkpt>
      <trkpt lat="48.25116" lon="-3.43205">
        <ele>139.6</ele>
        <time>2021-08-10T11:43:20Z</time>
      </trkpt>
      <trkpt lat="48.25121" lon="-3.43209">
        <ele>139.6</ele>
        <time>2021-08-10T11:43:21Z</time>
      </trkpt>
      <trkpt lat="48.25126" lon="-3.43215">
        <ele>139.8</ele>
        <time>2021-08-10T11:43:22Z</time>
      </trkpt>
      <trkpt lat="48.2513" lon="-3.4322">
        <ele>139.8</ele>
        <time>2021-08-10T11:43:23Z</time>
      </trkpt>
      <trkpt lat="48.25134" lon="-3.43226">
        <ele>139.8</ele>
        <time>2021-08-10T11:43:24Z</time>
      </trkpt>
      <trkpt lat="48.25137" lon="-3.43233">
        <ele>139.8</ele>
        <time>2021-08-10T11:43:25Z</time>
      </trkpt>
      <trkpt lat="48.25141" lon="-3.43239">
        <ele>139.8</ele>
        <time>2021-08-10T11:43:26Z</time>
      </trkpt>
      <trkpt lat="48.25144" lon="-3.43245">
        <ele>139.8</ele>
        <time>2021-08-10T11:43:27Z</time>
      </trkpt>
      <trkpt lat="48.25147" lon="-3.43251">
        <ele>139.6</ele>
        <time>2021-08-10T11:43:28Z</time>
      </trkpt>
      <trkpt lat="48.2515" lon="-3.43256">
        <ele>139.6</ele>
        <time>2021-08-10T11:43:29Z</time>
      </trkpt>
      <trkpt lat="48.25153" lon="-3.43261">
        <ele>139.6</ele>
        <time>2021-08-10T11:43:30Z</time>
      </trkpt>
      <trkpt lat="48.25155" lon="-3.43266">
        <ele>139.4</ele>
        <time>2021-08-10T11:43:31Z</time>
      </trkpt>
      <trkpt lat="48.25158" lon="-3.43272">
        <ele>139.4</ele>
        <time>2021-08-10T11:43:32Z</time>
      </trkpt>
      <trkpt lat="48.25161" lon="-3.43277">
        <ele>139.6</ele>
        <time>2021-08-10T11:43:33Z</time>
      </trkpt>
      <trkpt lat="48.25163" lon="-3.43283">
        <ele>139.6</ele>
        <time>2021-08-10T11:43:34Z</time>
      </trkpt>
      <trkpt lat="48.25166" lon="-3.43288">
        <ele>139.6</ele>
        <time>2021-08-10T11:43:35Z</time>
      </trkpt>
      <trkpt lat="48.25169" lon="-3.43295">
        <ele>139.6</ele>
        <time>2021-08-10T11:43:36Z</time>
      </trkpt>
      <trkpt lat="48.25173" lon="-3.43301">
        <ele>139.6</ele>
        <time>2021-08-10T11:43:37Z</time>
      </trkpt>
      <trkpt lat="48.25176" lon="-3.43307">
        <ele>139.4</ele>
        <time>2021-08-10T11:43:38Z</time>
      </trkpt>
      <trkpt lat="48.25178" lon="-3.43313">
        <ele>139.2</ele>
        <time>2021-08-10T11:43:39Z</time>
      </trkpt>
      <trkpt lat="48.25181" lon="-3.43319">
        <ele>139.2</ele>
        <time>2021-08-10T11:43:40Z</time>
      </trkpt>
      <trkpt lat="48.25184" lon="-3.43324">
        <ele>139.4</ele>
        <time>2021-08-10T11:43:41Z</time>
      </trkpt>
      <trkpt lat="48.25187" lon="-3.4333">
        <ele>139.4</ele>
        <time>2021-08-10T11:43:42Z</time>
      </trkpt>
      <trkpt lat="48.25191" lon="-3.43335">
        <ele>139.4</ele>
        <time>2021-08-10T11:43:43Z</time>
      </trkpt>
      <trkpt lat="48.25194" lon="-3.43341">
        <ele>139.4</ele>
        <time>2021-08-10T11:43:44Z</time>
      </trkpt>
      <trkpt lat="48.25198" lon="-3.43348">
        <ele>139.4</ele>
        <time>2021-08-10T11:43:45Z</time>
      </trkpt>
      <trkpt lat="48.25201" lon="-3.43356">
        <ele>139.4</ele>
        <time>2021-08-10T11:43:46Z</time>
      </trkpt>
      <trkpt lat="48.25205" lon="-3.43365">
        <ele>139.4</ele>
        <time>2021-08-10T11:43:47Z</time>
      </trkpt>
      <trkpt lat="48.25208" lon="-3.43372">
        <ele>139.2</ele>
        <time>2021-08-10T11:43:48Z</time>
      </trkpt>
      <trkpt lat="48.25211" lon="-3.4338">
        <ele>139.2</ele>
        <time>2021-08-10T11:43:49Z</time>
      </trkpt>
      <trkpt lat="48.25215" lon="-3.43387">
        <ele>139.2</ele>
        <time>2021-08-10T11:43:50Z</time>
      </trkpt>
      <trkpt lat="48.25218" lon="-3.43394">
        <ele>139</ele>
        <time>2021-08-10T11:43:51Z</time>
      </trkpt>
      <trkpt lat="48.25222" lon="-3.43401">
        <ele>138.8</ele>
        <time>2021-08-10T11:43:52Z</time>
      </trkpt>
      <trkpt lat="48.25226" lon="-3.43409">
        <ele>138.4</ele>
        <time>2021-08-10T11:43:53Z</time>
      </trkpt>
      <trkpt lat="48.2523" lon="-3.43417">
        <ele>138</ele>
        <time>2021-08-10T11:43:54Z</time>
      </trkpt>
      <trkpt lat="48.25234" lon="-3.43423">
        <ele>137.6</ele>
        <time>2021-08-10T11:43:55Z</time>
      </trkpt>
      <trkpt lat="48.25237" lon="-3.43431">
        <ele>137.4</ele>
        <time>2021-08-10T11:43:56Z</time>
      </trkpt>
      <trkpt lat="48.25241" lon="-3.43437">
        <ele>137.2</ele>
        <time>2021-08-10T11:43:57Z</time>
      </trkpt>
      <trkpt lat="48.25244" lon="-3.43444">
        <ele>137</ele>
        <time>2021-08-10T11:43:58Z</time>
      </trkpt>
      <trkpt lat="48.25247" lon="-3.4345">
        <ele>137</ele>
        <time>2021-08-10T11:43:59Z</time>
      </trkpt>
      <trkpt lat="48.2525" lon="-3.43457">
        <ele>136.8</ele>
        <time>2021-08-10T11:44:00Z</time>
      </trkpt>
      <trkpt lat="48.25254" lon="-3.43465">
        <ele>136.8</ele>
        <time>2021-08-10T11:44:01Z</time>
      </trkpt>
      <trkpt lat="48.25257" lon="-3.43472">
        <ele>136.8</ele>
        <time>2021-08-10T11:44:02Z</time>
      </trkpt>
      <trkpt lat="48.2526" lon="-3.4348">
        <ele>136.8</ele>
        <time>2021-08-10T11:44:03Z</time>
      </trkpt>
      <trkpt lat="48.25264" lon="-3.43489">
        <ele>136.8</ele>
        <time>2021-08-10T11:44:04Z</time>
      </trkpt>
      <trkpt lat="48.25268" lon="-3.43497">
        <ele>136.8</ele>
        <time>2021-08-10T11:44:05Z</time>
      </trkpt>
      <trkpt lat="48.25271" lon="-3.43504">
        <ele>136.8</ele>
        <time>2021-08-10T11:44:06Z</time>
      </trkpt>
      <trkpt lat="48.25275" lon="-3.43512">
        <ele>136.8</ele>
        <time>2021-08-10T11:44:07Z</time>
      </trkpt>
      <trkpt lat="48.25278" lon="-3.4352">
        <ele>136.8</ele>
        <time>2021-08-10T11:44:08Z</time>
      </trkpt>
      <trkpt lat="48.25281" lon="-3.43528">
        <ele>136.8</ele>
        <time>2021-08-10T11:44:09Z</time>
      </trkpt>
      <trkpt lat="48.25285" lon="-3.43536">
        <ele>136.8</ele>
        <time>2021-08-10T11:44:10Z</time>
      </trkpt>
      <trkpt lat="48.25288" lon="-3.43544">
        <ele>136.8</ele>
        <time>2021-08-10T11:44:11Z</time>
      </trkpt>
      <trkpt lat="48.25291" lon="-3.43551">
        <ele>136.8</ele>
        <time>2021-08-10T11:44:12Z</time>
      </trkpt>
      <trkpt lat="48.25295" lon="-3.43559">
        <ele>136.8</ele>
        <time>2021-08-10T11:44:13Z</time>
      </trkpt>
      <trkpt lat="48.25298" lon="-3.43566">
        <ele>136.6</ele>
        <time>2021-08-10T11:44:14Z</time>
      </trkpt>
      <trkpt lat="48.25301" lon="-3.43574">
        <ele>136.6</ele>
        <time>2021-08-10T11:44:15Z</time>
      </trkpt>
      <trkpt lat="48.25305" lon="-3.43581">
        <ele>136.6</ele>
        <time>2021-08-10T11:44:16Z</time>
      </trkpt>
      <trkpt lat="48.25308" lon="-3.43588">
        <ele>136.6</ele>
        <time>2021-08-10T11:44:17Z</time>
      </trkpt>
      <trkpt lat="48.2531" lon="-3.43594">
        <ele>136.6</ele>
        <time>2021-08-10T11:44:18Z</time>
      </trkpt>
      <trkpt lat="48.25313" lon="-3.436">
        <ele>136.6</ele>
        <time>2021-08-10T11:44:19Z</time>
      </trkpt>
      <trkpt lat="48.25316" lon="-3.43605">
        <ele>136.6</ele>
        <time>2021-08-10T11:44:20Z</time>
      </trkpt>
      <trkpt lat="48.25319" lon="-3.4361">
        <ele>136.6</ele>
        <time>2021-08-10T11:44:21Z</time>
      </trkpt>
      <trkpt lat="48.25321" lon="-3.43616">
        <ele>136.6</ele>
        <time>2021-08-10T11:44:22Z</time>
      </trkpt>
      <trkpt lat="48.25324" lon="-3.43622">
        <ele>136.6</ele>
        <time>2021-08-10T11:44:23Z</time>
      </trkpt>
      <trkpt lat="48.25327" lon="-3.43629">
        <ele>136.6</ele>
        <time>2021-08-10T11:44:24Z</time>
      </trkpt>
      <trkpt lat="48.25329" lon="-3.43637">
        <ele>136.6</ele>
        <time>2021-08-10T11:44:25Z</time>
      </trkpt>
      <trkpt lat="48.25332" lon="-3.43644">
        <ele>136.6</ele>
        <time>2021-08-10T11:44:26Z</time>
      </trkpt>
      <trkpt lat="48.25335" lon="-3.4365">
        <ele>136.8</ele>
        <time>2021-08-10T11:44:27Z</time>
      </trkpt>
      <trkpt lat="48.25337" lon="-3.43655">
        <ele>136.8</ele>
        <time>2021-08-10T11:44:28Z</time>
      </trkpt>
      <trkpt lat="48.2534" lon="-3.43661">
        <ele>136.8</ele>
        <time>2021-08-10T11:44:29Z</time>
      </trkpt>
      <trkpt lat="48.25344" lon="-3.43667">
        <ele>137</ele>
        <time>2021-08-10T11:44:30Z</time>
      </trkpt>
      <trkpt lat="48.25347" lon="-3.43673">
        <ele>137</ele>
        <time>2021-08-10T11:44:31Z</time>
      </trkpt>
      <trkpt lat="48.2535" lon="-3.4368">
        <ele>137</ele>
        <time>2021-08-10T11:44:32Z</time>
      </trkpt>
      <trkpt lat="48.25354" lon="-3.43687">
        <ele>137</ele>
        <time>2021-08-10T11:44:33Z</time>
      </trkpt>
      <trkpt lat="48.25357" lon="-3.43695">
        <ele>137</ele>
        <time>2021-08-10T11:44:34Z</time>
      </trkpt>
      <trkpt lat="48.25361" lon="-3.43702">
        <ele>137</ele>
        <time>2021-08-10T11:44:35Z</time>
      </trkpt>
      <trkpt lat="48.25365" lon="-3.4371">
        <ele>137</ele>
        <time>2021-08-10T11:44:36Z</time>
      </trkpt>
      <trkpt lat="48.25368" lon="-3.43717">
        <ele>137</ele>
        <time>2021-08-10T11:44:37Z</time>
      </trkpt>
      <trkpt lat="48.25371" lon="-3.43725">
        <ele>137</ele>
        <time>2021-08-10T11:44:38Z</time>
      </trkpt>
      <trkpt lat="48.25375" lon="-3.43733">
        <ele>137</ele>
        <time>2021-08-10T11:44:39Z</time>
      </trkpt>
      <trkpt lat="48.25378" lon="-3.43742">
        <ele>136.6</ele>
        <time>2021-08-10T11:44:40Z</time>
      </trkpt>
      <trkpt lat="48.25382" lon="-3.4375">
        <ele>136.4</ele>
        <time>2021-08-10T11:44:41Z</time>
      </trkpt>
      <trkpt lat="48.25386" lon="-3.43758">
        <ele>136.2</ele>
        <time>2021-08-10T11:44:42Z</time>
      </trkpt>
      <trkpt lat="48.25389" lon="-3.43766">
        <ele>135.8</ele>
        <time>2021-08-10T11:44:43Z</time>
      </trkpt>
      <trkpt lat="48.25393" lon="-3.43774">
        <ele>135.4</ele>
        <time>2021-08-10T11:44:44Z</time>
      </trkpt>
      <trkpt lat="48.25397" lon="-3.43783">
        <ele>135</ele>
        <time>2021-08-10T11:44:45Z</time>
      </trkpt>
      <trkpt lat="48.25401" lon="-3.43792">
        <ele>134.8</ele>
        <time>2021-08-10T11:44:46Z</time>
      </trkpt>
      <trkpt lat="48.25405" lon="-3.438">
        <ele>134.8</ele>
        <time>2021-08-10T11:44:47Z</time>
      </trkpt>
      <trkpt lat="48.25409" lon="-3.43809">
        <ele>134.6</ele>
        <time>2021-08-10T11:44:48Z</time>
      </trkpt>
      <trkpt lat="48.25413" lon="-3.43817">
        <ele>134.6</ele>
        <time>2021-08-10T11:44:49Z</time>
      </trkpt>
      <trkpt lat="48.25417" lon="-3.43825">
        <ele>134.6</ele>
        <time>2021-08-10T11:44:50Z</time>
      </trkpt>
      <trkpt lat="48.2542" lon="-3.43833">
        <ele>134.4</ele>
        <time>2021-08-10T11:44:51Z</time>
      </trkpt>
      <trkpt lat="48.25424" lon="-3.43841">
        <ele>134.4</ele>
        <time>2021-08-10T11:44:52Z</time>
      </trkpt>
      <trkpt lat="48.25428" lon="-3.43849">
        <ele>134.2</ele>
        <time>2021-08-10T11:44:53Z</time>
      </trkpt>
      <trkpt lat="48.25431" lon="-3.43857">
        <ele>134.2</ele>
        <time>2021-08-10T11:44:54Z</time>
      </trkpt>
      <trkpt lat="48.25435" lon="-3.43864">
        <ele>134</ele>
        <time>2021-08-10T11:44:55Z</time>
      </trkpt>
      <trkpt lat="48.25438" lon="-3.43871">
        <ele>134</ele>
        <time>2021-08-10T11:44:56Z</time>
      </trkpt>
      <trkpt lat="48.25442" lon="-3.43878">
        <ele>133.8</ele>
        <time>2021-08-10T11:44:57Z</time>
      </trkpt>
      <trkpt lat="48.25445" lon="-3.43886">
        <ele>133.8</ele>
        <time>2021-08-10T11:44:58Z</time>
      </trkpt>
      <trkpt lat="48.25449" lon="-3.43893">
        <ele>133.6</ele>
        <time>2021-08-10T11:44:59Z</time>
      </trkpt>
      <trkpt lat="48.25452" lon="-3.439">
        <ele>133.6</ele>
        <time>2021-08-10T11:45:00Z</time>
      </trkpt>
      <trkpt lat="48.25456" lon="-3.43908">
        <ele>133.6</ele>
        <time>2021-08-10T11:45:01Z</time>
      </trkpt>
      <trkpt lat="48.25459" lon="-3.43915">
        <ele>133.6</ele>
        <time>2021-08-10T11:45:02Z</time>
      </trkpt>
      <trkpt lat="48.25463" lon="-3.43922">
        <ele>133.6</ele>
        <time>2021-08-10T11:45:03Z</time>
      </trkpt>
      <trkpt lat="48.25466" lon="-3.4393">
        <ele>133.6</ele>
        <time>2021-08-10T11:45:04Z</time>
      </trkpt>
      <trkpt lat="48.25469" lon="-3.43937">
        <ele>133.6</ele>
        <time>2021-08-10T11:45:05Z</time>
      </trkpt>
      <trkpt lat="48.25473" lon="-3.43944">
        <ele>133.4</ele>
        <time>2021-08-10T11:45:06Z</time>
      </trkpt>
      <trkpt lat="48.25476" lon="-3.43951">
        <ele>133.4</ele>
        <time>2021-08-10T11:45:07Z</time>
      </trkpt>
      <trkpt lat="48.25479" lon="-3.43957">
        <ele>133.4</ele>
        <time>2021-08-10T11:45:08Z</time>
      </trkpt>
      <trkpt lat="48.25482" lon="-3.43964">
        <ele>133.4</ele>
        <time>2021-08-10T11:45:09Z</time>
      </trkpt>
      <trkpt lat="48.25485" lon="-3.4397">
        <ele>133.6</ele>
        <time>2021-08-10T11:45:10Z</time>
      </trkpt>
      <trkpt lat="48.25488" lon="-3.43975">
        <ele>133.6</ele>
        <time>2021-08-10T11:45:11Z</time>
      </trkpt>
      <trkpt lat="48.25491" lon="-3.43981">
        <ele>133.6</ele>
        <time>2021-08-10T11:45:12Z</time>
      </trkpt>
      <trkpt lat="48.25494" lon="-3.43987">
        <ele>133.6</ele>
        <time>2021-08-10T11:45:13Z</time>
      </trkpt>
      <trkpt lat="48.25497" lon="-3.43993">
        <ele>133.8</ele>
        <time>2021-08-10T11:45:14Z</time>
      </trkpt>
      <trkpt lat="48.255" lon="-3.43999">
        <ele>133.8</ele>
        <time>2021-08-10T11:45:15Z</time>
      </trkpt>
      <trkpt lat="48.25503" lon="-3.44005">
        <ele>134</ele>
        <time>2021-08-10T11:45:16Z</time>
      </trkpt>
      <trkpt lat="48.25506" lon="-3.44013">
        <ele>134</ele>
        <time>2021-08-10T11:45:17Z</time>
      </trkpt>
      <trkpt lat="48.25509" lon="-3.4402">
        <ele>134.2</ele>
        <time>2021-08-10T11:45:18Z</time>
      </trkpt>
      <trkpt lat="48.25513" lon="-3.44027">
        <ele>134.2</ele>
        <time>2021-08-10T11:45:19Z</time>
      </trkpt>
      <trkpt lat="48.25516" lon="-3.44034">
        <ele>134.2</ele>
        <time>2021-08-10T11:45:20Z</time>
      </trkpt>
      <trkpt lat="48.2552" lon="-3.44042">
        <ele>134.2</ele>
        <time>2021-08-10T11:45:21Z</time>
      </trkpt>
      <trkpt lat="48.25523" lon="-3.4405">
        <ele>134.2</ele>
        <time>2021-08-10T11:45:22Z</time>
      </trkpt>
      <trkpt lat="48.25527" lon="-3.44057">
        <ele>134.2</ele>
        <time>2021-08-10T11:45:23Z</time>
      </trkpt>
      <trkpt lat="48.25531" lon="-3.44065">
        <ele>134.2</ele>
        <time>2021-08-10T11:45:24Z</time>
      </trkpt>
      <trkpt lat="48.25535" lon="-3.44072">
        <ele>134.2</ele>
        <time>2021-08-10T11:45:25Z</time>
      </trkpt>
      <trkpt lat="48.25538" lon="-3.4408">
        <ele>134.2</ele>
        <time>2021-08-10T11:45:26Z</time>
      </trkpt>
      <trkpt lat="48.25542" lon="-3.44088">
        <ele>133.8</ele>
        <time>2021-08-10T11:45:27Z</time>
      </trkpt>
      <trkpt lat="48.25545" lon="-3.44095">
        <ele>133.2</ele>
        <time>2021-08-10T11:45:28Z</time>
      </trkpt>
      <trkpt lat="48.25548" lon="-3.44102">
        <ele>132.8</ele>
        <time>2021-08-10T11:45:29Z</time>
      </trkpt>
      <trkpt lat="48.25552" lon="-3.4411">
        <ele>132.6</ele>
        <time>2021-08-10T11:45:30Z</time>
      </trkpt>
      <trkpt lat="48.25555" lon="-3.44117">
        <ele>132.4</ele>
        <time>2021-08-10T11:45:31Z</time>
      </trkpt>
      <trkpt lat="48.25559" lon="-3.44124">
        <ele>132.2</ele>
        <time>2021-08-10T11:45:32Z</time>
      </trkpt>
      <trkpt lat="48.25562" lon="-3.44131">
        <ele>132.2</ele>
        <time>2021-08-10T11:45:33Z</time>
      </trkpt>
      <trkpt lat="48.25565" lon="-3.44138">
        <ele>132.2</ele>
        <time>2021-08-10T11:45:34Z</time>
      </trkpt>
      <trkpt lat="48.25569" lon="-3.44145">
        <ele>132.2</ele>
        <time>2021-08-10T11:45:35Z</time>
      </trkpt>
      <trkpt lat="48.25572" lon="-3.44152">
        <ele>132.2</ele>
        <time>2021-08-10T11:45:36Z</time>
      </trkpt>
      <trkpt lat="48.25575" lon="-3.44159">
        <ele>132.2</ele>
        <time>2021-08-10T11:45:37Z</time>
      </trkpt>
      <trkpt lat="48.25579" lon="-3.44166">
        <ele>132.2</ele>
        <time>2021-08-10T11:45:38Z</time>
      </trkpt>
      <trkpt lat="48.25582" lon="-3.44171">
        <ele>132.2</ele>
        <time>2021-08-10T11:45:39Z</time>
      </trkpt>
      <trkpt lat="48.25586" lon="-3.44177">
        <ele>132.2</ele>
        <time>2021-08-10T11:45:40Z</time>
      </trkpt>
      <trkpt lat="48.25589" lon="-3.44182">
        <ele>132.2</ele>
        <time>2021-08-10T11:45:41Z</time>
      </trkpt>
      <trkpt lat="48.25591" lon="-3.44188">
        <ele>132.2</ele>
        <time>2021-08-10T11:45:42Z</time>
      </trkpt>
      <trkpt lat="48.25594" lon="-3.44195">
        <ele>132.2</ele>
        <time>2021-08-10T11:45:43Z</time>
      </trkpt>
      <trkpt lat="48.25596" lon="-3.44202">
        <ele>132.2</ele>
        <time>2021-08-10T11:45:44Z</time>
      </trkpt>
      <trkpt lat="48.25599" lon="-3.44211">
        <ele>132.2</ele>
        <time>2021-08-10T11:45:45Z</time>
      </trkpt>
      <trkpt lat="48.25601" lon="-3.44219">
        <ele>132.2</ele>
        <time>2021-08-10T11:45:46Z</time>
      </trkpt>
      <trkpt lat="48.25603" lon="-3.44228">
        <ele>132.2</ele>
        <time>2021-08-10T11:45:47Z</time>
      </trkpt>
      <trkpt lat="48.25604" lon="-3.44237">
        <ele>132.2</ele>
        <time>2021-08-10T11:45:48Z</time>
      </trkpt>
      <trkpt lat="48.25605" lon="-3.44246">
        <ele>132.2</ele>
        <time>2021-08-10T11:45:49Z</time>
      </trkpt>
      <trkpt lat="48.25606" lon="-3.44255">
        <ele>132.2</ele>
        <time>2021-08-10T11:45:50Z</time>
      </trkpt>
      <trkpt lat="48.25607" lon="-3.44265">
        <ele>132</ele>
        <time>2021-08-10T11:45:51Z</time>
      </trkpt>
      <trkpt lat="48.25608" lon="-3.44275">
        <ele>132</ele>
        <time>2021-08-10T11:45:52Z</time>
      </trkpt>
      <trkpt lat="48.25608" lon="-3.44284">
        <ele>132</ele>
        <time>2021-08-10T11:45:53Z</time>
      </trkpt>
      <trkpt lat="48.25609" lon="-3.44293">
        <ele>132</ele>
        <time>2021-08-10T11:45:54Z</time>
      </trkpt>
      <trkpt lat="48.25609" lon="-3.44302">
        <ele>132</ele>
        <time>2021-08-10T11:45:55Z</time>
      </trkpt>
      <trkpt lat="48.25609" lon="-3.44311">
        <ele>132</ele>
        <time>2021-08-10T11:45:56Z</time>
      </trkpt>
      <trkpt lat="48.25609" lon="-3.44318">
        <ele>132</ele>
        <time>2021-08-10T11:45:57Z</time>
      </trkpt>
      <trkpt lat="48.2561" lon="-3.44325">
        <ele>132</ele>
        <time>2021-08-10T11:45:58Z</time>
      </trkpt>
      <trkpt lat="48.2561" lon="-3.44333">
        <ele>132</ele>
        <time>2021-08-10T11:45:59Z</time>
      </trkpt>
      <trkpt lat="48.2561" lon="-3.44341">
        <ele>132</ele>
        <time>2021-08-10T11:46:00Z</time>
      </trkpt>
      <trkpt lat="48.25611" lon="-3.4435">
        <ele>132</ele>
        <time>2021-08-10T11:46:01Z</time>
      </trkpt>
      <trkpt lat="48.25611" lon="-3.44358">
        <ele>132</ele>
        <time>2021-08-10T11:46:02Z</time>
      </trkpt>
      <trkpt lat="48.25612" lon="-3.44366">
        <ele>132</ele>
        <time>2021-08-10T11:46:03Z</time>
      </trkpt>
      <trkpt lat="48.25612" lon="-3.44374">
        <ele>132</ele>
        <time>2021-08-10T11:46:04Z</time>
      </trkpt>
      <trkpt lat="48.25612" lon="-3.44382">
        <ele>132</ele>
        <time>2021-08-10T11:46:05Z</time>
      </trkpt>
      <trkpt lat="48.25613" lon="-3.4439">
        <ele>132</ele>
        <time>2021-08-10T11:46:06Z</time>
      </trkpt>
      <trkpt lat="48.25613" lon="-3.44399">
        <ele>132</ele>
        <time>2021-08-10T11:46:07Z</time>
      </trkpt>
      <trkpt lat="48.25613" lon="-3.44407">
        <ele>132</ele>
        <time>2021-08-10T11:46:08Z</time>
      </trkpt>
      <trkpt lat="48.25613" lon="-3.44416">
        <ele>132</ele>
        <time>2021-08-10T11:46:09Z</time>
      </trkpt>
      <trkpt lat="48.25614" lon="-3.44425">
        <ele>132.2</ele>
        <time>2021-08-10T11:46:10Z</time>
      </trkpt>
      <trkpt lat="48.25614" lon="-3.44433">
        <ele>132.2</ele>
        <time>2021-08-10T11:46:11Z</time>
      </trkpt>
      <trkpt lat="48.25614" lon="-3.4444">
        <ele>132.2</ele>
        <time>2021-08-10T11:46:12Z</time>
      </trkpt>
      <trkpt lat="48.25615" lon="-3.44447">
        <ele>132.2</ele>
        <time>2021-08-10T11:46:13Z</time>
      </trkpt>
      <trkpt lat="48.25615" lon="-3.44455">
        <ele>132.2</ele>
        <time>2021-08-10T11:46:14Z</time>
      </trkpt>
      <trkpt lat="48.25615" lon="-3.44462">
        <ele>132.2</ele>
        <time>2021-08-10T11:46:15Z</time>
      </trkpt>
      <trkpt lat="48.25615" lon="-3.44469">
        <ele>132.2</ele>
        <time>2021-08-10T11:46:16Z</time>
      </trkpt>
      <trkpt lat="48.25616" lon="-3.44476">
        <ele>132.2</ele>
        <time>2021-08-10T11:46:17Z</time>
      </trkpt>
      <trkpt lat="48.25616" lon="-3.44484">
        <ele>132.2</ele>
        <time>2021-08-10T11:46:18Z</time>
      </trkpt>
      <trkpt lat="48.25617" lon="-3.44491">
        <ele>132.2</ele>
        <time>2021-08-10T11:46:19Z</time>
      </trkpt>
      <trkpt lat="48.25617" lon="-3.44497">
        <ele>132.4</ele>
        <time>2021-08-10T11:46:20Z</time>
      </trkpt>
      <trkpt lat="48.25617" lon="-3.44504">
        <ele>132.2</ele>
        <time>2021-08-10T11:46:21Z</time>
      </trkpt>
      <trkpt lat="48.25618" lon="-3.4451">
        <ele>132.4</ele>
        <time>2021-08-10T11:46:22Z</time>
      </trkpt>
      <trkpt lat="48.25618" lon="-3.44516">
        <ele>132.6</ele>
        <time>2021-08-10T11:46:23Z</time>
      </trkpt>
      <trkpt lat="48.25618" lon="-3.44522">
        <ele>132.6</ele>
        <time>2021-08-10T11:46:24Z</time>
      </trkpt>
      <trkpt lat="48.25618" lon="-3.44529">
        <ele>132.6</ele>
        <time>2021-08-10T11:46:25Z</time>
      </trkpt>
      <trkpt lat="48.25618" lon="-3.44536">
        <ele>132.6</ele>
        <time>2021-08-10T11:46:26Z</time>
      </trkpt>
      <trkpt lat="48.25618" lon="-3.44543">
        <ele>132.6</ele>
        <time>2021-08-10T11:46:27Z</time>
      </trkpt>
      <trkpt lat="48.25618" lon="-3.4455">
        <ele>132.6</ele>
        <time>2021-08-10T11:46:28Z</time>
      </trkpt>
      <trkpt lat="48.25619" lon="-3.44557">
        <ele>132.6</ele>
        <time>2021-08-10T11:46:29Z</time>
      </trkpt>
      <trkpt lat="48.25619" lon="-3.44564">
        <ele>132.6</ele>
        <time>2021-08-10T11:46:30Z</time>
      </trkpt>
      <trkpt lat="48.25619" lon="-3.44571">
        <ele>132.6</ele>
        <time>2021-08-10T11:46:31Z</time>
      </trkpt>
      <trkpt lat="48.25619" lon="-3.44578">
        <ele>132.6</ele>
        <time>2021-08-10T11:46:32Z</time>
      </trkpt>
      <trkpt lat="48.2562" lon="-3.44584">
        <ele>132.6</ele>
        <time>2021-08-10T11:46:33Z</time>
      </trkpt>
      <trkpt lat="48.2562" lon="-3.4459">
        <ele>132.6</ele>
        <time>2021-08-10T11:46:34Z</time>
      </trkpt>
      <trkpt lat="48.2562" lon="-3.44596">
        <ele>132.6</ele>
        <time>2021-08-10T11:46:35Z</time>
      </trkpt>
      <trkpt lat="48.25621" lon="-3.446">
        <ele>132.6</ele>
        <time>2021-08-10T11:46:36Z</time>
      </trkpt>
      <trkpt lat="48.25621" lon="-3.44604">
        <ele>132.6</ele>
        <time>2021-08-10T11:46:37Z</time>
      </trkpt>
      <trkpt lat="48.25621" lon="-3.44607">
        <ele>132.4</ele>
        <time>2021-08-10T11:46:38Z</time>
      </trkpt>
      <trkpt lat="48.25621" lon="-3.4461">
        <ele>132.4</ele>
        <time>2021-08-10T11:46:39Z</time>
      </trkpt>
      <trkpt lat="48.2562" lon="-3.44612">
        <ele>132.4</ele>
        <time>2021-08-10T11:46:40Z</time>
      </trkpt>
      <trkpt lat="48.25621" lon="-3.44616">
        <ele>132.4</ele>
        <time>2021-08-10T11:46:41Z</time>
      </trkpt>
      <trkpt lat="48.25621" lon="-3.4462">
        <ele>132.4</ele>
        <time>2021-08-10T11:46:42Z</time>
      </trkpt>
      <trkpt lat="48.25621" lon="-3.44624">
        <ele>132.4</ele>
        <time>2021-08-10T11:46:43Z</time>
      </trkpt>
      <trkpt lat="48.25621" lon="-3.4463">
        <ele>132.4</ele>
        <time>2021-08-10T11:46:44Z</time>
      </trkpt>
      <trkpt lat="48.25622" lon="-3.44637">
        <ele>132.4</ele>
        <time>2021-08-10T11:46:45Z</time>
      </trkpt>
      <trkpt lat="48.25622" lon="-3.44645">
        <ele>132.4</ele>
        <time>2021-08-10T11:46:46Z</time>
      </trkpt>
      <trkpt lat="48.25622" lon="-3.44653">
        <ele>132.2</ele>
        <time>2021-08-10T11:46:47Z</time>
      </trkpt>
      <trkpt lat="48.25622" lon="-3.44662">
        <ele>132.2</ele>
        <time>2021-08-10T11:46:48Z</time>
      </trkpt>
      <trkpt lat="48.25622" lon="-3.44671">
        <ele>132.2</ele>
        <time>2021-08-10T11:46:49Z</time>
      </trkpt>
      <trkpt lat="48.25623" lon="-3.4468">
        <ele>132</ele>
        <time>2021-08-10T11:46:50Z</time>
      </trkpt>
      <trkpt lat="48.25623" lon="-3.4469">
        <ele>132</ele>
        <time>2021-08-10T11:46:51Z</time>
      </trkpt>
      <trkpt lat="48.25622" lon="-3.44699">
        <ele>132</ele>
        <time>2021-08-10T11:46:52Z</time>
      </trkpt>
      <trkpt lat="48.25622" lon="-3.44709">
        <ele>132</ele>
        <time>2021-08-10T11:46:53Z</time>
      </trkpt>
      <trkpt lat="48.25621" lon="-3.44718">
        <ele>131.8</ele>
        <time>2021-08-10T11:46:54Z</time>
      </trkpt>
      <trkpt lat="48.2562" lon="-3.44727">
        <ele>131.6</ele>
        <time>2021-08-10T11:46:55Z</time>
      </trkpt>
      <trkpt lat="48.25619" lon="-3.44736">
        <ele>131</ele>
        <time>2021-08-10T11:46:56Z</time>
      </trkpt>
      <trkpt lat="48.25617" lon="-3.44744">
        <ele>130.6</ele>
        <time>2021-08-10T11:46:57Z</time>
      </trkpt>
      <trkpt lat="48.25614" lon="-3.44752">
        <ele>130</ele>
        <time>2021-08-10T11:46:58Z</time>
      </trkpt>
      <trkpt lat="48.25612" lon="-3.4476">
        <ele>129.6</ele>
        <time>2021-08-10T11:46:59Z</time>
      </trkpt>
      <trkpt lat="48.25609" lon="-3.44767">
        <ele>129.4</ele>
        <time>2021-08-10T11:47:00Z</time>
      </trkpt>
      <trkpt lat="48.25607" lon="-3.44774">
        <ele>129.2</ele>
        <time>2021-08-10T11:47:01Z</time>
      </trkpt>
      <trkpt lat="48.25604" lon="-3.44781">
        <ele>129.2</ele>
        <time>2021-08-10T11:47:02Z</time>
      </trkpt>
      <trkpt lat="48.25601" lon="-3.44787">
        <ele>129.2</ele>
        <time>2021-08-10T11:47:03Z</time>
      </trkpt>
      <trkpt lat="48.25598" lon="-3.44793">
        <ele>129.2</ele>
        <time>2021-08-10T11:47:04Z</time>
      </trkpt>
      <trkpt lat="48.25595" lon="-3.44798">
        <ele>129.2</ele>
        <time>2021-08-10T11:47:05Z</time>
      </trkpt>
      <trkpt lat="48.25591" lon="-3.44803">
        <ele>129</ele>
        <time>2021-08-10T11:47:06Z</time>
      </trkpt>
      <trkpt lat="48.25587" lon="-3.44808">
        <ele>129</ele>
        <time>2021-08-10T11:47:07Z</time>
      </trkpt>
      <trkpt lat="48.25583" lon="-3.44813">
        <ele>129</ele>
        <time>2021-08-10T11:47:08Z</time>
      </trkpt>
      <trkpt lat="48.25578" lon="-3.44817">
        <ele>129</ele>
        <time>2021-08-10T11:47:09Z</time>
      </trkpt>
      <trkpt lat="48.25574" lon="-3.44822">
        <ele>129</ele>
        <time>2021-08-10T11:47:10Z</time>
      </trkpt>
      <trkpt lat="48.25569" lon="-3.44826">
        <ele>129</ele>
        <time>2021-08-10T11:47:11Z</time>
      </trkpt>
      <trkpt lat="48.25565" lon="-3.4483">
        <ele>129.2</ele>
        <time>2021-08-10T11:47:12Z</time>
      </trkpt>
      <trkpt lat="48.25561" lon="-3.44834">
        <ele>129.2</ele>
        <time>2021-08-10T11:47:13Z</time>
      </trkpt>
      <trkpt lat="48.25556" lon="-3.44838">
        <ele>129.2</ele>
        <time>2021-08-10T11:47:14Z</time>
      </trkpt>
      <trkpt lat="48.25552" lon="-3.44842">
        <ele>129.2</ele>
        <time>2021-08-10T11:47:15Z</time>
      </trkpt>
      <trkpt lat="48.25548" lon="-3.44846">
        <ele>129.2</ele>
        <time>2021-08-10T11:47:16Z</time>
      </trkpt>
      <trkpt lat="48.25543" lon="-3.44849">
        <ele>129.2</ele>
        <time>2021-08-10T11:47:17Z</time>
      </trkpt>
      <trkpt lat="48.25538" lon="-3.44853">
        <ele>129.2</ele>
        <time>2021-08-10T11:47:18Z</time>
      </trkpt>
      <trkpt lat="48.25534" lon="-3.44857">
        <ele>129.2</ele>
        <time>2021-08-10T11:47:19Z</time>
      </trkpt>
      <trkpt lat="48.25529" lon="-3.4486">
        <ele>129.2</ele>
        <time>2021-08-10T11:47:20Z</time>
      </trkpt>
      <trkpt lat="48.25525" lon="-3.44864">
        <ele>129.2</ele>
        <time>2021-08-10T11:47:21Z</time>
      </trkpt>
      <trkpt lat="48.2552" lon="-3.44868">
        <ele>129.2</ele>
        <time>2021-08-10T11:47:22Z</time>
      </trkpt>
      <trkpt lat="48.25516" lon="-3.44872">
        <ele>129.2</ele>
        <time>2021-08-10T11:47:23Z</time>
      </trkpt>
      <trkpt lat="48.25511" lon="-3.44876">
        <ele>129.2</ele>
        <time>2021-08-10T11:47:24Z</time>
      </trkpt>
      <trkpt lat="48.25506" lon="-3.4488">
        <ele>129.2</ele>
        <time>2021-08-10T11:47:25Z</time>
      </trkpt>
      <trkpt lat="48.25502" lon="-3.44884">
        <ele>129.2</ele>
        <time>2021-08-10T11:47:26Z</time>
      </trkpt>
      <trkpt lat="48.25497" lon="-3.44888">
        <ele>129.2</ele>
        <time>2021-08-10T11:47:27Z</time>
      </trkpt>
      <trkpt lat="48.25492" lon="-3.44893">
        <ele>129.2</ele>
        <time>2021-08-10T11:47:28Z</time>
      </trkpt>
      <trkpt lat="48.25488" lon="-3.44897">
        <ele>129.2</ele>
        <time>2021-08-10T11:47:29Z</time>
      </trkpt>
      <trkpt lat="48.25483" lon="-3.44902">
        <ele>129.2</ele>
        <time>2021-08-10T11:47:30Z</time>
      </trkpt>
      <trkpt lat="48.25479" lon="-3.44906">
        <ele>129.2</ele>
        <time>2021-08-10T11:47:31Z</time>
      </trkpt>
      <trkpt lat="48.25474" lon="-3.4491">
        <ele>129.4</ele>
        <time>2021-08-10T11:47:32Z</time>
      </trkpt>
      <trkpt lat="48.25469" lon="-3.44913">
        <ele>129.4</ele>
        <time>2021-08-10T11:47:33Z</time>
      </trkpt>
      <trkpt lat="48.25465" lon="-3.44917">
        <ele>129.4</ele>
        <time>2021-08-10T11:47:34Z</time>
      </trkpt>
      <trkpt lat="48.25461" lon="-3.44921">
        <ele>129.4</ele>
        <time>2021-08-10T11:47:35Z</time>
      </trkpt>
      <trkpt lat="48.25456" lon="-3.44925">
        <ele>129.4</ele>
        <time>2021-08-10T11:47:36Z</time>
      </trkpt>
      <trkpt lat="48.25451" lon="-3.44929">
        <ele>129.4</ele>
        <time>2021-08-10T11:47:37Z</time>
      </trkpt>
      <trkpt lat="48.25446" lon="-3.44934">
        <ele>129.4</ele>
        <time>2021-08-10T11:47:38Z</time>
      </trkpt>
      <trkpt lat="48.2544" lon="-3.44939">
        <ele>129.4</ele>
        <time>2021-08-10T11:47:39Z</time>
      </trkpt>
      <trkpt lat="48.25434" lon="-3.44943">
        <ele>129.4</ele>
        <time>2021-08-10T11:47:40Z</time>
      </trkpt>
      <trkpt lat="48.25428" lon="-3.44949">
        <ele>129.4</ele>
        <time>2021-08-10T11:47:41Z</time>
      </trkpt>
      <trkpt lat="48.25422" lon="-3.44954">
        <ele>129.4</ele>
        <time>2021-08-10T11:47:42Z</time>
      </trkpt>
      <trkpt lat="48.25417" lon="-3.44959">
        <ele>129.4</ele>
        <time>2021-08-10T11:47:43Z</time>
      </trkpt>
      <trkpt lat="48.25411" lon="-3.44964">
        <ele>129.2</ele>
        <time>2021-08-10T11:47:44Z</time>
      </trkpt>
      <trkpt lat="48.25405" lon="-3.44968">
        <ele>129</ele>
        <time>2021-08-10T11:47:45Z</time>
      </trkpt>
      <trkpt lat="48.25399" lon="-3.44973">
        <ele>128.6</ele>
        <time>2021-08-10T11:47:46Z</time>
      </trkpt>
      <trkpt lat="48.25394" lon="-3.44978">
        <ele>128.2</ele>
        <time>2021-08-10T11:47:47Z</time>
      </trkpt>
      <trkpt lat="48.25388" lon="-3.44982">
        <ele>128</ele>
        <time>2021-08-10T11:47:48Z</time>
      </trkpt>
      <trkpt lat="48.25383" lon="-3.44987">
        <ele>127.6</ele>
        <time>2021-08-10T11:47:49Z</time>
      </trkpt>
      <trkpt lat="48.25378" lon="-3.44991">
        <ele>127.2</ele>
        <time>2021-08-10T11:47:50Z</time>
      </trkpt>
      <trkpt lat="48.25372" lon="-3.44996">
        <ele>127</ele>
        <time>2021-08-10T11:47:51Z</time>
      </trkpt>
      <trkpt lat="48.25367" lon="-3.45">
        <ele>126.8</ele>
        <time>2021-08-10T11:47:52Z</time>
      </trkpt>
      <trkpt lat="48.25362" lon="-3.45004">
        <ele>126.8</ele>
        <time>2021-08-10T11:47:53Z</time>
      </trkpt>
      <trkpt lat="48.25358" lon="-3.45008">
        <ele>126.8</ele>
        <time>2021-08-10T11:47:54Z</time>
      </trkpt>
      <trkpt lat="48.25354" lon="-3.45011">
        <ele>126.8</ele>
        <time>2021-08-10T11:47:55Z</time>
      </trkpt>
      <trkpt lat="48.25349" lon="-3.45015">
        <ele>126.8</ele>
        <time>2021-08-10T11:47:56Z</time>
      </trkpt>
      <trkpt lat="48.25345" lon="-3.45019">
        <ele>126.8</ele>
        <time>2021-08-10T11:47:57Z</time>
      </trkpt>
      <trkpt lat="48.2534" lon="-3.45024">
        <ele>126.8</ele>
        <time>2021-08-10T11:47:58Z</time>
      </trkpt>
      <trkpt lat="48.25335" lon="-3.45028">
        <ele>126.8</ele>
        <time>2021-08-10T11:47:59Z</time>
      </trkpt>
      <trkpt lat="48.2533" lon="-3.45032">
        <ele>126.8</ele>
        <time>2021-08-10T11:48:00Z</time>
      </trkpt>
      <trkpt lat="48.25326" lon="-3.45037">
        <ele>126.6</ele>
        <time>2021-08-10T11:48:01Z</time>
      </trkpt>
      <trkpt lat="48.25321" lon="-3.45041">
        <ele>126.6</ele>
        <time>2021-08-10T11:48:02Z</time>
      </trkpt>
      <trkpt lat="48.25317" lon="-3.45045">
        <ele>126.6</ele>
        <time>2021-08-10T11:48:03Z</time>
      </trkpt>
      <trkpt lat="48.25312" lon="-3.45049">
        <ele>126.6</ele>
        <time>2021-08-10T11:48:04Z</time>
      </trkpt>
      <trkpt lat="48.25307" lon="-3.45053">
        <ele>126.6</ele>
        <time>2021-08-10T11:48:05Z</time>
      </trkpt>
      <trkpt lat="48.25302" lon="-3.45058">
        <ele>126.6</ele>
        <time>2021-08-10T11:48:06Z</time>
      </trkpt>
      <trkpt lat="48.25297" lon="-3.45062">
        <ele>126.6</ele>
        <time>2021-08-10T11:48:07Z</time>
      </trkpt>
      <trkpt lat="48.25292" lon="-3.45066">
        <ele>126.6</ele>
        <time>2021-08-10T11:48:08Z</time>
      </trkpt>
      <trkpt lat="48.25288" lon="-3.45069">
        <ele>126.6</ele>
        <time>2021-08-10T11:48:09Z</time>
      </trkpt>
      <trkpt lat="48.25283" lon="-3.45073">
        <ele>126.6</ele>
        <time>2021-08-10T11:48:10Z</time>
      </trkpt>
      <trkpt lat="48.25279" lon="-3.45077">
        <ele>126.6</ele>
        <time>2021-08-10T11:48:11Z</time>
      </trkpt>
      <trkpt lat="48.25274" lon="-3.45081">
        <ele>126.6</ele>
        <time>2021-08-10T11:48:12Z</time>
      </trkpt>
      <trkpt lat="48.25269" lon="-3.45085">
        <ele>126.6</ele>
        <time>2021-08-10T11:48:13Z</time>
      </trkpt>
      <trkpt lat="48.25264" lon="-3.45089">
        <ele>126.6</ele>
        <time>2021-08-10T11:48:14Z</time>
      </trkpt>
      <trkpt lat="48.25259" lon="-3.45093">
        <ele>126.6</ele>
        <time>2021-08-10T11:48:15Z</time>
      </trkpt>
      <trkpt lat="48.25254" lon="-3.45097">
        <ele>126.6</ele>
        <time>2021-08-10T11:48:16Z</time>
      </trkpt>
      <trkpt lat="48.2525" lon="-3.45101">
        <ele>126.6</ele>
        <time>2021-08-10T11:48:17Z</time>
      </trkpt>
      <trkpt lat="48.25246" lon="-3.45105">
        <ele>126.6</ele>
        <time>2021-08-10T11:48:18Z</time>
      </trkpt>
      <trkpt lat="48.25242" lon="-3.45108">
        <ele>126.6</ele>
        <time>2021-08-10T11:48:19Z</time>
      </trkpt>
      <trkpt lat="48.25238" lon="-3.45111">
        <ele>126.6</ele>
        <time>2021-08-10T11:48:20Z</time>
      </trkpt>
      <trkpt lat="48.25234" lon="-3.45115">
        <ele>126.8</ele>
        <time>2021-08-10T11:48:21Z</time>
      </trkpt>
      <trkpt lat="48.2523" lon="-3.4512">
        <ele>126.8</ele>
        <time>2021-08-10T11:48:22Z</time>
      </trkpt>
      <trkpt lat="48.25226" lon="-3.45124">
        <ele>126.8</ele>
        <time>2021-08-10T11:48:23Z</time>
      </trkpt>
      <trkpt lat="48.25222" lon="-3.45128">
        <ele>126.8</ele>
        <time>2021-08-10T11:48:24Z</time>
      </trkpt>
      <trkpt lat="48.25218" lon="-3.45132">
        <ele>126.8</ele>
        <time>2021-08-10T11:48:25Z</time>
      </trkpt>
      <trkpt lat="48.25214" lon="-3.45135">
        <ele>126.8</ele>
        <time>2021-08-10T11:48:26Z</time>
      </trkpt>
      <trkpt lat="48.25211" lon="-3.45139">
        <ele>126.8</ele>
        <time>2021-08-10T11:48:27Z</time>
      </trkpt>
      <trkpt lat="48.25207" lon="-3.45143">
        <ele>126.8</ele>
        <time>2021-08-10T11:48:28Z</time>
      </trkpt>
      <trkpt lat="48.25203" lon="-3.45148">
        <ele>127</ele>
        <time>2021-08-10T11:48:29Z</time>
      </trkpt>
      <trkpt lat="48.25199" lon="-3.45153">
        <ele>127</ele>
        <time>2021-08-10T11:48:30Z</time>
      </trkpt>
      <trkpt lat="48.25195" lon="-3.45158">
        <ele>127</ele>
        <time>2021-08-10T11:48:31Z</time>
      </trkpt>
      <trkpt lat="48.25191" lon="-3.45164">
        <ele>127</ele>
        <time>2021-08-10T11:48:32Z</time>
      </trkpt>
      <trkpt lat="48.25188" lon="-3.4517">
        <ele>127</ele>
        <time>2021-08-10T11:48:33Z</time>
      </trkpt>
      <trkpt lat="48.25184" lon="-3.45176">
        <ele>127</ele>
        <time>2021-08-10T11:48:34Z</time>
      </trkpt>
      <trkpt lat="48.25181" lon="-3.45183">
        <ele>127</ele>
        <time>2021-08-10T11:48:35Z</time>
      </trkpt>
      <trkpt lat="48.25177" lon="-3.4519">
        <ele>127</ele>
        <time>2021-08-10T11:48:36Z</time>
      </trkpt>
      <trkpt lat="48.25175" lon="-3.45197">
        <ele>127</ele>
        <time>2021-08-10T11:48:37Z</time>
      </trkpt>
      <trkpt lat="48.25172" lon="-3.45205">
        <ele>127</ele>
        <time>2021-08-10T11:48:38Z</time>
      </trkpt>
      <trkpt lat="48.2517" lon="-3.45213">
        <ele>127</ele>
        <time>2021-08-10T11:48:39Z</time>
      </trkpt>
      <trkpt lat="48.25169" lon="-3.45222">
        <ele>127</ele>
        <time>2021-08-10T11:48:40Z</time>
      </trkpt>
      <trkpt lat="48.25168" lon="-3.4523">
        <ele>126.6</ele>
        <time>2021-08-10T11:48:41Z</time>
      </trkpt>
      <trkpt lat="48.25167" lon="-3.45238">
        <ele>126.4</ele>
        <time>2021-08-10T11:48:42Z</time>
      </trkpt>
      <trkpt lat="48.25166" lon="-3.45246">
        <ele>126.2</ele>
        <time>2021-08-10T11:48:43Z</time>
      </trkpt>
      <trkpt lat="48.25165" lon="-3.45255">
        <ele>126</ele>
        <time>2021-08-10T11:48:44Z</time>
      </trkpt>
      <trkpt lat="48.25165" lon="-3.45263">
        <ele>125.8</ele>
        <time>2021-08-10T11:48:45Z</time>
      </trkpt>
      <trkpt lat="48.25164" lon="-3.4527">
        <ele>125.8</ele>
        <time>2021-08-10T11:48:46Z</time>
      </trkpt>
      <trkpt lat="48.25164" lon="-3.45277">
        <ele>125.6</ele>
        <time>2021-08-10T11:48:47Z</time>
      </trkpt>
      <trkpt lat="48.25163" lon="-3.45285">
        <ele>125.4</ele>
        <time>2021-08-10T11:48:48Z</time>
      </trkpt>
      <trkpt lat="48.25163" lon="-3.45293">
        <ele>125.4</ele>
        <time>2021-08-10T11:48:49Z</time>
      </trkpt>
      <trkpt lat="48.25162" lon="-3.45301">
        <ele>125.2</ele>
        <time>2021-08-10T11:48:50Z</time>
      </trkpt>
      <trkpt lat="48.25161" lon="-3.4531">
        <ele>125</ele>
        <time>2021-08-10T11:48:51Z</time>
      </trkpt>
      <trkpt lat="48.25161" lon="-3.45319">
        <ele>124.6</ele>
        <time>2021-08-10T11:48:52Z</time>
      </trkpt>
      <trkpt lat="48.2516" lon="-3.45327">
        <ele>124.4</ele>
        <time>2021-08-10T11:48:53Z</time>
      </trkpt>
      <trkpt lat="48.2516" lon="-3.45336">
        <ele>124.2</ele>
        <time>2021-08-10T11:48:54Z</time>
      </trkpt>
      <trkpt lat="48.25159" lon="-3.45345">
        <ele>124</ele>
        <time>2021-08-10T11:48:55Z</time>
      </trkpt>
      <trkpt lat="48.25159" lon="-3.45354">
        <ele>124</ele>
        <time>2021-08-10T11:48:56Z</time>
      </trkpt>
      <trkpt lat="48.25158" lon="-3.45363">
        <ele>123.8</ele>
        <time>2021-08-10T11:48:57Z</time>
      </trkpt>
      <trkpt lat="48.25158" lon="-3.45371">
        <ele>123.8</ele>
        <time>2021-08-10T11:48:58Z</time>
      </trkpt>
      <trkpt lat="48.25158" lon="-3.4538">
        <ele>123.8</ele>
        <time>2021-08-10T11:48:59Z</time>
      </trkpt>
      <trkpt lat="48.25157" lon="-3.45389">
        <ele>123.8</ele>
        <time>2021-08-10T11:49:00Z</time>
      </trkpt>
      <trkpt lat="48.25157" lon="-3.45398">
        <ele>123.8</ele>
        <time>2021-08-10T11:49:01Z</time>
      </trkpt>
      <trkpt lat="48.25156" lon="-3.45407">
        <ele>123.8</ele>
        <time>2021-08-10T11:49:02Z</time>
      </trkpt>
      <trkpt lat="48.25156" lon="-3.45416">
        <ele>123.8</ele>
        <time>2021-08-10T11:49:03Z</time>
      </trkpt>
      <trkpt lat="48.25156" lon="-3.45425">
        <ele>123.8</ele>
        <time>2021-08-10T11:49:04Z</time>
      </trkpt>
      <trkpt lat="48.25155" lon="-3.45433">
        <ele>123.8</ele>
        <time>2021-08-10T11:49:05Z</time>
      </trkpt>
      <trkpt lat="48.25155" lon="-3.45442">
        <ele>123.8</ele>
        <time>2021-08-10T11:49:06Z</time>
      </trkpt>
      <trkpt lat="48.25155" lon="-3.4545">
        <ele>123.8</ele>
        <time>2021-08-10T11:49:07Z</time>
      </trkpt>
      <trkpt lat="48.25154" lon="-3.45459">
        <ele>123.8</ele>
        <time>2021-08-10T11:49:08Z</time>
      </trkpt>
      <trkpt lat="48.25154" lon="-3.45467">
        <ele>123.8</ele>
        <time>2021-08-10T11:49:09Z</time>
      </trkpt>
      <trkpt lat="48.25154" lon="-3.45476">
        <ele>123.8</ele>
        <time>2021-08-10T11:49:10Z</time>
      </trkpt>
      <trkpt lat="48.25154" lon="-3.45484">
        <ele>123.8</ele>
        <time>2021-08-10T11:49:11Z</time>
      </trkpt>
      <trkpt lat="48.25153" lon="-3.45493">
        <ele>123.8</ele>
        <time>2021-08-10T11:49:12Z</time>
      </trkpt>
      <trkpt lat="48.25153" lon="-3.45501">
        <ele>123.8</ele>
        <time>2021-08-10T11:49:13Z</time>
      </trkpt>
      <trkpt lat="48.25153" lon="-3.4551">
        <ele>123.8</ele>
        <time>2021-08-10T11:49:14Z</time>
      </trkpt>
      <trkpt lat="48.25153" lon="-3.45518">
        <ele>123.8</ele>
        <time>2021-08-10T11:49:15Z</time>
      </trkpt>
      <trkpt lat="48.25154" lon="-3.45527">
        <ele>123.6</ele>
        <time>2021-08-10T11:49:16Z</time>
      </trkpt>
      <trkpt lat="48.25154" lon="-3.45536">
        <ele>123.4</ele>
        <time>2021-08-10T11:49:17Z</time>
      </trkpt>
      <trkpt lat="48.25154" lon="-3.45544">
        <ele>123.4</ele>
        <time>2021-08-10T11:49:18Z</time>
      </trkpt>
      <trkpt lat="48.25154" lon="-3.45553">
        <ele>123.2</ele>
        <time>2021-08-10T11:49:19Z</time>
      </trkpt>
      <trkpt lat="48.25154" lon="-3.45562">
        <ele>123.2</ele>
        <time>2021-08-10T11:49:20Z</time>
      </trkpt>
      <trkpt lat="48.25154" lon="-3.4557">
        <ele>123.2</ele>
        <time>2021-08-10T11:49:21Z</time>
      </trkpt>
      <trkpt lat="48.25154" lon="-3.45578">
        <ele>123.2</ele>
        <time>2021-08-10T11:49:22Z</time>
      </trkpt>
      <trkpt lat="48.25154" lon="-3.45586">
        <ele>123.2</ele>
        <time>2021-08-10T11:49:23Z</time>
      </trkpt>
      <trkpt lat="48.25154" lon="-3.45594">
        <ele>123.2</ele>
        <time>2021-08-10T11:49:24Z</time>
      </trkpt>
      <trkpt lat="48.25154" lon="-3.45601">
        <ele>123.2</ele>
        <time>2021-08-10T11:49:25Z</time>
      </trkpt>
      <trkpt lat="48.25153" lon="-3.45609">
        <ele>123.2</ele>
        <time>2021-08-10T11:49:26Z</time>
      </trkpt>
      <trkpt lat="48.25153" lon="-3.45617">
        <ele>123.2</ele>
        <time>2021-08-10T11:49:27Z</time>
      </trkpt>
      <trkpt lat="48.25153" lon="-3.45625">
        <ele>123</ele>
        <time>2021-08-10T11:49:28Z</time>
      </trkpt>
      <trkpt lat="48.25152" lon="-3.45633">
        <ele>123</ele>
        <time>2021-08-10T11:49:29Z</time>
      </trkpt>
      <trkpt lat="48.25152" lon="-3.45641">
        <ele>123</ele>
        <time>2021-08-10T11:49:30Z</time>
      </trkpt>
      <trkpt lat="48.25152" lon="-3.4565">
        <ele>123</ele>
        <time>2021-08-10T11:49:31Z</time>
      </trkpt>
      <trkpt lat="48.25152" lon="-3.45658">
        <ele>123</ele>
        <time>2021-08-10T11:49:32Z</time>
      </trkpt>
      <trkpt lat="48.25152" lon="-3.45667">
        <ele>123</ele>
        <time>2021-08-10T11:49:33Z</time>
      </trkpt>
      <trkpt lat="48.25153" lon="-3.45676">
        <ele>123</ele>
        <time>2021-08-10T11:49:34Z</time>
      </trkpt>
      <trkpt lat="48.25153" lon="-3.45685">
        <ele>123.2</ele>
        <time>2021-08-10T11:49:35Z</time>
      </trkpt>
      <trkpt lat="48.25154" lon="-3.45693">
        <ele>123.2</ele>
        <time>2021-08-10T11:49:36Z</time>
      </trkpt>
      <trkpt lat="48.25155" lon="-3.45702">
        <ele>123.2</ele>
        <time>2021-08-10T11:49:37Z</time>
      </trkpt>
      <trkpt lat="48.25155" lon="-3.45711">
        <ele>123.2</ele>
        <time>2021-08-10T11:49:38Z</time>
      </trkpt>
      <trkpt lat="48.25156" lon="-3.4572">
        <ele>123.2</ele>
        <time>2021-08-10T11:49:39Z</time>
      </trkpt>
      <trkpt lat="48.25157" lon="-3.45728">
        <ele>123.2</ele>
        <time>2021-08-10T11:49:40Z</time>
      </trkpt>
      <trkpt lat="48.25158" lon="-3.45737">
        <ele>123</ele>
        <time>2021-08-10T11:49:41Z</time>
      </trkpt>
      <trkpt lat="48.25159" lon="-3.45745">
        <ele>123</ele>
        <time>2021-08-10T11:49:42Z</time>
      </trkpt>
      <trkpt lat="48.2516" lon="-3.45753">
        <ele>122.8</ele>
        <time>2021-08-10T11:49:43Z</time>
      </trkpt>
      <trkpt lat="48.25161" lon="-3.45761">
        <ele>122.8</ele>
        <time>2021-08-10T11:49:44Z</time>
      </trkpt>
      <trkpt lat="48.25162" lon="-3.45769">
        <ele>122.6</ele>
        <time>2021-08-10T11:49:45Z</time>
      </trkpt>
      <trkpt lat="48.25164" lon="-3.45776">
        <ele>122.6</ele>
        <time>2021-08-10T11:49:46Z</time>
      </trkpt>
      <trkpt lat="48.25165" lon="-3.45784">
        <ele>122.2</ele>
        <time>2021-08-10T11:49:47Z</time>
      </trkpt>
      <trkpt lat="48.25166" lon="-3.45792">
        <ele>122</ele>
        <time>2021-08-10T11:49:48Z</time>
      </trkpt>
      <trkpt lat="48.25168" lon="-3.458">
        <ele>121.8</ele>
        <time>2021-08-10T11:49:49Z</time>
      </trkpt>
      <trkpt lat="48.2517" lon="-3.45808">
        <ele>121.6</ele>
        <time>2021-08-10T11:49:50Z</time>
      </trkpt>
      <trkpt lat="48.25172" lon="-3.45816">
        <ele>121.4</ele>
        <time>2021-08-10T11:49:51Z</time>
      </trkpt>
      <trkpt lat="48.25174" lon="-3.45823">
        <ele>121.4</ele>
        <time>2021-08-10T11:49:52Z</time>
      </trkpt>
      <trkpt lat="48.25176" lon="-3.45831">
        <ele>121.2</ele>
        <time>2021-08-10T11:49:53Z</time>
      </trkpt>
      <trkpt lat="48.25178" lon="-3.45839">
        <ele>121.2</ele>
        <time>2021-08-10T11:49:54Z</time>
      </trkpt>
      <trkpt lat="48.25181" lon="-3.45847">
        <ele>121.2</ele>
        <time>2021-08-10T11:49:55Z</time>
      </trkpt>
      <trkpt lat="48.25183" lon="-3.45854">
        <ele>121.2</ele>
        <time>2021-08-10T11:49:56Z</time>
      </trkpt>
      <trkpt lat="48.25185" lon="-3.45862">
        <ele>121.2</ele>
        <time>2021-08-10T11:49:57Z</time>
      </trkpt>
      <trkpt lat="48.25188" lon="-3.45869">
        <ele>121.2</ele>
        <time>2021-08-10T11:49:58Z</time>
      </trkpt>
      <trkpt lat="48.2519" lon="-3.45876">
        <ele>121.2</ele>
        <time>2021-08-10T11:49:59Z</time>
      </trkpt>
      <trkpt lat="48.25193" lon="-3.45882">
        <ele>121.2</ele>
        <time>2021-08-10T11:50:00Z</time>
      </trkpt>
      <trkpt lat="48.25195" lon="-3.45887">
        <ele>121.2</ele>
        <time>2021-08-10T11:50:01Z</time>
      </trkpt>
      <trkpt lat="48.25198" lon="-3.45893">
        <ele>121.2</ele>
        <time>2021-08-10T11:50:02Z</time>
      </trkpt>
      <trkpt lat="48.25201" lon="-3.459">
        <ele>121.2</ele>
        <time>2021-08-10T11:50:03Z</time>
      </trkpt>
      <trkpt lat="48.25204" lon="-3.45907">
        <ele>121.2</ele>
        <time>2021-08-10T11:50:04Z</time>
      </trkpt>
      <trkpt lat="48.25207" lon="-3.45914">
        <ele>121.2</ele>
        <time>2021-08-10T11:50:05Z</time>
      </trkpt>
      <trkpt lat="48.2521" lon="-3.45921">
        <ele>121.4</ele>
        <time>2021-08-10T11:50:06Z</time>
      </trkpt>
      <trkpt lat="48.25213" lon="-3.45929">
        <ele>121.4</ele>
        <time>2021-08-10T11:50:07Z</time>
      </trkpt>
      <trkpt lat="48.25216" lon="-3.45936">
        <ele>121.4</ele>
        <time>2021-08-10T11:50:08Z</time>
      </trkpt>
      <trkpt lat="48.25219" lon="-3.45942">
        <ele>121.4</ele>
        <time>2021-08-10T11:50:09Z</time>
      </trkpt>
      <trkpt lat="48.25223" lon="-3.45949">
        <ele>121.4</ele>
        <time>2021-08-10T11:50:10Z</time>
      </trkpt>
      <trkpt lat="48.25226" lon="-3.45956">
        <ele>121.4</ele>
        <time>2021-08-10T11:50:11Z</time>
      </trkpt>
      <trkpt lat="48.2523" lon="-3.45962">
        <ele>121.4</ele>
        <time>2021-08-10T11:50:12Z</time>
      </trkpt>
      <trkpt lat="48.25234" lon="-3.45969">
        <ele>121.4</ele>
        <time>2021-08-10T11:50:13Z</time>
      </trkpt>
      <trkpt lat="48.25237" lon="-3.45975">
        <ele>121.4</ele>
        <time>2021-08-10T11:50:14Z</time>
      </trkpt>
      <trkpt lat="48.25241" lon="-3.45982">
        <ele>121.2</ele>
        <time>2021-08-10T11:50:15Z</time>
      </trkpt>
      <trkpt lat="48.25245" lon="-3.45988">
        <ele>121.2</ele>
        <time>2021-08-10T11:50:16Z</time>
      </trkpt>
      <trkpt lat="48.25249" lon="-3.45993">
        <ele>121.2</ele>
        <time>2021-08-10T11:50:17Z</time>
      </trkpt>
      <trkpt lat="48.25252" lon="-3.45999">
        <ele>121.2</ele>
        <time>2021-08-10T11:50:18Z</time>
      </trkpt>
      <trkpt lat="48.25256" lon="-3.46004">
        <ele>121.2</ele>
        <time>2021-08-10T11:50:19Z</time>
      </trkpt>
      <trkpt lat="48.25259" lon="-3.46009">
        <ele>121</ele>
        <time>2021-08-10T11:50:20Z</time>
      </trkpt>
      <trkpt lat="48.25263" lon="-3.46014">
        <ele>121</ele>
        <time>2021-08-10T11:50:21Z</time>
      </trkpt>
      <trkpt lat="48.25266" lon="-3.46018">
        <ele>121</ele>
        <time>2021-08-10T11:50:22Z</time>
      </trkpt>
      <trkpt lat="48.2527" lon="-3.46022">
        <ele>120.8</ele>
        <time>2021-08-10T11:50:23Z</time>
      </trkpt>
      <trkpt lat="48.25274" lon="-3.46027">
        <ele>120.8</ele>
        <time>2021-08-10T11:50:24Z</time>
      </trkpt>
      <trkpt lat="48.25277" lon="-3.46032">
        <ele>120.8</ele>
        <time>2021-08-10T11:50:25Z</time>
      </trkpt>
      <trkpt lat="48.25281" lon="-3.46036">
        <ele>120.8</ele>
        <time>2021-08-10T11:50:26Z</time>
      </trkpt>
      <trkpt lat="48.25285" lon="-3.46041">
        <ele>120.8</ele>
        <time>2021-08-10T11:50:27Z</time>
      </trkpt>
      <trkpt lat="48.25288" lon="-3.46045">
        <ele>120.8</ele>
        <time>2021-08-10T11:50:28Z</time>
      </trkpt>
      <trkpt lat="48.25292" lon="-3.4605">
        <ele>121</ele>
        <time>2021-08-10T11:50:29Z</time>
      </trkpt>
      <trkpt lat="48.25296" lon="-3.46054">
        <ele>121</ele>
        <time>2021-08-10T11:50:30Z</time>
      </trkpt>
      <trkpt lat="48.25299" lon="-3.46058">
        <ele>121</ele>
        <time>2021-08-10T11:50:31Z</time>
      </trkpt>
      <trkpt lat="48.25304" lon="-3.46063">
        <ele>121</ele>
        <time>2021-08-10T11:50:32Z</time>
      </trkpt>
      <trkpt lat="48.25308" lon="-3.46067">
        <ele>121</ele>
        <time>2021-08-10T11:50:33Z</time>
      </trkpt>
      <trkpt lat="48.25312" lon="-3.46071">
        <ele>121</ele>
        <time>2021-08-10T11:50:34Z</time>
      </trkpt>
      <trkpt lat="48.25316" lon="-3.46075">
        <ele>121</ele>
        <time>2021-08-10T11:50:35Z</time>
      </trkpt>
      <trkpt lat="48.2532" lon="-3.46079">
        <ele>121</ele>
        <time>2021-08-10T11:50:36Z</time>
      </trkpt>
      <trkpt lat="48.25325" lon="-3.46082">
        <ele>121</ele>
        <time>2021-08-10T11:50:37Z</time>
      </trkpt>
      <trkpt lat="48.25329" lon="-3.46086">
        <ele>121.2</ele>
        <time>2021-08-10T11:50:38Z</time>
      </trkpt>
      <trkpt lat="48.25333" lon="-3.46089">
        <ele>121.2</ele>
        <time>2021-08-10T11:50:39Z</time>
      </trkpt>
      <trkpt lat="48.25337" lon="-3.46092">
        <ele>121.2</ele>
        <time>2021-08-10T11:50:40Z</time>
      </trkpt>
      <trkpt lat="48.25341" lon="-3.46095">
        <ele>121</ele>
        <time>2021-08-10T11:50:41Z</time>
      </trkpt>
      <trkpt lat="48.25345" lon="-3.46098">
        <ele>121</ele>
        <time>2021-08-10T11:50:42Z</time>
      </trkpt>
      <trkpt lat="48.25349" lon="-3.46102">
        <ele>121</ele>
        <time>2021-08-10T11:50:43Z</time>
      </trkpt>
      <trkpt lat="48.25353" lon="-3.46104">
        <ele>121</ele>
        <time>2021-08-10T11:50:44Z</time>
      </trkpt>
      <trkpt lat="48.25357" lon="-3.46107">
        <ele>121</ele>
        <time>2021-08-10T11:50:45Z</time>
      </trkpt>
      <trkpt lat="48.25361" lon="-3.46109">
        <ele>121</ele>
        <time>2021-08-10T11:50:46Z</time>
      </trkpt>
      <trkpt lat="48.25366" lon="-3.46112">
        <ele>121</ele>
        <time>2021-08-10T11:50:47Z</time>
      </trkpt>
      <trkpt lat="48.2537" lon="-3.46115">
        <ele>121</ele>
        <time>2021-08-10T11:50:48Z</time>
      </trkpt>
      <trkpt lat="48.25374" lon="-3.46119">
        <ele>121</ele>
        <time>2021-08-10T11:50:49Z</time>
      </trkpt>
      <trkpt lat="48.25379" lon="-3.46122">
        <ele>121.2</ele>
        <time>2021-08-10T11:50:50Z</time>
      </trkpt>
      <trkpt lat="48.25383" lon="-3.46125">
        <ele>121.4</ele>
        <time>2021-08-10T11:50:51Z</time>
      </trkpt>
      <trkpt lat="48.25387" lon="-3.46129">
        <ele>121.4</ele>
        <time>2021-08-10T11:50:52Z</time>
      </trkpt>
      <trkpt lat="48.25391" lon="-3.46132">
        <ele>121.6</ele>
        <time>2021-08-10T11:50:53Z</time>
      </trkpt>
      <trkpt lat="48.25395" lon="-3.46135">
        <ele>121.6</ele>
        <time>2021-08-10T11:50:54Z</time>
      </trkpt>
      <trkpt lat="48.254" lon="-3.46138">
        <ele>121.6</ele>
        <time>2021-08-10T11:50:55Z</time>
      </trkpt>
      <trkpt lat="48.25404" lon="-3.46141">
        <ele>121.8</ele>
        <time>2021-08-10T11:50:56Z</time>
      </trkpt>
      <trkpt lat="48.25409" lon="-3.46144">
        <ele>121.8</ele>
        <time>2021-08-10T11:50:57Z</time>
      </trkpt>
      <trkpt lat="48.25414" lon="-3.46148">
        <ele>121.8</ele>
        <time>2021-08-10T11:50:58Z</time>
      </trkpt>
      <trkpt lat="48.25419" lon="-3.46152">
        <ele>121.8</ele>
        <time>2021-08-10T11:50:59Z</time>
      </trkpt>
      <trkpt lat="48.25424" lon="-3.46156">
        <ele>121.8</ele>
        <time>2021-08-10T11:51:00Z</time>
      </trkpt>
      <trkpt lat="48.2543" lon="-3.4616">
        <ele>121.8</ele>
        <time>2021-08-10T11:51:01Z</time>
      </trkpt>
      <trkpt lat="48.25436" lon="-3.46164">
        <ele>121.8</ele>
        <time>2021-08-10T11:51:02Z</time>
      </trkpt>
      <trkpt lat="48.25442" lon="-3.46168">
        <ele>121.6</ele>
        <time>2021-08-10T11:51:03Z</time>
      </trkpt>
      <trkpt lat="48.25448" lon="-3.46172">
        <ele>121.6</ele>
        <time>2021-08-10T11:51:04Z</time>
      </trkpt>
      <trkpt lat="48.25453" lon="-3.46176">
        <ele>121.6</ele>
        <time>2021-08-10T11:51:05Z</time>
      </trkpt>
      <trkpt lat="48.25459" lon="-3.4618">
        <ele>121.4</ele>
        <time>2021-08-10T11:51:06Z</time>
      </trkpt>
      <trkpt lat="48.25464" lon="-3.46184">
        <ele>121</ele>
        <time>2021-08-10T11:51:07Z</time>
      </trkpt>
      <trkpt lat="48.2547" lon="-3.46188">
        <ele>120.4</ele>
        <time>2021-08-10T11:51:08Z</time>
      </trkpt>
      <trkpt lat="48.25475" lon="-3.46192">
        <ele>120</ele>
        <time>2021-08-10T11:51:09Z</time>
      </trkpt>
      <trkpt lat="48.2548" lon="-3.46196">
        <ele>119.6</ele>
        <time>2021-08-10T11:51:10Z</time>
      </trkpt>
      <trkpt lat="48.25485" lon="-3.462">
        <ele>119.2</ele>
        <time>2021-08-10T11:51:11Z</time>
      </trkpt>
      <trkpt lat="48.2549" lon="-3.46203">
        <ele>119</ele>
        <time>2021-08-10T11:51:12Z</time>
      </trkpt>
      <trkpt lat="48.25495" lon="-3.46207">
        <ele>119</ele>
        <time>2021-08-10T11:51:13Z</time>
      </trkpt>
      <trkpt lat="48.25499" lon="-3.4621">
        <ele>119</ele>
        <time>2021-08-10T11:51:14Z</time>
      </trkpt>
      <trkpt lat="48.25504" lon="-3.46213">
        <ele>119</ele>
        <time>2021-08-10T11:51:15Z</time>
      </trkpt>
      <trkpt lat="48.25509" lon="-3.46217">
        <ele>119</ele>
        <time>2021-08-10T11:51:16Z</time>
      </trkpt>
      <trkpt lat="48.25514" lon="-3.4622">
        <ele>119</ele>
        <time>2021-08-10T11:51:17Z</time>
      </trkpt>
      <trkpt lat="48.25518" lon="-3.46224">
        <ele>119</ele>
        <time>2021-08-10T11:51:18Z</time>
      </trkpt>
      <trkpt lat="48.25523" lon="-3.46227">
        <ele>119</ele>
        <time>2021-08-10T11:51:19Z</time>
      </trkpt>
      <trkpt lat="48.25527" lon="-3.4623">
        <ele>119</ele>
        <time>2021-08-10T11:51:20Z</time>
      </trkpt>
      <trkpt lat="48.25531" lon="-3.46233">
        <ele>119</ele>
        <time>2021-08-10T11:51:21Z</time>
      </trkpt>
      <trkpt lat="48.25536" lon="-3.46236">
        <ele>119</ele>
        <time>2021-08-10T11:51:22Z</time>
      </trkpt>
      <trkpt lat="48.2554" lon="-3.46239">
        <ele>119.2</ele>
        <time>2021-08-10T11:51:23Z</time>
      </trkpt>
      <trkpt lat="48.25545" lon="-3.46242">
        <ele>119.2</ele>
        <time>2021-08-10T11:51:24Z</time>
      </trkpt>
      <trkpt lat="48.25549" lon="-3.46246">
        <ele>119.2</ele>
        <time>2021-08-10T11:51:25Z</time>
      </trkpt>
      <trkpt lat="48.25554" lon="-3.46249">
        <ele>119.2</ele>
        <time>2021-08-10T11:51:26Z</time>
      </trkpt>
      <trkpt lat="48.25558" lon="-3.46253">
        <ele>119.2</ele>
        <time>2021-08-10T11:51:27Z</time>
      </trkpt>
      <trkpt lat="48.25563" lon="-3.46256">
        <ele>119.2</ele>
        <time>2021-08-10T11:51:28Z</time>
      </trkpt>
      <trkpt lat="48.25567" lon="-3.4626">
        <ele>119.2</ele>
        <time>2021-08-10T11:51:29Z</time>
      </trkpt>
      <trkpt lat="48.25572" lon="-3.46264">
        <ele>119.2</ele>
        <time>2021-08-10T11:51:30Z</time>
      </trkpt>
      <trkpt lat="48.25577" lon="-3.46267">
        <ele>119.2</ele>
        <time>2021-08-10T11:51:31Z</time>
      </trkpt>
      <trkpt lat="48.25582" lon="-3.46271">
        <ele>119.2</ele>
        <time>2021-08-10T11:51:32Z</time>
      </trkpt>
      <trkpt lat="48.25587" lon="-3.46274">
        <ele>119</ele>
        <time>2021-08-10T11:51:33Z</time>
      </trkpt>
      <trkpt lat="48.25592" lon="-3.46277">
        <ele>119</ele>
        <time>2021-08-10T11:51:34Z</time>
      </trkpt>
      <trkpt lat="48.25597" lon="-3.4628">
        <ele>118.8</ele>
        <time>2021-08-10T11:51:35Z</time>
      </trkpt>
      <trkpt lat="48.25602" lon="-3.46283">
        <ele>118.8</ele>
        <time>2021-08-10T11:51:36Z</time>
      </trkpt>
      <trkpt lat="48.25608" lon="-3.46286">
        <ele>118.8</ele>
        <time>2021-08-10T11:51:37Z</time>
      </trkpt>
      <trkpt lat="48.25613" lon="-3.46289">
        <ele>118.8</ele>
        <time>2021-08-10T11:51:38Z</time>
      </trkpt>
      <trkpt lat="48.25618" lon="-3.46292">
        <ele>118.6</ele>
        <time>2021-08-10T11:51:39Z</time>
      </trkpt>
      <trkpt lat="48.25623" lon="-3.46296">
        <ele>118.6</ele>
        <time>2021-08-10T11:51:40Z</time>
      </trkpt>
      <trkpt lat="48.25628" lon="-3.46299">
        <ele>118.6</ele>
        <time>2021-08-10T11:51:41Z</time>
      </trkpt>
      <trkpt lat="48.25633" lon="-3.46303">
        <ele>118.6</ele>
        <time>2021-08-10T11:51:42Z</time>
      </trkpt>
      <trkpt lat="48.25637" lon="-3.46308">
        <ele>118.6</ele>
        <time>2021-08-10T11:51:43Z</time>
      </trkpt>
      <trkpt lat="48.25641" lon="-3.46313">
        <ele>118.4</ele>
        <time>2021-08-10T11:51:44Z</time>
      </trkpt>
      <trkpt lat="48.25645" lon="-3.46319">
        <ele>118.4</ele>
        <time>2021-08-10T11:51:45Z</time>
      </trkpt>
      <trkpt lat="48.25649" lon="-3.46325">
        <ele>118.4</ele>
        <time>2021-08-10T11:51:46Z</time>
      </trkpt>
      <trkpt lat="48.25653" lon="-3.46331">
        <ele>118.2</ele>
        <time>2021-08-10T11:51:47Z</time>
      </trkpt>
      <trkpt lat="48.25656" lon="-3.46337">
        <ele>118.2</ele>
        <time>2021-08-10T11:51:48Z</time>
      </trkpt>
      <trkpt lat="48.25659" lon="-3.46344">
        <ele>118.2</ele>
        <time>2021-08-10T11:51:49Z</time>
      </trkpt>
      <trkpt lat="48.25662" lon="-3.46351">
        <ele>118.2</ele>
        <time>2021-08-10T11:51:50Z</time>
      </trkpt>
      <trkpt lat="48.25665" lon="-3.46358">
        <ele>118.2</ele>
        <time>2021-08-10T11:51:51Z</time>
      </trkpt>
      <trkpt lat="48.25667" lon="-3.46366">
        <ele>118</ele>
        <time>2021-08-10T11:51:52Z</time>
      </trkpt>
      <trkpt lat="48.25669" lon="-3.46373">
        <ele>118</ele>
        <time>2021-08-10T11:51:53Z</time>
      </trkpt>
      <trkpt lat="48.25671" lon="-3.46381">
        <ele>118</ele>
        <time>2021-08-10T11:51:54Z</time>
      </trkpt>
      <trkpt lat="48.25673" lon="-3.46389">
        <ele>118</ele>
        <time>2021-08-10T11:51:55Z</time>
      </trkpt>
      <trkpt lat="48.25675" lon="-3.46397">
        <ele>118</ele>
        <time>2021-08-10T11:51:56Z</time>
      </trkpt>
      <trkpt lat="48.25675" lon="-3.46405">
        <ele>118</ele>
        <time>2021-08-10T11:51:57Z</time>
      </trkpt>
      <trkpt lat="48.25676" lon="-3.46413">
        <ele>117.8</ele>
        <time>2021-08-10T11:51:58Z</time>
      </trkpt>
      <trkpt lat="48.25677" lon="-3.46421">
        <ele>117.8</ele>
        <time>2021-08-10T11:51:59Z</time>
      </trkpt>
      <trkpt lat="48.25677" lon="-3.46429">
        <ele>117.8</ele>
        <time>2021-08-10T11:52:00Z</time>
      </trkpt>
      <trkpt lat="48.25677" lon="-3.46437">
        <ele>117.6</ele>
        <time>2021-08-10T11:52:01Z</time>
      </trkpt>
      <trkpt lat="48.25676" lon="-3.46445">
        <ele>117.6</ele>
        <time>2021-08-10T11:52:02Z</time>
      </trkpt>
      <trkpt lat="48.25675" lon="-3.46453">
        <ele>117.6</ele>
        <time>2021-08-10T11:52:03Z</time>
      </trkpt>
      <trkpt lat="48.25674" lon="-3.46461">
        <ele>117.4</ele>
        <time>2021-08-10T11:52:04Z</time>
      </trkpt>
      <trkpt lat="48.25673" lon="-3.46469">
        <ele>117.4</ele>
        <time>2021-08-10T11:52:05Z</time>
      </trkpt>
      <trkpt lat="48.25671" lon="-3.46477">
        <ele>117.4</ele>
        <time>2021-08-10T11:52:06Z</time>
      </trkpt>
      <trkpt lat="48.2567" lon="-3.46485">
        <ele>117.4</ele>
        <time>2021-08-10T11:52:07Z</time>
      </trkpt>
      <trkpt lat="48.25668" lon="-3.46493">
        <ele>117.2</ele>
        <time>2021-08-10T11:52:08Z</time>
      </trkpt>
      <trkpt lat="48.25666" lon="-3.465">
        <ele>117.2</ele>
        <time>2021-08-10T11:52:09Z</time>
      </trkpt>
      <trkpt lat="48.25664" lon="-3.46506">
        <ele>117</ele>
        <time>2021-08-10T11:52:10Z</time>
      </trkpt>
      <trkpt lat="48.25661" lon="-3.46512">
        <ele>117</ele>
        <time>2021-08-10T11:52:11Z</time>
      </trkpt>
      <trkpt lat="48.25659" lon="-3.46519">
        <ele>117</ele>
        <time>2021-08-10T11:52:12Z</time>
      </trkpt>
      <trkpt lat="48.25657" lon="-3.46525">
        <ele>116.8</ele>
        <time>2021-08-10T11:52:13Z</time>
      </trkpt>
      <trkpt lat="48.25655" lon="-3.46532">
        <ele>116.8</ele>
        <time>2021-08-10T11:52:14Z</time>
      </trkpt>
      <trkpt lat="48.25653" lon="-3.46539">
        <ele>116.8</ele>
        <time>2021-08-10T11:52:15Z</time>
      </trkpt>
      <trkpt lat="48.25651" lon="-3.46546">
        <ele>116.8</ele>
        <time>2021-08-10T11:52:16Z</time>
      </trkpt>
      <trkpt lat="48.25649" lon="-3.46554">
        <ele>116.6</ele>
        <time>2021-08-10T11:52:17Z</time>
      </trkpt>
      <trkpt lat="48.25647" lon="-3.46561">
        <ele>116.6</ele>
        <time>2021-08-10T11:52:18Z</time>
      </trkpt>
      <trkpt lat="48.25645" lon="-3.46568">
        <ele>116.6</ele>
        <time>2021-08-10T11:52:19Z</time>
      </trkpt>
      <trkpt lat="48.25643" lon="-3.46574">
        <ele>116.6</ele>
        <time>2021-08-10T11:52:20Z</time>
      </trkpt>
      <trkpt lat="48.25641" lon="-3.46581">
        <ele>116.6</ele>
        <time>2021-08-10T11:52:21Z</time>
      </trkpt>
      <trkpt lat="48.25638" lon="-3.46588">
        <ele>116.6</ele>
        <time>2021-08-10T11:52:22Z</time>
      </trkpt>
      <trkpt lat="48.25636" lon="-3.46595">
        <ele>116.6</ele>
        <time>2021-08-10T11:52:23Z</time>
      </trkpt>
      <trkpt lat="48.25634" lon="-3.46602">
        <ele>116.6</ele>
        <time>2021-08-10T11:52:24Z</time>
      </trkpt>
      <trkpt lat="48.25631" lon="-3.46609">
        <ele>116.6</ele>
        <time>2021-08-10T11:52:25Z</time>
      </trkpt>
      <trkpt lat="48.25629" lon="-3.46617">
        <ele>116.6</ele>
        <time>2021-08-10T11:52:26Z</time>
      </trkpt>
      <trkpt lat="48.25626" lon="-3.46624">
        <ele>116.6</ele>
        <time>2021-08-10T11:52:27Z</time>
      </trkpt>
      <trkpt lat="48.25624" lon="-3.4663">
        <ele>116.6</ele>
        <time>2021-08-10T11:52:28Z</time>
      </trkpt>
      <trkpt lat="48.25622" lon="-3.46637">
        <ele>116.6</ele>
        <time>2021-08-10T11:52:29Z</time>
      </trkpt>
      <trkpt lat="48.25619" lon="-3.46644">
        <ele>116.6</ele>
        <time>2021-08-10T11:52:30Z</time>
      </trkpt>
      <trkpt lat="48.25617" lon="-3.46651">
        <ele>116.8</ele>
        <time>2021-08-10T11:52:31Z</time>
      </trkpt>
      <trkpt lat="48.25615" lon="-3.46658">
        <ele>116.8</ele>
        <time>2021-08-10T11:52:32Z</time>
      </trkpt>
      <trkpt lat="48.25612" lon="-3.46664">
        <ele>116.8</ele>
        <time>2021-08-10T11:52:33Z</time>
      </trkpt>
      <trkpt lat="48.2561" lon="-3.46671">
        <ele>116.8</ele>
        <time>2021-08-10T11:52:34Z</time>
      </trkpt>
      <trkpt lat="48.25608" lon="-3.46678">
        <ele>116.8</ele>
        <time>2021-08-10T11:52:35Z</time>
      </trkpt>
      <trkpt lat="48.25606" lon="-3.46685">
        <ele>116.8</ele>
        <time>2021-08-10T11:52:36Z</time>
      </trkpt>
      <trkpt lat="48.25604" lon="-3.46691">
        <ele>117</ele>
        <time>2021-08-10T11:52:37Z</time>
      </trkpt>
      <trkpt lat="48.25602" lon="-3.46698">
        <ele>117</ele>
        <time>2021-08-10T11:52:38Z</time>
      </trkpt>
      <trkpt lat="48.256" lon="-3.46704">
        <ele>117</ele>
        <time>2021-08-10T11:52:39Z</time>
      </trkpt>
      <trkpt lat="48.25598" lon="-3.4671">
        <ele>117</ele>
        <time>2021-08-10T11:52:40Z</time>
      </trkpt>
      <trkpt lat="48.25596" lon="-3.46716">
        <ele>117</ele>
        <time>2021-08-10T11:52:41Z</time>
      </trkpt>
      <trkpt lat="48.25594" lon="-3.46722">
        <ele>117</ele>
        <time>2021-08-10T11:52:42Z</time>
      </trkpt>
      <trkpt lat="48.25593" lon="-3.46729">
        <ele>117</ele>
        <time>2021-08-10T11:52:43Z</time>
      </trkpt>
      <trkpt lat="48.25591" lon="-3.46736">
        <ele>116.8</ele>
        <time>2021-08-10T11:52:44Z</time>
      </trkpt>
      <trkpt lat="48.2559" lon="-3.46743">
        <ele>116.8</ele>
        <time>2021-08-10T11:52:45Z</time>
      </trkpt>
      <trkpt lat="48.25589" lon="-3.4675">
        <ele>116.8</ele>
        <time>2021-08-10T11:52:46Z</time>
      </trkpt>
      <trkpt lat="48.25589" lon="-3.46757">
        <ele>116.6</ele>
        <time>2021-08-10T11:52:47Z</time>
      </trkpt>
      <trkpt lat="48.25588" lon="-3.46764">
        <ele>116.6</ele>
        <time>2021-08-10T11:52:48Z</time>
      </trkpt>
      <trkpt lat="48.25588" lon="-3.46771">
        <ele>116.4</ele>
        <time>2021-08-10T11:52:49Z</time>
      </trkpt>
      <trkpt lat="48.25588" lon="-3.46779">
        <ele>116.4</ele>
        <time>2021-08-10T11:52:50Z</time>
      </trkpt>
      <trkpt lat="48.25589" lon="-3.46786">
        <ele>116.4</ele>
        <time>2021-08-10T11:52:51Z</time>
      </trkpt>
      <trkpt lat="48.2559" lon="-3.46794">
        <ele>116.4</ele>
        <time>2021-08-10T11:52:52Z</time>
      </trkpt>
      <trkpt lat="48.25591" lon="-3.46801">
        <ele>116.4</ele>
        <time>2021-08-10T11:52:53Z</time>
      </trkpt>
      <trkpt lat="48.25592" lon="-3.46809">
        <ele>116.2</ele>
        <time>2021-08-10T11:52:54Z</time>
      </trkpt>
      <trkpt lat="48.25593" lon="-3.46816">
        <ele>116.2</ele>
        <time>2021-08-10T11:52:55Z</time>
      </trkpt>
      <trkpt lat="48.25594" lon="-3.46824">
        <ele>116.2</ele>
        <time>2021-08-10T11:52:56Z</time>
      </trkpt>
      <trkpt lat="48.25596" lon="-3.46831">
        <ele>116.2</ele>
        <time>2021-08-10T11:52:57Z</time>
      </trkpt>
      <trkpt lat="48.25596" lon="-3.46838">
        <ele>116</ele>
        <time>2021-08-10T11:52:58Z</time>
      </trkpt>
      <trkpt lat="48.25597" lon="-3.46845">
        <ele>116</ele>
        <time>2021-08-10T11:52:59Z</time>
      </trkpt>
      <trkpt lat="48.25598" lon="-3.46853">
        <ele>116</ele>
        <time>2021-08-10T11:53:00Z</time>
      </trkpt>
      <trkpt lat="48.256" lon="-3.4686">
        <ele>115.8</ele>
        <time>2021-08-10T11:53:01Z</time>
      </trkpt>
      <trkpt lat="48.25601" lon="-3.46868">
        <ele>115.8</ele>
        <time>2021-08-10T11:53:02Z</time>
      </trkpt>
      <trkpt lat="48.25603" lon="-3.46876">
        <ele>115.6</ele>
        <time>2021-08-10T11:53:03Z</time>
      </trkpt>
      <trkpt lat="48.25604" lon="-3.46884">
        <ele>115.6</ele>
        <time>2021-08-10T11:53:04Z</time>
      </trkpt>
      <trkpt lat="48.25605" lon="-3.46892">
        <ele>115.6</ele>
        <time>2021-08-10T11:53:05Z</time>
      </trkpt>
      <trkpt lat="48.25606" lon="-3.469">
        <ele>115.4</ele>
        <time>2021-08-10T11:53:06Z</time>
      </trkpt>
      <trkpt lat="48.25608" lon="-3.46907">
        <ele>115.4</ele>
        <time>2021-08-10T11:53:07Z</time>
      </trkpt>
      <trkpt lat="48.25609" lon="-3.46915">
        <ele>115.2</ele>
        <time>2021-08-10T11:53:08Z</time>
      </trkpt>
      <trkpt lat="48.2561" lon="-3.46922">
        <ele>115.2</ele>
        <time>2021-08-10T11:53:09Z</time>
      </trkpt>
      <trkpt lat="48.25611" lon="-3.4693">
        <ele>115.2</ele>
        <time>2021-08-10T11:53:10Z</time>
      </trkpt>
      <trkpt lat="48.25613" lon="-3.46938">
        <ele>115.2</ele>
        <time>2021-08-10T11:53:11Z</time>
      </trkpt>
      <trkpt lat="48.25614" lon="-3.46946">
        <ele>115.2</ele>
        <time>2021-08-10T11:53:12Z</time>
      </trkpt>
      <trkpt lat="48.25616" lon="-3.46954">
        <ele>115</ele>
        <time>2021-08-10T11:53:13Z</time>
      </trkpt>
      <trkpt lat="48.25617" lon="-3.46963">
        <ele>115</ele>
        <time>2021-08-10T11:53:14Z</time>
      </trkpt>
      <trkpt lat="48.25618" lon="-3.4697">
        <ele>114.8</ele>
        <time>2021-08-10T11:53:15Z</time>
      </trkpt>
      <trkpt lat="48.2562" lon="-3.46978">
        <ele>114.8</ele>
        <time>2021-08-10T11:53:16Z</time>
      </trkpt>
      <trkpt lat="48.25622" lon="-3.46984">
        <ele>114.8</ele>
        <time>2021-08-10T11:53:17Z</time>
      </trkpt>
      <trkpt lat="48.25623" lon="-3.46992">
        <ele>114.8</ele>
        <time>2021-08-10T11:53:18Z</time>
      </trkpt>
      <trkpt lat="48.25625" lon="-3.46999">
        <ele>114.6</ele>
        <time>2021-08-10T11:53:19Z</time>
      </trkpt>
      <trkpt lat="48.25626" lon="-3.47008">
        <ele>114.6</ele>
        <time>2021-08-10T11:53:20Z</time>
      </trkpt>
      <trkpt lat="48.25628" lon="-3.47017">
        <ele>114.4</ele>
        <time>2021-08-10T11:53:21Z</time>
      </trkpt>
      <trkpt lat="48.2563" lon="-3.47026">
        <ele>114.4</ele>
        <time>2021-08-10T11:53:22Z</time>
      </trkpt>
      <trkpt lat="48.25631" lon="-3.47034">
        <ele>114.4</ele>
        <time>2021-08-10T11:53:23Z</time>
      </trkpt>
      <trkpt lat="48.25633" lon="-3.47043">
        <ele>114.4</ele>
        <time>2021-08-10T11:53:24Z</time>
      </trkpt>
      <trkpt lat="48.25634" lon="-3.47051">
        <ele>114.4</ele>
        <time>2021-08-10T11:53:25Z</time>
      </trkpt>
      <trkpt lat="48.25635" lon="-3.47059">
        <ele>114.4</ele>
        <time>2021-08-10T11:53:26Z</time>
      </trkpt>
      <trkpt lat="48.25637" lon="-3.47066">
        <ele>114.4</ele>
        <time>2021-08-10T11:53:27Z</time>
      </trkpt>
      <trkpt lat="48.25638" lon="-3.47073">
        <ele>114.4</ele>
        <time>2021-08-10T11:53:28Z</time>
      </trkpt>
      <trkpt lat="48.25639" lon="-3.4708">
        <ele>114.4</ele>
        <time>2021-08-10T11:53:29Z</time>
      </trkpt>
      <trkpt lat="48.25641" lon="-3.47086">
        <ele>114.4</ele>
        <time>2021-08-10T11:53:30Z</time>
      </trkpt>
      <trkpt lat="48.25642" lon="-3.47093">
        <ele>114.4</ele>
        <time>2021-08-10T11:53:31Z</time>
      </trkpt>
      <trkpt lat="48.25643" lon="-3.47099">
        <ele>114.4</ele>
        <time>2021-08-10T11:53:32Z</time>
      </trkpt>
      <trkpt lat="48.25644" lon="-3.47106">
        <ele>114.4</ele>
        <time>2021-08-10T11:53:33Z</time>
      </trkpt>
      <trkpt lat="48.25645" lon="-3.47112">
        <ele>114.4</ele>
        <time>2021-08-10T11:53:34Z</time>
      </trkpt>
      <trkpt lat="48.25646" lon="-3.47119">
        <ele>114.4</ele>
        <time>2021-08-10T11:53:35Z</time>
      </trkpt>
      <trkpt lat="48.25648" lon="-3.47125">
        <ele>114.4</ele>
        <time>2021-08-10T11:53:36Z</time>
      </trkpt>
      <trkpt lat="48.25649" lon="-3.47131">
        <ele>114.4</ele>
        <time>2021-08-10T11:53:37Z</time>
      </trkpt>
      <trkpt lat="48.2565" lon="-3.47137">
        <ele>114.4</ele>
        <time>2021-08-10T11:53:38Z</time>
      </trkpt>
      <trkpt lat="48.25651" lon="-3.47142">
        <ele>114.6</ele>
        <time>2021-08-10T11:53:39Z</time>
      </trkpt>
      <trkpt lat="48.25652" lon="-3.47146">
        <ele>114.6</ele>
        <time>2021-08-10T11:53:40Z</time>
      </trkpt>
      <trkpt lat="48.25652" lon="-3.47149">
        <ele>114.6</ele>
        <time>2021-08-10T11:53:41Z</time>
      </trkpt>
      <trkpt lat="48.25652" lon="-3.47152">
        <ele>114.6</ele>
        <time>2021-08-10T11:53:42Z</time>
      </trkpt>
      <trkpt lat="48.25653" lon="-3.47155">
        <ele>115</ele>
        <time>2021-08-10T11:53:43Z</time>
      </trkpt>
      <trkpt lat="48.25653" lon="-3.47158">
        <ele>115.2</ele>
        <time>2021-08-10T11:53:44Z</time>
      </trkpt>
      <trkpt lat="48.25655" lon="-3.47162">
        <ele>115.2</ele>
        <time>2021-08-10T11:53:45Z</time>
      </trkpt>
      <trkpt lat="48.25656" lon="-3.47167">
        <ele>115.4</ele>
        <time>2021-08-10T11:53:46Z</time>
      </trkpt>
      <trkpt lat="48.25657" lon="-3.47173">
        <ele>115.4</ele>
        <time>2021-08-10T11:53:47Z</time>
      </trkpt>
      <trkpt lat="48.25658" lon="-3.4718">
        <ele>115.4</ele>
        <time>2021-08-10T11:53:48Z</time>
      </trkpt>
      <trkpt lat="48.25659" lon="-3.47186">
        <ele>115.4</ele>
        <time>2021-08-10T11:53:49Z</time>
      </trkpt>
      <trkpt lat="48.2566" lon="-3.47191">
        <ele>115.4</ele>
        <time>2021-08-10T11:53:50Z</time>
      </trkpt>
      <trkpt lat="48.25661" lon="-3.47196">
        <ele>115.4</ele>
        <time>2021-08-10T11:53:51Z</time>
      </trkpt>
      <trkpt lat="48.25662" lon="-3.47201">
        <ele>115.4</ele>
        <time>2021-08-10T11:53:52Z</time>
      </trkpt>
      <trkpt lat="48.25663" lon="-3.47206">
        <ele>115.4</ele>
        <time>2021-08-10T11:53:53Z</time>
      </trkpt>
      <trkpt lat="48.25664" lon="-3.47211">
        <ele>115.4</ele>
        <time>2021-08-10T11:53:54Z</time>
      </trkpt>
      <trkpt lat="48.25665" lon="-3.47216">
        <ele>115.4</ele>
        <time>2021-08-10T11:53:55Z</time>
      </trkpt>
      <trkpt lat="48.25665" lon="-3.47221">
        <ele>115.4</ele>
        <time>2021-08-10T11:53:56Z</time>
      </trkpt>
      <trkpt lat="48.25667" lon="-3.47225">
        <ele>115.4</ele>
        <time>2021-08-10T11:53:57Z</time>
      </trkpt>
      <trkpt lat="48.25668" lon="-3.4723">
        <ele>115</ele>
        <time>2021-08-10T11:53:58Z</time>
      </trkpt>
      <trkpt lat="48.25669" lon="-3.47235">
        <ele>114.8</ele>
        <time>2021-08-10T11:53:59Z</time>
      </trkpt>
      <trkpt lat="48.2567" lon="-3.47241">
        <ele>114.6</ele>
        <time>2021-08-10T11:54:00Z</time>
      </trkpt>
      <trkpt lat="48.25672" lon="-3.4725">
        <ele>114.4</ele>
        <time>2021-08-10T11:54:01Z</time>
      </trkpt>
      <trkpt lat="48.25673" lon="-3.47259">
        <ele>114.4</ele>
        <time>2021-08-10T11:54:02Z</time>
      </trkpt>
      <trkpt lat="48.25674" lon="-3.47268">
        <ele>114.2</ele>
        <time>2021-08-10T11:54:03Z</time>
      </trkpt>
      <trkpt lat="48.25675" lon="-3.47277">
        <ele>114</ele>
        <time>2021-08-10T11:54:04Z</time>
      </trkpt>
      <trkpt lat="48.25675" lon="-3.47285">
        <ele>113.8</ele>
        <time>2021-08-10T11:54:05Z</time>
      </trkpt>
      <trkpt lat="48.25676" lon="-3.47293">
        <ele>113.8</ele>
        <time>2021-08-10T11:54:06Z</time>
      </trkpt>
      <trkpt lat="48.25676" lon="-3.47301">
        <ele>113.6</ele>
        <time>2021-08-10T11:54:07Z</time>
      </trkpt>
      <trkpt lat="48.25675" lon="-3.47308">
        <ele>113.4</ele>
        <time>2021-08-10T11:54:08Z</time>
      </trkpt>
      <trkpt lat="48.25675" lon="-3.47316">
        <ele>113.4</ele>
        <time>2021-08-10T11:54:09Z</time>
      </trkpt>
      <trkpt lat="48.25675" lon="-3.47324">
        <ele>113.4</ele>
        <time>2021-08-10T11:54:10Z</time>
      </trkpt>
      <trkpt lat="48.25674" lon="-3.47332">
        <ele>113.4</ele>
        <time>2021-08-10T11:54:11Z</time>
      </trkpt>
      <trkpt lat="48.25672" lon="-3.47341">
        <ele>113.2</ele>
        <time>2021-08-10T11:54:12Z</time>
      </trkpt>
      <trkpt lat="48.25671" lon="-3.47349">
        <ele>113.2</ele>
        <time>2021-08-10T11:54:13Z</time>
      </trkpt>
      <trkpt lat="48.25669" lon="-3.47357">
        <ele>113.2</ele>
        <time>2021-08-10T11:54:14Z</time>
      </trkpt>
      <trkpt lat="48.25667" lon="-3.47365">
        <ele>113.2</ele>
        <time>2021-08-10T11:54:15Z</time>
      </trkpt>
      <trkpt lat="48.25666" lon="-3.47372">
        <ele>113.2</ele>
        <time>2021-08-10T11:54:16Z</time>
      </trkpt>
      <trkpt lat="48.25664" lon="-3.4738">
        <ele>113.2</ele>
        <time>2021-08-10T11:54:17Z</time>
      </trkpt>
      <trkpt lat="48.25662" lon="-3.47386">
        <ele>113.2</ele>
        <time>2021-08-10T11:54:18Z</time>
      </trkpt>
      <trkpt lat="48.2566" lon="-3.47393">
        <ele>113.2</ele>
        <time>2021-08-10T11:54:19Z</time>
      </trkpt>
      <trkpt lat="48.25658" lon="-3.47399">
        <ele>113.2</ele>
        <time>2021-08-10T11:54:20Z</time>
      </trkpt>
      <trkpt lat="48.25656" lon="-3.47406">
        <ele>113.2</ele>
        <time>2021-08-10T11:54:21Z</time>
      </trkpt>
      <trkpt lat="48.25654" lon="-3.47414">
        <ele>113.2</ele>
        <time>2021-08-10T11:54:22Z</time>
      </trkpt>
      <trkpt lat="48.25651" lon="-3.47421">
        <ele>113.2</ele>
        <time>2021-08-10T11:54:23Z</time>
      </trkpt>
      <trkpt lat="48.25649" lon="-3.47428">
        <ele>113.2</ele>
        <time>2021-08-10T11:54:24Z</time>
      </trkpt>
      <trkpt lat="48.25647" lon="-3.47435">
        <ele>113.2</ele>
        <time>2021-08-10T11:54:25Z</time>
      </trkpt>
      <trkpt lat="48.25644" lon="-3.47443">
        <ele>113</ele>
        <time>2021-08-10T11:54:26Z</time>
      </trkpt>
      <trkpt lat="48.25642" lon="-3.4745">
        <ele>113</ele>
        <time>2021-08-10T11:54:27Z</time>
      </trkpt>
      <trkpt lat="48.2564" lon="-3.47457">
        <ele>113</ele>
        <time>2021-08-10T11:54:28Z</time>
      </trkpt>
      <trkpt lat="48.25638" lon="-3.47464">
        <ele>113</ele>
        <time>2021-08-10T11:54:29Z</time>
      </trkpt>
      <trkpt lat="48.25636" lon="-3.4747">
        <ele>112.8</ele>
        <time>2021-08-10T11:54:30Z</time>
      </trkpt>
      <trkpt lat="48.25634" lon="-3.47477">
        <ele>112.8</ele>
        <time>2021-08-10T11:54:31Z</time>
      </trkpt>
      <trkpt lat="48.25632" lon="-3.47485">
        <ele>112.8</ele>
        <time>2021-08-10T11:54:32Z</time>
      </trkpt>
      <trkpt lat="48.25629" lon="-3.47492">
        <ele>112.8</ele>
        <time>2021-08-10T11:54:33Z</time>
      </trkpt>
      <trkpt lat="48.25627" lon="-3.475">
        <ele>112.8</ele>
        <time>2021-08-10T11:54:34Z</time>
      </trkpt>
      <trkpt lat="48.25624" lon="-3.47508">
        <ele>112.8</ele>
        <time>2021-08-10T11:54:35Z</time>
      </trkpt>
      <trkpt lat="48.25622" lon="-3.47515">
        <ele>112.8</ele>
        <time>2021-08-10T11:54:36Z</time>
      </trkpt>
      <trkpt lat="48.25619" lon="-3.47522">
        <ele>112.6</ele>
        <time>2021-08-10T11:54:37Z</time>
      </trkpt>
      <trkpt lat="48.25617" lon="-3.47529">
        <ele>112.6</ele>
        <time>2021-08-10T11:54:38Z</time>
      </trkpt>
      <trkpt lat="48.25614" lon="-3.47536">
        <ele>112.6</ele>
        <time>2021-08-10T11:54:39Z</time>
      </trkpt>
      <trkpt lat="48.25612" lon="-3.47543">
        <ele>112.6</ele>
        <time>2021-08-10T11:54:40Z</time>
      </trkpt>
      <trkpt lat="48.2561" lon="-3.47551">
        <ele>112.6</ele>
        <time>2021-08-10T11:54:41Z</time>
      </trkpt>
      <trkpt lat="48.25608" lon="-3.47558">
        <ele>112.6</ele>
        <time>2021-08-10T11:54:42Z</time>
      </trkpt>
      <trkpt lat="48.25605" lon="-3.47565">
        <ele>112.6</ele>
        <time>2021-08-10T11:54:43Z</time>
      </trkpt>
      <trkpt lat="48.25603" lon="-3.47572">
        <ele>112.6</ele>
        <time>2021-08-10T11:54:44Z</time>
      </trkpt>
      <trkpt lat="48.256" lon="-3.4758">
        <ele>112.6</ele>
        <time>2021-08-10T11:54:45Z</time>
      </trkpt>
      <trkpt lat="48.25598" lon="-3.47587">
        <ele>112.6</ele>
        <time>2021-08-10T11:54:46Z</time>
      </trkpt>
      <trkpt lat="48.25596" lon="-3.47594">
        <ele>112.6</ele>
        <time>2021-08-10T11:54:47Z</time>
      </trkpt>
      <trkpt lat="48.25593" lon="-3.476">
        <ele>112.8</ele>
        <time>2021-08-10T11:54:48Z</time>
      </trkpt>
      <trkpt lat="48.25591" lon="-3.47607">
        <ele>112.8</ele>
        <time>2021-08-10T11:54:49Z</time>
      </trkpt>
      <trkpt lat="48.25589" lon="-3.47613">
        <ele>112.8</ele>
        <time>2021-08-10T11:54:50Z</time>
      </trkpt>
      <trkpt lat="48.25586" lon="-3.4762">
        <ele>112.8</ele>
        <time>2021-08-10T11:54:51Z</time>
      </trkpt>
      <trkpt lat="48.25584" lon="-3.47627">
        <ele>112.8</ele>
        <time>2021-08-10T11:54:52Z</time>
      </trkpt>
      <trkpt lat="48.25582" lon="-3.47635">
        <ele>112.8</ele>
        <time>2021-08-10T11:54:53Z</time>
      </trkpt>
      <trkpt lat="48.25579" lon="-3.47642">
        <ele>113</ele>
        <time>2021-08-10T11:54:54Z</time>
      </trkpt>
      <trkpt lat="48.25577" lon="-3.4765">
        <ele>113</ele>
        <time>2021-08-10T11:54:55Z</time>
      </trkpt>
      <trkpt lat="48.25575" lon="-3.47657">
        <ele>113</ele>
        <time>2021-08-10T11:54:56Z</time>
      </trkpt>
      <trkpt lat="48.25572" lon="-3.47664">
        <ele>113</ele>
        <time>2021-08-10T11:54:57Z</time>
      </trkpt>
      <trkpt lat="48.2557" lon="-3.47672">
        <ele>113</ele>
        <time>2021-08-10T11:54:58Z</time>
      </trkpt>
      <trkpt lat="48.25567" lon="-3.47679">
        <ele>113</ele>
        <time>2021-08-10T11:54:59Z</time>
      </trkpt>
      <trkpt lat="48.25565" lon="-3.47686">
        <ele>113</ele>
        <time>2021-08-10T11:55:00Z</time>
      </trkpt>
      <trkpt lat="48.25563" lon="-3.47693">
        <ele>113</ele>
        <time>2021-08-10T11:55:01Z</time>
      </trkpt>
      <trkpt lat="48.25561" lon="-3.477">
        <ele>113</ele>
        <time>2021-08-10T11:55:02Z</time>
      </trkpt>
      <trkpt lat="48.25558" lon="-3.47708">
        <ele>113.2</ele>
        <time>2021-08-10T11:55:03Z</time>
      </trkpt>
      <trkpt lat="48.25556" lon="-3.47715">
        <ele>113.2</ele>
        <time>2021-08-10T11:55:04Z</time>
      </trkpt>
      <trkpt lat="48.25553" lon="-3.47723">
        <ele>113</ele>
        <time>2021-08-10T11:55:05Z</time>
      </trkpt>
      <trkpt lat="48.25551" lon="-3.47731">
        <ele>113</ele>
        <time>2021-08-10T11:55:06Z</time>
      </trkpt>
      <trkpt lat="48.25548" lon="-3.47739">
        <ele>113</ele>
        <time>2021-08-10T11:55:07Z</time>
      </trkpt>
      <trkpt lat="48.25546" lon="-3.47747">
        <ele>113</ele>
        <time>2021-08-10T11:55:08Z</time>
      </trkpt>
      <trkpt lat="48.25543" lon="-3.47755">
        <ele>113</ele>
        <time>2021-08-10T11:55:09Z</time>
      </trkpt>
      <trkpt lat="48.25541" lon="-3.47762">
        <ele>113</ele>
        <time>2021-08-10T11:55:10Z</time>
      </trkpt>
      <trkpt lat="48.25538" lon="-3.47769">
        <ele>113</ele>
        <time>2021-08-10T11:55:11Z</time>
      </trkpt>
      <trkpt lat="48.25536" lon="-3.47777">
        <ele>113</ele>
        <time>2021-08-10T11:55:12Z</time>
      </trkpt>
      <trkpt lat="48.25533" lon="-3.47784">
        <ele>113</ele>
        <time>2021-08-10T11:55:13Z</time>
      </trkpt>
      <trkpt lat="48.25531" lon="-3.47791">
        <ele>113</ele>
        <time>2021-08-10T11:55:14Z</time>
      </trkpt>
      <trkpt lat="48.25528" lon="-3.47798">
        <ele>113</ele>
        <time>2021-08-10T11:55:15Z</time>
      </trkpt>
      <trkpt lat="48.25526" lon="-3.47805">
        <ele>113.2</ele>
        <time>2021-08-10T11:55:16Z</time>
      </trkpt>
      <trkpt lat="48.25524" lon="-3.47812">
        <ele>113.2</ele>
        <time>2021-08-10T11:55:17Z</time>
      </trkpt>
      <trkpt lat="48.25521" lon="-3.47819">
        <ele>113.2</ele>
        <time>2021-08-10T11:55:18Z</time>
      </trkpt>
      <trkpt lat="48.25519" lon="-3.47826">
        <ele>113.4</ele>
        <time>2021-08-10T11:55:19Z</time>
      </trkpt>
      <trkpt lat="48.25516" lon="-3.47833">
        <ele>113.4</ele>
        <time>2021-08-10T11:55:20Z</time>
      </trkpt>
      <trkpt lat="48.25514" lon="-3.4784">
        <ele>113.4</ele>
        <time>2021-08-10T11:55:21Z</time>
      </trkpt>
      <trkpt lat="48.25511" lon="-3.47847">
        <ele>113.4</ele>
        <time>2021-08-10T11:55:22Z</time>
      </trkpt>
      <trkpt lat="48.25509" lon="-3.47855">
        <ele>113.4</ele>
        <time>2021-08-10T11:55:23Z</time>
      </trkpt>
      <trkpt lat="48.25507" lon="-3.47862">
        <ele>113.4</ele>
        <time>2021-08-10T11:55:24Z</time>
      </trkpt>
      <trkpt lat="48.25505" lon="-3.47869">
        <ele>113.4</ele>
        <time>2021-08-10T11:55:25Z</time>
      </trkpt>
      <trkpt lat="48.25503" lon="-3.47875">
        <ele>113.4</ele>
        <time>2021-08-10T11:55:26Z</time>
      </trkpt>
      <trkpt lat="48.25501" lon="-3.47882">
        <ele>113.4</ele>
        <time>2021-08-10T11:55:27Z</time>
      </trkpt>
      <trkpt lat="48.25499" lon="-3.47889">
        <ele>113.4</ele>
        <time>2021-08-10T11:55:28Z</time>
      </trkpt>
      <trkpt lat="48.25497" lon="-3.47896">
        <ele>113.4</ele>
        <time>2021-08-10T11:55:29Z</time>
      </trkpt>
      <trkpt lat="48.25495" lon="-3.47903">
        <ele>113.4</ele>
        <time>2021-08-10T11:55:30Z</time>
      </trkpt>
      <trkpt lat="48.25494" lon="-3.4791">
        <ele>113.4</ele>
        <time>2021-08-10T11:55:31Z</time>
      </trkpt>
      <trkpt lat="48.25492" lon="-3.47918">
        <ele>113.4</ele>
        <time>2021-08-10T11:55:32Z</time>
      </trkpt>
      <trkpt lat="48.2549" lon="-3.47925">
        <ele>113.4</ele>
        <time>2021-08-10T11:55:33Z</time>
      </trkpt>
      <trkpt lat="48.25488" lon="-3.47932">
        <ele>113.4</ele>
        <time>2021-08-10T11:55:34Z</time>
      </trkpt>
      <trkpt lat="48.25486" lon="-3.4794">
        <ele>113.4</ele>
        <time>2021-08-10T11:55:35Z</time>
      </trkpt>
      <trkpt lat="48.25485" lon="-3.47947">
        <ele>113.2</ele>
        <time>2021-08-10T11:55:36Z</time>
      </trkpt>
      <trkpt lat="48.25483" lon="-3.47955">
        <ele>113.2</ele>
        <time>2021-08-10T11:55:37Z</time>
      </trkpt>
      <trkpt lat="48.25481" lon="-3.47962">
        <ele>113.2</ele>
        <time>2021-08-10T11:55:38Z</time>
      </trkpt>
      <trkpt lat="48.2548" lon="-3.4797">
        <ele>113.2</ele>
        <time>2021-08-10T11:55:39Z</time>
      </trkpt>
      <trkpt lat="48.25479" lon="-3.47977">
        <ele>113.2</ele>
        <time>2021-08-10T11:55:40Z</time>
      </trkpt>
      <trkpt lat="48.25479" lon="-3.47985">
        <ele>113.2</ele>
        <time>2021-08-10T11:55:41Z</time>
      </trkpt>
      <trkpt lat="48.25479" lon="-3.47993">
        <ele>113.2</ele>
        <time>2021-08-10T11:55:42Z</time>
      </trkpt>
      <trkpt lat="48.25479" lon="-3.48002">
        <ele>113.2</ele>
        <time>2021-08-10T11:55:43Z</time>
      </trkpt>
      <trkpt lat="48.2548" lon="-3.4801">
        <ele>113.2</ele>
        <time>2021-08-10T11:55:44Z</time>
      </trkpt>
      <trkpt lat="48.25481" lon="-3.48018">
        <ele>113</ele>
        <time>2021-08-10T11:55:45Z</time>
      </trkpt>
      <trkpt lat="48.25483" lon="-3.48026">
        <ele>113</ele>
        <time>2021-08-10T11:55:46Z</time>
      </trkpt>
      <trkpt lat="48.25485" lon="-3.48034">
        <ele>113</ele>
        <time>2021-08-10T11:55:47Z</time>
      </trkpt>
      <trkpt lat="48.25487" lon="-3.48042">
        <ele>112.8</ele>
        <time>2021-08-10T11:55:48Z</time>
      </trkpt>
      <trkpt lat="48.25488" lon="-3.4805">
        <ele>112.8</ele>
        <time>2021-08-10T11:55:49Z</time>
      </trkpt>
      <trkpt lat="48.2549" lon="-3.48057">
        <ele>112.8</ele>
        <time>2021-08-10T11:55:50Z</time>
      </trkpt>
      <trkpt lat="48.25492" lon="-3.48065">
        <ele>112.6</ele>
        <time>2021-08-10T11:55:51Z</time>
      </trkpt>
      <trkpt lat="48.25494" lon="-3.48072">
        <ele>112.4</ele>
        <time>2021-08-10T11:55:52Z</time>
      </trkpt>
      <trkpt lat="48.25495" lon="-3.4808">
        <ele>112.4</ele>
        <time>2021-08-10T11:55:53Z</time>
      </trkpt>
      <trkpt lat="48.25497" lon="-3.48088">
        <ele>112.2</ele>
        <time>2021-08-10T11:55:54Z</time>
      </trkpt>
      <trkpt lat="48.25499" lon="-3.48096">
        <ele>112.2</ele>
        <time>2021-08-10T11:55:55Z</time>
      </trkpt>
      <trkpt lat="48.25501" lon="-3.48103">
        <ele>112.2</ele>
        <time>2021-08-10T11:55:56Z</time>
      </trkpt>
      <trkpt lat="48.25503" lon="-3.48111">
        <ele>112.2</ele>
        <time>2021-08-10T11:55:57Z</time>
      </trkpt>
      <trkpt lat="48.25504" lon="-3.48118">
        <ele>112</ele>
        <time>2021-08-10T11:55:58Z</time>
      </trkpt>
      <trkpt lat="48.25506" lon="-3.48125">
        <ele>112</ele>
        <time>2021-08-10T11:55:59Z</time>
      </trkpt>
      <trkpt lat="48.25508" lon="-3.48133">
        <ele>112</ele>
        <time>2021-08-10T11:56:00Z</time>
      </trkpt>
      <trkpt lat="48.2551" lon="-3.48141">
        <ele>112</ele>
        <time>2021-08-10T11:56:01Z</time>
      </trkpt>
      <trkpt lat="48.25511" lon="-3.48148">
        <ele>112</ele>
        <time>2021-08-10T11:56:02Z</time>
      </trkpt>
      <trkpt lat="48.25513" lon="-3.48156">
        <ele>112</ele>
        <time>2021-08-10T11:56:03Z</time>
      </trkpt>
      <trkpt lat="48.25515" lon="-3.48163">
        <ele>111.8</ele>
        <time>2021-08-10T11:56:04Z</time>
      </trkpt>
      <trkpt lat="48.25517" lon="-3.48171">
        <ele>111.8</ele>
        <time>2021-08-10T11:56:05Z</time>
      </trkpt>
      <trkpt lat="48.25518" lon="-3.48178">
        <ele>111.8</ele>
        <time>2021-08-10T11:56:06Z</time>
      </trkpt>
      <trkpt lat="48.2552" lon="-3.48185">
        <ele>111.8</ele>
        <time>2021-08-10T11:56:07Z</time>
      </trkpt>
      <trkpt lat="48.25522" lon="-3.48193">
        <ele>111.8</ele>
        <time>2021-08-10T11:56:08Z</time>
      </trkpt>
      <trkpt lat="48.25523" lon="-3.482">
        <ele>111.8</ele>
        <time>2021-08-10T11:56:09Z</time>
      </trkpt>
      <trkpt lat="48.25525" lon="-3.48207">
        <ele>111.8</ele>
        <time>2021-08-10T11:56:10Z</time>
      </trkpt>
      <trkpt lat="48.25527" lon="-3.48214">
        <ele>111.8</ele>
        <time>2021-08-10T11:56:11Z</time>
      </trkpt>
      <trkpt lat="48.25528" lon="-3.4822">
        <ele>111.8</ele>
        <time>2021-08-10T11:56:12Z</time>
      </trkpt>
      <trkpt lat="48.2553" lon="-3.48228">
        <ele>111.8</ele>
        <time>2021-08-10T11:56:13Z</time>
      </trkpt>
      <trkpt lat="48.25531" lon="-3.48235">
        <ele>111.8</ele>
        <time>2021-08-10T11:56:14Z</time>
      </trkpt>
      <trkpt lat="48.25533" lon="-3.48242">
        <ele>111.8</ele>
        <time>2021-08-10T11:56:15Z</time>
      </trkpt>
      <trkpt lat="48.25535" lon="-3.4825">
        <ele>111.8</ele>
        <time>2021-08-10T11:56:16Z</time>
      </trkpt>
      <trkpt lat="48.25537" lon="-3.48257">
        <ele>111.8</ele>
        <time>2021-08-10T11:56:17Z</time>
      </trkpt>
      <trkpt lat="48.25539" lon="-3.48265">
        <ele>111.6</ele>
        <time>2021-08-10T11:56:18Z</time>
      </trkpt>
      <trkpt lat="48.25541" lon="-3.48272">
        <ele>111.6</ele>
        <time>2021-08-10T11:56:19Z</time>
      </trkpt>
      <trkpt lat="48.25542" lon="-3.48279">
        <ele>111.6</ele>
        <time>2021-08-10T11:56:20Z</time>
      </trkpt>
      <trkpt lat="48.25544" lon="-3.48286">
        <ele>111.6</ele>
        <time>2021-08-10T11:56:21Z</time>
      </trkpt>
      <trkpt lat="48.25546" lon="-3.48293">
        <ele>111.6</ele>
        <time>2021-08-10T11:56:22Z</time>
      </trkpt>
      <trkpt lat="48.25547" lon="-3.48301">
        <ele>111.6</ele>
        <time>2021-08-10T11:56:23Z</time>
      </trkpt>
      <trkpt lat="48.25549" lon="-3.48308">
        <ele>111.6</ele>
        <time>2021-08-10T11:56:24Z</time>
      </trkpt>
      <trkpt lat="48.25551" lon="-3.48316">
        <ele>111.6</ele>
        <time>2021-08-10T11:56:25Z</time>
      </trkpt>
      <trkpt lat="48.25552" lon="-3.48323">
        <ele>111.6</ele>
        <time>2021-08-10T11:56:26Z</time>
      </trkpt>
      <trkpt lat="48.25554" lon="-3.48331">
        <ele>111.6</ele>
        <time>2021-08-10T11:56:27Z</time>
      </trkpt>
      <trkpt lat="48.25555" lon="-3.48339">
        <ele>111.6</ele>
        <time>2021-08-10T11:56:28Z</time>
      </trkpt>
      <trkpt lat="48.25556" lon="-3.48347">
        <ele>111.4</ele>
        <time>2021-08-10T11:56:29Z</time>
      </trkpt>
      <trkpt lat="48.25556" lon="-3.48355">
        <ele>111.4</ele>
        <time>2021-08-10T11:56:30Z</time>
      </trkpt>
      <trkpt lat="48.25557" lon="-3.48363">
        <ele>111.4</ele>
        <time>2021-08-10T11:56:31Z</time>
      </trkpt>
      <trkpt lat="48.25556" lon="-3.48371">
        <ele>111.4</ele>
        <time>2021-08-10T11:56:32Z</time>
      </trkpt>
      <trkpt lat="48.25556" lon="-3.48379">
        <ele>111.4</ele>
        <time>2021-08-10T11:56:33Z</time>
      </trkpt>
      <trkpt lat="48.25556" lon="-3.48387">
        <ele>111.4</ele>
        <time>2021-08-10T11:56:34Z</time>
      </trkpt>
      <trkpt lat="48.25555" lon="-3.48396">
        <ele>111.4</ele>
        <time>2021-08-10T11:56:35Z</time>
      </trkpt>
      <trkpt lat="48.25553" lon="-3.48404">
        <ele>111.4</ele>
        <time>2021-08-10T11:56:36Z</time>
      </trkpt>
      <trkpt lat="48.25552" lon="-3.48412">
        <ele>111.2</ele>
        <time>2021-08-10T11:56:37Z</time>
      </trkpt>
      <trkpt lat="48.2555" lon="-3.4842">
        <ele>111.2</ele>
        <time>2021-08-10T11:56:38Z</time>
      </trkpt>
      <trkpt lat="48.25548" lon="-3.48428">
        <ele>111.2</ele>
        <time>2021-08-10T11:56:39Z</time>
      </trkpt>
      <trkpt lat="48.25545" lon="-3.48436">
        <ele>111.2</ele>
        <time>2021-08-10T11:56:40Z</time>
      </trkpt>
      <trkpt lat="48.25543" lon="-3.48444">
        <ele>111.2</ele>
        <time>2021-08-10T11:56:41Z</time>
      </trkpt>
      <trkpt lat="48.2554" lon="-3.48451">
        <ele>111</ele>
        <time>2021-08-10T11:56:42Z</time>
      </trkpt>
      <trkpt lat="48.25536" lon="-3.48458">
        <ele>111</ele>
        <time>2021-08-10T11:56:43Z</time>
      </trkpt>
      <trkpt lat="48.25533" lon="-3.48464">
        <ele>111</ele>
        <time>2021-08-10T11:56:44Z</time>
      </trkpt>
      <trkpt lat="48.25529" lon="-3.48471">
        <ele>111</ele>
        <time>2021-08-10T11:56:45Z</time>
      </trkpt>
      <trkpt lat="48.25525" lon="-3.48477">
        <ele>111</ele>
        <time>2021-08-10T11:56:46Z</time>
      </trkpt>
      <trkpt lat="48.25521" lon="-3.48482">
        <ele>111</ele>
        <time>2021-08-10T11:56:47Z</time>
      </trkpt>
      <trkpt lat="48.25517" lon="-3.48488">
        <ele>111</ele>
        <time>2021-08-10T11:56:48Z</time>
      </trkpt>
      <trkpt lat="48.25512" lon="-3.48494">
        <ele>111</ele>
        <time>2021-08-10T11:56:49Z</time>
      </trkpt>
      <trkpt lat="48.25507" lon="-3.48499">
        <ele>111</ele>
        <time>2021-08-10T11:56:50Z</time>
      </trkpt>
      <trkpt lat="48.25502" lon="-3.48505">
        <ele>110.8</ele>
        <time>2021-08-10T11:56:51Z</time>
      </trkpt>
      <trkpt lat="48.25497" lon="-3.4851">
        <ele>110.8</ele>
        <time>2021-08-10T11:56:52Z</time>
      </trkpt>
      <trkpt lat="48.25493" lon="-3.48515">
        <ele>110.8</ele>
        <time>2021-08-10T11:56:53Z</time>
      </trkpt>
      <trkpt lat="48.2549" lon="-3.48519">
        <ele>110.8</ele>
        <time>2021-08-10T11:56:54Z</time>
      </trkpt>
      <trkpt lat="48.25486" lon="-3.48524">
        <ele>110.8</ele>
        <time>2021-08-10T11:56:55Z</time>
      </trkpt>
      <trkpt lat="48.25482" lon="-3.48528">
        <ele>110.8</ele>
        <time>2021-08-10T11:56:56Z</time>
      </trkpt>
      <trkpt lat="48.25479" lon="-3.48532">
        <ele>110.8</ele>
        <time>2021-08-10T11:56:57Z</time>
      </trkpt>
      <trkpt lat="48.25475" lon="-3.48537">
        <ele>110.8</ele>
        <time>2021-08-10T11:56:58Z</time>
      </trkpt>
      <trkpt lat="48.25471" lon="-3.48542">
        <ele>110.8</ele>
        <time>2021-08-10T11:56:59Z</time>
      </trkpt>
      <trkpt lat="48.25467" lon="-3.48546">
        <ele>110.8</ele>
        <time>2021-08-10T11:57:00Z</time>
      </trkpt>
      <trkpt lat="48.25463" lon="-3.48551">
        <ele>110.8</ele>
        <time>2021-08-10T11:57:01Z</time>
      </trkpt>
      <trkpt lat="48.2546" lon="-3.48555">
        <ele>110.8</ele>
        <time>2021-08-10T11:57:02Z</time>
      </trkpt>
      <trkpt lat="48.25458" lon="-3.48557">
        <ele>110.8</ele>
        <time>2021-08-10T11:57:03Z</time>
      </trkpt>
      <trkpt lat="48.25455" lon="-3.4856">
        <ele>110.8</ele>
        <time>2021-08-10T11:57:04Z</time>
      </trkpt>
      <trkpt lat="48.25452" lon="-3.48563">
        <ele>110.8</ele>
        <time>2021-08-10T11:57:05Z</time>
      </trkpt>
      <trkpt lat="48.25449" lon="-3.48567">
        <ele>111</ele>
        <time>2021-08-10T11:57:06Z</time>
      </trkpt>
      <trkpt lat="48.25446" lon="-3.48571">
        <ele>111</ele>
        <time>2021-08-10T11:57:07Z</time>
      </trkpt>
      <trkpt lat="48.25442" lon="-3.48576">
        <ele>111</ele>
        <time>2021-08-10T11:57:08Z</time>
      </trkpt>
      <trkpt lat="48.25439" lon="-3.48581">
        <ele>111</ele>
        <time>2021-08-10T11:57:09Z</time>
      </trkpt>
      <trkpt lat="48.25435" lon="-3.48587">
        <ele>111.2</ele>
        <time>2021-08-10T11:57:10Z</time>
      </trkpt>
      <trkpt lat="48.25431" lon="-3.48592">
        <ele>111.2</ele>
        <time>2021-08-10T11:57:11Z</time>
      </trkpt>
      <trkpt lat="48.25428" lon="-3.48597">
        <ele>111.2</ele>
        <time>2021-08-10T11:57:12Z</time>
      </trkpt>
      <trkpt lat="48.25424" lon="-3.48602">
        <ele>111.2</ele>
        <time>2021-08-10T11:57:13Z</time>
      </trkpt>
      <trkpt lat="48.2542" lon="-3.48608">
        <ele>111.2</ele>
        <time>2021-08-10T11:57:14Z</time>
      </trkpt>
      <trkpt lat="48.25416" lon="-3.48612">
        <ele>111.2</ele>
        <time>2021-08-10T11:57:15Z</time>
      </trkpt>
      <trkpt lat="48.25413" lon="-3.48616">
        <ele>111.2</ele>
        <time>2021-08-10T11:57:16Z</time>
      </trkpt>
      <trkpt lat="48.2541" lon="-3.48619">
        <ele>111.2</ele>
        <time>2021-08-10T11:57:17Z</time>
      </trkpt>
      <trkpt lat="48.25407" lon="-3.48623">
        <ele>111.2</ele>
        <time>2021-08-10T11:57:18Z</time>
      </trkpt>
      <trkpt lat="48.25404" lon="-3.48626">
        <ele>111.2</ele>
        <time>2021-08-10T11:57:19Z</time>
      </trkpt>
      <trkpt lat="48.254" lon="-3.4863">
        <ele>111.2</ele>
        <time>2021-08-10T11:57:20Z</time>
      </trkpt>
      <trkpt lat="48.25397" lon="-3.48634">
        <ele>111</ele>
        <time>2021-08-10T11:57:21Z</time>
      </trkpt>
      <trkpt lat="48.25394" lon="-3.48638">
        <ele>111</ele>
        <time>2021-08-10T11:57:22Z</time>
      </trkpt>
      <trkpt lat="48.2539" lon="-3.48641">
        <ele>111</ele>
        <time>2021-08-10T11:57:23Z</time>
      </trkpt>
      <trkpt lat="48.25387" lon="-3.48645">
        <ele>111</ele>
        <time>2021-08-10T11:57:24Z</time>
      </trkpt>
      <trkpt lat="48.25384" lon="-3.48648">
        <ele>111</ele>
        <time>2021-08-10T11:57:25Z</time>
      </trkpt>
      <trkpt lat="48.25382" lon="-3.48652">
        <ele>111</ele>
        <time>2021-08-10T11:57:26Z</time>
      </trkpt>
      <trkpt lat="48.2538" lon="-3.48654">
        <ele>111</ele>
        <time>2021-08-10T11:57:27Z</time>
      </trkpt>
      <trkpt lat="48.25378" lon="-3.48657">
        <ele>111</ele>
        <time>2021-08-10T11:57:28Z</time>
      </trkpt>
      <trkpt lat="48.25375" lon="-3.48661">
        <ele>110.8</ele>
        <time>2021-08-10T11:57:29Z</time>
      </trkpt>
      <trkpt lat="48.25371" lon="-3.48666">
        <ele>110.8</ele>
        <time>2021-08-10T11:57:30Z</time>
      </trkpt>
      <trkpt lat="48.25366" lon="-3.48671">
        <ele>110.8</ele>
        <time>2021-08-10T11:57:31Z</time>
      </trkpt>
      <trkpt lat="48.25361" lon="-3.48676">
        <ele>110.8</ele>
        <time>2021-08-10T11:57:32Z</time>
      </trkpt>
      <trkpt lat="48.25356" lon="-3.48681">
        <ele>110.8</ele>
        <time>2021-08-10T11:57:33Z</time>
      </trkpt>
      <trkpt lat="48.25352" lon="-3.48687">
        <ele>110.8</ele>
        <time>2021-08-10T11:57:34Z</time>
      </trkpt>
      <trkpt lat="48.25348" lon="-3.48692">
        <ele>110.8</ele>
        <time>2021-08-10T11:57:35Z</time>
      </trkpt>
      <trkpt lat="48.25344" lon="-3.48697">
        <ele>110.8</ele>
        <time>2021-08-10T11:57:36Z</time>
      </trkpt>
      <trkpt lat="48.2534" lon="-3.48703">
        <ele>110.6</ele>
        <time>2021-08-10T11:57:37Z</time>
      </trkpt>
      <trkpt lat="48.25337" lon="-3.48709">
        <ele>110.6</ele>
        <time>2021-08-10T11:57:38Z</time>
      </trkpt>
      <trkpt lat="48.25334" lon="-3.48715">
        <ele>110.6</ele>
        <time>2021-08-10T11:57:39Z</time>
      </trkpt>
      <trkpt lat="48.25332" lon="-3.48722">
        <ele>110.6</ele>
        <time>2021-08-10T11:57:40Z</time>
      </trkpt>
      <trkpt lat="48.2533" lon="-3.48728">
        <ele>110.6</ele>
        <time>2021-08-10T11:57:41Z</time>
      </trkpt>
      <trkpt lat="48.25328" lon="-3.48734">
        <ele>110.4</ele>
        <time>2021-08-10T11:57:42Z</time>
      </trkpt>
      <trkpt lat="48.25326" lon="-3.48741">
        <ele>110.4</ele>
        <time>2021-08-10T11:57:43Z</time>
      </trkpt>
      <trkpt lat="48.25325" lon="-3.48747">
        <ele>110.4</ele>
        <time>2021-08-10T11:57:44Z</time>
      </trkpt>
      <trkpt lat="48.25324" lon="-3.48754">
        <ele>110.4</ele>
        <time>2021-08-10T11:57:45Z</time>
      </trkpt>
      <trkpt lat="48.25323" lon="-3.48761">
        <ele>110.4</ele>
        <time>2021-08-10T11:57:46Z</time>
      </trkpt>
      <trkpt lat="48.25323" lon="-3.48767">
        <ele>110.4</ele>
        <time>2021-08-10T11:57:47Z</time>
      </trkpt>
      <trkpt lat="48.25323" lon="-3.48773">
        <ele>110.4</ele>
        <time>2021-08-10T11:57:48Z</time>
      </trkpt>
      <trkpt lat="48.25323" lon="-3.48778">
        <ele>110.4</ele>
        <time>2021-08-10T11:57:49Z</time>
      </trkpt>
      <trkpt lat="48.25323" lon="-3.48784">
        <ele>110.4</ele>
        <time>2021-08-10T11:57:50Z</time>
      </trkpt>
      <trkpt lat="48.25324" lon="-3.4879">
        <ele>110.4</ele>
        <time>2021-08-10T11:57:51Z</time>
      </trkpt>
      <trkpt lat="48.25324" lon="-3.48796">
        <ele>110.4</ele>
        <time>2021-08-10T11:57:52Z</time>
      </trkpt>
      <trkpt lat="48.25325" lon="-3.48803">
        <ele>110.4</ele>
        <time>2021-08-10T11:57:53Z</time>
      </trkpt>
      <trkpt lat="48.25325" lon="-3.4881">
        <ele>110.4</ele>
        <time>2021-08-10T11:57:54Z</time>
      </trkpt>
      <trkpt lat="48.25326" lon="-3.48817">
        <ele>110.4</ele>
        <time>2021-08-10T11:57:55Z</time>
      </trkpt>
      <trkpt lat="48.25327" lon="-3.48823">
        <ele>110.4</ele>
        <time>2021-08-10T11:57:56Z</time>
      </trkpt>
      <trkpt lat="48.25328" lon="-3.4883">
        <ele>110.4</ele>
        <time>2021-08-10T11:57:57Z</time>
      </trkpt>
      <trkpt lat="48.25328" lon="-3.48838">
        <ele>110.4</ele>
        <time>2021-08-10T11:57:58Z</time>
      </trkpt>
      <trkpt lat="48.25329" lon="-3.48845">
        <ele>110.4</ele>
        <time>2021-08-10T11:57:59Z</time>
      </trkpt>
      <trkpt lat="48.25329" lon="-3.48852">
        <ele>110.4</ele>
        <time>2021-08-10T11:58:00Z</time>
      </trkpt>
      <trkpt lat="48.2533" lon="-3.48859">
        <ele>110.6</ele>
        <time>2021-08-10T11:58:01Z</time>
      </trkpt>
      <trkpt lat="48.25331" lon="-3.48866">
        <ele>110.6</ele>
        <time>2021-08-10T11:58:02Z</time>
      </trkpt>
      <trkpt lat="48.25331" lon="-3.48873">
        <ele>110.6</ele>
        <time>2021-08-10T11:58:03Z</time>
      </trkpt>
      <trkpt lat="48.25332" lon="-3.48879">
        <ele>110.6</ele>
        <time>2021-08-10T11:58:04Z</time>
      </trkpt>
      <trkpt lat="48.25332" lon="-3.48886">
        <ele>110.6</ele>
        <time>2021-08-10T11:58:05Z</time>
      </trkpt>
      <trkpt lat="48.25333" lon="-3.48892">
        <ele>110.6</ele>
        <time>2021-08-10T11:58:06Z</time>
      </trkpt>
      <trkpt lat="48.25334" lon="-3.48898">
        <ele>110.6</ele>
        <time>2021-08-10T11:58:07Z</time>
      </trkpt>
      <trkpt lat="48.25334" lon="-3.48904">
        <ele>110.8</ele>
        <time>2021-08-10T11:58:08Z</time>
      </trkpt>
      <trkpt lat="48.25335" lon="-3.48909">
        <ele>110.8</ele>
        <time>2021-08-10T11:58:09Z</time>
      </trkpt>
      <trkpt lat="48.25336" lon="-3.48915">
        <ele>110.8</ele>
        <time>2021-08-10T11:58:10Z</time>
      </trkpt>
      <trkpt lat="48.25336" lon="-3.48921">
        <ele>110.8</ele>
        <time>2021-08-10T11:58:11Z</time>
      </trkpt>
      <trkpt lat="48.25337" lon="-3.48927">
        <ele>110.8</ele>
        <time>2021-08-10T11:58:12Z</time>
      </trkpt>
      <trkpt lat="48.25337" lon="-3.48933">
        <ele>110.8</ele>
        <time>2021-08-10T11:58:13Z</time>
      </trkpt>
      <trkpt lat="48.25338" lon="-3.4894">
        <ele>110.8</ele>
        <time>2021-08-10T11:58:14Z</time>
      </trkpt>
      <trkpt lat="48.25339" lon="-3.48947">
        <ele>110.8</ele>
        <time>2021-08-10T11:58:15Z</time>
      </trkpt>
      <trkpt lat="48.25339" lon="-3.48954">
        <ele>110.8</ele>
        <time>2021-08-10T11:58:16Z</time>
      </trkpt>
      <trkpt lat="48.2534" lon="-3.48962">
        <ele>110.8</ele>
        <time>2021-08-10T11:58:17Z</time>
      </trkpt>
      <trkpt lat="48.25341" lon="-3.4897">
        <ele>110.6</ele>
        <time>2021-08-10T11:58:18Z</time>
      </trkpt>
      <trkpt lat="48.25341" lon="-3.48977">
        <ele>110.6</ele>
        <time>2021-08-10T11:58:19Z</time>
      </trkpt>
      <trkpt lat="48.25342" lon="-3.48986">
        <ele>110.6</ele>
        <time>2021-08-10T11:58:20Z</time>
      </trkpt>
      <trkpt lat="48.25343" lon="-3.48994">
        <ele>110.6</ele>
        <time>2021-08-10T11:58:21Z</time>
      </trkpt>
      <trkpt lat="48.25344" lon="-3.49003">
        <ele>110.6</ele>
        <time>2021-08-10T11:58:22Z</time>
      </trkpt>
      <trkpt lat="48.25345" lon="-3.49011">
        <ele>110.6</ele>
        <time>2021-08-10T11:58:23Z</time>
      </trkpt>
      <trkpt lat="48.25346" lon="-3.4902">
        <ele>110.6</ele>
        <time>2021-08-10T11:58:24Z</time>
      </trkpt>
      <trkpt lat="48.25347" lon="-3.49027">
        <ele>110.4</ele>
        <time>2021-08-10T11:58:25Z</time>
      </trkpt>
      <trkpt lat="48.25348" lon="-3.49035">
        <ele>110.2</ele>
        <time>2021-08-10T11:58:26Z</time>
      </trkpt>
      <trkpt lat="48.25349" lon="-3.49042">
        <ele>109.8</ele>
        <time>2021-08-10T11:58:27Z</time>
      </trkpt>
      <trkpt lat="48.2535" lon="-3.4905">
        <ele>109.4</ele>
        <time>2021-08-10T11:58:28Z</time>
      </trkpt>
      <trkpt lat="48.25351" lon="-3.49058">
        <ele>109.4</ele>
        <time>2021-08-10T11:58:29Z</time>
      </trkpt>
      <trkpt lat="48.25351" lon="-3.49067">
        <ele>109.2</ele>
        <time>2021-08-10T11:58:30Z</time>
      </trkpt>
      <trkpt lat="48.25352" lon="-3.49075">
        <ele>109</ele>
        <time>2021-08-10T11:58:31Z</time>
      </trkpt>
      <trkpt lat="48.25353" lon="-3.49083">
        <ele>108.8</ele>
        <time>2021-08-10T11:58:32Z</time>
      </trkpt>
      <trkpt lat="48.25354" lon="-3.49091">
        <ele>108.8</ele>
        <time>2021-08-10T11:58:33Z</time>
      </trkpt>
      <trkpt lat="48.25355" lon="-3.49099">
        <ele>108.6</ele>
        <time>2021-08-10T11:58:34Z</time>
      </trkpt>
      <trkpt lat="48.25355" lon="-3.49107">
        <ele>108.6</ele>
        <time>2021-08-10T11:58:35Z</time>
      </trkpt>
      <trkpt lat="48.25356" lon="-3.49114">
        <ele>108.4</ele>
        <time>2021-08-10T11:58:36Z</time>
      </trkpt>
      <trkpt lat="48.25357" lon="-3.49122">
        <ele>108.4</ele>
        <time>2021-08-10T11:58:37Z</time>
      </trkpt>
      <trkpt lat="48.25357" lon="-3.4913">
        <ele>108.4</ele>
        <time>2021-08-10T11:58:38Z</time>
      </trkpt>
      <trkpt lat="48.25358" lon="-3.49139">
        <ele>108.2</ele>
        <time>2021-08-10T11:58:39Z</time>
      </trkpt>
      <trkpt lat="48.25359" lon="-3.49147">
        <ele>108.2</ele>
        <time>2021-08-10T11:58:40Z</time>
      </trkpt>
      <trkpt lat="48.2536" lon="-3.49156">
        <ele>108.2</ele>
        <time>2021-08-10T11:58:41Z</time>
      </trkpt>
      <trkpt lat="48.25361" lon="-3.49164">
        <ele>108.2</ele>
        <time>2021-08-10T11:58:42Z</time>
      </trkpt>
      <trkpt lat="48.25362" lon="-3.49172">
        <ele>108</ele>
        <time>2021-08-10T11:58:43Z</time>
      </trkpt>
      <trkpt lat="48.25363" lon="-3.49181">
        <ele>108</ele>
        <time>2021-08-10T11:58:44Z</time>
      </trkpt>
      <trkpt lat="48.25364" lon="-3.4919">
        <ele>108</ele>
        <time>2021-08-10T11:58:45Z</time>
      </trkpt>
      <trkpt lat="48.25365" lon="-3.49199">
        <ele>107.8</ele>
        <time>2021-08-10T11:58:46Z</time>
      </trkpt>
      <trkpt lat="48.25366" lon="-3.49206">
        <ele>107.8</ele>
        <time>2021-08-10T11:58:47Z</time>
      </trkpt>
      <trkpt lat="48.25367" lon="-3.49214">
        <ele>107.8</ele>
        <time>2021-08-10T11:58:48Z</time>
      </trkpt>
      <trkpt lat="48.25367" lon="-3.49221">
        <ele>107.8</ele>
        <time>2021-08-10T11:58:49Z</time>
      </trkpt>
      <trkpt lat="48.25368" lon="-3.49228">
        <ele>107.4</ele>
        <time>2021-08-10T11:58:50Z</time>
      </trkpt>
      <trkpt lat="48.25369" lon="-3.49236">
        <ele>107.2</ele>
        <time>2021-08-10T11:58:51Z</time>
      </trkpt>
      <trkpt lat="48.2537" lon="-3.49243">
        <ele>107.2</ele>
        <time>2021-08-10T11:58:52Z</time>
      </trkpt>
      <trkpt lat="48.25371" lon="-3.4925">
        <ele>107.2</ele>
        <time>2021-08-10T11:58:53Z</time>
      </trkpt>
      <trkpt lat="48.25372" lon="-3.49258">
        <ele>107.2</ele>
        <time>2021-08-10T11:58:54Z</time>
      </trkpt>
      <trkpt lat="48.25373" lon="-3.49265">
        <ele>107.2</ele>
        <time>2021-08-10T11:58:55Z</time>
      </trkpt>
      <trkpt lat="48.25374" lon="-3.49273">
        <ele>107.2</ele>
        <time>2021-08-10T11:58:56Z</time>
      </trkpt>
      <trkpt lat="48.25375" lon="-3.49281">
        <ele>107.2</ele>
        <time>2021-08-10T11:58:57Z</time>
      </trkpt>
      <trkpt lat="48.25376" lon="-3.49288">
        <ele>107.2</ele>
        <time>2021-08-10T11:58:58Z</time>
      </trkpt>
      <trkpt lat="48.25376" lon="-3.49294">
        <ele>107.2</ele>
        <time>2021-08-10T11:58:59Z</time>
      </trkpt>
      <trkpt lat="48.25377" lon="-3.49301">
        <ele>107.2</ele>
        <time>2021-08-10T11:59:00Z</time>
      </trkpt>
      <trkpt lat="48.25378" lon="-3.49308">
        <ele>107.2</ele>
        <time>2021-08-10T11:59:01Z</time>
      </trkpt>
      <trkpt lat="48.25378" lon="-3.49315">
        <ele>107.4</ele>
        <time>2021-08-10T11:59:02Z</time>
      </trkpt>
      <trkpt lat="48.25379" lon="-3.49323">
        <ele>107.6</ele>
        <time>2021-08-10T11:59:03Z</time>
      </trkpt>
      <trkpt lat="48.25378" lon="-3.49331">
        <ele>107.6</ele>
        <time>2021-08-10T11:59:04Z</time>
      </trkpt>
      <trkpt lat="48.25378" lon="-3.49339">
        <ele>107.6</ele>
        <time>2021-08-10T11:59:05Z</time>
      </trkpt>
      <trkpt lat="48.25378" lon="-3.49347">
        <ele>107.6</ele>
        <time>2021-08-10T11:59:06Z</time>
      </trkpt>
      <trkpt lat="48.25377" lon="-3.49356">
        <ele>107.6</ele>
        <time>2021-08-10T11:59:07Z</time>
      </trkpt>
      <trkpt lat="48.25377" lon="-3.49364">
        <ele>107.8</ele>
        <time>2021-08-10T11:59:08Z</time>
      </trkpt>
      <trkpt lat="48.25377" lon="-3.49372">
        <ele>107.8</ele>
        <time>2021-08-10T11:59:09Z</time>
      </trkpt>
      <trkpt lat="48.25376" lon="-3.49379">
        <ele>107.8</ele>
        <time>2021-08-10T11:59:10Z</time>
      </trkpt>
      <trkpt lat="48.25376" lon="-3.49387">
        <ele>107.8</ele>
        <time>2021-08-10T11:59:11Z</time>
      </trkpt>
      <trkpt lat="48.25375" lon="-3.49394">
        <ele>107.8</ele>
        <time>2021-08-10T11:59:12Z</time>
      </trkpt>
      <trkpt lat="48.25375" lon="-3.49401">
        <ele>108</ele>
        <time>2021-08-10T11:59:13Z</time>
      </trkpt>
      <trkpt lat="48.25374" lon="-3.49408">
        <ele>108</ele>
        <time>2021-08-10T11:59:14Z</time>
      </trkpt>
      <trkpt lat="48.25373" lon="-3.49415">
        <ele>108</ele>
        <time>2021-08-10T11:59:15Z</time>
      </trkpt>
      <trkpt lat="48.25373" lon="-3.49421">
        <ele>108</ele>
        <time>2021-08-10T11:59:16Z</time>
      </trkpt>
      <trkpt lat="48.25372" lon="-3.49428">
        <ele>108</ele>
        <time>2021-08-10T11:59:17Z</time>
      </trkpt>
      <trkpt lat="48.25371" lon="-3.49436">
        <ele>108.2</ele>
        <time>2021-08-10T11:59:18Z</time>
      </trkpt>
      <trkpt lat="48.2537" lon="-3.49443">
        <ele>108.2</ele>
        <time>2021-08-10T11:59:19Z</time>
      </trkpt>
      <trkpt lat="48.25369" lon="-3.49452">
        <ele>108.4</ele>
        <time>2021-08-10T11:59:20Z</time>
      </trkpt>
      <trkpt lat="48.25368" lon="-3.4946">
        <ele>108.4</ele>
        <time>2021-08-10T11:59:21Z</time>
      </trkpt>
      <trkpt lat="48.25367" lon="-3.49468">
        <ele>108.4</ele>
        <time>2021-08-10T11:59:22Z</time>
      </trkpt>
      <trkpt lat="48.25367" lon="-3.49476">
        <ele>108.4</ele>
        <time>2021-08-10T11:59:23Z</time>
      </trkpt>
      <trkpt lat="48.25366" lon="-3.49484">
        <ele>108.4</ele>
        <time>2021-08-10T11:59:24Z</time>
      </trkpt>
      <trkpt lat="48.25365" lon="-3.49491">
        <ele>108.6</ele>
        <time>2021-08-10T11:59:25Z</time>
      </trkpt>
      <trkpt lat="48.25364" lon="-3.49499">
        <ele>108.6</ele>
        <time>2021-08-10T11:59:26Z</time>
      </trkpt>
      <trkpt lat="48.25363" lon="-3.49507">
        <ele>108.6</ele>
        <time>2021-08-10T11:59:27Z</time>
      </trkpt>
      <trkpt lat="48.25362" lon="-3.49516">
        <ele>108.6</ele>
        <time>2021-08-10T11:59:28Z</time>
      </trkpt>
      <trkpt lat="48.25361" lon="-3.49524">
        <ele>108.6</ele>
        <time>2021-08-10T11:59:29Z</time>
      </trkpt>
      <trkpt lat="48.25361" lon="-3.49532">
        <ele>108.6</ele>
        <time>2021-08-10T11:59:30Z</time>
      </trkpt>
      <trkpt lat="48.25361" lon="-3.49541">
        <ele>108.6</ele>
        <time>2021-08-10T11:59:31Z</time>
      </trkpt>
      <trkpt lat="48.2536" lon="-3.49549">
        <ele>108.6</ele>
        <time>2021-08-10T11:59:32Z</time>
      </trkpt>
      <trkpt lat="48.25359" lon="-3.49558">
        <ele>108.6</ele>
        <time>2021-08-10T11:59:33Z</time>
      </trkpt>
      <trkpt lat="48.25359" lon="-3.49567">
        <ele>108.6</ele>
        <time>2021-08-10T11:59:34Z</time>
      </trkpt>
      <trkpt lat="48.25358" lon="-3.49576">
        <ele>108.6</ele>
        <time>2021-08-10T11:59:35Z</time>
      </trkpt>
      <trkpt lat="48.25357" lon="-3.49584">
        <ele>108.8</ele>
        <time>2021-08-10T11:59:36Z</time>
      </trkpt>
      <trkpt lat="48.25357" lon="-3.49592">
        <ele>108.8</ele>
        <time>2021-08-10T11:59:37Z</time>
      </trkpt>
      <trkpt lat="48.25356" lon="-3.49601">
        <ele>108.8</ele>
        <time>2021-08-10T11:59:38Z</time>
      </trkpt>
      <trkpt lat="48.25355" lon="-3.49609">
        <ele>109</ele>
        <time>2021-08-10T11:59:39Z</time>
      </trkpt>
      <trkpt lat="48.25354" lon="-3.49618">
        <ele>109</ele>
        <time>2021-08-10T11:59:40Z</time>
      </trkpt>
      <trkpt lat="48.25353" lon="-3.49625">
        <ele>109</ele>
        <time>2021-08-10T11:59:41Z</time>
      </trkpt>
      <trkpt lat="48.25352" lon="-3.49634">
        <ele>109</ele>
        <time>2021-08-10T11:59:42Z</time>
      </trkpt>
      <trkpt lat="48.2535" lon="-3.49642">
        <ele>109</ele>
        <time>2021-08-10T11:59:43Z</time>
      </trkpt>
      <trkpt lat="48.2535" lon="-3.4965">
        <ele>109</ele>
        <time>2021-08-10T11:59:44Z</time>
      </trkpt>
      <trkpt lat="48.25348" lon="-3.49659">
        <ele>109</ele>
        <time>2021-08-10T11:59:45Z</time>
      </trkpt>
      <trkpt lat="48.25347" lon="-3.49667">
        <ele>109</ele>
        <time>2021-08-10T11:59:46Z</time>
      </trkpt>
      <trkpt lat="48.25346" lon="-3.49676">
        <ele>109</ele>
        <time>2021-08-10T11:59:47Z</time>
      </trkpt>
      <trkpt lat="48.25344" lon="-3.49685">
        <ele>109</ele>
        <time>2021-08-10T11:59:48Z</time>
      </trkpt>
      <trkpt lat="48.25343" lon="-3.49694">
        <ele>109</ele>
        <time>2021-08-10T11:59:49Z</time>
      </trkpt>
      <trkpt lat="48.25341" lon="-3.49704">
        <ele>109</ele>
        <time>2021-08-10T11:59:50Z</time>
      </trkpt>
      <trkpt lat="48.2534" lon="-3.49713">
        <ele>108.8</ele>
        <time>2021-08-10T11:59:51Z</time>
      </trkpt>
      <trkpt lat="48.25339" lon="-3.49723">
        <ele>108.6</ele>
        <time>2021-08-10T11:59:52Z</time>
      </trkpt>
      <trkpt lat="48.25339" lon="-3.49732">
        <ele>108.4</ele>
        <time>2021-08-10T11:59:53Z</time>
      </trkpt>
      <trkpt lat="48.25339" lon="-3.49742">
        <ele>108.2</ele>
        <time>2021-08-10T11:59:54Z</time>
      </trkpt>
      <trkpt lat="48.25339" lon="-3.49751">
        <ele>107.8</ele>
        <time>2021-08-10T11:59:55Z</time>
      </trkpt>
      <trkpt lat="48.2534" lon="-3.49759">
        <ele>107.6</ele>
        <time>2021-08-10T11:59:56Z</time>
      </trkpt>
      <trkpt lat="48.25341" lon="-3.49768">
        <ele>107.2</ele>
        <time>2021-08-10T11:59:57Z</time>
      </trkpt>
      <trkpt lat="48.25343" lon="-3.49777">
        <ele>107</ele>
        <time>2021-08-10T11:59:58Z</time>
      </trkpt>
      <trkpt lat="48.25344" lon="-3.49785">
        <ele>107</ele>
        <time>2021-08-10T11:59:59Z</time>
      </trkpt>
      <trkpt lat="48.25347" lon="-3.49793">
        <ele>106.8</ele>
        <time>2021-08-10T12:00:00Z</time>
      </trkpt>
      <trkpt lat="48.25349" lon="-3.49801">
        <ele>106.8</ele>
        <time>2021-08-10T12:00:01Z</time>
      </trkpt>
      <trkpt lat="48.25352" lon="-3.49808">
        <ele>106.8</ele>
        <time>2021-08-10T12:00:02Z</time>
      </trkpt>
      <trkpt lat="48.25356" lon="-3.49814">
        <ele>106.8</ele>
        <time>2021-08-10T12:00:03Z</time>
      </trkpt>
      <trkpt lat="48.2536" lon="-3.4982">
        <ele>106.8</ele>
        <time>2021-08-10T12:00:04Z</time>
      </trkpt>
      <trkpt lat="48.25363" lon="-3.49826">
        <ele>106.8</ele>
        <time>2021-08-10T12:00:05Z</time>
      </trkpt>
      <trkpt lat="48.25367" lon="-3.49832">
        <ele>106.6</ele>
        <time>2021-08-10T12:00:06Z</time>
      </trkpt>
      <trkpt lat="48.2537" lon="-3.49838">
        <ele>106.6</ele>
        <time>2021-08-10T12:00:07Z</time>
      </trkpt>
      <trkpt lat="48.25374" lon="-3.49842">
        <ele>106.6</ele>
        <time>2021-08-10T12:00:08Z</time>
      </trkpt>
      <trkpt lat="48.25378" lon="-3.49845">
        <ele>106.6</ele>
        <time>2021-08-10T12:00:09Z</time>
      </trkpt>
      <trkpt lat="48.25382" lon="-3.49849">
        <ele>106.6</ele>
        <time>2021-08-10T12:00:10Z</time>
      </trkpt>
      <trkpt lat="48.25386" lon="-3.49852">
        <ele>106.6</ele>
        <time>2021-08-10T12:00:11Z</time>
      </trkpt>
      <trkpt lat="48.2539" lon="-3.49855">
        <ele>106.8</ele>
        <time>2021-08-10T12:00:12Z</time>
      </trkpt>
      <trkpt lat="48.25394" lon="-3.49857">
        <ele>106.8</ele>
        <time>2021-08-10T12:00:13Z</time>
      </trkpt>
      <trkpt lat="48.25399" lon="-3.49859">
        <ele>106.8</ele>
        <time>2021-08-10T12:00:14Z</time>
      </trkpt>
      <trkpt lat="48.25404" lon="-3.49863">
        <ele>106.8</ele>
        <time>2021-08-10T12:00:15Z</time>
      </trkpt>
      <trkpt lat="48.25408" lon="-3.49866">
        <ele>106.8</ele>
        <time>2021-08-10T12:00:16Z</time>
      </trkpt>
      <trkpt lat="48.25413" lon="-3.4987">
        <ele>106.8</ele>
        <time>2021-08-10T12:00:17Z</time>
      </trkpt>
      <trkpt lat="48.25418" lon="-3.49874">
        <ele>106.8</ele>
        <time>2021-08-10T12:00:18Z</time>
      </trkpt>
      <trkpt lat="48.25422" lon="-3.49877">
        <ele>106.8</ele>
        <time>2021-08-10T12:00:19Z</time>
      </trkpt>
      <trkpt lat="48.25427" lon="-3.49881">
        <ele>106.6</ele>
        <time>2021-08-10T12:00:20Z</time>
      </trkpt>
      <trkpt lat="48.25432" lon="-3.49884">
        <ele>106.6</ele>
        <time>2021-08-10T12:00:21Z</time>
      </trkpt>
      <trkpt lat="48.25437" lon="-3.49888">
        <ele>106.6</ele>
        <time>2021-08-10T12:00:22Z</time>
      </trkpt>
      <trkpt lat="48.25442" lon="-3.49891">
        <ele>106.4</ele>
        <time>2021-08-10T12:00:23Z</time>
      </trkpt>
      <trkpt lat="48.25446" lon="-3.49895">
        <ele>106.4</ele>
        <time>2021-08-10T12:00:24Z</time>
      </trkpt>
      <trkpt lat="48.25451" lon="-3.49898">
        <ele>106.4</ele>
        <time>2021-08-10T12:00:25Z</time>
      </trkpt>
      <trkpt lat="48.25456" lon="-3.49902">
        <ele>106.2</ele>
        <time>2021-08-10T12:00:26Z</time>
      </trkpt>
      <trkpt lat="48.25461" lon="-3.49905">
        <ele>106.2</ele>
        <time>2021-08-10T12:00:27Z</time>
      </trkpt>
      <trkpt lat="48.25466" lon="-3.49909">
        <ele>106</ele>
        <time>2021-08-10T12:00:28Z</time>
      </trkpt>
      <trkpt lat="48.25471" lon="-3.49913">
        <ele>105.8</ele>
        <time>2021-08-10T12:00:29Z</time>
      </trkpt>
      <trkpt lat="48.25475" lon="-3.49916">
        <ele>105.8</ele>
        <time>2021-08-10T12:00:30Z</time>
      </trkpt>
      <trkpt lat="48.2548" lon="-3.4992">
        <ele>105.6</ele>
        <time>2021-08-10T12:00:31Z</time>
      </trkpt>
      <trkpt lat="48.25485" lon="-3.49923">
        <ele>105.6</ele>
        <time>2021-08-10T12:00:32Z</time>
      </trkpt>
      <trkpt lat="48.25489" lon="-3.49926">
        <ele>105.6</ele>
        <time>2021-08-10T12:00:33Z</time>
      </trkpt>
      <trkpt lat="48.25494" lon="-3.49929">
        <ele>105.6</ele>
        <time>2021-08-10T12:00:34Z</time>
      </trkpt>
      <trkpt lat="48.25498" lon="-3.49933">
        <ele>105.6</ele>
        <time>2021-08-10T12:00:35Z</time>
      </trkpt>
      <trkpt lat="48.25503" lon="-3.49936">
        <ele>105.6</ele>
        <time>2021-08-10T12:00:36Z</time>
      </trkpt>
      <trkpt lat="48.25507" lon="-3.49939">
        <ele>105.6</ele>
        <time>2021-08-10T12:00:37Z</time>
      </trkpt>
      <trkpt lat="48.25512" lon="-3.49942">
        <ele>105.6</ele>
        <time>2021-08-10T12:00:38Z</time>
      </trkpt>
      <trkpt lat="48.25516" lon="-3.49945">
        <ele>105.6</ele>
        <time>2021-08-10T12:00:39Z</time>
      </trkpt>
      <trkpt lat="48.25521" lon="-3.49948">
        <ele>105.6</ele>
        <time>2021-08-10T12:00:40Z</time>
      </trkpt>
      <trkpt lat="48.25526" lon="-3.49952">
        <ele>105.6</ele>
        <time>2021-08-10T12:00:41Z</time>
      </trkpt>
      <trkpt lat="48.2553" lon="-3.49956">
        <ele>105.6</ele>
        <time>2021-08-10T12:00:42Z</time>
      </trkpt>
      <trkpt lat="48.25535" lon="-3.4996">
        <ele>105.6</ele>
        <time>2021-08-10T12:00:43Z</time>
      </trkpt>
      <trkpt lat="48.2554" lon="-3.49963">
        <ele>105.6</ele>
        <time>2021-08-10T12:00:44Z</time>
      </trkpt>
      <trkpt lat="48.25545" lon="-3.49967">
        <ele>105.8</ele>
        <time>2021-08-10T12:00:45Z</time>
      </trkpt>
      <trkpt lat="48.2555" lon="-3.4997">
        <ele>105.8</ele>
        <time>2021-08-10T12:00:46Z</time>
      </trkpt>
      <trkpt lat="48.25555" lon="-3.49974">
        <ele>105.8</ele>
        <time>2021-08-10T12:00:47Z</time>
      </trkpt>
      <trkpt lat="48.2556" lon="-3.49977">
        <ele>105.8</ele>
        <time>2021-08-10T12:00:48Z</time>
      </trkpt>
      <trkpt lat="48.25565" lon="-3.49981">
        <ele>105.8</ele>
        <time>2021-08-10T12:00:49Z</time>
      </trkpt>
      <trkpt lat="48.2557" lon="-3.49985">
        <ele>105.8</ele>
        <time>2021-08-10T12:00:50Z</time>
      </trkpt>
      <trkpt lat="48.25574" lon="-3.49988">
        <ele>105.8</ele>
        <time>2021-08-10T12:00:51Z</time>
      </trkpt>
      <trkpt lat="48.25579" lon="-3.49992">
        <ele>105.8</ele>
        <time>2021-08-10T12:00:52Z</time>
      </trkpt>
      <trkpt lat="48.25584" lon="-3.49995">
        <ele>105.8</ele>
        <time>2021-08-10T12:00:53Z</time>
      </trkpt>
      <trkpt lat="48.25589" lon="-3.49998">
        <ele>105.8</ele>
        <time>2021-08-10T12:00:54Z</time>
      </trkpt>
      <trkpt lat="48.25594" lon="-3.50001">
        <ele>105.8</ele>
        <time>2021-08-10T12:00:55Z</time>
      </trkpt>
      <trkpt lat="48.25598" lon="-3.50005">
        <ele>105.8</ele>
        <time>2021-08-10T12:00:56Z</time>
      </trkpt>
      <trkpt lat="48.25603" lon="-3.50009">
        <ele>105.8</ele>
        <time>2021-08-10T12:00:57Z</time>
      </trkpt>
      <trkpt lat="48.25607" lon="-3.50014">
        <ele>105.8</ele>
        <time>2021-08-10T12:00:58Z</time>
      </trkpt>
      <trkpt lat="48.25612" lon="-3.50019">
        <ele>105.8</ele>
        <time>2021-08-10T12:00:59Z</time>
      </trkpt>
      <trkpt lat="48.25616" lon="-3.50024">
        <ele>105.8</ele>
        <time>2021-08-10T12:01:00Z</time>
      </trkpt>
      <trkpt lat="48.25619" lon="-3.50031">
        <ele>105.8</ele>
        <time>2021-08-10T12:01:01Z</time>
      </trkpt>
      <trkpt lat="48.25623" lon="-3.50037">
        <ele>105.8</ele>
        <time>2021-08-10T12:01:02Z</time>
      </trkpt>
      <trkpt lat="48.25626" lon="-3.50043">
        <ele>105.8</ele>
        <time>2021-08-10T12:01:03Z</time>
      </trkpt>
      <trkpt lat="48.25629" lon="-3.5005">
        <ele>105.8</ele>
        <time>2021-08-10T12:01:04Z</time>
      </trkpt>
      <trkpt lat="48.25631" lon="-3.50057">
        <ele>105.6</ele>
        <time>2021-08-10T12:01:05Z</time>
      </trkpt>
      <trkpt lat="48.25633" lon="-3.50064">
        <ele>105.6</ele>
        <time>2021-08-10T12:01:06Z</time>
      </trkpt>
      <trkpt lat="48.25636" lon="-3.50071">
        <ele>105.6</ele>
        <time>2021-08-10T12:01:07Z</time>
      </trkpt>
      <trkpt lat="48.25638" lon="-3.50078">
        <ele>105.6</ele>
        <time>2021-08-10T12:01:08Z</time>
      </trkpt>
      <trkpt lat="48.2564" lon="-3.50086">
        <ele>105.4</ele>
        <time>2021-08-10T12:01:09Z</time>
      </trkpt>
      <trkpt lat="48.25642" lon="-3.50093">
        <ele>105.4</ele>
        <time>2021-08-10T12:01:10Z</time>
      </trkpt>
      <trkpt lat="48.25644" lon="-3.501">
        <ele>105.4</ele>
        <time>2021-08-10T12:01:11Z</time>
      </trkpt>
      <trkpt lat="48.25646" lon="-3.50108">
        <ele>105.4</ele>
        <time>2021-08-10T12:01:12Z</time>
      </trkpt>
      <trkpt lat="48.25649" lon="-3.50115">
        <ele>105.4</ele>
        <time>2021-08-10T12:01:13Z</time>
      </trkpt>
      <trkpt lat="48.25651" lon="-3.50122">
        <ele>105.4</ele>
        <time>2021-08-10T12:01:14Z</time>
      </trkpt>
      <trkpt lat="48.25653" lon="-3.50128">
        <ele>105.4</ele>
        <time>2021-08-10T12:01:15Z</time>
      </trkpt>
      <trkpt lat="48.25655" lon="-3.50135">
        <ele>105.4</ele>
        <time>2021-08-10T12:01:16Z</time>
      </trkpt>
      <trkpt lat="48.25657" lon="-3.50141">
        <ele>105.4</ele>
        <time>2021-08-10T12:01:17Z</time>
      </trkpt>
      <trkpt lat="48.25659" lon="-3.50147">
        <ele>105.4</ele>
        <time>2021-08-10T12:01:18Z</time>
      </trkpt>
      <trkpt lat="48.25661" lon="-3.50153">
        <ele>105.2</ele>
        <time>2021-08-10T12:01:19Z</time>
      </trkpt>
      <trkpt lat="48.25663" lon="-3.5016">
        <ele>105.2</ele>
        <time>2021-08-10T12:01:20Z</time>
      </trkpt>
      <trkpt lat="48.25665" lon="-3.50167">
        <ele>105.2</ele>
        <time>2021-08-10T12:01:21Z</time>
      </trkpt>
      <trkpt lat="48.25667" lon="-3.50175">
        <ele>105.2</ele>
        <time>2021-08-10T12:01:22Z</time>
      </trkpt>
      <trkpt lat="48.25669" lon="-3.50181">
        <ele>105.2</ele>
        <time>2021-08-10T12:01:23Z</time>
      </trkpt>
      <trkpt lat="48.25671" lon="-3.50188">
        <ele>105.2</ele>
        <time>2021-08-10T12:01:24Z</time>
      </trkpt>
      <trkpt lat="48.25673" lon="-3.50195">
        <ele>105.2</ele>
        <time>2021-08-10T12:01:25Z</time>
      </trkpt>
      <trkpt lat="48.25675" lon="-3.50202">
        <ele>105.2</ele>
        <time>2021-08-10T12:01:26Z</time>
      </trkpt>
      <trkpt lat="48.25677" lon="-3.50209">
        <ele>105.2</ele>
        <time>2021-08-10T12:01:27Z</time>
      </trkpt>
      <trkpt lat="48.25678" lon="-3.50215">
        <ele>105.4</ele>
        <time>2021-08-10T12:01:28Z</time>
      </trkpt>
      <trkpt lat="48.2568" lon="-3.50221">
        <ele>105.4</ele>
        <time>2021-08-10T12:01:29Z</time>
      </trkpt>
      <trkpt lat="48.25682" lon="-3.50226">
        <ele>105.4</ele>
        <time>2021-08-10T12:01:30Z</time>
      </trkpt>
      <trkpt lat="48.25683" lon="-3.50231">
        <ele>105.6</ele>
        <time>2021-08-10T12:01:31Z</time>
      </trkpt>
      <trkpt lat="48.25685" lon="-3.50236">
        <ele>105.8</ele>
        <time>2021-08-10T12:01:32Z</time>
      </trkpt>
      <trkpt lat="48.25686" lon="-3.5024">
        <ele>105.8</ele>
        <time>2021-08-10T12:01:33Z</time>
      </trkpt>
      <trkpt lat="48.25688" lon="-3.50245">
        <ele>105.8</ele>
        <time>2021-08-10T12:01:34Z</time>
      </trkpt>
      <trkpt lat="48.25689" lon="-3.50249">
        <ele>106</ele>
        <time>2021-08-10T12:01:35Z</time>
      </trkpt>
      <trkpt lat="48.25691" lon="-3.50255">
        <ele>106</ele>
        <time>2021-08-10T12:01:36Z</time>
      </trkpt>
      <trkpt lat="48.25692" lon="-3.50261">
        <ele>106</ele>
        <time>2021-08-10T12:01:37Z</time>
      </trkpt>
      <trkpt lat="48.25694" lon="-3.50268">
        <ele>106</ele>
        <time>2021-08-10T12:01:38Z</time>
      </trkpt>
      <trkpt lat="48.25696" lon="-3.50275">
        <ele>106</ele>
        <time>2021-08-10T12:01:39Z</time>
      </trkpt>
      <trkpt lat="48.25698" lon="-3.50283">
        <ele>106</ele>
        <time>2021-08-10T12:01:40Z</time>
      </trkpt>
      <trkpt lat="48.257" lon="-3.50291">
        <ele>106</ele>
        <time>2021-08-10T12:01:41Z</time>
      </trkpt>
      <trkpt lat="48.25703" lon="-3.50299">
        <ele>106</ele>
        <time>2021-08-10T12:01:42Z</time>
      </trkpt>
      <trkpt lat="48.25705" lon="-3.50308">
        <ele>106</ele>
        <time>2021-08-10T12:01:43Z</time>
      </trkpt>
      <trkpt lat="48.25708" lon="-3.50316">
        <ele>106</ele>
        <time>2021-08-10T12:01:44Z</time>
      </trkpt>
      <trkpt lat="48.25711" lon="-3.50325">
        <ele>106</ele>
        <time>2021-08-10T12:01:45Z</time>
      </trkpt>
      <trkpt lat="48.25713" lon="-3.50333">
        <ele>105.6</ele>
        <time>2021-08-10T12:01:46Z</time>
      </trkpt>
      <trkpt lat="48.25716" lon="-3.50342">
        <ele>105</ele>
        <time>2021-08-10T12:01:47Z</time>
      </trkpt>
      <trkpt lat="48.25718" lon="-3.50351">
        <ele>104.6</ele>
        <time>2021-08-10T12:01:48Z</time>
      </trkpt>
      <trkpt lat="48.25719" lon="-3.5036">
        <ele>104</ele>
        <time>2021-08-10T12:01:49Z</time>
      </trkpt>
      <trkpt lat="48.25719" lon="-3.50369">
        <ele>103.8</ele>
        <time>2021-08-10T12:01:50Z</time>
      </trkpt>
      <trkpt lat="48.2572" lon="-3.50377">
        <ele>103.6</ele>
        <time>2021-08-10T12:01:51Z</time>
      </trkpt>
      <trkpt lat="48.25721" lon="-3.50386">
        <ele>103.6</ele>
        <time>2021-08-10T12:01:52Z</time>
      </trkpt>
      <trkpt lat="48.25721" lon="-3.50394">
        <ele>103.6</ele>
        <time>2021-08-10T12:01:53Z</time>
      </trkpt>
      <trkpt lat="48.25721" lon="-3.50402">
        <ele>103.6</ele>
        <time>2021-08-10T12:01:54Z</time>
      </trkpt>
      <trkpt lat="48.25721" lon="-3.50411">
        <ele>103.6</ele>
        <time>2021-08-10T12:01:55Z</time>
      </trkpt>
      <trkpt lat="48.2572" lon="-3.50419">
        <ele>103.6</ele>
        <time>2021-08-10T12:01:56Z</time>
      </trkpt>
      <trkpt lat="48.25719" lon="-3.50427">
        <ele>103.4</ele>
        <time>2021-08-10T12:01:57Z</time>
      </trkpt>
      <trkpt lat="48.25717" lon="-3.50435">
        <ele>103.4</ele>
        <time>2021-08-10T12:01:58Z</time>
      </trkpt>
      <trkpt lat="48.25716" lon="-3.50443">
        <ele>103.4</ele>
        <time>2021-08-10T12:01:59Z</time>
      </trkpt>
      <trkpt lat="48.25714" lon="-3.50451">
        <ele>103.2</ele>
        <time>2021-08-10T12:02:00Z</time>
      </trkpt>
      <trkpt lat="48.25712" lon="-3.50458">
        <ele>103.2</ele>
        <time>2021-08-10T12:02:01Z</time>
      </trkpt>
      <trkpt lat="48.2571" lon="-3.50466">
        <ele>103.2</ele>
        <time>2021-08-10T12:02:02Z</time>
      </trkpt>
      <trkpt lat="48.25707" lon="-3.50473">
        <ele>103.4</ele>
        <time>2021-08-10T12:02:03Z</time>
      </trkpt>
      <trkpt lat="48.25704" lon="-3.5048">
        <ele>103.4</ele>
        <time>2021-08-10T12:02:04Z</time>
      </trkpt>
      <trkpt lat="48.25701" lon="-3.50486">
        <ele>103.4</ele>
        <time>2021-08-10T12:02:05Z</time>
      </trkpt>
      <trkpt lat="48.25698" lon="-3.50492">
        <ele>103.4</ele>
        <time>2021-08-10T12:02:06Z</time>
      </trkpt>
      <trkpt lat="48.25695" lon="-3.50498">
        <ele>103.4</ele>
        <time>2021-08-10T12:02:07Z</time>
      </trkpt>
      <trkpt lat="48.25692" lon="-3.50504">
        <ele>103.4</ele>
        <time>2021-08-10T12:02:08Z</time>
      </trkpt>
      <trkpt lat="48.25689" lon="-3.50509">
        <ele>103.6</ele>
        <time>2021-08-10T12:02:09Z</time>
      </trkpt>
      <trkpt lat="48.25686" lon="-3.50515">
        <ele>103.6</ele>
        <time>2021-08-10T12:02:10Z</time>
      </trkpt>
      <trkpt lat="48.25682" lon="-3.50522">
        <ele>103.6</ele>
        <time>2021-08-10T12:02:11Z</time>
      </trkpt>
      <trkpt lat="48.25679" lon="-3.50528">
        <ele>103.6</ele>
        <time>2021-08-10T12:02:12Z</time>
      </trkpt>
      <trkpt lat="48.25675" lon="-3.50534">
        <ele>103.6</ele>
        <time>2021-08-10T12:02:13Z</time>
      </trkpt>
      <trkpt lat="48.25672" lon="-3.5054">
        <ele>103.6</ele>
        <time>2021-08-10T12:02:14Z</time>
      </trkpt>
      <trkpt lat="48.25668" lon="-3.50547">
        <ele>103.6</ele>
        <time>2021-08-10T12:02:15Z</time>
      </trkpt>
      <trkpt lat="48.25665" lon="-3.50553">
        <ele>103.6</ele>
        <time>2021-08-10T12:02:16Z</time>
      </trkpt>
      <trkpt lat="48.25662" lon="-3.5056">
        <ele>103.6</ele>
        <time>2021-08-10T12:02:17Z</time>
      </trkpt>
      <trkpt lat="48.25658" lon="-3.50566">
        <ele>103.6</ele>
        <time>2021-08-10T12:02:18Z</time>
      </trkpt>
      <trkpt lat="48.25654" lon="-3.50573">
        <ele>103.6</ele>
        <time>2021-08-10T12:02:19Z</time>
      </trkpt>
      <trkpt lat="48.25651" lon="-3.50579">
        <ele>103.6</ele>
        <time>2021-08-10T12:02:20Z</time>
      </trkpt>
      <trkpt lat="48.25647" lon="-3.50585">
        <ele>103.6</ele>
        <time>2021-08-10T12:02:21Z</time>
      </trkpt>
      <trkpt lat="48.25644" lon="-3.50592">
        <ele>103.6</ele>
        <time>2021-08-10T12:02:22Z</time>
      </trkpt>
      <trkpt lat="48.2564" lon="-3.50598">
        <ele>103.6</ele>
        <time>2021-08-10T12:02:23Z</time>
      </trkpt>
      <trkpt lat="48.25636" lon="-3.50605">
        <ele>103.2</ele>
        <time>2021-08-10T12:02:24Z</time>
      </trkpt>
      <trkpt lat="48.25633" lon="-3.50612">
        <ele>103.2</ele>
        <time>2021-08-10T12:02:25Z</time>
      </trkpt>
      <trkpt lat="48.25629" lon="-3.50619">
        <ele>103.2</ele>
        <time>2021-08-10T12:02:26Z</time>
      </trkpt>
      <trkpt lat="48.25626" lon="-3.50625">
        <ele>103.2</ele>
        <time>2021-08-10T12:02:27Z</time>
      </trkpt>
      <trkpt lat="48.25622" lon="-3.50632">
        <ele>103.2</ele>
        <time>2021-08-10T12:02:28Z</time>
      </trkpt>
      <trkpt lat="48.25618" lon="-3.50639">
        <ele>103.2</ele>
        <time>2021-08-10T12:02:29Z</time>
      </trkpt>
      <trkpt lat="48.25614" lon="-3.50645">
        <ele>103.2</ele>
        <time>2021-08-10T12:02:30Z</time>
      </trkpt>
      <trkpt lat="48.25611" lon="-3.50652">
        <ele>103.2</ele>
        <time>2021-08-10T12:02:31Z</time>
      </trkpt>
      <trkpt lat="48.25607" lon="-3.50658">
        <ele>103.2</ele>
        <time>2021-08-10T12:02:32Z</time>
      </trkpt>
      <trkpt lat="48.25603" lon="-3.50665">
        <ele>103.2</ele>
        <time>2021-08-10T12:02:33Z</time>
      </trkpt>
      <trkpt lat="48.256" lon="-3.50671">
        <ele>103.2</ele>
        <time>2021-08-10T12:02:34Z</time>
      </trkpt>
      <trkpt lat="48.25596" lon="-3.50678">
        <ele>103.2</ele>
        <time>2021-08-10T12:02:35Z</time>
      </trkpt>
      <trkpt lat="48.25593" lon="-3.50684">
        <ele>103.2</ele>
        <time>2021-08-10T12:02:36Z</time>
      </trkpt>
      <trkpt lat="48.2559" lon="-3.5069">
        <ele>103.2</ele>
        <time>2021-08-10T12:02:37Z</time>
      </trkpt>
      <trkpt lat="48.25587" lon="-3.50696">
        <ele>103.2</ele>
        <time>2021-08-10T12:02:38Z</time>
      </trkpt>
      <trkpt lat="48.25584" lon="-3.50702">
        <ele>103.2</ele>
        <time>2021-08-10T12:02:39Z</time>
      </trkpt>
      <trkpt lat="48.25581" lon="-3.50708">
        <ele>103.4</ele>
        <time>2021-08-10T12:02:40Z</time>
      </trkpt>
      <trkpt lat="48.25578" lon="-3.50714">
        <ele>103.4</ele>
        <time>2021-08-10T12:02:41Z</time>
      </trkpt>
      <trkpt lat="48.25575" lon="-3.5072">
        <ele>103.4</ele>
        <time>2021-08-10T12:02:42Z</time>
      </trkpt>
      <trkpt lat="48.25573" lon="-3.50727">
        <ele>103.4</ele>
        <time>2021-08-10T12:02:43Z</time>
      </trkpt>
      <trkpt lat="48.2557" lon="-3.50734">
        <ele>103.4</ele>
        <time>2021-08-10T12:02:44Z</time>
      </trkpt>
      <trkpt lat="48.25569" lon="-3.50741">
        <ele>103.4</ele>
        <time>2021-08-10T12:02:45Z</time>
      </trkpt>
      <trkpt lat="48.25567" lon="-3.50748">
        <ele>103.4</ele>
        <time>2021-08-10T12:02:46Z</time>
      </trkpt>
      <trkpt lat="48.25566" lon="-3.50756">
        <ele>103.4</ele>
        <time>2021-08-10T12:02:47Z</time>
      </trkpt>
      <trkpt lat="48.25565" lon="-3.50763">
        <ele>103.4</ele>
        <time>2021-08-10T12:02:48Z</time>
      </trkpt>
      <trkpt lat="48.25565" lon="-3.50771">
        <ele>103.4</ele>
        <time>2021-08-10T12:02:49Z</time>
      </trkpt>
      <trkpt lat="48.25565" lon="-3.5078">
        <ele>103.4</ele>
        <time>2021-08-10T12:02:50Z</time>
      </trkpt>
      <trkpt lat="48.25565" lon="-3.50788">
        <ele>103.2</ele>
        <time>2021-08-10T12:02:51Z</time>
      </trkpt>
      <trkpt lat="48.25566" lon="-3.50795">
        <ele>103.2</ele>
        <time>2021-08-10T12:02:52Z</time>
      </trkpt>
      <trkpt lat="48.25567" lon="-3.50803">
        <ele>103.2</ele>
        <time>2021-08-10T12:02:53Z</time>
      </trkpt>
      <trkpt lat="48.25568" lon="-3.5081">
        <ele>103.2</ele>
        <time>2021-08-10T12:02:54Z</time>
      </trkpt>
      <trkpt lat="48.2557" lon="-3.50818">
        <ele>103.2</ele>
        <time>2021-08-10T12:02:55Z</time>
      </trkpt>
      <trkpt lat="48.25572" lon="-3.50825">
        <ele>103</ele>
        <time>2021-08-10T12:02:56Z</time>
      </trkpt>
      <trkpt lat="48.25573" lon="-3.50832">
        <ele>103</ele>
        <time>2021-08-10T12:02:57Z</time>
      </trkpt>
      <trkpt lat="48.25575" lon="-3.50839">
        <ele>103</ele>
        <time>2021-08-10T12:02:58Z</time>
      </trkpt>
      <trkpt lat="48.25577" lon="-3.50847">
        <ele>103</ele>
        <time>2021-08-10T12:02:59Z</time>
      </trkpt>
      <trkpt lat="48.25579" lon="-3.50854">
        <ele>103</ele>
        <time>2021-08-10T12:03:00Z</time>
      </trkpt>
      <trkpt lat="48.25581" lon="-3.50861">
        <ele>103</ele>
        <time>2021-08-10T12:03:01Z</time>
      </trkpt>
      <trkpt lat="48.25583" lon="-3.5087">
        <ele>103</ele>
        <time>2021-08-10T12:03:02Z</time>
      </trkpt>
      <trkpt lat="48.25585" lon="-3.50878">
        <ele>102.8</ele>
        <time>2021-08-10T12:03:03Z</time>
      </trkpt>
      <trkpt lat="48.25587" lon="-3.50885">
        <ele>102.8</ele>
        <time>2021-08-10T12:03:04Z</time>
      </trkpt>
      <trkpt lat="48.25589" lon="-3.50893">
        <ele>102.8</ele>
        <time>2021-08-10T12:03:05Z</time>
      </trkpt>
      <trkpt lat="48.2559" lon="-3.509">
        <ele>102.8</ele>
        <time>2021-08-10T12:03:06Z</time>
      </trkpt>
      <trkpt lat="48.25592" lon="-3.50908">
        <ele>102.8</ele>
        <time>2021-08-10T12:03:07Z</time>
      </trkpt>
      <trkpt lat="48.25594" lon="-3.50916">
        <ele>102.8</ele>
        <time>2021-08-10T12:03:08Z</time>
      </trkpt>
      <trkpt lat="48.25596" lon="-3.50923">
        <ele>103</ele>
        <time>2021-08-10T12:03:09Z</time>
      </trkpt>
      <trkpt lat="48.25598" lon="-3.50931">
        <ele>103</ele>
        <time>2021-08-10T12:03:10Z</time>
      </trkpt>
      <trkpt lat="48.256" lon="-3.50938">
        <ele>103</ele>
        <time>2021-08-10T12:03:11Z</time>
      </trkpt>
      <trkpt lat="48.25602" lon="-3.50945">
        <ele>103</ele>
        <time>2021-08-10T12:03:12Z</time>
      </trkpt>
      <trkpt lat="48.25603" lon="-3.50952">
        <ele>103</ele>
        <time>2021-08-10T12:03:13Z</time>
      </trkpt>
      <trkpt lat="48.25605" lon="-3.50959">
        <ele>102.8</ele>
        <time>2021-08-10T12:03:14Z</time>
      </trkpt>
      <trkpt lat="48.25607" lon="-3.50966">
        <ele>102.8</ele>
        <time>2021-08-10T12:03:15Z</time>
      </trkpt>
      <trkpt lat="48.25609" lon="-3.50973">
        <ele>102.8</ele>
        <time>2021-08-10T12:03:16Z</time>
      </trkpt>
      <trkpt lat="48.25611" lon="-3.50981">
        <ele>102.8</ele>
        <time>2021-08-10T12:03:17Z</time>
      </trkpt>
      <trkpt lat="48.25613" lon="-3.50988">
        <ele>102.8</ele>
        <time>2021-08-10T12:03:18Z</time>
      </trkpt>
      <trkpt lat="48.25615" lon="-3.50996">
        <ele>102.8</ele>
        <time>2021-08-10T12:03:19Z</time>
      </trkpt>
      <trkpt lat="48.25617" lon="-3.51003">
        <ele>102.8</ele>
        <time>2021-08-10T12:03:20Z</time>
      </trkpt>
      <trkpt lat="48.2562" lon="-3.5101">
        <ele>102.6</ele>
        <time>2021-08-10T12:03:21Z</time>
      </trkpt>
      <trkpt lat="48.25622" lon="-3.51017">
        <ele>102.6</ele>
        <time>2021-08-10T12:03:22Z</time>
      </trkpt>
      <trkpt lat="48.25624" lon="-3.51024">
        <ele>102.6</ele>
        <time>2021-08-10T12:03:23Z</time>
      </trkpt>
      <trkpt lat="48.25626" lon="-3.51031">
        <ele>102.6</ele>
        <time>2021-08-10T12:03:24Z</time>
      </trkpt>
      <trkpt lat="48.25628" lon="-3.51039">
        <ele>102.4</ele>
        <time>2021-08-10T12:03:25Z</time>
      </trkpt>
      <trkpt lat="48.2563" lon="-3.51048">
        <ele>102</ele>
        <time>2021-08-10T12:03:26Z</time>
      </trkpt>
      <trkpt lat="48.25632" lon="-3.51056">
        <ele>101.8</ele>
        <time>2021-08-10T12:03:27Z</time>
      </trkpt>
      <trkpt lat="48.25634" lon="-3.51065">
        <ele>101.6</ele>
        <time>2021-08-10T12:03:28Z</time>
      </trkpt>
      <trkpt lat="48.25636" lon="-3.51075">
        <ele>101.4</ele>
        <time>2021-08-10T12:03:29Z</time>
      </trkpt>
      <trkpt lat="48.25638" lon="-3.51084">
        <ele>101.4</ele>
        <time>2021-08-10T12:03:30Z</time>
      </trkpt>
      <trkpt lat="48.2564" lon="-3.51093">
        <ele>101.2</ele>
        <time>2021-08-10T12:03:31Z</time>
      </trkpt>
      <trkpt lat="48.25642" lon="-3.51102">
        <ele>101.2</ele>
        <time>2021-08-10T12:03:32Z</time>
      </trkpt>
      <trkpt lat="48.25645" lon="-3.5111">
        <ele>100.8</ele>
        <time>2021-08-10T12:03:33Z</time>
      </trkpt>
      <trkpt lat="48.25647" lon="-3.51118">
        <ele>100.6</ele>
        <time>2021-08-10T12:03:34Z</time>
      </trkpt>
      <trkpt lat="48.25648" lon="-3.51126">
        <ele>100.4</ele>
        <time>2021-08-10T12:03:35Z</time>
      </trkpt>
      <trkpt lat="48.2565" lon="-3.51134">
        <ele>100.4</ele>
        <time>2021-08-10T12:03:36Z</time>
      </trkpt>
      <trkpt lat="48.25652" lon="-3.51142">
        <ele>100.2</ele>
        <time>2021-08-10T12:03:37Z</time>
      </trkpt>
      <trkpt lat="48.25654" lon="-3.5115">
        <ele>100.2</ele>
        <time>2021-08-10T12:03:38Z</time>
      </trkpt>
      <trkpt lat="48.25656" lon="-3.51157">
        <ele>100.2</ele>
        <time>2021-08-10T12:03:39Z</time>
      </trkpt>
      <trkpt lat="48.25658" lon="-3.51165">
        <ele>100.2</ele>
        <time>2021-08-10T12:03:40Z</time>
      </trkpt>
      <trkpt lat="48.2566" lon="-3.51173">
        <ele>100</ele>
        <time>2021-08-10T12:03:41Z</time>
      </trkpt>
      <trkpt lat="48.25662" lon="-3.51181">
        <ele>100</ele>
        <time>2021-08-10T12:03:42Z</time>
      </trkpt>
      <trkpt lat="48.25664" lon="-3.51189">
        <ele>100</ele>
        <time>2021-08-10T12:03:43Z</time>
      </trkpt>
      <trkpt lat="48.25666" lon="-3.51197">
        <ele>99.8</ele>
        <time>2021-08-10T12:03:44Z</time>
      </trkpt>
      <trkpt lat="48.25668" lon="-3.51205">
        <ele>99.8</ele>
        <time>2021-08-10T12:03:45Z</time>
      </trkpt>
      <trkpt lat="48.2567" lon="-3.51213">
        <ele>99.8</ele>
        <time>2021-08-10T12:03:46Z</time>
      </trkpt>
      <trkpt lat="48.25672" lon="-3.51221">
        <ele>99.8</ele>
        <time>2021-08-10T12:03:47Z</time>
      </trkpt>
      <trkpt lat="48.25673" lon="-3.51229">
        <ele>99.8</ele>
        <time>2021-08-10T12:03:48Z</time>
      </trkpt>
      <trkpt lat="48.25675" lon="-3.51237">
        <ele>99.8</ele>
        <time>2021-08-10T12:03:49Z</time>
      </trkpt>
      <trkpt lat="48.25677" lon="-3.51245">
        <ele>99.8</ele>
        <time>2021-08-10T12:03:50Z</time>
      </trkpt>
      <trkpt lat="48.25679" lon="-3.51253">
        <ele>99.8</ele>
        <time>2021-08-10T12:03:51Z</time>
      </trkpt>
      <trkpt lat="48.25682" lon="-3.51262">
        <ele>99.8</ele>
        <time>2021-08-10T12:03:52Z</time>
      </trkpt>
      <trkpt lat="48.25684" lon="-3.5127">
        <ele>99.8</ele>
        <time>2021-08-10T12:03:53Z</time>
      </trkpt>
      <trkpt lat="48.25686" lon="-3.51279">
        <ele>99.8</ele>
        <time>2021-08-10T12:03:54Z</time>
      </trkpt>
      <trkpt lat="48.25688" lon="-3.51288">
        <ele>99.8</ele>
        <time>2021-08-10T12:03:55Z</time>
      </trkpt>
      <trkpt lat="48.2569" lon="-3.51296">
        <ele>99.8</ele>
        <time>2021-08-10T12:03:56Z</time>
      </trkpt>
      <trkpt lat="48.25692" lon="-3.51305">
        <ele>99.8</ele>
        <time>2021-08-10T12:03:57Z</time>
      </trkpt>
      <trkpt lat="48.25694" lon="-3.51313">
        <ele>99.8</ele>
        <time>2021-08-10T12:03:58Z</time>
      </trkpt>
      <trkpt lat="48.25696" lon="-3.51322">
        <ele>99.8</ele>
        <time>2021-08-10T12:03:59Z</time>
      </trkpt>
      <trkpt lat="48.25698" lon="-3.5133">
        <ele>99.8</ele>
        <time>2021-08-10T12:04:00Z</time>
      </trkpt>
      <trkpt lat="48.257" lon="-3.51338">
        <ele>99.8</ele>
        <time>2021-08-10T12:04:01Z</time>
      </trkpt>
      <trkpt lat="48.25702" lon="-3.51346">
        <ele>100</ele>
        <time>2021-08-10T12:04:02Z</time>
      </trkpt>
      <trkpt lat="48.25704" lon="-3.51353">
        <ele>100</ele>
        <time>2021-08-10T12:04:03Z</time>
      </trkpt>
      <trkpt lat="48.25706" lon="-3.51361">
        <ele>100</ele>
        <time>2021-08-10T12:04:04Z</time>
      </trkpt>
      <trkpt lat="48.25708" lon="-3.51368">
        <ele>100</ele>
        <time>2021-08-10T12:04:05Z</time>
      </trkpt>
      <trkpt lat="48.2571" lon="-3.51375">
        <ele>100.2</ele>
        <time>2021-08-10T12:04:06Z</time>
      </trkpt>
      <trkpt lat="48.25711" lon="-3.51382">
        <ele>100.2</ele>
        <time>2021-08-10T12:04:07Z</time>
      </trkpt>
      <trkpt lat="48.25711" lon="-3.51388">
        <ele>100.2</ele>
        <time>2021-08-10T12:04:08Z</time>
      </trkpt>
      <trkpt lat="48.25712" lon="-3.51396">
        <ele>100.2</ele>
        <time>2021-08-10T12:04:09Z</time>
      </trkpt>
      <trkpt lat="48.25712" lon="-3.51404">
        <ele>100</ele>
        <time>2021-08-10T12:04:10Z</time>
      </trkpt>
      <trkpt lat="48.25712" lon="-3.51413">
        <ele>100</ele>
        <time>2021-08-10T12:04:11Z</time>
      </trkpt>
      <trkpt lat="48.25712" lon="-3.51421">
        <ele>100</ele>
        <time>2021-08-10T12:04:12Z</time>
      </trkpt>
      <trkpt lat="48.25712" lon="-3.51429">
        <ele>100</ele>
        <time>2021-08-10T12:04:13Z</time>
      </trkpt>
      <trkpt lat="48.25711" lon="-3.51437">
        <ele>100</ele>
        <time>2021-08-10T12:04:14Z</time>
      </trkpt>
      <trkpt lat="48.2571" lon="-3.51445">
        <ele>100</ele>
        <time>2021-08-10T12:04:15Z</time>
      </trkpt>
      <trkpt lat="48.25708" lon="-3.51453">
        <ele>100.2</ele>
        <time>2021-08-10T12:04:16Z</time>
      </trkpt>
      <trkpt lat="48.25706" lon="-3.51461">
        <ele>100.2</ele>
        <time>2021-08-10T12:04:17Z</time>
      </trkpt>
      <trkpt lat="48.25704" lon="-3.5147">
        <ele>100.2</ele>
        <time>2021-08-10T12:04:18Z</time>
      </trkpt>
      <trkpt lat="48.25702" lon="-3.51478">
        <ele>100</ele>
        <time>2021-08-10T12:04:19Z</time>
      </trkpt>
      <trkpt lat="48.257" lon="-3.51485">
        <ele>100</ele>
        <time>2021-08-10T12:04:20Z</time>
      </trkpt>
      <trkpt lat="48.25699" lon="-3.51493">
        <ele>100</ele>
        <time>2021-08-10T12:04:21Z</time>
      </trkpt>
      <trkpt lat="48.25697" lon="-3.515">
        <ele>100</ele>
        <time>2021-08-10T12:04:22Z</time>
      </trkpt>
      <trkpt lat="48.25696" lon="-3.51506">
        <ele>100</ele>
        <time>2021-08-10T12:04:23Z</time>
      </trkpt>
      <trkpt lat="48.25694" lon="-3.51513">
        <ele>100</ele>
        <time>2021-08-10T12:04:24Z</time>
      </trkpt>
      <trkpt lat="48.25692" lon="-3.5152">
        <ele>100</ele>
        <time>2021-08-10T12:04:25Z</time>
      </trkpt>
      <trkpt lat="48.25691" lon="-3.51527">
        <ele>100</ele>
        <time>2021-08-10T12:04:26Z</time>
      </trkpt>
      <trkpt lat="48.25689" lon="-3.51534">
        <ele>100</ele>
        <time>2021-08-10T12:04:27Z</time>
      </trkpt>
      <trkpt lat="48.25687" lon="-3.51541">
        <ele>100</ele>
        <time>2021-08-10T12:04:28Z</time>
      </trkpt>
      <trkpt lat="48.25686" lon="-3.51548">
        <ele>100</ele>
        <time>2021-08-10T12:04:29Z</time>
      </trkpt>
      <trkpt lat="48.25685" lon="-3.51555">
        <ele>100</ele>
        <time>2021-08-10T12:04:30Z</time>
      </trkpt>
      <trkpt lat="48.25683" lon="-3.51563">
        <ele>100</ele>
        <time>2021-08-10T12:04:31Z</time>
      </trkpt>
      <trkpt lat="48.25681" lon="-3.5157">
        <ele>100</ele>
        <time>2021-08-10T12:04:32Z</time>
      </trkpt>
      <trkpt lat="48.25679" lon="-3.51578">
        <ele>100</ele>
        <time>2021-08-10T12:04:33Z</time>
      </trkpt>
      <trkpt lat="48.25677" lon="-3.51586">
        <ele>100</ele>
        <time>2021-08-10T12:04:34Z</time>
      </trkpt>
      <trkpt lat="48.25676" lon="-3.51594">
        <ele>100</ele>
        <time>2021-08-10T12:04:35Z</time>
      </trkpt>
      <trkpt lat="48.25674" lon="-3.51602">
        <ele>100</ele>
        <time>2021-08-10T12:04:36Z</time>
      </trkpt>
      <trkpt lat="48.25672" lon="-3.51611">
        <ele>100</ele>
        <time>2021-08-10T12:04:37Z</time>
      </trkpt>
      <trkpt lat="48.2567" lon="-3.51619">
        <ele>100</ele>
        <time>2021-08-10T12:04:38Z</time>
      </trkpt>
      <trkpt lat="48.25668" lon="-3.51628">
        <ele>100</ele>
        <time>2021-08-10T12:04:39Z</time>
      </trkpt>
      <trkpt lat="48.25666" lon="-3.51637">
        <ele>100</ele>
        <time>2021-08-10T12:04:40Z</time>
      </trkpt>
      <trkpt lat="48.25663" lon="-3.51646">
        <ele>100</ele>
        <time>2021-08-10T12:04:41Z</time>
      </trkpt>
      <trkpt lat="48.25662" lon="-3.51653">
        <ele>99.8</ele>
        <time>2021-08-10T12:04:42Z</time>
      </trkpt>
      <trkpt lat="48.2566" lon="-3.5166">
        <ele>99.8</ele>
        <time>2021-08-10T12:04:43Z</time>
      </trkpt>
      <trkpt lat="48.25658" lon="-3.51667">
        <ele>99.4</ele>
        <time>2021-08-10T12:04:44Z</time>
      </trkpt>
      <trkpt lat="48.25656" lon="-3.51675">
        <ele>99.2</ele>
        <time>2021-08-10T12:04:45Z</time>
      </trkpt>
      <trkpt lat="48.25654" lon="-3.51683">
        <ele>98.8</ele>
        <time>2021-08-10T12:04:46Z</time>
      </trkpt>
      <trkpt lat="48.25652" lon="-3.51691">
        <ele>98.6</ele>
        <time>2021-08-10T12:04:47Z</time>
      </trkpt>
      <trkpt lat="48.2565" lon="-3.517">
        <ele>98.6</ele>
        <time>2021-08-10T12:04:48Z</time>
      </trkpt>
      <trkpt lat="48.25647" lon="-3.51709">
        <ele>98.4</ele>
        <time>2021-08-10T12:04:49Z</time>
      </trkpt>
      <trkpt lat="48.25645" lon="-3.51717">
        <ele>98.4</ele>
        <time>2021-08-10T12:04:50Z</time>
      </trkpt>
      <trkpt lat="48.25643" lon="-3.51726">
        <ele>98.4</ele>
        <time>2021-08-10T12:04:51Z</time>
      </trkpt>
      <trkpt lat="48.25641" lon="-3.51735">
        <ele>98.4</ele>
        <time>2021-08-10T12:04:52Z</time>
      </trkpt>
      <trkpt lat="48.25639" lon="-3.51744">
        <ele>98.2</ele>
        <time>2021-08-10T12:04:53Z</time>
      </trkpt>
      <trkpt lat="48.25637" lon="-3.51752">
        <ele>98.2</ele>
        <time>2021-08-10T12:04:54Z</time>
      </trkpt>
      <trkpt lat="48.25634" lon="-3.5176">
        <ele>98.2</ele>
        <time>2021-08-10T12:04:55Z</time>
      </trkpt>
      <trkpt lat="48.25632" lon="-3.51767">
        <ele>98</ele>
        <time>2021-08-10T12:04:56Z</time>
      </trkpt>
      <trkpt lat="48.2563" lon="-3.51774">
        <ele>98</ele>
        <time>2021-08-10T12:04:57Z</time>
      </trkpt>
      <trkpt lat="48.25627" lon="-3.51782">
        <ele>98</ele>
        <time>2021-08-10T12:04:58Z</time>
      </trkpt>
      <trkpt lat="48.25625" lon="-3.51789">
        <ele>98</ele>
        <time>2021-08-10T12:04:59Z</time>
      </trkpt>
      <trkpt lat="48.25623" lon="-3.51796">
        <ele>98</ele>
        <time>2021-08-10T12:05:00Z</time>
      </trkpt>
      <trkpt lat="48.25621" lon="-3.51804">
        <ele>98</ele>
        <time>2021-08-10T12:05:01Z</time>
      </trkpt>
      <trkpt lat="48.25619" lon="-3.51812">
        <ele>98</ele>
        <time>2021-08-10T12:05:02Z</time>
      </trkpt>
      <trkpt lat="48.25617" lon="-3.5182">
        <ele>98</ele>
        <time>2021-08-10T12:05:03Z</time>
      </trkpt>
      <trkpt lat="48.25615" lon="-3.51828">
        <ele>98</ele>
        <time>2021-08-10T12:05:04Z</time>
      </trkpt>
      <trkpt lat="48.25613" lon="-3.51836">
        <ele>98</ele>
        <time>2021-08-10T12:05:05Z</time>
      </trkpt>
      <trkpt lat="48.2561" lon="-3.51844">
        <ele>98</ele>
        <time>2021-08-10T12:05:06Z</time>
      </trkpt>
      <trkpt lat="48.25608" lon="-3.51851">
        <ele>98</ele>
        <time>2021-08-10T12:05:07Z</time>
      </trkpt>
      <trkpt lat="48.25606" lon="-3.51857">
        <ele>98</ele>
        <time>2021-08-10T12:05:08Z</time>
      </trkpt>
      <trkpt lat="48.25604" lon="-3.51864">
        <ele>98</ele>
        <time>2021-08-10T12:05:09Z</time>
      </trkpt>
      <trkpt lat="48.25602" lon="-3.51872">
        <ele>98</ele>
        <time>2021-08-10T12:05:10Z</time>
      </trkpt>
      <trkpt lat="48.256" lon="-3.51879">
        <ele>98</ele>
        <time>2021-08-10T12:05:11Z</time>
      </trkpt>
      <trkpt lat="48.25598" lon="-3.51886">
        <ele>98</ele>
        <time>2021-08-10T12:05:12Z</time>
      </trkpt>
      <trkpt lat="48.25597" lon="-3.51893">
        <ele>98.2</ele>
        <time>2021-08-10T12:05:13Z</time>
      </trkpt>
      <trkpt lat="48.25595" lon="-3.51901">
        <ele>98.2</ele>
        <time>2021-08-10T12:05:14Z</time>
      </trkpt>
      <trkpt lat="48.25593" lon="-3.51908">
        <ele>98.2</ele>
        <time>2021-08-10T12:05:15Z</time>
      </trkpt>
      <trkpt lat="48.25591" lon="-3.51915">
        <ele>98.2</ele>
        <time>2021-08-10T12:05:16Z</time>
      </trkpt>
      <trkpt lat="48.25589" lon="-3.51923">
        <ele>98.2</ele>
        <time>2021-08-10T12:05:17Z</time>
      </trkpt>
      <trkpt lat="48.25587" lon="-3.5193">
        <ele>98.2</ele>
        <time>2021-08-10T12:05:18Z</time>
      </trkpt>
      <trkpt lat="48.25585" lon="-3.51938">
        <ele>98.2</ele>
        <time>2021-08-10T12:05:19Z</time>
      </trkpt>
      <trkpt lat="48.25583" lon="-3.51945">
        <ele>98.2</ele>
        <time>2021-08-10T12:05:20Z</time>
      </trkpt>
      <trkpt lat="48.25581" lon="-3.51952">
        <ele>98</ele>
        <time>2021-08-10T12:05:21Z</time>
      </trkpt>
      <trkpt lat="48.25579" lon="-3.51959">
        <ele>98</ele>
        <time>2021-08-10T12:05:22Z</time>
      </trkpt>
      <trkpt lat="48.25577" lon="-3.51966">
        <ele>98</ele>
        <time>2021-08-10T12:05:23Z</time>
      </trkpt>
      <trkpt lat="48.25576" lon="-3.51974">
        <ele>98</ele>
        <time>2021-08-10T12:05:24Z</time>
      </trkpt>
      <trkpt lat="48.25574" lon="-3.51981">
        <ele>98</ele>
        <time>2021-08-10T12:05:25Z</time>
      </trkpt>
      <trkpt lat="48.25572" lon="-3.51989">
        <ele>98</ele>
        <time>2021-08-10T12:05:26Z</time>
      </trkpt>
      <trkpt lat="48.2557" lon="-3.51997">
        <ele>98</ele>
        <time>2021-08-10T12:05:27Z</time>
      </trkpt>
      <trkpt lat="48.25568" lon="-3.52005">
        <ele>98</ele>
        <time>2021-08-10T12:05:28Z</time>
      </trkpt>
      <trkpt lat="48.25566" lon="-3.52013">
        <ele>98.2</ele>
        <time>2021-08-10T12:05:29Z</time>
      </trkpt>
      <trkpt lat="48.25564" lon="-3.52021">
        <ele>98.2</ele>
        <time>2021-08-10T12:05:30Z</time>
      </trkpt>
      <trkpt lat="48.25561" lon="-3.52028">
        <ele>98.2</ele>
        <time>2021-08-10T12:05:31Z</time>
      </trkpt>
      <trkpt lat="48.25559" lon="-3.52036">
        <ele>98.2</ele>
        <time>2021-08-10T12:05:32Z</time>
      </trkpt>
      <trkpt lat="48.25557" lon="-3.52044">
        <ele>98</ele>
        <time>2021-08-10T12:05:33Z</time>
      </trkpt>
      <trkpt lat="48.25555" lon="-3.52052">
        <ele>98</ele>
        <time>2021-08-10T12:05:34Z</time>
      </trkpt>
      <trkpt lat="48.25553" lon="-3.5206">
        <ele>98</ele>
        <time>2021-08-10T12:05:35Z</time>
      </trkpt>
      <trkpt lat="48.25551" lon="-3.52068">
        <ele>98</ele>
        <time>2021-08-10T12:05:36Z</time>
      </trkpt>
      <trkpt lat="48.25549" lon="-3.52075">
        <ele>98</ele>
        <time>2021-08-10T12:05:37Z</time>
      </trkpt>
      <trkpt lat="48.25547" lon="-3.52083">
        <ele>98</ele>
        <time>2021-08-10T12:05:38Z</time>
      </trkpt>
      <trkpt lat="48.25545" lon="-3.52089">
        <ele>98</ele>
        <time>2021-08-10T12:05:39Z</time>
      </trkpt>
      <trkpt lat="48.25543" lon="-3.52096">
        <ele>97.8</ele>
        <time>2021-08-10T12:05:40Z</time>
      </trkpt>
      <trkpt lat="48.25542" lon="-3.52102">
        <ele>97.8</ele>
        <time>2021-08-10T12:05:41Z</time>
      </trkpt>
      <trkpt lat="48.25541" lon="-3.52108">
        <ele>97.8</ele>
        <time>2021-08-10T12:05:42Z</time>
      </trkpt>
      <trkpt lat="48.25539" lon="-3.52114">
        <ele>97.8</ele>
        <time>2021-08-10T12:05:43Z</time>
      </trkpt>
      <trkpt lat="48.25538" lon="-3.52121">
        <ele>97.8</ele>
        <time>2021-08-10T12:05:44Z</time>
      </trkpt>
      <trkpt lat="48.25536" lon="-3.52127">
        <ele>97.8</ele>
        <time>2021-08-10T12:05:45Z</time>
      </trkpt>
      <trkpt lat="48.25535" lon="-3.52133">
        <ele>97.8</ele>
        <time>2021-08-10T12:05:46Z</time>
      </trkpt>
      <trkpt lat="48.25534" lon="-3.52139">
        <ele>97.8</ele>
        <time>2021-08-10T12:05:47Z</time>
      </trkpt>
      <trkpt lat="48.25533" lon="-3.52145">
        <ele>97.8</ele>
        <time>2021-08-10T12:05:48Z</time>
      </trkpt>
      <trkpt lat="48.25531" lon="-3.52152">
        <ele>97.8</ele>
        <time>2021-08-10T12:05:49Z</time>
      </trkpt>
      <trkpt lat="48.25531" lon="-3.52159">
        <ele>97.8</ele>
        <time>2021-08-10T12:05:50Z</time>
      </trkpt>
      <trkpt lat="48.2553" lon="-3.52165">
        <ele>97.8</ele>
        <time>2021-08-10T12:05:51Z</time>
      </trkpt>
      <trkpt lat="48.2553" lon="-3.52171">
        <ele>98</ele>
        <time>2021-08-10T12:05:52Z</time>
      </trkpt>
      <trkpt lat="48.25531" lon="-3.52176">
        <ele>98</ele>
        <time>2021-08-10T12:05:53Z</time>
      </trkpt>
      <trkpt lat="48.25531" lon="-3.5218">
        <ele>98.2</ele>
        <time>2021-08-10T12:05:54Z</time>
      </trkpt>
      <trkpt lat="48.25531" lon="-3.52183">
        <ele>98.4</ele>
        <time>2021-08-10T12:05:55Z</time>
      </trkpt>
      <trkpt lat="48.25532" lon="-3.52186">
        <ele>98.6</ele>
        <time>2021-08-10T12:05:56Z</time>
      </trkpt>
      <trkpt lat="48.25532" lon="-3.52189">
        <ele>98.8</ele>
        <time>2021-08-10T12:05:57Z</time>
      </trkpt>
      <trkpt lat="48.25533" lon="-3.52191">
        <ele>99</ele>
        <time>2021-08-10T12:05:58Z</time>
      </trkpt>
      <trkpt lat="48.25534" lon="-3.52194">
        <ele>99.2</ele>
        <time>2021-08-10T12:05:59Z</time>
      </trkpt>
      <trkpt lat="48.25535" lon="-3.52198">
        <ele>99.6</ele>
        <time>2021-08-10T12:06:00Z</time>
      </trkpt>
      <trkpt lat="48.25536" lon="-3.52202">
        <ele>99.8</ele>
        <time>2021-08-10T12:06:01Z</time>
      </trkpt>
      <trkpt lat="48.25537" lon="-3.52205">
        <ele>100.2</ele>
        <time>2021-08-10T12:06:02Z</time>
      </trkpt>
      <trkpt lat="48.25537" lon="-3.52209">
        <ele>100.6</ele>
        <time>2021-08-10T12:06:03Z</time>
      </trkpt>
      <trkpt lat="48.25538" lon="-3.52213">
        <ele>100.8</ele>
        <time>2021-08-10T12:06:04Z</time>
      </trkpt>
      <trkpt lat="48.25538" lon="-3.52217">
        <ele>101</ele>
        <time>2021-08-10T12:06:05Z</time>
      </trkpt>
      <trkpt lat="48.25539" lon="-3.52221">
        <ele>101</ele>
        <time>2021-08-10T12:06:06Z</time>
      </trkpt>
      <trkpt lat="48.25539" lon="-3.52226">
        <ele>101</ele>
        <time>2021-08-10T12:06:07Z</time>
      </trkpt>
      <trkpt lat="48.2554" lon="-3.52231">
        <ele>101</ele>
        <time>2021-08-10T12:06:08Z</time>
      </trkpt>
      <trkpt lat="48.25542" lon="-3.52236">
        <ele>101</ele>
        <time>2021-08-10T12:06:09Z</time>
      </trkpt>
      <trkpt lat="48.25544" lon="-3.52242">
        <ele>101</ele>
        <time>2021-08-10T12:06:10Z</time>
      </trkpt>
      <trkpt lat="48.25547" lon="-3.52249">
        <ele>101</ele>
        <time>2021-08-10T12:06:11Z</time>
      </trkpt>
      <trkpt lat="48.25551" lon="-3.52255">
        <ele>101</ele>
        <time>2021-08-10T12:06:12Z</time>
      </trkpt>
      <trkpt lat="48.25555" lon="-3.5226">
        <ele>101</ele>
        <time>2021-08-10T12:06:13Z</time>
      </trkpt>
      <trkpt lat="48.2556" lon="-3.52264">
        <ele>101</ele>
        <time>2021-08-10T12:06:14Z</time>
      </trkpt>
      <trkpt lat="48.25565" lon="-3.52268">
        <ele>101</ele>
        <time>2021-08-10T12:06:15Z</time>
      </trkpt>
      <trkpt lat="48.25571" lon="-3.52272">
        <ele>100.8</ele>
        <time>2021-08-10T12:06:16Z</time>
      </trkpt>
      <trkpt lat="48.25576" lon="-3.52277">
        <ele>100.6</ele>
        <time>2021-08-10T12:06:17Z</time>
      </trkpt>
      <trkpt lat="48.25581" lon="-3.52282">
        <ele>100.2</ele>
        <time>2021-08-10T12:06:18Z</time>
      </trkpt>
      <trkpt lat="48.25587" lon="-3.52286">
        <ele>99.8</ele>
        <time>2021-08-10T12:06:19Z</time>
      </trkpt>
      <trkpt lat="48.25592" lon="-3.52291">
        <ele>99.4</ele>
        <time>2021-08-10T12:06:20Z</time>
      </trkpt>
      <trkpt lat="48.25598" lon="-3.52295">
        <ele>98.8</ele>
        <time>2021-08-10T12:06:21Z</time>
      </trkpt>
      <trkpt lat="48.25603" lon="-3.523">
        <ele>98.2</ele>
        <time>2021-08-10T12:06:22Z</time>
      </trkpt>
      <trkpt lat="48.25609" lon="-3.52304">
        <ele>98</ele>
        <time>2021-08-10T12:06:23Z</time>
      </trkpt>
      <trkpt lat="48.25614" lon="-3.5231">
        <ele>97.8</ele>
        <time>2021-08-10T12:06:24Z</time>
      </trkpt>
      <trkpt lat="48.25619" lon="-3.52315">
        <ele>97.8</ele>
        <time>2021-08-10T12:06:25Z</time>
      </trkpt>
      <trkpt lat="48.25624" lon="-3.5232">
        <ele>97.8</ele>
        <time>2021-08-10T12:06:26Z</time>
      </trkpt>
      <trkpt lat="48.25628" lon="-3.52324">
        <ele>97.8</ele>
        <time>2021-08-10T12:06:27Z</time>
      </trkpt>
      <trkpt lat="48.25633" lon="-3.52328">
        <ele>97.8</ele>
        <time>2021-08-10T12:06:28Z</time>
      </trkpt>
      <trkpt lat="48.25637" lon="-3.52332">
        <ele>97.8</ele>
        <time>2021-08-10T12:06:29Z</time>
      </trkpt>
      <trkpt lat="48.25641" lon="-3.52337">
        <ele>97.8</ele>
        <time>2021-08-10T12:06:30Z</time>
      </trkpt>
      <trkpt lat="48.25646" lon="-3.52341">
        <ele>97.8</ele>
        <time>2021-08-10T12:06:31Z</time>
      </trkpt>
      <trkpt lat="48.2565" lon="-3.52345">
        <ele>97.8</ele>
        <time>2021-08-10T12:06:32Z</time>
      </trkpt>
      <trkpt lat="48.25655" lon="-3.52349">
        <ele>97.8</ele>
        <time>2021-08-10T12:06:33Z</time>
      </trkpt>
      <trkpt lat="48.25659" lon="-3.52354">
        <ele>98</ele>
        <time>2021-08-10T12:06:34Z</time>
      </trkpt>
      <trkpt lat="48.25664" lon="-3.52358">
        <ele>98</ele>
        <time>2021-08-10T12:06:35Z</time>
      </trkpt>
      <trkpt lat="48.25668" lon="-3.52362">
        <ele>98</ele>
        <time>2021-08-10T12:06:36Z</time>
      </trkpt>
      <trkpt lat="48.25673" lon="-3.52367">
        <ele>98.2</ele>
        <time>2021-08-10T12:06:37Z</time>
      </trkpt>
      <trkpt lat="48.25677" lon="-3.52371">
        <ele>98.2</ele>
        <time>2021-08-10T12:06:38Z</time>
      </trkpt>
      <trkpt lat="48.25681" lon="-3.52376">
        <ele>98.2</ele>
        <time>2021-08-10T12:06:39Z</time>
      </trkpt>
      <trkpt lat="48.25686" lon="-3.5238">
        <ele>98.2</ele>
        <time>2021-08-10T12:06:40Z</time>
      </trkpt>
      <trkpt lat="48.2569" lon="-3.52384">
        <ele>98.4</ele>
        <time>2021-08-10T12:06:41Z</time>
      </trkpt>
      <trkpt lat="48.25694" lon="-3.52387">
        <ele>98.4</ele>
        <time>2021-08-10T12:06:42Z</time>
      </trkpt>
      <trkpt lat="48.25698" lon="-3.52391">
        <ele>98.4</ele>
        <time>2021-08-10T12:06:43Z</time>
      </trkpt>
      <trkpt lat="48.25702" lon="-3.52395">
        <ele>98.4</ele>
        <time>2021-08-10T12:06:44Z</time>
      </trkpt>
      <trkpt lat="48.25706" lon="-3.52399">
        <ele>98.4</ele>
        <time>2021-08-10T12:06:45Z</time>
      </trkpt>
      <trkpt lat="48.2571" lon="-3.52404">
        <ele>98.4</ele>
        <time>2021-08-10T12:06:46Z</time>
      </trkpt>
      <trkpt lat="48.25714" lon="-3.52409">
        <ele>98.4</ele>
        <time>2021-08-10T12:06:47Z</time>
      </trkpt>
      <trkpt lat="48.25717" lon="-3.52414">
        <ele>98.4</ele>
        <time>2021-08-10T12:06:48Z</time>
      </trkpt>
      <trkpt lat="48.2572" lon="-3.5242">
        <ele>98.4</ele>
        <time>2021-08-10T12:06:49Z</time>
      </trkpt>
      <trkpt lat="48.25723" lon="-3.52427">
        <ele>98.4</ele>
        <time>2021-08-10T12:06:50Z</time>
      </trkpt>
      <trkpt lat="48.25724" lon="-3.52434">
        <ele>98.4</ele>
        <time>2021-08-10T12:06:51Z</time>
      </trkpt>
      <trkpt lat="48.25724" lon="-3.52442">
        <ele>98.4</ele>
        <time>2021-08-10T12:06:52Z</time>
      </trkpt>
      <trkpt lat="48.25724" lon="-3.5245">
        <ele>98.4</ele>
        <time>2021-08-10T12:06:53Z</time>
      </trkpt>
      <trkpt lat="48.25723" lon="-3.52457">
        <ele>98.4</ele>
        <time>2021-08-10T12:06:54Z</time>
      </trkpt>
      <trkpt lat="48.2572" lon="-3.52464">
        <ele>98.4</ele>
        <time>2021-08-10T12:06:55Z</time>
      </trkpt>
      <trkpt lat="48.25718" lon="-3.5247">
        <ele>98.4</ele>
        <time>2021-08-10T12:06:56Z</time>
      </trkpt>
      <trkpt lat="48.25715" lon="-3.52475">
        <ele>98.4</ele>
        <time>2021-08-10T12:06:57Z</time>
      </trkpt>
      <trkpt lat="48.25712" lon="-3.5248">
        <ele>98.4</ele>
        <time>2021-08-10T12:06:58Z</time>
      </trkpt>
      <trkpt lat="48.25709" lon="-3.52484">
        <ele>98.4</ele>
        <time>2021-08-10T12:06:59Z</time>
      </trkpt>
      <trkpt lat="48.25706" lon="-3.52487">
        <ele>98.4</ele>
        <time>2021-08-10T12:07:00Z</time>
      </trkpt>
      <trkpt lat="48.25703" lon="-3.52489">
        <ele>98.4</ele>
        <time>2021-08-10T12:07:01Z</time>
      </trkpt>
      <trkpt lat="48.257" lon="-3.52492">
        <ele>98.6</ele>
        <time>2021-08-10T12:07:02Z</time>
      </trkpt>
      <trkpt lat="48.25697" lon="-3.52494">
        <ele>98.6</ele>
        <time>2021-08-10T12:07:03Z</time>
      </trkpt>
      <trkpt lat="48.25693" lon="-3.52496">
        <ele>98.6</ele>
        <time>2021-08-10T12:07:04Z</time>
      </trkpt>
      <trkpt lat="48.25689" lon="-3.52499">
        <ele>98.6</ele>
        <time>2021-08-10T12:07:05Z</time>
      </trkpt>
      <trkpt lat="48.25686" lon="-3.52501">
        <ele>98.6</ele>
        <time>2021-08-10T12:07:06Z</time>
      </trkpt>
      <trkpt lat="48.25682" lon="-3.52504">
        <ele>98.6</ele>
        <time>2021-08-10T12:07:07Z</time>
      </trkpt>
      <trkpt lat="48.25679" lon="-3.52506">
        <ele>98.6</ele>
        <time>2021-08-10T12:07:08Z</time>
      </trkpt>
      <trkpt lat="48.25676" lon="-3.52508">
        <ele>98.8</ele>
        <time>2021-08-10T12:07:09Z</time>
      </trkpt>
      <trkpt lat="48.25674" lon="-3.5251">
        <ele>98.8</ele>
        <time>2021-08-10T12:07:10Z</time>
      </trkpt>
      <trkpt lat="48.25672" lon="-3.52511">
        <ele>98.8</ele>
        <time>2021-08-10T12:07:11Z</time>
      </trkpt>
      <trkpt lat="48.2567" lon="-3.52511">
        <ele>98.8</ele>
        <time>2021-08-10T12:07:12Z</time>
      </trkpt>
      <trkpt lat="48.25668" lon="-3.52511">
        <ele>98.8</ele>
        <time>2021-08-10T12:07:13Z</time>
      </trkpt>
      <trkpt lat="48.25667" lon="-3.5251">
        <ele>99</ele>
        <time>2021-08-10T12:07:14Z</time>
      </trkpt>
      <trkpt lat="48.25667" lon="-3.5251">
        <ele>99</ele>
        <time>2021-08-10T12:07:15Z</time>
      </trkpt>
      <trkpt lat="48.25667" lon="-3.5251">
        <ele>99</ele>
        <time>2021-08-10T12:07:16Z</time>
      </trkpt>
      <trkpt lat="48.25666" lon="-3.52507">
        <ele>99.2</ele>
        <time>2021-08-10T12:07:42Z</time>
      </trkpt>
      <trkpt lat="48.25665" lon="-3.52507">
        <ele>99.2</ele>
        <time>2021-08-10T12:07:43Z</time>
      </trkpt>
      <trkpt lat="48.25665" lon="-3.52507">
        <ele>99.2</ele>
        <time>2021-08-10T12:07:44Z</time>
      </trkpt>
      <trkpt lat="48.25658" lon="-3.52523">
        <ele>99.4</ele>
        <time>2021-08-10T12:36:24Z</time>
      </trkpt>
      <trkpt lat="48.25656" lon="-3.52524">
        <ele>99.4</ele>
        <time>2021-08-10T12:36:25Z</time>
      </trkpt>
      <trkpt lat="48.25654" lon="-3.52525">
        <ele>99.4</ele>
        <time>2021-08-10T12:36:26Z</time>
      </trkpt>
      <trkpt lat="48.25653" lon="-3.52527">
        <ele>99.4</ele>
        <time>2021-08-10T12:36:27Z</time>
      </trkpt>
      <trkpt lat="48.25651" lon="-3.52528">
        <ele>99.4</ele>
        <time>2021-08-10T12:36:28Z</time>
      </trkpt>
      <trkpt lat="48.25649" lon="-3.5253">
        <ele>99.4</ele>
        <time>2021-08-10T12:36:29Z</time>
      </trkpt>
      <trkpt lat="48.25646" lon="-3.52532">
        <ele>99.4</ele>
        <time>2021-08-10T12:36:30Z</time>
      </trkpt>
      <trkpt lat="48.25644" lon="-3.52533">
        <ele>99.4</ele>
        <time>2021-08-10T12:36:31Z</time>
      </trkpt>
      <trkpt lat="48.2564" lon="-3.52535">
        <ele>99.4</ele>
        <time>2021-08-10T12:36:32Z</time>
      </trkpt>
      <trkpt lat="48.25637" lon="-3.52537">
        <ele>99.4</ele>
        <time>2021-08-10T12:36:33Z</time>
      </trkpt>
      <trkpt lat="48.25633" lon="-3.5254">
        <ele>99.4</ele>
        <time>2021-08-10T12:36:34Z</time>
      </trkpt>
      <trkpt lat="48.25629" lon="-3.52542">
        <ele>99.2</ele>
        <time>2021-08-10T12:36:35Z</time>
      </trkpt>
      <trkpt lat="48.25625" lon="-3.52545">
        <ele>99.2</ele>
        <time>2021-08-10T12:36:36Z</time>
      </trkpt>
      <trkpt lat="48.25621" lon="-3.52548">
        <ele>99.2</ele>
        <time>2021-08-10T12:36:37Z</time>
      </trkpt>
      <trkpt lat="48.25616" lon="-3.52551">
        <ele>99</ele>
        <time>2021-08-10T12:36:38Z</time>
      </trkpt>
      <trkpt lat="48.25612" lon="-3.52554">
        <ele>98.8</ele>
        <time>2021-08-10T12:36:39Z</time>
      </trkpt>
      <trkpt lat="48.25608" lon="-3.52557">
        <ele>98.6</ele>
        <time>2021-08-10T12:36:40Z</time>
      </trkpt>
      <trkpt lat="48.25604" lon="-3.5256">
        <ele>98.4</ele>
        <time>2021-08-10T12:36:41Z</time>
      </trkpt>
      <trkpt lat="48.25599" lon="-3.52562">
        <ele>98.2</ele>
        <time>2021-08-10T12:36:42Z</time>
      </trkpt>
      <trkpt lat="48.25594" lon="-3.52565">
        <ele>98</ele>
        <time>2021-08-10T12:36:43Z</time>
      </trkpt>
      <trkpt lat="48.25589" lon="-3.52567">
        <ele>97.8</ele>
        <time>2021-08-10T12:36:44Z</time>
      </trkpt>
      <trkpt lat="48.25584" lon="-3.5257">
        <ele>97.6</ele>
        <time>2021-08-10T12:36:45Z</time>
      </trkpt>
      <trkpt lat="48.25579" lon="-3.52573">
        <ele>97.4</ele>
        <time>2021-08-10T12:36:46Z</time>
      </trkpt>
      <trkpt lat="48.25574" lon="-3.52576">
        <ele>97.2</ele>
        <time>2021-08-10T12:36:47Z</time>
      </trkpt>
      <trkpt lat="48.25569" lon="-3.5258">
        <ele>97.2</ele>
        <time>2021-08-10T12:36:48Z</time>
      </trkpt>
      <trkpt lat="48.25564" lon="-3.52583">
        <ele>97</ele>
        <time>2021-08-10T12:36:49Z</time>
      </trkpt>
      <trkpt lat="48.25559" lon="-3.52586">
        <ele>97</ele>
        <time>2021-08-10T12:36:50Z</time>
      </trkpt>
      <trkpt lat="48.25554" lon="-3.52589">
        <ele>96.8</ele>
        <time>2021-08-10T12:36:51Z</time>
      </trkpt>
      <trkpt lat="48.25549" lon="-3.52592">
        <ele>96.8</ele>
        <time>2021-08-10T12:36:52Z</time>
      </trkpt>
      <trkpt lat="48.25544" lon="-3.52596">
        <ele>96.8</ele>
        <time>2021-08-10T12:36:53Z</time>
      </trkpt>
      <trkpt lat="48.25539" lon="-3.52599">
        <ele>96.6</ele>
        <time>2021-08-10T12:36:54Z</time>
      </trkpt>
      <trkpt lat="48.25534" lon="-3.52601">
        <ele>96.4</ele>
        <time>2021-08-10T12:36:55Z</time>
      </trkpt>
      <trkpt lat="48.25529" lon="-3.52605">
        <ele>96.4</ele>
        <time>2021-08-10T12:36:56Z</time>
      </trkpt>
      <trkpt lat="48.25523" lon="-3.52609">
        <ele>96.4</ele>
        <time>2021-08-10T12:36:57Z</time>
      </trkpt>
      <trkpt lat="48.25518" lon="-3.52612">
        <ele>96.2</ele>
        <time>2021-08-10T12:36:58Z</time>
      </trkpt>
      <trkpt lat="48.25513" lon="-3.52615">
        <ele>96.2</ele>
        <time>2021-08-10T12:36:59Z</time>
      </trkpt>
      <trkpt lat="48.25508" lon="-3.52618">
        <ele>96.2</ele>
        <time>2021-08-10T12:37:00Z</time>
      </trkpt>
      <trkpt lat="48.25503" lon="-3.52621">
        <ele>96.2</ele>
        <time>2021-08-10T12:37:01Z</time>
      </trkpt>
      <trkpt lat="48.25497" lon="-3.52623">
        <ele>96.2</ele>
        <time>2021-08-10T12:37:02Z</time>
      </trkpt>
      <trkpt lat="48.25493" lon="-3.52626">
        <ele>96.2</ele>
        <time>2021-08-10T12:37:03Z</time>
      </trkpt>
      <trkpt lat="48.25488" lon="-3.52629">
        <ele>96</ele>
        <time>2021-08-10T12:37:04Z</time>
      </trkpt>
      <trkpt lat="48.25483" lon="-3.52632">
        <ele>96</ele>
        <time>2021-08-10T12:37:05Z</time>
      </trkpt>
      <trkpt lat="48.25477" lon="-3.52635">
        <ele>96</ele>
        <time>2021-08-10T12:37:06Z</time>
      </trkpt>
      <trkpt lat="48.25471" lon="-3.52638">
        <ele>96</ele>
        <time>2021-08-10T12:37:07Z</time>
      </trkpt>
      <trkpt lat="48.25466" lon="-3.52641">
        <ele>96</ele>
        <time>2021-08-10T12:37:08Z</time>
      </trkpt>
      <trkpt lat="48.25461" lon="-3.52644">
        <ele>96</ele>
        <time>2021-08-10T12:37:09Z</time>
      </trkpt>
      <trkpt lat="48.25455" lon="-3.52647">
        <ele>96</ele>
        <time>2021-08-10T12:37:10Z</time>
      </trkpt>
      <trkpt lat="48.2545" lon="-3.52649">
        <ele>96</ele>
        <time>2021-08-10T12:37:11Z</time>
      </trkpt>
      <trkpt lat="48.25444" lon="-3.52652">
        <ele>96</ele>
        <time>2021-08-10T12:37:12Z</time>
      </trkpt>
      <trkpt lat="48.25439" lon="-3.52655">
        <ele>96</ele>
        <time>2021-08-10T12:37:13Z</time>
      </trkpt>
      <trkpt lat="48.25433" lon="-3.52657">
        <ele>96</ele>
        <time>2021-08-10T12:37:14Z</time>
      </trkpt>
      <trkpt lat="48.25428" lon="-3.5266">
        <ele>96</ele>
        <time>2021-08-10T12:37:15Z</time>
      </trkpt>
      <trkpt lat="48.25422" lon="-3.52663">
        <ele>96</ele>
        <time>2021-08-10T12:37:16Z</time>
      </trkpt>
      <trkpt lat="48.25417" lon="-3.52667">
        <ele>96</ele>
        <time>2021-08-10T12:37:17Z</time>
      </trkpt>
      <trkpt lat="48.25411" lon="-3.5267">
        <ele>96</ele>
        <time>2021-08-10T12:37:18Z</time>
      </trkpt>
      <trkpt lat="48.25406" lon="-3.52673">
        <ele>96</ele>
        <time>2021-08-10T12:37:19Z</time>
      </trkpt>
      <trkpt lat="48.254" lon="-3.52677">
        <ele>96</ele>
        <time>2021-08-10T12:37:20Z</time>
      </trkpt>
      <trkpt lat="48.25394" lon="-3.5268">
        <ele>96</ele>
        <time>2021-08-10T12:37:21Z</time>
      </trkpt>
      <trkpt lat="48.25388" lon="-3.52683">
        <ele>96</ele>
        <time>2021-08-10T12:37:22Z</time>
      </trkpt>
      <trkpt lat="48.25382" lon="-3.52687">
        <ele>96</ele>
        <time>2021-08-10T12:37:23Z</time>
      </trkpt>
      <trkpt lat="48.25377" lon="-3.5269">
        <ele>96</ele>
        <time>2021-08-10T12:37:24Z</time>
      </trkpt>
      <trkpt lat="48.25371" lon="-3.52693">
        <ele>96</ele>
        <time>2021-08-10T12:37:25Z</time>
      </trkpt>
      <trkpt lat="48.25365" lon="-3.52697">
        <ele>96</ele>
        <time>2021-08-10T12:37:26Z</time>
      </trkpt>
      <trkpt lat="48.2536" lon="-3.527">
        <ele>96</ele>
        <time>2021-08-10T12:37:27Z</time>
      </trkpt>
      <trkpt lat="48.25354" lon="-3.52704">
        <ele>96</ele>
        <time>2021-08-10T12:37:28Z</time>
      </trkpt>
      <trkpt lat="48.25349" lon="-3.52707">
        <ele>96</ele>
        <time>2021-08-10T12:37:29Z</time>
      </trkpt>
      <trkpt lat="48.25343" lon="-3.5271">
        <ele>96</ele>
        <time>2021-08-10T12:37:30Z</time>
      </trkpt>
      <trkpt lat="48.25338" lon="-3.52714">
        <ele>96</ele>
        <time>2021-08-10T12:37:31Z</time>
      </trkpt>
      <trkpt lat="48.25332" lon="-3.52717">
        <ele>96</ele>
        <time>2021-08-10T12:37:32Z</time>
      </trkpt>
      <trkpt lat="48.25327" lon="-3.5272">
        <ele>95.8</ele>
        <time>2021-08-10T12:37:33Z</time>
      </trkpt>
      <trkpt lat="48.25321" lon="-3.52723">
        <ele>95.8</ele>
        <time>2021-08-10T12:37:34Z</time>
      </trkpt>
      <trkpt lat="48.25316" lon="-3.52726">
        <ele>95.8</ele>
        <time>2021-08-10T12:37:35Z</time>
      </trkpt>
      <trkpt lat="48.25311" lon="-3.5273">
        <ele>95.8</ele>
        <time>2021-08-10T12:37:36Z</time>
      </trkpt>
      <trkpt lat="48.25306" lon="-3.52733">
        <ele>95.6</ele>
        <time>2021-08-10T12:37:37Z</time>
      </trkpt>
      <trkpt lat="48.25301" lon="-3.52737">
        <ele>95.6</ele>
        <time>2021-08-10T12:37:38Z</time>
      </trkpt>
      <trkpt lat="48.25296" lon="-3.5274">
        <ele>95.6</ele>
        <time>2021-08-10T12:37:39Z</time>
      </trkpt>
      <trkpt lat="48.25291" lon="-3.52745">
        <ele>95.6</ele>
        <time>2021-08-10T12:37:40Z</time>
      </trkpt>
      <trkpt lat="48.25286" lon="-3.52749">
        <ele>95.6</ele>
        <time>2021-08-10T12:37:41Z</time>
      </trkpt>
      <trkpt lat="48.25282" lon="-3.52754">
        <ele>95.6</ele>
        <time>2021-08-10T12:37:42Z</time>
      </trkpt>
      <trkpt lat="48.25278" lon="-3.52759">
        <ele>95.6</ele>
        <time>2021-08-10T12:37:43Z</time>
      </trkpt>
      <trkpt lat="48.25274" lon="-3.52764">
        <ele>95.6</ele>
        <time>2021-08-10T12:37:44Z</time>
      </trkpt>
      <trkpt lat="48.2527" lon="-3.5277">
        <ele>95.6</ele>
        <time>2021-08-10T12:37:45Z</time>
      </trkpt>
      <trkpt lat="48.25267" lon="-3.52776">
        <ele>95.6</ele>
        <time>2021-08-10T12:37:46Z</time>
      </trkpt>
      <trkpt lat="48.25264" lon="-3.52783">
        <ele>95.8</ele>
        <time>2021-08-10T12:37:47Z</time>
      </trkpt>
      <trkpt lat="48.25261" lon="-3.5279">
        <ele>95.8</ele>
        <time>2021-08-10T12:37:48Z</time>
      </trkpt>
      <trkpt lat="48.25258" lon="-3.52797">
        <ele>95.8</ele>
        <time>2021-08-10T12:37:49Z</time>
      </trkpt>
      <trkpt lat="48.25256" lon="-3.52804">
        <ele>95.8</ele>
        <time>2021-08-10T12:37:50Z</time>
      </trkpt>
      <trkpt lat="48.25254" lon="-3.52811">
        <ele>95.8</ele>
        <time>2021-08-10T12:37:51Z</time>
      </trkpt>
      <trkpt lat="48.25252" lon="-3.52818">
        <ele>96</ele>
        <time>2021-08-10T12:37:52Z</time>
      </trkpt>
      <trkpt lat="48.25251" lon="-3.52826">
        <ele>96</ele>
        <time>2021-08-10T12:37:53Z</time>
      </trkpt>
      <trkpt lat="48.2525" lon="-3.52833">
        <ele>96</ele>
        <time>2021-08-10T12:37:54Z</time>
      </trkpt>
      <trkpt lat="48.25249" lon="-3.5284">
        <ele>96</ele>
        <time>2021-08-10T12:37:55Z</time>
      </trkpt>
      <trkpt lat="48.25249" lon="-3.52847">
        <ele>96</ele>
        <time>2021-08-10T12:37:56Z</time>
      </trkpt>
      <trkpt lat="48.2525" lon="-3.52853">
        <ele>96</ele>
        <time>2021-08-10T12:37:57Z</time>
      </trkpt>
      <trkpt lat="48.2525" lon="-3.5286">
        <ele>96</ele>
        <time>2021-08-10T12:37:58Z</time>
      </trkpt>
      <trkpt lat="48.2525" lon="-3.52866">
        <ele>96</ele>
        <time>2021-08-10T12:37:59Z</time>
      </trkpt>
      <trkpt lat="48.25251" lon="-3.52872">
        <ele>96.2</ele>
        <time>2021-08-10T12:38:00Z</time>
      </trkpt>
      <trkpt lat="48.25252" lon="-3.52878">
        <ele>96.2</ele>
        <time>2021-08-10T12:38:01Z</time>
      </trkpt>
      <trkpt lat="48.25253" lon="-3.52884">
        <ele>96.2</ele>
        <time>2021-08-10T12:38:02Z</time>
      </trkpt>
      <trkpt lat="48.25255" lon="-3.52889">
        <ele>96.2</ele>
        <time>2021-08-10T12:38:03Z</time>
      </trkpt>
      <trkpt lat="48.25256" lon="-3.52894">
        <ele>96.2</ele>
        <time>2021-08-10T12:38:04Z</time>
      </trkpt>
      <trkpt lat="48.25258" lon="-3.529">
        <ele>96.2</ele>
        <time>2021-08-10T12:38:05Z</time>
      </trkpt>
      <trkpt lat="48.2526" lon="-3.52904">
        <ele>96.4</ele>
        <time>2021-08-10T12:38:06Z</time>
      </trkpt>
      <trkpt lat="48.25262" lon="-3.52909">
        <ele>96.4</ele>
        <time>2021-08-10T12:38:07Z</time>
      </trkpt>
      <trkpt lat="48.25264" lon="-3.52914">
        <ele>96.4</ele>
        <time>2021-08-10T12:38:08Z</time>
      </trkpt>
      <trkpt lat="48.25267" lon="-3.52919">
        <ele>96.4</ele>
        <time>2021-08-10T12:38:09Z</time>
      </trkpt>
      <trkpt lat="48.25269" lon="-3.52923">
        <ele>96.4</ele>
        <time>2021-08-10T12:38:10Z</time>
      </trkpt>
      <trkpt lat="48.25272" lon="-3.52928">
        <ele>96.4</ele>
        <time>2021-08-10T12:38:11Z</time>
      </trkpt>
      <trkpt lat="48.25274" lon="-3.52932">
        <ele>96.4</ele>
        <time>2021-08-10T12:38:12Z</time>
      </trkpt>
      <trkpt lat="48.25277" lon="-3.52937">
        <ele>96.4</ele>
        <time>2021-08-10T12:38:13Z</time>
      </trkpt>
      <trkpt lat="48.25281" lon="-3.52941">
        <ele>96.4</ele>
        <time>2021-08-10T12:38:14Z</time>
      </trkpt>
      <trkpt lat="48.25284" lon="-3.52945">
        <ele>96.4</ele>
        <time>2021-08-10T12:38:15Z</time>
      </trkpt>
      <trkpt lat="48.25287" lon="-3.52948">
        <ele>96.4</ele>
        <time>2021-08-10T12:38:16Z</time>
      </trkpt>
      <trkpt lat="48.25291" lon="-3.52951">
        <ele>96.4</ele>
        <time>2021-08-10T12:38:17Z</time>
      </trkpt>
      <trkpt lat="48.25295" lon="-3.52954">
        <ele>96.4</ele>
        <time>2021-08-10T12:38:18Z</time>
      </trkpt>
      <trkpt lat="48.25299" lon="-3.52956">
        <ele>96.4</ele>
        <time>2021-08-10T12:38:19Z</time>
      </trkpt>
      <trkpt lat="48.25303" lon="-3.52959">
        <ele>96.4</ele>
        <time>2021-08-10T12:38:20Z</time>
      </trkpt>
      <trkpt lat="48.25307" lon="-3.52962">
        <ele>96.4</ele>
        <time>2021-08-10T12:38:21Z</time>
      </trkpt>
      <trkpt lat="48.25312" lon="-3.52964">
        <ele>96.4</ele>
        <time>2021-08-10T12:38:22Z</time>
      </trkpt>
      <trkpt lat="48.25316" lon="-3.52966">
        <ele>96.4</ele>
        <time>2021-08-10T12:38:23Z</time>
      </trkpt>
      <trkpt lat="48.2532" lon="-3.52969">
        <ele>96.4</ele>
        <time>2021-08-10T12:38:24Z</time>
      </trkpt>
      <trkpt lat="48.25324" lon="-3.52971">
        <ele>96.4</ele>
        <time>2021-08-10T12:38:25Z</time>
      </trkpt>
      <trkpt lat="48.25328" lon="-3.52973">
        <ele>96.4</ele>
        <time>2021-08-10T12:38:26Z</time>
      </trkpt>
      <trkpt lat="48.25332" lon="-3.52975">
        <ele>96.4</ele>
        <time>2021-08-10T12:38:27Z</time>
      </trkpt>
      <trkpt lat="48.25336" lon="-3.52978">
        <ele>96.4</ele>
        <time>2021-08-10T12:38:28Z</time>
      </trkpt>
      <trkpt lat="48.2534" lon="-3.5298">
        <ele>96.4</ele>
        <time>2021-08-10T12:38:29Z</time>
      </trkpt>
      <trkpt lat="48.25344" lon="-3.52982">
        <ele>96.6</ele>
        <time>2021-08-10T12:38:30Z</time>
      </trkpt>
      <trkpt lat="48.25348" lon="-3.52985">
        <ele>96.6</ele>
        <time>2021-08-10T12:38:31Z</time>
      </trkpt>
      <trkpt lat="48.25352" lon="-3.52987">
        <ele>96.6</ele>
        <time>2021-08-10T12:38:32Z</time>
      </trkpt>
      <trkpt lat="48.25356" lon="-3.52989">
        <ele>96.6</ele>
        <time>2021-08-10T12:38:33Z</time>
      </trkpt>
      <trkpt lat="48.2536" lon="-3.52991">
        <ele>96.6</ele>
        <time>2021-08-10T12:38:34Z</time>
      </trkpt>
      <trkpt lat="48.25364" lon="-3.52994">
        <ele>96.6</ele>
        <time>2021-08-10T12:38:35Z</time>
      </trkpt>
      <trkpt lat="48.25368" lon="-3.52996">
        <ele>96.4</ele>
        <time>2021-08-10T12:38:36Z</time>
      </trkpt>
      <trkpt lat="48.25373" lon="-3.52998">
        <ele>96.4</ele>
        <time>2021-08-10T12:38:37Z</time>
      </trkpt>
      <trkpt lat="48.25378" lon="-3.53">
        <ele>96.4</ele>
        <time>2021-08-10T12:38:38Z</time>
      </trkpt>
      <trkpt lat="48.25383" lon="-3.53003">
        <ele>96.4</ele>
        <time>2021-08-10T12:38:39Z</time>
      </trkpt>
      <trkpt lat="48.25388" lon="-3.53006">
        <ele>96.4</ele>
        <time>2021-08-10T12:38:40Z</time>
      </trkpt>
      <trkpt lat="48.25393" lon="-3.5301">
        <ele>96.4</ele>
        <time>2021-08-10T12:38:41Z</time>
      </trkpt>
      <trkpt lat="48.25399" lon="-3.53013">
        <ele>96.4</ele>
        <time>2021-08-10T12:38:42Z</time>
      </trkpt>
      <trkpt lat="48.25404" lon="-3.53016">
        <ele>96.4</ele>
        <time>2021-08-10T12:38:43Z</time>
      </trkpt>
      <trkpt lat="48.2541" lon="-3.53019">
        <ele>96.2</ele>
        <time>2021-08-10T12:38:44Z</time>
      </trkpt>
      <trkpt lat="48.25415" lon="-3.53022">
        <ele>96.2</ele>
        <time>2021-08-10T12:38:45Z</time>
      </trkpt>
      <trkpt lat="48.25421" lon="-3.53025">
        <ele>96.2</ele>
        <time>2021-08-10T12:38:46Z</time>
      </trkpt>
      <trkpt lat="48.25426" lon="-3.53028">
        <ele>95.4</ele>
        <time>2021-08-10T12:38:47Z</time>
      </trkpt>
      <trkpt lat="48.25431" lon="-3.53031">
        <ele>95.2</ele>
        <time>2021-08-10T12:38:48Z</time>
      </trkpt>
      <trkpt lat="48.25436" lon="-3.53034">
        <ele>95</ele>
        <time>2021-08-10T12:38:49Z</time>
      </trkpt>
      <trkpt lat="48.25441" lon="-3.53036">
        <ele>94.8</ele>
        <time>2021-08-10T12:38:50Z</time>
      </trkpt>
      <trkpt lat="48.25446" lon="-3.53039">
        <ele>94.6</ele>
        <time>2021-08-10T12:38:51Z</time>
      </trkpt>
      <trkpt lat="48.25451" lon="-3.53042">
        <ele>94.6</ele>
        <time>2021-08-10T12:38:52Z</time>
      </trkpt>
      <trkpt lat="48.25456" lon="-3.53045">
        <ele>94.6</ele>
        <time>2021-08-10T12:38:53Z</time>
      </trkpt>
      <trkpt lat="48.25461" lon="-3.53047">
        <ele>94.6</ele>
        <time>2021-08-10T12:38:54Z</time>
      </trkpt>
      <trkpt lat="48.25465" lon="-3.53051">
        <ele>94.6</ele>
        <time>2021-08-10T12:38:55Z</time>
      </trkpt>
      <trkpt lat="48.2547" lon="-3.53053">
        <ele>94.6</ele>
        <time>2021-08-10T12:38:56Z</time>
      </trkpt>
      <trkpt lat="48.25475" lon="-3.53056">
        <ele>94.6</ele>
        <time>2021-08-10T12:38:57Z</time>
      </trkpt>
      <trkpt lat="48.25479" lon="-3.53059">
        <ele>94.6</ele>
        <time>2021-08-10T12:38:58Z</time>
      </trkpt>
      <trkpt lat="48.25484" lon="-3.53061">
        <ele>94.6</ele>
        <time>2021-08-10T12:38:59Z</time>
      </trkpt>
      <trkpt lat="48.25488" lon="-3.53064">
        <ele>94.6</ele>
        <time>2021-08-10T12:39:00Z</time>
      </trkpt>
      <trkpt lat="48.25492" lon="-3.53066">
        <ele>94.6</ele>
        <time>2021-08-10T12:39:01Z</time>
      </trkpt>
      <trkpt lat="48.25497" lon="-3.53069">
        <ele>94.6</ele>
        <time>2021-08-10T12:39:02Z</time>
      </trkpt>
      <trkpt lat="48.25501" lon="-3.53071">
        <ele>94.6</ele>
        <time>2021-08-10T12:39:03Z</time>
      </trkpt>
      <trkpt lat="48.25505" lon="-3.53074">
        <ele>94.6</ele>
        <time>2021-08-10T12:39:04Z</time>
      </trkpt>
      <trkpt lat="48.25509" lon="-3.53076">
        <ele>94.6</ele>
        <time>2021-08-10T12:39:05Z</time>
      </trkpt>
      <trkpt lat="48.25513" lon="-3.53079">
        <ele>94.6</ele>
        <time>2021-08-10T12:39:06Z</time>
      </trkpt>
      <trkpt lat="48.25517" lon="-3.53081">
        <ele>94.4</ele>
        <time>2021-08-10T12:39:07Z</time>
      </trkpt>
      <trkpt lat="48.25521" lon="-3.53084">
        <ele>94.4</ele>
        <time>2021-08-10T12:39:08Z</time>
      </trkpt>
      <trkpt lat="48.25525" lon="-3.53086">
        <ele>94.4</ele>
        <time>2021-08-10T12:39:09Z</time>
      </trkpt>
      <trkpt lat="48.25529" lon="-3.53089">
        <ele>94.4</ele>
        <time>2021-08-10T12:39:10Z</time>
      </trkpt>
      <trkpt lat="48.25533" lon="-3.53091">
        <ele>94.2</ele>
        <time>2021-08-10T12:39:11Z</time>
      </trkpt>
      <trkpt lat="48.25537" lon="-3.53093">
        <ele>94.2</ele>
        <time>2021-08-10T12:39:12Z</time>
      </trkpt>
      <trkpt lat="48.2554" lon="-3.53095">
        <ele>94.2</ele>
        <time>2021-08-10T12:39:13Z</time>
      </trkpt>
      <trkpt lat="48.25544" lon="-3.53097">
        <ele>94.2</ele>
        <time>2021-08-10T12:39:14Z</time>
      </trkpt>
      <trkpt lat="48.25548" lon="-3.53099">
        <ele>94</ele>
        <time>2021-08-10T12:39:15Z</time>
      </trkpt>
      <trkpt lat="48.25552" lon="-3.53101">
        <ele>94</ele>
        <time>2021-08-10T12:39:16Z</time>
      </trkpt>
      <trkpt lat="48.25555" lon="-3.53104">
        <ele>94</ele>
        <time>2021-08-10T12:39:17Z</time>
      </trkpt>
      <trkpt lat="48.25559" lon="-3.53106">
        <ele>94</ele>
        <time>2021-08-10T12:39:18Z</time>
      </trkpt>
      <trkpt lat="48.25563" lon="-3.53108">
        <ele>94</ele>
        <time>2021-08-10T12:39:19Z</time>
      </trkpt>
      <trkpt lat="48.25567" lon="-3.53111">
        <ele>94</ele>
        <time>2021-08-10T12:39:20Z</time>
      </trkpt>
      <trkpt lat="48.2557" lon="-3.53113">
        <ele>94</ele>
        <time>2021-08-10T12:39:21Z</time>
      </trkpt>
      <trkpt lat="48.25574" lon="-3.53116">
        <ele>94</ele>
        <time>2021-08-10T12:39:22Z</time>
      </trkpt>
      <trkpt lat="48.25577" lon="-3.53119">
        <ele>94</ele>
        <time>2021-08-10T12:39:23Z</time>
      </trkpt>
      <trkpt lat="48.25581" lon="-3.53122">
        <ele>94</ele>
        <time>2021-08-10T12:39:24Z</time>
      </trkpt>
      <trkpt lat="48.25585" lon="-3.53126">
        <ele>94</ele>
        <time>2021-08-10T12:39:25Z</time>
      </trkpt>
      <trkpt lat="48.25588" lon="-3.5313">
        <ele>94</ele>
        <time>2021-08-10T12:39:26Z</time>
      </trkpt>
      <trkpt lat="48.25591" lon="-3.53133">
        <ele>94</ele>
        <time>2021-08-10T12:39:27Z</time>
      </trkpt>
      <trkpt lat="48.25593" lon="-3.53137">
        <ele>94</ele>
        <time>2021-08-10T12:39:28Z</time>
      </trkpt>
      <trkpt lat="48.25596" lon="-3.53141">
        <ele>94</ele>
        <time>2021-08-10T12:39:29Z</time>
      </trkpt>
      <trkpt lat="48.25599" lon="-3.53145">
        <ele>94</ele>
        <time>2021-08-10T12:39:30Z</time>
      </trkpt>
      <trkpt lat="48.25601" lon="-3.53149">
        <ele>94</ele>
        <time>2021-08-10T12:39:31Z</time>
      </trkpt>
      <trkpt lat="48.25604" lon="-3.53153">
        <ele>94</ele>
        <time>2021-08-10T12:39:32Z</time>
      </trkpt>
      <trkpt lat="48.25606" lon="-3.53158">
        <ele>94</ele>
        <time>2021-08-10T12:39:33Z</time>
      </trkpt>
      <trkpt lat="48.25608" lon="-3.53163">
        <ele>94</ele>
        <time>2021-08-10T12:39:34Z</time>
      </trkpt>
      <trkpt lat="48.25611" lon="-3.53168">
        <ele>93.8</ele>
        <time>2021-08-10T12:39:35Z</time>
      </trkpt>
      <trkpt lat="48.25612" lon="-3.53173">
        <ele>93.8</ele>
        <time>2021-08-10T12:39:36Z</time>
      </trkpt>
      <trkpt lat="48.25614" lon="-3.53178">
        <ele>93.8</ele>
        <time>2021-08-10T12:39:37Z</time>
      </trkpt>
      <trkpt lat="48.25615" lon="-3.53182">
        <ele>93.6</ele>
        <time>2021-08-10T12:39:38Z</time>
      </trkpt>
      <trkpt lat="48.25617" lon="-3.53188">
        <ele>93.6</ele>
        <time>2021-08-10T12:39:39Z</time>
      </trkpt>
      <trkpt lat="48.25618" lon="-3.53194">
        <ele>93.6</ele>
        <time>2021-08-10T12:39:40Z</time>
      </trkpt>
      <trkpt lat="48.25619" lon="-3.53199">
        <ele>93.6</ele>
        <time>2021-08-10T12:39:41Z</time>
      </trkpt>
      <trkpt lat="48.25619" lon="-3.53205">
        <ele>93.6</ele>
        <time>2021-08-10T12:39:42Z</time>
      </trkpt>
      <trkpt lat="48.2562" lon="-3.53212">
        <ele>93.6</ele>
        <time>2021-08-10T12:39:43Z</time>
      </trkpt>
      <trkpt lat="48.25621" lon="-3.53218">
        <ele>93.6</ele>
        <time>2021-08-10T12:39:44Z</time>
      </trkpt>
      <trkpt lat="48.25622" lon="-3.53225">
        <ele>93.6</ele>
        <time>2021-08-10T12:39:45Z</time>
      </trkpt>
      <trkpt lat="48.25622" lon="-3.53231">
        <ele>93.6</ele>
        <time>2021-08-10T12:39:46Z</time>
      </trkpt>
      <trkpt lat="48.25622" lon="-3.53237">
        <ele>93.4</ele>
        <time>2021-08-10T12:39:47Z</time>
      </trkpt>
      <trkpt lat="48.25623" lon="-3.53243">
        <ele>93.4</ele>
        <time>2021-08-10T12:39:48Z</time>
      </trkpt>
      <trkpt lat="48.25623" lon="-3.53249">
        <ele>93.4</ele>
        <time>2021-08-10T12:39:49Z</time>
      </trkpt>
      <trkpt lat="48.25623" lon="-3.53255">
        <ele>93.4</ele>
        <time>2021-08-10T12:39:50Z</time>
      </trkpt>
      <trkpt lat="48.25623" lon="-3.53261">
        <ele>93.4</ele>
        <time>2021-08-10T12:39:51Z</time>
      </trkpt>
      <trkpt lat="48.25622" lon="-3.53267">
        <ele>93.2</ele>
        <time>2021-08-10T12:39:52Z</time>
      </trkpt>
      <trkpt lat="48.25622" lon="-3.53273">
        <ele>93.2</ele>
        <time>2021-08-10T12:39:53Z</time>
      </trkpt>
      <trkpt lat="48.25621" lon="-3.53279">
        <ele>93.2</ele>
        <time>2021-08-10T12:39:54Z</time>
      </trkpt>
      <trkpt lat="48.2562" lon="-3.53286">
        <ele>93.4</ele>
        <time>2021-08-10T12:39:55Z</time>
      </trkpt>
      <trkpt lat="48.2562" lon="-3.53292">
        <ele>93.4</ele>
        <time>2021-08-10T12:39:56Z</time>
      </trkpt>
      <trkpt lat="48.25619" lon="-3.53299">
        <ele>93.4</ele>
        <time>2021-08-10T12:39:57Z</time>
      </trkpt>
      <trkpt lat="48.25618" lon="-3.53305">
        <ele>93.4</ele>
        <time>2021-08-10T12:39:58Z</time>
      </trkpt>
      <trkpt lat="48.25617" lon="-3.53312">
        <ele>93.6</ele>
        <time>2021-08-10T12:39:59Z</time>
      </trkpt>
      <trkpt lat="48.25617" lon="-3.53318">
        <ele>93.6</ele>
        <time>2021-08-10T12:40:00Z</time>
      </trkpt>
      <trkpt lat="48.25616" lon="-3.53325">
        <ele>93.6</ele>
        <time>2021-08-10T12:40:01Z</time>
      </trkpt>
      <trkpt lat="48.25616" lon="-3.53332">
        <ele>94</ele>
        <time>2021-08-10T12:40:02Z</time>
      </trkpt>
      <trkpt lat="48.25616" lon="-3.53339">
        <ele>94</ele>
        <time>2021-08-10T12:40:03Z</time>
      </trkpt>
      <trkpt lat="48.25615" lon="-3.53346">
        <ele>94.2</ele>
        <time>2021-08-10T12:40:04Z</time>
      </trkpt>
      <trkpt lat="48.25615" lon="-3.53353">
        <ele>94.2</ele>
        <time>2021-08-10T12:40:05Z</time>
      </trkpt>
      <trkpt lat="48.25614" lon="-3.53361">
        <ele>94.2</ele>
        <time>2021-08-10T12:40:06Z</time>
      </trkpt>
      <trkpt lat="48.25614" lon="-3.5337">
        <ele>94.2</ele>
        <time>2021-08-10T12:40:07Z</time>
      </trkpt>
      <trkpt lat="48.25613" lon="-3.5338">
        <ele>94.2</ele>
        <time>2021-08-10T12:40:08Z</time>
      </trkpt>
      <trkpt lat="48.25613" lon="-3.53388">
        <ele>94.2</ele>
        <time>2021-08-10T12:40:09Z</time>
      </trkpt>
      <trkpt lat="48.25612" lon="-3.53395">
        <ele>94.2</ele>
        <time>2021-08-10T12:40:10Z</time>
      </trkpt>
      <trkpt lat="48.25612" lon="-3.53403">
        <ele>94.2</ele>
        <time>2021-08-10T12:40:11Z</time>
      </trkpt>
      <trkpt lat="48.25612" lon="-3.53411">
        <ele>94</ele>
        <time>2021-08-10T12:40:12Z</time>
      </trkpt>
      <trkpt lat="48.25611" lon="-3.53419">
        <ele>93.6</ele>
        <time>2021-08-10T12:40:13Z</time>
      </trkpt>
      <trkpt lat="48.2561" lon="-3.53426">
        <ele>92.8</ele>
        <time>2021-08-10T12:40:14Z</time>
      </trkpt>
      <trkpt lat="48.2561" lon="-3.53433">
        <ele>92.2</ele>
        <time>2021-08-10T12:40:15Z</time>
      </trkpt>
      <trkpt lat="48.25609" lon="-3.53439">
        <ele>91.6</ele>
        <time>2021-08-10T12:40:16Z</time>
      </trkpt>
      <trkpt lat="48.25609" lon="-3.53445">
        <ele>91</ele>
        <time>2021-08-10T12:40:17Z</time>
      </trkpt>
      <trkpt lat="48.25609" lon="-3.53451">
        <ele>90.8</ele>
        <time>2021-08-10T12:40:18Z</time>
      </trkpt>
      <trkpt lat="48.25608" lon="-3.53457">
        <ele>90.6</ele>
        <time>2021-08-10T12:40:19Z</time>
      </trkpt>
      <trkpt lat="48.25608" lon="-3.53464">
        <ele>90.6</ele>
        <time>2021-08-10T12:40:20Z</time>
      </trkpt>
      <trkpt lat="48.25607" lon="-3.5347">
        <ele>90.6</ele>
        <time>2021-08-10T12:40:21Z</time>
      </trkpt>
      <trkpt lat="48.25607" lon="-3.53477">
        <ele>90.6</ele>
        <time>2021-08-10T12:40:22Z</time>
      </trkpt>
      <trkpt lat="48.25606" lon="-3.53485">
        <ele>90.6</ele>
        <time>2021-08-10T12:40:23Z</time>
      </trkpt>
      <trkpt lat="48.25605" lon="-3.53492">
        <ele>90.6</ele>
        <time>2021-08-10T12:40:24Z</time>
      </trkpt>
      <trkpt lat="48.25604" lon="-3.53499">
        <ele>90.6</ele>
        <time>2021-08-10T12:40:25Z</time>
      </trkpt>
      <trkpt lat="48.25604" lon="-3.53506">
        <ele>90.6</ele>
        <time>2021-08-10T12:40:26Z</time>
      </trkpt>
      <trkpt lat="48.25603" lon="-3.53511">
        <ele>90.6</ele>
        <time>2021-08-10T12:40:27Z</time>
      </trkpt>
      <trkpt lat="48.25602" lon="-3.53517">
        <ele>90.6</ele>
        <time>2021-08-10T12:40:28Z</time>
      </trkpt>
      <trkpt lat="48.25602" lon="-3.53523">
        <ele>90.8</ele>
        <time>2021-08-10T12:40:29Z</time>
      </trkpt>
      <trkpt lat="48.25601" lon="-3.53529">
        <ele>91.2</ele>
        <time>2021-08-10T12:40:30Z</time>
      </trkpt>
      <trkpt lat="48.256" lon="-3.53536">
        <ele>91.4</ele>
        <time>2021-08-10T12:40:31Z</time>
      </trkpt>
      <trkpt lat="48.25599" lon="-3.53543">
        <ele>91.4</ele>
        <time>2021-08-10T12:40:32Z</time>
      </trkpt>
      <trkpt lat="48.25598" lon="-3.5355">
        <ele>91.6</ele>
        <time>2021-08-10T12:40:33Z</time>
      </trkpt>
      <trkpt lat="48.25597" lon="-3.53557">
        <ele>91.6</ele>
        <time>2021-08-10T12:40:34Z</time>
      </trkpt>
      <trkpt lat="48.25596" lon="-3.53563">
        <ele>91.6</ele>
        <time>2021-08-10T12:40:35Z</time>
      </trkpt>
      <trkpt lat="48.25595" lon="-3.5357">
        <ele>91.8</ele>
        <time>2021-08-10T12:40:36Z</time>
      </trkpt>
      <trkpt lat="48.25594" lon="-3.53577">
        <ele>91.8</ele>
        <time>2021-08-10T12:40:37Z</time>
      </trkpt>
      <trkpt lat="48.25593" lon="-3.53584">
        <ele>91.8</ele>
        <time>2021-08-10T12:40:38Z</time>
      </trkpt>
      <trkpt lat="48.25593" lon="-3.53592">
        <ele>92</ele>
        <time>2021-08-10T12:40:39Z</time>
      </trkpt>
      <trkpt lat="48.25591" lon="-3.53599">
        <ele>92</ele>
        <time>2021-08-10T12:40:40Z</time>
      </trkpt>
      <trkpt lat="48.2559" lon="-3.53606">
        <ele>92</ele>
        <time>2021-08-10T12:40:41Z</time>
      </trkpt>
      <trkpt lat="48.25589" lon="-3.53613">
        <ele>92</ele>
        <time>2021-08-10T12:40:42Z</time>
      </trkpt>
      <trkpt lat="48.25587" lon="-3.5362">
        <ele>92</ele>
        <time>2021-08-10T12:40:43Z</time>
      </trkpt>
      <trkpt lat="48.25585" lon="-3.53628">
        <ele>92</ele>
        <time>2021-08-10T12:40:44Z</time>
      </trkpt>
      <trkpt lat="48.25584" lon="-3.53635">
        <ele>92</ele>
        <time>2021-08-10T12:40:45Z</time>
      </trkpt>
      <trkpt lat="48.25582" lon="-3.53642">
        <ele>92</ele>
        <time>2021-08-10T12:40:46Z</time>
      </trkpt>
      <trkpt lat="48.2558" lon="-3.53649">
        <ele>92</ele>
        <time>2021-08-10T12:40:47Z</time>
      </trkpt>
      <trkpt lat="48.25578" lon="-3.53656">
        <ele>92</ele>
        <time>2021-08-10T12:40:48Z</time>
      </trkpt>
      <trkpt lat="48.25576" lon="-3.53662">
        <ele>92</ele>
        <time>2021-08-10T12:40:49Z</time>
      </trkpt>
      <trkpt lat="48.25573" lon="-3.53668">
        <ele>92</ele>
        <time>2021-08-10T12:40:50Z</time>
      </trkpt>
      <trkpt lat="48.25571" lon="-3.53673">
        <ele>92.2</ele>
        <time>2021-08-10T12:40:51Z</time>
      </trkpt>
      <trkpt lat="48.25569" lon="-3.53678">
        <ele>92.2</ele>
        <time>2021-08-10T12:40:52Z</time>
      </trkpt>
      <trkpt lat="48.25567" lon="-3.53683">
        <ele>92.2</ele>
        <time>2021-08-10T12:40:53Z</time>
      </trkpt>
      <trkpt lat="48.25566" lon="-3.53687">
        <ele>92.4</ele>
        <time>2021-08-10T12:40:54Z</time>
      </trkpt>
      <trkpt lat="48.25564" lon="-3.53691">
        <ele>92.4</ele>
        <time>2021-08-10T12:40:55Z</time>
      </trkpt>
      <trkpt lat="48.25563" lon="-3.53693">
        <ele>92.4</ele>
        <time>2021-08-10T12:40:56Z</time>
      </trkpt>
      <trkpt lat="48.25561" lon="-3.53696">
        <ele>92.4</ele>
        <time>2021-08-10T12:40:57Z</time>
      </trkpt>
      <trkpt lat="48.2556" lon="-3.53698">
        <ele>92.4</ele>
        <time>2021-08-10T12:40:58Z</time>
      </trkpt>
      <trkpt lat="48.25558" lon="-3.537">
        <ele>92.6</ele>
        <time>2021-08-10T12:40:59Z</time>
      </trkpt>
      <trkpt lat="48.25556" lon="-3.53702">
        <ele>92.8</ele>
        <time>2021-08-10T12:41:00Z</time>
      </trkpt>
      <trkpt lat="48.25554" lon="-3.53706">
        <ele>93.2</ele>
        <time>2021-08-10T12:41:01Z</time>
      </trkpt>
      <trkpt lat="48.2555" lon="-3.53709">
        <ele>93.6</ele>
        <time>2021-08-10T12:41:02Z</time>
      </trkpt>
      <trkpt lat="48.25546" lon="-3.53714">
        <ele>93.8</ele>
        <time>2021-08-10T12:41:03Z</time>
      </trkpt>
      <trkpt lat="48.25541" lon="-3.53719">
        <ele>93.8</ele>
        <time>2021-08-10T12:41:04Z</time>
      </trkpt>
      <trkpt lat="48.25537" lon="-3.53725">
        <ele>93.8</ele>
        <time>2021-08-10T12:41:05Z</time>
      </trkpt>
      <trkpt lat="48.25533" lon="-3.53731">
        <ele>93.8</ele>
        <time>2021-08-10T12:41:06Z</time>
      </trkpt>
      <trkpt lat="48.25529" lon="-3.53737">
        <ele>93.8</ele>
        <time>2021-08-10T12:41:07Z</time>
      </trkpt>
      <trkpt lat="48.25525" lon="-3.53742">
        <ele>93.8</ele>
        <time>2021-08-10T12:41:08Z</time>
      </trkpt>
      <trkpt lat="48.25522" lon="-3.53748">
        <ele>93.8</ele>
        <time>2021-08-10T12:41:09Z</time>
      </trkpt>
      <trkpt lat="48.25519" lon="-3.53753">
        <ele>93.8</ele>
        <time>2021-08-10T12:41:10Z</time>
      </trkpt>
      <trkpt lat="48.25515" lon="-3.53758">
        <ele>93.4</ele>
        <time>2021-08-10T12:41:11Z</time>
      </trkpt>
      <trkpt lat="48.2551" lon="-3.53764">
        <ele>93</ele>
        <time>2021-08-10T12:41:12Z</time>
      </trkpt>
      <trkpt lat="48.25506" lon="-3.5377">
        <ele>92.4</ele>
        <time>2021-08-10T12:41:13Z</time>
      </trkpt>
      <trkpt lat="48.25502" lon="-3.53776">
        <ele>91.8</ele>
        <time>2021-08-10T12:41:14Z</time>
      </trkpt>
      <trkpt lat="48.25499" lon="-3.53781">
        <ele>91.4</ele>
        <time>2021-08-10T12:41:15Z</time>
      </trkpt>
      <trkpt lat="48.25495" lon="-3.53787">
        <ele>91.2</ele>
        <time>2021-08-10T12:41:16Z</time>
      </trkpt>
      <trkpt lat="48.2549" lon="-3.53793">
        <ele>91.2</ele>
        <time>2021-08-10T12:41:17Z</time>
      </trkpt>
      <trkpt lat="48.25486" lon="-3.53798">
        <ele>91</ele>
        <time>2021-08-10T12:41:18Z</time>
      </trkpt>
      <trkpt lat="48.25482" lon="-3.53804">
        <ele>91</ele>
        <time>2021-08-10T12:41:19Z</time>
      </trkpt>
      <trkpt lat="48.25478" lon="-3.53809">
        <ele>91</ele>
        <time>2021-08-10T12:41:20Z</time>
      </trkpt>
      <trkpt lat="48.25474" lon="-3.53815">
        <ele>91</ele>
        <time>2021-08-10T12:41:21Z</time>
      </trkpt>
      <trkpt lat="48.2547" lon="-3.5382">
        <ele>91</ele>
        <time>2021-08-10T12:41:22Z</time>
      </trkpt>
      <trkpt lat="48.25466" lon="-3.53826">
        <ele>90.8</ele>
        <time>2021-08-10T12:41:23Z</time>
      </trkpt>
      <trkpt lat="48.25462" lon="-3.53831">
        <ele>90.8</ele>
        <time>2021-08-10T12:41:24Z</time>
      </trkpt>
      <trkpt lat="48.25458" lon="-3.53837">
        <ele>90.8</ele>
        <time>2021-08-10T12:41:25Z</time>
      </trkpt>
      <trkpt lat="48.25454" lon="-3.53842">
        <ele>90.8</ele>
        <time>2021-08-10T12:41:26Z</time>
      </trkpt>
      <trkpt lat="48.25449" lon="-3.53848">
        <ele>90.8</ele>
        <time>2021-08-10T12:41:27Z</time>
      </trkpt>
      <trkpt lat="48.25445" lon="-3.53853">
        <ele>90.8</ele>
        <time>2021-08-10T12:41:28Z</time>
      </trkpt>
      <trkpt lat="48.25442" lon="-3.53858">
        <ele>90.8</ele>
        <time>2021-08-10T12:41:29Z</time>
      </trkpt>
      <trkpt lat="48.25437" lon="-3.53863">
        <ele>90.8</ele>
        <time>2021-08-10T12:41:30Z</time>
      </trkpt>
      <trkpt lat="48.25433" lon="-3.53869">
        <ele>90.8</ele>
        <time>2021-08-10T12:41:31Z</time>
      </trkpt>
      <trkpt lat="48.25429" lon="-3.53874">
        <ele>90.8</ele>
        <time>2021-08-10T12:41:32Z</time>
      </trkpt>
      <trkpt lat="48.25425" lon="-3.53879">
        <ele>90.8</ele>
        <time>2021-08-10T12:41:33Z</time>
      </trkpt>
      <trkpt lat="48.25421" lon="-3.53885">
        <ele>90.8</ele>
        <time>2021-08-10T12:41:34Z</time>
      </trkpt>
      <trkpt lat="48.25416" lon="-3.5389">
        <ele>90.8</ele>
        <time>2021-08-10T12:41:35Z</time>
      </trkpt>
      <trkpt lat="48.25412" lon="-3.53895">
        <ele>90.8</ele>
        <time>2021-08-10T12:41:36Z</time>
      </trkpt>
      <trkpt lat="48.25408" lon="-3.53901">
        <ele>90.8</ele>
        <time>2021-08-10T12:41:37Z</time>
      </trkpt>
      <trkpt lat="48.25404" lon="-3.53906">
        <ele>90.8</ele>
        <time>2021-08-10T12:41:38Z</time>
      </trkpt>
      <trkpt lat="48.254" lon="-3.53911">
        <ele>90.8</ele>
        <time>2021-08-10T12:41:39Z</time>
      </trkpt>
      <trkpt lat="48.25396" lon="-3.53917">
        <ele>90.8</ele>
        <time>2021-08-10T12:41:40Z</time>
      </trkpt>
      <trkpt lat="48.25392" lon="-3.53922">
        <ele>90.8</ele>
        <time>2021-08-10T12:41:41Z</time>
      </trkpt>
      <trkpt lat="48.25388" lon="-3.53928">
        <ele>90.8</ele>
        <time>2021-08-10T12:41:42Z</time>
      </trkpt>
      <trkpt lat="48.25383" lon="-3.53934">
        <ele>90.8</ele>
        <time>2021-08-10T12:41:43Z</time>
      </trkpt>
      <trkpt lat="48.25379" lon="-3.5394">
        <ele>90.8</ele>
        <time>2021-08-10T12:41:44Z</time>
      </trkpt>
      <trkpt lat="48.25374" lon="-3.53947">
        <ele>90.8</ele>
        <time>2021-08-10T12:41:45Z</time>
      </trkpt>
      <trkpt lat="48.25369" lon="-3.53954">
        <ele>90.8</ele>
        <time>2021-08-10T12:41:46Z</time>
      </trkpt>
      <trkpt lat="48.25365" lon="-3.53961">
        <ele>90.8</ele>
        <time>2021-08-10T12:41:47Z</time>
      </trkpt>
      <trkpt lat="48.25361" lon="-3.53967">
        <ele>90.8</ele>
        <time>2021-08-10T12:41:48Z</time>
      </trkpt>
      <trkpt lat="48.25357" lon="-3.53974">
        <ele>90.8</ele>
        <time>2021-08-10T12:41:49Z</time>
      </trkpt>
      <trkpt lat="48.25353" lon="-3.5398">
        <ele>90.6</ele>
        <time>2021-08-10T12:41:50Z</time>
      </trkpt>
      <trkpt lat="48.2535" lon="-3.53988">
        <ele>90.4</ele>
        <time>2021-08-10T12:41:51Z</time>
      </trkpt>
      <trkpt lat="48.25347" lon="-3.53995">
        <ele>90</ele>
        <time>2021-08-10T12:41:52Z</time>
      </trkpt>
      <trkpt lat="48.25345" lon="-3.54003">
        <ele>89.6</ele>
        <time>2021-08-10T12:41:53Z</time>
      </trkpt>
      <trkpt lat="48.25343" lon="-3.54011">
        <ele>89.2</ele>
        <time>2021-08-10T12:41:54Z</time>
      </trkpt>
      <trkpt lat="48.25342" lon="-3.54018">
        <ele>89</ele>
        <time>2021-08-10T12:41:55Z</time>
      </trkpt>
      <trkpt lat="48.2534" lon="-3.54026">
        <ele>88.8</ele>
        <time>2021-08-10T12:41:56Z</time>
      </trkpt>
      <trkpt lat="48.25339" lon="-3.54033">
        <ele>88.8</ele>
        <time>2021-08-10T12:41:57Z</time>
      </trkpt>
      <trkpt lat="48.25339" lon="-3.54042">
        <ele>88.8</ele>
        <time>2021-08-10T12:41:58Z</time>
      </trkpt>
      <trkpt lat="48.25339" lon="-3.5405">
        <ele>88.8</ele>
        <time>2021-08-10T12:41:59Z</time>
      </trkpt>
      <trkpt lat="48.25339" lon="-3.54058">
        <ele>88.6</ele>
        <time>2021-08-10T12:42:00Z</time>
      </trkpt>
      <trkpt lat="48.25339" lon="-3.54065">
        <ele>88.6</ele>
        <time>2021-08-10T12:42:01Z</time>
      </trkpt>
      <trkpt lat="48.2534" lon="-3.54072">
        <ele>88.6</ele>
        <time>2021-08-10T12:42:02Z</time>
      </trkpt>
      <trkpt lat="48.2534" lon="-3.54078">
        <ele>88.6</ele>
        <time>2021-08-10T12:42:03Z</time>
      </trkpt>
      <trkpt lat="48.25341" lon="-3.54084">
        <ele>88.8</ele>
        <time>2021-08-10T12:42:04Z</time>
      </trkpt>
      <trkpt lat="48.25341" lon="-3.5409">
        <ele>88.8</ele>
        <time>2021-08-10T12:42:05Z</time>
      </trkpt>
      <trkpt lat="48.25342" lon="-3.54096">
        <ele>88.8</ele>
        <time>2021-08-10T12:42:06Z</time>
      </trkpt>
      <trkpt lat="48.25343" lon="-3.54102">
        <ele>88.8</ele>
        <time>2021-08-10T12:42:07Z</time>
      </trkpt>
      <trkpt lat="48.25344" lon="-3.54109">
        <ele>88.8</ele>
        <time>2021-08-10T12:42:08Z</time>
      </trkpt>
      <trkpt lat="48.25345" lon="-3.54116">
        <ele>89</ele>
        <time>2021-08-10T12:42:09Z</time>
      </trkpt>
      <trkpt lat="48.25345" lon="-3.54123">
        <ele>89</ele>
        <time>2021-08-10T12:42:10Z</time>
      </trkpt>
      <trkpt lat="48.25345" lon="-3.54131">
        <ele>89</ele>
        <time>2021-08-10T12:42:11Z</time>
      </trkpt>
      <trkpt lat="48.25345" lon="-3.54138">
        <ele>89</ele>
        <time>2021-08-10T12:42:12Z</time>
      </trkpt>
      <trkpt lat="48.25346" lon="-3.54146">
        <ele>89</ele>
        <time>2021-08-10T12:42:13Z</time>
      </trkpt>
      <trkpt lat="48.25346" lon="-3.54152">
        <ele>89.2</ele>
        <time>2021-08-10T12:42:14Z</time>
      </trkpt>
      <trkpt lat="48.25347" lon="-3.5416">
        <ele>89.2</ele>
        <time>2021-08-10T12:42:15Z</time>
      </trkpt>
      <trkpt lat="48.25347" lon="-3.54168">
        <ele>89.2</ele>
        <time>2021-08-10T12:42:16Z</time>
      </trkpt>
      <trkpt lat="48.25347" lon="-3.54177">
        <ele>89.2</ele>
        <time>2021-08-10T12:42:17Z</time>
      </trkpt>
      <trkpt lat="48.25347" lon="-3.54187">
        <ele>89.2</ele>
        <time>2021-08-10T12:42:18Z</time>
      </trkpt>
      <trkpt lat="48.25347" lon="-3.54197">
        <ele>89.2</ele>
        <time>2021-08-10T12:42:19Z</time>
      </trkpt>
      <trkpt lat="48.25347" lon="-3.54207">
        <ele>89.2</ele>
        <time>2021-08-10T12:42:20Z</time>
      </trkpt>
      <trkpt lat="48.25347" lon="-3.54215">
        <ele>89.2</ele>
        <time>2021-08-10T12:42:21Z</time>
      </trkpt>
      <trkpt lat="48.25348" lon="-3.54225">
        <ele>89.4</ele>
        <time>2021-08-10T12:42:22Z</time>
      </trkpt>
      <trkpt lat="48.25348" lon="-3.54234">
        <ele>89.4</ele>
        <time>2021-08-10T12:42:23Z</time>
      </trkpt>
      <trkpt lat="48.25348" lon="-3.54243">
        <ele>89.4</ele>
        <time>2021-08-10T12:42:24Z</time>
      </trkpt>
      <trkpt lat="48.25348" lon="-3.54252">
        <ele>89.4</ele>
        <time>2021-08-10T12:42:25Z</time>
      </trkpt>
      <trkpt lat="48.25348" lon="-3.5426">
        <ele>89.4</ele>
        <time>2021-08-10T12:42:26Z</time>
      </trkpt>
      <trkpt lat="48.25348" lon="-3.54268">
        <ele>89.4</ele>
        <time>2021-08-10T12:42:27Z</time>
      </trkpt>
      <trkpt lat="48.25348" lon="-3.54277">
        <ele>89.4</ele>
        <time>2021-08-10T12:42:28Z</time>
      </trkpt>
      <trkpt lat="48.25349" lon="-3.54286">
        <ele>89.4</ele>
        <time>2021-08-10T12:42:29Z</time>
      </trkpt>
      <trkpt lat="48.25349" lon="-3.54294">
        <ele>89.4</ele>
        <time>2021-08-10T12:42:30Z</time>
      </trkpt>
      <trkpt lat="48.25349" lon="-3.54302">
        <ele>89.4</ele>
        <time>2021-08-10T12:42:31Z</time>
      </trkpt>
      <trkpt lat="48.2535" lon="-3.54309">
        <ele>89.4</ele>
        <time>2021-08-10T12:42:32Z</time>
      </trkpt>
      <trkpt lat="48.25351" lon="-3.54324">
        <ele>89.6</ele>
        <time>2021-08-10T12:42:34Z</time>
      </trkpt>
      <trkpt lat="48.25351" lon="-3.54333">
        <ele>89.6</ele>
        <time>2021-08-10T12:42:35Z</time>
      </trkpt>
      <trkpt lat="48.25351" lon="-3.54342">
        <ele>89.6</ele>
        <time>2021-08-10T12:42:36Z</time>
      </trkpt>
      <trkpt lat="48.25351" lon="-3.54349">
        <ele>89.6</ele>
        <time>2021-08-10T12:42:37Z</time>
      </trkpt>
      <trkpt lat="48.25351" lon="-3.54357">
        <ele>89.6</ele>
        <time>2021-08-10T12:42:38Z</time>
      </trkpt>
      <trkpt lat="48.25352" lon="-3.54365">
        <ele>89.6</ele>
        <time>2021-08-10T12:42:39Z</time>
      </trkpt>
      <trkpt lat="48.25352" lon="-3.54379">
        <ele>89.6</ele>
        <time>2021-08-10T12:42:41Z</time>
      </trkpt>
      <trkpt lat="48.25353" lon="-3.54386">
        <ele>89.4</ele>
        <time>2021-08-10T12:42:42Z</time>
      </trkpt>
      <trkpt lat="48.25353" lon="-3.54394">
        <ele>89.4</ele>
        <time>2021-08-10T12:42:43Z</time>
      </trkpt>
      <trkpt lat="48.25354" lon="-3.54401">
        <ele>89.4</ele>
        <time>2021-08-10T12:42:44Z</time>
      </trkpt>
      <trkpt lat="48.25354" lon="-3.54409">
        <ele>89.2</ele>
        <time>2021-08-10T12:42:45Z</time>
      </trkpt>
      <trkpt lat="48.25354" lon="-3.54417">
        <ele>89.2</ele>
        <time>2021-08-10T12:42:46Z</time>
      </trkpt>
      <trkpt lat="48.25355" lon="-3.54432">
        <ele>89</ele>
        <time>2021-08-10T12:42:48Z</time>
      </trkpt>
      <trkpt lat="48.25356" lon="-3.54445">
        <ele>88.8</ele>
        <time>2021-08-10T12:42:50Z</time>
      </trkpt>
      <trkpt lat="48.25357" lon="-3.54452">
        <ele>88.6</ele>
        <time>2021-08-10T12:42:51Z</time>
      </trkpt>
      <trkpt lat="48.25357" lon="-3.54459">
        <ele>88.4</ele>
        <time>2021-08-10T12:42:52Z</time>
      </trkpt>
      <trkpt lat="48.25357" lon="-3.54466">
        <ele>88.2</ele>
        <time>2021-08-10T12:42:53Z</time>
      </trkpt>
      <trkpt lat="48.25358" lon="-3.54472">
        <ele>88.2</ele>
        <time>2021-08-10T12:42:54Z</time>
      </trkpt>
      <trkpt lat="48.25358" lon="-3.5448">
        <ele>88</ele>
        <time>2021-08-10T12:42:55Z</time>
      </trkpt>
      <trkpt lat="48.25358" lon="-3.54486">
        <ele>88</ele>
        <time>2021-08-10T12:42:56Z</time>
      </trkpt>
      <trkpt lat="48.25358" lon="-3.54493">
        <ele>87.8</ele>
        <time>2021-08-10T12:42:57Z</time>
      </trkpt>
      <trkpt lat="48.2536" lon="-3.54505">
        <ele>87.8</ele>
        <time>2021-08-10T12:42:59Z</time>
      </trkpt>
      <trkpt lat="48.2536" lon="-3.5451">
        <ele>87.6</ele>
        <time>2021-08-10T12:43:00Z</time>
      </trkpt>
      <trkpt lat="48.2536" lon="-3.54515">
        <ele>87.6</ele>
        <time>2021-08-10T12:43:01Z</time>
      </trkpt>
      <trkpt lat="48.2536" lon="-3.54521">
        <ele>87.6</ele>
        <time>2021-08-10T12:43:02Z</time>
      </trkpt>
      <trkpt lat="48.2536" lon="-3.54528">
        <ele>87.6</ele>
        <time>2021-08-10T12:43:03Z</time>
      </trkpt>
      <trkpt lat="48.25361" lon="-3.54534">
        <ele>87.6</ele>
        <time>2021-08-10T12:43:04Z</time>
      </trkpt>
      <trkpt lat="48.25361" lon="-3.54542">
        <ele>87.6</ele>
        <time>2021-08-10T12:43:05Z</time>
      </trkpt>
      <trkpt lat="48.25361" lon="-3.54549">
        <ele>87.8</ele>
        <time>2021-08-10T12:43:06Z</time>
      </trkpt>
      <trkpt lat="48.25362" lon="-3.54556">
        <ele>88</ele>
        <time>2021-08-10T12:43:07Z</time>
      </trkpt>
      <trkpt lat="48.25362" lon="-3.54563">
        <ele>88.4</ele>
        <time>2021-08-10T12:43:08Z</time>
      </trkpt>
      <trkpt lat="48.25362" lon="-3.5457">
        <ele>88.6</ele>
        <time>2021-08-10T12:43:09Z</time>
      </trkpt>
      <trkpt lat="48.25362" lon="-3.54576">
        <ele>88.8</ele>
        <time>2021-08-10T12:43:10Z</time>
      </trkpt>
      <trkpt lat="48.25363" lon="-3.54581">
        <ele>88.8</ele>
        <time>2021-08-10T12:43:11Z</time>
      </trkpt>
      <trkpt lat="48.25363" lon="-3.54587">
        <ele>88.8</ele>
        <time>2021-08-10T12:43:12Z</time>
      </trkpt>
      <trkpt lat="48.25364" lon="-3.54592">
        <ele>88.8</ele>
        <time>2021-08-10T12:43:13Z</time>
      </trkpt>
      <trkpt lat="48.25365" lon="-3.54599">
        <ele>89</ele>
        <time>2021-08-10T12:43:14Z</time>
      </trkpt>
      <trkpt lat="48.25365" lon="-3.54605">
        <ele>89</ele>
        <time>2021-08-10T12:43:15Z</time>
      </trkpt>
      <trkpt lat="48.25365" lon="-3.54612">
        <ele>89</ele>
        <time>2021-08-10T12:43:16Z</time>
      </trkpt>
      <trkpt lat="48.25365" lon="-3.54619">
        <ele>89</ele>
        <time>2021-08-10T12:43:17Z</time>
      </trkpt>
      <trkpt lat="48.25365" lon="-3.54627">
        <ele>89</ele>
        <time>2021-08-10T12:43:18Z</time>
      </trkpt>
      <trkpt lat="48.25365" lon="-3.54634">
        <ele>88.8</ele>
        <time>2021-08-10T12:43:19Z</time>
      </trkpt>
      <trkpt lat="48.25365" lon="-3.54641">
        <ele>89</ele>
        <time>2021-08-10T12:43:20Z</time>
      </trkpt>
      <trkpt lat="48.25366" lon="-3.54653">
        <ele>88.8</ele>
        <time>2021-08-10T12:43:22Z</time>
      </trkpt>
      <trkpt lat="48.25366" lon="-3.54661">
        <ele>88.8</ele>
        <time>2021-08-10T12:43:23Z</time>
      </trkpt>
      <trkpt lat="48.25366" lon="-3.54669">
        <ele>88.8</ele>
        <time>2021-08-10T12:43:24Z</time>
      </trkpt>
      <trkpt lat="48.25366" lon="-3.54677">
        <ele>88.8</ele>
        <time>2021-08-10T12:43:25Z</time>
      </trkpt>
      <trkpt lat="48.25367" lon="-3.54684">
        <ele>88.8</ele>
        <time>2021-08-10T12:43:26Z</time>
      </trkpt>
      <trkpt lat="48.25367" lon="-3.54692">
        <ele>88.6</ele>
        <time>2021-08-10T12:43:27Z</time>
      </trkpt>
      <trkpt lat="48.25368" lon="-3.54709">
        <ele>88.6</ele>
        <time>2021-08-10T12:43:29Z</time>
      </trkpt>
      <trkpt lat="48.25368" lon="-3.54717">
        <ele>88.6</ele>
        <time>2021-08-10T12:43:30Z</time>
      </trkpt>
      <trkpt lat="48.25368" lon="-3.54725">
        <ele>88.6</ele>
        <time>2021-08-10T12:43:31Z</time>
      </trkpt>
      <trkpt lat="48.25368" lon="-3.54732">
        <ele>88.6</ele>
        <time>2021-08-10T12:43:32Z</time>
      </trkpt>
      <trkpt lat="48.25368" lon="-3.5474">
        <ele>88.8</ele>
        <time>2021-08-10T12:43:33Z</time>
      </trkpt>
      <trkpt lat="48.25368" lon="-3.54748">
        <ele>88.8</ele>
        <time>2021-08-10T12:43:34Z</time>
      </trkpt>
      <trkpt lat="48.25368" lon="-3.54764">
        <ele>88.8</ele>
        <time>2021-08-10T12:43:36Z</time>
      </trkpt>
      <trkpt lat="48.25369" lon="-3.54772">
        <ele>88.8</ele>
        <time>2021-08-10T12:43:37Z</time>
      </trkpt>
      <trkpt lat="48.25369" lon="-3.5478">
        <ele>88.8</ele>
        <time>2021-08-10T12:43:38Z</time>
      </trkpt>
      <trkpt lat="48.2537" lon="-3.54788">
        <ele>88.8</ele>
        <time>2021-08-10T12:43:39Z</time>
      </trkpt>
      <trkpt lat="48.2537" lon="-3.54795">
        <ele>88.8</ele>
        <time>2021-08-10T12:43:40Z</time>
      </trkpt>
      <trkpt lat="48.2537" lon="-3.54803">
        <ele>88.8</ele>
        <time>2021-08-10T12:43:41Z</time>
      </trkpt>
      <trkpt lat="48.25371" lon="-3.54819">
        <ele>88.8</ele>
        <time>2021-08-10T12:43:43Z</time>
      </trkpt>
      <trkpt lat="48.25371" lon="-3.54828">
        <ele>88.8</ele>
        <time>2021-08-10T12:43:44Z</time>
      </trkpt>
      <trkpt lat="48.25372" lon="-3.54837">
        <ele>88.8</ele>
        <time>2021-08-10T12:43:45Z</time>
      </trkpt>
      <trkpt lat="48.25372" lon="-3.54846">
        <ele>88.8</ele>
        <time>2021-08-10T12:43:46Z</time>
      </trkpt>
      <trkpt lat="48.25373" lon="-3.54855">
        <ele>88.8</ele>
        <time>2021-08-10T12:43:47Z</time>
      </trkpt>
      <trkpt lat="48.25373" lon="-3.54865">
        <ele>88.8</ele>
        <time>2021-08-10T12:43:48Z</time>
      </trkpt>
      <trkpt lat="48.25374" lon="-3.54883">
        <ele>88.8</ele>
        <time>2021-08-10T12:43:50Z</time>
      </trkpt>
      <trkpt lat="48.25374" lon="-3.549">
        <ele>88.6</ele>
        <time>2021-08-10T12:43:52Z</time>
      </trkpt>
      <trkpt lat="48.25375" lon="-3.54909">
        <ele>88.2</ele>
        <time>2021-08-10T12:43:53Z</time>
      </trkpt>
      <trkpt lat="48.25375" lon="-3.54917">
        <ele>87.6</ele>
        <time>2021-08-10T12:43:54Z</time>
      </trkpt>
      <trkpt lat="48.25376" lon="-3.54926">
        <ele>87.2</ele>
        <time>2021-08-10T12:43:55Z</time>
      </trkpt>
      <trkpt lat="48.25377" lon="-3.54934">
        <ele>87</ele>
        <time>2021-08-10T12:43:56Z</time>
      </trkpt>
      <trkpt lat="48.25378" lon="-3.54943">
        <ele>86.8</ele>
        <time>2021-08-10T12:43:57Z</time>
      </trkpt>
      <trkpt lat="48.25379" lon="-3.54951">
        <ele>86.8</ele>
        <time>2021-08-10T12:43:58Z</time>
      </trkpt>
      <trkpt lat="48.25381" lon="-3.54959">
        <ele>86.8</ele>
        <time>2021-08-10T12:43:59Z</time>
      </trkpt>
      <trkpt lat="48.25383" lon="-3.54967">
        <ele>86.8</ele>
        <time>2021-08-10T12:44:00Z</time>
      </trkpt>
      <trkpt lat="48.25385" lon="-3.54974">
        <ele>86.6</ele>
        <time>2021-08-10T12:44:01Z</time>
      </trkpt>
      <trkpt lat="48.25387" lon="-3.54982">
        <ele>86.6</ele>
        <time>2021-08-10T12:44:02Z</time>
      </trkpt>
      <trkpt lat="48.25389" lon="-3.54991">
        <ele>86.6</ele>
        <time>2021-08-10T12:44:03Z</time>
      </trkpt>
      <trkpt lat="48.2539" lon="-3.54998">
        <ele>86.6</ele>
        <time>2021-08-10T12:44:04Z</time>
      </trkpt>
      <trkpt lat="48.25392" lon="-3.55006">
        <ele>86.4</ele>
        <time>2021-08-10T12:44:05Z</time>
      </trkpt>
      <trkpt lat="48.25393" lon="-3.55015">
        <ele>86.4</ele>
        <time>2021-08-10T12:44:06Z</time>
      </trkpt>
      <trkpt lat="48.25395" lon="-3.55023">
        <ele>86.4</ele>
        <time>2021-08-10T12:44:07Z</time>
      </trkpt>
      <trkpt lat="48.25396" lon="-3.5503">
        <ele>86.4</ele>
        <time>2021-08-10T12:44:08Z</time>
      </trkpt>
      <trkpt lat="48.25398" lon="-3.55038">
        <ele>86.2</ele>
        <time>2021-08-10T12:44:09Z</time>
      </trkpt>
      <trkpt lat="48.25399" lon="-3.55045">
        <ele>86.2</ele>
        <time>2021-08-10T12:44:10Z</time>
      </trkpt>
      <trkpt lat="48.254" lon="-3.55052">
        <ele>86.2</ele>
        <time>2021-08-10T12:44:11Z</time>
      </trkpt>
      <trkpt lat="48.25402" lon="-3.5506">
        <ele>86.2</ele>
        <time>2021-08-10T12:44:12Z</time>
      </trkpt>
      <trkpt lat="48.25403" lon="-3.55067">
        <ele>86.2</ele>
        <time>2021-08-10T12:44:13Z</time>
      </trkpt>
      <trkpt lat="48.25407" lon="-3.55082">
        <ele>86.2</ele>
        <time>2021-08-10T12:44:15Z</time>
      </trkpt>
      <trkpt lat="48.25411" lon="-3.55096">
        <ele>86.2</ele>
        <time>2021-08-10T12:44:17Z</time>
      </trkpt>
      <trkpt lat="48.25413" lon="-3.55103">
        <ele>86.2</ele>
        <time>2021-08-10T12:44:18Z</time>
      </trkpt>
      <trkpt lat="48.25415" lon="-3.5511">
        <ele>86.2</ele>
        <time>2021-08-10T12:44:19Z</time>
      </trkpt>
      <trkpt lat="48.25417" lon="-3.55117">
        <ele>86.2</ele>
        <time>2021-08-10T12:44:20Z</time>
      </trkpt>
      <trkpt lat="48.2542" lon="-3.55132">
        <ele>86.2</ele>
        <time>2021-08-10T12:44:22Z</time>
      </trkpt>
      <trkpt lat="48.25423" lon="-3.55146">
        <ele>86.2</ele>
        <time>2021-08-10T12:44:24Z</time>
      </trkpt>
      <trkpt lat="48.25424" lon="-3.55154">
        <ele>86.2</ele>
        <time>2021-08-10T12:44:25Z</time>
      </trkpt>
      <trkpt lat="48.25426" lon="-3.55161">
        <ele>86.2</ele>
        <time>2021-08-10T12:44:26Z</time>
      </trkpt>
      <trkpt lat="48.25427" lon="-3.5517">
        <ele>86.4</ele>
        <time>2021-08-10T12:44:27Z</time>
      </trkpt>
      <trkpt lat="48.25429" lon="-3.55178">
        <ele>86.4</ele>
        <time>2021-08-10T12:44:28Z</time>
      </trkpt>
      <trkpt lat="48.2543" lon="-3.55185">
        <ele>86.4</ele>
        <time>2021-08-10T12:44:29Z</time>
      </trkpt>
      <trkpt lat="48.25432" lon="-3.55193">
        <ele>86.4</ele>
        <time>2021-08-10T12:44:30Z</time>
      </trkpt>
      <trkpt lat="48.25433" lon="-3.55201">
        <ele>86.4</ele>
        <time>2021-08-10T12:44:31Z</time>
      </trkpt>
      <trkpt lat="48.25435" lon="-3.55209">
        <ele>86.4</ele>
        <time>2021-08-10T12:44:32Z</time>
      </trkpt>
      <trkpt lat="48.25437" lon="-3.55217">
        <ele>86.4</ele>
        <time>2021-08-10T12:44:33Z</time>
      </trkpt>
      <trkpt lat="48.25438" lon="-3.55225">
        <ele>86.4</ele>
        <time>2021-08-10T12:44:34Z</time>
      </trkpt>
      <trkpt lat="48.25439" lon="-3.55233">
        <ele>86.4</ele>
        <time>2021-08-10T12:44:35Z</time>
      </trkpt>
      <trkpt lat="48.25441" lon="-3.5524">
        <ele>86.2</ele>
        <time>2021-08-10T12:44:36Z</time>
      </trkpt>
      <trkpt lat="48.25442" lon="-3.55248">
        <ele>86.2</ele>
        <time>2021-08-10T12:44:37Z</time>
      </trkpt>
      <trkpt lat="48.25444" lon="-3.55255">
        <ele>86.2</ele>
        <time>2021-08-10T12:44:38Z</time>
      </trkpt>
      <trkpt lat="48.25448" lon="-3.5527">
        <ele>86.2</ele>
        <time>2021-08-10T12:44:40Z</time>
      </trkpt>
      <trkpt lat="48.25451" lon="-3.55285">
        <ele>86.2</ele>
        <time>2021-08-10T12:44:42Z</time>
      </trkpt>
      <trkpt lat="48.25453" lon="-3.55292">
        <ele>86.2</ele>
        <time>2021-08-10T12:44:43Z</time>
      </trkpt>
      <trkpt lat="48.25454" lon="-3.553">
        <ele>86.2</ele>
        <time>2021-08-10T12:44:44Z</time>
      </trkpt>
      <trkpt lat="48.25456" lon="-3.55308">
        <ele>86.2</ele>
        <time>2021-08-10T12:44:45Z</time>
      </trkpt>
      <trkpt lat="48.25457" lon="-3.55315">
        <ele>86.2</ele>
        <time>2021-08-10T12:44:46Z</time>
      </trkpt>
      <trkpt lat="48.25459" lon="-3.55322">
        <ele>86.2</ele>
        <time>2021-08-10T12:44:47Z</time>
      </trkpt>
      <trkpt lat="48.25462" lon="-3.55338">
        <ele>86</ele>
        <time>2021-08-10T12:44:49Z</time>
      </trkpt>
      <trkpt lat="48.25464" lon="-3.55345">
        <ele>86</ele>
        <time>2021-08-10T12:44:50Z</time>
      </trkpt>
      <trkpt lat="48.25465" lon="-3.55353">
        <ele>86</ele>
        <time>2021-08-10T12:44:51Z</time>
      </trkpt>
      <trkpt lat="48.25467" lon="-3.55361">
        <ele>86.2</ele>
        <time>2021-08-10T12:44:52Z</time>
      </trkpt>
      <trkpt lat="48.25469" lon="-3.55368">
        <ele>86.2</ele>
        <time>2021-08-10T12:44:53Z</time>
      </trkpt>
      <trkpt lat="48.2547" lon="-3.55376">
        <ele>86.2</ele>
        <time>2021-08-10T12:44:54Z</time>
      </trkpt>
      <trkpt lat="48.25472" lon="-3.55391">
        <ele>86.2</ele>
        <time>2021-08-10T12:44:56Z</time>
      </trkpt>
      <trkpt lat="48.25473" lon="-3.55406">
        <ele>86.4</ele>
        <time>2021-08-10T12:44:58Z</time>
      </trkpt>
      <trkpt lat="48.25474" lon="-3.55414">
        <ele>86.4</ele>
        <time>2021-08-10T12:44:59Z</time>
      </trkpt>
      <trkpt lat="48.25474" lon="-3.55422">
        <ele>86.4</ele>
        <time>2021-08-10T12:45:00Z</time>
      </trkpt>
      <trkpt lat="48.25473" lon="-3.5543">
        <ele>86.4</ele>
        <time>2021-08-10T12:45:01Z</time>
      </trkpt>
      <trkpt lat="48.25473" lon="-3.55437">
        <ele>86.4</ele>
        <time>2021-08-10T12:45:02Z</time>
      </trkpt>
      <trkpt lat="48.25472" lon="-3.55445">
        <ele>86.4</ele>
        <time>2021-08-10T12:45:03Z</time>
      </trkpt>
      <trkpt lat="48.2547" lon="-3.5546">
        <ele>86.6</ele>
        <time>2021-08-10T12:45:05Z</time>
      </trkpt>
      <trkpt lat="48.25467" lon="-3.55476">
        <ele>86.6</ele>
        <time>2021-08-10T12:45:07Z</time>
      </trkpt>
      <trkpt lat="48.25465" lon="-3.55483">
        <ele>86.6</ele>
        <time>2021-08-10T12:45:08Z</time>
      </trkpt>
      <trkpt lat="48.25463" lon="-3.5549">
        <ele>86.2</ele>
        <time>2021-08-10T12:45:09Z</time>
      </trkpt>
      <trkpt lat="48.2546" lon="-3.55497">
        <ele>86.2</ele>
        <time>2021-08-10T12:45:10Z</time>
      </trkpt>
      <trkpt lat="48.25458" lon="-3.55504">
        <ele>86.2</ele>
        <time>2021-08-10T12:45:11Z</time>
      </trkpt>
      <trkpt lat="48.25455" lon="-3.5551">
        <ele>86.2</ele>
        <time>2021-08-10T12:45:12Z</time>
      </trkpt>
      <trkpt lat="48.2545" lon="-3.55524">
        <ele>86.2</ele>
        <time>2021-08-10T12:45:14Z</time>
      </trkpt>
      <trkpt lat="48.25444" lon="-3.55537">
        <ele>86.2</ele>
        <time>2021-08-10T12:45:16Z</time>
      </trkpt>
      <trkpt lat="48.25442" lon="-3.55543">
        <ele>86.2</ele>
        <time>2021-08-10T12:45:17Z</time>
      </trkpt>
      <trkpt lat="48.25439" lon="-3.5555">
        <ele>86.2</ele>
        <time>2021-08-10T12:45:18Z</time>
      </trkpt>
      <trkpt lat="48.25436" lon="-3.55556">
        <ele>86.2</ele>
        <time>2021-08-10T12:45:19Z</time>
      </trkpt>
      <trkpt lat="48.25433" lon="-3.55562">
        <ele>86.2</ele>
        <time>2021-08-10T12:45:20Z</time>
      </trkpt>
      <trkpt lat="48.2543" lon="-3.55569">
        <ele>86.2</ele>
        <time>2021-08-10T12:45:21Z</time>
      </trkpt>
      <trkpt lat="48.25424" lon="-3.55581">
        <ele>86.2</ele>
        <time>2021-08-10T12:45:23Z</time>
      </trkpt>
      <trkpt lat="48.25419" lon="-3.55594">
        <ele>86.2</ele>
        <time>2021-08-10T12:45:25Z</time>
      </trkpt>
      <trkpt lat="48.25415" lon="-3.556">
        <ele>86.2</ele>
        <time>2021-08-10T12:45:26Z</time>
      </trkpt>
      <trkpt lat="48.25413" lon="-3.55607">
        <ele>86.4</ele>
        <time>2021-08-10T12:45:27Z</time>
      </trkpt>
      <trkpt lat="48.2541" lon="-3.55614">
        <ele>86.4</ele>
        <time>2021-08-10T12:45:28Z</time>
      </trkpt>
      <trkpt lat="48.25407" lon="-3.5562">
        <ele>86.4</ele>
        <time>2021-08-10T12:45:29Z</time>
      </trkpt>
      <trkpt lat="48.25404" lon="-3.55627">
        <ele>86.4</ele>
        <time>2021-08-10T12:45:30Z</time>
      </trkpt>
      <trkpt lat="48.25402" lon="-3.55633">
        <ele>86.4</ele>
        <time>2021-08-10T12:45:31Z</time>
      </trkpt>
      <trkpt lat="48.25399" lon="-3.5564">
        <ele>86.4</ele>
        <time>2021-08-10T12:45:32Z</time>
      </trkpt>
      <trkpt lat="48.25393" lon="-3.55653">
        <ele>86.4</ele>
        <time>2021-08-10T12:45:34Z</time>
      </trkpt>
      <trkpt lat="48.2539" lon="-3.5566">
        <ele>86.4</ele>
        <time>2021-08-10T12:45:35Z</time>
      </trkpt>
      <trkpt lat="48.25388" lon="-3.55667">
        <ele>86.4</ele>
        <time>2021-08-10T12:45:36Z</time>
      </trkpt>
      <trkpt lat="48.25385" lon="-3.55674">
        <ele>86.4</ele>
        <time>2021-08-10T12:45:37Z</time>
      </trkpt>
      <trkpt lat="48.25382" lon="-3.5568">
        <ele>86.4</ele>
        <time>2021-08-10T12:45:38Z</time>
      </trkpt>
      <trkpt lat="48.2538" lon="-3.55687">
        <ele>86.4</ele>
        <time>2021-08-10T12:45:39Z</time>
      </trkpt>
      <trkpt lat="48.25377" lon="-3.55694">
        <ele>86.4</ele>
        <time>2021-08-10T12:45:40Z</time>
      </trkpt>
      <trkpt lat="48.25373" lon="-3.55699">
        <ele>86.4</ele>
        <time>2021-08-10T12:45:41Z</time>
      </trkpt>
      <trkpt lat="48.25367" lon="-3.55712">
        <ele>86.4</ele>
        <time>2021-08-10T12:45:43Z</time>
      </trkpt>
      <trkpt lat="48.25361" lon="-3.55725">
        <ele>86.2</ele>
        <time>2021-08-10T12:45:45Z</time>
      </trkpt>
      <trkpt lat="48.25359" lon="-3.55731">
        <ele>86.2</ele>
        <time>2021-08-10T12:45:46Z</time>
      </trkpt>
      <trkpt lat="48.25356" lon="-3.55738">
        <ele>86.2</ele>
        <time>2021-08-10T12:45:47Z</time>
      </trkpt>
      <trkpt lat="48.25354" lon="-3.55744">
        <ele>86.2</ele>
        <time>2021-08-10T12:45:48Z</time>
      </trkpt>
      <trkpt lat="48.25351" lon="-3.5575">
        <ele>86</ele>
        <time>2021-08-10T12:45:49Z</time>
      </trkpt>
      <trkpt lat="48.25349" lon="-3.55757">
        <ele>86</ele>
        <time>2021-08-10T12:45:50Z</time>
      </trkpt>
      <trkpt lat="48.25343" lon="-3.55772">
        <ele>86</ele>
        <time>2021-08-10T12:45:52Z</time>
      </trkpt>
      <trkpt lat="48.25336" lon="-3.55788">
        <ele>86.2</ele>
        <time>2021-08-10T12:45:54Z</time>
      </trkpt>
      <trkpt lat="48.25333" lon="-3.55795">
        <ele>86</ele>
        <time>2021-08-10T12:45:55Z</time>
      </trkpt>
      <trkpt lat="48.2533" lon="-3.55802">
        <ele>86</ele>
        <time>2021-08-10T12:45:56Z</time>
      </trkpt>
      <trkpt lat="48.25327" lon="-3.55809">
        <ele>85.8</ele>
        <time>2021-08-10T12:45:57Z</time>
      </trkpt>
      <trkpt lat="48.25324" lon="-3.55816">
        <ele>85.8</ele>
        <time>2021-08-10T12:45:58Z</time>
      </trkpt>
      <trkpt lat="48.25321" lon="-3.55823">
        <ele>85.6</ele>
        <time>2021-08-10T12:45:59Z</time>
      </trkpt>
      <trkpt lat="48.25319" lon="-3.5583">
        <ele>85.2</ele>
        <time>2021-08-10T12:46:00Z</time>
      </trkpt>
      <trkpt lat="48.25316" lon="-3.55836">
        <ele>85</ele>
        <time>2021-08-10T12:46:01Z</time>
      </trkpt>
      <trkpt lat="48.25311" lon="-3.55847">
        <ele>84.6</ele>
        <time>2021-08-10T12:46:03Z</time>
      </trkpt>
      <trkpt lat="48.25309" lon="-3.55853">
        <ele>84.6</ele>
        <time>2021-08-10T12:46:04Z</time>
      </trkpt>
      <trkpt lat="48.25306" lon="-3.55858">
        <ele>84.6</ele>
        <time>2021-08-10T12:46:05Z</time>
      </trkpt>
      <trkpt lat="48.25303" lon="-3.55864">
        <ele>84.6</ele>
        <time>2021-08-10T12:46:06Z</time>
      </trkpt>
      <trkpt lat="48.25301" lon="-3.5587">
        <ele>84.6</ele>
        <time>2021-08-10T12:46:07Z</time>
      </trkpt>
      <trkpt lat="48.25298" lon="-3.55877">
        <ele>84.6</ele>
        <time>2021-08-10T12:46:08Z</time>
      </trkpt>
      <trkpt lat="48.25293" lon="-3.5589">
        <ele>84.4</ele>
        <time>2021-08-10T12:46:10Z</time>
      </trkpt>
      <trkpt lat="48.25287" lon="-3.55902">
        <ele>84.4</ele>
        <time>2021-08-10T12:46:12Z</time>
      </trkpt>
      <trkpt lat="48.25285" lon="-3.55908">
        <ele>84.4</ele>
        <time>2021-08-10T12:46:13Z</time>
      </trkpt>
      <trkpt lat="48.25283" lon="-3.55914">
        <ele>84.4</ele>
        <time>2021-08-10T12:46:14Z</time>
      </trkpt>
      <trkpt lat="48.25281" lon="-3.55919">
        <ele>84.6</ele>
        <time>2021-08-10T12:46:15Z</time>
      </trkpt>
      <trkpt lat="48.25279" lon="-3.55923">
        <ele>84.6</ele>
        <time>2021-08-10T12:46:16Z</time>
      </trkpt>
      <trkpt lat="48.25278" lon="-3.55927">
        <ele>84.6</ele>
        <time>2021-08-10T12:46:17Z</time>
      </trkpt>
      <trkpt lat="48.25276" lon="-3.55934">
        <ele>84.6</ele>
        <time>2021-08-10T12:46:19Z</time>
      </trkpt>
      <trkpt lat="48.25275" lon="-3.55937">
        <ele>84.6</ele>
        <time>2021-08-10T12:46:20Z</time>
      </trkpt>
      <trkpt lat="48.25274" lon="-3.5594">
        <ele>84.8</ele>
        <time>2021-08-10T12:46:21Z</time>
      </trkpt>
      <trkpt lat="48.25272" lon="-3.55943">
        <ele>84.8</ele>
        <time>2021-08-10T12:46:22Z</time>
      </trkpt>
      <trkpt lat="48.25271" lon="-3.55946">
        <ele>85</ele>
        <time>2021-08-10T12:46:23Z</time>
      </trkpt>
      <trkpt lat="48.25269" lon="-3.55949">
        <ele>85.4</ele>
        <time>2021-08-10T12:46:24Z</time>
      </trkpt>
      <trkpt lat="48.25267" lon="-3.55951">
        <ele>85.8</ele>
        <time>2021-08-10T12:46:25Z</time>
      </trkpt>
      <trkpt lat="48.25265" lon="-3.55955">
        <ele>86.2</ele>
        <time>2021-08-10T12:46:26Z</time>
      </trkpt>
      <trkpt lat="48.25263" lon="-3.55959">
        <ele>86.4</ele>
        <time>2021-08-10T12:46:27Z</time>
      </trkpt>
      <trkpt lat="48.2526" lon="-3.55965">
        <ele>86.6</ele>
        <time>2021-08-10T12:46:28Z</time>
      </trkpt>
      <trkpt lat="48.25257" lon="-3.55971">
        <ele>86.6</ele>
        <time>2021-08-10T12:46:29Z</time>
      </trkpt>
      <trkpt lat="48.25253" lon="-3.55979">
        <ele>86.6</ele>
        <time>2021-08-10T12:46:30Z</time>
      </trkpt>
      <trkpt lat="48.2525" lon="-3.55987">
        <ele>86.6</ele>
        <time>2021-08-10T12:46:31Z</time>
      </trkpt>
      <trkpt lat="48.25244" lon="-3.56003">
        <ele>86.6</ele>
        <time>2021-08-10T12:46:33Z</time>
      </trkpt>
      <trkpt lat="48.25238" lon="-3.56018">
        <ele>86.6</ele>
        <time>2021-08-10T12:46:35Z</time>
      </trkpt>
      <trkpt lat="48.25232" lon="-3.56032">
        <ele>85.4</ele>
        <time>2021-08-10T12:46:37Z</time>
      </trkpt>
      <trkpt lat="48.25229" lon="-3.56039">
        <ele>84.8</ele>
        <time>2021-08-10T12:46:38Z</time>
      </trkpt>
      <trkpt lat="48.25226" lon="-3.56045">
        <ele>84.6</ele>
        <time>2021-08-10T12:46:39Z</time>
      </trkpt>
      <trkpt lat="48.25223" lon="-3.56052">
        <ele>84.4</ele>
        <time>2021-08-10T12:46:40Z</time>
      </trkpt>
      <trkpt lat="48.2522" lon="-3.56058">
        <ele>84.2</ele>
        <time>2021-08-10T12:46:41Z</time>
      </trkpt>
      <trkpt lat="48.25218" lon="-3.56064">
        <ele>84.2</ele>
        <time>2021-08-10T12:46:42Z</time>
      </trkpt>
      <trkpt lat="48.25213" lon="-3.56075">
        <ele>84.2</ele>
        <time>2021-08-10T12:46:44Z</time>
      </trkpt>
      <trkpt lat="48.25208" lon="-3.56086">
        <ele>84.2</ele>
        <time>2021-08-10T12:46:46Z</time>
      </trkpt>
      <trkpt lat="48.25206" lon="-3.56092">
        <ele>84.2</ele>
        <time>2021-08-10T12:46:47Z</time>
      </trkpt>
      <trkpt lat="48.25204" lon="-3.56098">
        <ele>84.2</ele>
        <time>2021-08-10T12:46:48Z</time>
      </trkpt>
      <trkpt lat="48.25201" lon="-3.56103">
        <ele>84.2</ele>
        <time>2021-08-10T12:46:49Z</time>
      </trkpt>
      <trkpt lat="48.25195" lon="-3.56115">
        <ele>84.2</ele>
        <time>2021-08-10T12:46:51Z</time>
      </trkpt>
      <trkpt lat="48.2519" lon="-3.56128">
        <ele>84.2</ele>
        <time>2021-08-10T12:46:53Z</time>
      </trkpt>
      <trkpt lat="48.25187" lon="-3.56135">
        <ele>84.2</ele>
        <time>2021-08-10T12:46:54Z</time>
      </trkpt>
      <trkpt lat="48.25185" lon="-3.56141">
        <ele>84.2</ele>
        <time>2021-08-10T12:46:55Z</time>
      </trkpt>
      <trkpt lat="48.25182" lon="-3.56148">
        <ele>84.2</ele>
        <time>2021-08-10T12:46:56Z</time>
      </trkpt>
      <trkpt lat="48.25179" lon="-3.56154">
        <ele>84.2</ele>
        <time>2021-08-10T12:46:57Z</time>
      </trkpt>
      <trkpt lat="48.25176" lon="-3.56161">
        <ele>84.2</ele>
        <time>2021-08-10T12:46:58Z</time>
      </trkpt>
      <trkpt lat="48.25171" lon="-3.56174">
        <ele>84.2</ele>
        <time>2021-08-10T12:47:00Z</time>
      </trkpt>
      <trkpt lat="48.25165" lon="-3.56186">
        <ele>84.2</ele>
        <time>2021-08-10T12:47:02Z</time>
      </trkpt>
      <trkpt lat="48.25163" lon="-3.56193">
        <ele>84.2</ele>
        <time>2021-08-10T12:47:03Z</time>
      </trkpt>
      <trkpt lat="48.2516" lon="-3.56199">
        <ele>84.2</ele>
        <time>2021-08-10T12:47:04Z</time>
      </trkpt>
      <trkpt lat="48.25157" lon="-3.56205">
        <ele>84.4</ele>
        <time>2021-08-10T12:47:05Z</time>
      </trkpt>
      <trkpt lat="48.25152" lon="-3.56218">
        <ele>84.2</ele>
        <time>2021-08-10T12:47:07Z</time>
      </trkpt>
      <trkpt lat="48.25146" lon="-3.56231">
        <ele>84</ele>
        <time>2021-08-10T12:47:09Z</time>
      </trkpt>
      <trkpt lat="48.25143" lon="-3.56237">
        <ele>84.2</ele>
        <time>2021-08-10T12:47:10Z</time>
      </trkpt>
      <trkpt lat="48.2514" lon="-3.56243">
        <ele>84.2</ele>
        <time>2021-08-10T12:47:11Z</time>
      </trkpt>
      <trkpt lat="48.25137" lon="-3.56249">
        <ele>84.2</ele>
        <time>2021-08-10T12:47:12Z</time>
      </trkpt>
      <trkpt lat="48.25134" lon="-3.56255">
        <ele>84.2</ele>
        <time>2021-08-10T12:47:13Z</time>
      </trkpt>
      <trkpt lat="48.25131" lon="-3.56261">
        <ele>84.2</ele>
        <time>2021-08-10T12:47:14Z</time>
      </trkpt>
      <trkpt lat="48.25126" lon="-3.56275">
        <ele>84.2</ele>
        <time>2021-08-10T12:47:16Z</time>
      </trkpt>
      <trkpt lat="48.2512" lon="-3.56288">
        <ele>84.2</ele>
        <time>2021-08-10T12:47:18Z</time>
      </trkpt>
      <trkpt lat="48.25117" lon="-3.56295">
        <ele>84.2</ele>
        <time>2021-08-10T12:47:19Z</time>
      </trkpt>
      <trkpt lat="48.25115" lon="-3.56303">
        <ele>84.2</ele>
        <time>2021-08-10T12:47:20Z</time>
      </trkpt>
      <trkpt lat="48.25113" lon="-3.5631">
        <ele>84.2</ele>
        <time>2021-08-10T12:47:21Z</time>
      </trkpt>
      <trkpt lat="48.25112" lon="-3.56318">
        <ele>84.2</ele>
        <time>2021-08-10T12:47:22Z</time>
      </trkpt>
      <trkpt lat="48.2511" lon="-3.56325">
        <ele>84.2</ele>
        <time>2021-08-10T12:47:23Z</time>
      </trkpt>
      <trkpt lat="48.25109" lon="-3.56341">
        <ele>83.8</ele>
        <time>2021-08-10T12:47:25Z</time>
      </trkpt>
      <trkpt lat="48.25108" lon="-3.56357">
        <ele>83.6</ele>
        <time>2021-08-10T12:47:27Z</time>
      </trkpt>
      <trkpt lat="48.25108" lon="-3.56365">
        <ele>83.6</ele>
        <time>2021-08-10T12:47:28Z</time>
      </trkpt>
      <trkpt lat="48.25108" lon="-3.56373">
        <ele>83.6</ele>
        <time>2021-08-10T12:47:29Z</time>
      </trkpt>
      <trkpt lat="48.25108" lon="-3.56381">
        <ele>83.6</ele>
        <time>2021-08-10T12:47:30Z</time>
      </trkpt>
      <trkpt lat="48.25109" lon="-3.56396">
        <ele>83.6</ele>
        <time>2021-08-10T12:47:32Z</time>
      </trkpt>
      <trkpt lat="48.25109" lon="-3.56412">
        <ele>83.6</ele>
        <time>2021-08-10T12:47:34Z</time>
      </trkpt>
      <trkpt lat="48.2511" lon="-3.5642">
        <ele>83.6</ele>
        <time>2021-08-10T12:47:35Z</time>
      </trkpt>
      <trkpt lat="48.2511" lon="-3.56427">
        <ele>83.6</ele>
        <time>2021-08-10T12:47:36Z</time>
      </trkpt>
      <trkpt lat="48.2511" lon="-3.56435">
        <ele>83.6</ele>
        <time>2021-08-10T12:47:37Z</time>
      </trkpt>
      <trkpt lat="48.2511" lon="-3.56451">
        <ele>83.6</ele>
        <time>2021-08-10T12:47:39Z</time>
      </trkpt>
      <trkpt lat="48.25111" lon="-3.56466">
        <ele>83.6</ele>
        <time>2021-08-10T12:47:41Z</time>
      </trkpt>
      <trkpt lat="48.25111" lon="-3.56473">
        <ele>83.8</ele>
        <time>2021-08-10T12:47:42Z</time>
      </trkpt>
      <trkpt lat="48.25112" lon="-3.56481">
        <ele>83.8</ele>
        <time>2021-08-10T12:47:43Z</time>
      </trkpt>
      <trkpt lat="48.25112" lon="-3.56489">
        <ele>83.8</ele>
        <time>2021-08-10T12:47:44Z</time>
      </trkpt>
      <trkpt lat="48.25112" lon="-3.56504">
        <ele>83.8</ele>
        <time>2021-08-10T12:47:46Z</time>
      </trkpt>
      <trkpt lat="48.25112" lon="-3.56512">
        <ele>83.8</ele>
        <time>2021-08-10T12:47:47Z</time>
      </trkpt>
      <trkpt lat="48.25112" lon="-3.56519">
        <ele>83.6</ele>
        <time>2021-08-10T12:47:48Z</time>
      </trkpt>
      <trkpt lat="48.25112" lon="-3.56527">
        <ele>83.6</ele>
        <time>2021-08-10T12:47:49Z</time>
      </trkpt>
      <trkpt lat="48.25113" lon="-3.56535">
        <ele>83.6</ele>
        <time>2021-08-10T12:47:50Z</time>
      </trkpt>
      <trkpt lat="48.25113" lon="-3.56542">
        <ele>83.6</ele>
        <time>2021-08-10T12:47:51Z</time>
      </trkpt>
      <trkpt lat="48.25114" lon="-3.56557">
        <ele>83.6</ele>
        <time>2021-08-10T12:47:53Z</time>
      </trkpt>
      <trkpt lat="48.25114" lon="-3.56572">
        <ele>83.6</ele>
        <time>2021-08-10T12:47:55Z</time>
      </trkpt>
      <trkpt lat="48.25114" lon="-3.5658">
        <ele>83.4</ele>
        <time>2021-08-10T12:47:56Z</time>
      </trkpt>
      <trkpt lat="48.25114" lon="-3.56587">
        <ele>83.4</ele>
        <time>2021-08-10T12:47:57Z</time>
      </trkpt>
      <trkpt lat="48.25114" lon="-3.56595">
        <ele>83.4</ele>
        <time>2021-08-10T12:47:58Z</time>
      </trkpt>
      <trkpt lat="48.25114" lon="-3.56602">
        <ele>83.2</ele>
        <time>2021-08-10T12:47:59Z</time>
      </trkpt>
      <trkpt lat="48.25115" lon="-3.5661">
        <ele>83.2</ele>
        <time>2021-08-10T12:48:00Z</time>
      </trkpt>
      <trkpt lat="48.25115" lon="-3.56626">
        <ele>83</ele>
        <time>2021-08-10T12:48:02Z</time>
      </trkpt>
      <trkpt lat="48.25116" lon="-3.56642">
        <ele>82.8</ele>
        <time>2021-08-10T12:48:04Z</time>
      </trkpt>
      <trkpt lat="48.25116" lon="-3.5665">
        <ele>82.8</ele>
        <time>2021-08-10T12:48:05Z</time>
      </trkpt>
      <trkpt lat="48.25116" lon="-3.56658">
        <ele>82.8</ele>
        <time>2021-08-10T12:48:06Z</time>
      </trkpt>
      <trkpt lat="48.25116" lon="-3.56666">
        <ele>82.6</ele>
        <time>2021-08-10T12:48:07Z</time>
      </trkpt>
      <trkpt lat="48.25117" lon="-3.56682">
        <ele>82.6</ele>
        <time>2021-08-10T12:48:09Z</time>
      </trkpt>
      <trkpt lat="48.25118" lon="-3.56699">
        <ele>82.4</ele>
        <time>2021-08-10T12:48:11Z</time>
      </trkpt>
      <trkpt lat="48.25119" lon="-3.56709">
        <ele>82.2</ele>
        <time>2021-08-10T12:48:12Z</time>
      </trkpt>
      <trkpt lat="48.2512" lon="-3.56718">
        <ele>82.2</ele>
        <time>2021-08-10T12:48:13Z</time>
      </trkpt>
      <trkpt lat="48.2512" lon="-3.56728">
        <ele>82.2</ele>
        <time>2021-08-10T12:48:14Z</time>
      </trkpt>
      <trkpt lat="48.2512" lon="-3.56747">
        <ele>82</ele>
        <time>2021-08-10T12:48:16Z</time>
      </trkpt>
      <trkpt lat="48.25119" lon="-3.56756">
        <ele>82</ele>
        <time>2021-08-10T12:48:17Z</time>
      </trkpt>
      <trkpt lat="48.25119" lon="-3.56764">
        <ele>81.8</ele>
        <time>2021-08-10T12:48:18Z</time>
      </trkpt>
      <trkpt lat="48.25118" lon="-3.56771">
        <ele>81.8</ele>
        <time>2021-08-10T12:48:19Z</time>
      </trkpt>
      <trkpt lat="48.25117" lon="-3.56777">
        <ele>81.8</ele>
        <time>2021-08-10T12:48:20Z</time>
      </trkpt>
      <trkpt lat="48.25116" lon="-3.56784">
        <ele>81.8</ele>
        <time>2021-08-10T12:48:21Z</time>
      </trkpt>
      <trkpt lat="48.25113" lon="-3.56798">
        <ele>81.6</ele>
        <time>2021-08-10T12:48:23Z</time>
      </trkpt>
      <trkpt lat="48.25108" lon="-3.56813">
        <ele>81.4</ele>
        <time>2021-08-10T12:48:25Z</time>
      </trkpt>
      <trkpt lat="48.25105" lon="-3.5682">
        <ele>81.4</ele>
        <time>2021-08-10T12:48:26Z</time>
      </trkpt>
      <trkpt lat="48.25101" lon="-3.56827">
        <ele>81.4</ele>
        <time>2021-08-10T12:48:27Z</time>
      </trkpt>
      <trkpt lat="48.25098" lon="-3.56833">
        <ele>81.4</ele>
        <time>2021-08-10T12:48:28Z</time>
      </trkpt>
      <trkpt lat="48.25094" lon="-3.5684">
        <ele>81.4</ele>
        <time>2021-08-10T12:48:29Z</time>
      </trkpt>
      <trkpt lat="48.25091" lon="-3.56846">
        <ele>81.4</ele>
        <time>2021-08-10T12:48:30Z</time>
      </trkpt>
      <trkpt lat="48.25087" lon="-3.56852">
        <ele>81.4</ele>
        <time>2021-08-10T12:48:31Z</time>
      </trkpt>
      <trkpt lat="48.25083" lon="-3.56858">
        <ele>81.4</ele>
        <time>2021-08-10T12:48:32Z</time>
      </trkpt>
      <trkpt lat="48.25075" lon="-3.56869">
        <ele>81.4</ele>
        <time>2021-08-10T12:48:34Z</time>
      </trkpt>
      <trkpt lat="48.25071" lon="-3.56875">
        <ele>81.4</ele>
        <time>2021-08-10T12:48:35Z</time>
      </trkpt>
      <trkpt lat="48.25066" lon="-3.5688">
        <ele>81.4</ele>
        <time>2021-08-10T12:48:36Z</time>
      </trkpt>
      <trkpt lat="48.25062" lon="-3.56885">
        <ele>81.4</ele>
        <time>2021-08-10T12:48:37Z</time>
      </trkpt>
      <trkpt lat="48.25058" lon="-3.5689">
        <ele>81.4</ele>
        <time>2021-08-10T12:48:38Z</time>
      </trkpt>
      <trkpt lat="48.25053" lon="-3.56895">
        <ele>81.4</ele>
        <time>2021-08-10T12:48:39Z</time>
      </trkpt>
      <trkpt lat="48.25045" lon="-3.56904">
        <ele>81.4</ele>
        <time>2021-08-10T12:48:41Z</time>
      </trkpt>
      <trkpt lat="48.25036" lon="-3.56914">
        <ele>81.2</ele>
        <time>2021-08-10T12:48:43Z</time>
      </trkpt>
      <trkpt lat="48.25032" lon="-3.56919">
        <ele>81.2</ele>
        <time>2021-08-10T12:48:44Z</time>
      </trkpt>
      <trkpt lat="48.25028" lon="-3.56923">
        <ele>81.2</ele>
        <time>2021-08-10T12:48:45Z</time>
      </trkpt>
      <trkpt lat="48.25023" lon="-3.56928">
        <ele>81.2</ele>
        <time>2021-08-10T12:48:46Z</time>
      </trkpt>
      <trkpt lat="48.25019" lon="-3.56933">
        <ele>81.2</ele>
        <time>2021-08-10T12:48:47Z</time>
      </trkpt>
      <trkpt lat="48.25016" lon="-3.56937">
        <ele>81.2</ele>
        <time>2021-08-10T12:48:48Z</time>
      </trkpt>
      <trkpt lat="48.25008" lon="-3.56946">
        <ele>81.2</ele>
        <time>2021-08-10T12:48:50Z</time>
      </trkpt>
      <trkpt lat="48.25" lon="-3.56955">
        <ele>81</ele>
        <time>2021-08-10T12:48:52Z</time>
      </trkpt>
      <trkpt lat="48.24996" lon="-3.5696">
        <ele>81</ele>
        <time>2021-08-10T12:48:53Z</time>
      </trkpt>
      <trkpt lat="48.24992" lon="-3.56964">
        <ele>81</ele>
        <time>2021-08-10T12:48:54Z</time>
      </trkpt>
      <trkpt lat="48.24988" lon="-3.56968">
        <ele>81</ele>
        <time>2021-08-10T12:48:55Z</time>
      </trkpt>
      <trkpt lat="48.24984" lon="-3.56973">
        <ele>81</ele>
        <time>2021-08-10T12:48:56Z</time>
      </trkpt>
      <trkpt lat="48.2498" lon="-3.56977">
        <ele>81</ele>
        <time>2021-08-10T12:48:57Z</time>
      </trkpt>
      <trkpt lat="48.24971" lon="-3.56986">
        <ele>81</ele>
        <time>2021-08-10T12:48:59Z</time>
      </trkpt>
      <trkpt lat="48.24962" lon="-3.56994">
        <ele>81.2</ele>
        <time>2021-08-10T12:49:01Z</time>
      </trkpt>
      <trkpt lat="48.24958" lon="-3.56998">
        <ele>81</ele>
        <time>2021-08-10T12:49:02Z</time>
      </trkpt>
      <trkpt lat="48.24953" lon="-3.57002">
        <ele>81</ele>
        <time>2021-08-10T12:49:03Z</time>
      </trkpt>
      <trkpt lat="48.24949" lon="-3.57007">
        <ele>81</ele>
        <time>2021-08-10T12:49:04Z</time>
      </trkpt>
      <trkpt lat="48.24941" lon="-3.57015">
        <ele>81</ele>
        <time>2021-08-10T12:49:06Z</time>
      </trkpt>
      <trkpt lat="48.24933" lon="-3.57023">
        <ele>81</ele>
        <time>2021-08-10T12:49:08Z</time>
      </trkpt>
      <trkpt lat="48.24925" lon="-3.57033">
        <ele>81</ele>
        <time>2021-08-10T12:49:10Z</time>
      </trkpt>
      <trkpt lat="48.24921" lon="-3.57038">
        <ele>81</ele>
        <time>2021-08-10T12:49:11Z</time>
      </trkpt>
      <trkpt lat="48.24918" lon="-3.57044">
        <ele>81</ele>
        <time>2021-08-10T12:49:12Z</time>
      </trkpt>
      <trkpt lat="48.24915" lon="-3.5705">
        <ele>81</ele>
        <time>2021-08-10T12:49:13Z</time>
      </trkpt>
      <trkpt lat="48.24912" lon="-3.57056">
        <ele>81</ele>
        <time>2021-08-10T12:49:14Z</time>
      </trkpt>
      <trkpt lat="48.2491" lon="-3.57063">
        <ele>81</ele>
        <time>2021-08-10T12:49:15Z</time>
      </trkpt>
      <trkpt lat="48.24905" lon="-3.57077">
        <ele>81</ele>
        <time>2021-08-10T12:49:17Z</time>
      </trkpt>
      <trkpt lat="48.24902" lon="-3.57092">
        <ele>81</ele>
        <time>2021-08-10T12:49:19Z</time>
      </trkpt>
      <trkpt lat="48.24901" lon="-3.571">
        <ele>81</ele>
        <time>2021-08-10T12:49:20Z</time>
      </trkpt>
      <trkpt lat="48.249" lon="-3.57107">
        <ele>81</ele>
        <time>2021-08-10T12:49:21Z</time>
      </trkpt>
      <trkpt lat="48.249" lon="-3.57115">
        <ele>81</ele>
        <time>2021-08-10T12:49:22Z</time>
      </trkpt>
      <trkpt lat="48.24898" lon="-3.5713">
        <ele>80.8</ele>
        <time>2021-08-10T12:49:24Z</time>
      </trkpt>
      <trkpt lat="48.24897" lon="-3.57144">
        <ele>80.8</ele>
        <time>2021-08-10T12:49:26Z</time>
      </trkpt>
      <trkpt lat="48.24897" lon="-3.5715">
        <ele>81</ele>
        <time>2021-08-10T12:49:27Z</time>
      </trkpt>
      <trkpt lat="48.24897" lon="-3.57157">
        <ele>81</ele>
        <time>2021-08-10T12:49:28Z</time>
      </trkpt>
      <trkpt lat="48.24897" lon="-3.57163">
        <ele>80.8</ele>
        <time>2021-08-10T12:49:29Z</time>
      </trkpt>
      <trkpt lat="48.24896" lon="-3.57177">
        <ele>80.8</ele>
        <time>2021-08-10T12:49:31Z</time>
      </trkpt>
      <trkpt lat="48.24895" lon="-3.57191">
        <ele>80.8</ele>
        <time>2021-08-10T12:49:33Z</time>
      </trkpt>
      <trkpt lat="48.24895" lon="-3.57199">
        <ele>80.8</ele>
        <time>2021-08-10T12:49:34Z</time>
      </trkpt>
      <trkpt lat="48.24894" lon="-3.57206">
        <ele>80.8</ele>
        <time>2021-08-10T12:49:35Z</time>
      </trkpt>
      <trkpt lat="48.24894" lon="-3.57212">
        <ele>80.8</ele>
        <time>2021-08-10T12:49:36Z</time>
      </trkpt>
      <trkpt lat="48.24893" lon="-3.57226">
        <ele>80.8</ele>
        <time>2021-08-10T12:49:38Z</time>
      </trkpt>
      <trkpt lat="48.24891" lon="-3.57238">
        <ele>80.8</ele>
        <time>2021-08-10T12:49:40Z</time>
      </trkpt>
      <trkpt lat="48.24891" lon="-3.57244">
        <ele>80.8</ele>
        <time>2021-08-10T12:49:41Z</time>
      </trkpt>
      <trkpt lat="48.2489" lon="-3.5725">
        <ele>80.8</ele>
        <time>2021-08-10T12:49:42Z</time>
      </trkpt>
      <trkpt lat="48.24889" lon="-3.57257">
        <ele>80.8</ele>
        <time>2021-08-10T12:49:43Z</time>
      </trkpt>
      <trkpt lat="48.24889" lon="-3.57264">
        <ele>80.8</ele>
        <time>2021-08-10T12:49:44Z</time>
      </trkpt>
      <trkpt lat="48.24888" lon="-3.57271">
        <ele>80.6</ele>
        <time>2021-08-10T12:49:45Z</time>
      </trkpt>
      <trkpt lat="48.24887" lon="-3.57286">
        <ele>80.6</ele>
        <time>2021-08-10T12:49:47Z</time>
      </trkpt>
      <trkpt lat="48.24886" lon="-3.57293">
        <ele>80.6</ele>
        <time>2021-08-10T12:49:48Z</time>
      </trkpt>
      <trkpt lat="48.24885" lon="-3.57302">
        <ele>80.6</ele>
        <time>2021-08-10T12:49:49Z</time>
      </trkpt>
      <trkpt lat="48.24884" lon="-3.5731">
        <ele>80.6</ele>
        <time>2021-08-10T12:49:50Z</time>
      </trkpt>
      <trkpt lat="48.24883" lon="-3.57318">
        <ele>80.6</ele>
        <time>2021-08-10T12:49:51Z</time>
      </trkpt>
      <trkpt lat="48.24883" lon="-3.57327">
        <ele>80.4</ele>
        <time>2021-08-10T12:49:52Z</time>
      </trkpt>
      <trkpt lat="48.24882" lon="-3.57336">
        <ele>80.4</ele>
        <time>2021-08-10T12:49:53Z</time>
      </trkpt>
      <trkpt lat="48.24881" lon="-3.57344">
        <ele>80.4</ele>
        <time>2021-08-10T12:49:54Z</time>
      </trkpt>
      <trkpt lat="48.2488" lon="-3.57353">
        <ele>80.4</ele>
        <time>2021-08-10T12:49:55Z</time>
      </trkpt>
      <trkpt lat="48.24879" lon="-3.57361">
        <ele>80.4</ele>
        <time>2021-08-10T12:49:56Z</time>
      </trkpt>
      <trkpt lat="48.24878" lon="-3.5737">
        <ele>80.4</ele>
        <time>2021-08-10T12:49:57Z</time>
      </trkpt>
      <trkpt lat="48.24878" lon="-3.57378">
        <ele>80.2</ele>
        <time>2021-08-10T12:49:58Z</time>
      </trkpt>
      <trkpt lat="48.24877" lon="-3.57386">
        <ele>80.2</ele>
        <time>2021-08-10T12:49:59Z</time>
      </trkpt>
      <trkpt lat="48.24876" lon="-3.57395">
        <ele>80.2</ele>
        <time>2021-08-10T12:50:00Z</time>
      </trkpt>
      <trkpt lat="48.24875" lon="-3.57403">
        <ele>80.2</ele>
        <time>2021-08-10T12:50:01Z</time>
      </trkpt>
      <trkpt lat="48.24874" lon="-3.57421">
        <ele>80.2</ele>
        <time>2021-08-10T12:50:03Z</time>
      </trkpt>
      <trkpt lat="48.24873" lon="-3.5743">
        <ele>80</ele>
        <time>2021-08-10T12:50:04Z</time>
      </trkpt>
      <trkpt lat="48.24872" lon="-3.57439">
        <ele>80</ele>
        <time>2021-08-10T12:50:05Z</time>
      </trkpt>
      <trkpt lat="48.24872" lon="-3.57448">
        <ele>80</ele>
        <time>2021-08-10T12:50:06Z</time>
      </trkpt>
      <trkpt lat="48.24871" lon="-3.57457">
        <ele>80</ele>
        <time>2021-08-10T12:50:07Z</time>
      </trkpt>
      <trkpt lat="48.2487" lon="-3.57467">
        <ele>79.8</ele>
        <time>2021-08-10T12:50:08Z</time>
      </trkpt>
      <trkpt lat="48.24869" lon="-3.57477">
        <ele>79.8</ele>
        <time>2021-08-10T12:50:09Z</time>
      </trkpt>
      <trkpt lat="48.24868" lon="-3.57488">
        <ele>79.8</ele>
        <time>2021-08-10T12:50:10Z</time>
      </trkpt>
      <trkpt lat="48.24867" lon="-3.5751">
        <ele>79.8</ele>
        <time>2021-08-10T12:50:12Z</time>
      </trkpt>
      <trkpt lat="48.24866" lon="-3.57521">
        <ele>79.6</ele>
        <time>2021-08-10T12:50:13Z</time>
      </trkpt>
      <trkpt lat="48.24865" lon="-3.57532">
        <ele>79.6</ele>
        <time>2021-08-10T12:50:14Z</time>
      </trkpt>
      <trkpt lat="48.24864" lon="-3.57543">
        <ele>79.2</ele>
        <time>2021-08-10T12:50:15Z</time>
      </trkpt>
      <trkpt lat="48.24864" lon="-3.57554">
        <ele>78.6</ele>
        <time>2021-08-10T12:50:16Z</time>
      </trkpt>
      <trkpt lat="48.24863" lon="-3.57564">
        <ele>78</ele>
        <time>2021-08-10T12:50:17Z</time>
      </trkpt>
      <trkpt lat="48.24861" lon="-3.57585">
        <ele>77.2</ele>
        <time>2021-08-10T12:50:19Z</time>
      </trkpt>
      <trkpt lat="48.2486" lon="-3.57595">
        <ele>77.2</ele>
        <time>2021-08-10T12:50:20Z</time>
      </trkpt>
      <trkpt lat="48.24859" lon="-3.57605">
        <ele>77</ele>
        <time>2021-08-10T12:50:21Z</time>
      </trkpt>
      <trkpt lat="48.24858" lon="-3.57614">
        <ele>77</ele>
        <time>2021-08-10T12:50:22Z</time>
      </trkpt>
      <trkpt lat="48.24856" lon="-3.57634">
        <ele>77</ele>
        <time>2021-08-10T12:50:24Z</time>
      </trkpt>
      <trkpt lat="48.24855" lon="-3.57653">
        <ele>77</ele>
        <time>2021-08-10T12:50:26Z</time>
      </trkpt>
      <trkpt lat="48.24854" lon="-3.57662">
        <ele>77</ele>
        <time>2021-08-10T12:50:27Z</time>
      </trkpt>
      <trkpt lat="48.24853" lon="-3.57672">
        <ele>77</ele>
        <time>2021-08-10T12:50:28Z</time>
      </trkpt>
      <trkpt lat="48.24852" lon="-3.57681">
        <ele>77</ele>
        <time>2021-08-10T12:50:29Z</time>
      </trkpt>
      <trkpt lat="48.24852" lon="-3.57691">
        <ele>77</ele>
        <time>2021-08-10T12:50:30Z</time>
      </trkpt>
      <trkpt lat="48.24851" lon="-3.577">
        <ele>77</ele>
        <time>2021-08-10T12:50:31Z</time>
      </trkpt>
      <trkpt lat="48.2485" lon="-3.57719">
        <ele>77</ele>
        <time>2021-08-10T12:50:33Z</time>
      </trkpt>
      <trkpt lat="48.24849" lon="-3.57729">
        <ele>77</ele>
        <time>2021-08-10T12:50:34Z</time>
      </trkpt>
      <trkpt lat="48.24849" lon="-3.57738">
        <ele>77</ele>
        <time>2021-08-10T12:50:35Z</time>
      </trkpt>
      <trkpt lat="48.24848" lon="-3.57747">
        <ele>77</ele>
        <time>2021-08-10T12:50:36Z</time>
      </trkpt>
      <trkpt lat="48.24847" lon="-3.57756">
        <ele>77</ele>
        <time>2021-08-10T12:50:37Z</time>
      </trkpt>
      <trkpt lat="48.24846" lon="-3.57765">
        <ele>76.8</ele>
        <time>2021-08-10T12:50:38Z</time>
      </trkpt>
      <trkpt lat="48.24845" lon="-3.57783">
        <ele>76.8</ele>
        <time>2021-08-10T12:50:40Z</time>
      </trkpt>
      <trkpt lat="48.24844" lon="-3.57791">
        <ele>76.8</ele>
        <time>2021-08-10T12:50:41Z</time>
      </trkpt>
      <trkpt lat="48.24843" lon="-3.578">
        <ele>76.8</ele>
        <time>2021-08-10T12:50:42Z</time>
      </trkpt>
      <trkpt lat="48.24842" lon="-3.57809">
        <ele>76.8</ele>
        <time>2021-08-10T12:50:43Z</time>
      </trkpt>
      <trkpt lat="48.24841" lon="-3.57817">
        <ele>76.8</ele>
        <time>2021-08-10T12:50:44Z</time>
      </trkpt>
      <trkpt lat="48.24841" lon="-3.57826">
        <ele>76.8</ele>
        <time>2021-08-10T12:50:45Z</time>
      </trkpt>
      <trkpt lat="48.24839" lon="-3.57842">
        <ele>76.8</ele>
        <time>2021-08-10T12:50:47Z</time>
      </trkpt>
      <trkpt lat="48.24838" lon="-3.5785">
        <ele>76.8</ele>
        <time>2021-08-10T12:50:48Z</time>
      </trkpt>
      <trkpt lat="48.24838" lon="-3.57859">
        <ele>76.8</ele>
        <time>2021-08-10T12:50:49Z</time>
      </trkpt>
      <trkpt lat="48.24837" lon="-3.57866">
        <ele>76.8</ele>
        <time>2021-08-10T12:50:50Z</time>
      </trkpt>
      <trkpt lat="48.24836" lon="-3.57874">
        <ele>76.8</ele>
        <time>2021-08-10T12:50:51Z</time>
      </trkpt>
      <trkpt lat="48.24836" lon="-3.57882">
        <ele>76.8</ele>
        <time>2021-08-10T12:50:52Z</time>
      </trkpt>
      <trkpt lat="48.24834" lon="-3.57899">
        <ele>77</ele>
        <time>2021-08-10T12:50:54Z</time>
      </trkpt>
      <trkpt lat="48.24832" lon="-3.57916">
        <ele>77</ele>
        <time>2021-08-10T12:50:56Z</time>
      </trkpt>
      <trkpt lat="48.24831" lon="-3.57925">
        <ele>77</ele>
        <time>2021-08-10T12:50:57Z</time>
      </trkpt>
      <trkpt lat="48.2483" lon="-3.57933">
        <ele>77</ele>
        <time>2021-08-10T12:50:58Z</time>
      </trkpt>
      <trkpt lat="48.2483" lon="-3.57941">
        <ele>77</ele>
        <time>2021-08-10T12:50:59Z</time>
      </trkpt>
      <trkpt lat="48.24828" lon="-3.57958">
        <ele>77.2</ele>
        <time>2021-08-10T12:51:01Z</time>
      </trkpt>
      <trkpt lat="48.24827" lon="-3.57966">
        <ele>77.2</ele>
        <time>2021-08-10T12:51:02Z</time>
      </trkpt>
      <trkpt lat="48.24827" lon="-3.57974">
        <ele>77.2</ele>
        <time>2021-08-10T12:51:03Z</time>
      </trkpt>
      <trkpt lat="48.24826" lon="-3.57982">
        <ele>77.2</ele>
        <time>2021-08-10T12:51:04Z</time>
      </trkpt>
      <trkpt lat="48.24825" lon="-3.57996">
        <ele>77.2</ele>
        <time>2021-08-10T12:51:06Z</time>
      </trkpt>
      <trkpt lat="48.24824" lon="-3.58007">
        <ele>77.2</ele>
        <time>2021-08-10T12:51:08Z</time>
      </trkpt>
      <trkpt lat="48.24824" lon="-3.58012">
        <ele>77.4</ele>
        <time>2021-08-10T12:51:09Z</time>
      </trkpt>
      <trkpt lat="48.24824" lon="-3.58017">
        <ele>77.4</ele>
        <time>2021-08-10T12:51:10Z</time>
      </trkpt>
      <trkpt lat="48.24824" lon="-3.5802">
        <ele>77.4</ele>
        <time>2021-08-10T12:51:11Z</time>
      </trkpt>
      <trkpt lat="48.24825" lon="-3.58027">
        <ele>77.4</ele>
        <time>2021-08-10T12:51:13Z</time>
      </trkpt>
      <trkpt lat="48.24825" lon="-3.5803">
        <ele>77.8</ele>
        <time>2021-08-10T12:51:14Z</time>
      </trkpt>
      <trkpt lat="48.24824" lon="-3.58033">
        <ele>78.2</ele>
        <time>2021-08-10T12:51:15Z</time>
      </trkpt>
      <trkpt lat="48.24824" lon="-3.58035">
        <ele>78.6</ele>
        <time>2021-08-10T12:51:16Z</time>
      </trkpt>
      <trkpt lat="48.24823" lon="-3.58036">
        <ele>79.2</ele>
        <time>2021-08-10T12:51:17Z</time>
      </trkpt>
      <trkpt lat="48.24823" lon="-3.58038">
        <ele>79.6</ele>
        <time>2021-08-10T12:51:18Z</time>
      </trkpt>
      <trkpt lat="48.24823" lon="-3.5804">
        <ele>80</ele>
        <time>2021-08-10T12:51:19Z</time>
      </trkpt>
      <trkpt lat="48.24823" lon="-3.58043">
        <ele>80.6</ele>
        <time>2021-08-10T12:51:20Z</time>
      </trkpt>
      <trkpt lat="48.24823" lon="-3.58046">
        <ele>81</ele>
        <time>2021-08-10T12:51:21Z</time>
      </trkpt>
      <trkpt lat="48.24823" lon="-3.5805">
        <ele>81.4</ele>
        <time>2021-08-10T12:51:22Z</time>
      </trkpt>
      <trkpt lat="48.24822" lon="-3.58055">
        <ele>81.6</ele>
        <time>2021-08-10T12:51:23Z</time>
      </trkpt>
      <trkpt lat="48.2482" lon="-3.58061">
        <ele>81.8</ele>
        <time>2021-08-10T12:51:24Z</time>
      </trkpt>
      <trkpt lat="48.24819" lon="-3.58067">
        <ele>81.8</ele>
        <time>2021-08-10T12:51:25Z</time>
      </trkpt>
      <trkpt lat="48.24819" lon="-3.58074">
        <ele>82</ele>
        <time>2021-08-10T12:51:26Z</time>
      </trkpt>
      <trkpt lat="48.24818" lon="-3.58083">
        <ele>82</ele>
        <time>2021-08-10T12:51:27Z</time>
      </trkpt>
      <trkpt lat="48.24817" lon="-3.58093">
        <ele>82</ele>
        <time>2021-08-10T12:51:28Z</time>
      </trkpt>
      <trkpt lat="48.24816" lon="-3.58103">
        <ele>82</ele>
        <time>2021-08-10T12:51:29Z</time>
      </trkpt>
      <trkpt lat="48.24815" lon="-3.58113">
        <ele>82</ele>
        <time>2021-08-10T12:51:30Z</time>
      </trkpt>
      <trkpt lat="48.24814" lon="-3.58123">
        <ele>82</ele>
        <time>2021-08-10T12:51:31Z</time>
      </trkpt>
      <trkpt lat="48.24813" lon="-3.58132">
        <ele>81.8</ele>
        <time>2021-08-10T12:51:32Z</time>
      </trkpt>
      <trkpt lat="48.24812" lon="-3.58141">
        <ele>81.4</ele>
        <time>2021-08-10T12:51:33Z</time>
      </trkpt>
      <trkpt lat="48.24811" lon="-3.5815">
        <ele>81.2</ele>
        <time>2021-08-10T12:51:34Z</time>
      </trkpt>
      <trkpt lat="48.24809" lon="-3.58158">
        <ele>79.6</ele>
        <time>2021-08-10T12:51:35Z</time>
      </trkpt>
      <trkpt lat="48.24807" lon="-3.58166">
        <ele>79</ele>
        <time>2021-08-10T12:51:36Z</time>
      </trkpt>
      <trkpt lat="48.24805" lon="-3.58174">
        <ele>78.6</ele>
        <time>2021-08-10T12:51:37Z</time>
      </trkpt>
      <trkpt lat="48.24803" lon="-3.58181">
        <ele>78.4</ele>
        <time>2021-08-10T12:51:38Z</time>
      </trkpt>
      <trkpt lat="48.24801" lon="-3.58188">
        <ele>78.2</ele>
        <time>2021-08-10T12:51:39Z</time>
      </trkpt>
      <trkpt lat="48.24798" lon="-3.58194">
        <ele>78.2</ele>
        <time>2021-08-10T12:51:40Z</time>
      </trkpt>
      <trkpt lat="48.24796" lon="-3.582">
        <ele>78.2</ele>
        <time>2021-08-10T12:51:41Z</time>
      </trkpt>
      <trkpt lat="48.24793" lon="-3.58206">
        <ele>78.2</ele>
        <time>2021-08-10T12:51:42Z</time>
      </trkpt>
      <trkpt lat="48.24791" lon="-3.58211">
        <ele>78.2</ele>
        <time>2021-08-10T12:51:43Z</time>
      </trkpt>
      <trkpt lat="48.24788" lon="-3.58216">
        <ele>78.2</ele>
        <time>2021-08-10T12:51:44Z</time>
      </trkpt>
      <trkpt lat="48.24786" lon="-3.58221">
        <ele>78.2</ele>
        <time>2021-08-10T12:51:45Z</time>
      </trkpt>
      <trkpt lat="48.24783" lon="-3.58226">
        <ele>78.2</ele>
        <time>2021-08-10T12:51:46Z</time>
      </trkpt>
      <trkpt lat="48.2478" lon="-3.5823">
        <ele>78.2</ele>
        <time>2021-08-10T12:51:47Z</time>
      </trkpt>
      <trkpt lat="48.24777" lon="-3.58234">
        <ele>78.4</ele>
        <time>2021-08-10T12:51:48Z</time>
      </trkpt>
      <trkpt lat="48.24774" lon="-3.58238">
        <ele>78.4</ele>
        <time>2021-08-10T12:51:49Z</time>
      </trkpt>
      <trkpt lat="48.24771" lon="-3.58241">
        <ele>78.6</ele>
        <time>2021-08-10T12:51:50Z</time>
      </trkpt>
      <trkpt lat="48.24768" lon="-3.58245">
        <ele>78.6</ele>
        <time>2021-08-10T12:51:51Z</time>
      </trkpt>
      <trkpt lat="48.24765" lon="-3.58247">
        <ele>78.6</ele>
        <time>2021-08-10T12:51:52Z</time>
      </trkpt>
      <trkpt lat="48.24762" lon="-3.5825">
        <ele>78.6</ele>
        <time>2021-08-10T12:51:53Z</time>
      </trkpt>
      <trkpt lat="48.24758" lon="-3.58253">
        <ele>78.6</ele>
        <time>2021-08-10T12:51:54Z</time>
      </trkpt>
      <trkpt lat="48.24755" lon="-3.58256">
        <ele>78.6</ele>
        <time>2021-08-10T12:51:55Z</time>
      </trkpt>
      <trkpt lat="48.24752" lon="-3.58259">
        <ele>78.6</ele>
        <time>2021-08-10T12:51:56Z</time>
      </trkpt>
      <trkpt lat="48.24749" lon="-3.58262">
        <ele>78.6</ele>
        <time>2021-08-10T12:51:57Z</time>
      </trkpt>
      <trkpt lat="48.24745" lon="-3.58266">
        <ele>78.6</ele>
        <time>2021-08-10T12:51:58Z</time>
      </trkpt>
      <trkpt lat="48.24741" lon="-3.58269">
        <ele>78.6</ele>
        <time>2021-08-10T12:51:59Z</time>
      </trkpt>
      <trkpt lat="48.24738" lon="-3.58271">
        <ele>78.6</ele>
        <time>2021-08-10T12:52:00Z</time>
      </trkpt>
      <trkpt lat="48.24734" lon="-3.58273">
        <ele>78.6</ele>
        <time>2021-08-10T12:52:01Z</time>
      </trkpt>
      <trkpt lat="48.24731" lon="-3.58275">
        <ele>78.6</ele>
        <time>2021-08-10T12:52:02Z</time>
      </trkpt>
      <trkpt lat="48.24728" lon="-3.58277">
        <ele>78.6</ele>
        <time>2021-08-10T12:52:03Z</time>
      </trkpt>
      <trkpt lat="48.24725" lon="-3.58281">
        <ele>78.6</ele>
        <time>2021-08-10T12:52:04Z</time>
      </trkpt>
      <trkpt lat="48.24723" lon="-3.58285">
        <ele>78.4</ele>
        <time>2021-08-10T12:52:05Z</time>
      </trkpt>
      <trkpt lat="48.24721" lon="-3.58288">
        <ele>78.4</ele>
        <time>2021-08-10T12:52:06Z</time>
      </trkpt>
      <trkpt lat="48.24719" lon="-3.58289">
        <ele>78.4</ele>
        <time>2021-08-10T12:52:07Z</time>
      </trkpt>
      <trkpt lat="48.24718" lon="-3.5829">
        <ele>78.4</ele>
        <time>2021-08-10T12:52:08Z</time>
      </trkpt>
      <trkpt lat="48.24716" lon="-3.58292">
        <ele>78.4</ele>
        <time>2021-08-10T12:52:09Z</time>
      </trkpt>
      <trkpt lat="48.24715" lon="-3.58293">
        <ele>78.4</ele>
        <time>2021-08-10T12:52:10Z</time>
      </trkpt>
      <trkpt lat="48.24715" lon="-3.58293">
        <ele>78.4</ele>
        <time>2021-08-10T12:52:11Z</time>
      </trkpt>
      <trkpt lat="48.24714" lon="-3.58293">
        <ele>79</ele>
        <time>2021-08-10T12:52:19Z</time>
      </trkpt>
      <trkpt lat="48.24712" lon="-3.58293">
        <ele>79</ele>
        <time>2021-08-10T12:52:20Z</time>
      </trkpt>
      <trkpt lat="48.24711" lon="-3.58295">
        <ele>79</ele>
        <time>2021-08-10T12:52:21Z</time>
      </trkpt>
      <trkpt lat="48.24709" lon="-3.58297">
        <ele>79</ele>
        <time>2021-08-10T12:52:22Z</time>
      </trkpt>
      <trkpt lat="48.24707" lon="-3.58301">
        <ele>79</ele>
        <time>2021-08-10T12:52:23Z</time>
      </trkpt>
      <trkpt lat="48.24703" lon="-3.58304">
        <ele>79</ele>
        <time>2021-08-10T12:52:24Z</time>
      </trkpt>
      <trkpt lat="48.247" lon="-3.58308">
        <ele>79</ele>
        <time>2021-08-10T12:52:25Z</time>
      </trkpt>
      <trkpt lat="48.24695" lon="-3.58312">
        <ele>79</ele>
        <time>2021-08-10T12:52:26Z</time>
      </trkpt>
      <trkpt lat="48.24691" lon="-3.58316">
        <ele>78.8</ele>
        <time>2021-08-10T12:52:27Z</time>
      </trkpt>
      <trkpt lat="48.24687" lon="-3.58321">
        <ele>78.8</ele>
        <time>2021-08-10T12:52:28Z</time>
      </trkpt>
      <trkpt lat="48.24682" lon="-3.58325">
        <ele>78.6</ele>
        <time>2021-08-10T12:52:29Z</time>
      </trkpt>
      <trkpt lat="48.24678" lon="-3.5833">
        <ele>78.6</ele>
        <time>2021-08-10T12:52:30Z</time>
      </trkpt>
      <trkpt lat="48.24674" lon="-3.58334">
        <ele>78.4</ele>
        <time>2021-08-10T12:52:31Z</time>
      </trkpt>
      <trkpt lat="48.2467" lon="-3.58338">
        <ele>77.8</ele>
        <time>2021-08-10T12:52:32Z</time>
      </trkpt>
      <trkpt lat="48.24666" lon="-3.58342">
        <ele>77.4</ele>
        <time>2021-08-10T12:52:33Z</time>
      </trkpt>
      <trkpt lat="48.24661" lon="-3.58345">
        <ele>76.8</ele>
        <time>2021-08-10T12:52:34Z</time>
      </trkpt>
      <trkpt lat="48.24656" lon="-3.58349">
        <ele>76.4</ele>
        <time>2021-08-10T12:52:35Z</time>
      </trkpt>
      <trkpt lat="48.24652" lon="-3.58353">
        <ele>76</ele>
        <time>2021-08-10T12:52:36Z</time>
      </trkpt>
      <trkpt lat="48.24648" lon="-3.58356">
        <ele>75.8</ele>
        <time>2021-08-10T12:52:37Z</time>
      </trkpt>
      <trkpt lat="48.24645" lon="-3.58359">
        <ele>75.8</ele>
        <time>2021-08-10T12:52:38Z</time>
      </trkpt>
      <trkpt lat="48.24642" lon="-3.58362">
        <ele>75.6</ele>
        <time>2021-08-10T12:52:39Z</time>
      </trkpt>
      <trkpt lat="48.24639" lon="-3.58365">
        <ele>75.6</ele>
        <time>2021-08-10T12:52:40Z</time>
      </trkpt>
      <trkpt lat="48.24635" lon="-3.58368">
        <ele>75.4</ele>
        <time>2021-08-10T12:52:41Z</time>
      </trkpt>
      <trkpt lat="48.24632" lon="-3.58371">
        <ele>75.4</ele>
        <time>2021-08-10T12:52:42Z</time>
      </trkpt>
      <trkpt lat="48.24629" lon="-3.58375">
        <ele>75.4</ele>
        <time>2021-08-10T12:52:43Z</time>
      </trkpt>
      <trkpt lat="48.24626" lon="-3.58378">
        <ele>75.4</ele>
        <time>2021-08-10T12:52:44Z</time>
      </trkpt>
      <trkpt lat="48.24623" lon="-3.58382">
        <ele>75.4</ele>
        <time>2021-08-10T12:52:45Z</time>
      </trkpt>
      <trkpt lat="48.24619" lon="-3.58386">
        <ele>75.4</ele>
        <time>2021-08-10T12:52:46Z</time>
      </trkpt>
      <trkpt lat="48.24615" lon="-3.58391">
        <ele>75.4</ele>
        <time>2021-08-10T12:52:47Z</time>
      </trkpt>
      <trkpt lat="48.24612" lon="-3.58395">
        <ele>75.4</ele>
        <time>2021-08-10T12:52:48Z</time>
      </trkpt>
      <trkpt lat="48.24608" lon="-3.58399">
        <ele>75.4</ele>
        <time>2021-08-10T12:52:49Z</time>
      </trkpt>
      <trkpt lat="48.24604" lon="-3.58403">
        <ele>75.4</ele>
        <time>2021-08-10T12:52:50Z</time>
      </trkpt>
      <trkpt lat="48.246" lon="-3.58407">
        <ele>75.4</ele>
        <time>2021-08-10T12:52:51Z</time>
      </trkpt>
      <trkpt lat="48.24596" lon="-3.58411">
        <ele>75.4</ele>
        <time>2021-08-10T12:52:52Z</time>
      </trkpt>
      <trkpt lat="48.24592" lon="-3.58415">
        <ele>75.4</ele>
        <time>2021-08-10T12:52:53Z</time>
      </trkpt>
      <trkpt lat="48.24588" lon="-3.58418">
        <ele>75.4</ele>
        <time>2021-08-10T12:52:54Z</time>
      </trkpt>
      <trkpt lat="48.24583" lon="-3.58421">
        <ele>75.4</ele>
        <time>2021-08-10T12:52:55Z</time>
      </trkpt>
      <trkpt lat="48.24578" lon="-3.58424">
        <ele>75.4</ele>
        <time>2021-08-10T12:52:56Z</time>
      </trkpt>
      <trkpt lat="48.24574" lon="-3.58428">
        <ele>75.4</ele>
        <time>2021-08-10T12:52:57Z</time>
      </trkpt>
      <trkpt lat="48.24569" lon="-3.58431">
        <ele>75.4</ele>
        <time>2021-08-10T12:52:58Z</time>
      </trkpt>
      <trkpt lat="48.24564" lon="-3.58434">
        <ele>75.4</ele>
        <time>2021-08-10T12:52:59Z</time>
      </trkpt>
      <trkpt lat="48.24559" lon="-3.58438">
        <ele>75.4</ele>
        <time>2021-08-10T12:53:00Z</time>
      </trkpt>
      <trkpt lat="48.24554" lon="-3.58441">
        <ele>75.4</ele>
        <time>2021-08-10T12:53:01Z</time>
      </trkpt>
      <trkpt lat="48.2455" lon="-3.58445">
        <ele>75.4</ele>
        <time>2021-08-10T12:53:02Z</time>
      </trkpt>
      <trkpt lat="48.24546" lon="-3.58449">
        <ele>75.4</ele>
        <time>2021-08-10T12:53:03Z</time>
      </trkpt>
      <trkpt lat="48.24541" lon="-3.58452">
        <ele>75.4</ele>
        <time>2021-08-10T12:53:04Z</time>
      </trkpt>
      <trkpt lat="48.24536" lon="-3.58455">
        <ele>75.4</ele>
        <time>2021-08-10T12:53:05Z</time>
      </trkpt>
      <trkpt lat="48.24532" lon="-3.58459">
        <ele>75.4</ele>
        <time>2021-08-10T12:53:06Z</time>
      </trkpt>
      <trkpt lat="48.24528" lon="-3.58462">
        <ele>75.4</ele>
        <time>2021-08-10T12:53:07Z</time>
      </trkpt>
      <trkpt lat="48.24523" lon="-3.58466">
        <ele>75.4</ele>
        <time>2021-08-10T12:53:08Z</time>
      </trkpt>
      <trkpt lat="48.24519" lon="-3.5847">
        <ele>75.6</ele>
        <time>2021-08-10T12:53:09Z</time>
      </trkpt>
      <trkpt lat="48.24516" lon="-3.58475">
        <ele>75.6</ele>
        <time>2021-08-10T12:53:10Z</time>
      </trkpt>
      <trkpt lat="48.24512" lon="-3.5848">
        <ele>75.6</ele>
        <time>2021-08-10T12:53:11Z</time>
      </trkpt>
      <trkpt lat="48.24508" lon="-3.58486">
        <ele>75.6</ele>
        <time>2021-08-10T12:53:12Z</time>
      </trkpt>
      <trkpt lat="48.24505" lon="-3.58491">
        <ele>75.6</ele>
        <time>2021-08-10T12:53:13Z</time>
      </trkpt>
      <trkpt lat="48.24502" lon="-3.58497">
        <ele>75.6</ele>
        <time>2021-08-10T12:53:14Z</time>
      </trkpt>
      <trkpt lat="48.24499" lon="-3.58504">
        <ele>75.6</ele>
        <time>2021-08-10T12:53:15Z</time>
      </trkpt>
      <trkpt lat="48.24496" lon="-3.5851">
        <ele>75.8</ele>
        <time>2021-08-10T12:53:16Z</time>
      </trkpt>
      <trkpt lat="48.24493" lon="-3.58518">
        <ele>75.8</ele>
        <time>2021-08-10T12:53:17Z</time>
      </trkpt>
      <trkpt lat="48.24491" lon="-3.58525">
        <ele>75.8</ele>
        <time>2021-08-10T12:53:18Z</time>
      </trkpt>
      <trkpt lat="48.24489" lon="-3.58532">
        <ele>75.8</ele>
        <time>2021-08-10T12:53:19Z</time>
      </trkpt>
      <trkpt lat="48.24488" lon="-3.5854">
        <ele>75.8</ele>
        <time>2021-08-10T12:53:20Z</time>
      </trkpt>
      <trkpt lat="48.24487" lon="-3.58546">
        <ele>75.8</ele>
        <time>2021-08-10T12:53:21Z</time>
      </trkpt>
      <trkpt lat="48.24486" lon="-3.58553">
        <ele>75.8</ele>
        <time>2021-08-10T12:53:22Z</time>
      </trkpt>
      <trkpt lat="48.24486" lon="-3.58559">
        <ele>75.8</ele>
        <time>2021-08-10T12:53:23Z</time>
      </trkpt>
      <trkpt lat="48.24486" lon="-3.58567">
        <ele>75.6</ele>
        <time>2021-08-10T12:53:24Z</time>
      </trkpt>
      <trkpt lat="48.24486" lon="-3.58575">
        <ele>75.6</ele>
        <time>2021-08-10T12:53:25Z</time>
      </trkpt>
      <trkpt lat="48.24486" lon="-3.58583">
        <ele>75.6</ele>
        <time>2021-08-10T12:53:26Z</time>
      </trkpt>
      <trkpt lat="48.24487" lon="-3.5859">
        <ele>75.4</ele>
        <time>2021-08-10T12:53:27Z</time>
      </trkpt>
      <trkpt lat="48.24489" lon="-3.58598">
        <ele>75.4</ele>
        <time>2021-08-10T12:53:28Z</time>
      </trkpt>
      <trkpt lat="48.2449" lon="-3.58606">
        <ele>75.4</ele>
        <time>2021-08-10T12:53:29Z</time>
      </trkpt>
      <trkpt lat="48.24492" lon="-3.58613">
        <ele>75.4</ele>
        <time>2021-08-10T12:53:30Z</time>
      </trkpt>
      <trkpt lat="48.24494" lon="-3.5862">
        <ele>75.4</ele>
        <time>2021-08-10T12:53:31Z</time>
      </trkpt>
      <trkpt lat="48.24495" lon="-3.58626">
        <ele>75.4</ele>
        <time>2021-08-10T12:53:32Z</time>
      </trkpt>
      <trkpt lat="48.24497" lon="-3.58633">
        <ele>75.4</ele>
        <time>2021-08-10T12:53:33Z</time>
      </trkpt>
      <trkpt lat="48.24499" lon="-3.58639">
        <ele>75.4</ele>
        <time>2021-08-10T12:53:34Z</time>
      </trkpt>
      <trkpt lat="48.245" lon="-3.58645">
        <ele>75.4</ele>
        <time>2021-08-10T12:53:35Z</time>
      </trkpt>
      <trkpt lat="48.24502" lon="-3.58651">
        <ele>75.4</ele>
        <time>2021-08-10T12:53:36Z</time>
      </trkpt>
      <trkpt lat="48.24504" lon="-3.58656">
        <ele>75.4</ele>
        <time>2021-08-10T12:53:37Z</time>
      </trkpt>
      <trkpt lat="48.24505" lon="-3.5866">
        <ele>75.4</ele>
        <time>2021-08-10T12:53:38Z</time>
      </trkpt>
      <trkpt lat="48.24507" lon="-3.58664">
        <ele>75.4</ele>
        <time>2021-08-10T12:53:39Z</time>
      </trkpt>
      <trkpt lat="48.24508" lon="-3.58667">
        <ele>75.4</ele>
        <time>2021-08-10T12:53:40Z</time>
      </trkpt>
      <trkpt lat="48.2451" lon="-3.58669">
        <ele>75.6</ele>
        <time>2021-08-10T12:53:41Z</time>
      </trkpt>
      <trkpt lat="48.24512" lon="-3.58671">
        <ele>75.8</ele>
        <time>2021-08-10T12:53:42Z</time>
      </trkpt>
      <trkpt lat="48.24513" lon="-3.58673">
        <ele>75.8</ele>
        <time>2021-08-10T12:53:43Z</time>
      </trkpt>
      <trkpt lat="48.24515" lon="-3.58675">
        <ele>75.8</ele>
        <time>2021-08-10T12:53:44Z</time>
      </trkpt>
      <trkpt lat="48.24516" lon="-3.58678">
        <ele>76</ele>
        <time>2021-08-10T12:53:45Z</time>
      </trkpt>
      <trkpt lat="48.24518" lon="-3.5868">
        <ele>76</ele>
        <time>2021-08-10T12:53:46Z</time>
      </trkpt>
      <trkpt lat="48.24519" lon="-3.58682">
        <ele>76.2</ele>
        <time>2021-08-10T12:53:47Z</time>
      </trkpt>
      <trkpt lat="48.24521" lon="-3.58684">
        <ele>76.4</ele>
        <time>2021-08-10T12:53:48Z</time>
      </trkpt>
      <trkpt lat="48.24521" lon="-3.58685">
        <ele>76.4</ele>
        <time>2021-08-10T12:53:49Z</time>
      </trkpt>
      <trkpt lat="48.24522" lon="-3.58685">
        <ele>76.4</ele>
        <time>2021-08-10T12:53:50Z</time>
      </trkpt>
      <trkpt lat="48.24522" lon="-3.58684">
        <ele>76.4</ele>
        <time>2021-08-10T12:53:51Z</time>
      </trkpt>
      <trkpt lat="48.24521" lon="-3.58683">
        <ele>76.6</ele>
        <time>2021-08-10T12:53:52Z</time>
      </trkpt>
      <trkpt lat="48.24521" lon="-3.58683">
        <ele>76.6</ele>
        <time>2021-08-10T12:53:53Z</time>
      </trkpt>
      <trkpt lat="48.2452" lon="-3.58684">
        <ele>76.6</ele>
        <time>2021-08-10T12:53:54Z</time>
      </trkpt>
      <trkpt lat="48.24519" lon="-3.58685">
        <ele>76.6</ele>
        <time>2021-08-10T12:53:55Z</time>
      </trkpt>
      <trkpt lat="48.24518" lon="-3.58686">
        <ele>76.6</ele>
        <time>2021-08-10T12:53:56Z</time>
      </trkpt>
      <trkpt lat="48.24515" lon="-3.58685">
        <ele>76.8</ele>
        <time>2021-08-10T12:53:58Z</time>
      </trkpt>
      <trkpt lat="48.24514" lon="-3.58684">
        <ele>76.8</ele>
        <time>2021-08-10T12:53:59Z</time>
      </trkpt>
      <trkpt lat="48.24513" lon="-3.58682">
        <ele>76.8</ele>
        <time>2021-08-10T12:54:00Z</time>
      </trkpt>
      <trkpt lat="48.2451" lon="-3.58678">
        <ele>76.8</ele>
        <time>2021-08-10T12:54:02Z</time>
      </trkpt>
      <trkpt lat="48.24509" lon="-3.58676">
        <ele>76.8</ele>
        <time>2021-08-10T12:54:03Z</time>
      </trkpt>
      <trkpt lat="48.24508" lon="-3.58674">
        <ele>76.8</ele>
        <time>2021-08-10T12:54:04Z</time>
      </trkpt>
      <trkpt lat="48.24507" lon="-3.58671">
        <ele>76.8</ele>
        <time>2021-08-10T12:54:05Z</time>
      </trkpt>
      <trkpt lat="48.24506" lon="-3.58668">
        <ele>76.8</ele>
        <time>2021-08-10T12:54:06Z</time>
      </trkpt>
      <trkpt lat="48.24505" lon="-3.58665">
        <ele>76.8</ele>
        <time>2021-08-10T12:54:07Z</time>
      </trkpt>
      <trkpt lat="48.24505" lon="-3.58662">
        <ele>76.8</ele>
        <time>2021-08-10T12:54:09Z</time>
      </trkpt>
      <trkpt lat="48.24505" lon="-3.5866">
        <ele>76.6</ele>
        <time>2021-08-10T12:54:11Z</time>
      </trkpt>
      <trkpt lat="48.24505" lon="-3.5866">
        <ele>76.6</ele>
        <time>2021-08-10T12:54:12Z</time>
      </trkpt>
      <trkpt lat="48.24505" lon="-3.58665">
        <ele>77.2</ele>
        <time>2021-08-10T12:55:43Z</time>
      </trkpt>
      <trkpt lat="48.24506" lon="-3.58668">
        <ele>77.2</ele>
        <time>2021-08-10T12:55:44Z</time>
      </trkpt>
      <trkpt lat="48.24507" lon="-3.58669">
        <ele>77.2</ele>
        <time>2021-08-10T12:55:45Z</time>
      </trkpt>
      <trkpt lat="48.24509" lon="-3.58669">
        <ele>77.2</ele>
        <time>2021-08-10T12:55:46Z</time>
      </trkpt>
      <trkpt lat="48.24511" lon="-3.58671">
        <ele>77.2</ele>
        <time>2021-08-10T12:55:47Z</time>
      </trkpt>
      <trkpt lat="48.24512" lon="-3.58672">
        <ele>77.2</ele>
        <time>2021-08-10T12:55:48Z</time>
      </trkpt>
      <trkpt lat="48.24513" lon="-3.58673">
        <ele>77.2</ele>
        <time>2021-08-10T12:55:49Z</time>
      </trkpt>
      <trkpt lat="48.24514" lon="-3.58674">
        <ele>77.2</ele>
        <time>2021-08-10T12:55:50Z</time>
      </trkpt>
      <trkpt lat="48.24515" lon="-3.58677">
        <ele>77.2</ele>
        <time>2021-08-10T12:55:51Z</time>
      </trkpt>
      <trkpt lat="48.24516" lon="-3.5868">
        <ele>77.2</ele>
        <time>2021-08-10T12:55:52Z</time>
      </trkpt>
      <trkpt lat="48.24517" lon="-3.58683">
        <ele>77.2</ele>
        <time>2021-08-10T12:55:53Z</time>
      </trkpt>
      <trkpt lat="48.24518" lon="-3.58686">
        <ele>77.2</ele>
        <time>2021-08-10T12:55:54Z</time>
      </trkpt>
      <trkpt lat="48.24519" lon="-3.58687">
        <ele>77.2</ele>
        <time>2021-08-10T12:55:55Z</time>
      </trkpt>
      <trkpt lat="48.2452" lon="-3.58689">
        <ele>77.2</ele>
        <time>2021-08-10T12:55:56Z</time>
      </trkpt>
      <trkpt lat="48.2452" lon="-3.58689">
        <ele>77.2</ele>
        <time>2021-08-10T12:55:57Z</time>
      </trkpt>
      <trkpt lat="48.24521" lon="-3.58689">
        <ele>77.2</ele>
        <time>2021-08-10T12:55:58Z</time>
      </trkpt>
      <trkpt lat="48.24521" lon="-3.5869">
        <ele>77.2</ele>
        <time>2021-08-10T12:55:59Z</time>
      </trkpt>
      <trkpt lat="48.24521" lon="-3.5869">
        <ele>77.2</ele>
        <time>2021-08-10T12:56:00Z</time>
      </trkpt>
      <trkpt lat="48.24523" lon="-3.58684">
        <ele>77.8</ele>
        <time>2021-08-10T12:59:09Z</time>
      </trkpt>
      <trkpt lat="48.24522" lon="-3.58686">
        <ele>77.8</ele>
        <time>2021-08-10T12:59:10Z</time>
      </trkpt>
      <trkpt lat="48.24522" lon="-3.58689">
        <ele>77.8</ele>
        <time>2021-08-10T12:59:11Z</time>
      </trkpt>
      <trkpt lat="48.24523" lon="-3.58691">
        <ele>77.8</ele>
        <time>2021-08-10T12:59:12Z</time>
      </trkpt>
      <trkpt lat="48.24524" lon="-3.58692">
        <ele>77.8</ele>
        <time>2021-08-10T12:59:13Z</time>
      </trkpt>
      <trkpt lat="48.24525" lon="-3.58691">
        <ele>77.8</ele>
        <time>2021-08-10T12:59:14Z</time>
      </trkpt>
      <trkpt lat="48.24526" lon="-3.58689">
        <ele>77.8</ele>
        <time>2021-08-10T12:59:15Z</time>
      </trkpt>
      <trkpt lat="48.24526" lon="-3.58687">
        <ele>77.6</ele>
        <time>2021-08-10T12:59:16Z</time>
      </trkpt>
      <trkpt lat="48.24527" lon="-3.58682">
        <ele>77.6</ele>
        <time>2021-08-10T12:59:18Z</time>
      </trkpt>
      <trkpt lat="48.24527" lon="-3.5868">
        <ele>77.6</ele>
        <time>2021-08-10T12:59:19Z</time>
      </trkpt>
      <trkpt lat="48.24527" lon="-3.58678">
        <ele>77.6</ele>
        <time>2021-08-10T12:59:20Z</time>
      </trkpt>
      <trkpt lat="48.24527" lon="-3.58677">
        <ele>77.6</ele>
        <time>2021-08-10T12:59:21Z</time>
      </trkpt>
      <trkpt lat="48.24528" lon="-3.58675">
        <ele>77.8</ele>
        <time>2021-08-10T12:59:22Z</time>
      </trkpt>
      <trkpt lat="48.24528" lon="-3.58674">
        <ele>77.8</ele>
        <time>2021-08-10T12:59:23Z</time>
      </trkpt>
      <trkpt lat="48.24529" lon="-3.58672">
        <ele>77.8</ele>
        <time>2021-08-10T12:59:24Z</time>
      </trkpt>
      <trkpt lat="48.24529" lon="-3.5867">
        <ele>77.8</ele>
        <time>2021-08-10T12:59:25Z</time>
      </trkpt>
      <trkpt lat="48.24529" lon="-3.58668">
        <ele>77.8</ele>
        <time>2021-08-10T12:59:26Z</time>
      </trkpt>
      <trkpt lat="48.2453" lon="-3.58665">
        <ele>77.8</ele>
        <time>2021-08-10T12:59:27Z</time>
      </trkpt>
      <trkpt lat="48.2453" lon="-3.58662">
        <ele>77.8</ele>
        <time>2021-08-10T12:59:28Z</time>
      </trkpt>
      <trkpt lat="48.24531" lon="-3.5866">
        <ele>78</ele>
        <time>2021-08-10T12:59:29Z</time>
      </trkpt>
      <trkpt lat="48.24531" lon="-3.58658">
        <ele>78</ele>
        <time>2021-08-10T12:59:30Z</time>
      </trkpt>
      <trkpt lat="48.24531" lon="-3.58655">
        <ele>78</ele>
        <time>2021-08-10T12:59:31Z</time>
      </trkpt>
      <trkpt lat="48.24531" lon="-3.58653">
        <ele>78.2</ele>
        <time>2021-08-10T12:59:32Z</time>
      </trkpt>
      <trkpt lat="48.24532" lon="-3.58651">
        <ele>78.2</ele>
        <time>2021-08-10T12:59:33Z</time>
      </trkpt>
      <trkpt lat="48.24532" lon="-3.58649">
        <ele>78.6</ele>
        <time>2021-08-10T12:59:34Z</time>
      </trkpt>
      <trkpt lat="48.24533" lon="-3.58647">
        <ele>78.8</ele>
        <time>2021-08-10T12:59:35Z</time>
      </trkpt>
      <trkpt lat="48.24533" lon="-3.58646">
        <ele>78.8</ele>
        <time>2021-08-10T12:59:36Z</time>
      </trkpt>
      <trkpt lat="48.24534" lon="-3.58644">
        <ele>79</ele>
        <time>2021-08-10T12:59:37Z</time>
      </trkpt>
      <trkpt lat="48.24534" lon="-3.58642">
        <ele>79.2</ele>
        <time>2021-08-10T12:59:38Z</time>
      </trkpt>
      <trkpt lat="48.24534" lon="-3.58639">
        <ele>79.4</ele>
        <time>2021-08-10T12:59:39Z</time>
      </trkpt>
      <trkpt lat="48.24535" lon="-3.58637">
        <ele>79.6</ele>
        <time>2021-08-10T12:59:40Z</time>
      </trkpt>
      <trkpt lat="48.24535" lon="-3.58635">
        <ele>79.8</ele>
        <time>2021-08-10T12:59:41Z</time>
      </trkpt>
      <trkpt lat="48.24536" lon="-3.58633">
        <ele>80.2</ele>
        <time>2021-08-10T12:59:42Z</time>
      </trkpt>
      <trkpt lat="48.24537" lon="-3.58631">
        <ele>80.4</ele>
        <time>2021-08-10T12:59:43Z</time>
      </trkpt>
      <trkpt lat="48.24538" lon="-3.58629">
        <ele>80.4</ele>
        <time>2021-08-10T12:59:44Z</time>
      </trkpt>
      <trkpt lat="48.24538" lon="-3.58627">
        <ele>80.4</ele>
        <time>2021-08-10T12:59:45Z</time>
      </trkpt>
      <trkpt lat="48.24539" lon="-3.58624">
        <ele>80.6</ele>
        <time>2021-08-10T12:59:46Z</time>
      </trkpt>
      <trkpt lat="48.24539" lon="-3.58623">
        <ele>80.8</ele>
        <time>2021-08-10T12:59:47Z</time>
      </trkpt>
      <trkpt lat="48.2454" lon="-3.58621">
        <ele>80.8</ele>
        <time>2021-08-10T12:59:48Z</time>
      </trkpt>
      <trkpt lat="48.2454" lon="-3.58619">
        <ele>81</ele>
        <time>2021-08-10T12:59:49Z</time>
      </trkpt>
      <trkpt lat="48.24541" lon="-3.58617">
        <ele>81.2</ele>
        <time>2021-08-10T12:59:50Z</time>
      </trkpt>
      <trkpt lat="48.24541" lon="-3.58615">
        <ele>81.2</ele>
        <time>2021-08-10T12:59:51Z</time>
      </trkpt>
      <trkpt lat="48.24542" lon="-3.58614">
        <ele>81.6</ele>
        <time>2021-08-10T12:59:52Z</time>
      </trkpt>
      <trkpt lat="48.24542" lon="-3.58611">
        <ele>81.6</ele>
        <time>2021-08-10T12:59:53Z</time>
      </trkpt>
      <trkpt lat="48.24543" lon="-3.58609">
        <ele>81.8</ele>
        <time>2021-08-10T12:59:54Z</time>
      </trkpt>
      <trkpt lat="48.24544" lon="-3.58607">
        <ele>82</ele>
        <time>2021-08-10T12:59:55Z</time>
      </trkpt>
      <trkpt lat="48.24544" lon="-3.58605">
        <ele>82.2</ele>
        <time>2021-08-10T12:59:56Z</time>
      </trkpt>
      <trkpt lat="48.24545" lon="-3.58603">
        <ele>82.6</ele>
        <time>2021-08-10T12:59:57Z</time>
      </trkpt>
      <trkpt lat="48.24546" lon="-3.58602">
        <ele>82.6</ele>
        <time>2021-08-10T12:59:58Z</time>
      </trkpt>
      <trkpt lat="48.24546" lon="-3.586">
        <ele>83</ele>
        <time>2021-08-10T12:59:59Z</time>
      </trkpt>
      <trkpt lat="48.24548" lon="-3.58598">
        <ele>83.4</ele>
        <time>2021-08-10T13:00:00Z</time>
      </trkpt>
      <trkpt lat="48.24549" lon="-3.58596">
        <ele>83.6</ele>
        <time>2021-08-10T13:00:01Z</time>
      </trkpt>
      <trkpt lat="48.2455" lon="-3.58593">
        <ele>83.8</ele>
        <time>2021-08-10T13:00:02Z</time>
      </trkpt>
      <trkpt lat="48.2455" lon="-3.5859">
        <ele>83.8</ele>
        <time>2021-08-10T13:00:03Z</time>
      </trkpt>
      <trkpt lat="48.24552" lon="-3.58588">
        <ele>84</ele>
        <time>2021-08-10T13:00:04Z</time>
      </trkpt>
      <trkpt lat="48.24552" lon="-3.58585">
        <ele>84.2</ele>
        <time>2021-08-10T13:00:05Z</time>
      </trkpt>
      <trkpt lat="48.24553" lon="-3.58582">
        <ele>84.4</ele>
        <time>2021-08-10T13:00:06Z</time>
      </trkpt>
      <trkpt lat="48.24553" lon="-3.58579">
        <ele>84.6</ele>
        <time>2021-08-10T13:00:07Z</time>
      </trkpt>
      <trkpt lat="48.24554" lon="-3.58577">
        <ele>84.6</ele>
        <time>2021-08-10T13:00:08Z</time>
      </trkpt>
      <trkpt lat="48.24555" lon="-3.58574">
        <ele>85</ele>
        <time>2021-08-10T13:00:09Z</time>
      </trkpt>
      <trkpt lat="48.24555" lon="-3.58572">
        <ele>85.2</ele>
        <time>2021-08-10T13:00:10Z</time>
      </trkpt>
      <trkpt lat="48.24556" lon="-3.5857">
        <ele>85.2</ele>
        <time>2021-08-10T13:00:11Z</time>
      </trkpt>
      <trkpt lat="48.24558" lon="-3.58568">
        <ele>85.4</ele>
        <time>2021-08-10T13:00:12Z</time>
      </trkpt>
      <trkpt lat="48.24559" lon="-3.58566">
        <ele>85.4</ele>
        <time>2021-08-10T13:00:13Z</time>
      </trkpt>
      <trkpt lat="48.2456" lon="-3.58563">
        <ele>85.6</ele>
        <time>2021-08-10T13:00:14Z</time>
      </trkpt>
      <trkpt lat="48.24561" lon="-3.58561">
        <ele>85.6</ele>
        <time>2021-08-10T13:00:15Z</time>
      </trkpt>
      <trkpt lat="48.24562" lon="-3.58559">
        <ele>85.6</ele>
        <time>2021-08-10T13:00:16Z</time>
      </trkpt>
      <trkpt lat="48.24562" lon="-3.58556">
        <ele>85.6</ele>
        <time>2021-08-10T13:00:17Z</time>
      </trkpt>
      <trkpt lat="48.24563" lon="-3.58553">
        <ele>85.8</ele>
        <time>2021-08-10T13:00:18Z</time>
      </trkpt>
      <trkpt lat="48.24565" lon="-3.5855">
        <ele>85.8</ele>
        <time>2021-08-10T13:00:19Z</time>
      </trkpt>
      <trkpt lat="48.24566" lon="-3.58547">
        <ele>85.8</ele>
        <time>2021-08-10T13:00:20Z</time>
      </trkpt>
      <trkpt lat="48.24569" lon="-3.58542">
        <ele>86.2</ele>
        <time>2021-08-10T13:00:22Z</time>
      </trkpt>
      <trkpt lat="48.24571" lon="-3.58535">
        <ele>86.2</ele>
        <time>2021-08-10T13:00:24Z</time>
      </trkpt>
      <trkpt lat="48.24574" lon="-3.58529">
        <ele>86.4</ele>
        <time>2021-08-10T13:00:26Z</time>
      </trkpt>
      <trkpt lat="48.24576" lon="-3.58527">
        <ele>86.4</ele>
        <time>2021-08-10T13:00:27Z</time>
      </trkpt>
      <trkpt lat="48.24577" lon="-3.58524">
        <ele>86.4</ele>
        <time>2021-08-10T13:00:28Z</time>
      </trkpt>
      <trkpt lat="48.24579" lon="-3.58519">
        <ele>86.4</ele>
        <time>2021-08-10T13:00:30Z</time>
      </trkpt>
      <trkpt lat="48.2458" lon="-3.58513">
        <ele>86.6</ele>
        <time>2021-08-10T13:00:32Z</time>
      </trkpt>
      <trkpt lat="48.24583" lon="-3.58509">
        <ele>86.8</ele>
        <time>2021-08-10T13:00:34Z</time>
      </trkpt>
      <trkpt lat="48.24585" lon="-3.58503">
        <ele>86.8</ele>
        <time>2021-08-10T13:00:36Z</time>
      </trkpt>
      <trkpt lat="48.24586" lon="-3.585">
        <ele>87</ele>
        <time>2021-08-10T13:00:37Z</time>
      </trkpt>
      <trkpt lat="48.24588" lon="-3.58497">
        <ele>87</ele>
        <time>2021-08-10T13:00:38Z</time>
      </trkpt>
      <trkpt lat="48.24591" lon="-3.58491">
        <ele>87.2</ele>
        <time>2021-08-10T13:00:40Z</time>
      </trkpt>
      <trkpt lat="48.24593" lon="-3.58486">
        <ele>87.4</ele>
        <time>2021-08-10T13:00:42Z</time>
      </trkpt>
      <trkpt lat="48.24595" lon="-3.58483">
        <ele>87.4</ele>
        <time>2021-08-10T13:00:43Z</time>
      </trkpt>
      <trkpt lat="48.24596" lon="-3.5848">
        <ele>87.4</ele>
        <time>2021-08-10T13:00:44Z</time>
      </trkpt>
      <trkpt lat="48.246" lon="-3.58473">
        <ele>87.4</ele>
        <time>2021-08-10T13:00:46Z</time>
      </trkpt>
      <trkpt lat="48.24603" lon="-3.58467">
        <ele>87.6</ele>
        <time>2021-08-10T13:00:48Z</time>
      </trkpt>
      <trkpt lat="48.24605" lon="-3.58463">
        <ele>87.6</ele>
        <time>2021-08-10T13:00:49Z</time>
      </trkpt>
      <trkpt lat="48.24607" lon="-3.5846">
        <ele>87.6</ele>
        <time>2021-08-10T13:00:50Z</time>
      </trkpt>
      <trkpt lat="48.2461" lon="-3.58453">
        <ele>87.8</ele>
        <time>2021-08-10T13:00:52Z</time>
      </trkpt>
      <trkpt lat="48.24612" lon="-3.5845">
        <ele>87.8</ele>
        <time>2021-08-10T13:00:53Z</time>
      </trkpt>
      <trkpt lat="48.24613" lon="-3.58448">
        <ele>88</ele>
        <time>2021-08-10T13:00:54Z</time>
      </trkpt>
      <trkpt lat="48.24615" lon="-3.58444">
        <ele>88.2</ele>
        <time>2021-08-10T13:00:55Z</time>
      </trkpt>
      <trkpt lat="48.24616" lon="-3.58441">
        <ele>88.2</ele>
        <time>2021-08-10T13:00:56Z</time>
      </trkpt>
      <trkpt lat="48.24618" lon="-3.58439">
        <ele>88.2</ele>
        <time>2021-08-10T13:00:57Z</time>
      </trkpt>
      <trkpt lat="48.2462" lon="-3.58436">
        <ele>88.2</ele>
        <time>2021-08-10T13:00:58Z</time>
      </trkpt>
      <trkpt lat="48.24623" lon="-3.58432">
        <ele>88.4</ele>
        <time>2021-08-10T13:00:59Z</time>
      </trkpt>
      <trkpt lat="48.24626" lon="-3.58429">
        <ele>88.4</ele>
        <time>2021-08-10T13:01:00Z</time>
      </trkpt>
      <trkpt lat="48.2463" lon="-3.58425">
        <ele>88.4</ele>
        <time>2021-08-10T13:01:01Z</time>
      </trkpt>
      <trkpt lat="48.24633" lon="-3.58422">
        <ele>88.6</ele>
        <time>2021-08-10T13:01:02Z</time>
      </trkpt>
      <trkpt lat="48.24637" lon="-3.58418">
        <ele>88.6</ele>
        <time>2021-08-10T13:01:03Z</time>
      </trkpt>
      <trkpt lat="48.24644" lon="-3.58412">
        <ele>88.8</ele>
        <time>2021-08-10T13:01:05Z</time>
      </trkpt>
      <trkpt lat="48.2465" lon="-3.58406">
        <ele>89</ele>
        <time>2021-08-10T13:01:07Z</time>
      </trkpt>
      <trkpt lat="48.24653" lon="-3.58404">
        <ele>89.2</ele>
        <time>2021-08-10T13:01:08Z</time>
      </trkpt>
      <trkpt lat="48.24656" lon="-3.58402">
        <ele>89.2</ele>
        <time>2021-08-10T13:01:09Z</time>
      </trkpt>
      <trkpt lat="48.24658" lon="-3.584">
        <ele>89.2</ele>
        <time>2021-08-10T13:01:10Z</time>
      </trkpt>
      <trkpt lat="48.24661" lon="-3.58398">
        <ele>89.2</ele>
        <time>2021-08-10T13:01:11Z</time>
      </trkpt>
      <trkpt lat="48.24663" lon="-3.58395">
        <ele>89.4</ele>
        <time>2021-08-10T13:01:12Z</time>
      </trkpt>
      <trkpt lat="48.24666" lon="-3.58393">
        <ele>89.4</ele>
        <time>2021-08-10T13:01:13Z</time>
      </trkpt>
      <trkpt lat="48.24668" lon="-3.58391">
        <ele>89.4</ele>
        <time>2021-08-10T13:01:14Z</time>
      </trkpt>
      <trkpt lat="48.2467" lon="-3.5839">
        <ele>89.4</ele>
        <time>2021-08-10T13:01:15Z</time>
      </trkpt>
      <trkpt lat="48.24673" lon="-3.58388">
        <ele>89.4</ele>
        <time>2021-08-10T13:01:16Z</time>
      </trkpt>
      <trkpt lat="48.24677" lon="-3.58385">
        <ele>89.4</ele>
        <time>2021-08-10T13:01:17Z</time>
      </trkpt>
      <trkpt lat="48.24682" lon="-3.58382">
        <ele>89.4</ele>
        <time>2021-08-10T13:01:18Z</time>
      </trkpt>
      <trkpt lat="48.24685" lon="-3.58379">
        <ele>89.6</ele>
        <time>2021-08-10T13:01:19Z</time>
      </trkpt>
      <trkpt lat="48.24688" lon="-3.58376">
        <ele>89.6</ele>
        <time>2021-08-10T13:01:20Z</time>
      </trkpt>
      <trkpt lat="48.2469" lon="-3.58374">
        <ele>89.8</ele>
        <time>2021-08-10T13:01:21Z</time>
      </trkpt>
      <trkpt lat="48.24693" lon="-3.58371">
        <ele>89.8</ele>
        <time>2021-08-10T13:01:22Z</time>
      </trkpt>
      <trkpt lat="48.24697" lon="-3.58368">
        <ele>89.8</ele>
        <time>2021-08-10T13:01:23Z</time>
      </trkpt>
      <trkpt lat="48.247" lon="-3.58364">
        <ele>90</ele>
        <time>2021-08-10T13:01:24Z</time>
      </trkpt>
      <trkpt lat="48.24703" lon="-3.58361">
        <ele>90</ele>
        <time>2021-08-10T13:01:25Z</time>
      </trkpt>
      <trkpt lat="48.24706" lon="-3.58358">
        <ele>90.2</ele>
        <time>2021-08-10T13:01:26Z</time>
      </trkpt>
      <trkpt lat="48.2471" lon="-3.58355">
        <ele>90.2</ele>
        <time>2021-08-10T13:01:27Z</time>
      </trkpt>
      <trkpt lat="48.24714" lon="-3.58352">
        <ele>90.4</ele>
        <time>2021-08-10T13:01:28Z</time>
      </trkpt>
      <trkpt lat="48.24719" lon="-3.58349">
        <ele>90.4</ele>
        <time>2021-08-10T13:01:29Z</time>
      </trkpt>
      <trkpt lat="48.24723" lon="-3.58346">
        <ele>90.4</ele>
        <time>2021-08-10T13:01:30Z</time>
      </trkpt>
      <trkpt lat="48.24728" lon="-3.58342">
        <ele>90.6</ele>
        <time>2021-08-10T13:01:31Z</time>
      </trkpt>
      <trkpt lat="48.24732" lon="-3.58339">
        <ele>90.6</ele>
        <time>2021-08-10T13:01:32Z</time>
      </trkpt>
      <trkpt lat="48.24736" lon="-3.58336">
        <ele>90.8</ele>
        <time>2021-08-10T13:01:33Z</time>
      </trkpt>
      <trkpt lat="48.2474" lon="-3.58333">
        <ele>90.8</ele>
        <time>2021-08-10T13:01:34Z</time>
      </trkpt>
      <trkpt lat="48.24744" lon="-3.5833">
        <ele>90.8</ele>
        <time>2021-08-10T13:01:35Z</time>
      </trkpt>
      <trkpt lat="48.24747" lon="-3.58327">
        <ele>91</ele>
        <time>2021-08-10T13:01:36Z</time>
      </trkpt>
      <trkpt lat="48.24751" lon="-3.58324">
        <ele>91</ele>
        <time>2021-08-10T13:01:37Z</time>
      </trkpt>
      <trkpt lat="48.24755" lon="-3.58322">
        <ele>91</ele>
        <time>2021-08-10T13:01:38Z</time>
      </trkpt>
      <trkpt lat="48.24758" lon="-3.5832">
        <ele>91</ele>
        <time>2021-08-10T13:01:39Z</time>
      </trkpt>
      <trkpt lat="48.24762" lon="-3.58318">
        <ele>91</ele>
        <time>2021-08-10T13:01:40Z</time>
      </trkpt>
      <trkpt lat="48.24767" lon="-3.58315">
        <ele>91</ele>
        <time>2021-08-10T13:01:41Z</time>
      </trkpt>
      <trkpt lat="48.24771" lon="-3.58313">
        <ele>91</ele>
        <time>2021-08-10T13:01:42Z</time>
      </trkpt>
      <trkpt lat="48.24775" lon="-3.58311">
        <ele>91</ele>
        <time>2021-08-10T13:01:43Z</time>
      </trkpt>
      <trkpt lat="48.2478" lon="-3.58309">
        <ele>91.2</ele>
        <time>2021-08-10T13:01:44Z</time>
      </trkpt>
      <trkpt lat="48.24784" lon="-3.58307">
        <ele>91.2</ele>
        <time>2021-08-10T13:01:45Z</time>
      </trkpt>
      <trkpt lat="48.24789" lon="-3.58305">
        <ele>91.4</ele>
        <time>2021-08-10T13:01:46Z</time>
      </trkpt>
      <trkpt lat="48.24793" lon="-3.58304">
        <ele>91.4</ele>
        <time>2021-08-10T13:01:47Z</time>
      </trkpt>
      <trkpt lat="48.24798" lon="-3.58303">
        <ele>91.4</ele>
        <time>2021-08-10T13:01:48Z</time>
      </trkpt>
      <trkpt lat="48.24802" lon="-3.58303">
        <ele>91.6</ele>
        <time>2021-08-10T13:01:49Z</time>
      </trkpt>
      <trkpt lat="48.24807" lon="-3.58302">
        <ele>91.6</ele>
        <time>2021-08-10T13:01:50Z</time>
      </trkpt>
      <trkpt lat="48.24811" lon="-3.58301">
        <ele>91.8</ele>
        <time>2021-08-10T13:01:51Z</time>
      </trkpt>
      <trkpt lat="48.24815" lon="-3.583">
        <ele>91.8</ele>
        <time>2021-08-10T13:01:52Z</time>
      </trkpt>
      <trkpt lat="48.24819" lon="-3.583">
        <ele>92</ele>
        <time>2021-08-10T13:01:53Z</time>
      </trkpt>
      <trkpt lat="48.24823" lon="-3.583">
        <ele>92</ele>
        <time>2021-08-10T13:01:54Z</time>
      </trkpt>
      <trkpt lat="48.24827" lon="-3.58301">
        <ele>92</ele>
        <time>2021-08-10T13:01:55Z</time>
      </trkpt>
      <trkpt lat="48.24831" lon="-3.58301">
        <ele>92.4</ele>
        <time>2021-08-10T13:01:56Z</time>
      </trkpt>
      <trkpt lat="48.24835" lon="-3.58301">
        <ele>92.6</ele>
        <time>2021-08-10T13:01:57Z</time>
      </trkpt>
      <trkpt lat="48.24839" lon="-3.58301">
        <ele>92.6</ele>
        <time>2021-08-10T13:01:58Z</time>
      </trkpt>
      <trkpt lat="48.24843" lon="-3.58302">
        <ele>92.8</ele>
        <time>2021-08-10T13:01:59Z</time>
      </trkpt>
      <trkpt lat="48.24847" lon="-3.58302">
        <ele>93</ele>
        <time>2021-08-10T13:02:00Z</time>
      </trkpt>
      <trkpt lat="48.24851" lon="-3.58302">
        <ele>93.2</ele>
        <time>2021-08-10T13:02:01Z</time>
      </trkpt>
      <trkpt lat="48.24855" lon="-3.58302">
        <ele>93.4</ele>
        <time>2021-08-10T13:02:02Z</time>
      </trkpt>
      <trkpt lat="48.24859" lon="-3.58303">
        <ele>93.4</ele>
        <time>2021-08-10T13:02:03Z</time>
      </trkpt>
      <trkpt lat="48.24863" lon="-3.58304">
        <ele>93.8</ele>
        <time>2021-08-10T13:02:04Z</time>
      </trkpt>
      <trkpt lat="48.24867" lon="-3.58306">
        <ele>93.8</ele>
        <time>2021-08-10T13:02:05Z</time>
      </trkpt>
      <trkpt lat="48.24871" lon="-3.58307">
        <ele>93.8</ele>
        <time>2021-08-10T13:02:06Z</time>
      </trkpt>
      <trkpt lat="48.24875" lon="-3.58308">
        <ele>93.8</ele>
        <time>2021-08-10T13:02:07Z</time>
      </trkpt>
      <trkpt lat="48.24879" lon="-3.58309">
        <ele>93.8</ele>
        <time>2021-08-10T13:02:08Z</time>
      </trkpt>
      <trkpt lat="48.24883" lon="-3.5831">
        <ele>93.8</ele>
        <time>2021-08-10T13:02:09Z</time>
      </trkpt>
      <trkpt lat="48.24887" lon="-3.58312">
        <ele>94</ele>
        <time>2021-08-10T13:02:10Z</time>
      </trkpt>
      <trkpt lat="48.24891" lon="-3.58314">
        <ele>94</ele>
        <time>2021-08-10T13:02:11Z</time>
      </trkpt>
      <trkpt lat="48.24894" lon="-3.58316">
        <ele>94</ele>
        <time>2021-08-10T13:02:12Z</time>
      </trkpt>
      <trkpt lat="48.24898" lon="-3.58317">
        <ele>94</ele>
        <time>2021-08-10T13:02:13Z</time>
      </trkpt>
      <trkpt lat="48.24902" lon="-3.58319">
        <ele>94</ele>
        <time>2021-08-10T13:02:14Z</time>
      </trkpt>
      <trkpt lat="48.24906" lon="-3.5832">
        <ele>94</ele>
        <time>2021-08-10T13:02:15Z</time>
      </trkpt>
      <trkpt lat="48.2491" lon="-3.58322">
        <ele>94</ele>
        <time>2021-08-10T13:02:16Z</time>
      </trkpt>
      <trkpt lat="48.24914" lon="-3.58324">
        <ele>94</ele>
        <time>2021-08-10T13:02:17Z</time>
      </trkpt>
      <trkpt lat="48.24917" lon="-3.58326">
        <ele>94.2</ele>
        <time>2021-08-10T13:02:18Z</time>
      </trkpt>
      <trkpt lat="48.24925" lon="-3.5833">
        <ele>94.2</ele>
        <time>2021-08-10T13:02:20Z</time>
      </trkpt>
      <trkpt lat="48.24929" lon="-3.58332">
        <ele>94.2</ele>
        <time>2021-08-10T13:02:21Z</time>
      </trkpt>
      <trkpt lat="48.24936" lon="-3.58336">
        <ele>94.2</ele>
        <time>2021-08-10T13:02:23Z</time>
      </trkpt>
      <trkpt lat="48.2494" lon="-3.58338">
        <ele>94.2</ele>
        <time>2021-08-10T13:02:24Z</time>
      </trkpt>
      <trkpt lat="48.24947" lon="-3.58341">
        <ele>94.4</ele>
        <time>2021-08-10T13:02:26Z</time>
      </trkpt>
      <trkpt lat="48.24951" lon="-3.58343">
        <ele>94.6</ele>
        <time>2021-08-10T13:02:27Z</time>
      </trkpt>
      <trkpt lat="48.24954" lon="-3.58344">
        <ele>94.6</ele>
        <time>2021-08-10T13:02:28Z</time>
      </trkpt>
      <trkpt lat="48.24958" lon="-3.58346">
        <ele>94.8</ele>
        <time>2021-08-10T13:02:29Z</time>
      </trkpt>
      <trkpt lat="48.24962" lon="-3.58347">
        <ele>94.8</ele>
        <time>2021-08-10T13:02:30Z</time>
      </trkpt>
      <trkpt lat="48.24969" lon="-3.5835">
        <ele>94.8</ele>
        <time>2021-08-10T13:02:32Z</time>
      </trkpt>
      <trkpt lat="48.24972" lon="-3.5835">
        <ele>94.8</ele>
        <time>2021-08-10T13:02:33Z</time>
      </trkpt>
      <trkpt lat="48.2498" lon="-3.58352">
        <ele>94.8</ele>
        <time>2021-08-10T13:02:35Z</time>
      </trkpt>
      <trkpt lat="48.24984" lon="-3.58352">
        <ele>95</ele>
        <time>2021-08-10T13:02:36Z</time>
      </trkpt>
      <trkpt lat="48.24987" lon="-3.58352">
        <ele>95</ele>
        <time>2021-08-10T13:02:37Z</time>
      </trkpt>
      <trkpt lat="48.24991" lon="-3.58352">
        <ele>95.2</ele>
        <time>2021-08-10T13:02:38Z</time>
      </trkpt>
      <trkpt lat="48.24995" lon="-3.58352">
        <ele>95.2</ele>
        <time>2021-08-10T13:02:39Z</time>
      </trkpt>
      <trkpt lat="48.24998" lon="-3.58352">
        <ele>95.2</ele>
        <time>2021-08-10T13:02:40Z</time>
      </trkpt>
      <trkpt lat="48.25002" lon="-3.58352">
        <ele>95.4</ele>
        <time>2021-08-10T13:02:41Z</time>
      </trkpt>
      <trkpt lat="48.25006" lon="-3.58352">
        <ele>95.6</ele>
        <time>2021-08-10T13:02:42Z</time>
      </trkpt>
      <trkpt lat="48.2501" lon="-3.58352">
        <ele>95.6</ele>
        <time>2021-08-10T13:02:43Z</time>
      </trkpt>
      <trkpt lat="48.25013" lon="-3.58351">
        <ele>95.6</ele>
        <time>2021-08-10T13:02:44Z</time>
      </trkpt>
      <trkpt lat="48.25017" lon="-3.58351">
        <ele>95.8</ele>
        <time>2021-08-10T13:02:45Z</time>
      </trkpt>
      <trkpt lat="48.25021" lon="-3.58351">
        <ele>96</ele>
        <time>2021-08-10T13:02:46Z</time>
      </trkpt>
      <trkpt lat="48.25024" lon="-3.58351">
        <ele>96</ele>
        <time>2021-08-10T13:02:47Z</time>
      </trkpt>
      <trkpt lat="48.25028" lon="-3.58351">
        <ele>96.2</ele>
        <time>2021-08-10T13:02:48Z</time>
      </trkpt>
      <trkpt lat="48.25032" lon="-3.5835">
        <ele>96.4</ele>
        <time>2021-08-10T13:02:49Z</time>
      </trkpt>
      <trkpt lat="48.25035" lon="-3.5835">
        <ele>96.6</ele>
        <time>2021-08-10T13:02:50Z</time>
      </trkpt>
      <trkpt lat="48.25042" lon="-3.58347">
        <ele>96.8</ele>
        <time>2021-08-10T13:02:52Z</time>
      </trkpt>
      <trkpt lat="48.25045" lon="-3.58346">
        <ele>97</ele>
        <time>2021-08-10T13:02:53Z</time>
      </trkpt>
      <trkpt lat="48.25048" lon="-3.58345">
        <ele>97</ele>
        <time>2021-08-10T13:02:54Z</time>
      </trkpt>
      <trkpt lat="48.25051" lon="-3.58344">
        <ele>97.4</ele>
        <time>2021-08-10T13:02:55Z</time>
      </trkpt>
      <trkpt lat="48.25053" lon="-3.58344">
        <ele>97.4</ele>
        <time>2021-08-10T13:02:56Z</time>
      </trkpt>
      <trkpt lat="48.25055" lon="-3.58344">
        <ele>97.4</ele>
        <time>2021-08-10T13:02:57Z</time>
      </trkpt>
      <trkpt lat="48.25057" lon="-3.58343">
        <ele>97.6</ele>
        <time>2021-08-10T13:02:58Z</time>
      </trkpt>
      <trkpt lat="48.25059" lon="-3.58342">
        <ele>97.6</ele>
        <time>2021-08-10T13:02:59Z</time>
      </trkpt>
      <trkpt lat="48.2506" lon="-3.58341">
        <ele>97.6</ele>
        <time>2021-08-10T13:03:00Z</time>
      </trkpt>
      <trkpt lat="48.25061" lon="-3.5834">
        <ele>97.8</ele>
        <time>2021-08-10T13:03:01Z</time>
      </trkpt>
      <trkpt lat="48.25063" lon="-3.58339">
        <ele>98</ele>
        <time>2021-08-10T13:03:02Z</time>
      </trkpt>
      <trkpt lat="48.25065" lon="-3.58339">
        <ele>98.2</ele>
        <time>2021-08-10T13:03:03Z</time>
      </trkpt>
      <trkpt lat="48.25068" lon="-3.58338">
        <ele>98.4</ele>
        <time>2021-08-10T13:03:04Z</time>
      </trkpt>
      <trkpt lat="48.25071" lon="-3.58338">
        <ele>98.6</ele>
        <time>2021-08-10T13:03:05Z</time>
      </trkpt>
      <trkpt lat="48.25074" lon="-3.58336">
        <ele>98.8</ele>
        <time>2021-08-10T13:03:06Z</time>
      </trkpt>
      <trkpt lat="48.25078" lon="-3.58334">
        <ele>98.8</ele>
        <time>2021-08-10T13:03:07Z</time>
      </trkpt>
      <trkpt lat="48.25081" lon="-3.58332">
        <ele>98.8</ele>
        <time>2021-08-10T13:03:08Z</time>
      </trkpt>
      <trkpt lat="48.25084" lon="-3.5833">
        <ele>98.8</ele>
        <time>2021-08-10T13:03:09Z</time>
      </trkpt>
      <trkpt lat="48.25087" lon="-3.58328">
        <ele>98.8</ele>
        <time>2021-08-10T13:03:10Z</time>
      </trkpt>
      <trkpt lat="48.25089" lon="-3.58326">
        <ele>99</ele>
        <time>2021-08-10T13:03:11Z</time>
      </trkpt>
      <trkpt lat="48.25091" lon="-3.58324">
        <ele>99</ele>
        <time>2021-08-10T13:03:12Z</time>
      </trkpt>
      <trkpt lat="48.25093" lon="-3.58322">
        <ele>99</ele>
        <time>2021-08-10T13:03:13Z</time>
      </trkpt>
      <trkpt lat="48.25095" lon="-3.58319">
        <ele>99</ele>
        <time>2021-08-10T13:03:14Z</time>
      </trkpt>
      <trkpt lat="48.25097" lon="-3.58318">
        <ele>99</ele>
        <time>2021-08-10T13:03:15Z</time>
      </trkpt>
      <trkpt lat="48.25098" lon="-3.58316">
        <ele>99.2</ele>
        <time>2021-08-10T13:03:16Z</time>
      </trkpt>
      <trkpt lat="48.251" lon="-3.58314">
        <ele>99.2</ele>
        <time>2021-08-10T13:03:17Z</time>
      </trkpt>
      <trkpt lat="48.25102" lon="-3.58312">
        <ele>99.2</ele>
        <time>2021-08-10T13:03:18Z</time>
      </trkpt>
      <trkpt lat="48.25104" lon="-3.5831">
        <ele>99.2</ele>
        <time>2021-08-10T13:03:19Z</time>
      </trkpt>
      <trkpt lat="48.25107" lon="-3.58307">
        <ele>99.2</ele>
        <time>2021-08-10T13:03:20Z</time>
      </trkpt>
      <trkpt lat="48.25109" lon="-3.58304">
        <ele>99.2</ele>
        <time>2021-08-10T13:03:21Z</time>
      </trkpt>
      <trkpt lat="48.25113" lon="-3.583">
        <ele>99.2</ele>
        <time>2021-08-10T13:03:22Z</time>
      </trkpt>
      <trkpt lat="48.25116" lon="-3.58297">
        <ele>99.2</ele>
        <time>2021-08-10T13:03:23Z</time>
      </trkpt>
      <trkpt lat="48.25119" lon="-3.58293">
        <ele>99.4</ele>
        <time>2021-08-10T13:03:24Z</time>
      </trkpt>
      <trkpt lat="48.25122" lon="-3.58289">
        <ele>99.4</ele>
        <time>2021-08-10T13:03:25Z</time>
      </trkpt>
      <trkpt lat="48.25125" lon="-3.58284">
        <ele>99.4</ele>
        <time>2021-08-10T13:03:26Z</time>
      </trkpt>
      <trkpt lat="48.25128" lon="-3.5828">
        <ele>99.6</ele>
        <time>2021-08-10T13:03:27Z</time>
      </trkpt>
      <trkpt lat="48.2513" lon="-3.58277">
        <ele>99.6</ele>
        <time>2021-08-10T13:03:28Z</time>
      </trkpt>
      <trkpt lat="48.25132" lon="-3.58274">
        <ele>99.6</ele>
        <time>2021-08-10T13:03:29Z</time>
      </trkpt>
      <trkpt lat="48.25133" lon="-3.58271">
        <ele>99.8</ele>
        <time>2021-08-10T13:03:30Z</time>
      </trkpt>
      <trkpt lat="48.25136" lon="-3.58266">
        <ele>99.8</ele>
        <time>2021-08-10T13:03:31Z</time>
      </trkpt>
      <trkpt lat="48.25139" lon="-3.58261">
        <ele>99.8</ele>
        <time>2021-08-10T13:03:32Z</time>
      </trkpt>
      <trkpt lat="48.25142" lon="-3.58257">
        <ele>100</ele>
        <time>2021-08-10T13:03:33Z</time>
      </trkpt>
      <trkpt lat="48.25144" lon="-3.58253">
        <ele>100</ele>
        <time>2021-08-10T13:03:34Z</time>
      </trkpt>
      <trkpt lat="48.25146" lon="-3.58249">
        <ele>100</ele>
        <time>2021-08-10T13:03:35Z</time>
      </trkpt>
      <trkpt lat="48.25149" lon="-3.58245">
        <ele>100</ele>
        <time>2021-08-10T13:03:36Z</time>
      </trkpt>
      <trkpt lat="48.25151" lon="-3.58241">
        <ele>100.2</ele>
        <time>2021-08-10T13:03:37Z</time>
      </trkpt>
      <trkpt lat="48.25153" lon="-3.58237">
        <ele>100.2</ele>
        <time>2021-08-10T13:03:38Z</time>
      </trkpt>
      <trkpt lat="48.25155" lon="-3.58233">
        <ele>100.2</ele>
        <time>2021-08-10T13:03:39Z</time>
      </trkpt>
      <trkpt lat="48.25157" lon="-3.58229">
        <ele>100.2</ele>
        <time>2021-08-10T13:03:40Z</time>
      </trkpt>
      <trkpt lat="48.25159" lon="-3.58226">
        <ele>100.4</ele>
        <time>2021-08-10T13:03:41Z</time>
      </trkpt>
      <trkpt lat="48.25162" lon="-3.58222">
        <ele>100.4</ele>
        <time>2021-08-10T13:03:42Z</time>
      </trkpt>
      <trkpt lat="48.25164" lon="-3.58219">
        <ele>100.4</ele>
        <time>2021-08-10T13:03:43Z</time>
      </trkpt>
      <trkpt lat="48.25167" lon="-3.58216">
        <ele>100.4</ele>
        <time>2021-08-10T13:03:44Z</time>
      </trkpt>
      <trkpt lat="48.25168" lon="-3.58212">
        <ele>100.4</ele>
        <time>2021-08-10T13:03:45Z</time>
      </trkpt>
      <trkpt lat="48.2517" lon="-3.58208">
        <ele>100.6</ele>
        <time>2021-08-10T13:03:46Z</time>
      </trkpt>
      <trkpt lat="48.25171" lon="-3.58204">
        <ele>100.6</ele>
        <time>2021-08-10T13:03:47Z</time>
      </trkpt>
      <trkpt lat="48.25173" lon="-3.58201">
        <ele>100.6</ele>
        <time>2021-08-10T13:03:48Z</time>
      </trkpt>
      <trkpt lat="48.25175" lon="-3.58197">
        <ele>100.6</ele>
        <time>2021-08-10T13:03:49Z</time>
      </trkpt>
      <trkpt lat="48.25177" lon="-3.58194">
        <ele>100.6</ele>
        <time>2021-08-10T13:03:50Z</time>
      </trkpt>
      <trkpt lat="48.25178" lon="-3.5819">
        <ele>100.6</ele>
        <time>2021-08-10T13:03:51Z</time>
      </trkpt>
      <trkpt lat="48.25179" lon="-3.58187">
        <ele>100.6</ele>
        <time>2021-08-10T13:03:52Z</time>
      </trkpt>
      <trkpt lat="48.25181" lon="-3.58184">
        <ele>100.8</ele>
        <time>2021-08-10T13:03:53Z</time>
      </trkpt>
      <trkpt lat="48.25183" lon="-3.5818">
        <ele>101</ele>
        <time>2021-08-10T13:03:54Z</time>
      </trkpt>
      <trkpt lat="48.25186" lon="-3.58175">
        <ele>101.2</ele>
        <time>2021-08-10T13:03:55Z</time>
      </trkpt>
      <trkpt lat="48.25188" lon="-3.58171">
        <ele>101.2</ele>
        <time>2021-08-10T13:03:56Z</time>
      </trkpt>
      <trkpt lat="48.25191" lon="-3.58167">
        <ele>101.2</ele>
        <time>2021-08-10T13:03:57Z</time>
      </trkpt>
      <trkpt lat="48.25193" lon="-3.58163">
        <ele>101.4</ele>
        <time>2021-08-10T13:03:58Z</time>
      </trkpt>
      <trkpt lat="48.25195" lon="-3.5816">
        <ele>101.6</ele>
        <time>2021-08-10T13:03:59Z</time>
      </trkpt>
      <trkpt lat="48.25197" lon="-3.58157">
        <ele>101.8</ele>
        <time>2021-08-10T13:04:00Z</time>
      </trkpt>
      <trkpt lat="48.25198" lon="-3.58154">
        <ele>102</ele>
        <time>2021-08-10T13:04:01Z</time>
      </trkpt>
      <trkpt lat="48.252" lon="-3.58151">
        <ele>102.2</ele>
        <time>2021-08-10T13:04:02Z</time>
      </trkpt>
      <trkpt lat="48.25202" lon="-3.58148">
        <ele>102.4</ele>
        <time>2021-08-10T13:04:03Z</time>
      </trkpt>
      <trkpt lat="48.25205" lon="-3.58144">
        <ele>102.4</ele>
        <time>2021-08-10T13:04:04Z</time>
      </trkpt>
      <trkpt lat="48.25207" lon="-3.5814">
        <ele>102.4</ele>
        <time>2021-08-10T13:04:05Z</time>
      </trkpt>
      <trkpt lat="48.2521" lon="-3.58135">
        <ele>102.6</ele>
        <time>2021-08-10T13:04:06Z</time>
      </trkpt>
      <trkpt lat="48.25213" lon="-3.58131">
        <ele>102.6</ele>
        <time>2021-08-10T13:04:07Z</time>
      </trkpt>
      <trkpt lat="48.25216" lon="-3.58128">
        <ele>102.8</ele>
        <time>2021-08-10T13:04:08Z</time>
      </trkpt>
      <trkpt lat="48.25218" lon="-3.58125">
        <ele>102.8</ele>
        <time>2021-08-10T13:04:09Z</time>
      </trkpt>
      <trkpt lat="48.2522" lon="-3.58122">
        <ele>102.8</ele>
        <time>2021-08-10T13:04:10Z</time>
      </trkpt>
      <trkpt lat="48.25224" lon="-3.58118">
        <ele>103</ele>
        <time>2021-08-10T13:04:11Z</time>
      </trkpt>
      <trkpt lat="48.25228" lon="-3.58114">
        <ele>103</ele>
        <time>2021-08-10T13:04:12Z</time>
      </trkpt>
      <trkpt lat="48.25233" lon="-3.58109">
        <ele>103</ele>
        <time>2021-08-10T13:04:13Z</time>
      </trkpt>
      <trkpt lat="48.25238" lon="-3.58103">
        <ele>103.2</ele>
        <time>2021-08-10T13:04:14Z</time>
      </trkpt>
      <trkpt lat="48.25244" lon="-3.58098">
        <ele>103.2</ele>
        <time>2021-08-10T13:04:15Z</time>
      </trkpt>
      <trkpt lat="48.25248" lon="-3.58094">
        <ele>103.4</ele>
        <time>2021-08-10T13:04:16Z</time>
      </trkpt>
      <trkpt lat="48.25252" lon="-3.5809">
        <ele>103.6</ele>
        <time>2021-08-10T13:04:17Z</time>
      </trkpt>
      <trkpt lat="48.25255" lon="-3.58087">
        <ele>103.8</ele>
        <time>2021-08-10T13:04:18Z</time>
      </trkpt>
      <trkpt lat="48.25258" lon="-3.58083">
        <ele>103.8</ele>
        <time>2021-08-10T13:04:19Z</time>
      </trkpt>
      <trkpt lat="48.25262" lon="-3.5808">
        <ele>104</ele>
        <time>2021-08-10T13:04:20Z</time>
      </trkpt>
      <trkpt lat="48.25266" lon="-3.58076">
        <ele>104</ele>
        <time>2021-08-10T13:04:21Z</time>
      </trkpt>
      <trkpt lat="48.2527" lon="-3.58073">
        <ele>104.2</ele>
        <time>2021-08-10T13:04:22Z</time>
      </trkpt>
      <trkpt lat="48.25274" lon="-3.5807">
        <ele>104.2</ele>
        <time>2021-08-10T13:04:23Z</time>
      </trkpt>
      <trkpt lat="48.25277" lon="-3.58067">
        <ele>104.2</ele>
        <time>2021-08-10T13:04:24Z</time>
      </trkpt>
      <trkpt lat="48.25281" lon="-3.58064">
        <ele>104.2</ele>
        <time>2021-08-10T13:04:25Z</time>
      </trkpt>
      <trkpt lat="48.25286" lon="-3.58061">
        <ele>104.4</ele>
        <time>2021-08-10T13:04:26Z</time>
      </trkpt>
      <trkpt lat="48.2529" lon="-3.58057">
        <ele>104.6</ele>
        <time>2021-08-10T13:04:27Z</time>
      </trkpt>
      <trkpt lat="48.25293" lon="-3.58055">
        <ele>104.6</ele>
        <time>2021-08-10T13:04:28Z</time>
      </trkpt>
      <trkpt lat="48.25297" lon="-3.58051">
        <ele>104.8</ele>
        <time>2021-08-10T13:04:29Z</time>
      </trkpt>
      <trkpt lat="48.253" lon="-3.58048">
        <ele>104.8</ele>
        <time>2021-08-10T13:04:30Z</time>
      </trkpt>
      <trkpt lat="48.25303" lon="-3.58045">
        <ele>104.8</ele>
        <time>2021-08-10T13:04:31Z</time>
      </trkpt>
      <trkpt lat="48.25307" lon="-3.58042">
        <ele>105</ele>
        <time>2021-08-10T13:04:32Z</time>
      </trkpt>
      <trkpt lat="48.2531" lon="-3.58039">
        <ele>105</ele>
        <time>2021-08-10T13:04:33Z</time>
      </trkpt>
      <trkpt lat="48.25314" lon="-3.58036">
        <ele>105</ele>
        <time>2021-08-10T13:04:34Z</time>
      </trkpt>
      <trkpt lat="48.25318" lon="-3.58033">
        <ele>105.2</ele>
        <time>2021-08-10T13:04:35Z</time>
      </trkpt>
      <trkpt lat="48.25321" lon="-3.5803">
        <ele>105.2</ele>
        <time>2021-08-10T13:04:36Z</time>
      </trkpt>
      <trkpt lat="48.25325" lon="-3.58027">
        <ele>105.6</ele>
        <time>2021-08-10T13:04:37Z</time>
      </trkpt>
      <trkpt lat="48.25329" lon="-3.58023">
        <ele>105.4</ele>
        <time>2021-08-10T13:04:38Z</time>
      </trkpt>
      <trkpt lat="48.25333" lon="-3.5802">
        <ele>105.6</ele>
        <time>2021-08-10T13:04:39Z</time>
      </trkpt>
      <trkpt lat="48.25337" lon="-3.58017">
        <ele>105.6</ele>
        <time>2021-08-10T13:04:40Z</time>
      </trkpt>
      <trkpt lat="48.25341" lon="-3.58014">
        <ele>105.8</ele>
        <time>2021-08-10T13:04:41Z</time>
      </trkpt>
      <trkpt lat="48.25344" lon="-3.5801">
        <ele>105.8</ele>
        <time>2021-08-10T13:04:42Z</time>
      </trkpt>
      <trkpt lat="48.25347" lon="-3.58007">
        <ele>105.8</ele>
        <time>2021-08-10T13:04:43Z</time>
      </trkpt>
      <trkpt lat="48.2535" lon="-3.58004">
        <ele>105.8</ele>
        <time>2021-08-10T13:04:44Z</time>
      </trkpt>
      <trkpt lat="48.25353" lon="-3.58001">
        <ele>105.8</ele>
        <time>2021-08-10T13:04:45Z</time>
      </trkpt>
      <trkpt lat="48.25357" lon="-3.57998">
        <ele>105.8</ele>
        <time>2021-08-10T13:04:46Z</time>
      </trkpt>
      <trkpt lat="48.25361" lon="-3.57994">
        <ele>105.8</ele>
        <time>2021-08-10T13:04:47Z</time>
      </trkpt>
      <trkpt lat="48.25365" lon="-3.5799">
        <ele>106</ele>
        <time>2021-08-10T13:04:48Z</time>
      </trkpt>
      <trkpt lat="48.25369" lon="-3.57987">
        <ele>106</ele>
        <time>2021-08-10T13:04:49Z</time>
      </trkpt>
      <trkpt lat="48.25373" lon="-3.57983">
        <ele>106.2</ele>
        <time>2021-08-10T13:04:50Z</time>
      </trkpt>
      <trkpt lat="48.25376" lon="-3.5798">
        <ele>106.2</ele>
        <time>2021-08-10T13:04:51Z</time>
      </trkpt>
      <trkpt lat="48.2538" lon="-3.57976">
        <ele>106.2</ele>
        <time>2021-08-10T13:04:52Z</time>
      </trkpt>
      <trkpt lat="48.25384" lon="-3.57973">
        <ele>106.2</ele>
        <time>2021-08-10T13:04:53Z</time>
      </trkpt>
      <trkpt lat="48.25388" lon="-3.5797">
        <ele>106.4</ele>
        <time>2021-08-10T13:04:54Z</time>
      </trkpt>
      <trkpt lat="48.25392" lon="-3.57967">
        <ele>106.4</ele>
        <time>2021-08-10T13:04:55Z</time>
      </trkpt>
      <trkpt lat="48.25396" lon="-3.57964">
        <ele>106.4</ele>
        <time>2021-08-10T13:04:56Z</time>
      </trkpt>
      <trkpt lat="48.25399" lon="-3.57961">
        <ele>106.6</ele>
        <time>2021-08-10T13:04:57Z</time>
      </trkpt>
      <trkpt lat="48.25403" lon="-3.57959">
        <ele>106.6</ele>
        <time>2021-08-10T13:04:58Z</time>
      </trkpt>
      <trkpt lat="48.25406" lon="-3.57956">
        <ele>106.8</ele>
        <time>2021-08-10T13:04:59Z</time>
      </trkpt>
      <trkpt lat="48.25408" lon="-3.57954">
        <ele>107</ele>
        <time>2021-08-10T13:05:00Z</time>
      </trkpt>
      <trkpt lat="48.2541" lon="-3.57953">
        <ele>107</ele>
        <time>2021-08-10T13:05:01Z</time>
      </trkpt>
      <trkpt lat="48.25412" lon="-3.57951">
        <ele>107.2</ele>
        <time>2021-08-10T13:05:02Z</time>
      </trkpt>
      <trkpt lat="48.25414" lon="-3.57949">
        <ele>107.2</ele>
        <time>2021-08-10T13:05:03Z</time>
      </trkpt>
      <trkpt lat="48.25417" lon="-3.57947">
        <ele>107.2</ele>
        <time>2021-08-10T13:05:04Z</time>
      </trkpt>
      <trkpt lat="48.25419" lon="-3.57944">
        <ele>107.2</ele>
        <time>2021-08-10T13:05:05Z</time>
      </trkpt>
      <trkpt lat="48.25422" lon="-3.57941">
        <ele>107.2</ele>
        <time>2021-08-10T13:05:06Z</time>
      </trkpt>
      <trkpt lat="48.25424" lon="-3.57939">
        <ele>107.2</ele>
        <time>2021-08-10T13:05:07Z</time>
      </trkpt>
      <trkpt lat="48.25426" lon="-3.57936">
        <ele>107.2</ele>
        <time>2021-08-10T13:05:08Z</time>
      </trkpt>
      <trkpt lat="48.25429" lon="-3.57934">
        <ele>107.2</ele>
        <time>2021-08-10T13:05:09Z</time>
      </trkpt>
      <trkpt lat="48.25431" lon="-3.57932">
        <ele>107.2</ele>
        <time>2021-08-10T13:05:10Z</time>
      </trkpt>
      <trkpt lat="48.25434" lon="-3.57931">
        <ele>107.2</ele>
        <time>2021-08-10T13:05:11Z</time>
      </trkpt>
      <trkpt lat="48.25437" lon="-3.57929">
        <ele>107.2</ele>
        <time>2021-08-10T13:05:12Z</time>
      </trkpt>
      <trkpt lat="48.2544" lon="-3.57928">
        <ele>106.8</ele>
        <time>2021-08-10T13:05:13Z</time>
      </trkpt>
      <trkpt lat="48.25443" lon="-3.57926">
        <ele>106.6</ele>
        <time>2021-08-10T13:05:14Z</time>
      </trkpt>
      <trkpt lat="48.25446" lon="-3.57925">
        <ele>106.2</ele>
        <time>2021-08-10T13:05:15Z</time>
      </trkpt>
      <trkpt lat="48.25448" lon="-3.57923">
        <ele>105.8</ele>
        <time>2021-08-10T13:05:16Z</time>
      </trkpt>
      <trkpt lat="48.25451" lon="-3.5792">
        <ele>105.6</ele>
        <time>2021-08-10T13:05:17Z</time>
      </trkpt>
      <trkpt lat="48.25453" lon="-3.57917">
        <ele>105.6</ele>
        <time>2021-08-10T13:05:18Z</time>
      </trkpt>
      <trkpt lat="48.25455" lon="-3.57914">
        <ele>105.6</ele>
        <time>2021-08-10T13:05:19Z</time>
      </trkpt>
      <trkpt lat="48.25457" lon="-3.57911">
        <ele>105.6</ele>
        <time>2021-08-10T13:05:20Z</time>
      </trkpt>
      <trkpt lat="48.25459" lon="-3.57909">
        <ele>105.6</ele>
        <time>2021-08-10T13:05:21Z</time>
      </trkpt>
      <trkpt lat="48.2546" lon="-3.57908">
        <ele>105.6</ele>
        <time>2021-08-10T13:05:22Z</time>
      </trkpt>
      <trkpt lat="48.25462" lon="-3.57907">
        <ele>105.6</ele>
        <time>2021-08-10T13:05:23Z</time>
      </trkpt>
      <trkpt lat="48.25464" lon="-3.57906">
        <ele>105.6</ele>
        <time>2021-08-10T13:05:24Z</time>
      </trkpt>
      <trkpt lat="48.25465" lon="-3.57904">
        <ele>105.6</ele>
        <time>2021-08-10T13:05:25Z</time>
      </trkpt>
      <trkpt lat="48.25467" lon="-3.57903">
        <ele>105.8</ele>
        <time>2021-08-10T13:05:26Z</time>
      </trkpt>
      <trkpt lat="48.25468" lon="-3.57901">
        <ele>106.2</ele>
        <time>2021-08-10T13:05:27Z</time>
      </trkpt>
      <trkpt lat="48.2547" lon="-3.57899">
        <ele>106.4</ele>
        <time>2021-08-10T13:05:28Z</time>
      </trkpt>
      <trkpt lat="48.25472" lon="-3.57898">
        <ele>106.8</ele>
        <time>2021-08-10T13:05:29Z</time>
      </trkpt>
      <trkpt lat="48.25473" lon="-3.57896">
        <ele>107.2</ele>
        <time>2021-08-10T13:05:30Z</time>
      </trkpt>
      <trkpt lat="48.25475" lon="-3.57895">
        <ele>107.8</ele>
        <time>2021-08-10T13:05:31Z</time>
      </trkpt>
      <trkpt lat="48.25477" lon="-3.57893">
        <ele>108.2</ele>
        <time>2021-08-10T13:05:32Z</time>
      </trkpt>
      <trkpt lat="48.25479" lon="-3.5789">
        <ele>108.4</ele>
        <time>2021-08-10T13:05:33Z</time>
      </trkpt>
      <trkpt lat="48.25481" lon="-3.57888">
        <ele>108.8</ele>
        <time>2021-08-10T13:05:34Z</time>
      </trkpt>
      <trkpt lat="48.25483" lon="-3.57885">
        <ele>109</ele>
        <time>2021-08-10T13:05:35Z</time>
      </trkpt>
      <trkpt lat="48.25487" lon="-3.57882">
        <ele>109.2</ele>
        <time>2021-08-10T13:05:36Z</time>
      </trkpt>
      <trkpt lat="48.2549" lon="-3.57879">
        <ele>109.6</ele>
        <time>2021-08-10T13:05:37Z</time>
      </trkpt>
      <trkpt lat="48.25493" lon="-3.57877">
        <ele>109.8</ele>
        <time>2021-08-10T13:05:38Z</time>
      </trkpt>
      <trkpt lat="48.25496" lon="-3.57874">
        <ele>110</ele>
        <time>2021-08-10T13:05:39Z</time>
      </trkpt>
      <trkpt lat="48.25499" lon="-3.57873">
        <ele>110</ele>
        <time>2021-08-10T13:05:40Z</time>
      </trkpt>
      <trkpt lat="48.25501" lon="-3.57871">
        <ele>110.2</ele>
        <time>2021-08-10T13:05:41Z</time>
      </trkpt>
      <trkpt lat="48.25502" lon="-3.57869">
        <ele>110.4</ele>
        <time>2021-08-10T13:05:42Z</time>
      </trkpt>
      <trkpt lat="48.25505" lon="-3.57866">
        <ele>110.6</ele>
        <time>2021-08-10T13:05:43Z</time>
      </trkpt>
      <trkpt lat="48.25507" lon="-3.57865">
        <ele>110.6</ele>
        <time>2021-08-10T13:05:44Z</time>
      </trkpt>
      <trkpt lat="48.25509" lon="-3.57863">
        <ele>110.6</ele>
        <time>2021-08-10T13:05:45Z</time>
      </trkpt>
      <trkpt lat="48.25511" lon="-3.57861">
        <ele>110.6</ele>
        <time>2021-08-10T13:05:46Z</time>
      </trkpt>
      <trkpt lat="48.25513" lon="-3.5786">
        <ele>110.8</ele>
        <time>2021-08-10T13:05:47Z</time>
      </trkpt>
      <trkpt lat="48.25516" lon="-3.57858">
        <ele>110.8</ele>
        <time>2021-08-10T13:05:48Z</time>
      </trkpt>
      <trkpt lat="48.25518" lon="-3.57856">
        <ele>110.8</ele>
        <time>2021-08-10T13:05:49Z</time>
      </trkpt>
      <trkpt lat="48.25521" lon="-3.57853">
        <ele>110.8</ele>
        <time>2021-08-10T13:05:50Z</time>
      </trkpt>
      <trkpt lat="48.25523" lon="-3.57851">
        <ele>110.8</ele>
        <time>2021-08-10T13:05:51Z</time>
      </trkpt>
      <trkpt lat="48.25525" lon="-3.57849">
        <ele>110.8</ele>
        <time>2021-08-10T13:05:52Z</time>
      </trkpt>
      <trkpt lat="48.25527" lon="-3.57847">
        <ele>110.8</ele>
        <time>2021-08-10T13:05:53Z</time>
      </trkpt>
      <trkpt lat="48.25529" lon="-3.57846">
        <ele>110.8</ele>
        <time>2021-08-10T13:05:54Z</time>
      </trkpt>
      <trkpt lat="48.25532" lon="-3.57845">
        <ele>110.8</ele>
        <time>2021-08-10T13:05:55Z</time>
      </trkpt>
      <trkpt lat="48.25534" lon="-3.57844">
        <ele>110.8</ele>
        <time>2021-08-10T13:05:56Z</time>
      </trkpt>
      <trkpt lat="48.25536" lon="-3.57843">
        <ele>110.8</ele>
        <time>2021-08-10T13:05:57Z</time>
      </trkpt>
      <trkpt lat="48.25538" lon="-3.57841">
        <ele>110.8</ele>
        <time>2021-08-10T13:05:58Z</time>
      </trkpt>
      <trkpt lat="48.25541" lon="-3.5784">
        <ele>110.8</ele>
        <time>2021-08-10T13:05:59Z</time>
      </trkpt>
      <trkpt lat="48.25544" lon="-3.57839">
        <ele>110.8</ele>
        <time>2021-08-10T13:06:00Z</time>
      </trkpt>
      <trkpt lat="48.25547" lon="-3.57838">
        <ele>110.8</ele>
        <time>2021-08-10T13:06:01Z</time>
      </trkpt>
      <trkpt lat="48.2555" lon="-3.57837">
        <ele>110.8</ele>
        <time>2021-08-10T13:06:02Z</time>
      </trkpt>
      <trkpt lat="48.25553" lon="-3.57836">
        <ele>110.8</ele>
        <time>2021-08-10T13:06:03Z</time>
      </trkpt>
      <trkpt lat="48.25557" lon="-3.57833">
        <ele>111</ele>
        <time>2021-08-10T13:06:04Z</time>
      </trkpt>
      <trkpt lat="48.25561" lon="-3.57831">
        <ele>111</ele>
        <time>2021-08-10T13:06:05Z</time>
      </trkpt>
      <trkpt lat="48.25563" lon="-3.57829">
        <ele>111</ele>
        <time>2021-08-10T13:06:06Z</time>
      </trkpt>
      <trkpt lat="48.25566" lon="-3.57828">
        <ele>111</ele>
        <time>2021-08-10T13:06:07Z</time>
      </trkpt>
      <trkpt lat="48.2557" lon="-3.57826">
        <ele>111</ele>
        <time>2021-08-10T13:06:08Z</time>
      </trkpt>
      <trkpt lat="48.25573" lon="-3.57824">
        <ele>111.2</ele>
        <time>2021-08-10T13:06:09Z</time>
      </trkpt>
      <trkpt lat="48.25577" lon="-3.57823">
        <ele>111.2</ele>
        <time>2021-08-10T13:06:10Z</time>
      </trkpt>
      <trkpt lat="48.2558" lon="-3.57822">
        <ele>111.4</ele>
        <time>2021-08-10T13:06:11Z</time>
      </trkpt>
      <trkpt lat="48.25584" lon="-3.5782">
        <ele>111.6</ele>
        <time>2021-08-10T13:06:12Z</time>
      </trkpt>
      <trkpt lat="48.25588" lon="-3.57818">
        <ele>111.4</ele>
        <time>2021-08-10T13:06:13Z</time>
      </trkpt>
      <trkpt lat="48.25593" lon="-3.57817">
        <ele>111.8</ele>
        <time>2021-08-10T13:06:14Z</time>
      </trkpt>
      <trkpt lat="48.25598" lon="-3.57816">
        <ele>111.8</ele>
        <time>2021-08-10T13:06:15Z</time>
      </trkpt>
      <trkpt lat="48.25602" lon="-3.57815">
        <ele>111.8</ele>
        <time>2021-08-10T13:06:16Z</time>
      </trkpt>
      <trkpt lat="48.25606" lon="-3.57814">
        <ele>112</ele>
        <time>2021-08-10T13:06:17Z</time>
      </trkpt>
      <trkpt lat="48.25609" lon="-3.57814">
        <ele>112</ele>
        <time>2021-08-10T13:06:18Z</time>
      </trkpt>
      <trkpt lat="48.25611" lon="-3.57813">
        <ele>112</ele>
        <time>2021-08-10T13:06:19Z</time>
      </trkpt>
      <trkpt lat="48.25615" lon="-3.57813">
        <ele>112</ele>
        <time>2021-08-10T13:06:20Z</time>
      </trkpt>
      <trkpt lat="48.25618" lon="-3.57813">
        <ele>112.2</ele>
        <time>2021-08-10T13:06:21Z</time>
      </trkpt>
      <trkpt lat="48.25622" lon="-3.57813">
        <ele>112.2</ele>
        <time>2021-08-10T13:06:22Z</time>
      </trkpt>
      <trkpt lat="48.25626" lon="-3.57812">
        <ele>112.2</ele>
        <time>2021-08-10T13:06:23Z</time>
      </trkpt>
      <trkpt lat="48.25629" lon="-3.57811">
        <ele>112.2</ele>
        <time>2021-08-10T13:06:24Z</time>
      </trkpt>
      <trkpt lat="48.25632" lon="-3.57811">
        <ele>112.2</ele>
        <time>2021-08-10T13:06:25Z</time>
      </trkpt>
      <trkpt lat="48.25636" lon="-3.5781">
        <ele>112.4</ele>
        <time>2021-08-10T13:06:26Z</time>
      </trkpt>
      <trkpt lat="48.2564" lon="-3.57809">
        <ele>112.4</ele>
        <time>2021-08-10T13:06:27Z</time>
      </trkpt>
      <trkpt lat="48.25644" lon="-3.57809">
        <ele>112.4</ele>
        <time>2021-08-10T13:06:28Z</time>
      </trkpt>
      <trkpt lat="48.25647" lon="-3.57809">
        <ele>112.6</ele>
        <time>2021-08-10T13:06:29Z</time>
      </trkpt>
      <trkpt lat="48.25651" lon="-3.5781">
        <ele>112.8</ele>
        <time>2021-08-10T13:06:30Z</time>
      </trkpt>
      <trkpt lat="48.25654" lon="-3.57811">
        <ele>112.8</ele>
        <time>2021-08-10T13:06:31Z</time>
      </trkpt>
      <trkpt lat="48.25658" lon="-3.57812">
        <ele>112.8</ele>
        <time>2021-08-10T13:06:32Z</time>
      </trkpt>
      <trkpt lat="48.25661" lon="-3.57812">
        <ele>112.8</ele>
        <time>2021-08-10T13:06:33Z</time>
      </trkpt>
      <trkpt lat="48.25665" lon="-3.57812">
        <ele>113</ele>
        <time>2021-08-10T13:06:34Z</time>
      </trkpt>
      <trkpt lat="48.25669" lon="-3.57812">
        <ele>113.2</ele>
        <time>2021-08-10T13:06:35Z</time>
      </trkpt>
      <trkpt lat="48.25674" lon="-3.57812">
        <ele>113.2</ele>
        <time>2021-08-10T13:06:36Z</time>
      </trkpt>
      <trkpt lat="48.25678" lon="-3.57812">
        <ele>113.4</ele>
        <time>2021-08-10T13:06:37Z</time>
      </trkpt>
      <trkpt lat="48.25682" lon="-3.57813">
        <ele>113.4</ele>
        <time>2021-08-10T13:06:38Z</time>
      </trkpt>
      <trkpt lat="48.25685" lon="-3.57814">
        <ele>113.4</ele>
        <time>2021-08-10T13:06:39Z</time>
      </trkpt>
      <trkpt lat="48.25688" lon="-3.57816">
        <ele>113.6</ele>
        <time>2021-08-10T13:06:40Z</time>
      </trkpt>
      <trkpt lat="48.25692" lon="-3.57816">
        <ele>113.8</ele>
        <time>2021-08-10T13:06:41Z</time>
      </trkpt>
      <trkpt lat="48.25696" lon="-3.57817">
        <ele>114</ele>
        <time>2021-08-10T13:06:42Z</time>
      </trkpt>
      <trkpt lat="48.25699" lon="-3.57818">
        <ele>114</ele>
        <time>2021-08-10T13:06:43Z</time>
      </trkpt>
      <trkpt lat="48.25703" lon="-3.57819">
        <ele>114.2</ele>
        <time>2021-08-10T13:06:44Z</time>
      </trkpt>
      <trkpt lat="48.25706" lon="-3.5782">
        <ele>114.4</ele>
        <time>2021-08-10T13:06:45Z</time>
      </trkpt>
      <trkpt lat="48.2571" lon="-3.57822">
        <ele>114.4</ele>
        <time>2021-08-10T13:06:46Z</time>
      </trkpt>
      <trkpt lat="48.25712" lon="-3.57824">
        <ele>114.6</ele>
        <time>2021-08-10T13:06:47Z</time>
      </trkpt>
      <trkpt lat="48.25714" lon="-3.57827">
        <ele>114.8</ele>
        <time>2021-08-10T13:06:48Z</time>
      </trkpt>
      <trkpt lat="48.25717" lon="-3.57829">
        <ele>114.8</ele>
        <time>2021-08-10T13:06:49Z</time>
      </trkpt>
      <trkpt lat="48.25722" lon="-3.57832">
        <ele>115</ele>
        <time>2021-08-10T13:06:50Z</time>
      </trkpt>
      <trkpt lat="48.25725" lon="-3.57834">
        <ele>115</ele>
        <time>2021-08-10T13:06:51Z</time>
      </trkpt>
      <trkpt lat="48.25729" lon="-3.57837">
        <ele>115</ele>
        <time>2021-08-10T13:06:52Z</time>
      </trkpt>
      <trkpt lat="48.25734" lon="-3.57839">
        <ele>115.2</ele>
        <time>2021-08-10T13:06:53Z</time>
      </trkpt>
      <trkpt lat="48.25738" lon="-3.57842">
        <ele>115.4</ele>
        <time>2021-08-10T13:06:54Z</time>
      </trkpt>
      <trkpt lat="48.25742" lon="-3.57844">
        <ele>115.4</ele>
        <time>2021-08-10T13:06:55Z</time>
      </trkpt>
      <trkpt lat="48.25746" lon="-3.57847">
        <ele>115.6</ele>
        <time>2021-08-10T13:06:56Z</time>
      </trkpt>
      <trkpt lat="48.2575" lon="-3.57849">
        <ele>115.8</ele>
        <time>2021-08-10T13:06:57Z</time>
      </trkpt>
      <trkpt lat="48.25753" lon="-3.57851">
        <ele>116</ele>
        <time>2021-08-10T13:06:58Z</time>
      </trkpt>
      <trkpt lat="48.25757" lon="-3.57854">
        <ele>116</ele>
        <time>2021-08-10T13:06:59Z</time>
      </trkpt>
      <trkpt lat="48.2576" lon="-3.57856">
        <ele>116.2</ele>
        <time>2021-08-10T13:07:00Z</time>
      </trkpt>
      <trkpt lat="48.25763" lon="-3.57857">
        <ele>116.2</ele>
        <time>2021-08-10T13:07:01Z</time>
      </trkpt>
      <trkpt lat="48.25766" lon="-3.57859">
        <ele>116.4</ele>
        <time>2021-08-10T13:07:02Z</time>
      </trkpt>
      <trkpt lat="48.2577" lon="-3.5786">
        <ele>116.4</ele>
        <time>2021-08-10T13:07:03Z</time>
      </trkpt>
      <trkpt lat="48.25775" lon="-3.57861">
        <ele>116.6</ele>
        <time>2021-08-10T13:07:04Z</time>
      </trkpt>
      <trkpt lat="48.25779" lon="-3.57862">
        <ele>116.6</ele>
        <time>2021-08-10T13:07:05Z</time>
      </trkpt>
      <trkpt lat="48.25783" lon="-3.57863">
        <ele>116.6</ele>
        <time>2021-08-10T13:07:06Z</time>
      </trkpt>
      <trkpt lat="48.25787" lon="-3.57864">
        <ele>116.6</ele>
        <time>2021-08-10T13:07:07Z</time>
      </trkpt>
      <trkpt lat="48.25791" lon="-3.57865">
        <ele>116.6</ele>
        <time>2021-08-10T13:07:08Z</time>
      </trkpt>
      <trkpt lat="48.25796" lon="-3.57866">
        <ele>116.6</ele>
        <time>2021-08-10T13:07:09Z</time>
      </trkpt>
      <trkpt lat="48.25801" lon="-3.57867">
        <ele>116.6</ele>
        <time>2021-08-10T13:07:10Z</time>
      </trkpt>
      <trkpt lat="48.25805" lon="-3.57868">
        <ele>116.6</ele>
        <time>2021-08-10T13:07:11Z</time>
      </trkpt>
      <trkpt lat="48.2581" lon="-3.57869">
        <ele>116.6</ele>
        <time>2021-08-10T13:07:12Z</time>
      </trkpt>
      <trkpt lat="48.25815" lon="-3.5787">
        <ele>116.6</ele>
        <time>2021-08-10T13:07:13Z</time>
      </trkpt>
      <trkpt lat="48.25818" lon="-3.5787">
        <ele>116.8</ele>
        <time>2021-08-10T13:07:14Z</time>
      </trkpt>
      <trkpt lat="48.25821" lon="-3.57872">
        <ele>116.8</ele>
        <time>2021-08-10T13:07:15Z</time>
      </trkpt>
      <trkpt lat="48.25824" lon="-3.57873">
        <ele>116.8</ele>
        <time>2021-08-10T13:07:16Z</time>
      </trkpt>
      <trkpt lat="48.25827" lon="-3.57876">
        <ele>116.8</ele>
        <time>2021-08-10T13:07:17Z</time>
      </trkpt>
      <trkpt lat="48.2583" lon="-3.57877">
        <ele>116.8</ele>
        <time>2021-08-10T13:07:18Z</time>
      </trkpt>
      <trkpt lat="48.25833" lon="-3.57878">
        <ele>116.8</ele>
        <time>2021-08-10T13:07:19Z</time>
      </trkpt>
      <trkpt lat="48.25837" lon="-3.5788">
        <ele>116.8</ele>
        <time>2021-08-10T13:07:20Z</time>
      </trkpt>
      <trkpt lat="48.25841" lon="-3.57881">
        <ele>117</ele>
        <time>2021-08-10T13:07:21Z</time>
      </trkpt>
      <trkpt lat="48.25846" lon="-3.57882">
        <ele>117</ele>
        <time>2021-08-10T13:07:22Z</time>
      </trkpt>
      <trkpt lat="48.25851" lon="-3.57882">
        <ele>117</ele>
        <time>2021-08-10T13:07:23Z</time>
      </trkpt>
      <trkpt lat="48.25856" lon="-3.57882">
        <ele>117.2</ele>
        <time>2021-08-10T13:07:24Z</time>
      </trkpt>
      <trkpt lat="48.2586" lon="-3.57882">
        <ele>117.4</ele>
        <time>2021-08-10T13:07:25Z</time>
      </trkpt>
      <trkpt lat="48.25864" lon="-3.57882">
        <ele>117.4</ele>
        <time>2021-08-10T13:07:26Z</time>
      </trkpt>
      <trkpt lat="48.25869" lon="-3.57881">
        <ele>117.6</ele>
        <time>2021-08-10T13:07:27Z</time>
      </trkpt>
      <trkpt lat="48.25873" lon="-3.57881">
        <ele>117.8</ele>
        <time>2021-08-10T13:07:28Z</time>
      </trkpt>
      <trkpt lat="48.25877" lon="-3.57881">
        <ele>117.8</ele>
        <time>2021-08-10T13:07:29Z</time>
      </trkpt>
      <trkpt lat="48.25881" lon="-3.57881">
        <ele>118</ele>
        <time>2021-08-10T13:07:30Z</time>
      </trkpt>
      <trkpt lat="48.25884" lon="-3.57882">
        <ele>118</ele>
        <time>2021-08-10T13:07:31Z</time>
      </trkpt>
      <trkpt lat="48.25887" lon="-3.57882">
        <ele>118</ele>
        <time>2021-08-10T13:07:32Z</time>
      </trkpt>
      <trkpt lat="48.25889" lon="-3.57883">
        <ele>118.2</ele>
        <time>2021-08-10T13:07:33Z</time>
      </trkpt>
      <trkpt lat="48.25893" lon="-3.57882">
        <ele>118.2</ele>
        <time>2021-08-10T13:07:34Z</time>
      </trkpt>
      <trkpt lat="48.25895" lon="-3.57882">
        <ele>118.2</ele>
        <time>2021-08-10T13:07:35Z</time>
      </trkpt>
      <trkpt lat="48.25898" lon="-3.57881">
        <ele>118.4</ele>
        <time>2021-08-10T13:07:36Z</time>
      </trkpt>
      <trkpt lat="48.25902" lon="-3.57881">
        <ele>118.6</ele>
        <time>2021-08-10T13:07:37Z</time>
      </trkpt>
      <trkpt lat="48.25905" lon="-3.5788">
        <ele>118.8</ele>
        <time>2021-08-10T13:07:38Z</time>
      </trkpt>
      <trkpt lat="48.25909" lon="-3.57879">
        <ele>118.8</ele>
        <time>2021-08-10T13:07:39Z</time>
      </trkpt>
      <trkpt lat="48.25913" lon="-3.57878">
        <ele>118.8</ele>
        <time>2021-08-10T13:07:40Z</time>
      </trkpt>
      <trkpt lat="48.25917" lon="-3.57877">
        <ele>119</ele>
        <time>2021-08-10T13:07:41Z</time>
      </trkpt>
      <trkpt lat="48.25921" lon="-3.57876">
        <ele>119</ele>
        <time>2021-08-10T13:07:42Z</time>
      </trkpt>
      <trkpt lat="48.25925" lon="-3.57876">
        <ele>119</ele>
        <time>2021-08-10T13:07:43Z</time>
      </trkpt>
      <trkpt lat="48.25929" lon="-3.57876">
        <ele>119.2</ele>
        <time>2021-08-10T13:07:44Z</time>
      </trkpt>
      <trkpt lat="48.25932" lon="-3.57876">
        <ele>119.2</ele>
        <time>2021-08-10T13:07:45Z</time>
      </trkpt>
      <trkpt lat="48.25935" lon="-3.57877">
        <ele>119.2</ele>
        <time>2021-08-10T13:07:46Z</time>
      </trkpt>
      <trkpt lat="48.25936" lon="-3.57878">
        <ele>119.6</ele>
        <time>2021-08-10T13:07:47Z</time>
      </trkpt>
      <trkpt lat="48.25937" lon="-3.57881">
        <ele>119.6</ele>
        <time>2021-08-10T13:07:48Z</time>
      </trkpt>
      <trkpt lat="48.25938" lon="-3.57883">
        <ele>119.6</ele>
        <time>2021-08-10T13:07:49Z</time>
      </trkpt>
      <trkpt lat="48.25938" lon="-3.57885">
        <ele>119.8</ele>
        <time>2021-08-10T13:07:50Z</time>
      </trkpt>
      <trkpt lat="48.25938" lon="-3.57888">
        <ele>119.8</ele>
        <time>2021-08-10T13:07:51Z</time>
      </trkpt>
      <trkpt lat="48.25937" lon="-3.57891">
        <ele>119.8</ele>
        <time>2021-08-10T13:07:52Z</time>
      </trkpt>
      <trkpt lat="48.25936" lon="-3.57895">
        <ele>120.2</ele>
        <time>2021-08-10T13:07:53Z</time>
      </trkpt>
      <trkpt lat="48.25936" lon="-3.57898">
        <ele>120.4</ele>
        <time>2021-08-10T13:07:54Z</time>
      </trkpt>
      <trkpt lat="48.25935" lon="-3.57902">
        <ele>121</ele>
        <time>2021-08-10T13:07:55Z</time>
      </trkpt>
      <trkpt lat="48.25934" lon="-3.57905">
        <ele>121.2</ele>
        <time>2021-08-10T13:07:56Z</time>
      </trkpt>
      <trkpt lat="48.25933" lon="-3.57909">
        <ele>121.2</ele>
        <time>2021-08-10T13:07:57Z</time>
      </trkpt>
      <trkpt lat="48.25933" lon="-3.57912">
        <ele>121.4</ele>
        <time>2021-08-10T13:07:58Z</time>
      </trkpt>
      <trkpt lat="48.25932" lon="-3.57916">
        <ele>121.4</ele>
        <time>2021-08-10T13:07:59Z</time>
      </trkpt>
      <trkpt lat="48.25932" lon="-3.57919">
        <ele>121.4</ele>
        <time>2021-08-10T13:08:00Z</time>
      </trkpt>
      <trkpt lat="48.25932" lon="-3.57923">
        <ele>121.4</ele>
        <time>2021-08-10T13:08:01Z</time>
      </trkpt>
      <trkpt lat="48.25932" lon="-3.57928">
        <ele>121.4</ele>
        <time>2021-08-10T13:08:02Z</time>
      </trkpt>
      <trkpt lat="48.25933" lon="-3.57932">
        <ele>121.4</ele>
        <time>2021-08-10T13:08:03Z</time>
      </trkpt>
      <trkpt lat="48.25935" lon="-3.57935">
        <ele>121.6</ele>
        <time>2021-08-10T13:08:04Z</time>
      </trkpt>
      <trkpt lat="48.25937" lon="-3.57938">
        <ele>121.6</ele>
        <time>2021-08-10T13:08:05Z</time>
      </trkpt>
      <trkpt lat="48.2594" lon="-3.5794">
        <ele>121.6</ele>
        <time>2021-08-10T13:08:06Z</time>
      </trkpt>
      <trkpt lat="48.25943" lon="-3.57941">
        <ele>121.8</ele>
        <time>2021-08-10T13:08:07Z</time>
      </trkpt>
      <trkpt lat="48.25946" lon="-3.57942">
        <ele>121.8</ele>
        <time>2021-08-10T13:08:08Z</time>
      </trkpt>
      <trkpt lat="48.25949" lon="-3.57942">
        <ele>121.8</ele>
        <time>2021-08-10T13:08:09Z</time>
      </trkpt>
      <trkpt lat="48.25953" lon="-3.57941">
        <ele>122</ele>
        <time>2021-08-10T13:08:10Z</time>
      </trkpt>
      <trkpt lat="48.25957" lon="-3.57941">
        <ele>122</ele>
        <time>2021-08-10T13:08:11Z</time>
      </trkpt>
      <trkpt lat="48.2596" lon="-3.57941">
        <ele>122</ele>
        <time>2021-08-10T13:08:12Z</time>
      </trkpt>
      <trkpt lat="48.25963" lon="-3.57941">
        <ele>122</ele>
        <time>2021-08-10T13:08:13Z</time>
      </trkpt>
      <trkpt lat="48.25966" lon="-3.57941">
        <ele>122</ele>
        <time>2021-08-10T13:08:14Z</time>
      </trkpt>
      <trkpt lat="48.25969" lon="-3.57942">
        <ele>122.2</ele>
        <time>2021-08-10T13:08:15Z</time>
      </trkpt>
      <trkpt lat="48.25972" lon="-3.57944">
        <ele>122.2</ele>
        <time>2021-08-10T13:08:16Z</time>
      </trkpt>
      <trkpt lat="48.25974" lon="-3.57946">
        <ele>122.2</ele>
        <time>2021-08-10T13:08:17Z</time>
      </trkpt>
      <trkpt lat="48.25976" lon="-3.57945">
        <ele>122.2</ele>
        <time>2021-08-10T13:08:18Z</time>
      </trkpt>
      <trkpt lat="48.25978" lon="-3.5794">
        <ele>122.2</ele>
        <time>2021-08-10T13:08:19Z</time>
      </trkpt>
      <trkpt lat="48.25981" lon="-3.57937">
        <ele>122.2</ele>
        <time>2021-08-10T13:08:20Z</time>
      </trkpt>
      <trkpt lat="48.25986" lon="-3.57935">
        <ele>122.2</ele>
        <time>2021-08-10T13:08:21Z</time>
      </trkpt>
      <trkpt lat="48.25989" lon="-3.57934">
        <ele>122.2</ele>
        <time>2021-08-10T13:08:22Z</time>
      </trkpt>
      <trkpt lat="48.25992" lon="-3.57934">
        <ele>122.2</ele>
        <time>2021-08-10T13:08:23Z</time>
      </trkpt>
      <trkpt lat="48.25995" lon="-3.57932">
        <ele>122.2</ele>
        <time>2021-08-10T13:08:24Z</time>
      </trkpt>
      <trkpt lat="48.25999" lon="-3.57931">
        <ele>122.2</ele>
        <time>2021-08-10T13:08:25Z</time>
      </trkpt>
      <trkpt lat="48.26002" lon="-3.5793">
        <ele>122.2</ele>
        <time>2021-08-10T13:08:26Z</time>
      </trkpt>
      <trkpt lat="48.26005" lon="-3.5793">
        <ele>122.2</ele>
        <time>2021-08-10T13:08:27Z</time>
      </trkpt>
      <trkpt lat="48.26008" lon="-3.5793">
        <ele>122.2</ele>
        <time>2021-08-10T13:08:28Z</time>
      </trkpt>
      <trkpt lat="48.2601" lon="-3.5793">
        <ele>122.2</ele>
        <time>2021-08-10T13:08:29Z</time>
      </trkpt>
      <trkpt lat="48.26012" lon="-3.57929">
        <ele>122.2</ele>
        <time>2021-08-10T13:08:30Z</time>
      </trkpt>
      <trkpt lat="48.26015" lon="-3.57928">
        <ele>122.2</ele>
        <time>2021-08-10T13:08:31Z</time>
      </trkpt>
      <trkpt lat="48.26018" lon="-3.57927">
        <ele>122.2</ele>
        <time>2021-08-10T13:08:32Z</time>
      </trkpt>
      <trkpt lat="48.2602" lon="-3.57926">
        <ele>122.4</ele>
        <time>2021-08-10T13:08:33Z</time>
      </trkpt>
      <trkpt lat="48.26023" lon="-3.57926">
        <ele>122.4</ele>
        <time>2021-08-10T13:08:34Z</time>
      </trkpt>
      <trkpt lat="48.26026" lon="-3.57925">
        <ele>122.4</ele>
        <time>2021-08-10T13:08:35Z</time>
      </trkpt>
      <trkpt lat="48.26029" lon="-3.57924">
        <ele>122.6</ele>
        <time>2021-08-10T13:08:36Z</time>
      </trkpt>
      <trkpt lat="48.26032" lon="-3.57923">
        <ele>122.6</ele>
        <time>2021-08-10T13:08:37Z</time>
      </trkpt>
      <trkpt lat="48.26035" lon="-3.57922">
        <ele>122.8</ele>
        <time>2021-08-10T13:08:38Z</time>
      </trkpt>
      <trkpt lat="48.26038" lon="-3.57921">
        <ele>122.8</ele>
        <time>2021-08-10T13:08:39Z</time>
      </trkpt>
      <trkpt lat="48.26041" lon="-3.5792">
        <ele>122.8</ele>
        <time>2021-08-10T13:08:40Z</time>
      </trkpt>
      <trkpt lat="48.26045" lon="-3.57918">
        <ele>122.8</ele>
        <time>2021-08-10T13:08:41Z</time>
      </trkpt>
      <trkpt lat="48.26049" lon="-3.57916">
        <ele>123</ele>
        <time>2021-08-10T13:08:42Z</time>
      </trkpt>
      <trkpt lat="48.26052" lon="-3.57914">
        <ele>123</ele>
        <time>2021-08-10T13:08:43Z</time>
      </trkpt>
      <trkpt lat="48.26055" lon="-3.57912">
        <ele>123</ele>
        <time>2021-08-10T13:08:44Z</time>
      </trkpt>
      <trkpt lat="48.26059" lon="-3.5791">
        <ele>123</ele>
        <time>2021-08-10T13:08:45Z</time>
      </trkpt>
      <trkpt lat="48.26062" lon="-3.57907">
        <ele>123</ele>
        <time>2021-08-10T13:08:46Z</time>
      </trkpt>
      <trkpt lat="48.26066" lon="-3.57905">
        <ele>123</ele>
        <time>2021-08-10T13:08:47Z</time>
      </trkpt>
      <trkpt lat="48.2607" lon="-3.57902">
        <ele>123</ele>
        <time>2021-08-10T13:08:48Z</time>
      </trkpt>
      <trkpt lat="48.26073" lon="-3.579">
        <ele>123.2</ele>
        <time>2021-08-10T13:08:49Z</time>
      </trkpt>
      <trkpt lat="48.26077" lon="-3.57897">
        <ele>123.2</ele>
        <time>2021-08-10T13:08:50Z</time>
      </trkpt>
      <trkpt lat="48.26081" lon="-3.57894">
        <ele>123.4</ele>
        <time>2021-08-10T13:08:51Z</time>
      </trkpt>
      <trkpt lat="48.26084" lon="-3.57891">
        <ele>123.4</ele>
        <time>2021-08-10T13:08:52Z</time>
      </trkpt>
      <trkpt lat="48.26088" lon="-3.57888">
        <ele>123.6</ele>
        <time>2021-08-10T13:08:53Z</time>
      </trkpt>
      <trkpt lat="48.26091" lon="-3.57885">
        <ele>123.8</ele>
        <time>2021-08-10T13:08:54Z</time>
      </trkpt>
      <trkpt lat="48.26095" lon="-3.57882">
        <ele>123.8</ele>
        <time>2021-08-10T13:08:55Z</time>
      </trkpt>
      <trkpt lat="48.26099" lon="-3.57878">
        <ele>124</ele>
        <time>2021-08-10T13:08:56Z</time>
      </trkpt>
      <trkpt lat="48.26102" lon="-3.57876">
        <ele>124</ele>
        <time>2021-08-10T13:08:57Z</time>
      </trkpt>
      <trkpt lat="48.26106" lon="-3.57873">
        <ele>124.2</ele>
        <time>2021-08-10T13:08:58Z</time>
      </trkpt>
      <trkpt lat="48.26109" lon="-3.5787">
        <ele>124.2</ele>
        <time>2021-08-10T13:08:59Z</time>
      </trkpt>
      <trkpt lat="48.26112" lon="-3.57867">
        <ele>124.2</ele>
        <time>2021-08-10T13:09:00Z</time>
      </trkpt>
      <trkpt lat="48.26116" lon="-3.57864">
        <ele>124.2</ele>
        <time>2021-08-10T13:09:01Z</time>
      </trkpt>
      <trkpt lat="48.26119" lon="-3.57861">
        <ele>124.4</ele>
        <time>2021-08-10T13:09:02Z</time>
      </trkpt>
      <trkpt lat="48.26122" lon="-3.57858">
        <ele>124.4</ele>
        <time>2021-08-10T13:09:03Z</time>
      </trkpt>
      <trkpt lat="48.26126" lon="-3.57856">
        <ele>124.4</ele>
        <time>2021-08-10T13:09:04Z</time>
      </trkpt>
      <trkpt lat="48.26129" lon="-3.57853">
        <ele>124.4</ele>
        <time>2021-08-10T13:09:05Z</time>
      </trkpt>
      <trkpt lat="48.26132" lon="-3.57851">
        <ele>124.6</ele>
        <time>2021-08-10T13:09:06Z</time>
      </trkpt>
      <trkpt lat="48.26135" lon="-3.57848">
        <ele>124.8</ele>
        <time>2021-08-10T13:09:07Z</time>
      </trkpt>
      <trkpt lat="48.26139" lon="-3.57845">
        <ele>124.8</ele>
        <time>2021-08-10T13:09:08Z</time>
      </trkpt>
      <trkpt lat="48.26142" lon="-3.57842">
        <ele>125</ele>
        <time>2021-08-10T13:09:09Z</time>
      </trkpt>
      <trkpt lat="48.26146" lon="-3.57839">
        <ele>125</ele>
        <time>2021-08-10T13:09:10Z</time>
      </trkpt>
      <trkpt lat="48.26149" lon="-3.57836">
        <ele>125</ele>
        <time>2021-08-10T13:09:11Z</time>
      </trkpt>
      <trkpt lat="48.26153" lon="-3.57833">
        <ele>125</ele>
        <time>2021-08-10T13:09:12Z</time>
      </trkpt>
      <trkpt lat="48.26156" lon="-3.57829">
        <ele>125.2</ele>
        <time>2021-08-10T13:09:13Z</time>
      </trkpt>
      <trkpt lat="48.2616" lon="-3.57825">
        <ele>125.2</ele>
        <time>2021-08-10T13:09:14Z</time>
      </trkpt>
      <trkpt lat="48.26164" lon="-3.57821">
        <ele>125.2</ele>
        <time>2021-08-10T13:09:15Z</time>
      </trkpt>
      <trkpt lat="48.26168" lon="-3.57818">
        <ele>125.4</ele>
        <time>2021-08-10T13:09:16Z</time>
      </trkpt>
      <trkpt lat="48.26172" lon="-3.57813">
        <ele>125.4</ele>
        <time>2021-08-10T13:09:17Z</time>
      </trkpt>
      <trkpt lat="48.26176" lon="-3.57809">
        <ele>125.4</ele>
        <time>2021-08-10T13:09:18Z</time>
      </trkpt>
      <trkpt lat="48.2618" lon="-3.57805">
        <ele>125.4</ele>
        <time>2021-08-10T13:09:19Z</time>
      </trkpt>
      <trkpt lat="48.26185" lon="-3.578">
        <ele>125.4</ele>
        <time>2021-08-10T13:09:20Z</time>
      </trkpt>
      <trkpt lat="48.2619" lon="-3.57796">
        <ele>125.4</ele>
        <time>2021-08-10T13:09:21Z</time>
      </trkpt>
      <trkpt lat="48.26195" lon="-3.57791">
        <ele>125.4</ele>
        <time>2021-08-10T13:09:22Z</time>
      </trkpt>
      <trkpt lat="48.262" lon="-3.57787">
        <ele>125.4</ele>
        <time>2021-08-10T13:09:23Z</time>
      </trkpt>
      <trkpt lat="48.26204" lon="-3.57782">
        <ele>125.4</ele>
        <time>2021-08-10T13:09:24Z</time>
      </trkpt>
      <trkpt lat="48.26209" lon="-3.57777">
        <ele>125.4</ele>
        <time>2021-08-10T13:09:25Z</time>
      </trkpt>
      <trkpt lat="48.26214" lon="-3.57772">
        <ele>125.4</ele>
        <time>2021-08-10T13:09:26Z</time>
      </trkpt>
      <trkpt lat="48.2622" lon="-3.57766">
        <ele>125.4</ele>
        <time>2021-08-10T13:09:27Z</time>
      </trkpt>
      <trkpt lat="48.26225" lon="-3.57761">
        <ele>125.4</ele>
        <time>2021-08-10T13:09:28Z</time>
      </trkpt>
      <trkpt lat="48.26231" lon="-3.57756">
        <ele>124.8</ele>
        <time>2021-08-10T13:09:29Z</time>
      </trkpt>
      <trkpt lat="48.26237" lon="-3.5775">
        <ele>124.6</ele>
        <time>2021-08-10T13:09:30Z</time>
      </trkpt>
      <trkpt lat="48.26243" lon="-3.57745">
        <ele>124.2</ele>
        <time>2021-08-10T13:09:31Z</time>
      </trkpt>
      <trkpt lat="48.26249" lon="-3.57739">
        <ele>124</ele>
        <time>2021-08-10T13:09:32Z</time>
      </trkpt>
      <trkpt lat="48.26255" lon="-3.57734">
        <ele>123.8</ele>
        <time>2021-08-10T13:09:33Z</time>
      </trkpt>
      <trkpt lat="48.26261" lon="-3.57729">
        <ele>123.4</ele>
        <time>2021-08-10T13:09:34Z</time>
      </trkpt>
      <trkpt lat="48.26268" lon="-3.57724">
        <ele>123.4</ele>
        <time>2021-08-10T13:09:35Z</time>
      </trkpt>
      <trkpt lat="48.26274" lon="-3.57719">
        <ele>123.2</ele>
        <time>2021-08-10T13:09:36Z</time>
      </trkpt>
      <trkpt lat="48.26282" lon="-3.57715">
        <ele>123</ele>
        <time>2021-08-10T13:09:37Z</time>
      </trkpt>
      <trkpt lat="48.26289" lon="-3.57711">
        <ele>123</ele>
        <time>2021-08-10T13:09:38Z</time>
      </trkpt>
      <trkpt lat="48.26297" lon="-3.57707">
        <ele>122.6</ele>
        <time>2021-08-10T13:09:39Z</time>
      </trkpt>
      <trkpt lat="48.26305" lon="-3.57703">
        <ele>122</ele>
        <time>2021-08-10T13:09:40Z</time>
      </trkpt>
      <trkpt lat="48.26314" lon="-3.57699">
        <ele>121.6</ele>
        <time>2021-08-10T13:09:41Z</time>
      </trkpt>
      <trkpt lat="48.26323" lon="-3.57695">
        <ele>121.4</ele>
        <time>2021-08-10T13:09:42Z</time>
      </trkpt>
      <trkpt lat="48.26332" lon="-3.57691">
        <ele>121.2</ele>
        <time>2021-08-10T13:09:43Z</time>
      </trkpt>
      <trkpt lat="48.26341" lon="-3.57688">
        <ele>120.8</ele>
        <time>2021-08-10T13:09:44Z</time>
      </trkpt>
      <trkpt lat="48.26352" lon="-3.57684">
        <ele>120.2</ele>
        <time>2021-08-10T13:09:45Z</time>
      </trkpt>
      <trkpt lat="48.26362" lon="-3.5768">
        <ele>119.8</ele>
        <time>2021-08-10T13:09:46Z</time>
      </trkpt>
      <trkpt lat="48.26373" lon="-3.57677">
        <ele>119.4</ele>
        <time>2021-08-10T13:09:47Z</time>
      </trkpt>
      <trkpt lat="48.26384" lon="-3.57672">
        <ele>118.8</ele>
        <time>2021-08-10T13:09:48Z</time>
      </trkpt>
      <trkpt lat="48.26395" lon="-3.57669">
        <ele>118.4</ele>
        <time>2021-08-10T13:09:49Z</time>
      </trkpt>
      <trkpt lat="48.26407" lon="-3.57664">
        <ele>117.6</ele>
        <time>2021-08-10T13:09:50Z</time>
      </trkpt>
      <trkpt lat="48.26419" lon="-3.5766">
        <ele>116.8</ele>
        <time>2021-08-10T13:09:51Z</time>
      </trkpt>
      <trkpt lat="48.26431" lon="-3.57655">
        <ele>115.8</ele>
        <time>2021-08-10T13:09:52Z</time>
      </trkpt>
      <trkpt lat="48.26444" lon="-3.5765">
        <ele>115</ele>
        <time>2021-08-10T13:09:53Z</time>
      </trkpt>
      <trkpt lat="48.26456" lon="-3.57646">
        <ele>114.2</ele>
        <time>2021-08-10T13:09:54Z</time>
      </trkpt>
      <trkpt lat="48.26469" lon="-3.57641">
        <ele>113.2</ele>
        <time>2021-08-10T13:09:55Z</time>
      </trkpt>
      <trkpt lat="48.26481" lon="-3.57637">
        <ele>112</ele>
        <time>2021-08-10T13:09:56Z</time>
      </trkpt>
      <trkpt lat="48.26494" lon="-3.57633">
        <ele>109.6</ele>
        <time>2021-08-10T13:09:57Z</time>
      </trkpt>
      <trkpt lat="48.26506" lon="-3.57629">
        <ele>108.2</ele>
        <time>2021-08-10T13:09:58Z</time>
      </trkpt>
      <trkpt lat="48.26519" lon="-3.57625">
        <ele>106.8</ele>
        <time>2021-08-10T13:09:59Z</time>
      </trkpt>
      <trkpt lat="48.26532" lon="-3.57622">
        <ele>105.6</ele>
        <time>2021-08-10T13:10:00Z</time>
      </trkpt>
      <trkpt lat="48.26544" lon="-3.57619">
        <ele>104.4</ele>
        <time>2021-08-10T13:10:01Z</time>
      </trkpt>
      <trkpt lat="48.26557" lon="-3.57616">
        <ele>103.2</ele>
        <time>2021-08-10T13:10:02Z</time>
      </trkpt>
      <trkpt lat="48.26569" lon="-3.57613">
        <ele>102.2</ele>
        <time>2021-08-10T13:10:03Z</time>
      </trkpt>
      <trkpt lat="48.26582" lon="-3.57611">
        <ele>101.6</ele>
        <time>2021-08-10T13:10:04Z</time>
      </trkpt>
      <trkpt lat="48.26594" lon="-3.5761">
        <ele>101.2</ele>
        <time>2021-08-10T13:10:05Z</time>
      </trkpt>
      <trkpt lat="48.26606" lon="-3.57608">
        <ele>100.2</ele>
        <time>2021-08-10T13:10:06Z</time>
      </trkpt>
      <trkpt lat="48.26617" lon="-3.57607">
        <ele>99.6</ele>
        <time>2021-08-10T13:10:07Z</time>
      </trkpt>
      <trkpt lat="48.26628" lon="-3.57606">
        <ele>99.4</ele>
        <time>2021-08-10T13:10:08Z</time>
      </trkpt>
      <trkpt lat="48.26639" lon="-3.57605">
        <ele>99.2</ele>
        <time>2021-08-10T13:10:09Z</time>
      </trkpt>
      <trkpt lat="48.2665" lon="-3.57604">
        <ele>99.2</ele>
        <time>2021-08-10T13:10:10Z</time>
      </trkpt>
      <trkpt lat="48.2666" lon="-3.57604">
        <ele>99.2</ele>
        <time>2021-08-10T13:10:11Z</time>
      </trkpt>
      <trkpt lat="48.2667" lon="-3.57603">
        <ele>99.2</ele>
        <time>2021-08-10T13:10:12Z</time>
      </trkpt>
      <trkpt lat="48.2668" lon="-3.57602">
        <ele>99.2</ele>
        <time>2021-08-10T13:10:13Z</time>
      </trkpt>
      <trkpt lat="48.26689" lon="-3.57601">
        <ele>99.2</ele>
        <time>2021-08-10T13:10:14Z</time>
      </trkpt>
      <trkpt lat="48.26698" lon="-3.57601">
        <ele>99.2</ele>
        <time>2021-08-10T13:10:15Z</time>
      </trkpt>
      <trkpt lat="48.26707" lon="-3.57601">
        <ele>99.2</ele>
        <time>2021-08-10T13:10:16Z</time>
      </trkpt>
      <trkpt lat="48.26715" lon="-3.576">
        <ele>99.2</ele>
        <time>2021-08-10T13:10:17Z</time>
      </trkpt>
      <trkpt lat="48.26723" lon="-3.576">
        <ele>99.4</ele>
        <time>2021-08-10T13:10:18Z</time>
      </trkpt>
      <trkpt lat="48.2673" lon="-3.576">
        <ele>100.2</ele>
        <time>2021-08-10T13:10:19Z</time>
      </trkpt>
      <trkpt lat="48.26737" lon="-3.576">
        <ele>100.8</ele>
        <time>2021-08-10T13:10:20Z</time>
      </trkpt>
      <trkpt lat="48.26742" lon="-3.57599">
        <ele>101.4</ele>
        <time>2021-08-10T13:10:21Z</time>
      </trkpt>
      <trkpt lat="48.26748" lon="-3.57599">
        <ele>102.2</ele>
        <time>2021-08-10T13:10:22Z</time>
      </trkpt>
      <trkpt lat="48.26753" lon="-3.57599">
        <ele>103.2</ele>
        <time>2021-08-10T13:10:23Z</time>
      </trkpt>
      <trkpt lat="48.26758" lon="-3.57599">
        <ele>103.8</ele>
        <time>2021-08-10T13:10:24Z</time>
      </trkpt>
      <trkpt lat="48.26762" lon="-3.57599">
        <ele>104.4</ele>
        <time>2021-08-10T13:10:25Z</time>
      </trkpt>
      <trkpt lat="48.26765" lon="-3.57598">
        <ele>105.2</ele>
        <time>2021-08-10T13:10:26Z</time>
      </trkpt>
      <trkpt lat="48.26768" lon="-3.57598">
        <ele>106</ele>
        <time>2021-08-10T13:10:27Z</time>
      </trkpt>
      <trkpt lat="48.26771" lon="-3.57598">
        <ele>106.8</ele>
        <time>2021-08-10T13:10:28Z</time>
      </trkpt>
      <trkpt lat="48.26773" lon="-3.57598">
        <ele>107.4</ele>
        <time>2021-08-10T13:10:29Z</time>
      </trkpt>
      <trkpt lat="48.26776" lon="-3.57597">
        <ele>108</ele>
        <time>2021-08-10T13:10:30Z</time>
      </trkpt>
      <trkpt lat="48.26778" lon="-3.57597">
        <ele>108.6</ele>
        <time>2021-08-10T13:10:31Z</time>
      </trkpt>
      <trkpt lat="48.2678" lon="-3.57597">
        <ele>109.4</ele>
        <time>2021-08-10T13:10:32Z</time>
      </trkpt>
      <trkpt lat="48.26782" lon="-3.57597">
        <ele>110.2</ele>
        <time>2021-08-10T13:10:33Z</time>
      </trkpt>
      <trkpt lat="48.26783" lon="-3.57597">
        <ele>110.8</ele>
        <time>2021-08-10T13:10:34Z</time>
      </trkpt>
      <trkpt lat="48.26784" lon="-3.57597">
        <ele>111.4</ele>
        <time>2021-08-10T13:10:35Z</time>
      </trkpt>
      <trkpt lat="48.26786" lon="-3.57597">
        <ele>112</ele>
        <time>2021-08-10T13:10:36Z</time>
      </trkpt>
      <trkpt lat="48.26787" lon="-3.57597">
        <ele>112.6</ele>
        <time>2021-08-10T13:10:37Z</time>
      </trkpt>
      <trkpt lat="48.26789" lon="-3.57597">
        <ele>112.8</ele>
        <time>2021-08-10T13:10:38Z</time>
      </trkpt>
      <trkpt lat="48.26791" lon="-3.57597">
        <ele>113.2</ele>
        <time>2021-08-10T13:10:39Z</time>
      </trkpt>
      <trkpt lat="48.26793" lon="-3.57596">
        <ele>113.6</ele>
        <time>2021-08-10T13:10:40Z</time>
      </trkpt>
      <trkpt lat="48.26795" lon="-3.57596">
        <ele>113.8</ele>
        <time>2021-08-10T13:10:41Z</time>
      </trkpt>
      <trkpt lat="48.26797" lon="-3.57595">
        <ele>114</ele>
        <time>2021-08-10T13:10:42Z</time>
      </trkpt>
      <trkpt lat="48.26799" lon="-3.57595">
        <ele>114.2</ele>
        <time>2021-08-10T13:10:43Z</time>
      </trkpt>
      <trkpt lat="48.26802" lon="-3.57594">
        <ele>114.4</ele>
        <time>2021-08-10T13:10:44Z</time>
      </trkpt>
      <trkpt lat="48.26805" lon="-3.57595">
        <ele>114.6</ele>
        <time>2021-08-10T13:10:45Z</time>
      </trkpt>
      <trkpt lat="48.26808" lon="-3.57595">
        <ele>115</ele>
        <time>2021-08-10T13:10:46Z</time>
      </trkpt>
      <trkpt lat="48.26811" lon="-3.57594">
        <ele>115.2</ele>
        <time>2021-08-10T13:10:47Z</time>
      </trkpt>
      <trkpt lat="48.26814" lon="-3.57594">
        <ele>115.4</ele>
        <time>2021-08-10T13:10:48Z</time>
      </trkpt>
      <trkpt lat="48.26817" lon="-3.57594">
        <ele>115.6</ele>
        <time>2021-08-10T13:10:49Z</time>
      </trkpt>
      <trkpt lat="48.2682" lon="-3.57594">
        <ele>115.8</ele>
        <time>2021-08-10T13:10:50Z</time>
      </trkpt>
      <trkpt lat="48.26823" lon="-3.57594">
        <ele>115.8</ele>
        <time>2021-08-10T13:10:51Z</time>
      </trkpt>
      <trkpt lat="48.26826" lon="-3.57595">
        <ele>116</ele>
        <time>2021-08-10T13:10:52Z</time>
      </trkpt>
      <trkpt lat="48.26829" lon="-3.57595">
        <ele>116.2</ele>
        <time>2021-08-10T13:10:53Z</time>
      </trkpt>
      <trkpt lat="48.26832" lon="-3.57594">
        <ele>116.4</ele>
        <time>2021-08-10T13:10:54Z</time>
      </trkpt>
      <trkpt lat="48.26835" lon="-3.57594">
        <ele>116.4</ele>
        <time>2021-08-10T13:10:55Z</time>
      </trkpt>
      <trkpt lat="48.26838" lon="-3.57593">
        <ele>116.4</ele>
        <time>2021-08-10T13:10:56Z</time>
      </trkpt>
      <trkpt lat="48.26841" lon="-3.57593">
        <ele>116.4</ele>
        <time>2021-08-10T13:10:57Z</time>
      </trkpt>
      <trkpt lat="48.26844" lon="-3.57593">
        <ele>116.6</ele>
        <time>2021-08-10T13:10:58Z</time>
      </trkpt>
      <trkpt lat="48.26848" lon="-3.57593">
        <ele>116.6</ele>
        <time>2021-08-10T13:10:59Z</time>
      </trkpt>
      <trkpt lat="48.26852" lon="-3.57592">
        <ele>116.6</ele>
        <time>2021-08-10T13:11:00Z</time>
      </trkpt>
      <trkpt lat="48.26855" lon="-3.57592">
        <ele>116.6</ele>
        <time>2021-08-10T13:11:01Z</time>
      </trkpt>
      <trkpt lat="48.26859" lon="-3.57592">
        <ele>116.6</ele>
        <time>2021-08-10T13:11:02Z</time>
      </trkpt>
      <trkpt lat="48.26863" lon="-3.57591">
        <ele>116.6</ele>
        <time>2021-08-10T13:11:03Z</time>
      </trkpt>
      <trkpt lat="48.26867" lon="-3.5759">
        <ele>116.6</ele>
        <time>2021-08-10T13:11:04Z</time>
      </trkpt>
      <trkpt lat="48.26872" lon="-3.5759">
        <ele>116.6</ele>
        <time>2021-08-10T13:11:05Z</time>
      </trkpt>
      <trkpt lat="48.26876" lon="-3.5759">
        <ele>116.6</ele>
        <time>2021-08-10T13:11:06Z</time>
      </trkpt>
      <trkpt lat="48.26881" lon="-3.5759">
        <ele>116.6</ele>
        <time>2021-08-10T13:11:07Z</time>
      </trkpt>
      <trkpt lat="48.26887" lon="-3.5759">
        <ele>116.6</ele>
        <time>2021-08-10T13:11:08Z</time>
      </trkpt>
      <trkpt lat="48.26893" lon="-3.5759">
        <ele>116.4</ele>
        <time>2021-08-10T13:11:09Z</time>
      </trkpt>
      <trkpt lat="48.26899" lon="-3.5759">
        <ele>116.2</ele>
        <time>2021-08-10T13:11:10Z</time>
      </trkpt>
      <trkpt lat="48.26906" lon="-3.5759">
        <ele>116.2</ele>
        <time>2021-08-10T13:11:11Z</time>
      </trkpt>
      <trkpt lat="48.26914" lon="-3.5759">
        <ele>116</ele>
        <time>2021-08-10T13:11:12Z</time>
      </trkpt>
      <trkpt lat="48.26922" lon="-3.5759">
        <ele>115.6</ele>
        <time>2021-08-10T13:11:13Z</time>
      </trkpt>
      <trkpt lat="48.2693" lon="-3.5759">
        <ele>115.4</ele>
        <time>2021-08-10T13:11:14Z</time>
      </trkpt>
      <trkpt lat="48.2694" lon="-3.57591">
        <ele>115</ele>
        <time>2021-08-10T13:11:15Z</time>
      </trkpt>
      <trkpt lat="48.26949" lon="-3.5759">
        <ele>114.8</ele>
        <time>2021-08-10T13:11:16Z</time>
      </trkpt>
      <trkpt lat="48.26959" lon="-3.5759">
        <ele>114.4</ele>
        <time>2021-08-10T13:11:17Z</time>
      </trkpt>
      <trkpt lat="48.26969" lon="-3.57589">
        <ele>114</ele>
        <time>2021-08-10T13:11:18Z</time>
      </trkpt>
      <trkpt lat="48.26979" lon="-3.5759">
        <ele>113.2</ele>
        <time>2021-08-10T13:11:19Z</time>
      </trkpt>
      <trkpt lat="48.26991" lon="-3.57591">
        <ele>112.6</ele>
        <time>2021-08-10T13:11:20Z</time>
      </trkpt>
      <trkpt lat="48.27002" lon="-3.57592">
        <ele>111.8</ele>
        <time>2021-08-10T13:11:21Z</time>
      </trkpt>
      <trkpt lat="48.27014" lon="-3.57592">
        <ele>109.6</ele>
        <time>2021-08-10T13:11:22Z</time>
      </trkpt>
      <trkpt lat="48.27025" lon="-3.57593">
        <ele>108.2</ele>
        <time>2021-08-10T13:11:23Z</time>
      </trkpt>
      <trkpt lat="48.27037" lon="-3.57594">
        <ele>106.6</ele>
        <time>2021-08-10T13:11:24Z</time>
      </trkpt>
      <trkpt lat="48.27048" lon="-3.57593">
        <ele>105.2</ele>
        <time>2021-08-10T13:11:25Z</time>
      </trkpt>
      <trkpt lat="48.27058" lon="-3.57593">
        <ele>103.8</ele>
        <time>2021-08-10T13:11:26Z</time>
      </trkpt>
      <trkpt lat="48.27067" lon="-3.57592">
        <ele>102.6</ele>
        <time>2021-08-10T13:11:27Z</time>
      </trkpt>
      <trkpt lat="48.27076" lon="-3.5759">
        <ele>101.4</ele>
        <time>2021-08-10T13:11:28Z</time>
      </trkpt>
      <trkpt lat="48.27083" lon="-3.57588">
        <ele>100.8</ele>
        <time>2021-08-10T13:11:29Z</time>
      </trkpt>
      <trkpt lat="48.27089" lon="-3.57586">
        <ele>100.4</ele>
        <time>2021-08-10T13:11:30Z</time>
      </trkpt>
      <trkpt lat="48.27094" lon="-3.57582">
        <ele>100.2</ele>
        <time>2021-08-10T13:11:31Z</time>
      </trkpt>
      <trkpt lat="48.27099" lon="-3.57578">
        <ele>100.2</ele>
        <time>2021-08-10T13:11:32Z</time>
      </trkpt>
      <trkpt lat="48.27104" lon="-3.57575">
        <ele>100.2</ele>
        <time>2021-08-10T13:11:33Z</time>
      </trkpt>
      <trkpt lat="48.27109" lon="-3.57575">
        <ele>100.2</ele>
        <time>2021-08-10T13:11:34Z</time>
      </trkpt>
      <trkpt lat="48.27112" lon="-3.57579">
        <ele>100.2</ele>
        <time>2021-08-10T13:11:35Z</time>
      </trkpt>
      <trkpt lat="48.27114" lon="-3.57585">
        <ele>100.2</ele>
        <time>2021-08-10T13:11:36Z</time>
      </trkpt>
      <trkpt lat="48.27114" lon="-3.57592">
        <ele>100.2</ele>
        <time>2021-08-10T13:11:37Z</time>
      </trkpt>
      <trkpt lat="48.27113" lon="-3.57599">
        <ele>100.6</ele>
        <time>2021-08-10T13:11:38Z</time>
      </trkpt>
      <trkpt lat="48.27112" lon="-3.57607">
        <ele>101</ele>
        <time>2021-08-10T13:11:39Z</time>
      </trkpt>
      <trkpt lat="48.27112" lon="-3.57616">
        <ele>101.2</ele>
        <time>2021-08-10T13:11:40Z</time>
      </trkpt>
      <trkpt lat="48.27112" lon="-3.57624">
        <ele>101.4</ele>
        <time>2021-08-10T13:11:41Z</time>
      </trkpt>
      <trkpt lat="48.27112" lon="-3.57633">
        <ele>101.4</ele>
        <time>2021-08-10T13:11:42Z</time>
      </trkpt>
      <trkpt lat="48.27112" lon="-3.57642">
        <ele>101.4</ele>
        <time>2021-08-10T13:11:43Z</time>
      </trkpt>
      <trkpt lat="48.27111" lon="-3.57652">
        <ele>101.6</ele>
        <time>2021-08-10T13:11:44Z</time>
      </trkpt>
      <trkpt lat="48.27111" lon="-3.57661">
        <ele>101.6</ele>
        <time>2021-08-10T13:11:45Z</time>
      </trkpt>
      <trkpt lat="48.2711" lon="-3.57671">
        <ele>101.6</ele>
        <time>2021-08-10T13:11:46Z</time>
      </trkpt>
      <trkpt lat="48.2711" lon="-3.5768">
        <ele>101.6</ele>
        <time>2021-08-10T13:11:47Z</time>
      </trkpt>
      <trkpt lat="48.2711" lon="-3.5769">
        <ele>101.6</ele>
        <time>2021-08-10T13:11:48Z</time>
      </trkpt>
      <trkpt lat="48.27109" lon="-3.57699">
        <ele>101.4</ele>
        <time>2021-08-10T13:11:49Z</time>
      </trkpt>
      <trkpt lat="48.27109" lon="-3.57708">
        <ele>101</ele>
        <time>2021-08-10T13:11:50Z</time>
      </trkpt>
      <trkpt lat="48.27109" lon="-3.57718">
        <ele>100.8</ele>
        <time>2021-08-10T13:11:51Z</time>
      </trkpt>
      <trkpt lat="48.27108" lon="-3.57727">
        <ele>100.6</ele>
        <time>2021-08-10T13:11:52Z</time>
      </trkpt>
      <trkpt lat="48.27108" lon="-3.57736">
        <ele>100.4</ele>
        <time>2021-08-10T13:11:53Z</time>
      </trkpt>
      <trkpt lat="48.27108" lon="-3.57745">
        <ele>100.4</ele>
        <time>2021-08-10T13:11:54Z</time>
      </trkpt>
      <trkpt lat="48.27108" lon="-3.57754">
        <ele>100.4</ele>
        <time>2021-08-10T13:11:55Z</time>
      </trkpt>
      <trkpt lat="48.27108" lon="-3.57763">
        <ele>100.4</ele>
        <time>2021-08-10T13:11:56Z</time>
      </trkpt>
      <trkpt lat="48.27108" lon="-3.57772">
        <ele>100.4</ele>
        <time>2021-08-10T13:11:57Z</time>
      </trkpt>
      <trkpt lat="48.27108" lon="-3.5778">
        <ele>100.4</ele>
        <time>2021-08-10T13:11:58Z</time>
      </trkpt>
      <trkpt lat="48.27108" lon="-3.57787">
        <ele>100.4</ele>
        <time>2021-08-10T13:11:59Z</time>
      </trkpt>
      <trkpt lat="48.27109" lon="-3.57795">
        <ele>100.4</ele>
        <time>2021-08-10T13:12:00Z</time>
      </trkpt>
      <trkpt lat="48.27109" lon="-3.57802">
        <ele>100.4</ele>
        <time>2021-08-10T13:12:01Z</time>
      </trkpt>
      <trkpt lat="48.27109" lon="-3.57809">
        <ele>100.4</ele>
        <time>2021-08-10T13:12:02Z</time>
      </trkpt>
      <trkpt lat="48.27109" lon="-3.57815">
        <ele>100.4</ele>
        <time>2021-08-10T13:12:03Z</time>
      </trkpt>
      <trkpt lat="48.27109" lon="-3.57821">
        <ele>100.6</ele>
        <time>2021-08-10T13:12:04Z</time>
      </trkpt>
      <trkpt lat="48.27109" lon="-3.57827">
        <ele>100.8</ele>
        <time>2021-08-10T13:12:05Z</time>
      </trkpt>
      <trkpt lat="48.2711" lon="-3.57833">
        <ele>101</ele>
        <time>2021-08-10T13:12:06Z</time>
      </trkpt>
      <trkpt lat="48.2711" lon="-3.57839">
        <ele>101.2</ele>
        <time>2021-08-10T13:12:07Z</time>
      </trkpt>
      <trkpt lat="48.2711" lon="-3.57844">
        <ele>101.6</ele>
        <time>2021-08-10T13:12:08Z</time>
      </trkpt>
      <trkpt lat="48.2711" lon="-3.5785">
        <ele>101.8</ele>
        <time>2021-08-10T13:12:09Z</time>
      </trkpt>
      <trkpt lat="48.2711" lon="-3.57855">
        <ele>102.2</ele>
        <time>2021-08-10T13:12:10Z</time>
      </trkpt>
      <trkpt lat="48.2711" lon="-3.5786">
        <ele>102.4</ele>
        <time>2021-08-10T13:12:11Z</time>
      </trkpt>
      <trkpt lat="48.27111" lon="-3.57865">
        <ele>102.6</ele>
        <time>2021-08-10T13:12:12Z</time>
      </trkpt>
      <trkpt lat="48.27111" lon="-3.5787">
        <ele>103</ele>
        <time>2021-08-10T13:12:13Z</time>
      </trkpt>
      <trkpt lat="48.27111" lon="-3.57875">
        <ele>103.2</ele>
        <time>2021-08-10T13:12:14Z</time>
      </trkpt>
      <trkpt lat="48.27111" lon="-3.5788">
        <ele>103.6</ele>
        <time>2021-08-10T13:12:15Z</time>
      </trkpt>
      <trkpt lat="48.27111" lon="-3.57885">
        <ele>103.6</ele>
        <time>2021-08-10T13:12:16Z</time>
      </trkpt>
      <trkpt lat="48.27112" lon="-3.5789">
        <ele>104</ele>
        <time>2021-08-10T13:12:17Z</time>
      </trkpt>
      <trkpt lat="48.27112" lon="-3.57894">
        <ele>104.4</ele>
        <time>2021-08-10T13:12:18Z</time>
      </trkpt>
      <trkpt lat="48.27112" lon="-3.57899">
        <ele>104.8</ele>
        <time>2021-08-10T13:12:19Z</time>
      </trkpt>
      <trkpt lat="48.27112" lon="-3.57903">
        <ele>105</ele>
        <time>2021-08-10T13:12:20Z</time>
      </trkpt>
      <trkpt lat="48.27113" lon="-3.57908">
        <ele>105.2</ele>
        <time>2021-08-10T13:12:21Z</time>
      </trkpt>
      <trkpt lat="48.27113" lon="-3.57912">
        <ele>105.4</ele>
        <time>2021-08-10T13:12:22Z</time>
      </trkpt>
      <trkpt lat="48.27113" lon="-3.57917">
        <ele>105.6</ele>
        <time>2021-08-10T13:12:23Z</time>
      </trkpt>
      <trkpt lat="48.27113" lon="-3.57921">
        <ele>105.6</ele>
        <time>2021-08-10T13:12:24Z</time>
      </trkpt>
      <trkpt lat="48.27113" lon="-3.57925">
        <ele>105.8</ele>
        <time>2021-08-10T13:12:25Z</time>
      </trkpt>
      <trkpt lat="48.27113" lon="-3.57929">
        <ele>106.2</ele>
        <time>2021-08-10T13:12:26Z</time>
      </trkpt>
      <trkpt lat="48.27114" lon="-3.57934">
        <ele>106.4</ele>
        <time>2021-08-10T13:12:27Z</time>
      </trkpt>
      <trkpt lat="48.27114" lon="-3.57938">
        <ele>106.4</ele>
        <time>2021-08-10T13:12:28Z</time>
      </trkpt>
      <trkpt lat="48.27114" lon="-3.57943">
        <ele>106.6</ele>
        <time>2021-08-10T13:12:29Z</time>
      </trkpt>
      <trkpt lat="48.27114" lon="-3.57947">
        <ele>106.6</ele>
        <time>2021-08-10T13:12:30Z</time>
      </trkpt>
      <trkpt lat="48.27114" lon="-3.57951">
        <ele>106.8</ele>
        <time>2021-08-10T13:12:31Z</time>
      </trkpt>
      <trkpt lat="48.27114" lon="-3.57955">
        <ele>107</ele>
        <time>2021-08-10T13:12:32Z</time>
      </trkpt>
      <trkpt lat="48.27114" lon="-3.5796">
        <ele>107.4</ele>
        <time>2021-08-10T13:12:33Z</time>
      </trkpt>
      <trkpt lat="48.27114" lon="-3.57964">
        <ele>107.6</ele>
        <time>2021-08-10T13:12:34Z</time>
      </trkpt>
      <trkpt lat="48.27114" lon="-3.57969">
        <ele>107.8</ele>
        <time>2021-08-10T13:12:35Z</time>
      </trkpt>
      <trkpt lat="48.27114" lon="-3.57973">
        <ele>108</ele>
        <time>2021-08-10T13:12:36Z</time>
      </trkpt>
      <trkpt lat="48.27115" lon="-3.57977">
        <ele>108.2</ele>
        <time>2021-08-10T13:12:37Z</time>
      </trkpt>
      <trkpt lat="48.27115" lon="-3.57981">
        <ele>108.6</ele>
        <time>2021-08-10T13:12:38Z</time>
      </trkpt>
      <trkpt lat="48.27115" lon="-3.57986">
        <ele>109</ele>
        <time>2021-08-10T13:12:39Z</time>
      </trkpt>
      <trkpt lat="48.27116" lon="-3.5799">
        <ele>109.2</ele>
        <time>2021-08-10T13:12:40Z</time>
      </trkpt>
      <trkpt lat="48.27116" lon="-3.57994">
        <ele>109.4</ele>
        <time>2021-08-10T13:12:41Z</time>
      </trkpt>
      <trkpt lat="48.27116" lon="-3.57998">
        <ele>109.6</ele>
        <time>2021-08-10T13:12:42Z</time>
      </trkpt>
      <trkpt lat="48.27117" lon="-3.58002">
        <ele>109.8</ele>
        <time>2021-08-10T13:12:43Z</time>
      </trkpt>
      <trkpt lat="48.27117" lon="-3.58006">
        <ele>109.8</ele>
        <time>2021-08-10T13:12:44Z</time>
      </trkpt>
      <trkpt lat="48.27117" lon="-3.5801">
        <ele>110</ele>
        <time>2021-08-10T13:12:45Z</time>
      </trkpt>
      <trkpt lat="48.27117" lon="-3.58015">
        <ele>110.4</ele>
        <time>2021-08-10T13:12:46Z</time>
      </trkpt>
      <trkpt lat="48.27117" lon="-3.58019">
        <ele>110.6</ele>
        <time>2021-08-10T13:12:47Z</time>
      </trkpt>
      <trkpt lat="48.27117" lon="-3.58023">
        <ele>110.8</ele>
        <time>2021-08-10T13:12:48Z</time>
      </trkpt>
      <trkpt lat="48.27117" lon="-3.58027">
        <ele>111</ele>
        <time>2021-08-10T13:12:49Z</time>
      </trkpt>
      <trkpt lat="48.27117" lon="-3.58031">
        <ele>111.2</ele>
        <time>2021-08-10T13:12:50Z</time>
      </trkpt>
      <trkpt lat="48.27117" lon="-3.58035">
        <ele>111.6</ele>
        <time>2021-08-10T13:12:51Z</time>
      </trkpt>
      <trkpt lat="48.27117" lon="-3.58039">
        <ele>111.8</ele>
        <time>2021-08-10T13:12:52Z</time>
      </trkpt>
      <trkpt lat="48.27118" lon="-3.58043">
        <ele>112.2</ele>
        <time>2021-08-10T13:12:53Z</time>
      </trkpt>
      <trkpt lat="48.27119" lon="-3.58047">
        <ele>112.4</ele>
        <time>2021-08-10T13:12:54Z</time>
      </trkpt>
      <trkpt lat="48.2712" lon="-3.58051">
        <ele>112.6</ele>
        <time>2021-08-10T13:12:55Z</time>
      </trkpt>
      <trkpt lat="48.27122" lon="-3.58054">
        <ele>112.8</ele>
        <time>2021-08-10T13:12:56Z</time>
      </trkpt>
      <trkpt lat="48.27124" lon="-3.58056">
        <ele>113</ele>
        <time>2021-08-10T13:12:57Z</time>
      </trkpt>
      <trkpt lat="48.27127" lon="-3.58058">
        <ele>113.2</ele>
        <time>2021-08-10T13:12:58Z</time>
      </trkpt>
      <trkpt lat="48.2713" lon="-3.58059">
        <ele>113.4</ele>
        <time>2021-08-10T13:12:59Z</time>
      </trkpt>
      <trkpt lat="48.27133" lon="-3.58059">
        <ele>113.6</ele>
        <time>2021-08-10T13:13:00Z</time>
      </trkpt>
      <trkpt lat="48.27135" lon="-3.58059">
        <ele>113.8</ele>
        <time>2021-08-10T13:13:01Z</time>
      </trkpt>
      <trkpt lat="48.27138" lon="-3.58059">
        <ele>113.8</ele>
        <time>2021-08-10T13:13:02Z</time>
      </trkpt>
      <trkpt lat="48.2714" lon="-3.58059">
        <ele>114</ele>
        <time>2021-08-10T13:13:03Z</time>
      </trkpt>
      <trkpt lat="48.27143" lon="-3.58058">
        <ele>114</ele>
        <time>2021-08-10T13:13:04Z</time>
      </trkpt>
      <trkpt lat="48.27145" lon="-3.58058">
        <ele>114.2</ele>
        <time>2021-08-10T13:13:05Z</time>
      </trkpt>
      <trkpt lat="48.27147" lon="-3.58057">
        <ele>114.2</ele>
        <time>2021-08-10T13:13:06Z</time>
      </trkpt>
      <trkpt lat="48.2715" lon="-3.58056">
        <ele>114.4</ele>
        <time>2021-08-10T13:13:07Z</time>
      </trkpt>
      <trkpt lat="48.27152" lon="-3.58055">
        <ele>114.4</ele>
        <time>2021-08-10T13:13:08Z</time>
      </trkpt>
      <trkpt lat="48.27155" lon="-3.58055">
        <ele>114.4</ele>
        <time>2021-08-10T13:13:09Z</time>
      </trkpt>
      <trkpt lat="48.27157" lon="-3.58055">
        <ele>114.4</ele>
        <time>2021-08-10T13:13:10Z</time>
      </trkpt>
      <trkpt lat="48.27159" lon="-3.58055">
        <ele>114.6</ele>
        <time>2021-08-10T13:13:11Z</time>
      </trkpt>
      <trkpt lat="48.27162" lon="-3.58056">
        <ele>114.8</ele>
        <time>2021-08-10T13:13:12Z</time>
      </trkpt>
      <trkpt lat="48.27164" lon="-3.58056">
        <ele>115</ele>
        <time>2021-08-10T13:13:13Z</time>
      </trkpt>
      <trkpt lat="48.27166" lon="-3.58057">
        <ele>115.4</ele>
        <time>2021-08-10T13:13:14Z</time>
      </trkpt>
      <trkpt lat="48.27169" lon="-3.58058">
        <ele>115.6</ele>
        <time>2021-08-10T13:13:15Z</time>
      </trkpt>
      <trkpt lat="48.27171" lon="-3.58059">
        <ele>115.8</ele>
        <time>2021-08-10T13:13:16Z</time>
      </trkpt>
      <trkpt lat="48.27173" lon="-3.5806">
        <ele>116</ele>
        <time>2021-08-10T13:13:17Z</time>
      </trkpt>
      <trkpt lat="48.27175" lon="-3.58061">
        <ele>116.2</ele>
        <time>2021-08-10T13:13:18Z</time>
      </trkpt>
      <trkpt lat="48.27177" lon="-3.58061">
        <ele>116.4</ele>
        <time>2021-08-10T13:13:19Z</time>
      </trkpt>
      <trkpt lat="48.2718" lon="-3.58061">
        <ele>116.8</ele>
        <time>2021-08-10T13:13:20Z</time>
      </trkpt>
      <trkpt lat="48.27182" lon="-3.58061">
        <ele>117</ele>
        <time>2021-08-10T13:13:21Z</time>
      </trkpt>
      <trkpt lat="48.27185" lon="-3.58061">
        <ele>117.2</ele>
        <time>2021-08-10T13:13:22Z</time>
      </trkpt>
      <trkpt lat="48.27187" lon="-3.58062">
        <ele>117.4</ele>
        <time>2021-08-10T13:13:23Z</time>
      </trkpt>
      <trkpt lat="48.2719" lon="-3.58062">
        <ele>117.4</ele>
        <time>2021-08-10T13:13:24Z</time>
      </trkpt>
      <trkpt lat="48.27192" lon="-3.58062">
        <ele>117.8</ele>
        <time>2021-08-10T13:13:25Z</time>
      </trkpt>
      <trkpt lat="48.27195" lon="-3.58062">
        <ele>118</ele>
        <time>2021-08-10T13:13:26Z</time>
      </trkpt>
      <trkpt lat="48.27197" lon="-3.58062">
        <ele>118.2</ele>
        <time>2021-08-10T13:13:27Z</time>
      </trkpt>
      <trkpt lat="48.272" lon="-3.58062">
        <ele>118.4</ele>
        <time>2021-08-10T13:13:28Z</time>
      </trkpt>
      <trkpt lat="48.27202" lon="-3.58062">
        <ele>118.6</ele>
        <time>2021-08-10T13:13:29Z</time>
      </trkpt>
      <trkpt lat="48.27205" lon="-3.58062">
        <ele>118.8</ele>
        <time>2021-08-10T13:13:30Z</time>
      </trkpt>
      <trkpt lat="48.27207" lon="-3.58062">
        <ele>119</ele>
        <time>2021-08-10T13:13:31Z</time>
      </trkpt>
      <trkpt lat="48.27209" lon="-3.58062">
        <ele>119.2</ele>
        <time>2021-08-10T13:13:32Z</time>
      </trkpt>
      <trkpt lat="48.27211" lon="-3.58062">
        <ele>119.2</ele>
        <time>2021-08-10T13:13:33Z</time>
      </trkpt>
      <trkpt lat="48.27214" lon="-3.58062">
        <ele>119.2</ele>
        <time>2021-08-10T13:13:34Z</time>
      </trkpt>
      <trkpt lat="48.27216" lon="-3.58062">
        <ele>119.6</ele>
        <time>2021-08-10T13:13:35Z</time>
      </trkpt>
      <trkpt lat="48.27219" lon="-3.58062">
        <ele>119.8</ele>
        <time>2021-08-10T13:13:36Z</time>
      </trkpt>
      <trkpt lat="48.27221" lon="-3.58062">
        <ele>119.8</ele>
        <time>2021-08-10T13:13:37Z</time>
      </trkpt>
      <trkpt lat="48.27223" lon="-3.58062">
        <ele>119.8</ele>
        <time>2021-08-10T13:13:38Z</time>
      </trkpt>
      <trkpt lat="48.27226" lon="-3.58062">
        <ele>120</ele>
        <time>2021-08-10T13:13:39Z</time>
      </trkpt>
      <trkpt lat="48.27228" lon="-3.58062">
        <ele>120</ele>
        <time>2021-08-10T13:13:40Z</time>
      </trkpt>
      <trkpt lat="48.2723" lon="-3.58062">
        <ele>120</ele>
        <time>2021-08-10T13:13:41Z</time>
      </trkpt>
      <trkpt lat="48.27233" lon="-3.58063">
        <ele>120.2</ele>
        <time>2021-08-10T13:13:42Z</time>
      </trkpt>
      <trkpt lat="48.27236" lon="-3.58063">
        <ele>120.4</ele>
        <time>2021-08-10T13:13:43Z</time>
      </trkpt>
      <trkpt lat="48.27238" lon="-3.58063">
        <ele>120.6</ele>
        <time>2021-08-10T13:13:44Z</time>
      </trkpt>
      <trkpt lat="48.27241" lon="-3.58063">
        <ele>120.6</ele>
        <time>2021-08-10T13:13:45Z</time>
      </trkpt>
      <trkpt lat="48.27243" lon="-3.58063">
        <ele>120.8</ele>
        <time>2021-08-10T13:13:46Z</time>
      </trkpt>
      <trkpt lat="48.27245" lon="-3.58062">
        <ele>121</ele>
        <time>2021-08-10T13:13:47Z</time>
      </trkpt>
      <trkpt lat="48.27248" lon="-3.58062">
        <ele>121.2</ele>
        <time>2021-08-10T13:13:48Z</time>
      </trkpt>
      <trkpt lat="48.2725" lon="-3.58062">
        <ele>121.2</ele>
        <time>2021-08-10T13:13:49Z</time>
      </trkpt>
      <trkpt lat="48.27252" lon="-3.58062">
        <ele>121.4</ele>
        <time>2021-08-10T13:13:50Z</time>
      </trkpt>
      <trkpt lat="48.27254" lon="-3.58061">
        <ele>121.4</ele>
        <time>2021-08-10T13:13:51Z</time>
      </trkpt>
      <trkpt lat="48.27257" lon="-3.58061">
        <ele>121.4</ele>
        <time>2021-08-10T13:13:52Z</time>
      </trkpt>
      <trkpt lat="48.27259" lon="-3.58062">
        <ele>121.6</ele>
        <time>2021-08-10T13:13:53Z</time>
      </trkpt>
      <trkpt lat="48.27262" lon="-3.58062">
        <ele>121.6</ele>
        <time>2021-08-10T13:13:54Z</time>
      </trkpt>
      <trkpt lat="48.27264" lon="-3.58062">
        <ele>121.6</ele>
        <time>2021-08-10T13:13:55Z</time>
      </trkpt>
      <trkpt lat="48.27267" lon="-3.58062">
        <ele>121.8</ele>
        <time>2021-08-10T13:13:56Z</time>
      </trkpt>
      <trkpt lat="48.27269" lon="-3.58062">
        <ele>122</ele>
        <time>2021-08-10T13:13:57Z</time>
      </trkpt>
      <trkpt lat="48.27271" lon="-3.58063">
        <ele>122.2</ele>
        <time>2021-08-10T13:13:58Z</time>
      </trkpt>
      <trkpt lat="48.27274" lon="-3.58064">
        <ele>122.4</ele>
        <time>2021-08-10T13:13:59Z</time>
      </trkpt>
      <trkpt lat="48.27277" lon="-3.58065">
        <ele>122.4</ele>
        <time>2021-08-10T13:14:00Z</time>
      </trkpt>
      <trkpt lat="48.27281" lon="-3.58065">
        <ele>122.6</ele>
        <time>2021-08-10T13:14:01Z</time>
      </trkpt>
      <trkpt lat="48.27284" lon="-3.58064">
        <ele>122.6</ele>
        <time>2021-08-10T13:14:02Z</time>
      </trkpt>
      <trkpt lat="48.27287" lon="-3.58064">
        <ele>122.8</ele>
        <time>2021-08-10T13:14:03Z</time>
      </trkpt>
      <trkpt lat="48.2729" lon="-3.58064">
        <ele>123</ele>
        <time>2021-08-10T13:14:04Z</time>
      </trkpt>
      <trkpt lat="48.27293" lon="-3.58065">
        <ele>123.2</ele>
        <time>2021-08-10T13:14:05Z</time>
      </trkpt>
      <trkpt lat="48.27296" lon="-3.58065">
        <ele>123.4</ele>
        <time>2021-08-10T13:14:06Z</time>
      </trkpt>
      <trkpt lat="48.27299" lon="-3.58065">
        <ele>123.6</ele>
        <time>2021-08-10T13:14:07Z</time>
      </trkpt>
      <trkpt lat="48.27302" lon="-3.58066">
        <ele>123.6</ele>
        <time>2021-08-10T13:14:08Z</time>
      </trkpt>
      <trkpt lat="48.27305" lon="-3.58065">
        <ele>123.8</ele>
        <time>2021-08-10T13:14:09Z</time>
      </trkpt>
      <trkpt lat="48.27308" lon="-3.58065">
        <ele>123.8</ele>
        <time>2021-08-10T13:14:10Z</time>
      </trkpt>
      <trkpt lat="48.27311" lon="-3.58065">
        <ele>124.2</ele>
        <time>2021-08-10T13:14:11Z</time>
      </trkpt>
      <trkpt lat="48.27314" lon="-3.58066">
        <ele>124.2</ele>
        <time>2021-08-10T13:14:12Z</time>
      </trkpt>
      <trkpt lat="48.27317" lon="-3.58066">
        <ele>124.4</ele>
        <time>2021-08-10T13:14:13Z</time>
      </trkpt>
      <trkpt lat="48.2732" lon="-3.58066">
        <ele>124.6</ele>
        <time>2021-08-10T13:14:14Z</time>
      </trkpt>
      <trkpt lat="48.27323" lon="-3.58066">
        <ele>124.8</ele>
        <time>2021-08-10T13:14:15Z</time>
      </trkpt>
      <trkpt lat="48.27326" lon="-3.58066">
        <ele>124.8</ele>
        <time>2021-08-10T13:14:16Z</time>
      </trkpt>
      <trkpt lat="48.27329" lon="-3.58067">
        <ele>125</ele>
        <time>2021-08-10T13:14:17Z</time>
      </trkpt>
      <trkpt lat="48.27332" lon="-3.58067">
        <ele>125.2</ele>
        <time>2021-08-10T13:14:18Z</time>
      </trkpt>
      <trkpt lat="48.27335" lon="-3.58067">
        <ele>125.2</ele>
        <time>2021-08-10T13:14:19Z</time>
      </trkpt>
      <trkpt lat="48.27339" lon="-3.58068">
        <ele>125.4</ele>
        <time>2021-08-10T13:14:20Z</time>
      </trkpt>
      <trkpt lat="48.27342" lon="-3.58068">
        <ele>125.4</ele>
        <time>2021-08-10T13:14:21Z</time>
      </trkpt>
      <trkpt lat="48.27345" lon="-3.58068">
        <ele>125.6</ele>
        <time>2021-08-10T13:14:22Z</time>
      </trkpt>
      <trkpt lat="48.27348" lon="-3.58068">
        <ele>125.6</ele>
        <time>2021-08-10T13:14:23Z</time>
      </trkpt>
      <trkpt lat="48.2735" lon="-3.58068">
        <ele>125.8</ele>
        <time>2021-08-10T13:14:24Z</time>
      </trkpt>
      <trkpt lat="48.27353" lon="-3.58068">
        <ele>125.8</ele>
        <time>2021-08-10T13:14:25Z</time>
      </trkpt>
      <trkpt lat="48.27356" lon="-3.58069">
        <ele>125.8</ele>
        <time>2021-08-10T13:14:26Z</time>
      </trkpt>
      <trkpt lat="48.27359" lon="-3.58069">
        <ele>126</ele>
        <time>2021-08-10T13:14:27Z</time>
      </trkpt>
      <trkpt lat="48.27362" lon="-3.58069">
        <ele>126</ele>
        <time>2021-08-10T13:14:28Z</time>
      </trkpt>
      <trkpt lat="48.27364" lon="-3.5807">
        <ele>126</ele>
        <time>2021-08-10T13:14:29Z</time>
      </trkpt>
      <trkpt lat="48.27367" lon="-3.58071">
        <ele>126.2</ele>
        <time>2021-08-10T13:14:30Z</time>
      </trkpt>
      <trkpt lat="48.27369" lon="-3.58072">
        <ele>126.4</ele>
        <time>2021-08-10T13:14:31Z</time>
      </trkpt>
      <trkpt lat="48.2737" lon="-3.58073">
        <ele>126.4</ele>
        <time>2021-08-10T13:14:32Z</time>
      </trkpt>
      <trkpt lat="48.27372" lon="-3.58074">
        <ele>126.6</ele>
        <time>2021-08-10T13:14:33Z</time>
      </trkpt>
      <trkpt lat="48.27373" lon="-3.58074">
        <ele>126.8</ele>
        <time>2021-08-10T13:14:34Z</time>
      </trkpt>
      <trkpt lat="48.27375" lon="-3.58074">
        <ele>127</ele>
        <time>2021-08-10T13:14:35Z</time>
      </trkpt>
      <trkpt lat="48.27377" lon="-3.58074">
        <ele>127.2</ele>
        <time>2021-08-10T13:14:36Z</time>
      </trkpt>
      <trkpt lat="48.27379" lon="-3.58073">
        <ele>127.4</ele>
        <time>2021-08-10T13:14:37Z</time>
      </trkpt>
      <trkpt lat="48.27381" lon="-3.58073">
        <ele>127.4</ele>
        <time>2021-08-10T13:14:38Z</time>
      </trkpt>
      <trkpt lat="48.27383" lon="-3.58072">
        <ele>127.8</ele>
        <time>2021-08-10T13:14:39Z</time>
      </trkpt>
      <trkpt lat="48.27387" lon="-3.58071">
        <ele>127.8</ele>
        <time>2021-08-10T13:14:40Z</time>
      </trkpt>
      <trkpt lat="48.27391" lon="-3.58071">
        <ele>128</ele>
        <time>2021-08-10T13:14:41Z</time>
      </trkpt>
      <trkpt lat="48.27395" lon="-3.58072">
        <ele>128</ele>
        <time>2021-08-10T13:14:42Z</time>
      </trkpt>
      <trkpt lat="48.27398" lon="-3.58074">
        <ele>128.2</ele>
        <time>2021-08-10T13:14:43Z</time>
      </trkpt>
      <trkpt lat="48.27402" lon="-3.58079">
        <ele>128.2</ele>
        <time>2021-08-10T13:14:44Z</time>
      </trkpt>
      <trkpt lat="48.27405" lon="-3.58084">
        <ele>128.2</ele>
        <time>2021-08-10T13:14:45Z</time>
      </trkpt>
      <trkpt lat="48.27409" lon="-3.58088">
        <ele>128.2</ele>
        <time>2021-08-10T13:14:46Z</time>
      </trkpt>
      <trkpt lat="48.27413" lon="-3.58091">
        <ele>128.2</ele>
        <time>2021-08-10T13:14:47Z</time>
      </trkpt>
      <trkpt lat="48.27417" lon="-3.58093">
        <ele>128.2</ele>
        <time>2021-08-10T13:14:48Z</time>
      </trkpt>
      <trkpt lat="48.27421" lon="-3.58095">
        <ele>128.2</ele>
        <time>2021-08-10T13:14:49Z</time>
      </trkpt>
      <trkpt lat="48.27425" lon="-3.58097">
        <ele>128.2</ele>
        <time>2021-08-10T13:14:50Z</time>
      </trkpt>
      <trkpt lat="48.2743" lon="-3.58098">
        <ele>128.2</ele>
        <time>2021-08-10T13:14:51Z</time>
      </trkpt>
      <trkpt lat="48.27434" lon="-3.581">
        <ele>128.2</ele>
        <time>2021-08-10T13:14:52Z</time>
      </trkpt>
      <trkpt lat="48.27438" lon="-3.58102">
        <ele>128.2</ele>
        <time>2021-08-10T13:14:53Z</time>
      </trkpt>
      <trkpt lat="48.27443" lon="-3.58105">
        <ele>128.2</ele>
        <time>2021-08-10T13:14:54Z</time>
      </trkpt>
      <trkpt lat="48.27447" lon="-3.58107">
        <ele>128.2</ele>
        <time>2021-08-10T13:14:55Z</time>
      </trkpt>
      <trkpt lat="48.27451" lon="-3.5811">
        <ele>128.2</ele>
        <time>2021-08-10T13:14:56Z</time>
      </trkpt>
      <trkpt lat="48.27455" lon="-3.58114">
        <ele>128.2</ele>
        <time>2021-08-10T13:14:57Z</time>
      </trkpt>
      <trkpt lat="48.27459" lon="-3.58117">
        <ele>128.2</ele>
        <time>2021-08-10T13:14:58Z</time>
      </trkpt>
      <trkpt lat="48.27464" lon="-3.58119">
        <ele>128.2</ele>
        <time>2021-08-10T13:14:59Z</time>
      </trkpt>
      <trkpt lat="48.27468" lon="-3.58122">
        <ele>128.2</ele>
        <time>2021-08-10T13:15:00Z</time>
      </trkpt>
      <trkpt lat="48.27472" lon="-3.58124">
        <ele>128.2</ele>
        <time>2021-08-10T13:15:01Z</time>
      </trkpt>
      <trkpt lat="48.27477" lon="-3.58127">
        <ele>128.2</ele>
        <time>2021-08-10T13:15:02Z</time>
      </trkpt>
      <trkpt lat="48.27481" lon="-3.5813">
        <ele>128.2</ele>
        <time>2021-08-10T13:15:03Z</time>
      </trkpt>
      <trkpt lat="48.27485" lon="-3.58133">
        <ele>128.2</ele>
        <time>2021-08-10T13:15:04Z</time>
      </trkpt>
      <trkpt lat="48.27489" lon="-3.58136">
        <ele>128.2</ele>
        <time>2021-08-10T13:15:05Z</time>
      </trkpt>
      <trkpt lat="48.27492" lon="-3.5814">
        <ele>128.4</ele>
        <time>2021-08-10T13:15:06Z</time>
      </trkpt>
      <trkpt lat="48.27493" lon="-3.58145">
        <ele>128.6</ele>
        <time>2021-08-10T13:15:07Z</time>
      </trkpt>
      <trkpt lat="48.27493" lon="-3.58151">
        <ele>128.6</ele>
        <time>2021-08-10T13:15:08Z</time>
      </trkpt>
      <trkpt lat="48.27491" lon="-3.58156">
        <ele>128.8</ele>
        <time>2021-08-10T13:15:09Z</time>
      </trkpt>
      <trkpt lat="48.2749" lon="-3.58162">
        <ele>128.8</ele>
        <time>2021-08-10T13:15:10Z</time>
      </trkpt>
      <trkpt lat="48.27488" lon="-3.58167">
        <ele>128.8</ele>
        <time>2021-08-10T13:15:11Z</time>
      </trkpt>
      <trkpt lat="48.27487" lon="-3.58173">
        <ele>129</ele>
        <time>2021-08-10T13:15:12Z</time>
      </trkpt>
      <trkpt lat="48.27485" lon="-3.58179">
        <ele>129</ele>
        <time>2021-08-10T13:15:13Z</time>
      </trkpt>
      <trkpt lat="48.27483" lon="-3.58184">
        <ele>129</ele>
        <time>2021-08-10T13:15:14Z</time>
      </trkpt>
      <trkpt lat="48.27482" lon="-3.58189">
        <ele>129</ele>
        <time>2021-08-10T13:15:15Z</time>
      </trkpt>
      <trkpt lat="48.2748" lon="-3.58195">
        <ele>129</ele>
        <time>2021-08-10T13:15:16Z</time>
      </trkpt>
      <trkpt lat="48.27479" lon="-3.582">
        <ele>129</ele>
        <time>2021-08-10T13:15:17Z</time>
      </trkpt>
      <trkpt lat="48.27477" lon="-3.58204">
        <ele>129</ele>
        <time>2021-08-10T13:15:18Z</time>
      </trkpt>
      <trkpt lat="48.27474" lon="-3.58209">
        <ele>129</ele>
        <time>2021-08-10T13:15:19Z</time>
      </trkpt>
      <trkpt lat="48.27472" lon="-3.58212">
        <ele>129</ele>
        <time>2021-08-10T13:15:20Z</time>
      </trkpt>
      <trkpt lat="48.2747" lon="-3.58216">
        <ele>129.2</ele>
        <time>2021-08-10T13:15:21Z</time>
      </trkpt>
      <trkpt lat="48.27468" lon="-3.58219">
        <ele>129.2</ele>
        <time>2021-08-10T13:15:22Z</time>
      </trkpt>
      <trkpt lat="48.27466" lon="-3.58221">
        <ele>129.2</ele>
        <time>2021-08-10T13:15:23Z</time>
      </trkpt>
      <trkpt lat="48.27465" lon="-3.58224">
        <ele>129.4</ele>
        <time>2021-08-10T13:15:24Z</time>
      </trkpt>
      <trkpt lat="48.27464" lon="-3.58224">
        <ele>129.4</ele>
        <time>2021-08-10T13:15:25Z</time>
      </trkpt>
      <trkpt lat="48.27463" lon="-3.58223">
        <ele>129.4</ele>
        <time>2021-08-10T13:15:26Z</time>
      </trkpt>
      <trkpt lat="48.27462" lon="-3.58223">
        <ele>129.4</ele>
        <time>2021-08-10T13:15:27Z</time>
      </trkpt>
      <trkpt lat="48.27462" lon="-3.58222">
        <ele>129.4</ele>
        <time>2021-08-10T13:15:28Z</time>
      </trkpt>
      <trkpt lat="48.27461" lon="-3.58221">
        <ele>129.4</ele>
        <time>2021-08-10T13:15:29Z</time>
      </trkpt>
      <trkpt lat="48.2746" lon="-3.58221">
        <ele>129.4</ele>
        <time>2021-08-10T13:15:30Z</time>
      </trkpt>
      <trkpt lat="48.27459" lon="-3.5822">
        <ele>129.6</ele>
        <time>2021-08-10T13:15:31Z</time>
      </trkpt>
      <trkpt lat="48.27458" lon="-3.5822">
        <ele>129.8</ele>
        <time>2021-08-10T13:15:32Z</time>
      </trkpt>
      <trkpt lat="48.27457" lon="-3.58221">
        <ele>129.8</ele>
        <time>2021-08-10T13:15:33Z</time>
      </trkpt>
      <trkpt lat="48.27456" lon="-3.58221">
        <ele>130.2</ele>
        <time>2021-08-10T13:15:34Z</time>
      </trkpt>
      <trkpt lat="48.27454" lon="-3.58221">
        <ele>130.4</ele>
        <time>2021-08-10T13:15:35Z</time>
      </trkpt>
      <trkpt lat="48.27453" lon="-3.58221">
        <ele>130.4</ele>
        <time>2021-08-10T13:15:36Z</time>
      </trkpt>
      <trkpt lat="48.27453" lon="-3.58221">
        <ele>130.4</ele>
        <time>2021-08-10T13:15:37Z</time>
      </trkpt>
      <trkpt lat="48.27453" lon="-3.58221">
        <ele>130.6</ele>
        <time>2021-08-10T13:15:38Z</time>
      </trkpt>
      <trkpt lat="48.27453" lon="-3.58222">
        <ele>130.6</ele>
        <time>2021-08-10T13:15:39Z</time>
      </trkpt>
      <trkpt lat="48.27453" lon="-3.5822">
        <ele>130.6</ele>
        <time>2021-08-10T13:15:43Z</time>
      </trkpt>
      <trkpt lat="48.27453" lon="-3.5822">
        <ele>130.6</ele>
        <time>2021-08-10T13:15:44Z</time>
      </trkpt>
      <trkpt lat="48.27453" lon="-3.5822">
        <ele>130.6</ele>
        <time>2021-08-10T13:15:45Z</time>
      </trkpt>
      <trkpt lat="48.27453" lon="-3.58221">
        <ele>130.6</ele>
        <time>2021-08-10T13:15:46Z</time>
      </trkpt>
      <trkpt lat="48.27453" lon="-3.58221">
        <ele>130.6</ele>
        <time>2021-08-10T13:15:47Z</time>
      </trkpt>
      <trkpt lat="48.27454" lon="-3.58221">
        <ele>130.6</ele>
        <time>2021-08-10T13:15:48Z</time>
      </trkpt>
      <trkpt lat="48.27454" lon="-3.58221">
        <ele>130.6</ele>
        <time>2021-08-10T13:15:49Z</time>
      </trkpt>
      <trkpt lat="48.2742" lon="-3.58177">
        <ele>131.8</ele>
        <time>2021-08-10T13:33:41Z</time>
      </trkpt>
      <trkpt lat="48.27418" lon="-3.58176">
        <ele>131.8</ele>
        <time>2021-08-10T13:33:42Z</time>
      </trkpt>
      <trkpt lat="48.27415" lon="-3.58174">
        <ele>131.8</ele>
        <time>2021-08-10T13:33:43Z</time>
      </trkpt>
      <trkpt lat="48.27413" lon="-3.58172">
        <ele>131.6</ele>
        <time>2021-08-10T13:33:44Z</time>
      </trkpt>
      <trkpt lat="48.2741" lon="-3.5817">
        <ele>131.6</ele>
        <time>2021-08-10T13:33:45Z</time>
      </trkpt>
      <trkpt lat="48.27407" lon="-3.58168">
        <ele>131.6</ele>
        <time>2021-08-10T13:33:46Z</time>
      </trkpt>
      <trkpt lat="48.27403" lon="-3.58166">
        <ele>131.6</ele>
        <time>2021-08-10T13:33:47Z</time>
      </trkpt>
      <trkpt lat="48.274" lon="-3.58164">
        <ele>131.4</ele>
        <time>2021-08-10T13:33:48Z</time>
      </trkpt>
      <trkpt lat="48.27396" lon="-3.58162">
        <ele>131.4</ele>
        <time>2021-08-10T13:33:49Z</time>
      </trkpt>
      <trkpt lat="48.27392" lon="-3.5816">
        <ele>131.4</ele>
        <time>2021-08-10T13:33:50Z</time>
      </trkpt>
      <trkpt lat="48.27388" lon="-3.58159">
        <ele>131.4</ele>
        <time>2021-08-10T13:33:51Z</time>
      </trkpt>
      <trkpt lat="48.27385" lon="-3.58159">
        <ele>131.2</ele>
        <time>2021-08-10T13:33:52Z</time>
      </trkpt>
      <trkpt lat="48.27382" lon="-3.58159">
        <ele>131.2</ele>
        <time>2021-08-10T13:33:53Z</time>
      </trkpt>
      <trkpt lat="48.27378" lon="-3.5816">
        <ele>131</ele>
        <time>2021-08-10T13:33:54Z</time>
      </trkpt>
      <trkpt lat="48.27375" lon="-3.58163">
        <ele>130.8</ele>
        <time>2021-08-10T13:33:55Z</time>
      </trkpt>
      <trkpt lat="48.27374" lon="-3.58169">
        <ele>130.6</ele>
        <time>2021-08-10T13:33:56Z</time>
      </trkpt>
      <trkpt lat="48.27373" lon="-3.58176">
        <ele>130.4</ele>
        <time>2021-08-10T13:33:57Z</time>
      </trkpt>
      <trkpt lat="48.27371" lon="-3.58182">
        <ele>130.4</ele>
        <time>2021-08-10T13:33:58Z</time>
      </trkpt>
      <trkpt lat="48.27369" lon="-3.58188">
        <ele>130.2</ele>
        <time>2021-08-10T13:33:59Z</time>
      </trkpt>
      <trkpt lat="48.27367" lon="-3.58193">
        <ele>130.2</ele>
        <time>2021-08-10T13:34:00Z</time>
      </trkpt>
      <trkpt lat="48.27365" lon="-3.58199">
        <ele>130.2</ele>
        <time>2021-08-10T13:34:01Z</time>
      </trkpt>
      <trkpt lat="48.27363" lon="-3.58204">
        <ele>130.2</ele>
        <time>2021-08-10T13:34:02Z</time>
      </trkpt>
      <trkpt lat="48.27361" lon="-3.58209">
        <ele>130.2</ele>
        <time>2021-08-10T13:34:03Z</time>
      </trkpt>
      <trkpt lat="48.27358" lon="-3.58214">
        <ele>130.2</ele>
        <time>2021-08-10T13:34:04Z</time>
      </trkpt>
      <trkpt lat="48.27356" lon="-3.58219">
        <ele>130.2</ele>
        <time>2021-08-10T13:34:05Z</time>
      </trkpt>
      <trkpt lat="48.27353" lon="-3.58223">
        <ele>130.2</ele>
        <time>2021-08-10T13:34:06Z</time>
      </trkpt>
      <trkpt lat="48.2735" lon="-3.58229">
        <ele>130.2</ele>
        <time>2021-08-10T13:34:07Z</time>
      </trkpt>
      <trkpt lat="48.27348" lon="-3.58234">
        <ele>130.2</ele>
        <time>2021-08-10T13:34:08Z</time>
      </trkpt>
      <trkpt lat="48.27347" lon="-3.5824">
        <ele>130.2</ele>
        <time>2021-08-10T13:34:09Z</time>
      </trkpt>
      <trkpt lat="48.27345" lon="-3.58246">
        <ele>130.2</ele>
        <time>2021-08-10T13:34:10Z</time>
      </trkpt>
      <trkpt lat="48.27344" lon="-3.58252">
        <ele>130</ele>
        <time>2021-08-10T13:34:11Z</time>
      </trkpt>
      <trkpt lat="48.27343" lon="-3.58258">
        <ele>130</ele>
        <time>2021-08-10T13:34:12Z</time>
      </trkpt>
      <trkpt lat="48.27342" lon="-3.58265">
        <ele>130</ele>
        <time>2021-08-10T13:34:13Z</time>
      </trkpt>
      <trkpt lat="48.2734" lon="-3.58271">
        <ele>130</ele>
        <time>2021-08-10T13:34:14Z</time>
      </trkpt>
      <trkpt lat="48.27339" lon="-3.58277">
        <ele>130</ele>
        <time>2021-08-10T13:34:15Z</time>
      </trkpt>
      <trkpt lat="48.27337" lon="-3.58283">
        <ele>130.2</ele>
        <time>2021-08-10T13:34:16Z</time>
      </trkpt>
      <trkpt lat="48.27336" lon="-3.58289">
        <ele>130.2</ele>
        <time>2021-08-10T13:34:17Z</time>
      </trkpt>
      <trkpt lat="48.27334" lon="-3.58295">
        <ele>130.2</ele>
        <time>2021-08-10T13:34:18Z</time>
      </trkpt>
      <trkpt lat="48.27333" lon="-3.58301">
        <ele>130.2</ele>
        <time>2021-08-10T13:34:19Z</time>
      </trkpt>
      <trkpt lat="48.27331" lon="-3.58307">
        <ele>130</ele>
        <time>2021-08-10T13:34:20Z</time>
      </trkpt>
      <trkpt lat="48.27329" lon="-3.58314">
        <ele>130</ele>
        <time>2021-08-10T13:34:21Z</time>
      </trkpt>
      <trkpt lat="48.27328" lon="-3.5832">
        <ele>130</ele>
        <time>2021-08-10T13:34:22Z</time>
      </trkpt>
      <trkpt lat="48.27326" lon="-3.58326">
        <ele>130</ele>
        <time>2021-08-10T13:34:23Z</time>
      </trkpt>
      <trkpt lat="48.27324" lon="-3.58333">
        <ele>130</ele>
        <time>2021-08-10T13:34:24Z</time>
      </trkpt>
      <trkpt lat="48.27322" lon="-3.58339">
        <ele>130</ele>
        <time>2021-08-10T13:34:25Z</time>
      </trkpt>
      <trkpt lat="48.2732" lon="-3.58345">
        <ele>130</ele>
        <time>2021-08-10T13:34:26Z</time>
      </trkpt>
      <trkpt lat="48.27318" lon="-3.58352">
        <ele>130</ele>
        <time>2021-08-10T13:34:27Z</time>
      </trkpt>
      <trkpt lat="48.27316" lon="-3.58358">
        <ele>129.6</ele>
        <time>2021-08-10T13:34:28Z</time>
      </trkpt>
      <trkpt lat="48.27315" lon="-3.58365">
        <ele>129.4</ele>
        <time>2021-08-10T13:34:29Z</time>
      </trkpt>
      <trkpt lat="48.27313" lon="-3.58372">
        <ele>129.2</ele>
        <time>2021-08-10T13:34:30Z</time>
      </trkpt>
      <trkpt lat="48.27312" lon="-3.58379">
        <ele>129</ele>
        <time>2021-08-10T13:34:31Z</time>
      </trkpt>
      <trkpt lat="48.2731" lon="-3.58386">
        <ele>128.8</ele>
        <time>2021-08-10T13:34:32Z</time>
      </trkpt>
      <trkpt lat="48.27308" lon="-3.58393">
        <ele>129</ele>
        <time>2021-08-10T13:34:33Z</time>
      </trkpt>
      <trkpt lat="48.27306" lon="-3.584">
        <ele>128.8</ele>
        <time>2021-08-10T13:34:34Z</time>
      </trkpt>
      <trkpt lat="48.27304" lon="-3.58408">
        <ele>128.6</ele>
        <time>2021-08-10T13:34:35Z</time>
      </trkpt>
      <trkpt lat="48.27302" lon="-3.58415">
        <ele>128.6</ele>
        <time>2021-08-10T13:34:36Z</time>
      </trkpt>
      <trkpt lat="48.273" lon="-3.58423">
        <ele>128.4</ele>
        <time>2021-08-10T13:34:37Z</time>
      </trkpt>
      <trkpt lat="48.27298" lon="-3.58431">
        <ele>128.4</ele>
        <time>2021-08-10T13:34:38Z</time>
      </trkpt>
      <trkpt lat="48.27296" lon="-3.58439">
        <ele>128.2</ele>
        <time>2021-08-10T13:34:39Z</time>
      </trkpt>
      <trkpt lat="48.27294" lon="-3.58448">
        <ele>128.4</ele>
        <time>2021-08-10T13:34:40Z</time>
      </trkpt>
      <trkpt lat="48.27293" lon="-3.58456">
        <ele>128.2</ele>
        <time>2021-08-10T13:34:41Z</time>
      </trkpt>
      <trkpt lat="48.27291" lon="-3.58465">
        <ele>128.2</ele>
        <time>2021-08-10T13:34:42Z</time>
      </trkpt>
      <trkpt lat="48.27289" lon="-3.58473">
        <ele>127.6</ele>
        <time>2021-08-10T13:34:43Z</time>
      </trkpt>
      <trkpt lat="48.27287" lon="-3.58482">
        <ele>127.2</ele>
        <time>2021-08-10T13:34:44Z</time>
      </trkpt>
      <trkpt lat="48.27285" lon="-3.5849">
        <ele>127</ele>
        <time>2021-08-10T13:34:45Z</time>
      </trkpt>
      <trkpt lat="48.27283" lon="-3.58498">
        <ele>126.8</ele>
        <time>2021-08-10T13:34:46Z</time>
      </trkpt>
      <trkpt lat="48.27281" lon="-3.58507">
        <ele>126.6</ele>
        <time>2021-08-10T13:34:47Z</time>
      </trkpt>
      <trkpt lat="48.2728" lon="-3.58515">
        <ele>126.6</ele>
        <time>2021-08-10T13:34:48Z</time>
      </trkpt>
      <trkpt lat="48.27278" lon="-3.58524">
        <ele>126.4</ele>
        <time>2021-08-10T13:34:49Z</time>
      </trkpt>
      <trkpt lat="48.27276" lon="-3.58532">
        <ele>126</ele>
        <time>2021-08-10T13:34:50Z</time>
      </trkpt>
      <trkpt lat="48.27274" lon="-3.5854">
        <ele>125.8</ele>
        <time>2021-08-10T13:34:51Z</time>
      </trkpt>
      <trkpt lat="48.27272" lon="-3.58548">
        <ele>125.2</ele>
        <time>2021-08-10T13:34:52Z</time>
      </trkpt>
      <trkpt lat="48.2727" lon="-3.58556">
        <ele>124.8</ele>
        <time>2021-08-10T13:34:53Z</time>
      </trkpt>
      <trkpt lat="48.27268" lon="-3.58564">
        <ele>124.6</ele>
        <time>2021-08-10T13:34:54Z</time>
      </trkpt>
      <trkpt lat="48.27266" lon="-3.58572">
        <ele>124.2</ele>
        <time>2021-08-10T13:34:55Z</time>
      </trkpt>
      <trkpt lat="48.27264" lon="-3.5858">
        <ele>124</ele>
        <time>2021-08-10T13:34:56Z</time>
      </trkpt>
      <trkpt lat="48.27262" lon="-3.58588">
        <ele>123.8</ele>
        <time>2021-08-10T13:34:57Z</time>
      </trkpt>
      <trkpt lat="48.2726" lon="-3.58597">
        <ele>123.4</ele>
        <time>2021-08-10T13:34:58Z</time>
      </trkpt>
      <trkpt lat="48.27258" lon="-3.58605">
        <ele>123.4</ele>
        <time>2021-08-10T13:34:59Z</time>
      </trkpt>
      <trkpt lat="48.27256" lon="-3.58614">
        <ele>123</ele>
        <time>2021-08-10T13:35:00Z</time>
      </trkpt>
      <trkpt lat="48.27254" lon="-3.58622">
        <ele>122.8</ele>
        <time>2021-08-10T13:35:01Z</time>
      </trkpt>
      <trkpt lat="48.27252" lon="-3.58631">
        <ele>122.4</ele>
        <time>2021-08-10T13:35:02Z</time>
      </trkpt>
      <trkpt lat="48.27251" lon="-3.5864">
        <ele>122.2</ele>
        <time>2021-08-10T13:35:03Z</time>
      </trkpt>
      <trkpt lat="48.27249" lon="-3.58648">
        <ele>122</ele>
        <time>2021-08-10T13:35:04Z</time>
      </trkpt>
      <trkpt lat="48.27247" lon="-3.58657">
        <ele>122</ele>
        <time>2021-08-10T13:35:05Z</time>
      </trkpt>
      <trkpt lat="48.27245" lon="-3.58665">
        <ele>121.6</ele>
        <time>2021-08-10T13:35:06Z</time>
      </trkpt>
      <trkpt lat="48.27243" lon="-3.58674">
        <ele>121.2</ele>
        <time>2021-08-10T13:35:07Z</time>
      </trkpt>
      <trkpt lat="48.27241" lon="-3.58682">
        <ele>120.8</ele>
        <time>2021-08-10T13:35:08Z</time>
      </trkpt>
      <trkpt lat="48.2724" lon="-3.5869">
        <ele>120.6</ele>
        <time>2021-08-10T13:35:09Z</time>
      </trkpt>
      <trkpt lat="48.27237" lon="-3.58698">
        <ele>120.4</ele>
        <time>2021-08-10T13:35:10Z</time>
      </trkpt>
      <trkpt lat="48.27235" lon="-3.58706">
        <ele>120.2</ele>
        <time>2021-08-10T13:35:11Z</time>
      </trkpt>
      <trkpt lat="48.27234" lon="-3.58714">
        <ele>120.2</ele>
        <time>2021-08-10T13:35:12Z</time>
      </trkpt>
      <trkpt lat="48.27232" lon="-3.58722">
        <ele>120.2</ele>
        <time>2021-08-10T13:35:13Z</time>
      </trkpt>
      <trkpt lat="48.2723" lon="-3.58729">
        <ele>120</ele>
        <time>2021-08-10T13:35:14Z</time>
      </trkpt>
      <trkpt lat="48.27228" lon="-3.58736">
        <ele>120</ele>
        <time>2021-08-10T13:35:15Z</time>
      </trkpt>
      <trkpt lat="48.27226" lon="-3.58743">
        <ele>120</ele>
        <time>2021-08-10T13:35:16Z</time>
      </trkpt>
      <trkpt lat="48.27224" lon="-3.5875">
        <ele>120</ele>
        <time>2021-08-10T13:35:17Z</time>
      </trkpt>
      <trkpt lat="48.27222" lon="-3.58757">
        <ele>120</ele>
        <time>2021-08-10T13:35:18Z</time>
      </trkpt>
      <trkpt lat="48.27219" lon="-3.58765">
        <ele>120</ele>
        <time>2021-08-10T13:35:19Z</time>
      </trkpt>
      <trkpt lat="48.27217" lon="-3.58772">
        <ele>120</ele>
        <time>2021-08-10T13:35:20Z</time>
      </trkpt>
      <trkpt lat="48.27214" lon="-3.58779">
        <ele>120</ele>
        <time>2021-08-10T13:35:21Z</time>
      </trkpt>
      <trkpt lat="48.27212" lon="-3.58786">
        <ele>120</ele>
        <time>2021-08-10T13:35:22Z</time>
      </trkpt>
      <trkpt lat="48.27209" lon="-3.58794">
        <ele>119.8</ele>
        <time>2021-08-10T13:35:23Z</time>
      </trkpt>
      <trkpt lat="48.27207" lon="-3.58802">
        <ele>119.8</ele>
        <time>2021-08-10T13:35:24Z</time>
      </trkpt>
      <trkpt lat="48.27205" lon="-3.5881">
        <ele>119.6</ele>
        <time>2021-08-10T13:35:25Z</time>
      </trkpt>
      <trkpt lat="48.27202" lon="-3.58818">
        <ele>119.4</ele>
        <time>2021-08-10T13:35:26Z</time>
      </trkpt>
      <trkpt lat="48.272" lon="-3.58827">
        <ele>119.2</ele>
        <time>2021-08-10T13:35:27Z</time>
      </trkpt>
      <trkpt lat="48.27197" lon="-3.58835">
        <ele>119.2</ele>
        <time>2021-08-10T13:35:28Z</time>
      </trkpt>
      <trkpt lat="48.27195" lon="-3.58844">
        <ele>119.2</ele>
        <time>2021-08-10T13:35:29Z</time>
      </trkpt>
      <trkpt lat="48.27192" lon="-3.58853">
        <ele>119</ele>
        <time>2021-08-10T13:35:30Z</time>
      </trkpt>
      <trkpt lat="48.27189" lon="-3.58863">
        <ele>118.6</ele>
        <time>2021-08-10T13:35:31Z</time>
      </trkpt>
      <trkpt lat="48.27186" lon="-3.58872">
        <ele>118.4</ele>
        <time>2021-08-10T13:35:32Z</time>
      </trkpt>
      <trkpt lat="48.27184" lon="-3.58882">
        <ele>118</ele>
        <time>2021-08-10T13:35:33Z</time>
      </trkpt>
      <trkpt lat="48.27181" lon="-3.58892">
        <ele>117.6</ele>
        <time>2021-08-10T13:35:34Z</time>
      </trkpt>
      <trkpt lat="48.27178" lon="-3.58902">
        <ele>117.4</ele>
        <time>2021-08-10T13:35:35Z</time>
      </trkpt>
      <trkpt lat="48.27176" lon="-3.58912">
        <ele>117</ele>
        <time>2021-08-10T13:35:36Z</time>
      </trkpt>
      <trkpt lat="48.27174" lon="-3.58922">
        <ele>116.8</ele>
        <time>2021-08-10T13:35:37Z</time>
      </trkpt>
      <trkpt lat="48.27172" lon="-3.58932">
        <ele>116.4</ele>
        <time>2021-08-10T13:35:38Z</time>
      </trkpt>
      <trkpt lat="48.2717" lon="-3.58943">
        <ele>116</ele>
        <time>2021-08-10T13:35:39Z</time>
      </trkpt>
      <trkpt lat="48.27167" lon="-3.58953">
        <ele>115.6</ele>
        <time>2021-08-10T13:35:40Z</time>
      </trkpt>
      <trkpt lat="48.27165" lon="-3.58963">
        <ele>115.2</ele>
        <time>2021-08-10T13:35:41Z</time>
      </trkpt>
      <trkpt lat="48.27163" lon="-3.58974">
        <ele>114.8</ele>
        <time>2021-08-10T13:35:42Z</time>
      </trkpt>
      <trkpt lat="48.27161" lon="-3.58985">
        <ele>114.6</ele>
        <time>2021-08-10T13:35:43Z</time>
      </trkpt>
      <trkpt lat="48.27159" lon="-3.58996">
        <ele>113.6</ele>
        <time>2021-08-10T13:35:44Z</time>
      </trkpt>
      <trkpt lat="48.27156" lon="-3.59007">
        <ele>113.4</ele>
        <time>2021-08-10T13:35:45Z</time>
      </trkpt>
      <trkpt lat="48.27153" lon="-3.59017">
        <ele>113.4</ele>
        <time>2021-08-10T13:35:46Z</time>
      </trkpt>
      <trkpt lat="48.27151" lon="-3.59028">
        <ele>113.2</ele>
        <time>2021-08-10T13:35:47Z</time>
      </trkpt>
      <trkpt lat="48.27149" lon="-3.59039">
        <ele>113.2</ele>
        <time>2021-08-10T13:35:48Z</time>
      </trkpt>
      <trkpt lat="48.27147" lon="-3.5905">
        <ele>113</ele>
        <time>2021-08-10T13:35:49Z</time>
      </trkpt>
      <trkpt lat="48.27145" lon="-3.59061">
        <ele>112.8</ele>
        <time>2021-08-10T13:35:50Z</time>
      </trkpt>
      <trkpt lat="48.27143" lon="-3.59071">
        <ele>112.4</ele>
        <time>2021-08-10T13:35:51Z</time>
      </trkpt>
      <trkpt lat="48.2714" lon="-3.59082">
        <ele>112</ele>
        <time>2021-08-10T13:35:52Z</time>
      </trkpt>
      <trkpt lat="48.27138" lon="-3.59092">
        <ele>111.6</ele>
        <time>2021-08-10T13:35:53Z</time>
      </trkpt>
      <trkpt lat="48.27136" lon="-3.59102">
        <ele>111.2</ele>
        <time>2021-08-10T13:35:54Z</time>
      </trkpt>
      <trkpt lat="48.27134" lon="-3.59112">
        <ele>110.8</ele>
        <time>2021-08-10T13:35:55Z</time>
      </trkpt>
      <trkpt lat="48.27132" lon="-3.59122">
        <ele>110.6</ele>
        <time>2021-08-10T13:35:56Z</time>
      </trkpt>
      <trkpt lat="48.27131" lon="-3.59131">
        <ele>110.4</ele>
        <time>2021-08-10T13:35:57Z</time>
      </trkpt>
      <trkpt lat="48.27129" lon="-3.5914">
        <ele>110.2</ele>
        <time>2021-08-10T13:35:58Z</time>
      </trkpt>
      <trkpt lat="48.27128" lon="-3.59149">
        <ele>110.2</ele>
        <time>2021-08-10T13:35:59Z</time>
      </trkpt>
      <trkpt lat="48.27128" lon="-3.59158">
        <ele>110</ele>
        <time>2021-08-10T13:36:00Z</time>
      </trkpt>
      <trkpt lat="48.27127" lon="-3.59167">
        <ele>110</ele>
        <time>2021-08-10T13:36:01Z</time>
      </trkpt>
      <trkpt lat="48.27127" lon="-3.59176">
        <ele>110</ele>
        <time>2021-08-10T13:36:02Z</time>
      </trkpt>
      <trkpt lat="48.27126" lon="-3.59184">
        <ele>109.8</ele>
        <time>2021-08-10T13:36:03Z</time>
      </trkpt>
      <trkpt lat="48.27126" lon="-3.59193">
        <ele>109.8</ele>
        <time>2021-08-10T13:36:04Z</time>
      </trkpt>
      <trkpt lat="48.27125" lon="-3.59201">
        <ele>109.8</ele>
        <time>2021-08-10T13:36:05Z</time>
      </trkpt>
      <trkpt lat="48.27125" lon="-3.5921">
        <ele>109.8</ele>
        <time>2021-08-10T13:36:06Z</time>
      </trkpt>
      <trkpt lat="48.27124" lon="-3.59218">
        <ele>109.8</ele>
        <time>2021-08-10T13:36:07Z</time>
      </trkpt>
      <trkpt lat="48.27124" lon="-3.59227">
        <ele>109.8</ele>
        <time>2021-08-10T13:36:08Z</time>
      </trkpt>
      <trkpt lat="48.27124" lon="-3.59235">
        <ele>109.8</ele>
        <time>2021-08-10T13:36:09Z</time>
      </trkpt>
      <trkpt lat="48.27123" lon="-3.59243">
        <ele>109.6</ele>
        <time>2021-08-10T13:36:10Z</time>
      </trkpt>
      <trkpt lat="48.27123" lon="-3.59252">
        <ele>109.6</ele>
        <time>2021-08-10T13:36:11Z</time>
      </trkpt>
      <trkpt lat="48.27123" lon="-3.5926">
        <ele>109.6</ele>
        <time>2021-08-10T13:36:12Z</time>
      </trkpt>
      <trkpt lat="48.27122" lon="-3.59269">
        <ele>109.6</ele>
        <time>2021-08-10T13:36:13Z</time>
      </trkpt>
      <trkpt lat="48.27122" lon="-3.59277">
        <ele>109.6</ele>
        <time>2021-08-10T13:36:14Z</time>
      </trkpt>
      <trkpt lat="48.27122" lon="-3.59286">
        <ele>109.6</ele>
        <time>2021-08-10T13:36:15Z</time>
      </trkpt>
      <trkpt lat="48.27121" lon="-3.59295">
        <ele>109.6</ele>
        <time>2021-08-10T13:36:16Z</time>
      </trkpt>
      <trkpt lat="48.27121" lon="-3.59304">
        <ele>109.4</ele>
        <time>2021-08-10T13:36:17Z</time>
      </trkpt>
      <trkpt lat="48.27121" lon="-3.59314">
        <ele>109.4</ele>
        <time>2021-08-10T13:36:18Z</time>
      </trkpt>
      <trkpt lat="48.27121" lon="-3.59323">
        <ele>109.2</ele>
        <time>2021-08-10T13:36:19Z</time>
      </trkpt>
      <trkpt lat="48.2712" lon="-3.59334">
        <ele>108.8</ele>
        <time>2021-08-10T13:36:20Z</time>
      </trkpt>
      <trkpt lat="48.2712" lon="-3.59344">
        <ele>108.6</ele>
        <time>2021-08-10T13:36:21Z</time>
      </trkpt>
      <trkpt lat="48.2712" lon="-3.59355">
        <ele>108.4</ele>
        <time>2021-08-10T13:36:22Z</time>
      </trkpt>
      <trkpt lat="48.27119" lon="-3.59367">
        <ele>108</ele>
        <time>2021-08-10T13:36:23Z</time>
      </trkpt>
      <trkpt lat="48.27119" lon="-3.59379">
        <ele>107.4</ele>
        <time>2021-08-10T13:36:24Z</time>
      </trkpt>
      <trkpt lat="48.27117" lon="-3.5939">
        <ele>107</ele>
        <time>2021-08-10T13:36:25Z</time>
      </trkpt>
      <trkpt lat="48.27116" lon="-3.59402">
        <ele>106.4</ele>
        <time>2021-08-10T13:36:26Z</time>
      </trkpt>
      <trkpt lat="48.27115" lon="-3.59415">
        <ele>106</ele>
        <time>2021-08-10T13:36:27Z</time>
      </trkpt>
      <trkpt lat="48.27114" lon="-3.59427">
        <ele>106</ele>
        <time>2021-08-10T13:36:28Z</time>
      </trkpt>
      <trkpt lat="48.27114" lon="-3.59441">
        <ele>105.8</ele>
        <time>2021-08-10T13:36:29Z</time>
      </trkpt>
      <trkpt lat="48.27114" lon="-3.59454">
        <ele>105.4</ele>
        <time>2021-08-10T13:36:30Z</time>
      </trkpt>
      <trkpt lat="48.27113" lon="-3.59469">
        <ele>105</ele>
        <time>2021-08-10T13:36:31Z</time>
      </trkpt>
      <trkpt lat="48.27111" lon="-3.59484">
        <ele>104.6</ele>
        <time>2021-08-10T13:36:32Z</time>
      </trkpt>
      <trkpt lat="48.2711" lon="-3.59499">
        <ele>104.2</ele>
        <time>2021-08-10T13:36:33Z</time>
      </trkpt>
      <trkpt lat="48.27109" lon="-3.59516">
        <ele>103.6</ele>
        <time>2021-08-10T13:36:34Z</time>
      </trkpt>
      <trkpt lat="48.27109" lon="-3.59533">
        <ele>103</ele>
        <time>2021-08-10T13:36:35Z</time>
      </trkpt>
      <trkpt lat="48.27109" lon="-3.5955">
        <ele>102.4</ele>
        <time>2021-08-10T13:36:36Z</time>
      </trkpt>
      <trkpt lat="48.27109" lon="-3.59568">
        <ele>101.8</ele>
        <time>2021-08-10T13:36:37Z</time>
      </trkpt>
      <trkpt lat="48.2711" lon="-3.59585">
        <ele>101.2</ele>
        <time>2021-08-10T13:36:38Z</time>
      </trkpt>
      <trkpt lat="48.27111" lon="-3.59601">
        <ele>99.2</ele>
        <time>2021-08-10T13:36:39Z</time>
      </trkpt>
      <trkpt lat="48.27111" lon="-3.59617">
        <ele>98</ele>
        <time>2021-08-10T13:36:40Z</time>
      </trkpt>
      <trkpt lat="48.27112" lon="-3.59633">
        <ele>96.8</ele>
        <time>2021-08-10T13:36:41Z</time>
      </trkpt>
      <trkpt lat="48.27112" lon="-3.59649">
        <ele>94.8</ele>
        <time>2021-08-10T13:36:42Z</time>
      </trkpt>
      <trkpt lat="48.27113" lon="-3.59664">
        <ele>92.8</ele>
        <time>2021-08-10T13:36:43Z</time>
      </trkpt>
      <trkpt lat="48.27113" lon="-3.59678">
        <ele>90.8</ele>
        <time>2021-08-10T13:36:44Z</time>
      </trkpt>
      <trkpt lat="48.27113" lon="-3.59692">
        <ele>89.8</ele>
        <time>2021-08-10T13:36:45Z</time>
      </trkpt>
      <trkpt lat="48.27113" lon="-3.59704">
        <ele>89.4</ele>
        <time>2021-08-10T13:36:46Z</time>
      </trkpt>
      <trkpt lat="48.27112" lon="-3.59716">
        <ele>89</ele>
        <time>2021-08-10T13:36:47Z</time>
      </trkpt>
      <trkpt lat="48.2711" lon="-3.59728">
        <ele>89</ele>
        <time>2021-08-10T13:36:48Z</time>
      </trkpt>
      <trkpt lat="48.27107" lon="-3.59739">
        <ele>88.8</ele>
        <time>2021-08-10T13:36:49Z</time>
      </trkpt>
      <trkpt lat="48.27105" lon="-3.59751">
        <ele>88.8</ele>
        <time>2021-08-10T13:36:50Z</time>
      </trkpt>
      <trkpt lat="48.27103" lon="-3.59761">
        <ele>88.8</ele>
        <time>2021-08-10T13:36:51Z</time>
      </trkpt>
      <trkpt lat="48.271" lon="-3.59771">
        <ele>88.6</ele>
        <time>2021-08-10T13:36:52Z</time>
      </trkpt>
      <trkpt lat="48.27098" lon="-3.5978">
        <ele>88.6</ele>
        <time>2021-08-10T13:36:53Z</time>
      </trkpt>
      <trkpt lat="48.27096" lon="-3.59789">
        <ele>88.6</ele>
        <time>2021-08-10T13:36:54Z</time>
      </trkpt>
      <trkpt lat="48.27093" lon="-3.59796">
        <ele>88.4</ele>
        <time>2021-08-10T13:36:55Z</time>
      </trkpt>
      <trkpt lat="48.27089" lon="-3.59802">
        <ele>88.4</ele>
        <time>2021-08-10T13:36:56Z</time>
      </trkpt>
      <trkpt lat="48.27085" lon="-3.59806">
        <ele>88</ele>
        <time>2021-08-10T13:36:57Z</time>
      </trkpt>
      <trkpt lat="48.27081" lon="-3.5981">
        <ele>87.6</ele>
        <time>2021-08-10T13:36:58Z</time>
      </trkpt>
      <trkpt lat="48.27077" lon="-3.59814">
        <ele>86.8</ele>
        <time>2021-08-10T13:36:59Z</time>
      </trkpt>
      <trkpt lat="48.27074" lon="-3.5982">
        <ele>86.2</ele>
        <time>2021-08-10T13:37:00Z</time>
      </trkpt>
      <trkpt lat="48.27071" lon="-3.59827">
        <ele>85.8</ele>
        <time>2021-08-10T13:37:01Z</time>
      </trkpt>
      <trkpt lat="48.27068" lon="-3.59835">
        <ele>85.4</ele>
        <time>2021-08-10T13:37:02Z</time>
      </trkpt>
      <trkpt lat="48.27066" lon="-3.59844">
        <ele>85.4</ele>
        <time>2021-08-10T13:37:03Z</time>
      </trkpt>
      <trkpt lat="48.27063" lon="-3.59853">
        <ele>85.2</ele>
        <time>2021-08-10T13:37:04Z</time>
      </trkpt>
      <trkpt lat="48.2706" lon="-3.59862">
        <ele>85</ele>
        <time>2021-08-10T13:37:05Z</time>
      </trkpt>
      <trkpt lat="48.27057" lon="-3.59872">
        <ele>85</ele>
        <time>2021-08-10T13:37:06Z</time>
      </trkpt>
      <trkpt lat="48.27053" lon="-3.59881">
        <ele>84.4</ele>
        <time>2021-08-10T13:37:07Z</time>
      </trkpt>
      <trkpt lat="48.2705" lon="-3.59891">
        <ele>84</ele>
        <time>2021-08-10T13:37:08Z</time>
      </trkpt>
      <trkpt lat="48.27045" lon="-3.599">
        <ele>83.8</ele>
        <time>2021-08-10T13:37:09Z</time>
      </trkpt>
      <trkpt lat="48.27041" lon="-3.5991">
        <ele>83.2</ele>
        <time>2021-08-10T13:37:10Z</time>
      </trkpt>
      <trkpt lat="48.27036" lon="-3.59919">
        <ele>83</ele>
        <time>2021-08-10T13:37:11Z</time>
      </trkpt>
      <trkpt lat="48.27031" lon="-3.59928">
        <ele>83</ele>
        <time>2021-08-10T13:37:12Z</time>
      </trkpt>
      <trkpt lat="48.27025" lon="-3.59937">
        <ele>82.4</ele>
        <time>2021-08-10T13:37:13Z</time>
      </trkpt>
      <trkpt lat="48.2702" lon="-3.59945">
        <ele>81.8</ele>
        <time>2021-08-10T13:37:14Z</time>
      </trkpt>
      <trkpt lat="48.27015" lon="-3.59954">
        <ele>81</ele>
        <time>2021-08-10T13:37:15Z</time>
      </trkpt>
      <trkpt lat="48.27009" lon="-3.59961">
        <ele>80.2</ele>
        <time>2021-08-10T13:37:16Z</time>
      </trkpt>
      <trkpt lat="48.27003" lon="-3.59968">
        <ele>79.6</ele>
        <time>2021-08-10T13:37:17Z</time>
      </trkpt>
      <trkpt lat="48.26997" lon="-3.59975">
        <ele>78.8</ele>
        <time>2021-08-10T13:37:18Z</time>
      </trkpt>
      <trkpt lat="48.26991" lon="-3.59982">
        <ele>78.4</ele>
        <time>2021-08-10T13:37:19Z</time>
      </trkpt>
      <trkpt lat="48.26985" lon="-3.59988">
        <ele>78.2</ele>
        <time>2021-08-10T13:37:20Z</time>
      </trkpt>
      <trkpt lat="48.26979" lon="-3.59994">
        <ele>78</ele>
        <time>2021-08-10T13:37:21Z</time>
      </trkpt>
      <trkpt lat="48.26973" lon="-3.6">
        <ele>78</ele>
        <time>2021-08-10T13:37:22Z</time>
      </trkpt>
      <trkpt lat="48.26967" lon="-3.60005">
        <ele>77.8</ele>
        <time>2021-08-10T13:37:23Z</time>
      </trkpt>
      <trkpt lat="48.2696" lon="-3.6001">
        <ele>77.8</ele>
        <time>2021-08-10T13:37:24Z</time>
      </trkpt>
      <trkpt lat="48.26954" lon="-3.60014">
        <ele>77.8</ele>
        <time>2021-08-10T13:37:25Z</time>
      </trkpt>
      <trkpt lat="48.26948" lon="-3.60018">
        <ele>77.8</ele>
        <time>2021-08-10T13:37:26Z</time>
      </trkpt>
      <trkpt lat="48.26942" lon="-3.60022">
        <ele>77.8</ele>
        <time>2021-08-10T13:37:27Z</time>
      </trkpt>
      <trkpt lat="48.26936" lon="-3.60026">
        <ele>77.8</ele>
        <time>2021-08-10T13:37:28Z</time>
      </trkpt>
      <trkpt lat="48.2693" lon="-3.60029">
        <ele>77.8</ele>
        <time>2021-08-10T13:37:29Z</time>
      </trkpt>
      <trkpt lat="48.26923" lon="-3.60033">
        <ele>77.6</ele>
        <time>2021-08-10T13:37:30Z</time>
      </trkpt>
      <trkpt lat="48.26917" lon="-3.60036">
        <ele>77.6</ele>
        <time>2021-08-10T13:37:31Z</time>
      </trkpt>
      <trkpt lat="48.26911" lon="-3.6004">
        <ele>77.6</ele>
        <time>2021-08-10T13:37:32Z</time>
      </trkpt>
      <trkpt lat="48.26906" lon="-3.60043">
        <ele>77.8</ele>
        <time>2021-08-10T13:37:33Z</time>
      </trkpt>
      <trkpt lat="48.269" lon="-3.60047">
        <ele>77.8</ele>
        <time>2021-08-10T13:37:34Z</time>
      </trkpt>
      <trkpt lat="48.26893" lon="-3.6005">
        <ele>77.8</ele>
        <time>2021-08-10T13:37:35Z</time>
      </trkpt>
      <trkpt lat="48.26887" lon="-3.60053">
        <ele>77.8</ele>
        <time>2021-08-10T13:37:36Z</time>
      </trkpt>
      <trkpt lat="48.26881" lon="-3.60056">
        <ele>77.8</ele>
        <time>2021-08-10T13:37:37Z</time>
      </trkpt>
      <trkpt lat="48.26875" lon="-3.6006">
        <ele>77.8</ele>
        <time>2021-08-10T13:37:38Z</time>
      </trkpt>
      <trkpt lat="48.26869" lon="-3.60063">
        <ele>77.8</ele>
        <time>2021-08-10T13:37:39Z</time>
      </trkpt>
      <trkpt lat="48.26863" lon="-3.60066">
        <ele>78</ele>
        <time>2021-08-10T13:37:40Z</time>
      </trkpt>
      <trkpt lat="48.26857" lon="-3.60069">
        <ele>78</ele>
        <time>2021-08-10T13:37:41Z</time>
      </trkpt>
      <trkpt lat="48.26851" lon="-3.60073">
        <ele>78</ele>
        <time>2021-08-10T13:37:42Z</time>
      </trkpt>
      <trkpt lat="48.26845" lon="-3.60076">
        <ele>78.2</ele>
        <time>2021-08-10T13:37:43Z</time>
      </trkpt>
      <trkpt lat="48.26839" lon="-3.60079">
        <ele>78.2</ele>
        <time>2021-08-10T13:37:44Z</time>
      </trkpt>
      <trkpt lat="48.26833" lon="-3.60083">
        <ele>78.2</ele>
        <time>2021-08-10T13:37:45Z</time>
      </trkpt>
      <trkpt lat="48.26827" lon="-3.60086">
        <ele>78.2</ele>
        <time>2021-08-10T13:37:46Z</time>
      </trkpt>
      <trkpt lat="48.26821" lon="-3.60089">
        <ele>78.4</ele>
        <time>2021-08-10T13:37:47Z</time>
      </trkpt>
      <trkpt lat="48.26814" lon="-3.60092">
        <ele>78.4</ele>
        <time>2021-08-10T13:37:48Z</time>
      </trkpt>
      <trkpt lat="48.26808" lon="-3.60095">
        <ele>78.4</ele>
        <time>2021-08-10T13:37:49Z</time>
      </trkpt>
      <trkpt lat="48.26802" lon="-3.60099">
        <ele>78.4</ele>
        <time>2021-08-10T13:37:50Z</time>
      </trkpt>
      <trkpt lat="48.26796" lon="-3.60102">
        <ele>78.4</ele>
        <time>2021-08-10T13:37:51Z</time>
      </trkpt>
      <trkpt lat="48.26789" lon="-3.60106">
        <ele>78.4</ele>
        <time>2021-08-10T13:37:52Z</time>
      </trkpt>
      <trkpt lat="48.26783" lon="-3.60109">
        <ele>78.4</ele>
        <time>2021-08-10T13:37:53Z</time>
      </trkpt>
      <trkpt lat="48.26777" lon="-3.60113">
        <ele>78.4</ele>
        <time>2021-08-10T13:37:54Z</time>
      </trkpt>
      <trkpt lat="48.2677" lon="-3.60117">
        <ele>78.4</ele>
        <time>2021-08-10T13:37:55Z</time>
      </trkpt>
      <trkpt lat="48.26764" lon="-3.6012">
        <ele>78.6</ele>
        <time>2021-08-10T13:37:56Z</time>
      </trkpt>
      <trkpt lat="48.26757" lon="-3.60124">
        <ele>78.6</ele>
        <time>2021-08-10T13:37:57Z</time>
      </trkpt>
      <trkpt lat="48.26751" lon="-3.60127">
        <ele>78.6</ele>
        <time>2021-08-10T13:37:58Z</time>
      </trkpt>
      <trkpt lat="48.26744" lon="-3.60131">
        <ele>78.6</ele>
        <time>2021-08-10T13:37:59Z</time>
      </trkpt>
      <trkpt lat="48.26738" lon="-3.60135">
        <ele>78.6</ele>
        <time>2021-08-10T13:38:00Z</time>
      </trkpt>
      <trkpt lat="48.26732" lon="-3.60139">
        <ele>78.6</ele>
        <time>2021-08-10T13:38:01Z</time>
      </trkpt>
      <trkpt lat="48.26725" lon="-3.60142">
        <ele>78.4</ele>
        <time>2021-08-10T13:38:02Z</time>
      </trkpt>
      <trkpt lat="48.26719" lon="-3.60146">
        <ele>78.4</ele>
        <time>2021-08-10T13:38:03Z</time>
      </trkpt>
      <trkpt lat="48.26713" lon="-3.6015">
        <ele>78.2</ele>
        <time>2021-08-10T13:38:04Z</time>
      </trkpt>
      <trkpt lat="48.26707" lon="-3.60154">
        <ele>78.2</ele>
        <time>2021-08-10T13:38:05Z</time>
      </trkpt>
      <trkpt lat="48.26701" lon="-3.60157">
        <ele>78.2</ele>
        <time>2021-08-10T13:38:06Z</time>
      </trkpt>
      <trkpt lat="48.26695" lon="-3.60162">
        <ele>78.2</ele>
        <time>2021-08-10T13:38:07Z</time>
      </trkpt>
      <trkpt lat="48.26689" lon="-3.60166">
        <ele>78</ele>
        <time>2021-08-10T13:38:08Z</time>
      </trkpt>
      <trkpt lat="48.26684" lon="-3.6017">
        <ele>77.6</ele>
        <time>2021-08-10T13:38:09Z</time>
      </trkpt>
      <trkpt lat="48.26678" lon="-3.60175">
        <ele>77.6</ele>
        <time>2021-08-10T13:38:10Z</time>
      </trkpt>
      <trkpt lat="48.26672" lon="-3.6018">
        <ele>77.4</ele>
        <time>2021-08-10T13:38:11Z</time>
      </trkpt>
      <trkpt lat="48.26667" lon="-3.60185">
        <ele>77.4</ele>
        <time>2021-08-10T13:38:12Z</time>
      </trkpt>
      <trkpt lat="48.26662" lon="-3.60191">
        <ele>77.4</ele>
        <time>2021-08-10T13:38:13Z</time>
      </trkpt>
      <trkpt lat="48.26658" lon="-3.60197">
        <ele>77.2</ele>
        <time>2021-08-10T13:38:14Z</time>
      </trkpt>
      <trkpt lat="48.26654" lon="-3.60203">
        <ele>77.2</ele>
        <time>2021-08-10T13:38:15Z</time>
      </trkpt>
      <trkpt lat="48.2665" lon="-3.6021">
        <ele>77.2</ele>
        <time>2021-08-10T13:38:16Z</time>
      </trkpt>
      <trkpt lat="48.26647" lon="-3.60217">
        <ele>77.2</ele>
        <time>2021-08-10T13:38:17Z</time>
      </trkpt>
      <trkpt lat="48.26644" lon="-3.60225">
        <ele>77.2</ele>
        <time>2021-08-10T13:38:18Z</time>
      </trkpt>
      <trkpt lat="48.26639" lon="-3.60231">
        <ele>77.2</ele>
        <time>2021-08-10T13:38:19Z</time>
      </trkpt>
      <trkpt lat="48.26634" lon="-3.60235">
        <ele>77.2</ele>
        <time>2021-08-10T13:38:20Z</time>
      </trkpt>
      <trkpt lat="48.26628" lon="-3.60238">
        <ele>77.2</ele>
        <time>2021-08-10T13:38:21Z</time>
      </trkpt>
      <trkpt lat="48.26622" lon="-3.60242">
        <ele>77.4</ele>
        <time>2021-08-10T13:38:22Z</time>
      </trkpt>
      <trkpt lat="48.26616" lon="-3.60247">
        <ele>77.4</ele>
        <time>2021-08-10T13:38:23Z</time>
      </trkpt>
      <trkpt lat="48.26611" lon="-3.60252">
        <ele>77.4</ele>
        <time>2021-08-10T13:38:24Z</time>
      </trkpt>
      <trkpt lat="48.26606" lon="-3.60258">
        <ele>77.4</ele>
        <time>2021-08-10T13:38:25Z</time>
      </trkpt>
      <trkpt lat="48.26602" lon="-3.60265">
        <ele>77.6</ele>
        <time>2021-08-10T13:38:26Z</time>
      </trkpt>
      <trkpt lat="48.26597" lon="-3.60272">
        <ele>77.6</ele>
        <time>2021-08-10T13:38:27Z</time>
      </trkpt>
      <trkpt lat="48.26592" lon="-3.60279">
        <ele>77.6</ele>
        <time>2021-08-10T13:38:28Z</time>
      </trkpt>
      <trkpt lat="48.26588" lon="-3.60285">
        <ele>77.8</ele>
        <time>2021-08-10T13:38:29Z</time>
      </trkpt>
      <trkpt lat="48.26583" lon="-3.60292">
        <ele>77.8</ele>
        <time>2021-08-10T13:38:30Z</time>
      </trkpt>
      <trkpt lat="48.26578" lon="-3.60299">
        <ele>77.8</ele>
        <time>2021-08-10T13:38:31Z</time>
      </trkpt>
      <trkpt lat="48.26573" lon="-3.60305">
        <ele>77.8</ele>
        <time>2021-08-10T13:38:32Z</time>
      </trkpt>
      <trkpt lat="48.26569" lon="-3.60312">
        <ele>77.8</ele>
        <time>2021-08-10T13:38:33Z</time>
      </trkpt>
      <trkpt lat="48.26564" lon="-3.60318">
        <ele>77.8</ele>
        <time>2021-08-10T13:38:34Z</time>
      </trkpt>
      <trkpt lat="48.26559" lon="-3.60325">
        <ele>77.8</ele>
        <time>2021-08-10T13:38:35Z</time>
      </trkpt>
      <trkpt lat="48.26555" lon="-3.60331">
        <ele>77.8</ele>
        <time>2021-08-10T13:38:36Z</time>
      </trkpt>
      <trkpt lat="48.2655" lon="-3.60338">
        <ele>77.8</ele>
        <time>2021-08-10T13:38:37Z</time>
      </trkpt>
      <trkpt lat="48.26545" lon="-3.60344">
        <ele>77.8</ele>
        <time>2021-08-10T13:38:38Z</time>
      </trkpt>
      <trkpt lat="48.26541" lon="-3.60351">
        <ele>77.6</ele>
        <time>2021-08-10T13:38:39Z</time>
      </trkpt>
      <trkpt lat="48.26536" lon="-3.60358">
        <ele>77.6</ele>
        <time>2021-08-10T13:38:40Z</time>
      </trkpt>
      <trkpt lat="48.26532" lon="-3.60364">
        <ele>77.4</ele>
        <time>2021-08-10T13:38:41Z</time>
      </trkpt>
      <trkpt lat="48.26527" lon="-3.60371">
        <ele>77.4</ele>
        <time>2021-08-10T13:38:42Z</time>
      </trkpt>
      <trkpt lat="48.26523" lon="-3.60378">
        <ele>77.4</ele>
        <time>2021-08-10T13:38:43Z</time>
      </trkpt>
      <trkpt lat="48.26519" lon="-3.60385">
        <ele>77.4</ele>
        <time>2021-08-10T13:38:44Z</time>
      </trkpt>
      <trkpt lat="48.26514" lon="-3.60392">
        <ele>77.4</ele>
        <time>2021-08-10T13:38:45Z</time>
      </trkpt>
      <trkpt lat="48.26509" lon="-3.60399">
        <ele>77.4</ele>
        <time>2021-08-10T13:38:46Z</time>
      </trkpt>
      <trkpt lat="48.26505" lon="-3.60405">
        <ele>77.4</ele>
        <time>2021-08-10T13:38:47Z</time>
      </trkpt>
      <trkpt lat="48.26501" lon="-3.60412">
        <ele>77.4</ele>
        <time>2021-08-10T13:38:48Z</time>
      </trkpt>
      <trkpt lat="48.26496" lon="-3.60419">
        <ele>77.4</ele>
        <time>2021-08-10T13:38:49Z</time>
      </trkpt>
      <trkpt lat="48.26492" lon="-3.60426">
        <ele>77.4</ele>
        <time>2021-08-10T13:38:50Z</time>
      </trkpt>
      <trkpt lat="48.26487" lon="-3.60433">
        <ele>77.4</ele>
        <time>2021-08-10T13:38:51Z</time>
      </trkpt>
      <trkpt lat="48.26483" lon="-3.6044">
        <ele>77.4</ele>
        <time>2021-08-10T13:38:52Z</time>
      </trkpt>
      <trkpt lat="48.26478" lon="-3.60446">
        <ele>77.4</ele>
        <time>2021-08-10T13:38:53Z</time>
      </trkpt>
      <trkpt lat="48.26474" lon="-3.60453">
        <ele>77.4</ele>
        <time>2021-08-10T13:38:54Z</time>
      </trkpt>
      <trkpt lat="48.26469" lon="-3.6046">
        <ele>77.2</ele>
        <time>2021-08-10T13:38:55Z</time>
      </trkpt>
      <trkpt lat="48.26465" lon="-3.60467">
        <ele>77</ele>
        <time>2021-08-10T13:38:56Z</time>
      </trkpt>
      <trkpt lat="48.2646" lon="-3.60473">
        <ele>77</ele>
        <time>2021-08-10T13:38:57Z</time>
      </trkpt>
      <trkpt lat="48.26456" lon="-3.6048">
        <ele>77</ele>
        <time>2021-08-10T13:38:58Z</time>
      </trkpt>
      <trkpt lat="48.26451" lon="-3.60487">
        <ele>76.8</ele>
        <time>2021-08-10T13:38:59Z</time>
      </trkpt>
      <trkpt lat="48.26446" lon="-3.60494">
        <ele>76.8</ele>
        <time>2021-08-10T13:39:00Z</time>
      </trkpt>
      <trkpt lat="48.26442" lon="-3.605">
        <ele>76.8</ele>
        <time>2021-08-10T13:39:01Z</time>
      </trkpt>
      <trkpt lat="48.26437" lon="-3.60507">
        <ele>76.8</ele>
        <time>2021-08-10T13:39:02Z</time>
      </trkpt>
      <trkpt lat="48.26432" lon="-3.60513">
        <ele>76.8</ele>
        <time>2021-08-10T13:39:03Z</time>
      </trkpt>
      <trkpt lat="48.26428" lon="-3.6052">
        <ele>76.8</ele>
        <time>2021-08-10T13:39:04Z</time>
      </trkpt>
      <trkpt lat="48.26423" lon="-3.60527">
        <ele>76.8</ele>
        <time>2021-08-10T13:39:05Z</time>
      </trkpt>
      <trkpt lat="48.26418" lon="-3.60534">
        <ele>77</ele>
        <time>2021-08-10T13:39:06Z</time>
      </trkpt>
      <trkpt lat="48.26414" lon="-3.60541">
        <ele>77</ele>
        <time>2021-08-10T13:39:07Z</time>
      </trkpt>
      <trkpt lat="48.26409" lon="-3.60548">
        <ele>77.2</ele>
        <time>2021-08-10T13:39:08Z</time>
      </trkpt>
      <trkpt lat="48.26405" lon="-3.60555">
        <ele>77.2</ele>
        <time>2021-08-10T13:39:09Z</time>
      </trkpt>
      <trkpt lat="48.264" lon="-3.60562">
        <ele>77.4</ele>
        <time>2021-08-10T13:39:10Z</time>
      </trkpt>
      <trkpt lat="48.26395" lon="-3.60569">
        <ele>77.6</ele>
        <time>2021-08-10T13:39:11Z</time>
      </trkpt>
      <trkpt lat="48.26391" lon="-3.60576">
        <ele>77.6</ele>
        <time>2021-08-10T13:39:12Z</time>
      </trkpt>
      <trkpt lat="48.26386" lon="-3.60583">
        <ele>77.6</ele>
        <time>2021-08-10T13:39:13Z</time>
      </trkpt>
      <trkpt lat="48.26381" lon="-3.6059">
        <ele>77.6</ele>
        <time>2021-08-10T13:39:14Z</time>
      </trkpt>
      <trkpt lat="48.26377" lon="-3.60597">
        <ele>77.6</ele>
        <time>2021-08-10T13:39:15Z</time>
      </trkpt>
      <trkpt lat="48.26372" lon="-3.60603">
        <ele>77.8</ele>
        <time>2021-08-10T13:39:16Z</time>
      </trkpt>
      <trkpt lat="48.26367" lon="-3.6061">
        <ele>77.8</ele>
        <time>2021-08-10T13:39:17Z</time>
      </trkpt>
      <trkpt lat="48.26362" lon="-3.60617">
        <ele>77.8</ele>
        <time>2021-08-10T13:39:18Z</time>
      </trkpt>
      <trkpt lat="48.26357" lon="-3.60623">
        <ele>77.8</ele>
        <time>2021-08-10T13:39:19Z</time>
      </trkpt>
      <trkpt lat="48.26353" lon="-3.6063">
        <ele>77.8</ele>
        <time>2021-08-10T13:39:20Z</time>
      </trkpt>
      <trkpt lat="48.26348" lon="-3.60636">
        <ele>77.6</ele>
        <time>2021-08-10T13:39:21Z</time>
      </trkpt>
      <trkpt lat="48.26343" lon="-3.60643">
        <ele>77.6</ele>
        <time>2021-08-10T13:39:22Z</time>
      </trkpt>
      <trkpt lat="48.26338" lon="-3.60649">
        <ele>77.6</ele>
        <time>2021-08-10T13:39:23Z</time>
      </trkpt>
      <trkpt lat="48.26333" lon="-3.60655">
        <ele>77.6</ele>
        <time>2021-08-10T13:39:24Z</time>
      </trkpt>
      <trkpt lat="48.26328" lon="-3.60661">
        <ele>77.6</ele>
        <time>2021-08-10T13:39:25Z</time>
      </trkpt>
      <trkpt lat="48.26323" lon="-3.60667">
        <ele>77.4</ele>
        <time>2021-08-10T13:39:26Z</time>
      </trkpt>
      <trkpt lat="48.26318" lon="-3.60673">
        <ele>77.4</ele>
        <time>2021-08-10T13:39:27Z</time>
      </trkpt>
      <trkpt lat="48.26313" lon="-3.60679">
        <ele>77.4</ele>
        <time>2021-08-10T13:39:28Z</time>
      </trkpt>
      <trkpt lat="48.26308" lon="-3.60685">
        <ele>77.4</ele>
        <time>2021-08-10T13:39:29Z</time>
      </trkpt>
      <trkpt lat="48.26302" lon="-3.60691">
        <ele>77.4</ele>
        <time>2021-08-10T13:39:30Z</time>
      </trkpt>
      <trkpt lat="48.26297" lon="-3.60697">
        <ele>77.4</ele>
        <time>2021-08-10T13:39:31Z</time>
      </trkpt>
      <trkpt lat="48.26292" lon="-3.60703">
        <ele>77.4</ele>
        <time>2021-08-10T13:39:32Z</time>
      </trkpt>
      <trkpt lat="48.26286" lon="-3.60709">
        <ele>77.4</ele>
        <time>2021-08-10T13:39:33Z</time>
      </trkpt>
      <trkpt lat="48.26281" lon="-3.60715">
        <ele>77.4</ele>
        <time>2021-08-10T13:39:34Z</time>
      </trkpt>
      <trkpt lat="48.26276" lon="-3.6072">
        <ele>77.6</ele>
        <time>2021-08-10T13:39:35Z</time>
      </trkpt>
      <trkpt lat="48.2627" lon="-3.60726">
        <ele>77.8</ele>
        <time>2021-08-10T13:39:36Z</time>
      </trkpt>
      <trkpt lat="48.26265" lon="-3.60731">
        <ele>77.8</ele>
        <time>2021-08-10T13:39:37Z</time>
      </trkpt>
      <trkpt lat="48.2626" lon="-3.60736">
        <ele>78</ele>
        <time>2021-08-10T13:39:38Z</time>
      </trkpt>
      <trkpt lat="48.26254" lon="-3.60741">
        <ele>78</ele>
        <time>2021-08-10T13:39:39Z</time>
      </trkpt>
      <trkpt lat="48.26249" lon="-3.60746">
        <ele>78</ele>
        <time>2021-08-10T13:39:40Z</time>
      </trkpt>
      <trkpt lat="48.26243" lon="-3.6075">
        <ele>78</ele>
        <time>2021-08-10T13:39:41Z</time>
      </trkpt>
      <trkpt lat="48.26238" lon="-3.60754">
        <ele>78</ele>
        <time>2021-08-10T13:39:42Z</time>
      </trkpt>
      <trkpt lat="48.26232" lon="-3.60758">
        <ele>78</ele>
        <time>2021-08-10T13:39:43Z</time>
      </trkpt>
      <trkpt lat="48.26226" lon="-3.60762">
        <ele>78</ele>
        <time>2021-08-10T13:39:44Z</time>
      </trkpt>
      <trkpt lat="48.2622" lon="-3.60766">
        <ele>78</ele>
        <time>2021-08-10T13:39:45Z</time>
      </trkpt>
      <trkpt lat="48.26215" lon="-3.6077">
        <ele>77.8</ele>
        <time>2021-08-10T13:39:46Z</time>
      </trkpt>
      <trkpt lat="48.26209" lon="-3.60774">
        <ele>77.8</ele>
        <time>2021-08-10T13:39:47Z</time>
      </trkpt>
      <trkpt lat="48.26203" lon="-3.60777">
        <ele>77.8</ele>
        <time>2021-08-10T13:39:48Z</time>
      </trkpt>
      <trkpt lat="48.26197" lon="-3.6078">
        <ele>77.8</ele>
        <time>2021-08-10T13:39:49Z</time>
      </trkpt>
      <trkpt lat="48.2619" lon="-3.60784">
        <ele>77.6</ele>
        <time>2021-08-10T13:39:50Z</time>
      </trkpt>
      <trkpt lat="48.26184" lon="-3.60787">
        <ele>77.6</ele>
        <time>2021-08-10T13:39:51Z</time>
      </trkpt>
      <trkpt lat="48.26178" lon="-3.60789">
        <ele>77.6</ele>
        <time>2021-08-10T13:39:52Z</time>
      </trkpt>
      <trkpt lat="48.26172" lon="-3.60792">
        <ele>77.6</ele>
        <time>2021-08-10T13:39:53Z</time>
      </trkpt>
      <trkpt lat="48.26166" lon="-3.60794">
        <ele>77.6</ele>
        <time>2021-08-10T13:39:54Z</time>
      </trkpt>
      <trkpt lat="48.26159" lon="-3.60796">
        <ele>77.6</ele>
        <time>2021-08-10T13:39:55Z</time>
      </trkpt>
      <trkpt lat="48.26153" lon="-3.60798">
        <ele>77.4</ele>
        <time>2021-08-10T13:39:56Z</time>
      </trkpt>
      <trkpt lat="48.26147" lon="-3.608">
        <ele>77.4</ele>
        <time>2021-08-10T13:39:57Z</time>
      </trkpt>
      <trkpt lat="48.26141" lon="-3.60801">
        <ele>77.4</ele>
        <time>2021-08-10T13:39:58Z</time>
      </trkpt>
      <trkpt lat="48.26134" lon="-3.60803">
        <ele>77.2</ele>
        <time>2021-08-10T13:39:59Z</time>
      </trkpt>
      <trkpt lat="48.26128" lon="-3.60804">
        <ele>77.2</ele>
        <time>2021-08-10T13:40:00Z</time>
      </trkpt>
      <trkpt lat="48.26122" lon="-3.60805">
        <ele>77.2</ele>
        <time>2021-08-10T13:40:01Z</time>
      </trkpt>
      <trkpt lat="48.26115" lon="-3.60806">
        <ele>77.2</ele>
        <time>2021-08-10T13:40:02Z</time>
      </trkpt>
      <trkpt lat="48.26108" lon="-3.60806">
        <ele>77.2</ele>
        <time>2021-08-10T13:40:03Z</time>
      </trkpt>
      <trkpt lat="48.26102" lon="-3.60807">
        <ele>77.2</ele>
        <time>2021-08-10T13:40:04Z</time>
      </trkpt>
      <trkpt lat="48.26095" lon="-3.60807">
        <ele>77.2</ele>
        <time>2021-08-10T13:40:05Z</time>
      </trkpt>
      <trkpt lat="48.26088" lon="-3.60807">
        <ele>77</ele>
        <time>2021-08-10T13:40:06Z</time>
      </trkpt>
      <trkpt lat="48.26081" lon="-3.60807">
        <ele>77</ele>
        <time>2021-08-10T13:40:07Z</time>
      </trkpt>
      <trkpt lat="48.26075" lon="-3.60806">
        <ele>77</ele>
        <time>2021-08-10T13:40:08Z</time>
      </trkpt>
      <trkpt lat="48.26068" lon="-3.60805">
        <ele>77</ele>
        <time>2021-08-10T13:40:09Z</time>
      </trkpt>
      <trkpt lat="48.26061" lon="-3.60805">
        <ele>77</ele>
        <time>2021-08-10T13:40:10Z</time>
      </trkpt>
      <trkpt lat="48.26054" lon="-3.60804">
        <ele>77</ele>
        <time>2021-08-10T13:40:11Z</time>
      </trkpt>
      <trkpt lat="48.26047" lon="-3.60802">
        <ele>77</ele>
        <time>2021-08-10T13:40:12Z</time>
      </trkpt>
      <trkpt lat="48.2604" lon="-3.60801">
        <ele>76.8</ele>
        <time>2021-08-10T13:40:13Z</time>
      </trkpt>
      <trkpt lat="48.26033" lon="-3.60799">
        <ele>76.8</ele>
        <time>2021-08-10T13:40:14Z</time>
      </trkpt>
      <trkpt lat="48.26026" lon="-3.60797">
        <ele>76.8</ele>
        <time>2021-08-10T13:40:15Z</time>
      </trkpt>
      <trkpt lat="48.26019" lon="-3.60795">
        <ele>76.8</ele>
        <time>2021-08-10T13:40:16Z</time>
      </trkpt>
      <trkpt lat="48.26013" lon="-3.60793">
        <ele>76.8</ele>
        <time>2021-08-10T13:40:17Z</time>
      </trkpt>
      <trkpt lat="48.26006" lon="-3.6079">
        <ele>76.8</ele>
        <time>2021-08-10T13:40:18Z</time>
      </trkpt>
      <trkpt lat="48.25999" lon="-3.60788">
        <ele>76.8</ele>
        <time>2021-08-10T13:40:19Z</time>
      </trkpt>
      <trkpt lat="48.25993" lon="-3.60784">
        <ele>76.8</ele>
        <time>2021-08-10T13:40:20Z</time>
      </trkpt>
      <trkpt lat="48.25986" lon="-3.60781">
        <ele>76.8</ele>
        <time>2021-08-10T13:40:21Z</time>
      </trkpt>
      <trkpt lat="48.2598" lon="-3.60778">
        <ele>76.6</ele>
        <time>2021-08-10T13:40:22Z</time>
      </trkpt>
      <trkpt lat="48.25973" lon="-3.60775">
        <ele>76.4</ele>
        <time>2021-08-10T13:40:23Z</time>
      </trkpt>
      <trkpt lat="48.25967" lon="-3.60771">
        <ele>76</ele>
        <time>2021-08-10T13:40:24Z</time>
      </trkpt>
      <trkpt lat="48.25961" lon="-3.60767">
        <ele>75.8</ele>
        <time>2021-08-10T13:40:25Z</time>
      </trkpt>
      <trkpt lat="48.25955" lon="-3.60764">
        <ele>75.6</ele>
        <time>2021-08-10T13:40:26Z</time>
      </trkpt>
      <trkpt lat="48.25948" lon="-3.6076">
        <ele>75.4</ele>
        <time>2021-08-10T13:40:27Z</time>
      </trkpt>
      <trkpt lat="48.25942" lon="-3.60756">
        <ele>75.4</ele>
        <time>2021-08-10T13:40:28Z</time>
      </trkpt>
      <trkpt lat="48.25936" lon="-3.60752">
        <ele>75.2</ele>
        <time>2021-08-10T13:40:29Z</time>
      </trkpt>
      <trkpt lat="48.2593" lon="-3.60747">
        <ele>75</ele>
        <time>2021-08-10T13:40:30Z</time>
      </trkpt>
      <trkpt lat="48.25924" lon="-3.60743">
        <ele>75</ele>
        <time>2021-08-10T13:40:31Z</time>
      </trkpt>
      <trkpt lat="48.25918" lon="-3.60739">
        <ele>75</ele>
        <time>2021-08-10T13:40:32Z</time>
      </trkpt>
      <trkpt lat="48.25912" lon="-3.60735">
        <ele>74.8</ele>
        <time>2021-08-10T13:40:33Z</time>
      </trkpt>
      <trkpt lat="48.25906" lon="-3.6073">
        <ele>74.8</ele>
        <time>2021-08-10T13:40:34Z</time>
      </trkpt>
      <trkpt lat="48.259" lon="-3.60726">
        <ele>74.6</ele>
        <time>2021-08-10T13:40:35Z</time>
      </trkpt>
      <trkpt lat="48.25894" lon="-3.60722">
        <ele>74.6</ele>
        <time>2021-08-10T13:40:36Z</time>
      </trkpt>
      <trkpt lat="48.25889" lon="-3.60717">
        <ele>74.6</ele>
        <time>2021-08-10T13:40:37Z</time>
      </trkpt>
      <trkpt lat="48.25883" lon="-3.60713">
        <ele>74.6</ele>
        <time>2021-08-10T13:40:38Z</time>
      </trkpt>
      <trkpt lat="48.25877" lon="-3.60708">
        <ele>74.6</ele>
        <time>2021-08-10T13:40:39Z</time>
      </trkpt>
      <trkpt lat="48.25871" lon="-3.60704">
        <ele>74.6</ele>
        <time>2021-08-10T13:40:40Z</time>
      </trkpt>
      <trkpt lat="48.25865" lon="-3.60699">
        <ele>74.6</ele>
        <time>2021-08-10T13:40:41Z</time>
      </trkpt>
      <trkpt lat="48.25859" lon="-3.60695">
        <ele>74.6</ele>
        <time>2021-08-10T13:40:42Z</time>
      </trkpt>
      <trkpt lat="48.25852" lon="-3.6069">
        <ele>74.8</ele>
        <time>2021-08-10T13:40:43Z</time>
      </trkpt>
      <trkpt lat="48.25846" lon="-3.60685">
        <ele>74.8</ele>
        <time>2021-08-10T13:40:44Z</time>
      </trkpt>
      <trkpt lat="48.2584" lon="-3.60681">
        <ele>74.8</ele>
        <time>2021-08-10T13:40:45Z</time>
      </trkpt>
      <trkpt lat="48.25833" lon="-3.60676">
        <ele>74.8</ele>
        <time>2021-08-10T13:40:46Z</time>
      </trkpt>
      <trkpt lat="48.25827" lon="-3.60672">
        <ele>74.8</ele>
        <time>2021-08-10T13:40:47Z</time>
      </trkpt>
      <trkpt lat="48.2582" lon="-3.60667">
        <ele>74.8</ele>
        <time>2021-08-10T13:40:48Z</time>
      </trkpt>
      <trkpt lat="48.25814" lon="-3.60663">
        <ele>74.8</ele>
        <time>2021-08-10T13:40:49Z</time>
      </trkpt>
      <trkpt lat="48.25808" lon="-3.60659">
        <ele>74.8</ele>
        <time>2021-08-10T13:40:50Z</time>
      </trkpt>
      <trkpt lat="48.25801" lon="-3.60654">
        <ele>74.8</ele>
        <time>2021-08-10T13:40:51Z</time>
      </trkpt>
      <trkpt lat="48.25795" lon="-3.6065">
        <ele>75</ele>
        <time>2021-08-10T13:40:52Z</time>
      </trkpt>
      <trkpt lat="48.25789" lon="-3.60646">
        <ele>75.2</ele>
        <time>2021-08-10T13:40:53Z</time>
      </trkpt>
      <trkpt lat="48.25782" lon="-3.60642">
        <ele>75.2</ele>
        <time>2021-08-10T13:40:54Z</time>
      </trkpt>
      <trkpt lat="48.25776" lon="-3.60639">
        <ele>75.2</ele>
        <time>2021-08-10T13:40:55Z</time>
      </trkpt>
      <trkpt lat="48.25769" lon="-3.60635">
        <ele>75.2</ele>
        <time>2021-08-10T13:40:56Z</time>
      </trkpt>
      <trkpt lat="48.25763" lon="-3.60631">
        <ele>75.2</ele>
        <time>2021-08-10T13:40:57Z</time>
      </trkpt>
      <trkpt lat="48.25756" lon="-3.60628">
        <ele>75.2</ele>
        <time>2021-08-10T13:40:58Z</time>
      </trkpt>
      <trkpt lat="48.25749" lon="-3.60625">
        <ele>75.2</ele>
        <time>2021-08-10T13:40:59Z</time>
      </trkpt>
      <trkpt lat="48.25742" lon="-3.60622">
        <ele>75.2</ele>
        <time>2021-08-10T13:41:00Z</time>
      </trkpt>
      <trkpt lat="48.25736" lon="-3.60618">
        <ele>75.2</ele>
        <time>2021-08-10T13:41:01Z</time>
      </trkpt>
      <trkpt lat="48.25729" lon="-3.60616">
        <ele>75.4</ele>
        <time>2021-08-10T13:41:02Z</time>
      </trkpt>
      <trkpt lat="48.25722" lon="-3.60613">
        <ele>75.4</ele>
        <time>2021-08-10T13:41:03Z</time>
      </trkpt>
      <trkpt lat="48.25715" lon="-3.60611">
        <ele>75.4</ele>
        <time>2021-08-10T13:41:04Z</time>
      </trkpt>
      <trkpt lat="48.25708" lon="-3.60609">
        <ele>75.4</ele>
        <time>2021-08-10T13:41:05Z</time>
      </trkpt>
      <trkpt lat="48.25701" lon="-3.60607">
        <ele>75.4</ele>
        <time>2021-08-10T13:41:06Z</time>
      </trkpt>
      <trkpt lat="48.25694" lon="-3.60606">
        <ele>75.4</ele>
        <time>2021-08-10T13:41:07Z</time>
      </trkpt>
      <trkpt lat="48.25687" lon="-3.60604">
        <ele>75.4</ele>
        <time>2021-08-10T13:41:08Z</time>
      </trkpt>
      <trkpt lat="48.2568" lon="-3.60603">
        <ele>75.4</ele>
        <time>2021-08-10T13:41:09Z</time>
      </trkpt>
      <trkpt lat="48.25673" lon="-3.60602">
        <ele>75.4</ele>
        <time>2021-08-10T13:41:10Z</time>
      </trkpt>
      <trkpt lat="48.25666" lon="-3.60602">
        <ele>75.4</ele>
        <time>2021-08-10T13:41:11Z</time>
      </trkpt>
      <trkpt lat="48.25659" lon="-3.60601">
        <ele>75.4</ele>
        <time>2021-08-10T13:41:12Z</time>
      </trkpt>
      <trkpt lat="48.25652" lon="-3.60601">
        <ele>75.4</ele>
        <time>2021-08-10T13:41:13Z</time>
      </trkpt>
      <trkpt lat="48.25645" lon="-3.60601">
        <ele>75.4</ele>
        <time>2021-08-10T13:41:14Z</time>
      </trkpt>
      <trkpt lat="48.25638" lon="-3.60601">
        <ele>75.4</ele>
        <time>2021-08-10T13:41:15Z</time>
      </trkpt>
      <trkpt lat="48.25631" lon="-3.60601">
        <ele>75.4</ele>
        <time>2021-08-10T13:41:16Z</time>
      </trkpt>
      <trkpt lat="48.25624" lon="-3.60602">
        <ele>75.4</ele>
        <time>2021-08-10T13:41:17Z</time>
      </trkpt>
      <trkpt lat="48.25617" lon="-3.60603">
        <ele>75.4</ele>
        <time>2021-08-10T13:41:18Z</time>
      </trkpt>
      <trkpt lat="48.2561" lon="-3.60604">
        <ele>75.4</ele>
        <time>2021-08-10T13:41:19Z</time>
      </trkpt>
      <trkpt lat="48.25604" lon="-3.60606">
        <ele>75.2</ele>
        <time>2021-08-10T13:41:20Z</time>
      </trkpt>
      <trkpt lat="48.25597" lon="-3.60608">
        <ele>75.2</ele>
        <time>2021-08-10T13:41:21Z</time>
      </trkpt>
      <trkpt lat="48.25591" lon="-3.60612">
        <ele>75.2</ele>
        <time>2021-08-10T13:41:22Z</time>
      </trkpt>
      <trkpt lat="48.25584" lon="-3.60614">
        <ele>75.2</ele>
        <time>2021-08-10T13:41:23Z</time>
      </trkpt>
      <trkpt lat="48.25578" lon="-3.60613">
        <ele>75.2</ele>
        <time>2021-08-10T13:41:24Z</time>
      </trkpt>
      <trkpt lat="48.25572" lon="-3.6061">
        <ele>75.2</ele>
        <time>2021-08-10T13:41:25Z</time>
      </trkpt>
      <trkpt lat="48.25566" lon="-3.60604">
        <ele>75.2</ele>
        <time>2021-08-10T13:41:26Z</time>
      </trkpt>
      <trkpt lat="48.25561" lon="-3.60598">
        <ele>75.2</ele>
        <time>2021-08-10T13:41:27Z</time>
      </trkpt>
      <trkpt lat="48.25556" lon="-3.60594">
        <ele>75.2</ele>
        <time>2021-08-10T13:41:28Z</time>
      </trkpt>
      <trkpt lat="48.25549" lon="-3.60594">
        <ele>75.2</ele>
        <time>2021-08-10T13:41:29Z</time>
      </trkpt>
      <trkpt lat="48.25543" lon="-3.60594">
        <ele>75.2</ele>
        <time>2021-08-10T13:41:30Z</time>
      </trkpt>
      <trkpt lat="48.25536" lon="-3.60594">
        <ele>75.2</ele>
        <time>2021-08-10T13:41:31Z</time>
      </trkpt>
      <trkpt lat="48.2553" lon="-3.60595">
        <ele>75.2</ele>
        <time>2021-08-10T13:41:32Z</time>
      </trkpt>
      <trkpt lat="48.25523" lon="-3.60595">
        <ele>75.2</ele>
        <time>2021-08-10T13:41:33Z</time>
      </trkpt>
      <trkpt lat="48.25516" lon="-3.60594">
        <ele>75.2</ele>
        <time>2021-08-10T13:41:34Z</time>
      </trkpt>
      <trkpt lat="48.2551" lon="-3.60595">
        <ele>75.2</ele>
        <time>2021-08-10T13:41:35Z</time>
      </trkpt>
      <trkpt lat="48.25503" lon="-3.60595">
        <ele>75.2</ele>
        <time>2021-08-10T13:41:36Z</time>
      </trkpt>
      <trkpt lat="48.25496" lon="-3.60595">
        <ele>75.2</ele>
        <time>2021-08-10T13:41:37Z</time>
      </trkpt>
      <trkpt lat="48.2549" lon="-3.60594">
        <ele>75.2</ele>
        <time>2021-08-10T13:41:38Z</time>
      </trkpt>
      <trkpt lat="48.25483" lon="-3.60595">
        <ele>75.2</ele>
        <time>2021-08-10T13:41:39Z</time>
      </trkpt>
      <trkpt lat="48.25476" lon="-3.60595">
        <ele>75.2</ele>
        <time>2021-08-10T13:41:40Z</time>
      </trkpt>
      <trkpt lat="48.25469" lon="-3.60595">
        <ele>75.2</ele>
        <time>2021-08-10T13:41:41Z</time>
      </trkpt>
      <trkpt lat="48.25462" lon="-3.60595">
        <ele>75.2</ele>
        <time>2021-08-10T13:41:42Z</time>
      </trkpt>
      <trkpt lat="48.25455" lon="-3.60595">
        <ele>75.2</ele>
        <time>2021-08-10T13:41:43Z</time>
      </trkpt>
      <trkpt lat="48.25448" lon="-3.60596">
        <ele>75.2</ele>
        <time>2021-08-10T13:41:44Z</time>
      </trkpt>
      <trkpt lat="48.25441" lon="-3.60596">
        <ele>75.2</ele>
        <time>2021-08-10T13:41:45Z</time>
      </trkpt>
      <trkpt lat="48.25434" lon="-3.60597">
        <ele>75</ele>
        <time>2021-08-10T13:41:46Z</time>
      </trkpt>
      <trkpt lat="48.25427" lon="-3.60597">
        <ele>75</ele>
        <time>2021-08-10T13:41:47Z</time>
      </trkpt>
      <trkpt lat="48.2542" lon="-3.60598">
        <ele>75</ele>
        <time>2021-08-10T13:41:48Z</time>
      </trkpt>
      <trkpt lat="48.25413" lon="-3.60598">
        <ele>74.6</ele>
        <time>2021-08-10T13:41:49Z</time>
      </trkpt>
      <trkpt lat="48.25406" lon="-3.60599">
        <ele>74.6</ele>
        <time>2021-08-10T13:41:50Z</time>
      </trkpt>
      <trkpt lat="48.25399" lon="-3.60599">
        <ele>74.4</ele>
        <time>2021-08-10T13:41:51Z</time>
      </trkpt>
      <trkpt lat="48.25392" lon="-3.606">
        <ele>74.4</ele>
        <time>2021-08-10T13:41:52Z</time>
      </trkpt>
      <trkpt lat="48.25385" lon="-3.606">
        <ele>74.4</ele>
        <time>2021-08-10T13:41:53Z</time>
      </trkpt>
      <trkpt lat="48.25378" lon="-3.60601">
        <ele>74.4</ele>
        <time>2021-08-10T13:41:54Z</time>
      </trkpt>
      <trkpt lat="48.25371" lon="-3.60601">
        <ele>74.2</ele>
        <time>2021-08-10T13:41:55Z</time>
      </trkpt>
      <trkpt lat="48.25364" lon="-3.60601">
        <ele>74.2</ele>
        <time>2021-08-10T13:41:56Z</time>
      </trkpt>
      <trkpt lat="48.25357" lon="-3.60601">
        <ele>74.2</ele>
        <time>2021-08-10T13:41:57Z</time>
      </trkpt>
      <trkpt lat="48.25351" lon="-3.60602">
        <ele>74.2</ele>
        <time>2021-08-10T13:41:58Z</time>
      </trkpt>
      <trkpt lat="48.25344" lon="-3.60602">
        <ele>74</ele>
        <time>2021-08-10T13:41:59Z</time>
      </trkpt>
      <trkpt lat="48.25337" lon="-3.60603">
        <ele>74</ele>
        <time>2021-08-10T13:42:00Z</time>
      </trkpt>
      <trkpt lat="48.2533" lon="-3.60603">
        <ele>74</ele>
        <time>2021-08-10T13:42:01Z</time>
      </trkpt>
      <trkpt lat="48.25324" lon="-3.60604">
        <ele>74</ele>
        <time>2021-08-10T13:42:02Z</time>
      </trkpt>
      <trkpt lat="48.25317" lon="-3.60605">
        <ele>74</ele>
        <time>2021-08-10T13:42:03Z</time>
      </trkpt>
      <trkpt lat="48.2531" lon="-3.60605">
        <ele>74</ele>
        <time>2021-08-10T13:42:04Z</time>
      </trkpt>
      <trkpt lat="48.25304" lon="-3.60606">
        <ele>74</ele>
        <time>2021-08-10T13:42:05Z</time>
      </trkpt>
      <trkpt lat="48.25297" lon="-3.60606">
        <ele>74</ele>
        <time>2021-08-10T13:42:06Z</time>
      </trkpt>
      <trkpt lat="48.2529" lon="-3.60607">
        <ele>74</ele>
        <time>2021-08-10T13:42:07Z</time>
      </trkpt>
      <trkpt lat="48.25284" lon="-3.60607">
        <ele>74</ele>
        <time>2021-08-10T13:42:08Z</time>
      </trkpt>
      <trkpt lat="48.25277" lon="-3.60608">
        <ele>74</ele>
        <time>2021-08-10T13:42:09Z</time>
      </trkpt>
      <trkpt lat="48.2527" lon="-3.60608">
        <ele>74.2</ele>
        <time>2021-08-10T13:42:10Z</time>
      </trkpt>
      <trkpt lat="48.25264" lon="-3.60609">
        <ele>74.2</ele>
        <time>2021-08-10T13:42:11Z</time>
      </trkpt>
      <trkpt lat="48.25257" lon="-3.6061">
        <ele>74.2</ele>
        <time>2021-08-10T13:42:12Z</time>
      </trkpt>
      <trkpt lat="48.25251" lon="-3.60611">
        <ele>74.2</ele>
        <time>2021-08-10T13:42:13Z</time>
      </trkpt>
      <trkpt lat="48.25245" lon="-3.60613">
        <ele>74.4</ele>
        <time>2021-08-10T13:42:14Z</time>
      </trkpt>
      <trkpt lat="48.25239" lon="-3.60615">
        <ele>74.4</ele>
        <time>2021-08-10T13:42:15Z</time>
      </trkpt>
      <trkpt lat="48.25233" lon="-3.60618">
        <ele>74.4</ele>
        <time>2021-08-10T13:42:16Z</time>
      </trkpt>
      <trkpt lat="48.25227" lon="-3.60622">
        <ele>74.6</ele>
        <time>2021-08-10T13:42:17Z</time>
      </trkpt>
      <trkpt lat="48.25222" lon="-3.60625">
        <ele>74.6</ele>
        <time>2021-08-10T13:42:18Z</time>
      </trkpt>
      <trkpt lat="48.25216" lon="-3.60629">
        <ele>74.6</ele>
        <time>2021-08-10T13:42:19Z</time>
      </trkpt>
      <trkpt lat="48.25209" lon="-3.60632">
        <ele>74.6</ele>
        <time>2021-08-10T13:42:20Z</time>
      </trkpt>
      <trkpt lat="48.25202" lon="-3.60635">
        <ele>74.6</ele>
        <time>2021-08-10T13:42:21Z</time>
      </trkpt>
      <trkpt lat="48.25194" lon="-3.60638">
        <ele>74.6</ele>
        <time>2021-08-10T13:42:22Z</time>
      </trkpt>
      <trkpt lat="48.25186" lon="-3.6064">
        <ele>74.6</ele>
        <time>2021-08-10T13:42:23Z</time>
      </trkpt>
      <trkpt lat="48.25178" lon="-3.60643">
        <ele>74.6</ele>
        <time>2021-08-10T13:42:24Z</time>
      </trkpt>
      <trkpt lat="48.2517" lon="-3.60647">
        <ele>74.6</ele>
        <time>2021-08-10T13:42:25Z</time>
      </trkpt>
      <trkpt lat="48.25162" lon="-3.60653">
        <ele>74.6</ele>
        <time>2021-08-10T13:42:26Z</time>
      </trkpt>
      <trkpt lat="48.25156" lon="-3.6066">
        <ele>74.6</ele>
        <time>2021-08-10T13:42:27Z</time>
      </trkpt>
      <trkpt lat="48.25152" lon="-3.6067">
        <ele>74.2</ele>
        <time>2021-08-10T13:42:28Z</time>
      </trkpt>
      <trkpt lat="48.25149" lon="-3.60682">
        <ele>73.4</ele>
        <time>2021-08-10T13:42:29Z</time>
      </trkpt>
      <trkpt lat="48.25149" lon="-3.60693">
        <ele>72.4</ele>
        <time>2021-08-10T13:42:30Z</time>
      </trkpt>
      <trkpt lat="48.25149" lon="-3.60704">
        <ele>71.6</ele>
        <time>2021-08-10T13:42:31Z</time>
      </trkpt>
      <trkpt lat="48.2515" lon="-3.60714">
        <ele>70.8</ele>
        <time>2021-08-10T13:42:32Z</time>
      </trkpt>
      <trkpt lat="48.25151" lon="-3.60724">
        <ele>70.2</ele>
        <time>2021-08-10T13:42:33Z</time>
      </trkpt>
      <trkpt lat="48.25152" lon="-3.60733">
        <ele>69.8</ele>
        <time>2021-08-10T13:42:34Z</time>
      </trkpt>
      <trkpt lat="48.25153" lon="-3.60742">
        <ele>69.6</ele>
        <time>2021-08-10T13:42:35Z</time>
      </trkpt>
      <trkpt lat="48.25153" lon="-3.60751">
        <ele>69.6</ele>
        <time>2021-08-10T13:42:36Z</time>
      </trkpt>
      <trkpt lat="48.25153" lon="-3.6076">
        <ele>69.6</ele>
        <time>2021-08-10T13:42:37Z</time>
      </trkpt>
      <trkpt lat="48.25153" lon="-3.60769">
        <ele>69.6</ele>
        <time>2021-08-10T13:42:38Z</time>
      </trkpt>
      <trkpt lat="48.25152" lon="-3.60777">
        <ele>69.6</ele>
        <time>2021-08-10T13:42:39Z</time>
      </trkpt>
      <trkpt lat="48.2515" lon="-3.60784">
        <ele>69.6</ele>
        <time>2021-08-10T13:42:40Z</time>
      </trkpt>
      <trkpt lat="48.25147" lon="-3.6079">
        <ele>69.6</ele>
        <time>2021-08-10T13:42:41Z</time>
      </trkpt>
      <trkpt lat="48.25144" lon="-3.60795">
        <ele>69.6</ele>
        <time>2021-08-10T13:42:42Z</time>
      </trkpt>
      <trkpt lat="48.25141" lon="-3.608">
        <ele>69.8</ele>
        <time>2021-08-10T13:42:43Z</time>
      </trkpt>
      <trkpt lat="48.25139" lon="-3.60804">
        <ele>70</ele>
        <time>2021-08-10T13:42:44Z</time>
      </trkpt>
      <trkpt lat="48.25137" lon="-3.60808">
        <ele>70.2</ele>
        <time>2021-08-10T13:42:45Z</time>
      </trkpt>
      <trkpt lat="48.25135" lon="-3.60811">
        <ele>70.2</ele>
        <time>2021-08-10T13:42:46Z</time>
      </trkpt>
      <trkpt lat="48.25134" lon="-3.60814">
        <ele>70.4</ele>
        <time>2021-08-10T13:42:47Z</time>
      </trkpt>
      <trkpt lat="48.25132" lon="-3.60816">
        <ele>70.6</ele>
        <time>2021-08-10T13:42:48Z</time>
      </trkpt>
      <trkpt lat="48.25131" lon="-3.60819">
        <ele>70.8</ele>
        <time>2021-08-10T13:42:49Z</time>
      </trkpt>
      <trkpt lat="48.2513" lon="-3.60821">
        <ele>71.2</ele>
        <time>2021-08-10T13:42:50Z</time>
      </trkpt>
      <trkpt lat="48.25128" lon="-3.60824">
        <ele>71.6</ele>
        <time>2021-08-10T13:42:51Z</time>
      </trkpt>
      <trkpt lat="48.25127" lon="-3.60826">
        <ele>72.2</ele>
        <time>2021-08-10T13:42:52Z</time>
      </trkpt>
      <trkpt lat="48.25126" lon="-3.60829">
        <ele>72.6</ele>
        <time>2021-08-10T13:42:53Z</time>
      </trkpt>
      <trkpt lat="48.25125" lon="-3.60831">
        <ele>73</ele>
        <time>2021-08-10T13:42:54Z</time>
      </trkpt>
      <trkpt lat="48.25124" lon="-3.60834">
        <ele>73.4</ele>
        <time>2021-08-10T13:42:55Z</time>
      </trkpt>
      <trkpt lat="48.25123" lon="-3.60836">
        <ele>73.8</ele>
        <time>2021-08-10T13:42:56Z</time>
      </trkpt>
      <trkpt lat="48.25122" lon="-3.60838">
        <ele>74.2</ele>
        <time>2021-08-10T13:42:57Z</time>
      </trkpt>
      <trkpt lat="48.25121" lon="-3.6084">
        <ele>74.4</ele>
        <time>2021-08-10T13:42:58Z</time>
      </trkpt>
      <trkpt lat="48.2512" lon="-3.60842">
        <ele>74.6</ele>
        <time>2021-08-10T13:42:59Z</time>
      </trkpt>
      <trkpt lat="48.2512" lon="-3.60845">
        <ele>75</ele>
        <time>2021-08-10T13:43:00Z</time>
      </trkpt>
      <trkpt lat="48.25118" lon="-3.60847">
        <ele>75.2</ele>
        <time>2021-08-10T13:43:01Z</time>
      </trkpt>
      <trkpt lat="48.25117" lon="-3.60849">
        <ele>75.6</ele>
        <time>2021-08-10T13:43:02Z</time>
      </trkpt>
      <trkpt lat="48.25117" lon="-3.6085">
        <ele>76</ele>
        <time>2021-08-10T13:43:03Z</time>
      </trkpt>
      <trkpt lat="48.25116" lon="-3.60852">
        <ele>76.2</ele>
        <time>2021-08-10T13:43:04Z</time>
      </trkpt>
      <trkpt lat="48.25116" lon="-3.60855">
        <ele>76.6</ele>
        <time>2021-08-10T13:43:05Z</time>
      </trkpt>
      <trkpt lat="48.25115" lon="-3.60857">
        <ele>76.8</ele>
        <time>2021-08-10T13:43:06Z</time>
      </trkpt>
      <trkpt lat="48.25114" lon="-3.60859">
        <ele>77.2</ele>
        <time>2021-08-10T13:43:07Z</time>
      </trkpt>
      <trkpt lat="48.25114" lon="-3.60861">
        <ele>77.4</ele>
        <time>2021-08-10T13:43:08Z</time>
      </trkpt>
      <trkpt lat="48.25113" lon="-3.60862">
        <ele>77.6</ele>
        <time>2021-08-10T13:43:09Z</time>
      </trkpt>
      <trkpt lat="48.25113" lon="-3.60863">
        <ele>78</ele>
        <time>2021-08-10T13:43:10Z</time>
      </trkpt>
      <trkpt lat="48.25112" lon="-3.60865">
        <ele>78.2</ele>
        <time>2021-08-10T13:43:11Z</time>
      </trkpt>
      <trkpt lat="48.25112" lon="-3.60866">
        <ele>78.6</ele>
        <time>2021-08-10T13:43:12Z</time>
      </trkpt>
      <trkpt lat="48.25112" lon="-3.60867">
        <ele>79</ele>
        <time>2021-08-10T13:43:13Z</time>
      </trkpt>
      <trkpt lat="48.25112" lon="-3.60869">
        <ele>79.2</ele>
        <time>2021-08-10T13:43:14Z</time>
      </trkpt>
      <trkpt lat="48.25111" lon="-3.60871">
        <ele>79.6</ele>
        <time>2021-08-10T13:43:15Z</time>
      </trkpt>
      <trkpt lat="48.25111" lon="-3.60873">
        <ele>79.8</ele>
        <time>2021-08-10T13:43:16Z</time>
      </trkpt>
      <trkpt lat="48.2511" lon="-3.60875">
        <ele>80.2</ele>
        <time>2021-08-10T13:43:17Z</time>
      </trkpt>
      <trkpt lat="48.25109" lon="-3.60876">
        <ele>80.4</ele>
        <time>2021-08-10T13:43:18Z</time>
      </trkpt>
      <trkpt lat="48.25109" lon="-3.60878">
        <ele>80.6</ele>
        <time>2021-08-10T13:43:19Z</time>
      </trkpt>
      <trkpt lat="48.25109" lon="-3.6088">
        <ele>81</ele>
        <time>2021-08-10T13:43:20Z</time>
      </trkpt>
      <trkpt lat="48.25108" lon="-3.60882">
        <ele>81.2</ele>
        <time>2021-08-10T13:43:21Z</time>
      </trkpt>
      <trkpt lat="48.25107" lon="-3.60884">
        <ele>81.4</ele>
        <time>2021-08-10T13:43:22Z</time>
      </trkpt>
      <trkpt lat="48.25107" lon="-3.60886">
        <ele>81.6</ele>
        <time>2021-08-10T13:43:23Z</time>
      </trkpt>
      <trkpt lat="48.25106" lon="-3.60888">
        <ele>82</ele>
        <time>2021-08-10T13:43:24Z</time>
      </trkpt>
      <trkpt lat="48.25105" lon="-3.60891">
        <ele>82.4</ele>
        <time>2021-08-10T13:43:25Z</time>
      </trkpt>
      <trkpt lat="48.25104" lon="-3.60893">
        <ele>82.6</ele>
        <time>2021-08-10T13:43:26Z</time>
      </trkpt>
      <trkpt lat="48.25103" lon="-3.60895">
        <ele>83</ele>
        <time>2021-08-10T13:43:27Z</time>
      </trkpt>
      <trkpt lat="48.25102" lon="-3.60897">
        <ele>83.2</ele>
        <time>2021-08-10T13:43:28Z</time>
      </trkpt>
      <trkpt lat="48.25101" lon="-3.609">
        <ele>83.4</ele>
        <time>2021-08-10T13:43:29Z</time>
      </trkpt>
      <trkpt lat="48.25101" lon="-3.60902">
        <ele>83.6</ele>
        <time>2021-08-10T13:43:30Z</time>
      </trkpt>
      <trkpt lat="48.251" lon="-3.60905">
        <ele>83.8</ele>
        <time>2021-08-10T13:43:31Z</time>
      </trkpt>
      <trkpt lat="48.25099" lon="-3.60907">
        <ele>84.2</ele>
        <time>2021-08-10T13:43:32Z</time>
      </trkpt>
      <trkpt lat="48.25098" lon="-3.60909">
        <ele>84.4</ele>
        <time>2021-08-10T13:43:33Z</time>
      </trkpt>
      <trkpt lat="48.25097" lon="-3.60911">
        <ele>84.8</ele>
        <time>2021-08-10T13:43:34Z</time>
      </trkpt>
      <trkpt lat="48.25096" lon="-3.60913">
        <ele>85</ele>
        <time>2021-08-10T13:43:35Z</time>
      </trkpt>
      <trkpt lat="48.25095" lon="-3.60916">
        <ele>85.2</ele>
        <time>2021-08-10T13:43:36Z</time>
      </trkpt>
      <trkpt lat="48.25095" lon="-3.60918">
        <ele>85.6</ele>
        <time>2021-08-10T13:43:37Z</time>
      </trkpt>
      <trkpt lat="48.25094" lon="-3.60921">
        <ele>85.8</ele>
        <time>2021-08-10T13:43:38Z</time>
      </trkpt>
      <trkpt lat="48.25093" lon="-3.60923">
        <ele>86</ele>
        <time>2021-08-10T13:43:39Z</time>
      </trkpt>
      <trkpt lat="48.25092" lon="-3.60926">
        <ele>86.2</ele>
        <time>2021-08-10T13:43:40Z</time>
      </trkpt>
      <trkpt lat="48.25091" lon="-3.60929">
        <ele>86.6</ele>
        <time>2021-08-10T13:43:41Z</time>
      </trkpt>
      <trkpt lat="48.25091" lon="-3.60931">
        <ele>86.8</ele>
        <time>2021-08-10T13:43:42Z</time>
      </trkpt>
      <trkpt lat="48.2509" lon="-3.60934">
        <ele>87.2</ele>
        <time>2021-08-10T13:43:43Z</time>
      </trkpt>
      <trkpt lat="48.25089" lon="-3.60936">
        <ele>87.4</ele>
        <time>2021-08-10T13:43:44Z</time>
      </trkpt>
      <trkpt lat="48.25088" lon="-3.60939">
        <ele>87.6</ele>
        <time>2021-08-10T13:43:45Z</time>
      </trkpt>
      <trkpt lat="48.25087" lon="-3.60942">
        <ele>87.8</ele>
        <time>2021-08-10T13:43:46Z</time>
      </trkpt>
      <trkpt lat="48.25086" lon="-3.60944">
        <ele>88</ele>
        <time>2021-08-10T13:43:47Z</time>
      </trkpt>
      <trkpt lat="48.25085" lon="-3.60947">
        <ele>88.2</ele>
        <time>2021-08-10T13:43:48Z</time>
      </trkpt>
      <trkpt lat="48.25084" lon="-3.60949">
        <ele>88.6</ele>
        <time>2021-08-10T13:43:49Z</time>
      </trkpt>
      <trkpt lat="48.25083" lon="-3.60952">
        <ele>88.8</ele>
        <time>2021-08-10T13:43:50Z</time>
      </trkpt>
      <trkpt lat="48.25082" lon="-3.60954">
        <ele>89</ele>
        <time>2021-08-10T13:43:51Z</time>
      </trkpt>
      <trkpt lat="48.25081" lon="-3.60957">
        <ele>89.4</ele>
        <time>2021-08-10T13:43:52Z</time>
      </trkpt>
      <trkpt lat="48.2508" lon="-3.60959">
        <ele>89.6</ele>
        <time>2021-08-10T13:43:53Z</time>
      </trkpt>
      <trkpt lat="48.2508" lon="-3.60961">
        <ele>89.8</ele>
        <time>2021-08-10T13:43:54Z</time>
      </trkpt>
      <trkpt lat="48.25079" lon="-3.60963">
        <ele>90</ele>
        <time>2021-08-10T13:43:55Z</time>
      </trkpt>
      <trkpt lat="48.25078" lon="-3.60966">
        <ele>90.2</ele>
        <time>2021-08-10T13:43:56Z</time>
      </trkpt>
      <trkpt lat="48.25077" lon="-3.60968">
        <ele>90.4</ele>
        <time>2021-08-10T13:43:57Z</time>
      </trkpt>
      <trkpt lat="48.25076" lon="-3.6097">
        <ele>90.6</ele>
        <time>2021-08-10T13:43:58Z</time>
      </trkpt>
      <trkpt lat="48.25075" lon="-3.60972">
        <ele>90.6</ele>
        <time>2021-08-10T13:43:59Z</time>
      </trkpt>
      <trkpt lat="48.25074" lon="-3.60974">
        <ele>90.8</ele>
        <time>2021-08-10T13:44:00Z</time>
      </trkpt>
      <trkpt lat="48.25074" lon="-3.60977">
        <ele>90.8</ele>
        <time>2021-08-10T13:44:01Z</time>
      </trkpt>
      <trkpt lat="48.25073" lon="-3.60979">
        <ele>91</ele>
        <time>2021-08-10T13:44:02Z</time>
      </trkpt>
      <trkpt lat="48.25073" lon="-3.60982">
        <ele>91.2</ele>
        <time>2021-08-10T13:44:03Z</time>
      </trkpt>
      <trkpt lat="48.25072" lon="-3.60984">
        <ele>91.4</ele>
        <time>2021-08-10T13:44:04Z</time>
      </trkpt>
      <trkpt lat="48.25071" lon="-3.60986">
        <ele>91.6</ele>
        <time>2021-08-10T13:44:05Z</time>
      </trkpt>
      <trkpt lat="48.2507" lon="-3.60989">
        <ele>91.6</ele>
        <time>2021-08-10T13:44:06Z</time>
      </trkpt>
      <trkpt lat="48.2507" lon="-3.60991">
        <ele>91.8</ele>
        <time>2021-08-10T13:44:07Z</time>
      </trkpt>
      <trkpt lat="48.25069" lon="-3.60994">
        <ele>91.8</ele>
        <time>2021-08-10T13:44:08Z</time>
      </trkpt>
      <trkpt lat="48.25068" lon="-3.60996">
        <ele>92</ele>
        <time>2021-08-10T13:44:09Z</time>
      </trkpt>
      <trkpt lat="48.25067" lon="-3.60999">
        <ele>92</ele>
        <time>2021-08-10T13:44:10Z</time>
      </trkpt>
      <trkpt lat="48.25067" lon="-3.61001">
        <ele>92.2</ele>
        <time>2021-08-10T13:44:11Z</time>
      </trkpt>
      <trkpt lat="48.25066" lon="-3.61004">
        <ele>92.4</ele>
        <time>2021-08-10T13:44:12Z</time>
      </trkpt>
      <trkpt lat="48.25065" lon="-3.61007">
        <ele>92.6</ele>
        <time>2021-08-10T13:44:13Z</time>
      </trkpt>
      <trkpt lat="48.25065" lon="-3.61009">
        <ele>92.6</ele>
        <time>2021-08-10T13:44:14Z</time>
      </trkpt>
      <trkpt lat="48.25064" lon="-3.61012">
        <ele>92.8</ele>
        <time>2021-08-10T13:44:15Z</time>
      </trkpt>
      <trkpt lat="48.25063" lon="-3.61014">
        <ele>92.8</ele>
        <time>2021-08-10T13:44:16Z</time>
      </trkpt>
      <trkpt lat="48.25063" lon="-3.61017">
        <ele>93</ele>
        <time>2021-08-10T13:44:17Z</time>
      </trkpt>
      <trkpt lat="48.25063" lon="-3.6102">
        <ele>93.2</ele>
        <time>2021-08-10T13:44:18Z</time>
      </trkpt>
      <trkpt lat="48.25062" lon="-3.61023">
        <ele>93.2</ele>
        <time>2021-08-10T13:44:19Z</time>
      </trkpt>
      <trkpt lat="48.25062" lon="-3.61026">
        <ele>93.4</ele>
        <time>2021-08-10T13:44:20Z</time>
      </trkpt>
      <trkpt lat="48.25062" lon="-3.61028">
        <ele>93.6</ele>
        <time>2021-08-10T13:44:21Z</time>
      </trkpt>
      <trkpt lat="48.25061" lon="-3.61031">
        <ele>93.6</ele>
        <time>2021-08-10T13:44:22Z</time>
      </trkpt>
      <trkpt lat="48.25061" lon="-3.61034">
        <ele>93.6</ele>
        <time>2021-08-10T13:44:23Z</time>
      </trkpt>
      <trkpt lat="48.25061" lon="-3.61037">
        <ele>93.6</ele>
        <time>2021-08-10T13:44:24Z</time>
      </trkpt>
      <trkpt lat="48.2506" lon="-3.6104">
        <ele>93.8</ele>
        <time>2021-08-10T13:44:25Z</time>
      </trkpt>
      <trkpt lat="48.2506" lon="-3.61042">
        <ele>93.8</ele>
        <time>2021-08-10T13:44:26Z</time>
      </trkpt>
      <trkpt lat="48.2506" lon="-3.61045">
        <ele>93.8</ele>
        <time>2021-08-10T13:44:27Z</time>
      </trkpt>
      <trkpt lat="48.2506" lon="-3.61048">
        <ele>94.2</ele>
        <time>2021-08-10T13:44:28Z</time>
      </trkpt>
      <trkpt lat="48.2506" lon="-3.61052">
        <ele>94.4</ele>
        <time>2021-08-10T13:44:29Z</time>
      </trkpt>
      <trkpt lat="48.2506" lon="-3.61055">
        <ele>94.6</ele>
        <time>2021-08-10T13:44:30Z</time>
      </trkpt>
      <trkpt lat="48.25059" lon="-3.61058">
        <ele>94.8</ele>
        <time>2021-08-10T13:44:31Z</time>
      </trkpt>
      <trkpt lat="48.25059" lon="-3.61061">
        <ele>95</ele>
        <time>2021-08-10T13:44:32Z</time>
      </trkpt>
      <trkpt lat="48.25059" lon="-3.61064">
        <ele>95</ele>
        <time>2021-08-10T13:44:33Z</time>
      </trkpt>
      <trkpt lat="48.25059" lon="-3.61067">
        <ele>95.2</ele>
        <time>2021-08-10T13:44:34Z</time>
      </trkpt>
      <trkpt lat="48.25059" lon="-3.6107">
        <ele>95.6</ele>
        <time>2021-08-10T13:44:35Z</time>
      </trkpt>
      <trkpt lat="48.25059" lon="-3.61073">
        <ele>95.8</ele>
        <time>2021-08-10T13:44:36Z</time>
      </trkpt>
      <trkpt lat="48.2506" lon="-3.61076">
        <ele>96.2</ele>
        <time>2021-08-10T13:44:37Z</time>
      </trkpt>
      <trkpt lat="48.25059" lon="-3.61079">
        <ele>96.2</ele>
        <time>2021-08-10T13:44:38Z</time>
      </trkpt>
      <trkpt lat="48.25059" lon="-3.61082">
        <ele>96.4</ele>
        <time>2021-08-10T13:44:39Z</time>
      </trkpt>
      <trkpt lat="48.25059" lon="-3.61085">
        <ele>96.4</ele>
        <time>2021-08-10T13:44:40Z</time>
      </trkpt>
      <trkpt lat="48.2506" lon="-3.61088">
        <ele>96.6</ele>
        <time>2021-08-10T13:44:41Z</time>
      </trkpt>
      <trkpt lat="48.2506" lon="-3.61091">
        <ele>96.6</ele>
        <time>2021-08-10T13:44:42Z</time>
      </trkpt>
      <trkpt lat="48.2506" lon="-3.61094">
        <ele>96.8</ele>
        <time>2021-08-10T13:44:43Z</time>
      </trkpt>
      <trkpt lat="48.2506" lon="-3.61098">
        <ele>96.8</ele>
        <time>2021-08-10T13:44:44Z</time>
      </trkpt>
      <trkpt lat="48.2506" lon="-3.61101">
        <ele>97</ele>
        <time>2021-08-10T13:44:45Z</time>
      </trkpt>
      <trkpt lat="48.2506" lon="-3.61104">
        <ele>97.2</ele>
        <time>2021-08-10T13:44:46Z</time>
      </trkpt>
      <trkpt lat="48.2506" lon="-3.61107">
        <ele>97.4</ele>
        <time>2021-08-10T13:44:47Z</time>
      </trkpt>
      <trkpt lat="48.25061" lon="-3.6111">
        <ele>97.6</ele>
        <time>2021-08-10T13:44:48Z</time>
      </trkpt>
      <trkpt lat="48.25061" lon="-3.61113">
        <ele>97.8</ele>
        <time>2021-08-10T13:44:49Z</time>
      </trkpt>
      <trkpt lat="48.25061" lon="-3.61117">
        <ele>98</ele>
        <time>2021-08-10T13:44:50Z</time>
      </trkpt>
      <trkpt lat="48.25061" lon="-3.6112">
        <ele>98.2</ele>
        <time>2021-08-10T13:44:51Z</time>
      </trkpt>
      <trkpt lat="48.25061" lon="-3.61123">
        <ele>98.4</ele>
        <time>2021-08-10T13:44:52Z</time>
      </trkpt>
      <trkpt lat="48.25061" lon="-3.61126">
        <ele>98.4</ele>
        <time>2021-08-10T13:44:53Z</time>
      </trkpt>
      <trkpt lat="48.25061" lon="-3.61129">
        <ele>98.6</ele>
        <time>2021-08-10T13:44:54Z</time>
      </trkpt>
      <trkpt lat="48.25061" lon="-3.61132">
        <ele>98.8</ele>
        <time>2021-08-10T13:44:55Z</time>
      </trkpt>
      <trkpt lat="48.25062" lon="-3.61135">
        <ele>99</ele>
        <time>2021-08-10T13:44:56Z</time>
      </trkpt>
      <trkpt lat="48.25062" lon="-3.61138">
        <ele>99.2</ele>
        <time>2021-08-10T13:44:57Z</time>
      </trkpt>
      <trkpt lat="48.25062" lon="-3.61141">
        <ele>99.4</ele>
        <time>2021-08-10T13:44:58Z</time>
      </trkpt>
      <trkpt lat="48.25063" lon="-3.61144">
        <ele>99.6</ele>
        <time>2021-08-10T13:44:59Z</time>
      </trkpt>
      <trkpt lat="48.25063" lon="-3.61147">
        <ele>99.6</ele>
        <time>2021-08-10T13:45:00Z</time>
      </trkpt>
      <trkpt lat="48.25063" lon="-3.6115">
        <ele>99.8</ele>
        <time>2021-08-10T13:45:01Z</time>
      </trkpt>
      <trkpt lat="48.25063" lon="-3.61153">
        <ele>99.8</ele>
        <time>2021-08-10T13:45:02Z</time>
      </trkpt>
      <trkpt lat="48.25063" lon="-3.61157">
        <ele>100</ele>
        <time>2021-08-10T13:45:03Z</time>
      </trkpt>
      <trkpt lat="48.25063" lon="-3.6116">
        <ele>100</ele>
        <time>2021-08-10T13:45:04Z</time>
      </trkpt>
      <trkpt lat="48.25063" lon="-3.61163">
        <ele>100.2</ele>
        <time>2021-08-10T13:45:05Z</time>
      </trkpt>
      <trkpt lat="48.25064" lon="-3.61166">
        <ele>100.4</ele>
        <time>2021-08-10T13:45:06Z</time>
      </trkpt>
      <trkpt lat="48.25064" lon="-3.61169">
        <ele>100.6</ele>
        <time>2021-08-10T13:45:07Z</time>
      </trkpt>
      <trkpt lat="48.25064" lon="-3.61172">
        <ele>100.8</ele>
        <time>2021-08-10T13:45:08Z</time>
      </trkpt>
      <trkpt lat="48.25065" lon="-3.61175">
        <ele>101</ele>
        <time>2021-08-10T13:45:09Z</time>
      </trkpt>
      <trkpt lat="48.25065" lon="-3.61178">
        <ele>101.2</ele>
        <time>2021-08-10T13:45:10Z</time>
      </trkpt>
      <trkpt lat="48.25065" lon="-3.61181">
        <ele>101.4</ele>
        <time>2021-08-10T13:45:11Z</time>
      </trkpt>
      <trkpt lat="48.25065" lon="-3.61185">
        <ele>101.6</ele>
        <time>2021-08-10T13:45:12Z</time>
      </trkpt>
      <trkpt lat="48.25065" lon="-3.61188">
        <ele>101.8</ele>
        <time>2021-08-10T13:45:13Z</time>
      </trkpt>
      <trkpt lat="48.25065" lon="-3.61191">
        <ele>101.8</ele>
        <time>2021-08-10T13:45:14Z</time>
      </trkpt>
      <trkpt lat="48.25066" lon="-3.61195">
        <ele>102</ele>
        <time>2021-08-10T13:45:15Z</time>
      </trkpt>
      <trkpt lat="48.25066" lon="-3.61198">
        <ele>102</ele>
        <time>2021-08-10T13:45:16Z</time>
      </trkpt>
      <trkpt lat="48.25066" lon="-3.61201">
        <ele>102</ele>
        <time>2021-08-10T13:45:17Z</time>
      </trkpt>
      <trkpt lat="48.25066" lon="-3.61205">
        <ele>102.2</ele>
        <time>2021-08-10T13:45:18Z</time>
      </trkpt>
      <trkpt lat="48.25066" lon="-3.61208">
        <ele>102.4</ele>
        <time>2021-08-10T13:45:19Z</time>
      </trkpt>
      <trkpt lat="48.25066" lon="-3.61211">
        <ele>102.6</ele>
        <time>2021-08-10T13:45:20Z</time>
      </trkpt>
      <trkpt lat="48.25066" lon="-3.61215">
        <ele>102.8</ele>
        <time>2021-08-10T13:45:21Z</time>
      </trkpt>
      <trkpt lat="48.25067" lon="-3.61218">
        <ele>103</ele>
        <time>2021-08-10T13:45:22Z</time>
      </trkpt>
      <trkpt lat="48.25067" lon="-3.61221">
        <ele>103.2</ele>
        <time>2021-08-10T13:45:23Z</time>
      </trkpt>
      <trkpt lat="48.25067" lon="-3.61225">
        <ele>103.4</ele>
        <time>2021-08-10T13:45:24Z</time>
      </trkpt>
      <trkpt lat="48.25068" lon="-3.61228">
        <ele>103.4</ele>
        <time>2021-08-10T13:45:25Z</time>
      </trkpt>
      <trkpt lat="48.25068" lon="-3.61232">
        <ele>103.6</ele>
        <time>2021-08-10T13:45:26Z</time>
      </trkpt>
      <trkpt lat="48.25068" lon="-3.61235">
        <ele>103.8</ele>
        <time>2021-08-10T13:45:27Z</time>
      </trkpt>
      <trkpt lat="48.25069" lon="-3.61239">
        <ele>103.8</ele>
        <time>2021-08-10T13:45:28Z</time>
      </trkpt>
      <trkpt lat="48.25069" lon="-3.61242">
        <ele>104</ele>
        <time>2021-08-10T13:45:29Z</time>
      </trkpt>
      <trkpt lat="48.25069" lon="-3.61245">
        <ele>104</ele>
        <time>2021-08-10T13:45:30Z</time>
      </trkpt>
      <trkpt lat="48.25069" lon="-3.61249">
        <ele>104</ele>
        <time>2021-08-10T13:45:31Z</time>
      </trkpt>
      <trkpt lat="48.25068" lon="-3.61252">
        <ele>104.2</ele>
        <time>2021-08-10T13:45:32Z</time>
      </trkpt>
      <trkpt lat="48.25069" lon="-3.61256">
        <ele>104.4</ele>
        <time>2021-08-10T13:45:33Z</time>
      </trkpt>
      <trkpt lat="48.25069" lon="-3.61259">
        <ele>104.6</ele>
        <time>2021-08-10T13:45:34Z</time>
      </trkpt>
      <trkpt lat="48.25069" lon="-3.61263">
        <ele>104.8</ele>
        <time>2021-08-10T13:45:35Z</time>
      </trkpt>
      <trkpt lat="48.25069" lon="-3.61267">
        <ele>104.8</ele>
        <time>2021-08-10T13:45:36Z</time>
      </trkpt>
      <trkpt lat="48.25069" lon="-3.6127">
        <ele>105</ele>
        <time>2021-08-10T13:45:37Z</time>
      </trkpt>
      <trkpt lat="48.2507" lon="-3.61274">
        <ele>105.2</ele>
        <time>2021-08-10T13:45:38Z</time>
      </trkpt>
      <trkpt lat="48.2507" lon="-3.61277">
        <ele>105.4</ele>
        <time>2021-08-10T13:45:39Z</time>
      </trkpt>
      <trkpt lat="48.2507" lon="-3.61281">
        <ele>105.4</ele>
        <time>2021-08-10T13:45:40Z</time>
      </trkpt>
      <trkpt lat="48.2507" lon="-3.61284">
        <ele>105.6</ele>
        <time>2021-08-10T13:45:41Z</time>
      </trkpt>
      <trkpt lat="48.25071" lon="-3.61288">
        <ele>105.6</ele>
        <time>2021-08-10T13:45:42Z</time>
      </trkpt>
      <trkpt lat="48.25071" lon="-3.61292">
        <ele>105.6</ele>
        <time>2021-08-10T13:45:43Z</time>
      </trkpt>
      <trkpt lat="48.25071" lon="-3.61295">
        <ele>105.8</ele>
        <time>2021-08-10T13:45:44Z</time>
      </trkpt>
      <trkpt lat="48.25071" lon="-3.61299">
        <ele>105.8</ele>
        <time>2021-08-10T13:45:45Z</time>
      </trkpt>
      <trkpt lat="48.25071" lon="-3.61302">
        <ele>106</ele>
        <time>2021-08-10T13:45:46Z</time>
      </trkpt>
      <trkpt lat="48.25072" lon="-3.61306">
        <ele>106.4</ele>
        <time>2021-08-10T13:45:47Z</time>
      </trkpt>
      <trkpt lat="48.25072" lon="-3.6131">
        <ele>106.6</ele>
        <time>2021-08-10T13:45:48Z</time>
      </trkpt>
      <trkpt lat="48.25072" lon="-3.61314">
        <ele>106.8</ele>
        <time>2021-08-10T13:45:49Z</time>
      </trkpt>
      <trkpt lat="48.25072" lon="-3.61318">
        <ele>107</ele>
        <time>2021-08-10T13:45:50Z</time>
      </trkpt>
      <trkpt lat="48.25072" lon="-3.61322">
        <ele>107.2</ele>
        <time>2021-08-10T13:45:51Z</time>
      </trkpt>
      <trkpt lat="48.25073" lon="-3.61326">
        <ele>107.4</ele>
        <time>2021-08-10T13:45:52Z</time>
      </trkpt>
      <trkpt lat="48.25073" lon="-3.61329">
        <ele>107.4</ele>
        <time>2021-08-10T13:45:53Z</time>
      </trkpt>
      <trkpt lat="48.25073" lon="-3.61334">
        <ele>107.4</ele>
        <time>2021-08-10T13:45:54Z</time>
      </trkpt>
      <trkpt lat="48.25074" lon="-3.61338">
        <ele>107.4</ele>
        <time>2021-08-10T13:45:55Z</time>
      </trkpt>
      <trkpt lat="48.25074" lon="-3.61343">
        <ele>107.6</ele>
        <time>2021-08-10T13:45:56Z</time>
      </trkpt>
      <trkpt lat="48.25074" lon="-3.61347">
        <ele>107.6</ele>
        <time>2021-08-10T13:45:57Z</time>
      </trkpt>
      <trkpt lat="48.25075" lon="-3.61352">
        <ele>107.6</ele>
        <time>2021-08-10T13:45:58Z</time>
      </trkpt>
      <trkpt lat="48.25075" lon="-3.61357">
        <ele>107.8</ele>
        <time>2021-08-10T13:45:59Z</time>
      </trkpt>
      <trkpt lat="48.25075" lon="-3.61362">
        <ele>107.8</ele>
        <time>2021-08-10T13:46:00Z</time>
      </trkpt>
      <trkpt lat="48.25075" lon="-3.61367">
        <ele>107.8</ele>
        <time>2021-08-10T13:46:01Z</time>
      </trkpt>
      <trkpt lat="48.25075" lon="-3.61373">
        <ele>107.8</ele>
        <time>2021-08-10T13:46:02Z</time>
      </trkpt>
      <trkpt lat="48.25076" lon="-3.61378">
        <ele>108</ele>
        <time>2021-08-10T13:46:03Z</time>
      </trkpt>
      <trkpt lat="48.25076" lon="-3.61383">
        <ele>108</ele>
        <time>2021-08-10T13:46:04Z</time>
      </trkpt>
      <trkpt lat="48.25076" lon="-3.61388">
        <ele>108</ele>
        <time>2021-08-10T13:46:05Z</time>
      </trkpt>
      <trkpt lat="48.25077" lon="-3.61394">
        <ele>108.2</ele>
        <time>2021-08-10T13:46:06Z</time>
      </trkpt>
      <trkpt lat="48.25077" lon="-3.61399">
        <ele>108.2</ele>
        <time>2021-08-10T13:46:07Z</time>
      </trkpt>
      <trkpt lat="48.25077" lon="-3.61405">
        <ele>108.2</ele>
        <time>2021-08-10T13:46:08Z</time>
      </trkpt>
      <trkpt lat="48.25078" lon="-3.61411">
        <ele>108.2</ele>
        <time>2021-08-10T13:46:09Z</time>
      </trkpt>
      <trkpt lat="48.25078" lon="-3.61417">
        <ele>108.2</ele>
        <time>2021-08-10T13:46:10Z</time>
      </trkpt>
      <trkpt lat="48.25079" lon="-3.61423">
        <ele>108.2</ele>
        <time>2021-08-10T13:46:11Z</time>
      </trkpt>
      <trkpt lat="48.25079" lon="-3.61429">
        <ele>108.2</ele>
        <time>2021-08-10T13:46:12Z</time>
      </trkpt>
      <trkpt lat="48.2508" lon="-3.61435">
        <ele>108.2</ele>
        <time>2021-08-10T13:46:13Z</time>
      </trkpt>
      <trkpt lat="48.2508" lon="-3.61441">
        <ele>108.2</ele>
        <time>2021-08-10T13:46:14Z</time>
      </trkpt>
      <trkpt lat="48.25081" lon="-3.61447">
        <ele>108.2</ele>
        <time>2021-08-10T13:46:15Z</time>
      </trkpt>
      <trkpt lat="48.25081" lon="-3.61454">
        <ele>108.2</ele>
        <time>2021-08-10T13:46:16Z</time>
      </trkpt>
      <trkpt lat="48.25081" lon="-3.6146">
        <ele>108.2</ele>
        <time>2021-08-10T13:46:17Z</time>
      </trkpt>
      <trkpt lat="48.25082" lon="-3.61466">
        <ele>108.2</ele>
        <time>2021-08-10T13:46:18Z</time>
      </trkpt>
      <trkpt lat="48.25082" lon="-3.61472">
        <ele>108.2</ele>
        <time>2021-08-10T13:46:19Z</time>
      </trkpt>
      <trkpt lat="48.25082" lon="-3.61479">
        <ele>108.2</ele>
        <time>2021-08-10T13:46:20Z</time>
      </trkpt>
      <trkpt lat="48.25083" lon="-3.61485">
        <ele>108.2</ele>
        <time>2021-08-10T13:46:21Z</time>
      </trkpt>
      <trkpt lat="48.25083" lon="-3.61491">
        <ele>108.2</ele>
        <time>2021-08-10T13:46:22Z</time>
      </trkpt>
      <trkpt lat="48.25084" lon="-3.61497">
        <ele>108.4</ele>
        <time>2021-08-10T13:46:23Z</time>
      </trkpt>
      <trkpt lat="48.25084" lon="-3.61504">
        <ele>108.4</ele>
        <time>2021-08-10T13:46:24Z</time>
      </trkpt>
      <trkpt lat="48.25084" lon="-3.6151">
        <ele>108.4</ele>
        <time>2021-08-10T13:46:25Z</time>
      </trkpt>
      <trkpt lat="48.25085" lon="-3.61516">
        <ele>108.4</ele>
        <time>2021-08-10T13:46:26Z</time>
      </trkpt>
      <trkpt lat="48.25085" lon="-3.61521">
        <ele>108.4</ele>
        <time>2021-08-10T13:46:27Z</time>
      </trkpt>
      <trkpt lat="48.25086" lon="-3.61527">
        <ele>108.6</ele>
        <time>2021-08-10T13:46:28Z</time>
      </trkpt>
      <trkpt lat="48.25086" lon="-3.61533">
        <ele>108.6</ele>
        <time>2021-08-10T13:46:29Z</time>
      </trkpt>
      <trkpt lat="48.25086" lon="-3.61538">
        <ele>108.8</ele>
        <time>2021-08-10T13:46:30Z</time>
      </trkpt>
      <trkpt lat="48.25087" lon="-3.61544">
        <ele>109</ele>
        <time>2021-08-10T13:46:31Z</time>
      </trkpt>
      <trkpt lat="48.25087" lon="-3.6155">
        <ele>109</ele>
        <time>2021-08-10T13:46:32Z</time>
      </trkpt>
      <trkpt lat="48.25088" lon="-3.61556">
        <ele>109.2</ele>
        <time>2021-08-10T13:46:33Z</time>
      </trkpt>
      <trkpt lat="48.25088" lon="-3.61561">
        <ele>109.4</ele>
        <time>2021-08-10T13:46:34Z</time>
      </trkpt>
      <trkpt lat="48.25089" lon="-3.61567">
        <ele>109.6</ele>
        <time>2021-08-10T13:46:35Z</time>
      </trkpt>
      <trkpt lat="48.25089" lon="-3.61573">
        <ele>109.6</ele>
        <time>2021-08-10T13:46:36Z</time>
      </trkpt>
      <trkpt lat="48.25089" lon="-3.61579">
        <ele>109.8</ele>
        <time>2021-08-10T13:46:37Z</time>
      </trkpt>
      <trkpt lat="48.2509" lon="-3.61584">
        <ele>110</ele>
        <time>2021-08-10T13:46:38Z</time>
      </trkpt>
      <trkpt lat="48.2509" lon="-3.6159">
        <ele>110.2</ele>
        <time>2021-08-10T13:46:39Z</time>
      </trkpt>
      <trkpt lat="48.2509" lon="-3.61595">
        <ele>110.4</ele>
        <time>2021-08-10T13:46:40Z</time>
      </trkpt>
      <trkpt lat="48.25091" lon="-3.61601">
        <ele>110.6</ele>
        <time>2021-08-10T13:46:41Z</time>
      </trkpt>
      <trkpt lat="48.25091" lon="-3.61606">
        <ele>110.6</ele>
        <time>2021-08-10T13:46:42Z</time>
      </trkpt>
      <trkpt lat="48.25092" lon="-3.61611">
        <ele>110.8</ele>
        <time>2021-08-10T13:46:43Z</time>
      </trkpt>
      <trkpt lat="48.25092" lon="-3.61617">
        <ele>110.8</ele>
        <time>2021-08-10T13:46:44Z</time>
      </trkpt>
      <trkpt lat="48.25092" lon="-3.61622">
        <ele>111</ele>
        <time>2021-08-10T13:46:45Z</time>
      </trkpt>
      <trkpt lat="48.25093" lon="-3.61627">
        <ele>111.2</ele>
        <time>2021-08-10T13:46:46Z</time>
      </trkpt>
      <trkpt lat="48.25093" lon="-3.61632">
        <ele>111.4</ele>
        <time>2021-08-10T13:46:47Z</time>
      </trkpt>
      <trkpt lat="48.25093" lon="-3.61637">
        <ele>111.6</ele>
        <time>2021-08-10T13:46:48Z</time>
      </trkpt>
      <trkpt lat="48.25094" lon="-3.61643">
        <ele>111.8</ele>
        <time>2021-08-10T13:46:49Z</time>
      </trkpt>
      <trkpt lat="48.25094" lon="-3.61648">
        <ele>111.8</ele>
        <time>2021-08-10T13:46:50Z</time>
      </trkpt>
      <trkpt lat="48.25095" lon="-3.61653">
        <ele>111.8</ele>
        <time>2021-08-10T13:46:51Z</time>
      </trkpt>
      <trkpt lat="48.25095" lon="-3.61658">
        <ele>112</ele>
        <time>2021-08-10T13:46:52Z</time>
      </trkpt>
      <trkpt lat="48.25095" lon="-3.61663">
        <ele>112</ele>
        <time>2021-08-10T13:46:53Z</time>
      </trkpt>
      <trkpt lat="48.25096" lon="-3.61668">
        <ele>112.2</ele>
        <time>2021-08-10T13:46:54Z</time>
      </trkpt>
      <trkpt lat="48.25096" lon="-3.61674">
        <ele>112.2</ele>
        <time>2021-08-10T13:46:55Z</time>
      </trkpt>
      <trkpt lat="48.25097" lon="-3.61679">
        <ele>112.2</ele>
        <time>2021-08-10T13:46:56Z</time>
      </trkpt>
      <trkpt lat="48.25097" lon="-3.61684">
        <ele>112.2</ele>
        <time>2021-08-10T13:46:57Z</time>
      </trkpt>
      <trkpt lat="48.25097" lon="-3.61689">
        <ele>112.4</ele>
        <time>2021-08-10T13:46:58Z</time>
      </trkpt>
      <trkpt lat="48.25098" lon="-3.61694">
        <ele>112.4</ele>
        <time>2021-08-10T13:46:59Z</time>
      </trkpt>
      <trkpt lat="48.25098" lon="-3.617">
        <ele>112.4</ele>
        <time>2021-08-10T13:47:00Z</time>
      </trkpt>
      <trkpt lat="48.25098" lon="-3.61705">
        <ele>112.6</ele>
        <time>2021-08-10T13:47:01Z</time>
      </trkpt>
      <trkpt lat="48.25099" lon="-3.61711">
        <ele>112.6</ele>
        <time>2021-08-10T13:47:02Z</time>
      </trkpt>
      <trkpt lat="48.25099" lon="-3.61717">
        <ele>112.8</ele>
        <time>2021-08-10T13:47:03Z</time>
      </trkpt>
      <trkpt lat="48.251" lon="-3.61722">
        <ele>112.8</ele>
        <time>2021-08-10T13:47:04Z</time>
      </trkpt>
      <trkpt lat="48.251" lon="-3.61728">
        <ele>113</ele>
        <time>2021-08-10T13:47:05Z</time>
      </trkpt>
      <trkpt lat="48.251" lon="-3.61735">
        <ele>113</ele>
        <time>2021-08-10T13:47:06Z</time>
      </trkpt>
      <trkpt lat="48.251" lon="-3.61741">
        <ele>113.2</ele>
        <time>2021-08-10T13:47:07Z</time>
      </trkpt>
      <trkpt lat="48.251" lon="-3.61747">
        <ele>113.4</ele>
        <time>2021-08-10T13:47:08Z</time>
      </trkpt>
      <trkpt lat="48.251" lon="-3.61754">
        <ele>113.4</ele>
        <time>2021-08-10T13:47:09Z</time>
      </trkpt>
      <trkpt lat="48.251" lon="-3.6176">
        <ele>113.6</ele>
        <time>2021-08-10T13:47:10Z</time>
      </trkpt>
      <trkpt lat="48.251" lon="-3.61767">
        <ele>113.6</ele>
        <time>2021-08-10T13:47:11Z</time>
      </trkpt>
      <trkpt lat="48.251" lon="-3.61774">
        <ele>113.6</ele>
        <time>2021-08-10T13:47:12Z</time>
      </trkpt>
      <trkpt lat="48.251" lon="-3.61781">
        <ele>113.6</ele>
        <time>2021-08-10T13:47:13Z</time>
      </trkpt>
      <trkpt lat="48.251" lon="-3.61789">
        <ele>113.8</ele>
        <time>2021-08-10T13:47:14Z</time>
      </trkpt>
      <trkpt lat="48.25099" lon="-3.61797">
        <ele>113.8</ele>
        <time>2021-08-10T13:47:15Z</time>
      </trkpt>
      <trkpt lat="48.25098" lon="-3.61806">
        <ele>113.8</ele>
        <time>2021-08-10T13:47:16Z</time>
      </trkpt>
      <trkpt lat="48.25098" lon="-3.61816">
        <ele>113.8</ele>
        <time>2021-08-10T13:47:17Z</time>
      </trkpt>
      <trkpt lat="48.25097" lon="-3.61826">
        <ele>113.8</ele>
        <time>2021-08-10T13:47:18Z</time>
      </trkpt>
      <trkpt lat="48.25096" lon="-3.61837">
        <ele>113.8</ele>
        <time>2021-08-10T13:47:19Z</time>
      </trkpt>
      <trkpt lat="48.25094" lon="-3.61849">
        <ele>113.6</ele>
        <time>2021-08-10T13:47:20Z</time>
      </trkpt>
      <trkpt lat="48.25093" lon="-3.61861">
        <ele>113.6</ele>
        <time>2021-08-10T13:47:21Z</time>
      </trkpt>
      <trkpt lat="48.25092" lon="-3.61874">
        <ele>113.4</ele>
        <time>2021-08-10T13:47:22Z</time>
      </trkpt>
      <trkpt lat="48.2509" lon="-3.61887">
        <ele>113</ele>
        <time>2021-08-10T13:47:23Z</time>
      </trkpt>
      <trkpt lat="48.25089" lon="-3.61901">
        <ele>112.8</ele>
        <time>2021-08-10T13:47:24Z</time>
      </trkpt>
      <trkpt lat="48.25087" lon="-3.61916">
        <ele>112.2</ele>
        <time>2021-08-10T13:47:25Z</time>
      </trkpt>
      <trkpt lat="48.25086" lon="-3.61931">
        <ele>110.8</ele>
        <time>2021-08-10T13:47:26Z</time>
      </trkpt>
      <trkpt lat="48.25085" lon="-3.61946">
        <ele>109.8</ele>
        <time>2021-08-10T13:47:27Z</time>
      </trkpt>
      <trkpt lat="48.25083" lon="-3.61962">
        <ele>108.8</ele>
        <time>2021-08-10T13:47:28Z</time>
      </trkpt>
      <trkpt lat="48.25081" lon="-3.61978">
        <ele>108</ele>
        <time>2021-08-10T13:47:29Z</time>
      </trkpt>
      <trkpt lat="48.2508" lon="-3.61995">
        <ele>106.4</ele>
        <time>2021-08-10T13:47:30Z</time>
      </trkpt>
      <trkpt lat="48.25078" lon="-3.62011">
        <ele>104.8</ele>
        <time>2021-08-10T13:47:31Z</time>
      </trkpt>
      <trkpt lat="48.25078" lon="-3.62028">
        <ele>103.6</ele>
        <time>2021-08-10T13:47:32Z</time>
      </trkpt>
      <trkpt lat="48.25077" lon="-3.62046">
        <ele>102.8</ele>
        <time>2021-08-10T13:47:33Z</time>
      </trkpt>
      <trkpt lat="48.25076" lon="-3.62063">
        <ele>101.8</ele>
        <time>2021-08-10T13:47:34Z</time>
      </trkpt>
      <trkpt lat="48.25075" lon="-3.6208">
        <ele>100.8</ele>
        <time>2021-08-10T13:47:35Z</time>
      </trkpt>
      <trkpt lat="48.25074" lon="-3.62098">
        <ele>99.6</ele>
        <time>2021-08-10T13:47:36Z</time>
      </trkpt>
      <trkpt lat="48.25073" lon="-3.62116">
        <ele>98.6</ele>
        <time>2021-08-10T13:47:37Z</time>
      </trkpt>
      <trkpt lat="48.25073" lon="-3.62134">
        <ele>97.8</ele>
        <time>2021-08-10T13:47:38Z</time>
      </trkpt>
      <trkpt lat="48.25072" lon="-3.62151">
        <ele>96.8</ele>
        <time>2021-08-10T13:47:39Z</time>
      </trkpt>
      <trkpt lat="48.25071" lon="-3.62168">
        <ele>95.8</ele>
        <time>2021-08-10T13:47:40Z</time>
      </trkpt>
      <trkpt lat="48.25071" lon="-3.62185">
        <ele>95.4</ele>
        <time>2021-08-10T13:47:41Z</time>
      </trkpt>
      <trkpt lat="48.2507" lon="-3.622">
        <ele>94.8</ele>
        <time>2021-08-10T13:47:42Z</time>
      </trkpt>
      <trkpt lat="48.25069" lon="-3.62215">
        <ele>94.4</ele>
        <time>2021-08-10T13:47:43Z</time>
      </trkpt>
      <trkpt lat="48.25069" lon="-3.6223">
        <ele>94.2</ele>
        <time>2021-08-10T13:47:44Z</time>
      </trkpt>
      <trkpt lat="48.25068" lon="-3.62244">
        <ele>94.2</ele>
        <time>2021-08-10T13:47:45Z</time>
      </trkpt>
      <trkpt lat="48.25068" lon="-3.62258">
        <ele>94</ele>
        <time>2021-08-10T13:47:46Z</time>
      </trkpt>
      <trkpt lat="48.25067" lon="-3.62271">
        <ele>94</ele>
        <time>2021-08-10T13:47:47Z</time>
      </trkpt>
      <trkpt lat="48.25066" lon="-3.62284">
        <ele>94</ele>
        <time>2021-08-10T13:47:48Z</time>
      </trkpt>
      <trkpt lat="48.25066" lon="-3.62297">
        <ele>94</ele>
        <time>2021-08-10T13:47:49Z</time>
      </trkpt>
      <trkpt lat="48.25065" lon="-3.62309">
        <ele>94</ele>
        <time>2021-08-10T13:47:50Z</time>
      </trkpt>
      <trkpt lat="48.25065" lon="-3.62321">
        <ele>94</ele>
        <time>2021-08-10T13:47:51Z</time>
      </trkpt>
      <trkpt lat="48.25064" lon="-3.62332">
        <ele>94</ele>
        <time>2021-08-10T13:47:52Z</time>
      </trkpt>
      <trkpt lat="48.25063" lon="-3.62343">
        <ele>94.2</ele>
        <time>2021-08-10T13:47:53Z</time>
      </trkpt>
      <trkpt lat="48.25063" lon="-3.62353">
        <ele>95.4</ele>
        <time>2021-08-10T13:47:54Z</time>
      </trkpt>
      <trkpt lat="48.25062" lon="-3.62363">
        <ele>95.8</ele>
        <time>2021-08-10T13:47:55Z</time>
      </trkpt>
      <trkpt lat="48.25061" lon="-3.62372">
        <ele>96.4</ele>
        <time>2021-08-10T13:47:56Z</time>
      </trkpt>
      <trkpt lat="48.2506" lon="-3.62381">
        <ele>97</ele>
        <time>2021-08-10T13:47:57Z</time>
      </trkpt>
      <trkpt lat="48.2506" lon="-3.6239">
        <ele>97.4</ele>
        <time>2021-08-10T13:47:58Z</time>
      </trkpt>
      <trkpt lat="48.25059" lon="-3.62399">
        <ele>98</ele>
        <time>2021-08-10T13:47:59Z</time>
      </trkpt>
      <trkpt lat="48.25058" lon="-3.62407">
        <ele>98.4</ele>
        <time>2021-08-10T13:48:00Z</time>
      </trkpt>
      <trkpt lat="48.25058" lon="-3.62415">
        <ele>99</ele>
        <time>2021-08-10T13:48:01Z</time>
      </trkpt>
      <trkpt lat="48.25057" lon="-3.62422">
        <ele>99.2</ele>
        <time>2021-08-10T13:48:02Z</time>
      </trkpt>
      <trkpt lat="48.25056" lon="-3.62428">
        <ele>99.6</ele>
        <time>2021-08-10T13:48:03Z</time>
      </trkpt>
      <trkpt lat="48.25056" lon="-3.62434">
        <ele>100</ele>
        <time>2021-08-10T13:48:04Z</time>
      </trkpt>
      <trkpt lat="48.25055" lon="-3.62439">
        <ele>100.6</ele>
        <time>2021-08-10T13:48:05Z</time>
      </trkpt>
      <trkpt lat="48.25055" lon="-3.62445">
        <ele>101</ele>
        <time>2021-08-10T13:48:06Z</time>
      </trkpt>
      <trkpt lat="48.25054" lon="-3.6245">
        <ele>101.6</ele>
        <time>2021-08-10T13:48:07Z</time>
      </trkpt>
      <trkpt lat="48.25054" lon="-3.62455">
        <ele>101.8</ele>
        <time>2021-08-10T13:48:08Z</time>
      </trkpt>
      <trkpt lat="48.25053" lon="-3.6246">
        <ele>102.2</ele>
        <time>2021-08-10T13:48:09Z</time>
      </trkpt>
      <trkpt lat="48.25052" lon="-3.62464">
        <ele>102.6</ele>
        <time>2021-08-10T13:48:10Z</time>
      </trkpt>
      <trkpt lat="48.25052" lon="-3.62469">
        <ele>103</ele>
        <time>2021-08-10T13:48:11Z</time>
      </trkpt>
      <trkpt lat="48.25051" lon="-3.62473">
        <ele>103.6</ele>
        <time>2021-08-10T13:48:12Z</time>
      </trkpt>
      <trkpt lat="48.25051" lon="-3.62477">
        <ele>104.2</ele>
        <time>2021-08-10T13:48:13Z</time>
      </trkpt>
      <trkpt lat="48.25051" lon="-3.6248">
        <ele>104.8</ele>
        <time>2021-08-10T13:48:14Z</time>
      </trkpt>
      <trkpt lat="48.2505" lon="-3.62484">
        <ele>105.2</ele>
        <time>2021-08-10T13:48:15Z</time>
      </trkpt>
      <trkpt lat="48.25049" lon="-3.62488">
        <ele>105.8</ele>
        <time>2021-08-10T13:48:16Z</time>
      </trkpt>
      <trkpt lat="48.25049" lon="-3.62492">
        <ele>106.2</ele>
        <time>2021-08-10T13:48:17Z</time>
      </trkpt>
      <trkpt lat="48.25049" lon="-3.62495">
        <ele>106.6</ele>
        <time>2021-08-10T13:48:18Z</time>
      </trkpt>
      <trkpt lat="48.25048" lon="-3.62499">
        <ele>106.8</ele>
        <time>2021-08-10T13:48:19Z</time>
      </trkpt>
      <trkpt lat="48.25047" lon="-3.62502">
        <ele>107.2</ele>
        <time>2021-08-10T13:48:20Z</time>
      </trkpt>
      <trkpt lat="48.25047" lon="-3.62506">
        <ele>107.4</ele>
        <time>2021-08-10T13:48:21Z</time>
      </trkpt>
      <trkpt lat="48.25046" lon="-3.62509">
        <ele>108</ele>
        <time>2021-08-10T13:48:22Z</time>
      </trkpt>
      <trkpt lat="48.25045" lon="-3.62513">
        <ele>108.2</ele>
        <time>2021-08-10T13:48:23Z</time>
      </trkpt>
      <trkpt lat="48.25045" lon="-3.62517">
        <ele>108.4</ele>
        <time>2021-08-10T13:48:24Z</time>
      </trkpt>
      <trkpt lat="48.25045" lon="-3.6252">
        <ele>108.6</ele>
        <time>2021-08-10T13:48:25Z</time>
      </trkpt>
      <trkpt lat="48.25044" lon="-3.62524">
        <ele>108.8</ele>
        <time>2021-08-10T13:48:26Z</time>
      </trkpt>
      <trkpt lat="48.25044" lon="-3.62527">
        <ele>109</ele>
        <time>2021-08-10T13:48:27Z</time>
      </trkpt>
      <trkpt lat="48.25043" lon="-3.62531">
        <ele>109.2</ele>
        <time>2021-08-10T13:48:28Z</time>
      </trkpt>
      <trkpt lat="48.25043" lon="-3.62534">
        <ele>109.2</ele>
        <time>2021-08-10T13:48:29Z</time>
      </trkpt>
      <trkpt lat="48.25042" lon="-3.62538">
        <ele>109.4</ele>
        <time>2021-08-10T13:48:30Z</time>
      </trkpt>
      <trkpt lat="48.25042" lon="-3.62541">
        <ele>109.6</ele>
        <time>2021-08-10T13:48:31Z</time>
      </trkpt>
      <trkpt lat="48.25042" lon="-3.62545">
        <ele>109.8</ele>
        <time>2021-08-10T13:48:32Z</time>
      </trkpt>
      <trkpt lat="48.25042" lon="-3.62548">
        <ele>110</ele>
        <time>2021-08-10T13:48:33Z</time>
      </trkpt>
      <trkpt lat="48.25041" lon="-3.62551">
        <ele>110.4</ele>
        <time>2021-08-10T13:48:34Z</time>
      </trkpt>
      <trkpt lat="48.25041" lon="-3.62555">
        <ele>110.6</ele>
        <time>2021-08-10T13:48:35Z</time>
      </trkpt>
      <trkpt lat="48.2504" lon="-3.62558">
        <ele>111</ele>
        <time>2021-08-10T13:48:36Z</time>
      </trkpt>
      <trkpt lat="48.2504" lon="-3.62561">
        <ele>111</ele>
        <time>2021-08-10T13:48:37Z</time>
      </trkpt>
      <trkpt lat="48.2504" lon="-3.62565">
        <ele>111.2</ele>
        <time>2021-08-10T13:48:38Z</time>
      </trkpt>
      <trkpt lat="48.2504" lon="-3.62569">
        <ele>111.4</ele>
        <time>2021-08-10T13:48:39Z</time>
      </trkpt>
      <trkpt lat="48.2504" lon="-3.62572">
        <ele>111.6</ele>
        <time>2021-08-10T13:48:40Z</time>
      </trkpt>
      <trkpt lat="48.2504" lon="-3.62576">
        <ele>111.6</ele>
        <time>2021-08-10T13:48:41Z</time>
      </trkpt>
      <trkpt lat="48.2504" lon="-3.62579">
        <ele>112</ele>
        <time>2021-08-10T13:48:42Z</time>
      </trkpt>
      <trkpt lat="48.2504" lon="-3.62583">
        <ele>112.2</ele>
        <time>2021-08-10T13:48:43Z</time>
      </trkpt>
      <trkpt lat="48.2504" lon="-3.62587">
        <ele>112.2</ele>
        <time>2021-08-10T13:48:44Z</time>
      </trkpt>
      <trkpt lat="48.2504" lon="-3.6259">
        <ele>112.4</ele>
        <time>2021-08-10T13:48:45Z</time>
      </trkpt>
      <trkpt lat="48.2504" lon="-3.62593">
        <ele>112.6</ele>
        <time>2021-08-10T13:48:46Z</time>
      </trkpt>
      <trkpt lat="48.2504" lon="-3.62597">
        <ele>112.8</ele>
        <time>2021-08-10T13:48:47Z</time>
      </trkpt>
      <trkpt lat="48.25041" lon="-3.626">
        <ele>113</ele>
        <time>2021-08-10T13:48:48Z</time>
      </trkpt>
      <trkpt lat="48.25041" lon="-3.62603">
        <ele>113.2</ele>
        <time>2021-08-10T13:48:49Z</time>
      </trkpt>
      <trkpt lat="48.25042" lon="-3.62607">
        <ele>113.8</ele>
        <time>2021-08-10T13:48:50Z</time>
      </trkpt>
      <trkpt lat="48.25042" lon="-3.6261">
        <ele>114</ele>
        <time>2021-08-10T13:48:51Z</time>
      </trkpt>
      <trkpt lat="48.25042" lon="-3.62614">
        <ele>114.4</ele>
        <time>2021-08-10T13:48:52Z</time>
      </trkpt>
      <trkpt lat="48.25043" lon="-3.62617">
        <ele>114.6</ele>
        <time>2021-08-10T13:48:53Z</time>
      </trkpt>
      <trkpt lat="48.25044" lon="-3.62621">
        <ele>114.8</ele>
        <time>2021-08-10T13:48:54Z</time>
      </trkpt>
      <trkpt lat="48.25044" lon="-3.62624">
        <ele>115</ele>
        <time>2021-08-10T13:48:55Z</time>
      </trkpt>
      <trkpt lat="48.25045" lon="-3.62627">
        <ele>115.4</ele>
        <time>2021-08-10T13:48:56Z</time>
      </trkpt>
      <trkpt lat="48.25046" lon="-3.62631">
        <ele>115.6</ele>
        <time>2021-08-10T13:48:57Z</time>
      </trkpt>
      <trkpt lat="48.25046" lon="-3.62634">
        <ele>115.8</ele>
        <time>2021-08-10T13:48:58Z</time>
      </trkpt>
      <trkpt lat="48.25047" lon="-3.62637">
        <ele>116</ele>
        <time>2021-08-10T13:48:59Z</time>
      </trkpt>
      <trkpt lat="48.25048" lon="-3.6264">
        <ele>116.2</ele>
        <time>2021-08-10T13:49:00Z</time>
      </trkpt>
      <trkpt lat="48.25048" lon="-3.62644">
        <ele>116.4</ele>
        <time>2021-08-10T13:49:01Z</time>
      </trkpt>
      <trkpt lat="48.25049" lon="-3.62647">
        <ele>116.4</ele>
        <time>2021-08-10T13:49:02Z</time>
      </trkpt>
      <trkpt lat="48.2505" lon="-3.6265">
        <ele>116.6</ele>
        <time>2021-08-10T13:49:03Z</time>
      </trkpt>
      <trkpt lat="48.25051" lon="-3.62654">
        <ele>116.8</ele>
        <time>2021-08-10T13:49:04Z</time>
      </trkpt>
      <trkpt lat="48.25052" lon="-3.62657">
        <ele>116.8</ele>
        <time>2021-08-10T13:49:05Z</time>
      </trkpt>
      <trkpt lat="48.25053" lon="-3.6266">
        <ele>117.2</ele>
        <time>2021-08-10T13:49:06Z</time>
      </trkpt>
      <trkpt lat="48.25054" lon="-3.62663">
        <ele>117.4</ele>
        <time>2021-08-10T13:49:07Z</time>
      </trkpt>
      <trkpt lat="48.25055" lon="-3.62666">
        <ele>117.6</ele>
        <time>2021-08-10T13:49:08Z</time>
      </trkpt>
      <trkpt lat="48.25056" lon="-3.62669">
        <ele>117.8</ele>
        <time>2021-08-10T13:49:09Z</time>
      </trkpt>
      <trkpt lat="48.25057" lon="-3.62672">
        <ele>118</ele>
        <time>2021-08-10T13:49:10Z</time>
      </trkpt>
      <trkpt lat="48.25057" lon="-3.62675">
        <ele>118</ele>
        <time>2021-08-10T13:49:11Z</time>
      </trkpt>
      <trkpt lat="48.25058" lon="-3.62678">
        <ele>118.2</ele>
        <time>2021-08-10T13:49:12Z</time>
      </trkpt>
      <trkpt lat="48.25059" lon="-3.62682">
        <ele>118.4</ele>
        <time>2021-08-10T13:49:13Z</time>
      </trkpt>
      <trkpt lat="48.2506" lon="-3.62685">
        <ele>118.6</ele>
        <time>2021-08-10T13:49:14Z</time>
      </trkpt>
      <trkpt lat="48.25062" lon="-3.62687">
        <ele>118.8</ele>
        <time>2021-08-10T13:49:15Z</time>
      </trkpt>
      <trkpt lat="48.25063" lon="-3.6269">
        <ele>119</ele>
        <time>2021-08-10T13:49:16Z</time>
      </trkpt>
      <trkpt lat="48.25064" lon="-3.62693">
        <ele>119.2</ele>
        <time>2021-08-10T13:49:17Z</time>
      </trkpt>
      <trkpt lat="48.25065" lon="-3.62696">
        <ele>119.6</ele>
        <time>2021-08-10T13:49:18Z</time>
      </trkpt>
      <trkpt lat="48.25066" lon="-3.627">
        <ele>119.6</ele>
        <time>2021-08-10T13:49:19Z</time>
      </trkpt>
      <trkpt lat="48.25067" lon="-3.62703">
        <ele>119.8</ele>
        <time>2021-08-10T13:49:20Z</time>
      </trkpt>
      <trkpt lat="48.25068" lon="-3.62706">
        <ele>120</ele>
        <time>2021-08-10T13:49:21Z</time>
      </trkpt>
      <trkpt lat="48.25069" lon="-3.62709">
        <ele>120.2</ele>
        <time>2021-08-10T13:49:22Z</time>
      </trkpt>
      <trkpt lat="48.2507" lon="-3.62712">
        <ele>120.4</ele>
        <time>2021-08-10T13:49:23Z</time>
      </trkpt>
      <trkpt lat="48.25071" lon="-3.62715">
        <ele>120.6</ele>
        <time>2021-08-10T13:49:24Z</time>
      </trkpt>
      <trkpt lat="48.25072" lon="-3.62718">
        <ele>120.8</ele>
        <time>2021-08-10T13:49:25Z</time>
      </trkpt>
      <trkpt lat="48.25072" lon="-3.62721">
        <ele>121</ele>
        <time>2021-08-10T13:49:26Z</time>
      </trkpt>
      <trkpt lat="48.25073" lon="-3.62724">
        <ele>121.2</ele>
        <time>2021-08-10T13:49:27Z</time>
      </trkpt>
      <trkpt lat="48.25074" lon="-3.62727">
        <ele>121.4</ele>
        <time>2021-08-10T13:49:28Z</time>
      </trkpt>
      <trkpt lat="48.25075" lon="-3.6273">
        <ele>121.6</ele>
        <time>2021-08-10T13:49:29Z</time>
      </trkpt>
      <trkpt lat="48.25076" lon="-3.62732">
        <ele>121.8</ele>
        <time>2021-08-10T13:49:30Z</time>
      </trkpt>
      <trkpt lat="48.25076" lon="-3.62735">
        <ele>122</ele>
        <time>2021-08-10T13:49:31Z</time>
      </trkpt>
      <trkpt lat="48.25077" lon="-3.62738">
        <ele>122.2</ele>
        <time>2021-08-10T13:49:32Z</time>
      </trkpt>
      <trkpt lat="48.25077" lon="-3.62741">
        <ele>122.4</ele>
        <time>2021-08-10T13:49:33Z</time>
      </trkpt>
      <trkpt lat="48.25078" lon="-3.62744">
        <ele>122.6</ele>
        <time>2021-08-10T13:49:34Z</time>
      </trkpt>
      <trkpt lat="48.25079" lon="-3.62747">
        <ele>122.8</ele>
        <time>2021-08-10T13:49:35Z</time>
      </trkpt>
      <trkpt lat="48.2508" lon="-3.6275">
        <ele>123</ele>
        <time>2021-08-10T13:49:36Z</time>
      </trkpt>
      <trkpt lat="48.25081" lon="-3.62753">
        <ele>123.2</ele>
        <time>2021-08-10T13:49:37Z</time>
      </trkpt>
      <trkpt lat="48.25081" lon="-3.62756">
        <ele>123.2</ele>
        <time>2021-08-10T13:49:38Z</time>
      </trkpt>
      <trkpt lat="48.25082" lon="-3.62759">
        <ele>123.4</ele>
        <time>2021-08-10T13:49:39Z</time>
      </trkpt>
      <trkpt lat="48.25083" lon="-3.62762">
        <ele>123.4</ele>
        <time>2021-08-10T13:49:40Z</time>
      </trkpt>
      <trkpt lat="48.25084" lon="-3.62765">
        <ele>123.4</ele>
        <time>2021-08-10T13:49:41Z</time>
      </trkpt>
      <trkpt lat="48.25085" lon="-3.62767">
        <ele>123.6</ele>
        <time>2021-08-10T13:49:42Z</time>
      </trkpt>
      <trkpt lat="48.25086" lon="-3.6277">
        <ele>123.8</ele>
        <time>2021-08-10T13:49:43Z</time>
      </trkpt>
      <trkpt lat="48.25087" lon="-3.62772">
        <ele>124.2</ele>
        <time>2021-08-10T13:49:44Z</time>
      </trkpt>
      <trkpt lat="48.25088" lon="-3.62774">
        <ele>124.4</ele>
        <time>2021-08-10T13:49:45Z</time>
      </trkpt>
      <trkpt lat="48.25089" lon="-3.62776">
        <ele>124.8</ele>
        <time>2021-08-10T13:49:46Z</time>
      </trkpt>
      <trkpt lat="48.2509" lon="-3.62778">
        <ele>125.2</ele>
        <time>2021-08-10T13:49:47Z</time>
      </trkpt>
      <trkpt lat="48.25091" lon="-3.62781">
        <ele>125.4</ele>
        <time>2021-08-10T13:49:48Z</time>
      </trkpt>
      <trkpt lat="48.25092" lon="-3.62783">
        <ele>125.8</ele>
        <time>2021-08-10T13:49:49Z</time>
      </trkpt>
      <trkpt lat="48.25093" lon="-3.62786">
        <ele>126</ele>
        <time>2021-08-10T13:49:50Z</time>
      </trkpt>
      <trkpt lat="48.25093" lon="-3.62789">
        <ele>126.2</ele>
        <time>2021-08-10T13:49:51Z</time>
      </trkpt>
      <trkpt lat="48.25094" lon="-3.62792">
        <ele>126.4</ele>
        <time>2021-08-10T13:49:52Z</time>
      </trkpt>
      <trkpt lat="48.25094" lon="-3.62794">
        <ele>126.6</ele>
        <time>2021-08-10T13:49:53Z</time>
      </trkpt>
      <trkpt lat="48.25095" lon="-3.62797">
        <ele>126.6</ele>
        <time>2021-08-10T13:49:54Z</time>
      </trkpt>
      <trkpt lat="48.25095" lon="-3.628">
        <ele>126.8</ele>
        <time>2021-08-10T13:49:55Z</time>
      </trkpt>
      <trkpt lat="48.25095" lon="-3.62803">
        <ele>127</ele>
        <time>2021-08-10T13:49:56Z</time>
      </trkpt>
      <trkpt lat="48.25096" lon="-3.62806">
        <ele>127.2</ele>
        <time>2021-08-10T13:49:57Z</time>
      </trkpt>
      <trkpt lat="48.25096" lon="-3.62809">
        <ele>127.4</ele>
        <time>2021-08-10T13:49:58Z</time>
      </trkpt>
      <trkpt lat="48.25097" lon="-3.62812">
        <ele>127.6</ele>
        <time>2021-08-10T13:49:59Z</time>
      </trkpt>
      <trkpt lat="48.25097" lon="-3.62815">
        <ele>127.8</ele>
        <time>2021-08-10T13:50:00Z</time>
      </trkpt>
      <trkpt lat="48.25097" lon="-3.62819">
        <ele>127.8</ele>
        <time>2021-08-10T13:50:01Z</time>
      </trkpt>
      <trkpt lat="48.25097" lon="-3.62822">
        <ele>128.2</ele>
        <time>2021-08-10T13:50:02Z</time>
      </trkpt>
      <trkpt lat="48.25096" lon="-3.62825">
        <ele>128.4</ele>
        <time>2021-08-10T13:50:03Z</time>
      </trkpt>
      <trkpt lat="48.25095" lon="-3.62828">
        <ele>128.6</ele>
        <time>2021-08-10T13:50:04Z</time>
      </trkpt>
      <trkpt lat="48.25095" lon="-3.62831">
        <ele>129</ele>
        <time>2021-08-10T13:50:05Z</time>
      </trkpt>
      <trkpt lat="48.25094" lon="-3.62834">
        <ele>129</ele>
        <time>2021-08-10T13:50:06Z</time>
      </trkpt>
      <trkpt lat="48.25094" lon="-3.62836">
        <ele>129.4</ele>
        <time>2021-08-10T13:50:07Z</time>
      </trkpt>
      <trkpt lat="48.25093" lon="-3.62839">
        <ele>129.4</ele>
        <time>2021-08-10T13:50:08Z</time>
      </trkpt>
      <trkpt lat="48.25093" lon="-3.62842">
        <ele>129.6</ele>
        <time>2021-08-10T13:50:09Z</time>
      </trkpt>
      <trkpt lat="48.25093" lon="-3.62845">
        <ele>129.6</ele>
        <time>2021-08-10T13:50:10Z</time>
      </trkpt>
      <trkpt lat="48.25093" lon="-3.62847">
        <ele>129.8</ele>
        <time>2021-08-10T13:50:11Z</time>
      </trkpt>
      <trkpt lat="48.25093" lon="-3.6285">
        <ele>129.8</ele>
        <time>2021-08-10T13:50:12Z</time>
      </trkpt>
      <trkpt lat="48.25094" lon="-3.62853">
        <ele>129.8</ele>
        <time>2021-08-10T13:50:13Z</time>
      </trkpt>
      <trkpt lat="48.25094" lon="-3.62856">
        <ele>130.2</ele>
        <time>2021-08-10T13:50:14Z</time>
      </trkpt>
      <trkpt lat="48.25093" lon="-3.62858">
        <ele>130.4</ele>
        <time>2021-08-10T13:50:15Z</time>
      </trkpt>
      <trkpt lat="48.25093" lon="-3.62861">
        <ele>130.6</ele>
        <time>2021-08-10T13:50:16Z</time>
      </trkpt>
      <trkpt lat="48.25093" lon="-3.62863">
        <ele>130.8</ele>
        <time>2021-08-10T13:50:17Z</time>
      </trkpt>
      <trkpt lat="48.25093" lon="-3.62866">
        <ele>131</ele>
        <time>2021-08-10T13:50:18Z</time>
      </trkpt>
      <trkpt lat="48.25093" lon="-3.62869">
        <ele>131.4</ele>
        <time>2021-08-10T13:50:19Z</time>
      </trkpt>
      <trkpt lat="48.25093" lon="-3.62871">
        <ele>131.4</ele>
        <time>2021-08-10T13:50:20Z</time>
      </trkpt>
      <trkpt lat="48.25093" lon="-3.62874">
        <ele>131.6</ele>
        <time>2021-08-10T13:50:21Z</time>
      </trkpt>
      <trkpt lat="48.25093" lon="-3.62876">
        <ele>131.8</ele>
        <time>2021-08-10T13:50:22Z</time>
      </trkpt>
      <trkpt lat="48.25093" lon="-3.62879">
        <ele>131.8</ele>
        <time>2021-08-10T13:50:23Z</time>
      </trkpt>
      <trkpt lat="48.25092" lon="-3.62881">
        <ele>131.8</ele>
        <time>2021-08-10T13:50:24Z</time>
      </trkpt>
      <trkpt lat="48.25092" lon="-3.62883">
        <ele>132</ele>
        <time>2021-08-10T13:50:25Z</time>
      </trkpt>
      <trkpt lat="48.25092" lon="-3.62885">
        <ele>132</ele>
        <time>2021-08-10T13:50:26Z</time>
      </trkpt>
      <trkpt lat="48.25092" lon="-3.62887">
        <ele>132.2</ele>
        <time>2021-08-10T13:50:27Z</time>
      </trkpt>
      <trkpt lat="48.25092" lon="-3.6289">
        <ele>132.2</ele>
        <time>2021-08-10T13:50:28Z</time>
      </trkpt>
      <trkpt lat="48.25092" lon="-3.62892">
        <ele>132.2</ele>
        <time>2021-08-10T13:50:29Z</time>
      </trkpt>
      <trkpt lat="48.25092" lon="-3.62894">
        <ele>132.4</ele>
        <time>2021-08-10T13:50:30Z</time>
      </trkpt>
      <trkpt lat="48.25092" lon="-3.62897">
        <ele>132.4</ele>
        <time>2021-08-10T13:50:31Z</time>
      </trkpt>
      <trkpt lat="48.25091" lon="-3.62899">
        <ele>132.4</ele>
        <time>2021-08-10T13:50:32Z</time>
      </trkpt>
      <trkpt lat="48.25091" lon="-3.62902">
        <ele>132.4</ele>
        <time>2021-08-10T13:50:33Z</time>
      </trkpt>
      <trkpt lat="48.2509" lon="-3.62905">
        <ele>132.4</ele>
        <time>2021-08-10T13:50:34Z</time>
      </trkpt>
      <trkpt lat="48.2509" lon="-3.62908">
        <ele>132.6</ele>
        <time>2021-08-10T13:50:35Z</time>
      </trkpt>
      <trkpt lat="48.2509" lon="-3.62911">
        <ele>132.8</ele>
        <time>2021-08-10T13:50:36Z</time>
      </trkpt>
      <trkpt lat="48.2509" lon="-3.62914">
        <ele>133.2</ele>
        <time>2021-08-10T13:50:37Z</time>
      </trkpt>
      <trkpt lat="48.2509" lon="-3.62917">
        <ele>133.6</ele>
        <time>2021-08-10T13:50:38Z</time>
      </trkpt>
      <trkpt lat="48.2509" lon="-3.62921">
        <ele>133.8</ele>
        <time>2021-08-10T13:50:39Z</time>
      </trkpt>
      <trkpt lat="48.2509" lon="-3.62924">
        <ele>133.8</ele>
        <time>2021-08-10T13:50:40Z</time>
      </trkpt>
      <trkpt lat="48.2509" lon="-3.62927">
        <ele>134.2</ele>
        <time>2021-08-10T13:50:41Z</time>
      </trkpt>
      <trkpt lat="48.2509" lon="-3.6293">
        <ele>134.4</ele>
        <time>2021-08-10T13:50:42Z</time>
      </trkpt>
      <trkpt lat="48.25089" lon="-3.62933">
        <ele>134.6</ele>
        <time>2021-08-10T13:50:43Z</time>
      </trkpt>
      <trkpt lat="48.25089" lon="-3.62935">
        <ele>134.6</ele>
        <time>2021-08-10T13:50:44Z</time>
      </trkpt>
      <trkpt lat="48.25089" lon="-3.62938">
        <ele>134.8</ele>
        <time>2021-08-10T13:50:45Z</time>
      </trkpt>
      <trkpt lat="48.25089" lon="-3.62941">
        <ele>135</ele>
        <time>2021-08-10T13:50:46Z</time>
      </trkpt>
      <trkpt lat="48.2509" lon="-3.62944">
        <ele>135.2</ele>
        <time>2021-08-10T13:50:47Z</time>
      </trkpt>
      <trkpt lat="48.2509" lon="-3.62946">
        <ele>135.2</ele>
        <time>2021-08-10T13:50:48Z</time>
      </trkpt>
      <trkpt lat="48.2509" lon="-3.62949">
        <ele>135.4</ele>
        <time>2021-08-10T13:50:49Z</time>
      </trkpt>
      <trkpt lat="48.2509" lon="-3.62951">
        <ele>135.6</ele>
        <time>2021-08-10T13:50:50Z</time>
      </trkpt>
      <trkpt lat="48.2509" lon="-3.62954">
        <ele>135.6</ele>
        <time>2021-08-10T13:50:51Z</time>
      </trkpt>
      <trkpt lat="48.2509" lon="-3.62956">
        <ele>135.8</ele>
        <time>2021-08-10T13:50:52Z</time>
      </trkpt>
      <trkpt lat="48.2509" lon="-3.62959">
        <ele>136</ele>
        <time>2021-08-10T13:50:53Z</time>
      </trkpt>
      <trkpt lat="48.25089" lon="-3.62962">
        <ele>136.2</ele>
        <time>2021-08-10T13:50:54Z</time>
      </trkpt>
      <trkpt lat="48.25089" lon="-3.62965">
        <ele>136.4</ele>
        <time>2021-08-10T13:50:55Z</time>
      </trkpt>
      <trkpt lat="48.25089" lon="-3.62967">
        <ele>136.4</ele>
        <time>2021-08-10T13:50:56Z</time>
      </trkpt>
      <trkpt lat="48.25088" lon="-3.6297">
        <ele>136.6</ele>
        <time>2021-08-10T13:50:57Z</time>
      </trkpt>
      <trkpt lat="48.25088" lon="-3.62973">
        <ele>136.8</ele>
        <time>2021-08-10T13:50:58Z</time>
      </trkpt>
      <trkpt lat="48.25088" lon="-3.62976">
        <ele>136.8</ele>
        <time>2021-08-10T13:50:59Z</time>
      </trkpt>
      <trkpt lat="48.25087" lon="-3.62979">
        <ele>137</ele>
        <time>2021-08-10T13:51:00Z</time>
      </trkpt>
      <trkpt lat="48.25088" lon="-3.62981">
        <ele>137.2</ele>
        <time>2021-08-10T13:51:01Z</time>
      </trkpt>
      <trkpt lat="48.25088" lon="-3.62984">
        <ele>137.2</ele>
        <time>2021-08-10T13:51:02Z</time>
      </trkpt>
      <trkpt lat="48.25088" lon="-3.62986">
        <ele>137.4</ele>
        <time>2021-08-10T13:51:03Z</time>
      </trkpt>
      <trkpt lat="48.25088" lon="-3.62989">
        <ele>137.4</ele>
        <time>2021-08-10T13:51:04Z</time>
      </trkpt>
      <trkpt lat="48.25088" lon="-3.62991">
        <ele>137.4</ele>
        <time>2021-08-10T13:51:05Z</time>
      </trkpt>
      <trkpt lat="48.25088" lon="-3.62994">
        <ele>137.6</ele>
        <time>2021-08-10T13:51:06Z</time>
      </trkpt>
      <trkpt lat="48.25088" lon="-3.62996">
        <ele>137.6</ele>
        <time>2021-08-10T13:51:07Z</time>
      </trkpt>
      <trkpt lat="48.25088" lon="-3.62998">
        <ele>137.8</ele>
        <time>2021-08-10T13:51:08Z</time>
      </trkpt>
      <trkpt lat="48.25088" lon="-3.63">
        <ele>138</ele>
        <time>2021-08-10T13:51:09Z</time>
      </trkpt>
      <trkpt lat="48.25088" lon="-3.63003">
        <ele>138</ele>
        <time>2021-08-10T13:51:10Z</time>
      </trkpt>
      <trkpt lat="48.25089" lon="-3.63005">
        <ele>138.2</ele>
        <time>2021-08-10T13:51:11Z</time>
      </trkpt>
      <trkpt lat="48.25089" lon="-3.63008">
        <ele>138.2</ele>
        <time>2021-08-10T13:51:12Z</time>
      </trkpt>
      <trkpt lat="48.25089" lon="-3.6301">
        <ele>138.4</ele>
        <time>2021-08-10T13:51:13Z</time>
      </trkpt>
      <trkpt lat="48.25089" lon="-3.63013">
        <ele>138.4</ele>
        <time>2021-08-10T13:51:14Z</time>
      </trkpt>
      <trkpt lat="48.25089" lon="-3.63016">
        <ele>138.6</ele>
        <time>2021-08-10T13:51:15Z</time>
      </trkpt>
      <trkpt lat="48.25089" lon="-3.63019">
        <ele>138.6</ele>
        <time>2021-08-10T13:51:16Z</time>
      </trkpt>
      <trkpt lat="48.25088" lon="-3.63021">
        <ele>138.6</ele>
        <time>2021-08-10T13:51:17Z</time>
      </trkpt>
      <trkpt lat="48.25088" lon="-3.63023">
        <ele>138.8</ele>
        <time>2021-08-10T13:51:18Z</time>
      </trkpt>
      <trkpt lat="48.25088" lon="-3.63025">
        <ele>139</ele>
        <time>2021-08-10T13:51:19Z</time>
      </trkpt>
      <trkpt lat="48.25088" lon="-3.63028">
        <ele>139.2</ele>
        <time>2021-08-10T13:51:20Z</time>
      </trkpt>
      <trkpt lat="48.25088" lon="-3.6303">
        <ele>139.2</ele>
        <time>2021-08-10T13:51:21Z</time>
      </trkpt>
      <trkpt lat="48.25088" lon="-3.63033">
        <ele>139.4</ele>
        <time>2021-08-10T13:51:22Z</time>
      </trkpt>
      <trkpt lat="48.25088" lon="-3.63036">
        <ele>139.4</ele>
        <time>2021-08-10T13:51:23Z</time>
      </trkpt>
      <trkpt lat="48.25088" lon="-3.6304">
        <ele>139.6</ele>
        <time>2021-08-10T13:51:24Z</time>
      </trkpt>
      <trkpt lat="48.25088" lon="-3.63043">
        <ele>139.6</ele>
        <time>2021-08-10T13:51:25Z</time>
      </trkpt>
      <trkpt lat="48.25088" lon="-3.63047">
        <ele>139.6</ele>
        <time>2021-08-10T13:51:26Z</time>
      </trkpt>
      <trkpt lat="48.25088" lon="-3.6305">
        <ele>139.8</ele>
        <time>2021-08-10T13:51:27Z</time>
      </trkpt>
      <trkpt lat="48.25088" lon="-3.63054">
        <ele>139.8</ele>
        <time>2021-08-10T13:51:28Z</time>
      </trkpt>
      <trkpt lat="48.25088" lon="-3.63057">
        <ele>140</ele>
        <time>2021-08-10T13:51:29Z</time>
      </trkpt>
      <trkpt lat="48.25087" lon="-3.63061">
        <ele>140.2</ele>
        <time>2021-08-10T13:51:30Z</time>
      </trkpt>
      <trkpt lat="48.25087" lon="-3.63064">
        <ele>140.2</ele>
        <time>2021-08-10T13:51:31Z</time>
      </trkpt>
      <trkpt lat="48.25087" lon="-3.63068">
        <ele>140.2</ele>
        <time>2021-08-10T13:51:32Z</time>
      </trkpt>
      <trkpt lat="48.25087" lon="-3.63072">
        <ele>140.2</ele>
        <time>2021-08-10T13:51:33Z</time>
      </trkpt>
      <trkpt lat="48.25087" lon="-3.63075">
        <ele>140.4</ele>
        <time>2021-08-10T13:51:34Z</time>
      </trkpt>
      <trkpt lat="48.25087" lon="-3.63078">
        <ele>140.4</ele>
        <time>2021-08-10T13:51:35Z</time>
      </trkpt>
      <trkpt lat="48.25086" lon="-3.63082">
        <ele>140.4</ele>
        <time>2021-08-10T13:51:36Z</time>
      </trkpt>
      <trkpt lat="48.25086" lon="-3.63086">
        <ele>140.4</ele>
        <time>2021-08-10T13:51:37Z</time>
      </trkpt>
      <trkpt lat="48.25086" lon="-3.63089">
        <ele>140.4</ele>
        <time>2021-08-10T13:51:38Z</time>
      </trkpt>
      <trkpt lat="48.25086" lon="-3.63093">
        <ele>140.6</ele>
        <time>2021-08-10T13:51:39Z</time>
      </trkpt>
      <trkpt lat="48.25086" lon="-3.63096">
        <ele>140.6</ele>
        <time>2021-08-10T13:51:40Z</time>
      </trkpt>
      <trkpt lat="48.25086" lon="-3.63099">
        <ele>140.6</ele>
        <time>2021-08-10T13:51:41Z</time>
      </trkpt>
      <trkpt lat="48.25086" lon="-3.63102">
        <ele>140.8</ele>
        <time>2021-08-10T13:51:42Z</time>
      </trkpt>
      <trkpt lat="48.25086" lon="-3.63106">
        <ele>140.8</ele>
        <time>2021-08-10T13:51:43Z</time>
      </trkpt>
      <trkpt lat="48.25086" lon="-3.63109">
        <ele>140.8</ele>
        <time>2021-08-10T13:51:44Z</time>
      </trkpt>
      <trkpt lat="48.25086" lon="-3.63112">
        <ele>140.8</ele>
        <time>2021-08-10T13:51:45Z</time>
      </trkpt>
      <trkpt lat="48.25086" lon="-3.63114">
        <ele>140.8</ele>
        <time>2021-08-10T13:51:46Z</time>
      </trkpt>
      <trkpt lat="48.25085" lon="-3.63117">
        <ele>140.8</ele>
        <time>2021-08-10T13:51:47Z</time>
      </trkpt>
      <trkpt lat="48.25085" lon="-3.63121">
        <ele>141</ele>
        <time>2021-08-10T13:51:48Z</time>
      </trkpt>
      <trkpt lat="48.25084" lon="-3.63124">
        <ele>141</ele>
        <time>2021-08-10T13:51:49Z</time>
      </trkpt>
      <trkpt lat="48.25083" lon="-3.63128">
        <ele>141</ele>
        <time>2021-08-10T13:51:50Z</time>
      </trkpt>
      <trkpt lat="48.25083" lon="-3.63132">
        <ele>141</ele>
        <time>2021-08-10T13:51:51Z</time>
      </trkpt>
      <trkpt lat="48.25082" lon="-3.63136">
        <ele>141</ele>
        <time>2021-08-10T13:51:52Z</time>
      </trkpt>
      <trkpt lat="48.25081" lon="-3.63141">
        <ele>141</ele>
        <time>2021-08-10T13:51:53Z</time>
      </trkpt>
      <trkpt lat="48.2508" lon="-3.63146">
        <ele>141</ele>
        <time>2021-08-10T13:51:54Z</time>
      </trkpt>
      <trkpt lat="48.2508" lon="-3.63151">
        <ele>141.2</ele>
        <time>2021-08-10T13:51:55Z</time>
      </trkpt>
      <trkpt lat="48.25079" lon="-3.63156">
        <ele>141.2</ele>
        <time>2021-08-10T13:51:56Z</time>
      </trkpt>
      <trkpt lat="48.25078" lon="-3.6316">
        <ele>141.2</ele>
        <time>2021-08-10T13:51:57Z</time>
      </trkpt>
      <trkpt lat="48.25078" lon="-3.63165">
        <ele>141.2</ele>
        <time>2021-08-10T13:51:58Z</time>
      </trkpt>
      <trkpt lat="48.25077" lon="-3.63169">
        <ele>141.2</ele>
        <time>2021-08-10T13:51:59Z</time>
      </trkpt>
      <trkpt lat="48.25076" lon="-3.63174">
        <ele>141.2</ele>
        <time>2021-08-10T13:52:00Z</time>
      </trkpt>
      <trkpt lat="48.25075" lon="-3.6318">
        <ele>141.2</ele>
        <time>2021-08-10T13:52:01Z</time>
      </trkpt>
      <trkpt lat="48.25074" lon="-3.63185">
        <ele>141.2</ele>
        <time>2021-08-10T13:52:02Z</time>
      </trkpt>
      <trkpt lat="48.25074" lon="-3.6319">
        <ele>141</ele>
        <time>2021-08-10T13:52:03Z</time>
      </trkpt>
      <trkpt lat="48.25073" lon="-3.63195">
        <ele>141.2</ele>
        <time>2021-08-10T13:52:04Z</time>
      </trkpt>
      <trkpt lat="48.25072" lon="-3.63201">
        <ele>141.2</ele>
        <time>2021-08-10T13:52:05Z</time>
      </trkpt>
      <trkpt lat="48.25071" lon="-3.63207">
        <ele>141</ele>
        <time>2021-08-10T13:52:06Z</time>
      </trkpt>
      <trkpt lat="48.25069" lon="-3.63212">
        <ele>141</ele>
        <time>2021-08-10T13:52:07Z</time>
      </trkpt>
      <trkpt lat="48.25068" lon="-3.63219">
        <ele>141</ele>
        <time>2021-08-10T13:52:08Z</time>
      </trkpt>
      <trkpt lat="48.25066" lon="-3.63225">
        <ele>141</ele>
        <time>2021-08-10T13:52:09Z</time>
      </trkpt>
      <trkpt lat="48.25065" lon="-3.63231">
        <ele>141</ele>
        <time>2021-08-10T13:52:10Z</time>
      </trkpt>
      <trkpt lat="48.25063" lon="-3.63237">
        <ele>141</ele>
        <time>2021-08-10T13:52:11Z</time>
      </trkpt>
      <trkpt lat="48.25062" lon="-3.63244">
        <ele>141</ele>
        <time>2021-08-10T13:52:12Z</time>
      </trkpt>
      <trkpt lat="48.2506" lon="-3.6325">
        <ele>141</ele>
        <time>2021-08-10T13:52:13Z</time>
      </trkpt>
      <trkpt lat="48.25058" lon="-3.63256">
        <ele>141</ele>
        <time>2021-08-10T13:52:14Z</time>
      </trkpt>
      <trkpt lat="48.25056" lon="-3.63262">
        <ele>141</ele>
        <time>2021-08-10T13:52:15Z</time>
      </trkpt>
      <trkpt lat="48.25054" lon="-3.63268">
        <ele>141</ele>
        <time>2021-08-10T13:52:16Z</time>
      </trkpt>
      <trkpt lat="48.25051" lon="-3.63275">
        <ele>140.8</ele>
        <time>2021-08-10T13:52:17Z</time>
      </trkpt>
      <trkpt lat="48.25048" lon="-3.6328">
        <ele>140.8</ele>
        <time>2021-08-10T13:52:18Z</time>
      </trkpt>
      <trkpt lat="48.25045" lon="-3.63286">
        <ele>140.8</ele>
        <time>2021-08-10T13:52:19Z</time>
      </trkpt>
      <trkpt lat="48.25042" lon="-3.63291">
        <ele>140.2</ele>
        <time>2021-08-10T13:52:20Z</time>
      </trkpt>
      <trkpt lat="48.2504" lon="-3.63298">
        <ele>140</ele>
        <time>2021-08-10T13:52:21Z</time>
      </trkpt>
      <trkpt lat="48.25037" lon="-3.63304">
        <ele>139.8</ele>
        <time>2021-08-10T13:52:22Z</time>
      </trkpt>
      <trkpt lat="48.25034" lon="-3.6331">
        <ele>139.6</ele>
        <time>2021-08-10T13:52:23Z</time>
      </trkpt>
      <trkpt lat="48.25032" lon="-3.63317">
        <ele>139.6</ele>
        <time>2021-08-10T13:52:24Z</time>
      </trkpt>
      <trkpt lat="48.25029" lon="-3.63324">
        <ele>139.6</ele>
        <time>2021-08-10T13:52:25Z</time>
      </trkpt>
      <trkpt lat="48.25026" lon="-3.6333">
        <ele>139.4</ele>
        <time>2021-08-10T13:52:26Z</time>
      </trkpt>
      <trkpt lat="48.25023" lon="-3.63337">
        <ele>139.4</ele>
        <time>2021-08-10T13:52:27Z</time>
      </trkpt>
      <trkpt lat="48.25021" lon="-3.63344">
        <ele>139.2</ele>
        <time>2021-08-10T13:52:28Z</time>
      </trkpt>
      <trkpt lat="48.25018" lon="-3.63351">
        <ele>139.2</ele>
        <time>2021-08-10T13:52:29Z</time>
      </trkpt>
      <trkpt lat="48.25015" lon="-3.63358">
        <ele>139.2</ele>
        <time>2021-08-10T13:52:30Z</time>
      </trkpt>
      <trkpt lat="48.25012" lon="-3.63366">
        <ele>139</ele>
        <time>2021-08-10T13:52:31Z</time>
      </trkpt>
      <trkpt lat="48.25009" lon="-3.63373">
        <ele>139</ele>
        <time>2021-08-10T13:52:32Z</time>
      </trkpt>
      <trkpt lat="48.25006" lon="-3.63381">
        <ele>139</ele>
        <time>2021-08-10T13:52:33Z</time>
      </trkpt>
      <trkpt lat="48.25003" lon="-3.63388">
        <ele>138.8</ele>
        <time>2021-08-10T13:52:34Z</time>
      </trkpt>
      <trkpt lat="48.25" lon="-3.63396">
        <ele>138.8</ele>
        <time>2021-08-10T13:52:35Z</time>
      </trkpt>
      <trkpt lat="48.24997" lon="-3.63403">
        <ele>138.6</ele>
        <time>2021-08-10T13:52:36Z</time>
      </trkpt>
      <trkpt lat="48.24994" lon="-3.63411">
        <ele>138.6</ele>
        <time>2021-08-10T13:52:37Z</time>
      </trkpt>
      <trkpt lat="48.24991" lon="-3.63419">
        <ele>138.4</ele>
        <time>2021-08-10T13:52:38Z</time>
      </trkpt>
      <trkpt lat="48.24988" lon="-3.63427">
        <ele>138.2</ele>
        <time>2021-08-10T13:52:39Z</time>
      </trkpt>
      <trkpt lat="48.24985" lon="-3.63435">
        <ele>138</ele>
        <time>2021-08-10T13:52:40Z</time>
      </trkpt>
      <trkpt lat="48.24982" lon="-3.63443">
        <ele>137.8</ele>
        <time>2021-08-10T13:52:41Z</time>
      </trkpt>
      <trkpt lat="48.24979" lon="-3.63451">
        <ele>137.2</ele>
        <time>2021-08-10T13:52:42Z</time>
      </trkpt>
      <trkpt lat="48.24976" lon="-3.63459">
        <ele>137</ele>
        <time>2021-08-10T13:52:43Z</time>
      </trkpt>
      <trkpt lat="48.24973" lon="-3.63467">
        <ele>136.8</ele>
        <time>2021-08-10T13:52:44Z</time>
      </trkpt>
      <trkpt lat="48.2497" lon="-3.63475">
        <ele>136.2</ele>
        <time>2021-08-10T13:52:45Z</time>
      </trkpt>
      <trkpt lat="48.24966" lon="-3.63482">
        <ele>135.8</ele>
        <time>2021-08-10T13:52:46Z</time>
      </trkpt>
      <trkpt lat="48.24963" lon="-3.6349">
        <ele>135.6</ele>
        <time>2021-08-10T13:52:47Z</time>
      </trkpt>
      <trkpt lat="48.2496" lon="-3.63498">
        <ele>135.6</ele>
        <time>2021-08-10T13:52:48Z</time>
      </trkpt>
      <trkpt lat="48.24957" lon="-3.63506">
        <ele>135.6</ele>
        <time>2021-08-10T13:52:49Z</time>
      </trkpt>
      <trkpt lat="48.24954" lon="-3.63513">
        <ele>135.4</ele>
        <time>2021-08-10T13:52:50Z</time>
      </trkpt>
      <trkpt lat="48.24951" lon="-3.63521">
        <ele>135.4</ele>
        <time>2021-08-10T13:52:51Z</time>
      </trkpt>
      <trkpt lat="48.24948" lon="-3.63528">
        <ele>135.2</ele>
        <time>2021-08-10T13:52:52Z</time>
      </trkpt>
      <trkpt lat="48.24945" lon="-3.63535">
        <ele>135.2</ele>
        <time>2021-08-10T13:52:53Z</time>
      </trkpt>
      <trkpt lat="48.24942" lon="-3.63541">
        <ele>135.2</ele>
        <time>2021-08-10T13:52:54Z</time>
      </trkpt>
      <trkpt lat="48.24939" lon="-3.63548">
        <ele>135</ele>
        <time>2021-08-10T13:52:55Z</time>
      </trkpt>
      <trkpt lat="48.24937" lon="-3.63554">
        <ele>135</ele>
        <time>2021-08-10T13:52:56Z</time>
      </trkpt>
      <trkpt lat="48.24934" lon="-3.63561">
        <ele>135.2</ele>
        <time>2021-08-10T13:52:57Z</time>
      </trkpt>
      <trkpt lat="48.24931" lon="-3.63568">
        <ele>135.2</ele>
        <time>2021-08-10T13:52:58Z</time>
      </trkpt>
      <trkpt lat="48.24929" lon="-3.63574">
        <ele>135.4</ele>
        <time>2021-08-10T13:52:59Z</time>
      </trkpt>
      <trkpt lat="48.24926" lon="-3.6358">
        <ele>135.4</ele>
        <time>2021-08-10T13:53:00Z</time>
      </trkpt>
      <trkpt lat="48.24924" lon="-3.63587">
        <ele>135.6</ele>
        <time>2021-08-10T13:53:01Z</time>
      </trkpt>
      <trkpt lat="48.24922" lon="-3.63593">
        <ele>135.6</ele>
        <time>2021-08-10T13:53:02Z</time>
      </trkpt>
      <trkpt lat="48.2492" lon="-3.63599">
        <ele>135.8</ele>
        <time>2021-08-10T13:53:03Z</time>
      </trkpt>
      <trkpt lat="48.24917" lon="-3.63605">
        <ele>136.4</ele>
        <time>2021-08-10T13:53:04Z</time>
      </trkpt>
      <trkpt lat="48.24915" lon="-3.63611">
        <ele>136.6</ele>
        <time>2021-08-10T13:53:05Z</time>
      </trkpt>
      <trkpt lat="48.24913" lon="-3.63617">
        <ele>136.8</ele>
        <time>2021-08-10T13:53:06Z</time>
      </trkpt>
      <trkpt lat="48.2491" lon="-3.63623">
        <ele>137</ele>
        <time>2021-08-10T13:53:07Z</time>
      </trkpt>
      <trkpt lat="48.24908" lon="-3.63629">
        <ele>137.2</ele>
        <time>2021-08-10T13:53:08Z</time>
      </trkpt>
      <trkpt lat="48.24906" lon="-3.63634">
        <ele>137.2</ele>
        <time>2021-08-10T13:53:09Z</time>
      </trkpt>
      <trkpt lat="48.24903" lon="-3.6364">
        <ele>137.2</ele>
        <time>2021-08-10T13:53:10Z</time>
      </trkpt>
      <trkpt lat="48.24901" lon="-3.63646">
        <ele>137.4</ele>
        <time>2021-08-10T13:53:11Z</time>
      </trkpt>
      <trkpt lat="48.24898" lon="-3.63652">
        <ele>137.4</ele>
        <time>2021-08-10T13:53:12Z</time>
      </trkpt>
      <trkpt lat="48.24896" lon="-3.63658">
        <ele>137.4</ele>
        <time>2021-08-10T13:53:13Z</time>
      </trkpt>
      <trkpt lat="48.24893" lon="-3.63664">
        <ele>137.4</ele>
        <time>2021-08-10T13:53:14Z</time>
      </trkpt>
      <trkpt lat="48.24891" lon="-3.63671">
        <ele>137.6</ele>
        <time>2021-08-10T13:53:15Z</time>
      </trkpt>
      <trkpt lat="48.24888" lon="-3.63677">
        <ele>137.6</ele>
        <time>2021-08-10T13:53:16Z</time>
      </trkpt>
      <trkpt lat="48.24886" lon="-3.63684">
        <ele>137.6</ele>
        <time>2021-08-10T13:53:17Z</time>
      </trkpt>
      <trkpt lat="48.24883" lon="-3.6369">
        <ele>137.6</ele>
        <time>2021-08-10T13:53:18Z</time>
      </trkpt>
      <trkpt lat="48.2488" lon="-3.63697">
        <ele>137.6</ele>
        <time>2021-08-10T13:53:19Z</time>
      </trkpt>
      <trkpt lat="48.24878" lon="-3.63704">
        <ele>137.6</ele>
        <time>2021-08-10T13:53:20Z</time>
      </trkpt>
      <trkpt lat="48.24875" lon="-3.6371">
        <ele>137.6</ele>
        <time>2021-08-10T13:53:21Z</time>
      </trkpt>
      <trkpt lat="48.24872" lon="-3.63717">
        <ele>137.6</ele>
        <time>2021-08-10T13:53:22Z</time>
      </trkpt>
      <trkpt lat="48.2487" lon="-3.63723">
        <ele>137.6</ele>
        <time>2021-08-10T13:53:23Z</time>
      </trkpt>
      <trkpt lat="48.24867" lon="-3.6373">
        <ele>137.6</ele>
        <time>2021-08-10T13:53:24Z</time>
      </trkpt>
      <trkpt lat="48.24865" lon="-3.63737">
        <ele>137.6</ele>
        <time>2021-08-10T13:53:25Z</time>
      </trkpt>
      <trkpt lat="48.24863" lon="-3.63743">
        <ele>137.6</ele>
        <time>2021-08-10T13:53:26Z</time>
      </trkpt>
      <trkpt lat="48.2486" lon="-3.63749">
        <ele>137.6</ele>
        <time>2021-08-10T13:53:27Z</time>
      </trkpt>
      <trkpt lat="48.24858" lon="-3.63755">
        <ele>137.6</ele>
        <time>2021-08-10T13:53:28Z</time>
      </trkpt>
      <trkpt lat="48.24855" lon="-3.63761">
        <ele>137.6</ele>
        <time>2021-08-10T13:53:29Z</time>
      </trkpt>
      <trkpt lat="48.24853" lon="-3.63767">
        <ele>137.6</ele>
        <time>2021-08-10T13:53:30Z</time>
      </trkpt>
      <trkpt lat="48.24851" lon="-3.63772">
        <ele>137.6</ele>
        <time>2021-08-10T13:53:31Z</time>
      </trkpt>
      <trkpt lat="48.24849" lon="-3.63776">
        <ele>137.6</ele>
        <time>2021-08-10T13:53:32Z</time>
      </trkpt>
      <trkpt lat="48.24848" lon="-3.63781">
        <ele>137.6</ele>
        <time>2021-08-10T13:53:33Z</time>
      </trkpt>
      <trkpt lat="48.24847" lon="-3.63785">
        <ele>137.6</ele>
        <time>2021-08-10T13:53:34Z</time>
      </trkpt>
      <trkpt lat="48.24845" lon="-3.6379">
        <ele>137.6</ele>
        <time>2021-08-10T13:53:35Z</time>
      </trkpt>
      <trkpt lat="48.24844" lon="-3.63794">
        <ele>137.6</ele>
        <time>2021-08-10T13:53:36Z</time>
      </trkpt>
      <trkpt lat="48.24838" lon="-3.63808">
        <ele>137.4</ele>
        <time>2021-08-10T13:53:39Z</time>
      </trkpt>
      <trkpt lat="48.24836" lon="-3.63814">
        <ele>137.4</ele>
        <time>2021-08-10T13:53:40Z</time>
      </trkpt>
      <trkpt lat="48.24834" lon="-3.63819">
        <ele>137.2</ele>
        <time>2021-08-10T13:53:41Z</time>
      </trkpt>
      <trkpt lat="48.24831" lon="-3.63824">
        <ele>137</ele>
        <time>2021-08-10T13:53:42Z</time>
      </trkpt>
      <trkpt lat="48.24829" lon="-3.63829">
        <ele>137</ele>
        <time>2021-08-10T13:53:43Z</time>
      </trkpt>
      <trkpt lat="48.24826" lon="-3.63835">
        <ele>137</ele>
        <time>2021-08-10T13:53:44Z</time>
      </trkpt>
      <trkpt lat="48.24823" lon="-3.63842">
        <ele>136.8</ele>
        <time>2021-08-10T13:53:45Z</time>
      </trkpt>
      <trkpt lat="48.2482" lon="-3.6385">
        <ele>136.8</ele>
        <time>2021-08-10T13:53:46Z</time>
      </trkpt>
      <trkpt lat="48.24818" lon="-3.63857">
        <ele>136.8</ele>
        <time>2021-08-10T13:53:47Z</time>
      </trkpt>
      <trkpt lat="48.24816" lon="-3.63864">
        <ele>136.6</ele>
        <time>2021-08-10T13:53:48Z</time>
      </trkpt>
      <trkpt lat="48.24813" lon="-3.63871">
        <ele>136.4</ele>
        <time>2021-08-10T13:53:49Z</time>
      </trkpt>
      <trkpt lat="48.24811" lon="-3.63877">
        <ele>136.2</ele>
        <time>2021-08-10T13:53:50Z</time>
      </trkpt>
      <trkpt lat="48.24808" lon="-3.63884">
        <ele>136.2</ele>
        <time>2021-08-10T13:53:51Z</time>
      </trkpt>
      <trkpt lat="48.24805" lon="-3.6389">
        <ele>136</ele>
        <time>2021-08-10T13:53:52Z</time>
      </trkpt>
      <trkpt lat="48.24802" lon="-3.63897">
        <ele>136</ele>
        <time>2021-08-10T13:53:53Z</time>
      </trkpt>
      <trkpt lat="48.24799" lon="-3.63904">
        <ele>136</ele>
        <time>2021-08-10T13:53:54Z</time>
      </trkpt>
      <trkpt lat="48.24796" lon="-3.6391">
        <ele>136</ele>
        <time>2021-08-10T13:53:55Z</time>
      </trkpt>
      <trkpt lat="48.24794" lon="-3.63917">
        <ele>135.8</ele>
        <time>2021-08-10T13:53:56Z</time>
      </trkpt>
      <trkpt lat="48.24791" lon="-3.63924">
        <ele>135.6</ele>
        <time>2021-08-10T13:53:57Z</time>
      </trkpt>
      <trkpt lat="48.24788" lon="-3.63931">
        <ele>135.4</ele>
        <time>2021-08-10T13:53:58Z</time>
      </trkpt>
      <trkpt lat="48.24785" lon="-3.63938">
        <ele>135.4</ele>
        <time>2021-08-10T13:53:59Z</time>
      </trkpt>
      <trkpt lat="48.24782" lon="-3.63945">
        <ele>135.2</ele>
        <time>2021-08-10T13:54:00Z</time>
      </trkpt>
      <trkpt lat="48.24779" lon="-3.63952">
        <ele>135.2</ele>
        <time>2021-08-10T13:54:01Z</time>
      </trkpt>
      <trkpt lat="48.24776" lon="-3.63958">
        <ele>135.2</ele>
        <time>2021-08-10T13:54:02Z</time>
      </trkpt>
      <trkpt lat="48.24773" lon="-3.63963">
        <ele>135</ele>
        <time>2021-08-10T13:54:03Z</time>
      </trkpt>
      <trkpt lat="48.24769" lon="-3.63966">
        <ele>135</ele>
        <time>2021-08-10T13:54:04Z</time>
      </trkpt>
      <trkpt lat="48.24766" lon="-3.63967">
        <ele>134.8</ele>
        <time>2021-08-10T13:54:05Z</time>
      </trkpt>
      <trkpt lat="48.24763" lon="-3.63967">
        <ele>134.8</ele>
        <time>2021-08-10T13:54:06Z</time>
      </trkpt>
      <trkpt lat="48.2476" lon="-3.63965">
        <ele>134.8</ele>
        <time>2021-08-10T13:54:07Z</time>
      </trkpt>
      <trkpt lat="48.24758" lon="-3.63962">
        <ele>134.8</ele>
        <time>2021-08-10T13:54:08Z</time>
      </trkpt>
      <trkpt lat="48.24755" lon="-3.63958">
        <ele>134.8</ele>
        <time>2021-08-10T13:54:09Z</time>
      </trkpt>
      <trkpt lat="48.24754" lon="-3.63952">
        <ele>134.6</ele>
        <time>2021-08-10T13:54:10Z</time>
      </trkpt>
      <trkpt lat="48.24752" lon="-3.63946">
        <ele>134.6</ele>
        <time>2021-08-10T13:54:11Z</time>
      </trkpt>
      <trkpt lat="48.24749" lon="-3.6394">
        <ele>134.4</ele>
        <time>2021-08-10T13:54:12Z</time>
      </trkpt>
      <trkpt lat="48.24747" lon="-3.63932">
        <ele>134.4</ele>
        <time>2021-08-10T13:54:13Z</time>
      </trkpt>
      <trkpt lat="48.24745" lon="-3.63925">
        <ele>134.4</ele>
        <time>2021-08-10T13:54:14Z</time>
      </trkpt>
      <trkpt lat="48.24742" lon="-3.63917">
        <ele>134.4</ele>
        <time>2021-08-10T13:54:15Z</time>
      </trkpt>
      <trkpt lat="48.24739" lon="-3.6391">
        <ele>134.4</ele>
        <time>2021-08-10T13:54:16Z</time>
      </trkpt>
      <trkpt lat="48.24736" lon="-3.63902">
        <ele>134.2</ele>
        <time>2021-08-10T13:54:17Z</time>
      </trkpt>
      <trkpt lat="48.24733" lon="-3.63894">
        <ele>134.2</ele>
        <time>2021-08-10T13:54:18Z</time>
      </trkpt>
      <trkpt lat="48.2473" lon="-3.63887">
        <ele>134.2</ele>
        <time>2021-08-10T13:54:19Z</time>
      </trkpt>
      <trkpt lat="48.24727" lon="-3.6388">
        <ele>134</ele>
        <time>2021-08-10T13:54:20Z</time>
      </trkpt>
      <trkpt lat="48.24723" lon="-3.63873">
        <ele>133.8</ele>
        <time>2021-08-10T13:54:21Z</time>
      </trkpt>
      <trkpt lat="48.24719" lon="-3.63868">
        <ele>133.8</ele>
        <time>2021-08-10T13:54:22Z</time>
      </trkpt>
      <trkpt lat="48.24714" lon="-3.63865">
        <ele>133.8</ele>
        <time>2021-08-10T13:54:23Z</time>
      </trkpt>
      <trkpt lat="48.24711" lon="-3.63864">
        <ele>133.6</ele>
        <time>2021-08-10T13:54:24Z</time>
      </trkpt>
      <trkpt lat="48.24707" lon="-3.63866">
        <ele>133.4</ele>
        <time>2021-08-10T13:54:25Z</time>
      </trkpt>
      <trkpt lat="48.24705" lon="-3.6387">
        <ele>133.2</ele>
        <time>2021-08-10T13:54:26Z</time>
      </trkpt>
      <trkpt lat="48.24703" lon="-3.63875">
        <ele>132.8</ele>
        <time>2021-08-10T13:54:27Z</time>
      </trkpt>
      <trkpt lat="48.24701" lon="-3.6388">
        <ele>132.6</ele>
        <time>2021-08-10T13:54:28Z</time>
      </trkpt>
      <trkpt lat="48.247" lon="-3.63886">
        <ele>132.6</ele>
        <time>2021-08-10T13:54:29Z</time>
      </trkpt>
      <trkpt lat="48.24698" lon="-3.63891">
        <ele>132.4</ele>
        <time>2021-08-10T13:54:30Z</time>
      </trkpt>
      <trkpt lat="48.24697" lon="-3.63897">
        <ele>132.4</ele>
        <time>2021-08-10T13:54:31Z</time>
      </trkpt>
      <trkpt lat="48.24695" lon="-3.63903">
        <ele>132.4</ele>
        <time>2021-08-10T13:54:32Z</time>
      </trkpt>
      <trkpt lat="48.24694" lon="-3.63908">
        <ele>132.4</ele>
        <time>2021-08-10T13:54:33Z</time>
      </trkpt>
      <trkpt lat="48.24692" lon="-3.63914">
        <ele>132.4</ele>
        <time>2021-08-10T13:54:34Z</time>
      </trkpt>
      <trkpt lat="48.24691" lon="-3.6392">
        <ele>132.4</ele>
        <time>2021-08-10T13:54:35Z</time>
      </trkpt>
      <trkpt lat="48.2469" lon="-3.63926">
        <ele>132.4</ele>
        <time>2021-08-10T13:54:36Z</time>
      </trkpt>
      <trkpt lat="48.24688" lon="-3.63932">
        <ele>132.4</ele>
        <time>2021-08-10T13:54:37Z</time>
      </trkpt>
      <trkpt lat="48.24687" lon="-3.63938">
        <ele>132.4</ele>
        <time>2021-08-10T13:54:38Z</time>
      </trkpt>
      <trkpt lat="48.24685" lon="-3.63944">
        <ele>132.4</ele>
        <time>2021-08-10T13:54:39Z</time>
      </trkpt>
      <trkpt lat="48.24684" lon="-3.63951">
        <ele>132.4</ele>
        <time>2021-08-10T13:54:40Z</time>
      </trkpt>
      <trkpt lat="48.24683" lon="-3.63957">
        <ele>132.4</ele>
        <time>2021-08-10T13:54:41Z</time>
      </trkpt>
      <trkpt lat="48.24681" lon="-3.63964">
        <ele>132.6</ele>
        <time>2021-08-10T13:54:42Z</time>
      </trkpt>
      <trkpt lat="48.24679" lon="-3.63971">
        <ele>132.6</ele>
        <time>2021-08-10T13:54:43Z</time>
      </trkpt>
      <trkpt lat="48.24678" lon="-3.63977">
        <ele>132.6</ele>
        <time>2021-08-10T13:54:44Z</time>
      </trkpt>
      <trkpt lat="48.24676" lon="-3.63984">
        <ele>132.6</ele>
        <time>2021-08-10T13:54:45Z</time>
      </trkpt>
      <trkpt lat="48.24675" lon="-3.6399">
        <ele>132.6</ele>
        <time>2021-08-10T13:54:46Z</time>
      </trkpt>
      <trkpt lat="48.24674" lon="-3.63997">
        <ele>132.6</ele>
        <time>2021-08-10T13:54:47Z</time>
      </trkpt>
      <trkpt lat="48.24672" lon="-3.64003">
        <ele>132.8</ele>
        <time>2021-08-10T13:54:48Z</time>
      </trkpt>
      <trkpt lat="48.2467" lon="-3.6401">
        <ele>132.8</ele>
        <time>2021-08-10T13:54:49Z</time>
      </trkpt>
      <trkpt lat="48.24669" lon="-3.64016">
        <ele>132.8</ele>
        <time>2021-08-10T13:54:50Z</time>
      </trkpt>
      <trkpt lat="48.24667" lon="-3.64022">
        <ele>132.8</ele>
        <time>2021-08-10T13:54:51Z</time>
      </trkpt>
      <trkpt lat="48.24666" lon="-3.64028">
        <ele>132.8</ele>
        <time>2021-08-10T13:54:52Z</time>
      </trkpt>
      <trkpt lat="48.24664" lon="-3.64033">
        <ele>132.8</ele>
        <time>2021-08-10T13:54:53Z</time>
      </trkpt>
      <trkpt lat="48.24662" lon="-3.64038">
        <ele>132.8</ele>
        <time>2021-08-10T13:54:54Z</time>
      </trkpt>
      <trkpt lat="48.24659" lon="-3.64043">
        <ele>132.8</ele>
        <time>2021-08-10T13:54:55Z</time>
      </trkpt>
      <trkpt lat="48.24656" lon="-3.64049">
        <ele>132.6</ele>
        <time>2021-08-10T13:54:56Z</time>
      </trkpt>
      <trkpt lat="48.24653" lon="-3.64055">
        <ele>132.4</ele>
        <time>2021-08-10T13:54:57Z</time>
      </trkpt>
      <trkpt lat="48.2465" lon="-3.64061">
        <ele>132.2</ele>
        <time>2021-08-10T13:54:58Z</time>
      </trkpt>
      <trkpt lat="48.24646" lon="-3.64066">
        <ele>132.2</ele>
        <time>2021-08-10T13:54:59Z</time>
      </trkpt>
      <trkpt lat="48.24643" lon="-3.64072">
        <ele>132</ele>
        <time>2021-08-10T13:55:00Z</time>
      </trkpt>
      <trkpt lat="48.24639" lon="-3.64078">
        <ele>132</ele>
        <time>2021-08-10T13:55:01Z</time>
      </trkpt>
      <trkpt lat="48.24635" lon="-3.64084">
        <ele>131.8</ele>
        <time>2021-08-10T13:55:02Z</time>
      </trkpt>
      <trkpt lat="48.24632" lon="-3.64089">
        <ele>131.8</ele>
        <time>2021-08-10T13:55:03Z</time>
      </trkpt>
      <trkpt lat="48.24628" lon="-3.64095">
        <ele>131.8</ele>
        <time>2021-08-10T13:55:04Z</time>
      </trkpt>
      <trkpt lat="48.24624" lon="-3.641">
        <ele>131.8</ele>
        <time>2021-08-10T13:55:05Z</time>
      </trkpt>
      <trkpt lat="48.24619" lon="-3.64106">
        <ele>131.6</ele>
        <time>2021-08-10T13:55:06Z</time>
      </trkpt>
      <trkpt lat="48.24615" lon="-3.64112">
        <ele>131.6</ele>
        <time>2021-08-10T13:55:07Z</time>
      </trkpt>
      <trkpt lat="48.24611" lon="-3.64118">
        <ele>131.6</ele>
        <time>2021-08-10T13:55:08Z</time>
      </trkpt>
      <trkpt lat="48.24608" lon="-3.64124">
        <ele>131.6</ele>
        <time>2021-08-10T13:55:09Z</time>
      </trkpt>
      <trkpt lat="48.24604" lon="-3.6413">
        <ele>131.2</ele>
        <time>2021-08-10T13:55:10Z</time>
      </trkpt>
      <trkpt lat="48.246" lon="-3.64136">
        <ele>130.4</ele>
        <time>2021-08-10T13:55:11Z</time>
      </trkpt>
      <trkpt lat="48.24597" lon="-3.64142">
        <ele>129.8</ele>
        <time>2021-08-10T13:55:12Z</time>
      </trkpt>
      <trkpt lat="48.24593" lon="-3.64148">
        <ele>129.6</ele>
        <time>2021-08-10T13:55:13Z</time>
      </trkpt>
      <trkpt lat="48.24589" lon="-3.64154">
        <ele>129.4</ele>
        <time>2021-08-10T13:55:14Z</time>
      </trkpt>
      <trkpt lat="48.24585" lon="-3.6416">
        <ele>129.2</ele>
        <time>2021-08-10T13:55:15Z</time>
      </trkpt>
      <trkpt lat="48.24581" lon="-3.64165">
        <ele>129</ele>
        <time>2021-08-10T13:55:16Z</time>
      </trkpt>
      <trkpt lat="48.24577" lon="-3.64171">
        <ele>129</ele>
        <time>2021-08-10T13:55:17Z</time>
      </trkpt>
      <trkpt lat="48.24574" lon="-3.64176">
        <ele>128.8</ele>
        <time>2021-08-10T13:55:18Z</time>
      </trkpt>
      <trkpt lat="48.2457" lon="-3.64182">
        <ele>128.6</ele>
        <time>2021-08-10T13:55:19Z</time>
      </trkpt>
      <trkpt lat="48.24567" lon="-3.64187">
        <ele>128.6</ele>
        <time>2021-08-10T13:55:20Z</time>
      </trkpt>
      <trkpt lat="48.24564" lon="-3.64192">
        <ele>128.2</ele>
        <time>2021-08-10T13:55:21Z</time>
      </trkpt>
      <trkpt lat="48.2456" lon="-3.64197">
        <ele>128.2</ele>
        <time>2021-08-10T13:55:22Z</time>
      </trkpt>
      <trkpt lat="48.24557" lon="-3.64202">
        <ele>128</ele>
        <time>2021-08-10T13:55:23Z</time>
      </trkpt>
      <trkpt lat="48.24554" lon="-3.64208">
        <ele>127.8</ele>
        <time>2021-08-10T13:55:24Z</time>
      </trkpt>
      <trkpt lat="48.2455" lon="-3.64213">
        <ele>127.6</ele>
        <time>2021-08-10T13:55:25Z</time>
      </trkpt>
      <trkpt lat="48.24547" lon="-3.64218">
        <ele>127.4</ele>
        <time>2021-08-10T13:55:26Z</time>
      </trkpt>
      <trkpt lat="48.24544" lon="-3.64223">
        <ele>127.2</ele>
        <time>2021-08-10T13:55:27Z</time>
      </trkpt>
      <trkpt lat="48.2454" lon="-3.64229">
        <ele>127.2</ele>
        <time>2021-08-10T13:55:28Z</time>
      </trkpt>
      <trkpt lat="48.24537" lon="-3.64234">
        <ele>127</ele>
        <time>2021-08-10T13:55:29Z</time>
      </trkpt>
      <trkpt lat="48.24534" lon="-3.64239">
        <ele>127</ele>
        <time>2021-08-10T13:55:30Z</time>
      </trkpt>
      <trkpt lat="48.2453" lon="-3.64244">
        <ele>127</ele>
        <time>2021-08-10T13:55:31Z</time>
      </trkpt>
      <trkpt lat="48.24527" lon="-3.64249">
        <ele>126.8</ele>
        <time>2021-08-10T13:55:32Z</time>
      </trkpt>
      <trkpt lat="48.24523" lon="-3.64253">
        <ele>126.8</ele>
        <time>2021-08-10T13:55:33Z</time>
      </trkpt>
      <trkpt lat="48.24519" lon="-3.64257">
        <ele>126.8</ele>
        <time>2021-08-10T13:55:34Z</time>
      </trkpt>
      <trkpt lat="48.24515" lon="-3.6426">
        <ele>126.6</ele>
        <time>2021-08-10T13:55:35Z</time>
      </trkpt>
      <trkpt lat="48.24509" lon="-3.64262">
        <ele>126.4</ele>
        <time>2021-08-10T13:55:36Z</time>
      </trkpt>
      <trkpt lat="48.24504" lon="-3.64263">
        <ele>126.4</ele>
        <time>2021-08-10T13:55:37Z</time>
      </trkpt>
      <trkpt lat="48.24498" lon="-3.64265">
        <ele>126.2</ele>
        <time>2021-08-10T13:55:38Z</time>
      </trkpt>
      <trkpt lat="48.24493" lon="-3.64266">
        <ele>126.2</ele>
        <time>2021-08-10T13:55:39Z</time>
      </trkpt>
      <trkpt lat="48.24487" lon="-3.64268">
        <ele>126.2</ele>
        <time>2021-08-10T13:55:40Z</time>
      </trkpt>
      <trkpt lat="48.24481" lon="-3.6427">
        <ele>125.8</ele>
        <time>2021-08-10T13:55:41Z</time>
      </trkpt>
      <trkpt lat="48.24476" lon="-3.64271">
        <ele>125.4</ele>
        <time>2021-08-10T13:55:42Z</time>
      </trkpt>
      <trkpt lat="48.24472" lon="-3.64272">
        <ele>125</ele>
        <time>2021-08-10T13:55:43Z</time>
      </trkpt>
      <trkpt lat="48.24468" lon="-3.64273">
        <ele>124.6</ele>
        <time>2021-08-10T13:55:44Z</time>
      </trkpt>
      <trkpt lat="48.24465" lon="-3.64274">
        <ele>124.6</ele>
        <time>2021-08-10T13:55:45Z</time>
      </trkpt>
      <trkpt lat="48.24462" lon="-3.64274">
        <ele>124.6</ele>
        <time>2021-08-10T13:55:46Z</time>
      </trkpt>
      <trkpt lat="48.24459" lon="-3.64275">
        <ele>124.4</ele>
        <time>2021-08-10T13:55:47Z</time>
      </trkpt>
      <trkpt lat="48.24457" lon="-3.64276">
        <ele>124.4</ele>
        <time>2021-08-10T13:55:48Z</time>
      </trkpt>
      <trkpt lat="48.24454" lon="-3.64276">
        <ele>124.4</ele>
        <time>2021-08-10T13:55:49Z</time>
      </trkpt>
      <trkpt lat="48.24452" lon="-3.64276">
        <ele>124.4</ele>
        <time>2021-08-10T13:55:50Z</time>
      </trkpt>
      <trkpt lat="48.2445" lon="-3.64277">
        <ele>124.4</ele>
        <time>2021-08-10T13:55:51Z</time>
      </trkpt>
      <trkpt lat="48.24448" lon="-3.64277">
        <ele>124.4</ele>
        <time>2021-08-10T13:55:52Z</time>
      </trkpt>
      <trkpt lat="48.24446" lon="-3.64277">
        <ele>124.8</ele>
        <time>2021-08-10T13:55:53Z</time>
      </trkpt>
      <trkpt lat="48.24444" lon="-3.64277">
        <ele>125</ele>
        <time>2021-08-10T13:55:54Z</time>
      </trkpt>
      <trkpt lat="48.24442" lon="-3.64277">
        <ele>125</ele>
        <time>2021-08-10T13:55:55Z</time>
      </trkpt>
      <trkpt lat="48.2444" lon="-3.64277">
        <ele>125.4</ele>
        <time>2021-08-10T13:55:56Z</time>
      </trkpt>
      <trkpt lat="48.24438" lon="-3.64276">
        <ele>125.8</ele>
        <time>2021-08-10T13:55:57Z</time>
      </trkpt>
      <trkpt lat="48.24436" lon="-3.64276">
        <ele>126</ele>
        <time>2021-08-10T13:55:58Z</time>
      </trkpt>
      <trkpt lat="48.24434" lon="-3.64277">
        <ele>126.2</ele>
        <time>2021-08-10T13:55:59Z</time>
      </trkpt>
      <trkpt lat="48.24431" lon="-3.64277">
        <ele>126.4</ele>
        <time>2021-08-10T13:56:00Z</time>
      </trkpt>
      <trkpt lat="48.24429" lon="-3.64278">
        <ele>126.4</ele>
        <time>2021-08-10T13:56:01Z</time>
      </trkpt>
      <trkpt lat="48.24427" lon="-3.64278">
        <ele>126.6</ele>
        <time>2021-08-10T13:56:02Z</time>
      </trkpt>
      <trkpt lat="48.24425" lon="-3.64279">
        <ele>126.8</ele>
        <time>2021-08-10T13:56:03Z</time>
      </trkpt>
      <trkpt lat="48.24422" lon="-3.6428">
        <ele>127</ele>
        <time>2021-08-10T13:56:04Z</time>
      </trkpt>
      <trkpt lat="48.2442" lon="-3.6428">
        <ele>127</ele>
        <time>2021-08-10T13:56:05Z</time>
      </trkpt>
      <trkpt lat="48.24417" lon="-3.64281">
        <ele>127.2</ele>
        <time>2021-08-10T13:56:06Z</time>
      </trkpt>
      <trkpt lat="48.24414" lon="-3.64282">
        <ele>127.2</ele>
        <time>2021-08-10T13:56:07Z</time>
      </trkpt>
      <trkpt lat="48.24411" lon="-3.64283">
        <ele>127.2</ele>
        <time>2021-08-10T13:56:08Z</time>
      </trkpt>
      <trkpt lat="48.24408" lon="-3.64283">
        <ele>127.2</ele>
        <time>2021-08-10T13:56:09Z</time>
      </trkpt>
      <trkpt lat="48.24405" lon="-3.64284">
        <ele>127.4</ele>
        <time>2021-08-10T13:56:10Z</time>
      </trkpt>
      <trkpt lat="48.24401" lon="-3.64284">
        <ele>127.4</ele>
        <time>2021-08-10T13:56:11Z</time>
      </trkpt>
      <trkpt lat="48.24397" lon="-3.64284">
        <ele>127.4</ele>
        <time>2021-08-10T13:56:12Z</time>
      </trkpt>
      <trkpt lat="48.24393" lon="-3.64284">
        <ele>127.4</ele>
        <time>2021-08-10T13:56:13Z</time>
      </trkpt>
      <trkpt lat="48.24389" lon="-3.64284">
        <ele>127.4</ele>
        <time>2021-08-10T13:56:14Z</time>
      </trkpt>
      <trkpt lat="48.24385" lon="-3.64283">
        <ele>127.4</ele>
        <time>2021-08-10T13:56:15Z</time>
      </trkpt>
      <trkpt lat="48.24381" lon="-3.64283">
        <ele>127.6</ele>
        <time>2021-08-10T13:56:16Z</time>
      </trkpt>
      <trkpt lat="48.24376" lon="-3.64282">
        <ele>127.6</ele>
        <time>2021-08-10T13:56:17Z</time>
      </trkpt>
      <trkpt lat="48.24372" lon="-3.64281">
        <ele>127.6</ele>
        <time>2021-08-10T13:56:18Z</time>
      </trkpt>
      <trkpt lat="48.24367" lon="-3.6428">
        <ele>127.6</ele>
        <time>2021-08-10T13:56:19Z</time>
      </trkpt>
      <trkpt lat="48.24362" lon="-3.64279">
        <ele>127.6</ele>
        <time>2021-08-10T13:56:20Z</time>
      </trkpt>
      <trkpt lat="48.24357" lon="-3.64278">
        <ele>127.4</ele>
        <time>2021-08-10T13:56:21Z</time>
      </trkpt>
      <trkpt lat="48.24352" lon="-3.64277">
        <ele>127.2</ele>
        <time>2021-08-10T13:56:22Z</time>
      </trkpt>
      <trkpt lat="48.24347" lon="-3.64276">
        <ele>126.8</ele>
        <time>2021-08-10T13:56:23Z</time>
      </trkpt>
      <trkpt lat="48.24341" lon="-3.64275">
        <ele>126.6</ele>
        <time>2021-08-10T13:56:24Z</time>
      </trkpt>
      <trkpt lat="48.24335" lon="-3.64273">
        <ele>126.4</ele>
        <time>2021-08-10T13:56:25Z</time>
      </trkpt>
      <trkpt lat="48.2433" lon="-3.64272">
        <ele>126.2</ele>
        <time>2021-08-10T13:56:26Z</time>
      </trkpt>
      <trkpt lat="48.24324" lon="-3.64271">
        <ele>126</ele>
        <time>2021-08-10T13:56:27Z</time>
      </trkpt>
      <trkpt lat="48.24319" lon="-3.6427">
        <ele>125.8</ele>
        <time>2021-08-10T13:56:28Z</time>
      </trkpt>
      <trkpt lat="48.24314" lon="-3.64269">
        <ele>125.4</ele>
        <time>2021-08-10T13:56:29Z</time>
      </trkpt>
      <trkpt lat="48.24309" lon="-3.64268">
        <ele>125</ele>
        <time>2021-08-10T13:56:30Z</time>
      </trkpt>
      <trkpt lat="48.24304" lon="-3.64267">
        <ele>124.8</ele>
        <time>2021-08-10T13:56:31Z</time>
      </trkpt>
      <trkpt lat="48.24299" lon="-3.64266">
        <ele>124.4</ele>
        <time>2021-08-10T13:56:32Z</time>
      </trkpt>
      <trkpt lat="48.24294" lon="-3.64264">
        <ele>124.2</ele>
        <time>2021-08-10T13:56:33Z</time>
      </trkpt>
      <trkpt lat="48.24289" lon="-3.64263">
        <ele>124.2</ele>
        <time>2021-08-10T13:56:34Z</time>
      </trkpt>
      <trkpt lat="48.24284" lon="-3.64263">
        <ele>124</ele>
        <time>2021-08-10T13:56:35Z</time>
      </trkpt>
      <trkpt lat="48.24279" lon="-3.64261">
        <ele>124</ele>
        <time>2021-08-10T13:56:36Z</time>
      </trkpt>
      <trkpt lat="48.24274" lon="-3.6426">
        <ele>124</ele>
        <time>2021-08-10T13:56:37Z</time>
      </trkpt>
      <trkpt lat="48.24269" lon="-3.64259">
        <ele>124</ele>
        <time>2021-08-10T13:56:38Z</time>
      </trkpt>
      <trkpt lat="48.24265" lon="-3.64257">
        <ele>124</ele>
        <time>2021-08-10T13:56:39Z</time>
      </trkpt>
      <trkpt lat="48.2426" lon="-3.64256">
        <ele>124</ele>
        <time>2021-08-10T13:56:40Z</time>
      </trkpt>
      <trkpt lat="48.24256" lon="-3.64254">
        <ele>124</ele>
        <time>2021-08-10T13:56:41Z</time>
      </trkpt>
      <trkpt lat="48.24252" lon="-3.64253">
        <ele>124</ele>
        <time>2021-08-10T13:56:42Z</time>
      </trkpt>
      <trkpt lat="48.24248" lon="-3.64252">
        <ele>124</ele>
        <time>2021-08-10T13:56:43Z</time>
      </trkpt>
      <trkpt lat="48.24245" lon="-3.64251">
        <ele>124.4</ele>
        <time>2021-08-10T13:56:44Z</time>
      </trkpt>
      <trkpt lat="48.24241" lon="-3.64249">
        <ele>124.6</ele>
        <time>2021-08-10T13:56:45Z</time>
      </trkpt>
      <trkpt lat="48.24238" lon="-3.64248">
        <ele>124.6</ele>
        <time>2021-08-10T13:56:46Z</time>
      </trkpt>
      <trkpt lat="48.24235" lon="-3.64248">
        <ele>124.8</ele>
        <time>2021-08-10T13:56:47Z</time>
      </trkpt>
      <trkpt lat="48.24232" lon="-3.64246">
        <ele>124.8</ele>
        <time>2021-08-10T13:56:48Z</time>
      </trkpt>
      <trkpt lat="48.24228" lon="-3.64245">
        <ele>125</ele>
        <time>2021-08-10T13:56:49Z</time>
      </trkpt>
      <trkpt lat="48.24225" lon="-3.64244">
        <ele>125.4</ele>
        <time>2021-08-10T13:56:50Z</time>
      </trkpt>
      <trkpt lat="48.24222" lon="-3.64243">
        <ele>125.4</ele>
        <time>2021-08-10T13:56:51Z</time>
      </trkpt>
      <trkpt lat="48.24219" lon="-3.64243">
        <ele>126</ele>
        <time>2021-08-10T13:56:52Z</time>
      </trkpt>
      <trkpt lat="48.24217" lon="-3.64242">
        <ele>126.4</ele>
        <time>2021-08-10T13:56:53Z</time>
      </trkpt>
      <trkpt lat="48.24214" lon="-3.64241">
        <ele>126.6</ele>
        <time>2021-08-10T13:56:54Z</time>
      </trkpt>
      <trkpt lat="48.24211" lon="-3.64241">
        <ele>126.8</ele>
        <time>2021-08-10T13:56:55Z</time>
      </trkpt>
      <trkpt lat="48.24209" lon="-3.6424">
        <ele>127</ele>
        <time>2021-08-10T13:56:56Z</time>
      </trkpt>
      <trkpt lat="48.24206" lon="-3.64239">
        <ele>127.4</ele>
        <time>2021-08-10T13:56:57Z</time>
      </trkpt>
      <trkpt lat="48.24204" lon="-3.64239">
        <ele>127.8</ele>
        <time>2021-08-10T13:56:58Z</time>
      </trkpt>
      <trkpt lat="48.24201" lon="-3.64238">
        <ele>128</ele>
        <time>2021-08-10T13:56:59Z</time>
      </trkpt>
      <trkpt lat="48.24199" lon="-3.64237">
        <ele>128.2</ele>
        <time>2021-08-10T13:57:00Z</time>
      </trkpt>
      <trkpt lat="48.24197" lon="-3.64236">
        <ele>128.4</ele>
        <time>2021-08-10T13:57:01Z</time>
      </trkpt>
      <trkpt lat="48.24194" lon="-3.64235">
        <ele>128.6</ele>
        <time>2021-08-10T13:57:02Z</time>
      </trkpt>
      <trkpt lat="48.24192" lon="-3.64235">
        <ele>128.8</ele>
        <time>2021-08-10T13:57:03Z</time>
      </trkpt>
      <trkpt lat="48.24189" lon="-3.64235">
        <ele>129</ele>
        <time>2021-08-10T13:57:04Z</time>
      </trkpt>
      <trkpt lat="48.24187" lon="-3.64234">
        <ele>129</ele>
        <time>2021-08-10T13:57:05Z</time>
      </trkpt>
      <trkpt lat="48.24184" lon="-3.64233">
        <ele>129.2</ele>
        <time>2021-08-10T13:57:06Z</time>
      </trkpt>
      <trkpt lat="48.24182" lon="-3.64233">
        <ele>129.4</ele>
        <time>2021-08-10T13:57:07Z</time>
      </trkpt>
      <trkpt lat="48.2418" lon="-3.64232">
        <ele>129.6</ele>
        <time>2021-08-10T13:57:08Z</time>
      </trkpt>
      <trkpt lat="48.24178" lon="-3.64232">
        <ele>129.6</ele>
        <time>2021-08-10T13:57:09Z</time>
      </trkpt>
      <trkpt lat="48.24176" lon="-3.64231">
        <ele>129.8</ele>
        <time>2021-08-10T13:57:10Z</time>
      </trkpt>
      <trkpt lat="48.24174" lon="-3.6423">
        <ele>129.8</ele>
        <time>2021-08-10T13:57:11Z</time>
      </trkpt>
      <trkpt lat="48.24171" lon="-3.6423">
        <ele>129.8</ele>
        <time>2021-08-10T13:57:12Z</time>
      </trkpt>
      <trkpt lat="48.24169" lon="-3.6423">
        <ele>130</ele>
        <time>2021-08-10T13:57:13Z</time>
      </trkpt>
      <trkpt lat="48.24166" lon="-3.64229">
        <ele>130</ele>
        <time>2021-08-10T13:57:14Z</time>
      </trkpt>
      <trkpt lat="48.24163" lon="-3.64229">
        <ele>130</ele>
        <time>2021-08-10T13:57:15Z</time>
      </trkpt>
      <trkpt lat="48.2416" lon="-3.64228">
        <ele>130.2</ele>
        <time>2021-08-10T13:57:16Z</time>
      </trkpt>
      <trkpt lat="48.24157" lon="-3.64226">
        <ele>130.2</ele>
        <time>2021-08-10T13:57:17Z</time>
      </trkpt>
      <trkpt lat="48.24154" lon="-3.64225">
        <ele>130.6</ele>
        <time>2021-08-10T13:57:18Z</time>
      </trkpt>
      <trkpt lat="48.2415" lon="-3.64224">
        <ele>130.6</ele>
        <time>2021-08-10T13:57:19Z</time>
      </trkpt>
      <trkpt lat="48.24147" lon="-3.64222">
        <ele>130.6</ele>
        <time>2021-08-10T13:57:20Z</time>
      </trkpt>
      <trkpt lat="48.24143" lon="-3.6422">
        <ele>130.6</ele>
        <time>2021-08-10T13:57:21Z</time>
      </trkpt>
      <trkpt lat="48.24139" lon="-3.64218">
        <ele>130.6</ele>
        <time>2021-08-10T13:57:22Z</time>
      </trkpt>
      <trkpt lat="48.24135" lon="-3.64216">
        <ele>130.6</ele>
        <time>2021-08-10T13:57:23Z</time>
      </trkpt>
      <trkpt lat="48.24131" lon="-3.64213">
        <ele>130.6</ele>
        <time>2021-08-10T13:57:24Z</time>
      </trkpt>
      <trkpt lat="48.24127" lon="-3.64211">
        <ele>130.6</ele>
        <time>2021-08-10T13:57:25Z</time>
      </trkpt>
      <trkpt lat="48.24122" lon="-3.64209">
        <ele>130.6</ele>
        <time>2021-08-10T13:57:26Z</time>
      </trkpt>
      <trkpt lat="48.24118" lon="-3.64207">
        <ele>130.6</ele>
        <time>2021-08-10T13:57:27Z</time>
      </trkpt>
      <trkpt lat="48.24113" lon="-3.64205">
        <ele>130.6</ele>
        <time>2021-08-10T13:57:28Z</time>
      </trkpt>
      <trkpt lat="48.24108" lon="-3.64202">
        <ele>130.6</ele>
        <time>2021-08-10T13:57:29Z</time>
      </trkpt>
      <trkpt lat="48.24102" lon="-3.642">
        <ele>130.6</ele>
        <time>2021-08-10T13:57:30Z</time>
      </trkpt>
      <trkpt lat="48.24097" lon="-3.64198">
        <ele>130.6</ele>
        <time>2021-08-10T13:57:31Z</time>
      </trkpt>
      <trkpt lat="48.24092" lon="-3.64195">
        <ele>130.4</ele>
        <time>2021-08-10T13:57:32Z</time>
      </trkpt>
      <trkpt lat="48.24087" lon="-3.64193">
        <ele>130.2</ele>
        <time>2021-08-10T13:57:33Z</time>
      </trkpt>
      <trkpt lat="48.24082" lon="-3.6419">
        <ele>130</ele>
        <time>2021-08-10T13:57:34Z</time>
      </trkpt>
      <trkpt lat="48.24077" lon="-3.64187">
        <ele>129.8</ele>
        <time>2021-08-10T13:57:35Z</time>
      </trkpt>
      <trkpt lat="48.24072" lon="-3.64185">
        <ele>129.4</ele>
        <time>2021-08-10T13:57:36Z</time>
      </trkpt>
      <trkpt lat="48.24067" lon="-3.64184">
        <ele>129</ele>
        <time>2021-08-10T13:57:37Z</time>
      </trkpt>
      <trkpt lat="48.24063" lon="-3.64183">
        <ele>128.6</ele>
        <time>2021-08-10T13:57:38Z</time>
      </trkpt>
      <trkpt lat="48.24059" lon="-3.64182">
        <ele>128.4</ele>
        <time>2021-08-10T13:57:39Z</time>
      </trkpt>
      <trkpt lat="48.24055" lon="-3.64182">
        <ele>128.2</ele>
        <time>2021-08-10T13:57:40Z</time>
      </trkpt>
      <trkpt lat="48.24052" lon="-3.64184">
        <ele>128.2</ele>
        <time>2021-08-10T13:57:41Z</time>
      </trkpt>
      <trkpt lat="48.2405" lon="-3.64187">
        <ele>128</ele>
        <time>2021-08-10T13:57:42Z</time>
      </trkpt>
      <trkpt lat="48.24049" lon="-3.6419">
        <ele>128</ele>
        <time>2021-08-10T13:57:43Z</time>
      </trkpt>
      <trkpt lat="48.24049" lon="-3.64194">
        <ele>128</ele>
        <time>2021-08-10T13:57:44Z</time>
      </trkpt>
      <trkpt lat="48.24048" lon="-3.64198">
        <ele>128</ele>
        <time>2021-08-10T13:57:45Z</time>
      </trkpt>
      <trkpt lat="48.24048" lon="-3.64202">
        <ele>128</ele>
        <time>2021-08-10T13:57:46Z</time>
      </trkpt>
      <trkpt lat="48.24047" lon="-3.64207">
        <ele>128</ele>
        <time>2021-08-10T13:57:47Z</time>
      </trkpt>
      <trkpt lat="48.24047" lon="-3.64211">
        <ele>128</ele>
        <time>2021-08-10T13:57:48Z</time>
      </trkpt>
      <trkpt lat="48.24046" lon="-3.64216">
        <ele>128</ele>
        <time>2021-08-10T13:57:49Z</time>
      </trkpt>
      <trkpt lat="48.24046" lon="-3.64221">
        <ele>128</ele>
        <time>2021-08-10T13:57:50Z</time>
      </trkpt>
      <trkpt lat="48.24045" lon="-3.64226">
        <ele>128.2</ele>
        <time>2021-08-10T13:57:51Z</time>
      </trkpt>
      <trkpt lat="48.24044" lon="-3.64231">
        <ele>128.2</ele>
        <time>2021-08-10T13:57:52Z</time>
      </trkpt>
      <trkpt lat="48.24043" lon="-3.64236">
        <ele>128.2</ele>
        <time>2021-08-10T13:57:53Z</time>
      </trkpt>
      <trkpt lat="48.24041" lon="-3.64241">
        <ele>128.4</ele>
        <time>2021-08-10T13:57:54Z</time>
      </trkpt>
      <trkpt lat="48.24041" lon="-3.64245">
        <ele>128.4</ele>
        <time>2021-08-10T13:57:55Z</time>
      </trkpt>
      <trkpt lat="48.2404" lon="-3.6425">
        <ele>128.6</ele>
        <time>2021-08-10T13:57:56Z</time>
      </trkpt>
      <trkpt lat="48.24039" lon="-3.64256">
        <ele>128.8</ele>
        <time>2021-08-10T13:57:57Z</time>
      </trkpt>
      <trkpt lat="48.24037" lon="-3.64262">
        <ele>129</ele>
        <time>2021-08-10T13:57:58Z</time>
      </trkpt>
      <trkpt lat="48.24036" lon="-3.64269">
        <ele>129</ele>
        <time>2021-08-10T13:57:59Z</time>
      </trkpt>
      <trkpt lat="48.24035" lon="-3.64275">
        <ele>129.2</ele>
        <time>2021-08-10T13:58:00Z</time>
      </trkpt>
      <trkpt lat="48.24034" lon="-3.64282">
        <ele>129.2</ele>
        <time>2021-08-10T13:58:01Z</time>
      </trkpt>
      <trkpt lat="48.24033" lon="-3.64288">
        <ele>129.2</ele>
        <time>2021-08-10T13:58:02Z</time>
      </trkpt>
      <trkpt lat="48.24033" lon="-3.64294">
        <ele>129.2</ele>
        <time>2021-08-10T13:58:03Z</time>
      </trkpt>
      <trkpt lat="48.24033" lon="-3.64301">
        <ele>129.4</ele>
        <time>2021-08-10T13:58:04Z</time>
      </trkpt>
      <trkpt lat="48.24032" lon="-3.64307">
        <ele>129.4</ele>
        <time>2021-08-10T13:58:05Z</time>
      </trkpt>
      <trkpt lat="48.24032" lon="-3.64313">
        <ele>129.4</ele>
        <time>2021-08-10T13:58:06Z</time>
      </trkpt>
      <trkpt lat="48.24033" lon="-3.64319">
        <ele>129.6</ele>
        <time>2021-08-10T13:58:07Z</time>
      </trkpt>
      <trkpt lat="48.24033" lon="-3.64326">
        <ele>129.6</ele>
        <time>2021-08-10T13:58:08Z</time>
      </trkpt>
      <trkpt lat="48.24034" lon="-3.64332">
        <ele>129.6</ele>
        <time>2021-08-10T13:58:09Z</time>
      </trkpt>
      <trkpt lat="48.24034" lon="-3.64339">
        <ele>129.6</ele>
        <time>2021-08-10T13:58:10Z</time>
      </trkpt>
      <trkpt lat="48.24035" lon="-3.64346">
        <ele>129.6</ele>
        <time>2021-08-10T13:58:11Z</time>
      </trkpt>
      <trkpt lat="48.24035" lon="-3.64353">
        <ele>129.6</ele>
        <time>2021-08-10T13:58:12Z</time>
      </trkpt>
      <trkpt lat="48.24036" lon="-3.6436">
        <ele>129.6</ele>
        <time>2021-08-10T13:58:13Z</time>
      </trkpt>
      <trkpt lat="48.24037" lon="-3.64367">
        <ele>129.8</ele>
        <time>2021-08-10T13:58:14Z</time>
      </trkpt>
      <trkpt lat="48.24037" lon="-3.64373">
        <ele>129.8</ele>
        <time>2021-08-10T13:58:15Z</time>
      </trkpt>
      <trkpt lat="48.24038" lon="-3.6438">
        <ele>129.8</ele>
        <time>2021-08-10T13:58:16Z</time>
      </trkpt>
      <trkpt lat="48.24038" lon="-3.64386">
        <ele>130</ele>
        <time>2021-08-10T13:58:17Z</time>
      </trkpt>
      <trkpt lat="48.24039" lon="-3.64393">
        <ele>130</ele>
        <time>2021-08-10T13:58:18Z</time>
      </trkpt>
      <trkpt lat="48.2404" lon="-3.64399">
        <ele>130</ele>
        <time>2021-08-10T13:58:19Z</time>
      </trkpt>
      <trkpt lat="48.2404" lon="-3.64406">
        <ele>130.2</ele>
        <time>2021-08-10T13:58:20Z</time>
      </trkpt>
      <trkpt lat="48.24041" lon="-3.64412">
        <ele>130.2</ele>
        <time>2021-08-10T13:58:21Z</time>
      </trkpt>
      <trkpt lat="48.24042" lon="-3.64418">
        <ele>130.2</ele>
        <time>2021-08-10T13:58:22Z</time>
      </trkpt>
      <trkpt lat="48.24042" lon="-3.64424">
        <ele>130.4</ele>
        <time>2021-08-10T13:58:23Z</time>
      </trkpt>
      <trkpt lat="48.24043" lon="-3.64431">
        <ele>130.4</ele>
        <time>2021-08-10T13:58:24Z</time>
      </trkpt>
      <trkpt lat="48.24044" lon="-3.64437">
        <ele>130.6</ele>
        <time>2021-08-10T13:58:25Z</time>
      </trkpt>
      <trkpt lat="48.24045" lon="-3.64443">
        <ele>130.6</ele>
        <time>2021-08-10T13:58:26Z</time>
      </trkpt>
      <trkpt lat="48.24046" lon="-3.6445">
        <ele>130.6</ele>
        <time>2021-08-10T13:58:27Z</time>
      </trkpt>
      <trkpt lat="48.24046" lon="-3.64456">
        <ele>130.8</ele>
        <time>2021-08-10T13:58:28Z</time>
      </trkpt>
      <trkpt lat="48.24047" lon="-3.64462">
        <ele>130.8</ele>
        <time>2021-08-10T13:58:29Z</time>
      </trkpt>
      <trkpt lat="48.24048" lon="-3.64468">
        <ele>130.8</ele>
        <time>2021-08-10T13:58:30Z</time>
      </trkpt>
      <trkpt lat="48.24049" lon="-3.64474">
        <ele>131</ele>
        <time>2021-08-10T13:58:31Z</time>
      </trkpt>
      <trkpt lat="48.24049" lon="-3.6448">
        <ele>131.4</ele>
        <time>2021-08-10T13:58:32Z</time>
      </trkpt>
      <trkpt lat="48.2405" lon="-3.64486">
        <ele>131.4</ele>
        <time>2021-08-10T13:58:33Z</time>
      </trkpt>
      <trkpt lat="48.24051" lon="-3.64492">
        <ele>131.6</ele>
        <time>2021-08-10T13:58:34Z</time>
      </trkpt>
      <trkpt lat="48.24052" lon="-3.64498">
        <ele>131.6</ele>
        <time>2021-08-10T13:58:35Z</time>
      </trkpt>
      <trkpt lat="48.24052" lon="-3.64505">
        <ele>131.8</ele>
        <time>2021-08-10T13:58:36Z</time>
      </trkpt>
      <trkpt lat="48.24053" lon="-3.6451">
        <ele>131.8</ele>
        <time>2021-08-10T13:58:37Z</time>
      </trkpt>
      <trkpt lat="48.24053" lon="-3.64516">
        <ele>132</ele>
        <time>2021-08-10T13:58:38Z</time>
      </trkpt>
      <trkpt lat="48.24054" lon="-3.64522">
        <ele>132.2</ele>
        <time>2021-08-10T13:58:39Z</time>
      </trkpt>
      <trkpt lat="48.24054" lon="-3.64528">
        <ele>132.4</ele>
        <time>2021-08-10T13:58:40Z</time>
      </trkpt>
      <trkpt lat="48.24055" lon="-3.64534">
        <ele>132.6</ele>
        <time>2021-08-10T13:58:41Z</time>
      </trkpt>
      <trkpt lat="48.24056" lon="-3.6454">
        <ele>132.8</ele>
        <time>2021-08-10T13:58:42Z</time>
      </trkpt>
      <trkpt lat="48.24056" lon="-3.64546">
        <ele>133</ele>
        <time>2021-08-10T13:58:43Z</time>
      </trkpt>
      <trkpt lat="48.24057" lon="-3.64552">
        <ele>133.2</ele>
        <time>2021-08-10T13:58:44Z</time>
      </trkpt>
      <trkpt lat="48.24058" lon="-3.64558">
        <ele>133.6</ele>
        <time>2021-08-10T13:58:45Z</time>
      </trkpt>
      <trkpt lat="48.24059" lon="-3.64564">
        <ele>133.8</ele>
        <time>2021-08-10T13:58:46Z</time>
      </trkpt>
      <trkpt lat="48.24059" lon="-3.6457">
        <ele>134</ele>
        <time>2021-08-10T13:58:47Z</time>
      </trkpt>
      <trkpt lat="48.2406" lon="-3.64577">
        <ele>134.2</ele>
        <time>2021-08-10T13:58:48Z</time>
      </trkpt>
      <trkpt lat="48.2406" lon="-3.64583">
        <ele>134.2</ele>
        <time>2021-08-10T13:58:49Z</time>
      </trkpt>
      <trkpt lat="48.24061" lon="-3.64589">
        <ele>134.4</ele>
        <time>2021-08-10T13:58:50Z</time>
      </trkpt>
      <trkpt lat="48.24062" lon="-3.64596">
        <ele>134.6</ele>
        <time>2021-08-10T13:58:51Z</time>
      </trkpt>
      <trkpt lat="48.24063" lon="-3.64602">
        <ele>134.8</ele>
        <time>2021-08-10T13:58:52Z</time>
      </trkpt>
      <trkpt lat="48.24063" lon="-3.64609">
        <ele>135</ele>
        <time>2021-08-10T13:58:53Z</time>
      </trkpt>
      <trkpt lat="48.24064" lon="-3.64615">
        <ele>135</ele>
        <time>2021-08-10T13:58:54Z</time>
      </trkpt>
      <trkpt lat="48.24065" lon="-3.64622">
        <ele>135.2</ele>
        <time>2021-08-10T13:58:55Z</time>
      </trkpt>
      <trkpt lat="48.24066" lon="-3.64628">
        <ele>135.2</ele>
        <time>2021-08-10T13:58:56Z</time>
      </trkpt>
      <trkpt lat="48.24067" lon="-3.64635">
        <ele>135.2</ele>
        <time>2021-08-10T13:58:57Z</time>
      </trkpt>
      <trkpt lat="48.24068" lon="-3.64642">
        <ele>135.4</ele>
        <time>2021-08-10T13:58:58Z</time>
      </trkpt>
      <trkpt lat="48.24069" lon="-3.64648">
        <ele>135.4</ele>
        <time>2021-08-10T13:58:59Z</time>
      </trkpt>
      <trkpt lat="48.24069" lon="-3.64655">
        <ele>135.4</ele>
        <time>2021-08-10T13:59:00Z</time>
      </trkpt>
      <trkpt lat="48.2407" lon="-3.64662">
        <ele>135.4</ele>
        <time>2021-08-10T13:59:01Z</time>
      </trkpt>
      <trkpt lat="48.24071" lon="-3.64668">
        <ele>135.4</ele>
        <time>2021-08-10T13:59:02Z</time>
      </trkpt>
      <trkpt lat="48.24072" lon="-3.64675">
        <ele>135.4</ele>
        <time>2021-08-10T13:59:03Z</time>
      </trkpt>
      <trkpt lat="48.24074" lon="-3.64682">
        <ele>135.4</ele>
        <time>2021-08-10T13:59:04Z</time>
      </trkpt>
      <trkpt lat="48.24075" lon="-3.64688">
        <ele>135.4</ele>
        <time>2021-08-10T13:59:05Z</time>
      </trkpt>
      <trkpt lat="48.24076" lon="-3.64695">
        <ele>135.6</ele>
        <time>2021-08-10T13:59:06Z</time>
      </trkpt>
      <trkpt lat="48.24077" lon="-3.64701">
        <ele>135.6</ele>
        <time>2021-08-10T13:59:07Z</time>
      </trkpt>
      <trkpt lat="48.24077" lon="-3.64707">
        <ele>135.8</ele>
        <time>2021-08-10T13:59:08Z</time>
      </trkpt>
      <trkpt lat="48.24078" lon="-3.64714">
        <ele>135.8</ele>
        <time>2021-08-10T13:59:09Z</time>
      </trkpt>
      <trkpt lat="48.24078" lon="-3.6472">
        <ele>136</ele>
        <time>2021-08-10T13:59:10Z</time>
      </trkpt>
      <trkpt lat="48.24079" lon="-3.64727">
        <ele>136.2</ele>
        <time>2021-08-10T13:59:11Z</time>
      </trkpt>
      <trkpt lat="48.24079" lon="-3.64733">
        <ele>136.2</ele>
        <time>2021-08-10T13:59:12Z</time>
      </trkpt>
      <trkpt lat="48.2408" lon="-3.6474">
        <ele>136.2</ele>
        <time>2021-08-10T13:59:13Z</time>
      </trkpt>
      <trkpt lat="48.2408" lon="-3.64746">
        <ele>136.2</ele>
        <time>2021-08-10T13:59:14Z</time>
      </trkpt>
      <trkpt lat="48.24081" lon="-3.64752">
        <ele>136.4</ele>
        <time>2021-08-10T13:59:15Z</time>
      </trkpt>
      <trkpt lat="48.24082" lon="-3.64759">
        <ele>136.6</ele>
        <time>2021-08-10T13:59:16Z</time>
      </trkpt>
      <trkpt lat="48.24083" lon="-3.64765">
        <ele>136.6</ele>
        <time>2021-08-10T13:59:17Z</time>
      </trkpt>
      <trkpt lat="48.24084" lon="-3.64772">
        <ele>136.8</ele>
        <time>2021-08-10T13:59:18Z</time>
      </trkpt>
      <trkpt lat="48.24084" lon="-3.64779">
        <ele>136.8</ele>
        <time>2021-08-10T13:59:19Z</time>
      </trkpt>
      <trkpt lat="48.24084" lon="-3.64785">
        <ele>137</ele>
        <time>2021-08-10T13:59:20Z</time>
      </trkpt>
      <trkpt lat="48.24085" lon="-3.64792">
        <ele>137.2</ele>
        <time>2021-08-10T13:59:21Z</time>
      </trkpt>
      <trkpt lat="48.24085" lon="-3.64799">
        <ele>137.2</ele>
        <time>2021-08-10T13:59:22Z</time>
      </trkpt>
      <trkpt lat="48.24086" lon="-3.64806">
        <ele>137.2</ele>
        <time>2021-08-10T13:59:23Z</time>
      </trkpt>
      <trkpt lat="48.24086" lon="-3.64812">
        <ele>137.2</ele>
        <time>2021-08-10T13:59:24Z</time>
      </trkpt>
      <trkpt lat="48.24086" lon="-3.64818">
        <ele>137.4</ele>
        <time>2021-08-10T13:59:25Z</time>
      </trkpt>
      <trkpt lat="48.24086" lon="-3.64825">
        <ele>137.4</ele>
        <time>2021-08-10T13:59:26Z</time>
      </trkpt>
      <trkpt lat="48.24086" lon="-3.64831">
        <ele>137.4</ele>
        <time>2021-08-10T13:59:27Z</time>
      </trkpt>
      <trkpt lat="48.24087" lon="-3.64837">
        <ele>137.4</ele>
        <time>2021-08-10T13:59:28Z</time>
      </trkpt>
      <trkpt lat="48.24087" lon="-3.64844">
        <ele>137.4</ele>
        <time>2021-08-10T13:59:29Z</time>
      </trkpt>
      <trkpt lat="48.24086" lon="-3.64852">
        <ele>137.6</ele>
        <time>2021-08-10T13:59:30Z</time>
      </trkpt>
      <trkpt lat="48.24082" lon="-3.6486">
        <ele>137.6</ele>
        <time>2021-08-10T13:59:31Z</time>
      </trkpt>
      <trkpt lat="48.2408" lon="-3.64867">
        <ele>137.6</ele>
        <time>2021-08-10T13:59:32Z</time>
      </trkpt>
      <trkpt lat="48.24079" lon="-3.64875">
        <ele>137.6</ele>
        <time>2021-08-10T13:59:33Z</time>
      </trkpt>
      <trkpt lat="48.24078" lon="-3.64883">
        <ele>137.6</ele>
        <time>2021-08-10T13:59:34Z</time>
      </trkpt>
      <trkpt lat="48.24078" lon="-3.6489">
        <ele>137.6</ele>
        <time>2021-08-10T13:59:35Z</time>
      </trkpt>
      <trkpt lat="48.24077" lon="-3.64898">
        <ele>137.6</ele>
        <time>2021-08-10T13:59:36Z</time>
      </trkpt>
      <trkpt lat="48.24076" lon="-3.64905">
        <ele>137.6</ele>
        <time>2021-08-10T13:59:37Z</time>
      </trkpt>
      <trkpt lat="48.24076" lon="-3.64913">
        <ele>137.6</ele>
        <time>2021-08-10T13:59:38Z</time>
      </trkpt>
      <trkpt lat="48.24075" lon="-3.6492">
        <ele>137.8</ele>
        <time>2021-08-10T13:59:39Z</time>
      </trkpt>
      <trkpt lat="48.24074" lon="-3.64927">
        <ele>137.8</ele>
        <time>2021-08-10T13:59:40Z</time>
      </trkpt>
      <trkpt lat="48.24074" lon="-3.64935">
        <ele>138</ele>
        <time>2021-08-10T13:59:41Z</time>
      </trkpt>
      <trkpt lat="48.24073" lon="-3.64941">
        <ele>138</ele>
        <time>2021-08-10T13:59:42Z</time>
      </trkpt>
      <trkpt lat="48.24073" lon="-3.64948">
        <ele>138.2</ele>
        <time>2021-08-10T13:59:43Z</time>
      </trkpt>
      <trkpt lat="48.24073" lon="-3.64954">
        <ele>138.2</ele>
        <time>2021-08-10T13:59:44Z</time>
      </trkpt>
      <trkpt lat="48.24073" lon="-3.6496">
        <ele>138.4</ele>
        <time>2021-08-10T13:59:45Z</time>
      </trkpt>
      <trkpt lat="48.24072" lon="-3.64967">
        <ele>138.6</ele>
        <time>2021-08-10T13:59:46Z</time>
      </trkpt>
      <trkpt lat="48.24072" lon="-3.64974">
        <ele>138.6</ele>
        <time>2021-08-10T13:59:47Z</time>
      </trkpt>
      <trkpt lat="48.24072" lon="-3.6498">
        <ele>138.8</ele>
        <time>2021-08-10T13:59:48Z</time>
      </trkpt>
      <trkpt lat="48.24071" lon="-3.64986">
        <ele>138.8</ele>
        <time>2021-08-10T13:59:49Z</time>
      </trkpt>
      <trkpt lat="48.24071" lon="-3.64993">
        <ele>138.8</ele>
        <time>2021-08-10T13:59:50Z</time>
      </trkpt>
      <trkpt lat="48.24071" lon="-3.64999">
        <ele>138.8</ele>
        <time>2021-08-10T13:59:51Z</time>
      </trkpt>
      <trkpt lat="48.2407" lon="-3.65006">
        <ele>138.8</ele>
        <time>2021-08-10T13:59:52Z</time>
      </trkpt>
      <trkpt lat="48.24069" lon="-3.65013">
        <ele>138.8</ele>
        <time>2021-08-10T13:59:53Z</time>
      </trkpt>
      <trkpt lat="48.24068" lon="-3.6502">
        <ele>139</ele>
        <time>2021-08-10T13:59:54Z</time>
      </trkpt>
      <trkpt lat="48.24068" lon="-3.65027">
        <ele>139</ele>
        <time>2021-08-10T13:59:55Z</time>
      </trkpt>
      <trkpt lat="48.24067" lon="-3.65033">
        <ele>139</ele>
        <time>2021-08-10T13:59:56Z</time>
      </trkpt>
      <trkpt lat="48.24067" lon="-3.6504">
        <ele>139</ele>
        <time>2021-08-10T13:59:57Z</time>
      </trkpt>
      <trkpt lat="48.24066" lon="-3.65048">
        <ele>139</ele>
        <time>2021-08-10T13:59:58Z</time>
      </trkpt>
      <trkpt lat="48.24065" lon="-3.65055">
        <ele>139</ele>
        <time>2021-08-10T13:59:59Z</time>
      </trkpt>
      <trkpt lat="48.24064" lon="-3.65063">
        <ele>139</ele>
        <time>2021-08-10T14:00:00Z</time>
      </trkpt>
      <trkpt lat="48.24063" lon="-3.65071">
        <ele>139</ele>
        <time>2021-08-10T14:00:01Z</time>
      </trkpt>
      <trkpt lat="48.24062" lon="-3.65079">
        <ele>139</ele>
        <time>2021-08-10T14:00:02Z</time>
      </trkpt>
      <trkpt lat="48.24061" lon="-3.65086">
        <ele>139</ele>
        <time>2021-08-10T14:00:03Z</time>
      </trkpt>
      <trkpt lat="48.2406" lon="-3.65094">
        <ele>139</ele>
        <time>2021-08-10T14:00:04Z</time>
      </trkpt>
      <trkpt lat="48.24059" lon="-3.65103">
        <ele>139</ele>
        <time>2021-08-10T14:00:05Z</time>
      </trkpt>
      <trkpt lat="48.24059" lon="-3.65112">
        <ele>138.8</ele>
        <time>2021-08-10T14:00:06Z</time>
      </trkpt>
      <trkpt lat="48.24059" lon="-3.65122">
        <ele>138.6</ele>
        <time>2021-08-10T14:00:07Z</time>
      </trkpt>
      <trkpt lat="48.24062" lon="-3.6513">
        <ele>138.4</ele>
        <time>2021-08-10T14:00:08Z</time>
      </trkpt>
      <trkpt lat="48.24065" lon="-3.65136">
        <ele>138.4</ele>
        <time>2021-08-10T14:00:09Z</time>
      </trkpt>
      <trkpt lat="48.2407" lon="-3.65141">
        <ele>138.2</ele>
        <time>2021-08-10T14:00:10Z</time>
      </trkpt>
      <trkpt lat="48.24075" lon="-3.65145">
        <ele>138.2</ele>
        <time>2021-08-10T14:00:11Z</time>
      </trkpt>
      <trkpt lat="48.2408" lon="-3.65149">
        <ele>138</ele>
        <time>2021-08-10T14:00:12Z</time>
      </trkpt>
      <trkpt lat="48.24085" lon="-3.65153">
        <ele>137.8</ele>
        <time>2021-08-10T14:00:13Z</time>
      </trkpt>
      <trkpt lat="48.2409" lon="-3.65156">
        <ele>137.8</ele>
        <time>2021-08-10T14:00:14Z</time>
      </trkpt>
      <trkpt lat="48.24094" lon="-3.65159">
        <ele>137.8</ele>
        <time>2021-08-10T14:00:15Z</time>
      </trkpt>
      <trkpt lat="48.24098" lon="-3.65162">
        <ele>137.8</ele>
        <time>2021-08-10T14:00:16Z</time>
      </trkpt>
      <trkpt lat="48.24102" lon="-3.65166">
        <ele>137.8</ele>
        <time>2021-08-10T14:00:17Z</time>
      </trkpt>
      <trkpt lat="48.24105" lon="-3.65169">
        <ele>137.8</ele>
        <time>2021-08-10T14:00:18Z</time>
      </trkpt>
      <trkpt lat="48.24109" lon="-3.65172">
        <ele>137.8</ele>
        <time>2021-08-10T14:00:19Z</time>
      </trkpt>
      <trkpt lat="48.24112" lon="-3.65176">
        <ele>137.8</ele>
        <time>2021-08-10T14:00:20Z</time>
      </trkpt>
      <trkpt lat="48.24115" lon="-3.65179">
        <ele>137.8</ele>
        <time>2021-08-10T14:00:21Z</time>
      </trkpt>
      <trkpt lat="48.24118" lon="-3.65183">
        <ele>138</ele>
        <time>2021-08-10T14:00:22Z</time>
      </trkpt>
      <trkpt lat="48.24122" lon="-3.65187">
        <ele>138</ele>
        <time>2021-08-10T14:00:23Z</time>
      </trkpt>
      <trkpt lat="48.24125" lon="-3.65192">
        <ele>138.2</ele>
        <time>2021-08-10T14:00:24Z</time>
      </trkpt>
      <trkpt lat="48.24128" lon="-3.65196">
        <ele>138.4</ele>
        <time>2021-08-10T14:00:25Z</time>
      </trkpt>
      <trkpt lat="48.24132" lon="-3.65201">
        <ele>138.6</ele>
        <time>2021-08-10T14:00:26Z</time>
      </trkpt>
      <trkpt lat="48.24135" lon="-3.65206">
        <ele>139</ele>
        <time>2021-08-10T14:00:27Z</time>
      </trkpt>
      <trkpt lat="48.24139" lon="-3.6521">
        <ele>139.2</ele>
        <time>2021-08-10T14:00:28Z</time>
      </trkpt>
      <trkpt lat="48.24142" lon="-3.65215">
        <ele>139.4</ele>
        <time>2021-08-10T14:00:29Z</time>
      </trkpt>
      <trkpt lat="48.24145" lon="-3.6522">
        <ele>139.6</ele>
        <time>2021-08-10T14:00:30Z</time>
      </trkpt>
      <trkpt lat="48.24148" lon="-3.65224">
        <ele>139.8</ele>
        <time>2021-08-10T14:00:31Z</time>
      </trkpt>
      <trkpt lat="48.24151" lon="-3.65229">
        <ele>139.8</ele>
        <time>2021-08-10T14:00:32Z</time>
      </trkpt>
      <trkpt lat="48.24153" lon="-3.65233">
        <ele>139.8</ele>
        <time>2021-08-10T14:00:33Z</time>
      </trkpt>
      <trkpt lat="48.24155" lon="-3.65238">
        <ele>139.8</ele>
        <time>2021-08-10T14:00:34Z</time>
      </trkpt>
      <trkpt lat="48.24157" lon="-3.65242">
        <ele>140.2</ele>
        <time>2021-08-10T14:00:35Z</time>
      </trkpt>
      <trkpt lat="48.2416" lon="-3.65247">
        <ele>140.4</ele>
        <time>2021-08-10T14:00:36Z</time>
      </trkpt>
      <trkpt lat="48.24162" lon="-3.65251">
        <ele>140.6</ele>
        <time>2021-08-10T14:00:37Z</time>
      </trkpt>
      <trkpt lat="48.24164" lon="-3.65255">
        <ele>140.6</ele>
        <time>2021-08-10T14:00:38Z</time>
      </trkpt>
      <trkpt lat="48.24167" lon="-3.65259">
        <ele>140.8</ele>
        <time>2021-08-10T14:00:39Z</time>
      </trkpt>
      <trkpt lat="48.24169" lon="-3.65264">
        <ele>140.8</ele>
        <time>2021-08-10T14:00:40Z</time>
      </trkpt>
      <trkpt lat="48.24171" lon="-3.65268">
        <ele>140.8</ele>
        <time>2021-08-10T14:00:41Z</time>
      </trkpt>
      <trkpt lat="48.24173" lon="-3.65272">
        <ele>141</ele>
        <time>2021-08-10T14:00:42Z</time>
      </trkpt>
      <trkpt lat="48.24175" lon="-3.65277">
        <ele>141</ele>
        <time>2021-08-10T14:00:43Z</time>
      </trkpt>
      <trkpt lat="48.24177" lon="-3.65281">
        <ele>141.4</ele>
        <time>2021-08-10T14:00:44Z</time>
      </trkpt>
      <trkpt lat="48.2418" lon="-3.65285">
        <ele>141.8</ele>
        <time>2021-08-10T14:00:45Z</time>
      </trkpt>
      <trkpt lat="48.24182" lon="-3.6529">
        <ele>142</ele>
        <time>2021-08-10T14:00:46Z</time>
      </trkpt>
      <trkpt lat="48.24184" lon="-3.65295">
        <ele>142.4</ele>
        <time>2021-08-10T14:00:47Z</time>
      </trkpt>
      <trkpt lat="48.24187" lon="-3.65299">
        <ele>142.8</ele>
        <time>2021-08-10T14:00:48Z</time>
      </trkpt>
      <trkpt lat="48.2419" lon="-3.65304">
        <ele>143.2</ele>
        <time>2021-08-10T14:00:49Z</time>
      </trkpt>
      <trkpt lat="48.24192" lon="-3.65309">
        <ele>143.4</ele>
        <time>2021-08-10T14:00:50Z</time>
      </trkpt>
      <trkpt lat="48.24195" lon="-3.65314">
        <ele>143.6</ele>
        <time>2021-08-10T14:00:51Z</time>
      </trkpt>
      <trkpt lat="48.24197" lon="-3.65319">
        <ele>143.6</ele>
        <time>2021-08-10T14:00:52Z</time>
      </trkpt>
      <trkpt lat="48.242" lon="-3.65324">
        <ele>143.8</ele>
        <time>2021-08-10T14:00:53Z</time>
      </trkpt>
      <trkpt lat="48.24203" lon="-3.65329">
        <ele>143.8</ele>
        <time>2021-08-10T14:00:54Z</time>
      </trkpt>
      <trkpt lat="48.24206" lon="-3.65335">
        <ele>144</ele>
        <time>2021-08-10T14:00:55Z</time>
      </trkpt>
      <trkpt lat="48.24209" lon="-3.6534">
        <ele>144</ele>
        <time>2021-08-10T14:00:56Z</time>
      </trkpt>
      <trkpt lat="48.24213" lon="-3.65345">
        <ele>144</ele>
        <time>2021-08-10T14:00:57Z</time>
      </trkpt>
      <trkpt lat="48.24216" lon="-3.6535">
        <ele>144.2</ele>
        <time>2021-08-10T14:00:58Z</time>
      </trkpt>
      <trkpt lat="48.24219" lon="-3.65355">
        <ele>144.4</ele>
        <time>2021-08-10T14:00:59Z</time>
      </trkpt>
      <trkpt lat="48.24222" lon="-3.65361">
        <ele>144.4</ele>
        <time>2021-08-10T14:01:00Z</time>
      </trkpt>
      <trkpt lat="48.24225" lon="-3.65366">
        <ele>144.6</ele>
        <time>2021-08-10T14:01:01Z</time>
      </trkpt>
      <trkpt lat="48.24228" lon="-3.65371">
        <ele>144.6</ele>
        <time>2021-08-10T14:01:02Z</time>
      </trkpt>
      <trkpt lat="48.24231" lon="-3.65377">
        <ele>144.6</ele>
        <time>2021-08-10T14:01:03Z</time>
      </trkpt>
      <trkpt lat="48.24235" lon="-3.65382">
        <ele>144.6</ele>
        <time>2021-08-10T14:01:04Z</time>
      </trkpt>
      <trkpt lat="48.24239" lon="-3.65388">
        <ele>144.6</ele>
        <time>2021-08-10T14:01:05Z</time>
      </trkpt>
      <trkpt lat="48.24243" lon="-3.65393">
        <ele>144.6</ele>
        <time>2021-08-10T14:01:06Z</time>
      </trkpt>
      <trkpt lat="48.24247" lon="-3.65399">
        <ele>144.6</ele>
        <time>2021-08-10T14:01:07Z</time>
      </trkpt>
      <trkpt lat="48.24251" lon="-3.65405">
        <ele>144.4</ele>
        <time>2021-08-10T14:01:08Z</time>
      </trkpt>
      <trkpt lat="48.24255" lon="-3.6541">
        <ele>144.2</ele>
        <time>2021-08-10T14:01:09Z</time>
      </trkpt>
      <trkpt lat="48.24259" lon="-3.65416">
        <ele>144</ele>
        <time>2021-08-10T14:01:10Z</time>
      </trkpt>
      <trkpt lat="48.24263" lon="-3.65421">
        <ele>143.8</ele>
        <time>2021-08-10T14:01:11Z</time>
      </trkpt>
      <trkpt lat="48.24266" lon="-3.65427">
        <ele>143.8</ele>
        <time>2021-08-10T14:01:12Z</time>
      </trkpt>
      <trkpt lat="48.2427" lon="-3.65432">
        <ele>143.6</ele>
        <time>2021-08-10T14:01:13Z</time>
      </trkpt>
      <trkpt lat="48.24273" lon="-3.65438">
        <ele>143.6</ele>
        <time>2021-08-10T14:01:14Z</time>
      </trkpt>
      <trkpt lat="48.24277" lon="-3.65443">
        <ele>143.4</ele>
        <time>2021-08-10T14:01:15Z</time>
      </trkpt>
      <trkpt lat="48.24281" lon="-3.65449">
        <ele>143.2</ele>
        <time>2021-08-10T14:01:16Z</time>
      </trkpt>
      <trkpt lat="48.24284" lon="-3.65455">
        <ele>143.2</ele>
        <time>2021-08-10T14:01:17Z</time>
      </trkpt>
      <trkpt lat="48.24288" lon="-3.6546">
        <ele>143</ele>
        <time>2021-08-10T14:01:18Z</time>
      </trkpt>
      <trkpt lat="48.24291" lon="-3.65466">
        <ele>143</ele>
        <time>2021-08-10T14:01:19Z</time>
      </trkpt>
      <trkpt lat="48.24295" lon="-3.65471">
        <ele>143</ele>
        <time>2021-08-10T14:01:20Z</time>
      </trkpt>
      <trkpt lat="48.24298" lon="-3.65476">
        <ele>143</ele>
        <time>2021-08-10T14:01:21Z</time>
      </trkpt>
      <trkpt lat="48.24301" lon="-3.65482">
        <ele>143</ele>
        <time>2021-08-10T14:01:22Z</time>
      </trkpt>
      <trkpt lat="48.24304" lon="-3.65487">
        <ele>142.8</ele>
        <time>2021-08-10T14:01:23Z</time>
      </trkpt>
      <trkpt lat="48.24308" lon="-3.65493">
        <ele>142.8</ele>
        <time>2021-08-10T14:01:24Z</time>
      </trkpt>
      <trkpt lat="48.24311" lon="-3.65499">
        <ele>142.8</ele>
        <time>2021-08-10T14:01:25Z</time>
      </trkpt>
      <trkpt lat="48.24314" lon="-3.65505">
        <ele>142.8</ele>
        <time>2021-08-10T14:01:26Z</time>
      </trkpt>
      <trkpt lat="48.24318" lon="-3.65511">
        <ele>142.8</ele>
        <time>2021-08-10T14:01:27Z</time>
      </trkpt>
      <trkpt lat="48.24322" lon="-3.65518">
        <ele>142.8</ele>
        <time>2021-08-10T14:01:28Z</time>
      </trkpt>
      <trkpt lat="48.24326" lon="-3.65524">
        <ele>142.8</ele>
        <time>2021-08-10T14:01:29Z</time>
      </trkpt>
      <trkpt lat="48.2433" lon="-3.65532">
        <ele>142.8</ele>
        <time>2021-08-10T14:01:30Z</time>
      </trkpt>
      <trkpt lat="48.24335" lon="-3.65539">
        <ele>142.6</ele>
        <time>2021-08-10T14:01:31Z</time>
      </trkpt>
      <trkpt lat="48.24339" lon="-3.65546">
        <ele>142.4</ele>
        <time>2021-08-10T14:01:32Z</time>
      </trkpt>
      <trkpt lat="48.24343" lon="-3.65553">
        <ele>142</ele>
        <time>2021-08-10T14:01:33Z</time>
      </trkpt>
      <trkpt lat="48.24348" lon="-3.6556">
        <ele>141.6</ele>
        <time>2021-08-10T14:01:34Z</time>
      </trkpt>
      <trkpt lat="48.24352" lon="-3.65567">
        <ele>141</ele>
        <time>2021-08-10T14:01:35Z</time>
      </trkpt>
      <trkpt lat="48.24356" lon="-3.65574">
        <ele>140.4</ele>
        <time>2021-08-10T14:01:36Z</time>
      </trkpt>
      <trkpt lat="48.2436" lon="-3.65581">
        <ele>140</ele>
        <time>2021-08-10T14:01:37Z</time>
      </trkpt>
      <trkpt lat="48.24364" lon="-3.65588">
        <ele>139.8</ele>
        <time>2021-08-10T14:01:38Z</time>
      </trkpt>
      <trkpt lat="48.24368" lon="-3.65594">
        <ele>139.4</ele>
        <time>2021-08-10T14:01:39Z</time>
      </trkpt>
      <trkpt lat="48.24372" lon="-3.65601">
        <ele>139</ele>
        <time>2021-08-10T14:01:40Z</time>
      </trkpt>
      <trkpt lat="48.24375" lon="-3.65607">
        <ele>138.6</ele>
        <time>2021-08-10T14:01:41Z</time>
      </trkpt>
      <trkpt lat="48.24379" lon="-3.65613">
        <ele>138.4</ele>
        <time>2021-08-10T14:01:42Z</time>
      </trkpt>
      <trkpt lat="48.24383" lon="-3.65619">
        <ele>138.4</ele>
        <time>2021-08-10T14:01:43Z</time>
      </trkpt>
      <trkpt lat="48.24386" lon="-3.65625">
        <ele>138.2</ele>
        <time>2021-08-10T14:01:44Z</time>
      </trkpt>
      <trkpt lat="48.2439" lon="-3.65631">
        <ele>138.2</ele>
        <time>2021-08-10T14:01:45Z</time>
      </trkpt>
      <trkpt lat="48.24393" lon="-3.65636">
        <ele>138.2</ele>
        <time>2021-08-10T14:01:46Z</time>
      </trkpt>
      <trkpt lat="48.24397" lon="-3.65642">
        <ele>138.2</ele>
        <time>2021-08-10T14:01:47Z</time>
      </trkpt>
      <trkpt lat="48.24401" lon="-3.65647">
        <ele>138.2</ele>
        <time>2021-08-10T14:01:48Z</time>
      </trkpt>
      <trkpt lat="48.24404" lon="-3.65654">
        <ele>138</ele>
        <time>2021-08-10T14:01:49Z</time>
      </trkpt>
      <trkpt lat="48.24406" lon="-3.65661">
        <ele>138</ele>
        <time>2021-08-10T14:01:50Z</time>
      </trkpt>
      <trkpt lat="48.24407" lon="-3.6567">
        <ele>138</ele>
        <time>2021-08-10T14:01:51Z</time>
      </trkpt>
      <trkpt lat="48.24407" lon="-3.6568">
        <ele>138</ele>
        <time>2021-08-10T14:01:52Z</time>
      </trkpt>
      <trkpt lat="48.24407" lon="-3.65689">
        <ele>138</ele>
        <time>2021-08-10T14:01:53Z</time>
      </trkpt>
      <trkpt lat="48.24407" lon="-3.65699">
        <ele>138</ele>
        <time>2021-08-10T14:01:54Z</time>
      </trkpt>
      <trkpt lat="48.24407" lon="-3.65708">
        <ele>137.8</ele>
        <time>2021-08-10T14:01:55Z</time>
      </trkpt>
      <trkpt lat="48.24407" lon="-3.65718">
        <ele>137.8</ele>
        <time>2021-08-10T14:01:56Z</time>
      </trkpt>
      <trkpt lat="48.24407" lon="-3.65728">
        <ele>137.6</ele>
        <time>2021-08-10T14:01:57Z</time>
      </trkpt>
      <trkpt lat="48.24408" lon="-3.65738">
        <ele>137.4</ele>
        <time>2021-08-10T14:01:58Z</time>
      </trkpt>
      <trkpt lat="48.24408" lon="-3.65748">
        <ele>137.2</ele>
        <time>2021-08-10T14:01:59Z</time>
      </trkpt>
      <trkpt lat="48.24408" lon="-3.65758">
        <ele>136.6</ele>
        <time>2021-08-10T14:02:00Z</time>
      </trkpt>
      <trkpt lat="48.24409" lon="-3.65768">
        <ele>136.4</ele>
        <time>2021-08-10T14:02:01Z</time>
      </trkpt>
      <trkpt lat="48.24408" lon="-3.65778">
        <ele>136.2</ele>
        <time>2021-08-10T14:02:02Z</time>
      </trkpt>
      <trkpt lat="48.24408" lon="-3.65788">
        <ele>136</ele>
        <time>2021-08-10T14:02:03Z</time>
      </trkpt>
      <trkpt lat="48.24408" lon="-3.65798">
        <ele>136</ele>
        <time>2021-08-10T14:02:04Z</time>
      </trkpt>
      <trkpt lat="48.24408" lon="-3.65808">
        <ele>136</ele>
        <time>2021-08-10T14:02:05Z</time>
      </trkpt>
      <trkpt lat="48.24408" lon="-3.65818">
        <ele>136</ele>
        <time>2021-08-10T14:02:06Z</time>
      </trkpt>
      <trkpt lat="48.24407" lon="-3.65828">
        <ele>136</ele>
        <time>2021-08-10T14:02:07Z</time>
      </trkpt>
      <trkpt lat="48.24407" lon="-3.65839">
        <ele>136</ele>
        <time>2021-08-10T14:02:08Z</time>
      </trkpt>
      <trkpt lat="48.24406" lon="-3.65849">
        <ele>135.8</ele>
        <time>2021-08-10T14:02:09Z</time>
      </trkpt>
      <trkpt lat="48.24405" lon="-3.6586">
        <ele>135.8</ele>
        <time>2021-08-10T14:02:10Z</time>
      </trkpt>
      <trkpt lat="48.24404" lon="-3.6587">
        <ele>135.6</ele>
        <time>2021-08-10T14:02:11Z</time>
      </trkpt>
      <trkpt lat="48.24402" lon="-3.65881">
        <ele>135.2</ele>
        <time>2021-08-10T14:02:12Z</time>
      </trkpt>
      <trkpt lat="48.24401" lon="-3.65892">
        <ele>135</ele>
        <time>2021-08-10T14:02:13Z</time>
      </trkpt>
      <trkpt lat="48.24399" lon="-3.65903">
        <ele>135</ele>
        <time>2021-08-10T14:02:14Z</time>
      </trkpt>
      <trkpt lat="48.24397" lon="-3.65914">
        <ele>134.8</ele>
        <time>2021-08-10T14:02:15Z</time>
      </trkpt>
      <trkpt lat="48.24395" lon="-3.65926">
        <ele>134.8</ele>
        <time>2021-08-10T14:02:16Z</time>
      </trkpt>
      <trkpt lat="48.24394" lon="-3.65937">
        <ele>134.8</ele>
        <time>2021-08-10T14:02:17Z</time>
      </trkpt>
      <trkpt lat="48.24392" lon="-3.65948">
        <ele>134.4</ele>
        <time>2021-08-10T14:02:18Z</time>
      </trkpt>
      <trkpt lat="48.2439" lon="-3.65959">
        <ele>134.4</ele>
        <time>2021-08-10T14:02:19Z</time>
      </trkpt>
      <trkpt lat="48.24388" lon="-3.65971">
        <ele>134.2</ele>
        <time>2021-08-10T14:02:20Z</time>
      </trkpt>
      <trkpt lat="48.24386" lon="-3.65982">
        <ele>133.6</ele>
        <time>2021-08-10T14:02:21Z</time>
      </trkpt>
      <trkpt lat="48.24384" lon="-3.65993">
        <ele>133</ele>
        <time>2021-08-10T14:02:22Z</time>
      </trkpt>
      <trkpt lat="48.24383" lon="-3.66003">
        <ele>132.4</ele>
        <time>2021-08-10T14:02:23Z</time>
      </trkpt>
      <trkpt lat="48.24381" lon="-3.66014">
        <ele>132</ele>
        <time>2021-08-10T14:02:24Z</time>
      </trkpt>
      <trkpt lat="48.24379" lon="-3.66025">
        <ele>131.4</ele>
        <time>2021-08-10T14:02:25Z</time>
      </trkpt>
      <trkpt lat="48.24377" lon="-3.66036">
        <ele>131</ele>
        <time>2021-08-10T14:02:26Z</time>
      </trkpt>
      <trkpt lat="48.24375" lon="-3.66047">
        <ele>130.8</ele>
        <time>2021-08-10T14:02:27Z</time>
      </trkpt>
      <trkpt lat="48.24373" lon="-3.66058">
        <ele>130.6</ele>
        <time>2021-08-10T14:02:28Z</time>
      </trkpt>
      <trkpt lat="48.24371" lon="-3.66068">
        <ele>130.4</ele>
        <time>2021-08-10T14:02:29Z</time>
      </trkpt>
      <trkpt lat="48.24368" lon="-3.66079">
        <ele>130.4</ele>
        <time>2021-08-10T14:02:30Z</time>
      </trkpt>
      <trkpt lat="48.24366" lon="-3.6609">
        <ele>130.4</ele>
        <time>2021-08-10T14:02:31Z</time>
      </trkpt>
      <trkpt lat="48.24363" lon="-3.661">
        <ele>130.2</ele>
        <time>2021-08-10T14:02:32Z</time>
      </trkpt>
      <trkpt lat="48.24361" lon="-3.66111">
        <ele>130.2</ele>
        <time>2021-08-10T14:02:33Z</time>
      </trkpt>
      <trkpt lat="48.24359" lon="-3.66121">
        <ele>130.2</ele>
        <time>2021-08-10T14:02:34Z</time>
      </trkpt>
      <trkpt lat="48.24356" lon="-3.66131">
        <ele>130.2</ele>
        <time>2021-08-10T14:02:35Z</time>
      </trkpt>
      <trkpt lat="48.24354" lon="-3.66141">
        <ele>130.2</ele>
        <time>2021-08-10T14:02:36Z</time>
      </trkpt>
      <trkpt lat="48.24352" lon="-3.66151">
        <ele>130.2</ele>
        <time>2021-08-10T14:02:37Z</time>
      </trkpt>
      <trkpt lat="48.24349" lon="-3.66161">
        <ele>130.2</ele>
        <time>2021-08-10T14:02:38Z</time>
      </trkpt>
      <trkpt lat="48.24347" lon="-3.66171">
        <ele>130.2</ele>
        <time>2021-08-10T14:02:39Z</time>
      </trkpt>
      <trkpt lat="48.24345" lon="-3.66181">
        <ele>130.2</ele>
        <time>2021-08-10T14:02:40Z</time>
      </trkpt>
      <trkpt lat="48.24343" lon="-3.6619">
        <ele>130.4</ele>
        <time>2021-08-10T14:02:41Z</time>
      </trkpt>
      <trkpt lat="48.24341" lon="-3.66199">
        <ele>130.4</ele>
        <time>2021-08-10T14:02:42Z</time>
      </trkpt>
      <trkpt lat="48.24339" lon="-3.66208">
        <ele>130.4</ele>
        <time>2021-08-10T14:02:43Z</time>
      </trkpt>
      <trkpt lat="48.24337" lon="-3.66217">
        <ele>130.4</ele>
        <time>2021-08-10T14:02:44Z</time>
      </trkpt>
      <trkpt lat="48.24335" lon="-3.66226">
        <ele>130.4</ele>
        <time>2021-08-10T14:02:45Z</time>
      </trkpt>
      <trkpt lat="48.24333" lon="-3.66235">
        <ele>130.4</ele>
        <time>2021-08-10T14:02:46Z</time>
      </trkpt>
      <trkpt lat="48.24331" lon="-3.66243">
        <ele>130.4</ele>
        <time>2021-08-10T14:02:47Z</time>
      </trkpt>
      <trkpt lat="48.24329" lon="-3.66251">
        <ele>130.6</ele>
        <time>2021-08-10T14:02:48Z</time>
      </trkpt>
      <trkpt lat="48.24327" lon="-3.6626">
        <ele>130.6</ele>
        <time>2021-08-10T14:02:49Z</time>
      </trkpt>
      <trkpt lat="48.24325" lon="-3.66268">
        <ele>130.6</ele>
        <time>2021-08-10T14:02:50Z</time>
      </trkpt>
      <trkpt lat="48.24323" lon="-3.66276">
        <ele>130.8</ele>
        <time>2021-08-10T14:02:51Z</time>
      </trkpt>
      <trkpt lat="48.24322" lon="-3.66284">
        <ele>130.8</ele>
        <time>2021-08-10T14:02:52Z</time>
      </trkpt>
      <trkpt lat="48.2432" lon="-3.66291">
        <ele>130.8</ele>
        <time>2021-08-10T14:02:53Z</time>
      </trkpt>
      <trkpt lat="48.24318" lon="-3.66299">
        <ele>131</ele>
        <time>2021-08-10T14:02:54Z</time>
      </trkpt>
      <trkpt lat="48.24317" lon="-3.66306">
        <ele>131.2</ele>
        <time>2021-08-10T14:02:55Z</time>
      </trkpt>
      <trkpt lat="48.24315" lon="-3.66313">
        <ele>131.4</ele>
        <time>2021-08-10T14:02:56Z</time>
      </trkpt>
      <trkpt lat="48.24314" lon="-3.66321">
        <ele>131.8</ele>
        <time>2021-08-10T14:02:57Z</time>
      </trkpt>
      <trkpt lat="48.24312" lon="-3.66328">
        <ele>132</ele>
        <time>2021-08-10T14:02:58Z</time>
      </trkpt>
      <trkpt lat="48.24311" lon="-3.66335">
        <ele>132</ele>
        <time>2021-08-10T14:02:59Z</time>
      </trkpt>
      <trkpt lat="48.24309" lon="-3.66341">
        <ele>132.2</ele>
        <time>2021-08-10T14:03:00Z</time>
      </trkpt>
      <trkpt lat="48.24308" lon="-3.66347">
        <ele>132.6</ele>
        <time>2021-08-10T14:03:01Z</time>
      </trkpt>
      <trkpt lat="48.24306" lon="-3.66354">
        <ele>133.2</ele>
        <time>2021-08-10T14:03:02Z</time>
      </trkpt>
      <trkpt lat="48.24304" lon="-3.6636">
        <ele>133.6</ele>
        <time>2021-08-10T14:03:03Z</time>
      </trkpt>
      <trkpt lat="48.24303" lon="-3.66366">
        <ele>133.8</ele>
        <time>2021-08-10T14:03:04Z</time>
      </trkpt>
      <trkpt lat="48.24302" lon="-3.66372">
        <ele>133.8</ele>
        <time>2021-08-10T14:03:05Z</time>
      </trkpt>
      <trkpt lat="48.24301" lon="-3.66378">
        <ele>134</ele>
        <time>2021-08-10T14:03:06Z</time>
      </trkpt>
      <trkpt lat="48.24299" lon="-3.66384">
        <ele>134</ele>
        <time>2021-08-10T14:03:07Z</time>
      </trkpt>
      <trkpt lat="48.24298" lon="-3.66389">
        <ele>134.2</ele>
        <time>2021-08-10T14:03:08Z</time>
      </trkpt>
      <trkpt lat="48.24297" lon="-3.66395">
        <ele>134.2</ele>
        <time>2021-08-10T14:03:09Z</time>
      </trkpt>
      <trkpt lat="48.24295" lon="-3.66401">
        <ele>134.4</ele>
        <time>2021-08-10T14:03:10Z</time>
      </trkpt>
      <trkpt lat="48.24294" lon="-3.66407">
        <ele>134.6</ele>
        <time>2021-08-10T14:03:11Z</time>
      </trkpt>
      <trkpt lat="48.24292" lon="-3.66412">
        <ele>134.8</ele>
        <time>2021-08-10T14:03:12Z</time>
      </trkpt>
      <trkpt lat="48.24291" lon="-3.66418">
        <ele>134.8</ele>
        <time>2021-08-10T14:03:13Z</time>
      </trkpt>
      <trkpt lat="48.2429" lon="-3.66424">
        <ele>135.2</ele>
        <time>2021-08-10T14:03:14Z</time>
      </trkpt>
      <trkpt lat="48.24288" lon="-3.66429">
        <ele>135.2</ele>
        <time>2021-08-10T14:03:15Z</time>
      </trkpt>
      <trkpt lat="48.24287" lon="-3.66435">
        <ele>135.4</ele>
        <time>2021-08-10T14:03:16Z</time>
      </trkpt>
      <trkpt lat="48.24286" lon="-3.6644">
        <ele>135.6</ele>
        <time>2021-08-10T14:03:17Z</time>
      </trkpt>
      <trkpt lat="48.24284" lon="-3.66446">
        <ele>135.8</ele>
        <time>2021-08-10T14:03:18Z</time>
      </trkpt>
      <trkpt lat="48.24283" lon="-3.66452">
        <ele>136</ele>
        <time>2021-08-10T14:03:19Z</time>
      </trkpt>
      <trkpt lat="48.24281" lon="-3.66457">
        <ele>136</ele>
        <time>2021-08-10T14:03:20Z</time>
      </trkpt>
      <trkpt lat="48.2428" lon="-3.66463">
        <ele>136</ele>
        <time>2021-08-10T14:03:21Z</time>
      </trkpt>
      <trkpt lat="48.24278" lon="-3.66469">
        <ele>136.2</ele>
        <time>2021-08-10T14:03:22Z</time>
      </trkpt>
      <trkpt lat="48.24277" lon="-3.66474">
        <ele>136.2</ele>
        <time>2021-08-10T14:03:23Z</time>
      </trkpt>
      <trkpt lat="48.24275" lon="-3.6648">
        <ele>136.2</ele>
        <time>2021-08-10T14:03:24Z</time>
      </trkpt>
      <trkpt lat="48.24274" lon="-3.66485">
        <ele>136.8</ele>
        <time>2021-08-10T14:03:25Z</time>
      </trkpt>
      <trkpt lat="48.24272" lon="-3.66491">
        <ele>137</ele>
        <time>2021-08-10T14:03:26Z</time>
      </trkpt>
      <trkpt lat="48.2427" lon="-3.66496">
        <ele>137.2</ele>
        <time>2021-08-10T14:03:27Z</time>
      </trkpt>
      <trkpt lat="48.24268" lon="-3.66501">
        <ele>137.4</ele>
        <time>2021-08-10T14:03:28Z</time>
      </trkpt>
      <trkpt lat="48.24267" lon="-3.66507">
        <ele>137.4</ele>
        <time>2021-08-10T14:03:29Z</time>
      </trkpt>
      <trkpt lat="48.24265" lon="-3.66512">
        <ele>137.6</ele>
        <time>2021-08-10T14:03:30Z</time>
      </trkpt>
      <trkpt lat="48.24263" lon="-3.66518">
        <ele>137.8</ele>
        <time>2021-08-10T14:03:31Z</time>
      </trkpt>
      <trkpt lat="48.24262" lon="-3.66523">
        <ele>138.2</ele>
        <time>2021-08-10T14:03:32Z</time>
      </trkpt>
      <trkpt lat="48.2426" lon="-3.66528">
        <ele>138.6</ele>
        <time>2021-08-10T14:03:33Z</time>
      </trkpt>
      <trkpt lat="48.24258" lon="-3.66534">
        <ele>138.8</ele>
        <time>2021-08-10T14:03:34Z</time>
      </trkpt>
      <trkpt lat="48.24256" lon="-3.66539">
        <ele>139</ele>
        <time>2021-08-10T14:03:35Z</time>
      </trkpt>
      <trkpt lat="48.24254" lon="-3.66544">
        <ele>139.2</ele>
        <time>2021-08-10T14:03:36Z</time>
      </trkpt>
      <trkpt lat="48.24252" lon="-3.66549">
        <ele>139.4</ele>
        <time>2021-08-10T14:03:37Z</time>
      </trkpt>
      <trkpt lat="48.2425" lon="-3.66554">
        <ele>139.4</ele>
        <time>2021-08-10T14:03:38Z</time>
      </trkpt>
      <trkpt lat="48.24248" lon="-3.66559">
        <ele>139.4</ele>
        <time>2021-08-10T14:03:39Z</time>
      </trkpt>
      <trkpt lat="48.24246" lon="-3.66564">
        <ele>139.6</ele>
        <time>2021-08-10T14:03:40Z</time>
      </trkpt>
      <trkpt lat="48.24244" lon="-3.6657">
        <ele>139.6</ele>
        <time>2021-08-10T14:03:41Z</time>
      </trkpt>
      <trkpt lat="48.24242" lon="-3.66575">
        <ele>139.6</ele>
        <time>2021-08-10T14:03:42Z</time>
      </trkpt>
      <trkpt lat="48.2424" lon="-3.6658">
        <ele>139.8</ele>
        <time>2021-08-10T14:03:43Z</time>
      </trkpt>
      <trkpt lat="48.24238" lon="-3.66585">
        <ele>139.8</ele>
        <time>2021-08-10T14:03:44Z</time>
      </trkpt>
      <trkpt lat="48.24236" lon="-3.6659">
        <ele>140</ele>
        <time>2021-08-10T14:03:45Z</time>
      </trkpt>
      <trkpt lat="48.24234" lon="-3.66596">
        <ele>140</ele>
        <time>2021-08-10T14:03:46Z</time>
      </trkpt>
      <trkpt lat="48.24231" lon="-3.66601">
        <ele>140.2</ele>
        <time>2021-08-10T14:03:47Z</time>
      </trkpt>
      <trkpt lat="48.24229" lon="-3.66606">
        <ele>140.2</ele>
        <time>2021-08-10T14:03:48Z</time>
      </trkpt>
      <trkpt lat="48.24227" lon="-3.66611">
        <ele>140.4</ele>
        <time>2021-08-10T14:03:49Z</time>
      </trkpt>
      <trkpt lat="48.24225" lon="-3.66616">
        <ele>140.4</ele>
        <time>2021-08-10T14:03:50Z</time>
      </trkpt>
      <trkpt lat="48.24223" lon="-3.66622">
        <ele>140.6</ele>
        <time>2021-08-10T14:03:51Z</time>
      </trkpt>
      <trkpt lat="48.24221" lon="-3.66627">
        <ele>140.6</ele>
        <time>2021-08-10T14:03:52Z</time>
      </trkpt>
      <trkpt lat="48.24219" lon="-3.66632">
        <ele>140.6</ele>
        <time>2021-08-10T14:03:53Z</time>
      </trkpt>
      <trkpt lat="48.24216" lon="-3.66637">
        <ele>140.8</ele>
        <time>2021-08-10T14:03:54Z</time>
      </trkpt>
      <trkpt lat="48.24214" lon="-3.66642">
        <ele>141</ele>
        <time>2021-08-10T14:03:55Z</time>
      </trkpt>
      <trkpt lat="48.24212" lon="-3.66648">
        <ele>141</ele>
        <time>2021-08-10T14:03:56Z</time>
      </trkpt>
      <trkpt lat="48.2421" lon="-3.66653">
        <ele>141.4</ele>
        <time>2021-08-10T14:03:57Z</time>
      </trkpt>
      <trkpt lat="48.24207" lon="-3.66658">
        <ele>141.6</ele>
        <time>2021-08-10T14:03:58Z</time>
      </trkpt>
      <trkpt lat="48.24205" lon="-3.66663">
        <ele>141.8</ele>
        <time>2021-08-10T14:03:59Z</time>
      </trkpt>
      <trkpt lat="48.24203" lon="-3.66669">
        <ele>141.6</ele>
        <time>2021-08-10T14:04:00Z</time>
      </trkpt>
      <trkpt lat="48.24201" lon="-3.66674">
        <ele>141.8</ele>
        <time>2021-08-10T14:04:01Z</time>
      </trkpt>
      <trkpt lat="48.24199" lon="-3.6668">
        <ele>142</ele>
        <time>2021-08-10T14:04:02Z</time>
      </trkpt>
      <trkpt lat="48.24197" lon="-3.66685">
        <ele>142</ele>
        <time>2021-08-10T14:04:03Z</time>
      </trkpt>
      <trkpt lat="48.24194" lon="-3.66691">
        <ele>141.8</ele>
        <time>2021-08-10T14:04:04Z</time>
      </trkpt>
      <trkpt lat="48.24192" lon="-3.66697">
        <ele>142.2</ele>
        <time>2021-08-10T14:04:05Z</time>
      </trkpt>
      <trkpt lat="48.2419" lon="-3.66702">
        <ele>142.2</ele>
        <time>2021-08-10T14:04:06Z</time>
      </trkpt>
      <trkpt lat="48.24188" lon="-3.66708">
        <ele>142.4</ele>
        <time>2021-08-10T14:04:07Z</time>
      </trkpt>
      <trkpt lat="48.24185" lon="-3.66714">
        <ele>142.4</ele>
        <time>2021-08-10T14:04:08Z</time>
      </trkpt>
      <trkpt lat="48.24183" lon="-3.6672">
        <ele>142.6</ele>
        <time>2021-08-10T14:04:09Z</time>
      </trkpt>
      <trkpt lat="48.24181" lon="-3.66726">
        <ele>143</ele>
        <time>2021-08-10T14:04:10Z</time>
      </trkpt>
      <trkpt lat="48.24178" lon="-3.66731">
        <ele>142.8</ele>
        <time>2021-08-10T14:04:11Z</time>
      </trkpt>
      <trkpt lat="48.24176" lon="-3.66737">
        <ele>143</ele>
        <time>2021-08-10T14:04:12Z</time>
      </trkpt>
      <trkpt lat="48.24173" lon="-3.66743">
        <ele>143.2</ele>
        <time>2021-08-10T14:04:13Z</time>
      </trkpt>
      <trkpt lat="48.24171" lon="-3.66749">
        <ele>143.2</ele>
        <time>2021-08-10T14:04:14Z</time>
      </trkpt>
      <trkpt lat="48.24168" lon="-3.66755">
        <ele>143.2</ele>
        <time>2021-08-10T14:04:15Z</time>
      </trkpt>
      <trkpt lat="48.24166" lon="-3.66761">
        <ele>143.2</ele>
        <time>2021-08-10T14:04:16Z</time>
      </trkpt>
      <trkpt lat="48.24163" lon="-3.66767">
        <ele>143.2</ele>
        <time>2021-08-10T14:04:17Z</time>
      </trkpt>
      <trkpt lat="48.24161" lon="-3.66773">
        <ele>143.2</ele>
        <time>2021-08-10T14:04:18Z</time>
      </trkpt>
      <trkpt lat="48.24158" lon="-3.66779">
        <ele>143.2</ele>
        <time>2021-08-10T14:04:19Z</time>
      </trkpt>
      <trkpt lat="48.24155" lon="-3.66785">
        <ele>143.2</ele>
        <time>2021-08-10T14:04:20Z</time>
      </trkpt>
      <trkpt lat="48.24153" lon="-3.66791">
        <ele>143</ele>
        <time>2021-08-10T14:04:21Z</time>
      </trkpt>
      <trkpt lat="48.2415" lon="-3.66797">
        <ele>142.8</ele>
        <time>2021-08-10T14:04:22Z</time>
      </trkpt>
      <trkpt lat="48.24148" lon="-3.66803">
        <ele>142.8</ele>
        <time>2021-08-10T14:04:23Z</time>
      </trkpt>
      <trkpt lat="48.24145" lon="-3.6681">
        <ele>142.8</ele>
        <time>2021-08-10T14:04:24Z</time>
      </trkpt>
      <trkpt lat="48.24143" lon="-3.66816">
        <ele>142.6</ele>
        <time>2021-08-10T14:04:25Z</time>
      </trkpt>
      <trkpt lat="48.2414" lon="-3.66823">
        <ele>142.6</ele>
        <time>2021-08-10T14:04:26Z</time>
      </trkpt>
      <trkpt lat="48.24137" lon="-3.66829">
        <ele>142.6</ele>
        <time>2021-08-10T14:04:27Z</time>
      </trkpt>
      <trkpt lat="48.24134" lon="-3.66836">
        <ele>142.8</ele>
        <time>2021-08-10T14:04:28Z</time>
      </trkpt>
      <trkpt lat="48.24131" lon="-3.66843">
        <ele>142.6</ele>
        <time>2021-08-10T14:04:29Z</time>
      </trkpt>
      <trkpt lat="48.24128" lon="-3.6685">
        <ele>142.6</ele>
        <time>2021-08-10T14:04:30Z</time>
      </trkpt>
      <trkpt lat="48.24125" lon="-3.66857">
        <ele>142.6</ele>
        <time>2021-08-10T14:04:31Z</time>
      </trkpt>
      <trkpt lat="48.24122" lon="-3.66864">
        <ele>142.6</ele>
        <time>2021-08-10T14:04:32Z</time>
      </trkpt>
      <trkpt lat="48.2412" lon="-3.66871">
        <ele>142.6</ele>
        <time>2021-08-10T14:04:33Z</time>
      </trkpt>
      <trkpt lat="48.24117" lon="-3.66879">
        <ele>142.6</ele>
        <time>2021-08-10T14:04:34Z</time>
      </trkpt>
      <trkpt lat="48.24114" lon="-3.66886">
        <ele>142.6</ele>
        <time>2021-08-10T14:04:35Z</time>
      </trkpt>
      <trkpt lat="48.24111" lon="-3.66893">
        <ele>142.6</ele>
        <time>2021-08-10T14:04:36Z</time>
      </trkpt>
      <trkpt lat="48.24108" lon="-3.66901">
        <ele>142.4</ele>
        <time>2021-08-10T14:04:37Z</time>
      </trkpt>
      <trkpt lat="48.24105" lon="-3.66908">
        <ele>142.4</ele>
        <time>2021-08-10T14:04:38Z</time>
      </trkpt>
      <trkpt lat="48.24102" lon="-3.66915">
        <ele>142.2</ele>
        <time>2021-08-10T14:04:39Z</time>
      </trkpt>
      <trkpt lat="48.24098" lon="-3.66923">
        <ele>142.2</ele>
        <time>2021-08-10T14:04:40Z</time>
      </trkpt>
      <trkpt lat="48.24095" lon="-3.6693">
        <ele>142.2</ele>
        <time>2021-08-10T14:04:41Z</time>
      </trkpt>
      <trkpt lat="48.24092" lon="-3.66937">
        <ele>142</ele>
        <time>2021-08-10T14:04:42Z</time>
      </trkpt>
      <trkpt lat="48.24088" lon="-3.66945">
        <ele>142</ele>
        <time>2021-08-10T14:04:43Z</time>
      </trkpt>
      <trkpt lat="48.24085" lon="-3.66952">
        <ele>141.8</ele>
        <time>2021-08-10T14:04:44Z</time>
      </trkpt>
      <trkpt lat="48.24081" lon="-3.66959">
        <ele>141.8</ele>
        <time>2021-08-10T14:04:45Z</time>
      </trkpt>
      <trkpt lat="48.24078" lon="-3.66966">
        <ele>141.8</ele>
        <time>2021-08-10T14:04:46Z</time>
      </trkpt>
      <trkpt lat="48.24074" lon="-3.66973">
        <ele>141.6</ele>
        <time>2021-08-10T14:04:47Z</time>
      </trkpt>
      <trkpt lat="48.2407" lon="-3.66979">
        <ele>141.4</ele>
        <time>2021-08-10T14:04:48Z</time>
      </trkpt>
      <trkpt lat="48.24066" lon="-3.66986">
        <ele>141.2</ele>
        <time>2021-08-10T14:04:49Z</time>
      </trkpt>
      <trkpt lat="48.24062" lon="-3.66993">
        <ele>141</ele>
        <time>2021-08-10T14:04:50Z</time>
      </trkpt>
      <trkpt lat="48.24058" lon="-3.66999">
        <ele>141</ele>
        <time>2021-08-10T14:04:51Z</time>
      </trkpt>
      <trkpt lat="48.24053" lon="-3.67006">
        <ele>141</ele>
        <time>2021-08-10T14:04:52Z</time>
      </trkpt>
      <trkpt lat="48.24049" lon="-3.67012">
        <ele>141</ele>
        <time>2021-08-10T14:04:53Z</time>
      </trkpt>
      <trkpt lat="48.24045" lon="-3.67018">
        <ele>141</ele>
        <time>2021-08-10T14:04:54Z</time>
      </trkpt>
      <trkpt lat="48.2404" lon="-3.67024">
        <ele>140.8</ele>
        <time>2021-08-10T14:04:55Z</time>
      </trkpt>
      <trkpt lat="48.24036" lon="-3.67031">
        <ele>140.8</ele>
        <time>2021-08-10T14:04:56Z</time>
      </trkpt>
      <trkpt lat="48.24031" lon="-3.67037">
        <ele>140.8</ele>
        <time>2021-08-10T14:04:57Z</time>
      </trkpt>
      <trkpt lat="48.24027" lon="-3.67043">
        <ele>140.6</ele>
        <time>2021-08-10T14:04:58Z</time>
      </trkpt>
      <trkpt lat="48.24022" lon="-3.6705">
        <ele>140.6</ele>
        <time>2021-08-10T14:04:59Z</time>
      </trkpt>
      <trkpt lat="48.24018" lon="-3.67056">
        <ele>140.6</ele>
        <time>2021-08-10T14:05:00Z</time>
      </trkpt>
      <trkpt lat="48.24014" lon="-3.67063">
        <ele>140.4</ele>
        <time>2021-08-10T14:05:01Z</time>
      </trkpt>
      <trkpt lat="48.24009" lon="-3.67069">
        <ele>140.2</ele>
        <time>2021-08-10T14:05:02Z</time>
      </trkpt>
      <trkpt lat="48.24005" lon="-3.67075">
        <ele>140.2</ele>
        <time>2021-08-10T14:05:03Z</time>
      </trkpt>
      <trkpt lat="48.24001" lon="-3.67082">
        <ele>140.2</ele>
        <time>2021-08-10T14:05:04Z</time>
      </trkpt>
      <trkpt lat="48.23996" lon="-3.67088">
        <ele>140.2</ele>
        <time>2021-08-10T14:05:05Z</time>
      </trkpt>
      <trkpt lat="48.23991" lon="-3.67094">
        <ele>140</ele>
        <time>2021-08-10T14:05:06Z</time>
      </trkpt>
      <trkpt lat="48.23987" lon="-3.671">
        <ele>140</ele>
        <time>2021-08-10T14:05:07Z</time>
      </trkpt>
      <trkpt lat="48.23982" lon="-3.67106">
        <ele>140</ele>
        <time>2021-08-10T14:05:08Z</time>
      </trkpt>
      <trkpt lat="48.23978" lon="-3.67113">
        <ele>140</ele>
        <time>2021-08-10T14:05:09Z</time>
      </trkpt>
      <trkpt lat="48.23974" lon="-3.67119">
        <ele>140</ele>
        <time>2021-08-10T14:05:10Z</time>
      </trkpt>
      <trkpt lat="48.23969" lon="-3.67124">
        <ele>139.8</ele>
        <time>2021-08-10T14:05:11Z</time>
      </trkpt>
      <trkpt lat="48.23965" lon="-3.67131">
        <ele>139.8</ele>
        <time>2021-08-10T14:05:12Z</time>
      </trkpt>
      <trkpt lat="48.23961" lon="-3.67137">
        <ele>139.8</ele>
        <time>2021-08-10T14:05:13Z</time>
      </trkpt>
      <trkpt lat="48.23957" lon="-3.67143">
        <ele>139.8</ele>
        <time>2021-08-10T14:05:14Z</time>
      </trkpt>
      <trkpt lat="48.23953" lon="-3.67149">
        <ele>139.6</ele>
        <time>2021-08-10T14:05:15Z</time>
      </trkpt>
      <trkpt lat="48.23949" lon="-3.67156">
        <ele>139.6</ele>
        <time>2021-08-10T14:05:16Z</time>
      </trkpt>
      <trkpt lat="48.23945" lon="-3.67162">
        <ele>139.4</ele>
        <time>2021-08-10T14:05:17Z</time>
      </trkpt>
      <trkpt lat="48.23941" lon="-3.67167">
        <ele>139.4</ele>
        <time>2021-08-10T14:05:18Z</time>
      </trkpt>
      <trkpt lat="48.23937" lon="-3.67174">
        <ele>139.2</ele>
        <time>2021-08-10T14:05:19Z</time>
      </trkpt>
      <trkpt lat="48.23934" lon="-3.6718">
        <ele>139.2</ele>
        <time>2021-08-10T14:05:20Z</time>
      </trkpt>
      <trkpt lat="48.2393" lon="-3.67185">
        <ele>139.2</ele>
        <time>2021-08-10T14:05:21Z</time>
      </trkpt>
      <trkpt lat="48.23925" lon="-3.67188">
        <ele>139.2</ele>
        <time>2021-08-10T14:05:22Z</time>
      </trkpt>
      <trkpt lat="48.23921" lon="-3.67186">
        <ele>139.2</ele>
        <time>2021-08-10T14:05:23Z</time>
      </trkpt>
      <trkpt lat="48.23918" lon="-3.67181">
        <ele>139.2</ele>
        <time>2021-08-10T14:05:24Z</time>
      </trkpt>
      <trkpt lat="48.23915" lon="-3.67175">
        <ele>139.2</ele>
        <time>2021-08-10T14:05:25Z</time>
      </trkpt>
      <trkpt lat="48.23911" lon="-3.67169">
        <ele>139.2</ele>
        <time>2021-08-10T14:05:26Z</time>
      </trkpt>
      <trkpt lat="48.23908" lon="-3.67164">
        <ele>139.2</ele>
        <time>2021-08-10T14:05:27Z</time>
      </trkpt>
      <trkpt lat="48.23903" lon="-3.67159">
        <ele>139.2</ele>
        <time>2021-08-10T14:05:28Z</time>
      </trkpt>
      <trkpt lat="48.23899" lon="-3.67154">
        <ele>139.2</ele>
        <time>2021-08-10T14:05:29Z</time>
      </trkpt>
      <trkpt lat="48.23894" lon="-3.6715">
        <ele>139.4</ele>
        <time>2021-08-10T14:05:30Z</time>
      </trkpt>
      <trkpt lat="48.2389" lon="-3.67146">
        <ele>139.4</ele>
        <time>2021-08-10T14:05:31Z</time>
      </trkpt>
      <trkpt lat="48.23885" lon="-3.67142">
        <ele>139.6</ele>
        <time>2021-08-10T14:05:32Z</time>
      </trkpt>
      <trkpt lat="48.23881" lon="-3.67137">
        <ele>139.8</ele>
        <time>2021-08-10T14:05:33Z</time>
      </trkpt>
      <trkpt lat="48.23876" lon="-3.67133">
        <ele>140</ele>
        <time>2021-08-10T14:05:34Z</time>
      </trkpt>
      <trkpt lat="48.23871" lon="-3.67128">
        <ele>140</ele>
        <time>2021-08-10T14:05:35Z</time>
      </trkpt>
      <trkpt lat="48.23867" lon="-3.67124">
        <ele>140.2</ele>
        <time>2021-08-10T14:05:36Z</time>
      </trkpt>
      <trkpt lat="48.23862" lon="-3.6712">
        <ele>140.2</ele>
        <time>2021-08-10T14:05:37Z</time>
      </trkpt>
      <trkpt lat="48.23858" lon="-3.67115">
        <ele>140.2</ele>
        <time>2021-08-10T14:05:38Z</time>
      </trkpt>
      <trkpt lat="48.23853" lon="-3.67111">
        <ele>140.4</ele>
        <time>2021-08-10T14:05:39Z</time>
      </trkpt>
      <trkpt lat="48.23849" lon="-3.67106">
        <ele>140.4</ele>
        <time>2021-08-10T14:05:40Z</time>
      </trkpt>
      <trkpt lat="48.23844" lon="-3.67102">
        <ele>140.4</ele>
        <time>2021-08-10T14:05:41Z</time>
      </trkpt>
      <trkpt lat="48.2384" lon="-3.67098">
        <ele>140.6</ele>
        <time>2021-08-10T14:05:42Z</time>
      </trkpt>
      <trkpt lat="48.23835" lon="-3.67094">
        <ele>140.6</ele>
        <time>2021-08-10T14:05:43Z</time>
      </trkpt>
      <trkpt lat="48.2383" lon="-3.67091">
        <ele>140.6</ele>
        <time>2021-08-10T14:05:44Z</time>
      </trkpt>
      <trkpt lat="48.23825" lon="-3.67088">
        <ele>140.6</ele>
        <time>2021-08-10T14:05:45Z</time>
      </trkpt>
      <trkpt lat="48.2382" lon="-3.67085">
        <ele>140.8</ele>
        <time>2021-08-10T14:05:46Z</time>
      </trkpt>
      <trkpt lat="48.23815" lon="-3.67082">
        <ele>140.8</ele>
        <time>2021-08-10T14:05:47Z</time>
      </trkpt>
      <trkpt lat="48.23811" lon="-3.67079">
        <ele>140.8</ele>
        <time>2021-08-10T14:05:48Z</time>
      </trkpt>
      <trkpt lat="48.23806" lon="-3.67076">
        <ele>141</ele>
        <time>2021-08-10T14:05:49Z</time>
      </trkpt>
      <trkpt lat="48.23801" lon="-3.67073">
        <ele>141</ele>
        <time>2021-08-10T14:05:50Z</time>
      </trkpt>
      <trkpt lat="48.23797" lon="-3.67071">
        <ele>141.2</ele>
        <time>2021-08-10T14:05:51Z</time>
      </trkpt>
      <trkpt lat="48.23793" lon="-3.67068">
        <ele>141.2</ele>
        <time>2021-08-10T14:05:52Z</time>
      </trkpt>
      <trkpt lat="48.23788" lon="-3.67066">
        <ele>141.4</ele>
        <time>2021-08-10T14:05:53Z</time>
      </trkpt>
      <trkpt lat="48.23784" lon="-3.67064">
        <ele>141.4</ele>
        <time>2021-08-10T14:05:54Z</time>
      </trkpt>
      <trkpt lat="48.2378" lon="-3.67062">
        <ele>141.6</ele>
        <time>2021-08-10T14:05:55Z</time>
      </trkpt>
      <trkpt lat="48.23777" lon="-3.6706">
        <ele>141.6</ele>
        <time>2021-08-10T14:05:56Z</time>
      </trkpt>
      <trkpt lat="48.23773" lon="-3.67058">
        <ele>141.6</ele>
        <time>2021-08-10T14:05:57Z</time>
      </trkpt>
      <trkpt lat="48.2377" lon="-3.67056">
        <ele>141.8</ele>
        <time>2021-08-10T14:05:58Z</time>
      </trkpt>
      <trkpt lat="48.23767" lon="-3.67054">
        <ele>142</ele>
        <time>2021-08-10T14:05:59Z</time>
      </trkpt>
      <trkpt lat="48.23763" lon="-3.67053">
        <ele>142</ele>
        <time>2021-08-10T14:06:00Z</time>
      </trkpt>
      <trkpt lat="48.2376" lon="-3.67053">
        <ele>142.2</ele>
        <time>2021-08-10T14:06:01Z</time>
      </trkpt>
      <trkpt lat="48.23757" lon="-3.67052">
        <ele>142.4</ele>
        <time>2021-08-10T14:06:02Z</time>
      </trkpt>
      <trkpt lat="48.23753" lon="-3.67052">
        <ele>142.6</ele>
        <time>2021-08-10T14:06:03Z</time>
      </trkpt>
      <trkpt lat="48.2375" lon="-3.67052">
        <ele>142.8</ele>
        <time>2021-08-10T14:06:04Z</time>
      </trkpt>
      <trkpt lat="48.23747" lon="-3.67051">
        <ele>143.2</ele>
        <time>2021-08-10T14:06:05Z</time>
      </trkpt>
      <trkpt lat="48.23743" lon="-3.67051">
        <ele>143.4</ele>
        <time>2021-08-10T14:06:06Z</time>
      </trkpt>
      <trkpt lat="48.2374" lon="-3.67051">
        <ele>143.6</ele>
        <time>2021-08-10T14:06:07Z</time>
      </trkpt>
      <trkpt lat="48.23736" lon="-3.67051">
        <ele>143.8</ele>
        <time>2021-08-10T14:06:08Z</time>
      </trkpt>
      <trkpt lat="48.23733" lon="-3.6705">
        <ele>144</ele>
        <time>2021-08-10T14:06:09Z</time>
      </trkpt>
      <trkpt lat="48.23729" lon="-3.6705">
        <ele>144.4</ele>
        <time>2021-08-10T14:06:10Z</time>
      </trkpt>
      <trkpt lat="48.23726" lon="-3.67049">
        <ele>144.6</ele>
        <time>2021-08-10T14:06:11Z</time>
      </trkpt>
      <trkpt lat="48.23722" lon="-3.67048">
        <ele>144.6</ele>
        <time>2021-08-10T14:06:12Z</time>
      </trkpt>
      <trkpt lat="48.23719" lon="-3.67047">
        <ele>144.8</ele>
        <time>2021-08-10T14:06:13Z</time>
      </trkpt>
      <trkpt lat="48.23715" lon="-3.67047">
        <ele>145.2</ele>
        <time>2021-08-10T14:06:14Z</time>
      </trkpt>
      <trkpt lat="48.23711" lon="-3.67046">
        <ele>145.4</ele>
        <time>2021-08-10T14:06:15Z</time>
      </trkpt>
      <trkpt lat="48.23708" lon="-3.67045">
        <ele>145.4</ele>
        <time>2021-08-10T14:06:16Z</time>
      </trkpt>
      <trkpt lat="48.23704" lon="-3.67044">
        <ele>145.6</ele>
        <time>2021-08-10T14:06:17Z</time>
      </trkpt>
      <trkpt lat="48.23701" lon="-3.67043">
        <ele>145.8</ele>
        <time>2021-08-10T14:06:18Z</time>
      </trkpt>
      <trkpt lat="48.23697" lon="-3.67042">
        <ele>145.8</ele>
        <time>2021-08-10T14:06:19Z</time>
      </trkpt>
      <trkpt lat="48.23694" lon="-3.67041">
        <ele>146</ele>
        <time>2021-08-10T14:06:20Z</time>
      </trkpt>
      <trkpt lat="48.2369" lon="-3.6704">
        <ele>146.4</ele>
        <time>2021-08-10T14:06:21Z</time>
      </trkpt>
      <trkpt lat="48.23686" lon="-3.67038">
        <ele>146.6</ele>
        <time>2021-08-10T14:06:22Z</time>
      </trkpt>
      <trkpt lat="48.23683" lon="-3.67037">
        <ele>146.8</ele>
        <time>2021-08-10T14:06:23Z</time>
      </trkpt>
      <trkpt lat="48.23679" lon="-3.67036">
        <ele>147</ele>
        <time>2021-08-10T14:06:24Z</time>
      </trkpt>
      <trkpt lat="48.23675" lon="-3.67034">
        <ele>147.2</ele>
        <time>2021-08-10T14:06:25Z</time>
      </trkpt>
      <trkpt lat="48.23671" lon="-3.67032">
        <ele>147.2</ele>
        <time>2021-08-10T14:06:26Z</time>
      </trkpt>
      <trkpt lat="48.23667" lon="-3.6703">
        <ele>147.2</ele>
        <time>2021-08-10T14:06:27Z</time>
      </trkpt>
      <trkpt lat="48.23662" lon="-3.67028">
        <ele>147.2</ele>
        <time>2021-08-10T14:06:28Z</time>
      </trkpt>
      <trkpt lat="48.23657" lon="-3.67027">
        <ele>147.2</ele>
        <time>2021-08-10T14:06:29Z</time>
      </trkpt>
      <trkpt lat="48.23653" lon="-3.67025">
        <ele>147.2</ele>
        <time>2021-08-10T14:06:30Z</time>
      </trkpt>
      <trkpt lat="48.23648" lon="-3.67023">
        <ele>147.2</ele>
        <time>2021-08-10T14:06:31Z</time>
      </trkpt>
      <trkpt lat="48.23643" lon="-3.67021">
        <ele>147.2</ele>
        <time>2021-08-10T14:06:32Z</time>
      </trkpt>
      <trkpt lat="48.23638" lon="-3.67018">
        <ele>147.2</ele>
        <time>2021-08-10T14:06:33Z</time>
      </trkpt>
      <trkpt lat="48.23633" lon="-3.67016">
        <ele>147.2</ele>
        <time>2021-08-10T14:06:34Z</time>
      </trkpt>
      <trkpt lat="48.23629" lon="-3.67013">
        <ele>147.2</ele>
        <time>2021-08-10T14:06:35Z</time>
      </trkpt>
      <trkpt lat="48.23624" lon="-3.67011">
        <ele>147.2</ele>
        <time>2021-08-10T14:06:36Z</time>
      </trkpt>
      <trkpt lat="48.23619" lon="-3.6701">
        <ele>147</ele>
        <time>2021-08-10T14:06:37Z</time>
      </trkpt>
      <trkpt lat="48.23614" lon="-3.67008">
        <ele>146.8</ele>
        <time>2021-08-10T14:06:38Z</time>
      </trkpt>
      <trkpt lat="48.23609" lon="-3.67005">
        <ele>146.8</ele>
        <time>2021-08-10T14:06:39Z</time>
      </trkpt>
      <trkpt lat="48.23605" lon="-3.67002">
        <ele>146.6</ele>
        <time>2021-08-10T14:06:40Z</time>
      </trkpt>
      <trkpt lat="48.236" lon="-3.67001">
        <ele>146.6</ele>
        <time>2021-08-10T14:06:41Z</time>
      </trkpt>
      <trkpt lat="48.23594" lon="-3.66999">
        <ele>146.4</ele>
        <time>2021-08-10T14:06:42Z</time>
      </trkpt>
      <trkpt lat="48.23589" lon="-3.66998">
        <ele>146.4</ele>
        <time>2021-08-10T14:06:43Z</time>
      </trkpt>
      <trkpt lat="48.23584" lon="-3.66995">
        <ele>146.4</ele>
        <time>2021-08-10T14:06:44Z</time>
      </trkpt>
      <trkpt lat="48.2358" lon="-3.66993">
        <ele>146.4</ele>
        <time>2021-08-10T14:06:45Z</time>
      </trkpt>
      <trkpt lat="48.23576" lon="-3.66991">
        <ele>146.4</ele>
        <time>2021-08-10T14:06:46Z</time>
      </trkpt>
      <trkpt lat="48.23572" lon="-3.66989">
        <ele>146.2</ele>
        <time>2021-08-10T14:06:47Z</time>
      </trkpt>
      <trkpt lat="48.23569" lon="-3.66986">
        <ele>146.2</ele>
        <time>2021-08-10T14:06:48Z</time>
      </trkpt>
      <trkpt lat="48.23567" lon="-3.66983">
        <ele>146.2</ele>
        <time>2021-08-10T14:06:49Z</time>
      </trkpt>
      <trkpt lat="48.23566" lon="-3.6698">
        <ele>146.2</ele>
        <time>2021-08-10T14:06:50Z</time>
      </trkpt>
      <trkpt lat="48.23566" lon="-3.66977">
        <ele>146.2</ele>
        <time>2021-08-10T14:06:51Z</time>
      </trkpt>
      <trkpt lat="48.23566" lon="-3.66974">
        <ele>146.2</ele>
        <time>2021-08-10T14:06:52Z</time>
      </trkpt>
      <trkpt lat="48.23566" lon="-3.66972">
        <ele>146.2</ele>
        <time>2021-08-10T14:06:53Z</time>
      </trkpt>
      <trkpt lat="48.23566" lon="-3.66971">
        <ele>146.2</ele>
        <time>2021-08-10T14:06:56Z</time>
      </trkpt>
      <trkpt lat="48.23566" lon="-3.66971">
        <ele>146.2</ele>
        <time>2021-08-10T14:06:57Z</time>
      </trkpt>
      <trkpt lat="48.23566" lon="-3.66971">
        <ele>146.2</ele>
        <time>2021-08-10T14:06:58Z</time>
      </trkpt>
      <trkpt lat="48.23569" lon="-3.6696">
        <ele>147.2</ele>
        <time>2021-08-10T14:10:18Z</time>
      </trkpt>
      <trkpt lat="48.2357" lon="-3.66957">
        <ele>147.2</ele>
        <time>2021-08-10T14:10:19Z</time>
      </trkpt>
      <trkpt lat="48.23571" lon="-3.66955">
        <ele>147.2</ele>
        <time>2021-08-10T14:10:20Z</time>
      </trkpt>
      <trkpt lat="48.23572" lon="-3.66953">
        <ele>147.2</ele>
        <time>2021-08-10T14:10:21Z</time>
      </trkpt>
      <trkpt lat="48.23573" lon="-3.6695">
        <ele>147.4</ele>
        <time>2021-08-10T14:10:22Z</time>
      </trkpt>
      <trkpt lat="48.23573" lon="-3.66947">
        <ele>147.4</ele>
        <time>2021-08-10T14:10:23Z</time>
      </trkpt>
      <trkpt lat="48.23573" lon="-3.66945">
        <ele>147.4</ele>
        <time>2021-08-10T14:10:24Z</time>
      </trkpt>
      <trkpt lat="48.23574" lon="-3.66943">
        <ele>147.4</ele>
        <time>2021-08-10T14:10:25Z</time>
      </trkpt>
      <trkpt lat="48.23575" lon="-3.6694">
        <ele>147.4</ele>
        <time>2021-08-10T14:10:26Z</time>
      </trkpt>
      <trkpt lat="48.23575" lon="-3.66937">
        <ele>147.4</ele>
        <time>2021-08-10T14:10:27Z</time>
      </trkpt>
      <trkpt lat="48.23575" lon="-3.66934">
        <ele>147.4</ele>
        <time>2021-08-10T14:10:28Z</time>
      </trkpt>
      <trkpt lat="48.23574" lon="-3.6693">
        <ele>147.4</ele>
        <time>2021-08-10T14:10:29Z</time>
      </trkpt>
      <trkpt lat="48.23573" lon="-3.66927">
        <ele>147.4</ele>
        <time>2021-08-10T14:10:30Z</time>
      </trkpt>
      <trkpt lat="48.23572" lon="-3.66924">
        <ele>147.4</ele>
        <time>2021-08-10T14:10:31Z</time>
      </trkpt>
      <trkpt lat="48.23571" lon="-3.6692">
        <ele>147.4</ele>
        <time>2021-08-10T14:10:32Z</time>
      </trkpt>
      <trkpt lat="48.23569" lon="-3.66917">
        <ele>147.4</ele>
        <time>2021-08-10T14:10:33Z</time>
      </trkpt>
      <trkpt lat="48.23566" lon="-3.66914">
        <ele>147.4</ele>
        <time>2021-08-10T14:10:34Z</time>
      </trkpt>
      <trkpt lat="48.23563" lon="-3.66912">
        <ele>147.4</ele>
        <time>2021-08-10T14:10:35Z</time>
      </trkpt>
      <trkpt lat="48.23559" lon="-3.6691">
        <ele>147.4</ele>
        <time>2021-08-10T14:10:36Z</time>
      </trkpt>
      <trkpt lat="48.23556" lon="-3.66907">
        <ele>147.4</ele>
        <time>2021-08-10T14:10:37Z</time>
      </trkpt>
      <trkpt lat="48.23554" lon="-3.66903">
        <ele>147.2</ele>
        <time>2021-08-10T14:10:38Z</time>
      </trkpt>
      <trkpt lat="48.23551" lon="-3.669">
        <ele>147</ele>
        <time>2021-08-10T14:10:39Z</time>
      </trkpt>
      <trkpt lat="48.23548" lon="-3.66896">
        <ele>147</ele>
        <time>2021-08-10T14:10:40Z</time>
      </trkpt>
      <trkpt lat="48.23545" lon="-3.66894">
        <ele>146.8</ele>
        <time>2021-08-10T14:10:41Z</time>
      </trkpt>
      <trkpt lat="48.23542" lon="-3.66891">
        <ele>146.6</ele>
        <time>2021-08-10T14:10:42Z</time>
      </trkpt>
      <trkpt lat="48.23539" lon="-3.66888">
        <ele>146.2</ele>
        <time>2021-08-10T14:10:43Z</time>
      </trkpt>
      <trkpt lat="48.23537" lon="-3.66885">
        <ele>146</ele>
        <time>2021-08-10T14:10:44Z</time>
      </trkpt>
      <trkpt lat="48.23534" lon="-3.66883">
        <ele>145.8</ele>
        <time>2021-08-10T14:10:45Z</time>
      </trkpt>
      <trkpt lat="48.23532" lon="-3.66881">
        <ele>145.6</ele>
        <time>2021-08-10T14:10:46Z</time>
      </trkpt>
      <trkpt lat="48.2353" lon="-3.66878">
        <ele>145.4</ele>
        <time>2021-08-10T14:10:47Z</time>
      </trkpt>
      <trkpt lat="48.23528" lon="-3.66876">
        <ele>145.2</ele>
        <time>2021-08-10T14:10:48Z</time>
      </trkpt>
      <trkpt lat="48.23526" lon="-3.66874">
        <ele>144.8</ele>
        <time>2021-08-10T14:10:49Z</time>
      </trkpt>
      <trkpt lat="48.23525" lon="-3.66871">
        <ele>144.6</ele>
        <time>2021-08-10T14:10:50Z</time>
      </trkpt>
      <trkpt lat="48.23524" lon="-3.6687">
        <ele>144.4</ele>
        <time>2021-08-10T14:10:51Z</time>
      </trkpt>
      <trkpt lat="48.23522" lon="-3.66869">
        <ele>144</ele>
        <time>2021-08-10T14:10:52Z</time>
      </trkpt>
      <trkpt lat="48.23521" lon="-3.66869">
        <ele>143.8</ele>
        <time>2021-08-10T14:10:53Z</time>
      </trkpt>
      <trkpt lat="48.23519" lon="-3.6687">
        <ele>143.4</ele>
        <time>2021-08-10T14:10:54Z</time>
      </trkpt>
      <trkpt lat="48.23518" lon="-3.66872">
        <ele>142.8</ele>
        <time>2021-08-10T14:10:55Z</time>
      </trkpt>
      <trkpt lat="48.23517" lon="-3.66874">
        <ele>142.4</ele>
        <time>2021-08-10T14:10:56Z</time>
      </trkpt>
      <trkpt lat="48.23517" lon="-3.66876">
        <ele>142.4</ele>
        <time>2021-08-10T14:10:57Z</time>
      </trkpt>
      <trkpt lat="48.23518" lon="-3.66876">
        <ele>142.2</ele>
        <time>2021-08-10T14:10:58Z</time>
      </trkpt>
      <trkpt lat="48.23518" lon="-3.66877">
        <ele>142.2</ele>
        <time>2021-08-10T14:10:59Z</time>
      </trkpt>
      <trkpt lat="48.2352" lon="-3.66878">
        <ele>142</ele>
        <time>2021-08-10T14:11:01Z</time>
      </trkpt>
      <trkpt lat="48.23521" lon="-3.6688">
        <ele>141.8</ele>
        <time>2021-08-10T14:11:02Z</time>
      </trkpt>
      <trkpt lat="48.23522" lon="-3.66881">
        <ele>141.8</ele>
        <time>2021-08-10T14:11:03Z</time>
      </trkpt>
      <trkpt lat="48.23523" lon="-3.66881">
        <ele>141.8</ele>
        <time>2021-08-10T14:11:04Z</time>
      </trkpt>
      <trkpt lat="48.23524" lon="-3.66881">
        <ele>141.8</ele>
        <time>2021-08-10T14:11:05Z</time>
      </trkpt>
      <trkpt lat="48.23525" lon="-3.66882">
        <ele>141.8</ele>
        <time>2021-08-10T14:11:06Z</time>
      </trkpt>
      <trkpt lat="48.23526" lon="-3.66883">
        <ele>141.8</ele>
        <time>2021-08-10T14:11:07Z</time>
      </trkpt>
      <trkpt lat="48.23526" lon="-3.66884">
        <ele>141.8</ele>
        <time>2021-08-10T14:11:08Z</time>
      </trkpt>
      <trkpt lat="48.23527" lon="-3.66885">
        <ele>141.8</ele>
        <time>2021-08-10T14:11:09Z</time>
      </trkpt>
      <trkpt lat="48.23527" lon="-3.66885">
        <ele>141.8</ele>
        <time>2021-08-10T14:11:10Z</time>
      </trkpt>
      <trkpt lat="48.23532" lon="-3.66881">
        <ele>142.6</ele>
        <time>2021-08-10T14:11:47Z</time>
      </trkpt>
      <trkpt lat="48.23533" lon="-3.6688">
        <ele>142.6</ele>
        <time>2021-08-10T14:11:48Z</time>
      </trkpt>
      <trkpt lat="48.23534" lon="-3.66879">
        <ele>142.6</ele>
        <time>2021-08-10T14:11:49Z</time>
      </trkpt>
      <trkpt lat="48.23536" lon="-3.66878">
        <ele>142.6</ele>
        <time>2021-08-10T14:11:50Z</time>
      </trkpt>
      <trkpt lat="48.23538" lon="-3.66877">
        <ele>142.8</ele>
        <time>2021-08-10T14:11:52Z</time>
      </trkpt>
      <trkpt lat="48.23539" lon="-3.66877">
        <ele>142.8</ele>
        <time>2021-08-10T14:11:53Z</time>
      </trkpt>
      <trkpt lat="48.2354" lon="-3.66875">
        <ele>143</ele>
        <time>2021-08-10T14:11:54Z</time>
      </trkpt>
      <trkpt lat="48.23542" lon="-3.66874">
        <ele>143</ele>
        <time>2021-08-10T14:11:55Z</time>
      </trkpt>
      <trkpt lat="48.23543" lon="-3.66873">
        <ele>143.2</ele>
        <time>2021-08-10T14:11:56Z</time>
      </trkpt>
      <trkpt lat="48.23545" lon="-3.66871">
        <ele>143.2</ele>
        <time>2021-08-10T14:11:57Z</time>
      </trkpt>
      <trkpt lat="48.23546" lon="-3.66869">
        <ele>143.2</ele>
        <time>2021-08-10T14:11:58Z</time>
      </trkpt>
      <trkpt lat="48.23547" lon="-3.66867">
        <ele>143.4</ele>
        <time>2021-08-10T14:11:59Z</time>
      </trkpt>
      <trkpt lat="48.23548" lon="-3.66865">
        <ele>143.4</ele>
        <time>2021-08-10T14:12:00Z</time>
      </trkpt>
      <trkpt lat="48.23549" lon="-3.66863">
        <ele>143.6</ele>
        <time>2021-08-10T14:12:01Z</time>
      </trkpt>
      <trkpt lat="48.23551" lon="-3.66861">
        <ele>143.6</ele>
        <time>2021-08-10T14:12:02Z</time>
      </trkpt>
      <trkpt lat="48.23553" lon="-3.66859">
        <ele>143.8</ele>
        <time>2021-08-10T14:12:03Z</time>
      </trkpt>
      <trkpt lat="48.23555" lon="-3.66857">
        <ele>143.8</ele>
        <time>2021-08-10T14:12:04Z</time>
      </trkpt>
      <trkpt lat="48.23557" lon="-3.66856">
        <ele>143.8</ele>
        <time>2021-08-10T14:12:05Z</time>
      </trkpt>
      <trkpt lat="48.23558" lon="-3.66854">
        <ele>144</ele>
        <time>2021-08-10T14:12:06Z</time>
      </trkpt>
      <trkpt lat="48.2356" lon="-3.66852">
        <ele>144</ele>
        <time>2021-08-10T14:12:07Z</time>
      </trkpt>
      <trkpt lat="48.23562" lon="-3.66849">
        <ele>144</ele>
        <time>2021-08-10T14:12:08Z</time>
      </trkpt>
      <trkpt lat="48.23564" lon="-3.66847">
        <ele>144.2</ele>
        <time>2021-08-10T14:12:09Z</time>
      </trkpt>
      <trkpt lat="48.23566" lon="-3.66845">
        <ele>144.4</ele>
        <time>2021-08-10T14:12:10Z</time>
      </trkpt>
      <trkpt lat="48.23568" lon="-3.66842">
        <ele>144.4</ele>
        <time>2021-08-10T14:12:11Z</time>
      </trkpt>
      <trkpt lat="48.23569" lon="-3.6684">
        <ele>144.6</ele>
        <time>2021-08-10T14:12:12Z</time>
      </trkpt>
      <trkpt lat="48.23571" lon="-3.66837">
        <ele>144.6</ele>
        <time>2021-08-10T14:12:13Z</time>
      </trkpt>
      <trkpt lat="48.23573" lon="-3.66835">
        <ele>144.8</ele>
        <time>2021-08-10T14:12:14Z</time>
      </trkpt>
      <trkpt lat="48.23575" lon="-3.66832">
        <ele>145</ele>
        <time>2021-08-10T14:12:15Z</time>
      </trkpt>
      <trkpt lat="48.23577" lon="-3.6683">
        <ele>145</ele>
        <time>2021-08-10T14:12:16Z</time>
      </trkpt>
      <trkpt lat="48.23579" lon="-3.66828">
        <ele>145.2</ele>
        <time>2021-08-10T14:12:17Z</time>
      </trkpt>
      <trkpt lat="48.23581" lon="-3.66826">
        <ele>145.4</ele>
        <time>2021-08-10T14:12:18Z</time>
      </trkpt>
      <trkpt lat="48.23583" lon="-3.66823">
        <ele>145.4</ele>
        <time>2021-08-10T14:12:19Z</time>
      </trkpt>
      <trkpt lat="48.23585" lon="-3.66821">
        <ele>145.6</ele>
        <time>2021-08-10T14:12:20Z</time>
      </trkpt>
      <trkpt lat="48.23587" lon="-3.66818">
        <ele>145.6</ele>
        <time>2021-08-10T14:12:21Z</time>
      </trkpt>
      <trkpt lat="48.23589" lon="-3.66816">
        <ele>145.6</ele>
        <time>2021-08-10T14:12:22Z</time>
      </trkpt>
      <trkpt lat="48.23591" lon="-3.66814">
        <ele>145.8</ele>
        <time>2021-08-10T14:12:23Z</time>
      </trkpt>
      <trkpt lat="48.23593" lon="-3.66813">
        <ele>145.8</ele>
        <time>2021-08-10T14:12:24Z</time>
      </trkpt>
      <trkpt lat="48.23595" lon="-3.6681">
        <ele>146</ele>
        <time>2021-08-10T14:12:25Z</time>
      </trkpt>
      <trkpt lat="48.23597" lon="-3.66808">
        <ele>146.2</ele>
        <time>2021-08-10T14:12:26Z</time>
      </trkpt>
      <trkpt lat="48.23598" lon="-3.66804">
        <ele>146.2</ele>
        <time>2021-08-10T14:12:27Z</time>
      </trkpt>
      <trkpt lat="48.23599" lon="-3.668">
        <ele>146.4</ele>
        <time>2021-08-10T14:12:28Z</time>
      </trkpt>
      <trkpt lat="48.23601" lon="-3.66796">
        <ele>146.4</ele>
        <time>2021-08-10T14:12:29Z</time>
      </trkpt>
      <trkpt lat="48.23602" lon="-3.66792">
        <ele>146.4</ele>
        <time>2021-08-10T14:12:30Z</time>
      </trkpt>
      <trkpt lat="48.23604" lon="-3.66788">
        <ele>146.4</ele>
        <time>2021-08-10T14:12:31Z</time>
      </trkpt>
      <trkpt lat="48.23606" lon="-3.66784">
        <ele>146.6</ele>
        <time>2021-08-10T14:12:32Z</time>
      </trkpt>
      <trkpt lat="48.23607" lon="-3.66779">
        <ele>146.6</ele>
        <time>2021-08-10T14:12:33Z</time>
      </trkpt>
      <trkpt lat="48.23609" lon="-3.66774">
        <ele>146.6</ele>
        <time>2021-08-10T14:12:34Z</time>
      </trkpt>
      <trkpt lat="48.2361" lon="-3.66768">
        <ele>146.6</ele>
        <time>2021-08-10T14:12:35Z</time>
      </trkpt>
      <trkpt lat="48.23612" lon="-3.66763">
        <ele>146.6</ele>
        <time>2021-08-10T14:12:36Z</time>
      </trkpt>
      <trkpt lat="48.23613" lon="-3.66757">
        <ele>146.6</ele>
        <time>2021-08-10T14:12:37Z</time>
      </trkpt>
      <trkpt lat="48.23615" lon="-3.66752">
        <ele>146.6</ele>
        <time>2021-08-10T14:12:38Z</time>
      </trkpt>
      <trkpt lat="48.23617" lon="-3.66747">
        <ele>146.6</ele>
        <time>2021-08-10T14:12:39Z</time>
      </trkpt>
      <trkpt lat="48.23618" lon="-3.66742">
        <ele>146.6</ele>
        <time>2021-08-10T14:12:40Z</time>
      </trkpt>
      <trkpt lat="48.23619" lon="-3.66737">
        <ele>146.6</ele>
        <time>2021-08-10T14:12:41Z</time>
      </trkpt>
      <trkpt lat="48.23621" lon="-3.66732">
        <ele>146.6</ele>
        <time>2021-08-10T14:12:42Z</time>
      </trkpt>
      <trkpt lat="48.23623" lon="-3.66728">
        <ele>146.6</ele>
        <time>2021-08-10T14:12:43Z</time>
      </trkpt>
      <trkpt lat="48.23624" lon="-3.66723">
        <ele>146.6</ele>
        <time>2021-08-10T14:12:44Z</time>
      </trkpt>
      <trkpt lat="48.23625" lon="-3.66718">
        <ele>146.6</ele>
        <time>2021-08-10T14:12:45Z</time>
      </trkpt>
      <trkpt lat="48.23627" lon="-3.66714">
        <ele>146.6</ele>
        <time>2021-08-10T14:12:46Z</time>
      </trkpt>
      <trkpt lat="48.23628" lon="-3.66709">
        <ele>146.6</ele>
        <time>2021-08-10T14:12:47Z</time>
      </trkpt>
      <trkpt lat="48.23629" lon="-3.66705">
        <ele>146.6</ele>
        <time>2021-08-10T14:12:48Z</time>
      </trkpt>
      <trkpt lat="48.23631" lon="-3.66702">
        <ele>146.6</ele>
        <time>2021-08-10T14:12:49Z</time>
      </trkpt>
      <trkpt lat="48.23632" lon="-3.66698">
        <ele>146.6</ele>
        <time>2021-08-10T14:12:50Z</time>
      </trkpt>
      <trkpt lat="48.23632" lon="-3.66696">
        <ele>146.6</ele>
        <time>2021-08-10T14:12:51Z</time>
      </trkpt>
      <trkpt lat="48.23632" lon="-3.66693">
        <ele>146.6</ele>
        <time>2021-08-10T14:12:52Z</time>
      </trkpt>
      <trkpt lat="48.23632" lon="-3.66692">
        <ele>146.6</ele>
        <time>2021-08-10T14:12:53Z</time>
      </trkpt>
      <trkpt lat="48.23631" lon="-3.66691">
        <ele>146.6</ele>
        <time>2021-08-10T14:12:54Z</time>
      </trkpt>
      <trkpt lat="48.2363" lon="-3.6669">
        <ele>146.8</ele>
        <time>2021-08-10T14:12:55Z</time>
      </trkpt>
      <trkpt lat="48.23629" lon="-3.66688">
        <ele>146.8</ele>
        <time>2021-08-10T14:12:56Z</time>
      </trkpt>
      <trkpt lat="48.23627" lon="-3.66686">
        <ele>146.8</ele>
        <time>2021-08-10T14:12:57Z</time>
      </trkpt>
      <trkpt lat="48.23626" lon="-3.66684">
        <ele>146.8</ele>
        <time>2021-08-10T14:12:58Z</time>
      </trkpt>
      <trkpt lat="48.23624" lon="-3.66682">
        <ele>146.8</ele>
        <time>2021-08-10T14:12:59Z</time>
      </trkpt>
      <trkpt lat="48.23622" lon="-3.6668">
        <ele>146.8</ele>
        <time>2021-08-10T14:13:00Z</time>
      </trkpt>
      <trkpt lat="48.2362" lon="-3.66679">
        <ele>146.8</ele>
        <time>2021-08-10T14:13:01Z</time>
      </trkpt>
      <trkpt lat="48.23619" lon="-3.66679">
        <ele>146.8</ele>
        <time>2021-08-10T14:13:02Z</time>
      </trkpt>
      <trkpt lat="48.23618" lon="-3.6668">
        <ele>146.8</ele>
        <time>2021-08-10T14:13:03Z</time>
      </trkpt>
      <trkpt lat="48.23617" lon="-3.66681">
        <ele>146.8</ele>
        <time>2021-08-10T14:13:04Z</time>
      </trkpt>
      <trkpt lat="48.23616" lon="-3.66682">
        <ele>146.6</ele>
        <time>2021-08-10T14:13:05Z</time>
      </trkpt>
      <trkpt lat="48.23615" lon="-3.66683">
        <ele>146.4</ele>
        <time>2021-08-10T14:13:06Z</time>
      </trkpt>
      <trkpt lat="48.23615" lon="-3.66685">
        <ele>146.2</ele>
        <time>2021-08-10T14:13:07Z</time>
      </trkpt>
      <trkpt lat="48.23613" lon="-3.66686">
        <ele>146.2</ele>
        <time>2021-08-10T14:13:08Z</time>
      </trkpt>
      <trkpt lat="48.23612" lon="-3.66687">
        <ele>146</ele>
        <time>2021-08-10T14:13:09Z</time>
      </trkpt>
      <trkpt lat="48.23611" lon="-3.66688">
        <ele>146</ele>
        <time>2021-08-10T14:13:10Z</time>
      </trkpt>
      <trkpt lat="48.2361" lon="-3.6669">
        <ele>146</ele>
        <time>2021-08-10T14:13:11Z</time>
      </trkpt>
      <trkpt lat="48.2361" lon="-3.66691">
        <ele>145.8</ele>
        <time>2021-08-10T14:13:12Z</time>
      </trkpt>
      <trkpt lat="48.2361" lon="-3.66691">
        <ele>145.8</ele>
        <time>2021-08-10T14:13:13Z</time>
      </trkpt>
      <trkpt lat="48.2361" lon="-3.66691">
        <ele>145.8</ele>
        <time>2021-08-10T14:13:14Z</time>
      </trkpt>
      <trkpt lat="48.2361" lon="-3.66689">
        <ele>145.6</ele>
        <time>2021-08-10T14:13:20Z</time>
      </trkpt>
      <trkpt lat="48.23611" lon="-3.66688">
        <ele>145.6</ele>
        <time>2021-08-10T14:13:21Z</time>
      </trkpt>
      <trkpt lat="48.23611" lon="-3.66688">
        <ele>145.6</ele>
        <time>2021-08-10T14:13:22Z</time>
      </trkpt>
      <trkpt lat="48.23611" lon="-3.66687">
        <ele>145.6</ele>
        <time>2021-08-10T14:13:23Z</time>
      </trkpt>
      <trkpt lat="48.23611" lon="-3.66686">
        <ele>145.6</ele>
        <time>2021-08-10T14:13:24Z</time>
      </trkpt>
      <trkpt lat="48.23612" lon="-3.66686">
        <ele>145.6</ele>
        <time>2021-08-10T14:13:25Z</time>
      </trkpt>
      <trkpt lat="48.23612" lon="-3.66685">
        <ele>145.6</ele>
        <time>2021-08-10T14:13:26Z</time>
      </trkpt>
      <trkpt lat="48.23538" lon="-3.66889">
        <ele>146.4</ele>
        <time>2021-08-11T09:35:19Z</time>
      </trkpt>
      <trkpt lat="48.23537" lon="-3.6689">
        <ele>146.4</ele>
        <time>2021-08-11T09:35:20Z</time>
      </trkpt>
      <trkpt lat="48.23536" lon="-3.66891">
        <ele>146.4</ele>
        <time>2021-08-11T09:35:21Z</time>
      </trkpt>
      <trkpt lat="48.23534" lon="-3.66891">
        <ele>146.4</ele>
        <time>2021-08-11T09:35:22Z</time>
      </trkpt>
      <trkpt lat="48.23531" lon="-3.6689">
        <ele>146.4</ele>
        <time>2021-08-11T09:35:23Z</time>
      </trkpt>
      <trkpt lat="48.23528" lon="-3.66888">
        <ele>146.4</ele>
        <time>2021-08-11T09:35:24Z</time>
      </trkpt>
      <trkpt lat="48.23525" lon="-3.66885">
        <ele>146.4</ele>
        <time>2021-08-11T09:35:25Z</time>
      </trkpt>
      <trkpt lat="48.23521" lon="-3.66882">
        <ele>146.4</ele>
        <time>2021-08-11T09:35:26Z</time>
      </trkpt>
      <trkpt lat="48.23516" lon="-3.66878">
        <ele>146.4</ele>
        <time>2021-08-11T09:35:27Z</time>
      </trkpt>
      <trkpt lat="48.2351" lon="-3.66873">
        <ele>146.4</ele>
        <time>2021-08-11T09:35:28Z</time>
      </trkpt>
      <trkpt lat="48.23504" lon="-3.66868">
        <ele>146.2</ele>
        <time>2021-08-11T09:35:29Z</time>
      </trkpt>
      <trkpt lat="48.23497" lon="-3.66862">
        <ele>146</ele>
        <time>2021-08-11T09:35:30Z</time>
      </trkpt>
      <trkpt lat="48.2349" lon="-3.66857">
        <ele>145.8</ele>
        <time>2021-08-11T09:35:31Z</time>
      </trkpt>
      <trkpt lat="48.23482" lon="-3.66851">
        <ele>145</ele>
        <time>2021-08-11T09:35:32Z</time>
      </trkpt>
      <trkpt lat="48.23473" lon="-3.66845">
        <ele>144.4</ele>
        <time>2021-08-11T09:35:33Z</time>
      </trkpt>
      <trkpt lat="48.23464" lon="-3.66839">
        <ele>143.8</ele>
        <time>2021-08-11T09:35:34Z</time>
      </trkpt>
      <trkpt lat="48.23455" lon="-3.66832">
        <ele>143.2</ele>
        <time>2021-08-11T09:35:35Z</time>
      </trkpt>
      <trkpt lat="48.23445" lon="-3.66827">
        <ele>142.4</ele>
        <time>2021-08-11T09:35:36Z</time>
      </trkpt>
      <trkpt lat="48.23435" lon="-3.66821">
        <ele>141.6</ele>
        <time>2021-08-11T09:35:37Z</time>
      </trkpt>
      <trkpt lat="48.23425" lon="-3.66816">
        <ele>140.6</ele>
        <time>2021-08-11T09:35:38Z</time>
      </trkpt>
      <trkpt lat="48.23415" lon="-3.6681">
        <ele>139.4</ele>
        <time>2021-08-11T09:35:39Z</time>
      </trkpt>
      <trkpt lat="48.23404" lon="-3.66806">
        <ele>138.6</ele>
        <time>2021-08-11T09:35:40Z</time>
      </trkpt>
      <trkpt lat="48.23394" lon="-3.66801">
        <ele>137.6</ele>
        <time>2021-08-11T09:35:41Z</time>
      </trkpt>
      <trkpt lat="48.23384" lon="-3.66797">
        <ele>136.6</ele>
        <time>2021-08-11T09:35:42Z</time>
      </trkpt>
      <trkpt lat="48.23374" lon="-3.66794">
        <ele>135.2</ele>
        <time>2021-08-11T09:35:43Z</time>
      </trkpt>
      <trkpt lat="48.23365" lon="-3.6679">
        <ele>134</ele>
        <time>2021-08-11T09:35:44Z</time>
      </trkpt>
      <trkpt lat="48.23356" lon="-3.66787">
        <ele>133.2</ele>
        <time>2021-08-11T09:35:45Z</time>
      </trkpt>
      <trkpt lat="48.23348" lon="-3.66784">
        <ele>133</ele>
        <time>2021-08-11T09:35:46Z</time>
      </trkpt>
      <trkpt lat="48.23339" lon="-3.66781">
        <ele>132.8</ele>
        <time>2021-08-11T09:35:47Z</time>
      </trkpt>
      <trkpt lat="48.23332" lon="-3.66779">
        <ele>132.6</ele>
        <time>2021-08-11T09:35:48Z</time>
      </trkpt>
      <trkpt lat="48.23324" lon="-3.66776">
        <ele>132.6</ele>
        <time>2021-08-11T09:35:49Z</time>
      </trkpt>
      <trkpt lat="48.23317" lon="-3.66774">
        <ele>132.6</ele>
        <time>2021-08-11T09:35:50Z</time>
      </trkpt>
      <trkpt lat="48.23311" lon="-3.66771">
        <ele>132.6</ele>
        <time>2021-08-11T09:35:51Z</time>
      </trkpt>
      <trkpt lat="48.23304" lon="-3.66769">
        <ele>132.6</ele>
        <time>2021-08-11T09:35:52Z</time>
      </trkpt>
      <trkpt lat="48.23299" lon="-3.66767">
        <ele>132.6</ele>
        <time>2021-08-11T09:35:53Z</time>
      </trkpt>
      <trkpt lat="48.23293" lon="-3.66764">
        <ele>132.8</ele>
        <time>2021-08-11T09:35:54Z</time>
      </trkpt>
      <trkpt lat="48.23288" lon="-3.66762">
        <ele>133.2</ele>
        <time>2021-08-11T09:35:55Z</time>
      </trkpt>
      <trkpt lat="48.23283" lon="-3.6676">
        <ele>133.6</ele>
        <time>2021-08-11T09:35:56Z</time>
      </trkpt>
      <trkpt lat="48.23278" lon="-3.66757">
        <ele>134.4</ele>
        <time>2021-08-11T09:35:57Z</time>
      </trkpt>
      <trkpt lat="48.23274" lon="-3.66755">
        <ele>135.2</ele>
        <time>2021-08-11T09:35:58Z</time>
      </trkpt>
      <trkpt lat="48.23269" lon="-3.66753">
        <ele>135.6</ele>
        <time>2021-08-11T09:35:59Z</time>
      </trkpt>
      <trkpt lat="48.23265" lon="-3.66751">
        <ele>136</ele>
        <time>2021-08-11T09:36:00Z</time>
      </trkpt>
      <trkpt lat="48.23261" lon="-3.66749">
        <ele>137.2</ele>
        <time>2021-08-11T09:36:01Z</time>
      </trkpt>
      <trkpt lat="48.23257" lon="-3.66747">
        <ele>137.6</ele>
        <time>2021-08-11T09:36:02Z</time>
      </trkpt>
      <trkpt lat="48.23252" lon="-3.66745">
        <ele>138</ele>
        <time>2021-08-11T09:36:03Z</time>
      </trkpt>
      <trkpt lat="48.23248" lon="-3.66743">
        <ele>138.4</ele>
        <time>2021-08-11T09:36:04Z</time>
      </trkpt>
      <trkpt lat="48.23244" lon="-3.66741">
        <ele>138.8</ele>
        <time>2021-08-11T09:36:05Z</time>
      </trkpt>
      <trkpt lat="48.23239" lon="-3.66739">
        <ele>139.2</ele>
        <time>2021-08-11T09:36:06Z</time>
      </trkpt>
      <trkpt lat="48.23235" lon="-3.66737">
        <ele>139.6</ele>
        <time>2021-08-11T09:36:07Z</time>
      </trkpt>
      <trkpt lat="48.23231" lon="-3.66736">
        <ele>139.8</ele>
        <time>2021-08-11T09:36:08Z</time>
      </trkpt>
      <trkpt lat="48.23226" lon="-3.66734">
        <ele>140</ele>
        <time>2021-08-11T09:36:09Z</time>
      </trkpt>
      <trkpt lat="48.23222" lon="-3.66733">
        <ele>140.4</ele>
        <time>2021-08-11T09:36:10Z</time>
      </trkpt>
      <trkpt lat="48.23218" lon="-3.66732">
        <ele>140.8</ele>
        <time>2021-08-11T09:36:11Z</time>
      </trkpt>
      <trkpt lat="48.23213" lon="-3.66731">
        <ele>141</ele>
        <time>2021-08-11T09:36:12Z</time>
      </trkpt>
      <trkpt lat="48.23209" lon="-3.66731">
        <ele>141.2</ele>
        <time>2021-08-11T09:36:13Z</time>
      </trkpt>
      <trkpt lat="48.23204" lon="-3.66729">
        <ele>141.4</ele>
        <time>2021-08-11T09:36:14Z</time>
      </trkpt>
      <trkpt lat="48.232" lon="-3.66729">
        <ele>141.4</ele>
        <time>2021-08-11T09:36:15Z</time>
      </trkpt>
      <trkpt lat="48.23195" lon="-3.66728">
        <ele>141.4</ele>
        <time>2021-08-11T09:36:16Z</time>
      </trkpt>
      <trkpt lat="48.2319" lon="-3.66728">
        <ele>141.4</ele>
        <time>2021-08-11T09:36:17Z</time>
      </trkpt>
      <trkpt lat="48.23186" lon="-3.66729">
        <ele>141.4</ele>
        <time>2021-08-11T09:36:18Z</time>
      </trkpt>
      <trkpt lat="48.2318" lon="-3.66729">
        <ele>141.4</ele>
        <time>2021-08-11T09:36:19Z</time>
      </trkpt>
      <trkpt lat="48.23175" lon="-3.66728">
        <ele>141.4</ele>
        <time>2021-08-11T09:36:20Z</time>
      </trkpt>
      <trkpt lat="48.2317" lon="-3.66727">
        <ele>141.4</ele>
        <time>2021-08-11T09:36:21Z</time>
      </trkpt>
      <trkpt lat="48.23164" lon="-3.66726">
        <ele>141.4</ele>
        <time>2021-08-11T09:36:22Z</time>
      </trkpt>
      <trkpt lat="48.23158" lon="-3.66725">
        <ele>141.4</ele>
        <time>2021-08-11T09:36:23Z</time>
      </trkpt>
      <trkpt lat="48.23151" lon="-3.66723">
        <ele>141.4</ele>
        <time>2021-08-11T09:36:24Z</time>
      </trkpt>
      <trkpt lat="48.23144" lon="-3.66722">
        <ele>141</ele>
        <time>2021-08-11T09:36:25Z</time>
      </trkpt>
      <trkpt lat="48.23137" lon="-3.66721">
        <ele>140.8</ele>
        <time>2021-08-11T09:36:26Z</time>
      </trkpt>
      <trkpt lat="48.23129" lon="-3.66719">
        <ele>140.8</ele>
        <time>2021-08-11T09:36:27Z</time>
      </trkpt>
      <trkpt lat="48.23121" lon="-3.66716">
        <ele>140.6</ele>
        <time>2021-08-11T09:36:28Z</time>
      </trkpt>
      <trkpt lat="48.23112" lon="-3.66713">
        <ele>140.6</ele>
        <time>2021-08-11T09:36:29Z</time>
      </trkpt>
      <trkpt lat="48.23102" lon="-3.6671">
        <ele>140</ele>
        <time>2021-08-11T09:36:30Z</time>
      </trkpt>
      <trkpt lat="48.23093" lon="-3.66705">
        <ele>139.2</ele>
        <time>2021-08-11T09:36:31Z</time>
      </trkpt>
      <trkpt lat="48.23083" lon="-3.66699">
        <ele>138.4</ele>
        <time>2021-08-11T09:36:32Z</time>
      </trkpt>
      <trkpt lat="48.23072" lon="-3.66693">
        <ele>137.8</ele>
        <time>2021-08-11T09:36:33Z</time>
      </trkpt>
      <trkpt lat="48.23062" lon="-3.66687">
        <ele>137.2</ele>
        <time>2021-08-11T09:36:34Z</time>
      </trkpt>
      <trkpt lat="48.23051" lon="-3.6668">
        <ele>136.6</ele>
        <time>2021-08-11T09:36:35Z</time>
      </trkpt>
      <trkpt lat="48.23041" lon="-3.66673">
        <ele>135.8</ele>
        <time>2021-08-11T09:36:36Z</time>
      </trkpt>
      <trkpt lat="48.2303" lon="-3.66665">
        <ele>135</ele>
        <time>2021-08-11T09:36:37Z</time>
      </trkpt>
      <trkpt lat="48.23019" lon="-3.66657">
        <ele>133.8</ele>
        <time>2021-08-11T09:36:38Z</time>
      </trkpt>
      <trkpt lat="48.23007" lon="-3.6665">
        <ele>132.4</ele>
        <time>2021-08-11T09:36:39Z</time>
      </trkpt>
      <trkpt lat="48.22996" lon="-3.66643">
        <ele>131.2</ele>
        <time>2021-08-11T09:36:40Z</time>
      </trkpt>
      <trkpt lat="48.22984" lon="-3.66635">
        <ele>129.8</ele>
        <time>2021-08-11T09:36:41Z</time>
      </trkpt>
      <trkpt lat="48.22972" lon="-3.66628">
        <ele>128.8</ele>
        <time>2021-08-11T09:36:42Z</time>
      </trkpt>
      <trkpt lat="48.2296" lon="-3.66621">
        <ele>127.6</ele>
        <time>2021-08-11T09:36:43Z</time>
      </trkpt>
      <trkpt lat="48.22948" lon="-3.66614">
        <ele>126.8</ele>
        <time>2021-08-11T09:36:44Z</time>
      </trkpt>
      <trkpt lat="48.22935" lon="-3.66607">
        <ele>126</ele>
        <time>2021-08-11T09:36:45Z</time>
      </trkpt>
      <trkpt lat="48.22923" lon="-3.66599">
        <ele>125.4</ele>
        <time>2021-08-11T09:36:46Z</time>
      </trkpt>
      <trkpt lat="48.22911" lon="-3.66591">
        <ele>125</ele>
        <time>2021-08-11T09:36:47Z</time>
      </trkpt>
      <trkpt lat="48.22898" lon="-3.66584">
        <ele>124.4</ele>
        <time>2021-08-11T09:36:48Z</time>
      </trkpt>
      <trkpt lat="48.22886" lon="-3.66576">
        <ele>123.6</ele>
        <time>2021-08-11T09:36:49Z</time>
      </trkpt>
      <trkpt lat="48.22873" lon="-3.66569">
        <ele>122.8</ele>
        <time>2021-08-11T09:36:50Z</time>
      </trkpt>
      <trkpt lat="48.2286" lon="-3.66562">
        <ele>122.2</ele>
        <time>2021-08-11T09:36:51Z</time>
      </trkpt>
      <trkpt lat="48.22848" lon="-3.66554">
        <ele>121.6</ele>
        <time>2021-08-11T09:36:52Z</time>
      </trkpt>
      <trkpt lat="48.22836" lon="-3.66547">
        <ele>121.2</ele>
        <time>2021-08-11T09:36:53Z</time>
      </trkpt>
      <trkpt lat="48.22825" lon="-3.6654">
        <ele>120.4</ele>
        <time>2021-08-11T09:36:54Z</time>
      </trkpt>
      <trkpt lat="48.22814" lon="-3.66532">
        <ele>119.6</ele>
        <time>2021-08-11T09:36:55Z</time>
      </trkpt>
      <trkpt lat="48.22803" lon="-3.66524">
        <ele>119</ele>
        <time>2021-08-11T09:36:56Z</time>
      </trkpt>
      <trkpt lat="48.22793" lon="-3.66516">
        <ele>118.6</ele>
        <time>2021-08-11T09:36:57Z</time>
      </trkpt>
      <trkpt lat="48.22783" lon="-3.66508">
        <ele>118.4</ele>
        <time>2021-08-11T09:36:58Z</time>
      </trkpt>
      <trkpt lat="48.22773" lon="-3.66499">
        <ele>118.2</ele>
        <time>2021-08-11T09:36:59Z</time>
      </trkpt>
      <trkpt lat="48.22763" lon="-3.66491">
        <ele>118</ele>
        <time>2021-08-11T09:37:00Z</time>
      </trkpt>
      <trkpt lat="48.22753" lon="-3.66484">
        <ele>118</ele>
        <time>2021-08-11T09:37:01Z</time>
      </trkpt>
      <trkpt lat="48.22743" lon="-3.66476">
        <ele>117.8</ele>
        <time>2021-08-11T09:37:02Z</time>
      </trkpt>
      <trkpt lat="48.22733" lon="-3.66468">
        <ele>117.6</ele>
        <time>2021-08-11T09:37:03Z</time>
      </trkpt>
      <trkpt lat="48.22722" lon="-3.6646">
        <ele>117.4</ele>
        <time>2021-08-11T09:37:04Z</time>
      </trkpt>
      <trkpt lat="48.22711" lon="-3.66451">
        <ele>117.2</ele>
        <time>2021-08-11T09:37:05Z</time>
      </trkpt>
      <trkpt lat="48.227" lon="-3.66443">
        <ele>117</ele>
        <time>2021-08-11T09:37:06Z</time>
      </trkpt>
      <trkpt lat="48.22688" lon="-3.66433">
        <ele>117</ele>
        <time>2021-08-11T09:37:07Z</time>
      </trkpt>
      <trkpt lat="48.22676" lon="-3.66424">
        <ele>116.8</ele>
        <time>2021-08-11T09:37:08Z</time>
      </trkpt>
      <trkpt lat="48.22664" lon="-3.66414">
        <ele>116.8</ele>
        <time>2021-08-11T09:37:09Z</time>
      </trkpt>
      <trkpt lat="48.22652" lon="-3.66404">
        <ele>116.6</ele>
        <time>2021-08-11T09:37:10Z</time>
      </trkpt>
      <trkpt lat="48.22639" lon="-3.66394">
        <ele>116</ele>
        <time>2021-08-11T09:37:11Z</time>
      </trkpt>
      <trkpt lat="48.22626" lon="-3.66383">
        <ele>115</ele>
        <time>2021-08-11T09:37:12Z</time>
      </trkpt>
      <trkpt lat="48.22613" lon="-3.66373">
        <ele>114</ele>
        <time>2021-08-11T09:37:13Z</time>
      </trkpt>
      <trkpt lat="48.226" lon="-3.66362">
        <ele>112.8</ele>
        <time>2021-08-11T09:37:14Z</time>
      </trkpt>
      <trkpt lat="48.22587" lon="-3.66352">
        <ele>111.6</ele>
        <time>2021-08-11T09:37:15Z</time>
      </trkpt>
      <trkpt lat="48.22574" lon="-3.66342">
        <ele>110</ele>
        <time>2021-08-11T09:37:16Z</time>
      </trkpt>
      <trkpt lat="48.22562" lon="-3.66331">
        <ele>108.8</ele>
        <time>2021-08-11T09:37:17Z</time>
      </trkpt>
      <trkpt lat="48.2255" lon="-3.66319">
        <ele>107.2</ele>
        <time>2021-08-11T09:37:18Z</time>
      </trkpt>
      <trkpt lat="48.22537" lon="-3.66307">
        <ele>106</ele>
        <time>2021-08-11T09:37:19Z</time>
      </trkpt>
      <trkpt lat="48.22525" lon="-3.66296">
        <ele>104.4</ele>
        <time>2021-08-11T09:37:20Z</time>
      </trkpt>
      <trkpt lat="48.22513" lon="-3.66285">
        <ele>102.8</ele>
        <time>2021-08-11T09:37:21Z</time>
      </trkpt>
      <trkpt lat="48.225" lon="-3.66274">
        <ele>101.6</ele>
        <time>2021-08-11T09:37:22Z</time>
      </trkpt>
      <trkpt lat="48.22488" lon="-3.66262">
        <ele>100.2</ele>
        <time>2021-08-11T09:37:23Z</time>
      </trkpt>
      <trkpt lat="48.22476" lon="-3.66251">
        <ele>99.2</ele>
        <time>2021-08-11T09:37:24Z</time>
      </trkpt>
      <trkpt lat="48.22464" lon="-3.6624">
        <ele>98.6</ele>
        <time>2021-08-11T09:37:25Z</time>
      </trkpt>
      <trkpt lat="48.22451" lon="-3.66228">
        <ele>97.6</ele>
        <time>2021-08-11T09:37:26Z</time>
      </trkpt>
      <trkpt lat="48.22439" lon="-3.66218">
        <ele>96.6</ele>
        <time>2021-08-11T09:37:27Z</time>
      </trkpt>
      <trkpt lat="48.22427" lon="-3.66208">
        <ele>94.8</ele>
        <time>2021-08-11T09:37:28Z</time>
      </trkpt>
      <trkpt lat="48.22414" lon="-3.66198">
        <ele>93.8</ele>
        <time>2021-08-11T09:37:29Z</time>
      </trkpt>
      <trkpt lat="48.22401" lon="-3.66189">
        <ele>93</ele>
        <time>2021-08-11T09:37:30Z</time>
      </trkpt>
      <trkpt lat="48.22389" lon="-3.66181">
        <ele>92</ele>
        <time>2021-08-11T09:37:31Z</time>
      </trkpt>
      <trkpt lat="48.22376" lon="-3.66172">
        <ele>90.8</ele>
        <time>2021-08-11T09:37:32Z</time>
      </trkpt>
      <trkpt lat="48.22364" lon="-3.66164">
        <ele>89.6</ele>
        <time>2021-08-11T09:37:33Z</time>
      </trkpt>
      <trkpt lat="48.22352" lon="-3.66157">
        <ele>88.6</ele>
        <time>2021-08-11T09:37:34Z</time>
      </trkpt>
      <trkpt lat="48.22341" lon="-3.66149">
        <ele>87.4</ele>
        <time>2021-08-11T09:37:35Z</time>
      </trkpt>
      <trkpt lat="48.22329" lon="-3.66141">
        <ele>86.2</ele>
        <time>2021-08-11T09:37:36Z</time>
      </trkpt>
      <trkpt lat="48.22318" lon="-3.66134">
        <ele>85.2</ele>
        <time>2021-08-11T09:37:37Z</time>
      </trkpt>
      <trkpt lat="48.22307" lon="-3.66126">
        <ele>84.6</ele>
        <time>2021-08-11T09:37:38Z</time>
      </trkpt>
      <trkpt lat="48.22296" lon="-3.6612">
        <ele>84.2</ele>
        <time>2021-08-11T09:37:39Z</time>
      </trkpt>
      <trkpt lat="48.22285" lon="-3.66114">
        <ele>83.4</ele>
        <time>2021-08-11T09:37:40Z</time>
      </trkpt>
      <trkpt lat="48.22274" lon="-3.66108">
        <ele>82.8</ele>
        <time>2021-08-11T09:37:41Z</time>
      </trkpt>
      <trkpt lat="48.22263" lon="-3.66103">
        <ele>82</ele>
        <time>2021-08-11T09:37:42Z</time>
      </trkpt>
      <trkpt lat="48.22252" lon="-3.66098">
        <ele>81.6</ele>
        <time>2021-08-11T09:37:43Z</time>
      </trkpt>
      <trkpt lat="48.22241" lon="-3.66094">
        <ele>81.2</ele>
        <time>2021-08-11T09:37:44Z</time>
      </trkpt>
      <trkpt lat="48.22231" lon="-3.6609">
        <ele>81</ele>
        <time>2021-08-11T09:37:45Z</time>
      </trkpt>
      <trkpt lat="48.2222" lon="-3.66085">
        <ele>80.8</ele>
        <time>2021-08-11T09:37:46Z</time>
      </trkpt>
      <trkpt lat="48.22209" lon="-3.66082">
        <ele>80.6</ele>
        <time>2021-08-11T09:37:47Z</time>
      </trkpt>
      <trkpt lat="48.22199" lon="-3.66079">
        <ele>80.4</ele>
        <time>2021-08-11T09:37:48Z</time>
      </trkpt>
      <trkpt lat="48.22188" lon="-3.66077">
        <ele>80.2</ele>
        <time>2021-08-11T09:37:49Z</time>
      </trkpt>
      <trkpt lat="48.22177" lon="-3.66074">
        <ele>80</ele>
        <time>2021-08-11T09:37:50Z</time>
      </trkpt>
      <trkpt lat="48.22167" lon="-3.66071">
        <ele>79.6</ele>
        <time>2021-08-11T09:37:51Z</time>
      </trkpt>
      <trkpt lat="48.22157" lon="-3.66069">
        <ele>79.6</ele>
        <time>2021-08-11T09:37:52Z</time>
      </trkpt>
      <trkpt lat="48.22146" lon="-3.66066">
        <ele>79.2</ele>
        <time>2021-08-11T09:37:53Z</time>
      </trkpt>
      <trkpt lat="48.22136" lon="-3.66063">
        <ele>79.2</ele>
        <time>2021-08-11T09:37:54Z</time>
      </trkpt>
      <trkpt lat="48.22126" lon="-3.6606">
        <ele>79</ele>
        <time>2021-08-11T09:37:55Z</time>
      </trkpt>
      <trkpt lat="48.22116" lon="-3.66055">
        <ele>78.6</ele>
        <time>2021-08-11T09:37:56Z</time>
      </trkpt>
      <trkpt lat="48.22106" lon="-3.66051">
        <ele>77.4</ele>
        <time>2021-08-11T09:37:57Z</time>
      </trkpt>
      <trkpt lat="48.22096" lon="-3.66046">
        <ele>77</ele>
        <time>2021-08-11T09:37:58Z</time>
      </trkpt>
      <trkpt lat="48.22086" lon="-3.66042">
        <ele>76.6</ele>
        <time>2021-08-11T09:37:59Z</time>
      </trkpt>
      <trkpt lat="48.22076" lon="-3.66037">
        <ele>76</ele>
        <time>2021-08-11T09:38:00Z</time>
      </trkpt>
      <trkpt lat="48.22066" lon="-3.66032">
        <ele>75.6</ele>
        <time>2021-08-11T09:38:01Z</time>
      </trkpt>
      <trkpt lat="48.22055" lon="-3.66027">
        <ele>75</ele>
        <time>2021-08-11T09:38:02Z</time>
      </trkpt>
      <trkpt lat="48.22045" lon="-3.6602">
        <ele>74.6</ele>
        <time>2021-08-11T09:38:03Z</time>
      </trkpt>
      <trkpt lat="48.22035" lon="-3.66012">
        <ele>73.8</ele>
        <time>2021-08-11T09:38:04Z</time>
      </trkpt>
      <trkpt lat="48.22026" lon="-3.66002">
        <ele>72.8</ele>
        <time>2021-08-11T09:38:05Z</time>
      </trkpt>
      <trkpt lat="48.22018" lon="-3.65989">
        <ele>71.8</ele>
        <time>2021-08-11T09:38:06Z</time>
      </trkpt>
      <trkpt lat="48.22012" lon="-3.65974">
        <ele>71.4</ele>
        <time>2021-08-11T09:38:07Z</time>
      </trkpt>
      <trkpt lat="48.22009" lon="-3.65957">
        <ele>71</ele>
        <time>2021-08-11T09:38:08Z</time>
      </trkpt>
      <trkpt lat="48.22008" lon="-3.65941">
        <ele>70.8</ele>
        <time>2021-08-11T09:38:09Z</time>
      </trkpt>
      <trkpt lat="48.22007" lon="-3.65928">
        <ele>70.4</ele>
        <time>2021-08-11T09:38:10Z</time>
      </trkpt>
      <trkpt lat="48.22008" lon="-3.65918">
        <ele>69.8</ele>
        <time>2021-08-11T09:38:11Z</time>
      </trkpt>
      <trkpt lat="48.22008" lon="-3.65913">
        <ele>69</ele>
        <time>2021-08-11T09:38:12Z</time>
      </trkpt>
      <trkpt lat="48.22009" lon="-3.65911">
        <ele>68.6</ele>
        <time>2021-08-11T09:38:13Z</time>
      </trkpt>
      <trkpt lat="48.22009" lon="-3.6591">
        <ele>68.4</ele>
        <time>2021-08-11T09:38:14Z</time>
      </trkpt>
      <trkpt lat="48.2201" lon="-3.65909">
        <ele>68.2</ele>
        <time>2021-08-11T09:38:15Z</time>
      </trkpt>
      <trkpt lat="48.22011" lon="-3.65908">
        <ele>68.2</ele>
        <time>2021-08-11T09:38:16Z</time>
      </trkpt>
      <trkpt lat="48.22011" lon="-3.65906">
        <ele>68.2</ele>
        <time>2021-08-11T09:38:17Z</time>
      </trkpt>
      <trkpt lat="48.22012" lon="-3.65903">
        <ele>68.2</ele>
        <time>2021-08-11T09:38:18Z</time>
      </trkpt>
      <trkpt lat="48.22012" lon="-3.65901">
        <ele>68.2</ele>
        <time>2021-08-11T09:38:19Z</time>
      </trkpt>
      <trkpt lat="48.22013" lon="-3.65898">
        <ele>68</ele>
        <time>2021-08-11T09:38:20Z</time>
      </trkpt>
      <trkpt lat="48.22014" lon="-3.65895">
        <ele>68</ele>
        <time>2021-08-11T09:38:21Z</time>
      </trkpt>
      <trkpt lat="48.22015" lon="-3.65892">
        <ele>68</ele>
        <time>2021-08-11T09:38:22Z</time>
      </trkpt>
      <trkpt lat="48.22016" lon="-3.65889">
        <ele>68</ele>
        <time>2021-08-11T09:38:23Z</time>
      </trkpt>
      <trkpt lat="48.22018" lon="-3.65886">
        <ele>68</ele>
        <time>2021-08-11T09:38:24Z</time>
      </trkpt>
      <trkpt lat="48.22019" lon="-3.65883">
        <ele>68</ele>
        <time>2021-08-11T09:38:25Z</time>
      </trkpt>
      <trkpt lat="48.2202" lon="-3.6588">
        <ele>68</ele>
        <time>2021-08-11T09:38:26Z</time>
      </trkpt>
      <trkpt lat="48.22021" lon="-3.65878">
        <ele>68</ele>
        <time>2021-08-11T09:38:27Z</time>
      </trkpt>
      <trkpt lat="48.22023" lon="-3.65875">
        <ele>68</ele>
        <time>2021-08-11T09:38:28Z</time>
      </trkpt>
      <trkpt lat="48.22024" lon="-3.65872">
        <ele>68</ele>
        <time>2021-08-11T09:38:29Z</time>
      </trkpt>
      <trkpt lat="48.22026" lon="-3.65868">
        <ele>68</ele>
        <time>2021-08-11T09:38:30Z</time>
      </trkpt>
      <trkpt lat="48.22028" lon="-3.65865">
        <ele>68</ele>
        <time>2021-08-11T09:38:31Z</time>
      </trkpt>
      <trkpt lat="48.22029" lon="-3.65861">
        <ele>68</ele>
        <time>2021-08-11T09:38:32Z</time>
      </trkpt>
      <trkpt lat="48.22031" lon="-3.65857">
        <ele>68</ele>
        <time>2021-08-11T09:38:33Z</time>
      </trkpt>
      <trkpt lat="48.22033" lon="-3.65854">
        <ele>68</ele>
        <time>2021-08-11T09:38:34Z</time>
      </trkpt>
      <trkpt lat="48.22035" lon="-3.6585">
        <ele>68</ele>
        <time>2021-08-11T09:38:35Z</time>
      </trkpt>
      <trkpt lat="48.22037" lon="-3.65846">
        <ele>68</ele>
        <time>2021-08-11T09:38:36Z</time>
      </trkpt>
      <trkpt lat="48.22038" lon="-3.65842">
        <ele>68</ele>
        <time>2021-08-11T09:38:37Z</time>
      </trkpt>
      <trkpt lat="48.22039" lon="-3.65838">
        <ele>68</ele>
        <time>2021-08-11T09:38:38Z</time>
      </trkpt>
      <trkpt lat="48.2204" lon="-3.65833">
        <ele>67.8</ele>
        <time>2021-08-11T09:38:39Z</time>
      </trkpt>
      <trkpt lat="48.22042" lon="-3.65829">
        <ele>67.8</ele>
        <time>2021-08-11T09:38:40Z</time>
      </trkpt>
      <trkpt lat="48.22044" lon="-3.65825">
        <ele>67.8</ele>
        <time>2021-08-11T09:38:41Z</time>
      </trkpt>
      <trkpt lat="48.22046" lon="-3.6582">
        <ele>67.8</ele>
        <time>2021-08-11T09:38:42Z</time>
      </trkpt>
      <trkpt lat="48.22047" lon="-3.65816">
        <ele>67.8</ele>
        <time>2021-08-11T09:38:43Z</time>
      </trkpt>
      <trkpt lat="48.22049" lon="-3.65811">
        <ele>67.8</ele>
        <time>2021-08-11T09:38:44Z</time>
      </trkpt>
      <trkpt lat="48.22052" lon="-3.65805">
        <ele>67.8</ele>
        <time>2021-08-11T09:38:45Z</time>
      </trkpt>
      <trkpt lat="48.22055" lon="-3.65799">
        <ele>67.8</ele>
        <time>2021-08-11T09:38:46Z</time>
      </trkpt>
      <trkpt lat="48.22058" lon="-3.65794">
        <ele>67.8</ele>
        <time>2021-08-11T09:38:47Z</time>
      </trkpt>
      <trkpt lat="48.22061" lon="-3.65788">
        <ele>67.8</ele>
        <time>2021-08-11T09:38:48Z</time>
      </trkpt>
      <trkpt lat="48.22063" lon="-3.65783">
        <ele>67.8</ele>
        <time>2021-08-11T09:38:49Z</time>
      </trkpt>
      <trkpt lat="48.22065" lon="-3.65778">
        <ele>67.8</ele>
        <time>2021-08-11T09:38:50Z</time>
      </trkpt>
      <trkpt lat="48.22066" lon="-3.65774">
        <ele>67.8</ele>
        <time>2021-08-11T09:38:51Z</time>
      </trkpt>
      <trkpt lat="48.22068" lon="-3.6577">
        <ele>67.8</ele>
        <time>2021-08-11T09:38:52Z</time>
      </trkpt>
      <trkpt lat="48.2207" lon="-3.65767">
        <ele>67.8</ele>
        <time>2021-08-11T09:38:53Z</time>
      </trkpt>
      <trkpt lat="48.22072" lon="-3.65763">
        <ele>67.8</ele>
        <time>2021-08-11T09:38:54Z</time>
      </trkpt>
      <trkpt lat="48.22074" lon="-3.65759">
        <ele>67.8</ele>
        <time>2021-08-11T09:38:55Z</time>
      </trkpt>
      <trkpt lat="48.22076" lon="-3.65755">
        <ele>67.8</ele>
        <time>2021-08-11T09:38:56Z</time>
      </trkpt>
      <trkpt lat="48.22078" lon="-3.65751">
        <ele>67.8</ele>
        <time>2021-08-11T09:38:57Z</time>
      </trkpt>
      <trkpt lat="48.22081" lon="-3.65746">
        <ele>67.8</ele>
        <time>2021-08-11T09:38:58Z</time>
      </trkpt>
      <trkpt lat="48.22083" lon="-3.65741">
        <ele>67.8</ele>
        <time>2021-08-11T09:38:59Z</time>
      </trkpt>
      <trkpt lat="48.22085" lon="-3.65736">
        <ele>67.8</ele>
        <time>2021-08-11T09:39:00Z</time>
      </trkpt>
      <trkpt lat="48.22088" lon="-3.65731">
        <ele>67.8</ele>
        <time>2021-08-11T09:39:01Z</time>
      </trkpt>
      <trkpt lat="48.2209" lon="-3.65726">
        <ele>67.6</ele>
        <time>2021-08-11T09:39:02Z</time>
      </trkpt>
      <trkpt lat="48.22093" lon="-3.65721">
        <ele>67.6</ele>
        <time>2021-08-11T09:39:03Z</time>
      </trkpt>
      <trkpt lat="48.22097" lon="-3.65716">
        <ele>67.6</ele>
        <time>2021-08-11T09:39:04Z</time>
      </trkpt>
      <trkpt lat="48.22102" lon="-3.65711">
        <ele>67.4</ele>
        <time>2021-08-11T09:39:05Z</time>
      </trkpt>
      <trkpt lat="48.22107" lon="-3.65706">
        <ele>67.4</ele>
        <time>2021-08-11T09:39:06Z</time>
      </trkpt>
      <trkpt lat="48.22112" lon="-3.65702">
        <ele>67.4</ele>
        <time>2021-08-11T09:39:07Z</time>
      </trkpt>
      <trkpt lat="48.22117" lon="-3.65698">
        <ele>67.2</ele>
        <time>2021-08-11T09:39:08Z</time>
      </trkpt>
      <trkpt lat="48.22123" lon="-3.65693">
        <ele>67.2</ele>
        <time>2021-08-11T09:39:09Z</time>
      </trkpt>
      <trkpt lat="48.22128" lon="-3.65688">
        <ele>67.2</ele>
        <time>2021-08-11T09:39:10Z</time>
      </trkpt>
      <trkpt lat="48.22133" lon="-3.65684">
        <ele>67</ele>
        <time>2021-08-11T09:39:11Z</time>
      </trkpt>
      <trkpt lat="48.22138" lon="-3.6568">
        <ele>67</ele>
        <time>2021-08-11T09:39:12Z</time>
      </trkpt>
      <trkpt lat="48.22144" lon="-3.65676">
        <ele>66.8</ele>
        <time>2021-08-11T09:39:13Z</time>
      </trkpt>
      <trkpt lat="48.2215" lon="-3.65673">
        <ele>66.6</ele>
        <time>2021-08-11T09:39:14Z</time>
      </trkpt>
      <trkpt lat="48.22156" lon="-3.65669">
        <ele>66.6</ele>
        <time>2021-08-11T09:39:15Z</time>
      </trkpt>
      <trkpt lat="48.22163" lon="-3.65665">
        <ele>66.6</ele>
        <time>2021-08-11T09:39:16Z</time>
      </trkpt>
      <trkpt lat="48.22169" lon="-3.65662">
        <ele>66.6</ele>
        <time>2021-08-11T09:39:17Z</time>
      </trkpt>
      <trkpt lat="48.22176" lon="-3.65658">
        <ele>66.4</ele>
        <time>2021-08-11T09:39:18Z</time>
      </trkpt>
      <trkpt lat="48.22184" lon="-3.65654">
        <ele>66.4</ele>
        <time>2021-08-11T09:39:19Z</time>
      </trkpt>
      <trkpt lat="48.22192" lon="-3.65651">
        <ele>66.4</ele>
        <time>2021-08-11T09:39:20Z</time>
      </trkpt>
      <trkpt lat="48.22199" lon="-3.65647">
        <ele>66.4</ele>
        <time>2021-08-11T09:39:21Z</time>
      </trkpt>
      <trkpt lat="48.22206" lon="-3.65644">
        <ele>66.4</ele>
        <time>2021-08-11T09:39:22Z</time>
      </trkpt>
      <trkpt lat="48.22213" lon="-3.65641">
        <ele>66.4</ele>
        <time>2021-08-11T09:39:23Z</time>
      </trkpt>
      <trkpt lat="48.2222" lon="-3.65638">
        <ele>66.4</ele>
        <time>2021-08-11T09:39:24Z</time>
      </trkpt>
      <trkpt lat="48.22229" lon="-3.65635">
        <ele>66.4</ele>
        <time>2021-08-11T09:39:25Z</time>
      </trkpt>
      <trkpt lat="48.22237" lon="-3.65631">
        <ele>66.4</ele>
        <time>2021-08-11T09:39:26Z</time>
      </trkpt>
      <trkpt lat="48.22244" lon="-3.65628">
        <ele>66.4</ele>
        <time>2021-08-11T09:39:27Z</time>
      </trkpt>
      <trkpt lat="48.22252" lon="-3.65626">
        <ele>66.4</ele>
        <time>2021-08-11T09:39:28Z</time>
      </trkpt>
      <trkpt lat="48.22259" lon="-3.65624">
        <ele>66.4</ele>
        <time>2021-08-11T09:39:29Z</time>
      </trkpt>
      <trkpt lat="48.22267" lon="-3.65622">
        <ele>66.4</ele>
        <time>2021-08-11T09:39:30Z</time>
      </trkpt>
      <trkpt lat="48.22275" lon="-3.65619">
        <ele>66.2</ele>
        <time>2021-08-11T09:39:31Z</time>
      </trkpt>
      <trkpt lat="48.22282" lon="-3.65616">
        <ele>66.2</ele>
        <time>2021-08-11T09:39:32Z</time>
      </trkpt>
      <trkpt lat="48.22288" lon="-3.65613">
        <ele>66.2</ele>
        <time>2021-08-11T09:39:33Z</time>
      </trkpt>
      <trkpt lat="48.22297" lon="-3.65608">
        <ele>66.2</ele>
        <time>2021-08-11T09:39:34Z</time>
      </trkpt>
      <trkpt lat="48.22303" lon="-3.65602">
        <ele>66.2</ele>
        <time>2021-08-11T09:39:35Z</time>
      </trkpt>
      <trkpt lat="48.22311" lon="-3.65592">
        <ele>66.2</ele>
        <time>2021-08-11T09:39:36Z</time>
      </trkpt>
      <trkpt lat="48.22318" lon="-3.65579">
        <ele>66</ele>
        <time>2021-08-11T09:39:37Z</time>
      </trkpt>
      <trkpt lat="48.22323" lon="-3.65568">
        <ele>66</ele>
        <time>2021-08-11T09:39:38Z</time>
      </trkpt>
      <trkpt lat="48.22325" lon="-3.65558">
        <ele>65.8</ele>
        <time>2021-08-11T09:39:39Z</time>
      </trkpt>
      <trkpt lat="48.22326" lon="-3.65548">
        <ele>65.8</ele>
        <time>2021-08-11T09:39:40Z</time>
      </trkpt>
      <trkpt lat="48.22327" lon="-3.65539">
        <ele>65.8</ele>
        <time>2021-08-11T09:39:41Z</time>
      </trkpt>
      <trkpt lat="48.22328" lon="-3.65529">
        <ele>65.8</ele>
        <time>2021-08-11T09:39:42Z</time>
      </trkpt>
      <trkpt lat="48.22329" lon="-3.6552">
        <ele>65.8</ele>
        <time>2021-08-11T09:39:43Z</time>
      </trkpt>
      <trkpt lat="48.22331" lon="-3.65511">
        <ele>66</ele>
        <time>2021-08-11T09:39:44Z</time>
      </trkpt>
      <trkpt lat="48.22332" lon="-3.65501">
        <ele>66</ele>
        <time>2021-08-11T09:39:45Z</time>
      </trkpt>
      <trkpt lat="48.22333" lon="-3.65491">
        <ele>66.2</ele>
        <time>2021-08-11T09:39:46Z</time>
      </trkpt>
      <trkpt lat="48.22341" lon="-3.6548">
        <ele>66.2</ele>
        <time>2021-08-11T09:39:47Z</time>
      </trkpt>
      <trkpt lat="48.22345" lon="-3.65469">
        <ele>66.4</ele>
        <time>2021-08-11T09:39:48Z</time>
      </trkpt>
      <trkpt lat="48.22347" lon="-3.65459">
        <ele>66.4</ele>
        <time>2021-08-11T09:39:49Z</time>
      </trkpt>
      <trkpt lat="48.22348" lon="-3.65449">
        <ele>66.4</ele>
        <time>2021-08-11T09:39:50Z</time>
      </trkpt>
      <trkpt lat="48.22349" lon="-3.6544">
        <ele>66.4</ele>
        <time>2021-08-11T09:39:51Z</time>
      </trkpt>
      <trkpt lat="48.2235" lon="-3.65431">
        <ele>66.4</ele>
        <time>2021-08-11T09:39:52Z</time>
      </trkpt>
      <trkpt lat="48.2235" lon="-3.65422">
        <ele>66.6</ele>
        <time>2021-08-11T09:39:53Z</time>
      </trkpt>
      <trkpt lat="48.2235" lon="-3.65414">
        <ele>66.8</ele>
        <time>2021-08-11T09:39:54Z</time>
      </trkpt>
      <trkpt lat="48.22351" lon="-3.65406">
        <ele>66.8</ele>
        <time>2021-08-11T09:39:55Z</time>
      </trkpt>
      <trkpt lat="48.22351" lon="-3.65398">
        <ele>66.8</ele>
        <time>2021-08-11T09:39:56Z</time>
      </trkpt>
      <trkpt lat="48.22351" lon="-3.65391">
        <ele>67</ele>
        <time>2021-08-11T09:39:57Z</time>
      </trkpt>
      <trkpt lat="48.2235" lon="-3.65383">
        <ele>67</ele>
        <time>2021-08-11T09:39:58Z</time>
      </trkpt>
      <trkpt lat="48.2235" lon="-3.65376">
        <ele>67.2</ele>
        <time>2021-08-11T09:39:59Z</time>
      </trkpt>
      <trkpt lat="48.2235" lon="-3.65369">
        <ele>67.2</ele>
        <time>2021-08-11T09:40:00Z</time>
      </trkpt>
      <trkpt lat="48.2235" lon="-3.65361">
        <ele>67.2</ele>
        <time>2021-08-11T09:40:01Z</time>
      </trkpt>
      <trkpt lat="48.2235" lon="-3.65354">
        <ele>67.2</ele>
        <time>2021-08-11T09:40:02Z</time>
      </trkpt>
      <trkpt lat="48.2235" lon="-3.65347">
        <ele>67.4</ele>
        <time>2021-08-11T09:40:03Z</time>
      </trkpt>
      <trkpt lat="48.2235" lon="-3.6534">
        <ele>67.6</ele>
        <time>2021-08-11T09:40:04Z</time>
      </trkpt>
      <trkpt lat="48.2235" lon="-3.65334">
        <ele>67.8</ele>
        <time>2021-08-11T09:40:05Z</time>
      </trkpt>
      <trkpt lat="48.22349" lon="-3.65328">
        <ele>68</ele>
        <time>2021-08-11T09:40:06Z</time>
      </trkpt>
      <trkpt lat="48.22349" lon="-3.65322">
        <ele>68</ele>
        <time>2021-08-11T09:40:07Z</time>
      </trkpt>
      <trkpt lat="48.22348" lon="-3.65317">
        <ele>68</ele>
        <time>2021-08-11T09:40:08Z</time>
      </trkpt>
      <trkpt lat="48.22348" lon="-3.65312">
        <ele>68.2</ele>
        <time>2021-08-11T09:40:09Z</time>
      </trkpt>
      <trkpt lat="48.22347" lon="-3.65307">
        <ele>68.2</ele>
        <time>2021-08-11T09:40:10Z</time>
      </trkpt>
      <trkpt lat="48.22346" lon="-3.65302">
        <ele>68.4</ele>
        <time>2021-08-11T09:40:11Z</time>
      </trkpt>
      <trkpt lat="48.22346" lon="-3.65298">
        <ele>68.4</ele>
        <time>2021-08-11T09:40:12Z</time>
      </trkpt>
      <trkpt lat="48.22345" lon="-3.65293">
        <ele>68.4</ele>
        <time>2021-08-11T09:40:13Z</time>
      </trkpt>
      <trkpt lat="48.22344" lon="-3.65289">
        <ele>68.6</ele>
        <time>2021-08-11T09:40:14Z</time>
      </trkpt>
      <trkpt lat="48.22343" lon="-3.65285">
        <ele>68.8</ele>
        <time>2021-08-11T09:40:15Z</time>
      </trkpt>
      <trkpt lat="48.22342" lon="-3.65282">
        <ele>69.2</ele>
        <time>2021-08-11T09:40:16Z</time>
      </trkpt>
      <trkpt lat="48.22341" lon="-3.65278">
        <ele>69.6</ele>
        <time>2021-08-11T09:40:17Z</time>
      </trkpt>
      <trkpt lat="48.2234" lon="-3.65274">
        <ele>69.8</ele>
        <time>2021-08-11T09:40:18Z</time>
      </trkpt>
      <trkpt lat="48.2234" lon="-3.6527">
        <ele>70</ele>
        <time>2021-08-11T09:40:19Z</time>
      </trkpt>
      <trkpt lat="48.22339" lon="-3.65266">
        <ele>70.2</ele>
        <time>2021-08-11T09:40:20Z</time>
      </trkpt>
      <trkpt lat="48.22339" lon="-3.65262">
        <ele>70.4</ele>
        <time>2021-08-11T09:40:21Z</time>
      </trkpt>
      <trkpt lat="48.22338" lon="-3.65258">
        <ele>71</ele>
        <time>2021-08-11T09:40:22Z</time>
      </trkpt>
      <trkpt lat="48.22338" lon="-3.65254">
        <ele>71.2</ele>
        <time>2021-08-11T09:40:23Z</time>
      </trkpt>
      <trkpt lat="48.22337" lon="-3.65251">
        <ele>71.2</ele>
        <time>2021-08-11T09:40:24Z</time>
      </trkpt>
      <trkpt lat="48.22336" lon="-3.65247">
        <ele>71.4</ele>
        <time>2021-08-11T09:40:25Z</time>
      </trkpt>
      <trkpt lat="48.22336" lon="-3.65243">
        <ele>71.6</ele>
        <time>2021-08-11T09:40:26Z</time>
      </trkpt>
      <trkpt lat="48.22335" lon="-3.6524">
        <ele>71.8</ele>
        <time>2021-08-11T09:40:27Z</time>
      </trkpt>
      <trkpt lat="48.22334" lon="-3.65236">
        <ele>72</ele>
        <time>2021-08-11T09:40:28Z</time>
      </trkpt>
      <trkpt lat="48.22333" lon="-3.65233">
        <ele>72.2</ele>
        <time>2021-08-11T09:40:29Z</time>
      </trkpt>
      <trkpt lat="48.22333" lon="-3.6523">
        <ele>72.2</ele>
        <time>2021-08-11T09:40:30Z</time>
      </trkpt>
      <trkpt lat="48.22332" lon="-3.65227">
        <ele>72.4</ele>
        <time>2021-08-11T09:40:31Z</time>
      </trkpt>
      <trkpt lat="48.22332" lon="-3.65225">
        <ele>72.8</ele>
        <time>2021-08-11T09:40:32Z</time>
      </trkpt>
      <trkpt lat="48.22331" lon="-3.65222">
        <ele>73</ele>
        <time>2021-08-11T09:40:33Z</time>
      </trkpt>
      <trkpt lat="48.22331" lon="-3.6522">
        <ele>73.2</ele>
        <time>2021-08-11T09:40:34Z</time>
      </trkpt>
      <trkpt lat="48.2233" lon="-3.65218">
        <ele>73.4</ele>
        <time>2021-08-11T09:40:35Z</time>
      </trkpt>
      <trkpt lat="48.2233" lon="-3.65216">
        <ele>73.6</ele>
        <time>2021-08-11T09:40:36Z</time>
      </trkpt>
      <trkpt lat="48.2233" lon="-3.65214">
        <ele>74</ele>
        <time>2021-08-11T09:40:37Z</time>
      </trkpt>
      <trkpt lat="48.22329" lon="-3.65212">
        <ele>74</ele>
        <time>2021-08-11T09:40:38Z</time>
      </trkpt>
      <trkpt lat="48.22328" lon="-3.65209">
        <ele>74.2</ele>
        <time>2021-08-11T09:40:39Z</time>
      </trkpt>
      <trkpt lat="48.22328" lon="-3.65208">
        <ele>74.4</ele>
        <time>2021-08-11T09:40:40Z</time>
      </trkpt>
      <trkpt lat="48.22327" lon="-3.65206">
        <ele>74.6</ele>
        <time>2021-08-11T09:40:41Z</time>
      </trkpt>
      <trkpt lat="48.22326" lon="-3.65204">
        <ele>74.8</ele>
        <time>2021-08-11T09:40:42Z</time>
      </trkpt>
      <trkpt lat="48.22326" lon="-3.65202">
        <ele>75</ele>
        <time>2021-08-11T09:40:43Z</time>
      </trkpt>
      <trkpt lat="48.22325" lon="-3.652">
        <ele>75.4</ele>
        <time>2021-08-11T09:40:44Z</time>
      </trkpt>
      <trkpt lat="48.22324" lon="-3.65198">
        <ele>75.6</ele>
        <time>2021-08-11T09:40:45Z</time>
      </trkpt>
      <trkpt lat="48.22324" lon="-3.65196">
        <ele>75.8</ele>
        <time>2021-08-11T09:40:46Z</time>
      </trkpt>
      <trkpt lat="48.22324" lon="-3.65194">
        <ele>75.6</ele>
        <time>2021-08-11T09:40:47Z</time>
      </trkpt>
      <trkpt lat="48.22323" lon="-3.65193">
        <ele>75.8</ele>
        <time>2021-08-11T09:40:48Z</time>
      </trkpt>
      <trkpt lat="48.22323" lon="-3.65191">
        <ele>76</ele>
        <time>2021-08-11T09:40:49Z</time>
      </trkpt>
      <trkpt lat="48.22323" lon="-3.65189">
        <ele>76.2</ele>
        <time>2021-08-11T09:40:50Z</time>
      </trkpt>
      <trkpt lat="48.22323" lon="-3.65187">
        <ele>76.6</ele>
        <time>2021-08-11T09:40:51Z</time>
      </trkpt>
      <trkpt lat="48.22324" lon="-3.65185">
        <ele>76.8</ele>
        <time>2021-08-11T09:40:52Z</time>
      </trkpt>
      <trkpt lat="48.22323" lon="-3.65183">
        <ele>76.8</ele>
        <time>2021-08-11T09:40:53Z</time>
      </trkpt>
      <trkpt lat="48.22323" lon="-3.6518">
        <ele>77</ele>
        <time>2021-08-11T09:40:54Z</time>
      </trkpt>
      <trkpt lat="48.22322" lon="-3.65178">
        <ele>77.2</ele>
        <time>2021-08-11T09:40:55Z</time>
      </trkpt>
      <trkpt lat="48.22322" lon="-3.65176">
        <ele>77.4</ele>
        <time>2021-08-11T09:40:56Z</time>
      </trkpt>
      <trkpt lat="48.22322" lon="-3.65173">
        <ele>77.4</ele>
        <time>2021-08-11T09:40:57Z</time>
      </trkpt>
      <trkpt lat="48.22322" lon="-3.65171">
        <ele>77.6</ele>
        <time>2021-08-11T09:40:58Z</time>
      </trkpt>
      <trkpt lat="48.22322" lon="-3.65168">
        <ele>77.8</ele>
        <time>2021-08-11T09:40:59Z</time>
      </trkpt>
      <trkpt lat="48.22322" lon="-3.65166">
        <ele>78</ele>
        <time>2021-08-11T09:41:00Z</time>
      </trkpt>
      <trkpt lat="48.22321" lon="-3.65163">
        <ele>78.2</ele>
        <time>2021-08-11T09:41:01Z</time>
      </trkpt>
      <trkpt lat="48.22321" lon="-3.6516">
        <ele>78.4</ele>
        <time>2021-08-11T09:41:02Z</time>
      </trkpt>
      <trkpt lat="48.2232" lon="-3.65157">
        <ele>78.6</ele>
        <time>2021-08-11T09:41:03Z</time>
      </trkpt>
      <trkpt lat="48.2232" lon="-3.65154">
        <ele>78.6</ele>
        <time>2021-08-11T09:41:04Z</time>
      </trkpt>
      <trkpt lat="48.2232" lon="-3.65151">
        <ele>78.8</ele>
        <time>2021-08-11T09:41:05Z</time>
      </trkpt>
      <trkpt lat="48.22319" lon="-3.65147">
        <ele>78.8</ele>
        <time>2021-08-11T09:41:06Z</time>
      </trkpt>
      <trkpt lat="48.22319" lon="-3.65144">
        <ele>79</ele>
        <time>2021-08-11T09:41:07Z</time>
      </trkpt>
      <trkpt lat="48.22319" lon="-3.6514">
        <ele>79.2</ele>
        <time>2021-08-11T09:41:08Z</time>
      </trkpt>
      <trkpt lat="48.22319" lon="-3.65137">
        <ele>79.4</ele>
        <time>2021-08-11T09:41:09Z</time>
      </trkpt>
      <trkpt lat="48.22319" lon="-3.65134">
        <ele>79.8</ele>
        <time>2021-08-11T09:41:10Z</time>
      </trkpt>
      <trkpt lat="48.22319" lon="-3.65132">
        <ele>79.8</ele>
        <time>2021-08-11T09:41:11Z</time>
      </trkpt>
      <trkpt lat="48.22319" lon="-3.65129">
        <ele>80</ele>
        <time>2021-08-11T09:41:12Z</time>
      </trkpt>
      <trkpt lat="48.22319" lon="-3.65126">
        <ele>80.2</ele>
        <time>2021-08-11T09:41:13Z</time>
      </trkpt>
      <trkpt lat="48.22319" lon="-3.65123">
        <ele>80.2</ele>
        <time>2021-08-11T09:41:14Z</time>
      </trkpt>
      <trkpt lat="48.22319" lon="-3.6512">
        <ele>80.4</ele>
        <time>2021-08-11T09:41:15Z</time>
      </trkpt>
      <trkpt lat="48.22319" lon="-3.65117">
        <ele>80.6</ele>
        <time>2021-08-11T09:41:16Z</time>
      </trkpt>
      <trkpt lat="48.22318" lon="-3.65114">
        <ele>80.8</ele>
        <time>2021-08-11T09:41:17Z</time>
      </trkpt>
      <trkpt lat="48.22318" lon="-3.65111">
        <ele>80.8</ele>
        <time>2021-08-11T09:41:18Z</time>
      </trkpt>
      <trkpt lat="48.22318" lon="-3.65107">
        <ele>81</ele>
        <time>2021-08-11T09:41:19Z</time>
      </trkpt>
      <trkpt lat="48.22318" lon="-3.65104">
        <ele>81.2</ele>
        <time>2021-08-11T09:41:20Z</time>
      </trkpt>
      <trkpt lat="48.22318" lon="-3.65101">
        <ele>81.6</ele>
        <time>2021-08-11T09:41:21Z</time>
      </trkpt>
      <trkpt lat="48.22317" lon="-3.65098">
        <ele>81.8</ele>
        <time>2021-08-11T09:41:22Z</time>
      </trkpt>
      <trkpt lat="48.22317" lon="-3.65095">
        <ele>82</ele>
        <time>2021-08-11T09:41:23Z</time>
      </trkpt>
      <trkpt lat="48.22317" lon="-3.65092">
        <ele>82.2</ele>
        <time>2021-08-11T09:41:24Z</time>
      </trkpt>
      <trkpt lat="48.22315" lon="-3.65089">
        <ele>82.4</ele>
        <time>2021-08-11T09:41:25Z</time>
      </trkpt>
      <trkpt lat="48.22314" lon="-3.65086">
        <ele>82.4</ele>
        <time>2021-08-11T09:41:26Z</time>
      </trkpt>
      <trkpt lat="48.22314" lon="-3.65083">
        <ele>82.6</ele>
        <time>2021-08-11T09:41:27Z</time>
      </trkpt>
      <trkpt lat="48.22313" lon="-3.6508">
        <ele>82.8</ele>
        <time>2021-08-11T09:41:28Z</time>
      </trkpt>
      <trkpt lat="48.22313" lon="-3.65077">
        <ele>83</ele>
        <time>2021-08-11T09:41:29Z</time>
      </trkpt>
      <trkpt lat="48.22313" lon="-3.65074">
        <ele>83.2</ele>
        <time>2021-08-11T09:41:30Z</time>
      </trkpt>
      <trkpt lat="48.22313" lon="-3.65071">
        <ele>83.4</ele>
        <time>2021-08-11T09:41:31Z</time>
      </trkpt>
      <trkpt lat="48.22313" lon="-3.65068">
        <ele>83.4</ele>
        <time>2021-08-11T09:41:32Z</time>
      </trkpt>
      <trkpt lat="48.22313" lon="-3.65065">
        <ele>83.6</ele>
        <time>2021-08-11T09:41:33Z</time>
      </trkpt>
      <trkpt lat="48.22312" lon="-3.65062">
        <ele>83.8</ele>
        <time>2021-08-11T09:41:34Z</time>
      </trkpt>
      <trkpt lat="48.22312" lon="-3.6506">
        <ele>84</ele>
        <time>2021-08-11T09:41:35Z</time>
      </trkpt>
      <trkpt lat="48.22312" lon="-3.65057">
        <ele>84.2</ele>
        <time>2021-08-11T09:41:36Z</time>
      </trkpt>
      <trkpt lat="48.22311" lon="-3.65054">
        <ele>84.2</ele>
        <time>2021-08-11T09:41:37Z</time>
      </trkpt>
      <trkpt lat="48.22311" lon="-3.65051">
        <ele>84.4</ele>
        <time>2021-08-11T09:41:38Z</time>
      </trkpt>
      <trkpt lat="48.22311" lon="-3.65048">
        <ele>84.6</ele>
        <time>2021-08-11T09:41:39Z</time>
      </trkpt>
      <trkpt lat="48.22311" lon="-3.65046">
        <ele>84.8</ele>
        <time>2021-08-11T09:41:40Z</time>
      </trkpt>
      <trkpt lat="48.22309" lon="-3.65043">
        <ele>85</ele>
        <time>2021-08-11T09:41:41Z</time>
      </trkpt>
      <trkpt lat="48.22308" lon="-3.6504">
        <ele>85.2</ele>
        <time>2021-08-11T09:41:42Z</time>
      </trkpt>
      <trkpt lat="48.22308" lon="-3.65037">
        <ele>85.2</ele>
        <time>2021-08-11T09:41:43Z</time>
      </trkpt>
      <trkpt lat="48.22307" lon="-3.65034">
        <ele>85.4</ele>
        <time>2021-08-11T09:41:44Z</time>
      </trkpt>
      <trkpt lat="48.22307" lon="-3.6503">
        <ele>85.6</ele>
        <time>2021-08-11T09:41:45Z</time>
      </trkpt>
      <trkpt lat="48.22307" lon="-3.65027">
        <ele>85.8</ele>
        <time>2021-08-11T09:41:46Z</time>
      </trkpt>
      <trkpt lat="48.22306" lon="-3.65023">
        <ele>86</ele>
        <time>2021-08-11T09:41:47Z</time>
      </trkpt>
      <trkpt lat="48.22306" lon="-3.6502">
        <ele>86.2</ele>
        <time>2021-08-11T09:41:48Z</time>
      </trkpt>
      <trkpt lat="48.22306" lon="-3.65016">
        <ele>86</ele>
        <time>2021-08-11T09:41:49Z</time>
      </trkpt>
      <trkpt lat="48.22306" lon="-3.65013">
        <ele>86.4</ele>
        <time>2021-08-11T09:41:50Z</time>
      </trkpt>
      <trkpt lat="48.22305" lon="-3.6501">
        <ele>86.6</ele>
        <time>2021-08-11T09:41:51Z</time>
      </trkpt>
      <trkpt lat="48.22305" lon="-3.65007">
        <ele>86.8</ele>
        <time>2021-08-11T09:41:52Z</time>
      </trkpt>
      <trkpt lat="48.22305" lon="-3.65004">
        <ele>87</ele>
        <time>2021-08-11T09:41:53Z</time>
      </trkpt>
      <trkpt lat="48.22304" lon="-3.65001">
        <ele>87.2</ele>
        <time>2021-08-11T09:41:54Z</time>
      </trkpt>
      <trkpt lat="48.22304" lon="-3.64998">
        <ele>87.4</ele>
        <time>2021-08-11T09:41:55Z</time>
      </trkpt>
      <trkpt lat="48.22303" lon="-3.64994">
        <ele>87.6</ele>
        <time>2021-08-11T09:41:56Z</time>
      </trkpt>
      <trkpt lat="48.22303" lon="-3.64991">
        <ele>87.8</ele>
        <time>2021-08-11T09:41:57Z</time>
      </trkpt>
      <trkpt lat="48.22303" lon="-3.64988">
        <ele>87.8</ele>
        <time>2021-08-11T09:41:58Z</time>
      </trkpt>
      <trkpt lat="48.22304" lon="-3.64984">
        <ele>88</ele>
        <time>2021-08-11T09:41:59Z</time>
      </trkpt>
      <trkpt lat="48.22304" lon="-3.6498">
        <ele>88.2</ele>
        <time>2021-08-11T09:42:00Z</time>
      </trkpt>
      <trkpt lat="48.22304" lon="-3.64976">
        <ele>88.4</ele>
        <time>2021-08-11T09:42:01Z</time>
      </trkpt>
      <trkpt lat="48.22304" lon="-3.64972">
        <ele>88.6</ele>
        <time>2021-08-11T09:42:02Z</time>
      </trkpt>
      <trkpt lat="48.22305" lon="-3.64968">
        <ele>88.6</ele>
        <time>2021-08-11T09:42:03Z</time>
      </trkpt>
      <trkpt lat="48.22305" lon="-3.64965">
        <ele>88.8</ele>
        <time>2021-08-11T09:42:04Z</time>
      </trkpt>
      <trkpt lat="48.22305" lon="-3.64961">
        <ele>88.8</ele>
        <time>2021-08-11T09:42:05Z</time>
      </trkpt>
      <trkpt lat="48.22305" lon="-3.64958">
        <ele>89</ele>
        <time>2021-08-11T09:42:06Z</time>
      </trkpt>
      <trkpt lat="48.22304" lon="-3.64955">
        <ele>89.2</ele>
        <time>2021-08-11T09:42:07Z</time>
      </trkpt>
      <trkpt lat="48.22304" lon="-3.64952">
        <ele>89.4</ele>
        <time>2021-08-11T09:42:08Z</time>
      </trkpt>
      <trkpt lat="48.22304" lon="-3.6495">
        <ele>89.6</ele>
        <time>2021-08-11T09:42:09Z</time>
      </trkpt>
      <trkpt lat="48.22304" lon="-3.64947">
        <ele>89.6</ele>
        <time>2021-08-11T09:42:10Z</time>
      </trkpt>
      <trkpt lat="48.22304" lon="-3.64944">
        <ele>89.8</ele>
        <time>2021-08-11T09:42:11Z</time>
      </trkpt>
      <trkpt lat="48.22304" lon="-3.64941">
        <ele>90</ele>
        <time>2021-08-11T09:42:12Z</time>
      </trkpt>
      <trkpt lat="48.22305" lon="-3.64938">
        <ele>90.2</ele>
        <time>2021-08-11T09:42:13Z</time>
      </trkpt>
      <trkpt lat="48.22304" lon="-3.64935">
        <ele>90.4</ele>
        <time>2021-08-11T09:42:14Z</time>
      </trkpt>
      <trkpt lat="48.22304" lon="-3.64932">
        <ele>90.6</ele>
        <time>2021-08-11T09:42:15Z</time>
      </trkpt>
      <trkpt lat="48.22303" lon="-3.64929">
        <ele>90.8</ele>
        <time>2021-08-11T09:42:16Z</time>
      </trkpt>
      <trkpt lat="48.22303" lon="-3.64926">
        <ele>91</ele>
        <time>2021-08-11T09:42:17Z</time>
      </trkpt>
      <trkpt lat="48.22303" lon="-3.64923">
        <ele>91.2</ele>
        <time>2021-08-11T09:42:18Z</time>
      </trkpt>
      <trkpt lat="48.22303" lon="-3.6492">
        <ele>91.6</ele>
        <time>2021-08-11T09:42:19Z</time>
      </trkpt>
      <trkpt lat="48.22303" lon="-3.64917">
        <ele>91.8</ele>
        <time>2021-08-11T09:42:20Z</time>
      </trkpt>
      <trkpt lat="48.22302" lon="-3.64914">
        <ele>92</ele>
        <time>2021-08-11T09:42:21Z</time>
      </trkpt>
      <trkpt lat="48.22302" lon="-3.6491">
        <ele>92.4</ele>
        <time>2021-08-11T09:42:22Z</time>
      </trkpt>
      <trkpt lat="48.22302" lon="-3.64907">
        <ele>92.6</ele>
        <time>2021-08-11T09:42:23Z</time>
      </trkpt>
      <trkpt lat="48.22302" lon="-3.64904">
        <ele>92.8</ele>
        <time>2021-08-11T09:42:24Z</time>
      </trkpt>
      <trkpt lat="48.22302" lon="-3.64901">
        <ele>93</ele>
        <time>2021-08-11T09:42:25Z</time>
      </trkpt>
      <trkpt lat="48.22304" lon="-3.64898">
        <ele>93.2</ele>
        <time>2021-08-11T09:42:26Z</time>
      </trkpt>
      <trkpt lat="48.22304" lon="-3.64895">
        <ele>93.4</ele>
        <time>2021-08-11T09:42:27Z</time>
      </trkpt>
      <trkpt lat="48.22304" lon="-3.64892">
        <ele>93.4</ele>
        <time>2021-08-11T09:42:28Z</time>
      </trkpt>
      <trkpt lat="48.22304" lon="-3.64889">
        <ele>93.6</ele>
        <time>2021-08-11T09:42:29Z</time>
      </trkpt>
      <trkpt lat="48.22303" lon="-3.64887">
        <ele>94</ele>
        <time>2021-08-11T09:42:30Z</time>
      </trkpt>
      <trkpt lat="48.22303" lon="-3.64884">
        <ele>94.2</ele>
        <time>2021-08-11T09:42:31Z</time>
      </trkpt>
      <trkpt lat="48.22303" lon="-3.64881">
        <ele>94.4</ele>
        <time>2021-08-11T09:42:32Z</time>
      </trkpt>
      <trkpt lat="48.22302" lon="-3.64878">
        <ele>94.4</ele>
        <time>2021-08-11T09:42:33Z</time>
      </trkpt>
      <trkpt lat="48.22302" lon="-3.64875">
        <ele>94.6</ele>
        <time>2021-08-11T09:42:34Z</time>
      </trkpt>
      <trkpt lat="48.22302" lon="-3.64872">
        <ele>94.8</ele>
        <time>2021-08-11T09:42:35Z</time>
      </trkpt>
      <trkpt lat="48.22302" lon="-3.64868">
        <ele>95</ele>
        <time>2021-08-11T09:42:36Z</time>
      </trkpt>
      <trkpt lat="48.22304" lon="-3.64865">
        <ele>95.2</ele>
        <time>2021-08-11T09:42:37Z</time>
      </trkpt>
      <trkpt lat="48.22306" lon="-3.64861">
        <ele>95.4</ele>
        <time>2021-08-11T09:42:38Z</time>
      </trkpt>
      <trkpt lat="48.22307" lon="-3.64858">
        <ele>95.6</ele>
        <time>2021-08-11T09:42:39Z</time>
      </trkpt>
      <trkpt lat="48.22307" lon="-3.64855">
        <ele>95.8</ele>
        <time>2021-08-11T09:42:40Z</time>
      </trkpt>
      <trkpt lat="48.22308" lon="-3.64851">
        <ele>96</ele>
        <time>2021-08-11T09:42:41Z</time>
      </trkpt>
      <trkpt lat="48.22309" lon="-3.64847">
        <ele>96</ele>
        <time>2021-08-11T09:42:42Z</time>
      </trkpt>
      <trkpt lat="48.22311" lon="-3.64844">
        <ele>96.2</ele>
        <time>2021-08-11T09:42:43Z</time>
      </trkpt>
      <trkpt lat="48.22312" lon="-3.6484">
        <ele>96.4</ele>
        <time>2021-08-11T09:42:44Z</time>
      </trkpt>
      <trkpt lat="48.22313" lon="-3.64836">
        <ele>96.4</ele>
        <time>2021-08-11T09:42:45Z</time>
      </trkpt>
      <trkpt lat="48.22314" lon="-3.64832">
        <ele>96.6</ele>
        <time>2021-08-11T09:42:46Z</time>
      </trkpt>
      <trkpt lat="48.22314" lon="-3.64828">
        <ele>96.8</ele>
        <time>2021-08-11T09:42:47Z</time>
      </trkpt>
      <trkpt lat="48.22315" lon="-3.64825">
        <ele>97</ele>
        <time>2021-08-11T09:42:48Z</time>
      </trkpt>
      <trkpt lat="48.22316" lon="-3.64821">
        <ele>97.2</ele>
        <time>2021-08-11T09:42:49Z</time>
      </trkpt>
      <trkpt lat="48.22316" lon="-3.64817">
        <ele>97.4</ele>
        <time>2021-08-11T09:42:50Z</time>
      </trkpt>
      <trkpt lat="48.22317" lon="-3.64814">
        <ele>97.6</ele>
        <time>2021-08-11T09:42:51Z</time>
      </trkpt>
      <trkpt lat="48.22319" lon="-3.6481">
        <ele>97.6</ele>
        <time>2021-08-11T09:42:52Z</time>
      </trkpt>
      <trkpt lat="48.22319" lon="-3.64806">
        <ele>97.8</ele>
        <time>2021-08-11T09:42:53Z</time>
      </trkpt>
      <trkpt lat="48.2232" lon="-3.64802">
        <ele>98</ele>
        <time>2021-08-11T09:42:54Z</time>
      </trkpt>
      <trkpt lat="48.2232" lon="-3.64799">
        <ele>98.2</ele>
        <time>2021-08-11T09:42:55Z</time>
      </trkpt>
      <trkpt lat="48.22321" lon="-3.64795">
        <ele>98.4</ele>
        <time>2021-08-11T09:42:56Z</time>
      </trkpt>
      <trkpt lat="48.22321" lon="-3.64791">
        <ele>98.8</ele>
        <time>2021-08-11T09:42:57Z</time>
      </trkpt>
      <trkpt lat="48.22322" lon="-3.64787">
        <ele>99</ele>
        <time>2021-08-11T09:42:58Z</time>
      </trkpt>
      <trkpt lat="48.22322" lon="-3.64784">
        <ele>99.2</ele>
        <time>2021-08-11T09:42:59Z</time>
      </trkpt>
      <trkpt lat="48.22323" lon="-3.6478">
        <ele>99.4</ele>
        <time>2021-08-11T09:43:00Z</time>
      </trkpt>
      <trkpt lat="48.22324" lon="-3.64776">
        <ele>99.6</ele>
        <time>2021-08-11T09:43:01Z</time>
      </trkpt>
      <trkpt lat="48.22325" lon="-3.64772">
        <ele>99.8</ele>
        <time>2021-08-11T09:43:02Z</time>
      </trkpt>
      <trkpt lat="48.22326" lon="-3.64768">
        <ele>99.8</ele>
        <time>2021-08-11T09:43:03Z</time>
      </trkpt>
      <trkpt lat="48.22327" lon="-3.64764">
        <ele>100</ele>
        <time>2021-08-11T09:43:04Z</time>
      </trkpt>
      <trkpt lat="48.22328" lon="-3.6476">
        <ele>100.2</ele>
        <time>2021-08-11T09:43:05Z</time>
      </trkpt>
      <trkpt lat="48.22329" lon="-3.64757">
        <ele>100.2</ele>
        <time>2021-08-11T09:43:06Z</time>
      </trkpt>
      <trkpt lat="48.2233" lon="-3.64753">
        <ele>100.4</ele>
        <time>2021-08-11T09:43:07Z</time>
      </trkpt>
      <trkpt lat="48.22331" lon="-3.64749">
        <ele>100.6</ele>
        <time>2021-08-11T09:43:08Z</time>
      </trkpt>
      <trkpt lat="48.22332" lon="-3.64745">
        <ele>100.8</ele>
        <time>2021-08-11T09:43:09Z</time>
      </trkpt>
      <trkpt lat="48.22333" lon="-3.6474">
        <ele>101</ele>
        <time>2021-08-11T09:43:10Z</time>
      </trkpt>
      <trkpt lat="48.22334" lon="-3.64737">
        <ele>101.2</ele>
        <time>2021-08-11T09:43:11Z</time>
      </trkpt>
      <trkpt lat="48.22335" lon="-3.64733">
        <ele>101.4</ele>
        <time>2021-08-11T09:43:12Z</time>
      </trkpt>
      <trkpt lat="48.22336" lon="-3.64729">
        <ele>101.6</ele>
        <time>2021-08-11T09:43:13Z</time>
      </trkpt>
      <trkpt lat="48.22336" lon="-3.64724">
        <ele>101.8</ele>
        <time>2021-08-11T09:43:14Z</time>
      </trkpt>
      <trkpt lat="48.22337" lon="-3.6472">
        <ele>101.8</ele>
        <time>2021-08-11T09:43:15Z</time>
      </trkpt>
      <trkpt lat="48.22338" lon="-3.64716">
        <ele>102</ele>
        <time>2021-08-11T09:43:16Z</time>
      </trkpt>
      <trkpt lat="48.22339" lon="-3.64712">
        <ele>102.4</ele>
        <time>2021-08-11T09:43:17Z</time>
      </trkpt>
      <trkpt lat="48.2234" lon="-3.64709">
        <ele>102.6</ele>
        <time>2021-08-11T09:43:18Z</time>
      </trkpt>
      <trkpt lat="48.22341" lon="-3.64705">
        <ele>102.6</ele>
        <time>2021-08-11T09:43:19Z</time>
      </trkpt>
      <trkpt lat="48.22342" lon="-3.64701">
        <ele>102.8</ele>
        <time>2021-08-11T09:43:20Z</time>
      </trkpt>
      <trkpt lat="48.22342" lon="-3.64698">
        <ele>103</ele>
        <time>2021-08-11T09:43:21Z</time>
      </trkpt>
      <trkpt lat="48.22343" lon="-3.64694">
        <ele>103.4</ele>
        <time>2021-08-11T09:43:22Z</time>
      </trkpt>
      <trkpt lat="48.22344" lon="-3.6469">
        <ele>103.6</ele>
        <time>2021-08-11T09:43:23Z</time>
      </trkpt>
      <trkpt lat="48.22344" lon="-3.64687">
        <ele>103.8</ele>
        <time>2021-08-11T09:43:24Z</time>
      </trkpt>
      <trkpt lat="48.22345" lon="-3.64683">
        <ele>104</ele>
        <time>2021-08-11T09:43:25Z</time>
      </trkpt>
      <trkpt lat="48.22346" lon="-3.64679">
        <ele>104.2</ele>
        <time>2021-08-11T09:43:26Z</time>
      </trkpt>
      <trkpt lat="48.22346" lon="-3.64676">
        <ele>104.4</ele>
        <time>2021-08-11T09:43:27Z</time>
      </trkpt>
      <trkpt lat="48.22347" lon="-3.64672">
        <ele>104.6</ele>
        <time>2021-08-11T09:43:28Z</time>
      </trkpt>
      <trkpt lat="48.22347" lon="-3.64669">
        <ele>104.8</ele>
        <time>2021-08-11T09:43:29Z</time>
      </trkpt>
      <trkpt lat="48.22348" lon="-3.64665">
        <ele>105</ele>
        <time>2021-08-11T09:43:30Z</time>
      </trkpt>
      <trkpt lat="48.22349" lon="-3.64661">
        <ele>105.2</ele>
        <time>2021-08-11T09:43:31Z</time>
      </trkpt>
      <trkpt lat="48.22349" lon="-3.64658">
        <ele>105.4</ele>
        <time>2021-08-11T09:43:32Z</time>
      </trkpt>
      <trkpt lat="48.2235" lon="-3.64654">
        <ele>105.6</ele>
        <time>2021-08-11T09:43:33Z</time>
      </trkpt>
      <trkpt lat="48.22351" lon="-3.6465">
        <ele>105.8</ele>
        <time>2021-08-11T09:43:34Z</time>
      </trkpt>
      <trkpt lat="48.22352" lon="-3.64646">
        <ele>106</ele>
        <time>2021-08-11T09:43:35Z</time>
      </trkpt>
      <trkpt lat="48.22353" lon="-3.64642">
        <ele>106.2</ele>
        <time>2021-08-11T09:43:36Z</time>
      </trkpt>
      <trkpt lat="48.22353" lon="-3.64639">
        <ele>106.4</ele>
        <time>2021-08-11T09:43:37Z</time>
      </trkpt>
      <trkpt lat="48.22354" lon="-3.64635">
        <ele>106.4</ele>
        <time>2021-08-11T09:43:38Z</time>
      </trkpt>
      <trkpt lat="48.22355" lon="-3.64631">
        <ele>106.4</ele>
        <time>2021-08-11T09:43:39Z</time>
      </trkpt>
      <trkpt lat="48.22355" lon="-3.64627">
        <ele>106.6</ele>
        <time>2021-08-11T09:43:40Z</time>
      </trkpt>
      <trkpt lat="48.22355" lon="-3.64623">
        <ele>106.8</ele>
        <time>2021-08-11T09:43:41Z</time>
      </trkpt>
      <trkpt lat="48.22356" lon="-3.64619">
        <ele>107</ele>
        <time>2021-08-11T09:43:42Z</time>
      </trkpt>
      <trkpt lat="48.22357" lon="-3.64615">
        <ele>107.2</ele>
        <time>2021-08-11T09:43:43Z</time>
      </trkpt>
      <trkpt lat="48.22357" lon="-3.64611">
        <ele>107.4</ele>
        <time>2021-08-11T09:43:44Z</time>
      </trkpt>
      <trkpt lat="48.22358" lon="-3.64607">
        <ele>107.6</ele>
        <time>2021-08-11T09:43:45Z</time>
      </trkpt>
      <trkpt lat="48.22358" lon="-3.64602">
        <ele>107.8</ele>
        <time>2021-08-11T09:43:46Z</time>
      </trkpt>
      <trkpt lat="48.22358" lon="-3.64598">
        <ele>108</ele>
        <time>2021-08-11T09:43:47Z</time>
      </trkpt>
      <trkpt lat="48.22359" lon="-3.64594">
        <ele>108.2</ele>
        <time>2021-08-11T09:43:48Z</time>
      </trkpt>
      <trkpt lat="48.22359" lon="-3.64589">
        <ele>108.2</ele>
        <time>2021-08-11T09:43:49Z</time>
      </trkpt>
      <trkpt lat="48.22359" lon="-3.64585">
        <ele>108.2</ele>
        <time>2021-08-11T09:43:50Z</time>
      </trkpt>
      <trkpt lat="48.2236" lon="-3.6458">
        <ele>108.4</ele>
        <time>2021-08-11T09:43:51Z</time>
      </trkpt>
      <trkpt lat="48.2236" lon="-3.64575">
        <ele>108.4</ele>
        <time>2021-08-11T09:43:52Z</time>
      </trkpt>
      <trkpt lat="48.22361" lon="-3.6457">
        <ele>108.4</ele>
        <time>2021-08-11T09:43:53Z</time>
      </trkpt>
      <trkpt lat="48.22361" lon="-3.64566">
        <ele>108.6</ele>
        <time>2021-08-11T09:43:54Z</time>
      </trkpt>
      <trkpt lat="48.22362" lon="-3.64561">
        <ele>108.8</ele>
        <time>2021-08-11T09:43:55Z</time>
      </trkpt>
      <trkpt lat="48.22363" lon="-3.64556">
        <ele>109</ele>
        <time>2021-08-11T09:43:56Z</time>
      </trkpt>
      <trkpt lat="48.22363" lon="-3.64551">
        <ele>109</ele>
        <time>2021-08-11T09:43:57Z</time>
      </trkpt>
      <trkpt lat="48.22364" lon="-3.64546">
        <ele>109</ele>
        <time>2021-08-11T09:43:58Z</time>
      </trkpt>
      <trkpt lat="48.22364" lon="-3.64541">
        <ele>109.2</ele>
        <time>2021-08-11T09:43:59Z</time>
      </trkpt>
      <trkpt lat="48.22364" lon="-3.64537">
        <ele>109.4</ele>
        <time>2021-08-11T09:44:00Z</time>
      </trkpt>
      <trkpt lat="48.22364" lon="-3.64532">
        <ele>109.6</ele>
        <time>2021-08-11T09:44:01Z</time>
      </trkpt>
      <trkpt lat="48.22364" lon="-3.64528">
        <ele>109.8</ele>
        <time>2021-08-11T09:44:02Z</time>
      </trkpt>
      <trkpt lat="48.22364" lon="-3.64524">
        <ele>110</ele>
        <time>2021-08-11T09:44:03Z</time>
      </trkpt>
      <trkpt lat="48.22364" lon="-3.6452">
        <ele>110.4</ele>
        <time>2021-08-11T09:44:04Z</time>
      </trkpt>
      <trkpt lat="48.22365" lon="-3.64516">
        <ele>110.4</ele>
        <time>2021-08-11T09:44:05Z</time>
      </trkpt>
      <trkpt lat="48.22365" lon="-3.64512">
        <ele>110.4</ele>
        <time>2021-08-11T09:44:06Z</time>
      </trkpt>
      <trkpt lat="48.22365" lon="-3.64508">
        <ele>110.6</ele>
        <time>2021-08-11T09:44:07Z</time>
      </trkpt>
      <trkpt lat="48.22365" lon="-3.64504">
        <ele>110.8</ele>
        <time>2021-08-11T09:44:08Z</time>
      </trkpt>
      <trkpt lat="48.22366" lon="-3.645">
        <ele>110.8</ele>
        <time>2021-08-11T09:44:09Z</time>
      </trkpt>
      <trkpt lat="48.22366" lon="-3.64496">
        <ele>111</ele>
        <time>2021-08-11T09:44:10Z</time>
      </trkpt>
      <trkpt lat="48.22366" lon="-3.64491">
        <ele>111.4</ele>
        <time>2021-08-11T09:44:11Z</time>
      </trkpt>
      <trkpt lat="48.22366" lon="-3.64487">
        <ele>111.6</ele>
        <time>2021-08-11T09:44:12Z</time>
      </trkpt>
      <trkpt lat="48.22366" lon="-3.64483">
        <ele>111.8</ele>
        <time>2021-08-11T09:44:13Z</time>
      </trkpt>
      <trkpt lat="48.22367" lon="-3.64479">
        <ele>112</ele>
        <time>2021-08-11T09:44:14Z</time>
      </trkpt>
      <trkpt lat="48.22367" lon="-3.64475">
        <ele>112.2</ele>
        <time>2021-08-11T09:44:15Z</time>
      </trkpt>
      <trkpt lat="48.22367" lon="-3.64471">
        <ele>112.2</ele>
        <time>2021-08-11T09:44:16Z</time>
      </trkpt>
      <trkpt lat="48.22367" lon="-3.64467">
        <ele>112.6</ele>
        <time>2021-08-11T09:44:17Z</time>
      </trkpt>
      <trkpt lat="48.22368" lon="-3.64463">
        <ele>113</ele>
        <time>2021-08-11T09:44:18Z</time>
      </trkpt>
      <trkpt lat="48.22368" lon="-3.64459">
        <ele>113.2</ele>
        <time>2021-08-11T09:44:19Z</time>
      </trkpt>
      <trkpt lat="48.22368" lon="-3.64455">
        <ele>113.4</ele>
        <time>2021-08-11T09:44:20Z</time>
      </trkpt>
      <trkpt lat="48.22369" lon="-3.64451">
        <ele>113.6</ele>
        <time>2021-08-11T09:44:21Z</time>
      </trkpt>
      <trkpt lat="48.22369" lon="-3.64446">
        <ele>113.8</ele>
        <time>2021-08-11T09:44:22Z</time>
      </trkpt>
      <trkpt lat="48.2237" lon="-3.64442">
        <ele>114</ele>
        <time>2021-08-11T09:44:23Z</time>
      </trkpt>
      <trkpt lat="48.2237" lon="-3.64438">
        <ele>114.2</ele>
        <time>2021-08-11T09:44:24Z</time>
      </trkpt>
      <trkpt lat="48.22371" lon="-3.64434">
        <ele>114.2</ele>
        <time>2021-08-11T09:44:25Z</time>
      </trkpt>
      <trkpt lat="48.22371" lon="-3.64431">
        <ele>114.4</ele>
        <time>2021-08-11T09:44:26Z</time>
      </trkpt>
      <trkpt lat="48.22371" lon="-3.64427">
        <ele>114.6</ele>
        <time>2021-08-11T09:44:27Z</time>
      </trkpt>
      <trkpt lat="48.2237" lon="-3.64423">
        <ele>114.8</ele>
        <time>2021-08-11T09:44:28Z</time>
      </trkpt>
      <trkpt lat="48.2237" lon="-3.6442">
        <ele>114.8</ele>
        <time>2021-08-11T09:44:29Z</time>
      </trkpt>
      <trkpt lat="48.22369" lon="-3.64416">
        <ele>115</ele>
        <time>2021-08-11T09:44:30Z</time>
      </trkpt>
      <trkpt lat="48.22369" lon="-3.64413">
        <ele>115.2</ele>
        <time>2021-08-11T09:44:31Z</time>
      </trkpt>
      <trkpt lat="48.22368" lon="-3.64409">
        <ele>115.4</ele>
        <time>2021-08-11T09:44:32Z</time>
      </trkpt>
      <trkpt lat="48.22367" lon="-3.64406">
        <ele>115.6</ele>
        <time>2021-08-11T09:44:33Z</time>
      </trkpt>
      <trkpt lat="48.22366" lon="-3.64403">
        <ele>115.8</ele>
        <time>2021-08-11T09:44:34Z</time>
      </trkpt>
      <trkpt lat="48.22365" lon="-3.644">
        <ele>116.2</ele>
        <time>2021-08-11T09:44:35Z</time>
      </trkpt>
      <trkpt lat="48.22364" lon="-3.64397">
        <ele>116.2</ele>
        <time>2021-08-11T09:44:36Z</time>
      </trkpt>
      <trkpt lat="48.22363" lon="-3.64394">
        <ele>116.2</ele>
        <time>2021-08-11T09:44:37Z</time>
      </trkpt>
      <trkpt lat="48.22361" lon="-3.64392">
        <ele>116.4</ele>
        <time>2021-08-11T09:44:38Z</time>
      </trkpt>
      <trkpt lat="48.2236" lon="-3.64389">
        <ele>116.6</ele>
        <time>2021-08-11T09:44:39Z</time>
      </trkpt>
      <trkpt lat="48.22358" lon="-3.64386">
        <ele>116.8</ele>
        <time>2021-08-11T09:44:40Z</time>
      </trkpt>
      <trkpt lat="48.22356" lon="-3.64384">
        <ele>117</ele>
        <time>2021-08-11T09:44:41Z</time>
      </trkpt>
      <trkpt lat="48.22354" lon="-3.64381">
        <ele>117.2</ele>
        <time>2021-08-11T09:44:42Z</time>
      </trkpt>
      <trkpt lat="48.22352" lon="-3.64379">
        <ele>117.2</ele>
        <time>2021-08-11T09:44:43Z</time>
      </trkpt>
      <trkpt lat="48.2235" lon="-3.64377">
        <ele>117.6</ele>
        <time>2021-08-11T09:44:44Z</time>
      </trkpt>
      <trkpt lat="48.22348" lon="-3.64375">
        <ele>117.8</ele>
        <time>2021-08-11T09:44:45Z</time>
      </trkpt>
      <trkpt lat="48.22346" lon="-3.64372">
        <ele>118</ele>
        <time>2021-08-11T09:44:46Z</time>
      </trkpt>
      <trkpt lat="48.22344" lon="-3.6437">
        <ele>118</ele>
        <time>2021-08-11T09:44:47Z</time>
      </trkpt>
      <trkpt lat="48.22342" lon="-3.64368">
        <ele>118.2</ele>
        <time>2021-08-11T09:44:48Z</time>
      </trkpt>
      <trkpt lat="48.22339" lon="-3.64367">
        <ele>118.2</ele>
        <time>2021-08-11T09:44:49Z</time>
      </trkpt>
      <trkpt lat="48.22337" lon="-3.64365">
        <ele>118.4</ele>
        <time>2021-08-11T09:44:50Z</time>
      </trkpt>
      <trkpt lat="48.22334" lon="-3.64363">
        <ele>118.6</ele>
        <time>2021-08-11T09:44:51Z</time>
      </trkpt>
      <trkpt lat="48.22332" lon="-3.64362">
        <ele>118.8</ele>
        <time>2021-08-11T09:44:52Z</time>
      </trkpt>
      <trkpt lat="48.2233" lon="-3.6436">
        <ele>118.8</ele>
        <time>2021-08-11T09:44:53Z</time>
      </trkpt>
      <trkpt lat="48.22327" lon="-3.64359">
        <ele>119.2</ele>
        <time>2021-08-11T09:44:54Z</time>
      </trkpt>
      <trkpt lat="48.22325" lon="-3.64357">
        <ele>119.4</ele>
        <time>2021-08-11T09:44:55Z</time>
      </trkpt>
      <trkpt lat="48.22322" lon="-3.64356">
        <ele>119.4</ele>
        <time>2021-08-11T09:44:56Z</time>
      </trkpt>
      <trkpt lat="48.22319" lon="-3.64354">
        <ele>119.6</ele>
        <time>2021-08-11T09:44:57Z</time>
      </trkpt>
      <trkpt lat="48.22317" lon="-3.64352">
        <ele>119.6</ele>
        <time>2021-08-11T09:44:58Z</time>
      </trkpt>
      <trkpt lat="48.22315" lon="-3.64351">
        <ele>119.6</ele>
        <time>2021-08-11T09:44:59Z</time>
      </trkpt>
      <trkpt lat="48.22312" lon="-3.64349">
        <ele>119.8</ele>
        <time>2021-08-11T09:45:00Z</time>
      </trkpt>
      <trkpt lat="48.2231" lon="-3.64348">
        <ele>119.8</ele>
        <time>2021-08-11T09:45:01Z</time>
      </trkpt>
      <trkpt lat="48.22307" lon="-3.64346">
        <ele>120</ele>
        <time>2021-08-11T09:45:02Z</time>
      </trkpt>
      <trkpt lat="48.22305" lon="-3.64344">
        <ele>120.2</ele>
        <time>2021-08-11T09:45:03Z</time>
      </trkpt>
      <trkpt lat="48.22302" lon="-3.64342">
        <ele>120.4</ele>
        <time>2021-08-11T09:45:04Z</time>
      </trkpt>
      <trkpt lat="48.22299" lon="-3.6434">
        <ele>120.6</ele>
        <time>2021-08-11T09:45:05Z</time>
      </trkpt>
      <trkpt lat="48.22297" lon="-3.64337">
        <ele>120.6</ele>
        <time>2021-08-11T09:45:06Z</time>
      </trkpt>
      <trkpt lat="48.22294" lon="-3.64335">
        <ele>120.8</ele>
        <time>2021-08-11T09:45:07Z</time>
      </trkpt>
      <trkpt lat="48.2229" lon="-3.64333">
        <ele>121</ele>
        <time>2021-08-11T09:45:08Z</time>
      </trkpt>
      <trkpt lat="48.22287" lon="-3.6433">
        <ele>121.2</ele>
        <time>2021-08-11T09:45:09Z</time>
      </trkpt>
      <trkpt lat="48.22284" lon="-3.64327">
        <ele>121.2</ele>
        <time>2021-08-11T09:45:10Z</time>
      </trkpt>
      <trkpt lat="48.22281" lon="-3.64325">
        <ele>121.4</ele>
        <time>2021-08-11T09:45:11Z</time>
      </trkpt>
      <trkpt lat="48.22278" lon="-3.64322">
        <ele>121.4</ele>
        <time>2021-08-11T09:45:12Z</time>
      </trkpt>
      <trkpt lat="48.22275" lon="-3.64319">
        <ele>121.6</ele>
        <time>2021-08-11T09:45:13Z</time>
      </trkpt>
      <trkpt lat="48.22272" lon="-3.64316">
        <ele>121.6</ele>
        <time>2021-08-11T09:45:14Z</time>
      </trkpt>
      <trkpt lat="48.22269" lon="-3.64314">
        <ele>121.6</ele>
        <time>2021-08-11T09:45:15Z</time>
      </trkpt>
      <trkpt lat="48.22266" lon="-3.64311">
        <ele>121.8</ele>
        <time>2021-08-11T09:45:16Z</time>
      </trkpt>
      <trkpt lat="48.22263" lon="-3.64309">
        <ele>121.8</ele>
        <time>2021-08-11T09:45:17Z</time>
      </trkpt>
      <trkpt lat="48.2226" lon="-3.64306">
        <ele>121.8</ele>
        <time>2021-08-11T09:45:18Z</time>
      </trkpt>
      <trkpt lat="48.22257" lon="-3.64303">
        <ele>121.8</ele>
        <time>2021-08-11T09:45:19Z</time>
      </trkpt>
      <trkpt lat="48.22254" lon="-3.643">
        <ele>122</ele>
        <time>2021-08-11T09:45:20Z</time>
      </trkpt>
      <trkpt lat="48.22251" lon="-3.64298">
        <ele>122</ele>
        <time>2021-08-11T09:45:21Z</time>
      </trkpt>
      <trkpt lat="48.22248" lon="-3.64295">
        <ele>122.2</ele>
        <time>2021-08-11T09:45:22Z</time>
      </trkpt>
      <trkpt lat="48.22245" lon="-3.64292">
        <ele>122.2</ele>
        <time>2021-08-11T09:45:23Z</time>
      </trkpt>
      <trkpt lat="48.22242" lon="-3.6429">
        <ele>122.4</ele>
        <time>2021-08-11T09:45:24Z</time>
      </trkpt>
      <trkpt lat="48.22239" lon="-3.64287">
        <ele>122.4</ele>
        <time>2021-08-11T09:45:25Z</time>
      </trkpt>
      <trkpt lat="48.22236" lon="-3.64284">
        <ele>122.4</ele>
        <time>2021-08-11T09:45:26Z</time>
      </trkpt>
      <trkpt lat="48.22233" lon="-3.64281">
        <ele>122.6</ele>
        <time>2021-08-11T09:45:27Z</time>
      </trkpt>
      <trkpt lat="48.22231" lon="-3.64278">
        <ele>122.6</ele>
        <time>2021-08-11T09:45:28Z</time>
      </trkpt>
      <trkpt lat="48.22228" lon="-3.64275">
        <ele>122.8</ele>
        <time>2021-08-11T09:45:29Z</time>
      </trkpt>
      <trkpt lat="48.22226" lon="-3.64272">
        <ele>123</ele>
        <time>2021-08-11T09:45:30Z</time>
      </trkpt>
      <trkpt lat="48.22223" lon="-3.64269">
        <ele>123</ele>
        <time>2021-08-11T09:45:31Z</time>
      </trkpt>
      <trkpt lat="48.22221" lon="-3.64267">
        <ele>123.2</ele>
        <time>2021-08-11T09:45:32Z</time>
      </trkpt>
      <trkpt lat="48.22219" lon="-3.64264">
        <ele>123.4</ele>
        <time>2021-08-11T09:45:33Z</time>
      </trkpt>
      <trkpt lat="48.22217" lon="-3.64262">
        <ele>123.6</ele>
        <time>2021-08-11T09:45:34Z</time>
      </trkpt>
      <trkpt lat="48.22215" lon="-3.64259">
        <ele>123.8</ele>
        <time>2021-08-11T09:45:35Z</time>
      </trkpt>
      <trkpt lat="48.22213" lon="-3.64257">
        <ele>124</ele>
        <time>2021-08-11T09:45:36Z</time>
      </trkpt>
      <trkpt lat="48.22211" lon="-3.64254">
        <ele>124.2</ele>
        <time>2021-08-11T09:45:37Z</time>
      </trkpt>
      <trkpt lat="48.22209" lon="-3.64252">
        <ele>124.2</ele>
        <time>2021-08-11T09:45:38Z</time>
      </trkpt>
      <trkpt lat="48.22207" lon="-3.6425">
        <ele>124.4</ele>
        <time>2021-08-11T09:45:39Z</time>
      </trkpt>
      <trkpt lat="48.22205" lon="-3.64248">
        <ele>124.8</ele>
        <time>2021-08-11T09:45:40Z</time>
      </trkpt>
      <trkpt lat="48.22203" lon="-3.64245">
        <ele>125.2</ele>
        <time>2021-08-11T09:45:41Z</time>
      </trkpt>
      <trkpt lat="48.22201" lon="-3.64243">
        <ele>125.4</ele>
        <time>2021-08-11T09:45:42Z</time>
      </trkpt>
      <trkpt lat="48.22198" lon="-3.64241">
        <ele>125.8</ele>
        <time>2021-08-11T09:45:43Z</time>
      </trkpt>
      <trkpt lat="48.22196" lon="-3.64239">
        <ele>125.8</ele>
        <time>2021-08-11T09:45:44Z</time>
      </trkpt>
      <trkpt lat="48.22194" lon="-3.64236">
        <ele>126</ele>
        <time>2021-08-11T09:45:45Z</time>
      </trkpt>
      <trkpt lat="48.22191" lon="-3.64234">
        <ele>126</ele>
        <time>2021-08-11T09:45:46Z</time>
      </trkpt>
      <trkpt lat="48.22189" lon="-3.64232">
        <ele>126.2</ele>
        <time>2021-08-11T09:45:47Z</time>
      </trkpt>
      <trkpt lat="48.22186" lon="-3.6423">
        <ele>126.4</ele>
        <time>2021-08-11T09:45:48Z</time>
      </trkpt>
      <trkpt lat="48.22183" lon="-3.64228">
        <ele>126.6</ele>
        <time>2021-08-11T09:45:49Z</time>
      </trkpt>
      <trkpt lat="48.22181" lon="-3.64225">
        <ele>126.6</ele>
        <time>2021-08-11T09:45:50Z</time>
      </trkpt>
      <trkpt lat="48.22178" lon="-3.64223">
        <ele>126.8</ele>
        <time>2021-08-11T09:45:51Z</time>
      </trkpt>
      <trkpt lat="48.22175" lon="-3.64221">
        <ele>127.2</ele>
        <time>2021-08-11T09:45:52Z</time>
      </trkpt>
      <trkpt lat="48.22172" lon="-3.64219">
        <ele>127.2</ele>
        <time>2021-08-11T09:45:53Z</time>
      </trkpt>
      <trkpt lat="48.22169" lon="-3.64217">
        <ele>127.4</ele>
        <time>2021-08-11T09:45:54Z</time>
      </trkpt>
      <trkpt lat="48.22166" lon="-3.64215">
        <ele>127.4</ele>
        <time>2021-08-11T09:45:55Z</time>
      </trkpt>
      <trkpt lat="48.22163" lon="-3.64212">
        <ele>127.6</ele>
        <time>2021-08-11T09:45:56Z</time>
      </trkpt>
      <trkpt lat="48.2216" lon="-3.6421">
        <ele>127.6</ele>
        <time>2021-08-11T09:45:57Z</time>
      </trkpt>
      <trkpt lat="48.22157" lon="-3.64208">
        <ele>127.6</ele>
        <time>2021-08-11T09:45:58Z</time>
      </trkpt>
      <trkpt lat="48.22154" lon="-3.64206">
        <ele>127.6</ele>
        <time>2021-08-11T09:45:59Z</time>
      </trkpt>
      <trkpt lat="48.22151" lon="-3.64205">
        <ele>127.6</ele>
        <time>2021-08-11T09:46:00Z</time>
      </trkpt>
      <trkpt lat="48.22148" lon="-3.64203">
        <ele>127.8</ele>
        <time>2021-08-11T09:46:01Z</time>
      </trkpt>
      <trkpt lat="48.22145" lon="-3.64201">
        <ele>127.8</ele>
        <time>2021-08-11T09:46:02Z</time>
      </trkpt>
      <trkpt lat="48.22142" lon="-3.642">
        <ele>127.8</ele>
        <time>2021-08-11T09:46:03Z</time>
      </trkpt>
      <trkpt lat="48.22139" lon="-3.64198">
        <ele>128</ele>
        <time>2021-08-11T09:46:04Z</time>
      </trkpt>
      <trkpt lat="48.22136" lon="-3.64197">
        <ele>128</ele>
        <time>2021-08-11T09:46:05Z</time>
      </trkpt>
      <trkpt lat="48.22133" lon="-3.64196">
        <ele>128</ele>
        <time>2021-08-11T09:46:06Z</time>
      </trkpt>
      <trkpt lat="48.22131" lon="-3.64195">
        <ele>128.4</ele>
        <time>2021-08-11T09:46:07Z</time>
      </trkpt>
      <trkpt lat="48.22128" lon="-3.64194">
        <ele>128.4</ele>
        <time>2021-08-11T09:46:08Z</time>
      </trkpt>
      <trkpt lat="48.22125" lon="-3.64193">
        <ele>128.6</ele>
        <time>2021-08-11T09:46:09Z</time>
      </trkpt>
      <trkpt lat="48.22122" lon="-3.64192">
        <ele>128.6</ele>
        <time>2021-08-11T09:46:10Z</time>
      </trkpt>
      <trkpt lat="48.22119" lon="-3.6419">
        <ele>129</ele>
        <time>2021-08-11T09:46:11Z</time>
      </trkpt>
      <trkpt lat="48.22117" lon="-3.64189">
        <ele>129.2</ele>
        <time>2021-08-11T09:46:12Z</time>
      </trkpt>
      <trkpt lat="48.22114" lon="-3.64188">
        <ele>129.2</ele>
        <time>2021-08-11T09:46:13Z</time>
      </trkpt>
      <trkpt lat="48.22111" lon="-3.64187">
        <ele>129.2</ele>
        <time>2021-08-11T09:46:14Z</time>
      </trkpt>
      <trkpt lat="48.22108" lon="-3.64186">
        <ele>129.4</ele>
        <time>2021-08-11T09:46:15Z</time>
      </trkpt>
      <trkpt lat="48.22105" lon="-3.64185">
        <ele>129.6</ele>
        <time>2021-08-11T09:46:16Z</time>
      </trkpt>
      <trkpt lat="48.22102" lon="-3.64184">
        <ele>129.8</ele>
        <time>2021-08-11T09:46:17Z</time>
      </trkpt>
      <trkpt lat="48.22099" lon="-3.64183">
        <ele>130</ele>
        <time>2021-08-11T09:46:18Z</time>
      </trkpt>
      <trkpt lat="48.22097" lon="-3.64183">
        <ele>130.2</ele>
        <time>2021-08-11T09:46:19Z</time>
      </trkpt>
      <trkpt lat="48.22094" lon="-3.64182">
        <ele>130.4</ele>
        <time>2021-08-11T09:46:20Z</time>
      </trkpt>
      <trkpt lat="48.22092" lon="-3.64181">
        <ele>130.6</ele>
        <time>2021-08-11T09:46:21Z</time>
      </trkpt>
      <trkpt lat="48.22089" lon="-3.6418">
        <ele>130.8</ele>
        <time>2021-08-11T09:46:22Z</time>
      </trkpt>
      <trkpt lat="48.22087" lon="-3.64179">
        <ele>131</ele>
        <time>2021-08-11T09:46:23Z</time>
      </trkpt>
      <trkpt lat="48.22084" lon="-3.64178">
        <ele>131.4</ele>
        <time>2021-08-11T09:46:24Z</time>
      </trkpt>
      <trkpt lat="48.22082" lon="-3.64177">
        <ele>131.6</ele>
        <time>2021-08-11T09:46:25Z</time>
      </trkpt>
      <trkpt lat="48.22079" lon="-3.64177">
        <ele>131.6</ele>
        <time>2021-08-11T09:46:26Z</time>
      </trkpt>
      <trkpt lat="48.22076" lon="-3.64176">
        <ele>131.8</ele>
        <time>2021-08-11T09:46:27Z</time>
      </trkpt>
      <trkpt lat="48.22074" lon="-3.64175">
        <ele>132</ele>
        <time>2021-08-11T09:46:28Z</time>
      </trkpt>
      <trkpt lat="48.22071" lon="-3.64175">
        <ele>132.2</ele>
        <time>2021-08-11T09:46:29Z</time>
      </trkpt>
      <trkpt lat="48.22069" lon="-3.64174">
        <ele>132.2</ele>
        <time>2021-08-11T09:46:30Z</time>
      </trkpt>
      <trkpt lat="48.22066" lon="-3.64174">
        <ele>132.4</ele>
        <time>2021-08-11T09:46:31Z</time>
      </trkpt>
      <trkpt lat="48.22064" lon="-3.64173">
        <ele>132.6</ele>
        <time>2021-08-11T09:46:32Z</time>
      </trkpt>
      <trkpt lat="48.22061" lon="-3.64172">
        <ele>132.6</ele>
        <time>2021-08-11T09:46:33Z</time>
      </trkpt>
      <trkpt lat="48.22059" lon="-3.64171">
        <ele>132.8</ele>
        <time>2021-08-11T09:46:34Z</time>
      </trkpt>
      <trkpt lat="48.22056" lon="-3.6417">
        <ele>133</ele>
        <time>2021-08-11T09:46:35Z</time>
      </trkpt>
      <trkpt lat="48.22053" lon="-3.64169">
        <ele>133.2</ele>
        <time>2021-08-11T09:46:36Z</time>
      </trkpt>
      <trkpt lat="48.22051" lon="-3.64168">
        <ele>133.4</ele>
        <time>2021-08-11T09:46:37Z</time>
      </trkpt>
      <trkpt lat="48.22048" lon="-3.64168">
        <ele>133.6</ele>
        <time>2021-08-11T09:46:38Z</time>
      </trkpt>
      <trkpt lat="48.22045" lon="-3.64167">
        <ele>133.6</ele>
        <time>2021-08-11T09:46:39Z</time>
      </trkpt>
      <trkpt lat="48.22043" lon="-3.64166">
        <ele>133.8</ele>
        <time>2021-08-11T09:46:40Z</time>
      </trkpt>
      <trkpt lat="48.2204" lon="-3.64165">
        <ele>134</ele>
        <time>2021-08-11T09:46:41Z</time>
      </trkpt>
      <trkpt lat="48.22037" lon="-3.64164">
        <ele>134.2</ele>
        <time>2021-08-11T09:46:42Z</time>
      </trkpt>
      <trkpt lat="48.22034" lon="-3.64163">
        <ele>134.4</ele>
        <time>2021-08-11T09:46:43Z</time>
      </trkpt>
      <trkpt lat="48.22032" lon="-3.64162">
        <ele>134.8</ele>
        <time>2021-08-11T09:46:44Z</time>
      </trkpt>
      <trkpt lat="48.22029" lon="-3.64161">
        <ele>135.2</ele>
        <time>2021-08-11T09:46:45Z</time>
      </trkpt>
      <trkpt lat="48.22026" lon="-3.6416">
        <ele>135.4</ele>
        <time>2021-08-11T09:46:46Z</time>
      </trkpt>
      <trkpt lat="48.22023" lon="-3.64159">
        <ele>135.6</ele>
        <time>2021-08-11T09:46:47Z</time>
      </trkpt>
      <trkpt lat="48.2202" lon="-3.64158">
        <ele>135.6</ele>
        <time>2021-08-11T09:46:48Z</time>
      </trkpt>
      <trkpt lat="48.22018" lon="-3.64157">
        <ele>135.8</ele>
        <time>2021-08-11T09:46:49Z</time>
      </trkpt>
      <trkpt lat="48.22014" lon="-3.64156">
        <ele>135.8</ele>
        <time>2021-08-11T09:46:50Z</time>
      </trkpt>
      <trkpt lat="48.22011" lon="-3.64154">
        <ele>135.8</ele>
        <time>2021-08-11T09:46:51Z</time>
      </trkpt>
      <trkpt lat="48.22009" lon="-3.64153">
        <ele>135.8</ele>
        <time>2021-08-11T09:46:52Z</time>
      </trkpt>
      <trkpt lat="48.22006" lon="-3.64152">
        <ele>136</ele>
        <time>2021-08-11T09:46:53Z</time>
      </trkpt>
      <trkpt lat="48.22004" lon="-3.64151">
        <ele>136</ele>
        <time>2021-08-11T09:46:54Z</time>
      </trkpt>
      <trkpt lat="48.22003" lon="-3.64151">
        <ele>136</ele>
        <time>2021-08-11T09:46:55Z</time>
      </trkpt>
      <trkpt lat="48.22003" lon="-3.6415">
        <ele>136.2</ele>
        <time>2021-08-11T09:46:56Z</time>
      </trkpt>
      <trkpt lat="48.22001" lon="-3.64148">
        <ele>137.2</ele>
        <time>2021-08-11T09:47:33Z</time>
      </trkpt>
      <trkpt lat="48.22" lon="-3.64147">
        <ele>137.2</ele>
        <time>2021-08-11T09:47:34Z</time>
      </trkpt>
      <trkpt lat="48.21999" lon="-3.64147">
        <ele>137.2</ele>
        <time>2021-08-11T09:47:35Z</time>
      </trkpt>
      <trkpt lat="48.21996" lon="-3.64146">
        <ele>137.2</ele>
        <time>2021-08-11T09:47:36Z</time>
      </trkpt>
      <trkpt lat="48.21994" lon="-3.64145">
        <ele>137.2</ele>
        <time>2021-08-11T09:47:37Z</time>
      </trkpt>
      <trkpt lat="48.21992" lon="-3.64144">
        <ele>137</ele>
        <time>2021-08-11T09:47:38Z</time>
      </trkpt>
      <trkpt lat="48.21989" lon="-3.64142">
        <ele>137</ele>
        <time>2021-08-11T09:47:39Z</time>
      </trkpt>
      <trkpt lat="48.21986" lon="-3.6414">
        <ele>137</ele>
        <time>2021-08-11T09:47:40Z</time>
      </trkpt>
      <trkpt lat="48.21984" lon="-3.64138">
        <ele>137</ele>
        <time>2021-08-11T09:47:41Z</time>
      </trkpt>
      <trkpt lat="48.21981" lon="-3.64136">
        <ele>137</ele>
        <time>2021-08-11T09:47:42Z</time>
      </trkpt>
      <trkpt lat="48.21978" lon="-3.64134">
        <ele>137</ele>
        <time>2021-08-11T09:47:43Z</time>
      </trkpt>
      <trkpt lat="48.21975" lon="-3.64132">
        <ele>137</ele>
        <time>2021-08-11T09:47:44Z</time>
      </trkpt>
      <trkpt lat="48.21972" lon="-3.6413">
        <ele>137</ele>
        <time>2021-08-11T09:47:45Z</time>
      </trkpt>
      <trkpt lat="48.21969" lon="-3.64128">
        <ele>137</ele>
        <time>2021-08-11T09:47:46Z</time>
      </trkpt>
      <trkpt lat="48.21966" lon="-3.64126">
        <ele>137</ele>
        <time>2021-08-11T09:47:47Z</time>
      </trkpt>
      <trkpt lat="48.21963" lon="-3.64123">
        <ele>137</ele>
        <time>2021-08-11T09:47:48Z</time>
      </trkpt>
      <trkpt lat="48.2196" lon="-3.6412">
        <ele>137</ele>
        <time>2021-08-11T09:47:49Z</time>
      </trkpt>
      <trkpt lat="48.21957" lon="-3.64118">
        <ele>137</ele>
        <time>2021-08-11T09:47:50Z</time>
      </trkpt>
      <trkpt lat="48.21954" lon="-3.64115">
        <ele>137</ele>
        <time>2021-08-11T09:47:51Z</time>
      </trkpt>
      <trkpt lat="48.21951" lon="-3.64112">
        <ele>137</ele>
        <time>2021-08-11T09:47:52Z</time>
      </trkpt>
      <trkpt lat="48.21947" lon="-3.64109">
        <ele>137</ele>
        <time>2021-08-11T09:47:53Z</time>
      </trkpt>
      <trkpt lat="48.21944" lon="-3.64105">
        <ele>137</ele>
        <time>2021-08-11T09:47:54Z</time>
      </trkpt>
      <trkpt lat="48.2194" lon="-3.64102">
        <ele>137</ele>
        <time>2021-08-11T09:47:55Z</time>
      </trkpt>
      <trkpt lat="48.21937" lon="-3.64098">
        <ele>137</ele>
        <time>2021-08-11T09:47:56Z</time>
      </trkpt>
      <trkpt lat="48.21933" lon="-3.64094">
        <ele>136.8</ele>
        <time>2021-08-11T09:47:57Z</time>
      </trkpt>
      <trkpt lat="48.2193" lon="-3.6409">
        <ele>136.8</ele>
        <time>2021-08-11T09:47:58Z</time>
      </trkpt>
      <trkpt lat="48.21926" lon="-3.64086">
        <ele>136.8</ele>
        <time>2021-08-11T09:47:59Z</time>
      </trkpt>
      <trkpt lat="48.21923" lon="-3.64082">
        <ele>136.8</ele>
        <time>2021-08-11T09:48:00Z</time>
      </trkpt>
      <trkpt lat="48.2192" lon="-3.64077">
        <ele>137</ele>
        <time>2021-08-11T09:48:01Z</time>
      </trkpt>
      <trkpt lat="48.21916" lon="-3.64073">
        <ele>136.8</ele>
        <time>2021-08-11T09:48:02Z</time>
      </trkpt>
      <trkpt lat="48.21913" lon="-3.64068">
        <ele>136.6</ele>
        <time>2021-08-11T09:48:03Z</time>
      </trkpt>
      <trkpt lat="48.2191" lon="-3.64063">
        <ele>136.8</ele>
        <time>2021-08-11T09:48:04Z</time>
      </trkpt>
      <trkpt lat="48.21907" lon="-3.64058">
        <ele>136.6</ele>
        <time>2021-08-11T09:48:05Z</time>
      </trkpt>
      <trkpt lat="48.21904" lon="-3.64053">
        <ele>136.4</ele>
        <time>2021-08-11T09:48:06Z</time>
      </trkpt>
      <trkpt lat="48.21901" lon="-3.64048">
        <ele>136.4</ele>
        <time>2021-08-11T09:48:07Z</time>
      </trkpt>
      <trkpt lat="48.21898" lon="-3.64043">
        <ele>136.4</ele>
        <time>2021-08-11T09:48:08Z</time>
      </trkpt>
      <trkpt lat="48.21896" lon="-3.64038">
        <ele>136.4</ele>
        <time>2021-08-11T09:48:09Z</time>
      </trkpt>
      <trkpt lat="48.21893" lon="-3.64033">
        <ele>136.4</ele>
        <time>2021-08-11T09:48:10Z</time>
      </trkpt>
      <trkpt lat="48.21891" lon="-3.64028">
        <ele>136.4</ele>
        <time>2021-08-11T09:48:11Z</time>
      </trkpt>
      <trkpt lat="48.21889" lon="-3.64024">
        <ele>136.4</ele>
        <time>2021-08-11T09:48:12Z</time>
      </trkpt>
      <trkpt lat="48.21887" lon="-3.6402">
        <ele>136.4</ele>
        <time>2021-08-11T09:48:13Z</time>
      </trkpt>
      <trkpt lat="48.21886" lon="-3.64015">
        <ele>136.4</ele>
        <time>2021-08-11T09:48:14Z</time>
      </trkpt>
      <trkpt lat="48.21884" lon="-3.6401">
        <ele>136.4</ele>
        <time>2021-08-11T09:48:15Z</time>
      </trkpt>
      <trkpt lat="48.21882" lon="-3.64005">
        <ele>136.4</ele>
        <time>2021-08-11T09:48:16Z</time>
      </trkpt>
      <trkpt lat="48.2188" lon="-3.64">
        <ele>136.4</ele>
        <time>2021-08-11T09:48:17Z</time>
      </trkpt>
      <trkpt lat="48.21879" lon="-3.63995">
        <ele>136.4</ele>
        <time>2021-08-11T09:48:18Z</time>
      </trkpt>
      <trkpt lat="48.21877" lon="-3.6399">
        <ele>136.6</ele>
        <time>2021-08-11T09:48:19Z</time>
      </trkpt>
      <trkpt lat="48.21876" lon="-3.63984">
        <ele>136.6</ele>
        <time>2021-08-11T09:48:20Z</time>
      </trkpt>
      <trkpt lat="48.21874" lon="-3.63979">
        <ele>136.8</ele>
        <time>2021-08-11T09:48:21Z</time>
      </trkpt>
      <trkpt lat="48.21872" lon="-3.63974">
        <ele>137</ele>
        <time>2021-08-11T09:48:22Z</time>
      </trkpt>
      <trkpt lat="48.2187" lon="-3.63969">
        <ele>137.2</ele>
        <time>2021-08-11T09:48:23Z</time>
      </trkpt>
      <trkpt lat="48.21868" lon="-3.63963">
        <ele>137.2</ele>
        <time>2021-08-11T09:48:24Z</time>
      </trkpt>
      <trkpt lat="48.21866" lon="-3.63957">
        <ele>137.2</ele>
        <time>2021-08-11T09:48:25Z</time>
      </trkpt>
      <trkpt lat="48.21865" lon="-3.63952">
        <ele>137.4</ele>
        <time>2021-08-11T09:48:26Z</time>
      </trkpt>
      <trkpt lat="48.21863" lon="-3.63946">
        <ele>137.4</ele>
        <time>2021-08-11T09:48:27Z</time>
      </trkpt>
      <trkpt lat="48.21861" lon="-3.6394">
        <ele>137.4</ele>
        <time>2021-08-11T09:48:28Z</time>
      </trkpt>
      <trkpt lat="48.21859" lon="-3.63934">
        <ele>137.4</ele>
        <time>2021-08-11T09:48:29Z</time>
      </trkpt>
      <trkpt lat="48.21857" lon="-3.63928">
        <ele>137.4</ele>
        <time>2021-08-11T09:48:30Z</time>
      </trkpt>
      <trkpt lat="48.21856" lon="-3.63922">
        <ele>137.4</ele>
        <time>2021-08-11T09:48:31Z</time>
      </trkpt>
      <trkpt lat="48.21854" lon="-3.63916">
        <ele>137.4</ele>
        <time>2021-08-11T09:48:32Z</time>
      </trkpt>
      <trkpt lat="48.21853" lon="-3.6391">
        <ele>137.4</ele>
        <time>2021-08-11T09:48:33Z</time>
      </trkpt>
      <trkpt lat="48.21851" lon="-3.63905">
        <ele>137.4</ele>
        <time>2021-08-11T09:48:34Z</time>
      </trkpt>
      <trkpt lat="48.2185" lon="-3.639">
        <ele>137.4</ele>
        <time>2021-08-11T09:48:35Z</time>
      </trkpt>
      <trkpt lat="48.21849" lon="-3.63896">
        <ele>137.4</ele>
        <time>2021-08-11T09:48:36Z</time>
      </trkpt>
      <trkpt lat="48.21848" lon="-3.63891">
        <ele>137.4</ele>
        <time>2021-08-11T09:48:37Z</time>
      </trkpt>
      <trkpt lat="48.21848" lon="-3.63886">
        <ele>137.4</ele>
        <time>2021-08-11T09:48:38Z</time>
      </trkpt>
      <trkpt lat="48.21847" lon="-3.6388">
        <ele>137.4</ele>
        <time>2021-08-11T09:48:39Z</time>
      </trkpt>
      <trkpt lat="48.21847" lon="-3.63874">
        <ele>137.4</ele>
        <time>2021-08-11T09:48:40Z</time>
      </trkpt>
      <trkpt lat="48.21846" lon="-3.63868">
        <ele>137.4</ele>
        <time>2021-08-11T09:48:41Z</time>
      </trkpt>
      <trkpt lat="48.21846" lon="-3.63863">
        <ele>137.4</ele>
        <time>2021-08-11T09:48:42Z</time>
      </trkpt>
      <trkpt lat="48.21845" lon="-3.63857">
        <ele>137.4</ele>
        <time>2021-08-11T09:48:43Z</time>
      </trkpt>
      <trkpt lat="48.21845" lon="-3.63852">
        <ele>137.4</ele>
        <time>2021-08-11T09:48:44Z</time>
      </trkpt>
      <trkpt lat="48.21845" lon="-3.63846">
        <ele>137.4</ele>
        <time>2021-08-11T09:48:45Z</time>
      </trkpt>
      <trkpt lat="48.21845" lon="-3.63841">
        <ele>137.4</ele>
        <time>2021-08-11T09:48:46Z</time>
      </trkpt>
      <trkpt lat="48.21845" lon="-3.63835">
        <ele>137.4</ele>
        <time>2021-08-11T09:48:47Z</time>
      </trkpt>
      <trkpt lat="48.21844" lon="-3.6383">
        <ele>137.4</ele>
        <time>2021-08-11T09:48:48Z</time>
      </trkpt>
      <trkpt lat="48.21843" lon="-3.63824">
        <ele>137.4</ele>
        <time>2021-08-11T09:48:49Z</time>
      </trkpt>
      <trkpt lat="48.21842" lon="-3.63819">
        <ele>137.4</ele>
        <time>2021-08-11T09:48:50Z</time>
      </trkpt>
      <trkpt lat="48.21841" lon="-3.63814">
        <ele>137.4</ele>
        <time>2021-08-11T09:48:51Z</time>
      </trkpt>
      <trkpt lat="48.21841" lon="-3.63809">
        <ele>137.4</ele>
        <time>2021-08-11T09:48:52Z</time>
      </trkpt>
      <trkpt lat="48.2184" lon="-3.63804">
        <ele>137.2</ele>
        <time>2021-08-11T09:48:53Z</time>
      </trkpt>
      <trkpt lat="48.21839" lon="-3.63798">
        <ele>137.2</ele>
        <time>2021-08-11T09:48:54Z</time>
      </trkpt>
      <trkpt lat="48.21838" lon="-3.63792">
        <ele>137.2</ele>
        <time>2021-08-11T09:48:55Z</time>
      </trkpt>
      <trkpt lat="48.21837" lon="-3.63786">
        <ele>137.2</ele>
        <time>2021-08-11T09:48:56Z</time>
      </trkpt>
      <trkpt lat="48.21836" lon="-3.6378">
        <ele>137.2</ele>
        <time>2021-08-11T09:48:57Z</time>
      </trkpt>
      <trkpt lat="48.21835" lon="-3.63774">
        <ele>137</ele>
        <time>2021-08-11T09:48:58Z</time>
      </trkpt>
      <trkpt lat="48.21834" lon="-3.63768">
        <ele>137</ele>
        <time>2021-08-11T09:48:59Z</time>
      </trkpt>
      <trkpt lat="48.21831" lon="-3.63761">
        <ele>136.8</ele>
        <time>2021-08-11T09:49:00Z</time>
      </trkpt>
      <trkpt lat="48.21829" lon="-3.63755">
        <ele>136.8</ele>
        <time>2021-08-11T09:49:01Z</time>
      </trkpt>
      <trkpt lat="48.21825" lon="-3.63748">
        <ele>136.6</ele>
        <time>2021-08-11T09:49:02Z</time>
      </trkpt>
      <trkpt lat="48.2182" lon="-3.63741">
        <ele>136.6</ele>
        <time>2021-08-11T09:49:03Z</time>
      </trkpt>
      <trkpt lat="48.21815" lon="-3.63735">
        <ele>136.4</ele>
        <time>2021-08-11T09:49:04Z</time>
      </trkpt>
      <trkpt lat="48.2181" lon="-3.63729">
        <ele>136.2</ele>
        <time>2021-08-11T09:49:05Z</time>
      </trkpt>
      <trkpt lat="48.21805" lon="-3.63724">
        <ele>136</ele>
        <time>2021-08-11T09:49:06Z</time>
      </trkpt>
      <trkpt lat="48.21799" lon="-3.63718">
        <ele>135.2</ele>
        <time>2021-08-11T09:49:07Z</time>
      </trkpt>
      <trkpt lat="48.21794" lon="-3.63713">
        <ele>135</ele>
        <time>2021-08-11T09:49:08Z</time>
      </trkpt>
      <trkpt lat="48.21789" lon="-3.63707">
        <ele>134.8</ele>
        <time>2021-08-11T09:49:09Z</time>
      </trkpt>
      <trkpt lat="48.21784" lon="-3.63702">
        <ele>134.4</ele>
        <time>2021-08-11T09:49:10Z</time>
      </trkpt>
      <trkpt lat="48.21778" lon="-3.63697">
        <ele>134.2</ele>
        <time>2021-08-11T09:49:11Z</time>
      </trkpt>
      <trkpt lat="48.21773" lon="-3.63691">
        <ele>133.8</ele>
        <time>2021-08-11T09:49:12Z</time>
      </trkpt>
      <trkpt lat="48.21768" lon="-3.63685">
        <ele>133.6</ele>
        <time>2021-08-11T09:49:13Z</time>
      </trkpt>
      <trkpt lat="48.21764" lon="-3.63679">
        <ele>133.4</ele>
        <time>2021-08-11T09:49:14Z</time>
      </trkpt>
      <trkpt lat="48.2176" lon="-3.63674">
        <ele>133</ele>
        <time>2021-08-11T09:49:15Z</time>
      </trkpt>
      <trkpt lat="48.21756" lon="-3.63669">
        <ele>132.6</ele>
        <time>2021-08-11T09:49:16Z</time>
      </trkpt>
      <trkpt lat="48.21753" lon="-3.63666">
        <ele>132.4</ele>
        <time>2021-08-11T09:49:17Z</time>
      </trkpt>
      <trkpt lat="48.2175" lon="-3.63663">
        <ele>132</ele>
        <time>2021-08-11T09:49:18Z</time>
      </trkpt>
      <trkpt lat="48.21747" lon="-3.63661">
        <ele>132</ele>
        <time>2021-08-11T09:49:19Z</time>
      </trkpt>
      <trkpt lat="48.21745" lon="-3.63659">
        <ele>131.8</ele>
        <time>2021-08-11T09:49:20Z</time>
      </trkpt>
      <trkpt lat="48.21742" lon="-3.63657">
        <ele>131.6</ele>
        <time>2021-08-11T09:49:21Z</time>
      </trkpt>
      <trkpt lat="48.21741" lon="-3.63653">
        <ele>131.4</ele>
        <time>2021-08-11T09:49:22Z</time>
      </trkpt>
      <trkpt lat="48.21741" lon="-3.63648">
        <ele>131.2</ele>
        <time>2021-08-11T09:49:23Z</time>
      </trkpt>
      <trkpt lat="48.21741" lon="-3.63643">
        <ele>131</ele>
        <time>2021-08-11T09:49:24Z</time>
      </trkpt>
      <trkpt lat="48.21743" lon="-3.63637">
        <ele>130.8</ele>
        <time>2021-08-11T09:49:25Z</time>
      </trkpt>
      <trkpt lat="48.21745" lon="-3.63631">
        <ele>130.8</ele>
        <time>2021-08-11T09:49:26Z</time>
      </trkpt>
      <trkpt lat="48.21747" lon="-3.63624">
        <ele>130.6</ele>
        <time>2021-08-11T09:49:27Z</time>
      </trkpt>
      <trkpt lat="48.2175" lon="-3.63618">
        <ele>130.6</ele>
        <time>2021-08-11T09:49:28Z</time>
      </trkpt>
      <trkpt lat="48.21753" lon="-3.63611">
        <ele>130.6</ele>
        <time>2021-08-11T09:49:29Z</time>
      </trkpt>
      <trkpt lat="48.21756" lon="-3.63604">
        <ele>130.6</ele>
        <time>2021-08-11T09:49:30Z</time>
      </trkpt>
      <trkpt lat="48.2176" lon="-3.63596">
        <ele>130.4</ele>
        <time>2021-08-11T09:49:31Z</time>
      </trkpt>
      <trkpt lat="48.21763" lon="-3.63588">
        <ele>130.4</ele>
        <time>2021-08-11T09:49:32Z</time>
      </trkpt>
      <trkpt lat="48.21767" lon="-3.6358">
        <ele>130.2</ele>
        <time>2021-08-11T09:49:33Z</time>
      </trkpt>
      <trkpt lat="48.21771" lon="-3.63572">
        <ele>130.2</ele>
        <time>2021-08-11T09:49:34Z</time>
      </trkpt>
      <trkpt lat="48.21775" lon="-3.63563">
        <ele>130</ele>
        <time>2021-08-11T09:49:35Z</time>
      </trkpt>
      <trkpt lat="48.2178" lon="-3.63554">
        <ele>129.8</ele>
        <time>2021-08-11T09:49:36Z</time>
      </trkpt>
      <trkpt lat="48.21783" lon="-3.63545">
        <ele>129</ele>
        <time>2021-08-11T09:49:37Z</time>
      </trkpt>
      <trkpt lat="48.21786" lon="-3.63535">
        <ele>128.6</ele>
        <time>2021-08-11T09:49:38Z</time>
      </trkpt>
      <trkpt lat="48.21789" lon="-3.63526">
        <ele>128.2</ele>
        <time>2021-08-11T09:49:39Z</time>
      </trkpt>
      <trkpt lat="48.2179" lon="-3.63517">
        <ele>127.8</ele>
        <time>2021-08-11T09:49:40Z</time>
      </trkpt>
      <trkpt lat="48.2179" lon="-3.63509">
        <ele>127.4</ele>
        <time>2021-08-11T09:49:41Z</time>
      </trkpt>
      <trkpt lat="48.21788" lon="-3.63504">
        <ele>127.2</ele>
        <time>2021-08-11T09:49:42Z</time>
      </trkpt>
      <trkpt lat="48.21784" lon="-3.63501">
        <ele>126.8</ele>
        <time>2021-08-11T09:49:43Z</time>
      </trkpt>
      <trkpt lat="48.21781" lon="-3.63499">
        <ele>126.4</ele>
        <time>2021-08-11T09:49:44Z</time>
      </trkpt>
      <trkpt lat="48.21777" lon="-3.63497">
        <ele>126</ele>
        <time>2021-08-11T09:49:45Z</time>
      </trkpt>
      <trkpt lat="48.21774" lon="-3.63495">
        <ele>125.8</ele>
        <time>2021-08-11T09:49:46Z</time>
      </trkpt>
      <trkpt lat="48.21771" lon="-3.63494">
        <ele>125.8</ele>
        <time>2021-08-11T09:49:47Z</time>
      </trkpt>
      <trkpt lat="48.21768" lon="-3.63492">
        <ele>125.6</ele>
        <time>2021-08-11T09:49:48Z</time>
      </trkpt>
      <trkpt lat="48.21764" lon="-3.63491">
        <ele>125.6</ele>
        <time>2021-08-11T09:49:49Z</time>
      </trkpt>
      <trkpt lat="48.21761" lon="-3.63491">
        <ele>125.6</ele>
        <time>2021-08-11T09:49:50Z</time>
      </trkpt>
      <trkpt lat="48.21757" lon="-3.63491">
        <ele>125.6</ele>
        <time>2021-08-11T09:49:51Z</time>
      </trkpt>
      <trkpt lat="48.21754" lon="-3.63491">
        <ele>125.6</ele>
        <time>2021-08-11T09:49:52Z</time>
      </trkpt>
      <trkpt lat="48.2175" lon="-3.63491">
        <ele>125.6</ele>
        <time>2021-08-11T09:49:53Z</time>
      </trkpt>
      <trkpt lat="48.21747" lon="-3.63491">
        <ele>125.6</ele>
        <time>2021-08-11T09:49:54Z</time>
      </trkpt>
      <trkpt lat="48.21744" lon="-3.63491">
        <ele>125.6</ele>
        <time>2021-08-11T09:49:55Z</time>
      </trkpt>
      <trkpt lat="48.2174" lon="-3.6349">
        <ele>125.8</ele>
        <time>2021-08-11T09:49:56Z</time>
      </trkpt>
      <trkpt lat="48.21737" lon="-3.6349">
        <ele>126</ele>
        <time>2021-08-11T09:49:57Z</time>
      </trkpt>
      <trkpt lat="48.21734" lon="-3.63489">
        <ele>126.4</ele>
        <time>2021-08-11T09:49:58Z</time>
      </trkpt>
      <trkpt lat="48.21732" lon="-3.63488">
        <ele>126.6</ele>
        <time>2021-08-11T09:49:59Z</time>
      </trkpt>
      <trkpt lat="48.21729" lon="-3.63487">
        <ele>126.6</ele>
        <time>2021-08-11T09:50:00Z</time>
      </trkpt>
      <trkpt lat="48.21726" lon="-3.63486">
        <ele>126.8</ele>
        <time>2021-08-11T09:50:01Z</time>
      </trkpt>
      <trkpt lat="48.21724" lon="-3.63485">
        <ele>126.8</ele>
        <time>2021-08-11T09:50:02Z</time>
      </trkpt>
      <trkpt lat="48.21721" lon="-3.63484">
        <ele>126.8</ele>
        <time>2021-08-11T09:50:03Z</time>
      </trkpt>
      <trkpt lat="48.21718" lon="-3.63483">
        <ele>127</ele>
        <time>2021-08-11T09:50:04Z</time>
      </trkpt>
      <trkpt lat="48.21716" lon="-3.63482">
        <ele>127.2</ele>
        <time>2021-08-11T09:50:05Z</time>
      </trkpt>
      <trkpt lat="48.21713" lon="-3.63482">
        <ele>127.4</ele>
        <time>2021-08-11T09:50:06Z</time>
      </trkpt>
      <trkpt lat="48.21711" lon="-3.63481">
        <ele>127.6</ele>
        <time>2021-08-11T09:50:07Z</time>
      </trkpt>
      <trkpt lat="48.21708" lon="-3.6348">
        <ele>128</ele>
        <time>2021-08-11T09:50:08Z</time>
      </trkpt>
      <trkpt lat="48.21706" lon="-3.63479">
        <ele>128.4</ele>
        <time>2021-08-11T09:50:09Z</time>
      </trkpt>
      <trkpt lat="48.21704" lon="-3.63478">
        <ele>128.8</ele>
        <time>2021-08-11T09:50:10Z</time>
      </trkpt>
      <trkpt lat="48.21702" lon="-3.63476">
        <ele>129</ele>
        <time>2021-08-11T09:50:11Z</time>
      </trkpt>
      <trkpt lat="48.217" lon="-3.63474">
        <ele>129.2</ele>
        <time>2021-08-11T09:50:12Z</time>
      </trkpt>
      <trkpt lat="48.21698" lon="-3.63473">
        <ele>129.4</ele>
        <time>2021-08-11T09:50:13Z</time>
      </trkpt>
      <trkpt lat="48.21696" lon="-3.63472">
        <ele>129.6</ele>
        <time>2021-08-11T09:50:14Z</time>
      </trkpt>
      <trkpt lat="48.21694" lon="-3.63472">
        <ele>130</ele>
        <time>2021-08-11T09:50:15Z</time>
      </trkpt>
      <trkpt lat="48.21692" lon="-3.63474">
        <ele>130.2</ele>
        <time>2021-08-11T09:50:16Z</time>
      </trkpt>
      <trkpt lat="48.2169" lon="-3.63475">
        <ele>130.4</ele>
        <time>2021-08-11T09:50:17Z</time>
      </trkpt>
      <trkpt lat="48.21687" lon="-3.63475">
        <ele>130.6</ele>
        <time>2021-08-11T09:50:18Z</time>
      </trkpt>
      <trkpt lat="48.21685" lon="-3.63475">
        <ele>130.8</ele>
        <time>2021-08-11T09:50:19Z</time>
      </trkpt>
      <trkpt lat="48.21682" lon="-3.63475">
        <ele>131</ele>
        <time>2021-08-11T09:50:20Z</time>
      </trkpt>
      <trkpt lat="48.2168" lon="-3.63474">
        <ele>131.2</ele>
        <time>2021-08-11T09:50:21Z</time>
      </trkpt>
      <trkpt lat="48.21677" lon="-3.63473">
        <ele>131.4</ele>
        <time>2021-08-11T09:50:22Z</time>
      </trkpt>
      <trkpt lat="48.21675" lon="-3.63473">
        <ele>131.6</ele>
        <time>2021-08-11T09:50:23Z</time>
      </trkpt>
      <trkpt lat="48.21673" lon="-3.63472">
        <ele>131.6</ele>
        <time>2021-08-11T09:50:24Z</time>
      </trkpt>
      <trkpt lat="48.2167" lon="-3.63471">
        <ele>131.8</ele>
        <time>2021-08-11T09:50:25Z</time>
      </trkpt>
      <trkpt lat="48.21668" lon="-3.63471">
        <ele>132</ele>
        <time>2021-08-11T09:50:26Z</time>
      </trkpt>
      <trkpt lat="48.21665" lon="-3.6347">
        <ele>132</ele>
        <time>2021-08-11T09:50:27Z</time>
      </trkpt>
      <trkpt lat="48.21663" lon="-3.63468">
        <ele>132.2</ele>
        <time>2021-08-11T09:50:28Z</time>
      </trkpt>
      <trkpt lat="48.21661" lon="-3.63467">
        <ele>132.2</ele>
        <time>2021-08-11T09:50:29Z</time>
      </trkpt>
      <trkpt lat="48.21659" lon="-3.63466">
        <ele>132.4</ele>
        <time>2021-08-11T09:50:30Z</time>
      </trkpt>
      <trkpt lat="48.21656" lon="-3.63465">
        <ele>132.6</ele>
        <time>2021-08-11T09:50:31Z</time>
      </trkpt>
      <trkpt lat="48.21654" lon="-3.63464">
        <ele>132.8</ele>
        <time>2021-08-11T09:50:32Z</time>
      </trkpt>
      <trkpt lat="48.21651" lon="-3.63464">
        <ele>133</ele>
        <time>2021-08-11T09:50:33Z</time>
      </trkpt>
      <trkpt lat="48.21649" lon="-3.63463">
        <ele>133.2</ele>
        <time>2021-08-11T09:50:34Z</time>
      </trkpt>
      <trkpt lat="48.21647" lon="-3.63462">
        <ele>133.6</ele>
        <time>2021-08-11T09:50:35Z</time>
      </trkpt>
      <trkpt lat="48.21644" lon="-3.63461">
        <ele>133.8</ele>
        <time>2021-08-11T09:50:36Z</time>
      </trkpt>
      <trkpt lat="48.21642" lon="-3.63461">
        <ele>134</ele>
        <time>2021-08-11T09:50:37Z</time>
      </trkpt>
      <trkpt lat="48.2164" lon="-3.6346">
        <ele>134</ele>
        <time>2021-08-11T09:50:38Z</time>
      </trkpt>
      <trkpt lat="48.21638" lon="-3.63459">
        <ele>134.2</ele>
        <time>2021-08-11T09:50:39Z</time>
      </trkpt>
      <trkpt lat="48.21635" lon="-3.63459">
        <ele>134.4</ele>
        <time>2021-08-11T09:50:40Z</time>
      </trkpt>
      <trkpt lat="48.21633" lon="-3.63458">
        <ele>134.6</ele>
        <time>2021-08-11T09:50:41Z</time>
      </trkpt>
      <trkpt lat="48.21631" lon="-3.63457">
        <ele>134.6</ele>
        <time>2021-08-11T09:50:42Z</time>
      </trkpt>
      <trkpt lat="48.21629" lon="-3.63456">
        <ele>134.8</ele>
        <time>2021-08-11T09:50:43Z</time>
      </trkpt>
      <trkpt lat="48.21627" lon="-3.63455">
        <ele>135</ele>
        <time>2021-08-11T09:50:44Z</time>
      </trkpt>
      <trkpt lat="48.21625" lon="-3.63454">
        <ele>135.2</ele>
        <time>2021-08-11T09:50:45Z</time>
      </trkpt>
      <trkpt lat="48.21622" lon="-3.63453">
        <ele>135.4</ele>
        <time>2021-08-11T09:50:46Z</time>
      </trkpt>
      <trkpt lat="48.2162" lon="-3.63452">
        <ele>135.6</ele>
        <time>2021-08-11T09:50:47Z</time>
      </trkpt>
      <trkpt lat="48.21618" lon="-3.63451">
        <ele>135.8</ele>
        <time>2021-08-11T09:50:48Z</time>
      </trkpt>
      <trkpt lat="48.21616" lon="-3.6345">
        <ele>136</ele>
        <time>2021-08-11T09:50:49Z</time>
      </trkpt>
      <trkpt lat="48.21613" lon="-3.63449">
        <ele>136.2</ele>
        <time>2021-08-11T09:50:50Z</time>
      </trkpt>
      <trkpt lat="48.21611" lon="-3.63448">
        <ele>136.2</ele>
        <time>2021-08-11T09:50:51Z</time>
      </trkpt>
      <trkpt lat="48.21609" lon="-3.63447">
        <ele>136.4</ele>
        <time>2021-08-11T09:50:52Z</time>
      </trkpt>
      <trkpt lat="48.21606" lon="-3.63446">
        <ele>136.4</ele>
        <time>2021-08-11T09:50:53Z</time>
      </trkpt>
      <trkpt lat="48.21604" lon="-3.63445">
        <ele>136.4</ele>
        <time>2021-08-11T09:50:54Z</time>
      </trkpt>
      <trkpt lat="48.21602" lon="-3.63444">
        <ele>136.4</ele>
        <time>2021-08-11T09:50:55Z</time>
      </trkpt>
      <trkpt lat="48.216" lon="-3.63443">
        <ele>136.6</ele>
        <time>2021-08-11T09:50:56Z</time>
      </trkpt>
      <trkpt lat="48.21597" lon="-3.63442">
        <ele>136.6</ele>
        <time>2021-08-11T09:50:57Z</time>
      </trkpt>
      <trkpt lat="48.21595" lon="-3.63441">
        <ele>136.6</ele>
        <time>2021-08-11T09:50:58Z</time>
      </trkpt>
      <trkpt lat="48.21593" lon="-3.6344">
        <ele>136.8</ele>
        <time>2021-08-11T09:50:59Z</time>
      </trkpt>
      <trkpt lat="48.2159" lon="-3.6344">
        <ele>137</ele>
        <time>2021-08-11T09:51:00Z</time>
      </trkpt>
      <trkpt lat="48.21588" lon="-3.6344">
        <ele>137.2</ele>
        <time>2021-08-11T09:51:01Z</time>
      </trkpt>
      <trkpt lat="48.21585" lon="-3.63439">
        <ele>137.6</ele>
        <time>2021-08-11T09:51:02Z</time>
      </trkpt>
      <trkpt lat="48.21583" lon="-3.63438">
        <ele>137.6</ele>
        <time>2021-08-11T09:51:03Z</time>
      </trkpt>
      <trkpt lat="48.2158" lon="-3.63438">
        <ele>138</ele>
        <time>2021-08-11T09:51:04Z</time>
      </trkpt>
      <trkpt lat="48.21578" lon="-3.63437">
        <ele>138.2</ele>
        <time>2021-08-11T09:51:05Z</time>
      </trkpt>
      <trkpt lat="48.21576" lon="-3.63436">
        <ele>138.4</ele>
        <time>2021-08-11T09:51:06Z</time>
      </trkpt>
      <trkpt lat="48.21573" lon="-3.63435">
        <ele>138.4</ele>
        <time>2021-08-11T09:51:07Z</time>
      </trkpt>
      <trkpt lat="48.21571" lon="-3.63434">
        <ele>138.6</ele>
        <time>2021-08-11T09:51:08Z</time>
      </trkpt>
      <trkpt lat="48.21568" lon="-3.63434">
        <ele>138.6</ele>
        <time>2021-08-11T09:51:09Z</time>
      </trkpt>
      <trkpt lat="48.21566" lon="-3.63433">
        <ele>138.8</ele>
        <time>2021-08-11T09:51:10Z</time>
      </trkpt>
      <trkpt lat="48.21563" lon="-3.63432">
        <ele>138.8</ele>
        <time>2021-08-11T09:51:11Z</time>
      </trkpt>
      <trkpt lat="48.21561" lon="-3.63431">
        <ele>139</ele>
        <time>2021-08-11T09:51:12Z</time>
      </trkpt>
      <trkpt lat="48.21559" lon="-3.6343">
        <ele>139.2</ele>
        <time>2021-08-11T09:51:13Z</time>
      </trkpt>
      <trkpt lat="48.21556" lon="-3.63429">
        <ele>139.2</ele>
        <time>2021-08-11T09:51:14Z</time>
      </trkpt>
      <trkpt lat="48.21554" lon="-3.63429">
        <ele>139.4</ele>
        <time>2021-08-11T09:51:15Z</time>
      </trkpt>
      <trkpt lat="48.21551" lon="-3.63428">
        <ele>139.6</ele>
        <time>2021-08-11T09:51:16Z</time>
      </trkpt>
      <trkpt lat="48.21549" lon="-3.63427">
        <ele>139.6</ele>
        <time>2021-08-11T09:51:17Z</time>
      </trkpt>
      <trkpt lat="48.21546" lon="-3.63427">
        <ele>139.6</ele>
        <time>2021-08-11T09:51:18Z</time>
      </trkpt>
      <trkpt lat="48.21544" lon="-3.63426">
        <ele>139.8</ele>
        <time>2021-08-11T09:51:19Z</time>
      </trkpt>
      <trkpt lat="48.21541" lon="-3.63425">
        <ele>140</ele>
        <time>2021-08-11T09:51:20Z</time>
      </trkpt>
      <trkpt lat="48.21539" lon="-3.63424">
        <ele>140.2</ele>
        <time>2021-08-11T09:51:21Z</time>
      </trkpt>
      <trkpt lat="48.21537" lon="-3.63423">
        <ele>140.4</ele>
        <time>2021-08-11T09:51:22Z</time>
      </trkpt>
      <trkpt lat="48.21534" lon="-3.63422">
        <ele>140.6</ele>
        <time>2021-08-11T09:51:23Z</time>
      </trkpt>
      <trkpt lat="48.21532" lon="-3.63421">
        <ele>140.8</ele>
        <time>2021-08-11T09:51:24Z</time>
      </trkpt>
      <trkpt lat="48.21529" lon="-3.63419">
        <ele>141</ele>
        <time>2021-08-11T09:51:25Z</time>
      </trkpt>
      <trkpt lat="48.21527" lon="-3.63418">
        <ele>141</ele>
        <time>2021-08-11T09:51:26Z</time>
      </trkpt>
      <trkpt lat="48.21525" lon="-3.63417">
        <ele>141.2</ele>
        <time>2021-08-11T09:51:27Z</time>
      </trkpt>
      <trkpt lat="48.21522" lon="-3.63415">
        <ele>141.4</ele>
        <time>2021-08-11T09:51:28Z</time>
      </trkpt>
      <trkpt lat="48.2152" lon="-3.63414">
        <ele>141.4</ele>
        <time>2021-08-11T09:51:29Z</time>
      </trkpt>
      <trkpt lat="48.21518" lon="-3.63413">
        <ele>141.6</ele>
        <time>2021-08-11T09:51:30Z</time>
      </trkpt>
      <trkpt lat="48.21515" lon="-3.63412">
        <ele>141.8</ele>
        <time>2021-08-11T09:51:31Z</time>
      </trkpt>
      <trkpt lat="48.21512" lon="-3.63411">
        <ele>141.8</ele>
        <time>2021-08-11T09:51:32Z</time>
      </trkpt>
      <trkpt lat="48.2151" lon="-3.6341">
        <ele>142.2</ele>
        <time>2021-08-11T09:51:33Z</time>
      </trkpt>
      <trkpt lat="48.21507" lon="-3.63409">
        <ele>142.4</ele>
        <time>2021-08-11T09:51:34Z</time>
      </trkpt>
      <trkpt lat="48.21505" lon="-3.63409">
        <ele>142.6</ele>
        <time>2021-08-11T09:51:35Z</time>
      </trkpt>
      <trkpt lat="48.21502" lon="-3.63409">
        <ele>142.6</ele>
        <time>2021-08-11T09:51:36Z</time>
      </trkpt>
      <trkpt lat="48.215" lon="-3.63408">
        <ele>142.8</ele>
        <time>2021-08-11T09:51:37Z</time>
      </trkpt>
      <trkpt lat="48.21498" lon="-3.63407">
        <ele>142.8</ele>
        <time>2021-08-11T09:51:38Z</time>
      </trkpt>
      <trkpt lat="48.21495" lon="-3.63406">
        <ele>142.8</ele>
        <time>2021-08-11T09:51:39Z</time>
      </trkpt>
      <trkpt lat="48.21493" lon="-3.63406">
        <ele>143</ele>
        <time>2021-08-11T09:51:40Z</time>
      </trkpt>
      <trkpt lat="48.21491" lon="-3.63405">
        <ele>143.2</ele>
        <time>2021-08-11T09:51:41Z</time>
      </trkpt>
      <trkpt lat="48.21489" lon="-3.63405">
        <ele>143.2</ele>
        <time>2021-08-11T09:51:42Z</time>
      </trkpt>
      <trkpt lat="48.21487" lon="-3.63404">
        <ele>143.4</ele>
        <time>2021-08-11T09:51:43Z</time>
      </trkpt>
      <trkpt lat="48.21484" lon="-3.63402">
        <ele>143.6</ele>
        <time>2021-08-11T09:51:44Z</time>
      </trkpt>
      <trkpt lat="48.21482" lon="-3.63401">
        <ele>143.8</ele>
        <time>2021-08-11T09:51:45Z</time>
      </trkpt>
      <trkpt lat="48.2148" lon="-3.63399">
        <ele>143.8</ele>
        <time>2021-08-11T09:51:46Z</time>
      </trkpt>
      <trkpt lat="48.21478" lon="-3.63398">
        <ele>144</ele>
        <time>2021-08-11T09:51:47Z</time>
      </trkpt>
      <trkpt lat="48.21475" lon="-3.63396">
        <ele>144</ele>
        <time>2021-08-11T09:51:48Z</time>
      </trkpt>
      <trkpt lat="48.21473" lon="-3.63394">
        <ele>144.2</ele>
        <time>2021-08-11T09:51:49Z</time>
      </trkpt>
      <trkpt lat="48.2147" lon="-3.63393">
        <ele>144.4</ele>
        <time>2021-08-11T09:51:50Z</time>
      </trkpt>
      <trkpt lat="48.21468" lon="-3.63391">
        <ele>144.6</ele>
        <time>2021-08-11T09:51:51Z</time>
      </trkpt>
      <trkpt lat="48.21466" lon="-3.6339">
        <ele>144.6</ele>
        <time>2021-08-11T09:51:52Z</time>
      </trkpt>
      <trkpt lat="48.21463" lon="-3.63388">
        <ele>144.8</ele>
        <time>2021-08-11T09:51:53Z</time>
      </trkpt>
      <trkpt lat="48.21461" lon="-3.63386">
        <ele>144.8</ele>
        <time>2021-08-11T09:51:54Z</time>
      </trkpt>
      <trkpt lat="48.21458" lon="-3.63383">
        <ele>145</ele>
        <time>2021-08-11T09:51:55Z</time>
      </trkpt>
      <trkpt lat="48.21456" lon="-3.63381">
        <ele>145</ele>
        <time>2021-08-11T09:51:56Z</time>
      </trkpt>
      <trkpt lat="48.21454" lon="-3.6338">
        <ele>145.2</ele>
        <time>2021-08-11T09:51:57Z</time>
      </trkpt>
      <trkpt lat="48.21452" lon="-3.63378">
        <ele>145.4</ele>
        <time>2021-08-11T09:51:58Z</time>
      </trkpt>
      <trkpt lat="48.21449" lon="-3.63376">
        <ele>145.4</ele>
        <time>2021-08-11T09:51:59Z</time>
      </trkpt>
      <trkpt lat="48.21447" lon="-3.63374">
        <ele>145.6</ele>
        <time>2021-08-11T09:52:00Z</time>
      </trkpt>
      <trkpt lat="48.21445" lon="-3.63372">
        <ele>145.6</ele>
        <time>2021-08-11T09:52:01Z</time>
      </trkpt>
      <trkpt lat="48.21443" lon="-3.63369">
        <ele>146.2</ele>
        <time>2021-08-11T09:52:02Z</time>
      </trkpt>
      <trkpt lat="48.2144" lon="-3.63367">
        <ele>146.4</ele>
        <time>2021-08-11T09:52:03Z</time>
      </trkpt>
      <trkpt lat="48.21438" lon="-3.63364">
        <ele>146.6</ele>
        <time>2021-08-11T09:52:04Z</time>
      </trkpt>
      <trkpt lat="48.21436" lon="-3.63362">
        <ele>146.6</ele>
        <time>2021-08-11T09:52:05Z</time>
      </trkpt>
      <trkpt lat="48.21434" lon="-3.63359">
        <ele>146.8</ele>
        <time>2021-08-11T09:52:06Z</time>
      </trkpt>
      <trkpt lat="48.21432" lon="-3.63356">
        <ele>146.8</ele>
        <time>2021-08-11T09:52:07Z</time>
      </trkpt>
      <trkpt lat="48.2143" lon="-3.63353">
        <ele>147</ele>
        <time>2021-08-11T09:52:08Z</time>
      </trkpt>
      <trkpt lat="48.21428" lon="-3.6335">
        <ele>147.2</ele>
        <time>2021-08-11T09:52:09Z</time>
      </trkpt>
      <trkpt lat="48.21426" lon="-3.63347">
        <ele>147.2</ele>
        <time>2021-08-11T09:52:10Z</time>
      </trkpt>
      <trkpt lat="48.21425" lon="-3.63343">
        <ele>147.2</ele>
        <time>2021-08-11T09:52:11Z</time>
      </trkpt>
      <trkpt lat="48.21423" lon="-3.6334">
        <ele>147.2</ele>
        <time>2021-08-11T09:52:12Z</time>
      </trkpt>
      <trkpt lat="48.21421" lon="-3.63336">
        <ele>147.4</ele>
        <time>2021-08-11T09:52:13Z</time>
      </trkpt>
      <trkpt lat="48.21419" lon="-3.63332">
        <ele>147.4</ele>
        <time>2021-08-11T09:52:14Z</time>
      </trkpt>
      <trkpt lat="48.21418" lon="-3.63329">
        <ele>147.6</ele>
        <time>2021-08-11T09:52:15Z</time>
      </trkpt>
      <trkpt lat="48.21417" lon="-3.63325">
        <ele>147.6</ele>
        <time>2021-08-11T09:52:16Z</time>
      </trkpt>
      <trkpt lat="48.21415" lon="-3.63321">
        <ele>147.6</ele>
        <time>2021-08-11T09:52:17Z</time>
      </trkpt>
      <trkpt lat="48.21413" lon="-3.63317">
        <ele>147.6</ele>
        <time>2021-08-11T09:52:18Z</time>
      </trkpt>
      <trkpt lat="48.21411" lon="-3.63314">
        <ele>147.8</ele>
        <time>2021-08-11T09:52:19Z</time>
      </trkpt>
      <trkpt lat="48.21409" lon="-3.6331">
        <ele>147.8</ele>
        <time>2021-08-11T09:52:20Z</time>
      </trkpt>
      <trkpt lat="48.21407" lon="-3.63307">
        <ele>147.8</ele>
        <time>2021-08-11T09:52:21Z</time>
      </trkpt>
      <trkpt lat="48.21405" lon="-3.63303">
        <ele>147.8</ele>
        <time>2021-08-11T09:52:22Z</time>
      </trkpt>
      <trkpt lat="48.21403" lon="-3.63299">
        <ele>147.8</ele>
        <time>2021-08-11T09:52:23Z</time>
      </trkpt>
      <trkpt lat="48.21401" lon="-3.63295">
        <ele>148</ele>
        <time>2021-08-11T09:52:24Z</time>
      </trkpt>
      <trkpt lat="48.21399" lon="-3.63291">
        <ele>148.2</ele>
        <time>2021-08-11T09:52:25Z</time>
      </trkpt>
      <trkpt lat="48.21398" lon="-3.63287">
        <ele>148.2</ele>
        <time>2021-08-11T09:52:26Z</time>
      </trkpt>
      <trkpt lat="48.21396" lon="-3.63283">
        <ele>148.4</ele>
        <time>2021-08-11T09:52:27Z</time>
      </trkpt>
      <trkpt lat="48.21394" lon="-3.63279">
        <ele>148.6</ele>
        <time>2021-08-11T09:52:28Z</time>
      </trkpt>
      <trkpt lat="48.21393" lon="-3.63275">
        <ele>148.6</ele>
        <time>2021-08-11T09:52:29Z</time>
      </trkpt>
      <trkpt lat="48.21391" lon="-3.63271">
        <ele>148.8</ele>
        <time>2021-08-11T09:52:30Z</time>
      </trkpt>
      <trkpt lat="48.2139" lon="-3.63267">
        <ele>149</ele>
        <time>2021-08-11T09:52:31Z</time>
      </trkpt>
      <trkpt lat="48.21388" lon="-3.63263">
        <ele>149</ele>
        <time>2021-08-11T09:52:32Z</time>
      </trkpt>
      <trkpt lat="48.21386" lon="-3.63259">
        <ele>149.2</ele>
        <time>2021-08-11T09:52:33Z</time>
      </trkpt>
      <trkpt lat="48.21385" lon="-3.63255">
        <ele>149.2</ele>
        <time>2021-08-11T09:52:34Z</time>
      </trkpt>
      <trkpt lat="48.21384" lon="-3.6325">
        <ele>149.4</ele>
        <time>2021-08-11T09:52:35Z</time>
      </trkpt>
      <trkpt lat="48.21382" lon="-3.63246">
        <ele>149.4</ele>
        <time>2021-08-11T09:52:36Z</time>
      </trkpt>
      <trkpt lat="48.21381" lon="-3.63242">
        <ele>149.6</ele>
        <time>2021-08-11T09:52:37Z</time>
      </trkpt>
      <trkpt lat="48.21379" lon="-3.63239">
        <ele>149.8</ele>
        <time>2021-08-11T09:52:38Z</time>
      </trkpt>
      <trkpt lat="48.21378" lon="-3.63235">
        <ele>149.8</ele>
        <time>2021-08-11T09:52:39Z</time>
      </trkpt>
      <trkpt lat="48.21377" lon="-3.6323">
        <ele>150</ele>
        <time>2021-08-11T09:52:40Z</time>
      </trkpt>
      <trkpt lat="48.21375" lon="-3.63226">
        <ele>150.2</ele>
        <time>2021-08-11T09:52:41Z</time>
      </trkpt>
      <trkpt lat="48.21374" lon="-3.63222">
        <ele>150.4</ele>
        <time>2021-08-11T09:52:42Z</time>
      </trkpt>
      <trkpt lat="48.21373" lon="-3.63218">
        <ele>150.6</ele>
        <time>2021-08-11T09:52:43Z</time>
      </trkpt>
      <trkpt lat="48.21371" lon="-3.63214">
        <ele>150.8</ele>
        <time>2021-08-11T09:52:44Z</time>
      </trkpt>
      <trkpt lat="48.2137" lon="-3.6321">
        <ele>151</ele>
        <time>2021-08-11T09:52:45Z</time>
      </trkpt>
      <trkpt lat="48.21368" lon="-3.63206">
        <ele>151</ele>
        <time>2021-08-11T09:52:46Z</time>
      </trkpt>
      <trkpt lat="48.21367" lon="-3.63202">
        <ele>151</ele>
        <time>2021-08-11T09:52:47Z</time>
      </trkpt>
      <trkpt lat="48.21365" lon="-3.63198">
        <ele>151.2</ele>
        <time>2021-08-11T09:52:48Z</time>
      </trkpt>
      <trkpt lat="48.21364" lon="-3.63194">
        <ele>151.2</ele>
        <time>2021-08-11T09:52:49Z</time>
      </trkpt>
      <trkpt lat="48.21362" lon="-3.6319">
        <ele>151.2</ele>
        <time>2021-08-11T09:52:50Z</time>
      </trkpt>
      <trkpt lat="48.21361" lon="-3.63186">
        <ele>151.4</ele>
        <time>2021-08-11T09:52:51Z</time>
      </trkpt>
      <trkpt lat="48.21359" lon="-3.63182">
        <ele>151.6</ele>
        <time>2021-08-11T09:52:52Z</time>
      </trkpt>
      <trkpt lat="48.21357" lon="-3.63178">
        <ele>151.8</ele>
        <time>2021-08-11T09:52:53Z</time>
      </trkpt>
      <trkpt lat="48.21356" lon="-3.63174">
        <ele>151.8</ele>
        <time>2021-08-11T09:52:54Z</time>
      </trkpt>
      <trkpt lat="48.21354" lon="-3.6317">
        <ele>152</ele>
        <time>2021-08-11T09:52:55Z</time>
      </trkpt>
      <trkpt lat="48.21352" lon="-3.63166">
        <ele>152</ele>
        <time>2021-08-11T09:52:56Z</time>
      </trkpt>
      <trkpt lat="48.21351" lon="-3.63162">
        <ele>152.2</ele>
        <time>2021-08-11T09:52:57Z</time>
      </trkpt>
      <trkpt lat="48.21349" lon="-3.63158">
        <ele>152.2</ele>
        <time>2021-08-11T09:52:58Z</time>
      </trkpt>
      <trkpt lat="48.21347" lon="-3.63154">
        <ele>152.4</ele>
        <time>2021-08-11T09:52:59Z</time>
      </trkpt>
      <trkpt lat="48.21345" lon="-3.6315">
        <ele>152.6</ele>
        <time>2021-08-11T09:53:00Z</time>
      </trkpt>
      <trkpt lat="48.21343" lon="-3.63146">
        <ele>152.8</ele>
        <time>2021-08-11T09:53:01Z</time>
      </trkpt>
      <trkpt lat="48.21342" lon="-3.63142">
        <ele>153</ele>
        <time>2021-08-11T09:53:02Z</time>
      </trkpt>
      <trkpt lat="48.21339" lon="-3.63139">
        <ele>153.2</ele>
        <time>2021-08-11T09:53:03Z</time>
      </trkpt>
      <trkpt lat="48.21337" lon="-3.63135">
        <ele>153.4</ele>
        <time>2021-08-11T09:53:04Z</time>
      </trkpt>
      <trkpt lat="48.21335" lon="-3.63131">
        <ele>153.6</ele>
        <time>2021-08-11T09:53:05Z</time>
      </trkpt>
      <trkpt lat="48.21333" lon="-3.63128">
        <ele>153.8</ele>
        <time>2021-08-11T09:53:06Z</time>
      </trkpt>
      <trkpt lat="48.21331" lon="-3.63124">
        <ele>153.8</ele>
        <time>2021-08-11T09:53:07Z</time>
      </trkpt>
      <trkpt lat="48.21329" lon="-3.6312">
        <ele>154</ele>
        <time>2021-08-11T09:53:08Z</time>
      </trkpt>
      <trkpt lat="48.21327" lon="-3.63116">
        <ele>154.2</ele>
        <time>2021-08-11T09:53:09Z</time>
      </trkpt>
      <trkpt lat="48.21325" lon="-3.63113">
        <ele>154.4</ele>
        <time>2021-08-11T09:53:10Z</time>
      </trkpt>
      <trkpt lat="48.21323" lon="-3.63109">
        <ele>154.4</ele>
        <time>2021-08-11T09:53:11Z</time>
      </trkpt>
      <trkpt lat="48.21321" lon="-3.63105">
        <ele>154.6</ele>
        <time>2021-08-11T09:53:12Z</time>
      </trkpt>
      <trkpt lat="48.21319" lon="-3.63102">
        <ele>154.6</ele>
        <time>2021-08-11T09:53:13Z</time>
      </trkpt>
      <trkpt lat="48.21317" lon="-3.63098">
        <ele>154.8</ele>
        <time>2021-08-11T09:53:14Z</time>
      </trkpt>
      <trkpt lat="48.21315" lon="-3.63095">
        <ele>154.8</ele>
        <time>2021-08-11T09:53:15Z</time>
      </trkpt>
      <trkpt lat="48.21312" lon="-3.63091">
        <ele>154.8</ele>
        <time>2021-08-11T09:53:16Z</time>
      </trkpt>
      <trkpt lat="48.2131" lon="-3.63088">
        <ele>155</ele>
        <time>2021-08-11T09:53:17Z</time>
      </trkpt>
      <trkpt lat="48.21307" lon="-3.63084">
        <ele>155</ele>
        <time>2021-08-11T09:53:18Z</time>
      </trkpt>
      <trkpt lat="48.21305" lon="-3.6308">
        <ele>155.2</ele>
        <time>2021-08-11T09:53:19Z</time>
      </trkpt>
      <trkpt lat="48.21303" lon="-3.63077">
        <ele>155.2</ele>
        <time>2021-08-11T09:53:20Z</time>
      </trkpt>
      <trkpt lat="48.21301" lon="-3.63073">
        <ele>155.4</ele>
        <time>2021-08-11T09:53:21Z</time>
      </trkpt>
      <trkpt lat="48.21299" lon="-3.63069">
        <ele>155.6</ele>
        <time>2021-08-11T09:53:22Z</time>
      </trkpt>
      <trkpt lat="48.21297" lon="-3.63065">
        <ele>155.6</ele>
        <time>2021-08-11T09:53:23Z</time>
      </trkpt>
      <trkpt lat="48.21295" lon="-3.63061">
        <ele>155.8</ele>
        <time>2021-08-11T09:53:24Z</time>
      </trkpt>
      <trkpt lat="48.21293" lon="-3.63057">
        <ele>155.8</ele>
        <time>2021-08-11T09:53:25Z</time>
      </trkpt>
      <trkpt lat="48.21291" lon="-3.63054">
        <ele>156</ele>
        <time>2021-08-11T09:53:26Z</time>
      </trkpt>
      <trkpt lat="48.21288" lon="-3.6305">
        <ele>156</ele>
        <time>2021-08-11T09:53:27Z</time>
      </trkpt>
      <trkpt lat="48.21286" lon="-3.63046">
        <ele>156.2</ele>
        <time>2021-08-11T09:53:28Z</time>
      </trkpt>
      <trkpt lat="48.21283" lon="-3.63042">
        <ele>156.2</ele>
        <time>2021-08-11T09:53:29Z</time>
      </trkpt>
      <trkpt lat="48.21281" lon="-3.63038">
        <ele>156.2</ele>
        <time>2021-08-11T09:53:30Z</time>
      </trkpt>
      <trkpt lat="48.21278" lon="-3.63034">
        <ele>156.2</ele>
        <time>2021-08-11T09:53:31Z</time>
      </trkpt>
      <trkpt lat="48.21276" lon="-3.6303">
        <ele>156.2</ele>
        <time>2021-08-11T09:53:32Z</time>
      </trkpt>
      <trkpt lat="48.21273" lon="-3.63026">
        <ele>156.2</ele>
        <time>2021-08-11T09:53:33Z</time>
      </trkpt>
      <trkpt lat="48.2127" lon="-3.63022">
        <ele>156.2</ele>
        <time>2021-08-11T09:53:34Z</time>
      </trkpt>
      <trkpt lat="48.21268" lon="-3.63018">
        <ele>156.2</ele>
        <time>2021-08-11T09:53:35Z</time>
      </trkpt>
      <trkpt lat="48.21265" lon="-3.63013">
        <ele>156.2</ele>
        <time>2021-08-11T09:53:36Z</time>
      </trkpt>
      <trkpt lat="48.21262" lon="-3.63009">
        <ele>156.2</ele>
        <time>2021-08-11T09:53:37Z</time>
      </trkpt>
      <trkpt lat="48.2126" lon="-3.63005">
        <ele>156.4</ele>
        <time>2021-08-11T09:53:38Z</time>
      </trkpt>
      <trkpt lat="48.21257" lon="-3.63001">
        <ele>156.4</ele>
        <time>2021-08-11T09:53:39Z</time>
      </trkpt>
      <trkpt lat="48.21255" lon="-3.62996">
        <ele>156.4</ele>
        <time>2021-08-11T09:53:40Z</time>
      </trkpt>
      <trkpt lat="48.21252" lon="-3.62992">
        <ele>156.4</ele>
        <time>2021-08-11T09:53:41Z</time>
      </trkpt>
      <trkpt lat="48.2125" lon="-3.62987">
        <ele>156.4</ele>
        <time>2021-08-11T09:53:42Z</time>
      </trkpt>
      <trkpt lat="48.21247" lon="-3.62983">
        <ele>156.4</ele>
        <time>2021-08-11T09:53:43Z</time>
      </trkpt>
      <trkpt lat="48.21244" lon="-3.62978">
        <ele>156.4</ele>
        <time>2021-08-11T09:53:44Z</time>
      </trkpt>
      <trkpt lat="48.21241" lon="-3.62974">
        <ele>156.4</ele>
        <time>2021-08-11T09:53:45Z</time>
      </trkpt>
      <trkpt lat="48.21238" lon="-3.62969">
        <ele>156.4</ele>
        <time>2021-08-11T09:53:46Z</time>
      </trkpt>
      <trkpt lat="48.21235" lon="-3.62963">
        <ele>156.4</ele>
        <time>2021-08-11T09:53:47Z</time>
      </trkpt>
      <trkpt lat="48.21232" lon="-3.62957">
        <ele>156.4</ele>
        <time>2021-08-11T09:53:48Z</time>
      </trkpt>
      <trkpt lat="48.21229" lon="-3.62951">
        <ele>156.4</ele>
        <time>2021-08-11T09:53:49Z</time>
      </trkpt>
      <trkpt lat="48.21226" lon="-3.62945">
        <ele>156.4</ele>
        <time>2021-08-11T09:53:50Z</time>
      </trkpt>
      <trkpt lat="48.21222" lon="-3.62938">
        <ele>156.4</ele>
        <time>2021-08-11T09:53:51Z</time>
      </trkpt>
      <trkpt lat="48.21218" lon="-3.62931">
        <ele>156.4</ele>
        <time>2021-08-11T09:53:52Z</time>
      </trkpt>
      <trkpt lat="48.21214" lon="-3.62924">
        <ele>156.4</ele>
        <time>2021-08-11T09:53:53Z</time>
      </trkpt>
      <trkpt lat="48.21209" lon="-3.62917">
        <ele>156.4</ele>
        <time>2021-08-11T09:53:54Z</time>
      </trkpt>
      <trkpt lat="48.21205" lon="-3.6291">
        <ele>156.2</ele>
        <time>2021-08-11T09:53:55Z</time>
      </trkpt>
      <trkpt lat="48.212" lon="-3.62902">
        <ele>156.2</ele>
        <time>2021-08-11T09:53:56Z</time>
      </trkpt>
      <trkpt lat="48.21195" lon="-3.62894">
        <ele>156</ele>
        <time>2021-08-11T09:53:57Z</time>
      </trkpt>
      <trkpt lat="48.2119" lon="-3.62885">
        <ele>155.8</ele>
        <time>2021-08-11T09:53:58Z</time>
      </trkpt>
      <trkpt lat="48.21185" lon="-3.62876">
        <ele>155.4</ele>
        <time>2021-08-11T09:53:59Z</time>
      </trkpt>
      <trkpt lat="48.2118" lon="-3.62867">
        <ele>154.8</ele>
        <time>2021-08-11T09:54:00Z</time>
      </trkpt>
      <trkpt lat="48.21175" lon="-3.62858">
        <ele>154.2</ele>
        <time>2021-08-11T09:54:01Z</time>
      </trkpt>
      <trkpt lat="48.2117" lon="-3.62848">
        <ele>153.8</ele>
        <time>2021-08-11T09:54:02Z</time>
      </trkpt>
      <trkpt lat="48.21165" lon="-3.62838">
        <ele>153.4</ele>
        <time>2021-08-11T09:54:03Z</time>
      </trkpt>
      <trkpt lat="48.2116" lon="-3.62829">
        <ele>153</ele>
        <time>2021-08-11T09:54:04Z</time>
      </trkpt>
      <trkpt lat="48.21154" lon="-3.62819">
        <ele>152.6</ele>
        <time>2021-08-11T09:54:05Z</time>
      </trkpt>
      <trkpt lat="48.21148" lon="-3.62809">
        <ele>152</ele>
        <time>2021-08-11T09:54:06Z</time>
      </trkpt>
      <trkpt lat="48.21142" lon="-3.62798">
        <ele>151.4</ele>
        <time>2021-08-11T09:54:07Z</time>
      </trkpt>
      <trkpt lat="48.21136" lon="-3.62788">
        <ele>151</ele>
        <time>2021-08-11T09:54:08Z</time>
      </trkpt>
      <trkpt lat="48.2113" lon="-3.62777">
        <ele>150.8</ele>
        <time>2021-08-11T09:54:09Z</time>
      </trkpt>
      <trkpt lat="48.21124" lon="-3.62767">
        <ele>150.4</ele>
        <time>2021-08-11T09:54:10Z</time>
      </trkpt>
      <trkpt lat="48.21117" lon="-3.62756">
        <ele>150</ele>
        <time>2021-08-11T09:54:11Z</time>
      </trkpt>
      <trkpt lat="48.21111" lon="-3.62745">
        <ele>149.6</ele>
        <time>2021-08-11T09:54:12Z</time>
      </trkpt>
      <trkpt lat="48.21104" lon="-3.62734">
        <ele>149.2</ele>
        <time>2021-08-11T09:54:13Z</time>
      </trkpt>
      <trkpt lat="48.21098" lon="-3.62722">
        <ele>148.8</ele>
        <time>2021-08-11T09:54:14Z</time>
      </trkpt>
      <trkpt lat="48.21091" lon="-3.62711">
        <ele>148</ele>
        <time>2021-08-11T09:54:15Z</time>
      </trkpt>
      <trkpt lat="48.21084" lon="-3.627">
        <ele>147.4</ele>
        <time>2021-08-11T09:54:16Z</time>
      </trkpt>
      <trkpt lat="48.21078" lon="-3.62688">
        <ele>147</ele>
        <time>2021-08-11T09:54:17Z</time>
      </trkpt>
      <trkpt lat="48.21072" lon="-3.62677">
        <ele>146.8</ele>
        <time>2021-08-11T09:54:18Z</time>
      </trkpt>
      <trkpt lat="48.21065" lon="-3.62665">
        <ele>146.6</ele>
        <time>2021-08-11T09:54:19Z</time>
      </trkpt>
      <trkpt lat="48.21059" lon="-3.62655">
        <ele>146.4</ele>
        <time>2021-08-11T09:54:20Z</time>
      </trkpt>
      <trkpt lat="48.21053" lon="-3.62644">
        <ele>146</ele>
        <time>2021-08-11T09:54:21Z</time>
      </trkpt>
      <trkpt lat="48.21047" lon="-3.62634">
        <ele>145.4</ele>
        <time>2021-08-11T09:54:22Z</time>
      </trkpt>
      <trkpt lat="48.21041" lon="-3.62624">
        <ele>145.2</ele>
        <time>2021-08-11T09:54:23Z</time>
      </trkpt>
      <trkpt lat="48.21035" lon="-3.62614">
        <ele>145.2</ele>
        <time>2021-08-11T09:54:24Z</time>
      </trkpt>
      <trkpt lat="48.2103" lon="-3.62605">
        <ele>145</ele>
        <time>2021-08-11T09:54:25Z</time>
      </trkpt>
      <trkpt lat="48.21025" lon="-3.62596">
        <ele>145</ele>
        <time>2021-08-11T09:54:26Z</time>
      </trkpt>
      <trkpt lat="48.2102" lon="-3.62587">
        <ele>145</ele>
        <time>2021-08-11T09:54:27Z</time>
      </trkpt>
      <trkpt lat="48.21016" lon="-3.62578">
        <ele>145</ele>
        <time>2021-08-11T09:54:28Z</time>
      </trkpt>
      <trkpt lat="48.21011" lon="-3.6257">
        <ele>145</ele>
        <time>2021-08-11T09:54:29Z</time>
      </trkpt>
      <trkpt lat="48.21007" lon="-3.62563">
        <ele>145</ele>
        <time>2021-08-11T09:54:30Z</time>
      </trkpt>
      <trkpt lat="48.21003" lon="-3.62556">
        <ele>145.4</ele>
        <time>2021-08-11T09:54:31Z</time>
      </trkpt>
      <trkpt lat="48.20999" lon="-3.62549">
        <ele>146.2</ele>
        <time>2021-08-11T09:54:32Z</time>
      </trkpt>
      <trkpt lat="48.20995" lon="-3.62543">
        <ele>146.8</ele>
        <time>2021-08-11T09:54:33Z</time>
      </trkpt>
      <trkpt lat="48.20991" lon="-3.62536">
        <ele>147.6</ele>
        <time>2021-08-11T09:54:34Z</time>
      </trkpt>
      <trkpt lat="48.20988" lon="-3.6253">
        <ele>148.2</ele>
        <time>2021-08-11T09:54:35Z</time>
      </trkpt>
      <trkpt lat="48.20985" lon="-3.62524">
        <ele>148.6</ele>
        <time>2021-08-11T09:54:36Z</time>
      </trkpt>
      <trkpt lat="48.20982" lon="-3.62518">
        <ele>149</ele>
        <time>2021-08-11T09:54:37Z</time>
      </trkpt>
      <trkpt lat="48.20979" lon="-3.62513">
        <ele>149.4</ele>
        <time>2021-08-11T09:54:38Z</time>
      </trkpt>
      <trkpt lat="48.20976" lon="-3.62508">
        <ele>149.6</ele>
        <time>2021-08-11T09:54:39Z</time>
      </trkpt>
      <trkpt lat="48.20973" lon="-3.62503">
        <ele>150.2</ele>
        <time>2021-08-11T09:54:40Z</time>
      </trkpt>
      <trkpt lat="48.20971" lon="-3.62498">
        <ele>150.8</ele>
        <time>2021-08-11T09:54:41Z</time>
      </trkpt>
      <trkpt lat="48.20968" lon="-3.62493">
        <ele>151.4</ele>
        <time>2021-08-11T09:54:42Z</time>
      </trkpt>
      <trkpt lat="48.20965" lon="-3.62489">
        <ele>152</ele>
        <time>2021-08-11T09:54:43Z</time>
      </trkpt>
      <trkpt lat="48.20963" lon="-3.62485">
        <ele>152.6</ele>
        <time>2021-08-11T09:54:44Z</time>
      </trkpt>
      <trkpt lat="48.2096" lon="-3.62481">
        <ele>153.2</ele>
        <time>2021-08-11T09:54:45Z</time>
      </trkpt>
      <trkpt lat="48.20957" lon="-3.62477">
        <ele>153.6</ele>
        <time>2021-08-11T09:54:46Z</time>
      </trkpt>
      <trkpt lat="48.20955" lon="-3.62473">
        <ele>154</ele>
        <time>2021-08-11T09:54:47Z</time>
      </trkpt>
      <trkpt lat="48.20952" lon="-3.62469">
        <ele>154.2</ele>
        <time>2021-08-11T09:54:48Z</time>
      </trkpt>
      <trkpt lat="48.2095" lon="-3.62465">
        <ele>154.6</ele>
        <time>2021-08-11T09:54:49Z</time>
      </trkpt>
      <trkpt lat="48.20948" lon="-3.62461">
        <ele>154.8</ele>
        <time>2021-08-11T09:54:50Z</time>
      </trkpt>
      <trkpt lat="48.20946" lon="-3.62457">
        <ele>155.2</ele>
        <time>2021-08-11T09:54:51Z</time>
      </trkpt>
      <trkpt lat="48.20944" lon="-3.62453">
        <ele>155.4</ele>
        <time>2021-08-11T09:54:52Z</time>
      </trkpt>
      <trkpt lat="48.20942" lon="-3.62449">
        <ele>155.8</ele>
        <time>2021-08-11T09:54:53Z</time>
      </trkpt>
      <trkpt lat="48.20939" lon="-3.62446">
        <ele>156</ele>
        <time>2021-08-11T09:54:54Z</time>
      </trkpt>
      <trkpt lat="48.20937" lon="-3.62442">
        <ele>156.4</ele>
        <time>2021-08-11T09:54:55Z</time>
      </trkpt>
      <trkpt lat="48.20935" lon="-3.62438">
        <ele>156.6</ele>
        <time>2021-08-11T09:54:56Z</time>
      </trkpt>
      <trkpt lat="48.20933" lon="-3.62434">
        <ele>156.8</ele>
        <time>2021-08-11T09:54:57Z</time>
      </trkpt>
      <trkpt lat="48.2093" lon="-3.6243">
        <ele>157</ele>
        <time>2021-08-11T09:54:58Z</time>
      </trkpt>
      <trkpt lat="48.20928" lon="-3.62427">
        <ele>157</ele>
        <time>2021-08-11T09:54:59Z</time>
      </trkpt>
      <trkpt lat="48.20926" lon="-3.62423">
        <ele>157.4</ele>
        <time>2021-08-11T09:55:00Z</time>
      </trkpt>
      <trkpt lat="48.20924" lon="-3.62419">
        <ele>157.4</ele>
        <time>2021-08-11T09:55:01Z</time>
      </trkpt>
      <trkpt lat="48.20922" lon="-3.62416">
        <ele>157.6</ele>
        <time>2021-08-11T09:55:02Z</time>
      </trkpt>
      <trkpt lat="48.2092" lon="-3.62412">
        <ele>157.6</ele>
        <time>2021-08-11T09:55:03Z</time>
      </trkpt>
      <trkpt lat="48.20918" lon="-3.62408">
        <ele>157.6</ele>
        <time>2021-08-11T09:55:04Z</time>
      </trkpt>
      <trkpt lat="48.20916" lon="-3.62405">
        <ele>158</ele>
        <time>2021-08-11T09:55:05Z</time>
      </trkpt>
      <trkpt lat="48.20914" lon="-3.62402">
        <ele>158</ele>
        <time>2021-08-11T09:55:06Z</time>
      </trkpt>
      <trkpt lat="48.20912" lon="-3.62399">
        <ele>158.2</ele>
        <time>2021-08-11T09:55:07Z</time>
      </trkpt>
      <trkpt lat="48.2091" lon="-3.62396">
        <ele>158.2</ele>
        <time>2021-08-11T09:55:08Z</time>
      </trkpt>
      <trkpt lat="48.20908" lon="-3.62392">
        <ele>158.4</ele>
        <time>2021-08-11T09:55:09Z</time>
      </trkpt>
      <trkpt lat="48.20906" lon="-3.62389">
        <ele>158.6</ele>
        <time>2021-08-11T09:55:10Z</time>
      </trkpt>
      <trkpt lat="48.20904" lon="-3.62386">
        <ele>158.6</ele>
        <time>2021-08-11T09:55:11Z</time>
      </trkpt>
      <trkpt lat="48.20902" lon="-3.62383">
        <ele>158.8</ele>
        <time>2021-08-11T09:55:12Z</time>
      </trkpt>
      <trkpt lat="48.209" lon="-3.6238">
        <ele>159</ele>
        <time>2021-08-11T09:55:13Z</time>
      </trkpt>
      <trkpt lat="48.20898" lon="-3.62377">
        <ele>159.2</ele>
        <time>2021-08-11T09:55:14Z</time>
      </trkpt>
      <trkpt lat="48.20896" lon="-3.62373">
        <ele>159.2</ele>
        <time>2021-08-11T09:55:15Z</time>
      </trkpt>
      <trkpt lat="48.20894" lon="-3.6237">
        <ele>159.2</ele>
        <time>2021-08-11T09:55:16Z</time>
      </trkpt>
      <trkpt lat="48.20893" lon="-3.62367">
        <ele>159.4</ele>
        <time>2021-08-11T09:55:17Z</time>
      </trkpt>
      <trkpt lat="48.20891" lon="-3.62363">
        <ele>159.4</ele>
        <time>2021-08-11T09:55:18Z</time>
      </trkpt>
      <trkpt lat="48.20889" lon="-3.62359">
        <ele>159.6</ele>
        <time>2021-08-11T09:55:19Z</time>
      </trkpt>
      <trkpt lat="48.20888" lon="-3.62356">
        <ele>159.8</ele>
        <time>2021-08-11T09:55:20Z</time>
      </trkpt>
      <trkpt lat="48.20886" lon="-3.62352">
        <ele>160</ele>
        <time>2021-08-11T09:55:21Z</time>
      </trkpt>
      <trkpt lat="48.20884" lon="-3.62349">
        <ele>160.2</ele>
        <time>2021-08-11T09:55:22Z</time>
      </trkpt>
      <trkpt lat="48.20882" lon="-3.62345">
        <ele>160.4</ele>
        <time>2021-08-11T09:55:23Z</time>
      </trkpt>
      <trkpt lat="48.2088" lon="-3.62342">
        <ele>160.6</ele>
        <time>2021-08-11T09:55:24Z</time>
      </trkpt>
      <trkpt lat="48.20878" lon="-3.62338">
        <ele>160.6</ele>
        <time>2021-08-11T09:55:25Z</time>
      </trkpt>
      <trkpt lat="48.20875" lon="-3.62335">
        <ele>160.8</ele>
        <time>2021-08-11T09:55:26Z</time>
      </trkpt>
      <trkpt lat="48.20873" lon="-3.62331">
        <ele>161</ele>
        <time>2021-08-11T09:55:27Z</time>
      </trkpt>
      <trkpt lat="48.20871" lon="-3.62327">
        <ele>161.4</ele>
        <time>2021-08-11T09:55:28Z</time>
      </trkpt>
      <trkpt lat="48.20869" lon="-3.62323">
        <ele>161.4</ele>
        <time>2021-08-11T09:55:29Z</time>
      </trkpt>
      <trkpt lat="48.20867" lon="-3.6232">
        <ele>161.4</ele>
        <time>2021-08-11T09:55:30Z</time>
      </trkpt>
      <trkpt lat="48.20865" lon="-3.62316">
        <ele>161.6</ele>
        <time>2021-08-11T09:55:31Z</time>
      </trkpt>
      <trkpt lat="48.20862" lon="-3.62312">
        <ele>161.6</ele>
        <time>2021-08-11T09:55:32Z</time>
      </trkpt>
      <trkpt lat="48.2086" lon="-3.62308">
        <ele>161.6</ele>
        <time>2021-08-11T09:55:33Z</time>
      </trkpt>
      <trkpt lat="48.20858" lon="-3.62304">
        <ele>161.6</ele>
        <time>2021-08-11T09:55:34Z</time>
      </trkpt>
      <trkpt lat="48.20856" lon="-3.623">
        <ele>161.8</ele>
        <time>2021-08-11T09:55:35Z</time>
      </trkpt>
      <trkpt lat="48.20853" lon="-3.62295">
        <ele>161.8</ele>
        <time>2021-08-11T09:55:36Z</time>
      </trkpt>
      <trkpt lat="48.20851" lon="-3.62291">
        <ele>161.8</ele>
        <time>2021-08-11T09:55:37Z</time>
      </trkpt>
      <trkpt lat="48.20849" lon="-3.62287">
        <ele>162</ele>
        <time>2021-08-11T09:55:38Z</time>
      </trkpt>
      <trkpt lat="48.20846" lon="-3.62283">
        <ele>162.2</ele>
        <time>2021-08-11T09:55:39Z</time>
      </trkpt>
      <trkpt lat="48.20844" lon="-3.62279">
        <ele>162.4</ele>
        <time>2021-08-11T09:55:40Z</time>
      </trkpt>
      <trkpt lat="48.20841" lon="-3.62275">
        <ele>162.4</ele>
        <time>2021-08-11T09:55:41Z</time>
      </trkpt>
      <trkpt lat="48.20839" lon="-3.6227">
        <ele>162.4</ele>
        <time>2021-08-11T09:55:42Z</time>
      </trkpt>
      <trkpt lat="48.20836" lon="-3.62266">
        <ele>162.4</ele>
        <time>2021-08-11T09:55:43Z</time>
      </trkpt>
      <trkpt lat="48.20834" lon="-3.62262">
        <ele>162.4</ele>
        <time>2021-08-11T09:55:44Z</time>
      </trkpt>
      <trkpt lat="48.20832" lon="-3.62258">
        <ele>162.6</ele>
        <time>2021-08-11T09:55:45Z</time>
      </trkpt>
      <trkpt lat="48.20829" lon="-3.62253">
        <ele>162.6</ele>
        <time>2021-08-11T09:55:46Z</time>
      </trkpt>
      <trkpt lat="48.20827" lon="-3.62249">
        <ele>162.6</ele>
        <time>2021-08-11T09:55:47Z</time>
      </trkpt>
      <trkpt lat="48.20824" lon="-3.62245">
        <ele>162.6</ele>
        <time>2021-08-11T09:55:48Z</time>
      </trkpt>
      <trkpt lat="48.20821" lon="-3.6224">
        <ele>162.6</ele>
        <time>2021-08-11T09:55:49Z</time>
      </trkpt>
      <trkpt lat="48.20819" lon="-3.62236">
        <ele>162.6</ele>
        <time>2021-08-11T09:55:50Z</time>
      </trkpt>
      <trkpt lat="48.20816" lon="-3.62231">
        <ele>162.6</ele>
        <time>2021-08-11T09:55:51Z</time>
      </trkpt>
      <trkpt lat="48.20813" lon="-3.62227">
        <ele>162.6</ele>
        <time>2021-08-11T09:55:52Z</time>
      </trkpt>
      <trkpt lat="48.20811" lon="-3.62222">
        <ele>162.6</ele>
        <time>2021-08-11T09:55:53Z</time>
      </trkpt>
      <trkpt lat="48.20808" lon="-3.62217">
        <ele>162.6</ele>
        <time>2021-08-11T09:55:54Z</time>
      </trkpt>
      <trkpt lat="48.20806" lon="-3.62212">
        <ele>162.6</ele>
        <time>2021-08-11T09:55:55Z</time>
      </trkpt>
      <trkpt lat="48.20803" lon="-3.62208">
        <ele>162.6</ele>
        <time>2021-08-11T09:55:56Z</time>
      </trkpt>
      <trkpt lat="48.208" lon="-3.62203">
        <ele>162.6</ele>
        <time>2021-08-11T09:55:57Z</time>
      </trkpt>
      <trkpt lat="48.20797" lon="-3.62198">
        <ele>162.6</ele>
        <time>2021-08-11T09:55:58Z</time>
      </trkpt>
      <trkpt lat="48.20795" lon="-3.62193">
        <ele>162.6</ele>
        <time>2021-08-11T09:55:59Z</time>
      </trkpt>
      <trkpt lat="48.20792" lon="-3.62188">
        <ele>162.6</ele>
        <time>2021-08-11T09:56:00Z</time>
      </trkpt>
      <trkpt lat="48.20789" lon="-3.62183">
        <ele>162.6</ele>
        <time>2021-08-11T09:56:01Z</time>
      </trkpt>
      <trkpt lat="48.20786" lon="-3.62178">
        <ele>162.6</ele>
        <time>2021-08-11T09:56:02Z</time>
      </trkpt>
      <trkpt lat="48.20784" lon="-3.62173">
        <ele>162.6</ele>
        <time>2021-08-11T09:56:03Z</time>
      </trkpt>
      <trkpt lat="48.20781" lon="-3.62168">
        <ele>162.6</ele>
        <time>2021-08-11T09:56:04Z</time>
      </trkpt>
      <trkpt lat="48.20778" lon="-3.62163">
        <ele>162.6</ele>
        <time>2021-08-11T09:56:05Z</time>
      </trkpt>
      <trkpt lat="48.20776" lon="-3.62158">
        <ele>162.6</ele>
        <time>2021-08-11T09:56:06Z</time>
      </trkpt>
      <trkpt lat="48.20773" lon="-3.62153">
        <ele>162.6</ele>
        <time>2021-08-11T09:56:07Z</time>
      </trkpt>
      <trkpt lat="48.2077" lon="-3.62149">
        <ele>162.6</ele>
        <time>2021-08-11T09:56:08Z</time>
      </trkpt>
      <trkpt lat="48.20767" lon="-3.62144">
        <ele>162.6</ele>
        <time>2021-08-11T09:56:09Z</time>
      </trkpt>
      <trkpt lat="48.20764" lon="-3.62139">
        <ele>162.6</ele>
        <time>2021-08-11T09:56:10Z</time>
      </trkpt>
      <trkpt lat="48.20762" lon="-3.62134">
        <ele>162.6</ele>
        <time>2021-08-11T09:56:11Z</time>
      </trkpt>
      <trkpt lat="48.20759" lon="-3.62129">
        <ele>162.6</ele>
        <time>2021-08-11T09:56:12Z</time>
      </trkpt>
      <trkpt lat="48.20756" lon="-3.62124">
        <ele>162.6</ele>
        <time>2021-08-11T09:56:13Z</time>
      </trkpt>
      <trkpt lat="48.20753" lon="-3.62119">
        <ele>162.8</ele>
        <time>2021-08-11T09:56:14Z</time>
      </trkpt>
      <trkpt lat="48.20751" lon="-3.62113">
        <ele>162.8</ele>
        <time>2021-08-11T09:56:15Z</time>
      </trkpt>
      <trkpt lat="48.20748" lon="-3.62108">
        <ele>162.8</ele>
        <time>2021-08-11T09:56:16Z</time>
      </trkpt>
      <trkpt lat="48.20745" lon="-3.62103">
        <ele>162.8</ele>
        <time>2021-08-11T09:56:17Z</time>
      </trkpt>
      <trkpt lat="48.20742" lon="-3.62098">
        <ele>162.8</ele>
        <time>2021-08-11T09:56:18Z</time>
      </trkpt>
      <trkpt lat="48.2074" lon="-3.62093">
        <ele>162.8</ele>
        <time>2021-08-11T09:56:19Z</time>
      </trkpt>
      <trkpt lat="48.20737" lon="-3.62088">
        <ele>163</ele>
        <time>2021-08-11T09:56:20Z</time>
      </trkpt>
      <trkpt lat="48.20734" lon="-3.62083">
        <ele>163</ele>
        <time>2021-08-11T09:56:21Z</time>
      </trkpt>
      <trkpt lat="48.20732" lon="-3.62078">
        <ele>163</ele>
        <time>2021-08-11T09:56:22Z</time>
      </trkpt>
      <trkpt lat="48.20729" lon="-3.62073">
        <ele>163</ele>
        <time>2021-08-11T09:56:23Z</time>
      </trkpt>
      <trkpt lat="48.20727" lon="-3.62068">
        <ele>163</ele>
        <time>2021-08-11T09:56:24Z</time>
      </trkpt>
      <trkpt lat="48.20724" lon="-3.62062">
        <ele>163</ele>
        <time>2021-08-11T09:56:25Z</time>
      </trkpt>
      <trkpt lat="48.20721" lon="-3.62057">
        <ele>163</ele>
        <time>2021-08-11T09:56:26Z</time>
      </trkpt>
      <trkpt lat="48.20719" lon="-3.62052">
        <ele>163</ele>
        <time>2021-08-11T09:56:27Z</time>
      </trkpt>
      <trkpt lat="48.20716" lon="-3.62047">
        <ele>163</ele>
        <time>2021-08-11T09:56:28Z</time>
      </trkpt>
      <trkpt lat="48.20713" lon="-3.62041">
        <ele>163</ele>
        <time>2021-08-11T09:56:29Z</time>
      </trkpt>
      <trkpt lat="48.20711" lon="-3.62036">
        <ele>163.2</ele>
        <time>2021-08-11T09:56:30Z</time>
      </trkpt>
      <trkpt lat="48.20708" lon="-3.6203">
        <ele>163.2</ele>
        <time>2021-08-11T09:56:31Z</time>
      </trkpt>
      <trkpt lat="48.20706" lon="-3.62025">
        <ele>163.2</ele>
        <time>2021-08-11T09:56:32Z</time>
      </trkpt>
      <trkpt lat="48.20703" lon="-3.6202">
        <ele>163.2</ele>
        <time>2021-08-11T09:56:33Z</time>
      </trkpt>
      <trkpt lat="48.20701" lon="-3.62014">
        <ele>163.2</ele>
        <time>2021-08-11T09:56:34Z</time>
      </trkpt>
      <trkpt lat="48.20698" lon="-3.62009">
        <ele>163.2</ele>
        <time>2021-08-11T09:56:35Z</time>
      </trkpt>
      <trkpt lat="48.20696" lon="-3.62003">
        <ele>163.4</ele>
        <time>2021-08-11T09:56:36Z</time>
      </trkpt>
      <trkpt lat="48.20693" lon="-3.61998">
        <ele>163.4</ele>
        <time>2021-08-11T09:56:37Z</time>
      </trkpt>
      <trkpt lat="48.20691" lon="-3.61992">
        <ele>163.4</ele>
        <time>2021-08-11T09:56:38Z</time>
      </trkpt>
      <trkpt lat="48.20689" lon="-3.61986">
        <ele>163.4</ele>
        <time>2021-08-11T09:56:39Z</time>
      </trkpt>
      <trkpt lat="48.20686" lon="-3.61981">
        <ele>163.6</ele>
        <time>2021-08-11T09:56:40Z</time>
      </trkpt>
      <trkpt lat="48.20684" lon="-3.61975">
        <ele>163.6</ele>
        <time>2021-08-11T09:56:41Z</time>
      </trkpt>
      <trkpt lat="48.20681" lon="-3.6197">
        <ele>163.6</ele>
        <time>2021-08-11T09:56:42Z</time>
      </trkpt>
      <trkpt lat="48.20679" lon="-3.61964">
        <ele>163.6</ele>
        <time>2021-08-11T09:56:43Z</time>
      </trkpt>
      <trkpt lat="48.20677" lon="-3.61958">
        <ele>163.8</ele>
        <time>2021-08-11T09:56:44Z</time>
      </trkpt>
      <trkpt lat="48.20674" lon="-3.61953">
        <ele>163.8</ele>
        <time>2021-08-11T09:56:45Z</time>
      </trkpt>
      <trkpt lat="48.20672" lon="-3.61947">
        <ele>163.8</ele>
        <time>2021-08-11T09:56:46Z</time>
      </trkpt>
      <trkpt lat="48.2067" lon="-3.61941">
        <ele>163.8</ele>
        <time>2021-08-11T09:56:47Z</time>
      </trkpt>
      <trkpt lat="48.20668" lon="-3.61935">
        <ele>164</ele>
        <time>2021-08-11T09:56:48Z</time>
      </trkpt>
      <trkpt lat="48.20666" lon="-3.61929">
        <ele>164</ele>
        <time>2021-08-11T09:56:49Z</time>
      </trkpt>
      <trkpt lat="48.20664" lon="-3.61923">
        <ele>164</ele>
        <time>2021-08-11T09:56:50Z</time>
      </trkpt>
      <trkpt lat="48.20662" lon="-3.61917">
        <ele>164.2</ele>
        <time>2021-08-11T09:56:51Z</time>
      </trkpt>
      <trkpt lat="48.2066" lon="-3.6191">
        <ele>164.2</ele>
        <time>2021-08-11T09:56:52Z</time>
      </trkpt>
      <trkpt lat="48.20658" lon="-3.61904">
        <ele>164.2</ele>
        <time>2021-08-11T09:56:53Z</time>
      </trkpt>
      <trkpt lat="48.20657" lon="-3.61898">
        <ele>164.2</ele>
        <time>2021-08-11T09:56:54Z</time>
      </trkpt>
      <trkpt lat="48.20655" lon="-3.61892">
        <ele>164.2</ele>
        <time>2021-08-11T09:56:55Z</time>
      </trkpt>
      <trkpt lat="48.20653" lon="-3.61886">
        <ele>164.4</ele>
        <time>2021-08-11T09:56:56Z</time>
      </trkpt>
      <trkpt lat="48.20651" lon="-3.6188">
        <ele>164.4</ele>
        <time>2021-08-11T09:56:57Z</time>
      </trkpt>
      <trkpt lat="48.20649" lon="-3.61873">
        <ele>164.4</ele>
        <time>2021-08-11T09:56:58Z</time>
      </trkpt>
      <trkpt lat="48.20647" lon="-3.61867">
        <ele>164.6</ele>
        <time>2021-08-11T09:56:59Z</time>
      </trkpt>
      <trkpt lat="48.20646" lon="-3.61861">
        <ele>164.6</ele>
        <time>2021-08-11T09:57:00Z</time>
      </trkpt>
      <trkpt lat="48.20644" lon="-3.61855">
        <ele>164.6</ele>
        <time>2021-08-11T09:57:01Z</time>
      </trkpt>
      <trkpt lat="48.20642" lon="-3.61849">
        <ele>164.6</ele>
        <time>2021-08-11T09:57:02Z</time>
      </trkpt>
      <trkpt lat="48.2064" lon="-3.61843">
        <ele>164.6</ele>
        <time>2021-08-11T09:57:03Z</time>
      </trkpt>
      <trkpt lat="48.20638" lon="-3.61836">
        <ele>164.6</ele>
        <time>2021-08-11T09:57:04Z</time>
      </trkpt>
      <trkpt lat="48.20636" lon="-3.6183">
        <ele>164.6</ele>
        <time>2021-08-11T09:57:05Z</time>
      </trkpt>
      <trkpt lat="48.20635" lon="-3.61824">
        <ele>164.6</ele>
        <time>2021-08-11T09:57:06Z</time>
      </trkpt>
      <trkpt lat="48.20633" lon="-3.61818">
        <ele>164.6</ele>
        <time>2021-08-11T09:57:07Z</time>
      </trkpt>
      <trkpt lat="48.20631" lon="-3.61811">
        <ele>164.6</ele>
        <time>2021-08-11T09:57:08Z</time>
      </trkpt>
      <trkpt lat="48.2063" lon="-3.61805">
        <ele>164.6</ele>
        <time>2021-08-11T09:57:09Z</time>
      </trkpt>
      <trkpt lat="48.20628" lon="-3.61798">
        <ele>164.8</ele>
        <time>2021-08-11T09:57:10Z</time>
      </trkpt>
      <trkpt lat="48.20626" lon="-3.61792">
        <ele>164.8</ele>
        <time>2021-08-11T09:57:11Z</time>
      </trkpt>
      <trkpt lat="48.20625" lon="-3.61785">
        <ele>164.8</ele>
        <time>2021-08-11T09:57:12Z</time>
      </trkpt>
      <trkpt lat="48.20623" lon="-3.61778">
        <ele>164.8</ele>
        <time>2021-08-11T09:57:13Z</time>
      </trkpt>
      <trkpt lat="48.20622" lon="-3.61772">
        <ele>164.8</ele>
        <time>2021-08-11T09:57:14Z</time>
      </trkpt>
      <trkpt lat="48.2062" lon="-3.61765">
        <ele>164.8</ele>
        <time>2021-08-11T09:57:15Z</time>
      </trkpt>
      <trkpt lat="48.20619" lon="-3.61758">
        <ele>164.8</ele>
        <time>2021-08-11T09:57:16Z</time>
      </trkpt>
      <trkpt lat="48.20617" lon="-3.61752">
        <ele>164.8</ele>
        <time>2021-08-11T09:57:17Z</time>
      </trkpt>
      <trkpt lat="48.20616" lon="-3.61745">
        <ele>164.8</ele>
        <time>2021-08-11T09:57:18Z</time>
      </trkpt>
      <trkpt lat="48.20615" lon="-3.61738">
        <ele>164.8</ele>
        <time>2021-08-11T09:57:19Z</time>
      </trkpt>
      <trkpt lat="48.20614" lon="-3.61731">
        <ele>164.8</ele>
        <time>2021-08-11T09:57:20Z</time>
      </trkpt>
      <trkpt lat="48.20612" lon="-3.61725">
        <ele>164.8</ele>
        <time>2021-08-11T09:57:21Z</time>
      </trkpt>
      <trkpt lat="48.20611" lon="-3.61718">
        <ele>164.8</ele>
        <time>2021-08-11T09:57:22Z</time>
      </trkpt>
      <trkpt lat="48.2061" lon="-3.61711">
        <ele>164.8</ele>
        <time>2021-08-11T09:57:23Z</time>
      </trkpt>
      <trkpt lat="48.20609" lon="-3.61705">
        <ele>165</ele>
        <time>2021-08-11T09:57:24Z</time>
      </trkpt>
      <trkpt lat="48.20608" lon="-3.61699">
        <ele>165</ele>
        <time>2021-08-11T09:57:25Z</time>
      </trkpt>
      <trkpt lat="48.20607" lon="-3.61694">
        <ele>165</ele>
        <time>2021-08-11T09:57:26Z</time>
      </trkpt>
      <trkpt lat="48.20606" lon="-3.6169">
        <ele>165</ele>
        <time>2021-08-11T09:57:27Z</time>
      </trkpt>
      <trkpt lat="48.20605" lon="-3.61689">
        <ele>165</ele>
        <time>2021-08-11T09:57:28Z</time>
      </trkpt>
      <trkpt lat="48.20604" lon="-3.61687">
        <ele>165</ele>
        <time>2021-08-11T09:57:29Z</time>
      </trkpt>
      <trkpt lat="48.20604" lon="-3.61687">
        <ele>165</ele>
        <time>2021-08-11T09:57:30Z</time>
      </trkpt>
      <trkpt lat="48.20604" lon="-3.61687">
        <ele>165.2</ele>
        <time>2021-08-11T09:57:31Z</time>
      </trkpt>
      <trkpt lat="48.20605" lon="-3.61684">
        <ele>166.6</ele>
        <time>2021-08-11T09:58:12Z</time>
      </trkpt>
      <trkpt lat="48.20605" lon="-3.61682">
        <ele>166.6</ele>
        <time>2021-08-11T09:58:13Z</time>
      </trkpt>
      <trkpt lat="48.20604" lon="-3.61679">
        <ele>166.6</ele>
        <time>2021-08-11T09:58:14Z</time>
      </trkpt>
      <trkpt lat="48.20603" lon="-3.61675">
        <ele>166.6</ele>
        <time>2021-08-11T09:58:15Z</time>
      </trkpt>
      <trkpt lat="48.20603" lon="-3.6167">
        <ele>166.6</ele>
        <time>2021-08-11T09:58:16Z</time>
      </trkpt>
      <trkpt lat="48.20602" lon="-3.61665">
        <ele>166.6</ele>
        <time>2021-08-11T09:58:17Z</time>
      </trkpt>
      <trkpt lat="48.20601" lon="-3.6166">
        <ele>166.6</ele>
        <time>2021-08-11T09:58:18Z</time>
      </trkpt>
      <trkpt lat="48.206" lon="-3.61655">
        <ele>166.6</ele>
        <time>2021-08-11T09:58:19Z</time>
      </trkpt>
      <trkpt lat="48.20599" lon="-3.61649">
        <ele>166.6</ele>
        <time>2021-08-11T09:58:20Z</time>
      </trkpt>
      <trkpt lat="48.20598" lon="-3.61643">
        <ele>166.6</ele>
        <time>2021-08-11T09:58:21Z</time>
      </trkpt>
      <trkpt lat="48.20597" lon="-3.61637">
        <ele>166.4</ele>
        <time>2021-08-11T09:58:22Z</time>
      </trkpt>
      <trkpt lat="48.20596" lon="-3.61631">
        <ele>166.4</ele>
        <time>2021-08-11T09:58:23Z</time>
      </trkpt>
      <trkpt lat="48.20595" lon="-3.61624">
        <ele>166.4</ele>
        <time>2021-08-11T09:58:24Z</time>
      </trkpt>
      <trkpt lat="48.20594" lon="-3.61618">
        <ele>166.4</ele>
        <time>2021-08-11T09:58:25Z</time>
      </trkpt>
      <trkpt lat="48.20593" lon="-3.61611">
        <ele>166.4</ele>
        <time>2021-08-11T09:58:26Z</time>
      </trkpt>
      <trkpt lat="48.20592" lon="-3.61605">
        <ele>166.4</ele>
        <time>2021-08-11T09:58:27Z</time>
      </trkpt>
      <trkpt lat="48.20591" lon="-3.61598">
        <ele>166.2</ele>
        <time>2021-08-11T09:58:28Z</time>
      </trkpt>
      <trkpt lat="48.20589" lon="-3.61592">
        <ele>166.2</ele>
        <time>2021-08-11T09:58:29Z</time>
      </trkpt>
      <trkpt lat="48.20588" lon="-3.61585">
        <ele>166</ele>
        <time>2021-08-11T09:58:30Z</time>
      </trkpt>
      <trkpt lat="48.20588" lon="-3.61578">
        <ele>166</ele>
        <time>2021-08-11T09:58:31Z</time>
      </trkpt>
      <trkpt lat="48.20586" lon="-3.61571">
        <ele>166</ele>
        <time>2021-08-11T09:58:32Z</time>
      </trkpt>
      <trkpt lat="48.20585" lon="-3.61564">
        <ele>166</ele>
        <time>2021-08-11T09:58:33Z</time>
      </trkpt>
      <trkpt lat="48.20584" lon="-3.61558">
        <ele>166</ele>
        <time>2021-08-11T09:58:34Z</time>
      </trkpt>
      <trkpt lat="48.20583" lon="-3.61551">
        <ele>166</ele>
        <time>2021-08-11T09:58:35Z</time>
      </trkpt>
      <trkpt lat="48.20582" lon="-3.61544">
        <ele>166</ele>
        <time>2021-08-11T09:58:36Z</time>
      </trkpt>
      <trkpt lat="48.20581" lon="-3.61537">
        <ele>166</ele>
        <time>2021-08-11T09:58:37Z</time>
      </trkpt>
      <trkpt lat="48.2058" lon="-3.6153">
        <ele>166</ele>
        <time>2021-08-11T09:58:38Z</time>
      </trkpt>
      <trkpt lat="48.20578" lon="-3.61523">
        <ele>166</ele>
        <time>2021-08-11T09:58:39Z</time>
      </trkpt>
      <trkpt lat="48.20577" lon="-3.61516">
        <ele>166</ele>
        <time>2021-08-11T09:58:40Z</time>
      </trkpt>
      <trkpt lat="48.20576" lon="-3.61508">
        <ele>166</ele>
        <time>2021-08-11T09:58:41Z</time>
      </trkpt>
      <trkpt lat="48.20574" lon="-3.61501">
        <ele>166</ele>
        <time>2021-08-11T09:58:42Z</time>
      </trkpt>
      <trkpt lat="48.20573" lon="-3.61494">
        <ele>166</ele>
        <time>2021-08-11T09:58:43Z</time>
      </trkpt>
      <trkpt lat="48.20572" lon="-3.61487">
        <ele>166</ele>
        <time>2021-08-11T09:58:44Z</time>
      </trkpt>
      <trkpt lat="48.20571" lon="-3.6148">
        <ele>166.2</ele>
        <time>2021-08-11T09:58:45Z</time>
      </trkpt>
      <trkpt lat="48.2057" lon="-3.61472">
        <ele>166.2</ele>
        <time>2021-08-11T09:58:46Z</time>
      </trkpt>
      <trkpt lat="48.20569" lon="-3.61465">
        <ele>166.2</ele>
        <time>2021-08-11T09:58:47Z</time>
      </trkpt>
      <trkpt lat="48.20567" lon="-3.61458">
        <ele>166.2</ele>
        <time>2021-08-11T09:58:48Z</time>
      </trkpt>
      <trkpt lat="48.20566" lon="-3.61451">
        <ele>166.4</ele>
        <time>2021-08-11T09:58:49Z</time>
      </trkpt>
      <trkpt lat="48.20565" lon="-3.61443">
        <ele>166.4</ele>
        <time>2021-08-11T09:58:50Z</time>
      </trkpt>
      <trkpt lat="48.20564" lon="-3.61436">
        <ele>166.4</ele>
        <time>2021-08-11T09:58:51Z</time>
      </trkpt>
      <trkpt lat="48.20563" lon="-3.61428">
        <ele>166.4</ele>
        <time>2021-08-11T09:58:52Z</time>
      </trkpt>
      <trkpt lat="48.20561" lon="-3.61421">
        <ele>166.4</ele>
        <time>2021-08-11T09:58:53Z</time>
      </trkpt>
      <trkpt lat="48.2056" lon="-3.61414">
        <ele>166.6</ele>
        <time>2021-08-11T09:58:54Z</time>
      </trkpt>
      <trkpt lat="48.20558" lon="-3.61406">
        <ele>166.6</ele>
        <time>2021-08-11T09:58:55Z</time>
      </trkpt>
      <trkpt lat="48.20557" lon="-3.61398">
        <ele>166.6</ele>
        <time>2021-08-11T09:58:56Z</time>
      </trkpt>
      <trkpt lat="48.20556" lon="-3.61391">
        <ele>166.8</ele>
        <time>2021-08-11T09:58:57Z</time>
      </trkpt>
      <trkpt lat="48.20555" lon="-3.61383">
        <ele>166.8</ele>
        <time>2021-08-11T09:58:58Z</time>
      </trkpt>
      <trkpt lat="48.20553" lon="-3.61376">
        <ele>166.8</ele>
        <time>2021-08-11T09:58:59Z</time>
      </trkpt>
      <trkpt lat="48.20552" lon="-3.61368">
        <ele>166.8</ele>
        <time>2021-08-11T09:59:00Z</time>
      </trkpt>
      <trkpt lat="48.2055" lon="-3.61361">
        <ele>166.8</ele>
        <time>2021-08-11T09:59:01Z</time>
      </trkpt>
      <trkpt lat="48.20549" lon="-3.61353">
        <ele>166.8</ele>
        <time>2021-08-11T09:59:02Z</time>
      </trkpt>
      <trkpt lat="48.20547" lon="-3.61345">
        <ele>166.8</ele>
        <time>2021-08-11T09:59:03Z</time>
      </trkpt>
      <trkpt lat="48.20546" lon="-3.61338">
        <ele>166.8</ele>
        <time>2021-08-11T09:59:04Z</time>
      </trkpt>
      <trkpt lat="48.20544" lon="-3.6133">
        <ele>166.8</ele>
        <time>2021-08-11T09:59:05Z</time>
      </trkpt>
      <trkpt lat="48.20543" lon="-3.61322">
        <ele>166.8</ele>
        <time>2021-08-11T09:59:06Z</time>
      </trkpt>
      <trkpt lat="48.20541" lon="-3.61315">
        <ele>166.8</ele>
        <time>2021-08-11T09:59:07Z</time>
      </trkpt>
      <trkpt lat="48.2054" lon="-3.61307">
        <ele>166.8</ele>
        <time>2021-08-11T09:59:08Z</time>
      </trkpt>
      <trkpt lat="48.20538" lon="-3.613">
        <ele>166.8</ele>
        <time>2021-08-11T09:59:09Z</time>
      </trkpt>
      <trkpt lat="48.20536" lon="-3.61292">
        <ele>166.8</ele>
        <time>2021-08-11T09:59:10Z</time>
      </trkpt>
      <trkpt lat="48.20534" lon="-3.61285">
        <ele>166.8</ele>
        <time>2021-08-11T09:59:11Z</time>
      </trkpt>
      <trkpt lat="48.20532" lon="-3.61277">
        <ele>166.8</ele>
        <time>2021-08-11T09:59:12Z</time>
      </trkpt>
      <trkpt lat="48.2053" lon="-3.6127">
        <ele>166.8</ele>
        <time>2021-08-11T09:59:13Z</time>
      </trkpt>
      <trkpt lat="48.20529" lon="-3.61263">
        <ele>166.8</ele>
        <time>2021-08-11T09:59:14Z</time>
      </trkpt>
      <trkpt lat="48.20527" lon="-3.61255">
        <ele>167</ele>
        <time>2021-08-11T09:59:15Z</time>
      </trkpt>
      <trkpt lat="48.20524" lon="-3.61248">
        <ele>167</ele>
        <time>2021-08-11T09:59:16Z</time>
      </trkpt>
      <trkpt lat="48.20522" lon="-3.6124">
        <ele>167</ele>
        <time>2021-08-11T09:59:17Z</time>
      </trkpt>
      <trkpt lat="48.2052" lon="-3.61233">
        <ele>167</ele>
        <time>2021-08-11T09:59:18Z</time>
      </trkpt>
      <trkpt lat="48.20518" lon="-3.61225">
        <ele>167</ele>
        <time>2021-08-11T09:59:19Z</time>
      </trkpt>
      <trkpt lat="48.20516" lon="-3.61218">
        <ele>167</ele>
        <time>2021-08-11T09:59:20Z</time>
      </trkpt>
      <trkpt lat="48.20514" lon="-3.61211">
        <ele>167.2</ele>
        <time>2021-08-11T09:59:21Z</time>
      </trkpt>
      <trkpt lat="48.20512" lon="-3.61203">
        <ele>167.2</ele>
        <time>2021-08-11T09:59:22Z</time>
      </trkpt>
      <trkpt lat="48.20509" lon="-3.61195">
        <ele>167.2</ele>
        <time>2021-08-11T09:59:23Z</time>
      </trkpt>
      <trkpt lat="48.20507" lon="-3.61188">
        <ele>167.2</ele>
        <time>2021-08-11T09:59:24Z</time>
      </trkpt>
      <trkpt lat="48.20504" lon="-3.6118">
        <ele>167.2</ele>
        <time>2021-08-11T09:59:25Z</time>
      </trkpt>
      <trkpt lat="48.20502" lon="-3.61172">
        <ele>167.2</ele>
        <time>2021-08-11T09:59:26Z</time>
      </trkpt>
      <trkpt lat="48.205" lon="-3.61163">
        <ele>167.2</ele>
        <time>2021-08-11T09:59:27Z</time>
      </trkpt>
      <trkpt lat="48.20497" lon="-3.61155">
        <ele>167.2</ele>
        <time>2021-08-11T09:59:28Z</time>
      </trkpt>
      <trkpt lat="48.20495" lon="-3.61147">
        <ele>167.2</ele>
        <time>2021-08-11T09:59:29Z</time>
      </trkpt>
      <trkpt lat="48.20492" lon="-3.61138">
        <ele>167.2</ele>
        <time>2021-08-11T09:59:30Z</time>
      </trkpt>
      <trkpt lat="48.2049" lon="-3.6113">
        <ele>167.2</ele>
        <time>2021-08-11T09:59:31Z</time>
      </trkpt>
      <trkpt lat="48.20487" lon="-3.61121">
        <ele>167.2</ele>
        <time>2021-08-11T09:59:32Z</time>
      </trkpt>
      <trkpt lat="48.20485" lon="-3.61113">
        <ele>167.2</ele>
        <time>2021-08-11T09:59:33Z</time>
      </trkpt>
      <trkpt lat="48.20482" lon="-3.61104">
        <ele>167.2</ele>
        <time>2021-08-11T09:59:34Z</time>
      </trkpt>
      <trkpt lat="48.2048" lon="-3.61096">
        <ele>167.2</ele>
        <time>2021-08-11T09:59:35Z</time>
      </trkpt>
      <trkpt lat="48.20477" lon="-3.61087">
        <ele>167</ele>
        <time>2021-08-11T09:59:36Z</time>
      </trkpt>
      <trkpt lat="48.20475" lon="-3.61078">
        <ele>166.8</ele>
        <time>2021-08-11T09:59:37Z</time>
      </trkpt>
      <trkpt lat="48.20472" lon="-3.6107">
        <ele>166.6</ele>
        <time>2021-08-11T09:59:38Z</time>
      </trkpt>
      <trkpt lat="48.2047" lon="-3.61061">
        <ele>166.6</ele>
        <time>2021-08-11T09:59:39Z</time>
      </trkpt>
      <trkpt lat="48.20467" lon="-3.61052">
        <ele>166.4</ele>
        <time>2021-08-11T09:59:40Z</time>
      </trkpt>
      <trkpt lat="48.20465" lon="-3.61043">
        <ele>166.4</ele>
        <time>2021-08-11T09:59:41Z</time>
      </trkpt>
      <trkpt lat="48.20462" lon="-3.61034">
        <ele>166.4</ele>
        <time>2021-08-11T09:59:42Z</time>
      </trkpt>
      <trkpt lat="48.2046" lon="-3.61025">
        <ele>166.4</ele>
        <time>2021-08-11T09:59:43Z</time>
      </trkpt>
      <trkpt lat="48.20458" lon="-3.61016">
        <ele>166.2</ele>
        <time>2021-08-11T09:59:44Z</time>
      </trkpt>
      <trkpt lat="48.20455" lon="-3.61006">
        <ele>166.2</ele>
        <time>2021-08-11T09:59:45Z</time>
      </trkpt>
      <trkpt lat="48.20453" lon="-3.60997">
        <ele>166.2</ele>
        <time>2021-08-11T09:59:46Z</time>
      </trkpt>
      <trkpt lat="48.20451" lon="-3.60987">
        <ele>166.2</ele>
        <time>2021-08-11T09:59:47Z</time>
      </trkpt>
      <trkpt lat="48.2045" lon="-3.60977">
        <ele>166.2</ele>
        <time>2021-08-11T09:59:48Z</time>
      </trkpt>
      <trkpt lat="48.20448" lon="-3.60967">
        <ele>166</ele>
        <time>2021-08-11T09:59:49Z</time>
      </trkpt>
      <trkpt lat="48.20447" lon="-3.60957">
        <ele>166</ele>
        <time>2021-08-11T09:59:50Z</time>
      </trkpt>
      <trkpt lat="48.20445" lon="-3.60947">
        <ele>166</ele>
        <time>2021-08-11T09:59:51Z</time>
      </trkpt>
      <trkpt lat="48.20444" lon="-3.60937">
        <ele>166</ele>
        <time>2021-08-11T09:59:52Z</time>
      </trkpt>
      <trkpt lat="48.20443" lon="-3.60927">
        <ele>166</ele>
        <time>2021-08-11T09:59:53Z</time>
      </trkpt>
      <trkpt lat="48.20443" lon="-3.60916">
        <ele>166</ele>
        <time>2021-08-11T09:59:54Z</time>
      </trkpt>
      <trkpt lat="48.20442" lon="-3.60906">
        <ele>166</ele>
        <time>2021-08-11T09:59:55Z</time>
      </trkpt>
      <trkpt lat="48.20442" lon="-3.60895">
        <ele>165.8</ele>
        <time>2021-08-11T09:59:56Z</time>
      </trkpt>
      <trkpt lat="48.20442" lon="-3.60884">
        <ele>165.8</ele>
        <time>2021-08-11T09:59:57Z</time>
      </trkpt>
      <trkpt lat="48.20442" lon="-3.60873">
        <ele>165.8</ele>
        <time>2021-08-11T09:59:58Z</time>
      </trkpt>
      <trkpt lat="48.20442" lon="-3.60862">
        <ele>165.6</ele>
        <time>2021-08-11T09:59:59Z</time>
      </trkpt>
      <trkpt lat="48.20442" lon="-3.60851">
        <ele>165.6</ele>
        <time>2021-08-11T10:00:00Z</time>
      </trkpt>
      <trkpt lat="48.20442" lon="-3.6084">
        <ele>165.4</ele>
        <time>2021-08-11T10:00:01Z</time>
      </trkpt>
      <trkpt lat="48.20442" lon="-3.60829">
        <ele>165.4</ele>
        <time>2021-08-11T10:00:02Z</time>
      </trkpt>
      <trkpt lat="48.20443" lon="-3.60818">
        <ele>165.4</ele>
        <time>2021-08-11T10:00:03Z</time>
      </trkpt>
      <trkpt lat="48.20443" lon="-3.60807">
        <ele>165.4</ele>
        <time>2021-08-11T10:00:04Z</time>
      </trkpt>
      <trkpt lat="48.20443" lon="-3.60796">
        <ele>165.2</ele>
        <time>2021-08-11T10:00:05Z</time>
      </trkpt>
      <trkpt lat="48.20443" lon="-3.60784">
        <ele>165.2</ele>
        <time>2021-08-11T10:00:06Z</time>
      </trkpt>
      <trkpt lat="48.20443" lon="-3.60773">
        <ele>165</ele>
        <time>2021-08-11T10:00:07Z</time>
      </trkpt>
      <trkpt lat="48.20444" lon="-3.60762">
        <ele>164.8</ele>
        <time>2021-08-11T10:00:08Z</time>
      </trkpt>
      <trkpt lat="48.20444" lon="-3.60751">
        <ele>164.6</ele>
        <time>2021-08-11T10:00:09Z</time>
      </trkpt>
      <trkpt lat="48.20444" lon="-3.60739">
        <ele>164.4</ele>
        <time>2021-08-11T10:00:10Z</time>
      </trkpt>
      <trkpt lat="48.20444" lon="-3.60728">
        <ele>164.2</ele>
        <time>2021-08-11T10:00:11Z</time>
      </trkpt>
      <trkpt lat="48.20444" lon="-3.60718">
        <ele>164.2</ele>
        <time>2021-08-11T10:00:12Z</time>
      </trkpt>
      <trkpt lat="48.20444" lon="-3.60707">
        <ele>164</ele>
        <time>2021-08-11T10:00:13Z</time>
      </trkpt>
      <trkpt lat="48.20444" lon="-3.60696">
        <ele>163.6</ele>
        <time>2021-08-11T10:00:14Z</time>
      </trkpt>
      <trkpt lat="48.20445" lon="-3.60685">
        <ele>163.6</ele>
        <time>2021-08-11T10:00:15Z</time>
      </trkpt>
      <trkpt lat="48.20445" lon="-3.60675">
        <ele>163.2</ele>
        <time>2021-08-11T10:00:16Z</time>
      </trkpt>
      <trkpt lat="48.20446" lon="-3.60664">
        <ele>163</ele>
        <time>2021-08-11T10:00:17Z</time>
      </trkpt>
      <trkpt lat="48.20445" lon="-3.60653">
        <ele>163</ele>
        <time>2021-08-11T10:00:18Z</time>
      </trkpt>
      <trkpt lat="48.20445" lon="-3.60643">
        <ele>162.8</ele>
        <time>2021-08-11T10:00:19Z</time>
      </trkpt>
      <trkpt lat="48.20446" lon="-3.60632">
        <ele>162.8</ele>
        <time>2021-08-11T10:00:20Z</time>
      </trkpt>
      <trkpt lat="48.20446" lon="-3.60622">
        <ele>162.8</ele>
        <time>2021-08-11T10:00:21Z</time>
      </trkpt>
      <trkpt lat="48.20446" lon="-3.60611">
        <ele>162.8</ele>
        <time>2021-08-11T10:00:22Z</time>
      </trkpt>
      <trkpt lat="48.20447" lon="-3.60601">
        <ele>162.8</ele>
        <time>2021-08-11T10:00:23Z</time>
      </trkpt>
      <trkpt lat="48.20447" lon="-3.6059">
        <ele>162.6</ele>
        <time>2021-08-11T10:00:24Z</time>
      </trkpt>
      <trkpt lat="48.20447" lon="-3.6058">
        <ele>162.6</ele>
        <time>2021-08-11T10:00:25Z</time>
      </trkpt>
      <trkpt lat="48.20448" lon="-3.60569">
        <ele>162.6</ele>
        <time>2021-08-11T10:00:26Z</time>
      </trkpt>
      <trkpt lat="48.20448" lon="-3.60559">
        <ele>162.6</ele>
        <time>2021-08-11T10:00:27Z</time>
      </trkpt>
      <trkpt lat="48.20447" lon="-3.60548">
        <ele>162.6</ele>
        <time>2021-08-11T10:00:28Z</time>
      </trkpt>
      <trkpt lat="48.20447" lon="-3.60538">
        <ele>162.4</ele>
        <time>2021-08-11T10:00:29Z</time>
      </trkpt>
      <trkpt lat="48.20447" lon="-3.60527">
        <ele>162.2</ele>
        <time>2021-08-11T10:00:30Z</time>
      </trkpt>
      <trkpt lat="48.20447" lon="-3.60517">
        <ele>162.2</ele>
        <time>2021-08-11T10:00:31Z</time>
      </trkpt>
      <trkpt lat="48.20447" lon="-3.60506">
        <ele>162</ele>
        <time>2021-08-11T10:00:32Z</time>
      </trkpt>
      <trkpt lat="48.20447" lon="-3.60496">
        <ele>161.8</ele>
        <time>2021-08-11T10:00:33Z</time>
      </trkpt>
      <trkpt lat="48.20447" lon="-3.60486">
        <ele>161.6</ele>
        <time>2021-08-11T10:00:34Z</time>
      </trkpt>
      <trkpt lat="48.20447" lon="-3.60475">
        <ele>161.4</ele>
        <time>2021-08-11T10:00:35Z</time>
      </trkpt>
      <trkpt lat="48.20448" lon="-3.60465">
        <ele>161</ele>
        <time>2021-08-11T10:00:36Z</time>
      </trkpt>
      <trkpt lat="48.20448" lon="-3.60455">
        <ele>160.8</ele>
        <time>2021-08-11T10:00:37Z</time>
      </trkpt>
      <trkpt lat="48.20448" lon="-3.60444">
        <ele>160.8</ele>
        <time>2021-08-11T10:00:38Z</time>
      </trkpt>
      <trkpt lat="48.20448" lon="-3.60434">
        <ele>160.8</ele>
        <time>2021-08-11T10:00:39Z</time>
      </trkpt>
      <trkpt lat="48.20448" lon="-3.60424">
        <ele>160.6</ele>
        <time>2021-08-11T10:00:40Z</time>
      </trkpt>
      <trkpt lat="48.20448" lon="-3.60414">
        <ele>160.6</ele>
        <time>2021-08-11T10:00:41Z</time>
      </trkpt>
      <trkpt lat="48.20449" lon="-3.60404">
        <ele>160.2</ele>
        <time>2021-08-11T10:00:42Z</time>
      </trkpt>
      <trkpt lat="48.20449" lon="-3.60394">
        <ele>160</ele>
        <time>2021-08-11T10:00:43Z</time>
      </trkpt>
      <trkpt lat="48.2045" lon="-3.60384">
        <ele>160</ele>
        <time>2021-08-11T10:00:44Z</time>
      </trkpt>
      <trkpt lat="48.2045" lon="-3.60374">
        <ele>159.8</ele>
        <time>2021-08-11T10:00:45Z</time>
      </trkpt>
      <trkpt lat="48.20451" lon="-3.60364">
        <ele>159.8</ele>
        <time>2021-08-11T10:00:46Z</time>
      </trkpt>
      <trkpt lat="48.20452" lon="-3.60355">
        <ele>159.8</ele>
        <time>2021-08-11T10:00:47Z</time>
      </trkpt>
      <trkpt lat="48.20451" lon="-3.60345">
        <ele>159.6</ele>
        <time>2021-08-11T10:00:48Z</time>
      </trkpt>
      <trkpt lat="48.20451" lon="-3.60335">
        <ele>159.6</ele>
        <time>2021-08-11T10:00:49Z</time>
      </trkpt>
      <trkpt lat="48.2045" lon="-3.60325">
        <ele>159.4</ele>
        <time>2021-08-11T10:00:50Z</time>
      </trkpt>
      <trkpt lat="48.20451" lon="-3.60315">
        <ele>159.4</ele>
        <time>2021-08-11T10:00:51Z</time>
      </trkpt>
      <trkpt lat="48.20451" lon="-3.60305">
        <ele>159.4</ele>
        <time>2021-08-11T10:00:52Z</time>
      </trkpt>
      <trkpt lat="48.20452" lon="-3.60296">
        <ele>159.4</ele>
        <time>2021-08-11T10:00:53Z</time>
      </trkpt>
      <trkpt lat="48.20451" lon="-3.60286">
        <ele>159.2</ele>
        <time>2021-08-11T10:00:54Z</time>
      </trkpt>
      <trkpt lat="48.20451" lon="-3.60276">
        <ele>159.2</ele>
        <time>2021-08-11T10:00:55Z</time>
      </trkpt>
      <trkpt lat="48.20451" lon="-3.60266">
        <ele>159.2</ele>
        <time>2021-08-11T10:00:56Z</time>
      </trkpt>
      <trkpt lat="48.20451" lon="-3.60256">
        <ele>159</ele>
        <time>2021-08-11T10:00:57Z</time>
      </trkpt>
      <trkpt lat="48.20451" lon="-3.60247">
        <ele>159</ele>
        <time>2021-08-11T10:00:58Z</time>
      </trkpt>
      <trkpt lat="48.20451" lon="-3.60237">
        <ele>158.8</ele>
        <time>2021-08-11T10:00:59Z</time>
      </trkpt>
      <trkpt lat="48.20451" lon="-3.60227">
        <ele>158.8</ele>
        <time>2021-08-11T10:01:00Z</time>
      </trkpt>
      <trkpt lat="48.20451" lon="-3.60217">
        <ele>158.8</ele>
        <time>2021-08-11T10:01:01Z</time>
      </trkpt>
      <trkpt lat="48.20451" lon="-3.60208">
        <ele>158.6</ele>
        <time>2021-08-11T10:01:02Z</time>
      </trkpt>
      <trkpt lat="48.20451" lon="-3.60198">
        <ele>158.6</ele>
        <time>2021-08-11T10:01:03Z</time>
      </trkpt>
      <trkpt lat="48.20452" lon="-3.60189">
        <ele>158.6</ele>
        <time>2021-08-11T10:01:04Z</time>
      </trkpt>
      <trkpt lat="48.20452" lon="-3.60179">
        <ele>158.4</ele>
        <time>2021-08-11T10:01:05Z</time>
      </trkpt>
      <trkpt lat="48.20452" lon="-3.6017">
        <ele>158.4</ele>
        <time>2021-08-11T10:01:06Z</time>
      </trkpt>
      <trkpt lat="48.20452" lon="-3.60161">
        <ele>158.2</ele>
        <time>2021-08-11T10:01:07Z</time>
      </trkpt>
      <trkpt lat="48.20451" lon="-3.60152">
        <ele>158</ele>
        <time>2021-08-11T10:01:08Z</time>
      </trkpt>
      <trkpt lat="48.20451" lon="-3.60143">
        <ele>158</ele>
        <time>2021-08-11T10:01:09Z</time>
      </trkpt>
      <trkpt lat="48.20451" lon="-3.60134">
        <ele>157.8</ele>
        <time>2021-08-11T10:01:10Z</time>
      </trkpt>
      <trkpt lat="48.2045" lon="-3.60125">
        <ele>157.6</ele>
        <time>2021-08-11T10:01:11Z</time>
      </trkpt>
      <trkpt lat="48.20449" lon="-3.60117">
        <ele>157.4</ele>
        <time>2021-08-11T10:01:12Z</time>
      </trkpt>
      <trkpt lat="48.20448" lon="-3.60108">
        <ele>157.4</ele>
        <time>2021-08-11T10:01:13Z</time>
      </trkpt>
      <trkpt lat="48.20447" lon="-3.601">
        <ele>157.4</ele>
        <time>2021-08-11T10:01:14Z</time>
      </trkpt>
      <trkpt lat="48.20446" lon="-3.60091">
        <ele>157.4</ele>
        <time>2021-08-11T10:01:15Z</time>
      </trkpt>
      <trkpt lat="48.20445" lon="-3.60083">
        <ele>157.2</ele>
        <time>2021-08-11T10:01:16Z</time>
      </trkpt>
      <trkpt lat="48.20444" lon="-3.60075">
        <ele>157.2</ele>
        <time>2021-08-11T10:01:17Z</time>
      </trkpt>
      <trkpt lat="48.20443" lon="-3.60067">
        <ele>157.2</ele>
        <time>2021-08-11T10:01:18Z</time>
      </trkpt>
      <trkpt lat="48.20442" lon="-3.6006">
        <ele>157.2</ele>
        <time>2021-08-11T10:01:19Z</time>
      </trkpt>
      <trkpt lat="48.2044" lon="-3.60053">
        <ele>157</ele>
        <time>2021-08-11T10:01:20Z</time>
      </trkpt>
      <trkpt lat="48.20439" lon="-3.60046">
        <ele>157</ele>
        <time>2021-08-11T10:01:21Z</time>
      </trkpt>
      <trkpt lat="48.20437" lon="-3.60039">
        <ele>157</ele>
        <time>2021-08-11T10:01:22Z</time>
      </trkpt>
      <trkpt lat="48.20436" lon="-3.60032">
        <ele>157</ele>
        <time>2021-08-11T10:01:23Z</time>
      </trkpt>
      <trkpt lat="48.20434" lon="-3.60026">
        <ele>157</ele>
        <time>2021-08-11T10:01:24Z</time>
      </trkpt>
      <trkpt lat="48.20432" lon="-3.60019">
        <ele>157</ele>
        <time>2021-08-11T10:01:25Z</time>
      </trkpt>
      <trkpt lat="48.20431" lon="-3.60013">
        <ele>157</ele>
        <time>2021-08-11T10:01:26Z</time>
      </trkpt>
      <trkpt lat="48.20429" lon="-3.60007">
        <ele>157</ele>
        <time>2021-08-11T10:01:27Z</time>
      </trkpt>
      <trkpt lat="48.20427" lon="-3.60001">
        <ele>157</ele>
        <time>2021-08-11T10:01:28Z</time>
      </trkpt>
      <trkpt lat="48.20425" lon="-3.59994">
        <ele>157</ele>
        <time>2021-08-11T10:01:29Z</time>
      </trkpt>
      <trkpt lat="48.20423" lon="-3.59988">
        <ele>157</ele>
        <time>2021-08-11T10:01:30Z</time>
      </trkpt>
      <trkpt lat="48.20421" lon="-3.59982">
        <ele>157</ele>
        <time>2021-08-11T10:01:31Z</time>
      </trkpt>
      <trkpt lat="48.20419" lon="-3.59975">
        <ele>157</ele>
        <time>2021-08-11T10:01:32Z</time>
      </trkpt>
      <trkpt lat="48.20416" lon="-3.59969">
        <ele>157</ele>
        <time>2021-08-11T10:01:33Z</time>
      </trkpt>
      <trkpt lat="48.20414" lon="-3.59962">
        <ele>157</ele>
        <time>2021-08-11T10:01:34Z</time>
      </trkpt>
      <trkpt lat="48.20412" lon="-3.59956">
        <ele>157.2</ele>
        <time>2021-08-11T10:01:35Z</time>
      </trkpt>
      <trkpt lat="48.20409" lon="-3.59949">
        <ele>157.2</ele>
        <time>2021-08-11T10:01:36Z</time>
      </trkpt>
      <trkpt lat="48.20406" lon="-3.59943">
        <ele>157.2</ele>
        <time>2021-08-11T10:01:37Z</time>
      </trkpt>
      <trkpt lat="48.20402" lon="-3.59938">
        <ele>157.2</ele>
        <time>2021-08-11T10:01:38Z</time>
      </trkpt>
      <trkpt lat="48.20398" lon="-3.59933">
        <ele>157.2</ele>
        <time>2021-08-11T10:01:39Z</time>
      </trkpt>
      <trkpt lat="48.20394" lon="-3.59928">
        <ele>157.2</ele>
        <time>2021-08-11T10:01:40Z</time>
      </trkpt>
      <trkpt lat="48.20389" lon="-3.59925">
        <ele>157.2</ele>
        <time>2021-08-11T10:01:41Z</time>
      </trkpt>
      <trkpt lat="48.20384" lon="-3.59923">
        <ele>157.2</ele>
        <time>2021-08-11T10:01:42Z</time>
      </trkpt>
      <trkpt lat="48.20379" lon="-3.59921">
        <ele>157.2</ele>
        <time>2021-08-11T10:01:43Z</time>
      </trkpt>
      <trkpt lat="48.20374" lon="-3.5992">
        <ele>157.2</ele>
        <time>2021-08-11T10:01:44Z</time>
      </trkpt>
      <trkpt lat="48.2037" lon="-3.5992">
        <ele>157.2</ele>
        <time>2021-08-11T10:01:45Z</time>
      </trkpt>
      <trkpt lat="48.20365" lon="-3.59921">
        <ele>157.2</ele>
        <time>2021-08-11T10:01:46Z</time>
      </trkpt>
      <trkpt lat="48.20361" lon="-3.59922">
        <ele>157.2</ele>
        <time>2021-08-11T10:01:47Z</time>
      </trkpt>
      <trkpt lat="48.20356" lon="-3.59923">
        <ele>157.2</ele>
        <time>2021-08-11T10:01:48Z</time>
      </trkpt>
      <trkpt lat="48.20352" lon="-3.59924">
        <ele>157.2</ele>
        <time>2021-08-11T10:01:49Z</time>
      </trkpt>
      <trkpt lat="48.20348" lon="-3.59925">
        <ele>157.2</ele>
        <time>2021-08-11T10:01:50Z</time>
      </trkpt>
      <trkpt lat="48.20344" lon="-3.59927">
        <ele>157.4</ele>
        <time>2021-08-11T10:01:51Z</time>
      </trkpt>
      <trkpt lat="48.2034" lon="-3.59928">
        <ele>157.4</ele>
        <time>2021-08-11T10:01:52Z</time>
      </trkpt>
      <trkpt lat="48.20336" lon="-3.5993">
        <ele>157.6</ele>
        <time>2021-08-11T10:01:53Z</time>
      </trkpt>
      <trkpt lat="48.20332" lon="-3.59932">
        <ele>157.6</ele>
        <time>2021-08-11T10:01:54Z</time>
      </trkpt>
      <trkpt lat="48.20329" lon="-3.59933">
        <ele>157.8</ele>
        <time>2021-08-11T10:01:55Z</time>
      </trkpt>
      <trkpt lat="48.20326" lon="-3.59934">
        <ele>157.8</ele>
        <time>2021-08-11T10:01:56Z</time>
      </trkpt>
      <trkpt lat="48.20322" lon="-3.59935">
        <ele>158</ele>
        <time>2021-08-11T10:01:57Z</time>
      </trkpt>
      <trkpt lat="48.2032" lon="-3.59937">
        <ele>158.2</ele>
        <time>2021-08-11T10:01:58Z</time>
      </trkpt>
      <trkpt lat="48.20317" lon="-3.59938">
        <ele>158.2</ele>
        <time>2021-08-11T10:01:59Z</time>
      </trkpt>
      <trkpt lat="48.20314" lon="-3.59939">
        <ele>158.4</ele>
        <time>2021-08-11T10:02:00Z</time>
      </trkpt>
      <trkpt lat="48.20311" lon="-3.5994">
        <ele>158.6</ele>
        <time>2021-08-11T10:02:01Z</time>
      </trkpt>
      <trkpt lat="48.20308" lon="-3.59942">
        <ele>158.6</ele>
        <time>2021-08-11T10:02:02Z</time>
      </trkpt>
      <trkpt lat="48.20305" lon="-3.59943">
        <ele>158.8</ele>
        <time>2021-08-11T10:02:03Z</time>
      </trkpt>
      <trkpt lat="48.20303" lon="-3.59944">
        <ele>159</ele>
        <time>2021-08-11T10:02:04Z</time>
      </trkpt>
      <trkpt lat="48.203" lon="-3.59944">
        <ele>159.2</ele>
        <time>2021-08-11T10:02:05Z</time>
      </trkpt>
      <trkpt lat="48.20297" lon="-3.59945">
        <ele>159.4</ele>
        <time>2021-08-11T10:02:06Z</time>
      </trkpt>
      <trkpt lat="48.20295" lon="-3.59946">
        <ele>159.4</ele>
        <time>2021-08-11T10:02:07Z</time>
      </trkpt>
      <trkpt lat="48.20292" lon="-3.59947">
        <ele>159.6</ele>
        <time>2021-08-11T10:02:08Z</time>
      </trkpt>
      <trkpt lat="48.2029" lon="-3.59948">
        <ele>159.8</ele>
        <time>2021-08-11T10:02:09Z</time>
      </trkpt>
      <trkpt lat="48.20287" lon="-3.59949">
        <ele>159.8</ele>
        <time>2021-08-11T10:02:10Z</time>
      </trkpt>
      <trkpt lat="48.20284" lon="-3.5995">
        <ele>160</ele>
        <time>2021-08-11T10:02:11Z</time>
      </trkpt>
      <trkpt lat="48.20281" lon="-3.59951">
        <ele>160</ele>
        <time>2021-08-11T10:02:12Z</time>
      </trkpt>
      <trkpt lat="48.20279" lon="-3.59951">
        <ele>160.2</ele>
        <time>2021-08-11T10:02:13Z</time>
      </trkpt>
      <trkpt lat="48.20276" lon="-3.59952">
        <ele>160.2</ele>
        <time>2021-08-11T10:02:14Z</time>
      </trkpt>
      <trkpt lat="48.20273" lon="-3.59953">
        <ele>160.4</ele>
        <time>2021-08-11T10:02:15Z</time>
      </trkpt>
      <trkpt lat="48.2027" lon="-3.59954">
        <ele>160.6</ele>
        <time>2021-08-11T10:02:16Z</time>
      </trkpt>
      <trkpt lat="48.20267" lon="-3.59955">
        <ele>160.6</ele>
        <time>2021-08-11T10:02:17Z</time>
      </trkpt>
      <trkpt lat="48.20264" lon="-3.59955">
        <ele>160.6</ele>
        <time>2021-08-11T10:02:18Z</time>
      </trkpt>
      <trkpt lat="48.2026" lon="-3.59956">
        <ele>160.8</ele>
        <time>2021-08-11T10:02:19Z</time>
      </trkpt>
      <trkpt lat="48.20257" lon="-3.59956">
        <ele>160.8</ele>
        <time>2021-08-11T10:02:20Z</time>
      </trkpt>
      <trkpt lat="48.20254" lon="-3.59957">
        <ele>160.8</ele>
        <time>2021-08-11T10:02:21Z</time>
      </trkpt>
      <trkpt lat="48.20251" lon="-3.59958">
        <ele>160.8</ele>
        <time>2021-08-11T10:02:22Z</time>
      </trkpt>
      <trkpt lat="48.20248" lon="-3.59959">
        <ele>161</ele>
        <time>2021-08-11T10:02:23Z</time>
      </trkpt>
      <trkpt lat="48.20245" lon="-3.59959">
        <ele>161</ele>
        <time>2021-08-11T10:02:24Z</time>
      </trkpt>
      <trkpt lat="48.20242" lon="-3.5996">
        <ele>161.2</ele>
        <time>2021-08-11T10:02:25Z</time>
      </trkpt>
      <trkpt lat="48.20239" lon="-3.5996">
        <ele>161.2</ele>
        <time>2021-08-11T10:02:26Z</time>
      </trkpt>
      <trkpt lat="48.20236" lon="-3.59961">
        <ele>161.2</ele>
        <time>2021-08-11T10:02:27Z</time>
      </trkpt>
      <trkpt lat="48.20233" lon="-3.59961">
        <ele>161.4</ele>
        <time>2021-08-11T10:02:28Z</time>
      </trkpt>
      <trkpt lat="48.2023" lon="-3.59962">
        <ele>161.4</ele>
        <time>2021-08-11T10:02:29Z</time>
      </trkpt>
      <trkpt lat="48.20227" lon="-3.59962">
        <ele>161.4</ele>
        <time>2021-08-11T10:02:30Z</time>
      </trkpt>
      <trkpt lat="48.20225" lon="-3.59962">
        <ele>161.6</ele>
        <time>2021-08-11T10:02:31Z</time>
      </trkpt>
      <trkpt lat="48.20222" lon="-3.59962">
        <ele>161.6</ele>
        <time>2021-08-11T10:02:32Z</time>
      </trkpt>
      <trkpt lat="48.20219" lon="-3.59963">
        <ele>161.6</ele>
        <time>2021-08-11T10:02:33Z</time>
      </trkpt>
      <trkpt lat="48.20217" lon="-3.59963">
        <ele>161.8</ele>
        <time>2021-08-11T10:02:34Z</time>
      </trkpt>
      <trkpt lat="48.20214" lon="-3.59963">
        <ele>161.8</ele>
        <time>2021-08-11T10:02:35Z</time>
      </trkpt>
      <trkpt lat="48.20212" lon="-3.59963">
        <ele>161.8</ele>
        <time>2021-08-11T10:02:36Z</time>
      </trkpt>
      <trkpt lat="48.20209" lon="-3.59964">
        <ele>162</ele>
        <time>2021-08-11T10:02:37Z</time>
      </trkpt>
      <trkpt lat="48.20207" lon="-3.59964">
        <ele>162.2</ele>
        <time>2021-08-11T10:02:38Z</time>
      </trkpt>
      <trkpt lat="48.20205" lon="-3.59965">
        <ele>162.4</ele>
        <time>2021-08-11T10:02:39Z</time>
      </trkpt>
      <trkpt lat="48.20202" lon="-3.59966">
        <ele>162.4</ele>
        <time>2021-08-11T10:02:40Z</time>
      </trkpt>
      <trkpt lat="48.202" lon="-3.59967">
        <ele>162.6</ele>
        <time>2021-08-11T10:02:41Z</time>
      </trkpt>
      <trkpt lat="48.20198" lon="-3.59967">
        <ele>162.6</ele>
        <time>2021-08-11T10:02:42Z</time>
      </trkpt>
      <trkpt lat="48.20196" lon="-3.59966">
        <ele>162.6</ele>
        <time>2021-08-11T10:02:43Z</time>
      </trkpt>
      <trkpt lat="48.20195" lon="-3.59965">
        <ele>162.8</ele>
        <time>2021-08-11T10:02:44Z</time>
      </trkpt>
      <trkpt lat="48.20193" lon="-3.59964">
        <ele>162.8</ele>
        <time>2021-08-11T10:02:45Z</time>
      </trkpt>
      <trkpt lat="48.20192" lon="-3.59963">
        <ele>162.8</ele>
        <time>2021-08-11T10:02:46Z</time>
      </trkpt>
      <trkpt lat="48.20191" lon="-3.59961">
        <ele>163</ele>
        <time>2021-08-11T10:02:47Z</time>
      </trkpt>
      <trkpt lat="48.20191" lon="-3.59961">
        <ele>163</ele>
        <time>2021-08-11T10:02:48Z</time>
      </trkpt>
      <trkpt lat="48.20191" lon="-3.59961">
        <ele>163</ele>
        <time>2021-08-11T10:02:49Z</time>
      </trkpt>
      <trkpt lat="48.20191" lon="-3.59959">
        <ele>164.4</ele>
        <time>2021-08-11T10:03:37Z</time>
      </trkpt>
      <trkpt lat="48.20191" lon="-3.59957">
        <ele>164.4</ele>
        <time>2021-08-11T10:03:38Z</time>
      </trkpt>
      <trkpt lat="48.20191" lon="-3.59954">
        <ele>164.4</ele>
        <time>2021-08-11T10:03:39Z</time>
      </trkpt>
      <trkpt lat="48.2019" lon="-3.5995">
        <ele>164.4</ele>
        <time>2021-08-11T10:03:40Z</time>
      </trkpt>
      <trkpt lat="48.20188" lon="-3.59945">
        <ele>164.4</ele>
        <time>2021-08-11T10:03:41Z</time>
      </trkpt>
      <trkpt lat="48.20187" lon="-3.59939">
        <ele>164.4</ele>
        <time>2021-08-11T10:03:42Z</time>
      </trkpt>
      <trkpt lat="48.20185" lon="-3.59933">
        <ele>164.2</ele>
        <time>2021-08-11T10:03:43Z</time>
      </trkpt>
      <trkpt lat="48.20183" lon="-3.59926">
        <ele>164.2</ele>
        <time>2021-08-11T10:03:44Z</time>
      </trkpt>
      <trkpt lat="48.20181" lon="-3.59918">
        <ele>164.2</ele>
        <time>2021-08-11T10:03:45Z</time>
      </trkpt>
      <trkpt lat="48.2018" lon="-3.5991">
        <ele>164.2</ele>
        <time>2021-08-11T10:03:46Z</time>
      </trkpt>
      <trkpt lat="48.20178" lon="-3.59901">
        <ele>164.2</ele>
        <time>2021-08-11T10:03:47Z</time>
      </trkpt>
      <trkpt lat="48.20176" lon="-3.59892">
        <ele>164.2</ele>
        <time>2021-08-11T10:03:48Z</time>
      </trkpt>
      <trkpt lat="48.20174" lon="-3.59883">
        <ele>163.8</ele>
        <time>2021-08-11T10:03:49Z</time>
      </trkpt>
      <trkpt lat="48.20172" lon="-3.59874">
        <ele>163.2</ele>
        <time>2021-08-11T10:03:50Z</time>
      </trkpt>
      <trkpt lat="48.2017" lon="-3.59864">
        <ele>162.8</ele>
        <time>2021-08-11T10:03:51Z</time>
      </trkpt>
      <trkpt lat="48.20167" lon="-3.59853">
        <ele>162.4</ele>
        <time>2021-08-11T10:03:52Z</time>
      </trkpt>
      <trkpt lat="48.20165" lon="-3.59843">
        <ele>161.8</ele>
        <time>2021-08-11T10:03:53Z</time>
      </trkpt>
      <trkpt lat="48.20162" lon="-3.59831">
        <ele>161.4</ele>
        <time>2021-08-11T10:03:54Z</time>
      </trkpt>
      <trkpt lat="48.20159" lon="-3.5982">
        <ele>161.2</ele>
        <time>2021-08-11T10:03:55Z</time>
      </trkpt>
      <trkpt lat="48.20157" lon="-3.59809">
        <ele>160.8</ele>
        <time>2021-08-11T10:03:56Z</time>
      </trkpt>
      <trkpt lat="48.20154" lon="-3.59797">
        <ele>160.2</ele>
        <time>2021-08-11T10:03:57Z</time>
      </trkpt>
      <trkpt lat="48.20152" lon="-3.59784">
        <ele>159.8</ele>
        <time>2021-08-11T10:03:58Z</time>
      </trkpt>
      <trkpt lat="48.20149" lon="-3.59772">
        <ele>159.4</ele>
        <time>2021-08-11T10:03:59Z</time>
      </trkpt>
      <trkpt lat="48.20146" lon="-3.5976">
        <ele>159</ele>
        <time>2021-08-11T10:04:00Z</time>
      </trkpt>
      <trkpt lat="48.20143" lon="-3.59748">
        <ele>158.8</ele>
        <time>2021-08-11T10:04:01Z</time>
      </trkpt>
      <trkpt lat="48.2014" lon="-3.59735">
        <ele>158.4</ele>
        <time>2021-08-11T10:04:02Z</time>
      </trkpt>
      <trkpt lat="48.20137" lon="-3.59723">
        <ele>158.2</ele>
        <time>2021-08-11T10:04:03Z</time>
      </trkpt>
      <trkpt lat="48.20134" lon="-3.59711">
        <ele>157.6</ele>
        <time>2021-08-11T10:04:04Z</time>
      </trkpt>
      <trkpt lat="48.20131" lon="-3.59699">
        <ele>157.4</ele>
        <time>2021-08-11T10:04:05Z</time>
      </trkpt>
      <trkpt lat="48.20129" lon="-3.59688">
        <ele>157.4</ele>
        <time>2021-08-11T10:04:06Z</time>
      </trkpt>
      <trkpt lat="48.20126" lon="-3.59677">
        <ele>157.4</ele>
        <time>2021-08-11T10:04:07Z</time>
      </trkpt>
      <trkpt lat="48.20123" lon="-3.59667">
        <ele>157.4</ele>
        <time>2021-08-11T10:04:08Z</time>
      </trkpt>
      <trkpt lat="48.20121" lon="-3.59658">
        <ele>157.4</ele>
        <time>2021-08-11T10:04:09Z</time>
      </trkpt>
      <trkpt lat="48.20118" lon="-3.59649">
        <ele>157.4</ele>
        <time>2021-08-11T10:04:10Z</time>
      </trkpt>
      <trkpt lat="48.20115" lon="-3.5964">
        <ele>157.4</ele>
        <time>2021-08-11T10:04:11Z</time>
      </trkpt>
      <trkpt lat="48.20113" lon="-3.59632">
        <ele>157.4</ele>
        <time>2021-08-11T10:04:12Z</time>
      </trkpt>
      <trkpt lat="48.20111" lon="-3.59624">
        <ele>157.4</ele>
        <time>2021-08-11T10:04:13Z</time>
      </trkpt>
      <trkpt lat="48.20108" lon="-3.59617">
        <ele>157.4</ele>
        <time>2021-08-11T10:04:14Z</time>
      </trkpt>
      <trkpt lat="48.20106" lon="-3.5961">
        <ele>157.6</ele>
        <time>2021-08-11T10:04:15Z</time>
      </trkpt>
      <trkpt lat="48.20103" lon="-3.59603">
        <ele>158</ele>
        <time>2021-08-11T10:04:16Z</time>
      </trkpt>
      <trkpt lat="48.20101" lon="-3.59596">
        <ele>158.8</ele>
        <time>2021-08-11T10:04:17Z</time>
      </trkpt>
      <trkpt lat="48.20099" lon="-3.59589">
        <ele>159.2</ele>
        <time>2021-08-11T10:04:18Z</time>
      </trkpt>
      <trkpt lat="48.20096" lon="-3.59583">
        <ele>159.6</ele>
        <time>2021-08-11T10:04:19Z</time>
      </trkpt>
      <trkpt lat="48.20094" lon="-3.59577">
        <ele>160.2</ele>
        <time>2021-08-11T10:04:20Z</time>
      </trkpt>
      <trkpt lat="48.20092" lon="-3.59571">
        <ele>160.6</ele>
        <time>2021-08-11T10:04:21Z</time>
      </trkpt>
      <trkpt lat="48.20089" lon="-3.59564">
        <ele>160.8</ele>
        <time>2021-08-11T10:04:22Z</time>
      </trkpt>
      <trkpt lat="48.20087" lon="-3.59558">
        <ele>161.2</ele>
        <time>2021-08-11T10:04:23Z</time>
      </trkpt>
      <trkpt lat="48.20085" lon="-3.59553">
        <ele>161.6</ele>
        <time>2021-08-11T10:04:24Z</time>
      </trkpt>
      <trkpt lat="48.20083" lon="-3.59548">
        <ele>162</ele>
        <time>2021-08-11T10:04:25Z</time>
      </trkpt>
      <trkpt lat="48.20082" lon="-3.59544">
        <ele>162.4</ele>
        <time>2021-08-11T10:04:26Z</time>
      </trkpt>
      <trkpt lat="48.2008" lon="-3.5954">
        <ele>162.6</ele>
        <time>2021-08-11T10:04:27Z</time>
      </trkpt>
      <trkpt lat="48.20079" lon="-3.59536">
        <ele>163</ele>
        <time>2021-08-11T10:04:28Z</time>
      </trkpt>
      <trkpt lat="48.20077" lon="-3.59534">
        <ele>163.4</ele>
        <time>2021-08-11T10:04:29Z</time>
      </trkpt>
      <trkpt lat="48.20075" lon="-3.59531">
        <ele>163.6</ele>
        <time>2021-08-11T10:04:30Z</time>
      </trkpt>
      <trkpt lat="48.20074" lon="-3.59529">
        <ele>163.8</ele>
        <time>2021-08-11T10:04:31Z</time>
      </trkpt>
      <trkpt lat="48.20073" lon="-3.59527">
        <ele>164</ele>
        <time>2021-08-11T10:04:32Z</time>
      </trkpt>
      <trkpt lat="48.20072" lon="-3.59525">
        <ele>164.6</ele>
        <time>2021-08-11T10:04:33Z</time>
      </trkpt>
      <trkpt lat="48.20071" lon="-3.59523">
        <ele>164.8</ele>
        <time>2021-08-11T10:04:34Z</time>
      </trkpt>
      <trkpt lat="48.2007" lon="-3.59521">
        <ele>165</ele>
        <time>2021-08-11T10:04:35Z</time>
      </trkpt>
      <trkpt lat="48.2007" lon="-3.59519">
        <ele>165.2</ele>
        <time>2021-08-11T10:04:36Z</time>
      </trkpt>
      <trkpt lat="48.20069" lon="-3.59518">
        <ele>165.4</ele>
        <time>2021-08-11T10:04:37Z</time>
      </trkpt>
      <trkpt lat="48.20069" lon="-3.59518">
        <ele>165.4</ele>
        <time>2021-08-11T10:04:38Z</time>
      </trkpt>
      <trkpt lat="48.20069" lon="-3.59515">
        <ele>165.8</ele>
        <time>2021-08-11T10:04:55Z</time>
      </trkpt>
      <trkpt lat="48.20068" lon="-3.59513">
        <ele>165.8</ele>
        <time>2021-08-11T10:04:56Z</time>
      </trkpt>
      <trkpt lat="48.20067" lon="-3.59511">
        <ele>165.8</ele>
        <time>2021-08-11T10:04:57Z</time>
      </trkpt>
      <trkpt lat="48.20066" lon="-3.59509">
        <ele>165.8</ele>
        <time>2021-08-11T10:04:58Z</time>
      </trkpt>
      <trkpt lat="48.20065" lon="-3.59507">
        <ele>165.8</ele>
        <time>2021-08-11T10:04:59Z</time>
      </trkpt>
      <trkpt lat="48.20064" lon="-3.59505">
        <ele>165.8</ele>
        <time>2021-08-11T10:05:00Z</time>
      </trkpt>
      <trkpt lat="48.20063" lon="-3.59501">
        <ele>165.8</ele>
        <time>2021-08-11T10:05:01Z</time>
      </trkpt>
      <trkpt lat="48.20061" lon="-3.59498">
        <ele>165.8</ele>
        <time>2021-08-11T10:05:02Z</time>
      </trkpt>
      <trkpt lat="48.20059" lon="-3.59494">
        <ele>165.8</ele>
        <time>2021-08-11T10:05:03Z</time>
      </trkpt>
      <trkpt lat="48.20057" lon="-3.59491">
        <ele>165.8</ele>
        <time>2021-08-11T10:05:04Z</time>
      </trkpt>
      <trkpt lat="48.20055" lon="-3.59486">
        <ele>165.6</ele>
        <time>2021-08-11T10:05:05Z</time>
      </trkpt>
      <trkpt lat="48.20052" lon="-3.59482">
        <ele>165.6</ele>
        <time>2021-08-11T10:05:06Z</time>
      </trkpt>
      <trkpt lat="48.2005" lon="-3.59478">
        <ele>165.6</ele>
        <time>2021-08-11T10:05:07Z</time>
      </trkpt>
      <trkpt lat="48.20047" lon="-3.59473">
        <ele>165.6</ele>
        <time>2021-08-11T10:05:08Z</time>
      </trkpt>
      <trkpt lat="48.20044" lon="-3.59468">
        <ele>165.6</ele>
        <time>2021-08-11T10:05:09Z</time>
      </trkpt>
      <trkpt lat="48.20041" lon="-3.59462">
        <ele>165.6</ele>
        <time>2021-08-11T10:05:10Z</time>
      </trkpt>
      <trkpt lat="48.20038" lon="-3.59456">
        <ele>165.6</ele>
        <time>2021-08-11T10:05:11Z</time>
      </trkpt>
      <trkpt lat="48.20035" lon="-3.5945">
        <ele>165.6</ele>
        <time>2021-08-11T10:05:12Z</time>
      </trkpt>
      <trkpt lat="48.20031" lon="-3.59444">
        <ele>165.4</ele>
        <time>2021-08-11T10:05:13Z</time>
      </trkpt>
      <trkpt lat="48.20028" lon="-3.59437">
        <ele>165.4</ele>
        <time>2021-08-11T10:05:14Z</time>
      </trkpt>
      <trkpt lat="48.20024" lon="-3.5943">
        <ele>165.2</ele>
        <time>2021-08-11T10:05:15Z</time>
      </trkpt>
      <trkpt lat="48.2002" lon="-3.59423">
        <ele>165</ele>
        <time>2021-08-11T10:05:16Z</time>
      </trkpt>
      <trkpt lat="48.20016" lon="-3.59415">
        <ele>164.8</ele>
        <time>2021-08-11T10:05:17Z</time>
      </trkpt>
      <trkpt lat="48.20012" lon="-3.59408">
        <ele>164.6</ele>
        <time>2021-08-11T10:05:18Z</time>
      </trkpt>
      <trkpt lat="48.20008" lon="-3.594">
        <ele>164.4</ele>
        <time>2021-08-11T10:05:19Z</time>
      </trkpt>
      <trkpt lat="48.20003" lon="-3.59391">
        <ele>164.2</ele>
        <time>2021-08-11T10:05:20Z</time>
      </trkpt>
      <trkpt lat="48.19999" lon="-3.59383">
        <ele>164.2</ele>
        <time>2021-08-11T10:05:21Z</time>
      </trkpt>
      <trkpt lat="48.19995" lon="-3.59374">
        <ele>164</ele>
        <time>2021-08-11T10:05:22Z</time>
      </trkpt>
      <trkpt lat="48.19991" lon="-3.59364">
        <ele>164</ele>
        <time>2021-08-11T10:05:23Z</time>
      </trkpt>
      <trkpt lat="48.19987" lon="-3.59354">
        <ele>163.8</ele>
        <time>2021-08-11T10:05:24Z</time>
      </trkpt>
      <trkpt lat="48.19983" lon="-3.59344">
        <ele>163.4</ele>
        <time>2021-08-11T10:05:25Z</time>
      </trkpt>
      <trkpt lat="48.19979" lon="-3.59333">
        <ele>163</ele>
        <time>2021-08-11T10:05:26Z</time>
      </trkpt>
      <trkpt lat="48.19975" lon="-3.59322">
        <ele>162.8</ele>
        <time>2021-08-11T10:05:27Z</time>
      </trkpt>
      <trkpt lat="48.19972" lon="-3.5931">
        <ele>162.4</ele>
        <time>2021-08-11T10:05:28Z</time>
      </trkpt>
      <trkpt lat="48.19968" lon="-3.59298">
        <ele>162.2</ele>
        <time>2021-08-11T10:05:29Z</time>
      </trkpt>
      <trkpt lat="48.19965" lon="-3.59286">
        <ele>162</ele>
        <time>2021-08-11T10:05:30Z</time>
      </trkpt>
      <trkpt lat="48.19962" lon="-3.59273">
        <ele>161.4</ele>
        <time>2021-08-11T10:05:31Z</time>
      </trkpt>
      <trkpt lat="48.19959" lon="-3.59261">
        <ele>161</ele>
        <time>2021-08-11T10:05:32Z</time>
      </trkpt>
      <trkpt lat="48.19957" lon="-3.59247">
        <ele>160.2</ele>
        <time>2021-08-11T10:05:33Z</time>
      </trkpt>
      <trkpt lat="48.19954" lon="-3.59233">
        <ele>159.8</ele>
        <time>2021-08-11T10:05:34Z</time>
      </trkpt>
      <trkpt lat="48.19952" lon="-3.59219">
        <ele>159.4</ele>
        <time>2021-08-11T10:05:35Z</time>
      </trkpt>
      <trkpt lat="48.1995" lon="-3.59205">
        <ele>159</ele>
        <time>2021-08-11T10:05:36Z</time>
      </trkpt>
      <trkpt lat="48.19948" lon="-3.5919">
        <ele>158.8</ele>
        <time>2021-08-11T10:05:37Z</time>
      </trkpt>
      <trkpt lat="48.19946" lon="-3.59175">
        <ele>158.4</ele>
        <time>2021-08-11T10:05:38Z</time>
      </trkpt>
      <trkpt lat="48.19944" lon="-3.59159">
        <ele>158</ele>
        <time>2021-08-11T10:05:39Z</time>
      </trkpt>
      <trkpt lat="48.19941" lon="-3.59143">
        <ele>157.2</ele>
        <time>2021-08-11T10:05:40Z</time>
      </trkpt>
      <trkpt lat="48.19939" lon="-3.59126">
        <ele>156.8</ele>
        <time>2021-08-11T10:05:41Z</time>
      </trkpt>
      <trkpt lat="48.19937" lon="-3.59109">
        <ele>156.2</ele>
        <time>2021-08-11T10:05:42Z</time>
      </trkpt>
      <trkpt lat="48.19935" lon="-3.59092">
        <ele>155.4</ele>
        <time>2021-08-11T10:05:43Z</time>
      </trkpt>
      <trkpt lat="48.19933" lon="-3.59074">
        <ele>154.8</ele>
        <time>2021-08-11T10:05:44Z</time>
      </trkpt>
      <trkpt lat="48.19932" lon="-3.59055">
        <ele>154.4</ele>
        <time>2021-08-11T10:05:45Z</time>
      </trkpt>
      <trkpt lat="48.19931" lon="-3.59036">
        <ele>153.8</ele>
        <time>2021-08-11T10:05:46Z</time>
      </trkpt>
      <trkpt lat="48.1993" lon="-3.59017">
        <ele>152.8</ele>
        <time>2021-08-11T10:05:47Z</time>
      </trkpt>
      <trkpt lat="48.19929" lon="-3.58997">
        <ele>152</ele>
        <time>2021-08-11T10:05:48Z</time>
      </trkpt>
      <trkpt lat="48.1993" lon="-3.58977">
        <ele>151</ele>
        <time>2021-08-11T10:05:49Z</time>
      </trkpt>
      <trkpt lat="48.19932" lon="-3.58956">
        <ele>150.2</ele>
        <time>2021-08-11T10:05:50Z</time>
      </trkpt>
      <trkpt lat="48.19933" lon="-3.58935">
        <ele>149.6</ele>
        <time>2021-08-11T10:05:51Z</time>
      </trkpt>
      <trkpt lat="48.19935" lon="-3.58914">
        <ele>149</ele>
        <time>2021-08-11T10:05:52Z</time>
      </trkpt>
      <trkpt lat="48.19938" lon="-3.58893">
        <ele>147.6</ele>
        <time>2021-08-11T10:05:53Z</time>
      </trkpt>
      <trkpt lat="48.19941" lon="-3.58872">
        <ele>146.4</ele>
        <time>2021-08-11T10:05:54Z</time>
      </trkpt>
      <trkpt lat="48.19945" lon="-3.58851">
        <ele>145.2</ele>
        <time>2021-08-11T10:05:55Z</time>
      </trkpt>
      <trkpt lat="48.19949" lon="-3.5883">
        <ele>144</ele>
        <time>2021-08-11T10:05:56Z</time>
      </trkpt>
      <trkpt lat="48.19954" lon="-3.58809">
        <ele>143</ele>
        <time>2021-08-11T10:05:57Z</time>
      </trkpt>
      <trkpt lat="48.19961" lon="-3.58789">
        <ele>141.8</ele>
        <time>2021-08-11T10:05:58Z</time>
      </trkpt>
      <trkpt lat="48.19968" lon="-3.5877">
        <ele>140.4</ele>
        <time>2021-08-11T10:05:59Z</time>
      </trkpt>
      <trkpt lat="48.19975" lon="-3.58752">
        <ele>137.4</ele>
        <time>2021-08-11T10:06:00Z</time>
      </trkpt>
      <trkpt lat="48.19984" lon="-3.58734">
        <ele>136.4</ele>
        <time>2021-08-11T10:06:01Z</time>
      </trkpt>
      <trkpt lat="48.19992" lon="-3.58716">
        <ele>135.4</ele>
        <time>2021-08-11T10:06:02Z</time>
      </trkpt>
      <trkpt lat="48.20001" lon="-3.58698">
        <ele>134.4</ele>
        <time>2021-08-11T10:06:03Z</time>
      </trkpt>
      <trkpt lat="48.2001" lon="-3.58682">
        <ele>133.6</ele>
        <time>2021-08-11T10:06:04Z</time>
      </trkpt>
      <trkpt lat="48.20021" lon="-3.58666">
        <ele>133.2</ele>
        <time>2021-08-11T10:06:05Z</time>
      </trkpt>
      <trkpt lat="48.20031" lon="-3.58651">
        <ele>133</ele>
        <time>2021-08-11T10:06:06Z</time>
      </trkpt>
      <trkpt lat="48.20041" lon="-3.58637">
        <ele>132</ele>
        <time>2021-08-11T10:06:07Z</time>
      </trkpt>
      <trkpt lat="48.20052" lon="-3.58623">
        <ele>130.8</ele>
        <time>2021-08-11T10:06:08Z</time>
      </trkpt>
      <trkpt lat="48.20063" lon="-3.5861">
        <ele>130.2</ele>
        <time>2021-08-11T10:06:09Z</time>
      </trkpt>
      <trkpt lat="48.20075" lon="-3.58598">
        <ele>129.6</ele>
        <time>2021-08-11T10:06:10Z</time>
      </trkpt>
      <trkpt lat="48.20087" lon="-3.58587">
        <ele>129</ele>
        <time>2021-08-11T10:06:11Z</time>
      </trkpt>
      <trkpt lat="48.201" lon="-3.58577">
        <ele>128</ele>
        <time>2021-08-11T10:06:12Z</time>
      </trkpt>
      <trkpt lat="48.20112" lon="-3.58569">
        <ele>127.4</ele>
        <time>2021-08-11T10:06:13Z</time>
      </trkpt>
      <trkpt lat="48.20125" lon="-3.58561">
        <ele>126.4</ele>
        <time>2021-08-11T10:06:14Z</time>
      </trkpt>
      <trkpt lat="48.20138" lon="-3.58553">
        <ele>125.6</ele>
        <time>2021-08-11T10:06:15Z</time>
      </trkpt>
      <trkpt lat="48.20151" lon="-3.58545">
        <ele>125.2</ele>
        <time>2021-08-11T10:06:16Z</time>
      </trkpt>
      <trkpt lat="48.20163" lon="-3.58537">
        <ele>124.8</ele>
        <time>2021-08-11T10:06:17Z</time>
      </trkpt>
      <trkpt lat="48.20173" lon="-3.5853">
        <ele>124.4</ele>
        <time>2021-08-11T10:06:18Z</time>
      </trkpt>
      <trkpt lat="48.20184" lon="-3.58522">
        <ele>124</ele>
        <time>2021-08-11T10:06:19Z</time>
      </trkpt>
      <trkpt lat="48.20194" lon="-3.58513">
        <ele>123.4</ele>
        <time>2021-08-11T10:06:20Z</time>
      </trkpt>
      <trkpt lat="48.20203" lon="-3.58503">
        <ele>122.8</ele>
        <time>2021-08-11T10:06:21Z</time>
      </trkpt>
      <trkpt lat="48.20212" lon="-3.58493">
        <ele>122</ele>
        <time>2021-08-11T10:06:22Z</time>
      </trkpt>
      <trkpt lat="48.20221" lon="-3.58482">
        <ele>120.2</ele>
        <time>2021-08-11T10:06:23Z</time>
      </trkpt>
      <trkpt lat="48.20229" lon="-3.58472">
        <ele>118.8</ele>
        <time>2021-08-11T10:06:24Z</time>
      </trkpt>
      <trkpt lat="48.20238" lon="-3.58461">
        <ele>118</ele>
        <time>2021-08-11T10:06:25Z</time>
      </trkpt>
      <trkpt lat="48.20245" lon="-3.5845">
        <ele>117.6</ele>
        <time>2021-08-11T10:06:26Z</time>
      </trkpt>
      <trkpt lat="48.20252" lon="-3.58439">
        <ele>117.4</ele>
        <time>2021-08-11T10:06:27Z</time>
      </trkpt>
      <trkpt lat="48.20258" lon="-3.58429">
        <ele>117</ele>
        <time>2021-08-11T10:06:28Z</time>
      </trkpt>
      <trkpt lat="48.20264" lon="-3.58419">
        <ele>115.8</ele>
        <time>2021-08-11T10:06:29Z</time>
      </trkpt>
      <trkpt lat="48.20268" lon="-3.58409">
        <ele>115.4</ele>
        <time>2021-08-11T10:06:30Z</time>
      </trkpt>
      <trkpt lat="48.20273" lon="-3.58399">
        <ele>115</ele>
        <time>2021-08-11T10:06:31Z</time>
      </trkpt>
      <trkpt lat="48.20277" lon="-3.5839">
        <ele>115</ele>
        <time>2021-08-11T10:06:32Z</time>
      </trkpt>
      <trkpt lat="48.20281" lon="-3.58381">
        <ele>114.8</ele>
        <time>2021-08-11T10:06:33Z</time>
      </trkpt>
      <trkpt lat="48.20284" lon="-3.58372">
        <ele>114.8</ele>
        <time>2021-08-11T10:06:34Z</time>
      </trkpt>
      <trkpt lat="48.20288" lon="-3.58363">
        <ele>114.8</ele>
        <time>2021-08-11T10:06:35Z</time>
      </trkpt>
      <trkpt lat="48.2029" lon="-3.58355">
        <ele>114.8</ele>
        <time>2021-08-11T10:06:36Z</time>
      </trkpt>
      <trkpt lat="48.20293" lon="-3.58348">
        <ele>114.8</ele>
        <time>2021-08-11T10:06:37Z</time>
      </trkpt>
      <trkpt lat="48.20295" lon="-3.58341">
        <ele>114.8</ele>
        <time>2021-08-11T10:06:38Z</time>
      </trkpt>
      <trkpt lat="48.20297" lon="-3.58334">
        <ele>115</ele>
        <time>2021-08-11T10:06:39Z</time>
      </trkpt>
      <trkpt lat="48.20298" lon="-3.58328">
        <ele>115</ele>
        <time>2021-08-11T10:06:40Z</time>
      </trkpt>
      <trkpt lat="48.20299" lon="-3.58323">
        <ele>115</ele>
        <time>2021-08-11T10:06:41Z</time>
      </trkpt>
      <trkpt lat="48.20301" lon="-3.58319">
        <ele>115.2</ele>
        <time>2021-08-11T10:06:42Z</time>
      </trkpt>
      <trkpt lat="48.20303" lon="-3.58318">
        <ele>115.2</ele>
        <time>2021-08-11T10:06:43Z</time>
      </trkpt>
      <trkpt lat="48.20304" lon="-3.5832">
        <ele>115.2</ele>
        <time>2021-08-11T10:06:44Z</time>
      </trkpt>
      <trkpt lat="48.20303" lon="-3.58323">
        <ele>115.4</ele>
        <time>2021-08-11T10:06:45Z</time>
      </trkpt>
      <trkpt lat="48.20302" lon="-3.58327">
        <ele>115.4</ele>
        <time>2021-08-11T10:06:46Z</time>
      </trkpt>
      <trkpt lat="48.20301" lon="-3.58331">
        <ele>115.6</ele>
        <time>2021-08-11T10:06:47Z</time>
      </trkpt>
      <trkpt lat="48.20299" lon="-3.58336">
        <ele>115.8</ele>
        <time>2021-08-11T10:06:48Z</time>
      </trkpt>
      <trkpt lat="48.20298" lon="-3.58341">
        <ele>116</ele>
        <time>2021-08-11T10:06:49Z</time>
      </trkpt>
      <trkpt lat="48.20297" lon="-3.58346">
        <ele>116</ele>
        <time>2021-08-11T10:06:50Z</time>
      </trkpt>
      <trkpt lat="48.20295" lon="-3.58351">
        <ele>116</ele>
        <time>2021-08-11T10:06:51Z</time>
      </trkpt>
      <trkpt lat="48.20293" lon="-3.58357">
        <ele>116</ele>
        <time>2021-08-11T10:06:52Z</time>
      </trkpt>
      <trkpt lat="48.20291" lon="-3.58362">
        <ele>116</ele>
        <time>2021-08-11T10:06:53Z</time>
      </trkpt>
      <trkpt lat="48.20289" lon="-3.58368">
        <ele>116</ele>
        <time>2021-08-11T10:06:54Z</time>
      </trkpt>
      <trkpt lat="48.20287" lon="-3.58374">
        <ele>116</ele>
        <time>2021-08-11T10:06:55Z</time>
      </trkpt>
      <trkpt lat="48.20285" lon="-3.5838">
        <ele>116</ele>
        <time>2021-08-11T10:06:56Z</time>
      </trkpt>
      <trkpt lat="48.20282" lon="-3.58386">
        <ele>116</ele>
        <time>2021-08-11T10:06:57Z</time>
      </trkpt>
      <trkpt lat="48.2028" lon="-3.58392">
        <ele>116</ele>
        <time>2021-08-11T10:06:58Z</time>
      </trkpt>
      <trkpt lat="48.20278" lon="-3.58398">
        <ele>115.8</ele>
        <time>2021-08-11T10:06:59Z</time>
      </trkpt>
      <trkpt lat="48.20275" lon="-3.58403">
        <ele>115.6</ele>
        <time>2021-08-11T10:07:00Z</time>
      </trkpt>
      <trkpt lat="48.20272" lon="-3.58409">
        <ele>115.6</ele>
        <time>2021-08-11T10:07:01Z</time>
      </trkpt>
      <trkpt lat="48.20269" lon="-3.58415">
        <ele>115.4</ele>
        <time>2021-08-11T10:07:02Z</time>
      </trkpt>
      <trkpt lat="48.20266" lon="-3.58421">
        <ele>115.4</ele>
        <time>2021-08-11T10:07:03Z</time>
      </trkpt>
      <trkpt lat="48.20263" lon="-3.58426">
        <ele>115.4</ele>
        <time>2021-08-11T10:07:04Z</time>
      </trkpt>
      <trkpt lat="48.2026" lon="-3.58432">
        <ele>115.4</ele>
        <time>2021-08-11T10:07:05Z</time>
      </trkpt>
      <trkpt lat="48.20257" lon="-3.58437">
        <ele>115.4</ele>
        <time>2021-08-11T10:07:06Z</time>
      </trkpt>
      <trkpt lat="48.20255" lon="-3.58442">
        <ele>115.4</ele>
        <time>2021-08-11T10:07:07Z</time>
      </trkpt>
      <trkpt lat="48.20252" lon="-3.58448">
        <ele>115.4</ele>
        <time>2021-08-11T10:07:08Z</time>
      </trkpt>
      <trkpt lat="48.20249" lon="-3.58452">
        <ele>115.4</ele>
        <time>2021-08-11T10:07:09Z</time>
      </trkpt>
      <trkpt lat="48.20246" lon="-3.58457">
        <ele>115.4</ele>
        <time>2021-08-11T10:07:10Z</time>
      </trkpt>
      <trkpt lat="48.20243" lon="-3.58462">
        <ele>115.4</ele>
        <time>2021-08-11T10:07:11Z</time>
      </trkpt>
      <trkpt lat="48.20241" lon="-3.58466">
        <ele>115.6</ele>
        <time>2021-08-11T10:07:12Z</time>
      </trkpt>
      <trkpt lat="48.20238" lon="-3.5847">
        <ele>116</ele>
        <time>2021-08-11T10:07:13Z</time>
      </trkpt>
      <trkpt lat="48.20235" lon="-3.58473">
        <ele>116</ele>
        <time>2021-08-11T10:07:14Z</time>
      </trkpt>
      <trkpt lat="48.20232" lon="-3.58475">
        <ele>116.2</ele>
        <time>2021-08-11T10:07:15Z</time>
      </trkpt>
      <trkpt lat="48.20228" lon="-3.58475">
        <ele>116.4</ele>
        <time>2021-08-11T10:07:16Z</time>
      </trkpt>
      <trkpt lat="48.20225" lon="-3.58474">
        <ele>116.8</ele>
        <time>2021-08-11T10:07:17Z</time>
      </trkpt>
      <trkpt lat="48.20222" lon="-3.58473">
        <ele>116.8</ele>
        <time>2021-08-11T10:07:18Z</time>
      </trkpt>
      <trkpt lat="48.2022" lon="-3.58472">
        <ele>117</ele>
        <time>2021-08-11T10:07:19Z</time>
      </trkpt>
      <trkpt lat="48.20217" lon="-3.58473">
        <ele>117</ele>
        <time>2021-08-11T10:07:20Z</time>
      </trkpt>
      <trkpt lat="48.20216" lon="-3.58473">
        <ele>117.2</ele>
        <time>2021-08-11T10:07:21Z</time>
      </trkpt>
      <trkpt lat="48.20214" lon="-3.58472">
        <ele>117.4</ele>
        <time>2021-08-11T10:07:22Z</time>
      </trkpt>
      <trkpt lat="48.20213" lon="-3.58471">
        <ele>117.8</ele>
        <time>2021-08-11T10:07:23Z</time>
      </trkpt>
      <trkpt lat="48.20212" lon="-3.5847">
        <ele>118</ele>
        <time>2021-08-11T10:07:24Z</time>
      </trkpt>
      <trkpt lat="48.2021" lon="-3.5847">
        <ele>118.4</ele>
        <time>2021-08-11T10:07:25Z</time>
      </trkpt>
      <trkpt lat="48.20207" lon="-3.5847">
        <ele>118.8</ele>
        <time>2021-08-11T10:07:26Z</time>
      </trkpt>
      <trkpt lat="48.20205" lon="-3.5847">
        <ele>118.8</ele>
        <time>2021-08-11T10:07:27Z</time>
      </trkpt>
      <trkpt lat="48.20202" lon="-3.58471">
        <ele>118.8</ele>
        <time>2021-08-11T10:07:28Z</time>
      </trkpt>
      <trkpt lat="48.202" lon="-3.58471">
        <ele>118.8</ele>
        <time>2021-08-11T10:07:29Z</time>
      </trkpt>
      <trkpt lat="48.20197" lon="-3.58471">
        <ele>118.8</ele>
        <time>2021-08-11T10:07:30Z</time>
      </trkpt>
      <trkpt lat="48.20195" lon="-3.58471">
        <ele>118.8</ele>
        <time>2021-08-11T10:07:31Z</time>
      </trkpt>
      <trkpt lat="48.20192" lon="-3.58472">
        <ele>118.8</ele>
        <time>2021-08-11T10:07:32Z</time>
      </trkpt>
      <trkpt lat="48.2019" lon="-3.58472">
        <ele>118.8</ele>
        <time>2021-08-11T10:07:33Z</time>
      </trkpt>
      <trkpt lat="48.20187" lon="-3.58472">
        <ele>118.8</ele>
        <time>2021-08-11T10:07:34Z</time>
      </trkpt>
      <trkpt lat="48.20184" lon="-3.58472">
        <ele>118.6</ele>
        <time>2021-08-11T10:07:35Z</time>
      </trkpt>
      <trkpt lat="48.20181" lon="-3.58471">
        <ele>118.6</ele>
        <time>2021-08-11T10:07:36Z</time>
      </trkpt>
      <trkpt lat="48.20178" lon="-3.58471">
        <ele>118.6</ele>
        <time>2021-08-11T10:07:37Z</time>
      </trkpt>
      <trkpt lat="48.20175" lon="-3.58471">
        <ele>118.6</ele>
        <time>2021-08-11T10:07:38Z</time>
      </trkpt>
      <trkpt lat="48.20173" lon="-3.5847">
        <ele>118.6</ele>
        <time>2021-08-11T10:07:39Z</time>
      </trkpt>
      <trkpt lat="48.2017" lon="-3.5847">
        <ele>118.4</ele>
        <time>2021-08-11T10:07:40Z</time>
      </trkpt>
      <trkpt lat="48.20167" lon="-3.58469">
        <ele>118.4</ele>
        <time>2021-08-11T10:07:41Z</time>
      </trkpt>
      <trkpt lat="48.20165" lon="-3.58468">
        <ele>118.4</ele>
        <time>2021-08-11T10:07:42Z</time>
      </trkpt>
      <trkpt lat="48.20163" lon="-3.58468">
        <ele>118.4</ele>
        <time>2021-08-11T10:07:43Z</time>
      </trkpt>
      <trkpt lat="48.2016" lon="-3.58468">
        <ele>118.4</ele>
        <time>2021-08-11T10:07:44Z</time>
      </trkpt>
      <trkpt lat="48.20158" lon="-3.58468">
        <ele>118.4</ele>
        <time>2021-08-11T10:07:45Z</time>
      </trkpt>
      <trkpt lat="48.20155" lon="-3.58467">
        <ele>118.4</ele>
        <time>2021-08-11T10:07:46Z</time>
      </trkpt>
      <trkpt lat="48.20153" lon="-3.58467">
        <ele>118.6</ele>
        <time>2021-08-11T10:07:47Z</time>
      </trkpt>
      <trkpt lat="48.2015" lon="-3.58467">
        <ele>118.6</ele>
        <time>2021-08-11T10:07:48Z</time>
      </trkpt>
      <trkpt lat="48.20148" lon="-3.58467">
        <ele>118.6</ele>
        <time>2021-08-11T10:07:49Z</time>
      </trkpt>
      <trkpt lat="48.20145" lon="-3.58466">
        <ele>118.6</ele>
        <time>2021-08-11T10:07:50Z</time>
      </trkpt>
      <trkpt lat="48.20143" lon="-3.58466">
        <ele>118.6</ele>
        <time>2021-08-11T10:07:51Z</time>
      </trkpt>
      <trkpt lat="48.2014" lon="-3.58466">
        <ele>118.6</ele>
        <time>2021-08-11T10:07:52Z</time>
      </trkpt>
      <trkpt lat="48.20138" lon="-3.58466">
        <ele>118.6</ele>
        <time>2021-08-11T10:07:53Z</time>
      </trkpt>
      <trkpt lat="48.20135" lon="-3.58466">
        <ele>118.6</ele>
        <time>2021-08-11T10:07:54Z</time>
      </trkpt>
      <trkpt lat="48.20133" lon="-3.58465">
        <ele>118.8</ele>
        <time>2021-08-11T10:07:55Z</time>
      </trkpt>
      <trkpt lat="48.2013" lon="-3.58465">
        <ele>118.8</ele>
        <time>2021-08-11T10:07:56Z</time>
      </trkpt>
      <trkpt lat="48.20127" lon="-3.58465">
        <ele>118.8</ele>
        <time>2021-08-11T10:07:57Z</time>
      </trkpt>
      <trkpt lat="48.20124" lon="-3.58465">
        <ele>118.8</ele>
        <time>2021-08-11T10:07:58Z</time>
      </trkpt>
      <trkpt lat="48.20121" lon="-3.58465">
        <ele>118.8</ele>
        <time>2021-08-11T10:07:59Z</time>
      </trkpt>
      <trkpt lat="48.20118" lon="-3.58465">
        <ele>118.8</ele>
        <time>2021-08-11T10:08:00Z</time>
      </trkpt>
      <trkpt lat="48.20115" lon="-3.58465">
        <ele>119</ele>
        <time>2021-08-11T10:08:01Z</time>
      </trkpt>
      <trkpt lat="48.20112" lon="-3.58465">
        <ele>119</ele>
        <time>2021-08-11T10:08:02Z</time>
      </trkpt>
      <trkpt lat="48.20108" lon="-3.58465">
        <ele>119</ele>
        <time>2021-08-11T10:08:03Z</time>
      </trkpt>
      <trkpt lat="48.20105" lon="-3.58465">
        <ele>119</ele>
        <time>2021-08-11T10:08:04Z</time>
      </trkpt>
      <trkpt lat="48.20101" lon="-3.58465">
        <ele>119</ele>
        <time>2021-08-11T10:08:05Z</time>
      </trkpt>
      <trkpt lat="48.20098" lon="-3.58465">
        <ele>119</ele>
        <time>2021-08-11T10:08:06Z</time>
      </trkpt>
      <trkpt lat="48.20095" lon="-3.58465">
        <ele>119</ele>
        <time>2021-08-11T10:08:07Z</time>
      </trkpt>
      <trkpt lat="48.20092" lon="-3.58464">
        <ele>119</ele>
        <time>2021-08-11T10:08:08Z</time>
      </trkpt>
      <trkpt lat="48.20089" lon="-3.58464">
        <ele>119</ele>
        <time>2021-08-11T10:08:09Z</time>
      </trkpt>
      <trkpt lat="48.20085" lon="-3.58464">
        <ele>119.2</ele>
        <time>2021-08-11T10:08:10Z</time>
      </trkpt>
      <trkpt lat="48.20082" lon="-3.58463">
        <ele>119.2</ele>
        <time>2021-08-11T10:08:11Z</time>
      </trkpt>
      <trkpt lat="48.20078" lon="-3.58463">
        <ele>119.2</ele>
        <time>2021-08-11T10:08:12Z</time>
      </trkpt>
      <trkpt lat="48.20075" lon="-3.58463">
        <ele>119.2</ele>
        <time>2021-08-11T10:08:13Z</time>
      </trkpt>
      <trkpt lat="48.20072" lon="-3.58462">
        <ele>119.2</ele>
        <time>2021-08-11T10:08:14Z</time>
      </trkpt>
      <trkpt lat="48.20069" lon="-3.58462">
        <ele>119.4</ele>
        <time>2021-08-11T10:08:15Z</time>
      </trkpt>
      <trkpt lat="48.20065" lon="-3.58462">
        <ele>119.4</ele>
        <time>2021-08-11T10:08:16Z</time>
      </trkpt>
      <trkpt lat="48.20062" lon="-3.58461">
        <ele>119.6</ele>
        <time>2021-08-11T10:08:17Z</time>
      </trkpt>
      <trkpt lat="48.20058" lon="-3.58461">
        <ele>119.6</ele>
        <time>2021-08-11T10:08:18Z</time>
      </trkpt>
      <trkpt lat="48.20055" lon="-3.5846">
        <ele>119.6</ele>
        <time>2021-08-11T10:08:19Z</time>
      </trkpt>
      <trkpt lat="48.20051" lon="-3.58459">
        <ele>119.6</ele>
        <time>2021-08-11T10:08:20Z</time>
      </trkpt>
      <trkpt lat="48.20047" lon="-3.58459">
        <ele>119.8</ele>
        <time>2021-08-11T10:08:21Z</time>
      </trkpt>
      <trkpt lat="48.20044" lon="-3.58458">
        <ele>119.8</ele>
        <time>2021-08-11T10:08:22Z</time>
      </trkpt>
      <trkpt lat="48.20041" lon="-3.58457">
        <ele>119.8</ele>
        <time>2021-08-11T10:08:23Z</time>
      </trkpt>
      <trkpt lat="48.20037" lon="-3.58456">
        <ele>119.8</ele>
        <time>2021-08-11T10:08:24Z</time>
      </trkpt>
      <trkpt lat="48.20032" lon="-3.58455">
        <ele>119.8</ele>
        <time>2021-08-11T10:08:25Z</time>
      </trkpt>
      <trkpt lat="48.20029" lon="-3.58454">
        <ele>120</ele>
        <time>2021-08-11T10:08:26Z</time>
      </trkpt>
      <trkpt lat="48.20025" lon="-3.58452">
        <ele>120</ele>
        <time>2021-08-11T10:08:27Z</time>
      </trkpt>
      <trkpt lat="48.20021" lon="-3.58451">
        <ele>120</ele>
        <time>2021-08-11T10:08:28Z</time>
      </trkpt>
      <trkpt lat="48.20017" lon="-3.58449">
        <ele>120</ele>
        <time>2021-08-11T10:08:29Z</time>
      </trkpt>
      <trkpt lat="48.20014" lon="-3.58447">
        <ele>120</ele>
        <time>2021-08-11T10:08:30Z</time>
      </trkpt>
      <trkpt lat="48.2001" lon="-3.58446">
        <ele>120</ele>
        <time>2021-08-11T10:08:31Z</time>
      </trkpt>
      <trkpt lat="48.20007" lon="-3.58444">
        <ele>120.2</ele>
        <time>2021-08-11T10:08:32Z</time>
      </trkpt>
      <trkpt lat="48.20003" lon="-3.58443">
        <ele>120.2</ele>
        <time>2021-08-11T10:08:33Z</time>
      </trkpt>
      <trkpt lat="48.19999" lon="-3.58442">
        <ele>120.2</ele>
        <time>2021-08-11T10:08:34Z</time>
      </trkpt>
      <trkpt lat="48.19996" lon="-3.58441">
        <ele>120.4</ele>
        <time>2021-08-11T10:08:35Z</time>
      </trkpt>
      <trkpt lat="48.19993" lon="-3.58439">
        <ele>120.4</ele>
        <time>2021-08-11T10:08:36Z</time>
      </trkpt>
      <trkpt lat="48.19989" lon="-3.58438">
        <ele>120.6</ele>
        <time>2021-08-11T10:08:37Z</time>
      </trkpt>
      <trkpt lat="48.19985" lon="-3.58436">
        <ele>120.8</ele>
        <time>2021-08-11T10:08:38Z</time>
      </trkpt>
      <trkpt lat="48.19982" lon="-3.58434">
        <ele>120.8</ele>
        <time>2021-08-11T10:08:39Z</time>
      </trkpt>
      <trkpt lat="48.19978" lon="-3.58432">
        <ele>121</ele>
        <time>2021-08-11T10:08:40Z</time>
      </trkpt>
      <trkpt lat="48.19974" lon="-3.5843">
        <ele>121</ele>
        <time>2021-08-11T10:08:41Z</time>
      </trkpt>
      <trkpt lat="48.19971" lon="-3.58428">
        <ele>121</ele>
        <time>2021-08-11T10:08:42Z</time>
      </trkpt>
      <trkpt lat="48.19967" lon="-3.58426">
        <ele>121</ele>
        <time>2021-08-11T10:08:43Z</time>
      </trkpt>
      <trkpt lat="48.19963" lon="-3.58423">
        <ele>121</ele>
        <time>2021-08-11T10:08:44Z</time>
      </trkpt>
      <trkpt lat="48.1996" lon="-3.5842">
        <ele>121.2</ele>
        <time>2021-08-11T10:08:45Z</time>
      </trkpt>
      <trkpt lat="48.19956" lon="-3.58418">
        <ele>121.2</ele>
        <time>2021-08-11T10:08:46Z</time>
      </trkpt>
      <trkpt lat="48.19953" lon="-3.58416">
        <ele>121.4</ele>
        <time>2021-08-11T10:08:47Z</time>
      </trkpt>
      <trkpt lat="48.19949" lon="-3.58414">
        <ele>121.6</ele>
        <time>2021-08-11T10:08:48Z</time>
      </trkpt>
      <trkpt lat="48.19946" lon="-3.58413">
        <ele>121.8</ele>
        <time>2021-08-11T10:08:49Z</time>
      </trkpt>
      <trkpt lat="48.19943" lon="-3.58411">
        <ele>122</ele>
        <time>2021-08-11T10:08:50Z</time>
      </trkpt>
      <trkpt lat="48.1994" lon="-3.58409">
        <ele>122.2</ele>
        <time>2021-08-11T10:08:51Z</time>
      </trkpt>
      <trkpt lat="48.19937" lon="-3.58408">
        <ele>122.2</ele>
        <time>2021-08-11T10:08:52Z</time>
      </trkpt>
      <trkpt lat="48.19934" lon="-3.58406">
        <ele>122.4</ele>
        <time>2021-08-11T10:08:53Z</time>
      </trkpt>
      <trkpt lat="48.19932" lon="-3.58404">
        <ele>122.4</ele>
        <time>2021-08-11T10:08:54Z</time>
      </trkpt>
      <trkpt lat="48.19929" lon="-3.58402">
        <ele>122.6</ele>
        <time>2021-08-11T10:08:55Z</time>
      </trkpt>
      <trkpt lat="48.19926" lon="-3.584">
        <ele>122.8</ele>
        <time>2021-08-11T10:08:56Z</time>
      </trkpt>
      <trkpt lat="48.19923" lon="-3.58397">
        <ele>122.8</ele>
        <time>2021-08-11T10:08:57Z</time>
      </trkpt>
      <trkpt lat="48.1992" lon="-3.58395">
        <ele>123</ele>
        <time>2021-08-11T10:08:58Z</time>
      </trkpt>
      <trkpt lat="48.19917" lon="-3.58391">
        <ele>123</ele>
        <time>2021-08-11T10:08:59Z</time>
      </trkpt>
      <trkpt lat="48.19914" lon="-3.58388">
        <ele>123.2</ele>
        <time>2021-08-11T10:09:00Z</time>
      </trkpt>
      <trkpt lat="48.19911" lon="-3.58385">
        <ele>123.2</ele>
        <time>2021-08-11T10:09:01Z</time>
      </trkpt>
      <trkpt lat="48.19908" lon="-3.58382">
        <ele>123.2</ele>
        <time>2021-08-11T10:09:02Z</time>
      </trkpt>
      <trkpt lat="48.19905" lon="-3.58379">
        <ele>123.4</ele>
        <time>2021-08-11T10:09:03Z</time>
      </trkpt>
      <trkpt lat="48.19902" lon="-3.58376">
        <ele>123.4</ele>
        <time>2021-08-11T10:09:04Z</time>
      </trkpt>
      <trkpt lat="48.19899" lon="-3.58373">
        <ele>123.4</ele>
        <time>2021-08-11T10:09:05Z</time>
      </trkpt>
      <trkpt lat="48.19897" lon="-3.58371">
        <ele>123.6</ele>
        <time>2021-08-11T10:09:06Z</time>
      </trkpt>
      <trkpt lat="48.19894" lon="-3.58368">
        <ele>123.6</ele>
        <time>2021-08-11T10:09:07Z</time>
      </trkpt>
      <trkpt lat="48.19891" lon="-3.58365">
        <ele>123.6</ele>
        <time>2021-08-11T10:09:08Z</time>
      </trkpt>
      <trkpt lat="48.19888" lon="-3.58363">
        <ele>123.6</ele>
        <time>2021-08-11T10:09:09Z</time>
      </trkpt>
      <trkpt lat="48.19885" lon="-3.5836">
        <ele>123.6</ele>
        <time>2021-08-11T10:09:10Z</time>
      </trkpt>
      <trkpt lat="48.19882" lon="-3.58357">
        <ele>123.8</ele>
        <time>2021-08-11T10:09:11Z</time>
      </trkpt>
      <trkpt lat="48.19879" lon="-3.58354">
        <ele>123.8</ele>
        <time>2021-08-11T10:09:12Z</time>
      </trkpt>
      <trkpt lat="48.19876" lon="-3.58351">
        <ele>124</ele>
        <time>2021-08-11T10:09:13Z</time>
      </trkpt>
      <trkpt lat="48.19873" lon="-3.58348">
        <ele>124</ele>
        <time>2021-08-11T10:09:14Z</time>
      </trkpt>
      <trkpt lat="48.19871" lon="-3.58344">
        <ele>124</ele>
        <time>2021-08-11T10:09:15Z</time>
      </trkpt>
      <trkpt lat="48.19868" lon="-3.58341">
        <ele>124</ele>
        <time>2021-08-11T10:09:16Z</time>
      </trkpt>
      <trkpt lat="48.19865" lon="-3.58337">
        <ele>124</ele>
        <time>2021-08-11T10:09:17Z</time>
      </trkpt>
      <trkpt lat="48.19862" lon="-3.58333">
        <ele>124</ele>
        <time>2021-08-11T10:09:18Z</time>
      </trkpt>
      <trkpt lat="48.19859" lon="-3.5833">
        <ele>124</ele>
        <time>2021-08-11T10:09:19Z</time>
      </trkpt>
      <trkpt lat="48.19856" lon="-3.58326">
        <ele>124</ele>
        <time>2021-08-11T10:09:20Z</time>
      </trkpt>
      <trkpt lat="48.19854" lon="-3.58322">
        <ele>124</ele>
        <time>2021-08-11T10:09:21Z</time>
      </trkpt>
      <trkpt lat="48.19851" lon="-3.58318">
        <ele>124</ele>
        <time>2021-08-11T10:09:22Z</time>
      </trkpt>
      <trkpt lat="48.19848" lon="-3.58314">
        <ele>124</ele>
        <time>2021-08-11T10:09:23Z</time>
      </trkpt>
      <trkpt lat="48.19846" lon="-3.5831">
        <ele>124</ele>
        <time>2021-08-11T10:09:24Z</time>
      </trkpt>
      <trkpt lat="48.19843" lon="-3.58307">
        <ele>124</ele>
        <time>2021-08-11T10:09:25Z</time>
      </trkpt>
      <trkpt lat="48.1984" lon="-3.58303">
        <ele>124</ele>
        <time>2021-08-11T10:09:26Z</time>
      </trkpt>
      <trkpt lat="48.19838" lon="-3.58298">
        <ele>124</ele>
        <time>2021-08-11T10:09:27Z</time>
      </trkpt>
      <trkpt lat="48.19835" lon="-3.58294">
        <ele>124</ele>
        <time>2021-08-11T10:09:28Z</time>
      </trkpt>
      <trkpt lat="48.19833" lon="-3.5829">
        <ele>124</ele>
        <time>2021-08-11T10:09:29Z</time>
      </trkpt>
      <trkpt lat="48.1983" lon="-3.58285">
        <ele>124</ele>
        <time>2021-08-11T10:09:30Z</time>
      </trkpt>
      <trkpt lat="48.19828" lon="-3.58281">
        <ele>124</ele>
        <time>2021-08-11T10:09:31Z</time>
      </trkpt>
      <trkpt lat="48.19826" lon="-3.58277">
        <ele>124</ele>
        <time>2021-08-11T10:09:32Z</time>
      </trkpt>
      <trkpt lat="48.19823" lon="-3.58273">
        <ele>124</ele>
        <time>2021-08-11T10:09:33Z</time>
      </trkpt>
      <trkpt lat="48.19821" lon="-3.5827">
        <ele>124</ele>
        <time>2021-08-11T10:09:34Z</time>
      </trkpt>
      <trkpt lat="48.19819" lon="-3.58266">
        <ele>124</ele>
        <time>2021-08-11T10:09:35Z</time>
      </trkpt>
      <trkpt lat="48.19817" lon="-3.58262">
        <ele>124</ele>
        <time>2021-08-11T10:09:36Z</time>
      </trkpt>
      <trkpt lat="48.19815" lon="-3.58259">
        <ele>124</ele>
        <time>2021-08-11T10:09:37Z</time>
      </trkpt>
      <trkpt lat="48.19814" lon="-3.58255">
        <ele>124</ele>
        <time>2021-08-11T10:09:38Z</time>
      </trkpt>
      <trkpt lat="48.19812" lon="-3.58252">
        <ele>124</ele>
        <time>2021-08-11T10:09:39Z</time>
      </trkpt>
      <trkpt lat="48.1981" lon="-3.58248">
        <ele>124</ele>
        <time>2021-08-11T10:09:40Z</time>
      </trkpt>
      <trkpt lat="48.19808" lon="-3.58244">
        <ele>124</ele>
        <time>2021-08-11T10:09:41Z</time>
      </trkpt>
      <trkpt lat="48.19806" lon="-3.5824">
        <ele>124</ele>
        <time>2021-08-11T10:09:42Z</time>
      </trkpt>
      <trkpt lat="48.19804" lon="-3.58235">
        <ele>124</ele>
        <time>2021-08-11T10:09:43Z</time>
      </trkpt>
      <trkpt lat="48.19802" lon="-3.58232">
        <ele>124.2</ele>
        <time>2021-08-11T10:09:44Z</time>
      </trkpt>
      <trkpt lat="48.19801" lon="-3.58228">
        <ele>124.2</ele>
        <time>2021-08-11T10:09:45Z</time>
      </trkpt>
      <trkpt lat="48.19799" lon="-3.58225">
        <ele>124.2</ele>
        <time>2021-08-11T10:09:46Z</time>
      </trkpt>
      <trkpt lat="48.19798" lon="-3.58222">
        <ele>124.2</ele>
        <time>2021-08-11T10:09:47Z</time>
      </trkpt>
      <trkpt lat="48.19797" lon="-3.58219">
        <ele>124.2</ele>
        <time>2021-08-11T10:09:48Z</time>
      </trkpt>
      <trkpt lat="48.19796" lon="-3.58215">
        <ele>124.2</ele>
        <time>2021-08-11T10:09:49Z</time>
      </trkpt>
      <trkpt lat="48.19794" lon="-3.58212">
        <ele>124.2</ele>
        <time>2021-08-11T10:09:50Z</time>
      </trkpt>
      <trkpt lat="48.19793" lon="-3.58209">
        <ele>124.4</ele>
        <time>2021-08-11T10:09:51Z</time>
      </trkpt>
      <trkpt lat="48.19792" lon="-3.58206">
        <ele>124.4</ele>
        <time>2021-08-11T10:09:52Z</time>
      </trkpt>
      <trkpt lat="48.1979" lon="-3.58203">
        <ele>124.4</ele>
        <time>2021-08-11T10:09:53Z</time>
      </trkpt>
      <trkpt lat="48.19789" lon="-3.582">
        <ele>124.4</ele>
        <time>2021-08-11T10:09:54Z</time>
      </trkpt>
      <trkpt lat="48.19787" lon="-3.58198">
        <ele>124.4</ele>
        <time>2021-08-11T10:09:55Z</time>
      </trkpt>
      <trkpt lat="48.19785" lon="-3.58195">
        <ele>124.4</ele>
        <time>2021-08-11T10:09:56Z</time>
      </trkpt>
      <trkpt lat="48.19784" lon="-3.58192">
        <ele>124.4</ele>
        <time>2021-08-11T10:09:57Z</time>
      </trkpt>
      <trkpt lat="48.19782" lon="-3.5819">
        <ele>124.4</ele>
        <time>2021-08-11T10:09:58Z</time>
      </trkpt>
      <trkpt lat="48.1978" lon="-3.58186">
        <ele>124.4</ele>
        <time>2021-08-11T10:09:59Z</time>
      </trkpt>
      <trkpt lat="48.19779" lon="-3.58183">
        <ele>124.4</ele>
        <time>2021-08-11T10:10:00Z</time>
      </trkpt>
      <trkpt lat="48.19777" lon="-3.58179">
        <ele>124.4</ele>
        <time>2021-08-11T10:10:01Z</time>
      </trkpt>
      <trkpt lat="48.19776" lon="-3.58176">
        <ele>124.4</ele>
        <time>2021-08-11T10:10:02Z</time>
      </trkpt>
      <trkpt lat="48.19775" lon="-3.58172">
        <ele>124.4</ele>
        <time>2021-08-11T10:10:03Z</time>
      </trkpt>
      <trkpt lat="48.19774" lon="-3.58169">
        <ele>124.6</ele>
        <time>2021-08-11T10:10:04Z</time>
      </trkpt>
      <trkpt lat="48.19773" lon="-3.58165">
        <ele>124.6</ele>
        <time>2021-08-11T10:10:05Z</time>
      </trkpt>
      <trkpt lat="48.19772" lon="-3.58162">
        <ele>124.6</ele>
        <time>2021-08-11T10:10:06Z</time>
      </trkpt>
      <trkpt lat="48.1977" lon="-3.58159">
        <ele>124.8</ele>
        <time>2021-08-11T10:10:07Z</time>
      </trkpt>
      <trkpt lat="48.19769" lon="-3.58155">
        <ele>124.8</ele>
        <time>2021-08-11T10:10:08Z</time>
      </trkpt>
      <trkpt lat="48.19768" lon="-3.58153">
        <ele>124.8</ele>
        <time>2021-08-11T10:10:09Z</time>
      </trkpt>
      <trkpt lat="48.19767" lon="-3.5815">
        <ele>125</ele>
        <time>2021-08-11T10:10:10Z</time>
      </trkpt>
      <trkpt lat="48.19766" lon="-3.58147">
        <ele>125</ele>
        <time>2021-08-11T10:10:11Z</time>
      </trkpt>
      <trkpt lat="48.19765" lon="-3.58144">
        <ele>125</ele>
        <time>2021-08-11T10:10:12Z</time>
      </trkpt>
      <trkpt lat="48.19764" lon="-3.58141">
        <ele>125</ele>
        <time>2021-08-11T10:10:13Z</time>
      </trkpt>
      <trkpt lat="48.19763" lon="-3.58138">
        <ele>125.2</ele>
        <time>2021-08-11T10:10:14Z</time>
      </trkpt>
      <trkpt lat="48.19761" lon="-3.58135">
        <ele>125.2</ele>
        <time>2021-08-11T10:10:15Z</time>
      </trkpt>
      <trkpt lat="48.1976" lon="-3.58132">
        <ele>125.2</ele>
        <time>2021-08-11T10:10:16Z</time>
      </trkpt>
      <trkpt lat="48.19759" lon="-3.58129">
        <ele>125.2</ele>
        <time>2021-08-11T10:10:17Z</time>
      </trkpt>
      <trkpt lat="48.19757" lon="-3.58125">
        <ele>125.4</ele>
        <time>2021-08-11T10:10:18Z</time>
      </trkpt>
      <trkpt lat="48.19756" lon="-3.58122">
        <ele>125.4</ele>
        <time>2021-08-11T10:10:19Z</time>
      </trkpt>
      <trkpt lat="48.19755" lon="-3.58118">
        <ele>125.4</ele>
        <time>2021-08-11T10:10:20Z</time>
      </trkpt>
      <trkpt lat="48.19754" lon="-3.58115">
        <ele>125.6</ele>
        <time>2021-08-11T10:10:21Z</time>
      </trkpt>
      <trkpt lat="48.19752" lon="-3.58111">
        <ele>125.8</ele>
        <time>2021-08-11T10:10:22Z</time>
      </trkpt>
      <trkpt lat="48.19751" lon="-3.58108">
        <ele>125.8</ele>
        <time>2021-08-11T10:10:23Z</time>
      </trkpt>
      <trkpt lat="48.19749" lon="-3.58103">
        <ele>126</ele>
        <time>2021-08-11T10:10:24Z</time>
      </trkpt>
      <trkpt lat="48.19747" lon="-3.58099">
        <ele>126</ele>
        <time>2021-08-11T10:10:25Z</time>
      </trkpt>
      <trkpt lat="48.19746" lon="-3.58095">
        <ele>126</ele>
        <time>2021-08-11T10:10:26Z</time>
      </trkpt>
      <trkpt lat="48.19745" lon="-3.58091">
        <ele>126.2</ele>
        <time>2021-08-11T10:10:27Z</time>
      </trkpt>
      <trkpt lat="48.19744" lon="-3.58088">
        <ele>126.2</ele>
        <time>2021-08-11T10:10:28Z</time>
      </trkpt>
      <trkpt lat="48.19742" lon="-3.58085">
        <ele>126.2</ele>
        <time>2021-08-11T10:10:29Z</time>
      </trkpt>
      <trkpt lat="48.1974" lon="-3.58081">
        <ele>126.2</ele>
        <time>2021-08-11T10:10:30Z</time>
      </trkpt>
      <trkpt lat="48.19739" lon="-3.58078">
        <ele>126.4</ele>
        <time>2021-08-11T10:10:31Z</time>
      </trkpt>
      <trkpt lat="48.19737" lon="-3.58075">
        <ele>126.4</ele>
        <time>2021-08-11T10:10:32Z</time>
      </trkpt>
      <trkpt lat="48.19735" lon="-3.58071">
        <ele>126.4</ele>
        <time>2021-08-11T10:10:33Z</time>
      </trkpt>
      <trkpt lat="48.19733" lon="-3.58067">
        <ele>126.4</ele>
        <time>2021-08-11T10:10:34Z</time>
      </trkpt>
      <trkpt lat="48.19731" lon="-3.58063">
        <ele>126.4</ele>
        <time>2021-08-11T10:10:35Z</time>
      </trkpt>
      <trkpt lat="48.19729" lon="-3.58058">
        <ele>126.6</ele>
        <time>2021-08-11T10:10:36Z</time>
      </trkpt>
      <trkpt lat="48.19728" lon="-3.58054">
        <ele>126.6</ele>
        <time>2021-08-11T10:10:37Z</time>
      </trkpt>
      <trkpt lat="48.19727" lon="-3.58049">
        <ele>126.6</ele>
        <time>2021-08-11T10:10:38Z</time>
      </trkpt>
      <trkpt lat="48.19726" lon="-3.58043">
        <ele>126.8</ele>
        <time>2021-08-11T10:10:39Z</time>
      </trkpt>
      <trkpt lat="48.19725" lon="-3.58037">
        <ele>126.8</ele>
        <time>2021-08-11T10:10:40Z</time>
      </trkpt>
      <trkpt lat="48.19724" lon="-3.58032">
        <ele>126.8</ele>
        <time>2021-08-11T10:10:41Z</time>
      </trkpt>
      <trkpt lat="48.19723" lon="-3.58027">
        <ele>126.8</ele>
        <time>2021-08-11T10:10:42Z</time>
      </trkpt>
      <trkpt lat="48.19721" lon="-3.58023">
        <ele>126.8</ele>
        <time>2021-08-11T10:10:43Z</time>
      </trkpt>
      <trkpt lat="48.1972" lon="-3.58018">
        <ele>127</ele>
        <time>2021-08-11T10:10:44Z</time>
      </trkpt>
      <trkpt lat="48.19718" lon="-3.58015">
        <ele>127</ele>
        <time>2021-08-11T10:10:45Z</time>
      </trkpt>
      <trkpt lat="48.19717" lon="-3.58011">
        <ele>127</ele>
        <time>2021-08-11T10:10:46Z</time>
      </trkpt>
      <trkpt lat="48.19715" lon="-3.58007">
        <ele>127</ele>
        <time>2021-08-11T10:10:47Z</time>
      </trkpt>
      <trkpt lat="48.19713" lon="-3.58003">
        <ele>127.2</ele>
        <time>2021-08-11T10:10:48Z</time>
      </trkpt>
      <trkpt lat="48.19711" lon="-3.57999">
        <ele>127.2</ele>
        <time>2021-08-11T10:10:49Z</time>
      </trkpt>
      <trkpt lat="48.19709" lon="-3.57994">
        <ele>127.2</ele>
        <time>2021-08-11T10:10:50Z</time>
      </trkpt>
      <trkpt lat="48.19707" lon="-3.57991">
        <ele>127.4</ele>
        <time>2021-08-11T10:10:51Z</time>
      </trkpt>
      <trkpt lat="48.19706" lon="-3.57987">
        <ele>127.6</ele>
        <time>2021-08-11T10:10:52Z</time>
      </trkpt>
      <trkpt lat="48.19705" lon="-3.57983">
        <ele>127.6</ele>
        <time>2021-08-11T10:10:53Z</time>
      </trkpt>
      <trkpt lat="48.19703" lon="-3.5798">
        <ele>127.8</ele>
        <time>2021-08-11T10:10:54Z</time>
      </trkpt>
      <trkpt lat="48.19702" lon="-3.57977">
        <ele>127.8</ele>
        <time>2021-08-11T10:10:55Z</time>
      </trkpt>
      <trkpt lat="48.19701" lon="-3.57974">
        <ele>127.8</ele>
        <time>2021-08-11T10:10:56Z</time>
      </trkpt>
      <trkpt lat="48.19699" lon="-3.5797">
        <ele>128</ele>
        <time>2021-08-11T10:10:57Z</time>
      </trkpt>
      <trkpt lat="48.19697" lon="-3.57967">
        <ele>128</ele>
        <time>2021-08-11T10:10:58Z</time>
      </trkpt>
      <trkpt lat="48.19696" lon="-3.57963">
        <ele>128.2</ele>
        <time>2021-08-11T10:10:59Z</time>
      </trkpt>
      <trkpt lat="48.19694" lon="-3.57959">
        <ele>128.2</ele>
        <time>2021-08-11T10:11:00Z</time>
      </trkpt>
      <trkpt lat="48.19693" lon="-3.57955">
        <ele>128.4</ele>
        <time>2021-08-11T10:11:01Z</time>
      </trkpt>
      <trkpt lat="48.19692" lon="-3.57953">
        <ele>128.4</ele>
        <time>2021-08-11T10:11:02Z</time>
      </trkpt>
      <trkpt lat="48.19691" lon="-3.57949">
        <ele>128.4</ele>
        <time>2021-08-11T10:11:03Z</time>
      </trkpt>
      <trkpt lat="48.19689" lon="-3.57945">
        <ele>128.4</ele>
        <time>2021-08-11T10:11:04Z</time>
      </trkpt>
      <trkpt lat="48.19687" lon="-3.57942">
        <ele>128.4</ele>
        <time>2021-08-11T10:11:05Z</time>
      </trkpt>
      <trkpt lat="48.19686" lon="-3.57938">
        <ele>128.6</ele>
        <time>2021-08-11T10:11:06Z</time>
      </trkpt>
      <trkpt lat="48.19684" lon="-3.57934">
        <ele>128.6</ele>
        <time>2021-08-11T10:11:07Z</time>
      </trkpt>
      <trkpt lat="48.19683" lon="-3.5793">
        <ele>128.8</ele>
        <time>2021-08-11T10:11:08Z</time>
      </trkpt>
      <trkpt lat="48.19682" lon="-3.57928">
        <ele>128.8</ele>
        <time>2021-08-11T10:11:09Z</time>
      </trkpt>
      <trkpt lat="48.1968" lon="-3.57924">
        <ele>128.8</ele>
        <time>2021-08-11T10:11:10Z</time>
      </trkpt>
      <trkpt lat="48.19679" lon="-3.57921">
        <ele>128.8</ele>
        <time>2021-08-11T10:11:11Z</time>
      </trkpt>
      <trkpt lat="48.19677" lon="-3.57917">
        <ele>128.8</ele>
        <time>2021-08-11T10:11:12Z</time>
      </trkpt>
      <trkpt lat="48.19676" lon="-3.57913">
        <ele>129</ele>
        <time>2021-08-11T10:11:13Z</time>
      </trkpt>
      <trkpt lat="48.19674" lon="-3.57909">
        <ele>129</ele>
        <time>2021-08-11T10:11:14Z</time>
      </trkpt>
      <trkpt lat="48.19673" lon="-3.57905">
        <ele>129.2</ele>
        <time>2021-08-11T10:11:15Z</time>
      </trkpt>
      <trkpt lat="48.19671" lon="-3.57901">
        <ele>129.2</ele>
        <time>2021-08-11T10:11:16Z</time>
      </trkpt>
      <trkpt lat="48.19669" lon="-3.57898">
        <ele>129.2</ele>
        <time>2021-08-11T10:11:17Z</time>
      </trkpt>
      <trkpt lat="48.19668" lon="-3.57894">
        <ele>129.4</ele>
        <time>2021-08-11T10:11:18Z</time>
      </trkpt>
      <trkpt lat="48.19668" lon="-3.57891">
        <ele>129.4</ele>
        <time>2021-08-11T10:11:19Z</time>
      </trkpt>
      <trkpt lat="48.19667" lon="-3.57887">
        <ele>129.4</ele>
        <time>2021-08-11T10:11:20Z</time>
      </trkpt>
      <trkpt lat="48.19666" lon="-3.57883">
        <ele>129.6</ele>
        <time>2021-08-11T10:11:21Z</time>
      </trkpt>
      <trkpt lat="48.19664" lon="-3.5788">
        <ele>129.6</ele>
        <time>2021-08-11T10:11:22Z</time>
      </trkpt>
      <trkpt lat="48.19664" lon="-3.57876">
        <ele>129.8</ele>
        <time>2021-08-11T10:11:23Z</time>
      </trkpt>
      <trkpt lat="48.19663" lon="-3.57873">
        <ele>130</ele>
        <time>2021-08-11T10:11:24Z</time>
      </trkpt>
      <trkpt lat="48.19661" lon="-3.57869">
        <ele>130</ele>
        <time>2021-08-11T10:11:25Z</time>
      </trkpt>
      <trkpt lat="48.1966" lon="-3.57867">
        <ele>130</ele>
        <time>2021-08-11T10:11:26Z</time>
      </trkpt>
      <trkpt lat="48.19658" lon="-3.57864">
        <ele>130.2</ele>
        <time>2021-08-11T10:11:27Z</time>
      </trkpt>
      <trkpt lat="48.19658" lon="-3.57861">
        <ele>130.2</ele>
        <time>2021-08-11T10:11:28Z</time>
      </trkpt>
      <trkpt lat="48.19657" lon="-3.57857">
        <ele>130.2</ele>
        <time>2021-08-11T10:11:29Z</time>
      </trkpt>
      <trkpt lat="48.19656" lon="-3.57854">
        <ele>130.4</ele>
        <time>2021-08-11T10:11:30Z</time>
      </trkpt>
      <trkpt lat="48.19656" lon="-3.5785">
        <ele>130.4</ele>
        <time>2021-08-11T10:11:31Z</time>
      </trkpt>
      <trkpt lat="48.19655" lon="-3.57847">
        <ele>130.6</ele>
        <time>2021-08-11T10:11:32Z</time>
      </trkpt>
      <trkpt lat="48.19653" lon="-3.57844">
        <ele>130.6</ele>
        <time>2021-08-11T10:11:33Z</time>
      </trkpt>
      <trkpt lat="48.19651" lon="-3.5784">
        <ele>130.6</ele>
        <time>2021-08-11T10:11:34Z</time>
      </trkpt>
      <trkpt lat="48.19649" lon="-3.57836">
        <ele>130.8</ele>
        <time>2021-08-11T10:11:35Z</time>
      </trkpt>
      <trkpt lat="48.19648" lon="-3.57832">
        <ele>130.8</ele>
        <time>2021-08-11T10:11:36Z</time>
      </trkpt>
      <trkpt lat="48.19645" lon="-3.57828">
        <ele>130.8</ele>
        <time>2021-08-11T10:11:37Z</time>
      </trkpt>
      <trkpt lat="48.19644" lon="-3.57824">
        <ele>130.8</ele>
        <time>2021-08-11T10:11:38Z</time>
      </trkpt>
      <trkpt lat="48.19642" lon="-3.57819">
        <ele>130.8</ele>
        <time>2021-08-11T10:11:39Z</time>
      </trkpt>
      <trkpt lat="48.19641" lon="-3.57814">
        <ele>131</ele>
        <time>2021-08-11T10:11:40Z</time>
      </trkpt>
      <trkpt lat="48.19639" lon="-3.57809">
        <ele>131</ele>
        <time>2021-08-11T10:11:41Z</time>
      </trkpt>
      <trkpt lat="48.19637" lon="-3.57805">
        <ele>131.2</ele>
        <time>2021-08-11T10:11:42Z</time>
      </trkpt>
      <trkpt lat="48.19636" lon="-3.57799">
        <ele>131.4</ele>
        <time>2021-08-11T10:11:43Z</time>
      </trkpt>
      <trkpt lat="48.19634" lon="-3.57795">
        <ele>131.4</ele>
        <time>2021-08-11T10:11:44Z</time>
      </trkpt>
      <trkpt lat="48.19633" lon="-3.57791">
        <ele>131.4</ele>
        <time>2021-08-11T10:11:45Z</time>
      </trkpt>
      <trkpt lat="48.19631" lon="-3.57788">
        <ele>131.6</ele>
        <time>2021-08-11T10:11:46Z</time>
      </trkpt>
      <trkpt lat="48.19629" lon="-3.57784">
        <ele>131.6</ele>
        <time>2021-08-11T10:11:47Z</time>
      </trkpt>
      <trkpt lat="48.19627" lon="-3.5778">
        <ele>131.8</ele>
        <time>2021-08-11T10:11:48Z</time>
      </trkpt>
      <trkpt lat="48.19626" lon="-3.57777">
        <ele>131.8</ele>
        <time>2021-08-11T10:11:49Z</time>
      </trkpt>
      <trkpt lat="48.19624" lon="-3.57773">
        <ele>131.8</ele>
        <time>2021-08-11T10:11:50Z</time>
      </trkpt>
      <trkpt lat="48.19623" lon="-3.57768">
        <ele>131.8</ele>
        <time>2021-08-11T10:11:51Z</time>
      </trkpt>
      <trkpt lat="48.19622" lon="-3.57763">
        <ele>132</ele>
        <time>2021-08-11T10:11:52Z</time>
      </trkpt>
      <trkpt lat="48.19621" lon="-3.57759">
        <ele>132</ele>
        <time>2021-08-11T10:11:53Z</time>
      </trkpt>
      <trkpt lat="48.1962" lon="-3.57755">
        <ele>132</ele>
        <time>2021-08-11T10:11:54Z</time>
      </trkpt>
      <trkpt lat="48.19618" lon="-3.5775">
        <ele>132.2</ele>
        <time>2021-08-11T10:11:55Z</time>
      </trkpt>
      <trkpt lat="48.19617" lon="-3.57746">
        <ele>132.2</ele>
        <time>2021-08-11T10:11:56Z</time>
      </trkpt>
      <trkpt lat="48.19617" lon="-3.57741">
        <ele>132.2</ele>
        <time>2021-08-11T10:11:57Z</time>
      </trkpt>
      <trkpt lat="48.19617" lon="-3.57736">
        <ele>132.2</ele>
        <time>2021-08-11T10:11:58Z</time>
      </trkpt>
      <trkpt lat="48.19616" lon="-3.57733">
        <ele>132.2</ele>
        <time>2021-08-11T10:11:59Z</time>
      </trkpt>
      <trkpt lat="48.19615" lon="-3.5773">
        <ele>132.2</ele>
        <time>2021-08-11T10:12:00Z</time>
      </trkpt>
      <trkpt lat="48.19614" lon="-3.57726">
        <ele>132.4</ele>
        <time>2021-08-11T10:12:01Z</time>
      </trkpt>
      <trkpt lat="48.19614" lon="-3.57721">
        <ele>132.4</ele>
        <time>2021-08-11T10:12:02Z</time>
      </trkpt>
      <trkpt lat="48.19613" lon="-3.57717">
        <ele>132.4</ele>
        <time>2021-08-11T10:12:03Z</time>
      </trkpt>
      <trkpt lat="48.19611" lon="-3.57713">
        <ele>132.6</ele>
        <time>2021-08-11T10:12:04Z</time>
      </trkpt>
      <trkpt lat="48.1961" lon="-3.57708">
        <ele>132.8</ele>
        <time>2021-08-11T10:12:05Z</time>
      </trkpt>
      <trkpt lat="48.19608" lon="-3.57703">
        <ele>132.8</ele>
        <time>2021-08-11T10:12:06Z</time>
      </trkpt>
      <trkpt lat="48.19606" lon="-3.57698">
        <ele>132.8</ele>
        <time>2021-08-11T10:12:07Z</time>
      </trkpt>
      <trkpt lat="48.19605" lon="-3.57695">
        <ele>132.8</ele>
        <time>2021-08-11T10:12:08Z</time>
      </trkpt>
      <trkpt lat="48.19603" lon="-3.57691">
        <ele>133</ele>
        <time>2021-08-11T10:12:09Z</time>
      </trkpt>
      <trkpt lat="48.19601" lon="-3.57688">
        <ele>133</ele>
        <time>2021-08-11T10:12:10Z</time>
      </trkpt>
      <trkpt lat="48.196" lon="-3.57685">
        <ele>133</ele>
        <time>2021-08-11T10:12:11Z</time>
      </trkpt>
      <trkpt lat="48.19599" lon="-3.57682">
        <ele>133</ele>
        <time>2021-08-11T10:12:12Z</time>
      </trkpt>
      <trkpt lat="48.19598" lon="-3.57679">
        <ele>133</ele>
        <time>2021-08-11T10:12:13Z</time>
      </trkpt>
      <trkpt lat="48.19597" lon="-3.57677">
        <ele>133</ele>
        <time>2021-08-11T10:12:14Z</time>
      </trkpt>
      <trkpt lat="48.19597" lon="-3.57674">
        <ele>133</ele>
        <time>2021-08-11T10:12:15Z</time>
      </trkpt>
      <trkpt lat="48.19597" lon="-3.57672">
        <ele>133</ele>
        <time>2021-08-11T10:12:16Z</time>
      </trkpt>
      <trkpt lat="48.19596" lon="-3.5767">
        <ele>133</ele>
        <time>2021-08-11T10:12:17Z</time>
      </trkpt>
      <trkpt lat="48.19597" lon="-3.57667">
        <ele>133</ele>
        <time>2021-08-11T10:12:18Z</time>
      </trkpt>
      <trkpt lat="48.19596" lon="-3.57663">
        <ele>133</ele>
        <time>2021-08-11T10:12:19Z</time>
      </trkpt>
      <trkpt lat="48.19596" lon="-3.5766">
        <ele>133</ele>
        <time>2021-08-11T10:12:20Z</time>
      </trkpt>
      <trkpt lat="48.19596" lon="-3.57658">
        <ele>133</ele>
        <time>2021-08-11T10:12:21Z</time>
      </trkpt>
      <trkpt lat="48.19595" lon="-3.57653">
        <ele>133</ele>
        <time>2021-08-11T10:12:22Z</time>
      </trkpt>
      <trkpt lat="48.19594" lon="-3.57649">
        <ele>133</ele>
        <time>2021-08-11T10:12:23Z</time>
      </trkpt>
      <trkpt lat="48.19594" lon="-3.57646">
        <ele>133</ele>
        <time>2021-08-11T10:12:24Z</time>
      </trkpt>
      <trkpt lat="48.19593" lon="-3.57643">
        <ele>133</ele>
        <time>2021-08-11T10:12:25Z</time>
      </trkpt>
      <trkpt lat="48.19592" lon="-3.57639">
        <ele>133</ele>
        <time>2021-08-11T10:12:26Z</time>
      </trkpt>
      <trkpt lat="48.19592" lon="-3.57636">
        <ele>133</ele>
        <time>2021-08-11T10:12:27Z</time>
      </trkpt>
      <trkpt lat="48.19591" lon="-3.57633">
        <ele>133</ele>
        <time>2021-08-11T10:12:28Z</time>
      </trkpt>
      <trkpt lat="48.1959" lon="-3.57631">
        <ele>133</ele>
        <time>2021-08-11T10:12:29Z</time>
      </trkpt>
      <trkpt lat="48.19589" lon="-3.57627">
        <ele>133</ele>
        <time>2021-08-11T10:12:30Z</time>
      </trkpt>
      <trkpt lat="48.19588" lon="-3.57624">
        <ele>133</ele>
        <time>2021-08-11T10:12:31Z</time>
      </trkpt>
      <trkpt lat="48.19587" lon="-3.57622">
        <ele>133</ele>
        <time>2021-08-11T10:12:32Z</time>
      </trkpt>
      <trkpt lat="48.19586" lon="-3.57618">
        <ele>133</ele>
        <time>2021-08-11T10:12:33Z</time>
      </trkpt>
      <trkpt lat="48.19585" lon="-3.57615">
        <ele>133</ele>
        <time>2021-08-11T10:12:34Z</time>
      </trkpt>
      <trkpt lat="48.19584" lon="-3.57611">
        <ele>133.2</ele>
        <time>2021-08-11T10:12:35Z</time>
      </trkpt>
      <trkpt lat="48.19583" lon="-3.57606">
        <ele>133.2</ele>
        <time>2021-08-11T10:12:36Z</time>
      </trkpt>
      <trkpt lat="48.19581" lon="-3.57603">
        <ele>133.2</ele>
        <time>2021-08-11T10:12:37Z</time>
      </trkpt>
      <trkpt lat="48.1958" lon="-3.576">
        <ele>133.2</ele>
        <time>2021-08-11T10:12:38Z</time>
      </trkpt>
      <trkpt lat="48.19579" lon="-3.57596">
        <ele>133.2</ele>
        <time>2021-08-11T10:12:39Z</time>
      </trkpt>
      <trkpt lat="48.19578" lon="-3.57594">
        <ele>133.2</ele>
        <time>2021-08-11T10:12:40Z</time>
      </trkpt>
      <trkpt lat="48.19577" lon="-3.57591">
        <ele>133.4</ele>
        <time>2021-08-11T10:12:41Z</time>
      </trkpt>
      <trkpt lat="48.19577" lon="-3.57589">
        <ele>133.4</ele>
        <time>2021-08-11T10:12:42Z</time>
      </trkpt>
      <trkpt lat="48.19576" lon="-3.57585">
        <ele>133.6</ele>
        <time>2021-08-11T10:12:43Z</time>
      </trkpt>
      <trkpt lat="48.19574" lon="-3.5758">
        <ele>133.6</ele>
        <time>2021-08-11T10:12:44Z</time>
      </trkpt>
      <trkpt lat="48.19573" lon="-3.57576">
        <ele>133.8</ele>
        <time>2021-08-11T10:12:45Z</time>
      </trkpt>
      <trkpt lat="48.19571" lon="-3.57571">
        <ele>133.8</ele>
        <time>2021-08-11T10:12:46Z</time>
      </trkpt>
      <trkpt lat="48.1957" lon="-3.57567">
        <ele>133.8</ele>
        <time>2021-08-11T10:12:47Z</time>
      </trkpt>
      <trkpt lat="48.19568" lon="-3.57561">
        <ele>134</ele>
        <time>2021-08-11T10:12:48Z</time>
      </trkpt>
      <trkpt lat="48.19566" lon="-3.57556">
        <ele>134</ele>
        <time>2021-08-11T10:12:49Z</time>
      </trkpt>
      <trkpt lat="48.19563" lon="-3.57549">
        <ele>134</ele>
        <time>2021-08-11T10:12:50Z</time>
      </trkpt>
      <trkpt lat="48.19561" lon="-3.57545">
        <ele>134.2</ele>
        <time>2021-08-11T10:12:51Z</time>
      </trkpt>
      <trkpt lat="48.19559" lon="-3.5754">
        <ele>134.2</ele>
        <time>2021-08-11T10:12:52Z</time>
      </trkpt>
      <trkpt lat="48.19557" lon="-3.57535">
        <ele>134.4</ele>
        <time>2021-08-11T10:12:53Z</time>
      </trkpt>
      <trkpt lat="48.19555" lon="-3.5753">
        <ele>134.6</ele>
        <time>2021-08-11T10:12:54Z</time>
      </trkpt>
      <trkpt lat="48.19552" lon="-3.57525">
        <ele>134.6</ele>
        <time>2021-08-11T10:12:55Z</time>
      </trkpt>
      <trkpt lat="48.1955" lon="-3.5752">
        <ele>134.6</ele>
        <time>2021-08-11T10:12:56Z</time>
      </trkpt>
      <trkpt lat="48.19548" lon="-3.57515">
        <ele>134.8</ele>
        <time>2021-08-11T10:12:57Z</time>
      </trkpt>
      <trkpt lat="48.19546" lon="-3.5751">
        <ele>134.8</ele>
        <time>2021-08-11T10:12:58Z</time>
      </trkpt>
      <trkpt lat="48.19544" lon="-3.57505">
        <ele>134.8</ele>
        <time>2021-08-11T10:12:59Z</time>
      </trkpt>
      <trkpt lat="48.19542" lon="-3.575">
        <ele>134.8</ele>
        <time>2021-08-11T10:13:00Z</time>
      </trkpt>
      <trkpt lat="48.1954" lon="-3.57495">
        <ele>135</ele>
        <time>2021-08-11T10:13:01Z</time>
      </trkpt>
      <trkpt lat="48.19537" lon="-3.5749">
        <ele>135</ele>
        <time>2021-08-11T10:13:02Z</time>
      </trkpt>
      <trkpt lat="48.19535" lon="-3.57486">
        <ele>135</ele>
        <time>2021-08-11T10:13:03Z</time>
      </trkpt>
      <trkpt lat="48.19533" lon="-3.57481">
        <ele>135</ele>
        <time>2021-08-11T10:13:04Z</time>
      </trkpt>
      <trkpt lat="48.19531" lon="-3.57475">
        <ele>135</ele>
        <time>2021-08-11T10:13:05Z</time>
      </trkpt>
      <trkpt lat="48.19529" lon="-3.57471">
        <ele>135.2</ele>
        <time>2021-08-11T10:13:06Z</time>
      </trkpt>
      <trkpt lat="48.19527" lon="-3.57465">
        <ele>135.2</ele>
        <time>2021-08-11T10:13:07Z</time>
      </trkpt>
      <trkpt lat="48.19525" lon="-3.5746">
        <ele>135.2</ele>
        <time>2021-08-11T10:13:08Z</time>
      </trkpt>
      <trkpt lat="48.19523" lon="-3.57455">
        <ele>135.2</ele>
        <time>2021-08-11T10:13:09Z</time>
      </trkpt>
      <trkpt lat="48.19522" lon="-3.5745">
        <ele>135.2</ele>
        <time>2021-08-11T10:13:10Z</time>
      </trkpt>
      <trkpt lat="48.1952" lon="-3.57445">
        <ele>135.2</ele>
        <time>2021-08-11T10:13:11Z</time>
      </trkpt>
      <trkpt lat="48.19519" lon="-3.5744">
        <ele>135.2</ele>
        <time>2021-08-11T10:13:12Z</time>
      </trkpt>
      <trkpt lat="48.19518" lon="-3.57435">
        <ele>135.2</ele>
        <time>2021-08-11T10:13:13Z</time>
      </trkpt>
      <trkpt lat="48.19516" lon="-3.57429">
        <ele>135.4</ele>
        <time>2021-08-11T10:13:14Z</time>
      </trkpt>
      <trkpt lat="48.19514" lon="-3.57425">
        <ele>135.4</ele>
        <time>2021-08-11T10:13:15Z</time>
      </trkpt>
      <trkpt lat="48.19513" lon="-3.5742">
        <ele>135.4</ele>
        <time>2021-08-11T10:13:16Z</time>
      </trkpt>
      <trkpt lat="48.19511" lon="-3.57415">
        <ele>135.4</ele>
        <time>2021-08-11T10:13:17Z</time>
      </trkpt>
      <trkpt lat="48.1951" lon="-3.5741">
        <ele>135.6</ele>
        <time>2021-08-11T10:13:18Z</time>
      </trkpt>
      <trkpt lat="48.1951" lon="-3.57405">
        <ele>135.6</ele>
        <time>2021-08-11T10:13:19Z</time>
      </trkpt>
      <trkpt lat="48.19509" lon="-3.574">
        <ele>135.8</ele>
        <time>2021-08-11T10:13:20Z</time>
      </trkpt>
      <trkpt lat="48.19508" lon="-3.57395">
        <ele>135.8</ele>
        <time>2021-08-11T10:13:21Z</time>
      </trkpt>
      <trkpt lat="48.19506" lon="-3.5739">
        <ele>136</ele>
        <time>2021-08-11T10:13:22Z</time>
      </trkpt>
      <trkpt lat="48.19505" lon="-3.57385">
        <ele>136</ele>
        <time>2021-08-11T10:13:23Z</time>
      </trkpt>
      <trkpt lat="48.19503" lon="-3.57381">
        <ele>136</ele>
        <time>2021-08-11T10:13:24Z</time>
      </trkpt>
      <trkpt lat="48.19502" lon="-3.57376">
        <ele>136</ele>
        <time>2021-08-11T10:13:25Z</time>
      </trkpt>
      <trkpt lat="48.195" lon="-3.57372">
        <ele>136</ele>
        <time>2021-08-11T10:13:26Z</time>
      </trkpt>
      <trkpt lat="48.19499" lon="-3.57367">
        <ele>136.2</ele>
        <time>2021-08-11T10:13:27Z</time>
      </trkpt>
      <trkpt lat="48.19498" lon="-3.57363">
        <ele>136.2</ele>
        <time>2021-08-11T10:13:28Z</time>
      </trkpt>
      <trkpt lat="48.19496" lon="-3.57358">
        <ele>136.2</ele>
        <time>2021-08-11T10:13:29Z</time>
      </trkpt>
      <trkpt lat="48.19495" lon="-3.57354">
        <ele>136.4</ele>
        <time>2021-08-11T10:13:30Z</time>
      </trkpt>
      <trkpt lat="48.19493" lon="-3.57349">
        <ele>136.4</ele>
        <time>2021-08-11T10:13:31Z</time>
      </trkpt>
      <trkpt lat="48.19491" lon="-3.57344">
        <ele>136.6</ele>
        <time>2021-08-11T10:13:32Z</time>
      </trkpt>
      <trkpt lat="48.19489" lon="-3.57339">
        <ele>136.6</ele>
        <time>2021-08-11T10:13:33Z</time>
      </trkpt>
      <trkpt lat="48.19487" lon="-3.57335">
        <ele>136.8</ele>
        <time>2021-08-11T10:13:34Z</time>
      </trkpt>
      <trkpt lat="48.19486" lon="-3.5733">
        <ele>136.8</ele>
        <time>2021-08-11T10:13:35Z</time>
      </trkpt>
      <trkpt lat="48.19484" lon="-3.57326">
        <ele>136.8</ele>
        <time>2021-08-11T10:13:36Z</time>
      </trkpt>
      <trkpt lat="48.19482" lon="-3.57322">
        <ele>136.8</ele>
        <time>2021-08-11T10:13:37Z</time>
      </trkpt>
      <trkpt lat="48.1948" lon="-3.57317">
        <ele>137</ele>
        <time>2021-08-11T10:13:38Z</time>
      </trkpt>
      <trkpt lat="48.19478" lon="-3.57313">
        <ele>137</ele>
        <time>2021-08-11T10:13:39Z</time>
      </trkpt>
      <trkpt lat="48.19476" lon="-3.57309">
        <ele>137</ele>
        <time>2021-08-11T10:13:40Z</time>
      </trkpt>
      <trkpt lat="48.19474" lon="-3.57305">
        <ele>137.2</ele>
        <time>2021-08-11T10:13:41Z</time>
      </trkpt>
      <trkpt lat="48.19472" lon="-3.57301">
        <ele>137.2</ele>
        <time>2021-08-11T10:13:42Z</time>
      </trkpt>
      <trkpt lat="48.19469" lon="-3.57296">
        <ele>137.2</ele>
        <time>2021-08-11T10:13:43Z</time>
      </trkpt>
      <trkpt lat="48.19467" lon="-3.57292">
        <ele>137.4</ele>
        <time>2021-08-11T10:13:44Z</time>
      </trkpt>
      <trkpt lat="48.19464" lon="-3.57288">
        <ele>137.4</ele>
        <time>2021-08-11T10:13:45Z</time>
      </trkpt>
      <trkpt lat="48.19461" lon="-3.57284">
        <ele>137.4</ele>
        <time>2021-08-11T10:13:46Z</time>
      </trkpt>
      <trkpt lat="48.19459" lon="-3.5728">
        <ele>137.6</ele>
        <time>2021-08-11T10:13:47Z</time>
      </trkpt>
      <trkpt lat="48.19456" lon="-3.57276">
        <ele>137.6</ele>
        <time>2021-08-11T10:13:48Z</time>
      </trkpt>
      <trkpt lat="48.19453" lon="-3.57272">
        <ele>137.8</ele>
        <time>2021-08-11T10:13:49Z</time>
      </trkpt>
      <trkpt lat="48.19451" lon="-3.57268">
        <ele>137.8</ele>
        <time>2021-08-11T10:13:50Z</time>
      </trkpt>
      <trkpt lat="48.19448" lon="-3.57264">
        <ele>137.8</ele>
        <time>2021-08-11T10:13:51Z</time>
      </trkpt>
      <trkpt lat="48.19445" lon="-3.5726">
        <ele>137.8</ele>
        <time>2021-08-11T10:13:52Z</time>
      </trkpt>
      <trkpt lat="48.19443" lon="-3.57256">
        <ele>138</ele>
        <time>2021-08-11T10:13:53Z</time>
      </trkpt>
      <trkpt lat="48.1944" lon="-3.57253">
        <ele>138</ele>
        <time>2021-08-11T10:13:54Z</time>
      </trkpt>
      <trkpt lat="48.19437" lon="-3.5725">
        <ele>138</ele>
        <time>2021-08-11T10:13:55Z</time>
      </trkpt>
      <trkpt lat="48.19434" lon="-3.57247">
        <ele>138</ele>
        <time>2021-08-11T10:13:56Z</time>
      </trkpt>
      <trkpt lat="48.19431" lon="-3.57243">
        <ele>138</ele>
        <time>2021-08-11T10:13:57Z</time>
      </trkpt>
      <trkpt lat="48.19429" lon="-3.5724">
        <ele>138</ele>
        <time>2021-08-11T10:13:58Z</time>
      </trkpt>
      <trkpt lat="48.19426" lon="-3.57236">
        <ele>138.2</ele>
        <time>2021-08-11T10:13:59Z</time>
      </trkpt>
      <trkpt lat="48.19423" lon="-3.57233">
        <ele>138.2</ele>
        <time>2021-08-11T10:14:00Z</time>
      </trkpt>
      <trkpt lat="48.1942" lon="-3.5723">
        <ele>138.2</ele>
        <time>2021-08-11T10:14:01Z</time>
      </trkpt>
      <trkpt lat="48.19417" lon="-3.57227">
        <ele>138.2</ele>
        <time>2021-08-11T10:14:02Z</time>
      </trkpt>
      <trkpt lat="48.19414" lon="-3.57223">
        <ele>138.4</ele>
        <time>2021-08-11T10:14:03Z</time>
      </trkpt>
      <trkpt lat="48.19411" lon="-3.5722">
        <ele>138.6</ele>
        <time>2021-08-11T10:14:04Z</time>
      </trkpt>
      <trkpt lat="48.19408" lon="-3.57217">
        <ele>138.8</ele>
        <time>2021-08-11T10:14:05Z</time>
      </trkpt>
      <trkpt lat="48.19405" lon="-3.57214">
        <ele>138.6</ele>
        <time>2021-08-11T10:14:06Z</time>
      </trkpt>
      <trkpt lat="48.19402" lon="-3.5721">
        <ele>138.8</ele>
        <time>2021-08-11T10:14:07Z</time>
      </trkpt>
      <trkpt lat="48.19399" lon="-3.57207">
        <ele>139</ele>
        <time>2021-08-11T10:14:08Z</time>
      </trkpt>
      <trkpt lat="48.19396" lon="-3.57204">
        <ele>139</ele>
        <time>2021-08-11T10:14:09Z</time>
      </trkpt>
      <trkpt lat="48.19393" lon="-3.57201">
        <ele>139</ele>
        <time>2021-08-11T10:14:10Z</time>
      </trkpt>
      <trkpt lat="48.1939" lon="-3.57198">
        <ele>139</ele>
        <time>2021-08-11T10:14:11Z</time>
      </trkpt>
      <trkpt lat="48.19387" lon="-3.57195">
        <ele>138.8</ele>
        <time>2021-08-11T10:14:12Z</time>
      </trkpt>
      <trkpt lat="48.19385" lon="-3.57192">
        <ele>138.8</ele>
        <time>2021-08-11T10:14:13Z</time>
      </trkpt>
      <trkpt lat="48.19382" lon="-3.5719">
        <ele>139.2</ele>
        <time>2021-08-11T10:14:14Z</time>
      </trkpt>
      <trkpt lat="48.19379" lon="-3.57188">
        <ele>139.2</ele>
        <time>2021-08-11T10:14:15Z</time>
      </trkpt>
      <trkpt lat="48.19377" lon="-3.57185">
        <ele>139</ele>
        <time>2021-08-11T10:14:16Z</time>
      </trkpt>
      <trkpt lat="48.19374" lon="-3.57183">
        <ele>139</ele>
        <time>2021-08-11T10:14:17Z</time>
      </trkpt>
      <trkpt lat="48.19372" lon="-3.57181">
        <ele>139.2</ele>
        <time>2021-08-11T10:14:18Z</time>
      </trkpt>
      <trkpt lat="48.19369" lon="-3.57179">
        <ele>139.2</ele>
        <time>2021-08-11T10:14:19Z</time>
      </trkpt>
      <trkpt lat="48.19367" lon="-3.57177">
        <ele>139.2</ele>
        <time>2021-08-11T10:14:20Z</time>
      </trkpt>
      <trkpt lat="48.19364" lon="-3.57175">
        <ele>139.2</ele>
        <time>2021-08-11T10:14:21Z</time>
      </trkpt>
      <trkpt lat="48.19361" lon="-3.57173">
        <ele>139.4</ele>
        <time>2021-08-11T10:14:22Z</time>
      </trkpt>
      <trkpt lat="48.19358" lon="-3.57171">
        <ele>139.4</ele>
        <time>2021-08-11T10:14:23Z</time>
      </trkpt>
      <trkpt lat="48.19355" lon="-3.57169">
        <ele>139.6</ele>
        <time>2021-08-11T10:14:24Z</time>
      </trkpt>
      <trkpt lat="48.19352" lon="-3.57166">
        <ele>139.6</ele>
        <time>2021-08-11T10:14:25Z</time>
      </trkpt>
      <trkpt lat="48.19348" lon="-3.57164">
        <ele>139.8</ele>
        <time>2021-08-11T10:14:26Z</time>
      </trkpt>
      <trkpt lat="48.19345" lon="-3.57162">
        <ele>139.8</ele>
        <time>2021-08-11T10:14:27Z</time>
      </trkpt>
      <trkpt lat="48.19341" lon="-3.5716">
        <ele>139.8</ele>
        <time>2021-08-11T10:14:28Z</time>
      </trkpt>
      <trkpt lat="48.19337" lon="-3.57157">
        <ele>139.8</ele>
        <time>2021-08-11T10:14:29Z</time>
      </trkpt>
      <trkpt lat="48.19333" lon="-3.57156">
        <ele>139.8</ele>
        <time>2021-08-11T10:14:30Z</time>
      </trkpt>
      <trkpt lat="48.1933" lon="-3.57155">
        <ele>140</ele>
        <time>2021-08-11T10:14:31Z</time>
      </trkpt>
      <trkpt lat="48.19327" lon="-3.57154">
        <ele>140</ele>
        <time>2021-08-11T10:14:32Z</time>
      </trkpt>
      <trkpt lat="48.19323" lon="-3.57152">
        <ele>140</ele>
        <time>2021-08-11T10:14:33Z</time>
      </trkpt>
      <trkpt lat="48.1932" lon="-3.5715">
        <ele>140</ele>
        <time>2021-08-11T10:14:34Z</time>
      </trkpt>
      <trkpt lat="48.19316" lon="-3.57148">
        <ele>140.2</ele>
        <time>2021-08-11T10:14:35Z</time>
      </trkpt>
      <trkpt lat="48.19312" lon="-3.57147">
        <ele>140.2</ele>
        <time>2021-08-11T10:14:36Z</time>
      </trkpt>
      <trkpt lat="48.19308" lon="-3.57146">
        <ele>140.2</ele>
        <time>2021-08-11T10:14:37Z</time>
      </trkpt>
      <trkpt lat="48.19304" lon="-3.57144">
        <ele>140.2</ele>
        <time>2021-08-11T10:14:38Z</time>
      </trkpt>
      <trkpt lat="48.193" lon="-3.57143">
        <ele>140.2</ele>
        <time>2021-08-11T10:14:39Z</time>
      </trkpt>
      <trkpt lat="48.19296" lon="-3.57142">
        <ele>140.2</ele>
        <time>2021-08-11T10:14:40Z</time>
      </trkpt>
      <trkpt lat="48.19292" lon="-3.5714">
        <ele>140.2</ele>
        <time>2021-08-11T10:14:41Z</time>
      </trkpt>
      <trkpt lat="48.19289" lon="-3.57138">
        <ele>140.4</ele>
        <time>2021-08-11T10:14:42Z</time>
      </trkpt>
      <trkpt lat="48.19286" lon="-3.57136">
        <ele>140.4</ele>
        <time>2021-08-11T10:14:43Z</time>
      </trkpt>
      <trkpt lat="48.19283" lon="-3.57134">
        <ele>140.4</ele>
        <time>2021-08-11T10:14:44Z</time>
      </trkpt>
      <trkpt lat="48.1928" lon="-3.57133">
        <ele>140.4</ele>
        <time>2021-08-11T10:14:45Z</time>
      </trkpt>
      <trkpt lat="48.19277" lon="-3.57131">
        <ele>140.4</ele>
        <time>2021-08-11T10:14:46Z</time>
      </trkpt>
      <trkpt lat="48.19274" lon="-3.5713">
        <ele>140.4</ele>
        <time>2021-08-11T10:14:47Z</time>
      </trkpt>
      <trkpt lat="48.1927" lon="-3.57128">
        <ele>140.4</ele>
        <time>2021-08-11T10:14:48Z</time>
      </trkpt>
      <trkpt lat="48.19267" lon="-3.57125">
        <ele>140.4</ele>
        <time>2021-08-11T10:14:49Z</time>
      </trkpt>
      <trkpt lat="48.19263" lon="-3.57123">
        <ele>140.6</ele>
        <time>2021-08-11T10:14:50Z</time>
      </trkpt>
      <trkpt lat="48.1926" lon="-3.5712">
        <ele>140.6</ele>
        <time>2021-08-11T10:14:51Z</time>
      </trkpt>
      <trkpt lat="48.19256" lon="-3.57118">
        <ele>140.6</ele>
        <time>2021-08-11T10:14:52Z</time>
      </trkpt>
      <trkpt lat="48.19253" lon="-3.57115">
        <ele>140.6</ele>
        <time>2021-08-11T10:14:53Z</time>
      </trkpt>
      <trkpt lat="48.1925" lon="-3.5711">
        <ele>140.6</ele>
        <time>2021-08-11T10:14:54Z</time>
      </trkpt>
      <trkpt lat="48.19247" lon="-3.57105">
        <ele>140.6</ele>
        <time>2021-08-11T10:14:55Z</time>
      </trkpt>
      <trkpt lat="48.19244" lon="-3.571">
        <ele>140.6</ele>
        <time>2021-08-11T10:14:56Z</time>
      </trkpt>
      <trkpt lat="48.1924" lon="-3.57096">
        <ele>140.6</ele>
        <time>2021-08-11T10:14:57Z</time>
      </trkpt>
      <trkpt lat="48.19237" lon="-3.57092">
        <ele>140.6</ele>
        <time>2021-08-11T10:14:58Z</time>
      </trkpt>
      <trkpt lat="48.19233" lon="-3.57088">
        <ele>140.6</ele>
        <time>2021-08-11T10:14:59Z</time>
      </trkpt>
      <trkpt lat="48.19229" lon="-3.57084">
        <ele>140.8</ele>
        <time>2021-08-11T10:15:00Z</time>
      </trkpt>
      <trkpt lat="48.19226" lon="-3.57081">
        <ele>140.8</ele>
        <time>2021-08-11T10:15:01Z</time>
      </trkpt>
      <trkpt lat="48.19222" lon="-3.57077">
        <ele>140.8</ele>
        <time>2021-08-11T10:15:02Z</time>
      </trkpt>
      <trkpt lat="48.19219" lon="-3.57073">
        <ele>140.8</ele>
        <time>2021-08-11T10:15:03Z</time>
      </trkpt>
      <trkpt lat="48.19216" lon="-3.57069">
        <ele>140.8</ele>
        <time>2021-08-11T10:15:04Z</time>
      </trkpt>
      <trkpt lat="48.19213" lon="-3.57065">
        <ele>140.8</ele>
        <time>2021-08-11T10:15:05Z</time>
      </trkpt>
      <trkpt lat="48.1921" lon="-3.57061">
        <ele>140.8</ele>
        <time>2021-08-11T10:15:06Z</time>
      </trkpt>
      <trkpt lat="48.19207" lon="-3.57057">
        <ele>140.8</ele>
        <time>2021-08-11T10:15:07Z</time>
      </trkpt>
      <trkpt lat="48.19204" lon="-3.57053">
        <ele>140.8</ele>
        <time>2021-08-11T10:15:08Z</time>
      </trkpt>
      <trkpt lat="48.19201" lon="-3.57049">
        <ele>140.8</ele>
        <time>2021-08-11T10:15:09Z</time>
      </trkpt>
      <trkpt lat="48.19197" lon="-3.57045">
        <ele>140.8</ele>
        <time>2021-08-11T10:15:10Z</time>
      </trkpt>
      <trkpt lat="48.19194" lon="-3.57041">
        <ele>140.8</ele>
        <time>2021-08-11T10:15:11Z</time>
      </trkpt>
      <trkpt lat="48.19191" lon="-3.57037">
        <ele>140.8</ele>
        <time>2021-08-11T10:15:12Z</time>
      </trkpt>
      <trkpt lat="48.19188" lon="-3.57034">
        <ele>140.8</ele>
        <time>2021-08-11T10:15:13Z</time>
      </trkpt>
      <trkpt lat="48.19185" lon="-3.5703">
        <ele>140.8</ele>
        <time>2021-08-11T10:15:14Z</time>
      </trkpt>
      <trkpt lat="48.19182" lon="-3.57026">
        <ele>140.8</ele>
        <time>2021-08-11T10:15:15Z</time>
      </trkpt>
      <trkpt lat="48.19179" lon="-3.57023">
        <ele>140.8</ele>
        <time>2021-08-11T10:15:16Z</time>
      </trkpt>
      <trkpt lat="48.19176" lon="-3.5702">
        <ele>140.8</ele>
        <time>2021-08-11T10:15:17Z</time>
      </trkpt>
      <trkpt lat="48.19172" lon="-3.57017">
        <ele>140.8</ele>
        <time>2021-08-11T10:15:18Z</time>
      </trkpt>
      <trkpt lat="48.1917" lon="-3.57014">
        <ele>140.8</ele>
        <time>2021-08-11T10:15:19Z</time>
      </trkpt>
      <trkpt lat="48.19167" lon="-3.5701">
        <ele>140.8</ele>
        <time>2021-08-11T10:15:20Z</time>
      </trkpt>
      <trkpt lat="48.19165" lon="-3.57007">
        <ele>140.8</ele>
        <time>2021-08-11T10:15:21Z</time>
      </trkpt>
      <trkpt lat="48.19162" lon="-3.57004">
        <ele>141</ele>
        <time>2021-08-11T10:15:22Z</time>
      </trkpt>
      <trkpt lat="48.19159" lon="-3.57">
        <ele>141</ele>
        <time>2021-08-11T10:15:23Z</time>
      </trkpt>
      <trkpt lat="48.19156" lon="-3.56996">
        <ele>141</ele>
        <time>2021-08-11T10:15:24Z</time>
      </trkpt>
      <trkpt lat="48.19153" lon="-3.56993">
        <ele>141</ele>
        <time>2021-08-11T10:15:25Z</time>
      </trkpt>
      <trkpt lat="48.1915" lon="-3.56989">
        <ele>141</ele>
        <time>2021-08-11T10:15:26Z</time>
      </trkpt>
      <trkpt lat="48.19147" lon="-3.56986">
        <ele>141</ele>
        <time>2021-08-11T10:15:27Z</time>
      </trkpt>
      <trkpt lat="48.19144" lon="-3.56983">
        <ele>141.2</ele>
        <time>2021-08-11T10:15:28Z</time>
      </trkpt>
      <trkpt lat="48.19141" lon="-3.5698">
        <ele>141.2</ele>
        <time>2021-08-11T10:15:29Z</time>
      </trkpt>
      <trkpt lat="48.19138" lon="-3.56976">
        <ele>141.2</ele>
        <time>2021-08-11T10:15:30Z</time>
      </trkpt>
      <trkpt lat="48.19135" lon="-3.56973">
        <ele>141.2</ele>
        <time>2021-08-11T10:15:31Z</time>
      </trkpt>
      <trkpt lat="48.19131" lon="-3.5697">
        <ele>141.2</ele>
        <time>2021-08-11T10:15:32Z</time>
      </trkpt>
      <trkpt lat="48.19128" lon="-3.56967">
        <ele>141.2</ele>
        <time>2021-08-11T10:15:33Z</time>
      </trkpt>
      <trkpt lat="48.19125" lon="-3.56963">
        <ele>141.2</ele>
        <time>2021-08-11T10:15:34Z</time>
      </trkpt>
      <trkpt lat="48.19123" lon="-3.5696">
        <ele>141.2</ele>
        <time>2021-08-11T10:15:35Z</time>
      </trkpt>
      <trkpt lat="48.19121" lon="-3.56958">
        <ele>141.4</ele>
        <time>2021-08-11T10:15:36Z</time>
      </trkpt>
      <trkpt lat="48.19119" lon="-3.56955">
        <ele>141.4</ele>
        <time>2021-08-11T10:15:37Z</time>
      </trkpt>
      <trkpt lat="48.19117" lon="-3.56953">
        <ele>141.4</ele>
        <time>2021-08-11T10:15:38Z</time>
      </trkpt>
      <trkpt lat="48.19115" lon="-3.5695">
        <ele>141.4</ele>
        <time>2021-08-11T10:15:39Z</time>
      </trkpt>
      <trkpt lat="48.19113" lon="-3.56948">
        <ele>141.4</ele>
        <time>2021-08-11T10:15:40Z</time>
      </trkpt>
      <trkpt lat="48.19111" lon="-3.56945">
        <ele>141.4</ele>
        <time>2021-08-11T10:15:41Z</time>
      </trkpt>
      <trkpt lat="48.19108" lon="-3.56943">
        <ele>141.4</ele>
        <time>2021-08-11T10:15:42Z</time>
      </trkpt>
      <trkpt lat="48.19106" lon="-3.56941">
        <ele>141.4</ele>
        <time>2021-08-11T10:15:43Z</time>
      </trkpt>
      <trkpt lat="48.19103" lon="-3.56938">
        <ele>141.4</ele>
        <time>2021-08-11T10:15:44Z</time>
      </trkpt>
      <trkpt lat="48.19099" lon="-3.56936">
        <ele>141.4</ele>
        <time>2021-08-11T10:15:45Z</time>
      </trkpt>
      <trkpt lat="48.19096" lon="-3.56934">
        <ele>141.4</ele>
        <time>2021-08-11T10:15:46Z</time>
      </trkpt>
      <trkpt lat="48.19092" lon="-3.56932">
        <ele>141.2</ele>
        <time>2021-08-11T10:15:47Z</time>
      </trkpt>
      <trkpt lat="48.19089" lon="-3.56929">
        <ele>141</ele>
        <time>2021-08-11T10:15:48Z</time>
      </trkpt>
      <trkpt lat="48.19085" lon="-3.56927">
        <ele>141</ele>
        <time>2021-08-11T10:15:49Z</time>
      </trkpt>
      <trkpt lat="48.19082" lon="-3.56925">
        <ele>141</ele>
        <time>2021-08-11T10:15:50Z</time>
      </trkpt>
      <trkpt lat="48.19078" lon="-3.56921">
        <ele>141</ele>
        <time>2021-08-11T10:15:51Z</time>
      </trkpt>
      <trkpt lat="48.19075" lon="-3.56917">
        <ele>141</ele>
        <time>2021-08-11T10:15:52Z</time>
      </trkpt>
      <trkpt lat="48.19071" lon="-3.56914">
        <ele>141</ele>
        <time>2021-08-11T10:15:53Z</time>
      </trkpt>
      <trkpt lat="48.19068" lon="-3.5691">
        <ele>141</ele>
        <time>2021-08-11T10:15:54Z</time>
      </trkpt>
      <trkpt lat="48.19065" lon="-3.56906">
        <ele>141</ele>
        <time>2021-08-11T10:15:55Z</time>
      </trkpt>
      <trkpt lat="48.19061" lon="-3.56902">
        <ele>141</ele>
        <time>2021-08-11T10:15:56Z</time>
      </trkpt>
      <trkpt lat="48.19058" lon="-3.56899">
        <ele>141</ele>
        <time>2021-08-11T10:15:57Z</time>
      </trkpt>
      <trkpt lat="48.19054" lon="-3.56896">
        <ele>141</ele>
        <time>2021-08-11T10:15:58Z</time>
      </trkpt>
      <trkpt lat="48.1905" lon="-3.56892">
        <ele>141</ele>
        <time>2021-08-11T10:15:59Z</time>
      </trkpt>
      <trkpt lat="48.19047" lon="-3.56888">
        <ele>141</ele>
        <time>2021-08-11T10:16:00Z</time>
      </trkpt>
      <trkpt lat="48.19043" lon="-3.56884">
        <ele>141</ele>
        <time>2021-08-11T10:16:01Z</time>
      </trkpt>
      <trkpt lat="48.19039" lon="-3.56881">
        <ele>141</ele>
        <time>2021-08-11T10:16:02Z</time>
      </trkpt>
      <trkpt lat="48.19035" lon="-3.56877">
        <ele>141</ele>
        <time>2021-08-11T10:16:03Z</time>
      </trkpt>
      <trkpt lat="48.19031" lon="-3.56875">
        <ele>141</ele>
        <time>2021-08-11T10:16:04Z</time>
      </trkpt>
      <trkpt lat="48.19027" lon="-3.56872">
        <ele>141</ele>
        <time>2021-08-11T10:16:05Z</time>
      </trkpt>
      <trkpt lat="48.19023" lon="-3.56869">
        <ele>141.2</ele>
        <time>2021-08-11T10:16:06Z</time>
      </trkpt>
      <trkpt lat="48.19019" lon="-3.56867">
        <ele>141.2</ele>
        <time>2021-08-11T10:16:07Z</time>
      </trkpt>
      <trkpt lat="48.19015" lon="-3.56864">
        <ele>141.2</ele>
        <time>2021-08-11T10:16:08Z</time>
      </trkpt>
      <trkpt lat="48.19011" lon="-3.56862">
        <ele>141.4</ele>
        <time>2021-08-11T10:16:09Z</time>
      </trkpt>
      <trkpt lat="48.19007" lon="-3.56861">
        <ele>141.4</ele>
        <time>2021-08-11T10:16:10Z</time>
      </trkpt>
      <trkpt lat="48.19003" lon="-3.56859">
        <ele>141.6</ele>
        <time>2021-08-11T10:16:11Z</time>
      </trkpt>
      <trkpt lat="48.18999" lon="-3.56857">
        <ele>141.6</ele>
        <time>2021-08-11T10:16:12Z</time>
      </trkpt>
      <trkpt lat="48.18994" lon="-3.56856">
        <ele>141.6</ele>
        <time>2021-08-11T10:16:13Z</time>
      </trkpt>
      <trkpt lat="48.1899" lon="-3.56853">
        <ele>141.8</ele>
        <time>2021-08-11T10:16:14Z</time>
      </trkpt>
      <trkpt lat="48.18986" lon="-3.56851">
        <ele>141.8</ele>
        <time>2021-08-11T10:16:15Z</time>
      </trkpt>
      <trkpt lat="48.18982" lon="-3.56849">
        <ele>141.8</ele>
        <time>2021-08-11T10:16:16Z</time>
      </trkpt>
      <trkpt lat="48.18978" lon="-3.56849">
        <ele>141.8</ele>
        <time>2021-08-11T10:16:17Z</time>
      </trkpt>
      <trkpt lat="48.18974" lon="-3.56848">
        <ele>141.8</ele>
        <time>2021-08-11T10:16:18Z</time>
      </trkpt>
      <trkpt lat="48.1897" lon="-3.56847">
        <ele>141.8</ele>
        <time>2021-08-11T10:16:19Z</time>
      </trkpt>
      <trkpt lat="48.18967" lon="-3.56845">
        <ele>141.8</ele>
        <time>2021-08-11T10:16:20Z</time>
      </trkpt>
      <trkpt lat="48.18964" lon="-3.56845">
        <ele>141.8</ele>
        <time>2021-08-11T10:16:21Z</time>
      </trkpt>
      <trkpt lat="48.1896" lon="-3.56845">
        <ele>141.8</ele>
        <time>2021-08-11T10:16:22Z</time>
      </trkpt>
      <trkpt lat="48.18957" lon="-3.56845">
        <ele>141.8</ele>
        <time>2021-08-11T10:16:23Z</time>
      </trkpt>
      <trkpt lat="48.18953" lon="-3.56844">
        <ele>141.8</ele>
        <time>2021-08-11T10:16:24Z</time>
      </trkpt>
      <trkpt lat="48.18949" lon="-3.56844">
        <ele>142</ele>
        <time>2021-08-11T10:16:25Z</time>
      </trkpt>
      <trkpt lat="48.18945" lon="-3.56844">
        <ele>142.2</ele>
        <time>2021-08-11T10:16:26Z</time>
      </trkpt>
      <trkpt lat="48.18942" lon="-3.56843">
        <ele>142.2</ele>
        <time>2021-08-11T10:16:27Z</time>
      </trkpt>
      <trkpt lat="48.18938" lon="-3.56843">
        <ele>142.4</ele>
        <time>2021-08-11T10:16:28Z</time>
      </trkpt>
      <trkpt lat="48.18934" lon="-3.56844">
        <ele>142.4</ele>
        <time>2021-08-11T10:16:29Z</time>
      </trkpt>
      <trkpt lat="48.1893" lon="-3.56845">
        <ele>142.6</ele>
        <time>2021-08-11T10:16:30Z</time>
      </trkpt>
      <trkpt lat="48.18927" lon="-3.56845">
        <ele>143</ele>
        <time>2021-08-11T10:16:31Z</time>
      </trkpt>
      <trkpt lat="48.18923" lon="-3.56846">
        <ele>143.2</ele>
        <time>2021-08-11T10:16:32Z</time>
      </trkpt>
      <trkpt lat="48.18919" lon="-3.56847">
        <ele>143.4</ele>
        <time>2021-08-11T10:16:33Z</time>
      </trkpt>
      <trkpt lat="48.18915" lon="-3.56848">
        <ele>143.4</ele>
        <time>2021-08-11T10:16:34Z</time>
      </trkpt>
      <trkpt lat="48.18912" lon="-3.56848">
        <ele>143.6</ele>
        <time>2021-08-11T10:16:35Z</time>
      </trkpt>
      <trkpt lat="48.18908" lon="-3.56849">
        <ele>143.6</ele>
        <time>2021-08-11T10:16:36Z</time>
      </trkpt>
      <trkpt lat="48.18905" lon="-3.56849">
        <ele>143.6</ele>
        <time>2021-08-11T10:16:37Z</time>
      </trkpt>
      <trkpt lat="48.18902" lon="-3.56849">
        <ele>143.8</ele>
        <time>2021-08-11T10:16:38Z</time>
      </trkpt>
      <trkpt lat="48.18898" lon="-3.56849">
        <ele>143.8</ele>
        <time>2021-08-11T10:16:39Z</time>
      </trkpt>
      <trkpt lat="48.18895" lon="-3.56848">
        <ele>143.8</ele>
        <time>2021-08-11T10:16:40Z</time>
      </trkpt>
      <trkpt lat="48.18892" lon="-3.56849">
        <ele>143.8</ele>
        <time>2021-08-11T10:16:41Z</time>
      </trkpt>
      <trkpt lat="48.18888" lon="-3.56849">
        <ele>143.8</ele>
        <time>2021-08-11T10:16:42Z</time>
      </trkpt>
      <trkpt lat="48.18885" lon="-3.5685">
        <ele>143.8</ele>
        <time>2021-08-11T10:16:43Z</time>
      </trkpt>
      <trkpt lat="48.18881" lon="-3.5685">
        <ele>144</ele>
        <time>2021-08-11T10:16:44Z</time>
      </trkpt>
      <trkpt lat="48.18878" lon="-3.5685">
        <ele>144</ele>
        <time>2021-08-11T10:16:45Z</time>
      </trkpt>
      <trkpt lat="48.18874" lon="-3.5685">
        <ele>144</ele>
        <time>2021-08-11T10:16:46Z</time>
      </trkpt>
      <trkpt lat="48.18871" lon="-3.56851">
        <ele>144.2</ele>
        <time>2021-08-11T10:16:47Z</time>
      </trkpt>
      <trkpt lat="48.18868" lon="-3.56851">
        <ele>144.2</ele>
        <time>2021-08-11T10:16:48Z</time>
      </trkpt>
      <trkpt lat="48.18864" lon="-3.56851">
        <ele>144.2</ele>
        <time>2021-08-11T10:16:49Z</time>
      </trkpt>
      <trkpt lat="48.18861" lon="-3.56851">
        <ele>144.4</ele>
        <time>2021-08-11T10:16:50Z</time>
      </trkpt>
      <trkpt lat="48.18858" lon="-3.56851">
        <ele>144.4</ele>
        <time>2021-08-11T10:16:51Z</time>
      </trkpt>
      <trkpt lat="48.18854" lon="-3.56851">
        <ele>144.6</ele>
        <time>2021-08-11T10:16:52Z</time>
      </trkpt>
      <trkpt lat="48.1885" lon="-3.56852">
        <ele>144.6</ele>
        <time>2021-08-11T10:16:53Z</time>
      </trkpt>
      <trkpt lat="48.18848" lon="-3.56851">
        <ele>144.6</ele>
        <time>2021-08-11T10:16:54Z</time>
      </trkpt>
      <trkpt lat="48.18846" lon="-3.56852">
        <ele>144.6</ele>
        <time>2021-08-11T10:16:55Z</time>
      </trkpt>
      <trkpt lat="48.18843" lon="-3.56852">
        <ele>144.6</ele>
        <time>2021-08-11T10:16:56Z</time>
      </trkpt>
      <trkpt lat="48.18841" lon="-3.56851">
        <ele>144.6</ele>
        <time>2021-08-11T10:16:57Z</time>
      </trkpt>
      <trkpt lat="48.18838" lon="-3.5685">
        <ele>144.6</ele>
        <time>2021-08-11T10:16:58Z</time>
      </trkpt>
      <trkpt lat="48.18834" lon="-3.5685">
        <ele>144.6</ele>
        <time>2021-08-11T10:16:59Z</time>
      </trkpt>
      <trkpt lat="48.18831" lon="-3.56849">
        <ele>144.8</ele>
        <time>2021-08-11T10:17:00Z</time>
      </trkpt>
      <trkpt lat="48.18827" lon="-3.56848">
        <ele>144.8</ele>
        <time>2021-08-11T10:17:01Z</time>
      </trkpt>
      <trkpt lat="48.18824" lon="-3.56848">
        <ele>144.8</ele>
        <time>2021-08-11T10:17:02Z</time>
      </trkpt>
      <trkpt lat="48.18821" lon="-3.56847">
        <ele>144.8</ele>
        <time>2021-08-11T10:17:03Z</time>
      </trkpt>
      <trkpt lat="48.18818" lon="-3.56847">
        <ele>144.8</ele>
        <time>2021-08-11T10:17:04Z</time>
      </trkpt>
      <trkpt lat="48.18815" lon="-3.56846">
        <ele>145</ele>
        <time>2021-08-11T10:17:05Z</time>
      </trkpt>
      <trkpt lat="48.18812" lon="-3.56846">
        <ele>145</ele>
        <time>2021-08-11T10:17:06Z</time>
      </trkpt>
      <trkpt lat="48.1881" lon="-3.56844">
        <ele>145</ele>
        <time>2021-08-11T10:17:07Z</time>
      </trkpt>
      <trkpt lat="48.18807" lon="-3.56843">
        <ele>145</ele>
        <time>2021-08-11T10:17:08Z</time>
      </trkpt>
      <trkpt lat="48.18804" lon="-3.56842">
        <ele>145</ele>
        <time>2021-08-11T10:17:09Z</time>
      </trkpt>
      <trkpt lat="48.18801" lon="-3.56841">
        <ele>145.2</ele>
        <time>2021-08-11T10:17:10Z</time>
      </trkpt>
      <trkpt lat="48.18799" lon="-3.5684">
        <ele>145.2</ele>
        <time>2021-08-11T10:17:11Z</time>
      </trkpt>
      <trkpt lat="48.18797" lon="-3.56839">
        <ele>145.2</ele>
        <time>2021-08-11T10:17:12Z</time>
      </trkpt>
      <trkpt lat="48.18794" lon="-3.56838">
        <ele>145.4</ele>
        <time>2021-08-11T10:17:13Z</time>
      </trkpt>
      <trkpt lat="48.18791" lon="-3.56837">
        <ele>145.6</ele>
        <time>2021-08-11T10:17:14Z</time>
      </trkpt>
      <trkpt lat="48.18788" lon="-3.56836">
        <ele>145.6</ele>
        <time>2021-08-11T10:17:15Z</time>
      </trkpt>
      <trkpt lat="48.18785" lon="-3.56834">
        <ele>145.6</ele>
        <time>2021-08-11T10:17:16Z</time>
      </trkpt>
      <trkpt lat="48.18783" lon="-3.56832">
        <ele>145.6</ele>
        <time>2021-08-11T10:17:17Z</time>
      </trkpt>
      <trkpt lat="48.1878" lon="-3.56831">
        <ele>145.8</ele>
        <time>2021-08-11T10:17:18Z</time>
      </trkpt>
      <trkpt lat="48.18777" lon="-3.56829">
        <ele>145.8</ele>
        <time>2021-08-11T10:17:19Z</time>
      </trkpt>
      <trkpt lat="48.18775" lon="-3.56828">
        <ele>145.8</ele>
        <time>2021-08-11T10:17:20Z</time>
      </trkpt>
      <trkpt lat="48.18773" lon="-3.56827">
        <ele>146</ele>
        <time>2021-08-11T10:17:21Z</time>
      </trkpt>
      <trkpt lat="48.1877" lon="-3.56826">
        <ele>146</ele>
        <time>2021-08-11T10:17:22Z</time>
      </trkpt>
      <trkpt lat="48.18768" lon="-3.56824">
        <ele>146.2</ele>
        <time>2021-08-11T10:17:23Z</time>
      </trkpt>
      <trkpt lat="48.18765" lon="-3.56821">
        <ele>146.2</ele>
        <time>2021-08-11T10:17:24Z</time>
      </trkpt>
      <trkpt lat="48.18763" lon="-3.56819">
        <ele>146.2</ele>
        <time>2021-08-11T10:17:25Z</time>
      </trkpt>
      <trkpt lat="48.1876" lon="-3.56817">
        <ele>146.2</ele>
        <time>2021-08-11T10:17:26Z</time>
      </trkpt>
      <trkpt lat="48.18758" lon="-3.56815">
        <ele>146.4</ele>
        <time>2021-08-11T10:17:27Z</time>
      </trkpt>
      <trkpt lat="48.18756" lon="-3.56813">
        <ele>146.4</ele>
        <time>2021-08-11T10:17:28Z</time>
      </trkpt>
      <trkpt lat="48.18753" lon="-3.56811">
        <ele>146.4</ele>
        <time>2021-08-11T10:17:29Z</time>
      </trkpt>
      <trkpt lat="48.1875" lon="-3.56809">
        <ele>146.4</ele>
        <time>2021-08-11T10:17:30Z</time>
      </trkpt>
      <trkpt lat="48.18748" lon="-3.56807">
        <ele>146.6</ele>
        <time>2021-08-11T10:17:31Z</time>
      </trkpt>
      <trkpt lat="48.18745" lon="-3.56804">
        <ele>146.8</ele>
        <time>2021-08-11T10:17:32Z</time>
      </trkpt>
      <trkpt lat="48.18743" lon="-3.56802">
        <ele>147</ele>
        <time>2021-08-11T10:17:33Z</time>
      </trkpt>
      <trkpt lat="48.1874" lon="-3.56799">
        <ele>147</ele>
        <time>2021-08-11T10:17:34Z</time>
      </trkpt>
      <trkpt lat="48.18738" lon="-3.56796">
        <ele>147.2</ele>
        <time>2021-08-11T10:17:35Z</time>
      </trkpt>
      <trkpt lat="48.18735" lon="-3.56793">
        <ele>147.4</ele>
        <time>2021-08-11T10:17:36Z</time>
      </trkpt>
      <trkpt lat="48.18732" lon="-3.56791">
        <ele>147.4</ele>
        <time>2021-08-11T10:17:37Z</time>
      </trkpt>
      <trkpt lat="48.18729" lon="-3.56788">
        <ele>147.6</ele>
        <time>2021-08-11T10:17:38Z</time>
      </trkpt>
      <trkpt lat="48.18726" lon="-3.56785">
        <ele>147.6</ele>
        <time>2021-08-11T10:17:39Z</time>
      </trkpt>
      <trkpt lat="48.18722" lon="-3.56781">
        <ele>147.6</ele>
        <time>2021-08-11T10:17:40Z</time>
      </trkpt>
      <trkpt lat="48.18719" lon="-3.56778">
        <ele>147.6</ele>
        <time>2021-08-11T10:17:41Z</time>
      </trkpt>
      <trkpt lat="48.18716" lon="-3.56775">
        <ele>147.6</ele>
        <time>2021-08-11T10:17:42Z</time>
      </trkpt>
      <trkpt lat="48.18713" lon="-3.56772">
        <ele>147.8</ele>
        <time>2021-08-11T10:17:43Z</time>
      </trkpt>
      <trkpt lat="48.1871" lon="-3.56769">
        <ele>147.8</ele>
        <time>2021-08-11T10:17:44Z</time>
      </trkpt>
      <trkpt lat="48.18707" lon="-3.56766">
        <ele>147.8</ele>
        <time>2021-08-11T10:17:45Z</time>
      </trkpt>
      <trkpt lat="48.18704" lon="-3.56763">
        <ele>147.8</ele>
        <time>2021-08-11T10:17:46Z</time>
      </trkpt>
      <trkpt lat="48.18701" lon="-3.56759">
        <ele>148</ele>
        <time>2021-08-11T10:17:47Z</time>
      </trkpt>
      <trkpt lat="48.18698" lon="-3.56755">
        <ele>148</ele>
        <time>2021-08-11T10:17:48Z</time>
      </trkpt>
      <trkpt lat="48.18695" lon="-3.56752">
        <ele>148</ele>
        <time>2021-08-11T10:17:49Z</time>
      </trkpt>
      <trkpt lat="48.18692" lon="-3.56748">
        <ele>148</ele>
        <time>2021-08-11T10:17:50Z</time>
      </trkpt>
      <trkpt lat="48.18688" lon="-3.56746">
        <ele>148</ele>
        <time>2021-08-11T10:17:51Z</time>
      </trkpt>
      <trkpt lat="48.18685" lon="-3.56743">
        <ele>148</ele>
        <time>2021-08-11T10:17:52Z</time>
      </trkpt>
      <trkpt lat="48.18682" lon="-3.5674">
        <ele>148.2</ele>
        <time>2021-08-11T10:17:53Z</time>
      </trkpt>
      <trkpt lat="48.18678" lon="-3.56737">
        <ele>148.2</ele>
        <time>2021-08-11T10:17:54Z</time>
      </trkpt>
      <trkpt lat="48.18676" lon="-3.56734">
        <ele>148.2</ele>
        <time>2021-08-11T10:17:55Z</time>
      </trkpt>
      <trkpt lat="48.18673" lon="-3.56731">
        <ele>148.2</ele>
        <time>2021-08-11T10:17:56Z</time>
      </trkpt>
      <trkpt lat="48.1867" lon="-3.56728">
        <ele>148.4</ele>
        <time>2021-08-11T10:17:57Z</time>
      </trkpt>
      <trkpt lat="48.18668" lon="-3.56725">
        <ele>148.4</ele>
        <time>2021-08-11T10:17:58Z</time>
      </trkpt>
      <trkpt lat="48.18666" lon="-3.56723">
        <ele>148.4</ele>
        <time>2021-08-11T10:17:59Z</time>
      </trkpt>
      <trkpt lat="48.18665" lon="-3.5672">
        <ele>148.4</ele>
        <time>2021-08-11T10:18:00Z</time>
      </trkpt>
      <trkpt lat="48.18662" lon="-3.56716">
        <ele>148.4</ele>
        <time>2021-08-11T10:18:01Z</time>
      </trkpt>
      <trkpt lat="48.1866" lon="-3.56714">
        <ele>148.4</ele>
        <time>2021-08-11T10:18:02Z</time>
      </trkpt>
      <trkpt lat="48.18657" lon="-3.56711">
        <ele>148.4</ele>
        <time>2021-08-11T10:18:03Z</time>
      </trkpt>
      <trkpt lat="48.18655" lon="-3.56707">
        <ele>148.6</ele>
        <time>2021-08-11T10:18:04Z</time>
      </trkpt>
      <trkpt lat="48.18651" lon="-3.56703">
        <ele>148.6</ele>
        <time>2021-08-11T10:18:05Z</time>
      </trkpt>
      <trkpt lat="48.18649" lon="-3.567">
        <ele>148.6</ele>
        <time>2021-08-11T10:18:06Z</time>
      </trkpt>
      <trkpt lat="48.18646" lon="-3.56696">
        <ele>148.8</ele>
        <time>2021-08-11T10:18:07Z</time>
      </trkpt>
      <trkpt lat="48.18644" lon="-3.56693">
        <ele>148.8</ele>
        <time>2021-08-11T10:18:08Z</time>
      </trkpt>
      <trkpt lat="48.18641" lon="-3.5669">
        <ele>149</ele>
        <time>2021-08-11T10:18:09Z</time>
      </trkpt>
      <trkpt lat="48.18638" lon="-3.56687">
        <ele>149</ele>
        <time>2021-08-11T10:18:10Z</time>
      </trkpt>
      <trkpt lat="48.18636" lon="-3.56684">
        <ele>149</ele>
        <time>2021-08-11T10:18:11Z</time>
      </trkpt>
      <trkpt lat="48.18633" lon="-3.5668">
        <ele>149.2</ele>
        <time>2021-08-11T10:18:12Z</time>
      </trkpt>
      <trkpt lat="48.18631" lon="-3.56676">
        <ele>149.2</ele>
        <time>2021-08-11T10:18:13Z</time>
      </trkpt>
      <trkpt lat="48.18628" lon="-3.56673">
        <ele>149.2</ele>
        <time>2021-08-11T10:18:14Z</time>
      </trkpt>
      <trkpt lat="48.18625" lon="-3.56668">
        <ele>149.4</ele>
        <time>2021-08-11T10:18:15Z</time>
      </trkpt>
      <trkpt lat="48.18622" lon="-3.56665">
        <ele>149.4</ele>
        <time>2021-08-11T10:18:16Z</time>
      </trkpt>
      <trkpt lat="48.18619" lon="-3.56661">
        <ele>149.6</ele>
        <time>2021-08-11T10:18:17Z</time>
      </trkpt>
      <trkpt lat="48.18617" lon="-3.56658">
        <ele>149.6</ele>
        <time>2021-08-11T10:18:18Z</time>
      </trkpt>
      <trkpt lat="48.18614" lon="-3.56654">
        <ele>149.8</ele>
        <time>2021-08-11T10:18:19Z</time>
      </trkpt>
      <trkpt lat="48.18611" lon="-3.56651">
        <ele>149.8</ele>
        <time>2021-08-11T10:18:20Z</time>
      </trkpt>
      <trkpt lat="48.18609" lon="-3.56649">
        <ele>149.8</ele>
        <time>2021-08-11T10:18:21Z</time>
      </trkpt>
      <trkpt lat="48.18607" lon="-3.56647">
        <ele>150</ele>
        <time>2021-08-11T10:18:22Z</time>
      </trkpt>
      <trkpt lat="48.18605" lon="-3.56644">
        <ele>150</ele>
        <time>2021-08-11T10:18:23Z</time>
      </trkpt>
      <trkpt lat="48.18603" lon="-3.56642">
        <ele>150</ele>
        <time>2021-08-11T10:18:24Z</time>
      </trkpt>
      <trkpt lat="48.18601" lon="-3.5664">
        <ele>150.2</ele>
        <time>2021-08-11T10:18:25Z</time>
      </trkpt>
      <trkpt lat="48.186" lon="-3.56638">
        <ele>150.2</ele>
        <time>2021-08-11T10:18:26Z</time>
      </trkpt>
      <trkpt lat="48.18597" lon="-3.56636">
        <ele>150.2</ele>
        <time>2021-08-11T10:18:27Z</time>
      </trkpt>
      <trkpt lat="48.18594" lon="-3.56633">
        <ele>150.2</ele>
        <time>2021-08-11T10:18:28Z</time>
      </trkpt>
      <trkpt lat="48.1859" lon="-3.56629">
        <ele>150.2</ele>
        <time>2021-08-11T10:18:29Z</time>
      </trkpt>
      <trkpt lat="48.18587" lon="-3.56625">
        <ele>150.2</ele>
        <time>2021-08-11T10:18:30Z</time>
      </trkpt>
      <trkpt lat="48.18585" lon="-3.56621">
        <ele>150.2</ele>
        <time>2021-08-11T10:18:31Z</time>
      </trkpt>
      <trkpt lat="48.18583" lon="-3.56616">
        <ele>150.2</ele>
        <time>2021-08-11T10:18:32Z</time>
      </trkpt>
      <trkpt lat="48.18581" lon="-3.56612">
        <ele>150.4</ele>
        <time>2021-08-11T10:18:33Z</time>
      </trkpt>
      <trkpt lat="48.18579" lon="-3.56609">
        <ele>150.4</ele>
        <time>2021-08-11T10:18:34Z</time>
      </trkpt>
      <trkpt lat="48.18578" lon="-3.56607">
        <ele>150.4</ele>
        <time>2021-08-11T10:18:35Z</time>
      </trkpt>
      <trkpt lat="48.18577" lon="-3.56606">
        <ele>150.4</ele>
        <time>2021-08-11T10:18:36Z</time>
      </trkpt>
      <trkpt lat="48.18577" lon="-3.56604">
        <ele>150.4</ele>
        <time>2021-08-11T10:18:37Z</time>
      </trkpt>
      <trkpt lat="48.18576" lon="-3.56602">
        <ele>150.6</ele>
        <time>2021-08-11T10:18:38Z</time>
      </trkpt>
      <trkpt lat="48.18575" lon="-3.56601">
        <ele>150.6</ele>
        <time>2021-08-11T10:18:39Z</time>
      </trkpt>
      <trkpt lat="48.18575" lon="-3.56602">
        <ele>150.6</ele>
        <time>2021-08-11T10:18:40Z</time>
      </trkpt>
      <trkpt lat="48.18575" lon="-3.56603">
        <ele>150.4</ele>
        <time>2021-08-11T10:18:41Z</time>
      </trkpt>
      <trkpt lat="48.18575" lon="-3.56603">
        <ele>150.4</ele>
        <time>2021-08-11T10:18:42Z</time>
      </trkpt>
      <trkpt lat="48.18576" lon="-3.56604">
        <ele>150.4</ele>
        <time>2021-08-11T10:18:43Z</time>
      </trkpt>
      <trkpt lat="48.18576" lon="-3.56605">
        <ele>150.4</ele>
        <time>2021-08-11T10:18:44Z</time>
      </trkpt>
      <trkpt lat="48.18576" lon="-3.56605">
        <ele>150.4</ele>
        <time>2021-08-11T10:18:45Z</time>
      </trkpt>
      <trkpt lat="48.18576" lon="-3.56606">
        <ele>150.4</ele>
        <time>2021-08-11T10:18:46Z</time>
      </trkpt>
      <trkpt lat="48.18576" lon="-3.56607">
        <ele>150.4</ele>
        <time>2021-08-11T10:18:47Z</time>
      </trkpt>
      <trkpt lat="48.18577" lon="-3.56606">
        <ele>150.4</ele>
        <time>2021-08-11T10:18:48Z</time>
      </trkpt>
      <trkpt lat="48.18578" lon="-3.56605">
        <ele>150.4</ele>
        <time>2021-08-11T10:18:49Z</time>
      </trkpt>
      <trkpt lat="48.18579" lon="-3.56603">
        <ele>150.4</ele>
        <time>2021-08-11T10:18:50Z</time>
      </trkpt>
      <trkpt lat="48.18578" lon="-3.56601">
        <ele>150.4</ele>
        <time>2021-08-11T10:18:51Z</time>
      </trkpt>
      <trkpt lat="48.18578" lon="-3.566">
        <ele>150.4</ele>
        <time>2021-08-11T10:18:52Z</time>
      </trkpt>
      <trkpt lat="48.18577" lon="-3.56599">
        <ele>150.4</ele>
        <time>2021-08-11T10:18:53Z</time>
      </trkpt>
      <trkpt lat="48.18577" lon="-3.56599">
        <ele>150.4</ele>
        <time>2021-08-11T10:18:54Z</time>
      </trkpt>
      <trkpt lat="48.18576" lon="-3.56598">
        <ele>150.4</ele>
        <time>2021-08-11T10:18:55Z</time>
      </trkpt>
      <trkpt lat="48.18576" lon="-3.56597">
        <ele>150.4</ele>
        <time>2021-08-11T10:18:56Z</time>
      </trkpt>
      <trkpt lat="48.18575" lon="-3.56597">
        <ele>150.4</ele>
        <time>2021-08-11T10:18:57Z</time>
      </trkpt>
      <trkpt lat="48.18575" lon="-3.56596">
        <ele>150</ele>
        <time>2021-08-11T10:19:01Z</time>
      </trkpt>
      <trkpt lat="48.18575" lon="-3.56596">
        <ele>150</ele>
        <time>2021-08-11T10:19:02Z</time>
      </trkpt>
      <trkpt lat="48.18574" lon="-3.56594">
        <ele>150</ele>
        <time>2021-08-11T10:19:03Z</time>
      </trkpt>
      <trkpt lat="48.18574" lon="-3.56593">
        <ele>150</ele>
        <time>2021-08-11T10:19:04Z</time>
      </trkpt>
      <trkpt lat="48.18572" lon="-3.56591">
        <ele>150</ele>
        <time>2021-08-11T10:19:05Z</time>
      </trkpt>
      <trkpt lat="48.18571" lon="-3.5659">
        <ele>150</ele>
        <time>2021-08-11T10:19:06Z</time>
      </trkpt>
      <trkpt lat="48.18569" lon="-3.56588">
        <ele>150</ele>
        <time>2021-08-11T10:19:07Z</time>
      </trkpt>
      <trkpt lat="48.18568" lon="-3.56588">
        <ele>150</ele>
        <time>2021-08-11T10:19:08Z</time>
      </trkpt>
      <trkpt lat="48.18567" lon="-3.56587">
        <ele>150</ele>
        <time>2021-08-11T10:19:09Z</time>
      </trkpt>
      <trkpt lat="48.18566" lon="-3.56586">
        <ele>150</ele>
        <time>2021-08-11T10:19:10Z</time>
      </trkpt>
      <trkpt lat="48.18565" lon="-3.56585">
        <ele>150</ele>
        <time>2021-08-11T10:19:11Z</time>
      </trkpt>
      <trkpt lat="48.18565" lon="-3.56584">
        <ele>150</ele>
        <time>2021-08-11T10:19:12Z</time>
      </trkpt>
      <trkpt lat="48.18564" lon="-3.56582">
        <ele>150</ele>
        <time>2021-08-11T10:19:13Z</time>
      </trkpt>
      <trkpt lat="48.18562" lon="-3.56581">
        <ele>150</ele>
        <time>2021-08-11T10:19:14Z</time>
      </trkpt>
      <trkpt lat="48.18561" lon="-3.5658">
        <ele>150</ele>
        <time>2021-08-11T10:19:15Z</time>
      </trkpt>
      <trkpt lat="48.18559" lon="-3.56579">
        <ele>150</ele>
        <time>2021-08-11T10:19:16Z</time>
      </trkpt>
      <trkpt lat="48.18557" lon="-3.56576">
        <ele>150.2</ele>
        <time>2021-08-11T10:19:17Z</time>
      </trkpt>
      <trkpt lat="48.18555" lon="-3.56574">
        <ele>150.4</ele>
        <time>2021-08-11T10:19:18Z</time>
      </trkpt>
      <trkpt lat="48.18553" lon="-3.56571">
        <ele>150.6</ele>
        <time>2021-08-11T10:19:19Z</time>
      </trkpt>
      <trkpt lat="48.18551" lon="-3.56568">
        <ele>150.8</ele>
        <time>2021-08-11T10:19:20Z</time>
      </trkpt>
      <trkpt lat="48.18549" lon="-3.56566">
        <ele>150.8</ele>
        <time>2021-08-11T10:19:21Z</time>
      </trkpt>
      <trkpt lat="48.18546" lon="-3.56564">
        <ele>151.2</ele>
        <time>2021-08-11T10:19:22Z</time>
      </trkpt>
      <trkpt lat="48.18544" lon="-3.56561">
        <ele>151.2</ele>
        <time>2021-08-11T10:19:23Z</time>
      </trkpt>
      <trkpt lat="48.18541" lon="-3.56559">
        <ele>151.2</ele>
        <time>2021-08-11T10:19:24Z</time>
      </trkpt>
      <trkpt lat="48.18539" lon="-3.56556">
        <ele>151.4</ele>
        <time>2021-08-11T10:19:25Z</time>
      </trkpt>
      <trkpt lat="48.18537" lon="-3.56553">
        <ele>151.4</ele>
        <time>2021-08-11T10:19:26Z</time>
      </trkpt>
      <trkpt lat="48.18534" lon="-3.5655">
        <ele>151.4</ele>
        <time>2021-08-11T10:19:27Z</time>
      </trkpt>
      <trkpt lat="48.18532" lon="-3.56548">
        <ele>151.4</ele>
        <time>2021-08-11T10:19:28Z</time>
      </trkpt>
      <trkpt lat="48.1853" lon="-3.56545">
        <ele>151.6</ele>
        <time>2021-08-11T10:19:29Z</time>
      </trkpt>
      <trkpt lat="48.18528" lon="-3.56542">
        <ele>151.8</ele>
        <time>2021-08-11T10:19:30Z</time>
      </trkpt>
      <trkpt lat="48.18525" lon="-3.5654">
        <ele>151.8</ele>
        <time>2021-08-11T10:19:31Z</time>
      </trkpt>
      <trkpt lat="48.18523" lon="-3.56538">
        <ele>151.8</ele>
        <time>2021-08-11T10:19:32Z</time>
      </trkpt>
      <trkpt lat="48.1852" lon="-3.56535">
        <ele>152</ele>
        <time>2021-08-11T10:19:33Z</time>
      </trkpt>
      <trkpt lat="48.18518" lon="-3.56533">
        <ele>152</ele>
        <time>2021-08-11T10:19:34Z</time>
      </trkpt>
      <trkpt lat="48.18516" lon="-3.5653">
        <ele>152</ele>
        <time>2021-08-11T10:19:35Z</time>
      </trkpt>
      <trkpt lat="48.18513" lon="-3.56528">
        <ele>152.2</ele>
        <time>2021-08-11T10:19:36Z</time>
      </trkpt>
      <trkpt lat="48.18511" lon="-3.56526">
        <ele>152.2</ele>
        <time>2021-08-11T10:19:37Z</time>
      </trkpt>
      <trkpt lat="48.18508" lon="-3.56524">
        <ele>152.2</ele>
        <time>2021-08-11T10:19:38Z</time>
      </trkpt>
      <trkpt lat="48.18505" lon="-3.56522">
        <ele>152.2</ele>
        <time>2021-08-11T10:19:39Z</time>
      </trkpt>
      <trkpt lat="48.18503" lon="-3.5652">
        <ele>152.4</ele>
        <time>2021-08-11T10:19:40Z</time>
      </trkpt>
      <trkpt lat="48.185" lon="-3.56518">
        <ele>152.4</ele>
        <time>2021-08-11T10:19:41Z</time>
      </trkpt>
      <trkpt lat="48.18498" lon="-3.56516">
        <ele>152.4</ele>
        <time>2021-08-11T10:19:42Z</time>
      </trkpt>
      <trkpt lat="48.18495" lon="-3.56514">
        <ele>152.4</ele>
        <time>2021-08-11T10:19:43Z</time>
      </trkpt>
      <trkpt lat="48.18493" lon="-3.56512">
        <ele>152.4</ele>
        <time>2021-08-11T10:19:44Z</time>
      </trkpt>
      <trkpt lat="48.1849" lon="-3.56508">
        <ele>152.6</ele>
        <time>2021-08-11T10:19:45Z</time>
      </trkpt>
      <trkpt lat="48.18488" lon="-3.56503">
        <ele>152.6</ele>
        <time>2021-08-11T10:19:46Z</time>
      </trkpt>
      <trkpt lat="48.18486" lon="-3.56499">
        <ele>152.8</ele>
        <time>2021-08-11T10:19:47Z</time>
      </trkpt>
      <trkpt lat="48.18484" lon="-3.56495">
        <ele>152.8</ele>
        <time>2021-08-11T10:19:48Z</time>
      </trkpt>
      <trkpt lat="48.18481" lon="-3.56491">
        <ele>152.8</ele>
        <time>2021-08-11T10:19:49Z</time>
      </trkpt>
      <trkpt lat="48.18479" lon="-3.56488">
        <ele>153</ele>
        <time>2021-08-11T10:19:50Z</time>
      </trkpt>
      <trkpt lat="48.18476" lon="-3.56487">
        <ele>153</ele>
        <time>2021-08-11T10:19:51Z</time>
      </trkpt>
      <trkpt lat="48.18474" lon="-3.56485">
        <ele>153.2</ele>
        <time>2021-08-11T10:19:52Z</time>
      </trkpt>
      <trkpt lat="48.18472" lon="-3.56484">
        <ele>153.2</ele>
        <time>2021-08-11T10:19:53Z</time>
      </trkpt>
      <trkpt lat="48.18471" lon="-3.56482">
        <ele>153.2</ele>
        <time>2021-08-11T10:19:54Z</time>
      </trkpt>
      <trkpt lat="48.1847" lon="-3.5648">
        <ele>153.4</ele>
        <time>2021-08-11T10:19:55Z</time>
      </trkpt>
      <trkpt lat="48.18468" lon="-3.56478">
        <ele>153.4</ele>
        <time>2021-08-11T10:19:56Z</time>
      </trkpt>
      <trkpt lat="48.18467" lon="-3.56476">
        <ele>153.4</ele>
        <time>2021-08-11T10:19:57Z</time>
      </trkpt>
      <trkpt lat="48.18466" lon="-3.56475">
        <ele>153.4</ele>
        <time>2021-08-11T10:19:58Z</time>
      </trkpt>
      <trkpt lat="48.18465" lon="-3.56472">
        <ele>153.6</ele>
        <time>2021-08-11T10:19:59Z</time>
      </trkpt>
      <trkpt lat="48.18464" lon="-3.56471">
        <ele>153.6</ele>
        <time>2021-08-11T10:20:00Z</time>
      </trkpt>
      <trkpt lat="48.18463" lon="-3.5647">
        <ele>153.8</ele>
        <time>2021-08-11T10:20:01Z</time>
      </trkpt>
      <trkpt lat="48.18463" lon="-3.56469">
        <ele>153.8</ele>
        <time>2021-08-11T10:20:02Z</time>
      </trkpt>
      <trkpt lat="48.18461" lon="-3.56461">
        <ele>154.2</ele>
        <time>2021-08-11T10:20:23Z</time>
      </trkpt>
      <trkpt lat="48.1846" lon="-3.56459">
        <ele>154.2</ele>
        <time>2021-08-11T10:20:24Z</time>
      </trkpt>
      <trkpt lat="48.18459" lon="-3.56457">
        <ele>154.2</ele>
        <time>2021-08-11T10:20:25Z</time>
      </trkpt>
      <trkpt lat="48.18457" lon="-3.56455">
        <ele>154.2</ele>
        <time>2021-08-11T10:20:26Z</time>
      </trkpt>
      <trkpt lat="48.18455" lon="-3.56453">
        <ele>154.2</ele>
        <time>2021-08-11T10:20:27Z</time>
      </trkpt>
      <trkpt lat="48.18453" lon="-3.5645">
        <ele>154.2</ele>
        <time>2021-08-11T10:20:28Z</time>
      </trkpt>
      <trkpt lat="48.18451" lon="-3.56447">
        <ele>154.2</ele>
        <time>2021-08-11T10:20:29Z</time>
      </trkpt>
      <trkpt lat="48.18449" lon="-3.56444">
        <ele>154.2</ele>
        <time>2021-08-11T10:20:30Z</time>
      </trkpt>
      <trkpt lat="48.18447" lon="-3.56442">
        <ele>154.2</ele>
        <time>2021-08-11T10:20:31Z</time>
      </trkpt>
      <trkpt lat="48.18445" lon="-3.56439">
        <ele>154.2</ele>
        <time>2021-08-11T10:20:32Z</time>
      </trkpt>
      <trkpt lat="48.18442" lon="-3.56436">
        <ele>154.2</ele>
        <time>2021-08-11T10:20:33Z</time>
      </trkpt>
      <trkpt lat="48.1844" lon="-3.56433">
        <ele>154.2</ele>
        <time>2021-08-11T10:20:34Z</time>
      </trkpt>
      <trkpt lat="48.18437" lon="-3.56431">
        <ele>154.2</ele>
        <time>2021-08-11T10:20:35Z</time>
      </trkpt>
      <trkpt lat="48.18434" lon="-3.56428">
        <ele>154.2</ele>
        <time>2021-08-11T10:20:36Z</time>
      </trkpt>
      <trkpt lat="48.18432" lon="-3.56424">
        <ele>154.2</ele>
        <time>2021-08-11T10:20:37Z</time>
      </trkpt>
      <trkpt lat="48.18429" lon="-3.56421">
        <ele>154.2</ele>
        <time>2021-08-11T10:20:38Z</time>
      </trkpt>
      <trkpt lat="48.18427" lon="-3.56414">
        <ele>154.2</ele>
        <time>2021-08-11T10:20:39Z</time>
      </trkpt>
      <trkpt lat="48.18424" lon="-3.5641">
        <ele>154.2</ele>
        <time>2021-08-11T10:20:40Z</time>
      </trkpt>
      <trkpt lat="48.18422" lon="-3.56405">
        <ele>154.2</ele>
        <time>2021-08-11T10:20:41Z</time>
      </trkpt>
      <trkpt lat="48.18419" lon="-3.56401">
        <ele>154.2</ele>
        <time>2021-08-11T10:20:42Z</time>
      </trkpt>
      <trkpt lat="48.18416" lon="-3.56396">
        <ele>154.2</ele>
        <time>2021-08-11T10:20:43Z</time>
      </trkpt>
      <trkpt lat="48.18413" lon="-3.56392">
        <ele>154.2</ele>
        <time>2021-08-11T10:20:44Z</time>
      </trkpt>
      <trkpt lat="48.18411" lon="-3.56387">
        <ele>154.2</ele>
        <time>2021-08-11T10:20:45Z</time>
      </trkpt>
      <trkpt lat="48.18408" lon="-3.56383">
        <ele>154.2</ele>
        <time>2021-08-11T10:20:46Z</time>
      </trkpt>
      <trkpt lat="48.18406" lon="-3.56379">
        <ele>154.2</ele>
        <time>2021-08-11T10:20:47Z</time>
      </trkpt>
      <trkpt lat="48.18403" lon="-3.56375">
        <ele>154.4</ele>
        <time>2021-08-11T10:20:48Z</time>
      </trkpt>
      <trkpt lat="48.18401" lon="-3.56371">
        <ele>154.4</ele>
        <time>2021-08-11T10:20:49Z</time>
      </trkpt>
      <trkpt lat="48.18398" lon="-3.56366">
        <ele>154.4</ele>
        <time>2021-08-11T10:20:50Z</time>
      </trkpt>
      <trkpt lat="48.18395" lon="-3.56362">
        <ele>154.4</ele>
        <time>2021-08-11T10:20:51Z</time>
      </trkpt>
      <trkpt lat="48.18392" lon="-3.56358">
        <ele>154.6</ele>
        <time>2021-08-11T10:20:52Z</time>
      </trkpt>
      <trkpt lat="48.1839" lon="-3.56353">
        <ele>154.8</ele>
        <time>2021-08-11T10:20:53Z</time>
      </trkpt>
      <trkpt lat="48.18387" lon="-3.56349">
        <ele>155</ele>
        <time>2021-08-11T10:20:54Z</time>
      </trkpt>
      <trkpt lat="48.18385" lon="-3.56345">
        <ele>155</ele>
        <time>2021-08-11T10:20:55Z</time>
      </trkpt>
      <trkpt lat="48.18382" lon="-3.5634">
        <ele>155.2</ele>
        <time>2021-08-11T10:20:56Z</time>
      </trkpt>
      <trkpt lat="48.18379" lon="-3.56336">
        <ele>155.2</ele>
        <time>2021-08-11T10:20:57Z</time>
      </trkpt>
      <trkpt lat="48.18376" lon="-3.56332">
        <ele>155.2</ele>
        <time>2021-08-11T10:20:58Z</time>
      </trkpt>
      <trkpt lat="48.18373" lon="-3.56329">
        <ele>155.2</ele>
        <time>2021-08-11T10:20:59Z</time>
      </trkpt>
      <trkpt lat="48.1837" lon="-3.56325">
        <ele>155.2</ele>
        <time>2021-08-11T10:21:00Z</time>
      </trkpt>
      <trkpt lat="48.18368" lon="-3.56321">
        <ele>155.2</ele>
        <time>2021-08-11T10:21:01Z</time>
      </trkpt>
      <trkpt lat="48.18365" lon="-3.56317">
        <ele>155.2</ele>
        <time>2021-08-11T10:21:02Z</time>
      </trkpt>
      <trkpt lat="48.18361" lon="-3.56314">
        <ele>155.2</ele>
        <time>2021-08-11T10:21:03Z</time>
      </trkpt>
      <trkpt lat="48.18358" lon="-3.5631">
        <ele>155.4</ele>
        <time>2021-08-11T10:21:04Z</time>
      </trkpt>
      <trkpt lat="48.18355" lon="-3.56307">
        <ele>155.4</ele>
        <time>2021-08-11T10:21:05Z</time>
      </trkpt>
      <trkpt lat="48.18352" lon="-3.56304">
        <ele>155.6</ele>
        <time>2021-08-11T10:21:06Z</time>
      </trkpt>
      <trkpt lat="48.18349" lon="-3.56301">
        <ele>155.8</ele>
        <time>2021-08-11T10:21:07Z</time>
      </trkpt>
      <trkpt lat="48.18346" lon="-3.56298">
        <ele>155.8</ele>
        <time>2021-08-11T10:21:08Z</time>
      </trkpt>
      <trkpt lat="48.18343" lon="-3.56296">
        <ele>156</ele>
        <time>2021-08-11T10:21:09Z</time>
      </trkpt>
      <trkpt lat="48.1834" lon="-3.56294">
        <ele>156</ele>
        <time>2021-08-11T10:21:10Z</time>
      </trkpt>
      <trkpt lat="48.18338" lon="-3.56291">
        <ele>156</ele>
        <time>2021-08-11T10:21:11Z</time>
      </trkpt>
      <trkpt lat="48.18335" lon="-3.56288">
        <ele>156.2</ele>
        <time>2021-08-11T10:21:12Z</time>
      </trkpt>
      <trkpt lat="48.18332" lon="-3.56286">
        <ele>156.2</ele>
        <time>2021-08-11T10:21:13Z</time>
      </trkpt>
      <trkpt lat="48.18329" lon="-3.56284">
        <ele>156.2</ele>
        <time>2021-08-11T10:21:14Z</time>
      </trkpt>
      <trkpt lat="48.18326" lon="-3.56282">
        <ele>156.4</ele>
        <time>2021-08-11T10:21:15Z</time>
      </trkpt>
      <trkpt lat="48.18324" lon="-3.56281">
        <ele>156.4</ele>
        <time>2021-08-11T10:21:16Z</time>
      </trkpt>
      <trkpt lat="48.18321" lon="-3.56279">
        <ele>156.4</ele>
        <time>2021-08-11T10:21:17Z</time>
      </trkpt>
      <trkpt lat="48.18319" lon="-3.56277">
        <ele>156.4</ele>
        <time>2021-08-11T10:21:18Z</time>
      </trkpt>
      <trkpt lat="48.18316" lon="-3.56275">
        <ele>156.4</ele>
        <time>2021-08-11T10:21:19Z</time>
      </trkpt>
      <trkpt lat="48.18313" lon="-3.56273">
        <ele>156.6</ele>
        <time>2021-08-11T10:21:20Z</time>
      </trkpt>
      <trkpt lat="48.18309" lon="-3.56271">
        <ele>156.6</ele>
        <time>2021-08-11T10:21:21Z</time>
      </trkpt>
      <trkpt lat="48.18306" lon="-3.5627">
        <ele>156.8</ele>
        <time>2021-08-11T10:21:22Z</time>
      </trkpt>
      <trkpt lat="48.18302" lon="-3.56269">
        <ele>157</ele>
        <time>2021-08-11T10:21:23Z</time>
      </trkpt>
      <trkpt lat="48.18298" lon="-3.56268">
        <ele>157</ele>
        <time>2021-08-11T10:21:24Z</time>
      </trkpt>
      <trkpt lat="48.18294" lon="-3.56267">
        <ele>157.2</ele>
        <time>2021-08-11T10:21:25Z</time>
      </trkpt>
      <trkpt lat="48.18291" lon="-3.56266">
        <ele>157.2</ele>
        <time>2021-08-11T10:21:26Z</time>
      </trkpt>
      <trkpt lat="48.18288" lon="-3.56265">
        <ele>157.4</ele>
        <time>2021-08-11T10:21:27Z</time>
      </trkpt>
      <trkpt lat="48.18285" lon="-3.56264">
        <ele>157.4</ele>
        <time>2021-08-11T10:21:28Z</time>
      </trkpt>
      <trkpt lat="48.18282" lon="-3.56262">
        <ele>157.4</ele>
        <time>2021-08-11T10:21:29Z</time>
      </trkpt>
      <trkpt lat="48.18279" lon="-3.56261">
        <ele>157.6</ele>
        <time>2021-08-11T10:21:30Z</time>
      </trkpt>
      <trkpt lat="48.18276" lon="-3.5626">
        <ele>157.6</ele>
        <time>2021-08-11T10:21:31Z</time>
      </trkpt>
      <trkpt lat="48.18274" lon="-3.5626">
        <ele>157.8</ele>
        <time>2021-08-11T10:21:32Z</time>
      </trkpt>
      <trkpt lat="48.18271" lon="-3.5626">
        <ele>157.8</ele>
        <time>2021-08-11T10:21:33Z</time>
      </trkpt>
      <trkpt lat="48.18268" lon="-3.5626">
        <ele>158</ele>
        <time>2021-08-11T10:21:34Z</time>
      </trkpt>
      <trkpt lat="48.18263" lon="-3.5626">
        <ele>158.2</ele>
        <time>2021-08-11T10:21:35Z</time>
      </trkpt>
      <trkpt lat="48.1826" lon="-3.56261">
        <ele>158.4</ele>
        <time>2021-08-11T10:21:36Z</time>
      </trkpt>
      <trkpt lat="48.18255" lon="-3.56261">
        <ele>158.4</ele>
        <time>2021-08-11T10:21:37Z</time>
      </trkpt>
      <trkpt lat="48.1825" lon="-3.56262">
        <ele>158.6</ele>
        <time>2021-08-11T10:21:38Z</time>
      </trkpt>
      <trkpt lat="48.18246" lon="-3.56262">
        <ele>158.8</ele>
        <time>2021-08-11T10:21:39Z</time>
      </trkpt>
      <trkpt lat="48.18242" lon="-3.56263">
        <ele>158.8</ele>
        <time>2021-08-11T10:21:40Z</time>
      </trkpt>
      <trkpt lat="48.18239" lon="-3.56264">
        <ele>159</ele>
        <time>2021-08-11T10:21:41Z</time>
      </trkpt>
      <trkpt lat="48.18235" lon="-3.56264">
        <ele>159</ele>
        <time>2021-08-11T10:21:42Z</time>
      </trkpt>
      <trkpt lat="48.18231" lon="-3.56265">
        <ele>159.2</ele>
        <time>2021-08-11T10:21:43Z</time>
      </trkpt>
      <trkpt lat="48.18228" lon="-3.56266">
        <ele>159.6</ele>
        <time>2021-08-11T10:21:44Z</time>
      </trkpt>
      <trkpt lat="48.18224" lon="-3.56268">
        <ele>159.6</ele>
        <time>2021-08-11T10:21:45Z</time>
      </trkpt>
      <trkpt lat="48.18221" lon="-3.56269">
        <ele>159.8</ele>
        <time>2021-08-11T10:21:46Z</time>
      </trkpt>
      <trkpt lat="48.18218" lon="-3.5627">
        <ele>159.8</ele>
        <time>2021-08-11T10:21:47Z</time>
      </trkpt>
      <trkpt lat="48.18215" lon="-3.56271">
        <ele>159.8</ele>
        <time>2021-08-11T10:21:48Z</time>
      </trkpt>
      <trkpt lat="48.18212" lon="-3.56271">
        <ele>160</ele>
        <time>2021-08-11T10:21:49Z</time>
      </trkpt>
      <trkpt lat="48.1821" lon="-3.56272">
        <ele>160</ele>
        <time>2021-08-11T10:21:50Z</time>
      </trkpt>
      <trkpt lat="48.18208" lon="-3.56272">
        <ele>160</ele>
        <time>2021-08-11T10:21:51Z</time>
      </trkpt>
      <trkpt lat="48.18206" lon="-3.56273">
        <ele>160</ele>
        <time>2021-08-11T10:21:52Z</time>
      </trkpt>
      <trkpt lat="48.18204" lon="-3.56274">
        <ele>160</ele>
        <time>2021-08-11T10:21:53Z</time>
      </trkpt>
      <trkpt lat="48.18202" lon="-3.56275">
        <ele>160.2</ele>
        <time>2021-08-11T10:21:54Z</time>
      </trkpt>
      <trkpt lat="48.18201" lon="-3.56277">
        <ele>160.2</ele>
        <time>2021-08-11T10:21:55Z</time>
      </trkpt>
      <trkpt lat="48.18199" lon="-3.56278">
        <ele>160.2</ele>
        <time>2021-08-11T10:21:56Z</time>
      </trkpt>
      <trkpt lat="48.18197" lon="-3.5628">
        <ele>160.4</ele>
        <time>2021-08-11T10:21:57Z</time>
      </trkpt>
      <trkpt lat="48.18195" lon="-3.56281">
        <ele>160.6</ele>
        <time>2021-08-11T10:21:58Z</time>
      </trkpt>
      <trkpt lat="48.18193" lon="-3.56283">
        <ele>160.6</ele>
        <time>2021-08-11T10:21:59Z</time>
      </trkpt>
      <trkpt lat="48.18192" lon="-3.56284">
        <ele>160.6</ele>
        <time>2021-08-11T10:22:00Z</time>
      </trkpt>
      <trkpt lat="48.1819" lon="-3.56287">
        <ele>160.8</ele>
        <time>2021-08-11T10:22:01Z</time>
      </trkpt>
      <trkpt lat="48.18187" lon="-3.56289">
        <ele>160.8</ele>
        <time>2021-08-11T10:22:02Z</time>
      </trkpt>
      <trkpt lat="48.18184" lon="-3.56291">
        <ele>160.8</ele>
        <time>2021-08-11T10:22:03Z</time>
      </trkpt>
      <trkpt lat="48.18182" lon="-3.56293">
        <ele>160.8</ele>
        <time>2021-08-11T10:22:04Z</time>
      </trkpt>
      <trkpt lat="48.1818" lon="-3.56295">
        <ele>160.8</ele>
        <time>2021-08-11T10:22:05Z</time>
      </trkpt>
      <trkpt lat="48.18178" lon="-3.56297">
        <ele>160.8</ele>
        <time>2021-08-11T10:22:06Z</time>
      </trkpt>
      <trkpt lat="48.18176" lon="-3.56299">
        <ele>160.8</ele>
        <time>2021-08-11T10:22:07Z</time>
      </trkpt>
      <trkpt lat="48.18174" lon="-3.56301">
        <ele>160.8</ele>
        <time>2021-08-11T10:22:08Z</time>
      </trkpt>
      <trkpt lat="48.18173" lon="-3.56303">
        <ele>161</ele>
        <time>2021-08-11T10:22:09Z</time>
      </trkpt>
      <trkpt lat="48.18171" lon="-3.56306">
        <ele>161</ele>
        <time>2021-08-11T10:22:10Z</time>
      </trkpt>
      <trkpt lat="48.18169" lon="-3.56308">
        <ele>161.2</ele>
        <time>2021-08-11T10:22:11Z</time>
      </trkpt>
      <trkpt lat="48.18166" lon="-3.56311">
        <ele>161.2</ele>
        <time>2021-08-11T10:22:12Z</time>
      </trkpt>
      <trkpt lat="48.18163" lon="-3.56314">
        <ele>161.4</ele>
        <time>2021-08-11T10:22:13Z</time>
      </trkpt>
      <trkpt lat="48.1816" lon="-3.56318">
        <ele>161.4</ele>
        <time>2021-08-11T10:22:14Z</time>
      </trkpt>
      <trkpt lat="48.18157" lon="-3.5632">
        <ele>161.6</ele>
        <time>2021-08-11T10:22:15Z</time>
      </trkpt>
      <trkpt lat="48.18154" lon="-3.56324">
        <ele>161.6</ele>
        <time>2021-08-11T10:22:16Z</time>
      </trkpt>
      <trkpt lat="48.18151" lon="-3.56327">
        <ele>161.8</ele>
        <time>2021-08-11T10:22:17Z</time>
      </trkpt>
      <trkpt lat="48.18148" lon="-3.5633">
        <ele>161.8</ele>
        <time>2021-08-11T10:22:18Z</time>
      </trkpt>
      <trkpt lat="48.18146" lon="-3.56332">
        <ele>161.8</ele>
        <time>2021-08-11T10:22:19Z</time>
      </trkpt>
      <trkpt lat="48.18144" lon="-3.56334">
        <ele>161.8</ele>
        <time>2021-08-11T10:22:20Z</time>
      </trkpt>
      <trkpt lat="48.18142" lon="-3.56336">
        <ele>162</ele>
        <time>2021-08-11T10:22:21Z</time>
      </trkpt>
      <trkpt lat="48.18139" lon="-3.56339">
        <ele>162</ele>
        <time>2021-08-11T10:22:22Z</time>
      </trkpt>
      <trkpt lat="48.18136" lon="-3.56342">
        <ele>162.2</ele>
        <time>2021-08-11T10:22:23Z</time>
      </trkpt>
      <trkpt lat="48.18133" lon="-3.56345">
        <ele>162.2</ele>
        <time>2021-08-11T10:22:24Z</time>
      </trkpt>
      <trkpt lat="48.1813" lon="-3.56348">
        <ele>162.2</ele>
        <time>2021-08-11T10:22:25Z</time>
      </trkpt>
      <trkpt lat="48.18128" lon="-3.5635">
        <ele>162.2</ele>
        <time>2021-08-11T10:22:26Z</time>
      </trkpt>
      <trkpt lat="48.18126" lon="-3.56353">
        <ele>162.4</ele>
        <time>2021-08-11T10:22:27Z</time>
      </trkpt>
      <trkpt lat="48.18124" lon="-3.56355">
        <ele>162.4</ele>
        <time>2021-08-11T10:22:28Z</time>
      </trkpt>
      <trkpt lat="48.18123" lon="-3.56358">
        <ele>162.8</ele>
        <time>2021-08-11T10:22:29Z</time>
      </trkpt>
      <trkpt lat="48.18121" lon="-3.5636">
        <ele>163</ele>
        <time>2021-08-11T10:22:30Z</time>
      </trkpt>
      <trkpt lat="48.18119" lon="-3.56363">
        <ele>162.8</ele>
        <time>2021-08-11T10:22:31Z</time>
      </trkpt>
      <trkpt lat="48.18117" lon="-3.56366">
        <ele>163</ele>
        <time>2021-08-11T10:22:32Z</time>
      </trkpt>
      <trkpt lat="48.18115" lon="-3.56369">
        <ele>163</ele>
        <time>2021-08-11T10:22:33Z</time>
      </trkpt>
      <trkpt lat="48.18112" lon="-3.56371">
        <ele>163</ele>
        <time>2021-08-11T10:22:34Z</time>
      </trkpt>
      <trkpt lat="48.18109" lon="-3.56374">
        <ele>163</ele>
        <time>2021-08-11T10:22:35Z</time>
      </trkpt>
      <trkpt lat="48.18106" lon="-3.56376">
        <ele>163</ele>
        <time>2021-08-11T10:22:36Z</time>
      </trkpt>
      <trkpt lat="48.18102" lon="-3.56379">
        <ele>163</ele>
        <time>2021-08-11T10:22:37Z</time>
      </trkpt>
      <trkpt lat="48.18099" lon="-3.56382">
        <ele>163</ele>
        <time>2021-08-11T10:22:38Z</time>
      </trkpt>
      <trkpt lat="48.18096" lon="-3.56385">
        <ele>163.2</ele>
        <time>2021-08-11T10:22:39Z</time>
      </trkpt>
      <trkpt lat="48.18094" lon="-3.56387">
        <ele>163.2</ele>
        <time>2021-08-11T10:22:40Z</time>
      </trkpt>
      <trkpt lat="48.18091" lon="-3.5639">
        <ele>163.4</ele>
        <time>2021-08-11T10:22:41Z</time>
      </trkpt>
      <trkpt lat="48.18089" lon="-3.56393">
        <ele>163.4</ele>
        <time>2021-08-11T10:22:42Z</time>
      </trkpt>
      <trkpt lat="48.18087" lon="-3.56396">
        <ele>163.6</ele>
        <time>2021-08-11T10:22:43Z</time>
      </trkpt>
      <trkpt lat="48.18084" lon="-3.56399">
        <ele>163.6</ele>
        <time>2021-08-11T10:22:44Z</time>
      </trkpt>
      <trkpt lat="48.18081" lon="-3.56401">
        <ele>163.6</ele>
        <time>2021-08-11T10:22:45Z</time>
      </trkpt>
      <trkpt lat="48.18078" lon="-3.56404">
        <ele>163.6</ele>
        <time>2021-08-11T10:22:46Z</time>
      </trkpt>
      <trkpt lat="48.18076" lon="-3.56408">
        <ele>163.8</ele>
        <time>2021-08-11T10:22:47Z</time>
      </trkpt>
      <trkpt lat="48.18073" lon="-3.56411">
        <ele>163.8</ele>
        <time>2021-08-11T10:22:48Z</time>
      </trkpt>
      <trkpt lat="48.1807" lon="-3.56414">
        <ele>163.8</ele>
        <time>2021-08-11T10:22:49Z</time>
      </trkpt>
      <trkpt lat="48.18067" lon="-3.56417">
        <ele>164</ele>
        <time>2021-08-11T10:22:50Z</time>
      </trkpt>
      <trkpt lat="48.18064" lon="-3.5642">
        <ele>164</ele>
        <time>2021-08-11T10:22:51Z</time>
      </trkpt>
      <trkpt lat="48.18061" lon="-3.56424">
        <ele>164</ele>
        <time>2021-08-11T10:22:52Z</time>
      </trkpt>
      <trkpt lat="48.18059" lon="-3.56427">
        <ele>164</ele>
        <time>2021-08-11T10:22:53Z</time>
      </trkpt>
      <trkpt lat="48.18055" lon="-3.56429">
        <ele>164</ele>
        <time>2021-08-11T10:22:54Z</time>
      </trkpt>
      <trkpt lat="48.18053" lon="-3.56431">
        <ele>164.2</ele>
        <time>2021-08-11T10:22:55Z</time>
      </trkpt>
      <trkpt lat="48.18049" lon="-3.56434">
        <ele>164.4</ele>
        <time>2021-08-11T10:22:56Z</time>
      </trkpt>
      <trkpt lat="48.18045" lon="-3.56437">
        <ele>164.6</ele>
        <time>2021-08-11T10:22:57Z</time>
      </trkpt>
      <trkpt lat="48.18042" lon="-3.5644">
        <ele>164.6</ele>
        <time>2021-08-11T10:22:58Z</time>
      </trkpt>
      <trkpt lat="48.18039" lon="-3.56442">
        <ele>164.6</ele>
        <time>2021-08-11T10:22:59Z</time>
      </trkpt>
      <trkpt lat="48.18036" lon="-3.56446">
        <ele>164.6</ele>
        <time>2021-08-11T10:23:00Z</time>
      </trkpt>
      <trkpt lat="48.18032" lon="-3.56449">
        <ele>164.8</ele>
        <time>2021-08-11T10:23:01Z</time>
      </trkpt>
      <trkpt lat="48.18028" lon="-3.56453">
        <ele>164.8</ele>
        <time>2021-08-11T10:23:02Z</time>
      </trkpt>
      <trkpt lat="48.18024" lon="-3.56457">
        <ele>165</ele>
        <time>2021-08-11T10:23:03Z</time>
      </trkpt>
      <trkpt lat="48.1802" lon="-3.5646">
        <ele>165.2</ele>
        <time>2021-08-11T10:23:04Z</time>
      </trkpt>
      <trkpt lat="48.18016" lon="-3.56464">
        <ele>165.4</ele>
        <time>2021-08-11T10:23:05Z</time>
      </trkpt>
      <trkpt lat="48.18013" lon="-3.56469">
        <ele>165.4</ele>
        <time>2021-08-11T10:23:06Z</time>
      </trkpt>
      <trkpt lat="48.1801" lon="-3.56472">
        <ele>165.4</ele>
        <time>2021-08-11T10:23:07Z</time>
      </trkpt>
      <trkpt lat="48.18007" lon="-3.56476">
        <ele>165.6</ele>
        <time>2021-08-11T10:23:08Z</time>
      </trkpt>
      <trkpt lat="48.18003" lon="-3.5648">
        <ele>165.6</ele>
        <time>2021-08-11T10:23:09Z</time>
      </trkpt>
      <trkpt lat="48.18" lon="-3.56484">
        <ele>165.6</ele>
        <time>2021-08-11T10:23:10Z</time>
      </trkpt>
      <trkpt lat="48.17997" lon="-3.56488">
        <ele>165.6</ele>
        <time>2021-08-11T10:23:11Z</time>
      </trkpt>
      <trkpt lat="48.17994" lon="-3.56491">
        <ele>165.6</ele>
        <time>2021-08-11T10:23:12Z</time>
      </trkpt>
      <trkpt lat="48.17991" lon="-3.56494">
        <ele>165.8</ele>
        <time>2021-08-11T10:23:13Z</time>
      </trkpt>
      <trkpt lat="48.17988" lon="-3.56498">
        <ele>165.8</ele>
        <time>2021-08-11T10:23:14Z</time>
      </trkpt>
      <trkpt lat="48.17985" lon="-3.565">
        <ele>165.8</ele>
        <time>2021-08-11T10:23:15Z</time>
      </trkpt>
      <trkpt lat="48.17983" lon="-3.56502">
        <ele>165.8</ele>
        <time>2021-08-11T10:23:16Z</time>
      </trkpt>
      <trkpt lat="48.1798" lon="-3.56504">
        <ele>166</ele>
        <time>2021-08-11T10:23:17Z</time>
      </trkpt>
      <trkpt lat="48.17978" lon="-3.56507">
        <ele>166</ele>
        <time>2021-08-11T10:23:18Z</time>
      </trkpt>
      <trkpt lat="48.17975" lon="-3.5651">
        <ele>166</ele>
        <time>2021-08-11T10:23:19Z</time>
      </trkpt>
      <trkpt lat="48.17972" lon="-3.56512">
        <ele>166.2</ele>
        <time>2021-08-11T10:23:20Z</time>
      </trkpt>
      <trkpt lat="48.17969" lon="-3.56515">
        <ele>166.2</ele>
        <time>2021-08-11T10:23:21Z</time>
      </trkpt>
      <trkpt lat="48.17966" lon="-3.56518">
        <ele>166.4</ele>
        <time>2021-08-11T10:23:22Z</time>
      </trkpt>
      <trkpt lat="48.17962" lon="-3.56522">
        <ele>166.6</ele>
        <time>2021-08-11T10:23:23Z</time>
      </trkpt>
      <trkpt lat="48.1796" lon="-3.56524">
        <ele>166.6</ele>
        <time>2021-08-11T10:23:24Z</time>
      </trkpt>
      <trkpt lat="48.17956" lon="-3.56528">
        <ele>166.6</ele>
        <time>2021-08-11T10:23:25Z</time>
      </trkpt>
      <trkpt lat="48.17954" lon="-3.5653">
        <ele>166.8</ele>
        <time>2021-08-11T10:23:26Z</time>
      </trkpt>
      <trkpt lat="48.17951" lon="-3.56532">
        <ele>166.8</ele>
        <time>2021-08-11T10:23:27Z</time>
      </trkpt>
      <trkpt lat="48.17948" lon="-3.56534">
        <ele>166.8</ele>
        <time>2021-08-11T10:23:28Z</time>
      </trkpt>
      <trkpt lat="48.17945" lon="-3.56536">
        <ele>167</ele>
        <time>2021-08-11T10:23:29Z</time>
      </trkpt>
      <trkpt lat="48.17942" lon="-3.56539">
        <ele>167</ele>
        <time>2021-08-11T10:23:30Z</time>
      </trkpt>
      <trkpt lat="48.17939" lon="-3.56541">
        <ele>167.2</ele>
        <time>2021-08-11T10:23:31Z</time>
      </trkpt>
      <trkpt lat="48.17936" lon="-3.56544">
        <ele>167.2</ele>
        <time>2021-08-11T10:23:32Z</time>
      </trkpt>
      <trkpt lat="48.17934" lon="-3.56546">
        <ele>167.2</ele>
        <time>2021-08-11T10:23:33Z</time>
      </trkpt>
      <trkpt lat="48.17931" lon="-3.56548">
        <ele>167.4</ele>
        <time>2021-08-11T10:23:34Z</time>
      </trkpt>
      <trkpt lat="48.17928" lon="-3.56551">
        <ele>167.4</ele>
        <time>2021-08-11T10:23:35Z</time>
      </trkpt>
      <trkpt lat="48.17926" lon="-3.56553">
        <ele>167.6</ele>
        <time>2021-08-11T10:23:36Z</time>
      </trkpt>
      <trkpt lat="48.17923" lon="-3.56556">
        <ele>167.8</ele>
        <time>2021-08-11T10:23:37Z</time>
      </trkpt>
      <trkpt lat="48.1792" lon="-3.56558">
        <ele>167.6</ele>
        <time>2021-08-11T10:23:38Z</time>
      </trkpt>
      <trkpt lat="48.17916" lon="-3.5656">
        <ele>168</ele>
        <time>2021-08-11T10:23:39Z</time>
      </trkpt>
      <trkpt lat="48.17914" lon="-3.56563">
        <ele>168</ele>
        <time>2021-08-11T10:23:40Z</time>
      </trkpt>
      <trkpt lat="48.17911" lon="-3.56565">
        <ele>168</ele>
        <time>2021-08-11T10:23:41Z</time>
      </trkpt>
      <trkpt lat="48.17908" lon="-3.56567">
        <ele>168</ele>
        <time>2021-08-11T10:23:42Z</time>
      </trkpt>
      <trkpt lat="48.17904" lon="-3.5657">
        <ele>168</ele>
        <time>2021-08-11T10:23:43Z</time>
      </trkpt>
      <trkpt lat="48.17902" lon="-3.56572">
        <ele>168</ele>
        <time>2021-08-11T10:23:44Z</time>
      </trkpt>
      <trkpt lat="48.179" lon="-3.56574">
        <ele>168</ele>
        <time>2021-08-11T10:23:45Z</time>
      </trkpt>
      <trkpt lat="48.17897" lon="-3.56576">
        <ele>168</ele>
        <time>2021-08-11T10:23:46Z</time>
      </trkpt>
      <trkpt lat="48.17894" lon="-3.56579">
        <ele>168</ele>
        <time>2021-08-11T10:23:47Z</time>
      </trkpt>
      <trkpt lat="48.17892" lon="-3.5658">
        <ele>168.2</ele>
        <time>2021-08-11T10:23:48Z</time>
      </trkpt>
      <trkpt lat="48.17888" lon="-3.56582">
        <ele>168.2</ele>
        <time>2021-08-11T10:23:49Z</time>
      </trkpt>
      <trkpt lat="48.17885" lon="-3.56584">
        <ele>168.2</ele>
        <time>2021-08-11T10:23:50Z</time>
      </trkpt>
      <trkpt lat="48.17881" lon="-3.56586">
        <ele>168.2</ele>
        <time>2021-08-11T10:23:51Z</time>
      </trkpt>
      <trkpt lat="48.17879" lon="-3.56588">
        <ele>168.2</ele>
        <time>2021-08-11T10:23:52Z</time>
      </trkpt>
      <trkpt lat="48.17875" lon="-3.5659">
        <ele>168.4</ele>
        <time>2021-08-11T10:23:53Z</time>
      </trkpt>
      <trkpt lat="48.17871" lon="-3.56592">
        <ele>168.4</ele>
        <time>2021-08-11T10:23:54Z</time>
      </trkpt>
      <trkpt lat="48.17868" lon="-3.56594">
        <ele>168.4</ele>
        <time>2021-08-11T10:23:55Z</time>
      </trkpt>
      <trkpt lat="48.17864" lon="-3.56595">
        <ele>168.4</ele>
        <time>2021-08-11T10:23:56Z</time>
      </trkpt>
      <trkpt lat="48.17861" lon="-3.56597">
        <ele>168.6</ele>
        <time>2021-08-11T10:23:57Z</time>
      </trkpt>
      <trkpt lat="48.17857" lon="-3.56599">
        <ele>168.8</ele>
        <time>2021-08-11T10:23:58Z</time>
      </trkpt>
      <trkpt lat="48.17853" lon="-3.56602">
        <ele>169</ele>
        <time>2021-08-11T10:23:59Z</time>
      </trkpt>
      <trkpt lat="48.1785" lon="-3.56604">
        <ele>169</ele>
        <time>2021-08-11T10:24:00Z</time>
      </trkpt>
      <trkpt lat="48.17846" lon="-3.56606">
        <ele>169.2</ele>
        <time>2021-08-11T10:24:01Z</time>
      </trkpt>
      <trkpt lat="48.17843" lon="-3.56607">
        <ele>169.4</ele>
        <time>2021-08-11T10:24:02Z</time>
      </trkpt>
      <trkpt lat="48.1784" lon="-3.56609">
        <ele>169.4</ele>
        <time>2021-08-11T10:24:03Z</time>
      </trkpt>
      <trkpt lat="48.17836" lon="-3.56611">
        <ele>169.6</ele>
        <time>2021-08-11T10:24:04Z</time>
      </trkpt>
      <trkpt lat="48.17833" lon="-3.56613">
        <ele>169.6</ele>
        <time>2021-08-11T10:24:05Z</time>
      </trkpt>
      <trkpt lat="48.17829" lon="-3.56615">
        <ele>169.6</ele>
        <time>2021-08-11T10:24:06Z</time>
      </trkpt>
      <trkpt lat="48.17826" lon="-3.56617">
        <ele>169.6</ele>
        <time>2021-08-11T10:24:07Z</time>
      </trkpt>
      <trkpt lat="48.17823" lon="-3.56619">
        <ele>169.6</ele>
        <time>2021-08-11T10:24:08Z</time>
      </trkpt>
      <trkpt lat="48.17819" lon="-3.56621">
        <ele>169.8</ele>
        <time>2021-08-11T10:24:09Z</time>
      </trkpt>
      <trkpt lat="48.17816" lon="-3.56624">
        <ele>169.8</ele>
        <time>2021-08-11T10:24:10Z</time>
      </trkpt>
      <trkpt lat="48.17813" lon="-3.56627">
        <ele>170</ele>
        <time>2021-08-11T10:24:11Z</time>
      </trkpt>
      <trkpt lat="48.1781" lon="-3.56629">
        <ele>170</ele>
        <time>2021-08-11T10:24:12Z</time>
      </trkpt>
      <trkpt lat="48.17807" lon="-3.56632">
        <ele>170</ele>
        <time>2021-08-11T10:24:13Z</time>
      </trkpt>
      <trkpt lat="48.17804" lon="-3.56635">
        <ele>170</ele>
        <time>2021-08-11T10:24:14Z</time>
      </trkpt>
      <trkpt lat="48.17802" lon="-3.56637">
        <ele>170.2</ele>
        <time>2021-08-11T10:24:15Z</time>
      </trkpt>
      <trkpt lat="48.178" lon="-3.5664">
        <ele>170.2</ele>
        <time>2021-08-11T10:24:16Z</time>
      </trkpt>
      <trkpt lat="48.17797" lon="-3.56644">
        <ele>170.2</ele>
        <time>2021-08-11T10:24:17Z</time>
      </trkpt>
      <trkpt lat="48.17795" lon="-3.56647">
        <ele>170.4</ele>
        <time>2021-08-11T10:24:18Z</time>
      </trkpt>
      <trkpt lat="48.17792" lon="-3.5665">
        <ele>170.4</ele>
        <time>2021-08-11T10:24:19Z</time>
      </trkpt>
      <trkpt lat="48.17789" lon="-3.56654">
        <ele>170.6</ele>
        <time>2021-08-11T10:24:20Z</time>
      </trkpt>
      <trkpt lat="48.17786" lon="-3.56658">
        <ele>170.6</ele>
        <time>2021-08-11T10:24:21Z</time>
      </trkpt>
      <trkpt lat="48.17784" lon="-3.56662">
        <ele>170.8</ele>
        <time>2021-08-11T10:24:22Z</time>
      </trkpt>
      <trkpt lat="48.17782" lon="-3.56665">
        <ele>170.8</ele>
        <time>2021-08-11T10:24:23Z</time>
      </trkpt>
      <trkpt lat="48.17779" lon="-3.5667">
        <ele>171</ele>
        <time>2021-08-11T10:24:24Z</time>
      </trkpt>
      <trkpt lat="48.17777" lon="-3.56674">
        <ele>171</ele>
        <time>2021-08-11T10:24:25Z</time>
      </trkpt>
      <trkpt lat="48.17773" lon="-3.56678">
        <ele>171.2</ele>
        <time>2021-08-11T10:24:26Z</time>
      </trkpt>
      <trkpt lat="48.1777" lon="-3.56682">
        <ele>171.2</ele>
        <time>2021-08-11T10:24:27Z</time>
      </trkpt>
      <trkpt lat="48.17766" lon="-3.56686">
        <ele>171.2</ele>
        <time>2021-08-11T10:24:28Z</time>
      </trkpt>
      <trkpt lat="48.17764" lon="-3.5669">
        <ele>171.4</ele>
        <time>2021-08-11T10:24:29Z</time>
      </trkpt>
      <trkpt lat="48.17761" lon="-3.56693">
        <ele>171.4</ele>
        <time>2021-08-11T10:24:30Z</time>
      </trkpt>
      <trkpt lat="48.17759" lon="-3.56697">
        <ele>171.4</ele>
        <time>2021-08-11T10:24:31Z</time>
      </trkpt>
      <trkpt lat="48.17757" lon="-3.56701">
        <ele>171.4</ele>
        <time>2021-08-11T10:24:32Z</time>
      </trkpt>
      <trkpt lat="48.17754" lon="-3.56705">
        <ele>171.6</ele>
        <time>2021-08-11T10:24:33Z</time>
      </trkpt>
      <trkpt lat="48.17752" lon="-3.56709">
        <ele>171.6</ele>
        <time>2021-08-11T10:24:34Z</time>
      </trkpt>
      <trkpt lat="48.17751" lon="-3.56712">
        <ele>171.6</ele>
        <time>2021-08-11T10:24:35Z</time>
      </trkpt>
      <trkpt lat="48.17749" lon="-3.56716">
        <ele>171.6</ele>
        <time>2021-08-11T10:24:36Z</time>
      </trkpt>
      <trkpt lat="48.17748" lon="-3.5672">
        <ele>171.8</ele>
        <time>2021-08-11T10:24:37Z</time>
      </trkpt>
      <trkpt lat="48.17746" lon="-3.56723">
        <ele>171.8</ele>
        <time>2021-08-11T10:24:38Z</time>
      </trkpt>
      <trkpt lat="48.17744" lon="-3.56727">
        <ele>171.8</ele>
        <time>2021-08-11T10:24:39Z</time>
      </trkpt>
      <trkpt lat="48.17743" lon="-3.56731">
        <ele>171.8</ele>
        <time>2021-08-11T10:24:40Z</time>
      </trkpt>
      <trkpt lat="48.1774" lon="-3.56734">
        <ele>172</ele>
        <time>2021-08-11T10:24:41Z</time>
      </trkpt>
      <trkpt lat="48.17738" lon="-3.56737">
        <ele>172.2</ele>
        <time>2021-08-11T10:24:42Z</time>
      </trkpt>
      <trkpt lat="48.17738" lon="-3.56739">
        <ele>172.2</ele>
        <time>2021-08-11T10:24:43Z</time>
      </trkpt>
      <trkpt lat="48.17735" lon="-3.56743">
        <ele>172.4</ele>
        <time>2021-08-11T10:24:44Z</time>
      </trkpt>
      <trkpt lat="48.17734" lon="-3.56747">
        <ele>172.4</ele>
        <time>2021-08-11T10:24:45Z</time>
      </trkpt>
      <trkpt lat="48.17731" lon="-3.56751">
        <ele>172.6</ele>
        <time>2021-08-11T10:24:46Z</time>
      </trkpt>
      <trkpt lat="48.17728" lon="-3.56755">
        <ele>172.6</ele>
        <time>2021-08-11T10:24:47Z</time>
      </trkpt>
      <trkpt lat="48.17726" lon="-3.56759">
        <ele>172.6</ele>
        <time>2021-08-11T10:24:48Z</time>
      </trkpt>
      <trkpt lat="48.17723" lon="-3.56763">
        <ele>172.6</ele>
        <time>2021-08-11T10:24:49Z</time>
      </trkpt>
      <trkpt lat="48.1772" lon="-3.56766">
        <ele>172.8</ele>
        <time>2021-08-11T10:24:50Z</time>
      </trkpt>
      <trkpt lat="48.17717" lon="-3.5677">
        <ele>172.8</ele>
        <time>2021-08-11T10:24:51Z</time>
      </trkpt>
      <trkpt lat="48.17715" lon="-3.56774">
        <ele>172.8</ele>
        <time>2021-08-11T10:24:52Z</time>
      </trkpt>
      <trkpt lat="48.17712" lon="-3.56777">
        <ele>172.8</ele>
        <time>2021-08-11T10:24:53Z</time>
      </trkpt>
      <trkpt lat="48.17709" lon="-3.56781">
        <ele>173</ele>
        <time>2021-08-11T10:24:54Z</time>
      </trkpt>
      <trkpt lat="48.17707" lon="-3.56785">
        <ele>173.2</ele>
        <time>2021-08-11T10:24:55Z</time>
      </trkpt>
      <trkpt lat="48.17704" lon="-3.56789">
        <ele>173.2</ele>
        <time>2021-08-11T10:24:56Z</time>
      </trkpt>
      <trkpt lat="48.17701" lon="-3.56792">
        <ele>173.4</ele>
        <time>2021-08-11T10:24:57Z</time>
      </trkpt>
      <trkpt lat="48.17698" lon="-3.56796">
        <ele>173.4</ele>
        <time>2021-08-11T10:24:58Z</time>
      </trkpt>
      <trkpt lat="48.17695" lon="-3.568">
        <ele>173.4</ele>
        <time>2021-08-11T10:24:59Z</time>
      </trkpt>
      <trkpt lat="48.17693" lon="-3.56804">
        <ele>173.6</ele>
        <time>2021-08-11T10:25:00Z</time>
      </trkpt>
      <trkpt lat="48.17692" lon="-3.56807">
        <ele>173.6</ele>
        <time>2021-08-11T10:25:01Z</time>
      </trkpt>
      <trkpt lat="48.1769" lon="-3.56812">
        <ele>173.6</ele>
        <time>2021-08-11T10:25:02Z</time>
      </trkpt>
      <trkpt lat="48.17687" lon="-3.56815">
        <ele>173.6</ele>
        <time>2021-08-11T10:25:03Z</time>
      </trkpt>
      <trkpt lat="48.17685" lon="-3.56819">
        <ele>173.6</ele>
        <time>2021-08-11T10:25:04Z</time>
      </trkpt>
      <trkpt lat="48.17684" lon="-3.56822">
        <ele>173.6</ele>
        <time>2021-08-11T10:25:05Z</time>
      </trkpt>
      <trkpt lat="48.17683" lon="-3.56824">
        <ele>173.8</ele>
        <time>2021-08-11T10:25:06Z</time>
      </trkpt>
      <trkpt lat="48.17683" lon="-3.56827">
        <ele>173.8</ele>
        <time>2021-08-11T10:25:07Z</time>
      </trkpt>
      <trkpt lat="48.17681" lon="-3.5683">
        <ele>173.8</ele>
        <time>2021-08-11T10:25:08Z</time>
      </trkpt>
      <trkpt lat="48.17679" lon="-3.56834">
        <ele>173.8</ele>
        <time>2021-08-11T10:25:09Z</time>
      </trkpt>
      <trkpt lat="48.17676" lon="-3.56838">
        <ele>173.8</ele>
        <time>2021-08-11T10:25:10Z</time>
      </trkpt>
      <trkpt lat="48.17674" lon="-3.56844">
        <ele>174</ele>
        <time>2021-08-11T10:25:11Z</time>
      </trkpt>
      <trkpt lat="48.17666" lon="-3.56854">
        <ele>174</ele>
        <time>2021-08-11T10:25:12Z</time>
      </trkpt>
      <trkpt lat="48.17661" lon="-3.5686">
        <ele>174.2</ele>
        <time>2021-08-11T10:25:13Z</time>
      </trkpt>
      <trkpt lat="48.17656" lon="-3.56866">
        <ele>174.2</ele>
        <time>2021-08-11T10:25:14Z</time>
      </trkpt>
      <trkpt lat="48.17653" lon="-3.56867">
        <ele>174.2</ele>
        <time>2021-08-11T10:25:15Z</time>
      </trkpt>
      <trkpt lat="48.17648" lon="-3.56871">
        <ele>174.4</ele>
        <time>2021-08-11T10:25:16Z</time>
      </trkpt>
      <trkpt lat="48.17646" lon="-3.56874">
        <ele>174.4</ele>
        <time>2021-08-11T10:25:17Z</time>
      </trkpt>
      <trkpt lat="48.17642" lon="-3.56876">
        <ele>174.4</ele>
        <time>2021-08-11T10:25:18Z</time>
      </trkpt>
      <trkpt lat="48.1764" lon="-3.56879">
        <ele>174.6</ele>
        <time>2021-08-11T10:25:19Z</time>
      </trkpt>
      <trkpt lat="48.17638" lon="-3.56882">
        <ele>174.6</ele>
        <time>2021-08-11T10:25:20Z</time>
      </trkpt>
      <trkpt lat="48.17635" lon="-3.56885">
        <ele>174.8</ele>
        <time>2021-08-11T10:25:21Z</time>
      </trkpt>
      <trkpt lat="48.17633" lon="-3.56889">
        <ele>174.8</ele>
        <time>2021-08-11T10:25:22Z</time>
      </trkpt>
      <trkpt lat="48.1763" lon="-3.56893">
        <ele>175</ele>
        <time>2021-08-11T10:25:23Z</time>
      </trkpt>
      <trkpt lat="48.17628" lon="-3.56897">
        <ele>175</ele>
        <time>2021-08-11T10:25:24Z</time>
      </trkpt>
      <trkpt lat="48.17625" lon="-3.56902">
        <ele>175.2</ele>
        <time>2021-08-11T10:25:25Z</time>
      </trkpt>
      <trkpt lat="48.17623" lon="-3.56906">
        <ele>175.4</ele>
        <time>2021-08-11T10:25:26Z</time>
      </trkpt>
      <trkpt lat="48.17621" lon="-3.5691">
        <ele>175.4</ele>
        <time>2021-08-11T10:25:27Z</time>
      </trkpt>
      <trkpt lat="48.17618" lon="-3.56913">
        <ele>175.6</ele>
        <time>2021-08-11T10:25:28Z</time>
      </trkpt>
      <trkpt lat="48.17617" lon="-3.56915">
        <ele>175.6</ele>
        <time>2021-08-11T10:25:29Z</time>
      </trkpt>
      <trkpt lat="48.17615" lon="-3.56919">
        <ele>175.6</ele>
        <time>2021-08-11T10:25:30Z</time>
      </trkpt>
      <trkpt lat="48.17612" lon="-3.56922">
        <ele>175.8</ele>
        <time>2021-08-11T10:25:31Z</time>
      </trkpt>
      <trkpt lat="48.17611" lon="-3.56925">
        <ele>175.8</ele>
        <time>2021-08-11T10:25:32Z</time>
      </trkpt>
      <trkpt lat="48.17609" lon="-3.56929">
        <ele>176</ele>
        <time>2021-08-11T10:25:33Z</time>
      </trkpt>
      <trkpt lat="48.17607" lon="-3.56932">
        <ele>176</ele>
        <time>2021-08-11T10:25:34Z</time>
      </trkpt>
      <trkpt lat="48.17604" lon="-3.56936">
        <ele>176.2</ele>
        <time>2021-08-11T10:25:35Z</time>
      </trkpt>
      <trkpt lat="48.17602" lon="-3.56938">
        <ele>176.2</ele>
        <time>2021-08-11T10:25:36Z</time>
      </trkpt>
      <trkpt lat="48.17602" lon="-3.56941">
        <ele>176.2</ele>
        <time>2021-08-11T10:25:37Z</time>
      </trkpt>
      <trkpt lat="48.176" lon="-3.56944">
        <ele>176.2</ele>
        <time>2021-08-11T10:25:38Z</time>
      </trkpt>
      <trkpt lat="48.17599" lon="-3.56947">
        <ele>176.2</ele>
        <time>2021-08-11T10:25:39Z</time>
      </trkpt>
      <trkpt lat="48.17597" lon="-3.5695">
        <ele>176.4</ele>
        <time>2021-08-11T10:25:40Z</time>
      </trkpt>
      <trkpt lat="48.17595" lon="-3.56953">
        <ele>176.4</ele>
        <time>2021-08-11T10:25:41Z</time>
      </trkpt>
      <trkpt lat="48.17593" lon="-3.56957">
        <ele>176.6</ele>
        <time>2021-08-11T10:25:42Z</time>
      </trkpt>
      <trkpt lat="48.17591" lon="-3.5696">
        <ele>176.6</ele>
        <time>2021-08-11T10:25:43Z</time>
      </trkpt>
      <trkpt lat="48.1759" lon="-3.56963">
        <ele>176.8</ele>
        <time>2021-08-11T10:25:44Z</time>
      </trkpt>
      <trkpt lat="48.17587" lon="-3.56966">
        <ele>176.8</ele>
        <time>2021-08-11T10:25:45Z</time>
      </trkpt>
      <trkpt lat="48.17585" lon="-3.56969">
        <ele>176.8</ele>
        <time>2021-08-11T10:25:46Z</time>
      </trkpt>
      <trkpt lat="48.17582" lon="-3.56973">
        <ele>177</ele>
        <time>2021-08-11T10:25:47Z</time>
      </trkpt>
      <trkpt lat="48.17578" lon="-3.56978">
        <ele>177</ele>
        <time>2021-08-11T10:25:48Z</time>
      </trkpt>
      <trkpt lat="48.17575" lon="-3.56982">
        <ele>177.2</ele>
        <time>2021-08-11T10:25:49Z</time>
      </trkpt>
      <trkpt lat="48.17571" lon="-3.56987">
        <ele>177.2</ele>
        <time>2021-08-11T10:25:50Z</time>
      </trkpt>
      <trkpt lat="48.17569" lon="-3.56992">
        <ele>177.2</ele>
        <time>2021-08-11T10:25:51Z</time>
      </trkpt>
      <trkpt lat="48.17566" lon="-3.56997">
        <ele>177.2</ele>
        <time>2021-08-11T10:25:52Z</time>
      </trkpt>
      <trkpt lat="48.17562" lon="-3.57003">
        <ele>177.4</ele>
        <time>2021-08-11T10:25:53Z</time>
      </trkpt>
      <trkpt lat="48.17559" lon="-3.57008">
        <ele>177.4</ele>
        <time>2021-08-11T10:25:54Z</time>
      </trkpt>
      <trkpt lat="48.17555" lon="-3.57015">
        <ele>177.4</ele>
        <time>2021-08-11T10:25:55Z</time>
      </trkpt>
      <trkpt lat="48.17551" lon="-3.5702">
        <ele>177.6</ele>
        <time>2021-08-11T10:25:56Z</time>
      </trkpt>
      <trkpt lat="48.17549" lon="-3.57024">
        <ele>177.6</ele>
        <time>2021-08-11T10:25:57Z</time>
      </trkpt>
      <trkpt lat="48.17545" lon="-3.57029">
        <ele>177.6</ele>
        <time>2021-08-11T10:25:58Z</time>
      </trkpt>
      <trkpt lat="48.17542" lon="-3.57036">
        <ele>177.6</ele>
        <time>2021-08-11T10:25:59Z</time>
      </trkpt>
      <trkpt lat="48.17537" lon="-3.57042">
        <ele>177.6</ele>
        <time>2021-08-11T10:26:00Z</time>
      </trkpt>
      <trkpt lat="48.17532" lon="-3.5705">
        <ele>177.6</ele>
        <time>2021-08-11T10:26:01Z</time>
      </trkpt>
      <trkpt lat="48.17527" lon="-3.57057">
        <ele>177.8</ele>
        <time>2021-08-11T10:26:02Z</time>
      </trkpt>
      <trkpt lat="48.17524" lon="-3.57064">
        <ele>177.8</ele>
        <time>2021-08-11T10:26:03Z</time>
      </trkpt>
      <trkpt lat="48.17522" lon="-3.57071">
        <ele>177.8</ele>
        <time>2021-08-11T10:26:04Z</time>
      </trkpt>
      <trkpt lat="48.1752" lon="-3.57077">
        <ele>177.8</ele>
        <time>2021-08-11T10:26:05Z</time>
      </trkpt>
      <trkpt lat="48.17518" lon="-3.57083">
        <ele>177.8</ele>
        <time>2021-08-11T10:26:06Z</time>
      </trkpt>
      <trkpt lat="48.17515" lon="-3.5709">
        <ele>177.8</ele>
        <time>2021-08-11T10:26:07Z</time>
      </trkpt>
      <trkpt lat="48.17513" lon="-3.57096">
        <ele>177.8</ele>
        <time>2021-08-11T10:26:08Z</time>
      </trkpt>
      <trkpt lat="48.17511" lon="-3.57103">
        <ele>178</ele>
        <time>2021-08-11T10:26:09Z</time>
      </trkpt>
      <trkpt lat="48.17509" lon="-3.57109">
        <ele>178</ele>
        <time>2021-08-11T10:26:10Z</time>
      </trkpt>
      <trkpt lat="48.17508" lon="-3.57115">
        <ele>178</ele>
        <time>2021-08-11T10:26:11Z</time>
      </trkpt>
      <trkpt lat="48.17508" lon="-3.57121">
        <ele>178</ele>
        <time>2021-08-11T10:26:12Z</time>
      </trkpt>
      <trkpt lat="48.17507" lon="-3.57128">
        <ele>178</ele>
        <time>2021-08-11T10:26:13Z</time>
      </trkpt>
      <trkpt lat="48.17507" lon="-3.57134">
        <ele>178.2</ele>
        <time>2021-08-11T10:26:14Z</time>
      </trkpt>
      <trkpt lat="48.17508" lon="-3.57141">
        <ele>178.4</ele>
        <time>2021-08-11T10:26:15Z</time>
      </trkpt>
      <trkpt lat="48.17508" lon="-3.57148">
        <ele>178.4</ele>
        <time>2021-08-11T10:26:16Z</time>
      </trkpt>
      <trkpt lat="48.17509" lon="-3.57154">
        <ele>178.6</ele>
        <time>2021-08-11T10:26:17Z</time>
      </trkpt>
      <trkpt lat="48.17508" lon="-3.5716">
        <ele>178.6</ele>
        <time>2021-08-11T10:26:18Z</time>
      </trkpt>
      <trkpt lat="48.17506" lon="-3.57166">
        <ele>178.6</ele>
        <time>2021-08-11T10:26:19Z</time>
      </trkpt>
      <trkpt lat="48.17505" lon="-3.57172">
        <ele>178.6</ele>
        <time>2021-08-11T10:26:20Z</time>
      </trkpt>
      <trkpt lat="48.17503" lon="-3.57178">
        <ele>178.8</ele>
        <time>2021-08-11T10:26:21Z</time>
      </trkpt>
      <trkpt lat="48.17502" lon="-3.57183">
        <ele>178.8</ele>
        <time>2021-08-11T10:26:22Z</time>
      </trkpt>
      <trkpt lat="48.17503" lon="-3.57188">
        <ele>179</ele>
        <time>2021-08-11T10:26:23Z</time>
      </trkpt>
      <trkpt lat="48.17504" lon="-3.57193">
        <ele>179.2</ele>
        <time>2021-08-11T10:26:24Z</time>
      </trkpt>
      <trkpt lat="48.17503" lon="-3.57199">
        <ele>179.4</ele>
        <time>2021-08-11T10:26:25Z</time>
      </trkpt>
      <trkpt lat="48.17503" lon="-3.57204">
        <ele>179.4</ele>
        <time>2021-08-11T10:26:26Z</time>
      </trkpt>
      <trkpt lat="48.17503" lon="-3.5721">
        <ele>179.4</ele>
        <time>2021-08-11T10:26:27Z</time>
      </trkpt>
      <trkpt lat="48.17501" lon="-3.57216">
        <ele>179.6</ele>
        <time>2021-08-11T10:26:28Z</time>
      </trkpt>
      <trkpt lat="48.175" lon="-3.57222">
        <ele>179.6</ele>
        <time>2021-08-11T10:26:29Z</time>
      </trkpt>
      <trkpt lat="48.17499" lon="-3.57228">
        <ele>179.6</ele>
        <time>2021-08-11T10:26:30Z</time>
      </trkpt>
      <trkpt lat="48.17498" lon="-3.57232">
        <ele>179.8</ele>
        <time>2021-08-11T10:26:31Z</time>
      </trkpt>
      <trkpt lat="48.17498" lon="-3.57237">
        <ele>179.8</ele>
        <time>2021-08-11T10:26:32Z</time>
      </trkpt>
      <trkpt lat="48.17498" lon="-3.57241">
        <ele>179.8</ele>
        <time>2021-08-11T10:26:33Z</time>
      </trkpt>
      <trkpt lat="48.17497" lon="-3.57246">
        <ele>180</ele>
        <time>2021-08-11T10:26:34Z</time>
      </trkpt>
      <trkpt lat="48.17496" lon="-3.57251">
        <ele>180</ele>
        <time>2021-08-11T10:26:35Z</time>
      </trkpt>
      <trkpt lat="48.17496" lon="-3.57256">
        <ele>180</ele>
        <time>2021-08-11T10:26:36Z</time>
      </trkpt>
      <trkpt lat="48.17495" lon="-3.57261">
        <ele>180</ele>
        <time>2021-08-11T10:26:37Z</time>
      </trkpt>
      <trkpt lat="48.17492" lon="-3.57267">
        <ele>180.2</ele>
        <time>2021-08-11T10:26:38Z</time>
      </trkpt>
      <trkpt lat="48.17491" lon="-3.57271">
        <ele>180.2</ele>
        <time>2021-08-11T10:26:39Z</time>
      </trkpt>
      <trkpt lat="48.1749" lon="-3.57275">
        <ele>180.2</ele>
        <time>2021-08-11T10:26:40Z</time>
      </trkpt>
      <trkpt lat="48.17488" lon="-3.57279">
        <ele>180.2</ele>
        <time>2021-08-11T10:26:41Z</time>
      </trkpt>
      <trkpt lat="48.17486" lon="-3.57283">
        <ele>180.4</ele>
        <time>2021-08-11T10:26:42Z</time>
      </trkpt>
      <trkpt lat="48.17484" lon="-3.57285">
        <ele>180.4</ele>
        <time>2021-08-11T10:26:43Z</time>
      </trkpt>
      <trkpt lat="48.17482" lon="-3.57288">
        <ele>180.4</ele>
        <time>2021-08-11T10:26:44Z</time>
      </trkpt>
      <trkpt lat="48.1748" lon="-3.57292">
        <ele>180.6</ele>
        <time>2021-08-11T10:26:45Z</time>
      </trkpt>
      <trkpt lat="48.17479" lon="-3.57296">
        <ele>180.6</ele>
        <time>2021-08-11T10:26:46Z</time>
      </trkpt>
      <trkpt lat="48.17478" lon="-3.573">
        <ele>180.6</ele>
        <time>2021-08-11T10:26:47Z</time>
      </trkpt>
      <trkpt lat="48.17478" lon="-3.57302">
        <ele>180.8</ele>
        <time>2021-08-11T10:26:48Z</time>
      </trkpt>
      <trkpt lat="48.17477" lon="-3.57305">
        <ele>181.2</ele>
        <time>2021-08-11T10:26:49Z</time>
      </trkpt>
      <trkpt lat="48.17477" lon="-3.57307">
        <ele>181.4</ele>
        <time>2021-08-11T10:26:50Z</time>
      </trkpt>
      <trkpt lat="48.17476" lon="-3.5731">
        <ele>181.4</ele>
        <time>2021-08-11T10:26:51Z</time>
      </trkpt>
      <trkpt lat="48.17475" lon="-3.57311">
        <ele>181.6</ele>
        <time>2021-08-11T10:26:52Z</time>
      </trkpt>
      <trkpt lat="48.17474" lon="-3.57313">
        <ele>181.6</ele>
        <time>2021-08-11T10:26:53Z</time>
      </trkpt>
      <trkpt lat="48.17473" lon="-3.57315">
        <ele>181.6</ele>
        <time>2021-08-11T10:26:54Z</time>
      </trkpt>
      <trkpt lat="48.17472" lon="-3.57318">
        <ele>181.6</ele>
        <time>2021-08-11T10:26:55Z</time>
      </trkpt>
      <trkpt lat="48.1747" lon="-3.57321">
        <ele>181.6</ele>
        <time>2021-08-11T10:26:56Z</time>
      </trkpt>
      <trkpt lat="48.17469" lon="-3.57323">
        <ele>181.8</ele>
        <time>2021-08-11T10:26:57Z</time>
      </trkpt>
      <trkpt lat="48.17457" lon="-3.5733">
        <ele>181.8</ele>
        <time>2021-08-11T10:27:34Z</time>
      </trkpt>
      <trkpt lat="48.17455" lon="-3.57329">
        <ele>181.8</ele>
        <time>2021-08-11T10:27:35Z</time>
      </trkpt>
      <trkpt lat="48.17453" lon="-3.57328">
        <ele>181.8</ele>
        <time>2021-08-11T10:27:36Z</time>
      </trkpt>
      <trkpt lat="48.17451" lon="-3.57325">
        <ele>181.8</ele>
        <time>2021-08-11T10:27:37Z</time>
      </trkpt>
      <trkpt lat="48.17449" lon="-3.57324">
        <ele>181.8</ele>
        <time>2021-08-11T10:27:38Z</time>
      </trkpt>
      <trkpt lat="48.17446" lon="-3.57323">
        <ele>181.8</ele>
        <time>2021-08-11T10:27:39Z</time>
      </trkpt>
      <trkpt lat="48.17444" lon="-3.57322">
        <ele>181.8</ele>
        <time>2021-08-11T10:27:40Z</time>
      </trkpt>
      <trkpt lat="48.17442" lon="-3.57322">
        <ele>181.8</ele>
        <time>2021-08-11T10:27:41Z</time>
      </trkpt>
      <trkpt lat="48.1744" lon="-3.57321">
        <ele>181.8</ele>
        <time>2021-08-11T10:27:42Z</time>
      </trkpt>
      <trkpt lat="48.17438" lon="-3.57322">
        <ele>181.8</ele>
        <time>2021-08-11T10:27:43Z</time>
      </trkpt>
      <trkpt lat="48.17437" lon="-3.57324">
        <ele>181.8</ele>
        <time>2021-08-11T10:27:44Z</time>
      </trkpt>
      <trkpt lat="48.17435" lon="-3.57325">
        <ele>181.8</ele>
        <time>2021-08-11T10:27:45Z</time>
      </trkpt>
      <trkpt lat="48.17433" lon="-3.57327">
        <ele>181.8</ele>
        <time>2021-08-11T10:27:46Z</time>
      </trkpt>
      <trkpt lat="48.17431" lon="-3.5733">
        <ele>181.8</ele>
        <time>2021-08-11T10:27:47Z</time>
      </trkpt>
      <trkpt lat="48.17429" lon="-3.57334">
        <ele>181.8</ele>
        <time>2021-08-11T10:27:48Z</time>
      </trkpt>
      <trkpt lat="48.17426" lon="-3.57337">
        <ele>182</ele>
        <time>2021-08-11T10:27:49Z</time>
      </trkpt>
      <trkpt lat="48.17424" lon="-3.57341">
        <ele>182</ele>
        <time>2021-08-11T10:27:50Z</time>
      </trkpt>
      <trkpt lat="48.17422" lon="-3.57345">
        <ele>182.2</ele>
        <time>2021-08-11T10:27:51Z</time>
      </trkpt>
      <trkpt lat="48.17419" lon="-3.57349">
        <ele>182.4</ele>
        <time>2021-08-11T10:27:52Z</time>
      </trkpt>
      <trkpt lat="48.17417" lon="-3.57353">
        <ele>182.6</ele>
        <time>2021-08-11T10:27:53Z</time>
      </trkpt>
      <trkpt lat="48.17414" lon="-3.57357">
        <ele>182.8</ele>
        <time>2021-08-11T10:27:54Z</time>
      </trkpt>
      <trkpt lat="48.17412" lon="-3.57361">
        <ele>182.8</ele>
        <time>2021-08-11T10:27:55Z</time>
      </trkpt>
      <trkpt lat="48.1741" lon="-3.57366">
        <ele>182.8</ele>
        <time>2021-08-11T10:27:56Z</time>
      </trkpt>
      <trkpt lat="48.17407" lon="-3.57371">
        <ele>182.8</ele>
        <time>2021-08-11T10:27:57Z</time>
      </trkpt>
      <trkpt lat="48.17405" lon="-3.57375">
        <ele>182.8</ele>
        <time>2021-08-11T10:27:58Z</time>
      </trkpt>
      <trkpt lat="48.17403" lon="-3.5738">
        <ele>182.8</ele>
        <time>2021-08-11T10:27:59Z</time>
      </trkpt>
      <trkpt lat="48.174" lon="-3.57385">
        <ele>183</ele>
        <time>2021-08-11T10:28:00Z</time>
      </trkpt>
      <trkpt lat="48.17398" lon="-3.5739">
        <ele>183</ele>
        <time>2021-08-11T10:28:01Z</time>
      </trkpt>
      <trkpt lat="48.17396" lon="-3.57395">
        <ele>183</ele>
        <time>2021-08-11T10:28:02Z</time>
      </trkpt>
      <trkpt lat="48.17393" lon="-3.574">
        <ele>183</ele>
        <time>2021-08-11T10:28:03Z</time>
      </trkpt>
      <trkpt lat="48.17391" lon="-3.57406">
        <ele>183</ele>
        <time>2021-08-11T10:28:04Z</time>
      </trkpt>
      <trkpt lat="48.17389" lon="-3.57411">
        <ele>183.2</ele>
        <time>2021-08-11T10:28:05Z</time>
      </trkpt>
      <trkpt lat="48.17386" lon="-3.57417">
        <ele>183.2</ele>
        <time>2021-08-11T10:28:06Z</time>
      </trkpt>
      <trkpt lat="48.17384" lon="-3.57422">
        <ele>183.2</ele>
        <time>2021-08-11T10:28:07Z</time>
      </trkpt>
      <trkpt lat="48.17381" lon="-3.57428">
        <ele>183.2</ele>
        <time>2021-08-11T10:28:08Z</time>
      </trkpt>
      <trkpt lat="48.17379" lon="-3.57433">
        <ele>183.2</ele>
        <time>2021-08-11T10:28:09Z</time>
      </trkpt>
      <trkpt lat="48.17376" lon="-3.57438">
        <ele>183.2</ele>
        <time>2021-08-11T10:28:10Z</time>
      </trkpt>
      <trkpt lat="48.17374" lon="-3.57443">
        <ele>183.2</ele>
        <time>2021-08-11T10:28:11Z</time>
      </trkpt>
      <trkpt lat="48.17371" lon="-3.57447">
        <ele>183.2</ele>
        <time>2021-08-11T10:28:12Z</time>
      </trkpt>
      <trkpt lat="48.17368" lon="-3.5745">
        <ele>183.2</ele>
        <time>2021-08-11T10:28:13Z</time>
      </trkpt>
      <trkpt lat="48.17365" lon="-3.57452">
        <ele>183.2</ele>
        <time>2021-08-11T10:28:14Z</time>
      </trkpt>
      <trkpt lat="48.17363" lon="-3.57452">
        <ele>183.4</ele>
        <time>2021-08-11T10:28:15Z</time>
      </trkpt>
      <trkpt lat="48.17361" lon="-3.57451">
        <ele>183.4</ele>
        <time>2021-08-11T10:28:16Z</time>
      </trkpt>
      <trkpt lat="48.17359" lon="-3.57451">
        <ele>183.4</ele>
        <time>2021-08-11T10:28:17Z</time>
      </trkpt>
      <trkpt lat="48.17357" lon="-3.57452">
        <ele>183.6</ele>
        <time>2021-08-11T10:28:18Z</time>
      </trkpt>
      <trkpt lat="48.17355" lon="-3.57454">
        <ele>183.6</ele>
        <time>2021-08-11T10:28:19Z</time>
      </trkpt>
      <trkpt lat="48.17353" lon="-3.57455">
        <ele>183.8</ele>
        <time>2021-08-11T10:28:20Z</time>
      </trkpt>
      <trkpt lat="48.17353" lon="-3.57455">
        <ele>184</ele>
        <time>2021-08-11T10:28:21Z</time>
      </trkpt>
      <trkpt lat="48.17353" lon="-3.57455">
        <ele>184.4</ele>
        <time>2021-08-11T10:28:22Z</time>
      </trkpt>
      <trkpt lat="48.17353" lon="-3.57455">
        <ele>184.8</ele>
        <time>2021-08-11T10:28:23Z</time>
      </trkpt>
      <trkpt lat="48.17353" lon="-3.57455">
        <ele>185.2</ele>
        <time>2021-08-11T10:28:24Z</time>
      </trkpt>
      <trkpt lat="48.17353" lon="-3.57455">
        <ele>185.4</ele>
        <time>2021-08-11T10:28:25Z</time>
      </trkpt>
      <trkpt lat="48.1734" lon="-3.57447">
        <ele>185.6</ele>
        <time>2021-08-11T10:28:26Z</time>
      </trkpt>
      <trkpt lat="48.17337" lon="-3.5744">
        <ele>185.8</ele>
        <time>2021-08-11T10:28:27Z</time>
      </trkpt>
      <trkpt lat="48.17334" lon="-3.57437">
        <ele>186</ele>
        <time>2021-08-11T10:28:28Z</time>
      </trkpt>
      <trkpt lat="48.1733" lon="-3.57433">
        <ele>186</ele>
        <time>2021-08-11T10:28:29Z</time>
      </trkpt>
      <trkpt lat="48.17327" lon="-3.5743">
        <ele>186</ele>
        <time>2021-08-11T10:28:30Z</time>
      </trkpt>
      <trkpt lat="48.17323" lon="-3.57427">
        <ele>186.2</ele>
        <time>2021-08-11T10:28:31Z</time>
      </trkpt>
      <trkpt lat="48.17321" lon="-3.57425">
        <ele>186.2</ele>
        <time>2021-08-11T10:28:32Z</time>
      </trkpt>
      <trkpt lat="48.17319" lon="-3.57422">
        <ele>186.4</ele>
        <time>2021-08-11T10:28:33Z</time>
      </trkpt>
      <trkpt lat="48.17317" lon="-3.57419">
        <ele>186.6</ele>
        <time>2021-08-11T10:28:34Z</time>
      </trkpt>
      <trkpt lat="48.17314" lon="-3.57417">
        <ele>186.8</ele>
        <time>2021-08-11T10:28:35Z</time>
      </trkpt>
      <trkpt lat="48.17313" lon="-3.57415">
        <ele>186.8</ele>
        <time>2021-08-11T10:28:36Z</time>
      </trkpt>
      <trkpt lat="48.17311" lon="-3.57413">
        <ele>187</ele>
        <time>2021-08-11T10:28:37Z</time>
      </trkpt>
      <trkpt lat="48.17309" lon="-3.57411">
        <ele>187.2</ele>
        <time>2021-08-11T10:28:38Z</time>
      </trkpt>
      <trkpt lat="48.17307" lon="-3.57409">
        <ele>187.4</ele>
        <time>2021-08-11T10:28:39Z</time>
      </trkpt>
      <trkpt lat="48.17304" lon="-3.57408">
        <ele>187.6</ele>
        <time>2021-08-11T10:28:40Z</time>
      </trkpt>
      <trkpt lat="48.17301" lon="-3.57407">
        <ele>187.8</ele>
        <time>2021-08-11T10:28:41Z</time>
      </trkpt>
      <trkpt lat="48.17299" lon="-3.57407">
        <ele>188</ele>
        <time>2021-08-11T10:28:42Z</time>
      </trkpt>
      <trkpt lat="48.17296" lon="-3.57408">
        <ele>188</ele>
        <time>2021-08-11T10:28:43Z</time>
      </trkpt>
      <trkpt lat="48.17294" lon="-3.57409">
        <ele>188.2</ele>
        <time>2021-08-11T10:28:44Z</time>
      </trkpt>
      <trkpt lat="48.17293" lon="-3.5741">
        <ele>188.4</ele>
        <time>2021-08-11T10:28:45Z</time>
      </trkpt>
      <trkpt lat="48.17291" lon="-3.57411">
        <ele>188.6</ele>
        <time>2021-08-11T10:28:46Z</time>
      </trkpt>
      <trkpt lat="48.17289" lon="-3.57412">
        <ele>188.8</ele>
        <time>2021-08-11T10:28:47Z</time>
      </trkpt>
      <trkpt lat="48.17288" lon="-3.57414">
        <ele>189</ele>
        <time>2021-08-11T10:28:48Z</time>
      </trkpt>
      <trkpt lat="48.17286" lon="-3.57415">
        <ele>189.2</ele>
        <time>2021-08-11T10:28:49Z</time>
      </trkpt>
      <trkpt lat="48.17283" lon="-3.57416">
        <ele>189.4</ele>
        <time>2021-08-11T10:28:50Z</time>
      </trkpt>
      <trkpt lat="48.17282" lon="-3.57417">
        <ele>189.6</ele>
        <time>2021-08-11T10:28:51Z</time>
      </trkpt>
      <trkpt lat="48.1728" lon="-3.57418">
        <ele>189.6</ele>
        <time>2021-08-11T10:28:52Z</time>
      </trkpt>
      <trkpt lat="48.17278" lon="-3.57419">
        <ele>189.8</ele>
        <time>2021-08-11T10:28:53Z</time>
      </trkpt>
      <trkpt lat="48.17276" lon="-3.57421">
        <ele>189.8</ele>
        <time>2021-08-11T10:28:54Z</time>
      </trkpt>
      <trkpt lat="48.17274" lon="-3.57423">
        <ele>189.8</ele>
        <time>2021-08-11T10:28:55Z</time>
      </trkpt>
      <trkpt lat="48.17271" lon="-3.57426">
        <ele>189.8</ele>
        <time>2021-08-11T10:28:56Z</time>
      </trkpt>
      <trkpt lat="48.17268" lon="-3.5743">
        <ele>189.8</ele>
        <time>2021-08-11T10:28:57Z</time>
      </trkpt>
      <trkpt lat="48.17265" lon="-3.57434">
        <ele>189.8</ele>
        <time>2021-08-11T10:28:58Z</time>
      </trkpt>
      <trkpt lat="48.17262" lon="-3.57438">
        <ele>189.8</ele>
        <time>2021-08-11T10:28:59Z</time>
      </trkpt>
      <trkpt lat="48.17259" lon="-3.57441">
        <ele>189.8</ele>
        <time>2021-08-11T10:29:00Z</time>
      </trkpt>
      <trkpt lat="48.17256" lon="-3.57444">
        <ele>189.8</ele>
        <time>2021-08-11T10:29:01Z</time>
      </trkpt>
      <trkpt lat="48.17254" lon="-3.57447">
        <ele>189.8</ele>
        <time>2021-08-11T10:29:02Z</time>
      </trkpt>
      <trkpt lat="48.17252" lon="-3.57451">
        <ele>189.8</ele>
        <time>2021-08-11T10:29:03Z</time>
      </trkpt>
      <trkpt lat="48.1725" lon="-3.57455">
        <ele>189.8</ele>
        <time>2021-08-11T10:29:04Z</time>
      </trkpt>
      <trkpt lat="48.17247" lon="-3.57458">
        <ele>189.8</ele>
        <time>2021-08-11T10:29:05Z</time>
      </trkpt>
      <trkpt lat="48.17244" lon="-3.57462">
        <ele>189.8</ele>
        <time>2021-08-11T10:29:06Z</time>
      </trkpt>
      <trkpt lat="48.17241" lon="-3.57465">
        <ele>189.8</ele>
        <time>2021-08-11T10:29:07Z</time>
      </trkpt>
      <trkpt lat="48.17237" lon="-3.57469">
        <ele>189.8</ele>
        <time>2021-08-11T10:29:08Z</time>
      </trkpt>
      <trkpt lat="48.17234" lon="-3.57472">
        <ele>189.8</ele>
        <time>2021-08-11T10:29:09Z</time>
      </trkpt>
      <trkpt lat="48.17231" lon="-3.57476">
        <ele>189.8</ele>
        <time>2021-08-11T10:29:10Z</time>
      </trkpt>
      <trkpt lat="48.17227" lon="-3.57479">
        <ele>189.6</ele>
        <time>2021-08-11T10:29:11Z</time>
      </trkpt>
      <trkpt lat="48.17224" lon="-3.57482">
        <ele>189.6</ele>
        <time>2021-08-11T10:29:12Z</time>
      </trkpt>
      <trkpt lat="48.1722" lon="-3.57486">
        <ele>189.6</ele>
        <time>2021-08-11T10:29:13Z</time>
      </trkpt>
      <trkpt lat="48.17217" lon="-3.5749">
        <ele>189.6</ele>
        <time>2021-08-11T10:29:14Z</time>
      </trkpt>
      <trkpt lat="48.17214" lon="-3.57494">
        <ele>189.6</ele>
        <time>2021-08-11T10:29:15Z</time>
      </trkpt>
      <trkpt lat="48.17209" lon="-3.57499">
        <ele>189.6</ele>
        <time>2021-08-11T10:29:16Z</time>
      </trkpt>
      <trkpt lat="48.17205" lon="-3.57503">
        <ele>189.6</ele>
        <time>2021-08-11T10:29:17Z</time>
      </trkpt>
      <trkpt lat="48.17201" lon="-3.57509">
        <ele>189.6</ele>
        <time>2021-08-11T10:29:18Z</time>
      </trkpt>
      <trkpt lat="48.17197" lon="-3.57514">
        <ele>189.6</ele>
        <time>2021-08-11T10:29:19Z</time>
      </trkpt>
      <trkpt lat="48.17193" lon="-3.57519">
        <ele>189.4</ele>
        <time>2021-08-11T10:29:20Z</time>
      </trkpt>
      <trkpt lat="48.17189" lon="-3.57524">
        <ele>189.4</ele>
        <time>2021-08-11T10:29:21Z</time>
      </trkpt>
      <trkpt lat="48.17185" lon="-3.5753">
        <ele>189.4</ele>
        <time>2021-08-11T10:29:22Z</time>
      </trkpt>
      <trkpt lat="48.17181" lon="-3.57536">
        <ele>189.4</ele>
        <time>2021-08-11T10:29:23Z</time>
      </trkpt>
      <trkpt lat="48.17176" lon="-3.57542">
        <ele>189.4</ele>
        <time>2021-08-11T10:29:24Z</time>
      </trkpt>
      <trkpt lat="48.17173" lon="-3.57547">
        <ele>189.4</ele>
        <time>2021-08-11T10:29:25Z</time>
      </trkpt>
      <trkpt lat="48.1717" lon="-3.57554">
        <ele>189.4</ele>
        <time>2021-08-11T10:29:26Z</time>
      </trkpt>
      <trkpt lat="48.17166" lon="-3.5756">
        <ele>189.2</ele>
        <time>2021-08-11T10:29:27Z</time>
      </trkpt>
      <trkpt lat="48.17162" lon="-3.57567">
        <ele>189.2</ele>
        <time>2021-08-11T10:29:28Z</time>
      </trkpt>
      <trkpt lat="48.17157" lon="-3.57573">
        <ele>189.2</ele>
        <time>2021-08-11T10:29:29Z</time>
      </trkpt>
      <trkpt lat="48.17153" lon="-3.57579">
        <ele>189</ele>
        <time>2021-08-11T10:29:30Z</time>
      </trkpt>
      <trkpt lat="48.17148" lon="-3.57585">
        <ele>188.8</ele>
        <time>2021-08-11T10:29:31Z</time>
      </trkpt>
      <trkpt lat="48.17144" lon="-3.57591">
        <ele>188.8</ele>
        <time>2021-08-11T10:29:32Z</time>
      </trkpt>
      <trkpt lat="48.17139" lon="-3.57597">
        <ele>188.6</ele>
        <time>2021-08-11T10:29:33Z</time>
      </trkpt>
      <trkpt lat="48.17134" lon="-3.57602">
        <ele>188.6</ele>
        <time>2021-08-11T10:29:34Z</time>
      </trkpt>
      <trkpt lat="48.1713" lon="-3.57609">
        <ele>188.6</ele>
        <time>2021-08-11T10:29:35Z</time>
      </trkpt>
      <trkpt lat="48.17125" lon="-3.57614">
        <ele>188.4</ele>
        <time>2021-08-11T10:29:36Z</time>
      </trkpt>
      <trkpt lat="48.1712" lon="-3.5762">
        <ele>188.4</ele>
        <time>2021-08-11T10:29:37Z</time>
      </trkpt>
      <trkpt lat="48.17116" lon="-3.57626">
        <ele>188.4</ele>
        <time>2021-08-11T10:29:38Z</time>
      </trkpt>
      <trkpt lat="48.17112" lon="-3.57632">
        <ele>188.2</ele>
        <time>2021-08-11T10:29:39Z</time>
      </trkpt>
      <trkpt lat="48.17108" lon="-3.57638">
        <ele>188</ele>
        <time>2021-08-11T10:29:40Z</time>
      </trkpt>
      <trkpt lat="48.17103" lon="-3.57645">
        <ele>188</ele>
        <time>2021-08-11T10:29:41Z</time>
      </trkpt>
      <trkpt lat="48.17099" lon="-3.57651">
        <ele>187.8</ele>
        <time>2021-08-11T10:29:42Z</time>
      </trkpt>
      <trkpt lat="48.17096" lon="-3.57657">
        <ele>187.8</ele>
        <time>2021-08-11T10:29:43Z</time>
      </trkpt>
      <trkpt lat="48.17093" lon="-3.57663">
        <ele>187.8</ele>
        <time>2021-08-11T10:29:44Z</time>
      </trkpt>
      <trkpt lat="48.1709" lon="-3.5767">
        <ele>187.8</ele>
        <time>2021-08-11T10:29:45Z</time>
      </trkpt>
      <trkpt lat="48.17087" lon="-3.57677">
        <ele>187.8</ele>
        <time>2021-08-11T10:29:46Z</time>
      </trkpt>
      <trkpt lat="48.17085" lon="-3.57683">
        <ele>187.8</ele>
        <time>2021-08-11T10:29:47Z</time>
      </trkpt>
      <trkpt lat="48.17082" lon="-3.57689">
        <ele>187.8</ele>
        <time>2021-08-11T10:29:48Z</time>
      </trkpt>
      <trkpt lat="48.1708" lon="-3.57695">
        <ele>187.8</ele>
        <time>2021-08-11T10:29:49Z</time>
      </trkpt>
      <trkpt lat="48.17077" lon="-3.577">
        <ele>188</ele>
        <time>2021-08-11T10:29:50Z</time>
      </trkpt>
      <trkpt lat="48.17075" lon="-3.57705">
        <ele>188</ele>
        <time>2021-08-11T10:29:51Z</time>
      </trkpt>
      <trkpt lat="48.17073" lon="-3.5771">
        <ele>188.2</ele>
        <time>2021-08-11T10:29:52Z</time>
      </trkpt>
      <trkpt lat="48.17071" lon="-3.57715">
        <ele>188.2</ele>
        <time>2021-08-11T10:29:53Z</time>
      </trkpt>
      <trkpt lat="48.17069" lon="-3.57721">
        <ele>188.4</ele>
        <time>2021-08-11T10:29:54Z</time>
      </trkpt>
      <trkpt lat="48.17067" lon="-3.57727">
        <ele>188.4</ele>
        <time>2021-08-11T10:29:55Z</time>
      </trkpt>
      <trkpt lat="48.17065" lon="-3.57733">
        <ele>188.6</ele>
        <time>2021-08-11T10:29:56Z</time>
      </trkpt>
      <trkpt lat="48.17063" lon="-3.5774">
        <ele>188.8</ele>
        <time>2021-08-11T10:29:57Z</time>
      </trkpt>
      <trkpt lat="48.17061" lon="-3.57746">
        <ele>188.8</ele>
        <time>2021-08-11T10:29:58Z</time>
      </trkpt>
      <trkpt lat="48.17059" lon="-3.57751">
        <ele>189</ele>
        <time>2021-08-11T10:29:59Z</time>
      </trkpt>
      <trkpt lat="48.17057" lon="-3.57756">
        <ele>189</ele>
        <time>2021-08-11T10:30:00Z</time>
      </trkpt>
      <trkpt lat="48.17055" lon="-3.5776">
        <ele>188.8</ele>
        <time>2021-08-11T10:30:01Z</time>
      </trkpt>
      <trkpt lat="48.17052" lon="-3.57763">
        <ele>189</ele>
        <time>2021-08-11T10:30:02Z</time>
      </trkpt>
      <trkpt lat="48.1705" lon="-3.57764">
        <ele>189</ele>
        <time>2021-08-11T10:30:03Z</time>
      </trkpt>
      <trkpt lat="48.17049" lon="-3.57764">
        <ele>189</ele>
        <time>2021-08-11T10:30:04Z</time>
      </trkpt>
      <trkpt lat="48.17047" lon="-3.57764">
        <ele>189</ele>
        <time>2021-08-11T10:30:05Z</time>
      </trkpt>
      <trkpt lat="48.17045" lon="-3.57764">
        <ele>189.4</ele>
        <time>2021-08-11T10:30:06Z</time>
      </trkpt>
      <trkpt lat="48.17042" lon="-3.57765">
        <ele>189.2</ele>
        <time>2021-08-11T10:30:07Z</time>
      </trkpt>
      <trkpt lat="48.1704" lon="-3.57765">
        <ele>189.4</ele>
        <time>2021-08-11T10:30:08Z</time>
      </trkpt>
      <trkpt lat="48.17038" lon="-3.57764">
        <ele>189.6</ele>
        <time>2021-08-11T10:30:09Z</time>
      </trkpt>
      <trkpt lat="48.17035" lon="-3.57765">
        <ele>190</ele>
        <time>2021-08-11T10:30:10Z</time>
      </trkpt>
      <trkpt lat="48.17034" lon="-3.57765">
        <ele>190.4</ele>
        <time>2021-08-11T10:30:11Z</time>
      </trkpt>
      <trkpt lat="48.17032" lon="-3.57764">
        <ele>190.6</ele>
        <time>2021-08-11T10:30:12Z</time>
      </trkpt>
      <trkpt lat="48.1703" lon="-3.57764">
        <ele>191</ele>
        <time>2021-08-11T10:30:13Z</time>
      </trkpt>
      <trkpt lat="48.17028" lon="-3.57765">
        <ele>191.2</ele>
        <time>2021-08-11T10:30:14Z</time>
      </trkpt>
      <trkpt lat="48.17026" lon="-3.57764">
        <ele>191.4</ele>
        <time>2021-08-11T10:30:15Z</time>
      </trkpt>
      <trkpt lat="48.17024" lon="-3.57764">
        <ele>191.6</ele>
        <time>2021-08-11T10:30:16Z</time>
      </trkpt>
      <trkpt lat="48.17022" lon="-3.57763">
        <ele>191.8</ele>
        <time>2021-08-11T10:30:17Z</time>
      </trkpt>
      <trkpt lat="48.1702" lon="-3.57763">
        <ele>191.8</ele>
        <time>2021-08-11T10:30:18Z</time>
      </trkpt>
      <trkpt lat="48.17018" lon="-3.57762">
        <ele>192</ele>
        <time>2021-08-11T10:30:19Z</time>
      </trkpt>
      <trkpt lat="48.17016" lon="-3.57762">
        <ele>192.2</ele>
        <time>2021-08-11T10:30:20Z</time>
      </trkpt>
      <trkpt lat="48.17014" lon="-3.57761">
        <ele>192.2</ele>
        <time>2021-08-11T10:30:21Z</time>
      </trkpt>
      <trkpt lat="48.17013" lon="-3.57761">
        <ele>192.4</ele>
        <time>2021-08-11T10:30:22Z</time>
      </trkpt>
      <trkpt lat="48.17012" lon="-3.57762">
        <ele>192.6</ele>
        <time>2021-08-11T10:30:23Z</time>
      </trkpt>
      <trkpt lat="48.1701" lon="-3.57762">
        <ele>192.6</ele>
        <time>2021-08-11T10:30:24Z</time>
      </trkpt>
      <trkpt lat="48.17008" lon="-3.57762">
        <ele>192.8</ele>
        <time>2021-08-11T10:30:25Z</time>
      </trkpt>
      <trkpt lat="48.17007" lon="-3.57761">
        <ele>192.8</ele>
        <time>2021-08-11T10:30:26Z</time>
      </trkpt>
      <trkpt lat="48.17005" lon="-3.5776">
        <ele>193</ele>
        <time>2021-08-11T10:30:27Z</time>
      </trkpt>
      <trkpt lat="48.17003" lon="-3.57759">
        <ele>193.2</ele>
        <time>2021-08-11T10:30:28Z</time>
      </trkpt>
      <trkpt lat="48.17001" lon="-3.57758">
        <ele>193.4</ele>
        <time>2021-08-11T10:30:29Z</time>
      </trkpt>
      <trkpt lat="48.16999" lon="-3.57758">
        <ele>193.6</ele>
        <time>2021-08-11T10:30:30Z</time>
      </trkpt>
      <trkpt lat="48.16997" lon="-3.57757">
        <ele>193.6</ele>
        <time>2021-08-11T10:30:31Z</time>
      </trkpt>
      <trkpt lat="48.16996" lon="-3.57757">
        <ele>194</ele>
        <time>2021-08-11T10:30:32Z</time>
      </trkpt>
      <trkpt lat="48.16995" lon="-3.57755">
        <ele>194</ele>
        <time>2021-08-11T10:30:33Z</time>
      </trkpt>
      <trkpt lat="48.16993" lon="-3.57754">
        <ele>194.2</ele>
        <time>2021-08-11T10:30:34Z</time>
      </trkpt>
      <trkpt lat="48.16991" lon="-3.57754">
        <ele>194.4</ele>
        <time>2021-08-11T10:30:35Z</time>
      </trkpt>
      <trkpt lat="48.16989" lon="-3.57752">
        <ele>194.6</ele>
        <time>2021-08-11T10:30:36Z</time>
      </trkpt>
      <trkpt lat="48.16988" lon="-3.57751">
        <ele>194.6</ele>
        <time>2021-08-11T10:30:37Z</time>
      </trkpt>
      <trkpt lat="48.16986" lon="-3.5775">
        <ele>194.8</ele>
        <time>2021-08-11T10:30:38Z</time>
      </trkpt>
      <trkpt lat="48.16984" lon="-3.5775">
        <ele>195</ele>
        <time>2021-08-11T10:30:39Z</time>
      </trkpt>
      <trkpt lat="48.16982" lon="-3.57749">
        <ele>195.2</ele>
        <time>2021-08-11T10:30:40Z</time>
      </trkpt>
      <trkpt lat="48.1698" lon="-3.57749">
        <ele>195.4</ele>
        <time>2021-08-11T10:30:41Z</time>
      </trkpt>
      <trkpt lat="48.16978" lon="-3.57748">
        <ele>195.4</ele>
        <time>2021-08-11T10:30:42Z</time>
      </trkpt>
      <trkpt lat="48.16975" lon="-3.57748">
        <ele>195.4</ele>
        <time>2021-08-11T10:30:43Z</time>
      </trkpt>
      <trkpt lat="48.16973" lon="-3.57747">
        <ele>195.6</ele>
        <time>2021-08-11T10:30:44Z</time>
      </trkpt>
      <trkpt lat="48.16971" lon="-3.57746">
        <ele>195.6</ele>
        <time>2021-08-11T10:30:45Z</time>
      </trkpt>
      <trkpt lat="48.16969" lon="-3.57745">
        <ele>195.8</ele>
        <time>2021-08-11T10:30:46Z</time>
      </trkpt>
      <trkpt lat="48.16966" lon="-3.57744">
        <ele>196</ele>
        <time>2021-08-11T10:30:47Z</time>
      </trkpt>
      <trkpt lat="48.16964" lon="-3.57743">
        <ele>196.2</ele>
        <time>2021-08-11T10:30:48Z</time>
      </trkpt>
      <trkpt lat="48.16962" lon="-3.57742">
        <ele>196.2</ele>
        <time>2021-08-11T10:30:49Z</time>
      </trkpt>
      <trkpt lat="48.1696" lon="-3.57741">
        <ele>196.4</ele>
        <time>2021-08-11T10:30:50Z</time>
      </trkpt>
      <trkpt lat="48.16958" lon="-3.5774">
        <ele>196.4</ele>
        <time>2021-08-11T10:30:51Z</time>
      </trkpt>
      <trkpt lat="48.16956" lon="-3.57739">
        <ele>196.4</ele>
        <time>2021-08-11T10:30:52Z</time>
      </trkpt>
      <trkpt lat="48.16954" lon="-3.57738">
        <ele>196.6</ele>
        <time>2021-08-11T10:30:53Z</time>
      </trkpt>
      <trkpt lat="48.16952" lon="-3.57737">
        <ele>196.6</ele>
        <time>2021-08-11T10:30:54Z</time>
      </trkpt>
      <trkpt lat="48.16949" lon="-3.57736">
        <ele>196.8</ele>
        <time>2021-08-11T10:30:55Z</time>
      </trkpt>
      <trkpt lat="48.16947" lon="-3.57735">
        <ele>197</ele>
        <time>2021-08-11T10:30:56Z</time>
      </trkpt>
      <trkpt lat="48.16945" lon="-3.57733">
        <ele>197.2</ele>
        <time>2021-08-11T10:30:57Z</time>
      </trkpt>
      <trkpt lat="48.16943" lon="-3.57732">
        <ele>197.4</ele>
        <time>2021-08-11T10:30:58Z</time>
      </trkpt>
      <trkpt lat="48.1694" lon="-3.57732">
        <ele>197.4</ele>
        <time>2021-08-11T10:30:59Z</time>
      </trkpt>
      <trkpt lat="48.16938" lon="-3.57731">
        <ele>197.6</ele>
        <time>2021-08-11T10:31:00Z</time>
      </trkpt>
      <trkpt lat="48.16936" lon="-3.5773">
        <ele>198</ele>
        <time>2021-08-11T10:31:01Z</time>
      </trkpt>
      <trkpt lat="48.16933" lon="-3.5773">
        <ele>198</ele>
        <time>2021-08-11T10:31:02Z</time>
      </trkpt>
      <trkpt lat="48.1693" lon="-3.57729">
        <ele>198.2</ele>
        <time>2021-08-11T10:31:03Z</time>
      </trkpt>
      <trkpt lat="48.16926" lon="-3.5773">
        <ele>198.4</ele>
        <time>2021-08-11T10:31:04Z</time>
      </trkpt>
      <trkpt lat="48.16923" lon="-3.57731">
        <ele>198.4</ele>
        <time>2021-08-11T10:31:05Z</time>
      </trkpt>
      <trkpt lat="48.16919" lon="-3.57731">
        <ele>198.6</ele>
        <time>2021-08-11T10:31:06Z</time>
      </trkpt>
      <trkpt lat="48.16914" lon="-3.57731">
        <ele>198.6</ele>
        <time>2021-08-11T10:31:07Z</time>
      </trkpt>
      <trkpt lat="48.1691" lon="-3.57731">
        <ele>198.6</ele>
        <time>2021-08-11T10:31:08Z</time>
      </trkpt>
      <trkpt lat="48.16905" lon="-3.5773">
        <ele>198.6</ele>
        <time>2021-08-11T10:31:09Z</time>
      </trkpt>
      <trkpt lat="48.169" lon="-3.57729">
        <ele>198.6</ele>
        <time>2021-08-11T10:31:10Z</time>
      </trkpt>
      <trkpt lat="48.16894" lon="-3.57728">
        <ele>198.6</ele>
        <time>2021-08-11T10:31:11Z</time>
      </trkpt>
      <trkpt lat="48.16888" lon="-3.57727">
        <ele>198.6</ele>
        <time>2021-08-11T10:31:12Z</time>
      </trkpt>
      <trkpt lat="48.16883" lon="-3.57727">
        <ele>198.6</ele>
        <time>2021-08-11T10:31:13Z</time>
      </trkpt>
      <trkpt lat="48.16878" lon="-3.57726">
        <ele>198.6</ele>
        <time>2021-08-11T10:31:14Z</time>
      </trkpt>
      <trkpt lat="48.16874" lon="-3.57726">
        <ele>198.4</ele>
        <time>2021-08-11T10:31:15Z</time>
      </trkpt>
      <trkpt lat="48.16871" lon="-3.57725">
        <ele>198.2</ele>
        <time>2021-08-11T10:31:16Z</time>
      </trkpt>
      <trkpt lat="48.16869" lon="-3.57725">
        <ele>197.8</ele>
        <time>2021-08-11T10:31:17Z</time>
      </trkpt>
      <trkpt lat="48.16867" lon="-3.57725">
        <ele>197.4</ele>
        <time>2021-08-11T10:31:18Z</time>
      </trkpt>
      <trkpt lat="48.16865" lon="-3.57726">
        <ele>197.2</ele>
        <time>2021-08-11T10:31:19Z</time>
      </trkpt>
      <trkpt lat="48.16863" lon="-3.57726">
        <ele>196.6</ele>
        <time>2021-08-11T10:31:20Z</time>
      </trkpt>
      <trkpt lat="48.16862" lon="-3.57727">
        <ele>196.2</ele>
        <time>2021-08-11T10:31:21Z</time>
      </trkpt>
      <trkpt lat="48.16861" lon="-3.57727">
        <ele>196</ele>
        <time>2021-08-11T10:31:22Z</time>
      </trkpt>
      <trkpt lat="48.1686" lon="-3.57728">
        <ele>195.8</ele>
        <time>2021-08-11T10:31:23Z</time>
      </trkpt>
      <trkpt lat="48.1686" lon="-3.57728">
        <ele>195.8</ele>
        <time>2021-08-11T10:31:24Z</time>
      </trkpt>
      <trkpt lat="48.16859" lon="-3.57728">
        <ele>195.8</ele>
        <time>2021-08-11T10:31:25Z</time>
      </trkpt>
      <trkpt lat="48.16858" lon="-3.57728">
        <ele>195.8</ele>
        <time>2021-08-11T10:31:26Z</time>
      </trkpt>
      <trkpt lat="48.16858" lon="-3.57727">
        <ele>195.6</ele>
        <time>2021-08-11T10:31:52Z</time>
      </trkpt>
      <trkpt lat="48.16858" lon="-3.57727">
        <ele>195.6</ele>
        <time>2021-08-11T10:31:53Z</time>
      </trkpt>
      <trkpt lat="48.16858" lon="-3.57726">
        <ele>195.6</ele>
        <time>2021-08-11T10:31:54Z</time>
      </trkpt>
      <trkpt lat="48.16838" lon="-3.57736">
        <ele>195</ele>
        <time>2021-08-11T10:36:11Z</time>
      </trkpt>
      <trkpt lat="48.16836" lon="-3.57736">
        <ele>194.8</ele>
        <time>2021-08-11T10:36:12Z</time>
      </trkpt>
      <trkpt lat="48.16833" lon="-3.57736">
        <ele>194.8</ele>
        <time>2021-08-11T10:36:13Z</time>
      </trkpt>
      <trkpt lat="48.16831" lon="-3.57736">
        <ele>194.8</ele>
        <time>2021-08-11T10:36:14Z</time>
      </trkpt>
      <trkpt lat="48.16829" lon="-3.57735">
        <ele>194.8</ele>
        <time>2021-08-11T10:36:15Z</time>
      </trkpt>
      <trkpt lat="48.16826" lon="-3.57735">
        <ele>194.8</ele>
        <time>2021-08-11T10:36:16Z</time>
      </trkpt>
      <trkpt lat="48.16823" lon="-3.57736">
        <ele>194.8</ele>
        <time>2021-08-11T10:36:17Z</time>
      </trkpt>
      <trkpt lat="48.1682" lon="-3.57737">
        <ele>194.8</ele>
        <time>2021-08-11T10:36:18Z</time>
      </trkpt>
      <trkpt lat="48.16816" lon="-3.57738">
        <ele>194.6</ele>
        <time>2021-08-11T10:36:19Z</time>
      </trkpt>
      <trkpt lat="48.16813" lon="-3.57739">
        <ele>194.4</ele>
        <time>2021-08-11T10:36:20Z</time>
      </trkpt>
      <trkpt lat="48.16809" lon="-3.57741">
        <ele>194.2</ele>
        <time>2021-08-11T10:36:21Z</time>
      </trkpt>
      <trkpt lat="48.16805" lon="-3.57742">
        <ele>194</ele>
        <time>2021-08-11T10:36:22Z</time>
      </trkpt>
      <trkpt lat="48.168" lon="-3.57744">
        <ele>194</ele>
        <time>2021-08-11T10:36:23Z</time>
      </trkpt>
      <trkpt lat="48.16796" lon="-3.57746">
        <ele>193.8</ele>
        <time>2021-08-11T10:36:24Z</time>
      </trkpt>
      <trkpt lat="48.16792" lon="-3.57748">
        <ele>193.8</ele>
        <time>2021-08-11T10:36:25Z</time>
      </trkpt>
      <trkpt lat="48.16788" lon="-3.5775">
        <ele>193.8</ele>
        <time>2021-08-11T10:36:26Z</time>
      </trkpt>
      <trkpt lat="48.16784" lon="-3.57752">
        <ele>193.6</ele>
        <time>2021-08-11T10:36:27Z</time>
      </trkpt>
      <trkpt lat="48.1678" lon="-3.57755">
        <ele>193.2</ele>
        <time>2021-08-11T10:36:28Z</time>
      </trkpt>
      <trkpt lat="48.16776" lon="-3.57757">
        <ele>193</ele>
        <time>2021-08-11T10:36:29Z</time>
      </trkpt>
      <trkpt lat="48.16772" lon="-3.57759">
        <ele>192.8</ele>
        <time>2021-08-11T10:36:30Z</time>
      </trkpt>
      <trkpt lat="48.16766" lon="-3.57763">
        <ele>192.6</ele>
        <time>2021-08-11T10:36:31Z</time>
      </trkpt>
      <trkpt lat="48.16761" lon="-3.57767">
        <ele>192.4</ele>
        <time>2021-08-11T10:36:32Z</time>
      </trkpt>
      <trkpt lat="48.16756" lon="-3.57773">
        <ele>192.2</ele>
        <time>2021-08-11T10:36:33Z</time>
      </trkpt>
      <trkpt lat="48.16751" lon="-3.57778">
        <ele>192.2</ele>
        <time>2021-08-11T10:36:34Z</time>
      </trkpt>
      <trkpt lat="48.16746" lon="-3.57784">
        <ele>192</ele>
        <time>2021-08-11T10:36:35Z</time>
      </trkpt>
      <trkpt lat="48.1674" lon="-3.57791">
        <ele>191.8</ele>
        <time>2021-08-11T10:36:36Z</time>
      </trkpt>
      <trkpt lat="48.16735" lon="-3.57798">
        <ele>191.6</ele>
        <time>2021-08-11T10:36:37Z</time>
      </trkpt>
      <trkpt lat="48.16731" lon="-3.57806">
        <ele>191.4</ele>
        <time>2021-08-11T10:36:38Z</time>
      </trkpt>
      <trkpt lat="48.16727" lon="-3.57814">
        <ele>191.2</ele>
        <time>2021-08-11T10:36:39Z</time>
      </trkpt>
      <trkpt lat="48.16722" lon="-3.57822">
        <ele>190.8</ele>
        <time>2021-08-11T10:36:40Z</time>
      </trkpt>
      <trkpt lat="48.16718" lon="-3.5783">
        <ele>190.4</ele>
        <time>2021-08-11T10:36:41Z</time>
      </trkpt>
      <trkpt lat="48.16713" lon="-3.57838">
        <ele>189.8</ele>
        <time>2021-08-11T10:36:42Z</time>
      </trkpt>
      <trkpt lat="48.16709" lon="-3.57846">
        <ele>189.4</ele>
        <time>2021-08-11T10:36:43Z</time>
      </trkpt>
      <trkpt lat="48.16704" lon="-3.57855">
        <ele>189</ele>
        <time>2021-08-11T10:36:44Z</time>
      </trkpt>
      <trkpt lat="48.167" lon="-3.57863">
        <ele>188.4</ele>
        <time>2021-08-11T10:36:45Z</time>
      </trkpt>
      <trkpt lat="48.16696" lon="-3.57871">
        <ele>187.8</ele>
        <time>2021-08-11T10:36:46Z</time>
      </trkpt>
      <trkpt lat="48.16692" lon="-3.57879">
        <ele>187.2</ele>
        <time>2021-08-11T10:36:47Z</time>
      </trkpt>
      <trkpt lat="48.16688" lon="-3.57888">
        <ele>186.8</ele>
        <time>2021-08-11T10:36:48Z</time>
      </trkpt>
      <trkpt lat="48.16683" lon="-3.57895">
        <ele>186.6</ele>
        <time>2021-08-11T10:36:49Z</time>
      </trkpt>
      <trkpt lat="48.16679" lon="-3.57901">
        <ele>186.6</ele>
        <time>2021-08-11T10:36:50Z</time>
      </trkpt>
      <trkpt lat="48.16676" lon="-3.57905">
        <ele>186.6</ele>
        <time>2021-08-11T10:36:51Z</time>
      </trkpt>
      <trkpt lat="48.16671" lon="-3.57908">
        <ele>186.6</ele>
        <time>2021-08-11T10:36:52Z</time>
      </trkpt>
      <trkpt lat="48.16664" lon="-3.5791">
        <ele>186.4</ele>
        <time>2021-08-11T10:36:53Z</time>
      </trkpt>
      <trkpt lat="48.16657" lon="-3.57911">
        <ele>186.2</ele>
        <time>2021-08-11T10:36:54Z</time>
      </trkpt>
      <trkpt lat="48.1665" lon="-3.57912">
        <ele>185.8</ele>
        <time>2021-08-11T10:36:55Z</time>
      </trkpt>
      <trkpt lat="48.16644" lon="-3.57913">
        <ele>185.6</ele>
        <time>2021-08-11T10:36:56Z</time>
      </trkpt>
      <trkpt lat="48.16636" lon="-3.57914">
        <ele>185.4</ele>
        <time>2021-08-11T10:36:57Z</time>
      </trkpt>
      <trkpt lat="48.16627" lon="-3.57915">
        <ele>185.2</ele>
        <time>2021-08-11T10:36:58Z</time>
      </trkpt>
      <trkpt lat="48.16618" lon="-3.57917">
        <ele>185.2</ele>
        <time>2021-08-11T10:36:59Z</time>
      </trkpt>
      <trkpt lat="48.16609" lon="-3.57919">
        <ele>184.8</ele>
        <time>2021-08-11T10:37:00Z</time>
      </trkpt>
      <trkpt lat="48.16601" lon="-3.57921">
        <ele>184.4</ele>
        <time>2021-08-11T10:37:01Z</time>
      </trkpt>
      <trkpt lat="48.16591" lon="-3.57923">
        <ele>183.6</ele>
        <time>2021-08-11T10:37:02Z</time>
      </trkpt>
      <trkpt lat="48.16582" lon="-3.57926">
        <ele>182.6</ele>
        <time>2021-08-11T10:37:03Z</time>
      </trkpt>
      <trkpt lat="48.16572" lon="-3.57928">
        <ele>181.6</ele>
        <time>2021-08-11T10:37:04Z</time>
      </trkpt>
      <trkpt lat="48.16562" lon="-3.5793">
        <ele>180.8</ele>
        <time>2021-08-11T10:37:05Z</time>
      </trkpt>
      <trkpt lat="48.16552" lon="-3.57932">
        <ele>180.2</ele>
        <time>2021-08-11T10:37:06Z</time>
      </trkpt>
      <trkpt lat="48.16543" lon="-3.57933">
        <ele>179.2</ele>
        <time>2021-08-11T10:37:07Z</time>
      </trkpt>
      <trkpt lat="48.16535" lon="-3.57934">
        <ele>178.6</ele>
        <time>2021-08-11T10:37:08Z</time>
      </trkpt>
      <trkpt lat="48.16525" lon="-3.57935">
        <ele>178</ele>
        <time>2021-08-11T10:37:09Z</time>
      </trkpt>
      <trkpt lat="48.16516" lon="-3.57936">
        <ele>177.6</ele>
        <time>2021-08-11T10:37:10Z</time>
      </trkpt>
      <trkpt lat="48.16507" lon="-3.57937">
        <ele>177.4</ele>
        <time>2021-08-11T10:37:11Z</time>
      </trkpt>
      <trkpt lat="48.16501" lon="-3.57938">
        <ele>177.2</ele>
        <time>2021-08-11T10:37:12Z</time>
      </trkpt>
      <trkpt lat="48.16498" lon="-3.57942">
        <ele>177</ele>
        <time>2021-08-11T10:37:13Z</time>
      </trkpt>
      <trkpt lat="48.16497" lon="-3.57947">
        <ele>177</ele>
        <time>2021-08-11T10:37:14Z</time>
      </trkpt>
      <trkpt lat="48.16496" lon="-3.57951">
        <ele>177</ele>
        <time>2021-08-11T10:37:15Z</time>
      </trkpt>
      <trkpt lat="48.16496" lon="-3.57955">
        <ele>177</ele>
        <time>2021-08-11T10:37:16Z</time>
      </trkpt>
      <trkpt lat="48.16496" lon="-3.57959">
        <ele>177</ele>
        <time>2021-08-11T10:37:17Z</time>
      </trkpt>
      <trkpt lat="48.16496" lon="-3.57963">
        <ele>177</ele>
        <time>2021-08-11T10:37:18Z</time>
      </trkpt>
      <trkpt lat="48.16495" lon="-3.57966">
        <ele>177</ele>
        <time>2021-08-11T10:37:19Z</time>
      </trkpt>
      <trkpt lat="48.16495" lon="-3.57969">
        <ele>177</ele>
        <time>2021-08-11T10:37:20Z</time>
      </trkpt>
      <trkpt lat="48.16496" lon="-3.5797">
        <ele>177.6</ele>
        <time>2021-08-11T10:37:21Z</time>
      </trkpt>
      <trkpt lat="48.16496" lon="-3.5797">
        <ele>178</ele>
        <time>2021-08-11T10:37:22Z</time>
      </trkpt>
      <trkpt lat="48.16498" lon="-3.5797">
        <ele>178.4</ele>
        <time>2021-08-11T10:37:23Z</time>
      </trkpt>
      <trkpt lat="48.16498" lon="-3.57977">
        <ele>178.8</ele>
        <time>2021-08-11T10:37:24Z</time>
      </trkpt>
      <trkpt lat="48.16499" lon="-3.57983">
        <ele>179</ele>
        <time>2021-08-11T10:37:25Z</time>
      </trkpt>
      <trkpt lat="48.16499" lon="-3.57988">
        <ele>179.2</ele>
        <time>2021-08-11T10:37:26Z</time>
      </trkpt>
      <trkpt lat="48.16499" lon="-3.57994">
        <ele>179.4</ele>
        <time>2021-08-11T10:37:27Z</time>
      </trkpt>
      <trkpt lat="48.16497" lon="-3.58">
        <ele>179.6</ele>
        <time>2021-08-11T10:37:28Z</time>
      </trkpt>
      <trkpt lat="48.16496" lon="-3.58006">
        <ele>179.6</ele>
        <time>2021-08-11T10:37:29Z</time>
      </trkpt>
      <trkpt lat="48.16495" lon="-3.58012">
        <ele>179.6</ele>
        <time>2021-08-11T10:37:30Z</time>
      </trkpt>
      <trkpt lat="48.16492" lon="-3.58018">
        <ele>179.8</ele>
        <time>2021-08-11T10:37:31Z</time>
      </trkpt>
      <trkpt lat="48.16489" lon="-3.58025">
        <ele>179.8</ele>
        <time>2021-08-11T10:37:32Z</time>
      </trkpt>
      <trkpt lat="48.16487" lon="-3.58032">
        <ele>180</ele>
        <time>2021-08-11T10:37:33Z</time>
      </trkpt>
      <trkpt lat="48.16485" lon="-3.58038">
        <ele>180.4</ele>
        <time>2021-08-11T10:37:34Z</time>
      </trkpt>
      <trkpt lat="48.16483" lon="-3.58044">
        <ele>180.6</ele>
        <time>2021-08-11T10:37:35Z</time>
      </trkpt>
      <trkpt lat="48.16482" lon="-3.58049">
        <ele>180.6</ele>
        <time>2021-08-11T10:37:36Z</time>
      </trkpt>
      <trkpt lat="48.16481" lon="-3.58053">
        <ele>180.8</ele>
        <time>2021-08-11T10:37:37Z</time>
      </trkpt>
      <trkpt lat="48.1648" lon="-3.58057">
        <ele>180.8</ele>
        <time>2021-08-11T10:37:38Z</time>
      </trkpt>
      <trkpt lat="48.16479" lon="-3.58062">
        <ele>181</ele>
        <time>2021-08-11T10:37:39Z</time>
      </trkpt>
      <trkpt lat="48.16477" lon="-3.58066">
        <ele>181</ele>
        <time>2021-08-11T10:37:40Z</time>
      </trkpt>
      <trkpt lat="48.16475" lon="-3.58069">
        <ele>181.2</ele>
        <time>2021-08-11T10:37:41Z</time>
      </trkpt>
      <trkpt lat="48.16473" lon="-3.58073">
        <ele>181.4</ele>
        <time>2021-08-11T10:37:42Z</time>
      </trkpt>
      <trkpt lat="48.16471" lon="-3.58075">
        <ele>181.4</ele>
        <time>2021-08-11T10:37:43Z</time>
      </trkpt>
      <trkpt lat="48.16469" lon="-3.58077">
        <ele>181.6</ele>
        <time>2021-08-11T10:37:44Z</time>
      </trkpt>
      <trkpt lat="48.16468" lon="-3.58079">
        <ele>181.6</ele>
        <time>2021-08-11T10:37:45Z</time>
      </trkpt>
      <trkpt lat="48.16467" lon="-3.58082">
        <ele>181.6</ele>
        <time>2021-08-11T10:37:46Z</time>
      </trkpt>
      <trkpt lat="48.16467" lon="-3.58083">
        <ele>182</ele>
        <time>2021-08-11T10:37:47Z</time>
      </trkpt>
      <trkpt lat="48.16462" lon="-3.58087">
        <ele>183.2</ele>
        <time>2021-08-11T10:40:58Z</time>
      </trkpt>
      <trkpt lat="48.16461" lon="-3.58087">
        <ele>183.2</ele>
        <time>2021-08-11T10:40:59Z</time>
      </trkpt>
      <trkpt lat="48.16459" lon="-3.58087">
        <ele>183.2</ele>
        <time>2021-08-11T10:41:00Z</time>
      </trkpt>
      <trkpt lat="48.16456" lon="-3.58087">
        <ele>183.2</ele>
        <time>2021-08-11T10:41:01Z</time>
      </trkpt>
      <trkpt lat="48.16454" lon="-3.58088">
        <ele>183.2</ele>
        <time>2021-08-11T10:41:02Z</time>
      </trkpt>
      <trkpt lat="48.16451" lon="-3.58088">
        <ele>183.2</ele>
        <time>2021-08-11T10:41:03Z</time>
      </trkpt>
      <trkpt lat="48.16447" lon="-3.58089">
        <ele>183</ele>
        <time>2021-08-11T10:41:04Z</time>
      </trkpt>
      <trkpt lat="48.16444" lon="-3.5809">
        <ele>183</ele>
        <time>2021-08-11T10:41:05Z</time>
      </trkpt>
      <trkpt lat="48.16441" lon="-3.58092">
        <ele>183</ele>
        <time>2021-08-11T10:41:06Z</time>
      </trkpt>
      <trkpt lat="48.16437" lon="-3.58093">
        <ele>182.8</ele>
        <time>2021-08-11T10:41:07Z</time>
      </trkpt>
      <trkpt lat="48.16432" lon="-3.58094">
        <ele>182.8</ele>
        <time>2021-08-11T10:41:08Z</time>
      </trkpt>
      <trkpt lat="48.16427" lon="-3.58095">
        <ele>182.6</ele>
        <time>2021-08-11T10:41:09Z</time>
      </trkpt>
      <trkpt lat="48.16422" lon="-3.58096">
        <ele>182.4</ele>
        <time>2021-08-11T10:41:10Z</time>
      </trkpt>
      <trkpt lat="48.16416" lon="-3.58097">
        <ele>182.4</ele>
        <time>2021-08-11T10:41:11Z</time>
      </trkpt>
      <trkpt lat="48.1641" lon="-3.58099">
        <ele>182</ele>
        <time>2021-08-11T10:41:12Z</time>
      </trkpt>
      <trkpt lat="48.16405" lon="-3.58101">
        <ele>181.8</ele>
        <time>2021-08-11T10:41:13Z</time>
      </trkpt>
      <trkpt lat="48.164" lon="-3.58103">
        <ele>181.6</ele>
        <time>2021-08-11T10:41:14Z</time>
      </trkpt>
      <trkpt lat="48.16394" lon="-3.58105">
        <ele>181.6</ele>
        <time>2021-08-11T10:41:15Z</time>
      </trkpt>
      <trkpt lat="48.16389" lon="-3.58107">
        <ele>181.4</ele>
        <time>2021-08-11T10:41:16Z</time>
      </trkpt>
      <trkpt lat="48.16383" lon="-3.58109">
        <ele>181.2</ele>
        <time>2021-08-11T10:41:17Z</time>
      </trkpt>
      <trkpt lat="48.16378" lon="-3.58111">
        <ele>181</ele>
        <time>2021-08-11T10:41:18Z</time>
      </trkpt>
      <trkpt lat="48.16373" lon="-3.58114">
        <ele>180.8</ele>
        <time>2021-08-11T10:41:19Z</time>
      </trkpt>
      <trkpt lat="48.16367" lon="-3.58116">
        <ele>180.6</ele>
        <time>2021-08-11T10:41:20Z</time>
      </trkpt>
      <trkpt lat="48.16362" lon="-3.58118">
        <ele>180.4</ele>
        <time>2021-08-11T10:41:21Z</time>
      </trkpt>
      <trkpt lat="48.16356" lon="-3.58121">
        <ele>180.4</ele>
        <time>2021-08-11T10:41:22Z</time>
      </trkpt>
      <trkpt lat="48.1635" lon="-3.58123">
        <ele>180.2</ele>
        <time>2021-08-11T10:41:23Z</time>
      </trkpt>
      <trkpt lat="48.16344" lon="-3.58125">
        <ele>180.2</ele>
        <time>2021-08-11T10:41:24Z</time>
      </trkpt>
      <trkpt lat="48.16338" lon="-3.58128">
        <ele>180.2</ele>
        <time>2021-08-11T10:41:25Z</time>
      </trkpt>
      <trkpt lat="48.16332" lon="-3.58131">
        <ele>180</ele>
        <time>2021-08-11T10:41:26Z</time>
      </trkpt>
      <trkpt lat="48.16326" lon="-3.58134">
        <ele>180</ele>
        <time>2021-08-11T10:41:27Z</time>
      </trkpt>
      <trkpt lat="48.1632" lon="-3.58137">
        <ele>180</ele>
        <time>2021-08-11T10:41:28Z</time>
      </trkpt>
      <trkpt lat="48.16314" lon="-3.5814">
        <ele>179.8</ele>
        <time>2021-08-11T10:41:29Z</time>
      </trkpt>
      <trkpt lat="48.16308" lon="-3.58143">
        <ele>179.4</ele>
        <time>2021-08-11T10:41:30Z</time>
      </trkpt>
      <trkpt lat="48.16302" lon="-3.58147">
        <ele>179.4</ele>
        <time>2021-08-11T10:41:31Z</time>
      </trkpt>
      <trkpt lat="48.16296" lon="-3.5815">
        <ele>179.2</ele>
        <time>2021-08-11T10:41:32Z</time>
      </trkpt>
      <trkpt lat="48.1629" lon="-3.58153">
        <ele>179.2</ele>
        <time>2021-08-11T10:41:33Z</time>
      </trkpt>
      <trkpt lat="48.16285" lon="-3.58157">
        <ele>178.8</ele>
        <time>2021-08-11T10:41:34Z</time>
      </trkpt>
      <trkpt lat="48.1628" lon="-3.58161">
        <ele>178.2</ele>
        <time>2021-08-11T10:41:35Z</time>
      </trkpt>
      <trkpt lat="48.16274" lon="-3.58165">
        <ele>178</ele>
        <time>2021-08-11T10:41:36Z</time>
      </trkpt>
      <trkpt lat="48.16268" lon="-3.5817">
        <ele>177.6</ele>
        <time>2021-08-11T10:41:37Z</time>
      </trkpt>
      <trkpt lat="48.16262" lon="-3.58175">
        <ele>177.6</ele>
        <time>2021-08-11T10:41:38Z</time>
      </trkpt>
      <trkpt lat="48.16257" lon="-3.5818">
        <ele>177.4</ele>
        <time>2021-08-11T10:41:39Z</time>
      </trkpt>
      <trkpt lat="48.16251" lon="-3.58185">
        <ele>177.4</ele>
        <time>2021-08-11T10:41:40Z</time>
      </trkpt>
      <trkpt lat="48.16246" lon="-3.5819">
        <ele>177.4</ele>
        <time>2021-08-11T10:41:41Z</time>
      </trkpt>
      <trkpt lat="48.16241" lon="-3.58196">
        <ele>177.2</ele>
        <time>2021-08-11T10:41:42Z</time>
      </trkpt>
      <trkpt lat="48.16237" lon="-3.58199">
        <ele>177</ele>
        <time>2021-08-11T10:41:43Z</time>
      </trkpt>
      <trkpt lat="48.16234" lon="-3.58203">
        <ele>176.6</ele>
        <time>2021-08-11T10:41:44Z</time>
      </trkpt>
      <trkpt lat="48.16231" lon="-3.58205">
        <ele>176.6</ele>
        <time>2021-08-11T10:41:45Z</time>
      </trkpt>
      <trkpt lat="48.16228" lon="-3.58208">
        <ele>176.4</ele>
        <time>2021-08-11T10:41:46Z</time>
      </trkpt>
      <trkpt lat="48.16227" lon="-3.5821">
        <ele>176.4</ele>
        <time>2021-08-11T10:41:47Z</time>
      </trkpt>
      <trkpt lat="48.16225" lon="-3.58212">
        <ele>176.4</ele>
        <time>2021-08-11T10:41:48Z</time>
      </trkpt>
      <trkpt lat="48.16224" lon="-3.58214">
        <ele>176.4</ele>
        <time>2021-08-11T10:41:49Z</time>
      </trkpt>
      <trkpt lat="48.16223" lon="-3.58216">
        <ele>176.4</ele>
        <time>2021-08-11T10:41:50Z</time>
      </trkpt>
      <trkpt lat="48.16221" lon="-3.58217">
        <ele>176.4</ele>
        <time>2021-08-11T10:41:51Z</time>
      </trkpt>
      <trkpt lat="48.1622" lon="-3.58218">
        <ele>176.2</ele>
        <time>2021-08-11T10:41:52Z</time>
      </trkpt>
      <trkpt lat="48.16218" lon="-3.5822">
        <ele>176.2</ele>
        <time>2021-08-11T10:41:53Z</time>
      </trkpt>
      <trkpt lat="48.16216" lon="-3.58222">
        <ele>176</ele>
        <time>2021-08-11T10:41:54Z</time>
      </trkpt>
      <trkpt lat="48.16213" lon="-3.58224">
        <ele>176</ele>
        <time>2021-08-11T10:41:55Z</time>
      </trkpt>
      <trkpt lat="48.1621" lon="-3.58226">
        <ele>176</ele>
        <time>2021-08-11T10:41:56Z</time>
      </trkpt>
      <trkpt lat="48.16207" lon="-3.58228">
        <ele>176</ele>
        <time>2021-08-11T10:41:57Z</time>
      </trkpt>
      <trkpt lat="48.16204" lon="-3.58231">
        <ele>176</ele>
        <time>2021-08-11T10:41:58Z</time>
      </trkpt>
      <trkpt lat="48.162" lon="-3.58234">
        <ele>176</ele>
        <time>2021-08-11T10:41:59Z</time>
      </trkpt>
      <trkpt lat="48.16197" lon="-3.58237">
        <ele>176</ele>
        <time>2021-08-11T10:42:00Z</time>
      </trkpt>
      <trkpt lat="48.16193" lon="-3.5824">
        <ele>176</ele>
        <time>2021-08-11T10:42:01Z</time>
      </trkpt>
      <trkpt lat="48.16189" lon="-3.58243">
        <ele>176</ele>
        <time>2021-08-11T10:42:02Z</time>
      </trkpt>
      <trkpt lat="48.16186" lon="-3.58246">
        <ele>176</ele>
        <time>2021-08-11T10:42:03Z</time>
      </trkpt>
      <trkpt lat="48.16182" lon="-3.58249">
        <ele>175.6</ele>
        <time>2021-08-11T10:42:04Z</time>
      </trkpt>
      <trkpt lat="48.16177" lon="-3.58252">
        <ele>175.4</ele>
        <time>2021-08-11T10:42:05Z</time>
      </trkpt>
      <trkpt lat="48.16173" lon="-3.58255">
        <ele>175.2</ele>
        <time>2021-08-11T10:42:06Z</time>
      </trkpt>
      <trkpt lat="48.16169" lon="-3.58259">
        <ele>174.6</ele>
        <time>2021-08-11T10:42:07Z</time>
      </trkpt>
      <trkpt lat="48.16165" lon="-3.58263">
        <ele>174.4</ele>
        <time>2021-08-11T10:42:08Z</time>
      </trkpt>
      <trkpt lat="48.16161" lon="-3.58267">
        <ele>174.2</ele>
        <time>2021-08-11T10:42:09Z</time>
      </trkpt>
      <trkpt lat="48.16157" lon="-3.58271">
        <ele>173.8</ele>
        <time>2021-08-11T10:42:10Z</time>
      </trkpt>
      <trkpt lat="48.16154" lon="-3.58275">
        <ele>173.6</ele>
        <time>2021-08-11T10:42:11Z</time>
      </trkpt>
      <trkpt lat="48.16151" lon="-3.5828">
        <ele>173.6</ele>
        <time>2021-08-11T10:42:12Z</time>
      </trkpt>
      <trkpt lat="48.16149" lon="-3.58285">
        <ele>173.4</ele>
        <time>2021-08-11T10:42:13Z</time>
      </trkpt>
      <trkpt lat="48.16147" lon="-3.58289">
        <ele>173.4</ele>
        <time>2021-08-11T10:42:14Z</time>
      </trkpt>
      <trkpt lat="48.16146" lon="-3.58293">
        <ele>173.4</ele>
        <time>2021-08-11T10:42:15Z</time>
      </trkpt>
      <trkpt lat="48.16144" lon="-3.58296">
        <ele>173.4</ele>
        <time>2021-08-11T10:42:16Z</time>
      </trkpt>
      <trkpt lat="48.16141" lon="-3.58299">
        <ele>173.4</ele>
        <time>2021-08-11T10:42:17Z</time>
      </trkpt>
      <trkpt lat="48.16139" lon="-3.58302">
        <ele>173.4</ele>
        <time>2021-08-11T10:42:18Z</time>
      </trkpt>
      <trkpt lat="48.16135" lon="-3.58305">
        <ele>173.4</ele>
        <time>2021-08-11T10:42:19Z</time>
      </trkpt>
      <trkpt lat="48.16132" lon="-3.58308">
        <ele>173.2</ele>
        <time>2021-08-11T10:42:20Z</time>
      </trkpt>
      <trkpt lat="48.16127" lon="-3.58312">
        <ele>173.2</ele>
        <time>2021-08-11T10:42:21Z</time>
      </trkpt>
      <trkpt lat="48.16122" lon="-3.58316">
        <ele>173</ele>
        <time>2021-08-11T10:42:22Z</time>
      </trkpt>
      <trkpt lat="48.16117" lon="-3.5832">
        <ele>173</ele>
        <time>2021-08-11T10:42:23Z</time>
      </trkpt>
      <trkpt lat="48.16112" lon="-3.58325">
        <ele>173</ele>
        <time>2021-08-11T10:42:24Z</time>
      </trkpt>
      <trkpt lat="48.16106" lon="-3.5833">
        <ele>173</ele>
        <time>2021-08-11T10:42:25Z</time>
      </trkpt>
      <trkpt lat="48.161" lon="-3.58335">
        <ele>173</ele>
        <time>2021-08-11T10:42:26Z</time>
      </trkpt>
      <trkpt lat="48.16094" lon="-3.5834">
        <ele>172.8</ele>
        <time>2021-08-11T10:42:27Z</time>
      </trkpt>
      <trkpt lat="48.16088" lon="-3.58344">
        <ele>172.8</ele>
        <time>2021-08-11T10:42:28Z</time>
      </trkpt>
      <trkpt lat="48.16083" lon="-3.58348">
        <ele>172.8</ele>
        <time>2021-08-11T10:42:29Z</time>
      </trkpt>
      <trkpt lat="48.16079" lon="-3.58352">
        <ele>172.4</ele>
        <time>2021-08-11T10:42:30Z</time>
      </trkpt>
      <trkpt lat="48.16076" lon="-3.58356">
        <ele>171.8</ele>
        <time>2021-08-11T10:42:31Z</time>
      </trkpt>
      <trkpt lat="48.16075" lon="-3.5836">
        <ele>171</ele>
        <time>2021-08-11T10:42:32Z</time>
      </trkpt>
      <trkpt lat="48.16075" lon="-3.58364">
        <ele>170.6</ele>
        <time>2021-08-11T10:42:33Z</time>
      </trkpt>
      <trkpt lat="48.16076" lon="-3.58366">
        <ele>170.4</ele>
        <time>2021-08-11T10:42:34Z</time>
      </trkpt>
      <trkpt lat="48.16077" lon="-3.58368">
        <ele>170.2</ele>
        <time>2021-08-11T10:42:35Z</time>
      </trkpt>
      <trkpt lat="48.16078" lon="-3.58369">
        <ele>170.2</ele>
        <time>2021-08-11T10:42:36Z</time>
      </trkpt>
      <trkpt lat="48.1608" lon="-3.5837">
        <ele>170.2</ele>
        <time>2021-08-11T10:42:37Z</time>
      </trkpt>
      <trkpt lat="48.16081" lon="-3.58371">
        <ele>170.2</ele>
        <time>2021-08-11T10:42:38Z</time>
      </trkpt>
      <trkpt lat="48.16082" lon="-3.58372">
        <ele>170.2</ele>
        <time>2021-08-11T10:42:39Z</time>
      </trkpt>
      <trkpt lat="48.16083" lon="-3.58372">
        <ele>170.2</ele>
        <time>2021-08-11T10:42:40Z</time>
      </trkpt>
      <trkpt lat="48.16083" lon="-3.58373">
        <ele>170.6</ele>
        <time>2021-08-11T10:42:41Z</time>
      </trkpt>
      <trkpt lat="48.16084" lon="-3.58375">
        <ele>171</ele>
        <time>2021-08-11T10:42:42Z</time>
      </trkpt>
      <trkpt lat="48.16085" lon="-3.58376">
        <ele>171.2</ele>
        <time>2021-08-11T10:42:43Z</time>
      </trkpt>
      <trkpt lat="48.16086" lon="-3.58377">
        <ele>171.4</ele>
        <time>2021-08-11T10:42:44Z</time>
      </trkpt>
      <trkpt lat="48.16087" lon="-3.58378">
        <ele>171.4</ele>
        <time>2021-08-11T10:42:45Z</time>
      </trkpt>
      <trkpt lat="48.16089" lon="-3.5838">
        <ele>171.6</ele>
        <time>2021-08-11T10:42:46Z</time>
      </trkpt>
      <trkpt lat="48.1609" lon="-3.58381">
        <ele>171.6</ele>
        <time>2021-08-11T10:42:47Z</time>
      </trkpt>
      <trkpt lat="48.16091" lon="-3.58382">
        <ele>171.6</ele>
        <time>2021-08-11T10:42:48Z</time>
      </trkpt>
      <trkpt lat="48.16092" lon="-3.58383">
        <ele>171.6</ele>
        <time>2021-08-11T10:42:49Z</time>
      </trkpt>
      <trkpt lat="48.16094" lon="-3.58383">
        <ele>171.8</ele>
        <time>2021-08-11T10:42:50Z</time>
      </trkpt>
      <trkpt lat="48.16095" lon="-3.58384">
        <ele>171.8</ele>
        <time>2021-08-11T10:42:51Z</time>
      </trkpt>
      <trkpt lat="48.16096" lon="-3.58385">
        <ele>171.8</ele>
        <time>2021-08-11T10:42:52Z</time>
      </trkpt>
      <trkpt lat="48.16098" lon="-3.58386">
        <ele>172</ele>
        <time>2021-08-11T10:42:53Z</time>
      </trkpt>
      <trkpt lat="48.16099" lon="-3.58388">
        <ele>172</ele>
        <time>2021-08-11T10:42:54Z</time>
      </trkpt>
      <trkpt lat="48.161" lon="-3.5839">
        <ele>172</ele>
        <time>2021-08-11T10:42:55Z</time>
      </trkpt>
      <trkpt lat="48.16101" lon="-3.58392">
        <ele>172.4</ele>
        <time>2021-08-11T10:42:56Z</time>
      </trkpt>
      <trkpt lat="48.16101" lon="-3.58394">
        <ele>172.4</ele>
        <time>2021-08-11T10:42:57Z</time>
      </trkpt>
      <trkpt lat="48.16101" lon="-3.58396">
        <ele>172.6</ele>
        <time>2021-08-11T10:42:58Z</time>
      </trkpt>
      <trkpt lat="48.16101" lon="-3.58398">
        <ele>172.8</ele>
        <time>2021-08-11T10:42:59Z</time>
      </trkpt>
      <trkpt lat="48.16101" lon="-3.584">
        <ele>173</ele>
        <time>2021-08-11T10:43:00Z</time>
      </trkpt>
      <trkpt lat="48.161" lon="-3.58402">
        <ele>173.2</ele>
        <time>2021-08-11T10:43:01Z</time>
      </trkpt>
      <trkpt lat="48.161" lon="-3.58403">
        <ele>173.2</ele>
        <time>2021-08-11T10:43:02Z</time>
      </trkpt>
      <trkpt lat="48.16099" lon="-3.58405">
        <ele>173.2</ele>
        <time>2021-08-11T10:43:03Z</time>
      </trkpt>
      <trkpt lat="48.16098" lon="-3.58407">
        <ele>173.4</ele>
        <time>2021-08-11T10:43:04Z</time>
      </trkpt>
      <trkpt lat="48.16098" lon="-3.58408">
        <ele>173.4</ele>
        <time>2021-08-11T10:43:05Z</time>
      </trkpt>
      <trkpt lat="48.16097" lon="-3.58409">
        <ele>173.4</ele>
        <time>2021-08-11T10:43:06Z</time>
      </trkpt>
      <trkpt lat="48.16096" lon="-3.5841">
        <ele>173.4</ele>
        <time>2021-08-11T10:43:07Z</time>
      </trkpt>
      <trkpt lat="48.16096" lon="-3.58412">
        <ele>173.4</ele>
        <time>2021-08-11T10:43:08Z</time>
      </trkpt>
      <trkpt lat="48.16096" lon="-3.58414">
        <ele>173.4</ele>
        <time>2021-08-11T10:43:09Z</time>
      </trkpt>
      <trkpt lat="48.16095" lon="-3.58417">
        <ele>173.4</ele>
        <time>2021-08-11T10:43:10Z</time>
      </trkpt>
      <trkpt lat="48.16094" lon="-3.5842">
        <ele>173.4</ele>
        <time>2021-08-11T10:43:11Z</time>
      </trkpt>
      <trkpt lat="48.16093" lon="-3.58424">
        <ele>173.4</ele>
        <time>2021-08-11T10:43:12Z</time>
      </trkpt>
      <trkpt lat="48.16091" lon="-3.58428">
        <ele>173.4</ele>
        <time>2021-08-11T10:43:13Z</time>
      </trkpt>
      <trkpt lat="48.16089" lon="-3.58432">
        <ele>173.4</ele>
        <time>2021-08-11T10:43:14Z</time>
      </trkpt>
      <trkpt lat="48.16088" lon="-3.58437">
        <ele>173.4</ele>
        <time>2021-08-11T10:43:15Z</time>
      </trkpt>
      <trkpt lat="48.16086" lon="-3.58442">
        <ele>173.4</ele>
        <time>2021-08-11T10:43:16Z</time>
      </trkpt>
      <trkpt lat="48.16084" lon="-3.58447">
        <ele>173.4</ele>
        <time>2021-08-11T10:43:17Z</time>
      </trkpt>
      <trkpt lat="48.16082" lon="-3.58452">
        <ele>173.4</ele>
        <time>2021-08-11T10:43:18Z</time>
      </trkpt>
      <trkpt lat="48.1608" lon="-3.58458">
        <ele>173.4</ele>
        <time>2021-08-11T10:43:19Z</time>
      </trkpt>
      <trkpt lat="48.16078" lon="-3.58463">
        <ele>173.2</ele>
        <time>2021-08-11T10:43:20Z</time>
      </trkpt>
      <trkpt lat="48.16076" lon="-3.58469">
        <ele>173</ele>
        <time>2021-08-11T10:43:21Z</time>
      </trkpt>
      <trkpt lat="48.16074" lon="-3.58474">
        <ele>172.8</ele>
        <time>2021-08-11T10:43:22Z</time>
      </trkpt>
      <trkpt lat="48.16072" lon="-3.5848">
        <ele>172.8</ele>
        <time>2021-08-11T10:43:23Z</time>
      </trkpt>
      <trkpt lat="48.1607" lon="-3.58486">
        <ele>172.6</ele>
        <time>2021-08-11T10:43:24Z</time>
      </trkpt>
      <trkpt lat="48.16068" lon="-3.58492">
        <ele>172.6</ele>
        <time>2021-08-11T10:43:25Z</time>
      </trkpt>
      <trkpt lat="48.16067" lon="-3.58498">
        <ele>172.4</ele>
        <time>2021-08-11T10:43:26Z</time>
      </trkpt>
      <trkpt lat="48.16065" lon="-3.58504">
        <ele>172.4</ele>
        <time>2021-08-11T10:43:27Z</time>
      </trkpt>
      <trkpt lat="48.16063" lon="-3.5851">
        <ele>172</ele>
        <time>2021-08-11T10:43:28Z</time>
      </trkpt>
      <trkpt lat="48.16062" lon="-3.58517">
        <ele>171.8</ele>
        <time>2021-08-11T10:43:29Z</time>
      </trkpt>
      <trkpt lat="48.1606" lon="-3.58523">
        <ele>171.8</ele>
        <time>2021-08-11T10:43:30Z</time>
      </trkpt>
      <trkpt lat="48.16059" lon="-3.58529">
        <ele>171.6</ele>
        <time>2021-08-11T10:43:31Z</time>
      </trkpt>
      <trkpt lat="48.16057" lon="-3.58536">
        <ele>171.6</ele>
        <time>2021-08-11T10:43:32Z</time>
      </trkpt>
      <trkpt lat="48.16055" lon="-3.58543">
        <ele>171.4</ele>
        <time>2021-08-11T10:43:33Z</time>
      </trkpt>
      <trkpt lat="48.16054" lon="-3.58549">
        <ele>171.4</ele>
        <time>2021-08-11T10:43:34Z</time>
      </trkpt>
      <trkpt lat="48.16052" lon="-3.58556">
        <ele>171.4</ele>
        <time>2021-08-11T10:43:35Z</time>
      </trkpt>
      <trkpt lat="48.16051" lon="-3.58563">
        <ele>171.4</ele>
        <time>2021-08-11T10:43:36Z</time>
      </trkpt>
      <trkpt lat="48.1605" lon="-3.58569">
        <ele>171.2</ele>
        <time>2021-08-11T10:43:37Z</time>
      </trkpt>
      <trkpt lat="48.16049" lon="-3.58576">
        <ele>171.2</ele>
        <time>2021-08-11T10:43:38Z</time>
      </trkpt>
      <trkpt lat="48.16047" lon="-3.58582">
        <ele>170.8</ele>
        <time>2021-08-11T10:43:39Z</time>
      </trkpt>
      <trkpt lat="48.16046" lon="-3.58588">
        <ele>170.8</ele>
        <time>2021-08-11T10:43:40Z</time>
      </trkpt>
      <trkpt lat="48.16045" lon="-3.58594">
        <ele>170.6</ele>
        <time>2021-08-11T10:43:41Z</time>
      </trkpt>
      <trkpt lat="48.16044" lon="-3.586">
        <ele>170.4</ele>
        <time>2021-08-11T10:43:42Z</time>
      </trkpt>
      <trkpt lat="48.16043" lon="-3.58606">
        <ele>170.4</ele>
        <time>2021-08-11T10:43:43Z</time>
      </trkpt>
      <trkpt lat="48.16042" lon="-3.58613">
        <ele>170.2</ele>
        <time>2021-08-11T10:43:44Z</time>
      </trkpt>
      <trkpt lat="48.16042" lon="-3.5862">
        <ele>170.2</ele>
        <time>2021-08-11T10:43:45Z</time>
      </trkpt>
      <trkpt lat="48.16041" lon="-3.58626">
        <ele>170.2</ele>
        <time>2021-08-11T10:43:46Z</time>
      </trkpt>
      <trkpt lat="48.1604" lon="-3.58633">
        <ele>170</ele>
        <time>2021-08-11T10:43:47Z</time>
      </trkpt>
      <trkpt lat="48.1604" lon="-3.5864">
        <ele>169.8</ele>
        <time>2021-08-11T10:43:48Z</time>
      </trkpt>
      <trkpt lat="48.16039" lon="-3.58646">
        <ele>169.8</ele>
        <time>2021-08-11T10:43:49Z</time>
      </trkpt>
      <trkpt lat="48.16038" lon="-3.58654">
        <ele>169.8</ele>
        <time>2021-08-11T10:43:50Z</time>
      </trkpt>
      <trkpt lat="48.16037" lon="-3.58661">
        <ele>169.8</ele>
        <time>2021-08-11T10:43:51Z</time>
      </trkpt>
      <trkpt lat="48.16036" lon="-3.58668">
        <ele>169.6</ele>
        <time>2021-08-11T10:43:52Z</time>
      </trkpt>
      <trkpt lat="48.16035" lon="-3.58676">
        <ele>169.4</ele>
        <time>2021-08-11T10:43:53Z</time>
      </trkpt>
      <trkpt lat="48.16034" lon="-3.58685">
        <ele>169.4</ele>
        <time>2021-08-11T10:43:54Z</time>
      </trkpt>
      <trkpt lat="48.16033" lon="-3.58692">
        <ele>169.2</ele>
        <time>2021-08-11T10:43:55Z</time>
      </trkpt>
      <trkpt lat="48.16032" lon="-3.587">
        <ele>169.2</ele>
        <time>2021-08-11T10:43:56Z</time>
      </trkpt>
      <trkpt lat="48.16031" lon="-3.58708">
        <ele>169</ele>
        <time>2021-08-11T10:43:57Z</time>
      </trkpt>
      <trkpt lat="48.1603" lon="-3.58716">
        <ele>168.8</ele>
        <time>2021-08-11T10:43:58Z</time>
      </trkpt>
      <trkpt lat="48.1603" lon="-3.58726">
        <ele>168.6</ele>
        <time>2021-08-11T10:43:59Z</time>
      </trkpt>
      <trkpt lat="48.16029" lon="-3.58736">
        <ele>168.6</ele>
        <time>2021-08-11T10:44:00Z</time>
      </trkpt>
      <trkpt lat="48.16028" lon="-3.58746">
        <ele>168.2</ele>
        <time>2021-08-11T10:44:01Z</time>
      </trkpt>
      <trkpt lat="48.16028" lon="-3.58755">
        <ele>168</ele>
        <time>2021-08-11T10:44:02Z</time>
      </trkpt>
      <trkpt lat="48.16027" lon="-3.58765">
        <ele>168</ele>
        <time>2021-08-11T10:44:03Z</time>
      </trkpt>
      <trkpt lat="48.16026" lon="-3.58775">
        <ele>167.8</ele>
        <time>2021-08-11T10:44:04Z</time>
      </trkpt>
      <trkpt lat="48.16025" lon="-3.58786">
        <ele>167.6</ele>
        <time>2021-08-11T10:44:05Z</time>
      </trkpt>
      <trkpt lat="48.16024" lon="-3.58796">
        <ele>167.4</ele>
        <time>2021-08-11T10:44:06Z</time>
      </trkpt>
      <trkpt lat="48.16023" lon="-3.58806">
        <ele>167.2</ele>
        <time>2021-08-11T10:44:07Z</time>
      </trkpt>
      <trkpt lat="48.16023" lon="-3.58815">
        <ele>167</ele>
        <time>2021-08-11T10:44:08Z</time>
      </trkpt>
      <trkpt lat="48.16022" lon="-3.58824">
        <ele>166.8</ele>
        <time>2021-08-11T10:44:09Z</time>
      </trkpt>
      <trkpt lat="48.16021" lon="-3.58834">
        <ele>166.6</ele>
        <time>2021-08-11T10:44:10Z</time>
      </trkpt>
      <trkpt lat="48.1602" lon="-3.58844">
        <ele>166.4</ele>
        <time>2021-08-11T10:44:11Z</time>
      </trkpt>
      <trkpt lat="48.16018" lon="-3.58854">
        <ele>166.2</ele>
        <time>2021-08-11T10:44:12Z</time>
      </trkpt>
      <trkpt lat="48.16017" lon="-3.58864">
        <ele>166</ele>
        <time>2021-08-11T10:44:13Z</time>
      </trkpt>
      <trkpt lat="48.16015" lon="-3.58875">
        <ele>166</ele>
        <time>2021-08-11T10:44:14Z</time>
      </trkpt>
      <trkpt lat="48.16013" lon="-3.58885">
        <ele>166</ele>
        <time>2021-08-11T10:44:15Z</time>
      </trkpt>
      <trkpt lat="48.16011" lon="-3.58896">
        <ele>165.8</ele>
        <time>2021-08-11T10:44:16Z</time>
      </trkpt>
      <trkpt lat="48.1601" lon="-3.58905">
        <ele>165.8</ele>
        <time>2021-08-11T10:44:17Z</time>
      </trkpt>
      <trkpt lat="48.16008" lon="-3.58915">
        <ele>165.6</ele>
        <time>2021-08-11T10:44:18Z</time>
      </trkpt>
      <trkpt lat="48.16005" lon="-3.58924">
        <ele>165.4</ele>
        <time>2021-08-11T10:44:19Z</time>
      </trkpt>
      <trkpt lat="48.16003" lon="-3.58934">
        <ele>165.2</ele>
        <time>2021-08-11T10:44:20Z</time>
      </trkpt>
      <trkpt lat="48.16001" lon="-3.58943">
        <ele>165</ele>
        <time>2021-08-11T10:44:21Z</time>
      </trkpt>
      <trkpt lat="48.15998" lon="-3.58952">
        <ele>164.8</ele>
        <time>2021-08-11T10:44:22Z</time>
      </trkpt>
      <trkpt lat="48.15995" lon="-3.58961">
        <ele>164.8</ele>
        <time>2021-08-11T10:44:23Z</time>
      </trkpt>
      <trkpt lat="48.15992" lon="-3.58971">
        <ele>164.6</ele>
        <time>2021-08-11T10:44:24Z</time>
      </trkpt>
      <trkpt lat="48.15988" lon="-3.58979">
        <ele>164.4</ele>
        <time>2021-08-11T10:44:25Z</time>
      </trkpt>
      <trkpt lat="48.15985" lon="-3.58989">
        <ele>164.4</ele>
        <time>2021-08-11T10:44:26Z</time>
      </trkpt>
      <trkpt lat="48.15981" lon="-3.58998">
        <ele>164.4</ele>
        <time>2021-08-11T10:44:27Z</time>
      </trkpt>
      <trkpt lat="48.15977" lon="-3.59007">
        <ele>164.4</ele>
        <time>2021-08-11T10:44:28Z</time>
      </trkpt>
      <trkpt lat="48.15973" lon="-3.59016">
        <ele>164.2</ele>
        <time>2021-08-11T10:44:29Z</time>
      </trkpt>
      <trkpt lat="48.15969" lon="-3.59023">
        <ele>164.2</ele>
        <time>2021-08-11T10:44:30Z</time>
      </trkpt>
      <trkpt lat="48.15966" lon="-3.59031">
        <ele>164</ele>
        <time>2021-08-11T10:44:31Z</time>
      </trkpt>
      <trkpt lat="48.15962" lon="-3.59038">
        <ele>164</ele>
        <time>2021-08-11T10:44:32Z</time>
      </trkpt>
      <trkpt lat="48.15958" lon="-3.59045">
        <ele>164</ele>
        <time>2021-08-11T10:44:33Z</time>
      </trkpt>
      <trkpt lat="48.15955" lon="-3.59052">
        <ele>163.8</ele>
        <time>2021-08-11T10:44:34Z</time>
      </trkpt>
      <trkpt lat="48.15951" lon="-3.59059">
        <ele>163.6</ele>
        <time>2021-08-11T10:44:35Z</time>
      </trkpt>
      <trkpt lat="48.15947" lon="-3.59066">
        <ele>163.4</ele>
        <time>2021-08-11T10:44:36Z</time>
      </trkpt>
      <trkpt lat="48.15943" lon="-3.59072">
        <ele>163.2</ele>
        <time>2021-08-11T10:44:37Z</time>
      </trkpt>
      <trkpt lat="48.15939" lon="-3.59079">
        <ele>163.2</ele>
        <time>2021-08-11T10:44:38Z</time>
      </trkpt>
      <trkpt lat="48.15935" lon="-3.59084">
        <ele>163.2</ele>
        <time>2021-08-11T10:44:39Z</time>
      </trkpt>
      <trkpt lat="48.15931" lon="-3.5909">
        <ele>163</ele>
        <time>2021-08-11T10:44:40Z</time>
      </trkpt>
      <trkpt lat="48.15927" lon="-3.59096">
        <ele>163</ele>
        <time>2021-08-11T10:44:41Z</time>
      </trkpt>
      <trkpt lat="48.15922" lon="-3.59102">
        <ele>163</ele>
        <time>2021-08-11T10:44:42Z</time>
      </trkpt>
      <trkpt lat="48.15916" lon="-3.59109">
        <ele>163</ele>
        <time>2021-08-11T10:44:43Z</time>
      </trkpt>
      <trkpt lat="48.1591" lon="-3.59114">
        <ele>163</ele>
        <time>2021-08-11T10:44:44Z</time>
      </trkpt>
      <trkpt lat="48.15904" lon="-3.5912">
        <ele>163</ele>
        <time>2021-08-11T10:44:45Z</time>
      </trkpt>
      <trkpt lat="48.15899" lon="-3.59126">
        <ele>163</ele>
        <time>2021-08-11T10:44:46Z</time>
      </trkpt>
      <trkpt lat="48.15894" lon="-3.59131">
        <ele>162.8</ele>
        <time>2021-08-11T10:44:47Z</time>
      </trkpt>
      <trkpt lat="48.15888" lon="-3.59137">
        <ele>162.8</ele>
        <time>2021-08-11T10:44:48Z</time>
      </trkpt>
      <trkpt lat="48.15882" lon="-3.59143">
        <ele>162.8</ele>
        <time>2021-08-11T10:44:49Z</time>
      </trkpt>
      <trkpt lat="48.15876" lon="-3.59148">
        <ele>162.6</ele>
        <time>2021-08-11T10:44:50Z</time>
      </trkpt>
      <trkpt lat="48.1587" lon="-3.59154">
        <ele>162.6</ele>
        <time>2021-08-11T10:44:51Z</time>
      </trkpt>
      <trkpt lat="48.15865" lon="-3.59159">
        <ele>162.4</ele>
        <time>2021-08-11T10:44:52Z</time>
      </trkpt>
      <trkpt lat="48.15859" lon="-3.59165">
        <ele>162</ele>
        <time>2021-08-11T10:44:53Z</time>
      </trkpt>
      <trkpt lat="48.15853" lon="-3.5917">
        <ele>162</ele>
        <time>2021-08-11T10:44:54Z</time>
      </trkpt>
      <trkpt lat="48.15847" lon="-3.59176">
        <ele>161.6</ele>
        <time>2021-08-11T10:44:55Z</time>
      </trkpt>
      <trkpt lat="48.15841" lon="-3.59181">
        <ele>161.2</ele>
        <time>2021-08-11T10:44:56Z</time>
      </trkpt>
      <trkpt lat="48.15836" lon="-3.59185">
        <ele>161</ele>
        <time>2021-08-11T10:44:57Z</time>
      </trkpt>
      <trkpt lat="48.15831" lon="-3.59191">
        <ele>160.8</ele>
        <time>2021-08-11T10:44:58Z</time>
      </trkpt>
      <trkpt lat="48.15825" lon="-3.59196">
        <ele>160.6</ele>
        <time>2021-08-11T10:44:59Z</time>
      </trkpt>
      <trkpt lat="48.1582" lon="-3.59202">
        <ele>160.6</ele>
        <time>2021-08-11T10:45:00Z</time>
      </trkpt>
      <trkpt lat="48.15814" lon="-3.59209">
        <ele>160.4</ele>
        <time>2021-08-11T10:45:01Z</time>
      </trkpt>
      <trkpt lat="48.15808" lon="-3.59214">
        <ele>160.4</ele>
        <time>2021-08-11T10:45:02Z</time>
      </trkpt>
      <trkpt lat="48.15802" lon="-3.5922">
        <ele>160.4</ele>
        <time>2021-08-11T10:45:03Z</time>
      </trkpt>
      <trkpt lat="48.15796" lon="-3.59226">
        <ele>160.4</ele>
        <time>2021-08-11T10:45:04Z</time>
      </trkpt>
      <trkpt lat="48.15791" lon="-3.59232">
        <ele>160.2</ele>
        <time>2021-08-11T10:45:05Z</time>
      </trkpt>
      <trkpt lat="48.15785" lon="-3.59237">
        <ele>160</ele>
        <time>2021-08-11T10:45:06Z</time>
      </trkpt>
      <trkpt lat="48.1578" lon="-3.59242">
        <ele>159.8</ele>
        <time>2021-08-11T10:45:07Z</time>
      </trkpt>
      <trkpt lat="48.15774" lon="-3.59246">
        <ele>159.6</ele>
        <time>2021-08-11T10:45:08Z</time>
      </trkpt>
      <trkpt lat="48.15768" lon="-3.59251">
        <ele>159.4</ele>
        <time>2021-08-11T10:45:09Z</time>
      </trkpt>
      <trkpt lat="48.15762" lon="-3.59257">
        <ele>159.2</ele>
        <time>2021-08-11T10:45:10Z</time>
      </trkpt>
      <trkpt lat="48.15756" lon="-3.59262">
        <ele>159</ele>
        <time>2021-08-11T10:45:11Z</time>
      </trkpt>
      <trkpt lat="48.1575" lon="-3.59267">
        <ele>159</ele>
        <time>2021-08-11T10:45:12Z</time>
      </trkpt>
      <trkpt lat="48.15744" lon="-3.59272">
        <ele>158.8</ele>
        <time>2021-08-11T10:45:13Z</time>
      </trkpt>
      <trkpt lat="48.15737" lon="-3.59277">
        <ele>158.6</ele>
        <time>2021-08-11T10:45:14Z</time>
      </trkpt>
      <trkpt lat="48.15731" lon="-3.59282">
        <ele>158.6</ele>
        <time>2021-08-11T10:45:15Z</time>
      </trkpt>
      <trkpt lat="48.15725" lon="-3.59286">
        <ele>158.4</ele>
        <time>2021-08-11T10:45:16Z</time>
      </trkpt>
      <trkpt lat="48.1572" lon="-3.59291">
        <ele>158.4</ele>
        <time>2021-08-11T10:45:17Z</time>
      </trkpt>
      <trkpt lat="48.15714" lon="-3.59296">
        <ele>158.2</ele>
        <time>2021-08-11T10:45:18Z</time>
      </trkpt>
      <trkpt lat="48.15708" lon="-3.59301">
        <ele>158.2</ele>
        <time>2021-08-11T10:45:19Z</time>
      </trkpt>
      <trkpt lat="48.15702" lon="-3.59306">
        <ele>158.2</ele>
        <time>2021-08-11T10:45:20Z</time>
      </trkpt>
      <trkpt lat="48.15696" lon="-3.59311">
        <ele>158.2</ele>
        <time>2021-08-11T10:45:21Z</time>
      </trkpt>
      <trkpt lat="48.1569" lon="-3.59317">
        <ele>158</ele>
        <time>2021-08-11T10:45:22Z</time>
      </trkpt>
      <trkpt lat="48.15683" lon="-3.59322">
        <ele>158</ele>
        <time>2021-08-11T10:45:23Z</time>
      </trkpt>
      <trkpt lat="48.15677" lon="-3.59327">
        <ele>157.8</ele>
        <time>2021-08-11T10:45:24Z</time>
      </trkpt>
      <trkpt lat="48.15672" lon="-3.59331">
        <ele>157.4</ele>
        <time>2021-08-11T10:45:25Z</time>
      </trkpt>
      <trkpt lat="48.15666" lon="-3.59336">
        <ele>157</ele>
        <time>2021-08-11T10:45:26Z</time>
      </trkpt>
      <trkpt lat="48.1566" lon="-3.5934">
        <ele>156.6</ele>
        <time>2021-08-11T10:45:27Z</time>
      </trkpt>
      <trkpt lat="48.15654" lon="-3.59345">
        <ele>156.2</ele>
        <time>2021-08-11T10:45:28Z</time>
      </trkpt>
      <trkpt lat="48.15648" lon="-3.59349">
        <ele>156.2</ele>
        <time>2021-08-11T10:45:29Z</time>
      </trkpt>
      <trkpt lat="48.15642" lon="-3.59354">
        <ele>156.2</ele>
        <time>2021-08-11T10:45:30Z</time>
      </trkpt>
      <trkpt lat="48.15637" lon="-3.59358">
        <ele>155.8</ele>
        <time>2021-08-11T10:45:31Z</time>
      </trkpt>
      <trkpt lat="48.15631" lon="-3.59362">
        <ele>155.6</ele>
        <time>2021-08-11T10:45:32Z</time>
      </trkpt>
      <trkpt lat="48.15626" lon="-3.59366">
        <ele>155.4</ele>
        <time>2021-08-11T10:45:33Z</time>
      </trkpt>
      <trkpt lat="48.15621" lon="-3.5937">
        <ele>155.4</ele>
        <time>2021-08-11T10:45:34Z</time>
      </trkpt>
      <trkpt lat="48.15616" lon="-3.59373">
        <ele>155.4</ele>
        <time>2021-08-11T10:45:35Z</time>
      </trkpt>
      <trkpt lat="48.15611" lon="-3.59376">
        <ele>155.2</ele>
        <time>2021-08-11T10:45:36Z</time>
      </trkpt>
      <trkpt lat="48.15605" lon="-3.59378">
        <ele>155</ele>
        <time>2021-08-11T10:45:37Z</time>
      </trkpt>
      <trkpt lat="48.156" lon="-3.59379">
        <ele>155</ele>
        <time>2021-08-11T10:45:38Z</time>
      </trkpt>
      <trkpt lat="48.15594" lon="-3.5938">
        <ele>155</ele>
        <time>2021-08-11T10:45:39Z</time>
      </trkpt>
      <trkpt lat="48.15589" lon="-3.5938">
        <ele>154.8</ele>
        <time>2021-08-11T10:45:40Z</time>
      </trkpt>
      <trkpt lat="48.15583" lon="-3.59381">
        <ele>154.8</ele>
        <time>2021-08-11T10:45:41Z</time>
      </trkpt>
      <trkpt lat="48.15578" lon="-3.59382">
        <ele>154.6</ele>
        <time>2021-08-11T10:45:42Z</time>
      </trkpt>
      <trkpt lat="48.15573" lon="-3.59383">
        <ele>154.6</ele>
        <time>2021-08-11T10:45:43Z</time>
      </trkpt>
      <trkpt lat="48.15568" lon="-3.59383">
        <ele>154.6</ele>
        <time>2021-08-11T10:45:44Z</time>
      </trkpt>
      <trkpt lat="48.15563" lon="-3.59383">
        <ele>154.4</ele>
        <time>2021-08-11T10:45:45Z</time>
      </trkpt>
      <trkpt lat="48.15558" lon="-3.59382">
        <ele>154.4</ele>
        <time>2021-08-11T10:45:46Z</time>
      </trkpt>
      <trkpt lat="48.15553" lon="-3.59382">
        <ele>154.4</ele>
        <time>2021-08-11T10:45:47Z</time>
      </trkpt>
      <trkpt lat="48.15548" lon="-3.5938">
        <ele>154.2</ele>
        <time>2021-08-11T10:45:48Z</time>
      </trkpt>
      <trkpt lat="48.15544" lon="-3.59376">
        <ele>154.2</ele>
        <time>2021-08-11T10:45:49Z</time>
      </trkpt>
      <trkpt lat="48.15541" lon="-3.59371">
        <ele>154</ele>
        <time>2021-08-11T10:45:50Z</time>
      </trkpt>
      <trkpt lat="48.1554" lon="-3.59365">
        <ele>154</ele>
        <time>2021-08-11T10:45:51Z</time>
      </trkpt>
      <trkpt lat="48.1554" lon="-3.59358">
        <ele>154</ele>
        <time>2021-08-11T10:45:52Z</time>
      </trkpt>
      <trkpt lat="48.1554" lon="-3.59352">
        <ele>153.8</ele>
        <time>2021-08-11T10:45:53Z</time>
      </trkpt>
      <trkpt lat="48.1554" lon="-3.59347">
        <ele>153.6</ele>
        <time>2021-08-11T10:45:54Z</time>
      </trkpt>
      <trkpt lat="48.1554" lon="-3.59343">
        <ele>153.6</ele>
        <time>2021-08-11T10:45:55Z</time>
      </trkpt>
      <trkpt lat="48.1554" lon="-3.5934">
        <ele>153.4</ele>
        <time>2021-08-11T10:45:56Z</time>
      </trkpt>
      <trkpt lat="48.1554" lon="-3.59337">
        <ele>153.2</ele>
        <time>2021-08-11T10:45:57Z</time>
      </trkpt>
      <trkpt lat="48.15541" lon="-3.59335">
        <ele>153</ele>
        <time>2021-08-11T10:45:58Z</time>
      </trkpt>
      <trkpt lat="48.15542" lon="-3.59334">
        <ele>152.8</ele>
        <time>2021-08-11T10:45:59Z</time>
      </trkpt>
      <trkpt lat="48.15538" lon="-3.59333">
        <ele>152.6</ele>
        <time>2021-08-11T10:46:00Z</time>
      </trkpt>
      <trkpt lat="48.15534" lon="-3.59331">
        <ele>152.2</ele>
        <time>2021-08-11T10:46:01Z</time>
      </trkpt>
      <trkpt lat="48.15531" lon="-3.59329">
        <ele>152</ele>
        <time>2021-08-11T10:46:02Z</time>
      </trkpt>
      <trkpt lat="48.1553" lon="-3.59327">
        <ele>151.6</ele>
        <time>2021-08-11T10:46:03Z</time>
      </trkpt>
      <trkpt lat="48.15526" lon="-3.59327">
        <ele>151.4</ele>
        <time>2021-08-11T10:46:04Z</time>
      </trkpt>
      <trkpt lat="48.15523" lon="-3.59328">
        <ele>151.2</ele>
        <time>2021-08-11T10:46:05Z</time>
      </trkpt>
      <trkpt lat="48.1552" lon="-3.59329">
        <ele>151</ele>
        <time>2021-08-11T10:46:06Z</time>
      </trkpt>
      <trkpt lat="48.15515" lon="-3.59331">
        <ele>150.8</ele>
        <time>2021-08-11T10:46:07Z</time>
      </trkpt>
      <trkpt lat="48.15511" lon="-3.59333">
        <ele>150.8</ele>
        <time>2021-08-11T10:46:08Z</time>
      </trkpt>
      <trkpt lat="48.15507" lon="-3.59334">
        <ele>150.6</ele>
        <time>2021-08-11T10:46:09Z</time>
      </trkpt>
      <trkpt lat="48.15503" lon="-3.59335">
        <ele>150.6</ele>
        <time>2021-08-11T10:46:10Z</time>
      </trkpt>
      <trkpt lat="48.15499" lon="-3.59333">
        <ele>150.6</ele>
        <time>2021-08-11T10:46:11Z</time>
      </trkpt>
      <trkpt lat="48.15496" lon="-3.59331">
        <ele>150.6</ele>
        <time>2021-08-11T10:46:12Z</time>
      </trkpt>
      <trkpt lat="48.15492" lon="-3.59327">
        <ele>150.6</ele>
        <time>2021-08-11T10:46:13Z</time>
      </trkpt>
      <trkpt lat="48.1549" lon="-3.59323">
        <ele>150.6</ele>
        <time>2021-08-11T10:46:14Z</time>
      </trkpt>
      <trkpt lat="48.15487" lon="-3.59318">
        <ele>150.6</ele>
        <time>2021-08-11T10:46:15Z</time>
      </trkpt>
      <trkpt lat="48.15486" lon="-3.59314">
        <ele>150.6</ele>
        <time>2021-08-11T10:46:16Z</time>
      </trkpt>
      <trkpt lat="48.15484" lon="-3.5931">
        <ele>150.6</ele>
        <time>2021-08-11T10:46:17Z</time>
      </trkpt>
      <trkpt lat="48.15483" lon="-3.59305">
        <ele>150.6</ele>
        <time>2021-08-11T10:46:18Z</time>
      </trkpt>
      <trkpt lat="48.15482" lon="-3.59301">
        <ele>150.6</ele>
        <time>2021-08-11T10:46:19Z</time>
      </trkpt>
      <trkpt lat="48.15482" lon="-3.59297">
        <ele>150.6</ele>
        <time>2021-08-11T10:46:20Z</time>
      </trkpt>
      <trkpt lat="48.15482" lon="-3.59294">
        <ele>150.4</ele>
        <time>2021-08-11T10:46:21Z</time>
      </trkpt>
      <trkpt lat="48.15482" lon="-3.59293">
        <ele>150.4</ele>
        <time>2021-08-11T10:46:22Z</time>
      </trkpt>
      <trkpt lat="48.15482" lon="-3.59293">
        <ele>150.4</ele>
        <time>2021-08-11T10:46:23Z</time>
      </trkpt>
      <trkpt lat="48.15483" lon="-3.59288">
        <ele>150.2</ele>
        <time>2021-08-11T10:47:35Z</time>
      </trkpt>
      <trkpt lat="48.15483" lon="-3.59284">
        <ele>150.2</ele>
        <time>2021-08-11T10:47:36Z</time>
      </trkpt>
      <trkpt lat="48.15483" lon="-3.5928">
        <ele>150.2</ele>
        <time>2021-08-11T10:47:37Z</time>
      </trkpt>
      <trkpt lat="48.15484" lon="-3.59275">
        <ele>150.2</ele>
        <time>2021-08-11T10:47:38Z</time>
      </trkpt>
      <trkpt lat="48.15484" lon="-3.5927">
        <ele>150.2</ele>
        <time>2021-08-11T10:47:39Z</time>
      </trkpt>
      <trkpt lat="48.15483" lon="-3.59266">
        <ele>150.2</ele>
        <time>2021-08-11T10:47:40Z</time>
      </trkpt>
      <trkpt lat="48.1548" lon="-3.59264">
        <ele>150.2</ele>
        <time>2021-08-11T10:47:41Z</time>
      </trkpt>
      <trkpt lat="48.15477" lon="-3.59262">
        <ele>150</ele>
        <time>2021-08-11T10:47:42Z</time>
      </trkpt>
      <trkpt lat="48.15473" lon="-3.59259">
        <ele>150</ele>
        <time>2021-08-11T10:47:43Z</time>
      </trkpt>
      <trkpt lat="48.15469" lon="-3.59257">
        <ele>150</ele>
        <time>2021-08-11T10:47:44Z</time>
      </trkpt>
      <trkpt lat="48.15465" lon="-3.59256">
        <ele>149.8</ele>
        <time>2021-08-11T10:47:45Z</time>
      </trkpt>
      <trkpt lat="48.15461" lon="-3.5926">
        <ele>149.4</ele>
        <time>2021-08-11T10:47:46Z</time>
      </trkpt>
      <trkpt lat="48.15458" lon="-3.59261">
        <ele>149</ele>
        <time>2021-08-11T10:47:47Z</time>
      </trkpt>
      <trkpt lat="48.15457" lon="-3.59265">
        <ele>148.8</ele>
        <time>2021-08-11T10:47:48Z</time>
      </trkpt>
      <trkpt lat="48.15456" lon="-3.5927">
        <ele>148.8</ele>
        <time>2021-08-11T10:47:49Z</time>
      </trkpt>
      <trkpt lat="48.15455" lon="-3.59276">
        <ele>148.8</ele>
        <time>2021-08-11T10:47:50Z</time>
      </trkpt>
      <trkpt lat="48.15455" lon="-3.59282">
        <ele>148.4</ele>
        <time>2021-08-11T10:47:51Z</time>
      </trkpt>
      <trkpt lat="48.15455" lon="-3.59288">
        <ele>148.2</ele>
        <time>2021-08-11T10:47:52Z</time>
      </trkpt>
      <trkpt lat="48.15455" lon="-3.59294">
        <ele>147.6</ele>
        <time>2021-08-11T10:47:53Z</time>
      </trkpt>
      <trkpt lat="48.15455" lon="-3.593">
        <ele>147.6</ele>
        <time>2021-08-11T10:47:54Z</time>
      </trkpt>
      <trkpt lat="48.15455" lon="-3.59305">
        <ele>147.6</ele>
        <time>2021-08-11T10:47:55Z</time>
      </trkpt>
      <trkpt lat="48.15456" lon="-3.5931">
        <ele>147.6</ele>
        <time>2021-08-11T10:47:56Z</time>
      </trkpt>
      <trkpt lat="48.15456" lon="-3.59315">
        <ele>147.6</ele>
        <time>2021-08-11T10:47:57Z</time>
      </trkpt>
      <trkpt lat="48.15457" lon="-3.5932">
        <ele>147.6</ele>
        <time>2021-08-11T10:47:58Z</time>
      </trkpt>
      <trkpt lat="48.15457" lon="-3.59325">
        <ele>147.6</ele>
        <time>2021-08-11T10:47:59Z</time>
      </trkpt>
      <trkpt lat="48.15457" lon="-3.5933">
        <ele>147.6</ele>
        <time>2021-08-11T10:48:00Z</time>
      </trkpt>
      <trkpt lat="48.15457" lon="-3.59335">
        <ele>147.6</ele>
        <time>2021-08-11T10:48:01Z</time>
      </trkpt>
      <trkpt lat="48.15457" lon="-3.59341">
        <ele>147.6</ele>
        <time>2021-08-11T10:48:02Z</time>
      </trkpt>
      <trkpt lat="48.15457" lon="-3.59346">
        <ele>147.6</ele>
        <time>2021-08-11T10:48:03Z</time>
      </trkpt>
      <trkpt lat="48.15456" lon="-3.59352">
        <ele>147.8</ele>
        <time>2021-08-11T10:48:04Z</time>
      </trkpt>
      <trkpt lat="48.15454" lon="-3.59357">
        <ele>147.8</ele>
        <time>2021-08-11T10:48:05Z</time>
      </trkpt>
      <trkpt lat="48.15451" lon="-3.59361">
        <ele>148.2</ele>
        <time>2021-08-11T10:48:06Z</time>
      </trkpt>
      <trkpt lat="48.15448" lon="-3.59365">
        <ele>148.4</ele>
        <time>2021-08-11T10:48:07Z</time>
      </trkpt>
      <trkpt lat="48.15444" lon="-3.59367">
        <ele>148.4</ele>
        <time>2021-08-11T10:48:08Z</time>
      </trkpt>
      <trkpt lat="48.1544" lon="-3.59368">
        <ele>148.6</ele>
        <time>2021-08-11T10:48:09Z</time>
      </trkpt>
      <trkpt lat="48.15435" lon="-3.59369">
        <ele>148.6</ele>
        <time>2021-08-11T10:48:10Z</time>
      </trkpt>
      <trkpt lat="48.1543" lon="-3.59368">
        <ele>148.6</ele>
        <time>2021-08-11T10:48:11Z</time>
      </trkpt>
      <trkpt lat="48.15425" lon="-3.59367">
        <ele>148.6</ele>
        <time>2021-08-11T10:48:12Z</time>
      </trkpt>
      <trkpt lat="48.15419" lon="-3.59366">
        <ele>148.6</ele>
        <time>2021-08-11T10:48:13Z</time>
      </trkpt>
      <trkpt lat="48.15414" lon="-3.59365">
        <ele>148.6</ele>
        <time>2021-08-11T10:48:14Z</time>
      </trkpt>
      <trkpt lat="48.15408" lon="-3.59364">
        <ele>148.6</ele>
        <time>2021-08-11T10:48:15Z</time>
      </trkpt>
      <trkpt lat="48.15402" lon="-3.59364">
        <ele>148.6</ele>
        <time>2021-08-11T10:48:16Z</time>
      </trkpt>
      <trkpt lat="48.15396" lon="-3.59365">
        <ele>148.6</ele>
        <time>2021-08-11T10:48:17Z</time>
      </trkpt>
      <trkpt lat="48.1539" lon="-3.59367">
        <ele>148.6</ele>
        <time>2021-08-11T10:48:18Z</time>
      </trkpt>
      <trkpt lat="48.15384" lon="-3.59369">
        <ele>148.6</ele>
        <time>2021-08-11T10:48:19Z</time>
      </trkpt>
      <trkpt lat="48.15377" lon="-3.59372">
        <ele>148.4</ele>
        <time>2021-08-11T10:48:20Z</time>
      </trkpt>
      <trkpt lat="48.1537" lon="-3.59375">
        <ele>148</ele>
        <time>2021-08-11T10:48:21Z</time>
      </trkpt>
      <trkpt lat="48.15364" lon="-3.59378">
        <ele>147.4</ele>
        <time>2021-08-11T10:48:22Z</time>
      </trkpt>
      <trkpt lat="48.15357" lon="-3.59382">
        <ele>147</ele>
        <time>2021-08-11T10:48:23Z</time>
      </trkpt>
      <trkpt lat="48.1535" lon="-3.59387">
        <ele>146.6</ele>
        <time>2021-08-11T10:48:24Z</time>
      </trkpt>
      <trkpt lat="48.15344" lon="-3.59392">
        <ele>146.2</ele>
        <time>2021-08-11T10:48:25Z</time>
      </trkpt>
      <trkpt lat="48.15337" lon="-3.59398">
        <ele>145.8</ele>
        <time>2021-08-11T10:48:26Z</time>
      </trkpt>
      <trkpt lat="48.15332" lon="-3.59405">
        <ele>145.6</ele>
        <time>2021-08-11T10:48:27Z</time>
      </trkpt>
      <trkpt lat="48.15326" lon="-3.59412">
        <ele>145.4</ele>
        <time>2021-08-11T10:48:28Z</time>
      </trkpt>
      <trkpt lat="48.15321" lon="-3.59419">
        <ele>144.8</ele>
        <time>2021-08-11T10:48:29Z</time>
      </trkpt>
      <trkpt lat="48.15317" lon="-3.59427">
        <ele>144</ele>
        <time>2021-08-11T10:48:30Z</time>
      </trkpt>
      <trkpt lat="48.15313" lon="-3.59435">
        <ele>143</ele>
        <time>2021-08-11T10:48:31Z</time>
      </trkpt>
      <trkpt lat="48.15309" lon="-3.59443">
        <ele>142.6</ele>
        <time>2021-08-11T10:48:32Z</time>
      </trkpt>
      <trkpt lat="48.15305" lon="-3.59451">
        <ele>142.4</ele>
        <time>2021-08-11T10:48:33Z</time>
      </trkpt>
      <trkpt lat="48.15302" lon="-3.5946">
        <ele>142</ele>
        <time>2021-08-11T10:48:34Z</time>
      </trkpt>
      <trkpt lat="48.15298" lon="-3.59468">
        <ele>141.4</ele>
        <time>2021-08-11T10:48:35Z</time>
      </trkpt>
      <trkpt lat="48.15295" lon="-3.59477">
        <ele>141</ele>
        <time>2021-08-11T10:48:36Z</time>
      </trkpt>
      <trkpt lat="48.15292" lon="-3.59485">
        <ele>140.8</ele>
        <time>2021-08-11T10:48:37Z</time>
      </trkpt>
      <trkpt lat="48.1529" lon="-3.59493">
        <ele>140.8</ele>
        <time>2021-08-11T10:48:38Z</time>
      </trkpt>
      <trkpt lat="48.15287" lon="-3.59502">
        <ele>140.8</ele>
        <time>2021-08-11T10:48:39Z</time>
      </trkpt>
      <trkpt lat="48.15284" lon="-3.5951">
        <ele>140.8</ele>
        <time>2021-08-11T10:48:40Z</time>
      </trkpt>
      <trkpt lat="48.15281" lon="-3.59517">
        <ele>140.8</ele>
        <time>2021-08-11T10:48:41Z</time>
      </trkpt>
      <trkpt lat="48.15279" lon="-3.59523">
        <ele>140.8</ele>
        <time>2021-08-11T10:48:42Z</time>
      </trkpt>
      <trkpt lat="48.15277" lon="-3.59529">
        <ele>140.8</ele>
        <time>2021-08-11T10:48:43Z</time>
      </trkpt>
      <trkpt lat="48.15275" lon="-3.59533">
        <ele>140.8</ele>
        <time>2021-08-11T10:48:44Z</time>
      </trkpt>
      <trkpt lat="48.15273" lon="-3.59536">
        <ele>140.8</ele>
        <time>2021-08-11T10:48:45Z</time>
      </trkpt>
      <trkpt lat="48.15271" lon="-3.59538">
        <ele>140.8</ele>
        <time>2021-08-11T10:48:46Z</time>
      </trkpt>
      <trkpt lat="48.1527" lon="-3.59541">
        <ele>140.8</ele>
        <time>2021-08-11T10:48:47Z</time>
      </trkpt>
      <trkpt lat="48.1527" lon="-3.59544">
        <ele>140.8</ele>
        <time>2021-08-11T10:48:48Z</time>
      </trkpt>
      <trkpt lat="48.15269" lon="-3.59546">
        <ele>141</ele>
        <time>2021-08-11T10:48:49Z</time>
      </trkpt>
      <trkpt lat="48.15268" lon="-3.59548">
        <ele>141.2</ele>
        <time>2021-08-11T10:48:50Z</time>
      </trkpt>
      <trkpt lat="48.15268" lon="-3.59552">
        <ele>141.6</ele>
        <time>2021-08-11T10:48:51Z</time>
      </trkpt>
      <trkpt lat="48.15266" lon="-3.59556">
        <ele>142</ele>
        <time>2021-08-11T10:48:52Z</time>
      </trkpt>
      <trkpt lat="48.15266" lon="-3.5956">
        <ele>142.4</ele>
        <time>2021-08-11T10:48:53Z</time>
      </trkpt>
      <trkpt lat="48.15265" lon="-3.59564">
        <ele>142.4</ele>
        <time>2021-08-11T10:48:54Z</time>
      </trkpt>
      <trkpt lat="48.15264" lon="-3.59569">
        <ele>142.6</ele>
        <time>2021-08-11T10:48:55Z</time>
      </trkpt>
      <trkpt lat="48.15262" lon="-3.59573">
        <ele>142.8</ele>
        <time>2021-08-11T10:48:56Z</time>
      </trkpt>
      <trkpt lat="48.15261" lon="-3.59578">
        <ele>143</ele>
        <time>2021-08-11T10:48:57Z</time>
      </trkpt>
      <trkpt lat="48.15259" lon="-3.59582">
        <ele>143</ele>
        <time>2021-08-11T10:48:58Z</time>
      </trkpt>
      <trkpt lat="48.15258" lon="-3.59587">
        <ele>143.2</ele>
        <time>2021-08-11T10:48:59Z</time>
      </trkpt>
      <trkpt lat="48.15256" lon="-3.59591">
        <ele>143.2</ele>
        <time>2021-08-11T10:49:00Z</time>
      </trkpt>
      <trkpt lat="48.15254" lon="-3.59596">
        <ele>143.2</ele>
        <time>2021-08-11T10:49:01Z</time>
      </trkpt>
      <trkpt lat="48.15252" lon="-3.59601">
        <ele>143.2</ele>
        <time>2021-08-11T10:49:02Z</time>
      </trkpt>
      <trkpt lat="48.15251" lon="-3.59606">
        <ele>143.2</ele>
        <time>2021-08-11T10:49:03Z</time>
      </trkpt>
      <trkpt lat="48.15249" lon="-3.59611">
        <ele>143.2</ele>
        <time>2021-08-11T10:49:04Z</time>
      </trkpt>
      <trkpt lat="48.15247" lon="-3.59616">
        <ele>143.2</ele>
        <time>2021-08-11T10:49:05Z</time>
      </trkpt>
      <trkpt lat="48.15245" lon="-3.59622">
        <ele>143.2</ele>
        <time>2021-08-11T10:49:06Z</time>
      </trkpt>
      <trkpt lat="48.15243" lon="-3.59627">
        <ele>143.2</ele>
        <time>2021-08-11T10:49:07Z</time>
      </trkpt>
      <trkpt lat="48.15241" lon="-3.59632">
        <ele>143.2</ele>
        <time>2021-08-11T10:49:08Z</time>
      </trkpt>
      <trkpt lat="48.15239" lon="-3.59637">
        <ele>143.2</ele>
        <time>2021-08-11T10:49:09Z</time>
      </trkpt>
      <trkpt lat="48.15237" lon="-3.59643">
        <ele>143.2</ele>
        <time>2021-08-11T10:49:10Z</time>
      </trkpt>
      <trkpt lat="48.15235" lon="-3.59649">
        <ele>143.2</ele>
        <time>2021-08-11T10:49:11Z</time>
      </trkpt>
      <trkpt lat="48.15233" lon="-3.59654">
        <ele>143</ele>
        <time>2021-08-11T10:49:12Z</time>
      </trkpt>
      <trkpt lat="48.15231" lon="-3.5966">
        <ele>143</ele>
        <time>2021-08-11T10:49:13Z</time>
      </trkpt>
      <trkpt lat="48.15228" lon="-3.59667">
        <ele>143</ele>
        <time>2021-08-11T10:49:14Z</time>
      </trkpt>
      <trkpt lat="48.15226" lon="-3.59673">
        <ele>143</ele>
        <time>2021-08-11T10:49:15Z</time>
      </trkpt>
      <trkpt lat="48.15224" lon="-3.59679">
        <ele>143</ele>
        <time>2021-08-11T10:49:16Z</time>
      </trkpt>
      <trkpt lat="48.15222" lon="-3.59685">
        <ele>143</ele>
        <time>2021-08-11T10:49:17Z</time>
      </trkpt>
      <trkpt lat="48.15219" lon="-3.59692">
        <ele>143</ele>
        <time>2021-08-11T10:49:18Z</time>
      </trkpt>
      <trkpt lat="48.15217" lon="-3.59698">
        <ele>142.8</ele>
        <time>2021-08-11T10:49:19Z</time>
      </trkpt>
      <trkpt lat="48.15215" lon="-3.59704">
        <ele>142.8</ele>
        <time>2021-08-11T10:49:20Z</time>
      </trkpt>
      <trkpt lat="48.15212" lon="-3.5971">
        <ele>142.8</ele>
        <time>2021-08-11T10:49:21Z</time>
      </trkpt>
      <trkpt lat="48.1521" lon="-3.59716">
        <ele>142.8</ele>
        <time>2021-08-11T10:49:22Z</time>
      </trkpt>
      <trkpt lat="48.15207" lon="-3.59722">
        <ele>142.8</ele>
        <time>2021-08-11T10:49:23Z</time>
      </trkpt>
      <trkpt lat="48.15205" lon="-3.59728">
        <ele>142.8</ele>
        <time>2021-08-11T10:49:24Z</time>
      </trkpt>
      <trkpt lat="48.15203" lon="-3.59734">
        <ele>142.8</ele>
        <time>2021-08-11T10:49:25Z</time>
      </trkpt>
      <trkpt lat="48.15201" lon="-3.5974">
        <ele>142.8</ele>
        <time>2021-08-11T10:49:26Z</time>
      </trkpt>
      <trkpt lat="48.15199" lon="-3.59745">
        <ele>142.8</ele>
        <time>2021-08-11T10:49:27Z</time>
      </trkpt>
      <trkpt lat="48.15197" lon="-3.59752">
        <ele>142.8</ele>
        <time>2021-08-11T10:49:28Z</time>
      </trkpt>
      <trkpt lat="48.15196" lon="-3.59758">
        <ele>142.8</ele>
        <time>2021-08-11T10:49:29Z</time>
      </trkpt>
      <trkpt lat="48.15193" lon="-3.59764">
        <ele>142.8</ele>
        <time>2021-08-11T10:49:30Z</time>
      </trkpt>
      <trkpt lat="48.15191" lon="-3.5977">
        <ele>143</ele>
        <time>2021-08-11T10:49:31Z</time>
      </trkpt>
      <trkpt lat="48.15189" lon="-3.59776">
        <ele>143</ele>
        <time>2021-08-11T10:49:32Z</time>
      </trkpt>
      <trkpt lat="48.15186" lon="-3.59782">
        <ele>143</ele>
        <time>2021-08-11T10:49:33Z</time>
      </trkpt>
      <trkpt lat="48.15184" lon="-3.59788">
        <ele>143</ele>
        <time>2021-08-11T10:49:34Z</time>
      </trkpt>
      <trkpt lat="48.15182" lon="-3.59794">
        <ele>143</ele>
        <time>2021-08-11T10:49:35Z</time>
      </trkpt>
      <trkpt lat="48.1518" lon="-3.59801">
        <ele>143</ele>
        <time>2021-08-11T10:49:36Z</time>
      </trkpt>
      <trkpt lat="48.15178" lon="-3.59806">
        <ele>143</ele>
        <time>2021-08-11T10:49:37Z</time>
      </trkpt>
      <trkpt lat="48.15175" lon="-3.59811">
        <ele>143</ele>
        <time>2021-08-11T10:49:38Z</time>
      </trkpt>
      <trkpt lat="48.15173" lon="-3.59817">
        <ele>143</ele>
        <time>2021-08-11T10:49:39Z</time>
      </trkpt>
      <trkpt lat="48.15171" lon="-3.59822">
        <ele>143</ele>
        <time>2021-08-11T10:49:40Z</time>
      </trkpt>
      <trkpt lat="48.15169" lon="-3.59827">
        <ele>143</ele>
        <time>2021-08-11T10:49:41Z</time>
      </trkpt>
      <trkpt lat="48.15167" lon="-3.59832">
        <ele>143</ele>
        <time>2021-08-11T10:49:42Z</time>
      </trkpt>
      <trkpt lat="48.15164" lon="-3.59838">
        <ele>143</ele>
        <time>2021-08-11T10:49:43Z</time>
      </trkpt>
      <trkpt lat="48.15162" lon="-3.59843">
        <ele>142.8</ele>
        <time>2021-08-11T10:49:44Z</time>
      </trkpt>
      <trkpt lat="48.15159" lon="-3.59849">
        <ele>142.8</ele>
        <time>2021-08-11T10:49:45Z</time>
      </trkpt>
      <trkpt lat="48.15157" lon="-3.59855">
        <ele>142.8</ele>
        <time>2021-08-11T10:49:46Z</time>
      </trkpt>
      <trkpt lat="48.15154" lon="-3.59862">
        <ele>142.8</ele>
        <time>2021-08-11T10:49:47Z</time>
      </trkpt>
      <trkpt lat="48.15152" lon="-3.59868">
        <ele>142.6</ele>
        <time>2021-08-11T10:49:48Z</time>
      </trkpt>
      <trkpt lat="48.15149" lon="-3.59874">
        <ele>142.6</ele>
        <time>2021-08-11T10:49:49Z</time>
      </trkpt>
      <trkpt lat="48.15146" lon="-3.5988">
        <ele>142.6</ele>
        <time>2021-08-11T10:49:50Z</time>
      </trkpt>
      <trkpt lat="48.15143" lon="-3.59887">
        <ele>142.6</ele>
        <time>2021-08-11T10:49:51Z</time>
      </trkpt>
      <trkpt lat="48.1514" lon="-3.59893">
        <ele>142.6</ele>
        <time>2021-08-11T10:49:52Z</time>
      </trkpt>
      <trkpt lat="48.15138" lon="-3.59899">
        <ele>142.6</ele>
        <time>2021-08-11T10:49:53Z</time>
      </trkpt>
      <trkpt lat="48.15135" lon="-3.59904">
        <ele>142.6</ele>
        <time>2021-08-11T10:49:54Z</time>
      </trkpt>
      <trkpt lat="48.15133" lon="-3.5991">
        <ele>142.6</ele>
        <time>2021-08-11T10:49:55Z</time>
      </trkpt>
      <trkpt lat="48.1513" lon="-3.59915">
        <ele>142.6</ele>
        <time>2021-08-11T10:49:56Z</time>
      </trkpt>
      <trkpt lat="48.15128" lon="-3.59919">
        <ele>142.6</ele>
        <time>2021-08-11T10:49:57Z</time>
      </trkpt>
      <trkpt lat="48.15125" lon="-3.59924">
        <ele>142.6</ele>
        <time>2021-08-11T10:49:58Z</time>
      </trkpt>
      <trkpt lat="48.15123" lon="-3.59928">
        <ele>142.6</ele>
        <time>2021-08-11T10:49:59Z</time>
      </trkpt>
      <trkpt lat="48.1512" lon="-3.59931">
        <ele>142.6</ele>
        <time>2021-08-11T10:50:00Z</time>
      </trkpt>
      <trkpt lat="48.15118" lon="-3.59935">
        <ele>142.6</ele>
        <time>2021-08-11T10:50:01Z</time>
      </trkpt>
      <trkpt lat="48.15116" lon="-3.59939">
        <ele>142.6</ele>
        <time>2021-08-11T10:50:02Z</time>
      </trkpt>
      <trkpt lat="48.15113" lon="-3.59944">
        <ele>142.6</ele>
        <time>2021-08-11T10:50:03Z</time>
      </trkpt>
      <trkpt lat="48.15111" lon="-3.59948">
        <ele>142.6</ele>
        <time>2021-08-11T10:50:04Z</time>
      </trkpt>
      <trkpt lat="48.15108" lon="-3.59952">
        <ele>142.6</ele>
        <time>2021-08-11T10:50:05Z</time>
      </trkpt>
      <trkpt lat="48.15106" lon="-3.59956">
        <ele>142.6</ele>
        <time>2021-08-11T10:50:06Z</time>
      </trkpt>
      <trkpt lat="48.15103" lon="-3.5996">
        <ele>142.6</ele>
        <time>2021-08-11T10:50:07Z</time>
      </trkpt>
      <trkpt lat="48.151" lon="-3.59966">
        <ele>142.4</ele>
        <time>2021-08-11T10:50:08Z</time>
      </trkpt>
      <trkpt lat="48.15096" lon="-3.59971">
        <ele>142.4</ele>
        <time>2021-08-11T10:50:09Z</time>
      </trkpt>
      <trkpt lat="48.15093" lon="-3.59976">
        <ele>142.4</ele>
        <time>2021-08-11T10:50:10Z</time>
      </trkpt>
      <trkpt lat="48.1509" lon="-3.59981">
        <ele>142.4</ele>
        <time>2021-08-11T10:50:11Z</time>
      </trkpt>
      <trkpt lat="48.15087" lon="-3.59987">
        <ele>142.4</ele>
        <time>2021-08-11T10:50:12Z</time>
      </trkpt>
      <trkpt lat="48.15083" lon="-3.59992">
        <ele>142.4</ele>
        <time>2021-08-11T10:50:13Z</time>
      </trkpt>
      <trkpt lat="48.1508" lon="-3.59997">
        <ele>142.2</ele>
        <time>2021-08-11T10:50:14Z</time>
      </trkpt>
      <trkpt lat="48.15077" lon="-3.60001">
        <ele>142.2</ele>
        <time>2021-08-11T10:50:15Z</time>
      </trkpt>
      <trkpt lat="48.15074" lon="-3.60006">
        <ele>142.2</ele>
        <time>2021-08-11T10:50:16Z</time>
      </trkpt>
      <trkpt lat="48.15071" lon="-3.6001">
        <ele>142.2</ele>
        <time>2021-08-11T10:50:17Z</time>
      </trkpt>
      <trkpt lat="48.15068" lon="-3.60015">
        <ele>142.2</ele>
        <time>2021-08-11T10:50:18Z</time>
      </trkpt>
      <trkpt lat="48.15065" lon="-3.60019">
        <ele>142.2</ele>
        <time>2021-08-11T10:50:19Z</time>
      </trkpt>
      <trkpt lat="48.15062" lon="-3.60024">
        <ele>142</ele>
        <time>2021-08-11T10:50:20Z</time>
      </trkpt>
      <trkpt lat="48.15058" lon="-3.60028">
        <ele>142</ele>
        <time>2021-08-11T10:50:21Z</time>
      </trkpt>
      <trkpt lat="48.15055" lon="-3.60033">
        <ele>142</ele>
        <time>2021-08-11T10:50:22Z</time>
      </trkpt>
      <trkpt lat="48.15053" lon="-3.60036">
        <ele>141.8</ele>
        <time>2021-08-11T10:50:23Z</time>
      </trkpt>
      <trkpt lat="48.15051" lon="-3.60037">
        <ele>141.8</ele>
        <time>2021-08-11T10:50:24Z</time>
      </trkpt>
      <trkpt lat="48.1505" lon="-3.60039">
        <ele>141.8</ele>
        <time>2021-08-11T10:50:25Z</time>
      </trkpt>
      <trkpt lat="48.1505" lon="-3.6004">
        <ele>141.6</ele>
        <time>2021-08-11T10:50:26Z</time>
      </trkpt>
      <trkpt lat="48.1505" lon="-3.60041">
        <ele>141.6</ele>
        <time>2021-08-11T10:50:29Z</time>
      </trkpt>
      <trkpt lat="48.1505" lon="-3.60042">
        <ele>141.6</ele>
        <time>2021-08-11T10:50:30Z</time>
      </trkpt>
      <trkpt lat="48.1505" lon="-3.60044">
        <ele>141.4</ele>
        <time>2021-08-11T10:50:31Z</time>
      </trkpt>
      <trkpt lat="48.1505" lon="-3.60046">
        <ele>141.4</ele>
        <time>2021-08-11T10:50:32Z</time>
      </trkpt>
      <trkpt lat="48.15048" lon="-3.60047">
        <ele>141.4</ele>
        <time>2021-08-11T10:50:33Z</time>
      </trkpt>
      <trkpt lat="48.15047" lon="-3.60049">
        <ele>141.4</ele>
        <time>2021-08-11T10:50:34Z</time>
      </trkpt>
      <trkpt lat="48.15045" lon="-3.60051">
        <ele>141.4</ele>
        <time>2021-08-11T10:50:35Z</time>
      </trkpt>
      <trkpt lat="48.15042" lon="-3.60053">
        <ele>141.2</ele>
        <time>2021-08-11T10:50:36Z</time>
      </trkpt>
      <trkpt lat="48.1504" lon="-3.60056">
        <ele>141.2</ele>
        <time>2021-08-11T10:50:37Z</time>
      </trkpt>
      <trkpt lat="48.15037" lon="-3.6006">
        <ele>141.2</ele>
        <time>2021-08-11T10:50:38Z</time>
      </trkpt>
      <trkpt lat="48.15034" lon="-3.60064">
        <ele>141.2</ele>
        <time>2021-08-11T10:50:39Z</time>
      </trkpt>
      <trkpt lat="48.15032" lon="-3.60068">
        <ele>141.2</ele>
        <time>2021-08-11T10:50:40Z</time>
      </trkpt>
      <trkpt lat="48.15029" lon="-3.60072">
        <ele>141.2</ele>
        <time>2021-08-11T10:50:41Z</time>
      </trkpt>
      <trkpt lat="48.15027" lon="-3.60076">
        <ele>141.2</ele>
        <time>2021-08-11T10:50:42Z</time>
      </trkpt>
      <trkpt lat="48.15025" lon="-3.60078">
        <ele>141</ele>
        <time>2021-08-11T10:50:43Z</time>
      </trkpt>
      <trkpt lat="48.15023" lon="-3.60079">
        <ele>140.8</ele>
        <time>2021-08-11T10:50:44Z</time>
      </trkpt>
      <trkpt lat="48.15022" lon="-3.6008">
        <ele>140.6</ele>
        <time>2021-08-11T10:50:45Z</time>
      </trkpt>
      <trkpt lat="48.15021" lon="-3.60082">
        <ele>140.4</ele>
        <time>2021-08-11T10:50:46Z</time>
      </trkpt>
      <trkpt lat="48.15019" lon="-3.60085">
        <ele>140.4</ele>
        <time>2021-08-11T10:50:47Z</time>
      </trkpt>
      <trkpt lat="48.15017" lon="-3.60089">
        <ele>140.2</ele>
        <time>2021-08-11T10:50:48Z</time>
      </trkpt>
      <trkpt lat="48.15015" lon="-3.60092">
        <ele>140.2</ele>
        <time>2021-08-11T10:50:49Z</time>
      </trkpt>
      <trkpt lat="48.15012" lon="-3.60095">
        <ele>140</ele>
        <time>2021-08-11T10:50:50Z</time>
      </trkpt>
      <trkpt lat="48.1501" lon="-3.60099">
        <ele>140</ele>
        <time>2021-08-11T10:50:51Z</time>
      </trkpt>
      <trkpt lat="48.15007" lon="-3.60104">
        <ele>140</ele>
        <time>2021-08-11T10:50:52Z</time>
      </trkpt>
      <trkpt lat="48.15004" lon="-3.60108">
        <ele>139.8</ele>
        <time>2021-08-11T10:50:53Z</time>
      </trkpt>
      <trkpt lat="48.15001" lon="-3.60112">
        <ele>139.8</ele>
        <time>2021-08-11T10:50:54Z</time>
      </trkpt>
      <trkpt lat="48.14998" lon="-3.60117">
        <ele>139.8</ele>
        <time>2021-08-11T10:50:55Z</time>
      </trkpt>
      <trkpt lat="48.14995" lon="-3.60121">
        <ele>139.8</ele>
        <time>2021-08-11T10:50:56Z</time>
      </trkpt>
      <trkpt lat="48.14992" lon="-3.60126">
        <ele>139.8</ele>
        <time>2021-08-11T10:50:57Z</time>
      </trkpt>
      <trkpt lat="48.14989" lon="-3.6013">
        <ele>139.8</ele>
        <time>2021-08-11T10:50:58Z</time>
      </trkpt>
      <trkpt lat="48.14985" lon="-3.60135">
        <ele>139.8</ele>
        <time>2021-08-11T10:50:59Z</time>
      </trkpt>
      <trkpt lat="48.14982" lon="-3.60141">
        <ele>139.6</ele>
        <time>2021-08-11T10:51:00Z</time>
      </trkpt>
      <trkpt lat="48.14978" lon="-3.60146">
        <ele>139.6</ele>
        <time>2021-08-11T10:51:01Z</time>
      </trkpt>
      <trkpt lat="48.14975" lon="-3.60152">
        <ele>139.6</ele>
        <time>2021-08-11T10:51:02Z</time>
      </trkpt>
      <trkpt lat="48.14971" lon="-3.60157">
        <ele>139.6</ele>
        <time>2021-08-11T10:51:03Z</time>
      </trkpt>
      <trkpt lat="48.14968" lon="-3.60162">
        <ele>139.6</ele>
        <time>2021-08-11T10:51:04Z</time>
      </trkpt>
      <trkpt lat="48.14965" lon="-3.60167">
        <ele>139.4</ele>
        <time>2021-08-11T10:51:05Z</time>
      </trkpt>
      <trkpt lat="48.14961" lon="-3.60173">
        <ele>139.2</ele>
        <time>2021-08-11T10:51:06Z</time>
      </trkpt>
      <trkpt lat="48.14958" lon="-3.60178">
        <ele>139.2</ele>
        <time>2021-08-11T10:51:07Z</time>
      </trkpt>
      <trkpt lat="48.14954" lon="-3.60183">
        <ele>139</ele>
        <time>2021-08-11T10:51:08Z</time>
      </trkpt>
      <trkpt lat="48.1495" lon="-3.60188">
        <ele>139</ele>
        <time>2021-08-11T10:51:09Z</time>
      </trkpt>
      <trkpt lat="48.14946" lon="-3.60193">
        <ele>138.8</ele>
        <time>2021-08-11T10:51:10Z</time>
      </trkpt>
      <trkpt lat="48.14942" lon="-3.60198">
        <ele>138.8</ele>
        <time>2021-08-11T10:51:11Z</time>
      </trkpt>
      <trkpt lat="48.14937" lon="-3.60203">
        <ele>138.8</ele>
        <time>2021-08-11T10:51:12Z</time>
      </trkpt>
      <trkpt lat="48.14934" lon="-3.60208">
        <ele>138.6</ele>
        <time>2021-08-11T10:51:13Z</time>
      </trkpt>
      <trkpt lat="48.14931" lon="-3.60212">
        <ele>138.4</ele>
        <time>2021-08-11T10:51:14Z</time>
      </trkpt>
      <trkpt lat="48.14927" lon="-3.60217">
        <ele>138.2</ele>
        <time>2021-08-11T10:51:15Z</time>
      </trkpt>
      <trkpt lat="48.14922" lon="-3.60221">
        <ele>138</ele>
        <time>2021-08-11T10:51:16Z</time>
      </trkpt>
      <trkpt lat="48.14918" lon="-3.60226">
        <ele>138</ele>
        <time>2021-08-11T10:51:17Z</time>
      </trkpt>
      <trkpt lat="48.14913" lon="-3.60231">
        <ele>137.8</ele>
        <time>2021-08-11T10:51:18Z</time>
      </trkpt>
      <trkpt lat="48.14907" lon="-3.60235">
        <ele>137.6</ele>
        <time>2021-08-11T10:51:19Z</time>
      </trkpt>
      <trkpt lat="48.14902" lon="-3.60239">
        <ele>137.4</ele>
        <time>2021-08-11T10:51:20Z</time>
      </trkpt>
      <trkpt lat="48.14897" lon="-3.60244">
        <ele>137.4</ele>
        <time>2021-08-11T10:51:21Z</time>
      </trkpt>
      <trkpt lat="48.14892" lon="-3.60248">
        <ele>137.2</ele>
        <time>2021-08-11T10:51:22Z</time>
      </trkpt>
      <trkpt lat="48.14887" lon="-3.60251">
        <ele>137.2</ele>
        <time>2021-08-11T10:51:23Z</time>
      </trkpt>
      <trkpt lat="48.14883" lon="-3.60254">
        <ele>137</ele>
        <time>2021-08-11T10:51:24Z</time>
      </trkpt>
      <trkpt lat="48.14878" lon="-3.60257">
        <ele>137</ele>
        <time>2021-08-11T10:51:25Z</time>
      </trkpt>
      <trkpt lat="48.14873" lon="-3.60259">
        <ele>137</ele>
        <time>2021-08-11T10:51:26Z</time>
      </trkpt>
      <trkpt lat="48.14869" lon="-3.60262">
        <ele>137</ele>
        <time>2021-08-11T10:51:27Z</time>
      </trkpt>
      <trkpt lat="48.14864" lon="-3.60265">
        <ele>136.8</ele>
        <time>2021-08-11T10:51:28Z</time>
      </trkpt>
      <trkpt lat="48.14859" lon="-3.60267">
        <ele>136.8</ele>
        <time>2021-08-11T10:51:29Z</time>
      </trkpt>
      <trkpt lat="48.14854" lon="-3.60268">
        <ele>136.6</ele>
        <time>2021-08-11T10:51:30Z</time>
      </trkpt>
      <trkpt lat="48.14849" lon="-3.6027">
        <ele>136.4</ele>
        <time>2021-08-11T10:51:31Z</time>
      </trkpt>
      <trkpt lat="48.14844" lon="-3.60271">
        <ele>136.4</ele>
        <time>2021-08-11T10:51:32Z</time>
      </trkpt>
      <trkpt lat="48.14838" lon="-3.60272">
        <ele>136.6</ele>
        <time>2021-08-11T10:51:33Z</time>
      </trkpt>
      <trkpt lat="48.14833" lon="-3.60272">
        <ele>136.4</ele>
        <time>2021-08-11T10:51:34Z</time>
      </trkpt>
      <trkpt lat="48.14828" lon="-3.60273">
        <ele>136.4</ele>
        <time>2021-08-11T10:51:35Z</time>
      </trkpt>
      <trkpt lat="48.14823" lon="-3.60274">
        <ele>136.4</ele>
        <time>2021-08-11T10:51:36Z</time>
      </trkpt>
      <trkpt lat="48.14817" lon="-3.60275">
        <ele>136.4</ele>
        <time>2021-08-11T10:51:37Z</time>
      </trkpt>
      <trkpt lat="48.14812" lon="-3.60276">
        <ele>136.2</ele>
        <time>2021-08-11T10:51:38Z</time>
      </trkpt>
      <trkpt lat="48.14807" lon="-3.60276">
        <ele>136.2</ele>
        <time>2021-08-11T10:51:39Z</time>
      </trkpt>
      <trkpt lat="48.14801" lon="-3.60275">
        <ele>136</ele>
        <time>2021-08-11T10:51:40Z</time>
      </trkpt>
      <trkpt lat="48.14796" lon="-3.60274">
        <ele>136</ele>
        <time>2021-08-11T10:51:41Z</time>
      </trkpt>
      <trkpt lat="48.1479" lon="-3.60274">
        <ele>135.8</ele>
        <time>2021-08-11T10:51:42Z</time>
      </trkpt>
      <trkpt lat="48.14784" lon="-3.60274">
        <ele>135.8</ele>
        <time>2021-08-11T10:51:43Z</time>
      </trkpt>
      <trkpt lat="48.14778" lon="-3.60273">
        <ele>135.6</ele>
        <time>2021-08-11T10:51:44Z</time>
      </trkpt>
      <trkpt lat="48.14772" lon="-3.60272">
        <ele>135.4</ele>
        <time>2021-08-11T10:51:45Z</time>
      </trkpt>
      <trkpt lat="48.14766" lon="-3.6027">
        <ele>135.4</ele>
        <time>2021-08-11T10:51:46Z</time>
      </trkpt>
      <trkpt lat="48.14761" lon="-3.60268">
        <ele>135.2</ele>
        <time>2021-08-11T10:51:47Z</time>
      </trkpt>
      <trkpt lat="48.14754" lon="-3.60266">
        <ele>135.4</ele>
        <time>2021-08-11T10:51:48Z</time>
      </trkpt>
      <trkpt lat="48.14748" lon="-3.60265">
        <ele>135.2</ele>
        <time>2021-08-11T10:51:49Z</time>
      </trkpt>
      <trkpt lat="48.14741" lon="-3.60264">
        <ele>135.2</ele>
        <time>2021-08-11T10:51:50Z</time>
      </trkpt>
      <trkpt lat="48.14734" lon="-3.60264">
        <ele>135.2</ele>
        <time>2021-08-11T10:51:51Z</time>
      </trkpt>
      <trkpt lat="48.14727" lon="-3.60264">
        <ele>135.2</ele>
        <time>2021-08-11T10:51:52Z</time>
      </trkpt>
      <trkpt lat="48.14721" lon="-3.60264">
        <ele>135.2</ele>
        <time>2021-08-11T10:51:53Z</time>
      </trkpt>
      <trkpt lat="48.14715" lon="-3.60264">
        <ele>135.4</ele>
        <time>2021-08-11T10:51:54Z</time>
      </trkpt>
      <trkpt lat="48.14709" lon="-3.60265">
        <ele>135.4</ele>
        <time>2021-08-11T10:51:55Z</time>
      </trkpt>
      <trkpt lat="48.14704" lon="-3.60265">
        <ele>135.6</ele>
        <time>2021-08-11T10:51:56Z</time>
      </trkpt>
      <trkpt lat="48.147" lon="-3.60265">
        <ele>135.6</ele>
        <time>2021-08-11T10:51:57Z</time>
      </trkpt>
      <trkpt lat="48.14695" lon="-3.60264">
        <ele>135.6</ele>
        <time>2021-08-11T10:51:58Z</time>
      </trkpt>
      <trkpt lat="48.14691" lon="-3.60264">
        <ele>135.6</ele>
        <time>2021-08-11T10:51:59Z</time>
      </trkpt>
      <trkpt lat="48.14686" lon="-3.60264">
        <ele>135.8</ele>
        <time>2021-08-11T10:52:00Z</time>
      </trkpt>
      <trkpt lat="48.14681" lon="-3.60264">
        <ele>135.8</ele>
        <time>2021-08-11T10:52:01Z</time>
      </trkpt>
      <trkpt lat="48.14677" lon="-3.60264">
        <ele>136.2</ele>
        <time>2021-08-11T10:52:02Z</time>
      </trkpt>
      <trkpt lat="48.14671" lon="-3.60265">
        <ele>136.2</ele>
        <time>2021-08-11T10:52:03Z</time>
      </trkpt>
      <trkpt lat="48.14666" lon="-3.60265">
        <ele>136.4</ele>
        <time>2021-08-11T10:52:04Z</time>
      </trkpt>
      <trkpt lat="48.14661" lon="-3.60264">
        <ele>136.4</ele>
        <time>2021-08-11T10:52:05Z</time>
      </trkpt>
      <trkpt lat="48.14657" lon="-3.60264">
        <ele>136.6</ele>
        <time>2021-08-11T10:52:06Z</time>
      </trkpt>
      <trkpt lat="48.14653" lon="-3.60263">
        <ele>136.6</ele>
        <time>2021-08-11T10:52:07Z</time>
      </trkpt>
      <trkpt lat="48.14648" lon="-3.60264">
        <ele>136.8</ele>
        <time>2021-08-11T10:52:08Z</time>
      </trkpt>
      <trkpt lat="48.14644" lon="-3.60264">
        <ele>136.8</ele>
        <time>2021-08-11T10:52:09Z</time>
      </trkpt>
      <trkpt lat="48.14641" lon="-3.60265">
        <ele>137</ele>
        <time>2021-08-11T10:52:10Z</time>
      </trkpt>
      <trkpt lat="48.14637" lon="-3.60265">
        <ele>137</ele>
        <time>2021-08-11T10:52:11Z</time>
      </trkpt>
      <trkpt lat="48.14634" lon="-3.60265">
        <ele>137.2</ele>
        <time>2021-08-11T10:52:12Z</time>
      </trkpt>
      <trkpt lat="48.14631" lon="-3.60264">
        <ele>137.6</ele>
        <time>2021-08-11T10:52:13Z</time>
      </trkpt>
      <trkpt lat="48.14627" lon="-3.60264">
        <ele>137.8</ele>
        <time>2021-08-11T10:52:14Z</time>
      </trkpt>
      <trkpt lat="48.14624" lon="-3.60263">
        <ele>138</ele>
        <time>2021-08-11T10:52:15Z</time>
      </trkpt>
      <trkpt lat="48.1462" lon="-3.60261">
        <ele>138</ele>
        <time>2021-08-11T10:52:16Z</time>
      </trkpt>
      <trkpt lat="48.14617" lon="-3.6026">
        <ele>138</ele>
        <time>2021-08-11T10:52:17Z</time>
      </trkpt>
      <trkpt lat="48.14614" lon="-3.6026">
        <ele>138.2</ele>
        <time>2021-08-11T10:52:18Z</time>
      </trkpt>
      <trkpt lat="48.14611" lon="-3.60262">
        <ele>138.2</ele>
        <time>2021-08-11T10:52:19Z</time>
      </trkpt>
      <trkpt lat="48.14607" lon="-3.60262">
        <ele>138.4</ele>
        <time>2021-08-11T10:52:20Z</time>
      </trkpt>
      <trkpt lat="48.14603" lon="-3.60262">
        <ele>138.4</ele>
        <time>2021-08-11T10:52:21Z</time>
      </trkpt>
      <trkpt lat="48.146" lon="-3.60262">
        <ele>138.4</ele>
        <time>2021-08-11T10:52:22Z</time>
      </trkpt>
      <trkpt lat="48.14596" lon="-3.60262">
        <ele>138.4</ele>
        <time>2021-08-11T10:52:23Z</time>
      </trkpt>
      <trkpt lat="48.14593" lon="-3.60261">
        <ele>138.4</ele>
        <time>2021-08-11T10:52:24Z</time>
      </trkpt>
      <trkpt lat="48.14589" lon="-3.6026">
        <ele>138.4</ele>
        <time>2021-08-11T10:52:25Z</time>
      </trkpt>
      <trkpt lat="48.14586" lon="-3.6026">
        <ele>138.4</ele>
        <time>2021-08-11T10:52:26Z</time>
      </trkpt>
      <trkpt lat="48.14583" lon="-3.60259">
        <ele>138.4</ele>
        <time>2021-08-11T10:52:27Z</time>
      </trkpt>
      <trkpt lat="48.14579" lon="-3.60259">
        <ele>138.4</ele>
        <time>2021-08-11T10:52:28Z</time>
      </trkpt>
      <trkpt lat="48.14576" lon="-3.6026">
        <ele>138.4</ele>
        <time>2021-08-11T10:52:29Z</time>
      </trkpt>
      <trkpt lat="48.14572" lon="-3.6026">
        <ele>138.4</ele>
        <time>2021-08-11T10:52:30Z</time>
      </trkpt>
      <trkpt lat="48.14569" lon="-3.60261">
        <ele>138.4</ele>
        <time>2021-08-11T10:52:31Z</time>
      </trkpt>
      <trkpt lat="48.14565" lon="-3.6026">
        <ele>138.6</ele>
        <time>2021-08-11T10:52:32Z</time>
      </trkpt>
      <trkpt lat="48.14562" lon="-3.60261">
        <ele>138.6</ele>
        <time>2021-08-11T10:52:33Z</time>
      </trkpt>
      <trkpt lat="48.14558" lon="-3.60261">
        <ele>138.6</ele>
        <time>2021-08-11T10:52:34Z</time>
      </trkpt>
      <trkpt lat="48.14554" lon="-3.60261">
        <ele>138.6</ele>
        <time>2021-08-11T10:52:35Z</time>
      </trkpt>
      <trkpt lat="48.1455" lon="-3.60262">
        <ele>138.6</ele>
        <time>2021-08-11T10:52:36Z</time>
      </trkpt>
      <trkpt lat="48.14546" lon="-3.60262">
        <ele>138.6</ele>
        <time>2021-08-11T10:52:37Z</time>
      </trkpt>
      <trkpt lat="48.14542" lon="-3.60262">
        <ele>138.6</ele>
        <time>2021-08-11T10:52:38Z</time>
      </trkpt>
      <trkpt lat="48.14539" lon="-3.60263">
        <ele>138.6</ele>
        <time>2021-08-11T10:52:39Z</time>
      </trkpt>
      <trkpt lat="48.14535" lon="-3.60263">
        <ele>138.6</ele>
        <time>2021-08-11T10:52:40Z</time>
      </trkpt>
      <trkpt lat="48.14531" lon="-3.60263">
        <ele>138.6</ele>
        <time>2021-08-11T10:52:41Z</time>
      </trkpt>
      <trkpt lat="48.14527" lon="-3.60264">
        <ele>138.6</ele>
        <time>2021-08-11T10:52:42Z</time>
      </trkpt>
      <trkpt lat="48.14523" lon="-3.60264">
        <ele>138.6</ele>
        <time>2021-08-11T10:52:43Z</time>
      </trkpt>
      <trkpt lat="48.14519" lon="-3.60264">
        <ele>138.8</ele>
        <time>2021-08-11T10:52:44Z</time>
      </trkpt>
      <trkpt lat="48.14515" lon="-3.60264">
        <ele>138.8</ele>
        <time>2021-08-11T10:52:45Z</time>
      </trkpt>
      <trkpt lat="48.14512" lon="-3.60264">
        <ele>138.8</ele>
        <time>2021-08-11T10:52:46Z</time>
      </trkpt>
      <trkpt lat="48.14508" lon="-3.60263">
        <ele>138.8</ele>
        <time>2021-08-11T10:52:47Z</time>
      </trkpt>
      <trkpt lat="48.14504" lon="-3.60263">
        <ele>138.8</ele>
        <time>2021-08-11T10:52:48Z</time>
      </trkpt>
      <trkpt lat="48.14499" lon="-3.60262">
        <ele>138.8</ele>
        <time>2021-08-11T10:52:49Z</time>
      </trkpt>
      <trkpt lat="48.14495" lon="-3.60262">
        <ele>138.8</ele>
        <time>2021-08-11T10:52:50Z</time>
      </trkpt>
      <trkpt lat="48.14491" lon="-3.60262">
        <ele>138.8</ele>
        <time>2021-08-11T10:52:51Z</time>
      </trkpt>
      <trkpt lat="48.14487" lon="-3.60261">
        <ele>138.8</ele>
        <time>2021-08-11T10:52:52Z</time>
      </trkpt>
      <trkpt lat="48.14483" lon="-3.60261">
        <ele>139</ele>
        <time>2021-08-11T10:52:53Z</time>
      </trkpt>
      <trkpt lat="48.14479" lon="-3.60261">
        <ele>139</ele>
        <time>2021-08-11T10:52:54Z</time>
      </trkpt>
      <trkpt lat="48.14476" lon="-3.60261">
        <ele>139</ele>
        <time>2021-08-11T10:52:55Z</time>
      </trkpt>
      <trkpt lat="48.14472" lon="-3.6026">
        <ele>139.2</ele>
        <time>2021-08-11T10:52:56Z</time>
      </trkpt>
      <trkpt lat="48.14468" lon="-3.60259">
        <ele>139.2</ele>
        <time>2021-08-11T10:52:57Z</time>
      </trkpt>
      <trkpt lat="48.14464" lon="-3.60259">
        <ele>139.2</ele>
        <time>2021-08-11T10:52:58Z</time>
      </trkpt>
      <trkpt lat="48.1446" lon="-3.60258">
        <ele>139.2</ele>
        <time>2021-08-11T10:52:59Z</time>
      </trkpt>
      <trkpt lat="48.14457" lon="-3.60258">
        <ele>139.2</ele>
        <time>2021-08-11T10:53:00Z</time>
      </trkpt>
      <trkpt lat="48.14453" lon="-3.60257">
        <ele>139.2</ele>
        <time>2021-08-11T10:53:01Z</time>
      </trkpt>
      <trkpt lat="48.1445" lon="-3.60257">
        <ele>139.2</ele>
        <time>2021-08-11T10:53:02Z</time>
      </trkpt>
      <trkpt lat="48.14447" lon="-3.60256">
        <ele>139.2</ele>
        <time>2021-08-11T10:53:03Z</time>
      </trkpt>
      <trkpt lat="48.14443" lon="-3.60255">
        <ele>139.2</ele>
        <time>2021-08-11T10:53:04Z</time>
      </trkpt>
      <trkpt lat="48.14439" lon="-3.60254">
        <ele>139.2</ele>
        <time>2021-08-11T10:53:05Z</time>
      </trkpt>
      <trkpt lat="48.14435" lon="-3.60253">
        <ele>139.2</ele>
        <time>2021-08-11T10:53:06Z</time>
      </trkpt>
      <trkpt lat="48.14431" lon="-3.60251">
        <ele>139.4</ele>
        <time>2021-08-11T10:53:07Z</time>
      </trkpt>
      <trkpt lat="48.14428" lon="-3.6025">
        <ele>139.4</ele>
        <time>2021-08-11T10:53:08Z</time>
      </trkpt>
      <trkpt lat="48.14424" lon="-3.60249">
        <ele>139.4</ele>
        <time>2021-08-11T10:53:09Z</time>
      </trkpt>
      <trkpt lat="48.1442" lon="-3.60248">
        <ele>139.4</ele>
        <time>2021-08-11T10:53:10Z</time>
      </trkpt>
      <trkpt lat="48.14416" lon="-3.60247">
        <ele>139.4</ele>
        <time>2021-08-11T10:53:11Z</time>
      </trkpt>
      <trkpt lat="48.14413" lon="-3.60245">
        <ele>139.4</ele>
        <time>2021-08-11T10:53:12Z</time>
      </trkpt>
      <trkpt lat="48.14409" lon="-3.60243">
        <ele>139.4</ele>
        <time>2021-08-11T10:53:13Z</time>
      </trkpt>
      <trkpt lat="48.14405" lon="-3.60242">
        <ele>139.4</ele>
        <time>2021-08-11T10:53:14Z</time>
      </trkpt>
      <trkpt lat="48.144" lon="-3.6024">
        <ele>139.6</ele>
        <time>2021-08-11T10:53:15Z</time>
      </trkpt>
      <trkpt lat="48.14396" lon="-3.6024">
        <ele>139.8</ele>
        <time>2021-08-11T10:53:16Z</time>
      </trkpt>
      <trkpt lat="48.14391" lon="-3.60239">
        <ele>139.8</ele>
        <time>2021-08-11T10:53:17Z</time>
      </trkpt>
      <trkpt lat="48.14386" lon="-3.60239">
        <ele>140</ele>
        <time>2021-08-11T10:53:18Z</time>
      </trkpt>
      <trkpt lat="48.14381" lon="-3.60238">
        <ele>140</ele>
        <time>2021-08-11T10:53:19Z</time>
      </trkpt>
      <trkpt lat="48.14376" lon="-3.60236">
        <ele>140</ele>
        <time>2021-08-11T10:53:20Z</time>
      </trkpt>
      <trkpt lat="48.14371" lon="-3.60235">
        <ele>140</ele>
        <time>2021-08-11T10:53:21Z</time>
      </trkpt>
      <trkpt lat="48.14367" lon="-3.60234">
        <ele>140</ele>
        <time>2021-08-11T10:53:22Z</time>
      </trkpt>
      <trkpt lat="48.14362" lon="-3.60233">
        <ele>140</ele>
        <time>2021-08-11T10:53:23Z</time>
      </trkpt>
      <trkpt lat="48.14357" lon="-3.60232">
        <ele>140.2</ele>
        <time>2021-08-11T10:53:24Z</time>
      </trkpt>
      <trkpt lat="48.14353" lon="-3.60231">
        <ele>140.2</ele>
        <time>2021-08-11T10:53:25Z</time>
      </trkpt>
      <trkpt lat="48.14348" lon="-3.6023">
        <ele>140.2</ele>
        <time>2021-08-11T10:53:26Z</time>
      </trkpt>
      <trkpt lat="48.14343" lon="-3.60229">
        <ele>140.2</ele>
        <time>2021-08-11T10:53:27Z</time>
      </trkpt>
      <trkpt lat="48.14338" lon="-3.60228">
        <ele>140.2</ele>
        <time>2021-08-11T10:53:28Z</time>
      </trkpt>
      <trkpt lat="48.14334" lon="-3.60228">
        <ele>140.2</ele>
        <time>2021-08-11T10:53:29Z</time>
      </trkpt>
      <trkpt lat="48.14329" lon="-3.60227">
        <ele>140.2</ele>
        <time>2021-08-11T10:53:30Z</time>
      </trkpt>
      <trkpt lat="48.14325" lon="-3.60226">
        <ele>140.2</ele>
        <time>2021-08-11T10:53:31Z</time>
      </trkpt>
      <trkpt lat="48.1432" lon="-3.60226">
        <ele>140.2</ele>
        <time>2021-08-11T10:53:32Z</time>
      </trkpt>
      <trkpt lat="48.14315" lon="-3.60225">
        <ele>140.2</ele>
        <time>2021-08-11T10:53:33Z</time>
      </trkpt>
      <trkpt lat="48.14311" lon="-3.60225">
        <ele>140</ele>
        <time>2021-08-11T10:53:34Z</time>
      </trkpt>
      <trkpt lat="48.14306" lon="-3.60225">
        <ele>140</ele>
        <time>2021-08-11T10:53:35Z</time>
      </trkpt>
      <trkpt lat="48.14301" lon="-3.60224">
        <ele>140</ele>
        <time>2021-08-11T10:53:36Z</time>
      </trkpt>
      <trkpt lat="48.14297" lon="-3.60224">
        <ele>139.8</ele>
        <time>2021-08-11T10:53:37Z</time>
      </trkpt>
      <trkpt lat="48.14293" lon="-3.60225">
        <ele>139.8</ele>
        <time>2021-08-11T10:53:38Z</time>
      </trkpt>
      <trkpt lat="48.14289" lon="-3.60224">
        <ele>139.6</ele>
        <time>2021-08-11T10:53:39Z</time>
      </trkpt>
      <trkpt lat="48.14285" lon="-3.60224">
        <ele>139.6</ele>
        <time>2021-08-11T10:53:40Z</time>
      </trkpt>
      <trkpt lat="48.14282" lon="-3.60223">
        <ele>139.6</ele>
        <time>2021-08-11T10:53:41Z</time>
      </trkpt>
      <trkpt lat="48.14279" lon="-3.60223">
        <ele>139.6</ele>
        <time>2021-08-11T10:53:42Z</time>
      </trkpt>
      <trkpt lat="48.14276" lon="-3.60224">
        <ele>139.6</ele>
        <time>2021-08-11T10:53:43Z</time>
      </trkpt>
      <trkpt lat="48.14273" lon="-3.60225">
        <ele>139.6</ele>
        <time>2021-08-11T10:53:44Z</time>
      </trkpt>
      <trkpt lat="48.1427" lon="-3.60224">
        <ele>139.6</ele>
        <time>2021-08-11T10:53:45Z</time>
      </trkpt>
      <trkpt lat="48.14267" lon="-3.60223">
        <ele>139.6</ele>
        <time>2021-08-11T10:53:46Z</time>
      </trkpt>
      <trkpt lat="48.14264" lon="-3.60223">
        <ele>139.6</ele>
        <time>2021-08-11T10:53:47Z</time>
      </trkpt>
      <trkpt lat="48.14261" lon="-3.60223">
        <ele>139.6</ele>
        <time>2021-08-11T10:53:48Z</time>
      </trkpt>
      <trkpt lat="48.14257" lon="-3.60223">
        <ele>139.8</ele>
        <time>2021-08-11T10:53:49Z</time>
      </trkpt>
      <trkpt lat="48.14254" lon="-3.60223">
        <ele>139.8</ele>
        <time>2021-08-11T10:53:50Z</time>
      </trkpt>
      <trkpt lat="48.14251" lon="-3.60223">
        <ele>139.8</ele>
        <time>2021-08-11T10:53:51Z</time>
      </trkpt>
      <trkpt lat="48.14247" lon="-3.60223">
        <ele>139.8</ele>
        <time>2021-08-11T10:53:52Z</time>
      </trkpt>
      <trkpt lat="48.14244" lon="-3.60223">
        <ele>139.8</ele>
        <time>2021-08-11T10:53:53Z</time>
      </trkpt>
      <trkpt lat="48.1424" lon="-3.60221">
        <ele>140</ele>
        <time>2021-08-11T10:53:54Z</time>
      </trkpt>
      <trkpt lat="48.14237" lon="-3.6022">
        <ele>140</ele>
        <time>2021-08-11T10:53:55Z</time>
      </trkpt>
      <trkpt lat="48.14234" lon="-3.60219">
        <ele>140</ele>
        <time>2021-08-11T10:53:56Z</time>
      </trkpt>
      <trkpt lat="48.1423" lon="-3.60218">
        <ele>140</ele>
        <time>2021-08-11T10:53:57Z</time>
      </trkpt>
      <trkpt lat="48.14227" lon="-3.60217">
        <ele>140</ele>
        <time>2021-08-11T10:53:58Z</time>
      </trkpt>
      <trkpt lat="48.14224" lon="-3.60218">
        <ele>140</ele>
        <time>2021-08-11T10:53:59Z</time>
      </trkpt>
      <trkpt lat="48.14221" lon="-3.6022">
        <ele>140</ele>
        <time>2021-08-11T10:54:00Z</time>
      </trkpt>
      <trkpt lat="48.14219" lon="-3.60222">
        <ele>140</ele>
        <time>2021-08-11T10:54:01Z</time>
      </trkpt>
      <trkpt lat="48.14217" lon="-3.60224">
        <ele>140.2</ele>
        <time>2021-08-11T10:54:02Z</time>
      </trkpt>
      <trkpt lat="48.14216" lon="-3.60226">
        <ele>140.2</ele>
        <time>2021-08-11T10:54:03Z</time>
      </trkpt>
      <trkpt lat="48.14216" lon="-3.60229">
        <ele>140.2</ele>
        <time>2021-08-11T10:54:04Z</time>
      </trkpt>
      <trkpt lat="48.14215" lon="-3.60232">
        <ele>140.2</ele>
        <time>2021-08-11T10:54:05Z</time>
      </trkpt>
      <trkpt lat="48.14215" lon="-3.60234">
        <ele>140.2</ele>
        <time>2021-08-11T10:54:06Z</time>
      </trkpt>
      <trkpt lat="48.14216" lon="-3.60236">
        <ele>140.2</ele>
        <time>2021-08-11T10:54:07Z</time>
      </trkpt>
      <trkpt lat="48.14216" lon="-3.60237">
        <ele>140.4</ele>
        <time>2021-08-11T10:54:08Z</time>
      </trkpt>
      <trkpt lat="48.14216" lon="-3.60238">
        <ele>140.4</ele>
        <time>2021-08-11T10:54:09Z</time>
      </trkpt>
      <trkpt lat="48.14216" lon="-3.6024">
        <ele>140.4</ele>
        <time>2021-08-11T10:54:10Z</time>
      </trkpt>
      <trkpt lat="48.14215" lon="-3.60242">
        <ele>140.4</ele>
        <time>2021-08-11T10:54:11Z</time>
      </trkpt>
      <trkpt lat="48.14215" lon="-3.60244">
        <ele>140.6</ele>
        <time>2021-08-11T10:54:12Z</time>
      </trkpt>
      <trkpt lat="48.14215" lon="-3.60246">
        <ele>140.6</ele>
        <time>2021-08-11T10:54:13Z</time>
      </trkpt>
      <trkpt lat="48.14215" lon="-3.60247">
        <ele>140.6</ele>
        <time>2021-08-11T10:54:14Z</time>
      </trkpt>
      <trkpt lat="48.14214" lon="-3.60249">
        <ele>140.6</ele>
        <time>2021-08-11T10:54:15Z</time>
      </trkpt>
      <trkpt lat="48.14214" lon="-3.60251">
        <ele>140.6</ele>
        <time>2021-08-11T10:54:16Z</time>
      </trkpt>
      <trkpt lat="48.14214" lon="-3.60252">
        <ele>140.6</ele>
        <time>2021-08-11T10:54:17Z</time>
      </trkpt>
      <trkpt lat="48.14213" lon="-3.60254">
        <ele>140.6</ele>
        <time>2021-08-11T10:54:18Z</time>
      </trkpt>
      <trkpt lat="48.14213" lon="-3.60256">
        <ele>140.6</ele>
        <time>2021-08-11T10:54:19Z</time>
      </trkpt>
      <trkpt lat="48.14213" lon="-3.60258">
        <ele>140.6</ele>
        <time>2021-08-11T10:54:20Z</time>
      </trkpt>
      <trkpt lat="48.14213" lon="-3.6026">
        <ele>140.6</ele>
        <time>2021-08-11T10:54:21Z</time>
      </trkpt>
      <trkpt lat="48.14214" lon="-3.60259">
        <ele>140.6</ele>
        <time>2021-08-11T10:54:22Z</time>
      </trkpt>
      <trkpt lat="48.14214" lon="-3.60258">
        <ele>140.6</ele>
        <time>2021-08-11T10:54:23Z</time>
      </trkpt>
      <trkpt lat="48.14214" lon="-3.60257">
        <ele>140.6</ele>
        <time>2021-08-11T10:54:24Z</time>
      </trkpt>
      <trkpt lat="48.14213" lon="-3.60256">
        <ele>140.6</ele>
        <time>2021-08-11T10:54:25Z</time>
      </trkpt>
      <trkpt lat="48.14211" lon="-3.60255">
        <ele>140.6</ele>
        <time>2021-08-11T10:54:26Z</time>
      </trkpt>
      <trkpt lat="48.1421" lon="-3.60254">
        <ele>140.6</ele>
        <time>2021-08-11T10:54:27Z</time>
      </trkpt>
      <trkpt lat="48.14208" lon="-3.60253">
        <ele>140.6</ele>
        <time>2021-08-11T10:54:29Z</time>
      </trkpt>
      <trkpt lat="48.14208" lon="-3.60253">
        <ele>140.6</ele>
        <time>2021-08-11T10:54:30Z</time>
      </trkpt>
      <trkpt lat="48.14207" lon="-3.60253">
        <ele>140.6</ele>
        <time>2021-08-11T10:54:31Z</time>
      </trkpt>
      <trkpt lat="48.14207" lon="-3.60253">
        <ele>140.8</ele>
        <time>2021-08-11T10:54:49Z</time>
      </trkpt>
      <trkpt lat="48.14207" lon="-3.60252">
        <ele>140.8</ele>
        <time>2021-08-11T10:54:50Z</time>
      </trkpt>
      <trkpt lat="48.14207" lon="-3.60252">
        <ele>140.8</ele>
        <time>2021-08-11T10:54:51Z</time>
      </trkpt>
      <trkpt lat="48.14211" lon="-3.60255">
        <ele>141.8</ele>
        <time>2021-08-11T11:16:11Z</time>
      </trkpt>
      <trkpt lat="48.14211" lon="-3.60254">
        <ele>141.8</ele>
        <time>2021-08-11T11:16:12Z</time>
      </trkpt>
      <trkpt lat="48.1421" lon="-3.60252">
        <ele>141.8</ele>
        <time>2021-08-11T11:16:13Z</time>
      </trkpt>
      <trkpt lat="48.1421" lon="-3.6025">
        <ele>141.8</ele>
        <time>2021-08-11T11:16:14Z</time>
      </trkpt>
      <trkpt lat="48.1421" lon="-3.60248">
        <ele>141.8</ele>
        <time>2021-08-11T11:16:15Z</time>
      </trkpt>
      <trkpt lat="48.1421" lon="-3.60246">
        <ele>141.8</ele>
        <time>2021-08-11T11:16:16Z</time>
      </trkpt>
      <trkpt lat="48.1421" lon="-3.60244">
        <ele>141.8</ele>
        <time>2021-08-11T11:16:17Z</time>
      </trkpt>
      <trkpt lat="48.1421" lon="-3.60242">
        <ele>141.8</ele>
        <time>2021-08-11T11:16:18Z</time>
      </trkpt>
      <trkpt lat="48.1421" lon="-3.60238">
        <ele>141.8</ele>
        <time>2021-08-11T11:16:19Z</time>
      </trkpt>
      <trkpt lat="48.1421" lon="-3.60234">
        <ele>141.8</ele>
        <time>2021-08-11T11:16:20Z</time>
      </trkpt>
      <trkpt lat="48.14209" lon="-3.6023">
        <ele>141.8</ele>
        <time>2021-08-11T11:16:21Z</time>
      </trkpt>
      <trkpt lat="48.14207" lon="-3.60227">
        <ele>141.8</ele>
        <time>2021-08-11T11:16:22Z</time>
      </trkpt>
      <trkpt lat="48.14206" lon="-3.60224">
        <ele>141.8</ele>
        <time>2021-08-11T11:16:23Z</time>
      </trkpt>
      <trkpt lat="48.14203" lon="-3.60221">
        <ele>141.8</ele>
        <time>2021-08-11T11:16:24Z</time>
      </trkpt>
      <trkpt lat="48.142" lon="-3.60221">
        <ele>141.8</ele>
        <time>2021-08-11T11:16:25Z</time>
      </trkpt>
      <trkpt lat="48.14195" lon="-3.6022">
        <ele>141.8</ele>
        <time>2021-08-11T11:16:26Z</time>
      </trkpt>
      <trkpt lat="48.14191" lon="-3.6022">
        <ele>141.8</ele>
        <time>2021-08-11T11:16:27Z</time>
      </trkpt>
      <trkpt lat="48.14187" lon="-3.6022">
        <ele>141.8</ele>
        <time>2021-08-11T11:16:28Z</time>
      </trkpt>
      <trkpt lat="48.14183" lon="-3.6022">
        <ele>141.6</ele>
        <time>2021-08-11T11:16:29Z</time>
      </trkpt>
      <trkpt lat="48.14178" lon="-3.6022">
        <ele>141.6</ele>
        <time>2021-08-11T11:16:30Z</time>
      </trkpt>
      <trkpt lat="48.14174" lon="-3.60219">
        <ele>141.6</ele>
        <time>2021-08-11T11:16:31Z</time>
      </trkpt>
      <trkpt lat="48.1417" lon="-3.60219">
        <ele>141.6</ele>
        <time>2021-08-11T11:16:32Z</time>
      </trkpt>
      <trkpt lat="48.14166" lon="-3.60218">
        <ele>141.6</ele>
        <time>2021-08-11T11:16:33Z</time>
      </trkpt>
      <trkpt lat="48.14161" lon="-3.60218">
        <ele>141.6</ele>
        <time>2021-08-11T11:16:34Z</time>
      </trkpt>
      <trkpt lat="48.14157" lon="-3.60217">
        <ele>141.6</ele>
        <time>2021-08-11T11:16:35Z</time>
      </trkpt>
      <trkpt lat="48.14153" lon="-3.60215">
        <ele>141.4</ele>
        <time>2021-08-11T11:16:36Z</time>
      </trkpt>
      <trkpt lat="48.14149" lon="-3.60214">
        <ele>141.4</ele>
        <time>2021-08-11T11:16:37Z</time>
      </trkpt>
      <trkpt lat="48.14146" lon="-3.60211">
        <ele>141.4</ele>
        <time>2021-08-11T11:16:38Z</time>
      </trkpt>
      <trkpt lat="48.14143" lon="-3.60207">
        <ele>141</ele>
        <time>2021-08-11T11:16:39Z</time>
      </trkpt>
      <trkpt lat="48.14139" lon="-3.60204">
        <ele>141</ele>
        <time>2021-08-11T11:16:40Z</time>
      </trkpt>
      <trkpt lat="48.14136" lon="-3.60203">
        <ele>140.8</ele>
        <time>2021-08-11T11:16:41Z</time>
      </trkpt>
      <trkpt lat="48.14132" lon="-3.60202">
        <ele>140.8</ele>
        <time>2021-08-11T11:16:42Z</time>
      </trkpt>
      <trkpt lat="48.14128" lon="-3.60201">
        <ele>140.8</ele>
        <time>2021-08-11T11:16:43Z</time>
      </trkpt>
      <trkpt lat="48.14125" lon="-3.602">
        <ele>140.8</ele>
        <time>2021-08-11T11:16:44Z</time>
      </trkpt>
      <trkpt lat="48.14121" lon="-3.60199">
        <ele>140.8</ele>
        <time>2021-08-11T11:16:45Z</time>
      </trkpt>
      <trkpt lat="48.14118" lon="-3.60198">
        <ele>140.8</ele>
        <time>2021-08-11T11:16:46Z</time>
      </trkpt>
      <trkpt lat="48.14114" lon="-3.60198">
        <ele>140.8</ele>
        <time>2021-08-11T11:16:47Z</time>
      </trkpt>
      <trkpt lat="48.1411" lon="-3.60198">
        <ele>140.8</ele>
        <time>2021-08-11T11:16:48Z</time>
      </trkpt>
      <trkpt lat="48.14106" lon="-3.60198">
        <ele>140.8</ele>
        <time>2021-08-11T11:16:49Z</time>
      </trkpt>
      <trkpt lat="48.14102" lon="-3.60199">
        <ele>140.8</ele>
        <time>2021-08-11T11:16:50Z</time>
      </trkpt>
      <trkpt lat="48.14099" lon="-3.60202">
        <ele>140.8</ele>
        <time>2021-08-11T11:16:51Z</time>
      </trkpt>
      <trkpt lat="48.14098" lon="-3.60205">
        <ele>140.8</ele>
        <time>2021-08-11T11:16:52Z</time>
      </trkpt>
      <trkpt lat="48.14097" lon="-3.6021">
        <ele>140.8</ele>
        <time>2021-08-11T11:16:53Z</time>
      </trkpt>
      <trkpt lat="48.14097" lon="-3.60215">
        <ele>140.8</ele>
        <time>2021-08-11T11:16:54Z</time>
      </trkpt>
      <trkpt lat="48.14097" lon="-3.60219">
        <ele>140.8</ele>
        <time>2021-08-11T11:16:55Z</time>
      </trkpt>
      <trkpt lat="48.14097" lon="-3.60224">
        <ele>140.8</ele>
        <time>2021-08-11T11:16:56Z</time>
      </trkpt>
      <trkpt lat="48.14096" lon="-3.60228">
        <ele>140.8</ele>
        <time>2021-08-11T11:16:57Z</time>
      </trkpt>
      <trkpt lat="48.14096" lon="-3.60233">
        <ele>140.8</ele>
        <time>2021-08-11T11:16:58Z</time>
      </trkpt>
      <trkpt lat="48.14096" lon="-3.60238">
        <ele>140.8</ele>
        <time>2021-08-11T11:16:59Z</time>
      </trkpt>
      <trkpt lat="48.14096" lon="-3.60242">
        <ele>140.8</ele>
        <time>2021-08-11T11:17:00Z</time>
      </trkpt>
      <trkpt lat="48.14095" lon="-3.60247">
        <ele>140.8</ele>
        <time>2021-08-11T11:17:01Z</time>
      </trkpt>
      <trkpt lat="48.14095" lon="-3.60251">
        <ele>140.8</ele>
        <time>2021-08-11T11:17:02Z</time>
      </trkpt>
      <trkpt lat="48.14095" lon="-3.60255">
        <ele>140.8</ele>
        <time>2021-08-11T11:17:03Z</time>
      </trkpt>
      <trkpt lat="48.14094" lon="-3.6026">
        <ele>140.8</ele>
        <time>2021-08-11T11:17:04Z</time>
      </trkpt>
      <trkpt lat="48.14094" lon="-3.60264">
        <ele>140.8</ele>
        <time>2021-08-11T11:17:05Z</time>
      </trkpt>
      <trkpt lat="48.14094" lon="-3.60269">
        <ele>140.8</ele>
        <time>2021-08-11T11:17:06Z</time>
      </trkpt>
      <trkpt lat="48.14094" lon="-3.60273">
        <ele>140.8</ele>
        <time>2021-08-11T11:17:07Z</time>
      </trkpt>
      <trkpt lat="48.14093" lon="-3.60278">
        <ele>140.8</ele>
        <time>2021-08-11T11:17:08Z</time>
      </trkpt>
      <trkpt lat="48.14093" lon="-3.60282">
        <ele>141</ele>
        <time>2021-08-11T11:17:09Z</time>
      </trkpt>
      <trkpt lat="48.14093" lon="-3.60287">
        <ele>141.2</ele>
        <time>2021-08-11T11:17:10Z</time>
      </trkpt>
      <trkpt lat="48.14092" lon="-3.60291">
        <ele>141.4</ele>
        <time>2021-08-11T11:17:11Z</time>
      </trkpt>
      <trkpt lat="48.14091" lon="-3.60295">
        <ele>141.4</ele>
        <time>2021-08-11T11:17:12Z</time>
      </trkpt>
      <trkpt lat="48.14091" lon="-3.603">
        <ele>141.4</ele>
        <time>2021-08-11T11:17:13Z</time>
      </trkpt>
      <trkpt lat="48.1409" lon="-3.60304">
        <ele>141.4</ele>
        <time>2021-08-11T11:17:14Z</time>
      </trkpt>
      <trkpt lat="48.14089" lon="-3.60308">
        <ele>142</ele>
        <time>2021-08-11T11:17:15Z</time>
      </trkpt>
      <trkpt lat="48.14089" lon="-3.60312">
        <ele>142</ele>
        <time>2021-08-11T11:17:16Z</time>
      </trkpt>
      <trkpt lat="48.14088" lon="-3.60317">
        <ele>142.2</ele>
        <time>2021-08-11T11:17:17Z</time>
      </trkpt>
      <trkpt lat="48.14087" lon="-3.60321">
        <ele>142.2</ele>
        <time>2021-08-11T11:17:18Z</time>
      </trkpt>
      <trkpt lat="48.14087" lon="-3.60325">
        <ele>142.2</ele>
        <time>2021-08-11T11:17:19Z</time>
      </trkpt>
      <trkpt lat="48.14085" lon="-3.60329">
        <ele>142.4</ele>
        <time>2021-08-11T11:17:20Z</time>
      </trkpt>
      <trkpt lat="48.14084" lon="-3.60334">
        <ele>142.4</ele>
        <time>2021-08-11T11:17:21Z</time>
      </trkpt>
      <trkpt lat="48.14082" lon="-3.60338">
        <ele>142.4</ele>
        <time>2021-08-11T11:17:22Z</time>
      </trkpt>
      <trkpt lat="48.14081" lon="-3.60342">
        <ele>142.4</ele>
        <time>2021-08-11T11:17:23Z</time>
      </trkpt>
      <trkpt lat="48.14079" lon="-3.60346">
        <ele>142.4</ele>
        <time>2021-08-11T11:17:24Z</time>
      </trkpt>
      <trkpt lat="48.14077" lon="-3.6035">
        <ele>142.4</ele>
        <time>2021-08-11T11:17:25Z</time>
      </trkpt>
      <trkpt lat="48.14075" lon="-3.60354">
        <ele>142.6</ele>
        <time>2021-08-11T11:17:26Z</time>
      </trkpt>
      <trkpt lat="48.14073" lon="-3.60358">
        <ele>142.6</ele>
        <time>2021-08-11T11:17:27Z</time>
      </trkpt>
      <trkpt lat="48.14072" lon="-3.60362">
        <ele>142.6</ele>
        <time>2021-08-11T11:17:28Z</time>
      </trkpt>
      <trkpt lat="48.14071" lon="-3.60367">
        <ele>142.6</ele>
        <time>2021-08-11T11:17:29Z</time>
      </trkpt>
      <trkpt lat="48.14069" lon="-3.60371">
        <ele>142.8</ele>
        <time>2021-08-11T11:17:30Z</time>
      </trkpt>
      <trkpt lat="48.14068" lon="-3.60376">
        <ele>142.8</ele>
        <time>2021-08-11T11:17:31Z</time>
      </trkpt>
      <trkpt lat="48.14067" lon="-3.6038">
        <ele>142.8</ele>
        <time>2021-08-11T11:17:32Z</time>
      </trkpt>
      <trkpt lat="48.14066" lon="-3.60385">
        <ele>142.8</ele>
        <time>2021-08-11T11:17:33Z</time>
      </trkpt>
      <trkpt lat="48.14065" lon="-3.60389">
        <ele>142.8</ele>
        <time>2021-08-11T11:17:34Z</time>
      </trkpt>
      <trkpt lat="48.14064" lon="-3.60393">
        <ele>142.8</ele>
        <time>2021-08-11T11:17:35Z</time>
      </trkpt>
      <trkpt lat="48.14062" lon="-3.60397">
        <ele>142.8</ele>
        <time>2021-08-11T11:17:36Z</time>
      </trkpt>
      <trkpt lat="48.14061" lon="-3.60401">
        <ele>143</ele>
        <time>2021-08-11T11:17:37Z</time>
      </trkpt>
      <trkpt lat="48.1406" lon="-3.60404">
        <ele>143</ele>
        <time>2021-08-11T11:17:38Z</time>
      </trkpt>
      <trkpt lat="48.14058" lon="-3.60408">
        <ele>143</ele>
        <time>2021-08-11T11:17:39Z</time>
      </trkpt>
      <trkpt lat="48.14058" lon="-3.6041">
        <ele>143</ele>
        <time>2021-08-11T11:17:40Z</time>
      </trkpt>
      <trkpt lat="48.14057" lon="-3.60411">
        <ele>143</ele>
        <time>2021-08-11T11:17:41Z</time>
      </trkpt>
      <trkpt lat="48.14056" lon="-3.60411">
        <ele>145.4</ele>
        <time>2021-08-11T11:18:55Z</time>
      </trkpt>
      <trkpt lat="48.14057" lon="-3.6041">
        <ele>145.4</ele>
        <time>2021-08-11T11:18:56Z</time>
      </trkpt>
      <trkpt lat="48.14058" lon="-3.60408">
        <ele>145.4</ele>
        <time>2021-08-11T11:18:57Z</time>
      </trkpt>
      <trkpt lat="48.14058" lon="-3.60407">
        <ele>145.6</ele>
        <time>2021-08-11T11:18:58Z</time>
      </trkpt>
      <trkpt lat="48.14059" lon="-3.60407">
        <ele>145.6</ele>
        <time>2021-08-11T11:18:59Z</time>
      </trkpt>
      <trkpt lat="48.14059" lon="-3.60406">
        <ele>145.6</ele>
        <time>2021-08-11T11:19:02Z</time>
      </trkpt>
      <trkpt lat="48.14059" lon="-3.60405">
        <ele>145.6</ele>
        <time>2021-08-11T11:19:03Z</time>
      </trkpt>
      <trkpt lat="48.14059" lon="-3.60405">
        <ele>145.6</ele>
        <time>2021-08-11T11:19:04Z</time>
      </trkpt>
      <trkpt lat="48.14059" lon="-3.60404">
        <ele>145.6</ele>
        <time>2021-08-11T11:19:14Z</time>
      </trkpt>
      <trkpt lat="48.14058" lon="-3.60403">
        <ele>145.6</ele>
        <time>2021-08-11T11:19:15Z</time>
      </trkpt>
      <trkpt lat="48.14056" lon="-3.60403">
        <ele>145.6</ele>
        <time>2021-08-11T11:19:16Z</time>
      </trkpt>
      <trkpt lat="48.14055" lon="-3.60406">
        <ele>145.6</ele>
        <time>2021-08-11T11:19:17Z</time>
      </trkpt>
      <trkpt lat="48.14054" lon="-3.60409">
        <ele>145.6</ele>
        <time>2021-08-11T11:19:18Z</time>
      </trkpt>
      <trkpt lat="48.14053" lon="-3.60413">
        <ele>145.6</ele>
        <time>2021-08-11T11:19:19Z</time>
      </trkpt>
      <trkpt lat="48.14052" lon="-3.60417">
        <ele>145.6</ele>
        <time>2021-08-11T11:19:20Z</time>
      </trkpt>
      <trkpt lat="48.14051" lon="-3.6042">
        <ele>145.8</ele>
        <time>2021-08-11T11:19:21Z</time>
      </trkpt>
      <trkpt lat="48.1405" lon="-3.60424">
        <ele>145.8</ele>
        <time>2021-08-11T11:19:22Z</time>
      </trkpt>
      <trkpt lat="48.14049" lon="-3.60429">
        <ele>145.8</ele>
        <time>2021-08-11T11:19:23Z</time>
      </trkpt>
      <trkpt lat="48.14048" lon="-3.60433">
        <ele>145.8</ele>
        <time>2021-08-11T11:19:24Z</time>
      </trkpt>
      <trkpt lat="48.14047" lon="-3.60438">
        <ele>145.8</ele>
        <time>2021-08-11T11:19:25Z</time>
      </trkpt>
      <trkpt lat="48.14046" lon="-3.60442">
        <ele>145.8</ele>
        <time>2021-08-11T11:19:26Z</time>
      </trkpt>
      <trkpt lat="48.14044" lon="-3.60446">
        <ele>145.8</ele>
        <time>2021-08-11T11:19:27Z</time>
      </trkpt>
      <trkpt lat="48.14043" lon="-3.6045">
        <ele>145.8</ele>
        <time>2021-08-11T11:19:28Z</time>
      </trkpt>
      <trkpt lat="48.14041" lon="-3.60454">
        <ele>145.8</ele>
        <time>2021-08-11T11:19:29Z</time>
      </trkpt>
      <trkpt lat="48.1404" lon="-3.60459">
        <ele>145.8</ele>
        <time>2021-08-11T11:19:30Z</time>
      </trkpt>
      <trkpt lat="48.14039" lon="-3.60463">
        <ele>145.8</ele>
        <time>2021-08-11T11:19:31Z</time>
      </trkpt>
      <trkpt lat="48.14037" lon="-3.60467">
        <ele>146</ele>
        <time>2021-08-11T11:19:32Z</time>
      </trkpt>
      <trkpt lat="48.14036" lon="-3.6047">
        <ele>146</ele>
        <time>2021-08-11T11:19:33Z</time>
      </trkpt>
      <trkpt lat="48.14035" lon="-3.60474">
        <ele>146</ele>
        <time>2021-08-11T11:19:34Z</time>
      </trkpt>
      <trkpt lat="48.14033" lon="-3.60478">
        <ele>146</ele>
        <time>2021-08-11T11:19:35Z</time>
      </trkpt>
      <trkpt lat="48.14032" lon="-3.60482">
        <ele>146</ele>
        <time>2021-08-11T11:19:36Z</time>
      </trkpt>
      <trkpt lat="48.14031" lon="-3.60485">
        <ele>146</ele>
        <time>2021-08-11T11:19:37Z</time>
      </trkpt>
      <trkpt lat="48.1403" lon="-3.60489">
        <ele>146.2</ele>
        <time>2021-08-11T11:19:38Z</time>
      </trkpt>
      <trkpt lat="48.14029" lon="-3.60493">
        <ele>146.2</ele>
        <time>2021-08-11T11:19:39Z</time>
      </trkpt>
      <trkpt lat="48.14028" lon="-3.60496">
        <ele>146.4</ele>
        <time>2021-08-11T11:19:40Z</time>
      </trkpt>
      <trkpt lat="48.14027" lon="-3.60499">
        <ele>146.6</ele>
        <time>2021-08-11T11:19:41Z</time>
      </trkpt>
      <trkpt lat="48.14026" lon="-3.60503">
        <ele>146.8</ele>
        <time>2021-08-11T11:19:42Z</time>
      </trkpt>
      <trkpt lat="48.14025" lon="-3.60506">
        <ele>146.8</ele>
        <time>2021-08-11T11:19:43Z</time>
      </trkpt>
      <trkpt lat="48.14024" lon="-3.60509">
        <ele>147</ele>
        <time>2021-08-11T11:19:44Z</time>
      </trkpt>
      <trkpt lat="48.14023" lon="-3.60512">
        <ele>147</ele>
        <time>2021-08-11T11:19:45Z</time>
      </trkpt>
      <trkpt lat="48.14022" lon="-3.60516">
        <ele>147.2</ele>
        <time>2021-08-11T11:19:46Z</time>
      </trkpt>
      <trkpt lat="48.14021" lon="-3.60519">
        <ele>147.2</ele>
        <time>2021-08-11T11:19:47Z</time>
      </trkpt>
      <trkpt lat="48.1402" lon="-3.60522">
        <ele>147.6</ele>
        <time>2021-08-11T11:19:48Z</time>
      </trkpt>
      <trkpt lat="48.14019" lon="-3.60525">
        <ele>147.8</ele>
        <time>2021-08-11T11:19:49Z</time>
      </trkpt>
      <trkpt lat="48.14018" lon="-3.60528">
        <ele>148</ele>
        <time>2021-08-11T11:19:50Z</time>
      </trkpt>
      <trkpt lat="48.14017" lon="-3.6053">
        <ele>148.2</ele>
        <time>2021-08-11T11:19:51Z</time>
      </trkpt>
      <trkpt lat="48.14016" lon="-3.60533">
        <ele>148.6</ele>
        <time>2021-08-11T11:19:52Z</time>
      </trkpt>
      <trkpt lat="48.14016" lon="-3.60536">
        <ele>148.8</ele>
        <time>2021-08-11T11:19:53Z</time>
      </trkpt>
      <trkpt lat="48.14015" lon="-3.60539">
        <ele>149</ele>
        <time>2021-08-11T11:19:54Z</time>
      </trkpt>
      <trkpt lat="48.14015" lon="-3.60541">
        <ele>149.2</ele>
        <time>2021-08-11T11:19:55Z</time>
      </trkpt>
      <trkpt lat="48.14015" lon="-3.60543">
        <ele>149.4</ele>
        <time>2021-08-11T11:19:56Z</time>
      </trkpt>
      <trkpt lat="48.14015" lon="-3.60545">
        <ele>149.6</ele>
        <time>2021-08-11T11:19:57Z</time>
      </trkpt>
      <trkpt lat="48.14016" lon="-3.60547">
        <ele>149.8</ele>
        <time>2021-08-11T11:19:58Z</time>
      </trkpt>
      <trkpt lat="48.14017" lon="-3.60548">
        <ele>150</ele>
        <time>2021-08-11T11:19:59Z</time>
      </trkpt>
      <trkpt lat="48.14018" lon="-3.60548">
        <ele>150.2</ele>
        <time>2021-08-11T11:20:00Z</time>
      </trkpt>
      <trkpt lat="48.14018" lon="-3.60548">
        <ele>150.4</ele>
        <time>2021-08-11T11:20:01Z</time>
      </trkpt>
      <trkpt lat="48.14019" lon="-3.60554">
        <ele>150.4</ele>
        <time>2021-08-11T11:23:02Z</time>
      </trkpt>
      <trkpt lat="48.1402" lon="-3.60556">
        <ele>150.4</ele>
        <time>2021-08-11T11:23:03Z</time>
      </trkpt>
      <trkpt lat="48.14019" lon="-3.60559">
        <ele>150.4</ele>
        <time>2021-08-11T11:23:04Z</time>
      </trkpt>
      <trkpt lat="48.14018" lon="-3.60562">
        <ele>150.4</ele>
        <time>2021-08-11T11:23:05Z</time>
      </trkpt>
      <trkpt lat="48.14017" lon="-3.60564">
        <ele>150.6</ele>
        <time>2021-08-11T11:23:06Z</time>
      </trkpt>
      <trkpt lat="48.14016" lon="-3.60566">
        <ele>150.6</ele>
        <time>2021-08-11T11:23:07Z</time>
      </trkpt>
      <trkpt lat="48.14015" lon="-3.60568">
        <ele>150.6</ele>
        <time>2021-08-11T11:23:08Z</time>
      </trkpt>
      <trkpt lat="48.14014" lon="-3.6057">
        <ele>150.6</ele>
        <time>2021-08-11T11:23:09Z</time>
      </trkpt>
      <trkpt lat="48.14013" lon="-3.60572">
        <ele>150.6</ele>
        <time>2021-08-11T11:23:10Z</time>
      </trkpt>
      <trkpt lat="48.14013" lon="-3.60574">
        <ele>150.6</ele>
        <time>2021-08-11T11:23:11Z</time>
      </trkpt>
      <trkpt lat="48.14011" lon="-3.60576">
        <ele>150.6</ele>
        <time>2021-08-11T11:23:12Z</time>
      </trkpt>
      <trkpt lat="48.1401" lon="-3.60577">
        <ele>150.6</ele>
        <time>2021-08-11T11:23:13Z</time>
      </trkpt>
      <trkpt lat="48.14008" lon="-3.60578">
        <ele>150.6</ele>
        <time>2021-08-11T11:23:14Z</time>
      </trkpt>
      <trkpt lat="48.14006" lon="-3.60579">
        <ele>150.6</ele>
        <time>2021-08-11T11:23:15Z</time>
      </trkpt>
      <trkpt lat="48.14004" lon="-3.6058">
        <ele>150.6</ele>
        <time>2021-08-11T11:23:16Z</time>
      </trkpt>
      <trkpt lat="48.14002" lon="-3.6058">
        <ele>150.8</ele>
        <time>2021-08-11T11:23:17Z</time>
      </trkpt>
      <trkpt lat="48.14001" lon="-3.60581">
        <ele>151</ele>
        <time>2021-08-11T11:23:18Z</time>
      </trkpt>
      <trkpt lat="48.13999" lon="-3.60582">
        <ele>151.2</ele>
        <time>2021-08-11T11:23:19Z</time>
      </trkpt>
      <trkpt lat="48.13997" lon="-3.60583">
        <ele>151.4</ele>
        <time>2021-08-11T11:23:20Z</time>
      </trkpt>
      <trkpt lat="48.13996" lon="-3.60585">
        <ele>151.4</ele>
        <time>2021-08-11T11:23:21Z</time>
      </trkpt>
      <trkpt lat="48.13995" lon="-3.60588">
        <ele>151.6</ele>
        <time>2021-08-11T11:23:22Z</time>
      </trkpt>
      <trkpt lat="48.13994" lon="-3.60591">
        <ele>151.6</ele>
        <time>2021-08-11T11:23:23Z</time>
      </trkpt>
      <trkpt lat="48.13994" lon="-3.60593">
        <ele>151.6</ele>
        <time>2021-08-11T11:23:24Z</time>
      </trkpt>
      <trkpt lat="48.13993" lon="-3.60596">
        <ele>151.8</ele>
        <time>2021-08-11T11:23:25Z</time>
      </trkpt>
      <trkpt lat="48.13992" lon="-3.60598">
        <ele>151.8</ele>
        <time>2021-08-11T11:23:26Z</time>
      </trkpt>
      <trkpt lat="48.13991" lon="-3.60601">
        <ele>152</ele>
        <time>2021-08-11T11:23:27Z</time>
      </trkpt>
      <trkpt lat="48.13991" lon="-3.60603">
        <ele>152.2</ele>
        <time>2021-08-11T11:23:28Z</time>
      </trkpt>
      <trkpt lat="48.1399" lon="-3.60606">
        <ele>152.2</ele>
        <time>2021-08-11T11:23:29Z</time>
      </trkpt>
      <trkpt lat="48.13989" lon="-3.60608">
        <ele>152.4</ele>
        <time>2021-08-11T11:23:30Z</time>
      </trkpt>
      <trkpt lat="48.13988" lon="-3.60611">
        <ele>152.4</ele>
        <time>2021-08-11T11:23:31Z</time>
      </trkpt>
      <trkpt lat="48.13988" lon="-3.60613">
        <ele>152.4</ele>
        <time>2021-08-11T11:23:32Z</time>
      </trkpt>
      <trkpt lat="48.13987" lon="-3.60615">
        <ele>152.6</ele>
        <time>2021-08-11T11:23:33Z</time>
      </trkpt>
      <trkpt lat="48.13986" lon="-3.60618">
        <ele>152.8</ele>
        <time>2021-08-11T11:23:34Z</time>
      </trkpt>
      <trkpt lat="48.13986" lon="-3.6062">
        <ele>153</ele>
        <time>2021-08-11T11:23:35Z</time>
      </trkpt>
      <trkpt lat="48.13985" lon="-3.60622">
        <ele>153</ele>
        <time>2021-08-11T11:23:36Z</time>
      </trkpt>
      <trkpt lat="48.13984" lon="-3.60625">
        <ele>153.2</ele>
        <time>2021-08-11T11:23:37Z</time>
      </trkpt>
      <trkpt lat="48.13983" lon="-3.60627">
        <ele>153.4</ele>
        <time>2021-08-11T11:23:38Z</time>
      </trkpt>
      <trkpt lat="48.13983" lon="-3.60629">
        <ele>153.6</ele>
        <time>2021-08-11T11:23:39Z</time>
      </trkpt>
      <trkpt lat="48.13982" lon="-3.6063">
        <ele>153.6</ele>
        <time>2021-08-11T11:23:40Z</time>
      </trkpt>
      <trkpt lat="48.13981" lon="-3.6063">
        <ele>153.8</ele>
        <time>2021-08-11T11:23:41Z</time>
      </trkpt>
      <trkpt lat="48.1398" lon="-3.60631">
        <ele>153.8</ele>
        <time>2021-08-11T11:23:42Z</time>
      </trkpt>
      <trkpt lat="48.1398" lon="-3.60633">
        <ele>154</ele>
        <time>2021-08-11T11:23:43Z</time>
      </trkpt>
      <trkpt lat="48.13979" lon="-3.60635">
        <ele>154.2</ele>
        <time>2021-08-11T11:23:44Z</time>
      </trkpt>
      <trkpt lat="48.13979" lon="-3.60636">
        <ele>154.4</ele>
        <time>2021-08-11T11:23:45Z</time>
      </trkpt>
      <trkpt lat="48.13979" lon="-3.60638">
        <ele>154.6</ele>
        <time>2021-08-11T11:23:46Z</time>
      </trkpt>
      <trkpt lat="48.13978" lon="-3.6064">
        <ele>154.8</ele>
        <time>2021-08-11T11:23:47Z</time>
      </trkpt>
      <trkpt lat="48.13977" lon="-3.60642">
        <ele>155</ele>
        <time>2021-08-11T11:23:48Z</time>
      </trkpt>
      <trkpt lat="48.13977" lon="-3.60644">
        <ele>155</ele>
        <time>2021-08-11T11:23:49Z</time>
      </trkpt>
      <trkpt lat="48.13976" lon="-3.60647">
        <ele>155.2</ele>
        <time>2021-08-11T11:23:50Z</time>
      </trkpt>
      <trkpt lat="48.13975" lon="-3.60649">
        <ele>155.4</ele>
        <time>2021-08-11T11:23:51Z</time>
      </trkpt>
      <trkpt lat="48.13974" lon="-3.60651">
        <ele>155.6</ele>
        <time>2021-08-11T11:23:52Z</time>
      </trkpt>
      <trkpt lat="48.13974" lon="-3.60653">
        <ele>155.6</ele>
        <time>2021-08-11T11:23:53Z</time>
      </trkpt>
      <trkpt lat="48.13973" lon="-3.60655">
        <ele>155.6</ele>
        <time>2021-08-11T11:23:54Z</time>
      </trkpt>
      <trkpt lat="48.13972" lon="-3.60658">
        <ele>155.6</ele>
        <time>2021-08-11T11:23:55Z</time>
      </trkpt>
      <trkpt lat="48.13971" lon="-3.6066">
        <ele>155.6</ele>
        <time>2021-08-11T11:23:56Z</time>
      </trkpt>
      <trkpt lat="48.13969" lon="-3.60661">
        <ele>155.8</ele>
        <time>2021-08-11T11:23:57Z</time>
      </trkpt>
      <trkpt lat="48.13967" lon="-3.60661">
        <ele>155.8</ele>
        <time>2021-08-11T11:23:58Z</time>
      </trkpt>
      <trkpt lat="48.13965" lon="-3.60659">
        <ele>156</ele>
        <time>2021-08-11T11:23:59Z</time>
      </trkpt>
      <trkpt lat="48.13963" lon="-3.60656">
        <ele>156</ele>
        <time>2021-08-11T11:24:00Z</time>
      </trkpt>
      <trkpt lat="48.13961" lon="-3.60654">
        <ele>156</ele>
        <time>2021-08-11T11:24:01Z</time>
      </trkpt>
      <trkpt lat="48.13959" lon="-3.60652">
        <ele>156.2</ele>
        <time>2021-08-11T11:24:02Z</time>
      </trkpt>
      <trkpt lat="48.13958" lon="-3.60649">
        <ele>156.2</ele>
        <time>2021-08-11T11:24:03Z</time>
      </trkpt>
      <trkpt lat="48.13957" lon="-3.60645">
        <ele>156.2</ele>
        <time>2021-08-11T11:24:04Z</time>
      </trkpt>
      <trkpt lat="48.13957" lon="-3.60641">
        <ele>156.2</ele>
        <time>2021-08-11T11:24:05Z</time>
      </trkpt>
      <trkpt lat="48.13959" lon="-3.60637">
        <ele>156.2</ele>
        <time>2021-08-11T11:24:06Z</time>
      </trkpt>
      <trkpt lat="48.13961" lon="-3.60635">
        <ele>156.2</ele>
        <time>2021-08-11T11:24:07Z</time>
      </trkpt>
      <trkpt lat="48.13963" lon="-3.60633">
        <ele>156.2</ele>
        <time>2021-08-11T11:24:08Z</time>
      </trkpt>
      <trkpt lat="48.13967" lon="-3.60633">
        <ele>156.2</ele>
        <time>2021-08-11T11:24:09Z</time>
      </trkpt>
      <trkpt lat="48.1397" lon="-3.60634">
        <ele>156.2</ele>
        <time>2021-08-11T11:24:10Z</time>
      </trkpt>
      <trkpt lat="48.13972" lon="-3.60634">
        <ele>156.2</ele>
        <time>2021-08-11T11:24:11Z</time>
      </trkpt>
      <trkpt lat="48.13975" lon="-3.60633">
        <ele>156.2</ele>
        <time>2021-08-11T11:24:12Z</time>
      </trkpt>
      <trkpt lat="48.13976" lon="-3.60631">
        <ele>156.2</ele>
        <time>2021-08-11T11:24:13Z</time>
      </trkpt>
      <trkpt lat="48.13976" lon="-3.60629">
        <ele>156.2</ele>
        <time>2021-08-11T11:24:14Z</time>
      </trkpt>
      <trkpt lat="48.13976" lon="-3.60627">
        <ele>156.2</ele>
        <time>2021-08-11T11:24:15Z</time>
      </trkpt>
      <trkpt lat="48.13975" lon="-3.60627">
        <ele>156</ele>
        <time>2021-08-11T11:24:16Z</time>
      </trkpt>
      <trkpt lat="48.13974" lon="-3.60627">
        <ele>156</ele>
        <time>2021-08-11T11:24:17Z</time>
      </trkpt>
      <trkpt lat="48.13974" lon="-3.60627">
        <ele>156</ele>
        <time>2021-08-11T11:24:18Z</time>
      </trkpt>
      <trkpt lat="48.13974" lon="-3.60627">
        <ele>156</ele>
        <time>2021-08-11T11:24:19Z</time>
      </trkpt>
      <trkpt lat="48.13974" lon="-3.60621">
        <ele>155</ele>
        <time>2021-08-11T11:24:40Z</time>
      </trkpt>
      <trkpt lat="48.13974" lon="-3.6062">
        <ele>155</ele>
        <time>2021-08-11T11:24:41Z</time>
      </trkpt>
      <trkpt lat="48.13974" lon="-3.60619">
        <ele>155</ele>
        <time>2021-08-11T11:24:42Z</time>
      </trkpt>
      <trkpt lat="48.13974" lon="-3.60619">
        <ele>155</ele>
        <time>2021-08-11T11:24:43Z</time>
      </trkpt>
      <trkpt lat="48.13974" lon="-3.60619">
        <ele>155</ele>
        <time>2021-08-11T11:24:44Z</time>
      </trkpt>
      <trkpt lat="48.13974" lon="-3.60619">
        <ele>155.2</ele>
        <time>2021-08-11T11:24:45Z</time>
      </trkpt>
      <trkpt lat="48.13986" lon="-3.60604">
        <ele>157</ele>
        <time>2021-08-11T11:55:58Z</time>
      </trkpt>
      <trkpt lat="48.13986" lon="-3.60602">
        <ele>157</ele>
        <time>2021-08-11T11:55:59Z</time>
      </trkpt>
      <trkpt lat="48.13985" lon="-3.606">
        <ele>157</ele>
        <time>2021-08-11T11:56:00Z</time>
      </trkpt>
      <trkpt lat="48.13983" lon="-3.60601">
        <ele>157</ele>
        <time>2021-08-11T11:56:01Z</time>
      </trkpt>
      <trkpt lat="48.13982" lon="-3.60603">
        <ele>157</ele>
        <time>2021-08-11T11:56:02Z</time>
      </trkpt>
      <trkpt lat="48.13981" lon="-3.60603">
        <ele>157</ele>
        <time>2021-08-11T11:56:03Z</time>
      </trkpt>
      <trkpt lat="48.13981" lon="-3.60602">
        <ele>157</ele>
        <time>2021-08-11T11:56:04Z</time>
      </trkpt>
      <trkpt lat="48.13982" lon="-3.606">
        <ele>157</ele>
        <time>2021-08-11T11:56:05Z</time>
      </trkpt>
      <trkpt lat="48.13984" lon="-3.60598">
        <ele>157</ele>
        <time>2021-08-11T11:56:06Z</time>
      </trkpt>
      <trkpt lat="48.13986" lon="-3.60595">
        <ele>156.8</ele>
        <time>2021-08-11T11:56:07Z</time>
      </trkpt>
      <trkpt lat="48.13988" lon="-3.60591">
        <ele>156.6</ele>
        <time>2021-08-11T11:56:08Z</time>
      </trkpt>
      <trkpt lat="48.13991" lon="-3.60587">
        <ele>156.4</ele>
        <time>2021-08-11T11:56:09Z</time>
      </trkpt>
      <trkpt lat="48.13994" lon="-3.60582">
        <ele>156.4</ele>
        <time>2021-08-11T11:56:10Z</time>
      </trkpt>
      <trkpt lat="48.13997" lon="-3.60577">
        <ele>156.2</ele>
        <time>2021-08-11T11:56:11Z</time>
      </trkpt>
      <trkpt lat="48.13999" lon="-3.60571">
        <ele>156.2</ele>
        <time>2021-08-11T11:56:12Z</time>
      </trkpt>
      <trkpt lat="48.14001" lon="-3.60565">
        <ele>156.2</ele>
        <time>2021-08-11T11:56:13Z</time>
      </trkpt>
      <trkpt lat="48.14004" lon="-3.6056">
        <ele>156</ele>
        <time>2021-08-11T11:56:14Z</time>
      </trkpt>
      <trkpt lat="48.14006" lon="-3.60556">
        <ele>156</ele>
        <time>2021-08-11T11:56:15Z</time>
      </trkpt>
      <trkpt lat="48.14008" lon="-3.60553">
        <ele>155.6</ele>
        <time>2021-08-11T11:56:16Z</time>
      </trkpt>
      <trkpt lat="48.1401" lon="-3.60549">
        <ele>155.4</ele>
        <time>2021-08-11T11:56:17Z</time>
      </trkpt>
      <trkpt lat="48.14011" lon="-3.60545">
        <ele>155</ele>
        <time>2021-08-11T11:56:18Z</time>
      </trkpt>
      <trkpt lat="48.14012" lon="-3.60539">
        <ele>154.4</ele>
        <time>2021-08-11T11:56:19Z</time>
      </trkpt>
      <trkpt lat="48.14014" lon="-3.60533">
        <ele>154</ele>
        <time>2021-08-11T11:56:20Z</time>
      </trkpt>
      <trkpt lat="48.14016" lon="-3.60526">
        <ele>153.6</ele>
        <time>2021-08-11T11:56:21Z</time>
      </trkpt>
      <trkpt lat="48.14019" lon="-3.60519">
        <ele>153.4</ele>
        <time>2021-08-11T11:56:22Z</time>
      </trkpt>
      <trkpt lat="48.14021" lon="-3.60511">
        <ele>153.2</ele>
        <time>2021-08-11T11:56:23Z</time>
      </trkpt>
      <trkpt lat="48.14024" lon="-3.60502">
        <ele>153</ele>
        <time>2021-08-11T11:56:24Z</time>
      </trkpt>
      <trkpt lat="48.14027" lon="-3.60493">
        <ele>152.8</ele>
        <time>2021-08-11T11:56:25Z</time>
      </trkpt>
      <trkpt lat="48.14029" lon="-3.60484">
        <ele>152.2</ele>
        <time>2021-08-11T11:56:26Z</time>
      </trkpt>
      <trkpt lat="48.14032" lon="-3.60476">
        <ele>151.8</ele>
        <time>2021-08-11T11:56:27Z</time>
      </trkpt>
      <trkpt lat="48.14034" lon="-3.60468">
        <ele>151.6</ele>
        <time>2021-08-11T11:56:28Z</time>
      </trkpt>
      <trkpt lat="48.14037" lon="-3.6046">
        <ele>151</ele>
        <time>2021-08-11T11:56:29Z</time>
      </trkpt>
      <trkpt lat="48.14039" lon="-3.60454">
        <ele>150.4</ele>
        <time>2021-08-11T11:56:30Z</time>
      </trkpt>
      <trkpt lat="48.1404" lon="-3.60449">
        <ele>150</ele>
        <time>2021-08-11T11:56:31Z</time>
      </trkpt>
      <trkpt lat="48.14042" lon="-3.60444">
        <ele>149.6</ele>
        <time>2021-08-11T11:56:32Z</time>
      </trkpt>
      <trkpt lat="48.14042" lon="-3.6044">
        <ele>149</ele>
        <time>2021-08-11T11:56:33Z</time>
      </trkpt>
      <trkpt lat="48.14041" lon="-3.60436">
        <ele>148.6</ele>
        <time>2021-08-11T11:56:34Z</time>
      </trkpt>
      <trkpt lat="48.14039" lon="-3.60433">
        <ele>148.2</ele>
        <time>2021-08-11T11:56:35Z</time>
      </trkpt>
      <trkpt lat="48.14036" lon="-3.60432">
        <ele>148</ele>
        <time>2021-08-11T11:56:36Z</time>
      </trkpt>
      <trkpt lat="48.14033" lon="-3.60432">
        <ele>147.8</ele>
        <time>2021-08-11T11:56:37Z</time>
      </trkpt>
      <trkpt lat="48.1403" lon="-3.60433">
        <ele>147.8</ele>
        <time>2021-08-11T11:56:38Z</time>
      </trkpt>
      <trkpt lat="48.14027" lon="-3.60435">
        <ele>147.8</ele>
        <time>2021-08-11T11:56:39Z</time>
      </trkpt>
      <trkpt lat="48.14025" lon="-3.60437">
        <ele>147.8</ele>
        <time>2021-08-11T11:56:40Z</time>
      </trkpt>
      <trkpt lat="48.14022" lon="-3.60438">
        <ele>147.8</ele>
        <time>2021-08-11T11:56:41Z</time>
      </trkpt>
      <trkpt lat="48.1402" lon="-3.60438">
        <ele>147.6</ele>
        <time>2021-08-11T11:56:42Z</time>
      </trkpt>
      <trkpt lat="48.14017" lon="-3.60438">
        <ele>147.6</ele>
        <time>2021-08-11T11:56:43Z</time>
      </trkpt>
      <trkpt lat="48.14014" lon="-3.60438">
        <ele>147.6</ele>
        <time>2021-08-11T11:56:44Z</time>
      </trkpt>
      <trkpt lat="48.14011" lon="-3.60438">
        <ele>147.6</ele>
        <time>2021-08-11T11:56:45Z</time>
      </trkpt>
      <trkpt lat="48.14007" lon="-3.60438">
        <ele>147.6</ele>
        <time>2021-08-11T11:56:46Z</time>
      </trkpt>
      <trkpt lat="48.14003" lon="-3.60437">
        <ele>147.6</ele>
        <time>2021-08-11T11:56:47Z</time>
      </trkpt>
      <trkpt lat="48.14" lon="-3.60437">
        <ele>147.6</ele>
        <time>2021-08-11T11:56:48Z</time>
      </trkpt>
      <trkpt lat="48.13996" lon="-3.60437">
        <ele>147.4</ele>
        <time>2021-08-11T11:56:49Z</time>
      </trkpt>
      <trkpt lat="48.13992" lon="-3.60437">
        <ele>147.4</ele>
        <time>2021-08-11T11:56:50Z</time>
      </trkpt>
      <trkpt lat="48.13987" lon="-3.60437">
        <ele>147.4</ele>
        <time>2021-08-11T11:56:51Z</time>
      </trkpt>
      <trkpt lat="48.13983" lon="-3.60438">
        <ele>147.4</ele>
        <time>2021-08-11T11:56:52Z</time>
      </trkpt>
      <trkpt lat="48.13979" lon="-3.60438">
        <ele>147.4</ele>
        <time>2021-08-11T11:56:53Z</time>
      </trkpt>
      <trkpt lat="48.13975" lon="-3.60438">
        <ele>147.2</ele>
        <time>2021-08-11T11:56:54Z</time>
      </trkpt>
      <trkpt lat="48.13972" lon="-3.60438">
        <ele>147.2</ele>
        <time>2021-08-11T11:56:55Z</time>
      </trkpt>
      <trkpt lat="48.1397" lon="-3.60438">
        <ele>147.2</ele>
        <time>2021-08-11T11:56:56Z</time>
      </trkpt>
      <trkpt lat="48.13968" lon="-3.60438">
        <ele>147.2</ele>
        <time>2021-08-11T11:56:57Z</time>
      </trkpt>
      <trkpt lat="48.13966" lon="-3.60438">
        <ele>147.2</ele>
        <time>2021-08-11T11:56:58Z</time>
      </trkpt>
      <trkpt lat="48.13965" lon="-3.60438">
        <ele>147</ele>
        <time>2021-08-11T11:56:59Z</time>
      </trkpt>
      <trkpt lat="48.13963" lon="-3.60438">
        <ele>146.8</ele>
        <time>2021-08-11T11:57:00Z</time>
      </trkpt>
      <trkpt lat="48.13962" lon="-3.60438">
        <ele>146.8</ele>
        <time>2021-08-11T11:57:01Z</time>
      </trkpt>
      <trkpt lat="48.13961" lon="-3.60438">
        <ele>146.6</ele>
        <time>2021-08-11T11:57:02Z</time>
      </trkpt>
      <trkpt lat="48.1396" lon="-3.60438">
        <ele>146.6</ele>
        <time>2021-08-11T11:57:03Z</time>
      </trkpt>
      <trkpt lat="48.13958" lon="-3.60438">
        <ele>146.4</ele>
        <time>2021-08-11T11:57:04Z</time>
      </trkpt>
      <trkpt lat="48.13957" lon="-3.60438">
        <ele>146.4</ele>
        <time>2021-08-11T11:57:05Z</time>
      </trkpt>
      <trkpt lat="48.13955" lon="-3.60437">
        <ele>146.4</ele>
        <time>2021-08-11T11:57:06Z</time>
      </trkpt>
      <trkpt lat="48.13954" lon="-3.60438">
        <ele>146.4</ele>
        <time>2021-08-11T11:57:07Z</time>
      </trkpt>
      <trkpt lat="48.13952" lon="-3.60438">
        <ele>146.4</ele>
        <time>2021-08-11T11:57:08Z</time>
      </trkpt>
      <trkpt lat="48.13949" lon="-3.60438">
        <ele>146.4</ele>
        <time>2021-08-11T11:57:09Z</time>
      </trkpt>
      <trkpt lat="48.13947" lon="-3.60439">
        <ele>146.4</ele>
        <time>2021-08-11T11:57:10Z</time>
      </trkpt>
      <trkpt lat="48.13944" lon="-3.6044">
        <ele>146.4</ele>
        <time>2021-08-11T11:57:11Z</time>
      </trkpt>
      <trkpt lat="48.13942" lon="-3.60441">
        <ele>146.4</ele>
        <time>2021-08-11T11:57:12Z</time>
      </trkpt>
      <trkpt lat="48.13939" lon="-3.60441">
        <ele>146.4</ele>
        <time>2021-08-11T11:57:13Z</time>
      </trkpt>
      <trkpt lat="48.13936" lon="-3.60442">
        <ele>146.4</ele>
        <time>2021-08-11T11:57:14Z</time>
      </trkpt>
      <trkpt lat="48.13933" lon="-3.60442">
        <ele>146.4</ele>
        <time>2021-08-11T11:57:15Z</time>
      </trkpt>
      <trkpt lat="48.1393" lon="-3.60441">
        <ele>146.4</ele>
        <time>2021-08-11T11:57:16Z</time>
      </trkpt>
      <trkpt lat="48.13927" lon="-3.60441">
        <ele>146.4</ele>
        <time>2021-08-11T11:57:17Z</time>
      </trkpt>
      <trkpt lat="48.13924" lon="-3.60441">
        <ele>146.4</ele>
        <time>2021-08-11T11:57:18Z</time>
      </trkpt>
      <trkpt lat="48.13921" lon="-3.60441">
        <ele>146.4</ele>
        <time>2021-08-11T11:57:19Z</time>
      </trkpt>
      <trkpt lat="48.13918" lon="-3.60442">
        <ele>146.4</ele>
        <time>2021-08-11T11:57:20Z</time>
      </trkpt>
      <trkpt lat="48.13915" lon="-3.60442">
        <ele>146.4</ele>
        <time>2021-08-11T11:57:21Z</time>
      </trkpt>
      <trkpt lat="48.13912" lon="-3.60442">
        <ele>146.2</ele>
        <time>2021-08-11T11:57:22Z</time>
      </trkpt>
      <trkpt lat="48.13908" lon="-3.60442">
        <ele>146</ele>
        <time>2021-08-11T11:57:23Z</time>
      </trkpt>
      <trkpt lat="48.13905" lon="-3.60442">
        <ele>145.8</ele>
        <time>2021-08-11T11:57:24Z</time>
      </trkpt>
      <trkpt lat="48.13902" lon="-3.60443">
        <ele>145.6</ele>
        <time>2021-08-11T11:57:25Z</time>
      </trkpt>
      <trkpt lat="48.13898" lon="-3.60443">
        <ele>145.6</ele>
        <time>2021-08-11T11:57:26Z</time>
      </trkpt>
      <trkpt lat="48.13895" lon="-3.60442">
        <ele>145.4</ele>
        <time>2021-08-11T11:57:27Z</time>
      </trkpt>
      <trkpt lat="48.13891" lon="-3.60442">
        <ele>145.4</ele>
        <time>2021-08-11T11:57:28Z</time>
      </trkpt>
      <trkpt lat="48.13888" lon="-3.60442">
        <ele>145.4</ele>
        <time>2021-08-11T11:57:29Z</time>
      </trkpt>
      <trkpt lat="48.13884" lon="-3.60441">
        <ele>145.2</ele>
        <time>2021-08-11T11:57:30Z</time>
      </trkpt>
      <trkpt lat="48.1388" lon="-3.60442">
        <ele>145.2</ele>
        <time>2021-08-11T11:57:31Z</time>
      </trkpt>
      <trkpt lat="48.13877" lon="-3.60442">
        <ele>144.8</ele>
        <time>2021-08-11T11:57:32Z</time>
      </trkpt>
      <trkpt lat="48.13873" lon="-3.60443">
        <ele>144.4</ele>
        <time>2021-08-11T11:57:33Z</time>
      </trkpt>
      <trkpt lat="48.13869" lon="-3.60443">
        <ele>143.8</ele>
        <time>2021-08-11T11:57:34Z</time>
      </trkpt>
      <trkpt lat="48.13865" lon="-3.60444">
        <ele>143.8</ele>
        <time>2021-08-11T11:57:35Z</time>
      </trkpt>
      <trkpt lat="48.13861" lon="-3.60444">
        <ele>143.6</ele>
        <time>2021-08-11T11:57:36Z</time>
      </trkpt>
      <trkpt lat="48.13857" lon="-3.60444">
        <ele>143.6</ele>
        <time>2021-08-11T11:57:37Z</time>
      </trkpt>
      <trkpt lat="48.13854" lon="-3.60444">
        <ele>143.6</ele>
        <time>2021-08-11T11:57:38Z</time>
      </trkpt>
      <trkpt lat="48.13851" lon="-3.60446">
        <ele>143.4</ele>
        <time>2021-08-11T11:57:39Z</time>
      </trkpt>
      <trkpt lat="48.13848" lon="-3.60447">
        <ele>143.4</ele>
        <time>2021-08-11T11:57:40Z</time>
      </trkpt>
      <trkpt lat="48.13846" lon="-3.60448">
        <ele>143.2</ele>
        <time>2021-08-11T11:57:41Z</time>
      </trkpt>
      <trkpt lat="48.13844" lon="-3.60448">
        <ele>143.2</ele>
        <time>2021-08-11T11:57:42Z</time>
      </trkpt>
      <trkpt lat="48.13838" lon="-3.60447">
        <ele>143.2</ele>
        <time>2021-08-11T11:58:49Z</time>
      </trkpt>
      <trkpt lat="48.13834" lon="-3.60447">
        <ele>143.2</ele>
        <time>2021-08-11T11:58:50Z</time>
      </trkpt>
      <trkpt lat="48.13831" lon="-3.60447">
        <ele>143.2</ele>
        <time>2021-08-11T11:58:51Z</time>
      </trkpt>
      <trkpt lat="48.13827" lon="-3.60447">
        <ele>143.2</ele>
        <time>2021-08-11T11:58:52Z</time>
      </trkpt>
      <trkpt lat="48.13824" lon="-3.60447">
        <ele>143.2</ele>
        <time>2021-08-11T11:58:53Z</time>
      </trkpt>
      <trkpt lat="48.13819" lon="-3.60447">
        <ele>143.2</ele>
        <time>2021-08-11T11:58:54Z</time>
      </trkpt>
      <trkpt lat="48.13815" lon="-3.60447">
        <ele>143.2</ele>
        <time>2021-08-11T11:58:55Z</time>
      </trkpt>
      <trkpt lat="48.13811" lon="-3.60448">
        <ele>143.2</ele>
        <time>2021-08-11T11:58:56Z</time>
      </trkpt>
      <trkpt lat="48.13806" lon="-3.6045">
        <ele>143.2</ele>
        <time>2021-08-11T11:58:57Z</time>
      </trkpt>
      <trkpt lat="48.13802" lon="-3.60453">
        <ele>143</ele>
        <time>2021-08-11T11:58:58Z</time>
      </trkpt>
      <trkpt lat="48.13797" lon="-3.60455">
        <ele>142.6</ele>
        <time>2021-08-11T11:58:59Z</time>
      </trkpt>
      <trkpt lat="48.13792" lon="-3.60457">
        <ele>142.2</ele>
        <time>2021-08-11T11:59:00Z</time>
      </trkpt>
      <trkpt lat="48.13787" lon="-3.6046">
        <ele>141.6</ele>
        <time>2021-08-11T11:59:01Z</time>
      </trkpt>
      <trkpt lat="48.13782" lon="-3.60464">
        <ele>141</ele>
        <time>2021-08-11T11:59:02Z</time>
      </trkpt>
      <trkpt lat="48.13778" lon="-3.60469">
        <ele>140.6</ele>
        <time>2021-08-11T11:59:03Z</time>
      </trkpt>
      <trkpt lat="48.13773" lon="-3.60473">
        <ele>140.4</ele>
        <time>2021-08-11T11:59:04Z</time>
      </trkpt>
      <trkpt lat="48.13767" lon="-3.60476">
        <ele>140</ele>
        <time>2021-08-11T11:59:05Z</time>
      </trkpt>
      <trkpt lat="48.13762" lon="-3.6048">
        <ele>139.8</ele>
        <time>2021-08-11T11:59:06Z</time>
      </trkpt>
      <trkpt lat="48.13757" lon="-3.60484">
        <ele>139.6</ele>
        <time>2021-08-11T11:59:07Z</time>
      </trkpt>
      <trkpt lat="48.13751" lon="-3.60488">
        <ele>139.2</ele>
        <time>2021-08-11T11:59:08Z</time>
      </trkpt>
      <trkpt lat="48.13746" lon="-3.60493">
        <ele>139.2</ele>
        <time>2021-08-11T11:59:09Z</time>
      </trkpt>
      <trkpt lat="48.13741" lon="-3.60499">
        <ele>138.8</ele>
        <time>2021-08-11T11:59:10Z</time>
      </trkpt>
      <trkpt lat="48.13735" lon="-3.60502">
        <ele>138.4</ele>
        <time>2021-08-11T11:59:11Z</time>
      </trkpt>
      <trkpt lat="48.13729" lon="-3.60504">
        <ele>138</ele>
        <time>2021-08-11T11:59:12Z</time>
      </trkpt>
      <trkpt lat="48.13723" lon="-3.60506">
        <ele>137.8</ele>
        <time>2021-08-11T11:59:13Z</time>
      </trkpt>
      <trkpt lat="48.13718" lon="-3.6051">
        <ele>137.4</ele>
        <time>2021-08-11T11:59:14Z</time>
      </trkpt>
      <trkpt lat="48.13714" lon="-3.60516">
        <ele>137.2</ele>
        <time>2021-08-11T11:59:15Z</time>
      </trkpt>
      <trkpt lat="48.1371" lon="-3.60521">
        <ele>137.2</ele>
        <time>2021-08-11T11:59:16Z</time>
      </trkpt>
      <trkpt lat="48.13706" lon="-3.60526">
        <ele>137</ele>
        <time>2021-08-11T11:59:17Z</time>
      </trkpt>
      <trkpt lat="48.13703" lon="-3.6053">
        <ele>137</ele>
        <time>2021-08-11T11:59:18Z</time>
      </trkpt>
      <trkpt lat="48.137" lon="-3.60533">
        <ele>137</ele>
        <time>2021-08-11T11:59:19Z</time>
      </trkpt>
      <trkpt lat="48.13697" lon="-3.60537">
        <ele>137</ele>
        <time>2021-08-11T11:59:20Z</time>
      </trkpt>
      <trkpt lat="48.13694" lon="-3.6054">
        <ele>137</ele>
        <time>2021-08-11T11:59:21Z</time>
      </trkpt>
      <trkpt lat="48.13691" lon="-3.60543">
        <ele>137</ele>
        <time>2021-08-11T11:59:22Z</time>
      </trkpt>
      <trkpt lat="48.13688" lon="-3.60545">
        <ele>137.2</ele>
        <time>2021-08-11T11:59:23Z</time>
      </trkpt>
      <trkpt lat="48.13686" lon="-3.60547">
        <ele>137.2</ele>
        <time>2021-08-11T11:59:24Z</time>
      </trkpt>
      <trkpt lat="48.13683" lon="-3.6055">
        <ele>137.2</ele>
        <time>2021-08-11T11:59:25Z</time>
      </trkpt>
      <trkpt lat="48.13681" lon="-3.60552">
        <ele>137.4</ele>
        <time>2021-08-11T11:59:26Z</time>
      </trkpt>
      <trkpt lat="48.13678" lon="-3.60555">
        <ele>137.4</ele>
        <time>2021-08-11T11:59:27Z</time>
      </trkpt>
      <trkpt lat="48.13676" lon="-3.60558">
        <ele>137.4</ele>
        <time>2021-08-11T11:59:28Z</time>
      </trkpt>
      <trkpt lat="48.13673" lon="-3.6056">
        <ele>137.4</ele>
        <time>2021-08-11T11:59:29Z</time>
      </trkpt>
      <trkpt lat="48.1367" lon="-3.60564">
        <ele>137.6</ele>
        <time>2021-08-11T11:59:30Z</time>
      </trkpt>
      <trkpt lat="48.13667" lon="-3.60567">
        <ele>137.8</ele>
        <time>2021-08-11T11:59:31Z</time>
      </trkpt>
      <trkpt lat="48.13664" lon="-3.60571">
        <ele>137.8</ele>
        <time>2021-08-11T11:59:32Z</time>
      </trkpt>
      <trkpt lat="48.1366" lon="-3.60575">
        <ele>137.8</ele>
        <time>2021-08-11T11:59:33Z</time>
      </trkpt>
      <trkpt lat="48.13657" lon="-3.60579">
        <ele>138</ele>
        <time>2021-08-11T11:59:34Z</time>
      </trkpt>
      <trkpt lat="48.13653" lon="-3.60582">
        <ele>138</ele>
        <time>2021-08-11T11:59:35Z</time>
      </trkpt>
      <trkpt lat="48.1365" lon="-3.60585">
        <ele>138</ele>
        <time>2021-08-11T11:59:36Z</time>
      </trkpt>
      <trkpt lat="48.13646" lon="-3.60589">
        <ele>138</ele>
        <time>2021-08-11T11:59:37Z</time>
      </trkpt>
      <trkpt lat="48.13643" lon="-3.60592">
        <ele>138</ele>
        <time>2021-08-11T11:59:38Z</time>
      </trkpt>
      <trkpt lat="48.1364" lon="-3.60595">
        <ele>138</ele>
        <time>2021-08-11T11:59:39Z</time>
      </trkpt>
      <trkpt lat="48.13637" lon="-3.60597">
        <ele>138</ele>
        <time>2021-08-11T11:59:40Z</time>
      </trkpt>
      <trkpt lat="48.13634" lon="-3.606">
        <ele>138</ele>
        <time>2021-08-11T11:59:41Z</time>
      </trkpt>
      <trkpt lat="48.13631" lon="-3.60602">
        <ele>138</ele>
        <time>2021-08-11T11:59:42Z</time>
      </trkpt>
      <trkpt lat="48.13628" lon="-3.60605">
        <ele>138</ele>
        <time>2021-08-11T11:59:43Z</time>
      </trkpt>
      <trkpt lat="48.13624" lon="-3.60608">
        <ele>138</ele>
        <time>2021-08-11T11:59:44Z</time>
      </trkpt>
      <trkpt lat="48.1362" lon="-3.60612">
        <ele>138</ele>
        <time>2021-08-11T11:59:45Z</time>
      </trkpt>
      <trkpt lat="48.13616" lon="-3.60616">
        <ele>138</ele>
        <time>2021-08-11T11:59:46Z</time>
      </trkpt>
      <trkpt lat="48.13613" lon="-3.60619">
        <ele>138</ele>
        <time>2021-08-11T11:59:47Z</time>
      </trkpt>
      <trkpt lat="48.13609" lon="-3.60622">
        <ele>137.8</ele>
        <time>2021-08-11T11:59:48Z</time>
      </trkpt>
      <trkpt lat="48.13606" lon="-3.60624">
        <ele>137.8</ele>
        <time>2021-08-11T11:59:49Z</time>
      </trkpt>
      <trkpt lat="48.13603" lon="-3.60626">
        <ele>137.8</ele>
        <time>2021-08-11T11:59:50Z</time>
      </trkpt>
      <trkpt lat="48.136" lon="-3.60628">
        <ele>137.8</ele>
        <time>2021-08-11T11:59:51Z</time>
      </trkpt>
      <trkpt lat="48.13598" lon="-3.60631">
        <ele>137.8</ele>
        <time>2021-08-11T11:59:52Z</time>
      </trkpt>
      <trkpt lat="48.13596" lon="-3.60632">
        <ele>137.8</ele>
        <time>2021-08-11T11:59:53Z</time>
      </trkpt>
      <trkpt lat="48.13595" lon="-3.60634">
        <ele>137.8</ele>
        <time>2021-08-11T11:59:54Z</time>
      </trkpt>
      <trkpt lat="48.13593" lon="-3.60636">
        <ele>137.8</ele>
        <time>2021-08-11T11:59:58Z</time>
      </trkpt>
      <trkpt lat="48.13592" lon="-3.60637">
        <ele>137.8</ele>
        <time>2021-08-11T11:59:59Z</time>
      </trkpt>
      <trkpt lat="48.1359" lon="-3.60638">
        <ele>138.2</ele>
        <time>2021-08-11T12:00:02Z</time>
      </trkpt>
      <trkpt lat="48.1359" lon="-3.60638">
        <ele>138.4</ele>
        <time>2021-08-11T12:00:03Z</time>
      </trkpt>
      <trkpt lat="48.1359" lon="-3.60638">
        <ele>138.4</ele>
        <time>2021-08-11T12:00:04Z</time>
      </trkpt>
      <trkpt lat="48.13587" lon="-3.60639">
        <ele>137.8</ele>
        <time>2021-08-11T12:01:51Z</time>
      </trkpt>
      <trkpt lat="48.13585" lon="-3.60639">
        <ele>137.8</ele>
        <time>2021-08-11T12:01:52Z</time>
      </trkpt>
      <trkpt lat="48.13584" lon="-3.6064">
        <ele>137.8</ele>
        <time>2021-08-11T12:01:53Z</time>
      </trkpt>
      <trkpt lat="48.13584" lon="-3.60642">
        <ele>137.8</ele>
        <time>2021-08-11T12:01:54Z</time>
      </trkpt>
      <trkpt lat="48.13581" lon="-3.60644">
        <ele>137.8</ele>
        <time>2021-08-11T12:01:55Z</time>
      </trkpt>
      <trkpt lat="48.13579" lon="-3.60647">
        <ele>137.8</ele>
        <time>2021-08-11T12:01:56Z</time>
      </trkpt>
      <trkpt lat="48.13576" lon="-3.60649">
        <ele>137.8</ele>
        <time>2021-08-11T12:01:57Z</time>
      </trkpt>
      <trkpt lat="48.13573" lon="-3.60651">
        <ele>137.8</ele>
        <time>2021-08-11T12:01:58Z</time>
      </trkpt>
      <trkpt lat="48.13569" lon="-3.60653">
        <ele>137.8</ele>
        <time>2021-08-11T12:01:59Z</time>
      </trkpt>
      <trkpt lat="48.13566" lon="-3.60656">
        <ele>137.8</ele>
        <time>2021-08-11T12:02:00Z</time>
      </trkpt>
      <trkpt lat="48.13562" lon="-3.60659">
        <ele>137.8</ele>
        <time>2021-08-11T12:02:01Z</time>
      </trkpt>
      <trkpt lat="48.13558" lon="-3.60661">
        <ele>137.8</ele>
        <time>2021-08-11T12:02:02Z</time>
      </trkpt>
      <trkpt lat="48.13554" lon="-3.60664">
        <ele>137.6</ele>
        <time>2021-08-11T12:02:03Z</time>
      </trkpt>
      <trkpt lat="48.1355" lon="-3.60667">
        <ele>137.6</ele>
        <time>2021-08-11T12:02:04Z</time>
      </trkpt>
      <trkpt lat="48.13545" lon="-3.6067">
        <ele>137.6</ele>
        <time>2021-08-11T12:02:05Z</time>
      </trkpt>
      <trkpt lat="48.13541" lon="-3.60673">
        <ele>137.4</ele>
        <time>2021-08-11T12:02:06Z</time>
      </trkpt>
      <trkpt lat="48.13535" lon="-3.60676">
        <ele>137.2</ele>
        <time>2021-08-11T12:02:07Z</time>
      </trkpt>
      <trkpt lat="48.1353" lon="-3.6068">
        <ele>137.2</ele>
        <time>2021-08-11T12:02:08Z</time>
      </trkpt>
      <trkpt lat="48.13526" lon="-3.60683">
        <ele>137</ele>
        <time>2021-08-11T12:02:09Z</time>
      </trkpt>
      <trkpt lat="48.13521" lon="-3.60686">
        <ele>136.8</ele>
        <time>2021-08-11T12:02:10Z</time>
      </trkpt>
      <trkpt lat="48.13517" lon="-3.6069">
        <ele>136.6</ele>
        <time>2021-08-11T12:02:11Z</time>
      </trkpt>
      <trkpt lat="48.13512" lon="-3.60693">
        <ele>136.6</ele>
        <time>2021-08-11T12:02:12Z</time>
      </trkpt>
      <trkpt lat="48.13507" lon="-3.60697">
        <ele>136.4</ele>
        <time>2021-08-11T12:02:13Z</time>
      </trkpt>
      <trkpt lat="48.13502" lon="-3.60701">
        <ele>136</ele>
        <time>2021-08-11T12:02:14Z</time>
      </trkpt>
      <trkpt lat="48.13497" lon="-3.60705">
        <ele>136</ele>
        <time>2021-08-11T12:02:15Z</time>
      </trkpt>
      <trkpt lat="48.13492" lon="-3.60709">
        <ele>135.8</ele>
        <time>2021-08-11T12:02:16Z</time>
      </trkpt>
      <trkpt lat="48.13487" lon="-3.60713">
        <ele>135.8</ele>
        <time>2021-08-11T12:02:17Z</time>
      </trkpt>
      <trkpt lat="48.13482" lon="-3.60718">
        <ele>135.8</ele>
        <time>2021-08-11T12:02:18Z</time>
      </trkpt>
      <trkpt lat="48.13477" lon="-3.60724">
        <ele>135.6</ele>
        <time>2021-08-11T12:02:19Z</time>
      </trkpt>
      <trkpt lat="48.13472" lon="-3.60729">
        <ele>135.4</ele>
        <time>2021-08-11T12:02:20Z</time>
      </trkpt>
      <trkpt lat="48.13467" lon="-3.60734">
        <ele>135.4</ele>
        <time>2021-08-11T12:02:21Z</time>
      </trkpt>
      <trkpt lat="48.13462" lon="-3.6074">
        <ele>135.2</ele>
        <time>2021-08-11T12:02:22Z</time>
      </trkpt>
      <trkpt lat="48.13458" lon="-3.60746">
        <ele>135.2</ele>
        <time>2021-08-11T12:02:23Z</time>
      </trkpt>
      <trkpt lat="48.13453" lon="-3.60752">
        <ele>135.2</ele>
        <time>2021-08-11T12:02:24Z</time>
      </trkpt>
      <trkpt lat="48.13449" lon="-3.60759">
        <ele>135.2</ele>
        <time>2021-08-11T12:02:25Z</time>
      </trkpt>
      <trkpt lat="48.13445" lon="-3.60765">
        <ele>135</ele>
        <time>2021-08-11T12:02:26Z</time>
      </trkpt>
      <trkpt lat="48.13441" lon="-3.60772">
        <ele>135</ele>
        <time>2021-08-11T12:02:27Z</time>
      </trkpt>
      <trkpt lat="48.13437" lon="-3.60779">
        <ele>135</ele>
        <time>2021-08-11T12:02:28Z</time>
      </trkpt>
      <trkpt lat="48.13432" lon="-3.60786">
        <ele>135</ele>
        <time>2021-08-11T12:02:29Z</time>
      </trkpt>
      <trkpt lat="48.13428" lon="-3.60793">
        <ele>135</ele>
        <time>2021-08-11T12:02:30Z</time>
      </trkpt>
      <trkpt lat="48.13424" lon="-3.608">
        <ele>134.8</ele>
        <time>2021-08-11T12:02:31Z</time>
      </trkpt>
      <trkpt lat="48.1342" lon="-3.60808">
        <ele>134.6</ele>
        <time>2021-08-11T12:02:32Z</time>
      </trkpt>
      <trkpt lat="48.13416" lon="-3.60815">
        <ele>134.2</ele>
        <time>2021-08-11T12:02:33Z</time>
      </trkpt>
      <trkpt lat="48.13412" lon="-3.60822">
        <ele>134</ele>
        <time>2021-08-11T12:02:34Z</time>
      </trkpt>
      <trkpt lat="48.13408" lon="-3.60829">
        <ele>134</ele>
        <time>2021-08-11T12:02:35Z</time>
      </trkpt>
      <trkpt lat="48.13404" lon="-3.60836">
        <ele>134</ele>
        <time>2021-08-11T12:02:36Z</time>
      </trkpt>
      <trkpt lat="48.134" lon="-3.60843">
        <ele>133.8</ele>
        <time>2021-08-11T12:02:37Z</time>
      </trkpt>
      <trkpt lat="48.13397" lon="-3.6085">
        <ele>133.8</ele>
        <time>2021-08-11T12:02:38Z</time>
      </trkpt>
      <trkpt lat="48.13393" lon="-3.60856">
        <ele>133.6</ele>
        <time>2021-08-11T12:02:39Z</time>
      </trkpt>
      <trkpt lat="48.1339" lon="-3.60862">
        <ele>133.4</ele>
        <time>2021-08-11T12:02:40Z</time>
      </trkpt>
      <trkpt lat="48.13387" lon="-3.60866">
        <ele>133.4</ele>
        <time>2021-08-11T12:02:41Z</time>
      </trkpt>
      <trkpt lat="48.13385" lon="-3.6087">
        <ele>133.4</ele>
        <time>2021-08-11T12:02:42Z</time>
      </trkpt>
      <trkpt lat="48.13382" lon="-3.60873">
        <ele>133.4</ele>
        <time>2021-08-11T12:02:43Z</time>
      </trkpt>
      <trkpt lat="48.1338" lon="-3.60877">
        <ele>133.6</ele>
        <time>2021-08-11T12:02:44Z</time>
      </trkpt>
      <trkpt lat="48.13378" lon="-3.60882">
        <ele>133.6</ele>
        <time>2021-08-11T12:02:45Z</time>
      </trkpt>
      <trkpt lat="48.13376" lon="-3.60887">
        <ele>133.8</ele>
        <time>2021-08-11T12:02:46Z</time>
      </trkpt>
      <trkpt lat="48.13374" lon="-3.60893">
        <ele>133.8</ele>
        <time>2021-08-11T12:02:47Z</time>
      </trkpt>
      <trkpt lat="48.13371" lon="-3.60897">
        <ele>134</ele>
        <time>2021-08-11T12:02:48Z</time>
      </trkpt>
      <trkpt lat="48.13368" lon="-3.60903">
        <ele>134</ele>
        <time>2021-08-11T12:02:49Z</time>
      </trkpt>
      <trkpt lat="48.13365" lon="-3.60908">
        <ele>134</ele>
        <time>2021-08-11T12:02:50Z</time>
      </trkpt>
      <trkpt lat="48.13363" lon="-3.60913">
        <ele>134</ele>
        <time>2021-08-11T12:02:51Z</time>
      </trkpt>
      <trkpt lat="48.13361" lon="-3.60917">
        <ele>134</ele>
        <time>2021-08-11T12:02:52Z</time>
      </trkpt>
      <trkpt lat="48.13358" lon="-3.6092">
        <ele>134</ele>
        <time>2021-08-11T12:02:53Z</time>
      </trkpt>
      <trkpt lat="48.13356" lon="-3.60923">
        <ele>134.2</ele>
        <time>2021-08-11T12:02:54Z</time>
      </trkpt>
      <trkpt lat="48.13355" lon="-3.60925">
        <ele>134.2</ele>
        <time>2021-08-11T12:02:55Z</time>
      </trkpt>
      <trkpt lat="48.13354" lon="-3.60926">
        <ele>134.2</ele>
        <time>2021-08-11T12:02:56Z</time>
      </trkpt>
      <trkpt lat="48.13353" lon="-3.60927">
        <ele>134.4</ele>
        <time>2021-08-11T12:02:57Z</time>
      </trkpt>
      <trkpt lat="48.13352" lon="-3.6093">
        <ele>134.4</ele>
        <time>2021-08-11T12:02:58Z</time>
      </trkpt>
      <trkpt lat="48.13351" lon="-3.60933">
        <ele>134.4</ele>
        <time>2021-08-11T12:02:59Z</time>
      </trkpt>
      <trkpt lat="48.13349" lon="-3.60936">
        <ele>134.4</ele>
        <time>2021-08-11T12:03:00Z</time>
      </trkpt>
      <trkpt lat="48.13347" lon="-3.60939">
        <ele>134.4</ele>
        <time>2021-08-11T12:03:01Z</time>
      </trkpt>
      <trkpt lat="48.13345" lon="-3.60943">
        <ele>134.4</ele>
        <time>2021-08-11T12:03:02Z</time>
      </trkpt>
      <trkpt lat="48.13342" lon="-3.60947">
        <ele>134.4</ele>
        <time>2021-08-11T12:03:03Z</time>
      </trkpt>
      <trkpt lat="48.13339" lon="-3.60952">
        <ele>134.2</ele>
        <time>2021-08-11T12:03:04Z</time>
      </trkpt>
      <trkpt lat="48.13336" lon="-3.60956">
        <ele>134.2</ele>
        <time>2021-08-11T12:03:05Z</time>
      </trkpt>
      <trkpt lat="48.13333" lon="-3.60961">
        <ele>134.2</ele>
        <time>2021-08-11T12:03:06Z</time>
      </trkpt>
      <trkpt lat="48.1333" lon="-3.60966">
        <ele>134.2</ele>
        <time>2021-08-11T12:03:07Z</time>
      </trkpt>
      <trkpt lat="48.13326" lon="-3.60972">
        <ele>134.2</ele>
        <time>2021-08-11T12:03:08Z</time>
      </trkpt>
      <trkpt lat="48.13322" lon="-3.60977">
        <ele>134.2</ele>
        <time>2021-08-11T12:03:09Z</time>
      </trkpt>
      <trkpt lat="48.13318" lon="-3.60981">
        <ele>134.2</ele>
        <time>2021-08-11T12:03:10Z</time>
      </trkpt>
      <trkpt lat="48.13315" lon="-3.60986">
        <ele>134</ele>
        <time>2021-08-11T12:03:11Z</time>
      </trkpt>
      <trkpt lat="48.13311" lon="-3.60991">
        <ele>134</ele>
        <time>2021-08-11T12:03:12Z</time>
      </trkpt>
      <trkpt lat="48.13307" lon="-3.60996">
        <ele>134</ele>
        <time>2021-08-11T12:03:13Z</time>
      </trkpt>
      <trkpt lat="48.13302" lon="-3.61001">
        <ele>133.8</ele>
        <time>2021-08-11T12:03:14Z</time>
      </trkpt>
      <trkpt lat="48.13298" lon="-3.61006">
        <ele>133.8</ele>
        <time>2021-08-11T12:03:15Z</time>
      </trkpt>
      <trkpt lat="48.13293" lon="-3.61011">
        <ele>133.6</ele>
        <time>2021-08-11T12:03:16Z</time>
      </trkpt>
      <trkpt lat="48.13288" lon="-3.61016">
        <ele>133.4</ele>
        <time>2021-08-11T12:03:17Z</time>
      </trkpt>
      <trkpt lat="48.13283" lon="-3.61021">
        <ele>133.4</ele>
        <time>2021-08-11T12:03:18Z</time>
      </trkpt>
      <trkpt lat="48.13278" lon="-3.61026">
        <ele>133.4</ele>
        <time>2021-08-11T12:03:19Z</time>
      </trkpt>
      <trkpt lat="48.13273" lon="-3.61031">
        <ele>133.2</ele>
        <time>2021-08-11T12:03:20Z</time>
      </trkpt>
      <trkpt lat="48.13268" lon="-3.61035">
        <ele>133.2</ele>
        <time>2021-08-11T12:03:21Z</time>
      </trkpt>
      <trkpt lat="48.13262" lon="-3.6104">
        <ele>133</ele>
        <time>2021-08-11T12:03:22Z</time>
      </trkpt>
      <trkpt lat="48.13257" lon="-3.61044">
        <ele>132.8</ele>
        <time>2021-08-11T12:03:23Z</time>
      </trkpt>
      <trkpt lat="48.13251" lon="-3.61049">
        <ele>132.6</ele>
        <time>2021-08-11T12:03:24Z</time>
      </trkpt>
      <trkpt lat="48.13245" lon="-3.61054">
        <ele>132.6</ele>
        <time>2021-08-11T12:03:25Z</time>
      </trkpt>
      <trkpt lat="48.1324" lon="-3.61058">
        <ele>132.6</ele>
        <time>2021-08-11T12:03:26Z</time>
      </trkpt>
      <trkpt lat="48.13234" lon="-3.61062">
        <ele>132.4</ele>
        <time>2021-08-11T12:03:27Z</time>
      </trkpt>
      <trkpt lat="48.13228" lon="-3.61066">
        <ele>132.4</ele>
        <time>2021-08-11T12:03:28Z</time>
      </trkpt>
      <trkpt lat="48.13222" lon="-3.61069">
        <ele>132.4</ele>
        <time>2021-08-11T12:03:29Z</time>
      </trkpt>
      <trkpt lat="48.13216" lon="-3.61072">
        <ele>132.4</ele>
        <time>2021-08-11T12:03:30Z</time>
      </trkpt>
      <trkpt lat="48.1321" lon="-3.61075">
        <ele>132.4</ele>
        <time>2021-08-11T12:03:31Z</time>
      </trkpt>
      <trkpt lat="48.13204" lon="-3.61077">
        <ele>132.4</ele>
        <time>2021-08-11T12:03:32Z</time>
      </trkpt>
      <trkpt lat="48.13199" lon="-3.6108">
        <ele>132.2</ele>
        <time>2021-08-11T12:03:33Z</time>
      </trkpt>
      <trkpt lat="48.13194" lon="-3.61082">
        <ele>132.2</ele>
        <time>2021-08-11T12:03:34Z</time>
      </trkpt>
      <trkpt lat="48.13189" lon="-3.61085">
        <ele>132.2</ele>
        <time>2021-08-11T12:03:35Z</time>
      </trkpt>
      <trkpt lat="48.13184" lon="-3.61087">
        <ele>132.2</ele>
        <time>2021-08-11T12:03:36Z</time>
      </trkpt>
      <trkpt lat="48.13179" lon="-3.6109">
        <ele>132</ele>
        <time>2021-08-11T12:03:37Z</time>
      </trkpt>
      <trkpt lat="48.13174" lon="-3.61092">
        <ele>132</ele>
        <time>2021-08-11T12:03:38Z</time>
      </trkpt>
      <trkpt lat="48.13169" lon="-3.61094">
        <ele>132</ele>
        <time>2021-08-11T12:03:39Z</time>
      </trkpt>
      <trkpt lat="48.13164" lon="-3.61097">
        <ele>132</ele>
        <time>2021-08-11T12:03:40Z</time>
      </trkpt>
      <trkpt lat="48.13159" lon="-3.611">
        <ele>131.8</ele>
        <time>2021-08-11T12:03:41Z</time>
      </trkpt>
      <trkpt lat="48.13154" lon="-3.61102">
        <ele>131.6</ele>
        <time>2021-08-11T12:03:42Z</time>
      </trkpt>
      <trkpt lat="48.1315" lon="-3.61104">
        <ele>131.6</ele>
        <time>2021-08-11T12:03:43Z</time>
      </trkpt>
      <trkpt lat="48.13145" lon="-3.61107">
        <ele>131.6</ele>
        <time>2021-08-11T12:03:44Z</time>
      </trkpt>
      <trkpt lat="48.13141" lon="-3.61109">
        <ele>131.4</ele>
        <time>2021-08-11T12:03:45Z</time>
      </trkpt>
      <trkpt lat="48.13137" lon="-3.61111">
        <ele>131.4</ele>
        <time>2021-08-11T12:03:46Z</time>
      </trkpt>
      <trkpt lat="48.13132" lon="-3.61113">
        <ele>131.4</ele>
        <time>2021-08-11T12:03:47Z</time>
      </trkpt>
      <trkpt lat="48.13128" lon="-3.61116">
        <ele>131.2</ele>
        <time>2021-08-11T12:03:48Z</time>
      </trkpt>
      <trkpt lat="48.13124" lon="-3.61119">
        <ele>131.2</ele>
        <time>2021-08-11T12:03:49Z</time>
      </trkpt>
      <trkpt lat="48.13119" lon="-3.61121">
        <ele>131.2</ele>
        <time>2021-08-11T12:03:50Z</time>
      </trkpt>
      <trkpt lat="48.13115" lon="-3.61124">
        <ele>131.2</ele>
        <time>2021-08-11T12:03:51Z</time>
      </trkpt>
      <trkpt lat="48.13111" lon="-3.61126">
        <ele>131</ele>
        <time>2021-08-11T12:03:52Z</time>
      </trkpt>
      <trkpt lat="48.13107" lon="-3.61128">
        <ele>131</ele>
        <time>2021-08-11T12:03:53Z</time>
      </trkpt>
      <trkpt lat="48.13103" lon="-3.6113">
        <ele>131</ele>
        <time>2021-08-11T12:03:54Z</time>
      </trkpt>
      <trkpt lat="48.13098" lon="-3.61132">
        <ele>131</ele>
        <time>2021-08-11T12:03:55Z</time>
      </trkpt>
      <trkpt lat="48.13093" lon="-3.61134">
        <ele>130.8</ele>
        <time>2021-08-11T12:03:56Z</time>
      </trkpt>
      <trkpt lat="48.13089" lon="-3.61136">
        <ele>130.8</ele>
        <time>2021-08-11T12:03:57Z</time>
      </trkpt>
      <trkpt lat="48.13085" lon="-3.61139">
        <ele>130.8</ele>
        <time>2021-08-11T12:03:58Z</time>
      </trkpt>
      <trkpt lat="48.13081" lon="-3.61142">
        <ele>130.8</ele>
        <time>2021-08-11T12:03:59Z</time>
      </trkpt>
      <trkpt lat="48.13077" lon="-3.61145">
        <ele>130.8</ele>
        <time>2021-08-11T12:04:00Z</time>
      </trkpt>
      <trkpt lat="48.13073" lon="-3.61148">
        <ele>130.6</ele>
        <time>2021-08-11T12:04:01Z</time>
      </trkpt>
      <trkpt lat="48.13069" lon="-3.61152">
        <ele>130.6</ele>
        <time>2021-08-11T12:04:02Z</time>
      </trkpt>
      <trkpt lat="48.13065" lon="-3.61156">
        <ele>130.6</ele>
        <time>2021-08-11T12:04:03Z</time>
      </trkpt>
      <trkpt lat="48.1306" lon="-3.6116">
        <ele>130.6</ele>
        <time>2021-08-11T12:04:04Z</time>
      </trkpt>
      <trkpt lat="48.13056" lon="-3.61164">
        <ele>130.4</ele>
        <time>2021-08-11T12:04:05Z</time>
      </trkpt>
      <trkpt lat="48.13052" lon="-3.61168">
        <ele>130.4</ele>
        <time>2021-08-11T12:04:06Z</time>
      </trkpt>
      <trkpt lat="48.13048" lon="-3.61172">
        <ele>130.2</ele>
        <time>2021-08-11T12:04:07Z</time>
      </trkpt>
      <trkpt lat="48.13044" lon="-3.61176">
        <ele>130.2</ele>
        <time>2021-08-11T12:04:08Z</time>
      </trkpt>
      <trkpt lat="48.1304" lon="-3.6118">
        <ele>130</ele>
        <time>2021-08-11T12:04:09Z</time>
      </trkpt>
      <trkpt lat="48.13036" lon="-3.61184">
        <ele>129.8</ele>
        <time>2021-08-11T12:04:10Z</time>
      </trkpt>
      <trkpt lat="48.13032" lon="-3.61188">
        <ele>129.6</ele>
        <time>2021-08-11T12:04:11Z</time>
      </trkpt>
      <trkpt lat="48.13029" lon="-3.61192">
        <ele>129.6</ele>
        <time>2021-08-11T12:04:12Z</time>
      </trkpt>
      <trkpt lat="48.13025" lon="-3.61196">
        <ele>129.4</ele>
        <time>2021-08-11T12:04:13Z</time>
      </trkpt>
      <trkpt lat="48.13021" lon="-3.61199">
        <ele>129.4</ele>
        <time>2021-08-11T12:04:14Z</time>
      </trkpt>
      <trkpt lat="48.13017" lon="-3.61203">
        <ele>129.4</ele>
        <time>2021-08-11T12:04:15Z</time>
      </trkpt>
      <trkpt lat="48.13014" lon="-3.61208">
        <ele>129.4</ele>
        <time>2021-08-11T12:04:16Z</time>
      </trkpt>
      <trkpt lat="48.1301" lon="-3.61213">
        <ele>129.4</ele>
        <time>2021-08-11T12:04:17Z</time>
      </trkpt>
      <trkpt lat="48.13006" lon="-3.61217">
        <ele>129.4</ele>
        <time>2021-08-11T12:04:18Z</time>
      </trkpt>
      <trkpt lat="48.13002" lon="-3.61222">
        <ele>129.4</ele>
        <time>2021-08-11T12:04:19Z</time>
      </trkpt>
      <trkpt lat="48.12999" lon="-3.61227">
        <ele>129.4</ele>
        <time>2021-08-11T12:04:20Z</time>
      </trkpt>
      <trkpt lat="48.12996" lon="-3.61232">
        <ele>129.4</ele>
        <time>2021-08-11T12:04:21Z</time>
      </trkpt>
      <trkpt lat="48.12993" lon="-3.61238">
        <ele>129.4</ele>
        <time>2021-08-11T12:04:22Z</time>
      </trkpt>
      <trkpt lat="48.1299" lon="-3.61243">
        <ele>129.4</ele>
        <time>2021-08-11T12:04:23Z</time>
      </trkpt>
      <trkpt lat="48.12987" lon="-3.61249">
        <ele>129.4</ele>
        <time>2021-08-11T12:04:24Z</time>
      </trkpt>
      <trkpt lat="48.12984" lon="-3.61254">
        <ele>129.4</ele>
        <time>2021-08-11T12:04:25Z</time>
      </trkpt>
      <trkpt lat="48.12981" lon="-3.6126">
        <ele>129.2</ele>
        <time>2021-08-11T12:04:26Z</time>
      </trkpt>
      <trkpt lat="48.12978" lon="-3.61266">
        <ele>129.2</ele>
        <time>2021-08-11T12:04:27Z</time>
      </trkpt>
      <trkpt lat="48.12975" lon="-3.61271">
        <ele>129</ele>
        <time>2021-08-11T12:04:28Z</time>
      </trkpt>
      <trkpt lat="48.12972" lon="-3.61276">
        <ele>128.8</ele>
        <time>2021-08-11T12:04:29Z</time>
      </trkpt>
      <trkpt lat="48.12969" lon="-3.61282">
        <ele>128.6</ele>
        <time>2021-08-11T12:04:30Z</time>
      </trkpt>
      <trkpt lat="48.12966" lon="-3.61288">
        <ele>128.4</ele>
        <time>2021-08-11T12:04:31Z</time>
      </trkpt>
      <trkpt lat="48.12964" lon="-3.61294">
        <ele>128.4</ele>
        <time>2021-08-11T12:04:32Z</time>
      </trkpt>
      <trkpt lat="48.12961" lon="-3.613">
        <ele>128.4</ele>
        <time>2021-08-11T12:04:33Z</time>
      </trkpt>
      <trkpt lat="48.12959" lon="-3.61306">
        <ele>128.2</ele>
        <time>2021-08-11T12:04:34Z</time>
      </trkpt>
      <trkpt lat="48.12956" lon="-3.61313">
        <ele>128.2</ele>
        <time>2021-08-11T12:04:35Z</time>
      </trkpt>
      <trkpt lat="48.12954" lon="-3.61319">
        <ele>128.2</ele>
        <time>2021-08-11T12:04:36Z</time>
      </trkpt>
      <trkpt lat="48.12952" lon="-3.61327">
        <ele>128</ele>
        <time>2021-08-11T12:04:37Z</time>
      </trkpt>
      <trkpt lat="48.12949" lon="-3.61334">
        <ele>128</ele>
        <time>2021-08-11T12:04:38Z</time>
      </trkpt>
      <trkpt lat="48.12947" lon="-3.61341">
        <ele>127.8</ele>
        <time>2021-08-11T12:04:39Z</time>
      </trkpt>
      <trkpt lat="48.12945" lon="-3.61347">
        <ele>127.8</ele>
        <time>2021-08-11T12:04:40Z</time>
      </trkpt>
      <trkpt lat="48.12942" lon="-3.61354">
        <ele>127.8</ele>
        <time>2021-08-11T12:04:41Z</time>
      </trkpt>
      <trkpt lat="48.1294" lon="-3.6136">
        <ele>127.8</ele>
        <time>2021-08-11T12:04:42Z</time>
      </trkpt>
      <trkpt lat="48.12937" lon="-3.61368">
        <ele>127.8</ele>
        <time>2021-08-11T12:04:43Z</time>
      </trkpt>
      <trkpt lat="48.12935" lon="-3.61375">
        <ele>127.8</ele>
        <time>2021-08-11T12:04:44Z</time>
      </trkpt>
      <trkpt lat="48.12933" lon="-3.61381">
        <ele>127.8</ele>
        <time>2021-08-11T12:04:45Z</time>
      </trkpt>
      <trkpt lat="48.12931" lon="-3.61388">
        <ele>127.6</ele>
        <time>2021-08-11T12:04:46Z</time>
      </trkpt>
      <trkpt lat="48.12929" lon="-3.61395">
        <ele>127.6</ele>
        <time>2021-08-11T12:04:47Z</time>
      </trkpt>
      <trkpt lat="48.12927" lon="-3.61402">
        <ele>127.6</ele>
        <time>2021-08-11T12:04:48Z</time>
      </trkpt>
      <trkpt lat="48.12925" lon="-3.61408">
        <ele>127.6</ele>
        <time>2021-08-11T12:04:49Z</time>
      </trkpt>
      <trkpt lat="48.12923" lon="-3.61414">
        <ele>127.4</ele>
        <time>2021-08-11T12:04:50Z</time>
      </trkpt>
      <trkpt lat="48.12921" lon="-3.61421">
        <ele>127.4</ele>
        <time>2021-08-11T12:04:51Z</time>
      </trkpt>
      <trkpt lat="48.12919" lon="-3.61427">
        <ele>127.4</ele>
        <time>2021-08-11T12:04:52Z</time>
      </trkpt>
      <trkpt lat="48.12917" lon="-3.61433">
        <ele>127.4</ele>
        <time>2021-08-11T12:04:53Z</time>
      </trkpt>
      <trkpt lat="48.12915" lon="-3.61439">
        <ele>127.4</ele>
        <time>2021-08-11T12:04:54Z</time>
      </trkpt>
      <trkpt lat="48.12912" lon="-3.61446">
        <ele>127.2</ele>
        <time>2021-08-11T12:04:55Z</time>
      </trkpt>
      <trkpt lat="48.1291" lon="-3.61453">
        <ele>127.2</ele>
        <time>2021-08-11T12:04:56Z</time>
      </trkpt>
      <trkpt lat="48.12907" lon="-3.6146">
        <ele>127.2</ele>
        <time>2021-08-11T12:04:57Z</time>
      </trkpt>
      <trkpt lat="48.12905" lon="-3.61467">
        <ele>127.2</ele>
        <time>2021-08-11T12:04:58Z</time>
      </trkpt>
      <trkpt lat="48.12903" lon="-3.61473">
        <ele>127.2</ele>
        <time>2021-08-11T12:04:59Z</time>
      </trkpt>
      <trkpt lat="48.12902" lon="-3.6148">
        <ele>127</ele>
        <time>2021-08-11T12:05:00Z</time>
      </trkpt>
      <trkpt lat="48.12901" lon="-3.61484">
        <ele>126.8</ele>
        <time>2021-08-11T12:05:01Z</time>
      </trkpt>
      <trkpt lat="48.129" lon="-3.61489">
        <ele>126.8</ele>
        <time>2021-08-11T12:05:02Z</time>
      </trkpt>
      <trkpt lat="48.12898" lon="-3.61496">
        <ele>126.8</ele>
        <time>2021-08-11T12:05:03Z</time>
      </trkpt>
      <trkpt lat="48.12897" lon="-3.61502">
        <ele>126.6</ele>
        <time>2021-08-11T12:05:04Z</time>
      </trkpt>
      <trkpt lat="48.12895" lon="-3.61509">
        <ele>126.6</ele>
        <time>2021-08-11T12:05:05Z</time>
      </trkpt>
      <trkpt lat="48.12894" lon="-3.61515">
        <ele>126.6</ele>
        <time>2021-08-11T12:05:06Z</time>
      </trkpt>
      <trkpt lat="48.12892" lon="-3.61521">
        <ele>126.4</ele>
        <time>2021-08-11T12:05:07Z</time>
      </trkpt>
      <trkpt lat="48.12891" lon="-3.61525">
        <ele>126.2</ele>
        <time>2021-08-11T12:05:08Z</time>
      </trkpt>
      <trkpt lat="48.12889" lon="-3.6153">
        <ele>126.2</ele>
        <time>2021-08-11T12:05:09Z</time>
      </trkpt>
      <trkpt lat="48.12887" lon="-3.61536">
        <ele>126</ele>
        <time>2021-08-11T12:05:10Z</time>
      </trkpt>
      <trkpt lat="48.12886" lon="-3.61541">
        <ele>126</ele>
        <time>2021-08-11T12:05:11Z</time>
      </trkpt>
      <trkpt lat="48.12884" lon="-3.61547">
        <ele>126</ele>
        <time>2021-08-11T12:05:12Z</time>
      </trkpt>
      <trkpt lat="48.12882" lon="-3.61552">
        <ele>126</ele>
        <time>2021-08-11T12:05:13Z</time>
      </trkpt>
      <trkpt lat="48.1288" lon="-3.61558">
        <ele>125.8</ele>
        <time>2021-08-11T12:05:14Z</time>
      </trkpt>
      <trkpt lat="48.12878" lon="-3.61563">
        <ele>125.8</ele>
        <time>2021-08-11T12:05:15Z</time>
      </trkpt>
      <trkpt lat="48.12877" lon="-3.61568">
        <ele>125.8</ele>
        <time>2021-08-11T12:05:16Z</time>
      </trkpt>
      <trkpt lat="48.12874" lon="-3.61573">
        <ele>125.8</ele>
        <time>2021-08-11T12:05:17Z</time>
      </trkpt>
      <trkpt lat="48.12871" lon="-3.61579">
        <ele>125.8</ele>
        <time>2021-08-11T12:05:18Z</time>
      </trkpt>
      <trkpt lat="48.12868" lon="-3.61585">
        <ele>125.8</ele>
        <time>2021-08-11T12:05:19Z</time>
      </trkpt>
      <trkpt lat="48.12865" lon="-3.6159">
        <ele>125.6</ele>
        <time>2021-08-11T12:05:20Z</time>
      </trkpt>
      <trkpt lat="48.12862" lon="-3.61596">
        <ele>125.6</ele>
        <time>2021-08-11T12:05:21Z</time>
      </trkpt>
      <trkpt lat="48.12858" lon="-3.61602">
        <ele>125.6</ele>
        <time>2021-08-11T12:05:22Z</time>
      </trkpt>
      <trkpt lat="48.12854" lon="-3.61607">
        <ele>125.6</ele>
        <time>2021-08-11T12:05:23Z</time>
      </trkpt>
      <trkpt lat="48.12851" lon="-3.61613">
        <ele>125.4</ele>
        <time>2021-08-11T12:05:24Z</time>
      </trkpt>
      <trkpt lat="48.12847" lon="-3.61618">
        <ele>125.4</ele>
        <time>2021-08-11T12:05:25Z</time>
      </trkpt>
      <trkpt lat="48.12843" lon="-3.61623">
        <ele>125.2</ele>
        <time>2021-08-11T12:05:26Z</time>
      </trkpt>
      <trkpt lat="48.1284" lon="-3.61628">
        <ele>124.8</ele>
        <time>2021-08-11T12:05:27Z</time>
      </trkpt>
      <trkpt lat="48.12836" lon="-3.61633">
        <ele>124.8</ele>
        <time>2021-08-11T12:05:28Z</time>
      </trkpt>
      <trkpt lat="48.12833" lon="-3.61637">
        <ele>124.6</ele>
        <time>2021-08-11T12:05:29Z</time>
      </trkpt>
      <trkpt lat="48.12829" lon="-3.61642">
        <ele>124.4</ele>
        <time>2021-08-11T12:05:30Z</time>
      </trkpt>
      <trkpt lat="48.12826" lon="-3.61647">
        <ele>124.4</ele>
        <time>2021-08-11T12:05:31Z</time>
      </trkpt>
      <trkpt lat="48.12822" lon="-3.61651">
        <ele>124.4</ele>
        <time>2021-08-11T12:05:32Z</time>
      </trkpt>
      <trkpt lat="48.12819" lon="-3.61654">
        <ele>124.2</ele>
        <time>2021-08-11T12:05:33Z</time>
      </trkpt>
      <trkpt lat="48.12816" lon="-3.61658">
        <ele>124.2</ele>
        <time>2021-08-11T12:05:34Z</time>
      </trkpt>
      <trkpt lat="48.12814" lon="-3.61661">
        <ele>124.2</ele>
        <time>2021-08-11T12:05:35Z</time>
      </trkpt>
      <trkpt lat="48.12812" lon="-3.61665">
        <ele>124.2</ele>
        <time>2021-08-11T12:05:36Z</time>
      </trkpt>
      <trkpt lat="48.12811" lon="-3.61668">
        <ele>124.2</ele>
        <time>2021-08-11T12:05:37Z</time>
      </trkpt>
      <trkpt lat="48.1281" lon="-3.61671">
        <ele>124.2</ele>
        <time>2021-08-11T12:05:38Z</time>
      </trkpt>
      <trkpt lat="48.12809" lon="-3.61673">
        <ele>124.2</ele>
        <time>2021-08-11T12:05:39Z</time>
      </trkpt>
      <trkpt lat="48.12808" lon="-3.61675">
        <ele>124.2</ele>
        <time>2021-08-11T12:05:40Z</time>
      </trkpt>
      <trkpt lat="48.12807" lon="-3.61678">
        <ele>124.2</ele>
        <time>2021-08-11T12:05:41Z</time>
      </trkpt>
      <trkpt lat="48.12807" lon="-3.6168">
        <ele>124.2</ele>
        <time>2021-08-11T12:05:42Z</time>
      </trkpt>
      <trkpt lat="48.12807" lon="-3.61682">
        <ele>124.4</ele>
        <time>2021-08-11T12:05:43Z</time>
      </trkpt>
      <trkpt lat="48.12808" lon="-3.61683">
        <ele>124.4</ele>
        <time>2021-08-11T12:05:44Z</time>
      </trkpt>
      <trkpt lat="48.12808" lon="-3.61685">
        <ele>124.8</ele>
        <time>2021-08-11T12:05:45Z</time>
      </trkpt>
      <trkpt lat="48.12808" lon="-3.61687">
        <ele>124.8</ele>
        <time>2021-08-11T12:05:46Z</time>
      </trkpt>
      <trkpt lat="48.12807" lon="-3.6169">
        <ele>125</ele>
        <time>2021-08-11T12:05:47Z</time>
      </trkpt>
      <trkpt lat="48.12806" lon="-3.61692">
        <ele>125.2</ele>
        <time>2021-08-11T12:05:48Z</time>
      </trkpt>
      <trkpt lat="48.12805" lon="-3.61694">
        <ele>125.4</ele>
        <time>2021-08-11T12:05:49Z</time>
      </trkpt>
      <trkpt lat="48.12804" lon="-3.61697">
        <ele>125.4</ele>
        <time>2021-08-11T12:05:50Z</time>
      </trkpt>
      <trkpt lat="48.12803" lon="-3.617">
        <ele>125.4</ele>
        <time>2021-08-11T12:05:51Z</time>
      </trkpt>
      <trkpt lat="48.12801" lon="-3.61702">
        <ele>125.6</ele>
        <time>2021-08-11T12:05:52Z</time>
      </trkpt>
      <trkpt lat="48.128" lon="-3.61704">
        <ele>125.6</ele>
        <time>2021-08-11T12:05:53Z</time>
      </trkpt>
      <trkpt lat="48.12798" lon="-3.61705">
        <ele>125.6</ele>
        <time>2021-08-11T12:05:54Z</time>
      </trkpt>
      <trkpt lat="48.12796" lon="-3.61706">
        <ele>125.6</ele>
        <time>2021-08-11T12:05:55Z</time>
      </trkpt>
      <trkpt lat="48.12794" lon="-3.61706">
        <ele>125.6</ele>
        <time>2021-08-11T12:05:56Z</time>
      </trkpt>
      <trkpt lat="48.12792" lon="-3.61707">
        <ele>125.6</ele>
        <time>2021-08-11T12:05:57Z</time>
      </trkpt>
      <trkpt lat="48.1279" lon="-3.61709">
        <ele>125.6</ele>
        <time>2021-08-11T12:05:58Z</time>
      </trkpt>
      <trkpt lat="48.12788" lon="-3.61712">
        <ele>125.6</ele>
        <time>2021-08-11T12:05:59Z</time>
      </trkpt>
      <trkpt lat="48.12785" lon="-3.61714">
        <ele>125.6</ele>
        <time>2021-08-11T12:06:00Z</time>
      </trkpt>
      <trkpt lat="48.12782" lon="-3.61716">
        <ele>125.6</ele>
        <time>2021-08-11T12:06:01Z</time>
      </trkpt>
      <trkpt lat="48.12779" lon="-3.61718">
        <ele>125.6</ele>
        <time>2021-08-11T12:06:02Z</time>
      </trkpt>
      <trkpt lat="48.12775" lon="-3.61719">
        <ele>125.6</ele>
        <time>2021-08-11T12:06:03Z</time>
      </trkpt>
      <trkpt lat="48.12772" lon="-3.61721">
        <ele>125.6</ele>
        <time>2021-08-11T12:06:04Z</time>
      </trkpt>
      <trkpt lat="48.12769" lon="-3.61722">
        <ele>125.6</ele>
        <time>2021-08-11T12:06:05Z</time>
      </trkpt>
      <trkpt lat="48.12765" lon="-3.61724">
        <ele>125.6</ele>
        <time>2021-08-11T12:06:06Z</time>
      </trkpt>
      <trkpt lat="48.12761" lon="-3.61727">
        <ele>125.6</ele>
        <time>2021-08-11T12:06:07Z</time>
      </trkpt>
      <trkpt lat="48.12758" lon="-3.61731">
        <ele>125.6</ele>
        <time>2021-08-11T12:06:08Z</time>
      </trkpt>
      <trkpt lat="48.12755" lon="-3.61735">
        <ele>125.4</ele>
        <time>2021-08-11T12:06:09Z</time>
      </trkpt>
      <trkpt lat="48.12752" lon="-3.6174">
        <ele>125.4</ele>
        <time>2021-08-11T12:06:10Z</time>
      </trkpt>
      <trkpt lat="48.12749" lon="-3.61744">
        <ele>125.2</ele>
        <time>2021-08-11T12:06:11Z</time>
      </trkpt>
      <trkpt lat="48.12746" lon="-3.61748">
        <ele>125</ele>
        <time>2021-08-11T12:06:12Z</time>
      </trkpt>
      <trkpt lat="48.12744" lon="-3.61753">
        <ele>124.8</ele>
        <time>2021-08-11T12:06:13Z</time>
      </trkpt>
      <trkpt lat="48.12742" lon="-3.61758">
        <ele>124.4</ele>
        <time>2021-08-11T12:06:14Z</time>
      </trkpt>
      <trkpt lat="48.1274" lon="-3.61763">
        <ele>124</ele>
        <time>2021-08-11T12:06:15Z</time>
      </trkpt>
      <trkpt lat="48.12737" lon="-3.61767">
        <ele>124</ele>
        <time>2021-08-11T12:06:16Z</time>
      </trkpt>
      <trkpt lat="48.12735" lon="-3.61772">
        <ele>123.8</ele>
        <time>2021-08-11T12:06:17Z</time>
      </trkpt>
      <trkpt lat="48.12733" lon="-3.61777">
        <ele>123.6</ele>
        <time>2021-08-11T12:06:18Z</time>
      </trkpt>
      <trkpt lat="48.12731" lon="-3.61781">
        <ele>123.4</ele>
        <time>2021-08-11T12:06:19Z</time>
      </trkpt>
      <trkpt lat="48.12728" lon="-3.61786">
        <ele>123</ele>
        <time>2021-08-11T12:06:20Z</time>
      </trkpt>
      <trkpt lat="48.12726" lon="-3.61789">
        <ele>122.8</ele>
        <time>2021-08-11T12:06:21Z</time>
      </trkpt>
      <trkpt lat="48.12724" lon="-3.61792">
        <ele>122.6</ele>
        <time>2021-08-11T12:06:22Z</time>
      </trkpt>
      <trkpt lat="48.12722" lon="-3.61796">
        <ele>122.6</ele>
        <time>2021-08-11T12:06:23Z</time>
      </trkpt>
      <trkpt lat="48.1272" lon="-3.618">
        <ele>122.4</ele>
        <time>2021-08-11T12:06:24Z</time>
      </trkpt>
      <trkpt lat="48.12718" lon="-3.61805">
        <ele>122.4</ele>
        <time>2021-08-11T12:06:25Z</time>
      </trkpt>
      <trkpt lat="48.12716" lon="-3.61811">
        <ele>122.2</ele>
        <time>2021-08-11T12:06:26Z</time>
      </trkpt>
      <trkpt lat="48.12713" lon="-3.61817">
        <ele>122.2</ele>
        <time>2021-08-11T12:06:27Z</time>
      </trkpt>
      <trkpt lat="48.12711" lon="-3.61823">
        <ele>122</ele>
        <time>2021-08-11T12:06:28Z</time>
      </trkpt>
      <trkpt lat="48.12708" lon="-3.61829">
        <ele>122</ele>
        <time>2021-08-11T12:06:29Z</time>
      </trkpt>
      <trkpt lat="48.12705" lon="-3.61835">
        <ele>122</ele>
        <time>2021-08-11T12:06:30Z</time>
      </trkpt>
      <trkpt lat="48.12703" lon="-3.6184">
        <ele>122</ele>
        <time>2021-08-11T12:06:31Z</time>
      </trkpt>
      <trkpt lat="48.127" lon="-3.61846">
        <ele>122</ele>
        <time>2021-08-11T12:06:32Z</time>
      </trkpt>
      <trkpt lat="48.12698" lon="-3.61852">
        <ele>122</ele>
        <time>2021-08-11T12:06:33Z</time>
      </trkpt>
      <trkpt lat="48.12695" lon="-3.61859">
        <ele>122</ele>
        <time>2021-08-11T12:06:34Z</time>
      </trkpt>
      <trkpt lat="48.12693" lon="-3.61865">
        <ele>121.8</ele>
        <time>2021-08-11T12:06:35Z</time>
      </trkpt>
      <trkpt lat="48.1269" lon="-3.61872">
        <ele>121.8</ele>
        <time>2021-08-11T12:06:36Z</time>
      </trkpt>
      <trkpt lat="48.12688" lon="-3.61879">
        <ele>121.8</ele>
        <time>2021-08-11T12:06:37Z</time>
      </trkpt>
      <trkpt lat="48.12685" lon="-3.61885">
        <ele>121.6</ele>
        <time>2021-08-11T12:06:38Z</time>
      </trkpt>
      <trkpt lat="48.12682" lon="-3.61892">
        <ele>121.6</ele>
        <time>2021-08-11T12:06:39Z</time>
      </trkpt>
      <trkpt lat="48.1268" lon="-3.61898">
        <ele>121.6</ele>
        <time>2021-08-11T12:06:40Z</time>
      </trkpt>
      <trkpt lat="48.12677" lon="-3.61904">
        <ele>121.6</ele>
        <time>2021-08-11T12:06:41Z</time>
      </trkpt>
      <trkpt lat="48.12674" lon="-3.61911">
        <ele>121.6</ele>
        <time>2021-08-11T12:06:42Z</time>
      </trkpt>
      <trkpt lat="48.12671" lon="-3.61918">
        <ele>121.4</ele>
        <time>2021-08-11T12:06:43Z</time>
      </trkpt>
      <trkpt lat="48.12668" lon="-3.61925">
        <ele>121.4</ele>
        <time>2021-08-11T12:06:44Z</time>
      </trkpt>
      <trkpt lat="48.12665" lon="-3.61931">
        <ele>121.2</ele>
        <time>2021-08-11T12:06:45Z</time>
      </trkpt>
      <trkpt lat="48.12662" lon="-3.61938">
        <ele>121.2</ele>
        <time>2021-08-11T12:06:46Z</time>
      </trkpt>
      <trkpt lat="48.1266" lon="-3.61945">
        <ele>121.2</ele>
        <time>2021-08-11T12:06:47Z</time>
      </trkpt>
      <trkpt lat="48.12657" lon="-3.61952">
        <ele>121</ele>
        <time>2021-08-11T12:06:48Z</time>
      </trkpt>
      <trkpt lat="48.12654" lon="-3.61959">
        <ele>121</ele>
        <time>2021-08-11T12:06:49Z</time>
      </trkpt>
      <trkpt lat="48.12651" lon="-3.61966">
        <ele>120.8</ele>
        <time>2021-08-11T12:06:50Z</time>
      </trkpt>
      <trkpt lat="48.12648" lon="-3.61972">
        <ele>120.8</ele>
        <time>2021-08-11T12:06:51Z</time>
      </trkpt>
      <trkpt lat="48.12645" lon="-3.61979">
        <ele>120.8</ele>
        <time>2021-08-11T12:06:52Z</time>
      </trkpt>
      <trkpt lat="48.12642" lon="-3.61985">
        <ele>120.8</ele>
        <time>2021-08-11T12:06:53Z</time>
      </trkpt>
      <trkpt lat="48.12639" lon="-3.61991">
        <ele>120.8</ele>
        <time>2021-08-11T12:06:54Z</time>
      </trkpt>
      <trkpt lat="48.12637" lon="-3.61998">
        <ele>120.6</ele>
        <time>2021-08-11T12:06:55Z</time>
      </trkpt>
      <trkpt lat="48.12634" lon="-3.62004">
        <ele>120.6</ele>
        <time>2021-08-11T12:06:56Z</time>
      </trkpt>
      <trkpt lat="48.12632" lon="-3.6201">
        <ele>120.4</ele>
        <time>2021-08-11T12:06:57Z</time>
      </trkpt>
      <trkpt lat="48.12629" lon="-3.62016">
        <ele>120.2</ele>
        <time>2021-08-11T12:06:58Z</time>
      </trkpt>
      <trkpt lat="48.12626" lon="-3.62022">
        <ele>120</ele>
        <time>2021-08-11T12:06:59Z</time>
      </trkpt>
      <trkpt lat="48.12623" lon="-3.62028">
        <ele>119.8</ele>
        <time>2021-08-11T12:07:00Z</time>
      </trkpt>
      <trkpt lat="48.1262" lon="-3.62035">
        <ele>119.8</ele>
        <time>2021-08-11T12:07:01Z</time>
      </trkpt>
      <trkpt lat="48.12618" lon="-3.62041">
        <ele>119.8</ele>
        <time>2021-08-11T12:07:02Z</time>
      </trkpt>
      <trkpt lat="48.12615" lon="-3.62048">
        <ele>119.6</ele>
        <time>2021-08-11T12:07:03Z</time>
      </trkpt>
      <trkpt lat="48.12612" lon="-3.62055">
        <ele>119.6</ele>
        <time>2021-08-11T12:07:04Z</time>
      </trkpt>
      <trkpt lat="48.12609" lon="-3.62061">
        <ele>119.4</ele>
        <time>2021-08-11T12:07:05Z</time>
      </trkpt>
      <trkpt lat="48.12606" lon="-3.62068">
        <ele>119.4</ele>
        <time>2021-08-11T12:07:06Z</time>
      </trkpt>
      <trkpt lat="48.12603" lon="-3.62074">
        <ele>119.2</ele>
        <time>2021-08-11T12:07:07Z</time>
      </trkpt>
      <trkpt lat="48.12599" lon="-3.6208">
        <ele>119.2</ele>
        <time>2021-08-11T12:07:08Z</time>
      </trkpt>
      <trkpt lat="48.12597" lon="-3.62086">
        <ele>119</ele>
        <time>2021-08-11T12:07:09Z</time>
      </trkpt>
      <trkpt lat="48.12594" lon="-3.62092">
        <ele>119</ele>
        <time>2021-08-11T12:07:10Z</time>
      </trkpt>
      <trkpt lat="48.12592" lon="-3.62099">
        <ele>118.8</ele>
        <time>2021-08-11T12:07:11Z</time>
      </trkpt>
      <trkpt lat="48.12589" lon="-3.62105">
        <ele>118.8</ele>
        <time>2021-08-11T12:07:12Z</time>
      </trkpt>
      <trkpt lat="48.12586" lon="-3.62112">
        <ele>118.8</ele>
        <time>2021-08-11T12:07:13Z</time>
      </trkpt>
      <trkpt lat="48.12583" lon="-3.62119">
        <ele>118.6</ele>
        <time>2021-08-11T12:07:14Z</time>
      </trkpt>
      <trkpt lat="48.1258" lon="-3.62126">
        <ele>118.6</ele>
        <time>2021-08-11T12:07:15Z</time>
      </trkpt>
      <trkpt lat="48.12576" lon="-3.62133">
        <ele>118.4</ele>
        <time>2021-08-11T12:07:16Z</time>
      </trkpt>
      <trkpt lat="48.12573" lon="-3.6214">
        <ele>118.2</ele>
        <time>2021-08-11T12:07:17Z</time>
      </trkpt>
      <trkpt lat="48.1257" lon="-3.62147">
        <ele>118</ele>
        <time>2021-08-11T12:07:18Z</time>
      </trkpt>
      <trkpt lat="48.12566" lon="-3.62155">
        <ele>118</ele>
        <time>2021-08-11T12:07:19Z</time>
      </trkpt>
      <trkpt lat="48.12564" lon="-3.62161">
        <ele>117.8</ele>
        <time>2021-08-11T12:07:20Z</time>
      </trkpt>
      <trkpt lat="48.12561" lon="-3.62169">
        <ele>117.6</ele>
        <time>2021-08-11T12:07:21Z</time>
      </trkpt>
      <trkpt lat="48.12558" lon="-3.62176">
        <ele>117.6</ele>
        <time>2021-08-11T12:07:22Z</time>
      </trkpt>
      <trkpt lat="48.12555" lon="-3.62184">
        <ele>117.4</ele>
        <time>2021-08-11T12:07:23Z</time>
      </trkpt>
      <trkpt lat="48.12552" lon="-3.62192">
        <ele>117.2</ele>
        <time>2021-08-11T12:07:24Z</time>
      </trkpt>
      <trkpt lat="48.12548" lon="-3.62199">
        <ele>117.2</ele>
        <time>2021-08-11T12:07:25Z</time>
      </trkpt>
      <trkpt lat="48.12545" lon="-3.62206">
        <ele>117</ele>
        <time>2021-08-11T12:07:26Z</time>
      </trkpt>
      <trkpt lat="48.12542" lon="-3.62213">
        <ele>117</ele>
        <time>2021-08-11T12:07:27Z</time>
      </trkpt>
      <trkpt lat="48.1254" lon="-3.6222">
        <ele>117</ele>
        <time>2021-08-11T12:07:28Z</time>
      </trkpt>
      <trkpt lat="48.12537" lon="-3.62227">
        <ele>116.8</ele>
        <time>2021-08-11T12:07:29Z</time>
      </trkpt>
      <trkpt lat="48.12534" lon="-3.62234">
        <ele>116.8</ele>
        <time>2021-08-11T12:07:30Z</time>
      </trkpt>
      <trkpt lat="48.12531" lon="-3.62242">
        <ele>116.8</ele>
        <time>2021-08-11T12:07:31Z</time>
      </trkpt>
      <trkpt lat="48.12528" lon="-3.62249">
        <ele>116.6</ele>
        <time>2021-08-11T12:07:32Z</time>
      </trkpt>
      <trkpt lat="48.12524" lon="-3.62256">
        <ele>116.4</ele>
        <time>2021-08-11T12:07:33Z</time>
      </trkpt>
      <trkpt lat="48.1252" lon="-3.62264">
        <ele>116.2</ele>
        <time>2021-08-11T12:07:34Z</time>
      </trkpt>
      <trkpt lat="48.12516" lon="-3.62271">
        <ele>116</ele>
        <time>2021-08-11T12:07:35Z</time>
      </trkpt>
      <trkpt lat="48.12512" lon="-3.62278">
        <ele>115.8</ele>
        <time>2021-08-11T12:07:36Z</time>
      </trkpt>
      <trkpt lat="48.12508" lon="-3.62286">
        <ele>115.6</ele>
        <time>2021-08-11T12:07:37Z</time>
      </trkpt>
      <trkpt lat="48.12503" lon="-3.62293">
        <ele>115.4</ele>
        <time>2021-08-11T12:07:38Z</time>
      </trkpt>
      <trkpt lat="48.12499" lon="-3.623">
        <ele>115.2</ele>
        <time>2021-08-11T12:07:39Z</time>
      </trkpt>
      <trkpt lat="48.12495" lon="-3.62307">
        <ele>115.2</ele>
        <time>2021-08-11T12:07:40Z</time>
      </trkpt>
      <trkpt lat="48.1249" lon="-3.62314">
        <ele>115</ele>
        <time>2021-08-11T12:07:41Z</time>
      </trkpt>
      <trkpt lat="48.12486" lon="-3.62321">
        <ele>114.8</ele>
        <time>2021-08-11T12:07:42Z</time>
      </trkpt>
      <trkpt lat="48.12481" lon="-3.62327">
        <ele>114.6</ele>
        <time>2021-08-11T12:07:43Z</time>
      </trkpt>
      <trkpt lat="48.12477" lon="-3.62333">
        <ele>114.6</ele>
        <time>2021-08-11T12:07:44Z</time>
      </trkpt>
      <trkpt lat="48.12473" lon="-3.62338">
        <ele>114.4</ele>
        <time>2021-08-11T12:07:45Z</time>
      </trkpt>
      <trkpt lat="48.12469" lon="-3.62344">
        <ele>114.4</ele>
        <time>2021-08-11T12:07:46Z</time>
      </trkpt>
      <trkpt lat="48.12464" lon="-3.6235">
        <ele>114.2</ele>
        <time>2021-08-11T12:07:47Z</time>
      </trkpt>
      <trkpt lat="48.1246" lon="-3.62356">
        <ele>114</ele>
        <time>2021-08-11T12:07:48Z</time>
      </trkpt>
      <trkpt lat="48.12456" lon="-3.62361">
        <ele>113.8</ele>
        <time>2021-08-11T12:07:49Z</time>
      </trkpt>
      <trkpt lat="48.12452" lon="-3.62367">
        <ele>113.6</ele>
        <time>2021-08-11T12:07:50Z</time>
      </trkpt>
      <trkpt lat="48.12447" lon="-3.62373">
        <ele>113.6</ele>
        <time>2021-08-11T12:07:51Z</time>
      </trkpt>
      <trkpt lat="48.12443" lon="-3.62379">
        <ele>113.2</ele>
        <time>2021-08-11T12:07:52Z</time>
      </trkpt>
      <trkpt lat="48.12438" lon="-3.62385">
        <ele>113</ele>
        <time>2021-08-11T12:07:53Z</time>
      </trkpt>
      <trkpt lat="48.12434" lon="-3.62391">
        <ele>112.8</ele>
        <time>2021-08-11T12:07:54Z</time>
      </trkpt>
      <trkpt lat="48.1243" lon="-3.62396">
        <ele>112.8</ele>
        <time>2021-08-11T12:07:55Z</time>
      </trkpt>
      <trkpt lat="48.12426" lon="-3.62401">
        <ele>112.8</ele>
        <time>2021-08-11T12:07:56Z</time>
      </trkpt>
      <trkpt lat="48.12422" lon="-3.62407">
        <ele>112.4</ele>
        <time>2021-08-11T12:07:57Z</time>
      </trkpt>
      <trkpt lat="48.12418" lon="-3.62412">
        <ele>112.4</ele>
        <time>2021-08-11T12:07:58Z</time>
      </trkpt>
      <trkpt lat="48.12414" lon="-3.62417">
        <ele>112.2</ele>
        <time>2021-08-11T12:07:59Z</time>
      </trkpt>
      <trkpt lat="48.12409" lon="-3.62423">
        <ele>112</ele>
        <time>2021-08-11T12:08:00Z</time>
      </trkpt>
      <trkpt lat="48.12404" lon="-3.62429">
        <ele>112</ele>
        <time>2021-08-11T12:08:01Z</time>
      </trkpt>
      <trkpt lat="48.124" lon="-3.62434">
        <ele>111.8</ele>
        <time>2021-08-11T12:08:02Z</time>
      </trkpt>
      <trkpt lat="48.12395" lon="-3.6244">
        <ele>111.8</ele>
        <time>2021-08-11T12:08:03Z</time>
      </trkpt>
      <trkpt lat="48.1239" lon="-3.62446">
        <ele>111.6</ele>
        <time>2021-08-11T12:08:04Z</time>
      </trkpt>
      <trkpt lat="48.12386" lon="-3.62451">
        <ele>111.6</ele>
        <time>2021-08-11T12:08:05Z</time>
      </trkpt>
      <trkpt lat="48.12381" lon="-3.62457">
        <ele>111.4</ele>
        <time>2021-08-11T12:08:06Z</time>
      </trkpt>
      <trkpt lat="48.12377" lon="-3.62462">
        <ele>111.4</ele>
        <time>2021-08-11T12:08:07Z</time>
      </trkpt>
      <trkpt lat="48.12373" lon="-3.62467">
        <ele>111.4</ele>
        <time>2021-08-11T12:08:08Z</time>
      </trkpt>
      <trkpt lat="48.12369" lon="-3.62473">
        <ele>111.4</ele>
        <time>2021-08-11T12:08:09Z</time>
      </trkpt>
      <trkpt lat="48.12365" lon="-3.62478">
        <ele>111.4</ele>
        <time>2021-08-11T12:08:10Z</time>
      </trkpt>
      <trkpt lat="48.1236" lon="-3.62484">
        <ele>111.4</ele>
        <time>2021-08-11T12:08:11Z</time>
      </trkpt>
      <trkpt lat="48.12356" lon="-3.62489">
        <ele>111.4</ele>
        <time>2021-08-11T12:08:12Z</time>
      </trkpt>
      <trkpt lat="48.12352" lon="-3.62494">
        <ele>111.2</ele>
        <time>2021-08-11T12:08:13Z</time>
      </trkpt>
      <trkpt lat="48.12348" lon="-3.62499">
        <ele>111.2</ele>
        <time>2021-08-11T12:08:14Z</time>
      </trkpt>
      <trkpt lat="48.12344" lon="-3.62504">
        <ele>111.2</ele>
        <time>2021-08-11T12:08:15Z</time>
      </trkpt>
      <trkpt lat="48.12339" lon="-3.62508">
        <ele>111.2</ele>
        <time>2021-08-11T12:08:16Z</time>
      </trkpt>
      <trkpt lat="48.12335" lon="-3.62513">
        <ele>111.2</ele>
        <time>2021-08-11T12:08:17Z</time>
      </trkpt>
      <trkpt lat="48.12332" lon="-3.62518">
        <ele>111.2</ele>
        <time>2021-08-11T12:08:18Z</time>
      </trkpt>
      <trkpt lat="48.12328" lon="-3.62523">
        <ele>111.2</ele>
        <time>2021-08-11T12:08:19Z</time>
      </trkpt>
      <trkpt lat="48.12325" lon="-3.62528">
        <ele>111.2</ele>
        <time>2021-08-11T12:08:20Z</time>
      </trkpt>
      <trkpt lat="48.12321" lon="-3.62532">
        <ele>111.2</ele>
        <time>2021-08-11T12:08:21Z</time>
      </trkpt>
      <trkpt lat="48.12317" lon="-3.62537">
        <ele>111.2</ele>
        <time>2021-08-11T12:08:22Z</time>
      </trkpt>
      <trkpt lat="48.12313" lon="-3.62541">
        <ele>111.2</ele>
        <time>2021-08-11T12:08:23Z</time>
      </trkpt>
      <trkpt lat="48.1231" lon="-3.62546">
        <ele>111.2</ele>
        <time>2021-08-11T12:08:24Z</time>
      </trkpt>
      <trkpt lat="48.12306" lon="-3.6255">
        <ele>111.2</ele>
        <time>2021-08-11T12:08:25Z</time>
      </trkpt>
      <trkpt lat="48.12302" lon="-3.62555">
        <ele>111.2</ele>
        <time>2021-08-11T12:08:26Z</time>
      </trkpt>
      <trkpt lat="48.12298" lon="-3.6256">
        <ele>111.2</ele>
        <time>2021-08-11T12:08:27Z</time>
      </trkpt>
      <trkpt lat="48.12295" lon="-3.62565">
        <ele>111.2</ele>
        <time>2021-08-11T12:08:28Z</time>
      </trkpt>
      <trkpt lat="48.12291" lon="-3.6257">
        <ele>111.2</ele>
        <time>2021-08-11T12:08:29Z</time>
      </trkpt>
      <trkpt lat="48.12287" lon="-3.62576">
        <ele>111.2</ele>
        <time>2021-08-11T12:08:30Z</time>
      </trkpt>
      <trkpt lat="48.12284" lon="-3.62581">
        <ele>111.2</ele>
        <time>2021-08-11T12:08:31Z</time>
      </trkpt>
      <trkpt lat="48.1228" lon="-3.62586">
        <ele>111.2</ele>
        <time>2021-08-11T12:08:32Z</time>
      </trkpt>
      <trkpt lat="48.12277" lon="-3.6259">
        <ele>111.2</ele>
        <time>2021-08-11T12:08:33Z</time>
      </trkpt>
      <trkpt lat="48.12273" lon="-3.62595">
        <ele>111.2</ele>
        <time>2021-08-11T12:08:34Z</time>
      </trkpt>
      <trkpt lat="48.12269" lon="-3.626">
        <ele>111.2</ele>
        <time>2021-08-11T12:08:35Z</time>
      </trkpt>
      <trkpt lat="48.12265" lon="-3.62605">
        <ele>111.2</ele>
        <time>2021-08-11T12:08:36Z</time>
      </trkpt>
      <trkpt lat="48.12261" lon="-3.62609">
        <ele>111</ele>
        <time>2021-08-11T12:08:37Z</time>
      </trkpt>
      <trkpt lat="48.12257" lon="-3.62614">
        <ele>111</ele>
        <time>2021-08-11T12:08:38Z</time>
      </trkpt>
      <trkpt lat="48.12254" lon="-3.62619">
        <ele>111</ele>
        <time>2021-08-11T12:08:39Z</time>
      </trkpt>
      <trkpt lat="48.1225" lon="-3.62624">
        <ele>111</ele>
        <time>2021-08-11T12:08:40Z</time>
      </trkpt>
      <trkpt lat="48.12247" lon="-3.62629">
        <ele>111</ele>
        <time>2021-08-11T12:08:41Z</time>
      </trkpt>
      <trkpt lat="48.12243" lon="-3.62634">
        <ele>111</ele>
        <time>2021-08-11T12:08:42Z</time>
      </trkpt>
      <trkpt lat="48.1224" lon="-3.62638">
        <ele>111</ele>
        <time>2021-08-11T12:08:43Z</time>
      </trkpt>
      <trkpt lat="48.12237" lon="-3.62643">
        <ele>111</ele>
        <time>2021-08-11T12:08:44Z</time>
      </trkpt>
      <trkpt lat="48.12234" lon="-3.62647">
        <ele>111</ele>
        <time>2021-08-11T12:08:45Z</time>
      </trkpt>
      <trkpt lat="48.12231" lon="-3.62651">
        <ele>111</ele>
        <time>2021-08-11T12:08:46Z</time>
      </trkpt>
      <trkpt lat="48.12228" lon="-3.62654">
        <ele>111</ele>
        <time>2021-08-11T12:08:47Z</time>
      </trkpt>
      <trkpt lat="48.12225" lon="-3.62658">
        <ele>111</ele>
        <time>2021-08-11T12:08:48Z</time>
      </trkpt>
      <trkpt lat="48.12222" lon="-3.62662">
        <ele>111</ele>
        <time>2021-08-11T12:08:49Z</time>
      </trkpt>
      <trkpt lat="48.12219" lon="-3.62666">
        <ele>111</ele>
        <time>2021-08-11T12:08:50Z</time>
      </trkpt>
      <trkpt lat="48.12216" lon="-3.6267">
        <ele>111</ele>
        <time>2021-08-11T12:08:51Z</time>
      </trkpt>
      <trkpt lat="48.12213" lon="-3.62674">
        <ele>111</ele>
        <time>2021-08-11T12:08:52Z</time>
      </trkpt>
      <trkpt lat="48.1221" lon="-3.62677">
        <ele>111</ele>
        <time>2021-08-11T12:08:53Z</time>
      </trkpt>
      <trkpt lat="48.12207" lon="-3.6268">
        <ele>111</ele>
        <time>2021-08-11T12:08:54Z</time>
      </trkpt>
      <trkpt lat="48.12204" lon="-3.62684">
        <ele>111</ele>
        <time>2021-08-11T12:08:55Z</time>
      </trkpt>
      <trkpt lat="48.12201" lon="-3.62688">
        <ele>111</ele>
        <time>2021-08-11T12:08:56Z</time>
      </trkpt>
      <trkpt lat="48.12198" lon="-3.62691">
        <ele>111</ele>
        <time>2021-08-11T12:08:57Z</time>
      </trkpt>
      <trkpt lat="48.12195" lon="-3.62694">
        <ele>111</ele>
        <time>2021-08-11T12:08:58Z</time>
      </trkpt>
      <trkpt lat="48.12191" lon="-3.62698">
        <ele>111</ele>
        <time>2021-08-11T12:08:59Z</time>
      </trkpt>
      <trkpt lat="48.12188" lon="-3.62701">
        <ele>111</ele>
        <time>2021-08-11T12:09:00Z</time>
      </trkpt>
      <trkpt lat="48.12185" lon="-3.62704">
        <ele>111</ele>
        <time>2021-08-11T12:09:01Z</time>
      </trkpt>
      <trkpt lat="48.12182" lon="-3.62707">
        <ele>111</ele>
        <time>2021-08-11T12:09:02Z</time>
      </trkpt>
      <trkpt lat="48.12179" lon="-3.62711">
        <ele>111</ele>
        <time>2021-08-11T12:09:03Z</time>
      </trkpt>
      <trkpt lat="48.12176" lon="-3.62714">
        <ele>111</ele>
        <time>2021-08-11T12:09:04Z</time>
      </trkpt>
      <trkpt lat="48.12173" lon="-3.62717">
        <ele>111</ele>
        <time>2021-08-11T12:09:05Z</time>
      </trkpt>
      <trkpt lat="48.1217" lon="-3.62719">
        <ele>111</ele>
        <time>2021-08-11T12:09:06Z</time>
      </trkpt>
      <trkpt lat="48.12167" lon="-3.62722">
        <ele>111</ele>
        <time>2021-08-11T12:09:07Z</time>
      </trkpt>
      <trkpt lat="48.12164" lon="-3.62726">
        <ele>111</ele>
        <time>2021-08-11T12:09:08Z</time>
      </trkpt>
      <trkpt lat="48.12162" lon="-3.6273">
        <ele>111.2</ele>
        <time>2021-08-11T12:09:09Z</time>
      </trkpt>
      <trkpt lat="48.12159" lon="-3.62733">
        <ele>111.2</ele>
        <time>2021-08-11T12:09:10Z</time>
      </trkpt>
      <trkpt lat="48.12157" lon="-3.62734">
        <ele>111.2</ele>
        <time>2021-08-11T12:09:11Z</time>
      </trkpt>
      <trkpt lat="48.12155" lon="-3.62735">
        <ele>111.2</ele>
        <time>2021-08-11T12:09:12Z</time>
      </trkpt>
      <trkpt lat="48.12154" lon="-3.62736">
        <ele>111.2</ele>
        <time>2021-08-11T12:09:13Z</time>
      </trkpt>
      <trkpt lat="48.12153" lon="-3.62737">
        <ele>111.2</ele>
        <time>2021-08-11T12:09:14Z</time>
      </trkpt>
      <trkpt lat="48.12152" lon="-3.62739">
        <ele>111.2</ele>
        <time>2021-08-11T12:09:15Z</time>
      </trkpt>
      <trkpt lat="48.12152" lon="-3.62739">
        <ele>111.2</ele>
        <time>2021-08-11T12:09:16Z</time>
      </trkpt>
      <trkpt lat="48.1215" lon="-3.62741">
        <ele>112.6</ele>
        <time>2021-08-11T12:09:32Z</time>
      </trkpt>
      <trkpt lat="48.12149" lon="-3.62742">
        <ele>112.6</ele>
        <time>2021-08-11T12:09:33Z</time>
      </trkpt>
      <trkpt lat="48.12148" lon="-3.62743">
        <ele>112.6</ele>
        <time>2021-08-11T12:09:34Z</time>
      </trkpt>
      <trkpt lat="48.12146" lon="-3.62744">
        <ele>112.6</ele>
        <time>2021-08-11T12:09:35Z</time>
      </trkpt>
      <trkpt lat="48.12145" lon="-3.62745">
        <ele>112.6</ele>
        <time>2021-08-11T12:09:36Z</time>
      </trkpt>
      <trkpt lat="48.12143" lon="-3.62746">
        <ele>112.6</ele>
        <time>2021-08-11T12:09:37Z</time>
      </trkpt>
      <trkpt lat="48.1214" lon="-3.62747">
        <ele>112.6</ele>
        <time>2021-08-11T12:09:38Z</time>
      </trkpt>
      <trkpt lat="48.12138" lon="-3.62748">
        <ele>112.6</ele>
        <time>2021-08-11T12:09:39Z</time>
      </trkpt>
      <trkpt lat="48.12135" lon="-3.6275">
        <ele>112.6</ele>
        <time>2021-08-11T12:09:40Z</time>
      </trkpt>
      <trkpt lat="48.12132" lon="-3.62753">
        <ele>112.4</ele>
        <time>2021-08-11T12:09:41Z</time>
      </trkpt>
      <trkpt lat="48.1213" lon="-3.62757">
        <ele>112.4</ele>
        <time>2021-08-11T12:09:42Z</time>
      </trkpt>
      <trkpt lat="48.12127" lon="-3.6276">
        <ele>112.4</ele>
        <time>2021-08-11T12:09:43Z</time>
      </trkpt>
      <trkpt lat="48.12126" lon="-3.62764">
        <ele>112.4</ele>
        <time>2021-08-11T12:09:44Z</time>
      </trkpt>
      <trkpt lat="48.12125" lon="-3.62767">
        <ele>112.4</ele>
        <time>2021-08-11T12:09:45Z</time>
      </trkpt>
      <trkpt lat="48.12124" lon="-3.6277">
        <ele>112.4</ele>
        <time>2021-08-11T12:09:46Z</time>
      </trkpt>
      <trkpt lat="48.12123" lon="-3.62774">
        <ele>112.4</ele>
        <time>2021-08-11T12:09:47Z</time>
      </trkpt>
      <trkpt lat="48.12122" lon="-3.62778">
        <ele>112.2</ele>
        <time>2021-08-11T12:09:48Z</time>
      </trkpt>
      <trkpt lat="48.1212" lon="-3.62781">
        <ele>112</ele>
        <time>2021-08-11T12:09:49Z</time>
      </trkpt>
      <trkpt lat="48.12119" lon="-3.62785">
        <ele>111.8</ele>
        <time>2021-08-11T12:09:50Z</time>
      </trkpt>
      <trkpt lat="48.12117" lon="-3.62789">
        <ele>111.6</ele>
        <time>2021-08-11T12:09:51Z</time>
      </trkpt>
      <trkpt lat="48.12114" lon="-3.62792">
        <ele>111.6</ele>
        <time>2021-08-11T12:09:52Z</time>
      </trkpt>
      <trkpt lat="48.1211" lon="-3.62794">
        <ele>111.4</ele>
        <time>2021-08-11T12:09:53Z</time>
      </trkpt>
      <trkpt lat="48.12106" lon="-3.62794">
        <ele>111.4</ele>
        <time>2021-08-11T12:09:54Z</time>
      </trkpt>
      <trkpt lat="48.12102" lon="-3.62792">
        <ele>111.4</ele>
        <time>2021-08-11T12:09:55Z</time>
      </trkpt>
      <trkpt lat="48.12098" lon="-3.6279">
        <ele>111.2</ele>
        <time>2021-08-11T12:09:56Z</time>
      </trkpt>
      <trkpt lat="48.12094" lon="-3.62788">
        <ele>111</ele>
        <time>2021-08-11T12:09:57Z</time>
      </trkpt>
      <trkpt lat="48.12089" lon="-3.62786">
        <ele>111</ele>
        <time>2021-08-11T12:09:58Z</time>
      </trkpt>
      <trkpt lat="48.12085" lon="-3.62785">
        <ele>110.8</ele>
        <time>2021-08-11T12:09:59Z</time>
      </trkpt>
      <trkpt lat="48.12081" lon="-3.62783">
        <ele>110.8</ele>
        <time>2021-08-11T12:10:00Z</time>
      </trkpt>
      <trkpt lat="48.12077" lon="-3.62782">
        <ele>110.6</ele>
        <time>2021-08-11T12:10:01Z</time>
      </trkpt>
      <trkpt lat="48.12073" lon="-3.62782">
        <ele>110.6</ele>
        <time>2021-08-11T12:10:02Z</time>
      </trkpt>
      <trkpt lat="48.12069" lon="-3.62782">
        <ele>110.4</ele>
        <time>2021-08-11T12:10:03Z</time>
      </trkpt>
      <trkpt lat="48.12065" lon="-3.62782">
        <ele>110.4</ele>
        <time>2021-08-11T12:10:04Z</time>
      </trkpt>
      <trkpt lat="48.12061" lon="-3.62783">
        <ele>110.4</ele>
        <time>2021-08-11T12:10:05Z</time>
      </trkpt>
      <trkpt lat="48.12057" lon="-3.62783">
        <ele>110.4</ele>
        <time>2021-08-11T12:10:06Z</time>
      </trkpt>
      <trkpt lat="48.12053" lon="-3.62785">
        <ele>110.4</ele>
        <time>2021-08-11T12:10:07Z</time>
      </trkpt>
      <trkpt lat="48.1205" lon="-3.62787">
        <ele>110.4</ele>
        <time>2021-08-11T12:10:08Z</time>
      </trkpt>
      <trkpt lat="48.12047" lon="-3.62788">
        <ele>110.4</ele>
        <time>2021-08-11T12:10:09Z</time>
      </trkpt>
      <trkpt lat="48.12044" lon="-3.62788">
        <ele>110.4</ele>
        <time>2021-08-11T12:10:10Z</time>
      </trkpt>
      <trkpt lat="48.12041" lon="-3.62789">
        <ele>110.4</ele>
        <time>2021-08-11T12:10:11Z</time>
      </trkpt>
      <trkpt lat="48.12039" lon="-3.62791">
        <ele>110.4</ele>
        <time>2021-08-11T12:10:12Z</time>
      </trkpt>
      <trkpt lat="48.12036" lon="-3.62792">
        <ele>110.4</ele>
        <time>2021-08-11T12:10:13Z</time>
      </trkpt>
      <trkpt lat="48.12033" lon="-3.62794">
        <ele>110.4</ele>
        <time>2021-08-11T12:10:14Z</time>
      </trkpt>
      <trkpt lat="48.12029" lon="-3.62795">
        <ele>110.4</ele>
        <time>2021-08-11T12:10:15Z</time>
      </trkpt>
      <trkpt lat="48.12026" lon="-3.62796">
        <ele>110.4</ele>
        <time>2021-08-11T12:10:16Z</time>
      </trkpt>
      <trkpt lat="48.12022" lon="-3.62796">
        <ele>110.4</ele>
        <time>2021-08-11T12:10:17Z</time>
      </trkpt>
      <trkpt lat="48.12018" lon="-3.62797">
        <ele>110.4</ele>
        <time>2021-08-11T12:10:18Z</time>
      </trkpt>
      <trkpt lat="48.12013" lon="-3.62796">
        <ele>110.4</ele>
        <time>2021-08-11T12:10:19Z</time>
      </trkpt>
      <trkpt lat="48.12008" lon="-3.62797">
        <ele>110.4</ele>
        <time>2021-08-11T12:10:20Z</time>
      </trkpt>
      <trkpt lat="48.12004" lon="-3.62798">
        <ele>110.4</ele>
        <time>2021-08-11T12:10:21Z</time>
      </trkpt>
      <trkpt lat="48.11999" lon="-3.62798">
        <ele>110.4</ele>
        <time>2021-08-11T12:10:22Z</time>
      </trkpt>
      <trkpt lat="48.11995" lon="-3.62799">
        <ele>110.4</ele>
        <time>2021-08-11T12:10:23Z</time>
      </trkpt>
      <trkpt lat="48.11991" lon="-3.628">
        <ele>110.2</ele>
        <time>2021-08-11T12:10:24Z</time>
      </trkpt>
      <trkpt lat="48.11987" lon="-3.628">
        <ele>110.2</ele>
        <time>2021-08-11T12:10:25Z</time>
      </trkpt>
      <trkpt lat="48.11982" lon="-3.62799">
        <ele>110</ele>
        <time>2021-08-11T12:10:26Z</time>
      </trkpt>
      <trkpt lat="48.11977" lon="-3.62799">
        <ele>109.8</ele>
        <time>2021-08-11T12:10:27Z</time>
      </trkpt>
      <trkpt lat="48.11972" lon="-3.62798">
        <ele>109.8</ele>
        <time>2021-08-11T12:10:28Z</time>
      </trkpt>
      <trkpt lat="48.11967" lon="-3.62798">
        <ele>109.6</ele>
        <time>2021-08-11T12:10:29Z</time>
      </trkpt>
      <trkpt lat="48.11962" lon="-3.62797">
        <ele>109.6</ele>
        <time>2021-08-11T12:10:30Z</time>
      </trkpt>
      <trkpt lat="48.11957" lon="-3.62796">
        <ele>109.6</ele>
        <time>2021-08-11T12:10:31Z</time>
      </trkpt>
      <trkpt lat="48.11952" lon="-3.62795">
        <ele>109.4</ele>
        <time>2021-08-11T12:10:32Z</time>
      </trkpt>
      <trkpt lat="48.11948" lon="-3.62794">
        <ele>109.2</ele>
        <time>2021-08-11T12:10:33Z</time>
      </trkpt>
      <trkpt lat="48.11943" lon="-3.62794">
        <ele>109</ele>
        <time>2021-08-11T12:10:34Z</time>
      </trkpt>
      <trkpt lat="48.11938" lon="-3.62793">
        <ele>109</ele>
        <time>2021-08-11T12:10:35Z</time>
      </trkpt>
      <trkpt lat="48.11933" lon="-3.62791">
        <ele>108.8</ele>
        <time>2021-08-11T12:10:36Z</time>
      </trkpt>
      <trkpt lat="48.11928" lon="-3.6279">
        <ele>108.6</ele>
        <time>2021-08-11T12:10:37Z</time>
      </trkpt>
      <trkpt lat="48.11923" lon="-3.6279">
        <ele>108.6</ele>
        <time>2021-08-11T12:10:38Z</time>
      </trkpt>
      <trkpt lat="48.11918" lon="-3.62789">
        <ele>108.6</ele>
        <time>2021-08-11T12:10:39Z</time>
      </trkpt>
      <trkpt lat="48.11913" lon="-3.62789">
        <ele>108.4</ele>
        <time>2021-08-11T12:10:40Z</time>
      </trkpt>
      <trkpt lat="48.11908" lon="-3.6279">
        <ele>108.4</ele>
        <time>2021-08-11T12:10:41Z</time>
      </trkpt>
      <trkpt lat="48.11903" lon="-3.6279">
        <ele>108.4</ele>
        <time>2021-08-11T12:10:42Z</time>
      </trkpt>
      <trkpt lat="48.11899" lon="-3.62789">
        <ele>108.4</ele>
        <time>2021-08-11T12:10:43Z</time>
      </trkpt>
      <trkpt lat="48.11894" lon="-3.6279">
        <ele>108.4</ele>
        <time>2021-08-11T12:10:44Z</time>
      </trkpt>
      <trkpt lat="48.11891" lon="-3.62789">
        <ele>108.4</ele>
        <time>2021-08-11T12:10:45Z</time>
      </trkpt>
      <trkpt lat="48.11886" lon="-3.62787">
        <ele>108.2</ele>
        <time>2021-08-11T12:10:46Z</time>
      </trkpt>
      <trkpt lat="48.11881" lon="-3.62786">
        <ele>108.2</ele>
        <time>2021-08-11T12:10:47Z</time>
      </trkpt>
      <trkpt lat="48.11875" lon="-3.62783">
        <ele>108.2</ele>
        <time>2021-08-11T12:10:48Z</time>
      </trkpt>
      <trkpt lat="48.11869" lon="-3.62781">
        <ele>108.2</ele>
        <time>2021-08-11T12:10:49Z</time>
      </trkpt>
      <trkpt lat="48.11861" lon="-3.6278">
        <ele>108.2</ele>
        <time>2021-08-11T12:10:50Z</time>
      </trkpt>
      <trkpt lat="48.11855" lon="-3.62778">
        <ele>108.2</ele>
        <time>2021-08-11T12:10:51Z</time>
      </trkpt>
      <trkpt lat="48.11848" lon="-3.62777">
        <ele>108.2</ele>
        <time>2021-08-11T12:10:52Z</time>
      </trkpt>
      <trkpt lat="48.11841" lon="-3.62776">
        <ele>108.2</ele>
        <time>2021-08-11T12:10:53Z</time>
      </trkpt>
      <trkpt lat="48.11835" lon="-3.62775">
        <ele>108.2</ele>
        <time>2021-08-11T12:10:54Z</time>
      </trkpt>
      <trkpt lat="48.11829" lon="-3.62775">
        <ele>108.2</ele>
        <time>2021-08-11T12:10:55Z</time>
      </trkpt>
      <trkpt lat="48.11823" lon="-3.62774">
        <ele>108.2</ele>
        <time>2021-08-11T12:10:56Z</time>
      </trkpt>
      <trkpt lat="48.11816" lon="-3.62773">
        <ele>108</ele>
        <time>2021-08-11T12:10:57Z</time>
      </trkpt>
      <trkpt lat="48.11811" lon="-3.62773">
        <ele>108</ele>
        <time>2021-08-11T12:10:58Z</time>
      </trkpt>
      <trkpt lat="48.11806" lon="-3.6277">
        <ele>108</ele>
        <time>2021-08-11T12:10:59Z</time>
      </trkpt>
      <trkpt lat="48.11801" lon="-3.62768">
        <ele>108</ele>
        <time>2021-08-11T12:11:00Z</time>
      </trkpt>
      <trkpt lat="48.11795" lon="-3.62766">
        <ele>108</ele>
        <time>2021-08-11T12:11:01Z</time>
      </trkpt>
      <trkpt lat="48.1179" lon="-3.62764">
        <ele>108</ele>
        <time>2021-08-11T12:11:02Z</time>
      </trkpt>
      <trkpt lat="48.11784" lon="-3.62762">
        <ele>108</ele>
        <time>2021-08-11T12:11:03Z</time>
      </trkpt>
      <trkpt lat="48.11777" lon="-3.6276">
        <ele>108</ele>
        <time>2021-08-11T12:11:04Z</time>
      </trkpt>
      <trkpt lat="48.11772" lon="-3.62759">
        <ele>107.8</ele>
        <time>2021-08-11T12:11:05Z</time>
      </trkpt>
      <trkpt lat="48.11766" lon="-3.62759">
        <ele>107.8</ele>
        <time>2021-08-11T12:11:06Z</time>
      </trkpt>
      <trkpt lat="48.11761" lon="-3.62758">
        <ele>107.6</ele>
        <time>2021-08-11T12:11:07Z</time>
      </trkpt>
      <trkpt lat="48.11755" lon="-3.62757">
        <ele>107.6</ele>
        <time>2021-08-11T12:11:08Z</time>
      </trkpt>
      <trkpt lat="48.1175" lon="-3.62758">
        <ele>107.6</ele>
        <time>2021-08-11T12:11:09Z</time>
      </trkpt>
      <trkpt lat="48.11745" lon="-3.62758">
        <ele>107.6</ele>
        <time>2021-08-11T12:11:10Z</time>
      </trkpt>
      <trkpt lat="48.1174" lon="-3.62759">
        <ele>107.6</ele>
        <time>2021-08-11T12:11:11Z</time>
      </trkpt>
      <trkpt lat="48.11736" lon="-3.62759">
        <ele>107.6</ele>
        <time>2021-08-11T12:11:12Z</time>
      </trkpt>
      <trkpt lat="48.11732" lon="-3.62759">
        <ele>107.6</ele>
        <time>2021-08-11T12:11:13Z</time>
      </trkpt>
      <trkpt lat="48.11728" lon="-3.6276">
        <ele>107.6</ele>
        <time>2021-08-11T12:11:14Z</time>
      </trkpt>
      <trkpt lat="48.11722" lon="-3.62761">
        <ele>107.6</ele>
        <time>2021-08-11T12:11:15Z</time>
      </trkpt>
      <trkpt lat="48.11715" lon="-3.62759">
        <ele>107.6</ele>
        <time>2021-08-11T12:11:16Z</time>
      </trkpt>
      <trkpt lat="48.11709" lon="-3.62758">
        <ele>107.6</ele>
        <time>2021-08-11T12:11:17Z</time>
      </trkpt>
      <trkpt lat="48.11703" lon="-3.62758">
        <ele>107.8</ele>
        <time>2021-08-11T12:11:18Z</time>
      </trkpt>
      <trkpt lat="48.11699" lon="-3.62758">
        <ele>108</ele>
        <time>2021-08-11T12:11:19Z</time>
      </trkpt>
      <trkpt lat="48.11695" lon="-3.62759">
        <ele>108</ele>
        <time>2021-08-11T12:11:20Z</time>
      </trkpt>
      <trkpt lat="48.11691" lon="-3.62759">
        <ele>108.2</ele>
        <time>2021-08-11T12:11:21Z</time>
      </trkpt>
      <trkpt lat="48.11688" lon="-3.6276">
        <ele>108.2</ele>
        <time>2021-08-11T12:11:22Z</time>
      </trkpt>
      <trkpt lat="48.11685" lon="-3.6276">
        <ele>108.2</ele>
        <time>2021-08-11T12:11:23Z</time>
      </trkpt>
      <trkpt lat="48.11681" lon="-3.62761">
        <ele>108.2</ele>
        <time>2021-08-11T12:11:24Z</time>
      </trkpt>
      <trkpt lat="48.11677" lon="-3.62762">
        <ele>108.2</ele>
        <time>2021-08-11T12:11:25Z</time>
      </trkpt>
      <trkpt lat="48.11674" lon="-3.62763">
        <ele>108.2</ele>
        <time>2021-08-11T12:11:26Z</time>
      </trkpt>
      <trkpt lat="48.1167" lon="-3.62764">
        <ele>108.2</ele>
        <time>2021-08-11T12:11:27Z</time>
      </trkpt>
      <trkpt lat="48.11666" lon="-3.62765">
        <ele>108.2</ele>
        <time>2021-08-11T12:11:28Z</time>
      </trkpt>
      <trkpt lat="48.11662" lon="-3.62766">
        <ele>108.2</ele>
        <time>2021-08-11T12:11:29Z</time>
      </trkpt>
      <trkpt lat="48.11656" lon="-3.62767">
        <ele>108.2</ele>
        <time>2021-08-11T12:11:30Z</time>
      </trkpt>
      <trkpt lat="48.11651" lon="-3.62768">
        <ele>108.2</ele>
        <time>2021-08-11T12:11:31Z</time>
      </trkpt>
      <trkpt lat="48.11646" lon="-3.6277">
        <ele>108.2</ele>
        <time>2021-08-11T12:11:32Z</time>
      </trkpt>
      <trkpt lat="48.11642" lon="-3.62771">
        <ele>108.2</ele>
        <time>2021-08-11T12:11:33Z</time>
      </trkpt>
      <trkpt lat="48.11637" lon="-3.62773">
        <ele>108.2</ele>
        <time>2021-08-11T12:11:34Z</time>
      </trkpt>
      <trkpt lat="48.11632" lon="-3.62774">
        <ele>108</ele>
        <time>2021-08-11T12:11:35Z</time>
      </trkpt>
      <trkpt lat="48.11627" lon="-3.62775">
        <ele>108</ele>
        <time>2021-08-11T12:11:36Z</time>
      </trkpt>
      <trkpt lat="48.11622" lon="-3.62777">
        <ele>107.8</ele>
        <time>2021-08-11T12:11:37Z</time>
      </trkpt>
      <trkpt lat="48.11616" lon="-3.62778">
        <ele>107.8</ele>
        <time>2021-08-11T12:11:38Z</time>
      </trkpt>
      <trkpt lat="48.11611" lon="-3.62779">
        <ele>107.8</ele>
        <time>2021-08-11T12:11:39Z</time>
      </trkpt>
      <trkpt lat="48.11606" lon="-3.6278">
        <ele>107.8</ele>
        <time>2021-08-11T12:11:40Z</time>
      </trkpt>
      <trkpt lat="48.11601" lon="-3.62781">
        <ele>107.6</ele>
        <time>2021-08-11T12:11:41Z</time>
      </trkpt>
      <trkpt lat="48.11597" lon="-3.62783">
        <ele>107.6</ele>
        <time>2021-08-11T12:11:42Z</time>
      </trkpt>
      <trkpt lat="48.11592" lon="-3.62785">
        <ele>107.6</ele>
        <time>2021-08-11T12:11:43Z</time>
      </trkpt>
      <trkpt lat="48.11587" lon="-3.62787">
        <ele>107.6</ele>
        <time>2021-08-11T12:11:44Z</time>
      </trkpt>
      <trkpt lat="48.11582" lon="-3.62789">
        <ele>107.6</ele>
        <time>2021-08-11T12:11:45Z</time>
      </trkpt>
      <trkpt lat="48.11577" lon="-3.62791">
        <ele>107.4</ele>
        <time>2021-08-11T12:11:46Z</time>
      </trkpt>
      <trkpt lat="48.11573" lon="-3.62793">
        <ele>107.4</ele>
        <time>2021-08-11T12:11:47Z</time>
      </trkpt>
      <trkpt lat="48.11568" lon="-3.62795">
        <ele>107.4</ele>
        <time>2021-08-11T12:11:48Z</time>
      </trkpt>
      <trkpt lat="48.11563" lon="-3.62796">
        <ele>107.4</ele>
        <time>2021-08-11T12:11:49Z</time>
      </trkpt>
      <trkpt lat="48.11558" lon="-3.62798">
        <ele>107.4</ele>
        <time>2021-08-11T12:11:50Z</time>
      </trkpt>
      <trkpt lat="48.11554" lon="-3.628">
        <ele>107.4</ele>
        <time>2021-08-11T12:11:51Z</time>
      </trkpt>
      <trkpt lat="48.11549" lon="-3.62802">
        <ele>107.4</ele>
        <time>2021-08-11T12:11:52Z</time>
      </trkpt>
      <trkpt lat="48.11544" lon="-3.62803">
        <ele>107.2</ele>
        <time>2021-08-11T12:11:53Z</time>
      </trkpt>
      <trkpt lat="48.11539" lon="-3.62805">
        <ele>107.2</ele>
        <time>2021-08-11T12:11:54Z</time>
      </trkpt>
      <trkpt lat="48.11534" lon="-3.62806">
        <ele>107.2</ele>
        <time>2021-08-11T12:11:55Z</time>
      </trkpt>
      <trkpt lat="48.11529" lon="-3.62808">
        <ele>107.4</ele>
        <time>2021-08-11T12:11:56Z</time>
      </trkpt>
      <trkpt lat="48.11525" lon="-3.62809">
        <ele>107.4</ele>
        <time>2021-08-11T12:11:57Z</time>
      </trkpt>
      <trkpt lat="48.11521" lon="-3.6281">
        <ele>107.4</ele>
        <time>2021-08-11T12:11:58Z</time>
      </trkpt>
      <trkpt lat="48.11516" lon="-3.62812">
        <ele>107.4</ele>
        <time>2021-08-11T12:11:59Z</time>
      </trkpt>
      <trkpt lat="48.11511" lon="-3.62814">
        <ele>107.4</ele>
        <time>2021-08-11T12:12:00Z</time>
      </trkpt>
      <trkpt lat="48.11506" lon="-3.62816">
        <ele>107.6</ele>
        <time>2021-08-11T12:12:01Z</time>
      </trkpt>
      <trkpt lat="48.11501" lon="-3.62819">
        <ele>107.8</ele>
        <time>2021-08-11T12:12:02Z</time>
      </trkpt>
      <trkpt lat="48.11497" lon="-3.6282">
        <ele>108</ele>
        <time>2021-08-11T12:12:03Z</time>
      </trkpt>
      <trkpt lat="48.11493" lon="-3.62822">
        <ele>108</ele>
        <time>2021-08-11T12:12:04Z</time>
      </trkpt>
      <trkpt lat="48.11489" lon="-3.62823">
        <ele>108</ele>
        <time>2021-08-11T12:12:05Z</time>
      </trkpt>
      <trkpt lat="48.11484" lon="-3.62825">
        <ele>108.2</ele>
        <time>2021-08-11T12:12:06Z</time>
      </trkpt>
      <trkpt lat="48.1148" lon="-3.62828">
        <ele>108.2</ele>
        <time>2021-08-11T12:12:07Z</time>
      </trkpt>
      <trkpt lat="48.11477" lon="-3.6283">
        <ele>108.2</ele>
        <time>2021-08-11T12:12:08Z</time>
      </trkpt>
      <trkpt lat="48.11473" lon="-3.62832">
        <ele>108.2</ele>
        <time>2021-08-11T12:12:09Z</time>
      </trkpt>
      <trkpt lat="48.11469" lon="-3.62834">
        <ele>108.2</ele>
        <time>2021-08-11T12:12:10Z</time>
      </trkpt>
      <trkpt lat="48.11465" lon="-3.62836">
        <ele>108.2</ele>
        <time>2021-08-11T12:12:11Z</time>
      </trkpt>
      <trkpt lat="48.11461" lon="-3.62838">
        <ele>108.2</ele>
        <time>2021-08-11T12:12:12Z</time>
      </trkpt>
      <trkpt lat="48.11457" lon="-3.6284">
        <ele>108.2</ele>
        <time>2021-08-11T12:12:13Z</time>
      </trkpt>
      <trkpt lat="48.11453" lon="-3.62841">
        <ele>108.2</ele>
        <time>2021-08-11T12:12:14Z</time>
      </trkpt>
      <trkpt lat="48.11448" lon="-3.62842">
        <ele>108.2</ele>
        <time>2021-08-11T12:12:15Z</time>
      </trkpt>
      <trkpt lat="48.11444" lon="-3.62845">
        <ele>108.2</ele>
        <time>2021-08-11T12:12:16Z</time>
      </trkpt>
      <trkpt lat="48.11439" lon="-3.62846">
        <ele>108.2</ele>
        <time>2021-08-11T12:12:17Z</time>
      </trkpt>
      <trkpt lat="48.11435" lon="-3.62847">
        <ele>108.2</ele>
        <time>2021-08-11T12:12:18Z</time>
      </trkpt>
      <trkpt lat="48.1143" lon="-3.62849">
        <ele>108.2</ele>
        <time>2021-08-11T12:12:19Z</time>
      </trkpt>
      <trkpt lat="48.11425" lon="-3.62851">
        <ele>108.2</ele>
        <time>2021-08-11T12:12:20Z</time>
      </trkpt>
      <trkpt lat="48.11421" lon="-3.62853">
        <ele>108.2</ele>
        <time>2021-08-11T12:12:21Z</time>
      </trkpt>
      <trkpt lat="48.11416" lon="-3.62854">
        <ele>108.2</ele>
        <time>2021-08-11T12:12:22Z</time>
      </trkpt>
      <trkpt lat="48.11411" lon="-3.62856">
        <ele>108.2</ele>
        <time>2021-08-11T12:12:23Z</time>
      </trkpt>
      <trkpt lat="48.11407" lon="-3.62857">
        <ele>108.2</ele>
        <time>2021-08-11T12:12:24Z</time>
      </trkpt>
      <trkpt lat="48.11402" lon="-3.62859">
        <ele>108</ele>
        <time>2021-08-11T12:12:25Z</time>
      </trkpt>
      <trkpt lat="48.11398" lon="-3.62861">
        <ele>108</ele>
        <time>2021-08-11T12:12:26Z</time>
      </trkpt>
      <trkpt lat="48.11393" lon="-3.62863">
        <ele>108</ele>
        <time>2021-08-11T12:12:27Z</time>
      </trkpt>
      <trkpt lat="48.11387" lon="-3.62866">
        <ele>108</ele>
        <time>2021-08-11T12:12:28Z</time>
      </trkpt>
      <trkpt lat="48.11382" lon="-3.62868">
        <ele>108</ele>
        <time>2021-08-11T12:12:29Z</time>
      </trkpt>
      <trkpt lat="48.11377" lon="-3.6287">
        <ele>108</ele>
        <time>2021-08-11T12:12:30Z</time>
      </trkpt>
      <trkpt lat="48.11372" lon="-3.62871">
        <ele>108</ele>
        <time>2021-08-11T12:12:31Z</time>
      </trkpt>
      <trkpt lat="48.11367" lon="-3.62872">
        <ele>107.8</ele>
        <time>2021-08-11T12:12:32Z</time>
      </trkpt>
      <trkpt lat="48.11362" lon="-3.62873">
        <ele>107.8</ele>
        <time>2021-08-11T12:12:33Z</time>
      </trkpt>
      <trkpt lat="48.11357" lon="-3.62875">
        <ele>107.8</ele>
        <time>2021-08-11T12:12:34Z</time>
      </trkpt>
      <trkpt lat="48.11353" lon="-3.62877">
        <ele>107.8</ele>
        <time>2021-08-11T12:12:35Z</time>
      </trkpt>
      <trkpt lat="48.11348" lon="-3.62879">
        <ele>107.8</ele>
        <time>2021-08-11T12:12:36Z</time>
      </trkpt>
      <trkpt lat="48.11342" lon="-3.6288">
        <ele>107.8</ele>
        <time>2021-08-11T12:12:37Z</time>
      </trkpt>
      <trkpt lat="48.11336" lon="-3.62881">
        <ele>107.8</ele>
        <time>2021-08-11T12:12:38Z</time>
      </trkpt>
      <trkpt lat="48.11331" lon="-3.62883">
        <ele>107.8</ele>
        <time>2021-08-11T12:12:39Z</time>
      </trkpt>
      <trkpt lat="48.11325" lon="-3.62886">
        <ele>107.8</ele>
        <time>2021-08-11T12:12:40Z</time>
      </trkpt>
      <trkpt lat="48.1132" lon="-3.62887">
        <ele>107.8</ele>
        <time>2021-08-11T12:12:41Z</time>
      </trkpt>
      <trkpt lat="48.11314" lon="-3.62888">
        <ele>107.8</ele>
        <time>2021-08-11T12:12:42Z</time>
      </trkpt>
      <trkpt lat="48.11308" lon="-3.6289">
        <ele>107.8</ele>
        <time>2021-08-11T12:12:43Z</time>
      </trkpt>
      <trkpt lat="48.11303" lon="-3.62893">
        <ele>107.8</ele>
        <time>2021-08-11T12:12:44Z</time>
      </trkpt>
      <trkpt lat="48.11297" lon="-3.62895">
        <ele>107.8</ele>
        <time>2021-08-11T12:12:45Z</time>
      </trkpt>
      <trkpt lat="48.11291" lon="-3.62896">
        <ele>107.6</ele>
        <time>2021-08-11T12:12:46Z</time>
      </trkpt>
      <trkpt lat="48.11285" lon="-3.62898">
        <ele>107.6</ele>
        <time>2021-08-11T12:12:47Z</time>
      </trkpt>
      <trkpt lat="48.11279" lon="-3.62899">
        <ele>107.6</ele>
        <time>2021-08-11T12:12:48Z</time>
      </trkpt>
      <trkpt lat="48.11274" lon="-3.62901">
        <ele>107.6</ele>
        <time>2021-08-11T12:12:49Z</time>
      </trkpt>
      <trkpt lat="48.11268" lon="-3.62902">
        <ele>107.6</ele>
        <time>2021-08-11T12:12:50Z</time>
      </trkpt>
      <trkpt lat="48.11263" lon="-3.62903">
        <ele>107.8</ele>
        <time>2021-08-11T12:12:51Z</time>
      </trkpt>
      <trkpt lat="48.11257" lon="-3.62905">
        <ele>107.8</ele>
        <time>2021-08-11T12:12:52Z</time>
      </trkpt>
      <trkpt lat="48.11252" lon="-3.62906">
        <ele>107.8</ele>
        <time>2021-08-11T12:12:53Z</time>
      </trkpt>
      <trkpt lat="48.11248" lon="-3.62907">
        <ele>107.8</ele>
        <time>2021-08-11T12:12:54Z</time>
      </trkpt>
      <trkpt lat="48.11243" lon="-3.62908">
        <ele>107.8</ele>
        <time>2021-08-11T12:12:55Z</time>
      </trkpt>
      <trkpt lat="48.11238" lon="-3.62909">
        <ele>107.8</ele>
        <time>2021-08-11T12:12:56Z</time>
      </trkpt>
      <trkpt lat="48.11233" lon="-3.62911">
        <ele>107.8</ele>
        <time>2021-08-11T12:12:57Z</time>
      </trkpt>
      <trkpt lat="48.11228" lon="-3.62912">
        <ele>107.6</ele>
        <time>2021-08-11T12:12:58Z</time>
      </trkpt>
      <trkpt lat="48.11223" lon="-3.62914">
        <ele>107.6</ele>
        <time>2021-08-11T12:12:59Z</time>
      </trkpt>
      <trkpt lat="48.11218" lon="-3.62916">
        <ele>107.6</ele>
        <time>2021-08-11T12:13:00Z</time>
      </trkpt>
      <trkpt lat="48.11212" lon="-3.62918">
        <ele>107.6</ele>
        <time>2021-08-11T12:13:01Z</time>
      </trkpt>
      <trkpt lat="48.11207" lon="-3.62919">
        <ele>107.6</ele>
        <time>2021-08-11T12:13:02Z</time>
      </trkpt>
      <trkpt lat="48.11202" lon="-3.62921">
        <ele>107.6</ele>
        <time>2021-08-11T12:13:03Z</time>
      </trkpt>
      <trkpt lat="48.11196" lon="-3.62923">
        <ele>107.6</ele>
        <time>2021-08-11T12:13:04Z</time>
      </trkpt>
      <trkpt lat="48.11191" lon="-3.62924">
        <ele>107.6</ele>
        <time>2021-08-11T12:13:05Z</time>
      </trkpt>
      <trkpt lat="48.11186" lon="-3.62926">
        <ele>107.6</ele>
        <time>2021-08-11T12:13:06Z</time>
      </trkpt>
      <trkpt lat="48.11181" lon="-3.62927">
        <ele>107.6</ele>
        <time>2021-08-11T12:13:07Z</time>
      </trkpt>
      <trkpt lat="48.11176" lon="-3.62929">
        <ele>107.6</ele>
        <time>2021-08-11T12:13:08Z</time>
      </trkpt>
      <trkpt lat="48.11171" lon="-3.6293">
        <ele>107.6</ele>
        <time>2021-08-11T12:13:09Z</time>
      </trkpt>
      <trkpt lat="48.11167" lon="-3.62932">
        <ele>107.6</ele>
        <time>2021-08-11T12:13:10Z</time>
      </trkpt>
      <trkpt lat="48.11162" lon="-3.62934">
        <ele>107.6</ele>
        <time>2021-08-11T12:13:11Z</time>
      </trkpt>
      <trkpt lat="48.11158" lon="-3.62936">
        <ele>107.6</ele>
        <time>2021-08-11T12:13:12Z</time>
      </trkpt>
      <trkpt lat="48.11154" lon="-3.62938">
        <ele>107.6</ele>
        <time>2021-08-11T12:13:13Z</time>
      </trkpt>
      <trkpt lat="48.1115" lon="-3.6294">
        <ele>107.6</ele>
        <time>2021-08-11T12:13:14Z</time>
      </trkpt>
      <trkpt lat="48.11145" lon="-3.62942">
        <ele>107.6</ele>
        <time>2021-08-11T12:13:15Z</time>
      </trkpt>
      <trkpt lat="48.1114" lon="-3.62943">
        <ele>107.6</ele>
        <time>2021-08-11T12:13:16Z</time>
      </trkpt>
      <trkpt lat="48.11136" lon="-3.62946">
        <ele>107.6</ele>
        <time>2021-08-11T12:13:17Z</time>
      </trkpt>
      <trkpt lat="48.11131" lon="-3.62948">
        <ele>107.6</ele>
        <time>2021-08-11T12:13:18Z</time>
      </trkpt>
      <trkpt lat="48.11126" lon="-3.6295">
        <ele>107.6</ele>
        <time>2021-08-11T12:13:19Z</time>
      </trkpt>
      <trkpt lat="48.11121" lon="-3.62952">
        <ele>107.6</ele>
        <time>2021-08-11T12:13:20Z</time>
      </trkpt>
      <trkpt lat="48.11115" lon="-3.62953">
        <ele>107.6</ele>
        <time>2021-08-11T12:13:21Z</time>
      </trkpt>
      <trkpt lat="48.1111" lon="-3.62955">
        <ele>107.6</ele>
        <time>2021-08-11T12:13:22Z</time>
      </trkpt>
      <trkpt lat="48.11104" lon="-3.62956">
        <ele>107.4</ele>
        <time>2021-08-11T12:13:23Z</time>
      </trkpt>
      <trkpt lat="48.11099" lon="-3.62957">
        <ele>107.4</ele>
        <time>2021-08-11T12:13:24Z</time>
      </trkpt>
      <trkpt lat="48.11093" lon="-3.62958">
        <ele>107.4</ele>
        <time>2021-08-11T12:13:25Z</time>
      </trkpt>
      <trkpt lat="48.11088" lon="-3.62959">
        <ele>107.4</ele>
        <time>2021-08-11T12:13:26Z</time>
      </trkpt>
      <trkpt lat="48.11082" lon="-3.62961">
        <ele>107.4</ele>
        <time>2021-08-11T12:13:27Z</time>
      </trkpt>
      <trkpt lat="48.11077" lon="-3.62962">
        <ele>107.2</ele>
        <time>2021-08-11T12:13:28Z</time>
      </trkpt>
      <trkpt lat="48.11071" lon="-3.62963">
        <ele>107.2</ele>
        <time>2021-08-11T12:13:29Z</time>
      </trkpt>
      <trkpt lat="48.11066" lon="-3.62964">
        <ele>107.2</ele>
        <time>2021-08-11T12:13:30Z</time>
      </trkpt>
      <trkpt lat="48.1106" lon="-3.62964">
        <ele>107.2</ele>
        <time>2021-08-11T12:13:31Z</time>
      </trkpt>
      <trkpt lat="48.11055" lon="-3.62965">
        <ele>107.2</ele>
        <time>2021-08-11T12:13:32Z</time>
      </trkpt>
      <trkpt lat="48.1105" lon="-3.62966">
        <ele>107.2</ele>
        <time>2021-08-11T12:13:33Z</time>
      </trkpt>
      <trkpt lat="48.11044" lon="-3.62966">
        <ele>107.2</ele>
        <time>2021-08-11T12:13:34Z</time>
      </trkpt>
      <trkpt lat="48.11039" lon="-3.62967">
        <ele>107</ele>
        <time>2021-08-11T12:13:35Z</time>
      </trkpt>
      <trkpt lat="48.11034" lon="-3.62967">
        <ele>107</ele>
        <time>2021-08-11T12:13:36Z</time>
      </trkpt>
      <trkpt lat="48.11029" lon="-3.62967">
        <ele>107</ele>
        <time>2021-08-11T12:13:37Z</time>
      </trkpt>
      <trkpt lat="48.11025" lon="-3.62967">
        <ele>107</ele>
        <time>2021-08-11T12:13:38Z</time>
      </trkpt>
      <trkpt lat="48.1102" lon="-3.62967">
        <ele>107</ele>
        <time>2021-08-11T12:13:39Z</time>
      </trkpt>
      <trkpt lat="48.11015" lon="-3.62967">
        <ele>106.8</ele>
        <time>2021-08-11T12:13:40Z</time>
      </trkpt>
      <trkpt lat="48.1101" lon="-3.62967">
        <ele>106.8</ele>
        <time>2021-08-11T12:13:41Z</time>
      </trkpt>
      <trkpt lat="48.11004" lon="-3.62967">
        <ele>106.8</ele>
        <time>2021-08-11T12:13:42Z</time>
      </trkpt>
      <trkpt lat="48.10999" lon="-3.62968">
        <ele>106.8</ele>
        <time>2021-08-11T12:13:43Z</time>
      </trkpt>
      <trkpt lat="48.10994" lon="-3.62969">
        <ele>106.8</ele>
        <time>2021-08-11T12:13:44Z</time>
      </trkpt>
      <trkpt lat="48.1099" lon="-3.62969">
        <ele>106.8</ele>
        <time>2021-08-11T12:13:45Z</time>
      </trkpt>
      <trkpt lat="48.10985" lon="-3.6297">
        <ele>106.8</ele>
        <time>2021-08-11T12:13:46Z</time>
      </trkpt>
      <trkpt lat="48.1098" lon="-3.62971">
        <ele>106.8</ele>
        <time>2021-08-11T12:13:47Z</time>
      </trkpt>
      <trkpt lat="48.10975" lon="-3.62972">
        <ele>106.8</ele>
        <time>2021-08-11T12:13:48Z</time>
      </trkpt>
      <trkpt lat="48.1097" lon="-3.62972">
        <ele>106.8</ele>
        <time>2021-08-11T12:13:49Z</time>
      </trkpt>
      <trkpt lat="48.10965" lon="-3.62972">
        <ele>106.8</ele>
        <time>2021-08-11T12:13:50Z</time>
      </trkpt>
      <trkpt lat="48.10961" lon="-3.62973">
        <ele>106.8</ele>
        <time>2021-08-11T12:13:51Z</time>
      </trkpt>
      <trkpt lat="48.10956" lon="-3.62974">
        <ele>106.8</ele>
        <time>2021-08-11T12:13:52Z</time>
      </trkpt>
      <trkpt lat="48.10952" lon="-3.62975">
        <ele>106.8</ele>
        <time>2021-08-11T12:13:53Z</time>
      </trkpt>
      <trkpt lat="48.10947" lon="-3.62976">
        <ele>106.6</ele>
        <time>2021-08-11T12:13:54Z</time>
      </trkpt>
      <trkpt lat="48.10943" lon="-3.62977">
        <ele>106.6</ele>
        <time>2021-08-11T12:13:55Z</time>
      </trkpt>
      <trkpt lat="48.10938" lon="-3.62978">
        <ele>106.6</ele>
        <time>2021-08-11T12:13:56Z</time>
      </trkpt>
      <trkpt lat="48.10934" lon="-3.62978">
        <ele>106.6</ele>
        <time>2021-08-11T12:13:57Z</time>
      </trkpt>
      <trkpt lat="48.1093" lon="-3.62979">
        <ele>106.6</ele>
        <time>2021-08-11T12:13:58Z</time>
      </trkpt>
      <trkpt lat="48.10926" lon="-3.62979">
        <ele>106.6</ele>
        <time>2021-08-11T12:13:59Z</time>
      </trkpt>
      <trkpt lat="48.10921" lon="-3.62979">
        <ele>106.6</ele>
        <time>2021-08-11T12:14:00Z</time>
      </trkpt>
      <trkpt lat="48.10916" lon="-3.62979">
        <ele>106.8</ele>
        <time>2021-08-11T12:14:01Z</time>
      </trkpt>
      <trkpt lat="48.1091" lon="-3.62979">
        <ele>106.8</ele>
        <time>2021-08-11T12:14:02Z</time>
      </trkpt>
      <trkpt lat="48.10903" lon="-3.62979">
        <ele>106.8</ele>
        <time>2021-08-11T12:14:03Z</time>
      </trkpt>
      <trkpt lat="48.10897" lon="-3.62979">
        <ele>106.8</ele>
        <time>2021-08-11T12:14:04Z</time>
      </trkpt>
      <trkpt lat="48.10891" lon="-3.62979">
        <ele>106.8</ele>
        <time>2021-08-11T12:14:05Z</time>
      </trkpt>
      <trkpt lat="48.10884" lon="-3.62979">
        <ele>106.8</ele>
        <time>2021-08-11T12:14:06Z</time>
      </trkpt>
      <trkpt lat="48.10878" lon="-3.6298">
        <ele>106.8</ele>
        <time>2021-08-11T12:14:07Z</time>
      </trkpt>
      <trkpt lat="48.10872" lon="-3.62981">
        <ele>106.8</ele>
        <time>2021-08-11T12:14:08Z</time>
      </trkpt>
      <trkpt lat="48.10866" lon="-3.62982">
        <ele>106.8</ele>
        <time>2021-08-11T12:14:09Z</time>
      </trkpt>
      <trkpt lat="48.10859" lon="-3.62982">
        <ele>106.2</ele>
        <time>2021-08-11T12:14:10Z</time>
      </trkpt>
      <trkpt lat="48.10853" lon="-3.62983">
        <ele>106</ele>
        <time>2021-08-11T12:14:11Z</time>
      </trkpt>
      <trkpt lat="48.10846" lon="-3.62984">
        <ele>105.8</ele>
        <time>2021-08-11T12:14:12Z</time>
      </trkpt>
      <trkpt lat="48.10841" lon="-3.62985">
        <ele>105.6</ele>
        <time>2021-08-11T12:14:13Z</time>
      </trkpt>
      <trkpt lat="48.10834" lon="-3.62987">
        <ele>105.6</ele>
        <time>2021-08-11T12:14:14Z</time>
      </trkpt>
      <trkpt lat="48.10828" lon="-3.62988">
        <ele>105.4</ele>
        <time>2021-08-11T12:14:15Z</time>
      </trkpt>
      <trkpt lat="48.10822" lon="-3.62989">
        <ele>105.4</ele>
        <time>2021-08-11T12:14:16Z</time>
      </trkpt>
      <trkpt lat="48.10816" lon="-3.6299">
        <ele>105.2</ele>
        <time>2021-08-11T12:14:17Z</time>
      </trkpt>
      <trkpt lat="48.10811" lon="-3.6299">
        <ele>105.2</ele>
        <time>2021-08-11T12:14:18Z</time>
      </trkpt>
      <trkpt lat="48.10805" lon="-3.62991">
        <ele>105.2</ele>
        <time>2021-08-11T12:14:19Z</time>
      </trkpt>
      <trkpt lat="48.108" lon="-3.62992">
        <ele>105.2</ele>
        <time>2021-08-11T12:14:20Z</time>
      </trkpt>
      <trkpt lat="48.10794" lon="-3.62992">
        <ele>105.2</ele>
        <time>2021-08-11T12:14:21Z</time>
      </trkpt>
      <trkpt lat="48.10789" lon="-3.62993">
        <ele>105.2</ele>
        <time>2021-08-11T12:14:22Z</time>
      </trkpt>
      <trkpt lat="48.10783" lon="-3.62994">
        <ele>105</ele>
        <time>2021-08-11T12:14:23Z</time>
      </trkpt>
      <trkpt lat="48.10777" lon="-3.62994">
        <ele>105</ele>
        <time>2021-08-11T12:14:24Z</time>
      </trkpt>
      <trkpt lat="48.10771" lon="-3.62994">
        <ele>105</ele>
        <time>2021-08-11T12:14:25Z</time>
      </trkpt>
      <trkpt lat="48.10765" lon="-3.62994">
        <ele>105</ele>
        <time>2021-08-11T12:14:26Z</time>
      </trkpt>
      <trkpt lat="48.1076" lon="-3.62994">
        <ele>105</ele>
        <time>2021-08-11T12:14:27Z</time>
      </trkpt>
      <trkpt lat="48.10754" lon="-3.62994">
        <ele>105</ele>
        <time>2021-08-11T12:14:28Z</time>
      </trkpt>
      <trkpt lat="48.10749" lon="-3.62995">
        <ele>105</ele>
        <time>2021-08-11T12:14:29Z</time>
      </trkpt>
      <trkpt lat="48.10744" lon="-3.62995">
        <ele>105</ele>
        <time>2021-08-11T12:14:30Z</time>
      </trkpt>
      <trkpt lat="48.10739" lon="-3.62995">
        <ele>105.2</ele>
        <time>2021-08-11T12:14:31Z</time>
      </trkpt>
      <trkpt lat="48.10734" lon="-3.62996">
        <ele>105</ele>
        <time>2021-08-11T12:14:32Z</time>
      </trkpt>
      <trkpt lat="48.10728" lon="-3.62997">
        <ele>105</ele>
        <time>2021-08-11T12:14:33Z</time>
      </trkpt>
      <trkpt lat="48.10723" lon="-3.62998">
        <ele>105</ele>
        <time>2021-08-11T12:14:34Z</time>
      </trkpt>
      <trkpt lat="48.10718" lon="-3.62999">
        <ele>105</ele>
        <time>2021-08-11T12:14:35Z</time>
      </trkpt>
      <trkpt lat="48.10713" lon="-3.63">
        <ele>105</ele>
        <time>2021-08-11T12:14:36Z</time>
      </trkpt>
      <trkpt lat="48.10708" lon="-3.63001">
        <ele>104.8</ele>
        <time>2021-08-11T12:14:37Z</time>
      </trkpt>
      <trkpt lat="48.10703" lon="-3.63001">
        <ele>104.8</ele>
        <time>2021-08-11T12:14:38Z</time>
      </trkpt>
      <trkpt lat="48.10698" lon="-3.63002">
        <ele>104.8</ele>
        <time>2021-08-11T12:14:39Z</time>
      </trkpt>
      <trkpt lat="48.10693" lon="-3.63002">
        <ele>104.8</ele>
        <time>2021-08-11T12:14:40Z</time>
      </trkpt>
      <trkpt lat="48.10688" lon="-3.63003">
        <ele>104.8</ele>
        <time>2021-08-11T12:14:41Z</time>
      </trkpt>
      <trkpt lat="48.10682" lon="-3.63003">
        <ele>104.8</ele>
        <time>2021-08-11T12:14:42Z</time>
      </trkpt>
      <trkpt lat="48.10677" lon="-3.63003">
        <ele>104.8</ele>
        <time>2021-08-11T12:14:43Z</time>
      </trkpt>
      <trkpt lat="48.10672" lon="-3.63002">
        <ele>104.8</ele>
        <time>2021-08-11T12:14:44Z</time>
      </trkpt>
      <trkpt lat="48.10664" lon="-3.63">
        <ele>104.8</ele>
        <time>2021-08-11T12:14:45Z</time>
      </trkpt>
      <trkpt lat="48.10658" lon="-3.62999">
        <ele>104.8</ele>
        <time>2021-08-11T12:14:46Z</time>
      </trkpt>
      <trkpt lat="48.10652" lon="-3.62998">
        <ele>104.6</ele>
        <time>2021-08-11T12:14:47Z</time>
      </trkpt>
      <trkpt lat="48.10646" lon="-3.62996">
        <ele>104.6</ele>
        <time>2021-08-11T12:14:48Z</time>
      </trkpt>
      <trkpt lat="48.1064" lon="-3.62995">
        <ele>104.6</ele>
        <time>2021-08-11T12:14:49Z</time>
      </trkpt>
      <trkpt lat="48.10635" lon="-3.62994">
        <ele>104.6</ele>
        <time>2021-08-11T12:14:50Z</time>
      </trkpt>
      <trkpt lat="48.10629" lon="-3.62992">
        <ele>104.6</ele>
        <time>2021-08-11T12:14:51Z</time>
      </trkpt>
      <trkpt lat="48.10624" lon="-3.62991">
        <ele>104.6</ele>
        <time>2021-08-11T12:14:52Z</time>
      </trkpt>
      <trkpt lat="48.10618" lon="-3.6299">
        <ele>104.6</ele>
        <time>2021-08-11T12:14:53Z</time>
      </trkpt>
      <trkpt lat="48.10613" lon="-3.62988">
        <ele>104.6</ele>
        <time>2021-08-11T12:14:54Z</time>
      </trkpt>
      <trkpt lat="48.10608" lon="-3.62985">
        <ele>104.8</ele>
        <time>2021-08-11T12:14:55Z</time>
      </trkpt>
      <trkpt lat="48.10602" lon="-3.62984">
        <ele>104.8</ele>
        <time>2021-08-11T12:14:56Z</time>
      </trkpt>
      <trkpt lat="48.10597" lon="-3.62983">
        <ele>104.8</ele>
        <time>2021-08-11T12:14:57Z</time>
      </trkpt>
      <trkpt lat="48.10592" lon="-3.62981">
        <ele>104.8</ele>
        <time>2021-08-11T12:14:58Z</time>
      </trkpt>
      <trkpt lat="48.10587" lon="-3.6298">
        <ele>104.8</ele>
        <time>2021-08-11T12:14:59Z</time>
      </trkpt>
      <trkpt lat="48.10582" lon="-3.62979">
        <ele>104.8</ele>
        <time>2021-08-11T12:15:00Z</time>
      </trkpt>
      <trkpt lat="48.10577" lon="-3.62977">
        <ele>104.8</ele>
        <time>2021-08-11T12:15:01Z</time>
      </trkpt>
      <trkpt lat="48.10573" lon="-3.62975">
        <ele>104.8</ele>
        <time>2021-08-11T12:15:02Z</time>
      </trkpt>
      <trkpt lat="48.10568" lon="-3.62974">
        <ele>104.8</ele>
        <time>2021-08-11T12:15:03Z</time>
      </trkpt>
      <trkpt lat="48.10564" lon="-3.62972">
        <ele>104.8</ele>
        <time>2021-08-11T12:15:04Z</time>
      </trkpt>
      <trkpt lat="48.1056" lon="-3.62971">
        <ele>104.8</ele>
        <time>2021-08-11T12:15:05Z</time>
      </trkpt>
      <trkpt lat="48.10557" lon="-3.62969">
        <ele>104.8</ele>
        <time>2021-08-11T12:15:06Z</time>
      </trkpt>
      <trkpt lat="48.10553" lon="-3.62967">
        <ele>104.8</ele>
        <time>2021-08-11T12:15:07Z</time>
      </trkpt>
      <trkpt lat="48.10549" lon="-3.62965">
        <ele>104.8</ele>
        <time>2021-08-11T12:15:08Z</time>
      </trkpt>
      <trkpt lat="48.10545" lon="-3.62963">
        <ele>104.8</ele>
        <time>2021-08-11T12:15:09Z</time>
      </trkpt>
      <trkpt lat="48.10541" lon="-3.62961">
        <ele>104.8</ele>
        <time>2021-08-11T12:15:10Z</time>
      </trkpt>
      <trkpt lat="48.10537" lon="-3.6296">
        <ele>104.8</ele>
        <time>2021-08-11T12:15:11Z</time>
      </trkpt>
      <trkpt lat="48.10533" lon="-3.62958">
        <ele>104.8</ele>
        <time>2021-08-11T12:15:12Z</time>
      </trkpt>
      <trkpt lat="48.1053" lon="-3.62956">
        <ele>104.8</ele>
        <time>2021-08-11T12:15:13Z</time>
      </trkpt>
      <trkpt lat="48.10527" lon="-3.62954">
        <ele>104.8</ele>
        <time>2021-08-11T12:15:14Z</time>
      </trkpt>
      <trkpt lat="48.10524" lon="-3.62952">
        <ele>104.8</ele>
        <time>2021-08-11T12:15:15Z</time>
      </trkpt>
      <trkpt lat="48.1052" lon="-3.62951">
        <ele>104.8</ele>
        <time>2021-08-11T12:15:16Z</time>
      </trkpt>
      <trkpt lat="48.10517" lon="-3.62951">
        <ele>104.8</ele>
        <time>2021-08-11T12:15:17Z</time>
      </trkpt>
      <trkpt lat="48.10513" lon="-3.6295">
        <ele>104.8</ele>
        <time>2021-08-11T12:15:18Z</time>
      </trkpt>
      <trkpt lat="48.1051" lon="-3.62949">
        <ele>104.8</ele>
        <time>2021-08-11T12:15:19Z</time>
      </trkpt>
      <trkpt lat="48.10507" lon="-3.62948">
        <ele>104.8</ele>
        <time>2021-08-11T12:15:20Z</time>
      </trkpt>
      <trkpt lat="48.10504" lon="-3.62946">
        <ele>104.8</ele>
        <time>2021-08-11T12:15:21Z</time>
      </trkpt>
      <trkpt lat="48.105" lon="-3.62945">
        <ele>104.8</ele>
        <time>2021-08-11T12:15:22Z</time>
      </trkpt>
      <trkpt lat="48.10497" lon="-3.62943">
        <ele>104.8</ele>
        <time>2021-08-11T12:15:23Z</time>
      </trkpt>
      <trkpt lat="48.10493" lon="-3.62941">
        <ele>104.8</ele>
        <time>2021-08-11T12:15:24Z</time>
      </trkpt>
      <trkpt lat="48.1049" lon="-3.62939">
        <ele>104.8</ele>
        <time>2021-08-11T12:15:25Z</time>
      </trkpt>
      <trkpt lat="48.10486" lon="-3.62938">
        <ele>104.8</ele>
        <time>2021-08-11T12:15:26Z</time>
      </trkpt>
      <trkpt lat="48.10482" lon="-3.62937">
        <ele>104.8</ele>
        <time>2021-08-11T12:15:27Z</time>
      </trkpt>
      <trkpt lat="48.10478" lon="-3.62935">
        <ele>104.8</ele>
        <time>2021-08-11T12:15:28Z</time>
      </trkpt>
      <trkpt lat="48.10475" lon="-3.62934">
        <ele>104.8</ele>
        <time>2021-08-11T12:15:29Z</time>
      </trkpt>
      <trkpt lat="48.10471" lon="-3.62932">
        <ele>104.8</ele>
        <time>2021-08-11T12:15:30Z</time>
      </trkpt>
      <trkpt lat="48.10467" lon="-3.62931">
        <ele>104.8</ele>
        <time>2021-08-11T12:15:31Z</time>
      </trkpt>
      <trkpt lat="48.10463" lon="-3.62929">
        <ele>104.8</ele>
        <time>2021-08-11T12:15:32Z</time>
      </trkpt>
      <trkpt lat="48.10459" lon="-3.62928">
        <ele>104.8</ele>
        <time>2021-08-11T12:15:33Z</time>
      </trkpt>
      <trkpt lat="48.10456" lon="-3.62927">
        <ele>104.8</ele>
        <time>2021-08-11T12:15:34Z</time>
      </trkpt>
      <trkpt lat="48.10453" lon="-3.62926">
        <ele>104.8</ele>
        <time>2021-08-11T12:15:35Z</time>
      </trkpt>
      <trkpt lat="48.10449" lon="-3.62926">
        <ele>104.8</ele>
        <time>2021-08-11T12:15:36Z</time>
      </trkpt>
      <trkpt lat="48.10445" lon="-3.62925">
        <ele>104.6</ele>
        <time>2021-08-11T12:15:37Z</time>
      </trkpt>
      <trkpt lat="48.10442" lon="-3.62924">
        <ele>104.6</ele>
        <time>2021-08-11T12:15:38Z</time>
      </trkpt>
      <trkpt lat="48.10437" lon="-3.62923">
        <ele>104.6</ele>
        <time>2021-08-11T12:15:39Z</time>
      </trkpt>
      <trkpt lat="48.10433" lon="-3.62922">
        <ele>104.6</ele>
        <time>2021-08-11T12:15:40Z</time>
      </trkpt>
      <trkpt lat="48.10429" lon="-3.62921">
        <ele>104.6</ele>
        <time>2021-08-11T12:15:41Z</time>
      </trkpt>
      <trkpt lat="48.10424" lon="-3.6292">
        <ele>104.4</ele>
        <time>2021-08-11T12:15:42Z</time>
      </trkpt>
      <trkpt lat="48.10419" lon="-3.62919">
        <ele>104.4</ele>
        <time>2021-08-11T12:15:43Z</time>
      </trkpt>
      <trkpt lat="48.10414" lon="-3.62917">
        <ele>104.4</ele>
        <time>2021-08-11T12:15:44Z</time>
      </trkpt>
      <trkpt lat="48.1041" lon="-3.62915">
        <ele>104.4</ele>
        <time>2021-08-11T12:15:45Z</time>
      </trkpt>
      <trkpt lat="48.10405" lon="-3.62914">
        <ele>104.4</ele>
        <time>2021-08-11T12:15:46Z</time>
      </trkpt>
      <trkpt lat="48.10401" lon="-3.62912">
        <ele>104.4</ele>
        <time>2021-08-11T12:15:47Z</time>
      </trkpt>
      <trkpt lat="48.10396" lon="-3.62911">
        <ele>104.2</ele>
        <time>2021-08-11T12:15:48Z</time>
      </trkpt>
      <trkpt lat="48.10391" lon="-3.62911">
        <ele>104.2</ele>
        <time>2021-08-11T12:15:49Z</time>
      </trkpt>
      <trkpt lat="48.10387" lon="-3.6291">
        <ele>104</ele>
        <time>2021-08-11T12:15:50Z</time>
      </trkpt>
      <trkpt lat="48.10382" lon="-3.62908">
        <ele>103.8</ele>
        <time>2021-08-11T12:15:51Z</time>
      </trkpt>
      <trkpt lat="48.10377" lon="-3.62907">
        <ele>103.8</ele>
        <time>2021-08-11T12:15:52Z</time>
      </trkpt>
      <trkpt lat="48.10372" lon="-3.62905">
        <ele>103.8</ele>
        <time>2021-08-11T12:15:53Z</time>
      </trkpt>
      <trkpt lat="48.10366" lon="-3.62904">
        <ele>103.8</ele>
        <time>2021-08-11T12:15:54Z</time>
      </trkpt>
      <trkpt lat="48.10362" lon="-3.62902">
        <ele>103.8</ele>
        <time>2021-08-11T12:15:55Z</time>
      </trkpt>
      <trkpt lat="48.10357" lon="-3.62901">
        <ele>103.8</ele>
        <time>2021-08-11T12:15:56Z</time>
      </trkpt>
      <trkpt lat="48.10353" lon="-3.62901">
        <ele>103.6</ele>
        <time>2021-08-11T12:15:57Z</time>
      </trkpt>
      <trkpt lat="48.10349" lon="-3.62901">
        <ele>103.6</ele>
        <time>2021-08-11T12:15:58Z</time>
      </trkpt>
      <trkpt lat="48.10345" lon="-3.62901">
        <ele>103.6</ele>
        <time>2021-08-11T12:15:59Z</time>
      </trkpt>
      <trkpt lat="48.10341" lon="-3.62901">
        <ele>103.6</ele>
        <time>2021-08-11T12:16:00Z</time>
      </trkpt>
      <trkpt lat="48.10337" lon="-3.62902">
        <ele>103.6</ele>
        <time>2021-08-11T12:16:01Z</time>
      </trkpt>
      <trkpt lat="48.10332" lon="-3.62902">
        <ele>103.6</ele>
        <time>2021-08-11T12:16:02Z</time>
      </trkpt>
      <trkpt lat="48.10328" lon="-3.62902">
        <ele>103.6</ele>
        <time>2021-08-11T12:16:03Z</time>
      </trkpt>
      <trkpt lat="48.10323" lon="-3.62902">
        <ele>103.6</ele>
        <time>2021-08-11T12:16:04Z</time>
      </trkpt>
      <trkpt lat="48.10319" lon="-3.62902">
        <ele>103.6</ele>
        <time>2021-08-11T12:16:05Z</time>
      </trkpt>
      <trkpt lat="48.10315" lon="-3.62902">
        <ele>103.4</ele>
        <time>2021-08-11T12:16:06Z</time>
      </trkpt>
      <trkpt lat="48.1031" lon="-3.62902">
        <ele>103.4</ele>
        <time>2021-08-11T12:16:07Z</time>
      </trkpt>
      <trkpt lat="48.10305" lon="-3.62902">
        <ele>103.4</ele>
        <time>2021-08-11T12:16:08Z</time>
      </trkpt>
      <trkpt lat="48.10301" lon="-3.62902">
        <ele>103.4</ele>
        <time>2021-08-11T12:16:09Z</time>
      </trkpt>
      <trkpt lat="48.10296" lon="-3.62902">
        <ele>103.4</ele>
        <time>2021-08-11T12:16:10Z</time>
      </trkpt>
      <trkpt lat="48.10291" lon="-3.62903">
        <ele>103.4</ele>
        <time>2021-08-11T12:16:11Z</time>
      </trkpt>
      <trkpt lat="48.10286" lon="-3.62904">
        <ele>103.4</ele>
        <time>2021-08-11T12:16:12Z</time>
      </trkpt>
      <trkpt lat="48.10281" lon="-3.62903">
        <ele>103.6</ele>
        <time>2021-08-11T12:16:13Z</time>
      </trkpt>
      <trkpt lat="48.10276" lon="-3.62904">
        <ele>103.4</ele>
        <time>2021-08-11T12:16:14Z</time>
      </trkpt>
      <trkpt lat="48.10271" lon="-3.62904">
        <ele>103.4</ele>
        <time>2021-08-11T12:16:15Z</time>
      </trkpt>
      <trkpt lat="48.10266" lon="-3.62904">
        <ele>103.4</ele>
        <time>2021-08-11T12:16:16Z</time>
      </trkpt>
      <trkpt lat="48.10262" lon="-3.62906">
        <ele>103.4</ele>
        <time>2021-08-11T12:16:17Z</time>
      </trkpt>
      <trkpt lat="48.10258" lon="-3.62907">
        <ele>103.4</ele>
        <time>2021-08-11T12:16:18Z</time>
      </trkpt>
      <trkpt lat="48.10253" lon="-3.62908">
        <ele>103.2</ele>
        <time>2021-08-11T12:16:19Z</time>
      </trkpt>
      <trkpt lat="48.10249" lon="-3.6291">
        <ele>103.2</ele>
        <time>2021-08-11T12:16:20Z</time>
      </trkpt>
      <trkpt lat="48.10245" lon="-3.6291">
        <ele>103.2</ele>
        <time>2021-08-11T12:16:21Z</time>
      </trkpt>
      <trkpt lat="48.1024" lon="-3.62911">
        <ele>103</ele>
        <time>2021-08-11T12:16:22Z</time>
      </trkpt>
      <trkpt lat="48.10236" lon="-3.62912">
        <ele>102.8</ele>
        <time>2021-08-11T12:16:23Z</time>
      </trkpt>
      <trkpt lat="48.10231" lon="-3.62912">
        <ele>102.6</ele>
        <time>2021-08-11T12:16:24Z</time>
      </trkpt>
      <trkpt lat="48.10226" lon="-3.62914">
        <ele>102.6</ele>
        <time>2021-08-11T12:16:25Z</time>
      </trkpt>
      <trkpt lat="48.10221" lon="-3.62915">
        <ele>102.4</ele>
        <time>2021-08-11T12:16:26Z</time>
      </trkpt>
      <trkpt lat="48.10217" lon="-3.62917">
        <ele>102.4</ele>
        <time>2021-08-11T12:16:27Z</time>
      </trkpt>
      <trkpt lat="48.10211" lon="-3.62918">
        <ele>102.4</ele>
        <time>2021-08-11T12:16:28Z</time>
      </trkpt>
      <trkpt lat="48.10207" lon="-3.62921">
        <ele>102.2</ele>
        <time>2021-08-11T12:16:29Z</time>
      </trkpt>
      <trkpt lat="48.10203" lon="-3.62923">
        <ele>102.2</ele>
        <time>2021-08-11T12:16:30Z</time>
      </trkpt>
      <trkpt lat="48.10198" lon="-3.62924">
        <ele>102.2</ele>
        <time>2021-08-11T12:16:31Z</time>
      </trkpt>
      <trkpt lat="48.10194" lon="-3.62926">
        <ele>102.2</ele>
        <time>2021-08-11T12:16:32Z</time>
      </trkpt>
      <trkpt lat="48.1019" lon="-3.62928">
        <ele>102.2</ele>
        <time>2021-08-11T12:16:33Z</time>
      </trkpt>
      <trkpt lat="48.10185" lon="-3.6293">
        <ele>102</ele>
        <time>2021-08-11T12:16:34Z</time>
      </trkpt>
      <trkpt lat="48.10181" lon="-3.62933">
        <ele>102</ele>
        <time>2021-08-11T12:16:35Z</time>
      </trkpt>
      <trkpt lat="48.10177" lon="-3.62935">
        <ele>102</ele>
        <time>2021-08-11T12:16:36Z</time>
      </trkpt>
      <trkpt lat="48.10173" lon="-3.62937">
        <ele>102</ele>
        <time>2021-08-11T12:16:37Z</time>
      </trkpt>
      <trkpt lat="48.10169" lon="-3.62939">
        <ele>101.8</ele>
        <time>2021-08-11T12:16:38Z</time>
      </trkpt>
      <trkpt lat="48.10164" lon="-3.62942">
        <ele>101.8</ele>
        <time>2021-08-11T12:16:39Z</time>
      </trkpt>
      <trkpt lat="48.10159" lon="-3.62944">
        <ele>101.8</ele>
        <time>2021-08-11T12:16:40Z</time>
      </trkpt>
      <trkpt lat="48.10154" lon="-3.62947">
        <ele>101.6</ele>
        <time>2021-08-11T12:16:41Z</time>
      </trkpt>
      <trkpt lat="48.10149" lon="-3.6295">
        <ele>101.6</ele>
        <time>2021-08-11T12:16:42Z</time>
      </trkpt>
      <trkpt lat="48.10143" lon="-3.62952">
        <ele>101.6</ele>
        <time>2021-08-11T12:16:43Z</time>
      </trkpt>
      <trkpt lat="48.10138" lon="-3.62954">
        <ele>101.6</ele>
        <time>2021-08-11T12:16:44Z</time>
      </trkpt>
      <trkpt lat="48.10133" lon="-3.62956">
        <ele>101.6</ele>
        <time>2021-08-11T12:16:45Z</time>
      </trkpt>
      <trkpt lat="48.10128" lon="-3.62958">
        <ele>101.4</ele>
        <time>2021-08-11T12:16:46Z</time>
      </trkpt>
      <trkpt lat="48.10123" lon="-3.62961">
        <ele>101.4</ele>
        <time>2021-08-11T12:16:47Z</time>
      </trkpt>
      <trkpt lat="48.10117" lon="-3.62964">
        <ele>101.2</ele>
        <time>2021-08-11T12:16:48Z</time>
      </trkpt>
      <trkpt lat="48.10112" lon="-3.62967">
        <ele>101</ele>
        <time>2021-08-11T12:16:49Z</time>
      </trkpt>
      <trkpt lat="48.10108" lon="-3.62971">
        <ele>101</ele>
        <time>2021-08-11T12:16:50Z</time>
      </trkpt>
      <trkpt lat="48.10103" lon="-3.62974">
        <ele>101</ele>
        <time>2021-08-11T12:16:51Z</time>
      </trkpt>
      <trkpt lat="48.10099" lon="-3.62978">
        <ele>101</ele>
        <time>2021-08-11T12:16:52Z</time>
      </trkpt>
      <trkpt lat="48.10094" lon="-3.62981">
        <ele>101</ele>
        <time>2021-08-11T12:16:53Z</time>
      </trkpt>
      <trkpt lat="48.10089" lon="-3.62985">
        <ele>100.8</ele>
        <time>2021-08-11T12:16:54Z</time>
      </trkpt>
      <trkpt lat="48.10085" lon="-3.62989">
        <ele>100.8</ele>
        <time>2021-08-11T12:16:55Z</time>
      </trkpt>
      <trkpt lat="48.10081" lon="-3.62993">
        <ele>100.8</ele>
        <time>2021-08-11T12:16:56Z</time>
      </trkpt>
      <trkpt lat="48.10077" lon="-3.62997">
        <ele>100.8</ele>
        <time>2021-08-11T12:16:57Z</time>
      </trkpt>
      <trkpt lat="48.10073" lon="-3.63001">
        <ele>100.8</ele>
        <time>2021-08-11T12:16:58Z</time>
      </trkpt>
      <trkpt lat="48.1007" lon="-3.63005">
        <ele>100.6</ele>
        <time>2021-08-11T12:16:59Z</time>
      </trkpt>
      <trkpt lat="48.10066" lon="-3.63009">
        <ele>100.6</ele>
        <time>2021-08-11T12:17:00Z</time>
      </trkpt>
      <trkpt lat="48.10062" lon="-3.63012">
        <ele>100.6</ele>
        <time>2021-08-11T12:17:01Z</time>
      </trkpt>
      <trkpt lat="48.10058" lon="-3.63016">
        <ele>100.6</ele>
        <time>2021-08-11T12:17:02Z</time>
      </trkpt>
      <trkpt lat="48.10054" lon="-3.6302">
        <ele>100.6</ele>
        <time>2021-08-11T12:17:03Z</time>
      </trkpt>
      <trkpt lat="48.10051" lon="-3.63024">
        <ele>100.6</ele>
        <time>2021-08-11T12:17:04Z</time>
      </trkpt>
      <trkpt lat="48.10047" lon="-3.63028">
        <ele>100.6</ele>
        <time>2021-08-11T12:17:05Z</time>
      </trkpt>
      <trkpt lat="48.10043" lon="-3.63032">
        <ele>100.6</ele>
        <time>2021-08-11T12:17:06Z</time>
      </trkpt>
      <trkpt lat="48.10039" lon="-3.63036">
        <ele>100.6</ele>
        <time>2021-08-11T12:17:07Z</time>
      </trkpt>
      <trkpt lat="48.10036" lon="-3.63039">
        <ele>100.6</ele>
        <time>2021-08-11T12:17:08Z</time>
      </trkpt>
      <trkpt lat="48.10032" lon="-3.63043">
        <ele>100.6</ele>
        <time>2021-08-11T12:17:09Z</time>
      </trkpt>
      <trkpt lat="48.10029" lon="-3.63047">
        <ele>100.6</ele>
        <time>2021-08-11T12:17:10Z</time>
      </trkpt>
      <trkpt lat="48.10025" lon="-3.63051">
        <ele>100.6</ele>
        <time>2021-08-11T12:17:11Z</time>
      </trkpt>
      <trkpt lat="48.10021" lon="-3.63054">
        <ele>100.6</ele>
        <time>2021-08-11T12:17:12Z</time>
      </trkpt>
      <trkpt lat="48.10018" lon="-3.63058">
        <ele>100.6</ele>
        <time>2021-08-11T12:17:13Z</time>
      </trkpt>
      <trkpt lat="48.10014" lon="-3.63062">
        <ele>100.6</ele>
        <time>2021-08-11T12:17:14Z</time>
      </trkpt>
      <trkpt lat="48.1001" lon="-3.63066">
        <ele>100.8</ele>
        <time>2021-08-11T12:17:15Z</time>
      </trkpt>
      <trkpt lat="48.10007" lon="-3.6307">
        <ele>100.8</ele>
        <time>2021-08-11T12:17:16Z</time>
      </trkpt>
      <trkpt lat="48.10004" lon="-3.63074">
        <ele>100.8</ele>
        <time>2021-08-11T12:17:17Z</time>
      </trkpt>
      <trkpt lat="48.1" lon="-3.63078">
        <ele>100.8</ele>
        <time>2021-08-11T12:17:18Z</time>
      </trkpt>
      <trkpt lat="48.09997" lon="-3.63082">
        <ele>100.8</ele>
        <time>2021-08-11T12:17:19Z</time>
      </trkpt>
      <trkpt lat="48.09993" lon="-3.63085">
        <ele>101</ele>
        <time>2021-08-11T12:17:20Z</time>
      </trkpt>
      <trkpt lat="48.0999" lon="-3.63089">
        <ele>101</ele>
        <time>2021-08-11T12:17:21Z</time>
      </trkpt>
      <trkpt lat="48.09986" lon="-3.63093">
        <ele>101</ele>
        <time>2021-08-11T12:17:22Z</time>
      </trkpt>
      <trkpt lat="48.09983" lon="-3.63097">
        <ele>101</ele>
        <time>2021-08-11T12:17:23Z</time>
      </trkpt>
      <trkpt lat="48.09979" lon="-3.63102">
        <ele>101</ele>
        <time>2021-08-11T12:17:24Z</time>
      </trkpt>
      <trkpt lat="48.09975" lon="-3.63106">
        <ele>101</ele>
        <time>2021-08-11T12:17:25Z</time>
      </trkpt>
      <trkpt lat="48.09971" lon="-3.63111">
        <ele>101</ele>
        <time>2021-08-11T12:17:26Z</time>
      </trkpt>
      <trkpt lat="48.09967" lon="-3.63115">
        <ele>101</ele>
        <time>2021-08-11T12:17:27Z</time>
      </trkpt>
      <trkpt lat="48.09964" lon="-3.6312">
        <ele>101</ele>
        <time>2021-08-11T12:17:28Z</time>
      </trkpt>
      <trkpt lat="48.0996" lon="-3.63124">
        <ele>100.8</ele>
        <time>2021-08-11T12:17:29Z</time>
      </trkpt>
      <trkpt lat="48.09956" lon="-3.63129">
        <ele>100.8</ele>
        <time>2021-08-11T12:17:30Z</time>
      </trkpt>
      <trkpt lat="48.09952" lon="-3.63133">
        <ele>100.8</ele>
        <time>2021-08-11T12:17:31Z</time>
      </trkpt>
      <trkpt lat="48.09948" lon="-3.63137">
        <ele>100.8</ele>
        <time>2021-08-11T12:17:32Z</time>
      </trkpt>
      <trkpt lat="48.09945" lon="-3.63141">
        <ele>101</ele>
        <time>2021-08-11T12:17:33Z</time>
      </trkpt>
      <trkpt lat="48.09941" lon="-3.63145">
        <ele>101</ele>
        <time>2021-08-11T12:17:34Z</time>
      </trkpt>
      <trkpt lat="48.09937" lon="-3.6315">
        <ele>101</ele>
        <time>2021-08-11T12:17:35Z</time>
      </trkpt>
      <trkpt lat="48.09933" lon="-3.63154">
        <ele>101</ele>
        <time>2021-08-11T12:17:36Z</time>
      </trkpt>
      <trkpt lat="48.09929" lon="-3.63158">
        <ele>101</ele>
        <time>2021-08-11T12:17:37Z</time>
      </trkpt>
      <trkpt lat="48.09925" lon="-3.63163">
        <ele>101</ele>
        <time>2021-08-11T12:17:38Z</time>
      </trkpt>
      <trkpt lat="48.09921" lon="-3.63167">
        <ele>101</ele>
        <time>2021-08-11T12:17:39Z</time>
      </trkpt>
      <trkpt lat="48.09918" lon="-3.63172">
        <ele>101</ele>
        <time>2021-08-11T12:17:40Z</time>
      </trkpt>
      <trkpt lat="48.09914" lon="-3.63176">
        <ele>101</ele>
        <time>2021-08-11T12:17:41Z</time>
      </trkpt>
      <trkpt lat="48.0991" lon="-3.63181">
        <ele>101</ele>
        <time>2021-08-11T12:17:42Z</time>
      </trkpt>
      <trkpt lat="48.09907" lon="-3.63186">
        <ele>101</ele>
        <time>2021-08-11T12:17:43Z</time>
      </trkpt>
      <trkpt lat="48.09903" lon="-3.6319">
        <ele>101</ele>
        <time>2021-08-11T12:17:44Z</time>
      </trkpt>
      <trkpt lat="48.099" lon="-3.63194">
        <ele>101</ele>
        <time>2021-08-11T12:17:45Z</time>
      </trkpt>
      <trkpt lat="48.09897" lon="-3.63199">
        <ele>101</ele>
        <time>2021-08-11T12:17:46Z</time>
      </trkpt>
      <trkpt lat="48.09893" lon="-3.63203">
        <ele>101</ele>
        <time>2021-08-11T12:17:47Z</time>
      </trkpt>
      <trkpt lat="48.09889" lon="-3.63208">
        <ele>101</ele>
        <time>2021-08-11T12:17:48Z</time>
      </trkpt>
      <trkpt lat="48.09885" lon="-3.63212">
        <ele>101</ele>
        <time>2021-08-11T12:17:49Z</time>
      </trkpt>
      <trkpt lat="48.09882" lon="-3.63216">
        <ele>101</ele>
        <time>2021-08-11T12:17:50Z</time>
      </trkpt>
      <trkpt lat="48.09878" lon="-3.63221">
        <ele>100.8</ele>
        <time>2021-08-11T12:17:51Z</time>
      </trkpt>
      <trkpt lat="48.09875" lon="-3.63225">
        <ele>100.8</ele>
        <time>2021-08-11T12:17:52Z</time>
      </trkpt>
      <trkpt lat="48.09871" lon="-3.6323">
        <ele>100.8</ele>
        <time>2021-08-11T12:17:53Z</time>
      </trkpt>
      <trkpt lat="48.09867" lon="-3.63234">
        <ele>100.8</ele>
        <time>2021-08-11T12:17:54Z</time>
      </trkpt>
      <trkpt lat="48.09864" lon="-3.63239">
        <ele>100.8</ele>
        <time>2021-08-11T12:17:55Z</time>
      </trkpt>
      <trkpt lat="48.0986" lon="-3.63243">
        <ele>100.8</ele>
        <time>2021-08-11T12:17:56Z</time>
      </trkpt>
      <trkpt lat="48.09857" lon="-3.63247">
        <ele>100.8</ele>
        <time>2021-08-11T12:17:57Z</time>
      </trkpt>
      <trkpt lat="48.09853" lon="-3.63251">
        <ele>100.8</ele>
        <time>2021-08-11T12:17:58Z</time>
      </trkpt>
      <trkpt lat="48.09849" lon="-3.63254">
        <ele>100.8</ele>
        <time>2021-08-11T12:17:59Z</time>
      </trkpt>
      <trkpt lat="48.09846" lon="-3.63258">
        <ele>100.8</ele>
        <time>2021-08-11T12:18:00Z</time>
      </trkpt>
      <trkpt lat="48.09843" lon="-3.63262">
        <ele>100.8</ele>
        <time>2021-08-11T12:18:01Z</time>
      </trkpt>
      <trkpt lat="48.0984" lon="-3.63266">
        <ele>100.8</ele>
        <time>2021-08-11T12:18:02Z</time>
      </trkpt>
      <trkpt lat="48.09837" lon="-3.63269">
        <ele>100.8</ele>
        <time>2021-08-11T12:18:03Z</time>
      </trkpt>
      <trkpt lat="48.09835" lon="-3.63272">
        <ele>100.8</ele>
        <time>2021-08-11T12:18:04Z</time>
      </trkpt>
      <trkpt lat="48.09832" lon="-3.63276">
        <ele>100.8</ele>
        <time>2021-08-11T12:18:05Z</time>
      </trkpt>
      <trkpt lat="48.09829" lon="-3.63279">
        <ele>101</ele>
        <time>2021-08-11T12:18:06Z</time>
      </trkpt>
      <trkpt lat="48.09826" lon="-3.63283">
        <ele>101</ele>
        <time>2021-08-11T12:18:07Z</time>
      </trkpt>
      <trkpt lat="48.09823" lon="-3.63286">
        <ele>101</ele>
        <time>2021-08-11T12:18:08Z</time>
      </trkpt>
      <trkpt lat="48.0982" lon="-3.6329">
        <ele>101.2</ele>
        <time>2021-08-11T12:18:09Z</time>
      </trkpt>
      <trkpt lat="48.09817" lon="-3.63294">
        <ele>101.2</ele>
        <time>2021-08-11T12:18:10Z</time>
      </trkpt>
      <trkpt lat="48.09813" lon="-3.63298">
        <ele>101.2</ele>
        <time>2021-08-11T12:18:11Z</time>
      </trkpt>
      <trkpt lat="48.0981" lon="-3.63301">
        <ele>101.2</ele>
        <time>2021-08-11T12:18:12Z</time>
      </trkpt>
      <trkpt lat="48.09807" lon="-3.63305">
        <ele>101.4</ele>
        <time>2021-08-11T12:18:13Z</time>
      </trkpt>
      <trkpt lat="48.09804" lon="-3.63309">
        <ele>101.8</ele>
        <time>2021-08-11T12:18:14Z</time>
      </trkpt>
      <trkpt lat="48.09801" lon="-3.63313">
        <ele>102</ele>
        <time>2021-08-11T12:18:15Z</time>
      </trkpt>
      <trkpt lat="48.09798" lon="-3.63317">
        <ele>102.2</ele>
        <time>2021-08-11T12:18:16Z</time>
      </trkpt>
      <trkpt lat="48.09795" lon="-3.6332">
        <ele>102.4</ele>
        <time>2021-08-11T12:18:17Z</time>
      </trkpt>
      <trkpt lat="48.09793" lon="-3.63324">
        <ele>102.4</ele>
        <time>2021-08-11T12:18:18Z</time>
      </trkpt>
      <trkpt lat="48.0979" lon="-3.63327">
        <ele>102.6</ele>
        <time>2021-08-11T12:18:19Z</time>
      </trkpt>
      <trkpt lat="48.09787" lon="-3.6333">
        <ele>102.6</ele>
        <time>2021-08-11T12:18:20Z</time>
      </trkpt>
      <trkpt lat="48.09784" lon="-3.63333">
        <ele>102.8</ele>
        <time>2021-08-11T12:18:21Z</time>
      </trkpt>
      <trkpt lat="48.09781" lon="-3.63337">
        <ele>103</ele>
        <time>2021-08-11T12:18:22Z</time>
      </trkpt>
      <trkpt lat="48.09778" lon="-3.6334">
        <ele>103</ele>
        <time>2021-08-11T12:18:23Z</time>
      </trkpt>
      <trkpt lat="48.09776" lon="-3.63344">
        <ele>103.2</ele>
        <time>2021-08-11T12:18:24Z</time>
      </trkpt>
      <trkpt lat="48.09773" lon="-3.63348">
        <ele>103.4</ele>
        <time>2021-08-11T12:18:25Z</time>
      </trkpt>
      <trkpt lat="48.0977" lon="-3.63351">
        <ele>103.4</ele>
        <time>2021-08-11T12:18:26Z</time>
      </trkpt>
      <trkpt lat="48.09767" lon="-3.63355">
        <ele>103.4</ele>
        <time>2021-08-11T12:18:27Z</time>
      </trkpt>
      <trkpt lat="48.09765" lon="-3.63358">
        <ele>103.4</ele>
        <time>2021-08-11T12:18:28Z</time>
      </trkpt>
      <trkpt lat="48.09762" lon="-3.63361">
        <ele>103.6</ele>
        <time>2021-08-11T12:18:29Z</time>
      </trkpt>
      <trkpt lat="48.09759" lon="-3.63365">
        <ele>103.6</ele>
        <time>2021-08-11T12:18:30Z</time>
      </trkpt>
      <trkpt lat="48.09757" lon="-3.63367">
        <ele>103.6</ele>
        <time>2021-08-11T12:18:31Z</time>
      </trkpt>
      <trkpt lat="48.09755" lon="-3.63369">
        <ele>103.6</ele>
        <time>2021-08-11T12:18:32Z</time>
      </trkpt>
      <trkpt lat="48.09752" lon="-3.63372">
        <ele>103.8</ele>
        <time>2021-08-11T12:18:33Z</time>
      </trkpt>
      <trkpt lat="48.0975" lon="-3.63374">
        <ele>104</ele>
        <time>2021-08-11T12:18:34Z</time>
      </trkpt>
      <trkpt lat="48.09747" lon="-3.63377">
        <ele>104</ele>
        <time>2021-08-11T12:18:35Z</time>
      </trkpt>
      <trkpt lat="48.09744" lon="-3.6338">
        <ele>104.2</ele>
        <time>2021-08-11T12:18:36Z</time>
      </trkpt>
      <trkpt lat="48.09741" lon="-3.63382">
        <ele>104.2</ele>
        <time>2021-08-11T12:18:37Z</time>
      </trkpt>
      <trkpt lat="48.09738" lon="-3.63385">
        <ele>104.2</ele>
        <time>2021-08-11T12:18:38Z</time>
      </trkpt>
      <trkpt lat="48.09735" lon="-3.63388">
        <ele>104.2</ele>
        <time>2021-08-11T12:18:39Z</time>
      </trkpt>
      <trkpt lat="48.09733" lon="-3.6339">
        <ele>104.4</ele>
        <time>2021-08-11T12:18:40Z</time>
      </trkpt>
      <trkpt lat="48.0973" lon="-3.63392">
        <ele>104.6</ele>
        <time>2021-08-11T12:18:41Z</time>
      </trkpt>
      <trkpt lat="48.09727" lon="-3.63394">
        <ele>104.6</ele>
        <time>2021-08-11T12:18:42Z</time>
      </trkpt>
      <trkpt lat="48.09725" lon="-3.63396">
        <ele>104.8</ele>
        <time>2021-08-11T12:18:43Z</time>
      </trkpt>
      <trkpt lat="48.09723" lon="-3.63398">
        <ele>104.8</ele>
        <time>2021-08-11T12:18:44Z</time>
      </trkpt>
      <trkpt lat="48.0972" lon="-3.634">
        <ele>105</ele>
        <time>2021-08-11T12:18:45Z</time>
      </trkpt>
      <trkpt lat="48.09719" lon="-3.63402">
        <ele>105.4</ele>
        <time>2021-08-11T12:18:46Z</time>
      </trkpt>
      <trkpt lat="48.09717" lon="-3.63403">
        <ele>105.4</ele>
        <time>2021-08-11T12:18:47Z</time>
      </trkpt>
      <trkpt lat="48.09714" lon="-3.63405">
        <ele>105.6</ele>
        <time>2021-08-11T12:18:48Z</time>
      </trkpt>
      <trkpt lat="48.09712" lon="-3.63408">
        <ele>105.6</ele>
        <time>2021-08-11T12:18:49Z</time>
      </trkpt>
      <trkpt lat="48.0971" lon="-3.63409">
        <ele>105.6</ele>
        <time>2021-08-11T12:18:50Z</time>
      </trkpt>
      <trkpt lat="48.09707" lon="-3.63411">
        <ele>105.6</ele>
        <time>2021-08-11T12:18:51Z</time>
      </trkpt>
      <trkpt lat="48.09705" lon="-3.63413">
        <ele>105.8</ele>
        <time>2021-08-11T12:18:52Z</time>
      </trkpt>
      <trkpt lat="48.09702" lon="-3.63415">
        <ele>105.8</ele>
        <time>2021-08-11T12:18:53Z</time>
      </trkpt>
      <trkpt lat="48.09699" lon="-3.63417">
        <ele>105.8</ele>
        <time>2021-08-11T12:18:54Z</time>
      </trkpt>
      <trkpt lat="48.09695" lon="-3.63419">
        <ele>105.8</ele>
        <time>2021-08-11T12:18:55Z</time>
      </trkpt>
      <trkpt lat="48.09692" lon="-3.63421">
        <ele>106</ele>
        <time>2021-08-11T12:18:56Z</time>
      </trkpt>
      <trkpt lat="48.09689" lon="-3.63423">
        <ele>106</ele>
        <time>2021-08-11T12:18:57Z</time>
      </trkpt>
      <trkpt lat="48.09685" lon="-3.63425">
        <ele>106</ele>
        <time>2021-08-11T12:18:58Z</time>
      </trkpt>
      <trkpt lat="48.09683" lon="-3.63427">
        <ele>106</ele>
        <time>2021-08-11T12:18:59Z</time>
      </trkpt>
      <trkpt lat="48.09679" lon="-3.63429">
        <ele>106</ele>
        <time>2021-08-11T12:19:00Z</time>
      </trkpt>
      <trkpt lat="48.09676" lon="-3.63431">
        <ele>106</ele>
        <time>2021-08-11T12:19:01Z</time>
      </trkpt>
      <trkpt lat="48.09674" lon="-3.63433">
        <ele>106.2</ele>
        <time>2021-08-11T12:19:02Z</time>
      </trkpt>
      <trkpt lat="48.09671" lon="-3.63435">
        <ele>106.2</ele>
        <time>2021-08-11T12:19:03Z</time>
      </trkpt>
      <trkpt lat="48.09668" lon="-3.63437">
        <ele>106.2</ele>
        <time>2021-08-11T12:19:04Z</time>
      </trkpt>
      <trkpt lat="48.09665" lon="-3.63439">
        <ele>106.2</ele>
        <time>2021-08-11T12:19:05Z</time>
      </trkpt>
      <trkpt lat="48.09662" lon="-3.6344">
        <ele>106.2</ele>
        <time>2021-08-11T12:19:06Z</time>
      </trkpt>
      <trkpt lat="48.0966" lon="-3.63442">
        <ele>106.2</ele>
        <time>2021-08-11T12:19:07Z</time>
      </trkpt>
      <trkpt lat="48.09657" lon="-3.63444">
        <ele>106.4</ele>
        <time>2021-08-11T12:19:08Z</time>
      </trkpt>
      <trkpt lat="48.09654" lon="-3.63446">
        <ele>106.6</ele>
        <time>2021-08-11T12:19:09Z</time>
      </trkpt>
      <trkpt lat="48.09652" lon="-3.63448">
        <ele>106.8</ele>
        <time>2021-08-11T12:19:10Z</time>
      </trkpt>
      <trkpt lat="48.09649" lon="-3.63449">
        <ele>106.8</ele>
        <time>2021-08-11T12:19:11Z</time>
      </trkpt>
      <trkpt lat="48.09646" lon="-3.6345">
        <ele>106.8</ele>
        <time>2021-08-11T12:19:12Z</time>
      </trkpt>
      <trkpt lat="48.09643" lon="-3.63452">
        <ele>106.8</ele>
        <time>2021-08-11T12:19:13Z</time>
      </trkpt>
      <trkpt lat="48.0964" lon="-3.63453">
        <ele>107</ele>
        <time>2021-08-11T12:19:14Z</time>
      </trkpt>
      <trkpt lat="48.09637" lon="-3.63453">
        <ele>107.2</ele>
        <time>2021-08-11T12:19:15Z</time>
      </trkpt>
      <trkpt lat="48.09633" lon="-3.63454">
        <ele>107.4</ele>
        <time>2021-08-11T12:19:16Z</time>
      </trkpt>
      <trkpt lat="48.09629" lon="-3.63454">
        <ele>107.4</ele>
        <time>2021-08-11T12:19:17Z</time>
      </trkpt>
      <trkpt lat="48.09625" lon="-3.63455">
        <ele>107.4</ele>
        <time>2021-08-11T12:19:18Z</time>
      </trkpt>
      <trkpt lat="48.09622" lon="-3.63456">
        <ele>107.4</ele>
        <time>2021-08-11T12:19:19Z</time>
      </trkpt>
      <trkpt lat="48.09618" lon="-3.63457">
        <ele>107.4</ele>
        <time>2021-08-11T12:19:20Z</time>
      </trkpt>
      <trkpt lat="48.09615" lon="-3.63459">
        <ele>107.4</ele>
        <time>2021-08-11T12:19:21Z</time>
      </trkpt>
      <trkpt lat="48.09612" lon="-3.63459">
        <ele>107.6</ele>
        <time>2021-08-11T12:19:22Z</time>
      </trkpt>
      <trkpt lat="48.09609" lon="-3.63461">
        <ele>107.6</ele>
        <time>2021-08-11T12:19:23Z</time>
      </trkpt>
      <trkpt lat="48.09605" lon="-3.63461">
        <ele>107.6</ele>
        <time>2021-08-11T12:19:24Z</time>
      </trkpt>
      <trkpt lat="48.09603" lon="-3.63462">
        <ele>107.6</ele>
        <time>2021-08-11T12:19:25Z</time>
      </trkpt>
      <trkpt lat="48.096" lon="-3.63464">
        <ele>107.6</ele>
        <time>2021-08-11T12:19:26Z</time>
      </trkpt>
      <trkpt lat="48.09597" lon="-3.63465">
        <ele>107.6</ele>
        <time>2021-08-11T12:19:27Z</time>
      </trkpt>
      <trkpt lat="48.09594" lon="-3.63466">
        <ele>107.6</ele>
        <time>2021-08-11T12:19:28Z</time>
      </trkpt>
      <trkpt lat="48.09591" lon="-3.63468">
        <ele>107.6</ele>
        <time>2021-08-11T12:19:29Z</time>
      </trkpt>
      <trkpt lat="48.09588" lon="-3.63469">
        <ele>107.6</ele>
        <time>2021-08-11T12:19:30Z</time>
      </trkpt>
      <trkpt lat="48.09585" lon="-3.6347">
        <ele>107.8</ele>
        <time>2021-08-11T12:19:31Z</time>
      </trkpt>
      <trkpt lat="48.09583" lon="-3.63471">
        <ele>107.8</ele>
        <time>2021-08-11T12:19:32Z</time>
      </trkpt>
      <trkpt lat="48.0958" lon="-3.63471">
        <ele>107.8</ele>
        <time>2021-08-11T12:19:33Z</time>
      </trkpt>
      <trkpt lat="48.09577" lon="-3.63473">
        <ele>107.8</ele>
        <time>2021-08-11T12:19:34Z</time>
      </trkpt>
      <trkpt lat="48.09574" lon="-3.63473">
        <ele>107.8</ele>
        <time>2021-08-11T12:19:35Z</time>
      </trkpt>
      <trkpt lat="48.0957" lon="-3.63474">
        <ele>107.8</ele>
        <time>2021-08-11T12:19:36Z</time>
      </trkpt>
      <trkpt lat="48.09567" lon="-3.63476">
        <ele>108</ele>
        <time>2021-08-11T12:19:37Z</time>
      </trkpt>
      <trkpt lat="48.09564" lon="-3.63478">
        <ele>108</ele>
        <time>2021-08-11T12:19:38Z</time>
      </trkpt>
      <trkpt lat="48.09561" lon="-3.63479">
        <ele>108</ele>
        <time>2021-08-11T12:19:39Z</time>
      </trkpt>
      <trkpt lat="48.09557" lon="-3.6348">
        <ele>108</ele>
        <time>2021-08-11T12:19:40Z</time>
      </trkpt>
      <trkpt lat="48.09554" lon="-3.63481">
        <ele>108.2</ele>
        <time>2021-08-11T12:19:41Z</time>
      </trkpt>
      <trkpt lat="48.09551" lon="-3.63482">
        <ele>108.2</ele>
        <time>2021-08-11T12:19:42Z</time>
      </trkpt>
      <trkpt lat="48.09547" lon="-3.63483">
        <ele>108.2</ele>
        <time>2021-08-11T12:19:43Z</time>
      </trkpt>
      <trkpt lat="48.09542" lon="-3.63484">
        <ele>108.2</ele>
        <time>2021-08-11T12:19:44Z</time>
      </trkpt>
      <trkpt lat="48.09538" lon="-3.63485">
        <ele>108.6</ele>
        <time>2021-08-11T12:19:45Z</time>
      </trkpt>
      <trkpt lat="48.09535" lon="-3.63486">
        <ele>108.6</ele>
        <time>2021-08-11T12:19:46Z</time>
      </trkpt>
      <trkpt lat="48.09531" lon="-3.63486">
        <ele>108.8</ele>
        <time>2021-08-11T12:19:47Z</time>
      </trkpt>
      <trkpt lat="48.09528" lon="-3.63487">
        <ele>108.8</ele>
        <time>2021-08-11T12:19:48Z</time>
      </trkpt>
      <trkpt lat="48.09525" lon="-3.63488">
        <ele>108.8</ele>
        <time>2021-08-11T12:19:49Z</time>
      </trkpt>
      <trkpt lat="48.09523" lon="-3.63489">
        <ele>109</ele>
        <time>2021-08-11T12:19:50Z</time>
      </trkpt>
      <trkpt lat="48.0952" lon="-3.63489">
        <ele>109</ele>
        <time>2021-08-11T12:19:51Z</time>
      </trkpt>
      <trkpt lat="48.09517" lon="-3.6349">
        <ele>109</ele>
        <time>2021-08-11T12:19:52Z</time>
      </trkpt>
      <trkpt lat="48.09514" lon="-3.6349">
        <ele>109</ele>
        <time>2021-08-11T12:19:53Z</time>
      </trkpt>
      <trkpt lat="48.09511" lon="-3.63491">
        <ele>109.2</ele>
        <time>2021-08-11T12:19:54Z</time>
      </trkpt>
      <trkpt lat="48.09507" lon="-3.63492">
        <ele>109.2</ele>
        <time>2021-08-11T12:19:55Z</time>
      </trkpt>
      <trkpt lat="48.09504" lon="-3.63493">
        <ele>109.2</ele>
        <time>2021-08-11T12:19:56Z</time>
      </trkpt>
      <trkpt lat="48.095" lon="-3.63495">
        <ele>109.2</ele>
        <time>2021-08-11T12:19:57Z</time>
      </trkpt>
      <trkpt lat="48.09497" lon="-3.63496">
        <ele>109.2</ele>
        <time>2021-08-11T12:19:58Z</time>
      </trkpt>
      <trkpt lat="48.09494" lon="-3.63497">
        <ele>109.4</ele>
        <time>2021-08-11T12:19:59Z</time>
      </trkpt>
      <trkpt lat="48.0949" lon="-3.63498">
        <ele>109.4</ele>
        <time>2021-08-11T12:20:00Z</time>
      </trkpt>
      <trkpt lat="48.09486" lon="-3.635">
        <ele>109.4</ele>
        <time>2021-08-11T12:20:01Z</time>
      </trkpt>
      <trkpt lat="48.09482" lon="-3.63501">
        <ele>109.4</ele>
        <time>2021-08-11T12:20:02Z</time>
      </trkpt>
      <trkpt lat="48.09478" lon="-3.63501">
        <ele>109.6</ele>
        <time>2021-08-11T12:20:03Z</time>
      </trkpt>
      <trkpt lat="48.09475" lon="-3.63502">
        <ele>109.6</ele>
        <time>2021-08-11T12:20:04Z</time>
      </trkpt>
      <trkpt lat="48.09472" lon="-3.63504">
        <ele>109.8</ele>
        <time>2021-08-11T12:20:05Z</time>
      </trkpt>
      <trkpt lat="48.09469" lon="-3.63505">
        <ele>109.8</ele>
        <time>2021-08-11T12:20:06Z</time>
      </trkpt>
      <trkpt lat="48.09466" lon="-3.63507">
        <ele>110</ele>
        <time>2021-08-11T12:20:07Z</time>
      </trkpt>
      <trkpt lat="48.09463" lon="-3.63508">
        <ele>110</ele>
        <time>2021-08-11T12:20:08Z</time>
      </trkpt>
      <trkpt lat="48.0946" lon="-3.63509">
        <ele>110.2</ele>
        <time>2021-08-11T12:20:09Z</time>
      </trkpt>
      <trkpt lat="48.09457" lon="-3.6351">
        <ele>110.2</ele>
        <time>2021-08-11T12:20:10Z</time>
      </trkpt>
      <trkpt lat="48.09454" lon="-3.63511">
        <ele>110.4</ele>
        <time>2021-08-11T12:20:11Z</time>
      </trkpt>
      <trkpt lat="48.09451" lon="-3.63512">
        <ele>110.4</ele>
        <time>2021-08-11T12:20:12Z</time>
      </trkpt>
      <trkpt lat="48.09448" lon="-3.63513">
        <ele>110.4</ele>
        <time>2021-08-11T12:20:13Z</time>
      </trkpt>
      <trkpt lat="48.09445" lon="-3.63514">
        <ele>110.4</ele>
        <time>2021-08-11T12:20:14Z</time>
      </trkpt>
      <trkpt lat="48.09441" lon="-3.63515">
        <ele>110.4</ele>
        <time>2021-08-11T12:20:15Z</time>
      </trkpt>
      <trkpt lat="48.09438" lon="-3.63516">
        <ele>110.6</ele>
        <time>2021-08-11T12:20:16Z</time>
      </trkpt>
      <trkpt lat="48.09434" lon="-3.63516">
        <ele>110.6</ele>
        <time>2021-08-11T12:20:17Z</time>
      </trkpt>
      <trkpt lat="48.09431" lon="-3.63517">
        <ele>110.6</ele>
        <time>2021-08-11T12:20:18Z</time>
      </trkpt>
      <trkpt lat="48.09428" lon="-3.63518">
        <ele>110.4</ele>
        <time>2021-08-11T12:20:19Z</time>
      </trkpt>
      <trkpt lat="48.09425" lon="-3.63519">
        <ele>110.6</ele>
        <time>2021-08-11T12:20:20Z</time>
      </trkpt>
      <trkpt lat="48.09422" lon="-3.63521">
        <ele>110.6</ele>
        <time>2021-08-11T12:20:21Z</time>
      </trkpt>
      <trkpt lat="48.09419" lon="-3.63522">
        <ele>110.6</ele>
        <time>2021-08-11T12:20:22Z</time>
      </trkpt>
      <trkpt lat="48.09416" lon="-3.63522">
        <ele>110.8</ele>
        <time>2021-08-11T12:20:23Z</time>
      </trkpt>
      <trkpt lat="48.09413" lon="-3.63523">
        <ele>110.8</ele>
        <time>2021-08-11T12:20:24Z</time>
      </trkpt>
      <trkpt lat="48.09411" lon="-3.63524">
        <ele>110.8</ele>
        <time>2021-08-11T12:20:25Z</time>
      </trkpt>
      <trkpt lat="48.09408" lon="-3.63524">
        <ele>111</ele>
        <time>2021-08-11T12:20:26Z</time>
      </trkpt>
      <trkpt lat="48.09405" lon="-3.63526">
        <ele>111</ele>
        <time>2021-08-11T12:20:27Z</time>
      </trkpt>
      <trkpt lat="48.09402" lon="-3.63527">
        <ele>111.2</ele>
        <time>2021-08-11T12:20:28Z</time>
      </trkpt>
      <trkpt lat="48.09398" lon="-3.63529">
        <ele>111.2</ele>
        <time>2021-08-11T12:20:29Z</time>
      </trkpt>
      <trkpt lat="48.09395" lon="-3.6353">
        <ele>111.4</ele>
        <time>2021-08-11T12:20:30Z</time>
      </trkpt>
      <trkpt lat="48.09391" lon="-3.63532">
        <ele>111.6</ele>
        <time>2021-08-11T12:20:31Z</time>
      </trkpt>
      <trkpt lat="48.09388" lon="-3.63533">
        <ele>111.8</ele>
        <time>2021-08-11T12:20:32Z</time>
      </trkpt>
      <trkpt lat="48.09384" lon="-3.63535">
        <ele>111.8</ele>
        <time>2021-08-11T12:20:33Z</time>
      </trkpt>
      <trkpt lat="48.09381" lon="-3.63537">
        <ele>111.8</ele>
        <time>2021-08-11T12:20:34Z</time>
      </trkpt>
      <trkpt lat="48.09379" lon="-3.63539">
        <ele>111.8</ele>
        <time>2021-08-11T12:20:35Z</time>
      </trkpt>
      <trkpt lat="48.09375" lon="-3.63541">
        <ele>112</ele>
        <time>2021-08-11T12:20:36Z</time>
      </trkpt>
      <trkpt lat="48.09372" lon="-3.63542">
        <ele>112</ele>
        <time>2021-08-11T12:20:37Z</time>
      </trkpt>
      <trkpt lat="48.09369" lon="-3.63544">
        <ele>112</ele>
        <time>2021-08-11T12:20:38Z</time>
      </trkpt>
      <trkpt lat="48.09367" lon="-3.63544">
        <ele>112</ele>
        <time>2021-08-11T12:20:39Z</time>
      </trkpt>
      <trkpt lat="48.09364" lon="-3.63545">
        <ele>112</ele>
        <time>2021-08-11T12:20:40Z</time>
      </trkpt>
      <trkpt lat="48.09362" lon="-3.63547">
        <ele>112.2</ele>
        <time>2021-08-11T12:20:41Z</time>
      </trkpt>
      <trkpt lat="48.09359" lon="-3.63548">
        <ele>112.2</ele>
        <time>2021-08-11T12:20:42Z</time>
      </trkpt>
      <trkpt lat="48.09356" lon="-3.6355">
        <ele>112.2</ele>
        <time>2021-08-11T12:20:43Z</time>
      </trkpt>
      <trkpt lat="48.09353" lon="-3.63552">
        <ele>112.2</ele>
        <time>2021-08-11T12:20:44Z</time>
      </trkpt>
      <trkpt lat="48.09351" lon="-3.63554">
        <ele>112.4</ele>
        <time>2021-08-11T12:20:45Z</time>
      </trkpt>
      <trkpt lat="48.09348" lon="-3.63555">
        <ele>112.6</ele>
        <time>2021-08-11T12:20:46Z</time>
      </trkpt>
      <trkpt lat="48.09345" lon="-3.63557">
        <ele>112.6</ele>
        <time>2021-08-11T12:20:47Z</time>
      </trkpt>
      <trkpt lat="48.09342" lon="-3.63559">
        <ele>112.8</ele>
        <time>2021-08-11T12:20:48Z</time>
      </trkpt>
      <trkpt lat="48.09339" lon="-3.6356">
        <ele>112.8</ele>
        <time>2021-08-11T12:20:49Z</time>
      </trkpt>
      <trkpt lat="48.09336" lon="-3.63562">
        <ele>113</ele>
        <time>2021-08-11T12:20:50Z</time>
      </trkpt>
      <trkpt lat="48.09333" lon="-3.63563">
        <ele>113</ele>
        <time>2021-08-11T12:20:51Z</time>
      </trkpt>
      <trkpt lat="48.0933" lon="-3.63566">
        <ele>113</ele>
        <time>2021-08-11T12:20:52Z</time>
      </trkpt>
      <trkpt lat="48.09328" lon="-3.63568">
        <ele>113.2</ele>
        <time>2021-08-11T12:20:53Z</time>
      </trkpt>
      <trkpt lat="48.09324" lon="-3.6357">
        <ele>113.2</ele>
        <time>2021-08-11T12:20:54Z</time>
      </trkpt>
      <trkpt lat="48.09321" lon="-3.63573">
        <ele>113.2</ele>
        <time>2021-08-11T12:20:55Z</time>
      </trkpt>
      <trkpt lat="48.09318" lon="-3.63575">
        <ele>113.2</ele>
        <time>2021-08-11T12:20:56Z</time>
      </trkpt>
      <trkpt lat="48.09315" lon="-3.63577">
        <ele>113.4</ele>
        <time>2021-08-11T12:20:57Z</time>
      </trkpt>
      <trkpt lat="48.09312" lon="-3.63579">
        <ele>113.6</ele>
        <time>2021-08-11T12:20:58Z</time>
      </trkpt>
      <trkpt lat="48.09309" lon="-3.63581">
        <ele>113.6</ele>
        <time>2021-08-11T12:20:59Z</time>
      </trkpt>
      <trkpt lat="48.09307" lon="-3.63583">
        <ele>113.6</ele>
        <time>2021-08-11T12:21:00Z</time>
      </trkpt>
      <trkpt lat="48.09304" lon="-3.63585">
        <ele>113.8</ele>
        <time>2021-08-11T12:21:01Z</time>
      </trkpt>
      <trkpt lat="48.09301" lon="-3.63588">
        <ele>113.8</ele>
        <time>2021-08-11T12:21:02Z</time>
      </trkpt>
      <trkpt lat="48.09298" lon="-3.6359">
        <ele>113.8</ele>
        <time>2021-08-11T12:21:03Z</time>
      </trkpt>
      <trkpt lat="48.09295" lon="-3.63592">
        <ele>114</ele>
        <time>2021-08-11T12:21:04Z</time>
      </trkpt>
      <trkpt lat="48.09293" lon="-3.63595">
        <ele>114</ele>
        <time>2021-08-11T12:21:05Z</time>
      </trkpt>
      <trkpt lat="48.0929" lon="-3.63598">
        <ele>114</ele>
        <time>2021-08-11T12:21:06Z</time>
      </trkpt>
      <trkpt lat="48.09287" lon="-3.63601">
        <ele>114.2</ele>
        <time>2021-08-11T12:21:07Z</time>
      </trkpt>
      <trkpt lat="48.09284" lon="-3.63603">
        <ele>114.2</ele>
        <time>2021-08-11T12:21:08Z</time>
      </trkpt>
      <trkpt lat="48.0928" lon="-3.63606">
        <ele>114.4</ele>
        <time>2021-08-11T12:21:09Z</time>
      </trkpt>
      <trkpt lat="48.09277" lon="-3.63609">
        <ele>114.4</ele>
        <time>2021-08-11T12:21:10Z</time>
      </trkpt>
      <trkpt lat="48.09274" lon="-3.63612">
        <ele>114.4</ele>
        <time>2021-08-11T12:21:11Z</time>
      </trkpt>
      <trkpt lat="48.09271" lon="-3.63615">
        <ele>114.6</ele>
        <time>2021-08-11T12:21:12Z</time>
      </trkpt>
      <trkpt lat="48.09268" lon="-3.63617">
        <ele>114.6</ele>
        <time>2021-08-11T12:21:13Z</time>
      </trkpt>
      <trkpt lat="48.09264" lon="-3.63619">
        <ele>114.8</ele>
        <time>2021-08-11T12:21:14Z</time>
      </trkpt>
      <trkpt lat="48.09261" lon="-3.63622">
        <ele>114.8</ele>
        <time>2021-08-11T12:21:15Z</time>
      </trkpt>
      <trkpt lat="48.09257" lon="-3.63624">
        <ele>114.8</ele>
        <time>2021-08-11T12:21:16Z</time>
      </trkpt>
      <trkpt lat="48.09254" lon="-3.63627">
        <ele>114.8</ele>
        <time>2021-08-11T12:21:17Z</time>
      </trkpt>
      <trkpt lat="48.0925" lon="-3.63629">
        <ele>114.8</ele>
        <time>2021-08-11T12:21:18Z</time>
      </trkpt>
      <trkpt lat="48.09247" lon="-3.63631">
        <ele>114.8</ele>
        <time>2021-08-11T12:21:19Z</time>
      </trkpt>
      <trkpt lat="48.09245" lon="-3.63634">
        <ele>115</ele>
        <time>2021-08-11T12:21:20Z</time>
      </trkpt>
      <trkpt lat="48.09242" lon="-3.63636">
        <ele>115</ele>
        <time>2021-08-11T12:21:21Z</time>
      </trkpt>
      <trkpt lat="48.09239" lon="-3.63638">
        <ele>115.2</ele>
        <time>2021-08-11T12:21:22Z</time>
      </trkpt>
      <trkpt lat="48.09236" lon="-3.6364">
        <ele>115.2</ele>
        <time>2021-08-11T12:21:23Z</time>
      </trkpt>
      <trkpt lat="48.09232" lon="-3.63643">
        <ele>115.4</ele>
        <time>2021-08-11T12:21:24Z</time>
      </trkpt>
      <trkpt lat="48.09229" lon="-3.63645">
        <ele>115.4</ele>
        <time>2021-08-11T12:21:25Z</time>
      </trkpt>
      <trkpt lat="48.09225" lon="-3.63648">
        <ele>115.4</ele>
        <time>2021-08-11T12:21:26Z</time>
      </trkpt>
      <trkpt lat="48.09222" lon="-3.6365">
        <ele>115.6</ele>
        <time>2021-08-11T12:21:27Z</time>
      </trkpt>
      <trkpt lat="48.09218" lon="-3.63653">
        <ele>115.6</ele>
        <time>2021-08-11T12:21:28Z</time>
      </trkpt>
      <trkpt lat="48.09216" lon="-3.63656">
        <ele>115.6</ele>
        <time>2021-08-11T12:21:29Z</time>
      </trkpt>
      <trkpt lat="48.09213" lon="-3.63659">
        <ele>115.6</ele>
        <time>2021-08-11T12:21:30Z</time>
      </trkpt>
      <trkpt lat="48.0921" lon="-3.63661">
        <ele>115.6</ele>
        <time>2021-08-11T12:21:31Z</time>
      </trkpt>
      <trkpt lat="48.09207" lon="-3.63663">
        <ele>115.8</ele>
        <time>2021-08-11T12:21:32Z</time>
      </trkpt>
      <trkpt lat="48.09205" lon="-3.63665">
        <ele>115.8</ele>
        <time>2021-08-11T12:21:33Z</time>
      </trkpt>
      <trkpt lat="48.09203" lon="-3.63667">
        <ele>115.8</ele>
        <time>2021-08-11T12:21:34Z</time>
      </trkpt>
      <trkpt lat="48.092" lon="-3.6367">
        <ele>115.8</ele>
        <time>2021-08-11T12:21:35Z</time>
      </trkpt>
      <trkpt lat="48.09197" lon="-3.63672">
        <ele>116</ele>
        <time>2021-08-11T12:21:36Z</time>
      </trkpt>
      <trkpt lat="48.09195" lon="-3.63674">
        <ele>116</ele>
        <time>2021-08-11T12:21:37Z</time>
      </trkpt>
      <trkpt lat="48.09192" lon="-3.63677">
        <ele>116</ele>
        <time>2021-08-11T12:21:38Z</time>
      </trkpt>
      <trkpt lat="48.09189" lon="-3.63679">
        <ele>116</ele>
        <time>2021-08-11T12:21:39Z</time>
      </trkpt>
      <trkpt lat="48.09186" lon="-3.63682">
        <ele>116.2</ele>
        <time>2021-08-11T12:21:40Z</time>
      </trkpt>
      <trkpt lat="48.09184" lon="-3.63685">
        <ele>116.4</ele>
        <time>2021-08-11T12:21:41Z</time>
      </trkpt>
      <trkpt lat="48.09181" lon="-3.63687">
        <ele>116.6</ele>
        <time>2021-08-11T12:21:42Z</time>
      </trkpt>
      <trkpt lat="48.09179" lon="-3.6369">
        <ele>116.6</ele>
        <time>2021-08-11T12:21:43Z</time>
      </trkpt>
      <trkpt lat="48.09176" lon="-3.63692">
        <ele>116.6</ele>
        <time>2021-08-11T12:21:44Z</time>
      </trkpt>
      <trkpt lat="48.09173" lon="-3.63695">
        <ele>116.6</ele>
        <time>2021-08-11T12:21:45Z</time>
      </trkpt>
      <trkpt lat="48.0917" lon="-3.63698">
        <ele>116.6</ele>
        <time>2021-08-11T12:21:46Z</time>
      </trkpt>
      <trkpt lat="48.09168" lon="-3.63701">
        <ele>116.8</ele>
        <time>2021-08-11T12:21:47Z</time>
      </trkpt>
      <trkpt lat="48.09166" lon="-3.63703">
        <ele>116.8</ele>
        <time>2021-08-11T12:21:48Z</time>
      </trkpt>
      <trkpt lat="48.09163" lon="-3.63705">
        <ele>117</ele>
        <time>2021-08-11T12:21:49Z</time>
      </trkpt>
      <trkpt lat="48.09161" lon="-3.63707">
        <ele>117</ele>
        <time>2021-08-11T12:21:50Z</time>
      </trkpt>
      <trkpt lat="48.09158" lon="-3.63709">
        <ele>117</ele>
        <time>2021-08-11T12:21:51Z</time>
      </trkpt>
      <trkpt lat="48.09156" lon="-3.63711">
        <ele>117</ele>
        <time>2021-08-11T12:21:52Z</time>
      </trkpt>
      <trkpt lat="48.09153" lon="-3.63713">
        <ele>117.2</ele>
        <time>2021-08-11T12:21:53Z</time>
      </trkpt>
      <trkpt lat="48.0915" lon="-3.63715">
        <ele>117.2</ele>
        <time>2021-08-11T12:21:54Z</time>
      </trkpt>
      <trkpt lat="48.09147" lon="-3.63717">
        <ele>117.2</ele>
        <time>2021-08-11T12:21:55Z</time>
      </trkpt>
      <trkpt lat="48.09144" lon="-3.63719">
        <ele>117.2</ele>
        <time>2021-08-11T12:21:56Z</time>
      </trkpt>
      <trkpt lat="48.0914" lon="-3.63721">
        <ele>117.4</ele>
        <time>2021-08-11T12:21:57Z</time>
      </trkpt>
      <trkpt lat="48.09137" lon="-3.63724">
        <ele>117.6</ele>
        <time>2021-08-11T12:21:58Z</time>
      </trkpt>
      <trkpt lat="48.09134" lon="-3.63726">
        <ele>117.6</ele>
        <time>2021-08-11T12:21:59Z</time>
      </trkpt>
      <trkpt lat="48.0913" lon="-3.63728">
        <ele>117.6</ele>
        <time>2021-08-11T12:22:00Z</time>
      </trkpt>
      <trkpt lat="48.09127" lon="-3.6373">
        <ele>117.8</ele>
        <time>2021-08-11T12:22:01Z</time>
      </trkpt>
      <trkpt lat="48.09124" lon="-3.63732">
        <ele>117.8</ele>
        <time>2021-08-11T12:22:02Z</time>
      </trkpt>
      <trkpt lat="48.09122" lon="-3.63734">
        <ele>118</ele>
        <time>2021-08-11T12:22:03Z</time>
      </trkpt>
      <trkpt lat="48.09119" lon="-3.63737">
        <ele>118</ele>
        <time>2021-08-11T12:22:04Z</time>
      </trkpt>
      <trkpt lat="48.09116" lon="-3.63739">
        <ele>118</ele>
        <time>2021-08-11T12:22:05Z</time>
      </trkpt>
      <trkpt lat="48.09114" lon="-3.63741">
        <ele>118.2</ele>
        <time>2021-08-11T12:22:06Z</time>
      </trkpt>
      <trkpt lat="48.0911" lon="-3.63744">
        <ele>118.2</ele>
        <time>2021-08-11T12:22:07Z</time>
      </trkpt>
      <trkpt lat="48.09107" lon="-3.63746">
        <ele>118.4</ele>
        <time>2021-08-11T12:22:08Z</time>
      </trkpt>
      <trkpt lat="48.09103" lon="-3.63748">
        <ele>118.4</ele>
        <time>2021-08-11T12:22:09Z</time>
      </trkpt>
      <trkpt lat="48.091" lon="-3.63749">
        <ele>118.6</ele>
        <time>2021-08-11T12:22:10Z</time>
      </trkpt>
      <trkpt lat="48.09096" lon="-3.63751">
        <ele>118.6</ele>
        <time>2021-08-11T12:22:11Z</time>
      </trkpt>
      <trkpt lat="48.09093" lon="-3.63752">
        <ele>118.8</ele>
        <time>2021-08-11T12:22:12Z</time>
      </trkpt>
      <trkpt lat="48.0909" lon="-3.63754">
        <ele>118.8</ele>
        <time>2021-08-11T12:22:13Z</time>
      </trkpt>
      <trkpt lat="48.09086" lon="-3.63756">
        <ele>119</ele>
        <time>2021-08-11T12:22:14Z</time>
      </trkpt>
      <trkpt lat="48.09082" lon="-3.63757">
        <ele>119</ele>
        <time>2021-08-11T12:22:15Z</time>
      </trkpt>
      <trkpt lat="48.09079" lon="-3.63758">
        <ele>119</ele>
        <time>2021-08-11T12:22:16Z</time>
      </trkpt>
      <trkpt lat="48.09075" lon="-3.6376">
        <ele>119.2</ele>
        <time>2021-08-11T12:22:17Z</time>
      </trkpt>
      <trkpt lat="48.09071" lon="-3.63762">
        <ele>119.2</ele>
        <time>2021-08-11T12:22:18Z</time>
      </trkpt>
      <trkpt lat="48.09068" lon="-3.63764">
        <ele>119.2</ele>
        <time>2021-08-11T12:22:19Z</time>
      </trkpt>
      <trkpt lat="48.09064" lon="-3.63765">
        <ele>119.4</ele>
        <time>2021-08-11T12:22:20Z</time>
      </trkpt>
      <trkpt lat="48.09059" lon="-3.63767">
        <ele>119.4</ele>
        <time>2021-08-11T12:22:21Z</time>
      </trkpt>
      <trkpt lat="48.09055" lon="-3.63769">
        <ele>119.4</ele>
        <time>2021-08-11T12:22:22Z</time>
      </trkpt>
      <trkpt lat="48.09051" lon="-3.63771">
        <ele>119.4</ele>
        <time>2021-08-11T12:22:23Z</time>
      </trkpt>
      <trkpt lat="48.09047" lon="-3.63773">
        <ele>119.6</ele>
        <time>2021-08-11T12:22:24Z</time>
      </trkpt>
      <trkpt lat="48.09043" lon="-3.63774">
        <ele>119.8</ele>
        <time>2021-08-11T12:22:25Z</time>
      </trkpt>
      <trkpt lat="48.09039" lon="-3.63776">
        <ele>119.8</ele>
        <time>2021-08-11T12:22:26Z</time>
      </trkpt>
      <trkpt lat="48.09036" lon="-3.63779">
        <ele>119.8</ele>
        <time>2021-08-11T12:22:27Z</time>
      </trkpt>
      <trkpt lat="48.09032" lon="-3.6378">
        <ele>120</ele>
        <time>2021-08-11T12:22:28Z</time>
      </trkpt>
      <trkpt lat="48.09028" lon="-3.63782">
        <ele>120</ele>
        <time>2021-08-11T12:22:29Z</time>
      </trkpt>
      <trkpt lat="48.09025" lon="-3.63784">
        <ele>120</ele>
        <time>2021-08-11T12:22:30Z</time>
      </trkpt>
      <trkpt lat="48.09021" lon="-3.63786">
        <ele>120</ele>
        <time>2021-08-11T12:22:31Z</time>
      </trkpt>
      <trkpt lat="48.09018" lon="-3.63788">
        <ele>120</ele>
        <time>2021-08-11T12:22:32Z</time>
      </trkpt>
      <trkpt lat="48.09015" lon="-3.6379">
        <ele>120</ele>
        <time>2021-08-11T12:22:33Z</time>
      </trkpt>
      <trkpt lat="48.09012" lon="-3.63792">
        <ele>120</ele>
        <time>2021-08-11T12:22:34Z</time>
      </trkpt>
      <trkpt lat="48.09009" lon="-3.63794">
        <ele>120</ele>
        <time>2021-08-11T12:22:35Z</time>
      </trkpt>
      <trkpt lat="48.09006" lon="-3.63796">
        <ele>120</ele>
        <time>2021-08-11T12:22:36Z</time>
      </trkpt>
      <trkpt lat="48.09002" lon="-3.63798">
        <ele>120.2</ele>
        <time>2021-08-11T12:22:37Z</time>
      </trkpt>
      <trkpt lat="48.08998" lon="-3.638">
        <ele>120.2</ele>
        <time>2021-08-11T12:22:38Z</time>
      </trkpt>
      <trkpt lat="48.08994" lon="-3.63803">
        <ele>120.4</ele>
        <time>2021-08-11T12:22:39Z</time>
      </trkpt>
      <trkpt lat="48.08991" lon="-3.63804">
        <ele>120.4</ele>
        <time>2021-08-11T12:22:40Z</time>
      </trkpt>
      <trkpt lat="48.08987" lon="-3.63806">
        <ele>120.6</ele>
        <time>2021-08-11T12:22:41Z</time>
      </trkpt>
      <trkpt lat="48.08983" lon="-3.63807">
        <ele>120.6</ele>
        <time>2021-08-11T12:22:42Z</time>
      </trkpt>
      <trkpt lat="48.0898" lon="-3.63808">
        <ele>120.8</ele>
        <time>2021-08-11T12:22:43Z</time>
      </trkpt>
      <trkpt lat="48.08977" lon="-3.6381">
        <ele>120.8</ele>
        <time>2021-08-11T12:22:44Z</time>
      </trkpt>
      <trkpt lat="48.08974" lon="-3.63812">
        <ele>120.8</ele>
        <time>2021-08-11T12:22:45Z</time>
      </trkpt>
      <trkpt lat="48.0897" lon="-3.63814">
        <ele>120.8</ele>
        <time>2021-08-11T12:22:46Z</time>
      </trkpt>
      <trkpt lat="48.08967" lon="-3.63815">
        <ele>121</ele>
        <time>2021-08-11T12:22:47Z</time>
      </trkpt>
      <trkpt lat="48.08964" lon="-3.63816">
        <ele>121</ele>
        <time>2021-08-11T12:22:48Z</time>
      </trkpt>
      <trkpt lat="48.0896" lon="-3.63818">
        <ele>121</ele>
        <time>2021-08-11T12:22:49Z</time>
      </trkpt>
      <trkpt lat="48.08956" lon="-3.6382">
        <ele>121</ele>
        <time>2021-08-11T12:22:50Z</time>
      </trkpt>
      <trkpt lat="48.08952" lon="-3.63821">
        <ele>121.2</ele>
        <time>2021-08-11T12:22:51Z</time>
      </trkpt>
      <trkpt lat="48.08949" lon="-3.63823">
        <ele>121.4</ele>
        <time>2021-08-11T12:22:52Z</time>
      </trkpt>
      <trkpt lat="48.08944" lon="-3.63825">
        <ele>121.4</ele>
        <time>2021-08-11T12:22:53Z</time>
      </trkpt>
      <trkpt lat="48.0894" lon="-3.63827">
        <ele>121.6</ele>
        <time>2021-08-11T12:22:54Z</time>
      </trkpt>
      <trkpt lat="48.08937" lon="-3.63829">
        <ele>121.6</ele>
        <time>2021-08-11T12:22:55Z</time>
      </trkpt>
      <trkpt lat="48.08934" lon="-3.63831">
        <ele>121.6</ele>
        <time>2021-08-11T12:22:56Z</time>
      </trkpt>
      <trkpt lat="48.08931" lon="-3.63833">
        <ele>121.8</ele>
        <time>2021-08-11T12:22:57Z</time>
      </trkpt>
      <trkpt lat="48.08927" lon="-3.63835">
        <ele>122</ele>
        <time>2021-08-11T12:22:58Z</time>
      </trkpt>
      <trkpt lat="48.08924" lon="-3.63836">
        <ele>122</ele>
        <time>2021-08-11T12:22:59Z</time>
      </trkpt>
      <trkpt lat="48.08922" lon="-3.63838">
        <ele>122</ele>
        <time>2021-08-11T12:23:00Z</time>
      </trkpt>
      <trkpt lat="48.08919" lon="-3.63839">
        <ele>122.2</ele>
        <time>2021-08-11T12:23:01Z</time>
      </trkpt>
      <trkpt lat="48.08916" lon="-3.63841">
        <ele>122.2</ele>
        <time>2021-08-11T12:23:02Z</time>
      </trkpt>
      <trkpt lat="48.08913" lon="-3.63844">
        <ele>122.2</ele>
        <time>2021-08-11T12:23:03Z</time>
      </trkpt>
      <trkpt lat="48.0891" lon="-3.63847">
        <ele>122.2</ele>
        <time>2021-08-11T12:23:04Z</time>
      </trkpt>
      <trkpt lat="48.08908" lon="-3.63849">
        <ele>122.4</ele>
        <time>2021-08-11T12:23:05Z</time>
      </trkpt>
      <trkpt lat="48.08905" lon="-3.63851">
        <ele>122.4</ele>
        <time>2021-08-11T12:23:06Z</time>
      </trkpt>
      <trkpt lat="48.08903" lon="-3.63854">
        <ele>122.6</ele>
        <time>2021-08-11T12:23:07Z</time>
      </trkpt>
      <trkpt lat="48.089" lon="-3.63856">
        <ele>122.8</ele>
        <time>2021-08-11T12:23:08Z</time>
      </trkpt>
      <trkpt lat="48.08897" lon="-3.63858">
        <ele>123</ele>
        <time>2021-08-11T12:23:09Z</time>
      </trkpt>
      <trkpt lat="48.08893" lon="-3.63861">
        <ele>123</ele>
        <time>2021-08-11T12:23:10Z</time>
      </trkpt>
      <trkpt lat="48.0889" lon="-3.63862">
        <ele>123.2</ele>
        <time>2021-08-11T12:23:11Z</time>
      </trkpt>
      <trkpt lat="48.08886" lon="-3.63864">
        <ele>123.2</ele>
        <time>2021-08-11T12:23:12Z</time>
      </trkpt>
      <trkpt lat="48.08881" lon="-3.63865">
        <ele>123.2</ele>
        <time>2021-08-11T12:23:13Z</time>
      </trkpt>
      <trkpt lat="48.08878" lon="-3.63866">
        <ele>123.2</ele>
        <time>2021-08-11T12:23:14Z</time>
      </trkpt>
      <trkpt lat="48.08875" lon="-3.63868">
        <ele>123.2</ele>
        <time>2021-08-11T12:23:15Z</time>
      </trkpt>
      <trkpt lat="48.08872" lon="-3.6387">
        <ele>123.2</ele>
        <time>2021-08-11T12:23:16Z</time>
      </trkpt>
      <trkpt lat="48.0887" lon="-3.63873">
        <ele>123.2</ele>
        <time>2021-08-11T12:23:17Z</time>
      </trkpt>
      <trkpt lat="48.08866" lon="-3.63876">
        <ele>123.4</ele>
        <time>2021-08-11T12:23:18Z</time>
      </trkpt>
      <trkpt lat="48.08863" lon="-3.63878">
        <ele>123.4</ele>
        <time>2021-08-11T12:23:19Z</time>
      </trkpt>
      <trkpt lat="48.0886" lon="-3.63881">
        <ele>123.4</ele>
        <time>2021-08-11T12:23:20Z</time>
      </trkpt>
      <trkpt lat="48.08857" lon="-3.63883">
        <ele>123.4</ele>
        <time>2021-08-11T12:23:21Z</time>
      </trkpt>
      <trkpt lat="48.08854" lon="-3.63887">
        <ele>123.6</ele>
        <time>2021-08-11T12:23:22Z</time>
      </trkpt>
      <trkpt lat="48.0885" lon="-3.6389">
        <ele>123.6</ele>
        <time>2021-08-11T12:23:23Z</time>
      </trkpt>
      <trkpt lat="48.08847" lon="-3.63893">
        <ele>123.8</ele>
        <time>2021-08-11T12:23:24Z</time>
      </trkpt>
      <trkpt lat="48.08844" lon="-3.63897">
        <ele>123.8</ele>
        <time>2021-08-11T12:23:25Z</time>
      </trkpt>
      <trkpt lat="48.08841" lon="-3.639">
        <ele>123.8</ele>
        <time>2021-08-11T12:23:26Z</time>
      </trkpt>
      <trkpt lat="48.08839" lon="-3.63903">
        <ele>124.2</ele>
        <time>2021-08-11T12:23:27Z</time>
      </trkpt>
      <trkpt lat="48.08836" lon="-3.63907">
        <ele>124.2</ele>
        <time>2021-08-11T12:23:28Z</time>
      </trkpt>
      <trkpt lat="48.08832" lon="-3.6391">
        <ele>124.4</ele>
        <time>2021-08-11T12:23:29Z</time>
      </trkpt>
      <trkpt lat="48.0883" lon="-3.63914">
        <ele>124.4</ele>
        <time>2021-08-11T12:23:30Z</time>
      </trkpt>
      <trkpt lat="48.08827" lon="-3.63918">
        <ele>124.6</ele>
        <time>2021-08-11T12:23:31Z</time>
      </trkpt>
      <trkpt lat="48.08823" lon="-3.63922">
        <ele>124.6</ele>
        <time>2021-08-11T12:23:32Z</time>
      </trkpt>
      <trkpt lat="48.08821" lon="-3.63926">
        <ele>124.8</ele>
        <time>2021-08-11T12:23:33Z</time>
      </trkpt>
      <trkpt lat="48.08818" lon="-3.6393">
        <ele>124.8</ele>
        <time>2021-08-11T12:23:34Z</time>
      </trkpt>
      <trkpt lat="48.08814" lon="-3.63934">
        <ele>125</ele>
        <time>2021-08-11T12:23:35Z</time>
      </trkpt>
      <trkpt lat="48.0881" lon="-3.63937">
        <ele>125</ele>
        <time>2021-08-11T12:23:36Z</time>
      </trkpt>
      <trkpt lat="48.08807" lon="-3.63941">
        <ele>125</ele>
        <time>2021-08-11T12:23:37Z</time>
      </trkpt>
      <trkpt lat="48.08804" lon="-3.63945">
        <ele>125</ele>
        <time>2021-08-11T12:23:38Z</time>
      </trkpt>
      <trkpt lat="48.08802" lon="-3.63949">
        <ele>125</ele>
        <time>2021-08-11T12:23:39Z</time>
      </trkpt>
      <trkpt lat="48.088" lon="-3.63952">
        <ele>125.2</ele>
        <time>2021-08-11T12:23:40Z</time>
      </trkpt>
      <trkpt lat="48.08797" lon="-3.63956">
        <ele>125.2</ele>
        <time>2021-08-11T12:23:41Z</time>
      </trkpt>
      <trkpt lat="48.08794" lon="-3.6396">
        <ele>125.4</ele>
        <time>2021-08-11T12:23:42Z</time>
      </trkpt>
      <trkpt lat="48.08792" lon="-3.63964">
        <ele>125.4</ele>
        <time>2021-08-11T12:23:43Z</time>
      </trkpt>
      <trkpt lat="48.08789" lon="-3.63968">
        <ele>125.4</ele>
        <time>2021-08-11T12:23:44Z</time>
      </trkpt>
      <trkpt lat="48.08787" lon="-3.63972">
        <ele>125.6</ele>
        <time>2021-08-11T12:23:45Z</time>
      </trkpt>
      <trkpt lat="48.08785" lon="-3.63976">
        <ele>125.6</ele>
        <time>2021-08-11T12:23:46Z</time>
      </trkpt>
      <trkpt lat="48.08783" lon="-3.6398">
        <ele>125.6</ele>
        <time>2021-08-11T12:23:47Z</time>
      </trkpt>
      <trkpt lat="48.08781" lon="-3.63984">
        <ele>125.6</ele>
        <time>2021-08-11T12:23:48Z</time>
      </trkpt>
      <trkpt lat="48.08779" lon="-3.63987">
        <ele>125.6</ele>
        <time>2021-08-11T12:23:49Z</time>
      </trkpt>
      <trkpt lat="48.08777" lon="-3.63991">
        <ele>125.8</ele>
        <time>2021-08-11T12:23:50Z</time>
      </trkpt>
      <trkpt lat="48.08775" lon="-3.63997">
        <ele>125.8</ele>
        <time>2021-08-11T12:23:51Z</time>
      </trkpt>
      <trkpt lat="48.08773" lon="-3.64001">
        <ele>126</ele>
        <time>2021-08-11T12:23:52Z</time>
      </trkpt>
      <trkpt lat="48.08771" lon="-3.64007">
        <ele>126</ele>
        <time>2021-08-11T12:23:53Z</time>
      </trkpt>
      <trkpt lat="48.0877" lon="-3.64011">
        <ele>126</ele>
        <time>2021-08-11T12:23:54Z</time>
      </trkpt>
      <trkpt lat="48.08768" lon="-3.64015">
        <ele>126.2</ele>
        <time>2021-08-11T12:23:55Z</time>
      </trkpt>
      <trkpt lat="48.08767" lon="-3.6402">
        <ele>126.2</ele>
        <time>2021-08-11T12:23:56Z</time>
      </trkpt>
      <trkpt lat="48.08766" lon="-3.64025">
        <ele>126.2</ele>
        <time>2021-08-11T12:23:57Z</time>
      </trkpt>
      <trkpt lat="48.08765" lon="-3.6403">
        <ele>126.4</ele>
        <time>2021-08-11T12:23:58Z</time>
      </trkpt>
      <trkpt lat="48.08763" lon="-3.64035">
        <ele>126.4</ele>
        <time>2021-08-11T12:23:59Z</time>
      </trkpt>
      <trkpt lat="48.08762" lon="-3.64039">
        <ele>126.4</ele>
        <time>2021-08-11T12:24:00Z</time>
      </trkpt>
      <trkpt lat="48.0876" lon="-3.64043">
        <ele>126.4</ele>
        <time>2021-08-11T12:24:01Z</time>
      </trkpt>
      <trkpt lat="48.08759" lon="-3.64047">
        <ele>126.6</ele>
        <time>2021-08-11T12:24:02Z</time>
      </trkpt>
      <trkpt lat="48.08758" lon="-3.64051">
        <ele>126.8</ele>
        <time>2021-08-11T12:24:03Z</time>
      </trkpt>
      <trkpt lat="48.08757" lon="-3.64055">
        <ele>126.8</ele>
        <time>2021-08-11T12:24:04Z</time>
      </trkpt>
      <trkpt lat="48.08756" lon="-3.64061">
        <ele>127</ele>
        <time>2021-08-11T12:24:05Z</time>
      </trkpt>
      <trkpt lat="48.08754" lon="-3.64066">
        <ele>127</ele>
        <time>2021-08-11T12:24:06Z</time>
      </trkpt>
      <trkpt lat="48.08753" lon="-3.64071">
        <ele>127.2</ele>
        <time>2021-08-11T12:24:07Z</time>
      </trkpt>
      <trkpt lat="48.08752" lon="-3.64075">
        <ele>127.4</ele>
        <time>2021-08-11T12:24:08Z</time>
      </trkpt>
      <trkpt lat="48.08751" lon="-3.6408">
        <ele>127.6</ele>
        <time>2021-08-11T12:24:09Z</time>
      </trkpt>
      <trkpt lat="48.0875" lon="-3.64085">
        <ele>127.6</ele>
        <time>2021-08-11T12:24:10Z</time>
      </trkpt>
      <trkpt lat="48.08748" lon="-3.6409">
        <ele>127.6</ele>
        <time>2021-08-11T12:24:11Z</time>
      </trkpt>
      <trkpt lat="48.08746" lon="-3.64096">
        <ele>127.8</ele>
        <time>2021-08-11T12:24:12Z</time>
      </trkpt>
      <trkpt lat="48.08745" lon="-3.641">
        <ele>127.8</ele>
        <time>2021-08-11T12:24:13Z</time>
      </trkpt>
      <trkpt lat="48.08744" lon="-3.64106">
        <ele>127.8</ele>
        <time>2021-08-11T12:24:14Z</time>
      </trkpt>
      <trkpt lat="48.08743" lon="-3.64112">
        <ele>127.8</ele>
        <time>2021-08-11T12:24:15Z</time>
      </trkpt>
      <trkpt lat="48.08742" lon="-3.64116">
        <ele>127.8</ele>
        <time>2021-08-11T12:24:16Z</time>
      </trkpt>
      <trkpt lat="48.08741" lon="-3.6412">
        <ele>127.8</ele>
        <time>2021-08-11T12:24:17Z</time>
      </trkpt>
      <trkpt lat="48.0874" lon="-3.64125">
        <ele>128</ele>
        <time>2021-08-11T12:24:18Z</time>
      </trkpt>
      <trkpt lat="48.08738" lon="-3.64131">
        <ele>128</ele>
        <time>2021-08-11T12:24:19Z</time>
      </trkpt>
      <trkpt lat="48.08737" lon="-3.64137">
        <ele>128.2</ele>
        <time>2021-08-11T12:24:20Z</time>
      </trkpt>
      <trkpt lat="48.08735" lon="-3.64142">
        <ele>128.2</ele>
        <time>2021-08-11T12:24:21Z</time>
      </trkpt>
      <trkpt lat="48.08733" lon="-3.64148">
        <ele>128.2</ele>
        <time>2021-08-11T12:24:22Z</time>
      </trkpt>
      <trkpt lat="48.08731" lon="-3.64153">
        <ele>128.4</ele>
        <time>2021-08-11T12:24:23Z</time>
      </trkpt>
      <trkpt lat="48.0873" lon="-3.64158">
        <ele>128.4</ele>
        <time>2021-08-11T12:24:24Z</time>
      </trkpt>
      <trkpt lat="48.08729" lon="-3.64164">
        <ele>128.6</ele>
        <time>2021-08-11T12:24:25Z</time>
      </trkpt>
      <trkpt lat="48.08727" lon="-3.64169">
        <ele>128.6</ele>
        <time>2021-08-11T12:24:26Z</time>
      </trkpt>
      <trkpt lat="48.08725" lon="-3.64175">
        <ele>128.6</ele>
        <time>2021-08-11T12:24:27Z</time>
      </trkpt>
      <trkpt lat="48.08723" lon="-3.6418">
        <ele>128.6</ele>
        <time>2021-08-11T12:24:28Z</time>
      </trkpt>
      <trkpt lat="48.08721" lon="-3.64185">
        <ele>128.6</ele>
        <time>2021-08-11T12:24:29Z</time>
      </trkpt>
      <trkpt lat="48.0872" lon="-3.64189">
        <ele>128.8</ele>
        <time>2021-08-11T12:24:30Z</time>
      </trkpt>
      <trkpt lat="48.08717" lon="-3.64195">
        <ele>128.8</ele>
        <time>2021-08-11T12:24:31Z</time>
      </trkpt>
      <trkpt lat="48.08715" lon="-3.642">
        <ele>128.8</ele>
        <time>2021-08-11T12:24:32Z</time>
      </trkpt>
      <trkpt lat="48.08714" lon="-3.64205">
        <ele>129</ele>
        <time>2021-08-11T12:24:33Z</time>
      </trkpt>
      <trkpt lat="48.08713" lon="-3.6421">
        <ele>129</ele>
        <time>2021-08-11T12:24:34Z</time>
      </trkpt>
      <trkpt lat="48.08711" lon="-3.64216">
        <ele>129.2</ele>
        <time>2021-08-11T12:24:35Z</time>
      </trkpt>
      <trkpt lat="48.0871" lon="-3.64221">
        <ele>129.2</ele>
        <time>2021-08-11T12:24:36Z</time>
      </trkpt>
      <trkpt lat="48.08708" lon="-3.64226">
        <ele>129.4</ele>
        <time>2021-08-11T12:24:37Z</time>
      </trkpt>
      <trkpt lat="48.08706" lon="-3.64233">
        <ele>129.4</ele>
        <time>2021-08-11T12:24:38Z</time>
      </trkpt>
      <trkpt lat="48.08705" lon="-3.6424">
        <ele>129.4</ele>
        <time>2021-08-11T12:24:39Z</time>
      </trkpt>
      <trkpt lat="48.08703" lon="-3.64248">
        <ele>129.4</ele>
        <time>2021-08-11T12:24:40Z</time>
      </trkpt>
      <trkpt lat="48.08701" lon="-3.64256">
        <ele>129.4</ele>
        <time>2021-08-11T12:24:41Z</time>
      </trkpt>
      <trkpt lat="48.08699" lon="-3.64266">
        <ele>129.6</ele>
        <time>2021-08-11T12:24:42Z</time>
      </trkpt>
      <trkpt lat="48.08696" lon="-3.64274">
        <ele>129.6</ele>
        <time>2021-08-11T12:24:43Z</time>
      </trkpt>
      <trkpt lat="48.08694" lon="-3.64283">
        <ele>129.6</ele>
        <time>2021-08-11T12:24:44Z</time>
      </trkpt>
      <trkpt lat="48.08692" lon="-3.64291">
        <ele>129.6</ele>
        <time>2021-08-11T12:24:45Z</time>
      </trkpt>
      <trkpt lat="48.0869" lon="-3.64299">
        <ele>129.6</ele>
        <time>2021-08-11T12:24:46Z</time>
      </trkpt>
      <trkpt lat="48.08688" lon="-3.64307">
        <ele>129.6</ele>
        <time>2021-08-11T12:24:47Z</time>
      </trkpt>
      <trkpt lat="48.08685" lon="-3.64315">
        <ele>129.8</ele>
        <time>2021-08-11T12:24:48Z</time>
      </trkpt>
      <trkpt lat="48.08683" lon="-3.64323">
        <ele>129.8</ele>
        <time>2021-08-11T12:24:49Z</time>
      </trkpt>
      <trkpt lat="48.0868" lon="-3.64331">
        <ele>130</ele>
        <time>2021-08-11T12:24:50Z</time>
      </trkpt>
      <trkpt lat="48.08678" lon="-3.64338">
        <ele>130.2</ele>
        <time>2021-08-11T12:24:51Z</time>
      </trkpt>
      <trkpt lat="48.08677" lon="-3.64344">
        <ele>130.4</ele>
        <time>2021-08-11T12:24:52Z</time>
      </trkpt>
      <trkpt lat="48.08675" lon="-3.6435">
        <ele>130.4</ele>
        <time>2021-08-11T12:24:53Z</time>
      </trkpt>
      <trkpt lat="48.08674" lon="-3.64355">
        <ele>130.6</ele>
        <time>2021-08-11T12:24:54Z</time>
      </trkpt>
      <trkpt lat="48.08673" lon="-3.64361">
        <ele>130.6</ele>
        <time>2021-08-11T12:24:55Z</time>
      </trkpt>
      <trkpt lat="48.08671" lon="-3.64366">
        <ele>130.8</ele>
        <time>2021-08-11T12:24:56Z</time>
      </trkpt>
      <trkpt lat="48.0867" lon="-3.6437">
        <ele>131</ele>
        <time>2021-08-11T12:24:57Z</time>
      </trkpt>
      <trkpt lat="48.08669" lon="-3.64374">
        <ele>131</ele>
        <time>2021-08-11T12:24:58Z</time>
      </trkpt>
      <trkpt lat="48.08668" lon="-3.64378">
        <ele>131.2</ele>
        <time>2021-08-11T12:24:59Z</time>
      </trkpt>
      <trkpt lat="48.08667" lon="-3.64383">
        <ele>131.2</ele>
        <time>2021-08-11T12:25:00Z</time>
      </trkpt>
      <trkpt lat="48.08665" lon="-3.64388">
        <ele>131.4</ele>
        <time>2021-08-11T12:25:01Z</time>
      </trkpt>
      <trkpt lat="48.08663" lon="-3.64393">
        <ele>131.6</ele>
        <time>2021-08-11T12:25:02Z</time>
      </trkpt>
      <trkpt lat="48.08661" lon="-3.64399">
        <ele>132</ele>
        <time>2021-08-11T12:25:03Z</time>
      </trkpt>
      <trkpt lat="48.08659" lon="-3.64405">
        <ele>132.4</ele>
        <time>2021-08-11T12:25:04Z</time>
      </trkpt>
      <trkpt lat="48.08657" lon="-3.6441">
        <ele>132.6</ele>
        <time>2021-08-11T12:25:05Z</time>
      </trkpt>
      <trkpt lat="48.08654" lon="-3.64417">
        <ele>132.6</ele>
        <time>2021-08-11T12:25:06Z</time>
      </trkpt>
      <trkpt lat="48.08652" lon="-3.64423">
        <ele>132.6</ele>
        <time>2021-08-11T12:25:07Z</time>
      </trkpt>
      <trkpt lat="48.0865" lon="-3.64428">
        <ele>132.6</ele>
        <time>2021-08-11T12:25:08Z</time>
      </trkpt>
      <trkpt lat="48.08647" lon="-3.64433">
        <ele>132.6</ele>
        <time>2021-08-11T12:25:09Z</time>
      </trkpt>
      <trkpt lat="48.08645" lon="-3.64439">
        <ele>132.6</ele>
        <time>2021-08-11T12:25:10Z</time>
      </trkpt>
      <trkpt lat="48.08642" lon="-3.64445">
        <ele>132.6</ele>
        <time>2021-08-11T12:25:11Z</time>
      </trkpt>
      <trkpt lat="48.08639" lon="-3.64452">
        <ele>132.6</ele>
        <time>2021-08-11T12:25:12Z</time>
      </trkpt>
      <trkpt lat="48.08636" lon="-3.64458">
        <ele>132.6</ele>
        <time>2021-08-11T12:25:13Z</time>
      </trkpt>
      <trkpt lat="48.08633" lon="-3.64465">
        <ele>132.6</ele>
        <time>2021-08-11T12:25:14Z</time>
      </trkpt>
      <trkpt lat="48.0863" lon="-3.64472">
        <ele>132.6</ele>
        <time>2021-08-11T12:25:15Z</time>
      </trkpt>
      <trkpt lat="48.08627" lon="-3.64479">
        <ele>132.6</ele>
        <time>2021-08-11T12:25:16Z</time>
      </trkpt>
      <trkpt lat="48.08625" lon="-3.64484">
        <ele>132.6</ele>
        <time>2021-08-11T12:25:17Z</time>
      </trkpt>
      <trkpt lat="48.08623" lon="-3.64488">
        <ele>132.6</ele>
        <time>2021-08-11T12:25:18Z</time>
      </trkpt>
      <trkpt lat="48.08621" lon="-3.64495">
        <ele>132.6</ele>
        <time>2021-08-11T12:25:19Z</time>
      </trkpt>
      <trkpt lat="48.08618" lon="-3.64501">
        <ele>132.6</ele>
        <time>2021-08-11T12:25:20Z</time>
      </trkpt>
      <trkpt lat="48.08616" lon="-3.64507">
        <ele>132.6</ele>
        <time>2021-08-11T12:25:21Z</time>
      </trkpt>
      <trkpt lat="48.08614" lon="-3.64512">
        <ele>132.6</ele>
        <time>2021-08-11T12:25:22Z</time>
      </trkpt>
      <trkpt lat="48.08611" lon="-3.64517">
        <ele>132.8</ele>
        <time>2021-08-11T12:25:23Z</time>
      </trkpt>
      <trkpt lat="48.08609" lon="-3.64521">
        <ele>132.8</ele>
        <time>2021-08-11T12:25:24Z</time>
      </trkpt>
      <trkpt lat="48.08608" lon="-3.64526">
        <ele>133</ele>
        <time>2021-08-11T12:25:25Z</time>
      </trkpt>
      <trkpt lat="48.08606" lon="-3.64532">
        <ele>133.2</ele>
        <time>2021-08-11T12:25:26Z</time>
      </trkpt>
      <trkpt lat="48.08603" lon="-3.64539">
        <ele>133.2</ele>
        <time>2021-08-11T12:25:27Z</time>
      </trkpt>
      <trkpt lat="48.08601" lon="-3.64545">
        <ele>133.4</ele>
        <time>2021-08-11T12:25:28Z</time>
      </trkpt>
      <trkpt lat="48.08599" lon="-3.64551">
        <ele>133.6</ele>
        <time>2021-08-11T12:25:29Z</time>
      </trkpt>
      <trkpt lat="48.08596" lon="-3.64556">
        <ele>133.8</ele>
        <time>2021-08-11T12:25:30Z</time>
      </trkpt>
      <trkpt lat="48.08594" lon="-3.64562">
        <ele>134</ele>
        <time>2021-08-11T12:25:31Z</time>
      </trkpt>
      <trkpt lat="48.08591" lon="-3.64567">
        <ele>134.2</ele>
        <time>2021-08-11T12:25:32Z</time>
      </trkpt>
      <trkpt lat="48.08589" lon="-3.64573">
        <ele>134.6</ele>
        <time>2021-08-11T12:25:33Z</time>
      </trkpt>
      <trkpt lat="48.08587" lon="-3.64578">
        <ele>134.8</ele>
        <time>2021-08-11T12:25:34Z</time>
      </trkpt>
      <trkpt lat="48.08585" lon="-3.64583">
        <ele>134.8</ele>
        <time>2021-08-11T12:25:35Z</time>
      </trkpt>
      <trkpt lat="48.08582" lon="-3.64588">
        <ele>135</ele>
        <time>2021-08-11T12:25:36Z</time>
      </trkpt>
      <trkpt lat="48.0858" lon="-3.64593">
        <ele>135</ele>
        <time>2021-08-11T12:25:37Z</time>
      </trkpt>
      <trkpt lat="48.08578" lon="-3.64598">
        <ele>135.2</ele>
        <time>2021-08-11T12:25:38Z</time>
      </trkpt>
      <trkpt lat="48.08575" lon="-3.64604">
        <ele>135.2</ele>
        <time>2021-08-11T12:25:39Z</time>
      </trkpt>
      <trkpt lat="48.08573" lon="-3.6461">
        <ele>135.4</ele>
        <time>2021-08-11T12:25:40Z</time>
      </trkpt>
      <trkpt lat="48.0857" lon="-3.64616">
        <ele>135.6</ele>
        <time>2021-08-11T12:25:41Z</time>
      </trkpt>
      <trkpt lat="48.08568" lon="-3.64623">
        <ele>135.6</ele>
        <time>2021-08-11T12:25:42Z</time>
      </trkpt>
      <trkpt lat="48.08565" lon="-3.64629">
        <ele>135.8</ele>
        <time>2021-08-11T12:25:43Z</time>
      </trkpt>
      <trkpt lat="48.08563" lon="-3.64635">
        <ele>135.8</ele>
        <time>2021-08-11T12:25:44Z</time>
      </trkpt>
      <trkpt lat="48.08561" lon="-3.64641">
        <ele>136</ele>
        <time>2021-08-11T12:25:45Z</time>
      </trkpt>
      <trkpt lat="48.08558" lon="-3.64647">
        <ele>136</ele>
        <time>2021-08-11T12:25:46Z</time>
      </trkpt>
      <trkpt lat="48.08556" lon="-3.64653">
        <ele>136</ele>
        <time>2021-08-11T12:25:47Z</time>
      </trkpt>
      <trkpt lat="48.08554" lon="-3.64658">
        <ele>136</ele>
        <time>2021-08-11T12:25:48Z</time>
      </trkpt>
      <trkpt lat="48.08551" lon="-3.64662">
        <ele>136.2</ele>
        <time>2021-08-11T12:25:49Z</time>
      </trkpt>
      <trkpt lat="48.08548" lon="-3.64667">
        <ele>136.2</ele>
        <time>2021-08-11T12:25:50Z</time>
      </trkpt>
      <trkpt lat="48.08545" lon="-3.64672">
        <ele>136.2</ele>
        <time>2021-08-11T12:25:51Z</time>
      </trkpt>
      <trkpt lat="48.08543" lon="-3.64678">
        <ele>136.2</ele>
        <time>2021-08-11T12:25:52Z</time>
      </trkpt>
      <trkpt lat="48.08542" lon="-3.64685">
        <ele>136.2</ele>
        <time>2021-08-11T12:25:53Z</time>
      </trkpt>
      <trkpt lat="48.0854" lon="-3.64691">
        <ele>136.2</ele>
        <time>2021-08-11T12:25:54Z</time>
      </trkpt>
      <trkpt lat="48.08538" lon="-3.64698">
        <ele>136.4</ele>
        <time>2021-08-11T12:25:55Z</time>
      </trkpt>
      <trkpt lat="48.08536" lon="-3.64703">
        <ele>136.4</ele>
        <time>2021-08-11T12:25:56Z</time>
      </trkpt>
      <trkpt lat="48.08534" lon="-3.64709">
        <ele>136.4</ele>
        <time>2021-08-11T12:25:57Z</time>
      </trkpt>
      <trkpt lat="48.08532" lon="-3.64715">
        <ele>136.4</ele>
        <time>2021-08-11T12:25:58Z</time>
      </trkpt>
      <trkpt lat="48.0853" lon="-3.64722">
        <ele>136.2</ele>
        <time>2021-08-11T12:25:59Z</time>
      </trkpt>
      <trkpt lat="48.08528" lon="-3.64728">
        <ele>136.4</ele>
        <time>2021-08-11T12:26:00Z</time>
      </trkpt>
      <trkpt lat="48.08526" lon="-3.64733">
        <ele>136.6</ele>
        <time>2021-08-11T12:26:01Z</time>
      </trkpt>
      <trkpt lat="48.08524" lon="-3.64739">
        <ele>136.6</ele>
        <time>2021-08-11T12:26:02Z</time>
      </trkpt>
      <trkpt lat="48.08522" lon="-3.64744">
        <ele>136.8</ele>
        <time>2021-08-11T12:26:03Z</time>
      </trkpt>
      <trkpt lat="48.0852" lon="-3.6475">
        <ele>137</ele>
        <time>2021-08-11T12:26:04Z</time>
      </trkpt>
      <trkpt lat="48.08519" lon="-3.64756">
        <ele>137.2</ele>
        <time>2021-08-11T12:26:05Z</time>
      </trkpt>
      <trkpt lat="48.08517" lon="-3.64761">
        <ele>137.2</ele>
        <time>2021-08-11T12:26:06Z</time>
      </trkpt>
      <trkpt lat="48.08515" lon="-3.64767">
        <ele>137.6</ele>
        <time>2021-08-11T12:26:07Z</time>
      </trkpt>
      <trkpt lat="48.08512" lon="-3.64773">
        <ele>137.6</ele>
        <time>2021-08-11T12:26:08Z</time>
      </trkpt>
      <trkpt lat="48.0851" lon="-3.64778">
        <ele>137.6</ele>
        <time>2021-08-11T12:26:09Z</time>
      </trkpt>
      <trkpt lat="48.08507" lon="-3.64782">
        <ele>137.6</ele>
        <time>2021-08-11T12:26:10Z</time>
      </trkpt>
      <trkpt lat="48.08505" lon="-3.64786">
        <ele>137.6</ele>
        <time>2021-08-11T12:26:11Z</time>
      </trkpt>
      <trkpt lat="48.08502" lon="-3.64791">
        <ele>137.6</ele>
        <time>2021-08-11T12:26:12Z</time>
      </trkpt>
      <trkpt lat="48.08499" lon="-3.64796">
        <ele>137.8</ele>
        <time>2021-08-11T12:26:13Z</time>
      </trkpt>
      <trkpt lat="48.08497" lon="-3.648">
        <ele>138.2</ele>
        <time>2021-08-11T12:26:14Z</time>
      </trkpt>
      <trkpt lat="48.08495" lon="-3.64805">
        <ele>138.2</ele>
        <time>2021-08-11T12:26:15Z</time>
      </trkpt>
      <trkpt lat="48.08493" lon="-3.6481">
        <ele>138.2</ele>
        <time>2021-08-11T12:26:16Z</time>
      </trkpt>
      <trkpt lat="48.08491" lon="-3.64814">
        <ele>138.4</ele>
        <time>2021-08-11T12:26:17Z</time>
      </trkpt>
      <trkpt lat="48.0849" lon="-3.64818">
        <ele>138.6</ele>
        <time>2021-08-11T12:26:18Z</time>
      </trkpt>
      <trkpt lat="48.08488" lon="-3.64823">
        <ele>138.8</ele>
        <time>2021-08-11T12:26:19Z</time>
      </trkpt>
      <trkpt lat="48.08487" lon="-3.64827">
        <ele>138.8</ele>
        <time>2021-08-11T12:26:20Z</time>
      </trkpt>
      <trkpt lat="48.08484" lon="-3.64831">
        <ele>139</ele>
        <time>2021-08-11T12:26:21Z</time>
      </trkpt>
      <trkpt lat="48.08483" lon="-3.64836">
        <ele>139</ele>
        <time>2021-08-11T12:26:22Z</time>
      </trkpt>
      <trkpt lat="48.08482" lon="-3.64841">
        <ele>139</ele>
        <time>2021-08-11T12:26:23Z</time>
      </trkpt>
      <trkpt lat="48.0848" lon="-3.64846">
        <ele>139.2</ele>
        <time>2021-08-11T12:26:24Z</time>
      </trkpt>
      <trkpt lat="48.08478" lon="-3.64851">
        <ele>139.4</ele>
        <time>2021-08-11T12:26:25Z</time>
      </trkpt>
      <trkpt lat="48.08477" lon="-3.64855">
        <ele>139.6</ele>
        <time>2021-08-11T12:26:26Z</time>
      </trkpt>
      <trkpt lat="48.08475" lon="-3.6486">
        <ele>139.6</ele>
        <time>2021-08-11T12:26:27Z</time>
      </trkpt>
      <trkpt lat="48.08473" lon="-3.64865">
        <ele>139.6</ele>
        <time>2021-08-11T12:26:28Z</time>
      </trkpt>
      <trkpt lat="48.08472" lon="-3.64869">
        <ele>139.8</ele>
        <time>2021-08-11T12:26:29Z</time>
      </trkpt>
      <trkpt lat="48.0847" lon="-3.64874">
        <ele>139.8</ele>
        <time>2021-08-11T12:26:30Z</time>
      </trkpt>
      <trkpt lat="48.08469" lon="-3.64878">
        <ele>140</ele>
        <time>2021-08-11T12:26:31Z</time>
      </trkpt>
      <trkpt lat="48.08468" lon="-3.64883">
        <ele>140</ele>
        <time>2021-08-11T12:26:32Z</time>
      </trkpt>
      <trkpt lat="48.08466" lon="-3.64888">
        <ele>140</ele>
        <time>2021-08-11T12:26:33Z</time>
      </trkpt>
      <trkpt lat="48.08463" lon="-3.64893">
        <ele>140</ele>
        <time>2021-08-11T12:26:34Z</time>
      </trkpt>
      <trkpt lat="48.08461" lon="-3.64899">
        <ele>140.2</ele>
        <time>2021-08-11T12:26:35Z</time>
      </trkpt>
      <trkpt lat="48.08459" lon="-3.64905">
        <ele>140.2</ele>
        <time>2021-08-11T12:26:36Z</time>
      </trkpt>
      <trkpt lat="48.08457" lon="-3.64911">
        <ele>140.2</ele>
        <time>2021-08-11T12:26:37Z</time>
      </trkpt>
      <trkpt lat="48.08456" lon="-3.64918">
        <ele>140.4</ele>
        <time>2021-08-11T12:26:38Z</time>
      </trkpt>
      <trkpt lat="48.08454" lon="-3.64924">
        <ele>140.6</ele>
        <time>2021-08-11T12:26:39Z</time>
      </trkpt>
      <trkpt lat="48.08452" lon="-3.64932">
        <ele>140.8</ele>
        <time>2021-08-11T12:26:40Z</time>
      </trkpt>
      <trkpt lat="48.0845" lon="-3.6494">
        <ele>140.8</ele>
        <time>2021-08-11T12:26:41Z</time>
      </trkpt>
      <trkpt lat="48.08449" lon="-3.64947">
        <ele>140.8</ele>
        <time>2021-08-11T12:26:42Z</time>
      </trkpt>
      <trkpt lat="48.08447" lon="-3.64955">
        <ele>140.8</ele>
        <time>2021-08-11T12:26:43Z</time>
      </trkpt>
      <trkpt lat="48.08446" lon="-3.64962">
        <ele>140.8</ele>
        <time>2021-08-11T12:26:44Z</time>
      </trkpt>
      <trkpt lat="48.08444" lon="-3.64969">
        <ele>141</ele>
        <time>2021-08-11T12:26:45Z</time>
      </trkpt>
      <trkpt lat="48.08443" lon="-3.64976">
        <ele>141</ele>
        <time>2021-08-11T12:26:46Z</time>
      </trkpt>
      <trkpt lat="48.08442" lon="-3.64983">
        <ele>140.8</ele>
        <time>2021-08-11T12:26:47Z</time>
      </trkpt>
      <trkpt lat="48.0844" lon="-3.6499">
        <ele>140.8</ele>
        <time>2021-08-11T12:26:48Z</time>
      </trkpt>
      <trkpt lat="48.08438" lon="-3.64997">
        <ele>141.2</ele>
        <time>2021-08-11T12:26:49Z</time>
      </trkpt>
      <trkpt lat="48.08437" lon="-3.65005">
        <ele>141</ele>
        <time>2021-08-11T12:26:50Z</time>
      </trkpt>
      <trkpt lat="48.08436" lon="-3.65013">
        <ele>141.2</ele>
        <time>2021-08-11T12:26:51Z</time>
      </trkpt>
      <trkpt lat="48.08434" lon="-3.6502">
        <ele>141.2</ele>
        <time>2021-08-11T12:26:52Z</time>
      </trkpt>
      <trkpt lat="48.08432" lon="-3.65027">
        <ele>141.2</ele>
        <time>2021-08-11T12:26:53Z</time>
      </trkpt>
      <trkpt lat="48.0843" lon="-3.65033">
        <ele>141.4</ele>
        <time>2021-08-11T12:26:54Z</time>
      </trkpt>
      <trkpt lat="48.08429" lon="-3.6504">
        <ele>141.4</ele>
        <time>2021-08-11T12:26:55Z</time>
      </trkpt>
      <trkpt lat="48.08429" lon="-3.65044">
        <ele>141.6</ele>
        <time>2021-08-11T12:26:56Z</time>
      </trkpt>
      <trkpt lat="48.08428" lon="-3.6505">
        <ele>141.6</ele>
        <time>2021-08-11T12:26:57Z</time>
      </trkpt>
      <trkpt lat="48.08427" lon="-3.65055">
        <ele>141.8</ele>
        <time>2021-08-11T12:26:58Z</time>
      </trkpt>
      <trkpt lat="48.08426" lon="-3.65063">
        <ele>142</ele>
        <time>2021-08-11T12:26:59Z</time>
      </trkpt>
      <trkpt lat="48.08425" lon="-3.6507">
        <ele>142.2</ele>
        <time>2021-08-11T12:27:00Z</time>
      </trkpt>
      <trkpt lat="48.08424" lon="-3.65078">
        <ele>142.4</ele>
        <time>2021-08-11T12:27:01Z</time>
      </trkpt>
      <trkpt lat="48.08422" lon="-3.65086">
        <ele>142.4</ele>
        <time>2021-08-11T12:27:02Z</time>
      </trkpt>
      <trkpt lat="48.08421" lon="-3.65093">
        <ele>142.4</ele>
        <time>2021-08-11T12:27:03Z</time>
      </trkpt>
      <trkpt lat="48.0842" lon="-3.65101">
        <ele>142.4</ele>
        <time>2021-08-11T12:27:04Z</time>
      </trkpt>
      <trkpt lat="48.08419" lon="-3.65109">
        <ele>142.4</ele>
        <time>2021-08-11T12:27:05Z</time>
      </trkpt>
      <trkpt lat="48.08418" lon="-3.65118">
        <ele>142.6</ele>
        <time>2021-08-11T12:27:06Z</time>
      </trkpt>
      <trkpt lat="48.08417" lon="-3.65126">
        <ele>142.6</ele>
        <time>2021-08-11T12:27:07Z</time>
      </trkpt>
      <trkpt lat="48.08416" lon="-3.65134">
        <ele>142.6</ele>
        <time>2021-08-11T12:27:08Z</time>
      </trkpt>
      <trkpt lat="48.08414" lon="-3.65141">
        <ele>142.8</ele>
        <time>2021-08-11T12:27:09Z</time>
      </trkpt>
      <trkpt lat="48.08413" lon="-3.6515">
        <ele>142.8</ele>
        <time>2021-08-11T12:27:10Z</time>
      </trkpt>
      <trkpt lat="48.08412" lon="-3.65158">
        <ele>142.8</ele>
        <time>2021-08-11T12:27:11Z</time>
      </trkpt>
      <trkpt lat="48.08411" lon="-3.65167">
        <ele>143</ele>
        <time>2021-08-11T12:27:12Z</time>
      </trkpt>
      <trkpt lat="48.0841" lon="-3.65176">
        <ele>143</ele>
        <time>2021-08-11T12:27:13Z</time>
      </trkpt>
      <trkpt lat="48.08409" lon="-3.65184">
        <ele>143</ele>
        <time>2021-08-11T12:27:14Z</time>
      </trkpt>
      <trkpt lat="48.08408" lon="-3.65194">
        <ele>143</ele>
        <time>2021-08-11T12:27:15Z</time>
      </trkpt>
      <trkpt lat="48.08407" lon="-3.65203">
        <ele>143</ele>
        <time>2021-08-11T12:27:16Z</time>
      </trkpt>
      <trkpt lat="48.08405" lon="-3.65212">
        <ele>143</ele>
        <time>2021-08-11T12:27:17Z</time>
      </trkpt>
      <trkpt lat="48.08402" lon="-3.6522">
        <ele>143</ele>
        <time>2021-08-11T12:27:18Z</time>
      </trkpt>
      <trkpt lat="48.08399" lon="-3.65228">
        <ele>143</ele>
        <time>2021-08-11T12:27:19Z</time>
      </trkpt>
      <trkpt lat="48.08397" lon="-3.65236">
        <ele>143.2</ele>
        <time>2021-08-11T12:27:20Z</time>
      </trkpt>
      <trkpt lat="48.08395" lon="-3.65244">
        <ele>143.2</ele>
        <time>2021-08-11T12:27:21Z</time>
      </trkpt>
      <trkpt lat="48.08392" lon="-3.65251">
        <ele>143.4</ele>
        <time>2021-08-11T12:27:22Z</time>
      </trkpt>
      <trkpt lat="48.0839" lon="-3.65258">
        <ele>143.6</ele>
        <time>2021-08-11T12:27:23Z</time>
      </trkpt>
      <trkpt lat="48.08387" lon="-3.65265">
        <ele>143.6</ele>
        <time>2021-08-11T12:27:24Z</time>
      </trkpt>
      <trkpt lat="48.08384" lon="-3.65271">
        <ele>143.8</ele>
        <time>2021-08-11T12:27:25Z</time>
      </trkpt>
      <trkpt lat="48.08381" lon="-3.65278">
        <ele>143.8</ele>
        <time>2021-08-11T12:27:26Z</time>
      </trkpt>
      <trkpt lat="48.08378" lon="-3.65283">
        <ele>144</ele>
        <time>2021-08-11T12:27:27Z</time>
      </trkpt>
      <trkpt lat="48.08375" lon="-3.6529">
        <ele>144</ele>
        <time>2021-08-11T12:27:28Z</time>
      </trkpt>
      <trkpt lat="48.08372" lon="-3.65296">
        <ele>144.2</ele>
        <time>2021-08-11T12:27:29Z</time>
      </trkpt>
      <trkpt lat="48.08368" lon="-3.65302">
        <ele>144.2</ele>
        <time>2021-08-11T12:27:30Z</time>
      </trkpt>
      <trkpt lat="48.08364" lon="-3.65309">
        <ele>144.2</ele>
        <time>2021-08-11T12:27:31Z</time>
      </trkpt>
      <trkpt lat="48.0836" lon="-3.65316">
        <ele>144.2</ele>
        <time>2021-08-11T12:27:32Z</time>
      </trkpt>
      <trkpt lat="48.08356" lon="-3.65322">
        <ele>144.2</ele>
        <time>2021-08-11T12:27:33Z</time>
      </trkpt>
      <trkpt lat="48.08352" lon="-3.65328">
        <ele>144.2</ele>
        <time>2021-08-11T12:27:34Z</time>
      </trkpt>
      <trkpt lat="48.08349" lon="-3.65333">
        <ele>144.2</ele>
        <time>2021-08-11T12:27:35Z</time>
      </trkpt>
      <trkpt lat="48.08344" lon="-3.65339">
        <ele>144.4</ele>
        <time>2021-08-11T12:27:36Z</time>
      </trkpt>
      <trkpt lat="48.0834" lon="-3.65345">
        <ele>144.4</ele>
        <time>2021-08-11T12:27:37Z</time>
      </trkpt>
      <trkpt lat="48.08336" lon="-3.6535">
        <ele>144.4</ele>
        <time>2021-08-11T12:27:38Z</time>
      </trkpt>
      <trkpt lat="48.08331" lon="-3.65356">
        <ele>144.4</ele>
        <time>2021-08-11T12:27:39Z</time>
      </trkpt>
      <trkpt lat="48.08327" lon="-3.65362">
        <ele>144.6</ele>
        <time>2021-08-11T12:27:40Z</time>
      </trkpt>
      <trkpt lat="48.08322" lon="-3.65368">
        <ele>144.6</ele>
        <time>2021-08-11T12:27:41Z</time>
      </trkpt>
      <trkpt lat="48.08317" lon="-3.65373">
        <ele>144.8</ele>
        <time>2021-08-11T12:27:42Z</time>
      </trkpt>
      <trkpt lat="48.08312" lon="-3.65379">
        <ele>144.8</ele>
        <time>2021-08-11T12:27:43Z</time>
      </trkpt>
      <trkpt lat="48.08307" lon="-3.65384">
        <ele>145</ele>
        <time>2021-08-11T12:27:44Z</time>
      </trkpt>
      <trkpt lat="48.08303" lon="-3.65389">
        <ele>145.2</ele>
        <time>2021-08-11T12:27:45Z</time>
      </trkpt>
      <trkpt lat="48.08299" lon="-3.65394">
        <ele>145.2</ele>
        <time>2021-08-11T12:27:46Z</time>
      </trkpt>
      <trkpt lat="48.08295" lon="-3.65399">
        <ele>145.4</ele>
        <time>2021-08-11T12:27:47Z</time>
      </trkpt>
      <trkpt lat="48.08292" lon="-3.65403">
        <ele>145.4</ele>
        <time>2021-08-11T12:27:48Z</time>
      </trkpt>
      <trkpt lat="48.08288" lon="-3.65408">
        <ele>145.6</ele>
        <time>2021-08-11T12:27:49Z</time>
      </trkpt>
      <trkpt lat="48.08284" lon="-3.65413">
        <ele>145.6</ele>
        <time>2021-08-11T12:27:50Z</time>
      </trkpt>
      <trkpt lat="48.0828" lon="-3.65417">
        <ele>145.8</ele>
        <time>2021-08-11T12:27:51Z</time>
      </trkpt>
      <trkpt lat="48.08276" lon="-3.65422">
        <ele>145.8</ele>
        <time>2021-08-11T12:27:52Z</time>
      </trkpt>
      <trkpt lat="48.08273" lon="-3.65426">
        <ele>145.8</ele>
        <time>2021-08-11T12:27:53Z</time>
      </trkpt>
      <trkpt lat="48.0827" lon="-3.6543">
        <ele>145.8</ele>
        <time>2021-08-11T12:27:54Z</time>
      </trkpt>
      <trkpt lat="48.08267" lon="-3.65434">
        <ele>146</ele>
        <time>2021-08-11T12:27:55Z</time>
      </trkpt>
      <trkpt lat="48.08263" lon="-3.65439">
        <ele>146</ele>
        <time>2021-08-11T12:27:56Z</time>
      </trkpt>
      <trkpt lat="48.0826" lon="-3.65443">
        <ele>146</ele>
        <time>2021-08-11T12:27:57Z</time>
      </trkpt>
      <trkpt lat="48.08256" lon="-3.65447">
        <ele>146.4</ele>
        <time>2021-08-11T12:27:58Z</time>
      </trkpt>
      <trkpt lat="48.08252" lon="-3.65452">
        <ele>146.6</ele>
        <time>2021-08-11T12:27:59Z</time>
      </trkpt>
      <trkpt lat="48.08248" lon="-3.65457">
        <ele>146.6</ele>
        <time>2021-08-11T12:28:00Z</time>
      </trkpt>
      <trkpt lat="48.08244" lon="-3.65461">
        <ele>146.8</ele>
        <time>2021-08-11T12:28:01Z</time>
      </trkpt>
      <trkpt lat="48.0824" lon="-3.65466">
        <ele>146.8</ele>
        <time>2021-08-11T12:28:02Z</time>
      </trkpt>
      <trkpt lat="48.08235" lon="-3.65471">
        <ele>146.8</ele>
        <time>2021-08-11T12:28:03Z</time>
      </trkpt>
      <trkpt lat="48.08231" lon="-3.65475">
        <ele>147</ele>
        <time>2021-08-11T12:28:04Z</time>
      </trkpt>
      <trkpt lat="48.08228" lon="-3.65479">
        <ele>147</ele>
        <time>2021-08-11T12:28:05Z</time>
      </trkpt>
      <trkpt lat="48.08224" lon="-3.65483">
        <ele>147.2</ele>
        <time>2021-08-11T12:28:06Z</time>
      </trkpt>
      <trkpt lat="48.0822" lon="-3.65487">
        <ele>147.4</ele>
        <time>2021-08-11T12:28:07Z</time>
      </trkpt>
      <trkpt lat="48.08216" lon="-3.6549">
        <ele>147.4</ele>
        <time>2021-08-11T12:28:08Z</time>
      </trkpt>
      <trkpt lat="48.08212" lon="-3.65493">
        <ele>147.6</ele>
        <time>2021-08-11T12:28:09Z</time>
      </trkpt>
      <trkpt lat="48.08207" lon="-3.65496">
        <ele>147.8</ele>
        <time>2021-08-11T12:28:10Z</time>
      </trkpt>
      <trkpt lat="48.08203" lon="-3.65499">
        <ele>148</ele>
        <time>2021-08-11T12:28:11Z</time>
      </trkpt>
      <trkpt lat="48.08199" lon="-3.65502">
        <ele>148.2</ele>
        <time>2021-08-11T12:28:12Z</time>
      </trkpt>
      <trkpt lat="48.08195" lon="-3.65506">
        <ele>148.2</ele>
        <time>2021-08-11T12:28:13Z</time>
      </trkpt>
      <trkpt lat="48.08191" lon="-3.6551">
        <ele>148.4</ele>
        <time>2021-08-11T12:28:14Z</time>
      </trkpt>
      <trkpt lat="48.08186" lon="-3.65514">
        <ele>148.4</ele>
        <time>2021-08-11T12:28:15Z</time>
      </trkpt>
      <trkpt lat="48.08183" lon="-3.65517">
        <ele>148.4</ele>
        <time>2021-08-11T12:28:16Z</time>
      </trkpt>
      <trkpt lat="48.08179" lon="-3.6552">
        <ele>148.6</ele>
        <time>2021-08-11T12:28:17Z</time>
      </trkpt>
      <trkpt lat="48.08175" lon="-3.65522">
        <ele>148.6</ele>
        <time>2021-08-11T12:28:18Z</time>
      </trkpt>
      <trkpt lat="48.08171" lon="-3.65525">
        <ele>148.6</ele>
        <time>2021-08-11T12:28:19Z</time>
      </trkpt>
      <trkpt lat="48.08166" lon="-3.65528">
        <ele>148.8</ele>
        <time>2021-08-11T12:28:20Z</time>
      </trkpt>
      <trkpt lat="48.08162" lon="-3.65531">
        <ele>149</ele>
        <time>2021-08-11T12:28:21Z</time>
      </trkpt>
      <trkpt lat="48.08158" lon="-3.65533">
        <ele>149</ele>
        <time>2021-08-11T12:28:22Z</time>
      </trkpt>
      <trkpt lat="48.08154" lon="-3.65534">
        <ele>149.2</ele>
        <time>2021-08-11T12:28:23Z</time>
      </trkpt>
      <trkpt lat="48.0815" lon="-3.65536">
        <ele>149.4</ele>
        <time>2021-08-11T12:28:24Z</time>
      </trkpt>
      <trkpt lat="48.08146" lon="-3.65537">
        <ele>149.4</ele>
        <time>2021-08-11T12:28:25Z</time>
      </trkpt>
      <trkpt lat="48.08142" lon="-3.65539">
        <ele>149.6</ele>
        <time>2021-08-11T12:28:26Z</time>
      </trkpt>
      <trkpt lat="48.08138" lon="-3.65541">
        <ele>149.6</ele>
        <time>2021-08-11T12:28:27Z</time>
      </trkpt>
      <trkpt lat="48.08134" lon="-3.65544">
        <ele>149.8</ele>
        <time>2021-08-11T12:28:28Z</time>
      </trkpt>
      <trkpt lat="48.0813" lon="-3.65546">
        <ele>149.8</ele>
        <time>2021-08-11T12:28:29Z</time>
      </trkpt>
      <trkpt lat="48.08126" lon="-3.65548">
        <ele>149.8</ele>
        <time>2021-08-11T12:28:30Z</time>
      </trkpt>
      <trkpt lat="48.08122" lon="-3.6555">
        <ele>150</ele>
        <time>2021-08-11T12:28:31Z</time>
      </trkpt>
      <trkpt lat="48.08119" lon="-3.65553">
        <ele>150</ele>
        <time>2021-08-11T12:28:32Z</time>
      </trkpt>
      <trkpt lat="48.08116" lon="-3.65556">
        <ele>150.2</ele>
        <time>2021-08-11T12:28:33Z</time>
      </trkpt>
      <trkpt lat="48.08113" lon="-3.65559">
        <ele>150.4</ele>
        <time>2021-08-11T12:28:34Z</time>
      </trkpt>
      <trkpt lat="48.08109" lon="-3.65563">
        <ele>150.4</ele>
        <time>2021-08-11T12:28:35Z</time>
      </trkpt>
      <trkpt lat="48.08106" lon="-3.65566">
        <ele>150.6</ele>
        <time>2021-08-11T12:28:36Z</time>
      </trkpt>
      <trkpt lat="48.08102" lon="-3.65569">
        <ele>151</ele>
        <time>2021-08-11T12:28:37Z</time>
      </trkpt>
      <trkpt lat="48.08099" lon="-3.65572">
        <ele>151.2</ele>
        <time>2021-08-11T12:28:38Z</time>
      </trkpt>
      <trkpt lat="48.08096" lon="-3.65575">
        <ele>151.4</ele>
        <time>2021-08-11T12:28:39Z</time>
      </trkpt>
      <trkpt lat="48.08092" lon="-3.65577">
        <ele>151.4</ele>
        <time>2021-08-11T12:28:40Z</time>
      </trkpt>
      <trkpt lat="48.08087" lon="-3.65579">
        <ele>151.6</ele>
        <time>2021-08-11T12:28:41Z</time>
      </trkpt>
      <trkpt lat="48.08083" lon="-3.65581">
        <ele>151.8</ele>
        <time>2021-08-11T12:28:42Z</time>
      </trkpt>
      <trkpt lat="48.08078" lon="-3.65584">
        <ele>151.8</ele>
        <time>2021-08-11T12:28:43Z</time>
      </trkpt>
      <trkpt lat="48.08072" lon="-3.65587">
        <ele>151.8</ele>
        <time>2021-08-11T12:28:44Z</time>
      </trkpt>
      <trkpt lat="48.08068" lon="-3.65588">
        <ele>151.8</ele>
        <time>2021-08-11T12:28:45Z</time>
      </trkpt>
      <trkpt lat="48.08063" lon="-3.65591">
        <ele>152</ele>
        <time>2021-08-11T12:28:46Z</time>
      </trkpt>
      <trkpt lat="48.08058" lon="-3.65595">
        <ele>152</ele>
        <time>2021-08-11T12:28:47Z</time>
      </trkpt>
      <trkpt lat="48.08053" lon="-3.65599">
        <ele>152</ele>
        <time>2021-08-11T12:28:48Z</time>
      </trkpt>
      <trkpt lat="48.08049" lon="-3.65604">
        <ele>152</ele>
        <time>2021-08-11T12:28:49Z</time>
      </trkpt>
      <trkpt lat="48.08044" lon="-3.65608">
        <ele>152</ele>
        <time>2021-08-11T12:28:50Z</time>
      </trkpt>
      <trkpt lat="48.0804" lon="-3.65612">
        <ele>152</ele>
        <time>2021-08-11T12:28:51Z</time>
      </trkpt>
      <trkpt lat="48.08035" lon="-3.65616">
        <ele>152.2</ele>
        <time>2021-08-11T12:28:52Z</time>
      </trkpt>
      <trkpt lat="48.08031" lon="-3.65621">
        <ele>152.2</ele>
        <time>2021-08-11T12:28:53Z</time>
      </trkpt>
      <trkpt lat="48.08027" lon="-3.65625">
        <ele>152.2</ele>
        <time>2021-08-11T12:28:54Z</time>
      </trkpt>
      <trkpt lat="48.08022" lon="-3.65631">
        <ele>152.2</ele>
        <time>2021-08-11T12:28:55Z</time>
      </trkpt>
      <trkpt lat="48.08018" lon="-3.65635">
        <ele>152.8</ele>
        <time>2021-08-11T12:28:56Z</time>
      </trkpt>
      <trkpt lat="48.08014" lon="-3.6564">
        <ele>153</ele>
        <time>2021-08-11T12:28:57Z</time>
      </trkpt>
      <trkpt lat="48.0801" lon="-3.65644">
        <ele>153</ele>
        <time>2021-08-11T12:28:58Z</time>
      </trkpt>
      <trkpt lat="48.08007" lon="-3.65648">
        <ele>153.2</ele>
        <time>2021-08-11T12:28:59Z</time>
      </trkpt>
      <trkpt lat="48.08004" lon="-3.65652">
        <ele>153.4</ele>
        <time>2021-08-11T12:29:00Z</time>
      </trkpt>
      <trkpt lat="48.08001" lon="-3.65656">
        <ele>153.6</ele>
        <time>2021-08-11T12:29:01Z</time>
      </trkpt>
      <trkpt lat="48.07997" lon="-3.6566">
        <ele>153.6</ele>
        <time>2021-08-11T12:29:02Z</time>
      </trkpt>
      <trkpt lat="48.07993" lon="-3.65665">
        <ele>153.8</ele>
        <time>2021-08-11T12:29:03Z</time>
      </trkpt>
      <trkpt lat="48.07989" lon="-3.6567">
        <ele>153.8</ele>
        <time>2021-08-11T12:29:04Z</time>
      </trkpt>
      <trkpt lat="48.07984" lon="-3.65676">
        <ele>153.8</ele>
        <time>2021-08-11T12:29:05Z</time>
      </trkpt>
      <trkpt lat="48.0798" lon="-3.65681">
        <ele>153.8</ele>
        <time>2021-08-11T12:29:06Z</time>
      </trkpt>
      <trkpt lat="48.07977" lon="-3.65686">
        <ele>154</ele>
        <time>2021-08-11T12:29:07Z</time>
      </trkpt>
      <trkpt lat="48.07973" lon="-3.65691">
        <ele>154</ele>
        <time>2021-08-11T12:29:08Z</time>
      </trkpt>
      <trkpt lat="48.07969" lon="-3.65696">
        <ele>154</ele>
        <time>2021-08-11T12:29:09Z</time>
      </trkpt>
      <trkpt lat="48.07966" lon="-3.657">
        <ele>154</ele>
        <time>2021-08-11T12:29:10Z</time>
      </trkpt>
      <trkpt lat="48.07963" lon="-3.65704">
        <ele>154.2</ele>
        <time>2021-08-11T12:29:11Z</time>
      </trkpt>
      <trkpt lat="48.07959" lon="-3.65709">
        <ele>154.2</ele>
        <time>2021-08-11T12:29:12Z</time>
      </trkpt>
      <trkpt lat="48.07955" lon="-3.65714">
        <ele>154.4</ele>
        <time>2021-08-11T12:29:13Z</time>
      </trkpt>
      <trkpt lat="48.07952" lon="-3.65719">
        <ele>154.4</ele>
        <time>2021-08-11T12:29:14Z</time>
      </trkpt>
      <trkpt lat="48.07948" lon="-3.65723">
        <ele>154.6</ele>
        <time>2021-08-11T12:29:15Z</time>
      </trkpt>
      <trkpt lat="48.07945" lon="-3.65728">
        <ele>154.8</ele>
        <time>2021-08-11T12:29:16Z</time>
      </trkpt>
      <trkpt lat="48.07941" lon="-3.65732">
        <ele>154.8</ele>
        <time>2021-08-11T12:29:17Z</time>
      </trkpt>
      <trkpt lat="48.07938" lon="-3.65736">
        <ele>154.8</ele>
        <time>2021-08-11T12:29:18Z</time>
      </trkpt>
      <trkpt lat="48.07934" lon="-3.65741">
        <ele>155.2</ele>
        <time>2021-08-11T12:29:19Z</time>
      </trkpt>
      <trkpt lat="48.07931" lon="-3.65744">
        <ele>155.2</ele>
        <time>2021-08-11T12:29:20Z</time>
      </trkpt>
      <trkpt lat="48.07928" lon="-3.65748">
        <ele>155.4</ele>
        <time>2021-08-11T12:29:21Z</time>
      </trkpt>
      <trkpt lat="48.07925" lon="-3.65751">
        <ele>155.4</ele>
        <time>2021-08-11T12:29:22Z</time>
      </trkpt>
      <trkpt lat="48.07922" lon="-3.65755">
        <ele>155.6</ele>
        <time>2021-08-11T12:29:23Z</time>
      </trkpt>
      <trkpt lat="48.07918" lon="-3.65759">
        <ele>155.6</ele>
        <time>2021-08-11T12:29:24Z</time>
      </trkpt>
      <trkpt lat="48.07915" lon="-3.65763">
        <ele>156</ele>
        <time>2021-08-11T12:29:25Z</time>
      </trkpt>
      <trkpt lat="48.07912" lon="-3.65767">
        <ele>156</ele>
        <time>2021-08-11T12:29:26Z</time>
      </trkpt>
      <trkpt lat="48.07909" lon="-3.65771">
        <ele>156</ele>
        <time>2021-08-11T12:29:27Z</time>
      </trkpt>
      <trkpt lat="48.07906" lon="-3.65775">
        <ele>156.2</ele>
        <time>2021-08-11T12:29:28Z</time>
      </trkpt>
      <trkpt lat="48.07903" lon="-3.65779">
        <ele>156.4</ele>
        <time>2021-08-11T12:29:29Z</time>
      </trkpt>
      <trkpt lat="48.07899" lon="-3.65783">
        <ele>156.6</ele>
        <time>2021-08-11T12:29:30Z</time>
      </trkpt>
      <trkpt lat="48.07896" lon="-3.65787">
        <ele>156.8</ele>
        <time>2021-08-11T12:29:31Z</time>
      </trkpt>
      <trkpt lat="48.07892" lon="-3.65791">
        <ele>156.8</ele>
        <time>2021-08-11T12:29:32Z</time>
      </trkpt>
      <trkpt lat="48.07889" lon="-3.65796">
        <ele>157</ele>
        <time>2021-08-11T12:29:33Z</time>
      </trkpt>
      <trkpt lat="48.07885" lon="-3.65801">
        <ele>157</ele>
        <time>2021-08-11T12:29:34Z</time>
      </trkpt>
      <trkpt lat="48.07881" lon="-3.65805">
        <ele>157</ele>
        <time>2021-08-11T12:29:35Z</time>
      </trkpt>
      <trkpt lat="48.07878" lon="-3.6581">
        <ele>157.2</ele>
        <time>2021-08-11T12:29:36Z</time>
      </trkpt>
      <trkpt lat="48.07874" lon="-3.65816">
        <ele>157.4</ele>
        <time>2021-08-11T12:29:37Z</time>
      </trkpt>
      <trkpt lat="48.0787" lon="-3.65822">
        <ele>157.4</ele>
        <time>2021-08-11T12:29:38Z</time>
      </trkpt>
      <trkpt lat="48.07867" lon="-3.65827">
        <ele>157.4</ele>
        <time>2021-08-11T12:29:39Z</time>
      </trkpt>
      <trkpt lat="48.07863" lon="-3.65831">
        <ele>157.4</ele>
        <time>2021-08-11T12:29:40Z</time>
      </trkpt>
      <trkpt lat="48.07859" lon="-3.65836">
        <ele>157.6</ele>
        <time>2021-08-11T12:29:41Z</time>
      </trkpt>
      <trkpt lat="48.07855" lon="-3.6584">
        <ele>157.6</ele>
        <time>2021-08-11T12:29:42Z</time>
      </trkpt>
      <trkpt lat="48.07852" lon="-3.65845">
        <ele>157.6</ele>
        <time>2021-08-11T12:29:43Z</time>
      </trkpt>
      <trkpt lat="48.07848" lon="-3.6585">
        <ele>157.8</ele>
        <time>2021-08-11T12:29:44Z</time>
      </trkpt>
      <trkpt lat="48.07844" lon="-3.65855">
        <ele>157.8</ele>
        <time>2021-08-11T12:29:45Z</time>
      </trkpt>
      <trkpt lat="48.0784" lon="-3.65859">
        <ele>157.8</ele>
        <time>2021-08-11T12:29:46Z</time>
      </trkpt>
      <trkpt lat="48.07837" lon="-3.65864">
        <ele>157.8</ele>
        <time>2021-08-11T12:29:47Z</time>
      </trkpt>
      <trkpt lat="48.07833" lon="-3.65869">
        <ele>157.8</ele>
        <time>2021-08-11T12:29:48Z</time>
      </trkpt>
      <trkpt lat="48.07829" lon="-3.65874">
        <ele>157.8</ele>
        <time>2021-08-11T12:29:49Z</time>
      </trkpt>
      <trkpt lat="48.07825" lon="-3.65879">
        <ele>157.8</ele>
        <time>2021-08-11T12:29:50Z</time>
      </trkpt>
      <trkpt lat="48.07822" lon="-3.65884">
        <ele>158</ele>
        <time>2021-08-11T12:29:51Z</time>
      </trkpt>
      <trkpt lat="48.07818" lon="-3.65888">
        <ele>158.2</ele>
        <time>2021-08-11T12:29:52Z</time>
      </trkpt>
      <trkpt lat="48.07815" lon="-3.65893">
        <ele>158.2</ele>
        <time>2021-08-11T12:29:53Z</time>
      </trkpt>
      <trkpt lat="48.07811" lon="-3.65898">
        <ele>158.4</ele>
        <time>2021-08-11T12:29:54Z</time>
      </trkpt>
      <trkpt lat="48.07808" lon="-3.65903">
        <ele>158.4</ele>
        <time>2021-08-11T12:29:55Z</time>
      </trkpt>
      <trkpt lat="48.07804" lon="-3.65908">
        <ele>158.8</ele>
        <time>2021-08-11T12:29:56Z</time>
      </trkpt>
      <trkpt lat="48.07801" lon="-3.65913">
        <ele>159.2</ele>
        <time>2021-08-11T12:29:57Z</time>
      </trkpt>
      <trkpt lat="48.07798" lon="-3.65917">
        <ele>159.4</ele>
        <time>2021-08-11T12:29:58Z</time>
      </trkpt>
      <trkpt lat="48.07795" lon="-3.65922">
        <ele>159.6</ele>
        <time>2021-08-11T12:29:59Z</time>
      </trkpt>
      <trkpt lat="48.07792" lon="-3.65926">
        <ele>159.8</ele>
        <time>2021-08-11T12:30:00Z</time>
      </trkpt>
      <trkpt lat="48.07789" lon="-3.65931">
        <ele>159.8</ele>
        <time>2021-08-11T12:30:01Z</time>
      </trkpt>
      <trkpt lat="48.07786" lon="-3.65936">
        <ele>159.8</ele>
        <time>2021-08-11T12:30:02Z</time>
      </trkpt>
      <trkpt lat="48.07783" lon="-3.65941">
        <ele>160</ele>
        <time>2021-08-11T12:30:03Z</time>
      </trkpt>
      <trkpt lat="48.0778" lon="-3.65945">
        <ele>160</ele>
        <time>2021-08-11T12:30:04Z</time>
      </trkpt>
      <trkpt lat="48.07777" lon="-3.65949">
        <ele>160.2</ele>
        <time>2021-08-11T12:30:05Z</time>
      </trkpt>
      <trkpt lat="48.07775" lon="-3.65954">
        <ele>160.4</ele>
        <time>2021-08-11T12:30:06Z</time>
      </trkpt>
      <trkpt lat="48.07772" lon="-3.65958">
        <ele>160.6</ele>
        <time>2021-08-11T12:30:07Z</time>
      </trkpt>
      <trkpt lat="48.0777" lon="-3.65963">
        <ele>160.6</ele>
        <time>2021-08-11T12:30:08Z</time>
      </trkpt>
      <trkpt lat="48.07767" lon="-3.65967">
        <ele>160.6</ele>
        <time>2021-08-11T12:30:09Z</time>
      </trkpt>
      <trkpt lat="48.07765" lon="-3.65972">
        <ele>160.8</ele>
        <time>2021-08-11T12:30:10Z</time>
      </trkpt>
      <trkpt lat="48.07763" lon="-3.65977">
        <ele>161</ele>
        <time>2021-08-11T12:30:11Z</time>
      </trkpt>
      <trkpt lat="48.0776" lon="-3.65982">
        <ele>161</ele>
        <time>2021-08-11T12:30:12Z</time>
      </trkpt>
      <trkpt lat="48.07758" lon="-3.65986">
        <ele>161</ele>
        <time>2021-08-11T12:30:13Z</time>
      </trkpt>
      <trkpt lat="48.07756" lon="-3.65991">
        <ele>161.2</ele>
        <time>2021-08-11T12:30:14Z</time>
      </trkpt>
      <trkpt lat="48.07754" lon="-3.65995">
        <ele>161.4</ele>
        <time>2021-08-11T12:30:15Z</time>
      </trkpt>
      <trkpt lat="48.07752" lon="-3.65999">
        <ele>161.6</ele>
        <time>2021-08-11T12:30:16Z</time>
      </trkpt>
      <trkpt lat="48.0775" lon="-3.66004">
        <ele>161.6</ele>
        <time>2021-08-11T12:30:17Z</time>
      </trkpt>
      <trkpt lat="48.07748" lon="-3.66009">
        <ele>161.8</ele>
        <time>2021-08-11T12:30:18Z</time>
      </trkpt>
      <trkpt lat="48.07746" lon="-3.66013">
        <ele>161.8</ele>
        <time>2021-08-11T12:30:19Z</time>
      </trkpt>
      <trkpt lat="48.07744" lon="-3.66017">
        <ele>161.8</ele>
        <time>2021-08-11T12:30:20Z</time>
      </trkpt>
      <trkpt lat="48.07742" lon="-3.66022">
        <ele>162</ele>
        <time>2021-08-11T12:30:21Z</time>
      </trkpt>
      <trkpt lat="48.0774" lon="-3.66026">
        <ele>162</ele>
        <time>2021-08-11T12:30:22Z</time>
      </trkpt>
      <trkpt lat="48.07738" lon="-3.6603">
        <ele>162</ele>
        <time>2021-08-11T12:30:23Z</time>
      </trkpt>
      <trkpt lat="48.07736" lon="-3.66035">
        <ele>162</ele>
        <time>2021-08-11T12:30:24Z</time>
      </trkpt>
      <trkpt lat="48.07734" lon="-3.6604">
        <ele>162.2</ele>
        <time>2021-08-11T12:30:25Z</time>
      </trkpt>
      <trkpt lat="48.07732" lon="-3.66045">
        <ele>162.2</ele>
        <time>2021-08-11T12:30:26Z</time>
      </trkpt>
      <trkpt lat="48.07731" lon="-3.6605">
        <ele>162.2</ele>
        <time>2021-08-11T12:30:27Z</time>
      </trkpt>
      <trkpt lat="48.07728" lon="-3.66054">
        <ele>162.2</ele>
        <time>2021-08-11T12:30:28Z</time>
      </trkpt>
      <trkpt lat="48.07726" lon="-3.66059">
        <ele>162.2</ele>
        <time>2021-08-11T12:30:29Z</time>
      </trkpt>
      <trkpt lat="48.07724" lon="-3.66064">
        <ele>162.2</ele>
        <time>2021-08-11T12:30:30Z</time>
      </trkpt>
      <trkpt lat="48.07722" lon="-3.66069">
        <ele>162.4</ele>
        <time>2021-08-11T12:30:31Z</time>
      </trkpt>
      <trkpt lat="48.0772" lon="-3.66075">
        <ele>162.6</ele>
        <time>2021-08-11T12:30:32Z</time>
      </trkpt>
      <trkpt lat="48.07718" lon="-3.6608">
        <ele>162.8</ele>
        <time>2021-08-11T12:30:33Z</time>
      </trkpt>
      <trkpt lat="48.07715" lon="-3.66086">
        <ele>163</ele>
        <time>2021-08-11T12:30:34Z</time>
      </trkpt>
      <trkpt lat="48.07713" lon="-3.66091">
        <ele>163</ele>
        <time>2021-08-11T12:30:35Z</time>
      </trkpt>
      <trkpt lat="48.07711" lon="-3.66096">
        <ele>163.2</ele>
        <time>2021-08-11T12:30:36Z</time>
      </trkpt>
      <trkpt lat="48.07709" lon="-3.66102">
        <ele>163.2</ele>
        <time>2021-08-11T12:30:37Z</time>
      </trkpt>
      <trkpt lat="48.07707" lon="-3.66107">
        <ele>163.2</ele>
        <time>2021-08-11T12:30:38Z</time>
      </trkpt>
      <trkpt lat="48.07705" lon="-3.66112">
        <ele>163.4</ele>
        <time>2021-08-11T12:30:39Z</time>
      </trkpt>
      <trkpt lat="48.07703" lon="-3.66117">
        <ele>163.6</ele>
        <time>2021-08-11T12:30:40Z</time>
      </trkpt>
      <trkpt lat="48.077" lon="-3.66122">
        <ele>163.6</ele>
        <time>2021-08-11T12:30:41Z</time>
      </trkpt>
      <trkpt lat="48.07698" lon="-3.66128">
        <ele>163.8</ele>
        <time>2021-08-11T12:30:42Z</time>
      </trkpt>
      <trkpt lat="48.07695" lon="-3.66135">
        <ele>163.8</ele>
        <time>2021-08-11T12:30:43Z</time>
      </trkpt>
      <trkpt lat="48.07693" lon="-3.66141">
        <ele>163.8</ele>
        <time>2021-08-11T12:30:44Z</time>
      </trkpt>
      <trkpt lat="48.07691" lon="-3.66147">
        <ele>163.8</ele>
        <time>2021-08-11T12:30:45Z</time>
      </trkpt>
      <trkpt lat="48.07688" lon="-3.66153">
        <ele>163.8</ele>
        <time>2021-08-11T12:30:46Z</time>
      </trkpt>
      <trkpt lat="48.07684" lon="-3.66159">
        <ele>164</ele>
        <time>2021-08-11T12:30:47Z</time>
      </trkpt>
      <trkpt lat="48.07681" lon="-3.66165">
        <ele>164.2</ele>
        <time>2021-08-11T12:30:48Z</time>
      </trkpt>
      <trkpt lat="48.07678" lon="-3.66171">
        <ele>164.4</ele>
        <time>2021-08-11T12:30:49Z</time>
      </trkpt>
      <trkpt lat="48.07675" lon="-3.66177">
        <ele>164.6</ele>
        <time>2021-08-11T12:30:50Z</time>
      </trkpt>
      <trkpt lat="48.07671" lon="-3.66182">
        <ele>165</ele>
        <time>2021-08-11T12:30:51Z</time>
      </trkpt>
      <trkpt lat="48.07668" lon="-3.66187">
        <ele>165.4</ele>
        <time>2021-08-11T12:30:52Z</time>
      </trkpt>
      <trkpt lat="48.07665" lon="-3.66193">
        <ele>165.4</ele>
        <time>2021-08-11T12:30:53Z</time>
      </trkpt>
      <trkpt lat="48.07661" lon="-3.66198">
        <ele>165.4</ele>
        <time>2021-08-11T12:30:54Z</time>
      </trkpt>
      <trkpt lat="48.07657" lon="-3.66203">
        <ele>165.6</ele>
        <time>2021-08-11T12:30:55Z</time>
      </trkpt>
      <trkpt lat="48.07654" lon="-3.66207">
        <ele>165.6</ele>
        <time>2021-08-11T12:30:56Z</time>
      </trkpt>
      <trkpt lat="48.0765" lon="-3.66212">
        <ele>165.6</ele>
        <time>2021-08-11T12:30:57Z</time>
      </trkpt>
      <trkpt lat="48.07646" lon="-3.66216">
        <ele>165.6</ele>
        <time>2021-08-11T12:30:58Z</time>
      </trkpt>
      <trkpt lat="48.07643" lon="-3.6622">
        <ele>165.6</ele>
        <time>2021-08-11T12:30:59Z</time>
      </trkpt>
      <trkpt lat="48.07639" lon="-3.66223">
        <ele>165.6</ele>
        <time>2021-08-11T12:31:00Z</time>
      </trkpt>
      <trkpt lat="48.07635" lon="-3.66227">
        <ele>165.6</ele>
        <time>2021-08-11T12:31:01Z</time>
      </trkpt>
      <trkpt lat="48.07631" lon="-3.66231">
        <ele>165.8</ele>
        <time>2021-08-11T12:31:02Z</time>
      </trkpt>
      <trkpt lat="48.07627" lon="-3.66235">
        <ele>166</ele>
        <time>2021-08-11T12:31:03Z</time>
      </trkpt>
      <trkpt lat="48.07624" lon="-3.66238">
        <ele>166</ele>
        <time>2021-08-11T12:31:04Z</time>
      </trkpt>
      <trkpt lat="48.0762" lon="-3.66242">
        <ele>166.2</ele>
        <time>2021-08-11T12:31:05Z</time>
      </trkpt>
      <trkpt lat="48.07617" lon="-3.66245">
        <ele>166.2</ele>
        <time>2021-08-11T12:31:06Z</time>
      </trkpt>
      <trkpt lat="48.07613" lon="-3.66248">
        <ele>166.2</ele>
        <time>2021-08-11T12:31:07Z</time>
      </trkpt>
      <trkpt lat="48.0761" lon="-3.6625">
        <ele>166.4</ele>
        <time>2021-08-11T12:31:08Z</time>
      </trkpt>
      <trkpt lat="48.07607" lon="-3.66252">
        <ele>166.4</ele>
        <time>2021-08-11T12:31:09Z</time>
      </trkpt>
      <trkpt lat="48.07605" lon="-3.66254">
        <ele>166.6</ele>
        <time>2021-08-11T12:31:10Z</time>
      </trkpt>
      <trkpt lat="48.07602" lon="-3.66257">
        <ele>166.4</ele>
        <time>2021-08-11T12:31:11Z</time>
      </trkpt>
      <trkpt lat="48.076" lon="-3.66259">
        <ele>166.8</ele>
        <time>2021-08-11T12:31:12Z</time>
      </trkpt>
      <trkpt lat="48.07597" lon="-3.66262">
        <ele>167</ele>
        <time>2021-08-11T12:31:13Z</time>
      </trkpt>
      <trkpt lat="48.07593" lon="-3.66265">
        <ele>167.2</ele>
        <time>2021-08-11T12:31:14Z</time>
      </trkpt>
      <trkpt lat="48.0759" lon="-3.66268">
        <ele>167.4</ele>
        <time>2021-08-11T12:31:15Z</time>
      </trkpt>
      <trkpt lat="48.07587" lon="-3.6627">
        <ele>167.4</ele>
        <time>2021-08-11T12:31:16Z</time>
      </trkpt>
      <trkpt lat="48.07583" lon="-3.66273">
        <ele>167.8</ele>
        <time>2021-08-11T12:31:17Z</time>
      </trkpt>
      <trkpt lat="48.0758" lon="-3.66276">
        <ele>167.6</ele>
        <time>2021-08-11T12:31:18Z</time>
      </trkpt>
      <trkpt lat="48.07577" lon="-3.66278">
        <ele>167.8</ele>
        <time>2021-08-11T12:31:19Z</time>
      </trkpt>
      <trkpt lat="48.07574" lon="-3.66281">
        <ele>167.8</ele>
        <time>2021-08-11T12:31:20Z</time>
      </trkpt>
      <trkpt lat="48.07571" lon="-3.66283">
        <ele>168</ele>
        <time>2021-08-11T12:31:21Z</time>
      </trkpt>
      <trkpt lat="48.07567" lon="-3.66286">
        <ele>168.2</ele>
        <time>2021-08-11T12:31:22Z</time>
      </trkpt>
      <trkpt lat="48.07564" lon="-3.66289">
        <ele>168.2</ele>
        <time>2021-08-11T12:31:23Z</time>
      </trkpt>
      <trkpt lat="48.07561" lon="-3.66291">
        <ele>168.2</ele>
        <time>2021-08-11T12:31:24Z</time>
      </trkpt>
      <trkpt lat="48.07558" lon="-3.66293">
        <ele>168.4</ele>
        <time>2021-08-11T12:31:25Z</time>
      </trkpt>
      <trkpt lat="48.07554" lon="-3.66296">
        <ele>168.4</ele>
        <time>2021-08-11T12:31:26Z</time>
      </trkpt>
      <trkpt lat="48.07551" lon="-3.66299">
        <ele>168.4</ele>
        <time>2021-08-11T12:31:27Z</time>
      </trkpt>
      <trkpt lat="48.07547" lon="-3.66302">
        <ele>168.4</ele>
        <time>2021-08-11T12:31:28Z</time>
      </trkpt>
      <trkpt lat="48.07543" lon="-3.66305">
        <ele>168.4</ele>
        <time>2021-08-11T12:31:29Z</time>
      </trkpt>
      <trkpt lat="48.07539" lon="-3.66307">
        <ele>168.4</ele>
        <time>2021-08-11T12:31:30Z</time>
      </trkpt>
      <trkpt lat="48.07535" lon="-3.6631">
        <ele>168.4</ele>
        <time>2021-08-11T12:31:31Z</time>
      </trkpt>
      <trkpt lat="48.07531" lon="-3.66312">
        <ele>168.4</ele>
        <time>2021-08-11T12:31:32Z</time>
      </trkpt>
      <trkpt lat="48.07528" lon="-3.66314">
        <ele>168.6</ele>
        <time>2021-08-11T12:31:33Z</time>
      </trkpt>
      <trkpt lat="48.07525" lon="-3.66316">
        <ele>168.4</ele>
        <time>2021-08-11T12:31:34Z</time>
      </trkpt>
      <trkpt lat="48.07522" lon="-3.66317">
        <ele>168.6</ele>
        <time>2021-08-11T12:31:35Z</time>
      </trkpt>
      <trkpt lat="48.07519" lon="-3.66318">
        <ele>168.6</ele>
        <time>2021-08-11T12:31:36Z</time>
      </trkpt>
      <trkpt lat="48.07515" lon="-3.66319">
        <ele>168.6</ele>
        <time>2021-08-11T12:31:37Z</time>
      </trkpt>
      <trkpt lat="48.07511" lon="-3.6632">
        <ele>168.6</ele>
        <time>2021-08-11T12:31:38Z</time>
      </trkpt>
      <trkpt lat="48.07508" lon="-3.66321">
        <ele>168.8</ele>
        <time>2021-08-11T12:31:39Z</time>
      </trkpt>
      <trkpt lat="48.07504" lon="-3.66322">
        <ele>169</ele>
        <time>2021-08-11T12:31:40Z</time>
      </trkpt>
      <trkpt lat="48.07501" lon="-3.66323">
        <ele>169</ele>
        <time>2021-08-11T12:31:41Z</time>
      </trkpt>
      <trkpt lat="48.07496" lon="-3.66325">
        <ele>169.2</ele>
        <time>2021-08-11T12:31:42Z</time>
      </trkpt>
      <trkpt lat="48.07493" lon="-3.66326">
        <ele>169.2</ele>
        <time>2021-08-11T12:31:43Z</time>
      </trkpt>
      <trkpt lat="48.0749" lon="-3.66327">
        <ele>169.4</ele>
        <time>2021-08-11T12:31:44Z</time>
      </trkpt>
      <trkpt lat="48.07488" lon="-3.66327">
        <ele>169.6</ele>
        <time>2021-08-11T12:31:45Z</time>
      </trkpt>
      <trkpt lat="48.07483" lon="-3.6633">
        <ele>169.8</ele>
        <time>2021-08-11T12:31:46Z</time>
      </trkpt>
      <trkpt lat="48.07478" lon="-3.66333">
        <ele>170</ele>
        <time>2021-08-11T12:31:47Z</time>
      </trkpt>
      <trkpt lat="48.07474" lon="-3.66335">
        <ele>170</ele>
        <time>2021-08-11T12:31:48Z</time>
      </trkpt>
      <trkpt lat="48.07469" lon="-3.66336">
        <ele>170</ele>
        <time>2021-08-11T12:31:49Z</time>
      </trkpt>
      <trkpt lat="48.07466" lon="-3.66335">
        <ele>170.2</ele>
        <time>2021-08-11T12:31:50Z</time>
      </trkpt>
      <trkpt lat="48.07462" lon="-3.66334">
        <ele>170.2</ele>
        <time>2021-08-11T12:31:51Z</time>
      </trkpt>
      <trkpt lat="48.07459" lon="-3.66334">
        <ele>170.2</ele>
        <time>2021-08-11T12:31:52Z</time>
      </trkpt>
      <trkpt lat="48.07456" lon="-3.66334">
        <ele>170.2</ele>
        <time>2021-08-11T12:31:53Z</time>
      </trkpt>
      <trkpt lat="48.07454" lon="-3.66334">
        <ele>170.2</ele>
        <time>2021-08-11T12:31:54Z</time>
      </trkpt>
      <trkpt lat="48.0745" lon="-3.66333">
        <ele>170.4</ele>
        <time>2021-08-11T12:31:55Z</time>
      </trkpt>
      <trkpt lat="48.07447" lon="-3.66332">
        <ele>170.4</ele>
        <time>2021-08-11T12:31:56Z</time>
      </trkpt>
      <trkpt lat="48.07443" lon="-3.66331">
        <ele>170.4</ele>
        <time>2021-08-11T12:31:57Z</time>
      </trkpt>
      <trkpt lat="48.0744" lon="-3.6633">
        <ele>170.6</ele>
        <time>2021-08-11T12:31:58Z</time>
      </trkpt>
      <trkpt lat="48.07437" lon="-3.66328">
        <ele>170.6</ele>
        <time>2021-08-11T12:31:59Z</time>
      </trkpt>
      <trkpt lat="48.07432" lon="-3.66328">
        <ele>170.8</ele>
        <time>2021-08-11T12:32:00Z</time>
      </trkpt>
      <trkpt lat="48.07429" lon="-3.66327">
        <ele>170.8</ele>
        <time>2021-08-11T12:32:01Z</time>
      </trkpt>
      <trkpt lat="48.07425" lon="-3.66325">
        <ele>171</ele>
        <time>2021-08-11T12:32:02Z</time>
      </trkpt>
      <trkpt lat="48.07423" lon="-3.66324">
        <ele>171.2</ele>
        <time>2021-08-11T12:32:03Z</time>
      </trkpt>
      <trkpt lat="48.0742" lon="-3.66324">
        <ele>171.2</ele>
        <time>2021-08-11T12:32:04Z</time>
      </trkpt>
      <trkpt lat="48.07417" lon="-3.66324">
        <ele>171.4</ele>
        <time>2021-08-11T12:32:05Z</time>
      </trkpt>
      <trkpt lat="48.07415" lon="-3.66323">
        <ele>171.6</ele>
        <time>2021-08-11T12:32:06Z</time>
      </trkpt>
      <trkpt lat="48.07412" lon="-3.66322">
        <ele>171.6</ele>
        <time>2021-08-11T12:32:07Z</time>
      </trkpt>
      <trkpt lat="48.07409" lon="-3.66319">
        <ele>171.8</ele>
        <time>2021-08-11T12:32:08Z</time>
      </trkpt>
      <trkpt lat="48.07405" lon="-3.66317">
        <ele>171.8</ele>
        <time>2021-08-11T12:32:09Z</time>
      </trkpt>
      <trkpt lat="48.07402" lon="-3.66315">
        <ele>171.8</ele>
        <time>2021-08-11T12:32:10Z</time>
      </trkpt>
      <trkpt lat="48.07398" lon="-3.66313">
        <ele>171.8</ele>
        <time>2021-08-11T12:32:11Z</time>
      </trkpt>
      <trkpt lat="48.07396" lon="-3.66312">
        <ele>172</ele>
        <time>2021-08-11T12:32:12Z</time>
      </trkpt>
      <trkpt lat="48.07391" lon="-3.6631">
        <ele>172</ele>
        <time>2021-08-11T12:32:13Z</time>
      </trkpt>
      <trkpt lat="48.07387" lon="-3.66308">
        <ele>172</ele>
        <time>2021-08-11T12:32:14Z</time>
      </trkpt>
      <trkpt lat="48.07384" lon="-3.66307">
        <ele>172.2</ele>
        <time>2021-08-11T12:32:15Z</time>
      </trkpt>
      <trkpt lat="48.07379" lon="-3.66305">
        <ele>172.2</ele>
        <time>2021-08-11T12:32:16Z</time>
      </trkpt>
      <trkpt lat="48.07376" lon="-3.66304">
        <ele>172.4</ele>
        <time>2021-08-11T12:32:17Z</time>
      </trkpt>
      <trkpt lat="48.07374" lon="-3.66303">
        <ele>172.4</ele>
        <time>2021-08-11T12:32:18Z</time>
      </trkpt>
      <trkpt lat="48.07371" lon="-3.66301">
        <ele>172.8</ele>
        <time>2021-08-11T12:32:19Z</time>
      </trkpt>
      <trkpt lat="48.07368" lon="-3.663">
        <ele>173.2</ele>
        <time>2021-08-11T12:32:20Z</time>
      </trkpt>
      <trkpt lat="48.07364" lon="-3.66298">
        <ele>173.4</ele>
        <time>2021-08-11T12:32:21Z</time>
      </trkpt>
      <trkpt lat="48.0736" lon="-3.66295">
        <ele>173.6</ele>
        <time>2021-08-11T12:32:22Z</time>
      </trkpt>
      <trkpt lat="48.07356" lon="-3.66293">
        <ele>173.6</ele>
        <time>2021-08-11T12:32:23Z</time>
      </trkpt>
      <trkpt lat="48.0735" lon="-3.6629">
        <ele>173.6</ele>
        <time>2021-08-11T12:32:24Z</time>
      </trkpt>
      <trkpt lat="48.07347" lon="-3.66288">
        <ele>173.8</ele>
        <time>2021-08-11T12:32:25Z</time>
      </trkpt>
      <trkpt lat="48.07343" lon="-3.66286">
        <ele>173.8</ele>
        <time>2021-08-11T12:32:26Z</time>
      </trkpt>
      <trkpt lat="48.07339" lon="-3.66284">
        <ele>173.8</ele>
        <time>2021-08-11T12:32:27Z</time>
      </trkpt>
      <trkpt lat="48.07334" lon="-3.66283">
        <ele>174</ele>
        <time>2021-08-11T12:32:28Z</time>
      </trkpt>
      <trkpt lat="48.0733" lon="-3.66282">
        <ele>174</ele>
        <time>2021-08-11T12:32:29Z</time>
      </trkpt>
      <trkpt lat="48.07326" lon="-3.66279">
        <ele>174.2</ele>
        <time>2021-08-11T12:32:30Z</time>
      </trkpt>
      <trkpt lat="48.07321" lon="-3.66276">
        <ele>174.2</ele>
        <time>2021-08-11T12:32:31Z</time>
      </trkpt>
      <trkpt lat="48.07318" lon="-3.66273">
        <ele>174.4</ele>
        <time>2021-08-11T12:32:32Z</time>
      </trkpt>
      <trkpt lat="48.07314" lon="-3.66271">
        <ele>174.4</ele>
        <time>2021-08-11T12:32:33Z</time>
      </trkpt>
      <trkpt lat="48.07309" lon="-3.66269">
        <ele>174.4</ele>
        <time>2021-08-11T12:32:34Z</time>
      </trkpt>
      <trkpt lat="48.07305" lon="-3.66266">
        <ele>174.6</ele>
        <time>2021-08-11T12:32:35Z</time>
      </trkpt>
      <trkpt lat="48.07301" lon="-3.66263">
        <ele>174.8</ele>
        <time>2021-08-11T12:32:36Z</time>
      </trkpt>
      <trkpt lat="48.07296" lon="-3.6626">
        <ele>174.8</ele>
        <time>2021-08-11T12:32:37Z</time>
      </trkpt>
      <trkpt lat="48.07292" lon="-3.66258">
        <ele>174.8</ele>
        <time>2021-08-11T12:32:38Z</time>
      </trkpt>
      <trkpt lat="48.07288" lon="-3.66256">
        <ele>175</ele>
        <time>2021-08-11T12:32:39Z</time>
      </trkpt>
      <trkpt lat="48.07285" lon="-3.66253">
        <ele>175.4</ele>
        <time>2021-08-11T12:32:40Z</time>
      </trkpt>
      <trkpt lat="48.07282" lon="-3.66251">
        <ele>175.4</ele>
        <time>2021-08-11T12:32:41Z</time>
      </trkpt>
      <trkpt lat="48.07279" lon="-3.66248">
        <ele>175.6</ele>
        <time>2021-08-11T12:32:42Z</time>
      </trkpt>
      <trkpt lat="48.07275" lon="-3.66243">
        <ele>175.6</ele>
        <time>2021-08-11T12:32:43Z</time>
      </trkpt>
      <trkpt lat="48.07272" lon="-3.6624">
        <ele>175.6</ele>
        <time>2021-08-11T12:32:44Z</time>
      </trkpt>
      <trkpt lat="48.07269" lon="-3.66238">
        <ele>175.8</ele>
        <time>2021-08-11T12:32:45Z</time>
      </trkpt>
      <trkpt lat="48.07266" lon="-3.66237">
        <ele>175.8</ele>
        <time>2021-08-11T12:32:46Z</time>
      </trkpt>
      <trkpt lat="48.07265" lon="-3.66235">
        <ele>175.8</ele>
        <time>2021-08-11T12:32:47Z</time>
      </trkpt>
      <trkpt lat="48.07264" lon="-3.66232">
        <ele>175.8</ele>
        <time>2021-08-11T12:32:48Z</time>
      </trkpt>
      <trkpt lat="48.07265" lon="-3.66232">
        <ele>175.8</ele>
        <time>2021-08-11T12:32:49Z</time>
      </trkpt>
      <trkpt lat="48.07264" lon="-3.66229">
        <ele>175.8</ele>
        <time>2021-08-11T12:32:50Z</time>
      </trkpt>
      <trkpt lat="48.07262" lon="-3.66226">
        <ele>175.8</ele>
        <time>2021-08-11T12:32:51Z</time>
      </trkpt>
      <trkpt lat="48.07262" lon="-3.66223">
        <ele>175.8</ele>
        <time>2021-08-11T12:32:52Z</time>
      </trkpt>
      <trkpt lat="48.07258" lon="-3.66222">
        <ele>176</ele>
        <time>2021-08-11T12:32:53Z</time>
      </trkpt>
      <trkpt lat="48.07258" lon="-3.66218">
        <ele>176</ele>
        <time>2021-08-11T12:32:54Z</time>
      </trkpt>
      <trkpt lat="48.07249" lon="-3.66213">
        <ele>176</ele>
        <time>2021-08-11T12:32:55Z</time>
      </trkpt>
      <trkpt lat="48.07242" lon="-3.66207">
        <ele>176</ele>
        <time>2021-08-11T12:32:56Z</time>
      </trkpt>
      <trkpt lat="48.07229" lon="-3.66195">
        <ele>176</ele>
        <time>2021-08-11T12:32:57Z</time>
      </trkpt>
      <trkpt lat="48.07226" lon="-3.6619">
        <ele>176.2</ele>
        <time>2021-08-11T12:32:58Z</time>
      </trkpt>
      <trkpt lat="48.07224" lon="-3.66186">
        <ele>176.2</ele>
        <time>2021-08-11T12:32:59Z</time>
      </trkpt>
      <trkpt lat="48.07222" lon="-3.66182">
        <ele>176.2</ele>
        <time>2021-08-11T12:33:00Z</time>
      </trkpt>
      <trkpt lat="48.0722" lon="-3.66178">
        <ele>176.4</ele>
        <time>2021-08-11T12:33:01Z</time>
      </trkpt>
      <trkpt lat="48.07218" lon="-3.66173">
        <ele>176.6</ele>
        <time>2021-08-11T12:33:02Z</time>
      </trkpt>
      <trkpt lat="48.07216" lon="-3.66169">
        <ele>176.8</ele>
        <time>2021-08-11T12:33:03Z</time>
      </trkpt>
      <trkpt lat="48.07213" lon="-3.66164">
        <ele>177</ele>
        <time>2021-08-11T12:33:04Z</time>
      </trkpt>
      <trkpt lat="48.07204" lon="-3.66153">
        <ele>177</ele>
        <time>2021-08-11T12:33:05Z</time>
      </trkpt>
      <trkpt lat="48.072" lon="-3.6615">
        <ele>177.2</ele>
        <time>2021-08-11T12:33:06Z</time>
      </trkpt>
      <trkpt lat="48.07198" lon="-3.66146">
        <ele>177.2</ele>
        <time>2021-08-11T12:33:07Z</time>
      </trkpt>
      <trkpt lat="48.07196" lon="-3.66143">
        <ele>177.2</ele>
        <time>2021-08-11T12:33:08Z</time>
      </trkpt>
      <trkpt lat="48.07195" lon="-3.66139">
        <ele>177.2</ele>
        <time>2021-08-11T12:33:09Z</time>
      </trkpt>
      <trkpt lat="48.07193" lon="-3.66135">
        <ele>177.4</ele>
        <time>2021-08-11T12:33:10Z</time>
      </trkpt>
      <trkpt lat="48.07192" lon="-3.66131">
        <ele>177.4</ele>
        <time>2021-08-11T12:33:11Z</time>
      </trkpt>
      <trkpt lat="48.0719" lon="-3.66127">
        <ele>177.4</ele>
        <time>2021-08-11T12:33:12Z</time>
      </trkpt>
      <trkpt lat="48.07187" lon="-3.66121">
        <ele>177.4</ele>
        <time>2021-08-11T12:33:13Z</time>
      </trkpt>
      <trkpt lat="48.07185" lon="-3.66118">
        <ele>177.4</ele>
        <time>2021-08-11T12:33:14Z</time>
      </trkpt>
      <trkpt lat="48.07184" lon="-3.66115">
        <ele>177.6</ele>
        <time>2021-08-11T12:33:15Z</time>
      </trkpt>
      <trkpt lat="48.07181" lon="-3.6611">
        <ele>177.8</ele>
        <time>2021-08-11T12:33:16Z</time>
      </trkpt>
      <trkpt lat="48.07179" lon="-3.66105">
        <ele>177.8</ele>
        <time>2021-08-11T12:33:17Z</time>
      </trkpt>
      <trkpt lat="48.07178" lon="-3.661">
        <ele>177.8</ele>
        <time>2021-08-11T12:33:18Z</time>
      </trkpt>
      <trkpt lat="48.07175" lon="-3.66095">
        <ele>178</ele>
        <time>2021-08-11T12:33:19Z</time>
      </trkpt>
      <trkpt lat="48.07173" lon="-3.6609">
        <ele>178</ele>
        <time>2021-08-11T12:33:20Z</time>
      </trkpt>
      <trkpt lat="48.0717" lon="-3.66084">
        <ele>178</ele>
        <time>2021-08-11T12:33:21Z</time>
      </trkpt>
      <trkpt lat="48.07168" lon="-3.66078">
        <ele>178</ele>
        <time>2021-08-11T12:33:22Z</time>
      </trkpt>
      <trkpt lat="48.07165" lon="-3.66074">
        <ele>178.2</ele>
        <time>2021-08-11T12:33:23Z</time>
      </trkpt>
      <trkpt lat="48.07163" lon="-3.6607">
        <ele>178.2</ele>
        <time>2021-08-11T12:33:24Z</time>
      </trkpt>
      <trkpt lat="48.0716" lon="-3.66065">
        <ele>178.4</ele>
        <time>2021-08-11T12:33:25Z</time>
      </trkpt>
      <trkpt lat="48.07158" lon="-3.6606">
        <ele>178.4</ele>
        <time>2021-08-11T12:33:26Z</time>
      </trkpt>
      <trkpt lat="48.07154" lon="-3.66054">
        <ele>178.4</ele>
        <time>2021-08-11T12:33:27Z</time>
      </trkpt>
      <trkpt lat="48.07152" lon="-3.66049">
        <ele>178.6</ele>
        <time>2021-08-11T12:33:28Z</time>
      </trkpt>
      <trkpt lat="48.0715" lon="-3.66046">
        <ele>178.8</ele>
        <time>2021-08-11T12:33:29Z</time>
      </trkpt>
      <trkpt lat="48.07149" lon="-3.66044">
        <ele>179</ele>
        <time>2021-08-11T12:33:30Z</time>
      </trkpt>
      <trkpt lat="48.07147" lon="-3.66042">
        <ele>179</ele>
        <time>2021-08-11T12:33:31Z</time>
      </trkpt>
      <trkpt lat="48.07144" lon="-3.66038">
        <ele>179.2</ele>
        <time>2021-08-11T12:33:32Z</time>
      </trkpt>
      <trkpt lat="48.07142" lon="-3.66034">
        <ele>179.4</ele>
        <time>2021-08-11T12:33:33Z</time>
      </trkpt>
      <trkpt lat="48.0714" lon="-3.66031">
        <ele>179.4</ele>
        <time>2021-08-11T12:33:34Z</time>
      </trkpt>
      <trkpt lat="48.07138" lon="-3.66028">
        <ele>179.6</ele>
        <time>2021-08-11T12:33:35Z</time>
      </trkpt>
      <trkpt lat="48.07137" lon="-3.66024">
        <ele>179.6</ele>
        <time>2021-08-11T12:33:36Z</time>
      </trkpt>
      <trkpt lat="48.07134" lon="-3.6602">
        <ele>179.8</ele>
        <time>2021-08-11T12:33:37Z</time>
      </trkpt>
      <trkpt lat="48.07133" lon="-3.66017">
        <ele>180</ele>
        <time>2021-08-11T12:33:38Z</time>
      </trkpt>
      <trkpt lat="48.07127" lon="-3.66015">
        <ele>180</ele>
        <time>2021-08-11T12:33:39Z</time>
      </trkpt>
      <trkpt lat="48.07124" lon="-3.66012">
        <ele>180.2</ele>
        <time>2021-08-11T12:33:40Z</time>
      </trkpt>
      <trkpt lat="48.07111" lon="-3.66003">
        <ele>180.4</ele>
        <time>2021-08-11T12:33:41Z</time>
      </trkpt>
      <trkpt lat="48.07105" lon="-3.66">
        <ele>180.4</ele>
        <time>2021-08-11T12:33:42Z</time>
      </trkpt>
      <trkpt lat="48.07101" lon="-3.65997">
        <ele>180.6</ele>
        <time>2021-08-11T12:33:43Z</time>
      </trkpt>
      <trkpt lat="48.07097" lon="-3.65995">
        <ele>180.8</ele>
        <time>2021-08-11T12:33:44Z</time>
      </trkpt>
      <trkpt lat="48.07093" lon="-3.65991">
        <ele>180.8</ele>
        <time>2021-08-11T12:33:45Z</time>
      </trkpt>
      <trkpt lat="48.07088" lon="-3.65987">
        <ele>181</ele>
        <time>2021-08-11T12:33:46Z</time>
      </trkpt>
      <trkpt lat="48.07083" lon="-3.65983">
        <ele>181</ele>
        <time>2021-08-11T12:33:47Z</time>
      </trkpt>
      <trkpt lat="48.07078" lon="-3.6598">
        <ele>181.2</ele>
        <time>2021-08-11T12:33:48Z</time>
      </trkpt>
      <trkpt lat="48.07073" lon="-3.65976">
        <ele>181.2</ele>
        <time>2021-08-11T12:33:49Z</time>
      </trkpt>
      <trkpt lat="48.07066" lon="-3.65973">
        <ele>181.2</ele>
        <time>2021-08-11T12:33:50Z</time>
      </trkpt>
      <trkpt lat="48.07059" lon="-3.65967">
        <ele>181.2</ele>
        <time>2021-08-11T12:33:51Z</time>
      </trkpt>
      <trkpt lat="48.07053" lon="-3.65964">
        <ele>181.4</ele>
        <time>2021-08-11T12:33:52Z</time>
      </trkpt>
      <trkpt lat="48.07048" lon="-3.6596">
        <ele>181.4</ele>
        <time>2021-08-11T12:33:53Z</time>
      </trkpt>
      <trkpt lat="48.07043" lon="-3.65957">
        <ele>181.6</ele>
        <time>2021-08-11T12:33:54Z</time>
      </trkpt>
      <trkpt lat="48.07037" lon="-3.65953">
        <ele>181.6</ele>
        <time>2021-08-11T12:33:55Z</time>
      </trkpt>
      <trkpt lat="48.07031" lon="-3.65948">
        <ele>181.6</ele>
        <time>2021-08-11T12:33:56Z</time>
      </trkpt>
      <trkpt lat="48.07026" lon="-3.65945">
        <ele>181.6</ele>
        <time>2021-08-11T12:33:57Z</time>
      </trkpt>
      <trkpt lat="48.07021" lon="-3.65944">
        <ele>181.6</ele>
        <time>2021-08-11T12:33:58Z</time>
      </trkpt>
      <trkpt lat="48.07017" lon="-3.65943">
        <ele>181.6</ele>
        <time>2021-08-11T12:33:59Z</time>
      </trkpt>
      <trkpt lat="48.07009" lon="-3.65939">
        <ele>181.6</ele>
        <time>2021-08-11T12:34:00Z</time>
      </trkpt>
      <trkpt lat="48.07002" lon="-3.65936">
        <ele>181.6</ele>
        <time>2021-08-11T12:34:01Z</time>
      </trkpt>
      <trkpt lat="48.06996" lon="-3.65933">
        <ele>181.8</ele>
        <time>2021-08-11T12:34:02Z</time>
      </trkpt>
      <trkpt lat="48.0699" lon="-3.6593">
        <ele>181.8</ele>
        <time>2021-08-11T12:34:03Z</time>
      </trkpt>
      <trkpt lat="48.06984" lon="-3.65928">
        <ele>181.8</ele>
        <time>2021-08-11T12:34:04Z</time>
      </trkpt>
      <trkpt lat="48.06978" lon="-3.65926">
        <ele>181.8</ele>
        <time>2021-08-11T12:34:05Z</time>
      </trkpt>
      <trkpt lat="48.0697" lon="-3.65925">
        <ele>181.8</ele>
        <time>2021-08-11T12:34:06Z</time>
      </trkpt>
      <trkpt lat="48.06965" lon="-3.65925">
        <ele>181.6</ele>
        <time>2021-08-11T12:34:07Z</time>
      </trkpt>
      <trkpt lat="48.0696" lon="-3.65925">
        <ele>181.6</ele>
        <time>2021-08-11T12:34:08Z</time>
      </trkpt>
      <trkpt lat="48.06953" lon="-3.65924">
        <ele>181.6</ele>
        <time>2021-08-11T12:34:09Z</time>
      </trkpt>
      <trkpt lat="48.06946" lon="-3.65924">
        <ele>181.6</ele>
        <time>2021-08-11T12:34:10Z</time>
      </trkpt>
      <trkpt lat="48.0694" lon="-3.65924">
        <ele>181.6</ele>
        <time>2021-08-11T12:34:11Z</time>
      </trkpt>
      <trkpt lat="48.06934" lon="-3.65925">
        <ele>181.6</ele>
        <time>2021-08-11T12:34:12Z</time>
      </trkpt>
      <trkpt lat="48.06928" lon="-3.65926">
        <ele>181.6</ele>
        <time>2021-08-11T12:34:13Z</time>
      </trkpt>
      <trkpt lat="48.06922" lon="-3.65927">
        <ele>181.2</ele>
        <time>2021-08-11T12:34:14Z</time>
      </trkpt>
      <trkpt lat="48.06916" lon="-3.65928">
        <ele>181.2</ele>
        <time>2021-08-11T12:34:15Z</time>
      </trkpt>
      <trkpt lat="48.06909" lon="-3.65929">
        <ele>181</ele>
        <time>2021-08-11T12:34:16Z</time>
      </trkpt>
      <trkpt lat="48.06904" lon="-3.65931">
        <ele>181</ele>
        <time>2021-08-11T12:34:17Z</time>
      </trkpt>
      <trkpt lat="48.06898" lon="-3.65933">
        <ele>180.8</ele>
        <time>2021-08-11T12:34:18Z</time>
      </trkpt>
      <trkpt lat="48.06892" lon="-3.65934">
        <ele>180.6</ele>
        <time>2021-08-11T12:34:19Z</time>
      </trkpt>
      <trkpt lat="48.06886" lon="-3.65936">
        <ele>180.4</ele>
        <time>2021-08-11T12:34:20Z</time>
      </trkpt>
      <trkpt lat="48.06881" lon="-3.65937">
        <ele>180.4</ele>
        <time>2021-08-11T12:34:21Z</time>
      </trkpt>
      <trkpt lat="48.06875" lon="-3.65938">
        <ele>180.2</ele>
        <time>2021-08-11T12:34:22Z</time>
      </trkpt>
      <trkpt lat="48.06868" lon="-3.65937">
        <ele>180.2</ele>
        <time>2021-08-11T12:34:23Z</time>
      </trkpt>
      <trkpt lat="48.06861" lon="-3.65937">
        <ele>180.2</ele>
        <time>2021-08-11T12:34:24Z</time>
      </trkpt>
      <trkpt lat="48.06854" lon="-3.65937">
        <ele>180.2</ele>
        <time>2021-08-11T12:34:25Z</time>
      </trkpt>
      <trkpt lat="48.06849" lon="-3.65938">
        <ele>180.2</ele>
        <time>2021-08-11T12:34:26Z</time>
      </trkpt>
      <trkpt lat="48.06842" lon="-3.6594">
        <ele>180.2</ele>
        <time>2021-08-11T12:34:27Z</time>
      </trkpt>
      <trkpt lat="48.06836" lon="-3.65941">
        <ele>180.2</ele>
        <time>2021-08-11T12:34:28Z</time>
      </trkpt>
      <trkpt lat="48.0683" lon="-3.65943">
        <ele>180</ele>
        <time>2021-08-11T12:34:29Z</time>
      </trkpt>
      <trkpt lat="48.06823" lon="-3.65944">
        <ele>180</ele>
        <time>2021-08-11T12:34:30Z</time>
      </trkpt>
      <trkpt lat="48.06816" lon="-3.65946">
        <ele>180</ele>
        <time>2021-08-11T12:34:31Z</time>
      </trkpt>
      <trkpt lat="48.06809" lon="-3.65947">
        <ele>180</ele>
        <time>2021-08-11T12:34:32Z</time>
      </trkpt>
      <trkpt lat="48.06803" lon="-3.65949">
        <ele>180</ele>
        <time>2021-08-11T12:34:33Z</time>
      </trkpt>
      <trkpt lat="48.06797" lon="-3.65951">
        <ele>179.8</ele>
        <time>2021-08-11T12:34:34Z</time>
      </trkpt>
      <trkpt lat="48.06791" lon="-3.65954">
        <ele>179.8</ele>
        <time>2021-08-11T12:34:35Z</time>
      </trkpt>
      <trkpt lat="48.06785" lon="-3.65956">
        <ele>179.8</ele>
        <time>2021-08-11T12:34:36Z</time>
      </trkpt>
      <trkpt lat="48.0678" lon="-3.65957">
        <ele>179.6</ele>
        <time>2021-08-11T12:34:37Z</time>
      </trkpt>
      <trkpt lat="48.06774" lon="-3.65959">
        <ele>179.4</ele>
        <time>2021-08-11T12:34:38Z</time>
      </trkpt>
      <trkpt lat="48.06769" lon="-3.6596">
        <ele>179.4</ele>
        <time>2021-08-11T12:34:39Z</time>
      </trkpt>
      <trkpt lat="48.06763" lon="-3.65962">
        <ele>179.4</ele>
        <time>2021-08-11T12:34:40Z</time>
      </trkpt>
      <trkpt lat="48.06758" lon="-3.65962">
        <ele>179.2</ele>
        <time>2021-08-11T12:34:41Z</time>
      </trkpt>
      <trkpt lat="48.06752" lon="-3.65963">
        <ele>179.2</ele>
        <time>2021-08-11T12:34:42Z</time>
      </trkpt>
      <trkpt lat="48.06747" lon="-3.65963">
        <ele>179.2</ele>
        <time>2021-08-11T12:34:43Z</time>
      </trkpt>
      <trkpt lat="48.06741" lon="-3.65963">
        <ele>179.2</ele>
        <time>2021-08-11T12:34:44Z</time>
      </trkpt>
      <trkpt lat="48.06736" lon="-3.65963">
        <ele>179.2</ele>
        <time>2021-08-11T12:34:45Z</time>
      </trkpt>
      <trkpt lat="48.06731" lon="-3.65963">
        <ele>179.2</ele>
        <time>2021-08-11T12:34:46Z</time>
      </trkpt>
      <trkpt lat="48.06726" lon="-3.65962">
        <ele>179.2</ele>
        <time>2021-08-11T12:34:47Z</time>
      </trkpt>
      <trkpt lat="48.06721" lon="-3.65961">
        <ele>179.2</ele>
        <time>2021-08-11T12:34:48Z</time>
      </trkpt>
      <trkpt lat="48.06716" lon="-3.65961">
        <ele>179.2</ele>
        <time>2021-08-11T12:34:49Z</time>
      </trkpt>
      <trkpt lat="48.0671" lon="-3.65961">
        <ele>179.2</ele>
        <time>2021-08-11T12:34:50Z</time>
      </trkpt>
      <trkpt lat="48.06704" lon="-3.65961">
        <ele>179.2</ele>
        <time>2021-08-11T12:34:51Z</time>
      </trkpt>
      <trkpt lat="48.06696" lon="-3.6596">
        <ele>179.2</ele>
        <time>2021-08-11T12:34:52Z</time>
      </trkpt>
      <trkpt lat="48.06689" lon="-3.6596">
        <ele>179.2</ele>
        <time>2021-08-11T12:34:53Z</time>
      </trkpt>
      <trkpt lat="48.06683" lon="-3.6596">
        <ele>179.2</ele>
        <time>2021-08-11T12:34:54Z</time>
      </trkpt>
      <trkpt lat="48.06677" lon="-3.65959">
        <ele>179.2</ele>
        <time>2021-08-11T12:34:55Z</time>
      </trkpt>
      <trkpt lat="48.06671" lon="-3.65958">
        <ele>179.2</ele>
        <time>2021-08-11T12:34:56Z</time>
      </trkpt>
      <trkpt lat="48.06665" lon="-3.65957">
        <ele>179.2</ele>
        <time>2021-08-11T12:34:57Z</time>
      </trkpt>
      <trkpt lat="48.0666" lon="-3.65956">
        <ele>179.2</ele>
        <time>2021-08-11T12:34:58Z</time>
      </trkpt>
      <trkpt lat="48.06654" lon="-3.65955">
        <ele>179.2</ele>
        <time>2021-08-11T12:34:59Z</time>
      </trkpt>
      <trkpt lat="48.06648" lon="-3.65955">
        <ele>179.2</ele>
        <time>2021-08-11T12:35:00Z</time>
      </trkpt>
      <trkpt lat="48.06641" lon="-3.65951">
        <ele>179.2</ele>
        <time>2021-08-11T12:35:01Z</time>
      </trkpt>
      <trkpt lat="48.06635" lon="-3.65948">
        <ele>179.2</ele>
        <time>2021-08-11T12:35:02Z</time>
      </trkpt>
      <trkpt lat="48.06629" lon="-3.65944">
        <ele>179.2</ele>
        <time>2021-08-11T12:35:03Z</time>
      </trkpt>
      <trkpt lat="48.06622" lon="-3.6594">
        <ele>179</ele>
        <time>2021-08-11T12:35:04Z</time>
      </trkpt>
      <trkpt lat="48.06616" lon="-3.65935">
        <ele>179</ele>
        <time>2021-08-11T12:35:05Z</time>
      </trkpt>
      <trkpt lat="48.06609" lon="-3.65931">
        <ele>178.8</ele>
        <time>2021-08-11T12:35:06Z</time>
      </trkpt>
      <trkpt lat="48.06602" lon="-3.65928">
        <ele>178.8</ele>
        <time>2021-08-11T12:35:07Z</time>
      </trkpt>
      <trkpt lat="48.06595" lon="-3.65924">
        <ele>178.8</ele>
        <time>2021-08-11T12:35:08Z</time>
      </trkpt>
      <trkpt lat="48.06589" lon="-3.65921">
        <ele>178.8</ele>
        <time>2021-08-11T12:35:09Z</time>
      </trkpt>
      <trkpt lat="48.06583" lon="-3.65917">
        <ele>178.6</ele>
        <time>2021-08-11T12:35:10Z</time>
      </trkpt>
      <trkpt lat="48.06577" lon="-3.65914">
        <ele>178.6</ele>
        <time>2021-08-11T12:35:11Z</time>
      </trkpt>
      <trkpt lat="48.06571" lon="-3.65912">
        <ele>178.6</ele>
        <time>2021-08-11T12:35:12Z</time>
      </trkpt>
      <trkpt lat="48.06566" lon="-3.6591">
        <ele>178.6</ele>
        <time>2021-08-11T12:35:13Z</time>
      </trkpt>
      <trkpt lat="48.06561" lon="-3.65908">
        <ele>178.6</ele>
        <time>2021-08-11T12:35:14Z</time>
      </trkpt>
      <trkpt lat="48.06555" lon="-3.65906">
        <ele>178.6</ele>
        <time>2021-08-11T12:35:15Z</time>
      </trkpt>
      <trkpt lat="48.06549" lon="-3.65904">
        <ele>178.6</ele>
        <time>2021-08-11T12:35:16Z</time>
      </trkpt>
      <trkpt lat="48.06544" lon="-3.65901">
        <ele>178.8</ele>
        <time>2021-08-11T12:35:17Z</time>
      </trkpt>
      <trkpt lat="48.06538" lon="-3.65897">
        <ele>178.8</ele>
        <time>2021-08-11T12:35:18Z</time>
      </trkpt>
      <trkpt lat="48.06533" lon="-3.65894">
        <ele>178.8</ele>
        <time>2021-08-11T12:35:19Z</time>
      </trkpt>
      <trkpt lat="48.06527" lon="-3.65891">
        <ele>178.8</ele>
        <time>2021-08-11T12:35:20Z</time>
      </trkpt>
      <trkpt lat="48.06521" lon="-3.65888">
        <ele>178.8</ele>
        <time>2021-08-11T12:35:21Z</time>
      </trkpt>
      <trkpt lat="48.06515" lon="-3.65885">
        <ele>178.8</ele>
        <time>2021-08-11T12:35:22Z</time>
      </trkpt>
      <trkpt lat="48.06509" lon="-3.65881">
        <ele>178.8</ele>
        <time>2021-08-11T12:35:23Z</time>
      </trkpt>
      <trkpt lat="48.065" lon="-3.65877">
        <ele>178.8</ele>
        <time>2021-08-11T12:35:24Z</time>
      </trkpt>
      <trkpt lat="48.06493" lon="-3.65873">
        <ele>178.8</ele>
        <time>2021-08-11T12:35:25Z</time>
      </trkpt>
      <trkpt lat="48.06486" lon="-3.6587">
        <ele>178.8</ele>
        <time>2021-08-11T12:35:26Z</time>
      </trkpt>
      <trkpt lat="48.06479" lon="-3.65866">
        <ele>178.8</ele>
        <time>2021-08-11T12:35:27Z</time>
      </trkpt>
      <trkpt lat="48.06471" lon="-3.65862">
        <ele>178.8</ele>
        <time>2021-08-11T12:35:28Z</time>
      </trkpt>
      <trkpt lat="48.06464" lon="-3.65859">
        <ele>178.8</ele>
        <time>2021-08-11T12:35:29Z</time>
      </trkpt>
      <trkpt lat="48.06457" lon="-3.65855">
        <ele>178.8</ele>
        <time>2021-08-11T12:35:30Z</time>
      </trkpt>
      <trkpt lat="48.0645" lon="-3.65852">
        <ele>178.6</ele>
        <time>2021-08-11T12:35:31Z</time>
      </trkpt>
      <trkpt lat="48.06443" lon="-3.65848">
        <ele>178.4</ele>
        <time>2021-08-11T12:35:32Z</time>
      </trkpt>
      <trkpt lat="48.06436" lon="-3.65845">
        <ele>178.4</ele>
        <time>2021-08-11T12:35:33Z</time>
      </trkpt>
      <trkpt lat="48.06429" lon="-3.65842">
        <ele>178.2</ele>
        <time>2021-08-11T12:35:34Z</time>
      </trkpt>
      <trkpt lat="48.06423" lon="-3.65838">
        <ele>178.2</ele>
        <time>2021-08-11T12:35:35Z</time>
      </trkpt>
      <trkpt lat="48.06416" lon="-3.65835">
        <ele>178</ele>
        <time>2021-08-11T12:35:36Z</time>
      </trkpt>
      <trkpt lat="48.0641" lon="-3.65832">
        <ele>177.8</ele>
        <time>2021-08-11T12:35:37Z</time>
      </trkpt>
      <trkpt lat="48.06404" lon="-3.6583">
        <ele>177.8</ele>
        <time>2021-08-11T12:35:38Z</time>
      </trkpt>
      <trkpt lat="48.06398" lon="-3.65827">
        <ele>177.8</ele>
        <time>2021-08-11T12:35:39Z</time>
      </trkpt>
      <trkpt lat="48.06392" lon="-3.65824">
        <ele>177.6</ele>
        <time>2021-08-11T12:35:40Z</time>
      </trkpt>
      <trkpt lat="48.06387" lon="-3.65821">
        <ele>177.6</ele>
        <time>2021-08-11T12:35:41Z</time>
      </trkpt>
      <trkpt lat="48.06381" lon="-3.65819">
        <ele>177.6</ele>
        <time>2021-08-11T12:35:42Z</time>
      </trkpt>
      <trkpt lat="48.06376" lon="-3.65816">
        <ele>177.6</ele>
        <time>2021-08-11T12:35:43Z</time>
      </trkpt>
      <trkpt lat="48.06371" lon="-3.65814">
        <ele>177.4</ele>
        <time>2021-08-11T12:35:44Z</time>
      </trkpt>
      <trkpt lat="48.06366" lon="-3.65811">
        <ele>177.4</ele>
        <time>2021-08-11T12:35:45Z</time>
      </trkpt>
      <trkpt lat="48.06361" lon="-3.65808">
        <ele>177.4</ele>
        <time>2021-08-11T12:35:46Z</time>
      </trkpt>
      <trkpt lat="48.06357" lon="-3.65805">
        <ele>177.4</ele>
        <time>2021-08-11T12:35:47Z</time>
      </trkpt>
      <trkpt lat="48.06353" lon="-3.65801">
        <ele>177.4</ele>
        <time>2021-08-11T12:35:48Z</time>
      </trkpt>
      <trkpt lat="48.0635" lon="-3.65798">
        <ele>177.4</ele>
        <time>2021-08-11T12:35:49Z</time>
      </trkpt>
      <trkpt lat="48.06348" lon="-3.65793">
        <ele>177.6</ele>
        <time>2021-08-11T12:35:50Z</time>
      </trkpt>
      <trkpt lat="48.06345" lon="-3.65789">
        <ele>177.6</ele>
        <time>2021-08-11T12:35:51Z</time>
      </trkpt>
      <trkpt lat="48.06343" lon="-3.65785">
        <ele>177.6</ele>
        <time>2021-08-11T12:35:52Z</time>
      </trkpt>
      <trkpt lat="48.0634" lon="-3.65782">
        <ele>177.6</ele>
        <time>2021-08-11T12:35:53Z</time>
      </trkpt>
      <trkpt lat="48.06338" lon="-3.65781">
        <ele>177.6</ele>
        <time>2021-08-11T12:35:54Z</time>
      </trkpt>
      <trkpt lat="48.06338" lon="-3.65781">
        <ele>177.8</ele>
        <time>2021-08-11T12:35:55Z</time>
      </trkpt>
      <trkpt lat="48.06337" lon="-3.6578">
        <ele>178.4</ele>
        <time>2021-08-11T12:35:59Z</time>
      </trkpt>
      <trkpt lat="48.06336" lon="-3.65779">
        <ele>178.4</ele>
        <time>2021-08-11T12:36:00Z</time>
      </trkpt>
      <trkpt lat="48.06331" lon="-3.65772">
        <ele>180</ele>
        <time>2021-08-11T12:45:35Z</time>
      </trkpt>
      <trkpt lat="48.06329" lon="-3.65771">
        <ele>180</ele>
        <time>2021-08-11T12:45:36Z</time>
      </trkpt>
      <trkpt lat="48.06328" lon="-3.6577">
        <ele>180</ele>
        <time>2021-08-11T12:45:37Z</time>
      </trkpt>
      <trkpt lat="48.06326" lon="-3.65768">
        <ele>180</ele>
        <time>2021-08-11T12:45:38Z</time>
      </trkpt>
      <trkpt lat="48.06323" lon="-3.65767">
        <ele>180</ele>
        <time>2021-08-11T12:45:39Z</time>
      </trkpt>
      <trkpt lat="48.06321" lon="-3.65765">
        <ele>180</ele>
        <time>2021-08-11T12:45:40Z</time>
      </trkpt>
      <trkpt lat="48.06318" lon="-3.65764">
        <ele>180</ele>
        <time>2021-08-11T12:45:41Z</time>
      </trkpt>
      <trkpt lat="48.06315" lon="-3.65762">
        <ele>180</ele>
        <time>2021-08-11T12:45:42Z</time>
      </trkpt>
      <trkpt lat="48.06312" lon="-3.6576">
        <ele>179.8</ele>
        <time>2021-08-11T12:45:43Z</time>
      </trkpt>
      <trkpt lat="48.06308" lon="-3.65759">
        <ele>179.8</ele>
        <time>2021-08-11T12:45:44Z</time>
      </trkpt>
      <trkpt lat="48.06305" lon="-3.65757">
        <ele>179.8</ele>
        <time>2021-08-11T12:45:45Z</time>
      </trkpt>
      <trkpt lat="48.06302" lon="-3.65755">
        <ele>179.8</ele>
        <time>2021-08-11T12:45:46Z</time>
      </trkpt>
      <trkpt lat="48.06299" lon="-3.65754">
        <ele>179.6</ele>
        <time>2021-08-11T12:45:47Z</time>
      </trkpt>
      <trkpt lat="48.06297" lon="-3.65755">
        <ele>179.4</ele>
        <time>2021-08-11T12:45:48Z</time>
      </trkpt>
      <trkpt lat="48.06295" lon="-3.65757">
        <ele>179.4</ele>
        <time>2021-08-11T12:45:49Z</time>
      </trkpt>
      <trkpt lat="48.06294" lon="-3.65758">
        <ele>179.2</ele>
        <time>2021-08-11T12:45:50Z</time>
      </trkpt>
      <trkpt lat="48.06292" lon="-3.6576">
        <ele>179.2</ele>
        <time>2021-08-11T12:45:51Z</time>
      </trkpt>
      <trkpt lat="48.06292" lon="-3.65762">
        <ele>179.2</ele>
        <time>2021-08-11T12:45:52Z</time>
      </trkpt>
      <trkpt lat="48.06291" lon="-3.65764">
        <ele>179.2</ele>
        <time>2021-08-11T12:45:53Z</time>
      </trkpt>
      <trkpt lat="48.06289" lon="-3.65766">
        <ele>179.2</ele>
        <time>2021-08-11T12:45:54Z</time>
      </trkpt>
      <trkpt lat="48.06287" lon="-3.65768">
        <ele>179.2</ele>
        <time>2021-08-11T12:45:55Z</time>
      </trkpt>
      <trkpt lat="48.06284" lon="-3.65768">
        <ele>179.2</ele>
        <time>2021-08-11T12:45:56Z</time>
      </trkpt>
      <trkpt lat="48.06281" lon="-3.65769">
        <ele>179</ele>
        <time>2021-08-11T12:45:57Z</time>
      </trkpt>
      <trkpt lat="48.06278" lon="-3.65768">
        <ele>179</ele>
        <time>2021-08-11T12:45:58Z</time>
      </trkpt>
      <trkpt lat="48.06275" lon="-3.65767">
        <ele>179</ele>
        <time>2021-08-11T12:45:59Z</time>
      </trkpt>
      <trkpt lat="48.06272" lon="-3.65765">
        <ele>179</ele>
        <time>2021-08-11T12:46:00Z</time>
      </trkpt>
      <trkpt lat="48.06269" lon="-3.65764">
        <ele>179</ele>
        <time>2021-08-11T12:46:01Z</time>
      </trkpt>
      <trkpt lat="48.06266" lon="-3.65763">
        <ele>178.8</ele>
        <time>2021-08-11T12:46:02Z</time>
      </trkpt>
      <trkpt lat="48.06262" lon="-3.65761">
        <ele>178.8</ele>
        <time>2021-08-11T12:46:03Z</time>
      </trkpt>
      <trkpt lat="48.06258" lon="-3.6576">
        <ele>178.8</ele>
        <time>2021-08-11T12:46:04Z</time>
      </trkpt>
      <trkpt lat="48.06255" lon="-3.65758">
        <ele>178.8</ele>
        <time>2021-08-11T12:46:05Z</time>
      </trkpt>
      <trkpt lat="48.0625" lon="-3.65756">
        <ele>178.6</ele>
        <time>2021-08-11T12:46:06Z</time>
      </trkpt>
      <trkpt lat="48.06245" lon="-3.65754">
        <ele>178.4</ele>
        <time>2021-08-11T12:46:07Z</time>
      </trkpt>
      <trkpt lat="48.06239" lon="-3.65751">
        <ele>178.4</ele>
        <time>2021-08-11T12:46:08Z</time>
      </trkpt>
      <trkpt lat="48.06234" lon="-3.65749">
        <ele>178.2</ele>
        <time>2021-08-11T12:46:09Z</time>
      </trkpt>
      <trkpt lat="48.06229" lon="-3.65746">
        <ele>178</ele>
        <time>2021-08-11T12:46:10Z</time>
      </trkpt>
      <trkpt lat="48.06224" lon="-3.65744">
        <ele>177.8</ele>
        <time>2021-08-11T12:46:11Z</time>
      </trkpt>
      <trkpt lat="48.06218" lon="-3.65741">
        <ele>177.8</ele>
        <time>2021-08-11T12:46:12Z</time>
      </trkpt>
      <trkpt lat="48.06213" lon="-3.65738">
        <ele>177.6</ele>
        <time>2021-08-11T12:46:13Z</time>
      </trkpt>
      <trkpt lat="48.06207" lon="-3.65735">
        <ele>177.4</ele>
        <time>2021-08-11T12:46:14Z</time>
      </trkpt>
      <trkpt lat="48.06202" lon="-3.65733">
        <ele>177.2</ele>
        <time>2021-08-11T12:46:15Z</time>
      </trkpt>
      <trkpt lat="48.06197" lon="-3.6573">
        <ele>177.2</ele>
        <time>2021-08-11T12:46:16Z</time>
      </trkpt>
      <trkpt lat="48.06191" lon="-3.65727">
        <ele>177</ele>
        <time>2021-08-11T12:46:17Z</time>
      </trkpt>
      <trkpt lat="48.06185" lon="-3.65725">
        <ele>177</ele>
        <time>2021-08-11T12:46:18Z</time>
      </trkpt>
      <trkpt lat="48.06179" lon="-3.65722">
        <ele>177</ele>
        <time>2021-08-11T12:46:19Z</time>
      </trkpt>
      <trkpt lat="48.06173" lon="-3.6572">
        <ele>176.8</ele>
        <time>2021-08-11T12:46:20Z</time>
      </trkpt>
      <trkpt lat="48.06167" lon="-3.65717">
        <ele>176.8</ele>
        <time>2021-08-11T12:46:21Z</time>
      </trkpt>
      <trkpt lat="48.06161" lon="-3.65715">
        <ele>176.6</ele>
        <time>2021-08-11T12:46:22Z</time>
      </trkpt>
      <trkpt lat="48.06155" lon="-3.65713">
        <ele>176.2</ele>
        <time>2021-08-11T12:46:23Z</time>
      </trkpt>
      <trkpt lat="48.06149" lon="-3.6571">
        <ele>176</ele>
        <time>2021-08-11T12:46:24Z</time>
      </trkpt>
      <trkpt lat="48.06143" lon="-3.65707">
        <ele>175.8</ele>
        <time>2021-08-11T12:46:25Z</time>
      </trkpt>
      <trkpt lat="48.06137" lon="-3.65704">
        <ele>175.8</ele>
        <time>2021-08-11T12:46:26Z</time>
      </trkpt>
      <trkpt lat="48.06132" lon="-3.65701">
        <ele>175.6</ele>
        <time>2021-08-11T12:46:27Z</time>
      </trkpt>
      <trkpt lat="48.06126" lon="-3.65698">
        <ele>175.6</ele>
        <time>2021-08-11T12:46:28Z</time>
      </trkpt>
      <trkpt lat="48.0612" lon="-3.65694">
        <ele>175.6</ele>
        <time>2021-08-11T12:46:29Z</time>
      </trkpt>
      <trkpt lat="48.06113" lon="-3.65691">
        <ele>175.4</ele>
        <time>2021-08-11T12:46:30Z</time>
      </trkpt>
      <trkpt lat="48.06106" lon="-3.65687">
        <ele>175.2</ele>
        <time>2021-08-11T12:46:31Z</time>
      </trkpt>
      <trkpt lat="48.06099" lon="-3.65683">
        <ele>175.2</ele>
        <time>2021-08-11T12:46:32Z</time>
      </trkpt>
      <trkpt lat="48.06093" lon="-3.65679">
        <ele>175</ele>
        <time>2021-08-11T12:46:33Z</time>
      </trkpt>
      <trkpt lat="48.06086" lon="-3.65676">
        <ele>175</ele>
        <time>2021-08-11T12:46:34Z</time>
      </trkpt>
      <trkpt lat="48.06079" lon="-3.65673">
        <ele>175</ele>
        <time>2021-08-11T12:46:35Z</time>
      </trkpt>
      <trkpt lat="48.06073" lon="-3.65669">
        <ele>174.8</ele>
        <time>2021-08-11T12:46:36Z</time>
      </trkpt>
      <trkpt lat="48.06067" lon="-3.65666">
        <ele>174.8</ele>
        <time>2021-08-11T12:46:37Z</time>
      </trkpt>
      <trkpt lat="48.0606" lon="-3.65663">
        <ele>174.8</ele>
        <time>2021-08-11T12:46:38Z</time>
      </trkpt>
      <trkpt lat="48.06055" lon="-3.65661">
        <ele>174.6</ele>
        <time>2021-08-11T12:46:39Z</time>
      </trkpt>
      <trkpt lat="48.0605" lon="-3.65658">
        <ele>174.6</ele>
        <time>2021-08-11T12:46:40Z</time>
      </trkpt>
      <trkpt lat="48.06046" lon="-3.65655">
        <ele>174.6</ele>
        <time>2021-08-11T12:46:41Z</time>
      </trkpt>
      <trkpt lat="48.06043" lon="-3.65652">
        <ele>174.6</ele>
        <time>2021-08-11T12:46:42Z</time>
      </trkpt>
      <trkpt lat="48.0604" lon="-3.6565">
        <ele>174.6</ele>
        <time>2021-08-11T12:46:43Z</time>
      </trkpt>
      <trkpt lat="48.06038" lon="-3.6565">
        <ele>174.6</ele>
        <time>2021-08-11T12:46:44Z</time>
      </trkpt>
      <trkpt lat="48.06035" lon="-3.6565">
        <ele>174.6</ele>
        <time>2021-08-11T12:46:45Z</time>
      </trkpt>
      <trkpt lat="48.06032" lon="-3.6565">
        <ele>174.6</ele>
        <time>2021-08-11T12:46:46Z</time>
      </trkpt>
      <trkpt lat="48.06029" lon="-3.65649">
        <ele>174.6</ele>
        <time>2021-08-11T12:46:47Z</time>
      </trkpt>
      <trkpt lat="48.06025" lon="-3.65647">
        <ele>174.6</ele>
        <time>2021-08-11T12:46:48Z</time>
      </trkpt>
      <trkpt lat="48.06021" lon="-3.65645">
        <ele>174.6</ele>
        <time>2021-08-11T12:46:49Z</time>
      </trkpt>
      <trkpt lat="48.06017" lon="-3.65643">
        <ele>175</ele>
        <time>2021-08-11T12:46:50Z</time>
      </trkpt>
      <trkpt lat="48.06013" lon="-3.65642">
        <ele>175.4</ele>
        <time>2021-08-11T12:46:51Z</time>
      </trkpt>
      <trkpt lat="48.06009" lon="-3.6564">
        <ele>175.6</ele>
        <time>2021-08-11T12:46:52Z</time>
      </trkpt>
      <trkpt lat="48.06004" lon="-3.65638">
        <ele>175.8</ele>
        <time>2021-08-11T12:46:53Z</time>
      </trkpt>
      <trkpt lat="48.05999" lon="-3.65636">
        <ele>175.8</ele>
        <time>2021-08-11T12:46:54Z</time>
      </trkpt>
      <trkpt lat="48.05994" lon="-3.65634">
        <ele>175.8</ele>
        <time>2021-08-11T12:46:55Z</time>
      </trkpt>
      <trkpt lat="48.05989" lon="-3.65631">
        <ele>175.8</ele>
        <time>2021-08-11T12:46:56Z</time>
      </trkpt>
      <trkpt lat="48.05983" lon="-3.65629">
        <ele>175.8</ele>
        <time>2021-08-11T12:46:57Z</time>
      </trkpt>
      <trkpt lat="48.05978" lon="-3.65626">
        <ele>175.8</ele>
        <time>2021-08-11T12:46:58Z</time>
      </trkpt>
      <trkpt lat="48.05972" lon="-3.65623">
        <ele>175.8</ele>
        <time>2021-08-11T12:46:59Z</time>
      </trkpt>
      <trkpt lat="48.05966" lon="-3.6562">
        <ele>175.8</ele>
        <time>2021-08-11T12:47:00Z</time>
      </trkpt>
      <trkpt lat="48.05961" lon="-3.65617">
        <ele>175.6</ele>
        <time>2021-08-11T12:47:01Z</time>
      </trkpt>
      <trkpt lat="48.05955" lon="-3.65614">
        <ele>175.6</ele>
        <time>2021-08-11T12:47:02Z</time>
      </trkpt>
      <trkpt lat="48.0595" lon="-3.6561">
        <ele>175.6</ele>
        <time>2021-08-11T12:47:03Z</time>
      </trkpt>
      <trkpt lat="48.05944" lon="-3.65607">
        <ele>175.2</ele>
        <time>2021-08-11T12:47:04Z</time>
      </trkpt>
      <trkpt lat="48.05938" lon="-3.65603">
        <ele>175</ele>
        <time>2021-08-11T12:47:05Z</time>
      </trkpt>
      <trkpt lat="48.05933" lon="-3.65598">
        <ele>174.6</ele>
        <time>2021-08-11T12:47:06Z</time>
      </trkpt>
      <trkpt lat="48.05928" lon="-3.65594">
        <ele>174.4</ele>
        <time>2021-08-11T12:47:07Z</time>
      </trkpt>
      <trkpt lat="48.05924" lon="-3.65589">
        <ele>174.2</ele>
        <time>2021-08-11T12:47:08Z</time>
      </trkpt>
      <trkpt lat="48.05919" lon="-3.65583">
        <ele>174</ele>
        <time>2021-08-11T12:47:09Z</time>
      </trkpt>
      <trkpt lat="48.05914" lon="-3.65578">
        <ele>173.8</ele>
        <time>2021-08-11T12:47:10Z</time>
      </trkpt>
      <trkpt lat="48.05908" lon="-3.65573">
        <ele>173.8</ele>
        <time>2021-08-11T12:47:11Z</time>
      </trkpt>
      <trkpt lat="48.05902" lon="-3.65568">
        <ele>173.8</ele>
        <time>2021-08-11T12:47:12Z</time>
      </trkpt>
      <trkpt lat="48.05896" lon="-3.65563">
        <ele>173.6</ele>
        <time>2021-08-11T12:47:13Z</time>
      </trkpt>
      <trkpt lat="48.0589" lon="-3.65559">
        <ele>173.6</ele>
        <time>2021-08-11T12:47:14Z</time>
      </trkpt>
      <trkpt lat="48.05884" lon="-3.65553">
        <ele>173.4</ele>
        <time>2021-08-11T12:47:15Z</time>
      </trkpt>
      <trkpt lat="48.05879" lon="-3.65548">
        <ele>173.2</ele>
        <time>2021-08-11T12:47:16Z</time>
      </trkpt>
      <trkpt lat="48.05873" lon="-3.65543">
        <ele>173.2</ele>
        <time>2021-08-11T12:47:17Z</time>
      </trkpt>
      <trkpt lat="48.05868" lon="-3.65538">
        <ele>173.2</ele>
        <time>2021-08-11T12:47:18Z</time>
      </trkpt>
      <trkpt lat="48.05862" lon="-3.65533">
        <ele>173.2</ele>
        <time>2021-08-11T12:47:19Z</time>
      </trkpt>
      <trkpt lat="48.05856" lon="-3.65527">
        <ele>173</ele>
        <time>2021-08-11T12:47:20Z</time>
      </trkpt>
      <trkpt lat="48.05851" lon="-3.65522">
        <ele>173</ele>
        <time>2021-08-11T12:47:21Z</time>
      </trkpt>
      <trkpt lat="48.05845" lon="-3.65516">
        <ele>173</ele>
        <time>2021-08-11T12:47:22Z</time>
      </trkpt>
      <trkpt lat="48.05839" lon="-3.65511">
        <ele>172.8</ele>
        <time>2021-08-11T12:47:23Z</time>
      </trkpt>
      <trkpt lat="48.05833" lon="-3.65505">
        <ele>172.8</ele>
        <time>2021-08-11T12:47:24Z</time>
      </trkpt>
      <trkpt lat="48.05828" lon="-3.655">
        <ele>172.6</ele>
        <time>2021-08-11T12:47:25Z</time>
      </trkpt>
      <trkpt lat="48.05824" lon="-3.65495">
        <ele>172.4</ele>
        <time>2021-08-11T12:47:26Z</time>
      </trkpt>
      <trkpt lat="48.0582" lon="-3.65491">
        <ele>172.4</ele>
        <time>2021-08-11T12:47:27Z</time>
      </trkpt>
      <trkpt lat="48.05816" lon="-3.65487">
        <ele>172.4</ele>
        <time>2021-08-11T12:47:28Z</time>
      </trkpt>
      <trkpt lat="48.05813" lon="-3.65483">
        <ele>172.4</ele>
        <time>2021-08-11T12:47:29Z</time>
      </trkpt>
      <trkpt lat="48.05812" lon="-3.65481">
        <ele>172.4</ele>
        <time>2021-08-11T12:47:30Z</time>
      </trkpt>
      <trkpt lat="48.0581" lon="-3.6548">
        <ele>172.4</ele>
        <time>2021-08-11T12:47:31Z</time>
      </trkpt>
      <trkpt lat="48.05809" lon="-3.65479">
        <ele>172.4</ele>
        <time>2021-08-11T12:47:32Z</time>
      </trkpt>
      <trkpt lat="48.05808" lon="-3.65481">
        <ele>172.4</ele>
        <time>2021-08-11T12:47:33Z</time>
      </trkpt>
      <trkpt lat="48.05806" lon="-3.65482">
        <ele>172.4</ele>
        <time>2021-08-11T12:47:34Z</time>
      </trkpt>
      <trkpt lat="48.05805" lon="-3.65482">
        <ele>172.6</ele>
        <time>2021-08-11T12:47:35Z</time>
      </trkpt>
      <trkpt lat="48.05803" lon="-3.6548">
        <ele>174</ele>
        <time>2021-08-11T12:47:39Z</time>
      </trkpt>
      <trkpt lat="48.05802" lon="-3.65479">
        <ele>174</ele>
        <time>2021-08-11T12:47:40Z</time>
      </trkpt>
      <trkpt lat="48.05801" lon="-3.65477">
        <ele>174.2</ele>
        <time>2021-08-11T12:47:41Z</time>
      </trkpt>
      <trkpt lat="48.05799" lon="-3.65476">
        <ele>174.2</ele>
        <time>2021-08-11T12:47:42Z</time>
      </trkpt>
      <trkpt lat="48.05798" lon="-3.65475">
        <ele>174.2</ele>
        <time>2021-08-11T12:47:43Z</time>
      </trkpt>
      <trkpt lat="48.05795" lon="-3.65475">
        <ele>174.2</ele>
        <time>2021-08-11T12:47:44Z</time>
      </trkpt>
      <trkpt lat="48.05793" lon="-3.65475">
        <ele>174.2</ele>
        <time>2021-08-11T12:47:45Z</time>
      </trkpt>
      <trkpt lat="48.0579" lon="-3.65475">
        <ele>174.2</ele>
        <time>2021-08-11T12:47:46Z</time>
      </trkpt>
      <trkpt lat="48.05788" lon="-3.65475">
        <ele>174.2</ele>
        <time>2021-08-11T12:47:47Z</time>
      </trkpt>
      <trkpt lat="48.05784" lon="-3.65474">
        <ele>174.2</ele>
        <time>2021-08-11T12:47:48Z</time>
      </trkpt>
      <trkpt lat="48.05781" lon="-3.65473">
        <ele>174.2</ele>
        <time>2021-08-11T12:47:49Z</time>
      </trkpt>
      <trkpt lat="48.05778" lon="-3.65471">
        <ele>174.2</ele>
        <time>2021-08-11T12:47:50Z</time>
      </trkpt>
      <trkpt lat="48.05774" lon="-3.65469">
        <ele>174.2</ele>
        <time>2021-08-11T12:47:51Z</time>
      </trkpt>
      <trkpt lat="48.05771" lon="-3.65466">
        <ele>174</ele>
        <time>2021-08-11T12:47:52Z</time>
      </trkpt>
      <trkpt lat="48.05767" lon="-3.65464">
        <ele>174</ele>
        <time>2021-08-11T12:47:53Z</time>
      </trkpt>
      <trkpt lat="48.05762" lon="-3.65462">
        <ele>173.8</ele>
        <time>2021-08-11T12:47:54Z</time>
      </trkpt>
      <trkpt lat="48.05758" lon="-3.65459">
        <ele>173.6</ele>
        <time>2021-08-11T12:47:55Z</time>
      </trkpt>
      <trkpt lat="48.05752" lon="-3.65457">
        <ele>173.6</ele>
        <time>2021-08-11T12:47:56Z</time>
      </trkpt>
      <trkpt lat="48.05747" lon="-3.65455">
        <ele>173.6</ele>
        <time>2021-08-11T12:47:57Z</time>
      </trkpt>
      <trkpt lat="48.05741" lon="-3.65453">
        <ele>173.4</ele>
        <time>2021-08-11T12:47:58Z</time>
      </trkpt>
      <trkpt lat="48.05735" lon="-3.65451">
        <ele>173.2</ele>
        <time>2021-08-11T12:47:59Z</time>
      </trkpt>
      <trkpt lat="48.05729" lon="-3.65449">
        <ele>173</ele>
        <time>2021-08-11T12:48:00Z</time>
      </trkpt>
      <trkpt lat="48.05723" lon="-3.65446">
        <ele>173</ele>
        <time>2021-08-11T12:48:01Z</time>
      </trkpt>
      <trkpt lat="48.05718" lon="-3.65444">
        <ele>172.6</ele>
        <time>2021-08-11T12:48:02Z</time>
      </trkpt>
      <trkpt lat="48.05712" lon="-3.65442">
        <ele>172.4</ele>
        <time>2021-08-11T12:48:03Z</time>
      </trkpt>
      <trkpt lat="48.05706" lon="-3.6544">
        <ele>172.2</ele>
        <time>2021-08-11T12:48:04Z</time>
      </trkpt>
      <trkpt lat="48.057" lon="-3.65437">
        <ele>172</ele>
        <time>2021-08-11T12:48:05Z</time>
      </trkpt>
      <trkpt lat="48.05695" lon="-3.65435">
        <ele>171.8</ele>
        <time>2021-08-11T12:48:06Z</time>
      </trkpt>
      <trkpt lat="48.05689" lon="-3.65433">
        <ele>171.6</ele>
        <time>2021-08-11T12:48:07Z</time>
      </trkpt>
      <trkpt lat="48.05684" lon="-3.65431">
        <ele>171.4</ele>
        <time>2021-08-11T12:48:08Z</time>
      </trkpt>
      <trkpt lat="48.05679" lon="-3.6543">
        <ele>171.4</ele>
        <time>2021-08-11T12:48:09Z</time>
      </trkpt>
      <trkpt lat="48.05673" lon="-3.65428">
        <ele>171.2</ele>
        <time>2021-08-11T12:48:10Z</time>
      </trkpt>
      <trkpt lat="48.05668" lon="-3.65427">
        <ele>171.2</ele>
        <time>2021-08-11T12:48:11Z</time>
      </trkpt>
      <trkpt lat="48.05663" lon="-3.65425">
        <ele>171.2</ele>
        <time>2021-08-11T12:48:12Z</time>
      </trkpt>
      <trkpt lat="48.05658" lon="-3.65423">
        <ele>171.2</ele>
        <time>2021-08-11T12:48:13Z</time>
      </trkpt>
      <trkpt lat="48.05653" lon="-3.65422">
        <ele>171.2</ele>
        <time>2021-08-11T12:48:14Z</time>
      </trkpt>
      <trkpt lat="48.05648" lon="-3.6542">
        <ele>171.2</ele>
        <time>2021-08-11T12:48:15Z</time>
      </trkpt>
      <trkpt lat="48.05643" lon="-3.65419">
        <ele>171.2</ele>
        <time>2021-08-11T12:48:16Z</time>
      </trkpt>
      <trkpt lat="48.05638" lon="-3.65418">
        <ele>171.2</ele>
        <time>2021-08-11T12:48:17Z</time>
      </trkpt>
      <trkpt lat="48.05635" lon="-3.65417">
        <ele>171.2</ele>
        <time>2021-08-11T12:48:18Z</time>
      </trkpt>
      <trkpt lat="48.05631" lon="-3.65415">
        <ele>171.2</ele>
        <time>2021-08-11T12:48:19Z</time>
      </trkpt>
      <trkpt lat="48.05627" lon="-3.65414">
        <ele>171.2</ele>
        <time>2021-08-11T12:48:20Z</time>
      </trkpt>
      <trkpt lat="48.05624" lon="-3.65413">
        <ele>171.4</ele>
        <time>2021-08-11T12:48:21Z</time>
      </trkpt>
      <trkpt lat="48.0562" lon="-3.65411">
        <ele>171.4</ele>
        <time>2021-08-11T12:48:22Z</time>
      </trkpt>
      <trkpt lat="48.05616" lon="-3.65411">
        <ele>171.6</ele>
        <time>2021-08-11T12:48:23Z</time>
      </trkpt>
      <trkpt lat="48.05613" lon="-3.6541">
        <ele>171.6</ele>
        <time>2021-08-11T12:48:24Z</time>
      </trkpt>
      <trkpt lat="48.05609" lon="-3.6541">
        <ele>171.6</ele>
        <time>2021-08-11T12:48:25Z</time>
      </trkpt>
      <trkpt lat="48.05605" lon="-3.65409">
        <ele>171.6</ele>
        <time>2021-08-11T12:48:26Z</time>
      </trkpt>
      <trkpt lat="48.05601" lon="-3.65409">
        <ele>171.6</ele>
        <time>2021-08-11T12:48:27Z</time>
      </trkpt>
      <trkpt lat="48.05597" lon="-3.65408">
        <ele>171.8</ele>
        <time>2021-08-11T12:48:28Z</time>
      </trkpt>
      <trkpt lat="48.05593" lon="-3.65407">
        <ele>171.8</ele>
        <time>2021-08-11T12:48:29Z</time>
      </trkpt>
      <trkpt lat="48.05589" lon="-3.65407">
        <ele>172</ele>
        <time>2021-08-11T12:48:30Z</time>
      </trkpt>
      <trkpt lat="48.05584" lon="-3.65406">
        <ele>172.4</ele>
        <time>2021-08-11T12:48:31Z</time>
      </trkpt>
      <trkpt lat="48.0558" lon="-3.65405">
        <ele>172.4</ele>
        <time>2021-08-11T12:48:32Z</time>
      </trkpt>
      <trkpt lat="48.05577" lon="-3.65404">
        <ele>172.8</ele>
        <time>2021-08-11T12:48:33Z</time>
      </trkpt>
      <trkpt lat="48.05573" lon="-3.65401">
        <ele>172.8</ele>
        <time>2021-08-11T12:48:34Z</time>
      </trkpt>
      <trkpt lat="48.05571" lon="-3.65397">
        <ele>173</ele>
        <time>2021-08-11T12:48:35Z</time>
      </trkpt>
      <trkpt lat="48.05569" lon="-3.65393">
        <ele>173</ele>
        <time>2021-08-11T12:48:36Z</time>
      </trkpt>
      <trkpt lat="48.05567" lon="-3.65389">
        <ele>173</ele>
        <time>2021-08-11T12:48:37Z</time>
      </trkpt>
      <trkpt lat="48.05565" lon="-3.65385">
        <ele>173.2</ele>
        <time>2021-08-11T12:48:38Z</time>
      </trkpt>
      <trkpt lat="48.05562" lon="-3.65383">
        <ele>173.2</ele>
        <time>2021-08-11T12:48:39Z</time>
      </trkpt>
      <trkpt lat="48.05559" lon="-3.65382">
        <ele>173.2</ele>
        <time>2021-08-11T12:48:40Z</time>
      </trkpt>
      <trkpt lat="48.05555" lon="-3.65382">
        <ele>173.2</ele>
        <time>2021-08-11T12:48:41Z</time>
      </trkpt>
      <trkpt lat="48.05551" lon="-3.65383">
        <ele>173.4</ele>
        <time>2021-08-11T12:48:42Z</time>
      </trkpt>
      <trkpt lat="48.05547" lon="-3.65384">
        <ele>173.4</ele>
        <time>2021-08-11T12:48:43Z</time>
      </trkpt>
      <trkpt lat="48.05543" lon="-3.65385">
        <ele>173.4</ele>
        <time>2021-08-11T12:48:44Z</time>
      </trkpt>
      <trkpt lat="48.05539" lon="-3.65385">
        <ele>173.4</ele>
        <time>2021-08-11T12:48:45Z</time>
      </trkpt>
      <trkpt lat="48.05534" lon="-3.65385">
        <ele>173.4</ele>
        <time>2021-08-11T12:48:46Z</time>
      </trkpt>
      <trkpt lat="48.05529" lon="-3.65385">
        <ele>173.4</ele>
        <time>2021-08-11T12:48:47Z</time>
      </trkpt>
      <trkpt lat="48.05525" lon="-3.65385">
        <ele>173.4</ele>
        <time>2021-08-11T12:48:48Z</time>
      </trkpt>
      <trkpt lat="48.05521" lon="-3.65386">
        <ele>173.4</ele>
        <time>2021-08-11T12:48:49Z</time>
      </trkpt>
      <trkpt lat="48.05517" lon="-3.65388">
        <ele>173.4</ele>
        <time>2021-08-11T12:48:50Z</time>
      </trkpt>
      <trkpt lat="48.05512" lon="-3.65389">
        <ele>173.4</ele>
        <time>2021-08-11T12:48:51Z</time>
      </trkpt>
      <trkpt lat="48.05508" lon="-3.6539">
        <ele>173.2</ele>
        <time>2021-08-11T12:48:52Z</time>
      </trkpt>
      <trkpt lat="48.05504" lon="-3.65392">
        <ele>173.2</ele>
        <time>2021-08-11T12:48:53Z</time>
      </trkpt>
      <trkpt lat="48.055" lon="-3.65393">
        <ele>173.2</ele>
        <time>2021-08-11T12:48:54Z</time>
      </trkpt>
      <trkpt lat="48.05496" lon="-3.65394">
        <ele>173.2</ele>
        <time>2021-08-11T12:48:55Z</time>
      </trkpt>
      <trkpt lat="48.05492" lon="-3.65395">
        <ele>173.2</ele>
        <time>2021-08-11T12:48:56Z</time>
      </trkpt>
      <trkpt lat="48.05488" lon="-3.65396">
        <ele>173</ele>
        <time>2021-08-11T12:48:57Z</time>
      </trkpt>
      <trkpt lat="48.05483" lon="-3.65398">
        <ele>173</ele>
        <time>2021-08-11T12:48:58Z</time>
      </trkpt>
      <trkpt lat="48.0548" lon="-3.65401">
        <ele>173</ele>
        <time>2021-08-11T12:48:59Z</time>
      </trkpt>
      <trkpt lat="48.05476" lon="-3.65403">
        <ele>172.8</ele>
        <time>2021-08-11T12:49:00Z</time>
      </trkpt>
      <trkpt lat="48.05473" lon="-3.65405">
        <ele>172.8</ele>
        <time>2021-08-11T12:49:01Z</time>
      </trkpt>
      <trkpt lat="48.05469" lon="-3.65407">
        <ele>172.8</ele>
        <time>2021-08-11T12:49:02Z</time>
      </trkpt>
      <trkpt lat="48.05465" lon="-3.65409">
        <ele>172.8</ele>
        <time>2021-08-11T12:49:03Z</time>
      </trkpt>
      <trkpt lat="48.05462" lon="-3.65411">
        <ele>172.8</ele>
        <time>2021-08-11T12:49:04Z</time>
      </trkpt>
      <trkpt lat="48.05458" lon="-3.65413">
        <ele>172.8</ele>
        <time>2021-08-11T12:49:05Z</time>
      </trkpt>
      <trkpt lat="48.05455" lon="-3.65416">
        <ele>172.8</ele>
        <time>2021-08-11T12:49:06Z</time>
      </trkpt>
      <trkpt lat="48.05451" lon="-3.65419">
        <ele>172.8</ele>
        <time>2021-08-11T12:49:07Z</time>
      </trkpt>
      <trkpt lat="48.05447" lon="-3.65423">
        <ele>172.8</ele>
        <time>2021-08-11T12:49:08Z</time>
      </trkpt>
      <trkpt lat="48.05443" lon="-3.65426">
        <ele>172.8</ele>
        <time>2021-08-11T12:49:09Z</time>
      </trkpt>
      <trkpt lat="48.05439" lon="-3.6543">
        <ele>172.8</ele>
        <time>2021-08-11T12:49:10Z</time>
      </trkpt>
      <trkpt lat="48.05435" lon="-3.65435">
        <ele>172.8</ele>
        <time>2021-08-11T12:49:11Z</time>
      </trkpt>
      <trkpt lat="48.05431" lon="-3.65438">
        <ele>172.8</ele>
        <time>2021-08-11T12:49:12Z</time>
      </trkpt>
      <trkpt lat="48.05427" lon="-3.65442">
        <ele>172.8</ele>
        <time>2021-08-11T12:49:13Z</time>
      </trkpt>
      <trkpt lat="48.05424" lon="-3.65446">
        <ele>172.8</ele>
        <time>2021-08-11T12:49:14Z</time>
      </trkpt>
      <trkpt lat="48.05421" lon="-3.65449">
        <ele>172.6</ele>
        <time>2021-08-11T12:49:15Z</time>
      </trkpt>
      <trkpt lat="48.05418" lon="-3.65453">
        <ele>172.6</ele>
        <time>2021-08-11T12:49:16Z</time>
      </trkpt>
      <trkpt lat="48.05415" lon="-3.65456">
        <ele>172.6</ele>
        <time>2021-08-11T12:49:17Z</time>
      </trkpt>
      <trkpt lat="48.05412" lon="-3.6546">
        <ele>172.6</ele>
        <time>2021-08-11T12:49:18Z</time>
      </trkpt>
      <trkpt lat="48.05409" lon="-3.65464">
        <ele>172.6</ele>
        <time>2021-08-11T12:49:19Z</time>
      </trkpt>
      <trkpt lat="48.05406" lon="-3.65468">
        <ele>172.6</ele>
        <time>2021-08-11T12:49:20Z</time>
      </trkpt>
      <trkpt lat="48.05403" lon="-3.65472">
        <ele>172.6</ele>
        <time>2021-08-11T12:49:21Z</time>
      </trkpt>
      <trkpt lat="48.054" lon="-3.65475">
        <ele>172.4</ele>
        <time>2021-08-11T12:49:22Z</time>
      </trkpt>
      <trkpt lat="48.05397" lon="-3.65479">
        <ele>172.4</ele>
        <time>2021-08-11T12:49:23Z</time>
      </trkpt>
      <trkpt lat="48.05394" lon="-3.65484">
        <ele>172.4</ele>
        <time>2021-08-11T12:49:24Z</time>
      </trkpt>
      <trkpt lat="48.0539" lon="-3.65488">
        <ele>172.4</ele>
        <time>2021-08-11T12:49:25Z</time>
      </trkpt>
      <trkpt lat="48.05387" lon="-3.65493">
        <ele>172.4</ele>
        <time>2021-08-11T12:49:26Z</time>
      </trkpt>
      <trkpt lat="48.05383" lon="-3.65498">
        <ele>172.4</ele>
        <time>2021-08-11T12:49:27Z</time>
      </trkpt>
      <trkpt lat="48.05379" lon="-3.65503">
        <ele>172.4</ele>
        <time>2021-08-11T12:49:28Z</time>
      </trkpt>
      <trkpt lat="48.05375" lon="-3.65509">
        <ele>172.2</ele>
        <time>2021-08-11T12:49:29Z</time>
      </trkpt>
      <trkpt lat="48.05372" lon="-3.65514">
        <ele>172.2</ele>
        <time>2021-08-11T12:49:30Z</time>
      </trkpt>
      <trkpt lat="48.05368" lon="-3.65519">
        <ele>172.2</ele>
        <time>2021-08-11T12:49:31Z</time>
      </trkpt>
      <trkpt lat="48.05365" lon="-3.65525">
        <ele>172</ele>
        <time>2021-08-11T12:49:32Z</time>
      </trkpt>
      <trkpt lat="48.05361" lon="-3.65529">
        <ele>171.8</ele>
        <time>2021-08-11T12:49:33Z</time>
      </trkpt>
      <trkpt lat="48.05358" lon="-3.65533">
        <ele>171.8</ele>
        <time>2021-08-11T12:49:34Z</time>
      </trkpt>
      <trkpt lat="48.05354" lon="-3.65538">
        <ele>171.6</ele>
        <time>2021-08-11T12:49:35Z</time>
      </trkpt>
      <trkpt lat="48.0535" lon="-3.65544">
        <ele>171.4</ele>
        <time>2021-08-11T12:49:36Z</time>
      </trkpt>
      <trkpt lat="48.05347" lon="-3.65549">
        <ele>171.2</ele>
        <time>2021-08-11T12:49:37Z</time>
      </trkpt>
      <trkpt lat="48.05343" lon="-3.65554">
        <ele>171.2</ele>
        <time>2021-08-11T12:49:38Z</time>
      </trkpt>
      <trkpt lat="48.05339" lon="-3.6556">
        <ele>171</ele>
        <time>2021-08-11T12:49:39Z</time>
      </trkpt>
      <trkpt lat="48.05334" lon="-3.65566">
        <ele>171</ele>
        <time>2021-08-11T12:49:40Z</time>
      </trkpt>
      <trkpt lat="48.0533" lon="-3.65572">
        <ele>170.8</ele>
        <time>2021-08-11T12:49:41Z</time>
      </trkpt>
      <trkpt lat="48.05326" lon="-3.65578">
        <ele>170.8</ele>
        <time>2021-08-11T12:49:42Z</time>
      </trkpt>
      <trkpt lat="48.05322" lon="-3.65584">
        <ele>170.8</ele>
        <time>2021-08-11T12:49:43Z</time>
      </trkpt>
      <trkpt lat="48.05318" lon="-3.6559">
        <ele>170.6</ele>
        <time>2021-08-11T12:49:44Z</time>
      </trkpt>
      <trkpt lat="48.05314" lon="-3.65595">
        <ele>170.6</ele>
        <time>2021-08-11T12:49:45Z</time>
      </trkpt>
      <trkpt lat="48.0531" lon="-3.65601">
        <ele>170.4</ele>
        <time>2021-08-11T12:49:46Z</time>
      </trkpt>
      <trkpt lat="48.05305" lon="-3.65606">
        <ele>170.4</ele>
        <time>2021-08-11T12:49:47Z</time>
      </trkpt>
      <trkpt lat="48.05301" lon="-3.65611">
        <ele>170.4</ele>
        <time>2021-08-11T12:49:48Z</time>
      </trkpt>
      <trkpt lat="48.05297" lon="-3.65615">
        <ele>170.4</ele>
        <time>2021-08-11T12:49:49Z</time>
      </trkpt>
      <trkpt lat="48.05293" lon="-3.6562">
        <ele>170.2</ele>
        <time>2021-08-11T12:49:50Z</time>
      </trkpt>
      <trkpt lat="48.05291" lon="-3.65624">
        <ele>170</ele>
        <time>2021-08-11T12:49:51Z</time>
      </trkpt>
      <trkpt lat="48.05288" lon="-3.65628">
        <ele>169.8</ele>
        <time>2021-08-11T12:49:52Z</time>
      </trkpt>
      <trkpt lat="48.05286" lon="-3.65633">
        <ele>169.8</ele>
        <time>2021-08-11T12:49:53Z</time>
      </trkpt>
      <trkpt lat="48.05284" lon="-3.65637">
        <ele>169.8</ele>
        <time>2021-08-11T12:49:54Z</time>
      </trkpt>
      <trkpt lat="48.05281" lon="-3.65642">
        <ele>169.6</ele>
        <time>2021-08-11T12:49:55Z</time>
      </trkpt>
      <trkpt lat="48.05277" lon="-3.65646">
        <ele>169.6</ele>
        <time>2021-08-11T12:49:56Z</time>
      </trkpt>
      <trkpt lat="48.05274" lon="-3.65651">
        <ele>169.6</ele>
        <time>2021-08-11T12:49:57Z</time>
      </trkpt>
      <trkpt lat="48.05271" lon="-3.65657">
        <ele>169.6</ele>
        <time>2021-08-11T12:49:58Z</time>
      </trkpt>
      <trkpt lat="48.05268" lon="-3.65663">
        <ele>169.6</ele>
        <time>2021-08-11T12:49:59Z</time>
      </trkpt>
      <trkpt lat="48.05265" lon="-3.65668">
        <ele>169.6</ele>
        <time>2021-08-11T12:50:00Z</time>
      </trkpt>
      <trkpt lat="48.05262" lon="-3.65674">
        <ele>169.6</ele>
        <time>2021-08-11T12:50:01Z</time>
      </trkpt>
      <trkpt lat="48.05258" lon="-3.65679">
        <ele>169.4</ele>
        <time>2021-08-11T12:50:02Z</time>
      </trkpt>
      <trkpt lat="48.05255" lon="-3.65684">
        <ele>169.4</ele>
        <time>2021-08-11T12:50:03Z</time>
      </trkpt>
      <trkpt lat="48.05252" lon="-3.65689">
        <ele>169.4</ele>
        <time>2021-08-11T12:50:04Z</time>
      </trkpt>
      <trkpt lat="48.05248" lon="-3.65695">
        <ele>169.2</ele>
        <time>2021-08-11T12:50:05Z</time>
      </trkpt>
      <trkpt lat="48.05245" lon="-3.65701">
        <ele>169</ele>
        <time>2021-08-11T12:50:06Z</time>
      </trkpt>
      <trkpt lat="48.05241" lon="-3.65708">
        <ele>168.8</ele>
        <time>2021-08-11T12:50:07Z</time>
      </trkpt>
      <trkpt lat="48.05237" lon="-3.65713">
        <ele>168.6</ele>
        <time>2021-08-11T12:50:08Z</time>
      </trkpt>
      <trkpt lat="48.05233" lon="-3.65719">
        <ele>168.6</ele>
        <time>2021-08-11T12:50:09Z</time>
      </trkpt>
      <trkpt lat="48.0523" lon="-3.65724">
        <ele>168</ele>
        <time>2021-08-11T12:50:10Z</time>
      </trkpt>
      <trkpt lat="48.05226" lon="-3.65728">
        <ele>167.8</ele>
        <time>2021-08-11T12:50:11Z</time>
      </trkpt>
      <trkpt lat="48.05222" lon="-3.65734">
        <ele>167.6</ele>
        <time>2021-08-11T12:50:12Z</time>
      </trkpt>
      <trkpt lat="48.05218" lon="-3.6574">
        <ele>167.6</ele>
        <time>2021-08-11T12:50:13Z</time>
      </trkpt>
      <trkpt lat="48.05213" lon="-3.65747">
        <ele>167.4</ele>
        <time>2021-08-11T12:50:14Z</time>
      </trkpt>
      <trkpt lat="48.05208" lon="-3.65753">
        <ele>167.2</ele>
        <time>2021-08-11T12:50:15Z</time>
      </trkpt>
      <trkpt lat="48.05204" lon="-3.6576">
        <ele>166.8</ele>
        <time>2021-08-11T12:50:16Z</time>
      </trkpt>
      <trkpt lat="48.05199" lon="-3.65766">
        <ele>166.6</ele>
        <time>2021-08-11T12:50:17Z</time>
      </trkpt>
      <trkpt lat="48.05195" lon="-3.65773">
        <ele>166.6</ele>
        <time>2021-08-11T12:50:18Z</time>
      </trkpt>
      <trkpt lat="48.0519" lon="-3.6578">
        <ele>166.4</ele>
        <time>2021-08-11T12:50:19Z</time>
      </trkpt>
      <trkpt lat="48.05185" lon="-3.65786">
        <ele>166.2</ele>
        <time>2021-08-11T12:50:20Z</time>
      </trkpt>
      <trkpt lat="48.05181" lon="-3.65793">
        <ele>166.2</ele>
        <time>2021-08-11T12:50:21Z</time>
      </trkpt>
      <trkpt lat="48.05176" lon="-3.65799">
        <ele>165.8</ele>
        <time>2021-08-11T12:50:22Z</time>
      </trkpt>
      <trkpt lat="48.05171" lon="-3.65806">
        <ele>165.6</ele>
        <time>2021-08-11T12:50:23Z</time>
      </trkpt>
      <trkpt lat="48.05166" lon="-3.65813">
        <ele>165.4</ele>
        <time>2021-08-11T12:50:24Z</time>
      </trkpt>
      <trkpt lat="48.05162" lon="-3.65821">
        <ele>165.2</ele>
        <time>2021-08-11T12:50:25Z</time>
      </trkpt>
      <trkpt lat="48.05156" lon="-3.65828">
        <ele>165.2</ele>
        <time>2021-08-11T12:50:26Z</time>
      </trkpt>
      <trkpt lat="48.05151" lon="-3.65835">
        <ele>165</ele>
        <time>2021-08-11T12:50:27Z</time>
      </trkpt>
      <trkpt lat="48.05146" lon="-3.65842">
        <ele>165</ele>
        <time>2021-08-11T12:50:28Z</time>
      </trkpt>
      <trkpt lat="48.05141" lon="-3.6585">
        <ele>164.8</ele>
        <time>2021-08-11T12:50:29Z</time>
      </trkpt>
      <trkpt lat="48.05136" lon="-3.65857">
        <ele>164.6</ele>
        <time>2021-08-11T12:50:30Z</time>
      </trkpt>
      <trkpt lat="48.05131" lon="-3.65864">
        <ele>164.2</ele>
        <time>2021-08-11T12:50:31Z</time>
      </trkpt>
      <trkpt lat="48.05126" lon="-3.65871">
        <ele>164</ele>
        <time>2021-08-11T12:50:32Z</time>
      </trkpt>
      <trkpt lat="48.05121" lon="-3.65878">
        <ele>163.8</ele>
        <time>2021-08-11T12:50:33Z</time>
      </trkpt>
      <trkpt lat="48.05116" lon="-3.65886">
        <ele>163.6</ele>
        <time>2021-08-11T12:50:34Z</time>
      </trkpt>
      <trkpt lat="48.05111" lon="-3.65893">
        <ele>163.4</ele>
        <time>2021-08-11T12:50:35Z</time>
      </trkpt>
      <trkpt lat="48.05106" lon="-3.65899">
        <ele>163</ele>
        <time>2021-08-11T12:50:36Z</time>
      </trkpt>
      <trkpt lat="48.05102" lon="-3.65906">
        <ele>163</ele>
        <time>2021-08-11T12:50:37Z</time>
      </trkpt>
      <trkpt lat="48.05097" lon="-3.65912">
        <ele>162.8</ele>
        <time>2021-08-11T12:50:38Z</time>
      </trkpt>
      <trkpt lat="48.05092" lon="-3.65918">
        <ele>162.8</ele>
        <time>2021-08-11T12:50:39Z</time>
      </trkpt>
      <trkpt lat="48.05087" lon="-3.65925">
        <ele>162.8</ele>
        <time>2021-08-11T12:50:40Z</time>
      </trkpt>
      <trkpt lat="48.05083" lon="-3.65931">
        <ele>162.6</ele>
        <time>2021-08-11T12:50:41Z</time>
      </trkpt>
      <trkpt lat="48.05078" lon="-3.65938">
        <ele>162.6</ele>
        <time>2021-08-11T12:50:42Z</time>
      </trkpt>
      <trkpt lat="48.05073" lon="-3.65944">
        <ele>162.4</ele>
        <time>2021-08-11T12:50:43Z</time>
      </trkpt>
      <trkpt lat="48.05069" lon="-3.65951">
        <ele>162.4</ele>
        <time>2021-08-11T12:50:44Z</time>
      </trkpt>
      <trkpt lat="48.05064" lon="-3.65958">
        <ele>162.2</ele>
        <time>2021-08-11T12:50:45Z</time>
      </trkpt>
      <trkpt lat="48.05059" lon="-3.65964">
        <ele>162</ele>
        <time>2021-08-11T12:50:46Z</time>
      </trkpt>
      <trkpt lat="48.05054" lon="-3.65971">
        <ele>162</ele>
        <time>2021-08-11T12:50:47Z</time>
      </trkpt>
      <trkpt lat="48.05049" lon="-3.65978">
        <ele>161.8</ele>
        <time>2021-08-11T12:50:48Z</time>
      </trkpt>
      <trkpt lat="48.05045" lon="-3.65984">
        <ele>161.8</ele>
        <time>2021-08-11T12:50:49Z</time>
      </trkpt>
      <trkpt lat="48.0504" lon="-3.65991">
        <ele>161.8</ele>
        <time>2021-08-11T12:50:50Z</time>
      </trkpt>
      <trkpt lat="48.05036" lon="-3.65997">
        <ele>161.6</ele>
        <time>2021-08-11T12:50:51Z</time>
      </trkpt>
      <trkpt lat="48.05031" lon="-3.66003">
        <ele>161.4</ele>
        <time>2021-08-11T12:50:52Z</time>
      </trkpt>
      <trkpt lat="48.05026" lon="-3.66009">
        <ele>161.4</ele>
        <time>2021-08-11T12:50:53Z</time>
      </trkpt>
      <trkpt lat="48.05022" lon="-3.66015">
        <ele>161.2</ele>
        <time>2021-08-11T12:50:54Z</time>
      </trkpt>
      <trkpt lat="48.05018" lon="-3.66021">
        <ele>161.2</ele>
        <time>2021-08-11T12:50:55Z</time>
      </trkpt>
      <trkpt lat="48.05014" lon="-3.66027">
        <ele>161.2</ele>
        <time>2021-08-11T12:50:56Z</time>
      </trkpt>
      <trkpt lat="48.0501" lon="-3.66033">
        <ele>161</ele>
        <time>2021-08-11T12:50:57Z</time>
      </trkpt>
      <trkpt lat="48.05006" lon="-3.66039">
        <ele>161</ele>
        <time>2021-08-11T12:50:58Z</time>
      </trkpt>
      <trkpt lat="48.05001" lon="-3.66045">
        <ele>161</ele>
        <time>2021-08-11T12:50:59Z</time>
      </trkpt>
      <trkpt lat="48.04997" lon="-3.66051">
        <ele>161</ele>
        <time>2021-08-11T12:51:00Z</time>
      </trkpt>
      <trkpt lat="48.04993" lon="-3.66057">
        <ele>161</ele>
        <time>2021-08-11T12:51:01Z</time>
      </trkpt>
      <trkpt lat="48.04989" lon="-3.66063">
        <ele>161</ele>
        <time>2021-08-11T12:51:02Z</time>
      </trkpt>
      <trkpt lat="48.04984" lon="-3.66069">
        <ele>161.2</ele>
        <time>2021-08-11T12:51:03Z</time>
      </trkpt>
      <trkpt lat="48.0498" lon="-3.66075">
        <ele>161.2</ele>
        <time>2021-08-11T12:51:04Z</time>
      </trkpt>
      <trkpt lat="48.04976" lon="-3.66082">
        <ele>161.2</ele>
        <time>2021-08-11T12:51:05Z</time>
      </trkpt>
      <trkpt lat="48.04972" lon="-3.66088">
        <ele>161.2</ele>
        <time>2021-08-11T12:51:06Z</time>
      </trkpt>
      <trkpt lat="48.04968" lon="-3.66094">
        <ele>161.2</ele>
        <time>2021-08-11T12:51:07Z</time>
      </trkpt>
      <trkpt lat="48.04963" lon="-3.66101">
        <ele>161.2</ele>
        <time>2021-08-11T12:51:08Z</time>
      </trkpt>
      <trkpt lat="48.04959" lon="-3.66107">
        <ele>161.2</ele>
        <time>2021-08-11T12:51:09Z</time>
      </trkpt>
      <trkpt lat="48.04955" lon="-3.66113">
        <ele>161.2</ele>
        <time>2021-08-11T12:51:10Z</time>
      </trkpt>
      <trkpt lat="48.04951" lon="-3.66119">
        <ele>161.2</ele>
        <time>2021-08-11T12:51:11Z</time>
      </trkpt>
      <trkpt lat="48.04946" lon="-3.66125">
        <ele>161.2</ele>
        <time>2021-08-11T12:51:12Z</time>
      </trkpt>
      <trkpt lat="48.04942" lon="-3.66131">
        <ele>161.2</ele>
        <time>2021-08-11T12:51:13Z</time>
      </trkpt>
      <trkpt lat="48.04939" lon="-3.66138">
        <ele>161.2</ele>
        <time>2021-08-11T12:51:14Z</time>
      </trkpt>
      <trkpt lat="48.04935" lon="-3.66144">
        <ele>161.2</ele>
        <time>2021-08-11T12:51:15Z</time>
      </trkpt>
      <trkpt lat="48.04931" lon="-3.6615">
        <ele>161.2</ele>
        <time>2021-08-11T12:51:16Z</time>
      </trkpt>
      <trkpt lat="48.04927" lon="-3.66156">
        <ele>161.2</ele>
        <time>2021-08-11T12:51:17Z</time>
      </trkpt>
      <trkpt lat="48.04922" lon="-3.66162">
        <ele>161.2</ele>
        <time>2021-08-11T12:51:18Z</time>
      </trkpt>
      <trkpt lat="48.04918" lon="-3.66169">
        <ele>161</ele>
        <time>2021-08-11T12:51:19Z</time>
      </trkpt>
      <trkpt lat="48.04914" lon="-3.66175">
        <ele>161</ele>
        <time>2021-08-11T12:51:20Z</time>
      </trkpt>
      <trkpt lat="48.04909" lon="-3.66181">
        <ele>161</ele>
        <time>2021-08-11T12:51:21Z</time>
      </trkpt>
      <trkpt lat="48.04905" lon="-3.66188">
        <ele>160.8</ele>
        <time>2021-08-11T12:51:22Z</time>
      </trkpt>
      <trkpt lat="48.049" lon="-3.66194">
        <ele>160.8</ele>
        <time>2021-08-11T12:51:23Z</time>
      </trkpt>
      <trkpt lat="48.04896" lon="-3.66201">
        <ele>160.8</ele>
        <time>2021-08-11T12:51:24Z</time>
      </trkpt>
      <trkpt lat="48.04892" lon="-3.66207">
        <ele>160.6</ele>
        <time>2021-08-11T12:51:25Z</time>
      </trkpt>
      <trkpt lat="48.04887" lon="-3.66213">
        <ele>160.6</ele>
        <time>2021-08-11T12:51:26Z</time>
      </trkpt>
      <trkpt lat="48.04883" lon="-3.66219">
        <ele>160.6</ele>
        <time>2021-08-11T12:51:27Z</time>
      </trkpt>
      <trkpt lat="48.04879" lon="-3.66226">
        <ele>160.6</ele>
        <time>2021-08-11T12:51:28Z</time>
      </trkpt>
      <trkpt lat="48.04875" lon="-3.66232">
        <ele>160.4</ele>
        <time>2021-08-11T12:51:29Z</time>
      </trkpt>
      <trkpt lat="48.04871" lon="-3.66238">
        <ele>160.4</ele>
        <time>2021-08-11T12:51:30Z</time>
      </trkpt>
      <trkpt lat="48.04867" lon="-3.66244">
        <ele>160.4</ele>
        <time>2021-08-11T12:51:31Z</time>
      </trkpt>
      <trkpt lat="48.04862" lon="-3.66251">
        <ele>160.4</ele>
        <time>2021-08-11T12:51:32Z</time>
      </trkpt>
      <trkpt lat="48.04858" lon="-3.66257">
        <ele>160.4</ele>
        <time>2021-08-11T12:51:33Z</time>
      </trkpt>
      <trkpt lat="48.04854" lon="-3.66263">
        <ele>160.4</ele>
        <time>2021-08-11T12:51:34Z</time>
      </trkpt>
      <trkpt lat="48.0485" lon="-3.66268">
        <ele>160.2</ele>
        <time>2021-08-11T12:51:35Z</time>
      </trkpt>
      <trkpt lat="48.04845" lon="-3.66275">
        <ele>160.2</ele>
        <time>2021-08-11T12:51:36Z</time>
      </trkpt>
      <trkpt lat="48.04841" lon="-3.66281">
        <ele>160.2</ele>
        <time>2021-08-11T12:51:37Z</time>
      </trkpt>
      <trkpt lat="48.04837" lon="-3.66286">
        <ele>160.2</ele>
        <time>2021-08-11T12:51:38Z</time>
      </trkpt>
      <trkpt lat="48.04832" lon="-3.66291">
        <ele>160.2</ele>
        <time>2021-08-11T12:51:39Z</time>
      </trkpt>
      <trkpt lat="48.04828" lon="-3.66297">
        <ele>160.2</ele>
        <time>2021-08-11T12:51:40Z</time>
      </trkpt>
      <trkpt lat="48.04824" lon="-3.66303">
        <ele>160.2</ele>
        <time>2021-08-11T12:51:41Z</time>
      </trkpt>
      <trkpt lat="48.0482" lon="-3.66309">
        <ele>160.2</ele>
        <time>2021-08-11T12:51:42Z</time>
      </trkpt>
      <trkpt lat="48.04815" lon="-3.66315">
        <ele>160.2</ele>
        <time>2021-08-11T12:51:43Z</time>
      </trkpt>
      <trkpt lat="48.04811" lon="-3.66321">
        <ele>160</ele>
        <time>2021-08-11T12:51:44Z</time>
      </trkpt>
      <trkpt lat="48.04807" lon="-3.66327">
        <ele>160</ele>
        <time>2021-08-11T12:51:45Z</time>
      </trkpt>
      <trkpt lat="48.04802" lon="-3.66333">
        <ele>160</ele>
        <time>2021-08-11T12:51:46Z</time>
      </trkpt>
      <trkpt lat="48.04798" lon="-3.6634">
        <ele>160</ele>
        <time>2021-08-11T12:51:47Z</time>
      </trkpt>
      <trkpt lat="48.04794" lon="-3.66346">
        <ele>160</ele>
        <time>2021-08-11T12:51:48Z</time>
      </trkpt>
      <trkpt lat="48.0479" lon="-3.66352">
        <ele>159.8</ele>
        <time>2021-08-11T12:51:49Z</time>
      </trkpt>
      <trkpt lat="48.04785" lon="-3.66358">
        <ele>159.8</ele>
        <time>2021-08-11T12:51:50Z</time>
      </trkpt>
      <trkpt lat="48.04781" lon="-3.66364">
        <ele>159.6</ele>
        <time>2021-08-11T12:51:51Z</time>
      </trkpt>
      <trkpt lat="48.04777" lon="-3.6637">
        <ele>159.6</ele>
        <time>2021-08-11T12:51:52Z</time>
      </trkpt>
      <trkpt lat="48.04772" lon="-3.66376">
        <ele>159.4</ele>
        <time>2021-08-11T12:51:53Z</time>
      </trkpt>
      <trkpt lat="48.04768" lon="-3.66382">
        <ele>159.4</ele>
        <time>2021-08-11T12:51:54Z</time>
      </trkpt>
      <trkpt lat="48.04764" lon="-3.66388">
        <ele>159.4</ele>
        <time>2021-08-11T12:51:55Z</time>
      </trkpt>
      <trkpt lat="48.04759" lon="-3.66394">
        <ele>159.2</ele>
        <time>2021-08-11T12:51:56Z</time>
      </trkpt>
      <trkpt lat="48.04755" lon="-3.664">
        <ele>159.2</ele>
        <time>2021-08-11T12:51:57Z</time>
      </trkpt>
      <trkpt lat="48.04751" lon="-3.66406">
        <ele>159.2</ele>
        <time>2021-08-11T12:51:58Z</time>
      </trkpt>
      <trkpt lat="48.04746" lon="-3.66412">
        <ele>159.2</ele>
        <time>2021-08-11T12:51:59Z</time>
      </trkpt>
      <trkpt lat="48.04742" lon="-3.66418">
        <ele>159.2</ele>
        <time>2021-08-11T12:52:00Z</time>
      </trkpt>
      <trkpt lat="48.04739" lon="-3.66423">
        <ele>159</ele>
        <time>2021-08-11T12:52:01Z</time>
      </trkpt>
      <trkpt lat="48.04735" lon="-3.66429">
        <ele>159</ele>
        <time>2021-08-11T12:52:02Z</time>
      </trkpt>
      <trkpt lat="48.04731" lon="-3.66435">
        <ele>158.8</ele>
        <time>2021-08-11T12:52:03Z</time>
      </trkpt>
      <trkpt lat="48.04726" lon="-3.6644">
        <ele>158.8</ele>
        <time>2021-08-11T12:52:04Z</time>
      </trkpt>
      <trkpt lat="48.04722" lon="-3.66446">
        <ele>158.6</ele>
        <time>2021-08-11T12:52:05Z</time>
      </trkpt>
      <trkpt lat="48.04719" lon="-3.66451">
        <ele>158.4</ele>
        <time>2021-08-11T12:52:06Z</time>
      </trkpt>
      <trkpt lat="48.04715" lon="-3.66457">
        <ele>158.2</ele>
        <time>2021-08-11T12:52:07Z</time>
      </trkpt>
      <trkpt lat="48.04711" lon="-3.66462">
        <ele>158</ele>
        <time>2021-08-11T12:52:08Z</time>
      </trkpt>
      <trkpt lat="48.04707" lon="-3.66468">
        <ele>157.8</ele>
        <time>2021-08-11T12:52:09Z</time>
      </trkpt>
      <trkpt lat="48.04703" lon="-3.66473">
        <ele>157.8</ele>
        <time>2021-08-11T12:52:10Z</time>
      </trkpt>
      <trkpt lat="48.04699" lon="-3.66479">
        <ele>157.6</ele>
        <time>2021-08-11T12:52:11Z</time>
      </trkpt>
      <trkpt lat="48.04696" lon="-3.66484">
        <ele>157.6</ele>
        <time>2021-08-11T12:52:12Z</time>
      </trkpt>
      <trkpt lat="48.04692" lon="-3.66489">
        <ele>157.6</ele>
        <time>2021-08-11T12:52:13Z</time>
      </trkpt>
      <trkpt lat="48.04689" lon="-3.66495">
        <ele>157.6</ele>
        <time>2021-08-11T12:52:14Z</time>
      </trkpt>
      <trkpt lat="48.04685" lon="-3.665">
        <ele>157.4</ele>
        <time>2021-08-11T12:52:15Z</time>
      </trkpt>
      <trkpt lat="48.04681" lon="-3.66506">
        <ele>157.4</ele>
        <time>2021-08-11T12:52:16Z</time>
      </trkpt>
      <trkpt lat="48.04678" lon="-3.66512">
        <ele>157.2</ele>
        <time>2021-08-11T12:52:17Z</time>
      </trkpt>
      <trkpt lat="48.04674" lon="-3.66518">
        <ele>157.2</ele>
        <time>2021-08-11T12:52:18Z</time>
      </trkpt>
      <trkpt lat="48.0467" lon="-3.66523">
        <ele>157.2</ele>
        <time>2021-08-11T12:52:19Z</time>
      </trkpt>
      <trkpt lat="48.04666" lon="-3.66529">
        <ele>157.2</ele>
        <time>2021-08-11T12:52:20Z</time>
      </trkpt>
      <trkpt lat="48.04662" lon="-3.66535">
        <ele>157</ele>
        <time>2021-08-11T12:52:21Z</time>
      </trkpt>
      <trkpt lat="48.04659" lon="-3.66541">
        <ele>157</ele>
        <time>2021-08-11T12:52:22Z</time>
      </trkpt>
      <trkpt lat="48.04655" lon="-3.66547">
        <ele>157</ele>
        <time>2021-08-11T12:52:23Z</time>
      </trkpt>
      <trkpt lat="48.04651" lon="-3.66553">
        <ele>156.8</ele>
        <time>2021-08-11T12:52:24Z</time>
      </trkpt>
      <trkpt lat="48.04647" lon="-3.6656">
        <ele>156.4</ele>
        <time>2021-08-11T12:52:25Z</time>
      </trkpt>
      <trkpt lat="48.04643" lon="-3.66566">
        <ele>156.2</ele>
        <time>2021-08-11T12:52:26Z</time>
      </trkpt>
      <trkpt lat="48.04639" lon="-3.66572">
        <ele>156</ele>
        <time>2021-08-11T12:52:27Z</time>
      </trkpt>
      <trkpt lat="48.04634" lon="-3.66578">
        <ele>156</ele>
        <time>2021-08-11T12:52:28Z</time>
      </trkpt>
      <trkpt lat="48.0463" lon="-3.66585">
        <ele>156</ele>
        <time>2021-08-11T12:52:29Z</time>
      </trkpt>
      <trkpt lat="48.04626" lon="-3.66591">
        <ele>155.8</ele>
        <time>2021-08-11T12:52:30Z</time>
      </trkpt>
      <trkpt lat="48.04621" lon="-3.66598">
        <ele>155.6</ele>
        <time>2021-08-11T12:52:31Z</time>
      </trkpt>
      <trkpt lat="48.04617" lon="-3.66605">
        <ele>155.6</ele>
        <time>2021-08-11T12:52:32Z</time>
      </trkpt>
      <trkpt lat="48.04613" lon="-3.66612">
        <ele>155.4</ele>
        <time>2021-08-11T12:52:33Z</time>
      </trkpt>
      <trkpt lat="48.04608" lon="-3.66619">
        <ele>155.2</ele>
        <time>2021-08-11T12:52:34Z</time>
      </trkpt>
      <trkpt lat="48.04603" lon="-3.66626">
        <ele>155.2</ele>
        <time>2021-08-11T12:52:35Z</time>
      </trkpt>
      <trkpt lat="48.04599" lon="-3.66632">
        <ele>155</ele>
        <time>2021-08-11T12:52:36Z</time>
      </trkpt>
      <trkpt lat="48.04594" lon="-3.66638">
        <ele>155</ele>
        <time>2021-08-11T12:52:37Z</time>
      </trkpt>
      <trkpt lat="48.04589" lon="-3.66644">
        <ele>154.8</ele>
        <time>2021-08-11T12:52:38Z</time>
      </trkpt>
      <trkpt lat="48.04584" lon="-3.66651">
        <ele>154.8</ele>
        <time>2021-08-11T12:52:39Z</time>
      </trkpt>
      <trkpt lat="48.0458" lon="-3.66658">
        <ele>154.8</ele>
        <time>2021-08-11T12:52:40Z</time>
      </trkpt>
      <trkpt lat="48.04575" lon="-3.66665">
        <ele>154.8</ele>
        <time>2021-08-11T12:52:41Z</time>
      </trkpt>
      <trkpt lat="48.0457" lon="-3.66672">
        <ele>154.6</ele>
        <time>2021-08-11T12:52:42Z</time>
      </trkpt>
      <trkpt lat="48.04565" lon="-3.66678">
        <ele>154.6</ele>
        <time>2021-08-11T12:52:43Z</time>
      </trkpt>
      <trkpt lat="48.0456" lon="-3.66685">
        <ele>154.6</ele>
        <time>2021-08-11T12:52:44Z</time>
      </trkpt>
      <trkpt lat="48.04556" lon="-3.66691">
        <ele>154.4</ele>
        <time>2021-08-11T12:52:45Z</time>
      </trkpt>
      <trkpt lat="48.04552" lon="-3.66697">
        <ele>154.4</ele>
        <time>2021-08-11T12:52:46Z</time>
      </trkpt>
      <trkpt lat="48.04547" lon="-3.66704">
        <ele>154.2</ele>
        <time>2021-08-11T12:52:47Z</time>
      </trkpt>
      <trkpt lat="48.04542" lon="-3.66711">
        <ele>154</ele>
        <time>2021-08-11T12:52:48Z</time>
      </trkpt>
      <trkpt lat="48.04537" lon="-3.66717">
        <ele>154</ele>
        <time>2021-08-11T12:52:49Z</time>
      </trkpt>
      <trkpt lat="48.04532" lon="-3.66724">
        <ele>153.8</ele>
        <time>2021-08-11T12:52:50Z</time>
      </trkpt>
      <trkpt lat="48.04528" lon="-3.6673">
        <ele>153.8</ele>
        <time>2021-08-11T12:52:51Z</time>
      </trkpt>
      <trkpt lat="48.04523" lon="-3.66737">
        <ele>153.6</ele>
        <time>2021-08-11T12:52:52Z</time>
      </trkpt>
      <trkpt lat="48.04518" lon="-3.66743">
        <ele>153.4</ele>
        <time>2021-08-11T12:52:53Z</time>
      </trkpt>
      <trkpt lat="48.04514" lon="-3.66749">
        <ele>153.4</ele>
        <time>2021-08-11T12:52:54Z</time>
      </trkpt>
      <trkpt lat="48.0451" lon="-3.66756">
        <ele>153.4</ele>
        <time>2021-08-11T12:52:55Z</time>
      </trkpt>
      <trkpt lat="48.04505" lon="-3.66763">
        <ele>153.4</ele>
        <time>2021-08-11T12:52:56Z</time>
      </trkpt>
      <trkpt lat="48.045" lon="-3.66769">
        <ele>153.4</ele>
        <time>2021-08-11T12:52:57Z</time>
      </trkpt>
      <trkpt lat="48.04496" lon="-3.66776">
        <ele>153.4</ele>
        <time>2021-08-11T12:52:58Z</time>
      </trkpt>
      <trkpt lat="48.04491" lon="-3.66783">
        <ele>153.4</ele>
        <time>2021-08-11T12:52:59Z</time>
      </trkpt>
      <trkpt lat="48.04487" lon="-3.6679">
        <ele>153.4</ele>
        <time>2021-08-11T12:53:00Z</time>
      </trkpt>
      <trkpt lat="48.04482" lon="-3.66796">
        <ele>153.4</ele>
        <time>2021-08-11T12:53:01Z</time>
      </trkpt>
      <trkpt lat="48.04478" lon="-3.66803">
        <ele>153.4</ele>
        <time>2021-08-11T12:53:02Z</time>
      </trkpt>
      <trkpt lat="48.04474" lon="-3.66809">
        <ele>153.4</ele>
        <time>2021-08-11T12:53:03Z</time>
      </trkpt>
      <trkpt lat="48.0447" lon="-3.66813">
        <ele>153.4</ele>
        <time>2021-08-11T12:53:04Z</time>
      </trkpt>
      <trkpt lat="48.04467" lon="-3.66818">
        <ele>153.2</ele>
        <time>2021-08-11T12:53:05Z</time>
      </trkpt>
      <trkpt lat="48.04463" lon="-3.66823">
        <ele>153.2</ele>
        <time>2021-08-11T12:53:06Z</time>
      </trkpt>
      <trkpt lat="48.04459" lon="-3.66829">
        <ele>153.2</ele>
        <time>2021-08-11T12:53:07Z</time>
      </trkpt>
      <trkpt lat="48.04455" lon="-3.66834">
        <ele>153.2</ele>
        <time>2021-08-11T12:53:08Z</time>
      </trkpt>
      <trkpt lat="48.0445" lon="-3.6684">
        <ele>153.2</ele>
        <time>2021-08-11T12:53:09Z</time>
      </trkpt>
      <trkpt lat="48.04445" lon="-3.66846">
        <ele>153</ele>
        <time>2021-08-11T12:53:10Z</time>
      </trkpt>
      <trkpt lat="48.04441" lon="-3.66852">
        <ele>153</ele>
        <time>2021-08-11T12:53:11Z</time>
      </trkpt>
      <trkpt lat="48.04436" lon="-3.66859">
        <ele>153</ele>
        <time>2021-08-11T12:53:12Z</time>
      </trkpt>
      <trkpt lat="48.04431" lon="-3.66866">
        <ele>153</ele>
        <time>2021-08-11T12:53:13Z</time>
      </trkpt>
      <trkpt lat="48.04426" lon="-3.66873">
        <ele>153</ele>
        <time>2021-08-11T12:53:14Z</time>
      </trkpt>
      <trkpt lat="48.04422" lon="-3.6688">
        <ele>153</ele>
        <time>2021-08-11T12:53:15Z</time>
      </trkpt>
      <trkpt lat="48.04418" lon="-3.66886">
        <ele>152.8</ele>
        <time>2021-08-11T12:53:16Z</time>
      </trkpt>
      <trkpt lat="48.04413" lon="-3.66893">
        <ele>152.6</ele>
        <time>2021-08-11T12:53:17Z</time>
      </trkpt>
      <trkpt lat="48.04408" lon="-3.66899">
        <ele>152.4</ele>
        <time>2021-08-11T12:53:18Z</time>
      </trkpt>
      <trkpt lat="48.04404" lon="-3.66905">
        <ele>152.4</ele>
        <time>2021-08-11T12:53:19Z</time>
      </trkpt>
      <trkpt lat="48.04399" lon="-3.66912">
        <ele>152.2</ele>
        <time>2021-08-11T12:53:20Z</time>
      </trkpt>
      <trkpt lat="48.04395" lon="-3.66917">
        <ele>152</ele>
        <time>2021-08-11T12:53:21Z</time>
      </trkpt>
      <trkpt lat="48.04391" lon="-3.66923">
        <ele>152</ele>
        <time>2021-08-11T12:53:22Z</time>
      </trkpt>
      <trkpt lat="48.04387" lon="-3.6693">
        <ele>152</ele>
        <time>2021-08-11T12:53:23Z</time>
      </trkpt>
      <trkpt lat="48.04383" lon="-3.66936">
        <ele>151.8</ele>
        <time>2021-08-11T12:53:24Z</time>
      </trkpt>
      <trkpt lat="48.04379" lon="-3.66941">
        <ele>151.8</ele>
        <time>2021-08-11T12:53:25Z</time>
      </trkpt>
      <trkpt lat="48.04375" lon="-3.66947">
        <ele>151.8</ele>
        <time>2021-08-11T12:53:26Z</time>
      </trkpt>
      <trkpt lat="48.04371" lon="-3.66952">
        <ele>151.8</ele>
        <time>2021-08-11T12:53:27Z</time>
      </trkpt>
      <trkpt lat="48.04368" lon="-3.66958">
        <ele>151.8</ele>
        <time>2021-08-11T12:53:28Z</time>
      </trkpt>
      <trkpt lat="48.04364" lon="-3.66964">
        <ele>151.8</ele>
        <time>2021-08-11T12:53:29Z</time>
      </trkpt>
      <trkpt lat="48.04359" lon="-3.6697">
        <ele>151.8</ele>
        <time>2021-08-11T12:53:30Z</time>
      </trkpt>
      <trkpt lat="48.04355" lon="-3.66977">
        <ele>151.8</ele>
        <time>2021-08-11T12:53:31Z</time>
      </trkpt>
      <trkpt lat="48.04351" lon="-3.66984">
        <ele>151.8</ele>
        <time>2021-08-11T12:53:32Z</time>
      </trkpt>
      <trkpt lat="48.04347" lon="-3.66991">
        <ele>151.8</ele>
        <time>2021-08-11T12:53:33Z</time>
      </trkpt>
      <trkpt lat="48.04342" lon="-3.66997">
        <ele>151.8</ele>
        <time>2021-08-11T12:53:34Z</time>
      </trkpt>
      <trkpt lat="48.04338" lon="-3.67004">
        <ele>151.8</ele>
        <time>2021-08-11T12:53:35Z</time>
      </trkpt>
      <trkpt lat="48.04333" lon="-3.67011">
        <ele>151.8</ele>
        <time>2021-08-11T12:53:36Z</time>
      </trkpt>
      <trkpt lat="48.04328" lon="-3.67017">
        <ele>152</ele>
        <time>2021-08-11T12:53:37Z</time>
      </trkpt>
      <trkpt lat="48.04324" lon="-3.67024">
        <ele>152</ele>
        <time>2021-08-11T12:53:38Z</time>
      </trkpt>
      <trkpt lat="48.04319" lon="-3.6703">
        <ele>152</ele>
        <time>2021-08-11T12:53:39Z</time>
      </trkpt>
      <trkpt lat="48.04315" lon="-3.67037">
        <ele>152</ele>
        <time>2021-08-11T12:53:40Z</time>
      </trkpt>
      <trkpt lat="48.0431" lon="-3.67043">
        <ele>152</ele>
        <time>2021-08-11T12:53:41Z</time>
      </trkpt>
      <trkpt lat="48.04306" lon="-3.67049">
        <ele>152</ele>
        <time>2021-08-11T12:53:42Z</time>
      </trkpt>
      <trkpt lat="48.04302" lon="-3.67055">
        <ele>152</ele>
        <time>2021-08-11T12:53:43Z</time>
      </trkpt>
      <trkpt lat="48.04298" lon="-3.67061">
        <ele>152</ele>
        <time>2021-08-11T12:53:44Z</time>
      </trkpt>
      <trkpt lat="48.04294" lon="-3.67066">
        <ele>152</ele>
        <time>2021-08-11T12:53:45Z</time>
      </trkpt>
      <trkpt lat="48.0429" lon="-3.67072">
        <ele>152</ele>
        <time>2021-08-11T12:53:46Z</time>
      </trkpt>
      <trkpt lat="48.04286" lon="-3.67078">
        <ele>152</ele>
        <time>2021-08-11T12:53:47Z</time>
      </trkpt>
      <trkpt lat="48.04282" lon="-3.67083">
        <ele>152</ele>
        <time>2021-08-11T12:53:48Z</time>
      </trkpt>
      <trkpt lat="48.04278" lon="-3.67088">
        <ele>152</ele>
        <time>2021-08-11T12:53:49Z</time>
      </trkpt>
      <trkpt lat="48.04274" lon="-3.67094">
        <ele>152</ele>
        <time>2021-08-11T12:53:50Z</time>
      </trkpt>
      <trkpt lat="48.04271" lon="-3.67099">
        <ele>152</ele>
        <time>2021-08-11T12:53:51Z</time>
      </trkpt>
      <trkpt lat="48.04267" lon="-3.67105">
        <ele>152</ele>
        <time>2021-08-11T12:53:52Z</time>
      </trkpt>
      <trkpt lat="48.04263" lon="-3.6711">
        <ele>152</ele>
        <time>2021-08-11T12:53:53Z</time>
      </trkpt>
      <trkpt lat="48.04259" lon="-3.67116">
        <ele>152</ele>
        <time>2021-08-11T12:53:54Z</time>
      </trkpt>
      <trkpt lat="48.04256" lon="-3.67121">
        <ele>152</ele>
        <time>2021-08-11T12:53:55Z</time>
      </trkpt>
      <trkpt lat="48.04252" lon="-3.67127">
        <ele>152</ele>
        <time>2021-08-11T12:53:56Z</time>
      </trkpt>
      <trkpt lat="48.04249" lon="-3.67132">
        <ele>152</ele>
        <time>2021-08-11T12:53:57Z</time>
      </trkpt>
      <trkpt lat="48.04245" lon="-3.67137">
        <ele>152</ele>
        <time>2021-08-11T12:53:58Z</time>
      </trkpt>
      <trkpt lat="48.04241" lon="-3.67142">
        <ele>152</ele>
        <time>2021-08-11T12:53:59Z</time>
      </trkpt>
      <trkpt lat="48.04238" lon="-3.67148">
        <ele>152.2</ele>
        <time>2021-08-11T12:54:00Z</time>
      </trkpt>
      <trkpt lat="48.04234" lon="-3.67152">
        <ele>152.2</ele>
        <time>2021-08-11T12:54:01Z</time>
      </trkpt>
      <trkpt lat="48.04231" lon="-3.67157">
        <ele>152.2</ele>
        <time>2021-08-11T12:54:02Z</time>
      </trkpt>
      <trkpt lat="48.04228" lon="-3.67162">
        <ele>152.2</ele>
        <time>2021-08-11T12:54:03Z</time>
      </trkpt>
      <trkpt lat="48.04225" lon="-3.67167">
        <ele>152.2</ele>
        <time>2021-08-11T12:54:04Z</time>
      </trkpt>
      <trkpt lat="48.04222" lon="-3.67171">
        <ele>152.2</ele>
        <time>2021-08-11T12:54:05Z</time>
      </trkpt>
      <trkpt lat="48.04219" lon="-3.67175">
        <ele>152.2</ele>
        <time>2021-08-11T12:54:06Z</time>
      </trkpt>
      <trkpt lat="48.04216" lon="-3.6718">
        <ele>152.4</ele>
        <time>2021-08-11T12:54:07Z</time>
      </trkpt>
      <trkpt lat="48.04213" lon="-3.67184">
        <ele>152.4</ele>
        <time>2021-08-11T12:54:08Z</time>
      </trkpt>
      <trkpt lat="48.0421" lon="-3.67189">
        <ele>152.4</ele>
        <time>2021-08-11T12:54:09Z</time>
      </trkpt>
      <trkpt lat="48.04207" lon="-3.67193">
        <ele>152.6</ele>
        <time>2021-08-11T12:54:10Z</time>
      </trkpt>
      <trkpt lat="48.04203" lon="-3.67197">
        <ele>152.8</ele>
        <time>2021-08-11T12:54:11Z</time>
      </trkpt>
      <trkpt lat="48.042" lon="-3.67202">
        <ele>152.8</ele>
        <time>2021-08-11T12:54:12Z</time>
      </trkpt>
      <trkpt lat="48.04197" lon="-3.67206">
        <ele>152.8</ele>
        <time>2021-08-11T12:54:13Z</time>
      </trkpt>
      <trkpt lat="48.04194" lon="-3.6721">
        <ele>153</ele>
        <time>2021-08-11T12:54:14Z</time>
      </trkpt>
      <trkpt lat="48.04191" lon="-3.67215">
        <ele>153</ele>
        <time>2021-08-11T12:54:15Z</time>
      </trkpt>
      <trkpt lat="48.04188" lon="-3.6722">
        <ele>153.2</ele>
        <time>2021-08-11T12:54:16Z</time>
      </trkpt>
      <trkpt lat="48.04185" lon="-3.67224">
        <ele>153.4</ele>
        <time>2021-08-11T12:54:17Z</time>
      </trkpt>
      <trkpt lat="48.04181" lon="-3.67229">
        <ele>153.6</ele>
        <time>2021-08-11T12:54:18Z</time>
      </trkpt>
      <trkpt lat="48.04178" lon="-3.67234">
        <ele>153.6</ele>
        <time>2021-08-11T12:54:19Z</time>
      </trkpt>
      <trkpt lat="48.04175" lon="-3.67238">
        <ele>153.6</ele>
        <time>2021-08-11T12:54:20Z</time>
      </trkpt>
      <trkpt lat="48.04172" lon="-3.67242">
        <ele>153.8</ele>
        <time>2021-08-11T12:54:21Z</time>
      </trkpt>
      <trkpt lat="48.0417" lon="-3.67246">
        <ele>154</ele>
        <time>2021-08-11T12:54:22Z</time>
      </trkpt>
      <trkpt lat="48.04167" lon="-3.6725">
        <ele>154</ele>
        <time>2021-08-11T12:54:23Z</time>
      </trkpt>
      <trkpt lat="48.04163" lon="-3.67255">
        <ele>154.2</ele>
        <time>2021-08-11T12:54:24Z</time>
      </trkpt>
      <trkpt lat="48.0416" lon="-3.6726">
        <ele>154.2</ele>
        <time>2021-08-11T12:54:25Z</time>
      </trkpt>
      <trkpt lat="48.04157" lon="-3.67264">
        <ele>154.2</ele>
        <time>2021-08-11T12:54:26Z</time>
      </trkpt>
      <trkpt lat="48.04154" lon="-3.67269">
        <ele>154.2</ele>
        <time>2021-08-11T12:54:27Z</time>
      </trkpt>
      <trkpt lat="48.04151" lon="-3.67273">
        <ele>154.4</ele>
        <time>2021-08-11T12:54:28Z</time>
      </trkpt>
      <trkpt lat="48.04148" lon="-3.67278">
        <ele>154.4</ele>
        <time>2021-08-11T12:54:29Z</time>
      </trkpt>
      <trkpt lat="48.04145" lon="-3.67282">
        <ele>154.4</ele>
        <time>2021-08-11T12:54:30Z</time>
      </trkpt>
      <trkpt lat="48.04142" lon="-3.67286">
        <ele>154.4</ele>
        <time>2021-08-11T12:54:31Z</time>
      </trkpt>
      <trkpt lat="48.04139" lon="-3.6729">
        <ele>154.4</ele>
        <time>2021-08-11T12:54:32Z</time>
      </trkpt>
      <trkpt lat="48.04136" lon="-3.67294">
        <ele>154.4</ele>
        <time>2021-08-11T12:54:33Z</time>
      </trkpt>
      <trkpt lat="48.04133" lon="-3.67298">
        <ele>154.4</ele>
        <time>2021-08-11T12:54:34Z</time>
      </trkpt>
      <trkpt lat="48.04129" lon="-3.67302">
        <ele>154.4</ele>
        <time>2021-08-11T12:54:35Z</time>
      </trkpt>
      <trkpt lat="48.04127" lon="-3.67306">
        <ele>154.6</ele>
        <time>2021-08-11T12:54:36Z</time>
      </trkpt>
      <trkpt lat="48.04124" lon="-3.6731">
        <ele>154.6</ele>
        <time>2021-08-11T12:54:37Z</time>
      </trkpt>
      <trkpt lat="48.04122" lon="-3.67314">
        <ele>154.8</ele>
        <time>2021-08-11T12:54:38Z</time>
      </trkpt>
      <trkpt lat="48.04119" lon="-3.67318">
        <ele>154.8</ele>
        <time>2021-08-11T12:54:39Z</time>
      </trkpt>
      <trkpt lat="48.04116" lon="-3.67322">
        <ele>154.8</ele>
        <time>2021-08-11T12:54:40Z</time>
      </trkpt>
      <trkpt lat="48.04113" lon="-3.67326">
        <ele>154.8</ele>
        <time>2021-08-11T12:54:41Z</time>
      </trkpt>
      <trkpt lat="48.0411" lon="-3.6733">
        <ele>155</ele>
        <time>2021-08-11T12:54:42Z</time>
      </trkpt>
      <trkpt lat="48.04107" lon="-3.67335">
        <ele>155</ele>
        <time>2021-08-11T12:54:43Z</time>
      </trkpt>
      <trkpt lat="48.04103" lon="-3.67339">
        <ele>155</ele>
        <time>2021-08-11T12:54:44Z</time>
      </trkpt>
      <trkpt lat="48.041" lon="-3.67343">
        <ele>155.2</ele>
        <time>2021-08-11T12:54:45Z</time>
      </trkpt>
      <trkpt lat="48.04097" lon="-3.67348">
        <ele>155.2</ele>
        <time>2021-08-11T12:54:46Z</time>
      </trkpt>
      <trkpt lat="48.04094" lon="-3.67352">
        <ele>155.2</ele>
        <time>2021-08-11T12:54:47Z</time>
      </trkpt>
      <trkpt lat="48.04091" lon="-3.67356">
        <ele>155.2</ele>
        <time>2021-08-11T12:54:48Z</time>
      </trkpt>
      <trkpt lat="48.04088" lon="-3.6736">
        <ele>155.2</ele>
        <time>2021-08-11T12:54:49Z</time>
      </trkpt>
      <trkpt lat="48.04085" lon="-3.67364">
        <ele>155.4</ele>
        <time>2021-08-11T12:54:50Z</time>
      </trkpt>
      <trkpt lat="48.04082" lon="-3.67368">
        <ele>155.4</ele>
        <time>2021-08-11T12:54:51Z</time>
      </trkpt>
      <trkpt lat="48.0408" lon="-3.67372">
        <ele>155.4</ele>
        <time>2021-08-11T12:54:52Z</time>
      </trkpt>
      <trkpt lat="48.04077" lon="-3.67377">
        <ele>155.4</ele>
        <time>2021-08-11T12:54:53Z</time>
      </trkpt>
      <trkpt lat="48.04074" lon="-3.67382">
        <ele>155.6</ele>
        <time>2021-08-11T12:54:54Z</time>
      </trkpt>
      <trkpt lat="48.04072" lon="-3.67385">
        <ele>155.6</ele>
        <time>2021-08-11T12:54:55Z</time>
      </trkpt>
      <trkpt lat="48.04069" lon="-3.67389">
        <ele>155.6</ele>
        <time>2021-08-11T12:54:56Z</time>
      </trkpt>
      <trkpt lat="48.04067" lon="-3.67392">
        <ele>155.6</ele>
        <time>2021-08-11T12:54:57Z</time>
      </trkpt>
      <trkpt lat="48.04065" lon="-3.67396">
        <ele>155.6</ele>
        <time>2021-08-11T12:54:58Z</time>
      </trkpt>
      <trkpt lat="48.04063" lon="-3.67399">
        <ele>155.8</ele>
        <time>2021-08-11T12:54:59Z</time>
      </trkpt>
      <trkpt lat="48.04061" lon="-3.67403">
        <ele>155.8</ele>
        <time>2021-08-11T12:55:00Z</time>
      </trkpt>
      <trkpt lat="48.04058" lon="-3.67407">
        <ele>155.8</ele>
        <time>2021-08-11T12:55:01Z</time>
      </trkpt>
      <trkpt lat="48.04056" lon="-3.67411">
        <ele>155.8</ele>
        <time>2021-08-11T12:55:02Z</time>
      </trkpt>
      <trkpt lat="48.04053" lon="-3.67415">
        <ele>156</ele>
        <time>2021-08-11T12:55:03Z</time>
      </trkpt>
      <trkpt lat="48.0405" lon="-3.67419">
        <ele>156</ele>
        <time>2021-08-11T12:55:04Z</time>
      </trkpt>
      <trkpt lat="48.04047" lon="-3.67423">
        <ele>156.4</ele>
        <time>2021-08-11T12:55:05Z</time>
      </trkpt>
      <trkpt lat="48.04044" lon="-3.67427">
        <ele>156.4</ele>
        <time>2021-08-11T12:55:06Z</time>
      </trkpt>
      <trkpt lat="48.04041" lon="-3.67432">
        <ele>156.6</ele>
        <time>2021-08-11T12:55:07Z</time>
      </trkpt>
      <trkpt lat="48.04038" lon="-3.67437">
        <ele>156.6</ele>
        <time>2021-08-11T12:55:08Z</time>
      </trkpt>
      <trkpt lat="48.04035" lon="-3.67441">
        <ele>156.6</ele>
        <time>2021-08-11T12:55:09Z</time>
      </trkpt>
      <trkpt lat="48.04032" lon="-3.67446">
        <ele>156.6</ele>
        <time>2021-08-11T12:55:10Z</time>
      </trkpt>
      <trkpt lat="48.04028" lon="-3.67451">
        <ele>156.8</ele>
        <time>2021-08-11T12:55:11Z</time>
      </trkpt>
      <trkpt lat="48.04025" lon="-3.67455">
        <ele>156.8</ele>
        <time>2021-08-11T12:55:12Z</time>
      </trkpt>
      <trkpt lat="48.04022" lon="-3.6746">
        <ele>156.8</ele>
        <time>2021-08-11T12:55:13Z</time>
      </trkpt>
      <trkpt lat="48.04019" lon="-3.67464">
        <ele>156.8</ele>
        <time>2021-08-11T12:55:14Z</time>
      </trkpt>
      <trkpt lat="48.04016" lon="-3.67469">
        <ele>156.8</ele>
        <time>2021-08-11T12:55:15Z</time>
      </trkpt>
      <trkpt lat="48.04013" lon="-3.67474">
        <ele>156.8</ele>
        <time>2021-08-11T12:55:16Z</time>
      </trkpt>
      <trkpt lat="48.04009" lon="-3.67478">
        <ele>157</ele>
        <time>2021-08-11T12:55:17Z</time>
      </trkpt>
      <trkpt lat="48.04007" lon="-3.67483">
        <ele>157</ele>
        <time>2021-08-11T12:55:18Z</time>
      </trkpt>
      <trkpt lat="48.04004" lon="-3.67487">
        <ele>157</ele>
        <time>2021-08-11T12:55:19Z</time>
      </trkpt>
      <trkpt lat="48.04001" lon="-3.67492">
        <ele>157</ele>
        <time>2021-08-11T12:55:20Z</time>
      </trkpt>
      <trkpt lat="48.03998" lon="-3.67496">
        <ele>157</ele>
        <time>2021-08-11T12:55:21Z</time>
      </trkpt>
      <trkpt lat="48.03995" lon="-3.675">
        <ele>157</ele>
        <time>2021-08-11T12:55:22Z</time>
      </trkpt>
      <trkpt lat="48.03992" lon="-3.67505">
        <ele>157.2</ele>
        <time>2021-08-11T12:55:23Z</time>
      </trkpt>
      <trkpt lat="48.03989" lon="-3.67509">
        <ele>157.2</ele>
        <time>2021-08-11T12:55:24Z</time>
      </trkpt>
      <trkpt lat="48.03986" lon="-3.67513">
        <ele>157.2</ele>
        <time>2021-08-11T12:55:25Z</time>
      </trkpt>
      <trkpt lat="48.03983" lon="-3.67517">
        <ele>157.2</ele>
        <time>2021-08-11T12:55:26Z</time>
      </trkpt>
      <trkpt lat="48.03981" lon="-3.67521">
        <ele>157.2</ele>
        <time>2021-08-11T12:55:27Z</time>
      </trkpt>
      <trkpt lat="48.03978" lon="-3.67526">
        <ele>157.2</ele>
        <time>2021-08-11T12:55:28Z</time>
      </trkpt>
      <trkpt lat="48.03975" lon="-3.6753">
        <ele>157.4</ele>
        <time>2021-08-11T12:55:29Z</time>
      </trkpt>
      <trkpt lat="48.03972" lon="-3.67534">
        <ele>157.6</ele>
        <time>2021-08-11T12:55:30Z</time>
      </trkpt>
      <trkpt lat="48.03969" lon="-3.67538">
        <ele>157.6</ele>
        <time>2021-08-11T12:55:31Z</time>
      </trkpt>
      <trkpt lat="48.03966" lon="-3.67543">
        <ele>157.6</ele>
        <time>2021-08-11T12:55:32Z</time>
      </trkpt>
      <trkpt lat="48.03963" lon="-3.67547">
        <ele>157.6</ele>
        <time>2021-08-11T12:55:33Z</time>
      </trkpt>
      <trkpt lat="48.0396" lon="-3.67552">
        <ele>157.8</ele>
        <time>2021-08-11T12:55:34Z</time>
      </trkpt>
      <trkpt lat="48.03957" lon="-3.67556">
        <ele>157.8</ele>
        <time>2021-08-11T12:55:35Z</time>
      </trkpt>
      <trkpt lat="48.03954" lon="-3.67561">
        <ele>157.8</ele>
        <time>2021-08-11T12:55:36Z</time>
      </trkpt>
      <trkpt lat="48.0395" lon="-3.67566">
        <ele>157.8</ele>
        <time>2021-08-11T12:55:37Z</time>
      </trkpt>
      <trkpt lat="48.03947" lon="-3.6757">
        <ele>157.8</ele>
        <time>2021-08-11T12:55:38Z</time>
      </trkpt>
      <trkpt lat="48.03944" lon="-3.67575">
        <ele>158</ele>
        <time>2021-08-11T12:55:39Z</time>
      </trkpt>
      <trkpt lat="48.03941" lon="-3.6758">
        <ele>158</ele>
        <time>2021-08-11T12:55:40Z</time>
      </trkpt>
      <trkpt lat="48.03938" lon="-3.67585">
        <ele>158</ele>
        <time>2021-08-11T12:55:41Z</time>
      </trkpt>
      <trkpt lat="48.03935" lon="-3.67589">
        <ele>158.2</ele>
        <time>2021-08-11T12:55:42Z</time>
      </trkpt>
      <trkpt lat="48.03932" lon="-3.67593">
        <ele>158.2</ele>
        <time>2021-08-11T12:55:43Z</time>
      </trkpt>
      <trkpt lat="48.03929" lon="-3.67597">
        <ele>158.2</ele>
        <time>2021-08-11T12:55:44Z</time>
      </trkpt>
      <trkpt lat="48.03926" lon="-3.67602">
        <ele>158.2</ele>
        <time>2021-08-11T12:55:45Z</time>
      </trkpt>
      <trkpt lat="48.03923" lon="-3.67606">
        <ele>158.2</ele>
        <time>2021-08-11T12:55:46Z</time>
      </trkpt>
      <trkpt lat="48.0392" lon="-3.67611">
        <ele>158.2</ele>
        <time>2021-08-11T12:55:47Z</time>
      </trkpt>
      <trkpt lat="48.03917" lon="-3.67615">
        <ele>158.2</ele>
        <time>2021-08-11T12:55:48Z</time>
      </trkpt>
      <trkpt lat="48.03913" lon="-3.67619">
        <ele>158.2</ele>
        <time>2021-08-11T12:55:49Z</time>
      </trkpt>
      <trkpt lat="48.0391" lon="-3.67624">
        <ele>158.4</ele>
        <time>2021-08-11T12:55:50Z</time>
      </trkpt>
      <trkpt lat="48.03907" lon="-3.67628">
        <ele>158.4</ele>
        <time>2021-08-11T12:55:51Z</time>
      </trkpt>
      <trkpt lat="48.03905" lon="-3.67631">
        <ele>158.4</ele>
        <time>2021-08-11T12:55:52Z</time>
      </trkpt>
      <trkpt lat="48.03902" lon="-3.67635">
        <ele>158.4</ele>
        <time>2021-08-11T12:55:53Z</time>
      </trkpt>
      <trkpt lat="48.03899" lon="-3.6764">
        <ele>158.4</ele>
        <time>2021-08-11T12:55:54Z</time>
      </trkpt>
      <trkpt lat="48.03897" lon="-3.67644">
        <ele>158.4</ele>
        <time>2021-08-11T12:55:55Z</time>
      </trkpt>
      <trkpt lat="48.03894" lon="-3.67648">
        <ele>158.6</ele>
        <time>2021-08-11T12:55:56Z</time>
      </trkpt>
      <trkpt lat="48.0389" lon="-3.67652">
        <ele>158.6</ele>
        <time>2021-08-11T12:55:57Z</time>
      </trkpt>
      <trkpt lat="48.03887" lon="-3.67657">
        <ele>158.6</ele>
        <time>2021-08-11T12:55:58Z</time>
      </trkpt>
      <trkpt lat="48.03884" lon="-3.67661">
        <ele>158.6</ele>
        <time>2021-08-11T12:55:59Z</time>
      </trkpt>
      <trkpt lat="48.03881" lon="-3.67666">
        <ele>158.6</ele>
        <time>2021-08-11T12:56:00Z</time>
      </trkpt>
      <trkpt lat="48.03877" lon="-3.67671">
        <ele>158.8</ele>
        <time>2021-08-11T12:56:01Z</time>
      </trkpt>
      <trkpt lat="48.03874" lon="-3.67676">
        <ele>158.8</ele>
        <time>2021-08-11T12:56:02Z</time>
      </trkpt>
      <trkpt lat="48.03871" lon="-3.67681">
        <ele>159</ele>
        <time>2021-08-11T12:56:03Z</time>
      </trkpt>
      <trkpt lat="48.03867" lon="-3.67686">
        <ele>159</ele>
        <time>2021-08-11T12:56:04Z</time>
      </trkpt>
      <trkpt lat="48.03863" lon="-3.67691">
        <ele>159.2</ele>
        <time>2021-08-11T12:56:05Z</time>
      </trkpt>
      <trkpt lat="48.0386" lon="-3.67696">
        <ele>159.2</ele>
        <time>2021-08-11T12:56:06Z</time>
      </trkpt>
      <trkpt lat="48.03857" lon="-3.67701">
        <ele>159.2</ele>
        <time>2021-08-11T12:56:07Z</time>
      </trkpt>
      <trkpt lat="48.03853" lon="-3.67706">
        <ele>159.2</ele>
        <time>2021-08-11T12:56:08Z</time>
      </trkpt>
      <trkpt lat="48.03849" lon="-3.6771">
        <ele>159.2</ele>
        <time>2021-08-11T12:56:09Z</time>
      </trkpt>
      <trkpt lat="48.03846" lon="-3.67715">
        <ele>159.2</ele>
        <time>2021-08-11T12:56:10Z</time>
      </trkpt>
      <trkpt lat="48.03843" lon="-3.6772">
        <ele>159.4</ele>
        <time>2021-08-11T12:56:11Z</time>
      </trkpt>
      <trkpt lat="48.03839" lon="-3.67725">
        <ele>159.4</ele>
        <time>2021-08-11T12:56:12Z</time>
      </trkpt>
      <trkpt lat="48.03836" lon="-3.67729">
        <ele>159.4</ele>
        <time>2021-08-11T12:56:13Z</time>
      </trkpt>
      <trkpt lat="48.03833" lon="-3.67734">
        <ele>159.4</ele>
        <time>2021-08-11T12:56:14Z</time>
      </trkpt>
      <trkpt lat="48.0383" lon="-3.67739">
        <ele>159.4</ele>
        <time>2021-08-11T12:56:15Z</time>
      </trkpt>
      <trkpt lat="48.03826" lon="-3.67744">
        <ele>159.6</ele>
        <time>2021-08-11T12:56:16Z</time>
      </trkpt>
      <trkpt lat="48.03823" lon="-3.67749">
        <ele>159.6</ele>
        <time>2021-08-11T12:56:17Z</time>
      </trkpt>
      <trkpt lat="48.0382" lon="-3.67753">
        <ele>159.8</ele>
        <time>2021-08-11T12:56:18Z</time>
      </trkpt>
      <trkpt lat="48.03817" lon="-3.67757">
        <ele>159.8</ele>
        <time>2021-08-11T12:56:19Z</time>
      </trkpt>
      <trkpt lat="48.03814" lon="-3.67762">
        <ele>160</ele>
        <time>2021-08-11T12:56:20Z</time>
      </trkpt>
      <trkpt lat="48.03811" lon="-3.67766">
        <ele>160</ele>
        <time>2021-08-11T12:56:21Z</time>
      </trkpt>
      <trkpt lat="48.03809" lon="-3.67771">
        <ele>160</ele>
        <time>2021-08-11T12:56:22Z</time>
      </trkpt>
      <trkpt lat="48.03805" lon="-3.67775">
        <ele>160.2</ele>
        <time>2021-08-11T12:56:23Z</time>
      </trkpt>
      <trkpt lat="48.03802" lon="-3.6778">
        <ele>160.4</ele>
        <time>2021-08-11T12:56:24Z</time>
      </trkpt>
      <trkpt lat="48.03799" lon="-3.67784">
        <ele>160.4</ele>
        <time>2021-08-11T12:56:25Z</time>
      </trkpt>
      <trkpt lat="48.03795" lon="-3.67788">
        <ele>160.4</ele>
        <time>2021-08-11T12:56:26Z</time>
      </trkpt>
      <trkpt lat="48.03792" lon="-3.67793">
        <ele>160.6</ele>
        <time>2021-08-11T12:56:27Z</time>
      </trkpt>
      <trkpt lat="48.03788" lon="-3.67798">
        <ele>160.6</ele>
        <time>2021-08-11T12:56:28Z</time>
      </trkpt>
      <trkpt lat="48.03785" lon="-3.67803">
        <ele>160.6</ele>
        <time>2021-08-11T12:56:29Z</time>
      </trkpt>
      <trkpt lat="48.03781" lon="-3.67808">
        <ele>160.6</ele>
        <time>2021-08-11T12:56:30Z</time>
      </trkpt>
      <trkpt lat="48.03778" lon="-3.67813">
        <ele>160.6</ele>
        <time>2021-08-11T12:56:31Z</time>
      </trkpt>
      <trkpt lat="48.03774" lon="-3.67818">
        <ele>160.6</ele>
        <time>2021-08-11T12:56:32Z</time>
      </trkpt>
      <trkpt lat="48.03771" lon="-3.67823">
        <ele>160.6</ele>
        <time>2021-08-11T12:56:33Z</time>
      </trkpt>
      <trkpt lat="48.03768" lon="-3.67829">
        <ele>160.6</ele>
        <time>2021-08-11T12:56:34Z</time>
      </trkpt>
      <trkpt lat="48.03764" lon="-3.67834">
        <ele>160.8</ele>
        <time>2021-08-11T12:56:35Z</time>
      </trkpt>
      <trkpt lat="48.03761" lon="-3.67839">
        <ele>160.8</ele>
        <time>2021-08-11T12:56:36Z</time>
      </trkpt>
      <trkpt lat="48.03757" lon="-3.67844">
        <ele>160.8</ele>
        <time>2021-08-11T12:56:37Z</time>
      </trkpt>
      <trkpt lat="48.03754" lon="-3.67848">
        <ele>161</ele>
        <time>2021-08-11T12:56:38Z</time>
      </trkpt>
      <trkpt lat="48.03751" lon="-3.67853">
        <ele>161</ele>
        <time>2021-08-11T12:56:39Z</time>
      </trkpt>
      <trkpt lat="48.03748" lon="-3.67858">
        <ele>161</ele>
        <time>2021-08-11T12:56:40Z</time>
      </trkpt>
      <trkpt lat="48.03745" lon="-3.67862">
        <ele>161</ele>
        <time>2021-08-11T12:56:41Z</time>
      </trkpt>
      <trkpt lat="48.03742" lon="-3.67867">
        <ele>161</ele>
        <time>2021-08-11T12:56:42Z</time>
      </trkpt>
      <trkpt lat="48.03739" lon="-3.67872">
        <ele>161</ele>
        <time>2021-08-11T12:56:43Z</time>
      </trkpt>
      <trkpt lat="48.03736" lon="-3.67877">
        <ele>161</ele>
        <time>2021-08-11T12:56:44Z</time>
      </trkpt>
      <trkpt lat="48.03733" lon="-3.67881">
        <ele>161.2</ele>
        <time>2021-08-11T12:56:45Z</time>
      </trkpt>
      <trkpt lat="48.03729" lon="-3.67886">
        <ele>161.2</ele>
        <time>2021-08-11T12:56:46Z</time>
      </trkpt>
      <trkpt lat="48.03726" lon="-3.67891">
        <ele>161.2</ele>
        <time>2021-08-11T12:56:47Z</time>
      </trkpt>
      <trkpt lat="48.03722" lon="-3.67896">
        <ele>161.2</ele>
        <time>2021-08-11T12:56:48Z</time>
      </trkpt>
      <trkpt lat="48.03718" lon="-3.67901">
        <ele>161.2</ele>
        <time>2021-08-11T12:56:49Z</time>
      </trkpt>
      <trkpt lat="48.03715" lon="-3.67906">
        <ele>161.2</ele>
        <time>2021-08-11T12:56:50Z</time>
      </trkpt>
      <trkpt lat="48.03711" lon="-3.67911">
        <ele>161.2</ele>
        <time>2021-08-11T12:56:51Z</time>
      </trkpt>
      <trkpt lat="48.03707" lon="-3.67915">
        <ele>161.2</ele>
        <time>2021-08-11T12:56:52Z</time>
      </trkpt>
      <trkpt lat="48.03704" lon="-3.6792">
        <ele>161.2</ele>
        <time>2021-08-11T12:56:53Z</time>
      </trkpt>
      <trkpt lat="48.037" lon="-3.67925">
        <ele>161.2</ele>
        <time>2021-08-11T12:56:54Z</time>
      </trkpt>
      <trkpt lat="48.03697" lon="-3.67931">
        <ele>161.2</ele>
        <time>2021-08-11T12:56:55Z</time>
      </trkpt>
      <trkpt lat="48.03693" lon="-3.67936">
        <ele>161.2</ele>
        <time>2021-08-11T12:56:56Z</time>
      </trkpt>
      <trkpt lat="48.0369" lon="-3.67942">
        <ele>161.2</ele>
        <time>2021-08-11T12:56:57Z</time>
      </trkpt>
      <trkpt lat="48.03686" lon="-3.67948">
        <ele>161.2</ele>
        <time>2021-08-11T12:56:58Z</time>
      </trkpt>
      <trkpt lat="48.03682" lon="-3.67954">
        <ele>161.2</ele>
        <time>2021-08-11T12:56:59Z</time>
      </trkpt>
      <trkpt lat="48.03678" lon="-3.6796">
        <ele>161.2</ele>
        <time>2021-08-11T12:57:00Z</time>
      </trkpt>
      <trkpt lat="48.03675" lon="-3.67965">
        <ele>161.2</ele>
        <time>2021-08-11T12:57:01Z</time>
      </trkpt>
      <trkpt lat="48.03671" lon="-3.67971">
        <ele>161.2</ele>
        <time>2021-08-11T12:57:02Z</time>
      </trkpt>
      <trkpt lat="48.03667" lon="-3.67976">
        <ele>161</ele>
        <time>2021-08-11T12:57:03Z</time>
      </trkpt>
      <trkpt lat="48.03664" lon="-3.6798">
        <ele>161</ele>
        <time>2021-08-11T12:57:04Z</time>
      </trkpt>
      <trkpt lat="48.03661" lon="-3.67985">
        <ele>161</ele>
        <time>2021-08-11T12:57:05Z</time>
      </trkpt>
      <trkpt lat="48.03658" lon="-3.6799">
        <ele>161</ele>
        <time>2021-08-11T12:57:06Z</time>
      </trkpt>
      <trkpt lat="48.03654" lon="-3.67995">
        <ele>160.8</ele>
        <time>2021-08-11T12:57:07Z</time>
      </trkpt>
      <trkpt lat="48.03651" lon="-3.68">
        <ele>161</ele>
        <time>2021-08-11T12:57:08Z</time>
      </trkpt>
      <trkpt lat="48.03648" lon="-3.68004">
        <ele>161</ele>
        <time>2021-08-11T12:57:09Z</time>
      </trkpt>
      <trkpt lat="48.03646" lon="-3.68007">
        <ele>160.8</ele>
        <time>2021-08-11T12:57:10Z</time>
      </trkpt>
      <trkpt lat="48.03643" lon="-3.68011">
        <ele>160.6</ele>
        <time>2021-08-11T12:57:11Z</time>
      </trkpt>
      <trkpt lat="48.0364" lon="-3.68015">
        <ele>160.4</ele>
        <time>2021-08-11T12:57:12Z</time>
      </trkpt>
      <trkpt lat="48.03636" lon="-3.68019">
        <ele>160.4</ele>
        <time>2021-08-11T12:57:13Z</time>
      </trkpt>
      <trkpt lat="48.03633" lon="-3.68023">
        <ele>160.4</ele>
        <time>2021-08-11T12:57:14Z</time>
      </trkpt>
      <trkpt lat="48.03629" lon="-3.68028">
        <ele>160.2</ele>
        <time>2021-08-11T12:57:15Z</time>
      </trkpt>
      <trkpt lat="48.03626" lon="-3.68033">
        <ele>160</ele>
        <time>2021-08-11T12:57:16Z</time>
      </trkpt>
      <trkpt lat="48.03623" lon="-3.68038">
        <ele>160</ele>
        <time>2021-08-11T12:57:17Z</time>
      </trkpt>
      <trkpt lat="48.0362" lon="-3.68043">
        <ele>159.8</ele>
        <time>2021-08-11T12:57:18Z</time>
      </trkpt>
      <trkpt lat="48.03616" lon="-3.68048">
        <ele>159.8</ele>
        <time>2021-08-11T12:57:19Z</time>
      </trkpt>
      <trkpt lat="48.03613" lon="-3.68053">
        <ele>159.8</ele>
        <time>2021-08-11T12:57:20Z</time>
      </trkpt>
      <trkpt lat="48.0361" lon="-3.68058">
        <ele>159.6</ele>
        <time>2021-08-11T12:57:21Z</time>
      </trkpt>
      <trkpt lat="48.03606" lon="-3.68063">
        <ele>159.6</ele>
        <time>2021-08-11T12:57:22Z</time>
      </trkpt>
      <trkpt lat="48.03603" lon="-3.68068">
        <ele>159.4</ele>
        <time>2021-08-11T12:57:23Z</time>
      </trkpt>
      <trkpt lat="48.036" lon="-3.68073">
        <ele>159.2</ele>
        <time>2021-08-11T12:57:24Z</time>
      </trkpt>
      <trkpt lat="48.03598" lon="-3.68076">
        <ele>159</ele>
        <time>2021-08-11T12:57:25Z</time>
      </trkpt>
      <trkpt lat="48.03595" lon="-3.6808">
        <ele>159</ele>
        <time>2021-08-11T12:57:26Z</time>
      </trkpt>
      <trkpt lat="48.03592" lon="-3.68084">
        <ele>159</ele>
        <time>2021-08-11T12:57:27Z</time>
      </trkpt>
      <trkpt lat="48.03589" lon="-3.68088">
        <ele>159</ele>
        <time>2021-08-11T12:57:28Z</time>
      </trkpt>
      <trkpt lat="48.03586" lon="-3.68092">
        <ele>159</ele>
        <time>2021-08-11T12:57:29Z</time>
      </trkpt>
      <trkpt lat="48.03582" lon="-3.68096">
        <ele>159</ele>
        <time>2021-08-11T12:57:30Z</time>
      </trkpt>
      <trkpt lat="48.03578" lon="-3.68099">
        <ele>159</ele>
        <time>2021-08-11T12:57:31Z</time>
      </trkpt>
      <trkpt lat="48.03574" lon="-3.68102">
        <ele>159</ele>
        <time>2021-08-11T12:57:32Z</time>
      </trkpt>
      <trkpt lat="48.0357" lon="-3.68104">
        <ele>159</ele>
        <time>2021-08-11T12:57:33Z</time>
      </trkpt>
      <trkpt lat="48.03566" lon="-3.68106">
        <ele>159</ele>
        <time>2021-08-11T12:57:34Z</time>
      </trkpt>
      <trkpt lat="48.03562" lon="-3.68109">
        <ele>158.8</ele>
        <time>2021-08-11T12:57:35Z</time>
      </trkpt>
      <trkpt lat="48.03558" lon="-3.68113">
        <ele>158.8</ele>
        <time>2021-08-11T12:57:36Z</time>
      </trkpt>
      <trkpt lat="48.03557" lon="-3.68118">
        <ele>158.8</ele>
        <time>2021-08-11T12:57:37Z</time>
      </trkpt>
      <trkpt lat="48.03556" lon="-3.68122">
        <ele>158.8</ele>
        <time>2021-08-11T12:57:38Z</time>
      </trkpt>
      <trkpt lat="48.03555" lon="-3.68127">
        <ele>158.8</ele>
        <time>2021-08-11T12:57:39Z</time>
      </trkpt>
      <trkpt lat="48.03554" lon="-3.68131">
        <ele>158.8</ele>
        <time>2021-08-11T12:57:40Z</time>
      </trkpt>
      <trkpt lat="48.03553" lon="-3.68135">
        <ele>158.8</ele>
        <time>2021-08-11T12:57:41Z</time>
      </trkpt>
      <trkpt lat="48.03552" lon="-3.68137">
        <ele>158.8</ele>
        <time>2021-08-11T12:57:42Z</time>
      </trkpt>
      <trkpt lat="48.0355" lon="-3.68138">
        <ele>158.8</ele>
        <time>2021-08-11T12:57:43Z</time>
      </trkpt>
      <trkpt lat="48.03548" lon="-3.6814">
        <ele>158.8</ele>
        <time>2021-08-11T12:57:44Z</time>
      </trkpt>
      <trkpt lat="48.03547" lon="-3.68143">
        <ele>158.6</ele>
        <time>2021-08-11T12:57:45Z</time>
      </trkpt>
      <trkpt lat="48.03545" lon="-3.68146">
        <ele>158.6</ele>
        <time>2021-08-11T12:57:46Z</time>
      </trkpt>
      <trkpt lat="48.03543" lon="-3.68149">
        <ele>158.4</ele>
        <time>2021-08-11T12:57:47Z</time>
      </trkpt>
      <trkpt lat="48.03541" lon="-3.68152">
        <ele>158.4</ele>
        <time>2021-08-11T12:57:48Z</time>
      </trkpt>
      <trkpt lat="48.03539" lon="-3.68155">
        <ele>158.4</ele>
        <time>2021-08-11T12:57:49Z</time>
      </trkpt>
      <trkpt lat="48.03537" lon="-3.68157">
        <ele>158.4</ele>
        <time>2021-08-11T12:57:50Z</time>
      </trkpt>
      <trkpt lat="48.03534" lon="-3.6816">
        <ele>158.4</ele>
        <time>2021-08-11T12:57:51Z</time>
      </trkpt>
      <trkpt lat="48.03531" lon="-3.68163">
        <ele>158.2</ele>
        <time>2021-08-11T12:57:52Z</time>
      </trkpt>
      <trkpt lat="48.03528" lon="-3.68167">
        <ele>158.2</ele>
        <time>2021-08-11T12:57:53Z</time>
      </trkpt>
      <trkpt lat="48.03525" lon="-3.68171">
        <ele>158.2</ele>
        <time>2021-08-11T12:57:54Z</time>
      </trkpt>
      <trkpt lat="48.03522" lon="-3.68175">
        <ele>158</ele>
        <time>2021-08-11T12:57:55Z</time>
      </trkpt>
      <trkpt lat="48.03519" lon="-3.68179">
        <ele>158</ele>
        <time>2021-08-11T12:57:56Z</time>
      </trkpt>
      <trkpt lat="48.03517" lon="-3.68182">
        <ele>158</ele>
        <time>2021-08-11T12:57:57Z</time>
      </trkpt>
      <trkpt lat="48.03514" lon="-3.68186">
        <ele>158</ele>
        <time>2021-08-11T12:57:58Z</time>
      </trkpt>
      <trkpt lat="48.0351" lon="-3.68191">
        <ele>158</ele>
        <time>2021-08-11T12:57:59Z</time>
      </trkpt>
      <trkpt lat="48.03507" lon="-3.68195">
        <ele>158</ele>
        <time>2021-08-11T12:58:00Z</time>
      </trkpt>
      <trkpt lat="48.03503" lon="-3.68199">
        <ele>158</ele>
        <time>2021-08-11T12:58:01Z</time>
      </trkpt>
      <trkpt lat="48.035" lon="-3.68203">
        <ele>157.8</ele>
        <time>2021-08-11T12:58:02Z</time>
      </trkpt>
      <trkpt lat="48.03496" lon="-3.68207">
        <ele>157.8</ele>
        <time>2021-08-11T12:58:03Z</time>
      </trkpt>
      <trkpt lat="48.03493" lon="-3.6821">
        <ele>157.8</ele>
        <time>2021-08-11T12:58:04Z</time>
      </trkpt>
      <trkpt lat="48.0349" lon="-3.68213">
        <ele>157.6</ele>
        <time>2021-08-11T12:58:05Z</time>
      </trkpt>
      <trkpt lat="48.03487" lon="-3.68217">
        <ele>157.6</ele>
        <time>2021-08-11T12:58:06Z</time>
      </trkpt>
      <trkpt lat="48.03484" lon="-3.68221">
        <ele>157.6</ele>
        <time>2021-08-11T12:58:07Z</time>
      </trkpt>
      <trkpt lat="48.03481" lon="-3.68226">
        <ele>157.6</ele>
        <time>2021-08-11T12:58:08Z</time>
      </trkpt>
      <trkpt lat="48.03477" lon="-3.6823">
        <ele>157.6</ele>
        <time>2021-08-11T12:58:09Z</time>
      </trkpt>
      <trkpt lat="48.03474" lon="-3.68235">
        <ele>157.6</ele>
        <time>2021-08-11T12:58:10Z</time>
      </trkpt>
      <trkpt lat="48.03471" lon="-3.68239">
        <ele>157.6</ele>
        <time>2021-08-11T12:58:11Z</time>
      </trkpt>
      <trkpt lat="48.03468" lon="-3.68243">
        <ele>157.4</ele>
        <time>2021-08-11T12:58:12Z</time>
      </trkpt>
      <trkpt lat="48.03465" lon="-3.68247">
        <ele>157.4</ele>
        <time>2021-08-11T12:58:13Z</time>
      </trkpt>
      <trkpt lat="48.03463" lon="-3.6825">
        <ele>157.4</ele>
        <time>2021-08-11T12:58:14Z</time>
      </trkpt>
      <trkpt lat="48.0346" lon="-3.68252">
        <ele>157.4</ele>
        <time>2021-08-11T12:58:15Z</time>
      </trkpt>
      <trkpt lat="48.03457" lon="-3.68256">
        <ele>157.4</ele>
        <time>2021-08-11T12:58:16Z</time>
      </trkpt>
      <trkpt lat="48.03454" lon="-3.6826">
        <ele>157.4</ele>
        <time>2021-08-11T12:58:17Z</time>
      </trkpt>
      <trkpt lat="48.03451" lon="-3.68264">
        <ele>157.4</ele>
        <time>2021-08-11T12:58:18Z</time>
      </trkpt>
      <trkpt lat="48.03448" lon="-3.68268">
        <ele>157.4</ele>
        <time>2021-08-11T12:58:19Z</time>
      </trkpt>
      <trkpt lat="48.03445" lon="-3.68272">
        <ele>157.4</ele>
        <time>2021-08-11T12:58:20Z</time>
      </trkpt>
      <trkpt lat="48.03443" lon="-3.68276">
        <ele>157.4</ele>
        <time>2021-08-11T12:58:21Z</time>
      </trkpt>
      <trkpt lat="48.0344" lon="-3.68281">
        <ele>157.4</ele>
        <time>2021-08-11T12:58:22Z</time>
      </trkpt>
      <trkpt lat="48.03436" lon="-3.68285">
        <ele>157.2</ele>
        <time>2021-08-11T12:58:23Z</time>
      </trkpt>
      <trkpt lat="48.03433" lon="-3.6829">
        <ele>157.2</ele>
        <time>2021-08-11T12:58:24Z</time>
      </trkpt>
      <trkpt lat="48.0343" lon="-3.68294">
        <ele>157.2</ele>
        <time>2021-08-11T12:58:25Z</time>
      </trkpt>
      <trkpt lat="48.03427" lon="-3.68299">
        <ele>157.2</ele>
        <time>2021-08-11T12:58:26Z</time>
      </trkpt>
      <trkpt lat="48.03423" lon="-3.68303">
        <ele>157</ele>
        <time>2021-08-11T12:58:27Z</time>
      </trkpt>
      <trkpt lat="48.03419" lon="-3.68308">
        <ele>156.8</ele>
        <time>2021-08-11T12:58:28Z</time>
      </trkpt>
      <trkpt lat="48.03416" lon="-3.68312">
        <ele>156.8</ele>
        <time>2021-08-11T12:58:29Z</time>
      </trkpt>
      <trkpt lat="48.03412" lon="-3.68316">
        <ele>156.8</ele>
        <time>2021-08-11T12:58:30Z</time>
      </trkpt>
      <trkpt lat="48.03409" lon="-3.68321">
        <ele>156.8</ele>
        <time>2021-08-11T12:58:31Z</time>
      </trkpt>
      <trkpt lat="48.03405" lon="-3.68326">
        <ele>156.8</ele>
        <time>2021-08-11T12:58:32Z</time>
      </trkpt>
      <trkpt lat="48.03402" lon="-3.6833">
        <ele>156.8</ele>
        <time>2021-08-11T12:58:33Z</time>
      </trkpt>
      <trkpt lat="48.034" lon="-3.68334">
        <ele>156.6</ele>
        <time>2021-08-11T12:58:34Z</time>
      </trkpt>
      <trkpt lat="48.03397" lon="-3.68338">
        <ele>156.6</ele>
        <time>2021-08-11T12:58:35Z</time>
      </trkpt>
      <trkpt lat="48.03393" lon="-3.68343">
        <ele>156.6</ele>
        <time>2021-08-11T12:58:36Z</time>
      </trkpt>
      <trkpt lat="48.0339" lon="-3.68348">
        <ele>156.6</ele>
        <time>2021-08-11T12:58:37Z</time>
      </trkpt>
      <trkpt lat="48.03386" lon="-3.68353">
        <ele>156.6</ele>
        <time>2021-08-11T12:58:38Z</time>
      </trkpt>
      <trkpt lat="48.03383" lon="-3.68358">
        <ele>156.6</ele>
        <time>2021-08-11T12:58:39Z</time>
      </trkpt>
      <trkpt lat="48.0338" lon="-3.68362">
        <ele>156.6</ele>
        <time>2021-08-11T12:58:40Z</time>
      </trkpt>
      <trkpt lat="48.03376" lon="-3.68368">
        <ele>156.6</ele>
        <time>2021-08-11T12:58:41Z</time>
      </trkpt>
      <trkpt lat="48.03373" lon="-3.68372">
        <ele>156.4</ele>
        <time>2021-08-11T12:58:42Z</time>
      </trkpt>
      <trkpt lat="48.0337" lon="-3.68376">
        <ele>156.4</ele>
        <time>2021-08-11T12:58:43Z</time>
      </trkpt>
      <trkpt lat="48.03367" lon="-3.68382">
        <ele>156.6</ele>
        <time>2021-08-11T12:58:44Z</time>
      </trkpt>
      <trkpt lat="48.03363" lon="-3.68387">
        <ele>156.6</ele>
        <time>2021-08-11T12:58:45Z</time>
      </trkpt>
      <trkpt lat="48.03359" lon="-3.68393">
        <ele>156.6</ele>
        <time>2021-08-11T12:58:46Z</time>
      </trkpt>
      <trkpt lat="48.03356" lon="-3.68398">
        <ele>156.6</ele>
        <time>2021-08-11T12:58:47Z</time>
      </trkpt>
      <trkpt lat="48.03352" lon="-3.68403">
        <ele>156.6</ele>
        <time>2021-08-11T12:58:48Z</time>
      </trkpt>
      <trkpt lat="48.03348" lon="-3.68409">
        <ele>156.6</ele>
        <time>2021-08-11T12:58:49Z</time>
      </trkpt>
      <trkpt lat="48.03345" lon="-3.68413">
        <ele>156.8</ele>
        <time>2021-08-11T12:58:50Z</time>
      </trkpt>
      <trkpt lat="48.03341" lon="-3.68418">
        <ele>156.8</ele>
        <time>2021-08-11T12:58:51Z</time>
      </trkpt>
      <trkpt lat="48.03338" lon="-3.68422">
        <ele>156.8</ele>
        <time>2021-08-11T12:58:52Z</time>
      </trkpt>
      <trkpt lat="48.03334" lon="-3.68427">
        <ele>156.8</ele>
        <time>2021-08-11T12:58:53Z</time>
      </trkpt>
      <trkpt lat="48.03331" lon="-3.68431">
        <ele>156.8</ele>
        <time>2021-08-11T12:58:54Z</time>
      </trkpt>
      <trkpt lat="48.03327" lon="-3.68436">
        <ele>156.8</ele>
        <time>2021-08-11T12:58:55Z</time>
      </trkpt>
      <trkpt lat="48.03324" lon="-3.6844">
        <ele>156.8</ele>
        <time>2021-08-11T12:58:56Z</time>
      </trkpt>
      <trkpt lat="48.03321" lon="-3.68444">
        <ele>156.8</ele>
        <time>2021-08-11T12:58:57Z</time>
      </trkpt>
      <trkpt lat="48.03319" lon="-3.68447">
        <ele>156.8</ele>
        <time>2021-08-11T12:58:58Z</time>
      </trkpt>
      <trkpt lat="48.03317" lon="-3.68451">
        <ele>156.8</ele>
        <time>2021-08-11T12:58:59Z</time>
      </trkpt>
      <trkpt lat="48.03314" lon="-3.68456">
        <ele>156.8</ele>
        <time>2021-08-11T12:59:00Z</time>
      </trkpt>
      <trkpt lat="48.03312" lon="-3.68459">
        <ele>156.8</ele>
        <time>2021-08-11T12:59:01Z</time>
      </trkpt>
      <trkpt lat="48.03309" lon="-3.68463">
        <ele>156.8</ele>
        <time>2021-08-11T12:59:02Z</time>
      </trkpt>
      <trkpt lat="48.03307" lon="-3.68466">
        <ele>156.8</ele>
        <time>2021-08-11T12:59:03Z</time>
      </trkpt>
      <trkpt lat="48.03305" lon="-3.68469">
        <ele>156.8</ele>
        <time>2021-08-11T12:59:04Z</time>
      </trkpt>
      <trkpt lat="48.03302" lon="-3.68473">
        <ele>156.8</ele>
        <time>2021-08-11T12:59:05Z</time>
      </trkpt>
      <trkpt lat="48.033" lon="-3.68477">
        <ele>156.8</ele>
        <time>2021-08-11T12:59:06Z</time>
      </trkpt>
      <trkpt lat="48.03297" lon="-3.68481">
        <ele>156.8</ele>
        <time>2021-08-11T12:59:07Z</time>
      </trkpt>
      <trkpt lat="48.03294" lon="-3.68486">
        <ele>156.8</ele>
        <time>2021-08-11T12:59:08Z</time>
      </trkpt>
      <trkpt lat="48.0329" lon="-3.68492">
        <ele>156.8</ele>
        <time>2021-08-11T12:59:09Z</time>
      </trkpt>
      <trkpt lat="48.03286" lon="-3.68497">
        <ele>156.8</ele>
        <time>2021-08-11T12:59:10Z</time>
      </trkpt>
      <trkpt lat="48.03282" lon="-3.68501">
        <ele>156.8</ele>
        <time>2021-08-11T12:59:11Z</time>
      </trkpt>
      <trkpt lat="48.03279" lon="-3.68506">
        <ele>156.8</ele>
        <time>2021-08-11T12:59:12Z</time>
      </trkpt>
      <trkpt lat="48.03275" lon="-3.68512">
        <ele>156.8</ele>
        <time>2021-08-11T12:59:13Z</time>
      </trkpt>
      <trkpt lat="48.03271" lon="-3.68517">
        <ele>156.8</ele>
        <time>2021-08-11T12:59:14Z</time>
      </trkpt>
      <trkpt lat="48.03268" lon="-3.68523">
        <ele>156.8</ele>
        <time>2021-08-11T12:59:15Z</time>
      </trkpt>
      <trkpt lat="48.03264" lon="-3.68529">
        <ele>156.8</ele>
        <time>2021-08-11T12:59:16Z</time>
      </trkpt>
      <trkpt lat="48.0326" lon="-3.68534">
        <ele>156.6</ele>
        <time>2021-08-11T12:59:17Z</time>
      </trkpt>
      <trkpt lat="48.03256" lon="-3.68539">
        <ele>156.6</ele>
        <time>2021-08-11T12:59:18Z</time>
      </trkpt>
      <trkpt lat="48.03252" lon="-3.68544">
        <ele>156.6</ele>
        <time>2021-08-11T12:59:19Z</time>
      </trkpt>
      <trkpt lat="48.03248" lon="-3.6855">
        <ele>156.4</ele>
        <time>2021-08-11T12:59:20Z</time>
      </trkpt>
      <trkpt lat="48.03245" lon="-3.68555">
        <ele>156.4</ele>
        <time>2021-08-11T12:59:21Z</time>
      </trkpt>
      <trkpt lat="48.03241" lon="-3.6856">
        <ele>156.4</ele>
        <time>2021-08-11T12:59:22Z</time>
      </trkpt>
      <trkpt lat="48.03236" lon="-3.68566">
        <ele>156.4</ele>
        <time>2021-08-11T12:59:23Z</time>
      </trkpt>
      <trkpt lat="48.03231" lon="-3.68571">
        <ele>156.2</ele>
        <time>2021-08-11T12:59:24Z</time>
      </trkpt>
      <trkpt lat="48.03227" lon="-3.68577">
        <ele>156.2</ele>
        <time>2021-08-11T12:59:25Z</time>
      </trkpt>
      <trkpt lat="48.03222" lon="-3.68583">
        <ele>156</ele>
        <time>2021-08-11T12:59:26Z</time>
      </trkpt>
      <trkpt lat="48.03217" lon="-3.68588">
        <ele>156</ele>
        <time>2021-08-11T12:59:27Z</time>
      </trkpt>
      <trkpt lat="48.03212" lon="-3.68594">
        <ele>156</ele>
        <time>2021-08-11T12:59:28Z</time>
      </trkpt>
      <trkpt lat="48.03208" lon="-3.686">
        <ele>155.8</ele>
        <time>2021-08-11T12:59:29Z</time>
      </trkpt>
      <trkpt lat="48.03204" lon="-3.68605">
        <ele>155.8</ele>
        <time>2021-08-11T12:59:30Z</time>
      </trkpt>
      <trkpt lat="48.032" lon="-3.6861">
        <ele>155.6</ele>
        <time>2021-08-11T12:59:31Z</time>
      </trkpt>
      <trkpt lat="48.03196" lon="-3.68614">
        <ele>155.4</ele>
        <time>2021-08-11T12:59:32Z</time>
      </trkpt>
      <trkpt lat="48.03191" lon="-3.6862">
        <ele>155.2</ele>
        <time>2021-08-11T12:59:33Z</time>
      </trkpt>
      <trkpt lat="48.03186" lon="-3.68624">
        <ele>155</ele>
        <time>2021-08-11T12:59:34Z</time>
      </trkpt>
      <trkpt lat="48.03183" lon="-3.68628">
        <ele>154.8</ele>
        <time>2021-08-11T12:59:35Z</time>
      </trkpt>
      <trkpt lat="48.03177" lon="-3.68633">
        <ele>154.6</ele>
        <time>2021-08-11T12:59:36Z</time>
      </trkpt>
      <trkpt lat="48.03172" lon="-3.68638">
        <ele>154.2</ele>
        <time>2021-08-11T12:59:37Z</time>
      </trkpt>
      <trkpt lat="48.03168" lon="-3.68643">
        <ele>154.2</ele>
        <time>2021-08-11T12:59:38Z</time>
      </trkpt>
      <trkpt lat="48.03163" lon="-3.68648">
        <ele>154</ele>
        <time>2021-08-11T12:59:39Z</time>
      </trkpt>
      <trkpt lat="48.03158" lon="-3.68653">
        <ele>154</ele>
        <time>2021-08-11T12:59:40Z</time>
      </trkpt>
      <trkpt lat="48.03153" lon="-3.68658">
        <ele>153.8</ele>
        <time>2021-08-11T12:59:41Z</time>
      </trkpt>
      <trkpt lat="48.03149" lon="-3.68664">
        <ele>153.8</ele>
        <time>2021-08-11T12:59:42Z</time>
      </trkpt>
      <trkpt lat="48.03145" lon="-3.68669">
        <ele>153.6</ele>
        <time>2021-08-11T12:59:43Z</time>
      </trkpt>
      <trkpt lat="48.03141" lon="-3.68674">
        <ele>153.4</ele>
        <time>2021-08-11T12:59:44Z</time>
      </trkpt>
      <trkpt lat="48.03137" lon="-3.6868">
        <ele>153.4</ele>
        <time>2021-08-11T12:59:45Z</time>
      </trkpt>
      <trkpt lat="48.03133" lon="-3.68686">
        <ele>153.2</ele>
        <time>2021-08-11T12:59:46Z</time>
      </trkpt>
      <trkpt lat="48.03128" lon="-3.68691">
        <ele>153.2</ele>
        <time>2021-08-11T12:59:47Z</time>
      </trkpt>
      <trkpt lat="48.03124" lon="-3.68697">
        <ele>153</ele>
        <time>2021-08-11T12:59:48Z</time>
      </trkpt>
      <trkpt lat="48.0312" lon="-3.68703">
        <ele>153</ele>
        <time>2021-08-11T12:59:49Z</time>
      </trkpt>
      <trkpt lat="48.03115" lon="-3.68708">
        <ele>153</ele>
        <time>2021-08-11T12:59:50Z</time>
      </trkpt>
      <trkpt lat="48.0311" lon="-3.68714">
        <ele>153</ele>
        <time>2021-08-11T12:59:51Z</time>
      </trkpt>
      <trkpt lat="48.03105" lon="-3.68721">
        <ele>152.8</ele>
        <time>2021-08-11T12:59:52Z</time>
      </trkpt>
      <trkpt lat="48.03101" lon="-3.68728">
        <ele>152.6</ele>
        <time>2021-08-11T12:59:53Z</time>
      </trkpt>
      <trkpt lat="48.03096" lon="-3.68734">
        <ele>152.4</ele>
        <time>2021-08-11T12:59:54Z</time>
      </trkpt>
      <trkpt lat="48.03092" lon="-3.6874">
        <ele>152</ele>
        <time>2021-08-11T12:59:55Z</time>
      </trkpt>
      <trkpt lat="48.03087" lon="-3.68745">
        <ele>151.2</ele>
        <time>2021-08-11T12:59:56Z</time>
      </trkpt>
      <trkpt lat="48.03083" lon="-3.68751">
        <ele>151</ele>
        <time>2021-08-11T12:59:57Z</time>
      </trkpt>
      <trkpt lat="48.03078" lon="-3.68756">
        <ele>150.8</ele>
        <time>2021-08-11T12:59:58Z</time>
      </trkpt>
      <trkpt lat="48.03073" lon="-3.68762">
        <ele>150.8</ele>
        <time>2021-08-11T12:59:59Z</time>
      </trkpt>
      <trkpt lat="48.03069" lon="-3.68767">
        <ele>150.6</ele>
        <time>2021-08-11T13:00:00Z</time>
      </trkpt>
      <trkpt lat="48.03065" lon="-3.68773">
        <ele>150.6</ele>
        <time>2021-08-11T13:00:01Z</time>
      </trkpt>
      <trkpt lat="48.03061" lon="-3.68779">
        <ele>150.4</ele>
        <time>2021-08-11T13:00:02Z</time>
      </trkpt>
      <trkpt lat="48.03057" lon="-3.68785">
        <ele>150.4</ele>
        <time>2021-08-11T13:00:03Z</time>
      </trkpt>
      <trkpt lat="48.03052" lon="-3.68792">
        <ele>150.4</ele>
        <time>2021-08-11T13:00:04Z</time>
      </trkpt>
      <trkpt lat="48.03048" lon="-3.68797">
        <ele>150.4</ele>
        <time>2021-08-11T13:00:05Z</time>
      </trkpt>
      <trkpt lat="48.03043" lon="-3.68803">
        <ele>150.4</ele>
        <time>2021-08-11T13:00:06Z</time>
      </trkpt>
      <trkpt lat="48.03039" lon="-3.68808">
        <ele>150.4</ele>
        <time>2021-08-11T13:00:07Z</time>
      </trkpt>
      <trkpt lat="48.03034" lon="-3.68814">
        <ele>150.4</ele>
        <time>2021-08-11T13:00:08Z</time>
      </trkpt>
      <trkpt lat="48.0303" lon="-3.6882">
        <ele>150.2</ele>
        <time>2021-08-11T13:00:09Z</time>
      </trkpt>
      <trkpt lat="48.03025" lon="-3.68826">
        <ele>150.2</ele>
        <time>2021-08-11T13:00:10Z</time>
      </trkpt>
      <trkpt lat="48.03021" lon="-3.68832">
        <ele>150.2</ele>
        <time>2021-08-11T13:00:11Z</time>
      </trkpt>
      <trkpt lat="48.03017" lon="-3.68838">
        <ele>150.2</ele>
        <time>2021-08-11T13:00:12Z</time>
      </trkpt>
      <trkpt lat="48.03013" lon="-3.68844">
        <ele>150.2</ele>
        <time>2021-08-11T13:00:13Z</time>
      </trkpt>
      <trkpt lat="48.03009" lon="-3.68849">
        <ele>150.2</ele>
        <time>2021-08-11T13:00:14Z</time>
      </trkpt>
      <trkpt lat="48.03005" lon="-3.68855">
        <ele>150.2</ele>
        <time>2021-08-11T13:00:15Z</time>
      </trkpt>
      <trkpt lat="48.03" lon="-3.6886">
        <ele>150.2</ele>
        <time>2021-08-11T13:00:16Z</time>
      </trkpt>
      <trkpt lat="48.02995" lon="-3.68866">
        <ele>150.2</ele>
        <time>2021-08-11T13:00:17Z</time>
      </trkpt>
      <trkpt lat="48.02991" lon="-3.68872">
        <ele>150.2</ele>
        <time>2021-08-11T13:00:18Z</time>
      </trkpt>
      <trkpt lat="48.02986" lon="-3.68878">
        <ele>150.4</ele>
        <time>2021-08-11T13:00:19Z</time>
      </trkpt>
      <trkpt lat="48.02982" lon="-3.68884">
        <ele>150.4</ele>
        <time>2021-08-11T13:00:20Z</time>
      </trkpt>
      <trkpt lat="48.02978" lon="-3.68889">
        <ele>150.4</ele>
        <time>2021-08-11T13:00:21Z</time>
      </trkpt>
      <trkpt lat="48.02975" lon="-3.68895">
        <ele>150.4</ele>
        <time>2021-08-11T13:00:22Z</time>
      </trkpt>
      <trkpt lat="48.02972" lon="-3.689">
        <ele>150.6</ele>
        <time>2021-08-11T13:00:23Z</time>
      </trkpt>
      <trkpt lat="48.02968" lon="-3.68905">
        <ele>150.8</ele>
        <time>2021-08-11T13:00:24Z</time>
      </trkpt>
      <trkpt lat="48.02965" lon="-3.68909">
        <ele>151.4</ele>
        <time>2021-08-11T13:00:25Z</time>
      </trkpt>
      <trkpt lat="48.02962" lon="-3.68914">
        <ele>151.4</ele>
        <time>2021-08-11T13:00:26Z</time>
      </trkpt>
      <trkpt lat="48.02959" lon="-3.68918">
        <ele>151.6</ele>
        <time>2021-08-11T13:00:27Z</time>
      </trkpt>
      <trkpt lat="48.02956" lon="-3.68923">
        <ele>151.6</ele>
        <time>2021-08-11T13:00:28Z</time>
      </trkpt>
      <trkpt lat="48.02953" lon="-3.68927">
        <ele>151.6</ele>
        <time>2021-08-11T13:00:29Z</time>
      </trkpt>
      <trkpt lat="48.0295" lon="-3.68931">
        <ele>151.6</ele>
        <time>2021-08-11T13:00:30Z</time>
      </trkpt>
      <trkpt lat="48.02946" lon="-3.68936">
        <ele>151.8</ele>
        <time>2021-08-11T13:00:31Z</time>
      </trkpt>
      <trkpt lat="48.02943" lon="-3.68941">
        <ele>151.8</ele>
        <time>2021-08-11T13:00:32Z</time>
      </trkpt>
      <trkpt lat="48.02939" lon="-3.68945">
        <ele>151.8</ele>
        <time>2021-08-11T13:00:33Z</time>
      </trkpt>
      <trkpt lat="48.02936" lon="-3.68949">
        <ele>151.8</ele>
        <time>2021-08-11T13:00:34Z</time>
      </trkpt>
      <trkpt lat="48.02933" lon="-3.68953">
        <ele>151.8</ele>
        <time>2021-08-11T13:00:35Z</time>
      </trkpt>
      <trkpt lat="48.0293" lon="-3.68956">
        <ele>151.8</ele>
        <time>2021-08-11T13:00:36Z</time>
      </trkpt>
      <trkpt lat="48.02927" lon="-3.68959">
        <ele>152</ele>
        <time>2021-08-11T13:00:37Z</time>
      </trkpt>
      <trkpt lat="48.02924" lon="-3.68963">
        <ele>152</ele>
        <time>2021-08-11T13:00:38Z</time>
      </trkpt>
      <trkpt lat="48.02921" lon="-3.68966">
        <ele>152</ele>
        <time>2021-08-11T13:00:39Z</time>
      </trkpt>
      <trkpt lat="48.02918" lon="-3.6897">
        <ele>152</ele>
        <time>2021-08-11T13:00:40Z</time>
      </trkpt>
      <trkpt lat="48.02915" lon="-3.68973">
        <ele>152</ele>
        <time>2021-08-11T13:00:41Z</time>
      </trkpt>
      <trkpt lat="48.02914" lon="-3.68976">
        <ele>152</ele>
        <time>2021-08-11T13:00:42Z</time>
      </trkpt>
      <trkpt lat="48.02911" lon="-3.6898">
        <ele>152.2</ele>
        <time>2021-08-11T13:00:43Z</time>
      </trkpt>
      <trkpt lat="48.02908" lon="-3.68984">
        <ele>152.2</ele>
        <time>2021-08-11T13:00:44Z</time>
      </trkpt>
      <trkpt lat="48.02905" lon="-3.68988">
        <ele>152.2</ele>
        <time>2021-08-11T13:00:45Z</time>
      </trkpt>
      <trkpt lat="48.02902" lon="-3.68992">
        <ele>152.2</ele>
        <time>2021-08-11T13:00:46Z</time>
      </trkpt>
      <trkpt lat="48.02899" lon="-3.68997">
        <ele>152.2</ele>
        <time>2021-08-11T13:00:47Z</time>
      </trkpt>
      <trkpt lat="48.02896" lon="-3.69">
        <ele>152.2</ele>
        <time>2021-08-11T13:00:48Z</time>
      </trkpt>
      <trkpt lat="48.02894" lon="-3.69004">
        <ele>152.4</ele>
        <time>2021-08-11T13:00:49Z</time>
      </trkpt>
      <trkpt lat="48.02891" lon="-3.69007">
        <ele>152.4</ele>
        <time>2021-08-11T13:00:50Z</time>
      </trkpt>
      <trkpt lat="48.02888" lon="-3.69011">
        <ele>152.4</ele>
        <time>2021-08-11T13:00:51Z</time>
      </trkpt>
      <trkpt lat="48.02885" lon="-3.69015">
        <ele>152.4</ele>
        <time>2021-08-11T13:00:52Z</time>
      </trkpt>
      <trkpt lat="48.02883" lon="-3.69019">
        <ele>152.6</ele>
        <time>2021-08-11T13:00:53Z</time>
      </trkpt>
      <trkpt lat="48.0288" lon="-3.69023">
        <ele>152.8</ele>
        <time>2021-08-11T13:00:54Z</time>
      </trkpt>
      <trkpt lat="48.02877" lon="-3.69027">
        <ele>152.8</ele>
        <time>2021-08-11T13:00:55Z</time>
      </trkpt>
      <trkpt lat="48.02874" lon="-3.69032">
        <ele>153</ele>
        <time>2021-08-11T13:00:56Z</time>
      </trkpt>
      <trkpt lat="48.02873" lon="-3.69035">
        <ele>153.2</ele>
        <time>2021-08-11T13:00:57Z</time>
      </trkpt>
      <trkpt lat="48.02871" lon="-3.69038">
        <ele>153.4</ele>
        <time>2021-08-11T13:00:58Z</time>
      </trkpt>
      <trkpt lat="48.0287" lon="-3.69041">
        <ele>153.6</ele>
        <time>2021-08-11T13:00:59Z</time>
      </trkpt>
      <trkpt lat="48.02867" lon="-3.69044">
        <ele>153.8</ele>
        <time>2021-08-11T13:01:00Z</time>
      </trkpt>
      <trkpt lat="48.02864" lon="-3.69047">
        <ele>153.8</ele>
        <time>2021-08-11T13:01:01Z</time>
      </trkpt>
      <trkpt lat="48.0286" lon="-3.69051">
        <ele>154</ele>
        <time>2021-08-11T13:01:02Z</time>
      </trkpt>
      <trkpt lat="48.02857" lon="-3.69056">
        <ele>154</ele>
        <time>2021-08-11T13:01:03Z</time>
      </trkpt>
      <trkpt lat="48.02855" lon="-3.69059">
        <ele>154</ele>
        <time>2021-08-11T13:01:04Z</time>
      </trkpt>
      <trkpt lat="48.02852" lon="-3.69063">
        <ele>154</ele>
        <time>2021-08-11T13:01:05Z</time>
      </trkpt>
      <trkpt lat="48.02849" lon="-3.69066">
        <ele>154.2</ele>
        <time>2021-08-11T13:01:06Z</time>
      </trkpt>
      <trkpt lat="48.02846" lon="-3.6907">
        <ele>154.2</ele>
        <time>2021-08-11T13:01:07Z</time>
      </trkpt>
      <trkpt lat="48.02843" lon="-3.69074">
        <ele>154.2</ele>
        <time>2021-08-11T13:01:08Z</time>
      </trkpt>
      <trkpt lat="48.0284" lon="-3.69079">
        <ele>154.4</ele>
        <time>2021-08-11T13:01:09Z</time>
      </trkpt>
      <trkpt lat="48.02838" lon="-3.69083">
        <ele>154.4</ele>
        <time>2021-08-11T13:01:10Z</time>
      </trkpt>
      <trkpt lat="48.02835" lon="-3.69088">
        <ele>154.6</ele>
        <time>2021-08-11T13:01:11Z</time>
      </trkpt>
      <trkpt lat="48.02832" lon="-3.69092">
        <ele>154.6</ele>
        <time>2021-08-11T13:01:12Z</time>
      </trkpt>
      <trkpt lat="48.0283" lon="-3.69096">
        <ele>154.8</ele>
        <time>2021-08-11T13:01:13Z</time>
      </trkpt>
      <trkpt lat="48.02827" lon="-3.691">
        <ele>154.8</ele>
        <time>2021-08-11T13:01:14Z</time>
      </trkpt>
      <trkpt lat="48.02824" lon="-3.69104">
        <ele>155</ele>
        <time>2021-08-11T13:01:15Z</time>
      </trkpt>
      <trkpt lat="48.02821" lon="-3.69109">
        <ele>155</ele>
        <time>2021-08-11T13:01:16Z</time>
      </trkpt>
      <trkpt lat="48.02819" lon="-3.69113">
        <ele>155</ele>
        <time>2021-08-11T13:01:17Z</time>
      </trkpt>
      <trkpt lat="48.02816" lon="-3.69116">
        <ele>155.2</ele>
        <time>2021-08-11T13:01:18Z</time>
      </trkpt>
      <trkpt lat="48.02813" lon="-3.6912">
        <ele>155.2</ele>
        <time>2021-08-11T13:01:19Z</time>
      </trkpt>
      <trkpt lat="48.02811" lon="-3.69125">
        <ele>155.2</ele>
        <time>2021-08-11T13:01:20Z</time>
      </trkpt>
      <trkpt lat="48.02809" lon="-3.69129">
        <ele>155.4</ele>
        <time>2021-08-11T13:01:21Z</time>
      </trkpt>
      <trkpt lat="48.02807" lon="-3.69133">
        <ele>155.4</ele>
        <time>2021-08-11T13:01:22Z</time>
      </trkpt>
      <trkpt lat="48.02805" lon="-3.69137">
        <ele>155.6</ele>
        <time>2021-08-11T13:01:23Z</time>
      </trkpt>
      <trkpt lat="48.02803" lon="-3.69142">
        <ele>155.6</ele>
        <time>2021-08-11T13:01:24Z</time>
      </trkpt>
      <trkpt lat="48.02801" lon="-3.69146">
        <ele>155.8</ele>
        <time>2021-08-11T13:01:25Z</time>
      </trkpt>
      <trkpt lat="48.02799" lon="-3.69151">
        <ele>155.8</ele>
        <time>2021-08-11T13:01:26Z</time>
      </trkpt>
      <trkpt lat="48.02797" lon="-3.69156">
        <ele>156</ele>
        <time>2021-08-11T13:01:27Z</time>
      </trkpt>
      <trkpt lat="48.02795" lon="-3.69161">
        <ele>156</ele>
        <time>2021-08-11T13:01:28Z</time>
      </trkpt>
      <trkpt lat="48.02793" lon="-3.69164">
        <ele>156</ele>
        <time>2021-08-11T13:01:29Z</time>
      </trkpt>
      <trkpt lat="48.02791" lon="-3.69168">
        <ele>156</ele>
        <time>2021-08-11T13:01:30Z</time>
      </trkpt>
      <trkpt lat="48.02789" lon="-3.69173">
        <ele>156</ele>
        <time>2021-08-11T13:01:31Z</time>
      </trkpt>
      <trkpt lat="48.02787" lon="-3.69177">
        <ele>156.2</ele>
        <time>2021-08-11T13:01:32Z</time>
      </trkpt>
      <trkpt lat="48.02785" lon="-3.69182">
        <ele>156.2</ele>
        <time>2021-08-11T13:01:33Z</time>
      </trkpt>
      <trkpt lat="48.02783" lon="-3.69187">
        <ele>156.2</ele>
        <time>2021-08-11T13:01:34Z</time>
      </trkpt>
      <trkpt lat="48.02781" lon="-3.69192">
        <ele>156.4</ele>
        <time>2021-08-11T13:01:35Z</time>
      </trkpt>
      <trkpt lat="48.02779" lon="-3.69196">
        <ele>156.6</ele>
        <time>2021-08-11T13:01:36Z</time>
      </trkpt>
      <trkpt lat="48.02777" lon="-3.692">
        <ele>156.8</ele>
        <time>2021-08-11T13:01:37Z</time>
      </trkpt>
      <trkpt lat="48.02775" lon="-3.69205">
        <ele>156.8</ele>
        <time>2021-08-11T13:01:38Z</time>
      </trkpt>
      <trkpt lat="48.02774" lon="-3.69209">
        <ele>156.8</ele>
        <time>2021-08-11T13:01:39Z</time>
      </trkpt>
      <trkpt lat="48.02772" lon="-3.69214">
        <ele>157</ele>
        <time>2021-08-11T13:01:40Z</time>
      </trkpt>
      <trkpt lat="48.0277" lon="-3.69218">
        <ele>157</ele>
        <time>2021-08-11T13:01:41Z</time>
      </trkpt>
      <trkpt lat="48.02767" lon="-3.69222">
        <ele>157</ele>
        <time>2021-08-11T13:01:42Z</time>
      </trkpt>
      <trkpt lat="48.02766" lon="-3.69226">
        <ele>157.2</ele>
        <time>2021-08-11T13:01:43Z</time>
      </trkpt>
      <trkpt lat="48.02764" lon="-3.69231">
        <ele>157.2</ele>
        <time>2021-08-11T13:01:44Z</time>
      </trkpt>
      <trkpt lat="48.02762" lon="-3.69236">
        <ele>157.2</ele>
        <time>2021-08-11T13:01:45Z</time>
      </trkpt>
      <trkpt lat="48.02761" lon="-3.6924">
        <ele>157.4</ele>
        <time>2021-08-11T13:01:46Z</time>
      </trkpt>
      <trkpt lat="48.02759" lon="-3.69244">
        <ele>157.4</ele>
        <time>2021-08-11T13:01:47Z</time>
      </trkpt>
      <trkpt lat="48.02757" lon="-3.69249">
        <ele>157.6</ele>
        <time>2021-08-11T13:01:48Z</time>
      </trkpt>
      <trkpt lat="48.02755" lon="-3.69254">
        <ele>157.8</ele>
        <time>2021-08-11T13:01:49Z</time>
      </trkpt>
      <trkpt lat="48.02754" lon="-3.69259">
        <ele>157.8</ele>
        <time>2021-08-11T13:01:50Z</time>
      </trkpt>
      <trkpt lat="48.02752" lon="-3.69264">
        <ele>158</ele>
        <time>2021-08-11T13:01:51Z</time>
      </trkpt>
      <trkpt lat="48.02751" lon="-3.69268">
        <ele>158</ele>
        <time>2021-08-11T13:01:52Z</time>
      </trkpt>
      <trkpt lat="48.02749" lon="-3.69273">
        <ele>158</ele>
        <time>2021-08-11T13:01:53Z</time>
      </trkpt>
      <trkpt lat="48.02747" lon="-3.69277">
        <ele>158</ele>
        <time>2021-08-11T13:01:54Z</time>
      </trkpt>
      <trkpt lat="48.02745" lon="-3.69282">
        <ele>158</ele>
        <time>2021-08-11T13:01:55Z</time>
      </trkpt>
      <trkpt lat="48.02743" lon="-3.69286">
        <ele>158</ele>
        <time>2021-08-11T13:01:56Z</time>
      </trkpt>
      <trkpt lat="48.02742" lon="-3.6929">
        <ele>158.2</ele>
        <time>2021-08-11T13:01:57Z</time>
      </trkpt>
      <trkpt lat="48.0274" lon="-3.69295">
        <ele>158.2</ele>
        <time>2021-08-11T13:01:58Z</time>
      </trkpt>
      <trkpt lat="48.02738" lon="-3.69299">
        <ele>158.2</ele>
        <time>2021-08-11T13:01:59Z</time>
      </trkpt>
      <trkpt lat="48.02737" lon="-3.69304">
        <ele>158.2</ele>
        <time>2021-08-11T13:02:00Z</time>
      </trkpt>
      <trkpt lat="48.02735" lon="-3.6931">
        <ele>158.4</ele>
        <time>2021-08-11T13:02:01Z</time>
      </trkpt>
      <trkpt lat="48.02733" lon="-3.69315">
        <ele>158.4</ele>
        <time>2021-08-11T13:02:02Z</time>
      </trkpt>
      <trkpt lat="48.02732" lon="-3.69319">
        <ele>158.4</ele>
        <time>2021-08-11T13:02:03Z</time>
      </trkpt>
      <trkpt lat="48.02731" lon="-3.69323">
        <ele>158.6</ele>
        <time>2021-08-11T13:02:04Z</time>
      </trkpt>
      <trkpt lat="48.0273" lon="-3.69327">
        <ele>158.6</ele>
        <time>2021-08-11T13:02:05Z</time>
      </trkpt>
      <trkpt lat="48.02728" lon="-3.69331">
        <ele>158.8</ele>
        <time>2021-08-11T13:02:06Z</time>
      </trkpt>
      <trkpt lat="48.02727" lon="-3.69335">
        <ele>158.8</ele>
        <time>2021-08-11T13:02:07Z</time>
      </trkpt>
      <trkpt lat="48.02725" lon="-3.6934">
        <ele>159</ele>
        <time>2021-08-11T13:02:08Z</time>
      </trkpt>
      <trkpt lat="48.02723" lon="-3.69344">
        <ele>159.2</ele>
        <time>2021-08-11T13:02:09Z</time>
      </trkpt>
      <trkpt lat="48.02722" lon="-3.69349">
        <ele>159.4</ele>
        <time>2021-08-11T13:02:10Z</time>
      </trkpt>
      <trkpt lat="48.0272" lon="-3.69355">
        <ele>159.4</ele>
        <time>2021-08-11T13:02:11Z</time>
      </trkpt>
      <trkpt lat="48.02718" lon="-3.6936">
        <ele>159.4</ele>
        <time>2021-08-11T13:02:12Z</time>
      </trkpt>
      <trkpt lat="48.02716" lon="-3.69365">
        <ele>159.4</ele>
        <time>2021-08-11T13:02:13Z</time>
      </trkpt>
      <trkpt lat="48.02715" lon="-3.69368">
        <ele>159.6</ele>
        <time>2021-08-11T13:02:14Z</time>
      </trkpt>
      <trkpt lat="48.02713" lon="-3.69373">
        <ele>159.6</ele>
        <time>2021-08-11T13:02:15Z</time>
      </trkpt>
      <trkpt lat="48.02712" lon="-3.69377">
        <ele>159.6</ele>
        <time>2021-08-11T13:02:16Z</time>
      </trkpt>
      <trkpt lat="48.0271" lon="-3.69382">
        <ele>159.8</ele>
        <time>2021-08-11T13:02:17Z</time>
      </trkpt>
      <trkpt lat="48.02709" lon="-3.69386">
        <ele>159.8</ele>
        <time>2021-08-11T13:02:18Z</time>
      </trkpt>
      <trkpt lat="48.02707" lon="-3.69391">
        <ele>160</ele>
        <time>2021-08-11T13:02:19Z</time>
      </trkpt>
      <trkpt lat="48.02706" lon="-3.69395">
        <ele>160.2</ele>
        <time>2021-08-11T13:02:20Z</time>
      </trkpt>
      <trkpt lat="48.02704" lon="-3.69399">
        <ele>160.2</ele>
        <time>2021-08-11T13:02:21Z</time>
      </trkpt>
      <trkpt lat="48.02703" lon="-3.69404">
        <ele>160.4</ele>
        <time>2021-08-11T13:02:22Z</time>
      </trkpt>
      <trkpt lat="48.02701" lon="-3.6941">
        <ele>160.4</ele>
        <time>2021-08-11T13:02:23Z</time>
      </trkpt>
      <trkpt lat="48.02699" lon="-3.69414">
        <ele>160.4</ele>
        <time>2021-08-11T13:02:24Z</time>
      </trkpt>
      <trkpt lat="48.02698" lon="-3.69417">
        <ele>160.6</ele>
        <time>2021-08-11T13:02:25Z</time>
      </trkpt>
      <trkpt lat="48.02697" lon="-3.69421">
        <ele>160.8</ele>
        <time>2021-08-11T13:02:26Z</time>
      </trkpt>
      <trkpt lat="48.02695" lon="-3.69426">
        <ele>160.8</ele>
        <time>2021-08-11T13:02:27Z</time>
      </trkpt>
      <trkpt lat="48.02693" lon="-3.69431">
        <ele>161</ele>
        <time>2021-08-11T13:02:28Z</time>
      </trkpt>
      <trkpt lat="48.02692" lon="-3.69435">
        <ele>161</ele>
        <time>2021-08-11T13:02:29Z</time>
      </trkpt>
      <trkpt lat="48.02691" lon="-3.69439">
        <ele>161.2</ele>
        <time>2021-08-11T13:02:30Z</time>
      </trkpt>
      <trkpt lat="48.0269" lon="-3.69443">
        <ele>161.2</ele>
        <time>2021-08-11T13:02:31Z</time>
      </trkpt>
      <trkpt lat="48.02688" lon="-3.69447">
        <ele>161.2</ele>
        <time>2021-08-11T13:02:32Z</time>
      </trkpt>
      <trkpt lat="48.02686" lon="-3.69452">
        <ele>161.4</ele>
        <time>2021-08-11T13:02:33Z</time>
      </trkpt>
      <trkpt lat="48.02684" lon="-3.69458">
        <ele>161.4</ele>
        <time>2021-08-11T13:02:34Z</time>
      </trkpt>
      <trkpt lat="48.02682" lon="-3.69465">
        <ele>161.4</ele>
        <time>2021-08-11T13:02:35Z</time>
      </trkpt>
      <trkpt lat="48.0268" lon="-3.69472">
        <ele>161.4</ele>
        <time>2021-08-11T13:02:36Z</time>
      </trkpt>
      <trkpt lat="48.02678" lon="-3.69478">
        <ele>161.6</ele>
        <time>2021-08-11T13:02:37Z</time>
      </trkpt>
      <trkpt lat="48.02675" lon="-3.69485">
        <ele>161.6</ele>
        <time>2021-08-11T13:02:38Z</time>
      </trkpt>
      <trkpt lat="48.02673" lon="-3.69491">
        <ele>161.8</ele>
        <time>2021-08-11T13:02:39Z</time>
      </trkpt>
      <trkpt lat="48.02672" lon="-3.69496">
        <ele>161.8</ele>
        <time>2021-08-11T13:02:40Z</time>
      </trkpt>
      <trkpt lat="48.0267" lon="-3.69502">
        <ele>161.8</ele>
        <time>2021-08-11T13:02:41Z</time>
      </trkpt>
      <trkpt lat="48.02669" lon="-3.69506">
        <ele>161.8</ele>
        <time>2021-08-11T13:02:42Z</time>
      </trkpt>
      <trkpt lat="48.02667" lon="-3.69511">
        <ele>162</ele>
        <time>2021-08-11T13:02:43Z</time>
      </trkpt>
      <trkpt lat="48.02666" lon="-3.69516">
        <ele>162</ele>
        <time>2021-08-11T13:02:44Z</time>
      </trkpt>
      <trkpt lat="48.02664" lon="-3.6952">
        <ele>162</ele>
        <time>2021-08-11T13:02:45Z</time>
      </trkpt>
      <trkpt lat="48.02662" lon="-3.69525">
        <ele>162</ele>
        <time>2021-08-11T13:02:46Z</time>
      </trkpt>
      <trkpt lat="48.02661" lon="-3.6953">
        <ele>162.2</ele>
        <time>2021-08-11T13:02:47Z</time>
      </trkpt>
      <trkpt lat="48.02659" lon="-3.69535">
        <ele>162.2</ele>
        <time>2021-08-11T13:02:48Z</time>
      </trkpt>
      <trkpt lat="48.02658" lon="-3.69541">
        <ele>162.4</ele>
        <time>2021-08-11T13:02:49Z</time>
      </trkpt>
      <trkpt lat="48.02657" lon="-3.69546">
        <ele>162.4</ele>
        <time>2021-08-11T13:02:50Z</time>
      </trkpt>
      <trkpt lat="48.02655" lon="-3.69552">
        <ele>162.6</ele>
        <time>2021-08-11T13:02:51Z</time>
      </trkpt>
      <trkpt lat="48.02654" lon="-3.69557">
        <ele>162.8</ele>
        <time>2021-08-11T13:02:52Z</time>
      </trkpt>
      <trkpt lat="48.02653" lon="-3.69561">
        <ele>162.8</ele>
        <time>2021-08-11T13:02:53Z</time>
      </trkpt>
      <trkpt lat="48.02651" lon="-3.69565">
        <ele>163</ele>
        <time>2021-08-11T13:02:54Z</time>
      </trkpt>
      <trkpt lat="48.02649" lon="-3.69568">
        <ele>163</ele>
        <time>2021-08-11T13:02:55Z</time>
      </trkpt>
      <trkpt lat="48.02648" lon="-3.69571">
        <ele>163</ele>
        <time>2021-08-11T13:02:56Z</time>
      </trkpt>
      <trkpt lat="48.02648" lon="-3.69573">
        <ele>163.2</ele>
        <time>2021-08-11T13:02:57Z</time>
      </trkpt>
      <trkpt lat="48.02647" lon="-3.69576">
        <ele>163.2</ele>
        <time>2021-08-11T13:02:58Z</time>
      </trkpt>
      <trkpt lat="48.02647" lon="-3.69578">
        <ele>163.2</ele>
        <time>2021-08-11T13:02:59Z</time>
      </trkpt>
      <trkpt lat="48.02646" lon="-3.69581">
        <ele>163.4</ele>
        <time>2021-08-11T13:03:00Z</time>
      </trkpt>
      <trkpt lat="48.02645" lon="-3.69584">
        <ele>163.4</ele>
        <time>2021-08-11T13:03:01Z</time>
      </trkpt>
      <trkpt lat="48.02645" lon="-3.69587">
        <ele>163.4</ele>
        <time>2021-08-11T13:03:02Z</time>
      </trkpt>
      <trkpt lat="48.02644" lon="-3.69589">
        <ele>163.6</ele>
        <time>2021-08-11T13:03:03Z</time>
      </trkpt>
      <trkpt lat="48.02644" lon="-3.69591">
        <ele>163.8</ele>
        <time>2021-08-11T13:03:04Z</time>
      </trkpt>
      <trkpt lat="48.02643" lon="-3.69593">
        <ele>164</ele>
        <time>2021-08-11T13:03:05Z</time>
      </trkpt>
      <trkpt lat="48.02642" lon="-3.69596">
        <ele>164</ele>
        <time>2021-08-11T13:03:06Z</time>
      </trkpt>
      <trkpt lat="48.02641" lon="-3.69598">
        <ele>164</ele>
        <time>2021-08-11T13:03:07Z</time>
      </trkpt>
      <trkpt lat="48.0264" lon="-3.696">
        <ele>164.2</ele>
        <time>2021-08-11T13:03:08Z</time>
      </trkpt>
      <trkpt lat="48.02639" lon="-3.69602">
        <ele>164.2</ele>
        <time>2021-08-11T13:03:09Z</time>
      </trkpt>
      <trkpt lat="48.02639" lon="-3.69604">
        <ele>164.2</ele>
        <time>2021-08-11T13:03:10Z</time>
      </trkpt>
      <trkpt lat="48.02638" lon="-3.69606">
        <ele>164.2</ele>
        <time>2021-08-11T13:03:11Z</time>
      </trkpt>
      <trkpt lat="48.02638" lon="-3.69609">
        <ele>164.2</ele>
        <time>2021-08-11T13:03:12Z</time>
      </trkpt>
      <trkpt lat="48.02637" lon="-3.69611">
        <ele>164.2</ele>
        <time>2021-08-11T13:03:13Z</time>
      </trkpt>
      <trkpt lat="48.02637" lon="-3.69613">
        <ele>164.2</ele>
        <time>2021-08-11T13:03:14Z</time>
      </trkpt>
      <trkpt lat="48.02636" lon="-3.69615">
        <ele>164.4</ele>
        <time>2021-08-11T13:03:15Z</time>
      </trkpt>
      <trkpt lat="48.02635" lon="-3.69618">
        <ele>164.4</ele>
        <time>2021-08-11T13:03:16Z</time>
      </trkpt>
      <trkpt lat="48.02634" lon="-3.69619">
        <ele>164.4</ele>
        <time>2021-08-11T13:03:17Z</time>
      </trkpt>
      <trkpt lat="48.02633" lon="-3.69621">
        <ele>164.4</ele>
        <time>2021-08-11T13:03:18Z</time>
      </trkpt>
      <trkpt lat="48.02631" lon="-3.69624">
        <ele>164.4</ele>
        <time>2021-08-11T13:03:19Z</time>
      </trkpt>
      <trkpt lat="48.02631" lon="-3.69626">
        <ele>164.4</ele>
        <time>2021-08-11T13:03:20Z</time>
      </trkpt>
      <trkpt lat="48.0263" lon="-3.69629">
        <ele>164.6</ele>
        <time>2021-08-11T13:03:21Z</time>
      </trkpt>
      <trkpt lat="48.02629" lon="-3.69632">
        <ele>164.6</ele>
        <time>2021-08-11T13:03:22Z</time>
      </trkpt>
      <trkpt lat="48.02628" lon="-3.69635">
        <ele>164.6</ele>
        <time>2021-08-11T13:03:23Z</time>
      </trkpt>
      <trkpt lat="48.02628" lon="-3.69637">
        <ele>164.6</ele>
        <time>2021-08-11T13:03:24Z</time>
      </trkpt>
      <trkpt lat="48.02627" lon="-3.69639">
        <ele>164.6</ele>
        <time>2021-08-11T13:03:25Z</time>
      </trkpt>
      <trkpt lat="48.02627" lon="-3.69641">
        <ele>164.6</ele>
        <time>2021-08-11T13:03:26Z</time>
      </trkpt>
      <trkpt lat="48.02626" lon="-3.69643">
        <ele>164.6</ele>
        <time>2021-08-11T13:03:27Z</time>
      </trkpt>
      <trkpt lat="48.02626" lon="-3.69645">
        <ele>164.6</ele>
        <time>2021-08-11T13:03:28Z</time>
      </trkpt>
      <trkpt lat="48.02626" lon="-3.69647">
        <ele>164.6</ele>
        <time>2021-08-11T13:03:29Z</time>
      </trkpt>
      <trkpt lat="48.02626" lon="-3.69648">
        <ele>164.6</ele>
        <time>2021-08-11T13:03:30Z</time>
      </trkpt>
      <trkpt lat="48.02626" lon="-3.69648">
        <ele>164.8</ele>
        <time>2021-08-11T13:03:31Z</time>
      </trkpt>
      <trkpt lat="48.02626" lon="-3.69648">
        <ele>164.8</ele>
        <time>2021-08-11T13:03:32Z</time>
      </trkpt>
      <trkpt lat="48.02625" lon="-3.69649">
        <ele>164.8</ele>
        <time>2021-08-11T13:03:33Z</time>
      </trkpt>
      <trkpt lat="48.02625" lon="-3.69649">
        <ele>164.8</ele>
        <time>2021-08-11T13:03:34Z</time>
      </trkpt>
      <trkpt lat="48.02625" lon="-3.69652">
        <ele>164.8</ele>
        <time>2021-08-11T13:03:43Z</time>
      </trkpt>
      <trkpt lat="48.02625" lon="-3.69652">
        <ele>164.8</ele>
        <time>2021-08-11T13:03:44Z</time>
      </trkpt>
      <trkpt lat="48.02625" lon="-3.69652">
        <ele>164.8</ele>
        <time>2021-08-11T13:03:45Z</time>
      </trkpt>
      <trkpt lat="48.02625" lon="-3.69652">
        <ele>164.8</ele>
        <time>2021-08-11T13:03:46Z</time>
      </trkpt>
      <trkpt lat="48.02619" lon="-3.69659">
        <ele>167.4</ele>
        <time>2021-08-11T13:32:22Z</time>
      </trkpt>
      <trkpt lat="48.02618" lon="-3.69662">
        <ele>167.4</ele>
        <time>2021-08-11T13:32:23Z</time>
      </trkpt>
      <trkpt lat="48.02617" lon="-3.69665">
        <ele>167.4</ele>
        <time>2021-08-11T13:32:24Z</time>
      </trkpt>
      <trkpt lat="48.02616" lon="-3.69669">
        <ele>167.4</ele>
        <time>2021-08-11T13:32:25Z</time>
      </trkpt>
      <trkpt lat="48.02615" lon="-3.69673">
        <ele>167.4</ele>
        <time>2021-08-11T13:32:26Z</time>
      </trkpt>
      <trkpt lat="48.02614" lon="-3.69678">
        <ele>167.2</ele>
        <time>2021-08-11T13:32:27Z</time>
      </trkpt>
      <trkpt lat="48.02612" lon="-3.69682">
        <ele>167.2</ele>
        <time>2021-08-11T13:32:28Z</time>
      </trkpt>
      <trkpt lat="48.02611" lon="-3.69687">
        <ele>167.2</ele>
        <time>2021-08-11T13:32:29Z</time>
      </trkpt>
      <trkpt lat="48.0261" lon="-3.69691">
        <ele>167.2</ele>
        <time>2021-08-11T13:32:30Z</time>
      </trkpt>
      <trkpt lat="48.02609" lon="-3.69696">
        <ele>167.2</ele>
        <time>2021-08-11T13:32:31Z</time>
      </trkpt>
      <trkpt lat="48.02607" lon="-3.697">
        <ele>167.2</ele>
        <time>2021-08-11T13:32:32Z</time>
      </trkpt>
      <trkpt lat="48.02605" lon="-3.69705">
        <ele>167.2</ele>
        <time>2021-08-11T13:32:33Z</time>
      </trkpt>
      <trkpt lat="48.02604" lon="-3.6971">
        <ele>167.2</ele>
        <time>2021-08-11T13:32:34Z</time>
      </trkpt>
      <trkpt lat="48.02602" lon="-3.69714">
        <ele>167.2</ele>
        <time>2021-08-11T13:32:35Z</time>
      </trkpt>
      <trkpt lat="48.02601" lon="-3.69719">
        <ele>167.2</ele>
        <time>2021-08-11T13:32:36Z</time>
      </trkpt>
      <trkpt lat="48.02599" lon="-3.69724">
        <ele>167.2</ele>
        <time>2021-08-11T13:32:37Z</time>
      </trkpt>
      <trkpt lat="48.02598" lon="-3.69728">
        <ele>167.2</ele>
        <time>2021-08-11T13:32:38Z</time>
      </trkpt>
      <trkpt lat="48.02596" lon="-3.69733">
        <ele>167.2</ele>
        <time>2021-08-11T13:32:39Z</time>
      </trkpt>
      <trkpt lat="48.02595" lon="-3.69738">
        <ele>167.4</ele>
        <time>2021-08-11T13:32:40Z</time>
      </trkpt>
      <trkpt lat="48.02593" lon="-3.69742">
        <ele>167.4</ele>
        <time>2021-08-11T13:32:41Z</time>
      </trkpt>
      <trkpt lat="48.02592" lon="-3.69747">
        <ele>167.6</ele>
        <time>2021-08-11T13:32:42Z</time>
      </trkpt>
      <trkpt lat="48.02591" lon="-3.69751">
        <ele>167.6</ele>
        <time>2021-08-11T13:32:43Z</time>
      </trkpt>
      <trkpt lat="48.0259" lon="-3.69756">
        <ele>167.6</ele>
        <time>2021-08-11T13:32:44Z</time>
      </trkpt>
      <trkpt lat="48.02588" lon="-3.6976">
        <ele>167.6</ele>
        <time>2021-08-11T13:32:45Z</time>
      </trkpt>
      <trkpt lat="48.02587" lon="-3.69764">
        <ele>167.6</ele>
        <time>2021-08-11T13:32:46Z</time>
      </trkpt>
      <trkpt lat="48.02585" lon="-3.69769">
        <ele>167.8</ele>
        <time>2021-08-11T13:32:47Z</time>
      </trkpt>
      <trkpt lat="48.02584" lon="-3.69774">
        <ele>168</ele>
        <time>2021-08-11T13:32:48Z</time>
      </trkpt>
      <trkpt lat="48.02582" lon="-3.69778">
        <ele>168</ele>
        <time>2021-08-11T13:32:49Z</time>
      </trkpt>
      <trkpt lat="48.02581" lon="-3.69783">
        <ele>168.2</ele>
        <time>2021-08-11T13:32:50Z</time>
      </trkpt>
      <trkpt lat="48.02579" lon="-3.69787">
        <ele>168.4</ele>
        <time>2021-08-11T13:32:51Z</time>
      </trkpt>
      <trkpt lat="48.02578" lon="-3.69791">
        <ele>168.4</ele>
        <time>2021-08-11T13:32:52Z</time>
      </trkpt>
      <trkpt lat="48.02576" lon="-3.69796">
        <ele>168.6</ele>
        <time>2021-08-11T13:32:53Z</time>
      </trkpt>
      <trkpt lat="48.02575" lon="-3.69801">
        <ele>168.8</ele>
        <time>2021-08-11T13:32:54Z</time>
      </trkpt>
      <trkpt lat="48.02573" lon="-3.69805">
        <ele>168.8</ele>
        <time>2021-08-11T13:32:55Z</time>
      </trkpt>
      <trkpt lat="48.02572" lon="-3.69809">
        <ele>169</ele>
        <time>2021-08-11T13:32:56Z</time>
      </trkpt>
      <trkpt lat="48.02571" lon="-3.69814">
        <ele>169</ele>
        <time>2021-08-11T13:32:57Z</time>
      </trkpt>
      <trkpt lat="48.02569" lon="-3.69818">
        <ele>169</ele>
        <time>2021-08-11T13:32:58Z</time>
      </trkpt>
      <trkpt lat="48.02568" lon="-3.69822">
        <ele>169.2</ele>
        <time>2021-08-11T13:32:59Z</time>
      </trkpt>
      <trkpt lat="48.02567" lon="-3.69825">
        <ele>169.2</ele>
        <time>2021-08-11T13:33:00Z</time>
      </trkpt>
      <trkpt lat="48.02566" lon="-3.69829">
        <ele>169.2</ele>
        <time>2021-08-11T13:33:01Z</time>
      </trkpt>
      <trkpt lat="48.02565" lon="-3.69833">
        <ele>169.4</ele>
        <time>2021-08-11T13:33:02Z</time>
      </trkpt>
      <trkpt lat="48.02564" lon="-3.69836">
        <ele>169.4</ele>
        <time>2021-08-11T13:33:03Z</time>
      </trkpt>
      <trkpt lat="48.02563" lon="-3.6984">
        <ele>169.6</ele>
        <time>2021-08-11T13:33:04Z</time>
      </trkpt>
      <trkpt lat="48.02562" lon="-3.69844">
        <ele>169.8</ele>
        <time>2021-08-11T13:33:05Z</time>
      </trkpt>
      <trkpt lat="48.02561" lon="-3.69848">
        <ele>169.8</ele>
        <time>2021-08-11T13:33:06Z</time>
      </trkpt>
      <trkpt lat="48.02559" lon="-3.69852">
        <ele>169.8</ele>
        <time>2021-08-11T13:33:07Z</time>
      </trkpt>
      <trkpt lat="48.02557" lon="-3.69857">
        <ele>170</ele>
        <time>2021-08-11T13:33:08Z</time>
      </trkpt>
      <trkpt lat="48.02556" lon="-3.69862">
        <ele>170</ele>
        <time>2021-08-11T13:33:09Z</time>
      </trkpt>
      <trkpt lat="48.02554" lon="-3.69867">
        <ele>170.2</ele>
        <time>2021-08-11T13:33:10Z</time>
      </trkpt>
      <trkpt lat="48.02553" lon="-3.69871">
        <ele>170.2</ele>
        <time>2021-08-11T13:33:11Z</time>
      </trkpt>
      <trkpt lat="48.02552" lon="-3.69876">
        <ele>170.2</ele>
        <time>2021-08-11T13:33:12Z</time>
      </trkpt>
      <trkpt lat="48.02551" lon="-3.69881">
        <ele>170.4</ele>
        <time>2021-08-11T13:33:13Z</time>
      </trkpt>
      <trkpt lat="48.0255" lon="-3.69885">
        <ele>170.4</ele>
        <time>2021-08-11T13:33:14Z</time>
      </trkpt>
      <trkpt lat="48.02548" lon="-3.6989">
        <ele>170.4</ele>
        <time>2021-08-11T13:33:15Z</time>
      </trkpt>
      <trkpt lat="48.02547" lon="-3.69894">
        <ele>170.6</ele>
        <time>2021-08-11T13:33:16Z</time>
      </trkpt>
      <trkpt lat="48.02545" lon="-3.69899">
        <ele>170.6</ele>
        <time>2021-08-11T13:33:17Z</time>
      </trkpt>
      <trkpt lat="48.02543" lon="-3.69904">
        <ele>170.8</ele>
        <time>2021-08-11T13:33:18Z</time>
      </trkpt>
      <trkpt lat="48.02541" lon="-3.69909">
        <ele>170.8</ele>
        <time>2021-08-11T13:33:19Z</time>
      </trkpt>
      <trkpt lat="48.02539" lon="-3.69913">
        <ele>170.8</ele>
        <time>2021-08-11T13:33:20Z</time>
      </trkpt>
      <trkpt lat="48.02538" lon="-3.69918">
        <ele>171</ele>
        <time>2021-08-11T13:33:21Z</time>
      </trkpt>
      <trkpt lat="48.02536" lon="-3.69922">
        <ele>171.2</ele>
        <time>2021-08-11T13:33:22Z</time>
      </trkpt>
      <trkpt lat="48.02535" lon="-3.69927">
        <ele>171.2</ele>
        <time>2021-08-11T13:33:23Z</time>
      </trkpt>
      <trkpt lat="48.02533" lon="-3.69932">
        <ele>171.2</ele>
        <time>2021-08-11T13:33:24Z</time>
      </trkpt>
      <trkpt lat="48.02532" lon="-3.69936">
        <ele>171.4</ele>
        <time>2021-08-11T13:33:25Z</time>
      </trkpt>
      <trkpt lat="48.02531" lon="-3.6994">
        <ele>171.4</ele>
        <time>2021-08-11T13:33:26Z</time>
      </trkpt>
      <trkpt lat="48.0253" lon="-3.69945">
        <ele>171.4</ele>
        <time>2021-08-11T13:33:27Z</time>
      </trkpt>
      <trkpt lat="48.02528" lon="-3.6995">
        <ele>171.4</ele>
        <time>2021-08-11T13:33:28Z</time>
      </trkpt>
      <trkpt lat="48.02527" lon="-3.69955">
        <ele>171.6</ele>
        <time>2021-08-11T13:33:29Z</time>
      </trkpt>
      <trkpt lat="48.02525" lon="-3.6996">
        <ele>171.6</ele>
        <time>2021-08-11T13:33:30Z</time>
      </trkpt>
      <trkpt lat="48.02524" lon="-3.69964">
        <ele>171.8</ele>
        <time>2021-08-11T13:33:31Z</time>
      </trkpt>
      <trkpt lat="48.02523" lon="-3.69968">
        <ele>171.8</ele>
        <time>2021-08-11T13:33:32Z</time>
      </trkpt>
      <trkpt lat="48.02521" lon="-3.69972">
        <ele>171.8</ele>
        <time>2021-08-11T13:33:33Z</time>
      </trkpt>
      <trkpt lat="48.0252" lon="-3.69976">
        <ele>171.8</ele>
        <time>2021-08-11T13:33:34Z</time>
      </trkpt>
      <trkpt lat="48.02519" lon="-3.6998">
        <ele>172</ele>
        <time>2021-08-11T13:33:35Z</time>
      </trkpt>
      <trkpt lat="48.02517" lon="-3.69985">
        <ele>172</ele>
        <time>2021-08-11T13:33:36Z</time>
      </trkpt>
      <trkpt lat="48.02516" lon="-3.69991">
        <ele>172</ele>
        <time>2021-08-11T13:33:37Z</time>
      </trkpt>
      <trkpt lat="48.02514" lon="-3.69995">
        <ele>172</ele>
        <time>2021-08-11T13:33:38Z</time>
      </trkpt>
      <trkpt lat="48.02512" lon="-3.7">
        <ele>172</ele>
        <time>2021-08-11T13:33:39Z</time>
      </trkpt>
      <trkpt lat="48.02511" lon="-3.70005">
        <ele>172.2</ele>
        <time>2021-08-11T13:33:40Z</time>
      </trkpt>
      <trkpt lat="48.02509" lon="-3.7001">
        <ele>172.4</ele>
        <time>2021-08-11T13:33:41Z</time>
      </trkpt>
      <trkpt lat="48.02508" lon="-3.70015">
        <ele>172.6</ele>
        <time>2021-08-11T13:33:42Z</time>
      </trkpt>
      <trkpt lat="48.02506" lon="-3.70019">
        <ele>172.6</ele>
        <time>2021-08-11T13:33:43Z</time>
      </trkpt>
      <trkpt lat="48.02505" lon="-3.70024">
        <ele>172.8</ele>
        <time>2021-08-11T13:33:44Z</time>
      </trkpt>
      <trkpt lat="48.02503" lon="-3.70028">
        <ele>172.8</ele>
        <time>2021-08-11T13:33:45Z</time>
      </trkpt>
      <trkpt lat="48.02502" lon="-3.70033">
        <ele>173</ele>
        <time>2021-08-11T13:33:46Z</time>
      </trkpt>
      <trkpt lat="48.025" lon="-3.70038">
        <ele>173</ele>
        <time>2021-08-11T13:33:47Z</time>
      </trkpt>
      <trkpt lat="48.02498" lon="-3.70042">
        <ele>173.2</ele>
        <time>2021-08-11T13:33:48Z</time>
      </trkpt>
      <trkpt lat="48.02497" lon="-3.70047">
        <ele>173.2</ele>
        <time>2021-08-11T13:33:49Z</time>
      </trkpt>
      <trkpt lat="48.02495" lon="-3.70052">
        <ele>173.2</ele>
        <time>2021-08-11T13:33:50Z</time>
      </trkpt>
      <trkpt lat="48.02493" lon="-3.70057">
        <ele>173.2</ele>
        <time>2021-08-11T13:33:51Z</time>
      </trkpt>
      <trkpt lat="48.02492" lon="-3.70062">
        <ele>173.2</ele>
        <time>2021-08-11T13:33:52Z</time>
      </trkpt>
      <trkpt lat="48.0249" lon="-3.70067">
        <ele>173.2</ele>
        <time>2021-08-11T13:33:53Z</time>
      </trkpt>
      <trkpt lat="48.02488" lon="-3.70072">
        <ele>173.2</ele>
        <time>2021-08-11T13:33:54Z</time>
      </trkpt>
      <trkpt lat="48.02487" lon="-3.70077">
        <ele>173.4</ele>
        <time>2021-08-11T13:33:55Z</time>
      </trkpt>
      <trkpt lat="48.02485" lon="-3.70081">
        <ele>173.4</ele>
        <time>2021-08-11T13:33:56Z</time>
      </trkpt>
      <trkpt lat="48.02484" lon="-3.70086">
        <ele>173.4</ele>
        <time>2021-08-11T13:33:57Z</time>
      </trkpt>
      <trkpt lat="48.02483" lon="-3.70091">
        <ele>173.4</ele>
        <time>2021-08-11T13:33:58Z</time>
      </trkpt>
      <trkpt lat="48.02482" lon="-3.70095">
        <ele>173.4</ele>
        <time>2021-08-11T13:33:59Z</time>
      </trkpt>
      <trkpt lat="48.02481" lon="-3.701">
        <ele>173.4</ele>
        <time>2021-08-11T13:34:00Z</time>
      </trkpt>
      <trkpt lat="48.0248" lon="-3.70104">
        <ele>173.6</ele>
        <time>2021-08-11T13:34:01Z</time>
      </trkpt>
      <trkpt lat="48.02479" lon="-3.70109">
        <ele>173.4</ele>
        <time>2021-08-11T13:34:02Z</time>
      </trkpt>
      <trkpt lat="48.02478" lon="-3.70112">
        <ele>173.6</ele>
        <time>2021-08-11T13:34:03Z</time>
      </trkpt>
      <trkpt lat="48.02478" lon="-3.70114">
        <ele>173.6</ele>
        <time>2021-08-11T13:34:04Z</time>
      </trkpt>
      <trkpt lat="48.02478" lon="-3.70116">
        <ele>173.8</ele>
        <time>2021-08-11T13:34:05Z</time>
      </trkpt>
      <trkpt lat="48.02477" lon="-3.70116">
        <ele>173.8</ele>
        <time>2021-08-11T13:34:06Z</time>
      </trkpt>
      <trkpt lat="48.02475" lon="-3.70116">
        <ele>174</ele>
        <time>2021-08-11T13:34:07Z</time>
      </trkpt>
      <trkpt lat="48.02473" lon="-3.70115">
        <ele>174</ele>
        <time>2021-08-11T13:34:08Z</time>
      </trkpt>
      <trkpt lat="48.0247" lon="-3.70118">
        <ele>174</ele>
        <time>2021-08-11T13:34:09Z</time>
      </trkpt>
      <trkpt lat="48.02471" lon="-3.70127">
        <ele>174.2</ele>
        <time>2021-08-11T13:34:10Z</time>
      </trkpt>
      <trkpt lat="48.02471" lon="-3.70133">
        <ele>174.4</ele>
        <time>2021-08-11T13:34:11Z</time>
      </trkpt>
      <trkpt lat="48.02472" lon="-3.7014">
        <ele>174.6</ele>
        <time>2021-08-11T13:34:12Z</time>
      </trkpt>
      <trkpt lat="48.02472" lon="-3.70146">
        <ele>174.8</ele>
        <time>2021-08-11T13:34:13Z</time>
      </trkpt>
      <trkpt lat="48.02472" lon="-3.70152">
        <ele>174.8</ele>
        <time>2021-08-11T13:34:14Z</time>
      </trkpt>
      <trkpt lat="48.02471" lon="-3.70158">
        <ele>175</ele>
        <time>2021-08-11T13:34:15Z</time>
      </trkpt>
      <trkpt lat="48.02471" lon="-3.70163">
        <ele>175.2</ele>
        <time>2021-08-11T13:34:16Z</time>
      </trkpt>
      <trkpt lat="48.0247" lon="-3.70169">
        <ele>175.2</ele>
        <time>2021-08-11T13:34:17Z</time>
      </trkpt>
      <trkpt lat="48.02469" lon="-3.70174">
        <ele>175.2</ele>
        <time>2021-08-11T13:34:18Z</time>
      </trkpt>
      <trkpt lat="48.02469" lon="-3.70178">
        <ele>175.2</ele>
        <time>2021-08-11T13:34:19Z</time>
      </trkpt>
      <trkpt lat="48.02468" lon="-3.70184">
        <ele>175.2</ele>
        <time>2021-08-11T13:34:20Z</time>
      </trkpt>
      <trkpt lat="48.02467" lon="-3.7019">
        <ele>175.2</ele>
        <time>2021-08-11T13:34:21Z</time>
      </trkpt>
      <trkpt lat="48.02467" lon="-3.70196">
        <ele>175.4</ele>
        <time>2021-08-11T13:34:22Z</time>
      </trkpt>
      <trkpt lat="48.02466" lon="-3.70202">
        <ele>175.4</ele>
        <time>2021-08-11T13:34:23Z</time>
      </trkpt>
      <trkpt lat="48.02466" lon="-3.70208">
        <ele>175.4</ele>
        <time>2021-08-11T13:34:24Z</time>
      </trkpt>
      <trkpt lat="48.02466" lon="-3.70214">
        <ele>175.4</ele>
        <time>2021-08-11T13:34:25Z</time>
      </trkpt>
      <trkpt lat="48.02466" lon="-3.7022">
        <ele>175.4</ele>
        <time>2021-08-11T13:34:26Z</time>
      </trkpt>
      <trkpt lat="48.02466" lon="-3.70224">
        <ele>175.4</ele>
        <time>2021-08-11T13:34:27Z</time>
      </trkpt>
      <trkpt lat="48.02466" lon="-3.70229">
        <ele>175.4</ele>
        <time>2021-08-11T13:34:28Z</time>
      </trkpt>
      <trkpt lat="48.02466" lon="-3.70233">
        <ele>175.4</ele>
        <time>2021-08-11T13:34:29Z</time>
      </trkpt>
      <trkpt lat="48.02466" lon="-3.70238">
        <ele>175.4</ele>
        <time>2021-08-11T13:34:30Z</time>
      </trkpt>
      <trkpt lat="48.02465" lon="-3.70243">
        <ele>175.6</ele>
        <time>2021-08-11T13:34:31Z</time>
      </trkpt>
      <trkpt lat="48.02466" lon="-3.70249">
        <ele>175.6</ele>
        <time>2021-08-11T13:34:32Z</time>
      </trkpt>
      <trkpt lat="48.02466" lon="-3.70254">
        <ele>175.8</ele>
        <time>2021-08-11T13:34:33Z</time>
      </trkpt>
      <trkpt lat="48.02467" lon="-3.70258">
        <ele>175.8</ele>
        <time>2021-08-11T13:34:34Z</time>
      </trkpt>
      <trkpt lat="48.02468" lon="-3.70263">
        <ele>175.8</ele>
        <time>2021-08-11T13:34:35Z</time>
      </trkpt>
      <trkpt lat="48.02468" lon="-3.70268">
        <ele>175.8</ele>
        <time>2021-08-11T13:34:36Z</time>
      </trkpt>
      <trkpt lat="48.02469" lon="-3.70273">
        <ele>175.8</ele>
        <time>2021-08-11T13:34:37Z</time>
      </trkpt>
      <trkpt lat="48.0247" lon="-3.70278">
        <ele>176</ele>
        <time>2021-08-11T13:34:38Z</time>
      </trkpt>
      <trkpt lat="48.0247" lon="-3.70283">
        <ele>176</ele>
        <time>2021-08-11T13:34:39Z</time>
      </trkpt>
      <trkpt lat="48.02472" lon="-3.70287">
        <ele>176</ele>
        <time>2021-08-11T13:34:40Z</time>
      </trkpt>
      <trkpt lat="48.02472" lon="-3.70292">
        <ele>176</ele>
        <time>2021-08-11T13:34:41Z</time>
      </trkpt>
      <trkpt lat="48.02472" lon="-3.70298">
        <ele>176</ele>
        <time>2021-08-11T13:34:42Z</time>
      </trkpt>
      <trkpt lat="48.02473" lon="-3.70304">
        <ele>176</ele>
        <time>2021-08-11T13:34:43Z</time>
      </trkpt>
      <trkpt lat="48.02474" lon="-3.70309">
        <ele>176</ele>
        <time>2021-08-11T13:34:44Z</time>
      </trkpt>
      <trkpt lat="48.02474" lon="-3.70316">
        <ele>176</ele>
        <time>2021-08-11T13:34:45Z</time>
      </trkpt>
      <trkpt lat="48.02476" lon="-3.70322">
        <ele>176</ele>
        <time>2021-08-11T13:34:46Z</time>
      </trkpt>
      <trkpt lat="48.02476" lon="-3.70329">
        <ele>176</ele>
        <time>2021-08-11T13:34:47Z</time>
      </trkpt>
      <trkpt lat="48.02476" lon="-3.70336">
        <ele>176</ele>
        <time>2021-08-11T13:34:48Z</time>
      </trkpt>
      <trkpt lat="48.02477" lon="-3.70343">
        <ele>176</ele>
        <time>2021-08-11T13:34:49Z</time>
      </trkpt>
      <trkpt lat="48.02479" lon="-3.7035">
        <ele>176</ele>
        <time>2021-08-11T13:34:50Z</time>
      </trkpt>
      <trkpt lat="48.0248" lon="-3.70357">
        <ele>176</ele>
        <time>2021-08-11T13:34:51Z</time>
      </trkpt>
      <trkpt lat="48.0248" lon="-3.70364">
        <ele>176</ele>
        <time>2021-08-11T13:34:52Z</time>
      </trkpt>
      <trkpt lat="48.02481" lon="-3.70371">
        <ele>176</ele>
        <time>2021-08-11T13:34:53Z</time>
      </trkpt>
      <trkpt lat="48.02481" lon="-3.70377">
        <ele>176</ele>
        <time>2021-08-11T13:34:54Z</time>
      </trkpt>
      <trkpt lat="48.02481" lon="-3.70384">
        <ele>176</ele>
        <time>2021-08-11T13:34:55Z</time>
      </trkpt>
      <trkpt lat="48.02481" lon="-3.7039">
        <ele>176</ele>
        <time>2021-08-11T13:34:56Z</time>
      </trkpt>
      <trkpt lat="48.02482" lon="-3.70395">
        <ele>176.2</ele>
        <time>2021-08-11T13:34:57Z</time>
      </trkpt>
      <trkpt lat="48.02483" lon="-3.70401">
        <ele>176.2</ele>
        <time>2021-08-11T13:34:58Z</time>
      </trkpt>
      <trkpt lat="48.02484" lon="-3.70406">
        <ele>176.2</ele>
        <time>2021-08-11T13:34:59Z</time>
      </trkpt>
      <trkpt lat="48.02485" lon="-3.70412">
        <ele>176.2</ele>
        <time>2021-08-11T13:35:00Z</time>
      </trkpt>
      <trkpt lat="48.02486" lon="-3.70418">
        <ele>176</ele>
        <time>2021-08-11T13:35:01Z</time>
      </trkpt>
      <trkpt lat="48.02486" lon="-3.70424">
        <ele>176.2</ele>
        <time>2021-08-11T13:35:02Z</time>
      </trkpt>
      <trkpt lat="48.02486" lon="-3.70429">
        <ele>176.2</ele>
        <time>2021-08-11T13:35:03Z</time>
      </trkpt>
      <trkpt lat="48.02487" lon="-3.70434">
        <ele>176.2</ele>
        <time>2021-08-11T13:35:04Z</time>
      </trkpt>
      <trkpt lat="48.02487" lon="-3.70439">
        <ele>176.4</ele>
        <time>2021-08-11T13:35:05Z</time>
      </trkpt>
      <trkpt lat="48.02487" lon="-3.70444">
        <ele>176.4</ele>
        <time>2021-08-11T13:35:06Z</time>
      </trkpt>
      <trkpt lat="48.02486" lon="-3.70448">
        <ele>176.4</ele>
        <time>2021-08-11T13:35:07Z</time>
      </trkpt>
      <trkpt lat="48.02487" lon="-3.70452">
        <ele>176.2</ele>
        <time>2021-08-11T13:35:08Z</time>
      </trkpt>
      <trkpt lat="48.02487" lon="-3.70455">
        <ele>176.4</ele>
        <time>2021-08-11T13:35:09Z</time>
      </trkpt>
      <trkpt lat="48.02488" lon="-3.70458">
        <ele>176.4</ele>
        <time>2021-08-11T13:35:10Z</time>
      </trkpt>
      <trkpt lat="48.02488" lon="-3.70463">
        <ele>176.6</ele>
        <time>2021-08-11T13:35:11Z</time>
      </trkpt>
      <trkpt lat="48.02489" lon="-3.70467">
        <ele>176.8</ele>
        <time>2021-08-11T13:35:12Z</time>
      </trkpt>
      <trkpt lat="48.02489" lon="-3.70473">
        <ele>176.8</ele>
        <time>2021-08-11T13:35:13Z</time>
      </trkpt>
      <trkpt lat="48.02489" lon="-3.70478">
        <ele>177</ele>
        <time>2021-08-11T13:35:14Z</time>
      </trkpt>
      <trkpt lat="48.0249" lon="-3.70484">
        <ele>177</ele>
        <time>2021-08-11T13:35:15Z</time>
      </trkpt>
      <trkpt lat="48.0249" lon="-3.7049">
        <ele>177</ele>
        <time>2021-08-11T13:35:16Z</time>
      </trkpt>
      <trkpt lat="48.02491" lon="-3.70496">
        <ele>177</ele>
        <time>2021-08-11T13:35:17Z</time>
      </trkpt>
      <trkpt lat="48.02491" lon="-3.70502">
        <ele>177</ele>
        <time>2021-08-11T13:35:18Z</time>
      </trkpt>
      <trkpt lat="48.02492" lon="-3.70508">
        <ele>177</ele>
        <time>2021-08-11T13:35:19Z</time>
      </trkpt>
      <trkpt lat="48.02492" lon="-3.70515">
        <ele>177</ele>
        <time>2021-08-11T13:35:20Z</time>
      </trkpt>
      <trkpt lat="48.02493" lon="-3.70521">
        <ele>176.8</ele>
        <time>2021-08-11T13:35:21Z</time>
      </trkpt>
      <trkpt lat="48.02494" lon="-3.70528">
        <ele>176.8</ele>
        <time>2021-08-11T13:35:22Z</time>
      </trkpt>
      <trkpt lat="48.02495" lon="-3.70535">
        <ele>176.8</ele>
        <time>2021-08-11T13:35:23Z</time>
      </trkpt>
      <trkpt lat="48.02496" lon="-3.70541">
        <ele>176.6</ele>
        <time>2021-08-11T13:35:24Z</time>
      </trkpt>
      <trkpt lat="48.02496" lon="-3.70548">
        <ele>176.6</ele>
        <time>2021-08-11T13:35:25Z</time>
      </trkpt>
      <trkpt lat="48.02497" lon="-3.70555">
        <ele>176.6</ele>
        <time>2021-08-11T13:35:26Z</time>
      </trkpt>
      <trkpt lat="48.02498" lon="-3.70562">
        <ele>176.6</ele>
        <time>2021-08-11T13:35:27Z</time>
      </trkpt>
      <trkpt lat="48.02499" lon="-3.70569">
        <ele>176.6</ele>
        <time>2021-08-11T13:35:28Z</time>
      </trkpt>
      <trkpt lat="48.02499" lon="-3.70576">
        <ele>176.6</ele>
        <time>2021-08-11T13:35:29Z</time>
      </trkpt>
      <trkpt lat="48.025" lon="-3.70583">
        <ele>176.4</ele>
        <time>2021-08-11T13:35:30Z</time>
      </trkpt>
      <trkpt lat="48.02501" lon="-3.7059">
        <ele>176.4</ele>
        <time>2021-08-11T13:35:31Z</time>
      </trkpt>
      <trkpt lat="48.02502" lon="-3.70597">
        <ele>176.4</ele>
        <time>2021-08-11T13:35:32Z</time>
      </trkpt>
      <trkpt lat="48.02503" lon="-3.70604">
        <ele>176.4</ele>
        <time>2021-08-11T13:35:33Z</time>
      </trkpt>
      <trkpt lat="48.02504" lon="-3.70611">
        <ele>176.4</ele>
        <time>2021-08-11T13:35:34Z</time>
      </trkpt>
      <trkpt lat="48.02505" lon="-3.70618">
        <ele>176.4</ele>
        <time>2021-08-11T13:35:35Z</time>
      </trkpt>
      <trkpt lat="48.02506" lon="-3.70626">
        <ele>176.2</ele>
        <time>2021-08-11T13:35:36Z</time>
      </trkpt>
      <trkpt lat="48.02507" lon="-3.70633">
        <ele>176.4</ele>
        <time>2021-08-11T13:35:37Z</time>
      </trkpt>
      <trkpt lat="48.02508" lon="-3.7064">
        <ele>176.2</ele>
        <time>2021-08-11T13:35:38Z</time>
      </trkpt>
      <trkpt lat="48.02509" lon="-3.70647">
        <ele>176.2</ele>
        <time>2021-08-11T13:35:39Z</time>
      </trkpt>
      <trkpt lat="48.02509" lon="-3.70654">
        <ele>176.2</ele>
        <time>2021-08-11T13:35:40Z</time>
      </trkpt>
      <trkpt lat="48.0251" lon="-3.70661">
        <ele>176.2</ele>
        <time>2021-08-11T13:35:41Z</time>
      </trkpt>
      <trkpt lat="48.02511" lon="-3.70668">
        <ele>176.4</ele>
        <time>2021-08-11T13:35:42Z</time>
      </trkpt>
      <trkpt lat="48.02512" lon="-3.70675">
        <ele>176.4</ele>
        <time>2021-08-11T13:35:43Z</time>
      </trkpt>
      <trkpt lat="48.02513" lon="-3.70682">
        <ele>176.6</ele>
        <time>2021-08-11T13:35:44Z</time>
      </trkpt>
      <trkpt lat="48.02513" lon="-3.70688">
        <ele>176.6</ele>
        <time>2021-08-11T13:35:45Z</time>
      </trkpt>
      <trkpt lat="48.02514" lon="-3.70695">
        <ele>176.6</ele>
        <time>2021-08-11T13:35:46Z</time>
      </trkpt>
      <trkpt lat="48.02515" lon="-3.70701">
        <ele>176.6</ele>
        <time>2021-08-11T13:35:47Z</time>
      </trkpt>
      <trkpt lat="48.02516" lon="-3.70707">
        <ele>176.6</ele>
        <time>2021-08-11T13:35:48Z</time>
      </trkpt>
      <trkpt lat="48.02516" lon="-3.70713">
        <ele>176.6</ele>
        <time>2021-08-11T13:35:49Z</time>
      </trkpt>
      <trkpt lat="48.02517" lon="-3.7072">
        <ele>176.6</ele>
        <time>2021-08-11T13:35:50Z</time>
      </trkpt>
      <trkpt lat="48.02517" lon="-3.70726">
        <ele>176.6</ele>
        <time>2021-08-11T13:35:51Z</time>
      </trkpt>
      <trkpt lat="48.02518" lon="-3.70732">
        <ele>176.6</ele>
        <time>2021-08-11T13:35:52Z</time>
      </trkpt>
      <trkpt lat="48.02519" lon="-3.70738">
        <ele>176.6</ele>
        <time>2021-08-11T13:35:53Z</time>
      </trkpt>
      <trkpt lat="48.02519" lon="-3.70743">
        <ele>176.6</ele>
        <time>2021-08-11T13:35:54Z</time>
      </trkpt>
      <trkpt lat="48.02519" lon="-3.70749">
        <ele>176.6</ele>
        <time>2021-08-11T13:35:55Z</time>
      </trkpt>
      <trkpt lat="48.02519" lon="-3.70755">
        <ele>176.6</ele>
        <time>2021-08-11T13:35:56Z</time>
      </trkpt>
      <trkpt lat="48.02519" lon="-3.7076">
        <ele>176.6</ele>
        <time>2021-08-11T13:35:57Z</time>
      </trkpt>
      <trkpt lat="48.0252" lon="-3.70766">
        <ele>176.6</ele>
        <time>2021-08-11T13:35:58Z</time>
      </trkpt>
      <trkpt lat="48.0252" lon="-3.70772">
        <ele>176.6</ele>
        <time>2021-08-11T13:35:59Z</time>
      </trkpt>
      <trkpt lat="48.02519" lon="-3.70778">
        <ele>176.6</ele>
        <time>2021-08-11T13:36:00Z</time>
      </trkpt>
      <trkpt lat="48.02519" lon="-3.70785">
        <ele>176.6</ele>
        <time>2021-08-11T13:36:01Z</time>
      </trkpt>
      <trkpt lat="48.02519" lon="-3.70792">
        <ele>176.6</ele>
        <time>2021-08-11T13:36:02Z</time>
      </trkpt>
      <trkpt lat="48.02519" lon="-3.70799">
        <ele>176.6</ele>
        <time>2021-08-11T13:36:03Z</time>
      </trkpt>
      <trkpt lat="48.02518" lon="-3.70806">
        <ele>176.6</ele>
        <time>2021-08-11T13:36:04Z</time>
      </trkpt>
      <trkpt lat="48.02517" lon="-3.70813">
        <ele>176.6</ele>
        <time>2021-08-11T13:36:05Z</time>
      </trkpt>
      <trkpt lat="48.02517" lon="-3.7082">
        <ele>176.6</ele>
        <time>2021-08-11T13:36:06Z</time>
      </trkpt>
      <trkpt lat="48.02516" lon="-3.70827">
        <ele>176.4</ele>
        <time>2021-08-11T13:36:07Z</time>
      </trkpt>
      <trkpt lat="48.02515" lon="-3.70834">
        <ele>176.4</ele>
        <time>2021-08-11T13:36:08Z</time>
      </trkpt>
      <trkpt lat="48.02514" lon="-3.7084">
        <ele>176.2</ele>
        <time>2021-08-11T13:36:09Z</time>
      </trkpt>
      <trkpt lat="48.02513" lon="-3.70847">
        <ele>176</ele>
        <time>2021-08-11T13:36:10Z</time>
      </trkpt>
      <trkpt lat="48.02512" lon="-3.70853">
        <ele>176</ele>
        <time>2021-08-11T13:36:11Z</time>
      </trkpt>
      <trkpt lat="48.0251" lon="-3.70859">
        <ele>175.8</ele>
        <time>2021-08-11T13:36:12Z</time>
      </trkpt>
      <trkpt lat="48.02508" lon="-3.70865">
        <ele>175.8</ele>
        <time>2021-08-11T13:36:13Z</time>
      </trkpt>
      <trkpt lat="48.02507" lon="-3.70871">
        <ele>175.8</ele>
        <time>2021-08-11T13:36:14Z</time>
      </trkpt>
      <trkpt lat="48.02506" lon="-3.70877">
        <ele>175.8</ele>
        <time>2021-08-11T13:36:15Z</time>
      </trkpt>
      <trkpt lat="48.02505" lon="-3.70883">
        <ele>175.8</ele>
        <time>2021-08-11T13:36:16Z</time>
      </trkpt>
      <trkpt lat="48.02503" lon="-3.70888">
        <ele>175.8</ele>
        <time>2021-08-11T13:36:17Z</time>
      </trkpt>
      <trkpt lat="48.02502" lon="-3.70894">
        <ele>175.8</ele>
        <time>2021-08-11T13:36:18Z</time>
      </trkpt>
      <trkpt lat="48.025" lon="-3.70899">
        <ele>175.8</ele>
        <time>2021-08-11T13:36:19Z</time>
      </trkpt>
      <trkpt lat="48.02499" lon="-3.70905">
        <ele>175.8</ele>
        <time>2021-08-11T13:36:20Z</time>
      </trkpt>
      <trkpt lat="48.02497" lon="-3.7091">
        <ele>175.8</ele>
        <time>2021-08-11T13:36:21Z</time>
      </trkpt>
      <trkpt lat="48.02495" lon="-3.70916">
        <ele>175.8</ele>
        <time>2021-08-11T13:36:22Z</time>
      </trkpt>
      <trkpt lat="48.02493" lon="-3.70921">
        <ele>175.8</ele>
        <time>2021-08-11T13:36:23Z</time>
      </trkpt>
      <trkpt lat="48.02491" lon="-3.70926">
        <ele>176</ele>
        <time>2021-08-11T13:36:24Z</time>
      </trkpt>
      <trkpt lat="48.02489" lon="-3.70932">
        <ele>176</ele>
        <time>2021-08-11T13:36:25Z</time>
      </trkpt>
      <trkpt lat="48.02487" lon="-3.70937">
        <ele>176</ele>
        <time>2021-08-11T13:36:26Z</time>
      </trkpt>
      <trkpt lat="48.02484" lon="-3.70943">
        <ele>176.2</ele>
        <time>2021-08-11T13:36:27Z</time>
      </trkpt>
      <trkpt lat="48.02482" lon="-3.70948">
        <ele>176.2</ele>
        <time>2021-08-11T13:36:28Z</time>
      </trkpt>
      <trkpt lat="48.0248" lon="-3.70954">
        <ele>176.2</ele>
        <time>2021-08-11T13:36:29Z</time>
      </trkpt>
      <trkpt lat="48.02477" lon="-3.7096">
        <ele>176.2</ele>
        <time>2021-08-11T13:36:30Z</time>
      </trkpt>
      <trkpt lat="48.02475" lon="-3.70965">
        <ele>176.2</ele>
        <time>2021-08-11T13:36:31Z</time>
      </trkpt>
      <trkpt lat="48.02473" lon="-3.7097">
        <ele>176.2</ele>
        <time>2021-08-11T13:36:32Z</time>
      </trkpt>
      <trkpt lat="48.0247" lon="-3.70975">
        <ele>176.2</ele>
        <time>2021-08-11T13:36:33Z</time>
      </trkpt>
      <trkpt lat="48.02468" lon="-3.7098">
        <ele>176.2</ele>
        <time>2021-08-11T13:36:34Z</time>
      </trkpt>
      <trkpt lat="48.02466" lon="-3.70985">
        <ele>176.2</ele>
        <time>2021-08-11T13:36:35Z</time>
      </trkpt>
      <trkpt lat="48.02464" lon="-3.7099">
        <ele>176</ele>
        <time>2021-08-11T13:36:36Z</time>
      </trkpt>
      <trkpt lat="48.02462" lon="-3.70995">
        <ele>176</ele>
        <time>2021-08-11T13:36:37Z</time>
      </trkpt>
      <trkpt lat="48.0246" lon="-3.71001">
        <ele>176</ele>
        <time>2021-08-11T13:36:38Z</time>
      </trkpt>
      <trkpt lat="48.02458" lon="-3.71006">
        <ele>176</ele>
        <time>2021-08-11T13:36:39Z</time>
      </trkpt>
      <trkpt lat="48.02456" lon="-3.71011">
        <ele>175.8</ele>
        <time>2021-08-11T13:36:40Z</time>
      </trkpt>
      <trkpt lat="48.02454" lon="-3.71015">
        <ele>175.8</ele>
        <time>2021-08-11T13:36:41Z</time>
      </trkpt>
      <trkpt lat="48.02452" lon="-3.7102">
        <ele>175.8</ele>
        <time>2021-08-11T13:36:42Z</time>
      </trkpt>
      <trkpt lat="48.0245" lon="-3.71026">
        <ele>175.8</ele>
        <time>2021-08-11T13:36:43Z</time>
      </trkpt>
      <trkpt lat="48.02448" lon="-3.71031">
        <ele>175.8</ele>
        <time>2021-08-11T13:36:44Z</time>
      </trkpt>
      <trkpt lat="48.02445" lon="-3.71037">
        <ele>175.8</ele>
        <time>2021-08-11T13:36:45Z</time>
      </trkpt>
      <trkpt lat="48.02443" lon="-3.71042">
        <ele>175.8</ele>
        <time>2021-08-11T13:36:46Z</time>
      </trkpt>
      <trkpt lat="48.02441" lon="-3.71047">
        <ele>175.8</ele>
        <time>2021-08-11T13:36:47Z</time>
      </trkpt>
      <trkpt lat="48.0244" lon="-3.71052">
        <ele>175.8</ele>
        <time>2021-08-11T13:36:48Z</time>
      </trkpt>
      <trkpt lat="48.02438" lon="-3.71057">
        <ele>175.8</ele>
        <time>2021-08-11T13:36:49Z</time>
      </trkpt>
      <trkpt lat="48.02436" lon="-3.71061">
        <ele>175.8</ele>
        <time>2021-08-11T13:36:50Z</time>
      </trkpt>
      <trkpt lat="48.02434" lon="-3.71066">
        <ele>175.8</ele>
        <time>2021-08-11T13:36:51Z</time>
      </trkpt>
      <trkpt lat="48.02432" lon="-3.7107">
        <ele>175.8</ele>
        <time>2021-08-11T13:36:52Z</time>
      </trkpt>
      <trkpt lat="48.0243" lon="-3.71075">
        <ele>175.8</ele>
        <time>2021-08-11T13:36:53Z</time>
      </trkpt>
      <trkpt lat="48.02428" lon="-3.7108">
        <ele>175.8</ele>
        <time>2021-08-11T13:36:54Z</time>
      </trkpt>
      <trkpt lat="48.02425" lon="-3.71086">
        <ele>175.8</ele>
        <time>2021-08-11T13:36:55Z</time>
      </trkpt>
      <trkpt lat="48.02423" lon="-3.71091">
        <ele>175.6</ele>
        <time>2021-08-11T13:36:56Z</time>
      </trkpt>
      <trkpt lat="48.0242" lon="-3.71096">
        <ele>175.6</ele>
        <time>2021-08-11T13:36:57Z</time>
      </trkpt>
      <trkpt lat="48.02418" lon="-3.71102">
        <ele>175.6</ele>
        <time>2021-08-11T13:36:58Z</time>
      </trkpt>
      <trkpt lat="48.02416" lon="-3.71107">
        <ele>175.6</ele>
        <time>2021-08-11T13:36:59Z</time>
      </trkpt>
      <trkpt lat="48.02414" lon="-3.71112">
        <ele>175.6</ele>
        <time>2021-08-11T13:37:00Z</time>
      </trkpt>
      <trkpt lat="48.02413" lon="-3.71116">
        <ele>175.6</ele>
        <time>2021-08-11T13:37:01Z</time>
      </trkpt>
      <trkpt lat="48.02411" lon="-3.71121">
        <ele>175.6</ele>
        <time>2021-08-11T13:37:02Z</time>
      </trkpt>
      <trkpt lat="48.0241" lon="-3.71125">
        <ele>175.6</ele>
        <time>2021-08-11T13:37:03Z</time>
      </trkpt>
      <trkpt lat="48.02408" lon="-3.71128">
        <ele>175.6</ele>
        <time>2021-08-11T13:37:04Z</time>
      </trkpt>
      <trkpt lat="48.02405" lon="-3.71133">
        <ele>175.6</ele>
        <time>2021-08-11T13:37:05Z</time>
      </trkpt>
      <trkpt lat="48.02402" lon="-3.71138">
        <ele>175.6</ele>
        <time>2021-08-11T13:37:06Z</time>
      </trkpt>
      <trkpt lat="48.02399" lon="-3.71144">
        <ele>175.6</ele>
        <time>2021-08-11T13:37:07Z</time>
      </trkpt>
      <trkpt lat="48.02397" lon="-3.71149">
        <ele>175.6</ele>
        <time>2021-08-11T13:37:08Z</time>
      </trkpt>
      <trkpt lat="48.02394" lon="-3.71155">
        <ele>175.6</ele>
        <time>2021-08-11T13:37:09Z</time>
      </trkpt>
      <trkpt lat="48.02392" lon="-3.71161">
        <ele>175.6</ele>
        <time>2021-08-11T13:37:10Z</time>
      </trkpt>
      <trkpt lat="48.0239" lon="-3.71167">
        <ele>175.6</ele>
        <time>2021-08-11T13:37:11Z</time>
      </trkpt>
      <trkpt lat="48.02388" lon="-3.71172">
        <ele>175.6</ele>
        <time>2021-08-11T13:37:12Z</time>
      </trkpt>
      <trkpt lat="48.02386" lon="-3.71178">
        <ele>175.6</ele>
        <time>2021-08-11T13:37:13Z</time>
      </trkpt>
      <trkpt lat="48.02383" lon="-3.71184">
        <ele>175.6</ele>
        <time>2021-08-11T13:37:14Z</time>
      </trkpt>
      <trkpt lat="48.02381" lon="-3.7119">
        <ele>175.6</ele>
        <time>2021-08-11T13:37:15Z</time>
      </trkpt>
      <trkpt lat="48.02379" lon="-3.71195">
        <ele>175.6</ele>
        <time>2021-08-11T13:37:16Z</time>
      </trkpt>
      <trkpt lat="48.02377" lon="-3.712">
        <ele>175.6</ele>
        <time>2021-08-11T13:37:17Z</time>
      </trkpt>
      <trkpt lat="48.02375" lon="-3.71204">
        <ele>175.6</ele>
        <time>2021-08-11T13:37:18Z</time>
      </trkpt>
      <trkpt lat="48.02373" lon="-3.71208">
        <ele>175.6</ele>
        <time>2021-08-11T13:37:19Z</time>
      </trkpt>
      <trkpt lat="48.02371" lon="-3.71213">
        <ele>175.6</ele>
        <time>2021-08-11T13:37:20Z</time>
      </trkpt>
      <trkpt lat="48.02369" lon="-3.71218">
        <ele>175.6</ele>
        <time>2021-08-11T13:37:21Z</time>
      </trkpt>
      <trkpt lat="48.02367" lon="-3.71222">
        <ele>175.6</ele>
        <time>2021-08-11T13:37:22Z</time>
      </trkpt>
      <trkpt lat="48.02364" lon="-3.71227">
        <ele>175.6</ele>
        <time>2021-08-11T13:37:23Z</time>
      </trkpt>
      <trkpt lat="48.02361" lon="-3.71232">
        <ele>175.6</ele>
        <time>2021-08-11T13:37:24Z</time>
      </trkpt>
      <trkpt lat="48.02359" lon="-3.71237">
        <ele>175.6</ele>
        <time>2021-08-11T13:37:25Z</time>
      </trkpt>
      <trkpt lat="48.02357" lon="-3.71243">
        <ele>175.6</ele>
        <time>2021-08-11T13:37:26Z</time>
      </trkpt>
      <trkpt lat="48.02355" lon="-3.71249">
        <ele>175.6</ele>
        <time>2021-08-11T13:37:27Z</time>
      </trkpt>
      <trkpt lat="48.02353" lon="-3.71255">
        <ele>175.6</ele>
        <time>2021-08-11T13:37:28Z</time>
      </trkpt>
      <trkpt lat="48.0235" lon="-3.71261">
        <ele>175.8</ele>
        <time>2021-08-11T13:37:29Z</time>
      </trkpt>
      <trkpt lat="48.02348" lon="-3.71267">
        <ele>175.8</ele>
        <time>2021-08-11T13:37:30Z</time>
      </trkpt>
      <trkpt lat="48.02346" lon="-3.71273">
        <ele>175.8</ele>
        <time>2021-08-11T13:37:31Z</time>
      </trkpt>
      <trkpt lat="48.02345" lon="-3.71277">
        <ele>175.8</ele>
        <time>2021-08-11T13:37:32Z</time>
      </trkpt>
      <trkpt lat="48.02343" lon="-3.71281">
        <ele>175.8</ele>
        <time>2021-08-11T13:37:33Z</time>
      </trkpt>
      <trkpt lat="48.02341" lon="-3.71286">
        <ele>175.8</ele>
        <time>2021-08-11T13:37:34Z</time>
      </trkpt>
      <trkpt lat="48.02339" lon="-3.71292">
        <ele>175.8</ele>
        <time>2021-08-11T13:37:35Z</time>
      </trkpt>
      <trkpt lat="48.02336" lon="-3.71297">
        <ele>175.8</ele>
        <time>2021-08-11T13:37:36Z</time>
      </trkpt>
      <trkpt lat="48.02334" lon="-3.71303">
        <ele>175.8</ele>
        <time>2021-08-11T13:37:37Z</time>
      </trkpt>
      <trkpt lat="48.02332" lon="-3.71308">
        <ele>175.8</ele>
        <time>2021-08-11T13:37:38Z</time>
      </trkpt>
      <trkpt lat="48.0233" lon="-3.71313">
        <ele>175.6</ele>
        <time>2021-08-11T13:37:39Z</time>
      </trkpt>
      <trkpt lat="48.02329" lon="-3.71318">
        <ele>175.6</ele>
        <time>2021-08-11T13:37:40Z</time>
      </trkpt>
      <trkpt lat="48.02327" lon="-3.71322">
        <ele>175.6</ele>
        <time>2021-08-11T13:37:41Z</time>
      </trkpt>
      <trkpt lat="48.02325" lon="-3.71326">
        <ele>175.6</ele>
        <time>2021-08-11T13:37:42Z</time>
      </trkpt>
      <trkpt lat="48.02323" lon="-3.71331">
        <ele>175.6</ele>
        <time>2021-08-11T13:37:43Z</time>
      </trkpt>
      <trkpt lat="48.02321" lon="-3.71335">
        <ele>175.6</ele>
        <time>2021-08-11T13:37:44Z</time>
      </trkpt>
      <trkpt lat="48.0232" lon="-3.7134">
        <ele>175.4</ele>
        <time>2021-08-11T13:37:45Z</time>
      </trkpt>
      <trkpt lat="48.02318" lon="-3.71344">
        <ele>175.4</ele>
        <time>2021-08-11T13:37:46Z</time>
      </trkpt>
      <trkpt lat="48.02316" lon="-3.71348">
        <ele>175.2</ele>
        <time>2021-08-11T13:37:47Z</time>
      </trkpt>
      <trkpt lat="48.02314" lon="-3.71352">
        <ele>175.2</ele>
        <time>2021-08-11T13:37:48Z</time>
      </trkpt>
      <trkpt lat="48.02312" lon="-3.71357">
        <ele>175.2</ele>
        <time>2021-08-11T13:37:49Z</time>
      </trkpt>
      <trkpt lat="48.0231" lon="-3.71362">
        <ele>175.2</ele>
        <time>2021-08-11T13:37:50Z</time>
      </trkpt>
      <trkpt lat="48.02308" lon="-3.71367">
        <ele>175.2</ele>
        <time>2021-08-11T13:37:51Z</time>
      </trkpt>
      <trkpt lat="48.02306" lon="-3.71372">
        <ele>175.2</ele>
        <time>2021-08-11T13:37:52Z</time>
      </trkpt>
      <trkpt lat="48.02303" lon="-3.71377">
        <ele>175.2</ele>
        <time>2021-08-11T13:37:53Z</time>
      </trkpt>
      <trkpt lat="48.02301" lon="-3.71382">
        <ele>175.2</ele>
        <time>2021-08-11T13:37:54Z</time>
      </trkpt>
      <trkpt lat="48.02299" lon="-3.71387">
        <ele>175.2</ele>
        <time>2021-08-11T13:37:55Z</time>
      </trkpt>
      <trkpt lat="48.02296" lon="-3.71393">
        <ele>175.2</ele>
        <time>2021-08-11T13:37:56Z</time>
      </trkpt>
      <trkpt lat="48.02294" lon="-3.71399">
        <ele>175.2</ele>
        <time>2021-08-11T13:37:57Z</time>
      </trkpt>
      <trkpt lat="48.02292" lon="-3.71404">
        <ele>175.2</ele>
        <time>2021-08-11T13:37:58Z</time>
      </trkpt>
      <trkpt lat="48.0229" lon="-3.71409">
        <ele>175.2</ele>
        <time>2021-08-11T13:37:59Z</time>
      </trkpt>
      <trkpt lat="48.02288" lon="-3.71415">
        <ele>175.2</ele>
        <time>2021-08-11T13:38:00Z</time>
      </trkpt>
      <trkpt lat="48.02285" lon="-3.7142">
        <ele>175.2</ele>
        <time>2021-08-11T13:38:01Z</time>
      </trkpt>
      <trkpt lat="48.02284" lon="-3.71425">
        <ele>175.2</ele>
        <time>2021-08-11T13:38:02Z</time>
      </trkpt>
      <trkpt lat="48.02282" lon="-3.7143">
        <ele>175.2</ele>
        <time>2021-08-11T13:38:03Z</time>
      </trkpt>
      <trkpt lat="48.0228" lon="-3.71435">
        <ele>175.4</ele>
        <time>2021-08-11T13:38:04Z</time>
      </trkpt>
      <trkpt lat="48.02278" lon="-3.7144">
        <ele>175.4</ele>
        <time>2021-08-11T13:38:05Z</time>
      </trkpt>
      <trkpt lat="48.02276" lon="-3.71444">
        <ele>175.4</ele>
        <time>2021-08-11T13:38:06Z</time>
      </trkpt>
      <trkpt lat="48.02274" lon="-3.71448">
        <ele>175.4</ele>
        <time>2021-08-11T13:38:07Z</time>
      </trkpt>
      <trkpt lat="48.02272" lon="-3.71452">
        <ele>175.6</ele>
        <time>2021-08-11T13:38:08Z</time>
      </trkpt>
      <trkpt lat="48.0227" lon="-3.71456">
        <ele>175.6</ele>
        <time>2021-08-11T13:38:09Z</time>
      </trkpt>
      <trkpt lat="48.02269" lon="-3.71461">
        <ele>175.6</ele>
        <time>2021-08-11T13:38:10Z</time>
      </trkpt>
      <trkpt lat="48.02268" lon="-3.71466">
        <ele>175.8</ele>
        <time>2021-08-11T13:38:11Z</time>
      </trkpt>
      <trkpt lat="48.02267" lon="-3.71471">
        <ele>175.8</ele>
        <time>2021-08-11T13:38:12Z</time>
      </trkpt>
      <trkpt lat="48.02265" lon="-3.71475">
        <ele>176</ele>
        <time>2021-08-11T13:38:13Z</time>
      </trkpt>
      <trkpt lat="48.02263" lon="-3.7148">
        <ele>176</ele>
        <time>2021-08-11T13:38:14Z</time>
      </trkpt>
      <trkpt lat="48.02261" lon="-3.71485">
        <ele>176</ele>
        <time>2021-08-11T13:38:15Z</time>
      </trkpt>
      <trkpt lat="48.02259" lon="-3.7149">
        <ele>176.2</ele>
        <time>2021-08-11T13:38:16Z</time>
      </trkpt>
      <trkpt lat="48.02257" lon="-3.71494">
        <ele>176.2</ele>
        <time>2021-08-11T13:38:17Z</time>
      </trkpt>
      <trkpt lat="48.02255" lon="-3.71499">
        <ele>176.2</ele>
        <time>2021-08-11T13:38:18Z</time>
      </trkpt>
      <trkpt lat="48.02253" lon="-3.71503">
        <ele>176.4</ele>
        <time>2021-08-11T13:38:19Z</time>
      </trkpt>
      <trkpt lat="48.02252" lon="-3.71508">
        <ele>176.4</ele>
        <time>2021-08-11T13:38:20Z</time>
      </trkpt>
      <trkpt lat="48.0225" lon="-3.71512">
        <ele>176.4</ele>
        <time>2021-08-11T13:38:21Z</time>
      </trkpt>
      <trkpt lat="48.02249" lon="-3.71516">
        <ele>176.4</ele>
        <time>2021-08-11T13:38:22Z</time>
      </trkpt>
      <trkpt lat="48.02247" lon="-3.7152">
        <ele>176.4</ele>
        <time>2021-08-11T13:38:23Z</time>
      </trkpt>
      <trkpt lat="48.02245" lon="-3.71524">
        <ele>176.4</ele>
        <time>2021-08-11T13:38:24Z</time>
      </trkpt>
      <trkpt lat="48.02243" lon="-3.71528">
        <ele>176.4</ele>
        <time>2021-08-11T13:38:25Z</time>
      </trkpt>
      <trkpt lat="48.02241" lon="-3.71532">
        <ele>176.4</ele>
        <time>2021-08-11T13:38:26Z</time>
      </trkpt>
      <trkpt lat="48.02239" lon="-3.71535">
        <ele>176.6</ele>
        <time>2021-08-11T13:38:27Z</time>
      </trkpt>
      <trkpt lat="48.02237" lon="-3.71539">
        <ele>176.6</ele>
        <time>2021-08-11T13:38:28Z</time>
      </trkpt>
      <trkpt lat="48.02235" lon="-3.71543">
        <ele>176.8</ele>
        <time>2021-08-11T13:38:29Z</time>
      </trkpt>
      <trkpt lat="48.02233" lon="-3.71547">
        <ele>176.8</ele>
        <time>2021-08-11T13:38:30Z</time>
      </trkpt>
      <trkpt lat="48.02231" lon="-3.71552">
        <ele>176.8</ele>
        <time>2021-08-11T13:38:31Z</time>
      </trkpt>
      <trkpt lat="48.02229" lon="-3.71556">
        <ele>176.8</ele>
        <time>2021-08-11T13:38:32Z</time>
      </trkpt>
      <trkpt lat="48.02227" lon="-3.71561">
        <ele>176.8</ele>
        <time>2021-08-11T13:38:33Z</time>
      </trkpt>
      <trkpt lat="48.02226" lon="-3.71564">
        <ele>177</ele>
        <time>2021-08-11T13:38:34Z</time>
      </trkpt>
      <trkpt lat="48.02224" lon="-3.71568">
        <ele>177</ele>
        <time>2021-08-11T13:38:35Z</time>
      </trkpt>
      <trkpt lat="48.02222" lon="-3.71572">
        <ele>177</ele>
        <time>2021-08-11T13:38:36Z</time>
      </trkpt>
      <trkpt lat="48.02221" lon="-3.71576">
        <ele>177.2</ele>
        <time>2021-08-11T13:38:37Z</time>
      </trkpt>
      <trkpt lat="48.02219" lon="-3.71581">
        <ele>177.2</ele>
        <time>2021-08-11T13:38:38Z</time>
      </trkpt>
      <trkpt lat="48.02217" lon="-3.71586">
        <ele>177.2</ele>
        <time>2021-08-11T13:38:39Z</time>
      </trkpt>
      <trkpt lat="48.02215" lon="-3.71591">
        <ele>177.4</ele>
        <time>2021-08-11T13:38:40Z</time>
      </trkpt>
      <trkpt lat="48.02213" lon="-3.71597">
        <ele>177.4</ele>
        <time>2021-08-11T13:38:41Z</time>
      </trkpt>
      <trkpt lat="48.02211" lon="-3.71602">
        <ele>177.4</ele>
        <time>2021-08-11T13:38:42Z</time>
      </trkpt>
      <trkpt lat="48.02209" lon="-3.71607">
        <ele>177.4</ele>
        <time>2021-08-11T13:38:43Z</time>
      </trkpt>
      <trkpt lat="48.02207" lon="-3.71612">
        <ele>177.4</ele>
        <time>2021-08-11T13:38:44Z</time>
      </trkpt>
      <trkpt lat="48.02205" lon="-3.71617">
        <ele>177.4</ele>
        <time>2021-08-11T13:38:45Z</time>
      </trkpt>
      <trkpt lat="48.02203" lon="-3.71622">
        <ele>177.4</ele>
        <time>2021-08-11T13:38:46Z</time>
      </trkpt>
      <trkpt lat="48.02201" lon="-3.71626">
        <ele>177.6</ele>
        <time>2021-08-11T13:38:47Z</time>
      </trkpt>
      <trkpt lat="48.02198" lon="-3.71631">
        <ele>177.6</ele>
        <time>2021-08-11T13:38:48Z</time>
      </trkpt>
      <trkpt lat="48.02196" lon="-3.71635">
        <ele>177.6</ele>
        <time>2021-08-11T13:38:49Z</time>
      </trkpt>
      <trkpt lat="48.02195" lon="-3.71639">
        <ele>177.6</ele>
        <time>2021-08-11T13:38:50Z</time>
      </trkpt>
      <trkpt lat="48.02194" lon="-3.71643">
        <ele>177.6</ele>
        <time>2021-08-11T13:38:51Z</time>
      </trkpt>
      <trkpt lat="48.02192" lon="-3.71648">
        <ele>177.6</ele>
        <time>2021-08-11T13:38:52Z</time>
      </trkpt>
      <trkpt lat="48.0219" lon="-3.71653">
        <ele>177.6</ele>
        <time>2021-08-11T13:38:53Z</time>
      </trkpt>
      <trkpt lat="48.02189" lon="-3.71657">
        <ele>177.8</ele>
        <time>2021-08-11T13:38:54Z</time>
      </trkpt>
      <trkpt lat="48.02187" lon="-3.71662">
        <ele>177.8</ele>
        <time>2021-08-11T13:38:55Z</time>
      </trkpt>
      <trkpt lat="48.02185" lon="-3.71667">
        <ele>177.8</ele>
        <time>2021-08-11T13:38:56Z</time>
      </trkpt>
      <trkpt lat="48.02183" lon="-3.71671">
        <ele>178</ele>
        <time>2021-08-11T13:38:57Z</time>
      </trkpt>
      <trkpt lat="48.02182" lon="-3.71675">
        <ele>178</ele>
        <time>2021-08-11T13:38:58Z</time>
      </trkpt>
      <trkpt lat="48.0218" lon="-3.71679">
        <ele>178.2</ele>
        <time>2021-08-11T13:38:59Z</time>
      </trkpt>
      <trkpt lat="48.02179" lon="-3.71684">
        <ele>178.2</ele>
        <time>2021-08-11T13:39:00Z</time>
      </trkpt>
      <trkpt lat="48.02177" lon="-3.71689">
        <ele>178.4</ele>
        <time>2021-08-11T13:39:01Z</time>
      </trkpt>
      <trkpt lat="48.02174" lon="-3.71694">
        <ele>178.4</ele>
        <time>2021-08-11T13:39:02Z</time>
      </trkpt>
      <trkpt lat="48.02173" lon="-3.71699">
        <ele>178.6</ele>
        <time>2021-08-11T13:39:03Z</time>
      </trkpt>
      <trkpt lat="48.02171" lon="-3.71704">
        <ele>178.6</ele>
        <time>2021-08-11T13:39:04Z</time>
      </trkpt>
      <trkpt lat="48.02169" lon="-3.71709">
        <ele>178.8</ele>
        <time>2021-08-11T13:39:05Z</time>
      </trkpt>
      <trkpt lat="48.02167" lon="-3.71713">
        <ele>178.8</ele>
        <time>2021-08-11T13:39:06Z</time>
      </trkpt>
      <trkpt lat="48.02165" lon="-3.71717">
        <ele>179</ele>
        <time>2021-08-11T13:39:07Z</time>
      </trkpt>
      <trkpt lat="48.02163" lon="-3.71722">
        <ele>179</ele>
        <time>2021-08-11T13:39:08Z</time>
      </trkpt>
      <trkpt lat="48.02161" lon="-3.71727">
        <ele>179</ele>
        <time>2021-08-11T13:39:09Z</time>
      </trkpt>
      <trkpt lat="48.02159" lon="-3.71732">
        <ele>179.2</ele>
        <time>2021-08-11T13:39:10Z</time>
      </trkpt>
      <trkpt lat="48.02157" lon="-3.71736">
        <ele>179.2</ele>
        <time>2021-08-11T13:39:11Z</time>
      </trkpt>
      <trkpt lat="48.02156" lon="-3.71739">
        <ele>179.2</ele>
        <time>2021-08-11T13:39:12Z</time>
      </trkpt>
      <trkpt lat="48.02154" lon="-3.71742">
        <ele>179.4</ele>
        <time>2021-08-11T13:39:13Z</time>
      </trkpt>
      <trkpt lat="48.02152" lon="-3.71747">
        <ele>179.4</ele>
        <time>2021-08-11T13:39:14Z</time>
      </trkpt>
      <trkpt lat="48.0215" lon="-3.71752">
        <ele>179.4</ele>
        <time>2021-08-11T13:39:15Z</time>
      </trkpt>
      <trkpt lat="48.02148" lon="-3.71757">
        <ele>179.6</ele>
        <time>2021-08-11T13:39:16Z</time>
      </trkpt>
      <trkpt lat="48.02146" lon="-3.71762">
        <ele>179.6</ele>
        <time>2021-08-11T13:39:17Z</time>
      </trkpt>
      <trkpt lat="48.02144" lon="-3.71766">
        <ele>179.8</ele>
        <time>2021-08-11T13:39:18Z</time>
      </trkpt>
      <trkpt lat="48.02142" lon="-3.71771">
        <ele>180</ele>
        <time>2021-08-11T13:39:19Z</time>
      </trkpt>
      <trkpt lat="48.0214" lon="-3.71775">
        <ele>180</ele>
        <time>2021-08-11T13:39:20Z</time>
      </trkpt>
      <trkpt lat="48.02137" lon="-3.7178">
        <ele>180</ele>
        <time>2021-08-11T13:39:21Z</time>
      </trkpt>
      <trkpt lat="48.02135" lon="-3.71785">
        <ele>180.2</ele>
        <time>2021-08-11T13:39:22Z</time>
      </trkpt>
      <trkpt lat="48.02132" lon="-3.7179">
        <ele>180.2</ele>
        <time>2021-08-11T13:39:23Z</time>
      </trkpt>
      <trkpt lat="48.0213" lon="-3.71795">
        <ele>180.2</ele>
        <time>2021-08-11T13:39:24Z</time>
      </trkpt>
      <trkpt lat="48.02128" lon="-3.718">
        <ele>180.2</ele>
        <time>2021-08-11T13:39:25Z</time>
      </trkpt>
      <trkpt lat="48.02126" lon="-3.71804">
        <ele>180.2</ele>
        <time>2021-08-11T13:39:26Z</time>
      </trkpt>
      <trkpt lat="48.02125" lon="-3.71809">
        <ele>180.2</ele>
        <time>2021-08-11T13:39:27Z</time>
      </trkpt>
      <trkpt lat="48.02123" lon="-3.71814">
        <ele>180.2</ele>
        <time>2021-08-11T13:39:28Z</time>
      </trkpt>
      <trkpt lat="48.02121" lon="-3.71819">
        <ele>180.2</ele>
        <time>2021-08-11T13:39:29Z</time>
      </trkpt>
      <trkpt lat="48.02118" lon="-3.71825">
        <ele>180.4</ele>
        <time>2021-08-11T13:39:30Z</time>
      </trkpt>
      <trkpt lat="48.02116" lon="-3.71829">
        <ele>180.4</ele>
        <time>2021-08-11T13:39:31Z</time>
      </trkpt>
      <trkpt lat="48.02114" lon="-3.71834">
        <ele>180.4</ele>
        <time>2021-08-11T13:39:32Z</time>
      </trkpt>
      <trkpt lat="48.02111" lon="-3.7184">
        <ele>180.4</ele>
        <time>2021-08-11T13:39:33Z</time>
      </trkpt>
      <trkpt lat="48.02109" lon="-3.71845">
        <ele>180.4</ele>
        <time>2021-08-11T13:39:34Z</time>
      </trkpt>
      <trkpt lat="48.02107" lon="-3.7185">
        <ele>180.4</ele>
        <time>2021-08-11T13:39:35Z</time>
      </trkpt>
      <trkpt lat="48.02105" lon="-3.71855">
        <ele>180.6</ele>
        <time>2021-08-11T13:39:36Z</time>
      </trkpt>
      <trkpt lat="48.02102" lon="-3.7186">
        <ele>180.6</ele>
        <time>2021-08-11T13:39:37Z</time>
      </trkpt>
      <trkpt lat="48.021" lon="-3.71865">
        <ele>180.6</ele>
        <time>2021-08-11T13:39:38Z</time>
      </trkpt>
      <trkpt lat="48.02098" lon="-3.71871">
        <ele>180.6</ele>
        <time>2021-08-11T13:39:39Z</time>
      </trkpt>
      <trkpt lat="48.02096" lon="-3.71876">
        <ele>180.6</ele>
        <time>2021-08-11T13:39:40Z</time>
      </trkpt>
      <trkpt lat="48.02093" lon="-3.71881">
        <ele>180.6</ele>
        <time>2021-08-11T13:39:41Z</time>
      </trkpt>
      <trkpt lat="48.02092" lon="-3.71886">
        <ele>180.6</ele>
        <time>2021-08-11T13:39:42Z</time>
      </trkpt>
      <trkpt lat="48.02089" lon="-3.71891">
        <ele>180.6</ele>
        <time>2021-08-11T13:39:43Z</time>
      </trkpt>
      <trkpt lat="48.02087" lon="-3.71897">
        <ele>180.6</ele>
        <time>2021-08-11T13:39:44Z</time>
      </trkpt>
      <trkpt lat="48.02085" lon="-3.71903">
        <ele>180.6</ele>
        <time>2021-08-11T13:39:45Z</time>
      </trkpt>
      <trkpt lat="48.02083" lon="-3.71908">
        <ele>180.8</ele>
        <time>2021-08-11T13:39:46Z</time>
      </trkpt>
      <trkpt lat="48.02081" lon="-3.71913">
        <ele>180.8</ele>
        <time>2021-08-11T13:39:47Z</time>
      </trkpt>
      <trkpt lat="48.02079" lon="-3.71918">
        <ele>180.8</ele>
        <time>2021-08-11T13:39:48Z</time>
      </trkpt>
      <trkpt lat="48.02077" lon="-3.71923">
        <ele>180.8</ele>
        <time>2021-08-11T13:39:49Z</time>
      </trkpt>
      <trkpt lat="48.02074" lon="-3.71928">
        <ele>180.8</ele>
        <time>2021-08-11T13:39:50Z</time>
      </trkpt>
      <trkpt lat="48.02072" lon="-3.71933">
        <ele>180.8</ele>
        <time>2021-08-11T13:39:51Z</time>
      </trkpt>
      <trkpt lat="48.0207" lon="-3.71937">
        <ele>180.8</ele>
        <time>2021-08-11T13:39:52Z</time>
      </trkpt>
      <trkpt lat="48.02068" lon="-3.71942">
        <ele>180.8</ele>
        <time>2021-08-11T13:39:53Z</time>
      </trkpt>
      <trkpt lat="48.02065" lon="-3.71947">
        <ele>180.8</ele>
        <time>2021-08-11T13:39:54Z</time>
      </trkpt>
      <trkpt lat="48.02063" lon="-3.71951">
        <ele>180.8</ele>
        <time>2021-08-11T13:39:55Z</time>
      </trkpt>
      <trkpt lat="48.02061" lon="-3.71955">
        <ele>180.8</ele>
        <time>2021-08-11T13:39:56Z</time>
      </trkpt>
      <trkpt lat="48.02059" lon="-3.71958">
        <ele>180.8</ele>
        <time>2021-08-11T13:39:57Z</time>
      </trkpt>
      <trkpt lat="48.02056" lon="-3.71962">
        <ele>180.8</ele>
        <time>2021-08-11T13:39:58Z</time>
      </trkpt>
      <trkpt lat="48.02053" lon="-3.71964">
        <ele>180.8</ele>
        <time>2021-08-11T13:39:59Z</time>
      </trkpt>
      <trkpt lat="48.02051" lon="-3.71966">
        <ele>180.8</ele>
        <time>2021-08-11T13:40:00Z</time>
      </trkpt>
      <trkpt lat="48.02048" lon="-3.71968">
        <ele>180.8</ele>
        <time>2021-08-11T13:40:01Z</time>
      </trkpt>
      <trkpt lat="48.02046" lon="-3.7197">
        <ele>180.8</ele>
        <time>2021-08-11T13:40:02Z</time>
      </trkpt>
      <trkpt lat="48.02044" lon="-3.71972">
        <ele>181</ele>
        <time>2021-08-11T13:40:03Z</time>
      </trkpt>
      <trkpt lat="48.02043" lon="-3.71974">
        <ele>181</ele>
        <time>2021-08-11T13:40:04Z</time>
      </trkpt>
      <trkpt lat="48.02043" lon="-3.71977">
        <ele>181</ele>
        <time>2021-08-11T13:40:05Z</time>
      </trkpt>
      <trkpt lat="48.02042" lon="-3.71979">
        <ele>181.2</ele>
        <time>2021-08-11T13:40:06Z</time>
      </trkpt>
      <trkpt lat="48.02042" lon="-3.71982">
        <ele>181.2</ele>
        <time>2021-08-11T13:40:07Z</time>
      </trkpt>
      <trkpt lat="48.02041" lon="-3.71985">
        <ele>181.2</ele>
        <time>2021-08-11T13:40:08Z</time>
      </trkpt>
      <trkpt lat="48.0204" lon="-3.71989">
        <ele>181.4</ele>
        <time>2021-08-11T13:40:09Z</time>
      </trkpt>
      <trkpt lat="48.02038" lon="-3.71992">
        <ele>181.6</ele>
        <time>2021-08-11T13:40:10Z</time>
      </trkpt>
      <trkpt lat="48.02036" lon="-3.71997">
        <ele>181.6</ele>
        <time>2021-08-11T13:40:11Z</time>
      </trkpt>
      <trkpt lat="48.02033" lon="-3.72001">
        <ele>181.6</ele>
        <time>2021-08-11T13:40:12Z</time>
      </trkpt>
      <trkpt lat="48.02031" lon="-3.72005">
        <ele>181.6</ele>
        <time>2021-08-11T13:40:13Z</time>
      </trkpt>
      <trkpt lat="48.02028" lon="-3.72008">
        <ele>181.6</ele>
        <time>2021-08-11T13:40:14Z</time>
      </trkpt>
      <trkpt lat="48.02026" lon="-3.72012">
        <ele>181.6</ele>
        <time>2021-08-11T13:40:15Z</time>
      </trkpt>
      <trkpt lat="48.02024" lon="-3.72016">
        <ele>181.6</ele>
        <time>2021-08-11T13:40:16Z</time>
      </trkpt>
      <trkpt lat="48.02021" lon="-3.7202">
        <ele>181.6</ele>
        <time>2021-08-11T13:40:17Z</time>
      </trkpt>
      <trkpt lat="48.02019" lon="-3.72024">
        <ele>181.6</ele>
        <time>2021-08-11T13:40:18Z</time>
      </trkpt>
      <trkpt lat="48.02016" lon="-3.72028">
        <ele>181.6</ele>
        <time>2021-08-11T13:40:19Z</time>
      </trkpt>
      <trkpt lat="48.02014" lon="-3.72032">
        <ele>181.6</ele>
        <time>2021-08-11T13:40:20Z</time>
      </trkpt>
      <trkpt lat="48.02012" lon="-3.72036">
        <ele>181.6</ele>
        <time>2021-08-11T13:40:21Z</time>
      </trkpt>
      <trkpt lat="48.0201" lon="-3.72038">
        <ele>181.6</ele>
        <time>2021-08-11T13:40:22Z</time>
      </trkpt>
      <trkpt lat="48.02008" lon="-3.72039">
        <ele>181.6</ele>
        <time>2021-08-11T13:40:23Z</time>
      </trkpt>
      <trkpt lat="48.02006" lon="-3.72039">
        <ele>181.6</ele>
        <time>2021-08-11T13:40:24Z</time>
      </trkpt>
      <trkpt lat="48.02004" lon="-3.7204">
        <ele>181.6</ele>
        <time>2021-08-11T13:40:25Z</time>
      </trkpt>
      <trkpt lat="48.02002" lon="-3.72042">
        <ele>181.6</ele>
        <time>2021-08-11T13:40:26Z</time>
      </trkpt>
      <trkpt lat="48.02001" lon="-3.72045">
        <ele>181.6</ele>
        <time>2021-08-11T13:40:27Z</time>
      </trkpt>
      <trkpt lat="48.01999" lon="-3.72047">
        <ele>181.6</ele>
        <time>2021-08-11T13:40:28Z</time>
      </trkpt>
      <trkpt lat="48.01997" lon="-3.72049">
        <ele>181.6</ele>
        <time>2021-08-11T13:40:29Z</time>
      </trkpt>
      <trkpt lat="48.01995" lon="-3.7205">
        <ele>181.6</ele>
        <time>2021-08-11T13:40:30Z</time>
      </trkpt>
      <trkpt lat="48.01992" lon="-3.72051">
        <ele>181.6</ele>
        <time>2021-08-11T13:40:31Z</time>
      </trkpt>
      <trkpt lat="48.01989" lon="-3.72052">
        <ele>181.6</ele>
        <time>2021-08-11T13:40:32Z</time>
      </trkpt>
      <trkpt lat="48.01987" lon="-3.72055">
        <ele>181.6</ele>
        <time>2021-08-11T13:40:33Z</time>
      </trkpt>
      <trkpt lat="48.01986" lon="-3.72057">
        <ele>181.6</ele>
        <time>2021-08-11T13:40:34Z</time>
      </trkpt>
      <trkpt lat="48.01984" lon="-3.72059">
        <ele>181.6</ele>
        <time>2021-08-11T13:40:35Z</time>
      </trkpt>
      <trkpt lat="48.01982" lon="-3.7206">
        <ele>181.6</ele>
        <time>2021-08-11T13:40:36Z</time>
      </trkpt>
      <trkpt lat="48.0198" lon="-3.72062">
        <ele>181.8</ele>
        <time>2021-08-11T13:40:37Z</time>
      </trkpt>
      <trkpt lat="48.01978" lon="-3.72064">
        <ele>181.8</ele>
        <time>2021-08-11T13:40:38Z</time>
      </trkpt>
      <trkpt lat="48.01975" lon="-3.72066">
        <ele>181.8</ele>
        <time>2021-08-11T13:40:39Z</time>
      </trkpt>
      <trkpt lat="48.01972" lon="-3.72068">
        <ele>181.8</ele>
        <time>2021-08-11T13:40:40Z</time>
      </trkpt>
      <trkpt lat="48.01968" lon="-3.7207">
        <ele>181.8</ele>
        <time>2021-08-11T13:40:41Z</time>
      </trkpt>
      <trkpt lat="48.01965" lon="-3.72072">
        <ele>181.8</ele>
        <time>2021-08-11T13:40:42Z</time>
      </trkpt>
      <trkpt lat="48.0196" lon="-3.72075">
        <ele>181.8</ele>
        <time>2021-08-11T13:40:43Z</time>
      </trkpt>
      <trkpt lat="48.01956" lon="-3.72078">
        <ele>181.8</ele>
        <time>2021-08-11T13:40:44Z</time>
      </trkpt>
      <trkpt lat="48.01953" lon="-3.7208">
        <ele>181.8</ele>
        <time>2021-08-11T13:40:45Z</time>
      </trkpt>
      <trkpt lat="48.01949" lon="-3.72081">
        <ele>181.8</ele>
        <time>2021-08-11T13:40:46Z</time>
      </trkpt>
      <trkpt lat="48.01945" lon="-3.72083">
        <ele>181.8</ele>
        <time>2021-08-11T13:40:47Z</time>
      </trkpt>
      <trkpt lat="48.01941" lon="-3.72085">
        <ele>181.8</ele>
        <time>2021-08-11T13:40:48Z</time>
      </trkpt>
      <trkpt lat="48.01937" lon="-3.72087">
        <ele>181.8</ele>
        <time>2021-08-11T13:40:49Z</time>
      </trkpt>
      <trkpt lat="48.01933" lon="-3.72089">
        <ele>181.8</ele>
        <time>2021-08-11T13:40:50Z</time>
      </trkpt>
      <trkpt lat="48.01929" lon="-3.72091">
        <ele>181.8</ele>
        <time>2021-08-11T13:40:51Z</time>
      </trkpt>
      <trkpt lat="48.01924" lon="-3.72092">
        <ele>182</ele>
        <time>2021-08-11T13:40:52Z</time>
      </trkpt>
      <trkpt lat="48.0192" lon="-3.72094">
        <ele>182</ele>
        <time>2021-08-11T13:40:53Z</time>
      </trkpt>
      <trkpt lat="48.01916" lon="-3.72095">
        <ele>182</ele>
        <time>2021-08-11T13:40:54Z</time>
      </trkpt>
      <trkpt lat="48.01912" lon="-3.72096">
        <ele>182</ele>
        <time>2021-08-11T13:40:55Z</time>
      </trkpt>
      <trkpt lat="48.01908" lon="-3.72097">
        <ele>182.2</ele>
        <time>2021-08-11T13:40:56Z</time>
      </trkpt>
      <trkpt lat="48.01904" lon="-3.72098">
        <ele>182.2</ele>
        <time>2021-08-11T13:40:57Z</time>
      </trkpt>
      <trkpt lat="48.01899" lon="-3.72099">
        <ele>182.2</ele>
        <time>2021-08-11T13:40:58Z</time>
      </trkpt>
      <trkpt lat="48.01895" lon="-3.721">
        <ele>182.2</ele>
        <time>2021-08-11T13:40:59Z</time>
      </trkpt>
      <trkpt lat="48.01891" lon="-3.721">
        <ele>182.2</ele>
        <time>2021-08-11T13:41:00Z</time>
      </trkpt>
      <trkpt lat="48.01887" lon="-3.72101">
        <ele>182.2</ele>
        <time>2021-08-11T13:41:01Z</time>
      </trkpt>
      <trkpt lat="48.01882" lon="-3.72101">
        <ele>182.2</ele>
        <time>2021-08-11T13:41:02Z</time>
      </trkpt>
      <trkpt lat="48.01878" lon="-3.72102">
        <ele>182.4</ele>
        <time>2021-08-11T13:41:03Z</time>
      </trkpt>
      <trkpt lat="48.01874" lon="-3.72102">
        <ele>182.4</ele>
        <time>2021-08-11T13:41:04Z</time>
      </trkpt>
      <trkpt lat="48.0187" lon="-3.72102">
        <ele>182.4</ele>
        <time>2021-08-11T13:41:05Z</time>
      </trkpt>
      <trkpt lat="48.01865" lon="-3.72103">
        <ele>182.6</ele>
        <time>2021-08-11T13:41:06Z</time>
      </trkpt>
      <trkpt lat="48.01861" lon="-3.72103">
        <ele>182.6</ele>
        <time>2021-08-11T13:41:07Z</time>
      </trkpt>
      <trkpt lat="48.01856" lon="-3.72103">
        <ele>182.6</ele>
        <time>2021-08-11T13:41:08Z</time>
      </trkpt>
      <trkpt lat="48.01852" lon="-3.72103">
        <ele>182.8</ele>
        <time>2021-08-11T13:41:09Z</time>
      </trkpt>
      <trkpt lat="48.01848" lon="-3.72103">
        <ele>182.8</ele>
        <time>2021-08-11T13:41:10Z</time>
      </trkpt>
      <trkpt lat="48.01843" lon="-3.72102">
        <ele>182.8</ele>
        <time>2021-08-11T13:41:11Z</time>
      </trkpt>
      <trkpt lat="48.0184" lon="-3.72102">
        <ele>182.8</ele>
        <time>2021-08-11T13:41:12Z</time>
      </trkpt>
      <trkpt lat="48.01836" lon="-3.72102">
        <ele>182.8</ele>
        <time>2021-08-11T13:41:13Z</time>
      </trkpt>
      <trkpt lat="48.01832" lon="-3.72102">
        <ele>182.8</ele>
        <time>2021-08-11T13:41:14Z</time>
      </trkpt>
      <trkpt lat="48.01827" lon="-3.72103">
        <ele>182.8</ele>
        <time>2021-08-11T13:41:15Z</time>
      </trkpt>
      <trkpt lat="48.01823" lon="-3.72103">
        <ele>182.8</ele>
        <time>2021-08-11T13:41:16Z</time>
      </trkpt>
      <trkpt lat="48.01819" lon="-3.72104">
        <ele>182.8</ele>
        <time>2021-08-11T13:41:17Z</time>
      </trkpt>
      <trkpt lat="48.01814" lon="-3.72104">
        <ele>182.8</ele>
        <time>2021-08-11T13:41:18Z</time>
      </trkpt>
      <trkpt lat="48.01811" lon="-3.72104">
        <ele>182.8</ele>
        <time>2021-08-11T13:41:19Z</time>
      </trkpt>
      <trkpt lat="48.01807" lon="-3.72105">
        <ele>182.8</ele>
        <time>2021-08-11T13:41:20Z</time>
      </trkpt>
      <trkpt lat="48.01803" lon="-3.72106">
        <ele>183</ele>
        <time>2021-08-11T13:41:21Z</time>
      </trkpt>
      <trkpt lat="48.01799" lon="-3.72106">
        <ele>183</ele>
        <time>2021-08-11T13:41:22Z</time>
      </trkpt>
      <trkpt lat="48.01797" lon="-3.72107">
        <ele>183.2</ele>
        <time>2021-08-11T13:41:23Z</time>
      </trkpt>
      <trkpt lat="48.01795" lon="-3.72107">
        <ele>183.4</ele>
        <time>2021-08-11T13:41:24Z</time>
      </trkpt>
      <trkpt lat="48.01793" lon="-3.72107">
        <ele>183.6</ele>
        <time>2021-08-11T13:41:25Z</time>
      </trkpt>
      <trkpt lat="48.0179" lon="-3.72107">
        <ele>183.8</ele>
        <time>2021-08-11T13:41:26Z</time>
      </trkpt>
      <trkpt lat="48.01787" lon="-3.72107">
        <ele>183.8</ele>
        <time>2021-08-11T13:41:27Z</time>
      </trkpt>
      <trkpt lat="48.01783" lon="-3.72107">
        <ele>184</ele>
        <time>2021-08-11T13:41:28Z</time>
      </trkpt>
      <trkpt lat="48.01781" lon="-3.72108">
        <ele>184.2</ele>
        <time>2021-08-11T13:41:29Z</time>
      </trkpt>
      <trkpt lat="48.01777" lon="-3.72108">
        <ele>184.4</ele>
        <time>2021-08-11T13:41:30Z</time>
      </trkpt>
      <trkpt lat="48.01774" lon="-3.72108">
        <ele>184.4</ele>
        <time>2021-08-11T13:41:31Z</time>
      </trkpt>
      <trkpt lat="48.01771" lon="-3.72108">
        <ele>184.6</ele>
        <time>2021-08-11T13:41:32Z</time>
      </trkpt>
      <trkpt lat="48.01767" lon="-3.72108">
        <ele>184.6</ele>
        <time>2021-08-11T13:41:33Z</time>
      </trkpt>
      <trkpt lat="48.01764" lon="-3.72109">
        <ele>184.8</ele>
        <time>2021-08-11T13:41:34Z</time>
      </trkpt>
      <trkpt lat="48.0176" lon="-3.72109">
        <ele>184.8</ele>
        <time>2021-08-11T13:41:35Z</time>
      </trkpt>
      <trkpt lat="48.01756" lon="-3.72109">
        <ele>185</ele>
        <time>2021-08-11T13:41:36Z</time>
      </trkpt>
      <trkpt lat="48.01752" lon="-3.72109">
        <ele>185</ele>
        <time>2021-08-11T13:41:37Z</time>
      </trkpt>
      <trkpt lat="48.01749" lon="-3.72108">
        <ele>185</ele>
        <time>2021-08-11T13:41:38Z</time>
      </trkpt>
      <trkpt lat="48.01745" lon="-3.72108">
        <ele>185</ele>
        <time>2021-08-11T13:41:39Z</time>
      </trkpt>
      <trkpt lat="48.0174" lon="-3.72108">
        <ele>185</ele>
        <time>2021-08-11T13:41:40Z</time>
      </trkpt>
      <trkpt lat="48.01736" lon="-3.72108">
        <ele>185.2</ele>
        <time>2021-08-11T13:41:41Z</time>
      </trkpt>
      <trkpt lat="48.01732" lon="-3.72108">
        <ele>185.2</ele>
        <time>2021-08-11T13:41:42Z</time>
      </trkpt>
      <trkpt lat="48.01728" lon="-3.72108">
        <ele>185.2</ele>
        <time>2021-08-11T13:41:43Z</time>
      </trkpt>
      <trkpt lat="48.01724" lon="-3.72109">
        <ele>185.4</ele>
        <time>2021-08-11T13:41:44Z</time>
      </trkpt>
      <trkpt lat="48.0172" lon="-3.72109">
        <ele>185.4</ele>
        <time>2021-08-11T13:41:45Z</time>
      </trkpt>
      <trkpt lat="48.01716" lon="-3.7211">
        <ele>185.4</ele>
        <time>2021-08-11T13:41:46Z</time>
      </trkpt>
      <trkpt lat="48.01713" lon="-3.7211">
        <ele>185.4</ele>
        <time>2021-08-11T13:41:47Z</time>
      </trkpt>
      <trkpt lat="48.0171" lon="-3.72111">
        <ele>185.6</ele>
        <time>2021-08-11T13:41:48Z</time>
      </trkpt>
      <trkpt lat="48.01706" lon="-3.72111">
        <ele>185.6</ele>
        <time>2021-08-11T13:41:49Z</time>
      </trkpt>
      <trkpt lat="48.01703" lon="-3.72111">
        <ele>185.6</ele>
        <time>2021-08-11T13:41:50Z</time>
      </trkpt>
      <trkpt lat="48.017" lon="-3.72111">
        <ele>185.6</ele>
        <time>2021-08-11T13:41:51Z</time>
      </trkpt>
      <trkpt lat="48.01697" lon="-3.72111">
        <ele>185.8</ele>
        <time>2021-08-11T13:41:52Z</time>
      </trkpt>
      <trkpt lat="48.01694" lon="-3.72111">
        <ele>185.8</ele>
        <time>2021-08-11T13:41:53Z</time>
      </trkpt>
      <trkpt lat="48.01691" lon="-3.72111">
        <ele>185.8</ele>
        <time>2021-08-11T13:41:54Z</time>
      </trkpt>
      <trkpt lat="48.01687" lon="-3.7211">
        <ele>185.8</ele>
        <time>2021-08-11T13:41:55Z</time>
      </trkpt>
      <trkpt lat="48.01684" lon="-3.7211">
        <ele>186</ele>
        <time>2021-08-11T13:41:56Z</time>
      </trkpt>
      <trkpt lat="48.0168" lon="-3.7211">
        <ele>186</ele>
        <time>2021-08-11T13:41:57Z</time>
      </trkpt>
      <trkpt lat="48.01676" lon="-3.7211">
        <ele>186</ele>
        <time>2021-08-11T13:41:58Z</time>
      </trkpt>
      <trkpt lat="48.01672" lon="-3.72109">
        <ele>186.2</ele>
        <time>2021-08-11T13:41:59Z</time>
      </trkpt>
      <trkpt lat="48.01669" lon="-3.7211">
        <ele>186.4</ele>
        <time>2021-08-11T13:42:00Z</time>
      </trkpt>
      <trkpt lat="48.01665" lon="-3.7211">
        <ele>186.4</ele>
        <time>2021-08-11T13:42:01Z</time>
      </trkpt>
      <trkpt lat="48.01661" lon="-3.7211">
        <ele>186.4</ele>
        <time>2021-08-11T13:42:02Z</time>
      </trkpt>
      <trkpt lat="48.01656" lon="-3.72111">
        <ele>186.4</ele>
        <time>2021-08-11T13:42:03Z</time>
      </trkpt>
      <trkpt lat="48.01653" lon="-3.72111">
        <ele>186.4</ele>
        <time>2021-08-11T13:42:04Z</time>
      </trkpt>
      <trkpt lat="48.01649" lon="-3.7211">
        <ele>186.4</ele>
        <time>2021-08-11T13:42:05Z</time>
      </trkpt>
      <trkpt lat="48.01644" lon="-3.7211">
        <ele>186.4</ele>
        <time>2021-08-11T13:42:06Z</time>
      </trkpt>
      <trkpt lat="48.0164" lon="-3.7211">
        <ele>186.6</ele>
        <time>2021-08-11T13:42:07Z</time>
      </trkpt>
      <trkpt lat="48.01636" lon="-3.72111">
        <ele>186.6</ele>
        <time>2021-08-11T13:42:08Z</time>
      </trkpt>
      <trkpt lat="48.01631" lon="-3.72112">
        <ele>186.6</ele>
        <time>2021-08-11T13:42:09Z</time>
      </trkpt>
      <trkpt lat="48.01627" lon="-3.72113">
        <ele>186.6</ele>
        <time>2021-08-11T13:42:10Z</time>
      </trkpt>
      <trkpt lat="48.01623" lon="-3.72114">
        <ele>186.6</ele>
        <time>2021-08-11T13:42:11Z</time>
      </trkpt>
      <trkpt lat="48.01619" lon="-3.72115">
        <ele>186.6</ele>
        <time>2021-08-11T13:42:12Z</time>
      </trkpt>
      <trkpt lat="48.01615" lon="-3.72115">
        <ele>186.6</ele>
        <time>2021-08-11T13:42:13Z</time>
      </trkpt>
      <trkpt lat="48.01611" lon="-3.72117">
        <ele>186.6</ele>
        <time>2021-08-11T13:42:14Z</time>
      </trkpt>
      <trkpt lat="48.01606" lon="-3.72117">
        <ele>186.6</ele>
        <time>2021-08-11T13:42:15Z</time>
      </trkpt>
      <trkpt lat="48.01602" lon="-3.72118">
        <ele>186.6</ele>
        <time>2021-08-11T13:42:16Z</time>
      </trkpt>
      <trkpt lat="48.01598" lon="-3.72119">
        <ele>186.6</ele>
        <time>2021-08-11T13:42:17Z</time>
      </trkpt>
      <trkpt lat="48.01594" lon="-3.72119">
        <ele>186.6</ele>
        <time>2021-08-11T13:42:18Z</time>
      </trkpt>
      <trkpt lat="48.01591" lon="-3.7212">
        <ele>186.6</ele>
        <time>2021-08-11T13:42:19Z</time>
      </trkpt>
      <trkpt lat="48.01587" lon="-3.72121">
        <ele>186.6</ele>
        <time>2021-08-11T13:42:20Z</time>
      </trkpt>
      <trkpt lat="48.01584" lon="-3.72122">
        <ele>186.6</ele>
        <time>2021-08-11T13:42:21Z</time>
      </trkpt>
      <trkpt lat="48.01581" lon="-3.72123">
        <ele>186.6</ele>
        <time>2021-08-11T13:42:22Z</time>
      </trkpt>
      <trkpt lat="48.01578" lon="-3.72124">
        <ele>186.6</ele>
        <time>2021-08-11T13:42:23Z</time>
      </trkpt>
      <trkpt lat="48.01576" lon="-3.72124">
        <ele>186.4</ele>
        <time>2021-08-11T13:42:24Z</time>
      </trkpt>
      <trkpt lat="48.01574" lon="-3.72125">
        <ele>186.4</ele>
        <time>2021-08-11T13:42:25Z</time>
      </trkpt>
      <trkpt lat="48.01573" lon="-3.72125">
        <ele>186.4</ele>
        <time>2021-08-11T13:42:26Z</time>
      </trkpt>
      <trkpt lat="48.01571" lon="-3.72125">
        <ele>186.4</ele>
        <time>2021-08-11T13:42:27Z</time>
      </trkpt>
      <trkpt lat="48.01569" lon="-3.72125">
        <ele>186.4</ele>
        <time>2021-08-11T13:42:28Z</time>
      </trkpt>
      <trkpt lat="48.01567" lon="-3.72125">
        <ele>186.4</ele>
        <time>2021-08-11T13:42:29Z</time>
      </trkpt>
      <trkpt lat="48.01565" lon="-3.72126">
        <ele>186.4</ele>
        <time>2021-08-11T13:42:30Z</time>
      </trkpt>
      <trkpt lat="48.01563" lon="-3.72127">
        <ele>186.4</ele>
        <time>2021-08-11T13:42:31Z</time>
      </trkpt>
      <trkpt lat="48.0156" lon="-3.72128">
        <ele>186.4</ele>
        <time>2021-08-11T13:42:32Z</time>
      </trkpt>
      <trkpt lat="48.01558" lon="-3.72129">
        <ele>186.4</ele>
        <time>2021-08-11T13:42:33Z</time>
      </trkpt>
      <trkpt lat="48.01557" lon="-3.7213">
        <ele>186.4</ele>
        <time>2021-08-11T13:42:34Z</time>
      </trkpt>
      <trkpt lat="48.01555" lon="-3.72131">
        <ele>186.4</ele>
        <time>2021-08-11T13:42:35Z</time>
      </trkpt>
      <trkpt lat="48.01553" lon="-3.72132">
        <ele>186.4</ele>
        <time>2021-08-11T13:42:36Z</time>
      </trkpt>
      <trkpt lat="48.01552" lon="-3.72134">
        <ele>186.4</ele>
        <time>2021-08-11T13:42:37Z</time>
      </trkpt>
      <trkpt lat="48.0155" lon="-3.72135">
        <ele>186.4</ele>
        <time>2021-08-11T13:42:38Z</time>
      </trkpt>
      <trkpt lat="48.01548" lon="-3.72136">
        <ele>186.4</ele>
        <time>2021-08-11T13:42:39Z</time>
      </trkpt>
      <trkpt lat="48.01546" lon="-3.72138">
        <ele>186.4</ele>
        <time>2021-08-11T13:42:40Z</time>
      </trkpt>
      <trkpt lat="48.01544" lon="-3.72139">
        <ele>186.4</ele>
        <time>2021-08-11T13:42:41Z</time>
      </trkpt>
      <trkpt lat="48.01541" lon="-3.72139">
        <ele>186.4</ele>
        <time>2021-08-11T13:42:42Z</time>
      </trkpt>
      <trkpt lat="48.01539" lon="-3.7214">
        <ele>186.4</ele>
        <time>2021-08-11T13:42:43Z</time>
      </trkpt>
      <trkpt lat="48.01537" lon="-3.7214">
        <ele>186.4</ele>
        <time>2021-08-11T13:42:44Z</time>
      </trkpt>
      <trkpt lat="48.01535" lon="-3.72141">
        <ele>186.4</ele>
        <time>2021-08-11T13:42:45Z</time>
      </trkpt>
      <trkpt lat="48.01534" lon="-3.72142">
        <ele>186.4</ele>
        <time>2021-08-11T13:42:46Z</time>
      </trkpt>
      <trkpt lat="48.01532" lon="-3.72142">
        <ele>186.4</ele>
        <time>2021-08-11T13:42:47Z</time>
      </trkpt>
      <trkpt lat="48.0153" lon="-3.72143">
        <ele>186.4</ele>
        <time>2021-08-11T13:42:48Z</time>
      </trkpt>
      <trkpt lat="48.01527" lon="-3.72144">
        <ele>186.4</ele>
        <time>2021-08-11T13:42:49Z</time>
      </trkpt>
      <trkpt lat="48.01524" lon="-3.72146">
        <ele>186.4</ele>
        <time>2021-08-11T13:42:50Z</time>
      </trkpt>
      <trkpt lat="48.01521" lon="-3.72148">
        <ele>186.4</ele>
        <time>2021-08-11T13:42:51Z</time>
      </trkpt>
      <trkpt lat="48.01517" lon="-3.72151">
        <ele>186.4</ele>
        <time>2021-08-11T13:42:52Z</time>
      </trkpt>
      <trkpt lat="48.01513" lon="-3.72153">
        <ele>186.4</ele>
        <time>2021-08-11T13:42:53Z</time>
      </trkpt>
      <trkpt lat="48.01509" lon="-3.72157">
        <ele>186.2</ele>
        <time>2021-08-11T13:42:54Z</time>
      </trkpt>
      <trkpt lat="48.01504" lon="-3.7216">
        <ele>186</ele>
        <time>2021-08-11T13:42:55Z</time>
      </trkpt>
      <trkpt lat="48.01499" lon="-3.72164">
        <ele>186</ele>
        <time>2021-08-11T13:42:56Z</time>
      </trkpt>
      <trkpt lat="48.01495" lon="-3.72168">
        <ele>185.6</ele>
        <time>2021-08-11T13:42:57Z</time>
      </trkpt>
      <trkpt lat="48.0149" lon="-3.72173">
        <ele>185</ele>
        <time>2021-08-11T13:42:58Z</time>
      </trkpt>
      <trkpt lat="48.01485" lon="-3.72177">
        <ele>184.8</ele>
        <time>2021-08-11T13:42:59Z</time>
      </trkpt>
      <trkpt lat="48.01479" lon="-3.72181">
        <ele>184.6</ele>
        <time>2021-08-11T13:43:00Z</time>
      </trkpt>
      <trkpt lat="48.01474" lon="-3.72185">
        <ele>184.2</ele>
        <time>2021-08-11T13:43:01Z</time>
      </trkpt>
      <trkpt lat="48.01469" lon="-3.7219">
        <ele>184</ele>
        <time>2021-08-11T13:43:02Z</time>
      </trkpt>
      <trkpt lat="48.01463" lon="-3.72195">
        <ele>183.6</ele>
        <time>2021-08-11T13:43:03Z</time>
      </trkpt>
      <trkpt lat="48.01457" lon="-3.72199">
        <ele>183.4</ele>
        <time>2021-08-11T13:43:04Z</time>
      </trkpt>
      <trkpt lat="48.01452" lon="-3.72204">
        <ele>183.2</ele>
        <time>2021-08-11T13:43:05Z</time>
      </trkpt>
      <trkpt lat="48.01447" lon="-3.72209">
        <ele>183.2</ele>
        <time>2021-08-11T13:43:06Z</time>
      </trkpt>
      <trkpt lat="48.01442" lon="-3.72213">
        <ele>183.2</ele>
        <time>2021-08-11T13:43:07Z</time>
      </trkpt>
      <trkpt lat="48.01438" lon="-3.72218">
        <ele>183.2</ele>
        <time>2021-08-11T13:43:08Z</time>
      </trkpt>
      <trkpt lat="48.01433" lon="-3.72222">
        <ele>183</ele>
        <time>2021-08-11T13:43:09Z</time>
      </trkpt>
      <trkpt lat="48.01429" lon="-3.72227">
        <ele>182.8</ele>
        <time>2021-08-11T13:43:10Z</time>
      </trkpt>
      <trkpt lat="48.01425" lon="-3.72232">
        <ele>182.6</ele>
        <time>2021-08-11T13:43:11Z</time>
      </trkpt>
      <trkpt lat="48.01421" lon="-3.72237">
        <ele>182.4</ele>
        <time>2021-08-11T13:43:12Z</time>
      </trkpt>
      <trkpt lat="48.01417" lon="-3.72242">
        <ele>182.2</ele>
        <time>2021-08-11T13:43:13Z</time>
      </trkpt>
      <trkpt lat="48.01413" lon="-3.72247">
        <ele>182</ele>
        <time>2021-08-11T13:43:14Z</time>
      </trkpt>
      <trkpt lat="48.01409" lon="-3.72252">
        <ele>181.8</ele>
        <time>2021-08-11T13:43:15Z</time>
      </trkpt>
      <trkpt lat="48.01405" lon="-3.72257">
        <ele>181.8</ele>
        <time>2021-08-11T13:43:16Z</time>
      </trkpt>
      <trkpt lat="48.01402" lon="-3.72262">
        <ele>181.8</ele>
        <time>2021-08-11T13:43:17Z</time>
      </trkpt>
      <trkpt lat="48.01398" lon="-3.72268">
        <ele>181.6</ele>
        <time>2021-08-11T13:43:18Z</time>
      </trkpt>
      <trkpt lat="48.01394" lon="-3.72273">
        <ele>181.6</ele>
        <time>2021-08-11T13:43:19Z</time>
      </trkpt>
      <trkpt lat="48.0139" lon="-3.72279">
        <ele>181.6</ele>
        <time>2021-08-11T13:43:20Z</time>
      </trkpt>
      <trkpt lat="48.01387" lon="-3.72286">
        <ele>181.6</ele>
        <time>2021-08-11T13:43:21Z</time>
      </trkpt>
      <trkpt lat="48.01383" lon="-3.72292">
        <ele>181.4</ele>
        <time>2021-08-11T13:43:22Z</time>
      </trkpt>
      <trkpt lat="48.0138" lon="-3.72299">
        <ele>181.4</ele>
        <time>2021-08-11T13:43:23Z</time>
      </trkpt>
      <trkpt lat="48.01376" lon="-3.72305">
        <ele>181.4</ele>
        <time>2021-08-11T13:43:24Z</time>
      </trkpt>
      <trkpt lat="48.01373" lon="-3.72311">
        <ele>181.2</ele>
        <time>2021-08-11T13:43:25Z</time>
      </trkpt>
      <trkpt lat="48.0137" lon="-3.72317">
        <ele>181.2</ele>
        <time>2021-08-11T13:43:26Z</time>
      </trkpt>
      <trkpt lat="48.01367" lon="-3.72323">
        <ele>181</ele>
        <time>2021-08-11T13:43:27Z</time>
      </trkpt>
      <trkpt lat="48.01364" lon="-3.7233">
        <ele>180.8</ele>
        <time>2021-08-11T13:43:28Z</time>
      </trkpt>
      <trkpt lat="48.0136" lon="-3.72336">
        <ele>180.8</ele>
        <time>2021-08-11T13:43:29Z</time>
      </trkpt>
      <trkpt lat="48.01357" lon="-3.72343">
        <ele>180.6</ele>
        <time>2021-08-11T13:43:30Z</time>
      </trkpt>
      <trkpt lat="48.01353" lon="-3.7235">
        <ele>180.4</ele>
        <time>2021-08-11T13:43:31Z</time>
      </trkpt>
      <trkpt lat="48.0135" lon="-3.72357">
        <ele>180.2</ele>
        <time>2021-08-11T13:43:32Z</time>
      </trkpt>
      <trkpt lat="48.01346" lon="-3.72365">
        <ele>180.2</ele>
        <time>2021-08-11T13:43:33Z</time>
      </trkpt>
      <trkpt lat="48.01342" lon="-3.72372">
        <ele>180</ele>
        <time>2021-08-11T13:43:34Z</time>
      </trkpt>
      <trkpt lat="48.01338" lon="-3.72379">
        <ele>180</ele>
        <time>2021-08-11T13:43:35Z</time>
      </trkpt>
      <trkpt lat="48.01333" lon="-3.72388">
        <ele>180</ele>
        <time>2021-08-11T13:43:36Z</time>
      </trkpt>
      <trkpt lat="48.01329" lon="-3.72395">
        <ele>179.8</ele>
        <time>2021-08-11T13:43:37Z</time>
      </trkpt>
      <trkpt lat="48.01325" lon="-3.72403">
        <ele>179.8</ele>
        <time>2021-08-11T13:43:38Z</time>
      </trkpt>
      <trkpt lat="48.01321" lon="-3.7241">
        <ele>179.8</ele>
        <time>2021-08-11T13:43:39Z</time>
      </trkpt>
      <trkpt lat="48.01317" lon="-3.72418">
        <ele>179.4</ele>
        <time>2021-08-11T13:43:40Z</time>
      </trkpt>
      <trkpt lat="48.01314" lon="-3.72425">
        <ele>179</ele>
        <time>2021-08-11T13:43:41Z</time>
      </trkpt>
      <trkpt lat="48.0131" lon="-3.72433">
        <ele>178.6</ele>
        <time>2021-08-11T13:43:42Z</time>
      </trkpt>
      <trkpt lat="48.01307" lon="-3.7244">
        <ele>178.4</ele>
        <time>2021-08-11T13:43:43Z</time>
      </trkpt>
      <trkpt lat="48.01303" lon="-3.72447">
        <ele>178.4</ele>
        <time>2021-08-11T13:43:44Z</time>
      </trkpt>
      <trkpt lat="48.013" lon="-3.72454">
        <ele>178.4</ele>
        <time>2021-08-11T13:43:45Z</time>
      </trkpt>
      <trkpt lat="48.01296" lon="-3.72462">
        <ele>178</ele>
        <time>2021-08-11T13:43:46Z</time>
      </trkpt>
      <trkpt lat="48.01292" lon="-3.72468">
        <ele>177.8</ele>
        <time>2021-08-11T13:43:47Z</time>
      </trkpt>
      <trkpt lat="48.01288" lon="-3.72475">
        <ele>177.4</ele>
        <time>2021-08-11T13:43:48Z</time>
      </trkpt>
      <trkpt lat="48.01284" lon="-3.72482">
        <ele>177.4</ele>
        <time>2021-08-11T13:43:49Z</time>
      </trkpt>
      <trkpt lat="48.01281" lon="-3.72489">
        <ele>177.2</ele>
        <time>2021-08-11T13:43:50Z</time>
      </trkpt>
      <trkpt lat="48.01277" lon="-3.72497">
        <ele>177.2</ele>
        <time>2021-08-11T13:43:51Z</time>
      </trkpt>
      <trkpt lat="48.01273" lon="-3.72504">
        <ele>177</ele>
        <time>2021-08-11T13:43:52Z</time>
      </trkpt>
      <trkpt lat="48.0127" lon="-3.72512">
        <ele>176.8</ele>
        <time>2021-08-11T13:43:53Z</time>
      </trkpt>
      <trkpt lat="48.01266" lon="-3.72519">
        <ele>176.8</ele>
        <time>2021-08-11T13:43:54Z</time>
      </trkpt>
      <trkpt lat="48.01262" lon="-3.72526">
        <ele>176.6</ele>
        <time>2021-08-11T13:43:55Z</time>
      </trkpt>
      <trkpt lat="48.01258" lon="-3.72534">
        <ele>176.4</ele>
        <time>2021-08-11T13:43:56Z</time>
      </trkpt>
      <trkpt lat="48.01255" lon="-3.7254">
        <ele>176.4</ele>
        <time>2021-08-11T13:43:57Z</time>
      </trkpt>
      <trkpt lat="48.01251" lon="-3.72548">
        <ele>176</ele>
        <time>2021-08-11T13:43:58Z</time>
      </trkpt>
      <trkpt lat="48.01247" lon="-3.72555">
        <ele>175.8</ele>
        <time>2021-08-11T13:43:59Z</time>
      </trkpt>
      <trkpt lat="48.01243" lon="-3.72562">
        <ele>175.4</ele>
        <time>2021-08-11T13:44:00Z</time>
      </trkpt>
      <trkpt lat="48.01239" lon="-3.72571">
        <ele>175.4</ele>
        <time>2021-08-11T13:44:01Z</time>
      </trkpt>
      <trkpt lat="48.01235" lon="-3.72579">
        <ele>175.2</ele>
        <time>2021-08-11T13:44:02Z</time>
      </trkpt>
      <trkpt lat="48.0123" lon="-3.72586">
        <ele>175</ele>
        <time>2021-08-11T13:44:03Z</time>
      </trkpt>
      <trkpt lat="48.01226" lon="-3.72594">
        <ele>174.8</ele>
        <time>2021-08-11T13:44:04Z</time>
      </trkpt>
      <trkpt lat="48.01222" lon="-3.72602">
        <ele>174.8</ele>
        <time>2021-08-11T13:44:05Z</time>
      </trkpt>
      <trkpt lat="48.01218" lon="-3.72609">
        <ele>174.2</ele>
        <time>2021-08-11T13:44:06Z</time>
      </trkpt>
      <trkpt lat="48.01215" lon="-3.72616">
        <ele>174.2</ele>
        <time>2021-08-11T13:44:07Z</time>
      </trkpt>
      <trkpt lat="48.0121" lon="-3.72624">
        <ele>174</ele>
        <time>2021-08-11T13:44:08Z</time>
      </trkpt>
      <trkpt lat="48.01206" lon="-3.72633">
        <ele>173.8</ele>
        <time>2021-08-11T13:44:09Z</time>
      </trkpt>
      <trkpt lat="48.01202" lon="-3.7264">
        <ele>173.8</ele>
        <time>2021-08-11T13:44:10Z</time>
      </trkpt>
      <trkpt lat="48.01198" lon="-3.72648">
        <ele>173.8</ele>
        <time>2021-08-11T13:44:11Z</time>
      </trkpt>
      <trkpt lat="48.01194" lon="-3.72656">
        <ele>173.4</ele>
        <time>2021-08-11T13:44:12Z</time>
      </trkpt>
      <trkpt lat="48.01189" lon="-3.72664">
        <ele>173.4</ele>
        <time>2021-08-11T13:44:13Z</time>
      </trkpt>
      <trkpt lat="48.01185" lon="-3.72673">
        <ele>173.2</ele>
        <time>2021-08-11T13:44:14Z</time>
      </trkpt>
      <trkpt lat="48.01181" lon="-3.72681">
        <ele>173.2</ele>
        <time>2021-08-11T13:44:15Z</time>
      </trkpt>
      <trkpt lat="48.01177" lon="-3.72688">
        <ele>172.8</ele>
        <time>2021-08-11T13:44:16Z</time>
      </trkpt>
      <trkpt lat="48.01172" lon="-3.72696">
        <ele>172.6</ele>
        <time>2021-08-11T13:44:17Z</time>
      </trkpt>
      <trkpt lat="48.01168" lon="-3.72703">
        <ele>172.4</ele>
        <time>2021-08-11T13:44:18Z</time>
      </trkpt>
      <trkpt lat="48.01164" lon="-3.7271">
        <ele>172.2</ele>
        <time>2021-08-11T13:44:19Z</time>
      </trkpt>
      <trkpt lat="48.0116" lon="-3.72718">
        <ele>172.2</ele>
        <time>2021-08-11T13:44:20Z</time>
      </trkpt>
      <trkpt lat="48.01156" lon="-3.72726">
        <ele>172</ele>
        <time>2021-08-11T13:44:21Z</time>
      </trkpt>
      <trkpt lat="48.01152" lon="-3.72733">
        <ele>172</ele>
        <time>2021-08-11T13:44:22Z</time>
      </trkpt>
      <trkpt lat="48.01147" lon="-3.7274">
        <ele>171.8</ele>
        <time>2021-08-11T13:44:23Z</time>
      </trkpt>
      <trkpt lat="48.01144" lon="-3.72747">
        <ele>171.8</ele>
        <time>2021-08-11T13:44:24Z</time>
      </trkpt>
      <trkpt lat="48.01141" lon="-3.72754">
        <ele>171.6</ele>
        <time>2021-08-11T13:44:25Z</time>
      </trkpt>
      <trkpt lat="48.01138" lon="-3.7276">
        <ele>171.4</ele>
        <time>2021-08-11T13:44:26Z</time>
      </trkpt>
      <trkpt lat="48.01135" lon="-3.72767">
        <ele>171.4</ele>
        <time>2021-08-11T13:44:27Z</time>
      </trkpt>
      <trkpt lat="48.01132" lon="-3.72773">
        <ele>171.4</ele>
        <time>2021-08-11T13:44:28Z</time>
      </trkpt>
      <trkpt lat="48.01128" lon="-3.72781">
        <ele>171.4</ele>
        <time>2021-08-11T13:44:29Z</time>
      </trkpt>
      <trkpt lat="48.01125" lon="-3.72788">
        <ele>171.2</ele>
        <time>2021-08-11T13:44:30Z</time>
      </trkpt>
      <trkpt lat="48.01122" lon="-3.72794">
        <ele>171.2</ele>
        <time>2021-08-11T13:44:31Z</time>
      </trkpt>
      <trkpt lat="48.01119" lon="-3.72802">
        <ele>170.8</ele>
        <time>2021-08-11T13:44:32Z</time>
      </trkpt>
      <trkpt lat="48.01115" lon="-3.72809">
        <ele>170.6</ele>
        <time>2021-08-11T13:44:33Z</time>
      </trkpt>
      <trkpt lat="48.01112" lon="-3.72816">
        <ele>170.6</ele>
        <time>2021-08-11T13:44:34Z</time>
      </trkpt>
      <trkpt lat="48.01109" lon="-3.72823">
        <ele>170.2</ele>
        <time>2021-08-11T13:44:35Z</time>
      </trkpt>
      <trkpt lat="48.01106" lon="-3.7283">
        <ele>170</ele>
        <time>2021-08-11T13:44:36Z</time>
      </trkpt>
      <trkpt lat="48.01102" lon="-3.72838">
        <ele>170</ele>
        <time>2021-08-11T13:44:37Z</time>
      </trkpt>
      <trkpt lat="48.01099" lon="-3.72846">
        <ele>170</ele>
        <time>2021-08-11T13:44:38Z</time>
      </trkpt>
      <trkpt lat="48.01095" lon="-3.72855">
        <ele>169.8</ele>
        <time>2021-08-11T13:44:39Z</time>
      </trkpt>
      <trkpt lat="48.01092" lon="-3.72863">
        <ele>169.6</ele>
        <time>2021-08-11T13:44:40Z</time>
      </trkpt>
      <trkpt lat="48.01089" lon="-3.72871">
        <ele>169.4</ele>
        <time>2021-08-11T13:44:41Z</time>
      </trkpt>
      <trkpt lat="48.01085" lon="-3.72879">
        <ele>169.4</ele>
        <time>2021-08-11T13:44:42Z</time>
      </trkpt>
      <trkpt lat="48.01082" lon="-3.72887">
        <ele>169.2</ele>
        <time>2021-08-11T13:44:43Z</time>
      </trkpt>
      <trkpt lat="48.01079" lon="-3.72895">
        <ele>169.2</ele>
        <time>2021-08-11T13:44:44Z</time>
      </trkpt>
      <trkpt lat="48.01076" lon="-3.72903">
        <ele>169</ele>
        <time>2021-08-11T13:44:45Z</time>
      </trkpt>
      <trkpt lat="48.01074" lon="-3.7291">
        <ele>169</ele>
        <time>2021-08-11T13:44:46Z</time>
      </trkpt>
      <trkpt lat="48.01071" lon="-3.72919">
        <ele>169</ele>
        <time>2021-08-11T13:44:47Z</time>
      </trkpt>
      <trkpt lat="48.01068" lon="-3.72927">
        <ele>168.6</ele>
        <time>2021-08-11T13:44:48Z</time>
      </trkpt>
      <trkpt lat="48.01065" lon="-3.72935">
        <ele>168.4</ele>
        <time>2021-08-11T13:44:49Z</time>
      </trkpt>
      <trkpt lat="48.01062" lon="-3.72944">
        <ele>168.2</ele>
        <time>2021-08-11T13:44:50Z</time>
      </trkpt>
      <trkpt lat="48.0106" lon="-3.72951">
        <ele>168.2</ele>
        <time>2021-08-11T13:44:51Z</time>
      </trkpt>
      <trkpt lat="48.01058" lon="-3.72959">
        <ele>168</ele>
        <time>2021-08-11T13:44:52Z</time>
      </trkpt>
      <trkpt lat="48.01056" lon="-3.72966">
        <ele>168</ele>
        <time>2021-08-11T13:44:53Z</time>
      </trkpt>
      <trkpt lat="48.01053" lon="-3.72973">
        <ele>168</ele>
        <time>2021-08-11T13:44:54Z</time>
      </trkpt>
      <trkpt lat="48.0105" lon="-3.72982">
        <ele>168</ele>
        <time>2021-08-11T13:44:55Z</time>
      </trkpt>
      <trkpt lat="48.01048" lon="-3.7299">
        <ele>168</ele>
        <time>2021-08-11T13:44:56Z</time>
      </trkpt>
      <trkpt lat="48.01044" lon="-3.72999">
        <ele>168</ele>
        <time>2021-08-11T13:44:57Z</time>
      </trkpt>
      <trkpt lat="48.01041" lon="-3.73009">
        <ele>168</ele>
        <time>2021-08-11T13:44:58Z</time>
      </trkpt>
      <trkpt lat="48.01037" lon="-3.73019">
        <ele>167.6</ele>
        <time>2021-08-11T13:44:59Z</time>
      </trkpt>
      <trkpt lat="48.01033" lon="-3.7303">
        <ele>167.6</ele>
        <time>2021-08-11T13:45:00Z</time>
      </trkpt>
      <trkpt lat="48.01029" lon="-3.7304">
        <ele>167.4</ele>
        <time>2021-08-11T13:45:01Z</time>
      </trkpt>
      <trkpt lat="48.01025" lon="-3.7305">
        <ele>167.4</ele>
        <time>2021-08-11T13:45:02Z</time>
      </trkpt>
      <trkpt lat="48.01021" lon="-3.7306">
        <ele>167.4</ele>
        <time>2021-08-11T13:45:03Z</time>
      </trkpt>
      <trkpt lat="48.01018" lon="-3.73071">
        <ele>167.4</ele>
        <time>2021-08-11T13:45:04Z</time>
      </trkpt>
      <trkpt lat="48.01014" lon="-3.73081">
        <ele>167.2</ele>
        <time>2021-08-11T13:45:05Z</time>
      </trkpt>
      <trkpt lat="48.01011" lon="-3.73091">
        <ele>167</ele>
        <time>2021-08-11T13:45:06Z</time>
      </trkpt>
      <trkpt lat="48.01007" lon="-3.73101">
        <ele>166.8</ele>
        <time>2021-08-11T13:45:07Z</time>
      </trkpt>
      <trkpt lat="48.01003" lon="-3.73112">
        <ele>166.6</ele>
        <time>2021-08-11T13:45:08Z</time>
      </trkpt>
      <trkpt lat="48.00999" lon="-3.73123">
        <ele>166.2</ele>
        <time>2021-08-11T13:45:09Z</time>
      </trkpt>
      <trkpt lat="48.00995" lon="-3.73133">
        <ele>165.8</ele>
        <time>2021-08-11T13:45:10Z</time>
      </trkpt>
      <trkpt lat="48.0099" lon="-3.73144">
        <ele>165.4</ele>
        <time>2021-08-11T13:45:11Z</time>
      </trkpt>
      <trkpt lat="48.00986" lon="-3.73155">
        <ele>165.4</ele>
        <time>2021-08-11T13:45:12Z</time>
      </trkpt>
      <trkpt lat="48.00982" lon="-3.73165">
        <ele>165</ele>
        <time>2021-08-11T13:45:13Z</time>
      </trkpt>
      <trkpt lat="48.00978" lon="-3.73176">
        <ele>164.8</ele>
        <time>2021-08-11T13:45:14Z</time>
      </trkpt>
      <trkpt lat="48.00974" lon="-3.73188">
        <ele>164.8</ele>
        <time>2021-08-11T13:45:15Z</time>
      </trkpt>
      <trkpt lat="48.0097" lon="-3.732">
        <ele>164.2</ele>
        <time>2021-08-11T13:45:16Z</time>
      </trkpt>
      <trkpt lat="48.00966" lon="-3.7321">
        <ele>164</ele>
        <time>2021-08-11T13:45:17Z</time>
      </trkpt>
      <trkpt lat="48.00962" lon="-3.73221">
        <ele>163.8</ele>
        <time>2021-08-11T13:45:18Z</time>
      </trkpt>
      <trkpt lat="48.00959" lon="-3.73232">
        <ele>163.4</ele>
        <time>2021-08-11T13:45:19Z</time>
      </trkpt>
      <trkpt lat="48.00955" lon="-3.73242">
        <ele>163.2</ele>
        <time>2021-08-11T13:45:20Z</time>
      </trkpt>
      <trkpt lat="48.00951" lon="-3.73253">
        <ele>163.2</ele>
        <time>2021-08-11T13:45:21Z</time>
      </trkpt>
      <trkpt lat="48.00947" lon="-3.73265">
        <ele>163</ele>
        <time>2021-08-11T13:45:22Z</time>
      </trkpt>
      <trkpt lat="48.00942" lon="-3.73276">
        <ele>162.6</ele>
        <time>2021-08-11T13:45:23Z</time>
      </trkpt>
      <trkpt lat="48.00937" lon="-3.73289">
        <ele>162.4</ele>
        <time>2021-08-11T13:45:24Z</time>
      </trkpt>
      <trkpt lat="48.00932" lon="-3.733">
        <ele>162.4</ele>
        <time>2021-08-11T13:45:25Z</time>
      </trkpt>
      <trkpt lat="48.00927" lon="-3.73312">
        <ele>162.2</ele>
        <time>2021-08-11T13:45:26Z</time>
      </trkpt>
      <trkpt lat="48.00921" lon="-3.73323">
        <ele>162.2</ele>
        <time>2021-08-11T13:45:27Z</time>
      </trkpt>
      <trkpt lat="48.00916" lon="-3.73335">
        <ele>162</ele>
        <time>2021-08-11T13:45:28Z</time>
      </trkpt>
      <trkpt lat="48.0091" lon="-3.73345">
        <ele>162</ele>
        <time>2021-08-11T13:45:29Z</time>
      </trkpt>
      <trkpt lat="48.00904" lon="-3.73355">
        <ele>161.8</ele>
        <time>2021-08-11T13:45:30Z</time>
      </trkpt>
      <trkpt lat="48.00899" lon="-3.73364">
        <ele>161.6</ele>
        <time>2021-08-11T13:45:31Z</time>
      </trkpt>
      <trkpt lat="48.00892" lon="-3.73374">
        <ele>161.2</ele>
        <time>2021-08-11T13:45:32Z</time>
      </trkpt>
      <trkpt lat="48.00886" lon="-3.73382">
        <ele>161</ele>
        <time>2021-08-11T13:45:33Z</time>
      </trkpt>
      <trkpt lat="48.0088" lon="-3.7339">
        <ele>160.8</ele>
        <time>2021-08-11T13:45:34Z</time>
      </trkpt>
      <trkpt lat="48.00875" lon="-3.73398">
        <ele>160.6</ele>
        <time>2021-08-11T13:45:35Z</time>
      </trkpt>
      <trkpt lat="48.0087" lon="-3.73406">
        <ele>160.4</ele>
        <time>2021-08-11T13:45:36Z</time>
      </trkpt>
      <trkpt lat="48.00865" lon="-3.73414">
        <ele>160.2</ele>
        <time>2021-08-11T13:45:37Z</time>
      </trkpt>
      <trkpt lat="48.00859" lon="-3.73422">
        <ele>159.8</ele>
        <time>2021-08-11T13:45:38Z</time>
      </trkpt>
      <trkpt lat="48.00853" lon="-3.73429">
        <ele>159.6</ele>
        <time>2021-08-11T13:45:39Z</time>
      </trkpt>
      <trkpt lat="48.00847" lon="-3.73437">
        <ele>159.2</ele>
        <time>2021-08-11T13:45:40Z</time>
      </trkpt>
      <trkpt lat="48.00841" lon="-3.73445">
        <ele>158.8</ele>
        <time>2021-08-11T13:45:41Z</time>
      </trkpt>
      <trkpt lat="48.00835" lon="-3.73453">
        <ele>158.6</ele>
        <time>2021-08-11T13:45:42Z</time>
      </trkpt>
      <trkpt lat="48.00829" lon="-3.73461">
        <ele>158.4</ele>
        <time>2021-08-11T13:45:43Z</time>
      </trkpt>
      <trkpt lat="48.00822" lon="-3.7347">
        <ele>158.2</ele>
        <time>2021-08-11T13:45:44Z</time>
      </trkpt>
      <trkpt lat="48.00816" lon="-3.73478">
        <ele>158.2</ele>
        <time>2021-08-11T13:45:45Z</time>
      </trkpt>
      <trkpt lat="48.0081" lon="-3.73485">
        <ele>158.2</ele>
        <time>2021-08-11T13:45:46Z</time>
      </trkpt>
      <trkpt lat="48.00804" lon="-3.73492">
        <ele>158</ele>
        <time>2021-08-11T13:45:47Z</time>
      </trkpt>
      <trkpt lat="48.00798" lon="-3.735">
        <ele>157.8</ele>
        <time>2021-08-11T13:45:48Z</time>
      </trkpt>
      <trkpt lat="48.00792" lon="-3.73508">
        <ele>157.6</ele>
        <time>2021-08-11T13:45:49Z</time>
      </trkpt>
      <trkpt lat="48.00785" lon="-3.73516">
        <ele>157.6</ele>
        <time>2021-08-11T13:45:50Z</time>
      </trkpt>
      <trkpt lat="48.00779" lon="-3.73523">
        <ele>157.4</ele>
        <time>2021-08-11T13:45:51Z</time>
      </trkpt>
      <trkpt lat="48.00773" lon="-3.73531">
        <ele>157.2</ele>
        <time>2021-08-11T13:45:52Z</time>
      </trkpt>
      <trkpt lat="48.00766" lon="-3.7354">
        <ele>157</ele>
        <time>2021-08-11T13:45:53Z</time>
      </trkpt>
      <trkpt lat="48.0076" lon="-3.73548">
        <ele>156.8</ele>
        <time>2021-08-11T13:45:54Z</time>
      </trkpt>
      <trkpt lat="48.00755" lon="-3.73555">
        <ele>156.4</ele>
        <time>2021-08-11T13:45:55Z</time>
      </trkpt>
      <trkpt lat="48.00749" lon="-3.73563">
        <ele>156.2</ele>
        <time>2021-08-11T13:45:56Z</time>
      </trkpt>
      <trkpt lat="48.00743" lon="-3.73571">
        <ele>155.8</ele>
        <time>2021-08-11T13:45:57Z</time>
      </trkpt>
      <trkpt lat="48.00736" lon="-3.73579">
        <ele>155.6</ele>
        <time>2021-08-11T13:45:58Z</time>
      </trkpt>
      <trkpt lat="48.0073" lon="-3.73587">
        <ele>155.2</ele>
        <time>2021-08-11T13:45:59Z</time>
      </trkpt>
      <trkpt lat="48.00725" lon="-3.73595">
        <ele>155</ele>
        <time>2021-08-11T13:46:00Z</time>
      </trkpt>
      <trkpt lat="48.00719" lon="-3.73603">
        <ele>154.8</ele>
        <time>2021-08-11T13:46:01Z</time>
      </trkpt>
      <trkpt lat="48.00714" lon="-3.73612">
        <ele>154.6</ele>
        <time>2021-08-11T13:46:02Z</time>
      </trkpt>
      <trkpt lat="48.00709" lon="-3.73622">
        <ele>154.4</ele>
        <time>2021-08-11T13:46:03Z</time>
      </trkpt>
      <trkpt lat="48.00703" lon="-3.73631">
        <ele>154.4</ele>
        <time>2021-08-11T13:46:04Z</time>
      </trkpt>
      <trkpt lat="48.00698" lon="-3.73642">
        <ele>154.2</ele>
        <time>2021-08-11T13:46:05Z</time>
      </trkpt>
      <trkpt lat="48.00692" lon="-3.73653">
        <ele>154.2</ele>
        <time>2021-08-11T13:46:06Z</time>
      </trkpt>
      <trkpt lat="48.00687" lon="-3.73665">
        <ele>154.2</ele>
        <time>2021-08-11T13:46:07Z</time>
      </trkpt>
      <trkpt lat="48.00683" lon="-3.73677">
        <ele>154</ele>
        <time>2021-08-11T13:46:08Z</time>
      </trkpt>
      <trkpt lat="48.00678" lon="-3.73688">
        <ele>153.8</ele>
        <time>2021-08-11T13:46:09Z</time>
      </trkpt>
      <trkpt lat="48.00674" lon="-3.737">
        <ele>153.6</ele>
        <time>2021-08-11T13:46:10Z</time>
      </trkpt>
      <trkpt lat="48.00671" lon="-3.73712">
        <ele>153.4</ele>
        <time>2021-08-11T13:46:11Z</time>
      </trkpt>
      <trkpt lat="48.00668" lon="-3.73724">
        <ele>153.2</ele>
        <time>2021-08-11T13:46:12Z</time>
      </trkpt>
      <trkpt lat="48.00665" lon="-3.73736">
        <ele>153.2</ele>
        <time>2021-08-11T13:46:13Z</time>
      </trkpt>
      <trkpt lat="48.00663" lon="-3.73747">
        <ele>153</ele>
        <time>2021-08-11T13:46:14Z</time>
      </trkpt>
      <trkpt lat="48.00661" lon="-3.73757">
        <ele>152.8</ele>
        <time>2021-08-11T13:46:15Z</time>
      </trkpt>
      <trkpt lat="48.0066" lon="-3.73767">
        <ele>152.8</ele>
        <time>2021-08-11T13:46:16Z</time>
      </trkpt>
      <trkpt lat="48.00659" lon="-3.73778">
        <ele>152.6</ele>
        <time>2021-08-11T13:46:17Z</time>
      </trkpt>
      <trkpt lat="48.00658" lon="-3.73789">
        <ele>152.6</ele>
        <time>2021-08-11T13:46:18Z</time>
      </trkpt>
      <trkpt lat="48.00658" lon="-3.738">
        <ele>152.4</ele>
        <time>2021-08-11T13:46:19Z</time>
      </trkpt>
      <trkpt lat="48.00657" lon="-3.73812">
        <ele>152.4</ele>
        <time>2021-08-11T13:46:20Z</time>
      </trkpt>
      <trkpt lat="48.00657" lon="-3.73823">
        <ele>152.2</ele>
        <time>2021-08-11T13:46:21Z</time>
      </trkpt>
      <trkpt lat="48.00658" lon="-3.73834">
        <ele>152</ele>
        <time>2021-08-11T13:46:22Z</time>
      </trkpt>
      <trkpt lat="48.00658" lon="-3.73844">
        <ele>152</ele>
        <time>2021-08-11T13:46:23Z</time>
      </trkpt>
      <trkpt lat="48.00659" lon="-3.73854">
        <ele>151.8</ele>
        <time>2021-08-11T13:46:24Z</time>
      </trkpt>
      <trkpt lat="48.00659" lon="-3.73865">
        <ele>151.8</ele>
        <time>2021-08-11T13:46:25Z</time>
      </trkpt>
      <trkpt lat="48.00661" lon="-3.73875">
        <ele>151.6</ele>
        <time>2021-08-11T13:46:26Z</time>
      </trkpt>
      <trkpt lat="48.00663" lon="-3.73885">
        <ele>151.6</ele>
        <time>2021-08-11T13:46:27Z</time>
      </trkpt>
      <trkpt lat="48.00665" lon="-3.73896">
        <ele>151.6</ele>
        <time>2021-08-11T13:46:28Z</time>
      </trkpt>
      <trkpt lat="48.00667" lon="-3.73907">
        <ele>151.4</ele>
        <time>2021-08-11T13:46:29Z</time>
      </trkpt>
      <trkpt lat="48.00669" lon="-3.73919">
        <ele>151.2</ele>
        <time>2021-08-11T13:46:30Z</time>
      </trkpt>
      <trkpt lat="48.00671" lon="-3.73931">
        <ele>151</ele>
        <time>2021-08-11T13:46:31Z</time>
      </trkpt>
      <trkpt lat="48.00673" lon="-3.73941">
        <ele>151</ele>
        <time>2021-08-11T13:46:32Z</time>
      </trkpt>
      <trkpt lat="48.00675" lon="-3.73952">
        <ele>150.8</ele>
        <time>2021-08-11T13:46:33Z</time>
      </trkpt>
      <trkpt lat="48.00676" lon="-3.73963">
        <ele>150.8</ele>
        <time>2021-08-11T13:46:34Z</time>
      </trkpt>
      <trkpt lat="48.00677" lon="-3.73974">
        <ele>150.8</ele>
        <time>2021-08-11T13:46:35Z</time>
      </trkpt>
      <trkpt lat="48.00679" lon="-3.73984">
        <ele>150.6</ele>
        <time>2021-08-11T13:46:36Z</time>
      </trkpt>
      <trkpt lat="48.0068" lon="-3.73994">
        <ele>150.6</ele>
        <time>2021-08-11T13:46:37Z</time>
      </trkpt>
      <trkpt lat="48.00682" lon="-3.74003">
        <ele>150.4</ele>
        <time>2021-08-11T13:46:38Z</time>
      </trkpt>
      <trkpt lat="48.00683" lon="-3.74012">
        <ele>150.2</ele>
        <time>2021-08-11T13:46:39Z</time>
      </trkpt>
      <trkpt lat="48.00684" lon="-3.74022">
        <ele>150</ele>
        <time>2021-08-11T13:46:40Z</time>
      </trkpt>
      <trkpt lat="48.00686" lon="-3.74032">
        <ele>149.8</ele>
        <time>2021-08-11T13:46:41Z</time>
      </trkpt>
      <trkpt lat="48.00687" lon="-3.74042">
        <ele>149.4</ele>
        <time>2021-08-11T13:46:42Z</time>
      </trkpt>
      <trkpt lat="48.00688" lon="-3.74052">
        <ele>149.2</ele>
        <time>2021-08-11T13:46:43Z</time>
      </trkpt>
      <trkpt lat="48.00689" lon="-3.74062">
        <ele>149</ele>
        <time>2021-08-11T13:46:44Z</time>
      </trkpt>
      <trkpt lat="48.0069" lon="-3.74072">
        <ele>148.8</ele>
        <time>2021-08-11T13:46:45Z</time>
      </trkpt>
      <trkpt lat="48.0069" lon="-3.74082">
        <ele>148.8</ele>
        <time>2021-08-11T13:46:46Z</time>
      </trkpt>
      <trkpt lat="48.00689" lon="-3.74091">
        <ele>148.6</ele>
        <time>2021-08-11T13:46:47Z</time>
      </trkpt>
      <trkpt lat="48.00689" lon="-3.74099">
        <ele>148.4</ele>
        <time>2021-08-11T13:46:48Z</time>
      </trkpt>
      <trkpt lat="48.00689" lon="-3.74108">
        <ele>148.4</ele>
        <time>2021-08-11T13:46:49Z</time>
      </trkpt>
      <trkpt lat="48.00688" lon="-3.74117">
        <ele>148.4</ele>
        <time>2021-08-11T13:46:50Z</time>
      </trkpt>
      <trkpt lat="48.00688" lon="-3.74126">
        <ele>148.4</ele>
        <time>2021-08-11T13:46:51Z</time>
      </trkpt>
      <trkpt lat="48.00687" lon="-3.74135">
        <ele>148.2</ele>
        <time>2021-08-11T13:46:52Z</time>
      </trkpt>
      <trkpt lat="48.00687" lon="-3.74145">
        <ele>148.2</ele>
        <time>2021-08-11T13:46:53Z</time>
      </trkpt>
      <trkpt lat="48.00686" lon="-3.74155">
        <ele>148.2</ele>
        <time>2021-08-11T13:46:54Z</time>
      </trkpt>
      <trkpt lat="48.00686" lon="-3.74166">
        <ele>148.2</ele>
        <time>2021-08-11T13:46:55Z</time>
      </trkpt>
      <trkpt lat="48.00685" lon="-3.74176">
        <ele>148.2</ele>
        <time>2021-08-11T13:46:56Z</time>
      </trkpt>
      <trkpt lat="48.00683" lon="-3.74186">
        <ele>148.2</ele>
        <time>2021-08-11T13:46:57Z</time>
      </trkpt>
      <trkpt lat="48.0068" lon="-3.74196">
        <ele>148.2</ele>
        <time>2021-08-11T13:46:58Z</time>
      </trkpt>
      <trkpt lat="48.00678" lon="-3.74204">
        <ele>148.2</ele>
        <time>2021-08-11T13:46:59Z</time>
      </trkpt>
      <trkpt lat="48.00676" lon="-3.74212">
        <ele>148</ele>
        <time>2021-08-11T13:47:00Z</time>
      </trkpt>
      <trkpt lat="48.00674" lon="-3.7422">
        <ele>147.6</ele>
        <time>2021-08-11T13:47:01Z</time>
      </trkpt>
      <trkpt lat="48.00673" lon="-3.74228">
        <ele>147.2</ele>
        <time>2021-08-11T13:47:02Z</time>
      </trkpt>
      <trkpt lat="48.00671" lon="-3.74238">
        <ele>146.8</ele>
        <time>2021-08-11T13:47:03Z</time>
      </trkpt>
      <trkpt lat="48.00669" lon="-3.74247">
        <ele>146.4</ele>
        <time>2021-08-11T13:47:04Z</time>
      </trkpt>
      <trkpt lat="48.00666" lon="-3.74258">
        <ele>146.4</ele>
        <time>2021-08-11T13:47:05Z</time>
      </trkpt>
      <trkpt lat="48.00664" lon="-3.74267">
        <ele>146.2</ele>
        <time>2021-08-11T13:47:06Z</time>
      </trkpt>
      <trkpt lat="48.00661" lon="-3.7428">
        <ele>146</ele>
        <time>2021-08-11T13:47:07Z</time>
      </trkpt>
      <trkpt lat="48.00658" lon="-3.74292">
        <ele>146</ele>
        <time>2021-08-11T13:47:08Z</time>
      </trkpt>
      <trkpt lat="48.00656" lon="-3.74303">
        <ele>146</ele>
        <time>2021-08-11T13:47:09Z</time>
      </trkpt>
      <trkpt lat="48.00653" lon="-3.74314">
        <ele>145.8</ele>
        <time>2021-08-11T13:47:10Z</time>
      </trkpt>
      <trkpt lat="48.0065" lon="-3.74323">
        <ele>145.6</ele>
        <time>2021-08-11T13:47:11Z</time>
      </trkpt>
      <trkpt lat="48.00647" lon="-3.74334">
        <ele>145.6</ele>
        <time>2021-08-11T13:47:12Z</time>
      </trkpt>
      <trkpt lat="48.00644" lon="-3.74346">
        <ele>145.4</ele>
        <time>2021-08-11T13:47:13Z</time>
      </trkpt>
      <trkpt lat="48.00641" lon="-3.74356">
        <ele>145.4</ele>
        <time>2021-08-11T13:47:14Z</time>
      </trkpt>
      <trkpt lat="48.00638" lon="-3.74366">
        <ele>145.4</ele>
        <time>2021-08-11T13:47:15Z</time>
      </trkpt>
      <trkpt lat="48.00635" lon="-3.74378">
        <ele>145.2</ele>
        <time>2021-08-11T13:47:16Z</time>
      </trkpt>
      <trkpt lat="48.00633" lon="-3.74388">
        <ele>145.2</ele>
        <time>2021-08-11T13:47:17Z</time>
      </trkpt>
      <trkpt lat="48.0063" lon="-3.74397">
        <ele>145.2</ele>
        <time>2021-08-11T13:47:18Z</time>
      </trkpt>
      <trkpt lat="48.00628" lon="-3.74406">
        <ele>144.8</ele>
        <time>2021-08-11T13:47:19Z</time>
      </trkpt>
      <trkpt lat="48.00625" lon="-3.74417">
        <ele>144.4</ele>
        <time>2021-08-11T13:47:20Z</time>
      </trkpt>
      <trkpt lat="48.00622" lon="-3.74428">
        <ele>144.2</ele>
        <time>2021-08-11T13:47:21Z</time>
      </trkpt>
      <trkpt lat="48.00619" lon="-3.74439">
        <ele>144</ele>
        <time>2021-08-11T13:47:22Z</time>
      </trkpt>
      <trkpt lat="48.00616" lon="-3.7445">
        <ele>143.8</ele>
        <time>2021-08-11T13:47:23Z</time>
      </trkpt>
      <trkpt lat="48.00614" lon="-3.7446">
        <ele>143.8</ele>
        <time>2021-08-11T13:47:24Z</time>
      </trkpt>
      <trkpt lat="48.00611" lon="-3.74471">
        <ele>143.8</ele>
        <time>2021-08-11T13:47:25Z</time>
      </trkpt>
      <trkpt lat="48.00609" lon="-3.74481">
        <ele>143.6</ele>
        <time>2021-08-11T13:47:26Z</time>
      </trkpt>
      <trkpt lat="48.00607" lon="-3.7449">
        <ele>143.6</ele>
        <time>2021-08-11T13:47:27Z</time>
      </trkpt>
      <trkpt lat="48.00604" lon="-3.745">
        <ele>143.4</ele>
        <time>2021-08-11T13:47:28Z</time>
      </trkpt>
      <trkpt lat="48.00601" lon="-3.74511">
        <ele>143.4</ele>
        <time>2021-08-11T13:47:29Z</time>
      </trkpt>
      <trkpt lat="48.00598" lon="-3.74522">
        <ele>143.2</ele>
        <time>2021-08-11T13:47:30Z</time>
      </trkpt>
      <trkpt lat="48.00596" lon="-3.74531">
        <ele>143.2</ele>
        <time>2021-08-11T13:47:31Z</time>
      </trkpt>
      <trkpt lat="48.00593" lon="-3.74542">
        <ele>143.2</ele>
        <time>2021-08-11T13:47:32Z</time>
      </trkpt>
      <trkpt lat="48.0059" lon="-3.74552">
        <ele>143</ele>
        <time>2021-08-11T13:47:33Z</time>
      </trkpt>
      <trkpt lat="48.00588" lon="-3.74562">
        <ele>143</ele>
        <time>2021-08-11T13:47:34Z</time>
      </trkpt>
      <trkpt lat="48.00584" lon="-3.74573">
        <ele>143</ele>
        <time>2021-08-11T13:47:35Z</time>
      </trkpt>
      <trkpt lat="48.00581" lon="-3.74583">
        <ele>142.8</ele>
        <time>2021-08-11T13:47:36Z</time>
      </trkpt>
      <trkpt lat="48.00578" lon="-3.74594">
        <ele>142.8</ele>
        <time>2021-08-11T13:47:37Z</time>
      </trkpt>
      <trkpt lat="48.00575" lon="-3.74605">
        <ele>142.6</ele>
        <time>2021-08-11T13:47:38Z</time>
      </trkpt>
      <trkpt lat="48.00572" lon="-3.74614">
        <ele>142.4</ele>
        <time>2021-08-11T13:47:39Z</time>
      </trkpt>
      <trkpt lat="48.00569" lon="-3.74624">
        <ele>142.2</ele>
        <time>2021-08-11T13:47:40Z</time>
      </trkpt>
      <trkpt lat="48.00566" lon="-3.74633">
        <ele>142.2</ele>
        <time>2021-08-11T13:47:41Z</time>
      </trkpt>
      <trkpt lat="48.00563" lon="-3.74641">
        <ele>142</ele>
        <time>2021-08-11T13:47:42Z</time>
      </trkpt>
      <trkpt lat="48.00559" lon="-3.74652">
        <ele>141.8</ele>
        <time>2021-08-11T13:47:43Z</time>
      </trkpt>
      <trkpt lat="48.00556" lon="-3.74661">
        <ele>141.8</ele>
        <time>2021-08-11T13:47:44Z</time>
      </trkpt>
      <trkpt lat="48.00554" lon="-3.74668">
        <ele>141.8</ele>
        <time>2021-08-11T13:47:45Z</time>
      </trkpt>
      <trkpt lat="48.0055" lon="-3.74677">
        <ele>141.6</ele>
        <time>2021-08-11T13:47:46Z</time>
      </trkpt>
      <trkpt lat="48.00546" lon="-3.74685">
        <ele>141.6</ele>
        <time>2021-08-11T13:47:47Z</time>
      </trkpt>
      <trkpt lat="48.00542" lon="-3.74694">
        <ele>141</ele>
        <time>2021-08-11T13:47:48Z</time>
      </trkpt>
      <trkpt lat="48.00538" lon="-3.74702">
        <ele>140.8</ele>
        <time>2021-08-11T13:47:49Z</time>
      </trkpt>
      <trkpt lat="48.00533" lon="-3.74712">
        <ele>140.6</ele>
        <time>2021-08-11T13:47:50Z</time>
      </trkpt>
      <trkpt lat="48.00528" lon="-3.74721">
        <ele>140.2</ele>
        <time>2021-08-11T13:47:51Z</time>
      </trkpt>
      <trkpt lat="48.00524" lon="-3.7473">
        <ele>140</ele>
        <time>2021-08-11T13:47:52Z</time>
      </trkpt>
      <trkpt lat="48.00519" lon="-3.74739">
        <ele>139.8</ele>
        <time>2021-08-11T13:47:53Z</time>
      </trkpt>
      <trkpt lat="48.00513" lon="-3.74747">
        <ele>139.6</ele>
        <time>2021-08-11T13:47:54Z</time>
      </trkpt>
      <trkpt lat="48.00508" lon="-3.74756">
        <ele>139.4</ele>
        <time>2021-08-11T13:47:55Z</time>
      </trkpt>
      <trkpt lat="48.00501" lon="-3.74764">
        <ele>139.4</ele>
        <time>2021-08-11T13:47:56Z</time>
      </trkpt>
      <trkpt lat="48.00496" lon="-3.74772">
        <ele>139.2</ele>
        <time>2021-08-11T13:47:57Z</time>
      </trkpt>
      <trkpt lat="48.00489" lon="-3.74781">
        <ele>139.2</ele>
        <time>2021-08-11T13:47:58Z</time>
      </trkpt>
      <trkpt lat="48.00483" lon="-3.74789">
        <ele>139</ele>
        <time>2021-08-11T13:47:59Z</time>
      </trkpt>
      <trkpt lat="48.00477" lon="-3.74798">
        <ele>138.6</ele>
        <time>2021-08-11T13:48:00Z</time>
      </trkpt>
      <trkpt lat="48.00471" lon="-3.74806">
        <ele>138.4</ele>
        <time>2021-08-11T13:48:01Z</time>
      </trkpt>
      <trkpt lat="48.00465" lon="-3.74813">
        <ele>138.2</ele>
        <time>2021-08-11T13:48:02Z</time>
      </trkpt>
      <trkpt lat="48.00459" lon="-3.74819">
        <ele>138.2</ele>
        <time>2021-08-11T13:48:03Z</time>
      </trkpt>
      <trkpt lat="48.00454" lon="-3.74826">
        <ele>138</ele>
        <time>2021-08-11T13:48:04Z</time>
      </trkpt>
      <trkpt lat="48.00448" lon="-3.74831">
        <ele>137.8</ele>
        <time>2021-08-11T13:48:05Z</time>
      </trkpt>
      <trkpt lat="48.00442" lon="-3.74838">
        <ele>137.4</ele>
        <time>2021-08-11T13:48:06Z</time>
      </trkpt>
      <trkpt lat="48.00436" lon="-3.74844">
        <ele>137</ele>
        <time>2021-08-11T13:48:07Z</time>
      </trkpt>
      <trkpt lat="48.00431" lon="-3.74848">
        <ele>136.8</ele>
        <time>2021-08-11T13:48:08Z</time>
      </trkpt>
      <trkpt lat="48.00426" lon="-3.74852">
        <ele>136.6</ele>
        <time>2021-08-11T13:48:09Z</time>
      </trkpt>
      <trkpt lat="48.00421" lon="-3.74856">
        <ele>136.6</ele>
        <time>2021-08-11T13:48:10Z</time>
      </trkpt>
      <trkpt lat="48.00415" lon="-3.74861">
        <ele>136.4</ele>
        <time>2021-08-11T13:48:11Z</time>
      </trkpt>
      <trkpt lat="48.00407" lon="-3.74867">
        <ele>136.2</ele>
        <time>2021-08-11T13:48:12Z</time>
      </trkpt>
      <trkpt lat="48.004" lon="-3.74874">
        <ele>136.2</ele>
        <time>2021-08-11T13:48:13Z</time>
      </trkpt>
      <trkpt lat="48.00392" lon="-3.7488">
        <ele>136</ele>
        <time>2021-08-11T13:48:14Z</time>
      </trkpt>
      <trkpt lat="48.00386" lon="-3.74885">
        <ele>136</ele>
        <time>2021-08-11T13:48:15Z</time>
      </trkpt>
      <trkpt lat="48.00379" lon="-3.74891">
        <ele>136</ele>
        <time>2021-08-11T13:48:16Z</time>
      </trkpt>
      <trkpt lat="48.00373" lon="-3.74895">
        <ele>135.8</ele>
        <time>2021-08-11T13:48:17Z</time>
      </trkpt>
      <trkpt lat="48.00367" lon="-3.749">
        <ele>135.8</ele>
        <time>2021-08-11T13:48:18Z</time>
      </trkpt>
      <trkpt lat="48.00361" lon="-3.74904">
        <ele>135.6</ele>
        <time>2021-08-11T13:48:19Z</time>
      </trkpt>
      <trkpt lat="48.00355" lon="-3.74908">
        <ele>135.4</ele>
        <time>2021-08-11T13:48:20Z</time>
      </trkpt>
      <trkpt lat="48.0035" lon="-3.74912">
        <ele>135.4</ele>
        <time>2021-08-11T13:48:21Z</time>
      </trkpt>
      <trkpt lat="48.00344" lon="-3.74917">
        <ele>135.2</ele>
        <time>2021-08-11T13:48:22Z</time>
      </trkpt>
      <trkpt lat="48.00338" lon="-3.74921">
        <ele>135.2</ele>
        <time>2021-08-11T13:48:23Z</time>
      </trkpt>
      <trkpt lat="48.00332" lon="-3.74925">
        <ele>135.2</ele>
        <time>2021-08-11T13:48:24Z</time>
      </trkpt>
      <trkpt lat="48.00326" lon="-3.7493">
        <ele>135</ele>
        <time>2021-08-11T13:48:25Z</time>
      </trkpt>
      <trkpt lat="48.00319" lon="-3.74934">
        <ele>135</ele>
        <time>2021-08-11T13:48:26Z</time>
      </trkpt>
      <trkpt lat="48.00312" lon="-3.74939">
        <ele>135</ele>
        <time>2021-08-11T13:48:27Z</time>
      </trkpt>
      <trkpt lat="48.00306" lon="-3.74944">
        <ele>135</ele>
        <time>2021-08-11T13:48:28Z</time>
      </trkpt>
      <trkpt lat="48.003" lon="-3.74949">
        <ele>134.8</ele>
        <time>2021-08-11T13:48:29Z</time>
      </trkpt>
      <trkpt lat="48.00293" lon="-3.74955">
        <ele>135</ele>
        <time>2021-08-11T13:48:30Z</time>
      </trkpt>
      <trkpt lat="48.00286" lon="-3.74961">
        <ele>135</ele>
        <time>2021-08-11T13:48:31Z</time>
      </trkpt>
      <trkpt lat="48.00278" lon="-3.74966">
        <ele>134.8</ele>
        <time>2021-08-11T13:48:32Z</time>
      </trkpt>
      <trkpt lat="48.00272" lon="-3.74972">
        <ele>134.6</ele>
        <time>2021-08-11T13:48:33Z</time>
      </trkpt>
      <trkpt lat="48.00266" lon="-3.74977">
        <ele>134.4</ele>
        <time>2021-08-11T13:48:34Z</time>
      </trkpt>
      <trkpt lat="48.0026" lon="-3.74983">
        <ele>134</ele>
        <time>2021-08-11T13:48:35Z</time>
      </trkpt>
      <trkpt lat="48.00253" lon="-3.74988">
        <ele>133.8</ele>
        <time>2021-08-11T13:48:36Z</time>
      </trkpt>
      <trkpt lat="48.00247" lon="-3.74993">
        <ele>133.6</ele>
        <time>2021-08-11T13:48:37Z</time>
      </trkpt>
      <trkpt lat="48.00241" lon="-3.74998">
        <ele>133.2</ele>
        <time>2021-08-11T13:48:38Z</time>
      </trkpt>
      <trkpt lat="48.00234" lon="-3.75005">
        <ele>133.2</ele>
        <time>2021-08-11T13:48:39Z</time>
      </trkpt>
      <trkpt lat="48.00229" lon="-3.7501">
        <ele>133</ele>
        <time>2021-08-11T13:48:40Z</time>
      </trkpt>
      <trkpt lat="48.00224" lon="-3.75014">
        <ele>133</ele>
        <time>2021-08-11T13:48:41Z</time>
      </trkpt>
      <trkpt lat="48.00219" lon="-3.7502">
        <ele>133</ele>
        <time>2021-08-11T13:48:42Z</time>
      </trkpt>
      <trkpt lat="48.00214" lon="-3.75024">
        <ele>133</ele>
        <time>2021-08-11T13:48:43Z</time>
      </trkpt>
      <trkpt lat="48.00211" lon="-3.75028">
        <ele>133</ele>
        <time>2021-08-11T13:48:44Z</time>
      </trkpt>
      <trkpt lat="48.00209" lon="-3.75031">
        <ele>133</ele>
        <time>2021-08-11T13:48:45Z</time>
      </trkpt>
      <trkpt lat="48.00206" lon="-3.75035">
        <ele>133</ele>
        <time>2021-08-11T13:48:46Z</time>
      </trkpt>
      <trkpt lat="48.00204" lon="-3.75037">
        <ele>133</ele>
        <time>2021-08-11T13:48:47Z</time>
      </trkpt>
      <trkpt lat="48.002" lon="-3.75039">
        <ele>133</ele>
        <time>2021-08-11T13:48:48Z</time>
      </trkpt>
      <trkpt lat="48.00199" lon="-3.75041">
        <ele>133</ele>
        <time>2021-08-11T13:48:49Z</time>
      </trkpt>
      <trkpt lat="48.00197" lon="-3.75044">
        <ele>133</ele>
        <time>2021-08-11T13:48:50Z</time>
      </trkpt>
      <trkpt lat="48.00196" lon="-3.75046">
        <ele>133</ele>
        <time>2021-08-11T13:48:51Z</time>
      </trkpt>
      <trkpt lat="48.00195" lon="-3.75048">
        <ele>133.2</ele>
        <time>2021-08-11T13:48:52Z</time>
      </trkpt>
      <trkpt lat="48.00193" lon="-3.7505">
        <ele>133.2</ele>
        <time>2021-08-11T13:48:53Z</time>
      </trkpt>
      <trkpt lat="48.00191" lon="-3.75052">
        <ele>133.2</ele>
        <time>2021-08-11T13:48:54Z</time>
      </trkpt>
      <trkpt lat="48.00188" lon="-3.75055">
        <ele>133.4</ele>
        <time>2021-08-11T13:48:55Z</time>
      </trkpt>
      <trkpt lat="48.00185" lon="-3.75059">
        <ele>133.4</ele>
        <time>2021-08-11T13:48:56Z</time>
      </trkpt>
      <trkpt lat="48.00183" lon="-3.75062">
        <ele>133.4</ele>
        <time>2021-08-11T13:48:57Z</time>
      </trkpt>
      <trkpt lat="48.0018" lon="-3.75066">
        <ele>133.4</ele>
        <time>2021-08-11T13:48:58Z</time>
      </trkpt>
      <trkpt lat="48.00176" lon="-3.75069">
        <ele>133.4</ele>
        <time>2021-08-11T13:48:59Z</time>
      </trkpt>
      <trkpt lat="48.00173" lon="-3.75072">
        <ele>133.4</ele>
        <time>2021-08-11T13:49:00Z</time>
      </trkpt>
      <trkpt lat="48.0017" lon="-3.75076">
        <ele>133.4</ele>
        <time>2021-08-11T13:49:01Z</time>
      </trkpt>
      <trkpt lat="48.00168" lon="-3.75081">
        <ele>133.4</ele>
        <time>2021-08-11T13:49:02Z</time>
      </trkpt>
      <trkpt lat="48.00165" lon="-3.75087">
        <ele>133.4</ele>
        <time>2021-08-11T13:49:03Z</time>
      </trkpt>
      <trkpt lat="48.00162" lon="-3.75092">
        <ele>133.4</ele>
        <time>2021-08-11T13:49:04Z</time>
      </trkpt>
      <trkpt lat="48.00158" lon="-3.75098">
        <ele>133.2</ele>
        <time>2021-08-11T13:49:05Z</time>
      </trkpt>
      <trkpt lat="48.00155" lon="-3.75104">
        <ele>133.2</ele>
        <time>2021-08-11T13:49:06Z</time>
      </trkpt>
      <trkpt lat="48.00151" lon="-3.75111">
        <ele>133</ele>
        <time>2021-08-11T13:49:07Z</time>
      </trkpt>
      <trkpt lat="48.00147" lon="-3.75117">
        <ele>133</ele>
        <time>2021-08-11T13:49:08Z</time>
      </trkpt>
      <trkpt lat="48.00143" lon="-3.75123">
        <ele>132.6</ele>
        <time>2021-08-11T13:49:09Z</time>
      </trkpt>
      <trkpt lat="48.00139" lon="-3.7513">
        <ele>132.6</ele>
        <time>2021-08-11T13:49:10Z</time>
      </trkpt>
      <trkpt lat="48.00136" lon="-3.75136">
        <ele>132.4</ele>
        <time>2021-08-11T13:49:11Z</time>
      </trkpt>
      <trkpt lat="48.00133" lon="-3.75143">
        <ele>132.4</ele>
        <time>2021-08-11T13:49:12Z</time>
      </trkpt>
      <trkpt lat="48.00129" lon="-3.75149">
        <ele>132.4</ele>
        <time>2021-08-11T13:49:13Z</time>
      </trkpt>
      <trkpt lat="48.00126" lon="-3.75157">
        <ele>132.2</ele>
        <time>2021-08-11T13:49:14Z</time>
      </trkpt>
      <trkpt lat="48.00122" lon="-3.75165">
        <ele>132.2</ele>
        <time>2021-08-11T13:49:15Z</time>
      </trkpt>
      <trkpt lat="48.00119" lon="-3.75172">
        <ele>132.2</ele>
        <time>2021-08-11T13:49:16Z</time>
      </trkpt>
      <trkpt lat="48.00115" lon="-3.75179">
        <ele>132.2</ele>
        <time>2021-08-11T13:49:17Z</time>
      </trkpt>
      <trkpt lat="48.00112" lon="-3.75187">
        <ele>132</ele>
        <time>2021-08-11T13:49:18Z</time>
      </trkpt>
      <trkpt lat="48.00108" lon="-3.75194">
        <ele>132</ele>
        <time>2021-08-11T13:49:19Z</time>
      </trkpt>
      <trkpt lat="48.00104" lon="-3.75201">
        <ele>132</ele>
        <time>2021-08-11T13:49:20Z</time>
      </trkpt>
      <trkpt lat="48.00101" lon="-3.75208">
        <ele>131.8</ele>
        <time>2021-08-11T13:49:21Z</time>
      </trkpt>
      <trkpt lat="48.00097" lon="-3.75215">
        <ele>131.6</ele>
        <time>2021-08-11T13:49:22Z</time>
      </trkpt>
      <trkpt lat="48.00094" lon="-3.75222">
        <ele>131.6</ele>
        <time>2021-08-11T13:49:23Z</time>
      </trkpt>
      <trkpt lat="48.00091" lon="-3.75228">
        <ele>131.6</ele>
        <time>2021-08-11T13:49:24Z</time>
      </trkpt>
      <trkpt lat="48.00088" lon="-3.75234">
        <ele>131.6</ele>
        <time>2021-08-11T13:49:25Z</time>
      </trkpt>
      <trkpt lat="48.00086" lon="-3.75239">
        <ele>131.6</ele>
        <time>2021-08-11T13:49:26Z</time>
      </trkpt>
      <trkpt lat="48.00083" lon="-3.75244">
        <ele>131.4</ele>
        <time>2021-08-11T13:49:27Z</time>
      </trkpt>
      <trkpt lat="48.00081" lon="-3.7525">
        <ele>131.4</ele>
        <time>2021-08-11T13:49:28Z</time>
      </trkpt>
      <trkpt lat="48.00077" lon="-3.75256">
        <ele>131.4</ele>
        <time>2021-08-11T13:49:29Z</time>
      </trkpt>
      <trkpt lat="48.00075" lon="-3.75261">
        <ele>131.4</ele>
        <time>2021-08-11T13:49:30Z</time>
      </trkpt>
      <trkpt lat="48.00073" lon="-3.75267">
        <ele>131.4</ele>
        <time>2021-08-11T13:49:31Z</time>
      </trkpt>
      <trkpt lat="48.0007" lon="-3.75273">
        <ele>131.4</ele>
        <time>2021-08-11T13:49:32Z</time>
      </trkpt>
      <trkpt lat="48.00067" lon="-3.7528">
        <ele>131.4</ele>
        <time>2021-08-11T13:49:33Z</time>
      </trkpt>
      <trkpt lat="48.00064" lon="-3.75287">
        <ele>131.4</ele>
        <time>2021-08-11T13:49:34Z</time>
      </trkpt>
      <trkpt lat="48.00061" lon="-3.75294">
        <ele>131.4</ele>
        <time>2021-08-11T13:49:35Z</time>
      </trkpt>
      <trkpt lat="48.00057" lon="-3.75301">
        <ele>131.4</ele>
        <time>2021-08-11T13:49:36Z</time>
      </trkpt>
      <trkpt lat="48.00053" lon="-3.75309">
        <ele>131.4</ele>
        <time>2021-08-11T13:49:37Z</time>
      </trkpt>
      <trkpt lat="48.0005" lon="-3.75316">
        <ele>131.4</ele>
        <time>2021-08-11T13:49:38Z</time>
      </trkpt>
      <trkpt lat="48.00047" lon="-3.75322">
        <ele>131.4</ele>
        <time>2021-08-11T13:49:39Z</time>
      </trkpt>
      <trkpt lat="48.00044" lon="-3.75329">
        <ele>131.4</ele>
        <time>2021-08-11T13:49:40Z</time>
      </trkpt>
      <trkpt lat="48.0004" lon="-3.75337">
        <ele>131.2</ele>
        <time>2021-08-11T13:49:41Z</time>
      </trkpt>
      <trkpt lat="48.00037" lon="-3.75344">
        <ele>131.2</ele>
        <time>2021-08-11T13:49:42Z</time>
      </trkpt>
      <trkpt lat="48.00034" lon="-3.75351">
        <ele>131.2</ele>
        <time>2021-08-11T13:49:43Z</time>
      </trkpt>
      <trkpt lat="48.00031" lon="-3.75359">
        <ele>131</ele>
        <time>2021-08-11T13:49:44Z</time>
      </trkpt>
      <trkpt lat="48.00028" lon="-3.75366">
        <ele>131</ele>
        <time>2021-08-11T13:49:45Z</time>
      </trkpt>
      <trkpt lat="48.00025" lon="-3.75374">
        <ele>131</ele>
        <time>2021-08-11T13:49:46Z</time>
      </trkpt>
      <trkpt lat="48.00022" lon="-3.75381">
        <ele>131</ele>
        <time>2021-08-11T13:49:47Z</time>
      </trkpt>
      <trkpt lat="48.00019" lon="-3.75389">
        <ele>131</ele>
        <time>2021-08-11T13:49:48Z</time>
      </trkpt>
      <trkpt lat="48.00015" lon="-3.75397">
        <ele>131</ele>
        <time>2021-08-11T13:49:49Z</time>
      </trkpt>
      <trkpt lat="48.00013" lon="-3.75405">
        <ele>131</ele>
        <time>2021-08-11T13:49:50Z</time>
      </trkpt>
      <trkpt lat="48.00009" lon="-3.75413">
        <ele>131</ele>
        <time>2021-08-11T13:49:51Z</time>
      </trkpt>
      <trkpt lat="48.00007" lon="-3.75421">
        <ele>131</ele>
        <time>2021-08-11T13:49:52Z</time>
      </trkpt>
      <trkpt lat="48.00004" lon="-3.75429">
        <ele>131</ele>
        <time>2021-08-11T13:49:53Z</time>
      </trkpt>
      <trkpt lat="48.00001" lon="-3.75436">
        <ele>131</ele>
        <time>2021-08-11T13:49:54Z</time>
      </trkpt>
      <trkpt lat="47.99998" lon="-3.75444">
        <ele>130.8</ele>
        <time>2021-08-11T13:49:55Z</time>
      </trkpt>
      <trkpt lat="47.99995" lon="-3.75452">
        <ele>131</ele>
        <time>2021-08-11T13:49:56Z</time>
      </trkpt>
      <trkpt lat="47.99992" lon="-3.7546">
        <ele>131</ele>
        <time>2021-08-11T13:49:57Z</time>
      </trkpt>
      <trkpt lat="47.99989" lon="-3.75469">
        <ele>130.8</ele>
        <time>2021-08-11T13:49:58Z</time>
      </trkpt>
      <trkpt lat="47.99987" lon="-3.75477">
        <ele>130.8</ele>
        <time>2021-08-11T13:49:59Z</time>
      </trkpt>
      <trkpt lat="47.99984" lon="-3.75486">
        <ele>130.8</ele>
        <time>2021-08-11T13:50:00Z</time>
      </trkpt>
      <trkpt lat="47.99981" lon="-3.75494">
        <ele>130.6</ele>
        <time>2021-08-11T13:50:01Z</time>
      </trkpt>
      <trkpt lat="47.99978" lon="-3.75502">
        <ele>130.6</ele>
        <time>2021-08-11T13:50:02Z</time>
      </trkpt>
      <trkpt lat="47.99976" lon="-3.7551">
        <ele>130.6</ele>
        <time>2021-08-11T13:50:03Z</time>
      </trkpt>
      <trkpt lat="47.99974" lon="-3.75518">
        <ele>130.6</ele>
        <time>2021-08-11T13:50:04Z</time>
      </trkpt>
      <trkpt lat="47.99972" lon="-3.75526">
        <ele>130.6</ele>
        <time>2021-08-11T13:50:05Z</time>
      </trkpt>
      <trkpt lat="47.99971" lon="-3.75534">
        <ele>130.6</ele>
        <time>2021-08-11T13:50:06Z</time>
      </trkpt>
      <trkpt lat="47.99969" lon="-3.75542">
        <ele>130.6</ele>
        <time>2021-08-11T13:50:07Z</time>
      </trkpt>
      <trkpt lat="47.99968" lon="-3.7555">
        <ele>130.6</ele>
        <time>2021-08-11T13:50:08Z</time>
      </trkpt>
      <trkpt lat="47.99966" lon="-3.75557">
        <ele>130.6</ele>
        <time>2021-08-11T13:50:09Z</time>
      </trkpt>
      <trkpt lat="47.99965" lon="-3.75564">
        <ele>130.4</ele>
        <time>2021-08-11T13:50:10Z</time>
      </trkpt>
      <trkpt lat="47.99963" lon="-3.75572">
        <ele>130.4</ele>
        <time>2021-08-11T13:50:11Z</time>
      </trkpt>
      <trkpt lat="47.99962" lon="-3.75579">
        <ele>130.4</ele>
        <time>2021-08-11T13:50:12Z</time>
      </trkpt>
      <trkpt lat="47.99961" lon="-3.75587">
        <ele>130.4</ele>
        <time>2021-08-11T13:50:13Z</time>
      </trkpt>
      <trkpt lat="47.9996" lon="-3.75594">
        <ele>130.4</ele>
        <time>2021-08-11T13:50:14Z</time>
      </trkpt>
      <trkpt lat="47.99958" lon="-3.75602">
        <ele>130.4</ele>
        <time>2021-08-11T13:50:15Z</time>
      </trkpt>
      <trkpt lat="47.99956" lon="-3.7561">
        <ele>130.4</ele>
        <time>2021-08-11T13:50:16Z</time>
      </trkpt>
      <trkpt lat="47.99955" lon="-3.75618">
        <ele>130.4</ele>
        <time>2021-08-11T13:50:17Z</time>
      </trkpt>
      <trkpt lat="47.99953" lon="-3.75625">
        <ele>130.4</ele>
        <time>2021-08-11T13:50:18Z</time>
      </trkpt>
      <trkpt lat="47.99952" lon="-3.75632">
        <ele>130.4</ele>
        <time>2021-08-11T13:50:19Z</time>
      </trkpt>
      <trkpt lat="47.99951" lon="-3.7564">
        <ele>130.4</ele>
        <time>2021-08-11T13:50:20Z</time>
      </trkpt>
      <trkpt lat="47.9995" lon="-3.75647">
        <ele>130.6</ele>
        <time>2021-08-11T13:50:21Z</time>
      </trkpt>
      <trkpt lat="47.99948" lon="-3.75654">
        <ele>130.8</ele>
        <time>2021-08-11T13:50:22Z</time>
      </trkpt>
      <trkpt lat="47.99947" lon="-3.75661">
        <ele>130.8</ele>
        <time>2021-08-11T13:50:23Z</time>
      </trkpt>
      <trkpt lat="47.99946" lon="-3.75667">
        <ele>131.2</ele>
        <time>2021-08-11T13:50:24Z</time>
      </trkpt>
      <trkpt lat="47.99945" lon="-3.75674">
        <ele>131.4</ele>
        <time>2021-08-11T13:50:25Z</time>
      </trkpt>
      <trkpt lat="47.99944" lon="-3.75679">
        <ele>131.4</ele>
        <time>2021-08-11T13:50:26Z</time>
      </trkpt>
      <trkpt lat="47.99943" lon="-3.75685">
        <ele>131.6</ele>
        <time>2021-08-11T13:50:27Z</time>
      </trkpt>
      <trkpt lat="47.99942" lon="-3.75692">
        <ele>131.6</ele>
        <time>2021-08-11T13:50:28Z</time>
      </trkpt>
      <trkpt lat="47.9994" lon="-3.75699">
        <ele>131.6</ele>
        <time>2021-08-11T13:50:29Z</time>
      </trkpt>
      <trkpt lat="47.99939" lon="-3.75706">
        <ele>131.8</ele>
        <time>2021-08-11T13:50:30Z</time>
      </trkpt>
      <trkpt lat="47.99938" lon="-3.75713">
        <ele>132</ele>
        <time>2021-08-11T13:50:31Z</time>
      </trkpt>
      <trkpt lat="47.99937" lon="-3.75719">
        <ele>132</ele>
        <time>2021-08-11T13:50:32Z</time>
      </trkpt>
      <trkpt lat="47.99936" lon="-3.75725">
        <ele>132.2</ele>
        <time>2021-08-11T13:50:33Z</time>
      </trkpt>
      <trkpt lat="47.99936" lon="-3.75731">
        <ele>132.2</ele>
        <time>2021-08-11T13:50:34Z</time>
      </trkpt>
      <trkpt lat="47.99935" lon="-3.75737">
        <ele>132.4</ele>
        <time>2021-08-11T13:50:35Z</time>
      </trkpt>
      <trkpt lat="47.99935" lon="-3.75742">
        <ele>132.4</ele>
        <time>2021-08-11T13:50:36Z</time>
      </trkpt>
      <trkpt lat="47.99934" lon="-3.75747">
        <ele>132.4</ele>
        <time>2021-08-11T13:50:37Z</time>
      </trkpt>
      <trkpt lat="47.99934" lon="-3.75753">
        <ele>132.4</ele>
        <time>2021-08-11T13:50:38Z</time>
      </trkpt>
      <trkpt lat="47.99932" lon="-3.75759">
        <ele>132.6</ele>
        <time>2021-08-11T13:50:39Z</time>
      </trkpt>
      <trkpt lat="47.99931" lon="-3.75765">
        <ele>132.6</ele>
        <time>2021-08-11T13:50:40Z</time>
      </trkpt>
      <trkpt lat="47.9993" lon="-3.75771">
        <ele>132.6</ele>
        <time>2021-08-11T13:50:41Z</time>
      </trkpt>
      <trkpt lat="47.99929" lon="-3.75778">
        <ele>132.6</ele>
        <time>2021-08-11T13:50:42Z</time>
      </trkpt>
      <trkpt lat="47.99928" lon="-3.75784">
        <ele>132.6</ele>
        <time>2021-08-11T13:50:43Z</time>
      </trkpt>
      <trkpt lat="47.99927" lon="-3.75789">
        <ele>132.8</ele>
        <time>2021-08-11T13:50:44Z</time>
      </trkpt>
      <trkpt lat="47.99924" lon="-3.75796">
        <ele>132.8</ele>
        <time>2021-08-11T13:50:45Z</time>
      </trkpt>
      <trkpt lat="47.99922" lon="-3.75802">
        <ele>132.8</ele>
        <time>2021-08-11T13:50:46Z</time>
      </trkpt>
      <trkpt lat="47.9992" lon="-3.75808">
        <ele>133</ele>
        <time>2021-08-11T13:50:47Z</time>
      </trkpt>
      <trkpt lat="47.99918" lon="-3.75815">
        <ele>133</ele>
        <time>2021-08-11T13:50:48Z</time>
      </trkpt>
      <trkpt lat="47.99917" lon="-3.7582">
        <ele>133.2</ele>
        <time>2021-08-11T13:50:49Z</time>
      </trkpt>
      <trkpt lat="47.99916" lon="-3.75825">
        <ele>133.2</ele>
        <time>2021-08-11T13:50:50Z</time>
      </trkpt>
      <trkpt lat="47.99914" lon="-3.7583">
        <ele>133.2</ele>
        <time>2021-08-11T13:50:51Z</time>
      </trkpt>
      <trkpt lat="47.99912" lon="-3.75836">
        <ele>133.4</ele>
        <time>2021-08-11T13:50:52Z</time>
      </trkpt>
      <trkpt lat="47.9991" lon="-3.75842">
        <ele>133.4</ele>
        <time>2021-08-11T13:50:53Z</time>
      </trkpt>
      <trkpt lat="47.99908" lon="-3.75849">
        <ele>133.4</ele>
        <time>2021-08-11T13:50:54Z</time>
      </trkpt>
      <trkpt lat="47.99907" lon="-3.75856">
        <ele>133.6</ele>
        <time>2021-08-11T13:50:55Z</time>
      </trkpt>
      <trkpt lat="47.99905" lon="-3.75862">
        <ele>133.6</ele>
        <time>2021-08-11T13:50:56Z</time>
      </trkpt>
      <trkpt lat="47.99903" lon="-3.75868">
        <ele>133.6</ele>
        <time>2021-08-11T13:50:57Z</time>
      </trkpt>
      <trkpt lat="47.99902" lon="-3.75874">
        <ele>133.6</ele>
        <time>2021-08-11T13:50:58Z</time>
      </trkpt>
      <trkpt lat="47.999" lon="-3.75879">
        <ele>133.6</ele>
        <time>2021-08-11T13:50:59Z</time>
      </trkpt>
      <trkpt lat="47.99898" lon="-3.75884">
        <ele>133.8</ele>
        <time>2021-08-11T13:51:00Z</time>
      </trkpt>
      <trkpt lat="47.99896" lon="-3.7589">
        <ele>133.8</ele>
        <time>2021-08-11T13:51:01Z</time>
      </trkpt>
      <trkpt lat="47.99895" lon="-3.75895">
        <ele>134</ele>
        <time>2021-08-11T13:51:02Z</time>
      </trkpt>
      <trkpt lat="47.99893" lon="-3.75899">
        <ele>134.2</ele>
        <time>2021-08-11T13:51:03Z</time>
      </trkpt>
      <trkpt lat="47.99892" lon="-3.75903">
        <ele>134.2</ele>
        <time>2021-08-11T13:51:04Z</time>
      </trkpt>
      <trkpt lat="47.99891" lon="-3.75906">
        <ele>134.4</ele>
        <time>2021-08-11T13:51:05Z</time>
      </trkpt>
      <trkpt lat="47.9989" lon="-3.75909">
        <ele>134.4</ele>
        <time>2021-08-11T13:51:06Z</time>
      </trkpt>
      <trkpt lat="47.99888" lon="-3.75913">
        <ele>134.6</ele>
        <time>2021-08-11T13:51:07Z</time>
      </trkpt>
      <trkpt lat="47.99887" lon="-3.75916">
        <ele>134.6</ele>
        <time>2021-08-11T13:51:08Z</time>
      </trkpt>
      <trkpt lat="47.99886" lon="-3.75919">
        <ele>134.6</ele>
        <time>2021-08-11T13:51:09Z</time>
      </trkpt>
      <trkpt lat="47.99885" lon="-3.75921">
        <ele>134.6</ele>
        <time>2021-08-11T13:51:10Z</time>
      </trkpt>
      <trkpt lat="47.99884" lon="-3.75923">
        <ele>135</ele>
        <time>2021-08-11T13:51:11Z</time>
      </trkpt>
      <trkpt lat="47.99884" lon="-3.75925">
        <ele>135.2</ele>
        <time>2021-08-11T13:51:12Z</time>
      </trkpt>
      <trkpt lat="47.99883" lon="-3.75927">
        <ele>135.2</ele>
        <time>2021-08-11T13:51:13Z</time>
      </trkpt>
      <trkpt lat="47.99881" lon="-3.75929">
        <ele>135.4</ele>
        <time>2021-08-11T13:51:14Z</time>
      </trkpt>
      <trkpt lat="47.9988" lon="-3.75931">
        <ele>135.4</ele>
        <time>2021-08-11T13:51:15Z</time>
      </trkpt>
      <trkpt lat="47.99879" lon="-3.75934">
        <ele>135.4</ele>
        <time>2021-08-11T13:51:16Z</time>
      </trkpt>
      <trkpt lat="47.99878" lon="-3.75937">
        <ele>135.6</ele>
        <time>2021-08-11T13:51:17Z</time>
      </trkpt>
      <trkpt lat="47.99877" lon="-3.7594">
        <ele>135.6</ele>
        <time>2021-08-11T13:51:18Z</time>
      </trkpt>
      <trkpt lat="47.99875" lon="-3.75943">
        <ele>135.6</ele>
        <time>2021-08-11T13:51:19Z</time>
      </trkpt>
      <trkpt lat="47.99873" lon="-3.75946">
        <ele>135.6</ele>
        <time>2021-08-11T13:51:20Z</time>
      </trkpt>
      <trkpt lat="47.99872" lon="-3.75949">
        <ele>135.6</ele>
        <time>2021-08-11T13:51:21Z</time>
      </trkpt>
      <trkpt lat="47.9987" lon="-3.75953">
        <ele>135.6</ele>
        <time>2021-08-11T13:51:22Z</time>
      </trkpt>
      <trkpt lat="47.99869" lon="-3.75956">
        <ele>135.6</ele>
        <time>2021-08-11T13:51:23Z</time>
      </trkpt>
      <trkpt lat="47.99867" lon="-3.7596">
        <ele>135.6</ele>
        <time>2021-08-11T13:51:24Z</time>
      </trkpt>
      <trkpt lat="47.99865" lon="-3.75964">
        <ele>135.6</ele>
        <time>2021-08-11T13:51:25Z</time>
      </trkpt>
      <trkpt lat="47.99863" lon="-3.75967">
        <ele>135.6</ele>
        <time>2021-08-11T13:51:26Z</time>
      </trkpt>
      <trkpt lat="47.99862" lon="-3.75971">
        <ele>135.6</ele>
        <time>2021-08-11T13:51:27Z</time>
      </trkpt>
      <trkpt lat="47.99861" lon="-3.75973">
        <ele>135.6</ele>
        <time>2021-08-11T13:51:28Z</time>
      </trkpt>
      <trkpt lat="47.99859" lon="-3.75975">
        <ele>135.8</ele>
        <time>2021-08-11T13:51:29Z</time>
      </trkpt>
      <trkpt lat="47.99858" lon="-3.75977">
        <ele>135.8</ele>
        <time>2021-08-11T13:51:30Z</time>
      </trkpt>
      <trkpt lat="47.99857" lon="-3.75978">
        <ele>135.8</ele>
        <time>2021-08-11T13:51:31Z</time>
      </trkpt>
      <trkpt lat="47.99857" lon="-3.75979">
        <ele>135.8</ele>
        <time>2021-08-11T13:51:32Z</time>
      </trkpt>
      <trkpt lat="47.99856" lon="-3.7598">
        <ele>135.8</ele>
        <time>2021-08-11T13:51:33Z</time>
      </trkpt>
      <trkpt lat="47.99856" lon="-3.75981">
        <ele>135.8</ele>
        <time>2021-08-11T13:51:34Z</time>
      </trkpt>
      <trkpt lat="47.99855" lon="-3.75983">
        <ele>135.8</ele>
        <time>2021-08-11T13:51:35Z</time>
      </trkpt>
      <trkpt lat="47.99854" lon="-3.75985">
        <ele>135.8</ele>
        <time>2021-08-11T13:51:36Z</time>
      </trkpt>
      <trkpt lat="47.99854" lon="-3.75987">
        <ele>135.8</ele>
        <time>2021-08-11T13:51:37Z</time>
      </trkpt>
      <trkpt lat="47.99853" lon="-3.75989">
        <ele>135.8</ele>
        <time>2021-08-11T13:51:38Z</time>
      </trkpt>
      <trkpt lat="47.99851" lon="-3.75991">
        <ele>136.2</ele>
        <time>2021-08-11T13:51:39Z</time>
      </trkpt>
      <trkpt lat="47.99849" lon="-3.75994">
        <ele>136</ele>
        <time>2021-08-11T13:51:40Z</time>
      </trkpt>
      <trkpt lat="47.99847" lon="-3.75998">
        <ele>136.2</ele>
        <time>2021-08-11T13:51:41Z</time>
      </trkpt>
      <trkpt lat="47.99845" lon="-3.76002">
        <ele>136</ele>
        <time>2021-08-11T13:51:42Z</time>
      </trkpt>
      <trkpt lat="47.99843" lon="-3.76006">
        <ele>136</ele>
        <time>2021-08-11T13:51:43Z</time>
      </trkpt>
      <trkpt lat="47.9984" lon="-3.7601">
        <ele>136.2</ele>
        <time>2021-08-11T13:51:44Z</time>
      </trkpt>
      <trkpt lat="47.99837" lon="-3.76015">
        <ele>136.2</ele>
        <time>2021-08-11T13:51:45Z</time>
      </trkpt>
      <trkpt lat="47.99834" lon="-3.76019">
        <ele>136.4</ele>
        <time>2021-08-11T13:51:46Z</time>
      </trkpt>
      <trkpt lat="47.99831" lon="-3.76024">
        <ele>136.4</ele>
        <time>2021-08-11T13:51:47Z</time>
      </trkpt>
      <trkpt lat="47.99828" lon="-3.76029">
        <ele>136.2</ele>
        <time>2021-08-11T13:51:48Z</time>
      </trkpt>
      <trkpt lat="47.99825" lon="-3.76033">
        <ele>136.2</ele>
        <time>2021-08-11T13:51:49Z</time>
      </trkpt>
      <trkpt lat="47.99823" lon="-3.76036">
        <ele>136.2</ele>
        <time>2021-08-11T13:51:50Z</time>
      </trkpt>
      <trkpt lat="47.99821" lon="-3.76039">
        <ele>136.2</ele>
        <time>2021-08-11T13:51:51Z</time>
      </trkpt>
      <trkpt lat="47.99819" lon="-3.76042">
        <ele>136.2</ele>
        <time>2021-08-11T13:51:52Z</time>
      </trkpt>
      <trkpt lat="47.99817" lon="-3.76046">
        <ele>136.4</ele>
        <time>2021-08-11T13:51:53Z</time>
      </trkpt>
      <trkpt lat="47.99815" lon="-3.76049">
        <ele>136.4</ele>
        <time>2021-08-11T13:51:54Z</time>
      </trkpt>
      <trkpt lat="47.99813" lon="-3.76052">
        <ele>136.4</ele>
        <time>2021-08-11T13:51:55Z</time>
      </trkpt>
      <trkpt lat="47.9981" lon="-3.76056">
        <ele>136.4</ele>
        <time>2021-08-11T13:51:56Z</time>
      </trkpt>
      <trkpt lat="47.99808" lon="-3.76059">
        <ele>136.4</ele>
        <time>2021-08-11T13:51:57Z</time>
      </trkpt>
      <trkpt lat="47.99806" lon="-3.76061">
        <ele>136.4</ele>
        <time>2021-08-11T13:51:58Z</time>
      </trkpt>
      <trkpt lat="47.99804" lon="-3.76065">
        <ele>136.6</ele>
        <time>2021-08-11T13:51:59Z</time>
      </trkpt>
      <trkpt lat="47.99802" lon="-3.76068">
        <ele>136.8</ele>
        <time>2021-08-11T13:52:00Z</time>
      </trkpt>
      <trkpt lat="47.998" lon="-3.7607">
        <ele>136.8</ele>
        <time>2021-08-11T13:52:01Z</time>
      </trkpt>
      <trkpt lat="47.99798" lon="-3.76073">
        <ele>137</ele>
        <time>2021-08-11T13:52:02Z</time>
      </trkpt>
      <trkpt lat="47.99796" lon="-3.76076">
        <ele>137</ele>
        <time>2021-08-11T13:52:03Z</time>
      </trkpt>
      <trkpt lat="47.99794" lon="-3.76079">
        <ele>137</ele>
        <time>2021-08-11T13:52:04Z</time>
      </trkpt>
      <trkpt lat="47.99793" lon="-3.76083">
        <ele>137.2</ele>
        <time>2021-08-11T13:52:05Z</time>
      </trkpt>
      <trkpt lat="47.9979" lon="-3.76086">
        <ele>137.4</ele>
        <time>2021-08-11T13:52:06Z</time>
      </trkpt>
      <trkpt lat="47.99788" lon="-3.76089">
        <ele>137.4</ele>
        <time>2021-08-11T13:52:07Z</time>
      </trkpt>
      <trkpt lat="47.99786" lon="-3.76092">
        <ele>137.4</ele>
        <time>2021-08-11T13:52:08Z</time>
      </trkpt>
      <trkpt lat="47.99784" lon="-3.76095">
        <ele>137.6</ele>
        <time>2021-08-11T13:52:09Z</time>
      </trkpt>
      <trkpt lat="47.99782" lon="-3.76098">
        <ele>137.8</ele>
        <time>2021-08-11T13:52:10Z</time>
      </trkpt>
      <trkpt lat="47.99779" lon="-3.76102">
        <ele>137.8</ele>
        <time>2021-08-11T13:52:11Z</time>
      </trkpt>
      <trkpt lat="47.99777" lon="-3.76106">
        <ele>138</ele>
        <time>2021-08-11T13:52:12Z</time>
      </trkpt>
      <trkpt lat="47.99774" lon="-3.7611">
        <ele>138</ele>
        <time>2021-08-11T13:52:13Z</time>
      </trkpt>
      <trkpt lat="47.99771" lon="-3.76114">
        <ele>138.2</ele>
        <time>2021-08-11T13:52:14Z</time>
      </trkpt>
      <trkpt lat="47.99769" lon="-3.76118">
        <ele>138.2</ele>
        <time>2021-08-11T13:52:15Z</time>
      </trkpt>
      <trkpt lat="47.99766" lon="-3.76122">
        <ele>138.2</ele>
        <time>2021-08-11T13:52:16Z</time>
      </trkpt>
      <trkpt lat="47.99763" lon="-3.76127">
        <ele>138.2</ele>
        <time>2021-08-11T13:52:17Z</time>
      </trkpt>
      <trkpt lat="47.99761" lon="-3.76131">
        <ele>138.2</ele>
        <time>2021-08-11T13:52:18Z</time>
      </trkpt>
      <trkpt lat="47.99758" lon="-3.76135">
        <ele>138.2</ele>
        <time>2021-08-11T13:52:19Z</time>
      </trkpt>
      <trkpt lat="47.99755" lon="-3.76139">
        <ele>138.2</ele>
        <time>2021-08-11T13:52:20Z</time>
      </trkpt>
      <trkpt lat="47.99752" lon="-3.76143">
        <ele>138.2</ele>
        <time>2021-08-11T13:52:21Z</time>
      </trkpt>
      <trkpt lat="47.99749" lon="-3.76148">
        <ele>138.4</ele>
        <time>2021-08-11T13:52:22Z</time>
      </trkpt>
      <trkpt lat="47.99746" lon="-3.76152">
        <ele>138.4</ele>
        <time>2021-08-11T13:52:23Z</time>
      </trkpt>
      <trkpt lat="47.99744" lon="-3.76157">
        <ele>138.4</ele>
        <time>2021-08-11T13:52:24Z</time>
      </trkpt>
      <trkpt lat="47.99741" lon="-3.76162">
        <ele>138.4</ele>
        <time>2021-08-11T13:52:25Z</time>
      </trkpt>
      <trkpt lat="47.99737" lon="-3.76168">
        <ele>138.6</ele>
        <time>2021-08-11T13:52:26Z</time>
      </trkpt>
      <trkpt lat="47.99734" lon="-3.76173">
        <ele>138.6</ele>
        <time>2021-08-11T13:52:27Z</time>
      </trkpt>
      <trkpt lat="47.9973" lon="-3.76178">
        <ele>138.6</ele>
        <time>2021-08-11T13:52:28Z</time>
      </trkpt>
      <trkpt lat="47.99726" lon="-3.76184">
        <ele>138.6</ele>
        <time>2021-08-11T13:52:29Z</time>
      </trkpt>
      <trkpt lat="47.99722" lon="-3.76189">
        <ele>138.6</ele>
        <time>2021-08-11T13:52:30Z</time>
      </trkpt>
      <trkpt lat="47.99718" lon="-3.76194">
        <ele>138.8</ele>
        <time>2021-08-11T13:52:31Z</time>
      </trkpt>
      <trkpt lat="47.99715" lon="-3.76198">
        <ele>138.8</ele>
        <time>2021-08-11T13:52:32Z</time>
      </trkpt>
      <trkpt lat="47.99711" lon="-3.76203">
        <ele>138.8</ele>
        <time>2021-08-11T13:52:33Z</time>
      </trkpt>
      <trkpt lat="47.99708" lon="-3.76208">
        <ele>138.8</ele>
        <time>2021-08-11T13:52:34Z</time>
      </trkpt>
      <trkpt lat="47.99704" lon="-3.76213">
        <ele>138.8</ele>
        <time>2021-08-11T13:52:35Z</time>
      </trkpt>
      <trkpt lat="47.997" lon="-3.76218">
        <ele>138.8</ele>
        <time>2021-08-11T13:52:36Z</time>
      </trkpt>
      <trkpt lat="47.99697" lon="-3.76224">
        <ele>138.8</ele>
        <time>2021-08-11T13:52:37Z</time>
      </trkpt>
      <trkpt lat="47.99694" lon="-3.7623">
        <ele>139.2</ele>
        <time>2021-08-11T13:52:38Z</time>
      </trkpt>
      <trkpt lat="47.99691" lon="-3.76235">
        <ele>139.4</ele>
        <time>2021-08-11T13:52:39Z</time>
      </trkpt>
      <trkpt lat="47.99687" lon="-3.76241">
        <ele>139.8</ele>
        <time>2021-08-11T13:52:40Z</time>
      </trkpt>
      <trkpt lat="47.99685" lon="-3.76245">
        <ele>140</ele>
        <time>2021-08-11T13:52:41Z</time>
      </trkpt>
      <trkpt lat="47.99682" lon="-3.76249">
        <ele>140.2</ele>
        <time>2021-08-11T13:52:42Z</time>
      </trkpt>
      <trkpt lat="47.99679" lon="-3.76253">
        <ele>140.2</ele>
        <time>2021-08-11T13:52:43Z</time>
      </trkpt>
      <trkpt lat="47.99677" lon="-3.76255">
        <ele>140.4</ele>
        <time>2021-08-11T13:52:44Z</time>
      </trkpt>
      <trkpt lat="47.99674" lon="-3.76258">
        <ele>140.4</ele>
        <time>2021-08-11T13:52:45Z</time>
      </trkpt>
      <trkpt lat="47.99672" lon="-3.76261">
        <ele>140.4</ele>
        <time>2021-08-11T13:52:46Z</time>
      </trkpt>
      <trkpt lat="47.99669" lon="-3.76265">
        <ele>140.6</ele>
        <time>2021-08-11T13:52:47Z</time>
      </trkpt>
      <trkpt lat="47.99667" lon="-3.76268">
        <ele>140.6</ele>
        <time>2021-08-11T13:52:48Z</time>
      </trkpt>
      <trkpt lat="47.99664" lon="-3.76272">
        <ele>140.8</ele>
        <time>2021-08-11T13:52:49Z</time>
      </trkpt>
      <trkpt lat="47.99661" lon="-3.76275">
        <ele>140.8</ele>
        <time>2021-08-11T13:52:50Z</time>
      </trkpt>
      <trkpt lat="47.99658" lon="-3.76278">
        <ele>140.8</ele>
        <time>2021-08-11T13:52:51Z</time>
      </trkpt>
      <trkpt lat="47.99656" lon="-3.76281">
        <ele>141</ele>
        <time>2021-08-11T13:52:52Z</time>
      </trkpt>
      <trkpt lat="47.99653" lon="-3.76285">
        <ele>141.2</ele>
        <time>2021-08-11T13:52:53Z</time>
      </trkpt>
      <trkpt lat="47.9965" lon="-3.76288">
        <ele>141.4</ele>
        <time>2021-08-11T13:52:54Z</time>
      </trkpt>
      <trkpt lat="47.99647" lon="-3.76292">
        <ele>141.6</ele>
        <time>2021-08-11T13:52:55Z</time>
      </trkpt>
      <trkpt lat="47.99644" lon="-3.76296">
        <ele>141.6</ele>
        <time>2021-08-11T13:52:56Z</time>
      </trkpt>
      <trkpt lat="47.99641" lon="-3.763">
        <ele>141.8</ele>
        <time>2021-08-11T13:52:57Z</time>
      </trkpt>
      <trkpt lat="47.99637" lon="-3.76305">
        <ele>142</ele>
        <time>2021-08-11T13:52:58Z</time>
      </trkpt>
      <trkpt lat="47.99634" lon="-3.76309">
        <ele>142</ele>
        <time>2021-08-11T13:52:59Z</time>
      </trkpt>
      <trkpt lat="47.9963" lon="-3.76315">
        <ele>142</ele>
        <time>2021-08-11T13:53:00Z</time>
      </trkpt>
      <trkpt lat="47.99626" lon="-3.76319">
        <ele>142</ele>
        <time>2021-08-11T13:53:01Z</time>
      </trkpt>
      <trkpt lat="47.99622" lon="-3.76326">
        <ele>142.2</ele>
        <time>2021-08-11T13:53:02Z</time>
      </trkpt>
      <trkpt lat="47.99617" lon="-3.76331">
        <ele>142.2</ele>
        <time>2021-08-11T13:53:03Z</time>
      </trkpt>
      <trkpt lat="47.99614" lon="-3.76336">
        <ele>142</ele>
        <time>2021-08-11T13:53:04Z</time>
      </trkpt>
      <trkpt lat="47.99609" lon="-3.76341">
        <ele>142.2</ele>
        <time>2021-08-11T13:53:05Z</time>
      </trkpt>
      <trkpt lat="47.99605" lon="-3.76347">
        <ele>142.2</ele>
        <time>2021-08-11T13:53:06Z</time>
      </trkpt>
      <trkpt lat="47.996" lon="-3.76352">
        <ele>142.4</ele>
        <time>2021-08-11T13:53:07Z</time>
      </trkpt>
      <trkpt lat="47.99594" lon="-3.76357">
        <ele>142.4</ele>
        <time>2021-08-11T13:53:08Z</time>
      </trkpt>
      <trkpt lat="47.99589" lon="-3.76363">
        <ele>142.4</ele>
        <time>2021-08-11T13:53:09Z</time>
      </trkpt>
      <trkpt lat="47.99585" lon="-3.76368">
        <ele>142.4</ele>
        <time>2021-08-11T13:53:10Z</time>
      </trkpt>
      <trkpt lat="47.9958" lon="-3.76373">
        <ele>142.6</ele>
        <time>2021-08-11T13:53:11Z</time>
      </trkpt>
      <trkpt lat="47.99576" lon="-3.76377">
        <ele>142.6</ele>
        <time>2021-08-11T13:53:12Z</time>
      </trkpt>
      <trkpt lat="47.99572" lon="-3.7638">
        <ele>142.6</ele>
        <time>2021-08-11T13:53:13Z</time>
      </trkpt>
      <trkpt lat="47.99568" lon="-3.76384">
        <ele>142.6</ele>
        <time>2021-08-11T13:53:14Z</time>
      </trkpt>
      <trkpt lat="47.99564" lon="-3.76389">
        <ele>142.6</ele>
        <time>2021-08-11T13:53:15Z</time>
      </trkpt>
      <trkpt lat="47.9956" lon="-3.76393">
        <ele>142.6</ele>
        <time>2021-08-11T13:53:16Z</time>
      </trkpt>
      <trkpt lat="47.99556" lon="-3.76397">
        <ele>142.8</ele>
        <time>2021-08-11T13:53:17Z</time>
      </trkpt>
      <trkpt lat="47.99552" lon="-3.764">
        <ele>142.8</ele>
        <time>2021-08-11T13:53:18Z</time>
      </trkpt>
      <trkpt lat="47.99548" lon="-3.76404">
        <ele>142.8</ele>
        <time>2021-08-11T13:53:19Z</time>
      </trkpt>
      <trkpt lat="47.99544" lon="-3.76407">
        <ele>142.8</ele>
        <time>2021-08-11T13:53:20Z</time>
      </trkpt>
      <trkpt lat="47.9954" lon="-3.76411">
        <ele>143</ele>
        <time>2021-08-11T13:53:21Z</time>
      </trkpt>
      <trkpt lat="47.99537" lon="-3.76414">
        <ele>143.2</ele>
        <time>2021-08-11T13:53:22Z</time>
      </trkpt>
      <trkpt lat="47.99533" lon="-3.76418">
        <ele>143.2</ele>
        <time>2021-08-11T13:53:23Z</time>
      </trkpt>
      <trkpt lat="47.99529" lon="-3.76421">
        <ele>143.4</ele>
        <time>2021-08-11T13:53:24Z</time>
      </trkpt>
      <trkpt lat="47.99526" lon="-3.76425">
        <ele>143.4</ele>
        <time>2021-08-11T13:53:25Z</time>
      </trkpt>
      <trkpt lat="47.99523" lon="-3.76428">
        <ele>143.6</ele>
        <time>2021-08-11T13:53:26Z</time>
      </trkpt>
      <trkpt lat="47.9952" lon="-3.76431">
        <ele>143.6</ele>
        <time>2021-08-11T13:53:27Z</time>
      </trkpt>
      <trkpt lat="47.99517" lon="-3.76433">
        <ele>143.8</ele>
        <time>2021-08-11T13:53:28Z</time>
      </trkpt>
      <trkpt lat="47.99514" lon="-3.76436">
        <ele>143.8</ele>
        <time>2021-08-11T13:53:29Z</time>
      </trkpt>
      <trkpt lat="47.9951" lon="-3.76439">
        <ele>144</ele>
        <time>2021-08-11T13:53:30Z</time>
      </trkpt>
      <trkpt lat="47.99506" lon="-3.76442">
        <ele>144</ele>
        <time>2021-08-11T13:53:31Z</time>
      </trkpt>
      <trkpt lat="47.99501" lon="-3.76445">
        <ele>144.2</ele>
        <time>2021-08-11T13:53:32Z</time>
      </trkpt>
      <trkpt lat="47.99497" lon="-3.76449">
        <ele>144.2</ele>
        <time>2021-08-11T13:53:33Z</time>
      </trkpt>
      <trkpt lat="47.99493" lon="-3.76452">
        <ele>144.2</ele>
        <time>2021-08-11T13:53:34Z</time>
      </trkpt>
      <trkpt lat="47.9949" lon="-3.76456">
        <ele>144.4</ele>
        <time>2021-08-11T13:53:35Z</time>
      </trkpt>
      <trkpt lat="47.99487" lon="-3.76458">
        <ele>144.4</ele>
        <time>2021-08-11T13:53:36Z</time>
      </trkpt>
      <trkpt lat="47.99483" lon="-3.76461">
        <ele>144.8</ele>
        <time>2021-08-11T13:53:37Z</time>
      </trkpt>
      <trkpt lat="47.99479" lon="-3.76465">
        <ele>145</ele>
        <time>2021-08-11T13:53:38Z</time>
      </trkpt>
      <trkpt lat="47.99476" lon="-3.7647">
        <ele>145.2</ele>
        <time>2021-08-11T13:53:39Z</time>
      </trkpt>
      <trkpt lat="47.99472" lon="-3.76474">
        <ele>145.2</ele>
        <time>2021-08-11T13:53:40Z</time>
      </trkpt>
      <trkpt lat="47.99468" lon="-3.76479">
        <ele>145.2</ele>
        <time>2021-08-11T13:53:41Z</time>
      </trkpt>
      <trkpt lat="47.99465" lon="-3.76483">
        <ele>145.2</ele>
        <time>2021-08-11T13:53:42Z</time>
      </trkpt>
      <trkpt lat="47.99462" lon="-3.76487">
        <ele>145.4</ele>
        <time>2021-08-11T13:53:43Z</time>
      </trkpt>
      <trkpt lat="47.99458" lon="-3.76492">
        <ele>145.4</ele>
        <time>2021-08-11T13:53:44Z</time>
      </trkpt>
      <trkpt lat="47.99455" lon="-3.76496">
        <ele>145.8</ele>
        <time>2021-08-11T13:53:45Z</time>
      </trkpt>
      <trkpt lat="47.99452" lon="-3.76501">
        <ele>146</ele>
        <time>2021-08-11T13:53:46Z</time>
      </trkpt>
      <trkpt lat="47.99449" lon="-3.76507">
        <ele>146.2</ele>
        <time>2021-08-11T13:53:47Z</time>
      </trkpt>
      <trkpt lat="47.99446" lon="-3.76512">
        <ele>146.4</ele>
        <time>2021-08-11T13:53:48Z</time>
      </trkpt>
      <trkpt lat="47.99444" lon="-3.76516">
        <ele>146.4</ele>
        <time>2021-08-11T13:53:49Z</time>
      </trkpt>
      <trkpt lat="47.99441" lon="-3.76522">
        <ele>146.4</ele>
        <time>2021-08-11T13:53:50Z</time>
      </trkpt>
      <trkpt lat="47.99439" lon="-3.76527">
        <ele>146.4</ele>
        <time>2021-08-11T13:53:51Z</time>
      </trkpt>
      <trkpt lat="47.99437" lon="-3.76531">
        <ele>146.6</ele>
        <time>2021-08-11T13:53:52Z</time>
      </trkpt>
      <trkpt lat="47.99435" lon="-3.76535">
        <ele>146.6</ele>
        <time>2021-08-11T13:53:53Z</time>
      </trkpt>
      <trkpt lat="47.99433" lon="-3.7654">
        <ele>146.6</ele>
        <time>2021-08-11T13:53:54Z</time>
      </trkpt>
      <trkpt lat="47.9943" lon="-3.76545">
        <ele>146.6</ele>
        <time>2021-08-11T13:53:55Z</time>
      </trkpt>
      <trkpt lat="47.99428" lon="-3.7655">
        <ele>146.8</ele>
        <time>2021-08-11T13:53:56Z</time>
      </trkpt>
      <trkpt lat="47.99426" lon="-3.76554">
        <ele>146.8</ele>
        <time>2021-08-11T13:53:57Z</time>
      </trkpt>
      <trkpt lat="47.99424" lon="-3.76559">
        <ele>146.8</ele>
        <time>2021-08-11T13:53:58Z</time>
      </trkpt>
      <trkpt lat="47.99422" lon="-3.76564">
        <ele>147.2</ele>
        <time>2021-08-11T13:53:59Z</time>
      </trkpt>
      <trkpt lat="47.9942" lon="-3.76569">
        <ele>147.4</ele>
        <time>2021-08-11T13:54:00Z</time>
      </trkpt>
      <trkpt lat="47.99418" lon="-3.76575">
        <ele>147.4</ele>
        <time>2021-08-11T13:54:01Z</time>
      </trkpt>
      <trkpt lat="47.99416" lon="-3.76581">
        <ele>147.6</ele>
        <time>2021-08-11T13:54:02Z</time>
      </trkpt>
      <trkpt lat="47.99414" lon="-3.76588">
        <ele>147.6</ele>
        <time>2021-08-11T13:54:03Z</time>
      </trkpt>
      <trkpt lat="47.99412" lon="-3.76594">
        <ele>147.6</ele>
        <time>2021-08-11T13:54:04Z</time>
      </trkpt>
      <trkpt lat="47.9941" lon="-3.76601">
        <ele>147.8</ele>
        <time>2021-08-11T13:54:05Z</time>
      </trkpt>
      <trkpt lat="47.99409" lon="-3.76609">
        <ele>147.8</ele>
        <time>2021-08-11T13:54:06Z</time>
      </trkpt>
      <trkpt lat="47.99408" lon="-3.76616">
        <ele>147.8</ele>
        <time>2021-08-11T13:54:07Z</time>
      </trkpt>
      <trkpt lat="47.99407" lon="-3.76622">
        <ele>147.8</ele>
        <time>2021-08-11T13:54:08Z</time>
      </trkpt>
      <trkpt lat="47.99405" lon="-3.7663">
        <ele>147.8</ele>
        <time>2021-08-11T13:54:09Z</time>
      </trkpt>
      <trkpt lat="47.99403" lon="-3.76637">
        <ele>147.8</ele>
        <time>2021-08-11T13:54:10Z</time>
      </trkpt>
      <trkpt lat="47.99402" lon="-3.76643">
        <ele>147.8</ele>
        <time>2021-08-11T13:54:11Z</time>
      </trkpt>
      <trkpt lat="47.99401" lon="-3.7665">
        <ele>147.8</ele>
        <time>2021-08-11T13:54:12Z</time>
      </trkpt>
      <trkpt lat="47.994" lon="-3.76657">
        <ele>147.8</ele>
        <time>2021-08-11T13:54:13Z</time>
      </trkpt>
      <trkpt lat="47.99398" lon="-3.76663">
        <ele>148</ele>
        <time>2021-08-11T13:54:14Z</time>
      </trkpt>
      <trkpt lat="47.99397" lon="-3.76669">
        <ele>148</ele>
        <time>2021-08-11T13:54:15Z</time>
      </trkpt>
      <trkpt lat="47.99397" lon="-3.76676">
        <ele>148</ele>
        <time>2021-08-11T13:54:16Z</time>
      </trkpt>
      <trkpt lat="47.99396" lon="-3.76683">
        <ele>148</ele>
        <time>2021-08-11T13:54:17Z</time>
      </trkpt>
      <trkpt lat="47.99395" lon="-3.7669">
        <ele>148</ele>
        <time>2021-08-11T13:54:18Z</time>
      </trkpt>
      <trkpt lat="47.99394" lon="-3.76696">
        <ele>148</ele>
        <time>2021-08-11T13:54:19Z</time>
      </trkpt>
      <trkpt lat="47.99393" lon="-3.76703">
        <ele>148</ele>
        <time>2021-08-11T13:54:20Z</time>
      </trkpt>
      <trkpt lat="47.99391" lon="-3.7671">
        <ele>147.8</ele>
        <time>2021-08-11T13:54:21Z</time>
      </trkpt>
      <trkpt lat="47.9939" lon="-3.76716">
        <ele>147.8</ele>
        <time>2021-08-11T13:54:22Z</time>
      </trkpt>
      <trkpt lat="47.99389" lon="-3.76722">
        <ele>147.8</ele>
        <time>2021-08-11T13:54:23Z</time>
      </trkpt>
      <trkpt lat="47.99388" lon="-3.76727">
        <ele>147.8</ele>
        <time>2021-08-11T13:54:24Z</time>
      </trkpt>
      <trkpt lat="47.99387" lon="-3.76733">
        <ele>147.8</ele>
        <time>2021-08-11T13:54:25Z</time>
      </trkpt>
      <trkpt lat="47.99386" lon="-3.76738">
        <ele>147.8</ele>
        <time>2021-08-11T13:54:26Z</time>
      </trkpt>
      <trkpt lat="47.99384" lon="-3.76743">
        <ele>147.8</ele>
        <time>2021-08-11T13:54:27Z</time>
      </trkpt>
      <trkpt lat="47.99383" lon="-3.76748">
        <ele>147.8</ele>
        <time>2021-08-11T13:54:28Z</time>
      </trkpt>
      <trkpt lat="47.99382" lon="-3.76754">
        <ele>147.8</ele>
        <time>2021-08-11T13:54:29Z</time>
      </trkpt>
      <trkpt lat="47.99381" lon="-3.7676">
        <ele>147.8</ele>
        <time>2021-08-11T13:54:30Z</time>
      </trkpt>
      <trkpt lat="47.99379" lon="-3.76766">
        <ele>147.8</ele>
        <time>2021-08-11T13:54:31Z</time>
      </trkpt>
      <trkpt lat="47.99378" lon="-3.76772">
        <ele>147.8</ele>
        <time>2021-08-11T13:54:32Z</time>
      </trkpt>
      <trkpt lat="47.99377" lon="-3.76777">
        <ele>147.6</ele>
        <time>2021-08-11T13:54:33Z</time>
      </trkpt>
      <trkpt lat="47.99376" lon="-3.76781">
        <ele>147.4</ele>
        <time>2021-08-11T13:54:34Z</time>
      </trkpt>
      <trkpt lat="47.99374" lon="-3.76786">
        <ele>147.2</ele>
        <time>2021-08-11T13:54:35Z</time>
      </trkpt>
      <trkpt lat="47.99372" lon="-3.76791">
        <ele>147.2</ele>
        <time>2021-08-11T13:54:36Z</time>
      </trkpt>
      <trkpt lat="47.9937" lon="-3.76795">
        <ele>147.2</ele>
        <time>2021-08-11T13:54:37Z</time>
      </trkpt>
      <trkpt lat="47.99368" lon="-3.76801">
        <ele>147</ele>
        <time>2021-08-11T13:54:38Z</time>
      </trkpt>
      <trkpt lat="47.99365" lon="-3.76806">
        <ele>147</ele>
        <time>2021-08-11T13:54:39Z</time>
      </trkpt>
      <trkpt lat="47.99363" lon="-3.76812">
        <ele>147</ele>
        <time>2021-08-11T13:54:40Z</time>
      </trkpt>
      <trkpt lat="47.99361" lon="-3.76817">
        <ele>147</ele>
        <time>2021-08-11T13:54:41Z</time>
      </trkpt>
      <trkpt lat="47.99358" lon="-3.76822">
        <ele>147</ele>
        <time>2021-08-11T13:54:42Z</time>
      </trkpt>
      <trkpt lat="47.99355" lon="-3.76827">
        <ele>147</ele>
        <time>2021-08-11T13:54:43Z</time>
      </trkpt>
      <trkpt lat="47.99353" lon="-3.76833">
        <ele>147</ele>
        <time>2021-08-11T13:54:44Z</time>
      </trkpt>
      <trkpt lat="47.9935" lon="-3.76839">
        <ele>147</ele>
        <time>2021-08-11T13:54:45Z</time>
      </trkpt>
      <trkpt lat="47.99346" lon="-3.76844">
        <ele>146.8</ele>
        <time>2021-08-11T13:54:46Z</time>
      </trkpt>
      <trkpt lat="47.99343" lon="-3.7685">
        <ele>146.8</ele>
        <time>2021-08-11T13:54:47Z</time>
      </trkpt>
      <trkpt lat="47.9934" lon="-3.76856">
        <ele>146.8</ele>
        <time>2021-08-11T13:54:48Z</time>
      </trkpt>
      <trkpt lat="47.99336" lon="-3.7686">
        <ele>146.8</ele>
        <time>2021-08-11T13:54:49Z</time>
      </trkpt>
      <trkpt lat="47.99334" lon="-3.76864">
        <ele>146.6</ele>
        <time>2021-08-11T13:54:50Z</time>
      </trkpt>
      <trkpt lat="47.9933" lon="-3.76869">
        <ele>146.6</ele>
        <time>2021-08-11T13:54:51Z</time>
      </trkpt>
      <trkpt lat="47.99326" lon="-3.76874">
        <ele>146.6</ele>
        <time>2021-08-11T13:54:52Z</time>
      </trkpt>
      <trkpt lat="47.99322" lon="-3.76879">
        <ele>146.4</ele>
        <time>2021-08-11T13:54:53Z</time>
      </trkpt>
      <trkpt lat="47.99318" lon="-3.76883">
        <ele>146.2</ele>
        <time>2021-08-11T13:54:54Z</time>
      </trkpt>
      <trkpt lat="47.99315" lon="-3.76887">
        <ele>145.8</ele>
        <time>2021-08-11T13:54:55Z</time>
      </trkpt>
      <trkpt lat="47.99311" lon="-3.76891">
        <ele>145.8</ele>
        <time>2021-08-11T13:54:56Z</time>
      </trkpt>
      <trkpt lat="47.99307" lon="-3.76895">
        <ele>145.6</ele>
        <time>2021-08-11T13:54:57Z</time>
      </trkpt>
      <trkpt lat="47.99303" lon="-3.76899">
        <ele>145.6</ele>
        <time>2021-08-11T13:54:58Z</time>
      </trkpt>
      <trkpt lat="47.993" lon="-3.76903">
        <ele>145.6</ele>
        <time>2021-08-11T13:54:59Z</time>
      </trkpt>
      <trkpt lat="47.99296" lon="-3.76907">
        <ele>145.6</ele>
        <time>2021-08-11T13:55:00Z</time>
      </trkpt>
      <trkpt lat="47.99292" lon="-3.76911">
        <ele>145.6</ele>
        <time>2021-08-11T13:55:01Z</time>
      </trkpt>
      <trkpt lat="47.99289" lon="-3.76913">
        <ele>145.6</ele>
        <time>2021-08-11T13:55:02Z</time>
      </trkpt>
      <trkpt lat="47.99285" lon="-3.76916">
        <ele>145.4</ele>
        <time>2021-08-11T13:55:03Z</time>
      </trkpt>
      <trkpt lat="47.99282" lon="-3.76919">
        <ele>145.4</ele>
        <time>2021-08-11T13:55:04Z</time>
      </trkpt>
      <trkpt lat="47.99278" lon="-3.76922">
        <ele>145.4</ele>
        <time>2021-08-11T13:55:05Z</time>
      </trkpt>
      <trkpt lat="47.99274" lon="-3.76926">
        <ele>145.4</ele>
        <time>2021-08-11T13:55:06Z</time>
      </trkpt>
      <trkpt lat="47.9927" lon="-3.7693">
        <ele>145.4</ele>
        <time>2021-08-11T13:55:07Z</time>
      </trkpt>
      <trkpt lat="47.99266" lon="-3.76933">
        <ele>145.4</ele>
        <time>2021-08-11T13:55:08Z</time>
      </trkpt>
      <trkpt lat="47.99262" lon="-3.76937">
        <ele>145.4</ele>
        <time>2021-08-11T13:55:09Z</time>
      </trkpt>
      <trkpt lat="47.99259" lon="-3.76939">
        <ele>145.4</ele>
        <time>2021-08-11T13:55:10Z</time>
      </trkpt>
      <trkpt lat="47.99253" lon="-3.76943">
        <ele>145.4</ele>
        <time>2021-08-11T13:55:11Z</time>
      </trkpt>
      <trkpt lat="47.99248" lon="-3.76947">
        <ele>145.4</ele>
        <time>2021-08-11T13:55:12Z</time>
      </trkpt>
      <trkpt lat="47.99244" lon="-3.7695">
        <ele>145.6</ele>
        <time>2021-08-11T13:55:13Z</time>
      </trkpt>
      <trkpt lat="47.99239" lon="-3.76954">
        <ele>145.6</ele>
        <time>2021-08-11T13:55:14Z</time>
      </trkpt>
      <trkpt lat="47.99235" lon="-3.76957">
        <ele>145.6</ele>
        <time>2021-08-11T13:55:15Z</time>
      </trkpt>
      <trkpt lat="47.9923" lon="-3.76961">
        <ele>145.6</ele>
        <time>2021-08-11T13:55:16Z</time>
      </trkpt>
      <trkpt lat="47.99226" lon="-3.76964">
        <ele>145.6</ele>
        <time>2021-08-11T13:55:17Z</time>
      </trkpt>
      <trkpt lat="47.99221" lon="-3.76968">
        <ele>145.6</ele>
        <time>2021-08-11T13:55:18Z</time>
      </trkpt>
      <trkpt lat="47.99217" lon="-3.76972">
        <ele>145.6</ele>
        <time>2021-08-11T13:55:19Z</time>
      </trkpt>
      <trkpt lat="47.99214" lon="-3.76975">
        <ele>145.8</ele>
        <time>2021-08-11T13:55:20Z</time>
      </trkpt>
      <trkpt lat="47.99211" lon="-3.76979">
        <ele>146</ele>
        <time>2021-08-11T13:55:21Z</time>
      </trkpt>
      <trkpt lat="47.99207" lon="-3.76983">
        <ele>146.2</ele>
        <time>2021-08-11T13:55:22Z</time>
      </trkpt>
      <trkpt lat="47.99204" lon="-3.76986">
        <ele>146.4</ele>
        <time>2021-08-11T13:55:23Z</time>
      </trkpt>
      <trkpt lat="47.992" lon="-3.76991">
        <ele>146.4</ele>
        <time>2021-08-11T13:55:24Z</time>
      </trkpt>
      <trkpt lat="47.99197" lon="-3.76996">
        <ele>146.6</ele>
        <time>2021-08-11T13:55:25Z</time>
      </trkpt>
      <trkpt lat="47.99193" lon="-3.77002">
        <ele>146.6</ele>
        <time>2021-08-11T13:55:26Z</time>
      </trkpt>
      <trkpt lat="47.99189" lon="-3.77008">
        <ele>146.8</ele>
        <time>2021-08-11T13:55:27Z</time>
      </trkpt>
      <trkpt lat="47.99186" lon="-3.77012">
        <ele>146.8</ele>
        <time>2021-08-11T13:55:28Z</time>
      </trkpt>
      <trkpt lat="47.99183" lon="-3.77018">
        <ele>146.8</ele>
        <time>2021-08-11T13:55:29Z</time>
      </trkpt>
      <trkpt lat="47.99181" lon="-3.77023">
        <ele>146.8</ele>
        <time>2021-08-11T13:55:30Z</time>
      </trkpt>
      <trkpt lat="47.99178" lon="-3.77029">
        <ele>147</ele>
        <time>2021-08-11T13:55:31Z</time>
      </trkpt>
      <trkpt lat="47.99175" lon="-3.77034">
        <ele>147</ele>
        <time>2021-08-11T13:55:32Z</time>
      </trkpt>
      <trkpt lat="47.99172" lon="-3.77039">
        <ele>147.4</ele>
        <time>2021-08-11T13:55:33Z</time>
      </trkpt>
      <trkpt lat="47.99169" lon="-3.77044">
        <ele>147.6</ele>
        <time>2021-08-11T13:55:34Z</time>
      </trkpt>
      <trkpt lat="47.99166" lon="-3.7705">
        <ele>148</ele>
        <time>2021-08-11T13:55:35Z</time>
      </trkpt>
      <trkpt lat="47.99164" lon="-3.77055">
        <ele>148.2</ele>
        <time>2021-08-11T13:55:36Z</time>
      </trkpt>
      <trkpt lat="47.99162" lon="-3.7706">
        <ele>148.2</ele>
        <time>2021-08-11T13:55:37Z</time>
      </trkpt>
      <trkpt lat="47.9916" lon="-3.77066">
        <ele>148.4</ele>
        <time>2021-08-11T13:55:38Z</time>
      </trkpt>
      <trkpt lat="47.99158" lon="-3.77072">
        <ele>148.6</ele>
        <time>2021-08-11T13:55:39Z</time>
      </trkpt>
      <trkpt lat="47.99156" lon="-3.77078">
        <ele>148.6</ele>
        <time>2021-08-11T13:55:40Z</time>
      </trkpt>
      <trkpt lat="47.99154" lon="-3.77085">
        <ele>148.8</ele>
        <time>2021-08-11T13:55:41Z</time>
      </trkpt>
      <trkpt lat="47.99152" lon="-3.77091">
        <ele>148.8</ele>
        <time>2021-08-11T13:55:42Z</time>
      </trkpt>
      <trkpt lat="47.9915" lon="-3.77098">
        <ele>149</ele>
        <time>2021-08-11T13:55:43Z</time>
      </trkpt>
      <trkpt lat="47.99148" lon="-3.77104">
        <ele>149</ele>
        <time>2021-08-11T13:55:44Z</time>
      </trkpt>
      <trkpt lat="47.99147" lon="-3.77111">
        <ele>149.2</ele>
        <time>2021-08-11T13:55:45Z</time>
      </trkpt>
      <trkpt lat="47.99145" lon="-3.77117">
        <ele>149.2</ele>
        <time>2021-08-11T13:55:46Z</time>
      </trkpt>
      <trkpt lat="47.99143" lon="-3.77123">
        <ele>149.2</ele>
        <time>2021-08-11T13:55:47Z</time>
      </trkpt>
      <trkpt lat="47.99141" lon="-3.77129">
        <ele>149.2</ele>
        <time>2021-08-11T13:55:48Z</time>
      </trkpt>
      <trkpt lat="47.99139" lon="-3.77134">
        <ele>149.2</ele>
        <time>2021-08-11T13:55:49Z</time>
      </trkpt>
      <trkpt lat="47.99139" lon="-3.77139">
        <ele>149.2</ele>
        <time>2021-08-11T13:55:50Z</time>
      </trkpt>
      <trkpt lat="47.99138" lon="-3.77144">
        <ele>149.2</ele>
        <time>2021-08-11T13:55:51Z</time>
      </trkpt>
      <trkpt lat="47.99137" lon="-3.77151">
        <ele>149.2</ele>
        <time>2021-08-11T13:55:52Z</time>
      </trkpt>
      <trkpt lat="47.99135" lon="-3.77159">
        <ele>149.2</ele>
        <time>2021-08-11T13:55:53Z</time>
      </trkpt>
      <trkpt lat="47.99134" lon="-3.77166">
        <ele>149.2</ele>
        <time>2021-08-11T13:55:54Z</time>
      </trkpt>
      <trkpt lat="47.99133" lon="-3.77174">
        <ele>149.2</ele>
        <time>2021-08-11T13:55:55Z</time>
      </trkpt>
      <trkpt lat="47.99132" lon="-3.77181">
        <ele>148.6</ele>
        <time>2021-08-11T13:55:56Z</time>
      </trkpt>
      <trkpt lat="47.99132" lon="-3.77188">
        <ele>148.2</ele>
        <time>2021-08-11T13:55:57Z</time>
      </trkpt>
      <trkpt lat="47.99132" lon="-3.77197">
        <ele>148</ele>
        <time>2021-08-11T13:55:58Z</time>
      </trkpt>
      <trkpt lat="47.99132" lon="-3.77206">
        <ele>147.8</ele>
        <time>2021-08-11T13:55:59Z</time>
      </trkpt>
      <trkpt lat="47.99131" lon="-3.77215">
        <ele>147.8</ele>
        <time>2021-08-11T13:56:00Z</time>
      </trkpt>
      <trkpt lat="47.9913" lon="-3.77223">
        <ele>147.6</ele>
        <time>2021-08-11T13:56:01Z</time>
      </trkpt>
      <trkpt lat="47.9913" lon="-3.7723">
        <ele>147.6</ele>
        <time>2021-08-11T13:56:02Z</time>
      </trkpt>
      <trkpt lat="47.9913" lon="-3.77238">
        <ele>147.6</ele>
        <time>2021-08-11T13:56:03Z</time>
      </trkpt>
      <trkpt lat="47.9913" lon="-3.77246">
        <ele>147.4</ele>
        <time>2021-08-11T13:56:04Z</time>
      </trkpt>
      <trkpt lat="47.99129" lon="-3.77254">
        <ele>147.4</ele>
        <time>2021-08-11T13:56:05Z</time>
      </trkpt>
      <trkpt lat="47.99128" lon="-3.77262">
        <ele>147.4</ele>
        <time>2021-08-11T13:56:06Z</time>
      </trkpt>
      <trkpt lat="47.99128" lon="-3.7727">
        <ele>147.4</ele>
        <time>2021-08-11T13:56:07Z</time>
      </trkpt>
      <trkpt lat="47.99128" lon="-3.77278">
        <ele>147.2</ele>
        <time>2021-08-11T13:56:08Z</time>
      </trkpt>
      <trkpt lat="47.99127" lon="-3.77287">
        <ele>147.2</ele>
        <time>2021-08-11T13:56:09Z</time>
      </trkpt>
      <trkpt lat="47.99127" lon="-3.77295">
        <ele>147.2</ele>
        <time>2021-08-11T13:56:10Z</time>
      </trkpt>
      <trkpt lat="47.99127" lon="-3.77303">
        <ele>147.2</ele>
        <time>2021-08-11T13:56:11Z</time>
      </trkpt>
      <trkpt lat="47.99126" lon="-3.7731">
        <ele>147.2</ele>
        <time>2021-08-11T13:56:12Z</time>
      </trkpt>
      <trkpt lat="47.99126" lon="-3.77317">
        <ele>147.2</ele>
        <time>2021-08-11T13:56:13Z</time>
      </trkpt>
      <trkpt lat="47.99126" lon="-3.77323">
        <ele>147.2</ele>
        <time>2021-08-11T13:56:14Z</time>
      </trkpt>
      <trkpt lat="47.99125" lon="-3.7733">
        <ele>147.2</ele>
        <time>2021-08-11T13:56:15Z</time>
      </trkpt>
      <trkpt lat="47.99125" lon="-3.77335">
        <ele>147.2</ele>
        <time>2021-08-11T13:56:16Z</time>
      </trkpt>
      <trkpt lat="47.99125" lon="-3.7734">
        <ele>147.2</ele>
        <time>2021-08-11T13:56:17Z</time>
      </trkpt>
      <trkpt lat="47.99125" lon="-3.77344">
        <ele>147.2</ele>
        <time>2021-08-11T13:56:18Z</time>
      </trkpt>
      <trkpt lat="47.99125" lon="-3.7735">
        <ele>147.2</ele>
        <time>2021-08-11T13:56:19Z</time>
      </trkpt>
      <trkpt lat="47.99126" lon="-3.77355">
        <ele>147.2</ele>
        <time>2021-08-11T13:56:20Z</time>
      </trkpt>
      <trkpt lat="47.99126" lon="-3.77361">
        <ele>147.2</ele>
        <time>2021-08-11T13:56:21Z</time>
      </trkpt>
      <trkpt lat="47.99126" lon="-3.77367">
        <ele>147.2</ele>
        <time>2021-08-11T13:56:22Z</time>
      </trkpt>
      <trkpt lat="47.99126" lon="-3.77374">
        <ele>147.2</ele>
        <time>2021-08-11T13:56:23Z</time>
      </trkpt>
      <trkpt lat="47.99127" lon="-3.7738">
        <ele>147.2</ele>
        <time>2021-08-11T13:56:24Z</time>
      </trkpt>
      <trkpt lat="47.99127" lon="-3.77386">
        <ele>147.2</ele>
        <time>2021-08-11T13:56:25Z</time>
      </trkpt>
      <trkpt lat="47.99128" lon="-3.77393">
        <ele>147.2</ele>
        <time>2021-08-11T13:56:26Z</time>
      </trkpt>
      <trkpt lat="47.99128" lon="-3.774">
        <ele>147.2</ele>
        <time>2021-08-11T13:56:27Z</time>
      </trkpt>
      <trkpt lat="47.99129" lon="-3.77406">
        <ele>147.2</ele>
        <time>2021-08-11T13:56:28Z</time>
      </trkpt>
      <trkpt lat="47.99129" lon="-3.77413">
        <ele>147.2</ele>
        <time>2021-08-11T13:56:29Z</time>
      </trkpt>
      <trkpt lat="47.99129" lon="-3.77421">
        <ele>147.2</ele>
        <time>2021-08-11T13:56:30Z</time>
      </trkpt>
      <trkpt lat="47.99129" lon="-3.77427">
        <ele>147.2</ele>
        <time>2021-08-11T13:56:31Z</time>
      </trkpt>
      <trkpt lat="47.99128" lon="-3.77435">
        <ele>147</ele>
        <time>2021-08-11T13:56:32Z</time>
      </trkpt>
      <trkpt lat="47.99128" lon="-3.77443">
        <ele>147</ele>
        <time>2021-08-11T13:56:33Z</time>
      </trkpt>
      <trkpt lat="47.99128" lon="-3.77449">
        <ele>147</ele>
        <time>2021-08-11T13:56:34Z</time>
      </trkpt>
      <trkpt lat="47.99127" lon="-3.77455">
        <ele>147</ele>
        <time>2021-08-11T13:56:35Z</time>
      </trkpt>
      <trkpt lat="47.99127" lon="-3.77461">
        <ele>147</ele>
        <time>2021-08-11T13:56:36Z</time>
      </trkpt>
      <trkpt lat="47.99127" lon="-3.77467">
        <ele>147</ele>
        <time>2021-08-11T13:56:37Z</time>
      </trkpt>
      <trkpt lat="47.99127" lon="-3.77473">
        <ele>147</ele>
        <time>2021-08-11T13:56:38Z</time>
      </trkpt>
      <trkpt lat="47.99127" lon="-3.7748">
        <ele>147</ele>
        <time>2021-08-11T13:56:39Z</time>
      </trkpt>
      <trkpt lat="47.99127" lon="-3.77487">
        <ele>147</ele>
        <time>2021-08-11T13:56:40Z</time>
      </trkpt>
      <trkpt lat="47.99126" lon="-3.77495">
        <ele>147</ele>
        <time>2021-08-11T13:56:41Z</time>
      </trkpt>
      <trkpt lat="47.99125" lon="-3.77503">
        <ele>147</ele>
        <time>2021-08-11T13:56:42Z</time>
      </trkpt>
      <trkpt lat="47.99123" lon="-3.77511">
        <ele>146.8</ele>
        <time>2021-08-11T13:56:43Z</time>
      </trkpt>
      <trkpt lat="47.99122" lon="-3.77519">
        <ele>146.8</ele>
        <time>2021-08-11T13:56:44Z</time>
      </trkpt>
      <trkpt lat="47.9912" lon="-3.77527">
        <ele>146.6</ele>
        <time>2021-08-11T13:56:45Z</time>
      </trkpt>
      <trkpt lat="47.99119" lon="-3.77536">
        <ele>146.6</ele>
        <time>2021-08-11T13:56:46Z</time>
      </trkpt>
      <trkpt lat="47.99117" lon="-3.77543">
        <ele>146.6</ele>
        <time>2021-08-11T13:56:47Z</time>
      </trkpt>
      <trkpt lat="47.99116" lon="-3.77551">
        <ele>146.6</ele>
        <time>2021-08-11T13:56:48Z</time>
      </trkpt>
      <trkpt lat="47.99115" lon="-3.77557">
        <ele>146.4</ele>
        <time>2021-08-11T13:56:49Z</time>
      </trkpt>
      <trkpt lat="47.99114" lon="-3.77564">
        <ele>146.4</ele>
        <time>2021-08-11T13:56:50Z</time>
      </trkpt>
      <trkpt lat="47.99113" lon="-3.77569">
        <ele>146.4</ele>
        <time>2021-08-11T13:56:51Z</time>
      </trkpt>
      <trkpt lat="47.99112" lon="-3.77575">
        <ele>146.4</ele>
        <time>2021-08-11T13:56:52Z</time>
      </trkpt>
      <trkpt lat="47.9911" lon="-3.77581">
        <ele>146.4</ele>
        <time>2021-08-11T13:56:53Z</time>
      </trkpt>
      <trkpt lat="47.99109" lon="-3.77586">
        <ele>146.4</ele>
        <time>2021-08-11T13:56:54Z</time>
      </trkpt>
      <trkpt lat="47.99107" lon="-3.77592">
        <ele>146.4</ele>
        <time>2021-08-11T13:56:55Z</time>
      </trkpt>
      <trkpt lat="47.99106" lon="-3.77598">
        <ele>146.4</ele>
        <time>2021-08-11T13:56:56Z</time>
      </trkpt>
      <trkpt lat="47.99104" lon="-3.77604">
        <ele>146.4</ele>
        <time>2021-08-11T13:56:57Z</time>
      </trkpt>
      <trkpt lat="47.99103" lon="-3.7761">
        <ele>146.4</ele>
        <time>2021-08-11T13:56:58Z</time>
      </trkpt>
      <trkpt lat="47.99101" lon="-3.77616">
        <ele>146.2</ele>
        <time>2021-08-11T13:56:59Z</time>
      </trkpt>
      <trkpt lat="47.99099" lon="-3.77624">
        <ele>146.2</ele>
        <time>2021-08-11T13:57:00Z</time>
      </trkpt>
      <trkpt lat="47.99096" lon="-3.77631">
        <ele>146.2</ele>
        <time>2021-08-11T13:57:01Z</time>
      </trkpt>
      <trkpt lat="47.99094" lon="-3.77638">
        <ele>146.2</ele>
        <time>2021-08-11T13:57:02Z</time>
      </trkpt>
      <trkpt lat="47.99092" lon="-3.77644">
        <ele>146.2</ele>
        <time>2021-08-11T13:57:03Z</time>
      </trkpt>
      <trkpt lat="47.9909" lon="-3.7765">
        <ele>146.2</ele>
        <time>2021-08-11T13:57:04Z</time>
      </trkpt>
      <trkpt lat="47.99087" lon="-3.77656">
        <ele>146.2</ele>
        <time>2021-08-11T13:57:05Z</time>
      </trkpt>
      <trkpt lat="47.99085" lon="-3.77663">
        <ele>146.2</ele>
        <time>2021-08-11T13:57:06Z</time>
      </trkpt>
      <trkpt lat="47.99082" lon="-3.77669">
        <ele>146.2</ele>
        <time>2021-08-11T13:57:07Z</time>
      </trkpt>
      <trkpt lat="47.9908" lon="-3.77676">
        <ele>146.2</ele>
        <time>2021-08-11T13:57:08Z</time>
      </trkpt>
      <trkpt lat="47.99078" lon="-3.77683">
        <ele>146.2</ele>
        <time>2021-08-11T13:57:09Z</time>
      </trkpt>
      <trkpt lat="47.99076" lon="-3.77689">
        <ele>146</ele>
        <time>2021-08-11T13:57:10Z</time>
      </trkpt>
      <trkpt lat="47.99074" lon="-3.77695">
        <ele>146</ele>
        <time>2021-08-11T13:57:11Z</time>
      </trkpt>
      <trkpt lat="47.99072" lon="-3.77702">
        <ele>146</ele>
        <time>2021-08-11T13:57:12Z</time>
      </trkpt>
      <trkpt lat="47.9907" lon="-3.77708">
        <ele>146</ele>
        <time>2021-08-11T13:57:13Z</time>
      </trkpt>
      <trkpt lat="47.99068" lon="-3.77714">
        <ele>145.8</ele>
        <time>2021-08-11T13:57:14Z</time>
      </trkpt>
      <trkpt lat="47.99066" lon="-3.7772">
        <ele>145.8</ele>
        <time>2021-08-11T13:57:15Z</time>
      </trkpt>
      <trkpt lat="47.99063" lon="-3.77728">
        <ele>145.8</ele>
        <time>2021-08-11T13:57:16Z</time>
      </trkpt>
      <trkpt lat="47.9906" lon="-3.77734">
        <ele>145.8</ele>
        <time>2021-08-11T13:57:17Z</time>
      </trkpt>
      <trkpt lat="47.99058" lon="-3.7774">
        <ele>145.8</ele>
        <time>2021-08-11T13:57:18Z</time>
      </trkpt>
      <trkpt lat="47.99055" lon="-3.77746">
        <ele>145.8</ele>
        <time>2021-08-11T13:57:19Z</time>
      </trkpt>
      <trkpt lat="47.99053" lon="-3.77753">
        <ele>145.8</ele>
        <time>2021-08-11T13:57:20Z</time>
      </trkpt>
      <trkpt lat="47.9905" lon="-3.77759">
        <ele>145.8</ele>
        <time>2021-08-11T13:57:21Z</time>
      </trkpt>
      <trkpt lat="47.99048" lon="-3.77766">
        <ele>145.8</ele>
        <time>2021-08-11T13:57:22Z</time>
      </trkpt>
      <trkpt lat="47.99045" lon="-3.77772">
        <ele>145.8</ele>
        <time>2021-08-11T13:57:23Z</time>
      </trkpt>
      <trkpt lat="47.99042" lon="-3.7778">
        <ele>145.8</ele>
        <time>2021-08-11T13:57:24Z</time>
      </trkpt>
      <trkpt lat="47.99039" lon="-3.77787">
        <ele>145.8</ele>
        <time>2021-08-11T13:57:25Z</time>
      </trkpt>
      <trkpt lat="47.99037" lon="-3.77794">
        <ele>145.8</ele>
        <time>2021-08-11T13:57:26Z</time>
      </trkpt>
      <trkpt lat="47.99034" lon="-3.778">
        <ele>145.6</ele>
        <time>2021-08-11T13:57:27Z</time>
      </trkpt>
      <trkpt lat="47.99032" lon="-3.77805">
        <ele>145.6</ele>
        <time>2021-08-11T13:57:28Z</time>
      </trkpt>
      <trkpt lat="47.9903" lon="-3.77812">
        <ele>145.6</ele>
        <time>2021-08-11T13:57:29Z</time>
      </trkpt>
      <trkpt lat="47.99028" lon="-3.77818">
        <ele>145.6</ele>
        <time>2021-08-11T13:57:30Z</time>
      </trkpt>
      <trkpt lat="47.99026" lon="-3.77826">
        <ele>145.6</ele>
        <time>2021-08-11T13:57:31Z</time>
      </trkpt>
      <trkpt lat="47.99023" lon="-3.77833">
        <ele>145.6</ele>
        <time>2021-08-11T13:57:32Z</time>
      </trkpt>
      <trkpt lat="47.99021" lon="-3.7784">
        <ele>145.6</ele>
        <time>2021-08-11T13:57:33Z</time>
      </trkpt>
      <trkpt lat="47.99019" lon="-3.77847">
        <ele>145.4</ele>
        <time>2021-08-11T13:57:34Z</time>
      </trkpt>
      <trkpt lat="47.99016" lon="-3.77855">
        <ele>145.4</ele>
        <time>2021-08-11T13:57:35Z</time>
      </trkpt>
      <trkpt lat="47.99013" lon="-3.77862">
        <ele>145.4</ele>
        <time>2021-08-11T13:57:36Z</time>
      </trkpt>
      <trkpt lat="47.99009" lon="-3.77869">
        <ele>145.4</ele>
        <time>2021-08-11T13:57:37Z</time>
      </trkpt>
      <trkpt lat="47.99007" lon="-3.77877">
        <ele>145.4</ele>
        <time>2021-08-11T13:57:38Z</time>
      </trkpt>
      <trkpt lat="47.99004" lon="-3.77885">
        <ele>145.4</ele>
        <time>2021-08-11T13:57:39Z</time>
      </trkpt>
      <trkpt lat="47.99001" lon="-3.77894">
        <ele>145.4</ele>
        <time>2021-08-11T13:57:40Z</time>
      </trkpt>
      <trkpt lat="47.98998" lon="-3.77902">
        <ele>145.2</ele>
        <time>2021-08-11T13:57:41Z</time>
      </trkpt>
      <trkpt lat="47.98996" lon="-3.77909">
        <ele>145.2</ele>
        <time>2021-08-11T13:57:42Z</time>
      </trkpt>
      <trkpt lat="47.98993" lon="-3.77916">
        <ele>145</ele>
        <time>2021-08-11T13:57:43Z</time>
      </trkpt>
      <trkpt lat="47.98991" lon="-3.77922">
        <ele>145</ele>
        <time>2021-08-11T13:57:44Z</time>
      </trkpt>
      <trkpt lat="47.98989" lon="-3.7793">
        <ele>145</ele>
        <time>2021-08-11T13:57:45Z</time>
      </trkpt>
      <trkpt lat="47.98987" lon="-3.77938">
        <ele>145</ele>
        <time>2021-08-11T13:57:46Z</time>
      </trkpt>
      <trkpt lat="47.98985" lon="-3.77945">
        <ele>145</ele>
        <time>2021-08-11T13:57:47Z</time>
      </trkpt>
      <trkpt lat="47.98982" lon="-3.77954">
        <ele>144.8</ele>
        <time>2021-08-11T13:57:48Z</time>
      </trkpt>
      <trkpt lat="47.9898" lon="-3.77965">
        <ele>144.8</ele>
        <time>2021-08-11T13:57:49Z</time>
      </trkpt>
      <trkpt lat="47.98977" lon="-3.77975">
        <ele>144.8</ele>
        <time>2021-08-11T13:57:50Z</time>
      </trkpt>
      <trkpt lat="47.98976" lon="-3.77985">
        <ele>144.8</ele>
        <time>2021-08-11T13:57:51Z</time>
      </trkpt>
      <trkpt lat="47.98974" lon="-3.77995">
        <ele>144.8</ele>
        <time>2021-08-11T13:57:52Z</time>
      </trkpt>
      <trkpt lat="47.98972" lon="-3.78004">
        <ele>144.8</ele>
        <time>2021-08-11T13:57:53Z</time>
      </trkpt>
      <trkpt lat="47.98971" lon="-3.78013">
        <ele>144.8</ele>
        <time>2021-08-11T13:57:54Z</time>
      </trkpt>
      <trkpt lat="47.9897" lon="-3.78022">
        <ele>144.6</ele>
        <time>2021-08-11T13:57:55Z</time>
      </trkpt>
      <trkpt lat="47.98968" lon="-3.78032">
        <ele>144.6</ele>
        <time>2021-08-11T13:57:56Z</time>
      </trkpt>
      <trkpt lat="47.98967" lon="-3.78041">
        <ele>144.4</ele>
        <time>2021-08-11T13:57:57Z</time>
      </trkpt>
      <trkpt lat="47.98966" lon="-3.78049">
        <ele>144.2</ele>
        <time>2021-08-11T13:57:58Z</time>
      </trkpt>
      <trkpt lat="47.98965" lon="-3.78058">
        <ele>144.2</ele>
        <time>2021-08-11T13:57:59Z</time>
      </trkpt>
      <trkpt lat="47.98965" lon="-3.78066">
        <ele>144</ele>
        <time>2021-08-11T13:58:00Z</time>
      </trkpt>
      <trkpt lat="47.98965" lon="-3.78075">
        <ele>143.8</ele>
        <time>2021-08-11T13:58:01Z</time>
      </trkpt>
      <trkpt lat="47.98964" lon="-3.78083">
        <ele>143.6</ele>
        <time>2021-08-11T13:58:02Z</time>
      </trkpt>
      <trkpt lat="47.98964" lon="-3.78091">
        <ele>143.4</ele>
        <time>2021-08-11T13:58:03Z</time>
      </trkpt>
      <trkpt lat="47.98963" lon="-3.78099">
        <ele>143.2</ele>
        <time>2021-08-11T13:58:04Z</time>
      </trkpt>
      <trkpt lat="47.98962" lon="-3.78106">
        <ele>143</ele>
        <time>2021-08-11T13:58:05Z</time>
      </trkpt>
      <trkpt lat="47.98962" lon="-3.78113">
        <ele>142.8</ele>
        <time>2021-08-11T13:58:06Z</time>
      </trkpt>
      <trkpt lat="47.98961" lon="-3.78121">
        <ele>142.6</ele>
        <time>2021-08-11T13:58:07Z</time>
      </trkpt>
      <trkpt lat="47.9896" lon="-3.78129">
        <ele>142.6</ele>
        <time>2021-08-11T13:58:08Z</time>
      </trkpt>
      <trkpt lat="47.98959" lon="-3.78136">
        <ele>142.4</ele>
        <time>2021-08-11T13:58:09Z</time>
      </trkpt>
      <trkpt lat="47.98958" lon="-3.78143">
        <ele>142.4</ele>
        <time>2021-08-11T13:58:10Z</time>
      </trkpt>
      <trkpt lat="47.98958" lon="-3.7815">
        <ele>142.2</ele>
        <time>2021-08-11T13:58:11Z</time>
      </trkpt>
      <trkpt lat="47.98956" lon="-3.78158">
        <ele>142.2</ele>
        <time>2021-08-11T13:58:12Z</time>
      </trkpt>
      <trkpt lat="47.98956" lon="-3.78164">
        <ele>142.2</ele>
        <time>2021-08-11T13:58:13Z</time>
      </trkpt>
      <trkpt lat="47.98956" lon="-3.78171">
        <ele>142.2</ele>
        <time>2021-08-11T13:58:14Z</time>
      </trkpt>
      <trkpt lat="47.98955" lon="-3.78178">
        <ele>142</ele>
        <time>2021-08-11T13:58:15Z</time>
      </trkpt>
      <trkpt lat="47.98954" lon="-3.78186">
        <ele>141.8</ele>
        <time>2021-08-11T13:58:16Z</time>
      </trkpt>
      <trkpt lat="47.98954" lon="-3.78193">
        <ele>141.8</ele>
        <time>2021-08-11T13:58:17Z</time>
      </trkpt>
      <trkpt lat="47.98953" lon="-3.78201">
        <ele>141.6</ele>
        <time>2021-08-11T13:58:18Z</time>
      </trkpt>
      <trkpt lat="47.98953" lon="-3.78207">
        <ele>141.6</ele>
        <time>2021-08-11T13:58:19Z</time>
      </trkpt>
      <trkpt lat="47.98952" lon="-3.78214">
        <ele>141.6</ele>
        <time>2021-08-11T13:58:20Z</time>
      </trkpt>
      <trkpt lat="47.98952" lon="-3.78221">
        <ele>141.4</ele>
        <time>2021-08-11T13:58:21Z</time>
      </trkpt>
      <trkpt lat="47.98951" lon="-3.78228">
        <ele>141.2</ele>
        <time>2021-08-11T13:58:22Z</time>
      </trkpt>
      <trkpt lat="47.9895" lon="-3.78235">
        <ele>141.2</ele>
        <time>2021-08-11T13:58:23Z</time>
      </trkpt>
      <trkpt lat="47.98949" lon="-3.78243">
        <ele>141.2</ele>
        <time>2021-08-11T13:58:24Z</time>
      </trkpt>
      <trkpt lat="47.98948" lon="-3.7825">
        <ele>141.2</ele>
        <time>2021-08-11T13:58:25Z</time>
      </trkpt>
      <trkpt lat="47.98947" lon="-3.78257">
        <ele>140.8</ele>
        <time>2021-08-11T13:58:26Z</time>
      </trkpt>
      <trkpt lat="47.98946" lon="-3.78263">
        <ele>140.8</ele>
        <time>2021-08-11T13:58:27Z</time>
      </trkpt>
      <trkpt lat="47.98945" lon="-3.7827">
        <ele>140.8</ele>
        <time>2021-08-11T13:58:28Z</time>
      </trkpt>
      <trkpt lat="47.98945" lon="-3.78276">
        <ele>140.6</ele>
        <time>2021-08-11T13:58:29Z</time>
      </trkpt>
      <trkpt lat="47.98946" lon="-3.78281">
        <ele>140.6</ele>
        <time>2021-08-11T13:58:30Z</time>
      </trkpt>
      <trkpt lat="47.98945" lon="-3.78287">
        <ele>140.6</ele>
        <time>2021-08-11T13:58:31Z</time>
      </trkpt>
      <trkpt lat="47.98945" lon="-3.78293">
        <ele>140.6</ele>
        <time>2021-08-11T13:58:32Z</time>
      </trkpt>
      <trkpt lat="47.98945" lon="-3.78298">
        <ele>140.6</ele>
        <time>2021-08-11T13:58:33Z</time>
      </trkpt>
      <trkpt lat="47.98944" lon="-3.78303">
        <ele>140.6</ele>
        <time>2021-08-11T13:58:34Z</time>
      </trkpt>
      <trkpt lat="47.98944" lon="-3.78308">
        <ele>140.6</ele>
        <time>2021-08-11T13:58:35Z</time>
      </trkpt>
      <trkpt lat="47.98944" lon="-3.78313">
        <ele>140.6</ele>
        <time>2021-08-11T13:58:36Z</time>
      </trkpt>
      <trkpt lat="47.98944" lon="-3.78319">
        <ele>140.6</ele>
        <time>2021-08-11T13:58:37Z</time>
      </trkpt>
      <trkpt lat="47.98944" lon="-3.78325">
        <ele>140.6</ele>
        <time>2021-08-11T13:58:38Z</time>
      </trkpt>
      <trkpt lat="47.98943" lon="-3.78331">
        <ele>140.6</ele>
        <time>2021-08-11T13:58:39Z</time>
      </trkpt>
      <trkpt lat="47.98942" lon="-3.78337">
        <ele>140.6</ele>
        <time>2021-08-11T13:58:40Z</time>
      </trkpt>
      <trkpt lat="47.98941" lon="-3.78342">
        <ele>140.6</ele>
        <time>2021-08-11T13:58:41Z</time>
      </trkpt>
      <trkpt lat="47.9894" lon="-3.78347">
        <ele>140.6</ele>
        <time>2021-08-11T13:58:42Z</time>
      </trkpt>
      <trkpt lat="47.9894" lon="-3.78353">
        <ele>140.6</ele>
        <time>2021-08-11T13:58:43Z</time>
      </trkpt>
      <trkpt lat="47.98939" lon="-3.78359">
        <ele>140.4</ele>
        <time>2021-08-11T13:58:44Z</time>
      </trkpt>
      <trkpt lat="47.98939" lon="-3.78363">
        <ele>140.4</ele>
        <time>2021-08-11T13:58:45Z</time>
      </trkpt>
      <trkpt lat="47.98938" lon="-3.78368">
        <ele>140.4</ele>
        <time>2021-08-11T13:58:46Z</time>
      </trkpt>
      <trkpt lat="47.98938" lon="-3.78373">
        <ele>140.4</ele>
        <time>2021-08-11T13:58:47Z</time>
      </trkpt>
      <trkpt lat="47.98937" lon="-3.78378">
        <ele>140.4</ele>
        <time>2021-08-11T13:58:48Z</time>
      </trkpt>
      <trkpt lat="47.98937" lon="-3.78383">
        <ele>140.4</ele>
        <time>2021-08-11T13:58:49Z</time>
      </trkpt>
      <trkpt lat="47.98936" lon="-3.78389">
        <ele>140.4</ele>
        <time>2021-08-11T13:58:50Z</time>
      </trkpt>
      <trkpt lat="47.98936" lon="-3.78394">
        <ele>140.4</ele>
        <time>2021-08-11T13:58:51Z</time>
      </trkpt>
      <trkpt lat="47.98936" lon="-3.78398">
        <ele>140.4</ele>
        <time>2021-08-11T13:58:52Z</time>
      </trkpt>
      <trkpt lat="47.98936" lon="-3.78402">
        <ele>140.4</ele>
        <time>2021-08-11T13:58:53Z</time>
      </trkpt>
      <trkpt lat="47.98935" lon="-3.78407">
        <ele>140.4</ele>
        <time>2021-08-11T13:58:54Z</time>
      </trkpt>
      <trkpt lat="47.98935" lon="-3.78412">
        <ele>140.4</ele>
        <time>2021-08-11T13:58:55Z</time>
      </trkpt>
      <trkpt lat="47.98933" lon="-3.78418">
        <ele>140.4</ele>
        <time>2021-08-11T13:58:56Z</time>
      </trkpt>
      <trkpt lat="47.98933" lon="-3.78424">
        <ele>140.4</ele>
        <time>2021-08-11T13:58:57Z</time>
      </trkpt>
      <trkpt lat="47.98933" lon="-3.7843">
        <ele>140.4</ele>
        <time>2021-08-11T13:58:58Z</time>
      </trkpt>
      <trkpt lat="47.98932" lon="-3.78437">
        <ele>140.2</ele>
        <time>2021-08-11T13:58:59Z</time>
      </trkpt>
      <trkpt lat="47.98931" lon="-3.78444">
        <ele>140.2</ele>
        <time>2021-08-11T13:59:00Z</time>
      </trkpt>
      <trkpt lat="47.98929" lon="-3.78452">
        <ele>140.2</ele>
        <time>2021-08-11T13:59:01Z</time>
      </trkpt>
      <trkpt lat="47.98928" lon="-3.78459">
        <ele>140.2</ele>
        <time>2021-08-11T13:59:02Z</time>
      </trkpt>
      <trkpt lat="47.98926" lon="-3.78468">
        <ele>140.2</ele>
        <time>2021-08-11T13:59:03Z</time>
      </trkpt>
      <trkpt lat="47.98925" lon="-3.78475">
        <ele>140</ele>
        <time>2021-08-11T13:59:04Z</time>
      </trkpt>
      <trkpt lat="47.98924" lon="-3.7848">
        <ele>139.8</ele>
        <time>2021-08-11T13:59:05Z</time>
      </trkpt>
      <trkpt lat="47.98924" lon="-3.78484">
        <ele>139.6</ele>
        <time>2021-08-11T13:59:06Z</time>
      </trkpt>
      <trkpt lat="47.98923" lon="-3.78489">
        <ele>139.4</ele>
        <time>2021-08-11T13:59:07Z</time>
      </trkpt>
      <trkpt lat="47.98922" lon="-3.78494">
        <ele>139.4</ele>
        <time>2021-08-11T13:59:08Z</time>
      </trkpt>
      <trkpt lat="47.98921" lon="-3.785">
        <ele>139.4</ele>
        <time>2021-08-11T13:59:09Z</time>
      </trkpt>
      <trkpt lat="47.9892" lon="-3.78505">
        <ele>139.4</ele>
        <time>2021-08-11T13:59:10Z</time>
      </trkpt>
      <trkpt lat="47.9892" lon="-3.7851">
        <ele>139.4</ele>
        <time>2021-08-11T13:59:11Z</time>
      </trkpt>
      <trkpt lat="47.98919" lon="-3.78515">
        <ele>139.4</ele>
        <time>2021-08-11T13:59:12Z</time>
      </trkpt>
      <trkpt lat="47.98918" lon="-3.7852">
        <ele>139.4</ele>
        <time>2021-08-11T13:59:13Z</time>
      </trkpt>
      <trkpt lat="47.98918" lon="-3.78524">
        <ele>139.4</ele>
        <time>2021-08-11T13:59:14Z</time>
      </trkpt>
      <trkpt lat="47.98917" lon="-3.78528">
        <ele>139.4</ele>
        <time>2021-08-11T13:59:15Z</time>
      </trkpt>
      <trkpt lat="47.98917" lon="-3.78532">
        <ele>139.4</ele>
        <time>2021-08-11T13:59:16Z</time>
      </trkpt>
      <trkpt lat="47.98917" lon="-3.78535">
        <ele>139.4</ele>
        <time>2021-08-11T13:59:17Z</time>
      </trkpt>
      <trkpt lat="47.98917" lon="-3.78538">
        <ele>139.4</ele>
        <time>2021-08-11T13:59:18Z</time>
      </trkpt>
      <trkpt lat="47.98917" lon="-3.78541">
        <ele>139.6</ele>
        <time>2021-08-11T13:59:19Z</time>
      </trkpt>
      <trkpt lat="47.98916" lon="-3.78544">
        <ele>139.8</ele>
        <time>2021-08-11T13:59:20Z</time>
      </trkpt>
      <trkpt lat="47.98916" lon="-3.78547">
        <ele>139.8</ele>
        <time>2021-08-11T13:59:21Z</time>
      </trkpt>
      <trkpt lat="47.98916" lon="-3.7855">
        <ele>140</ele>
        <time>2021-08-11T13:59:22Z</time>
      </trkpt>
      <trkpt lat="47.98916" lon="-3.78552">
        <ele>140.2</ele>
        <time>2021-08-11T13:59:23Z</time>
      </trkpt>
      <trkpt lat="47.98916" lon="-3.78555">
        <ele>140.4</ele>
        <time>2021-08-11T13:59:24Z</time>
      </trkpt>
      <trkpt lat="47.98915" lon="-3.78558">
        <ele>140.8</ele>
        <time>2021-08-11T13:59:25Z</time>
      </trkpt>
      <trkpt lat="47.98915" lon="-3.78562">
        <ele>141</ele>
        <time>2021-08-11T13:59:26Z</time>
      </trkpt>
      <trkpt lat="47.98915" lon="-3.78564">
        <ele>141.2</ele>
        <time>2021-08-11T13:59:27Z</time>
      </trkpt>
      <trkpt lat="47.98915" lon="-3.78567">
        <ele>141.2</ele>
        <time>2021-08-11T13:59:28Z</time>
      </trkpt>
      <trkpt lat="47.98915" lon="-3.78569">
        <ele>141.4</ele>
        <time>2021-08-11T13:59:29Z</time>
      </trkpt>
      <trkpt lat="47.98915" lon="-3.78571">
        <ele>141.6</ele>
        <time>2021-08-11T13:59:30Z</time>
      </trkpt>
      <trkpt lat="47.98916" lon="-3.78574">
        <ele>141.8</ele>
        <time>2021-08-11T13:59:31Z</time>
      </trkpt>
      <trkpt lat="47.98916" lon="-3.78578">
        <ele>142</ele>
        <time>2021-08-11T13:59:32Z</time>
      </trkpt>
      <trkpt lat="47.98916" lon="-3.78581">
        <ele>142.2</ele>
        <time>2021-08-11T13:59:33Z</time>
      </trkpt>
      <trkpt lat="47.98916" lon="-3.78585">
        <ele>142.4</ele>
        <time>2021-08-11T13:59:34Z</time>
      </trkpt>
      <trkpt lat="47.98916" lon="-3.78589">
        <ele>142.6</ele>
        <time>2021-08-11T13:59:35Z</time>
      </trkpt>
      <trkpt lat="47.98916" lon="-3.78593">
        <ele>142.6</ele>
        <time>2021-08-11T13:59:36Z</time>
      </trkpt>
      <trkpt lat="47.98916" lon="-3.78596">
        <ele>142.8</ele>
        <time>2021-08-11T13:59:37Z</time>
      </trkpt>
      <trkpt lat="47.98915" lon="-3.786">
        <ele>143</ele>
        <time>2021-08-11T13:59:38Z</time>
      </trkpt>
      <trkpt lat="47.98915" lon="-3.78603">
        <ele>143</ele>
        <time>2021-08-11T13:59:39Z</time>
      </trkpt>
      <trkpt lat="47.98914" lon="-3.78607">
        <ele>143</ele>
        <time>2021-08-11T13:59:40Z</time>
      </trkpt>
      <trkpt lat="47.98914" lon="-3.78611">
        <ele>143</ele>
        <time>2021-08-11T13:59:41Z</time>
      </trkpt>
      <trkpt lat="47.98915" lon="-3.78614">
        <ele>143.2</ele>
        <time>2021-08-11T13:59:42Z</time>
      </trkpt>
      <trkpt lat="47.98915" lon="-3.78618">
        <ele>143.2</ele>
        <time>2021-08-11T13:59:43Z</time>
      </trkpt>
      <trkpt lat="47.98915" lon="-3.78622">
        <ele>143.2</ele>
        <time>2021-08-11T13:59:44Z</time>
      </trkpt>
      <trkpt lat="47.98915" lon="-3.78626">
        <ele>143.2</ele>
        <time>2021-08-11T13:59:45Z</time>
      </trkpt>
      <trkpt lat="47.98914" lon="-3.78632">
        <ele>143.2</ele>
        <time>2021-08-11T13:59:46Z</time>
      </trkpt>
      <trkpt lat="47.98913" lon="-3.78637">
        <ele>143.2</ele>
        <time>2021-08-11T13:59:47Z</time>
      </trkpt>
      <trkpt lat="47.98912" lon="-3.78642">
        <ele>143.2</ele>
        <time>2021-08-11T13:59:48Z</time>
      </trkpt>
      <trkpt lat="47.98911" lon="-3.78647">
        <ele>143.2</ele>
        <time>2021-08-11T13:59:49Z</time>
      </trkpt>
      <trkpt lat="47.9891" lon="-3.78652">
        <ele>143.2</ele>
        <time>2021-08-11T13:59:50Z</time>
      </trkpt>
      <trkpt lat="47.98909" lon="-3.78658">
        <ele>143.2</ele>
        <time>2021-08-11T13:59:51Z</time>
      </trkpt>
      <trkpt lat="47.98909" lon="-3.78663">
        <ele>143.2</ele>
        <time>2021-08-11T13:59:52Z</time>
      </trkpt>
      <trkpt lat="47.98908" lon="-3.7867">
        <ele>143.2</ele>
        <time>2021-08-11T13:59:53Z</time>
      </trkpt>
      <trkpt lat="47.98908" lon="-3.78676">
        <ele>143.2</ele>
        <time>2021-08-11T13:59:54Z</time>
      </trkpt>
      <trkpt lat="47.98907" lon="-3.78681">
        <ele>143</ele>
        <time>2021-08-11T13:59:55Z</time>
      </trkpt>
      <trkpt lat="47.98907" lon="-3.78687">
        <ele>143</ele>
        <time>2021-08-11T13:59:56Z</time>
      </trkpt>
      <trkpt lat="47.98906" lon="-3.78694">
        <ele>143</ele>
        <time>2021-08-11T13:59:57Z</time>
      </trkpt>
      <trkpt lat="47.98906" lon="-3.787">
        <ele>143</ele>
        <time>2021-08-11T13:59:58Z</time>
      </trkpt>
      <trkpt lat="47.98904" lon="-3.78706">
        <ele>143</ele>
        <time>2021-08-11T13:59:59Z</time>
      </trkpt>
      <trkpt lat="47.98902" lon="-3.78713">
        <ele>142.8</ele>
        <time>2021-08-11T14:00:00Z</time>
      </trkpt>
      <trkpt lat="47.98901" lon="-3.7872">
        <ele>142.8</ele>
        <time>2021-08-11T14:00:01Z</time>
      </trkpt>
      <trkpt lat="47.989" lon="-3.78727">
        <ele>142.6</ele>
        <time>2021-08-11T14:00:02Z</time>
      </trkpt>
      <trkpt lat="47.98899" lon="-3.78734">
        <ele>142.4</ele>
        <time>2021-08-11T14:00:03Z</time>
      </trkpt>
      <trkpt lat="47.98898" lon="-3.78742">
        <ele>142.2</ele>
        <time>2021-08-11T14:00:04Z</time>
      </trkpt>
      <trkpt lat="47.98897" lon="-3.78749">
        <ele>142.2</ele>
        <time>2021-08-11T14:00:05Z</time>
      </trkpt>
      <trkpt lat="47.98896" lon="-3.78757">
        <ele>142</ele>
        <time>2021-08-11T14:00:06Z</time>
      </trkpt>
      <trkpt lat="47.98895" lon="-3.78766">
        <ele>141.8</ele>
        <time>2021-08-11T14:00:07Z</time>
      </trkpt>
      <trkpt lat="47.98894" lon="-3.78774">
        <ele>141.8</ele>
        <time>2021-08-11T14:00:08Z</time>
      </trkpt>
      <trkpt lat="47.98893" lon="-3.78782">
        <ele>141.6</ele>
        <time>2021-08-11T14:00:09Z</time>
      </trkpt>
      <trkpt lat="47.98893" lon="-3.78789">
        <ele>141.2</ele>
        <time>2021-08-11T14:00:10Z</time>
      </trkpt>
      <trkpt lat="47.98892" lon="-3.78798">
        <ele>140.8</ele>
        <time>2021-08-11T14:00:11Z</time>
      </trkpt>
      <trkpt lat="47.98891" lon="-3.78807">
        <ele>140.6</ele>
        <time>2021-08-11T14:00:12Z</time>
      </trkpt>
      <trkpt lat="47.9889" lon="-3.78816">
        <ele>140.4</ele>
        <time>2021-08-11T14:00:13Z</time>
      </trkpt>
      <trkpt lat="47.98889" lon="-3.78825">
        <ele>140</ele>
        <time>2021-08-11T14:00:14Z</time>
      </trkpt>
      <trkpt lat="47.98889" lon="-3.78833">
        <ele>139.8</ele>
        <time>2021-08-11T14:00:15Z</time>
      </trkpt>
      <trkpt lat="47.98888" lon="-3.78841">
        <ele>139.8</ele>
        <time>2021-08-11T14:00:16Z</time>
      </trkpt>
      <trkpt lat="47.98888" lon="-3.78849">
        <ele>139.8</ele>
        <time>2021-08-11T14:00:17Z</time>
      </trkpt>
      <trkpt lat="47.98888" lon="-3.78857">
        <ele>139.6</ele>
        <time>2021-08-11T14:00:18Z</time>
      </trkpt>
      <trkpt lat="47.98888" lon="-3.78865">
        <ele>139.6</ele>
        <time>2021-08-11T14:00:19Z</time>
      </trkpt>
      <trkpt lat="47.98887" lon="-3.78874">
        <ele>139.4</ele>
        <time>2021-08-11T14:00:20Z</time>
      </trkpt>
      <trkpt lat="47.98887" lon="-3.7888">
        <ele>139.4</ele>
        <time>2021-08-11T14:00:21Z</time>
      </trkpt>
      <trkpt lat="47.98886" lon="-3.78889">
        <ele>139.4</ele>
        <time>2021-08-11T14:00:22Z</time>
      </trkpt>
      <trkpt lat="47.98886" lon="-3.78897">
        <ele>139.4</ele>
        <time>2021-08-11T14:00:23Z</time>
      </trkpt>
      <trkpt lat="47.98885" lon="-3.78906">
        <ele>139.4</ele>
        <time>2021-08-11T14:00:24Z</time>
      </trkpt>
      <trkpt lat="47.98884" lon="-3.78913">
        <ele>139.2</ele>
        <time>2021-08-11T14:00:25Z</time>
      </trkpt>
      <trkpt lat="47.98882" lon="-3.78922">
        <ele>139</ele>
        <time>2021-08-11T14:00:26Z</time>
      </trkpt>
      <trkpt lat="47.9888" lon="-3.78932">
        <ele>139</ele>
        <time>2021-08-11T14:00:27Z</time>
      </trkpt>
      <trkpt lat="47.98878" lon="-3.78942">
        <ele>138.8</ele>
        <time>2021-08-11T14:00:28Z</time>
      </trkpt>
      <trkpt lat="47.98876" lon="-3.78951">
        <ele>138.6</ele>
        <time>2021-08-11T14:00:29Z</time>
      </trkpt>
      <trkpt lat="47.98875" lon="-3.78958">
        <ele>138.6</ele>
        <time>2021-08-11T14:00:30Z</time>
      </trkpt>
      <trkpt lat="47.98873" lon="-3.78966">
        <ele>138.4</ele>
        <time>2021-08-11T14:00:31Z</time>
      </trkpt>
      <trkpt lat="47.9887" lon="-3.78975">
        <ele>138.2</ele>
        <time>2021-08-11T14:00:32Z</time>
      </trkpt>
      <trkpt lat="47.98868" lon="-3.78983">
        <ele>138.2</ele>
        <time>2021-08-11T14:00:33Z</time>
      </trkpt>
      <trkpt lat="47.98866" lon="-3.78991">
        <ele>138</ele>
        <time>2021-08-11T14:00:34Z</time>
      </trkpt>
      <trkpt lat="47.98864" lon="-3.78998">
        <ele>138</ele>
        <time>2021-08-11T14:00:35Z</time>
      </trkpt>
      <trkpt lat="47.98862" lon="-3.79007">
        <ele>137.8</ele>
        <time>2021-08-11T14:00:36Z</time>
      </trkpt>
      <trkpt lat="47.98859" lon="-3.79015">
        <ele>137.8</ele>
        <time>2021-08-11T14:00:37Z</time>
      </trkpt>
      <trkpt lat="47.98856" lon="-3.79024">
        <ele>137.8</ele>
        <time>2021-08-11T14:00:38Z</time>
      </trkpt>
      <trkpt lat="47.98853" lon="-3.79033">
        <ele>137.6</ele>
        <time>2021-08-11T14:00:39Z</time>
      </trkpt>
      <trkpt lat="47.9885" lon="-3.7904">
        <ele>137.6</ele>
        <time>2021-08-11T14:00:40Z</time>
      </trkpt>
      <trkpt lat="47.98847" lon="-3.79048">
        <ele>137.4</ele>
        <time>2021-08-11T14:00:41Z</time>
      </trkpt>
      <trkpt lat="47.98845" lon="-3.79056">
        <ele>137.2</ele>
        <time>2021-08-11T14:00:42Z</time>
      </trkpt>
      <trkpt lat="47.98842" lon="-3.79064">
        <ele>137</ele>
        <time>2021-08-11T14:00:43Z</time>
      </trkpt>
      <trkpt lat="47.98839" lon="-3.79071">
        <ele>137</ele>
        <time>2021-08-11T14:00:44Z</time>
      </trkpt>
      <trkpt lat="47.98836" lon="-3.79078">
        <ele>136.8</ele>
        <time>2021-08-11T14:00:45Z</time>
      </trkpt>
      <trkpt lat="47.98833" lon="-3.79085">
        <ele>136.8</ele>
        <time>2021-08-11T14:00:46Z</time>
      </trkpt>
      <trkpt lat="47.98829" lon="-3.79093">
        <ele>136.6</ele>
        <time>2021-08-11T14:00:47Z</time>
      </trkpt>
      <trkpt lat="47.98827" lon="-3.791">
        <ele>136.6</ele>
        <time>2021-08-11T14:00:48Z</time>
      </trkpt>
      <trkpt lat="47.98823" lon="-3.79109">
        <ele>136.6</ele>
        <time>2021-08-11T14:00:49Z</time>
      </trkpt>
      <trkpt lat="47.9882" lon="-3.79118">
        <ele>136.4</ele>
        <time>2021-08-11T14:00:50Z</time>
      </trkpt>
      <trkpt lat="47.98817" lon="-3.79126">
        <ele>136</ele>
        <time>2021-08-11T14:00:51Z</time>
      </trkpt>
      <trkpt lat="47.98814" lon="-3.79135">
        <ele>135.8</ele>
        <time>2021-08-11T14:00:52Z</time>
      </trkpt>
      <trkpt lat="47.98811" lon="-3.79142">
        <ele>135.8</ele>
        <time>2021-08-11T14:00:53Z</time>
      </trkpt>
      <trkpt lat="47.98808" lon="-3.7915">
        <ele>135.4</ele>
        <time>2021-08-11T14:00:54Z</time>
      </trkpt>
      <trkpt lat="47.98806" lon="-3.79159">
        <ele>135.2</ele>
        <time>2021-08-11T14:00:55Z</time>
      </trkpt>
      <trkpt lat="47.98803" lon="-3.79166">
        <ele>135.2</ele>
        <time>2021-08-11T14:00:56Z</time>
      </trkpt>
      <trkpt lat="47.988" lon="-3.79173">
        <ele>135</ele>
        <time>2021-08-11T14:00:57Z</time>
      </trkpt>
      <trkpt lat="47.98798" lon="-3.79179">
        <ele>135</ele>
        <time>2021-08-11T14:00:58Z</time>
      </trkpt>
      <trkpt lat="47.98796" lon="-3.79186">
        <ele>134.8</ele>
        <time>2021-08-11T14:00:59Z</time>
      </trkpt>
      <trkpt lat="47.98793" lon="-3.79192">
        <ele>134.8</ele>
        <time>2021-08-11T14:01:00Z</time>
      </trkpt>
      <trkpt lat="47.98791" lon="-3.79198">
        <ele>134.8</ele>
        <time>2021-08-11T14:01:01Z</time>
      </trkpt>
      <trkpt lat="47.98788" lon="-3.79204">
        <ele>134.8</ele>
        <time>2021-08-11T14:01:02Z</time>
      </trkpt>
      <trkpt lat="47.98786" lon="-3.79209">
        <ele>134.8</ele>
        <time>2021-08-11T14:01:03Z</time>
      </trkpt>
      <trkpt lat="47.98783" lon="-3.79215">
        <ele>134.6</ele>
        <time>2021-08-11T14:01:04Z</time>
      </trkpt>
      <trkpt lat="47.98781" lon="-3.79222">
        <ele>134.6</ele>
        <time>2021-08-11T14:01:05Z</time>
      </trkpt>
      <trkpt lat="47.98778" lon="-3.79229">
        <ele>134.6</ele>
        <time>2021-08-11T14:01:06Z</time>
      </trkpt>
      <trkpt lat="47.98775" lon="-3.79235">
        <ele>134.4</ele>
        <time>2021-08-11T14:01:07Z</time>
      </trkpt>
      <trkpt lat="47.98772" lon="-3.79242">
        <ele>134.4</ele>
        <time>2021-08-11T14:01:08Z</time>
      </trkpt>
      <trkpt lat="47.98769" lon="-3.79249">
        <ele>134.4</ele>
        <time>2021-08-11T14:01:09Z</time>
      </trkpt>
      <trkpt lat="47.98767" lon="-3.79256">
        <ele>134.4</ele>
        <time>2021-08-11T14:01:10Z</time>
      </trkpt>
      <trkpt lat="47.98764" lon="-3.79263">
        <ele>134.2</ele>
        <time>2021-08-11T14:01:11Z</time>
      </trkpt>
      <trkpt lat="47.98761" lon="-3.7927">
        <ele>134.2</ele>
        <time>2021-08-11T14:01:12Z</time>
      </trkpt>
      <trkpt lat="47.98758" lon="-3.79277">
        <ele>134.2</ele>
        <time>2021-08-11T14:01:13Z</time>
      </trkpt>
      <trkpt lat="47.98755" lon="-3.79284">
        <ele>134.2</ele>
        <time>2021-08-11T14:01:14Z</time>
      </trkpt>
      <trkpt lat="47.98752" lon="-3.79291">
        <ele>134.2</ele>
        <time>2021-08-11T14:01:15Z</time>
      </trkpt>
      <trkpt lat="47.9875" lon="-3.79298">
        <ele>134.2</ele>
        <time>2021-08-11T14:01:16Z</time>
      </trkpt>
      <trkpt lat="47.98748" lon="-3.79305">
        <ele>134.2</ele>
        <time>2021-08-11T14:01:17Z</time>
      </trkpt>
      <trkpt lat="47.98745" lon="-3.79312">
        <ele>134.2</ele>
        <time>2021-08-11T14:01:18Z</time>
      </trkpt>
      <trkpt lat="47.98742" lon="-3.79319">
        <ele>134</ele>
        <time>2021-08-11T14:01:19Z</time>
      </trkpt>
      <trkpt lat="47.98739" lon="-3.79326">
        <ele>134</ele>
        <time>2021-08-11T14:01:20Z</time>
      </trkpt>
      <trkpt lat="47.98736" lon="-3.79334">
        <ele>133.8</ele>
        <time>2021-08-11T14:01:21Z</time>
      </trkpt>
      <trkpt lat="47.98733" lon="-3.79341">
        <ele>133.6</ele>
        <time>2021-08-11T14:01:22Z</time>
      </trkpt>
      <trkpt lat="47.98731" lon="-3.79349">
        <ele>133.6</ele>
        <time>2021-08-11T14:01:23Z</time>
      </trkpt>
      <trkpt lat="47.98728" lon="-3.79356">
        <ele>133.4</ele>
        <time>2021-08-11T14:01:24Z</time>
      </trkpt>
      <trkpt lat="47.98726" lon="-3.79363">
        <ele>133.4</ele>
        <time>2021-08-11T14:01:25Z</time>
      </trkpt>
      <trkpt lat="47.98723" lon="-3.79369">
        <ele>133.4</ele>
        <time>2021-08-11T14:01:26Z</time>
      </trkpt>
      <trkpt lat="47.9872" lon="-3.79377">
        <ele>133.2</ele>
        <time>2021-08-11T14:01:27Z</time>
      </trkpt>
      <trkpt lat="47.98717" lon="-3.79384">
        <ele>133.2</ele>
        <time>2021-08-11T14:01:28Z</time>
      </trkpt>
      <trkpt lat="47.98714" lon="-3.79392">
        <ele>133.2</ele>
        <time>2021-08-11T14:01:29Z</time>
      </trkpt>
      <trkpt lat="47.98712" lon="-3.79399">
        <ele>133.2</ele>
        <time>2021-08-11T14:01:30Z</time>
      </trkpt>
      <trkpt lat="47.98708" lon="-3.79406">
        <ele>133.2</ele>
        <time>2021-08-11T14:01:31Z</time>
      </trkpt>
      <trkpt lat="47.98705" lon="-3.79413">
        <ele>133</ele>
        <time>2021-08-11T14:01:32Z</time>
      </trkpt>
      <trkpt lat="47.98701" lon="-3.79421">
        <ele>133</ele>
        <time>2021-08-11T14:01:33Z</time>
      </trkpt>
      <trkpt lat="47.98698" lon="-3.79427">
        <ele>133</ele>
        <time>2021-08-11T14:01:34Z</time>
      </trkpt>
      <trkpt lat="47.98695" lon="-3.79435">
        <ele>132.8</ele>
        <time>2021-08-11T14:01:35Z</time>
      </trkpt>
      <trkpt lat="47.98691" lon="-3.79442">
        <ele>132.8</ele>
        <time>2021-08-11T14:01:36Z</time>
      </trkpt>
      <trkpt lat="47.98687" lon="-3.7945">
        <ele>132.8</ele>
        <time>2021-08-11T14:01:37Z</time>
      </trkpt>
      <trkpt lat="47.98683" lon="-3.79458">
        <ele>132.6</ele>
        <time>2021-08-11T14:01:38Z</time>
      </trkpt>
      <trkpt lat="47.98679" lon="-3.79464">
        <ele>132.6</ele>
        <time>2021-08-11T14:01:39Z</time>
      </trkpt>
      <trkpt lat="47.98674" lon="-3.79471">
        <ele>132.4</ele>
        <time>2021-08-11T14:01:40Z</time>
      </trkpt>
      <trkpt lat="47.98669" lon="-3.79478">
        <ele>132.4</ele>
        <time>2021-08-11T14:01:41Z</time>
      </trkpt>
      <trkpt lat="47.98665" lon="-3.79484">
        <ele>132.4</ele>
        <time>2021-08-11T14:01:42Z</time>
      </trkpt>
      <trkpt lat="47.98661" lon="-3.7949">
        <ele>132.4</ele>
        <time>2021-08-11T14:01:43Z</time>
      </trkpt>
      <trkpt lat="47.98657" lon="-3.79495">
        <ele>132.2</ele>
        <time>2021-08-11T14:01:44Z</time>
      </trkpt>
      <trkpt lat="47.98654" lon="-3.795">
        <ele>132.2</ele>
        <time>2021-08-11T14:01:45Z</time>
      </trkpt>
      <trkpt lat="47.98651" lon="-3.79506">
        <ele>132.2</ele>
        <time>2021-08-11T14:01:46Z</time>
      </trkpt>
      <trkpt lat="47.98647" lon="-3.7951">
        <ele>132.2</ele>
        <time>2021-08-11T14:01:47Z</time>
      </trkpt>
      <trkpt lat="47.98642" lon="-3.79514">
        <ele>132.2</ele>
        <time>2021-08-11T14:01:48Z</time>
      </trkpt>
      <trkpt lat="47.98638" lon="-3.79519">
        <ele>132</ele>
        <time>2021-08-11T14:01:49Z</time>
      </trkpt>
      <trkpt lat="47.98633" lon="-3.79523">
        <ele>132</ele>
        <time>2021-08-11T14:01:50Z</time>
      </trkpt>
      <trkpt lat="47.98628" lon="-3.79527">
        <ele>132</ele>
        <time>2021-08-11T14:01:51Z</time>
      </trkpt>
      <trkpt lat="47.98623" lon="-3.79531">
        <ele>132</ele>
        <time>2021-08-11T14:01:52Z</time>
      </trkpt>
      <trkpt lat="47.98618" lon="-3.79534">
        <ele>132</ele>
        <time>2021-08-11T14:01:53Z</time>
      </trkpt>
      <trkpt lat="47.98614" lon="-3.79538">
        <ele>132</ele>
        <time>2021-08-11T14:01:54Z</time>
      </trkpt>
      <trkpt lat="47.98609" lon="-3.79542">
        <ele>132</ele>
        <time>2021-08-11T14:01:55Z</time>
      </trkpt>
      <trkpt lat="47.98605" lon="-3.79545">
        <ele>132</ele>
        <time>2021-08-11T14:01:56Z</time>
      </trkpt>
      <trkpt lat="47.98601" lon="-3.79548">
        <ele>132</ele>
        <time>2021-08-11T14:01:57Z</time>
      </trkpt>
      <trkpt lat="47.98597" lon="-3.79551">
        <ele>132</ele>
        <time>2021-08-11T14:01:58Z</time>
      </trkpt>
      <trkpt lat="47.98593" lon="-3.79553">
        <ele>132</ele>
        <time>2021-08-11T14:01:59Z</time>
      </trkpt>
      <trkpt lat="47.98588" lon="-3.79556">
        <ele>132</ele>
        <time>2021-08-11T14:02:00Z</time>
      </trkpt>
      <trkpt lat="47.98583" lon="-3.79559">
        <ele>132</ele>
        <time>2021-08-11T14:02:01Z</time>
      </trkpt>
      <trkpt lat="47.98578" lon="-3.79561">
        <ele>132</ele>
        <time>2021-08-11T14:02:02Z</time>
      </trkpt>
      <trkpt lat="47.98573" lon="-3.79564">
        <ele>132</ele>
        <time>2021-08-11T14:02:03Z</time>
      </trkpt>
      <trkpt lat="47.98566" lon="-3.79567">
        <ele>132</ele>
        <time>2021-08-11T14:02:04Z</time>
      </trkpt>
      <trkpt lat="47.98561" lon="-3.7957">
        <ele>132</ele>
        <time>2021-08-11T14:02:05Z</time>
      </trkpt>
      <trkpt lat="47.98555" lon="-3.79572">
        <ele>132</ele>
        <time>2021-08-11T14:02:06Z</time>
      </trkpt>
      <trkpt lat="47.9855" lon="-3.79575">
        <ele>132</ele>
        <time>2021-08-11T14:02:07Z</time>
      </trkpt>
      <trkpt lat="47.98544" lon="-3.79577">
        <ele>131.8</ele>
        <time>2021-08-11T14:02:08Z</time>
      </trkpt>
      <trkpt lat="47.98539" lon="-3.79579">
        <ele>131.8</ele>
        <time>2021-08-11T14:02:09Z</time>
      </trkpt>
      <trkpt lat="47.98534" lon="-3.79582">
        <ele>131.8</ele>
        <time>2021-08-11T14:02:10Z</time>
      </trkpt>
      <trkpt lat="47.98528" lon="-3.79585">
        <ele>131.6</ele>
        <time>2021-08-11T14:02:11Z</time>
      </trkpt>
      <trkpt lat="47.98521" lon="-3.79588">
        <ele>131.4</ele>
        <time>2021-08-11T14:02:12Z</time>
      </trkpt>
      <trkpt lat="47.98515" lon="-3.7959">
        <ele>131.2</ele>
        <time>2021-08-11T14:02:13Z</time>
      </trkpt>
      <trkpt lat="47.9851" lon="-3.79592">
        <ele>131.2</ele>
        <time>2021-08-11T14:02:14Z</time>
      </trkpt>
      <trkpt lat="47.98504" lon="-3.79595">
        <ele>131</ele>
        <time>2021-08-11T14:02:15Z</time>
      </trkpt>
      <trkpt lat="47.98499" lon="-3.79597">
        <ele>130.8</ele>
        <time>2021-08-11T14:02:16Z</time>
      </trkpt>
      <trkpt lat="47.98493" lon="-3.79598">
        <ele>130.8</ele>
        <time>2021-08-11T14:02:17Z</time>
      </trkpt>
      <trkpt lat="47.98487" lon="-3.796">
        <ele>130.6</ele>
        <time>2021-08-11T14:02:18Z</time>
      </trkpt>
      <trkpt lat="47.98482" lon="-3.79602">
        <ele>130.6</ele>
        <time>2021-08-11T14:02:19Z</time>
      </trkpt>
      <trkpt lat="47.98476" lon="-3.79603">
        <ele>130.6</ele>
        <time>2021-08-11T14:02:20Z</time>
      </trkpt>
      <trkpt lat="47.98471" lon="-3.79605">
        <ele>130.6</ele>
        <time>2021-08-11T14:02:21Z</time>
      </trkpt>
      <trkpt lat="47.98466" lon="-3.79607">
        <ele>130.4</ele>
        <time>2021-08-11T14:02:22Z</time>
      </trkpt>
      <trkpt lat="47.98461" lon="-3.79608">
        <ele>130.4</ele>
        <time>2021-08-11T14:02:23Z</time>
      </trkpt>
      <trkpt lat="47.98456" lon="-3.7961">
        <ele>130.4</ele>
        <time>2021-08-11T14:02:24Z</time>
      </trkpt>
      <trkpt lat="47.9845" lon="-3.79612">
        <ele>130.4</ele>
        <time>2021-08-11T14:02:25Z</time>
      </trkpt>
      <trkpt lat="47.98444" lon="-3.79614">
        <ele>130.4</ele>
        <time>2021-08-11T14:02:26Z</time>
      </trkpt>
      <trkpt lat="47.98438" lon="-3.79616">
        <ele>130.4</ele>
        <time>2021-08-11T14:02:27Z</time>
      </trkpt>
      <trkpt lat="47.98433" lon="-3.79618">
        <ele>130.4</ele>
        <time>2021-08-11T14:02:28Z</time>
      </trkpt>
      <trkpt lat="47.98428" lon="-3.7962">
        <ele>130.4</ele>
        <time>2021-08-11T14:02:29Z</time>
      </trkpt>
      <trkpt lat="47.98423" lon="-3.79621">
        <ele>130.4</ele>
        <time>2021-08-11T14:02:30Z</time>
      </trkpt>
      <trkpt lat="47.98417" lon="-3.79624">
        <ele>130.4</ele>
        <time>2021-08-11T14:02:31Z</time>
      </trkpt>
      <trkpt lat="47.9841" lon="-3.79627">
        <ele>130.4</ele>
        <time>2021-08-11T14:02:32Z</time>
      </trkpt>
      <trkpt lat="47.98403" lon="-3.7963">
        <ele>130.4</ele>
        <time>2021-08-11T14:02:33Z</time>
      </trkpt>
      <trkpt lat="47.98397" lon="-3.79634">
        <ele>130.4</ele>
        <time>2021-08-11T14:02:34Z</time>
      </trkpt>
      <trkpt lat="47.9839" lon="-3.79637">
        <ele>130.4</ele>
        <time>2021-08-11T14:02:35Z</time>
      </trkpt>
      <trkpt lat="47.98384" lon="-3.79641">
        <ele>130.4</ele>
        <time>2021-08-11T14:02:36Z</time>
      </trkpt>
      <trkpt lat="47.98379" lon="-3.79645">
        <ele>130.4</ele>
        <time>2021-08-11T14:02:37Z</time>
      </trkpt>
      <trkpt lat="47.98373" lon="-3.79648">
        <ele>130.4</ele>
        <time>2021-08-11T14:02:38Z</time>
      </trkpt>
      <trkpt lat="47.98367" lon="-3.79652">
        <ele>130.4</ele>
        <time>2021-08-11T14:02:39Z</time>
      </trkpt>
      <trkpt lat="47.98361" lon="-3.79654">
        <ele>130.4</ele>
        <time>2021-08-11T14:02:40Z</time>
      </trkpt>
      <trkpt lat="47.98356" lon="-3.79657">
        <ele>130.4</ele>
        <time>2021-08-11T14:02:41Z</time>
      </trkpt>
      <trkpt lat="47.98351" lon="-3.79661">
        <ele>130.2</ele>
        <time>2021-08-11T14:02:42Z</time>
      </trkpt>
      <trkpt lat="47.98346" lon="-3.79665">
        <ele>130.2</ele>
        <time>2021-08-11T14:02:43Z</time>
      </trkpt>
      <trkpt lat="47.98341" lon="-3.79668">
        <ele>130</ele>
        <time>2021-08-11T14:02:44Z</time>
      </trkpt>
      <trkpt lat="47.98336" lon="-3.79673">
        <ele>129.8</ele>
        <time>2021-08-11T14:02:45Z</time>
      </trkpt>
      <trkpt lat="47.9833" lon="-3.79676">
        <ele>129.8</ele>
        <time>2021-08-11T14:02:46Z</time>
      </trkpt>
      <trkpt lat="47.98326" lon="-3.79682">
        <ele>129.8</ele>
        <time>2021-08-11T14:02:47Z</time>
      </trkpt>
      <trkpt lat="47.9832" lon="-3.79686">
        <ele>129.6</ele>
        <time>2021-08-11T14:02:48Z</time>
      </trkpt>
      <trkpt lat="47.98315" lon="-3.79691">
        <ele>129.6</ele>
        <time>2021-08-11T14:02:49Z</time>
      </trkpt>
      <trkpt lat="47.98309" lon="-3.79697">
        <ele>129.6</ele>
        <time>2021-08-11T14:02:50Z</time>
      </trkpt>
      <trkpt lat="47.98304" lon="-3.79702">
        <ele>129.4</ele>
        <time>2021-08-11T14:02:51Z</time>
      </trkpt>
      <trkpt lat="47.98298" lon="-3.79706">
        <ele>129.2</ele>
        <time>2021-08-11T14:02:52Z</time>
      </trkpt>
      <trkpt lat="47.98292" lon="-3.79712">
        <ele>129</ele>
        <time>2021-08-11T14:02:53Z</time>
      </trkpt>
      <trkpt lat="47.98287" lon="-3.79717">
        <ele>128.8</ele>
        <time>2021-08-11T14:02:54Z</time>
      </trkpt>
      <trkpt lat="47.98282" lon="-3.79722">
        <ele>128.8</ele>
        <time>2021-08-11T14:02:55Z</time>
      </trkpt>
      <trkpt lat="47.98275" lon="-3.79727">
        <ele>128.6</ele>
        <time>2021-08-11T14:02:56Z</time>
      </trkpt>
      <trkpt lat="47.98269" lon="-3.79732">
        <ele>128.6</ele>
        <time>2021-08-11T14:02:57Z</time>
      </trkpt>
      <trkpt lat="47.98263" lon="-3.79737">
        <ele>128.4</ele>
        <time>2021-08-11T14:02:58Z</time>
      </trkpt>
      <trkpt lat="47.98258" lon="-3.79743">
        <ele>128.4</ele>
        <time>2021-08-11T14:02:59Z</time>
      </trkpt>
      <trkpt lat="47.98251" lon="-3.79748">
        <ele>128.4</ele>
        <time>2021-08-11T14:03:00Z</time>
      </trkpt>
      <trkpt lat="47.98244" lon="-3.79754">
        <ele>128.4</ele>
        <time>2021-08-11T14:03:01Z</time>
      </trkpt>
      <trkpt lat="47.98239" lon="-3.7976">
        <ele>128.2</ele>
        <time>2021-08-11T14:03:02Z</time>
      </trkpt>
      <trkpt lat="47.98234" lon="-3.79766">
        <ele>128.2</ele>
        <time>2021-08-11T14:03:03Z</time>
      </trkpt>
      <trkpt lat="47.98228" lon="-3.79772">
        <ele>128.2</ele>
        <time>2021-08-11T14:03:04Z</time>
      </trkpt>
      <trkpt lat="47.98221" lon="-3.79778">
        <ele>128</ele>
        <time>2021-08-11T14:03:05Z</time>
      </trkpt>
      <trkpt lat="47.98215" lon="-3.79785">
        <ele>128</ele>
        <time>2021-08-11T14:03:06Z</time>
      </trkpt>
      <trkpt lat="47.98209" lon="-3.7979">
        <ele>128</ele>
        <time>2021-08-11T14:03:07Z</time>
      </trkpt>
      <trkpt lat="47.98202" lon="-3.79796">
        <ele>128</ele>
        <time>2021-08-11T14:03:08Z</time>
      </trkpt>
      <trkpt lat="47.98196" lon="-3.79802">
        <ele>128</ele>
        <time>2021-08-11T14:03:09Z</time>
      </trkpt>
      <trkpt lat="47.9819" lon="-3.79808">
        <ele>128</ele>
        <time>2021-08-11T14:03:10Z</time>
      </trkpt>
      <trkpt lat="47.98184" lon="-3.79813">
        <ele>128</ele>
        <time>2021-08-11T14:03:11Z</time>
      </trkpt>
      <trkpt lat="47.98178" lon="-3.7982">
        <ele>128</ele>
        <time>2021-08-11T14:03:12Z</time>
      </trkpt>
      <trkpt lat="47.98172" lon="-3.79827">
        <ele>128</ele>
        <time>2021-08-11T14:03:13Z</time>
      </trkpt>
      <trkpt lat="47.98166" lon="-3.79833">
        <ele>128</ele>
        <time>2021-08-11T14:03:14Z</time>
      </trkpt>
      <trkpt lat="47.98159" lon="-3.79838">
        <ele>128</ele>
        <time>2021-08-11T14:03:15Z</time>
      </trkpt>
      <trkpt lat="47.98153" lon="-3.79843">
        <ele>128</ele>
        <time>2021-08-11T14:03:16Z</time>
      </trkpt>
      <trkpt lat="47.98147" lon="-3.79847">
        <ele>128.2</ele>
        <time>2021-08-11T14:03:17Z</time>
      </trkpt>
      <trkpt lat="47.98143" lon="-3.79851">
        <ele>128.2</ele>
        <time>2021-08-11T14:03:18Z</time>
      </trkpt>
      <trkpt lat="47.9814" lon="-3.79855">
        <ele>128.4</ele>
        <time>2021-08-11T14:03:19Z</time>
      </trkpt>
      <trkpt lat="47.98137" lon="-3.79858">
        <ele>128.4</ele>
        <time>2021-08-11T14:03:20Z</time>
      </trkpt>
      <trkpt lat="47.98134" lon="-3.79861">
        <ele>128.6</ele>
        <time>2021-08-11T14:03:21Z</time>
      </trkpt>
      <trkpt lat="47.98132" lon="-3.79864">
        <ele>128.6</ele>
        <time>2021-08-11T14:03:22Z</time>
      </trkpt>
      <trkpt lat="47.98129" lon="-3.79867">
        <ele>128.8</ele>
        <time>2021-08-11T14:03:23Z</time>
      </trkpt>
      <trkpt lat="47.98126" lon="-3.79869">
        <ele>128.8</ele>
        <time>2021-08-11T14:03:24Z</time>
      </trkpt>
      <trkpt lat="47.98124" lon="-3.79872">
        <ele>128.8</ele>
        <time>2021-08-11T14:03:25Z</time>
      </trkpt>
      <trkpt lat="47.98123" lon="-3.79873">
        <ele>129</ele>
        <time>2021-08-11T14:03:26Z</time>
      </trkpt>
      <trkpt lat="47.98122" lon="-3.79875">
        <ele>129</ele>
        <time>2021-08-11T14:03:27Z</time>
      </trkpt>
      <trkpt lat="47.98122" lon="-3.79876">
        <ele>129</ele>
        <time>2021-08-11T14:03:28Z</time>
      </trkpt>
      <trkpt lat="47.98122" lon="-3.79877">
        <ele>129.2</ele>
        <time>2021-08-11T14:03:29Z</time>
      </trkpt>
      <trkpt lat="47.98121" lon="-3.79877">
        <ele>129.2</ele>
        <time>2021-08-11T14:03:30Z</time>
      </trkpt>
      <trkpt lat="47.98118" lon="-3.79879">
        <ele>129.4</ele>
        <time>2021-08-11T14:03:56Z</time>
      </trkpt>
      <trkpt lat="47.98117" lon="-3.7988">
        <ele>129.4</ele>
        <time>2021-08-11T14:03:57Z</time>
      </trkpt>
      <trkpt lat="47.98116" lon="-3.79881">
        <ele>129.4</ele>
        <time>2021-08-11T14:03:58Z</time>
      </trkpt>
      <trkpt lat="47.98115" lon="-3.79883">
        <ele>129.4</ele>
        <time>2021-08-11T14:03:59Z</time>
      </trkpt>
      <trkpt lat="47.98114" lon="-3.79886">
        <ele>129.4</ele>
        <time>2021-08-11T14:04:00Z</time>
      </trkpt>
      <trkpt lat="47.98113" lon="-3.79888">
        <ele>129.2</ele>
        <time>2021-08-11T14:04:01Z</time>
      </trkpt>
      <trkpt lat="47.98112" lon="-3.7989">
        <ele>129.2</ele>
        <time>2021-08-11T14:04:02Z</time>
      </trkpt>
      <trkpt lat="47.9811" lon="-3.79893">
        <ele>129.2</ele>
        <time>2021-08-11T14:04:03Z</time>
      </trkpt>
      <trkpt lat="47.98108" lon="-3.79897">
        <ele>129.2</ele>
        <time>2021-08-11T14:04:04Z</time>
      </trkpt>
      <trkpt lat="47.98105" lon="-3.799">
        <ele>129.2</ele>
        <time>2021-08-11T14:04:05Z</time>
      </trkpt>
      <trkpt lat="47.98103" lon="-3.79904">
        <ele>129</ele>
        <time>2021-08-11T14:04:06Z</time>
      </trkpt>
      <trkpt lat="47.98101" lon="-3.79907">
        <ele>129</ele>
        <time>2021-08-11T14:04:07Z</time>
      </trkpt>
      <trkpt lat="47.98099" lon="-3.7991">
        <ele>128.8</ele>
        <time>2021-08-11T14:04:08Z</time>
      </trkpt>
      <trkpt lat="47.98098" lon="-3.79913">
        <ele>128.6</ele>
        <time>2021-08-11T14:04:09Z</time>
      </trkpt>
      <trkpt lat="47.98096" lon="-3.79916">
        <ele>128.4</ele>
        <time>2021-08-11T14:04:10Z</time>
      </trkpt>
      <trkpt lat="47.98094" lon="-3.79919">
        <ele>128.4</ele>
        <time>2021-08-11T14:04:11Z</time>
      </trkpt>
      <trkpt lat="47.98092" lon="-3.79923">
        <ele>128.2</ele>
        <time>2021-08-11T14:04:12Z</time>
      </trkpt>
      <trkpt lat="47.9809" lon="-3.79927">
        <ele>127.8</ele>
        <time>2021-08-11T14:04:13Z</time>
      </trkpt>
      <trkpt lat="47.98088" lon="-3.79931">
        <ele>127.6</ele>
        <time>2021-08-11T14:04:14Z</time>
      </trkpt>
      <trkpt lat="47.98086" lon="-3.79936">
        <ele>127.6</ele>
        <time>2021-08-11T14:04:15Z</time>
      </trkpt>
      <trkpt lat="47.98083" lon="-3.7994">
        <ele>127.4</ele>
        <time>2021-08-11T14:04:16Z</time>
      </trkpt>
      <trkpt lat="47.98081" lon="-3.79945">
        <ele>127.4</ele>
        <time>2021-08-11T14:04:17Z</time>
      </trkpt>
      <trkpt lat="47.98078" lon="-3.79951">
        <ele>127</ele>
        <time>2021-08-11T14:04:18Z</time>
      </trkpt>
      <trkpt lat="47.98075" lon="-3.79957">
        <ele>127</ele>
        <time>2021-08-11T14:04:19Z</time>
      </trkpt>
      <trkpt lat="47.98072" lon="-3.79961">
        <ele>126.8</ele>
        <time>2021-08-11T14:04:20Z</time>
      </trkpt>
      <trkpt lat="47.9807" lon="-3.79966">
        <ele>126.8</ele>
        <time>2021-08-11T14:04:21Z</time>
      </trkpt>
      <trkpt lat="47.98067" lon="-3.79971">
        <ele>126.6</ele>
        <time>2021-08-11T14:04:22Z</time>
      </trkpt>
      <trkpt lat="47.98063" lon="-3.79977">
        <ele>126.6</ele>
        <time>2021-08-11T14:04:23Z</time>
      </trkpt>
      <trkpt lat="47.9806" lon="-3.79982">
        <ele>126.6</ele>
        <time>2021-08-11T14:04:24Z</time>
      </trkpt>
      <trkpt lat="47.98058" lon="-3.79987">
        <ele>126.6</ele>
        <time>2021-08-11T14:04:25Z</time>
      </trkpt>
      <trkpt lat="47.98054" lon="-3.79993">
        <ele>126.4</ele>
        <time>2021-08-11T14:04:26Z</time>
      </trkpt>
      <trkpt lat="47.98051" lon="-3.79998">
        <ele>126.6</ele>
        <time>2021-08-11T14:04:27Z</time>
      </trkpt>
      <trkpt lat="47.98048" lon="-3.80004">
        <ele>126.4</ele>
        <time>2021-08-11T14:04:28Z</time>
      </trkpt>
      <trkpt lat="47.98045" lon="-3.80009">
        <ele>126.4</ele>
        <time>2021-08-11T14:04:29Z</time>
      </trkpt>
      <trkpt lat="47.98042" lon="-3.80015">
        <ele>126.2</ele>
        <time>2021-08-11T14:04:30Z</time>
      </trkpt>
      <trkpt lat="47.98038" lon="-3.8002">
        <ele>126</ele>
        <time>2021-08-11T14:04:31Z</time>
      </trkpt>
      <trkpt lat="47.98035" lon="-3.80026">
        <ele>125.8</ele>
        <time>2021-08-11T14:04:32Z</time>
      </trkpt>
      <trkpt lat="47.98032" lon="-3.80031">
        <ele>125.6</ele>
        <time>2021-08-11T14:04:33Z</time>
      </trkpt>
      <trkpt lat="47.98029" lon="-3.80036">
        <ele>125.6</ele>
        <time>2021-08-11T14:04:34Z</time>
      </trkpt>
      <trkpt lat="47.98026" lon="-3.80041">
        <ele>125.6</ele>
        <time>2021-08-11T14:04:35Z</time>
      </trkpt>
      <trkpt lat="47.98023" lon="-3.80047">
        <ele>125.6</ele>
        <time>2021-08-11T14:04:36Z</time>
      </trkpt>
      <trkpt lat="47.9802" lon="-3.80053">
        <ele>125.6</ele>
        <time>2021-08-11T14:04:37Z</time>
      </trkpt>
      <trkpt lat="47.98016" lon="-3.8006">
        <ele>125.4</ele>
        <time>2021-08-11T14:04:38Z</time>
      </trkpt>
      <trkpt lat="47.98012" lon="-3.80067">
        <ele>125.4</ele>
        <time>2021-08-11T14:04:39Z</time>
      </trkpt>
      <trkpt lat="47.98008" lon="-3.80074">
        <ele>125.4</ele>
        <time>2021-08-11T14:04:40Z</time>
      </trkpt>
      <trkpt lat="47.98004" lon="-3.80081">
        <ele>125.4</ele>
        <time>2021-08-11T14:04:41Z</time>
      </trkpt>
      <trkpt lat="47.98001" lon="-3.80087">
        <ele>125.4</ele>
        <time>2021-08-11T14:04:42Z</time>
      </trkpt>
      <trkpt lat="47.97998" lon="-3.80092">
        <ele>125.2</ele>
        <time>2021-08-11T14:04:43Z</time>
      </trkpt>
      <trkpt lat="47.97995" lon="-3.80098">
        <ele>125.2</ele>
        <time>2021-08-11T14:04:44Z</time>
      </trkpt>
      <trkpt lat="47.97992" lon="-3.80103">
        <ele>125.2</ele>
        <time>2021-08-11T14:04:45Z</time>
      </trkpt>
      <trkpt lat="47.9799" lon="-3.80107">
        <ele>125</ele>
        <time>2021-08-11T14:04:46Z</time>
      </trkpt>
      <trkpt lat="47.97988" lon="-3.80111">
        <ele>125</ele>
        <time>2021-08-11T14:04:47Z</time>
      </trkpt>
      <trkpt lat="47.97986" lon="-3.80115">
        <ele>125</ele>
        <time>2021-08-11T14:04:48Z</time>
      </trkpt>
      <trkpt lat="47.97984" lon="-3.80119">
        <ele>125</ele>
        <time>2021-08-11T14:04:49Z</time>
      </trkpt>
      <trkpt lat="47.97982" lon="-3.80122">
        <ele>125</ele>
        <time>2021-08-11T14:04:50Z</time>
      </trkpt>
      <trkpt lat="47.9798" lon="-3.80125">
        <ele>125</ele>
        <time>2021-08-11T14:04:51Z</time>
      </trkpt>
      <trkpt lat="47.97978" lon="-3.80127">
        <ele>125</ele>
        <time>2021-08-11T14:04:52Z</time>
      </trkpt>
      <trkpt lat="47.97977" lon="-3.80129">
        <ele>125</ele>
        <time>2021-08-11T14:04:53Z</time>
      </trkpt>
      <trkpt lat="47.97976" lon="-3.80132">
        <ele>125</ele>
        <time>2021-08-11T14:04:54Z</time>
      </trkpt>
      <trkpt lat="47.97976" lon="-3.80133">
        <ele>125</ele>
        <time>2021-08-11T14:04:55Z</time>
      </trkpt>
      <trkpt lat="47.97976" lon="-3.80134">
        <ele>125</ele>
        <time>2021-08-11T14:04:56Z</time>
      </trkpt>
      <trkpt lat="47.97973" lon="-3.80139">
        <ele>125.4</ele>
        <time>2021-08-11T14:05:02Z</time>
      </trkpt>
      <trkpt lat="47.97972" lon="-3.80141">
        <ele>125.6</ele>
        <time>2021-08-11T14:05:03Z</time>
      </trkpt>
      <trkpt lat="47.97971" lon="-3.80143">
        <ele>125.8</ele>
        <time>2021-08-11T14:05:04Z</time>
      </trkpt>
      <trkpt lat="47.97969" lon="-3.80146">
        <ele>126</ele>
        <time>2021-08-11T14:05:05Z</time>
      </trkpt>
      <trkpt lat="47.97967" lon="-3.80149">
        <ele>126.2</ele>
        <time>2021-08-11T14:05:06Z</time>
      </trkpt>
      <trkpt lat="47.97965" lon="-3.80152">
        <ele>126.2</ele>
        <time>2021-08-11T14:05:07Z</time>
      </trkpt>
      <trkpt lat="47.97962" lon="-3.80154">
        <ele>126.2</ele>
        <time>2021-08-11T14:05:08Z</time>
      </trkpt>
      <trkpt lat="47.9796" lon="-3.80157">
        <ele>126.2</ele>
        <time>2021-08-11T14:05:09Z</time>
      </trkpt>
      <trkpt lat="47.97958" lon="-3.80161">
        <ele>126.2</ele>
        <time>2021-08-11T14:05:10Z</time>
      </trkpt>
      <trkpt lat="47.97956" lon="-3.80164">
        <ele>126.2</ele>
        <time>2021-08-11T14:05:11Z</time>
      </trkpt>
      <trkpt lat="47.97954" lon="-3.80168">
        <ele>126.2</ele>
        <time>2021-08-11T14:05:12Z</time>
      </trkpt>
      <trkpt lat="47.97952" lon="-3.80172">
        <ele>126.2</ele>
        <time>2021-08-11T14:05:13Z</time>
      </trkpt>
      <trkpt lat="47.97949" lon="-3.80177">
        <ele>126.2</ele>
        <time>2021-08-11T14:05:14Z</time>
      </trkpt>
      <trkpt lat="47.97947" lon="-3.80181">
        <ele>126.2</ele>
        <time>2021-08-11T14:05:15Z</time>
      </trkpt>
      <trkpt lat="47.97944" lon="-3.80185">
        <ele>126.2</ele>
        <time>2021-08-11T14:05:16Z</time>
      </trkpt>
      <trkpt lat="47.97942" lon="-3.8019">
        <ele>126.2</ele>
        <time>2021-08-11T14:05:17Z</time>
      </trkpt>
      <trkpt lat="47.9794" lon="-3.80194">
        <ele>126</ele>
        <time>2021-08-11T14:05:18Z</time>
      </trkpt>
      <trkpt lat="47.97939" lon="-3.80198">
        <ele>126</ele>
        <time>2021-08-11T14:05:19Z</time>
      </trkpt>
      <trkpt lat="47.97937" lon="-3.80202">
        <ele>126</ele>
        <time>2021-08-11T14:05:20Z</time>
      </trkpt>
      <trkpt lat="47.97934" lon="-3.80207">
        <ele>126</ele>
        <time>2021-08-11T14:05:21Z</time>
      </trkpt>
      <trkpt lat="47.97932" lon="-3.80211">
        <ele>125.8</ele>
        <time>2021-08-11T14:05:22Z</time>
      </trkpt>
      <trkpt lat="47.9793" lon="-3.80215">
        <ele>125.8</ele>
        <time>2021-08-11T14:05:23Z</time>
      </trkpt>
      <trkpt lat="47.97928" lon="-3.8022">
        <ele>125.8</ele>
        <time>2021-08-11T14:05:24Z</time>
      </trkpt>
      <trkpt lat="47.97925" lon="-3.80225">
        <ele>125.8</ele>
        <time>2021-08-11T14:05:25Z</time>
      </trkpt>
      <trkpt lat="47.97922" lon="-3.8023">
        <ele>125.8</ele>
        <time>2021-08-11T14:05:26Z</time>
      </trkpt>
      <trkpt lat="47.9792" lon="-3.80235">
        <ele>125.8</ele>
        <time>2021-08-11T14:05:27Z</time>
      </trkpt>
      <trkpt lat="47.97917" lon="-3.80241">
        <ele>125.8</ele>
        <time>2021-08-11T14:05:28Z</time>
      </trkpt>
      <trkpt lat="47.97914" lon="-3.80246">
        <ele>125.8</ele>
        <time>2021-08-11T14:05:29Z</time>
      </trkpt>
      <trkpt lat="47.97911" lon="-3.80252">
        <ele>125.8</ele>
        <time>2021-08-11T14:05:30Z</time>
      </trkpt>
      <trkpt lat="47.97908" lon="-3.80258">
        <ele>125.8</ele>
        <time>2021-08-11T14:05:31Z</time>
      </trkpt>
      <trkpt lat="47.97904" lon="-3.80264">
        <ele>125.8</ele>
        <time>2021-08-11T14:05:32Z</time>
      </trkpt>
      <trkpt lat="47.97901" lon="-3.8027">
        <ele>125.8</ele>
        <time>2021-08-11T14:05:33Z</time>
      </trkpt>
      <trkpt lat="47.97898" lon="-3.80275">
        <ele>125.8</ele>
        <time>2021-08-11T14:05:34Z</time>
      </trkpt>
      <trkpt lat="47.97896" lon="-3.80281">
        <ele>125.8</ele>
        <time>2021-08-11T14:05:35Z</time>
      </trkpt>
      <trkpt lat="47.97893" lon="-3.80287">
        <ele>125.8</ele>
        <time>2021-08-11T14:05:36Z</time>
      </trkpt>
      <trkpt lat="47.9789" lon="-3.80292">
        <ele>125.8</ele>
        <time>2021-08-11T14:05:37Z</time>
      </trkpt>
      <trkpt lat="47.97887" lon="-3.80298">
        <ele>125.8</ele>
        <time>2021-08-11T14:05:38Z</time>
      </trkpt>
      <trkpt lat="47.97884" lon="-3.80303">
        <ele>125.8</ele>
        <time>2021-08-11T14:05:39Z</time>
      </trkpt>
      <trkpt lat="47.97882" lon="-3.80309">
        <ele>125.8</ele>
        <time>2021-08-11T14:05:40Z</time>
      </trkpt>
      <trkpt lat="47.97879" lon="-3.80315">
        <ele>126</ele>
        <time>2021-08-11T14:05:41Z</time>
      </trkpt>
      <trkpt lat="47.97876" lon="-3.8032">
        <ele>126</ele>
        <time>2021-08-11T14:05:42Z</time>
      </trkpt>
      <trkpt lat="47.97873" lon="-3.80325">
        <ele>126.2</ele>
        <time>2021-08-11T14:05:43Z</time>
      </trkpt>
      <trkpt lat="47.97871" lon="-3.80331">
        <ele>126.2</ele>
        <time>2021-08-11T14:05:44Z</time>
      </trkpt>
      <trkpt lat="47.97868" lon="-3.80336">
        <ele>126.2</ele>
        <time>2021-08-11T14:05:45Z</time>
      </trkpt>
      <trkpt lat="47.97866" lon="-3.80341">
        <ele>126.2</ele>
        <time>2021-08-11T14:05:46Z</time>
      </trkpt>
      <trkpt lat="47.97863" lon="-3.80346">
        <ele>126.2</ele>
        <time>2021-08-11T14:05:47Z</time>
      </trkpt>
      <trkpt lat="47.97861" lon="-3.80351">
        <ele>126.2</ele>
        <time>2021-08-11T14:05:48Z</time>
      </trkpt>
      <trkpt lat="47.97858" lon="-3.80357">
        <ele>126.2</ele>
        <time>2021-08-11T14:05:49Z</time>
      </trkpt>
      <trkpt lat="47.97855" lon="-3.80363">
        <ele>126.2</ele>
        <time>2021-08-11T14:05:50Z</time>
      </trkpt>
      <trkpt lat="47.97852" lon="-3.80368">
        <ele>126.4</ele>
        <time>2021-08-11T14:05:51Z</time>
      </trkpt>
      <trkpt lat="47.97849" lon="-3.80374">
        <ele>126.4</ele>
        <time>2021-08-11T14:05:52Z</time>
      </trkpt>
      <trkpt lat="47.97846" lon="-3.80379">
        <ele>126.4</ele>
        <time>2021-08-11T14:05:53Z</time>
      </trkpt>
      <trkpt lat="47.97843" lon="-3.80385">
        <ele>126.4</ele>
        <time>2021-08-11T14:05:54Z</time>
      </trkpt>
      <trkpt lat="47.97839" lon="-3.8039">
        <ele>126.4</ele>
        <time>2021-08-11T14:05:55Z</time>
      </trkpt>
      <trkpt lat="47.97836" lon="-3.80396">
        <ele>126.6</ele>
        <time>2021-08-11T14:05:56Z</time>
      </trkpt>
      <trkpt lat="47.97833" lon="-3.80401">
        <ele>126.6</ele>
        <time>2021-08-11T14:05:57Z</time>
      </trkpt>
      <trkpt lat="47.9783" lon="-3.80405">
        <ele>126.6</ele>
        <time>2021-08-11T14:05:58Z</time>
      </trkpt>
      <trkpt lat="47.97828" lon="-3.8041">
        <ele>126.6</ele>
        <time>2021-08-11T14:05:59Z</time>
      </trkpt>
      <trkpt lat="47.97825" lon="-3.80415">
        <ele>126.6</ele>
        <time>2021-08-11T14:06:00Z</time>
      </trkpt>
      <trkpt lat="47.97822" lon="-3.80421">
        <ele>126.8</ele>
        <time>2021-08-11T14:06:01Z</time>
      </trkpt>
      <trkpt lat="47.97819" lon="-3.80427">
        <ele>127.2</ele>
        <time>2021-08-11T14:06:02Z</time>
      </trkpt>
      <trkpt lat="47.97816" lon="-3.80432">
        <ele>127.4</ele>
        <time>2021-08-11T14:06:03Z</time>
      </trkpt>
      <trkpt lat="47.97813" lon="-3.80438">
        <ele>127.6</ele>
        <time>2021-08-11T14:06:04Z</time>
      </trkpt>
      <trkpt lat="47.97809" lon="-3.80444">
        <ele>127.8</ele>
        <time>2021-08-11T14:06:05Z</time>
      </trkpt>
      <trkpt lat="47.97806" lon="-3.80451">
        <ele>127.8</ele>
        <time>2021-08-11T14:06:06Z</time>
      </trkpt>
      <trkpt lat="47.97802" lon="-3.80457">
        <ele>128</ele>
        <time>2021-08-11T14:06:07Z</time>
      </trkpt>
      <trkpt lat="47.97798" lon="-3.80464">
        <ele>128</ele>
        <time>2021-08-11T14:06:08Z</time>
      </trkpt>
      <trkpt lat="47.97795" lon="-3.8047">
        <ele>128</ele>
        <time>2021-08-11T14:06:09Z</time>
      </trkpt>
      <trkpt lat="47.97791" lon="-3.80477">
        <ele>128</ele>
        <time>2021-08-11T14:06:10Z</time>
      </trkpt>
      <trkpt lat="47.97788" lon="-3.80482">
        <ele>128</ele>
        <time>2021-08-11T14:06:11Z</time>
      </trkpt>
      <trkpt lat="47.97785" lon="-3.80488">
        <ele>128.2</ele>
        <time>2021-08-11T14:06:12Z</time>
      </trkpt>
      <trkpt lat="47.97782" lon="-3.80494">
        <ele>128.2</ele>
        <time>2021-08-11T14:06:13Z</time>
      </trkpt>
      <trkpt lat="47.97779" lon="-3.80499">
        <ele>128.2</ele>
        <time>2021-08-11T14:06:14Z</time>
      </trkpt>
      <trkpt lat="47.97776" lon="-3.80505">
        <ele>128.2</ele>
        <time>2021-08-11T14:06:15Z</time>
      </trkpt>
      <trkpt lat="47.97773" lon="-3.8051">
        <ele>128.2</ele>
        <time>2021-08-11T14:06:16Z</time>
      </trkpt>
      <trkpt lat="47.9777" lon="-3.80515">
        <ele>128.2</ele>
        <time>2021-08-11T14:06:17Z</time>
      </trkpt>
      <trkpt lat="47.97768" lon="-3.80521">
        <ele>128.4</ele>
        <time>2021-08-11T14:06:18Z</time>
      </trkpt>
      <trkpt lat="47.97765" lon="-3.80526">
        <ele>128.4</ele>
        <time>2021-08-11T14:06:19Z</time>
      </trkpt>
      <trkpt lat="47.97762" lon="-3.80531">
        <ele>128.4</ele>
        <time>2021-08-11T14:06:20Z</time>
      </trkpt>
      <trkpt lat="47.97759" lon="-3.80536">
        <ele>128.4</ele>
        <time>2021-08-11T14:06:21Z</time>
      </trkpt>
      <trkpt lat="47.97756" lon="-3.80542">
        <ele>128.4</ele>
        <time>2021-08-11T14:06:22Z</time>
      </trkpt>
      <trkpt lat="47.97753" lon="-3.80548">
        <ele>128.4</ele>
        <time>2021-08-11T14:06:23Z</time>
      </trkpt>
      <trkpt lat="47.9775" lon="-3.80553">
        <ele>128.4</ele>
        <time>2021-08-11T14:06:24Z</time>
      </trkpt>
      <trkpt lat="47.97747" lon="-3.80559">
        <ele>128.4</ele>
        <time>2021-08-11T14:06:25Z</time>
      </trkpt>
      <trkpt lat="47.97744" lon="-3.80564">
        <ele>128.4</ele>
        <time>2021-08-11T14:06:26Z</time>
      </trkpt>
      <trkpt lat="47.97741" lon="-3.80569">
        <ele>128.4</ele>
        <time>2021-08-11T14:06:27Z</time>
      </trkpt>
      <trkpt lat="47.97738" lon="-3.80575">
        <ele>128.4</ele>
        <time>2021-08-11T14:06:28Z</time>
      </trkpt>
      <trkpt lat="47.97735" lon="-3.8058">
        <ele>128.6</ele>
        <time>2021-08-11T14:06:29Z</time>
      </trkpt>
      <trkpt lat="47.97732" lon="-3.80586">
        <ele>128.6</ele>
        <time>2021-08-11T14:06:30Z</time>
      </trkpt>
      <trkpt lat="47.97729" lon="-3.80591">
        <ele>128.6</ele>
        <time>2021-08-11T14:06:31Z</time>
      </trkpt>
      <trkpt lat="47.97726" lon="-3.80596">
        <ele>128.6</ele>
        <time>2021-08-11T14:06:32Z</time>
      </trkpt>
      <trkpt lat="47.97723" lon="-3.80602">
        <ele>128.6</ele>
        <time>2021-08-11T14:06:33Z</time>
      </trkpt>
      <trkpt lat="47.9772" lon="-3.80607">
        <ele>128.6</ele>
        <time>2021-08-11T14:06:34Z</time>
      </trkpt>
      <trkpt lat="47.97717" lon="-3.80612">
        <ele>128.6</ele>
        <time>2021-08-11T14:06:35Z</time>
      </trkpt>
      <trkpt lat="47.97714" lon="-3.80618">
        <ele>128.8</ele>
        <time>2021-08-11T14:06:36Z</time>
      </trkpt>
      <trkpt lat="47.97711" lon="-3.80624">
        <ele>128.8</ele>
        <time>2021-08-11T14:06:37Z</time>
      </trkpt>
      <trkpt lat="47.97708" lon="-3.80629">
        <ele>128.8</ele>
        <time>2021-08-11T14:06:38Z</time>
      </trkpt>
      <trkpt lat="47.97705" lon="-3.80635">
        <ele>128.8</ele>
        <time>2021-08-11T14:06:39Z</time>
      </trkpt>
      <trkpt lat="47.97702" lon="-3.8064">
        <ele>128.8</ele>
        <time>2021-08-11T14:06:40Z</time>
      </trkpt>
      <trkpt lat="47.97699" lon="-3.80646">
        <ele>128.8</ele>
        <time>2021-08-11T14:06:41Z</time>
      </trkpt>
      <trkpt lat="47.97696" lon="-3.80651">
        <ele>128.8</ele>
        <time>2021-08-11T14:06:42Z</time>
      </trkpt>
      <trkpt lat="47.97693" lon="-3.80657">
        <ele>129</ele>
        <time>2021-08-11T14:06:43Z</time>
      </trkpt>
      <trkpt lat="47.9769" lon="-3.80662">
        <ele>129</ele>
        <time>2021-08-11T14:06:44Z</time>
      </trkpt>
      <trkpt lat="47.97687" lon="-3.80668">
        <ele>129</ele>
        <time>2021-08-11T14:06:45Z</time>
      </trkpt>
      <trkpt lat="47.97684" lon="-3.80673">
        <ele>129</ele>
        <time>2021-08-11T14:06:46Z</time>
      </trkpt>
      <trkpt lat="47.9768" lon="-3.80678">
        <ele>129</ele>
        <time>2021-08-11T14:06:47Z</time>
      </trkpt>
      <trkpt lat="47.97677" lon="-3.80683">
        <ele>129.2</ele>
        <time>2021-08-11T14:06:48Z</time>
      </trkpt>
      <trkpt lat="47.97674" lon="-3.80689">
        <ele>129.2</ele>
        <time>2021-08-11T14:06:49Z</time>
      </trkpt>
      <trkpt lat="47.97671" lon="-3.80694">
        <ele>129.2</ele>
        <time>2021-08-11T14:06:50Z</time>
      </trkpt>
      <trkpt lat="47.97669" lon="-3.80699">
        <ele>129.2</ele>
        <time>2021-08-11T14:06:51Z</time>
      </trkpt>
      <trkpt lat="47.97666" lon="-3.80704">
        <ele>129.4</ele>
        <time>2021-08-11T14:06:52Z</time>
      </trkpt>
      <trkpt lat="47.97663" lon="-3.80709">
        <ele>129.6</ele>
        <time>2021-08-11T14:06:53Z</time>
      </trkpt>
      <trkpt lat="47.9766" lon="-3.80714">
        <ele>129.8</ele>
        <time>2021-08-11T14:06:54Z</time>
      </trkpt>
      <trkpt lat="47.97657" lon="-3.80719">
        <ele>129.8</ele>
        <time>2021-08-11T14:06:55Z</time>
      </trkpt>
      <trkpt lat="47.97654" lon="-3.80724">
        <ele>130</ele>
        <time>2021-08-11T14:06:56Z</time>
      </trkpt>
      <trkpt lat="47.97651" lon="-3.80729">
        <ele>130</ele>
        <time>2021-08-11T14:06:57Z</time>
      </trkpt>
      <trkpt lat="47.97649" lon="-3.80733">
        <ele>130</ele>
        <time>2021-08-11T14:06:58Z</time>
      </trkpt>
      <trkpt lat="47.97646" lon="-3.80737">
        <ele>130</ele>
        <time>2021-08-11T14:06:59Z</time>
      </trkpt>
      <trkpt lat="47.97644" lon="-3.80741">
        <ele>130</ele>
        <time>2021-08-11T14:07:00Z</time>
      </trkpt>
      <trkpt lat="47.97643" lon="-3.80745">
        <ele>130.2</ele>
        <time>2021-08-11T14:07:01Z</time>
      </trkpt>
      <trkpt lat="47.97641" lon="-3.80749">
        <ele>130.2</ele>
        <time>2021-08-11T14:07:02Z</time>
      </trkpt>
      <trkpt lat="47.97639" lon="-3.80753">
        <ele>130.2</ele>
        <time>2021-08-11T14:07:03Z</time>
      </trkpt>
      <trkpt lat="47.97636" lon="-3.80758">
        <ele>130.4</ele>
        <time>2021-08-11T14:07:04Z</time>
      </trkpt>
      <trkpt lat="47.97633" lon="-3.80764">
        <ele>130.4</ele>
        <time>2021-08-11T14:07:05Z</time>
      </trkpt>
      <trkpt lat="47.9763" lon="-3.80769">
        <ele>130.2</ele>
        <time>2021-08-11T14:07:06Z</time>
      </trkpt>
      <trkpt lat="47.97627" lon="-3.80774">
        <ele>130.2</ele>
        <time>2021-08-11T14:07:07Z</time>
      </trkpt>
      <trkpt lat="47.97625" lon="-3.80778">
        <ele>130.2</ele>
        <time>2021-08-11T14:07:08Z</time>
      </trkpt>
      <trkpt lat="47.97622" lon="-3.80783">
        <ele>130.2</ele>
        <time>2021-08-11T14:07:09Z</time>
      </trkpt>
      <trkpt lat="47.97619" lon="-3.80788">
        <ele>130</ele>
        <time>2021-08-11T14:07:10Z</time>
      </trkpt>
      <trkpt lat="47.97617" lon="-3.80793">
        <ele>130</ele>
        <time>2021-08-11T14:07:11Z</time>
      </trkpt>
      <trkpt lat="47.97614" lon="-3.80798">
        <ele>130</ele>
        <time>2021-08-11T14:07:12Z</time>
      </trkpt>
      <trkpt lat="47.97611" lon="-3.80803">
        <ele>130</ele>
        <time>2021-08-11T14:07:13Z</time>
      </trkpt>
      <trkpt lat="47.97608" lon="-3.80809">
        <ele>130</ele>
        <time>2021-08-11T14:07:14Z</time>
      </trkpt>
      <trkpt lat="47.97604" lon="-3.80814">
        <ele>130</ele>
        <time>2021-08-11T14:07:15Z</time>
      </trkpt>
      <trkpt lat="47.97601" lon="-3.8082">
        <ele>130</ele>
        <time>2021-08-11T14:07:16Z</time>
      </trkpt>
      <trkpt lat="47.97598" lon="-3.80827">
        <ele>130.2</ele>
        <time>2021-08-11T14:07:17Z</time>
      </trkpt>
      <trkpt lat="47.97594" lon="-3.80833">
        <ele>130.2</ele>
        <time>2021-08-11T14:07:18Z</time>
      </trkpt>
      <trkpt lat="47.97591" lon="-3.80839">
        <ele>130</ele>
        <time>2021-08-11T14:07:19Z</time>
      </trkpt>
      <trkpt lat="47.97588" lon="-3.80845">
        <ele>130.2</ele>
        <time>2021-08-11T14:07:20Z</time>
      </trkpt>
      <trkpt lat="47.97584" lon="-3.80851">
        <ele>130</ele>
        <time>2021-08-11T14:07:21Z</time>
      </trkpt>
      <trkpt lat="47.97581" lon="-3.80858">
        <ele>130</ele>
        <time>2021-08-11T14:07:22Z</time>
      </trkpt>
      <trkpt lat="47.97578" lon="-3.80864">
        <ele>130</ele>
        <time>2021-08-11T14:07:23Z</time>
      </trkpt>
      <trkpt lat="47.97575" lon="-3.80871">
        <ele>130</ele>
        <time>2021-08-11T14:07:24Z</time>
      </trkpt>
      <trkpt lat="47.97571" lon="-3.80878">
        <ele>129.8</ele>
        <time>2021-08-11T14:07:25Z</time>
      </trkpt>
      <trkpt lat="47.97568" lon="-3.80884">
        <ele>129.8</ele>
        <time>2021-08-11T14:07:26Z</time>
      </trkpt>
      <trkpt lat="47.97565" lon="-3.8089">
        <ele>129.8</ele>
        <time>2021-08-11T14:07:27Z</time>
      </trkpt>
      <trkpt lat="47.97562" lon="-3.80897">
        <ele>129.8</ele>
        <time>2021-08-11T14:07:28Z</time>
      </trkpt>
      <trkpt lat="47.97559" lon="-3.80902">
        <ele>129.6</ele>
        <time>2021-08-11T14:07:29Z</time>
      </trkpt>
      <trkpt lat="47.97556" lon="-3.80908">
        <ele>129.6</ele>
        <time>2021-08-11T14:07:30Z</time>
      </trkpt>
      <trkpt lat="47.97553" lon="-3.80914">
        <ele>129.6</ele>
        <time>2021-08-11T14:07:31Z</time>
      </trkpt>
      <trkpt lat="47.9755" lon="-3.8092">
        <ele>129.6</ele>
        <time>2021-08-11T14:07:32Z</time>
      </trkpt>
      <trkpt lat="47.97546" lon="-3.80926">
        <ele>129.6</ele>
        <time>2021-08-11T14:07:33Z</time>
      </trkpt>
      <trkpt lat="47.97543" lon="-3.80932">
        <ele>129.6</ele>
        <time>2021-08-11T14:07:34Z</time>
      </trkpt>
      <trkpt lat="47.9754" lon="-3.80938">
        <ele>129.6</ele>
        <time>2021-08-11T14:07:35Z</time>
      </trkpt>
      <trkpt lat="47.97536" lon="-3.80945">
        <ele>129.6</ele>
        <time>2021-08-11T14:07:36Z</time>
      </trkpt>
      <trkpt lat="47.97533" lon="-3.80951">
        <ele>129.6</ele>
        <time>2021-08-11T14:07:37Z</time>
      </trkpt>
      <trkpt lat="47.9753" lon="-3.80957">
        <ele>129.6</ele>
        <time>2021-08-11T14:07:38Z</time>
      </trkpt>
      <trkpt lat="47.97527" lon="-3.80962">
        <ele>129.6</ele>
        <time>2021-08-11T14:07:39Z</time>
      </trkpt>
      <trkpt lat="47.97523" lon="-3.80968">
        <ele>129.6</ele>
        <time>2021-08-11T14:07:40Z</time>
      </trkpt>
      <trkpt lat="47.9752" lon="-3.80973">
        <ele>129.6</ele>
        <time>2021-08-11T14:07:41Z</time>
      </trkpt>
      <trkpt lat="47.97518" lon="-3.80979">
        <ele>129.6</ele>
        <time>2021-08-11T14:07:42Z</time>
      </trkpt>
      <trkpt lat="47.97515" lon="-3.80984">
        <ele>129.6</ele>
        <time>2021-08-11T14:07:43Z</time>
      </trkpt>
      <trkpt lat="47.97512" lon="-3.8099">
        <ele>129.6</ele>
        <time>2021-08-11T14:07:44Z</time>
      </trkpt>
      <trkpt lat="47.9751" lon="-3.80995">
        <ele>129.6</ele>
        <time>2021-08-11T14:07:45Z</time>
      </trkpt>
      <trkpt lat="47.97507" lon="-3.81">
        <ele>129.6</ele>
        <time>2021-08-11T14:07:46Z</time>
      </trkpt>
      <trkpt lat="47.97504" lon="-3.81006">
        <ele>129.6</ele>
        <time>2021-08-11T14:07:47Z</time>
      </trkpt>
      <trkpt lat="47.97502" lon="-3.81011">
        <ele>129.6</ele>
        <time>2021-08-11T14:07:48Z</time>
      </trkpt>
      <trkpt lat="47.97499" lon="-3.81017">
        <ele>129.6</ele>
        <time>2021-08-11T14:07:49Z</time>
      </trkpt>
      <trkpt lat="47.97496" lon="-3.81022">
        <ele>129.6</ele>
        <time>2021-08-11T14:07:50Z</time>
      </trkpt>
      <trkpt lat="47.97493" lon="-3.81027">
        <ele>129.6</ele>
        <time>2021-08-11T14:07:51Z</time>
      </trkpt>
      <trkpt lat="47.9749" lon="-3.81032">
        <ele>129.6</ele>
        <time>2021-08-11T14:07:52Z</time>
      </trkpt>
      <trkpt lat="47.97487" lon="-3.81037">
        <ele>129.6</ele>
        <time>2021-08-11T14:07:53Z</time>
      </trkpt>
      <trkpt lat="47.97484" lon="-3.81042">
        <ele>129.8</ele>
        <time>2021-08-11T14:07:54Z</time>
      </trkpt>
      <trkpt lat="47.97481" lon="-3.81048">
        <ele>129.8</ele>
        <time>2021-08-11T14:07:55Z</time>
      </trkpt>
      <trkpt lat="47.97478" lon="-3.81053">
        <ele>129.8</ele>
        <time>2021-08-11T14:07:56Z</time>
      </trkpt>
      <trkpt lat="47.97475" lon="-3.81058">
        <ele>129.8</ele>
        <time>2021-08-11T14:07:57Z</time>
      </trkpt>
      <trkpt lat="47.97472" lon="-3.81063">
        <ele>129.8</ele>
        <time>2021-08-11T14:07:58Z</time>
      </trkpt>
      <trkpt lat="47.97469" lon="-3.81069">
        <ele>129.8</ele>
        <time>2021-08-11T14:07:59Z</time>
      </trkpt>
      <trkpt lat="47.97466" lon="-3.81074">
        <ele>129.8</ele>
        <time>2021-08-11T14:08:00Z</time>
      </trkpt>
      <trkpt lat="47.97463" lon="-3.8108">
        <ele>129.8</ele>
        <time>2021-08-11T14:08:01Z</time>
      </trkpt>
      <trkpt lat="47.9746" lon="-3.81086">
        <ele>129.8</ele>
        <time>2021-08-11T14:08:02Z</time>
      </trkpt>
      <trkpt lat="47.97456" lon="-3.81092">
        <ele>129.8</ele>
        <time>2021-08-11T14:08:03Z</time>
      </trkpt>
      <trkpt lat="47.97453" lon="-3.81097">
        <ele>129.8</ele>
        <time>2021-08-11T14:08:04Z</time>
      </trkpt>
      <trkpt lat="47.9745" lon="-3.81103">
        <ele>129.4</ele>
        <time>2021-08-11T14:08:05Z</time>
      </trkpt>
      <trkpt lat="47.97447" lon="-3.81109">
        <ele>129.2</ele>
        <time>2021-08-11T14:08:06Z</time>
      </trkpt>
      <trkpt lat="47.97444" lon="-3.81114">
        <ele>129</ele>
        <time>2021-08-11T14:08:07Z</time>
      </trkpt>
      <trkpt lat="47.97441" lon="-3.8112">
        <ele>128.8</ele>
        <time>2021-08-11T14:08:08Z</time>
      </trkpt>
      <trkpt lat="47.97438" lon="-3.81126">
        <ele>128.8</ele>
        <time>2021-08-11T14:08:09Z</time>
      </trkpt>
      <trkpt lat="47.97435" lon="-3.81132">
        <ele>128.8</ele>
        <time>2021-08-11T14:08:10Z</time>
      </trkpt>
      <trkpt lat="47.97432" lon="-3.81137">
        <ele>128.6</ele>
        <time>2021-08-11T14:08:11Z</time>
      </trkpt>
      <trkpt lat="47.97429" lon="-3.81143">
        <ele>128.6</ele>
        <time>2021-08-11T14:08:12Z</time>
      </trkpt>
      <trkpt lat="47.97426" lon="-3.81148">
        <ele>128.6</ele>
        <time>2021-08-11T14:08:13Z</time>
      </trkpt>
      <trkpt lat="47.97423" lon="-3.81154">
        <ele>128.6</ele>
        <time>2021-08-11T14:08:14Z</time>
      </trkpt>
      <trkpt lat="47.9742" lon="-3.81159">
        <ele>128.6</ele>
        <time>2021-08-11T14:08:15Z</time>
      </trkpt>
      <trkpt lat="47.97417" lon="-3.81164">
        <ele>128.6</ele>
        <time>2021-08-11T14:08:16Z</time>
      </trkpt>
      <trkpt lat="47.97414" lon="-3.8117">
        <ele>128.6</ele>
        <time>2021-08-11T14:08:17Z</time>
      </trkpt>
      <trkpt lat="47.97412" lon="-3.81175">
        <ele>128.6</ele>
        <time>2021-08-11T14:08:18Z</time>
      </trkpt>
      <trkpt lat="47.97409" lon="-3.8118">
        <ele>128.6</ele>
        <time>2021-08-11T14:08:19Z</time>
      </trkpt>
      <trkpt lat="47.97406" lon="-3.81185">
        <ele>128.6</ele>
        <time>2021-08-11T14:08:20Z</time>
      </trkpt>
      <trkpt lat="47.97404" lon="-3.81191">
        <ele>128.6</ele>
        <time>2021-08-11T14:08:21Z</time>
      </trkpt>
      <trkpt lat="47.97401" lon="-3.81196">
        <ele>128.6</ele>
        <time>2021-08-11T14:08:22Z</time>
      </trkpt>
      <trkpt lat="47.97398" lon="-3.81201">
        <ele>128.6</ele>
        <time>2021-08-11T14:08:23Z</time>
      </trkpt>
      <trkpt lat="47.97395" lon="-3.81207">
        <ele>128.6</ele>
        <time>2021-08-11T14:08:24Z</time>
      </trkpt>
      <trkpt lat="47.97392" lon="-3.81212">
        <ele>128.6</ele>
        <time>2021-08-11T14:08:25Z</time>
      </trkpt>
      <trkpt lat="47.9739" lon="-3.81218">
        <ele>128.8</ele>
        <time>2021-08-11T14:08:26Z</time>
      </trkpt>
      <trkpt lat="47.97387" lon="-3.81223">
        <ele>128.8</ele>
        <time>2021-08-11T14:08:27Z</time>
      </trkpt>
      <trkpt lat="47.97384" lon="-3.81228">
        <ele>129</ele>
        <time>2021-08-11T14:08:28Z</time>
      </trkpt>
      <trkpt lat="47.97382" lon="-3.81233">
        <ele>129.2</ele>
        <time>2021-08-11T14:08:29Z</time>
      </trkpt>
      <trkpt lat="47.97379" lon="-3.81239">
        <ele>129.2</ele>
        <time>2021-08-11T14:08:30Z</time>
      </trkpt>
      <trkpt lat="47.97376" lon="-3.81244">
        <ele>129.2</ele>
        <time>2021-08-11T14:08:31Z</time>
      </trkpt>
      <trkpt lat="47.97373" lon="-3.81249">
        <ele>129.2</ele>
        <time>2021-08-11T14:08:32Z</time>
      </trkpt>
      <trkpt lat="47.97371" lon="-3.81254">
        <ele>129.2</ele>
        <time>2021-08-11T14:08:33Z</time>
      </trkpt>
      <trkpt lat="47.97368" lon="-3.81259">
        <ele>129.2</ele>
        <time>2021-08-11T14:08:34Z</time>
      </trkpt>
      <trkpt lat="47.97366" lon="-3.81264">
        <ele>129.2</ele>
        <time>2021-08-11T14:08:35Z</time>
      </trkpt>
      <trkpt lat="47.97363" lon="-3.81269">
        <ele>129.2</ele>
        <time>2021-08-11T14:08:36Z</time>
      </trkpt>
      <trkpt lat="47.97361" lon="-3.81274">
        <ele>129.2</ele>
        <time>2021-08-11T14:08:37Z</time>
      </trkpt>
      <trkpt lat="47.97358" lon="-3.81278">
        <ele>129.2</ele>
        <time>2021-08-11T14:08:38Z</time>
      </trkpt>
      <trkpt lat="47.97355" lon="-3.81283">
        <ele>129.2</ele>
        <time>2021-08-11T14:08:39Z</time>
      </trkpt>
      <trkpt lat="47.97352" lon="-3.81288">
        <ele>129.2</ele>
        <time>2021-08-11T14:08:40Z</time>
      </trkpt>
      <trkpt lat="47.9735" lon="-3.81293">
        <ele>129.2</ele>
        <time>2021-08-11T14:08:41Z</time>
      </trkpt>
      <trkpt lat="47.97347" lon="-3.81298">
        <ele>129.2</ele>
        <time>2021-08-11T14:08:42Z</time>
      </trkpt>
      <trkpt lat="47.97344" lon="-3.81304">
        <ele>129.2</ele>
        <time>2021-08-11T14:08:43Z</time>
      </trkpt>
      <trkpt lat="47.97341" lon="-3.81309">
        <ele>129.2</ele>
        <time>2021-08-11T14:08:44Z</time>
      </trkpt>
      <trkpt lat="47.97339" lon="-3.81315">
        <ele>129.2</ele>
        <time>2021-08-11T14:08:45Z</time>
      </trkpt>
      <trkpt lat="47.97336" lon="-3.8132">
        <ele>129.2</ele>
        <time>2021-08-11T14:08:46Z</time>
      </trkpt>
      <trkpt lat="47.97334" lon="-3.81324">
        <ele>129.2</ele>
        <time>2021-08-11T14:08:47Z</time>
      </trkpt>
      <trkpt lat="47.97332" lon="-3.81328">
        <ele>129.2</ele>
        <time>2021-08-11T14:08:48Z</time>
      </trkpt>
      <trkpt lat="47.9733" lon="-3.8133">
        <ele>129.2</ele>
        <time>2021-08-11T14:08:49Z</time>
      </trkpt>
      <trkpt lat="47.97328" lon="-3.81333">
        <ele>129.2</ele>
        <time>2021-08-11T14:08:50Z</time>
      </trkpt>
      <trkpt lat="47.97327" lon="-3.81337">
        <ele>129.2</ele>
        <time>2021-08-11T14:08:51Z</time>
      </trkpt>
      <trkpt lat="47.97325" lon="-3.81341">
        <ele>129.2</ele>
        <time>2021-08-11T14:08:52Z</time>
      </trkpt>
      <trkpt lat="47.97323" lon="-3.81345">
        <ele>129.4</ele>
        <time>2021-08-11T14:08:53Z</time>
      </trkpt>
      <trkpt lat="47.9732" lon="-3.81349">
        <ele>129.4</ele>
        <time>2021-08-11T14:08:54Z</time>
      </trkpt>
      <trkpt lat="47.97317" lon="-3.81354">
        <ele>129.4</ele>
        <time>2021-08-11T14:08:55Z</time>
      </trkpt>
      <trkpt lat="47.97314" lon="-3.81359">
        <ele>129.4</ele>
        <time>2021-08-11T14:08:56Z</time>
      </trkpt>
      <trkpt lat="47.97311" lon="-3.81364">
        <ele>129.4</ele>
        <time>2021-08-11T14:08:57Z</time>
      </trkpt>
      <trkpt lat="47.97309" lon="-3.81369">
        <ele>129.4</ele>
        <time>2021-08-11T14:08:58Z</time>
      </trkpt>
      <trkpt lat="47.97307" lon="-3.81374">
        <ele>129.4</ele>
        <time>2021-08-11T14:08:59Z</time>
      </trkpt>
      <trkpt lat="47.97304" lon="-3.8138">
        <ele>129.4</ele>
        <time>2021-08-11T14:09:00Z</time>
      </trkpt>
      <trkpt lat="47.97301" lon="-3.81385">
        <ele>129.4</ele>
        <time>2021-08-11T14:09:01Z</time>
      </trkpt>
      <trkpt lat="47.97298" lon="-3.81391">
        <ele>129.4</ele>
        <time>2021-08-11T14:09:02Z</time>
      </trkpt>
      <trkpt lat="47.97295" lon="-3.81395">
        <ele>129.4</ele>
        <time>2021-08-11T14:09:03Z</time>
      </trkpt>
      <trkpt lat="47.97292" lon="-3.814">
        <ele>129.6</ele>
        <time>2021-08-11T14:09:04Z</time>
      </trkpt>
      <trkpt lat="47.97289" lon="-3.81404">
        <ele>129.6</ele>
        <time>2021-08-11T14:09:05Z</time>
      </trkpt>
      <trkpt lat="47.97287" lon="-3.81408">
        <ele>129.6</ele>
        <time>2021-08-11T14:09:06Z</time>
      </trkpt>
      <trkpt lat="47.97284" lon="-3.81413">
        <ele>129.6</ele>
        <time>2021-08-11T14:09:07Z</time>
      </trkpt>
      <trkpt lat="47.97281" lon="-3.81417">
        <ele>129.6</ele>
        <time>2021-08-11T14:09:08Z</time>
      </trkpt>
      <trkpt lat="47.97278" lon="-3.81422">
        <ele>129.8</ele>
        <time>2021-08-11T14:09:09Z</time>
      </trkpt>
      <trkpt lat="47.97275" lon="-3.81427">
        <ele>129.8</ele>
        <time>2021-08-11T14:09:10Z</time>
      </trkpt>
      <trkpt lat="47.97273" lon="-3.81432">
        <ele>130</ele>
        <time>2021-08-11T14:09:11Z</time>
      </trkpt>
      <trkpt lat="47.9727" lon="-3.81437">
        <ele>130</ele>
        <time>2021-08-11T14:09:12Z</time>
      </trkpt>
      <trkpt lat="47.97268" lon="-3.81441">
        <ele>130</ele>
        <time>2021-08-11T14:09:13Z</time>
      </trkpt>
      <trkpt lat="47.97266" lon="-3.81446">
        <ele>130</ele>
        <time>2021-08-11T14:09:14Z</time>
      </trkpt>
      <trkpt lat="47.97263" lon="-3.81451">
        <ele>130.2</ele>
        <time>2021-08-11T14:09:15Z</time>
      </trkpt>
      <trkpt lat="47.9726" lon="-3.81456">
        <ele>130.2</ele>
        <time>2021-08-11T14:09:16Z</time>
      </trkpt>
      <trkpt lat="47.97257" lon="-3.81461">
        <ele>130.2</ele>
        <time>2021-08-11T14:09:17Z</time>
      </trkpt>
      <trkpt lat="47.97254" lon="-3.81468">
        <ele>130</ele>
        <time>2021-08-11T14:09:18Z</time>
      </trkpt>
      <trkpt lat="47.9725" lon="-3.81474">
        <ele>130</ele>
        <time>2021-08-11T14:09:19Z</time>
      </trkpt>
      <trkpt lat="47.97247" lon="-3.8148">
        <ele>130</ele>
        <time>2021-08-11T14:09:20Z</time>
      </trkpt>
      <trkpt lat="47.97244" lon="-3.81486">
        <ele>130</ele>
        <time>2021-08-11T14:09:21Z</time>
      </trkpt>
      <trkpt lat="47.97241" lon="-3.81493">
        <ele>129.8</ele>
        <time>2021-08-11T14:09:22Z</time>
      </trkpt>
      <trkpt lat="47.97237" lon="-3.81499">
        <ele>129.8</ele>
        <time>2021-08-11T14:09:23Z</time>
      </trkpt>
      <trkpt lat="47.97234" lon="-3.81505">
        <ele>129.8</ele>
        <time>2021-08-11T14:09:24Z</time>
      </trkpt>
      <trkpt lat="47.97231" lon="-3.81512">
        <ele>129.6</ele>
        <time>2021-08-11T14:09:25Z</time>
      </trkpt>
      <trkpt lat="47.97228" lon="-3.81517">
        <ele>129.4</ele>
        <time>2021-08-11T14:09:26Z</time>
      </trkpt>
      <trkpt lat="47.97225" lon="-3.81523">
        <ele>129.2</ele>
        <time>2021-08-11T14:09:27Z</time>
      </trkpt>
      <trkpt lat="47.97222" lon="-3.81528">
        <ele>129.2</ele>
        <time>2021-08-11T14:09:28Z</time>
      </trkpt>
      <trkpt lat="47.9722" lon="-3.81533">
        <ele>129</ele>
        <time>2021-08-11T14:09:29Z</time>
      </trkpt>
      <trkpt lat="47.97217" lon="-3.81539">
        <ele>129</ele>
        <time>2021-08-11T14:09:30Z</time>
      </trkpt>
      <trkpt lat="47.97214" lon="-3.81545">
        <ele>129</ele>
        <time>2021-08-11T14:09:31Z</time>
      </trkpt>
      <trkpt lat="47.97212" lon="-3.81551">
        <ele>129</ele>
        <time>2021-08-11T14:09:32Z</time>
      </trkpt>
      <trkpt lat="47.97209" lon="-3.81556">
        <ele>129</ele>
        <time>2021-08-11T14:09:33Z</time>
      </trkpt>
      <trkpt lat="47.97206" lon="-3.81561">
        <ele>129</ele>
        <time>2021-08-11T14:09:34Z</time>
      </trkpt>
      <trkpt lat="47.97203" lon="-3.81567">
        <ele>129</ele>
        <time>2021-08-11T14:09:35Z</time>
      </trkpt>
      <trkpt lat="47.972" lon="-3.81573">
        <ele>128.8</ele>
        <time>2021-08-11T14:09:36Z</time>
      </trkpt>
      <trkpt lat="47.97197" lon="-3.81578">
        <ele>128.8</ele>
        <time>2021-08-11T14:09:37Z</time>
      </trkpt>
      <trkpt lat="47.97194" lon="-3.81584">
        <ele>128.8</ele>
        <time>2021-08-11T14:09:38Z</time>
      </trkpt>
      <trkpt lat="47.97191" lon="-3.81589">
        <ele>128.8</ele>
        <time>2021-08-11T14:09:39Z</time>
      </trkpt>
      <trkpt lat="47.97188" lon="-3.81595">
        <ele>129</ele>
        <time>2021-08-11T14:09:40Z</time>
      </trkpt>
      <trkpt lat="47.97186" lon="-3.816">
        <ele>129</ele>
        <time>2021-08-11T14:09:41Z</time>
      </trkpt>
      <trkpt lat="47.97184" lon="-3.81605">
        <ele>129</ele>
        <time>2021-08-11T14:09:42Z</time>
      </trkpt>
      <trkpt lat="47.97182" lon="-3.81609">
        <ele>129</ele>
        <time>2021-08-11T14:09:43Z</time>
      </trkpt>
      <trkpt lat="47.97179" lon="-3.81614">
        <ele>129</ele>
        <time>2021-08-11T14:09:44Z</time>
      </trkpt>
      <trkpt lat="47.97177" lon="-3.81618">
        <ele>129</ele>
        <time>2021-08-11T14:09:45Z</time>
      </trkpt>
      <trkpt lat="47.97175" lon="-3.81623">
        <ele>129</ele>
        <time>2021-08-11T14:09:46Z</time>
      </trkpt>
      <trkpt lat="47.97173" lon="-3.81628">
        <ele>129</ele>
        <time>2021-08-11T14:09:47Z</time>
      </trkpt>
      <trkpt lat="47.9717" lon="-3.81633">
        <ele>129</ele>
        <time>2021-08-11T14:09:48Z</time>
      </trkpt>
      <trkpt lat="47.97167" lon="-3.81638">
        <ele>129</ele>
        <time>2021-08-11T14:09:49Z</time>
      </trkpt>
      <trkpt lat="47.97165" lon="-3.81643">
        <ele>129</ele>
        <time>2021-08-11T14:09:50Z</time>
      </trkpt>
      <trkpt lat="47.97162" lon="-3.81648">
        <ele>129</ele>
        <time>2021-08-11T14:09:51Z</time>
      </trkpt>
      <trkpt lat="47.97159" lon="-3.81653">
        <ele>128.8</ele>
        <time>2021-08-11T14:09:52Z</time>
      </trkpt>
      <trkpt lat="47.97156" lon="-3.81659">
        <ele>128.8</ele>
        <time>2021-08-11T14:09:53Z</time>
      </trkpt>
      <trkpt lat="47.97153" lon="-3.81665">
        <ele>128.8</ele>
        <time>2021-08-11T14:09:54Z</time>
      </trkpt>
      <trkpt lat="47.9715" lon="-3.81671">
        <ele>128.8</ele>
        <time>2021-08-11T14:09:55Z</time>
      </trkpt>
      <trkpt lat="47.97146" lon="-3.81677">
        <ele>128.8</ele>
        <time>2021-08-11T14:09:56Z</time>
      </trkpt>
      <trkpt lat="47.97143" lon="-3.81683">
        <ele>128.8</ele>
        <time>2021-08-11T14:09:57Z</time>
      </trkpt>
      <trkpt lat="47.97139" lon="-3.8169">
        <ele>128.8</ele>
        <time>2021-08-11T14:09:58Z</time>
      </trkpt>
      <trkpt lat="47.97136" lon="-3.81696">
        <ele>128.8</ele>
        <time>2021-08-11T14:09:59Z</time>
      </trkpt>
      <trkpt lat="47.97132" lon="-3.81703">
        <ele>128.6</ele>
        <time>2021-08-11T14:10:00Z</time>
      </trkpt>
      <trkpt lat="47.97129" lon="-3.81709">
        <ele>128.4</ele>
        <time>2021-08-11T14:10:01Z</time>
      </trkpt>
      <trkpt lat="47.97126" lon="-3.81715">
        <ele>128.4</ele>
        <time>2021-08-11T14:10:02Z</time>
      </trkpt>
      <trkpt lat="47.97123" lon="-3.81721">
        <ele>128.4</ele>
        <time>2021-08-11T14:10:03Z</time>
      </trkpt>
      <trkpt lat="47.9712" lon="-3.81727">
        <ele>128.4</ele>
        <time>2021-08-11T14:10:04Z</time>
      </trkpt>
      <trkpt lat="47.97117" lon="-3.81732">
        <ele>128.4</ele>
        <time>2021-08-11T14:10:05Z</time>
      </trkpt>
      <trkpt lat="47.97114" lon="-3.81738">
        <ele>128.2</ele>
        <time>2021-08-11T14:10:06Z</time>
      </trkpt>
      <trkpt lat="47.97111" lon="-3.81743">
        <ele>128.2</ele>
        <time>2021-08-11T14:10:07Z</time>
      </trkpt>
      <trkpt lat="47.97108" lon="-3.81748">
        <ele>128.2</ele>
        <time>2021-08-11T14:10:08Z</time>
      </trkpt>
      <trkpt lat="47.97105" lon="-3.81753">
        <ele>128.2</ele>
        <time>2021-08-11T14:10:09Z</time>
      </trkpt>
      <trkpt lat="47.97101" lon="-3.81758">
        <ele>128.2</ele>
        <time>2021-08-11T14:10:10Z</time>
      </trkpt>
      <trkpt lat="47.97098" lon="-3.81762">
        <ele>128.2</ele>
        <time>2021-08-11T14:10:11Z</time>
      </trkpt>
      <trkpt lat="47.97094" lon="-3.81767">
        <ele>128.2</ele>
        <time>2021-08-11T14:10:12Z</time>
      </trkpt>
      <trkpt lat="47.9709" lon="-3.81772">
        <ele>128</ele>
        <time>2021-08-11T14:10:13Z</time>
      </trkpt>
      <trkpt lat="47.97086" lon="-3.81778">
        <ele>128</ele>
        <time>2021-08-11T14:10:14Z</time>
      </trkpt>
      <trkpt lat="47.97082" lon="-3.81783">
        <ele>128</ele>
        <time>2021-08-11T14:10:15Z</time>
      </trkpt>
      <trkpt lat="47.97078" lon="-3.81788">
        <ele>128</ele>
        <time>2021-08-11T14:10:16Z</time>
      </trkpt>
      <trkpt lat="47.97074" lon="-3.81794">
        <ele>128</ele>
        <time>2021-08-11T14:10:17Z</time>
      </trkpt>
      <trkpt lat="47.9707" lon="-3.81799">
        <ele>128</ele>
        <time>2021-08-11T14:10:18Z</time>
      </trkpt>
      <trkpt lat="47.97065" lon="-3.81804">
        <ele>128</ele>
        <time>2021-08-11T14:10:19Z</time>
      </trkpt>
      <trkpt lat="47.97061" lon="-3.81809">
        <ele>127.8</ele>
        <time>2021-08-11T14:10:20Z</time>
      </trkpt>
      <trkpt lat="47.97056" lon="-3.81814">
        <ele>127.8</ele>
        <time>2021-08-11T14:10:21Z</time>
      </trkpt>
      <trkpt lat="47.97052" lon="-3.81818">
        <ele>127.8</ele>
        <time>2021-08-11T14:10:22Z</time>
      </trkpt>
      <trkpt lat="47.97047" lon="-3.81822">
        <ele>127.6</ele>
        <time>2021-08-11T14:10:23Z</time>
      </trkpt>
      <trkpt lat="47.97043" lon="-3.81827">
        <ele>127.6</ele>
        <time>2021-08-11T14:10:24Z</time>
      </trkpt>
      <trkpt lat="47.97038" lon="-3.81832">
        <ele>127.6</ele>
        <time>2021-08-11T14:10:25Z</time>
      </trkpt>
      <trkpt lat="47.97034" lon="-3.81837">
        <ele>127.6</ele>
        <time>2021-08-11T14:10:26Z</time>
      </trkpt>
      <trkpt lat="47.97029" lon="-3.81842">
        <ele>127.6</ele>
        <time>2021-08-11T14:10:27Z</time>
      </trkpt>
      <trkpt lat="47.97024" lon="-3.81847">
        <ele>127.4</ele>
        <time>2021-08-11T14:10:28Z</time>
      </trkpt>
      <trkpt lat="47.9702" lon="-3.81852">
        <ele>127.4</ele>
        <time>2021-08-11T14:10:29Z</time>
      </trkpt>
      <trkpt lat="47.97015" lon="-3.81857">
        <ele>127.4</ele>
        <time>2021-08-11T14:10:30Z</time>
      </trkpt>
      <trkpt lat="47.9701" lon="-3.81861">
        <ele>127.4</ele>
        <time>2021-08-11T14:10:31Z</time>
      </trkpt>
      <trkpt lat="47.97006" lon="-3.81866">
        <ele>127.4</ele>
        <time>2021-08-11T14:10:32Z</time>
      </trkpt>
      <trkpt lat="47.97001" lon="-3.81871">
        <ele>127.4</ele>
        <time>2021-08-11T14:10:33Z</time>
      </trkpt>
      <trkpt lat="47.96995" lon="-3.81876">
        <ele>127.4</ele>
        <time>2021-08-11T14:10:34Z</time>
      </trkpt>
      <trkpt lat="47.96991" lon="-3.8188">
        <ele>127.4</ele>
        <time>2021-08-11T14:10:35Z</time>
      </trkpt>
      <trkpt lat="47.96987" lon="-3.81884">
        <ele>127.4</ele>
        <time>2021-08-11T14:10:36Z</time>
      </trkpt>
      <trkpt lat="47.96983" lon="-3.81889">
        <ele>127.4</ele>
        <time>2021-08-11T14:10:37Z</time>
      </trkpt>
      <trkpt lat="47.96979" lon="-3.81893">
        <ele>127.4</ele>
        <time>2021-08-11T14:10:38Z</time>
      </trkpt>
      <trkpt lat="47.96975" lon="-3.81898">
        <ele>127.4</ele>
        <time>2021-08-11T14:10:39Z</time>
      </trkpt>
      <trkpt lat="47.9697" lon="-3.81902">
        <ele>127.4</ele>
        <time>2021-08-11T14:10:40Z</time>
      </trkpt>
      <trkpt lat="47.96966" lon="-3.81906">
        <ele>127.4</ele>
        <time>2021-08-11T14:10:41Z</time>
      </trkpt>
      <trkpt lat="47.96962" lon="-3.8191">
        <ele>127.4</ele>
        <time>2021-08-11T14:10:42Z</time>
      </trkpt>
      <trkpt lat="47.96958" lon="-3.81913">
        <ele>127.4</ele>
        <time>2021-08-11T14:10:43Z</time>
      </trkpt>
      <trkpt lat="47.96954" lon="-3.81916">
        <ele>127.4</ele>
        <time>2021-08-11T14:10:44Z</time>
      </trkpt>
      <trkpt lat="47.96951" lon="-3.8192">
        <ele>127.4</ele>
        <time>2021-08-11T14:10:45Z</time>
      </trkpt>
      <trkpt lat="47.96948" lon="-3.81923">
        <ele>127.4</ele>
        <time>2021-08-11T14:10:46Z</time>
      </trkpt>
      <trkpt lat="47.96945" lon="-3.81927">
        <ele>127.4</ele>
        <time>2021-08-11T14:10:47Z</time>
      </trkpt>
      <trkpt lat="47.96942" lon="-3.8193">
        <ele>127.6</ele>
        <time>2021-08-11T14:10:48Z</time>
      </trkpt>
      <trkpt lat="47.9694" lon="-3.81932">
        <ele>127.6</ele>
        <time>2021-08-11T14:10:49Z</time>
      </trkpt>
      <trkpt lat="47.96937" lon="-3.81933">
        <ele>127.6</ele>
        <time>2021-08-11T14:10:50Z</time>
      </trkpt>
      <trkpt lat="47.96935" lon="-3.81934">
        <ele>127.6</ele>
        <time>2021-08-11T14:10:51Z</time>
      </trkpt>
      <trkpt lat="47.96933" lon="-3.81936">
        <ele>127.8</ele>
        <time>2021-08-11T14:10:52Z</time>
      </trkpt>
      <trkpt lat="47.96932" lon="-3.81937">
        <ele>127.6</ele>
        <time>2021-08-11T14:10:53Z</time>
      </trkpt>
      <trkpt lat="47.9693" lon="-3.81939">
        <ele>127.6</ele>
        <time>2021-08-11T14:10:54Z</time>
      </trkpt>
      <trkpt lat="47.96929" lon="-3.81941">
        <ele>127.6</ele>
        <time>2021-08-11T14:10:55Z</time>
      </trkpt>
      <trkpt lat="47.96927" lon="-3.81943">
        <ele>127.6</ele>
        <time>2021-08-11T14:10:56Z</time>
      </trkpt>
      <trkpt lat="47.96925" lon="-3.81944">
        <ele>127.6</ele>
        <time>2021-08-11T14:10:57Z</time>
      </trkpt>
      <trkpt lat="47.96923" lon="-3.81946">
        <ele>127.4</ele>
        <time>2021-08-11T14:10:58Z</time>
      </trkpt>
      <trkpt lat="47.96922" lon="-3.81949">
        <ele>127.4</ele>
        <time>2021-08-11T14:10:59Z</time>
      </trkpt>
      <trkpt lat="47.9692" lon="-3.81951">
        <ele>127.4</ele>
        <time>2021-08-11T14:11:00Z</time>
      </trkpt>
      <trkpt lat="47.96917" lon="-3.81954">
        <ele>127.4</ele>
        <time>2021-08-11T14:11:01Z</time>
      </trkpt>
      <trkpt lat="47.96914" lon="-3.81958">
        <ele>127.4</ele>
        <time>2021-08-11T14:11:02Z</time>
      </trkpt>
      <trkpt lat="47.96911" lon="-3.81962">
        <ele>127.4</ele>
        <time>2021-08-11T14:11:03Z</time>
      </trkpt>
      <trkpt lat="47.96908" lon="-3.81966">
        <ele>127.4</ele>
        <time>2021-08-11T14:11:04Z</time>
      </trkpt>
      <trkpt lat="47.96903" lon="-3.8197">
        <ele>127.4</ele>
        <time>2021-08-11T14:11:05Z</time>
      </trkpt>
      <trkpt lat="47.969" lon="-3.81974">
        <ele>127.2</ele>
        <time>2021-08-11T14:11:06Z</time>
      </trkpt>
      <trkpt lat="47.96895" lon="-3.81978">
        <ele>127</ele>
        <time>2021-08-11T14:11:07Z</time>
      </trkpt>
      <trkpt lat="47.96891" lon="-3.81982">
        <ele>127</ele>
        <time>2021-08-11T14:11:08Z</time>
      </trkpt>
      <trkpt lat="47.96887" lon="-3.81986">
        <ele>126.6</ele>
        <time>2021-08-11T14:11:09Z</time>
      </trkpt>
      <trkpt lat="47.96884" lon="-3.8199">
        <ele>126.4</ele>
        <time>2021-08-11T14:11:10Z</time>
      </trkpt>
      <trkpt lat="47.9688" lon="-3.81994">
        <ele>126.2</ele>
        <time>2021-08-11T14:11:11Z</time>
      </trkpt>
      <trkpt lat="47.96877" lon="-3.81998">
        <ele>126</ele>
        <time>2021-08-11T14:11:12Z</time>
      </trkpt>
      <trkpt lat="47.96873" lon="-3.82002">
        <ele>126</ele>
        <time>2021-08-11T14:11:13Z</time>
      </trkpt>
      <trkpt lat="47.9687" lon="-3.82005">
        <ele>125.8</ele>
        <time>2021-08-11T14:11:14Z</time>
      </trkpt>
      <trkpt lat="47.96865" lon="-3.82009">
        <ele>125.8</ele>
        <time>2021-08-11T14:11:15Z</time>
      </trkpt>
      <trkpt lat="47.96861" lon="-3.82013">
        <ele>125.6</ele>
        <time>2021-08-11T14:11:16Z</time>
      </trkpt>
      <trkpt lat="47.96857" lon="-3.82017">
        <ele>125.6</ele>
        <time>2021-08-11T14:11:17Z</time>
      </trkpt>
      <trkpt lat="47.96854" lon="-3.82021">
        <ele>125.4</ele>
        <time>2021-08-11T14:11:18Z</time>
      </trkpt>
      <trkpt lat="47.9685" lon="-3.82024">
        <ele>125.4</ele>
        <time>2021-08-11T14:11:19Z</time>
      </trkpt>
      <trkpt lat="47.96846" lon="-3.82028">
        <ele>125.2</ele>
        <time>2021-08-11T14:11:20Z</time>
      </trkpt>
      <trkpt lat="47.96842" lon="-3.82031">
        <ele>125.2</ele>
        <time>2021-08-11T14:11:21Z</time>
      </trkpt>
      <trkpt lat="47.96838" lon="-3.82036">
        <ele>125.2</ele>
        <time>2021-08-11T14:11:22Z</time>
      </trkpt>
      <trkpt lat="47.96835" lon="-3.8204">
        <ele>125</ele>
        <time>2021-08-11T14:11:23Z</time>
      </trkpt>
      <trkpt lat="47.9683" lon="-3.82044">
        <ele>125</ele>
        <time>2021-08-11T14:11:24Z</time>
      </trkpt>
      <trkpt lat="47.96826" lon="-3.82049">
        <ele>124.8</ele>
        <time>2021-08-11T14:11:25Z</time>
      </trkpt>
      <trkpt lat="47.96822" lon="-3.82053">
        <ele>124.8</ele>
        <time>2021-08-11T14:11:26Z</time>
      </trkpt>
      <trkpt lat="47.96818" lon="-3.82057">
        <ele>124.6</ele>
        <time>2021-08-11T14:11:27Z</time>
      </trkpt>
      <trkpt lat="47.96815" lon="-3.82062">
        <ele>124.6</ele>
        <time>2021-08-11T14:11:28Z</time>
      </trkpt>
      <trkpt lat="47.96811" lon="-3.82066">
        <ele>124.4</ele>
        <time>2021-08-11T14:11:29Z</time>
      </trkpt>
      <trkpt lat="47.96806" lon="-3.8207">
        <ele>124.4</ele>
        <time>2021-08-11T14:11:30Z</time>
      </trkpt>
      <trkpt lat="47.96802" lon="-3.82075">
        <ele>124.4</ele>
        <time>2021-08-11T14:11:31Z</time>
      </trkpt>
      <trkpt lat="47.96798" lon="-3.82079">
        <ele>124.2</ele>
        <time>2021-08-11T14:11:32Z</time>
      </trkpt>
      <trkpt lat="47.96794" lon="-3.82084">
        <ele>124.2</ele>
        <time>2021-08-11T14:11:33Z</time>
      </trkpt>
      <trkpt lat="47.96789" lon="-3.82089">
        <ele>124.2</ele>
        <time>2021-08-11T14:11:34Z</time>
      </trkpt>
      <trkpt lat="47.96784" lon="-3.82095">
        <ele>124</ele>
        <time>2021-08-11T14:11:35Z</time>
      </trkpt>
      <trkpt lat="47.9678" lon="-3.821">
        <ele>123.8</ele>
        <time>2021-08-11T14:11:36Z</time>
      </trkpt>
      <trkpt lat="47.96775" lon="-3.82105">
        <ele>123.8</ele>
        <time>2021-08-11T14:11:37Z</time>
      </trkpt>
      <trkpt lat="47.96771" lon="-3.8211">
        <ele>123.6</ele>
        <time>2021-08-11T14:11:38Z</time>
      </trkpt>
      <trkpt lat="47.96767" lon="-3.82115">
        <ele>123.6</ele>
        <time>2021-08-11T14:11:39Z</time>
      </trkpt>
      <trkpt lat="47.96761" lon="-3.8212">
        <ele>123.4</ele>
        <time>2021-08-11T14:11:40Z</time>
      </trkpt>
      <trkpt lat="47.96756" lon="-3.82125">
        <ele>123.4</ele>
        <time>2021-08-11T14:11:41Z</time>
      </trkpt>
      <trkpt lat="47.96751" lon="-3.82129">
        <ele>123</ele>
        <time>2021-08-11T14:11:42Z</time>
      </trkpt>
      <trkpt lat="47.96744" lon="-3.82135">
        <ele>122.8</ele>
        <time>2021-08-11T14:11:43Z</time>
      </trkpt>
      <trkpt lat="47.96738" lon="-3.82141">
        <ele>122.6</ele>
        <time>2021-08-11T14:11:44Z</time>
      </trkpt>
      <trkpt lat="47.96732" lon="-3.82147">
        <ele>122.2</ele>
        <time>2021-08-11T14:11:45Z</time>
      </trkpt>
      <trkpt lat="47.96726" lon="-3.82153">
        <ele>122.2</ele>
        <time>2021-08-11T14:11:46Z</time>
      </trkpt>
      <trkpt lat="47.9672" lon="-3.82159">
        <ele>122</ele>
        <time>2021-08-11T14:11:47Z</time>
      </trkpt>
      <trkpt lat="47.96714" lon="-3.82165">
        <ele>121.8</ele>
        <time>2021-08-11T14:11:48Z</time>
      </trkpt>
      <trkpt lat="47.96708" lon="-3.82171">
        <ele>121.6</ele>
        <time>2021-08-11T14:11:49Z</time>
      </trkpt>
      <trkpt lat="47.96702" lon="-3.82177">
        <ele>121.4</ele>
        <time>2021-08-11T14:11:50Z</time>
      </trkpt>
      <trkpt lat="47.96696" lon="-3.82183">
        <ele>121</ele>
        <time>2021-08-11T14:11:51Z</time>
      </trkpt>
      <trkpt lat="47.9669" lon="-3.82189">
        <ele>120.8</ele>
        <time>2021-08-11T14:11:52Z</time>
      </trkpt>
      <trkpt lat="47.96685" lon="-3.82194">
        <ele>120.6</ele>
        <time>2021-08-11T14:11:53Z</time>
      </trkpt>
      <trkpt lat="47.96678" lon="-3.822">
        <ele>120.4</ele>
        <time>2021-08-11T14:11:54Z</time>
      </trkpt>
      <trkpt lat="47.96672" lon="-3.82206">
        <ele>120.2</ele>
        <time>2021-08-11T14:11:55Z</time>
      </trkpt>
      <trkpt lat="47.96666" lon="-3.82212">
        <ele>120</ele>
        <time>2021-08-11T14:11:56Z</time>
      </trkpt>
      <trkpt lat="47.9666" lon="-3.82217">
        <ele>120</ele>
        <time>2021-08-11T14:11:57Z</time>
      </trkpt>
      <trkpt lat="47.96653" lon="-3.82223">
        <ele>120</ele>
        <time>2021-08-11T14:11:58Z</time>
      </trkpt>
      <trkpt lat="47.96647" lon="-3.8223">
        <ele>120</ele>
        <time>2021-08-11T14:11:59Z</time>
      </trkpt>
      <trkpt lat="47.96642" lon="-3.82236">
        <ele>119.8</ele>
        <time>2021-08-11T14:12:00Z</time>
      </trkpt>
      <trkpt lat="47.96636" lon="-3.82241">
        <ele>119.6</ele>
        <time>2021-08-11T14:12:01Z</time>
      </trkpt>
      <trkpt lat="47.96631" lon="-3.82247">
        <ele>119.4</ele>
        <time>2021-08-11T14:12:02Z</time>
      </trkpt>
      <trkpt lat="47.96625" lon="-3.82254">
        <ele>119.6</ele>
        <time>2021-08-11T14:12:03Z</time>
      </trkpt>
      <trkpt lat="47.96619" lon="-3.82259">
        <ele>119.6</ele>
        <time>2021-08-11T14:12:04Z</time>
      </trkpt>
      <trkpt lat="47.96613" lon="-3.82265">
        <ele>119.2</ele>
        <time>2021-08-11T14:12:05Z</time>
      </trkpt>
      <trkpt lat="47.96607" lon="-3.82271">
        <ele>119.2</ele>
        <time>2021-08-11T14:12:06Z</time>
      </trkpt>
      <trkpt lat="47.96602" lon="-3.82276">
        <ele>119</ele>
        <time>2021-08-11T14:12:07Z</time>
      </trkpt>
      <trkpt lat="47.96596" lon="-3.82281">
        <ele>119</ele>
        <time>2021-08-11T14:12:08Z</time>
      </trkpt>
      <trkpt lat="47.9659" lon="-3.82288">
        <ele>118.8</ele>
        <time>2021-08-11T14:12:09Z</time>
      </trkpt>
      <trkpt lat="47.96584" lon="-3.82294">
        <ele>118.8</ele>
        <time>2021-08-11T14:12:10Z</time>
      </trkpt>
      <trkpt lat="47.96578" lon="-3.82299">
        <ele>118.6</ele>
        <time>2021-08-11T14:12:11Z</time>
      </trkpt>
      <trkpt lat="47.96572" lon="-3.82305">
        <ele>118.4</ele>
        <time>2021-08-11T14:12:12Z</time>
      </trkpt>
      <trkpt lat="47.96564" lon="-3.82311">
        <ele>118</ele>
        <time>2021-08-11T14:12:13Z</time>
      </trkpt>
      <trkpt lat="47.96557" lon="-3.82318">
        <ele>117.6</ele>
        <time>2021-08-11T14:12:14Z</time>
      </trkpt>
      <trkpt lat="47.96551" lon="-3.82323">
        <ele>117.4</ele>
        <time>2021-08-11T14:12:15Z</time>
      </trkpt>
      <trkpt lat="47.96544" lon="-3.82329">
        <ele>117.2</ele>
        <time>2021-08-11T14:12:16Z</time>
      </trkpt>
      <trkpt lat="47.96538" lon="-3.82336">
        <ele>117</ele>
        <time>2021-08-11T14:12:17Z</time>
      </trkpt>
      <trkpt lat="47.96532" lon="-3.82343">
        <ele>116.8</ele>
        <time>2021-08-11T14:12:18Z</time>
      </trkpt>
      <trkpt lat="47.96527" lon="-3.8235">
        <ele>116.6</ele>
        <time>2021-08-11T14:12:19Z</time>
      </trkpt>
      <trkpt lat="47.96523" lon="-3.82357">
        <ele>116.6</ele>
        <time>2021-08-11T14:12:20Z</time>
      </trkpt>
      <trkpt lat="47.96518" lon="-3.82364">
        <ele>116.4</ele>
        <time>2021-08-11T14:12:21Z</time>
      </trkpt>
      <trkpt lat="47.96513" lon="-3.82372">
        <ele>116.4</ele>
        <time>2021-08-11T14:12:22Z</time>
      </trkpt>
      <trkpt lat="47.96509" lon="-3.8238">
        <ele>116.2</ele>
        <time>2021-08-11T14:12:23Z</time>
      </trkpt>
      <trkpt lat="47.96503" lon="-3.82387">
        <ele>116.2</ele>
        <time>2021-08-11T14:12:24Z</time>
      </trkpt>
      <trkpt lat="47.96499" lon="-3.82395">
        <ele>116</ele>
        <time>2021-08-11T14:12:25Z</time>
      </trkpt>
      <trkpt lat="47.96494" lon="-3.82403">
        <ele>115.8</ele>
        <time>2021-08-11T14:12:26Z</time>
      </trkpt>
      <trkpt lat="47.9649" lon="-3.82409">
        <ele>115.4</ele>
        <time>2021-08-11T14:12:27Z</time>
      </trkpt>
      <trkpt lat="47.96485" lon="-3.82416">
        <ele>115.4</ele>
        <time>2021-08-11T14:12:28Z</time>
      </trkpt>
      <trkpt lat="47.9648" lon="-3.82423">
        <ele>115.2</ele>
        <time>2021-08-11T14:12:29Z</time>
      </trkpt>
      <trkpt lat="47.96476" lon="-3.82429">
        <ele>115.2</ele>
        <time>2021-08-11T14:12:30Z</time>
      </trkpt>
      <trkpt lat="47.96471" lon="-3.82436">
        <ele>115</ele>
        <time>2021-08-11T14:12:31Z</time>
      </trkpt>
      <trkpt lat="47.96467" lon="-3.82443">
        <ele>115</ele>
        <time>2021-08-11T14:12:32Z</time>
      </trkpt>
      <trkpt lat="47.96463" lon="-3.82449">
        <ele>115</ele>
        <time>2021-08-11T14:12:33Z</time>
      </trkpt>
      <trkpt lat="47.96459" lon="-3.82454">
        <ele>115</ele>
        <time>2021-08-11T14:12:34Z</time>
      </trkpt>
      <trkpt lat="47.96456" lon="-3.82458">
        <ele>115</ele>
        <time>2021-08-11T14:12:35Z</time>
      </trkpt>
      <trkpt lat="47.96454" lon="-3.82461">
        <ele>115</ele>
        <time>2021-08-11T14:12:36Z</time>
      </trkpt>
      <trkpt lat="47.96452" lon="-3.82463">
        <ele>115</ele>
        <time>2021-08-11T14:12:37Z</time>
      </trkpt>
      <trkpt lat="47.96451" lon="-3.82464">
        <ele>115</ele>
        <time>2021-08-11T14:12:38Z</time>
      </trkpt>
      <trkpt lat="47.9645" lon="-3.82466">
        <ele>115</ele>
        <time>2021-08-11T14:12:39Z</time>
      </trkpt>
      <trkpt lat="47.96448" lon="-3.82468">
        <ele>115</ele>
        <time>2021-08-11T14:12:40Z</time>
      </trkpt>
      <trkpt lat="47.96447" lon="-3.8247">
        <ele>115</ele>
        <time>2021-08-11T14:12:41Z</time>
      </trkpt>
      <trkpt lat="47.96446" lon="-3.82471">
        <ele>115</ele>
        <time>2021-08-11T14:12:42Z</time>
      </trkpt>
      <trkpt lat="47.96445" lon="-3.82471">
        <ele>115</ele>
        <time>2021-08-11T14:12:43Z</time>
      </trkpt>
      <trkpt lat="47.96445" lon="-3.8247">
        <ele>115.4</ele>
        <time>2021-08-11T14:12:44Z</time>
      </trkpt>
      <trkpt lat="47.96446" lon="-3.8247">
        <ele>115.6</ele>
        <time>2021-08-11T14:12:45Z</time>
      </trkpt>
      <trkpt lat="47.96446" lon="-3.82469">
        <ele>115.8</ele>
        <time>2021-08-11T14:12:46Z</time>
      </trkpt>
      <trkpt lat="47.96446" lon="-3.82468">
        <ele>115.8</ele>
        <time>2021-08-11T14:12:47Z</time>
      </trkpt>
      <trkpt lat="47.96446" lon="-3.82467">
        <ele>115.8</ele>
        <time>2021-08-11T14:12:48Z</time>
      </trkpt>
      <trkpt lat="47.96446" lon="-3.82466">
        <ele>115.8</ele>
        <time>2021-08-11T14:12:49Z</time>
      </trkpt>
      <trkpt lat="47.96447" lon="-3.82466">
        <ele>115.8</ele>
        <time>2021-08-11T14:12:50Z</time>
      </trkpt>
      <trkpt lat="47.96447" lon="-3.82465">
        <ele>116</ele>
        <time>2021-08-11T14:12:51Z</time>
      </trkpt>
      <trkpt lat="47.96448" lon="-3.82464">
        <ele>116</ele>
        <time>2021-08-11T14:12:52Z</time>
      </trkpt>
      <trkpt lat="47.96449" lon="-3.82463">
        <ele>116</ele>
        <time>2021-08-11T14:12:53Z</time>
      </trkpt>
      <trkpt lat="47.96449" lon="-3.82461">
        <ele>116</ele>
        <time>2021-08-11T14:12:54Z</time>
      </trkpt>
      <trkpt lat="47.9645" lon="-3.82459">
        <ele>116</ele>
        <time>2021-08-11T14:12:55Z</time>
      </trkpt>
      <trkpt lat="47.96452" lon="-3.82458">
        <ele>116</ele>
        <time>2021-08-11T14:12:56Z</time>
      </trkpt>
      <trkpt lat="47.96453" lon="-3.82456">
        <ele>116</ele>
        <time>2021-08-11T14:12:57Z</time>
      </trkpt>
      <trkpt lat="47.96455" lon="-3.82454">
        <ele>116</ele>
        <time>2021-08-11T14:12:58Z</time>
      </trkpt>
      <trkpt lat="47.96458" lon="-3.82452">
        <ele>116</ele>
        <time>2021-08-11T14:12:59Z</time>
      </trkpt>
      <trkpt lat="47.96461" lon="-3.8245">
        <ele>116</ele>
        <time>2021-08-11T14:13:00Z</time>
      </trkpt>
      <trkpt lat="47.96465" lon="-3.82447">
        <ele>116</ele>
        <time>2021-08-11T14:13:01Z</time>
      </trkpt>
      <trkpt lat="47.96469" lon="-3.82445">
        <ele>116</ele>
        <time>2021-08-11T14:13:02Z</time>
      </trkpt>
      <trkpt lat="47.96472" lon="-3.82442">
        <ele>116</ele>
        <time>2021-08-11T14:13:03Z</time>
      </trkpt>
      <trkpt lat="47.96475" lon="-3.8244">
        <ele>116</ele>
        <time>2021-08-11T14:13:04Z</time>
      </trkpt>
      <trkpt lat="47.96478" lon="-3.82439">
        <ele>116</ele>
        <time>2021-08-11T14:13:05Z</time>
      </trkpt>
      <trkpt lat="47.96481" lon="-3.82437">
        <ele>115.8</ele>
        <time>2021-08-11T14:13:06Z</time>
      </trkpt>
      <trkpt lat="47.96484" lon="-3.82436">
        <ele>115.6</ele>
        <time>2021-08-11T14:13:07Z</time>
      </trkpt>
      <trkpt lat="47.96487" lon="-3.82434">
        <ele>115.4</ele>
        <time>2021-08-11T14:13:08Z</time>
      </trkpt>
      <trkpt lat="47.96491" lon="-3.82431">
        <ele>115.2</ele>
        <time>2021-08-11T14:13:09Z</time>
      </trkpt>
      <trkpt lat="47.96493" lon="-3.8243">
        <ele>115.2</ele>
        <time>2021-08-11T14:13:10Z</time>
      </trkpt>
      <trkpt lat="47.96496" lon="-3.82428">
        <ele>115</ele>
        <time>2021-08-11T14:13:11Z</time>
      </trkpt>
      <trkpt lat="47.96499" lon="-3.82429">
        <ele>115</ele>
        <time>2021-08-11T14:13:12Z</time>
      </trkpt>
      <trkpt lat="47.96502" lon="-3.82431">
        <ele>115</ele>
        <time>2021-08-11T14:13:13Z</time>
      </trkpt>
      <trkpt lat="47.96504" lon="-3.82433">
        <ele>115</ele>
        <time>2021-08-11T14:13:14Z</time>
      </trkpt>
      <trkpt lat="47.96505" lon="-3.82435">
        <ele>115</ele>
        <time>2021-08-11T14:13:15Z</time>
      </trkpt>
      <trkpt lat="47.96506" lon="-3.82438">
        <ele>115</ele>
        <time>2021-08-11T14:13:16Z</time>
      </trkpt>
      <trkpt lat="47.96508" lon="-3.82441">
        <ele>115</ele>
        <time>2021-08-11T14:13:17Z</time>
      </trkpt>
      <trkpt lat="47.96509" lon="-3.82446">
        <ele>115</ele>
        <time>2021-08-11T14:13:18Z</time>
      </trkpt>
      <trkpt lat="47.96511" lon="-3.8245">
        <ele>115</ele>
        <time>2021-08-11T14:13:19Z</time>
      </trkpt>
      <trkpt lat="47.96512" lon="-3.82455">
        <ele>115.2</ele>
        <time>2021-08-11T14:13:20Z</time>
      </trkpt>
      <trkpt lat="47.96513" lon="-3.82459">
        <ele>115.4</ele>
        <time>2021-08-11T14:13:21Z</time>
      </trkpt>
      <trkpt lat="47.96514" lon="-3.82464">
        <ele>115.6</ele>
        <time>2021-08-11T14:13:22Z</time>
      </trkpt>
      <trkpt lat="47.96515" lon="-3.8247">
        <ele>115.8</ele>
        <time>2021-08-11T14:13:23Z</time>
      </trkpt>
      <trkpt lat="47.96516" lon="-3.82475">
        <ele>115.8</ele>
        <time>2021-08-11T14:13:24Z</time>
      </trkpt>
      <trkpt lat="47.96516" lon="-3.82482">
        <ele>115.8</ele>
        <time>2021-08-11T14:13:25Z</time>
      </trkpt>
      <trkpt lat="47.96516" lon="-3.82487">
        <ele>115.8</ele>
        <time>2021-08-11T14:13:26Z</time>
      </trkpt>
      <trkpt lat="47.96517" lon="-3.82493">
        <ele>115.8</ele>
        <time>2021-08-11T14:13:27Z</time>
      </trkpt>
      <trkpt lat="47.96517" lon="-3.825">
        <ele>115.8</ele>
        <time>2021-08-11T14:13:28Z</time>
      </trkpt>
      <trkpt lat="47.96518" lon="-3.82507">
        <ele>115.8</ele>
        <time>2021-08-11T14:13:29Z</time>
      </trkpt>
      <trkpt lat="47.96518" lon="-3.82515">
        <ele>115.8</ele>
        <time>2021-08-11T14:13:30Z</time>
      </trkpt>
      <trkpt lat="47.96518" lon="-3.82522">
        <ele>115.6</ele>
        <time>2021-08-11T14:13:31Z</time>
      </trkpt>
      <trkpt lat="47.96518" lon="-3.8253">
        <ele>115.6</ele>
        <time>2021-08-11T14:13:32Z</time>
      </trkpt>
      <trkpt lat="47.96519" lon="-3.82537">
        <ele>115.4</ele>
        <time>2021-08-11T14:13:33Z</time>
      </trkpt>
      <trkpt lat="47.96518" lon="-3.82544">
        <ele>115.2</ele>
        <time>2021-08-11T14:13:34Z</time>
      </trkpt>
      <trkpt lat="47.96518" lon="-3.82552">
        <ele>115.2</ele>
        <time>2021-08-11T14:13:35Z</time>
      </trkpt>
      <trkpt lat="47.96518" lon="-3.82559">
        <ele>115</ele>
        <time>2021-08-11T14:13:36Z</time>
      </trkpt>
      <trkpt lat="47.96518" lon="-3.82567">
        <ele>115</ele>
        <time>2021-08-11T14:13:37Z</time>
      </trkpt>
      <trkpt lat="47.96518" lon="-3.82574">
        <ele>114.8</ele>
        <time>2021-08-11T14:13:38Z</time>
      </trkpt>
      <trkpt lat="47.96517" lon="-3.82581">
        <ele>114.8</ele>
        <time>2021-08-11T14:13:39Z</time>
      </trkpt>
      <trkpt lat="47.96517" lon="-3.82589">
        <ele>114.8</ele>
        <time>2021-08-11T14:13:40Z</time>
      </trkpt>
      <trkpt lat="47.96518" lon="-3.82597">
        <ele>114.8</ele>
        <time>2021-08-11T14:13:41Z</time>
      </trkpt>
      <trkpt lat="47.96517" lon="-3.82604">
        <ele>114.8</ele>
        <time>2021-08-11T14:13:42Z</time>
      </trkpt>
      <trkpt lat="47.96517" lon="-3.82612">
        <ele>114.8</ele>
        <time>2021-08-11T14:13:43Z</time>
      </trkpt>
      <trkpt lat="47.96517" lon="-3.82619">
        <ele>114.8</ele>
        <time>2021-08-11T14:13:44Z</time>
      </trkpt>
      <trkpt lat="47.96517" lon="-3.82625">
        <ele>114.8</ele>
        <time>2021-08-11T14:13:45Z</time>
      </trkpt>
      <trkpt lat="47.96516" lon="-3.82632">
        <ele>114.8</ele>
        <time>2021-08-11T14:13:46Z</time>
      </trkpt>
      <trkpt lat="47.96516" lon="-3.82639">
        <ele>114.8</ele>
        <time>2021-08-11T14:13:47Z</time>
      </trkpt>
      <trkpt lat="47.96517" lon="-3.82646">
        <ele>114.8</ele>
        <time>2021-08-11T14:13:48Z</time>
      </trkpt>
      <trkpt lat="47.96519" lon="-3.82653">
        <ele>114.8</ele>
        <time>2021-08-11T14:13:49Z</time>
      </trkpt>
      <trkpt lat="47.96522" lon="-3.82659">
        <ele>114.8</ele>
        <time>2021-08-11T14:13:50Z</time>
      </trkpt>
      <trkpt lat="47.96525" lon="-3.82663">
        <ele>114.8</ele>
        <time>2021-08-11T14:13:51Z</time>
      </trkpt>
      <trkpt lat="47.96529" lon="-3.82666">
        <ele>114.8</ele>
        <time>2021-08-11T14:13:52Z</time>
      </trkpt>
      <trkpt lat="47.96533" lon="-3.82668">
        <ele>114.8</ele>
        <time>2021-08-11T14:13:53Z</time>
      </trkpt>
      <trkpt lat="47.96538" lon="-3.82669">
        <ele>114.8</ele>
        <time>2021-08-11T14:13:54Z</time>
      </trkpt>
      <trkpt lat="47.96542" lon="-3.82671">
        <ele>114.8</ele>
        <time>2021-08-11T14:13:55Z</time>
      </trkpt>
      <trkpt lat="47.96547" lon="-3.82671">
        <ele>114.8</ele>
        <time>2021-08-11T14:13:56Z</time>
      </trkpt>
      <trkpt lat="47.9655" lon="-3.82671">
        <ele>114.8</ele>
        <time>2021-08-11T14:13:57Z</time>
      </trkpt>
      <trkpt lat="47.96554" lon="-3.82672">
        <ele>114.8</ele>
        <time>2021-08-11T14:13:58Z</time>
      </trkpt>
      <trkpt lat="47.96558" lon="-3.82673">
        <ele>114.8</ele>
        <time>2021-08-11T14:13:59Z</time>
      </trkpt>
      <trkpt lat="47.96561" lon="-3.82674">
        <ele>115</ele>
        <time>2021-08-11T14:14:00Z</time>
      </trkpt>
      <trkpt lat="47.96564" lon="-3.82675">
        <ele>115</ele>
        <time>2021-08-11T14:14:01Z</time>
      </trkpt>
      <trkpt lat="47.96567" lon="-3.82676">
        <ele>115</ele>
        <time>2021-08-11T14:14:02Z</time>
      </trkpt>
      <trkpt lat="47.9657" lon="-3.82675">
        <ele>115</ele>
        <time>2021-08-11T14:14:03Z</time>
      </trkpt>
      <trkpt lat="47.96573" lon="-3.82672">
        <ele>115.2</ele>
        <time>2021-08-11T14:14:04Z</time>
      </trkpt>
      <trkpt lat="47.96575" lon="-3.82668">
        <ele>115.2</ele>
        <time>2021-08-11T14:14:05Z</time>
      </trkpt>
      <trkpt lat="47.96577" lon="-3.82663">
        <ele>115.2</ele>
        <time>2021-08-11T14:14:06Z</time>
      </trkpt>
      <trkpt lat="47.96579" lon="-3.82657">
        <ele>115.2</ele>
        <time>2021-08-11T14:14:07Z</time>
      </trkpt>
      <trkpt lat="47.96582" lon="-3.82653">
        <ele>115.4</ele>
        <time>2021-08-11T14:14:08Z</time>
      </trkpt>
      <trkpt lat="47.96585" lon="-3.82651">
        <ele>115.4</ele>
        <time>2021-08-11T14:14:09Z</time>
      </trkpt>
      <trkpt lat="47.9659" lon="-3.82651">
        <ele>115.4</ele>
        <time>2021-08-11T14:14:10Z</time>
      </trkpt>
      <trkpt lat="47.96594" lon="-3.8265">
        <ele>115.4</ele>
        <time>2021-08-11T14:14:11Z</time>
      </trkpt>
      <trkpt lat="47.96599" lon="-3.82649">
        <ele>115.4</ele>
        <time>2021-08-11T14:14:12Z</time>
      </trkpt>
      <trkpt lat="47.96603" lon="-3.82649">
        <ele>115.4</ele>
        <time>2021-08-11T14:14:13Z</time>
      </trkpt>
      <trkpt lat="47.96607" lon="-3.8265">
        <ele>115.4</ele>
        <time>2021-08-11T14:14:14Z</time>
      </trkpt>
      <trkpt lat="47.96611" lon="-3.82652">
        <ele>115.4</ele>
        <time>2021-08-11T14:14:15Z</time>
      </trkpt>
      <trkpt lat="47.96615" lon="-3.82653">
        <ele>115.4</ele>
        <time>2021-08-11T14:14:16Z</time>
      </trkpt>
      <trkpt lat="47.96619" lon="-3.82654">
        <ele>115.4</ele>
        <time>2021-08-11T14:14:17Z</time>
      </trkpt>
      <trkpt lat="47.96622" lon="-3.82653">
        <ele>115.4</ele>
        <time>2021-08-11T14:14:18Z</time>
      </trkpt>
      <trkpt lat="47.96625" lon="-3.82652">
        <ele>115.4</ele>
        <time>2021-08-11T14:14:19Z</time>
      </trkpt>
      <trkpt lat="47.96628" lon="-3.82651">
        <ele>115.4</ele>
        <time>2021-08-11T14:14:20Z</time>
      </trkpt>
      <trkpt lat="47.9663" lon="-3.8265">
        <ele>115.4</ele>
        <time>2021-08-11T14:14:21Z</time>
      </trkpt>
      <trkpt lat="47.96633" lon="-3.8265">
        <ele>115.4</ele>
        <time>2021-08-11T14:14:22Z</time>
      </trkpt>
      <trkpt lat="47.96635" lon="-3.82648">
        <ele>115.4</ele>
        <time>2021-08-11T14:14:23Z</time>
      </trkpt>
      <trkpt lat="47.96638" lon="-3.82646">
        <ele>115.4</ele>
        <time>2021-08-11T14:14:24Z</time>
      </trkpt>
      <trkpt lat="47.9664" lon="-3.82644">
        <ele>115.4</ele>
        <time>2021-08-11T14:14:25Z</time>
      </trkpt>
      <trkpt lat="47.96642" lon="-3.82641">
        <ele>115.4</ele>
        <time>2021-08-11T14:14:26Z</time>
      </trkpt>
      <trkpt lat="47.96644" lon="-3.82639">
        <ele>115.8</ele>
        <time>2021-08-11T14:14:27Z</time>
      </trkpt>
      <trkpt lat="47.96647" lon="-3.82638">
        <ele>116.2</ele>
        <time>2021-08-11T14:14:28Z</time>
      </trkpt>
      <trkpt lat="47.96649" lon="-3.82636">
        <ele>116.2</ele>
        <time>2021-08-11T14:14:29Z</time>
      </trkpt>
      <trkpt lat="47.96632" lon="-3.82653">
        <ele>121.2</ele>
        <time>2021-08-12T08:40:12Z</time>
      </trkpt>
      <trkpt lat="47.96629" lon="-3.82654">
        <ele>121.2</ele>
        <time>2021-08-12T08:40:13Z</time>
      </trkpt>
      <trkpt lat="47.96622" lon="-3.82656">
        <ele>121</ele>
        <time>2021-08-12T08:40:15Z</time>
      </trkpt>
      <trkpt lat="47.96613" lon="-3.82657">
        <ele>120.4</ele>
        <time>2021-08-12T08:40:17Z</time>
      </trkpt>
      <trkpt lat="47.96608" lon="-3.82658">
        <ele>120.2</ele>
        <time>2021-08-12T08:40:18Z</time>
      </trkpt>
      <trkpt lat="47.96603" lon="-3.82658">
        <ele>120.2</ele>
        <time>2021-08-12T08:40:19Z</time>
      </trkpt>
      <trkpt lat="47.96598" lon="-3.8266">
        <ele>120.2</ele>
        <time>2021-08-12T08:40:20Z</time>
      </trkpt>
      <trkpt lat="47.96594" lon="-3.82661">
        <ele>120.2</ele>
        <time>2021-08-12T08:40:21Z</time>
      </trkpt>
      <trkpt lat="47.96592" lon="-3.82664">
        <ele>120</ele>
        <time>2021-08-12T08:40:22Z</time>
      </trkpt>
      <trkpt lat="47.96591" lon="-3.82667">
        <ele>120</ele>
        <time>2021-08-12T08:40:23Z</time>
      </trkpt>
      <trkpt lat="47.9659" lon="-3.82669">
        <ele>120</ele>
        <time>2021-08-12T08:40:24Z</time>
      </trkpt>
      <trkpt lat="47.96589" lon="-3.82672">
        <ele>120</ele>
        <time>2021-08-12T08:40:25Z</time>
      </trkpt>
      <trkpt lat="47.96589" lon="-3.82675">
        <ele>120</ele>
        <time>2021-08-12T08:40:26Z</time>
      </trkpt>
      <trkpt lat="47.96588" lon="-3.82678">
        <ele>120</ele>
        <time>2021-08-12T08:40:27Z</time>
      </trkpt>
      <trkpt lat="47.96588" lon="-3.82682">
        <ele>120</ele>
        <time>2021-08-12T08:40:28Z</time>
      </trkpt>
      <trkpt lat="47.96588" lon="-3.82684">
        <ele>120</ele>
        <time>2021-08-12T08:40:29Z</time>
      </trkpt>
      <trkpt lat="47.96588" lon="-3.82687">
        <ele>120</ele>
        <time>2021-08-12T08:40:30Z</time>
      </trkpt>
      <trkpt lat="47.96589" lon="-3.82689">
        <ele>120</ele>
        <time>2021-08-12T08:40:31Z</time>
      </trkpt>
      <trkpt lat="47.96589" lon="-3.8269">
        <ele>120</ele>
        <time>2021-08-12T08:40:32Z</time>
      </trkpt>
      <trkpt lat="47.96589" lon="-3.82692">
        <ele>120</ele>
        <time>2021-08-12T08:40:33Z</time>
      </trkpt>
      <trkpt lat="47.96588" lon="-3.82694">
        <ele>120</ele>
        <time>2021-08-12T08:40:34Z</time>
      </trkpt>
      <trkpt lat="47.96588" lon="-3.82696">
        <ele>120.2</ele>
        <time>2021-08-12T08:40:35Z</time>
      </trkpt>
      <trkpt lat="47.96589" lon="-3.82697">
        <ele>120.4</ele>
        <time>2021-08-12T08:40:36Z</time>
      </trkpt>
      <trkpt lat="47.96589" lon="-3.82698">
        <ele>120.6</ele>
        <time>2021-08-12T08:40:37Z</time>
      </trkpt>
      <trkpt lat="47.96589" lon="-3.827">
        <ele>120.6</ele>
        <time>2021-08-12T08:40:38Z</time>
      </trkpt>
      <trkpt lat="47.9659" lon="-3.82702">
        <ele>120.6</ele>
        <time>2021-08-12T08:40:39Z</time>
      </trkpt>
      <trkpt lat="47.9659" lon="-3.82703">
        <ele>120.8</ele>
        <time>2021-08-12T08:40:40Z</time>
      </trkpt>
      <trkpt lat="47.9659" lon="-3.82706">
        <ele>121</ele>
        <time>2021-08-12T08:40:41Z</time>
      </trkpt>
      <trkpt lat="47.96591" lon="-3.82707">
        <ele>121.2</ele>
        <time>2021-08-12T08:40:42Z</time>
      </trkpt>
      <trkpt lat="47.96591" lon="-3.8271">
        <ele>121.2</ele>
        <time>2021-08-12T08:40:43Z</time>
      </trkpt>
      <trkpt lat="47.96591" lon="-3.82711">
        <ele>121.4</ele>
        <time>2021-08-12T08:40:44Z</time>
      </trkpt>
      <trkpt lat="47.96591" lon="-3.82714">
        <ele>121.6</ele>
        <time>2021-08-12T08:40:45Z</time>
      </trkpt>
      <trkpt lat="47.96591" lon="-3.82717">
        <ele>121.8</ele>
        <time>2021-08-12T08:40:46Z</time>
      </trkpt>
      <trkpt lat="47.96591" lon="-3.8272">
        <ele>122</ele>
        <time>2021-08-12T08:40:47Z</time>
      </trkpt>
      <trkpt lat="47.96591" lon="-3.82723">
        <ele>122</ele>
        <time>2021-08-12T08:40:48Z</time>
      </trkpt>
      <trkpt lat="47.96591" lon="-3.82725">
        <ele>122</ele>
        <time>2021-08-12T08:40:49Z</time>
      </trkpt>
      <trkpt lat="47.96591" lon="-3.82727">
        <ele>122</ele>
        <time>2021-08-12T08:40:50Z</time>
      </trkpt>
      <trkpt lat="47.96591" lon="-3.82729">
        <ele>122</ele>
        <time>2021-08-12T08:40:51Z</time>
      </trkpt>
      <trkpt lat="47.96591" lon="-3.82732">
        <ele>122.2</ele>
        <time>2021-08-12T08:40:52Z</time>
      </trkpt>
      <trkpt lat="47.96591" lon="-3.82736">
        <ele>122.2</ele>
        <time>2021-08-12T08:40:53Z</time>
      </trkpt>
      <trkpt lat="47.96591" lon="-3.82738">
        <ele>122.4</ele>
        <time>2021-08-12T08:40:54Z</time>
      </trkpt>
      <trkpt lat="47.96593" lon="-3.82744">
        <ele>122.6</ele>
        <time>2021-08-12T08:40:56Z</time>
      </trkpt>
      <trkpt lat="47.96593" lon="-3.82747">
        <ele>122.8</ele>
        <time>2021-08-12T08:40:57Z</time>
      </trkpt>
      <trkpt lat="47.96594" lon="-3.8275">
        <ele>123</ele>
        <time>2021-08-12T08:40:58Z</time>
      </trkpt>
      <trkpt lat="47.96595" lon="-3.82753">
        <ele>123.2</ele>
        <time>2021-08-12T08:40:59Z</time>
      </trkpt>
      <trkpt lat="47.96595" lon="-3.82756">
        <ele>123.4</ele>
        <time>2021-08-12T08:41:00Z</time>
      </trkpt>
      <trkpt lat="47.96596" lon="-3.82759">
        <ele>123.4</ele>
        <time>2021-08-12T08:41:01Z</time>
      </trkpt>
      <trkpt lat="47.96596" lon="-3.82762">
        <ele>123.4</ele>
        <time>2021-08-12T08:41:02Z</time>
      </trkpt>
      <trkpt lat="47.96597" lon="-3.82765">
        <ele>123.6</ele>
        <time>2021-08-12T08:41:03Z</time>
      </trkpt>
      <trkpt lat="47.96597" lon="-3.82769">
        <ele>123.6</ele>
        <time>2021-08-12T08:41:04Z</time>
      </trkpt>
      <trkpt lat="47.96597" lon="-3.82772">
        <ele>123.6</ele>
        <time>2021-08-12T08:41:05Z</time>
      </trkpt>
      <trkpt lat="47.96598" lon="-3.82778">
        <ele>123.8</ele>
        <time>2021-08-12T08:41:07Z</time>
      </trkpt>
      <trkpt lat="47.96599" lon="-3.82782">
        <ele>123.8</ele>
        <time>2021-08-12T08:41:08Z</time>
      </trkpt>
      <trkpt lat="47.96599" lon="-3.82786">
        <ele>124</ele>
        <time>2021-08-12T08:41:09Z</time>
      </trkpt>
      <trkpt lat="47.96599" lon="-3.8279">
        <ele>123.8</ele>
        <time>2021-08-12T08:41:10Z</time>
      </trkpt>
      <trkpt lat="47.96599" lon="-3.82794">
        <ele>123.8</ele>
        <time>2021-08-12T08:41:11Z</time>
      </trkpt>
      <trkpt lat="47.96599" lon="-3.82798">
        <ele>124</ele>
        <time>2021-08-12T08:41:12Z</time>
      </trkpt>
      <trkpt lat="47.96599" lon="-3.82802">
        <ele>124.2</ele>
        <time>2021-08-12T08:41:13Z</time>
      </trkpt>
      <trkpt lat="47.96599" lon="-3.82806">
        <ele>124.6</ele>
        <time>2021-08-12T08:41:14Z</time>
      </trkpt>
      <trkpt lat="47.966" lon="-3.8281">
        <ele>124.8</ele>
        <time>2021-08-12T08:41:15Z</time>
      </trkpt>
      <trkpt lat="47.966" lon="-3.82814">
        <ele>125</ele>
        <time>2021-08-12T08:41:16Z</time>
      </trkpt>
      <trkpt lat="47.96601" lon="-3.82818">
        <ele>125.2</ele>
        <time>2021-08-12T08:41:17Z</time>
      </trkpt>
      <trkpt lat="47.96601" lon="-3.82821">
        <ele>125.2</ele>
        <time>2021-08-12T08:41:18Z</time>
      </trkpt>
      <trkpt lat="47.966" lon="-3.82825">
        <ele>125.2</ele>
        <time>2021-08-12T08:41:19Z</time>
      </trkpt>
      <trkpt lat="47.96599" lon="-3.82829">
        <ele>125.4</ele>
        <time>2021-08-12T08:41:20Z</time>
      </trkpt>
      <trkpt lat="47.96599" lon="-3.82832">
        <ele>125.6</ele>
        <time>2021-08-12T08:41:21Z</time>
      </trkpt>
      <trkpt lat="47.96599" lon="-3.82835">
        <ele>125.8</ele>
        <time>2021-08-12T08:41:22Z</time>
      </trkpt>
      <trkpt lat="47.96598" lon="-3.82839">
        <ele>126</ele>
        <time>2021-08-12T08:41:23Z</time>
      </trkpt>
      <trkpt lat="47.96598" lon="-3.82842">
        <ele>125.8</ele>
        <time>2021-08-12T08:41:24Z</time>
      </trkpt>
      <trkpt lat="47.96598" lon="-3.82845">
        <ele>126</ele>
        <time>2021-08-12T08:41:25Z</time>
      </trkpt>
      <trkpt lat="47.96598" lon="-3.82848">
        <ele>126.2</ele>
        <time>2021-08-12T08:41:26Z</time>
      </trkpt>
      <trkpt lat="47.96598" lon="-3.82852">
        <ele>126.4</ele>
        <time>2021-08-12T08:41:27Z</time>
      </trkpt>
      <trkpt lat="47.96597" lon="-3.82855">
        <ele>126.6</ele>
        <time>2021-08-12T08:41:28Z</time>
      </trkpt>
      <trkpt lat="47.96597" lon="-3.82858">
        <ele>126.8</ele>
        <time>2021-08-12T08:41:29Z</time>
      </trkpt>
      <trkpt lat="47.96596" lon="-3.82862">
        <ele>126.8</ele>
        <time>2021-08-12T08:41:30Z</time>
      </trkpt>
      <trkpt lat="47.96596" lon="-3.82866">
        <ele>127</ele>
        <time>2021-08-12T08:41:31Z</time>
      </trkpt>
      <trkpt lat="47.96595" lon="-3.8287">
        <ele>127.2</ele>
        <time>2021-08-12T08:41:32Z</time>
      </trkpt>
      <trkpt lat="47.96595" lon="-3.82873">
        <ele>127.4</ele>
        <time>2021-08-12T08:41:33Z</time>
      </trkpt>
      <trkpt lat="47.96594" lon="-3.82878">
        <ele>127.4</ele>
        <time>2021-08-12T08:41:34Z</time>
      </trkpt>
      <trkpt lat="47.96594" lon="-3.82882">
        <ele>127.4</ele>
        <time>2021-08-12T08:41:35Z</time>
      </trkpt>
      <trkpt lat="47.96593" lon="-3.82887">
        <ele>127.4</ele>
        <time>2021-08-12T08:41:36Z</time>
      </trkpt>
      <trkpt lat="47.96592" lon="-3.82891">
        <ele>127.6</ele>
        <time>2021-08-12T08:41:37Z</time>
      </trkpt>
      <trkpt lat="47.96592" lon="-3.82895">
        <ele>127.8</ele>
        <time>2021-08-12T08:41:38Z</time>
      </trkpt>
      <trkpt lat="47.96591" lon="-3.82903">
        <ele>128</ele>
        <time>2021-08-12T08:41:40Z</time>
      </trkpt>
      <trkpt lat="47.96591" lon="-3.82907">
        <ele>128</ele>
        <time>2021-08-12T08:41:41Z</time>
      </trkpt>
      <trkpt lat="47.9659" lon="-3.82912">
        <ele>128</ele>
        <time>2021-08-12T08:41:42Z</time>
      </trkpt>
      <trkpt lat="47.96589" lon="-3.82917">
        <ele>128.2</ele>
        <time>2021-08-12T08:41:43Z</time>
      </trkpt>
      <trkpt lat="47.96588" lon="-3.82922">
        <ele>128.2</ele>
        <time>2021-08-12T08:41:44Z</time>
      </trkpt>
      <trkpt lat="47.96588" lon="-3.82927">
        <ele>128.2</ele>
        <time>2021-08-12T08:41:45Z</time>
      </trkpt>
      <trkpt lat="47.96587" lon="-3.82933">
        <ele>128.2</ele>
        <time>2021-08-12T08:41:46Z</time>
      </trkpt>
      <trkpt lat="47.96586" lon="-3.82938">
        <ele>128.4</ele>
        <time>2021-08-12T08:41:47Z</time>
      </trkpt>
      <trkpt lat="47.96585" lon="-3.82942">
        <ele>128.4</ele>
        <time>2021-08-12T08:41:48Z</time>
      </trkpt>
      <trkpt lat="47.96585" lon="-3.82946">
        <ele>128.4</ele>
        <time>2021-08-12T08:41:49Z</time>
      </trkpt>
      <trkpt lat="47.96584" lon="-3.82954">
        <ele>128.4</ele>
        <time>2021-08-12T08:41:51Z</time>
      </trkpt>
      <trkpt lat="47.96583" lon="-3.82957">
        <ele>128.4</ele>
        <time>2021-08-12T08:41:52Z</time>
      </trkpt>
      <trkpt lat="47.96583" lon="-3.82961">
        <ele>128.6</ele>
        <time>2021-08-12T08:41:53Z</time>
      </trkpt>
      <trkpt lat="47.96582" lon="-3.82966">
        <ele>128.8</ele>
        <time>2021-08-12T08:41:56Z</time>
      </trkpt>
      <trkpt lat="47.96582" lon="-3.82967">
        <ele>129</ele>
        <time>2021-08-12T08:41:57Z</time>
      </trkpt>
      <trkpt lat="47.96582" lon="-3.82968">
        <ele>129</ele>
        <time>2021-08-12T08:41:58Z</time>
      </trkpt>
      <trkpt lat="47.96581" lon="-3.82969">
        <ele>129.4</ele>
        <time>2021-08-12T08:42:09Z</time>
      </trkpt>
      <trkpt lat="47.9658" lon="-3.82971">
        <ele>129.4</ele>
        <time>2021-08-12T08:42:10Z</time>
      </trkpt>
      <trkpt lat="47.96578" lon="-3.82973">
        <ele>129.4</ele>
        <time>2021-08-12T08:42:11Z</time>
      </trkpt>
      <trkpt lat="47.96576" lon="-3.82974">
        <ele>129.4</ele>
        <time>2021-08-12T08:42:12Z</time>
      </trkpt>
      <trkpt lat="47.9657" lon="-3.82975">
        <ele>129.4</ele>
        <time>2021-08-12T08:42:14Z</time>
      </trkpt>
      <trkpt lat="47.96566" lon="-3.82975">
        <ele>129.4</ele>
        <time>2021-08-12T08:42:15Z</time>
      </trkpt>
      <trkpt lat="47.96563" lon="-3.82975">
        <ele>129.4</ele>
        <time>2021-08-12T08:42:16Z</time>
      </trkpt>
      <trkpt lat="47.96559" lon="-3.82975">
        <ele>129.4</ele>
        <time>2021-08-12T08:42:17Z</time>
      </trkpt>
      <trkpt lat="47.96556" lon="-3.82974">
        <ele>129.4</ele>
        <time>2021-08-12T08:42:18Z</time>
      </trkpt>
      <trkpt lat="47.96548" lon="-3.82973">
        <ele>129</ele>
        <time>2021-08-12T08:42:20Z</time>
      </trkpt>
      <trkpt lat="47.96544" lon="-3.82972">
        <ele>129</ele>
        <time>2021-08-12T08:42:21Z</time>
      </trkpt>
      <trkpt lat="47.9654" lon="-3.82972">
        <ele>128.8</ele>
        <time>2021-08-12T08:42:22Z</time>
      </trkpt>
      <trkpt lat="47.96536" lon="-3.82971">
        <ele>128.8</ele>
        <time>2021-08-12T08:42:23Z</time>
      </trkpt>
      <trkpt lat="47.96531" lon="-3.82971">
        <ele>128.4</ele>
        <time>2021-08-12T08:42:24Z</time>
      </trkpt>
      <trkpt lat="47.96527" lon="-3.8297">
        <ele>128.2</ele>
        <time>2021-08-12T08:42:25Z</time>
      </trkpt>
      <trkpt lat="47.96522" lon="-3.8297">
        <ele>128.2</ele>
        <time>2021-08-12T08:42:26Z</time>
      </trkpt>
      <trkpt lat="47.96517" lon="-3.8297">
        <ele>127.8</ele>
        <time>2021-08-12T08:42:27Z</time>
      </trkpt>
      <trkpt lat="47.96512" lon="-3.82969">
        <ele>127.8</ele>
        <time>2021-08-12T08:42:28Z</time>
      </trkpt>
      <trkpt lat="47.96507" lon="-3.82969">
        <ele>127.6</ele>
        <time>2021-08-12T08:42:29Z</time>
      </trkpt>
      <trkpt lat="47.96496" lon="-3.82967">
        <ele>127</ele>
        <time>2021-08-12T08:42:31Z</time>
      </trkpt>
      <trkpt lat="47.96491" lon="-3.82967">
        <ele>126.8</ele>
        <time>2021-08-12T08:42:32Z</time>
      </trkpt>
      <trkpt lat="47.96486" lon="-3.82966">
        <ele>126.6</ele>
        <time>2021-08-12T08:42:33Z</time>
      </trkpt>
      <trkpt lat="47.9648" lon="-3.82966">
        <ele>126.6</ele>
        <time>2021-08-12T08:42:34Z</time>
      </trkpt>
      <trkpt lat="47.96475" lon="-3.82966">
        <ele>126.6</ele>
        <time>2021-08-12T08:42:35Z</time>
      </trkpt>
      <trkpt lat="47.96469" lon="-3.82967">
        <ele>126.4</ele>
        <time>2021-08-12T08:42:36Z</time>
      </trkpt>
      <trkpt lat="47.96464" lon="-3.82967">
        <ele>126.2</ele>
        <time>2021-08-12T08:42:37Z</time>
      </trkpt>
      <trkpt lat="47.96458" lon="-3.82968">
        <ele>126</ele>
        <time>2021-08-12T08:42:38Z</time>
      </trkpt>
      <trkpt lat="47.96453" lon="-3.82968">
        <ele>125.6</ele>
        <time>2021-08-12T08:42:39Z</time>
      </trkpt>
      <trkpt lat="47.96447" lon="-3.82969">
        <ele>125.4</ele>
        <time>2021-08-12T08:42:40Z</time>
      </trkpt>
      <trkpt lat="47.96437" lon="-3.8297">
        <ele>124.6</ele>
        <time>2021-08-12T08:42:42Z</time>
      </trkpt>
      <trkpt lat="47.96431" lon="-3.8297">
        <ele>124.4</ele>
        <time>2021-08-12T08:42:43Z</time>
      </trkpt>
      <trkpt lat="47.96426" lon="-3.82971">
        <ele>124.2</ele>
        <time>2021-08-12T08:42:44Z</time>
      </trkpt>
      <trkpt lat="47.96421" lon="-3.82972">
        <ele>124</ele>
        <time>2021-08-12T08:42:45Z</time>
      </trkpt>
      <trkpt lat="47.96415" lon="-3.82972">
        <ele>124</ele>
        <time>2021-08-12T08:42:46Z</time>
      </trkpt>
      <trkpt lat="47.9641" lon="-3.82972">
        <ele>124</ele>
        <time>2021-08-12T08:42:47Z</time>
      </trkpt>
      <trkpt lat="47.96405" lon="-3.82973">
        <ele>124</ele>
        <time>2021-08-12T08:42:48Z</time>
      </trkpt>
      <trkpt lat="47.964" lon="-3.82974">
        <ele>123.8</ele>
        <time>2021-08-12T08:42:49Z</time>
      </trkpt>
      <trkpt lat="47.96395" lon="-3.82974">
        <ele>123.8</ele>
        <time>2021-08-12T08:42:50Z</time>
      </trkpt>
      <trkpt lat="47.9639" lon="-3.82975">
        <ele>123.6</ele>
        <time>2021-08-12T08:42:51Z</time>
      </trkpt>
      <trkpt lat="47.9638" lon="-3.82975">
        <ele>123.8</ele>
        <time>2021-08-12T08:42:53Z</time>
      </trkpt>
      <trkpt lat="47.96375" lon="-3.82975">
        <ele>123.6</ele>
        <time>2021-08-12T08:42:54Z</time>
      </trkpt>
      <trkpt lat="47.96371" lon="-3.82975">
        <ele>123.4</ele>
        <time>2021-08-12T08:42:55Z</time>
      </trkpt>
      <trkpt lat="47.96366" lon="-3.82976">
        <ele>123.4</ele>
        <time>2021-08-12T08:42:56Z</time>
      </trkpt>
      <trkpt lat="47.96362" lon="-3.82977">
        <ele>123.4</ele>
        <time>2021-08-12T08:42:57Z</time>
      </trkpt>
      <trkpt lat="47.96357" lon="-3.82977">
        <ele>123.2</ele>
        <time>2021-08-12T08:42:58Z</time>
      </trkpt>
      <trkpt lat="47.96353" lon="-3.82978">
        <ele>123.2</ele>
        <time>2021-08-12T08:42:59Z</time>
      </trkpt>
      <trkpt lat="47.96348" lon="-3.82978">
        <ele>123.2</ele>
        <time>2021-08-12T08:43:00Z</time>
      </trkpt>
      <trkpt lat="47.96344" lon="-3.82978">
        <ele>123.2</ele>
        <time>2021-08-12T08:43:01Z</time>
      </trkpt>
      <trkpt lat="47.96339" lon="-3.82977">
        <ele>123.4</ele>
        <time>2021-08-12T08:43:02Z</time>
      </trkpt>
      <trkpt lat="47.96331" lon="-3.82975">
        <ele>123.4</ele>
        <time>2021-08-12T08:43:04Z</time>
      </trkpt>
      <trkpt lat="47.96326" lon="-3.82976">
        <ele>123.2</ele>
        <time>2021-08-12T08:43:05Z</time>
      </trkpt>
      <trkpt lat="47.96321" lon="-3.82976">
        <ele>123.2</ele>
        <time>2021-08-12T08:43:06Z</time>
      </trkpt>
      <trkpt lat="47.96316" lon="-3.82977">
        <ele>123.2</ele>
        <time>2021-08-12T08:43:07Z</time>
      </trkpt>
      <trkpt lat="47.96311" lon="-3.82978">
        <ele>123.2</ele>
        <time>2021-08-12T08:43:08Z</time>
      </trkpt>
      <trkpt lat="47.96306" lon="-3.82978">
        <ele>123</ele>
        <time>2021-08-12T08:43:09Z</time>
      </trkpt>
      <trkpt lat="47.96301" lon="-3.82979">
        <ele>123</ele>
        <time>2021-08-12T08:43:10Z</time>
      </trkpt>
      <trkpt lat="47.96295" lon="-3.8298">
        <ele>123</ele>
        <time>2021-08-12T08:43:11Z</time>
      </trkpt>
      <trkpt lat="47.96289" lon="-3.82981">
        <ele>123</ele>
        <time>2021-08-12T08:43:12Z</time>
      </trkpt>
      <trkpt lat="47.96284" lon="-3.82982">
        <ele>123</ele>
        <time>2021-08-12T08:43:13Z</time>
      </trkpt>
      <trkpt lat="47.96277" lon="-3.82982">
        <ele>123</ele>
        <time>2021-08-12T08:43:14Z</time>
      </trkpt>
      <trkpt lat="47.96271" lon="-3.82982">
        <ele>122.8</ele>
        <time>2021-08-12T08:43:15Z</time>
      </trkpt>
      <trkpt lat="47.96265" lon="-3.82982">
        <ele>122.2</ele>
        <time>2021-08-12T08:43:16Z</time>
      </trkpt>
      <trkpt lat="47.96258" lon="-3.82982">
        <ele>122</ele>
        <time>2021-08-12T08:43:17Z</time>
      </trkpt>
      <trkpt lat="47.96252" lon="-3.82982">
        <ele>121.6</ele>
        <time>2021-08-12T08:43:18Z</time>
      </trkpt>
      <trkpt lat="47.96245" lon="-3.82982">
        <ele>121.4</ele>
        <time>2021-08-12T08:43:19Z</time>
      </trkpt>
      <trkpt lat="47.96238" lon="-3.82982">
        <ele>121.2</ele>
        <time>2021-08-12T08:43:20Z</time>
      </trkpt>
      <trkpt lat="47.96232" lon="-3.82981">
        <ele>121</ele>
        <time>2021-08-12T08:43:21Z</time>
      </trkpt>
      <trkpt lat="47.96225" lon="-3.82981">
        <ele>120.6</ele>
        <time>2021-08-12T08:43:22Z</time>
      </trkpt>
      <trkpt lat="47.96218" lon="-3.82982">
        <ele>120.2</ele>
        <time>2021-08-12T08:43:23Z</time>
      </trkpt>
      <trkpt lat="47.96211" lon="-3.82982">
        <ele>120.2</ele>
        <time>2021-08-12T08:43:24Z</time>
      </trkpt>
      <trkpt lat="47.96196" lon="-3.82981">
        <ele>119.8</ele>
        <time>2021-08-12T08:43:26Z</time>
      </trkpt>
      <trkpt lat="47.96189" lon="-3.82981">
        <ele>119.6</ele>
        <time>2021-08-12T08:43:27Z</time>
      </trkpt>
      <trkpt lat="47.96182" lon="-3.8298">
        <ele>119.4</ele>
        <time>2021-08-12T08:43:28Z</time>
      </trkpt>
      <trkpt lat="47.96175" lon="-3.8298">
        <ele>119.2</ele>
        <time>2021-08-12T08:43:29Z</time>
      </trkpt>
      <trkpt lat="47.96168" lon="-3.8298">
        <ele>119.2</ele>
        <time>2021-08-12T08:43:30Z</time>
      </trkpt>
      <trkpt lat="47.96161" lon="-3.8298">
        <ele>119</ele>
        <time>2021-08-12T08:43:31Z</time>
      </trkpt>
      <trkpt lat="47.96154" lon="-3.82979">
        <ele>119</ele>
        <time>2021-08-12T08:43:32Z</time>
      </trkpt>
      <trkpt lat="47.96148" lon="-3.82978">
        <ele>119</ele>
        <time>2021-08-12T08:43:33Z</time>
      </trkpt>
      <trkpt lat="47.96141" lon="-3.82976">
        <ele>119</ele>
        <time>2021-08-12T08:43:34Z</time>
      </trkpt>
      <trkpt lat="47.96135" lon="-3.82973">
        <ele>119</ele>
        <time>2021-08-12T08:43:35Z</time>
      </trkpt>
      <trkpt lat="47.96128" lon="-3.82969">
        <ele>118.8</ele>
        <time>2021-08-12T08:43:36Z</time>
      </trkpt>
      <trkpt lat="47.96122" lon="-3.82964">
        <ele>118.8</ele>
        <time>2021-08-12T08:43:37Z</time>
      </trkpt>
      <trkpt lat="47.96115" lon="-3.82958">
        <ele>118.8</ele>
        <time>2021-08-12T08:43:38Z</time>
      </trkpt>
      <trkpt lat="47.96109" lon="-3.82953">
        <ele>118.6</ele>
        <time>2021-08-12T08:43:39Z</time>
      </trkpt>
      <trkpt lat="47.96102" lon="-3.82949">
        <ele>118.6</ele>
        <time>2021-08-12T08:43:40Z</time>
      </trkpt>
      <trkpt lat="47.96095" lon="-3.82945">
        <ele>118.6</ele>
        <time>2021-08-12T08:43:41Z</time>
      </trkpt>
      <trkpt lat="47.96088" lon="-3.82942">
        <ele>118.4</ele>
        <time>2021-08-12T08:43:42Z</time>
      </trkpt>
      <trkpt lat="47.96081" lon="-3.8294">
        <ele>118.6</ele>
        <time>2021-08-12T08:43:43Z</time>
      </trkpt>
      <trkpt lat="47.96075" lon="-3.82939">
        <ele>118.8</ele>
        <time>2021-08-12T08:43:44Z</time>
      </trkpt>
      <trkpt lat="47.96069" lon="-3.82937">
        <ele>118.8</ele>
        <time>2021-08-12T08:43:45Z</time>
      </trkpt>
      <trkpt lat="47.96063" lon="-3.82937">
        <ele>118.8</ele>
        <time>2021-08-12T08:43:46Z</time>
      </trkpt>
      <trkpt lat="47.96053" lon="-3.82936">
        <ele>119</ele>
        <time>2021-08-12T08:43:48Z</time>
      </trkpt>
      <trkpt lat="47.96048" lon="-3.82936">
        <ele>119</ele>
        <time>2021-08-12T08:43:49Z</time>
      </trkpt>
      <trkpt lat="47.96043" lon="-3.82935">
        <ele>119.2</ele>
        <time>2021-08-12T08:43:50Z</time>
      </trkpt>
      <trkpt lat="47.96038" lon="-3.82935">
        <ele>119.2</ele>
        <time>2021-08-12T08:43:51Z</time>
      </trkpt>
      <trkpt lat="47.96034" lon="-3.82936">
        <ele>119.4</ele>
        <time>2021-08-12T08:43:52Z</time>
      </trkpt>
      <trkpt lat="47.96029" lon="-3.82936">
        <ele>119.6</ele>
        <time>2021-08-12T08:43:53Z</time>
      </trkpt>
      <trkpt lat="47.96025" lon="-3.82937">
        <ele>120.2</ele>
        <time>2021-08-12T08:43:54Z</time>
      </trkpt>
      <trkpt lat="47.96022" lon="-3.82939">
        <ele>120.6</ele>
        <time>2021-08-12T08:43:55Z</time>
      </trkpt>
      <trkpt lat="47.9602" lon="-3.82943">
        <ele>121.2</ele>
        <time>2021-08-12T08:43:56Z</time>
      </trkpt>
      <trkpt lat="47.9602" lon="-3.82948">
        <ele>121.6</ele>
        <time>2021-08-12T08:43:57Z</time>
      </trkpt>
      <trkpt lat="47.96021" lon="-3.82959">
        <ele>122.2</ele>
        <time>2021-08-12T08:43:59Z</time>
      </trkpt>
      <trkpt lat="47.96021" lon="-3.82966">
        <ele>122.2</ele>
        <time>2021-08-12T08:44:00Z</time>
      </trkpt>
      <trkpt lat="47.96022" lon="-3.82973">
        <ele>122.4</ele>
        <time>2021-08-12T08:44:01Z</time>
      </trkpt>
      <trkpt lat="47.96022" lon="-3.82981">
        <ele>122.2</ele>
        <time>2021-08-12T08:44:02Z</time>
      </trkpt>
      <trkpt lat="47.96022" lon="-3.82988">
        <ele>122.2</ele>
        <time>2021-08-12T08:44:03Z</time>
      </trkpt>
      <trkpt lat="47.96023" lon="-3.82996">
        <ele>122.2</ele>
        <time>2021-08-12T08:44:04Z</time>
      </trkpt>
      <trkpt lat="47.96023" lon="-3.83004">
        <ele>122.2</ele>
        <time>2021-08-12T08:44:05Z</time>
      </trkpt>
      <trkpt lat="47.96023" lon="-3.83013">
        <ele>122.2</ele>
        <time>2021-08-12T08:44:06Z</time>
      </trkpt>
      <trkpt lat="47.96023" lon="-3.83021">
        <ele>122.2</ele>
        <time>2021-08-12T08:44:07Z</time>
      </trkpt>
      <trkpt lat="47.96023" lon="-3.83029">
        <ele>122</ele>
        <time>2021-08-12T08:44:08Z</time>
      </trkpt>
      <trkpt lat="47.96023" lon="-3.83046">
        <ele>121.8</ele>
        <time>2021-08-12T08:44:10Z</time>
      </trkpt>
      <trkpt lat="47.96024" lon="-3.83054">
        <ele>121.6</ele>
        <time>2021-08-12T08:44:11Z</time>
      </trkpt>
      <trkpt lat="47.96025" lon="-3.83063">
        <ele>121.4</ele>
        <time>2021-08-12T08:44:12Z</time>
      </trkpt>
      <trkpt lat="47.96025" lon="-3.83071">
        <ele>121.2</ele>
        <time>2021-08-12T08:44:13Z</time>
      </trkpt>
      <trkpt lat="47.96026" lon="-3.8308">
        <ele>121</ele>
        <time>2021-08-12T08:44:14Z</time>
      </trkpt>
      <trkpt lat="47.96027" lon="-3.83088">
        <ele>121</ele>
        <time>2021-08-12T08:44:15Z</time>
      </trkpt>
      <trkpt lat="47.96027" lon="-3.83098">
        <ele>120.8</ele>
        <time>2021-08-12T08:44:16Z</time>
      </trkpt>
      <trkpt lat="47.96027" lon="-3.83106">
        <ele>120.8</ele>
        <time>2021-08-12T08:44:17Z</time>
      </trkpt>
      <trkpt lat="47.96028" lon="-3.83115">
        <ele>120.6</ele>
        <time>2021-08-12T08:44:18Z</time>
      </trkpt>
      <trkpt lat="47.96028" lon="-3.83124">
        <ele>120.6</ele>
        <time>2021-08-12T08:44:19Z</time>
      </trkpt>
      <trkpt lat="47.96028" lon="-3.83132">
        <ele>120.6</ele>
        <time>2021-08-12T08:44:20Z</time>
      </trkpt>
      <trkpt lat="47.96029" lon="-3.83141">
        <ele>120.6</ele>
        <time>2021-08-12T08:44:21Z</time>
      </trkpt>
      <trkpt lat="47.96029" lon="-3.83149">
        <ele>120.6</ele>
        <time>2021-08-12T08:44:22Z</time>
      </trkpt>
      <trkpt lat="47.9603" lon="-3.83157">
        <ele>120.6</ele>
        <time>2021-08-12T08:44:23Z</time>
      </trkpt>
      <trkpt lat="47.96031" lon="-3.83165">
        <ele>120.6</ele>
        <time>2021-08-12T08:44:24Z</time>
      </trkpt>
      <trkpt lat="47.96032" lon="-3.83173">
        <ele>120.6</ele>
        <time>2021-08-12T08:44:25Z</time>
      </trkpt>
      <trkpt lat="47.96032" lon="-3.83181">
        <ele>120.6</ele>
        <time>2021-08-12T08:44:26Z</time>
      </trkpt>
      <trkpt lat="47.96033" lon="-3.83188">
        <ele>120.8</ele>
        <time>2021-08-12T08:44:27Z</time>
      </trkpt>
      <trkpt lat="47.96033" lon="-3.83194">
        <ele>120.8</ele>
        <time>2021-08-12T08:44:28Z</time>
      </trkpt>
      <trkpt lat="47.96033" lon="-3.832">
        <ele>121</ele>
        <time>2021-08-12T08:44:29Z</time>
      </trkpt>
      <trkpt lat="47.96033" lon="-3.83205">
        <ele>121.2</ele>
        <time>2021-08-12T08:44:30Z</time>
      </trkpt>
      <trkpt lat="47.96034" lon="-3.8321">
        <ele>121.2</ele>
        <time>2021-08-12T08:44:31Z</time>
      </trkpt>
      <trkpt lat="47.96034" lon="-3.83215">
        <ele>121.2</ele>
        <time>2021-08-12T08:44:32Z</time>
      </trkpt>
      <trkpt lat="47.96033" lon="-3.83219">
        <ele>121.6</ele>
        <time>2021-08-12T08:44:33Z</time>
      </trkpt>
      <trkpt lat="47.96033" lon="-3.83224">
        <ele>121.6</ele>
        <time>2021-08-12T08:44:34Z</time>
      </trkpt>
      <trkpt lat="47.96031" lon="-3.83228">
        <ele>122</ele>
        <time>2021-08-12T08:44:35Z</time>
      </trkpt>
      <trkpt lat="47.9603" lon="-3.83232">
        <ele>122.2</ele>
        <time>2021-08-12T08:44:36Z</time>
      </trkpt>
      <trkpt lat="47.96028" lon="-3.83236">
        <ele>122.4</ele>
        <time>2021-08-12T08:44:37Z</time>
      </trkpt>
      <trkpt lat="47.96025" lon="-3.8324">
        <ele>122.4</ele>
        <time>2021-08-12T08:44:38Z</time>
      </trkpt>
      <trkpt lat="47.96023" lon="-3.83244">
        <ele>122.4</ele>
        <time>2021-08-12T08:44:39Z</time>
      </trkpt>
      <trkpt lat="47.96021" lon="-3.83248">
        <ele>122.4</ele>
        <time>2021-08-12T08:44:40Z</time>
      </trkpt>
      <trkpt lat="47.96018" lon="-3.83252">
        <ele>122.4</ele>
        <time>2021-08-12T08:44:41Z</time>
      </trkpt>
      <trkpt lat="47.96013" lon="-3.8326">
        <ele>122.4</ele>
        <time>2021-08-12T08:44:43Z</time>
      </trkpt>
      <trkpt lat="47.96011" lon="-3.83264">
        <ele>122.4</ele>
        <time>2021-08-12T08:44:44Z</time>
      </trkpt>
      <trkpt lat="47.96008" lon="-3.83268">
        <ele>122.4</ele>
        <time>2021-08-12T08:44:45Z</time>
      </trkpt>
      <trkpt lat="47.96006" lon="-3.83272">
        <ele>122.4</ele>
        <time>2021-08-12T08:44:46Z</time>
      </trkpt>
      <trkpt lat="47.96003" lon="-3.83275">
        <ele>122.4</ele>
        <time>2021-08-12T08:44:47Z</time>
      </trkpt>
      <trkpt lat="47.95999" lon="-3.83278">
        <ele>122.4</ele>
        <time>2021-08-12T08:44:48Z</time>
      </trkpt>
      <trkpt lat="47.95996" lon="-3.8328">
        <ele>122.4</ele>
        <time>2021-08-12T08:44:49Z</time>
      </trkpt>
      <trkpt lat="47.95992" lon="-3.83281">
        <ele>122.4</ele>
        <time>2021-08-12T08:44:50Z</time>
      </trkpt>
      <trkpt lat="47.95988" lon="-3.83282">
        <ele>122.4</ele>
        <time>2021-08-12T08:44:51Z</time>
      </trkpt>
      <trkpt lat="47.95984" lon="-3.83283">
        <ele>122.4</ele>
        <time>2021-08-12T08:44:52Z</time>
      </trkpt>
      <trkpt lat="47.95977" lon="-3.83284">
        <ele>122.6</ele>
        <time>2021-08-12T08:44:54Z</time>
      </trkpt>
      <trkpt lat="47.95974" lon="-3.83284">
        <ele>122.4</ele>
        <time>2021-08-12T08:44:55Z</time>
      </trkpt>
      <trkpt lat="47.95971" lon="-3.83284">
        <ele>122.4</ele>
        <time>2021-08-12T08:44:56Z</time>
      </trkpt>
      <trkpt lat="47.95968" lon="-3.83285">
        <ele>122.4</ele>
        <time>2021-08-12T08:44:57Z</time>
      </trkpt>
      <trkpt lat="47.95965" lon="-3.83284">
        <ele>122.4</ele>
        <time>2021-08-12T08:44:58Z</time>
      </trkpt>
      <trkpt lat="47.95962" lon="-3.83284">
        <ele>122.6</ele>
        <time>2021-08-12T08:44:59Z</time>
      </trkpt>
      <trkpt lat="47.9596" lon="-3.83284">
        <ele>122.8</ele>
        <time>2021-08-12T08:45:00Z</time>
      </trkpt>
      <trkpt lat="47.95957" lon="-3.83285">
        <ele>122.8</ele>
        <time>2021-08-12T08:45:01Z</time>
      </trkpt>
      <trkpt lat="47.95954" lon="-3.83283">
        <ele>123</ele>
        <time>2021-08-12T08:45:02Z</time>
      </trkpt>
      <trkpt lat="47.95951" lon="-3.8328">
        <ele>123.2</ele>
        <time>2021-08-12T08:45:03Z</time>
      </trkpt>
      <trkpt lat="47.9595" lon="-3.83275">
        <ele>123.6</ele>
        <time>2021-08-12T08:45:04Z</time>
      </trkpt>
      <trkpt lat="47.95949" lon="-3.8327">
        <ele>123.8</ele>
        <time>2021-08-12T08:45:05Z</time>
      </trkpt>
      <trkpt lat="47.95949" lon="-3.83264">
        <ele>123.8</ele>
        <time>2021-08-12T08:45:06Z</time>
      </trkpt>
      <trkpt lat="47.95948" lon="-3.83258">
        <ele>123.8</ele>
        <time>2021-08-12T08:45:07Z</time>
      </trkpt>
      <trkpt lat="47.95947" lon="-3.83252">
        <ele>123.8</ele>
        <time>2021-08-12T08:45:08Z</time>
      </trkpt>
      <trkpt lat="47.95946" lon="-3.83245">
        <ele>123.8</ele>
        <time>2021-08-12T08:45:09Z</time>
      </trkpt>
      <trkpt lat="47.95946" lon="-3.83238">
        <ele>123.8</ele>
        <time>2021-08-12T08:45:10Z</time>
      </trkpt>
      <trkpt lat="47.95945" lon="-3.8323">
        <ele>123.8</ele>
        <time>2021-08-12T08:45:11Z</time>
      </trkpt>
      <trkpt lat="47.95944" lon="-3.83222">
        <ele>123.8</ele>
        <time>2021-08-12T08:45:12Z</time>
      </trkpt>
      <trkpt lat="47.95943" lon="-3.83214">
        <ele>123.8</ele>
        <time>2021-08-12T08:45:13Z</time>
      </trkpt>
      <trkpt lat="47.95942" lon="-3.83206">
        <ele>123.8</ele>
        <time>2021-08-12T08:45:14Z</time>
      </trkpt>
      <trkpt lat="47.95939" lon="-3.83189">
        <ele>123.8</ele>
        <time>2021-08-12T08:45:16Z</time>
      </trkpt>
      <trkpt lat="47.95938" lon="-3.8318">
        <ele>123.8</ele>
        <time>2021-08-12T08:45:17Z</time>
      </trkpt>
      <trkpt lat="47.95937" lon="-3.83171">
        <ele>123.6</ele>
        <time>2021-08-12T08:45:18Z</time>
      </trkpt>
      <trkpt lat="47.95936" lon="-3.83163">
        <ele>123.6</ele>
        <time>2021-08-12T08:45:19Z</time>
      </trkpt>
      <trkpt lat="47.95935" lon="-3.83154">
        <ele>123.2</ele>
        <time>2021-08-12T08:45:20Z</time>
      </trkpt>
      <trkpt lat="47.95935" lon="-3.83145">
        <ele>123.2</ele>
        <time>2021-08-12T08:45:21Z</time>
      </trkpt>
      <trkpt lat="47.95934" lon="-3.83136">
        <ele>123</ele>
        <time>2021-08-12T08:45:22Z</time>
      </trkpt>
      <trkpt lat="47.95934" lon="-3.83126">
        <ele>122.8</ele>
        <time>2021-08-12T08:45:23Z</time>
      </trkpt>
      <trkpt lat="47.95933" lon="-3.83118">
        <ele>122.6</ele>
        <time>2021-08-12T08:45:24Z</time>
      </trkpt>
      <trkpt lat="47.95933" lon="-3.83109">
        <ele>122.4</ele>
        <time>2021-08-12T08:45:25Z</time>
      </trkpt>
      <trkpt lat="47.95932" lon="-3.83101">
        <ele>122.2</ele>
        <time>2021-08-12T08:45:26Z</time>
      </trkpt>
      <trkpt lat="47.95931" lon="-3.83093">
        <ele>121.8</ele>
        <time>2021-08-12T08:45:27Z</time>
      </trkpt>
      <trkpt lat="47.95931" lon="-3.83085">
        <ele>121.8</ele>
        <time>2021-08-12T08:45:28Z</time>
      </trkpt>
      <trkpt lat="47.9593" lon="-3.83076">
        <ele>121.6</ele>
        <time>2021-08-12T08:45:29Z</time>
      </trkpt>
      <trkpt lat="47.9593" lon="-3.83068">
        <ele>121.6</ele>
        <time>2021-08-12T08:45:30Z</time>
      </trkpt>
      <trkpt lat="47.95929" lon="-3.8306">
        <ele>121.6</ele>
        <time>2021-08-12T08:45:31Z</time>
      </trkpt>
      <trkpt lat="47.95928" lon="-3.83052">
        <ele>121.6</ele>
        <time>2021-08-12T08:45:32Z</time>
      </trkpt>
      <trkpt lat="47.95927" lon="-3.83044">
        <ele>121.4</ele>
        <time>2021-08-12T08:45:33Z</time>
      </trkpt>
      <trkpt lat="47.95927" lon="-3.83036">
        <ele>121.2</ele>
        <time>2021-08-12T08:45:34Z</time>
      </trkpt>
      <trkpt lat="47.95927" lon="-3.83029">
        <ele>121</ele>
        <time>2021-08-12T08:45:35Z</time>
      </trkpt>
      <trkpt lat="47.95927" lon="-3.83021">
        <ele>120.8</ele>
        <time>2021-08-12T08:45:36Z</time>
      </trkpt>
      <trkpt lat="47.95926" lon="-3.83007">
        <ele>120.8</ele>
        <time>2021-08-12T08:45:38Z</time>
      </trkpt>
      <trkpt lat="47.95926" lon="-3.83001">
        <ele>120.6</ele>
        <time>2021-08-12T08:45:39Z</time>
      </trkpt>
      <trkpt lat="47.95926" lon="-3.82995">
        <ele>120.6</ele>
        <time>2021-08-12T08:45:40Z</time>
      </trkpt>
      <trkpt lat="47.95926" lon="-3.82989">
        <ele>120.6</ele>
        <time>2021-08-12T08:45:41Z</time>
      </trkpt>
      <trkpt lat="47.95926" lon="-3.82984">
        <ele>120.6</ele>
        <time>2021-08-12T08:45:42Z</time>
      </trkpt>
      <trkpt lat="47.95924" lon="-3.8298">
        <ele>120.6</ele>
        <time>2021-08-12T08:45:43Z</time>
      </trkpt>
      <trkpt lat="47.95923" lon="-3.82978">
        <ele>120.6</ele>
        <time>2021-08-12T08:45:44Z</time>
      </trkpt>
      <trkpt lat="47.95921" lon="-3.82976">
        <ele>120.6</ele>
        <time>2021-08-12T08:45:45Z</time>
      </trkpt>
      <trkpt lat="47.9592" lon="-3.82974">
        <ele>120.6</ele>
        <time>2021-08-12T08:45:46Z</time>
      </trkpt>
      <trkpt lat="47.95918" lon="-3.82972">
        <ele>120.6</ele>
        <time>2021-08-12T08:45:47Z</time>
      </trkpt>
      <trkpt lat="47.95914" lon="-3.82968">
        <ele>120.8</ele>
        <time>2021-08-12T08:45:49Z</time>
      </trkpt>
      <trkpt lat="47.95912" lon="-3.82967">
        <ele>120.8</ele>
        <time>2021-08-12T08:45:50Z</time>
      </trkpt>
      <trkpt lat="47.9591" lon="-3.8297">
        <ele>120.8</ele>
        <time>2021-08-12T08:45:51Z</time>
      </trkpt>
      <trkpt lat="47.95908" lon="-3.82974">
        <ele>120.8</ele>
        <time>2021-08-12T08:45:52Z</time>
      </trkpt>
      <trkpt lat="47.95906" lon="-3.82978">
        <ele>120.8</ele>
        <time>2021-08-12T08:45:53Z</time>
      </trkpt>
      <trkpt lat="47.95903" lon="-3.82982">
        <ele>120.8</ele>
        <time>2021-08-12T08:45:54Z</time>
      </trkpt>
      <trkpt lat="47.959" lon="-3.82986">
        <ele>120.8</ele>
        <time>2021-08-12T08:45:55Z</time>
      </trkpt>
      <trkpt lat="47.95896" lon="-3.82989">
        <ele>121</ele>
        <time>2021-08-12T08:45:56Z</time>
      </trkpt>
      <trkpt lat="47.95893" lon="-3.82992">
        <ele>121</ele>
        <time>2021-08-12T08:45:57Z</time>
      </trkpt>
      <trkpt lat="47.9589" lon="-3.82996">
        <ele>121</ele>
        <time>2021-08-12T08:45:58Z</time>
      </trkpt>
      <trkpt lat="47.9589" lon="-3.83001">
        <ele>121</ele>
        <time>2021-08-12T08:45:59Z</time>
      </trkpt>
      <trkpt lat="47.95891" lon="-3.83007">
        <ele>121</ele>
        <time>2021-08-12T08:46:00Z</time>
      </trkpt>
      <trkpt lat="47.95893" lon="-3.83012">
        <ele>121.2</ele>
        <time>2021-08-12T08:46:01Z</time>
      </trkpt>
      <trkpt lat="47.95893" lon="-3.83018">
        <ele>121</ele>
        <time>2021-08-12T08:46:02Z</time>
      </trkpt>
      <trkpt lat="47.95894" lon="-3.83024">
        <ele>121</ele>
        <time>2021-08-12T08:46:03Z</time>
      </trkpt>
      <trkpt lat="47.95894" lon="-3.8303">
        <ele>121</ele>
        <time>2021-08-12T08:46:04Z</time>
      </trkpt>
      <trkpt lat="47.95895" lon="-3.83036">
        <ele>121</ele>
        <time>2021-08-12T08:46:05Z</time>
      </trkpt>
      <trkpt lat="47.95895" lon="-3.83042">
        <ele>121</ele>
        <time>2021-08-12T08:46:06Z</time>
      </trkpt>
      <trkpt lat="47.95896" lon="-3.83048">
        <ele>121.2</ele>
        <time>2021-08-12T08:46:07Z</time>
      </trkpt>
      <trkpt lat="47.95896" lon="-3.83054">
        <ele>121.4</ele>
        <time>2021-08-12T08:46:08Z</time>
      </trkpt>
      <trkpt lat="47.95897" lon="-3.8306">
        <ele>121.4</ele>
        <time>2021-08-12T08:46:09Z</time>
      </trkpt>
      <trkpt lat="47.95897" lon="-3.83072">
        <ele>121.6</ele>
        <time>2021-08-12T08:46:11Z</time>
      </trkpt>
      <trkpt lat="47.95897" lon="-3.83078">
        <ele>121.8</ele>
        <time>2021-08-12T08:46:12Z</time>
      </trkpt>
      <trkpt lat="47.95898" lon="-3.83084">
        <ele>122</ele>
        <time>2021-08-12T08:46:13Z</time>
      </trkpt>
      <trkpt lat="47.95898" lon="-3.8309">
        <ele>122.2</ele>
        <time>2021-08-12T08:46:14Z</time>
      </trkpt>
      <trkpt lat="47.95899" lon="-3.83096">
        <ele>122.4</ele>
        <time>2021-08-12T08:46:15Z</time>
      </trkpt>
      <trkpt lat="47.95899" lon="-3.83102">
        <ele>122.6</ele>
        <time>2021-08-12T08:46:16Z</time>
      </trkpt>
      <trkpt lat="47.959" lon="-3.83108">
        <ele>122.6</ele>
        <time>2021-08-12T08:46:17Z</time>
      </trkpt>
      <trkpt lat="47.959" lon="-3.83114">
        <ele>122.8</ele>
        <time>2021-08-12T08:46:18Z</time>
      </trkpt>
      <trkpt lat="47.95901" lon="-3.8312">
        <ele>122.8</ele>
        <time>2021-08-12T08:46:19Z</time>
      </trkpt>
      <trkpt lat="47.95901" lon="-3.83126">
        <ele>123</ele>
        <time>2021-08-12T08:46:20Z</time>
      </trkpt>
      <trkpt lat="47.95902" lon="-3.83138">
        <ele>123</ele>
        <time>2021-08-12T08:46:22Z</time>
      </trkpt>
      <trkpt lat="47.95901" lon="-3.83144">
        <ele>123</ele>
        <time>2021-08-12T08:46:23Z</time>
      </trkpt>
      <trkpt lat="47.959" lon="-3.83149">
        <ele>123.2</ele>
        <time>2021-08-12T08:46:24Z</time>
      </trkpt>
      <trkpt lat="47.95899" lon="-3.83154">
        <ele>123.4</ele>
        <time>2021-08-12T08:46:25Z</time>
      </trkpt>
      <trkpt lat="47.95897" lon="-3.83159">
        <ele>123.4</ele>
        <time>2021-08-12T08:46:26Z</time>
      </trkpt>
      <trkpt lat="47.95895" lon="-3.83163">
        <ele>123.4</ele>
        <time>2021-08-12T08:46:27Z</time>
      </trkpt>
      <trkpt lat="47.95893" lon="-3.83167">
        <ele>123.6</ele>
        <time>2021-08-12T08:46:28Z</time>
      </trkpt>
      <trkpt lat="47.95891" lon="-3.83172">
        <ele>123.6</ele>
        <time>2021-08-12T08:46:29Z</time>
      </trkpt>
      <trkpt lat="47.9589" lon="-3.83176">
        <ele>123.6</ele>
        <time>2021-08-12T08:46:30Z</time>
      </trkpt>
      <trkpt lat="47.9589" lon="-3.83181">
        <ele>123.8</ele>
        <time>2021-08-12T08:46:31Z</time>
      </trkpt>
      <trkpt lat="47.95888" lon="-3.83191">
        <ele>123.8</ele>
        <time>2021-08-12T08:46:33Z</time>
      </trkpt>
      <trkpt lat="47.95887" lon="-3.83196">
        <ele>124.2</ele>
        <time>2021-08-12T08:46:34Z</time>
      </trkpt>
      <trkpt lat="47.95887" lon="-3.83201">
        <ele>124.2</ele>
        <time>2021-08-12T08:46:35Z</time>
      </trkpt>
      <trkpt lat="47.95887" lon="-3.83205">
        <ele>124.6</ele>
        <time>2021-08-12T08:46:36Z</time>
      </trkpt>
      <trkpt lat="47.95887" lon="-3.8321">
        <ele>124.6</ele>
        <time>2021-08-12T08:46:37Z</time>
      </trkpt>
      <trkpt lat="47.95887" lon="-3.83214">
        <ele>124.8</ele>
        <time>2021-08-12T08:46:38Z</time>
      </trkpt>
      <trkpt lat="47.95887" lon="-3.83218">
        <ele>125</ele>
        <time>2021-08-12T08:46:39Z</time>
      </trkpt>
      <trkpt lat="47.95888" lon="-3.83223">
        <ele>125.2</ele>
        <time>2021-08-12T08:46:40Z</time>
      </trkpt>
      <trkpt lat="47.95888" lon="-3.83227">
        <ele>125.4</ele>
        <time>2021-08-12T08:46:41Z</time>
      </trkpt>
      <trkpt lat="47.95888" lon="-3.83231">
        <ele>125.6</ele>
        <time>2021-08-12T08:46:42Z</time>
      </trkpt>
      <trkpt lat="47.95888" lon="-3.8324">
        <ele>126.2</ele>
        <time>2021-08-12T08:46:44Z</time>
      </trkpt>
      <trkpt lat="47.95888" lon="-3.83244">
        <ele>126.4</ele>
        <time>2021-08-12T08:46:45Z</time>
      </trkpt>
      <trkpt lat="47.95888" lon="-3.83248">
        <ele>126.6</ele>
        <time>2021-08-12T08:46:46Z</time>
      </trkpt>
      <trkpt lat="47.95888" lon="-3.83253">
        <ele>126.8</ele>
        <time>2021-08-12T08:46:47Z</time>
      </trkpt>
      <trkpt lat="47.95889" lon="-3.83257">
        <ele>126.8</ele>
        <time>2021-08-12T08:46:48Z</time>
      </trkpt>
      <trkpt lat="47.95889" lon="-3.83261">
        <ele>127</ele>
        <time>2021-08-12T08:46:49Z</time>
      </trkpt>
      <trkpt lat="47.95889" lon="-3.83265">
        <ele>127.4</ele>
        <time>2021-08-12T08:46:50Z</time>
      </trkpt>
      <trkpt lat="47.9589" lon="-3.83269">
        <ele>127.6</ele>
        <time>2021-08-12T08:46:51Z</time>
      </trkpt>
      <trkpt lat="47.9589" lon="-3.83273">
        <ele>127.8</ele>
        <time>2021-08-12T08:46:52Z</time>
      </trkpt>
      <trkpt lat="47.9589" lon="-3.83276">
        <ele>128</ele>
        <time>2021-08-12T08:46:53Z</time>
      </trkpt>
      <trkpt lat="47.9589" lon="-3.83284">
        <ele>128.4</ele>
        <time>2021-08-12T08:46:55Z</time>
      </trkpt>
      <trkpt lat="47.9589" lon="-3.83288">
        <ele>128.6</ele>
        <time>2021-08-12T08:46:56Z</time>
      </trkpt>
      <trkpt lat="47.9589" lon="-3.83292">
        <ele>128.8</ele>
        <time>2021-08-12T08:46:57Z</time>
      </trkpt>
      <trkpt lat="47.95891" lon="-3.83296">
        <ele>129</ele>
        <time>2021-08-12T08:46:58Z</time>
      </trkpt>
      <trkpt lat="47.95891" lon="-3.833">
        <ele>129.2</ele>
        <time>2021-08-12T08:46:59Z</time>
      </trkpt>
      <trkpt lat="47.95891" lon="-3.83304">
        <ele>129.6</ele>
        <time>2021-08-12T08:47:00Z</time>
      </trkpt>
      <trkpt lat="47.95892" lon="-3.83308">
        <ele>129.8</ele>
        <time>2021-08-12T08:47:01Z</time>
      </trkpt>
      <trkpt lat="47.95892" lon="-3.83312">
        <ele>129.8</ele>
        <time>2021-08-12T08:47:02Z</time>
      </trkpt>
      <trkpt lat="47.95892" lon="-3.83316">
        <ele>130</ele>
        <time>2021-08-12T08:47:03Z</time>
      </trkpt>
      <trkpt lat="47.95892" lon="-3.8332">
        <ele>130.2</ele>
        <time>2021-08-12T08:47:04Z</time>
      </trkpt>
      <trkpt lat="47.95893" lon="-3.83328">
        <ele>130.4</ele>
        <time>2021-08-12T08:47:06Z</time>
      </trkpt>
      <trkpt lat="47.95893" lon="-3.83332">
        <ele>130.6</ele>
        <time>2021-08-12T08:47:07Z</time>
      </trkpt>
      <trkpt lat="47.95893" lon="-3.83336">
        <ele>130.8</ele>
        <time>2021-08-12T08:47:08Z</time>
      </trkpt>
      <trkpt lat="47.95893" lon="-3.8334">
        <ele>130.8</ele>
        <time>2021-08-12T08:47:09Z</time>
      </trkpt>
      <trkpt lat="47.95893" lon="-3.83344">
        <ele>130.8</ele>
        <time>2021-08-12T08:47:10Z</time>
      </trkpt>
      <trkpt lat="47.95894" lon="-3.83348">
        <ele>131</ele>
        <time>2021-08-12T08:47:11Z</time>
      </trkpt>
      <trkpt lat="47.95894" lon="-3.83353">
        <ele>131</ele>
        <time>2021-08-12T08:47:12Z</time>
      </trkpt>
      <trkpt lat="47.95894" lon="-3.83357">
        <ele>131.4</ele>
        <time>2021-08-12T08:47:13Z</time>
      </trkpt>
      <trkpt lat="47.95894" lon="-3.83361">
        <ele>131.4</ele>
        <time>2021-08-12T08:47:14Z</time>
      </trkpt>
      <trkpt lat="47.95895" lon="-3.83365">
        <ele>131.6</ele>
        <time>2021-08-12T08:47:15Z</time>
      </trkpt>
      <trkpt lat="47.95896" lon="-3.83374">
        <ele>132</ele>
        <time>2021-08-12T08:47:17Z</time>
      </trkpt>
      <trkpt lat="47.95896" lon="-3.83378">
        <ele>132</ele>
        <time>2021-08-12T08:47:18Z</time>
      </trkpt>
      <trkpt lat="47.95897" lon="-3.83382">
        <ele>132</ele>
        <time>2021-08-12T08:47:19Z</time>
      </trkpt>
      <trkpt lat="47.95897" lon="-3.83386">
        <ele>132.2</ele>
        <time>2021-08-12T08:47:20Z</time>
      </trkpt>
      <trkpt lat="47.95897" lon="-3.83391">
        <ele>132.2</ele>
        <time>2021-08-12T08:47:21Z</time>
      </trkpt>
      <trkpt lat="47.95897" lon="-3.83395">
        <ele>132.2</ele>
        <time>2021-08-12T08:47:22Z</time>
      </trkpt>
      <trkpt lat="47.95898" lon="-3.834">
        <ele>132.2</ele>
        <time>2021-08-12T08:47:23Z</time>
      </trkpt>
      <trkpt lat="47.95898" lon="-3.83404">
        <ele>132.4</ele>
        <time>2021-08-12T08:47:24Z</time>
      </trkpt>
      <trkpt lat="47.95898" lon="-3.83408">
        <ele>132.4</ele>
        <time>2021-08-12T08:47:25Z</time>
      </trkpt>
      <trkpt lat="47.95898" lon="-3.83413">
        <ele>132.4</ele>
        <time>2021-08-12T08:47:26Z</time>
      </trkpt>
      <trkpt lat="47.95897" lon="-3.83421">
        <ele>132.6</ele>
        <time>2021-08-12T08:47:28Z</time>
      </trkpt>
      <trkpt lat="47.95897" lon="-3.83426">
        <ele>132.6</ele>
        <time>2021-08-12T08:47:29Z</time>
      </trkpt>
      <trkpt lat="47.95897" lon="-3.8343">
        <ele>132.8</ele>
        <time>2021-08-12T08:47:30Z</time>
      </trkpt>
      <trkpt lat="47.95897" lon="-3.83434">
        <ele>133</ele>
        <time>2021-08-12T08:47:31Z</time>
      </trkpt>
      <trkpt lat="47.95898" lon="-3.83439">
        <ele>133.4</ele>
        <time>2021-08-12T08:47:32Z</time>
      </trkpt>
      <trkpt lat="47.95898" lon="-3.83443">
        <ele>133.6</ele>
        <time>2021-08-12T08:47:33Z</time>
      </trkpt>
      <trkpt lat="47.95898" lon="-3.83448">
        <ele>133.8</ele>
        <time>2021-08-12T08:47:34Z</time>
      </trkpt>
      <trkpt lat="47.95898" lon="-3.83452">
        <ele>134</ele>
        <time>2021-08-12T08:47:35Z</time>
      </trkpt>
      <trkpt lat="47.95898" lon="-3.83456">
        <ele>134</ele>
        <time>2021-08-12T08:47:36Z</time>
      </trkpt>
      <trkpt lat="47.95898" lon="-3.83461">
        <ele>134.2</ele>
        <time>2021-08-12T08:47:37Z</time>
      </trkpt>
      <trkpt lat="47.95898" lon="-3.83469">
        <ele>134.2</ele>
        <time>2021-08-12T08:47:39Z</time>
      </trkpt>
      <trkpt lat="47.95898" lon="-3.83474">
        <ele>134.2</ele>
        <time>2021-08-12T08:47:40Z</time>
      </trkpt>
      <trkpt lat="47.95898" lon="-3.83478">
        <ele>134.4</ele>
        <time>2021-08-12T08:47:41Z</time>
      </trkpt>
      <trkpt lat="47.95898" lon="-3.83482">
        <ele>134.4</ele>
        <time>2021-08-12T08:47:42Z</time>
      </trkpt>
      <trkpt lat="47.95898" lon="-3.83486">
        <ele>134.2</ele>
        <time>2021-08-12T08:47:43Z</time>
      </trkpt>
      <trkpt lat="47.95898" lon="-3.8349">
        <ele>134.4</ele>
        <time>2021-08-12T08:47:44Z</time>
      </trkpt>
      <trkpt lat="47.95898" lon="-3.83494">
        <ele>134.6</ele>
        <time>2021-08-12T08:47:45Z</time>
      </trkpt>
      <trkpt lat="47.95898" lon="-3.83497">
        <ele>134.8</ele>
        <time>2021-08-12T08:47:46Z</time>
      </trkpt>
      <trkpt lat="47.95898" lon="-3.83501">
        <ele>135</ele>
        <time>2021-08-12T08:47:47Z</time>
      </trkpt>
      <trkpt lat="47.95898" lon="-3.83505">
        <ele>135.2</ele>
        <time>2021-08-12T08:47:48Z</time>
      </trkpt>
      <trkpt lat="47.95898" lon="-3.83509">
        <ele>135.4</ele>
        <time>2021-08-12T08:47:49Z</time>
      </trkpt>
      <trkpt lat="47.95899" lon="-3.83513">
        <ele>135.6</ele>
        <time>2021-08-12T08:47:50Z</time>
      </trkpt>
      <trkpt lat="47.95899" lon="-3.83517">
        <ele>135.8</ele>
        <time>2021-08-12T08:47:51Z</time>
      </trkpt>
      <trkpt lat="47.95899" lon="-3.83521">
        <ele>136</ele>
        <time>2021-08-12T08:47:52Z</time>
      </trkpt>
      <trkpt lat="47.95899" lon="-3.83526">
        <ele>136.2</ele>
        <time>2021-08-12T08:47:53Z</time>
      </trkpt>
      <trkpt lat="47.95898" lon="-3.8353">
        <ele>136</ele>
        <time>2021-08-12T08:47:54Z</time>
      </trkpt>
      <trkpt lat="47.95898" lon="-3.83535">
        <ele>136.2</ele>
        <time>2021-08-12T08:47:55Z</time>
      </trkpt>
      <trkpt lat="47.95898" lon="-3.83539">
        <ele>136.2</ele>
        <time>2021-08-12T08:47:56Z</time>
      </trkpt>
      <trkpt lat="47.95898" lon="-3.83543">
        <ele>136.2</ele>
        <time>2021-08-12T08:47:57Z</time>
      </trkpt>
      <trkpt lat="47.95898" lon="-3.83547">
        <ele>136.4</ele>
        <time>2021-08-12T08:47:58Z</time>
      </trkpt>
      <trkpt lat="47.95899" lon="-3.83552">
        <ele>136.4</ele>
        <time>2021-08-12T08:47:59Z</time>
      </trkpt>
      <trkpt lat="47.95898" lon="-3.8356">
        <ele>136.4</ele>
        <time>2021-08-12T08:48:01Z</time>
      </trkpt>
      <trkpt lat="47.95898" lon="-3.83565">
        <ele>136.6</ele>
        <time>2021-08-12T08:48:02Z</time>
      </trkpt>
      <trkpt lat="47.95897" lon="-3.8357">
        <ele>136.8</ele>
        <time>2021-08-12T08:48:03Z</time>
      </trkpt>
      <trkpt lat="47.95897" lon="-3.83574">
        <ele>137</ele>
        <time>2021-08-12T08:48:04Z</time>
      </trkpt>
      <trkpt lat="47.95897" lon="-3.83579">
        <ele>137</ele>
        <time>2021-08-12T08:48:05Z</time>
      </trkpt>
      <trkpt lat="47.95897" lon="-3.83583">
        <ele>137.2</ele>
        <time>2021-08-12T08:48:06Z</time>
      </trkpt>
      <trkpt lat="47.95897" lon="-3.83588">
        <ele>137.4</ele>
        <time>2021-08-12T08:48:07Z</time>
      </trkpt>
      <trkpt lat="47.95897" lon="-3.83592">
        <ele>137.4</ele>
        <time>2021-08-12T08:48:08Z</time>
      </trkpt>
      <trkpt lat="47.95897" lon="-3.83597">
        <ele>137.4</ele>
        <time>2021-08-12T08:48:09Z</time>
      </trkpt>
      <trkpt lat="47.95896" lon="-3.83602">
        <ele>137.6</ele>
        <time>2021-08-12T08:48:10Z</time>
      </trkpt>
      <trkpt lat="47.95896" lon="-3.83611">
        <ele>137.6</ele>
        <time>2021-08-12T08:48:12Z</time>
      </trkpt>
      <trkpt lat="47.95896" lon="-3.83617">
        <ele>137.8</ele>
        <time>2021-08-12T08:48:13Z</time>
      </trkpt>
      <trkpt lat="47.95896" lon="-3.83622">
        <ele>137.8</ele>
        <time>2021-08-12T08:48:14Z</time>
      </trkpt>
      <trkpt lat="47.95896" lon="-3.83627">
        <ele>137.8</ele>
        <time>2021-08-12T08:48:15Z</time>
      </trkpt>
      <trkpt lat="47.95896" lon="-3.83632">
        <ele>138</ele>
        <time>2021-08-12T08:48:16Z</time>
      </trkpt>
      <trkpt lat="47.95896" lon="-3.83638">
        <ele>138</ele>
        <time>2021-08-12T08:48:17Z</time>
      </trkpt>
      <trkpt lat="47.95896" lon="-3.83643">
        <ele>138</ele>
        <time>2021-08-12T08:48:18Z</time>
      </trkpt>
      <trkpt lat="47.95897" lon="-3.83649">
        <ele>138</ele>
        <time>2021-08-12T08:48:19Z</time>
      </trkpt>
      <trkpt lat="47.95897" lon="-3.83654">
        <ele>138.2</ele>
        <time>2021-08-12T08:48:20Z</time>
      </trkpt>
      <trkpt lat="47.95898" lon="-3.8366">
        <ele>138.2</ele>
        <time>2021-08-12T08:48:21Z</time>
      </trkpt>
      <trkpt lat="47.959" lon="-3.83672">
        <ele>138.2</ele>
        <time>2021-08-12T08:48:23Z</time>
      </trkpt>
      <trkpt lat="47.95901" lon="-3.83677">
        <ele>138.2</ele>
        <time>2021-08-12T08:48:24Z</time>
      </trkpt>
      <trkpt lat="47.95902" lon="-3.83683">
        <ele>138</ele>
        <time>2021-08-12T08:48:25Z</time>
      </trkpt>
      <trkpt lat="47.95903" lon="-3.83689">
        <ele>138.2</ele>
        <time>2021-08-12T08:48:26Z</time>
      </trkpt>
      <trkpt lat="47.95904" lon="-3.83695">
        <ele>138.2</ele>
        <time>2021-08-12T08:48:27Z</time>
      </trkpt>
      <trkpt lat="47.95906" lon="-3.83701">
        <ele>138.2</ele>
        <time>2021-08-12T08:48:28Z</time>
      </trkpt>
      <trkpt lat="47.95907" lon="-3.83707">
        <ele>138.4</ele>
        <time>2021-08-12T08:48:29Z</time>
      </trkpt>
      <trkpt lat="47.95908" lon="-3.83713">
        <ele>138.4</ele>
        <time>2021-08-12T08:48:30Z</time>
      </trkpt>
      <trkpt lat="47.95909" lon="-3.83719">
        <ele>138.4</ele>
        <time>2021-08-12T08:48:31Z</time>
      </trkpt>
      <trkpt lat="47.9591" lon="-3.83725">
        <ele>138.4</ele>
        <time>2021-08-12T08:48:32Z</time>
      </trkpt>
      <trkpt lat="47.95912" lon="-3.83737">
        <ele>138.8</ele>
        <time>2021-08-12T08:48:34Z</time>
      </trkpt>
      <trkpt lat="47.95913" lon="-3.83743">
        <ele>138.8</ele>
        <time>2021-08-12T08:48:35Z</time>
      </trkpt>
      <trkpt lat="47.95914" lon="-3.83748">
        <ele>138.8</ele>
        <time>2021-08-12T08:48:36Z</time>
      </trkpt>
      <trkpt lat="47.95915" lon="-3.83754">
        <ele>138.8</ele>
        <time>2021-08-12T08:48:37Z</time>
      </trkpt>
      <trkpt lat="47.95916" lon="-3.83759">
        <ele>139</ele>
        <time>2021-08-12T08:48:38Z</time>
      </trkpt>
      <trkpt lat="47.95917" lon="-3.83764">
        <ele>139.2</ele>
        <time>2021-08-12T08:48:39Z</time>
      </trkpt>
      <trkpt lat="47.95918" lon="-3.8377">
        <ele>139.4</ele>
        <time>2021-08-12T08:48:40Z</time>
      </trkpt>
      <trkpt lat="47.95918" lon="-3.83775">
        <ele>139.4</ele>
        <time>2021-08-12T08:48:41Z</time>
      </trkpt>
      <trkpt lat="47.95919" lon="-3.83781">
        <ele>139.6</ele>
        <time>2021-08-12T08:48:42Z</time>
      </trkpt>
      <trkpt lat="47.95919" lon="-3.83787">
        <ele>139.6</ele>
        <time>2021-08-12T08:48:43Z</time>
      </trkpt>
      <trkpt lat="47.9592" lon="-3.83797">
        <ele>139.8</ele>
        <time>2021-08-12T08:48:45Z</time>
      </trkpt>
      <trkpt lat="47.95921" lon="-3.83803">
        <ele>140</ele>
        <time>2021-08-12T08:48:46Z</time>
      </trkpt>
      <trkpt lat="47.95922" lon="-3.83808">
        <ele>140.2</ele>
        <time>2021-08-12T08:48:47Z</time>
      </trkpt>
      <trkpt lat="47.95922" lon="-3.83813">
        <ele>140.4</ele>
        <time>2021-08-12T08:48:48Z</time>
      </trkpt>
      <trkpt lat="47.95923" lon="-3.83818">
        <ele>140.4</ele>
        <time>2021-08-12T08:48:49Z</time>
      </trkpt>
      <trkpt lat="47.95923" lon="-3.83823">
        <ele>140.6</ele>
        <time>2021-08-12T08:48:50Z</time>
      </trkpt>
      <trkpt lat="47.95924" lon="-3.83829">
        <ele>140.8</ele>
        <time>2021-08-12T08:48:51Z</time>
      </trkpt>
      <trkpt lat="47.95924" lon="-3.83834">
        <ele>141</ele>
        <time>2021-08-12T08:48:52Z</time>
      </trkpt>
      <trkpt lat="47.95924" lon="-3.83839">
        <ele>141.2</ele>
        <time>2021-08-12T08:48:53Z</time>
      </trkpt>
      <trkpt lat="47.95924" lon="-3.83845">
        <ele>141</ele>
        <time>2021-08-12T08:48:54Z</time>
      </trkpt>
      <trkpt lat="47.95924" lon="-3.8385">
        <ele>141.2</ele>
        <time>2021-08-12T08:48:55Z</time>
      </trkpt>
      <trkpt lat="47.95924" lon="-3.83856">
        <ele>141.4</ele>
        <time>2021-08-12T08:48:56Z</time>
      </trkpt>
      <trkpt lat="47.95923" lon="-3.83861">
        <ele>141.8</ele>
        <time>2021-08-12T08:48:57Z</time>
      </trkpt>
      <trkpt lat="47.95923" lon="-3.83866">
        <ele>142</ele>
        <time>2021-08-12T08:48:58Z</time>
      </trkpt>
      <trkpt lat="47.95923" lon="-3.83871">
        <ele>142.2</ele>
        <time>2021-08-12T08:48:59Z</time>
      </trkpt>
      <trkpt lat="47.95923" lon="-3.83877">
        <ele>142.4</ele>
        <time>2021-08-12T08:49:00Z</time>
      </trkpt>
      <trkpt lat="47.95922" lon="-3.83882">
        <ele>142.4</ele>
        <time>2021-08-12T08:49:01Z</time>
      </trkpt>
      <trkpt lat="47.95922" lon="-3.83887">
        <ele>142.6</ele>
        <time>2021-08-12T08:49:02Z</time>
      </trkpt>
      <trkpt lat="47.95922" lon="-3.83892">
        <ele>142.8</ele>
        <time>2021-08-12T08:49:03Z</time>
      </trkpt>
      <trkpt lat="47.95921" lon="-3.83897">
        <ele>143</ele>
        <time>2021-08-12T08:49:04Z</time>
      </trkpt>
      <trkpt lat="47.95921" lon="-3.83902">
        <ele>143.2</ele>
        <time>2021-08-12T08:49:05Z</time>
      </trkpt>
      <trkpt lat="47.9592" lon="-3.83912">
        <ele>143.4</ele>
        <time>2021-08-12T08:49:07Z</time>
      </trkpt>
      <trkpt lat="47.9592" lon="-3.83917">
        <ele>143.6</ele>
        <time>2021-08-12T08:49:08Z</time>
      </trkpt>
      <trkpt lat="47.95919" lon="-3.83922">
        <ele>143.6</ele>
        <time>2021-08-12T08:49:09Z</time>
      </trkpt>
      <trkpt lat="47.95919" lon="-3.83927">
        <ele>143.8</ele>
        <time>2021-08-12T08:49:10Z</time>
      </trkpt>
      <trkpt lat="47.95918" lon="-3.83932">
        <ele>144</ele>
        <time>2021-08-12T08:49:11Z</time>
      </trkpt>
      <trkpt lat="47.95917" lon="-3.83937">
        <ele>144.2</ele>
        <time>2021-08-12T08:49:12Z</time>
      </trkpt>
      <trkpt lat="47.95917" lon="-3.83942">
        <ele>144.2</ele>
        <time>2021-08-12T08:49:13Z</time>
      </trkpt>
      <trkpt lat="47.95916" lon="-3.83946">
        <ele>144.2</ele>
        <time>2021-08-12T08:49:14Z</time>
      </trkpt>
      <trkpt lat="47.95915" lon="-3.83951">
        <ele>144.4</ele>
        <time>2021-08-12T08:49:15Z</time>
      </trkpt>
      <trkpt lat="47.95914" lon="-3.83956">
        <ele>144.6</ele>
        <time>2021-08-12T08:49:16Z</time>
      </trkpt>
      <trkpt lat="47.95914" lon="-3.83965">
        <ele>144.6</ele>
        <time>2021-08-12T08:49:18Z</time>
      </trkpt>
      <trkpt lat="47.95913" lon="-3.8397">
        <ele>144.8</ele>
        <time>2021-08-12T08:49:19Z</time>
      </trkpt>
      <trkpt lat="47.95913" lon="-3.83974">
        <ele>145</ele>
        <time>2021-08-12T08:49:20Z</time>
      </trkpt>
      <trkpt lat="47.95913" lon="-3.83979">
        <ele>145</ele>
        <time>2021-08-12T08:49:21Z</time>
      </trkpt>
      <trkpt lat="47.95912" lon="-3.83984">
        <ele>145.2</ele>
        <time>2021-08-12T08:49:22Z</time>
      </trkpt>
      <trkpt lat="47.95912" lon="-3.8399">
        <ele>145.4</ele>
        <time>2021-08-12T08:49:23Z</time>
      </trkpt>
      <trkpt lat="47.95912" lon="-3.83995">
        <ele>145.4</ele>
        <time>2021-08-12T08:49:24Z</time>
      </trkpt>
      <trkpt lat="47.95911" lon="-3.84001">
        <ele>145.6</ele>
        <time>2021-08-12T08:49:25Z</time>
      </trkpt>
      <trkpt lat="47.95911" lon="-3.84006">
        <ele>145.8</ele>
        <time>2021-08-12T08:49:26Z</time>
      </trkpt>
      <trkpt lat="47.95911" lon="-3.84012">
        <ele>145.8</ele>
        <time>2021-08-12T08:49:27Z</time>
      </trkpt>
      <trkpt lat="47.9591" lon="-3.84017">
        <ele>145.8</ele>
        <time>2021-08-12T08:49:28Z</time>
      </trkpt>
      <trkpt lat="47.95909" lon="-3.84023">
        <ele>146</ele>
        <time>2021-08-12T08:49:29Z</time>
      </trkpt>
      <trkpt lat="47.95909" lon="-3.84028">
        <ele>146</ele>
        <time>2021-08-12T08:49:30Z</time>
      </trkpt>
      <trkpt lat="47.95909" lon="-3.84033">
        <ele>146</ele>
        <time>2021-08-12T08:49:31Z</time>
      </trkpt>
      <trkpt lat="47.95909" lon="-3.84038">
        <ele>146</ele>
        <time>2021-08-12T08:49:32Z</time>
      </trkpt>
      <trkpt lat="47.95908" lon="-3.84043">
        <ele>146</ele>
        <time>2021-08-12T08:49:33Z</time>
      </trkpt>
      <trkpt lat="47.95908" lon="-3.84047">
        <ele>146</ele>
        <time>2021-08-12T08:49:34Z</time>
      </trkpt>
      <trkpt lat="47.95907" lon="-3.84052">
        <ele>146</ele>
        <time>2021-08-12T08:49:35Z</time>
      </trkpt>
      <trkpt lat="47.95906" lon="-3.84057">
        <ele>146</ele>
        <time>2021-08-12T08:49:36Z</time>
      </trkpt>
      <trkpt lat="47.95903" lon="-3.84061">
        <ele>146</ele>
        <time>2021-08-12T08:49:37Z</time>
      </trkpt>
      <trkpt lat="47.959" lon="-3.84064">
        <ele>146</ele>
        <time>2021-08-12T08:49:38Z</time>
      </trkpt>
      <trkpt lat="47.95893" lon="-3.84069">
        <ele>145.8</ele>
        <time>2021-08-12T08:49:40Z</time>
      </trkpt>
      <trkpt lat="47.9589" lon="-3.84071">
        <ele>145.8</ele>
        <time>2021-08-12T08:49:41Z</time>
      </trkpt>
      <trkpt lat="47.95886" lon="-3.84074">
        <ele>146</ele>
        <time>2021-08-12T08:49:42Z</time>
      </trkpt>
      <trkpt lat="47.95883" lon="-3.84076">
        <ele>146</ele>
        <time>2021-08-12T08:49:43Z</time>
      </trkpt>
      <trkpt lat="47.9588" lon="-3.84079">
        <ele>146</ele>
        <time>2021-08-12T08:49:44Z</time>
      </trkpt>
      <trkpt lat="47.95877" lon="-3.84082">
        <ele>146</ele>
        <time>2021-08-12T08:49:45Z</time>
      </trkpt>
      <trkpt lat="47.95873" lon="-3.84085">
        <ele>146</ele>
        <time>2021-08-12T08:49:46Z</time>
      </trkpt>
      <trkpt lat="47.9587" lon="-3.84087">
        <ele>146.2</ele>
        <time>2021-08-12T08:49:47Z</time>
      </trkpt>
      <trkpt lat="47.95867" lon="-3.8409">
        <ele>146.2</ele>
        <time>2021-08-12T08:49:48Z</time>
      </trkpt>
      <trkpt lat="47.95864" lon="-3.84093">
        <ele>146</ele>
        <time>2021-08-12T08:49:49Z</time>
      </trkpt>
      <trkpt lat="47.95857" lon="-3.84099">
        <ele>146</ele>
        <time>2021-08-12T08:49:51Z</time>
      </trkpt>
      <trkpt lat="47.95854" lon="-3.84103">
        <ele>146.2</ele>
        <time>2021-08-12T08:49:52Z</time>
      </trkpt>
      <trkpt lat="47.95851" lon="-3.84106">
        <ele>146.2</ele>
        <time>2021-08-12T08:49:53Z</time>
      </trkpt>
      <trkpt lat="47.95848" lon="-3.84109">
        <ele>146.2</ele>
        <time>2021-08-12T08:49:54Z</time>
      </trkpt>
      <trkpt lat="47.95845" lon="-3.84113">
        <ele>146.4</ele>
        <time>2021-08-12T08:49:55Z</time>
      </trkpt>
      <trkpt lat="47.95842" lon="-3.84117">
        <ele>146.4</ele>
        <time>2021-08-12T08:49:56Z</time>
      </trkpt>
      <trkpt lat="47.95839" lon="-3.84121">
        <ele>146.4</ele>
        <time>2021-08-12T08:49:57Z</time>
      </trkpt>
      <trkpt lat="47.95836" lon="-3.84126">
        <ele>146.4</ele>
        <time>2021-08-12T08:49:58Z</time>
      </trkpt>
      <trkpt lat="47.95833" lon="-3.8413">
        <ele>146.2</ele>
        <time>2021-08-12T08:49:59Z</time>
      </trkpt>
      <trkpt lat="47.95831" lon="-3.84135">
        <ele>146.2</ele>
        <time>2021-08-12T08:50:00Z</time>
      </trkpt>
      <trkpt lat="47.95826" lon="-3.84146">
        <ele>146.2</ele>
        <time>2021-08-12T08:50:02Z</time>
      </trkpt>
      <trkpt lat="47.95824" lon="-3.84152">
        <ele>146.2</ele>
        <time>2021-08-12T08:50:03Z</time>
      </trkpt>
      <trkpt lat="47.95822" lon="-3.84158">
        <ele>146.2</ele>
        <time>2021-08-12T08:50:04Z</time>
      </trkpt>
      <trkpt lat="47.9582" lon="-3.84164">
        <ele>146.2</ele>
        <time>2021-08-12T08:50:05Z</time>
      </trkpt>
      <trkpt lat="47.95818" lon="-3.84171">
        <ele>146.2</ele>
        <time>2021-08-12T08:50:06Z</time>
      </trkpt>
      <trkpt lat="47.95816" lon="-3.84177">
        <ele>146.2</ele>
        <time>2021-08-12T08:50:07Z</time>
      </trkpt>
      <trkpt lat="47.95815" lon="-3.84184">
        <ele>146.2</ele>
        <time>2021-08-12T08:50:08Z</time>
      </trkpt>
      <trkpt lat="47.95814" lon="-3.84191">
        <ele>146.2</ele>
        <time>2021-08-12T08:50:09Z</time>
      </trkpt>
      <trkpt lat="47.95813" lon="-3.84197">
        <ele>146</ele>
        <time>2021-08-12T08:50:10Z</time>
      </trkpt>
      <trkpt lat="47.95813" lon="-3.84204">
        <ele>145.8</ele>
        <time>2021-08-12T08:50:11Z</time>
      </trkpt>
      <trkpt lat="47.95812" lon="-3.84218">
        <ele>145.8</ele>
        <time>2021-08-12T08:50:13Z</time>
      </trkpt>
      <trkpt lat="47.95812" lon="-3.84225">
        <ele>145.8</ele>
        <time>2021-08-12T08:50:14Z</time>
      </trkpt>
      <trkpt lat="47.95812" lon="-3.84232">
        <ele>145.8</ele>
        <time>2021-08-12T08:50:15Z</time>
      </trkpt>
      <trkpt lat="47.95812" lon="-3.84239">
        <ele>145.8</ele>
        <time>2021-08-12T08:50:16Z</time>
      </trkpt>
      <trkpt lat="47.95812" lon="-3.84246">
        <ele>145.8</ele>
        <time>2021-08-12T08:50:17Z</time>
      </trkpt>
      <trkpt lat="47.95813" lon="-3.84253">
        <ele>145.8</ele>
        <time>2021-08-12T08:50:18Z</time>
      </trkpt>
      <trkpt lat="47.95813" lon="-3.8426">
        <ele>145.8</ele>
        <time>2021-08-12T08:50:19Z</time>
      </trkpt>
      <trkpt lat="47.95814" lon="-3.84267">
        <ele>145.8</ele>
        <time>2021-08-12T08:50:20Z</time>
      </trkpt>
      <trkpt lat="47.95815" lon="-3.84275">
        <ele>145.8</ele>
        <time>2021-08-12T08:50:21Z</time>
      </trkpt>
      <trkpt lat="47.95815" lon="-3.84282">
        <ele>145.8</ele>
        <time>2021-08-12T08:50:22Z</time>
      </trkpt>
      <trkpt lat="47.95815" lon="-3.84297">
        <ele>145.8</ele>
        <time>2021-08-12T08:50:24Z</time>
      </trkpt>
      <trkpt lat="47.95816" lon="-3.84304">
        <ele>145.8</ele>
        <time>2021-08-12T08:50:25Z</time>
      </trkpt>
      <trkpt lat="47.95816" lon="-3.84312">
        <ele>145.8</ele>
        <time>2021-08-12T08:50:26Z</time>
      </trkpt>
      <trkpt lat="47.95816" lon="-3.84319">
        <ele>145.8</ele>
        <time>2021-08-12T08:50:27Z</time>
      </trkpt>
      <trkpt lat="47.95816" lon="-3.84327">
        <ele>145.8</ele>
        <time>2021-08-12T08:50:28Z</time>
      </trkpt>
      <trkpt lat="47.95816" lon="-3.84334">
        <ele>145.8</ele>
        <time>2021-08-12T08:50:29Z</time>
      </trkpt>
      <trkpt lat="47.95817" lon="-3.84342">
        <ele>145.6</ele>
        <time>2021-08-12T08:50:30Z</time>
      </trkpt>
      <trkpt lat="47.95818" lon="-3.84349">
        <ele>145.6</ele>
        <time>2021-08-12T08:50:31Z</time>
      </trkpt>
      <trkpt lat="47.95818" lon="-3.84357">
        <ele>145.6</ele>
        <time>2021-08-12T08:50:32Z</time>
      </trkpt>
      <trkpt lat="47.95819" lon="-3.84365">
        <ele>145.4</ele>
        <time>2021-08-12T08:50:33Z</time>
      </trkpt>
      <trkpt lat="47.9582" lon="-3.8438">
        <ele>145.2</ele>
        <time>2021-08-12T08:50:35Z</time>
      </trkpt>
      <trkpt lat="47.9582" lon="-3.84388">
        <ele>145.2</ele>
        <time>2021-08-12T08:50:36Z</time>
      </trkpt>
      <trkpt lat="47.9582" lon="-3.84396">
        <ele>145.2</ele>
        <time>2021-08-12T08:50:37Z</time>
      </trkpt>
      <trkpt lat="47.95821" lon="-3.84404">
        <ele>145.2</ele>
        <time>2021-08-12T08:50:38Z</time>
      </trkpt>
      <trkpt lat="47.95821" lon="-3.84412">
        <ele>145</ele>
        <time>2021-08-12T08:50:39Z</time>
      </trkpt>
      <trkpt lat="47.95821" lon="-3.8442">
        <ele>145</ele>
        <time>2021-08-12T08:50:40Z</time>
      </trkpt>
      <trkpt lat="47.95821" lon="-3.84428">
        <ele>145</ele>
        <time>2021-08-12T08:50:41Z</time>
      </trkpt>
      <trkpt lat="47.95822" lon="-3.84436">
        <ele>144.8</ele>
        <time>2021-08-12T08:50:42Z</time>
      </trkpt>
      <trkpt lat="47.95822" lon="-3.84443">
        <ele>144.8</ele>
        <time>2021-08-12T08:50:43Z</time>
      </trkpt>
      <trkpt lat="47.95822" lon="-3.84451">
        <ele>144.8</ele>
        <time>2021-08-12T08:50:44Z</time>
      </trkpt>
      <trkpt lat="47.95823" lon="-3.84466">
        <ele>144.6</ele>
        <time>2021-08-12T08:50:46Z</time>
      </trkpt>
      <trkpt lat="47.95823" lon="-3.84473">
        <ele>144.6</ele>
        <time>2021-08-12T08:50:47Z</time>
      </trkpt>
      <trkpt lat="47.95823" lon="-3.8448">
        <ele>144.6</ele>
        <time>2021-08-12T08:50:48Z</time>
      </trkpt>
      <trkpt lat="47.95824" lon="-3.84487">
        <ele>144.6</ele>
        <time>2021-08-12T08:50:49Z</time>
      </trkpt>
      <trkpt lat="47.95824" lon="-3.84494">
        <ele>144.8</ele>
        <time>2021-08-12T08:50:50Z</time>
      </trkpt>
      <trkpt lat="47.95824" lon="-3.845">
        <ele>145</ele>
        <time>2021-08-12T08:50:51Z</time>
      </trkpt>
      <trkpt lat="47.95824" lon="-3.84506">
        <ele>145</ele>
        <time>2021-08-12T08:50:52Z</time>
      </trkpt>
      <trkpt lat="47.95824" lon="-3.84512">
        <ele>145</ele>
        <time>2021-08-12T08:50:53Z</time>
      </trkpt>
      <trkpt lat="47.95824" lon="-3.84518">
        <ele>145.2</ele>
        <time>2021-08-12T08:50:54Z</time>
      </trkpt>
      <trkpt lat="47.95824" lon="-3.84524">
        <ele>145.6</ele>
        <time>2021-08-12T08:50:55Z</time>
      </trkpt>
      <trkpt lat="47.95823" lon="-3.8453">
        <ele>145.8</ele>
        <time>2021-08-12T08:50:56Z</time>
      </trkpt>
      <trkpt lat="47.95823" lon="-3.84535">
        <ele>146</ele>
        <time>2021-08-12T08:50:57Z</time>
      </trkpt>
      <trkpt lat="47.95823" lon="-3.84541">
        <ele>146</ele>
        <time>2021-08-12T08:50:58Z</time>
      </trkpt>
      <trkpt lat="47.95821" lon="-3.84546">
        <ele>146</ele>
        <time>2021-08-12T08:50:59Z</time>
      </trkpt>
      <trkpt lat="47.95819" lon="-3.8455">
        <ele>146.2</ele>
        <time>2021-08-12T08:51:00Z</time>
      </trkpt>
      <trkpt lat="47.95816" lon="-3.84552">
        <ele>146.2</ele>
        <time>2021-08-12T08:51:01Z</time>
      </trkpt>
      <trkpt lat="47.95812" lon="-3.84553">
        <ele>146.2</ele>
        <time>2021-08-12T08:51:02Z</time>
      </trkpt>
      <trkpt lat="47.95807" lon="-3.84553">
        <ele>146.2</ele>
        <time>2021-08-12T08:51:03Z</time>
      </trkpt>
      <trkpt lat="47.95803" lon="-3.84551">
        <ele>146.2</ele>
        <time>2021-08-12T08:51:04Z</time>
      </trkpt>
      <trkpt lat="47.95798" lon="-3.84549">
        <ele>146.2</ele>
        <time>2021-08-12T08:51:05Z</time>
      </trkpt>
      <trkpt lat="47.95794" lon="-3.84547">
        <ele>146.2</ele>
        <time>2021-08-12T08:51:06Z</time>
      </trkpt>
      <trkpt lat="47.9579" lon="-3.84544">
        <ele>146.2</ele>
        <time>2021-08-12T08:51:07Z</time>
      </trkpt>
      <trkpt lat="47.95785" lon="-3.84543">
        <ele>146.2</ele>
        <time>2021-08-12T08:51:08Z</time>
      </trkpt>
      <trkpt lat="47.9578" lon="-3.84543">
        <ele>146.2</ele>
        <time>2021-08-12T08:51:09Z</time>
      </trkpt>
      <trkpt lat="47.95775" lon="-3.84546">
        <ele>146.2</ele>
        <time>2021-08-12T08:51:10Z</time>
      </trkpt>
      <trkpt lat="47.95771" lon="-3.84551">
        <ele>146.2</ele>
        <time>2021-08-12T08:51:11Z</time>
      </trkpt>
      <trkpt lat="47.95768" lon="-3.84557">
        <ele>146</ele>
        <time>2021-08-12T08:51:12Z</time>
      </trkpt>
      <trkpt lat="47.95765" lon="-3.84563">
        <ele>146</ele>
        <time>2021-08-12T08:51:13Z</time>
      </trkpt>
      <trkpt lat="47.95763" lon="-3.84569">
        <ele>146</ele>
        <time>2021-08-12T08:51:14Z</time>
      </trkpt>
      <trkpt lat="47.95761" lon="-3.84576">
        <ele>145.6</ele>
        <time>2021-08-12T08:51:15Z</time>
      </trkpt>
      <trkpt lat="47.95759" lon="-3.84583">
        <ele>145.8</ele>
        <time>2021-08-12T08:51:16Z</time>
      </trkpt>
      <trkpt lat="47.95757" lon="-3.8459">
        <ele>145.8</ele>
        <time>2021-08-12T08:51:17Z</time>
      </trkpt>
      <trkpt lat="47.95755" lon="-3.84598">
        <ele>145.4</ele>
        <time>2021-08-12T08:51:18Z</time>
      </trkpt>
      <trkpt lat="47.95753" lon="-3.84606">
        <ele>145.2</ele>
        <time>2021-08-12T08:51:19Z</time>
      </trkpt>
      <trkpt lat="47.95751" lon="-3.84614">
        <ele>145.2</ele>
        <time>2021-08-12T08:51:20Z</time>
      </trkpt>
      <trkpt lat="47.9575" lon="-3.84621">
        <ele>145.2</ele>
        <time>2021-08-12T08:51:21Z</time>
      </trkpt>
      <trkpt lat="47.95749" lon="-3.84628">
        <ele>145</ele>
        <time>2021-08-12T08:51:22Z</time>
      </trkpt>
      <trkpt lat="47.95748" lon="-3.84635">
        <ele>145</ele>
        <time>2021-08-12T08:51:23Z</time>
      </trkpt>
      <trkpt lat="47.95747" lon="-3.84642">
        <ele>145</ele>
        <time>2021-08-12T08:51:24Z</time>
      </trkpt>
      <trkpt lat="47.95746" lon="-3.8465">
        <ele>144.8</ele>
        <time>2021-08-12T08:51:25Z</time>
      </trkpt>
      <trkpt lat="47.95743" lon="-3.84659">
        <ele>144.6</ele>
        <time>2021-08-12T08:51:26Z</time>
      </trkpt>
      <trkpt lat="47.9574" lon="-3.84668">
        <ele>144.6</ele>
        <time>2021-08-12T08:51:27Z</time>
      </trkpt>
      <trkpt lat="47.95737" lon="-3.84676">
        <ele>144.6</ele>
        <time>2021-08-12T08:51:28Z</time>
      </trkpt>
      <trkpt lat="47.95734" lon="-3.84684">
        <ele>144.6</ele>
        <time>2021-08-12T08:51:29Z</time>
      </trkpt>
      <trkpt lat="47.9573" lon="-3.84692">
        <ele>144.6</ele>
        <time>2021-08-12T08:51:30Z</time>
      </trkpt>
      <trkpt lat="47.95726" lon="-3.84699">
        <ele>144.4</ele>
        <time>2021-08-12T08:51:31Z</time>
      </trkpt>
      <trkpt lat="47.95721" lon="-3.84706">
        <ele>144.2</ele>
        <time>2021-08-12T08:51:32Z</time>
      </trkpt>
      <trkpt lat="47.95716" lon="-3.84712">
        <ele>144</ele>
        <time>2021-08-12T08:51:33Z</time>
      </trkpt>
      <trkpt lat="47.95711" lon="-3.84718">
        <ele>144</ele>
        <time>2021-08-12T08:51:34Z</time>
      </trkpt>
      <trkpt lat="47.95706" lon="-3.84724">
        <ele>143.8</ele>
        <time>2021-08-12T08:51:35Z</time>
      </trkpt>
      <trkpt lat="47.95701" lon="-3.8473">
        <ele>143.4</ele>
        <time>2021-08-12T08:51:36Z</time>
      </trkpt>
      <trkpt lat="47.95696" lon="-3.84736">
        <ele>143</ele>
        <time>2021-08-12T08:51:37Z</time>
      </trkpt>
      <trkpt lat="47.95691" lon="-3.84741">
        <ele>142.8</ele>
        <time>2021-08-12T08:51:38Z</time>
      </trkpt>
      <trkpt lat="47.95686" lon="-3.84747">
        <ele>142.4</ele>
        <time>2021-08-12T08:51:39Z</time>
      </trkpt>
      <trkpt lat="47.95677" lon="-3.8476">
        <ele>142.2</ele>
        <time>2021-08-12T08:51:41Z</time>
      </trkpt>
      <trkpt lat="47.95672" lon="-3.84766">
        <ele>141.8</ele>
        <time>2021-08-12T08:51:42Z</time>
      </trkpt>
      <trkpt lat="47.95668" lon="-3.84773">
        <ele>141.6</ele>
        <time>2021-08-12T08:51:43Z</time>
      </trkpt>
      <trkpt lat="47.95663" lon="-3.8478">
        <ele>141.4</ele>
        <time>2021-08-12T08:51:44Z</time>
      </trkpt>
      <trkpt lat="47.95658" lon="-3.84786">
        <ele>141.4</ele>
        <time>2021-08-12T08:51:45Z</time>
      </trkpt>
      <trkpt lat="47.95653" lon="-3.84793">
        <ele>141.2</ele>
        <time>2021-08-12T08:51:46Z</time>
      </trkpt>
      <trkpt lat="47.95648" lon="-3.848">
        <ele>141.2</ele>
        <time>2021-08-12T08:51:47Z</time>
      </trkpt>
      <trkpt lat="47.95644" lon="-3.84807">
        <ele>141</ele>
        <time>2021-08-12T08:51:48Z</time>
      </trkpt>
      <trkpt lat="47.9564" lon="-3.84814">
        <ele>141</ele>
        <time>2021-08-12T08:51:49Z</time>
      </trkpt>
      <trkpt lat="47.95637" lon="-3.84822">
        <ele>140.8</ele>
        <time>2021-08-12T08:51:50Z</time>
      </trkpt>
      <trkpt lat="47.95629" lon="-3.84836">
        <ele>140.6</ele>
        <time>2021-08-12T08:51:52Z</time>
      </trkpt>
      <trkpt lat="47.95625" lon="-3.84843">
        <ele>140.4</ele>
        <time>2021-08-12T08:51:53Z</time>
      </trkpt>
      <trkpt lat="47.95621" lon="-3.8485">
        <ele>140.2</ele>
        <time>2021-08-12T08:51:54Z</time>
      </trkpt>
      <trkpt lat="47.95617" lon="-3.84858">
        <ele>140.2</ele>
        <time>2021-08-12T08:51:55Z</time>
      </trkpt>
      <trkpt lat="47.95613" lon="-3.84864">
        <ele>140.2</ele>
        <time>2021-08-12T08:51:56Z</time>
      </trkpt>
      <trkpt lat="47.95609" lon="-3.84871">
        <ele>140</ele>
        <time>2021-08-12T08:51:57Z</time>
      </trkpt>
      <trkpt lat="47.95605" lon="-3.84877">
        <ele>140</ele>
        <time>2021-08-12T08:51:58Z</time>
      </trkpt>
      <trkpt lat="47.95601" lon="-3.84883">
        <ele>140</ele>
        <time>2021-08-12T08:51:59Z</time>
      </trkpt>
      <trkpt lat="47.95597" lon="-3.84889">
        <ele>140</ele>
        <time>2021-08-12T08:52:00Z</time>
      </trkpt>
      <trkpt lat="47.95593" lon="-3.84896">
        <ele>140</ele>
        <time>2021-08-12T08:52:01Z</time>
      </trkpt>
      <trkpt lat="47.95586" lon="-3.84908">
        <ele>140</ele>
        <time>2021-08-12T08:52:03Z</time>
      </trkpt>
      <trkpt lat="47.95583" lon="-3.84914">
        <ele>140</ele>
        <time>2021-08-12T08:52:04Z</time>
      </trkpt>
      <trkpt lat="47.95579" lon="-3.84921">
        <ele>139.8</ele>
        <time>2021-08-12T08:52:05Z</time>
      </trkpt>
      <trkpt lat="47.95577" lon="-3.84929">
        <ele>139.8</ele>
        <time>2021-08-12T08:52:06Z</time>
      </trkpt>
      <trkpt lat="47.95574" lon="-3.84936">
        <ele>139.8</ele>
        <time>2021-08-12T08:52:07Z</time>
      </trkpt>
      <trkpt lat="47.95571" lon="-3.84943">
        <ele>139.8</ele>
        <time>2021-08-12T08:52:08Z</time>
      </trkpt>
      <trkpt lat="47.95568" lon="-3.84951">
        <ele>139.8</ele>
        <time>2021-08-12T08:52:09Z</time>
      </trkpt>
      <trkpt lat="47.95565" lon="-3.84959">
        <ele>139.6</ele>
        <time>2021-08-12T08:52:10Z</time>
      </trkpt>
      <trkpt lat="47.95563" lon="-3.84967">
        <ele>139.6</ele>
        <time>2021-08-12T08:52:11Z</time>
      </trkpt>
      <trkpt lat="47.95561" lon="-3.84976">
        <ele>139.4</ele>
        <time>2021-08-12T08:52:12Z</time>
      </trkpt>
      <trkpt lat="47.95558" lon="-3.84993">
        <ele>139.4</ele>
        <time>2021-08-12T08:52:14Z</time>
      </trkpt>
      <trkpt lat="47.95557" lon="-3.85001">
        <ele>139.4</ele>
        <time>2021-08-12T08:52:15Z</time>
      </trkpt>
      <trkpt lat="47.95556" lon="-3.8501">
        <ele>139.4</ele>
        <time>2021-08-12T08:52:16Z</time>
      </trkpt>
      <trkpt lat="47.95555" lon="-3.85017">
        <ele>139.2</ele>
        <time>2021-08-12T08:52:17Z</time>
      </trkpt>
      <trkpt lat="47.95555" lon="-3.85025">
        <ele>139.2</ele>
        <time>2021-08-12T08:52:18Z</time>
      </trkpt>
      <trkpt lat="47.95554" lon="-3.85032">
        <ele>139.2</ele>
        <time>2021-08-12T08:52:19Z</time>
      </trkpt>
      <trkpt lat="47.95554" lon="-3.85039">
        <ele>139.2</ele>
        <time>2021-08-12T08:52:20Z</time>
      </trkpt>
      <trkpt lat="47.95554" lon="-3.85045">
        <ele>139.2</ele>
        <time>2021-08-12T08:52:21Z</time>
      </trkpt>
      <trkpt lat="47.95554" lon="-3.85052">
        <ele>139.2</ele>
        <time>2021-08-12T08:52:22Z</time>
      </trkpt>
      <trkpt lat="47.95554" lon="-3.85058">
        <ele>139.2</ele>
        <time>2021-08-12T08:52:23Z</time>
      </trkpt>
      <trkpt lat="47.95553" lon="-3.85066">
        <ele>139.4</ele>
        <time>2021-08-12T08:52:24Z</time>
      </trkpt>
      <trkpt lat="47.95553" lon="-3.85073">
        <ele>139.2</ele>
        <time>2021-08-12T08:52:25Z</time>
      </trkpt>
      <trkpt lat="47.95552" lon="-3.85081">
        <ele>139.2</ele>
        <time>2021-08-12T08:52:26Z</time>
      </trkpt>
      <trkpt lat="47.95551" lon="-3.85089">
        <ele>139.4</ele>
        <time>2021-08-12T08:52:27Z</time>
      </trkpt>
      <trkpt lat="47.95549" lon="-3.85097">
        <ele>139.6</ele>
        <time>2021-08-12T08:52:28Z</time>
      </trkpt>
      <trkpt lat="47.95548" lon="-3.85104">
        <ele>139.6</ele>
        <time>2021-08-12T08:52:29Z</time>
      </trkpt>
      <trkpt lat="47.95546" lon="-3.85112">
        <ele>139.6</ele>
        <time>2021-08-12T08:52:30Z</time>
      </trkpt>
      <trkpt lat="47.95544" lon="-3.85119">
        <ele>139.6</ele>
        <time>2021-08-12T08:52:31Z</time>
      </trkpt>
      <trkpt lat="47.95542" lon="-3.85127">
        <ele>139.8</ele>
        <time>2021-08-12T08:52:32Z</time>
      </trkpt>
      <trkpt lat="47.9554" lon="-3.85134">
        <ele>139.8</ele>
        <time>2021-08-12T08:52:33Z</time>
      </trkpt>
      <trkpt lat="47.95538" lon="-3.85141">
        <ele>139.8</ele>
        <time>2021-08-12T08:52:34Z</time>
      </trkpt>
      <trkpt lat="47.95533" lon="-3.85156">
        <ele>139.8</ele>
        <time>2021-08-12T08:52:36Z</time>
      </trkpt>
      <trkpt lat="47.95531" lon="-3.85163">
        <ele>139.8</ele>
        <time>2021-08-12T08:52:37Z</time>
      </trkpt>
      <trkpt lat="47.95528" lon="-3.8517">
        <ele>140</ele>
        <time>2021-08-12T08:52:38Z</time>
      </trkpt>
      <trkpt lat="47.95526" lon="-3.85177">
        <ele>140</ele>
        <time>2021-08-12T08:52:39Z</time>
      </trkpt>
      <trkpt lat="47.95524" lon="-3.85184">
        <ele>140.2</ele>
        <time>2021-08-12T08:52:40Z</time>
      </trkpt>
      <trkpt lat="47.95522" lon="-3.85191">
        <ele>140</ele>
        <time>2021-08-12T08:52:41Z</time>
      </trkpt>
      <trkpt lat="47.9552" lon="-3.85197">
        <ele>140</ele>
        <time>2021-08-12T08:52:42Z</time>
      </trkpt>
      <trkpt lat="47.95518" lon="-3.85204">
        <ele>140.2</ele>
        <time>2021-08-12T08:52:43Z</time>
      </trkpt>
      <trkpt lat="47.95516" lon="-3.85211">
        <ele>140.2</ele>
        <time>2021-08-12T08:52:44Z</time>
      </trkpt>
      <trkpt lat="47.95515" lon="-3.85218">
        <ele>140.2</ele>
        <time>2021-08-12T08:52:45Z</time>
      </trkpt>
      <trkpt lat="47.95513" lon="-3.85225">
        <ele>140.4</ele>
        <time>2021-08-12T08:52:46Z</time>
      </trkpt>
      <trkpt lat="47.95511" lon="-3.85232">
        <ele>140.4</ele>
        <time>2021-08-12T08:52:47Z</time>
      </trkpt>
      <trkpt lat="47.9551" lon="-3.85239">
        <ele>140.6</ele>
        <time>2021-08-12T08:52:48Z</time>
      </trkpt>
      <trkpt lat="47.95508" lon="-3.85246">
        <ele>140.8</ele>
        <time>2021-08-12T08:52:49Z</time>
      </trkpt>
      <trkpt lat="47.95506" lon="-3.85252">
        <ele>140.8</ele>
        <time>2021-08-12T08:52:50Z</time>
      </trkpt>
      <trkpt lat="47.95504" lon="-3.85259">
        <ele>141</ele>
        <time>2021-08-12T08:52:51Z</time>
      </trkpt>
      <trkpt lat="47.95503" lon="-3.85265">
        <ele>141</ele>
        <time>2021-08-12T08:52:52Z</time>
      </trkpt>
      <trkpt lat="47.955" lon="-3.85271">
        <ele>141</ele>
        <time>2021-08-12T08:52:53Z</time>
      </trkpt>
      <trkpt lat="47.95498" lon="-3.85277">
        <ele>141.2</ele>
        <time>2021-08-12T08:52:54Z</time>
      </trkpt>
      <trkpt lat="47.95496" lon="-3.85283">
        <ele>141.2</ele>
        <time>2021-08-12T08:52:55Z</time>
      </trkpt>
      <trkpt lat="47.95494" lon="-3.85289">
        <ele>141.2</ele>
        <time>2021-08-12T08:52:56Z</time>
      </trkpt>
      <trkpt lat="47.95491" lon="-3.85295">
        <ele>141.4</ele>
        <time>2021-08-12T08:52:57Z</time>
      </trkpt>
      <trkpt lat="47.95488" lon="-3.853">
        <ele>141.6</ele>
        <time>2021-08-12T08:52:58Z</time>
      </trkpt>
      <trkpt lat="47.95486" lon="-3.85305">
        <ele>141.6</ele>
        <time>2021-08-12T08:52:59Z</time>
      </trkpt>
      <trkpt lat="47.95482" lon="-3.85311">
        <ele>141.8</ele>
        <time>2021-08-12T08:53:00Z</time>
      </trkpt>
      <trkpt lat="47.9548" lon="-3.85316">
        <ele>141.8</ele>
        <time>2021-08-12T08:53:01Z</time>
      </trkpt>
      <trkpt lat="47.95477" lon="-3.85322">
        <ele>141.8</ele>
        <time>2021-08-12T08:53:02Z</time>
      </trkpt>
      <trkpt lat="47.95474" lon="-3.85327">
        <ele>141.8</ele>
        <time>2021-08-12T08:53:03Z</time>
      </trkpt>
      <trkpt lat="47.95471" lon="-3.85333">
        <ele>141.8</ele>
        <time>2021-08-12T08:53:04Z</time>
      </trkpt>
      <trkpt lat="47.95469" lon="-3.85339">
        <ele>141.8</ele>
        <time>2021-08-12T08:53:05Z</time>
      </trkpt>
      <trkpt lat="47.95466" lon="-3.85345">
        <ele>141.8</ele>
        <time>2021-08-12T08:53:06Z</time>
      </trkpt>
      <trkpt lat="47.95464" lon="-3.85351">
        <ele>141.8</ele>
        <time>2021-08-12T08:53:07Z</time>
      </trkpt>
      <trkpt lat="47.95462" lon="-3.85357">
        <ele>142</ele>
        <time>2021-08-12T08:53:08Z</time>
      </trkpt>
      <trkpt lat="47.9546" lon="-3.85363">
        <ele>142</ele>
        <time>2021-08-12T08:53:09Z</time>
      </trkpt>
      <trkpt lat="47.95458" lon="-3.85369">
        <ele>142</ele>
        <time>2021-08-12T08:53:10Z</time>
      </trkpt>
      <trkpt lat="47.95457" lon="-3.85375">
        <ele>142</ele>
        <time>2021-08-12T08:53:11Z</time>
      </trkpt>
      <trkpt lat="47.95456" lon="-3.85381">
        <ele>142</ele>
        <time>2021-08-12T08:53:12Z</time>
      </trkpt>
      <trkpt lat="47.95455" lon="-3.85387">
        <ele>142</ele>
        <time>2021-08-12T08:53:13Z</time>
      </trkpt>
      <trkpt lat="47.95453" lon="-3.85394">
        <ele>142</ele>
        <time>2021-08-12T08:53:14Z</time>
      </trkpt>
      <trkpt lat="47.95452" lon="-3.854">
        <ele>142</ele>
        <time>2021-08-12T08:53:15Z</time>
      </trkpt>
      <trkpt lat="47.95451" lon="-3.85406">
        <ele>142</ele>
        <time>2021-08-12T08:53:16Z</time>
      </trkpt>
      <trkpt lat="47.9545" lon="-3.85412">
        <ele>142</ele>
        <time>2021-08-12T08:53:17Z</time>
      </trkpt>
      <trkpt lat="47.95448" lon="-3.85418">
        <ele>142</ele>
        <time>2021-08-12T08:53:18Z</time>
      </trkpt>
      <trkpt lat="47.95445" lon="-3.85429">
        <ele>141.8</ele>
        <time>2021-08-12T08:53:20Z</time>
      </trkpt>
      <trkpt lat="47.95444" lon="-3.85436">
        <ele>141.8</ele>
        <time>2021-08-12T08:53:21Z</time>
      </trkpt>
      <trkpt lat="47.95443" lon="-3.85441">
        <ele>141.8</ele>
        <time>2021-08-12T08:53:22Z</time>
      </trkpt>
      <trkpt lat="47.95442" lon="-3.85447">
        <ele>141.8</ele>
        <time>2021-08-12T08:53:23Z</time>
      </trkpt>
      <trkpt lat="47.9544" lon="-3.85453">
        <ele>142</ele>
        <time>2021-08-12T08:53:24Z</time>
      </trkpt>
      <trkpt lat="47.95439" lon="-3.85459">
        <ele>142</ele>
        <time>2021-08-12T08:53:25Z</time>
      </trkpt>
      <trkpt lat="47.95438" lon="-3.85465">
        <ele>142</ele>
        <time>2021-08-12T08:53:26Z</time>
      </trkpt>
      <trkpt lat="47.95436" lon="-3.85472">
        <ele>142</ele>
        <time>2021-08-12T08:53:27Z</time>
      </trkpt>
      <trkpt lat="47.95435" lon="-3.85478">
        <ele>142</ele>
        <time>2021-08-12T08:53:28Z</time>
      </trkpt>
      <trkpt lat="47.95433" lon="-3.85484">
        <ele>142</ele>
        <time>2021-08-12T08:53:29Z</time>
      </trkpt>
      <trkpt lat="47.9543" lon="-3.85497">
        <ele>142</ele>
        <time>2021-08-12T08:53:31Z</time>
      </trkpt>
      <trkpt lat="47.95428" lon="-3.85503">
        <ele>142</ele>
        <time>2021-08-12T08:53:32Z</time>
      </trkpt>
      <trkpt lat="47.95426" lon="-3.8551">
        <ele>142</ele>
        <time>2021-08-12T08:53:33Z</time>
      </trkpt>
      <trkpt lat="47.95425" lon="-3.85517">
        <ele>142</ele>
        <time>2021-08-12T08:53:34Z</time>
      </trkpt>
      <trkpt lat="47.95423" lon="-3.85524">
        <ele>142</ele>
        <time>2021-08-12T08:53:35Z</time>
      </trkpt>
      <trkpt lat="47.95421" lon="-3.85531">
        <ele>142</ele>
        <time>2021-08-12T08:53:36Z</time>
      </trkpt>
      <trkpt lat="47.9542" lon="-3.85538">
        <ele>142</ele>
        <time>2021-08-12T08:53:37Z</time>
      </trkpt>
      <trkpt lat="47.95418" lon="-3.85545">
        <ele>141.8</ele>
        <time>2021-08-12T08:53:38Z</time>
      </trkpt>
      <trkpt lat="47.95416" lon="-3.85552">
        <ele>141.8</ele>
        <time>2021-08-12T08:53:39Z</time>
      </trkpt>
      <trkpt lat="47.95415" lon="-3.85559">
        <ele>141.6</ele>
        <time>2021-08-12T08:53:40Z</time>
      </trkpt>
      <trkpt lat="47.95412" lon="-3.85573">
        <ele>141.4</ele>
        <time>2021-08-12T08:53:42Z</time>
      </trkpt>
      <trkpt lat="47.95411" lon="-3.8558">
        <ele>141.4</ele>
        <time>2021-08-12T08:53:43Z</time>
      </trkpt>
      <trkpt lat="47.95409" lon="-3.85587">
        <ele>141.4</ele>
        <time>2021-08-12T08:53:44Z</time>
      </trkpt>
      <trkpt lat="47.95408" lon="-3.85595">
        <ele>141.2</ele>
        <time>2021-08-12T08:53:45Z</time>
      </trkpt>
      <trkpt lat="47.95407" lon="-3.85602">
        <ele>141.2</ele>
        <time>2021-08-12T08:53:46Z</time>
      </trkpt>
      <trkpt lat="47.95406" lon="-3.85609">
        <ele>141.2</ele>
        <time>2021-08-12T08:53:47Z</time>
      </trkpt>
      <trkpt lat="47.95405" lon="-3.85616">
        <ele>141.2</ele>
        <time>2021-08-12T08:53:48Z</time>
      </trkpt>
      <trkpt lat="47.95404" lon="-3.85623">
        <ele>141</ele>
        <time>2021-08-12T08:53:49Z</time>
      </trkpt>
      <trkpt lat="47.95403" lon="-3.8563">
        <ele>141</ele>
        <time>2021-08-12T08:53:50Z</time>
      </trkpt>
      <trkpt lat="47.95401" lon="-3.85637">
        <ele>141</ele>
        <time>2021-08-12T08:53:51Z</time>
      </trkpt>
      <trkpt lat="47.954" lon="-3.85644">
        <ele>141</ele>
        <time>2021-08-12T08:53:52Z</time>
      </trkpt>
      <trkpt lat="47.95398" lon="-3.8565">
        <ele>141</ele>
        <time>2021-08-12T08:53:53Z</time>
      </trkpt>
      <trkpt lat="47.95396" lon="-3.85656">
        <ele>141.2</ele>
        <time>2021-08-12T08:53:54Z</time>
      </trkpt>
      <trkpt lat="47.95394" lon="-3.85663">
        <ele>141</ele>
        <time>2021-08-12T08:53:55Z</time>
      </trkpt>
      <trkpt lat="47.95393" lon="-3.85669">
        <ele>141.2</ele>
        <time>2021-08-12T08:53:56Z</time>
      </trkpt>
      <trkpt lat="47.95393" lon="-3.85675">
        <ele>141.2</ele>
        <time>2021-08-12T08:53:57Z</time>
      </trkpt>
      <trkpt lat="47.95391" lon="-3.85681">
        <ele>141.2</ele>
        <time>2021-08-12T08:53:58Z</time>
      </trkpt>
      <trkpt lat="47.9539" lon="-3.85688">
        <ele>141.6</ele>
        <time>2021-08-12T08:53:59Z</time>
      </trkpt>
      <trkpt lat="47.95389" lon="-3.85694">
        <ele>141.6</ele>
        <time>2021-08-12T08:54:00Z</time>
      </trkpt>
      <trkpt lat="47.95388" lon="-3.857">
        <ele>141.8</ele>
        <time>2021-08-12T08:54:01Z</time>
      </trkpt>
      <trkpt lat="47.95386" lon="-3.85706">
        <ele>141.8</ele>
        <time>2021-08-12T08:54:02Z</time>
      </trkpt>
      <trkpt lat="47.95383" lon="-3.85718">
        <ele>142</ele>
        <time>2021-08-12T08:54:04Z</time>
      </trkpt>
      <trkpt lat="47.95382" lon="-3.85725">
        <ele>142</ele>
        <time>2021-08-12T08:54:05Z</time>
      </trkpt>
      <trkpt lat="47.95381" lon="-3.85731">
        <ele>142.2</ele>
        <time>2021-08-12T08:54:06Z</time>
      </trkpt>
      <trkpt lat="47.9538" lon="-3.85736">
        <ele>142.4</ele>
        <time>2021-08-12T08:54:07Z</time>
      </trkpt>
      <trkpt lat="47.95379" lon="-3.85741">
        <ele>142.6</ele>
        <time>2021-08-12T08:54:08Z</time>
      </trkpt>
      <trkpt lat="47.95379" lon="-3.85746">
        <ele>142.6</ele>
        <time>2021-08-12T08:54:09Z</time>
      </trkpt>
      <trkpt lat="47.95378" lon="-3.8575">
        <ele>142.6</ele>
        <time>2021-08-12T08:54:10Z</time>
      </trkpt>
      <trkpt lat="47.95377" lon="-3.85754">
        <ele>142.8</ele>
        <time>2021-08-12T08:54:11Z</time>
      </trkpt>
      <trkpt lat="47.95376" lon="-3.85758">
        <ele>142.8</ele>
        <time>2021-08-12T08:54:12Z</time>
      </trkpt>
      <trkpt lat="47.95376" lon="-3.85763">
        <ele>142.8</ele>
        <time>2021-08-12T08:54:13Z</time>
      </trkpt>
      <trkpt lat="47.95374" lon="-3.85772">
        <ele>142.6</ele>
        <time>2021-08-12T08:54:15Z</time>
      </trkpt>
      <trkpt lat="47.95373" lon="-3.85776">
        <ele>142.6</ele>
        <time>2021-08-12T08:54:16Z</time>
      </trkpt>
      <trkpt lat="47.95372" lon="-3.8578">
        <ele>143</ele>
        <time>2021-08-12T08:54:17Z</time>
      </trkpt>
      <trkpt lat="47.95372" lon="-3.85784">
        <ele>143</ele>
        <time>2021-08-12T08:54:18Z</time>
      </trkpt>
      <trkpt lat="47.95371" lon="-3.85787">
        <ele>143.2</ele>
        <time>2021-08-12T08:54:19Z</time>
      </trkpt>
      <trkpt lat="47.95371" lon="-3.85791">
        <ele>143.2</ele>
        <time>2021-08-12T08:54:20Z</time>
      </trkpt>
      <trkpt lat="47.95371" lon="-3.85795">
        <ele>143.2</ele>
        <time>2021-08-12T08:54:21Z</time>
      </trkpt>
      <trkpt lat="47.9537" lon="-3.858">
        <ele>143.4</ele>
        <time>2021-08-12T08:54:22Z</time>
      </trkpt>
      <trkpt lat="47.95369" lon="-3.85804">
        <ele>143.4</ele>
        <time>2021-08-12T08:54:23Z</time>
      </trkpt>
      <trkpt lat="47.95368" lon="-3.85809">
        <ele>143.4</ele>
        <time>2021-08-12T08:54:24Z</time>
      </trkpt>
      <trkpt lat="47.95367" lon="-3.85814">
        <ele>143.4</ele>
        <time>2021-08-12T08:54:25Z</time>
      </trkpt>
      <trkpt lat="47.95366" lon="-3.85819">
        <ele>143.4</ele>
        <time>2021-08-12T08:54:26Z</time>
      </trkpt>
      <trkpt lat="47.95365" lon="-3.85825">
        <ele>143.6</ele>
        <time>2021-08-12T08:54:27Z</time>
      </trkpt>
      <trkpt lat="47.95364" lon="-3.8583">
        <ele>143.6</ele>
        <time>2021-08-12T08:54:28Z</time>
      </trkpt>
      <trkpt lat="47.95363" lon="-3.85836">
        <ele>143.4</ele>
        <time>2021-08-12T08:54:29Z</time>
      </trkpt>
      <trkpt lat="47.95362" lon="-3.85842">
        <ele>143.6</ele>
        <time>2021-08-12T08:54:30Z</time>
      </trkpt>
      <trkpt lat="47.95361" lon="-3.85848">
        <ele>143.6</ele>
        <time>2021-08-12T08:54:31Z</time>
      </trkpt>
      <trkpt lat="47.95359" lon="-3.85854">
        <ele>143.8</ele>
        <time>2021-08-12T08:54:32Z</time>
      </trkpt>
      <trkpt lat="47.95358" lon="-3.85861">
        <ele>143.8</ele>
        <time>2021-08-12T08:54:33Z</time>
      </trkpt>
      <trkpt lat="47.95357" lon="-3.85867">
        <ele>143.8</ele>
        <time>2021-08-12T08:54:34Z</time>
      </trkpt>
      <trkpt lat="47.95356" lon="-3.85873">
        <ele>144</ele>
        <time>2021-08-12T08:54:35Z</time>
      </trkpt>
      <trkpt lat="47.95354" lon="-3.85885">
        <ele>144.2</ele>
        <time>2021-08-12T08:54:37Z</time>
      </trkpt>
      <trkpt lat="47.95353" lon="-3.85892">
        <ele>144.4</ele>
        <time>2021-08-12T08:54:38Z</time>
      </trkpt>
      <trkpt lat="47.95352" lon="-3.85898">
        <ele>144.6</ele>
        <time>2021-08-12T08:54:39Z</time>
      </trkpt>
      <trkpt lat="47.95351" lon="-3.85904">
        <ele>144.8</ele>
        <time>2021-08-12T08:54:40Z</time>
      </trkpt>
      <trkpt lat="47.9535" lon="-3.85911">
        <ele>145</ele>
        <time>2021-08-12T08:54:41Z</time>
      </trkpt>
      <trkpt lat="47.95349" lon="-3.85917">
        <ele>145</ele>
        <time>2021-08-12T08:54:42Z</time>
      </trkpt>
      <trkpt lat="47.95349" lon="-3.85923">
        <ele>145.2</ele>
        <time>2021-08-12T08:54:43Z</time>
      </trkpt>
      <trkpt lat="47.95348" lon="-3.85929">
        <ele>145.2</ele>
        <time>2021-08-12T08:54:44Z</time>
      </trkpt>
      <trkpt lat="47.95347" lon="-3.85934">
        <ele>145.2</ele>
        <time>2021-08-12T08:54:45Z</time>
      </trkpt>
      <trkpt lat="47.95346" lon="-3.85939">
        <ele>145.4</ele>
        <time>2021-08-12T08:54:46Z</time>
      </trkpt>
      <trkpt lat="47.95345" lon="-3.85949">
        <ele>145.6</ele>
        <time>2021-08-12T08:54:48Z</time>
      </trkpt>
      <trkpt lat="47.95344" lon="-3.85954">
        <ele>145.6</ele>
        <time>2021-08-12T08:54:49Z</time>
      </trkpt>
      <trkpt lat="47.95343" lon="-3.85959">
        <ele>145.8</ele>
        <time>2021-08-12T08:54:50Z</time>
      </trkpt>
      <trkpt lat="47.95343" lon="-3.85963">
        <ele>146</ele>
        <time>2021-08-12T08:54:51Z</time>
      </trkpt>
      <trkpt lat="47.95343" lon="-3.85968">
        <ele>146.2</ele>
        <time>2021-08-12T08:54:52Z</time>
      </trkpt>
      <trkpt lat="47.95342" lon="-3.85971">
        <ele>146.4</ele>
        <time>2021-08-12T08:54:53Z</time>
      </trkpt>
      <trkpt lat="47.95342" lon="-3.85973">
        <ele>146.6</ele>
        <time>2021-08-12T08:54:54Z</time>
      </trkpt>
      <trkpt lat="47.95342" lon="-3.85977">
        <ele>146.8</ele>
        <time>2021-08-12T08:54:55Z</time>
      </trkpt>
      <trkpt lat="47.95341" lon="-3.85981">
        <ele>147</ele>
        <time>2021-08-12T08:54:56Z</time>
      </trkpt>
      <trkpt lat="47.95341" lon="-3.85985">
        <ele>147.2</ele>
        <time>2021-08-12T08:54:57Z</time>
      </trkpt>
      <trkpt lat="47.95339" lon="-3.85995">
        <ele>147.6</ele>
        <time>2021-08-12T08:54:59Z</time>
      </trkpt>
      <trkpt lat="47.95339" lon="-3.86">
        <ele>147.8</ele>
        <time>2021-08-12T08:55:00Z</time>
      </trkpt>
      <trkpt lat="47.95338" lon="-3.86006">
        <ele>148</ele>
        <time>2021-08-12T08:55:01Z</time>
      </trkpt>
      <trkpt lat="47.95338" lon="-3.86011">
        <ele>148.2</ele>
        <time>2021-08-12T08:55:02Z</time>
      </trkpt>
      <trkpt lat="47.95337" lon="-3.86017">
        <ele>148</ele>
        <time>2021-08-12T08:55:03Z</time>
      </trkpt>
      <trkpt lat="47.95336" lon="-3.86023">
        <ele>148.2</ele>
        <time>2021-08-12T08:55:04Z</time>
      </trkpt>
      <trkpt lat="47.95335" lon="-3.86029">
        <ele>148.4</ele>
        <time>2021-08-12T08:55:05Z</time>
      </trkpt>
      <trkpt lat="47.95335" lon="-3.86034">
        <ele>148.4</ele>
        <time>2021-08-12T08:55:06Z</time>
      </trkpt>
      <trkpt lat="47.95334" lon="-3.8604">
        <ele>148.6</ele>
        <time>2021-08-12T08:55:07Z</time>
      </trkpt>
      <trkpt lat="47.95334" lon="-3.86045">
        <ele>148.6</ele>
        <time>2021-08-12T08:55:08Z</time>
      </trkpt>
      <trkpt lat="47.95333" lon="-3.86056">
        <ele>148.8</ele>
        <time>2021-08-12T08:55:10Z</time>
      </trkpt>
      <trkpt lat="47.95333" lon="-3.86061">
        <ele>148.8</ele>
        <time>2021-08-12T08:55:11Z</time>
      </trkpt>
      <trkpt lat="47.95332" lon="-3.86067">
        <ele>149</ele>
        <time>2021-08-12T08:55:12Z</time>
      </trkpt>
      <trkpt lat="47.95332" lon="-3.86072">
        <ele>149.2</ele>
        <time>2021-08-12T08:55:13Z</time>
      </trkpt>
      <trkpt lat="47.95332" lon="-3.86078">
        <ele>149.4</ele>
        <time>2021-08-12T08:55:14Z</time>
      </trkpt>
      <trkpt lat="47.95332" lon="-3.86084">
        <ele>149.4</ele>
        <time>2021-08-12T08:55:15Z</time>
      </trkpt>
      <trkpt lat="47.95331" lon="-3.8609">
        <ele>149.6</ele>
        <time>2021-08-12T08:55:16Z</time>
      </trkpt>
      <trkpt lat="47.9533" lon="-3.86096">
        <ele>149.8</ele>
        <time>2021-08-12T08:55:17Z</time>
      </trkpt>
      <trkpt lat="47.9533" lon="-3.86102">
        <ele>150</ele>
        <time>2021-08-12T08:55:18Z</time>
      </trkpt>
      <trkpt lat="47.95329" lon="-3.86108">
        <ele>150.2</ele>
        <time>2021-08-12T08:55:19Z</time>
      </trkpt>
      <trkpt lat="47.95327" lon="-3.8612">
        <ele>150.2</ele>
        <time>2021-08-12T08:55:21Z</time>
      </trkpt>
      <trkpt lat="47.95326" lon="-3.86126">
        <ele>150.2</ele>
        <time>2021-08-12T08:55:22Z</time>
      </trkpt>
      <trkpt lat="47.95325" lon="-3.86132">
        <ele>150.4</ele>
        <time>2021-08-12T08:55:23Z</time>
      </trkpt>
      <trkpt lat="47.95324" lon="-3.86138">
        <ele>150.4</ele>
        <time>2021-08-12T08:55:24Z</time>
      </trkpt>
      <trkpt lat="47.95323" lon="-3.86144">
        <ele>150.4</ele>
        <time>2021-08-12T08:55:25Z</time>
      </trkpt>
      <trkpt lat="47.95321" lon="-3.8615">
        <ele>150.4</ele>
        <time>2021-08-12T08:55:26Z</time>
      </trkpt>
      <trkpt lat="47.9532" lon="-3.86156">
        <ele>150.4</ele>
        <time>2021-08-12T08:55:27Z</time>
      </trkpt>
      <trkpt lat="47.95319" lon="-3.86162">
        <ele>150.4</ele>
        <time>2021-08-12T08:55:28Z</time>
      </trkpt>
      <trkpt lat="47.95318" lon="-3.86168">
        <ele>150.6</ele>
        <time>2021-08-12T08:55:29Z</time>
      </trkpt>
      <trkpt lat="47.95317" lon="-3.86174">
        <ele>150.6</ele>
        <time>2021-08-12T08:55:30Z</time>
      </trkpt>
      <trkpt lat="47.95314" lon="-3.86186">
        <ele>150.8</ele>
        <time>2021-08-12T08:55:32Z</time>
      </trkpt>
      <trkpt lat="47.95313" lon="-3.86193">
        <ele>150.8</ele>
        <time>2021-08-12T08:55:33Z</time>
      </trkpt>
      <trkpt lat="47.95312" lon="-3.86199">
        <ele>151</ele>
        <time>2021-08-12T08:55:34Z</time>
      </trkpt>
      <trkpt lat="47.95311" lon="-3.86206">
        <ele>151</ele>
        <time>2021-08-12T08:55:35Z</time>
      </trkpt>
      <trkpt lat="47.95309" lon="-3.86213">
        <ele>151</ele>
        <time>2021-08-12T08:55:36Z</time>
      </trkpt>
      <trkpt lat="47.95308" lon="-3.86219">
        <ele>151</ele>
        <time>2021-08-12T08:55:37Z</time>
      </trkpt>
      <trkpt lat="47.95307" lon="-3.86225">
        <ele>151</ele>
        <time>2021-08-12T08:55:38Z</time>
      </trkpt>
      <trkpt lat="47.95306" lon="-3.86231">
        <ele>151</ele>
        <time>2021-08-12T08:55:39Z</time>
      </trkpt>
      <trkpt lat="47.95305" lon="-3.86236">
        <ele>150.8</ele>
        <time>2021-08-12T08:55:40Z</time>
      </trkpt>
      <trkpt lat="47.95304" lon="-3.86242">
        <ele>151</ele>
        <time>2021-08-12T08:55:41Z</time>
      </trkpt>
      <trkpt lat="47.95302" lon="-3.86254">
        <ele>151.2</ele>
        <time>2021-08-12T08:55:43Z</time>
      </trkpt>
      <trkpt lat="47.95301" lon="-3.8626">
        <ele>151.2</ele>
        <time>2021-08-12T08:55:44Z</time>
      </trkpt>
      <trkpt lat="47.953" lon="-3.86266">
        <ele>151.4</ele>
        <time>2021-08-12T08:55:45Z</time>
      </trkpt>
      <trkpt lat="47.95299" lon="-3.86272">
        <ele>151.4</ele>
        <time>2021-08-12T08:55:46Z</time>
      </trkpt>
      <trkpt lat="47.95298" lon="-3.86278">
        <ele>151.6</ele>
        <time>2021-08-12T08:55:47Z</time>
      </trkpt>
      <trkpt lat="47.95298" lon="-3.86284">
        <ele>151.8</ele>
        <time>2021-08-12T08:55:48Z</time>
      </trkpt>
      <trkpt lat="47.95297" lon="-3.8629">
        <ele>151.8</ele>
        <time>2021-08-12T08:55:49Z</time>
      </trkpt>
      <trkpt lat="47.95296" lon="-3.86296">
        <ele>151.8</ele>
        <time>2021-08-12T08:55:50Z</time>
      </trkpt>
      <trkpt lat="47.95296" lon="-3.86302">
        <ele>151.8</ele>
        <time>2021-08-12T08:55:51Z</time>
      </trkpt>
      <trkpt lat="47.95295" lon="-3.86308">
        <ele>151.8</ele>
        <time>2021-08-12T08:55:52Z</time>
      </trkpt>
      <trkpt lat="47.95293" lon="-3.8632">
        <ele>151.8</ele>
        <time>2021-08-12T08:55:54Z</time>
      </trkpt>
      <trkpt lat="47.95293" lon="-3.86327">
        <ele>152</ele>
        <time>2021-08-12T08:55:55Z</time>
      </trkpt>
      <trkpt lat="47.95292" lon="-3.86333">
        <ele>152.2</ele>
        <time>2021-08-12T08:55:56Z</time>
      </trkpt>
      <trkpt lat="47.95292" lon="-3.86339">
        <ele>152.2</ele>
        <time>2021-08-12T08:55:57Z</time>
      </trkpt>
      <trkpt lat="47.95291" lon="-3.86345">
        <ele>152.4</ele>
        <time>2021-08-12T08:55:58Z</time>
      </trkpt>
      <trkpt lat="47.9529" lon="-3.86351">
        <ele>152.4</ele>
        <time>2021-08-12T08:55:59Z</time>
      </trkpt>
      <trkpt lat="47.95289" lon="-3.86357">
        <ele>152.4</ele>
        <time>2021-08-12T08:56:00Z</time>
      </trkpt>
      <trkpt lat="47.95289" lon="-3.86363">
        <ele>152.4</ele>
        <time>2021-08-12T08:56:01Z</time>
      </trkpt>
      <trkpt lat="47.95288" lon="-3.86369">
        <ele>152.6</ele>
        <time>2021-08-12T08:56:02Z</time>
      </trkpt>
      <trkpt lat="47.95287" lon="-3.86375">
        <ele>152.6</ele>
        <time>2021-08-12T08:56:03Z</time>
      </trkpt>
      <trkpt lat="47.95287" lon="-3.86381">
        <ele>152.6</ele>
        <time>2021-08-12T08:56:04Z</time>
      </trkpt>
      <trkpt lat="47.95286" lon="-3.86388">
        <ele>152.8</ele>
        <time>2021-08-12T08:56:05Z</time>
      </trkpt>
      <trkpt lat="47.95286" lon="-3.86394">
        <ele>152.8</ele>
        <time>2021-08-12T08:56:06Z</time>
      </trkpt>
      <trkpt lat="47.95285" lon="-3.864">
        <ele>152.8</ele>
        <time>2021-08-12T08:56:07Z</time>
      </trkpt>
      <trkpt lat="47.95284" lon="-3.86407">
        <ele>152.8</ele>
        <time>2021-08-12T08:56:08Z</time>
      </trkpt>
      <trkpt lat="47.95284" lon="-3.86414">
        <ele>153</ele>
        <time>2021-08-12T08:56:09Z</time>
      </trkpt>
      <trkpt lat="47.95283" lon="-3.8642">
        <ele>153</ele>
        <time>2021-08-12T08:56:10Z</time>
      </trkpt>
      <trkpt lat="47.95283" lon="-3.86426">
        <ele>153</ele>
        <time>2021-08-12T08:56:11Z</time>
      </trkpt>
      <trkpt lat="47.95283" lon="-3.86433">
        <ele>153</ele>
        <time>2021-08-12T08:56:12Z</time>
      </trkpt>
      <trkpt lat="47.95282" lon="-3.8644">
        <ele>153</ele>
        <time>2021-08-12T08:56:13Z</time>
      </trkpt>
      <trkpt lat="47.95282" lon="-3.86446">
        <ele>153</ele>
        <time>2021-08-12T08:56:14Z</time>
      </trkpt>
      <trkpt lat="47.95281" lon="-3.86459">
        <ele>153</ele>
        <time>2021-08-12T08:56:16Z</time>
      </trkpt>
      <trkpt lat="47.9528" lon="-3.86465">
        <ele>152.8</ele>
        <time>2021-08-12T08:56:17Z</time>
      </trkpt>
      <trkpt lat="47.9528" lon="-3.86471">
        <ele>153</ele>
        <time>2021-08-12T08:56:18Z</time>
      </trkpt>
      <trkpt lat="47.95279" lon="-3.86477">
        <ele>153</ele>
        <time>2021-08-12T08:56:19Z</time>
      </trkpt>
      <trkpt lat="47.95278" lon="-3.86484">
        <ele>153</ele>
        <time>2021-08-12T08:56:20Z</time>
      </trkpt>
      <trkpt lat="47.95278" lon="-3.8649">
        <ele>153</ele>
        <time>2021-08-12T08:56:21Z</time>
      </trkpt>
      <trkpt lat="47.95277" lon="-3.86496">
        <ele>153</ele>
        <time>2021-08-12T08:56:22Z</time>
      </trkpt>
      <trkpt lat="47.95277" lon="-3.86502">
        <ele>153</ele>
        <time>2021-08-12T08:56:23Z</time>
      </trkpt>
      <trkpt lat="47.95277" lon="-3.86508">
        <ele>153</ele>
        <time>2021-08-12T08:56:24Z</time>
      </trkpt>
      <trkpt lat="47.95276" lon="-3.86514">
        <ele>153</ele>
        <time>2021-08-12T08:56:25Z</time>
      </trkpt>
      <trkpt lat="47.95275" lon="-3.86527">
        <ele>153.2</ele>
        <time>2021-08-12T08:56:27Z</time>
      </trkpt>
      <trkpt lat="47.95275" lon="-3.86533">
        <ele>153.2</ele>
        <time>2021-08-12T08:56:28Z</time>
      </trkpt>
      <trkpt lat="47.95275" lon="-3.8654">
        <ele>153.2</ele>
        <time>2021-08-12T08:56:29Z</time>
      </trkpt>
      <trkpt lat="47.95275" lon="-3.86546">
        <ele>153.2</ele>
        <time>2021-08-12T08:56:30Z</time>
      </trkpt>
      <trkpt lat="47.95274" lon="-3.86553">
        <ele>153.2</ele>
        <time>2021-08-12T08:56:31Z</time>
      </trkpt>
      <trkpt lat="47.95274" lon="-3.86559">
        <ele>153.2</ele>
        <time>2021-08-12T08:56:32Z</time>
      </trkpt>
      <trkpt lat="47.95273" lon="-3.86566">
        <ele>153.2</ele>
        <time>2021-08-12T08:56:33Z</time>
      </trkpt>
      <trkpt lat="47.95273" lon="-3.86572">
        <ele>153.2</ele>
        <time>2021-08-12T08:56:34Z</time>
      </trkpt>
      <trkpt lat="47.95272" lon="-3.86579">
        <ele>153.2</ele>
        <time>2021-08-12T08:56:35Z</time>
      </trkpt>
      <trkpt lat="47.95272" lon="-3.86585">
        <ele>153</ele>
        <time>2021-08-12T08:56:36Z</time>
      </trkpt>
      <trkpt lat="47.95271" lon="-3.86599">
        <ele>153.2</ele>
        <time>2021-08-12T08:56:38Z</time>
      </trkpt>
      <trkpt lat="47.95271" lon="-3.86606">
        <ele>153.2</ele>
        <time>2021-08-12T08:56:39Z</time>
      </trkpt>
      <trkpt lat="47.9527" lon="-3.86612">
        <ele>153</ele>
        <time>2021-08-12T08:56:40Z</time>
      </trkpt>
      <trkpt lat="47.9527" lon="-3.86619">
        <ele>153</ele>
        <time>2021-08-12T08:56:41Z</time>
      </trkpt>
      <trkpt lat="47.9527" lon="-3.86626">
        <ele>153.2</ele>
        <time>2021-08-12T08:56:42Z</time>
      </trkpt>
      <trkpt lat="47.9527" lon="-3.86632">
        <ele>153.4</ele>
        <time>2021-08-12T08:56:43Z</time>
      </trkpt>
      <trkpt lat="47.95269" lon="-3.86637">
        <ele>153.4</ele>
        <time>2021-08-12T08:56:44Z</time>
      </trkpt>
      <trkpt lat="47.9527" lon="-3.86642">
        <ele>153.6</ele>
        <time>2021-08-12T08:56:45Z</time>
      </trkpt>
      <trkpt lat="47.95269" lon="-3.86647">
        <ele>153.6</ele>
        <time>2021-08-12T08:56:46Z</time>
      </trkpt>
      <trkpt lat="47.95269" lon="-3.86652">
        <ele>153.6</ele>
        <time>2021-08-12T08:56:47Z</time>
      </trkpt>
      <trkpt lat="47.95269" lon="-3.86663">
        <ele>153.8</ele>
        <time>2021-08-12T08:56:49Z</time>
      </trkpt>
      <trkpt lat="47.95269" lon="-3.86669">
        <ele>154</ele>
        <time>2021-08-12T08:56:50Z</time>
      </trkpt>
      <trkpt lat="47.95268" lon="-3.86675">
        <ele>154</ele>
        <time>2021-08-12T08:56:51Z</time>
      </trkpt>
      <trkpt lat="47.95268" lon="-3.86681">
        <ele>154.2</ele>
        <time>2021-08-12T08:56:52Z</time>
      </trkpt>
      <trkpt lat="47.95267" lon="-3.86686">
        <ele>154.2</ele>
        <time>2021-08-12T08:56:53Z</time>
      </trkpt>
      <trkpt lat="47.95267" lon="-3.86692">
        <ele>154.4</ele>
        <time>2021-08-12T08:56:54Z</time>
      </trkpt>
      <trkpt lat="47.95266" lon="-3.86698">
        <ele>154.6</ele>
        <time>2021-08-12T08:56:55Z</time>
      </trkpt>
      <trkpt lat="47.95266" lon="-3.86704">
        <ele>154.6</ele>
        <time>2021-08-12T08:56:56Z</time>
      </trkpt>
      <trkpt lat="47.95266" lon="-3.8671">
        <ele>154.8</ele>
        <time>2021-08-12T08:56:57Z</time>
      </trkpt>
      <trkpt lat="47.95266" lon="-3.86715">
        <ele>154.8</ele>
        <time>2021-08-12T08:56:58Z</time>
      </trkpt>
      <trkpt lat="47.95265" lon="-3.86728">
        <ele>154.8</ele>
        <time>2021-08-12T08:57:00Z</time>
      </trkpt>
      <trkpt lat="47.95264" lon="-3.86735">
        <ele>155</ele>
        <time>2021-08-12T08:57:01Z</time>
      </trkpt>
      <trkpt lat="47.95263" lon="-3.86742">
        <ele>155</ele>
        <time>2021-08-12T08:57:02Z</time>
      </trkpt>
      <trkpt lat="47.95262" lon="-3.86749">
        <ele>155</ele>
        <time>2021-08-12T08:57:03Z</time>
      </trkpt>
      <trkpt lat="47.95261" lon="-3.86756">
        <ele>155</ele>
        <time>2021-08-12T08:57:04Z</time>
      </trkpt>
      <trkpt lat="47.95261" lon="-3.86763">
        <ele>155.2</ele>
        <time>2021-08-12T08:57:05Z</time>
      </trkpt>
      <trkpt lat="47.9526" lon="-3.8677">
        <ele>155.2</ele>
        <time>2021-08-12T08:57:06Z</time>
      </trkpt>
      <trkpt lat="47.95259" lon="-3.86777">
        <ele>155.2</ele>
        <time>2021-08-12T08:57:07Z</time>
      </trkpt>
      <trkpt lat="47.95258" lon="-3.86783">
        <ele>155.2</ele>
        <time>2021-08-12T08:57:08Z</time>
      </trkpt>
      <trkpt lat="47.95256" lon="-3.8679">
        <ele>155.2</ele>
        <time>2021-08-12T08:57:09Z</time>
      </trkpt>
      <trkpt lat="47.95254" lon="-3.86803">
        <ele>155.4</ele>
        <time>2021-08-12T08:57:11Z</time>
      </trkpt>
      <trkpt lat="47.95252" lon="-3.86809">
        <ele>155.2</ele>
        <time>2021-08-12T08:57:12Z</time>
      </trkpt>
      <trkpt lat="47.95251" lon="-3.86815">
        <ele>155.4</ele>
        <time>2021-08-12T08:57:13Z</time>
      </trkpt>
      <trkpt lat="47.95249" lon="-3.8682">
        <ele>155.4</ele>
        <time>2021-08-12T08:57:14Z</time>
      </trkpt>
      <trkpt lat="47.95248" lon="-3.86826">
        <ele>155.4</ele>
        <time>2021-08-12T08:57:15Z</time>
      </trkpt>
      <trkpt lat="47.95246" lon="-3.86831">
        <ele>155.4</ele>
        <time>2021-08-12T08:57:16Z</time>
      </trkpt>
      <trkpt lat="47.95245" lon="-3.86836">
        <ele>155.6</ele>
        <time>2021-08-12T08:57:17Z</time>
      </trkpt>
      <trkpt lat="47.95244" lon="-3.86841">
        <ele>155.8</ele>
        <time>2021-08-12T08:57:18Z</time>
      </trkpt>
      <trkpt lat="47.95243" lon="-3.86845">
        <ele>155.8</ele>
        <time>2021-08-12T08:57:19Z</time>
      </trkpt>
      <trkpt lat="47.95242" lon="-3.86848">
        <ele>156.2</ele>
        <time>2021-08-12T08:57:20Z</time>
      </trkpt>
      <trkpt lat="47.95241" lon="-3.86856">
        <ele>156.6</ele>
        <time>2021-08-12T08:57:22Z</time>
      </trkpt>
      <trkpt lat="47.9524" lon="-3.86861">
        <ele>156.6</ele>
        <time>2021-08-12T08:57:23Z</time>
      </trkpt>
      <trkpt lat="47.95239" lon="-3.86866">
        <ele>156.8</ele>
        <time>2021-08-12T08:57:24Z</time>
      </trkpt>
      <trkpt lat="47.95238" lon="-3.8687">
        <ele>156.8</ele>
        <time>2021-08-12T08:57:25Z</time>
      </trkpt>
      <trkpt lat="47.95238" lon="-3.86875">
        <ele>156.8</ele>
        <time>2021-08-12T08:57:26Z</time>
      </trkpt>
      <trkpt lat="47.95237" lon="-3.86879">
        <ele>157</ele>
        <time>2021-08-12T08:57:27Z</time>
      </trkpt>
      <trkpt lat="47.95237" lon="-3.86883">
        <ele>157.2</ele>
        <time>2021-08-12T08:57:28Z</time>
      </trkpt>
      <trkpt lat="47.95236" lon="-3.86887">
        <ele>157.4</ele>
        <time>2021-08-12T08:57:29Z</time>
      </trkpt>
      <trkpt lat="47.95235" lon="-3.86891">
        <ele>157.4</ele>
        <time>2021-08-12T08:57:30Z</time>
      </trkpt>
      <trkpt lat="47.95235" lon="-3.86894">
        <ele>157.6</ele>
        <time>2021-08-12T08:57:31Z</time>
      </trkpt>
      <trkpt lat="47.95233" lon="-3.86902">
        <ele>158</ele>
        <time>2021-08-12T08:57:33Z</time>
      </trkpt>
      <trkpt lat="47.95232" lon="-3.86906">
        <ele>158</ele>
        <time>2021-08-12T08:57:34Z</time>
      </trkpt>
      <trkpt lat="47.95231" lon="-3.8691">
        <ele>158.2</ele>
        <time>2021-08-12T08:57:35Z</time>
      </trkpt>
      <trkpt lat="47.9523" lon="-3.86915">
        <ele>158.4</ele>
        <time>2021-08-12T08:57:36Z</time>
      </trkpt>
      <trkpt lat="47.95228" lon="-3.86921">
        <ele>158.6</ele>
        <time>2021-08-12T08:57:37Z</time>
      </trkpt>
      <trkpt lat="47.95227" lon="-3.86926">
        <ele>158.8</ele>
        <time>2021-08-12T08:57:38Z</time>
      </trkpt>
      <trkpt lat="47.95225" lon="-3.86932">
        <ele>158.8</ele>
        <time>2021-08-12T08:57:39Z</time>
      </trkpt>
      <trkpt lat="47.95223" lon="-3.86937">
        <ele>159</ele>
        <time>2021-08-12T08:57:40Z</time>
      </trkpt>
      <trkpt lat="47.95222" lon="-3.86942">
        <ele>159.4</ele>
        <time>2021-08-12T08:57:41Z</time>
      </trkpt>
      <trkpt lat="47.95219" lon="-3.86947">
        <ele>159.4</ele>
        <time>2021-08-12T08:57:42Z</time>
      </trkpt>
      <trkpt lat="47.95217" lon="-3.86953">
        <ele>159.6</ele>
        <time>2021-08-12T08:57:43Z</time>
      </trkpt>
      <trkpt lat="47.95215" lon="-3.8696">
        <ele>159.4</ele>
        <time>2021-08-12T08:57:44Z</time>
      </trkpt>
      <trkpt lat="47.95212" lon="-3.86966">
        <ele>159.4</ele>
        <time>2021-08-12T08:57:45Z</time>
      </trkpt>
      <trkpt lat="47.9521" lon="-3.86971">
        <ele>159.4</ele>
        <time>2021-08-12T08:57:46Z</time>
      </trkpt>
      <trkpt lat="47.95207" lon="-3.86977">
        <ele>159.4</ele>
        <time>2021-08-12T08:57:47Z</time>
      </trkpt>
      <trkpt lat="47.95205" lon="-3.86983">
        <ele>159.6</ele>
        <time>2021-08-12T08:57:48Z</time>
      </trkpt>
      <trkpt lat="47.95202" lon="-3.86989">
        <ele>159.6</ele>
        <time>2021-08-12T08:57:49Z</time>
      </trkpt>
      <trkpt lat="47.952" lon="-3.86995">
        <ele>159.6</ele>
        <time>2021-08-12T08:57:50Z</time>
      </trkpt>
      <trkpt lat="47.95198" lon="-3.87001">
        <ele>159.6</ele>
        <time>2021-08-12T08:57:51Z</time>
      </trkpt>
      <trkpt lat="47.95195" lon="-3.87008">
        <ele>159.6</ele>
        <time>2021-08-12T08:57:52Z</time>
      </trkpt>
      <trkpt lat="47.95192" lon="-3.87015">
        <ele>159.6</ele>
        <time>2021-08-12T08:57:53Z</time>
      </trkpt>
      <trkpt lat="47.95185" lon="-3.87029">
        <ele>159.6</ele>
        <time>2021-08-12T08:57:55Z</time>
      </trkpt>
      <trkpt lat="47.95182" lon="-3.87036">
        <ele>159.6</ele>
        <time>2021-08-12T08:57:56Z</time>
      </trkpt>
      <trkpt lat="47.95178" lon="-3.87042">
        <ele>159.6</ele>
        <time>2021-08-12T08:57:57Z</time>
      </trkpt>
      <trkpt lat="47.95175" lon="-3.87049">
        <ele>159.6</ele>
        <time>2021-08-12T08:57:58Z</time>
      </trkpt>
      <trkpt lat="47.95171" lon="-3.87056">
        <ele>159.6</ele>
        <time>2021-08-12T08:57:59Z</time>
      </trkpt>
      <trkpt lat="47.95168" lon="-3.87062">
        <ele>159.6</ele>
        <time>2021-08-12T08:58:00Z</time>
      </trkpt>
      <trkpt lat="47.95164" lon="-3.87069">
        <ele>159.6</ele>
        <time>2021-08-12T08:58:01Z</time>
      </trkpt>
      <trkpt lat="47.95161" lon="-3.87076">
        <ele>159.6</ele>
        <time>2021-08-12T08:58:02Z</time>
      </trkpt>
      <trkpt lat="47.95158" lon="-3.87083">
        <ele>159.6</ele>
        <time>2021-08-12T08:58:03Z</time>
      </trkpt>
      <trkpt lat="47.95155" lon="-3.8709">
        <ele>159.4</ele>
        <time>2021-08-12T08:58:04Z</time>
      </trkpt>
      <trkpt lat="47.9515" lon="-3.87105">
        <ele>159</ele>
        <time>2021-08-12T08:58:06Z</time>
      </trkpt>
      <trkpt lat="47.95148" lon="-3.87112">
        <ele>158.8</ele>
        <time>2021-08-12T08:58:07Z</time>
      </trkpt>
      <trkpt lat="47.95146" lon="-3.8712">
        <ele>158.6</ele>
        <time>2021-08-12T08:58:08Z</time>
      </trkpt>
      <trkpt lat="47.95144" lon="-3.87129">
        <ele>158.4</ele>
        <time>2021-08-12T08:58:09Z</time>
      </trkpt>
      <trkpt lat="47.95143" lon="-3.87137">
        <ele>158.2</ele>
        <time>2021-08-12T08:58:10Z</time>
      </trkpt>
      <trkpt lat="47.95141" lon="-3.87145">
        <ele>158</ele>
        <time>2021-08-12T08:58:11Z</time>
      </trkpt>
      <trkpt lat="47.9514" lon="-3.87154">
        <ele>158</ele>
        <time>2021-08-12T08:58:12Z</time>
      </trkpt>
      <trkpt lat="47.95138" lon="-3.87162">
        <ele>158</ele>
        <time>2021-08-12T08:58:13Z</time>
      </trkpt>
      <trkpt lat="47.95137" lon="-3.8717">
        <ele>157.8</ele>
        <time>2021-08-12T08:58:14Z</time>
      </trkpt>
      <trkpt lat="47.95137" lon="-3.87178">
        <ele>157.8</ele>
        <time>2021-08-12T08:58:15Z</time>
      </trkpt>
      <trkpt lat="47.95135" lon="-3.87194">
        <ele>157.8</ele>
        <time>2021-08-12T08:58:17Z</time>
      </trkpt>
      <trkpt lat="47.95134" lon="-3.87202">
        <ele>157.6</ele>
        <time>2021-08-12T08:58:18Z</time>
      </trkpt>
      <trkpt lat="47.95133" lon="-3.87211">
        <ele>157.6</ele>
        <time>2021-08-12T08:58:19Z</time>
      </trkpt>
      <trkpt lat="47.95132" lon="-3.8722">
        <ele>157.4</ele>
        <time>2021-08-12T08:58:20Z</time>
      </trkpt>
      <trkpt lat="47.95131" lon="-3.87229">
        <ele>157.2</ele>
        <time>2021-08-12T08:58:21Z</time>
      </trkpt>
      <trkpt lat="47.9513" lon="-3.87238">
        <ele>157</ele>
        <time>2021-08-12T08:58:22Z</time>
      </trkpt>
      <trkpt lat="47.9513" lon="-3.87248">
        <ele>156.8</ele>
        <time>2021-08-12T08:58:23Z</time>
      </trkpt>
      <trkpt lat="47.95129" lon="-3.87258">
        <ele>156.8</ele>
        <time>2021-08-12T08:58:24Z</time>
      </trkpt>
      <trkpt lat="47.95128" lon="-3.87268">
        <ele>156.8</ele>
        <time>2021-08-12T08:58:25Z</time>
      </trkpt>
      <trkpt lat="47.95128" lon="-3.87279">
        <ele>156.6</ele>
        <time>2021-08-12T08:58:26Z</time>
      </trkpt>
      <trkpt lat="47.95127" lon="-3.87301">
        <ele>156.6</ele>
        <time>2021-08-12T08:58:28Z</time>
      </trkpt>
      <trkpt lat="47.95125" lon="-3.87311">
        <ele>156</ele>
        <time>2021-08-12T08:58:29Z</time>
      </trkpt>
      <trkpt lat="47.95123" lon="-3.87321">
        <ele>155.8</ele>
        <time>2021-08-12T08:58:30Z</time>
      </trkpt>
      <trkpt lat="47.95122" lon="-3.8733">
        <ele>155.4</ele>
        <time>2021-08-12T08:58:31Z</time>
      </trkpt>
      <trkpt lat="47.9512" lon="-3.8734">
        <ele>155</ele>
        <time>2021-08-12T08:58:32Z</time>
      </trkpt>
      <trkpt lat="47.95118" lon="-3.87349">
        <ele>154.8</ele>
        <time>2021-08-12T08:58:33Z</time>
      </trkpt>
      <trkpt lat="47.95115" lon="-3.87358">
        <ele>154.8</ele>
        <time>2021-08-12T08:58:34Z</time>
      </trkpt>
      <trkpt lat="47.95112" lon="-3.87367">
        <ele>154.6</ele>
        <time>2021-08-12T08:58:35Z</time>
      </trkpt>
      <trkpt lat="47.95109" lon="-3.87377">
        <ele>154.4</ele>
        <time>2021-08-12T08:58:36Z</time>
      </trkpt>
      <trkpt lat="47.95106" lon="-3.87386">
        <ele>154.2</ele>
        <time>2021-08-12T08:58:37Z</time>
      </trkpt>
      <trkpt lat="47.95102" lon="-3.87396">
        <ele>154</ele>
        <time>2021-08-12T08:58:38Z</time>
      </trkpt>
      <trkpt lat="47.95098" lon="-3.87406">
        <ele>153.8</ele>
        <time>2021-08-12T08:58:39Z</time>
      </trkpt>
      <trkpt lat="47.95094" lon="-3.87415">
        <ele>153.6</ele>
        <time>2021-08-12T08:58:40Z</time>
      </trkpt>
      <trkpt lat="47.9509" lon="-3.87424">
        <ele>153.4</ele>
        <time>2021-08-12T08:58:41Z</time>
      </trkpt>
      <trkpt lat="47.95087" lon="-3.87434">
        <ele>153</ele>
        <time>2021-08-12T08:58:42Z</time>
      </trkpt>
      <trkpt lat="47.95084" lon="-3.87444">
        <ele>152.6</ele>
        <time>2021-08-12T08:58:43Z</time>
      </trkpt>
      <trkpt lat="47.95083" lon="-3.87455">
        <ele>152.2</ele>
        <time>2021-08-12T08:58:44Z</time>
      </trkpt>
      <trkpt lat="47.95082" lon="-3.87466">
        <ele>151.6</ele>
        <time>2021-08-12T08:58:45Z</time>
      </trkpt>
      <trkpt lat="47.95082" lon="-3.87474">
        <ele>151</ele>
        <time>2021-08-12T08:58:46Z</time>
      </trkpt>
      <trkpt lat="47.95082" lon="-3.87481">
        <ele>150.6</ele>
        <time>2021-08-12T08:58:47Z</time>
      </trkpt>
      <trkpt lat="47.95081" lon="-3.87486">
        <ele>150.4</ele>
        <time>2021-08-12T08:58:48Z</time>
      </trkpt>
      <trkpt lat="47.9508" lon="-3.87495">
        <ele>149.8</ele>
        <time>2021-08-12T08:58:50Z</time>
      </trkpt>
      <trkpt lat="47.95079" lon="-3.87499">
        <ele>149.6</ele>
        <time>2021-08-12T08:58:51Z</time>
      </trkpt>
      <trkpt lat="47.95078" lon="-3.87503">
        <ele>149.4</ele>
        <time>2021-08-12T08:58:52Z</time>
      </trkpt>
      <trkpt lat="47.95077" lon="-3.87506">
        <ele>149.4</ele>
        <time>2021-08-12T08:58:53Z</time>
      </trkpt>
      <trkpt lat="47.95075" lon="-3.87508">
        <ele>149.4</ele>
        <time>2021-08-12T08:58:54Z</time>
      </trkpt>
      <trkpt lat="47.95073" lon="-3.8751">
        <ele>149.2</ele>
        <time>2021-08-12T08:58:55Z</time>
      </trkpt>
      <trkpt lat="47.9507" lon="-3.8751">
        <ele>149.2</ele>
        <time>2021-08-12T08:58:56Z</time>
      </trkpt>
      <trkpt lat="47.95067" lon="-3.8751">
        <ele>149.2</ele>
        <time>2021-08-12T08:58:57Z</time>
      </trkpt>
      <trkpt lat="47.95065" lon="-3.87509">
        <ele>149</ele>
        <time>2021-08-12T08:58:58Z</time>
      </trkpt>
      <trkpt lat="47.95062" lon="-3.87508">
        <ele>149</ele>
        <time>2021-08-12T08:58:59Z</time>
      </trkpt>
      <trkpt lat="47.95059" lon="-3.87507">
        <ele>149</ele>
        <time>2021-08-12T08:59:00Z</time>
      </trkpt>
      <trkpt lat="47.95055" lon="-3.87506">
        <ele>148.8</ele>
        <time>2021-08-12T08:59:01Z</time>
      </trkpt>
      <trkpt lat="47.95051" lon="-3.87505">
        <ele>148.8</ele>
        <time>2021-08-12T08:59:02Z</time>
      </trkpt>
      <trkpt lat="47.95047" lon="-3.87507">
        <ele>148.8</ele>
        <time>2021-08-12T08:59:03Z</time>
      </trkpt>
      <trkpt lat="47.95043" lon="-3.87509">
        <ele>148.6</ele>
        <time>2021-08-12T08:59:04Z</time>
      </trkpt>
      <trkpt lat="47.95039" lon="-3.87514">
        <ele>148.2</ele>
        <time>2021-08-12T08:59:05Z</time>
      </trkpt>
      <trkpt lat="47.95035" lon="-3.87518">
        <ele>147.8</ele>
        <time>2021-08-12T08:59:06Z</time>
      </trkpt>
      <trkpt lat="47.95031" lon="-3.87523">
        <ele>147.4</ele>
        <time>2021-08-12T08:59:07Z</time>
      </trkpt>
      <trkpt lat="47.95028" lon="-3.87528">
        <ele>147.2</ele>
        <time>2021-08-12T08:59:08Z</time>
      </trkpt>
      <trkpt lat="47.95024" lon="-3.87532">
        <ele>146.6</ele>
        <time>2021-08-12T08:59:09Z</time>
      </trkpt>
      <trkpt lat="47.95021" lon="-3.87537">
        <ele>146.4</ele>
        <time>2021-08-12T08:59:10Z</time>
      </trkpt>
      <trkpt lat="47.95017" lon="-3.87543">
        <ele>146</ele>
        <time>2021-08-12T08:59:11Z</time>
      </trkpt>
      <trkpt lat="47.95014" lon="-3.87549">
        <ele>145.6</ele>
        <time>2021-08-12T08:59:12Z</time>
      </trkpt>
      <trkpt lat="47.95011" lon="-3.87554">
        <ele>145</ele>
        <time>2021-08-12T08:59:13Z</time>
      </trkpt>
      <trkpt lat="47.95008" lon="-3.87559">
        <ele>144.8</ele>
        <time>2021-08-12T08:59:14Z</time>
      </trkpt>
      <trkpt lat="47.95006" lon="-3.87564">
        <ele>144.6</ele>
        <time>2021-08-12T08:59:15Z</time>
      </trkpt>
      <trkpt lat="47.95003" lon="-3.87569">
        <ele>144.4</ele>
        <time>2021-08-12T08:59:16Z</time>
      </trkpt>
      <trkpt lat="47.95" lon="-3.87574">
        <ele>144.2</ele>
        <time>2021-08-12T08:59:17Z</time>
      </trkpt>
      <trkpt lat="47.94996" lon="-3.87579">
        <ele>144.2</ele>
        <time>2021-08-12T08:59:18Z</time>
      </trkpt>
      <trkpt lat="47.94992" lon="-3.87584">
        <ele>144.2</ele>
        <time>2021-08-12T08:59:19Z</time>
      </trkpt>
      <trkpt lat="47.94989" lon="-3.8759">
        <ele>144.2</ele>
        <time>2021-08-12T08:59:20Z</time>
      </trkpt>
      <trkpt lat="47.94985" lon="-3.87595">
        <ele>144</ele>
        <time>2021-08-12T08:59:21Z</time>
      </trkpt>
      <trkpt lat="47.94977" lon="-3.87607">
        <ele>144</ele>
        <time>2021-08-12T08:59:23Z</time>
      </trkpt>
      <trkpt lat="47.94974" lon="-3.87611">
        <ele>144</ele>
        <time>2021-08-12T08:59:24Z</time>
      </trkpt>
      <trkpt lat="47.9497" lon="-3.87617">
        <ele>144</ele>
        <time>2021-08-12T08:59:25Z</time>
      </trkpt>
      <trkpt lat="47.94966" lon="-3.87621">
        <ele>143.8</ele>
        <time>2021-08-12T08:59:26Z</time>
      </trkpt>
      <trkpt lat="47.94962" lon="-3.87626">
        <ele>143.6</ele>
        <time>2021-08-12T08:59:27Z</time>
      </trkpt>
      <trkpt lat="47.94958" lon="-3.87632">
        <ele>143.6</ele>
        <time>2021-08-12T08:59:28Z</time>
      </trkpt>
      <trkpt lat="47.94954" lon="-3.87637">
        <ele>143.4</ele>
        <time>2021-08-12T08:59:29Z</time>
      </trkpt>
      <trkpt lat="47.94951" lon="-3.87642">
        <ele>143.2</ele>
        <time>2021-08-12T08:59:30Z</time>
      </trkpt>
      <trkpt lat="47.94947" lon="-3.87647">
        <ele>143</ele>
        <time>2021-08-12T08:59:31Z</time>
      </trkpt>
      <trkpt lat="47.94944" lon="-3.87652">
        <ele>143</ele>
        <time>2021-08-12T08:59:32Z</time>
      </trkpt>
      <trkpt lat="47.94937" lon="-3.87663">
        <ele>142.8</ele>
        <time>2021-08-12T08:59:34Z</time>
      </trkpt>
      <trkpt lat="47.94934" lon="-3.87669">
        <ele>142.6</ele>
        <time>2021-08-12T08:59:35Z</time>
      </trkpt>
      <trkpt lat="47.9493" lon="-3.87675">
        <ele>142.6</ele>
        <time>2021-08-12T08:59:36Z</time>
      </trkpt>
      <trkpt lat="47.94926" lon="-3.8768">
        <ele>142.6</ele>
        <time>2021-08-12T08:59:37Z</time>
      </trkpt>
      <trkpt lat="47.94922" lon="-3.87686">
        <ele>142.4</ele>
        <time>2021-08-12T08:59:38Z</time>
      </trkpt>
      <trkpt lat="47.94919" lon="-3.87691">
        <ele>142.4</ele>
        <time>2021-08-12T08:59:39Z</time>
      </trkpt>
      <trkpt lat="47.94916" lon="-3.87696">
        <ele>142.2</ele>
        <time>2021-08-12T08:59:40Z</time>
      </trkpt>
      <trkpt lat="47.94913" lon="-3.87702">
        <ele>142.2</ele>
        <time>2021-08-12T08:59:41Z</time>
      </trkpt>
      <trkpt lat="47.9491" lon="-3.87708">
        <ele>142.2</ele>
        <time>2021-08-12T08:59:42Z</time>
      </trkpt>
      <trkpt lat="47.94907" lon="-3.87714">
        <ele>142</ele>
        <time>2021-08-12T08:59:43Z</time>
      </trkpt>
      <trkpt lat="47.94904" lon="-3.87719">
        <ele>141.8</ele>
        <time>2021-08-12T08:59:44Z</time>
      </trkpt>
      <trkpt lat="47.94902" lon="-3.87723">
        <ele>141.8</ele>
        <time>2021-08-12T08:59:45Z</time>
      </trkpt>
      <trkpt lat="47.94899" lon="-3.87728">
        <ele>141.6</ele>
        <time>2021-08-12T08:59:46Z</time>
      </trkpt>
      <trkpt lat="47.94896" lon="-3.87733">
        <ele>141.4</ele>
        <time>2021-08-12T08:59:47Z</time>
      </trkpt>
      <trkpt lat="47.94894" lon="-3.87737">
        <ele>141.2</ele>
        <time>2021-08-12T08:59:48Z</time>
      </trkpt>
      <trkpt lat="47.94891" lon="-3.87743">
        <ele>141</ele>
        <time>2021-08-12T08:59:49Z</time>
      </trkpt>
      <trkpt lat="47.94888" lon="-3.87747">
        <ele>140.6</ele>
        <time>2021-08-12T08:59:50Z</time>
      </trkpt>
      <trkpt lat="47.94886" lon="-3.87751">
        <ele>140.2</ele>
        <time>2021-08-12T08:59:51Z</time>
      </trkpt>
      <trkpt lat="47.94883" lon="-3.87756">
        <ele>140</ele>
        <time>2021-08-12T08:59:52Z</time>
      </trkpt>
      <trkpt lat="47.94881" lon="-3.87761">
        <ele>139.8</ele>
        <time>2021-08-12T08:59:53Z</time>
      </trkpt>
      <trkpt lat="47.94878" lon="-3.87766">
        <ele>139.6</ele>
        <time>2021-08-12T08:59:54Z</time>
      </trkpt>
      <trkpt lat="47.94872" lon="-3.87776">
        <ele>139.2</ele>
        <time>2021-08-12T08:59:56Z</time>
      </trkpt>
      <trkpt lat="47.94869" lon="-3.87781">
        <ele>139</ele>
        <time>2021-08-12T08:59:57Z</time>
      </trkpt>
      <trkpt lat="47.94865" lon="-3.87787">
        <ele>138.8</ele>
        <time>2021-08-12T08:59:58Z</time>
      </trkpt>
      <trkpt lat="47.94862" lon="-3.87793">
        <ele>138.6</ele>
        <time>2021-08-12T08:59:59Z</time>
      </trkpt>
      <trkpt lat="47.9486" lon="-3.87798">
        <ele>138.4</ele>
        <time>2021-08-12T09:00:00Z</time>
      </trkpt>
      <trkpt lat="47.94857" lon="-3.87804">
        <ele>138.2</ele>
        <time>2021-08-12T09:00:01Z</time>
      </trkpt>
      <trkpt lat="47.94853" lon="-3.8781">
        <ele>138</ele>
        <time>2021-08-12T09:00:02Z</time>
      </trkpt>
      <trkpt lat="47.94851" lon="-3.87814">
        <ele>137.8</ele>
        <time>2021-08-12T09:00:03Z</time>
      </trkpt>
      <trkpt lat="47.94849" lon="-3.87819">
        <ele>137.8</ele>
        <time>2021-08-12T09:00:04Z</time>
      </trkpt>
      <trkpt lat="47.94846" lon="-3.87824">
        <ele>137.6</ele>
        <time>2021-08-12T09:00:05Z</time>
      </trkpt>
      <trkpt lat="47.94844" lon="-3.87829">
        <ele>137.4</ele>
        <time>2021-08-12T09:00:06Z</time>
      </trkpt>
      <trkpt lat="47.94841" lon="-3.87834">
        <ele>137.2</ele>
        <time>2021-08-12T09:00:07Z</time>
      </trkpt>
      <trkpt lat="47.94838" lon="-3.87838">
        <ele>137</ele>
        <time>2021-08-12T09:00:08Z</time>
      </trkpt>
      <trkpt lat="47.94835" lon="-3.87843">
        <ele>137</ele>
        <time>2021-08-12T09:00:09Z</time>
      </trkpt>
      <trkpt lat="47.94831" lon="-3.87848">
        <ele>137</ele>
        <time>2021-08-12T09:00:10Z</time>
      </trkpt>
      <trkpt lat="47.94828" lon="-3.87853">
        <ele>137</ele>
        <time>2021-08-12T09:00:11Z</time>
      </trkpt>
      <trkpt lat="47.94825" lon="-3.87858">
        <ele>137</ele>
        <time>2021-08-12T09:00:12Z</time>
      </trkpt>
      <trkpt lat="47.94823" lon="-3.87863">
        <ele>136.8</ele>
        <time>2021-08-12T09:00:13Z</time>
      </trkpt>
      <trkpt lat="47.94821" lon="-3.87869">
        <ele>136.6</ele>
        <time>2021-08-12T09:00:14Z</time>
      </trkpt>
      <trkpt lat="47.94819" lon="-3.87874">
        <ele>136.6</ele>
        <time>2021-08-12T09:00:15Z</time>
      </trkpt>
      <trkpt lat="47.94818" lon="-3.8788">
        <ele>136.6</ele>
        <time>2021-08-12T09:00:16Z</time>
      </trkpt>
      <trkpt lat="47.94814" lon="-3.87892">
        <ele>136.6</ele>
        <time>2021-08-12T09:00:18Z</time>
      </trkpt>
      <trkpt lat="47.94813" lon="-3.87899">
        <ele>136.6</ele>
        <time>2021-08-12T09:00:19Z</time>
      </trkpt>
      <trkpt lat="47.94812" lon="-3.87905">
        <ele>136.6</ele>
        <time>2021-08-12T09:00:20Z</time>
      </trkpt>
      <trkpt lat="47.94811" lon="-3.87912">
        <ele>136.6</ele>
        <time>2021-08-12T09:00:21Z</time>
      </trkpt>
      <trkpt lat="47.94811" lon="-3.87918">
        <ele>136.6</ele>
        <time>2021-08-12T09:00:22Z</time>
      </trkpt>
      <trkpt lat="47.9481" lon="-3.87924">
        <ele>136.6</ele>
        <time>2021-08-12T09:00:23Z</time>
      </trkpt>
      <trkpt lat="47.9481" lon="-3.8793">
        <ele>136.6</ele>
        <time>2021-08-12T09:00:24Z</time>
      </trkpt>
      <trkpt lat="47.94809" lon="-3.87936">
        <ele>136.6</ele>
        <time>2021-08-12T09:00:25Z</time>
      </trkpt>
      <trkpt lat="47.94809" lon="-3.87942">
        <ele>136.8</ele>
        <time>2021-08-12T09:00:26Z</time>
      </trkpt>
      <trkpt lat="47.94808" lon="-3.87948">
        <ele>137</ele>
        <time>2021-08-12T09:00:27Z</time>
      </trkpt>
      <trkpt lat="47.94807" lon="-3.87962">
        <ele>137.2</ele>
        <time>2021-08-12T09:00:29Z</time>
      </trkpt>
      <trkpt lat="47.94805" lon="-3.87971">
        <ele>137.4</ele>
        <time>2021-08-12T09:00:30Z</time>
      </trkpt>
      <trkpt lat="47.94803" lon="-3.87978">
        <ele>137.4</ele>
        <time>2021-08-12T09:00:31Z</time>
      </trkpt>
      <trkpt lat="47.94801" lon="-3.87986">
        <ele>137.4</ele>
        <time>2021-08-12T09:00:32Z</time>
      </trkpt>
      <trkpt lat="47.94799" lon="-3.87993">
        <ele>137.6</ele>
        <time>2021-08-12T09:00:33Z</time>
      </trkpt>
      <trkpt lat="47.94797" lon="-3.88">
        <ele>137.6</ele>
        <time>2021-08-12T09:00:34Z</time>
      </trkpt>
      <trkpt lat="47.94795" lon="-3.88007">
        <ele>137.6</ele>
        <time>2021-08-12T09:00:35Z</time>
      </trkpt>
      <trkpt lat="47.94792" lon="-3.88014">
        <ele>137.8</ele>
        <time>2021-08-12T09:00:36Z</time>
      </trkpt>
      <trkpt lat="47.9479" lon="-3.8802">
        <ele>137.6</ele>
        <time>2021-08-12T09:00:37Z</time>
      </trkpt>
      <trkpt lat="47.94788" lon="-3.88026">
        <ele>137.6</ele>
        <time>2021-08-12T09:00:38Z</time>
      </trkpt>
      <trkpt lat="47.94783" lon="-3.88039">
        <ele>137.6</ele>
        <time>2021-08-12T09:00:40Z</time>
      </trkpt>
      <trkpt lat="47.94781" lon="-3.88046">
        <ele>137.6</ele>
        <time>2021-08-12T09:00:41Z</time>
      </trkpt>
      <trkpt lat="47.9478" lon="-3.88052">
        <ele>137.6</ele>
        <time>2021-08-12T09:00:42Z</time>
      </trkpt>
      <trkpt lat="47.94779" lon="-3.88059">
        <ele>137.6</ele>
        <time>2021-08-12T09:00:43Z</time>
      </trkpt>
      <trkpt lat="47.94777" lon="-3.88066">
        <ele>137.6</ele>
        <time>2021-08-12T09:00:44Z</time>
      </trkpt>
      <trkpt lat="47.94777" lon="-3.88073">
        <ele>137.6</ele>
        <time>2021-08-12T09:00:45Z</time>
      </trkpt>
      <trkpt lat="47.94776" lon="-3.8808">
        <ele>137.6</ele>
        <time>2021-08-12T09:00:46Z</time>
      </trkpt>
      <trkpt lat="47.94775" lon="-3.88086">
        <ele>137.6</ele>
        <time>2021-08-12T09:00:47Z</time>
      </trkpt>
      <trkpt lat="47.94773" lon="-3.88094">
        <ele>137.4</ele>
        <time>2021-08-12T09:00:48Z</time>
      </trkpt>
      <trkpt lat="47.94772" lon="-3.88101">
        <ele>137.4</ele>
        <time>2021-08-12T09:00:49Z</time>
      </trkpt>
      <trkpt lat="47.94771" lon="-3.88115">
        <ele>137</ele>
        <time>2021-08-12T09:00:51Z</time>
      </trkpt>
      <trkpt lat="47.9477" lon="-3.88121">
        <ele>136.8</ele>
        <time>2021-08-12T09:00:52Z</time>
      </trkpt>
      <trkpt lat="47.94769" lon="-3.88128">
        <ele>136.8</ele>
        <time>2021-08-12T09:00:53Z</time>
      </trkpt>
      <trkpt lat="47.94769" lon="-3.88135">
        <ele>136.6</ele>
        <time>2021-08-12T09:00:54Z</time>
      </trkpt>
      <trkpt lat="47.94768" lon="-3.88143">
        <ele>136.6</ele>
        <time>2021-08-12T09:00:55Z</time>
      </trkpt>
      <trkpt lat="47.94767" lon="-3.88151">
        <ele>136.6</ele>
        <time>2021-08-12T09:00:56Z</time>
      </trkpt>
      <trkpt lat="47.94766" lon="-3.88158">
        <ele>136.6</ele>
        <time>2021-08-12T09:00:57Z</time>
      </trkpt>
      <trkpt lat="47.94766" lon="-3.88165">
        <ele>136.4</ele>
        <time>2021-08-12T09:00:58Z</time>
      </trkpt>
      <trkpt lat="47.94765" lon="-3.88172">
        <ele>136.4</ele>
        <time>2021-08-12T09:00:59Z</time>
      </trkpt>
      <trkpt lat="47.94765" lon="-3.88178">
        <ele>136.4</ele>
        <time>2021-08-12T09:01:00Z</time>
      </trkpt>
      <trkpt lat="47.94762" lon="-3.88193">
        <ele>136.4</ele>
        <time>2021-08-12T09:01:02Z</time>
      </trkpt>
      <trkpt lat="47.9476" lon="-3.882">
        <ele>136.4</ele>
        <time>2021-08-12T09:01:03Z</time>
      </trkpt>
      <trkpt lat="47.94759" lon="-3.88207">
        <ele>136.4</ele>
        <time>2021-08-12T09:01:04Z</time>
      </trkpt>
      <trkpt lat="47.94758" lon="-3.88214">
        <ele>136.4</ele>
        <time>2021-08-12T09:01:05Z</time>
      </trkpt>
      <trkpt lat="47.94756" lon="-3.88221">
        <ele>136.4</ele>
        <time>2021-08-12T09:01:06Z</time>
      </trkpt>
      <trkpt lat="47.94755" lon="-3.88227">
        <ele>136.2</ele>
        <time>2021-08-12T09:01:07Z</time>
      </trkpt>
      <trkpt lat="47.94754" lon="-3.88233">
        <ele>136.2</ele>
        <time>2021-08-12T09:01:08Z</time>
      </trkpt>
      <trkpt lat="47.94753" lon="-3.88239">
        <ele>136.2</ele>
        <time>2021-08-12T09:01:09Z</time>
      </trkpt>
      <trkpt lat="47.94752" lon="-3.88244">
        <ele>136.2</ele>
        <time>2021-08-12T09:01:10Z</time>
      </trkpt>
      <trkpt lat="47.94752" lon="-3.8825">
        <ele>136.2</ele>
        <time>2021-08-12T09:01:11Z</time>
      </trkpt>
      <trkpt lat="47.94751" lon="-3.88262">
        <ele>136</ele>
        <time>2021-08-12T09:01:13Z</time>
      </trkpt>
      <trkpt lat="47.9475" lon="-3.88269">
        <ele>136</ele>
        <time>2021-08-12T09:01:14Z</time>
      </trkpt>
      <trkpt lat="47.94748" lon="-3.88276">
        <ele>136</ele>
        <time>2021-08-12T09:01:15Z</time>
      </trkpt>
      <trkpt lat="47.94746" lon="-3.88284">
        <ele>135.8</ele>
        <time>2021-08-12T09:01:16Z</time>
      </trkpt>
      <trkpt lat="47.94745" lon="-3.88292">
        <ele>135.8</ele>
        <time>2021-08-12T09:01:17Z</time>
      </trkpt>
      <trkpt lat="47.94743" lon="-3.88299">
        <ele>135.8</ele>
        <time>2021-08-12T09:01:18Z</time>
      </trkpt>
      <trkpt lat="47.9474" lon="-3.88307">
        <ele>135.8</ele>
        <time>2021-08-12T09:01:19Z</time>
      </trkpt>
      <trkpt lat="47.94737" lon="-3.88313">
        <ele>135.6</ele>
        <time>2021-08-12T09:01:20Z</time>
      </trkpt>
      <trkpt lat="47.94735" lon="-3.88319">
        <ele>135.6</ele>
        <time>2021-08-12T09:01:21Z</time>
      </trkpt>
      <trkpt lat="47.94731" lon="-3.88326">
        <ele>135.4</ele>
        <time>2021-08-12T09:01:22Z</time>
      </trkpt>
      <trkpt lat="47.94725" lon="-3.88341">
        <ele>135.2</ele>
        <time>2021-08-12T09:01:24Z</time>
      </trkpt>
      <trkpt lat="47.94722" lon="-3.88349">
        <ele>135.2</ele>
        <time>2021-08-12T09:01:25Z</time>
      </trkpt>
      <trkpt lat="47.9472" lon="-3.88356">
        <ele>135</ele>
        <time>2021-08-12T09:01:26Z</time>
      </trkpt>
      <trkpt lat="47.94717" lon="-3.88363">
        <ele>134.8</ele>
        <time>2021-08-12T09:01:27Z</time>
      </trkpt>
      <trkpt lat="47.94714" lon="-3.8837">
        <ele>134.8</ele>
        <time>2021-08-12T09:01:28Z</time>
      </trkpt>
      <trkpt lat="47.94711" lon="-3.88377">
        <ele>134.8</ele>
        <time>2021-08-12T09:01:29Z</time>
      </trkpt>
      <trkpt lat="47.94708" lon="-3.88385">
        <ele>134.8</ele>
        <time>2021-08-12T09:01:30Z</time>
      </trkpt>
      <trkpt lat="47.94704" lon="-3.88393">
        <ele>134.6</ele>
        <time>2021-08-12T09:01:31Z</time>
      </trkpt>
      <trkpt lat="47.94701" lon="-3.88401">
        <ele>134.6</ele>
        <time>2021-08-12T09:01:32Z</time>
      </trkpt>
      <trkpt lat="47.94698" lon="-3.8841">
        <ele>134.4</ele>
        <time>2021-08-12T09:01:33Z</time>
      </trkpt>
      <trkpt lat="47.9469" lon="-3.88429">
        <ele>134.2</ele>
        <time>2021-08-12T09:01:35Z</time>
      </trkpt>
      <trkpt lat="47.94687" lon="-3.88439">
        <ele>134</ele>
        <time>2021-08-12T09:01:36Z</time>
      </trkpt>
      <trkpt lat="47.94682" lon="-3.88449">
        <ele>133.8</ele>
        <time>2021-08-12T09:01:37Z</time>
      </trkpt>
      <trkpt lat="47.94678" lon="-3.88459">
        <ele>133.6</ele>
        <time>2021-08-12T09:01:38Z</time>
      </trkpt>
      <trkpt lat="47.94673" lon="-3.88468">
        <ele>133.4</ele>
        <time>2021-08-12T09:01:39Z</time>
      </trkpt>
      <trkpt lat="47.94668" lon="-3.88478">
        <ele>132.6</ele>
        <time>2021-08-12T09:01:40Z</time>
      </trkpt>
      <trkpt lat="47.94663" lon="-3.88488">
        <ele>132</ele>
        <time>2021-08-12T09:01:41Z</time>
      </trkpt>
      <trkpt lat="47.94657" lon="-3.88497">
        <ele>131.6</ele>
        <time>2021-08-12T09:01:42Z</time>
      </trkpt>
      <trkpt lat="47.94651" lon="-3.88506">
        <ele>131.2</ele>
        <time>2021-08-12T09:01:43Z</time>
      </trkpt>
      <trkpt lat="47.94645" lon="-3.88515">
        <ele>130.8</ele>
        <time>2021-08-12T09:01:44Z</time>
      </trkpt>
      <trkpt lat="47.94634" lon="-3.88534">
        <ele>130</ele>
        <time>2021-08-12T09:01:46Z</time>
      </trkpt>
      <trkpt lat="47.94628" lon="-3.88543">
        <ele>129.4</ele>
        <time>2021-08-12T09:01:47Z</time>
      </trkpt>
      <trkpt lat="47.94622" lon="-3.88552">
        <ele>128.8</ele>
        <time>2021-08-12T09:01:48Z</time>
      </trkpt>
      <trkpt lat="47.94616" lon="-3.88561">
        <ele>128.4</ele>
        <time>2021-08-12T09:01:49Z</time>
      </trkpt>
      <trkpt lat="47.9461" lon="-3.88569">
        <ele>128</ele>
        <time>2021-08-12T09:01:50Z</time>
      </trkpt>
      <trkpt lat="47.94604" lon="-3.88576">
        <ele>127.8</ele>
        <time>2021-08-12T09:01:51Z</time>
      </trkpt>
      <trkpt lat="47.94597" lon="-3.88583">
        <ele>127.4</ele>
        <time>2021-08-12T09:01:52Z</time>
      </trkpt>
      <trkpt lat="47.94591" lon="-3.8859">
        <ele>127.2</ele>
        <time>2021-08-12T09:01:53Z</time>
      </trkpt>
      <trkpt lat="47.94585" lon="-3.88598">
        <ele>126.8</ele>
        <time>2021-08-12T09:01:54Z</time>
      </trkpt>
      <trkpt lat="47.94578" lon="-3.88604">
        <ele>126.2</ele>
        <time>2021-08-12T09:01:55Z</time>
      </trkpt>
      <trkpt lat="47.94565" lon="-3.88617">
        <ele>125.8</ele>
        <time>2021-08-12T09:01:57Z</time>
      </trkpt>
      <trkpt lat="47.94558" lon="-3.88623">
        <ele>125.6</ele>
        <time>2021-08-12T09:01:58Z</time>
      </trkpt>
      <trkpt lat="47.94552" lon="-3.88629">
        <ele>125.4</ele>
        <time>2021-08-12T09:01:59Z</time>
      </trkpt>
      <trkpt lat="47.94546" lon="-3.88635">
        <ele>125.2</ele>
        <time>2021-08-12T09:02:00Z</time>
      </trkpt>
      <trkpt lat="47.9454" lon="-3.88641">
        <ele>125.4</ele>
        <time>2021-08-12T09:02:01Z</time>
      </trkpt>
      <trkpt lat="47.94535" lon="-3.88647">
        <ele>125</ele>
        <time>2021-08-12T09:02:02Z</time>
      </trkpt>
      <trkpt lat="47.94529" lon="-3.88654">
        <ele>125</ele>
        <time>2021-08-12T09:02:03Z</time>
      </trkpt>
      <trkpt lat="47.94523" lon="-3.88661">
        <ele>125</ele>
        <time>2021-08-12T09:02:04Z</time>
      </trkpt>
      <trkpt lat="47.94517" lon="-3.88668">
        <ele>124.8</ele>
        <time>2021-08-12T09:02:05Z</time>
      </trkpt>
      <trkpt lat="47.9451" lon="-3.88675">
        <ele>124.6</ele>
        <time>2021-08-12T09:02:06Z</time>
      </trkpt>
      <trkpt lat="47.94497" lon="-3.88691">
        <ele>124.4</ele>
        <time>2021-08-12T09:02:08Z</time>
      </trkpt>
      <trkpt lat="47.94491" lon="-3.88701">
        <ele>124.2</ele>
        <time>2021-08-12T09:02:09Z</time>
      </trkpt>
      <trkpt lat="47.94486" lon="-3.88711">
        <ele>124</ele>
        <time>2021-08-12T09:02:10Z</time>
      </trkpt>
      <trkpt lat="47.94481" lon="-3.88721">
        <ele>123.6</ele>
        <time>2021-08-12T09:02:11Z</time>
      </trkpt>
      <trkpt lat="47.94476" lon="-3.88731">
        <ele>123.4</ele>
        <time>2021-08-12T09:02:12Z</time>
      </trkpt>
      <trkpt lat="47.94471" lon="-3.88742">
        <ele>123</ele>
        <time>2021-08-12T09:02:13Z</time>
      </trkpt>
      <trkpt lat="47.94466" lon="-3.88752">
        <ele>122.6</ele>
        <time>2021-08-12T09:02:14Z</time>
      </trkpt>
      <trkpt lat="47.94462" lon="-3.88762">
        <ele>122</ele>
        <time>2021-08-12T09:02:15Z</time>
      </trkpt>
      <trkpt lat="47.94457" lon="-3.88772">
        <ele>121.6</ele>
        <time>2021-08-12T09:02:16Z</time>
      </trkpt>
      <trkpt lat="47.94452" lon="-3.88782">
        <ele>121.4</ele>
        <time>2021-08-12T09:02:17Z</time>
      </trkpt>
      <trkpt lat="47.94441" lon="-3.88803">
        <ele>120.8</ele>
        <time>2021-08-12T09:02:19Z</time>
      </trkpt>
      <trkpt lat="47.94435" lon="-3.88814">
        <ele>120.4</ele>
        <time>2021-08-12T09:02:20Z</time>
      </trkpt>
      <trkpt lat="47.94429" lon="-3.88826">
        <ele>119.8</ele>
        <time>2021-08-12T09:02:21Z</time>
      </trkpt>
      <trkpt lat="47.94423" lon="-3.88838">
        <ele>119.6</ele>
        <time>2021-08-12T09:02:22Z</time>
      </trkpt>
      <trkpt lat="47.94417" lon="-3.88851">
        <ele>119</ele>
        <time>2021-08-12T09:02:23Z</time>
      </trkpt>
      <trkpt lat="47.9441" lon="-3.88864">
        <ele>118.4</ele>
        <time>2021-08-12T09:02:24Z</time>
      </trkpt>
      <trkpt lat="47.94405" lon="-3.88877">
        <ele>117.4</ele>
        <time>2021-08-12T09:02:25Z</time>
      </trkpt>
      <trkpt lat="47.94399" lon="-3.8889">
        <ele>116.8</ele>
        <time>2021-08-12T09:02:26Z</time>
      </trkpt>
      <trkpt lat="47.94394" lon="-3.88904">
        <ele>116.2</ele>
        <time>2021-08-12T09:02:27Z</time>
      </trkpt>
      <trkpt lat="47.94385" lon="-3.88931">
        <ele>114.8</ele>
        <time>2021-08-12T09:02:29Z</time>
      </trkpt>
      <trkpt lat="47.9438" lon="-3.88945">
        <ele>114</ele>
        <time>2021-08-12T09:02:30Z</time>
      </trkpt>
      <trkpt lat="47.94374" lon="-3.88959">
        <ele>112.8</ele>
        <time>2021-08-12T09:02:31Z</time>
      </trkpt>
      <trkpt lat="47.94367" lon="-3.88973">
        <ele>112.4</ele>
        <time>2021-08-12T09:02:32Z</time>
      </trkpt>
      <trkpt lat="47.94361" lon="-3.88986">
        <ele>111.6</ele>
        <time>2021-08-12T09:02:33Z</time>
      </trkpt>
      <trkpt lat="47.94354" lon="-3.89">
        <ele>110.8</ele>
        <time>2021-08-12T09:02:34Z</time>
      </trkpt>
      <trkpt lat="47.94346" lon="-3.89013">
        <ele>110.2</ele>
        <time>2021-08-12T09:02:35Z</time>
      </trkpt>
      <trkpt lat="47.94339" lon="-3.89027">
        <ele>109</ele>
        <time>2021-08-12T09:02:36Z</time>
      </trkpt>
      <trkpt lat="47.94332" lon="-3.8904">
        <ele>108</ele>
        <time>2021-08-12T09:02:37Z</time>
      </trkpt>
      <trkpt lat="47.94324" lon="-3.89054">
        <ele>106.6</ele>
        <time>2021-08-12T09:02:38Z</time>
      </trkpt>
      <trkpt lat="47.94316" lon="-3.89067">
        <ele>105.4</ele>
        <time>2021-08-12T09:02:39Z</time>
      </trkpt>
      <trkpt lat="47.94308" lon="-3.8908">
        <ele>104.6</ele>
        <time>2021-08-12T09:02:40Z</time>
      </trkpt>
      <trkpt lat="47.943" lon="-3.89095">
        <ele>104</ele>
        <time>2021-08-12T09:02:41Z</time>
      </trkpt>
      <trkpt lat="47.94293" lon="-3.89111">
        <ele>103.6</ele>
        <time>2021-08-12T09:02:42Z</time>
      </trkpt>
      <trkpt lat="47.94289" lon="-3.89126">
        <ele>103.4</ele>
        <time>2021-08-12T09:02:43Z</time>
      </trkpt>
      <trkpt lat="47.94287" lon="-3.89141">
        <ele>103</ele>
        <time>2021-08-12T09:02:44Z</time>
      </trkpt>
      <trkpt lat="47.94286" lon="-3.89156">
        <ele>102.2</ele>
        <time>2021-08-12T09:02:45Z</time>
      </trkpt>
      <trkpt lat="47.94286" lon="-3.89171">
        <ele>101.4</ele>
        <time>2021-08-12T09:02:46Z</time>
      </trkpt>
      <trkpt lat="47.94286" lon="-3.89186">
        <ele>100.8</ele>
        <time>2021-08-12T09:02:47Z</time>
      </trkpt>
      <trkpt lat="47.94286" lon="-3.89201">
        <ele>100</ele>
        <time>2021-08-12T09:02:48Z</time>
      </trkpt>
      <trkpt lat="47.94286" lon="-3.89216">
        <ele>99.4</ele>
        <time>2021-08-12T09:02:49Z</time>
      </trkpt>
      <trkpt lat="47.94283" lon="-3.89245">
        <ele>98.8</ele>
        <time>2021-08-12T09:02:51Z</time>
      </trkpt>
      <trkpt lat="47.9428" lon="-3.89259">
        <ele>98.4</ele>
        <time>2021-08-12T09:02:52Z</time>
      </trkpt>
      <trkpt lat="47.94277" lon="-3.89271">
        <ele>98.2</ele>
        <time>2021-08-12T09:02:53Z</time>
      </trkpt>
      <trkpt lat="47.94273" lon="-3.89282">
        <ele>98</ele>
        <time>2021-08-12T09:02:54Z</time>
      </trkpt>
      <trkpt lat="47.9427" lon="-3.89289">
        <ele>96.8</ele>
        <time>2021-08-12T09:02:55Z</time>
      </trkpt>
      <trkpt lat="47.94267" lon="-3.89293">
        <ele>96.4</ele>
        <time>2021-08-12T09:02:56Z</time>
      </trkpt>
      <trkpt lat="47.94264" lon="-3.89295">
        <ele>96.2</ele>
        <time>2021-08-12T09:02:57Z</time>
      </trkpt>
      <trkpt lat="47.9426" lon="-3.89295">
        <ele>96.2</ele>
        <time>2021-08-12T09:02:58Z</time>
      </trkpt>
      <trkpt lat="47.94257" lon="-3.89295">
        <ele>96</ele>
        <time>2021-08-12T09:02:59Z</time>
      </trkpt>
      <trkpt lat="47.94254" lon="-3.89295">
        <ele>96</ele>
        <time>2021-08-12T09:03:00Z</time>
      </trkpt>
      <trkpt lat="47.94251" lon="-3.89295">
        <ele>96</ele>
        <time>2021-08-12T09:03:01Z</time>
      </trkpt>
      <trkpt lat="47.94247" lon="-3.89296">
        <ele>96</ele>
        <time>2021-08-12T09:03:02Z</time>
      </trkpt>
      <trkpt lat="47.94244" lon="-3.89297">
        <ele>96</ele>
        <time>2021-08-12T09:03:03Z</time>
      </trkpt>
      <trkpt lat="47.94241" lon="-3.89297">
        <ele>96.2</ele>
        <time>2021-08-12T09:03:04Z</time>
      </trkpt>
      <trkpt lat="47.94238" lon="-3.89298">
        <ele>96.6</ele>
        <time>2021-08-12T09:03:05Z</time>
      </trkpt>
      <trkpt lat="47.94235" lon="-3.89298">
        <ele>96.8</ele>
        <time>2021-08-12T09:03:06Z</time>
      </trkpt>
      <trkpt lat="47.94232" lon="-3.89299">
        <ele>96.8</ele>
        <time>2021-08-12T09:03:07Z</time>
      </trkpt>
      <trkpt lat="47.94228" lon="-3.893">
        <ele>97</ele>
        <time>2021-08-12T09:03:08Z</time>
      </trkpt>
      <trkpt lat="47.94225" lon="-3.893">
        <ele>97</ele>
        <time>2021-08-12T09:03:09Z</time>
      </trkpt>
      <trkpt lat="47.94222" lon="-3.89301">
        <ele>97</ele>
        <time>2021-08-12T09:03:10Z</time>
      </trkpt>
      <trkpt lat="47.94219" lon="-3.89301">
        <ele>97.2</ele>
        <time>2021-08-12T09:03:11Z</time>
      </trkpt>
      <trkpt lat="47.94213" lon="-3.89302">
        <ele>97.2</ele>
        <time>2021-08-12T09:03:13Z</time>
      </trkpt>
      <trkpt lat="47.94209" lon="-3.89302">
        <ele>97.2</ele>
        <time>2021-08-12T09:03:14Z</time>
      </trkpt>
      <trkpt lat="47.94206" lon="-3.89303">
        <ele>97.2</ele>
        <time>2021-08-12T09:03:15Z</time>
      </trkpt>
      <trkpt lat="47.94203" lon="-3.89303">
        <ele>97.4</ele>
        <time>2021-08-12T09:03:16Z</time>
      </trkpt>
      <trkpt lat="47.94201" lon="-3.89303">
        <ele>97.4</ele>
        <time>2021-08-12T09:03:17Z</time>
      </trkpt>
      <trkpt lat="47.94198" lon="-3.89304">
        <ele>97.4</ele>
        <time>2021-08-12T09:03:18Z</time>
      </trkpt>
      <trkpt lat="47.94195" lon="-3.89304">
        <ele>97.6</ele>
        <time>2021-08-12T09:03:19Z</time>
      </trkpt>
      <trkpt lat="47.94192" lon="-3.89305">
        <ele>97.6</ele>
        <time>2021-08-12T09:03:20Z</time>
      </trkpt>
      <trkpt lat="47.9419" lon="-3.89305">
        <ele>97.6</ele>
        <time>2021-08-12T09:03:21Z</time>
      </trkpt>
      <trkpt lat="47.94188" lon="-3.89306">
        <ele>97.8</ele>
        <time>2021-08-12T09:03:22Z</time>
      </trkpt>
      <trkpt lat="47.94183" lon="-3.89306">
        <ele>98.2</ele>
        <time>2021-08-12T09:03:24Z</time>
      </trkpt>
      <trkpt lat="47.94181" lon="-3.89306">
        <ele>98.4</ele>
        <time>2021-08-12T09:03:25Z</time>
      </trkpt>
      <trkpt lat="47.94179" lon="-3.89306">
        <ele>98.6</ele>
        <time>2021-08-12T09:03:26Z</time>
      </trkpt>
      <trkpt lat="47.94176" lon="-3.89306">
        <ele>98.6</ele>
        <time>2021-08-12T09:03:27Z</time>
      </trkpt>
      <trkpt lat="47.94174" lon="-3.89306">
        <ele>98.8</ele>
        <time>2021-08-12T09:03:28Z</time>
      </trkpt>
      <trkpt lat="47.9417" lon="-3.89306">
        <ele>99</ele>
        <time>2021-08-12T09:03:29Z</time>
      </trkpt>
      <trkpt lat="47.94167" lon="-3.89305">
        <ele>99</ele>
        <time>2021-08-12T09:03:30Z</time>
      </trkpt>
      <trkpt lat="47.94163" lon="-3.89305">
        <ele>99</ele>
        <time>2021-08-12T09:03:31Z</time>
      </trkpt>
      <trkpt lat="47.94159" lon="-3.89306">
        <ele>99.2</ele>
        <time>2021-08-12T09:03:32Z</time>
      </trkpt>
      <trkpt lat="47.94155" lon="-3.89306">
        <ele>99.2</ele>
        <time>2021-08-12T09:03:33Z</time>
      </trkpt>
      <trkpt lat="47.94147" lon="-3.89307">
        <ele>99.4</ele>
        <time>2021-08-12T09:03:35Z</time>
      </trkpt>
      <trkpt lat="47.94143" lon="-3.89307">
        <ele>99.4</ele>
        <time>2021-08-12T09:03:36Z</time>
      </trkpt>
      <trkpt lat="47.9414" lon="-3.89307">
        <ele>99.6</ele>
        <time>2021-08-12T09:03:37Z</time>
      </trkpt>
      <trkpt lat="47.94137" lon="-3.89308">
        <ele>99.6</ele>
        <time>2021-08-12T09:03:38Z</time>
      </trkpt>
      <trkpt lat="47.94133" lon="-3.89309">
        <ele>99.8</ele>
        <time>2021-08-12T09:03:39Z</time>
      </trkpt>
      <trkpt lat="47.9413" lon="-3.8931">
        <ele>100</ele>
        <time>2021-08-12T09:03:40Z</time>
      </trkpt>
      <trkpt lat="47.94127" lon="-3.89311">
        <ele>100</ele>
        <time>2021-08-12T09:03:41Z</time>
      </trkpt>
      <trkpt lat="47.94125" lon="-3.89311">
        <ele>100</ele>
        <time>2021-08-12T09:03:42Z</time>
      </trkpt>
      <trkpt lat="47.94122" lon="-3.89312">
        <ele>100</ele>
        <time>2021-08-12T09:03:43Z</time>
      </trkpt>
      <trkpt lat="47.9412" lon="-3.89313">
        <ele>100.2</ele>
        <time>2021-08-12T09:03:44Z</time>
      </trkpt>
      <trkpt lat="47.94117" lon="-3.89314">
        <ele>100.2</ele>
        <time>2021-08-12T09:03:45Z</time>
      </trkpt>
      <trkpt lat="47.94113" lon="-3.89315">
        <ele>100.2</ele>
        <time>2021-08-12T09:03:46Z</time>
      </trkpt>
      <trkpt lat="47.9411" lon="-3.89317">
        <ele>100.2</ele>
        <time>2021-08-12T09:03:47Z</time>
      </trkpt>
      <trkpt lat="47.94107" lon="-3.89319">
        <ele>100.4</ele>
        <time>2021-08-12T09:03:48Z</time>
      </trkpt>
      <trkpt lat="47.94104" lon="-3.89322">
        <ele>100.4</ele>
        <time>2021-08-12T09:03:49Z</time>
      </trkpt>
      <trkpt lat="47.94101" lon="-3.89325">
        <ele>100.4</ele>
        <time>2021-08-12T09:03:50Z</time>
      </trkpt>
      <trkpt lat="47.94099" lon="-3.89327">
        <ele>100.4</ele>
        <time>2021-08-12T09:03:51Z</time>
      </trkpt>
      <trkpt lat="47.94097" lon="-3.89329">
        <ele>100.4</ele>
        <time>2021-08-12T09:03:52Z</time>
      </trkpt>
      <trkpt lat="47.94095" lon="-3.89332">
        <ele>100.4</ele>
        <time>2021-08-12T09:03:53Z</time>
      </trkpt>
      <trkpt lat="47.94092" lon="-3.89335">
        <ele>100.4</ele>
        <time>2021-08-12T09:03:54Z</time>
      </trkpt>
      <trkpt lat="47.9409" lon="-3.89338">
        <ele>100.4</ele>
        <time>2021-08-12T09:03:55Z</time>
      </trkpt>
      <trkpt lat="47.94086" lon="-3.89344">
        <ele>100.4</ele>
        <time>2021-08-12T09:03:57Z</time>
      </trkpt>
      <trkpt lat="47.94084" lon="-3.89347">
        <ele>100.2</ele>
        <time>2021-08-12T09:03:58Z</time>
      </trkpt>
      <trkpt lat="47.94082" lon="-3.8935">
        <ele>100.2</ele>
        <time>2021-08-12T09:03:59Z</time>
      </trkpt>
      <trkpt lat="47.9408" lon="-3.89355">
        <ele>100</ele>
        <time>2021-08-12T09:04:00Z</time>
      </trkpt>
      <trkpt lat="47.94079" lon="-3.89359">
        <ele>99.8</ele>
        <time>2021-08-12T09:04:01Z</time>
      </trkpt>
      <trkpt lat="47.94078" lon="-3.89365">
        <ele>99.6</ele>
        <time>2021-08-12T09:04:02Z</time>
      </trkpt>
      <trkpt lat="47.94078" lon="-3.89371">
        <ele>99.2</ele>
        <time>2021-08-12T09:04:03Z</time>
      </trkpt>
      <trkpt lat="47.94078" lon="-3.89378">
        <ele>98.8</ele>
        <time>2021-08-12T09:04:04Z</time>
      </trkpt>
      <trkpt lat="47.94079" lon="-3.89385">
        <ele>98.6</ele>
        <time>2021-08-12T09:04:05Z</time>
      </trkpt>
      <trkpt lat="47.94081" lon="-3.89392">
        <ele>98.4</ele>
        <time>2021-08-12T09:04:06Z</time>
      </trkpt>
      <trkpt lat="47.94083" lon="-3.89408">
        <ele>98</ele>
        <time>2021-08-12T09:04:08Z</time>
      </trkpt>
      <trkpt lat="47.94084" lon="-3.89416">
        <ele>98</ele>
        <time>2021-08-12T09:04:09Z</time>
      </trkpt>
      <trkpt lat="47.94086" lon="-3.89423">
        <ele>97.8</ele>
        <time>2021-08-12T09:04:10Z</time>
      </trkpt>
      <trkpt lat="47.94087" lon="-3.8943">
        <ele>97.2</ele>
        <time>2021-08-12T09:04:11Z</time>
      </trkpt>
      <trkpt lat="47.94087" lon="-3.89437">
        <ele>97</ele>
        <time>2021-08-12T09:04:12Z</time>
      </trkpt>
      <trkpt lat="47.94087" lon="-3.89443">
        <ele>96.6</ele>
        <time>2021-08-12T09:04:13Z</time>
      </trkpt>
      <trkpt lat="47.94086" lon="-3.89449">
        <ele>96</ele>
        <time>2021-08-12T09:04:14Z</time>
      </trkpt>
      <trkpt lat="47.94084" lon="-3.89454">
        <ele>96</ele>
        <time>2021-08-12T09:04:15Z</time>
      </trkpt>
      <trkpt lat="47.94081" lon="-3.89458">
        <ele>95.4</ele>
        <time>2021-08-12T09:04:16Z</time>
      </trkpt>
      <trkpt lat="47.94079" lon="-3.89461">
        <ele>95.2</ele>
        <time>2021-08-12T09:04:17Z</time>
      </trkpt>
      <trkpt lat="47.94075" lon="-3.89467">
        <ele>95</ele>
        <time>2021-08-12T09:04:19Z</time>
      </trkpt>
      <trkpt lat="47.94073" lon="-3.8947">
        <ele>95</ele>
        <time>2021-08-12T09:04:20Z</time>
      </trkpt>
      <trkpt lat="47.94071" lon="-3.89473">
        <ele>95</ele>
        <time>2021-08-12T09:04:21Z</time>
      </trkpt>
      <trkpt lat="47.9407" lon="-3.89477">
        <ele>94.6</ele>
        <time>2021-08-12T09:04:22Z</time>
      </trkpt>
      <trkpt lat="47.94068" lon="-3.89482">
        <ele>94.6</ele>
        <time>2021-08-12T09:04:23Z</time>
      </trkpt>
      <trkpt lat="47.94066" lon="-3.89486">
        <ele>94.6</ele>
        <time>2021-08-12T09:04:24Z</time>
      </trkpt>
      <trkpt lat="47.94064" lon="-3.89491">
        <ele>94.6</ele>
        <time>2021-08-12T09:04:25Z</time>
      </trkpt>
      <trkpt lat="47.94063" lon="-3.89495">
        <ele>94.8</ele>
        <time>2021-08-12T09:04:26Z</time>
      </trkpt>
      <trkpt lat="47.94062" lon="-3.89499">
        <ele>95.2</ele>
        <time>2021-08-12T09:04:27Z</time>
      </trkpt>
      <trkpt lat="47.9406" lon="-3.89503">
        <ele>95.4</ele>
        <time>2021-08-12T09:04:28Z</time>
      </trkpt>
      <trkpt lat="47.94057" lon="-3.89511">
        <ele>95.4</ele>
        <time>2021-08-12T09:04:30Z</time>
      </trkpt>
      <trkpt lat="47.94055" lon="-3.89516">
        <ele>95.4</ele>
        <time>2021-08-12T09:04:31Z</time>
      </trkpt>
      <trkpt lat="47.94053" lon="-3.8952">
        <ele>95.4</ele>
        <time>2021-08-12T09:04:32Z</time>
      </trkpt>
      <trkpt lat="47.94052" lon="-3.89525">
        <ele>95.4</ele>
        <time>2021-08-12T09:04:33Z</time>
      </trkpt>
      <trkpt lat="47.94051" lon="-3.89529">
        <ele>95.4</ele>
        <time>2021-08-12T09:04:34Z</time>
      </trkpt>
      <trkpt lat="47.9405" lon="-3.89534">
        <ele>95.4</ele>
        <time>2021-08-12T09:04:35Z</time>
      </trkpt>
      <trkpt lat="47.94048" lon="-3.89539">
        <ele>95.4</ele>
        <time>2021-08-12T09:04:36Z</time>
      </trkpt>
      <trkpt lat="47.94047" lon="-3.89545">
        <ele>95.4</ele>
        <time>2021-08-12T09:04:37Z</time>
      </trkpt>
      <trkpt lat="47.94045" lon="-3.8955">
        <ele>95.4</ele>
        <time>2021-08-12T09:04:38Z</time>
      </trkpt>
      <trkpt lat="47.94043" lon="-3.89556">
        <ele>95.4</ele>
        <time>2021-08-12T09:04:39Z</time>
      </trkpt>
      <trkpt lat="47.94038" lon="-3.89565">
        <ele>95.4</ele>
        <time>2021-08-12T09:04:41Z</time>
      </trkpt>
      <trkpt lat="47.94035" lon="-3.89569">
        <ele>95.2</ele>
        <time>2021-08-12T09:04:42Z</time>
      </trkpt>
      <trkpt lat="47.94032" lon="-3.89571">
        <ele>95.2</ele>
        <time>2021-08-12T09:04:43Z</time>
      </trkpt>
      <trkpt lat="47.94028" lon="-3.89575">
        <ele>95</ele>
        <time>2021-08-12T09:04:44Z</time>
      </trkpt>
      <trkpt lat="47.94025" lon="-3.89577">
        <ele>95</ele>
        <time>2021-08-12T09:04:45Z</time>
      </trkpt>
      <trkpt lat="47.94021" lon="-3.89578">
        <ele>95</ele>
        <time>2021-08-12T09:04:46Z</time>
      </trkpt>
      <trkpt lat="47.94016" lon="-3.89578">
        <ele>94.8</ele>
        <time>2021-08-12T09:04:47Z</time>
      </trkpt>
      <trkpt lat="47.94011" lon="-3.89579">
        <ele>94.6</ele>
        <time>2021-08-12T09:04:48Z</time>
      </trkpt>
      <trkpt lat="47.94006" lon="-3.89579">
        <ele>94.4</ele>
        <time>2021-08-12T09:04:49Z</time>
      </trkpt>
      <trkpt lat="47.93998" lon="-3.89579">
        <ele>93.8</ele>
        <time>2021-08-12T09:04:50Z</time>
      </trkpt>
      <trkpt lat="47.9399" lon="-3.89576">
        <ele>93.2</ele>
        <time>2021-08-12T09:04:51Z</time>
      </trkpt>
      <trkpt lat="47.9398" lon="-3.89575">
        <ele>92.8</ele>
        <time>2021-08-12T09:04:52Z</time>
      </trkpt>
      <trkpt lat="47.93971" lon="-3.89572">
        <ele>92.2</ele>
        <time>2021-08-12T09:04:53Z</time>
      </trkpt>
      <trkpt lat="47.93962" lon="-3.8957">
        <ele>91.4</ele>
        <time>2021-08-12T09:04:54Z</time>
      </trkpt>
      <trkpt lat="47.93953" lon="-3.89567">
        <ele>90.6</ele>
        <time>2021-08-12T09:04:55Z</time>
      </trkpt>
      <trkpt lat="47.93943" lon="-3.89566">
        <ele>88.2</ele>
        <time>2021-08-12T09:04:56Z</time>
      </trkpt>
      <trkpt lat="47.93934" lon="-3.89565">
        <ele>87.2</ele>
        <time>2021-08-12T09:04:57Z</time>
      </trkpt>
      <trkpt lat="47.93926" lon="-3.89567">
        <ele>86.2</ele>
        <time>2021-08-12T09:04:58Z</time>
      </trkpt>
      <trkpt lat="47.93918" lon="-3.89568">
        <ele>85.4</ele>
        <time>2021-08-12T09:04:59Z</time>
      </trkpt>
      <trkpt lat="47.93912" lon="-3.89572">
        <ele>84.8</ele>
        <time>2021-08-12T09:05:00Z</time>
      </trkpt>
      <trkpt lat="47.93904" lon="-3.89574">
        <ele>84.4</ele>
        <time>2021-08-12T09:05:01Z</time>
      </trkpt>
      <trkpt lat="47.9389" lon="-3.89581">
        <ele>83.6</ele>
        <time>2021-08-12T09:05:03Z</time>
      </trkpt>
      <trkpt lat="47.93883" lon="-3.89586">
        <ele>83.6</ele>
        <time>2021-08-12T09:05:04Z</time>
      </trkpt>
      <trkpt lat="47.93876" lon="-3.89591">
        <ele>83.6</ele>
        <time>2021-08-12T09:05:05Z</time>
      </trkpt>
      <trkpt lat="47.93869" lon="-3.89596">
        <ele>83.4</ele>
        <time>2021-08-12T09:05:06Z</time>
      </trkpt>
      <trkpt lat="47.93862" lon="-3.89601">
        <ele>83.4</ele>
        <time>2021-08-12T09:05:07Z</time>
      </trkpt>
      <trkpt lat="47.93856" lon="-3.89605">
        <ele>83.4</ele>
        <time>2021-08-12T09:05:08Z</time>
      </trkpt>
      <trkpt lat="47.93851" lon="-3.89607">
        <ele>83.4</ele>
        <time>2021-08-12T09:05:09Z</time>
      </trkpt>
      <trkpt lat="47.93847" lon="-3.89609">
        <ele>83.4</ele>
        <time>2021-08-12T09:05:10Z</time>
      </trkpt>
      <trkpt lat="47.93842" lon="-3.89609">
        <ele>83.4</ele>
        <time>2021-08-12T09:05:11Z</time>
      </trkpt>
      <trkpt lat="47.93837" lon="-3.89608">
        <ele>83.4</ele>
        <time>2021-08-12T09:05:12Z</time>
      </trkpt>
      <trkpt lat="47.93826" lon="-3.89606">
        <ele>83.6</ele>
        <time>2021-08-12T09:05:14Z</time>
      </trkpt>
      <trkpt lat="47.93822" lon="-3.89604">
        <ele>83.6</ele>
        <time>2021-08-12T09:05:15Z</time>
      </trkpt>
      <trkpt lat="47.93817" lon="-3.89602">
        <ele>83.8</ele>
        <time>2021-08-12T09:05:16Z</time>
      </trkpt>
      <trkpt lat="47.93813" lon="-3.896">
        <ele>83.8</ele>
        <time>2021-08-12T09:05:17Z</time>
      </trkpt>
      <trkpt lat="47.93807" lon="-3.89599">
        <ele>83.8</ele>
        <time>2021-08-12T09:05:18Z</time>
      </trkpt>
      <trkpt lat="47.93803" lon="-3.89596">
        <ele>84</ele>
        <time>2021-08-12T09:05:19Z</time>
      </trkpt>
      <trkpt lat="47.93798" lon="-3.89595">
        <ele>84.2</ele>
        <time>2021-08-12T09:05:20Z</time>
      </trkpt>
      <trkpt lat="47.93792" lon="-3.89594">
        <ele>84.2</ele>
        <time>2021-08-12T09:05:21Z</time>
      </trkpt>
      <trkpt lat="47.93788" lon="-3.89593">
        <ele>84.4</ele>
        <time>2021-08-12T09:05:22Z</time>
      </trkpt>
      <trkpt lat="47.93783" lon="-3.89592">
        <ele>84.6</ele>
        <time>2021-08-12T09:05:23Z</time>
      </trkpt>
      <trkpt lat="47.93778" lon="-3.89591">
        <ele>84.6</ele>
        <time>2021-08-12T09:05:24Z</time>
      </trkpt>
      <trkpt lat="47.93773" lon="-3.8959">
        <ele>84.8</ele>
        <time>2021-08-12T09:05:25Z</time>
      </trkpt>
      <trkpt lat="47.93768" lon="-3.8959">
        <ele>85.2</ele>
        <time>2021-08-12T09:05:26Z</time>
      </trkpt>
      <trkpt lat="47.93763" lon="-3.8959">
        <ele>85.4</ele>
        <time>2021-08-12T09:05:27Z</time>
      </trkpt>
      <trkpt lat="47.93758" lon="-3.89591">
        <ele>85.6</ele>
        <time>2021-08-12T09:05:28Z</time>
      </trkpt>
      <trkpt lat="47.93753" lon="-3.89591">
        <ele>85.6</ele>
        <time>2021-08-12T09:05:29Z</time>
      </trkpt>
      <trkpt lat="47.93748" lon="-3.89592">
        <ele>85.8</ele>
        <time>2021-08-12T09:05:30Z</time>
      </trkpt>
      <trkpt lat="47.93743" lon="-3.89593">
        <ele>85.8</ele>
        <time>2021-08-12T09:05:31Z</time>
      </trkpt>
      <trkpt lat="47.93738" lon="-3.89593">
        <ele>85.8</ele>
        <time>2021-08-12T09:05:32Z</time>
      </trkpt>
      <trkpt lat="47.93733" lon="-3.89594">
        <ele>85.8</ele>
        <time>2021-08-12T09:05:33Z</time>
      </trkpt>
      <trkpt lat="47.93728" lon="-3.89595">
        <ele>85.8</ele>
        <time>2021-08-12T09:05:34Z</time>
      </trkpt>
      <trkpt lat="47.93719" lon="-3.89597">
        <ele>86</ele>
        <time>2021-08-12T09:05:36Z</time>
      </trkpt>
      <trkpt lat="47.93714" lon="-3.89599">
        <ele>86</ele>
        <time>2021-08-12T09:05:37Z</time>
      </trkpt>
      <trkpt lat="47.9371" lon="-3.89601">
        <ele>86.2</ele>
        <time>2021-08-12T09:05:38Z</time>
      </trkpt>
      <trkpt lat="47.93706" lon="-3.89603">
        <ele>86.2</ele>
        <time>2021-08-12T09:05:39Z</time>
      </trkpt>
      <trkpt lat="47.93702" lon="-3.89605">
        <ele>86.4</ele>
        <time>2021-08-12T09:05:40Z</time>
      </trkpt>
      <trkpt lat="47.93698" lon="-3.89607">
        <ele>86.4</ele>
        <time>2021-08-12T09:05:41Z</time>
      </trkpt>
      <trkpt lat="47.93694" lon="-3.89609">
        <ele>86.4</ele>
        <time>2021-08-12T09:05:42Z</time>
      </trkpt>
      <trkpt lat="47.9369" lon="-3.8961">
        <ele>86.6</ele>
        <time>2021-08-12T09:05:43Z</time>
      </trkpt>
      <trkpt lat="47.93686" lon="-3.89612">
        <ele>86.6</ele>
        <time>2021-08-12T09:05:44Z</time>
      </trkpt>
      <trkpt lat="47.93683" lon="-3.89614">
        <ele>86.6</ele>
        <time>2021-08-12T09:05:45Z</time>
      </trkpt>
      <trkpt lat="47.93678" lon="-3.89616">
        <ele>87</ele>
        <time>2021-08-12T09:05:47Z</time>
      </trkpt>
      <trkpt lat="47.93675" lon="-3.89616">
        <ele>87.4</ele>
        <time>2021-08-12T09:05:48Z</time>
      </trkpt>
      <trkpt lat="47.93672" lon="-3.89617">
        <ele>87.6</ele>
        <time>2021-08-12T09:05:49Z</time>
      </trkpt>
      <trkpt lat="47.9367" lon="-3.89617">
        <ele>87.8</ele>
        <time>2021-08-12T09:05:50Z</time>
      </trkpt>
      <trkpt lat="47.93668" lon="-3.89618">
        <ele>88</ele>
        <time>2021-08-12T09:05:51Z</time>
      </trkpt>
      <trkpt lat="47.93666" lon="-3.8962">
        <ele>88.2</ele>
        <time>2021-08-12T09:05:52Z</time>
      </trkpt>
      <trkpt lat="47.93664" lon="-3.89621">
        <ele>88.4</ele>
        <time>2021-08-12T09:05:53Z</time>
      </trkpt>
      <trkpt lat="47.93662" lon="-3.89622">
        <ele>88.4</ele>
        <time>2021-08-12T09:05:54Z</time>
      </trkpt>
      <trkpt lat="47.93659" lon="-3.89622">
        <ele>88.8</ele>
        <time>2021-08-12T09:05:55Z</time>
      </trkpt>
      <trkpt lat="47.93657" lon="-3.89623">
        <ele>89</ele>
        <time>2021-08-12T09:05:56Z</time>
      </trkpt>
      <trkpt lat="47.93651" lon="-3.89624">
        <ele>89.6</ele>
        <time>2021-08-12T09:05:58Z</time>
      </trkpt>
      <trkpt lat="47.93648" lon="-3.89625">
        <ele>89.8</ele>
        <time>2021-08-12T09:05:59Z</time>
      </trkpt>
      <trkpt lat="47.93645" lon="-3.89626">
        <ele>90</ele>
        <time>2021-08-12T09:06:00Z</time>
      </trkpt>
      <trkpt lat="47.93643" lon="-3.89626">
        <ele>90.2</ele>
        <time>2021-08-12T09:06:01Z</time>
      </trkpt>
      <trkpt lat="47.93641" lon="-3.89626">
        <ele>90.4</ele>
        <time>2021-08-12T09:06:02Z</time>
      </trkpt>
      <trkpt lat="47.93639" lon="-3.89626">
        <ele>90.6</ele>
        <time>2021-08-12T09:06:03Z</time>
      </trkpt>
      <trkpt lat="47.93636" lon="-3.89626">
        <ele>91</ele>
        <time>2021-08-12T09:06:04Z</time>
      </trkpt>
      <trkpt lat="47.93634" lon="-3.89626">
        <ele>91.2</ele>
        <time>2021-08-12T09:06:05Z</time>
      </trkpt>
      <trkpt lat="47.93632" lon="-3.89625">
        <ele>91.6</ele>
        <time>2021-08-12T09:06:06Z</time>
      </trkpt>
      <trkpt lat="47.93631" lon="-3.89625">
        <ele>91.8</ele>
        <time>2021-08-12T09:06:07Z</time>
      </trkpt>
      <trkpt lat="47.93626" lon="-3.89626">
        <ele>92.6</ele>
        <time>2021-08-12T09:06:09Z</time>
      </trkpt>
      <trkpt lat="47.93625" lon="-3.89626">
        <ele>92.8</ele>
        <time>2021-08-12T09:06:10Z</time>
      </trkpt>
      <trkpt lat="47.93623" lon="-3.89626">
        <ele>93</ele>
        <time>2021-08-12T09:06:11Z</time>
      </trkpt>
      <trkpt lat="47.93621" lon="-3.89626">
        <ele>93.2</ele>
        <time>2021-08-12T09:06:12Z</time>
      </trkpt>
      <trkpt lat="47.9362" lon="-3.89625">
        <ele>93.4</ele>
        <time>2021-08-12T09:06:13Z</time>
      </trkpt>
      <trkpt lat="47.93618" lon="-3.89624">
        <ele>93.6</ele>
        <time>2021-08-12T09:06:14Z</time>
      </trkpt>
      <trkpt lat="47.93615" lon="-3.89624">
        <ele>93.8</ele>
        <time>2021-08-12T09:06:15Z</time>
      </trkpt>
      <trkpt lat="47.93613" lon="-3.89623">
        <ele>94.2</ele>
        <time>2021-08-12T09:06:16Z</time>
      </trkpt>
      <trkpt lat="47.93611" lon="-3.89623">
        <ele>94.4</ele>
        <time>2021-08-12T09:06:17Z</time>
      </trkpt>
      <trkpt lat="47.93609" lon="-3.89622">
        <ele>94.6</ele>
        <time>2021-08-12T09:06:18Z</time>
      </trkpt>
      <trkpt lat="47.93608" lon="-3.89622">
        <ele>94.8</ele>
        <time>2021-08-12T09:06:19Z</time>
      </trkpt>
      <trkpt lat="47.93605" lon="-3.89622">
        <ele>95</ele>
        <time>2021-08-12T09:06:20Z</time>
      </trkpt>
      <trkpt lat="47.93603" lon="-3.89621">
        <ele>95.2</ele>
        <time>2021-08-12T09:06:21Z</time>
      </trkpt>
      <trkpt lat="47.93602" lon="-3.8962">
        <ele>95.2</ele>
        <time>2021-08-12T09:06:22Z</time>
      </trkpt>
      <trkpt lat="47.936" lon="-3.89618">
        <ele>95.4</ele>
        <time>2021-08-12T09:06:23Z</time>
      </trkpt>
      <trkpt lat="47.93598" lon="-3.89617">
        <ele>95.6</ele>
        <time>2021-08-12T09:06:24Z</time>
      </trkpt>
      <trkpt lat="47.93597" lon="-3.89615">
        <ele>95.8</ele>
        <time>2021-08-12T09:06:25Z</time>
      </trkpt>
      <trkpt lat="47.93594" lon="-3.89613">
        <ele>96</ele>
        <time>2021-08-12T09:06:26Z</time>
      </trkpt>
      <trkpt lat="47.93592" lon="-3.89612">
        <ele>96</ele>
        <time>2021-08-12T09:06:27Z</time>
      </trkpt>
      <trkpt lat="47.9359" lon="-3.8961">
        <ele>96.2</ele>
        <time>2021-08-12T09:06:28Z</time>
      </trkpt>
      <trkpt lat="47.93588" lon="-3.89609">
        <ele>96.4</ele>
        <time>2021-08-12T09:06:29Z</time>
      </trkpt>
      <trkpt lat="47.93585" lon="-3.89607">
        <ele>96.8</ele>
        <time>2021-08-12T09:06:31Z</time>
      </trkpt>
      <trkpt lat="47.93582" lon="-3.89606">
        <ele>97</ele>
        <time>2021-08-12T09:06:32Z</time>
      </trkpt>
      <trkpt lat="47.9358" lon="-3.89605">
        <ele>97.2</ele>
        <time>2021-08-12T09:06:33Z</time>
      </trkpt>
      <trkpt lat="47.93577" lon="-3.89603">
        <ele>97.4</ele>
        <time>2021-08-12T09:06:34Z</time>
      </trkpt>
      <trkpt lat="47.93575" lon="-3.89602">
        <ele>97.6</ele>
        <time>2021-08-12T09:06:35Z</time>
      </trkpt>
      <trkpt lat="47.93573" lon="-3.89601">
        <ele>97.6</ele>
        <time>2021-08-12T09:06:36Z</time>
      </trkpt>
      <trkpt lat="47.93571" lon="-3.89599">
        <ele>97.6</ele>
        <time>2021-08-12T09:06:37Z</time>
      </trkpt>
      <trkpt lat="47.93569" lon="-3.89598">
        <ele>97.8</ele>
        <time>2021-08-12T09:06:38Z</time>
      </trkpt>
      <trkpt lat="47.93566" lon="-3.89596">
        <ele>98</ele>
        <time>2021-08-12T09:06:39Z</time>
      </trkpt>
      <trkpt lat="47.93564" lon="-3.89594">
        <ele>98.2</ele>
        <time>2021-08-12T09:06:40Z</time>
      </trkpt>
      <trkpt lat="47.9356" lon="-3.8959">
        <ele>98.6</ele>
        <time>2021-08-12T09:06:42Z</time>
      </trkpt>
      <trkpt lat="47.93557" lon="-3.89588">
        <ele>98.6</ele>
        <time>2021-08-12T09:06:43Z</time>
      </trkpt>
      <trkpt lat="47.93554" lon="-3.89587">
        <ele>98.8</ele>
        <time>2021-08-12T09:06:44Z</time>
      </trkpt>
      <trkpt lat="47.93552" lon="-3.89585">
        <ele>99</ele>
        <time>2021-08-12T09:06:45Z</time>
      </trkpt>
      <trkpt lat="47.9355" lon="-3.89583">
        <ele>99.2</ele>
        <time>2021-08-12T09:06:46Z</time>
      </trkpt>
      <trkpt lat="47.93547" lon="-3.8958">
        <ele>99.4</ele>
        <time>2021-08-12T09:06:47Z</time>
      </trkpt>
      <trkpt lat="47.93544" lon="-3.89578">
        <ele>99.6</ele>
        <time>2021-08-12T09:06:48Z</time>
      </trkpt>
      <trkpt lat="47.93541" lon="-3.89576">
        <ele>99.8</ele>
        <time>2021-08-12T09:06:49Z</time>
      </trkpt>
      <trkpt lat="47.93539" lon="-3.89575">
        <ele>100.2</ele>
        <time>2021-08-12T09:06:50Z</time>
      </trkpt>
      <trkpt lat="47.93536" lon="-3.89573">
        <ele>100.4</ele>
        <time>2021-08-12T09:06:51Z</time>
      </trkpt>
      <trkpt lat="47.93532" lon="-3.89571">
        <ele>101</ele>
        <time>2021-08-12T09:06:53Z</time>
      </trkpt>
      <trkpt lat="47.9353" lon="-3.89568">
        <ele>101.4</ele>
        <time>2021-08-12T09:06:54Z</time>
      </trkpt>
      <trkpt lat="47.93528" lon="-3.89564">
        <ele>101.6</ele>
        <time>2021-08-12T09:06:55Z</time>
      </trkpt>
      <trkpt lat="47.93525" lon="-3.89561">
        <ele>102</ele>
        <time>2021-08-12T09:06:56Z</time>
      </trkpt>
      <trkpt lat="47.93523" lon="-3.89558">
        <ele>102</ele>
        <time>2021-08-12T09:06:57Z</time>
      </trkpt>
      <trkpt lat="47.9352" lon="-3.89556">
        <ele>102.2</ele>
        <time>2021-08-12T09:06:58Z</time>
      </trkpt>
      <trkpt lat="47.93518" lon="-3.89555">
        <ele>102.2</ele>
        <time>2021-08-12T09:06:59Z</time>
      </trkpt>
      <trkpt lat="47.93516" lon="-3.89553">
        <ele>102.2</ele>
        <time>2021-08-12T09:07:00Z</time>
      </trkpt>
      <trkpt lat="47.93514" lon="-3.89551">
        <ele>102.4</ele>
        <time>2021-08-12T09:07:01Z</time>
      </trkpt>
      <trkpt lat="47.93512" lon="-3.89549">
        <ele>102.6</ele>
        <time>2021-08-12T09:07:02Z</time>
      </trkpt>
      <trkpt lat="47.9351" lon="-3.89547">
        <ele>102.6</ele>
        <time>2021-08-12T09:07:03Z</time>
      </trkpt>
      <trkpt lat="47.93508" lon="-3.89545">
        <ele>102.8</ele>
        <time>2021-08-12T09:07:04Z</time>
      </trkpt>
      <trkpt lat="47.93503" lon="-3.89542">
        <ele>103</ele>
        <time>2021-08-12T09:07:05Z</time>
      </trkpt>
      <trkpt lat="47.935" lon="-3.89541">
        <ele>102.8</ele>
        <time>2021-08-12T09:07:06Z</time>
      </trkpt>
      <trkpt lat="47.93496" lon="-3.89539">
        <ele>103</ele>
        <time>2021-08-12T09:07:07Z</time>
      </trkpt>
      <trkpt lat="47.93493" lon="-3.89539">
        <ele>103</ele>
        <time>2021-08-12T09:07:08Z</time>
      </trkpt>
      <trkpt lat="47.93489" lon="-3.89538">
        <ele>103</ele>
        <time>2021-08-12T09:07:09Z</time>
      </trkpt>
      <trkpt lat="47.93486" lon="-3.89537">
        <ele>103</ele>
        <time>2021-08-12T09:07:10Z</time>
      </trkpt>
      <trkpt lat="47.93482" lon="-3.89537">
        <ele>103</ele>
        <time>2021-08-12T09:07:11Z</time>
      </trkpt>
      <trkpt lat="47.93478" lon="-3.89536">
        <ele>103</ele>
        <time>2021-08-12T09:07:12Z</time>
      </trkpt>
      <trkpt lat="47.93474" lon="-3.89535">
        <ele>103</ele>
        <time>2021-08-12T09:07:13Z</time>
      </trkpt>
      <trkpt lat="47.9347" lon="-3.89535">
        <ele>103</ele>
        <time>2021-08-12T09:07:14Z</time>
      </trkpt>
      <trkpt lat="47.93466" lon="-3.89535">
        <ele>103</ele>
        <time>2021-08-12T09:07:15Z</time>
      </trkpt>
      <trkpt lat="47.93462" lon="-3.89536">
        <ele>103</ele>
        <time>2021-08-12T09:07:16Z</time>
      </trkpt>
      <trkpt lat="47.93458" lon="-3.89536">
        <ele>103</ele>
        <time>2021-08-12T09:07:17Z</time>
      </trkpt>
      <trkpt lat="47.93454" lon="-3.89536">
        <ele>102.8</ele>
        <time>2021-08-12T09:07:18Z</time>
      </trkpt>
      <trkpt lat="47.9345" lon="-3.89537">
        <ele>102.6</ele>
        <time>2021-08-12T09:07:19Z</time>
      </trkpt>
      <trkpt lat="47.93444" lon="-3.89538">
        <ele>102.4</ele>
        <time>2021-08-12T09:07:20Z</time>
      </trkpt>
      <trkpt lat="47.93439" lon="-3.8954">
        <ele>102.2</ele>
        <time>2021-08-12T09:07:21Z</time>
      </trkpt>
      <trkpt lat="47.93434" lon="-3.89542">
        <ele>102</ele>
        <time>2021-08-12T09:07:22Z</time>
      </trkpt>
      <trkpt lat="47.93428" lon="-3.89544">
        <ele>101.6</ele>
        <time>2021-08-12T09:07:23Z</time>
      </trkpt>
      <trkpt lat="47.93423" lon="-3.89546">
        <ele>101.4</ele>
        <time>2021-08-12T09:07:24Z</time>
      </trkpt>
      <trkpt lat="47.93413" lon="-3.89551">
        <ele>101</ele>
        <time>2021-08-12T09:07:26Z</time>
      </trkpt>
      <trkpt lat="47.93408" lon="-3.89552">
        <ele>100.8</ele>
        <time>2021-08-12T09:07:27Z</time>
      </trkpt>
      <trkpt lat="47.93402" lon="-3.89554">
        <ele>100.6</ele>
        <time>2021-08-12T09:07:28Z</time>
      </trkpt>
      <trkpt lat="47.93397" lon="-3.89557">
        <ele>100.4</ele>
        <time>2021-08-12T09:07:29Z</time>
      </trkpt>
      <trkpt lat="47.93392" lon="-3.89561">
        <ele>100.2</ele>
        <time>2021-08-12T09:07:30Z</time>
      </trkpt>
      <trkpt lat="47.93387" lon="-3.89564">
        <ele>100.2</ele>
        <time>2021-08-12T09:07:31Z</time>
      </trkpt>
      <trkpt lat="47.93382" lon="-3.89567">
        <ele>99.8</ele>
        <time>2021-08-12T09:07:32Z</time>
      </trkpt>
      <trkpt lat="47.93377" lon="-3.8957">
        <ele>99.8</ele>
        <time>2021-08-12T09:07:33Z</time>
      </trkpt>
      <trkpt lat="47.93372" lon="-3.89573">
        <ele>99.8</ele>
        <time>2021-08-12T09:07:34Z</time>
      </trkpt>
      <trkpt lat="47.93368" lon="-3.89575">
        <ele>99.8</ele>
        <time>2021-08-12T09:07:35Z</time>
      </trkpt>
      <trkpt lat="47.93359" lon="-3.89581">
        <ele>99.8</ele>
        <time>2021-08-12T09:07:37Z</time>
      </trkpt>
      <trkpt lat="47.93355" lon="-3.89583">
        <ele>99.8</ele>
        <time>2021-08-12T09:07:38Z</time>
      </trkpt>
      <trkpt lat="47.93351" lon="-3.89585">
        <ele>99.8</ele>
        <time>2021-08-12T09:07:39Z</time>
      </trkpt>
      <trkpt lat="47.93347" lon="-3.89586">
        <ele>99.8</ele>
        <time>2021-08-12T09:07:40Z</time>
      </trkpt>
      <trkpt lat="47.93343" lon="-3.89588">
        <ele>99.8</ele>
        <time>2021-08-12T09:07:41Z</time>
      </trkpt>
      <trkpt lat="47.93339" lon="-3.89589">
        <ele>99.8</ele>
        <time>2021-08-12T09:07:42Z</time>
      </trkpt>
      <trkpt lat="47.93336" lon="-3.8959">
        <ele>99.8</ele>
        <time>2021-08-12T09:07:43Z</time>
      </trkpt>
      <trkpt lat="47.93332" lon="-3.89591">
        <ele>100</ele>
        <time>2021-08-12T09:07:44Z</time>
      </trkpt>
      <trkpt lat="47.93329" lon="-3.89592">
        <ele>100</ele>
        <time>2021-08-12T09:07:45Z</time>
      </trkpt>
      <trkpt lat="47.93325" lon="-3.89594">
        <ele>100</ele>
        <time>2021-08-12T09:07:46Z</time>
      </trkpt>
      <trkpt lat="47.93318" lon="-3.89595">
        <ele>100.2</ele>
        <time>2021-08-12T09:07:48Z</time>
      </trkpt>
      <trkpt lat="47.93315" lon="-3.89596">
        <ele>100.4</ele>
        <time>2021-08-12T09:07:49Z</time>
      </trkpt>
      <trkpt lat="47.93312" lon="-3.89596">
        <ele>100.4</ele>
        <time>2021-08-12T09:07:50Z</time>
      </trkpt>
      <trkpt lat="47.93309" lon="-3.89597">
        <ele>100.4</ele>
        <time>2021-08-12T09:07:51Z</time>
      </trkpt>
      <trkpt lat="47.93306" lon="-3.89598">
        <ele>100.8</ele>
        <time>2021-08-12T09:07:52Z</time>
      </trkpt>
      <trkpt lat="47.93302" lon="-3.89598">
        <ele>101</ele>
        <time>2021-08-12T09:07:53Z</time>
      </trkpt>
      <trkpt lat="47.93299" lon="-3.89599">
        <ele>101.2</ele>
        <time>2021-08-12T09:07:54Z</time>
      </trkpt>
      <trkpt lat="47.93296" lon="-3.89599">
        <ele>101.2</ele>
        <time>2021-08-12T09:07:55Z</time>
      </trkpt>
      <trkpt lat="47.93293" lon="-3.89599">
        <ele>101.6</ele>
        <time>2021-08-12T09:07:56Z</time>
      </trkpt>
      <trkpt lat="47.9329" lon="-3.89599">
        <ele>101.8</ele>
        <time>2021-08-12T09:07:57Z</time>
      </trkpt>
      <trkpt lat="47.93287" lon="-3.896">
        <ele>102</ele>
        <time>2021-08-12T09:07:58Z</time>
      </trkpt>
      <trkpt lat="47.93284" lon="-3.896">
        <ele>102</ele>
        <time>2021-08-12T09:07:59Z</time>
      </trkpt>
      <trkpt lat="47.9328" lon="-3.896">
        <ele>102</ele>
        <time>2021-08-12T09:08:00Z</time>
      </trkpt>
      <trkpt lat="47.93277" lon="-3.89599">
        <ele>102.2</ele>
        <time>2021-08-12T09:08:01Z</time>
      </trkpt>
      <trkpt lat="47.93273" lon="-3.89599">
        <ele>102.2</ele>
        <time>2021-08-12T09:08:02Z</time>
      </trkpt>
      <trkpt lat="47.93269" lon="-3.89598">
        <ele>102.4</ele>
        <time>2021-08-12T09:08:03Z</time>
      </trkpt>
      <trkpt lat="47.93266" lon="-3.89598">
        <ele>102.4</ele>
        <time>2021-08-12T09:08:04Z</time>
      </trkpt>
      <trkpt lat="47.93262" lon="-3.89597">
        <ele>102.6</ele>
        <time>2021-08-12T09:08:05Z</time>
      </trkpt>
      <trkpt lat="47.93258" lon="-3.89596">
        <ele>102.6</ele>
        <time>2021-08-12T09:08:06Z</time>
      </trkpt>
      <trkpt lat="47.93253" lon="-3.89595">
        <ele>102.6</ele>
        <time>2021-08-12T09:08:07Z</time>
      </trkpt>
      <trkpt lat="47.93249" lon="-3.89594">
        <ele>102.6</ele>
        <time>2021-08-12T09:08:08Z</time>
      </trkpt>
      <trkpt lat="47.93241" lon="-3.89592">
        <ele>102.6</ele>
        <time>2021-08-12T09:08:10Z</time>
      </trkpt>
      <trkpt lat="47.93237" lon="-3.89591">
        <ele>102.8</ele>
        <time>2021-08-12T09:08:11Z</time>
      </trkpt>
      <trkpt lat="47.93233" lon="-3.8959">
        <ele>102.8</ele>
        <time>2021-08-12T09:08:12Z</time>
      </trkpt>
      <trkpt lat="47.93229" lon="-3.89589">
        <ele>102.8</ele>
        <time>2021-08-12T09:08:13Z</time>
      </trkpt>
      <trkpt lat="47.93225" lon="-3.89588">
        <ele>102.8</ele>
        <time>2021-08-12T09:08:14Z</time>
      </trkpt>
      <trkpt lat="47.93221" lon="-3.89586">
        <ele>102.8</ele>
        <time>2021-08-12T09:08:15Z</time>
      </trkpt>
      <trkpt lat="47.93217" lon="-3.89585">
        <ele>102.8</ele>
        <time>2021-08-12T09:08:16Z</time>
      </trkpt>
      <trkpt lat="47.93212" lon="-3.89583">
        <ele>102.8</ele>
        <time>2021-08-12T09:08:17Z</time>
      </trkpt>
      <trkpt lat="47.93208" lon="-3.89581">
        <ele>102.8</ele>
        <time>2021-08-12T09:08:18Z</time>
      </trkpt>
      <trkpt lat="47.93205" lon="-3.8958">
        <ele>102.6</ele>
        <time>2021-08-12T09:08:19Z</time>
      </trkpt>
      <trkpt lat="47.93201" lon="-3.89579">
        <ele>102.6</ele>
        <time>2021-08-12T09:08:20Z</time>
      </trkpt>
      <trkpt lat="47.93197" lon="-3.89578">
        <ele>102.4</ele>
        <time>2021-08-12T09:08:21Z</time>
      </trkpt>
      <trkpt lat="47.93193" lon="-3.89576">
        <ele>102.4</ele>
        <time>2021-08-12T09:08:22Z</time>
      </trkpt>
      <trkpt lat="47.93189" lon="-3.89574">
        <ele>102</ele>
        <time>2021-08-12T09:08:23Z</time>
      </trkpt>
      <trkpt lat="47.93185" lon="-3.89572">
        <ele>101.8</ele>
        <time>2021-08-12T09:08:24Z</time>
      </trkpt>
      <trkpt lat="47.93181" lon="-3.8957">
        <ele>101.8</ele>
        <time>2021-08-12T09:08:25Z</time>
      </trkpt>
      <trkpt lat="47.93177" lon="-3.89568">
        <ele>101.6</ele>
        <time>2021-08-12T09:08:26Z</time>
      </trkpt>
      <trkpt lat="47.93173" lon="-3.89566">
        <ele>101.6</ele>
        <time>2021-08-12T09:08:27Z</time>
      </trkpt>
      <trkpt lat="47.93169" lon="-3.89564">
        <ele>101.4</ele>
        <time>2021-08-12T09:08:28Z</time>
      </trkpt>
      <trkpt lat="47.93164" lon="-3.89561">
        <ele>101.2</ele>
        <time>2021-08-12T09:08:29Z</time>
      </trkpt>
      <trkpt lat="47.93159" lon="-3.89558">
        <ele>101</ele>
        <time>2021-08-12T09:08:30Z</time>
      </trkpt>
      <trkpt lat="47.93153" lon="-3.89555">
        <ele>101</ele>
        <time>2021-08-12T09:08:31Z</time>
      </trkpt>
      <trkpt lat="47.93148" lon="-3.89553">
        <ele>100.8</ele>
        <time>2021-08-12T09:08:32Z</time>
      </trkpt>
      <trkpt lat="47.93142" lon="-3.89551">
        <ele>100.8</ele>
        <time>2021-08-12T09:08:33Z</time>
      </trkpt>
      <trkpt lat="47.93135" lon="-3.8955">
        <ele>100.8</ele>
        <time>2021-08-12T09:08:34Z</time>
      </trkpt>
      <trkpt lat="47.93128" lon="-3.89551">
        <ele>100.4</ele>
        <time>2021-08-12T09:08:35Z</time>
      </trkpt>
      <trkpt lat="47.93122" lon="-3.89553">
        <ele>100.4</ele>
        <time>2021-08-12T09:08:36Z</time>
      </trkpt>
      <trkpt lat="47.93117" lon="-3.89556">
        <ele>100.2</ele>
        <time>2021-08-12T09:08:37Z</time>
      </trkpt>
      <trkpt lat="47.93111" lon="-3.8956">
        <ele>100</ele>
        <time>2021-08-12T09:08:38Z</time>
      </trkpt>
      <trkpt lat="47.93105" lon="-3.89565">
        <ele>99.8</ele>
        <time>2021-08-12T09:08:39Z</time>
      </trkpt>
      <trkpt lat="47.931" lon="-3.89569">
        <ele>99.4</ele>
        <time>2021-08-12T09:08:40Z</time>
      </trkpt>
      <trkpt lat="47.93094" lon="-3.89574">
        <ele>98.8</ele>
        <time>2021-08-12T09:08:41Z</time>
      </trkpt>
      <trkpt lat="47.93081" lon="-3.89584">
        <ele>98.8</ele>
        <time>2021-08-12T09:08:43Z</time>
      </trkpt>
      <trkpt lat="47.93075" lon="-3.89588">
        <ele>98.4</ele>
        <time>2021-08-12T09:08:44Z</time>
      </trkpt>
      <trkpt lat="47.9307" lon="-3.89593">
        <ele>98.2</ele>
        <time>2021-08-12T09:08:45Z</time>
      </trkpt>
      <trkpt lat="47.93064" lon="-3.89597">
        <ele>98.2</ele>
        <time>2021-08-12T09:08:46Z</time>
      </trkpt>
      <trkpt lat="47.93058" lon="-3.89603">
        <ele>98</ele>
        <time>2021-08-12T09:08:47Z</time>
      </trkpt>
      <trkpt lat="47.93051" lon="-3.89608">
        <ele>98</ele>
        <time>2021-08-12T09:08:48Z</time>
      </trkpt>
      <trkpt lat="47.93045" lon="-3.89613">
        <ele>97.8</ele>
        <time>2021-08-12T09:08:49Z</time>
      </trkpt>
      <trkpt lat="47.93038" lon="-3.89618">
        <ele>97</ele>
        <time>2021-08-12T09:08:50Z</time>
      </trkpt>
      <trkpt lat="47.93031" lon="-3.89624">
        <ele>96.8</ele>
        <time>2021-08-12T09:08:51Z</time>
      </trkpt>
      <trkpt lat="47.93025" lon="-3.89629">
        <ele>96.4</ele>
        <time>2021-08-12T09:08:52Z</time>
      </trkpt>
      <trkpt lat="47.93019" lon="-3.89634">
        <ele>96</ele>
        <time>2021-08-12T09:08:53Z</time>
      </trkpt>
      <trkpt lat="47.93014" lon="-3.89638">
        <ele>95.6</ele>
        <time>2021-08-12T09:08:54Z</time>
      </trkpt>
      <trkpt lat="47.93008" lon="-3.89642">
        <ele>95.4</ele>
        <time>2021-08-12T09:08:55Z</time>
      </trkpt>
      <trkpt lat="47.93004" lon="-3.89646">
        <ele>95.4</ele>
        <time>2021-08-12T09:08:56Z</time>
      </trkpt>
      <trkpt lat="47.92999" lon="-3.8965">
        <ele>95.2</ele>
        <time>2021-08-12T09:08:57Z</time>
      </trkpt>
      <trkpt lat="47.92995" lon="-3.89653">
        <ele>95.2</ele>
        <time>2021-08-12T09:08:58Z</time>
      </trkpt>
      <trkpt lat="47.92991" lon="-3.89656">
        <ele>95.2</ele>
        <time>2021-08-12T09:08:59Z</time>
      </trkpt>
      <trkpt lat="47.92988" lon="-3.89657">
        <ele>95</ele>
        <time>2021-08-12T09:09:00Z</time>
      </trkpt>
      <trkpt lat="47.92985" lon="-3.89658">
        <ele>95</ele>
        <time>2021-08-12T09:09:01Z</time>
      </trkpt>
      <trkpt lat="47.92982" lon="-3.89657">
        <ele>95</ele>
        <time>2021-08-12T09:09:02Z</time>
      </trkpt>
      <trkpt lat="47.92979" lon="-3.89657">
        <ele>95</ele>
        <time>2021-08-12T09:09:03Z</time>
      </trkpt>
      <trkpt lat="47.92974" lon="-3.8966">
        <ele>94.6</ele>
        <time>2021-08-12T09:09:05Z</time>
      </trkpt>
      <trkpt lat="47.92971" lon="-3.89661">
        <ele>94.6</ele>
        <time>2021-08-12T09:09:06Z</time>
      </trkpt>
      <trkpt lat="47.92968" lon="-3.89663">
        <ele>94.6</ele>
        <time>2021-08-12T09:09:07Z</time>
      </trkpt>
      <trkpt lat="47.92965" lon="-3.89666">
        <ele>94.6</ele>
        <time>2021-08-12T09:09:08Z</time>
      </trkpt>
      <trkpt lat="47.92962" lon="-3.89669">
        <ele>94.6</ele>
        <time>2021-08-12T09:09:09Z</time>
      </trkpt>
      <trkpt lat="47.92958" lon="-3.89673">
        <ele>94.4</ele>
        <time>2021-08-12T09:09:10Z</time>
      </trkpt>
      <trkpt lat="47.92953" lon="-3.89677">
        <ele>94.4</ele>
        <time>2021-08-12T09:09:11Z</time>
      </trkpt>
      <trkpt lat="47.92949" lon="-3.89681">
        <ele>94.4</ele>
        <time>2021-08-12T09:09:12Z</time>
      </trkpt>
      <trkpt lat="47.92945" lon="-3.89684">
        <ele>94.2</ele>
        <time>2021-08-12T09:09:13Z</time>
      </trkpt>
      <trkpt lat="47.9294" lon="-3.89688">
        <ele>94.2</ele>
        <time>2021-08-12T09:09:14Z</time>
      </trkpt>
      <trkpt lat="47.92932" lon="-3.89695">
        <ele>94</ele>
        <time>2021-08-12T09:09:16Z</time>
      </trkpt>
      <trkpt lat="47.92927" lon="-3.897">
        <ele>94</ele>
        <time>2021-08-12T09:09:17Z</time>
      </trkpt>
      <trkpt lat="47.92923" lon="-3.89704">
        <ele>93.8</ele>
        <time>2021-08-12T09:09:18Z</time>
      </trkpt>
      <trkpt lat="47.92918" lon="-3.89709">
        <ele>93.4</ele>
        <time>2021-08-12T09:09:19Z</time>
      </trkpt>
      <trkpt lat="47.92913" lon="-3.89713">
        <ele>93.2</ele>
        <time>2021-08-12T09:09:20Z</time>
      </trkpt>
      <trkpt lat="47.92908" lon="-3.89718">
        <ele>93</ele>
        <time>2021-08-12T09:09:21Z</time>
      </trkpt>
      <trkpt lat="47.92903" lon="-3.89722">
        <ele>93</ele>
        <time>2021-08-12T09:09:22Z</time>
      </trkpt>
      <trkpt lat="47.92898" lon="-3.89726">
        <ele>92.8</ele>
        <time>2021-08-12T09:09:23Z</time>
      </trkpt>
      <trkpt lat="47.92893" lon="-3.89731">
        <ele>92.8</ele>
        <time>2021-08-12T09:09:24Z</time>
      </trkpt>
      <trkpt lat="47.92888" lon="-3.89735">
        <ele>92.6</ele>
        <time>2021-08-12T09:09:25Z</time>
      </trkpt>
      <trkpt lat="47.92883" lon="-3.89739">
        <ele>92.6</ele>
        <time>2021-08-12T09:09:26Z</time>
      </trkpt>
      <trkpt lat="47.92878" lon="-3.89744">
        <ele>92.4</ele>
        <time>2021-08-12T09:09:27Z</time>
      </trkpt>
      <trkpt lat="47.92873" lon="-3.89748">
        <ele>92.2</ele>
        <time>2021-08-12T09:09:28Z</time>
      </trkpt>
      <trkpt lat="47.92868" lon="-3.89753">
        <ele>92</ele>
        <time>2021-08-12T09:09:29Z</time>
      </trkpt>
      <trkpt lat="47.92863" lon="-3.89757">
        <ele>92</ele>
        <time>2021-08-12T09:09:30Z</time>
      </trkpt>
      <trkpt lat="47.92858" lon="-3.89762">
        <ele>91.8</ele>
        <time>2021-08-12T09:09:31Z</time>
      </trkpt>
      <trkpt lat="47.92854" lon="-3.89766">
        <ele>91.6</ele>
        <time>2021-08-12T09:09:32Z</time>
      </trkpt>
      <trkpt lat="47.92849" lon="-3.8977">
        <ele>91.6</ele>
        <time>2021-08-12T09:09:33Z</time>
      </trkpt>
      <trkpt lat="47.92844" lon="-3.89775">
        <ele>91.4</ele>
        <time>2021-08-12T09:09:34Z</time>
      </trkpt>
      <trkpt lat="47.9284" lon="-3.89779">
        <ele>91.4</ele>
        <time>2021-08-12T09:09:35Z</time>
      </trkpt>
      <trkpt lat="47.92835" lon="-3.89784">
        <ele>91.4</ele>
        <time>2021-08-12T09:09:36Z</time>
      </trkpt>
      <trkpt lat="47.92826" lon="-3.89792">
        <ele>91.2</ele>
        <time>2021-08-12T09:09:38Z</time>
      </trkpt>
      <trkpt lat="47.92822" lon="-3.89797">
        <ele>91</ele>
        <time>2021-08-12T09:09:39Z</time>
      </trkpt>
      <trkpt lat="47.92816" lon="-3.89801">
        <ele>91</ele>
        <time>2021-08-12T09:09:40Z</time>
      </trkpt>
      <trkpt lat="47.92811" lon="-3.89806">
        <ele>91</ele>
        <time>2021-08-12T09:09:41Z</time>
      </trkpt>
      <trkpt lat="47.92806" lon="-3.8981">
        <ele>91</ele>
        <time>2021-08-12T09:09:42Z</time>
      </trkpt>
      <trkpt lat="47.92801" lon="-3.89814">
        <ele>90.8</ele>
        <time>2021-08-12T09:09:43Z</time>
      </trkpt>
      <trkpt lat="47.92796" lon="-3.89818">
        <ele>90.8</ele>
        <time>2021-08-12T09:09:44Z</time>
      </trkpt>
      <trkpt lat="47.92792" lon="-3.89822">
        <ele>90.6</ele>
        <time>2021-08-12T09:09:45Z</time>
      </trkpt>
      <trkpt lat="47.92787" lon="-3.89826">
        <ele>90.6</ele>
        <time>2021-08-12T09:09:46Z</time>
      </trkpt>
      <trkpt lat="47.92783" lon="-3.89831">
        <ele>90.6</ele>
        <time>2021-08-12T09:09:47Z</time>
      </trkpt>
      <trkpt lat="47.92778" lon="-3.89834">
        <ele>90.2</ele>
        <time>2021-08-12T09:09:48Z</time>
      </trkpt>
      <trkpt lat="47.92775" lon="-3.89838">
        <ele>90.2</ele>
        <time>2021-08-12T09:09:49Z</time>
      </trkpt>
      <trkpt lat="47.92771" lon="-3.89843">
        <ele>90</ele>
        <time>2021-08-12T09:09:50Z</time>
      </trkpt>
      <trkpt lat="47.92766" lon="-3.89847">
        <ele>90</ele>
        <time>2021-08-12T09:09:51Z</time>
      </trkpt>
      <trkpt lat="47.9276" lon="-3.89852">
        <ele>89.8</ele>
        <time>2021-08-12T09:09:52Z</time>
      </trkpt>
      <trkpt lat="47.92754" lon="-3.89856">
        <ele>89.6</ele>
        <time>2021-08-12T09:09:53Z</time>
      </trkpt>
      <trkpt lat="47.92747" lon="-3.8986">
        <ele>89.6</ele>
        <time>2021-08-12T09:09:54Z</time>
      </trkpt>
      <trkpt lat="47.92742" lon="-3.89865">
        <ele>89.4</ele>
        <time>2021-08-12T09:09:55Z</time>
      </trkpt>
      <trkpt lat="47.92738" lon="-3.89868">
        <ele>89.4</ele>
        <time>2021-08-12T09:09:56Z</time>
      </trkpt>
      <trkpt lat="47.92728" lon="-3.89876">
        <ele>89.2</ele>
        <time>2021-08-12T09:09:57Z</time>
      </trkpt>
      <trkpt lat="47.92719" lon="-3.89881">
        <ele>89</ele>
        <time>2021-08-12T09:09:58Z</time>
      </trkpt>
      <trkpt lat="47.92712" lon="-3.89884">
        <ele>88.8</ele>
        <time>2021-08-12T09:09:59Z</time>
      </trkpt>
      <trkpt lat="47.92706" lon="-3.8989">
        <ele>88.6</ele>
        <time>2021-08-12T09:10:00Z</time>
      </trkpt>
      <trkpt lat="47.92706" lon="-3.8989">
        <ele>88.2</ele>
        <time>2021-08-12T09:10:01Z</time>
      </trkpt>
      <trkpt lat="47.927" lon="-3.89894">
        <ele>88</ele>
        <time>2021-08-12T09:10:02Z</time>
      </trkpt>
      <trkpt lat="47.92694" lon="-3.89898">
        <ele>87.8</ele>
        <time>2021-08-12T09:10:03Z</time>
      </trkpt>
      <trkpt lat="47.92688" lon="-3.89902">
        <ele>87.6</ele>
        <time>2021-08-12T09:10:04Z</time>
      </trkpt>
      <trkpt lat="47.92682" lon="-3.89907">
        <ele>87.6</ele>
        <time>2021-08-12T09:10:05Z</time>
      </trkpt>
      <trkpt lat="47.92675" lon="-3.89911">
        <ele>87.4</ele>
        <time>2021-08-12T09:10:06Z</time>
      </trkpt>
      <trkpt lat="47.92668" lon="-3.89915">
        <ele>87.2</ele>
        <time>2021-08-12T09:10:07Z</time>
      </trkpt>
      <trkpt lat="47.92662" lon="-3.89919">
        <ele>87</ele>
        <time>2021-08-12T09:10:08Z</time>
      </trkpt>
      <trkpt lat="47.92655" lon="-3.89923">
        <ele>86.8</ele>
        <time>2021-08-12T09:10:09Z</time>
      </trkpt>
      <trkpt lat="47.92643" lon="-3.89931">
        <ele>86.2</ele>
        <time>2021-08-12T09:10:11Z</time>
      </trkpt>
      <trkpt lat="47.92637" lon="-3.89935">
        <ele>86</ele>
        <time>2021-08-12T09:10:12Z</time>
      </trkpt>
      <trkpt lat="47.9263" lon="-3.8994">
        <ele>85.8</ele>
        <time>2021-08-12T09:10:13Z</time>
      </trkpt>
      <trkpt lat="47.92624" lon="-3.89944">
        <ele>85.6</ele>
        <time>2021-08-12T09:10:14Z</time>
      </trkpt>
      <trkpt lat="47.92618" lon="-3.89948">
        <ele>85.4</ele>
        <time>2021-08-12T09:10:15Z</time>
      </trkpt>
      <trkpt lat="47.92612" lon="-3.89951">
        <ele>85.2</ele>
        <time>2021-08-12T09:10:16Z</time>
      </trkpt>
      <trkpt lat="47.92605" lon="-3.89956">
        <ele>84.8</ele>
        <time>2021-08-12T09:10:17Z</time>
      </trkpt>
      <trkpt lat="47.92599" lon="-3.89961">
        <ele>84.6</ele>
        <time>2021-08-12T09:10:18Z</time>
      </trkpt>
      <trkpt lat="47.92592" lon="-3.89965">
        <ele>84.6</ele>
        <time>2021-08-12T09:10:19Z</time>
      </trkpt>
      <trkpt lat="47.92585" lon="-3.8997">
        <ele>84.2</ele>
        <time>2021-08-12T09:10:20Z</time>
      </trkpt>
      <trkpt lat="47.92579" lon="-3.89975">
        <ele>84.2</ele>
        <time>2021-08-12T09:10:21Z</time>
      </trkpt>
      <trkpt lat="47.92572" lon="-3.8998">
        <ele>84</ele>
        <time>2021-08-12T09:10:22Z</time>
      </trkpt>
      <trkpt lat="47.92565" lon="-3.89985">
        <ele>84</ele>
        <time>2021-08-12T09:10:23Z</time>
      </trkpt>
      <trkpt lat="47.92558" lon="-3.89989">
        <ele>83.8</ele>
        <time>2021-08-12T09:10:24Z</time>
      </trkpt>
      <trkpt lat="47.92551" lon="-3.89994">
        <ele>83.6</ele>
        <time>2021-08-12T09:10:25Z</time>
      </trkpt>
      <trkpt lat="47.92544" lon="-3.89998">
        <ele>83.4</ele>
        <time>2021-08-12T09:10:26Z</time>
      </trkpt>
      <trkpt lat="47.92537" lon="-3.90003">
        <ele>83.2</ele>
        <time>2021-08-12T09:10:27Z</time>
      </trkpt>
      <trkpt lat="47.9253" lon="-3.90007">
        <ele>82.8</ele>
        <time>2021-08-12T09:10:28Z</time>
      </trkpt>
      <trkpt lat="47.92524" lon="-3.90012">
        <ele>82.6</ele>
        <time>2021-08-12T09:10:29Z</time>
      </trkpt>
      <trkpt lat="47.92517" lon="-3.90017">
        <ele>82.2</ele>
        <time>2021-08-12T09:10:30Z</time>
      </trkpt>
      <trkpt lat="47.92511" lon="-3.90021">
        <ele>82</ele>
        <time>2021-08-12T09:10:31Z</time>
      </trkpt>
      <trkpt lat="47.92498" lon="-3.9003">
        <ele>81.6</ele>
        <time>2021-08-12T09:10:33Z</time>
      </trkpt>
      <trkpt lat="47.92492" lon="-3.90034">
        <ele>81.2</ele>
        <time>2021-08-12T09:10:34Z</time>
      </trkpt>
      <trkpt lat="47.92485" lon="-3.90039">
        <ele>81</ele>
        <time>2021-08-12T09:10:35Z</time>
      </trkpt>
      <trkpt lat="47.92479" lon="-3.90043">
        <ele>80.8</ele>
        <time>2021-08-12T09:10:36Z</time>
      </trkpt>
      <trkpt lat="47.92473" lon="-3.90047">
        <ele>80.8</ele>
        <time>2021-08-12T09:10:37Z</time>
      </trkpt>
      <trkpt lat="47.92467" lon="-3.90052">
        <ele>80.8</ele>
        <time>2021-08-12T09:10:38Z</time>
      </trkpt>
      <trkpt lat="47.92461" lon="-3.90056">
        <ele>80.6</ele>
        <time>2021-08-12T09:10:39Z</time>
      </trkpt>
      <trkpt lat="47.92454" lon="-3.90061">
        <ele>80.6</ele>
        <time>2021-08-12T09:10:40Z</time>
      </trkpt>
      <trkpt lat="47.92448" lon="-3.90065">
        <ele>80.6</ele>
        <time>2021-08-12T09:10:41Z</time>
      </trkpt>
      <trkpt lat="47.92442" lon="-3.90069">
        <ele>80.4</ele>
        <time>2021-08-12T09:10:42Z</time>
      </trkpt>
      <trkpt lat="47.92436" lon="-3.90073">
        <ele>80.2</ele>
        <time>2021-08-12T09:10:43Z</time>
      </trkpt>
      <trkpt lat="47.9243" lon="-3.90078">
        <ele>80</ele>
        <time>2021-08-12T09:10:44Z</time>
      </trkpt>
      <trkpt lat="47.92425" lon="-3.90082">
        <ele>79.8</ele>
        <time>2021-08-12T09:10:45Z</time>
      </trkpt>
      <trkpt lat="47.92419" lon="-3.90086">
        <ele>79.6</ele>
        <time>2021-08-12T09:10:46Z</time>
      </trkpt>
      <trkpt lat="47.92413" lon="-3.9009">
        <ele>79.6</ele>
        <time>2021-08-12T09:10:47Z</time>
      </trkpt>
      <trkpt lat="47.92407" lon="-3.90094">
        <ele>79.4</ele>
        <time>2021-08-12T09:10:48Z</time>
      </trkpt>
      <trkpt lat="47.92402" lon="-3.90098">
        <ele>79.4</ele>
        <time>2021-08-12T09:10:49Z</time>
      </trkpt>
      <trkpt lat="47.92396" lon="-3.90102">
        <ele>79.2</ele>
        <time>2021-08-12T09:10:50Z</time>
      </trkpt>
      <trkpt lat="47.92391" lon="-3.90106">
        <ele>79.2</ele>
        <time>2021-08-12T09:10:51Z</time>
      </trkpt>
      <trkpt lat="47.92385" lon="-3.90111">
        <ele>79</ele>
        <time>2021-08-12T09:10:52Z</time>
      </trkpt>
      <trkpt lat="47.92379" lon="-3.90115">
        <ele>78.8</ele>
        <time>2021-08-12T09:10:53Z</time>
      </trkpt>
      <trkpt lat="47.92372" lon="-3.90119">
        <ele>78.6</ele>
        <time>2021-08-12T09:10:54Z</time>
      </trkpt>
      <trkpt lat="47.92365" lon="-3.90123">
        <ele>78.6</ele>
        <time>2021-08-12T09:10:55Z</time>
      </trkpt>
      <trkpt lat="47.92359" lon="-3.90127">
        <ele>78.6</ele>
        <time>2021-08-12T09:10:56Z</time>
      </trkpt>
      <trkpt lat="47.92352" lon="-3.90132">
        <ele>78.6</ele>
        <time>2021-08-12T09:10:57Z</time>
      </trkpt>
      <trkpt lat="47.92345" lon="-3.90136">
        <ele>78.4</ele>
        <time>2021-08-12T09:10:58Z</time>
      </trkpt>
      <trkpt lat="47.92338" lon="-3.9014">
        <ele>78.4</ele>
        <time>2021-08-12T09:10:59Z</time>
      </trkpt>
      <trkpt lat="47.92331" lon="-3.90145">
        <ele>78.4</ele>
        <time>2021-08-12T09:11:00Z</time>
      </trkpt>
      <trkpt lat="47.92325" lon="-3.90149">
        <ele>78.4</ele>
        <time>2021-08-12T09:11:01Z</time>
      </trkpt>
      <trkpt lat="47.92318" lon="-3.90153">
        <ele>78.4</ele>
        <time>2021-08-12T09:11:02Z</time>
      </trkpt>
      <trkpt lat="47.92312" lon="-3.90157">
        <ele>78.4</ele>
        <time>2021-08-12T09:11:03Z</time>
      </trkpt>
      <trkpt lat="47.92305" lon="-3.90161">
        <ele>78.4</ele>
        <time>2021-08-12T09:11:04Z</time>
      </trkpt>
      <trkpt lat="47.92293" lon="-3.9017">
        <ele>78.4</ele>
        <time>2021-08-12T09:11:06Z</time>
      </trkpt>
      <trkpt lat="47.92287" lon="-3.90174">
        <ele>78.4</ele>
        <time>2021-08-12T09:11:07Z</time>
      </trkpt>
      <trkpt lat="47.9228" lon="-3.90178">
        <ele>78.2</ele>
        <time>2021-08-12T09:11:08Z</time>
      </trkpt>
      <trkpt lat="47.92275" lon="-3.90181">
        <ele>78.4</ele>
        <time>2021-08-12T09:11:09Z</time>
      </trkpt>
      <trkpt lat="47.92269" lon="-3.90185">
        <ele>78.6</ele>
        <time>2021-08-12T09:11:10Z</time>
      </trkpt>
      <trkpt lat="47.92263" lon="-3.90189">
        <ele>78.6</ele>
        <time>2021-08-12T09:11:11Z</time>
      </trkpt>
      <trkpt lat="47.92258" lon="-3.90192">
        <ele>78.6</ele>
        <time>2021-08-12T09:11:12Z</time>
      </trkpt>
      <trkpt lat="47.92252" lon="-3.90196">
        <ele>78.4</ele>
        <time>2021-08-12T09:11:13Z</time>
      </trkpt>
      <trkpt lat="47.92247" lon="-3.90199">
        <ele>78.4</ele>
        <time>2021-08-12T09:11:14Z</time>
      </trkpt>
      <trkpt lat="47.92243" lon="-3.90203">
        <ele>78.4</ele>
        <time>2021-08-12T09:11:15Z</time>
      </trkpt>
      <trkpt lat="47.92233" lon="-3.9021">
        <ele>78.6</ele>
        <time>2021-08-12T09:11:17Z</time>
      </trkpt>
      <trkpt lat="47.92228" lon="-3.90213">
        <ele>78.6</ele>
        <time>2021-08-12T09:11:18Z</time>
      </trkpt>
      <trkpt lat="47.92224" lon="-3.90216">
        <ele>78.8</ele>
        <time>2021-08-12T09:11:19Z</time>
      </trkpt>
      <trkpt lat="47.92219" lon="-3.90219">
        <ele>78.8</ele>
        <time>2021-08-12T09:11:20Z</time>
      </trkpt>
      <trkpt lat="47.92214" lon="-3.90222">
        <ele>79</ele>
        <time>2021-08-12T09:11:21Z</time>
      </trkpt>
      <trkpt lat="47.9221" lon="-3.90225">
        <ele>79.2</ele>
        <time>2021-08-12T09:11:22Z</time>
      </trkpt>
      <trkpt lat="47.92205" lon="-3.90227">
        <ele>79.4</ele>
        <time>2021-08-12T09:11:23Z</time>
      </trkpt>
      <trkpt lat="47.922" lon="-3.9023">
        <ele>79.6</ele>
        <time>2021-08-12T09:11:24Z</time>
      </trkpt>
      <trkpt lat="47.92196" lon="-3.90233">
        <ele>79.6</ele>
        <time>2021-08-12T09:11:25Z</time>
      </trkpt>
      <trkpt lat="47.92192" lon="-3.90236">
        <ele>79.8</ele>
        <time>2021-08-12T09:11:26Z</time>
      </trkpt>
      <trkpt lat="47.92183" lon="-3.90242">
        <ele>80</ele>
        <time>2021-08-12T09:11:28Z</time>
      </trkpt>
      <trkpt lat="47.92179" lon="-3.90245">
        <ele>80.2</ele>
        <time>2021-08-12T09:11:29Z</time>
      </trkpt>
      <trkpt lat="47.92175" lon="-3.90247">
        <ele>80.4</ele>
        <time>2021-08-12T09:11:30Z</time>
      </trkpt>
      <trkpt lat="47.92171" lon="-3.9025">
        <ele>80.6</ele>
        <time>2021-08-12T09:11:31Z</time>
      </trkpt>
      <trkpt lat="47.92167" lon="-3.90252">
        <ele>80.8</ele>
        <time>2021-08-12T09:11:32Z</time>
      </trkpt>
      <trkpt lat="47.92163" lon="-3.90254">
        <ele>80.8</ele>
        <time>2021-08-12T09:11:33Z</time>
      </trkpt>
      <trkpt lat="47.92159" lon="-3.90257">
        <ele>80.8</ele>
        <time>2021-08-12T09:11:34Z</time>
      </trkpt>
      <trkpt lat="47.92155" lon="-3.9026">
        <ele>80.8</ele>
        <time>2021-08-12T09:11:35Z</time>
      </trkpt>
      <trkpt lat="47.92151" lon="-3.90262">
        <ele>80.8</ele>
        <time>2021-08-12T09:11:36Z</time>
      </trkpt>
      <trkpt lat="47.92147" lon="-3.90265">
        <ele>81</ele>
        <time>2021-08-12T09:11:37Z</time>
      </trkpt>
      <trkpt lat="47.92141" lon="-3.9027">
        <ele>81</ele>
        <time>2021-08-12T09:11:39Z</time>
      </trkpt>
      <trkpt lat="47.92138" lon="-3.90273">
        <ele>81</ele>
        <time>2021-08-12T09:11:40Z</time>
      </trkpt>
      <trkpt lat="47.92135" lon="-3.90275">
        <ele>81</ele>
        <time>2021-08-12T09:11:41Z</time>
      </trkpt>
      <trkpt lat="47.92133" lon="-3.90276">
        <ele>81</ele>
        <time>2021-08-12T09:11:42Z</time>
      </trkpt>
      <trkpt lat="47.9213" lon="-3.90276">
        <ele>81</ele>
        <time>2021-08-12T09:11:43Z</time>
      </trkpt>
      <trkpt lat="47.92128" lon="-3.90278">
        <ele>81.2</ele>
        <time>2021-08-12T09:11:44Z</time>
      </trkpt>
      <trkpt lat="47.92127" lon="-3.9028">
        <ele>81.4</ele>
        <time>2021-08-12T09:11:45Z</time>
      </trkpt>
      <trkpt lat="47.92126" lon="-3.90281">
        <ele>81.6</ele>
        <time>2021-08-12T09:11:46Z</time>
      </trkpt>
      <trkpt lat="47.92125" lon="-3.90281">
        <ele>81.6</ele>
        <time>2021-08-12T09:11:47Z</time>
      </trkpt>
      <trkpt lat="47.92125" lon="-3.9028">
        <ele>83.4</ele>
        <time>2021-08-12T09:12:00Z</time>
      </trkpt>
      <trkpt lat="47.92124" lon="-3.9028">
        <ele>83.4</ele>
        <time>2021-08-12T09:12:01Z</time>
      </trkpt>
      <trkpt lat="47.92123" lon="-3.90281">
        <ele>83.4</ele>
        <time>2021-08-12T09:12:02Z</time>
      </trkpt>
      <trkpt lat="47.92122" lon="-3.90281">
        <ele>83.4</ele>
        <time>2021-08-12T09:12:03Z</time>
      </trkpt>
      <trkpt lat="47.9212" lon="-3.90281">
        <ele>83.4</ele>
        <time>2021-08-12T09:12:04Z</time>
      </trkpt>
      <trkpt lat="47.92117" lon="-3.90283">
        <ele>83.4</ele>
        <time>2021-08-12T09:12:05Z</time>
      </trkpt>
      <trkpt lat="47.92115" lon="-3.90284">
        <ele>83.4</ele>
        <time>2021-08-12T09:12:06Z</time>
      </trkpt>
      <trkpt lat="47.92113" lon="-3.90286">
        <ele>83.4</ele>
        <time>2021-08-12T09:12:07Z</time>
      </trkpt>
      <trkpt lat="47.9211" lon="-3.90287">
        <ele>83.4</ele>
        <time>2021-08-12T09:12:08Z</time>
      </trkpt>
      <trkpt lat="47.92107" lon="-3.90289">
        <ele>83.4</ele>
        <time>2021-08-12T09:12:09Z</time>
      </trkpt>
      <trkpt lat="47.92105" lon="-3.9029">
        <ele>83.4</ele>
        <time>2021-08-12T09:12:10Z</time>
      </trkpt>
      <trkpt lat="47.92102" lon="-3.90293">
        <ele>83.2</ele>
        <time>2021-08-12T09:12:11Z</time>
      </trkpt>
      <trkpt lat="47.921" lon="-3.90295">
        <ele>83.2</ele>
        <time>2021-08-12T09:12:12Z</time>
      </trkpt>
      <trkpt lat="47.92097" lon="-3.90297">
        <ele>83.2</ele>
        <time>2021-08-12T09:12:13Z</time>
      </trkpt>
      <trkpt lat="47.92094" lon="-3.90298">
        <ele>83.2</ele>
        <time>2021-08-12T09:12:14Z</time>
      </trkpt>
      <trkpt lat="47.92091" lon="-3.903">
        <ele>83.2</ele>
        <time>2021-08-12T09:12:15Z</time>
      </trkpt>
      <trkpt lat="47.92089" lon="-3.90301">
        <ele>83.2</ele>
        <time>2021-08-12T09:12:16Z</time>
      </trkpt>
      <trkpt lat="47.92086" lon="-3.90303">
        <ele>83.2</ele>
        <time>2021-08-12T09:12:17Z</time>
      </trkpt>
      <trkpt lat="47.92083" lon="-3.90305">
        <ele>83.2</ele>
        <time>2021-08-12T09:12:18Z</time>
      </trkpt>
      <trkpt lat="47.9208" lon="-3.90307">
        <ele>83.2</ele>
        <time>2021-08-12T09:12:19Z</time>
      </trkpt>
      <trkpt lat="47.92076" lon="-3.90308">
        <ele>83.2</ele>
        <time>2021-08-12T09:12:20Z</time>
      </trkpt>
      <trkpt lat="47.92073" lon="-3.90309">
        <ele>83.2</ele>
        <time>2021-08-12T09:12:21Z</time>
      </trkpt>
      <trkpt lat="47.9207" lon="-3.90311">
        <ele>83.2</ele>
        <time>2021-08-12T09:12:22Z</time>
      </trkpt>
      <trkpt lat="47.92066" lon="-3.90313">
        <ele>83.2</ele>
        <time>2021-08-12T09:12:23Z</time>
      </trkpt>
      <trkpt lat="47.9206" lon="-3.90317">
        <ele>83</ele>
        <time>2021-08-12T09:12:25Z</time>
      </trkpt>
      <trkpt lat="47.92057" lon="-3.90318">
        <ele>83.2</ele>
        <time>2021-08-12T09:12:26Z</time>
      </trkpt>
      <trkpt lat="47.92053" lon="-3.9032">
        <ele>83.4</ele>
        <time>2021-08-12T09:12:27Z</time>
      </trkpt>
      <trkpt lat="47.9205" lon="-3.90322">
        <ele>83.6</ele>
        <time>2021-08-12T09:12:28Z</time>
      </trkpt>
      <trkpt lat="47.92047" lon="-3.90323">
        <ele>83.8</ele>
        <time>2021-08-12T09:12:29Z</time>
      </trkpt>
      <trkpt lat="47.92043" lon="-3.90325">
        <ele>83.8</ele>
        <time>2021-08-12T09:12:30Z</time>
      </trkpt>
      <trkpt lat="47.92041" lon="-3.90327">
        <ele>83.8</ele>
        <time>2021-08-12T09:12:31Z</time>
      </trkpt>
      <trkpt lat="47.92038" lon="-3.90328">
        <ele>83.8</ele>
        <time>2021-08-12T09:12:32Z</time>
      </trkpt>
      <trkpt lat="47.92034" lon="-3.90329">
        <ele>84</ele>
        <time>2021-08-12T09:12:33Z</time>
      </trkpt>
      <trkpt lat="47.92031" lon="-3.90331">
        <ele>84</ele>
        <time>2021-08-12T09:12:34Z</time>
      </trkpt>
      <trkpt lat="47.92028" lon="-3.90333">
        <ele>84</ele>
        <time>2021-08-12T09:12:35Z</time>
      </trkpt>
      <trkpt lat="47.92025" lon="-3.90334">
        <ele>84</ele>
        <time>2021-08-12T09:12:36Z</time>
      </trkpt>
      <trkpt lat="47.9202" lon="-3.90337">
        <ele>84</ele>
        <time>2021-08-12T09:12:37Z</time>
      </trkpt>
      <trkpt lat="47.92016" lon="-3.90339">
        <ele>84.2</ele>
        <time>2021-08-12T09:12:38Z</time>
      </trkpt>
      <trkpt lat="47.92012" lon="-3.90341">
        <ele>84.2</ele>
        <time>2021-08-12T09:12:39Z</time>
      </trkpt>
      <trkpt lat="47.92008" lon="-3.90343">
        <ele>84.2</ele>
        <time>2021-08-12T09:12:40Z</time>
      </trkpt>
      <trkpt lat="47.92005" lon="-3.90345">
        <ele>84.2</ele>
        <time>2021-08-12T09:12:41Z</time>
      </trkpt>
      <trkpt lat="47.92001" lon="-3.90347">
        <ele>84.4</ele>
        <time>2021-08-12T09:12:42Z</time>
      </trkpt>
      <trkpt lat="47.91997" lon="-3.90349">
        <ele>84.4</ele>
        <time>2021-08-12T09:12:43Z</time>
      </trkpt>
      <trkpt lat="47.91993" lon="-3.90351">
        <ele>84.6</ele>
        <time>2021-08-12T09:12:44Z</time>
      </trkpt>
      <trkpt lat="47.91988" lon="-3.90353">
        <ele>84.6</ele>
        <time>2021-08-12T09:12:45Z</time>
      </trkpt>
      <trkpt lat="47.9198" lon="-3.90356">
        <ele>84.6</ele>
        <time>2021-08-12T09:12:47Z</time>
      </trkpt>
      <trkpt lat="47.91976" lon="-3.90358">
        <ele>84.6</ele>
        <time>2021-08-12T09:12:48Z</time>
      </trkpt>
      <trkpt lat="47.91972" lon="-3.90361">
        <ele>84.6</ele>
        <time>2021-08-12T09:12:49Z</time>
      </trkpt>
      <trkpt lat="47.91968" lon="-3.90363">
        <ele>84.6</ele>
        <time>2021-08-12T09:12:50Z</time>
      </trkpt>
      <trkpt lat="47.91964" lon="-3.90365">
        <ele>84.6</ele>
        <time>2021-08-12T09:12:51Z</time>
      </trkpt>
      <trkpt lat="47.9196" lon="-3.90367">
        <ele>84.6</ele>
        <time>2021-08-12T09:12:52Z</time>
      </trkpt>
      <trkpt lat="47.91956" lon="-3.90369">
        <ele>84.6</ele>
        <time>2021-08-12T09:12:53Z</time>
      </trkpt>
      <trkpt lat="47.91951" lon="-3.90372">
        <ele>84.6</ele>
        <time>2021-08-12T09:12:54Z</time>
      </trkpt>
      <trkpt lat="47.91947" lon="-3.90374">
        <ele>84.6</ele>
        <time>2021-08-12T09:12:55Z</time>
      </trkpt>
      <trkpt lat="47.91943" lon="-3.90376">
        <ele>84.4</ele>
        <time>2021-08-12T09:12:56Z</time>
      </trkpt>
      <trkpt lat="47.91933" lon="-3.9038">
        <ele>84.6</ele>
        <time>2021-08-12T09:12:58Z</time>
      </trkpt>
      <trkpt lat="47.91929" lon="-3.90383">
        <ele>84.6</ele>
        <time>2021-08-12T09:12:59Z</time>
      </trkpt>
      <trkpt lat="47.91924" lon="-3.90386">
        <ele>84.6</ele>
        <time>2021-08-12T09:13:00Z</time>
      </trkpt>
      <trkpt lat="47.9192" lon="-3.90389">
        <ele>84.6</ele>
        <time>2021-08-12T09:13:01Z</time>
      </trkpt>
      <trkpt lat="47.91915" lon="-3.90391">
        <ele>84.6</ele>
        <time>2021-08-12T09:13:02Z</time>
      </trkpt>
      <trkpt lat="47.9191" lon="-3.90394">
        <ele>84.6</ele>
        <time>2021-08-12T09:13:03Z</time>
      </trkpt>
      <trkpt lat="47.91906" lon="-3.90397">
        <ele>84.6</ele>
        <time>2021-08-12T09:13:04Z</time>
      </trkpt>
      <trkpt lat="47.91901" lon="-3.90399">
        <ele>84.6</ele>
        <time>2021-08-12T09:13:05Z</time>
      </trkpt>
      <trkpt lat="47.91897" lon="-3.90402">
        <ele>84.6</ele>
        <time>2021-08-12T09:13:06Z</time>
      </trkpt>
      <trkpt lat="47.91892" lon="-3.90405">
        <ele>84.6</ele>
        <time>2021-08-12T09:13:07Z</time>
      </trkpt>
      <trkpt lat="47.91882" lon="-3.9041">
        <ele>84.6</ele>
        <time>2021-08-12T09:13:09Z</time>
      </trkpt>
      <trkpt lat="47.91878" lon="-3.90412">
        <ele>84.6</ele>
        <time>2021-08-12T09:13:10Z</time>
      </trkpt>
      <trkpt lat="47.91873" lon="-3.90415">
        <ele>84.6</ele>
        <time>2021-08-12T09:13:11Z</time>
      </trkpt>
      <trkpt lat="47.91868" lon="-3.90417">
        <ele>84.6</ele>
        <time>2021-08-12T09:13:12Z</time>
      </trkpt>
      <trkpt lat="47.91863" lon="-3.9042">
        <ele>84.6</ele>
        <time>2021-08-12T09:13:13Z</time>
      </trkpt>
      <trkpt lat="47.91859" lon="-3.90423">
        <ele>84.6</ele>
        <time>2021-08-12T09:13:14Z</time>
      </trkpt>
      <trkpt lat="47.91855" lon="-3.90425">
        <ele>84.6</ele>
        <time>2021-08-12T09:13:15Z</time>
      </trkpt>
      <trkpt lat="47.9185" lon="-3.90427">
        <ele>84.6</ele>
        <time>2021-08-12T09:13:16Z</time>
      </trkpt>
      <trkpt lat="47.91846" lon="-3.9043">
        <ele>84.6</ele>
        <time>2021-08-12T09:13:17Z</time>
      </trkpt>
      <trkpt lat="47.91841" lon="-3.90432">
        <ele>84.6</ele>
        <time>2021-08-12T09:13:18Z</time>
      </trkpt>
      <trkpt lat="47.91831" lon="-3.90437">
        <ele>84.6</ele>
        <time>2021-08-12T09:13:20Z</time>
      </trkpt>
      <trkpt lat="47.91827" lon="-3.90439">
        <ele>84.6</ele>
        <time>2021-08-12T09:13:21Z</time>
      </trkpt>
      <trkpt lat="47.91822" lon="-3.90442">
        <ele>84.4</ele>
        <time>2021-08-12T09:13:22Z</time>
      </trkpt>
      <trkpt lat="47.91817" lon="-3.90444">
        <ele>84.4</ele>
        <time>2021-08-12T09:13:23Z</time>
      </trkpt>
      <trkpt lat="47.91812" lon="-3.90447">
        <ele>84.4</ele>
        <time>2021-08-12T09:13:24Z</time>
      </trkpt>
      <trkpt lat="47.91807" lon="-3.90449">
        <ele>84.4</ele>
        <time>2021-08-12T09:13:25Z</time>
      </trkpt>
      <trkpt lat="47.91802" lon="-3.90451">
        <ele>84.4</ele>
        <time>2021-08-12T09:13:26Z</time>
      </trkpt>
      <trkpt lat="47.91798" lon="-3.90454">
        <ele>84.4</ele>
        <time>2021-08-12T09:13:27Z</time>
      </trkpt>
      <trkpt lat="47.91793" lon="-3.90457">
        <ele>84.4</ele>
        <time>2021-08-12T09:13:28Z</time>
      </trkpt>
      <trkpt lat="47.91788" lon="-3.90459">
        <ele>84.4</ele>
        <time>2021-08-12T09:13:29Z</time>
      </trkpt>
      <trkpt lat="47.91778" lon="-3.90465">
        <ele>84.2</ele>
        <time>2021-08-12T09:13:31Z</time>
      </trkpt>
      <trkpt lat="47.91773" lon="-3.90467">
        <ele>84.2</ele>
        <time>2021-08-12T09:13:32Z</time>
      </trkpt>
      <trkpt lat="47.91768" lon="-3.9047">
        <ele>84.2</ele>
        <time>2021-08-12T09:13:33Z</time>
      </trkpt>
      <trkpt lat="47.91763" lon="-3.90472">
        <ele>84.2</ele>
        <time>2021-08-12T09:13:34Z</time>
      </trkpt>
      <trkpt lat="47.91758" lon="-3.90475">
        <ele>84</ele>
        <time>2021-08-12T09:13:35Z</time>
      </trkpt>
      <trkpt lat="47.91753" lon="-3.90477">
        <ele>84.2</ele>
        <time>2021-08-12T09:13:36Z</time>
      </trkpt>
      <trkpt lat="47.91748" lon="-3.9048">
        <ele>84</ele>
        <time>2021-08-12T09:13:37Z</time>
      </trkpt>
      <trkpt lat="47.91742" lon="-3.90482">
        <ele>84</ele>
        <time>2021-08-12T09:13:38Z</time>
      </trkpt>
      <trkpt lat="47.91737" lon="-3.90485">
        <ele>83.8</ele>
        <time>2021-08-12T09:13:39Z</time>
      </trkpt>
      <trkpt lat="47.91732" lon="-3.90487">
        <ele>83.8</ele>
        <time>2021-08-12T09:13:40Z</time>
      </trkpt>
      <trkpt lat="47.91722" lon="-3.90492">
        <ele>83.8</ele>
        <time>2021-08-12T09:13:42Z</time>
      </trkpt>
      <trkpt lat="47.91716" lon="-3.90494">
        <ele>83.6</ele>
        <time>2021-08-12T09:13:43Z</time>
      </trkpt>
      <trkpt lat="47.91711" lon="-3.90495">
        <ele>83.6</ele>
        <time>2021-08-12T09:13:44Z</time>
      </trkpt>
      <trkpt lat="47.91706" lon="-3.90497">
        <ele>83.6</ele>
        <time>2021-08-12T09:13:45Z</time>
      </trkpt>
      <trkpt lat="47.91701" lon="-3.90499">
        <ele>83.6</ele>
        <time>2021-08-12T09:13:46Z</time>
      </trkpt>
      <trkpt lat="47.9169" lon="-3.90503">
        <ele>83.8</ele>
        <time>2021-08-12T09:13:48Z</time>
      </trkpt>
      <trkpt lat="47.91685" lon="-3.90504">
        <ele>83.8</ele>
        <time>2021-08-12T09:13:49Z</time>
      </trkpt>
      <trkpt lat="47.9168" lon="-3.90505">
        <ele>83.8</ele>
        <time>2021-08-12T09:13:50Z</time>
      </trkpt>
      <trkpt lat="47.91675" lon="-3.90507">
        <ele>83.8</ele>
        <time>2021-08-12T09:13:51Z</time>
      </trkpt>
      <trkpt lat="47.9167" lon="-3.90508">
        <ele>83.8</ele>
        <time>2021-08-12T09:13:52Z</time>
      </trkpt>
      <trkpt lat="47.9166" lon="-3.90511">
        <ele>83.8</ele>
        <time>2021-08-12T09:13:54Z</time>
      </trkpt>
      <trkpt lat="47.91655" lon="-3.90512">
        <ele>83.8</ele>
        <time>2021-08-12T09:13:55Z</time>
      </trkpt>
      <trkpt lat="47.9165" lon="-3.90513">
        <ele>83.8</ele>
        <time>2021-08-12T09:13:56Z</time>
      </trkpt>
      <trkpt lat="47.91645" lon="-3.90513">
        <ele>83.8</ele>
        <time>2021-08-12T09:13:57Z</time>
      </trkpt>
      <trkpt lat="47.9164" lon="-3.90514">
        <ele>83.8</ele>
        <time>2021-08-12T09:13:58Z</time>
      </trkpt>
      <trkpt lat="47.91635" lon="-3.90515">
        <ele>84</ele>
        <time>2021-08-12T09:13:59Z</time>
      </trkpt>
      <trkpt lat="47.9163" lon="-3.90515">
        <ele>84</ele>
        <time>2021-08-12T09:14:00Z</time>
      </trkpt>
      <trkpt lat="47.91625" lon="-3.90515">
        <ele>84</ele>
        <time>2021-08-12T09:14:01Z</time>
      </trkpt>
      <trkpt lat="47.91615" lon="-3.90516">
        <ele>84</ele>
        <time>2021-08-12T09:14:03Z</time>
      </trkpt>
      <trkpt lat="47.91603" lon="-3.90518">
        <ele>83.8</ele>
        <time>2021-08-12T09:14:05Z</time>
      </trkpt>
      <trkpt lat="47.91592" lon="-3.9052">
        <ele>83.8</ele>
        <time>2021-08-12T09:14:07Z</time>
      </trkpt>
      <trkpt lat="47.91581" lon="-3.90522">
        <ele>83.6</ele>
        <time>2021-08-12T09:14:09Z</time>
      </trkpt>
      <trkpt lat="47.91571" lon="-3.90524">
        <ele>83.6</ele>
        <time>2021-08-12T09:14:11Z</time>
      </trkpt>
      <trkpt lat="47.9156" lon="-3.90527">
        <ele>83.6</ele>
        <time>2021-08-12T09:14:13Z</time>
      </trkpt>
      <trkpt lat="47.91549" lon="-3.90528">
        <ele>83.6</ele>
        <time>2021-08-12T09:14:15Z</time>
      </trkpt>
      <trkpt lat="47.91543" lon="-3.90528">
        <ele>83.6</ele>
        <time>2021-08-12T09:14:16Z</time>
      </trkpt>
      <trkpt lat="47.91538" lon="-3.90529">
        <ele>83.6</ele>
        <time>2021-08-12T09:14:17Z</time>
      </trkpt>
      <trkpt lat="47.91527" lon="-3.90531">
        <ele>83.6</ele>
        <time>2021-08-12T09:14:19Z</time>
      </trkpt>
      <trkpt lat="47.91517" lon="-3.90534">
        <ele>83.6</ele>
        <time>2021-08-12T09:14:21Z</time>
      </trkpt>
      <trkpt lat="47.91507" lon="-3.90535">
        <ele>83.6</ele>
        <time>2021-08-12T09:14:23Z</time>
      </trkpt>
      <trkpt lat="47.91498" lon="-3.90536">
        <ele>83.6</ele>
        <time>2021-08-12T09:14:25Z</time>
      </trkpt>
      <trkpt lat="47.91488" lon="-3.90537">
        <ele>83.6</ele>
        <time>2021-08-12T09:14:27Z</time>
      </trkpt>
      <trkpt lat="47.91478" lon="-3.90539">
        <ele>84</ele>
        <time>2021-08-12T09:14:29Z</time>
      </trkpt>
      <trkpt lat="47.91468" lon="-3.90541">
        <ele>84</ele>
        <time>2021-08-12T09:14:31Z</time>
      </trkpt>
      <trkpt lat="47.91458" lon="-3.90543">
        <ele>84.2</ele>
        <time>2021-08-12T09:14:33Z</time>
      </trkpt>
      <trkpt lat="47.91448" lon="-3.90545">
        <ele>84.4</ele>
        <time>2021-08-12T09:14:35Z</time>
      </trkpt>
      <trkpt lat="47.91438" lon="-3.90547">
        <ele>84.6</ele>
        <time>2021-08-12T09:14:37Z</time>
      </trkpt>
      <trkpt lat="47.91433" lon="-3.90548">
        <ele>84.6</ele>
        <time>2021-08-12T09:14:38Z</time>
      </trkpt>
      <trkpt lat="47.91428" lon="-3.90549">
        <ele>84.6</ele>
        <time>2021-08-12T09:14:39Z</time>
      </trkpt>
      <trkpt lat="47.91419" lon="-3.90551">
        <ele>84.8</ele>
        <time>2021-08-12T09:14:41Z</time>
      </trkpt>
      <trkpt lat="47.91408" lon="-3.90553">
        <ele>85</ele>
        <time>2021-08-12T09:14:43Z</time>
      </trkpt>
      <trkpt lat="47.91397" lon="-3.90554">
        <ele>85</ele>
        <time>2021-08-12T09:14:45Z</time>
      </trkpt>
      <trkpt lat="47.91391" lon="-3.90555">
        <ele>85</ele>
        <time>2021-08-12T09:14:46Z</time>
      </trkpt>
      <trkpt lat="47.91386" lon="-3.90557">
        <ele>85.2</ele>
        <time>2021-08-12T09:14:47Z</time>
      </trkpt>
      <trkpt lat="47.91376" lon="-3.90558">
        <ele>85.4</ele>
        <time>2021-08-12T09:14:49Z</time>
      </trkpt>
      <trkpt lat="47.91365" lon="-3.90558">
        <ele>85.8</ele>
        <time>2021-08-12T09:14:51Z</time>
      </trkpt>
      <trkpt lat="47.9136" lon="-3.90558">
        <ele>86</ele>
        <time>2021-08-12T09:14:52Z</time>
      </trkpt>
      <trkpt lat="47.91354" lon="-3.90559">
        <ele>86.2</ele>
        <time>2021-08-12T09:14:53Z</time>
      </trkpt>
      <trkpt lat="47.91342" lon="-3.9056">
        <ele>86.4</ele>
        <time>2021-08-12T09:14:55Z</time>
      </trkpt>
      <trkpt lat="47.91336" lon="-3.90561">
        <ele>86.6</ele>
        <time>2021-08-12T09:14:56Z</time>
      </trkpt>
      <trkpt lat="47.9133" lon="-3.90562">
        <ele>86.6</ele>
        <time>2021-08-12T09:14:57Z</time>
      </trkpt>
      <trkpt lat="47.91316" lon="-3.90565">
        <ele>86.8</ele>
        <time>2021-08-12T09:14:59Z</time>
      </trkpt>
      <trkpt lat="47.91304" lon="-3.90568">
        <ele>86.8</ele>
        <time>2021-08-12T09:15:01Z</time>
      </trkpt>
      <trkpt lat="47.91291" lon="-3.9057">
        <ele>87</ele>
        <time>2021-08-12T09:15:03Z</time>
      </trkpt>
      <trkpt lat="47.91279" lon="-3.90572">
        <ele>87</ele>
        <time>2021-08-12T09:15:05Z</time>
      </trkpt>
      <trkpt lat="47.91272" lon="-3.90574">
        <ele>87</ele>
        <time>2021-08-12T09:15:06Z</time>
      </trkpt>
      <trkpt lat="47.91266" lon="-3.90575">
        <ele>87</ele>
        <time>2021-08-12T09:15:07Z</time>
      </trkpt>
      <trkpt lat="47.91253" lon="-3.90579">
        <ele>87</ele>
        <time>2021-08-12T09:15:09Z</time>
      </trkpt>
      <trkpt lat="47.9124" lon="-3.90584">
        <ele>87.2</ele>
        <time>2021-08-12T09:15:11Z</time>
      </trkpt>
      <trkpt lat="47.91228" lon="-3.90589">
        <ele>87</ele>
        <time>2021-08-12T09:15:13Z</time>
      </trkpt>
      <trkpt lat="47.91216" lon="-3.90593">
        <ele>87</ele>
        <time>2021-08-12T09:15:15Z</time>
      </trkpt>
      <trkpt lat="47.91204" lon="-3.90597">
        <ele>87</ele>
        <time>2021-08-12T09:15:17Z</time>
      </trkpt>
      <trkpt lat="47.91192" lon="-3.90603">
        <ele>87</ele>
        <time>2021-08-12T09:15:19Z</time>
      </trkpt>
      <trkpt lat="47.9118" lon="-3.9061">
        <ele>87</ele>
        <time>2021-08-12T09:15:21Z</time>
      </trkpt>
      <trkpt lat="47.91169" lon="-3.90619">
        <ele>87</ele>
        <time>2021-08-12T09:15:23Z</time>
      </trkpt>
      <trkpt lat="47.91157" lon="-3.90626">
        <ele>86.8</ele>
        <time>2021-08-12T09:15:25Z</time>
      </trkpt>
      <trkpt lat="47.91145" lon="-3.90635">
        <ele>86.6</ele>
        <time>2021-08-12T09:15:27Z</time>
      </trkpt>
      <trkpt lat="47.91133" lon="-3.90644">
        <ele>86.6</ele>
        <time>2021-08-12T09:15:29Z</time>
      </trkpt>
      <trkpt lat="47.91126" lon="-3.90649">
        <ele>86.4</ele>
        <time>2021-08-12T09:15:30Z</time>
      </trkpt>
      <trkpt lat="47.9112" lon="-3.90654">
        <ele>86.4</ele>
        <time>2021-08-12T09:15:31Z</time>
      </trkpt>
      <trkpt lat="47.91108" lon="-3.90665">
        <ele>86.2</ele>
        <time>2021-08-12T09:15:33Z</time>
      </trkpt>
      <trkpt lat="47.91096" lon="-3.90676">
        <ele>86</ele>
        <time>2021-08-12T09:15:35Z</time>
      </trkpt>
      <trkpt lat="47.91082" lon="-3.90688">
        <ele>85.6</ele>
        <time>2021-08-12T09:15:37Z</time>
      </trkpt>
      <trkpt lat="47.91075" lon="-3.90694">
        <ele>85</ele>
        <time>2021-08-12T09:15:38Z</time>
      </trkpt>
      <trkpt lat="47.91068" lon="-3.907">
        <ele>84.6</ele>
        <time>2021-08-12T09:15:39Z</time>
      </trkpt>
      <trkpt lat="47.91055" lon="-3.90711">
        <ele>84.2</ele>
        <time>2021-08-12T09:15:41Z</time>
      </trkpt>
      <trkpt lat="47.91048" lon="-3.90717">
        <ele>84</ele>
        <time>2021-08-12T09:15:42Z</time>
      </trkpt>
      <trkpt lat="47.91041" lon="-3.90723">
        <ele>83.8</ele>
        <time>2021-08-12T09:15:43Z</time>
      </trkpt>
      <trkpt lat="47.91028" lon="-3.90734">
        <ele>83.8</ele>
        <time>2021-08-12T09:15:45Z</time>
      </trkpt>
      <trkpt lat="47.91017" lon="-3.90745">
        <ele>83.6</ele>
        <time>2021-08-12T09:15:47Z</time>
      </trkpt>
      <trkpt lat="47.91005" lon="-3.90757">
        <ele>83.6</ele>
        <time>2021-08-12T09:15:49Z</time>
      </trkpt>
      <trkpt lat="47.90994" lon="-3.90767">
        <ele>83.2</ele>
        <time>2021-08-12T09:15:51Z</time>
      </trkpt>
      <trkpt lat="47.90984" lon="-3.90776">
        <ele>83.2</ele>
        <time>2021-08-12T09:15:53Z</time>
      </trkpt>
      <trkpt lat="47.90977" lon="-3.90781">
        <ele>83.2</ele>
        <time>2021-08-12T09:15:55Z</time>
      </trkpt>
      <trkpt lat="47.90968" lon="-3.90785">
        <ele>83.2</ele>
        <time>2021-08-12T09:15:57Z</time>
      </trkpt>
      <trkpt lat="47.9096" lon="-3.90785">
        <ele>83.2</ele>
        <time>2021-08-12T09:15:59Z</time>
      </trkpt>
      <trkpt lat="47.90956" lon="-3.90787">
        <ele>83.2</ele>
        <time>2021-08-12T09:16:00Z</time>
      </trkpt>
      <trkpt lat="47.90954" lon="-3.90791">
        <ele>83.2</ele>
        <time>2021-08-12T09:16:01Z</time>
      </trkpt>
      <trkpt lat="47.90953" lon="-3.90795">
        <ele>83.2</ele>
        <time>2021-08-12T09:16:02Z</time>
      </trkpt>
      <trkpt lat="47.90951" lon="-3.90799">
        <ele>83.4</ele>
        <time>2021-08-12T09:16:03Z</time>
      </trkpt>
      <trkpt lat="47.90949" lon="-3.90804">
        <ele>83.6</ele>
        <time>2021-08-12T09:16:04Z</time>
      </trkpt>
      <trkpt lat="47.90946" lon="-3.90807">
        <ele>83.6</ele>
        <time>2021-08-12T09:16:05Z</time>
      </trkpt>
      <trkpt lat="47.90939" lon="-3.90811">
        <ele>83.8</ele>
        <time>2021-08-12T09:16:07Z</time>
      </trkpt>
      <trkpt lat="47.90933" lon="-3.90818">
        <ele>83.8</ele>
        <time>2021-08-12T09:16:09Z</time>
      </trkpt>
      <trkpt lat="47.90926" lon="-3.90825">
        <ele>83.8</ele>
        <time>2021-08-12T09:16:11Z</time>
      </trkpt>
      <trkpt lat="47.90918" lon="-3.90832">
        <ele>83.8</ele>
        <time>2021-08-12T09:16:13Z</time>
      </trkpt>
      <trkpt lat="47.90909" lon="-3.90839">
        <ele>83.8</ele>
        <time>2021-08-12T09:16:15Z</time>
      </trkpt>
      <trkpt lat="47.90901" lon="-3.90846">
        <ele>83.8</ele>
        <time>2021-08-12T09:16:17Z</time>
      </trkpt>
      <trkpt lat="47.90892" lon="-3.90853">
        <ele>83.6</ele>
        <time>2021-08-12T09:16:19Z</time>
      </trkpt>
      <trkpt lat="47.90888" lon="-3.90857">
        <ele>83.6</ele>
        <time>2021-08-12T09:16:20Z</time>
      </trkpt>
      <trkpt lat="47.90884" lon="-3.90861">
        <ele>83.4</ele>
        <time>2021-08-12T09:16:21Z</time>
      </trkpt>
      <trkpt lat="47.90876" lon="-3.90868">
        <ele>83</ele>
        <time>2021-08-12T09:16:23Z</time>
      </trkpt>
      <trkpt lat="47.90868" lon="-3.90875">
        <ele>82.8</ele>
        <time>2021-08-12T09:16:25Z</time>
      </trkpt>
      <trkpt lat="47.9086" lon="-3.90882">
        <ele>82.6</ele>
        <time>2021-08-12T09:16:27Z</time>
      </trkpt>
      <trkpt lat="47.90856" lon="-3.90886">
        <ele>82.6</ele>
        <time>2021-08-12T09:16:28Z</time>
      </trkpt>
      <trkpt lat="47.90852" lon="-3.90889">
        <ele>82.4</ele>
        <time>2021-08-12T09:16:29Z</time>
      </trkpt>
      <trkpt lat="47.90844" lon="-3.90896">
        <ele>82.2</ele>
        <time>2021-08-12T09:16:31Z</time>
      </trkpt>
      <trkpt lat="47.90836" lon="-3.90903">
        <ele>82.2</ele>
        <time>2021-08-12T09:16:33Z</time>
      </trkpt>
      <trkpt lat="47.90828" lon="-3.9091">
        <ele>82</ele>
        <time>2021-08-12T09:16:35Z</time>
      </trkpt>
      <trkpt lat="47.9082" lon="-3.90917">
        <ele>82</ele>
        <time>2021-08-12T09:16:37Z</time>
      </trkpt>
      <trkpt lat="47.90812" lon="-3.90923">
        <ele>82</ele>
        <time>2021-08-12T09:16:39Z</time>
      </trkpt>
      <trkpt lat="47.90805" lon="-3.9093">
        <ele>82</ele>
        <time>2021-08-12T09:16:41Z</time>
      </trkpt>
      <trkpt lat="47.90798" lon="-3.90937">
        <ele>81.8</ele>
        <time>2021-08-12T09:16:43Z</time>
      </trkpt>
      <trkpt lat="47.90794" lon="-3.9094">
        <ele>81.8</ele>
        <time>2021-08-12T09:16:44Z</time>
      </trkpt>
      <trkpt lat="47.9079" lon="-3.90942">
        <ele>81.6</ele>
        <time>2021-08-12T09:16:45Z</time>
      </trkpt>
      <trkpt lat="47.90783" lon="-3.90948">
        <ele>81.6</ele>
        <time>2021-08-12T09:16:47Z</time>
      </trkpt>
      <trkpt lat="47.9078" lon="-3.90952">
        <ele>81.6</ele>
        <time>2021-08-12T09:16:48Z</time>
      </trkpt>
      <trkpt lat="47.90776" lon="-3.90955">
        <ele>81.4</ele>
        <time>2021-08-12T09:16:49Z</time>
      </trkpt>
      <trkpt lat="47.90772" lon="-3.90958">
        <ele>81.4</ele>
        <time>2021-08-12T09:16:50Z</time>
      </trkpt>
      <trkpt lat="47.90768" lon="-3.90962">
        <ele>81.2</ele>
        <time>2021-08-12T09:16:51Z</time>
      </trkpt>
      <trkpt lat="47.90764" lon="-3.90965">
        <ele>81.2</ele>
        <time>2021-08-12T09:16:52Z</time>
      </trkpt>
      <trkpt lat="47.9076" lon="-3.90969">
        <ele>81.2</ele>
        <time>2021-08-12T09:16:53Z</time>
      </trkpt>
      <trkpt lat="47.90756" lon="-3.90973">
        <ele>81.2</ele>
        <time>2021-08-12T09:16:54Z</time>
      </trkpt>
      <trkpt lat="47.90751" lon="-3.90977">
        <ele>81</ele>
        <time>2021-08-12T09:16:55Z</time>
      </trkpt>
      <trkpt lat="47.90741" lon="-3.90985">
        <ele>81</ele>
        <time>2021-08-12T09:16:57Z</time>
      </trkpt>
      <trkpt lat="47.90737" lon="-3.90989">
        <ele>81</ele>
        <time>2021-08-12T09:16:58Z</time>
      </trkpt>
      <trkpt lat="47.90732" lon="-3.90992">
        <ele>81</ele>
        <time>2021-08-12T09:16:59Z</time>
      </trkpt>
      <trkpt lat="47.90727" lon="-3.90997">
        <ele>80.8</ele>
        <time>2021-08-12T09:17:00Z</time>
      </trkpt>
      <trkpt lat="47.90723" lon="-3.91001">
        <ele>80.6</ele>
        <time>2021-08-12T09:17:01Z</time>
      </trkpt>
      <trkpt lat="47.90718" lon="-3.91006">
        <ele>80.6</ele>
        <time>2021-08-12T09:17:02Z</time>
      </trkpt>
      <trkpt lat="47.90714" lon="-3.9101">
        <ele>80.4</ele>
        <time>2021-08-12T09:17:03Z</time>
      </trkpt>
      <trkpt lat="47.90709" lon="-3.91014">
        <ele>80.2</ele>
        <time>2021-08-12T09:17:04Z</time>
      </trkpt>
      <trkpt lat="47.90705" lon="-3.91018">
        <ele>80</ele>
        <time>2021-08-12T09:17:05Z</time>
      </trkpt>
      <trkpt lat="47.907" lon="-3.91022">
        <ele>80</ele>
        <time>2021-08-12T09:17:06Z</time>
      </trkpt>
      <trkpt lat="47.9069" lon="-3.9103">
        <ele>79.6</ele>
        <time>2021-08-12T09:17:08Z</time>
      </trkpt>
      <trkpt lat="47.90685" lon="-3.91034">
        <ele>79.6</ele>
        <time>2021-08-12T09:17:09Z</time>
      </trkpt>
      <trkpt lat="47.90681" lon="-3.91039">
        <ele>79.4</ele>
        <time>2021-08-12T09:17:10Z</time>
      </trkpt>
      <trkpt lat="47.90676" lon="-3.91043">
        <ele>79.4</ele>
        <time>2021-08-12T09:17:11Z</time>
      </trkpt>
      <trkpt lat="47.90671" lon="-3.91047">
        <ele>79.4</ele>
        <time>2021-08-12T09:17:12Z</time>
      </trkpt>
      <trkpt lat="47.90666" lon="-3.91052">
        <ele>79.4</ele>
        <time>2021-08-12T09:17:13Z</time>
      </trkpt>
      <trkpt lat="47.90661" lon="-3.91056">
        <ele>79.2</ele>
        <time>2021-08-12T09:17:14Z</time>
      </trkpt>
      <trkpt lat="47.90656" lon="-3.9106">
        <ele>79.2</ele>
        <time>2021-08-12T09:17:15Z</time>
      </trkpt>
      <trkpt lat="47.90652" lon="-3.91064">
        <ele>78.6</ele>
        <time>2021-08-12T09:17:16Z</time>
      </trkpt>
      <trkpt lat="47.90647" lon="-3.91069">
        <ele>78.4</ele>
        <time>2021-08-12T09:17:17Z</time>
      </trkpt>
      <trkpt lat="47.90643" lon="-3.91073">
        <ele>78.4</ele>
        <time>2021-08-12T09:17:18Z</time>
      </trkpt>
      <trkpt lat="47.90638" lon="-3.91078">
        <ele>78.4</ele>
        <time>2021-08-12T09:17:19Z</time>
      </trkpt>
      <trkpt lat="47.90633" lon="-3.91082">
        <ele>78.2</ele>
        <time>2021-08-12T09:17:20Z</time>
      </trkpt>
      <trkpt lat="47.90628" lon="-3.91086">
        <ele>78.2</ele>
        <time>2021-08-12T09:17:21Z</time>
      </trkpt>
      <trkpt lat="47.90624" lon="-3.9109">
        <ele>78</ele>
        <time>2021-08-12T09:17:22Z</time>
      </trkpt>
      <trkpt lat="47.90619" lon="-3.91093">
        <ele>78</ele>
        <time>2021-08-12T09:17:23Z</time>
      </trkpt>
      <trkpt lat="47.90614" lon="-3.91097">
        <ele>78</ele>
        <time>2021-08-12T09:17:24Z</time>
      </trkpt>
      <trkpt lat="47.9061" lon="-3.91102">
        <ele>78</ele>
        <time>2021-08-12T09:17:25Z</time>
      </trkpt>
      <trkpt lat="47.90605" lon="-3.91106">
        <ele>77.8</ele>
        <time>2021-08-12T09:17:26Z</time>
      </trkpt>
      <trkpt lat="47.90601" lon="-3.9111">
        <ele>77.8</ele>
        <time>2021-08-12T09:17:27Z</time>
      </trkpt>
      <trkpt lat="47.90596" lon="-3.91114">
        <ele>77.8</ele>
        <time>2021-08-12T09:17:28Z</time>
      </trkpt>
      <trkpt lat="47.90587" lon="-3.91122">
        <ele>77.6</ele>
        <time>2021-08-12T09:17:30Z</time>
      </trkpt>
      <trkpt lat="47.90582" lon="-3.91126">
        <ele>77.6</ele>
        <time>2021-08-12T09:17:31Z</time>
      </trkpt>
      <trkpt lat="47.90578" lon="-3.9113">
        <ele>77.6</ele>
        <time>2021-08-12T09:17:32Z</time>
      </trkpt>
      <trkpt lat="47.90574" lon="-3.91135">
        <ele>77.6</ele>
        <time>2021-08-12T09:17:33Z</time>
      </trkpt>
      <trkpt lat="47.90569" lon="-3.91139">
        <ele>77.6</ele>
        <time>2021-08-12T09:17:34Z</time>
      </trkpt>
      <trkpt lat="47.90565" lon="-3.91143">
        <ele>77.4</ele>
        <time>2021-08-12T09:17:35Z</time>
      </trkpt>
      <trkpt lat="47.9056" lon="-3.91146">
        <ele>77.4</ele>
        <time>2021-08-12T09:17:36Z</time>
      </trkpt>
      <trkpt lat="47.90555" lon="-3.91149">
        <ele>77.4</ele>
        <time>2021-08-12T09:17:37Z</time>
      </trkpt>
      <trkpt lat="47.90551" lon="-3.91153">
        <ele>77.2</ele>
        <time>2021-08-12T09:17:38Z</time>
      </trkpt>
      <trkpt lat="47.90547" lon="-3.91157">
        <ele>77.2</ele>
        <time>2021-08-12T09:17:39Z</time>
      </trkpt>
      <trkpt lat="47.90542" lon="-3.91161">
        <ele>77</ele>
        <time>2021-08-12T09:17:40Z</time>
      </trkpt>
      <trkpt lat="47.90538" lon="-3.91165">
        <ele>76.8</ele>
        <time>2021-08-12T09:17:41Z</time>
      </trkpt>
      <trkpt lat="47.90534" lon="-3.91169">
        <ele>76.8</ele>
        <time>2021-08-12T09:17:42Z</time>
      </trkpt>
      <trkpt lat="47.90529" lon="-3.91173">
        <ele>76.8</ele>
        <time>2021-08-12T09:17:43Z</time>
      </trkpt>
      <trkpt lat="47.90524" lon="-3.91177">
        <ele>76.8</ele>
        <time>2021-08-12T09:17:44Z</time>
      </trkpt>
      <trkpt lat="47.9052" lon="-3.91181">
        <ele>76.6</ele>
        <time>2021-08-12T09:17:45Z</time>
      </trkpt>
      <trkpt lat="47.90515" lon="-3.91186">
        <ele>76.6</ele>
        <time>2021-08-12T09:17:46Z</time>
      </trkpt>
      <trkpt lat="47.90509" lon="-3.9119">
        <ele>76.6</ele>
        <time>2021-08-12T09:17:47Z</time>
      </trkpt>
      <trkpt lat="47.90504" lon="-3.91195">
        <ele>76.6</ele>
        <time>2021-08-12T09:17:48Z</time>
      </trkpt>
      <trkpt lat="47.90499" lon="-3.91199">
        <ele>76.4</ele>
        <time>2021-08-12T09:17:49Z</time>
      </trkpt>
      <trkpt lat="47.90494" lon="-3.91204">
        <ele>76.4</ele>
        <time>2021-08-12T09:17:50Z</time>
      </trkpt>
      <trkpt lat="47.90483" lon="-3.91213">
        <ele>76</ele>
        <time>2021-08-12T09:17:52Z</time>
      </trkpt>
      <trkpt lat="47.90478" lon="-3.91217">
        <ele>75.8</ele>
        <time>2021-08-12T09:17:53Z</time>
      </trkpt>
      <trkpt lat="47.90473" lon="-3.91222">
        <ele>75.8</ele>
        <time>2021-08-12T09:17:54Z</time>
      </trkpt>
      <trkpt lat="47.90468" lon="-3.91227">
        <ele>75.6</ele>
        <time>2021-08-12T09:17:55Z</time>
      </trkpt>
      <trkpt lat="47.90463" lon="-3.91231">
        <ele>75.2</ele>
        <time>2021-08-12T09:17:56Z</time>
      </trkpt>
      <trkpt lat="47.90458" lon="-3.91235">
        <ele>75</ele>
        <time>2021-08-12T09:17:57Z</time>
      </trkpt>
      <trkpt lat="47.90453" lon="-3.9124">
        <ele>74.6</ele>
        <time>2021-08-12T09:17:58Z</time>
      </trkpt>
      <trkpt lat="47.90447" lon="-3.91245">
        <ele>74.6</ele>
        <time>2021-08-12T09:17:59Z</time>
      </trkpt>
      <trkpt lat="47.90442" lon="-3.91249">
        <ele>74.4</ele>
        <time>2021-08-12T09:18:00Z</time>
      </trkpt>
      <trkpt lat="47.90436" lon="-3.91253">
        <ele>74.4</ele>
        <time>2021-08-12T09:18:01Z</time>
      </trkpt>
      <trkpt lat="47.90426" lon="-3.91263">
        <ele>74.4</ele>
        <time>2021-08-12T09:18:03Z</time>
      </trkpt>
      <trkpt lat="47.9042" lon="-3.91268">
        <ele>74.4</ele>
        <time>2021-08-12T09:18:04Z</time>
      </trkpt>
      <trkpt lat="47.90415" lon="-3.91273">
        <ele>74.2</ele>
        <time>2021-08-12T09:18:05Z</time>
      </trkpt>
      <trkpt lat="47.9041" lon="-3.91278">
        <ele>74.2</ele>
        <time>2021-08-12T09:18:06Z</time>
      </trkpt>
      <trkpt lat="47.90405" lon="-3.91283">
        <ele>74</ele>
        <time>2021-08-12T09:18:07Z</time>
      </trkpt>
      <trkpt lat="47.904" lon="-3.91288">
        <ele>74</ele>
        <time>2021-08-12T09:18:08Z</time>
      </trkpt>
      <trkpt lat="47.90394" lon="-3.91293">
        <ele>73.8</ele>
        <time>2021-08-12T09:18:09Z</time>
      </trkpt>
      <trkpt lat="47.90389" lon="-3.91297">
        <ele>73.8</ele>
        <time>2021-08-12T09:18:10Z</time>
      </trkpt>
      <trkpt lat="47.90384" lon="-3.91302">
        <ele>73.8</ele>
        <time>2021-08-12T09:18:11Z</time>
      </trkpt>
      <trkpt lat="47.90378" lon="-3.91307">
        <ele>73.8</ele>
        <time>2021-08-12T09:18:12Z</time>
      </trkpt>
      <trkpt lat="47.90368" lon="-3.91316">
        <ele>73.8</ele>
        <time>2021-08-12T09:18:14Z</time>
      </trkpt>
      <trkpt lat="47.90362" lon="-3.9132">
        <ele>73.8</ele>
        <time>2021-08-12T09:18:15Z</time>
      </trkpt>
      <trkpt lat="47.90357" lon="-3.91325">
        <ele>73.6</ele>
        <time>2021-08-12T09:18:16Z</time>
      </trkpt>
      <trkpt lat="47.90352" lon="-3.91329">
        <ele>73.6</ele>
        <time>2021-08-12T09:18:17Z</time>
      </trkpt>
      <trkpt lat="47.90347" lon="-3.91334">
        <ele>73.6</ele>
        <time>2021-08-12T09:18:18Z</time>
      </trkpt>
      <trkpt lat="47.90342" lon="-3.91338">
        <ele>73.6</ele>
        <time>2021-08-12T09:18:19Z</time>
      </trkpt>
      <trkpt lat="47.90337" lon="-3.91343">
        <ele>73.4</ele>
        <time>2021-08-12T09:18:20Z</time>
      </trkpt>
      <trkpt lat="47.90332" lon="-3.91347">
        <ele>73.4</ele>
        <time>2021-08-12T09:18:21Z</time>
      </trkpt>
      <trkpt lat="47.90327" lon="-3.91351">
        <ele>73.4</ele>
        <time>2021-08-12T09:18:22Z</time>
      </trkpt>
      <trkpt lat="47.90322" lon="-3.91355">
        <ele>73.4</ele>
        <time>2021-08-12T09:18:23Z</time>
      </trkpt>
      <trkpt lat="47.90314" lon="-3.91362">
        <ele>73.8</ele>
        <time>2021-08-12T09:18:25Z</time>
      </trkpt>
      <trkpt lat="47.90311" lon="-3.91365">
        <ele>73.8</ele>
        <time>2021-08-12T09:18:26Z</time>
      </trkpt>
      <trkpt lat="47.90309" lon="-3.91367">
        <ele>73.8</ele>
        <time>2021-08-12T09:18:27Z</time>
      </trkpt>
      <trkpt lat="47.90308" lon="-3.91368">
        <ele>73.8</ele>
        <time>2021-08-12T09:18:28Z</time>
      </trkpt>
      <trkpt lat="47.90306" lon="-3.91369">
        <ele>73.8</ele>
        <time>2021-08-12T09:18:29Z</time>
      </trkpt>
      <trkpt lat="47.90306" lon="-3.9137">
        <ele>73.8</ele>
        <time>2021-08-12T09:18:30Z</time>
      </trkpt>
      <trkpt lat="47.90305" lon="-3.9137">
        <ele>73.8</ele>
        <time>2021-08-12T09:18:31Z</time>
      </trkpt>
      <trkpt lat="47.90304" lon="-3.91371">
        <ele>74.4</ele>
        <time>2021-08-12T09:18:33Z</time>
      </trkpt>
      <trkpt lat="47.90304" lon="-3.91371">
        <ele>74.6</ele>
        <time>2021-08-12T09:18:34Z</time>
      </trkpt>
      <trkpt lat="47.90303" lon="-3.91371">
        <ele>74.8</ele>
        <time>2021-08-12T09:18:35Z</time>
      </trkpt>
      <trkpt lat="47.90303" lon="-3.91371">
        <ele>75</ele>
        <time>2021-08-12T09:18:38Z</time>
      </trkpt>
      <trkpt lat="47.90302" lon="-3.91372">
        <ele>75.2</ele>
        <time>2021-08-12T09:18:39Z</time>
      </trkpt>
      <trkpt lat="47.90302" lon="-3.91372">
        <ele>75.2</ele>
        <time>2021-08-12T09:18:40Z</time>
      </trkpt>
      <trkpt lat="47.90301" lon="-3.91373">
        <ele>75.2</ele>
        <time>2021-08-12T09:18:41Z</time>
      </trkpt>
      <trkpt lat="47.903" lon="-3.91374">
        <ele>75.2</ele>
        <time>2021-08-12T09:18:42Z</time>
      </trkpt>
      <trkpt lat="47.90295" lon="-3.91376">
        <ele>75.2</ele>
        <time>2021-08-12T09:18:45Z</time>
      </trkpt>
      <trkpt lat="47.90293" lon="-3.91377">
        <ele>75.2</ele>
        <time>2021-08-12T09:18:46Z</time>
      </trkpt>
      <trkpt lat="47.9029" lon="-3.9138">
        <ele>75.2</ele>
        <time>2021-08-12T09:18:47Z</time>
      </trkpt>
      <trkpt lat="47.90288" lon="-3.91382">
        <ele>75.2</ele>
        <time>2021-08-12T09:18:48Z</time>
      </trkpt>
      <trkpt lat="47.90282" lon="-3.91385">
        <ele>75.2</ele>
        <time>2021-08-12T09:18:50Z</time>
      </trkpt>
      <trkpt lat="47.90279" lon="-3.91385">
        <ele>75.2</ele>
        <time>2021-08-12T09:18:51Z</time>
      </trkpt>
      <trkpt lat="47.90277" lon="-3.91385">
        <ele>75.2</ele>
        <time>2021-08-12T09:18:52Z</time>
      </trkpt>
      <trkpt lat="47.90275" lon="-3.91386">
        <ele>75.2</ele>
        <time>2021-08-12T09:18:53Z</time>
      </trkpt>
      <trkpt lat="47.90274" lon="-3.91386">
        <ele>75.4</ele>
        <time>2021-08-12T09:19:17Z</time>
      </trkpt>
      <trkpt lat="47.90274" lon="-3.91387">
        <ele>75.4</ele>
        <time>2021-08-12T09:19:18Z</time>
      </trkpt>
      <trkpt lat="47.90272" lon="-3.91389">
        <ele>75.4</ele>
        <time>2021-08-12T09:19:20Z</time>
      </trkpt>
      <trkpt lat="47.90269" lon="-3.91392">
        <ele>75.4</ele>
        <time>2021-08-12T09:19:22Z</time>
      </trkpt>
      <trkpt lat="47.90268" lon="-3.91394">
        <ele>75.4</ele>
        <time>2021-08-12T09:19:23Z</time>
      </trkpt>
      <trkpt lat="47.90266" lon="-3.91398">
        <ele>75.4</ele>
        <time>2021-08-12T09:19:24Z</time>
      </trkpt>
      <trkpt lat="47.90264" lon="-3.91401">
        <ele>75.4</ele>
        <time>2021-08-12T09:19:25Z</time>
      </trkpt>
      <trkpt lat="47.90261" lon="-3.91407">
        <ele>75.4</ele>
        <time>2021-08-12T09:19:27Z</time>
      </trkpt>
      <trkpt lat="47.90259" lon="-3.91408">
        <ele>75.4</ele>
        <time>2021-08-12T09:19:28Z</time>
      </trkpt>
      <trkpt lat="47.90257" lon="-3.91408">
        <ele>75.4</ele>
        <time>2021-08-12T09:19:29Z</time>
      </trkpt>
      <trkpt lat="47.90254" lon="-3.91409">
        <ele>75.4</ele>
        <time>2021-08-12T09:19:30Z</time>
      </trkpt>
      <trkpt lat="47.90252" lon="-3.91411">
        <ele>75.4</ele>
        <time>2021-08-12T09:19:31Z</time>
      </trkpt>
      <trkpt lat="47.9025" lon="-3.91414">
        <ele>75.2</ele>
        <time>2021-08-12T09:19:32Z</time>
      </trkpt>
      <trkpt lat="47.90248" lon="-3.91417">
        <ele>75.2</ele>
        <time>2021-08-12T09:19:33Z</time>
      </trkpt>
      <trkpt lat="47.90245" lon="-3.9142">
        <ele>75.2</ele>
        <time>2021-08-12T09:19:34Z</time>
      </trkpt>
      <trkpt lat="47.90241" lon="-3.91423">
        <ele>75</ele>
        <time>2021-08-12T09:19:35Z</time>
      </trkpt>
      <trkpt lat="47.90238" lon="-3.91426">
        <ele>75</ele>
        <time>2021-08-12T09:19:36Z</time>
      </trkpt>
      <trkpt lat="47.90234" lon="-3.9143">
        <ele>74.8</ele>
        <time>2021-08-12T09:19:37Z</time>
      </trkpt>
      <trkpt lat="47.9023" lon="-3.91433">
        <ele>74.8</ele>
        <time>2021-08-12T09:19:38Z</time>
      </trkpt>
      <trkpt lat="47.90226" lon="-3.91437">
        <ele>74.8</ele>
        <time>2021-08-12T09:19:39Z</time>
      </trkpt>
      <trkpt lat="47.90222" lon="-3.91441">
        <ele>74.6</ele>
        <time>2021-08-12T09:19:40Z</time>
      </trkpt>
      <trkpt lat="47.90219" lon="-3.91445">
        <ele>74.6</ele>
        <time>2021-08-12T09:19:41Z</time>
      </trkpt>
      <trkpt lat="47.90215" lon="-3.91449">
        <ele>74.6</ele>
        <time>2021-08-12T09:19:42Z</time>
      </trkpt>
      <trkpt lat="47.9021" lon="-3.91453">
        <ele>74.4</ele>
        <time>2021-08-12T09:19:43Z</time>
      </trkpt>
      <trkpt lat="47.90206" lon="-3.91457">
        <ele>74.4</ele>
        <time>2021-08-12T09:19:44Z</time>
      </trkpt>
      <trkpt lat="47.90202" lon="-3.91461">
        <ele>74.4</ele>
        <time>2021-08-12T09:19:45Z</time>
      </trkpt>
      <trkpt lat="47.90198" lon="-3.91465">
        <ele>74.4</ele>
        <time>2021-08-12T09:19:46Z</time>
      </trkpt>
      <trkpt lat="47.90194" lon="-3.91469">
        <ele>74.4</ele>
        <time>2021-08-12T09:19:47Z</time>
      </trkpt>
      <trkpt lat="47.90186" lon="-3.91475">
        <ele>74.2</ele>
        <time>2021-08-12T09:19:49Z</time>
      </trkpt>
      <trkpt lat="47.90182" lon="-3.91478">
        <ele>74.2</ele>
        <time>2021-08-12T09:19:50Z</time>
      </trkpt>
      <trkpt lat="47.90179" lon="-3.91482">
        <ele>74.2</ele>
        <time>2021-08-12T09:19:51Z</time>
      </trkpt>
      <trkpt lat="47.90175" lon="-3.91485">
        <ele>74.2</ele>
        <time>2021-08-12T09:19:52Z</time>
      </trkpt>
      <trkpt lat="47.90172" lon="-3.91487">
        <ele>74</ele>
        <time>2021-08-12T09:19:53Z</time>
      </trkpt>
      <trkpt lat="47.90169" lon="-3.9149">
        <ele>74</ele>
        <time>2021-08-12T09:19:54Z</time>
      </trkpt>
      <trkpt lat="47.90166" lon="-3.91492">
        <ele>74</ele>
        <time>2021-08-12T09:19:55Z</time>
      </trkpt>
      <trkpt lat="47.90162" lon="-3.91495">
        <ele>74</ele>
        <time>2021-08-12T09:19:56Z</time>
      </trkpt>
      <trkpt lat="47.90159" lon="-3.91497">
        <ele>74</ele>
        <time>2021-08-12T09:19:57Z</time>
      </trkpt>
      <trkpt lat="47.90156" lon="-3.915">
        <ele>74</ele>
        <time>2021-08-12T09:19:58Z</time>
      </trkpt>
      <trkpt lat="47.90148" lon="-3.91505">
        <ele>74</ele>
        <time>2021-08-12T09:20:00Z</time>
      </trkpt>
      <trkpt lat="47.90143" lon="-3.91508">
        <ele>73.8</ele>
        <time>2021-08-12T09:20:01Z</time>
      </trkpt>
      <trkpt lat="47.90138" lon="-3.91511">
        <ele>73.8</ele>
        <time>2021-08-12T09:20:02Z</time>
      </trkpt>
      <trkpt lat="47.90132" lon="-3.91514">
        <ele>73.8</ele>
        <time>2021-08-12T09:20:03Z</time>
      </trkpt>
      <trkpt lat="47.90127" lon="-3.91517">
        <ele>73.6</ele>
        <time>2021-08-12T09:20:04Z</time>
      </trkpt>
      <trkpt lat="47.90122" lon="-3.91519">
        <ele>73.6</ele>
        <time>2021-08-12T09:20:05Z</time>
      </trkpt>
      <trkpt lat="47.90116" lon="-3.91522">
        <ele>73.6</ele>
        <time>2021-08-12T09:20:06Z</time>
      </trkpt>
      <trkpt lat="47.90109" lon="-3.91524">
        <ele>73.6</ele>
        <time>2021-08-12T09:20:07Z</time>
      </trkpt>
      <trkpt lat="47.90103" lon="-3.91526">
        <ele>73.6</ele>
        <time>2021-08-12T09:20:08Z</time>
      </trkpt>
      <trkpt lat="47.90097" lon="-3.91528">
        <ele>73.4</ele>
        <time>2021-08-12T09:20:09Z</time>
      </trkpt>
      <trkpt lat="47.90086" lon="-3.91533">
        <ele>73.4</ele>
        <time>2021-08-12T09:20:11Z</time>
      </trkpt>
      <trkpt lat="47.90081" lon="-3.91534">
        <ele>73.2</ele>
        <time>2021-08-12T09:20:12Z</time>
      </trkpt>
      <trkpt lat="47.90076" lon="-3.91536">
        <ele>73.2</ele>
        <time>2021-08-12T09:20:13Z</time>
      </trkpt>
      <trkpt lat="47.90071" lon="-3.91537">
        <ele>73.2</ele>
        <time>2021-08-12T09:20:14Z</time>
      </trkpt>
      <trkpt lat="47.90066" lon="-3.91539">
        <ele>73</ele>
        <time>2021-08-12T09:20:15Z</time>
      </trkpt>
      <trkpt lat="47.9006" lon="-3.91541">
        <ele>73</ele>
        <time>2021-08-12T09:20:16Z</time>
      </trkpt>
      <trkpt lat="47.90055" lon="-3.91544">
        <ele>73</ele>
        <time>2021-08-12T09:20:17Z</time>
      </trkpt>
      <trkpt lat="47.9005" lon="-3.91546">
        <ele>72.8</ele>
        <time>2021-08-12T09:20:18Z</time>
      </trkpt>
      <trkpt lat="47.90045" lon="-3.91547">
        <ele>72.8</ele>
        <time>2021-08-12T09:20:19Z</time>
      </trkpt>
      <trkpt lat="47.9004" lon="-3.91548">
        <ele>72.8</ele>
        <time>2021-08-12T09:20:20Z</time>
      </trkpt>
      <trkpt lat="47.90029" lon="-3.9155">
        <ele>72.8</ele>
        <time>2021-08-12T09:20:22Z</time>
      </trkpt>
      <trkpt lat="47.90023" lon="-3.91552">
        <ele>72.6</ele>
        <time>2021-08-12T09:20:23Z</time>
      </trkpt>
      <trkpt lat="47.90018" lon="-3.91552">
        <ele>72.6</ele>
        <time>2021-08-12T09:20:24Z</time>
      </trkpt>
      <trkpt lat="47.90013" lon="-3.91553">
        <ele>72.6</ele>
        <time>2021-08-12T09:20:25Z</time>
      </trkpt>
      <trkpt lat="47.90007" lon="-3.91554">
        <ele>72.4</ele>
        <time>2021-08-12T09:20:26Z</time>
      </trkpt>
      <trkpt lat="47.90001" lon="-3.91555">
        <ele>72.4</ele>
        <time>2021-08-12T09:20:27Z</time>
      </trkpt>
      <trkpt lat="47.89995" lon="-3.91556">
        <ele>72.4</ele>
        <time>2021-08-12T09:20:28Z</time>
      </trkpt>
      <trkpt lat="47.8999" lon="-3.91557">
        <ele>72.2</ele>
        <time>2021-08-12T09:20:29Z</time>
      </trkpt>
      <trkpt lat="47.89984" lon="-3.91557">
        <ele>72.2</ele>
        <time>2021-08-12T09:20:30Z</time>
      </trkpt>
      <trkpt lat="47.89979" lon="-3.91558">
        <ele>72</ele>
        <time>2021-08-12T09:20:31Z</time>
      </trkpt>
      <trkpt lat="47.89974" lon="-3.91558">
        <ele>71.8</ele>
        <time>2021-08-12T09:20:32Z</time>
      </trkpt>
      <trkpt lat="47.89968" lon="-3.91559">
        <ele>71.8</ele>
        <time>2021-08-12T09:20:33Z</time>
      </trkpt>
      <trkpt lat="47.89963" lon="-3.9156">
        <ele>71.6</ele>
        <time>2021-08-12T09:20:34Z</time>
      </trkpt>
      <trkpt lat="47.89958" lon="-3.91561">
        <ele>71.6</ele>
        <time>2021-08-12T09:20:35Z</time>
      </trkpt>
      <trkpt lat="47.89953" lon="-3.91563">
        <ele>71.6</ele>
        <time>2021-08-12T09:20:36Z</time>
      </trkpt>
      <trkpt lat="47.89948" lon="-3.91564">
        <ele>71.6</ele>
        <time>2021-08-12T09:20:37Z</time>
      </trkpt>
      <trkpt lat="47.89943" lon="-3.91564">
        <ele>71.6</ele>
        <time>2021-08-12T09:20:38Z</time>
      </trkpt>
      <trkpt lat="47.89937" lon="-3.91566">
        <ele>71.4</ele>
        <time>2021-08-12T09:20:39Z</time>
      </trkpt>
      <trkpt lat="47.89932" lon="-3.91567">
        <ele>71.2</ele>
        <time>2021-08-12T09:20:40Z</time>
      </trkpt>
      <trkpt lat="47.89927" lon="-3.91568">
        <ele>71.2</ele>
        <time>2021-08-12T09:20:41Z</time>
      </trkpt>
      <trkpt lat="47.89921" lon="-3.91569">
        <ele>71.2</ele>
        <time>2021-08-12T09:20:42Z</time>
      </trkpt>
      <trkpt lat="47.89908" lon="-3.91571">
        <ele>71.2</ele>
        <time>2021-08-12T09:20:44Z</time>
      </trkpt>
      <trkpt lat="47.89902" lon="-3.91573">
        <ele>71.2</ele>
        <time>2021-08-12T09:20:45Z</time>
      </trkpt>
      <trkpt lat="47.89896" lon="-3.91574">
        <ele>71.2</ele>
        <time>2021-08-12T09:20:46Z</time>
      </trkpt>
      <trkpt lat="47.89889" lon="-3.91575">
        <ele>71</ele>
        <time>2021-08-12T09:20:47Z</time>
      </trkpt>
      <trkpt lat="47.89883" lon="-3.91575">
        <ele>71</ele>
        <time>2021-08-12T09:20:48Z</time>
      </trkpt>
      <trkpt lat="47.89877" lon="-3.91576">
        <ele>70.8</ele>
        <time>2021-08-12T09:20:49Z</time>
      </trkpt>
      <trkpt lat="47.89871" lon="-3.91577">
        <ele>70.6</ele>
        <time>2021-08-12T09:20:50Z</time>
      </trkpt>
      <trkpt lat="47.89864" lon="-3.91578">
        <ele>70.6</ele>
        <time>2021-08-12T09:20:51Z</time>
      </trkpt>
      <trkpt lat="47.89859" lon="-3.91579">
        <ele>70.6</ele>
        <time>2021-08-12T09:20:52Z</time>
      </trkpt>
      <trkpt lat="47.89853" lon="-3.91581">
        <ele>70.4</ele>
        <time>2021-08-12T09:20:53Z</time>
      </trkpt>
      <trkpt lat="47.89842" lon="-3.91585">
        <ele>70.2</ele>
        <time>2021-08-12T09:20:55Z</time>
      </trkpt>
      <trkpt lat="47.89836" lon="-3.91587">
        <ele>70.2</ele>
        <time>2021-08-12T09:20:56Z</time>
      </trkpt>
      <trkpt lat="47.89831" lon="-3.91589">
        <ele>69.8</ele>
        <time>2021-08-12T09:20:57Z</time>
      </trkpt>
      <trkpt lat="47.89825" lon="-3.91591">
        <ele>69.6</ele>
        <time>2021-08-12T09:20:58Z</time>
      </trkpt>
      <trkpt lat="47.8982" lon="-3.91593">
        <ele>69.6</ele>
        <time>2021-08-12T09:20:59Z</time>
      </trkpt>
      <trkpt lat="47.89814" lon="-3.91595">
        <ele>69.4</ele>
        <time>2021-08-12T09:21:00Z</time>
      </trkpt>
      <trkpt lat="47.89809" lon="-3.91598">
        <ele>69.4</ele>
        <time>2021-08-12T09:21:01Z</time>
      </trkpt>
      <trkpt lat="47.89804" lon="-3.916">
        <ele>69.4</ele>
        <time>2021-08-12T09:21:02Z</time>
      </trkpt>
      <trkpt lat="47.89798" lon="-3.91603">
        <ele>69.2</ele>
        <time>2021-08-12T09:21:03Z</time>
      </trkpt>
      <trkpt lat="47.89793" lon="-3.91606">
        <ele>69.2</ele>
        <time>2021-08-12T09:21:04Z</time>
      </trkpt>
      <trkpt lat="47.89782" lon="-3.91612">
        <ele>69.2</ele>
        <time>2021-08-12T09:21:06Z</time>
      </trkpt>
      <trkpt lat="47.89776" lon="-3.91616">
        <ele>69</ele>
        <time>2021-08-12T09:21:07Z</time>
      </trkpt>
      <trkpt lat="47.89771" lon="-3.91619">
        <ele>69</ele>
        <time>2021-08-12T09:21:08Z</time>
      </trkpt>
      <trkpt lat="47.89765" lon="-3.91622">
        <ele>68.8</ele>
        <time>2021-08-12T09:21:09Z</time>
      </trkpt>
      <trkpt lat="47.89759" lon="-3.91626">
        <ele>68.6</ele>
        <time>2021-08-12T09:21:10Z</time>
      </trkpt>
      <trkpt lat="47.89754" lon="-3.91629">
        <ele>68.6</ele>
        <time>2021-08-12T09:21:11Z</time>
      </trkpt>
      <trkpt lat="47.89749" lon="-3.91633">
        <ele>68.6</ele>
        <time>2021-08-12T09:21:12Z</time>
      </trkpt>
      <trkpt lat="47.89744" lon="-3.91637">
        <ele>68.6</ele>
        <time>2021-08-12T09:21:13Z</time>
      </trkpt>
      <trkpt lat="47.8974" lon="-3.91641">
        <ele>68.6</ele>
        <time>2021-08-12T09:21:14Z</time>
      </trkpt>
      <trkpt lat="47.89735" lon="-3.91645">
        <ele>68.4</ele>
        <time>2021-08-12T09:21:15Z</time>
      </trkpt>
      <trkpt lat="47.89724" lon="-3.91652">
        <ele>68</ele>
        <time>2021-08-12T09:21:17Z</time>
      </trkpt>
      <trkpt lat="47.8972" lon="-3.91655">
        <ele>67.8</ele>
        <time>2021-08-12T09:21:18Z</time>
      </trkpt>
      <trkpt lat="47.89714" lon="-3.91659">
        <ele>67.8</ele>
        <time>2021-08-12T09:21:19Z</time>
      </trkpt>
      <trkpt lat="47.89709" lon="-3.91663">
        <ele>67.6</ele>
        <time>2021-08-12T09:21:20Z</time>
      </trkpt>
      <trkpt lat="47.89705" lon="-3.91667">
        <ele>67.6</ele>
        <time>2021-08-12T09:21:21Z</time>
      </trkpt>
      <trkpt lat="47.897" lon="-3.91671">
        <ele>67.6</ele>
        <time>2021-08-12T09:21:22Z</time>
      </trkpt>
      <trkpt lat="47.89695" lon="-3.91676">
        <ele>67.6</ele>
        <time>2021-08-12T09:21:23Z</time>
      </trkpt>
      <trkpt lat="47.89691" lon="-3.9168">
        <ele>67.4</ele>
        <time>2021-08-12T09:21:24Z</time>
      </trkpt>
      <trkpt lat="47.89686" lon="-3.91685">
        <ele>67.4</ele>
        <time>2021-08-12T09:21:25Z</time>
      </trkpt>
      <trkpt lat="47.89682" lon="-3.9169">
        <ele>67.4</ele>
        <time>2021-08-12T09:21:26Z</time>
      </trkpt>
      <trkpt lat="47.89671" lon="-3.917">
        <ele>67.2</ele>
        <time>2021-08-12T09:21:28Z</time>
      </trkpt>
      <trkpt lat="47.89666" lon="-3.91706">
        <ele>67.2</ele>
        <time>2021-08-12T09:21:29Z</time>
      </trkpt>
      <trkpt lat="47.89661" lon="-3.91711">
        <ele>67.2</ele>
        <time>2021-08-12T09:21:30Z</time>
      </trkpt>
      <trkpt lat="47.89656" lon="-3.91716">
        <ele>67.2</ele>
        <time>2021-08-12T09:21:31Z</time>
      </trkpt>
      <trkpt lat="47.8965" lon="-3.91722">
        <ele>67.2</ele>
        <time>2021-08-12T09:21:32Z</time>
      </trkpt>
      <trkpt lat="47.89645" lon="-3.91728">
        <ele>67.2</ele>
        <time>2021-08-12T09:21:33Z</time>
      </trkpt>
      <trkpt lat="47.89641" lon="-3.91734">
        <ele>67</ele>
        <time>2021-08-12T09:21:34Z</time>
      </trkpt>
      <trkpt lat="47.89637" lon="-3.91739">
        <ele>67</ele>
        <time>2021-08-12T09:21:35Z</time>
      </trkpt>
      <trkpt lat="47.89633" lon="-3.91745">
        <ele>67</ele>
        <time>2021-08-12T09:21:36Z</time>
      </trkpt>
      <trkpt lat="47.89629" lon="-3.9175">
        <ele>67</ele>
        <time>2021-08-12T09:21:37Z</time>
      </trkpt>
      <trkpt lat="47.89623" lon="-3.9176">
        <ele>67</ele>
        <time>2021-08-12T09:21:39Z</time>
      </trkpt>
      <trkpt lat="47.8962" lon="-3.91764">
        <ele>67</ele>
        <time>2021-08-12T09:21:40Z</time>
      </trkpt>
      <trkpt lat="47.89617" lon="-3.91768">
        <ele>67</ele>
        <time>2021-08-12T09:21:41Z</time>
      </trkpt>
      <trkpt lat="47.89615" lon="-3.91772">
        <ele>67</ele>
        <time>2021-08-12T09:21:42Z</time>
      </trkpt>
      <trkpt lat="47.89612" lon="-3.91775">
        <ele>67</ele>
        <time>2021-08-12T09:21:43Z</time>
      </trkpt>
      <trkpt lat="47.8961" lon="-3.91779">
        <ele>66.8</ele>
        <time>2021-08-12T09:21:44Z</time>
      </trkpt>
      <trkpt lat="47.89607" lon="-3.91783">
        <ele>66.8</ele>
        <time>2021-08-12T09:21:45Z</time>
      </trkpt>
      <trkpt lat="47.89604" lon="-3.91788">
        <ele>66.8</ele>
        <time>2021-08-12T09:21:46Z</time>
      </trkpt>
      <trkpt lat="47.89602" lon="-3.91794">
        <ele>66.8</ele>
        <time>2021-08-12T09:21:47Z</time>
      </trkpt>
      <trkpt lat="47.89599" lon="-3.91799">
        <ele>66.8</ele>
        <time>2021-08-12T09:21:48Z</time>
      </trkpt>
      <trkpt lat="47.89592" lon="-3.91809">
        <ele>66.8</ele>
        <time>2021-08-12T09:21:50Z</time>
      </trkpt>
      <trkpt lat="47.89588" lon="-3.91814">
        <ele>66.8</ele>
        <time>2021-08-12T09:21:51Z</time>
      </trkpt>
      <trkpt lat="47.89584" lon="-3.9182">
        <ele>66.8</ele>
        <time>2021-08-12T09:21:52Z</time>
      </trkpt>
      <trkpt lat="47.89581" lon="-3.91826">
        <ele>66.6</ele>
        <time>2021-08-12T09:21:53Z</time>
      </trkpt>
      <trkpt lat="47.89578" lon="-3.91833">
        <ele>66.6</ele>
        <time>2021-08-12T09:21:54Z</time>
      </trkpt>
      <trkpt lat="47.89575" lon="-3.91839">
        <ele>66.4</ele>
        <time>2021-08-12T09:21:55Z</time>
      </trkpt>
      <trkpt lat="47.89572" lon="-3.91845">
        <ele>66.4</ele>
        <time>2021-08-12T09:21:56Z</time>
      </trkpt>
      <trkpt lat="47.89569" lon="-3.9185">
        <ele>66.4</ele>
        <time>2021-08-12T09:21:57Z</time>
      </trkpt>
      <trkpt lat="47.89566" lon="-3.91856">
        <ele>66.2</ele>
        <time>2021-08-12T09:21:58Z</time>
      </trkpt>
      <trkpt lat="47.89563" lon="-3.91862">
        <ele>66.2</ele>
        <time>2021-08-12T09:21:59Z</time>
      </trkpt>
      <trkpt lat="47.89557" lon="-3.91876">
        <ele>66</ele>
        <time>2021-08-12T09:22:01Z</time>
      </trkpt>
      <trkpt lat="47.89554" lon="-3.91883">
        <ele>66</ele>
        <time>2021-08-12T09:22:02Z</time>
      </trkpt>
      <trkpt lat="47.8955" lon="-3.9189">
        <ele>66</ele>
        <time>2021-08-12T09:22:03Z</time>
      </trkpt>
      <trkpt lat="47.89547" lon="-3.91896">
        <ele>66</ele>
        <time>2021-08-12T09:22:04Z</time>
      </trkpt>
      <trkpt lat="47.89544" lon="-3.91904">
        <ele>65.8</ele>
        <time>2021-08-12T09:22:05Z</time>
      </trkpt>
      <trkpt lat="47.89541" lon="-3.91911">
        <ele>65.8</ele>
        <time>2021-08-12T09:22:06Z</time>
      </trkpt>
      <trkpt lat="47.89538" lon="-3.91919">
        <ele>65.6</ele>
        <time>2021-08-12T09:22:07Z</time>
      </trkpt>
      <trkpt lat="47.89535" lon="-3.91927">
        <ele>65.6</ele>
        <time>2021-08-12T09:22:08Z</time>
      </trkpt>
      <trkpt lat="47.89532" lon="-3.91936">
        <ele>65.6</ele>
        <time>2021-08-12T09:22:09Z</time>
      </trkpt>
      <trkpt lat="47.89529" lon="-3.91944">
        <ele>65.6</ele>
        <time>2021-08-12T09:22:10Z</time>
      </trkpt>
      <trkpt lat="47.89524" lon="-3.91961">
        <ele>65.4</ele>
        <time>2021-08-12T09:22:12Z</time>
      </trkpt>
      <trkpt lat="47.89521" lon="-3.91969">
        <ele>65.2</ele>
        <time>2021-08-12T09:22:13Z</time>
      </trkpt>
      <trkpt lat="47.89518" lon="-3.91978">
        <ele>65.2</ele>
        <time>2021-08-12T09:22:14Z</time>
      </trkpt>
      <trkpt lat="47.89516" lon="-3.91986">
        <ele>65.2</ele>
        <time>2021-08-12T09:22:15Z</time>
      </trkpt>
      <trkpt lat="47.89513" lon="-3.91994">
        <ele>64.8</ele>
        <time>2021-08-12T09:22:16Z</time>
      </trkpt>
      <trkpt lat="47.89511" lon="-3.92002">
        <ele>64.6</ele>
        <time>2021-08-12T09:22:17Z</time>
      </trkpt>
      <trkpt lat="47.89509" lon="-3.9201">
        <ele>64.4</ele>
        <time>2021-08-12T09:22:18Z</time>
      </trkpt>
      <trkpt lat="47.89507" lon="-3.92017">
        <ele>64.4</ele>
        <time>2021-08-12T09:22:19Z</time>
      </trkpt>
      <trkpt lat="47.89506" lon="-3.92024">
        <ele>64.2</ele>
        <time>2021-08-12T09:22:20Z</time>
      </trkpt>
      <trkpt lat="47.89506" lon="-3.92031">
        <ele>64.2</ele>
        <time>2021-08-12T09:22:21Z</time>
      </trkpt>
      <trkpt lat="47.89505" lon="-3.92037">
        <ele>64</ele>
        <time>2021-08-12T09:22:22Z</time>
      </trkpt>
      <trkpt lat="47.89504" lon="-3.92043">
        <ele>64</ele>
        <time>2021-08-12T09:22:23Z</time>
      </trkpt>
      <trkpt lat="47.89502" lon="-3.92048">
        <ele>63.8</ele>
        <time>2021-08-12T09:22:24Z</time>
      </trkpt>
      <trkpt lat="47.895" lon="-3.92054">
        <ele>63.6</ele>
        <time>2021-08-12T09:22:25Z</time>
      </trkpt>
      <trkpt lat="47.89499" lon="-3.9206">
        <ele>63.6</ele>
        <time>2021-08-12T09:22:26Z</time>
      </trkpt>
      <trkpt lat="47.89498" lon="-3.92065">
        <ele>63.4</ele>
        <time>2021-08-12T09:22:27Z</time>
      </trkpt>
      <trkpt lat="47.89497" lon="-3.92071">
        <ele>63.4</ele>
        <time>2021-08-12T09:22:28Z</time>
      </trkpt>
      <trkpt lat="47.89496" lon="-3.92078">
        <ele>63.4</ele>
        <time>2021-08-12T09:22:29Z</time>
      </trkpt>
      <trkpt lat="47.89494" lon="-3.92084">
        <ele>63.4</ele>
        <time>2021-08-12T09:22:30Z</time>
      </trkpt>
      <trkpt lat="47.89492" lon="-3.9209">
        <ele>63.2</ele>
        <time>2021-08-12T09:22:31Z</time>
      </trkpt>
      <trkpt lat="47.89489" lon="-3.92104">
        <ele>63.2</ele>
        <time>2021-08-12T09:22:33Z</time>
      </trkpt>
      <trkpt lat="47.89488" lon="-3.92111">
        <ele>63</ele>
        <time>2021-08-12T09:22:34Z</time>
      </trkpt>
      <trkpt lat="47.89487" lon="-3.92118">
        <ele>63</ele>
        <time>2021-08-12T09:22:35Z</time>
      </trkpt>
      <trkpt lat="47.89486" lon="-3.92126">
        <ele>63</ele>
        <time>2021-08-12T09:22:36Z</time>
      </trkpt>
      <trkpt lat="47.89486" lon="-3.92133">
        <ele>63</ele>
        <time>2021-08-12T09:22:37Z</time>
      </trkpt>
      <trkpt lat="47.89485" lon="-3.92141">
        <ele>63</ele>
        <time>2021-08-12T09:22:38Z</time>
      </trkpt>
      <trkpt lat="47.89484" lon="-3.92149">
        <ele>62.8</ele>
        <time>2021-08-12T09:22:39Z</time>
      </trkpt>
      <trkpt lat="47.89484" lon="-3.92156">
        <ele>62.8</ele>
        <time>2021-08-12T09:22:40Z</time>
      </trkpt>
      <trkpt lat="47.89483" lon="-3.92164">
        <ele>62.8</ele>
        <time>2021-08-12T09:22:41Z</time>
      </trkpt>
      <trkpt lat="47.89482" lon="-3.92172">
        <ele>62.8</ele>
        <time>2021-08-12T09:22:42Z</time>
      </trkpt>
      <trkpt lat="47.89481" lon="-3.92187">
        <ele>62.8</ele>
        <time>2021-08-12T09:22:44Z</time>
      </trkpt>
      <trkpt lat="47.89481" lon="-3.92194">
        <ele>62.6</ele>
        <time>2021-08-12T09:22:45Z</time>
      </trkpt>
      <trkpt lat="47.8948" lon="-3.92202">
        <ele>62.6</ele>
        <time>2021-08-12T09:22:46Z</time>
      </trkpt>
      <trkpt lat="47.89479" lon="-3.92226">
        <ele>62.6</ele>
        <time>2021-08-12T09:22:49Z</time>
      </trkpt>
      <trkpt lat="47.89478" lon="-3.92242">
        <ele>62.6</ele>
        <time>2021-08-12T09:22:51Z</time>
      </trkpt>
      <trkpt lat="47.89478" lon="-3.9225">
        <ele>62.6</ele>
        <time>2021-08-12T09:22:52Z</time>
      </trkpt>
      <trkpt lat="47.89478" lon="-3.92257">
        <ele>62.6</ele>
        <time>2021-08-12T09:22:53Z</time>
      </trkpt>
      <trkpt lat="47.89478" lon="-3.92274">
        <ele>62.6</ele>
        <time>2021-08-12T09:22:55Z</time>
      </trkpt>
      <trkpt lat="47.89479" lon="-3.9229">
        <ele>62.6</ele>
        <time>2021-08-12T09:22:57Z</time>
      </trkpt>
      <trkpt lat="47.89479" lon="-3.92307">
        <ele>62.6</ele>
        <time>2021-08-12T09:22:59Z</time>
      </trkpt>
      <trkpt lat="47.8948" lon="-3.92323">
        <ele>62.6</ele>
        <time>2021-08-12T09:23:01Z</time>
      </trkpt>
      <trkpt lat="47.89482" lon="-3.9234">
        <ele>62.6</ele>
        <time>2021-08-12T09:23:03Z</time>
      </trkpt>
      <trkpt lat="47.89484" lon="-3.92356">
        <ele>62.6</ele>
        <time>2021-08-12T09:23:05Z</time>
      </trkpt>
      <trkpt lat="47.89486" lon="-3.92372">
        <ele>62.6</ele>
        <time>2021-08-12T09:23:07Z</time>
      </trkpt>
      <trkpt lat="47.89487" lon="-3.9238">
        <ele>62.6</ele>
        <time>2021-08-12T09:23:08Z</time>
      </trkpt>
      <trkpt lat="47.89488" lon="-3.92388">
        <ele>62.6</ele>
        <time>2021-08-12T09:23:09Z</time>
      </trkpt>
      <trkpt lat="47.89492" lon="-3.92402">
        <ele>62.6</ele>
        <time>2021-08-12T09:23:11Z</time>
      </trkpt>
      <trkpt lat="47.89494" lon="-3.92416">
        <ele>62.8</ele>
        <time>2021-08-12T09:23:13Z</time>
      </trkpt>
      <trkpt lat="47.89496" lon="-3.92432">
        <ele>62.8</ele>
        <time>2021-08-12T09:23:15Z</time>
      </trkpt>
      <trkpt lat="47.89499" lon="-3.92447">
        <ele>62.8</ele>
        <time>2021-08-12T09:23:17Z</time>
      </trkpt>
      <trkpt lat="47.89501" lon="-3.92462">
        <ele>62.8</ele>
        <time>2021-08-12T09:23:19Z</time>
      </trkpt>
      <trkpt lat="47.89503" lon="-3.92478">
        <ele>62.8</ele>
        <time>2021-08-12T09:23:21Z</time>
      </trkpt>
      <trkpt lat="47.89505" lon="-3.92494">
        <ele>63</ele>
        <time>2021-08-12T09:23:23Z</time>
      </trkpt>
      <trkpt lat="47.89508" lon="-3.92509">
        <ele>63</ele>
        <time>2021-08-12T09:23:25Z</time>
      </trkpt>
      <trkpt lat="47.89508" lon="-3.92517">
        <ele>62.8</ele>
        <time>2021-08-12T09:23:26Z</time>
      </trkpt>
      <trkpt lat="47.89509" lon="-3.92524">
        <ele>62.8</ele>
        <time>2021-08-12T09:23:27Z</time>
      </trkpt>
      <trkpt lat="47.8951" lon="-3.92538">
        <ele>62.8</ele>
        <time>2021-08-12T09:23:29Z</time>
      </trkpt>
      <trkpt lat="47.89511" lon="-3.92545">
        <ele>62.8</ele>
        <time>2021-08-12T09:23:30Z</time>
      </trkpt>
      <trkpt lat="47.89513" lon="-3.92553">
        <ele>62.8</ele>
        <time>2021-08-12T09:23:31Z</time>
      </trkpt>
      <trkpt lat="47.89516" lon="-3.92567">
        <ele>62.8</ele>
        <time>2021-08-12T09:23:33Z</time>
      </trkpt>
      <trkpt lat="47.89519" lon="-3.92583">
        <ele>63</ele>
        <time>2021-08-12T09:23:35Z</time>
      </trkpt>
      <trkpt lat="47.89521" lon="-3.92599">
        <ele>62.8</ele>
        <time>2021-08-12T09:23:37Z</time>
      </trkpt>
      <trkpt lat="47.89522" lon="-3.92608">
        <ele>62.8</ele>
        <time>2021-08-12T09:23:38Z</time>
      </trkpt>
      <trkpt lat="47.89523" lon="-3.92615">
        <ele>62.8</ele>
        <time>2021-08-12T09:23:39Z</time>
      </trkpt>
      <trkpt lat="47.89525" lon="-3.92629">
        <ele>62.8</ele>
        <time>2021-08-12T09:23:41Z</time>
      </trkpt>
      <trkpt lat="47.89526" lon="-3.92646">
        <ele>62.6</ele>
        <time>2021-08-12T09:23:43Z</time>
      </trkpt>
      <trkpt lat="47.89526" lon="-3.92664">
        <ele>62.6</ele>
        <time>2021-08-12T09:23:45Z</time>
      </trkpt>
      <trkpt lat="47.89528" lon="-3.92681">
        <ele>62.6</ele>
        <time>2021-08-12T09:23:47Z</time>
      </trkpt>
      <trkpt lat="47.89529" lon="-3.92699">
        <ele>62.4</ele>
        <time>2021-08-12T09:23:49Z</time>
      </trkpt>
      <trkpt lat="47.89529" lon="-3.92708">
        <ele>62.4</ele>
        <time>2021-08-12T09:23:50Z</time>
      </trkpt>
      <trkpt lat="47.89529" lon="-3.92717">
        <ele>62.2</ele>
        <time>2021-08-12T09:23:51Z</time>
      </trkpt>
      <trkpt lat="47.8953" lon="-3.92727">
        <ele>62</ele>
        <time>2021-08-12T09:23:52Z</time>
      </trkpt>
      <trkpt lat="47.89531" lon="-3.92736">
        <ele>61.8</ele>
        <time>2021-08-12T09:23:53Z</time>
      </trkpt>
      <trkpt lat="47.89531" lon="-3.92745">
        <ele>61.6</ele>
        <time>2021-08-12T09:23:54Z</time>
      </trkpt>
      <trkpt lat="47.89531" lon="-3.92755">
        <ele>61.6</ele>
        <time>2021-08-12T09:23:55Z</time>
      </trkpt>
      <trkpt lat="47.89531" lon="-3.92773">
        <ele>61.4</ele>
        <time>2021-08-12T09:23:57Z</time>
      </trkpt>
      <trkpt lat="47.8953" lon="-3.92791">
        <ele>61.4</ele>
        <time>2021-08-12T09:23:59Z</time>
      </trkpt>
      <trkpt lat="47.89529" lon="-3.92807">
        <ele>61.4</ele>
        <time>2021-08-12T09:24:01Z</time>
      </trkpt>
      <trkpt lat="47.89527" lon="-3.92824">
        <ele>61.2</ele>
        <time>2021-08-12T09:24:03Z</time>
      </trkpt>
      <trkpt lat="47.89525" lon="-3.9284">
        <ele>61.2</ele>
        <time>2021-08-12T09:24:05Z</time>
      </trkpt>
      <trkpt lat="47.89524" lon="-3.92849">
        <ele>61.2</ele>
        <time>2021-08-12T09:24:06Z</time>
      </trkpt>
      <trkpt lat="47.89523" lon="-3.92857">
        <ele>61.2</ele>
        <time>2021-08-12T09:24:07Z</time>
      </trkpt>
      <trkpt lat="47.89521" lon="-3.92874">
        <ele>61</ele>
        <time>2021-08-12T09:24:09Z</time>
      </trkpt>
      <trkpt lat="47.89518" lon="-3.92891">
        <ele>60.8</ele>
        <time>2021-08-12T09:24:11Z</time>
      </trkpt>
      <trkpt lat="47.89516" lon="-3.92907">
        <ele>60.8</ele>
        <time>2021-08-12T09:24:13Z</time>
      </trkpt>
      <trkpt lat="47.89513" lon="-3.92922">
        <ele>60.6</ele>
        <time>2021-08-12T09:24:15Z</time>
      </trkpt>
      <trkpt lat="47.8951" lon="-3.92937">
        <ele>60</ele>
        <time>2021-08-12T09:24:17Z</time>
      </trkpt>
      <trkpt lat="47.89509" lon="-3.92944">
        <ele>60</ele>
        <time>2021-08-12T09:24:18Z</time>
      </trkpt>
      <trkpt lat="47.89508" lon="-3.92951">
        <ele>59.8</ele>
        <time>2021-08-12T09:24:19Z</time>
      </trkpt>
      <trkpt lat="47.89507" lon="-3.92958">
        <ele>59.8</ele>
        <time>2021-08-12T09:24:20Z</time>
      </trkpt>
      <trkpt lat="47.89505" lon="-3.92964">
        <ele>59.6</ele>
        <time>2021-08-12T09:24:21Z</time>
      </trkpt>
      <trkpt lat="47.89504" lon="-3.9297">
        <ele>59.4</ele>
        <time>2021-08-12T09:24:22Z</time>
      </trkpt>
      <trkpt lat="47.89503" lon="-3.92975">
        <ele>59.4</ele>
        <time>2021-08-12T09:24:23Z</time>
      </trkpt>
      <trkpt lat="47.89503" lon="-3.9298">
        <ele>59.2</ele>
        <time>2021-08-12T09:24:24Z</time>
      </trkpt>
      <trkpt lat="47.89502" lon="-3.92983">
        <ele>59.2</ele>
        <time>2021-08-12T09:24:25Z</time>
      </trkpt>
      <trkpt lat="47.89501" lon="-3.92987">
        <ele>59</ele>
        <time>2021-08-12T09:24:27Z</time>
      </trkpt>
      <trkpt lat="47.895" lon="-3.92989">
        <ele>59</ele>
        <time>2021-08-12T09:24:28Z</time>
      </trkpt>
      <trkpt lat="47.895" lon="-3.92991">
        <ele>59</ele>
        <time>2021-08-12T09:24:29Z</time>
      </trkpt>
      <trkpt lat="47.89498" lon="-3.92996">
        <ele>59</ele>
        <time>2021-08-12T09:24:31Z</time>
      </trkpt>
      <trkpt lat="47.89497" lon="-3.93002">
        <ele>59</ele>
        <time>2021-08-12T09:24:33Z</time>
      </trkpt>
      <trkpt lat="47.89496" lon="-3.93007">
        <ele>59.2</ele>
        <time>2021-08-12T09:24:35Z</time>
      </trkpt>
      <trkpt lat="47.89494" lon="-3.93011">
        <ele>59.2</ele>
        <time>2021-08-12T09:24:37Z</time>
      </trkpt>
      <trkpt lat="47.89493" lon="-3.93013">
        <ele>59.2</ele>
        <time>2021-08-12T09:24:38Z</time>
      </trkpt>
      <trkpt lat="47.89493" lon="-3.93014">
        <ele>59.2</ele>
        <time>2021-08-12T09:24:39Z</time>
      </trkpt>
      <trkpt lat="47.89493" lon="-3.93016">
        <ele>59.2</ele>
        <time>2021-08-12T09:24:40Z</time>
      </trkpt>
      <trkpt lat="47.89492" lon="-3.93021">
        <ele>59.2</ele>
        <time>2021-08-12T09:24:42Z</time>
      </trkpt>
      <trkpt lat="47.89491" lon="-3.93024">
        <ele>59.2</ele>
        <time>2021-08-12T09:24:43Z</time>
      </trkpt>
      <trkpt lat="47.89489" lon="-3.93028">
        <ele>59.2</ele>
        <time>2021-08-12T09:24:44Z</time>
      </trkpt>
      <trkpt lat="47.89488" lon="-3.93032">
        <ele>59.2</ele>
        <time>2021-08-12T09:24:45Z</time>
      </trkpt>
      <trkpt lat="47.89486" lon="-3.93036">
        <ele>59.2</ele>
        <time>2021-08-12T09:24:46Z</time>
      </trkpt>
      <trkpt lat="47.89482" lon="-3.93047">
        <ele>59</ele>
        <time>2021-08-12T09:24:48Z</time>
      </trkpt>
      <trkpt lat="47.8948" lon="-3.93053">
        <ele>59</ele>
        <time>2021-08-12T09:24:49Z</time>
      </trkpt>
      <trkpt lat="47.89478" lon="-3.93058">
        <ele>59</ele>
        <time>2021-08-12T09:24:50Z</time>
      </trkpt>
      <trkpt lat="47.89476" lon="-3.93065">
        <ele>58.8</ele>
        <time>2021-08-12T09:24:51Z</time>
      </trkpt>
      <trkpt lat="47.89474" lon="-3.9307">
        <ele>58.8</ele>
        <time>2021-08-12T09:24:52Z</time>
      </trkpt>
      <trkpt lat="47.8947" lon="-3.93083">
        <ele>58.6</ele>
        <time>2021-08-12T09:24:54Z</time>
      </trkpt>
      <trkpt lat="47.89467" lon="-3.93089">
        <ele>58.4</ele>
        <time>2021-08-12T09:24:55Z</time>
      </trkpt>
      <trkpt lat="47.89464" lon="-3.93095">
        <ele>58.4</ele>
        <time>2021-08-12T09:24:56Z</time>
      </trkpt>
      <trkpt lat="47.89462" lon="-3.93102">
        <ele>58.4</ele>
        <time>2021-08-12T09:24:57Z</time>
      </trkpt>
      <trkpt lat="47.89459" lon="-3.93108">
        <ele>58.4</ele>
        <time>2021-08-12T09:24:58Z</time>
      </trkpt>
      <trkpt lat="47.89453" lon="-3.93121">
        <ele>58.2</ele>
        <time>2021-08-12T09:25:00Z</time>
      </trkpt>
      <trkpt lat="47.8945" lon="-3.93127">
        <ele>58.2</ele>
        <time>2021-08-12T09:25:01Z</time>
      </trkpt>
      <trkpt lat="47.89447" lon="-3.93133">
        <ele>57.8</ele>
        <time>2021-08-12T09:25:02Z</time>
      </trkpt>
      <trkpt lat="47.89444" lon="-3.9314">
        <ele>57.6</ele>
        <time>2021-08-12T09:25:03Z</time>
      </trkpt>
      <trkpt lat="47.89437" lon="-3.93152">
        <ele>57.6</ele>
        <time>2021-08-12T09:25:05Z</time>
      </trkpt>
      <trkpt lat="47.89434" lon="-3.93159">
        <ele>57.6</ele>
        <time>2021-08-12T09:25:06Z</time>
      </trkpt>
      <trkpt lat="47.89431" lon="-3.93165">
        <ele>57.4</ele>
        <time>2021-08-12T09:25:07Z</time>
      </trkpt>
      <trkpt lat="47.89427" lon="-3.93171">
        <ele>57.4</ele>
        <time>2021-08-12T09:25:08Z</time>
      </trkpt>
      <trkpt lat="47.89424" lon="-3.93177">
        <ele>57.4</ele>
        <time>2021-08-12T09:25:09Z</time>
      </trkpt>
      <trkpt lat="47.8942" lon="-3.93182">
        <ele>57.4</ele>
        <time>2021-08-12T09:25:10Z</time>
      </trkpt>
      <trkpt lat="47.89416" lon="-3.93188">
        <ele>57.2</ele>
        <time>2021-08-12T09:25:11Z</time>
      </trkpt>
      <trkpt lat="47.89412" lon="-3.93194">
        <ele>57.2</ele>
        <time>2021-08-12T09:25:12Z</time>
      </trkpt>
      <trkpt lat="47.89404" lon="-3.93207">
        <ele>57.2</ele>
        <time>2021-08-12T09:25:14Z</time>
      </trkpt>
      <trkpt lat="47.89401" lon="-3.93212">
        <ele>57.2</ele>
        <time>2021-08-12T09:25:15Z</time>
      </trkpt>
      <trkpt lat="47.89397" lon="-3.93218">
        <ele>57</ele>
        <time>2021-08-12T09:25:16Z</time>
      </trkpt>
      <trkpt lat="47.89393" lon="-3.93224">
        <ele>57</ele>
        <time>2021-08-12T09:25:17Z</time>
      </trkpt>
      <trkpt lat="47.89389" lon="-3.9323">
        <ele>56.8</ele>
        <time>2021-08-12T09:25:18Z</time>
      </trkpt>
      <trkpt lat="47.89385" lon="-3.93235">
        <ele>56.8</ele>
        <time>2021-08-12T09:25:19Z</time>
      </trkpt>
      <trkpt lat="47.89381" lon="-3.93241">
        <ele>56.8</ele>
        <time>2021-08-12T09:25:20Z</time>
      </trkpt>
      <trkpt lat="47.89377" lon="-3.93247">
        <ele>56.8</ele>
        <time>2021-08-12T09:25:21Z</time>
      </trkpt>
      <trkpt lat="47.89373" lon="-3.93253">
        <ele>56.8</ele>
        <time>2021-08-12T09:25:22Z</time>
      </trkpt>
      <trkpt lat="47.89368" lon="-3.93258">
        <ele>56.8</ele>
        <time>2021-08-12T09:25:23Z</time>
      </trkpt>
      <trkpt lat="47.89364" lon="-3.93264">
        <ele>56.6</ele>
        <time>2021-08-12T09:25:24Z</time>
      </trkpt>
      <trkpt lat="47.8936" lon="-3.9327">
        <ele>56.6</ele>
        <time>2021-08-12T09:25:25Z</time>
      </trkpt>
      <trkpt lat="47.89355" lon="-3.93275">
        <ele>56.4</ele>
        <time>2021-08-12T09:25:26Z</time>
      </trkpt>
      <trkpt lat="47.8935" lon="-3.9328">
        <ele>56.4</ele>
        <time>2021-08-12T09:25:27Z</time>
      </trkpt>
      <trkpt lat="47.89345" lon="-3.93285">
        <ele>56.2</ele>
        <time>2021-08-12T09:25:28Z</time>
      </trkpt>
      <trkpt lat="47.89341" lon="-3.93291">
        <ele>56.2</ele>
        <time>2021-08-12T09:25:29Z</time>
      </trkpt>
      <trkpt lat="47.89336" lon="-3.93296">
        <ele>56.2</ele>
        <time>2021-08-12T09:25:30Z</time>
      </trkpt>
      <trkpt lat="47.89331" lon="-3.93301">
        <ele>56</ele>
        <time>2021-08-12T09:25:31Z</time>
      </trkpt>
      <trkpt lat="47.89327" lon="-3.93306">
        <ele>56</ele>
        <time>2021-08-12T09:25:32Z</time>
      </trkpt>
      <trkpt lat="47.89322" lon="-3.93311">
        <ele>55.8</ele>
        <time>2021-08-12T09:25:33Z</time>
      </trkpt>
      <trkpt lat="47.89318" lon="-3.93315">
        <ele>55.6</ele>
        <time>2021-08-12T09:25:34Z</time>
      </trkpt>
      <trkpt lat="47.89314" lon="-3.9332">
        <ele>55.6</ele>
        <time>2021-08-12T09:25:35Z</time>
      </trkpt>
      <trkpt lat="47.8931" lon="-3.93324">
        <ele>55.4</ele>
        <time>2021-08-12T09:25:36Z</time>
      </trkpt>
      <trkpt lat="47.89306" lon="-3.93328">
        <ele>55.4</ele>
        <time>2021-08-12T09:25:37Z</time>
      </trkpt>
      <trkpt lat="47.89301" lon="-3.93332">
        <ele>55.4</ele>
        <time>2021-08-12T09:25:38Z</time>
      </trkpt>
      <trkpt lat="47.89297" lon="-3.93336">
        <ele>55.4</ele>
        <time>2021-08-12T09:25:39Z</time>
      </trkpt>
      <trkpt lat="47.89292" lon="-3.93339">
        <ele>55.4</ele>
        <time>2021-08-12T09:25:40Z</time>
      </trkpt>
      <trkpt lat="47.89287" lon="-3.93342">
        <ele>55.2</ele>
        <time>2021-08-12T09:25:41Z</time>
      </trkpt>
      <trkpt lat="47.89282" lon="-3.93345">
        <ele>55.2</ele>
        <time>2021-08-12T09:25:42Z</time>
      </trkpt>
      <trkpt lat="47.89277" lon="-3.9335">
        <ele>55</ele>
        <time>2021-08-12T09:25:43Z</time>
      </trkpt>
      <trkpt lat="47.89272" lon="-3.93354">
        <ele>54.8</ele>
        <time>2021-08-12T09:25:44Z</time>
      </trkpt>
      <trkpt lat="47.89267" lon="-3.93357">
        <ele>54.8</ele>
        <time>2021-08-12T09:25:45Z</time>
      </trkpt>
      <trkpt lat="47.89262" lon="-3.9336">
        <ele>54.6</ele>
        <time>2021-08-12T09:25:46Z</time>
      </trkpt>
      <trkpt lat="47.89257" lon="-3.93364">
        <ele>54.6</ele>
        <time>2021-08-12T09:25:47Z</time>
      </trkpt>
      <trkpt lat="47.89252" lon="-3.93368">
        <ele>54.6</ele>
        <time>2021-08-12T09:25:48Z</time>
      </trkpt>
      <trkpt lat="47.89247" lon="-3.93371">
        <ele>54.6</ele>
        <time>2021-08-12T09:25:49Z</time>
      </trkpt>
      <trkpt lat="47.89242" lon="-3.93374">
        <ele>54.4</ele>
        <time>2021-08-12T09:25:50Z</time>
      </trkpt>
      <trkpt lat="47.89237" lon="-3.93377">
        <ele>54.4</ele>
        <time>2021-08-12T09:25:51Z</time>
      </trkpt>
      <trkpt lat="47.89233" lon="-3.9338">
        <ele>54.4</ele>
        <time>2021-08-12T09:25:52Z</time>
      </trkpt>
      <trkpt lat="47.89229" lon="-3.93382">
        <ele>54.4</ele>
        <time>2021-08-12T09:25:53Z</time>
      </trkpt>
      <trkpt lat="47.89223" lon="-3.93384">
        <ele>54.4</ele>
        <time>2021-08-12T09:25:54Z</time>
      </trkpt>
      <trkpt lat="47.89219" lon="-3.93386">
        <ele>54.4</ele>
        <time>2021-08-12T09:25:55Z</time>
      </trkpt>
      <trkpt lat="47.89214" lon="-3.93389">
        <ele>54.4</ele>
        <time>2021-08-12T09:25:56Z</time>
      </trkpt>
      <trkpt lat="47.89209" lon="-3.93391">
        <ele>54.2</ele>
        <time>2021-08-12T09:25:57Z</time>
      </trkpt>
      <trkpt lat="47.89204" lon="-3.93394">
        <ele>54.2</ele>
        <time>2021-08-12T09:25:58Z</time>
      </trkpt>
      <trkpt lat="47.89199" lon="-3.93397">
        <ele>54.2</ele>
        <time>2021-08-12T09:25:59Z</time>
      </trkpt>
      <trkpt lat="47.89194" lon="-3.93399">
        <ele>54.2</ele>
        <time>2021-08-12T09:26:00Z</time>
      </trkpt>
      <trkpt lat="47.89189" lon="-3.93402">
        <ele>54.2</ele>
        <time>2021-08-12T09:26:01Z</time>
      </trkpt>
      <trkpt lat="47.89184" lon="-3.93404">
        <ele>54.2</ele>
        <time>2021-08-12T09:26:02Z</time>
      </trkpt>
      <trkpt lat="47.89178" lon="-3.93407">
        <ele>54</ele>
        <time>2021-08-12T09:26:03Z</time>
      </trkpt>
      <trkpt lat="47.89173" lon="-3.93408">
        <ele>54</ele>
        <time>2021-08-12T09:26:04Z</time>
      </trkpt>
      <trkpt lat="47.89169" lon="-3.9341">
        <ele>54</ele>
        <time>2021-08-12T09:26:05Z</time>
      </trkpt>
      <trkpt lat="47.89164" lon="-3.93412">
        <ele>54</ele>
        <time>2021-08-12T09:26:06Z</time>
      </trkpt>
      <trkpt lat="47.89159" lon="-3.93413">
        <ele>53.8</ele>
        <time>2021-08-12T09:26:07Z</time>
      </trkpt>
      <trkpt lat="47.89155" lon="-3.93415">
        <ele>53.8</ele>
        <time>2021-08-12T09:26:08Z</time>
      </trkpt>
      <trkpt lat="47.89151" lon="-3.93416">
        <ele>53.6</ele>
        <time>2021-08-12T09:26:09Z</time>
      </trkpt>
      <trkpt lat="47.89145" lon="-3.93417">
        <ele>53.4</ele>
        <time>2021-08-12T09:26:10Z</time>
      </trkpt>
      <trkpt lat="47.89139" lon="-3.93417">
        <ele>53.4</ele>
        <time>2021-08-12T09:26:11Z</time>
      </trkpt>
      <trkpt lat="47.89133" lon="-3.93418">
        <ele>53.2</ele>
        <time>2021-08-12T09:26:12Z</time>
      </trkpt>
      <trkpt lat="47.89126" lon="-3.93419">
        <ele>53.2</ele>
        <time>2021-08-12T09:26:13Z</time>
      </trkpt>
      <trkpt lat="47.8912" lon="-3.9342">
        <ele>53</ele>
        <time>2021-08-12T09:26:14Z</time>
      </trkpt>
      <trkpt lat="47.89113" lon="-3.93421">
        <ele>52.8</ele>
        <time>2021-08-12T09:26:15Z</time>
      </trkpt>
      <trkpt lat="47.89106" lon="-3.93421">
        <ele>52.8</ele>
        <time>2021-08-12T09:26:16Z</time>
      </trkpt>
      <trkpt lat="47.89098" lon="-3.93421">
        <ele>52.8</ele>
        <time>2021-08-12T09:26:17Z</time>
      </trkpt>
      <trkpt lat="47.8909" lon="-3.93421">
        <ele>52.8</ele>
        <time>2021-08-12T09:26:18Z</time>
      </trkpt>
      <trkpt lat="47.89081" lon="-3.93421">
        <ele>52.6</ele>
        <time>2021-08-12T09:26:19Z</time>
      </trkpt>
      <trkpt lat="47.89074" lon="-3.9342">
        <ele>52.6</ele>
        <time>2021-08-12T09:26:20Z</time>
      </trkpt>
      <trkpt lat="47.89067" lon="-3.9342">
        <ele>52.4</ele>
        <time>2021-08-12T09:26:21Z</time>
      </trkpt>
      <trkpt lat="47.8906" lon="-3.9342">
        <ele>52.2</ele>
        <time>2021-08-12T09:26:22Z</time>
      </trkpt>
      <trkpt lat="47.89054" lon="-3.9342">
        <ele>52.2</ele>
        <time>2021-08-12T09:26:23Z</time>
      </trkpt>
      <trkpt lat="47.89048" lon="-3.9342">
        <ele>52</ele>
        <time>2021-08-12T09:26:24Z</time>
      </trkpt>
      <trkpt lat="47.89041" lon="-3.9342">
        <ele>52</ele>
        <time>2021-08-12T09:26:25Z</time>
      </trkpt>
      <trkpt lat="47.89034" lon="-3.9342">
        <ele>52</ele>
        <time>2021-08-12T09:26:26Z</time>
      </trkpt>
      <trkpt lat="47.89027" lon="-3.93419">
        <ele>51.8</ele>
        <time>2021-08-12T09:26:27Z</time>
      </trkpt>
      <trkpt lat="47.8902" lon="-3.93419">
        <ele>51.8</ele>
        <time>2021-08-12T09:26:28Z</time>
      </trkpt>
      <trkpt lat="47.89014" lon="-3.93419">
        <ele>51.8</ele>
        <time>2021-08-12T09:26:29Z</time>
      </trkpt>
      <trkpt lat="47.89007" lon="-3.93419">
        <ele>51.8</ele>
        <time>2021-08-12T09:26:30Z</time>
      </trkpt>
      <trkpt lat="47.89" lon="-3.93418">
        <ele>51.8</ele>
        <time>2021-08-12T09:26:31Z</time>
      </trkpt>
      <trkpt lat="47.88994" lon="-3.93418">
        <ele>51.8</ele>
        <time>2021-08-12T09:26:32Z</time>
      </trkpt>
      <trkpt lat="47.88987" lon="-3.93418">
        <ele>51.6</ele>
        <time>2021-08-12T09:26:33Z</time>
      </trkpt>
      <trkpt lat="47.8898" lon="-3.93418">
        <ele>51.6</ele>
        <time>2021-08-12T09:26:34Z</time>
      </trkpt>
      <trkpt lat="47.88974" lon="-3.93418">
        <ele>51.4</ele>
        <time>2021-08-12T09:26:35Z</time>
      </trkpt>
      <trkpt lat="47.88968" lon="-3.93418">
        <ele>51.4</ele>
        <time>2021-08-12T09:26:36Z</time>
      </trkpt>
      <trkpt lat="47.88962" lon="-3.93418">
        <ele>51.4</ele>
        <time>2021-08-12T09:26:37Z</time>
      </trkpt>
      <trkpt lat="47.88955" lon="-3.93417">
        <ele>51.2</ele>
        <time>2021-08-12T09:26:38Z</time>
      </trkpt>
      <trkpt lat="47.88949" lon="-3.93417">
        <ele>51.2</ele>
        <time>2021-08-12T09:26:39Z</time>
      </trkpt>
      <trkpt lat="47.88942" lon="-3.93416">
        <ele>51.2</ele>
        <time>2021-08-12T09:26:40Z</time>
      </trkpt>
      <trkpt lat="47.88935" lon="-3.93416">
        <ele>51.2</ele>
        <time>2021-08-12T09:26:41Z</time>
      </trkpt>
      <trkpt lat="47.88928" lon="-3.93416">
        <ele>51.2</ele>
        <time>2021-08-12T09:26:42Z</time>
      </trkpt>
      <trkpt lat="47.88921" lon="-3.93416">
        <ele>51.2</ele>
        <time>2021-08-12T09:26:43Z</time>
      </trkpt>
      <trkpt lat="47.88914" lon="-3.93415">
        <ele>51.2</ele>
        <time>2021-08-12T09:26:44Z</time>
      </trkpt>
      <trkpt lat="47.88907" lon="-3.93415">
        <ele>51</ele>
        <time>2021-08-12T09:26:45Z</time>
      </trkpt>
      <trkpt lat="47.889" lon="-3.93415">
        <ele>50.8</ele>
        <time>2021-08-12T09:26:46Z</time>
      </trkpt>
      <trkpt lat="47.88893" lon="-3.93415">
        <ele>50.6</ele>
        <time>2021-08-12T09:26:47Z</time>
      </trkpt>
      <trkpt lat="47.88886" lon="-3.93415">
        <ele>50.2</ele>
        <time>2021-08-12T09:26:48Z</time>
      </trkpt>
      <trkpt lat="47.88879" lon="-3.93414">
        <ele>49.8</ele>
        <time>2021-08-12T09:26:49Z</time>
      </trkpt>
      <trkpt lat="47.88872" lon="-3.93414">
        <ele>49.6</ele>
        <time>2021-08-12T09:26:50Z</time>
      </trkpt>
      <trkpt lat="47.88865" lon="-3.93413">
        <ele>49.4</ele>
        <time>2021-08-12T09:26:51Z</time>
      </trkpt>
      <trkpt lat="47.88858" lon="-3.93412">
        <ele>49.2</ele>
        <time>2021-08-12T09:26:52Z</time>
      </trkpt>
      <trkpt lat="47.88852" lon="-3.93412">
        <ele>49.2</ele>
        <time>2021-08-12T09:26:53Z</time>
      </trkpt>
      <trkpt lat="47.88845" lon="-3.93411">
        <ele>49</ele>
        <time>2021-08-12T09:26:54Z</time>
      </trkpt>
      <trkpt lat="47.88838" lon="-3.9341">
        <ele>49</ele>
        <time>2021-08-12T09:26:55Z</time>
      </trkpt>
      <trkpt lat="47.88832" lon="-3.9341">
        <ele>49</ele>
        <time>2021-08-12T09:26:56Z</time>
      </trkpt>
      <trkpt lat="47.88826" lon="-3.9341">
        <ele>48.8</ele>
        <time>2021-08-12T09:26:57Z</time>
      </trkpt>
      <trkpt lat="47.8882" lon="-3.93409">
        <ele>48.8</ele>
        <time>2021-08-12T09:26:58Z</time>
      </trkpt>
      <trkpt lat="47.88814" lon="-3.93408">
        <ele>48.6</ele>
        <time>2021-08-12T09:26:59Z</time>
      </trkpt>
      <trkpt lat="47.88808" lon="-3.93407">
        <ele>48.6</ele>
        <time>2021-08-12T09:27:00Z</time>
      </trkpt>
      <trkpt lat="47.88803" lon="-3.93407">
        <ele>48.6</ele>
        <time>2021-08-12T09:27:01Z</time>
      </trkpt>
      <trkpt lat="47.88797" lon="-3.93406">
        <ele>48.4</ele>
        <time>2021-08-12T09:27:02Z</time>
      </trkpt>
      <trkpt lat="47.88791" lon="-3.93405">
        <ele>48.4</ele>
        <time>2021-08-12T09:27:03Z</time>
      </trkpt>
      <trkpt lat="47.88785" lon="-3.93403">
        <ele>48</ele>
        <time>2021-08-12T09:27:04Z</time>
      </trkpt>
      <trkpt lat="47.88779" lon="-3.93401">
        <ele>47.6</ele>
        <time>2021-08-12T09:27:05Z</time>
      </trkpt>
      <trkpt lat="47.88773" lon="-3.93399">
        <ele>47.2</ele>
        <time>2021-08-12T09:27:06Z</time>
      </trkpt>
      <trkpt lat="47.88766" lon="-3.93397">
        <ele>46.6</ele>
        <time>2021-08-12T09:27:07Z</time>
      </trkpt>
      <trkpt lat="47.8876" lon="-3.93395">
        <ele>46.4</ele>
        <time>2021-08-12T09:27:08Z</time>
      </trkpt>
      <trkpt lat="47.88753" lon="-3.93394">
        <ele>45.8</ele>
        <time>2021-08-12T09:27:09Z</time>
      </trkpt>
      <trkpt lat="47.88747" lon="-3.93392">
        <ele>45.6</ele>
        <time>2021-08-12T09:27:10Z</time>
      </trkpt>
      <trkpt lat="47.88741" lon="-3.93389">
        <ele>45.4</ele>
        <time>2021-08-12T09:27:11Z</time>
      </trkpt>
      <trkpt lat="47.88734" lon="-3.93386">
        <ele>45.2</ele>
        <time>2021-08-12T09:27:12Z</time>
      </trkpt>
      <trkpt lat="47.88727" lon="-3.93382">
        <ele>45</ele>
        <time>2021-08-12T09:27:13Z</time>
      </trkpt>
      <trkpt lat="47.88721" lon="-3.93378">
        <ele>45</ele>
        <time>2021-08-12T09:27:14Z</time>
      </trkpt>
      <trkpt lat="47.88714" lon="-3.93375">
        <ele>45</ele>
        <time>2021-08-12T09:27:15Z</time>
      </trkpt>
      <trkpt lat="47.88708" lon="-3.93371">
        <ele>44.8</ele>
        <time>2021-08-12T09:27:16Z</time>
      </trkpt>
      <trkpt lat="47.88702" lon="-3.93366">
        <ele>44.8</ele>
        <time>2021-08-12T09:27:17Z</time>
      </trkpt>
      <trkpt lat="47.88695" lon="-3.93362">
        <ele>44.6</ele>
        <time>2021-08-12T09:27:18Z</time>
      </trkpt>
      <trkpt lat="47.88688" lon="-3.93358">
        <ele>44.6</ele>
        <time>2021-08-12T09:27:19Z</time>
      </trkpt>
      <trkpt lat="47.88682" lon="-3.93353">
        <ele>44.6</ele>
        <time>2021-08-12T09:27:20Z</time>
      </trkpt>
      <trkpt lat="47.88676" lon="-3.93349">
        <ele>44.4</ele>
        <time>2021-08-12T09:27:21Z</time>
      </trkpt>
      <trkpt lat="47.88669" lon="-3.93345">
        <ele>44.4</ele>
        <time>2021-08-12T09:27:22Z</time>
      </trkpt>
      <trkpt lat="47.88664" lon="-3.93341">
        <ele>44.4</ele>
        <time>2021-08-12T09:27:23Z</time>
      </trkpt>
      <trkpt lat="47.88658" lon="-3.93337">
        <ele>44.4</ele>
        <time>2021-08-12T09:27:24Z</time>
      </trkpt>
      <trkpt lat="47.88654" lon="-3.93333">
        <ele>44.2</ele>
        <time>2021-08-12T09:27:25Z</time>
      </trkpt>
      <trkpt lat="47.88649" lon="-3.9333">
        <ele>44.2</ele>
        <time>2021-08-12T09:27:26Z</time>
      </trkpt>
      <trkpt lat="47.88643" lon="-3.93326">
        <ele>44</ele>
        <time>2021-08-12T09:27:27Z</time>
      </trkpt>
      <trkpt lat="47.88637" lon="-3.93322">
        <ele>43.8</ele>
        <time>2021-08-12T09:27:28Z</time>
      </trkpt>
      <trkpt lat="47.88631" lon="-3.93317">
        <ele>43.6</ele>
        <time>2021-08-12T09:27:29Z</time>
      </trkpt>
      <trkpt lat="47.88623" lon="-3.9331">
        <ele>43.4</ele>
        <time>2021-08-12T09:27:30Z</time>
      </trkpt>
      <trkpt lat="47.88616" lon="-3.93303">
        <ele>43.2</ele>
        <time>2021-08-12T09:27:31Z</time>
      </trkpt>
      <trkpt lat="47.8861" lon="-3.93297">
        <ele>43</ele>
        <time>2021-08-12T09:27:32Z</time>
      </trkpt>
      <trkpt lat="47.88603" lon="-3.93291">
        <ele>42.8</ele>
        <time>2021-08-12T09:27:33Z</time>
      </trkpt>
      <trkpt lat="47.88597" lon="-3.93283">
        <ele>42.6</ele>
        <time>2021-08-12T09:27:34Z</time>
      </trkpt>
      <trkpt lat="47.8859" lon="-3.93275">
        <ele>42.2</ele>
        <time>2021-08-12T09:27:35Z</time>
      </trkpt>
      <trkpt lat="47.88583" lon="-3.93267">
        <ele>42</ele>
        <time>2021-08-12T09:27:36Z</time>
      </trkpt>
      <trkpt lat="47.88576" lon="-3.93259">
        <ele>41.8</ele>
        <time>2021-08-12T09:27:37Z</time>
      </trkpt>
      <trkpt lat="47.8857" lon="-3.93251">
        <ele>41.6</ele>
        <time>2021-08-12T09:27:38Z</time>
      </trkpt>
      <trkpt lat="47.88563" lon="-3.93243">
        <ele>41.4</ele>
        <time>2021-08-12T09:27:39Z</time>
      </trkpt>
      <trkpt lat="47.88558" lon="-3.93235">
        <ele>41.2</ele>
        <time>2021-08-12T09:27:40Z</time>
      </trkpt>
      <trkpt lat="47.88553" lon="-3.93227">
        <ele>41</ele>
        <time>2021-08-12T09:27:41Z</time>
      </trkpt>
      <trkpt lat="47.88548" lon="-3.9322">
        <ele>40.8</ele>
        <time>2021-08-12T09:27:42Z</time>
      </trkpt>
      <trkpt lat="47.88542" lon="-3.93212">
        <ele>40.6</ele>
        <time>2021-08-12T09:27:43Z</time>
      </trkpt>
      <trkpt lat="47.88537" lon="-3.93203">
        <ele>40.6</ele>
        <time>2021-08-12T09:27:44Z</time>
      </trkpt>
      <trkpt lat="47.88532" lon="-3.93195">
        <ele>40.4</ele>
        <time>2021-08-12T09:27:45Z</time>
      </trkpt>
      <trkpt lat="47.88526" lon="-3.93186">
        <ele>40.4</ele>
        <time>2021-08-12T09:27:46Z</time>
      </trkpt>
      <trkpt lat="47.88521" lon="-3.93178">
        <ele>40.4</ele>
        <time>2021-08-12T09:27:47Z</time>
      </trkpt>
      <trkpt lat="47.88516" lon="-3.93169">
        <ele>40.4</ele>
        <time>2021-08-12T09:27:48Z</time>
      </trkpt>
      <trkpt lat="47.88511" lon="-3.9316">
        <ele>40.4</ele>
        <time>2021-08-12T09:27:49Z</time>
      </trkpt>
      <trkpt lat="47.88506" lon="-3.93151">
        <ele>40.4</ele>
        <time>2021-08-12T09:27:50Z</time>
      </trkpt>
      <trkpt lat="47.88502" lon="-3.93142">
        <ele>40.2</ele>
        <time>2021-08-12T09:27:51Z</time>
      </trkpt>
      <trkpt lat="47.88497" lon="-3.93132">
        <ele>40.2</ele>
        <time>2021-08-12T09:27:52Z</time>
      </trkpt>
      <trkpt lat="47.88493" lon="-3.93123">
        <ele>40</ele>
        <time>2021-08-12T09:27:53Z</time>
      </trkpt>
      <trkpt lat="47.88489" lon="-3.93114">
        <ele>39.8</ele>
        <time>2021-08-12T09:27:54Z</time>
      </trkpt>
      <trkpt lat="47.88485" lon="-3.93105">
        <ele>39.6</ele>
        <time>2021-08-12T09:27:55Z</time>
      </trkpt>
      <trkpt lat="47.88482" lon="-3.93096">
        <ele>38.8</ele>
        <time>2021-08-12T09:27:56Z</time>
      </trkpt>
      <trkpt lat="47.88478" lon="-3.93087">
        <ele>38.4</ele>
        <time>2021-08-12T09:27:57Z</time>
      </trkpt>
      <trkpt lat="47.88474" lon="-3.93079">
        <ele>38.2</ele>
        <time>2021-08-12T09:27:58Z</time>
      </trkpt>
      <trkpt lat="47.88471" lon="-3.93071">
        <ele>38.2</ele>
        <time>2021-08-12T09:27:59Z</time>
      </trkpt>
      <trkpt lat="47.88468" lon="-3.93063">
        <ele>38.2</ele>
        <time>2021-08-12T09:28:00Z</time>
      </trkpt>
      <trkpt lat="47.88465" lon="-3.93055">
        <ele>38</ele>
        <time>2021-08-12T09:28:01Z</time>
      </trkpt>
      <trkpt lat="47.88462" lon="-3.93047">
        <ele>38</ele>
        <time>2021-08-12T09:28:02Z</time>
      </trkpt>
      <trkpt lat="47.88459" lon="-3.9304">
        <ele>38</ele>
        <time>2021-08-12T09:28:03Z</time>
      </trkpt>
      <trkpt lat="47.88457" lon="-3.93032">
        <ele>37.8</ele>
        <time>2021-08-12T09:28:04Z</time>
      </trkpt>
      <trkpt lat="47.88455" lon="-3.93024">
        <ele>37.8</ele>
        <time>2021-08-12T09:28:05Z</time>
      </trkpt>
      <trkpt lat="47.88453" lon="-3.93018">
        <ele>37.8</ele>
        <time>2021-08-12T09:28:06Z</time>
      </trkpt>
      <trkpt lat="47.88451" lon="-3.93012">
        <ele>37.8</ele>
        <time>2021-08-12T09:28:07Z</time>
      </trkpt>
      <trkpt lat="47.8845" lon="-3.93008">
        <ele>38</ele>
        <time>2021-08-12T09:28:08Z</time>
      </trkpt>
      <trkpt lat="47.88448" lon="-3.93004">
        <ele>38</ele>
        <time>2021-08-12T09:28:09Z</time>
      </trkpt>
      <trkpt lat="47.88447" lon="-3.92999">
        <ele>38</ele>
        <time>2021-08-12T09:28:10Z</time>
      </trkpt>
      <trkpt lat="47.88445" lon="-3.92995">
        <ele>38</ele>
        <time>2021-08-12T09:28:11Z</time>
      </trkpt>
      <trkpt lat="47.88444" lon="-3.92992">
        <ele>38</ele>
        <time>2021-08-12T09:28:12Z</time>
      </trkpt>
      <trkpt lat="47.88442" lon="-3.9299">
        <ele>38</ele>
        <time>2021-08-12T09:28:13Z</time>
      </trkpt>
      <trkpt lat="47.88441" lon="-3.92987">
        <ele>38</ele>
        <time>2021-08-12T09:28:14Z</time>
      </trkpt>
      <trkpt lat="47.8844" lon="-3.92983">
        <ele>38</ele>
        <time>2021-08-12T09:28:15Z</time>
      </trkpt>
      <trkpt lat="47.88439" lon="-3.92979">
        <ele>38.4</ele>
        <time>2021-08-12T09:28:16Z</time>
      </trkpt>
      <trkpt lat="47.88438" lon="-3.92976">
        <ele>38.6</ele>
        <time>2021-08-12T09:28:17Z</time>
      </trkpt>
      <trkpt lat="47.88438" lon="-3.92973">
        <ele>38.6</ele>
        <time>2021-08-12T09:28:18Z</time>
      </trkpt>
      <trkpt lat="47.88438" lon="-3.92969">
        <ele>38.6</ele>
        <time>2021-08-12T09:28:19Z</time>
      </trkpt>
      <trkpt lat="47.88438" lon="-3.92966">
        <ele>38.6</ele>
        <time>2021-08-12T09:28:20Z</time>
      </trkpt>
      <trkpt lat="47.88438" lon="-3.92962">
        <ele>38.6</ele>
        <time>2021-08-12T09:28:21Z</time>
      </trkpt>
      <trkpt lat="47.88437" lon="-3.92958">
        <ele>38.6</ele>
        <time>2021-08-12T09:28:22Z</time>
      </trkpt>
      <trkpt lat="47.88436" lon="-3.92954">
        <ele>38.6</ele>
        <time>2021-08-12T09:28:23Z</time>
      </trkpt>
      <trkpt lat="47.88435" lon="-3.92949">
        <ele>38.6</ele>
        <time>2021-08-12T09:28:24Z</time>
      </trkpt>
      <trkpt lat="47.88434" lon="-3.92944">
        <ele>38.6</ele>
        <time>2021-08-12T09:28:25Z</time>
      </trkpt>
      <trkpt lat="47.88434" lon="-3.9294">
        <ele>38.6</ele>
        <time>2021-08-12T09:28:26Z</time>
      </trkpt>
      <trkpt lat="47.88432" lon="-3.92935">
        <ele>38.6</ele>
        <time>2021-08-12T09:28:27Z</time>
      </trkpt>
      <trkpt lat="47.88431" lon="-3.9293">
        <ele>38.6</ele>
        <time>2021-08-12T09:28:28Z</time>
      </trkpt>
      <trkpt lat="47.8843" lon="-3.92925">
        <ele>38.4</ele>
        <time>2021-08-12T09:28:29Z</time>
      </trkpt>
      <trkpt lat="47.88429" lon="-3.92919">
        <ele>38.4</ele>
        <time>2021-08-12T09:28:30Z</time>
      </trkpt>
      <trkpt lat="47.88428" lon="-3.92912">
        <ele>38.4</ele>
        <time>2021-08-12T09:28:31Z</time>
      </trkpt>
      <trkpt lat="47.88426" lon="-3.92906">
        <ele>38.2</ele>
        <time>2021-08-12T09:28:32Z</time>
      </trkpt>
      <trkpt lat="47.88425" lon="-3.92899">
        <ele>38.2</ele>
        <time>2021-08-12T09:28:33Z</time>
      </trkpt>
      <trkpt lat="47.88423" lon="-3.92893">
        <ele>38.2</ele>
        <time>2021-08-12T09:28:34Z</time>
      </trkpt>
      <trkpt lat="47.88421" lon="-3.92886">
        <ele>38</ele>
        <time>2021-08-12T09:28:35Z</time>
      </trkpt>
      <trkpt lat="47.8842" lon="-3.92878">
        <ele>38</ele>
        <time>2021-08-12T09:28:36Z</time>
      </trkpt>
      <trkpt lat="47.88418" lon="-3.92871">
        <ele>37.8</ele>
        <time>2021-08-12T09:28:37Z</time>
      </trkpt>
      <trkpt lat="47.88417" lon="-3.92863">
        <ele>37.8</ele>
        <time>2021-08-12T09:28:38Z</time>
      </trkpt>
      <trkpt lat="47.88416" lon="-3.92855">
        <ele>37.6</ele>
        <time>2021-08-12T09:28:39Z</time>
      </trkpt>
      <trkpt lat="47.88414" lon="-3.92847">
        <ele>37.6</ele>
        <time>2021-08-12T09:28:40Z</time>
      </trkpt>
      <trkpt lat="47.88413" lon="-3.92839">
        <ele>37.6</ele>
        <time>2021-08-12T09:28:41Z</time>
      </trkpt>
      <trkpt lat="47.88411" lon="-3.9283">
        <ele>37.6</ele>
        <time>2021-08-12T09:28:42Z</time>
      </trkpt>
      <trkpt lat="47.8841" lon="-3.92821">
        <ele>37.4</ele>
        <time>2021-08-12T09:28:43Z</time>
      </trkpt>
      <trkpt lat="47.88409" lon="-3.92812">
        <ele>37.2</ele>
        <time>2021-08-12T09:28:44Z</time>
      </trkpt>
      <trkpt lat="47.88407" lon="-3.92803">
        <ele>37</ele>
        <time>2021-08-12T09:28:45Z</time>
      </trkpt>
      <trkpt lat="47.88405" lon="-3.92794">
        <ele>36.8</ele>
        <time>2021-08-12T09:28:46Z</time>
      </trkpt>
      <trkpt lat="47.88403" lon="-3.92784">
        <ele>36.4</ele>
        <time>2021-08-12T09:28:47Z</time>
      </trkpt>
      <trkpt lat="47.88401" lon="-3.92775">
        <ele>36.2</ele>
        <time>2021-08-12T09:28:48Z</time>
      </trkpt>
      <trkpt lat="47.884" lon="-3.92765">
        <ele>36</ele>
        <time>2021-08-12T09:28:49Z</time>
      </trkpt>
      <trkpt lat="47.88398" lon="-3.92755">
        <ele>35.6</ele>
        <time>2021-08-12T09:28:50Z</time>
      </trkpt>
      <trkpt lat="47.88396" lon="-3.92744">
        <ele>35.4</ele>
        <time>2021-08-12T09:28:51Z</time>
      </trkpt>
      <trkpt lat="47.88395" lon="-3.92734">
        <ele>35.2</ele>
        <time>2021-08-12T09:28:52Z</time>
      </trkpt>
      <trkpt lat="47.88393" lon="-3.92724">
        <ele>35</ele>
        <time>2021-08-12T09:28:53Z</time>
      </trkpt>
      <trkpt lat="47.88391" lon="-3.92714">
        <ele>34.8</ele>
        <time>2021-08-12T09:28:54Z</time>
      </trkpt>
      <trkpt lat="47.8839" lon="-3.92703">
        <ele>34.4</ele>
        <time>2021-08-12T09:28:55Z</time>
      </trkpt>
      <trkpt lat="47.88388" lon="-3.92693">
        <ele>34.2</ele>
        <time>2021-08-12T09:28:56Z</time>
      </trkpt>
      <trkpt lat="47.88386" lon="-3.92683">
        <ele>34.2</ele>
        <time>2021-08-12T09:28:57Z</time>
      </trkpt>
      <trkpt lat="47.88384" lon="-3.92673">
        <ele>34</ele>
        <time>2021-08-12T09:28:58Z</time>
      </trkpt>
      <trkpt lat="47.88382" lon="-3.92662">
        <ele>34</ele>
        <time>2021-08-12T09:28:59Z</time>
      </trkpt>
      <trkpt lat="47.88381" lon="-3.92653">
        <ele>34</ele>
        <time>2021-08-12T09:29:00Z</time>
      </trkpt>
      <trkpt lat="47.88379" lon="-3.92643">
        <ele>33.8</ele>
        <time>2021-08-12T09:29:01Z</time>
      </trkpt>
      <trkpt lat="47.88377" lon="-3.92633">
        <ele>33.6</ele>
        <time>2021-08-12T09:29:02Z</time>
      </trkpt>
      <trkpt lat="47.88375" lon="-3.92623">
        <ele>33.2</ele>
        <time>2021-08-12T09:29:03Z</time>
      </trkpt>
      <trkpt lat="47.88374" lon="-3.92613">
        <ele>32.8</ele>
        <time>2021-08-12T09:29:04Z</time>
      </trkpt>
      <trkpt lat="47.88371" lon="-3.92603">
        <ele>32.6</ele>
        <time>2021-08-12T09:29:05Z</time>
      </trkpt>
      <trkpt lat="47.88369" lon="-3.92593">
        <ele>32.2</ele>
        <time>2021-08-12T09:29:06Z</time>
      </trkpt>
      <trkpt lat="47.88368" lon="-3.92583">
        <ele>32.2</ele>
        <time>2021-08-12T09:29:07Z</time>
      </trkpt>
      <trkpt lat="47.88366" lon="-3.92572">
        <ele>32</ele>
        <time>2021-08-12T09:29:08Z</time>
      </trkpt>
      <trkpt lat="47.88363" lon="-3.92562">
        <ele>32</ele>
        <time>2021-08-12T09:29:09Z</time>
      </trkpt>
      <trkpt lat="47.88361" lon="-3.92552">
        <ele>32</ele>
        <time>2021-08-12T09:29:10Z</time>
      </trkpt>
      <trkpt lat="47.88358" lon="-3.92542">
        <ele>31.8</ele>
        <time>2021-08-12T09:29:11Z</time>
      </trkpt>
      <trkpt lat="47.88355" lon="-3.92532">
        <ele>31.6</ele>
        <time>2021-08-12T09:29:12Z</time>
      </trkpt>
      <trkpt lat="47.88352" lon="-3.92522">
        <ele>31.2</ele>
        <time>2021-08-12T09:29:13Z</time>
      </trkpt>
      <trkpt lat="47.88349" lon="-3.92513">
        <ele>31</ele>
        <time>2021-08-12T09:29:14Z</time>
      </trkpt>
      <trkpt lat="47.88347" lon="-3.92505">
        <ele>30.6</ele>
        <time>2021-08-12T09:29:15Z</time>
      </trkpt>
      <trkpt lat="47.88344" lon="-3.92497">
        <ele>30.4</ele>
        <time>2021-08-12T09:29:16Z</time>
      </trkpt>
      <trkpt lat="47.88341" lon="-3.92487">
        <ele>30</ele>
        <time>2021-08-12T09:29:17Z</time>
      </trkpt>
      <trkpt lat="47.88338" lon="-3.92477">
        <ele>29.8</ele>
        <time>2021-08-12T09:29:18Z</time>
      </trkpt>
      <trkpt lat="47.88335" lon="-3.92468">
        <ele>29.4</ele>
        <time>2021-08-12T09:29:19Z</time>
      </trkpt>
      <trkpt lat="47.88331" lon="-3.92459">
        <ele>29.4</ele>
        <time>2021-08-12T09:29:20Z</time>
      </trkpt>
      <trkpt lat="47.88328" lon="-3.92451">
        <ele>29.2</ele>
        <time>2021-08-12T09:29:21Z</time>
      </trkpt>
      <trkpt lat="47.88326" lon="-3.92445">
        <ele>29.2</ele>
        <time>2021-08-12T09:29:22Z</time>
      </trkpt>
      <trkpt lat="47.88324" lon="-3.92441">
        <ele>29.2</ele>
        <time>2021-08-12T09:29:23Z</time>
      </trkpt>
      <trkpt lat="47.88323" lon="-3.92438">
        <ele>29.2</ele>
        <time>2021-08-12T09:29:24Z</time>
      </trkpt>
      <trkpt lat="47.88322" lon="-3.92431">
        <ele>30.8</ele>
        <time>2021-08-12T09:31:05Z</time>
      </trkpt>
      <trkpt lat="47.8832" lon="-3.92429">
        <ele>30.8</ele>
        <time>2021-08-12T09:31:06Z</time>
      </trkpt>
      <trkpt lat="47.88319" lon="-3.92427">
        <ele>30.8</ele>
        <time>2021-08-12T09:31:07Z</time>
      </trkpt>
      <trkpt lat="47.88318" lon="-3.92424">
        <ele>30.8</ele>
        <time>2021-08-12T09:31:08Z</time>
      </trkpt>
      <trkpt lat="47.88315" lon="-3.92417">
        <ele>30.8</ele>
        <time>2021-08-12T09:31:10Z</time>
      </trkpt>
      <trkpt lat="47.88313" lon="-3.92413">
        <ele>30.8</ele>
        <time>2021-08-12T09:31:11Z</time>
      </trkpt>
      <trkpt lat="47.88311" lon="-3.92409">
        <ele>30.8</ele>
        <time>2021-08-12T09:31:12Z</time>
      </trkpt>
      <trkpt lat="47.88309" lon="-3.92405">
        <ele>30.8</ele>
        <time>2021-08-12T09:31:13Z</time>
      </trkpt>
      <trkpt lat="47.88307" lon="-3.924">
        <ele>30.6</ele>
        <time>2021-08-12T09:31:14Z</time>
      </trkpt>
      <trkpt lat="47.88302" lon="-3.92389">
        <ele>30.6</ele>
        <time>2021-08-12T09:31:16Z</time>
      </trkpt>
      <trkpt lat="47.883" lon="-3.92384">
        <ele>30.6</ele>
        <time>2021-08-12T09:31:17Z</time>
      </trkpt>
      <trkpt lat="47.88297" lon="-3.92379">
        <ele>30.6</ele>
        <time>2021-08-12T09:31:18Z</time>
      </trkpt>
      <trkpt lat="47.88294" lon="-3.92374">
        <ele>30.4</ele>
        <time>2021-08-12T09:31:19Z</time>
      </trkpt>
      <trkpt lat="47.88291" lon="-3.92368">
        <ele>30.4</ele>
        <time>2021-08-12T09:31:20Z</time>
      </trkpt>
      <trkpt lat="47.88288" lon="-3.92363">
        <ele>30.2</ele>
        <time>2021-08-12T09:31:21Z</time>
      </trkpt>
      <trkpt lat="47.88285" lon="-3.92358">
        <ele>30</ele>
        <time>2021-08-12T09:31:22Z</time>
      </trkpt>
      <trkpt lat="47.88283" lon="-3.92353">
        <ele>29.8</ele>
        <time>2021-08-12T09:31:23Z</time>
      </trkpt>
      <trkpt lat="47.8828" lon="-3.92348">
        <ele>29.8</ele>
        <time>2021-08-12T09:31:24Z</time>
      </trkpt>
      <trkpt lat="47.88276" lon="-3.92344">
        <ele>29.8</ele>
        <time>2021-08-12T09:31:25Z</time>
      </trkpt>
      <trkpt lat="47.88271" lon="-3.92335">
        <ele>29.4</ele>
        <time>2021-08-12T09:31:27Z</time>
      </trkpt>
      <trkpt lat="47.88269" lon="-3.92333">
        <ele>29.2</ele>
        <time>2021-08-12T09:31:28Z</time>
      </trkpt>
      <trkpt lat="47.88267" lon="-3.9233">
        <ele>29.2</ele>
        <time>2021-08-12T09:31:29Z</time>
      </trkpt>
      <trkpt lat="47.88265" lon="-3.92327">
        <ele>28.8</ele>
        <time>2021-08-12T09:31:30Z</time>
      </trkpt>
      <trkpt lat="47.88262" lon="-3.92323">
        <ele>28.8</ele>
        <time>2021-08-12T09:31:31Z</time>
      </trkpt>
      <trkpt lat="47.8826" lon="-3.92321">
        <ele>28.6</ele>
        <time>2021-08-12T09:31:32Z</time>
      </trkpt>
      <trkpt lat="47.88258" lon="-3.92318">
        <ele>28.6</ele>
        <time>2021-08-12T09:31:33Z</time>
      </trkpt>
      <trkpt lat="47.88256" lon="-3.92315">
        <ele>28.6</ele>
        <time>2021-08-12T09:31:34Z</time>
      </trkpt>
      <trkpt lat="47.88254" lon="-3.92312">
        <ele>28.4</ele>
        <time>2021-08-12T09:31:35Z</time>
      </trkpt>
      <trkpt lat="47.88252" lon="-3.92309">
        <ele>28.4</ele>
        <time>2021-08-12T09:31:36Z</time>
      </trkpt>
      <trkpt lat="47.88245" lon="-3.92301">
        <ele>28.2</ele>
        <time>2021-08-12T09:31:38Z</time>
      </trkpt>
      <trkpt lat="47.88241" lon="-3.92294">
        <ele>28.2</ele>
        <time>2021-08-12T09:31:39Z</time>
      </trkpt>
      <trkpt lat="47.88237" lon="-3.92289">
        <ele>28</ele>
        <time>2021-08-12T09:31:40Z</time>
      </trkpt>
      <trkpt lat="47.88233" lon="-3.92285">
        <ele>28</ele>
        <time>2021-08-12T09:31:41Z</time>
      </trkpt>
      <trkpt lat="47.88228" lon="-3.92281">
        <ele>28</ele>
        <time>2021-08-12T09:31:42Z</time>
      </trkpt>
      <trkpt lat="47.88224" lon="-3.92277">
        <ele>27.8</ele>
        <time>2021-08-12T09:31:43Z</time>
      </trkpt>
      <trkpt lat="47.88219" lon="-3.92271">
        <ele>27.8</ele>
        <time>2021-08-12T09:31:44Z</time>
      </trkpt>
      <trkpt lat="47.88215" lon="-3.92266">
        <ele>27.6</ele>
        <time>2021-08-12T09:31:45Z</time>
      </trkpt>
      <trkpt lat="47.88209" lon="-3.9226">
        <ele>27.6</ele>
        <time>2021-08-12T09:31:46Z</time>
      </trkpt>
      <trkpt lat="47.88204" lon="-3.92254">
        <ele>27.6</ele>
        <time>2021-08-12T09:31:47Z</time>
      </trkpt>
      <trkpt lat="47.88193" lon="-3.92244">
        <ele>27.2</ele>
        <time>2021-08-12T09:31:49Z</time>
      </trkpt>
      <trkpt lat="47.88188" lon="-3.92239">
        <ele>27</ele>
        <time>2021-08-12T09:31:50Z</time>
      </trkpt>
      <trkpt lat="47.88184" lon="-3.92235">
        <ele>27</ele>
        <time>2021-08-12T09:31:51Z</time>
      </trkpt>
      <trkpt lat="47.88179" lon="-3.92229">
        <ele>26.8</ele>
        <time>2021-08-12T09:31:52Z</time>
      </trkpt>
      <trkpt lat="47.88175" lon="-3.92225">
        <ele>26.6</ele>
        <time>2021-08-12T09:31:53Z</time>
      </trkpt>
      <trkpt lat="47.8817" lon="-3.92221">
        <ele>26.6</ele>
        <time>2021-08-12T09:31:54Z</time>
      </trkpt>
      <trkpt lat="47.88165" lon="-3.92217">
        <ele>26.4</ele>
        <time>2021-08-12T09:31:55Z</time>
      </trkpt>
      <trkpt lat="47.8816" lon="-3.92214">
        <ele>26.2</ele>
        <time>2021-08-12T09:31:56Z</time>
      </trkpt>
      <trkpt lat="47.88156" lon="-3.9221">
        <ele>26</ele>
        <time>2021-08-12T09:31:57Z</time>
      </trkpt>
      <trkpt lat="47.88151" lon="-3.92207">
        <ele>25.8</ele>
        <time>2021-08-12T09:31:58Z</time>
      </trkpt>
      <trkpt lat="47.88142" lon="-3.92201">
        <ele>25.6</ele>
        <time>2021-08-12T09:32:00Z</time>
      </trkpt>
      <trkpt lat="47.88137" lon="-3.92199">
        <ele>25.6</ele>
        <time>2021-08-12T09:32:01Z</time>
      </trkpt>
      <trkpt lat="47.88133" lon="-3.92196">
        <ele>25.6</ele>
        <time>2021-08-12T09:32:02Z</time>
      </trkpt>
      <trkpt lat="47.88128" lon="-3.92193">
        <ele>25.6</ele>
        <time>2021-08-12T09:32:03Z</time>
      </trkpt>
      <trkpt lat="47.88124" lon="-3.92191">
        <ele>25.6</ele>
        <time>2021-08-12T09:32:04Z</time>
      </trkpt>
      <trkpt lat="47.8812" lon="-3.92189">
        <ele>25.4</ele>
        <time>2021-08-12T09:32:05Z</time>
      </trkpt>
      <trkpt lat="47.88115" lon="-3.92187">
        <ele>25.4</ele>
        <time>2021-08-12T09:32:06Z</time>
      </trkpt>
      <trkpt lat="47.88111" lon="-3.92185">
        <ele>25.4</ele>
        <time>2021-08-12T09:32:07Z</time>
      </trkpt>
      <trkpt lat="47.88106" lon="-3.92182">
        <ele>25.4</ele>
        <time>2021-08-12T09:32:08Z</time>
      </trkpt>
      <trkpt lat="47.88102" lon="-3.9218">
        <ele>25.4</ele>
        <time>2021-08-12T09:32:09Z</time>
      </trkpt>
      <trkpt lat="47.88093" lon="-3.92176">
        <ele>25.4</ele>
        <time>2021-08-12T09:32:11Z</time>
      </trkpt>
      <trkpt lat="47.88088" lon="-3.92174">
        <ele>25.4</ele>
        <time>2021-08-12T09:32:12Z</time>
      </trkpt>
      <trkpt lat="47.88084" lon="-3.92172">
        <ele>25.2</ele>
        <time>2021-08-12T09:32:13Z</time>
      </trkpt>
      <trkpt lat="47.8808" lon="-3.9217">
        <ele>25.2</ele>
        <time>2021-08-12T09:32:14Z</time>
      </trkpt>
      <trkpt lat="47.88076" lon="-3.92169">
        <ele>25.2</ele>
        <time>2021-08-12T09:32:15Z</time>
      </trkpt>
      <trkpt lat="47.88072" lon="-3.92168">
        <ele>25</ele>
        <time>2021-08-12T09:32:16Z</time>
      </trkpt>
      <trkpt lat="47.88069" lon="-3.92167">
        <ele>25</ele>
        <time>2021-08-12T09:32:17Z</time>
      </trkpt>
      <trkpt lat="47.88065" lon="-3.92166">
        <ele>25</ele>
        <time>2021-08-12T09:32:18Z</time>
      </trkpt>
      <trkpt lat="47.88062" lon="-3.92164">
        <ele>25</ele>
        <time>2021-08-12T09:32:19Z</time>
      </trkpt>
      <trkpt lat="47.8806" lon="-3.92164">
        <ele>25</ele>
        <time>2021-08-12T09:32:20Z</time>
      </trkpt>
      <trkpt lat="47.88059" lon="-3.92163">
        <ele>25</ele>
        <time>2021-08-12T09:32:21Z</time>
      </trkpt>
      <trkpt lat="47.88057" lon="-3.92162">
        <ele>25</ele>
        <time>2021-08-12T09:33:15Z</time>
      </trkpt>
      <trkpt lat="47.88056" lon="-3.92162">
        <ele>25</ele>
        <time>2021-08-12T09:33:16Z</time>
      </trkpt>
      <trkpt lat="47.88054" lon="-3.92162">
        <ele>25</ele>
        <time>2021-08-12T09:33:17Z</time>
      </trkpt>
      <trkpt lat="47.88053" lon="-3.92162">
        <ele>25</ele>
        <time>2021-08-12T09:33:18Z</time>
      </trkpt>
      <trkpt lat="47.88051" lon="-3.92161">
        <ele>25</ele>
        <time>2021-08-12T09:33:19Z</time>
      </trkpt>
      <trkpt lat="47.8805" lon="-3.92159">
        <ele>25</ele>
        <time>2021-08-12T09:33:20Z</time>
      </trkpt>
      <trkpt lat="47.88051" lon="-3.92157">
        <ele>25</ele>
        <time>2021-08-12T09:33:21Z</time>
      </trkpt>
      <trkpt lat="47.88053" lon="-3.92157">
        <ele>25</ele>
        <time>2021-08-12T09:33:22Z</time>
      </trkpt>
      <trkpt lat="47.88054" lon="-3.92158">
        <ele>25</ele>
        <time>2021-08-12T09:33:23Z</time>
      </trkpt>
      <trkpt lat="47.88056" lon="-3.92158">
        <ele>25</ele>
        <time>2021-08-12T09:33:24Z</time>
      </trkpt>
      <trkpt lat="47.88058" lon="-3.92159">
        <ele>25</ele>
        <time>2021-08-12T09:33:25Z</time>
      </trkpt>
      <trkpt lat="47.8806" lon="-3.92159">
        <ele>25</ele>
        <time>2021-08-12T09:33:26Z</time>
      </trkpt>
      <trkpt lat="47.88064" lon="-3.9216">
        <ele>25</ele>
        <time>2021-08-12T09:33:28Z</time>
      </trkpt>
      <trkpt lat="47.88065" lon="-3.9216">
        <ele>25</ele>
        <time>2021-08-12T09:33:29Z</time>
      </trkpt>
      <trkpt lat="47.88066" lon="-3.92161">
        <ele>25</ele>
        <time>2021-08-12T09:33:30Z</time>
      </trkpt>
      <trkpt lat="47.88068" lon="-3.92161">
        <ele>25</ele>
        <time>2021-08-12T09:33:31Z</time>
      </trkpt>
      <trkpt lat="47.88069" lon="-3.92162">
        <ele>25</ele>
        <time>2021-08-12T09:33:32Z</time>
      </trkpt>
      <trkpt lat="47.88071" lon="-3.92163">
        <ele>25</ele>
        <time>2021-08-12T09:33:33Z</time>
      </trkpt>
      <trkpt lat="47.88072" lon="-3.92163">
        <ele>25</ele>
        <time>2021-08-12T09:33:34Z</time>
      </trkpt>
      <trkpt lat="47.88074" lon="-3.92164">
        <ele>25</ele>
        <time>2021-08-12T09:33:35Z</time>
      </trkpt>
      <trkpt lat="47.88076" lon="-3.92165">
        <ele>25</ele>
        <time>2021-08-12T09:33:36Z</time>
      </trkpt>
      <trkpt lat="47.88079" lon="-3.92166">
        <ele>25</ele>
        <time>2021-08-12T09:33:37Z</time>
      </trkpt>
      <trkpt lat="47.88086" lon="-3.92168">
        <ele>25</ele>
        <time>2021-08-12T09:33:39Z</time>
      </trkpt>
      <trkpt lat="47.8809" lon="-3.92169">
        <ele>25</ele>
        <time>2021-08-12T09:33:40Z</time>
      </trkpt>
      <trkpt lat="47.88093" lon="-3.9217">
        <ele>25</ele>
        <time>2021-08-12T09:33:41Z</time>
      </trkpt>
      <trkpt lat="47.88097" lon="-3.92171">
        <ele>25</ele>
        <time>2021-08-12T09:33:42Z</time>
      </trkpt>
      <trkpt lat="47.88101" lon="-3.92172">
        <ele>25</ele>
        <time>2021-08-12T09:33:43Z</time>
      </trkpt>
      <trkpt lat="47.88105" lon="-3.92173">
        <ele>25</ele>
        <time>2021-08-12T09:33:44Z</time>
      </trkpt>
      <trkpt lat="47.88109" lon="-3.92175">
        <ele>25</ele>
        <time>2021-08-12T09:33:45Z</time>
      </trkpt>
      <trkpt lat="47.88113" lon="-3.92176">
        <ele>25.2</ele>
        <time>2021-08-12T09:33:46Z</time>
      </trkpt>
      <trkpt lat="47.88117" lon="-3.92178">
        <ele>25.2</ele>
        <time>2021-08-12T09:33:47Z</time>
      </trkpt>
      <trkpt lat="47.8812" lon="-3.9218">
        <ele>25.2</ele>
        <time>2021-08-12T09:33:48Z</time>
      </trkpt>
      <trkpt lat="47.88128" lon="-3.92184">
        <ele>25.2</ele>
        <time>2021-08-12T09:33:50Z</time>
      </trkpt>
      <trkpt lat="47.88132" lon="-3.92186">
        <ele>25.2</ele>
        <time>2021-08-12T09:33:51Z</time>
      </trkpt>
      <trkpt lat="47.88136" lon="-3.92189">
        <ele>25.2</ele>
        <time>2021-08-12T09:33:52Z</time>
      </trkpt>
      <trkpt lat="47.8814" lon="-3.92192">
        <ele>25.4</ele>
        <time>2021-08-12T09:33:53Z</time>
      </trkpt>
      <trkpt lat="47.88145" lon="-3.92194">
        <ele>25.4</ele>
        <time>2021-08-12T09:33:54Z</time>
      </trkpt>
      <trkpt lat="47.88149" lon="-3.92197">
        <ele>25.4</ele>
        <time>2021-08-12T09:33:55Z</time>
      </trkpt>
      <trkpt lat="47.88153" lon="-3.92199">
        <ele>25.4</ele>
        <time>2021-08-12T09:33:56Z</time>
      </trkpt>
      <trkpt lat="47.88157" lon="-3.92202">
        <ele>25.4</ele>
        <time>2021-08-12T09:33:57Z</time>
      </trkpt>
      <trkpt lat="47.88161" lon="-3.92205">
        <ele>25.6</ele>
        <time>2021-08-12T09:33:58Z</time>
      </trkpt>
      <trkpt lat="47.88165" lon="-3.92208">
        <ele>25.6</ele>
        <time>2021-08-12T09:33:59Z</time>
      </trkpt>
      <trkpt lat="47.88172" lon="-3.92214">
        <ele>25.6</ele>
        <time>2021-08-12T09:34:01Z</time>
      </trkpt>
      <trkpt lat="47.88176" lon="-3.92217">
        <ele>25.6</ele>
        <time>2021-08-12T09:34:02Z</time>
      </trkpt>
      <trkpt lat="47.8818" lon="-3.9222">
        <ele>25.6</ele>
        <time>2021-08-12T09:34:03Z</time>
      </trkpt>
      <trkpt lat="47.88184" lon="-3.92223">
        <ele>25.6</ele>
        <time>2021-08-12T09:34:04Z</time>
      </trkpt>
      <trkpt lat="47.88187" lon="-3.92227">
        <ele>25.8</ele>
        <time>2021-08-12T09:34:05Z</time>
      </trkpt>
      <trkpt lat="47.88191" lon="-3.92231">
        <ele>25.8</ele>
        <time>2021-08-12T09:34:06Z</time>
      </trkpt>
      <trkpt lat="47.88195" lon="-3.92234">
        <ele>25.8</ele>
        <time>2021-08-12T09:34:07Z</time>
      </trkpt>
      <trkpt lat="47.88198" lon="-3.92238">
        <ele>25.8</ele>
        <time>2021-08-12T09:34:08Z</time>
      </trkpt>
      <trkpt lat="47.88202" lon="-3.92241">
        <ele>25.8</ele>
        <time>2021-08-12T09:34:09Z</time>
      </trkpt>
      <trkpt lat="47.88206" lon="-3.92245">
        <ele>25.8</ele>
        <time>2021-08-12T09:34:10Z</time>
      </trkpt>
      <trkpt lat="47.88213" lon="-3.92252">
        <ele>26.2</ele>
        <time>2021-08-12T09:34:12Z</time>
      </trkpt>
      <trkpt lat="47.88216" lon="-3.92256">
        <ele>26.2</ele>
        <time>2021-08-12T09:34:13Z</time>
      </trkpt>
      <trkpt lat="47.8822" lon="-3.9226">
        <ele>26.2</ele>
        <time>2021-08-12T09:34:14Z</time>
      </trkpt>
      <trkpt lat="47.88223" lon="-3.92264">
        <ele>26.2</ele>
        <time>2021-08-12T09:34:15Z</time>
      </trkpt>
      <trkpt lat="47.88226" lon="-3.92267">
        <ele>26.2</ele>
        <time>2021-08-12T09:34:16Z</time>
      </trkpt>
      <trkpt lat="47.88229" lon="-3.92271">
        <ele>26.4</ele>
        <time>2021-08-12T09:34:17Z</time>
      </trkpt>
      <trkpt lat="47.88233" lon="-3.92275">
        <ele>26.2</ele>
        <time>2021-08-12T09:34:18Z</time>
      </trkpt>
      <trkpt lat="47.88236" lon="-3.92279">
        <ele>26.4</ele>
        <time>2021-08-12T09:34:19Z</time>
      </trkpt>
      <trkpt lat="47.88238" lon="-3.92283">
        <ele>26.6</ele>
        <time>2021-08-12T09:34:20Z</time>
      </trkpt>
      <trkpt lat="47.88241" lon="-3.92286">
        <ele>26.6</ele>
        <time>2021-08-12T09:34:21Z</time>
      </trkpt>
      <trkpt lat="47.88246" lon="-3.92293">
        <ele>26.6</ele>
        <time>2021-08-12T09:34:23Z</time>
      </trkpt>
      <trkpt lat="47.88249" lon="-3.92297">
        <ele>26.8</ele>
        <time>2021-08-12T09:34:24Z</time>
      </trkpt>
      <trkpt lat="47.88252" lon="-3.923">
        <ele>26.8</ele>
        <time>2021-08-12T09:34:25Z</time>
      </trkpt>
      <trkpt lat="47.88255" lon="-3.92304">
        <ele>27</ele>
        <time>2021-08-12T09:34:26Z</time>
      </trkpt>
      <trkpt lat="47.88258" lon="-3.92309">
        <ele>27</ele>
        <time>2021-08-12T09:34:27Z</time>
      </trkpt>
      <trkpt lat="47.88261" lon="-3.92313">
        <ele>27</ele>
        <time>2021-08-12T09:34:28Z</time>
      </trkpt>
      <trkpt lat="47.88264" lon="-3.92316">
        <ele>27.2</ele>
        <time>2021-08-12T09:34:29Z</time>
      </trkpt>
      <trkpt lat="47.88267" lon="-3.9232">
        <ele>27.2</ele>
        <time>2021-08-12T09:34:30Z</time>
      </trkpt>
      <trkpt lat="47.88269" lon="-3.92324">
        <ele>27.4</ele>
        <time>2021-08-12T09:34:31Z</time>
      </trkpt>
      <trkpt lat="47.88272" lon="-3.92328">
        <ele>27.4</ele>
        <time>2021-08-12T09:34:32Z</time>
      </trkpt>
      <trkpt lat="47.88278" lon="-3.92338">
        <ele>27.6</ele>
        <time>2021-08-12T09:34:34Z</time>
      </trkpt>
      <trkpt lat="47.8828" lon="-3.92344">
        <ele>27.6</ele>
        <time>2021-08-12T09:34:35Z</time>
      </trkpt>
      <trkpt lat="47.88283" lon="-3.9235">
        <ele>27.6</ele>
        <time>2021-08-12T09:34:36Z</time>
      </trkpt>
      <trkpt lat="47.88286" lon="-3.92355">
        <ele>27.6</ele>
        <time>2021-08-12T09:34:37Z</time>
      </trkpt>
      <trkpt lat="47.88289" lon="-3.92361">
        <ele>27.8</ele>
        <time>2021-08-12T09:34:38Z</time>
      </trkpt>
      <trkpt lat="47.88292" lon="-3.92367">
        <ele>27.8</ele>
        <time>2021-08-12T09:34:39Z</time>
      </trkpt>
      <trkpt lat="47.88294" lon="-3.92372">
        <ele>28</ele>
        <time>2021-08-12T09:34:40Z</time>
      </trkpt>
      <trkpt lat="47.88297" lon="-3.92378">
        <ele>28.2</ele>
        <time>2021-08-12T09:34:41Z</time>
      </trkpt>
      <trkpt lat="47.883" lon="-3.92383">
        <ele>28.6</ele>
        <time>2021-08-12T09:34:42Z</time>
      </trkpt>
      <trkpt lat="47.88302" lon="-3.92388">
        <ele>28.6</ele>
        <time>2021-08-12T09:34:43Z</time>
      </trkpt>
      <trkpt lat="47.88305" lon="-3.92393">
        <ele>28.6</ele>
        <time>2021-08-12T09:34:44Z</time>
      </trkpt>
      <trkpt lat="47.88308" lon="-3.92398">
        <ele>28.8</ele>
        <time>2021-08-12T09:34:45Z</time>
      </trkpt>
      <trkpt lat="47.8831" lon="-3.92404">
        <ele>28.8</ele>
        <time>2021-08-12T09:34:46Z</time>
      </trkpt>
      <trkpt lat="47.88313" lon="-3.92409">
        <ele>29</ele>
        <time>2021-08-12T09:34:47Z</time>
      </trkpt>
      <trkpt lat="47.88316" lon="-3.92414">
        <ele>29.2</ele>
        <time>2021-08-12T09:34:48Z</time>
      </trkpt>
      <trkpt lat="47.88319" lon="-3.9242">
        <ele>29.2</ele>
        <time>2021-08-12T09:34:49Z</time>
      </trkpt>
      <trkpt lat="47.88321" lon="-3.92426">
        <ele>29.4</ele>
        <time>2021-08-12T09:34:50Z</time>
      </trkpt>
      <trkpt lat="47.88324" lon="-3.92432">
        <ele>29.4</ele>
        <time>2021-08-12T09:34:51Z</time>
      </trkpt>
      <trkpt lat="47.88326" lon="-3.92438">
        <ele>29.4</ele>
        <time>2021-08-12T09:34:52Z</time>
      </trkpt>
      <trkpt lat="47.88328" lon="-3.92444">
        <ele>29.4</ele>
        <time>2021-08-12T09:34:53Z</time>
      </trkpt>
      <trkpt lat="47.8833" lon="-3.9245">
        <ele>29.4</ele>
        <time>2021-08-12T09:34:54Z</time>
      </trkpt>
      <trkpt lat="47.88332" lon="-3.92456">
        <ele>29.6</ele>
        <time>2021-08-12T09:34:55Z</time>
      </trkpt>
      <trkpt lat="47.88334" lon="-3.92462">
        <ele>29.8</ele>
        <time>2021-08-12T09:34:56Z</time>
      </trkpt>
      <trkpt lat="47.88336" lon="-3.92468">
        <ele>30</ele>
        <time>2021-08-12T09:34:57Z</time>
      </trkpt>
      <trkpt lat="47.88338" lon="-3.92474">
        <ele>30</ele>
        <time>2021-08-12T09:34:58Z</time>
      </trkpt>
      <trkpt lat="47.88341" lon="-3.9248">
        <ele>30.2</ele>
        <time>2021-08-12T09:34:59Z</time>
      </trkpt>
      <trkpt lat="47.88343" lon="-3.92485">
        <ele>30.2</ele>
        <time>2021-08-12T09:35:00Z</time>
      </trkpt>
      <trkpt lat="47.88344" lon="-3.9249">
        <ele>30.2</ele>
        <time>2021-08-12T09:35:01Z</time>
      </trkpt>
      <trkpt lat="47.88346" lon="-3.92496">
        <ele>30.2</ele>
        <time>2021-08-12T09:35:02Z</time>
      </trkpt>
      <trkpt lat="47.88348" lon="-3.92501">
        <ele>30.4</ele>
        <time>2021-08-12T09:35:03Z</time>
      </trkpt>
      <trkpt lat="47.88349" lon="-3.92506">
        <ele>30.4</ele>
        <time>2021-08-12T09:35:04Z</time>
      </trkpt>
      <trkpt lat="47.88351" lon="-3.92511">
        <ele>30.6</ele>
        <time>2021-08-12T09:35:05Z</time>
      </trkpt>
      <trkpt lat="47.88355" lon="-3.9252">
        <ele>30.8</ele>
        <time>2021-08-12T09:35:07Z</time>
      </trkpt>
      <trkpt lat="47.88356" lon="-3.92525">
        <ele>30.8</ele>
        <time>2021-08-12T09:35:08Z</time>
      </trkpt>
      <trkpt lat="47.88358" lon="-3.92531">
        <ele>31</ele>
        <time>2021-08-12T09:35:09Z</time>
      </trkpt>
      <trkpt lat="47.88359" lon="-3.92537">
        <ele>31</ele>
        <time>2021-08-12T09:35:10Z</time>
      </trkpt>
      <trkpt lat="47.88361" lon="-3.92542">
        <ele>31</ele>
        <time>2021-08-12T09:35:11Z</time>
      </trkpt>
      <trkpt lat="47.88363" lon="-3.92548">
        <ele>31.2</ele>
        <time>2021-08-12T09:35:12Z</time>
      </trkpt>
      <trkpt lat="47.88364" lon="-3.92554">
        <ele>31.2</ele>
        <time>2021-08-12T09:35:13Z</time>
      </trkpt>
      <trkpt lat="47.88366" lon="-3.9256">
        <ele>31.2</ele>
        <time>2021-08-12T09:35:14Z</time>
      </trkpt>
      <trkpt lat="47.88367" lon="-3.92566">
        <ele>31.4</ele>
        <time>2021-08-12T09:35:15Z</time>
      </trkpt>
      <trkpt lat="47.88369" lon="-3.92572">
        <ele>31.4</ele>
        <time>2021-08-12T09:35:16Z</time>
      </trkpt>
      <trkpt lat="47.88371" lon="-3.92586">
        <ele>31.4</ele>
        <time>2021-08-12T09:35:18Z</time>
      </trkpt>
      <trkpt lat="47.88373" lon="-3.92592">
        <ele>31.6</ele>
        <time>2021-08-12T09:35:19Z</time>
      </trkpt>
      <trkpt lat="47.88374" lon="-3.92598">
        <ele>31.6</ele>
        <time>2021-08-12T09:35:20Z</time>
      </trkpt>
      <trkpt lat="47.88375" lon="-3.92604">
        <ele>31.6</ele>
        <time>2021-08-12T09:35:21Z</time>
      </trkpt>
      <trkpt lat="47.88376" lon="-3.9261">
        <ele>31.8</ele>
        <time>2021-08-12T09:35:22Z</time>
      </trkpt>
      <trkpt lat="47.88377" lon="-3.92617">
        <ele>31.8</ele>
        <time>2021-08-12T09:35:23Z</time>
      </trkpt>
      <trkpt lat="47.88378" lon="-3.92624">
        <ele>32</ele>
        <time>2021-08-12T09:35:24Z</time>
      </trkpt>
      <trkpt lat="47.8838" lon="-3.9263">
        <ele>32</ele>
        <time>2021-08-12T09:35:25Z</time>
      </trkpt>
      <trkpt lat="47.88381" lon="-3.92637">
        <ele>32.2</ele>
        <time>2021-08-12T09:35:26Z</time>
      </trkpt>
      <trkpt lat="47.88382" lon="-3.92643">
        <ele>32.2</ele>
        <time>2021-08-12T09:35:27Z</time>
      </trkpt>
      <trkpt lat="47.88384" lon="-3.92657">
        <ele>32.4</ele>
        <time>2021-08-12T09:35:29Z</time>
      </trkpt>
      <trkpt lat="47.88385" lon="-3.92663">
        <ele>32.6</ele>
        <time>2021-08-12T09:35:30Z</time>
      </trkpt>
      <trkpt lat="47.88386" lon="-3.9267">
        <ele>32.8</ele>
        <time>2021-08-12T09:35:31Z</time>
      </trkpt>
      <trkpt lat="47.88388" lon="-3.92676">
        <ele>33</ele>
        <time>2021-08-12T09:35:32Z</time>
      </trkpt>
      <trkpt lat="47.88389" lon="-3.92683">
        <ele>33</ele>
        <time>2021-08-12T09:35:33Z</time>
      </trkpt>
      <trkpt lat="47.8839" lon="-3.92689">
        <ele>33.2</ele>
        <time>2021-08-12T09:35:34Z</time>
      </trkpt>
      <trkpt lat="47.88391" lon="-3.92695">
        <ele>33.2</ele>
        <time>2021-08-12T09:35:35Z</time>
      </trkpt>
      <trkpt lat="47.88392" lon="-3.92701">
        <ele>33.2</ele>
        <time>2021-08-12T09:35:36Z</time>
      </trkpt>
      <trkpt lat="47.88393" lon="-3.92707">
        <ele>33.4</ele>
        <time>2021-08-12T09:35:37Z</time>
      </trkpt>
      <trkpt lat="47.88394" lon="-3.92713">
        <ele>33.4</ele>
        <time>2021-08-12T09:35:38Z</time>
      </trkpt>
      <trkpt lat="47.88395" lon="-3.92725">
        <ele>33.6</ele>
        <time>2021-08-12T09:35:40Z</time>
      </trkpt>
      <trkpt lat="47.88396" lon="-3.92731">
        <ele>33.6</ele>
        <time>2021-08-12T09:35:41Z</time>
      </trkpt>
      <trkpt lat="47.88397" lon="-3.92736">
        <ele>33.6</ele>
        <time>2021-08-12T09:35:42Z</time>
      </trkpt>
      <trkpt lat="47.88398" lon="-3.92742">
        <ele>33.8</ele>
        <time>2021-08-12T09:35:43Z</time>
      </trkpt>
      <trkpt lat="47.88398" lon="-3.92747">
        <ele>34</ele>
        <time>2021-08-12T09:35:44Z</time>
      </trkpt>
      <trkpt lat="47.88398" lon="-3.92752">
        <ele>34</ele>
        <time>2021-08-12T09:35:45Z</time>
      </trkpt>
      <trkpt lat="47.88397" lon="-3.92756">
        <ele>34.2</ele>
        <time>2021-08-12T09:35:46Z</time>
      </trkpt>
      <trkpt lat="47.88395" lon="-3.92759">
        <ele>34.4</ele>
        <time>2021-08-12T09:35:47Z</time>
      </trkpt>
      <trkpt lat="47.88392" lon="-3.9276">
        <ele>34.4</ele>
        <time>2021-08-12T09:35:48Z</time>
      </trkpt>
      <trkpt lat="47.8839" lon="-3.92761">
        <ele>34.6</ele>
        <time>2021-08-12T09:35:49Z</time>
      </trkpt>
      <trkpt lat="47.88387" lon="-3.92762">
        <ele>34.6</ele>
        <time>2021-08-12T09:35:50Z</time>
      </trkpt>
      <trkpt lat="47.88384" lon="-3.92761">
        <ele>34.6</ele>
        <time>2021-08-12T09:35:51Z</time>
      </trkpt>
      <trkpt lat="47.8838" lon="-3.9276">
        <ele>34.6</ele>
        <time>2021-08-12T09:35:52Z</time>
      </trkpt>
      <trkpt lat="47.88377" lon="-3.92759">
        <ele>34.6</ele>
        <time>2021-08-12T09:35:53Z</time>
      </trkpt>
      <trkpt lat="47.88373" lon="-3.92758">
        <ele>34.6</ele>
        <time>2021-08-12T09:35:54Z</time>
      </trkpt>
      <trkpt lat="47.88369" lon="-3.92757">
        <ele>34.6</ele>
        <time>2021-08-12T09:35:55Z</time>
      </trkpt>
      <trkpt lat="47.88365" lon="-3.92756">
        <ele>34.6</ele>
        <time>2021-08-12T09:35:56Z</time>
      </trkpt>
      <trkpt lat="47.8836" lon="-3.92755">
        <ele>34.6</ele>
        <time>2021-08-12T09:35:57Z</time>
      </trkpt>
      <trkpt lat="47.88356" lon="-3.92753">
        <ele>34.6</ele>
        <time>2021-08-12T09:35:58Z</time>
      </trkpt>
      <trkpt lat="47.88353" lon="-3.9275">
        <ele>34.6</ele>
        <time>2021-08-12T09:35:59Z</time>
      </trkpt>
      <trkpt lat="47.8835" lon="-3.92745">
        <ele>34.4</ele>
        <time>2021-08-12T09:36:00Z</time>
      </trkpt>
      <trkpt lat="47.88349" lon="-3.92732">
        <ele>34</ele>
        <time>2021-08-12T09:36:02Z</time>
      </trkpt>
      <trkpt lat="47.88351" lon="-3.92724">
        <ele>33.6</ele>
        <time>2021-08-12T09:36:03Z</time>
      </trkpt>
      <trkpt lat="47.88352" lon="-3.92715">
        <ele>33.4</ele>
        <time>2021-08-12T09:36:04Z</time>
      </trkpt>
      <trkpt lat="47.88353" lon="-3.92706">
        <ele>33</ele>
        <time>2021-08-12T09:36:05Z</time>
      </trkpt>
      <trkpt lat="47.88352" lon="-3.92697">
        <ele>32.8</ele>
        <time>2021-08-12T09:36:06Z</time>
      </trkpt>
      <trkpt lat="47.8835" lon="-3.92688">
        <ele>32.8</ele>
        <time>2021-08-12T09:36:07Z</time>
      </trkpt>
      <trkpt lat="47.88347" lon="-3.92681">
        <ele>32.6</ele>
        <time>2021-08-12T09:36:08Z</time>
      </trkpt>
      <trkpt lat="47.88342" lon="-3.92678">
        <ele>32.2</ele>
        <time>2021-08-12T09:36:09Z</time>
      </trkpt>
      <trkpt lat="47.88337" lon="-3.92676">
        <ele>31.8</ele>
        <time>2021-08-12T09:36:10Z</time>
      </trkpt>
      <trkpt lat="47.88333" lon="-3.92672">
        <ele>31.6</ele>
        <time>2021-08-12T09:36:11Z</time>
      </trkpt>
      <trkpt lat="47.8833" lon="-3.92666">
        <ele>31</ele>
        <time>2021-08-12T09:36:12Z</time>
      </trkpt>
      <trkpt lat="47.88328" lon="-3.92659">
        <ele>30.4</ele>
        <time>2021-08-12T09:36:13Z</time>
      </trkpt>
      <trkpt lat="47.88327" lon="-3.92654">
        <ele>30</ele>
        <time>2021-08-12T09:36:14Z</time>
      </trkpt>
      <trkpt lat="47.88325" lon="-3.9265">
        <ele>29.8</ele>
        <time>2021-08-12T09:36:15Z</time>
      </trkpt>
      <trkpt lat="47.88323" lon="-3.92646">
        <ele>29.6</ele>
        <time>2021-08-12T09:36:16Z</time>
      </trkpt>
      <trkpt lat="47.8832" lon="-3.92642">
        <ele>29.4</ele>
        <time>2021-08-12T09:36:17Z</time>
      </trkpt>
      <trkpt lat="47.88319" lon="-3.92637">
        <ele>29.2</ele>
        <time>2021-08-12T09:36:18Z</time>
      </trkpt>
      <trkpt lat="47.88318" lon="-3.92632">
        <ele>29</ele>
        <time>2021-08-12T09:36:19Z</time>
      </trkpt>
      <trkpt lat="47.88318" lon="-3.92627">
        <ele>28.8</ele>
        <time>2021-08-12T09:36:20Z</time>
      </trkpt>
      <trkpt lat="47.88317" lon="-3.92623">
        <ele>28.8</ele>
        <time>2021-08-12T09:36:21Z</time>
      </trkpt>
      <trkpt lat="47.88316" lon="-3.9262">
        <ele>28.6</ele>
        <time>2021-08-12T09:36:22Z</time>
      </trkpt>
      <trkpt lat="47.88314" lon="-3.92619">
        <ele>28.4</ele>
        <time>2021-08-12T09:36:23Z</time>
      </trkpt>
      <trkpt lat="47.88312" lon="-3.92619">
        <ele>28.4</ele>
        <time>2021-08-12T09:36:24Z</time>
      </trkpt>
      <trkpt lat="47.88309" lon="-3.9262">
        <ele>28</ele>
        <time>2021-08-12T09:36:25Z</time>
      </trkpt>
      <trkpt lat="47.88306" lon="-3.9262">
        <ele>27.4</ele>
        <time>2021-08-12T09:36:26Z</time>
      </trkpt>
      <trkpt lat="47.88302" lon="-3.92621">
        <ele>27.2</ele>
        <time>2021-08-12T09:36:27Z</time>
      </trkpt>
      <trkpt lat="47.88299" lon="-3.92621">
        <ele>27</ele>
        <time>2021-08-12T09:36:28Z</time>
      </trkpt>
      <trkpt lat="47.88297" lon="-3.92622">
        <ele>26.8</ele>
        <time>2021-08-12T09:36:29Z</time>
      </trkpt>
      <trkpt lat="47.88296" lon="-3.92622">
        <ele>26.6</ele>
        <time>2021-08-12T09:36:30Z</time>
      </trkpt>
      <trkpt lat="47.88295" lon="-3.92622">
        <ele>26.4</ele>
        <time>2021-08-12T09:36:31Z</time>
      </trkpt>
      <trkpt lat="47.88294" lon="-3.92622">
        <ele>26</ele>
        <time>2021-08-12T09:36:32Z</time>
      </trkpt>
      <trkpt lat="47.88294" lon="-3.92623">
        <ele>25.6</ele>
        <time>2021-08-12T09:36:33Z</time>
      </trkpt>
      <trkpt lat="47.88292" lon="-3.92623">
        <ele>25.2</ele>
        <time>2021-08-12T09:36:35Z</time>
      </trkpt>
      <trkpt lat="47.88291" lon="-3.92623">
        <ele>24.8</ele>
        <time>2021-08-12T09:36:36Z</time>
      </trkpt>
      <trkpt lat="47.88289" lon="-3.92623">
        <ele>24.8</ele>
        <time>2021-08-12T09:36:37Z</time>
      </trkpt>
      <trkpt lat="47.88288" lon="-3.92623">
        <ele>24.6</ele>
        <time>2021-08-12T09:36:38Z</time>
      </trkpt>
      <trkpt lat="47.88286" lon="-3.92623">
        <ele>24.4</ele>
        <time>2021-08-12T09:36:39Z</time>
      </trkpt>
      <trkpt lat="47.88284" lon="-3.92624">
        <ele>24.2</ele>
        <time>2021-08-12T09:36:40Z</time>
      </trkpt>
      <trkpt lat="47.88282" lon="-3.92625">
        <ele>24</ele>
        <time>2021-08-12T09:36:41Z</time>
      </trkpt>
      <trkpt lat="47.8828" lon="-3.92625">
        <ele>23.8</ele>
        <time>2021-08-12T09:36:42Z</time>
      </trkpt>
      <trkpt lat="47.88278" lon="-3.92626">
        <ele>23.6</ele>
        <time>2021-08-12T09:36:43Z</time>
      </trkpt>
      <trkpt lat="47.88276" lon="-3.92627">
        <ele>23.2</ele>
        <time>2021-08-12T09:36:44Z</time>
      </trkpt>
      <trkpt lat="47.88269" lon="-3.92629">
        <ele>22.8</ele>
        <time>2021-08-12T09:36:46Z</time>
      </trkpt>
      <trkpt lat="47.88265" lon="-3.9263">
        <ele>22.2</ele>
        <time>2021-08-12T09:36:47Z</time>
      </trkpt>
      <trkpt lat="47.88262" lon="-3.92631">
        <ele>21.8</ele>
        <time>2021-08-12T09:36:48Z</time>
      </trkpt>
      <trkpt lat="47.88259" lon="-3.92633">
        <ele>21.2</ele>
        <time>2021-08-12T09:36:49Z</time>
      </trkpt>
      <trkpt lat="47.88257" lon="-3.92635">
        <ele>20.6</ele>
        <time>2021-08-12T09:36:50Z</time>
      </trkpt>
      <trkpt lat="47.88254" lon="-3.92637">
        <ele>20</ele>
        <time>2021-08-12T09:36:51Z</time>
      </trkpt>
      <trkpt lat="47.88251" lon="-3.9264">
        <ele>19.4</ele>
        <time>2021-08-12T09:36:52Z</time>
      </trkpt>
      <trkpt lat="47.88246" lon="-3.92641">
        <ele>18.6</ele>
        <time>2021-08-12T09:36:53Z</time>
      </trkpt>
      <trkpt lat="47.88242" lon="-3.92644">
        <ele>17.6</ele>
        <time>2021-08-12T09:36:54Z</time>
      </trkpt>
      <trkpt lat="47.88237" lon="-3.92647">
        <ele>17</ele>
        <time>2021-08-12T09:36:55Z</time>
      </trkpt>
      <trkpt lat="47.88232" lon="-3.92651">
        <ele>16.4</ele>
        <time>2021-08-12T09:36:56Z</time>
      </trkpt>
      <trkpt lat="47.88227" lon="-3.92656">
        <ele>16</ele>
        <time>2021-08-12T09:36:57Z</time>
      </trkpt>
      <trkpt lat="47.88223" lon="-3.92661">
        <ele>15.8</ele>
        <time>2021-08-12T09:36:58Z</time>
      </trkpt>
      <trkpt lat="47.88219" lon="-3.92665">
        <ele>15.2</ele>
        <time>2021-08-12T09:36:59Z</time>
      </trkpt>
      <trkpt lat="47.88215" lon="-3.92669">
        <ele>14.6</ele>
        <time>2021-08-12T09:37:00Z</time>
      </trkpt>
      <trkpt lat="47.88211" lon="-3.92673">
        <ele>14</ele>
        <time>2021-08-12T09:37:01Z</time>
      </trkpt>
      <trkpt lat="47.88207" lon="-3.92678">
        <ele>13.4</ele>
        <time>2021-08-12T09:37:02Z</time>
      </trkpt>
      <trkpt lat="47.88203" lon="-3.92682">
        <ele>12.6</ele>
        <time>2021-08-12T09:37:03Z</time>
      </trkpt>
      <trkpt lat="47.88198" lon="-3.92687">
        <ele>12</ele>
        <time>2021-08-12T09:37:04Z</time>
      </trkpt>
      <trkpt lat="47.88194" lon="-3.92691">
        <ele>11.6</ele>
        <time>2021-08-12T09:37:05Z</time>
      </trkpt>
      <trkpt lat="47.88189" lon="-3.92695">
        <ele>11.2</ele>
        <time>2021-08-12T09:37:06Z</time>
      </trkpt>
      <trkpt lat="47.88184" lon="-3.92698">
        <ele>11</ele>
        <time>2021-08-12T09:37:07Z</time>
      </trkpt>
      <trkpt lat="47.88179" lon="-3.92703">
        <ele>10.8</ele>
        <time>2021-08-12T09:37:08Z</time>
      </trkpt>
      <trkpt lat="47.88173" lon="-3.92708">
        <ele>10.8</ele>
        <time>2021-08-12T09:37:09Z</time>
      </trkpt>
      <trkpt lat="47.88168" lon="-3.92714">
        <ele>10.8</ele>
        <time>2021-08-12T09:37:10Z</time>
      </trkpt>
      <trkpt lat="47.88162" lon="-3.92718">
        <ele>10.6</ele>
        <time>2021-08-12T09:37:11Z</time>
      </trkpt>
      <trkpt lat="47.88157" lon="-3.92721">
        <ele>10.6</ele>
        <time>2021-08-12T09:37:12Z</time>
      </trkpt>
      <trkpt lat="47.88154" lon="-3.92723">
        <ele>10.6</ele>
        <time>2021-08-12T09:37:13Z</time>
      </trkpt>
      <trkpt lat="47.8815" lon="-3.92726">
        <ele>10.6</ele>
        <time>2021-08-12T09:37:14Z</time>
      </trkpt>
      <trkpt lat="47.88146" lon="-3.92729">
        <ele>10.6</ele>
        <time>2021-08-12T09:37:15Z</time>
      </trkpt>
      <trkpt lat="47.88141" lon="-3.92728">
        <ele>10.6</ele>
        <time>2021-08-12T09:37:16Z</time>
      </trkpt>
      <trkpt lat="47.88136" lon="-3.92725">
        <ele>10.6</ele>
        <time>2021-08-12T09:37:17Z</time>
      </trkpt>
      <trkpt lat="47.88126" lon="-3.92715">
        <ele>10.6</ele>
        <time>2021-08-12T09:37:19Z</time>
      </trkpt>
      <trkpt lat="47.88121" lon="-3.92709">
        <ele>10.6</ele>
        <time>2021-08-12T09:37:20Z</time>
      </trkpt>
      <trkpt lat="47.88117" lon="-3.92704">
        <ele>10.6</ele>
        <time>2021-08-12T09:37:21Z</time>
      </trkpt>
      <trkpt lat="47.88113" lon="-3.92698">
        <ele>10.4</ele>
        <time>2021-08-12T09:37:22Z</time>
      </trkpt>
      <trkpt lat="47.88111" lon="-3.92693">
        <ele>10.2</ele>
        <time>2021-08-12T09:37:23Z</time>
      </trkpt>
      <trkpt lat="47.88109" lon="-3.92688">
        <ele>9.4</ele>
        <time>2021-08-12T09:37:24Z</time>
      </trkpt>
      <trkpt lat="47.88107" lon="-3.92683">
        <ele>9</ele>
        <time>2021-08-12T09:37:25Z</time>
      </trkpt>
      <trkpt lat="47.88105" lon="-3.9268">
        <ele>8.4</ele>
        <time>2021-08-12T09:37:26Z</time>
      </trkpt>
      <trkpt lat="47.88103" lon="-3.92679">
        <ele>8.4</ele>
        <time>2021-08-12T09:37:27Z</time>
      </trkpt>
      <trkpt lat="47.88097" lon="-3.92679">
        <ele>8</ele>
        <time>2021-08-12T09:37:29Z</time>
      </trkpt>
      <trkpt lat="47.88094" lon="-3.92681">
        <ele>8</ele>
        <time>2021-08-12T09:37:30Z</time>
      </trkpt>
      <trkpt lat="47.8809" lon="-3.92682">
        <ele>8</ele>
        <time>2021-08-12T09:37:31Z</time>
      </trkpt>
      <trkpt lat="47.88087" lon="-3.92682">
        <ele>7.8</ele>
        <time>2021-08-12T09:37:32Z</time>
      </trkpt>
      <trkpt lat="47.88085" lon="-3.92682">
        <ele>7.8</ele>
        <time>2021-08-12T09:37:33Z</time>
      </trkpt>
      <trkpt lat="47.88082" lon="-3.92681">
        <ele>7.8</ele>
        <time>2021-08-12T09:37:34Z</time>
      </trkpt>
      <trkpt lat="47.88079" lon="-3.92679">
        <ele>7.8</ele>
        <time>2021-08-12T09:37:35Z</time>
      </trkpt>
      <trkpt lat="47.88077" lon="-3.92678">
        <ele>8</ele>
        <time>2021-08-12T09:37:36Z</time>
      </trkpt>
      <trkpt lat="47.88074" lon="-3.92676">
        <ele>8</ele>
        <time>2021-08-12T09:37:37Z</time>
      </trkpt>
      <trkpt lat="47.88071" lon="-3.92674">
        <ele>8.2</ele>
        <time>2021-08-12T09:37:38Z</time>
      </trkpt>
      <trkpt lat="47.88065" lon="-3.92671">
        <ele>8.2</ele>
        <time>2021-08-12T09:37:40Z</time>
      </trkpt>
      <trkpt lat="47.88062" lon="-3.9267">
        <ele>8.2</ele>
        <time>2021-08-12T09:37:41Z</time>
      </trkpt>
      <trkpt lat="47.88058" lon="-3.92669">
        <ele>8.2</ele>
        <time>2021-08-12T09:37:42Z</time>
      </trkpt>
      <trkpt lat="47.88056" lon="-3.9267">
        <ele>8.2</ele>
        <time>2021-08-12T09:37:43Z</time>
      </trkpt>
      <trkpt lat="47.88054" lon="-3.92672">
        <ele>8.2</ele>
        <time>2021-08-12T09:37:44Z</time>
      </trkpt>
      <trkpt lat="47.88052" lon="-3.92675">
        <ele>8</ele>
        <time>2021-08-12T09:37:45Z</time>
      </trkpt>
      <trkpt lat="47.8805" lon="-3.92679">
        <ele>8</ele>
        <time>2021-08-12T09:37:46Z</time>
      </trkpt>
      <trkpt lat="47.88047" lon="-3.92683">
        <ele>8</ele>
        <time>2021-08-12T09:37:47Z</time>
      </trkpt>
      <trkpt lat="47.88045" lon="-3.92687">
        <ele>8</ele>
        <time>2021-08-12T09:37:48Z</time>
      </trkpt>
      <trkpt lat="47.88042" lon="-3.92691">
        <ele>8</ele>
        <time>2021-08-12T09:37:49Z</time>
      </trkpt>
      <trkpt lat="47.88037" lon="-3.92699">
        <ele>8</ele>
        <time>2021-08-12T09:37:51Z</time>
      </trkpt>
      <trkpt lat="47.88034" lon="-3.92704">
        <ele>8</ele>
        <time>2021-08-12T09:37:52Z</time>
      </trkpt>
      <trkpt lat="47.88031" lon="-3.92708">
        <ele>8</ele>
        <time>2021-08-12T09:37:53Z</time>
      </trkpt>
      <trkpt lat="47.88029" lon="-3.92714">
        <ele>7.8</ele>
        <time>2021-08-12T09:37:54Z</time>
      </trkpt>
      <trkpt lat="47.88027" lon="-3.92721">
        <ele>7.8</ele>
        <time>2021-08-12T09:37:55Z</time>
      </trkpt>
      <trkpt lat="47.88024" lon="-3.92728">
        <ele>7.8</ele>
        <time>2021-08-12T09:37:56Z</time>
      </trkpt>
      <trkpt lat="47.88023" lon="-3.92735">
        <ele>7.6</ele>
        <time>2021-08-12T09:37:57Z</time>
      </trkpt>
      <trkpt lat="47.8802" lon="-3.92742">
        <ele>7.6</ele>
        <time>2021-08-12T09:37:58Z</time>
      </trkpt>
      <trkpt lat="47.88018" lon="-3.92748">
        <ele>7.6</ele>
        <time>2021-08-12T09:37:59Z</time>
      </trkpt>
      <trkpt lat="47.88016" lon="-3.92755">
        <ele>7.6</ele>
        <time>2021-08-12T09:38:00Z</time>
      </trkpt>
      <trkpt lat="47.88012" lon="-3.92766">
        <ele>7.4</ele>
        <time>2021-08-12T09:38:02Z</time>
      </trkpt>
      <trkpt lat="47.8801" lon="-3.92772">
        <ele>7.4</ele>
        <time>2021-08-12T09:38:03Z</time>
      </trkpt>
      <trkpt lat="47.88008" lon="-3.92778">
        <ele>6.6</ele>
        <time>2021-08-12T09:38:04Z</time>
      </trkpt>
      <trkpt lat="47.88007" lon="-3.92784">
        <ele>6.4</ele>
        <time>2021-08-12T09:38:05Z</time>
      </trkpt>
      <trkpt lat="47.88005" lon="-3.92789">
        <ele>6.2</ele>
        <time>2021-08-12T09:38:06Z</time>
      </trkpt>
      <trkpt lat="47.88003" lon="-3.92795">
        <ele>6.2</ele>
        <time>2021-08-12T09:38:07Z</time>
      </trkpt>
      <trkpt lat="47.88001" lon="-3.92801">
        <ele>6.2</ele>
        <time>2021-08-12T09:38:08Z</time>
      </trkpt>
      <trkpt lat="47.87999" lon="-3.92807">
        <ele>6</ele>
        <time>2021-08-12T09:38:09Z</time>
      </trkpt>
      <trkpt lat="47.87997" lon="-3.92813">
        <ele>6.2</ele>
        <time>2021-08-12T09:38:10Z</time>
      </trkpt>
      <trkpt lat="47.87994" lon="-3.92818">
        <ele>6</ele>
        <time>2021-08-12T09:38:11Z</time>
      </trkpt>
      <trkpt lat="47.87989" lon="-3.92829">
        <ele>6</ele>
        <time>2021-08-12T09:38:13Z</time>
      </trkpt>
      <trkpt lat="47.87987" lon="-3.92834">
        <ele>6</ele>
        <time>2021-08-12T09:38:14Z</time>
      </trkpt>
      <trkpt lat="47.87985" lon="-3.9284">
        <ele>6</ele>
        <time>2021-08-12T09:38:15Z</time>
      </trkpt>
      <trkpt lat="47.87982" lon="-3.92845">
        <ele>6</ele>
        <time>2021-08-12T09:38:16Z</time>
      </trkpt>
      <trkpt lat="47.8798" lon="-3.9285">
        <ele>6</ele>
        <time>2021-08-12T09:38:17Z</time>
      </trkpt>
      <trkpt lat="47.87978" lon="-3.92855">
        <ele>6</ele>
        <time>2021-08-12T09:38:18Z</time>
      </trkpt>
      <trkpt lat="47.87975" lon="-3.92859">
        <ele>6.2</ele>
        <time>2021-08-12T09:38:19Z</time>
      </trkpt>
      <trkpt lat="47.87973" lon="-3.92863">
        <ele>6.2</ele>
        <time>2021-08-12T09:38:20Z</time>
      </trkpt>
      <trkpt lat="47.87971" lon="-3.92868">
        <ele>6.2</ele>
        <time>2021-08-12T09:38:21Z</time>
      </trkpt>
      <trkpt lat="47.87968" lon="-3.92873">
        <ele>6.2</ele>
        <time>2021-08-12T09:38:22Z</time>
      </trkpt>
      <trkpt lat="47.87964" lon="-3.92882">
        <ele>6.2</ele>
        <time>2021-08-12T09:38:24Z</time>
      </trkpt>
      <trkpt lat="47.87961" lon="-3.92886">
        <ele>6.2</ele>
        <time>2021-08-12T09:38:25Z</time>
      </trkpt>
      <trkpt lat="47.87959" lon="-3.9289">
        <ele>6.2</ele>
        <time>2021-08-12T09:38:26Z</time>
      </trkpt>
      <trkpt lat="47.87957" lon="-3.92894">
        <ele>6</ele>
        <time>2021-08-12T09:38:27Z</time>
      </trkpt>
      <trkpt lat="47.87956" lon="-3.92897">
        <ele>6</ele>
        <time>2021-08-12T09:38:28Z</time>
      </trkpt>
      <trkpt lat="47.87954" lon="-3.929">
        <ele>6</ele>
        <time>2021-08-12T09:38:29Z</time>
      </trkpt>
      <trkpt lat="47.87954" lon="-3.92903">
        <ele>6</ele>
        <time>2021-08-12T09:38:30Z</time>
      </trkpt>
      <trkpt lat="47.87954" lon="-3.92905">
        <ele>6</ele>
        <time>2021-08-12T09:38:31Z</time>
      </trkpt>
      <trkpt lat="47.87955" lon="-3.92907">
        <ele>6.2</ele>
        <time>2021-08-12T09:38:32Z</time>
      </trkpt>
      <trkpt lat="47.87956" lon="-3.9291">
        <ele>6</ele>
        <time>2021-08-12T09:38:33Z</time>
      </trkpt>
      <trkpt lat="47.87958" lon="-3.92913">
        <ele>6</ele>
        <time>2021-08-12T09:38:34Z</time>
      </trkpt>
      <trkpt lat="47.87959" lon="-3.92917">
        <ele>6</ele>
        <time>2021-08-12T09:38:35Z</time>
      </trkpt>
      <trkpt lat="47.87961" lon="-3.9292">
        <ele>6</ele>
        <time>2021-08-12T09:38:36Z</time>
      </trkpt>
      <trkpt lat="47.87963" lon="-3.92923">
        <ele>6</ele>
        <time>2021-08-12T09:38:37Z</time>
      </trkpt>
      <trkpt lat="47.87964" lon="-3.92927">
        <ele>6</ele>
        <time>2021-08-12T09:38:38Z</time>
      </trkpt>
      <trkpt lat="47.87966" lon="-3.9293">
        <ele>6</ele>
        <time>2021-08-12T09:38:39Z</time>
      </trkpt>
      <trkpt lat="47.87967" lon="-3.92934">
        <ele>6</ele>
        <time>2021-08-12T09:38:40Z</time>
      </trkpt>
      <trkpt lat="47.87969" lon="-3.92938">
        <ele>5.8</ele>
        <time>2021-08-12T09:38:41Z</time>
      </trkpt>
      <trkpt lat="47.87969" lon="-3.92941">
        <ele>5.8</ele>
        <time>2021-08-12T09:38:42Z</time>
      </trkpt>
      <trkpt lat="47.8797" lon="-3.92946">
        <ele>5.8</ele>
        <time>2021-08-12T09:38:43Z</time>
      </trkpt>
      <trkpt lat="47.87972" lon="-3.92955">
        <ele>5.8</ele>
        <time>2021-08-12T09:38:45Z</time>
      </trkpt>
      <trkpt lat="47.87973" lon="-3.92959">
        <ele>5.8</ele>
        <time>2021-08-12T09:38:46Z</time>
      </trkpt>
      <trkpt lat="47.87974" lon="-3.92963">
        <ele>5.8</ele>
        <time>2021-08-12T09:38:47Z</time>
      </trkpt>
      <trkpt lat="47.87976" lon="-3.92967">
        <ele>5.8</ele>
        <time>2021-08-12T09:38:48Z</time>
      </trkpt>
      <trkpt lat="47.87977" lon="-3.92971">
        <ele>5.6</ele>
        <time>2021-08-12T09:38:49Z</time>
      </trkpt>
      <trkpt lat="47.87979" lon="-3.92974">
        <ele>5.6</ele>
        <time>2021-08-12T09:38:50Z</time>
      </trkpt>
      <trkpt lat="47.8798" lon="-3.92977">
        <ele>5.6</ele>
        <time>2021-08-12T09:38:51Z</time>
      </trkpt>
      <trkpt lat="47.87982" lon="-3.9298">
        <ele>5.6</ele>
        <time>2021-08-12T09:38:52Z</time>
      </trkpt>
      <trkpt lat="47.87984" lon="-3.92984">
        <ele>5.6</ele>
        <time>2021-08-12T09:38:53Z</time>
      </trkpt>
      <trkpt lat="47.87985" lon="-3.92987">
        <ele>5.6</ele>
        <time>2021-08-12T09:38:54Z</time>
      </trkpt>
      <trkpt lat="47.87988" lon="-3.92994">
        <ele>5.6</ele>
        <time>2021-08-12T09:38:56Z</time>
      </trkpt>
      <trkpt lat="47.8799" lon="-3.92997">
        <ele>5.6</ele>
        <time>2021-08-12T09:38:57Z</time>
      </trkpt>
      <trkpt lat="47.87991" lon="-3.93">
        <ele>5.6</ele>
        <time>2021-08-12T09:38:58Z</time>
      </trkpt>
      <trkpt lat="47.87992" lon="-3.93002">
        <ele>5.6</ele>
        <time>2021-08-12T09:38:59Z</time>
      </trkpt>
      <trkpt lat="47.87993" lon="-3.93004">
        <ele>5.6</ele>
        <time>2021-08-12T09:39:00Z</time>
      </trkpt>
      <trkpt lat="47.87994" lon="-3.93006">
        <ele>5.6</ele>
        <time>2021-08-12T09:39:01Z</time>
      </trkpt>
      <trkpt lat="47.87995" lon="-3.93009">
        <ele>5.8</ele>
        <time>2021-08-12T09:39:02Z</time>
      </trkpt>
      <trkpt lat="47.87996" lon="-3.93012">
        <ele>5.8</ele>
        <time>2021-08-12T09:39:03Z</time>
      </trkpt>
      <trkpt lat="47.87996" lon="-3.93015">
        <ele>5.8</ele>
        <time>2021-08-12T09:39:04Z</time>
      </trkpt>
      <trkpt lat="47.87997" lon="-3.93018">
        <ele>5.8</ele>
        <time>2021-08-12T09:39:05Z</time>
      </trkpt>
      <trkpt lat="47.87996" lon="-3.93026">
        <ele>5.8</ele>
        <time>2021-08-12T09:39:07Z</time>
      </trkpt>
      <trkpt lat="47.87996" lon="-3.9303">
        <ele>5.8</ele>
        <time>2021-08-12T09:39:08Z</time>
      </trkpt>
      <trkpt lat="47.87995" lon="-3.93033">
        <ele>5.8</ele>
        <time>2021-08-12T09:39:09Z</time>
      </trkpt>
      <trkpt lat="47.87994" lon="-3.93037">
        <ele>5.8</ele>
        <time>2021-08-12T09:39:10Z</time>
      </trkpt>
      <trkpt lat="47.87993" lon="-3.93041">
        <ele>5.8</ele>
        <time>2021-08-12T09:39:11Z</time>
      </trkpt>
      <trkpt lat="47.87992" lon="-3.93045">
        <ele>5.8</ele>
        <time>2021-08-12T09:39:12Z</time>
      </trkpt>
      <trkpt lat="47.87991" lon="-3.93049">
        <ele>5.8</ele>
        <time>2021-08-12T09:39:13Z</time>
      </trkpt>
      <trkpt lat="47.8799" lon="-3.93052">
        <ele>6</ele>
        <time>2021-08-12T09:39:14Z</time>
      </trkpt>
      <trkpt lat="47.8799" lon="-3.93055">
        <ele>6</ele>
        <time>2021-08-12T09:39:15Z</time>
      </trkpt>
      <trkpt lat="47.87989" lon="-3.93058">
        <ele>6</ele>
        <time>2021-08-12T09:39:16Z</time>
      </trkpt>
      <trkpt lat="47.87988" lon="-3.93062">
        <ele>6.2</ele>
        <time>2021-08-12T09:39:18Z</time>
      </trkpt>
      <trkpt lat="47.87988" lon="-3.93064">
        <ele>6.2</ele>
        <time>2021-08-12T09:39:19Z</time>
      </trkpt>
      <trkpt lat="47.87987" lon="-3.93066">
        <ele>6.2</ele>
        <time>2021-08-12T09:39:20Z</time>
      </trkpt>
      <trkpt lat="47.87987" lon="-3.9307">
        <ele>6.2</ele>
        <time>2021-08-12T09:39:22Z</time>
      </trkpt>
      <trkpt lat="47.87986" lon="-3.93071">
        <ele>6.2</ele>
        <time>2021-08-12T09:39:23Z</time>
      </trkpt>
      <trkpt lat="47.87986" lon="-3.93072">
        <ele>6.4</ele>
        <time>2021-08-12T09:39:24Z</time>
      </trkpt>
      <trkpt lat="47.87985" lon="-3.93073">
        <ele>7</ele>
        <time>2021-08-12T09:39:48Z</time>
      </trkpt>
      <trkpt lat="47.87985" lon="-3.93073">
        <ele>7</ele>
        <time>2021-08-12T09:39:49Z</time>
      </trkpt>
      <trkpt lat="47.87985" lon="-3.93073">
        <ele>7</ele>
        <time>2021-08-12T09:39:51Z</time>
      </trkpt>
      <trkpt lat="47.87991" lon="-3.9308">
        <ele>6.8</ele>
        <time>2021-08-12T09:40:07Z</time>
      </trkpt>
      <trkpt lat="47.87992" lon="-3.93081">
        <ele>6.8</ele>
        <time>2021-08-12T09:40:08Z</time>
      </trkpt>
      <trkpt lat="47.87994" lon="-3.93082">
        <ele>6.8</ele>
        <time>2021-08-12T09:40:09Z</time>
      </trkpt>
      <trkpt lat="47.87995" lon="-3.93082">
        <ele>6.8</ele>
        <time>2021-08-12T09:40:10Z</time>
      </trkpt>
      <trkpt lat="47.87998" lon="-3.93081">
        <ele>6.8</ele>
        <time>2021-08-12T09:40:12Z</time>
      </trkpt>
      <trkpt lat="47.87999" lon="-3.93081">
        <ele>6.8</ele>
        <time>2021-08-12T09:40:13Z</time>
      </trkpt>
      <trkpt lat="47.88" lon="-3.93082">
        <ele>6.8</ele>
        <time>2021-08-12T09:40:14Z</time>
      </trkpt>
      <trkpt lat="47.88002" lon="-3.93081">
        <ele>6.8</ele>
        <time>2021-08-12T09:40:15Z</time>
      </trkpt>
      <trkpt lat="47.88004" lon="-3.9308">
        <ele>6.8</ele>
        <time>2021-08-12T09:40:16Z</time>
      </trkpt>
      <trkpt lat="47.88006" lon="-3.93079">
        <ele>6.8</ele>
        <time>2021-08-12T09:40:17Z</time>
      </trkpt>
      <trkpt lat="47.88008" lon="-3.93078">
        <ele>6.8</ele>
        <time>2021-08-12T09:40:18Z</time>
      </trkpt>
      <trkpt lat="47.88011" lon="-3.93078">
        <ele>6.8</ele>
        <time>2021-08-12T09:40:19Z</time>
      </trkpt>
      <trkpt lat="47.88013" lon="-3.93079">
        <ele>6.8</ele>
        <time>2021-08-12T09:40:20Z</time>
      </trkpt>
      <trkpt lat="47.88016" lon="-3.9308">
        <ele>6.8</ele>
        <time>2021-08-12T09:40:21Z</time>
      </trkpt>
      <trkpt lat="47.88019" lon="-3.93081">
        <ele>6.8</ele>
        <time>2021-08-12T09:40:22Z</time>
      </trkpt>
      <trkpt lat="47.88022" lon="-3.93082">
        <ele>6.8</ele>
        <time>2021-08-12T09:40:23Z</time>
      </trkpt>
      <trkpt lat="47.88025" lon="-3.93083">
        <ele>6.8</ele>
        <time>2021-08-12T09:40:24Z</time>
      </trkpt>
      <trkpt lat="47.88029" lon="-3.93084">
        <ele>6.8</ele>
        <time>2021-08-12T09:40:25Z</time>
      </trkpt>
      <trkpt lat="47.88032" lon="-3.93085">
        <ele>6.8</ele>
        <time>2021-08-12T09:40:26Z</time>
      </trkpt>
      <trkpt lat="47.88035" lon="-3.93086">
        <ele>6.6</ele>
        <time>2021-08-12T09:40:27Z</time>
      </trkpt>
      <trkpt lat="47.88037" lon="-3.93088">
        <ele>6.6</ele>
        <time>2021-08-12T09:40:28Z</time>
      </trkpt>
      <trkpt lat="47.8804" lon="-3.93089">
        <ele>6.6</ele>
        <time>2021-08-12T09:40:29Z</time>
      </trkpt>
      <trkpt lat="47.88042" lon="-3.9309">
        <ele>6.6</ele>
        <time>2021-08-12T09:40:30Z</time>
      </trkpt>
      <trkpt lat="47.88044" lon="-3.9309">
        <ele>6.8</ele>
        <time>2021-08-12T09:40:31Z</time>
      </trkpt>
      <trkpt lat="47.88048" lon="-3.93091">
        <ele>6.8</ele>
        <time>2021-08-12T09:40:33Z</time>
      </trkpt>
      <trkpt lat="47.88049" lon="-3.93092">
        <ele>6.8</ele>
        <time>2021-08-12T09:40:34Z</time>
      </trkpt>
      <trkpt lat="47.88051" lon="-3.93094">
        <ele>6.8</ele>
        <time>2021-08-12T09:40:35Z</time>
      </trkpt>
      <trkpt lat="47.88052" lon="-3.93095">
        <ele>7</ele>
        <time>2021-08-12T09:40:36Z</time>
      </trkpt>
      <trkpt lat="47.88053" lon="-3.93096">
        <ele>7.2</ele>
        <time>2021-08-12T09:40:37Z</time>
      </trkpt>
      <trkpt lat="47.88054" lon="-3.93097">
        <ele>7.2</ele>
        <time>2021-08-12T09:40:38Z</time>
      </trkpt>
      <trkpt lat="47.88055" lon="-3.93097">
        <ele>7.4</ele>
        <time>2021-08-12T09:40:39Z</time>
      </trkpt>
      <trkpt lat="47.88056" lon="-3.93098">
        <ele>7.4</ele>
        <time>2021-08-12T09:40:40Z</time>
      </trkpt>
      <trkpt lat="47.88057" lon="-3.93098">
        <ele>7.4</ele>
        <time>2021-08-12T09:40:41Z</time>
      </trkpt>
      <trkpt lat="47.88058" lon="-3.931">
        <ele>7.4</ele>
        <time>2021-08-12T09:40:42Z</time>
      </trkpt>
      <trkpt lat="47.88061" lon="-3.93103">
        <ele>7.4</ele>
        <time>2021-08-12T09:40:44Z</time>
      </trkpt>
      <trkpt lat="47.88063" lon="-3.93105">
        <ele>7.4</ele>
        <time>2021-08-12T09:40:45Z</time>
      </trkpt>
      <trkpt lat="47.88064" lon="-3.93107">
        <ele>7.6</ele>
        <time>2021-08-12T09:40:46Z</time>
      </trkpt>
      <trkpt lat="47.88065" lon="-3.93109">
        <ele>7.4</ele>
        <time>2021-08-12T09:40:47Z</time>
      </trkpt>
      <trkpt lat="47.88067" lon="-3.93111">
        <ele>7.4</ele>
        <time>2021-08-12T09:40:48Z</time>
      </trkpt>
      <trkpt lat="47.88068" lon="-3.93113">
        <ele>7.4</ele>
        <time>2021-08-12T09:40:49Z</time>
      </trkpt>
      <trkpt lat="47.8807" lon="-3.93115">
        <ele>7.4</ele>
        <time>2021-08-12T09:40:50Z</time>
      </trkpt>
      <trkpt lat="47.88071" lon="-3.93117">
        <ele>7.4</ele>
        <time>2021-08-12T09:40:51Z</time>
      </trkpt>
      <trkpt lat="47.88072" lon="-3.93119">
        <ele>7.4</ele>
        <time>2021-08-12T09:40:52Z</time>
      </trkpt>
      <trkpt lat="47.88074" lon="-3.93121">
        <ele>7.4</ele>
        <time>2021-08-12T09:40:53Z</time>
      </trkpt>
      <trkpt lat="47.88075" lon="-3.93122">
        <ele>7.4</ele>
        <time>2021-08-12T09:40:55Z</time>
      </trkpt>
      <trkpt lat="47.88075" lon="-3.93122">
        <ele>7.4</ele>
        <time>2021-08-12T09:40:56Z</time>
      </trkpt>
      <trkpt lat="47.88075" lon="-3.93123">
        <ele>7.4</ele>
        <time>2021-08-12T09:40:57Z</time>
      </trkpt>
      <trkpt lat="47.88076" lon="-3.93125">
        <ele>7.4</ele>
        <time>2021-08-12T09:40:59Z</time>
      </trkpt>
      <trkpt lat="47.88078" lon="-3.93126">
        <ele>7.4</ele>
        <time>2021-08-12T09:41:00Z</time>
      </trkpt>
      <trkpt lat="47.88079" lon="-3.93128">
        <ele>7.4</ele>
        <time>2021-08-12T09:41:01Z</time>
      </trkpt>
      <trkpt lat="47.88081" lon="-3.93131">
        <ele>7.4</ele>
        <time>2021-08-12T09:41:02Z</time>
      </trkpt>
      <trkpt lat="47.88083" lon="-3.93134">
        <ele>7.4</ele>
        <time>2021-08-12T09:41:03Z</time>
      </trkpt>
      <trkpt lat="47.88085" lon="-3.93137">
        <ele>7.4</ele>
        <time>2021-08-12T09:41:04Z</time>
      </trkpt>
      <trkpt lat="47.88088" lon="-3.9314">
        <ele>7.4</ele>
        <time>2021-08-12T09:41:05Z</time>
      </trkpt>
      <trkpt lat="47.8809" lon="-3.93144">
        <ele>7.4</ele>
        <time>2021-08-12T09:41:06Z</time>
      </trkpt>
      <trkpt lat="47.88091" lon="-3.93147">
        <ele>7.4</ele>
        <time>2021-08-12T09:41:07Z</time>
      </trkpt>
      <trkpt lat="47.88093" lon="-3.93149">
        <ele>7.4</ele>
        <time>2021-08-12T09:41:08Z</time>
      </trkpt>
      <trkpt lat="47.88094" lon="-3.93152">
        <ele>7.4</ele>
        <time>2021-08-12T09:41:09Z</time>
      </trkpt>
      <trkpt lat="47.88096" lon="-3.93154">
        <ele>7.6</ele>
        <time>2021-08-12T09:41:10Z</time>
      </trkpt>
      <trkpt lat="47.881" lon="-3.9316">
        <ele>7.6</ele>
        <time>2021-08-12T09:41:12Z</time>
      </trkpt>
      <trkpt lat="47.88102" lon="-3.93162">
        <ele>7.6</ele>
        <time>2021-08-12T09:41:13Z</time>
      </trkpt>
      <trkpt lat="47.88103" lon="-3.93164">
        <ele>7.8</ele>
        <time>2021-08-12T09:41:14Z</time>
      </trkpt>
      <trkpt lat="47.88105" lon="-3.93167">
        <ele>7.8</ele>
        <time>2021-08-12T09:41:15Z</time>
      </trkpt>
      <trkpt lat="47.88107" lon="-3.9317">
        <ele>7.8</ele>
        <time>2021-08-12T09:41:16Z</time>
      </trkpt>
      <trkpt lat="47.88109" lon="-3.93172">
        <ele>7.8</ele>
        <time>2021-08-12T09:41:17Z</time>
      </trkpt>
      <trkpt lat="47.88111" lon="-3.93175">
        <ele>8</ele>
        <time>2021-08-12T09:41:18Z</time>
      </trkpt>
      <trkpt lat="47.88112" lon="-3.93178">
        <ele>8</ele>
        <time>2021-08-12T09:41:19Z</time>
      </trkpt>
      <trkpt lat="47.88114" lon="-3.93181">
        <ele>8</ele>
        <time>2021-08-12T09:41:20Z</time>
      </trkpt>
      <trkpt lat="47.88115" lon="-3.93183">
        <ele>8</ele>
        <time>2021-08-12T09:41:21Z</time>
      </trkpt>
      <trkpt lat="47.88115" lon="-3.93184">
        <ele>8.2</ele>
        <time>2021-08-12T09:41:22Z</time>
      </trkpt>
      <trkpt lat="47.88115" lon="-3.93185">
        <ele>8.2</ele>
        <time>2021-08-12T09:41:23Z</time>
      </trkpt>
      <trkpt lat="47.88116" lon="-3.93187">
        <ele>8.2</ele>
        <time>2021-08-12T09:41:24Z</time>
      </trkpt>
      <trkpt lat="47.88117" lon="-3.93189">
        <ele>8.2</ele>
        <time>2021-08-12T09:41:25Z</time>
      </trkpt>
      <trkpt lat="47.88121" lon="-3.93194">
        <ele>8.2</ele>
        <time>2021-08-12T09:41:27Z</time>
      </trkpt>
      <trkpt lat="47.88122" lon="-3.93197">
        <ele>8.2</ele>
        <time>2021-08-12T09:41:28Z</time>
      </trkpt>
      <trkpt lat="47.88124" lon="-3.93199">
        <ele>8.2</ele>
        <time>2021-08-12T09:41:29Z</time>
      </trkpt>
      <trkpt lat="47.88125" lon="-3.93202">
        <ele>8.4</ele>
        <time>2021-08-12T09:41:30Z</time>
      </trkpt>
      <trkpt lat="47.88127" lon="-3.93203">
        <ele>8.4</ele>
        <time>2021-08-12T09:41:31Z</time>
      </trkpt>
      <trkpt lat="47.88128" lon="-3.93203">
        <ele>8.4</ele>
        <time>2021-08-12T09:41:32Z</time>
      </trkpt>
      <trkpt lat="47.8813" lon="-3.93204">
        <ele>8.4</ele>
        <time>2021-08-12T09:41:33Z</time>
      </trkpt>
      <trkpt lat="47.88132" lon="-3.93205">
        <ele>8.4</ele>
        <time>2021-08-12T09:41:34Z</time>
      </trkpt>
      <trkpt lat="47.88137" lon="-3.9321">
        <ele>8.4</ele>
        <time>2021-08-12T09:41:36Z</time>
      </trkpt>
      <trkpt lat="47.8814" lon="-3.93213">
        <ele>8.4</ele>
        <time>2021-08-12T09:41:37Z</time>
      </trkpt>
      <trkpt lat="47.88142" lon="-3.93217">
        <ele>8.4</ele>
        <time>2021-08-12T09:41:38Z</time>
      </trkpt>
      <trkpt lat="47.88145" lon="-3.93222">
        <ele>8.4</ele>
        <time>2021-08-12T09:41:39Z</time>
      </trkpt>
      <trkpt lat="47.88148" lon="-3.93226">
        <ele>8.4</ele>
        <time>2021-08-12T09:41:40Z</time>
      </trkpt>
      <trkpt lat="47.88151" lon="-3.93231">
        <ele>8.4</ele>
        <time>2021-08-12T09:41:41Z</time>
      </trkpt>
      <trkpt lat="47.88154" lon="-3.93235">
        <ele>8.4</ele>
        <time>2021-08-12T09:41:42Z</time>
      </trkpt>
      <trkpt lat="47.88157" lon="-3.9324">
        <ele>8.4</ele>
        <time>2021-08-12T09:41:43Z</time>
      </trkpt>
      <trkpt lat="47.8816" lon="-3.93245">
        <ele>8.4</ele>
        <time>2021-08-12T09:41:44Z</time>
      </trkpt>
      <trkpt lat="47.88162" lon="-3.93249">
        <ele>8.4</ele>
        <time>2021-08-12T09:41:45Z</time>
      </trkpt>
      <trkpt lat="47.88168" lon="-3.93258">
        <ele>8.4</ele>
        <time>2021-08-12T09:41:47Z</time>
      </trkpt>
      <trkpt lat="47.8817" lon="-3.93263">
        <ele>8.4</ele>
        <time>2021-08-12T09:41:48Z</time>
      </trkpt>
      <trkpt lat="47.88173" lon="-3.93267">
        <ele>8.4</ele>
        <time>2021-08-12T09:41:49Z</time>
      </trkpt>
      <trkpt lat="47.88176" lon="-3.93271">
        <ele>8.4</ele>
        <time>2021-08-12T09:41:50Z</time>
      </trkpt>
      <trkpt lat="47.88179" lon="-3.93275">
        <ele>8.4</ele>
        <time>2021-08-12T09:41:51Z</time>
      </trkpt>
      <trkpt lat="47.88181" lon="-3.93279">
        <ele>8.4</ele>
        <time>2021-08-12T09:41:52Z</time>
      </trkpt>
      <trkpt lat="47.88184" lon="-3.93283">
        <ele>8.4</ele>
        <time>2021-08-12T09:41:53Z</time>
      </trkpt>
      <trkpt lat="47.88187" lon="-3.93286">
        <ele>8.4</ele>
        <time>2021-08-12T09:41:54Z</time>
      </trkpt>
      <trkpt lat="47.8819" lon="-3.93289">
        <ele>8.6</ele>
        <time>2021-08-12T09:41:55Z</time>
      </trkpt>
      <trkpt lat="47.88193" lon="-3.93292">
        <ele>8.8</ele>
        <time>2021-08-12T09:41:56Z</time>
      </trkpt>
      <trkpt lat="47.88199" lon="-3.93299">
        <ele>9</ele>
        <time>2021-08-12T09:41:58Z</time>
      </trkpt>
      <trkpt lat="47.88201" lon="-3.93303">
        <ele>9.2</ele>
        <time>2021-08-12T09:41:59Z</time>
      </trkpt>
      <trkpt lat="47.88204" lon="-3.93306">
        <ele>9.2</ele>
        <time>2021-08-12T09:42:00Z</time>
      </trkpt>
      <trkpt lat="47.88205" lon="-3.9331">
        <ele>9.2</ele>
        <time>2021-08-12T09:42:01Z</time>
      </trkpt>
      <trkpt lat="47.88204" lon="-3.93313">
        <ele>9.2</ele>
        <time>2021-08-12T09:42:02Z</time>
      </trkpt>
      <trkpt lat="47.88202" lon="-3.93314">
        <ele>9.2</ele>
        <time>2021-08-12T09:42:03Z</time>
      </trkpt>
      <trkpt lat="47.882" lon="-3.93314">
        <ele>9.2</ele>
        <time>2021-08-12T09:42:04Z</time>
      </trkpt>
      <trkpt lat="47.88199" lon="-3.93315">
        <ele>9.4</ele>
        <time>2021-08-12T09:42:05Z</time>
      </trkpt>
      <trkpt lat="47.88198" lon="-3.93318">
        <ele>9.6</ele>
        <time>2021-08-12T09:42:06Z</time>
      </trkpt>
      <trkpt lat="47.88198" lon="-3.9332">
        <ele>9.8</ele>
        <time>2021-08-12T09:42:07Z</time>
      </trkpt>
      <trkpt lat="47.88198" lon="-3.9332">
        <ele>10</ele>
        <time>2021-08-12T09:42:08Z</time>
      </trkpt>
      <trkpt lat="47.88198" lon="-3.93322">
        <ele>10.6</ele>
        <time>2021-08-12T09:42:32Z</time>
      </trkpt>
      <trkpt lat="47.88198" lon="-3.93323">
        <ele>10.6</ele>
        <time>2021-08-12T09:42:33Z</time>
      </trkpt>
      <trkpt lat="47.88198" lon="-3.93323">
        <ele>10.6</ele>
        <time>2021-08-12T09:42:34Z</time>
      </trkpt>
      <trkpt lat="47.88198" lon="-3.93323">
        <ele>10.4</ele>
        <time>2021-08-12T09:43:17Z</time>
      </trkpt>
      <trkpt lat="47.88198" lon="-3.93322">
        <ele>10.4</ele>
        <time>2021-08-12T09:43:18Z</time>
      </trkpt>
      <trkpt lat="47.88198" lon="-3.93322">
        <ele>10.4</ele>
        <time>2021-08-12T09:43:19Z</time>
      </trkpt>
      <trkpt lat="47.882" lon="-3.93323">
        <ele>10.2</ele>
        <time>2021-08-12T10:09:36Z</time>
      </trkpt>
      <trkpt lat="47.882" lon="-3.93322">
        <ele>10.2</ele>
        <time>2021-08-12T10:09:37Z</time>
      </trkpt>
      <trkpt lat="47.882" lon="-3.93322">
        <ele>10.2</ele>
        <time>2021-08-12T10:09:38Z</time>
      </trkpt>
      <trkpt lat="47.88201" lon="-3.93307">
        <ele>11</ele>
        <time>2021-08-12T10:27:52Z</time>
      </trkpt>
      <trkpt lat="47.882" lon="-3.93306">
        <ele>11</ele>
        <time>2021-08-12T10:27:53Z</time>
      </trkpt>
      <trkpt lat="47.88198" lon="-3.93303">
        <ele>11</ele>
        <time>2021-08-12T10:27:54Z</time>
      </trkpt>
      <trkpt lat="47.88196" lon="-3.933">
        <ele>10.8</ele>
        <time>2021-08-12T10:27:55Z</time>
      </trkpt>
      <trkpt lat="47.88193" lon="-3.93297">
        <ele>10.8</ele>
        <time>2021-08-12T10:27:56Z</time>
      </trkpt>
      <trkpt lat="47.8819" lon="-3.93293">
        <ele>10.6</ele>
        <time>2021-08-12T10:27:57Z</time>
      </trkpt>
      <trkpt lat="47.88187" lon="-3.93289">
        <ele>10.6</ele>
        <time>2021-08-12T10:27:58Z</time>
      </trkpt>
      <trkpt lat="47.88183" lon="-3.93284">
        <ele>10.4</ele>
        <time>2021-08-12T10:27:59Z</time>
      </trkpt>
      <trkpt lat="47.8818" lon="-3.9328">
        <ele>10.4</ele>
        <time>2021-08-12T10:28:00Z</time>
      </trkpt>
      <trkpt lat="47.88177" lon="-3.93275">
        <ele>10.4</ele>
        <time>2021-08-12T10:28:01Z</time>
      </trkpt>
      <trkpt lat="47.88173" lon="-3.93269">
        <ele>10.4</ele>
        <time>2021-08-12T10:28:02Z</time>
      </trkpt>
      <trkpt lat="47.8817" lon="-3.93264">
        <ele>10.2</ele>
        <time>2021-08-12T10:28:03Z</time>
      </trkpt>
      <trkpt lat="47.88166" lon="-3.93258">
        <ele>10</ele>
        <time>2021-08-12T10:28:04Z</time>
      </trkpt>
      <trkpt lat="47.88163" lon="-3.93253">
        <ele>9.8</ele>
        <time>2021-08-12T10:28:05Z</time>
      </trkpt>
      <trkpt lat="47.88159" lon="-3.93247">
        <ele>9.4</ele>
        <time>2021-08-12T10:28:06Z</time>
      </trkpt>
      <trkpt lat="47.88155" lon="-3.93241">
        <ele>9</ele>
        <time>2021-08-12T10:28:07Z</time>
      </trkpt>
      <trkpt lat="47.88151" lon="-3.93236">
        <ele>8.8</ele>
        <time>2021-08-12T10:28:08Z</time>
      </trkpt>
      <trkpt lat="47.88147" lon="-3.93231">
        <ele>8.4</ele>
        <time>2021-08-12T10:28:09Z</time>
      </trkpt>
      <trkpt lat="47.88143" lon="-3.93226">
        <ele>8.4</ele>
        <time>2021-08-12T10:28:10Z</time>
      </trkpt>
      <trkpt lat="47.8814" lon="-3.9322">
        <ele>8.2</ele>
        <time>2021-08-12T10:28:11Z</time>
      </trkpt>
      <trkpt lat="47.88136" lon="-3.93215">
        <ele>8</ele>
        <time>2021-08-12T10:28:12Z</time>
      </trkpt>
      <trkpt lat="47.88133" lon="-3.93209">
        <ele>7.8</ele>
        <time>2021-08-12T10:28:13Z</time>
      </trkpt>
      <trkpt lat="47.8813" lon="-3.93204">
        <ele>7.4</ele>
        <time>2021-08-12T10:28:14Z</time>
      </trkpt>
      <trkpt lat="47.88124" lon="-3.93193">
        <ele>7.2</ele>
        <time>2021-08-12T10:28:16Z</time>
      </trkpt>
      <trkpt lat="47.88121" lon="-3.93188">
        <ele>7</ele>
        <time>2021-08-12T10:28:17Z</time>
      </trkpt>
      <trkpt lat="47.88117" lon="-3.93183">
        <ele>7</ele>
        <time>2021-08-12T10:28:18Z</time>
      </trkpt>
      <trkpt lat="47.88114" lon="-3.93177">
        <ele>7</ele>
        <time>2021-08-12T10:28:19Z</time>
      </trkpt>
      <trkpt lat="47.88111" lon="-3.93171">
        <ele>7</ele>
        <time>2021-08-12T10:28:20Z</time>
      </trkpt>
      <trkpt lat="47.88107" lon="-3.93166">
        <ele>7</ele>
        <time>2021-08-12T10:28:21Z</time>
      </trkpt>
      <trkpt lat="47.88104" lon="-3.93162">
        <ele>7</ele>
        <time>2021-08-12T10:28:22Z</time>
      </trkpt>
      <trkpt lat="47.881" lon="-3.93157">
        <ele>7</ele>
        <time>2021-08-12T10:28:23Z</time>
      </trkpt>
      <trkpt lat="47.88096" lon="-3.93152">
        <ele>7</ele>
        <time>2021-08-12T10:28:24Z</time>
      </trkpt>
      <trkpt lat="47.88093" lon="-3.93146">
        <ele>7</ele>
        <time>2021-08-12T10:28:25Z</time>
      </trkpt>
      <trkpt lat="47.88086" lon="-3.93136">
        <ele>7</ele>
        <time>2021-08-12T10:28:27Z</time>
      </trkpt>
      <trkpt lat="47.88083" lon="-3.9313">
        <ele>7</ele>
        <time>2021-08-12T10:28:28Z</time>
      </trkpt>
      <trkpt lat="47.8808" lon="-3.93125">
        <ele>7</ele>
        <time>2021-08-12T10:28:29Z</time>
      </trkpt>
      <trkpt lat="47.88076" lon="-3.9312">
        <ele>7.2</ele>
        <time>2021-08-12T10:28:30Z</time>
      </trkpt>
      <trkpt lat="47.88073" lon="-3.93115">
        <ele>7.2</ele>
        <time>2021-08-12T10:28:31Z</time>
      </trkpt>
      <trkpt lat="47.88069" lon="-3.9311">
        <ele>7.2</ele>
        <time>2021-08-12T10:28:32Z</time>
      </trkpt>
      <trkpt lat="47.88066" lon="-3.93106">
        <ele>7.2</ele>
        <time>2021-08-12T10:28:33Z</time>
      </trkpt>
      <trkpt lat="47.88063" lon="-3.93101">
        <ele>7.2</ele>
        <time>2021-08-12T10:28:34Z</time>
      </trkpt>
      <trkpt lat="47.88059" lon="-3.93097">
        <ele>7.2</ele>
        <time>2021-08-12T10:28:35Z</time>
      </trkpt>
      <trkpt lat="47.88056" lon="-3.93093">
        <ele>7.2</ele>
        <time>2021-08-12T10:28:36Z</time>
      </trkpt>
      <trkpt lat="47.88053" lon="-3.93089">
        <ele>7.2</ele>
        <time>2021-08-12T10:28:37Z</time>
      </trkpt>
      <trkpt lat="47.88051" lon="-3.93084">
        <ele>7.2</ele>
        <time>2021-08-12T10:28:38Z</time>
      </trkpt>
      <trkpt lat="47.88048" lon="-3.93079">
        <ele>7.2</ele>
        <time>2021-08-12T10:28:39Z</time>
      </trkpt>
      <trkpt lat="47.88046" lon="-3.93074">
        <ele>7.2</ele>
        <time>2021-08-12T10:28:40Z</time>
      </trkpt>
      <trkpt lat="47.88044" lon="-3.93068">
        <ele>7.2</ele>
        <time>2021-08-12T10:28:41Z</time>
      </trkpt>
      <trkpt lat="47.88041" lon="-3.93062">
        <ele>7.2</ele>
        <time>2021-08-12T10:28:42Z</time>
      </trkpt>
      <trkpt lat="47.88037" lon="-3.93057">
        <ele>7</ele>
        <time>2021-08-12T10:28:43Z</time>
      </trkpt>
      <trkpt lat="47.88034" lon="-3.93052">
        <ele>7</ele>
        <time>2021-08-12T10:28:44Z</time>
      </trkpt>
      <trkpt lat="47.8803" lon="-3.93047">
        <ele>6.8</ele>
        <time>2021-08-12T10:28:45Z</time>
      </trkpt>
      <trkpt lat="47.88026" lon="-3.93043">
        <ele>6.8</ele>
        <time>2021-08-12T10:28:46Z</time>
      </trkpt>
      <trkpt lat="47.88022" lon="-3.93038">
        <ele>6.8</ele>
        <time>2021-08-12T10:28:47Z</time>
      </trkpt>
      <trkpt lat="47.88018" lon="-3.93034">
        <ele>6.8</ele>
        <time>2021-08-12T10:28:48Z</time>
      </trkpt>
      <trkpt lat="47.88013" lon="-3.93031">
        <ele>6.8</ele>
        <time>2021-08-12T10:28:49Z</time>
      </trkpt>
      <trkpt lat="47.88009" lon="-3.93027">
        <ele>6.8</ele>
        <time>2021-08-12T10:28:50Z</time>
      </trkpt>
      <trkpt lat="47.88005" lon="-3.93024">
        <ele>6.6</ele>
        <time>2021-08-12T10:28:51Z</time>
      </trkpt>
      <trkpt lat="47.88" lon="-3.93021">
        <ele>6.6</ele>
        <time>2021-08-12T10:28:52Z</time>
      </trkpt>
      <trkpt lat="47.87996" lon="-3.93018">
        <ele>6.6</ele>
        <time>2021-08-12T10:28:53Z</time>
      </trkpt>
      <trkpt lat="47.87991" lon="-3.93017">
        <ele>6.6</ele>
        <time>2021-08-12T10:28:54Z</time>
      </trkpt>
      <trkpt lat="47.87987" lon="-3.93015">
        <ele>6.4</ele>
        <time>2021-08-12T10:28:55Z</time>
      </trkpt>
      <trkpt lat="47.87982" lon="-3.93013">
        <ele>6.4</ele>
        <time>2021-08-12T10:28:56Z</time>
      </trkpt>
      <trkpt lat="47.87977" lon="-3.93012">
        <ele>6.2</ele>
        <time>2021-08-12T10:28:57Z</time>
      </trkpt>
      <trkpt lat="47.87972" lon="-3.93011">
        <ele>6.2</ele>
        <time>2021-08-12T10:28:58Z</time>
      </trkpt>
      <trkpt lat="47.87962" lon="-3.9301">
        <ele>6</ele>
        <time>2021-08-12T10:29:00Z</time>
      </trkpt>
      <trkpt lat="47.87957" lon="-3.9301">
        <ele>5.6</ele>
        <time>2021-08-12T10:29:01Z</time>
      </trkpt>
      <trkpt lat="47.87952" lon="-3.9301">
        <ele>5.4</ele>
        <time>2021-08-12T10:29:02Z</time>
      </trkpt>
      <trkpt lat="47.87948" lon="-3.9301">
        <ele>5.4</ele>
        <time>2021-08-12T10:29:03Z</time>
      </trkpt>
      <trkpt lat="47.87943" lon="-3.9301">
        <ele>5.2</ele>
        <time>2021-08-12T10:29:04Z</time>
      </trkpt>
      <trkpt lat="47.87938" lon="-3.9301">
        <ele>5</ele>
        <time>2021-08-12T10:29:05Z</time>
      </trkpt>
      <trkpt lat="47.87934" lon="-3.9301">
        <ele>5</ele>
        <time>2021-08-12T10:29:06Z</time>
      </trkpt>
      <trkpt lat="47.87929" lon="-3.93009">
        <ele>5</ele>
        <time>2021-08-12T10:29:07Z</time>
      </trkpt>
      <trkpt lat="47.87925" lon="-3.93009">
        <ele>5</ele>
        <time>2021-08-12T10:29:08Z</time>
      </trkpt>
      <trkpt lat="47.87921" lon="-3.93009">
        <ele>4.8</ele>
        <time>2021-08-12T10:29:09Z</time>
      </trkpt>
      <trkpt lat="47.87912" lon="-3.93009">
        <ele>4.8</ele>
        <time>2021-08-12T10:29:11Z</time>
      </trkpt>
      <trkpt lat="47.87907" lon="-3.93009">
        <ele>5</ele>
        <time>2021-08-12T10:29:12Z</time>
      </trkpt>
      <trkpt lat="47.87903" lon="-3.93008">
        <ele>5</ele>
        <time>2021-08-12T10:29:13Z</time>
      </trkpt>
      <trkpt lat="47.87898" lon="-3.93008">
        <ele>5</ele>
        <time>2021-08-12T10:29:14Z</time>
      </trkpt>
      <trkpt lat="47.87894" lon="-3.93008">
        <ele>5.2</ele>
        <time>2021-08-12T10:29:15Z</time>
      </trkpt>
      <trkpt lat="47.8789" lon="-3.93008">
        <ele>5.2</ele>
        <time>2021-08-12T10:29:16Z</time>
      </trkpt>
      <trkpt lat="47.87885" lon="-3.93007">
        <ele>5.2</ele>
        <time>2021-08-12T10:29:17Z</time>
      </trkpt>
      <trkpt lat="47.87881" lon="-3.93007">
        <ele>5.4</ele>
        <time>2021-08-12T10:29:18Z</time>
      </trkpt>
      <trkpt lat="47.87877" lon="-3.93007">
        <ele>5.6</ele>
        <time>2021-08-12T10:29:19Z</time>
      </trkpt>
      <trkpt lat="47.87872" lon="-3.93007">
        <ele>5.6</ele>
        <time>2021-08-12T10:29:20Z</time>
      </trkpt>
      <trkpt lat="47.87863" lon="-3.93008">
        <ele>5.8</ele>
        <time>2021-08-12T10:29:22Z</time>
      </trkpt>
      <trkpt lat="47.87858" lon="-3.93008">
        <ele>6</ele>
        <time>2021-08-12T10:29:23Z</time>
      </trkpt>
      <trkpt lat="47.87854" lon="-3.93009">
        <ele>6</ele>
        <time>2021-08-12T10:29:24Z</time>
      </trkpt>
      <trkpt lat="47.87849" lon="-3.93009">
        <ele>6.2</ele>
        <time>2021-08-12T10:29:25Z</time>
      </trkpt>
      <trkpt lat="47.87844" lon="-3.9301">
        <ele>6.2</ele>
        <time>2021-08-12T10:29:26Z</time>
      </trkpt>
      <trkpt lat="47.87839" lon="-3.93012">
        <ele>6.2</ele>
        <time>2021-08-12T10:29:27Z</time>
      </trkpt>
      <trkpt lat="47.87834" lon="-3.93013">
        <ele>6.2</ele>
        <time>2021-08-12T10:29:28Z</time>
      </trkpt>
      <trkpt lat="47.87828" lon="-3.93014">
        <ele>6.2</ele>
        <time>2021-08-12T10:29:29Z</time>
      </trkpt>
      <trkpt lat="47.87823" lon="-3.93015">
        <ele>6.2</ele>
        <time>2021-08-12T10:29:30Z</time>
      </trkpt>
      <trkpt lat="47.87818" lon="-3.93017">
        <ele>6.2</ele>
        <time>2021-08-12T10:29:31Z</time>
      </trkpt>
      <trkpt lat="47.87808" lon="-3.9302">
        <ele>6.2</ele>
        <time>2021-08-12T10:29:33Z</time>
      </trkpt>
      <trkpt lat="47.87804" lon="-3.93022">
        <ele>6.2</ele>
        <time>2021-08-12T10:29:34Z</time>
      </trkpt>
      <trkpt lat="47.87799" lon="-3.93023">
        <ele>6.2</ele>
        <time>2021-08-12T10:29:35Z</time>
      </trkpt>
      <trkpt lat="47.87794" lon="-3.93025">
        <ele>6.2</ele>
        <time>2021-08-12T10:29:36Z</time>
      </trkpt>
      <trkpt lat="47.87789" lon="-3.93027">
        <ele>6</ele>
        <time>2021-08-12T10:29:37Z</time>
      </trkpt>
      <trkpt lat="47.87784" lon="-3.93029">
        <ele>6</ele>
        <time>2021-08-12T10:29:38Z</time>
      </trkpt>
      <trkpt lat="47.8778" lon="-3.93031">
        <ele>6</ele>
        <time>2021-08-12T10:29:39Z</time>
      </trkpt>
      <trkpt lat="47.87775" lon="-3.93033">
        <ele>6</ele>
        <time>2021-08-12T10:29:40Z</time>
      </trkpt>
      <trkpt lat="47.8777" lon="-3.93034">
        <ele>6</ele>
        <time>2021-08-12T10:29:41Z</time>
      </trkpt>
      <trkpt lat="47.87765" lon="-3.93036">
        <ele>6</ele>
        <time>2021-08-12T10:29:42Z</time>
      </trkpt>
      <trkpt lat="47.87757" lon="-3.93037">
        <ele>6</ele>
        <time>2021-08-12T10:29:44Z</time>
      </trkpt>
      <trkpt lat="47.87753" lon="-3.93037">
        <ele>6</ele>
        <time>2021-08-12T10:29:45Z</time>
      </trkpt>
      <trkpt lat="47.87749" lon="-3.93038">
        <ele>6</ele>
        <time>2021-08-12T10:29:46Z</time>
      </trkpt>
      <trkpt lat="47.87745" lon="-3.93039">
        <ele>6</ele>
        <time>2021-08-12T10:29:47Z</time>
      </trkpt>
      <trkpt lat="47.87741" lon="-3.9304">
        <ele>6.2</ele>
        <time>2021-08-12T10:29:48Z</time>
      </trkpt>
      <trkpt lat="47.87738" lon="-3.9304">
        <ele>6.2</ele>
        <time>2021-08-12T10:29:49Z</time>
      </trkpt>
      <trkpt lat="47.87734" lon="-3.93039">
        <ele>6.6</ele>
        <time>2021-08-12T10:29:50Z</time>
      </trkpt>
      <trkpt lat="47.8773" lon="-3.93039">
        <ele>6.6</ele>
        <time>2021-08-12T10:29:51Z</time>
      </trkpt>
      <trkpt lat="47.87726" lon="-3.9304">
        <ele>6.6</ele>
        <time>2021-08-12T10:29:52Z</time>
      </trkpt>
      <trkpt lat="47.87723" lon="-3.93042">
        <ele>6.8</ele>
        <time>2021-08-12T10:29:53Z</time>
      </trkpt>
      <trkpt lat="47.87716" lon="-3.93044">
        <ele>7.4</ele>
        <time>2021-08-12T10:29:55Z</time>
      </trkpt>
      <trkpt lat="47.87712" lon="-3.93044">
        <ele>7.6</ele>
        <time>2021-08-12T10:29:56Z</time>
      </trkpt>
      <trkpt lat="47.87708" lon="-3.93043">
        <ele>7.8</ele>
        <time>2021-08-12T10:29:57Z</time>
      </trkpt>
      <trkpt lat="47.87705" lon="-3.93042">
        <ele>8</ele>
        <time>2021-08-12T10:29:58Z</time>
      </trkpt>
      <trkpt lat="47.87702" lon="-3.93041">
        <ele>8</ele>
        <time>2021-08-12T10:29:59Z</time>
      </trkpt>
      <trkpt lat="47.87698" lon="-3.93039">
        <ele>8.2</ele>
        <time>2021-08-12T10:30:00Z</time>
      </trkpt>
      <trkpt lat="47.87695" lon="-3.93038">
        <ele>8.2</ele>
        <time>2021-08-12T10:30:01Z</time>
      </trkpt>
      <trkpt lat="47.87692" lon="-3.93037">
        <ele>8.4</ele>
        <time>2021-08-12T10:30:02Z</time>
      </trkpt>
      <trkpt lat="47.87688" lon="-3.93036">
        <ele>8.4</ele>
        <time>2021-08-12T10:30:03Z</time>
      </trkpt>
      <trkpt lat="47.87685" lon="-3.93034">
        <ele>8.6</ele>
        <time>2021-08-12T10:30:04Z</time>
      </trkpt>
      <trkpt lat="47.87682" lon="-3.93033">
        <ele>8.8</ele>
        <time>2021-08-12T10:30:05Z</time>
      </trkpt>
      <trkpt lat="47.87679" lon="-3.93031">
        <ele>8.8</ele>
        <time>2021-08-12T10:30:06Z</time>
      </trkpt>
      <trkpt lat="47.87676" lon="-3.9303">
        <ele>8.8</ele>
        <time>2021-08-12T10:30:07Z</time>
      </trkpt>
      <trkpt lat="47.87673" lon="-3.93029">
        <ele>8.8</ele>
        <time>2021-08-12T10:30:08Z</time>
      </trkpt>
      <trkpt lat="47.87671" lon="-3.93028">
        <ele>9</ele>
        <time>2021-08-12T10:30:09Z</time>
      </trkpt>
      <trkpt lat="47.87668" lon="-3.93027">
        <ele>9.2</ele>
        <time>2021-08-12T10:30:10Z</time>
      </trkpt>
      <trkpt lat="47.87665" lon="-3.93025">
        <ele>9.4</ele>
        <time>2021-08-12T10:30:11Z</time>
      </trkpt>
      <trkpt lat="47.87662" lon="-3.93024">
        <ele>9.4</ele>
        <time>2021-08-12T10:30:12Z</time>
      </trkpt>
      <trkpt lat="47.8766" lon="-3.93022">
        <ele>9.6</ele>
        <time>2021-08-12T10:30:13Z</time>
      </trkpt>
      <trkpt lat="47.87657" lon="-3.9302">
        <ele>9.6</ele>
        <time>2021-08-12T10:30:14Z</time>
      </trkpt>
      <trkpt lat="47.87654" lon="-3.93018">
        <ele>9.6</ele>
        <time>2021-08-12T10:30:15Z</time>
      </trkpt>
      <trkpt lat="47.87649" lon="-3.93013">
        <ele>9.8</ele>
        <time>2021-08-12T10:30:17Z</time>
      </trkpt>
      <trkpt lat="47.87647" lon="-3.9301">
        <ele>10</ele>
        <time>2021-08-12T10:30:18Z</time>
      </trkpt>
      <trkpt lat="47.87645" lon="-3.93007">
        <ele>10.2</ele>
        <time>2021-08-12T10:30:19Z</time>
      </trkpt>
      <trkpt lat="47.87643" lon="-3.93004">
        <ele>10.4</ele>
        <time>2021-08-12T10:30:20Z</time>
      </trkpt>
      <trkpt lat="47.8764" lon="-3.93002">
        <ele>10.4</ele>
        <time>2021-08-12T10:30:21Z</time>
      </trkpt>
      <trkpt lat="47.87638" lon="-3.92999">
        <ele>10.6</ele>
        <time>2021-08-12T10:30:22Z</time>
      </trkpt>
      <trkpt lat="47.87635" lon="-3.92997">
        <ele>10.6</ele>
        <time>2021-08-12T10:30:23Z</time>
      </trkpt>
      <trkpt lat="47.87632" lon="-3.92996">
        <ele>10.8</ele>
        <time>2021-08-12T10:30:24Z</time>
      </trkpt>
      <trkpt lat="47.87629" lon="-3.92993">
        <ele>10.8</ele>
        <time>2021-08-12T10:30:25Z</time>
      </trkpt>
      <trkpt lat="47.87627" lon="-3.9299">
        <ele>10.8</ele>
        <time>2021-08-12T10:30:26Z</time>
      </trkpt>
      <trkpt lat="47.87622" lon="-3.92984">
        <ele>11</ele>
        <time>2021-08-12T10:30:28Z</time>
      </trkpt>
      <trkpt lat="47.8762" lon="-3.9298">
        <ele>11</ele>
        <time>2021-08-12T10:30:29Z</time>
      </trkpt>
      <trkpt lat="47.87617" lon="-3.92976">
        <ele>11</ele>
        <time>2021-08-12T10:30:30Z</time>
      </trkpt>
      <trkpt lat="47.87615" lon="-3.92973">
        <ele>11</ele>
        <time>2021-08-12T10:30:31Z</time>
      </trkpt>
      <trkpt lat="47.87612" lon="-3.92969">
        <ele>11</ele>
        <time>2021-08-12T10:30:32Z</time>
      </trkpt>
      <trkpt lat="47.87609" lon="-3.92966">
        <ele>11</ele>
        <time>2021-08-12T10:30:33Z</time>
      </trkpt>
      <trkpt lat="47.87606" lon="-3.92962">
        <ele>11.2</ele>
        <time>2021-08-12T10:30:34Z</time>
      </trkpt>
      <trkpt lat="47.87603" lon="-3.92959">
        <ele>11.2</ele>
        <time>2021-08-12T10:30:35Z</time>
      </trkpt>
      <trkpt lat="47.876" lon="-3.92955">
        <ele>11.2</ele>
        <time>2021-08-12T10:30:36Z</time>
      </trkpt>
      <trkpt lat="47.87597" lon="-3.92951">
        <ele>11.2</ele>
        <time>2021-08-12T10:30:37Z</time>
      </trkpt>
      <trkpt lat="47.87591" lon="-3.92942">
        <ele>11.2</ele>
        <time>2021-08-12T10:30:39Z</time>
      </trkpt>
      <trkpt lat="47.87587" lon="-3.92938">
        <ele>11.2</ele>
        <time>2021-08-12T10:30:40Z</time>
      </trkpt>
      <trkpt lat="47.87584" lon="-3.92934">
        <ele>11.2</ele>
        <time>2021-08-12T10:30:41Z</time>
      </trkpt>
      <trkpt lat="47.87581" lon="-3.9293">
        <ele>11.2</ele>
        <time>2021-08-12T10:30:42Z</time>
      </trkpt>
      <trkpt lat="47.87577" lon="-3.92927">
        <ele>11.2</ele>
        <time>2021-08-12T10:30:43Z</time>
      </trkpt>
      <trkpt lat="47.87574" lon="-3.92922">
        <ele>11.2</ele>
        <time>2021-08-12T10:30:44Z</time>
      </trkpt>
      <trkpt lat="47.8757" lon="-3.92918">
        <ele>11.2</ele>
        <time>2021-08-12T10:30:45Z</time>
      </trkpt>
      <trkpt lat="47.87567" lon="-3.92914">
        <ele>11.2</ele>
        <time>2021-08-12T10:30:46Z</time>
      </trkpt>
      <trkpt lat="47.87563" lon="-3.92909">
        <ele>11.2</ele>
        <time>2021-08-12T10:30:47Z</time>
      </trkpt>
      <trkpt lat="47.87559" lon="-3.92905">
        <ele>11</ele>
        <time>2021-08-12T10:30:48Z</time>
      </trkpt>
      <trkpt lat="47.87551" lon="-3.92896">
        <ele>11</ele>
        <time>2021-08-12T10:30:50Z</time>
      </trkpt>
      <trkpt lat="47.87547" lon="-3.92892">
        <ele>11</ele>
        <time>2021-08-12T10:30:51Z</time>
      </trkpt>
      <trkpt lat="47.87542" lon="-3.92889">
        <ele>10.8</ele>
        <time>2021-08-12T10:30:52Z</time>
      </trkpt>
      <trkpt lat="47.87538" lon="-3.92886">
        <ele>10.8</ele>
        <time>2021-08-12T10:30:53Z</time>
      </trkpt>
      <trkpt lat="47.87533" lon="-3.92883">
        <ele>10.6</ele>
        <time>2021-08-12T10:30:54Z</time>
      </trkpt>
      <trkpt lat="47.87528" lon="-3.9288">
        <ele>10.6</ele>
        <time>2021-08-12T10:30:55Z</time>
      </trkpt>
      <trkpt lat="47.87524" lon="-3.92877">
        <ele>10.4</ele>
        <time>2021-08-12T10:30:56Z</time>
      </trkpt>
      <trkpt lat="47.87519" lon="-3.92874">
        <ele>10.2</ele>
        <time>2021-08-12T10:30:57Z</time>
      </trkpt>
      <trkpt lat="47.87514" lon="-3.92872">
        <ele>10.2</ele>
        <time>2021-08-12T10:30:58Z</time>
      </trkpt>
      <trkpt lat="47.87508" lon="-3.9287">
        <ele>10.2</ele>
        <time>2021-08-12T10:30:59Z</time>
      </trkpt>
      <trkpt lat="47.87497" lon="-3.9287">
        <ele>10</ele>
        <time>2021-08-12T10:31:01Z</time>
      </trkpt>
      <trkpt lat="47.87491" lon="-3.92871">
        <ele>10</ele>
        <time>2021-08-12T10:31:02Z</time>
      </trkpt>
      <trkpt lat="47.87485" lon="-3.92872">
        <ele>9.8</ele>
        <time>2021-08-12T10:31:03Z</time>
      </trkpt>
      <trkpt lat="47.87479" lon="-3.92874">
        <ele>9.4</ele>
        <time>2021-08-12T10:31:04Z</time>
      </trkpt>
      <trkpt lat="47.87473" lon="-3.92876">
        <ele>9</ele>
        <time>2021-08-12T10:31:05Z</time>
      </trkpt>
      <trkpt lat="47.87467" lon="-3.92878">
        <ele>8.8</ele>
        <time>2021-08-12T10:31:06Z</time>
      </trkpt>
      <trkpt lat="47.8746" lon="-3.9288">
        <ele>8.6</ele>
        <time>2021-08-12T10:31:07Z</time>
      </trkpt>
      <trkpt lat="47.87454" lon="-3.92882">
        <ele>8.2</ele>
        <time>2021-08-12T10:31:08Z</time>
      </trkpt>
      <trkpt lat="47.87447" lon="-3.92883">
        <ele>8</ele>
        <time>2021-08-12T10:31:09Z</time>
      </trkpt>
      <trkpt lat="47.8744" lon="-3.92885">
        <ele>7.8</ele>
        <time>2021-08-12T10:31:10Z</time>
      </trkpt>
      <trkpt lat="47.87433" lon="-3.92887">
        <ele>7.4</ele>
        <time>2021-08-12T10:31:11Z</time>
      </trkpt>
      <trkpt lat="47.87427" lon="-3.92891">
        <ele>6.8</ele>
        <time>2021-08-12T10:31:12Z</time>
      </trkpt>
      <trkpt lat="47.8742" lon="-3.92894">
        <ele>6.2</ele>
        <time>2021-08-12T10:31:13Z</time>
      </trkpt>
      <trkpt lat="47.87414" lon="-3.92897">
        <ele>5.8</ele>
        <time>2021-08-12T10:31:14Z</time>
      </trkpt>
      <trkpt lat="47.87407" lon="-3.92899">
        <ele>5.6</ele>
        <time>2021-08-12T10:31:15Z</time>
      </trkpt>
      <trkpt lat="47.87401" lon="-3.92902">
        <ele>5.4</ele>
        <time>2021-08-12T10:31:16Z</time>
      </trkpt>
      <trkpt lat="47.87394" lon="-3.92905">
        <ele>4.8</ele>
        <time>2021-08-12T10:31:17Z</time>
      </trkpt>
      <trkpt lat="47.87388" lon="-3.92908">
        <ele>4.4</ele>
        <time>2021-08-12T10:31:18Z</time>
      </trkpt>
      <trkpt lat="47.87382" lon="-3.9291">
        <ele>4.2</ele>
        <time>2021-08-12T10:31:19Z</time>
      </trkpt>
      <trkpt lat="47.87375" lon="-3.92913">
        <ele>4</ele>
        <time>2021-08-12T10:31:20Z</time>
      </trkpt>
      <trkpt lat="47.8737" lon="-3.92917">
        <ele>4</ele>
        <time>2021-08-12T10:31:21Z</time>
      </trkpt>
      <trkpt lat="47.8736" lon="-3.92927">
        <ele>4</ele>
        <time>2021-08-12T10:31:23Z</time>
      </trkpt>
      <trkpt lat="47.87356" lon="-3.92932">
        <ele>4</ele>
        <time>2021-08-12T10:31:24Z</time>
      </trkpt>
      <trkpt lat="47.87351" lon="-3.92938">
        <ele>4</ele>
        <time>2021-08-12T10:31:25Z</time>
      </trkpt>
      <trkpt lat="47.87347" lon="-3.92944">
        <ele>4</ele>
        <time>2021-08-12T10:31:26Z</time>
      </trkpt>
      <trkpt lat="47.87343" lon="-3.9295">
        <ele>4</ele>
        <time>2021-08-12T10:31:27Z</time>
      </trkpt>
      <trkpt lat="47.8734" lon="-3.92957">
        <ele>4</ele>
        <time>2021-08-12T10:31:28Z</time>
      </trkpt>
      <trkpt lat="47.87338" lon="-3.92965">
        <ele>4</ele>
        <time>2021-08-12T10:31:29Z</time>
      </trkpt>
      <trkpt lat="47.87335" lon="-3.92971">
        <ele>4</ele>
        <time>2021-08-12T10:31:30Z</time>
      </trkpt>
      <trkpt lat="47.87332" lon="-3.92977">
        <ele>4</ele>
        <time>2021-08-12T10:31:31Z</time>
      </trkpt>
      <trkpt lat="47.87328" lon="-3.92983">
        <ele>4</ele>
        <time>2021-08-12T10:31:32Z</time>
      </trkpt>
      <trkpt lat="47.87321" lon="-3.92995">
        <ele>4</ele>
        <time>2021-08-12T10:31:34Z</time>
      </trkpt>
      <trkpt lat="47.87317" lon="-3.93001">
        <ele>4</ele>
        <time>2021-08-12T10:31:35Z</time>
      </trkpt>
      <trkpt lat="47.87314" lon="-3.93007">
        <ele>4</ele>
        <time>2021-08-12T10:31:36Z</time>
      </trkpt>
      <trkpt lat="47.8731" lon="-3.93013">
        <ele>4</ele>
        <time>2021-08-12T10:31:37Z</time>
      </trkpt>
      <trkpt lat="47.87306" lon="-3.93019">
        <ele>4</ele>
        <time>2021-08-12T10:31:38Z</time>
      </trkpt>
      <trkpt lat="47.87303" lon="-3.93024">
        <ele>4</ele>
        <time>2021-08-12T10:31:39Z</time>
      </trkpt>
      <trkpt lat="47.87299" lon="-3.9303">
        <ele>4</ele>
        <time>2021-08-12T10:31:40Z</time>
      </trkpt>
      <trkpt lat="47.87295" lon="-3.93035">
        <ele>4</ele>
        <time>2021-08-12T10:31:41Z</time>
      </trkpt>
      <trkpt lat="47.87292" lon="-3.9304">
        <ele>4.2</ele>
        <time>2021-08-12T10:31:42Z</time>
      </trkpt>
      <trkpt lat="47.87288" lon="-3.93045">
        <ele>4.2</ele>
        <time>2021-08-12T10:31:43Z</time>
      </trkpt>
      <trkpt lat="47.87284" lon="-3.9305">
        <ele>4.2</ele>
        <time>2021-08-12T10:31:44Z</time>
      </trkpt>
      <trkpt lat="47.8728" lon="-3.93054">
        <ele>4.2</ele>
        <time>2021-08-12T10:31:45Z</time>
      </trkpt>
      <trkpt lat="47.87276" lon="-3.93058">
        <ele>4.2</ele>
        <time>2021-08-12T10:31:46Z</time>
      </trkpt>
      <trkpt lat="47.87271" lon="-3.93061">
        <ele>4.2</ele>
        <time>2021-08-12T10:31:47Z</time>
      </trkpt>
      <trkpt lat="47.87267" lon="-3.93063">
        <ele>4.2</ele>
        <time>2021-08-12T10:31:48Z</time>
      </trkpt>
      <trkpt lat="47.87262" lon="-3.93064">
        <ele>4.2</ele>
        <time>2021-08-12T10:31:49Z</time>
      </trkpt>
      <trkpt lat="47.87257" lon="-3.93065">
        <ele>4.2</ele>
        <time>2021-08-12T10:31:50Z</time>
      </trkpt>
      <trkpt lat="47.87252" lon="-3.93066">
        <ele>4.2</ele>
        <time>2021-08-12T10:31:51Z</time>
      </trkpt>
      <trkpt lat="47.87247" lon="-3.93066">
        <ele>4.2</ele>
        <time>2021-08-12T10:31:52Z</time>
      </trkpt>
      <trkpt lat="47.87242" lon="-3.93065">
        <ele>4.2</ele>
        <time>2021-08-12T10:31:53Z</time>
      </trkpt>
      <trkpt lat="47.87238" lon="-3.93063">
        <ele>4.2</ele>
        <time>2021-08-12T10:31:54Z</time>
      </trkpt>
      <trkpt lat="47.87233" lon="-3.93061">
        <ele>4.2</ele>
        <time>2021-08-12T10:31:55Z</time>
      </trkpt>
      <trkpt lat="47.87229" lon="-3.93058">
        <ele>4.2</ele>
        <time>2021-08-12T10:31:56Z</time>
      </trkpt>
      <trkpt lat="47.87224" lon="-3.93055">
        <ele>4.2</ele>
        <time>2021-08-12T10:31:57Z</time>
      </trkpt>
      <trkpt lat="47.8722" lon="-3.93051">
        <ele>4.2</ele>
        <time>2021-08-12T10:31:58Z</time>
      </trkpt>
      <trkpt lat="47.87216" lon="-3.93047">
        <ele>4.2</ele>
        <time>2021-08-12T10:31:59Z</time>
      </trkpt>
      <trkpt lat="47.87212" lon="-3.93042">
        <ele>4.4</ele>
        <time>2021-08-12T10:32:00Z</time>
      </trkpt>
      <trkpt lat="47.87208" lon="-3.93038">
        <ele>4.6</ele>
        <time>2021-08-12T10:32:01Z</time>
      </trkpt>
      <trkpt lat="47.87204" lon="-3.93035">
        <ele>4.6</ele>
        <time>2021-08-12T10:32:02Z</time>
      </trkpt>
      <trkpt lat="47.87199" lon="-3.93031">
        <ele>4.6</ele>
        <time>2021-08-12T10:32:03Z</time>
      </trkpt>
      <trkpt lat="47.87195" lon="-3.93027">
        <ele>4.6</ele>
        <time>2021-08-12T10:32:04Z</time>
      </trkpt>
      <trkpt lat="47.87191" lon="-3.93023">
        <ele>4.8</ele>
        <time>2021-08-12T10:32:05Z</time>
      </trkpt>
      <trkpt lat="47.87183" lon="-3.93015">
        <ele>4.8</ele>
        <time>2021-08-12T10:32:07Z</time>
      </trkpt>
      <trkpt lat="47.87179" lon="-3.93011">
        <ele>4.8</ele>
        <time>2021-08-12T10:32:08Z</time>
      </trkpt>
      <trkpt lat="47.87174" lon="-3.93007">
        <ele>4.8</ele>
        <time>2021-08-12T10:32:09Z</time>
      </trkpt>
      <trkpt lat="47.8717" lon="-3.93003">
        <ele>4.8</ele>
        <time>2021-08-12T10:32:10Z</time>
      </trkpt>
      <trkpt lat="47.87166" lon="-3.92999">
        <ele>4.8</ele>
        <time>2021-08-12T10:32:11Z</time>
      </trkpt>
      <trkpt lat="47.87161" lon="-3.92995">
        <ele>4.8</ele>
        <time>2021-08-12T10:32:12Z</time>
      </trkpt>
      <trkpt lat="47.87157" lon="-3.92991">
        <ele>4.8</ele>
        <time>2021-08-12T10:32:13Z</time>
      </trkpt>
      <trkpt lat="47.87152" lon="-3.92988">
        <ele>4.8</ele>
        <time>2021-08-12T10:32:14Z</time>
      </trkpt>
      <trkpt lat="47.87148" lon="-3.92984">
        <ele>4.8</ele>
        <time>2021-08-12T10:32:15Z</time>
      </trkpt>
      <trkpt lat="47.87143" lon="-3.9298">
        <ele>4.8</ele>
        <time>2021-08-12T10:32:16Z</time>
      </trkpt>
      <trkpt lat="47.87139" lon="-3.92975">
        <ele>4.6</ele>
        <time>2021-08-12T10:32:17Z</time>
      </trkpt>
      <trkpt lat="47.87135" lon="-3.92969">
        <ele>4.6</ele>
        <time>2021-08-12T10:32:18Z</time>
      </trkpt>
      <trkpt lat="47.87131" lon="-3.92963">
        <ele>4.6</ele>
        <time>2021-08-12T10:32:19Z</time>
      </trkpt>
      <trkpt lat="47.87129" lon="-3.92956">
        <ele>4.8</ele>
        <time>2021-08-12T10:32:20Z</time>
      </trkpt>
      <trkpt lat="47.87126" lon="-3.92949">
        <ele>4.8</ele>
        <time>2021-08-12T10:32:21Z</time>
      </trkpt>
      <trkpt lat="47.87125" lon="-3.92941">
        <ele>4.8</ele>
        <time>2021-08-12T10:32:22Z</time>
      </trkpt>
      <trkpt lat="47.87123" lon="-3.92934">
        <ele>4.8</ele>
        <time>2021-08-12T10:32:23Z</time>
      </trkpt>
      <trkpt lat="47.87122" lon="-3.92926">
        <ele>4.8</ele>
        <time>2021-08-12T10:32:24Z</time>
      </trkpt>
      <trkpt lat="47.87121" lon="-3.92919">
        <ele>4.8</ele>
        <time>2021-08-12T10:32:25Z</time>
      </trkpt>
      <trkpt lat="47.87119" lon="-3.92911">
        <ele>5</ele>
        <time>2021-08-12T10:32:26Z</time>
      </trkpt>
      <trkpt lat="47.87118" lon="-3.92904">
        <ele>5</ele>
        <time>2021-08-12T10:32:27Z</time>
      </trkpt>
      <trkpt lat="47.87115" lon="-3.9289">
        <ele>5.2</ele>
        <time>2021-08-12T10:32:29Z</time>
      </trkpt>
      <trkpt lat="47.87113" lon="-3.92883">
        <ele>5.4</ele>
        <time>2021-08-12T10:32:30Z</time>
      </trkpt>
      <trkpt lat="47.87111" lon="-3.92876">
        <ele>5.6</ele>
        <time>2021-08-12T10:32:31Z</time>
      </trkpt>
      <trkpt lat="47.87109" lon="-3.92869">
        <ele>5.8</ele>
        <time>2021-08-12T10:32:32Z</time>
      </trkpt>
      <trkpt lat="47.87107" lon="-3.92862">
        <ele>5.8</ele>
        <time>2021-08-12T10:32:33Z</time>
      </trkpt>
      <trkpt lat="47.87104" lon="-3.92854">
        <ele>5.8</ele>
        <time>2021-08-12T10:32:34Z</time>
      </trkpt>
      <trkpt lat="47.87101" lon="-3.92847">
        <ele>5.8</ele>
        <time>2021-08-12T10:32:35Z</time>
      </trkpt>
      <trkpt lat="47.87098" lon="-3.9284">
        <ele>5.8</ele>
        <time>2021-08-12T10:32:36Z</time>
      </trkpt>
      <trkpt lat="47.87095" lon="-3.92833">
        <ele>5.8</ele>
        <time>2021-08-12T10:32:37Z</time>
      </trkpt>
      <trkpt lat="47.87091" lon="-3.92826">
        <ele>5.8</ele>
        <time>2021-08-12T10:32:38Z</time>
      </trkpt>
      <trkpt lat="47.87086" lon="-3.92811">
        <ele>5.8</ele>
        <time>2021-08-12T10:32:40Z</time>
      </trkpt>
      <trkpt lat="47.87083" lon="-3.92804">
        <ele>5.8</ele>
        <time>2021-08-12T10:32:41Z</time>
      </trkpt>
      <trkpt lat="47.87081" lon="-3.92796">
        <ele>5.8</ele>
        <time>2021-08-12T10:32:42Z</time>
      </trkpt>
      <trkpt lat="47.87079" lon="-3.92788">
        <ele>5.8</ele>
        <time>2021-08-12T10:32:43Z</time>
      </trkpt>
      <trkpt lat="47.87077" lon="-3.9278">
        <ele>5.4</ele>
        <time>2021-08-12T10:32:44Z</time>
      </trkpt>
      <trkpt lat="47.87074" lon="-3.92772">
        <ele>5.2</ele>
        <time>2021-08-12T10:32:45Z</time>
      </trkpt>
      <trkpt lat="47.87071" lon="-3.92765">
        <ele>5.2</ele>
        <time>2021-08-12T10:32:46Z</time>
      </trkpt>
      <trkpt lat="47.87067" lon="-3.92758">
        <ele>5.2</ele>
        <time>2021-08-12T10:32:47Z</time>
      </trkpt>
      <trkpt lat="47.87064" lon="-3.92751">
        <ele>5.2</ele>
        <time>2021-08-12T10:32:48Z</time>
      </trkpt>
      <trkpt lat="47.87061" lon="-3.92744">
        <ele>5.2</ele>
        <time>2021-08-12T10:32:49Z</time>
      </trkpt>
      <trkpt lat="47.87054" lon="-3.92731">
        <ele>5</ele>
        <time>2021-08-12T10:32:51Z</time>
      </trkpt>
      <trkpt lat="47.87051" lon="-3.92724">
        <ele>5</ele>
        <time>2021-08-12T10:32:52Z</time>
      </trkpt>
      <trkpt lat="47.87047" lon="-3.92717">
        <ele>5</ele>
        <time>2021-08-12T10:32:53Z</time>
      </trkpt>
      <trkpt lat="47.87044" lon="-3.92711">
        <ele>5</ele>
        <time>2021-08-12T10:32:54Z</time>
      </trkpt>
      <trkpt lat="47.87041" lon="-3.92704">
        <ele>5</ele>
        <time>2021-08-12T10:32:55Z</time>
      </trkpt>
      <trkpt lat="47.87037" lon="-3.92699">
        <ele>5.2</ele>
        <time>2021-08-12T10:32:56Z</time>
      </trkpt>
      <trkpt lat="47.87033" lon="-3.92694">
        <ele>5.2</ele>
        <time>2021-08-12T10:32:57Z</time>
      </trkpt>
      <trkpt lat="47.87028" lon="-3.92691">
        <ele>5.2</ele>
        <time>2021-08-12T10:32:58Z</time>
      </trkpt>
      <trkpt lat="47.87024" lon="-3.92688">
        <ele>5.2</ele>
        <time>2021-08-12T10:32:59Z</time>
      </trkpt>
      <trkpt lat="47.87019" lon="-3.92684">
        <ele>5.2</ele>
        <time>2021-08-12T10:33:00Z</time>
      </trkpt>
      <trkpt lat="47.8701" lon="-3.92678">
        <ele>5.2</ele>
        <time>2021-08-12T10:33:02Z</time>
      </trkpt>
      <trkpt lat="47.87005" lon="-3.92675">
        <ele>5.2</ele>
        <time>2021-08-12T10:33:03Z</time>
      </trkpt>
      <trkpt lat="47.87" lon="-3.92671">
        <ele>5.4</ele>
        <time>2021-08-12T10:33:04Z</time>
      </trkpt>
      <trkpt lat="47.86996" lon="-3.92667">
        <ele>5.4</ele>
        <time>2021-08-12T10:33:05Z</time>
      </trkpt>
      <trkpt lat="47.86992" lon="-3.92663">
        <ele>5.6</ele>
        <time>2021-08-12T10:33:06Z</time>
      </trkpt>
      <trkpt lat="47.86988" lon="-3.92658">
        <ele>5.8</ele>
        <time>2021-08-12T10:33:07Z</time>
      </trkpt>
      <trkpt lat="47.86985" lon="-3.92652">
        <ele>6</ele>
        <time>2021-08-12T10:33:08Z</time>
      </trkpt>
      <trkpt lat="47.86983" lon="-3.92646">
        <ele>6</ele>
        <time>2021-08-12T10:33:09Z</time>
      </trkpt>
      <trkpt lat="47.86981" lon="-3.92639">
        <ele>6</ele>
        <time>2021-08-12T10:33:10Z</time>
      </trkpt>
      <trkpt lat="47.86979" lon="-3.92632">
        <ele>6.2</ele>
        <time>2021-08-12T10:33:11Z</time>
      </trkpt>
      <trkpt lat="47.86975" lon="-3.92617">
        <ele>6.2</ele>
        <time>2021-08-12T10:33:13Z</time>
      </trkpt>
      <trkpt lat="47.86974" lon="-3.92609">
        <ele>6.2</ele>
        <time>2021-08-12T10:33:14Z</time>
      </trkpt>
      <trkpt lat="47.86972" lon="-3.92602">
        <ele>6.2</ele>
        <time>2021-08-12T10:33:15Z</time>
      </trkpt>
      <trkpt lat="47.86971" lon="-3.92594">
        <ele>6.4</ele>
        <time>2021-08-12T10:33:16Z</time>
      </trkpt>
      <trkpt lat="47.8697" lon="-3.92586">
        <ele>6.4</ele>
        <time>2021-08-12T10:33:17Z</time>
      </trkpt>
      <trkpt lat="47.86969" lon="-3.92579">
        <ele>6.4</ele>
        <time>2021-08-12T10:33:18Z</time>
      </trkpt>
      <trkpt lat="47.86968" lon="-3.92571">
        <ele>6.4</ele>
        <time>2021-08-12T10:33:19Z</time>
      </trkpt>
      <trkpt lat="47.86968" lon="-3.92563">
        <ele>6.6</ele>
        <time>2021-08-12T10:33:20Z</time>
      </trkpt>
      <trkpt lat="47.86968" lon="-3.92555">
        <ele>6.6</ele>
        <time>2021-08-12T10:33:21Z</time>
      </trkpt>
      <trkpt lat="47.86968" lon="-3.92547">
        <ele>6.6</ele>
        <time>2021-08-12T10:33:22Z</time>
      </trkpt>
      <trkpt lat="47.86967" lon="-3.92532">
        <ele>6.6</ele>
        <time>2021-08-12T10:33:24Z</time>
      </trkpt>
      <trkpt lat="47.86967" lon="-3.92524">
        <ele>6.6</ele>
        <time>2021-08-12T10:33:25Z</time>
      </trkpt>
      <trkpt lat="47.86967" lon="-3.92516">
        <ele>6.6</ele>
        <time>2021-08-12T10:33:26Z</time>
      </trkpt>
      <trkpt lat="47.86967" lon="-3.92508">
        <ele>6.6</ele>
        <time>2021-08-12T10:33:27Z</time>
      </trkpt>
      <trkpt lat="47.86968" lon="-3.925">
        <ele>6.6</ele>
        <time>2021-08-12T10:33:28Z</time>
      </trkpt>
      <trkpt lat="47.86969" lon="-3.92492">
        <ele>6.6</ele>
        <time>2021-08-12T10:33:29Z</time>
      </trkpt>
      <trkpt lat="47.86972" lon="-3.92476">
        <ele>6.6</ele>
        <time>2021-08-12T10:33:31Z</time>
      </trkpt>
      <trkpt lat="47.86973" lon="-3.92468">
        <ele>6.6</ele>
        <time>2021-08-12T10:33:32Z</time>
      </trkpt>
      <trkpt lat="47.86976" lon="-3.92453">
        <ele>6.6</ele>
        <time>2021-08-12T10:33:34Z</time>
      </trkpt>
      <trkpt lat="47.86978" lon="-3.92439">
        <ele>6.6</ele>
        <time>2021-08-12T10:33:36Z</time>
      </trkpt>
      <trkpt lat="47.8698" lon="-3.92432">
        <ele>6.6</ele>
        <time>2021-08-12T10:33:37Z</time>
      </trkpt>
      <trkpt lat="47.86982" lon="-3.92418">
        <ele>6.6</ele>
        <time>2021-08-12T10:33:39Z</time>
      </trkpt>
      <trkpt lat="47.86983" lon="-3.92411">
        <ele>6.6</ele>
        <time>2021-08-12T10:33:40Z</time>
      </trkpt>
      <trkpt lat="47.86985" lon="-3.92398">
        <ele>6.6</ele>
        <time>2021-08-12T10:33:42Z</time>
      </trkpt>
      <trkpt lat="47.86987" lon="-3.92391">
        <ele>6.6</ele>
        <time>2021-08-12T10:33:43Z</time>
      </trkpt>
      <trkpt lat="47.86989" lon="-3.92378">
        <ele>6.6</ele>
        <time>2021-08-12T10:33:45Z</time>
      </trkpt>
      <trkpt lat="47.8699" lon="-3.92373">
        <ele>6.6</ele>
        <time>2021-08-12T10:33:46Z</time>
      </trkpt>
      <trkpt lat="47.86992" lon="-3.92368">
        <ele>6.6</ele>
        <time>2021-08-12T10:33:47Z</time>
      </trkpt>
      <trkpt lat="47.86997" lon="-3.9236">
        <ele>6.8</ele>
        <time>2021-08-12T10:33:49Z</time>
      </trkpt>
      <trkpt lat="47.86999" lon="-3.92356">
        <ele>6.8</ele>
        <time>2021-08-12T10:33:50Z</time>
      </trkpt>
      <trkpt lat="47.87004" lon="-3.92348">
        <ele>6.8</ele>
        <time>2021-08-12T10:33:52Z</time>
      </trkpt>
      <trkpt lat="47.87006" lon="-3.92344">
        <ele>6.8</ele>
        <time>2021-08-12T10:33:53Z</time>
      </trkpt>
      <trkpt lat="47.87012" lon="-3.92337">
        <ele>6.8</ele>
        <time>2021-08-12T10:33:55Z</time>
      </trkpt>
      <trkpt lat="47.87014" lon="-3.92333">
        <ele>6.8</ele>
        <time>2021-08-12T10:33:56Z</time>
      </trkpt>
      <trkpt lat="47.87018" lon="-3.92325">
        <ele>6.8</ele>
        <time>2021-08-12T10:33:58Z</time>
      </trkpt>
      <trkpt lat="47.8702" lon="-3.92321">
        <ele>6.8</ele>
        <time>2021-08-12T10:33:59Z</time>
      </trkpt>
      <trkpt lat="47.87022" lon="-3.92315">
        <ele>6.8</ele>
        <time>2021-08-12T10:34:00Z</time>
      </trkpt>
      <trkpt lat="47.87024" lon="-3.9231">
        <ele>6.8</ele>
        <time>2021-08-12T10:34:01Z</time>
      </trkpt>
      <trkpt lat="47.87025" lon="-3.92303">
        <ele>6.8</ele>
        <time>2021-08-12T10:34:02Z</time>
      </trkpt>
      <trkpt lat="47.87026" lon="-3.92289">
        <ele>6.8</ele>
        <time>2021-08-12T10:34:04Z</time>
      </trkpt>
      <trkpt lat="47.87026" lon="-3.92282">
        <ele>6.8</ele>
        <time>2021-08-12T10:34:05Z</time>
      </trkpt>
      <trkpt lat="47.87025" lon="-3.92274">
        <ele>6.6</ele>
        <time>2021-08-12T10:34:06Z</time>
      </trkpt>
      <trkpt lat="47.87024" lon="-3.92267">
        <ele>6.6</ele>
        <time>2021-08-12T10:34:07Z</time>
      </trkpt>
      <trkpt lat="47.87022" lon="-3.92259">
        <ele>6.4</ele>
        <time>2021-08-12T10:34:08Z</time>
      </trkpt>
      <trkpt lat="47.8702" lon="-3.92252">
        <ele>6.2</ele>
        <time>2021-08-12T10:34:09Z</time>
      </trkpt>
      <trkpt lat="47.87019" lon="-3.92244">
        <ele>6.2</ele>
        <time>2021-08-12T10:34:10Z</time>
      </trkpt>
      <trkpt lat="47.87015" lon="-3.9223">
        <ele>5.4</ele>
        <time>2021-08-12T10:34:12Z</time>
      </trkpt>
      <trkpt lat="47.87014" lon="-3.92223">
        <ele>5</ele>
        <time>2021-08-12T10:34:13Z</time>
      </trkpt>
      <trkpt lat="47.87012" lon="-3.92216">
        <ele>4.6</ele>
        <time>2021-08-12T10:34:14Z</time>
      </trkpt>
      <trkpt lat="47.87011" lon="-3.92209">
        <ele>4.4</ele>
        <time>2021-08-12T10:34:15Z</time>
      </trkpt>
      <trkpt lat="47.87009" lon="-3.92203">
        <ele>4.2</ele>
        <time>2021-08-12T10:34:16Z</time>
      </trkpt>
      <trkpt lat="47.87007" lon="-3.92195">
        <ele>4.2</ele>
        <time>2021-08-12T10:34:17Z</time>
      </trkpt>
      <trkpt lat="47.87006" lon="-3.92188">
        <ele>4.2</ele>
        <time>2021-08-12T10:34:18Z</time>
      </trkpt>
      <trkpt lat="47.87004" lon="-3.92181">
        <ele>4.2</ele>
        <time>2021-08-12T10:34:19Z</time>
      </trkpt>
      <trkpt lat="47.87002" lon="-3.92175">
        <ele>4.2</ele>
        <time>2021-08-12T10:34:20Z</time>
      </trkpt>
      <trkpt lat="47.87" lon="-3.92168">
        <ele>4.2</ele>
        <time>2021-08-12T10:34:21Z</time>
      </trkpt>
      <trkpt lat="47.86995" lon="-3.92155">
        <ele>4.2</ele>
        <time>2021-08-12T10:34:23Z</time>
      </trkpt>
      <trkpt lat="47.86994" lon="-3.92148">
        <ele>4.2</ele>
        <time>2021-08-12T10:34:24Z</time>
      </trkpt>
      <trkpt lat="47.86992" lon="-3.92141">
        <ele>4.2</ele>
        <time>2021-08-12T10:34:25Z</time>
      </trkpt>
      <trkpt lat="47.8699" lon="-3.92134">
        <ele>4.2</ele>
        <time>2021-08-12T10:34:26Z</time>
      </trkpt>
      <trkpt lat="47.86989" lon="-3.92128">
        <ele>4.2</ele>
        <time>2021-08-12T10:34:27Z</time>
      </trkpt>
      <trkpt lat="47.86988" lon="-3.92123">
        <ele>4.4</ele>
        <time>2021-08-12T10:34:28Z</time>
      </trkpt>
      <trkpt lat="47.86988" lon="-3.92119">
        <ele>4.6</ele>
        <time>2021-08-12T10:34:29Z</time>
      </trkpt>
      <trkpt lat="47.86987" lon="-3.92115">
        <ele>4.8</ele>
        <time>2021-08-12T10:34:30Z</time>
      </trkpt>
      <trkpt lat="47.86986" lon="-3.92112">
        <ele>4.8</ele>
        <time>2021-08-12T10:34:31Z</time>
      </trkpt>
      <trkpt lat="47.86985" lon="-3.92109">
        <ele>5</ele>
        <time>2021-08-12T10:34:32Z</time>
      </trkpt>
      <trkpt lat="47.86983" lon="-3.92103">
        <ele>5.2</ele>
        <time>2021-08-12T10:34:34Z</time>
      </trkpt>
      <trkpt lat="47.86983" lon="-3.92101">
        <ele>5.2</ele>
        <time>2021-08-12T10:34:35Z</time>
      </trkpt>
      <trkpt lat="47.86982" lon="-3.92098">
        <ele>5.4</ele>
        <time>2021-08-12T10:34:36Z</time>
      </trkpt>
      <trkpt lat="47.86981" lon="-3.92095">
        <ele>5.6</ele>
        <time>2021-08-12T10:34:37Z</time>
      </trkpt>
      <trkpt lat="47.86981" lon="-3.92093">
        <ele>5.8</ele>
        <time>2021-08-12T10:34:38Z</time>
      </trkpt>
      <trkpt lat="47.8698" lon="-3.92091">
        <ele>6</ele>
        <time>2021-08-12T10:34:39Z</time>
      </trkpt>
      <trkpt lat="47.8698" lon="-3.9209">
        <ele>6.2</ele>
        <time>2021-08-12T10:34:40Z</time>
      </trkpt>
      <trkpt lat="47.8698" lon="-3.92087">
        <ele>6.2</ele>
        <time>2021-08-12T10:34:42Z</time>
      </trkpt>
      <trkpt lat="47.86979" lon="-3.92085">
        <ele>6.4</ele>
        <time>2021-08-12T10:34:43Z</time>
      </trkpt>
      <trkpt lat="47.86978" lon="-3.92084">
        <ele>6.4</ele>
        <time>2021-08-12T10:34:44Z</time>
      </trkpt>
      <trkpt lat="47.86978" lon="-3.92085">
        <ele>6.4</ele>
        <time>2021-08-12T10:34:45Z</time>
      </trkpt>
      <trkpt lat="47.86978" lon="-3.92088">
        <ele>6.4</ele>
        <time>2021-08-12T10:34:47Z</time>
      </trkpt>
      <trkpt lat="47.86978" lon="-3.92089">
        <ele>6.4</ele>
        <time>2021-08-12T10:34:48Z</time>
      </trkpt>
      <trkpt lat="47.86977" lon="-3.9209">
        <ele>6.4</ele>
        <time>2021-08-12T10:34:49Z</time>
      </trkpt>
      <trkpt lat="47.86976" lon="-3.9209">
        <ele>6.4</ele>
        <time>2021-08-12T10:34:50Z</time>
      </trkpt>
      <trkpt lat="47.86974" lon="-3.92091">
        <ele>6.4</ele>
        <time>2021-08-12T10:34:51Z</time>
      </trkpt>
      <trkpt lat="47.86973" lon="-3.92092">
        <ele>6.4</ele>
        <time>2021-08-12T10:34:52Z</time>
      </trkpt>
      <trkpt lat="47.86972" lon="-3.92094">
        <ele>6.4</ele>
        <time>2021-08-12T10:34:53Z</time>
      </trkpt>
      <trkpt lat="47.86972" lon="-3.92097">
        <ele>6.4</ele>
        <time>2021-08-12T10:34:54Z</time>
      </trkpt>
      <trkpt lat="47.86973" lon="-3.92103">
        <ele>6.4</ele>
        <time>2021-08-12T10:34:56Z</time>
      </trkpt>
      <trkpt lat="47.86974" lon="-3.92106">
        <ele>6.2</ele>
        <time>2021-08-12T10:34:57Z</time>
      </trkpt>
      <trkpt lat="47.86975" lon="-3.92108">
        <ele>6.2</ele>
        <time>2021-08-12T10:34:58Z</time>
      </trkpt>
      <trkpt lat="47.86975" lon="-3.92109">
        <ele>6</ele>
        <time>2021-08-12T10:34:59Z</time>
      </trkpt>
      <trkpt lat="47.86974" lon="-3.92109">
        <ele>6</ele>
        <time>2021-08-12T10:35:00Z</time>
      </trkpt>
      <trkpt lat="47.86974" lon="-3.92115">
        <ele>5.6</ele>
        <time>2021-08-12T10:37:37Z</time>
      </trkpt>
      <trkpt lat="47.86975" lon="-3.92119">
        <ele>5.6</ele>
        <time>2021-08-12T10:37:39Z</time>
      </trkpt>
      <trkpt lat="47.86976" lon="-3.92121">
        <ele>5.6</ele>
        <time>2021-08-12T10:37:40Z</time>
      </trkpt>
      <trkpt lat="47.86977" lon="-3.92125">
        <ele>5.6</ele>
        <time>2021-08-12T10:37:42Z</time>
      </trkpt>
      <trkpt lat="47.86977" lon="-3.92127">
        <ele>5.6</ele>
        <time>2021-08-12T10:37:43Z</time>
      </trkpt>
      <trkpt lat="47.86978" lon="-3.92129">
        <ele>5.4</ele>
        <time>2021-08-12T10:37:45Z</time>
      </trkpt>
      <trkpt lat="47.86978" lon="-3.92155">
        <ele>5.2</ele>
        <time>2021-08-12T10:59:27Z</time>
      </trkpt>
      <trkpt lat="47.86978" lon="-3.92155">
        <ele>5.2</ele>
        <time>2021-08-12T10:59:28Z</time>
      </trkpt>
      <trkpt lat="47.86978" lon="-3.92155">
        <ele>5.2</ele>
        <time>2021-08-12T10:59:29Z</time>
      </trkpt>
      <trkpt lat="47.86978" lon="-3.92155">
        <ele>5.2</ele>
        <time>2021-08-12T10:59:31Z</time>
      </trkpt>
      <trkpt lat="47.86978" lon="-3.92155">
        <ele>5.2</ele>
        <time>2021-08-12T10:59:32Z</time>
      </trkpt>
      <trkpt lat="47.86977" lon="-3.92139">
        <ele>4.4</ele>
        <time>2021-08-12T11:57:23Z</time>
      </trkpt>
      <trkpt lat="47.86977" lon="-3.92136">
        <ele>4.4</ele>
        <time>2021-08-12T11:57:24Z</time>
      </trkpt>
      <trkpt lat="47.86978" lon="-3.92134">
        <ele>4.4</ele>
        <time>2021-08-12T11:57:25Z</time>
      </trkpt>
      <trkpt lat="47.86979" lon="-3.92132">
        <ele>4.4</ele>
        <time>2021-08-12T11:57:27Z</time>
      </trkpt>
      <trkpt lat="47.8698" lon="-3.92132">
        <ele>4.4</ele>
        <time>2021-08-12T11:57:28Z</time>
      </trkpt>
      <trkpt lat="47.86981" lon="-3.92131">
        <ele>4.4</ele>
        <time>2021-08-12T11:57:29Z</time>
      </trkpt>
      <trkpt lat="47.86981" lon="-3.92132">
        <ele>4.4</ele>
        <time>2021-08-12T11:57:30Z</time>
      </trkpt>
      <trkpt lat="47.86982" lon="-3.92132">
        <ele>4.4</ele>
        <time>2021-08-12T11:57:31Z</time>
      </trkpt>
      <trkpt lat="47.86984" lon="-3.92132">
        <ele>4.4</ele>
        <time>2021-08-12T11:57:34Z</time>
      </trkpt>
      <trkpt lat="47.86984" lon="-3.92132">
        <ele>4.4</ele>
        <time>2021-08-12T11:57:35Z</time>
      </trkpt>
      <trkpt lat="47.86984" lon="-3.92132">
        <ele>4.4</ele>
        <time>2021-08-12T11:57:36Z</time>
      </trkpt>
      <trkpt lat="47.86984" lon="-3.92115">
        <ele>5.2</ele>
        <time>2021-08-12T11:57:48Z</time>
      </trkpt>
      <trkpt lat="47.86983" lon="-3.92112">
        <ele>5.2</ele>
        <time>2021-08-12T11:57:49Z</time>
      </trkpt>
      <trkpt lat="47.86983" lon="-3.92108">
        <ele>5.2</ele>
        <time>2021-08-12T11:57:50Z</time>
      </trkpt>
      <trkpt lat="47.86982" lon="-3.92104">
        <ele>5.2</ele>
        <time>2021-08-12T11:57:51Z</time>
      </trkpt>
      <trkpt lat="47.86981" lon="-3.921">
        <ele>5.2</ele>
        <time>2021-08-12T11:57:52Z</time>
      </trkpt>
      <trkpt lat="47.8698" lon="-3.92096">
        <ele>5.2</ele>
        <time>2021-08-12T11:57:53Z</time>
      </trkpt>
      <trkpt lat="47.8698" lon="-3.92092">
        <ele>5.2</ele>
        <time>2021-08-12T11:57:54Z</time>
      </trkpt>
      <trkpt lat="47.86979" lon="-3.92087">
        <ele>5.2</ele>
        <time>2021-08-12T11:57:55Z</time>
      </trkpt>
      <trkpt lat="47.86978" lon="-3.92082">
        <ele>5.2</ele>
        <time>2021-08-12T11:57:56Z</time>
      </trkpt>
      <trkpt lat="47.86977" lon="-3.92077">
        <ele>5.2</ele>
        <time>2021-08-12T11:57:57Z</time>
      </trkpt>
      <trkpt lat="47.86976" lon="-3.92073">
        <ele>5.2</ele>
        <time>2021-08-12T11:57:58Z</time>
      </trkpt>
      <trkpt lat="47.86976" lon="-3.92068">
        <ele>5.2</ele>
        <time>2021-08-12T11:57:59Z</time>
      </trkpt>
      <trkpt lat="47.86975" lon="-3.92063">
        <ele>5.2</ele>
        <time>2021-08-12T11:58:00Z</time>
      </trkpt>
      <trkpt lat="47.86974" lon="-3.92058">
        <ele>5.4</ele>
        <time>2021-08-12T11:58:01Z</time>
      </trkpt>
      <trkpt lat="47.86972" lon="-3.92048">
        <ele>5.4</ele>
        <time>2021-08-12T11:58:03Z</time>
      </trkpt>
      <trkpt lat="47.86972" lon="-3.92043">
        <ele>5.4</ele>
        <time>2021-08-12T11:58:04Z</time>
      </trkpt>
      <trkpt lat="47.86971" lon="-3.92037">
        <ele>5.4</ele>
        <time>2021-08-12T11:58:05Z</time>
      </trkpt>
      <trkpt lat="47.8697" lon="-3.92032">
        <ele>5.4</ele>
        <time>2021-08-12T11:58:06Z</time>
      </trkpt>
      <trkpt lat="47.86969" lon="-3.92026">
        <ele>5.4</ele>
        <time>2021-08-12T11:58:07Z</time>
      </trkpt>
      <trkpt lat="47.86968" lon="-3.9202">
        <ele>5.4</ele>
        <time>2021-08-12T11:58:08Z</time>
      </trkpt>
      <trkpt lat="47.86967" lon="-3.92015">
        <ele>5.4</ele>
        <time>2021-08-12T11:58:09Z</time>
      </trkpt>
      <trkpt lat="47.86967" lon="-3.92009">
        <ele>5.4</ele>
        <time>2021-08-12T11:58:10Z</time>
      </trkpt>
      <trkpt lat="47.86966" lon="-3.92004">
        <ele>5.4</ele>
        <time>2021-08-12T11:58:11Z</time>
      </trkpt>
      <trkpt lat="47.86965" lon="-3.91999">
        <ele>5.4</ele>
        <time>2021-08-12T11:58:12Z</time>
      </trkpt>
      <trkpt lat="47.86963" lon="-3.91988">
        <ele>5.4</ele>
        <time>2021-08-12T11:58:14Z</time>
      </trkpt>
      <trkpt lat="47.86963" lon="-3.91983">
        <ele>5.4</ele>
        <time>2021-08-12T11:58:15Z</time>
      </trkpt>
      <trkpt lat="47.86962" lon="-3.91977">
        <ele>5.4</ele>
        <time>2021-08-12T11:58:16Z</time>
      </trkpt>
      <trkpt lat="47.86961" lon="-3.91972">
        <ele>5.4</ele>
        <time>2021-08-12T11:58:17Z</time>
      </trkpt>
      <trkpt lat="47.8696" lon="-3.91966">
        <ele>5.4</ele>
        <time>2021-08-12T11:58:18Z</time>
      </trkpt>
      <trkpt lat="47.8696" lon="-3.9196">
        <ele>5.4</ele>
        <time>2021-08-12T11:58:19Z</time>
      </trkpt>
      <trkpt lat="47.86959" lon="-3.91954">
        <ele>5.4</ele>
        <time>2021-08-12T11:58:20Z</time>
      </trkpt>
      <trkpt lat="47.86958" lon="-3.91948">
        <ele>5.6</ele>
        <time>2021-08-12T11:58:21Z</time>
      </trkpt>
      <trkpt lat="47.86957" lon="-3.91942">
        <ele>5.6</ele>
        <time>2021-08-12T11:58:22Z</time>
      </trkpt>
      <trkpt lat="47.86956" lon="-3.91936">
        <ele>5.8</ele>
        <time>2021-08-12T11:58:23Z</time>
      </trkpt>
      <trkpt lat="47.86954" lon="-3.91924">
        <ele>6.2</ele>
        <time>2021-08-12T11:58:25Z</time>
      </trkpt>
      <trkpt lat="47.86952" lon="-3.91919">
        <ele>6.2</ele>
        <time>2021-08-12T11:58:26Z</time>
      </trkpt>
      <trkpt lat="47.8695" lon="-3.91913">
        <ele>6.2</ele>
        <time>2021-08-12T11:58:27Z</time>
      </trkpt>
      <trkpt lat="47.86948" lon="-3.91907">
        <ele>6.4</ele>
        <time>2021-08-12T11:58:28Z</time>
      </trkpt>
      <trkpt lat="47.86946" lon="-3.91901">
        <ele>6.4</ele>
        <time>2021-08-12T11:58:29Z</time>
      </trkpt>
      <trkpt lat="47.86944" lon="-3.91895">
        <ele>6.4</ele>
        <time>2021-08-12T11:58:30Z</time>
      </trkpt>
      <trkpt lat="47.86942" lon="-3.91889">
        <ele>6.4</ele>
        <time>2021-08-12T11:58:31Z</time>
      </trkpt>
      <trkpt lat="47.8694" lon="-3.91883">
        <ele>6.6</ele>
        <time>2021-08-12T11:58:32Z</time>
      </trkpt>
      <trkpt lat="47.86938" lon="-3.91877">
        <ele>6.6</ele>
        <time>2021-08-12T11:58:33Z</time>
      </trkpt>
      <trkpt lat="47.86936" lon="-3.91871">
        <ele>6.6</ele>
        <time>2021-08-12T11:58:34Z</time>
      </trkpt>
      <trkpt lat="47.86932" lon="-3.91858">
        <ele>6.6</ele>
        <time>2021-08-12T11:58:36Z</time>
      </trkpt>
      <trkpt lat="47.8693" lon="-3.91853">
        <ele>6.6</ele>
        <time>2021-08-12T11:58:37Z</time>
      </trkpt>
      <trkpt lat="47.86928" lon="-3.91847">
        <ele>6.8</ele>
        <time>2021-08-12T11:58:38Z</time>
      </trkpt>
      <trkpt lat="47.86926" lon="-3.91841">
        <ele>6.8</ele>
        <time>2021-08-12T11:58:39Z</time>
      </trkpt>
      <trkpt lat="47.86924" lon="-3.91836">
        <ele>6.8</ele>
        <time>2021-08-12T11:58:40Z</time>
      </trkpt>
      <trkpt lat="47.86922" lon="-3.9183">
        <ele>6.8</ele>
        <time>2021-08-12T11:58:41Z</time>
      </trkpt>
      <trkpt lat="47.8692" lon="-3.91824">
        <ele>6.8</ele>
        <time>2021-08-12T11:58:42Z</time>
      </trkpt>
      <trkpt lat="47.86918" lon="-3.91818">
        <ele>7</ele>
        <time>2021-08-12T11:58:43Z</time>
      </trkpt>
      <trkpt lat="47.86917" lon="-3.91812">
        <ele>7</ele>
        <time>2021-08-12T11:58:44Z</time>
      </trkpt>
      <trkpt lat="47.86915" lon="-3.91806">
        <ele>7</ele>
        <time>2021-08-12T11:58:45Z</time>
      </trkpt>
      <trkpt lat="47.86912" lon="-3.91794">
        <ele>7</ele>
        <time>2021-08-12T11:58:47Z</time>
      </trkpt>
      <trkpt lat="47.86911" lon="-3.91788">
        <ele>7</ele>
        <time>2021-08-12T11:58:48Z</time>
      </trkpt>
      <trkpt lat="47.86909" lon="-3.91781">
        <ele>7</ele>
        <time>2021-08-12T11:58:49Z</time>
      </trkpt>
      <trkpt lat="47.86907" lon="-3.91775">
        <ele>7</ele>
        <time>2021-08-12T11:58:50Z</time>
      </trkpt>
      <trkpt lat="47.86905" lon="-3.91768">
        <ele>7</ele>
        <time>2021-08-12T11:58:51Z</time>
      </trkpt>
      <trkpt lat="47.86903" lon="-3.91762">
        <ele>7.2</ele>
        <time>2021-08-12T11:58:52Z</time>
      </trkpt>
      <trkpt lat="47.869" lon="-3.91756">
        <ele>7.2</ele>
        <time>2021-08-12T11:58:53Z</time>
      </trkpt>
      <trkpt lat="47.86898" lon="-3.91751">
        <ele>7.2</ele>
        <time>2021-08-12T11:58:54Z</time>
      </trkpt>
      <trkpt lat="47.86895" lon="-3.91745">
        <ele>7.2</ele>
        <time>2021-08-12T11:58:55Z</time>
      </trkpt>
      <trkpt lat="47.86893" lon="-3.91739">
        <ele>7.2</ele>
        <time>2021-08-12T11:58:56Z</time>
      </trkpt>
      <trkpt lat="47.86887" lon="-3.91727">
        <ele>7.2</ele>
        <time>2021-08-12T11:58:58Z</time>
      </trkpt>
      <trkpt lat="47.86884" lon="-3.91721">
        <ele>7</ele>
        <time>2021-08-12T11:58:59Z</time>
      </trkpt>
      <trkpt lat="47.86882" lon="-3.91715">
        <ele>7</ele>
        <time>2021-08-12T11:59:00Z</time>
      </trkpt>
      <trkpt lat="47.86879" lon="-3.91708">
        <ele>7</ele>
        <time>2021-08-12T11:59:01Z</time>
      </trkpt>
      <trkpt lat="47.86877" lon="-3.91701">
        <ele>7</ele>
        <time>2021-08-12T11:59:02Z</time>
      </trkpt>
      <trkpt lat="47.86876" lon="-3.91694">
        <ele>7</ele>
        <time>2021-08-12T11:59:03Z</time>
      </trkpt>
      <trkpt lat="47.86874" lon="-3.91687">
        <ele>7</ele>
        <time>2021-08-12T11:59:04Z</time>
      </trkpt>
      <trkpt lat="47.86874" lon="-3.9168">
        <ele>7</ele>
        <time>2021-08-12T11:59:05Z</time>
      </trkpt>
      <trkpt lat="47.86874" lon="-3.91672">
        <ele>7</ele>
        <time>2021-08-12T11:59:06Z</time>
      </trkpt>
      <trkpt lat="47.86875" lon="-3.91665">
        <ele>7</ele>
        <time>2021-08-12T11:59:07Z</time>
      </trkpt>
      <trkpt lat="47.86877" lon="-3.9165">
        <ele>6.6</ele>
        <time>2021-08-12T11:59:09Z</time>
      </trkpt>
      <trkpt lat="47.86878" lon="-3.91643">
        <ele>6.4</ele>
        <time>2021-08-12T11:59:10Z</time>
      </trkpt>
      <trkpt lat="47.86879" lon="-3.91635">
        <ele>6.2</ele>
        <time>2021-08-12T11:59:11Z</time>
      </trkpt>
      <trkpt lat="47.8688" lon="-3.91627">
        <ele>6.2</ele>
        <time>2021-08-12T11:59:12Z</time>
      </trkpt>
      <trkpt lat="47.86881" lon="-3.9162">
        <ele>6.2</ele>
        <time>2021-08-12T11:59:13Z</time>
      </trkpt>
      <trkpt lat="47.86882" lon="-3.91612">
        <ele>6</ele>
        <time>2021-08-12T11:59:14Z</time>
      </trkpt>
      <trkpt lat="47.86883" lon="-3.91604">
        <ele>6</ele>
        <time>2021-08-12T11:59:15Z</time>
      </trkpt>
      <trkpt lat="47.86884" lon="-3.91596">
        <ele>5.8</ele>
        <time>2021-08-12T11:59:16Z</time>
      </trkpt>
      <trkpt lat="47.86885" lon="-3.91588">
        <ele>5.6</ele>
        <time>2021-08-12T11:59:17Z</time>
      </trkpt>
      <trkpt lat="47.86887" lon="-3.91579">
        <ele>5.4</ele>
        <time>2021-08-12T11:59:18Z</time>
      </trkpt>
      <trkpt lat="47.86893" lon="-3.91564">
        <ele>5</ele>
        <time>2021-08-12T11:59:20Z</time>
      </trkpt>
      <trkpt lat="47.86898" lon="-3.9156">
        <ele>4.8</ele>
        <time>2021-08-12T11:59:21Z</time>
      </trkpt>
      <trkpt lat="47.86904" lon="-3.91559">
        <ele>4.6</ele>
        <time>2021-08-12T11:59:22Z</time>
      </trkpt>
      <trkpt lat="47.86909" lon="-3.91563">
        <ele>4.4</ele>
        <time>2021-08-12T11:59:23Z</time>
      </trkpt>
      <trkpt lat="47.86914" lon="-3.91568">
        <ele>4.2</ele>
        <time>2021-08-12T11:59:24Z</time>
      </trkpt>
      <trkpt lat="47.86918" lon="-3.91574">
        <ele>3.8</ele>
        <time>2021-08-12T11:59:25Z</time>
      </trkpt>
      <trkpt lat="47.86923" lon="-3.91579">
        <ele>3.6</ele>
        <time>2021-08-12T11:59:26Z</time>
      </trkpt>
      <trkpt lat="47.86927" lon="-3.91585">
        <ele>3.6</ele>
        <time>2021-08-12T11:59:27Z</time>
      </trkpt>
      <trkpt lat="47.86932" lon="-3.9159">
        <ele>3.4</ele>
        <time>2021-08-12T11:59:28Z</time>
      </trkpt>
      <trkpt lat="47.86937" lon="-3.91594">
        <ele>3.4</ele>
        <time>2021-08-12T11:59:29Z</time>
      </trkpt>
      <trkpt lat="47.86947" lon="-3.916">
        <ele>3.2</ele>
        <time>2021-08-12T11:59:31Z</time>
      </trkpt>
      <trkpt lat="47.86952" lon="-3.91602">
        <ele>3.2</ele>
        <time>2021-08-12T11:59:32Z</time>
      </trkpt>
      <trkpt lat="47.86957" lon="-3.91605">
        <ele>3</ele>
        <time>2021-08-12T11:59:33Z</time>
      </trkpt>
      <trkpt lat="47.86962" lon="-3.91607">
        <ele>3</ele>
        <time>2021-08-12T11:59:34Z</time>
      </trkpt>
      <trkpt lat="47.86966" lon="-3.9161">
        <ele>2.8</ele>
        <time>2021-08-12T11:59:35Z</time>
      </trkpt>
      <trkpt lat="47.86971" lon="-3.91612">
        <ele>2.8</ele>
        <time>2021-08-12T11:59:36Z</time>
      </trkpt>
      <trkpt lat="47.86976" lon="-3.91615">
        <ele>2.8</ele>
        <time>2021-08-12T11:59:37Z</time>
      </trkpt>
      <trkpt lat="47.86981" lon="-3.91618">
        <ele>2.8</ele>
        <time>2021-08-12T11:59:38Z</time>
      </trkpt>
      <trkpt lat="47.86986" lon="-3.91621">
        <ele>2.8</ele>
        <time>2021-08-12T11:59:39Z</time>
      </trkpt>
      <trkpt lat="47.86991" lon="-3.91623">
        <ele>2.8</ele>
        <time>2021-08-12T11:59:40Z</time>
      </trkpt>
      <trkpt lat="47.87001" lon="-3.91628">
        <ele>2.8</ele>
        <time>2021-08-12T11:59:42Z</time>
      </trkpt>
      <trkpt lat="47.87005" lon="-3.91631">
        <ele>2.8</ele>
        <time>2021-08-12T11:59:43Z</time>
      </trkpt>
      <trkpt lat="47.8701" lon="-3.91633">
        <ele>2.8</ele>
        <time>2021-08-12T11:59:44Z</time>
      </trkpt>
      <trkpt lat="47.87014" lon="-3.91635">
        <ele>2.8</ele>
        <time>2021-08-12T11:59:45Z</time>
      </trkpt>
      <trkpt lat="47.87019" lon="-3.91638">
        <ele>2.8</ele>
        <time>2021-08-12T11:59:46Z</time>
      </trkpt>
      <trkpt lat="47.87023" lon="-3.9164">
        <ele>3</ele>
        <time>2021-08-12T11:59:47Z</time>
      </trkpt>
      <trkpt lat="47.87028" lon="-3.91642">
        <ele>3</ele>
        <time>2021-08-12T11:59:48Z</time>
      </trkpt>
      <trkpt lat="47.87033" lon="-3.91645">
        <ele>3.2</ele>
        <time>2021-08-12T11:59:49Z</time>
      </trkpt>
      <trkpt lat="47.87037" lon="-3.91647">
        <ele>3.2</ele>
        <time>2021-08-12T11:59:50Z</time>
      </trkpt>
      <trkpt lat="47.87042" lon="-3.9165">
        <ele>3.4</ele>
        <time>2021-08-12T11:59:51Z</time>
      </trkpt>
      <trkpt lat="47.87051" lon="-3.91655">
        <ele>3.4</ele>
        <time>2021-08-12T11:59:53Z</time>
      </trkpt>
      <trkpt lat="47.87056" lon="-3.91658">
        <ele>3.4</ele>
        <time>2021-08-12T11:59:54Z</time>
      </trkpt>
      <trkpt lat="47.8706" lon="-3.9166">
        <ele>3.4</ele>
        <time>2021-08-12T11:59:55Z</time>
      </trkpt>
      <trkpt lat="47.87065" lon="-3.91663">
        <ele>3.4</ele>
        <time>2021-08-12T11:59:56Z</time>
      </trkpt>
      <trkpt lat="47.87069" lon="-3.91665">
        <ele>3.4</ele>
        <time>2021-08-12T11:59:57Z</time>
      </trkpt>
      <trkpt lat="47.87074" lon="-3.91668">
        <ele>3.4</ele>
        <time>2021-08-12T11:59:58Z</time>
      </trkpt>
      <trkpt lat="47.87079" lon="-3.9167">
        <ele>3.4</ele>
        <time>2021-08-12T11:59:59Z</time>
      </trkpt>
      <trkpt lat="47.87084" lon="-3.91673">
        <ele>3.4</ele>
        <time>2021-08-12T12:00:00Z</time>
      </trkpt>
      <trkpt lat="47.87089" lon="-3.91675">
        <ele>3.4</ele>
        <time>2021-08-12T12:00:01Z</time>
      </trkpt>
      <trkpt lat="47.87094" lon="-3.91678">
        <ele>3.2</ele>
        <time>2021-08-12T12:00:02Z</time>
      </trkpt>
      <trkpt lat="47.87103" lon="-3.91683">
        <ele>3.2</ele>
        <time>2021-08-12T12:00:04Z</time>
      </trkpt>
      <trkpt lat="47.87107" lon="-3.91685">
        <ele>3.2</ele>
        <time>2021-08-12T12:00:05Z</time>
      </trkpt>
      <trkpt lat="47.87111" lon="-3.91687">
        <ele>3.2</ele>
        <time>2021-08-12T12:00:06Z</time>
      </trkpt>
      <trkpt lat="47.87115" lon="-3.91689">
        <ele>3.2</ele>
        <time>2021-08-12T12:00:07Z</time>
      </trkpt>
      <trkpt lat="47.87119" lon="-3.91691">
        <ele>3</ele>
        <time>2021-08-12T12:00:08Z</time>
      </trkpt>
      <trkpt lat="47.87123" lon="-3.91693">
        <ele>3</ele>
        <time>2021-08-12T12:00:09Z</time>
      </trkpt>
      <trkpt lat="47.87127" lon="-3.91695">
        <ele>3</ele>
        <time>2021-08-12T12:00:10Z</time>
      </trkpt>
      <trkpt lat="47.8713" lon="-3.91697">
        <ele>3</ele>
        <time>2021-08-12T12:00:11Z</time>
      </trkpt>
      <trkpt lat="47.87134" lon="-3.91699">
        <ele>3</ele>
        <time>2021-08-12T12:00:12Z</time>
      </trkpt>
      <trkpt lat="47.87137" lon="-3.91701">
        <ele>3.2</ele>
        <time>2021-08-12T12:00:13Z</time>
      </trkpt>
      <trkpt lat="47.87145" lon="-3.91705">
        <ele>3.2</ele>
        <time>2021-08-12T12:00:15Z</time>
      </trkpt>
      <trkpt lat="47.87149" lon="-3.91708">
        <ele>3.2</ele>
        <time>2021-08-12T12:00:16Z</time>
      </trkpt>
      <trkpt lat="47.87154" lon="-3.9171">
        <ele>3.4</ele>
        <time>2021-08-12T12:00:17Z</time>
      </trkpt>
      <trkpt lat="47.87158" lon="-3.91712">
        <ele>3.4</ele>
        <time>2021-08-12T12:00:18Z</time>
      </trkpt>
      <trkpt lat="47.87162" lon="-3.91715">
        <ele>3.4</ele>
        <time>2021-08-12T12:00:19Z</time>
      </trkpt>
      <trkpt lat="47.87167" lon="-3.91717">
        <ele>3.6</ele>
        <time>2021-08-12T12:00:20Z</time>
      </trkpt>
      <trkpt lat="47.87171" lon="-3.9172">
        <ele>3.6</ele>
        <time>2021-08-12T12:00:21Z</time>
      </trkpt>
      <trkpt lat="47.87176" lon="-3.91722">
        <ele>3.6</ele>
        <time>2021-08-12T12:00:22Z</time>
      </trkpt>
      <trkpt lat="47.87181" lon="-3.91725">
        <ele>3.6</ele>
        <time>2021-08-12T12:00:23Z</time>
      </trkpt>
      <trkpt lat="47.87185" lon="-3.91728">
        <ele>3.6</ele>
        <time>2021-08-12T12:00:24Z</time>
      </trkpt>
      <trkpt lat="47.87195" lon="-3.91733">
        <ele>3.6</ele>
        <time>2021-08-12T12:00:26Z</time>
      </trkpt>
      <trkpt lat="47.872" lon="-3.91735">
        <ele>3.6</ele>
        <time>2021-08-12T12:00:27Z</time>
      </trkpt>
      <trkpt lat="47.87205" lon="-3.91738">
        <ele>3.6</ele>
        <time>2021-08-12T12:00:28Z</time>
      </trkpt>
      <trkpt lat="47.8721" lon="-3.9174">
        <ele>3.6</ele>
        <time>2021-08-12T12:00:29Z</time>
      </trkpt>
      <trkpt lat="47.87215" lon="-3.91743">
        <ele>3.6</ele>
        <time>2021-08-12T12:00:30Z</time>
      </trkpt>
      <trkpt lat="47.8722" lon="-3.91745">
        <ele>3.6</ele>
        <time>2021-08-12T12:00:31Z</time>
      </trkpt>
      <trkpt lat="47.87225" lon="-3.91748">
        <ele>3.6</ele>
        <time>2021-08-12T12:00:32Z</time>
      </trkpt>
      <trkpt lat="47.8723" lon="-3.9175">
        <ele>3.6</ele>
        <time>2021-08-12T12:00:33Z</time>
      </trkpt>
      <trkpt lat="47.87236" lon="-3.91752">
        <ele>3.6</ele>
        <time>2021-08-12T12:00:34Z</time>
      </trkpt>
      <trkpt lat="47.87241" lon="-3.91755">
        <ele>3.6</ele>
        <time>2021-08-12T12:00:35Z</time>
      </trkpt>
      <trkpt lat="47.87246" lon="-3.91757">
        <ele>3.6</ele>
        <time>2021-08-12T12:00:36Z</time>
      </trkpt>
      <trkpt lat="47.87251" lon="-3.9176">
        <ele>3.6</ele>
        <time>2021-08-12T12:00:37Z</time>
      </trkpt>
      <trkpt lat="47.87257" lon="-3.91763">
        <ele>3.6</ele>
        <time>2021-08-12T12:00:38Z</time>
      </trkpt>
      <trkpt lat="47.87262" lon="-3.91766">
        <ele>3.6</ele>
        <time>2021-08-12T12:00:39Z</time>
      </trkpt>
      <trkpt lat="47.87267" lon="-3.91769">
        <ele>3.6</ele>
        <time>2021-08-12T12:00:40Z</time>
      </trkpt>
      <trkpt lat="47.87271" lon="-3.91771">
        <ele>3.6</ele>
        <time>2021-08-12T12:00:41Z</time>
      </trkpt>
      <trkpt lat="47.87276" lon="-3.91774">
        <ele>3.6</ele>
        <time>2021-08-12T12:00:42Z</time>
      </trkpt>
      <trkpt lat="47.87281" lon="-3.91776">
        <ele>3.4</ele>
        <time>2021-08-12T12:00:43Z</time>
      </trkpt>
      <trkpt lat="47.87285" lon="-3.91778">
        <ele>3.4</ele>
        <time>2021-08-12T12:00:44Z</time>
      </trkpt>
      <trkpt lat="47.87289" lon="-3.91781">
        <ele>3.4</ele>
        <time>2021-08-12T12:00:45Z</time>
      </trkpt>
      <trkpt lat="47.87294" lon="-3.91783">
        <ele>3.2</ele>
        <time>2021-08-12T12:00:46Z</time>
      </trkpt>
      <trkpt lat="47.87302" lon="-3.91787">
        <ele>3.2</ele>
        <time>2021-08-12T12:00:48Z</time>
      </trkpt>
      <trkpt lat="47.87307" lon="-3.91789">
        <ele>3.4</ele>
        <time>2021-08-12T12:00:49Z</time>
      </trkpt>
      <trkpt lat="47.87311" lon="-3.91791">
        <ele>3.4</ele>
        <time>2021-08-12T12:00:50Z</time>
      </trkpt>
      <trkpt lat="47.87316" lon="-3.91794">
        <ele>3.4</ele>
        <time>2021-08-12T12:00:51Z</time>
      </trkpt>
      <trkpt lat="47.8732" lon="-3.91796">
        <ele>3.4</ele>
        <time>2021-08-12T12:00:52Z</time>
      </trkpt>
      <trkpt lat="47.87324" lon="-3.91798">
        <ele>3.4</ele>
        <time>2021-08-12T12:00:53Z</time>
      </trkpt>
      <trkpt lat="47.87329" lon="-3.91801">
        <ele>3.4</ele>
        <time>2021-08-12T12:00:54Z</time>
      </trkpt>
      <trkpt lat="47.87333" lon="-3.91803">
        <ele>3.4</ele>
        <time>2021-08-12T12:00:55Z</time>
      </trkpt>
      <trkpt lat="47.87337" lon="-3.91805">
        <ele>3.4</ele>
        <time>2021-08-12T12:00:56Z</time>
      </trkpt>
      <trkpt lat="47.87341" lon="-3.91807">
        <ele>3.4</ele>
        <time>2021-08-12T12:00:57Z</time>
      </trkpt>
      <trkpt lat="47.87349" lon="-3.91811">
        <ele>3.4</ele>
        <time>2021-08-12T12:00:59Z</time>
      </trkpt>
      <trkpt lat="47.87353" lon="-3.91813">
        <ele>3.4</ele>
        <time>2021-08-12T12:01:00Z</time>
      </trkpt>
      <trkpt lat="47.87357" lon="-3.91815">
        <ele>3.4</ele>
        <time>2021-08-12T12:01:01Z</time>
      </trkpt>
      <trkpt lat="47.8736" lon="-3.91817">
        <ele>3.4</ele>
        <time>2021-08-12T12:01:02Z</time>
      </trkpt>
      <trkpt lat="47.87363" lon="-3.91819">
        <ele>3.4</ele>
        <time>2021-08-12T12:01:03Z</time>
      </trkpt>
      <trkpt lat="47.87365" lon="-3.9182">
        <ele>3.4</ele>
        <time>2021-08-12T12:01:04Z</time>
      </trkpt>
      <trkpt lat="47.87366" lon="-3.9182">
        <ele>3.6</ele>
        <time>2021-08-12T12:01:05Z</time>
      </trkpt>
      <trkpt lat="47.87366" lon="-3.9182">
        <ele>3.2</ele>
        <time>2021-08-12T12:01:43Z</time>
      </trkpt>
      <trkpt lat="47.87367" lon="-3.9182">
        <ele>3.2</ele>
        <time>2021-08-12T12:01:44Z</time>
      </trkpt>
      <trkpt lat="47.87369" lon="-3.91821">
        <ele>3.2</ele>
        <time>2021-08-12T12:01:45Z</time>
      </trkpt>
      <trkpt lat="47.87371" lon="-3.91822">
        <ele>3.2</ele>
        <time>2021-08-12T12:01:46Z</time>
      </trkpt>
      <trkpt lat="47.87376" lon="-3.91824">
        <ele>3.2</ele>
        <time>2021-08-12T12:01:48Z</time>
      </trkpt>
      <trkpt lat="47.87378" lon="-3.91825">
        <ele>3.2</ele>
        <time>2021-08-12T12:01:49Z</time>
      </trkpt>
      <trkpt lat="47.87381" lon="-3.91826">
        <ele>3.4</ele>
        <time>2021-08-12T12:01:50Z</time>
      </trkpt>
      <trkpt lat="47.87384" lon="-3.91827">
        <ele>3.4</ele>
        <time>2021-08-12T12:01:51Z</time>
      </trkpt>
      <trkpt lat="47.87386" lon="-3.91828">
        <ele>3.4</ele>
        <time>2021-08-12T12:01:52Z</time>
      </trkpt>
      <trkpt lat="47.87388" lon="-3.9183">
        <ele>3.4</ele>
        <time>2021-08-12T12:01:53Z</time>
      </trkpt>
      <trkpt lat="47.87391" lon="-3.91831">
        <ele>3.4</ele>
        <time>2021-08-12T12:01:54Z</time>
      </trkpt>
      <trkpt lat="47.87393" lon="-3.91832">
        <ele>3.4</ele>
        <time>2021-08-12T12:01:55Z</time>
      </trkpt>
      <trkpt lat="47.87397" lon="-3.91833">
        <ele>3.4</ele>
        <time>2021-08-12T12:01:57Z</time>
      </trkpt>
      <trkpt lat="47.87399" lon="-3.91834">
        <ele>3.4</ele>
        <time>2021-08-12T12:01:58Z</time>
      </trkpt>
      <trkpt lat="47.87401" lon="-3.91836">
        <ele>3.4</ele>
        <time>2021-08-12T12:01:59Z</time>
      </trkpt>
      <trkpt lat="47.87404" lon="-3.91837">
        <ele>3.4</ele>
        <time>2021-08-12T12:02:00Z</time>
      </trkpt>
      <trkpt lat="47.87407" lon="-3.91838">
        <ele>3.4</ele>
        <time>2021-08-12T12:02:01Z</time>
      </trkpt>
      <trkpt lat="47.87409" lon="-3.91838">
        <ele>3.4</ele>
        <time>2021-08-12T12:02:02Z</time>
      </trkpt>
      <trkpt lat="47.87412" lon="-3.91838">
        <ele>3.4</ele>
        <time>2021-08-12T12:02:03Z</time>
      </trkpt>
      <trkpt lat="47.87415" lon="-3.91837">
        <ele>3.4</ele>
        <time>2021-08-12T12:02:04Z</time>
      </trkpt>
      <trkpt lat="47.87417" lon="-3.91834">
        <ele>3.4</ele>
        <time>2021-08-12T12:02:05Z</time>
      </trkpt>
      <trkpt lat="47.8742" lon="-3.91831">
        <ele>3.4</ele>
        <time>2021-08-12T12:02:06Z</time>
      </trkpt>
      <trkpt lat="47.87425" lon="-3.91822">
        <ele>3.4</ele>
        <time>2021-08-12T12:02:08Z</time>
      </trkpt>
      <trkpt lat="47.87427" lon="-3.91817">
        <ele>3.4</ele>
        <time>2021-08-12T12:02:09Z</time>
      </trkpt>
      <trkpt lat="47.8743" lon="-3.91812">
        <ele>3.4</ele>
        <time>2021-08-12T12:02:10Z</time>
      </trkpt>
      <trkpt lat="47.87433" lon="-3.91807">
        <ele>3.4</ele>
        <time>2021-08-12T12:02:11Z</time>
      </trkpt>
      <trkpt lat="47.87436" lon="-3.91802">
        <ele>3.4</ele>
        <time>2021-08-12T12:02:12Z</time>
      </trkpt>
      <trkpt lat="47.87439" lon="-3.91797">
        <ele>3.2</ele>
        <time>2021-08-12T12:02:13Z</time>
      </trkpt>
      <trkpt lat="47.87441" lon="-3.91791">
        <ele>3.2</ele>
        <time>2021-08-12T12:02:14Z</time>
      </trkpt>
      <trkpt lat="47.87444" lon="-3.91785">
        <ele>3.2</ele>
        <time>2021-08-12T12:02:15Z</time>
      </trkpt>
      <trkpt lat="47.87446" lon="-3.91779">
        <ele>3</ele>
        <time>2021-08-12T12:02:16Z</time>
      </trkpt>
      <trkpt lat="47.87449" lon="-3.91773">
        <ele>3</ele>
        <time>2021-08-12T12:02:17Z</time>
      </trkpt>
      <trkpt lat="47.87455" lon="-3.91761">
        <ele>2.4</ele>
        <time>2021-08-12T12:02:19Z</time>
      </trkpt>
      <trkpt lat="47.87458" lon="-3.91755">
        <ele>2.2</ele>
        <time>2021-08-12T12:02:20Z</time>
      </trkpt>
      <trkpt lat="47.8746" lon="-3.91749">
        <ele>2.2</ele>
        <time>2021-08-12T12:02:21Z</time>
      </trkpt>
      <trkpt lat="47.87463" lon="-3.91743">
        <ele>2.2</ele>
        <time>2021-08-12T12:02:22Z</time>
      </trkpt>
      <trkpt lat="47.87466" lon="-3.91737">
        <ele>2.2</ele>
        <time>2021-08-12T12:02:23Z</time>
      </trkpt>
      <trkpt lat="47.87469" lon="-3.91732">
        <ele>2.2</ele>
        <time>2021-08-12T12:02:24Z</time>
      </trkpt>
      <trkpt lat="47.87471" lon="-3.91726">
        <ele>2.2</ele>
        <time>2021-08-12T12:02:25Z</time>
      </trkpt>
      <trkpt lat="47.87473" lon="-3.91721">
        <ele>2.2</ele>
        <time>2021-08-12T12:02:26Z</time>
      </trkpt>
      <trkpt lat="47.87476" lon="-3.91715">
        <ele>2.2</ele>
        <time>2021-08-12T12:02:27Z</time>
      </trkpt>
      <trkpt lat="47.87478" lon="-3.9171">
        <ele>2.2</ele>
        <time>2021-08-12T12:02:28Z</time>
      </trkpt>
      <trkpt lat="47.87483" lon="-3.91699">
        <ele>2.4</ele>
        <time>2021-08-12T12:02:30Z</time>
      </trkpt>
      <trkpt lat="47.87486" lon="-3.91694">
        <ele>2.6</ele>
        <time>2021-08-12T12:02:31Z</time>
      </trkpt>
      <trkpt lat="47.87488" lon="-3.91689">
        <ele>2.6</ele>
        <time>2021-08-12T12:02:32Z</time>
      </trkpt>
      <trkpt lat="47.8749" lon="-3.91684">
        <ele>2.6</ele>
        <time>2021-08-12T12:02:33Z</time>
      </trkpt>
      <trkpt lat="47.87492" lon="-3.91679">
        <ele>2.6</ele>
        <time>2021-08-12T12:02:34Z</time>
      </trkpt>
      <trkpt lat="47.87495" lon="-3.91674">
        <ele>2.8</ele>
        <time>2021-08-12T12:02:35Z</time>
      </trkpt>
      <trkpt lat="47.87497" lon="-3.91669">
        <ele>2.8</ele>
        <time>2021-08-12T12:02:36Z</time>
      </trkpt>
      <trkpt lat="47.87499" lon="-3.91664">
        <ele>2.8</ele>
        <time>2021-08-12T12:02:37Z</time>
      </trkpt>
      <trkpt lat="47.87501" lon="-3.91659">
        <ele>2.8</ele>
        <time>2021-08-12T12:02:38Z</time>
      </trkpt>
      <trkpt lat="47.87503" lon="-3.91655">
        <ele>2.8</ele>
        <time>2021-08-12T12:02:39Z</time>
      </trkpt>
      <trkpt lat="47.87508" lon="-3.91644">
        <ele>2.8</ele>
        <time>2021-08-12T12:02:41Z</time>
      </trkpt>
      <trkpt lat="47.8751" lon="-3.91639">
        <ele>2.8</ele>
        <time>2021-08-12T12:02:42Z</time>
      </trkpt>
      <trkpt lat="47.87512" lon="-3.91634">
        <ele>3</ele>
        <time>2021-08-12T12:02:43Z</time>
      </trkpt>
      <trkpt lat="47.87515" lon="-3.91629">
        <ele>3</ele>
        <time>2021-08-12T12:02:44Z</time>
      </trkpt>
      <trkpt lat="47.87517" lon="-3.91624">
        <ele>3</ele>
        <time>2021-08-12T12:02:45Z</time>
      </trkpt>
      <trkpt lat="47.87519" lon="-3.91619">
        <ele>3</ele>
        <time>2021-08-12T12:02:46Z</time>
      </trkpt>
      <trkpt lat="47.87522" lon="-3.91614">
        <ele>3</ele>
        <time>2021-08-12T12:02:47Z</time>
      </trkpt>
      <trkpt lat="47.87524" lon="-3.91608">
        <ele>3</ele>
        <time>2021-08-12T12:02:48Z</time>
      </trkpt>
      <trkpt lat="47.87527" lon="-3.91602">
        <ele>3</ele>
        <time>2021-08-12T12:02:49Z</time>
      </trkpt>
      <trkpt lat="47.87529" lon="-3.91597">
        <ele>3</ele>
        <time>2021-08-12T12:02:50Z</time>
      </trkpt>
      <trkpt lat="47.87535" lon="-3.91585">
        <ele>2.8</ele>
        <time>2021-08-12T12:02:52Z</time>
      </trkpt>
      <trkpt lat="47.87537" lon="-3.91579">
        <ele>2.8</ele>
        <time>2021-08-12T12:02:53Z</time>
      </trkpt>
      <trkpt lat="47.8754" lon="-3.91573">
        <ele>3</ele>
        <time>2021-08-12T12:02:54Z</time>
      </trkpt>
      <trkpt lat="47.87543" lon="-3.91567">
        <ele>3</ele>
        <time>2021-08-12T12:02:55Z</time>
      </trkpt>
      <trkpt lat="47.87545" lon="-3.91561">
        <ele>3</ele>
        <time>2021-08-12T12:02:56Z</time>
      </trkpt>
      <trkpt lat="47.87548" lon="-3.91556">
        <ele>3</ele>
        <time>2021-08-12T12:02:57Z</time>
      </trkpt>
      <trkpt lat="47.8755" lon="-3.9155">
        <ele>3</ele>
        <time>2021-08-12T12:02:58Z</time>
      </trkpt>
      <trkpt lat="47.87553" lon="-3.91544">
        <ele>3</ele>
        <time>2021-08-12T12:02:59Z</time>
      </trkpt>
      <trkpt lat="47.87556" lon="-3.91538">
        <ele>3</ele>
        <time>2021-08-12T12:03:00Z</time>
      </trkpt>
      <trkpt lat="47.87558" lon="-3.91532">
        <ele>3</ele>
        <time>2021-08-12T12:03:01Z</time>
      </trkpt>
      <trkpt lat="47.87561" lon="-3.91525">
        <ele>3</ele>
        <time>2021-08-12T12:03:02Z</time>
      </trkpt>
      <trkpt lat="47.87563" lon="-3.91519">
        <ele>3.2</ele>
        <time>2021-08-12T12:03:03Z</time>
      </trkpt>
      <trkpt lat="47.87565" lon="-3.91513">
        <ele>3.2</ele>
        <time>2021-08-12T12:03:04Z</time>
      </trkpt>
      <trkpt lat="47.87567" lon="-3.91507">
        <ele>3.2</ele>
        <time>2021-08-12T12:03:05Z</time>
      </trkpt>
      <trkpt lat="47.87569" lon="-3.91501">
        <ele>3.2</ele>
        <time>2021-08-12T12:03:06Z</time>
      </trkpt>
      <trkpt lat="47.8757" lon="-3.91494">
        <ele>3.2</ele>
        <time>2021-08-12T12:03:07Z</time>
      </trkpt>
      <trkpt lat="47.87572" lon="-3.91488">
        <ele>3.2</ele>
        <time>2021-08-12T12:03:08Z</time>
      </trkpt>
      <trkpt lat="47.87574" lon="-3.9148">
        <ele>3.4</ele>
        <time>2021-08-12T12:03:09Z</time>
      </trkpt>
      <trkpt lat="47.87576" lon="-3.91473">
        <ele>3.4</ele>
        <time>2021-08-12T12:03:10Z</time>
      </trkpt>
      <trkpt lat="47.87578" lon="-3.91465">
        <ele>3.4</ele>
        <time>2021-08-12T12:03:11Z</time>
      </trkpt>
      <trkpt lat="47.8758" lon="-3.91457">
        <ele>3.4</ele>
        <time>2021-08-12T12:03:12Z</time>
      </trkpt>
      <trkpt lat="47.87585" lon="-3.91439">
        <ele>3.4</ele>
        <time>2021-08-12T12:03:14Z</time>
      </trkpt>
      <trkpt lat="47.87587" lon="-3.91429">
        <ele>3.4</ele>
        <time>2021-08-12T12:03:15Z</time>
      </trkpt>
      <trkpt lat="47.8759" lon="-3.9142">
        <ele>3.4</ele>
        <time>2021-08-12T12:03:16Z</time>
      </trkpt>
      <trkpt lat="47.87593" lon="-3.91411">
        <ele>3.4</ele>
        <time>2021-08-12T12:03:17Z</time>
      </trkpt>
      <trkpt lat="47.87597" lon="-3.91402">
        <ele>3.4</ele>
        <time>2021-08-12T12:03:18Z</time>
      </trkpt>
      <trkpt lat="47.87601" lon="-3.91394">
        <ele>3.4</ele>
        <time>2021-08-12T12:03:19Z</time>
      </trkpt>
      <trkpt lat="47.87605" lon="-3.91386">
        <ele>3.2</ele>
        <time>2021-08-12T12:03:20Z</time>
      </trkpt>
      <trkpt lat="47.87609" lon="-3.91378">
        <ele>3</ele>
        <time>2021-08-12T12:03:21Z</time>
      </trkpt>
      <trkpt lat="47.87614" lon="-3.91371">
        <ele>2.8</ele>
        <time>2021-08-12T12:03:22Z</time>
      </trkpt>
      <trkpt lat="47.8762" lon="-3.91367">
        <ele>2.8</ele>
        <time>2021-08-12T12:03:23Z</time>
      </trkpt>
      <trkpt lat="47.87626" lon="-3.91364">
        <ele>2.6</ele>
        <time>2021-08-12T12:03:24Z</time>
      </trkpt>
      <trkpt lat="47.87633" lon="-3.91364">
        <ele>2.6</ele>
        <time>2021-08-12T12:03:25Z</time>
      </trkpt>
      <trkpt lat="47.87639" lon="-3.91365">
        <ele>2.6</ele>
        <time>2021-08-12T12:03:26Z</time>
      </trkpt>
      <trkpt lat="47.87644" lon="-3.91368">
        <ele>2.6</ele>
        <time>2021-08-12T12:03:27Z</time>
      </trkpt>
      <trkpt lat="47.87649" lon="-3.91373">
        <ele>2.6</ele>
        <time>2021-08-12T12:03:28Z</time>
      </trkpt>
      <trkpt lat="47.87654" lon="-3.91377">
        <ele>2.6</ele>
        <time>2021-08-12T12:03:29Z</time>
      </trkpt>
      <trkpt lat="47.87658" lon="-3.91382">
        <ele>2.6</ele>
        <time>2021-08-12T12:03:30Z</time>
      </trkpt>
      <trkpt lat="47.87662" lon="-3.91387">
        <ele>2.6</ele>
        <time>2021-08-12T12:03:31Z</time>
      </trkpt>
      <trkpt lat="47.87666" lon="-3.91391">
        <ele>2.6</ele>
        <time>2021-08-12T12:03:32Z</time>
      </trkpt>
      <trkpt lat="47.8767" lon="-3.91396">
        <ele>2.6</ele>
        <time>2021-08-12T12:03:33Z</time>
      </trkpt>
      <trkpt lat="47.87674" lon="-3.914">
        <ele>2.6</ele>
        <time>2021-08-12T12:03:34Z</time>
      </trkpt>
      <trkpt lat="47.87681" lon="-3.91409">
        <ele>2.6</ele>
        <time>2021-08-12T12:03:36Z</time>
      </trkpt>
      <trkpt lat="47.87686" lon="-3.91413">
        <ele>2.6</ele>
        <time>2021-08-12T12:03:37Z</time>
      </trkpt>
      <trkpt lat="47.8769" lon="-3.91417">
        <ele>2.6</ele>
        <time>2021-08-12T12:03:38Z</time>
      </trkpt>
      <trkpt lat="47.87695" lon="-3.91419">
        <ele>2.6</ele>
        <time>2021-08-12T12:03:39Z</time>
      </trkpt>
      <trkpt lat="47.877" lon="-3.9142">
        <ele>2.4</ele>
        <time>2021-08-12T12:03:40Z</time>
      </trkpt>
      <trkpt lat="47.87705" lon="-3.9142">
        <ele>2.6</ele>
        <time>2021-08-12T12:03:41Z</time>
      </trkpt>
      <trkpt lat="47.8771" lon="-3.91419">
        <ele>2.6</ele>
        <time>2021-08-12T12:03:42Z</time>
      </trkpt>
      <trkpt lat="47.87715" lon="-3.91417">
        <ele>2.6</ele>
        <time>2021-08-12T12:03:43Z</time>
      </trkpt>
      <trkpt lat="47.8772" lon="-3.91413">
        <ele>2.6</ele>
        <time>2021-08-12T12:03:44Z</time>
      </trkpt>
      <trkpt lat="47.87724" lon="-3.91409">
        <ele>2.6</ele>
        <time>2021-08-12T12:03:45Z</time>
      </trkpt>
      <trkpt lat="47.87731" lon="-3.91398">
        <ele>2.6</ele>
        <time>2021-08-12T12:03:47Z</time>
      </trkpt>
      <trkpt lat="47.87734" lon="-3.91392">
        <ele>2.6</ele>
        <time>2021-08-12T12:03:48Z</time>
      </trkpt>
      <trkpt lat="47.87735" lon="-3.91385">
        <ele>2.6</ele>
        <time>2021-08-12T12:03:49Z</time>
      </trkpt>
      <trkpt lat="47.87736" lon="-3.91379">
        <ele>2.6</ele>
        <time>2021-08-12T12:03:50Z</time>
      </trkpt>
      <trkpt lat="47.87737" lon="-3.91372">
        <ele>2.6</ele>
        <time>2021-08-12T12:03:51Z</time>
      </trkpt>
      <trkpt lat="47.87738" lon="-3.91366">
        <ele>2.6</ele>
        <time>2021-08-12T12:03:52Z</time>
      </trkpt>
      <trkpt lat="47.87738" lon="-3.91359">
        <ele>2.8</ele>
        <time>2021-08-12T12:03:53Z</time>
      </trkpt>
      <trkpt lat="47.87739" lon="-3.91352">
        <ele>2.8</ele>
        <time>2021-08-12T12:03:54Z</time>
      </trkpt>
      <trkpt lat="47.87739" lon="-3.91345">
        <ele>2.8</ele>
        <time>2021-08-12T12:03:55Z</time>
      </trkpt>
      <trkpt lat="47.87739" lon="-3.91339">
        <ele>2.8</ele>
        <time>2021-08-12T12:03:56Z</time>
      </trkpt>
      <trkpt lat="47.87739" lon="-3.91325">
        <ele>3</ele>
        <time>2021-08-12T12:03:58Z</time>
      </trkpt>
      <trkpt lat="47.87739" lon="-3.91318">
        <ele>3.2</ele>
        <time>2021-08-12T12:03:59Z</time>
      </trkpt>
      <trkpt lat="47.87739" lon="-3.91311">
        <ele>3.2</ele>
        <time>2021-08-12T12:04:00Z</time>
      </trkpt>
      <trkpt lat="47.87738" lon="-3.91304">
        <ele>3.2</ele>
        <time>2021-08-12T12:04:01Z</time>
      </trkpt>
      <trkpt lat="47.87738" lon="-3.91297">
        <ele>3.2</ele>
        <time>2021-08-12T12:04:02Z</time>
      </trkpt>
      <trkpt lat="47.87737" lon="-3.9129">
        <ele>3.4</ele>
        <time>2021-08-12T12:04:03Z</time>
      </trkpt>
      <trkpt lat="47.87736" lon="-3.91282">
        <ele>3.4</ele>
        <time>2021-08-12T12:04:04Z</time>
      </trkpt>
      <trkpt lat="47.87735" lon="-3.91275">
        <ele>3.4</ele>
        <time>2021-08-12T12:04:05Z</time>
      </trkpt>
      <trkpt lat="47.87734" lon="-3.91268">
        <ele>3.4</ele>
        <time>2021-08-12T12:04:06Z</time>
      </trkpt>
      <trkpt lat="47.87733" lon="-3.91261">
        <ele>3.4</ele>
        <time>2021-08-12T12:04:07Z</time>
      </trkpt>
      <trkpt lat="47.87731" lon="-3.91254">
        <ele>3.6</ele>
        <time>2021-08-12T12:04:08Z</time>
      </trkpt>
      <trkpt lat="47.8773" lon="-3.91246">
        <ele>3.6</ele>
        <time>2021-08-12T12:04:09Z</time>
      </trkpt>
      <trkpt lat="47.87728" lon="-3.91239">
        <ele>3.8</ele>
        <time>2021-08-12T12:04:10Z</time>
      </trkpt>
      <trkpt lat="47.87726" lon="-3.91232">
        <ele>3.8</ele>
        <time>2021-08-12T12:04:11Z</time>
      </trkpt>
      <trkpt lat="47.87725" lon="-3.91226">
        <ele>3.8</ele>
        <time>2021-08-12T12:04:12Z</time>
      </trkpt>
      <trkpt lat="47.87723" lon="-3.91219">
        <ele>3.8</ele>
        <time>2021-08-12T12:04:13Z</time>
      </trkpt>
      <trkpt lat="47.87722" lon="-3.91212">
        <ele>3.8</ele>
        <time>2021-08-12T12:04:14Z</time>
      </trkpt>
      <trkpt lat="47.87721" lon="-3.91206">
        <ele>3.8</ele>
        <time>2021-08-12T12:04:15Z</time>
      </trkpt>
      <trkpt lat="47.87719" lon="-3.912">
        <ele>3.8</ele>
        <time>2021-08-12T12:04:16Z</time>
      </trkpt>
      <trkpt lat="47.87717" lon="-3.91193">
        <ele>3.8</ele>
        <time>2021-08-12T12:04:17Z</time>
      </trkpt>
      <trkpt lat="47.87714" lon="-3.91188">
        <ele>3.8</ele>
        <time>2021-08-12T12:04:18Z</time>
      </trkpt>
      <trkpt lat="47.87706" lon="-3.91179">
        <ele>3.8</ele>
        <time>2021-08-12T12:04:20Z</time>
      </trkpt>
      <trkpt lat="47.87702" lon="-3.91175">
        <ele>3.6</ele>
        <time>2021-08-12T12:04:21Z</time>
      </trkpt>
      <trkpt lat="47.87698" lon="-3.91171">
        <ele>3.6</ele>
        <time>2021-08-12T12:04:22Z</time>
      </trkpt>
      <trkpt lat="47.87695" lon="-3.91165">
        <ele>3.6</ele>
        <time>2021-08-12T12:04:23Z</time>
      </trkpt>
      <trkpt lat="47.87693" lon="-3.91158">
        <ele>3.6</ele>
        <time>2021-08-12T12:04:24Z</time>
      </trkpt>
      <trkpt lat="47.87692" lon="-3.91151">
        <ele>3.6</ele>
        <time>2021-08-12T12:04:25Z</time>
      </trkpt>
      <trkpt lat="47.87691" lon="-3.91144">
        <ele>3.6</ele>
        <time>2021-08-12T12:04:26Z</time>
      </trkpt>
      <trkpt lat="47.87691" lon="-3.91137">
        <ele>3.6</ele>
        <time>2021-08-12T12:04:27Z</time>
      </trkpt>
      <trkpt lat="47.87691" lon="-3.91129">
        <ele>3.4</ele>
        <time>2021-08-12T12:04:28Z</time>
      </trkpt>
      <trkpt lat="47.8769" lon="-3.91122">
        <ele>3.4</ele>
        <time>2021-08-12T12:04:29Z</time>
      </trkpt>
      <trkpt lat="47.87686" lon="-3.91109">
        <ele>3.4</ele>
        <time>2021-08-12T12:04:31Z</time>
      </trkpt>
      <trkpt lat="47.87683" lon="-3.91103">
        <ele>3.4</ele>
        <time>2021-08-12T12:04:32Z</time>
      </trkpt>
      <trkpt lat="47.87681" lon="-3.91097">
        <ele>3.4</ele>
        <time>2021-08-12T12:04:33Z</time>
      </trkpt>
      <trkpt lat="47.87678" lon="-3.91091">
        <ele>3.4</ele>
        <time>2021-08-12T12:04:34Z</time>
      </trkpt>
      <trkpt lat="47.87675" lon="-3.91085">
        <ele>3.2</ele>
        <time>2021-08-12T12:04:35Z</time>
      </trkpt>
      <trkpt lat="47.87672" lon="-3.91079">
        <ele>3.2</ele>
        <time>2021-08-12T12:04:36Z</time>
      </trkpt>
      <trkpt lat="47.8767" lon="-3.91073">
        <ele>3.2</ele>
        <time>2021-08-12T12:04:37Z</time>
      </trkpt>
      <trkpt lat="47.87667" lon="-3.91067">
        <ele>3.2</ele>
        <time>2021-08-12T12:04:38Z</time>
      </trkpt>
      <trkpt lat="47.87664" lon="-3.91061">
        <ele>3.2</ele>
        <time>2021-08-12T12:04:39Z</time>
      </trkpt>
      <trkpt lat="47.87661" lon="-3.91055">
        <ele>3.2</ele>
        <time>2021-08-12T12:04:40Z</time>
      </trkpt>
      <trkpt lat="47.87655" lon="-3.91044">
        <ele>3.2</ele>
        <time>2021-08-12T12:04:42Z</time>
      </trkpt>
      <trkpt lat="47.87653" lon="-3.91039">
        <ele>3.2</ele>
        <time>2021-08-12T12:04:43Z</time>
      </trkpt>
      <trkpt lat="47.8765" lon="-3.91033">
        <ele>3.2</ele>
        <time>2021-08-12T12:04:44Z</time>
      </trkpt>
      <trkpt lat="47.87647" lon="-3.91027">
        <ele>3.2</ele>
        <time>2021-08-12T12:04:45Z</time>
      </trkpt>
      <trkpt lat="47.87644" lon="-3.91021">
        <ele>3.2</ele>
        <time>2021-08-12T12:04:46Z</time>
      </trkpt>
      <trkpt lat="47.87641" lon="-3.91015">
        <ele>3.2</ele>
        <time>2021-08-12T12:04:47Z</time>
      </trkpt>
      <trkpt lat="47.87639" lon="-3.9101">
        <ele>3.2</ele>
        <time>2021-08-12T12:04:48Z</time>
      </trkpt>
      <trkpt lat="47.87636" lon="-3.91004">
        <ele>3.2</ele>
        <time>2021-08-12T12:04:49Z</time>
      </trkpt>
      <trkpt lat="47.87633" lon="-3.90998">
        <ele>3.4</ele>
        <time>2021-08-12T12:04:50Z</time>
      </trkpt>
      <trkpt lat="47.8763" lon="-3.90992">
        <ele>3.6</ele>
        <time>2021-08-12T12:04:51Z</time>
      </trkpt>
      <trkpt lat="47.87625" lon="-3.9098">
        <ele>3.6</ele>
        <time>2021-08-12T12:04:53Z</time>
      </trkpt>
      <trkpt lat="47.87622" lon="-3.90974">
        <ele>3.8</ele>
        <time>2021-08-12T12:04:54Z</time>
      </trkpt>
      <trkpt lat="47.87619" lon="-3.90968">
        <ele>3.8</ele>
        <time>2021-08-12T12:04:55Z</time>
      </trkpt>
      <trkpt lat="47.87616" lon="-3.90962">
        <ele>3.8</ele>
        <time>2021-08-12T12:04:56Z</time>
      </trkpt>
      <trkpt lat="47.87614" lon="-3.90956">
        <ele>3.8</ele>
        <time>2021-08-12T12:04:57Z</time>
      </trkpt>
      <trkpt lat="47.87611" lon="-3.9095">
        <ele>3.8</ele>
        <time>2021-08-12T12:04:58Z</time>
      </trkpt>
      <trkpt lat="47.87607" lon="-3.90945">
        <ele>3.8</ele>
        <time>2021-08-12T12:04:59Z</time>
      </trkpt>
      <trkpt lat="47.87605" lon="-3.90939">
        <ele>3.8</ele>
        <time>2021-08-12T12:05:00Z</time>
      </trkpt>
      <trkpt lat="47.87602" lon="-3.90933">
        <ele>3.8</ele>
        <time>2021-08-12T12:05:01Z</time>
      </trkpt>
      <trkpt lat="47.87599" lon="-3.90928">
        <ele>3.8</ele>
        <time>2021-08-12T12:05:02Z</time>
      </trkpt>
      <trkpt lat="47.87594" lon="-3.90916">
        <ele>3.8</ele>
        <time>2021-08-12T12:05:04Z</time>
      </trkpt>
      <trkpt lat="47.87592" lon="-3.9091">
        <ele>3.8</ele>
        <time>2021-08-12T12:05:05Z</time>
      </trkpt>
      <trkpt lat="47.87591" lon="-3.90903">
        <ele>3.8</ele>
        <time>2021-08-12T12:05:06Z</time>
      </trkpt>
      <trkpt lat="47.87591" lon="-3.90896">
        <ele>3.8</ele>
        <time>2021-08-12T12:05:07Z</time>
      </trkpt>
      <trkpt lat="47.87591" lon="-3.90889">
        <ele>3.8</ele>
        <time>2021-08-12T12:05:08Z</time>
      </trkpt>
      <trkpt lat="47.87593" lon="-3.90882">
        <ele>3.8</ele>
        <time>2021-08-12T12:05:09Z</time>
      </trkpt>
      <trkpt lat="47.87594" lon="-3.90875">
        <ele>3.8</ele>
        <time>2021-08-12T12:05:10Z</time>
      </trkpt>
      <trkpt lat="47.87596" lon="-3.90868">
        <ele>3.8</ele>
        <time>2021-08-12T12:05:11Z</time>
      </trkpt>
      <trkpt lat="47.87599" lon="-3.90862">
        <ele>3.8</ele>
        <time>2021-08-12T12:05:12Z</time>
      </trkpt>
      <trkpt lat="47.87601" lon="-3.90856">
        <ele>3.8</ele>
        <time>2021-08-12T12:05:13Z</time>
      </trkpt>
      <trkpt lat="47.87607" lon="-3.90845">
        <ele>3.8</ele>
        <time>2021-08-12T12:05:15Z</time>
      </trkpt>
      <trkpt lat="47.87611" lon="-3.90841">
        <ele>3.8</ele>
        <time>2021-08-12T12:05:16Z</time>
      </trkpt>
      <trkpt lat="47.87614" lon="-3.90836">
        <ele>3.8</ele>
        <time>2021-08-12T12:05:17Z</time>
      </trkpt>
      <trkpt lat="47.87618" lon="-3.90832">
        <ele>3.8</ele>
        <time>2021-08-12T12:05:18Z</time>
      </trkpt>
      <trkpt lat="47.87621" lon="-3.90828">
        <ele>3.8</ele>
        <time>2021-08-12T12:05:19Z</time>
      </trkpt>
      <trkpt lat="47.87625" lon="-3.90824">
        <ele>3.8</ele>
        <time>2021-08-12T12:05:20Z</time>
      </trkpt>
      <trkpt lat="47.87628" lon="-3.9082">
        <ele>3.8</ele>
        <time>2021-08-12T12:05:21Z</time>
      </trkpt>
      <trkpt lat="47.87632" lon="-3.90816">
        <ele>3.8</ele>
        <time>2021-08-12T12:05:22Z</time>
      </trkpt>
      <trkpt lat="47.87635" lon="-3.90812">
        <ele>3.8</ele>
        <time>2021-08-12T12:05:23Z</time>
      </trkpt>
      <trkpt lat="47.87638" lon="-3.90808">
        <ele>3.8</ele>
        <time>2021-08-12T12:05:24Z</time>
      </trkpt>
      <trkpt lat="47.87645" lon="-3.90801">
        <ele>3.8</ele>
        <time>2021-08-12T12:05:26Z</time>
      </trkpt>
      <trkpt lat="47.87648" lon="-3.90797">
        <ele>3.8</ele>
        <time>2021-08-12T12:05:27Z</time>
      </trkpt>
      <trkpt lat="47.87651" lon="-3.90794">
        <ele>3.8</ele>
        <time>2021-08-12T12:05:28Z</time>
      </trkpt>
      <trkpt lat="47.87654" lon="-3.9079">
        <ele>3.8</ele>
        <time>2021-08-12T12:05:29Z</time>
      </trkpt>
      <trkpt lat="47.87657" lon="-3.90786">
        <ele>3.8</ele>
        <time>2021-08-12T12:05:30Z</time>
      </trkpt>
      <trkpt lat="47.87661" lon="-3.90783">
        <ele>3.8</ele>
        <time>2021-08-12T12:05:31Z</time>
      </trkpt>
      <trkpt lat="47.87664" lon="-3.90779">
        <ele>3.8</ele>
        <time>2021-08-12T12:05:32Z</time>
      </trkpt>
      <trkpt lat="47.87668" lon="-3.90775">
        <ele>3.8</ele>
        <time>2021-08-12T12:05:33Z</time>
      </trkpt>
      <trkpt lat="47.87672" lon="-3.9077">
        <ele>4</ele>
        <time>2021-08-12T12:05:34Z</time>
      </trkpt>
      <trkpt lat="47.87675" lon="-3.90765">
        <ele>4</ele>
        <time>2021-08-12T12:05:35Z</time>
      </trkpt>
      <trkpt lat="47.87682" lon="-3.90756">
        <ele>4</ele>
        <time>2021-08-12T12:05:37Z</time>
      </trkpt>
      <trkpt lat="47.87686" lon="-3.90752">
        <ele>4</ele>
        <time>2021-08-12T12:05:38Z</time>
      </trkpt>
      <trkpt lat="47.87689" lon="-3.90748">
        <ele>3.8</ele>
        <time>2021-08-12T12:05:39Z</time>
      </trkpt>
      <trkpt lat="47.87693" lon="-3.90744">
        <ele>3.8</ele>
        <time>2021-08-12T12:05:40Z</time>
      </trkpt>
      <trkpt lat="47.87696" lon="-3.90739">
        <ele>3.8</ele>
        <time>2021-08-12T12:05:41Z</time>
      </trkpt>
      <trkpt lat="47.877" lon="-3.90735">
        <ele>3.8</ele>
        <time>2021-08-12T12:05:42Z</time>
      </trkpt>
      <trkpt lat="47.87704" lon="-3.9073">
        <ele>3.8</ele>
        <time>2021-08-12T12:05:43Z</time>
      </trkpt>
      <trkpt lat="47.87708" lon="-3.90726">
        <ele>3.8</ele>
        <time>2021-08-12T12:05:44Z</time>
      </trkpt>
      <trkpt lat="47.87712" lon="-3.90721">
        <ele>3.8</ele>
        <time>2021-08-12T12:05:45Z</time>
      </trkpt>
      <trkpt lat="47.87717" lon="-3.90716">
        <ele>3.6</ele>
        <time>2021-08-12T12:05:46Z</time>
      </trkpt>
      <trkpt lat="47.87725" lon="-3.90705">
        <ele>3.6</ele>
        <time>2021-08-12T12:05:48Z</time>
      </trkpt>
      <trkpt lat="47.87729" lon="-3.90699">
        <ele>3.6</ele>
        <time>2021-08-12T12:05:49Z</time>
      </trkpt>
      <trkpt lat="47.87732" lon="-3.90693">
        <ele>3.6</ele>
        <time>2021-08-12T12:05:50Z</time>
      </trkpt>
      <trkpt lat="47.87736" lon="-3.90687">
        <ele>3.6</ele>
        <time>2021-08-12T12:05:51Z</time>
      </trkpt>
      <trkpt lat="47.8774" lon="-3.90681">
        <ele>3.4</ele>
        <time>2021-08-12T12:05:52Z</time>
      </trkpt>
      <trkpt lat="47.87743" lon="-3.90676">
        <ele>3.4</ele>
        <time>2021-08-12T12:05:53Z</time>
      </trkpt>
      <trkpt lat="47.87747" lon="-3.9067">
        <ele>3.4</ele>
        <time>2021-08-12T12:05:54Z</time>
      </trkpt>
      <trkpt lat="47.87751" lon="-3.90664">
        <ele>3.4</ele>
        <time>2021-08-12T12:05:55Z</time>
      </trkpt>
      <trkpt lat="47.87754" lon="-3.90658">
        <ele>3.4</ele>
        <time>2021-08-12T12:05:56Z</time>
      </trkpt>
      <trkpt lat="47.87757" lon="-3.90652">
        <ele>3.4</ele>
        <time>2021-08-12T12:05:57Z</time>
      </trkpt>
      <trkpt lat="47.87761" lon="-3.90639">
        <ele>3.4</ele>
        <time>2021-08-12T12:05:59Z</time>
      </trkpt>
      <trkpt lat="47.87762" lon="-3.90631">
        <ele>3.4</ele>
        <time>2021-08-12T12:06:00Z</time>
      </trkpt>
      <trkpt lat="47.87763" lon="-3.90624">
        <ele>3.4</ele>
        <time>2021-08-12T12:06:01Z</time>
      </trkpt>
      <trkpt lat="47.87765" lon="-3.90617">
        <ele>3.4</ele>
        <time>2021-08-12T12:06:02Z</time>
      </trkpt>
      <trkpt lat="47.87767" lon="-3.90611">
        <ele>3.4</ele>
        <time>2021-08-12T12:06:03Z</time>
      </trkpt>
      <trkpt lat="47.8777" lon="-3.90605">
        <ele>3.4</ele>
        <time>2021-08-12T12:06:04Z</time>
      </trkpt>
      <trkpt lat="47.87774" lon="-3.906">
        <ele>3.4</ele>
        <time>2021-08-12T12:06:05Z</time>
      </trkpt>
      <trkpt lat="47.87778" lon="-3.90596">
        <ele>3.4</ele>
        <time>2021-08-12T12:06:06Z</time>
      </trkpt>
      <trkpt lat="47.87782" lon="-3.90591">
        <ele>3.4</ele>
        <time>2021-08-12T12:06:07Z</time>
      </trkpt>
      <trkpt lat="47.87786" lon="-3.90587">
        <ele>3.4</ele>
        <time>2021-08-12T12:06:08Z</time>
      </trkpt>
      <trkpt lat="47.87795" lon="-3.90579">
        <ele>3.6</ele>
        <time>2021-08-12T12:06:10Z</time>
      </trkpt>
      <trkpt lat="47.878" lon="-3.90575">
        <ele>3.6</ele>
        <time>2021-08-12T12:06:11Z</time>
      </trkpt>
      <trkpt lat="47.87804" lon="-3.9057">
        <ele>3.6</ele>
        <time>2021-08-12T12:06:12Z</time>
      </trkpt>
      <trkpt lat="47.87809" lon="-3.90566">
        <ele>3.6</ele>
        <time>2021-08-12T12:06:13Z</time>
      </trkpt>
      <trkpt lat="47.87814" lon="-3.90561">
        <ele>3.4</ele>
        <time>2021-08-12T12:06:14Z</time>
      </trkpt>
      <trkpt lat="47.87819" lon="-3.90557">
        <ele>3.4</ele>
        <time>2021-08-12T12:06:15Z</time>
      </trkpt>
      <trkpt lat="47.87824" lon="-3.90552">
        <ele>3.4</ele>
        <time>2021-08-12T12:06:16Z</time>
      </trkpt>
      <trkpt lat="47.87829" lon="-3.90548">
        <ele>3.4</ele>
        <time>2021-08-12T12:06:17Z</time>
      </trkpt>
      <trkpt lat="47.87833" lon="-3.90543">
        <ele>3.6</ele>
        <time>2021-08-12T12:06:18Z</time>
      </trkpt>
      <trkpt lat="47.87838" lon="-3.90538">
        <ele>3.6</ele>
        <time>2021-08-12T12:06:19Z</time>
      </trkpt>
      <trkpt lat="47.87847" lon="-3.9053">
        <ele>3.6</ele>
        <time>2021-08-12T12:06:21Z</time>
      </trkpt>
      <trkpt lat="47.87852" lon="-3.90526">
        <ele>3.6</ele>
        <time>2021-08-12T12:06:22Z</time>
      </trkpt>
      <trkpt lat="47.87857" lon="-3.90521">
        <ele>3.6</ele>
        <time>2021-08-12T12:06:23Z</time>
      </trkpt>
      <trkpt lat="47.87861" lon="-3.90517">
        <ele>3.4</ele>
        <time>2021-08-12T12:06:24Z</time>
      </trkpt>
      <trkpt lat="47.87866" lon="-3.90514">
        <ele>3.4</ele>
        <time>2021-08-12T12:06:25Z</time>
      </trkpt>
      <trkpt lat="47.87871" lon="-3.9051">
        <ele>3.4</ele>
        <time>2021-08-12T12:06:26Z</time>
      </trkpt>
      <trkpt lat="47.87876" lon="-3.90506">
        <ele>3.6</ele>
        <time>2021-08-12T12:06:27Z</time>
      </trkpt>
      <trkpt lat="47.87881" lon="-3.90503">
        <ele>3.6</ele>
        <time>2021-08-12T12:06:28Z</time>
      </trkpt>
      <trkpt lat="47.87886" lon="-3.90499">
        <ele>3.6</ele>
        <time>2021-08-12T12:06:29Z</time>
      </trkpt>
      <trkpt lat="47.8789" lon="-3.90495">
        <ele>3.4</ele>
        <time>2021-08-12T12:06:30Z</time>
      </trkpt>
      <trkpt lat="47.87899" lon="-3.90487">
        <ele>3.4</ele>
        <time>2021-08-12T12:06:32Z</time>
      </trkpt>
      <trkpt lat="47.87902" lon="-3.90482">
        <ele>3.4</ele>
        <time>2021-08-12T12:06:33Z</time>
      </trkpt>
      <trkpt lat="47.87906" lon="-3.90476">
        <ele>3.8</ele>
        <time>2021-08-12T12:06:34Z</time>
      </trkpt>
      <trkpt lat="47.87908" lon="-3.90469">
        <ele>3.8</ele>
        <time>2021-08-12T12:06:35Z</time>
      </trkpt>
      <trkpt lat="47.87909" lon="-3.90461">
        <ele>3.8</ele>
        <time>2021-08-12T12:06:36Z</time>
      </trkpt>
      <trkpt lat="47.87908" lon="-3.90454">
        <ele>3.8</ele>
        <time>2021-08-12T12:06:37Z</time>
      </trkpt>
      <trkpt lat="47.87907" lon="-3.90446">
        <ele>3.6</ele>
        <time>2021-08-12T12:06:38Z</time>
      </trkpt>
      <trkpt lat="47.87905" lon="-3.9044">
        <ele>3.6</ele>
        <time>2021-08-12T12:06:39Z</time>
      </trkpt>
      <trkpt lat="47.87903" lon="-3.90433">
        <ele>3.6</ele>
        <time>2021-08-12T12:06:40Z</time>
      </trkpt>
      <trkpt lat="47.87901" lon="-3.90427">
        <ele>3.6</ele>
        <time>2021-08-12T12:06:41Z</time>
      </trkpt>
      <trkpt lat="47.87896" lon="-3.90415">
        <ele>3.6</ele>
        <time>2021-08-12T12:06:43Z</time>
      </trkpt>
      <trkpt lat="47.87894" lon="-3.90408">
        <ele>3.6</ele>
        <time>2021-08-12T12:06:44Z</time>
      </trkpt>
      <trkpt lat="47.87891" lon="-3.90402">
        <ele>3.6</ele>
        <time>2021-08-12T12:06:45Z</time>
      </trkpt>
      <trkpt lat="47.87888" lon="-3.90396">
        <ele>3.6</ele>
        <time>2021-08-12T12:06:46Z</time>
      </trkpt>
      <trkpt lat="47.87885" lon="-3.9039">
        <ele>3.6</ele>
        <time>2021-08-12T12:06:47Z</time>
      </trkpt>
      <trkpt lat="47.87882" lon="-3.90385">
        <ele>3.6</ele>
        <time>2021-08-12T12:06:48Z</time>
      </trkpt>
      <trkpt lat="47.87878" lon="-3.9038">
        <ele>3.6</ele>
        <time>2021-08-12T12:06:49Z</time>
      </trkpt>
      <trkpt lat="47.87873" lon="-3.90377">
        <ele>3.6</ele>
        <time>2021-08-12T12:06:50Z</time>
      </trkpt>
      <trkpt lat="47.87868" lon="-3.90376">
        <ele>3.6</ele>
        <time>2021-08-12T12:06:51Z</time>
      </trkpt>
      <trkpt lat="47.87863" lon="-3.90377">
        <ele>3.4</ele>
        <time>2021-08-12T12:06:52Z</time>
      </trkpt>
      <trkpt lat="47.87852" lon="-3.90381">
        <ele>3.4</ele>
        <time>2021-08-12T12:06:54Z</time>
      </trkpt>
      <trkpt lat="47.87847" lon="-3.90383">
        <ele>3.2</ele>
        <time>2021-08-12T12:06:55Z</time>
      </trkpt>
      <trkpt lat="47.87842" lon="-3.90385">
        <ele>3.2</ele>
        <time>2021-08-12T12:06:56Z</time>
      </trkpt>
      <trkpt lat="47.87837" lon="-3.90388">
        <ele>3</ele>
        <time>2021-08-12T12:06:57Z</time>
      </trkpt>
      <trkpt lat="47.87831" lon="-3.9039">
        <ele>2.8</ele>
        <time>2021-08-12T12:06:58Z</time>
      </trkpt>
      <trkpt lat="47.87826" lon="-3.90393">
        <ele>2.6</ele>
        <time>2021-08-12T12:06:59Z</time>
      </trkpt>
      <trkpt lat="47.8782" lon="-3.90396">
        <ele>2.4</ele>
        <time>2021-08-12T12:07:00Z</time>
      </trkpt>
      <trkpt lat="47.87815" lon="-3.90399">
        <ele>2.2</ele>
        <time>2021-08-12T12:07:01Z</time>
      </trkpt>
      <trkpt lat="47.8781" lon="-3.90402">
        <ele>2.2</ele>
        <time>2021-08-12T12:07:02Z</time>
      </trkpt>
      <trkpt lat="47.87805" lon="-3.90406">
        <ele>2</ele>
        <time>2021-08-12T12:07:03Z</time>
      </trkpt>
      <trkpt lat="47.87797" lon="-3.90416">
        <ele>1.8</ele>
        <time>2021-08-12T12:07:05Z</time>
      </trkpt>
      <trkpt lat="47.87793" lon="-3.90422">
        <ele>1.8</ele>
        <time>2021-08-12T12:07:06Z</time>
      </trkpt>
      <trkpt lat="47.8779" lon="-3.90428">
        <ele>1.8</ele>
        <time>2021-08-12T12:07:07Z</time>
      </trkpt>
      <trkpt lat="47.87787" lon="-3.90434">
        <ele>1.8</ele>
        <time>2021-08-12T12:07:08Z</time>
      </trkpt>
      <trkpt lat="47.87784" lon="-3.90441">
        <ele>1.8</ele>
        <time>2021-08-12T12:07:09Z</time>
      </trkpt>
      <trkpt lat="47.8778" lon="-3.90447">
        <ele>1.8</ele>
        <time>2021-08-12T12:07:10Z</time>
      </trkpt>
      <trkpt lat="47.87777" lon="-3.90453">
        <ele>1.8</ele>
        <time>2021-08-12T12:07:11Z</time>
      </trkpt>
      <trkpt lat="47.87773" lon="-3.90458">
        <ele>1.8</ele>
        <time>2021-08-12T12:07:12Z</time>
      </trkpt>
      <trkpt lat="47.87768" lon="-3.90464">
        <ele>1.8</ele>
        <time>2021-08-12T12:07:13Z</time>
      </trkpt>
      <trkpt lat="47.87764" lon="-3.90469">
        <ele>1.8</ele>
        <time>2021-08-12T12:07:14Z</time>
      </trkpt>
      <trkpt lat="47.87755" lon="-3.90479">
        <ele>1.8</ele>
        <time>2021-08-12T12:07:16Z</time>
      </trkpt>
      <trkpt lat="47.87751" lon="-3.90484">
        <ele>1.8</ele>
        <time>2021-08-12T12:07:17Z</time>
      </trkpt>
      <trkpt lat="47.87747" lon="-3.9049">
        <ele>1.8</ele>
        <time>2021-08-12T12:07:18Z</time>
      </trkpt>
      <trkpt lat="47.87743" lon="-3.90495">
        <ele>1.8</ele>
        <time>2021-08-12T12:07:19Z</time>
      </trkpt>
      <trkpt lat="47.87738" lon="-3.90499">
        <ele>1.8</ele>
        <time>2021-08-12T12:07:20Z</time>
      </trkpt>
      <trkpt lat="47.87735" lon="-3.90504">
        <ele>2</ele>
        <time>2021-08-12T12:07:21Z</time>
      </trkpt>
      <trkpt lat="47.87731" lon="-3.90509">
        <ele>2</ele>
        <time>2021-08-12T12:07:22Z</time>
      </trkpt>
      <trkpt lat="47.87727" lon="-3.90513">
        <ele>2</ele>
        <time>2021-08-12T12:07:23Z</time>
      </trkpt>
      <trkpt lat="47.87723" lon="-3.90518">
        <ele>2</ele>
        <time>2021-08-12T12:07:24Z</time>
      </trkpt>
      <trkpt lat="47.87719" lon="-3.90523">
        <ele>2</ele>
        <time>2021-08-12T12:07:25Z</time>
      </trkpt>
      <trkpt lat="47.87712" lon="-3.90532">
        <ele>2</ele>
        <time>2021-08-12T12:07:27Z</time>
      </trkpt>
      <trkpt lat="47.87708" lon="-3.90536">
        <ele>2</ele>
        <time>2021-08-12T12:07:28Z</time>
      </trkpt>
      <trkpt lat="47.87703" lon="-3.9054">
        <ele>2</ele>
        <time>2021-08-12T12:07:29Z</time>
      </trkpt>
      <trkpt lat="47.877" lon="-3.90544">
        <ele>2</ele>
        <time>2021-08-12T12:07:30Z</time>
      </trkpt>
      <trkpt lat="47.87696" lon="-3.90547">
        <ele>2</ele>
        <time>2021-08-12T12:07:31Z</time>
      </trkpt>
      <trkpt lat="47.87691" lon="-3.90551">
        <ele>2</ele>
        <time>2021-08-12T12:07:32Z</time>
      </trkpt>
      <trkpt lat="47.87687" lon="-3.90555">
        <ele>2</ele>
        <time>2021-08-12T12:07:33Z</time>
      </trkpt>
      <trkpt lat="47.87683" lon="-3.90558">
        <ele>2</ele>
        <time>2021-08-12T12:07:34Z</time>
      </trkpt>
      <trkpt lat="47.87678" lon="-3.90562">
        <ele>2</ele>
        <time>2021-08-12T12:07:35Z</time>
      </trkpt>
      <trkpt lat="47.87673" lon="-3.90566">
        <ele>2</ele>
        <time>2021-08-12T12:07:36Z</time>
      </trkpt>
      <trkpt lat="47.87665" lon="-3.90574">
        <ele>2</ele>
        <time>2021-08-12T12:07:38Z</time>
      </trkpt>
      <trkpt lat="47.87661" lon="-3.90577">
        <ele>2</ele>
        <time>2021-08-12T12:07:39Z</time>
      </trkpt>
      <trkpt lat="47.87656" lon="-3.90581">
        <ele>2</ele>
        <time>2021-08-12T12:07:40Z</time>
      </trkpt>
      <trkpt lat="47.87652" lon="-3.90584">
        <ele>2.2</ele>
        <time>2021-08-12T12:07:41Z</time>
      </trkpt>
      <trkpt lat="47.87648" lon="-3.90588">
        <ele>2.2</ele>
        <time>2021-08-12T12:07:42Z</time>
      </trkpt>
      <trkpt lat="47.87644" lon="-3.90592">
        <ele>2.2</ele>
        <time>2021-08-12T12:07:43Z</time>
      </trkpt>
      <trkpt lat="47.8764" lon="-3.90597">
        <ele>2.2</ele>
        <time>2021-08-12T12:07:44Z</time>
      </trkpt>
      <trkpt lat="47.87635" lon="-3.90601">
        <ele>2.2</ele>
        <time>2021-08-12T12:07:45Z</time>
      </trkpt>
      <trkpt lat="47.87631" lon="-3.90605">
        <ele>2.2</ele>
        <time>2021-08-12T12:07:46Z</time>
      </trkpt>
      <trkpt lat="47.87627" lon="-3.90609">
        <ele>2.2</ele>
        <time>2021-08-12T12:07:47Z</time>
      </trkpt>
      <trkpt lat="47.87619" lon="-3.90618">
        <ele>2.2</ele>
        <time>2021-08-12T12:07:49Z</time>
      </trkpt>
      <trkpt lat="47.87615" lon="-3.90623">
        <ele>2.2</ele>
        <time>2021-08-12T12:07:50Z</time>
      </trkpt>
      <trkpt lat="47.87611" lon="-3.90627">
        <ele>2.4</ele>
        <time>2021-08-12T12:07:51Z</time>
      </trkpt>
      <trkpt lat="47.87607" lon="-3.90632">
        <ele>2.4</ele>
        <time>2021-08-12T12:07:52Z</time>
      </trkpt>
      <trkpt lat="47.87604" lon="-3.90637">
        <ele>2.4</ele>
        <time>2021-08-12T12:07:53Z</time>
      </trkpt>
      <trkpt lat="47.876" lon="-3.90641">
        <ele>2.4</ele>
        <time>2021-08-12T12:07:54Z</time>
      </trkpt>
      <trkpt lat="47.87597" lon="-3.90646">
        <ele>2.4</ele>
        <time>2021-08-12T12:07:55Z</time>
      </trkpt>
      <trkpt lat="47.87594" lon="-3.9065">
        <ele>2.4</ele>
        <time>2021-08-12T12:07:56Z</time>
      </trkpt>
      <trkpt lat="47.87591" lon="-3.90654">
        <ele>2.4</ele>
        <time>2021-08-12T12:07:57Z</time>
      </trkpt>
      <trkpt lat="47.87588" lon="-3.90658">
        <ele>2.6</ele>
        <time>2021-08-12T12:07:58Z</time>
      </trkpt>
      <trkpt lat="47.87581" lon="-3.90666">
        <ele>2.6</ele>
        <time>2021-08-12T12:08:00Z</time>
      </trkpt>
      <trkpt lat="47.87578" lon="-3.9067">
        <ele>2.6</ele>
        <time>2021-08-12T12:08:01Z</time>
      </trkpt>
      <trkpt lat="47.87575" lon="-3.90674">
        <ele>2.6</ele>
        <time>2021-08-12T12:08:02Z</time>
      </trkpt>
      <trkpt lat="47.87571" lon="-3.90678">
        <ele>2.6</ele>
        <time>2021-08-12T12:08:03Z</time>
      </trkpt>
      <trkpt lat="47.87567" lon="-3.90682">
        <ele>2.8</ele>
        <time>2021-08-12T12:08:04Z</time>
      </trkpt>
      <trkpt lat="47.87564" lon="-3.90686">
        <ele>2.8</ele>
        <time>2021-08-12T12:08:05Z</time>
      </trkpt>
      <trkpt lat="47.8756" lon="-3.90691">
        <ele>2.8</ele>
        <time>2021-08-12T12:08:06Z</time>
      </trkpt>
      <trkpt lat="47.87556" lon="-3.90695">
        <ele>2.8</ele>
        <time>2021-08-12T12:08:07Z</time>
      </trkpt>
      <trkpt lat="47.87553" lon="-3.907">
        <ele>3</ele>
        <time>2021-08-12T12:08:08Z</time>
      </trkpt>
      <trkpt lat="47.87549" lon="-3.90704">
        <ele>3</ele>
        <time>2021-08-12T12:08:09Z</time>
      </trkpt>
      <trkpt lat="47.87542" lon="-3.90712">
        <ele>3</ele>
        <time>2021-08-12T12:08:11Z</time>
      </trkpt>
      <trkpt lat="47.87539" lon="-3.90716">
        <ele>3</ele>
        <time>2021-08-12T12:08:12Z</time>
      </trkpt>
      <trkpt lat="47.87536" lon="-3.9072">
        <ele>3</ele>
        <time>2021-08-12T12:08:13Z</time>
      </trkpt>
      <trkpt lat="47.87533" lon="-3.90723">
        <ele>3</ele>
        <time>2021-08-12T12:08:14Z</time>
      </trkpt>
      <trkpt lat="47.8753" lon="-3.90726">
        <ele>3</ele>
        <time>2021-08-12T12:08:15Z</time>
      </trkpt>
      <trkpt lat="47.87527" lon="-3.90728">
        <ele>3.2</ele>
        <time>2021-08-12T12:08:16Z</time>
      </trkpt>
      <trkpt lat="47.87524" lon="-3.90729">
        <ele>3.2</ele>
        <time>2021-08-12T12:08:17Z</time>
      </trkpt>
      <trkpt lat="47.8752" lon="-3.90729">
        <ele>3.2</ele>
        <time>2021-08-12T12:08:18Z</time>
      </trkpt>
      <trkpt lat="47.87517" lon="-3.90728">
        <ele>3.2</ele>
        <time>2021-08-12T12:08:19Z</time>
      </trkpt>
      <trkpt lat="47.87513" lon="-3.90726">
        <ele>3.2</ele>
        <time>2021-08-12T12:08:20Z</time>
      </trkpt>
      <trkpt lat="47.8751" lon="-3.90723">
        <ele>3.2</ele>
        <time>2021-08-12T12:08:21Z</time>
      </trkpt>
      <trkpt lat="47.87507" lon="-3.90719">
        <ele>3.2</ele>
        <time>2021-08-12T12:08:22Z</time>
      </trkpt>
      <trkpt lat="47.87504" lon="-3.90715">
        <ele>3.2</ele>
        <time>2021-08-12T12:08:23Z</time>
      </trkpt>
      <trkpt lat="47.87501" lon="-3.9071">
        <ele>3.4</ele>
        <time>2021-08-12T12:08:24Z</time>
      </trkpt>
      <trkpt lat="47.87498" lon="-3.90704">
        <ele>3.4</ele>
        <time>2021-08-12T12:08:25Z</time>
      </trkpt>
      <trkpt lat="47.87496" lon="-3.90698">
        <ele>3.4</ele>
        <time>2021-08-12T12:08:26Z</time>
      </trkpt>
      <trkpt lat="47.87493" lon="-3.90693">
        <ele>3.2</ele>
        <time>2021-08-12T12:08:27Z</time>
      </trkpt>
      <trkpt lat="47.8749" lon="-3.90687">
        <ele>3.2</ele>
        <time>2021-08-12T12:08:28Z</time>
      </trkpt>
      <trkpt lat="47.87488" lon="-3.90681">
        <ele>3.4</ele>
        <time>2021-08-12T12:08:29Z</time>
      </trkpt>
      <trkpt lat="47.87485" lon="-3.90674">
        <ele>3.4</ele>
        <time>2021-08-12T12:08:30Z</time>
      </trkpt>
      <trkpt lat="47.87482" lon="-3.90668">
        <ele>3.4</ele>
        <time>2021-08-12T12:08:31Z</time>
      </trkpt>
      <trkpt lat="47.87477" lon="-3.90656">
        <ele>3.4</ele>
        <time>2021-08-12T12:08:33Z</time>
      </trkpt>
      <trkpt lat="47.87474" lon="-3.90649">
        <ele>3.4</ele>
        <time>2021-08-12T12:08:34Z</time>
      </trkpt>
      <trkpt lat="47.87471" lon="-3.90643">
        <ele>3.4</ele>
        <time>2021-08-12T12:08:35Z</time>
      </trkpt>
      <trkpt lat="47.87468" lon="-3.90636">
        <ele>3.4</ele>
        <time>2021-08-12T12:08:36Z</time>
      </trkpt>
      <trkpt lat="47.87465" lon="-3.9063">
        <ele>3.4</ele>
        <time>2021-08-12T12:08:37Z</time>
      </trkpt>
      <trkpt lat="47.87462" lon="-3.90623">
        <ele>3.4</ele>
        <time>2021-08-12T12:08:38Z</time>
      </trkpt>
      <trkpt lat="47.87459" lon="-3.90617">
        <ele>3.4</ele>
        <time>2021-08-12T12:08:39Z</time>
      </trkpt>
      <trkpt lat="47.87456" lon="-3.90611">
        <ele>3.4</ele>
        <time>2021-08-12T12:08:40Z</time>
      </trkpt>
      <trkpt lat="47.87453" lon="-3.90604">
        <ele>3.4</ele>
        <time>2021-08-12T12:08:41Z</time>
      </trkpt>
      <trkpt lat="47.87451" lon="-3.90598">
        <ele>3.4</ele>
        <time>2021-08-12T12:08:42Z</time>
      </trkpt>
      <trkpt lat="47.87445" lon="-3.90586">
        <ele>3.6</ele>
        <time>2021-08-12T12:08:44Z</time>
      </trkpt>
      <trkpt lat="47.87442" lon="-3.9058">
        <ele>3.6</ele>
        <time>2021-08-12T12:08:45Z</time>
      </trkpt>
      <trkpt lat="47.87439" lon="-3.90575">
        <ele>3.6</ele>
        <time>2021-08-12T12:08:46Z</time>
      </trkpt>
      <trkpt lat="47.87436" lon="-3.90569">
        <ele>3.6</ele>
        <time>2021-08-12T12:08:47Z</time>
      </trkpt>
      <trkpt lat="47.87433" lon="-3.90563">
        <ele>3.6</ele>
        <time>2021-08-12T12:08:48Z</time>
      </trkpt>
      <trkpt lat="47.8743" lon="-3.90558">
        <ele>3.6</ele>
        <time>2021-08-12T12:08:49Z</time>
      </trkpt>
      <trkpt lat="47.87428" lon="-3.90553">
        <ele>3.6</ele>
        <time>2021-08-12T12:08:50Z</time>
      </trkpt>
      <trkpt lat="47.87425" lon="-3.90548">
        <ele>3.8</ele>
        <time>2021-08-12T12:08:51Z</time>
      </trkpt>
      <trkpt lat="47.87423" lon="-3.90544">
        <ele>3.8</ele>
        <time>2021-08-12T12:08:52Z</time>
      </trkpt>
      <trkpt lat="47.8742" lon="-3.90539">
        <ele>3.8</ele>
        <time>2021-08-12T12:08:53Z</time>
      </trkpt>
      <trkpt lat="47.87413" lon="-3.90531">
        <ele>3.8</ele>
        <time>2021-08-12T12:08:55Z</time>
      </trkpt>
      <trkpt lat="47.87408" lon="-3.90528">
        <ele>3.8</ele>
        <time>2021-08-12T12:08:56Z</time>
      </trkpt>
      <trkpt lat="47.87404" lon="-3.90525">
        <ele>3.8</ele>
        <time>2021-08-12T12:08:57Z</time>
      </trkpt>
      <trkpt lat="47.87399" lon="-3.90523">
        <ele>3.6</ele>
        <time>2021-08-12T12:08:58Z</time>
      </trkpt>
      <trkpt lat="47.87394" lon="-3.9052">
        <ele>3.6</ele>
        <time>2021-08-12T12:08:59Z</time>
      </trkpt>
      <trkpt lat="47.87389" lon="-3.90518">
        <ele>3.6</ele>
        <time>2021-08-12T12:09:00Z</time>
      </trkpt>
      <trkpt lat="47.87384" lon="-3.90516">
        <ele>3.6</ele>
        <time>2021-08-12T12:09:01Z</time>
      </trkpt>
      <trkpt lat="47.87379" lon="-3.90515">
        <ele>3.4</ele>
        <time>2021-08-12T12:09:02Z</time>
      </trkpt>
      <trkpt lat="47.87374" lon="-3.90514">
        <ele>3.4</ele>
        <time>2021-08-12T12:09:03Z</time>
      </trkpt>
      <trkpt lat="47.87368" lon="-3.90513">
        <ele>3.4</ele>
        <time>2021-08-12T12:09:04Z</time>
      </trkpt>
      <trkpt lat="47.87358" lon="-3.90513">
        <ele>3.4</ele>
        <time>2021-08-12T12:09:06Z</time>
      </trkpt>
      <trkpt lat="47.87353" lon="-3.90513">
        <ele>3.2</ele>
        <time>2021-08-12T12:09:07Z</time>
      </trkpt>
      <trkpt lat="47.87348" lon="-3.90514">
        <ele>3.2</ele>
        <time>2021-08-12T12:09:08Z</time>
      </trkpt>
      <trkpt lat="47.87343" lon="-3.90514">
        <ele>3</ele>
        <time>2021-08-12T12:09:09Z</time>
      </trkpt>
      <trkpt lat="47.87338" lon="-3.90515">
        <ele>3</ele>
        <time>2021-08-12T12:09:10Z</time>
      </trkpt>
      <trkpt lat="47.87334" lon="-3.90517">
        <ele>3</ele>
        <time>2021-08-12T12:09:11Z</time>
      </trkpt>
      <trkpt lat="47.8733" lon="-3.90518">
        <ele>3</ele>
        <time>2021-08-12T12:09:12Z</time>
      </trkpt>
      <trkpt lat="47.87326" lon="-3.90521">
        <ele>3</ele>
        <time>2021-08-12T12:09:13Z</time>
      </trkpt>
      <trkpt lat="47.87322" lon="-3.90523">
        <ele>3</ele>
        <time>2021-08-12T12:09:14Z</time>
      </trkpt>
      <trkpt lat="47.87318" lon="-3.90525">
        <ele>3</ele>
        <time>2021-08-12T12:09:15Z</time>
      </trkpt>
      <trkpt lat="47.87311" lon="-3.90531">
        <ele>3.2</ele>
        <time>2021-08-12T12:09:17Z</time>
      </trkpt>
      <trkpt lat="47.87308" lon="-3.90534">
        <ele>3.2</ele>
        <time>2021-08-12T12:09:18Z</time>
      </trkpt>
      <trkpt lat="47.87305" lon="-3.90537">
        <ele>3.4</ele>
        <time>2021-08-12T12:09:19Z</time>
      </trkpt>
      <trkpt lat="47.87302" lon="-3.9054">
        <ele>3.6</ele>
        <time>2021-08-12T12:09:20Z</time>
      </trkpt>
      <trkpt lat="47.87299" lon="-3.90544">
        <ele>3.8</ele>
        <time>2021-08-12T12:09:21Z</time>
      </trkpt>
      <trkpt lat="47.87296" lon="-3.90547">
        <ele>4</ele>
        <time>2021-08-12T12:09:22Z</time>
      </trkpt>
      <trkpt lat="47.87294" lon="-3.90551">
        <ele>4.4</ele>
        <time>2021-08-12T12:09:23Z</time>
      </trkpt>
      <trkpt lat="47.87291" lon="-3.90554">
        <ele>4.6</ele>
        <time>2021-08-12T12:09:24Z</time>
      </trkpt>
      <trkpt lat="47.87289" lon="-3.90558">
        <ele>4.8</ele>
        <time>2021-08-12T12:09:25Z</time>
      </trkpt>
      <trkpt lat="47.87286" lon="-3.90561">
        <ele>5.2</ele>
        <time>2021-08-12T12:09:26Z</time>
      </trkpt>
      <trkpt lat="47.87284" lon="-3.90565">
        <ele>5.6</ele>
        <time>2021-08-12T12:09:27Z</time>
      </trkpt>
      <trkpt lat="47.87281" lon="-3.90569">
        <ele>5.8</ele>
        <time>2021-08-12T12:09:28Z</time>
      </trkpt>
      <trkpt lat="47.87278" lon="-3.90572">
        <ele>6</ele>
        <time>2021-08-12T12:09:29Z</time>
      </trkpt>
      <trkpt lat="47.87276" lon="-3.90576">
        <ele>6.2</ele>
        <time>2021-08-12T12:09:30Z</time>
      </trkpt>
      <trkpt lat="47.87273" lon="-3.90579">
        <ele>6.4</ele>
        <time>2021-08-12T12:09:31Z</time>
      </trkpt>
      <trkpt lat="47.8727" lon="-3.90583">
        <ele>6.6</ele>
        <time>2021-08-12T12:09:32Z</time>
      </trkpt>
      <trkpt lat="47.87268" lon="-3.90587">
        <ele>6.6</ele>
        <time>2021-08-12T12:09:33Z</time>
      </trkpt>
      <trkpt lat="47.87265" lon="-3.90591">
        <ele>6.6</ele>
        <time>2021-08-12T12:09:34Z</time>
      </trkpt>
      <trkpt lat="47.87262" lon="-3.90595">
        <ele>6.8</ele>
        <time>2021-08-12T12:09:35Z</time>
      </trkpt>
      <trkpt lat="47.87259" lon="-3.90599">
        <ele>6.8</ele>
        <time>2021-08-12T12:09:36Z</time>
      </trkpt>
      <trkpt lat="47.87256" lon="-3.90603">
        <ele>7</ele>
        <time>2021-08-12T12:09:37Z</time>
      </trkpt>
      <trkpt lat="47.8725" lon="-3.9061">
        <ele>7.2</ele>
        <time>2021-08-12T12:09:39Z</time>
      </trkpt>
      <trkpt lat="47.87247" lon="-3.90614">
        <ele>7.4</ele>
        <time>2021-08-12T12:09:40Z</time>
      </trkpt>
      <trkpt lat="47.87244" lon="-3.90618">
        <ele>7.6</ele>
        <time>2021-08-12T12:09:41Z</time>
      </trkpt>
      <trkpt lat="47.87241" lon="-3.90622">
        <ele>7.6</ele>
        <time>2021-08-12T12:09:42Z</time>
      </trkpt>
      <trkpt lat="47.87238" lon="-3.90626">
        <ele>7.8</ele>
        <time>2021-08-12T12:09:43Z</time>
      </trkpt>
      <trkpt lat="47.87235" lon="-3.9063">
        <ele>8</ele>
        <time>2021-08-12T12:09:44Z</time>
      </trkpt>
      <trkpt lat="47.87232" lon="-3.90634">
        <ele>8.2</ele>
        <time>2021-08-12T12:09:45Z</time>
      </trkpt>
      <trkpt lat="47.87229" lon="-3.90638">
        <ele>8.4</ele>
        <time>2021-08-12T12:09:46Z</time>
      </trkpt>
      <trkpt lat="47.87226" lon="-3.90641">
        <ele>8.4</ele>
        <time>2021-08-12T12:09:47Z</time>
      </trkpt>
      <trkpt lat="47.87224" lon="-3.90644">
        <ele>8.6</ele>
        <time>2021-08-12T12:09:48Z</time>
      </trkpt>
      <trkpt lat="47.87223" lon="-3.90647">
        <ele>8.6</ele>
        <time>2021-08-12T12:09:49Z</time>
      </trkpt>
      <trkpt lat="47.87223" lon="-3.90648">
        <ele>8.8</ele>
        <time>2021-08-12T12:09:50Z</time>
      </trkpt>
      <trkpt lat="47.87224" lon="-3.90649">
        <ele>9</ele>
        <time>2021-08-12T12:09:51Z</time>
      </trkpt>
      <trkpt lat="47.87225" lon="-3.9065">
        <ele>9.4</ele>
        <time>2021-08-12T12:09:52Z</time>
      </trkpt>
      <trkpt lat="47.87226" lon="-3.90652">
        <ele>9.6</ele>
        <time>2021-08-12T12:09:53Z</time>
      </trkpt>
      <trkpt lat="47.87229" lon="-3.90654">
        <ele>9.8</ele>
        <time>2021-08-12T12:09:54Z</time>
      </trkpt>
      <trkpt lat="47.87233" lon="-3.90656">
        <ele>9.8</ele>
        <time>2021-08-12T12:09:55Z</time>
      </trkpt>
      <trkpt lat="47.87237" lon="-3.90658">
        <ele>9.8</ele>
        <time>2021-08-12T12:09:56Z</time>
      </trkpt>
      <trkpt lat="47.87241" lon="-3.90661">
        <ele>9.8</ele>
        <time>2021-08-12T12:09:57Z</time>
      </trkpt>
      <trkpt lat="47.87245" lon="-3.90665">
        <ele>9.8</ele>
        <time>2021-08-12T12:09:58Z</time>
      </trkpt>
      <trkpt lat="47.87249" lon="-3.90669">
        <ele>9.8</ele>
        <time>2021-08-12T12:09:59Z</time>
      </trkpt>
      <trkpt lat="47.87254" lon="-3.90683">
        <ele>9.8</ele>
        <time>2021-08-12T12:10:01Z</time>
      </trkpt>
      <trkpt lat="47.87254" lon="-3.9069">
        <ele>9.8</ele>
        <time>2021-08-12T12:10:02Z</time>
      </trkpt>
      <trkpt lat="47.87253" lon="-3.90696">
        <ele>9.4</ele>
        <time>2021-08-12T12:10:03Z</time>
      </trkpt>
      <trkpt lat="47.87251" lon="-3.90701">
        <ele>8.8</ele>
        <time>2021-08-12T12:10:04Z</time>
      </trkpt>
      <trkpt lat="47.87249" lon="-3.90704">
        <ele>8.6</ele>
        <time>2021-08-12T12:10:05Z</time>
      </trkpt>
      <trkpt lat="47.87248" lon="-3.90708">
        <ele>8.4</ele>
        <time>2021-08-12T12:10:06Z</time>
      </trkpt>
      <trkpt lat="47.87246" lon="-3.9071">
        <ele>8.4</ele>
        <time>2021-08-12T12:10:07Z</time>
      </trkpt>
      <trkpt lat="47.87245" lon="-3.90713">
        <ele>8.4</ele>
        <time>2021-08-12T12:10:08Z</time>
      </trkpt>
      <trkpt lat="47.87243" lon="-3.90715">
        <ele>8.4</ele>
        <time>2021-08-12T12:10:09Z</time>
      </trkpt>
      <trkpt lat="47.87242" lon="-3.90718">
        <ele>8.4</ele>
        <time>2021-08-12T12:10:10Z</time>
      </trkpt>
      <trkpt lat="47.87239" lon="-3.90722">
        <ele>8.4</ele>
        <time>2021-08-12T12:10:12Z</time>
      </trkpt>
      <trkpt lat="47.87238" lon="-3.90723">
        <ele>8.4</ele>
        <time>2021-08-12T12:10:13Z</time>
      </trkpt>
      <trkpt lat="47.87237" lon="-3.90724">
        <ele>8.6</ele>
        <time>2021-08-12T12:10:14Z</time>
      </trkpt>
      <trkpt lat="47.87235" lon="-3.90724">
        <ele>8.8</ele>
        <time>2021-08-12T12:10:15Z</time>
      </trkpt>
      <trkpt lat="47.87234" lon="-3.90725">
        <ele>9</ele>
        <time>2021-08-12T12:10:16Z</time>
      </trkpt>
      <trkpt lat="47.87232" lon="-3.90725">
        <ele>9</ele>
        <time>2021-08-12T12:10:17Z</time>
      </trkpt>
      <trkpt lat="47.8723" lon="-3.90725">
        <ele>9.2</ele>
        <time>2021-08-12T12:10:18Z</time>
      </trkpt>
      <trkpt lat="47.87228" lon="-3.90725">
        <ele>9.4</ele>
        <time>2021-08-12T12:10:19Z</time>
      </trkpt>
      <trkpt lat="47.87227" lon="-3.90725">
        <ele>9.8</ele>
        <time>2021-08-12T12:10:20Z</time>
      </trkpt>
      <trkpt lat="47.87225" lon="-3.90725">
        <ele>10.2</ele>
        <time>2021-08-12T12:10:21Z</time>
      </trkpt>
      <trkpt lat="47.87221" lon="-3.90726">
        <ele>10.6</ele>
        <time>2021-08-12T12:10:23Z</time>
      </trkpt>
      <trkpt lat="47.87219" lon="-3.90726">
        <ele>10.8</ele>
        <time>2021-08-12T12:10:24Z</time>
      </trkpt>
      <trkpt lat="47.87218" lon="-3.90727">
        <ele>11</ele>
        <time>2021-08-12T12:10:25Z</time>
      </trkpt>
      <trkpt lat="47.87216" lon="-3.90727">
        <ele>11</ele>
        <time>2021-08-12T12:10:26Z</time>
      </trkpt>
      <trkpt lat="47.87214" lon="-3.90728">
        <ele>11</ele>
        <time>2021-08-12T12:10:27Z</time>
      </trkpt>
      <trkpt lat="47.87212" lon="-3.90728">
        <ele>11.2</ele>
        <time>2021-08-12T12:10:28Z</time>
      </trkpt>
      <trkpt lat="47.8721" lon="-3.90729">
        <ele>11.2</ele>
        <time>2021-08-12T12:10:29Z</time>
      </trkpt>
      <trkpt lat="47.87208" lon="-3.90729">
        <ele>11.4</ele>
        <time>2021-08-12T12:10:30Z</time>
      </trkpt>
      <trkpt lat="47.87205" lon="-3.9073">
        <ele>11.4</ele>
        <time>2021-08-12T12:10:31Z</time>
      </trkpt>
      <trkpt lat="47.87203" lon="-3.90731">
        <ele>11.4</ele>
        <time>2021-08-12T12:10:32Z</time>
      </trkpt>
      <trkpt lat="47.87199" lon="-3.90732">
        <ele>11.6</ele>
        <time>2021-08-12T12:10:34Z</time>
      </trkpt>
      <trkpt lat="47.87197" lon="-3.90733">
        <ele>11.8</ele>
        <time>2021-08-12T12:10:35Z</time>
      </trkpt>
      <trkpt lat="47.87196" lon="-3.90734">
        <ele>11.8</ele>
        <time>2021-08-12T12:10:36Z</time>
      </trkpt>
      <trkpt lat="47.87195" lon="-3.90736">
        <ele>11.8</ele>
        <time>2021-08-12T12:10:37Z</time>
      </trkpt>
      <trkpt lat="47.87194" lon="-3.90738">
        <ele>12</ele>
        <time>2021-08-12T12:10:38Z</time>
      </trkpt>
      <trkpt lat="47.87194" lon="-3.90741">
        <ele>12</ele>
        <time>2021-08-12T12:10:39Z</time>
      </trkpt>
      <trkpt lat="47.87194" lon="-3.90744">
        <ele>12</ele>
        <time>2021-08-12T12:10:40Z</time>
      </trkpt>
      <trkpt lat="47.87194" lon="-3.90748">
        <ele>12</ele>
        <time>2021-08-12T12:10:41Z</time>
      </trkpt>
      <trkpt lat="47.87194" lon="-3.90753">
        <ele>12</ele>
        <time>2021-08-12T12:10:42Z</time>
      </trkpt>
      <trkpt lat="47.87194" lon="-3.90757">
        <ele>11.8</ele>
        <time>2021-08-12T12:10:43Z</time>
      </trkpt>
      <trkpt lat="47.87194" lon="-3.90768">
        <ele>11.8</ele>
        <time>2021-08-12T12:10:45Z</time>
      </trkpt>
      <trkpt lat="47.87194" lon="-3.90774">
        <ele>11.8</ele>
        <time>2021-08-12T12:10:46Z</time>
      </trkpt>
      <trkpt lat="47.87194" lon="-3.9078">
        <ele>11.8</ele>
        <time>2021-08-12T12:10:47Z</time>
      </trkpt>
      <trkpt lat="47.87195" lon="-3.90786">
        <ele>11.8</ele>
        <time>2021-08-12T12:10:48Z</time>
      </trkpt>
      <trkpt lat="47.87195" lon="-3.90792">
        <ele>11.8</ele>
        <time>2021-08-12T12:10:49Z</time>
      </trkpt>
      <trkpt lat="47.87196" lon="-3.90799">
        <ele>11.8</ele>
        <time>2021-08-12T12:10:50Z</time>
      </trkpt>
      <trkpt lat="47.87196" lon="-3.90805">
        <ele>11.6</ele>
        <time>2021-08-12T12:10:51Z</time>
      </trkpt>
      <trkpt lat="47.87197" lon="-3.90812">
        <ele>11.6</ele>
        <time>2021-08-12T12:10:52Z</time>
      </trkpt>
      <trkpt lat="47.87198" lon="-3.9082">
        <ele>11.4</ele>
        <time>2021-08-12T12:10:53Z</time>
      </trkpt>
      <trkpt lat="47.87199" lon="-3.90827">
        <ele>11.4</ele>
        <time>2021-08-12T12:10:54Z</time>
      </trkpt>
      <trkpt lat="47.872" lon="-3.90835">
        <ele>11.2</ele>
        <time>2021-08-12T12:10:55Z</time>
      </trkpt>
      <trkpt lat="47.87202" lon="-3.90843">
        <ele>11.2</ele>
        <time>2021-08-12T12:10:56Z</time>
      </trkpt>
      <trkpt lat="47.87203" lon="-3.90851">
        <ele>11.2</ele>
        <time>2021-08-12T12:10:57Z</time>
      </trkpt>
      <trkpt lat="47.87204" lon="-3.90859">
        <ele>11</ele>
        <time>2021-08-12T12:10:58Z</time>
      </trkpt>
      <trkpt lat="47.87205" lon="-3.90868">
        <ele>11</ele>
        <time>2021-08-12T12:10:59Z</time>
      </trkpt>
      <trkpt lat="47.87206" lon="-3.90877">
        <ele>10.8</ele>
        <time>2021-08-12T12:11:00Z</time>
      </trkpt>
      <trkpt lat="47.87207" lon="-3.90885">
        <ele>10.4</ele>
        <time>2021-08-12T12:11:01Z</time>
      </trkpt>
      <trkpt lat="47.87208" lon="-3.90893">
        <ele>10.2</ele>
        <time>2021-08-12T12:11:02Z</time>
      </trkpt>
      <trkpt lat="47.87209" lon="-3.909">
        <ele>10.2</ele>
        <time>2021-08-12T12:11:03Z</time>
      </trkpt>
      <trkpt lat="47.87209" lon="-3.90908">
        <ele>10</ele>
        <time>2021-08-12T12:11:04Z</time>
      </trkpt>
      <trkpt lat="47.8721" lon="-3.90915">
        <ele>9.8</ele>
        <time>2021-08-12T12:11:05Z</time>
      </trkpt>
      <trkpt lat="47.87212" lon="-3.90929">
        <ele>9.4</ele>
        <time>2021-08-12T12:11:07Z</time>
      </trkpt>
      <trkpt lat="47.87215" lon="-3.90934">
        <ele>9.2</ele>
        <time>2021-08-12T12:11:08Z</time>
      </trkpt>
      <trkpt lat="47.87218" lon="-3.90939">
        <ele>9.2</ele>
        <time>2021-08-12T12:11:09Z</time>
      </trkpt>
      <trkpt lat="47.87221" lon="-3.90942">
        <ele>9</ele>
        <time>2021-08-12T12:11:10Z</time>
      </trkpt>
      <trkpt lat="47.87224" lon="-3.90945">
        <ele>9</ele>
        <time>2021-08-12T12:11:11Z</time>
      </trkpt>
      <trkpt lat="47.87226" lon="-3.90949">
        <ele>8.8</ele>
        <time>2021-08-12T12:11:12Z</time>
      </trkpt>
      <trkpt lat="47.87227" lon="-3.90954">
        <ele>8.8</ele>
        <time>2021-08-12T12:11:13Z</time>
      </trkpt>
      <trkpt lat="47.87226" lon="-3.90959">
        <ele>8.8</ele>
        <time>2021-08-12T12:11:14Z</time>
      </trkpt>
      <trkpt lat="47.87225" lon="-3.90964">
        <ele>8.8</ele>
        <time>2021-08-12T12:11:15Z</time>
      </trkpt>
      <trkpt lat="47.87223" lon="-3.90968">
        <ele>8.6</ele>
        <time>2021-08-12T12:11:16Z</time>
      </trkpt>
      <trkpt lat="47.8722" lon="-3.90975">
        <ele>8.6</ele>
        <time>2021-08-12T12:11:18Z</time>
      </trkpt>
      <trkpt lat="47.87219" lon="-3.90977">
        <ele>8.4</ele>
        <time>2021-08-12T12:11:19Z</time>
      </trkpt>
      <trkpt lat="47.87218" lon="-3.90978">
        <ele>8.4</ele>
        <time>2021-08-12T12:11:20Z</time>
      </trkpt>
      <trkpt lat="47.87218" lon="-3.90979">
        <ele>7.4</ele>
        <time>2021-08-12T12:11:22Z</time>
      </trkpt>
      <trkpt lat="47.87218" lon="-3.90979">
        <ele>7.2</ele>
        <time>2021-08-12T12:11:23Z</time>
      </trkpt>
      <trkpt lat="47.87217" lon="-3.90981">
        <ele>6.8</ele>
        <time>2021-08-12T12:12:12Z</time>
      </trkpt>
      <trkpt lat="47.87216" lon="-3.90982">
        <ele>6.8</ele>
        <time>2021-08-12T12:12:13Z</time>
      </trkpt>
      <trkpt lat="47.87213" lon="-3.90984">
        <ele>6.8</ele>
        <time>2021-08-12T12:12:15Z</time>
      </trkpt>
      <trkpt lat="47.87212" lon="-3.90982">
        <ele>7</ele>
        <time>2021-08-12T12:12:17Z</time>
      </trkpt>
      <trkpt lat="47.87211" lon="-3.90981">
        <ele>7</ele>
        <time>2021-08-12T12:12:18Z</time>
      </trkpt>
      <trkpt lat="47.87211" lon="-3.9098">
        <ele>7</ele>
        <time>2021-08-12T12:12:19Z</time>
      </trkpt>
      <trkpt lat="47.8721" lon="-3.90979">
        <ele>7</ele>
        <time>2021-08-12T12:12:20Z</time>
      </trkpt>
      <trkpt lat="47.8721" lon="-3.90978">
        <ele>7</ele>
        <time>2021-08-12T12:12:21Z</time>
      </trkpt>
      <trkpt lat="47.87211" lon="-3.90977">
        <ele>7</ele>
        <time>2021-08-12T12:12:22Z</time>
      </trkpt>
      <trkpt lat="47.87212" lon="-3.90977">
        <ele>7</ele>
        <time>2021-08-12T12:12:23Z</time>
      </trkpt>
      <trkpt lat="47.87214" lon="-3.90978">
        <ele>7</ele>
        <time>2021-08-12T12:12:24Z</time>
      </trkpt>
      <trkpt lat="47.87215" lon="-3.90978">
        <ele>7</ele>
        <time>2021-08-12T12:12:25Z</time>
      </trkpt>
      <trkpt lat="47.87217" lon="-3.90979">
        <ele>7</ele>
        <time>2021-08-12T12:12:26Z</time>
      </trkpt>
      <trkpt lat="47.87217" lon="-3.90981">
        <ele>7</ele>
        <time>2021-08-12T12:12:27Z</time>
      </trkpt>
      <trkpt lat="47.87215" lon="-3.90983">
        <ele>7</ele>
        <time>2021-08-12T12:12:28Z</time>
      </trkpt>
      <trkpt lat="47.87213" lon="-3.90983">
        <ele>7</ele>
        <time>2021-08-12T12:12:29Z</time>
      </trkpt>
      <trkpt lat="47.87212" lon="-3.90983">
        <ele>7</ele>
        <time>2021-08-12T12:12:30Z</time>
      </trkpt>
      <trkpt lat="47.8721" lon="-3.90982">
        <ele>7</ele>
        <time>2021-08-12T12:12:31Z</time>
      </trkpt>
      <trkpt lat="47.87208" lon="-3.9098">
        <ele>7</ele>
        <time>2021-08-12T12:12:32Z</time>
      </trkpt>
      <trkpt lat="47.87205" lon="-3.90976">
        <ele>7.2</ele>
        <time>2021-08-12T12:12:34Z</time>
      </trkpt>
      <trkpt lat="47.87204" lon="-3.90974">
        <ele>7.2</ele>
        <time>2021-08-12T12:12:35Z</time>
      </trkpt>
      <trkpt lat="47.87203" lon="-3.90971">
        <ele>7.2</ele>
        <time>2021-08-12T12:12:36Z</time>
      </trkpt>
      <trkpt lat="47.87201" lon="-3.90969">
        <ele>7.2</ele>
        <time>2021-08-12T12:12:37Z</time>
      </trkpt>
      <trkpt lat="47.87199" lon="-3.90968">
        <ele>7.4</ele>
        <time>2021-08-12T12:12:38Z</time>
      </trkpt>
      <trkpt lat="47.87198" lon="-3.90966">
        <ele>7.4</ele>
        <time>2021-08-12T12:12:39Z</time>
      </trkpt>
      <trkpt lat="47.87196" lon="-3.90963">
        <ele>7.4</ele>
        <time>2021-08-12T12:12:40Z</time>
      </trkpt>
      <trkpt lat="47.87194" lon="-3.90961">
        <ele>7.6</ele>
        <time>2021-08-12T12:12:41Z</time>
      </trkpt>
      <trkpt lat="47.87192" lon="-3.90959">
        <ele>7.6</ele>
        <time>2021-08-12T12:12:42Z</time>
      </trkpt>
      <trkpt lat="47.87191" lon="-3.90956">
        <ele>7.6</ele>
        <time>2021-08-12T12:12:43Z</time>
      </trkpt>
      <trkpt lat="47.87187" lon="-3.9095">
        <ele>7.8</ele>
        <time>2021-08-12T12:12:45Z</time>
      </trkpt>
      <trkpt lat="47.87185" lon="-3.90948">
        <ele>7.8</ele>
        <time>2021-08-12T12:12:46Z</time>
      </trkpt>
      <trkpt lat="47.87184" lon="-3.90945">
        <ele>7.8</ele>
        <time>2021-08-12T12:12:47Z</time>
      </trkpt>
      <trkpt lat="47.87182" lon="-3.90943">
        <ele>7.8</ele>
        <time>2021-08-12T12:12:48Z</time>
      </trkpt>
      <trkpt lat="47.8718" lon="-3.9094">
        <ele>7.8</ele>
        <time>2021-08-12T12:12:49Z</time>
      </trkpt>
      <trkpt lat="47.87178" lon="-3.90937">
        <ele>8</ele>
        <time>2021-08-12T12:12:50Z</time>
      </trkpt>
      <trkpt lat="47.87177" lon="-3.90934">
        <ele>8</ele>
        <time>2021-08-12T12:12:51Z</time>
      </trkpt>
      <trkpt lat="47.87174" lon="-3.90933">
        <ele>8</ele>
        <time>2021-08-12T12:12:52Z</time>
      </trkpt>
      <trkpt lat="47.87172" lon="-3.9093">
        <ele>8</ele>
        <time>2021-08-12T12:12:53Z</time>
      </trkpt>
      <trkpt lat="47.8717" lon="-3.90928">
        <ele>8.2</ele>
        <time>2021-08-12T12:12:54Z</time>
      </trkpt>
      <trkpt lat="47.87165" lon="-3.90922">
        <ele>8.4</ele>
        <time>2021-08-12T12:12:56Z</time>
      </trkpt>
      <trkpt lat="47.87163" lon="-3.90919">
        <ele>8.4</ele>
        <time>2021-08-12T12:12:57Z</time>
      </trkpt>
      <trkpt lat="47.87161" lon="-3.90916">
        <ele>8.4</ele>
        <time>2021-08-12T12:12:58Z</time>
      </trkpt>
      <trkpt lat="47.87159" lon="-3.90913">
        <ele>8.4</ele>
        <time>2021-08-12T12:12:59Z</time>
      </trkpt>
      <trkpt lat="47.87157" lon="-3.9091">
        <ele>8.4</ele>
        <time>2021-08-12T12:13:00Z</time>
      </trkpt>
      <trkpt lat="47.87155" lon="-3.90907">
        <ele>8.4</ele>
        <time>2021-08-12T12:13:01Z</time>
      </trkpt>
      <trkpt lat="47.87153" lon="-3.90904">
        <ele>8.6</ele>
        <time>2021-08-12T12:13:02Z</time>
      </trkpt>
      <trkpt lat="47.87151" lon="-3.90902">
        <ele>8.6</ele>
        <time>2021-08-12T12:13:03Z</time>
      </trkpt>
      <trkpt lat="47.87149" lon="-3.90899">
        <ele>8.6</ele>
        <time>2021-08-12T12:13:04Z</time>
      </trkpt>
      <trkpt lat="47.87147" lon="-3.90896">
        <ele>8.6</ele>
        <time>2021-08-12T12:13:05Z</time>
      </trkpt>
      <trkpt lat="47.87143" lon="-3.90891">
        <ele>8.6</ele>
        <time>2021-08-12T12:13:07Z</time>
      </trkpt>
      <trkpt lat="47.87141" lon="-3.90887">
        <ele>8.8</ele>
        <time>2021-08-12T12:13:08Z</time>
      </trkpt>
      <trkpt lat="47.87139" lon="-3.90884">
        <ele>8.8</ele>
        <time>2021-08-12T12:13:09Z</time>
      </trkpt>
      <trkpt lat="47.87138" lon="-3.90881">
        <ele>9</ele>
        <time>2021-08-12T12:13:10Z</time>
      </trkpt>
      <trkpt lat="47.87136" lon="-3.90878">
        <ele>9.2</ele>
        <time>2021-08-12T12:13:11Z</time>
      </trkpt>
      <trkpt lat="47.87135" lon="-3.90875">
        <ele>9.4</ele>
        <time>2021-08-12T12:13:12Z</time>
      </trkpt>
      <trkpt lat="47.87134" lon="-3.90872">
        <ele>9.4</ele>
        <time>2021-08-12T12:13:13Z</time>
      </trkpt>
      <trkpt lat="47.87132" lon="-3.90869">
        <ele>9.6</ele>
        <time>2021-08-12T12:13:14Z</time>
      </trkpt>
      <trkpt lat="47.8713" lon="-3.90866">
        <ele>9.6</ele>
        <time>2021-08-12T12:13:15Z</time>
      </trkpt>
      <trkpt lat="47.87129" lon="-3.90863">
        <ele>9.8</ele>
        <time>2021-08-12T12:13:16Z</time>
      </trkpt>
      <trkpt lat="47.87126" lon="-3.90859">
        <ele>10</ele>
        <time>2021-08-12T12:13:18Z</time>
      </trkpt>
      <trkpt lat="47.87125" lon="-3.90856">
        <ele>10.2</ele>
        <time>2021-08-12T12:13:19Z</time>
      </trkpt>
      <trkpt lat="47.87124" lon="-3.90854">
        <ele>10.2</ele>
        <time>2021-08-12T12:13:20Z</time>
      </trkpt>
      <trkpt lat="47.87123" lon="-3.90851">
        <ele>10.6</ele>
        <time>2021-08-12T12:13:21Z</time>
      </trkpt>
      <trkpt lat="47.87121" lon="-3.90848">
        <ele>10.6</ele>
        <time>2021-08-12T12:13:22Z</time>
      </trkpt>
      <trkpt lat="47.8712" lon="-3.90845">
        <ele>10.8</ele>
        <time>2021-08-12T12:13:23Z</time>
      </trkpt>
      <trkpt lat="47.87119" lon="-3.90842">
        <ele>11</ele>
        <time>2021-08-12T12:13:24Z</time>
      </trkpt>
      <trkpt lat="47.87117" lon="-3.9084">
        <ele>11</ele>
        <time>2021-08-12T12:13:25Z</time>
      </trkpt>
      <trkpt lat="47.87115" lon="-3.90837">
        <ele>11.2</ele>
        <time>2021-08-12T12:13:26Z</time>
      </trkpt>
      <trkpt lat="47.87114" lon="-3.90835">
        <ele>11.2</ele>
        <time>2021-08-12T12:13:27Z</time>
      </trkpt>
      <trkpt lat="47.87111" lon="-3.9083">
        <ele>11.4</ele>
        <time>2021-08-12T12:13:29Z</time>
      </trkpt>
      <trkpt lat="47.8711" lon="-3.90828">
        <ele>11.6</ele>
        <time>2021-08-12T12:13:30Z</time>
      </trkpt>
      <trkpt lat="47.87109" lon="-3.90825">
        <ele>11.6</ele>
        <time>2021-08-12T12:13:31Z</time>
      </trkpt>
      <trkpt lat="47.87108" lon="-3.90823">
        <ele>11.8</ele>
        <time>2021-08-12T12:13:32Z</time>
      </trkpt>
      <trkpt lat="47.87107" lon="-3.9082">
        <ele>12</ele>
        <time>2021-08-12T12:13:33Z</time>
      </trkpt>
      <trkpt lat="47.87105" lon="-3.90818">
        <ele>12.4</ele>
        <time>2021-08-12T12:13:34Z</time>
      </trkpt>
      <trkpt lat="47.87104" lon="-3.90815">
        <ele>12.6</ele>
        <time>2021-08-12T12:13:35Z</time>
      </trkpt>
      <trkpt lat="47.87102" lon="-3.90813">
        <ele>12.6</ele>
        <time>2021-08-12T12:13:36Z</time>
      </trkpt>
      <trkpt lat="47.87101" lon="-3.90811">
        <ele>12.8</ele>
        <time>2021-08-12T12:13:37Z</time>
      </trkpt>
      <trkpt lat="47.871" lon="-3.9081">
        <ele>13</ele>
        <time>2021-08-12T12:13:38Z</time>
      </trkpt>
      <trkpt lat="47.87098" lon="-3.90806">
        <ele>13.2</ele>
        <time>2021-08-12T12:13:40Z</time>
      </trkpt>
      <trkpt lat="47.87096" lon="-3.90804">
        <ele>13.4</ele>
        <time>2021-08-12T12:13:41Z</time>
      </trkpt>
      <trkpt lat="47.87096" lon="-3.90802">
        <ele>13.6</ele>
        <time>2021-08-12T12:13:42Z</time>
      </trkpt>
      <trkpt lat="47.87095" lon="-3.90799">
        <ele>13.8</ele>
        <time>2021-08-12T12:13:43Z</time>
      </trkpt>
      <trkpt lat="47.87094" lon="-3.90797">
        <ele>13.8</ele>
        <time>2021-08-12T12:13:44Z</time>
      </trkpt>
      <trkpt lat="47.87092" lon="-3.90795">
        <ele>14</ele>
        <time>2021-08-12T12:13:45Z</time>
      </trkpt>
      <trkpt lat="47.8709" lon="-3.90793">
        <ele>14.4</ele>
        <time>2021-08-12T12:13:46Z</time>
      </trkpt>
      <trkpt lat="47.87089" lon="-3.9079">
        <ele>14.6</ele>
        <time>2021-08-12T12:13:47Z</time>
      </trkpt>
      <trkpt lat="47.87087" lon="-3.90788">
        <ele>14.8</ele>
        <time>2021-08-12T12:13:48Z</time>
      </trkpt>
      <trkpt lat="47.87086" lon="-3.90786">
        <ele>15.2</ele>
        <time>2021-08-12T12:13:49Z</time>
      </trkpt>
      <trkpt lat="47.87085" lon="-3.90783">
        <ele>15.2</ele>
        <time>2021-08-12T12:13:50Z</time>
      </trkpt>
      <trkpt lat="47.87084" lon="-3.9078">
        <ele>15.4</ele>
        <time>2021-08-12T12:13:51Z</time>
      </trkpt>
      <trkpt lat="47.87083" lon="-3.90778">
        <ele>15.6</ele>
        <time>2021-08-12T12:13:52Z</time>
      </trkpt>
      <trkpt lat="47.87081" lon="-3.90776">
        <ele>15.8</ele>
        <time>2021-08-12T12:13:53Z</time>
      </trkpt>
      <trkpt lat="47.8708" lon="-3.90774">
        <ele>16</ele>
        <time>2021-08-12T12:13:54Z</time>
      </trkpt>
      <trkpt lat="47.8708" lon="-3.90771">
        <ele>16.2</ele>
        <time>2021-08-12T12:13:55Z</time>
      </trkpt>
      <trkpt lat="47.87079" lon="-3.90768">
        <ele>16.4</ele>
        <time>2021-08-12T12:13:56Z</time>
      </trkpt>
      <trkpt lat="47.87079" lon="-3.90765">
        <ele>16.6</ele>
        <time>2021-08-12T12:13:57Z</time>
      </trkpt>
      <trkpt lat="47.87079" lon="-3.90762">
        <ele>16.6</ele>
        <time>2021-08-12T12:13:58Z</time>
      </trkpt>
      <trkpt lat="47.87078" lon="-3.90759">
        <ele>16.8</ele>
        <time>2021-08-12T12:13:59Z</time>
      </trkpt>
      <trkpt lat="47.87078" lon="-3.90756">
        <ele>17.2</ele>
        <time>2021-08-12T12:14:00Z</time>
      </trkpt>
      <trkpt lat="47.87075" lon="-3.90751">
        <ele>17.6</ele>
        <time>2021-08-12T12:14:02Z</time>
      </trkpt>
      <trkpt lat="47.87074" lon="-3.90749">
        <ele>17.8</ele>
        <time>2021-08-12T12:14:03Z</time>
      </trkpt>
      <trkpt lat="47.87072" lon="-3.90747">
        <ele>18</ele>
        <time>2021-08-12T12:14:04Z</time>
      </trkpt>
      <trkpt lat="47.87069" lon="-3.90745">
        <ele>18.2</ele>
        <time>2021-08-12T12:14:05Z</time>
      </trkpt>
      <trkpt lat="47.87067" lon="-3.90743">
        <ele>18.6</ele>
        <time>2021-08-12T12:14:06Z</time>
      </trkpt>
      <trkpt lat="47.87065" lon="-3.90742">
        <ele>18.8</ele>
        <time>2021-08-12T12:14:07Z</time>
      </trkpt>
      <trkpt lat="47.87063" lon="-3.9074">
        <ele>19</ele>
        <time>2021-08-12T12:14:08Z</time>
      </trkpt>
      <trkpt lat="47.87061" lon="-3.90738">
        <ele>19.2</ele>
        <time>2021-08-12T12:14:09Z</time>
      </trkpt>
      <trkpt lat="47.87058" lon="-3.90735">
        <ele>19.4</ele>
        <time>2021-08-12T12:14:10Z</time>
      </trkpt>
      <trkpt lat="47.87056" lon="-3.90733">
        <ele>19.4</ele>
        <time>2021-08-12T12:14:11Z</time>
      </trkpt>
      <trkpt lat="47.87054" lon="-3.90731">
        <ele>19.6</ele>
        <time>2021-08-12T12:14:12Z</time>
      </trkpt>
      <trkpt lat="47.87052" lon="-3.90729">
        <ele>19.8</ele>
        <time>2021-08-12T12:14:13Z</time>
      </trkpt>
      <trkpt lat="47.87051" lon="-3.90726">
        <ele>19.8</ele>
        <time>2021-08-12T12:14:14Z</time>
      </trkpt>
      <trkpt lat="47.87049" lon="-3.90724">
        <ele>20</ele>
        <time>2021-08-12T12:14:15Z</time>
      </trkpt>
      <trkpt lat="47.87047" lon="-3.90721">
        <ele>20.2</ele>
        <time>2021-08-12T12:14:16Z</time>
      </trkpt>
      <trkpt lat="47.87046" lon="-3.90719">
        <ele>20.2</ele>
        <time>2021-08-12T12:14:17Z</time>
      </trkpt>
      <trkpt lat="47.87044" lon="-3.90716">
        <ele>20.2</ele>
        <time>2021-08-12T12:14:18Z</time>
      </trkpt>
      <trkpt lat="47.87042" lon="-3.90714">
        <ele>20.2</ele>
        <time>2021-08-12T12:14:19Z</time>
      </trkpt>
      <trkpt lat="47.8704" lon="-3.90711">
        <ele>20.4</ele>
        <time>2021-08-12T12:14:20Z</time>
      </trkpt>
      <trkpt lat="47.87039" lon="-3.90709">
        <ele>20.4</ele>
        <time>2021-08-12T12:14:21Z</time>
      </trkpt>
      <trkpt lat="47.87037" lon="-3.90706">
        <ele>20.6</ele>
        <time>2021-08-12T12:14:22Z</time>
      </trkpt>
      <trkpt lat="47.87034" lon="-3.907">
        <ele>20.8</ele>
        <time>2021-08-12T12:14:24Z</time>
      </trkpt>
      <trkpt lat="47.87033" lon="-3.90698">
        <ele>20.8</ele>
        <time>2021-08-12T12:14:25Z</time>
      </trkpt>
      <trkpt lat="47.87031" lon="-3.90695">
        <ele>20.8</ele>
        <time>2021-08-12T12:14:26Z</time>
      </trkpt>
      <trkpt lat="47.8703" lon="-3.90692">
        <ele>20.8</ele>
        <time>2021-08-12T12:14:27Z</time>
      </trkpt>
      <trkpt lat="47.87028" lon="-3.9069">
        <ele>21</ele>
        <time>2021-08-12T12:14:28Z</time>
      </trkpt>
      <trkpt lat="47.87027" lon="-3.90687">
        <ele>21</ele>
        <time>2021-08-12T12:14:29Z</time>
      </trkpt>
      <trkpt lat="47.87025" lon="-3.90684">
        <ele>21.2</ele>
        <time>2021-08-12T12:14:30Z</time>
      </trkpt>
      <trkpt lat="47.87023" lon="-3.90681">
        <ele>21.2</ele>
        <time>2021-08-12T12:14:31Z</time>
      </trkpt>
      <trkpt lat="47.87022" lon="-3.90679">
        <ele>21.4</ele>
        <time>2021-08-12T12:14:32Z</time>
      </trkpt>
      <trkpt lat="47.8702" lon="-3.90676">
        <ele>21.4</ele>
        <time>2021-08-12T12:14:33Z</time>
      </trkpt>
      <trkpt lat="47.87018" lon="-3.9067">
        <ele>21.4</ele>
        <time>2021-08-12T12:14:35Z</time>
      </trkpt>
      <trkpt lat="47.87016" lon="-3.90667">
        <ele>21.6</ele>
        <time>2021-08-12T12:14:36Z</time>
      </trkpt>
      <trkpt lat="47.87014" lon="-3.90664">
        <ele>21.6</ele>
        <time>2021-08-12T12:14:37Z</time>
      </trkpt>
      <trkpt lat="47.87012" lon="-3.9066">
        <ele>21.8</ele>
        <time>2021-08-12T12:14:38Z</time>
      </trkpt>
      <trkpt lat="47.87011" lon="-3.90657">
        <ele>21.8</ele>
        <time>2021-08-12T12:14:39Z</time>
      </trkpt>
      <trkpt lat="47.87008" lon="-3.90654">
        <ele>21.8</ele>
        <time>2021-08-12T12:14:40Z</time>
      </trkpt>
      <trkpt lat="47.87006" lon="-3.9065">
        <ele>22</ele>
        <time>2021-08-12T12:14:41Z</time>
      </trkpt>
      <trkpt lat="47.87004" lon="-3.90647">
        <ele>22</ele>
        <time>2021-08-12T12:14:42Z</time>
      </trkpt>
      <trkpt lat="47.87001" lon="-3.90643">
        <ele>22</ele>
        <time>2021-08-12T12:14:43Z</time>
      </trkpt>
      <trkpt lat="47.86998" lon="-3.90639">
        <ele>22</ele>
        <time>2021-08-12T12:14:44Z</time>
      </trkpt>
      <trkpt lat="47.86995" lon="-3.90635">
        <ele>22</ele>
        <time>2021-08-12T12:14:45Z</time>
      </trkpt>
      <trkpt lat="47.86992" lon="-3.9063">
        <ele>22</ele>
        <time>2021-08-12T12:14:46Z</time>
      </trkpt>
      <trkpt lat="47.86989" lon="-3.90625">
        <ele>22</ele>
        <time>2021-08-12T12:14:47Z</time>
      </trkpt>
      <trkpt lat="47.86987" lon="-3.90619">
        <ele>22</ele>
        <time>2021-08-12T12:14:48Z</time>
      </trkpt>
      <trkpt lat="47.86986" lon="-3.90611">
        <ele>22</ele>
        <time>2021-08-12T12:14:49Z</time>
      </trkpt>
      <trkpt lat="47.86987" lon="-3.90604">
        <ele>22</ele>
        <time>2021-08-12T12:14:50Z</time>
      </trkpt>
      <trkpt lat="47.8699" lon="-3.90598">
        <ele>21.8</ele>
        <time>2021-08-12T12:14:51Z</time>
      </trkpt>
      <trkpt lat="47.86993" lon="-3.90592">
        <ele>21.8</ele>
        <time>2021-08-12T12:14:52Z</time>
      </trkpt>
      <trkpt lat="47.86996" lon="-3.90586">
        <ele>21.4</ele>
        <time>2021-08-12T12:14:53Z</time>
      </trkpt>
      <trkpt lat="47.86997" lon="-3.9058">
        <ele>21.2</ele>
        <time>2021-08-12T12:14:54Z</time>
      </trkpt>
      <trkpt lat="47.86998" lon="-3.90573">
        <ele>20.8</ele>
        <time>2021-08-12T12:14:55Z</time>
      </trkpt>
      <trkpt lat="47.86998" lon="-3.90566">
        <ele>20.8</ele>
        <time>2021-08-12T12:14:56Z</time>
      </trkpt>
      <trkpt lat="47.86998" lon="-3.90559">
        <ele>20.6</ele>
        <time>2021-08-12T12:14:57Z</time>
      </trkpt>
      <trkpt lat="47.86998" lon="-3.90552">
        <ele>20.6</ele>
        <time>2021-08-12T12:14:58Z</time>
      </trkpt>
      <trkpt lat="47.86998" lon="-3.90546">
        <ele>20.4</ele>
        <time>2021-08-12T12:14:59Z</time>
      </trkpt>
      <trkpt lat="47.86998" lon="-3.90539">
        <ele>20.4</ele>
        <time>2021-08-12T12:15:00Z</time>
      </trkpt>
      <trkpt lat="47.86998" lon="-3.90532">
        <ele>20.4</ele>
        <time>2021-08-12T12:15:01Z</time>
      </trkpt>
      <trkpt lat="47.86998" lon="-3.90525">
        <ele>20.2</ele>
        <time>2021-08-12T12:15:02Z</time>
      </trkpt>
      <trkpt lat="47.86997" lon="-3.90518">
        <ele>20.2</ele>
        <time>2021-08-12T12:15:03Z</time>
      </trkpt>
      <trkpt lat="47.86997" lon="-3.90511">
        <ele>20.2</ele>
        <time>2021-08-12T12:15:04Z</time>
      </trkpt>
      <trkpt lat="47.86996" lon="-3.90504">
        <ele>20</ele>
        <time>2021-08-12T12:15:05Z</time>
      </trkpt>
      <trkpt lat="47.86996" lon="-3.90497">
        <ele>20</ele>
        <time>2021-08-12T12:15:06Z</time>
      </trkpt>
      <trkpt lat="47.86995" lon="-3.9049">
        <ele>20</ele>
        <time>2021-08-12T12:15:07Z</time>
      </trkpt>
      <trkpt lat="47.86993" lon="-3.90483">
        <ele>20</ele>
        <time>2021-08-12T12:15:08Z</time>
      </trkpt>
      <trkpt lat="47.86992" lon="-3.90476">
        <ele>20</ele>
        <time>2021-08-12T12:15:09Z</time>
      </trkpt>
      <trkpt lat="47.8699" lon="-3.90469">
        <ele>20</ele>
        <time>2021-08-12T12:15:10Z</time>
      </trkpt>
      <trkpt lat="47.86988" lon="-3.90462">
        <ele>20</ele>
        <time>2021-08-12T12:15:11Z</time>
      </trkpt>
      <trkpt lat="47.86987" lon="-3.90455">
        <ele>20</ele>
        <time>2021-08-12T12:15:12Z</time>
      </trkpt>
      <trkpt lat="47.86985" lon="-3.90447">
        <ele>19.8</ele>
        <time>2021-08-12T12:15:13Z</time>
      </trkpt>
      <trkpt lat="47.86984" lon="-3.9044">
        <ele>19.8</ele>
        <time>2021-08-12T12:15:14Z</time>
      </trkpt>
      <trkpt lat="47.86983" lon="-3.90433">
        <ele>19.8</ele>
        <time>2021-08-12T12:15:15Z</time>
      </trkpt>
      <trkpt lat="47.86982" lon="-3.90427">
        <ele>19.8</ele>
        <time>2021-08-12T12:15:16Z</time>
      </trkpt>
      <trkpt lat="47.8698" lon="-3.9042">
        <ele>19.8</ele>
        <time>2021-08-12T12:15:17Z</time>
      </trkpt>
      <trkpt lat="47.86979" lon="-3.90413">
        <ele>19.8</ele>
        <time>2021-08-12T12:15:18Z</time>
      </trkpt>
      <trkpt lat="47.86977" lon="-3.90407">
        <ele>19.8</ele>
        <time>2021-08-12T12:15:19Z</time>
      </trkpt>
      <trkpt lat="47.86976" lon="-3.90401">
        <ele>19.8</ele>
        <time>2021-08-12T12:15:20Z</time>
      </trkpt>
      <trkpt lat="47.86975" lon="-3.90394">
        <ele>20</ele>
        <time>2021-08-12T12:15:21Z</time>
      </trkpt>
      <trkpt lat="47.86973" lon="-3.90388">
        <ele>20</ele>
        <time>2021-08-12T12:15:22Z</time>
      </trkpt>
      <trkpt lat="47.86972" lon="-3.90382">
        <ele>20</ele>
        <time>2021-08-12T12:15:23Z</time>
      </trkpt>
      <trkpt lat="47.86971" lon="-3.90376">
        <ele>20</ele>
        <time>2021-08-12T12:15:24Z</time>
      </trkpt>
      <trkpt lat="47.8697" lon="-3.9037">
        <ele>20.4</ele>
        <time>2021-08-12T12:15:25Z</time>
      </trkpt>
      <trkpt lat="47.86968" lon="-3.90364">
        <ele>20.6</ele>
        <time>2021-08-12T12:15:26Z</time>
      </trkpt>
      <trkpt lat="47.86967" lon="-3.90358">
        <ele>20.8</ele>
        <time>2021-08-12T12:15:27Z</time>
      </trkpt>
      <trkpt lat="47.86966" lon="-3.90352">
        <ele>21</ele>
        <time>2021-08-12T12:15:28Z</time>
      </trkpt>
      <trkpt lat="47.86963" lon="-3.90342">
        <ele>21.2</ele>
        <time>2021-08-12T12:15:30Z</time>
      </trkpt>
      <trkpt lat="47.86961" lon="-3.90337">
        <ele>21.2</ele>
        <time>2021-08-12T12:15:31Z</time>
      </trkpt>
      <trkpt lat="47.86959" lon="-3.90332">
        <ele>21.2</ele>
        <time>2021-08-12T12:15:32Z</time>
      </trkpt>
      <trkpt lat="47.86958" lon="-3.90328">
        <ele>21.4</ele>
        <time>2021-08-12T12:15:33Z</time>
      </trkpt>
      <trkpt lat="47.86956" lon="-3.90323">
        <ele>21.4</ele>
        <time>2021-08-12T12:15:34Z</time>
      </trkpt>
      <trkpt lat="47.86955" lon="-3.90318">
        <ele>21.4</ele>
        <time>2021-08-12T12:15:35Z</time>
      </trkpt>
      <trkpt lat="47.86954" lon="-3.90313">
        <ele>21.6</ele>
        <time>2021-08-12T12:15:36Z</time>
      </trkpt>
      <trkpt lat="47.86954" lon="-3.90308">
        <ele>21.6</ele>
        <time>2021-08-12T12:15:37Z</time>
      </trkpt>
      <trkpt lat="47.86953" lon="-3.90303">
        <ele>21.8</ele>
        <time>2021-08-12T12:15:38Z</time>
      </trkpt>
      <trkpt lat="47.86953" lon="-3.90298">
        <ele>22</ele>
        <time>2021-08-12T12:15:39Z</time>
      </trkpt>
      <trkpt lat="47.86953" lon="-3.90293">
        <ele>22.2</ele>
        <time>2021-08-12T12:15:40Z</time>
      </trkpt>
      <trkpt lat="47.86953" lon="-3.90288">
        <ele>22.4</ele>
        <time>2021-08-12T12:15:41Z</time>
      </trkpt>
      <trkpt lat="47.86953" lon="-3.90282">
        <ele>22.6</ele>
        <time>2021-08-12T12:15:42Z</time>
      </trkpt>
      <trkpt lat="47.86953" lon="-3.90277">
        <ele>22.6</ele>
        <time>2021-08-12T12:15:43Z</time>
      </trkpt>
      <trkpt lat="47.86952" lon="-3.90272">
        <ele>22.8</ele>
        <time>2021-08-12T12:15:44Z</time>
      </trkpt>
      <trkpt lat="47.86952" lon="-3.90266">
        <ele>23</ele>
        <time>2021-08-12T12:15:45Z</time>
      </trkpt>
      <trkpt lat="47.86951" lon="-3.90261">
        <ele>23.2</ele>
        <time>2021-08-12T12:15:46Z</time>
      </trkpt>
      <trkpt lat="47.8695" lon="-3.90255">
        <ele>23.2</ele>
        <time>2021-08-12T12:15:47Z</time>
      </trkpt>
      <trkpt lat="47.86949" lon="-3.90249">
        <ele>23.2</ele>
        <time>2021-08-12T12:15:48Z</time>
      </trkpt>
      <trkpt lat="47.86948" lon="-3.90244">
        <ele>23.2</ele>
        <time>2021-08-12T12:15:49Z</time>
      </trkpt>
      <trkpt lat="47.86947" lon="-3.90238">
        <ele>23.2</ele>
        <time>2021-08-12T12:15:50Z</time>
      </trkpt>
      <trkpt lat="47.86945" lon="-3.90226">
        <ele>23.4</ele>
        <time>2021-08-12T12:15:52Z</time>
      </trkpt>
      <trkpt lat="47.86944" lon="-3.9022">
        <ele>23.4</ele>
        <time>2021-08-12T12:15:53Z</time>
      </trkpt>
      <trkpt lat="47.86943" lon="-3.90213">
        <ele>23.4</ele>
        <time>2021-08-12T12:15:54Z</time>
      </trkpt>
      <trkpt lat="47.86943" lon="-3.90207">
        <ele>23.4</ele>
        <time>2021-08-12T12:15:55Z</time>
      </trkpt>
      <trkpt lat="47.86942" lon="-3.90201">
        <ele>23.4</ele>
        <time>2021-08-12T12:15:56Z</time>
      </trkpt>
      <trkpt lat="47.86941" lon="-3.90195">
        <ele>23.4</ele>
        <time>2021-08-12T12:15:57Z</time>
      </trkpt>
      <trkpt lat="47.8694" lon="-3.90189">
        <ele>23.4</ele>
        <time>2021-08-12T12:15:58Z</time>
      </trkpt>
      <trkpt lat="47.86939" lon="-3.90183">
        <ele>23.4</ele>
        <time>2021-08-12T12:15:59Z</time>
      </trkpt>
      <trkpt lat="47.86938" lon="-3.90176">
        <ele>23.4</ele>
        <time>2021-08-12T12:16:00Z</time>
      </trkpt>
      <trkpt lat="47.86938" lon="-3.9017">
        <ele>23.4</ele>
        <time>2021-08-12T12:16:01Z</time>
      </trkpt>
      <trkpt lat="47.86936" lon="-3.90157">
        <ele>23.4</ele>
        <time>2021-08-12T12:16:03Z</time>
      </trkpt>
      <trkpt lat="47.86935" lon="-3.90151">
        <ele>23.4</ele>
        <time>2021-08-12T12:16:04Z</time>
      </trkpt>
      <trkpt lat="47.86935" lon="-3.90144">
        <ele>23.4</ele>
        <time>2021-08-12T12:16:05Z</time>
      </trkpt>
      <trkpt lat="47.86934" lon="-3.90137">
        <ele>23.4</ele>
        <time>2021-08-12T12:16:06Z</time>
      </trkpt>
      <trkpt lat="47.86934" lon="-3.9013">
        <ele>23.4</ele>
        <time>2021-08-12T12:16:07Z</time>
      </trkpt>
      <trkpt lat="47.86933" lon="-3.90122">
        <ele>23.4</ele>
        <time>2021-08-12T12:16:08Z</time>
      </trkpt>
      <trkpt lat="47.86932" lon="-3.90114">
        <ele>23.4</ele>
        <time>2021-08-12T12:16:09Z</time>
      </trkpt>
      <trkpt lat="47.86931" lon="-3.90106">
        <ele>23.4</ele>
        <time>2021-08-12T12:16:10Z</time>
      </trkpt>
      <trkpt lat="47.86931" lon="-3.90098">
        <ele>23.4</ele>
        <time>2021-08-12T12:16:11Z</time>
      </trkpt>
      <trkpt lat="47.8693" lon="-3.9009">
        <ele>23.4</ele>
        <time>2021-08-12T12:16:12Z</time>
      </trkpt>
      <trkpt lat="47.8693" lon="-3.90081">
        <ele>23.4</ele>
        <time>2021-08-12T12:16:13Z</time>
      </trkpt>
      <trkpt lat="47.86929" lon="-3.90073">
        <ele>23.2</ele>
        <time>2021-08-12T12:16:14Z</time>
      </trkpt>
      <trkpt lat="47.86929" lon="-3.90064">
        <ele>23</ele>
        <time>2021-08-12T12:16:15Z</time>
      </trkpt>
      <trkpt lat="47.86929" lon="-3.90056">
        <ele>23</ele>
        <time>2021-08-12T12:16:16Z</time>
      </trkpt>
      <trkpt lat="47.86929" lon="-3.90047">
        <ele>22.8</ele>
        <time>2021-08-12T12:16:17Z</time>
      </trkpt>
      <trkpt lat="47.86928" lon="-3.90038">
        <ele>22.6</ele>
        <time>2021-08-12T12:16:18Z</time>
      </trkpt>
      <trkpt lat="47.86928" lon="-3.90029">
        <ele>22.4</ele>
        <time>2021-08-12T12:16:19Z</time>
      </trkpt>
      <trkpt lat="47.86928" lon="-3.90021">
        <ele>22.4</ele>
        <time>2021-08-12T12:16:20Z</time>
      </trkpt>
      <trkpt lat="47.86928" lon="-3.90012">
        <ele>22.2</ele>
        <time>2021-08-12T12:16:21Z</time>
      </trkpt>
      <trkpt lat="47.86927" lon="-3.90003">
        <ele>22.2</ele>
        <time>2021-08-12T12:16:22Z</time>
      </trkpt>
      <trkpt lat="47.86927" lon="-3.89994">
        <ele>22.2</ele>
        <time>2021-08-12T12:16:23Z</time>
      </trkpt>
      <trkpt lat="47.86927" lon="-3.89976">
        <ele>22</ele>
        <time>2021-08-12T12:16:25Z</time>
      </trkpt>
      <trkpt lat="47.86926" lon="-3.89967">
        <ele>22</ele>
        <time>2021-08-12T12:16:26Z</time>
      </trkpt>
      <trkpt lat="47.86926" lon="-3.89958">
        <ele>21.6</ele>
        <time>2021-08-12T12:16:27Z</time>
      </trkpt>
      <trkpt lat="47.86926" lon="-3.89949">
        <ele>21.6</ele>
        <time>2021-08-12T12:16:28Z</time>
      </trkpt>
      <trkpt lat="47.86926" lon="-3.8994">
        <ele>21.4</ele>
        <time>2021-08-12T12:16:29Z</time>
      </trkpt>
      <trkpt lat="47.86926" lon="-3.8993">
        <ele>21.2</ele>
        <time>2021-08-12T12:16:30Z</time>
      </trkpt>
      <trkpt lat="47.86926" lon="-3.8992">
        <ele>21.2</ele>
        <time>2021-08-12T12:16:31Z</time>
      </trkpt>
      <trkpt lat="47.86926" lon="-3.8991">
        <ele>21</ele>
        <time>2021-08-12T12:16:32Z</time>
      </trkpt>
      <trkpt lat="47.86925" lon="-3.899">
        <ele>20.8</ele>
        <time>2021-08-12T12:16:33Z</time>
      </trkpt>
      <trkpt lat="47.86925" lon="-3.8989">
        <ele>20.8</ele>
        <time>2021-08-12T12:16:34Z</time>
      </trkpt>
      <trkpt lat="47.86925" lon="-3.8988">
        <ele>20.8</ele>
        <time>2021-08-12T12:16:35Z</time>
      </trkpt>
      <trkpt lat="47.86925" lon="-3.89869">
        <ele>20.6</ele>
        <time>2021-08-12T12:16:36Z</time>
      </trkpt>
      <trkpt lat="47.86924" lon="-3.89858">
        <ele>20.6</ele>
        <time>2021-08-12T12:16:37Z</time>
      </trkpt>
      <trkpt lat="47.86924" lon="-3.89847">
        <ele>20.6</ele>
        <time>2021-08-12T12:16:38Z</time>
      </trkpt>
      <trkpt lat="47.86924" lon="-3.89837">
        <ele>20.4</ele>
        <time>2021-08-12T12:16:39Z</time>
      </trkpt>
      <trkpt lat="47.86924" lon="-3.89826">
        <ele>20.2</ele>
        <time>2021-08-12T12:16:40Z</time>
      </trkpt>
      <trkpt lat="47.86923" lon="-3.89816">
        <ele>20</ele>
        <time>2021-08-12T12:16:41Z</time>
      </trkpt>
      <trkpt lat="47.86922" lon="-3.89805">
        <ele>20</ele>
        <time>2021-08-12T12:16:42Z</time>
      </trkpt>
      <trkpt lat="47.86922" lon="-3.89795">
        <ele>19.8</ele>
        <time>2021-08-12T12:16:43Z</time>
      </trkpt>
      <trkpt lat="47.86922" lon="-3.89785">
        <ele>19.8</ele>
        <time>2021-08-12T12:16:44Z</time>
      </trkpt>
      <trkpt lat="47.86922" lon="-3.89775">
        <ele>19.8</ele>
        <time>2021-08-12T12:16:45Z</time>
      </trkpt>
      <trkpt lat="47.86922" lon="-3.89755">
        <ele>19.6</ele>
        <time>2021-08-12T12:16:47Z</time>
      </trkpt>
      <trkpt lat="47.86922" lon="-3.89745">
        <ele>19.6</ele>
        <time>2021-08-12T12:16:48Z</time>
      </trkpt>
      <trkpt lat="47.86922" lon="-3.89736">
        <ele>19.6</ele>
        <time>2021-08-12T12:16:49Z</time>
      </trkpt>
      <trkpt lat="47.86922" lon="-3.89727">
        <ele>19.4</ele>
        <time>2021-08-12T12:16:50Z</time>
      </trkpt>
      <trkpt lat="47.86921" lon="-3.89717">
        <ele>19.4</ele>
        <time>2021-08-12T12:16:51Z</time>
      </trkpt>
      <trkpt lat="47.8692" lon="-3.89708">
        <ele>19.4</ele>
        <time>2021-08-12T12:16:52Z</time>
      </trkpt>
      <trkpt lat="47.8692" lon="-3.89699">
        <ele>19.4</ele>
        <time>2021-08-12T12:16:53Z</time>
      </trkpt>
      <trkpt lat="47.8692" lon="-3.89689">
        <ele>19.4</ele>
        <time>2021-08-12T12:16:54Z</time>
      </trkpt>
      <trkpt lat="47.86919" lon="-3.8968">
        <ele>19.4</ele>
        <time>2021-08-12T12:16:55Z</time>
      </trkpt>
      <trkpt lat="47.86919" lon="-3.89671">
        <ele>19.4</ele>
        <time>2021-08-12T12:16:56Z</time>
      </trkpt>
      <trkpt lat="47.86919" lon="-3.89653">
        <ele>19.4</ele>
        <time>2021-08-12T12:16:58Z</time>
      </trkpt>
      <trkpt lat="47.86918" lon="-3.89645">
        <ele>19.4</ele>
        <time>2021-08-12T12:16:59Z</time>
      </trkpt>
      <trkpt lat="47.86918" lon="-3.89638">
        <ele>19.4</ele>
        <time>2021-08-12T12:17:00Z</time>
      </trkpt>
      <trkpt lat="47.86918" lon="-3.89632">
        <ele>19.4</ele>
        <time>2021-08-12T12:17:01Z</time>
      </trkpt>
      <trkpt lat="47.86918" lon="-3.89626">
        <ele>19.4</ele>
        <time>2021-08-12T12:17:02Z</time>
      </trkpt>
      <trkpt lat="47.86918" lon="-3.89622">
        <ele>19.4</ele>
        <time>2021-08-12T12:17:03Z</time>
      </trkpt>
      <trkpt lat="47.86917" lon="-3.89618">
        <ele>19.4</ele>
        <time>2021-08-12T12:17:04Z</time>
      </trkpt>
      <trkpt lat="47.86917" lon="-3.89614">
        <ele>19.4</ele>
        <time>2021-08-12T12:17:05Z</time>
      </trkpt>
      <trkpt lat="47.86917" lon="-3.89611">
        <ele>19.4</ele>
        <time>2021-08-12T12:17:06Z</time>
      </trkpt>
      <trkpt lat="47.86916" lon="-3.89608">
        <ele>19.4</ele>
        <time>2021-08-12T12:17:07Z</time>
      </trkpt>
      <trkpt lat="47.86915" lon="-3.89604">
        <ele>19.8</ele>
        <time>2021-08-12T12:17:09Z</time>
      </trkpt>
      <trkpt lat="47.86915" lon="-3.89602">
        <ele>20</ele>
        <time>2021-08-12T12:17:10Z</time>
      </trkpt>
      <trkpt lat="47.86916" lon="-3.896">
        <ele>20</ele>
        <time>2021-08-12T12:17:11Z</time>
      </trkpt>
      <trkpt lat="47.86917" lon="-3.89597">
        <ele>20</ele>
        <time>2021-08-12T12:17:12Z</time>
      </trkpt>
      <trkpt lat="47.86917" lon="-3.89592">
        <ele>20</ele>
        <time>2021-08-12T12:17:13Z</time>
      </trkpt>
      <trkpt lat="47.86917" lon="-3.89587">
        <ele>20</ele>
        <time>2021-08-12T12:17:14Z</time>
      </trkpt>
      <trkpt lat="47.86917" lon="-3.8958">
        <ele>20</ele>
        <time>2021-08-12T12:17:15Z</time>
      </trkpt>
      <trkpt lat="47.86917" lon="-3.89572">
        <ele>20</ele>
        <time>2021-08-12T12:17:16Z</time>
      </trkpt>
      <trkpt lat="47.86917" lon="-3.89562">
        <ele>20</ele>
        <time>2021-08-12T12:17:17Z</time>
      </trkpt>
      <trkpt lat="47.86917" lon="-3.8955">
        <ele>20</ele>
        <time>2021-08-12T12:17:18Z</time>
      </trkpt>
      <trkpt lat="47.86917" lon="-3.89525">
        <ele>20</ele>
        <time>2021-08-12T12:17:20Z</time>
      </trkpt>
      <trkpt lat="47.86917" lon="-3.89511">
        <ele>20</ele>
        <time>2021-08-12T12:17:21Z</time>
      </trkpt>
      <trkpt lat="47.86916" lon="-3.89497">
        <ele>19.8</ele>
        <time>2021-08-12T12:17:22Z</time>
      </trkpt>
      <trkpt lat="47.86915" lon="-3.89485">
        <ele>19.4</ele>
        <time>2021-08-12T12:17:23Z</time>
      </trkpt>
      <trkpt lat="47.86914" lon="-3.89473">
        <ele>18.8</ele>
        <time>2021-08-12T12:17:24Z</time>
      </trkpt>
      <trkpt lat="47.86914" lon="-3.89463">
        <ele>18</ele>
        <time>2021-08-12T12:17:25Z</time>
      </trkpt>
      <trkpt lat="47.86913" lon="-3.89454">
        <ele>17.2</ele>
        <time>2021-08-12T12:17:26Z</time>
      </trkpt>
      <trkpt lat="47.86913" lon="-3.89446">
        <ele>16.6</ele>
        <time>2021-08-12T12:17:27Z</time>
      </trkpt>
      <trkpt lat="47.86913" lon="-3.89439">
        <ele>16.4</ele>
        <time>2021-08-12T12:17:28Z</time>
      </trkpt>
      <trkpt lat="47.86913" lon="-3.89432">
        <ele>16.4</ele>
        <time>2021-08-12T12:17:29Z</time>
      </trkpt>
      <trkpt lat="47.86913" lon="-3.89419">
        <ele>16.2</ele>
        <time>2021-08-12T12:17:31Z</time>
      </trkpt>
      <trkpt lat="47.86913" lon="-3.89413">
        <ele>16.2</ele>
        <time>2021-08-12T12:17:32Z</time>
      </trkpt>
      <trkpt lat="47.86913" lon="-3.89407">
        <ele>16.2</ele>
        <time>2021-08-12T12:17:33Z</time>
      </trkpt>
      <trkpt lat="47.86914" lon="-3.894">
        <ele>16.2</ele>
        <time>2021-08-12T12:17:34Z</time>
      </trkpt>
      <trkpt lat="47.86914" lon="-3.89394">
        <ele>16.2</ele>
        <time>2021-08-12T12:17:35Z</time>
      </trkpt>
      <trkpt lat="47.86914" lon="-3.89387">
        <ele>16.8</ele>
        <time>2021-08-12T12:17:36Z</time>
      </trkpt>
      <trkpt lat="47.86915" lon="-3.8938">
        <ele>17.6</ele>
        <time>2021-08-12T12:17:37Z</time>
      </trkpt>
      <trkpt lat="47.86915" lon="-3.89372">
        <ele>18.4</ele>
        <time>2021-08-12T12:17:38Z</time>
      </trkpt>
      <trkpt lat="47.86916" lon="-3.89364">
        <ele>18.8</ele>
        <time>2021-08-12T12:17:39Z</time>
      </trkpt>
      <trkpt lat="47.86915" lon="-3.89357">
        <ele>19</ele>
        <time>2021-08-12T12:17:40Z</time>
      </trkpt>
      <trkpt lat="47.86913" lon="-3.89349">
        <ele>19</ele>
        <time>2021-08-12T12:17:41Z</time>
      </trkpt>
      <trkpt lat="47.86911" lon="-3.89342">
        <ele>19.2</ele>
        <time>2021-08-12T12:17:42Z</time>
      </trkpt>
      <trkpt lat="47.86909" lon="-3.89334">
        <ele>19.2</ele>
        <time>2021-08-12T12:17:43Z</time>
      </trkpt>
      <trkpt lat="47.86909" lon="-3.89326">
        <ele>19.2</ele>
        <time>2021-08-12T12:17:44Z</time>
      </trkpt>
      <trkpt lat="47.8691" lon="-3.89319">
        <ele>19.2</ele>
        <time>2021-08-12T12:17:45Z</time>
      </trkpt>
      <trkpt lat="47.86912" lon="-3.89311">
        <ele>19.2</ele>
        <time>2021-08-12T12:17:46Z</time>
      </trkpt>
      <trkpt lat="47.86915" lon="-3.89302">
        <ele>19.2</ele>
        <time>2021-08-12T12:17:47Z</time>
      </trkpt>
      <trkpt lat="47.86917" lon="-3.89294">
        <ele>19.2</ele>
        <time>2021-08-12T12:17:48Z</time>
      </trkpt>
      <trkpt lat="47.86919" lon="-3.89285">
        <ele>19.2</ele>
        <time>2021-08-12T12:17:49Z</time>
      </trkpt>
      <trkpt lat="47.8692" lon="-3.89276">
        <ele>19.2</ele>
        <time>2021-08-12T12:17:50Z</time>
      </trkpt>
      <trkpt lat="47.86922" lon="-3.89267">
        <ele>19.2</ele>
        <time>2021-08-12T12:17:51Z</time>
      </trkpt>
      <trkpt lat="47.86923" lon="-3.89258">
        <ele>19.2</ele>
        <time>2021-08-12T12:17:52Z</time>
      </trkpt>
      <trkpt lat="47.86924" lon="-3.89248">
        <ele>19.2</ele>
        <time>2021-08-12T12:17:53Z</time>
      </trkpt>
      <trkpt lat="47.86925" lon="-3.89239">
        <ele>19</ele>
        <time>2021-08-12T12:17:54Z</time>
      </trkpt>
      <trkpt lat="47.86925" lon="-3.8923">
        <ele>19</ele>
        <time>2021-08-12T12:17:55Z</time>
      </trkpt>
      <trkpt lat="47.86926" lon="-3.89221">
        <ele>19</ele>
        <time>2021-08-12T12:17:56Z</time>
      </trkpt>
      <trkpt lat="47.86927" lon="-3.89212">
        <ele>19</ele>
        <time>2021-08-12T12:17:57Z</time>
      </trkpt>
      <trkpt lat="47.86928" lon="-3.89203">
        <ele>19</ele>
        <time>2021-08-12T12:17:58Z</time>
      </trkpt>
      <trkpt lat="47.86928" lon="-3.89194">
        <ele>19</ele>
        <time>2021-08-12T12:17:59Z</time>
      </trkpt>
      <trkpt lat="47.86929" lon="-3.89185">
        <ele>19</ele>
        <time>2021-08-12T12:18:00Z</time>
      </trkpt>
      <trkpt lat="47.8693" lon="-3.89176">
        <ele>19</ele>
        <time>2021-08-12T12:18:01Z</time>
      </trkpt>
      <trkpt lat="47.8693" lon="-3.89167">
        <ele>19</ele>
        <time>2021-08-12T12:18:02Z</time>
      </trkpt>
      <trkpt lat="47.86932" lon="-3.89149">
        <ele>18.8</ele>
        <time>2021-08-12T12:18:04Z</time>
      </trkpt>
      <trkpt lat="47.86932" lon="-3.8914">
        <ele>18.8</ele>
        <time>2021-08-12T12:18:05Z</time>
      </trkpt>
      <trkpt lat="47.86933" lon="-3.8913">
        <ele>18.8</ele>
        <time>2021-08-12T12:18:06Z</time>
      </trkpt>
      <trkpt lat="47.86933" lon="-3.89121">
        <ele>18.6</ele>
        <time>2021-08-12T12:18:07Z</time>
      </trkpt>
      <trkpt lat="47.86933" lon="-3.89112">
        <ele>18.6</ele>
        <time>2021-08-12T12:18:08Z</time>
      </trkpt>
      <trkpt lat="47.86934" lon="-3.89102">
        <ele>18.8</ele>
        <time>2021-08-12T12:18:09Z</time>
      </trkpt>
      <trkpt lat="47.86934" lon="-3.89093">
        <ele>18.8</ele>
        <time>2021-08-12T12:18:10Z</time>
      </trkpt>
      <trkpt lat="47.86934" lon="-3.89084">
        <ele>18.8</ele>
        <time>2021-08-12T12:18:11Z</time>
      </trkpt>
      <trkpt lat="47.86934" lon="-3.89075">
        <ele>18.8</ele>
        <time>2021-08-12T12:18:12Z</time>
      </trkpt>
      <trkpt lat="47.86934" lon="-3.89065">
        <ele>18.8</ele>
        <time>2021-08-12T12:18:13Z</time>
      </trkpt>
      <trkpt lat="47.86933" lon="-3.89047">
        <ele>18.8</ele>
        <time>2021-08-12T12:18:15Z</time>
      </trkpt>
      <trkpt lat="47.86933" lon="-3.89037">
        <ele>18.8</ele>
        <time>2021-08-12T12:18:16Z</time>
      </trkpt>
      <trkpt lat="47.86933" lon="-3.89028">
        <ele>18.6</ele>
        <time>2021-08-12T12:18:17Z</time>
      </trkpt>
      <trkpt lat="47.86933" lon="-3.89018">
        <ele>18.6</ele>
        <time>2021-08-12T12:18:18Z</time>
      </trkpt>
      <trkpt lat="47.86933" lon="-3.89008">
        <ele>18.6</ele>
        <time>2021-08-12T12:18:19Z</time>
      </trkpt>
      <trkpt lat="47.86933" lon="-3.88998">
        <ele>18.4</ele>
        <time>2021-08-12T12:18:20Z</time>
      </trkpt>
      <trkpt lat="47.86933" lon="-3.88989">
        <ele>18.4</ele>
        <time>2021-08-12T12:18:21Z</time>
      </trkpt>
      <trkpt lat="47.86933" lon="-3.88979">
        <ele>18.4</ele>
        <time>2021-08-12T12:18:22Z</time>
      </trkpt>
      <trkpt lat="47.86933" lon="-3.8897">
        <ele>18.4</ele>
        <time>2021-08-12T12:18:23Z</time>
      </trkpt>
      <trkpt lat="47.86933" lon="-3.88961">
        <ele>18.4</ele>
        <time>2021-08-12T12:18:24Z</time>
      </trkpt>
      <trkpt lat="47.86932" lon="-3.88942">
        <ele>18.2</ele>
        <time>2021-08-12T12:18:26Z</time>
      </trkpt>
      <trkpt lat="47.86932" lon="-3.88933">
        <ele>18.2</ele>
        <time>2021-08-12T12:18:27Z</time>
      </trkpt>
      <trkpt lat="47.86932" lon="-3.88924">
        <ele>18.2</ele>
        <time>2021-08-12T12:18:28Z</time>
      </trkpt>
      <trkpt lat="47.86932" lon="-3.88915">
        <ele>18.2</ele>
        <time>2021-08-12T12:18:29Z</time>
      </trkpt>
      <trkpt lat="47.86932" lon="-3.88906">
        <ele>18.2</ele>
        <time>2021-08-12T12:18:30Z</time>
      </trkpt>
      <trkpt lat="47.86932" lon="-3.88896">
        <ele>18.2</ele>
        <time>2021-08-12T12:18:31Z</time>
      </trkpt>
      <trkpt lat="47.86932" lon="-3.88887">
        <ele>18.2</ele>
        <time>2021-08-12T12:18:32Z</time>
      </trkpt>
      <trkpt lat="47.86932" lon="-3.88879">
        <ele>18.2</ele>
        <time>2021-08-12T12:18:33Z</time>
      </trkpt>
      <trkpt lat="47.86932" lon="-3.8887">
        <ele>18.2</ele>
        <time>2021-08-12T12:18:34Z</time>
      </trkpt>
      <trkpt lat="47.86932" lon="-3.88861">
        <ele>18.2</ele>
        <time>2021-08-12T12:18:35Z</time>
      </trkpt>
      <trkpt lat="47.86932" lon="-3.88843">
        <ele>18.4</ele>
        <time>2021-08-12T12:18:37Z</time>
      </trkpt>
      <trkpt lat="47.86932" lon="-3.88835">
        <ele>18.6</ele>
        <time>2021-08-12T12:18:38Z</time>
      </trkpt>
      <trkpt lat="47.86932" lon="-3.88826">
        <ele>18.6</ele>
        <time>2021-08-12T12:18:39Z</time>
      </trkpt>
      <trkpt lat="47.86932" lon="-3.88818">
        <ele>18.6</ele>
        <time>2021-08-12T12:18:40Z</time>
      </trkpt>
      <trkpt lat="47.86932" lon="-3.8881">
        <ele>18.8</ele>
        <time>2021-08-12T12:18:41Z</time>
      </trkpt>
      <trkpt lat="47.86932" lon="-3.88802">
        <ele>18.8</ele>
        <time>2021-08-12T12:18:42Z</time>
      </trkpt>
      <trkpt lat="47.86932" lon="-3.88794">
        <ele>18.8</ele>
        <time>2021-08-12T12:18:43Z</time>
      </trkpt>
      <trkpt lat="47.86932" lon="-3.88786">
        <ele>19</ele>
        <time>2021-08-12T12:18:44Z</time>
      </trkpt>
      <trkpt lat="47.86932" lon="-3.88778">
        <ele>19</ele>
        <time>2021-08-12T12:18:45Z</time>
      </trkpt>
      <trkpt lat="47.86932" lon="-3.88771">
        <ele>19</ele>
        <time>2021-08-12T12:18:46Z</time>
      </trkpt>
      <trkpt lat="47.86931" lon="-3.88756">
        <ele>19.2</ele>
        <time>2021-08-12T12:18:48Z</time>
      </trkpt>
      <trkpt lat="47.86931" lon="-3.88748">
        <ele>19.4</ele>
        <time>2021-08-12T12:18:49Z</time>
      </trkpt>
      <trkpt lat="47.8693" lon="-3.88741">
        <ele>19.6</ele>
        <time>2021-08-12T12:18:50Z</time>
      </trkpt>
      <trkpt lat="47.86929" lon="-3.88734">
        <ele>19.6</ele>
        <time>2021-08-12T12:18:51Z</time>
      </trkpt>
      <trkpt lat="47.86929" lon="-3.88726">
        <ele>19.6</ele>
        <time>2021-08-12T12:18:52Z</time>
      </trkpt>
      <trkpt lat="47.86929" lon="-3.88719">
        <ele>19.6</ele>
        <time>2021-08-12T12:18:53Z</time>
      </trkpt>
      <trkpt lat="47.8693" lon="-3.88711">
        <ele>19.8</ele>
        <time>2021-08-12T12:18:54Z</time>
      </trkpt>
      <trkpt lat="47.8693" lon="-3.88703">
        <ele>19.8</ele>
        <time>2021-08-12T12:18:55Z</time>
      </trkpt>
      <trkpt lat="47.8693" lon="-3.88695">
        <ele>19.8</ele>
        <time>2021-08-12T12:18:56Z</time>
      </trkpt>
      <trkpt lat="47.86931" lon="-3.88687">
        <ele>20</ele>
        <time>2021-08-12T12:18:57Z</time>
      </trkpt>
      <trkpt lat="47.86931" lon="-3.88671">
        <ele>20</ele>
        <time>2021-08-12T12:18:59Z</time>
      </trkpt>
      <trkpt lat="47.86931" lon="-3.88663">
        <ele>20.2</ele>
        <time>2021-08-12T12:19:00Z</time>
      </trkpt>
      <trkpt lat="47.86932" lon="-3.88655">
        <ele>20.2</ele>
        <time>2021-08-12T12:19:01Z</time>
      </trkpt>
      <trkpt lat="47.86931" lon="-3.88647">
        <ele>20.4</ele>
        <time>2021-08-12T12:19:02Z</time>
      </trkpt>
      <trkpt lat="47.8693" lon="-3.88639">
        <ele>20.4</ele>
        <time>2021-08-12T12:19:03Z</time>
      </trkpt>
      <trkpt lat="47.8693" lon="-3.88631">
        <ele>20.4</ele>
        <time>2021-08-12T12:19:04Z</time>
      </trkpt>
      <trkpt lat="47.8693" lon="-3.88623">
        <ele>20.6</ele>
        <time>2021-08-12T12:19:05Z</time>
      </trkpt>
      <trkpt lat="47.8693" lon="-3.88615">
        <ele>20.6</ele>
        <time>2021-08-12T12:19:06Z</time>
      </trkpt>
      <trkpt lat="47.8693" lon="-3.88607">
        <ele>20.6</ele>
        <time>2021-08-12T12:19:07Z</time>
      </trkpt>
      <trkpt lat="47.8693" lon="-3.88599">
        <ele>20.6</ele>
        <time>2021-08-12T12:19:08Z</time>
      </trkpt>
      <trkpt lat="47.86931" lon="-3.88583">
        <ele>20.6</ele>
        <time>2021-08-12T12:19:10Z</time>
      </trkpt>
      <trkpt lat="47.86931" lon="-3.88576">
        <ele>20.6</ele>
        <time>2021-08-12T12:19:11Z</time>
      </trkpt>
      <trkpt lat="47.86931" lon="-3.88568">
        <ele>20.6</ele>
        <time>2021-08-12T12:19:12Z</time>
      </trkpt>
      <trkpt lat="47.8693" lon="-3.88561">
        <ele>20.6</ele>
        <time>2021-08-12T12:19:13Z</time>
      </trkpt>
      <trkpt lat="47.8693" lon="-3.88554">
        <ele>20.8</ele>
        <time>2021-08-12T12:19:14Z</time>
      </trkpt>
      <trkpt lat="47.8693" lon="-3.88547">
        <ele>20.8</ele>
        <time>2021-08-12T12:19:15Z</time>
      </trkpt>
      <trkpt lat="47.8693" lon="-3.8854">
        <ele>20.8</ele>
        <time>2021-08-12T12:19:16Z</time>
      </trkpt>
      <trkpt lat="47.8693" lon="-3.88532">
        <ele>20.8</ele>
        <time>2021-08-12T12:19:17Z</time>
      </trkpt>
      <trkpt lat="47.8693" lon="-3.88525">
        <ele>20.8</ele>
        <time>2021-08-12T12:19:18Z</time>
      </trkpt>
      <trkpt lat="47.8693" lon="-3.88518">
        <ele>20.8</ele>
        <time>2021-08-12T12:19:19Z</time>
      </trkpt>
      <trkpt lat="47.86931" lon="-3.88503">
        <ele>20.8</ele>
        <time>2021-08-12T12:19:21Z</time>
      </trkpt>
      <trkpt lat="47.86931" lon="-3.88496">
        <ele>20.8</ele>
        <time>2021-08-12T12:19:22Z</time>
      </trkpt>
      <trkpt lat="47.86931" lon="-3.88488">
        <ele>20.8</ele>
        <time>2021-08-12T12:19:23Z</time>
      </trkpt>
      <trkpt lat="47.86931" lon="-3.88481">
        <ele>20.8</ele>
        <time>2021-08-12T12:19:24Z</time>
      </trkpt>
      <trkpt lat="47.86931" lon="-3.88473">
        <ele>20.8</ele>
        <time>2021-08-12T12:19:25Z</time>
      </trkpt>
      <trkpt lat="47.86931" lon="-3.88466">
        <ele>21</ele>
        <time>2021-08-12T12:19:26Z</time>
      </trkpt>
      <trkpt lat="47.86931" lon="-3.88459">
        <ele>21</ele>
        <time>2021-08-12T12:19:27Z</time>
      </trkpt>
      <trkpt lat="47.86931" lon="-3.88452">
        <ele>21</ele>
        <time>2021-08-12T12:19:28Z</time>
      </trkpt>
      <trkpt lat="47.86931" lon="-3.88445">
        <ele>21</ele>
        <time>2021-08-12T12:19:29Z</time>
      </trkpt>
      <trkpt lat="47.86931" lon="-3.88438">
        <ele>21</ele>
        <time>2021-08-12T12:19:30Z</time>
      </trkpt>
      <trkpt lat="47.86932" lon="-3.88426">
        <ele>21.2</ele>
        <time>2021-08-12T12:19:32Z</time>
      </trkpt>
      <trkpt lat="47.86932" lon="-3.8842">
        <ele>21.2</ele>
        <time>2021-08-12T12:19:33Z</time>
      </trkpt>
      <trkpt lat="47.86932" lon="-3.88415">
        <ele>21.2</ele>
        <time>2021-08-12T12:19:34Z</time>
      </trkpt>
      <trkpt lat="47.86932" lon="-3.88409">
        <ele>21.2</ele>
        <time>2021-08-12T12:19:35Z</time>
      </trkpt>
      <trkpt lat="47.86932" lon="-3.88404">
        <ele>21.2</ele>
        <time>2021-08-12T12:19:36Z</time>
      </trkpt>
      <trkpt lat="47.86932" lon="-3.88398">
        <ele>21.6</ele>
        <time>2021-08-12T12:19:37Z</time>
      </trkpt>
      <trkpt lat="47.86933" lon="-3.88393">
        <ele>22</ele>
        <time>2021-08-12T12:19:38Z</time>
      </trkpt>
      <trkpt lat="47.86933" lon="-3.88388">
        <ele>22.4</ele>
        <time>2021-08-12T12:19:39Z</time>
      </trkpt>
      <trkpt lat="47.86933" lon="-3.88383">
        <ele>22.6</ele>
        <time>2021-08-12T12:19:40Z</time>
      </trkpt>
      <trkpt lat="47.86934" lon="-3.88378">
        <ele>23</ele>
        <time>2021-08-12T12:19:41Z</time>
      </trkpt>
      <trkpt lat="47.86935" lon="-3.88368">
        <ele>23.2</ele>
        <time>2021-08-12T12:19:43Z</time>
      </trkpt>
      <trkpt lat="47.86935" lon="-3.88363">
        <ele>23.4</ele>
        <time>2021-08-12T12:19:44Z</time>
      </trkpt>
      <trkpt lat="47.86935" lon="-3.88357">
        <ele>23.4</ele>
        <time>2021-08-12T12:19:45Z</time>
      </trkpt>
      <trkpt lat="47.86936" lon="-3.88352">
        <ele>23.4</ele>
        <time>2021-08-12T12:19:46Z</time>
      </trkpt>
      <trkpt lat="47.86936" lon="-3.88347">
        <ele>23.6</ele>
        <time>2021-08-12T12:19:47Z</time>
      </trkpt>
      <trkpt lat="47.86936" lon="-3.88343">
        <ele>23.8</ele>
        <time>2021-08-12T12:19:48Z</time>
      </trkpt>
      <trkpt lat="47.86937" lon="-3.88338">
        <ele>23.8</ele>
        <time>2021-08-12T12:19:49Z</time>
      </trkpt>
      <trkpt lat="47.86937" lon="-3.88333">
        <ele>24</ele>
        <time>2021-08-12T12:19:50Z</time>
      </trkpt>
      <trkpt lat="47.86937" lon="-3.88328">
        <ele>24</ele>
        <time>2021-08-12T12:19:51Z</time>
      </trkpt>
      <trkpt lat="47.86937" lon="-3.88323">
        <ele>24</ele>
        <time>2021-08-12T12:19:52Z</time>
      </trkpt>
      <trkpt lat="47.86937" lon="-3.88312">
        <ele>24</ele>
        <time>2021-08-12T12:19:54Z</time>
      </trkpt>
      <trkpt lat="47.86937" lon="-3.88306">
        <ele>24</ele>
        <time>2021-08-12T12:19:55Z</time>
      </trkpt>
      <trkpt lat="47.86937" lon="-3.883">
        <ele>24</ele>
        <time>2021-08-12T12:19:56Z</time>
      </trkpt>
      <trkpt lat="47.86936" lon="-3.88295">
        <ele>24</ele>
        <time>2021-08-12T12:19:57Z</time>
      </trkpt>
      <trkpt lat="47.86936" lon="-3.88289">
        <ele>24</ele>
        <time>2021-08-12T12:19:58Z</time>
      </trkpt>
      <trkpt lat="47.86936" lon="-3.88284">
        <ele>24</ele>
        <time>2021-08-12T12:19:59Z</time>
      </trkpt>
      <trkpt lat="47.86936" lon="-3.88278">
        <ele>23.8</ele>
        <time>2021-08-12T12:20:00Z</time>
      </trkpt>
      <trkpt lat="47.86935" lon="-3.88273">
        <ele>23.8</ele>
        <time>2021-08-12T12:20:01Z</time>
      </trkpt>
      <trkpt lat="47.86935" lon="-3.88267">
        <ele>23.8</ele>
        <time>2021-08-12T12:20:02Z</time>
      </trkpt>
      <trkpt lat="47.86935" lon="-3.88262">
        <ele>23.8</ele>
        <time>2021-08-12T12:20:03Z</time>
      </trkpt>
      <trkpt lat="47.86934" lon="-3.88252">
        <ele>23.8</ele>
        <time>2021-08-12T12:20:05Z</time>
      </trkpt>
      <trkpt lat="47.86934" lon="-3.88247">
        <ele>23.8</ele>
        <time>2021-08-12T12:20:06Z</time>
      </trkpt>
      <trkpt lat="47.86934" lon="-3.88242">
        <ele>23.8</ele>
        <time>2021-08-12T12:20:07Z</time>
      </trkpt>
      <trkpt lat="47.86933" lon="-3.88236">
        <ele>23.8</ele>
        <time>2021-08-12T12:20:08Z</time>
      </trkpt>
      <trkpt lat="47.86933" lon="-3.8823">
        <ele>24</ele>
        <time>2021-08-12T12:20:09Z</time>
      </trkpt>
      <trkpt lat="47.86933" lon="-3.88224">
        <ele>24.2</ele>
        <time>2021-08-12T12:20:10Z</time>
      </trkpt>
      <trkpt lat="47.86932" lon="-3.88218">
        <ele>24.2</ele>
        <time>2021-08-12T12:20:11Z</time>
      </trkpt>
      <trkpt lat="47.86932" lon="-3.88212">
        <ele>24.4</ele>
        <time>2021-08-12T12:20:12Z</time>
      </trkpt>
      <trkpt lat="47.86932" lon="-3.88205">
        <ele>24.4</ele>
        <time>2021-08-12T12:20:13Z</time>
      </trkpt>
      <trkpt lat="47.86932" lon="-3.88199">
        <ele>24.4</ele>
        <time>2021-08-12T12:20:14Z</time>
      </trkpt>
      <trkpt lat="47.86933" lon="-3.88187">
        <ele>24.4</ele>
        <time>2021-08-12T12:20:16Z</time>
      </trkpt>
      <trkpt lat="47.86932" lon="-3.88181">
        <ele>24.4</ele>
        <time>2021-08-12T12:20:17Z</time>
      </trkpt>
      <trkpt lat="47.86931" lon="-3.88177">
        <ele>24.4</ele>
        <time>2021-08-12T12:20:18Z</time>
      </trkpt>
      <trkpt lat="47.8693" lon="-3.88175">
        <ele>24.4</ele>
        <time>2021-08-12T12:20:19Z</time>
      </trkpt>
      <trkpt lat="47.86928" lon="-3.88173">
        <ele>24.4</ele>
        <time>2021-08-12T12:20:20Z</time>
      </trkpt>
      <trkpt lat="47.86927" lon="-3.88173">
        <ele>24.4</ele>
        <time>2021-08-12T12:20:21Z</time>
      </trkpt>
      <trkpt lat="47.86925" lon="-3.88173">
        <ele>24.4</ele>
        <time>2021-08-12T12:20:22Z</time>
      </trkpt>
      <trkpt lat="47.86923" lon="-3.88173">
        <ele>24.4</ele>
        <time>2021-08-12T12:20:23Z</time>
      </trkpt>
      <trkpt lat="47.86922" lon="-3.88174">
        <ele>24.4</ele>
        <time>2021-08-12T12:20:24Z</time>
      </trkpt>
      <trkpt lat="47.8692" lon="-3.88174">
        <ele>24.4</ele>
        <time>2021-08-12T12:20:25Z</time>
      </trkpt>
      <trkpt lat="47.86916" lon="-3.88173">
        <ele>24.4</ele>
        <time>2021-08-12T12:20:27Z</time>
      </trkpt>
      <trkpt lat="47.86914" lon="-3.88171">
        <ele>24.4</ele>
        <time>2021-08-12T12:20:28Z</time>
      </trkpt>
      <trkpt lat="47.86912" lon="-3.88168">
        <ele>24.4</ele>
        <time>2021-08-12T12:20:29Z</time>
      </trkpt>
      <trkpt lat="47.8691" lon="-3.88165">
        <ele>24.4</ele>
        <time>2021-08-12T12:20:30Z</time>
      </trkpt>
      <trkpt lat="47.86908" lon="-3.88161">
        <ele>24.4</ele>
        <time>2021-08-12T12:20:31Z</time>
      </trkpt>
      <trkpt lat="47.86905" lon="-3.88158">
        <ele>24.2</ele>
        <time>2021-08-12T12:20:32Z</time>
      </trkpt>
      <trkpt lat="47.86903" lon="-3.88153">
        <ele>24.2</ele>
        <time>2021-08-12T12:20:33Z</time>
      </trkpt>
      <trkpt lat="47.86902" lon="-3.88149">
        <ele>24</ele>
        <time>2021-08-12T12:20:34Z</time>
      </trkpt>
      <trkpt lat="47.869" lon="-3.88145">
        <ele>24</ele>
        <time>2021-08-12T12:20:35Z</time>
      </trkpt>
      <trkpt lat="47.86899" lon="-3.88143">
        <ele>24</ele>
        <time>2021-08-12T12:20:36Z</time>
      </trkpt>
      <trkpt lat="47.86898" lon="-3.88142">
        <ele>24</ele>
        <time>2021-08-12T12:20:37Z</time>
      </trkpt>
      <trkpt lat="47.86898" lon="-3.88141">
        <ele>23.8</ele>
        <time>2021-08-12T12:20:40Z</time>
      </trkpt>
      <trkpt lat="47.86898" lon="-3.88142">
        <ele>23.8</ele>
        <time>2021-08-12T12:20:42Z</time>
      </trkpt>
      <trkpt lat="47.86898" lon="-3.88142">
        <ele>23.4</ele>
        <time>2021-08-12T12:21:27Z</time>
      </trkpt>
      <trkpt lat="47.86897" lon="-3.88141">
        <ele>23.4</ele>
        <time>2021-08-12T12:21:28Z</time>
      </trkpt>
      <trkpt lat="47.86896" lon="-3.88139">
        <ele>23.4</ele>
        <time>2021-08-12T12:21:29Z</time>
      </trkpt>
      <trkpt lat="47.86895" lon="-3.88138">
        <ele>23.4</ele>
        <time>2021-08-12T12:21:30Z</time>
      </trkpt>
      <trkpt lat="47.86892" lon="-3.88134">
        <ele>23.4</ele>
        <time>2021-08-12T12:21:32Z</time>
      </trkpt>
      <trkpt lat="47.8689" lon="-3.88132">
        <ele>23.2</ele>
        <time>2021-08-12T12:21:33Z</time>
      </trkpt>
      <trkpt lat="47.86889" lon="-3.8813">
        <ele>23.2</ele>
        <time>2021-08-12T12:21:34Z</time>
      </trkpt>
      <trkpt lat="47.86888" lon="-3.88128">
        <ele>23.2</ele>
        <time>2021-08-12T12:21:35Z</time>
      </trkpt>
      <trkpt lat="47.86886" lon="-3.88125">
        <ele>23.2</ele>
        <time>2021-08-12T12:21:36Z</time>
      </trkpt>
      <trkpt lat="47.86884" lon="-3.88121">
        <ele>23.2</ele>
        <time>2021-08-12T12:21:37Z</time>
      </trkpt>
      <trkpt lat="47.86883" lon="-3.88118">
        <ele>23.2</ele>
        <time>2021-08-12T12:21:38Z</time>
      </trkpt>
      <trkpt lat="47.86881" lon="-3.88116">
        <ele>23.2</ele>
        <time>2021-08-12T12:21:39Z</time>
      </trkpt>
      <trkpt lat="47.8688" lon="-3.88113">
        <ele>23</ele>
        <time>2021-08-12T12:21:40Z</time>
      </trkpt>
      <trkpt lat="47.86877" lon="-3.88111">
        <ele>23</ele>
        <time>2021-08-12T12:21:41Z</time>
      </trkpt>
      <trkpt lat="47.86875" lon="-3.88107">
        <ele>22.8</ele>
        <time>2021-08-12T12:21:42Z</time>
      </trkpt>
      <trkpt lat="47.86873" lon="-3.88104">
        <ele>22.8</ele>
        <time>2021-08-12T12:21:43Z</time>
      </trkpt>
      <trkpt lat="47.8687" lon="-3.88099">
        <ele>22.8</ele>
        <time>2021-08-12T12:21:44Z</time>
      </trkpt>
      <trkpt lat="47.86867" lon="-3.88095">
        <ele>22.6</ele>
        <time>2021-08-12T12:21:45Z</time>
      </trkpt>
      <trkpt lat="47.86864" lon="-3.88091">
        <ele>22.6</ele>
        <time>2021-08-12T12:21:46Z</time>
      </trkpt>
      <trkpt lat="47.86862" lon="-3.88087">
        <ele>22.6</ele>
        <time>2021-08-12T12:21:47Z</time>
      </trkpt>
      <trkpt lat="47.86859" lon="-3.88083">
        <ele>22.6</ele>
        <time>2021-08-12T12:21:48Z</time>
      </trkpt>
      <trkpt lat="47.86856" lon="-3.88079">
        <ele>22.6</ele>
        <time>2021-08-12T12:21:49Z</time>
      </trkpt>
      <trkpt lat="47.86854" lon="-3.88074">
        <ele>22.4</ele>
        <time>2021-08-12T12:21:50Z</time>
      </trkpt>
      <trkpt lat="47.86851" lon="-3.88069">
        <ele>22.4</ele>
        <time>2021-08-12T12:21:51Z</time>
      </trkpt>
      <trkpt lat="47.86848" lon="-3.88065">
        <ele>22.2</ele>
        <time>2021-08-12T12:21:52Z</time>
      </trkpt>
      <trkpt lat="47.86845" lon="-3.8806">
        <ele>22</ele>
        <time>2021-08-12T12:21:53Z</time>
      </trkpt>
      <trkpt lat="47.86843" lon="-3.88056">
        <ele>22</ele>
        <time>2021-08-12T12:21:54Z</time>
      </trkpt>
      <trkpt lat="47.8684" lon="-3.88053">
        <ele>21.8</ele>
        <time>2021-08-12T12:21:55Z</time>
      </trkpt>
      <trkpt lat="47.86837" lon="-3.88049">
        <ele>21.8</ele>
        <time>2021-08-12T12:21:56Z</time>
      </trkpt>
      <trkpt lat="47.86834" lon="-3.88044">
        <ele>21.6</ele>
        <time>2021-08-12T12:21:57Z</time>
      </trkpt>
      <trkpt lat="47.86831" lon="-3.8804">
        <ele>21</ele>
        <time>2021-08-12T12:21:58Z</time>
      </trkpt>
      <trkpt lat="47.86828" lon="-3.88035">
        <ele>21</ele>
        <time>2021-08-12T12:21:59Z</time>
      </trkpt>
      <trkpt lat="47.86825" lon="-3.8803">
        <ele>20.8</ele>
        <time>2021-08-12T12:22:00Z</time>
      </trkpt>
      <trkpt lat="47.86822" lon="-3.88024">
        <ele>20.8</ele>
        <time>2021-08-12T12:22:01Z</time>
      </trkpt>
      <trkpt lat="47.86818" lon="-3.88019">
        <ele>20.6</ele>
        <time>2021-08-12T12:22:02Z</time>
      </trkpt>
      <trkpt lat="47.86815" lon="-3.88013">
        <ele>20.4</ele>
        <time>2021-08-12T12:22:03Z</time>
      </trkpt>
      <trkpt lat="47.86811" lon="-3.88008">
        <ele>20.2</ele>
        <time>2021-08-12T12:22:04Z</time>
      </trkpt>
      <trkpt lat="47.86808" lon="-3.88002">
        <ele>20.2</ele>
        <time>2021-08-12T12:22:05Z</time>
      </trkpt>
      <trkpt lat="47.86802" lon="-3.87992">
        <ele>20</ele>
        <time>2021-08-12T12:22:07Z</time>
      </trkpt>
      <trkpt lat="47.86799" lon="-3.87987">
        <ele>19.8</ele>
        <time>2021-08-12T12:22:08Z</time>
      </trkpt>
      <trkpt lat="47.86796" lon="-3.87982">
        <ele>19.6</ele>
        <time>2021-08-12T12:22:09Z</time>
      </trkpt>
      <trkpt lat="47.86793" lon="-3.87978">
        <ele>19.6</ele>
        <time>2021-08-12T12:22:10Z</time>
      </trkpt>
      <trkpt lat="47.86791" lon="-3.87973">
        <ele>19.4</ele>
        <time>2021-08-12T12:22:11Z</time>
      </trkpt>
      <trkpt lat="47.86788" lon="-3.8797">
        <ele>19.2</ele>
        <time>2021-08-12T12:22:12Z</time>
      </trkpt>
      <trkpt lat="47.86786" lon="-3.87966">
        <ele>19</ele>
        <time>2021-08-12T12:22:13Z</time>
      </trkpt>
      <trkpt lat="47.86784" lon="-3.87963">
        <ele>19</ele>
        <time>2021-08-12T12:22:14Z</time>
      </trkpt>
      <trkpt lat="47.86783" lon="-3.8796">
        <ele>18.8</ele>
        <time>2021-08-12T12:22:15Z</time>
      </trkpt>
      <trkpt lat="47.86781" lon="-3.87957">
        <ele>18.8</ele>
        <time>2021-08-12T12:22:16Z</time>
      </trkpt>
      <trkpt lat="47.86777" lon="-3.87949">
        <ele>18.6</ele>
        <time>2021-08-12T12:22:18Z</time>
      </trkpt>
      <trkpt lat="47.86774" lon="-3.87945">
        <ele>18.6</ele>
        <time>2021-08-12T12:22:19Z</time>
      </trkpt>
      <trkpt lat="47.86772" lon="-3.87941">
        <ele>18.6</ele>
        <time>2021-08-12T12:22:20Z</time>
      </trkpt>
      <trkpt lat="47.8677" lon="-3.87937">
        <ele>18.6</ele>
        <time>2021-08-12T12:22:21Z</time>
      </trkpt>
      <trkpt lat="47.86767" lon="-3.87933">
        <ele>18.4</ele>
        <time>2021-08-12T12:22:22Z</time>
      </trkpt>
      <trkpt lat="47.86766" lon="-3.8793">
        <ele>18.4</ele>
        <time>2021-08-12T12:22:23Z</time>
      </trkpt>
      <trkpt lat="47.86764" lon="-3.87926">
        <ele>18.2</ele>
        <time>2021-08-12T12:22:24Z</time>
      </trkpt>
      <trkpt lat="47.86762" lon="-3.87922">
        <ele>18.2</ele>
        <time>2021-08-12T12:22:25Z</time>
      </trkpt>
      <trkpt lat="47.86759" lon="-3.87918">
        <ele>18</ele>
        <time>2021-08-12T12:22:26Z</time>
      </trkpt>
      <trkpt lat="47.86757" lon="-3.87914">
        <ele>18</ele>
        <time>2021-08-12T12:22:27Z</time>
      </trkpt>
      <trkpt lat="47.86754" lon="-3.87909">
        <ele>18</ele>
        <time>2021-08-12T12:22:29Z</time>
      </trkpt>
      <trkpt lat="47.86752" lon="-3.87907">
        <ele>17.8</ele>
        <time>2021-08-12T12:22:30Z</time>
      </trkpt>
      <trkpt lat="47.86751" lon="-3.87904">
        <ele>17.8</ele>
        <time>2021-08-12T12:22:31Z</time>
      </trkpt>
      <trkpt lat="47.86748" lon="-3.879">
        <ele>17.8</ele>
        <time>2021-08-12T12:22:32Z</time>
      </trkpt>
      <trkpt lat="47.86747" lon="-3.87895">
        <ele>17.8</ele>
        <time>2021-08-12T12:22:33Z</time>
      </trkpt>
      <trkpt lat="47.86744" lon="-3.8789">
        <ele>17.8</ele>
        <time>2021-08-12T12:22:34Z</time>
      </trkpt>
      <trkpt lat="47.86742" lon="-3.87884">
        <ele>17.6</ele>
        <time>2021-08-12T12:22:35Z</time>
      </trkpt>
      <trkpt lat="47.8674" lon="-3.87881">
        <ele>17.6</ele>
        <time>2021-08-12T12:22:36Z</time>
      </trkpt>
      <trkpt lat="47.86738" lon="-3.87876">
        <ele>17.6</ele>
        <time>2021-08-12T12:22:37Z</time>
      </trkpt>
      <trkpt lat="47.86733" lon="-3.87868">
        <ele>17.2</ele>
        <time>2021-08-12T12:22:39Z</time>
      </trkpt>
      <trkpt lat="47.8673" lon="-3.87865">
        <ele>17</ele>
        <time>2021-08-12T12:22:40Z</time>
      </trkpt>
      <trkpt lat="47.86728" lon="-3.8786">
        <ele>17</ele>
        <time>2021-08-12T12:22:41Z</time>
      </trkpt>
      <trkpt lat="47.86725" lon="-3.87856">
        <ele>16.8</ele>
        <time>2021-08-12T12:22:42Z</time>
      </trkpt>
      <trkpt lat="47.86722" lon="-3.87851">
        <ele>16.8</ele>
        <time>2021-08-12T12:22:43Z</time>
      </trkpt>
      <trkpt lat="47.8672" lon="-3.87847">
        <ele>16.8</ele>
        <time>2021-08-12T12:22:44Z</time>
      </trkpt>
      <trkpt lat="47.86717" lon="-3.87841">
        <ele>16.6</ele>
        <time>2021-08-12T12:22:45Z</time>
      </trkpt>
      <trkpt lat="47.86715" lon="-3.87835">
        <ele>16.6</ele>
        <time>2021-08-12T12:22:46Z</time>
      </trkpt>
      <trkpt lat="47.86711" lon="-3.87829">
        <ele>16.6</ele>
        <time>2021-08-12T12:22:47Z</time>
      </trkpt>
      <trkpt lat="47.86709" lon="-3.87825">
        <ele>16.2</ele>
        <time>2021-08-12T12:22:48Z</time>
      </trkpt>
      <trkpt lat="47.86706" lon="-3.87821">
        <ele>16.2</ele>
        <time>2021-08-12T12:22:49Z</time>
      </trkpt>
      <trkpt lat="47.86702" lon="-3.87817">
        <ele>16.4</ele>
        <time>2021-08-12T12:22:50Z</time>
      </trkpt>
      <trkpt lat="47.86699" lon="-3.87813">
        <ele>16.2</ele>
        <time>2021-08-12T12:22:51Z</time>
      </trkpt>
      <trkpt lat="47.86696" lon="-3.87808">
        <ele>16</ele>
        <time>2021-08-12T12:22:52Z</time>
      </trkpt>
      <trkpt lat="47.86693" lon="-3.87803">
        <ele>16.2</ele>
        <time>2021-08-12T12:22:53Z</time>
      </trkpt>
      <trkpt lat="47.86689" lon="-3.87796">
        <ele>16</ele>
        <time>2021-08-12T12:22:54Z</time>
      </trkpt>
      <trkpt lat="47.86687" lon="-3.87791">
        <ele>15.8</ele>
        <time>2021-08-12T12:22:55Z</time>
      </trkpt>
      <trkpt lat="47.86684" lon="-3.87785">
        <ele>15.8</ele>
        <time>2021-08-12T12:22:56Z</time>
      </trkpt>
      <trkpt lat="47.8668" lon="-3.87779">
        <ele>15.6</ele>
        <time>2021-08-12T12:22:57Z</time>
      </trkpt>
      <trkpt lat="47.86676" lon="-3.87772">
        <ele>15.4</ele>
        <time>2021-08-12T12:22:58Z</time>
      </trkpt>
      <trkpt lat="47.86673" lon="-3.87766">
        <ele>15.4</ele>
        <time>2021-08-12T12:22:59Z</time>
      </trkpt>
      <trkpt lat="47.86666" lon="-3.87753">
        <ele>15</ele>
        <time>2021-08-12T12:23:01Z</time>
      </trkpt>
      <trkpt lat="47.86663" lon="-3.87748">
        <ele>14.8</ele>
        <time>2021-08-12T12:23:02Z</time>
      </trkpt>
      <trkpt lat="47.86661" lon="-3.87743">
        <ele>14.6</ele>
        <time>2021-08-12T12:23:03Z</time>
      </trkpt>
      <trkpt lat="47.86658" lon="-3.87737">
        <ele>14.6</ele>
        <time>2021-08-12T12:23:04Z</time>
      </trkpt>
      <trkpt lat="47.86656" lon="-3.87732">
        <ele>14.4</ele>
        <time>2021-08-12T12:23:05Z</time>
      </trkpt>
      <trkpt lat="47.86654" lon="-3.87727">
        <ele>14.4</ele>
        <time>2021-08-12T12:23:06Z</time>
      </trkpt>
      <trkpt lat="47.86651" lon="-3.87721">
        <ele>14.4</ele>
        <time>2021-08-12T12:23:07Z</time>
      </trkpt>
      <trkpt lat="47.86648" lon="-3.87714">
        <ele>14.2</ele>
        <time>2021-08-12T12:23:08Z</time>
      </trkpt>
      <trkpt lat="47.86644" lon="-3.87708">
        <ele>14.2</ele>
        <time>2021-08-12T12:23:09Z</time>
      </trkpt>
      <trkpt lat="47.86641" lon="-3.87702">
        <ele>14.2</ele>
        <time>2021-08-12T12:23:10Z</time>
      </trkpt>
      <trkpt lat="47.86633" lon="-3.8769">
        <ele>14</ele>
        <time>2021-08-12T12:23:12Z</time>
      </trkpt>
      <trkpt lat="47.86629" lon="-3.87684">
        <ele>14</ele>
        <time>2021-08-12T12:23:13Z</time>
      </trkpt>
      <trkpt lat="47.86626" lon="-3.87678">
        <ele>14</ele>
        <time>2021-08-12T12:23:14Z</time>
      </trkpt>
      <trkpt lat="47.86622" lon="-3.87672">
        <ele>14</ele>
        <time>2021-08-12T12:23:15Z</time>
      </trkpt>
      <trkpt lat="47.86618" lon="-3.87666">
        <ele>14</ele>
        <time>2021-08-12T12:23:16Z</time>
      </trkpt>
      <trkpt lat="47.86615" lon="-3.87661">
        <ele>13.8</ele>
        <time>2021-08-12T12:23:17Z</time>
      </trkpt>
      <trkpt lat="47.86611" lon="-3.87655">
        <ele>13.8</ele>
        <time>2021-08-12T12:23:18Z</time>
      </trkpt>
      <trkpt lat="47.86608" lon="-3.8765">
        <ele>13.6</ele>
        <time>2021-08-12T12:23:19Z</time>
      </trkpt>
      <trkpt lat="47.86605" lon="-3.87644">
        <ele>13.6</ele>
        <time>2021-08-12T12:23:20Z</time>
      </trkpt>
      <trkpt lat="47.86601" lon="-3.87638">
        <ele>13.6</ele>
        <time>2021-08-12T12:23:21Z</time>
      </trkpt>
      <trkpt lat="47.86595" lon="-3.87628">
        <ele>13.4</ele>
        <time>2021-08-12T12:23:23Z</time>
      </trkpt>
      <trkpt lat="47.86591" lon="-3.87622">
        <ele>13.4</ele>
        <time>2021-08-12T12:23:24Z</time>
      </trkpt>
      <trkpt lat="47.86587" lon="-3.87616">
        <ele>13.4</ele>
        <time>2021-08-12T12:23:25Z</time>
      </trkpt>
      <trkpt lat="47.86584" lon="-3.87609">
        <ele>13.4</ele>
        <time>2021-08-12T12:23:26Z</time>
      </trkpt>
      <trkpt lat="47.86581" lon="-3.87604">
        <ele>13.6</ele>
        <time>2021-08-12T12:23:27Z</time>
      </trkpt>
      <trkpt lat="47.86579" lon="-3.87598">
        <ele>13.6</ele>
        <time>2021-08-12T12:23:28Z</time>
      </trkpt>
      <trkpt lat="47.86576" lon="-3.87593">
        <ele>13.6</ele>
        <time>2021-08-12T12:23:29Z</time>
      </trkpt>
      <trkpt lat="47.86573" lon="-3.87589">
        <ele>13.6</ele>
        <time>2021-08-12T12:23:30Z</time>
      </trkpt>
      <trkpt lat="47.86571" lon="-3.87584">
        <ele>13.8</ele>
        <time>2021-08-12T12:23:31Z</time>
      </trkpt>
      <trkpt lat="47.86568" lon="-3.8758">
        <ele>13.8</ele>
        <time>2021-08-12T12:23:32Z</time>
      </trkpt>
      <trkpt lat="47.86563" lon="-3.87574">
        <ele>14.4</ele>
        <time>2021-08-12T12:23:34Z</time>
      </trkpt>
      <trkpt lat="47.86561" lon="-3.8757">
        <ele>14.6</ele>
        <time>2021-08-12T12:23:35Z</time>
      </trkpt>
      <trkpt lat="47.86559" lon="-3.87566">
        <ele>14.8</ele>
        <time>2021-08-12T12:23:36Z</time>
      </trkpt>
      <trkpt lat="47.86557" lon="-3.87562">
        <ele>14.8</ele>
        <time>2021-08-12T12:23:37Z</time>
      </trkpt>
      <trkpt lat="47.86555" lon="-3.87559">
        <ele>15</ele>
        <time>2021-08-12T12:23:38Z</time>
      </trkpt>
      <trkpt lat="47.86553" lon="-3.87555">
        <ele>15</ele>
        <time>2021-08-12T12:23:39Z</time>
      </trkpt>
      <trkpt lat="47.8655" lon="-3.87552">
        <ele>15.2</ele>
        <time>2021-08-12T12:23:40Z</time>
      </trkpt>
      <trkpt lat="47.86548" lon="-3.87548">
        <ele>15.2</ele>
        <time>2021-08-12T12:23:41Z</time>
      </trkpt>
      <trkpt lat="47.86546" lon="-3.87544">
        <ele>15.2</ele>
        <time>2021-08-12T12:23:42Z</time>
      </trkpt>
      <trkpt lat="47.86543" lon="-3.8754">
        <ele>15.4</ele>
        <time>2021-08-12T12:23:43Z</time>
      </trkpt>
      <trkpt lat="47.86538" lon="-3.87531">
        <ele>15.6</ele>
        <time>2021-08-12T12:23:45Z</time>
      </trkpt>
      <trkpt lat="47.86535" lon="-3.87526">
        <ele>15.6</ele>
        <time>2021-08-12T12:23:46Z</time>
      </trkpt>
      <trkpt lat="47.86533" lon="-3.87522">
        <ele>15.6</ele>
        <time>2021-08-12T12:23:47Z</time>
      </trkpt>
      <trkpt lat="47.86529" lon="-3.87517">
        <ele>15.8</ele>
        <time>2021-08-12T12:23:48Z</time>
      </trkpt>
      <trkpt lat="47.86526" lon="-3.87513">
        <ele>15.8</ele>
        <time>2021-08-12T12:23:49Z</time>
      </trkpt>
      <trkpt lat="47.86524" lon="-3.87508">
        <ele>15.8</ele>
        <time>2021-08-12T12:23:50Z</time>
      </trkpt>
      <trkpt lat="47.86521" lon="-3.87503">
        <ele>16</ele>
        <time>2021-08-12T12:23:51Z</time>
      </trkpt>
      <trkpt lat="47.86518" lon="-3.87497">
        <ele>16</ele>
        <time>2021-08-12T12:23:52Z</time>
      </trkpt>
      <trkpt lat="47.86516" lon="-3.87492">
        <ele>16</ele>
        <time>2021-08-12T12:23:53Z</time>
      </trkpt>
      <trkpt lat="47.86514" lon="-3.87488">
        <ele>16</ele>
        <time>2021-08-12T12:23:54Z</time>
      </trkpt>
      <trkpt lat="47.86509" lon="-3.8748">
        <ele>16</ele>
        <time>2021-08-12T12:23:56Z</time>
      </trkpt>
      <trkpt lat="47.86507" lon="-3.87477">
        <ele>16</ele>
        <time>2021-08-12T12:23:57Z</time>
      </trkpt>
      <trkpt lat="47.86505" lon="-3.87472">
        <ele>16</ele>
        <time>2021-08-12T12:23:58Z</time>
      </trkpt>
      <trkpt lat="47.86502" lon="-3.87468">
        <ele>16</ele>
        <time>2021-08-12T12:23:59Z</time>
      </trkpt>
      <trkpt lat="47.86499" lon="-3.87464">
        <ele>16</ele>
        <time>2021-08-12T12:24:00Z</time>
      </trkpt>
      <trkpt lat="47.86496" lon="-3.87459">
        <ele>16</ele>
        <time>2021-08-12T12:24:01Z</time>
      </trkpt>
      <trkpt lat="47.86493" lon="-3.87454">
        <ele>16</ele>
        <time>2021-08-12T12:24:02Z</time>
      </trkpt>
      <trkpt lat="47.8649" lon="-3.87449">
        <ele>15.8</ele>
        <time>2021-08-12T12:24:03Z</time>
      </trkpt>
      <trkpt lat="47.86487" lon="-3.87443">
        <ele>15.8</ele>
        <time>2021-08-12T12:24:04Z</time>
      </trkpt>
      <trkpt lat="47.86483" lon="-3.87437">
        <ele>15.8</ele>
        <time>2021-08-12T12:24:05Z</time>
      </trkpt>
      <trkpt lat="47.86475" lon="-3.87425">
        <ele>15.6</ele>
        <time>2021-08-12T12:24:07Z</time>
      </trkpt>
      <trkpt lat="47.86471" lon="-3.87418">
        <ele>15.6</ele>
        <time>2021-08-12T12:24:08Z</time>
      </trkpt>
      <trkpt lat="47.86467" lon="-3.8741">
        <ele>15.6</ele>
        <time>2021-08-12T12:24:09Z</time>
      </trkpt>
      <trkpt lat="47.86463" lon="-3.87403">
        <ele>15.4</ele>
        <time>2021-08-12T12:24:10Z</time>
      </trkpt>
      <trkpt lat="47.86458" lon="-3.87394">
        <ele>15.4</ele>
        <time>2021-08-12T12:24:11Z</time>
      </trkpt>
      <trkpt lat="47.86454" lon="-3.87387">
        <ele>15.2</ele>
        <time>2021-08-12T12:24:12Z</time>
      </trkpt>
      <trkpt lat="47.8645" lon="-3.87381">
        <ele>15.2</ele>
        <time>2021-08-12T12:24:13Z</time>
      </trkpt>
      <trkpt lat="47.86446" lon="-3.87373">
        <ele>15</ele>
        <time>2021-08-12T12:24:14Z</time>
      </trkpt>
      <trkpt lat="47.86443" lon="-3.87365">
        <ele>14.8</ele>
        <time>2021-08-12T12:24:15Z</time>
      </trkpt>
      <trkpt lat="47.86438" lon="-3.87357">
        <ele>14.4</ele>
        <time>2021-08-12T12:24:16Z</time>
      </trkpt>
      <trkpt lat="47.8643" lon="-3.87343">
        <ele>14</ele>
        <time>2021-08-12T12:24:18Z</time>
      </trkpt>
      <trkpt lat="47.86425" lon="-3.87335">
        <ele>14</ele>
        <time>2021-08-12T12:24:19Z</time>
      </trkpt>
      <trkpt lat="47.86421" lon="-3.87328">
        <ele>13.8</ele>
        <time>2021-08-12T12:24:20Z</time>
      </trkpt>
      <trkpt lat="47.86416" lon="-3.8732">
        <ele>13.6</ele>
        <time>2021-08-12T12:24:21Z</time>
      </trkpt>
      <trkpt lat="47.86412" lon="-3.87312">
        <ele>13.4</ele>
        <time>2021-08-12T12:24:22Z</time>
      </trkpt>
      <trkpt lat="47.86408" lon="-3.87305">
        <ele>13.2</ele>
        <time>2021-08-12T12:24:23Z</time>
      </trkpt>
      <trkpt lat="47.86404" lon="-3.87298">
        <ele>12.2</ele>
        <time>2021-08-12T12:24:24Z</time>
      </trkpt>
      <trkpt lat="47.86399" lon="-3.87289">
        <ele>11.6</ele>
        <time>2021-08-12T12:24:25Z</time>
      </trkpt>
      <trkpt lat="47.86395" lon="-3.87281">
        <ele>11.4</ele>
        <time>2021-08-12T12:24:26Z</time>
      </trkpt>
      <trkpt lat="47.8639" lon="-3.87273">
        <ele>11.2</ele>
        <time>2021-08-12T12:24:27Z</time>
      </trkpt>
      <trkpt lat="47.86385" lon="-3.87265">
        <ele>11</ele>
        <time>2021-08-12T12:24:28Z</time>
      </trkpt>
      <trkpt lat="47.86381" lon="-3.87258">
        <ele>10.6</ele>
        <time>2021-08-12T12:24:29Z</time>
      </trkpt>
      <trkpt lat="47.86377" lon="-3.87251">
        <ele>10.4</ele>
        <time>2021-08-12T12:24:30Z</time>
      </trkpt>
      <trkpt lat="47.86373" lon="-3.87243">
        <ele>10.2</ele>
        <time>2021-08-12T12:24:31Z</time>
      </trkpt>
      <trkpt lat="47.86369" lon="-3.87236">
        <ele>10.2</ele>
        <time>2021-08-12T12:24:32Z</time>
      </trkpt>
      <trkpt lat="47.86365" lon="-3.87229">
        <ele>10</ele>
        <time>2021-08-12T12:24:33Z</time>
      </trkpt>
      <trkpt lat="47.86361" lon="-3.87222">
        <ele>10</ele>
        <time>2021-08-12T12:24:34Z</time>
      </trkpt>
      <trkpt lat="47.86358" lon="-3.87215">
        <ele>10</ele>
        <time>2021-08-12T12:24:35Z</time>
      </trkpt>
      <trkpt lat="47.86354" lon="-3.87208">
        <ele>10</ele>
        <time>2021-08-12T12:24:36Z</time>
      </trkpt>
      <trkpt lat="47.8635" lon="-3.87202">
        <ele>10</ele>
        <time>2021-08-12T12:24:37Z</time>
      </trkpt>
      <trkpt lat="47.86347" lon="-3.87195">
        <ele>10</ele>
        <time>2021-08-12T12:24:38Z</time>
      </trkpt>
      <trkpt lat="47.86339" lon="-3.87182">
        <ele>10</ele>
        <time>2021-08-12T12:24:40Z</time>
      </trkpt>
      <trkpt lat="47.86336" lon="-3.87177">
        <ele>10</ele>
        <time>2021-08-12T12:24:41Z</time>
      </trkpt>
      <trkpt lat="47.86333" lon="-3.87171">
        <ele>10</ele>
        <time>2021-08-12T12:24:42Z</time>
      </trkpt>
      <trkpt lat="47.86329" lon="-3.87164">
        <ele>10</ele>
        <time>2021-08-12T12:24:43Z</time>
      </trkpt>
      <trkpt lat="47.86325" lon="-3.87157">
        <ele>10</ele>
        <time>2021-08-12T12:24:44Z</time>
      </trkpt>
      <trkpt lat="47.86321" lon="-3.8715">
        <ele>10</ele>
        <time>2021-08-12T12:24:45Z</time>
      </trkpt>
      <trkpt lat="47.86317" lon="-3.87143">
        <ele>10</ele>
        <time>2021-08-12T12:24:46Z</time>
      </trkpt>
      <trkpt lat="47.86314" lon="-3.87137">
        <ele>10</ele>
        <time>2021-08-12T12:24:47Z</time>
      </trkpt>
      <trkpt lat="47.8631" lon="-3.8713">
        <ele>10</ele>
        <time>2021-08-12T12:24:48Z</time>
      </trkpt>
      <trkpt lat="47.86306" lon="-3.87124">
        <ele>9.8</ele>
        <time>2021-08-12T12:24:49Z</time>
      </trkpt>
      <trkpt lat="47.863" lon="-3.87112">
        <ele>9.8</ele>
        <time>2021-08-12T12:24:51Z</time>
      </trkpt>
      <trkpt lat="47.86297" lon="-3.87107">
        <ele>9.4</ele>
        <time>2021-08-12T12:24:52Z</time>
      </trkpt>
      <trkpt lat="47.86294" lon="-3.871">
        <ele>9.2</ele>
        <time>2021-08-12T12:24:53Z</time>
      </trkpt>
      <trkpt lat="47.8629" lon="-3.87093">
        <ele>8.6</ele>
        <time>2021-08-12T12:24:54Z</time>
      </trkpt>
      <trkpt lat="47.86287" lon="-3.87086">
        <ele>8.6</ele>
        <time>2021-08-12T12:24:55Z</time>
      </trkpt>
      <trkpt lat="47.86283" lon="-3.87079">
        <ele>8.6</ele>
        <time>2021-08-12T12:24:56Z</time>
      </trkpt>
      <trkpt lat="47.8628" lon="-3.87073">
        <ele>8.6</ele>
        <time>2021-08-12T12:24:57Z</time>
      </trkpt>
      <trkpt lat="47.86276" lon="-3.87066">
        <ele>8.4</ele>
        <time>2021-08-12T12:24:58Z</time>
      </trkpt>
      <trkpt lat="47.86272" lon="-3.8706">
        <ele>8.4</ele>
        <time>2021-08-12T12:24:59Z</time>
      </trkpt>
      <trkpt lat="47.86269" lon="-3.87055">
        <ele>8.2</ele>
        <time>2021-08-12T12:25:00Z</time>
      </trkpt>
      <trkpt lat="47.86265" lon="-3.87049">
        <ele>8</ele>
        <time>2021-08-12T12:25:01Z</time>
      </trkpt>
      <trkpt lat="47.8626" lon="-3.87041">
        <ele>8</ele>
        <time>2021-08-12T12:25:02Z</time>
      </trkpt>
      <trkpt lat="47.86256" lon="-3.87034">
        <ele>7.8</ele>
        <time>2021-08-12T12:25:03Z</time>
      </trkpt>
      <trkpt lat="47.86253" lon="-3.87027">
        <ele>7.6</ele>
        <time>2021-08-12T12:25:04Z</time>
      </trkpt>
      <trkpt lat="47.86249" lon="-3.8702">
        <ele>7.4</ele>
        <time>2021-08-12T12:25:05Z</time>
      </trkpt>
      <trkpt lat="47.86246" lon="-3.87016">
        <ele>7.4</ele>
        <time>2021-08-12T12:25:06Z</time>
      </trkpt>
      <trkpt lat="47.86243" lon="-3.87011">
        <ele>7.2</ele>
        <time>2021-08-12T12:25:07Z</time>
      </trkpt>
      <trkpt lat="47.8624" lon="-3.87005">
        <ele>7.2</ele>
        <time>2021-08-12T12:25:08Z</time>
      </trkpt>
      <trkpt lat="47.86236" lon="-3.86997">
        <ele>7</ele>
        <time>2021-08-12T12:25:09Z</time>
      </trkpt>
      <trkpt lat="47.86232" lon="-3.8699">
        <ele>6.6</ele>
        <time>2021-08-12T12:25:10Z</time>
      </trkpt>
      <trkpt lat="47.86228" lon="-3.86983">
        <ele>6.4</ele>
        <time>2021-08-12T12:25:11Z</time>
      </trkpt>
      <trkpt lat="47.86224" lon="-3.86977">
        <ele>6.4</ele>
        <time>2021-08-12T12:25:12Z</time>
      </trkpt>
      <trkpt lat="47.8622" lon="-3.8697">
        <ele>6.4</ele>
        <time>2021-08-12T12:25:13Z</time>
      </trkpt>
      <trkpt lat="47.86216" lon="-3.86963">
        <ele>6.2</ele>
        <time>2021-08-12T12:25:14Z</time>
      </trkpt>
      <trkpt lat="47.86212" lon="-3.86957">
        <ele>6.2</ele>
        <time>2021-08-12T12:25:15Z</time>
      </trkpt>
      <trkpt lat="47.86209" lon="-3.86951">
        <ele>6.2</ele>
        <time>2021-08-12T12:25:16Z</time>
      </trkpt>
      <trkpt lat="47.86206" lon="-3.86945">
        <ele>6.2</ele>
        <time>2021-08-12T12:25:17Z</time>
      </trkpt>
      <trkpt lat="47.86203" lon="-3.86939">
        <ele>6.2</ele>
        <time>2021-08-12T12:25:18Z</time>
      </trkpt>
      <trkpt lat="47.86201" lon="-3.86934">
        <ele>6.2</ele>
        <time>2021-08-12T12:25:19Z</time>
      </trkpt>
      <trkpt lat="47.86199" lon="-3.86929">
        <ele>6.2</ele>
        <time>2021-08-12T12:25:20Z</time>
      </trkpt>
      <trkpt lat="47.86196" lon="-3.86924">
        <ele>6.2</ele>
        <time>2021-08-12T12:25:21Z</time>
      </trkpt>
      <trkpt lat="47.86193" lon="-3.86919">
        <ele>6.4</ele>
        <time>2021-08-12T12:25:22Z</time>
      </trkpt>
      <trkpt lat="47.86183" lon="-3.86903">
        <ele>6.6</ele>
        <time>2021-08-12T12:25:24Z</time>
      </trkpt>
      <trkpt lat="47.86178" lon="-3.86894">
        <ele>6.6</ele>
        <time>2021-08-12T12:25:25Z</time>
      </trkpt>
      <trkpt lat="47.86173" lon="-3.86886">
        <ele>6.6</ele>
        <time>2021-08-12T12:25:26Z</time>
      </trkpt>
      <trkpt lat="47.86169" lon="-3.86879">
        <ele>6.8</ele>
        <time>2021-08-12T12:25:27Z</time>
      </trkpt>
      <trkpt lat="47.86166" lon="-3.86871">
        <ele>6.8</ele>
        <time>2021-08-12T12:25:28Z</time>
      </trkpt>
      <trkpt lat="47.86162" lon="-3.86864">
        <ele>6.8</ele>
        <time>2021-08-12T12:25:29Z</time>
      </trkpt>
      <trkpt lat="47.86158" lon="-3.86856">
        <ele>6.8</ele>
        <time>2021-08-12T12:25:30Z</time>
      </trkpt>
      <trkpt lat="47.86153" lon="-3.86848">
        <ele>6.8</ele>
        <time>2021-08-12T12:25:31Z</time>
      </trkpt>
      <trkpt lat="47.86149" lon="-3.86841">
        <ele>6.8</ele>
        <time>2021-08-12T12:25:32Z</time>
      </trkpt>
      <trkpt lat="47.86143" lon="-3.86832">
        <ele>6.8</ele>
        <time>2021-08-12T12:25:33Z</time>
      </trkpt>
      <trkpt lat="47.86133" lon="-3.86815">
        <ele>6.8</ele>
        <time>2021-08-12T12:25:35Z</time>
      </trkpt>
      <trkpt lat="47.86128" lon="-3.86807">
        <ele>6.6</ele>
        <time>2021-08-12T12:25:36Z</time>
      </trkpt>
      <trkpt lat="47.86124" lon="-3.86798">
        <ele>6.6</ele>
        <time>2021-08-12T12:25:37Z</time>
      </trkpt>
      <trkpt lat="47.8612" lon="-3.8679">
        <ele>6.6</ele>
        <time>2021-08-12T12:25:38Z</time>
      </trkpt>
      <trkpt lat="47.86115" lon="-3.86783">
        <ele>6.6</ele>
        <time>2021-08-12T12:25:39Z</time>
      </trkpt>
      <trkpt lat="47.86111" lon="-3.86775">
        <ele>6.6</ele>
        <time>2021-08-12T12:25:40Z</time>
      </trkpt>
      <trkpt lat="47.86106" lon="-3.86768">
        <ele>6.6</ele>
        <time>2021-08-12T12:25:41Z</time>
      </trkpt>
      <trkpt lat="47.86103" lon="-3.86761">
        <ele>6.4</ele>
        <time>2021-08-12T12:25:42Z</time>
      </trkpt>
      <trkpt lat="47.86099" lon="-3.86755">
        <ele>6.4</ele>
        <time>2021-08-12T12:25:43Z</time>
      </trkpt>
      <trkpt lat="47.86096" lon="-3.8675">
        <ele>6.4</ele>
        <time>2021-08-12T12:25:44Z</time>
      </trkpt>
      <trkpt lat="47.86088" lon="-3.86735">
        <ele>6.4</ele>
        <time>2021-08-12T12:25:46Z</time>
      </trkpt>
      <trkpt lat="47.86084" lon="-3.86729">
        <ele>6.4</ele>
        <time>2021-08-12T12:25:47Z</time>
      </trkpt>
      <trkpt lat="47.8608" lon="-3.86721">
        <ele>6.6</ele>
        <time>2021-08-12T12:25:48Z</time>
      </trkpt>
      <trkpt lat="47.86076" lon="-3.86715">
        <ele>6.6</ele>
        <time>2021-08-12T12:25:49Z</time>
      </trkpt>
      <trkpt lat="47.86072" lon="-3.86708">
        <ele>6.4</ele>
        <time>2021-08-12T12:25:50Z</time>
      </trkpt>
      <trkpt lat="47.86069" lon="-3.86702">
        <ele>6.4</ele>
        <time>2021-08-12T12:25:51Z</time>
      </trkpt>
      <trkpt lat="47.86065" lon="-3.86696">
        <ele>6.6</ele>
        <time>2021-08-12T12:25:52Z</time>
      </trkpt>
      <trkpt lat="47.86062" lon="-3.8669">
        <ele>6.6</ele>
        <time>2021-08-12T12:25:53Z</time>
      </trkpt>
      <trkpt lat="47.86058" lon="-3.86685">
        <ele>6.6</ele>
        <time>2021-08-12T12:25:54Z</time>
      </trkpt>
      <trkpt lat="47.86055" lon="-3.86679">
        <ele>6.8</ele>
        <time>2021-08-12T12:25:55Z</time>
      </trkpt>
      <trkpt lat="47.86048" lon="-3.86668">
        <ele>7</ele>
        <time>2021-08-12T12:25:57Z</time>
      </trkpt>
      <trkpt lat="47.86045" lon="-3.86662">
        <ele>7.2</ele>
        <time>2021-08-12T12:25:58Z</time>
      </trkpt>
      <trkpt lat="47.86042" lon="-3.86657">
        <ele>7.4</ele>
        <time>2021-08-12T12:25:59Z</time>
      </trkpt>
      <trkpt lat="47.86039" lon="-3.86651">
        <ele>7.6</ele>
        <time>2021-08-12T12:26:00Z</time>
      </trkpt>
      <trkpt lat="47.86036" lon="-3.86645">
        <ele>7.8</ele>
        <time>2021-08-12T12:26:01Z</time>
      </trkpt>
      <trkpt lat="47.86033" lon="-3.86639">
        <ele>7.8</ele>
        <time>2021-08-12T12:26:02Z</time>
      </trkpt>
      <trkpt lat="47.8603" lon="-3.86633">
        <ele>8</ele>
        <time>2021-08-12T12:26:03Z</time>
      </trkpt>
      <trkpt lat="47.86027" lon="-3.86628">
        <ele>8</ele>
        <time>2021-08-12T12:26:04Z</time>
      </trkpt>
      <trkpt lat="47.86024" lon="-3.86623">
        <ele>8.2</ele>
        <time>2021-08-12T12:26:05Z</time>
      </trkpt>
      <trkpt lat="47.86021" lon="-3.86617">
        <ele>8.4</ele>
        <time>2021-08-12T12:26:06Z</time>
      </trkpt>
      <trkpt lat="47.86018" lon="-3.86612">
        <ele>8.6</ele>
        <time>2021-08-12T12:26:07Z</time>
      </trkpt>
      <trkpt lat="47.86016" lon="-3.86607">
        <ele>8.8</ele>
        <time>2021-08-12T12:26:08Z</time>
      </trkpt>
      <trkpt lat="47.86013" lon="-3.86601">
        <ele>8.8</ele>
        <time>2021-08-12T12:26:09Z</time>
      </trkpt>
      <trkpt lat="47.8601" lon="-3.86596">
        <ele>9</ele>
        <time>2021-08-12T12:26:10Z</time>
      </trkpt>
      <trkpt lat="47.86007" lon="-3.86592">
        <ele>9</ele>
        <time>2021-08-12T12:26:11Z</time>
      </trkpt>
      <trkpt lat="47.86004" lon="-3.86588">
        <ele>9</ele>
        <time>2021-08-12T12:26:12Z</time>
      </trkpt>
      <trkpt lat="47.86001" lon="-3.86584">
        <ele>9.2</ele>
        <time>2021-08-12T12:26:13Z</time>
      </trkpt>
      <trkpt lat="47.85998" lon="-3.86579">
        <ele>9.4</ele>
        <time>2021-08-12T12:26:14Z</time>
      </trkpt>
      <trkpt lat="47.85996" lon="-3.86576">
        <ele>9.4</ele>
        <time>2021-08-12T12:26:15Z</time>
      </trkpt>
      <trkpt lat="47.85994" lon="-3.86573">
        <ele>9.4</ele>
        <time>2021-08-12T12:26:16Z</time>
      </trkpt>
      <trkpt lat="47.85992" lon="-3.86569">
        <ele>9.6</ele>
        <time>2021-08-12T12:26:17Z</time>
      </trkpt>
      <trkpt lat="47.85988" lon="-3.8656">
        <ele>9.6</ele>
        <time>2021-08-12T12:26:19Z</time>
      </trkpt>
      <trkpt lat="47.85986" lon="-3.86556">
        <ele>9.8</ele>
        <time>2021-08-12T12:26:20Z</time>
      </trkpt>
      <trkpt lat="47.85983" lon="-3.86553">
        <ele>9.8</ele>
        <time>2021-08-12T12:26:21Z</time>
      </trkpt>
      <trkpt lat="47.85981" lon="-3.86549">
        <ele>10</ele>
        <time>2021-08-12T12:26:22Z</time>
      </trkpt>
      <trkpt lat="47.85979" lon="-3.86544">
        <ele>10.2</ele>
        <time>2021-08-12T12:26:23Z</time>
      </trkpt>
      <trkpt lat="47.85976" lon="-3.8654">
        <ele>10.4</ele>
        <time>2021-08-12T12:26:24Z</time>
      </trkpt>
      <trkpt lat="47.85974" lon="-3.86536">
        <ele>10.6</ele>
        <time>2021-08-12T12:26:25Z</time>
      </trkpt>
      <trkpt lat="47.85972" lon="-3.86531">
        <ele>10.8</ele>
        <time>2021-08-12T12:26:26Z</time>
      </trkpt>
      <trkpt lat="47.8597" lon="-3.86526">
        <ele>10.8</ele>
        <time>2021-08-12T12:26:27Z</time>
      </trkpt>
      <trkpt lat="47.85968" lon="-3.86521">
        <ele>11</ele>
        <time>2021-08-12T12:26:28Z</time>
      </trkpt>
      <trkpt lat="47.85965" lon="-3.8651">
        <ele>11.2</ele>
        <time>2021-08-12T12:26:30Z</time>
      </trkpt>
      <trkpt lat="47.85963" lon="-3.86504">
        <ele>11.2</ele>
        <time>2021-08-12T12:26:31Z</time>
      </trkpt>
      <trkpt lat="47.85962" lon="-3.865">
        <ele>11.4</ele>
        <time>2021-08-12T12:26:32Z</time>
      </trkpt>
      <trkpt lat="47.85961" lon="-3.86496">
        <ele>11.4</ele>
        <time>2021-08-12T12:26:33Z</time>
      </trkpt>
      <trkpt lat="47.8596" lon="-3.86493">
        <ele>11.4</ele>
        <time>2021-08-12T12:26:34Z</time>
      </trkpt>
      <trkpt lat="47.85959" lon="-3.8649">
        <ele>11.4</ele>
        <time>2021-08-12T12:26:35Z</time>
      </trkpt>
      <trkpt lat="47.85958" lon="-3.86486">
        <ele>11.6</ele>
        <time>2021-08-12T12:26:36Z</time>
      </trkpt>
      <trkpt lat="47.85957" lon="-3.86481">
        <ele>11.8</ele>
        <time>2021-08-12T12:26:37Z</time>
      </trkpt>
      <trkpt lat="47.85955" lon="-3.86478">
        <ele>11.8</ele>
        <time>2021-08-12T12:26:38Z</time>
      </trkpt>
      <trkpt lat="47.85954" lon="-3.86474">
        <ele>12.2</ele>
        <time>2021-08-12T12:26:39Z</time>
      </trkpt>
      <trkpt lat="47.85953" lon="-3.86467">
        <ele>12.8</ele>
        <time>2021-08-12T12:26:41Z</time>
      </trkpt>
      <trkpt lat="47.85952" lon="-3.86464">
        <ele>13</ele>
        <time>2021-08-12T12:26:42Z</time>
      </trkpt>
      <trkpt lat="47.85951" lon="-3.86461">
        <ele>13.2</ele>
        <time>2021-08-12T12:26:43Z</time>
      </trkpt>
      <trkpt lat="47.8595" lon="-3.86457">
        <ele>13.4</ele>
        <time>2021-08-12T12:26:44Z</time>
      </trkpt>
      <trkpt lat="47.85948" lon="-3.86452">
        <ele>13.4</ele>
        <time>2021-08-12T12:26:45Z</time>
      </trkpt>
      <trkpt lat="47.85947" lon="-3.86447">
        <ele>13.6</ele>
        <time>2021-08-12T12:26:46Z</time>
      </trkpt>
      <trkpt lat="47.85947" lon="-3.86441">
        <ele>13.8</ele>
        <time>2021-08-12T12:26:47Z</time>
      </trkpt>
      <trkpt lat="47.85947" lon="-3.86436">
        <ele>13.8</ele>
        <time>2021-08-12T12:26:48Z</time>
      </trkpt>
      <trkpt lat="47.85946" lon="-3.8643">
        <ele>13.8</ele>
        <time>2021-08-12T12:26:49Z</time>
      </trkpt>
      <trkpt lat="47.85946" lon="-3.86425">
        <ele>13.8</ele>
        <time>2021-08-12T12:26:50Z</time>
      </trkpt>
      <trkpt lat="47.85945" lon="-3.86415">
        <ele>14</ele>
        <time>2021-08-12T12:26:52Z</time>
      </trkpt>
      <trkpt lat="47.85945" lon="-3.86409">
        <ele>14</ele>
        <time>2021-08-12T12:26:53Z</time>
      </trkpt>
      <trkpt lat="47.85944" lon="-3.86403">
        <ele>14</ele>
        <time>2021-08-12T12:26:54Z</time>
      </trkpt>
      <trkpt lat="47.85944" lon="-3.86397">
        <ele>14</ele>
        <time>2021-08-12T12:26:55Z</time>
      </trkpt>
      <trkpt lat="47.85943" lon="-3.86391">
        <ele>14</ele>
        <time>2021-08-12T12:26:56Z</time>
      </trkpt>
      <trkpt lat="47.85943" lon="-3.86387">
        <ele>14</ele>
        <time>2021-08-12T12:26:57Z</time>
      </trkpt>
      <trkpt lat="47.85943" lon="-3.86382">
        <ele>14</ele>
        <time>2021-08-12T12:26:58Z</time>
      </trkpt>
      <trkpt lat="47.85943" lon="-3.86377">
        <ele>14</ele>
        <time>2021-08-12T12:26:59Z</time>
      </trkpt>
      <trkpt lat="47.85943" lon="-3.86372">
        <ele>14</ele>
        <time>2021-08-12T12:27:00Z</time>
      </trkpt>
      <trkpt lat="47.85943" lon="-3.86368">
        <ele>14</ele>
        <time>2021-08-12T12:27:01Z</time>
      </trkpt>
      <trkpt lat="47.85944" lon="-3.86364">
        <ele>14</ele>
        <time>2021-08-12T12:27:02Z</time>
      </trkpt>
      <trkpt lat="47.85944" lon="-3.86359">
        <ele>14</ele>
        <time>2021-08-12T12:27:03Z</time>
      </trkpt>
      <trkpt lat="47.85945" lon="-3.86354">
        <ele>14.2</ele>
        <time>2021-08-12T12:27:04Z</time>
      </trkpt>
      <trkpt lat="47.85946" lon="-3.86348">
        <ele>14.2</ele>
        <time>2021-08-12T12:27:05Z</time>
      </trkpt>
      <trkpt lat="47.85946" lon="-3.86343">
        <ele>14.2</ele>
        <time>2021-08-12T12:27:06Z</time>
      </trkpt>
      <trkpt lat="47.85946" lon="-3.86336">
        <ele>14.4</ele>
        <time>2021-08-12T12:27:07Z</time>
      </trkpt>
      <trkpt lat="47.85946" lon="-3.8633">
        <ele>14.4</ele>
        <time>2021-08-12T12:27:08Z</time>
      </trkpt>
      <trkpt lat="47.85946" lon="-3.86324">
        <ele>14.6</ele>
        <time>2021-08-12T12:27:09Z</time>
      </trkpt>
      <trkpt lat="47.85946" lon="-3.8632">
        <ele>14.6</ele>
        <time>2021-08-12T12:27:10Z</time>
      </trkpt>
      <trkpt lat="47.85947" lon="-3.86317">
        <ele>14.8</ele>
        <time>2021-08-12T12:27:11Z</time>
      </trkpt>
      <trkpt lat="47.85948" lon="-3.86312">
        <ele>14.8</ele>
        <time>2021-08-12T12:27:12Z</time>
      </trkpt>
      <trkpt lat="47.85948" lon="-3.86307">
        <ele>14.8</ele>
        <time>2021-08-12T12:27:13Z</time>
      </trkpt>
      <trkpt lat="47.85948" lon="-3.86301">
        <ele>14.8</ele>
        <time>2021-08-12T12:27:14Z</time>
      </trkpt>
      <trkpt lat="47.85947" lon="-3.86295">
        <ele>15</ele>
        <time>2021-08-12T12:27:15Z</time>
      </trkpt>
      <trkpt lat="47.85947" lon="-3.8629">
        <ele>15.2</ele>
        <time>2021-08-12T12:27:16Z</time>
      </trkpt>
      <trkpt lat="47.85947" lon="-3.86284">
        <ele>15.2</ele>
        <time>2021-08-12T12:27:17Z</time>
      </trkpt>
      <trkpt lat="47.85947" lon="-3.86279">
        <ele>15.4</ele>
        <time>2021-08-12T12:27:18Z</time>
      </trkpt>
      <trkpt lat="47.85948" lon="-3.86274">
        <ele>15.4</ele>
        <time>2021-08-12T12:27:19Z</time>
      </trkpt>
      <trkpt lat="47.85948" lon="-3.86268">
        <ele>15.6</ele>
        <time>2021-08-12T12:27:20Z</time>
      </trkpt>
      <trkpt lat="47.85947" lon="-3.86262">
        <ele>15.6</ele>
        <time>2021-08-12T12:27:21Z</time>
      </trkpt>
      <trkpt lat="47.85947" lon="-3.86256">
        <ele>15.6</ele>
        <time>2021-08-12T12:27:22Z</time>
      </trkpt>
      <trkpt lat="47.85948" lon="-3.8625">
        <ele>15.6</ele>
        <time>2021-08-12T12:27:23Z</time>
      </trkpt>
      <trkpt lat="47.85949" lon="-3.86238">
        <ele>15.8</ele>
        <time>2021-08-12T12:27:25Z</time>
      </trkpt>
      <trkpt lat="47.8595" lon="-3.86233">
        <ele>15.8</ele>
        <time>2021-08-12T12:27:26Z</time>
      </trkpt>
      <trkpt lat="47.85951" lon="-3.86228">
        <ele>15.8</ele>
        <time>2021-08-12T12:27:27Z</time>
      </trkpt>
      <trkpt lat="47.85952" lon="-3.86223">
        <ele>16</ele>
        <time>2021-08-12T12:27:28Z</time>
      </trkpt>
      <trkpt lat="47.85953" lon="-3.86218">
        <ele>16</ele>
        <time>2021-08-12T12:27:29Z</time>
      </trkpt>
      <trkpt lat="47.85953" lon="-3.86213">
        <ele>16.2</ele>
        <time>2021-08-12T12:27:30Z</time>
      </trkpt>
      <trkpt lat="47.85954" lon="-3.86207">
        <ele>16.2</ele>
        <time>2021-08-12T12:27:31Z</time>
      </trkpt>
      <trkpt lat="47.85954" lon="-3.86201">
        <ele>16.4</ele>
        <time>2021-08-12T12:27:32Z</time>
      </trkpt>
      <trkpt lat="47.85955" lon="-3.86195">
        <ele>16.4</ele>
        <time>2021-08-12T12:27:33Z</time>
      </trkpt>
      <trkpt lat="47.85955" lon="-3.86183">
        <ele>16.6</ele>
        <time>2021-08-12T12:27:35Z</time>
      </trkpt>
      <trkpt lat="47.85956" lon="-3.86177">
        <ele>16.8</ele>
        <time>2021-08-12T12:27:36Z</time>
      </trkpt>
      <trkpt lat="47.85956" lon="-3.86171">
        <ele>16.8</ele>
        <time>2021-08-12T12:27:37Z</time>
      </trkpt>
      <trkpt lat="47.85956" lon="-3.86166">
        <ele>16.8</ele>
        <time>2021-08-12T12:27:38Z</time>
      </trkpt>
      <trkpt lat="47.85955" lon="-3.8616">
        <ele>17</ele>
        <time>2021-08-12T12:27:39Z</time>
      </trkpt>
      <trkpt lat="47.85955" lon="-3.86155">
        <ele>17</ele>
        <time>2021-08-12T12:27:40Z</time>
      </trkpt>
      <trkpt lat="47.85955" lon="-3.8615">
        <ele>17</ele>
        <time>2021-08-12T12:27:41Z</time>
      </trkpt>
      <trkpt lat="47.85955" lon="-3.86145">
        <ele>17</ele>
        <time>2021-08-12T12:27:42Z</time>
      </trkpt>
      <trkpt lat="47.85954" lon="-3.8614">
        <ele>17.2</ele>
        <time>2021-08-12T12:27:43Z</time>
      </trkpt>
      <trkpt lat="47.85954" lon="-3.86136">
        <ele>17.2</ele>
        <time>2021-08-12T12:27:44Z</time>
      </trkpt>
      <trkpt lat="47.85955" lon="-3.86129">
        <ele>17.4</ele>
        <time>2021-08-12T12:27:46Z</time>
      </trkpt>
      <trkpt lat="47.85954" lon="-3.86125">
        <ele>17.6</ele>
        <time>2021-08-12T12:27:47Z</time>
      </trkpt>
      <trkpt lat="47.85954" lon="-3.86121">
        <ele>17.8</ele>
        <time>2021-08-12T12:27:48Z</time>
      </trkpt>
      <trkpt lat="47.85954" lon="-3.86117">
        <ele>17.8</ele>
        <time>2021-08-12T12:27:49Z</time>
      </trkpt>
      <trkpt lat="47.85953" lon="-3.86114">
        <ele>17.8</ele>
        <time>2021-08-12T12:27:50Z</time>
      </trkpt>
      <trkpt lat="47.85953" lon="-3.8611">
        <ele>18</ele>
        <time>2021-08-12T12:27:51Z</time>
      </trkpt>
      <trkpt lat="47.85952" lon="-3.86107">
        <ele>18</ele>
        <time>2021-08-12T12:27:52Z</time>
      </trkpt>
      <trkpt lat="47.85952" lon="-3.86103">
        <ele>18</ele>
        <time>2021-08-12T12:27:53Z</time>
      </trkpt>
      <trkpt lat="47.85951" lon="-3.86098">
        <ele>18</ele>
        <time>2021-08-12T12:27:54Z</time>
      </trkpt>
      <trkpt lat="47.8595" lon="-3.86094">
        <ele>18.2</ele>
        <time>2021-08-12T12:27:55Z</time>
      </trkpt>
      <trkpt lat="47.85947" lon="-3.86085">
        <ele>18.2</ele>
        <time>2021-08-12T12:27:57Z</time>
      </trkpt>
      <trkpt lat="47.85946" lon="-3.86081">
        <ele>18.4</ele>
        <time>2021-08-12T12:27:58Z</time>
      </trkpt>
      <trkpt lat="47.85944" lon="-3.86077">
        <ele>18.4</ele>
        <time>2021-08-12T12:27:59Z</time>
      </trkpt>
      <trkpt lat="47.85942" lon="-3.86072">
        <ele>18.6</ele>
        <time>2021-08-12T12:28:00Z</time>
      </trkpt>
      <trkpt lat="47.8594" lon="-3.86069">
        <ele>18.8</ele>
        <time>2021-08-12T12:28:01Z</time>
      </trkpt>
      <trkpt lat="47.85939" lon="-3.86065">
        <ele>18.8</ele>
        <time>2021-08-12T12:28:02Z</time>
      </trkpt>
      <trkpt lat="47.85937" lon="-3.8606">
        <ele>18.8</ele>
        <time>2021-08-12T12:28:03Z</time>
      </trkpt>
      <trkpt lat="47.85936" lon="-3.86056">
        <ele>19</ele>
        <time>2021-08-12T12:28:04Z</time>
      </trkpt>
      <trkpt lat="47.85935" lon="-3.86053">
        <ele>19</ele>
        <time>2021-08-12T12:28:05Z</time>
      </trkpt>
      <trkpt lat="47.85934" lon="-3.86048">
        <ele>19</ele>
        <time>2021-08-12T12:28:06Z</time>
      </trkpt>
      <trkpt lat="47.85929" lon="-3.86036">
        <ele>19.2</ele>
        <time>2021-08-12T12:28:08Z</time>
      </trkpt>
      <trkpt lat="47.85926" lon="-3.8603">
        <ele>19.2</ele>
        <time>2021-08-12T12:28:09Z</time>
      </trkpt>
      <trkpt lat="47.85924" lon="-3.86024">
        <ele>19.4</ele>
        <time>2021-08-12T12:28:10Z</time>
      </trkpt>
      <trkpt lat="47.85921" lon="-3.86017">
        <ele>19.4</ele>
        <time>2021-08-12T12:28:11Z</time>
      </trkpt>
      <trkpt lat="47.85919" lon="-3.86012">
        <ele>19.4</ele>
        <time>2021-08-12T12:28:12Z</time>
      </trkpt>
      <trkpt lat="47.85917" lon="-3.86008">
        <ele>19.6</ele>
        <time>2021-08-12T12:28:13Z</time>
      </trkpt>
      <trkpt lat="47.85915" lon="-3.86003">
        <ele>19.6</ele>
        <time>2021-08-12T12:28:14Z</time>
      </trkpt>
      <trkpt lat="47.85913" lon="-3.85999">
        <ele>19.6</ele>
        <time>2021-08-12T12:28:15Z</time>
      </trkpt>
      <trkpt lat="47.85911" lon="-3.85994">
        <ele>20</ele>
        <time>2021-08-12T12:28:16Z</time>
      </trkpt>
      <trkpt lat="47.8591" lon="-3.8599">
        <ele>20</ele>
        <time>2021-08-12T12:28:17Z</time>
      </trkpt>
      <trkpt lat="47.85908" lon="-3.85982">
        <ele>20.2</ele>
        <time>2021-08-12T12:28:19Z</time>
      </trkpt>
      <trkpt lat="47.85906" lon="-3.85978">
        <ele>20.2</ele>
        <time>2021-08-12T12:28:20Z</time>
      </trkpt>
      <trkpt lat="47.85904" lon="-3.85974">
        <ele>20.4</ele>
        <time>2021-08-12T12:28:21Z</time>
      </trkpt>
      <trkpt lat="47.85902" lon="-3.8597">
        <ele>20.4</ele>
        <time>2021-08-12T12:28:22Z</time>
      </trkpt>
      <trkpt lat="47.85901" lon="-3.85967">
        <ele>20.6</ele>
        <time>2021-08-12T12:28:23Z</time>
      </trkpt>
      <trkpt lat="47.85898" lon="-3.85961">
        <ele>20.6</ele>
        <time>2021-08-12T12:28:24Z</time>
      </trkpt>
      <trkpt lat="47.85896" lon="-3.85956">
        <ele>20.6</ele>
        <time>2021-08-12T12:28:25Z</time>
      </trkpt>
      <trkpt lat="47.85894" lon="-3.8595">
        <ele>20.6</ele>
        <time>2021-08-12T12:28:26Z</time>
      </trkpt>
      <trkpt lat="47.85892" lon="-3.85945">
        <ele>20.8</ele>
        <time>2021-08-12T12:28:27Z</time>
      </trkpt>
      <trkpt lat="47.85891" lon="-3.8594">
        <ele>20.8</ele>
        <time>2021-08-12T12:28:28Z</time>
      </trkpt>
      <trkpt lat="47.85887" lon="-3.85928">
        <ele>21.2</ele>
        <time>2021-08-12T12:28:30Z</time>
      </trkpt>
      <trkpt lat="47.85886" lon="-3.85923">
        <ele>21.2</ele>
        <time>2021-08-12T12:28:31Z</time>
      </trkpt>
      <trkpt lat="47.85884" lon="-3.85918">
        <ele>21.4</ele>
        <time>2021-08-12T12:28:32Z</time>
      </trkpt>
      <trkpt lat="47.85882" lon="-3.85912">
        <ele>21.4</ele>
        <time>2021-08-12T12:28:33Z</time>
      </trkpt>
      <trkpt lat="47.85881" lon="-3.85907">
        <ele>21.4</ele>
        <time>2021-08-12T12:28:34Z</time>
      </trkpt>
      <trkpt lat="47.8588" lon="-3.85902">
        <ele>21.6</ele>
        <time>2021-08-12T12:28:35Z</time>
      </trkpt>
      <trkpt lat="47.85879" lon="-3.85897">
        <ele>21.6</ele>
        <time>2021-08-12T12:28:36Z</time>
      </trkpt>
      <trkpt lat="47.85878" lon="-3.85893">
        <ele>21.6</ele>
        <time>2021-08-12T12:28:37Z</time>
      </trkpt>
      <trkpt lat="47.85877" lon="-3.8589">
        <ele>21.8</ele>
        <time>2021-08-12T12:28:38Z</time>
      </trkpt>
      <trkpt lat="47.85877" lon="-3.85886">
        <ele>22</ele>
        <time>2021-08-12T12:28:39Z</time>
      </trkpt>
      <trkpt lat="47.85876" lon="-3.85884">
        <ele>22.2</ele>
        <time>2021-08-12T12:28:40Z</time>
      </trkpt>
      <trkpt lat="47.85876" lon="-3.85881">
        <ele>22.4</ele>
        <time>2021-08-12T12:28:41Z</time>
      </trkpt>
      <trkpt lat="47.85875" lon="-3.85878">
        <ele>22.4</ele>
        <time>2021-08-12T12:28:42Z</time>
      </trkpt>
      <trkpt lat="47.85875" lon="-3.85876">
        <ele>22.6</ele>
        <time>2021-08-12T12:28:43Z</time>
      </trkpt>
      <trkpt lat="47.85874" lon="-3.85875">
        <ele>22.8</ele>
        <time>2021-08-12T12:28:44Z</time>
      </trkpt>
      <trkpt lat="47.85872" lon="-3.85875">
        <ele>22.8</ele>
        <time>2021-08-12T12:28:45Z</time>
      </trkpt>
      <trkpt lat="47.85871" lon="-3.85874">
        <ele>23.2</ele>
        <time>2021-08-12T12:28:46Z</time>
      </trkpt>
      <trkpt lat="47.8587" lon="-3.85873">
        <ele>23.2</ele>
        <time>2021-08-12T12:28:47Z</time>
      </trkpt>
      <trkpt lat="47.85868" lon="-3.85871">
        <ele>23.2</ele>
        <time>2021-08-12T12:28:48Z</time>
      </trkpt>
      <trkpt lat="47.85868" lon="-3.85868">
        <ele>23.4</ele>
        <time>2021-08-12T12:28:49Z</time>
      </trkpt>
      <trkpt lat="47.85867" lon="-3.85864">
        <ele>23.4</ele>
        <time>2021-08-12T12:28:50Z</time>
      </trkpt>
      <trkpt lat="47.85867" lon="-3.85856">
        <ele>23.4</ele>
        <time>2021-08-12T12:28:52Z</time>
      </trkpt>
      <trkpt lat="47.85867" lon="-3.85852">
        <ele>23.4</ele>
        <time>2021-08-12T12:28:53Z</time>
      </trkpt>
      <trkpt lat="47.85866" lon="-3.85849">
        <ele>23.4</ele>
        <time>2021-08-12T12:28:54Z</time>
      </trkpt>
      <trkpt lat="47.85866" lon="-3.85846">
        <ele>23.4</ele>
        <time>2021-08-12T12:28:55Z</time>
      </trkpt>
      <trkpt lat="47.85866" lon="-3.85842">
        <ele>23.4</ele>
        <time>2021-08-12T12:28:56Z</time>
      </trkpt>
      <trkpt lat="47.85866" lon="-3.85839">
        <ele>23.4</ele>
        <time>2021-08-12T12:28:57Z</time>
      </trkpt>
      <trkpt lat="47.85866" lon="-3.85835">
        <ele>23.4</ele>
        <time>2021-08-12T12:28:58Z</time>
      </trkpt>
      <trkpt lat="47.85866" lon="-3.85832">
        <ele>23.6</ele>
        <time>2021-08-12T12:28:59Z</time>
      </trkpt>
      <trkpt lat="47.85866" lon="-3.85828">
        <ele>23.6</ele>
        <time>2021-08-12T12:29:00Z</time>
      </trkpt>
      <trkpt lat="47.85865" lon="-3.85824">
        <ele>23.6</ele>
        <time>2021-08-12T12:29:01Z</time>
      </trkpt>
      <trkpt lat="47.85865" lon="-3.85816">
        <ele>23.6</ele>
        <time>2021-08-12T12:29:03Z</time>
      </trkpt>
      <trkpt lat="47.85865" lon="-3.85811">
        <ele>23.6</ele>
        <time>2021-08-12T12:29:04Z</time>
      </trkpt>
      <trkpt lat="47.85865" lon="-3.85807">
        <ele>23.6</ele>
        <time>2021-08-12T12:29:05Z</time>
      </trkpt>
      <trkpt lat="47.85865" lon="-3.85803">
        <ele>23.6</ele>
        <time>2021-08-12T12:29:06Z</time>
      </trkpt>
      <trkpt lat="47.85865" lon="-3.85798">
        <ele>23.8</ele>
        <time>2021-08-12T12:29:07Z</time>
      </trkpt>
      <trkpt lat="47.85865" lon="-3.85794">
        <ele>24</ele>
        <time>2021-08-12T12:29:08Z</time>
      </trkpt>
      <trkpt lat="47.85865" lon="-3.85789">
        <ele>24</ele>
        <time>2021-08-12T12:29:09Z</time>
      </trkpt>
      <trkpt lat="47.85866" lon="-3.85785">
        <ele>24.2</ele>
        <time>2021-08-12T12:29:10Z</time>
      </trkpt>
      <trkpt lat="47.85866" lon="-3.85775">
        <ele>24.2</ele>
        <time>2021-08-12T12:29:12Z</time>
      </trkpt>
      <trkpt lat="47.85866" lon="-3.8577">
        <ele>24.4</ele>
        <time>2021-08-12T12:29:13Z</time>
      </trkpt>
      <trkpt lat="47.85867" lon="-3.85766">
        <ele>24.4</ele>
        <time>2021-08-12T12:29:14Z</time>
      </trkpt>
      <trkpt lat="47.85868" lon="-3.85761">
        <ele>24.4</ele>
        <time>2021-08-12T12:29:15Z</time>
      </trkpt>
      <trkpt lat="47.85868" lon="-3.85756">
        <ele>24.6</ele>
        <time>2021-08-12T12:29:16Z</time>
      </trkpt>
      <trkpt lat="47.85869" lon="-3.85752">
        <ele>24.6</ele>
        <time>2021-08-12T12:29:17Z</time>
      </trkpt>
      <trkpt lat="47.8587" lon="-3.85747">
        <ele>24.6</ele>
        <time>2021-08-12T12:29:18Z</time>
      </trkpt>
      <trkpt lat="47.85871" lon="-3.85743">
        <ele>24.8</ele>
        <time>2021-08-12T12:29:19Z</time>
      </trkpt>
      <trkpt lat="47.85872" lon="-3.85738">
        <ele>24.8</ele>
        <time>2021-08-12T12:29:20Z</time>
      </trkpt>
      <trkpt lat="47.85873" lon="-3.85734">
        <ele>24.8</ele>
        <time>2021-08-12T12:29:21Z</time>
      </trkpt>
      <trkpt lat="47.85875" lon="-3.85725">
        <ele>24.8</ele>
        <time>2021-08-12T12:29:23Z</time>
      </trkpt>
      <trkpt lat="47.85876" lon="-3.8572">
        <ele>25</ele>
        <time>2021-08-12T12:29:24Z</time>
      </trkpt>
      <trkpt lat="47.85877" lon="-3.85715">
        <ele>25</ele>
        <time>2021-08-12T12:29:25Z</time>
      </trkpt>
      <trkpt lat="47.85878" lon="-3.8571">
        <ele>25</ele>
        <time>2021-08-12T12:29:26Z</time>
      </trkpt>
      <trkpt lat="47.8588" lon="-3.85705">
        <ele>25.2</ele>
        <time>2021-08-12T12:29:27Z</time>
      </trkpt>
      <trkpt lat="47.85881" lon="-3.857">
        <ele>25.4</ele>
        <time>2021-08-12T12:29:28Z</time>
      </trkpt>
      <trkpt lat="47.85882" lon="-3.85695">
        <ele>25.6</ele>
        <time>2021-08-12T12:29:29Z</time>
      </trkpt>
      <trkpt lat="47.85883" lon="-3.85691">
        <ele>25.6</ele>
        <time>2021-08-12T12:29:30Z</time>
      </trkpt>
      <trkpt lat="47.85884" lon="-3.85686">
        <ele>25.8</ele>
        <time>2021-08-12T12:29:31Z</time>
      </trkpt>
      <trkpt lat="47.85885" lon="-3.85681">
        <ele>26</ele>
        <time>2021-08-12T12:29:32Z</time>
      </trkpt>
      <trkpt lat="47.85887" lon="-3.8567">
        <ele>26</ele>
        <time>2021-08-12T12:29:34Z</time>
      </trkpt>
      <trkpt lat="47.85888" lon="-3.85665">
        <ele>26</ele>
        <time>2021-08-12T12:29:35Z</time>
      </trkpt>
      <trkpt lat="47.8589" lon="-3.8566">
        <ele>26.2</ele>
        <time>2021-08-12T12:29:36Z</time>
      </trkpt>
      <trkpt lat="47.85891" lon="-3.85656">
        <ele>26.2</ele>
        <time>2021-08-12T12:29:37Z</time>
      </trkpt>
      <trkpt lat="47.85893" lon="-3.85651">
        <ele>26.2</ele>
        <time>2021-08-12T12:29:38Z</time>
      </trkpt>
      <trkpt lat="47.85894" lon="-3.85647">
        <ele>26.4</ele>
        <time>2021-08-12T12:29:39Z</time>
      </trkpt>
      <trkpt lat="47.85895" lon="-3.85642">
        <ele>26.4</ele>
        <time>2021-08-12T12:29:40Z</time>
      </trkpt>
      <trkpt lat="47.85896" lon="-3.85637">
        <ele>26.4</ele>
        <time>2021-08-12T12:29:41Z</time>
      </trkpt>
      <trkpt lat="47.85897" lon="-3.85632">
        <ele>26.4</ele>
        <time>2021-08-12T12:29:42Z</time>
      </trkpt>
      <trkpt lat="47.85898" lon="-3.85627">
        <ele>26.4</ele>
        <time>2021-08-12T12:29:43Z</time>
      </trkpt>
      <trkpt lat="47.85901" lon="-3.85618">
        <ele>26.8</ele>
        <time>2021-08-12T12:29:45Z</time>
      </trkpt>
      <trkpt lat="47.85901" lon="-3.85613">
        <ele>27</ele>
        <time>2021-08-12T12:29:46Z</time>
      </trkpt>
      <trkpt lat="47.85902" lon="-3.85608">
        <ele>27</ele>
        <time>2021-08-12T12:29:47Z</time>
      </trkpt>
      <trkpt lat="47.85902" lon="-3.85603">
        <ele>27.2</ele>
        <time>2021-08-12T12:29:48Z</time>
      </trkpt>
      <trkpt lat="47.85903" lon="-3.85599">
        <ele>27.4</ele>
        <time>2021-08-12T12:29:49Z</time>
      </trkpt>
      <trkpt lat="47.85904" lon="-3.85595">
        <ele>27.4</ele>
        <time>2021-08-12T12:29:50Z</time>
      </trkpt>
      <trkpt lat="47.85904" lon="-3.8559">
        <ele>27.4</ele>
        <time>2021-08-12T12:29:51Z</time>
      </trkpt>
      <trkpt lat="47.85904" lon="-3.85586">
        <ele>27.6</ele>
        <time>2021-08-12T12:29:52Z</time>
      </trkpt>
      <trkpt lat="47.85904" lon="-3.85582">
        <ele>27.8</ele>
        <time>2021-08-12T12:29:53Z</time>
      </trkpt>
      <trkpt lat="47.85905" lon="-3.85576">
        <ele>28</ele>
        <time>2021-08-12T12:29:54Z</time>
      </trkpt>
      <trkpt lat="47.85905" lon="-3.85565">
        <ele>28.4</ele>
        <time>2021-08-12T12:29:56Z</time>
      </trkpt>
      <trkpt lat="47.85906" lon="-3.85559">
        <ele>28.6</ele>
        <time>2021-08-12T12:29:57Z</time>
      </trkpt>
      <trkpt lat="47.85906" lon="-3.85554">
        <ele>28.6</ele>
        <time>2021-08-12T12:29:58Z</time>
      </trkpt>
      <trkpt lat="47.85905" lon="-3.85547">
        <ele>28.8</ele>
        <time>2021-08-12T12:29:59Z</time>
      </trkpt>
      <trkpt lat="47.85905" lon="-3.85542">
        <ele>28.8</ele>
        <time>2021-08-12T12:30:00Z</time>
      </trkpt>
      <trkpt lat="47.85905" lon="-3.85537">
        <ele>28.8</ele>
        <time>2021-08-12T12:30:01Z</time>
      </trkpt>
      <trkpt lat="47.85904" lon="-3.85532">
        <ele>28.8</ele>
        <time>2021-08-12T12:30:02Z</time>
      </trkpt>
      <trkpt lat="47.85903" lon="-3.85527">
        <ele>28.8</ele>
        <time>2021-08-12T12:30:03Z</time>
      </trkpt>
      <trkpt lat="47.85903" lon="-3.85523">
        <ele>28.8</ele>
        <time>2021-08-12T12:30:04Z</time>
      </trkpt>
      <trkpt lat="47.85902" lon="-3.85519">
        <ele>29</ele>
        <time>2021-08-12T12:30:05Z</time>
      </trkpt>
      <trkpt lat="47.859" lon="-3.85512">
        <ele>29</ele>
        <time>2021-08-12T12:30:07Z</time>
      </trkpt>
      <trkpt lat="47.859" lon="-3.85508">
        <ele>29.2</ele>
        <time>2021-08-12T12:30:08Z</time>
      </trkpt>
      <trkpt lat="47.85899" lon="-3.85503">
        <ele>29.2</ele>
        <time>2021-08-12T12:30:09Z</time>
      </trkpt>
      <trkpt lat="47.85897" lon="-3.85498">
        <ele>29.2</ele>
        <time>2021-08-12T12:30:10Z</time>
      </trkpt>
      <trkpt lat="47.85896" lon="-3.85493">
        <ele>29.2</ele>
        <time>2021-08-12T12:30:11Z</time>
      </trkpt>
      <trkpt lat="47.85895" lon="-3.85487">
        <ele>29.6</ele>
        <time>2021-08-12T12:30:12Z</time>
      </trkpt>
      <trkpt lat="47.85894" lon="-3.85482">
        <ele>29.8</ele>
        <time>2021-08-12T12:30:13Z</time>
      </trkpt>
      <trkpt lat="47.85892" lon="-3.85476">
        <ele>29.8</ele>
        <time>2021-08-12T12:30:14Z</time>
      </trkpt>
      <trkpt lat="47.85891" lon="-3.85471">
        <ele>29.8</ele>
        <time>2021-08-12T12:30:15Z</time>
      </trkpt>
      <trkpt lat="47.85889" lon="-3.85466">
        <ele>29.8</ele>
        <time>2021-08-12T12:30:16Z</time>
      </trkpt>
      <trkpt lat="47.85886" lon="-3.85456">
        <ele>30</ele>
        <time>2021-08-12T12:30:18Z</time>
      </trkpt>
      <trkpt lat="47.85884" lon="-3.85452">
        <ele>30</ele>
        <time>2021-08-12T12:30:19Z</time>
      </trkpt>
      <trkpt lat="47.85882" lon="-3.85448">
        <ele>30.2</ele>
        <time>2021-08-12T12:30:20Z</time>
      </trkpt>
      <trkpt lat="47.85881" lon="-3.85444">
        <ele>30.4</ele>
        <time>2021-08-12T12:30:21Z</time>
      </trkpt>
      <trkpt lat="47.85879" lon="-3.8544">
        <ele>30.4</ele>
        <time>2021-08-12T12:30:22Z</time>
      </trkpt>
      <trkpt lat="47.85878" lon="-3.85435">
        <ele>30.4</ele>
        <time>2021-08-12T12:30:23Z</time>
      </trkpt>
      <trkpt lat="47.85876" lon="-3.85431">
        <ele>30.6</ele>
        <time>2021-08-12T12:30:24Z</time>
      </trkpt>
      <trkpt lat="47.85873" lon="-3.85426">
        <ele>30.6</ele>
        <time>2021-08-12T12:30:25Z</time>
      </trkpt>
      <trkpt lat="47.85871" lon="-3.85422">
        <ele>30.8</ele>
        <time>2021-08-12T12:30:26Z</time>
      </trkpt>
      <trkpt lat="47.85867" lon="-3.85412">
        <ele>31</ele>
        <time>2021-08-12T12:30:28Z</time>
      </trkpt>
      <trkpt lat="47.85865" lon="-3.85407">
        <ele>31.2</ele>
        <time>2021-08-12T12:30:29Z</time>
      </trkpt>
      <trkpt lat="47.85863" lon="-3.85402">
        <ele>31.2</ele>
        <time>2021-08-12T12:30:30Z</time>
      </trkpt>
      <trkpt lat="47.85861" lon="-3.85398">
        <ele>31.4</ele>
        <time>2021-08-12T12:30:31Z</time>
      </trkpt>
      <trkpt lat="47.85859" lon="-3.85393">
        <ele>31.6</ele>
        <time>2021-08-12T12:30:32Z</time>
      </trkpt>
      <trkpt lat="47.85857" lon="-3.85388">
        <ele>31.8</ele>
        <time>2021-08-12T12:30:33Z</time>
      </trkpt>
      <trkpt lat="47.85854" lon="-3.85384">
        <ele>31.8</ele>
        <time>2021-08-12T12:30:34Z</time>
      </trkpt>
      <trkpt lat="47.85852" lon="-3.85379">
        <ele>32</ele>
        <time>2021-08-12T12:30:35Z</time>
      </trkpt>
      <trkpt lat="47.8585" lon="-3.85373">
        <ele>32</ele>
        <time>2021-08-12T12:30:36Z</time>
      </trkpt>
      <trkpt lat="47.85848" lon="-3.85368">
        <ele>32</ele>
        <time>2021-08-12T12:30:37Z</time>
      </trkpt>
      <trkpt lat="47.85846" lon="-3.85363">
        <ele>32.2</ele>
        <time>2021-08-12T12:30:38Z</time>
      </trkpt>
      <trkpt lat="47.85844" lon="-3.85357">
        <ele>32.2</ele>
        <time>2021-08-12T12:30:39Z</time>
      </trkpt>
      <trkpt lat="47.85841" lon="-3.85352">
        <ele>32.2</ele>
        <time>2021-08-12T12:30:40Z</time>
      </trkpt>
      <trkpt lat="47.85839" lon="-3.85347">
        <ele>32.6</ele>
        <time>2021-08-12T12:30:41Z</time>
      </trkpt>
      <trkpt lat="47.85836" lon="-3.85342">
        <ele>32.6</ele>
        <time>2021-08-12T12:30:42Z</time>
      </trkpt>
      <trkpt lat="47.85834" lon="-3.85337">
        <ele>32.6</ele>
        <time>2021-08-12T12:30:43Z</time>
      </trkpt>
      <trkpt lat="47.85832" lon="-3.85332">
        <ele>32.8</ele>
        <time>2021-08-12T12:30:44Z</time>
      </trkpt>
      <trkpt lat="47.8583" lon="-3.85327">
        <ele>33</ele>
        <time>2021-08-12T12:30:45Z</time>
      </trkpt>
      <trkpt lat="47.85827" lon="-3.85321">
        <ele>33.2</ele>
        <time>2021-08-12T12:30:46Z</time>
      </trkpt>
      <trkpt lat="47.85825" lon="-3.85316">
        <ele>33.4</ele>
        <time>2021-08-12T12:30:47Z</time>
      </trkpt>
      <trkpt lat="47.85823" lon="-3.8531">
        <ele>33.4</ele>
        <time>2021-08-12T12:30:48Z</time>
      </trkpt>
      <trkpt lat="47.85818" lon="-3.85299">
        <ele>33.6</ele>
        <time>2021-08-12T12:30:50Z</time>
      </trkpt>
      <trkpt lat="47.85815" lon="-3.85294">
        <ele>33.6</ele>
        <time>2021-08-12T12:30:51Z</time>
      </trkpt>
      <trkpt lat="47.85813" lon="-3.8529">
        <ele>33.8</ele>
        <time>2021-08-12T12:30:52Z</time>
      </trkpt>
      <trkpt lat="47.85811" lon="-3.85285">
        <ele>33.8</ele>
        <time>2021-08-12T12:30:53Z</time>
      </trkpt>
      <trkpt lat="47.8581" lon="-3.85281">
        <ele>33.8</ele>
        <time>2021-08-12T12:30:54Z</time>
      </trkpt>
      <trkpt lat="47.85808" lon="-3.85278">
        <ele>34</ele>
        <time>2021-08-12T12:30:55Z</time>
      </trkpt>
      <trkpt lat="47.85806" lon="-3.85275">
        <ele>34</ele>
        <time>2021-08-12T12:30:56Z</time>
      </trkpt>
      <trkpt lat="47.85804" lon="-3.85272">
        <ele>34</ele>
        <time>2021-08-12T12:30:57Z</time>
      </trkpt>
      <trkpt lat="47.85802" lon="-3.85269">
        <ele>34</ele>
        <time>2021-08-12T12:30:58Z</time>
      </trkpt>
      <trkpt lat="47.858" lon="-3.85266">
        <ele>34.2</ele>
        <time>2021-08-12T12:30:59Z</time>
      </trkpt>
      <trkpt lat="47.85796" lon="-3.85258">
        <ele>34.6</ele>
        <time>2021-08-12T12:31:01Z</time>
      </trkpt>
      <trkpt lat="47.85794" lon="-3.85254">
        <ele>34.8</ele>
        <time>2021-08-12T12:31:02Z</time>
      </trkpt>
      <trkpt lat="47.85792" lon="-3.8525">
        <ele>35</ele>
        <time>2021-08-12T12:31:03Z</time>
      </trkpt>
      <trkpt lat="47.8579" lon="-3.85246">
        <ele>35.2</ele>
        <time>2021-08-12T12:31:04Z</time>
      </trkpt>
      <trkpt lat="47.85788" lon="-3.85242">
        <ele>35.4</ele>
        <time>2021-08-12T12:31:05Z</time>
      </trkpt>
      <trkpt lat="47.85786" lon="-3.85238">
        <ele>35.6</ele>
        <time>2021-08-12T12:31:06Z</time>
      </trkpt>
      <trkpt lat="47.85784" lon="-3.85234">
        <ele>35.6</ele>
        <time>2021-08-12T12:31:07Z</time>
      </trkpt>
      <trkpt lat="47.85782" lon="-3.8523">
        <ele>35.8</ele>
        <time>2021-08-12T12:31:08Z</time>
      </trkpt>
      <trkpt lat="47.8578" lon="-3.85226">
        <ele>35.8</ele>
        <time>2021-08-12T12:31:09Z</time>
      </trkpt>
      <trkpt lat="47.85778" lon="-3.85221">
        <ele>35.8</ele>
        <time>2021-08-12T12:31:10Z</time>
      </trkpt>
      <trkpt lat="47.85776" lon="-3.85217">
        <ele>35.8</ele>
        <time>2021-08-12T12:31:11Z</time>
      </trkpt>
      <trkpt lat="47.85774" lon="-3.85212">
        <ele>35.8</ele>
        <time>2021-08-12T12:31:12Z</time>
      </trkpt>
      <trkpt lat="47.85772" lon="-3.85208">
        <ele>35.8</ele>
        <time>2021-08-12T12:31:13Z</time>
      </trkpt>
      <trkpt lat="47.8577" lon="-3.85204">
        <ele>36</ele>
        <time>2021-08-12T12:31:14Z</time>
      </trkpt>
      <trkpt lat="47.85769" lon="-3.852">
        <ele>36</ele>
        <time>2021-08-12T12:31:15Z</time>
      </trkpt>
      <trkpt lat="47.85768" lon="-3.85197">
        <ele>36</ele>
        <time>2021-08-12T12:31:16Z</time>
      </trkpt>
      <trkpt lat="47.85767" lon="-3.85194">
        <ele>36</ele>
        <time>2021-08-12T12:31:17Z</time>
      </trkpt>
      <trkpt lat="47.85766" lon="-3.8519">
        <ele>36.2</ele>
        <time>2021-08-12T12:31:18Z</time>
      </trkpt>
      <trkpt lat="47.85765" lon="-3.85187">
        <ele>36.2</ele>
        <time>2021-08-12T12:31:19Z</time>
      </trkpt>
      <trkpt lat="47.85763" lon="-3.85184">
        <ele>36.2</ele>
        <time>2021-08-12T12:31:20Z</time>
      </trkpt>
      <trkpt lat="47.85761" lon="-3.85181">
        <ele>36.2</ele>
        <time>2021-08-12T12:31:21Z</time>
      </trkpt>
      <trkpt lat="47.85758" lon="-3.85174">
        <ele>36.6</ele>
        <time>2021-08-12T12:31:23Z</time>
      </trkpt>
      <trkpt lat="47.85756" lon="-3.85171">
        <ele>36.8</ele>
        <time>2021-08-12T12:31:24Z</time>
      </trkpt>
      <trkpt lat="47.85754" lon="-3.85167">
        <ele>36.8</ele>
        <time>2021-08-12T12:31:25Z</time>
      </trkpt>
      <trkpt lat="47.85752" lon="-3.85164">
        <ele>37</ele>
        <time>2021-08-12T12:31:26Z</time>
      </trkpt>
      <trkpt lat="47.85751" lon="-3.8516">
        <ele>37</ele>
        <time>2021-08-12T12:31:27Z</time>
      </trkpt>
      <trkpt lat="47.85749" lon="-3.85157">
        <ele>37</ele>
        <time>2021-08-12T12:31:28Z</time>
      </trkpt>
      <trkpt lat="47.85747" lon="-3.85153">
        <ele>37.2</ele>
        <time>2021-08-12T12:31:29Z</time>
      </trkpt>
      <trkpt lat="47.85745" lon="-3.85149">
        <ele>37.2</ele>
        <time>2021-08-12T12:31:30Z</time>
      </trkpt>
      <trkpt lat="47.85744" lon="-3.85145">
        <ele>37.2</ele>
        <time>2021-08-12T12:31:31Z</time>
      </trkpt>
      <trkpt lat="47.85742" lon="-3.85141">
        <ele>37.2</ele>
        <time>2021-08-12T12:31:32Z</time>
      </trkpt>
      <trkpt lat="47.85739" lon="-3.85134">
        <ele>37.4</ele>
        <time>2021-08-12T12:31:34Z</time>
      </trkpt>
      <trkpt lat="47.85737" lon="-3.8513">
        <ele>37.6</ele>
        <time>2021-08-12T12:31:35Z</time>
      </trkpt>
      <trkpt lat="47.85736" lon="-3.85126">
        <ele>37.4</ele>
        <time>2021-08-12T12:31:36Z</time>
      </trkpt>
      <trkpt lat="47.85734" lon="-3.85122">
        <ele>37.4</ele>
        <time>2021-08-12T12:31:37Z</time>
      </trkpt>
      <trkpt lat="47.85732" lon="-3.85119">
        <ele>37.6</ele>
        <time>2021-08-12T12:31:38Z</time>
      </trkpt>
      <trkpt lat="47.85731" lon="-3.85115">
        <ele>37.8</ele>
        <time>2021-08-12T12:31:39Z</time>
      </trkpt>
      <trkpt lat="47.85729" lon="-3.85112">
        <ele>37.8</ele>
        <time>2021-08-12T12:31:40Z</time>
      </trkpt>
      <trkpt lat="47.85727" lon="-3.85109">
        <ele>38</ele>
        <time>2021-08-12T12:31:41Z</time>
      </trkpt>
      <trkpt lat="47.85725" lon="-3.85106">
        <ele>38.2</ele>
        <time>2021-08-12T12:31:42Z</time>
      </trkpt>
      <trkpt lat="47.85723" lon="-3.85104">
        <ele>38.4</ele>
        <time>2021-08-12T12:31:43Z</time>
      </trkpt>
      <trkpt lat="47.85721" lon="-3.851">
        <ele>38.6</ele>
        <time>2021-08-12T12:31:45Z</time>
      </trkpt>
      <trkpt lat="47.8572" lon="-3.85099">
        <ele>38.8</ele>
        <time>2021-08-12T12:31:46Z</time>
      </trkpt>
      <trkpt lat="47.85718" lon="-3.85099">
        <ele>39</ele>
        <time>2021-08-12T12:31:47Z</time>
      </trkpt>
      <trkpt lat="47.85716" lon="-3.85099">
        <ele>39</ele>
        <time>2021-08-12T12:31:48Z</time>
      </trkpt>
      <trkpt lat="47.85714" lon="-3.85099">
        <ele>39</ele>
        <time>2021-08-12T12:31:49Z</time>
      </trkpt>
      <trkpt lat="47.85712" lon="-3.85098">
        <ele>39.2</ele>
        <time>2021-08-12T12:31:50Z</time>
      </trkpt>
      <trkpt lat="47.85711" lon="-3.85097">
        <ele>39.2</ele>
        <time>2021-08-12T12:31:51Z</time>
      </trkpt>
      <trkpt lat="47.85709" lon="-3.85096">
        <ele>39.4</ele>
        <time>2021-08-12T12:31:52Z</time>
      </trkpt>
      <trkpt lat="47.85707" lon="-3.85096">
        <ele>39.6</ele>
        <time>2021-08-12T12:31:53Z</time>
      </trkpt>
      <trkpt lat="47.85705" lon="-3.85095">
        <ele>39.4</ele>
        <time>2021-08-12T12:31:54Z</time>
      </trkpt>
      <trkpt lat="47.85703" lon="-3.85091">
        <ele>39.4</ele>
        <time>2021-08-12T12:31:56Z</time>
      </trkpt>
      <trkpt lat="47.85703" lon="-3.85089">
        <ele>39.6</ele>
        <time>2021-08-12T12:31:57Z</time>
      </trkpt>
      <trkpt lat="47.85703" lon="-3.85087">
        <ele>39.4</ele>
        <time>2021-08-12T12:31:58Z</time>
      </trkpt>
      <trkpt lat="47.85703" lon="-3.85087">
        <ele>39.6</ele>
        <time>2021-08-12T12:31:59Z</time>
      </trkpt>
      <trkpt lat="47.85704" lon="-3.85085">
        <ele>39.8</ele>
        <time>2021-08-12T12:32:00Z</time>
      </trkpt>
      <trkpt lat="47.85705" lon="-3.85084">
        <ele>39.8</ele>
        <time>2021-08-12T12:32:01Z</time>
      </trkpt>
      <trkpt lat="47.85705" lon="-3.85084">
        <ele>39.8</ele>
        <time>2021-08-12T12:32:02Z</time>
      </trkpt>
      <trkpt lat="47.85706" lon="-3.8508">
        <ele>41</ele>
        <time>2021-08-12T12:34:02Z</time>
      </trkpt>
      <trkpt lat="47.85706" lon="-3.85077">
        <ele>41</ele>
        <time>2021-08-12T12:34:03Z</time>
      </trkpt>
      <trkpt lat="47.85706" lon="-3.85075">
        <ele>41</ele>
        <time>2021-08-12T12:34:04Z</time>
      </trkpt>
      <trkpt lat="47.85705" lon="-3.85069">
        <ele>41</ele>
        <time>2021-08-12T12:34:06Z</time>
      </trkpt>
      <trkpt lat="47.85703" lon="-3.85065">
        <ele>40.8</ele>
        <time>2021-08-12T12:34:07Z</time>
      </trkpt>
      <trkpt lat="47.85702" lon="-3.85062">
        <ele>40.8</ele>
        <time>2021-08-12T12:34:08Z</time>
      </trkpt>
      <trkpt lat="47.857" lon="-3.85059">
        <ele>40.8</ele>
        <time>2021-08-12T12:34:09Z</time>
      </trkpt>
      <trkpt lat="47.85699" lon="-3.85055">
        <ele>40.8</ele>
        <time>2021-08-12T12:34:10Z</time>
      </trkpt>
      <trkpt lat="47.85697" lon="-3.85051">
        <ele>40.6</ele>
        <time>2021-08-12T12:34:11Z</time>
      </trkpt>
      <trkpt lat="47.85695" lon="-3.85048">
        <ele>40.4</ele>
        <time>2021-08-12T12:34:12Z</time>
      </trkpt>
      <trkpt lat="47.85692" lon="-3.85039">
        <ele>40.4</ele>
        <time>2021-08-12T12:34:14Z</time>
      </trkpt>
      <trkpt lat="47.8569" lon="-3.85035">
        <ele>40.4</ele>
        <time>2021-08-12T12:34:15Z</time>
      </trkpt>
      <trkpt lat="47.85688" lon="-3.85031">
        <ele>40.2</ele>
        <time>2021-08-12T12:34:16Z</time>
      </trkpt>
      <trkpt lat="47.85686" lon="-3.85026">
        <ele>40.2</ele>
        <time>2021-08-12T12:34:17Z</time>
      </trkpt>
      <trkpt lat="47.85683" lon="-3.85022">
        <ele>40.2</ele>
        <time>2021-08-12T12:34:18Z</time>
      </trkpt>
      <trkpt lat="47.85681" lon="-3.85017">
        <ele>40.2</ele>
        <time>2021-08-12T12:34:19Z</time>
      </trkpt>
      <trkpt lat="47.85679" lon="-3.85013">
        <ele>40.2</ele>
        <time>2021-08-12T12:34:20Z</time>
      </trkpt>
      <trkpt lat="47.85677" lon="-3.85008">
        <ele>40.2</ele>
        <time>2021-08-12T12:34:21Z</time>
      </trkpt>
      <trkpt lat="47.85675" lon="-3.85004">
        <ele>40.2</ele>
        <time>2021-08-12T12:34:22Z</time>
      </trkpt>
      <trkpt lat="47.85673" lon="-3.84999">
        <ele>40.2</ele>
        <time>2021-08-12T12:34:23Z</time>
      </trkpt>
      <trkpt lat="47.85668" lon="-3.84989">
        <ele>40.2</ele>
        <time>2021-08-12T12:34:25Z</time>
      </trkpt>
      <trkpt lat="47.85666" lon="-3.84984">
        <ele>40.2</ele>
        <time>2021-08-12T12:34:26Z</time>
      </trkpt>
      <trkpt lat="47.85664" lon="-3.8498">
        <ele>40.2</ele>
        <time>2021-08-12T12:34:27Z</time>
      </trkpt>
      <trkpt lat="47.85661" lon="-3.84975">
        <ele>40.2</ele>
        <time>2021-08-12T12:34:28Z</time>
      </trkpt>
      <trkpt lat="47.85659" lon="-3.8497">
        <ele>40.2</ele>
        <time>2021-08-12T12:34:29Z</time>
      </trkpt>
      <trkpt lat="47.85656" lon="-3.84965">
        <ele>40.2</ele>
        <time>2021-08-12T12:34:30Z</time>
      </trkpt>
      <trkpt lat="47.85653" lon="-3.84961">
        <ele>40.2</ele>
        <time>2021-08-12T12:34:31Z</time>
      </trkpt>
      <trkpt lat="47.8565" lon="-3.84957">
        <ele>40.4</ele>
        <time>2021-08-12T12:34:32Z</time>
      </trkpt>
      <trkpt lat="47.85647" lon="-3.84953">
        <ele>40.4</ele>
        <time>2021-08-12T12:34:33Z</time>
      </trkpt>
      <trkpt lat="47.85644" lon="-3.84949">
        <ele>40.4</ele>
        <time>2021-08-12T12:34:34Z</time>
      </trkpt>
      <trkpt lat="47.85637" lon="-3.84941">
        <ele>40.4</ele>
        <time>2021-08-12T12:34:36Z</time>
      </trkpt>
      <trkpt lat="47.85634" lon="-3.84937">
        <ele>40.4</ele>
        <time>2021-08-12T12:34:37Z</time>
      </trkpt>
      <trkpt lat="47.85631" lon="-3.84933">
        <ele>40.4</ele>
        <time>2021-08-12T12:34:38Z</time>
      </trkpt>
      <trkpt lat="47.85628" lon="-3.84928">
        <ele>40.4</ele>
        <time>2021-08-12T12:34:39Z</time>
      </trkpt>
      <trkpt lat="47.85625" lon="-3.84923">
        <ele>40.4</ele>
        <time>2021-08-12T12:34:40Z</time>
      </trkpt>
      <trkpt lat="47.85623" lon="-3.84918">
        <ele>40.4</ele>
        <time>2021-08-12T12:34:41Z</time>
      </trkpt>
      <trkpt lat="47.85621" lon="-3.84912">
        <ele>40.4</ele>
        <time>2021-08-12T12:34:42Z</time>
      </trkpt>
      <trkpt lat="47.85619" lon="-3.84906">
        <ele>40.4</ele>
        <time>2021-08-12T12:34:43Z</time>
      </trkpt>
      <trkpt lat="47.85618" lon="-3.84901">
        <ele>40.4</ele>
        <time>2021-08-12T12:34:44Z</time>
      </trkpt>
      <trkpt lat="47.85616" lon="-3.84894">
        <ele>40.4</ele>
        <time>2021-08-12T12:34:45Z</time>
      </trkpt>
      <trkpt lat="47.85613" lon="-3.84882">
        <ele>40.4</ele>
        <time>2021-08-12T12:34:47Z</time>
      </trkpt>
      <trkpt lat="47.85612" lon="-3.84875">
        <ele>40.4</ele>
        <time>2021-08-12T12:34:48Z</time>
      </trkpt>
      <trkpt lat="47.8561" lon="-3.84868">
        <ele>40.6</ele>
        <time>2021-08-12T12:34:49Z</time>
      </trkpt>
      <trkpt lat="47.85609" lon="-3.84861">
        <ele>40.6</ele>
        <time>2021-08-12T12:34:50Z</time>
      </trkpt>
      <trkpt lat="47.85608" lon="-3.84854">
        <ele>40.6</ele>
        <time>2021-08-12T12:34:51Z</time>
      </trkpt>
      <trkpt lat="47.85607" lon="-3.84846">
        <ele>40.6</ele>
        <time>2021-08-12T12:34:52Z</time>
      </trkpt>
      <trkpt lat="47.85605" lon="-3.84839">
        <ele>40.6</ele>
        <time>2021-08-12T12:34:53Z</time>
      </trkpt>
      <trkpt lat="47.85604" lon="-3.84831">
        <ele>40.4</ele>
        <time>2021-08-12T12:34:54Z</time>
      </trkpt>
      <trkpt lat="47.85602" lon="-3.84824">
        <ele>40.4</ele>
        <time>2021-08-12T12:34:55Z</time>
      </trkpt>
      <trkpt lat="47.856" lon="-3.84817">
        <ele>40.4</ele>
        <time>2021-08-12T12:34:56Z</time>
      </trkpt>
      <trkpt lat="47.85597" lon="-3.8481">
        <ele>40.2</ele>
        <time>2021-08-12T12:34:57Z</time>
      </trkpt>
      <trkpt lat="47.85595" lon="-3.84803">
        <ele>40.2</ele>
        <time>2021-08-12T12:34:58Z</time>
      </trkpt>
      <trkpt lat="47.85592" lon="-3.84796">
        <ele>40.2</ele>
        <time>2021-08-12T12:34:59Z</time>
      </trkpt>
      <trkpt lat="47.85589" lon="-3.84789">
        <ele>40.2</ele>
        <time>2021-08-12T12:35:00Z</time>
      </trkpt>
      <trkpt lat="47.85586" lon="-3.84783">
        <ele>40</ele>
        <time>2021-08-12T12:35:01Z</time>
      </trkpt>
      <trkpt lat="47.85583" lon="-3.84776">
        <ele>40</ele>
        <time>2021-08-12T12:35:02Z</time>
      </trkpt>
      <trkpt lat="47.85579" lon="-3.84769">
        <ele>40</ele>
        <time>2021-08-12T12:35:03Z</time>
      </trkpt>
      <trkpt lat="47.85576" lon="-3.84762">
        <ele>40</ele>
        <time>2021-08-12T12:35:04Z</time>
      </trkpt>
      <trkpt lat="47.85573" lon="-3.84756">
        <ele>40</ele>
        <time>2021-08-12T12:35:05Z</time>
      </trkpt>
      <trkpt lat="47.8557" lon="-3.84749">
        <ele>40</ele>
        <time>2021-08-12T12:35:06Z</time>
      </trkpt>
      <trkpt lat="47.85567" lon="-3.84742">
        <ele>40</ele>
        <time>2021-08-12T12:35:07Z</time>
      </trkpt>
      <trkpt lat="47.8556" lon="-3.84727">
        <ele>40</ele>
        <time>2021-08-12T12:35:09Z</time>
      </trkpt>
      <trkpt lat="47.85557" lon="-3.8472">
        <ele>40.2</ele>
        <time>2021-08-12T12:35:10Z</time>
      </trkpt>
      <trkpt lat="47.85554" lon="-3.84712">
        <ele>40.2</ele>
        <time>2021-08-12T12:35:11Z</time>
      </trkpt>
      <trkpt lat="47.8555" lon="-3.84705">
        <ele>40.2</ele>
        <time>2021-08-12T12:35:12Z</time>
      </trkpt>
      <trkpt lat="47.85547" lon="-3.84698">
        <ele>40.4</ele>
        <time>2021-08-12T12:35:13Z</time>
      </trkpt>
      <trkpt lat="47.85544" lon="-3.84691">
        <ele>40.4</ele>
        <time>2021-08-12T12:35:14Z</time>
      </trkpt>
      <trkpt lat="47.85541" lon="-3.84684">
        <ele>40.4</ele>
        <time>2021-08-12T12:35:15Z</time>
      </trkpt>
      <trkpt lat="47.85538" lon="-3.84677">
        <ele>40.4</ele>
        <time>2021-08-12T12:35:16Z</time>
      </trkpt>
      <trkpt lat="47.85535" lon="-3.8467">
        <ele>40.4</ele>
        <time>2021-08-12T12:35:17Z</time>
      </trkpt>
      <trkpt lat="47.85531" lon="-3.84663">
        <ele>40.4</ele>
        <time>2021-08-12T12:35:18Z</time>
      </trkpt>
      <trkpt lat="47.85525" lon="-3.8465">
        <ele>40.4</ele>
        <time>2021-08-12T12:35:20Z</time>
      </trkpt>
      <trkpt lat="47.85523" lon="-3.84644">
        <ele>40.4</ele>
        <time>2021-08-12T12:35:21Z</time>
      </trkpt>
      <trkpt lat="47.8552" lon="-3.84639">
        <ele>40.4</ele>
        <time>2021-08-12T12:35:22Z</time>
      </trkpt>
      <trkpt lat="47.85518" lon="-3.84635">
        <ele>40.4</ele>
        <time>2021-08-12T12:35:23Z</time>
      </trkpt>
      <trkpt lat="47.85516" lon="-3.84631">
        <ele>40.4</ele>
        <time>2021-08-12T12:35:24Z</time>
      </trkpt>
      <trkpt lat="47.85514" lon="-3.84629">
        <ele>40.4</ele>
        <time>2021-08-12T12:35:25Z</time>
      </trkpt>
      <trkpt lat="47.85512" lon="-3.84627">
        <ele>40.2</ele>
        <time>2021-08-12T12:35:26Z</time>
      </trkpt>
      <trkpt lat="47.85511" lon="-3.84627">
        <ele>40.2</ele>
        <time>2021-08-12T12:35:27Z</time>
      </trkpt>
      <trkpt lat="47.8551" lon="-3.84627">
        <ele>40</ele>
        <time>2021-08-12T12:35:28Z</time>
      </trkpt>
      <trkpt lat="47.85509" lon="-3.84627">
        <ele>40</ele>
        <time>2021-08-12T12:35:29Z</time>
      </trkpt>
      <trkpt lat="47.85508" lon="-3.84626">
        <ele>40</ele>
        <time>2021-08-12T12:35:31Z</time>
      </trkpt>
      <trkpt lat="47.85507" lon="-3.84627">
        <ele>40</ele>
        <time>2021-08-12T12:35:32Z</time>
      </trkpt>
      <trkpt lat="47.85507" lon="-3.84627">
        <ele>40</ele>
        <time>2021-08-12T12:35:33Z</time>
      </trkpt>
      <trkpt lat="47.85506" lon="-3.84627">
        <ele>40</ele>
        <time>2021-08-12T12:35:34Z</time>
      </trkpt>
      <trkpt lat="47.85505" lon="-3.84627">
        <ele>40</ele>
        <time>2021-08-12T12:35:35Z</time>
      </trkpt>
      <trkpt lat="47.85504" lon="-3.84627">
        <ele>40</ele>
        <time>2021-08-12T12:35:36Z</time>
      </trkpt>
      <trkpt lat="47.85502" lon="-3.84627">
        <ele>40</ele>
        <time>2021-08-12T12:35:37Z</time>
      </trkpt>
      <trkpt lat="47.85497" lon="-3.84624">
        <ele>40</ele>
        <time>2021-08-12T12:35:39Z</time>
      </trkpt>
      <trkpt lat="47.85496" lon="-3.8462">
        <ele>40</ele>
        <time>2021-08-12T12:35:40Z</time>
      </trkpt>
      <trkpt lat="47.85495" lon="-3.84615">
        <ele>40</ele>
        <time>2021-08-12T12:35:41Z</time>
      </trkpt>
      <trkpt lat="47.85494" lon="-3.8461">
        <ele>40</ele>
        <time>2021-08-12T12:35:42Z</time>
      </trkpt>
      <trkpt lat="47.85494" lon="-3.84605">
        <ele>40</ele>
        <time>2021-08-12T12:35:43Z</time>
      </trkpt>
      <trkpt lat="47.85493" lon="-3.846">
        <ele>40</ele>
        <time>2021-08-12T12:35:44Z</time>
      </trkpt>
      <trkpt lat="47.85493" lon="-3.84595">
        <ele>40</ele>
        <time>2021-08-12T12:35:45Z</time>
      </trkpt>
      <trkpt lat="47.85492" lon="-3.84583">
        <ele>39.8</ele>
        <time>2021-08-12T12:35:47Z</time>
      </trkpt>
      <trkpt lat="47.85491" lon="-3.84577">
        <ele>39.8</ele>
        <time>2021-08-12T12:35:48Z</time>
      </trkpt>
      <trkpt lat="47.85491" lon="-3.84571">
        <ele>39.8</ele>
        <time>2021-08-12T12:35:49Z</time>
      </trkpt>
      <trkpt lat="47.8549" lon="-3.84565">
        <ele>39.8</ele>
        <time>2021-08-12T12:35:50Z</time>
      </trkpt>
      <trkpt lat="47.85489" lon="-3.84558">
        <ele>39.8</ele>
        <time>2021-08-12T12:35:51Z</time>
      </trkpt>
      <trkpt lat="47.85489" lon="-3.84552">
        <ele>40</ele>
        <time>2021-08-12T12:35:52Z</time>
      </trkpt>
      <trkpt lat="47.85488" lon="-3.84545">
        <ele>40</ele>
        <time>2021-08-12T12:35:53Z</time>
      </trkpt>
      <trkpt lat="47.85487" lon="-3.84538">
        <ele>40</ele>
        <time>2021-08-12T12:35:54Z</time>
      </trkpt>
      <trkpt lat="47.85487" lon="-3.84531">
        <ele>40</ele>
        <time>2021-08-12T12:35:55Z</time>
      </trkpt>
      <trkpt lat="47.85486" lon="-3.84524">
        <ele>40</ele>
        <time>2021-08-12T12:35:56Z</time>
      </trkpt>
      <trkpt lat="47.85486" lon="-3.84517">
        <ele>40.2</ele>
        <time>2021-08-12T12:35:57Z</time>
      </trkpt>
      <trkpt lat="47.85485" lon="-3.8451">
        <ele>40.2</ele>
        <time>2021-08-12T12:35:58Z</time>
      </trkpt>
      <trkpt lat="47.85485" lon="-3.84503">
        <ele>40.2</ele>
        <time>2021-08-12T12:35:59Z</time>
      </trkpt>
      <trkpt lat="47.85484" lon="-3.84496">
        <ele>40.2</ele>
        <time>2021-08-12T12:36:00Z</time>
      </trkpt>
      <trkpt lat="47.85483" lon="-3.84489">
        <ele>40.4</ele>
        <time>2021-08-12T12:36:01Z</time>
      </trkpt>
      <trkpt lat="47.85483" lon="-3.84482">
        <ele>40.4</ele>
        <time>2021-08-12T12:36:02Z</time>
      </trkpt>
      <trkpt lat="47.85482" lon="-3.84476">
        <ele>40.4</ele>
        <time>2021-08-12T12:36:03Z</time>
      </trkpt>
      <trkpt lat="47.85481" lon="-3.8447">
        <ele>40.4</ele>
        <time>2021-08-12T12:36:04Z</time>
      </trkpt>
      <trkpt lat="47.8548" lon="-3.84465">
        <ele>40.4</ele>
        <time>2021-08-12T12:36:05Z</time>
      </trkpt>
      <trkpt lat="47.85479" lon="-3.8446">
        <ele>40.6</ele>
        <time>2021-08-12T12:36:06Z</time>
      </trkpt>
      <trkpt lat="47.85479" lon="-3.84457">
        <ele>40.6</ele>
        <time>2021-08-12T12:36:07Z</time>
      </trkpt>
      <trkpt lat="47.85478" lon="-3.84455">
        <ele>40.6</ele>
        <time>2021-08-12T12:36:08Z</time>
      </trkpt>
      <trkpt lat="47.85478" lon="-3.84455">
        <ele>40.6</ele>
        <time>2021-08-12T12:36:09Z</time>
      </trkpt>
      <trkpt lat="47.85478" lon="-3.84455">
        <ele>40.6</ele>
        <time>2021-08-12T12:36:10Z</time>
      </trkpt>
      <trkpt lat="47.85478" lon="-3.84454">
        <ele>41</ele>
        <time>2021-08-12T12:36:47Z</time>
      </trkpt>
      <trkpt lat="47.85478" lon="-3.84452">
        <ele>41</ele>
        <time>2021-08-12T12:36:48Z</time>
      </trkpt>
      <trkpt lat="47.85477" lon="-3.8445">
        <ele>41</ele>
        <time>2021-08-12T12:36:49Z</time>
      </trkpt>
      <trkpt lat="47.85477" lon="-3.84446">
        <ele>41</ele>
        <time>2021-08-12T12:36:50Z</time>
      </trkpt>
      <trkpt lat="47.85478" lon="-3.84437">
        <ele>40.8</ele>
        <time>2021-08-12T12:36:52Z</time>
      </trkpt>
      <trkpt lat="47.85477" lon="-3.84431">
        <ele>40.8</ele>
        <time>2021-08-12T12:36:53Z</time>
      </trkpt>
      <trkpt lat="47.85477" lon="-3.84424">
        <ele>40.8</ele>
        <time>2021-08-12T12:36:54Z</time>
      </trkpt>
      <trkpt lat="47.85477" lon="-3.84417">
        <ele>40.8</ele>
        <time>2021-08-12T12:36:55Z</time>
      </trkpt>
      <trkpt lat="47.85476" lon="-3.8441">
        <ele>40.6</ele>
        <time>2021-08-12T12:36:56Z</time>
      </trkpt>
      <trkpt lat="47.85476" lon="-3.84403">
        <ele>40.6</ele>
        <time>2021-08-12T12:36:57Z</time>
      </trkpt>
      <trkpt lat="47.85475" lon="-3.84396">
        <ele>40.4</ele>
        <time>2021-08-12T12:36:58Z</time>
      </trkpt>
      <trkpt lat="47.85474" lon="-3.84388">
        <ele>40.4</ele>
        <time>2021-08-12T12:36:59Z</time>
      </trkpt>
      <trkpt lat="47.85473" lon="-3.84381">
        <ele>40.4</ele>
        <time>2021-08-12T12:37:00Z</time>
      </trkpt>
      <trkpt lat="47.85472" lon="-3.84367">
        <ele>40.4</ele>
        <time>2021-08-12T12:37:02Z</time>
      </trkpt>
      <trkpt lat="47.85471" lon="-3.8436">
        <ele>40.4</ele>
        <time>2021-08-12T12:37:03Z</time>
      </trkpt>
      <trkpt lat="47.8547" lon="-3.84352">
        <ele>40.4</ele>
        <time>2021-08-12T12:37:04Z</time>
      </trkpt>
      <trkpt lat="47.8547" lon="-3.84344">
        <ele>40.4</ele>
        <time>2021-08-12T12:37:05Z</time>
      </trkpt>
      <trkpt lat="47.85469" lon="-3.84336">
        <ele>40.4</ele>
        <time>2021-08-12T12:37:06Z</time>
      </trkpt>
      <trkpt lat="47.85468" lon="-3.84329">
        <ele>40.4</ele>
        <time>2021-08-12T12:37:07Z</time>
      </trkpt>
      <trkpt lat="47.85468" lon="-3.84321">
        <ele>40.4</ele>
        <time>2021-08-12T12:37:08Z</time>
      </trkpt>
      <trkpt lat="47.85467" lon="-3.84314">
        <ele>40.4</ele>
        <time>2021-08-12T12:37:09Z</time>
      </trkpt>
      <trkpt lat="47.85466" lon="-3.84306">
        <ele>40.4</ele>
        <time>2021-08-12T12:37:10Z</time>
      </trkpt>
      <trkpt lat="47.85466" lon="-3.84299">
        <ele>40.4</ele>
        <time>2021-08-12T12:37:11Z</time>
      </trkpt>
      <trkpt lat="47.85464" lon="-3.84286">
        <ele>40.6</ele>
        <time>2021-08-12T12:37:13Z</time>
      </trkpt>
      <trkpt lat="47.85463" lon="-3.84279">
        <ele>40.8</ele>
        <time>2021-08-12T12:37:14Z</time>
      </trkpt>
      <trkpt lat="47.85463" lon="-3.84272">
        <ele>40.8</ele>
        <time>2021-08-12T12:37:15Z</time>
      </trkpt>
      <trkpt lat="47.85462" lon="-3.84265">
        <ele>40.8</ele>
        <time>2021-08-12T12:37:16Z</time>
      </trkpt>
      <trkpt lat="47.85461" lon="-3.84259">
        <ele>41</ele>
        <time>2021-08-12T12:37:17Z</time>
      </trkpt>
      <trkpt lat="47.85461" lon="-3.84252">
        <ele>41</ele>
        <time>2021-08-12T12:37:18Z</time>
      </trkpt>
      <trkpt lat="47.8546" lon="-3.84246">
        <ele>41.2</ele>
        <time>2021-08-12T12:37:19Z</time>
      </trkpt>
      <trkpt lat="47.8546" lon="-3.8424">
        <ele>41.4</ele>
        <time>2021-08-12T12:37:20Z</time>
      </trkpt>
      <trkpt lat="47.85459" lon="-3.84234">
        <ele>41.6</ele>
        <time>2021-08-12T12:37:21Z</time>
      </trkpt>
      <trkpt lat="47.85458" lon="-3.84228">
        <ele>41.8</ele>
        <time>2021-08-12T12:37:22Z</time>
      </trkpt>
      <trkpt lat="47.85458" lon="-3.84222">
        <ele>42</ele>
        <time>2021-08-12T12:37:23Z</time>
      </trkpt>
      <trkpt lat="47.85457" lon="-3.84216">
        <ele>42.4</ele>
        <time>2021-08-12T12:37:24Z</time>
      </trkpt>
      <trkpt lat="47.85456" lon="-3.8421">
        <ele>42.6</ele>
        <time>2021-08-12T12:37:25Z</time>
      </trkpt>
      <trkpt lat="47.85456" lon="-3.84204">
        <ele>43</ele>
        <time>2021-08-12T12:37:26Z</time>
      </trkpt>
      <trkpt lat="47.85455" lon="-3.84198">
        <ele>43.2</ele>
        <time>2021-08-12T12:37:27Z</time>
      </trkpt>
      <trkpt lat="47.85455" lon="-3.84191">
        <ele>43.4</ele>
        <time>2021-08-12T12:37:28Z</time>
      </trkpt>
      <trkpt lat="47.85454" lon="-3.84185">
        <ele>43.6</ele>
        <time>2021-08-12T12:37:29Z</time>
      </trkpt>
      <trkpt lat="47.85454" lon="-3.84179">
        <ele>43.8</ele>
        <time>2021-08-12T12:37:30Z</time>
      </trkpt>
      <trkpt lat="47.85453" lon="-3.84173">
        <ele>44</ele>
        <time>2021-08-12T12:37:31Z</time>
      </trkpt>
      <trkpt lat="47.85453" lon="-3.84167">
        <ele>44.2</ele>
        <time>2021-08-12T12:37:32Z</time>
      </trkpt>
      <trkpt lat="47.85452" lon="-3.84161">
        <ele>44.4</ele>
        <time>2021-08-12T12:37:33Z</time>
      </trkpt>
      <trkpt lat="47.85451" lon="-3.84149">
        <ele>44.8</ele>
        <time>2021-08-12T12:37:35Z</time>
      </trkpt>
      <trkpt lat="47.8545" lon="-3.84144">
        <ele>45</ele>
        <time>2021-08-12T12:37:36Z</time>
      </trkpt>
      <trkpt lat="47.8545" lon="-3.84138">
        <ele>45</ele>
        <time>2021-08-12T12:37:37Z</time>
      </trkpt>
      <trkpt lat="47.85449" lon="-3.84132">
        <ele>45.2</ele>
        <time>2021-08-12T12:37:38Z</time>
      </trkpt>
      <trkpt lat="47.85448" lon="-3.84125">
        <ele>45.2</ele>
        <time>2021-08-12T12:37:39Z</time>
      </trkpt>
      <trkpt lat="47.85447" lon="-3.84119">
        <ele>45.4</ele>
        <time>2021-08-12T12:37:40Z</time>
      </trkpt>
      <trkpt lat="47.85446" lon="-3.84113">
        <ele>45.6</ele>
        <time>2021-08-12T12:37:41Z</time>
      </trkpt>
      <trkpt lat="47.85446" lon="-3.84106">
        <ele>45.8</ele>
        <time>2021-08-12T12:37:42Z</time>
      </trkpt>
      <trkpt lat="47.85445" lon="-3.841">
        <ele>46</ele>
        <time>2021-08-12T12:37:43Z</time>
      </trkpt>
      <trkpt lat="47.85445" lon="-3.84093">
        <ele>46.2</ele>
        <time>2021-08-12T12:37:44Z</time>
      </trkpt>
      <trkpt lat="47.85443" lon="-3.8408">
        <ele>46.6</ele>
        <time>2021-08-12T12:37:46Z</time>
      </trkpt>
      <trkpt lat="47.85442" lon="-3.84074">
        <ele>46.8</ele>
        <time>2021-08-12T12:37:47Z</time>
      </trkpt>
      <trkpt lat="47.85441" lon="-3.84068">
        <ele>46.8</ele>
        <time>2021-08-12T12:37:48Z</time>
      </trkpt>
      <trkpt lat="47.85441" lon="-3.84061">
        <ele>47</ele>
        <time>2021-08-12T12:37:49Z</time>
      </trkpt>
      <trkpt lat="47.85439" lon="-3.84055">
        <ele>47</ele>
        <time>2021-08-12T12:37:50Z</time>
      </trkpt>
      <trkpt lat="47.85438" lon="-3.84048">
        <ele>47</ele>
        <time>2021-08-12T12:37:51Z</time>
      </trkpt>
      <trkpt lat="47.85438" lon="-3.84041">
        <ele>47.2</ele>
        <time>2021-08-12T12:37:52Z</time>
      </trkpt>
      <trkpt lat="47.85437" lon="-3.84035">
        <ele>47.2</ele>
        <time>2021-08-12T12:37:53Z</time>
      </trkpt>
      <trkpt lat="47.85436" lon="-3.84028">
        <ele>47.2</ele>
        <time>2021-08-12T12:37:54Z</time>
      </trkpt>
      <trkpt lat="47.85435" lon="-3.84021">
        <ele>47.2</ele>
        <time>2021-08-12T12:37:55Z</time>
      </trkpt>
      <trkpt lat="47.85434" lon="-3.84014">
        <ele>47.2</ele>
        <time>2021-08-12T12:37:56Z</time>
      </trkpt>
      <trkpt lat="47.85433" lon="-3.84006">
        <ele>47.2</ele>
        <time>2021-08-12T12:37:57Z</time>
      </trkpt>
      <trkpt lat="47.85432" lon="-3.83999">
        <ele>47.2</ele>
        <time>2021-08-12T12:37:58Z</time>
      </trkpt>
      <trkpt lat="47.8543" lon="-3.83991">
        <ele>47.2</ele>
        <time>2021-08-12T12:37:59Z</time>
      </trkpt>
      <trkpt lat="47.85429" lon="-3.83983">
        <ele>47.2</ele>
        <time>2021-08-12T12:38:00Z</time>
      </trkpt>
      <trkpt lat="47.85429" lon="-3.83975">
        <ele>47.2</ele>
        <time>2021-08-12T12:38:01Z</time>
      </trkpt>
      <trkpt lat="47.85427" lon="-3.83967">
        <ele>47.2</ele>
        <time>2021-08-12T12:38:02Z</time>
      </trkpt>
      <trkpt lat="47.85426" lon="-3.83959">
        <ele>47.2</ele>
        <time>2021-08-12T12:38:03Z</time>
      </trkpt>
      <trkpt lat="47.85425" lon="-3.83951">
        <ele>47.2</ele>
        <time>2021-08-12T12:38:04Z</time>
      </trkpt>
      <trkpt lat="47.85424" lon="-3.83943">
        <ele>47.2</ele>
        <time>2021-08-12T12:38:05Z</time>
      </trkpt>
      <trkpt lat="47.85423" lon="-3.83934">
        <ele>47.2</ele>
        <time>2021-08-12T12:38:06Z</time>
      </trkpt>
      <trkpt lat="47.8542" lon="-3.83915">
        <ele>47</ele>
        <time>2021-08-12T12:38:08Z</time>
      </trkpt>
      <trkpt lat="47.85419" lon="-3.83905">
        <ele>47</ele>
        <time>2021-08-12T12:38:09Z</time>
      </trkpt>
      <trkpt lat="47.85418" lon="-3.83895">
        <ele>47</ele>
        <time>2021-08-12T12:38:10Z</time>
      </trkpt>
      <trkpt lat="47.85416" lon="-3.83885">
        <ele>46.8</ele>
        <time>2021-08-12T12:38:11Z</time>
      </trkpt>
      <trkpt lat="47.85414" lon="-3.83874">
        <ele>46.6</ele>
        <time>2021-08-12T12:38:12Z</time>
      </trkpt>
      <trkpt lat="47.85413" lon="-3.83863">
        <ele>46.4</ele>
        <time>2021-08-12T12:38:13Z</time>
      </trkpt>
      <trkpt lat="47.85411" lon="-3.83851">
        <ele>46.2</ele>
        <time>2021-08-12T12:38:14Z</time>
      </trkpt>
      <trkpt lat="47.85409" lon="-3.8384">
        <ele>46</ele>
        <time>2021-08-12T12:38:15Z</time>
      </trkpt>
      <trkpt lat="47.85408" lon="-3.83829">
        <ele>45.6</ele>
        <time>2021-08-12T12:38:16Z</time>
      </trkpt>
      <trkpt lat="47.85406" lon="-3.83817">
        <ele>45.4</ele>
        <time>2021-08-12T12:38:17Z</time>
      </trkpt>
      <trkpt lat="47.85402" lon="-3.83795">
        <ele>44.8</ele>
        <time>2021-08-12T12:38:19Z</time>
      </trkpt>
      <trkpt lat="47.85401" lon="-3.83784">
        <ele>44.6</ele>
        <time>2021-08-12T12:38:20Z</time>
      </trkpt>
      <trkpt lat="47.85399" lon="-3.83773">
        <ele>44.4</ele>
        <time>2021-08-12T12:38:21Z</time>
      </trkpt>
      <trkpt lat="47.85397" lon="-3.83763">
        <ele>44.2</ele>
        <time>2021-08-12T12:38:22Z</time>
      </trkpt>
      <trkpt lat="47.85396" lon="-3.83752">
        <ele>44</ele>
        <time>2021-08-12T12:38:23Z</time>
      </trkpt>
      <trkpt lat="47.85394" lon="-3.83742">
        <ele>44</ele>
        <time>2021-08-12T12:38:24Z</time>
      </trkpt>
      <trkpt lat="47.85393" lon="-3.83733">
        <ele>44</ele>
        <time>2021-08-12T12:38:25Z</time>
      </trkpt>
      <trkpt lat="47.85391" lon="-3.83724">
        <ele>44</ele>
        <time>2021-08-12T12:38:26Z</time>
      </trkpt>
      <trkpt lat="47.8539" lon="-3.83715">
        <ele>44</ele>
        <time>2021-08-12T12:38:27Z</time>
      </trkpt>
      <trkpt lat="47.85389" lon="-3.83707">
        <ele>44</ele>
        <time>2021-08-12T12:38:28Z</time>
      </trkpt>
      <trkpt lat="47.85386" lon="-3.8369">
        <ele>44.2</ele>
        <time>2021-08-12T12:38:30Z</time>
      </trkpt>
      <trkpt lat="47.85385" lon="-3.83682">
        <ele>44.2</ele>
        <time>2021-08-12T12:38:31Z</time>
      </trkpt>
      <trkpt lat="47.85384" lon="-3.83675">
        <ele>44.2</ele>
        <time>2021-08-12T12:38:32Z</time>
      </trkpt>
      <trkpt lat="47.85383" lon="-3.83667">
        <ele>44.4</ele>
        <time>2021-08-12T12:38:33Z</time>
      </trkpt>
      <trkpt lat="47.85381" lon="-3.8366">
        <ele>45</ele>
        <time>2021-08-12T12:38:34Z</time>
      </trkpt>
      <trkpt lat="47.8538" lon="-3.83653">
        <ele>45.4</ele>
        <time>2021-08-12T12:38:35Z</time>
      </trkpt>
      <trkpt lat="47.85379" lon="-3.83646">
        <ele>46</ele>
        <time>2021-08-12T12:38:36Z</time>
      </trkpt>
      <trkpt lat="47.85378" lon="-3.83639">
        <ele>46.4</ele>
        <time>2021-08-12T12:38:37Z</time>
      </trkpt>
      <trkpt lat="47.85377" lon="-3.83632">
        <ele>47</ele>
        <time>2021-08-12T12:38:38Z</time>
      </trkpt>
      <trkpt lat="47.85376" lon="-3.83625">
        <ele>47.4</ele>
        <time>2021-08-12T12:38:39Z</time>
      </trkpt>
      <trkpt lat="47.85374" lon="-3.83612">
        <ele>48</ele>
        <time>2021-08-12T12:38:41Z</time>
      </trkpt>
      <trkpt lat="47.85373" lon="-3.83606">
        <ele>48</ele>
        <time>2021-08-12T12:38:42Z</time>
      </trkpt>
      <trkpt lat="47.85372" lon="-3.83602">
        <ele>48.2</ele>
        <time>2021-08-12T12:38:43Z</time>
      </trkpt>
      <trkpt lat="47.85371" lon="-3.83597">
        <ele>48.4</ele>
        <time>2021-08-12T12:38:44Z</time>
      </trkpt>
      <trkpt lat="47.8537" lon="-3.83593">
        <ele>48.6</ele>
        <time>2021-08-12T12:38:45Z</time>
      </trkpt>
      <trkpt lat="47.8537" lon="-3.83589">
        <ele>48.8</ele>
        <time>2021-08-12T12:38:46Z</time>
      </trkpt>
      <trkpt lat="47.85369" lon="-3.83585">
        <ele>49.2</ele>
        <time>2021-08-12T12:38:47Z</time>
      </trkpt>
      <trkpt lat="47.85368" lon="-3.83581">
        <ele>49.4</ele>
        <time>2021-08-12T12:38:48Z</time>
      </trkpt>
      <trkpt lat="47.85367" lon="-3.83576">
        <ele>49.6</ele>
        <time>2021-08-12T12:38:49Z</time>
      </trkpt>
      <trkpt lat="47.85366" lon="-3.83572">
        <ele>49.8</ele>
        <time>2021-08-12T12:38:50Z</time>
      </trkpt>
      <trkpt lat="47.85365" lon="-3.83568">
        <ele>50</ele>
        <time>2021-08-12T12:38:51Z</time>
      </trkpt>
      <trkpt lat="47.85363" lon="-3.83558">
        <ele>50.6</ele>
        <time>2021-08-12T12:38:53Z</time>
      </trkpt>
      <trkpt lat="47.85362" lon="-3.83552">
        <ele>51.2</ele>
        <time>2021-08-12T12:38:54Z</time>
      </trkpt>
      <trkpt lat="47.8536" lon="-3.83547">
        <ele>51.4</ele>
        <time>2021-08-12T12:38:55Z</time>
      </trkpt>
      <trkpt lat="47.85359" lon="-3.83542">
        <ele>51.4</ele>
        <time>2021-08-12T12:38:56Z</time>
      </trkpt>
      <trkpt lat="47.85358" lon="-3.83537">
        <ele>51.4</ele>
        <time>2021-08-12T12:38:57Z</time>
      </trkpt>
      <trkpt lat="47.85355" lon="-3.83527">
        <ele>51.4</ele>
        <time>2021-08-12T12:38:59Z</time>
      </trkpt>
      <trkpt lat="47.85353" lon="-3.83516">
        <ele>51.4</ele>
        <time>2021-08-12T12:39:01Z</time>
      </trkpt>
      <trkpt lat="47.85351" lon="-3.8351">
        <ele>51.4</ele>
        <time>2021-08-12T12:39:02Z</time>
      </trkpt>
      <trkpt lat="47.85349" lon="-3.83498">
        <ele>51.4</ele>
        <time>2021-08-12T12:39:04Z</time>
      </trkpt>
      <trkpt lat="47.85345" lon="-3.83485">
        <ele>51.4</ele>
        <time>2021-08-12T12:39:06Z</time>
      </trkpt>
      <trkpt lat="47.85344" lon="-3.83478">
        <ele>51.4</ele>
        <time>2021-08-12T12:39:07Z</time>
      </trkpt>
      <trkpt lat="47.85343" lon="-3.83471">
        <ele>51.4</ele>
        <time>2021-08-12T12:39:08Z</time>
      </trkpt>
      <trkpt lat="47.85342" lon="-3.83464">
        <ele>51.4</ele>
        <time>2021-08-12T12:39:09Z</time>
      </trkpt>
      <trkpt lat="47.8534" lon="-3.83457">
        <ele>51.4</ele>
        <time>2021-08-12T12:39:10Z</time>
      </trkpt>
      <trkpt lat="47.85339" lon="-3.83451">
        <ele>51.2</ele>
        <time>2021-08-12T12:39:11Z</time>
      </trkpt>
      <trkpt lat="47.85338" lon="-3.83443">
        <ele>51.2</ele>
        <time>2021-08-12T12:39:12Z</time>
      </trkpt>
      <trkpt lat="47.85337" lon="-3.83436">
        <ele>51.2</ele>
        <time>2021-08-12T12:39:13Z</time>
      </trkpt>
      <trkpt lat="47.85336" lon="-3.83429">
        <ele>51.2</ele>
        <time>2021-08-12T12:39:14Z</time>
      </trkpt>
      <trkpt lat="47.85335" lon="-3.83412">
        <ele>51.2</ele>
        <time>2021-08-12T12:39:16Z</time>
      </trkpt>
      <trkpt lat="47.85335" lon="-3.83404">
        <ele>51</ele>
        <time>2021-08-12T12:39:17Z</time>
      </trkpt>
      <trkpt lat="47.85335" lon="-3.83395">
        <ele>51</ele>
        <time>2021-08-12T12:39:18Z</time>
      </trkpt>
      <trkpt lat="47.85335" lon="-3.83386">
        <ele>51</ele>
        <time>2021-08-12T12:39:19Z</time>
      </trkpt>
      <trkpt lat="47.85335" lon="-3.83378">
        <ele>51</ele>
        <time>2021-08-12T12:39:20Z</time>
      </trkpt>
      <trkpt lat="47.85336" lon="-3.83369">
        <ele>50.8</ele>
        <time>2021-08-12T12:39:21Z</time>
      </trkpt>
      <trkpt lat="47.85336" lon="-3.8336">
        <ele>50.8</ele>
        <time>2021-08-12T12:39:22Z</time>
      </trkpt>
      <trkpt lat="47.85336" lon="-3.83351">
        <ele>50.4</ele>
        <time>2021-08-12T12:39:23Z</time>
      </trkpt>
      <trkpt lat="47.85336" lon="-3.83342">
        <ele>50.2</ele>
        <time>2021-08-12T12:39:24Z</time>
      </trkpt>
      <trkpt lat="47.85336" lon="-3.83334">
        <ele>50</ele>
        <time>2021-08-12T12:39:25Z</time>
      </trkpt>
      <trkpt lat="47.85336" lon="-3.83317">
        <ele>49.2</ele>
        <time>2021-08-12T12:39:27Z</time>
      </trkpt>
      <trkpt lat="47.85336" lon="-3.83308">
        <ele>49</ele>
        <time>2021-08-12T12:39:28Z</time>
      </trkpt>
      <trkpt lat="47.85336" lon="-3.833">
        <ele>48.8</ele>
        <time>2021-08-12T12:39:29Z</time>
      </trkpt>
      <trkpt lat="47.85336" lon="-3.83292">
        <ele>48.8</ele>
        <time>2021-08-12T12:39:30Z</time>
      </trkpt>
      <trkpt lat="47.85336" lon="-3.83284">
        <ele>48.6</ele>
        <time>2021-08-12T12:39:31Z</time>
      </trkpt>
      <trkpt lat="47.85336" lon="-3.83276">
        <ele>48.6</ele>
        <time>2021-08-12T12:39:32Z</time>
      </trkpt>
      <trkpt lat="47.85336" lon="-3.83267">
        <ele>48.6</ele>
        <time>2021-08-12T12:39:33Z</time>
      </trkpt>
      <trkpt lat="47.85337" lon="-3.83258">
        <ele>48.6</ele>
        <time>2021-08-12T12:39:34Z</time>
      </trkpt>
      <trkpt lat="47.85337" lon="-3.8325">
        <ele>48.4</ele>
        <time>2021-08-12T12:39:35Z</time>
      </trkpt>
      <trkpt lat="47.85337" lon="-3.83241">
        <ele>48.4</ele>
        <time>2021-08-12T12:39:36Z</time>
      </trkpt>
      <trkpt lat="47.85336" lon="-3.83223">
        <ele>48.2</ele>
        <time>2021-08-12T12:39:38Z</time>
      </trkpt>
      <trkpt lat="47.85336" lon="-3.83214">
        <ele>48.2</ele>
        <time>2021-08-12T12:39:39Z</time>
      </trkpt>
      <trkpt lat="47.85336" lon="-3.83205">
        <ele>48.2</ele>
        <time>2021-08-12T12:39:40Z</time>
      </trkpt>
      <trkpt lat="47.85336" lon="-3.83196">
        <ele>48</ele>
        <time>2021-08-12T12:39:41Z</time>
      </trkpt>
      <trkpt lat="47.85336" lon="-3.83187">
        <ele>48</ele>
        <time>2021-08-12T12:39:42Z</time>
      </trkpt>
      <trkpt lat="47.85336" lon="-3.83177">
        <ele>48</ele>
        <time>2021-08-12T12:39:43Z</time>
      </trkpt>
      <trkpt lat="47.85336" lon="-3.83168">
        <ele>47.8</ele>
        <time>2021-08-12T12:39:44Z</time>
      </trkpt>
      <trkpt lat="47.85336" lon="-3.83159">
        <ele>47.8</ele>
        <time>2021-08-12T12:39:45Z</time>
      </trkpt>
      <trkpt lat="47.85336" lon="-3.8315">
        <ele>47.6</ele>
        <time>2021-08-12T12:39:46Z</time>
      </trkpt>
      <trkpt lat="47.85336" lon="-3.83141">
        <ele>47.6</ele>
        <time>2021-08-12T12:39:47Z</time>
      </trkpt>
      <trkpt lat="47.85336" lon="-3.83125">
        <ele>47.6</ele>
        <time>2021-08-12T12:39:49Z</time>
      </trkpt>
      <trkpt lat="47.85335" lon="-3.83116">
        <ele>47.6</ele>
        <time>2021-08-12T12:39:50Z</time>
      </trkpt>
      <trkpt lat="47.85335" lon="-3.83108">
        <ele>47.6</ele>
        <time>2021-08-12T12:39:51Z</time>
      </trkpt>
      <trkpt lat="47.85335" lon="-3.831">
        <ele>47.6</ele>
        <time>2021-08-12T12:39:52Z</time>
      </trkpt>
      <trkpt lat="47.85334" lon="-3.83091">
        <ele>47.6</ele>
        <time>2021-08-12T12:39:53Z</time>
      </trkpt>
      <trkpt lat="47.85334" lon="-3.83083">
        <ele>47.6</ele>
        <time>2021-08-12T12:39:54Z</time>
      </trkpt>
      <trkpt lat="47.85333" lon="-3.83075">
        <ele>47.6</ele>
        <time>2021-08-12T12:39:55Z</time>
      </trkpt>
      <trkpt lat="47.85332" lon="-3.83067">
        <ele>47.6</ele>
        <time>2021-08-12T12:39:56Z</time>
      </trkpt>
      <trkpt lat="47.85331" lon="-3.83059">
        <ele>47.8</ele>
        <time>2021-08-12T12:39:57Z</time>
      </trkpt>
      <trkpt lat="47.8533" lon="-3.83051">
        <ele>47.8</ele>
        <time>2021-08-12T12:39:58Z</time>
      </trkpt>
      <trkpt lat="47.85328" lon="-3.83036">
        <ele>48.2</ele>
        <time>2021-08-12T12:40:00Z</time>
      </trkpt>
      <trkpt lat="47.85327" lon="-3.83029">
        <ele>48.2</ele>
        <time>2021-08-12T12:40:01Z</time>
      </trkpt>
      <trkpt lat="47.85326" lon="-3.83022">
        <ele>48.2</ele>
        <time>2021-08-12T12:40:02Z</time>
      </trkpt>
      <trkpt lat="47.85324" lon="-3.83014">
        <ele>48.2</ele>
        <time>2021-08-12T12:40:03Z</time>
      </trkpt>
      <trkpt lat="47.85323" lon="-3.83008">
        <ele>48.2</ele>
        <time>2021-08-12T12:40:04Z</time>
      </trkpt>
      <trkpt lat="47.85321" lon="-3.83001">
        <ele>48.2</ele>
        <time>2021-08-12T12:40:05Z</time>
      </trkpt>
      <trkpt lat="47.8532" lon="-3.82994">
        <ele>48.2</ele>
        <time>2021-08-12T12:40:06Z</time>
      </trkpt>
      <trkpt lat="47.85318" lon="-3.82987">
        <ele>48.4</ele>
        <time>2021-08-12T12:40:07Z</time>
      </trkpt>
      <trkpt lat="47.85316" lon="-3.8298">
        <ele>48.4</ele>
        <time>2021-08-12T12:40:08Z</time>
      </trkpt>
      <trkpt lat="47.85314" lon="-3.82974">
        <ele>48.6</ele>
        <time>2021-08-12T12:40:09Z</time>
      </trkpt>
      <trkpt lat="47.8531" lon="-3.8296">
        <ele>49</ele>
        <time>2021-08-12T12:40:11Z</time>
      </trkpt>
      <trkpt lat="47.85308" lon="-3.82953">
        <ele>49.2</ele>
        <time>2021-08-12T12:40:12Z</time>
      </trkpt>
      <trkpt lat="47.85306" lon="-3.82947">
        <ele>49.4</ele>
        <time>2021-08-12T12:40:13Z</time>
      </trkpt>
      <trkpt lat="47.85304" lon="-3.8294">
        <ele>49.4</ele>
        <time>2021-08-12T12:40:14Z</time>
      </trkpt>
      <trkpt lat="47.85302" lon="-3.82933">
        <ele>49.4</ele>
        <time>2021-08-12T12:40:15Z</time>
      </trkpt>
      <trkpt lat="47.853" lon="-3.82926">
        <ele>49.6</ele>
        <time>2021-08-12T12:40:16Z</time>
      </trkpt>
      <trkpt lat="47.85297" lon="-3.82919">
        <ele>49.6</ele>
        <time>2021-08-12T12:40:17Z</time>
      </trkpt>
      <trkpt lat="47.85295" lon="-3.82912">
        <ele>49.8</ele>
        <time>2021-08-12T12:40:18Z</time>
      </trkpt>
      <trkpt lat="47.85293" lon="-3.82906">
        <ele>49.8</ele>
        <time>2021-08-12T12:40:19Z</time>
      </trkpt>
      <trkpt lat="47.85292" lon="-3.82899">
        <ele>50</ele>
        <time>2021-08-12T12:40:20Z</time>
      </trkpt>
      <trkpt lat="47.85288" lon="-3.82885">
        <ele>50.2</ele>
        <time>2021-08-12T12:40:22Z</time>
      </trkpt>
      <trkpt lat="47.85287" lon="-3.82878">
        <ele>50.2</ele>
        <time>2021-08-12T12:40:23Z</time>
      </trkpt>
      <trkpt lat="47.85285" lon="-3.82871">
        <ele>50.2</ele>
        <time>2021-08-12T12:40:24Z</time>
      </trkpt>
      <trkpt lat="47.85283" lon="-3.82864">
        <ele>50.2</ele>
        <time>2021-08-12T12:40:25Z</time>
      </trkpt>
      <trkpt lat="47.85282" lon="-3.82857">
        <ele>50.2</ele>
        <time>2021-08-12T12:40:26Z</time>
      </trkpt>
      <trkpt lat="47.85281" lon="-3.82851">
        <ele>50.2</ele>
        <time>2021-08-12T12:40:27Z</time>
      </trkpt>
      <trkpt lat="47.8528" lon="-3.82844">
        <ele>50.2</ele>
        <time>2021-08-12T12:40:28Z</time>
      </trkpt>
      <trkpt lat="47.85279" lon="-3.82837">
        <ele>50.2</ele>
        <time>2021-08-12T12:40:29Z</time>
      </trkpt>
      <trkpt lat="47.85278" lon="-3.8283">
        <ele>50.2</ele>
        <time>2021-08-12T12:40:30Z</time>
      </trkpt>
      <trkpt lat="47.85277" lon="-3.82824">
        <ele>50.2</ele>
        <time>2021-08-12T12:40:31Z</time>
      </trkpt>
      <trkpt lat="47.85275" lon="-3.8281">
        <ele>50.2</ele>
        <time>2021-08-12T12:40:33Z</time>
      </trkpt>
      <trkpt lat="47.85274" lon="-3.82804">
        <ele>50.2</ele>
        <time>2021-08-12T12:40:34Z</time>
      </trkpt>
      <trkpt lat="47.85273" lon="-3.82797">
        <ele>50.2</ele>
        <time>2021-08-12T12:40:35Z</time>
      </trkpt>
      <trkpt lat="47.85272" lon="-3.82791">
        <ele>50.2</ele>
        <time>2021-08-12T12:40:36Z</time>
      </trkpt>
      <trkpt lat="47.85272" lon="-3.82784">
        <ele>50.2</ele>
        <time>2021-08-12T12:40:37Z</time>
      </trkpt>
      <trkpt lat="47.85271" lon="-3.82778">
        <ele>50.2</ele>
        <time>2021-08-12T12:40:38Z</time>
      </trkpt>
      <trkpt lat="47.8527" lon="-3.82772">
        <ele>50.4</ele>
        <time>2021-08-12T12:40:39Z</time>
      </trkpt>
      <trkpt lat="47.8527" lon="-3.82766">
        <ele>50.4</ele>
        <time>2021-08-12T12:40:40Z</time>
      </trkpt>
      <trkpt lat="47.85269" lon="-3.82759">
        <ele>50.4</ele>
        <time>2021-08-12T12:40:41Z</time>
      </trkpt>
      <trkpt lat="47.85269" lon="-3.82753">
        <ele>50.4</ele>
        <time>2021-08-12T12:40:42Z</time>
      </trkpt>
      <trkpt lat="47.85269" lon="-3.82747">
        <ele>50.4</ele>
        <time>2021-08-12T12:40:43Z</time>
      </trkpt>
      <trkpt lat="47.85268" lon="-3.82741">
        <ele>50.6</ele>
        <time>2021-08-12T12:40:44Z</time>
      </trkpt>
      <trkpt lat="47.85268" lon="-3.82735">
        <ele>50.8</ele>
        <time>2021-08-12T12:40:45Z</time>
      </trkpt>
      <trkpt lat="47.85268" lon="-3.82729">
        <ele>50.8</ele>
        <time>2021-08-12T12:40:46Z</time>
      </trkpt>
      <trkpt lat="47.85269" lon="-3.82716">
        <ele>51</ele>
        <time>2021-08-12T12:40:48Z</time>
      </trkpt>
      <trkpt lat="47.85269" lon="-3.82709">
        <ele>51.2</ele>
        <time>2021-08-12T12:40:49Z</time>
      </trkpt>
      <trkpt lat="47.85271" lon="-3.82693">
        <ele>51.2</ele>
        <time>2021-08-12T12:40:51Z</time>
      </trkpt>
      <trkpt lat="47.85274" lon="-3.82674">
        <ele>51.2</ele>
        <time>2021-08-12T12:40:53Z</time>
      </trkpt>
      <trkpt lat="47.85276" lon="-3.82664">
        <ele>51.2</ele>
        <time>2021-08-12T12:40:54Z</time>
      </trkpt>
      <trkpt lat="47.85279" lon="-3.82643">
        <ele>51.2</ele>
        <time>2021-08-12T12:40:56Z</time>
      </trkpt>
      <trkpt lat="47.85283" lon="-3.82622">
        <ele>50.8</ele>
        <time>2021-08-12T12:40:58Z</time>
      </trkpt>
      <trkpt lat="47.85285" lon="-3.82611">
        <ele>50.2</ele>
        <time>2021-08-12T12:40:59Z</time>
      </trkpt>
      <trkpt lat="47.85286" lon="-3.826">
        <ele>49.8</ele>
        <time>2021-08-12T12:41:00Z</time>
      </trkpt>
      <trkpt lat="47.85288" lon="-3.82589">
        <ele>49.2</ele>
        <time>2021-08-12T12:41:01Z</time>
      </trkpt>
      <trkpt lat="47.85291" lon="-3.82578">
        <ele>48.6</ele>
        <time>2021-08-12T12:41:02Z</time>
      </trkpt>
      <trkpt lat="47.85292" lon="-3.82567">
        <ele>48.2</ele>
        <time>2021-08-12T12:41:03Z</time>
      </trkpt>
      <trkpt lat="47.85294" lon="-3.82556">
        <ele>47.8</ele>
        <time>2021-08-12T12:41:04Z</time>
      </trkpt>
      <trkpt lat="47.85296" lon="-3.82545">
        <ele>47.2</ele>
        <time>2021-08-12T12:41:05Z</time>
      </trkpt>
      <trkpt lat="47.85299" lon="-3.82534">
        <ele>47</ele>
        <time>2021-08-12T12:41:06Z</time>
      </trkpt>
      <trkpt lat="47.85302" lon="-3.82512">
        <ele>46.4</ele>
        <time>2021-08-12T12:41:08Z</time>
      </trkpt>
      <trkpt lat="47.85304" lon="-3.82501">
        <ele>46.2</ele>
        <time>2021-08-12T12:41:09Z</time>
      </trkpt>
      <trkpt lat="47.85306" lon="-3.8249">
        <ele>46</ele>
        <time>2021-08-12T12:41:10Z</time>
      </trkpt>
      <trkpt lat="47.85308" lon="-3.82479">
        <ele>45.8</ele>
        <time>2021-08-12T12:41:11Z</time>
      </trkpt>
      <trkpt lat="47.8531" lon="-3.82468">
        <ele>45.6</ele>
        <time>2021-08-12T12:41:12Z</time>
      </trkpt>
      <trkpt lat="47.85313" lon="-3.82457">
        <ele>45.2</ele>
        <time>2021-08-12T12:41:13Z</time>
      </trkpt>
      <trkpt lat="47.85314" lon="-3.82446">
        <ele>45</ele>
        <time>2021-08-12T12:41:14Z</time>
      </trkpt>
      <trkpt lat="47.85316" lon="-3.82435">
        <ele>44.8</ele>
        <time>2021-08-12T12:41:15Z</time>
      </trkpt>
      <trkpt lat="47.85318" lon="-3.82425">
        <ele>44.6</ele>
        <time>2021-08-12T12:41:16Z</time>
      </trkpt>
      <trkpt lat="47.8532" lon="-3.82414">
        <ele>44.4</ele>
        <time>2021-08-12T12:41:17Z</time>
      </trkpt>
      <trkpt lat="47.85324" lon="-3.82394">
        <ele>43.8</ele>
        <time>2021-08-12T12:41:19Z</time>
      </trkpt>
      <trkpt lat="47.85325" lon="-3.82385">
        <ele>43</ele>
        <time>2021-08-12T12:41:20Z</time>
      </trkpt>
      <trkpt lat="47.85327" lon="-3.82375">
        <ele>42.8</ele>
        <time>2021-08-12T12:41:21Z</time>
      </trkpt>
      <trkpt lat="47.85328" lon="-3.82365">
        <ele>42.6</ele>
        <time>2021-08-12T12:41:22Z</time>
      </trkpt>
      <trkpt lat="47.85329" lon="-3.82356">
        <ele>42.4</ele>
        <time>2021-08-12T12:41:23Z</time>
      </trkpt>
      <trkpt lat="47.85331" lon="-3.82346">
        <ele>42.4</ele>
        <time>2021-08-12T12:41:24Z</time>
      </trkpt>
      <trkpt lat="47.85332" lon="-3.82336">
        <ele>42.4</ele>
        <time>2021-08-12T12:41:25Z</time>
      </trkpt>
      <trkpt lat="47.85333" lon="-3.82326">
        <ele>42.4</ele>
        <time>2021-08-12T12:41:26Z</time>
      </trkpt>
      <trkpt lat="47.85333" lon="-3.82315">
        <ele>42.2</ele>
        <time>2021-08-12T12:41:27Z</time>
      </trkpt>
      <trkpt lat="47.85334" lon="-3.82304">
        <ele>42.2</ele>
        <time>2021-08-12T12:41:28Z</time>
      </trkpt>
      <trkpt lat="47.85335" lon="-3.82282">
        <ele>42</ele>
        <time>2021-08-12T12:41:30Z</time>
      </trkpt>
      <trkpt lat="47.85335" lon="-3.82272">
        <ele>42</ele>
        <time>2021-08-12T12:41:31Z</time>
      </trkpt>
      <trkpt lat="47.85336" lon="-3.82261">
        <ele>41.8</ele>
        <time>2021-08-12T12:41:32Z</time>
      </trkpt>
      <trkpt lat="47.85337" lon="-3.8225">
        <ele>41.8</ele>
        <time>2021-08-12T12:41:33Z</time>
      </trkpt>
      <trkpt lat="47.85337" lon="-3.82239">
        <ele>41.6</ele>
        <time>2021-08-12T12:41:34Z</time>
      </trkpt>
      <trkpt lat="47.85337" lon="-3.82228">
        <ele>41.2</ele>
        <time>2021-08-12T12:41:35Z</time>
      </trkpt>
      <trkpt lat="47.85338" lon="-3.82216">
        <ele>40.8</ele>
        <time>2021-08-12T12:41:36Z</time>
      </trkpt>
      <trkpt lat="47.85338" lon="-3.82204">
        <ele>40.8</ele>
        <time>2021-08-12T12:41:37Z</time>
      </trkpt>
      <trkpt lat="47.85339" lon="-3.82192">
        <ele>40.6</ele>
        <time>2021-08-12T12:41:38Z</time>
      </trkpt>
      <trkpt lat="47.85339" lon="-3.8218">
        <ele>40.6</ele>
        <time>2021-08-12T12:41:39Z</time>
      </trkpt>
      <trkpt lat="47.8534" lon="-3.82167">
        <ele>40.2</ele>
        <time>2021-08-12T12:41:40Z</time>
      </trkpt>
      <trkpt lat="47.85341" lon="-3.82155">
        <ele>39.8</ele>
        <time>2021-08-12T12:41:41Z</time>
      </trkpt>
      <trkpt lat="47.85341" lon="-3.82143">
        <ele>39.4</ele>
        <time>2021-08-12T12:41:42Z</time>
      </trkpt>
      <trkpt lat="47.85341" lon="-3.82131">
        <ele>39.2</ele>
        <time>2021-08-12T12:41:43Z</time>
      </trkpt>
      <trkpt lat="47.85342" lon="-3.82119">
        <ele>38.8</ele>
        <time>2021-08-12T12:41:44Z</time>
      </trkpt>
      <trkpt lat="47.85342" lon="-3.82109">
        <ele>38.4</ele>
        <time>2021-08-12T12:41:45Z</time>
      </trkpt>
      <trkpt lat="47.85342" lon="-3.82099">
        <ele>38.2</ele>
        <time>2021-08-12T12:41:46Z</time>
      </trkpt>
      <trkpt lat="47.85343" lon="-3.82089">
        <ele>38.2</ele>
        <time>2021-08-12T12:41:47Z</time>
      </trkpt>
      <trkpt lat="47.85343" lon="-3.82079">
        <ele>38</ele>
        <time>2021-08-12T12:41:48Z</time>
      </trkpt>
      <trkpt lat="47.85343" lon="-3.8207">
        <ele>38</ele>
        <time>2021-08-12T12:41:49Z</time>
      </trkpt>
      <trkpt lat="47.85343" lon="-3.8206">
        <ele>38</ele>
        <time>2021-08-12T12:41:50Z</time>
      </trkpt>
      <trkpt lat="47.85344" lon="-3.82043">
        <ele>38</ele>
        <time>2021-08-12T12:41:52Z</time>
      </trkpt>
      <trkpt lat="47.85344" lon="-3.82034">
        <ele>38</ele>
        <time>2021-08-12T12:41:53Z</time>
      </trkpt>
      <trkpt lat="47.85345" lon="-3.82026">
        <ele>38</ele>
        <time>2021-08-12T12:41:54Z</time>
      </trkpt>
      <trkpt lat="47.85345" lon="-3.82018">
        <ele>38.2</ele>
        <time>2021-08-12T12:41:55Z</time>
      </trkpt>
      <trkpt lat="47.85345" lon="-3.8201">
        <ele>38.4</ele>
        <time>2021-08-12T12:41:56Z</time>
      </trkpt>
      <trkpt lat="47.85345" lon="-3.82002">
        <ele>38.6</ele>
        <time>2021-08-12T12:41:57Z</time>
      </trkpt>
      <trkpt lat="47.85346" lon="-3.81994">
        <ele>38.8</ele>
        <time>2021-08-12T12:41:58Z</time>
      </trkpt>
      <trkpt lat="47.85346" lon="-3.81987">
        <ele>39</ele>
        <time>2021-08-12T12:41:59Z</time>
      </trkpt>
      <trkpt lat="47.85346" lon="-3.8198">
        <ele>39.6</ele>
        <time>2021-08-12T12:42:00Z</time>
      </trkpt>
      <trkpt lat="47.85347" lon="-3.81972">
        <ele>40</ele>
        <time>2021-08-12T12:42:01Z</time>
      </trkpt>
      <trkpt lat="47.85347" lon="-3.81958">
        <ele>40.6</ele>
        <time>2021-08-12T12:42:03Z</time>
      </trkpt>
      <trkpt lat="47.85347" lon="-3.81951">
        <ele>41.2</ele>
        <time>2021-08-12T12:42:04Z</time>
      </trkpt>
      <trkpt lat="47.85348" lon="-3.81945">
        <ele>41.4</ele>
        <time>2021-08-12T12:42:05Z</time>
      </trkpt>
      <trkpt lat="47.85348" lon="-3.81939">
        <ele>41.8</ele>
        <time>2021-08-12T12:42:06Z</time>
      </trkpt>
      <trkpt lat="47.85348" lon="-3.81934">
        <ele>42</ele>
        <time>2021-08-12T12:42:07Z</time>
      </trkpt>
      <trkpt lat="47.85348" lon="-3.81929">
        <ele>42.2</ele>
        <time>2021-08-12T12:42:08Z</time>
      </trkpt>
      <trkpt lat="47.85348" lon="-3.81924">
        <ele>42.6</ele>
        <time>2021-08-12T12:42:09Z</time>
      </trkpt>
      <trkpt lat="47.85349" lon="-3.8192">
        <ele>43</ele>
        <time>2021-08-12T12:42:10Z</time>
      </trkpt>
      <trkpt lat="47.85349" lon="-3.81915">
        <ele>43.2</ele>
        <time>2021-08-12T12:42:11Z</time>
      </trkpt>
      <trkpt lat="47.85349" lon="-3.81911">
        <ele>43.6</ele>
        <time>2021-08-12T12:42:12Z</time>
      </trkpt>
      <trkpt lat="47.85349" lon="-3.81903">
        <ele>44</ele>
        <time>2021-08-12T12:42:14Z</time>
      </trkpt>
      <trkpt lat="47.85349" lon="-3.81899">
        <ele>44.2</ele>
        <time>2021-08-12T12:42:15Z</time>
      </trkpt>
      <trkpt lat="47.8535" lon="-3.81895">
        <ele>44.2</ele>
        <time>2021-08-12T12:42:16Z</time>
      </trkpt>
      <trkpt lat="47.8535" lon="-3.81891">
        <ele>44.6</ele>
        <time>2021-08-12T12:42:17Z</time>
      </trkpt>
      <trkpt lat="47.8535" lon="-3.81888">
        <ele>44.6</ele>
        <time>2021-08-12T12:42:18Z</time>
      </trkpt>
      <trkpt lat="47.8535" lon="-3.81884">
        <ele>44.8</ele>
        <time>2021-08-12T12:42:19Z</time>
      </trkpt>
      <trkpt lat="47.8535" lon="-3.8188">
        <ele>45</ele>
        <time>2021-08-12T12:42:20Z</time>
      </trkpt>
      <trkpt lat="47.8535" lon="-3.81877">
        <ele>45.2</ele>
        <time>2021-08-12T12:42:21Z</time>
      </trkpt>
      <trkpt lat="47.8535" lon="-3.81873">
        <ele>45.4</ele>
        <time>2021-08-12T12:42:22Z</time>
      </trkpt>
      <trkpt lat="47.85351" lon="-3.81869">
        <ele>45.4</ele>
        <time>2021-08-12T12:42:23Z</time>
      </trkpt>
      <trkpt lat="47.85351" lon="-3.81862">
        <ele>45.8</ele>
        <time>2021-08-12T12:42:25Z</time>
      </trkpt>
      <trkpt lat="47.85351" lon="-3.81858">
        <ele>45.8</ele>
        <time>2021-08-12T12:42:26Z</time>
      </trkpt>
      <trkpt lat="47.85351" lon="-3.81854">
        <ele>45.8</ele>
        <time>2021-08-12T12:42:27Z</time>
      </trkpt>
      <trkpt lat="47.85351" lon="-3.8185">
        <ele>45.8</ele>
        <time>2021-08-12T12:42:28Z</time>
      </trkpt>
      <trkpt lat="47.85351" lon="-3.81847">
        <ele>46</ele>
        <time>2021-08-12T12:42:29Z</time>
      </trkpt>
      <trkpt lat="47.85351" lon="-3.81843">
        <ele>46</ele>
        <time>2021-08-12T12:42:30Z</time>
      </trkpt>
      <trkpt lat="47.85351" lon="-3.81839">
        <ele>46</ele>
        <time>2021-08-12T12:42:31Z</time>
      </trkpt>
      <trkpt lat="47.85351" lon="-3.81835">
        <ele>46</ele>
        <time>2021-08-12T12:42:32Z</time>
      </trkpt>
      <trkpt lat="47.8535" lon="-3.81832">
        <ele>46.2</ele>
        <time>2021-08-12T12:42:33Z</time>
      </trkpt>
      <trkpt lat="47.8535" lon="-3.81824">
        <ele>46.2</ele>
        <time>2021-08-12T12:42:35Z</time>
      </trkpt>
      <trkpt lat="47.85349" lon="-3.8182">
        <ele>46.2</ele>
        <time>2021-08-12T12:42:36Z</time>
      </trkpt>
      <trkpt lat="47.85348" lon="-3.81816">
        <ele>46.2</ele>
        <time>2021-08-12T12:42:37Z</time>
      </trkpt>
      <trkpt lat="47.85348" lon="-3.81813">
        <ele>46.4</ele>
        <time>2021-08-12T12:42:38Z</time>
      </trkpt>
      <trkpt lat="47.85347" lon="-3.81809">
        <ele>46.4</ele>
        <time>2021-08-12T12:42:39Z</time>
      </trkpt>
      <trkpt lat="47.85346" lon="-3.81806">
        <ele>46.4</ele>
        <time>2021-08-12T12:42:40Z</time>
      </trkpt>
      <trkpt lat="47.85346" lon="-3.81803">
        <ele>46.4</ele>
        <time>2021-08-12T12:42:41Z</time>
      </trkpt>
      <trkpt lat="47.85347" lon="-3.818">
        <ele>46.4</ele>
        <time>2021-08-12T12:42:42Z</time>
      </trkpt>
      <trkpt lat="47.85347" lon="-3.81797">
        <ele>46.4</ele>
        <time>2021-08-12T12:42:43Z</time>
      </trkpt>
      <trkpt lat="47.85346" lon="-3.81794">
        <ele>46.4</ele>
        <time>2021-08-12T12:42:44Z</time>
      </trkpt>
      <trkpt lat="47.85346" lon="-3.81789">
        <ele>46.6</ele>
        <time>2021-08-12T12:42:46Z</time>
      </trkpt>
      <trkpt lat="47.85346" lon="-3.81788">
        <ele>46.6</ele>
        <time>2021-08-12T12:42:47Z</time>
      </trkpt>
      <trkpt lat="47.85346" lon="-3.81787">
        <ele>46.6</ele>
        <time>2021-08-12T12:42:48Z</time>
      </trkpt>
      <trkpt lat="47.85346" lon="-3.81786">
        <ele>46.8</ele>
        <time>2021-08-12T12:42:49Z</time>
      </trkpt>
      <trkpt lat="47.85346" lon="-3.81786">
        <ele>47</ele>
        <time>2021-08-12T12:42:50Z</time>
      </trkpt>
      <trkpt lat="47.85346" lon="-3.81787">
        <ele>47.6</ele>
        <time>2021-08-12T12:43:42Z</time>
      </trkpt>
      <trkpt lat="47.85346" lon="-3.81786">
        <ele>47.6</ele>
        <time>2021-08-12T12:43:43Z</time>
      </trkpt>
      <trkpt lat="47.85346" lon="-3.81785">
        <ele>47.8</ele>
        <time>2021-08-12T12:43:44Z</time>
      </trkpt>
      <trkpt lat="47.85347" lon="-3.81784">
        <ele>47.8</ele>
        <time>2021-08-12T12:43:45Z</time>
      </trkpt>
      <trkpt lat="47.85347" lon="-3.81782">
        <ele>47.8</ele>
        <time>2021-08-12T12:43:46Z</time>
      </trkpt>
      <trkpt lat="47.85347" lon="-3.81779">
        <ele>47.8</ele>
        <time>2021-08-12T12:43:47Z</time>
      </trkpt>
      <trkpt lat="47.85347" lon="-3.81777">
        <ele>47.8</ele>
        <time>2021-08-12T12:43:48Z</time>
      </trkpt>
      <trkpt lat="47.85348" lon="-3.81774">
        <ele>47.8</ele>
        <time>2021-08-12T12:43:49Z</time>
      </trkpt>
      <trkpt lat="47.85349" lon="-3.81771">
        <ele>47.8</ele>
        <time>2021-08-12T12:43:50Z</time>
      </trkpt>
      <trkpt lat="47.85351" lon="-3.81767">
        <ele>47.8</ele>
        <time>2021-08-12T12:43:51Z</time>
      </trkpt>
      <trkpt lat="47.85352" lon="-3.81763">
        <ele>47.8</ele>
        <time>2021-08-12T12:43:52Z</time>
      </trkpt>
      <trkpt lat="47.85352" lon="-3.81759">
        <ele>47.8</ele>
        <time>2021-08-12T12:43:53Z</time>
      </trkpt>
      <trkpt lat="47.85353" lon="-3.81751">
        <ele>48</ele>
        <time>2021-08-12T12:43:55Z</time>
      </trkpt>
      <trkpt lat="47.85353" lon="-3.81747">
        <ele>48</ele>
        <time>2021-08-12T12:43:56Z</time>
      </trkpt>
      <trkpt lat="47.85353" lon="-3.81742">
        <ele>48</ele>
        <time>2021-08-12T12:43:57Z</time>
      </trkpt>
      <trkpt lat="47.85353" lon="-3.81737">
        <ele>48</ele>
        <time>2021-08-12T12:43:58Z</time>
      </trkpt>
      <trkpt lat="47.85354" lon="-3.81732">
        <ele>48</ele>
        <time>2021-08-12T12:43:59Z</time>
      </trkpt>
      <trkpt lat="47.85354" lon="-3.81726">
        <ele>48</ele>
        <time>2021-08-12T12:44:00Z</time>
      </trkpt>
      <trkpt lat="47.85354" lon="-3.8172">
        <ele>48</ele>
        <time>2021-08-12T12:44:01Z</time>
      </trkpt>
      <trkpt lat="47.85354" lon="-3.81715">
        <ele>47.8</ele>
        <time>2021-08-12T12:44:02Z</time>
      </trkpt>
      <trkpt lat="47.85354" lon="-3.81709">
        <ele>47.8</ele>
        <time>2021-08-12T12:44:03Z</time>
      </trkpt>
      <trkpt lat="47.85355" lon="-3.81703">
        <ele>47.8</ele>
        <time>2021-08-12T12:44:04Z</time>
      </trkpt>
      <trkpt lat="47.85355" lon="-3.81691">
        <ele>47.8</ele>
        <time>2021-08-12T12:44:06Z</time>
      </trkpt>
      <trkpt lat="47.85355" lon="-3.81685">
        <ele>47.8</ele>
        <time>2021-08-12T12:44:07Z</time>
      </trkpt>
      <trkpt lat="47.85356" lon="-3.81679">
        <ele>47.8</ele>
        <time>2021-08-12T12:44:08Z</time>
      </trkpt>
      <trkpt lat="47.85356" lon="-3.81672">
        <ele>47.8</ele>
        <time>2021-08-12T12:44:09Z</time>
      </trkpt>
      <trkpt lat="47.85356" lon="-3.81666">
        <ele>47.6</ele>
        <time>2021-08-12T12:44:10Z</time>
      </trkpt>
      <trkpt lat="47.85356" lon="-3.8166">
        <ele>47.6</ele>
        <time>2021-08-12T12:44:11Z</time>
      </trkpt>
      <trkpt lat="47.85357" lon="-3.81654">
        <ele>47.6</ele>
        <time>2021-08-12T12:44:12Z</time>
      </trkpt>
      <trkpt lat="47.85357" lon="-3.81647">
        <ele>47.4</ele>
        <time>2021-08-12T12:44:13Z</time>
      </trkpt>
      <trkpt lat="47.85357" lon="-3.8164">
        <ele>47.4</ele>
        <time>2021-08-12T12:44:14Z</time>
      </trkpt>
      <trkpt lat="47.85357" lon="-3.81634">
        <ele>47.4</ele>
        <time>2021-08-12T12:44:15Z</time>
      </trkpt>
      <trkpt lat="47.85358" lon="-3.81621">
        <ele>47</ele>
        <time>2021-08-12T12:44:17Z</time>
      </trkpt>
      <trkpt lat="47.85358" lon="-3.81614">
        <ele>47</ele>
        <time>2021-08-12T12:44:18Z</time>
      </trkpt>
      <trkpt lat="47.85358" lon="-3.81607">
        <ele>47</ele>
        <time>2021-08-12T12:44:19Z</time>
      </trkpt>
      <trkpt lat="47.85359" lon="-3.816">
        <ele>46.8</ele>
        <time>2021-08-12T12:44:20Z</time>
      </trkpt>
      <trkpt lat="47.85359" lon="-3.81592">
        <ele>47</ele>
        <time>2021-08-12T12:44:21Z</time>
      </trkpt>
      <trkpt lat="47.8536" lon="-3.81585">
        <ele>46.8</ele>
        <time>2021-08-12T12:44:22Z</time>
      </trkpt>
      <trkpt lat="47.8536" lon="-3.81578">
        <ele>46.6</ele>
        <time>2021-08-12T12:44:23Z</time>
      </trkpt>
      <trkpt lat="47.8536" lon="-3.8157">
        <ele>46.6</ele>
        <time>2021-08-12T12:44:24Z</time>
      </trkpt>
      <trkpt lat="47.85361" lon="-3.81562">
        <ele>46.6</ele>
        <time>2021-08-12T12:44:25Z</time>
      </trkpt>
      <trkpt lat="47.85361" lon="-3.81554">
        <ele>46.4</ele>
        <time>2021-08-12T12:44:26Z</time>
      </trkpt>
      <trkpt lat="47.85362" lon="-3.81538">
        <ele>46.4</ele>
        <time>2021-08-12T12:44:28Z</time>
      </trkpt>
      <trkpt lat="47.85362" lon="-3.8153">
        <ele>46.4</ele>
        <time>2021-08-12T12:44:29Z</time>
      </trkpt>
      <trkpt lat="47.85363" lon="-3.81521">
        <ele>46.4</ele>
        <time>2021-08-12T12:44:30Z</time>
      </trkpt>
      <trkpt lat="47.85363" lon="-3.81513">
        <ele>46.2</ele>
        <time>2021-08-12T12:44:31Z</time>
      </trkpt>
      <trkpt lat="47.85363" lon="-3.81504">
        <ele>46.2</ele>
        <time>2021-08-12T12:44:32Z</time>
      </trkpt>
      <trkpt lat="47.85363" lon="-3.81495">
        <ele>46.2</ele>
        <time>2021-08-12T12:44:33Z</time>
      </trkpt>
      <trkpt lat="47.85363" lon="-3.81486">
        <ele>46</ele>
        <time>2021-08-12T12:44:34Z</time>
      </trkpt>
      <trkpt lat="47.85364" lon="-3.81477">
        <ele>46</ele>
        <time>2021-08-12T12:44:35Z</time>
      </trkpt>
      <trkpt lat="47.85364" lon="-3.81469">
        <ele>45.8</ele>
        <time>2021-08-12T12:44:36Z</time>
      </trkpt>
      <trkpt lat="47.85364" lon="-3.8146">
        <ele>45.4</ele>
        <time>2021-08-12T12:44:37Z</time>
      </trkpt>
      <trkpt lat="47.85365" lon="-3.81442">
        <ele>45</ele>
        <time>2021-08-12T12:44:39Z</time>
      </trkpt>
      <trkpt lat="47.85365" lon="-3.81433">
        <ele>44.8</ele>
        <time>2021-08-12T12:44:40Z</time>
      </trkpt>
      <trkpt lat="47.85366" lon="-3.81424">
        <ele>44.8</ele>
        <time>2021-08-12T12:44:41Z</time>
      </trkpt>
      <trkpt lat="47.85366" lon="-3.81415">
        <ele>44.6</ele>
        <time>2021-08-12T12:44:42Z</time>
      </trkpt>
      <trkpt lat="47.85366" lon="-3.81406">
        <ele>44.6</ele>
        <time>2021-08-12T12:44:43Z</time>
      </trkpt>
      <trkpt lat="47.85367" lon="-3.81397">
        <ele>44.4</ele>
        <time>2021-08-12T12:44:44Z</time>
      </trkpt>
      <trkpt lat="47.85367" lon="-3.81388">
        <ele>44.2</ele>
        <time>2021-08-12T12:44:45Z</time>
      </trkpt>
      <trkpt lat="47.85367" lon="-3.81379">
        <ele>44.2</ele>
        <time>2021-08-12T12:44:46Z</time>
      </trkpt>
      <trkpt lat="47.85368" lon="-3.8137">
        <ele>44</ele>
        <time>2021-08-12T12:44:47Z</time>
      </trkpt>
      <trkpt lat="47.85368" lon="-3.8136">
        <ele>43.8</ele>
        <time>2021-08-12T12:44:48Z</time>
      </trkpt>
      <trkpt lat="47.85369" lon="-3.81342">
        <ele>43.2</ele>
        <time>2021-08-12T12:44:50Z</time>
      </trkpt>
      <trkpt lat="47.85369" lon="-3.81333">
        <ele>43.2</ele>
        <time>2021-08-12T12:44:51Z</time>
      </trkpt>
      <trkpt lat="47.8537" lon="-3.81324">
        <ele>43.2</ele>
        <time>2021-08-12T12:44:52Z</time>
      </trkpt>
      <trkpt lat="47.8537" lon="-3.81315">
        <ele>43</ele>
        <time>2021-08-12T12:44:53Z</time>
      </trkpt>
      <trkpt lat="47.8537" lon="-3.81306">
        <ele>43</ele>
        <time>2021-08-12T12:44:54Z</time>
      </trkpt>
      <trkpt lat="47.8537" lon="-3.81297">
        <ele>43</ele>
        <time>2021-08-12T12:44:55Z</time>
      </trkpt>
      <trkpt lat="47.85371" lon="-3.81288">
        <ele>43</ele>
        <time>2021-08-12T12:44:56Z</time>
      </trkpt>
      <trkpt lat="47.85371" lon="-3.81279">
        <ele>42.6</ele>
        <time>2021-08-12T12:44:57Z</time>
      </trkpt>
      <trkpt lat="47.85372" lon="-3.8127">
        <ele>42.4</ele>
        <time>2021-08-12T12:44:58Z</time>
      </trkpt>
      <trkpt lat="47.85372" lon="-3.81261">
        <ele>42.2</ele>
        <time>2021-08-12T12:44:59Z</time>
      </trkpt>
      <trkpt lat="47.85373" lon="-3.81244">
        <ele>42</ele>
        <time>2021-08-12T12:45:01Z</time>
      </trkpt>
      <trkpt lat="47.85373" lon="-3.81235">
        <ele>41.8</ele>
        <time>2021-08-12T12:45:02Z</time>
      </trkpt>
      <trkpt lat="47.85373" lon="-3.81226">
        <ele>41.8</ele>
        <time>2021-08-12T12:45:03Z</time>
      </trkpt>
      <trkpt lat="47.85374" lon="-3.81217">
        <ele>41.6</ele>
        <time>2021-08-12T12:45:04Z</time>
      </trkpt>
      <trkpt lat="47.85374" lon="-3.81208">
        <ele>41.6</ele>
        <time>2021-08-12T12:45:05Z</time>
      </trkpt>
      <trkpt lat="47.85374" lon="-3.81199">
        <ele>41.4</ele>
        <time>2021-08-12T12:45:06Z</time>
      </trkpt>
      <trkpt lat="47.85375" lon="-3.81189">
        <ele>41.4</ele>
        <time>2021-08-12T12:45:07Z</time>
      </trkpt>
      <trkpt lat="47.85375" lon="-3.8118">
        <ele>41.2</ele>
        <time>2021-08-12T12:45:08Z</time>
      </trkpt>
      <trkpt lat="47.85375" lon="-3.81171">
        <ele>41</ele>
        <time>2021-08-12T12:45:09Z</time>
      </trkpt>
      <trkpt lat="47.85376" lon="-3.81162">
        <ele>41</ele>
        <time>2021-08-12T12:45:10Z</time>
      </trkpt>
      <trkpt lat="47.85376" lon="-3.81153">
        <ele>41.2</ele>
        <time>2021-08-12T12:45:11Z</time>
      </trkpt>
      <trkpt lat="47.85376" lon="-3.81144">
        <ele>40.8</ele>
        <time>2021-08-12T12:45:12Z</time>
      </trkpt>
      <trkpt lat="47.85377" lon="-3.81135">
        <ele>40.8</ele>
        <time>2021-08-12T12:45:13Z</time>
      </trkpt>
      <trkpt lat="47.85377" lon="-3.81126">
        <ele>40.6</ele>
        <time>2021-08-12T12:45:14Z</time>
      </trkpt>
      <trkpt lat="47.85378" lon="-3.81117">
        <ele>40.4</ele>
        <time>2021-08-12T12:45:15Z</time>
      </trkpt>
      <trkpt lat="47.85378" lon="-3.81108">
        <ele>40.4</ele>
        <time>2021-08-12T12:45:16Z</time>
      </trkpt>
      <trkpt lat="47.85378" lon="-3.81099">
        <ele>40.2</ele>
        <time>2021-08-12T12:45:17Z</time>
      </trkpt>
      <trkpt lat="47.85378" lon="-3.81091">
        <ele>40.2</ele>
        <time>2021-08-12T12:45:18Z</time>
      </trkpt>
      <trkpt lat="47.85379" lon="-3.81082">
        <ele>40.2</ele>
        <time>2021-08-12T12:45:19Z</time>
      </trkpt>
      <trkpt lat="47.8538" lon="-3.81073">
        <ele>40</ele>
        <time>2021-08-12T12:45:20Z</time>
      </trkpt>
      <trkpt lat="47.8538" lon="-3.81064">
        <ele>40</ele>
        <time>2021-08-12T12:45:21Z</time>
      </trkpt>
      <trkpt lat="47.8538" lon="-3.81046">
        <ele>40</ele>
        <time>2021-08-12T12:45:23Z</time>
      </trkpt>
      <trkpt lat="47.85381" lon="-3.81037">
        <ele>40</ele>
        <time>2021-08-12T12:45:24Z</time>
      </trkpt>
      <trkpt lat="47.85381" lon="-3.81028">
        <ele>40</ele>
        <time>2021-08-12T12:45:25Z</time>
      </trkpt>
      <trkpt lat="47.85381" lon="-3.81018">
        <ele>40</ele>
        <time>2021-08-12T12:45:26Z</time>
      </trkpt>
      <trkpt lat="47.85382" lon="-3.81009">
        <ele>39.8</ele>
        <time>2021-08-12T12:45:27Z</time>
      </trkpt>
      <trkpt lat="47.85382" lon="-3.80999">
        <ele>39.8</ele>
        <time>2021-08-12T12:45:28Z</time>
      </trkpt>
      <trkpt lat="47.85383" lon="-3.8099">
        <ele>39.8</ele>
        <time>2021-08-12T12:45:29Z</time>
      </trkpt>
      <trkpt lat="47.85383" lon="-3.8098">
        <ele>39.6</ele>
        <time>2021-08-12T12:45:30Z</time>
      </trkpt>
      <trkpt lat="47.85383" lon="-3.8097">
        <ele>39.6</ele>
        <time>2021-08-12T12:45:31Z</time>
      </trkpt>
      <trkpt lat="47.85384" lon="-3.80959">
        <ele>39.4</ele>
        <time>2021-08-12T12:45:32Z</time>
      </trkpt>
      <trkpt lat="47.85384" lon="-3.80949">
        <ele>39.4</ele>
        <time>2021-08-12T12:45:33Z</time>
      </trkpt>
      <trkpt lat="47.85385" lon="-3.80939">
        <ele>39.2</ele>
        <time>2021-08-12T12:45:34Z</time>
      </trkpt>
      <trkpt lat="47.85385" lon="-3.80929">
        <ele>39</ele>
        <time>2021-08-12T12:45:35Z</time>
      </trkpt>
      <trkpt lat="47.85385" lon="-3.80919">
        <ele>38.8</ele>
        <time>2021-08-12T12:45:36Z</time>
      </trkpt>
      <trkpt lat="47.85386" lon="-3.80909">
        <ele>38.6</ele>
        <time>2021-08-12T12:45:37Z</time>
      </trkpt>
      <trkpt lat="47.85386" lon="-3.809">
        <ele>38.4</ele>
        <time>2021-08-12T12:45:38Z</time>
      </trkpt>
      <trkpt lat="47.85386" lon="-3.8089">
        <ele>38.4</ele>
        <time>2021-08-12T12:45:39Z</time>
      </trkpt>
      <trkpt lat="47.85387" lon="-3.8088">
        <ele>38.2</ele>
        <time>2021-08-12T12:45:40Z</time>
      </trkpt>
      <trkpt lat="47.85387" lon="-3.80871">
        <ele>38</ele>
        <time>2021-08-12T12:45:41Z</time>
      </trkpt>
      <trkpt lat="47.85387" lon="-3.80862">
        <ele>37.8</ele>
        <time>2021-08-12T12:45:42Z</time>
      </trkpt>
      <trkpt lat="47.85388" lon="-3.80852">
        <ele>37.8</ele>
        <time>2021-08-12T12:45:43Z</time>
      </trkpt>
      <trkpt lat="47.85388" lon="-3.80843">
        <ele>37.8</ele>
        <time>2021-08-12T12:45:44Z</time>
      </trkpt>
      <trkpt lat="47.85388" lon="-3.80834">
        <ele>37.6</ele>
        <time>2021-08-12T12:45:45Z</time>
      </trkpt>
      <trkpt lat="47.85389" lon="-3.80825">
        <ele>37.6</ele>
        <time>2021-08-12T12:45:46Z</time>
      </trkpt>
      <trkpt lat="47.85389" lon="-3.80815">
        <ele>37.6</ele>
        <time>2021-08-12T12:45:47Z</time>
      </trkpt>
      <trkpt lat="47.85389" lon="-3.80806">
        <ele>37.4</ele>
        <time>2021-08-12T12:45:48Z</time>
      </trkpt>
      <trkpt lat="47.85389" lon="-3.80797">
        <ele>37.4</ele>
        <time>2021-08-12T12:45:49Z</time>
      </trkpt>
      <trkpt lat="47.8539" lon="-3.80788">
        <ele>37</ele>
        <time>2021-08-12T12:45:50Z</time>
      </trkpt>
      <trkpt lat="47.8539" lon="-3.80779">
        <ele>36.8</ele>
        <time>2021-08-12T12:45:51Z</time>
      </trkpt>
      <trkpt lat="47.8539" lon="-3.8077">
        <ele>36.6</ele>
        <time>2021-08-12T12:45:52Z</time>
      </trkpt>
      <trkpt lat="47.8539" lon="-3.80761">
        <ele>36.6</ele>
        <time>2021-08-12T12:45:53Z</time>
      </trkpt>
      <trkpt lat="47.85391" lon="-3.80752">
        <ele>36.6</ele>
        <time>2021-08-12T12:45:54Z</time>
      </trkpt>
      <trkpt lat="47.85391" lon="-3.80734">
        <ele>36.4</ele>
        <time>2021-08-12T12:45:56Z</time>
      </trkpt>
      <trkpt lat="47.85391" lon="-3.80725">
        <ele>36.2</ele>
        <time>2021-08-12T12:45:57Z</time>
      </trkpt>
      <trkpt lat="47.85392" lon="-3.80717">
        <ele>36.2</ele>
        <time>2021-08-12T12:45:58Z</time>
      </trkpt>
      <trkpt lat="47.85392" lon="-3.80709">
        <ele>36.2</ele>
        <time>2021-08-12T12:45:59Z</time>
      </trkpt>
      <trkpt lat="47.85393" lon="-3.80701">
        <ele>36.2</ele>
        <time>2021-08-12T12:46:00Z</time>
      </trkpt>
      <trkpt lat="47.85393" lon="-3.80692">
        <ele>36.2</ele>
        <time>2021-08-12T12:46:01Z</time>
      </trkpt>
      <trkpt lat="47.85393" lon="-3.80685">
        <ele>36.2</ele>
        <time>2021-08-12T12:46:02Z</time>
      </trkpt>
      <trkpt lat="47.85393" lon="-3.80677">
        <ele>36.2</ele>
        <time>2021-08-12T12:46:03Z</time>
      </trkpt>
      <trkpt lat="47.85394" lon="-3.8067">
        <ele>36.2</ele>
        <time>2021-08-12T12:46:04Z</time>
      </trkpt>
      <trkpt lat="47.85394" lon="-3.80663">
        <ele>36.2</ele>
        <time>2021-08-12T12:46:05Z</time>
      </trkpt>
      <trkpt lat="47.85394" lon="-3.80649">
        <ele>36.2</ele>
        <time>2021-08-12T12:46:07Z</time>
      </trkpt>
      <trkpt lat="47.85394" lon="-3.80642">
        <ele>36.2</ele>
        <time>2021-08-12T12:46:08Z</time>
      </trkpt>
      <trkpt lat="47.85395" lon="-3.80635">
        <ele>36.2</ele>
        <time>2021-08-12T12:46:09Z</time>
      </trkpt>
      <trkpt lat="47.85395" lon="-3.80628">
        <ele>36.6</ele>
        <time>2021-08-12T12:46:10Z</time>
      </trkpt>
      <trkpt lat="47.85395" lon="-3.80621">
        <ele>36.8</ele>
        <time>2021-08-12T12:46:11Z</time>
      </trkpt>
      <trkpt lat="47.85395" lon="-3.80615">
        <ele>37</ele>
        <time>2021-08-12T12:46:12Z</time>
      </trkpt>
      <trkpt lat="47.85396" lon="-3.80608">
        <ele>37</ele>
        <time>2021-08-12T12:46:13Z</time>
      </trkpt>
      <trkpt lat="47.85396" lon="-3.80601">
        <ele>37</ele>
        <time>2021-08-12T12:46:14Z</time>
      </trkpt>
      <trkpt lat="47.85396" lon="-3.80594">
        <ele>37.2</ele>
        <time>2021-08-12T12:46:15Z</time>
      </trkpt>
      <trkpt lat="47.85396" lon="-3.80587">
        <ele>37.2</ele>
        <time>2021-08-12T12:46:16Z</time>
      </trkpt>
      <trkpt lat="47.85396" lon="-3.8058">
        <ele>37.4</ele>
        <time>2021-08-12T12:46:17Z</time>
      </trkpt>
      <trkpt lat="47.85397" lon="-3.80573">
        <ele>37.4</ele>
        <time>2021-08-12T12:46:18Z</time>
      </trkpt>
      <trkpt lat="47.85397" lon="-3.80566">
        <ele>37.4</ele>
        <time>2021-08-12T12:46:19Z</time>
      </trkpt>
      <trkpt lat="47.85397" lon="-3.80559">
        <ele>37.6</ele>
        <time>2021-08-12T12:46:20Z</time>
      </trkpt>
      <trkpt lat="47.85398" lon="-3.80552">
        <ele>37.6</ele>
        <time>2021-08-12T12:46:21Z</time>
      </trkpt>
      <trkpt lat="47.85397" lon="-3.80544">
        <ele>37.6</ele>
        <time>2021-08-12T12:46:22Z</time>
      </trkpt>
      <trkpt lat="47.85398" lon="-3.80537">
        <ele>37.6</ele>
        <time>2021-08-12T12:46:23Z</time>
      </trkpt>
      <trkpt lat="47.85398" lon="-3.8053">
        <ele>37.6</ele>
        <time>2021-08-12T12:46:24Z</time>
      </trkpt>
      <trkpt lat="47.85398" lon="-3.80523">
        <ele>37.6</ele>
        <time>2021-08-12T12:46:25Z</time>
      </trkpt>
      <trkpt lat="47.85398" lon="-3.80516">
        <ele>37.6</ele>
        <time>2021-08-12T12:46:26Z</time>
      </trkpt>
      <trkpt lat="47.85399" lon="-3.80509">
        <ele>37.6</ele>
        <time>2021-08-12T12:46:27Z</time>
      </trkpt>
      <trkpt lat="47.85399" lon="-3.80496">
        <ele>37.6</ele>
        <time>2021-08-12T12:46:29Z</time>
      </trkpt>
      <trkpt lat="47.85399" lon="-3.80489">
        <ele>37.6</ele>
        <time>2021-08-12T12:46:30Z</time>
      </trkpt>
      <trkpt lat="47.854" lon="-3.80483">
        <ele>37.6</ele>
        <time>2021-08-12T12:46:31Z</time>
      </trkpt>
      <trkpt lat="47.854" lon="-3.80476">
        <ele>37.6</ele>
        <time>2021-08-12T12:46:32Z</time>
      </trkpt>
      <trkpt lat="47.854" lon="-3.8047">
        <ele>37.6</ele>
        <time>2021-08-12T12:46:33Z</time>
      </trkpt>
      <trkpt lat="47.85401" lon="-3.80463">
        <ele>37.6</ele>
        <time>2021-08-12T12:46:34Z</time>
      </trkpt>
      <trkpt lat="47.85401" lon="-3.80456">
        <ele>37.6</ele>
        <time>2021-08-12T12:46:35Z</time>
      </trkpt>
      <trkpt lat="47.85401" lon="-3.8045">
        <ele>37.6</ele>
        <time>2021-08-12T12:46:36Z</time>
      </trkpt>
      <trkpt lat="47.85401" lon="-3.80443">
        <ele>37.6</ele>
        <time>2021-08-12T12:46:37Z</time>
      </trkpt>
      <trkpt lat="47.85401" lon="-3.80436">
        <ele>37.6</ele>
        <time>2021-08-12T12:46:38Z</time>
      </trkpt>
      <trkpt lat="47.85402" lon="-3.80423">
        <ele>37.6</ele>
        <time>2021-08-12T12:46:40Z</time>
      </trkpt>
      <trkpt lat="47.85402" lon="-3.80417">
        <ele>37.6</ele>
        <time>2021-08-12T12:46:41Z</time>
      </trkpt>
      <trkpt lat="47.85402" lon="-3.80411">
        <ele>37.6</ele>
        <time>2021-08-12T12:46:42Z</time>
      </trkpt>
      <trkpt lat="47.85403" lon="-3.80405">
        <ele>37.6</ele>
        <time>2021-08-12T12:46:43Z</time>
      </trkpt>
      <trkpt lat="47.85403" lon="-3.80399">
        <ele>37.6</ele>
        <time>2021-08-12T12:46:44Z</time>
      </trkpt>
      <trkpt lat="47.85403" lon="-3.80393">
        <ele>37.6</ele>
        <time>2021-08-12T12:46:45Z</time>
      </trkpt>
      <trkpt lat="47.85403" lon="-3.80387">
        <ele>37.8</ele>
        <time>2021-08-12T12:46:46Z</time>
      </trkpt>
      <trkpt lat="47.85404" lon="-3.80381">
        <ele>37.8</ele>
        <time>2021-08-12T12:46:47Z</time>
      </trkpt>
      <trkpt lat="47.85404" lon="-3.80375">
        <ele>37.8</ele>
        <time>2021-08-12T12:46:48Z</time>
      </trkpt>
      <trkpt lat="47.85404" lon="-3.80369">
        <ele>38</ele>
        <time>2021-08-12T12:46:49Z</time>
      </trkpt>
      <trkpt lat="47.85405" lon="-3.80358">
        <ele>38</ele>
        <time>2021-08-12T12:46:51Z</time>
      </trkpt>
      <trkpt lat="47.85405" lon="-3.80353">
        <ele>38</ele>
        <time>2021-08-12T12:46:52Z</time>
      </trkpt>
      <trkpt lat="47.85405" lon="-3.80347">
        <ele>38.2</ele>
        <time>2021-08-12T12:46:53Z</time>
      </trkpt>
      <trkpt lat="47.85405" lon="-3.80341">
        <ele>38.2</ele>
        <time>2021-08-12T12:46:54Z</time>
      </trkpt>
      <trkpt lat="47.85406" lon="-3.80336">
        <ele>38.4</ele>
        <time>2021-08-12T12:46:55Z</time>
      </trkpt>
      <trkpt lat="47.85406" lon="-3.8033">
        <ele>38.6</ele>
        <time>2021-08-12T12:46:56Z</time>
      </trkpt>
      <trkpt lat="47.85406" lon="-3.80324">
        <ele>38.6</ele>
        <time>2021-08-12T12:46:57Z</time>
      </trkpt>
      <trkpt lat="47.85406" lon="-3.80318">
        <ele>38.8</ele>
        <time>2021-08-12T12:46:58Z</time>
      </trkpt>
      <trkpt lat="47.85406" lon="-3.80313">
        <ele>38.8</ele>
        <time>2021-08-12T12:46:59Z</time>
      </trkpt>
      <trkpt lat="47.85407" lon="-3.80307">
        <ele>38.8</ele>
        <time>2021-08-12T12:47:00Z</time>
      </trkpt>
      <trkpt lat="47.85407" lon="-3.80294">
        <ele>38.8</ele>
        <time>2021-08-12T12:47:02Z</time>
      </trkpt>
      <trkpt lat="47.85407" lon="-3.80288">
        <ele>38.8</ele>
        <time>2021-08-12T12:47:03Z</time>
      </trkpt>
      <trkpt lat="47.85408" lon="-3.80282">
        <ele>38.8</ele>
        <time>2021-08-12T12:47:04Z</time>
      </trkpt>
      <trkpt lat="47.85408" lon="-3.80275">
        <ele>38.8</ele>
        <time>2021-08-12T12:47:05Z</time>
      </trkpt>
      <trkpt lat="47.85408" lon="-3.80269">
        <ele>38.8</ele>
        <time>2021-08-12T12:47:06Z</time>
      </trkpt>
      <trkpt lat="47.85408" lon="-3.80262">
        <ele>38.8</ele>
        <time>2021-08-12T12:47:07Z</time>
      </trkpt>
      <trkpt lat="47.85408" lon="-3.80254">
        <ele>38.8</ele>
        <time>2021-08-12T12:47:08Z</time>
      </trkpt>
      <trkpt lat="47.85409" lon="-3.80247">
        <ele>38.8</ele>
        <time>2021-08-12T12:47:09Z</time>
      </trkpt>
      <trkpt lat="47.85409" lon="-3.8024">
        <ele>38.8</ele>
        <time>2021-08-12T12:47:10Z</time>
      </trkpt>
      <trkpt lat="47.85409" lon="-3.80233">
        <ele>38.8</ele>
        <time>2021-08-12T12:47:11Z</time>
      </trkpt>
      <trkpt lat="47.85409" lon="-3.80225">
        <ele>38.6</ele>
        <time>2021-08-12T12:47:12Z</time>
      </trkpt>
      <trkpt lat="47.85409" lon="-3.80217">
        <ele>38.6</ele>
        <time>2021-08-12T12:47:13Z</time>
      </trkpt>
      <trkpt lat="47.8541" lon="-3.80209">
        <ele>38.6</ele>
        <time>2021-08-12T12:47:14Z</time>
      </trkpt>
      <trkpt lat="47.8541" lon="-3.80201">
        <ele>38.4</ele>
        <time>2021-08-12T12:47:15Z</time>
      </trkpt>
      <trkpt lat="47.8541" lon="-3.80193">
        <ele>38.2</ele>
        <time>2021-08-12T12:47:16Z</time>
      </trkpt>
      <trkpt lat="47.8541" lon="-3.80184">
        <ele>38</ele>
        <time>2021-08-12T12:47:17Z</time>
      </trkpt>
      <trkpt lat="47.85411" lon="-3.80176">
        <ele>37.8</ele>
        <time>2021-08-12T12:47:18Z</time>
      </trkpt>
      <trkpt lat="47.85411" lon="-3.80167">
        <ele>37.4</ele>
        <time>2021-08-12T12:47:19Z</time>
      </trkpt>
      <trkpt lat="47.85411" lon="-3.80158">
        <ele>37</ele>
        <time>2021-08-12T12:47:20Z</time>
      </trkpt>
      <trkpt lat="47.85411" lon="-3.8015">
        <ele>36.8</ele>
        <time>2021-08-12T12:47:21Z</time>
      </trkpt>
      <trkpt lat="47.85411" lon="-3.80141">
        <ele>36.8</ele>
        <time>2021-08-12T12:47:22Z</time>
      </trkpt>
      <trkpt lat="47.85412" lon="-3.80123">
        <ele>36.2</ele>
        <time>2021-08-12T12:47:24Z</time>
      </trkpt>
      <trkpt lat="47.85413" lon="-3.80114">
        <ele>36</ele>
        <time>2021-08-12T12:47:25Z</time>
      </trkpt>
      <trkpt lat="47.85413" lon="-3.80104">
        <ele>36</ele>
        <time>2021-08-12T12:47:26Z</time>
      </trkpt>
      <trkpt lat="47.85413" lon="-3.80095">
        <ele>35.8</ele>
        <time>2021-08-12T12:47:27Z</time>
      </trkpt>
      <trkpt lat="47.85414" lon="-3.80086">
        <ele>35.8</ele>
        <time>2021-08-12T12:47:28Z</time>
      </trkpt>
      <trkpt lat="47.85414" lon="-3.80077">
        <ele>35.8</ele>
        <time>2021-08-12T12:47:29Z</time>
      </trkpt>
      <trkpt lat="47.85414" lon="-3.80068">
        <ele>35.6</ele>
        <time>2021-08-12T12:47:30Z</time>
      </trkpt>
      <trkpt lat="47.85414" lon="-3.8006">
        <ele>35.4</ele>
        <time>2021-08-12T12:47:31Z</time>
      </trkpt>
      <trkpt lat="47.85415" lon="-3.80051">
        <ele>35.2</ele>
        <time>2021-08-12T12:47:32Z</time>
      </trkpt>
      <trkpt lat="47.85415" lon="-3.80043">
        <ele>35.2</ele>
        <time>2021-08-12T12:47:33Z</time>
      </trkpt>
      <trkpt lat="47.85416" lon="-3.80036">
        <ele>35.2</ele>
        <time>2021-08-12T12:47:34Z</time>
      </trkpt>
      <trkpt lat="47.85416" lon="-3.80028">
        <ele>35.2</ele>
        <time>2021-08-12T12:47:35Z</time>
      </trkpt>
      <trkpt lat="47.85417" lon="-3.80021">
        <ele>35.2</ele>
        <time>2021-08-12T12:47:36Z</time>
      </trkpt>
      <trkpt lat="47.85417" lon="-3.80014">
        <ele>35.2</ele>
        <time>2021-08-12T12:47:37Z</time>
      </trkpt>
      <trkpt lat="47.85417" lon="-3.80007">
        <ele>35.2</ele>
        <time>2021-08-12T12:47:38Z</time>
      </trkpt>
      <trkpt lat="47.85418" lon="-3.8">
        <ele>35.2</ele>
        <time>2021-08-12T12:47:39Z</time>
      </trkpt>
      <trkpt lat="47.85418" lon="-3.79993">
        <ele>35.2</ele>
        <time>2021-08-12T12:47:40Z</time>
      </trkpt>
      <trkpt lat="47.85418" lon="-3.79986">
        <ele>35.4</ele>
        <time>2021-08-12T12:47:41Z</time>
      </trkpt>
      <trkpt lat="47.85419" lon="-3.7998">
        <ele>35.4</ele>
        <time>2021-08-12T12:47:42Z</time>
      </trkpt>
      <trkpt lat="47.85419" lon="-3.79973">
        <ele>35.6</ele>
        <time>2021-08-12T12:47:43Z</time>
      </trkpt>
      <trkpt lat="47.8542" lon="-3.79967">
        <ele>36</ele>
        <time>2021-08-12T12:47:44Z</time>
      </trkpt>
      <trkpt lat="47.8542" lon="-3.79961">
        <ele>36.2</ele>
        <time>2021-08-12T12:47:45Z</time>
      </trkpt>
      <trkpt lat="47.8542" lon="-3.79955">
        <ele>36.4</ele>
        <time>2021-08-12T12:47:46Z</time>
      </trkpt>
      <trkpt lat="47.85421" lon="-3.79948">
        <ele>36.6</ele>
        <time>2021-08-12T12:47:47Z</time>
      </trkpt>
      <trkpt lat="47.8542" lon="-3.79942">
        <ele>36.6</ele>
        <time>2021-08-12T12:47:48Z</time>
      </trkpt>
      <trkpt lat="47.85421" lon="-3.79936">
        <ele>36.8</ele>
        <time>2021-08-12T12:47:49Z</time>
      </trkpt>
      <trkpt lat="47.85421" lon="-3.7993">
        <ele>37</ele>
        <time>2021-08-12T12:47:50Z</time>
      </trkpt>
      <trkpt lat="47.85421" lon="-3.79924">
        <ele>37</ele>
        <time>2021-08-12T12:47:51Z</time>
      </trkpt>
      <trkpt lat="47.85421" lon="-3.79919">
        <ele>37</ele>
        <time>2021-08-12T12:47:52Z</time>
      </trkpt>
      <trkpt lat="47.85421" lon="-3.79913">
        <ele>37</ele>
        <time>2021-08-12T12:47:53Z</time>
      </trkpt>
      <trkpt lat="47.85421" lon="-3.79908">
        <ele>37</ele>
        <time>2021-08-12T12:47:54Z</time>
      </trkpt>
      <trkpt lat="47.85421" lon="-3.79902">
        <ele>37</ele>
        <time>2021-08-12T12:47:55Z</time>
      </trkpt>
      <trkpt lat="47.85422" lon="-3.7989">
        <ele>37.2</ele>
        <time>2021-08-12T12:47:57Z</time>
      </trkpt>
      <trkpt lat="47.85422" lon="-3.79884">
        <ele>37.2</ele>
        <time>2021-08-12T12:47:58Z</time>
      </trkpt>
      <trkpt lat="47.85422" lon="-3.79878">
        <ele>37.2</ele>
        <time>2021-08-12T12:47:59Z</time>
      </trkpt>
      <trkpt lat="47.85422" lon="-3.79871">
        <ele>37.2</ele>
        <time>2021-08-12T12:48:00Z</time>
      </trkpt>
      <trkpt lat="47.85423" lon="-3.79865">
        <ele>37.2</ele>
        <time>2021-08-12T12:48:01Z</time>
      </trkpt>
      <trkpt lat="47.85423" lon="-3.79859">
        <ele>37.2</ele>
        <time>2021-08-12T12:48:02Z</time>
      </trkpt>
      <trkpt lat="47.85423" lon="-3.79852">
        <ele>37.2</ele>
        <time>2021-08-12T12:48:03Z</time>
      </trkpt>
      <trkpt lat="47.85423" lon="-3.79846">
        <ele>37.2</ele>
        <time>2021-08-12T12:48:04Z</time>
      </trkpt>
      <trkpt lat="47.85424" lon="-3.79839">
        <ele>37</ele>
        <time>2021-08-12T12:48:05Z</time>
      </trkpt>
      <trkpt lat="47.85424" lon="-3.79833">
        <ele>37</ele>
        <time>2021-08-12T12:48:06Z</time>
      </trkpt>
      <trkpt lat="47.85425" lon="-3.79819">
        <ele>37</ele>
        <time>2021-08-12T12:48:08Z</time>
      </trkpt>
      <trkpt lat="47.85425" lon="-3.79812">
        <ele>37</ele>
        <time>2021-08-12T12:48:09Z</time>
      </trkpt>
      <trkpt lat="47.85425" lon="-3.79804">
        <ele>37</ele>
        <time>2021-08-12T12:48:10Z</time>
      </trkpt>
      <trkpt lat="47.85425" lon="-3.79797">
        <ele>37</ele>
        <time>2021-08-12T12:48:11Z</time>
      </trkpt>
      <trkpt lat="47.85425" lon="-3.79789">
        <ele>37</ele>
        <time>2021-08-12T12:48:12Z</time>
      </trkpt>
      <trkpt lat="47.85426" lon="-3.79781">
        <ele>37</ele>
        <time>2021-08-12T12:48:13Z</time>
      </trkpt>
      <trkpt lat="47.85426" lon="-3.79773">
        <ele>36.8</ele>
        <time>2021-08-12T12:48:14Z</time>
      </trkpt>
      <trkpt lat="47.85426" lon="-3.79765">
        <ele>36.8</ele>
        <time>2021-08-12T12:48:15Z</time>
      </trkpt>
      <trkpt lat="47.85426" lon="-3.79757">
        <ele>36.8</ele>
        <time>2021-08-12T12:48:16Z</time>
      </trkpt>
      <trkpt lat="47.85427" lon="-3.79749">
        <ele>36.6</ele>
        <time>2021-08-12T12:48:17Z</time>
      </trkpt>
      <trkpt lat="47.85427" lon="-3.79732">
        <ele>36.6</ele>
        <time>2021-08-12T12:48:19Z</time>
      </trkpt>
      <trkpt lat="47.85428" lon="-3.79724">
        <ele>36.4</ele>
        <time>2021-08-12T12:48:20Z</time>
      </trkpt>
      <trkpt lat="47.85428" lon="-3.79715">
        <ele>36.2</ele>
        <time>2021-08-12T12:48:21Z</time>
      </trkpt>
      <trkpt lat="47.85428" lon="-3.79707">
        <ele>36</ele>
        <time>2021-08-12T12:48:22Z</time>
      </trkpt>
      <trkpt lat="47.85429" lon="-3.79698">
        <ele>36</ele>
        <time>2021-08-12T12:48:23Z</time>
      </trkpt>
      <trkpt lat="47.85429" lon="-3.7969">
        <ele>36</ele>
        <time>2021-08-12T12:48:24Z</time>
      </trkpt>
      <trkpt lat="47.85429" lon="-3.79682">
        <ele>36</ele>
        <time>2021-08-12T12:48:25Z</time>
      </trkpt>
      <trkpt lat="47.8543" lon="-3.79674">
        <ele>35.8</ele>
        <time>2021-08-12T12:48:26Z</time>
      </trkpt>
      <trkpt lat="47.8543" lon="-3.79666">
        <ele>35.8</ele>
        <time>2021-08-12T12:48:27Z</time>
      </trkpt>
      <trkpt lat="47.8543" lon="-3.79658">
        <ele>35.8</ele>
        <time>2021-08-12T12:48:28Z</time>
      </trkpt>
      <trkpt lat="47.85431" lon="-3.79643">
        <ele>35.4</ele>
        <time>2021-08-12T12:48:30Z</time>
      </trkpt>
      <trkpt lat="47.85431" lon="-3.79636">
        <ele>35.4</ele>
        <time>2021-08-12T12:48:31Z</time>
      </trkpt>
      <trkpt lat="47.85431" lon="-3.79629">
        <ele>35.2</ele>
        <time>2021-08-12T12:48:32Z</time>
      </trkpt>
      <trkpt lat="47.85432" lon="-3.79622">
        <ele>35.2</ele>
        <time>2021-08-12T12:48:33Z</time>
      </trkpt>
      <trkpt lat="47.85432" lon="-3.79615">
        <ele>35.2</ele>
        <time>2021-08-12T12:48:34Z</time>
      </trkpt>
      <trkpt lat="47.85432" lon="-3.79608">
        <ele>35.2</ele>
        <time>2021-08-12T12:48:35Z</time>
      </trkpt>
      <trkpt lat="47.85432" lon="-3.796">
        <ele>35.2</ele>
        <time>2021-08-12T12:48:36Z</time>
      </trkpt>
      <trkpt lat="47.85433" lon="-3.79593">
        <ele>35.2</ele>
        <time>2021-08-12T12:48:37Z</time>
      </trkpt>
      <trkpt lat="47.85433" lon="-3.79586">
        <ele>35.2</ele>
        <time>2021-08-12T12:48:38Z</time>
      </trkpt>
      <trkpt lat="47.85433" lon="-3.79579">
        <ele>35.2</ele>
        <time>2021-08-12T12:48:39Z</time>
      </trkpt>
      <trkpt lat="47.85434" lon="-3.79565">
        <ele>35.2</ele>
        <time>2021-08-12T12:48:41Z</time>
      </trkpt>
      <trkpt lat="47.85434" lon="-3.79558">
        <ele>35.2</ele>
        <time>2021-08-12T12:48:42Z</time>
      </trkpt>
      <trkpt lat="47.85434" lon="-3.79551">
        <ele>35.2</ele>
        <time>2021-08-12T12:48:43Z</time>
      </trkpt>
      <trkpt lat="47.85434" lon="-3.79544">
        <ele>35.2</ele>
        <time>2021-08-12T12:48:44Z</time>
      </trkpt>
      <trkpt lat="47.85435" lon="-3.79536">
        <ele>35.2</ele>
        <time>2021-08-12T12:48:45Z</time>
      </trkpt>
      <trkpt lat="47.85435" lon="-3.79529">
        <ele>35.2</ele>
        <time>2021-08-12T12:48:46Z</time>
      </trkpt>
      <trkpt lat="47.85435" lon="-3.79521">
        <ele>35.2</ele>
        <time>2021-08-12T12:48:47Z</time>
      </trkpt>
      <trkpt lat="47.85435" lon="-3.79513">
        <ele>35.2</ele>
        <time>2021-08-12T12:48:48Z</time>
      </trkpt>
      <trkpt lat="47.85435" lon="-3.79505">
        <ele>35.2</ele>
        <time>2021-08-12T12:48:49Z</time>
      </trkpt>
      <trkpt lat="47.85436" lon="-3.79497">
        <ele>35</ele>
        <time>2021-08-12T12:48:50Z</time>
      </trkpt>
      <trkpt lat="47.85436" lon="-3.79489">
        <ele>35</ele>
        <time>2021-08-12T12:48:51Z</time>
      </trkpt>
      <trkpt lat="47.85436" lon="-3.79481">
        <ele>34.8</ele>
        <time>2021-08-12T12:48:52Z</time>
      </trkpt>
      <trkpt lat="47.85437" lon="-3.79473">
        <ele>34.6</ele>
        <time>2021-08-12T12:48:53Z</time>
      </trkpt>
      <trkpt lat="47.85437" lon="-3.79465">
        <ele>34.6</ele>
        <time>2021-08-12T12:48:54Z</time>
      </trkpt>
      <trkpt lat="47.85437" lon="-3.79458">
        <ele>34.6</ele>
        <time>2021-08-12T12:48:55Z</time>
      </trkpt>
      <trkpt lat="47.85438" lon="-3.7945">
        <ele>34.4</ele>
        <time>2021-08-12T12:48:56Z</time>
      </trkpt>
      <trkpt lat="47.85438" lon="-3.79442">
        <ele>34.2</ele>
        <time>2021-08-12T12:48:57Z</time>
      </trkpt>
      <trkpt lat="47.85438" lon="-3.79435">
        <ele>34.2</ele>
        <time>2021-08-12T12:48:58Z</time>
      </trkpt>
      <trkpt lat="47.85438" lon="-3.79428">
        <ele>34.2</ele>
        <time>2021-08-12T12:48:59Z</time>
      </trkpt>
      <trkpt lat="47.85439" lon="-3.79421">
        <ele>34.2</ele>
        <time>2021-08-12T12:49:00Z</time>
      </trkpt>
      <trkpt lat="47.85439" lon="-3.79415">
        <ele>34.2</ele>
        <time>2021-08-12T12:49:01Z</time>
      </trkpt>
      <trkpt lat="47.85439" lon="-3.79402">
        <ele>34.2</ele>
        <time>2021-08-12T12:49:03Z</time>
      </trkpt>
      <trkpt lat="47.85439" lon="-3.79396">
        <ele>34.2</ele>
        <time>2021-08-12T12:49:04Z</time>
      </trkpt>
      <trkpt lat="47.8544" lon="-3.7939">
        <ele>34.2</ele>
        <time>2021-08-12T12:49:05Z</time>
      </trkpt>
      <trkpt lat="47.8544" lon="-3.79384">
        <ele>34.4</ele>
        <time>2021-08-12T12:49:06Z</time>
      </trkpt>
      <trkpt lat="47.8544" lon="-3.79379">
        <ele>34.6</ele>
        <time>2021-08-12T12:49:07Z</time>
      </trkpt>
      <trkpt lat="47.8544" lon="-3.79373">
        <ele>34.8</ele>
        <time>2021-08-12T12:49:08Z</time>
      </trkpt>
      <trkpt lat="47.85441" lon="-3.79368">
        <ele>35</ele>
        <time>2021-08-12T12:49:09Z</time>
      </trkpt>
      <trkpt lat="47.85441" lon="-3.79362">
        <ele>35.2</ele>
        <time>2021-08-12T12:49:10Z</time>
      </trkpt>
      <trkpt lat="47.85441" lon="-3.79357">
        <ele>35.4</ele>
        <time>2021-08-12T12:49:11Z</time>
      </trkpt>
      <trkpt lat="47.85441" lon="-3.79352">
        <ele>35.4</ele>
        <time>2021-08-12T12:49:12Z</time>
      </trkpt>
      <trkpt lat="47.85441" lon="-3.79342">
        <ele>36</ele>
        <time>2021-08-12T12:49:14Z</time>
      </trkpt>
      <trkpt lat="47.85442" lon="-3.79337">
        <ele>36.2</ele>
        <time>2021-08-12T12:49:15Z</time>
      </trkpt>
      <trkpt lat="47.85442" lon="-3.79332">
        <ele>36.4</ele>
        <time>2021-08-12T12:49:16Z</time>
      </trkpt>
      <trkpt lat="47.85442" lon="-3.79327">
        <ele>36.6</ele>
        <time>2021-08-12T12:49:17Z</time>
      </trkpt>
      <trkpt lat="47.85442" lon="-3.79322">
        <ele>36.6</ele>
        <time>2021-08-12T12:49:18Z</time>
      </trkpt>
      <trkpt lat="47.85442" lon="-3.79317">
        <ele>36.8</ele>
        <time>2021-08-12T12:49:19Z</time>
      </trkpt>
      <trkpt lat="47.85442" lon="-3.79312">
        <ele>36.8</ele>
        <time>2021-08-12T12:49:20Z</time>
      </trkpt>
      <trkpt lat="47.85442" lon="-3.79307">
        <ele>37</ele>
        <time>2021-08-12T12:49:21Z</time>
      </trkpt>
      <trkpt lat="47.85443" lon="-3.79301">
        <ele>37</ele>
        <time>2021-08-12T12:49:22Z</time>
      </trkpt>
      <trkpt lat="47.85443" lon="-3.79296">
        <ele>37</ele>
        <time>2021-08-12T12:49:23Z</time>
      </trkpt>
      <trkpt lat="47.85443" lon="-3.7929">
        <ele>37</ele>
        <time>2021-08-12T12:49:24Z</time>
      </trkpt>
      <trkpt lat="47.85443" lon="-3.79285">
        <ele>37.2</ele>
        <time>2021-08-12T12:49:25Z</time>
      </trkpt>
      <trkpt lat="47.85444" lon="-3.79279">
        <ele>37.2</ele>
        <time>2021-08-12T12:49:26Z</time>
      </trkpt>
      <trkpt lat="47.85444" lon="-3.79274">
        <ele>37.4</ele>
        <time>2021-08-12T12:49:27Z</time>
      </trkpt>
      <trkpt lat="47.85444" lon="-3.79269">
        <ele>37.4</ele>
        <time>2021-08-12T12:49:28Z</time>
      </trkpt>
      <trkpt lat="47.85444" lon="-3.79264">
        <ele>37.4</ele>
        <time>2021-08-12T12:49:29Z</time>
      </trkpt>
      <trkpt lat="47.85444" lon="-3.79259">
        <ele>37.6</ele>
        <time>2021-08-12T12:49:30Z</time>
      </trkpt>
      <trkpt lat="47.85445" lon="-3.79253">
        <ele>37.6</ele>
        <time>2021-08-12T12:49:31Z</time>
      </trkpt>
      <trkpt lat="47.85445" lon="-3.79248">
        <ele>37.6</ele>
        <time>2021-08-12T12:49:32Z</time>
      </trkpt>
      <trkpt lat="47.85446" lon="-3.79242">
        <ele>37.6</ele>
        <time>2021-08-12T12:49:33Z</time>
      </trkpt>
      <trkpt lat="47.85446" lon="-3.79237">
        <ele>37.8</ele>
        <time>2021-08-12T12:49:34Z</time>
      </trkpt>
      <trkpt lat="47.85446" lon="-3.79231">
        <ele>38</ele>
        <time>2021-08-12T12:49:35Z</time>
      </trkpt>
      <trkpt lat="47.85447" lon="-3.79226">
        <ele>38</ele>
        <time>2021-08-12T12:49:36Z</time>
      </trkpt>
      <trkpt lat="47.85447" lon="-3.79221">
        <ele>38</ele>
        <time>2021-08-12T12:49:37Z</time>
      </trkpt>
      <trkpt lat="47.85448" lon="-3.79215">
        <ele>38</ele>
        <time>2021-08-12T12:49:38Z</time>
      </trkpt>
      <trkpt lat="47.85448" lon="-3.7921">
        <ele>38.2</ele>
        <time>2021-08-12T12:49:39Z</time>
      </trkpt>
      <trkpt lat="47.85449" lon="-3.79204">
        <ele>38.2</ele>
        <time>2021-08-12T12:49:40Z</time>
      </trkpt>
      <trkpt lat="47.85449" lon="-3.79198">
        <ele>38.2</ele>
        <time>2021-08-12T12:49:41Z</time>
      </trkpt>
      <trkpt lat="47.8545" lon="-3.79193">
        <ele>38.2</ele>
        <time>2021-08-12T12:49:42Z</time>
      </trkpt>
      <trkpt lat="47.8545" lon="-3.79187">
        <ele>38.2</ele>
        <time>2021-08-12T12:49:43Z</time>
      </trkpt>
      <trkpt lat="47.85451" lon="-3.79181">
        <ele>38.4</ele>
        <time>2021-08-12T12:49:44Z</time>
      </trkpt>
      <trkpt lat="47.85452" lon="-3.79175">
        <ele>38.4</ele>
        <time>2021-08-12T12:49:45Z</time>
      </trkpt>
      <trkpt lat="47.85453" lon="-3.79164">
        <ele>38.4</ele>
        <time>2021-08-12T12:49:47Z</time>
      </trkpt>
      <trkpt lat="47.85453" lon="-3.79158">
        <ele>38.4</ele>
        <time>2021-08-12T12:49:48Z</time>
      </trkpt>
      <trkpt lat="47.85454" lon="-3.79152">
        <ele>38.4</ele>
        <time>2021-08-12T12:49:49Z</time>
      </trkpt>
      <trkpt lat="47.85455" lon="-3.79147">
        <ele>38.4</ele>
        <time>2021-08-12T12:49:50Z</time>
      </trkpt>
      <trkpt lat="47.85456" lon="-3.7914">
        <ele>38.4</ele>
        <time>2021-08-12T12:49:51Z</time>
      </trkpt>
      <trkpt lat="47.85456" lon="-3.79135">
        <ele>38.4</ele>
        <time>2021-08-12T12:49:52Z</time>
      </trkpt>
      <trkpt lat="47.85457" lon="-3.79129">
        <ele>38.4</ele>
        <time>2021-08-12T12:49:53Z</time>
      </trkpt>
      <trkpt lat="47.85458" lon="-3.79123">
        <ele>38.4</ele>
        <time>2021-08-12T12:49:54Z</time>
      </trkpt>
      <trkpt lat="47.85459" lon="-3.79117">
        <ele>38.4</ele>
        <time>2021-08-12T12:49:55Z</time>
      </trkpt>
      <trkpt lat="47.85459" lon="-3.79111">
        <ele>38.4</ele>
        <time>2021-08-12T12:49:56Z</time>
      </trkpt>
      <trkpt lat="47.85461" lon="-3.791">
        <ele>38.4</ele>
        <time>2021-08-12T12:49:58Z</time>
      </trkpt>
      <trkpt lat="47.85461" lon="-3.79095">
        <ele>38.4</ele>
        <time>2021-08-12T12:49:59Z</time>
      </trkpt>
      <trkpt lat="47.85462" lon="-3.79089">
        <ele>38.4</ele>
        <time>2021-08-12T12:50:00Z</time>
      </trkpt>
      <trkpt lat="47.85463" lon="-3.79083">
        <ele>38.4</ele>
        <time>2021-08-12T12:50:01Z</time>
      </trkpt>
      <trkpt lat="47.85464" lon="-3.79078">
        <ele>38.4</ele>
        <time>2021-08-12T12:50:02Z</time>
      </trkpt>
      <trkpt lat="47.85464" lon="-3.79072">
        <ele>38.4</ele>
        <time>2021-08-12T12:50:03Z</time>
      </trkpt>
      <trkpt lat="47.85465" lon="-3.79066">
        <ele>38.6</ele>
        <time>2021-08-12T12:50:04Z</time>
      </trkpt>
      <trkpt lat="47.85466" lon="-3.7906">
        <ele>38.6</ele>
        <time>2021-08-12T12:50:05Z</time>
      </trkpt>
      <trkpt lat="47.85467" lon="-3.79054">
        <ele>38.6</ele>
        <time>2021-08-12T12:50:06Z</time>
      </trkpt>
      <trkpt lat="47.85468" lon="-3.79047">
        <ele>38.6</ele>
        <time>2021-08-12T12:50:07Z</time>
      </trkpt>
      <trkpt lat="47.8547" lon="-3.79035">
        <ele>38.6</ele>
        <time>2021-08-12T12:50:09Z</time>
      </trkpt>
      <trkpt lat="47.85471" lon="-3.79029">
        <ele>38.6</ele>
        <time>2021-08-12T12:50:10Z</time>
      </trkpt>
      <trkpt lat="47.85473" lon="-3.79023">
        <ele>38.6</ele>
        <time>2021-08-12T12:50:11Z</time>
      </trkpt>
      <trkpt lat="47.85474" lon="-3.79016">
        <ele>38.4</ele>
        <time>2021-08-12T12:50:12Z</time>
      </trkpt>
      <trkpt lat="47.85476" lon="-3.7901">
        <ele>38.4</ele>
        <time>2021-08-12T12:50:13Z</time>
      </trkpt>
      <trkpt lat="47.85477" lon="-3.79003">
        <ele>38.4</ele>
        <time>2021-08-12T12:50:14Z</time>
      </trkpt>
      <trkpt lat="47.85479" lon="-3.78997">
        <ele>38.4</ele>
        <time>2021-08-12T12:50:15Z</time>
      </trkpt>
      <trkpt lat="47.85481" lon="-3.78991">
        <ele>38.4</ele>
        <time>2021-08-12T12:50:16Z</time>
      </trkpt>
      <trkpt lat="47.85482" lon="-3.78984">
        <ele>38.4</ele>
        <time>2021-08-12T12:50:17Z</time>
      </trkpt>
      <trkpt lat="47.85484" lon="-3.78979">
        <ele>38.4</ele>
        <time>2021-08-12T12:50:18Z</time>
      </trkpt>
      <trkpt lat="47.85488" lon="-3.78968">
        <ele>38.6</ele>
        <time>2021-08-12T12:50:20Z</time>
      </trkpt>
      <trkpt lat="47.85489" lon="-3.78963">
        <ele>38.6</ele>
        <time>2021-08-12T12:50:21Z</time>
      </trkpt>
      <trkpt lat="47.85491" lon="-3.78958">
        <ele>38.6</ele>
        <time>2021-08-12T12:50:22Z</time>
      </trkpt>
      <trkpt lat="47.85493" lon="-3.78953">
        <ele>38.6</ele>
        <time>2021-08-12T12:50:23Z</time>
      </trkpt>
      <trkpt lat="47.85495" lon="-3.78949">
        <ele>38.6</ele>
        <time>2021-08-12T12:50:24Z</time>
      </trkpt>
      <trkpt lat="47.85497" lon="-3.78944">
        <ele>38.6</ele>
        <time>2021-08-12T12:50:25Z</time>
      </trkpt>
      <trkpt lat="47.85499" lon="-3.78939">
        <ele>38.6</ele>
        <time>2021-08-12T12:50:26Z</time>
      </trkpt>
      <trkpt lat="47.85501" lon="-3.78935">
        <ele>38.6</ele>
        <time>2021-08-12T12:50:27Z</time>
      </trkpt>
      <trkpt lat="47.85503" lon="-3.78931">
        <ele>38.6</ele>
        <time>2021-08-12T12:50:28Z</time>
      </trkpt>
      <trkpt lat="47.85505" lon="-3.78927">
        <ele>38.8</ele>
        <time>2021-08-12T12:50:29Z</time>
      </trkpt>
      <trkpt lat="47.85509" lon="-3.78919">
        <ele>38.8</ele>
        <time>2021-08-12T12:50:31Z</time>
      </trkpt>
      <trkpt lat="47.85511" lon="-3.78915">
        <ele>39</ele>
        <time>2021-08-12T12:50:32Z</time>
      </trkpt>
      <trkpt lat="47.85513" lon="-3.78911">
        <ele>39</ele>
        <time>2021-08-12T12:50:33Z</time>
      </trkpt>
      <trkpt lat="47.85515" lon="-3.78907">
        <ele>39.2</ele>
        <time>2021-08-12T12:50:34Z</time>
      </trkpt>
      <trkpt lat="47.85517" lon="-3.78903">
        <ele>39.2</ele>
        <time>2021-08-12T12:50:35Z</time>
      </trkpt>
      <trkpt lat="47.8552" lon="-3.78899">
        <ele>39.4</ele>
        <time>2021-08-12T12:50:36Z</time>
      </trkpt>
      <trkpt lat="47.85522" lon="-3.78895">
        <ele>39.4</ele>
        <time>2021-08-12T12:50:37Z</time>
      </trkpt>
      <trkpt lat="47.85524" lon="-3.78891">
        <ele>39.6</ele>
        <time>2021-08-12T12:50:38Z</time>
      </trkpt>
      <trkpt lat="47.85526" lon="-3.78887">
        <ele>39.6</ele>
        <time>2021-08-12T12:50:39Z</time>
      </trkpt>
      <trkpt lat="47.85528" lon="-3.78883">
        <ele>39.6</ele>
        <time>2021-08-12T12:50:40Z</time>
      </trkpt>
      <trkpt lat="47.8553" lon="-3.78879">
        <ele>39.6</ele>
        <time>2021-08-12T12:50:41Z</time>
      </trkpt>
      <trkpt lat="47.85532" lon="-3.78874">
        <ele>39.8</ele>
        <time>2021-08-12T12:50:42Z</time>
      </trkpt>
      <trkpt lat="47.85534" lon="-3.7887">
        <ele>39.8</ele>
        <time>2021-08-12T12:50:43Z</time>
      </trkpt>
      <trkpt lat="47.85536" lon="-3.78866">
        <ele>40</ele>
        <time>2021-08-12T12:50:44Z</time>
      </trkpt>
      <trkpt lat="47.85538" lon="-3.78862">
        <ele>40</ele>
        <time>2021-08-12T12:50:45Z</time>
      </trkpt>
      <trkpt lat="47.8554" lon="-3.78858">
        <ele>40</ele>
        <time>2021-08-12T12:50:46Z</time>
      </trkpt>
      <trkpt lat="47.85542" lon="-3.78853">
        <ele>40</ele>
        <time>2021-08-12T12:50:47Z</time>
      </trkpt>
      <trkpt lat="47.85544" lon="-3.78849">
        <ele>40.2</ele>
        <time>2021-08-12T12:50:48Z</time>
      </trkpt>
      <trkpt lat="47.85546" lon="-3.78845">
        <ele>40.2</ele>
        <time>2021-08-12T12:50:49Z</time>
      </trkpt>
      <trkpt lat="47.85548" lon="-3.7884">
        <ele>40.2</ele>
        <time>2021-08-12T12:50:50Z</time>
      </trkpt>
      <trkpt lat="47.8555" lon="-3.78835">
        <ele>40.2</ele>
        <time>2021-08-12T12:50:51Z</time>
      </trkpt>
      <trkpt lat="47.85554" lon="-3.78825">
        <ele>40.4</ele>
        <time>2021-08-12T12:50:53Z</time>
      </trkpt>
      <trkpt lat="47.85556" lon="-3.7882">
        <ele>40.4</ele>
        <time>2021-08-12T12:50:54Z</time>
      </trkpt>
      <trkpt lat="47.85557" lon="-3.78815">
        <ele>40.4</ele>
        <time>2021-08-12T12:50:55Z</time>
      </trkpt>
      <trkpt lat="47.85559" lon="-3.78811">
        <ele>40.4</ele>
        <time>2021-08-12T12:50:56Z</time>
      </trkpt>
      <trkpt lat="47.8556" lon="-3.78806">
        <ele>40.6</ele>
        <time>2021-08-12T12:50:57Z</time>
      </trkpt>
      <trkpt lat="47.85562" lon="-3.78801">
        <ele>40.6</ele>
        <time>2021-08-12T12:50:58Z</time>
      </trkpt>
      <trkpt lat="47.85563" lon="-3.78797">
        <ele>40.6</ele>
        <time>2021-08-12T12:50:59Z</time>
      </trkpt>
      <trkpt lat="47.85565" lon="-3.78792">
        <ele>40.6</ele>
        <time>2021-08-12T12:51:00Z</time>
      </trkpt>
      <trkpt lat="47.85566" lon="-3.78787">
        <ele>40.8</ele>
        <time>2021-08-12T12:51:01Z</time>
      </trkpt>
      <trkpt lat="47.85567" lon="-3.78782">
        <ele>40.8</ele>
        <time>2021-08-12T12:51:02Z</time>
      </trkpt>
      <trkpt lat="47.85569" lon="-3.78772">
        <ele>41</ele>
        <time>2021-08-12T12:51:04Z</time>
      </trkpt>
      <trkpt lat="47.85571" lon="-3.78767">
        <ele>41</ele>
        <time>2021-08-12T12:51:05Z</time>
      </trkpt>
      <trkpt lat="47.85572" lon="-3.78762">
        <ele>41.2</ele>
        <time>2021-08-12T12:51:06Z</time>
      </trkpt>
      <trkpt lat="47.85573" lon="-3.78757">
        <ele>41.2</ele>
        <time>2021-08-12T12:51:07Z</time>
      </trkpt>
      <trkpt lat="47.85574" lon="-3.78753">
        <ele>41.4</ele>
        <time>2021-08-12T12:51:08Z</time>
      </trkpt>
      <trkpt lat="47.85575" lon="-3.78749">
        <ele>41.4</ele>
        <time>2021-08-12T12:51:09Z</time>
      </trkpt>
      <trkpt lat="47.85575" lon="-3.78744">
        <ele>41.6</ele>
        <time>2021-08-12T12:51:10Z</time>
      </trkpt>
      <trkpt lat="47.85576" lon="-3.7874">
        <ele>41.6</ele>
        <time>2021-08-12T12:51:11Z</time>
      </trkpt>
      <trkpt lat="47.85576" lon="-3.78735">
        <ele>41.8</ele>
        <time>2021-08-12T12:51:12Z</time>
      </trkpt>
      <trkpt lat="47.85577" lon="-3.78731">
        <ele>42</ele>
        <time>2021-08-12T12:51:13Z</time>
      </trkpt>
      <trkpt lat="47.85578" lon="-3.78721">
        <ele>42.2</ele>
        <time>2021-08-12T12:51:15Z</time>
      </trkpt>
      <trkpt lat="47.85579" lon="-3.78716">
        <ele>42.2</ele>
        <time>2021-08-12T12:51:16Z</time>
      </trkpt>
      <trkpt lat="47.8558" lon="-3.78712">
        <ele>42.4</ele>
        <time>2021-08-12T12:51:17Z</time>
      </trkpt>
      <trkpt lat="47.85581" lon="-3.78707">
        <ele>42.6</ele>
        <time>2021-08-12T12:51:18Z</time>
      </trkpt>
      <trkpt lat="47.85581" lon="-3.78703">
        <ele>42.8</ele>
        <time>2021-08-12T12:51:19Z</time>
      </trkpt>
      <trkpt lat="47.85582" lon="-3.78698">
        <ele>43.2</ele>
        <time>2021-08-12T12:51:20Z</time>
      </trkpt>
      <trkpt lat="47.85583" lon="-3.78694">
        <ele>43.4</ele>
        <time>2021-08-12T12:51:21Z</time>
      </trkpt>
      <trkpt lat="47.85584" lon="-3.7869">
        <ele>43.6</ele>
        <time>2021-08-12T12:51:22Z</time>
      </trkpt>
      <trkpt lat="47.85585" lon="-3.78686">
        <ele>43.8</ele>
        <time>2021-08-12T12:51:23Z</time>
      </trkpt>
      <trkpt lat="47.85585" lon="-3.78682">
        <ele>44</ele>
        <time>2021-08-12T12:51:24Z</time>
      </trkpt>
      <trkpt lat="47.85586" lon="-3.78674">
        <ele>44.2</ele>
        <time>2021-08-12T12:51:26Z</time>
      </trkpt>
      <trkpt lat="47.85587" lon="-3.7867">
        <ele>44.4</ele>
        <time>2021-08-12T12:51:27Z</time>
      </trkpt>
      <trkpt lat="47.85587" lon="-3.78667">
        <ele>44.4</ele>
        <time>2021-08-12T12:51:28Z</time>
      </trkpt>
      <trkpt lat="47.85588" lon="-3.78664">
        <ele>44.6</ele>
        <time>2021-08-12T12:51:29Z</time>
      </trkpt>
      <trkpt lat="47.85589" lon="-3.78662">
        <ele>45</ele>
        <time>2021-08-12T12:51:30Z</time>
      </trkpt>
      <trkpt lat="47.85589" lon="-3.78659">
        <ele>45.2</ele>
        <time>2021-08-12T12:51:31Z</time>
      </trkpt>
      <trkpt lat="47.85589" lon="-3.78656">
        <ele>45.2</ele>
        <time>2021-08-12T12:51:32Z</time>
      </trkpt>
      <trkpt lat="47.8559" lon="-3.78653">
        <ele>45.4</ele>
        <time>2021-08-12T12:51:33Z</time>
      </trkpt>
      <trkpt lat="47.8559" lon="-3.78649">
        <ele>45.4</ele>
        <time>2021-08-12T12:51:34Z</time>
      </trkpt>
      <trkpt lat="47.85591" lon="-3.78646">
        <ele>45.4</ele>
        <time>2021-08-12T12:51:35Z</time>
      </trkpt>
      <trkpt lat="47.85593" lon="-3.78638">
        <ele>45.4</ele>
        <time>2021-08-12T12:51:37Z</time>
      </trkpt>
      <trkpt lat="47.85594" lon="-3.78634">
        <ele>45.4</ele>
        <time>2021-08-12T12:51:38Z</time>
      </trkpt>
      <trkpt lat="47.85595" lon="-3.7863">
        <ele>45.6</ele>
        <time>2021-08-12T12:51:39Z</time>
      </trkpt>
      <trkpt lat="47.85596" lon="-3.78626">
        <ele>45.6</ele>
        <time>2021-08-12T12:51:40Z</time>
      </trkpt>
      <trkpt lat="47.85596" lon="-3.78622">
        <ele>45.6</ele>
        <time>2021-08-12T12:51:41Z</time>
      </trkpt>
      <trkpt lat="47.85597" lon="-3.78618">
        <ele>45.6</ele>
        <time>2021-08-12T12:51:42Z</time>
      </trkpt>
      <trkpt lat="47.85598" lon="-3.78614">
        <ele>45.6</ele>
        <time>2021-08-12T12:51:43Z</time>
      </trkpt>
      <trkpt lat="47.85598" lon="-3.78611">
        <ele>45.6</ele>
        <time>2021-08-12T12:51:44Z</time>
      </trkpt>
      <trkpt lat="47.85599" lon="-3.78606">
        <ele>45.6</ele>
        <time>2021-08-12T12:51:45Z</time>
      </trkpt>
      <trkpt lat="47.856" lon="-3.78602">
        <ele>45.6</ele>
        <time>2021-08-12T12:51:46Z</time>
      </trkpt>
      <trkpt lat="47.856" lon="-3.78598">
        <ele>45.8</ele>
        <time>2021-08-12T12:51:47Z</time>
      </trkpt>
      <trkpt lat="47.85601" lon="-3.78594">
        <ele>45.8</ele>
        <time>2021-08-12T12:51:48Z</time>
      </trkpt>
      <trkpt lat="47.85602" lon="-3.7859">
        <ele>45.8</ele>
        <time>2021-08-12T12:51:49Z</time>
      </trkpt>
      <trkpt lat="47.85603" lon="-3.78585">
        <ele>45.8</ele>
        <time>2021-08-12T12:51:50Z</time>
      </trkpt>
      <trkpt lat="47.85604" lon="-3.78581">
        <ele>45.8</ele>
        <time>2021-08-12T12:51:51Z</time>
      </trkpt>
      <trkpt lat="47.85605" lon="-3.78577">
        <ele>46</ele>
        <time>2021-08-12T12:51:52Z</time>
      </trkpt>
      <trkpt lat="47.85606" lon="-3.78572">
        <ele>46</ele>
        <time>2021-08-12T12:51:53Z</time>
      </trkpt>
      <trkpt lat="47.85607" lon="-3.78567">
        <ele>46</ele>
        <time>2021-08-12T12:51:54Z</time>
      </trkpt>
      <trkpt lat="47.85607" lon="-3.78563">
        <ele>46</ele>
        <time>2021-08-12T12:51:55Z</time>
      </trkpt>
      <trkpt lat="47.85608" lon="-3.78559">
        <ele>46</ele>
        <time>2021-08-12T12:51:56Z</time>
      </trkpt>
      <trkpt lat="47.85609" lon="-3.78554">
        <ele>46</ele>
        <time>2021-08-12T12:51:57Z</time>
      </trkpt>
      <trkpt lat="47.8561" lon="-3.78545">
        <ele>46.2</ele>
        <time>2021-08-12T12:51:59Z</time>
      </trkpt>
      <trkpt lat="47.85611" lon="-3.78541">
        <ele>46.4</ele>
        <time>2021-08-12T12:52:00Z</time>
      </trkpt>
      <trkpt lat="47.85612" lon="-3.78536">
        <ele>46.4</ele>
        <time>2021-08-12T12:52:01Z</time>
      </trkpt>
      <trkpt lat="47.85612" lon="-3.78532">
        <ele>46.4</ele>
        <time>2021-08-12T12:52:02Z</time>
      </trkpt>
      <trkpt lat="47.85613" lon="-3.78527">
        <ele>46.4</ele>
        <time>2021-08-12T12:52:03Z</time>
      </trkpt>
      <trkpt lat="47.85614" lon="-3.78523">
        <ele>46.6</ele>
        <time>2021-08-12T12:52:04Z</time>
      </trkpt>
      <trkpt lat="47.85615" lon="-3.78518">
        <ele>46.8</ele>
        <time>2021-08-12T12:52:05Z</time>
      </trkpt>
      <trkpt lat="47.85616" lon="-3.78514">
        <ele>46.8</ele>
        <time>2021-08-12T12:52:06Z</time>
      </trkpt>
      <trkpt lat="47.85617" lon="-3.7851">
        <ele>46.8</ele>
        <time>2021-08-12T12:52:07Z</time>
      </trkpt>
      <trkpt lat="47.85617" lon="-3.78505">
        <ele>46.8</ele>
        <time>2021-08-12T12:52:08Z</time>
      </trkpt>
      <trkpt lat="47.85619" lon="-3.78497">
        <ele>47</ele>
        <time>2021-08-12T12:52:10Z</time>
      </trkpt>
      <trkpt lat="47.8562" lon="-3.78493">
        <ele>47.2</ele>
        <time>2021-08-12T12:52:11Z</time>
      </trkpt>
      <trkpt lat="47.85621" lon="-3.78488">
        <ele>47.2</ele>
        <time>2021-08-12T12:52:12Z</time>
      </trkpt>
      <trkpt lat="47.85621" lon="-3.78484">
        <ele>47.2</ele>
        <time>2021-08-12T12:52:13Z</time>
      </trkpt>
      <trkpt lat="47.85622" lon="-3.7848">
        <ele>47.4</ele>
        <time>2021-08-12T12:52:14Z</time>
      </trkpt>
      <trkpt lat="47.85623" lon="-3.78476">
        <ele>47.4</ele>
        <time>2021-08-12T12:52:15Z</time>
      </trkpt>
      <trkpt lat="47.85624" lon="-3.78472">
        <ele>47.6</ele>
        <time>2021-08-12T12:52:16Z</time>
      </trkpt>
      <trkpt lat="47.85625" lon="-3.78468">
        <ele>47.6</ele>
        <time>2021-08-12T12:52:17Z</time>
      </trkpt>
      <trkpt lat="47.85625" lon="-3.78465">
        <ele>47.8</ele>
        <time>2021-08-12T12:52:18Z</time>
      </trkpt>
      <trkpt lat="47.85626" lon="-3.78461">
        <ele>48</ele>
        <time>2021-08-12T12:52:19Z</time>
      </trkpt>
      <trkpt lat="47.85627" lon="-3.78453">
        <ele>48.2</ele>
        <time>2021-08-12T12:52:21Z</time>
      </trkpt>
      <trkpt lat="47.85628" lon="-3.78449">
        <ele>48.2</ele>
        <time>2021-08-12T12:52:22Z</time>
      </trkpt>
      <trkpt lat="47.85629" lon="-3.78445">
        <ele>48.2</ele>
        <time>2021-08-12T12:52:23Z</time>
      </trkpt>
      <trkpt lat="47.8563" lon="-3.78441">
        <ele>48.4</ele>
        <time>2021-08-12T12:52:24Z</time>
      </trkpt>
      <trkpt lat="47.8563" lon="-3.78437">
        <ele>48.4</ele>
        <time>2021-08-12T12:52:25Z</time>
      </trkpt>
      <trkpt lat="47.85631" lon="-3.78432">
        <ele>48.6</ele>
        <time>2021-08-12T12:52:26Z</time>
      </trkpt>
      <trkpt lat="47.85632" lon="-3.78428">
        <ele>48.8</ele>
        <time>2021-08-12T12:52:27Z</time>
      </trkpt>
      <trkpt lat="47.85633" lon="-3.78424">
        <ele>48.8</ele>
        <time>2021-08-12T12:52:28Z</time>
      </trkpt>
      <trkpt lat="47.85634" lon="-3.7842">
        <ele>49</ele>
        <time>2021-08-12T12:52:29Z</time>
      </trkpt>
      <trkpt lat="47.85635" lon="-3.78415">
        <ele>49</ele>
        <time>2021-08-12T12:52:30Z</time>
      </trkpt>
      <trkpt lat="47.85635" lon="-3.78411">
        <ele>49.2</ele>
        <time>2021-08-12T12:52:31Z</time>
      </trkpt>
      <trkpt lat="47.85636" lon="-3.78406">
        <ele>49.2</ele>
        <time>2021-08-12T12:52:32Z</time>
      </trkpt>
      <trkpt lat="47.85637" lon="-3.78402">
        <ele>49.2</ele>
        <time>2021-08-12T12:52:33Z</time>
      </trkpt>
      <trkpt lat="47.85638" lon="-3.78398">
        <ele>49.2</ele>
        <time>2021-08-12T12:52:34Z</time>
      </trkpt>
      <trkpt lat="47.85638" lon="-3.78393">
        <ele>49.4</ele>
        <time>2021-08-12T12:52:35Z</time>
      </trkpt>
      <trkpt lat="47.85639" lon="-3.78389">
        <ele>49.4</ele>
        <time>2021-08-12T12:52:36Z</time>
      </trkpt>
      <trkpt lat="47.8564" lon="-3.78385">
        <ele>49.6</ele>
        <time>2021-08-12T12:52:37Z</time>
      </trkpt>
      <trkpt lat="47.8564" lon="-3.78381">
        <ele>49.8</ele>
        <time>2021-08-12T12:52:38Z</time>
      </trkpt>
      <trkpt lat="47.85641" lon="-3.78376">
        <ele>49.8</ele>
        <time>2021-08-12T12:52:39Z</time>
      </trkpt>
      <trkpt lat="47.85642" lon="-3.78372">
        <ele>50</ele>
        <time>2021-08-12T12:52:40Z</time>
      </trkpt>
      <trkpt lat="47.85643" lon="-3.78368">
        <ele>50</ele>
        <time>2021-08-12T12:52:41Z</time>
      </trkpt>
      <trkpt lat="47.85644" lon="-3.78359">
        <ele>50</ele>
        <time>2021-08-12T12:52:43Z</time>
      </trkpt>
      <trkpt lat="47.85645" lon="-3.78355">
        <ele>50</ele>
        <time>2021-08-12T12:52:44Z</time>
      </trkpt>
      <trkpt lat="47.85646" lon="-3.7835">
        <ele>50</ele>
        <time>2021-08-12T12:52:45Z</time>
      </trkpt>
      <trkpt lat="47.85647" lon="-3.78346">
        <ele>50.2</ele>
        <time>2021-08-12T12:52:46Z</time>
      </trkpt>
      <trkpt lat="47.85647" lon="-3.78342">
        <ele>50.2</ele>
        <time>2021-08-12T12:52:47Z</time>
      </trkpt>
      <trkpt lat="47.85648" lon="-3.78337">
        <ele>50.2</ele>
        <time>2021-08-12T12:52:48Z</time>
      </trkpt>
      <trkpt lat="47.85649" lon="-3.78332">
        <ele>50.2</ele>
        <time>2021-08-12T12:52:49Z</time>
      </trkpt>
      <trkpt lat="47.8565" lon="-3.78328">
        <ele>50.2</ele>
        <time>2021-08-12T12:52:50Z</time>
      </trkpt>
      <trkpt lat="47.85651" lon="-3.78324">
        <ele>50.2</ele>
        <time>2021-08-12T12:52:51Z</time>
      </trkpt>
      <trkpt lat="47.85652" lon="-3.7832">
        <ele>50.2</ele>
        <time>2021-08-12T12:52:52Z</time>
      </trkpt>
      <trkpt lat="47.85653" lon="-3.78312">
        <ele>50.2</ele>
        <time>2021-08-12T12:52:54Z</time>
      </trkpt>
      <trkpt lat="47.85654" lon="-3.78308">
        <ele>50.2</ele>
        <time>2021-08-12T12:52:55Z</time>
      </trkpt>
      <trkpt lat="47.85655" lon="-3.78303">
        <ele>50.2</ele>
        <time>2021-08-12T12:52:56Z</time>
      </trkpt>
      <trkpt lat="47.85656" lon="-3.78299">
        <ele>50.2</ele>
        <time>2021-08-12T12:52:57Z</time>
      </trkpt>
      <trkpt lat="47.85657" lon="-3.78294">
        <ele>50.2</ele>
        <time>2021-08-12T12:52:58Z</time>
      </trkpt>
      <trkpt lat="47.85658" lon="-3.78289">
        <ele>50.2</ele>
        <time>2021-08-12T12:52:59Z</time>
      </trkpt>
      <trkpt lat="47.85659" lon="-3.78285">
        <ele>50.2</ele>
        <time>2021-08-12T12:53:00Z</time>
      </trkpt>
      <trkpt lat="47.8566" lon="-3.7828">
        <ele>50.4</ele>
        <time>2021-08-12T12:53:01Z</time>
      </trkpt>
      <trkpt lat="47.85662" lon="-3.78276">
        <ele>50.4</ele>
        <time>2021-08-12T12:53:02Z</time>
      </trkpt>
      <trkpt lat="47.85663" lon="-3.78271">
        <ele>50.4</ele>
        <time>2021-08-12T12:53:03Z</time>
      </trkpt>
      <trkpt lat="47.85665" lon="-3.78261">
        <ele>50.4</ele>
        <time>2021-08-12T12:53:05Z</time>
      </trkpt>
      <trkpt lat="47.85666" lon="-3.78256">
        <ele>50.4</ele>
        <time>2021-08-12T12:53:06Z</time>
      </trkpt>
      <trkpt lat="47.85667" lon="-3.78251">
        <ele>50.4</ele>
        <time>2021-08-12T12:53:07Z</time>
      </trkpt>
      <trkpt lat="47.85668" lon="-3.78246">
        <ele>50.4</ele>
        <time>2021-08-12T12:53:08Z</time>
      </trkpt>
      <trkpt lat="47.8567" lon="-3.78241">
        <ele>50.4</ele>
        <time>2021-08-12T12:53:09Z</time>
      </trkpt>
      <trkpt lat="47.85671" lon="-3.78236">
        <ele>50.4</ele>
        <time>2021-08-12T12:53:10Z</time>
      </trkpt>
      <trkpt lat="47.85672" lon="-3.7823">
        <ele>50.4</ele>
        <time>2021-08-12T12:53:11Z</time>
      </trkpt>
      <trkpt lat="47.85673" lon="-3.78225">
        <ele>50.4</ele>
        <time>2021-08-12T12:53:12Z</time>
      </trkpt>
      <trkpt lat="47.85675" lon="-3.7822">
        <ele>50.4</ele>
        <time>2021-08-12T12:53:13Z</time>
      </trkpt>
      <trkpt lat="47.85676" lon="-3.78215">
        <ele>50.4</ele>
        <time>2021-08-12T12:53:14Z</time>
      </trkpt>
      <trkpt lat="47.85677" lon="-3.7821">
        <ele>50.4</ele>
        <time>2021-08-12T12:53:15Z</time>
      </trkpt>
      <trkpt lat="47.85678" lon="-3.78204">
        <ele>50.4</ele>
        <time>2021-08-12T12:53:16Z</time>
      </trkpt>
      <trkpt lat="47.8568" lon="-3.78199">
        <ele>50.4</ele>
        <time>2021-08-12T12:53:17Z</time>
      </trkpt>
      <trkpt lat="47.85681" lon="-3.78193">
        <ele>50.4</ele>
        <time>2021-08-12T12:53:18Z</time>
      </trkpt>
      <trkpt lat="47.85682" lon="-3.78188">
        <ele>50.4</ele>
        <time>2021-08-12T12:53:19Z</time>
      </trkpt>
      <trkpt lat="47.85684" lon="-3.78182">
        <ele>50.4</ele>
        <time>2021-08-12T12:53:20Z</time>
      </trkpt>
      <trkpt lat="47.85685" lon="-3.78177">
        <ele>50.4</ele>
        <time>2021-08-12T12:53:21Z</time>
      </trkpt>
      <trkpt lat="47.85686" lon="-3.78171">
        <ele>50.4</ele>
        <time>2021-08-12T12:53:22Z</time>
      </trkpt>
      <trkpt lat="47.85688" lon="-3.78166">
        <ele>50.4</ele>
        <time>2021-08-12T12:53:23Z</time>
      </trkpt>
      <trkpt lat="47.85689" lon="-3.78161">
        <ele>50.4</ele>
        <time>2021-08-12T12:53:24Z</time>
      </trkpt>
      <trkpt lat="47.8569" lon="-3.78157">
        <ele>50.4</ele>
        <time>2021-08-12T12:53:25Z</time>
      </trkpt>
      <trkpt lat="47.85692" lon="-3.78147">
        <ele>50.4</ele>
        <time>2021-08-12T12:53:27Z</time>
      </trkpt>
      <trkpt lat="47.85693" lon="-3.78142">
        <ele>50.4</ele>
        <time>2021-08-12T12:53:28Z</time>
      </trkpt>
      <trkpt lat="47.85694" lon="-3.78138">
        <ele>50.2</ele>
        <time>2021-08-12T12:53:29Z</time>
      </trkpt>
      <trkpt lat="47.85696" lon="-3.78133">
        <ele>50.2</ele>
        <time>2021-08-12T12:53:30Z</time>
      </trkpt>
      <trkpt lat="47.85697" lon="-3.78127">
        <ele>50.2</ele>
        <time>2021-08-12T12:53:31Z</time>
      </trkpt>
      <trkpt lat="47.85698" lon="-3.78121">
        <ele>50.2</ele>
        <time>2021-08-12T12:53:32Z</time>
      </trkpt>
      <trkpt lat="47.857" lon="-3.78116">
        <ele>50.2</ele>
        <time>2021-08-12T12:53:33Z</time>
      </trkpt>
      <trkpt lat="47.85701" lon="-3.7811">
        <ele>50.2</ele>
        <time>2021-08-12T12:53:34Z</time>
      </trkpt>
      <trkpt lat="47.85702" lon="-3.78105">
        <ele>50.2</ele>
        <time>2021-08-12T12:53:35Z</time>
      </trkpt>
      <trkpt lat="47.85703" lon="-3.781">
        <ele>50.2</ele>
        <time>2021-08-12T12:53:36Z</time>
      </trkpt>
      <trkpt lat="47.85706" lon="-3.78089">
        <ele>50.2</ele>
        <time>2021-08-12T12:53:38Z</time>
      </trkpt>
      <trkpt lat="47.85707" lon="-3.78084">
        <ele>50.2</ele>
        <time>2021-08-12T12:53:39Z</time>
      </trkpt>
      <trkpt lat="47.85709" lon="-3.78079">
        <ele>50.2</ele>
        <time>2021-08-12T12:53:40Z</time>
      </trkpt>
      <trkpt lat="47.8571" lon="-3.78073">
        <ele>50</ele>
        <time>2021-08-12T12:53:41Z</time>
      </trkpt>
      <trkpt lat="47.85711" lon="-3.78068">
        <ele>50</ele>
        <time>2021-08-12T12:53:42Z</time>
      </trkpt>
      <trkpt lat="47.85712" lon="-3.78062">
        <ele>50</ele>
        <time>2021-08-12T12:53:43Z</time>
      </trkpt>
      <trkpt lat="47.85713" lon="-3.78057">
        <ele>50</ele>
        <time>2021-08-12T12:53:44Z</time>
      </trkpt>
      <trkpt lat="47.85714" lon="-3.78052">
        <ele>50</ele>
        <time>2021-08-12T12:53:45Z</time>
      </trkpt>
      <trkpt lat="47.85716" lon="-3.78047">
        <ele>50</ele>
        <time>2021-08-12T12:53:46Z</time>
      </trkpt>
      <trkpt lat="47.85717" lon="-3.78042">
        <ele>50</ele>
        <time>2021-08-12T12:53:47Z</time>
      </trkpt>
      <trkpt lat="47.8572" lon="-3.78031">
        <ele>49.8</ele>
        <time>2021-08-12T12:53:49Z</time>
      </trkpt>
      <trkpt lat="47.85721" lon="-3.78026">
        <ele>49.8</ele>
        <time>2021-08-12T12:53:50Z</time>
      </trkpt>
      <trkpt lat="47.85722" lon="-3.78021">
        <ele>49.8</ele>
        <time>2021-08-12T12:53:51Z</time>
      </trkpt>
      <trkpt lat="47.85723" lon="-3.78016">
        <ele>49.6</ele>
        <time>2021-08-12T12:53:52Z</time>
      </trkpt>
      <trkpt lat="47.85725" lon="-3.78011">
        <ele>49.6</ele>
        <time>2021-08-12T12:53:53Z</time>
      </trkpt>
      <trkpt lat="47.85726" lon="-3.78006">
        <ele>49.6</ele>
        <time>2021-08-12T12:53:54Z</time>
      </trkpt>
      <trkpt lat="47.85727" lon="-3.78001">
        <ele>49.6</ele>
        <time>2021-08-12T12:53:55Z</time>
      </trkpt>
      <trkpt lat="47.85728" lon="-3.77996">
        <ele>49.6</ele>
        <time>2021-08-12T12:53:56Z</time>
      </trkpt>
      <trkpt lat="47.85729" lon="-3.77991">
        <ele>49.6</ele>
        <time>2021-08-12T12:53:57Z</time>
      </trkpt>
      <trkpt lat="47.8573" lon="-3.77986">
        <ele>49.6</ele>
        <time>2021-08-12T12:53:58Z</time>
      </trkpt>
      <trkpt lat="47.85733" lon="-3.77976">
        <ele>49.6</ele>
        <time>2021-08-12T12:54:00Z</time>
      </trkpt>
      <trkpt lat="47.85734" lon="-3.77971">
        <ele>49.6</ele>
        <time>2021-08-12T12:54:01Z</time>
      </trkpt>
      <trkpt lat="47.85735" lon="-3.77966">
        <ele>49.6</ele>
        <time>2021-08-12T12:54:02Z</time>
      </trkpt>
      <trkpt lat="47.85736" lon="-3.77962">
        <ele>49.6</ele>
        <time>2021-08-12T12:54:03Z</time>
      </trkpt>
      <trkpt lat="47.85737" lon="-3.77957">
        <ele>49.6</ele>
        <time>2021-08-12T12:54:04Z</time>
      </trkpt>
      <trkpt lat="47.85738" lon="-3.77953">
        <ele>49.6</ele>
        <time>2021-08-12T12:54:05Z</time>
      </trkpt>
      <trkpt lat="47.85739" lon="-3.77948">
        <ele>49.6</ele>
        <time>2021-08-12T12:54:06Z</time>
      </trkpt>
      <trkpt lat="47.8574" lon="-3.77943">
        <ele>49.8</ele>
        <time>2021-08-12T12:54:07Z</time>
      </trkpt>
      <trkpt lat="47.85741" lon="-3.77939">
        <ele>50</ele>
        <time>2021-08-12T12:54:08Z</time>
      </trkpt>
      <trkpt lat="47.85742" lon="-3.77935">
        <ele>50</ele>
        <time>2021-08-12T12:54:09Z</time>
      </trkpt>
      <trkpt lat="47.85744" lon="-3.77926">
        <ele>50.2</ele>
        <time>2021-08-12T12:54:11Z</time>
      </trkpt>
      <trkpt lat="47.85745" lon="-3.77922">
        <ele>50.2</ele>
        <time>2021-08-12T12:54:12Z</time>
      </trkpt>
      <trkpt lat="47.85745" lon="-3.77917">
        <ele>50.2</ele>
        <time>2021-08-12T12:54:13Z</time>
      </trkpt>
      <trkpt lat="47.85746" lon="-3.77913">
        <ele>50.4</ele>
        <time>2021-08-12T12:54:14Z</time>
      </trkpt>
      <trkpt lat="47.85747" lon="-3.77908">
        <ele>50.6</ele>
        <time>2021-08-12T12:54:15Z</time>
      </trkpt>
      <trkpt lat="47.85748" lon="-3.77904">
        <ele>50.6</ele>
        <time>2021-08-12T12:54:16Z</time>
      </trkpt>
      <trkpt lat="47.85749" lon="-3.779">
        <ele>50.8</ele>
        <time>2021-08-12T12:54:17Z</time>
      </trkpt>
      <trkpt lat="47.8575" lon="-3.77896">
        <ele>51</ele>
        <time>2021-08-12T12:54:18Z</time>
      </trkpt>
      <trkpt lat="47.85751" lon="-3.77891">
        <ele>51</ele>
        <time>2021-08-12T12:54:19Z</time>
      </trkpt>
      <trkpt lat="47.85752" lon="-3.77886">
        <ele>51</ele>
        <time>2021-08-12T12:54:20Z</time>
      </trkpt>
      <trkpt lat="47.85754" lon="-3.77877">
        <ele>51.2</ele>
        <time>2021-08-12T12:54:22Z</time>
      </trkpt>
      <trkpt lat="47.85755" lon="-3.77872">
        <ele>51.2</ele>
        <time>2021-08-12T12:54:23Z</time>
      </trkpt>
      <trkpt lat="47.85756" lon="-3.77867">
        <ele>51.4</ele>
        <time>2021-08-12T12:54:24Z</time>
      </trkpt>
      <trkpt lat="47.85757" lon="-3.77862">
        <ele>51.4</ele>
        <time>2021-08-12T12:54:25Z</time>
      </trkpt>
      <trkpt lat="47.85757" lon="-3.77857">
        <ele>51.4</ele>
        <time>2021-08-12T12:54:26Z</time>
      </trkpt>
      <trkpt lat="47.85758" lon="-3.77852">
        <ele>51.4</ele>
        <time>2021-08-12T12:54:27Z</time>
      </trkpt>
      <trkpt lat="47.85759" lon="-3.77848">
        <ele>51.6</ele>
        <time>2021-08-12T12:54:28Z</time>
      </trkpt>
      <trkpt lat="47.85759" lon="-3.77843">
        <ele>51.6</ele>
        <time>2021-08-12T12:54:29Z</time>
      </trkpt>
      <trkpt lat="47.8576" lon="-3.77838">
        <ele>51.6</ele>
        <time>2021-08-12T12:54:30Z</time>
      </trkpt>
      <trkpt lat="47.85761" lon="-3.77833">
        <ele>51.8</ele>
        <time>2021-08-12T12:54:31Z</time>
      </trkpt>
      <trkpt lat="47.85761" lon="-3.77829">
        <ele>52</ele>
        <time>2021-08-12T12:54:32Z</time>
      </trkpt>
      <trkpt lat="47.85762" lon="-3.77824">
        <ele>52</ele>
        <time>2021-08-12T12:54:33Z</time>
      </trkpt>
      <trkpt lat="47.85762" lon="-3.7782">
        <ele>52.2</ele>
        <time>2021-08-12T12:54:34Z</time>
      </trkpt>
      <trkpt lat="47.85762" lon="-3.77815">
        <ele>52.4</ele>
        <time>2021-08-12T12:54:35Z</time>
      </trkpt>
      <trkpt lat="47.85762" lon="-3.77811">
        <ele>52.4</ele>
        <time>2021-08-12T12:54:36Z</time>
      </trkpt>
      <trkpt lat="47.85762" lon="-3.77806">
        <ele>52.6</ele>
        <time>2021-08-12T12:54:37Z</time>
      </trkpt>
      <trkpt lat="47.85762" lon="-3.77802">
        <ele>52.6</ele>
        <time>2021-08-12T12:54:38Z</time>
      </trkpt>
      <trkpt lat="47.85762" lon="-3.77797">
        <ele>52.8</ele>
        <time>2021-08-12T12:54:39Z</time>
      </trkpt>
      <trkpt lat="47.85762" lon="-3.77793">
        <ele>52.8</ele>
        <time>2021-08-12T12:54:40Z</time>
      </trkpt>
      <trkpt lat="47.85762" lon="-3.77788">
        <ele>52.8</ele>
        <time>2021-08-12T12:54:41Z</time>
      </trkpt>
      <trkpt lat="47.85762" lon="-3.77784">
        <ele>52.8</ele>
        <time>2021-08-12T12:54:42Z</time>
      </trkpt>
      <trkpt lat="47.85761" lon="-3.77774">
        <ele>52.8</ele>
        <time>2021-08-12T12:54:44Z</time>
      </trkpt>
      <trkpt lat="47.85761" lon="-3.77769">
        <ele>52.8</ele>
        <time>2021-08-12T12:54:45Z</time>
      </trkpt>
      <trkpt lat="47.8576" lon="-3.77765">
        <ele>52.8</ele>
        <time>2021-08-12T12:54:46Z</time>
      </trkpt>
      <trkpt lat="47.8576" lon="-3.7776">
        <ele>52.8</ele>
        <time>2021-08-12T12:54:47Z</time>
      </trkpt>
      <trkpt lat="47.85759" lon="-3.77755">
        <ele>52.8</ele>
        <time>2021-08-12T12:54:48Z</time>
      </trkpt>
      <trkpt lat="47.85758" lon="-3.7775">
        <ele>53</ele>
        <time>2021-08-12T12:54:49Z</time>
      </trkpt>
      <trkpt lat="47.85757" lon="-3.77746">
        <ele>53</ele>
        <time>2021-08-12T12:54:50Z</time>
      </trkpt>
      <trkpt lat="47.85756" lon="-3.77741">
        <ele>53</ele>
        <time>2021-08-12T12:54:51Z</time>
      </trkpt>
      <trkpt lat="47.85756" lon="-3.77737">
        <ele>53</ele>
        <time>2021-08-12T12:54:52Z</time>
      </trkpt>
      <trkpt lat="47.85755" lon="-3.77732">
        <ele>53.4</ele>
        <time>2021-08-12T12:54:53Z</time>
      </trkpt>
      <trkpt lat="47.85752" lon="-3.77723">
        <ele>53.6</ele>
        <time>2021-08-12T12:54:55Z</time>
      </trkpt>
      <trkpt lat="47.85751" lon="-3.77719">
        <ele>53.8</ele>
        <time>2021-08-12T12:54:56Z</time>
      </trkpt>
      <trkpt lat="47.8575" lon="-3.77714">
        <ele>53.8</ele>
        <time>2021-08-12T12:54:57Z</time>
      </trkpt>
      <trkpt lat="47.85749" lon="-3.77709">
        <ele>53.8</ele>
        <time>2021-08-12T12:54:58Z</time>
      </trkpt>
      <trkpt lat="47.85748" lon="-3.77705">
        <ele>54</ele>
        <time>2021-08-12T12:54:59Z</time>
      </trkpt>
      <trkpt lat="47.85746" lon="-3.777">
        <ele>54</ele>
        <time>2021-08-12T12:55:00Z</time>
      </trkpt>
      <trkpt lat="47.85745" lon="-3.77695">
        <ele>54.2</ele>
        <time>2021-08-12T12:55:01Z</time>
      </trkpt>
      <trkpt lat="47.85744" lon="-3.77691">
        <ele>54.2</ele>
        <time>2021-08-12T12:55:02Z</time>
      </trkpt>
      <trkpt lat="47.85743" lon="-3.77686">
        <ele>54.2</ele>
        <time>2021-08-12T12:55:03Z</time>
      </trkpt>
      <trkpt lat="47.85742" lon="-3.77682">
        <ele>54.4</ele>
        <time>2021-08-12T12:55:04Z</time>
      </trkpt>
      <trkpt lat="47.85741" lon="-3.77678">
        <ele>54.4</ele>
        <time>2021-08-12T12:55:05Z</time>
      </trkpt>
      <trkpt lat="47.85739" lon="-3.77674">
        <ele>54.4</ele>
        <time>2021-08-12T12:55:06Z</time>
      </trkpt>
      <trkpt lat="47.85738" lon="-3.77669">
        <ele>54.4</ele>
        <time>2021-08-12T12:55:07Z</time>
      </trkpt>
      <trkpt lat="47.85737" lon="-3.77665">
        <ele>54.4</ele>
        <time>2021-08-12T12:55:08Z</time>
      </trkpt>
      <trkpt lat="47.85736" lon="-3.77661">
        <ele>54.4</ele>
        <time>2021-08-12T12:55:09Z</time>
      </trkpt>
      <trkpt lat="47.85735" lon="-3.77658">
        <ele>54.6</ele>
        <time>2021-08-12T12:55:10Z</time>
      </trkpt>
      <trkpt lat="47.85734" lon="-3.77654">
        <ele>54.6</ele>
        <time>2021-08-12T12:55:11Z</time>
      </trkpt>
      <trkpt lat="47.85733" lon="-3.7765">
        <ele>54.6</ele>
        <time>2021-08-12T12:55:12Z</time>
      </trkpt>
      <trkpt lat="47.85732" lon="-3.77647">
        <ele>54.6</ele>
        <time>2021-08-12T12:55:13Z</time>
      </trkpt>
      <trkpt lat="47.85731" lon="-3.77644">
        <ele>54.6</ele>
        <time>2021-08-12T12:55:14Z</time>
      </trkpt>
      <trkpt lat="47.85729" lon="-3.77642">
        <ele>54.6</ele>
        <time>2021-08-12T12:55:15Z</time>
      </trkpt>
      <trkpt lat="47.85726" lon="-3.77639">
        <ele>54.6</ele>
        <time>2021-08-12T12:55:17Z</time>
      </trkpt>
      <trkpt lat="47.85725" lon="-3.77639">
        <ele>54.6</ele>
        <time>2021-08-12T12:55:18Z</time>
      </trkpt>
      <trkpt lat="47.85724" lon="-3.7764">
        <ele>54.6</ele>
        <time>2021-08-12T12:55:19Z</time>
      </trkpt>
      <trkpt lat="47.85723" lon="-3.77641">
        <ele>54.6</ele>
        <time>2021-08-12T12:55:20Z</time>
      </trkpt>
      <trkpt lat="47.85724" lon="-3.77643">
        <ele>54.6</ele>
        <time>2021-08-12T12:55:21Z</time>
      </trkpt>
      <trkpt lat="47.85724" lon="-3.77642">
        <ele>54.4</ele>
        <time>2021-08-12T12:55:22Z</time>
      </trkpt>
      <trkpt lat="47.85724" lon="-3.77643">
        <ele>54.4</ele>
        <time>2021-08-12T12:55:23Z</time>
      </trkpt>
      <trkpt lat="47.85725" lon="-3.77642">
        <ele>54.4</ele>
        <time>2021-08-12T12:55:32Z</time>
      </trkpt>
      <trkpt lat="47.85726" lon="-3.77642">
        <ele>54.4</ele>
        <time>2021-08-12T12:55:33Z</time>
      </trkpt>
      <trkpt lat="47.85726" lon="-3.77642">
        <ele>54.4</ele>
        <time>2021-08-12T12:55:34Z</time>
      </trkpt>
      <trkpt lat="47.85727" lon="-3.77638">
        <ele>54.4</ele>
        <time>2021-08-12T12:57:50Z</time>
      </trkpt>
      <trkpt lat="47.8573" lon="-3.77636">
        <ele>54.2</ele>
        <time>2021-08-12T12:57:52Z</time>
      </trkpt>
      <trkpt lat="47.85731" lon="-3.77634">
        <ele>54.2</ele>
        <time>2021-08-12T12:57:53Z</time>
      </trkpt>
      <trkpt lat="47.8573" lon="-3.7763">
        <ele>54.2</ele>
        <time>2021-08-12T12:57:54Z</time>
      </trkpt>
      <trkpt lat="47.85729" lon="-3.77627">
        <ele>54.2</ele>
        <time>2021-08-12T12:57:55Z</time>
      </trkpt>
      <trkpt lat="47.85729" lon="-3.77623">
        <ele>54.2</ele>
        <time>2021-08-12T12:57:56Z</time>
      </trkpt>
      <trkpt lat="47.85727" lon="-3.77619">
        <ele>54.2</ele>
        <time>2021-08-12T12:57:57Z</time>
      </trkpt>
      <trkpt lat="47.85724" lon="-3.77612">
        <ele>54.2</ele>
        <time>2021-08-12T12:57:59Z</time>
      </trkpt>
      <trkpt lat="47.85722" lon="-3.77609">
        <ele>54.2</ele>
        <time>2021-08-12T12:58:00Z</time>
      </trkpt>
      <trkpt lat="47.8572" lon="-3.77605">
        <ele>54</ele>
        <time>2021-08-12T12:58:01Z</time>
      </trkpt>
      <trkpt lat="47.8572" lon="-3.776">
        <ele>54</ele>
        <time>2021-08-12T12:58:02Z</time>
      </trkpt>
      <trkpt lat="47.8572" lon="-3.77596">
        <ele>54</ele>
        <time>2021-08-12T12:58:03Z</time>
      </trkpt>
      <trkpt lat="47.85722" lon="-3.77593">
        <ele>54</ele>
        <time>2021-08-12T12:58:04Z</time>
      </trkpt>
      <trkpt lat="47.85725" lon="-3.77591">
        <ele>54</ele>
        <time>2021-08-12T12:58:05Z</time>
      </trkpt>
      <trkpt lat="47.85728" lon="-3.77589">
        <ele>53.8</ele>
        <time>2021-08-12T12:58:06Z</time>
      </trkpt>
      <trkpt lat="47.85731" lon="-3.77586">
        <ele>53.8</ele>
        <time>2021-08-12T12:58:07Z</time>
      </trkpt>
      <trkpt lat="47.85734" lon="-3.77584">
        <ele>53.8</ele>
        <time>2021-08-12T12:58:08Z</time>
      </trkpt>
      <trkpt lat="47.85737" lon="-3.77581">
        <ele>53.8</ele>
        <time>2021-08-12T12:58:09Z</time>
      </trkpt>
      <trkpt lat="47.85741" lon="-3.77579">
        <ele>53.8</ele>
        <time>2021-08-12T12:58:10Z</time>
      </trkpt>
      <trkpt lat="47.85744" lon="-3.77576">
        <ele>53.8</ele>
        <time>2021-08-12T12:58:11Z</time>
      </trkpt>
      <trkpt lat="47.85748" lon="-3.77573">
        <ele>53.8</ele>
        <time>2021-08-12T12:58:12Z</time>
      </trkpt>
      <trkpt lat="47.85751" lon="-3.7757">
        <ele>53.6</ele>
        <time>2021-08-12T12:58:13Z</time>
      </trkpt>
      <trkpt lat="47.85755" lon="-3.77566">
        <ele>53.6</ele>
        <time>2021-08-12T12:58:14Z</time>
      </trkpt>
      <trkpt lat="47.85758" lon="-3.77563">
        <ele>53.6</ele>
        <time>2021-08-12T12:58:15Z</time>
      </trkpt>
      <trkpt lat="47.85762" lon="-3.77559">
        <ele>53.6</ele>
        <time>2021-08-12T12:58:16Z</time>
      </trkpt>
      <trkpt lat="47.85765" lon="-3.77556">
        <ele>53.6</ele>
        <time>2021-08-12T12:58:17Z</time>
      </trkpt>
      <trkpt lat="47.85769" lon="-3.77553">
        <ele>53.6</ele>
        <time>2021-08-12T12:58:18Z</time>
      </trkpt>
      <trkpt lat="47.85772" lon="-3.7755">
        <ele>53.6</ele>
        <time>2021-08-12T12:58:19Z</time>
      </trkpt>
      <trkpt lat="47.85779" lon="-3.77544">
        <ele>53.8</ele>
        <time>2021-08-12T12:58:21Z</time>
      </trkpt>
      <trkpt lat="47.85782" lon="-3.77541">
        <ele>53.8</ele>
        <time>2021-08-12T12:58:22Z</time>
      </trkpt>
      <trkpt lat="47.85785" lon="-3.77538">
        <ele>53.8</ele>
        <time>2021-08-12T12:58:23Z</time>
      </trkpt>
      <trkpt lat="47.85788" lon="-3.77536">
        <ele>53.8</ele>
        <time>2021-08-12T12:58:24Z</time>
      </trkpt>
      <trkpt lat="47.85791" lon="-3.77533">
        <ele>53.8</ele>
        <time>2021-08-12T12:58:25Z</time>
      </trkpt>
      <trkpt lat="47.85794" lon="-3.7753">
        <ele>53.8</ele>
        <time>2021-08-12T12:58:26Z</time>
      </trkpt>
      <trkpt lat="47.85796" lon="-3.77527">
        <ele>53.8</ele>
        <time>2021-08-12T12:58:27Z</time>
      </trkpt>
      <trkpt lat="47.85797" lon="-3.77523">
        <ele>53.8</ele>
        <time>2021-08-12T12:58:28Z</time>
      </trkpt>
      <trkpt lat="47.85797" lon="-3.7752">
        <ele>53.8</ele>
        <time>2021-08-12T12:58:29Z</time>
      </trkpt>
      <trkpt lat="47.85796" lon="-3.77517">
        <ele>53.8</ele>
        <time>2021-08-12T12:58:30Z</time>
      </trkpt>
      <trkpt lat="47.85794" lon="-3.77512">
        <ele>53.8</ele>
        <time>2021-08-12T12:58:32Z</time>
      </trkpt>
      <trkpt lat="47.85793" lon="-3.7751">
        <ele>53.8</ele>
        <time>2021-08-12T12:58:33Z</time>
      </trkpt>
      <trkpt lat="47.85793" lon="-3.77509">
        <ele>53.8</ele>
        <time>2021-08-12T12:58:34Z</time>
      </trkpt>
      <trkpt lat="47.85793" lon="-3.77508">
        <ele>53.8</ele>
        <time>2021-08-12T12:58:35Z</time>
      </trkpt>
      <trkpt lat="47.85796" lon="-3.77501">
        <ele>54.4</ele>
        <time>2021-08-12T13:03:28Z</time>
      </trkpt>
      <trkpt lat="47.85798" lon="-3.77499">
        <ele>54.4</ele>
        <time>2021-08-12T13:03:29Z</time>
      </trkpt>
      <trkpt lat="47.858" lon="-3.77496">
        <ele>54.4</ele>
        <time>2021-08-12T13:03:30Z</time>
      </trkpt>
      <trkpt lat="47.85805" lon="-3.77487">
        <ele>54.4</ele>
        <time>2021-08-12T13:03:32Z</time>
      </trkpt>
      <trkpt lat="47.85808" lon="-3.77482">
        <ele>54.4</ele>
        <time>2021-08-12T13:03:33Z</time>
      </trkpt>
      <trkpt lat="47.85811" lon="-3.77476">
        <ele>54.4</ele>
        <time>2021-08-12T13:03:34Z</time>
      </trkpt>
      <trkpt lat="47.85814" lon="-3.77469">
        <ele>54.2</ele>
        <time>2021-08-12T13:03:35Z</time>
      </trkpt>
      <trkpt lat="47.85817" lon="-3.77462">
        <ele>54.2</ele>
        <time>2021-08-12T13:03:36Z</time>
      </trkpt>
      <trkpt lat="47.85819" lon="-3.77454">
        <ele>54.2</ele>
        <time>2021-08-12T13:03:37Z</time>
      </trkpt>
      <trkpt lat="47.85821" lon="-3.77445">
        <ele>53.8</ele>
        <time>2021-08-12T13:03:38Z</time>
      </trkpt>
      <trkpt lat="47.85822" lon="-3.77425">
        <ele>53</ele>
        <time>2021-08-12T13:03:40Z</time>
      </trkpt>
      <trkpt lat="47.85823" lon="-3.77414">
        <ele>52.6</ele>
        <time>2021-08-12T13:03:41Z</time>
      </trkpt>
      <trkpt lat="47.85824" lon="-3.77404">
        <ele>52.2</ele>
        <time>2021-08-12T13:03:42Z</time>
      </trkpt>
      <trkpt lat="47.85824" lon="-3.77393">
        <ele>51.8</ele>
        <time>2021-08-12T13:03:43Z</time>
      </trkpt>
      <trkpt lat="47.85825" lon="-3.77382">
        <ele>51.6</ele>
        <time>2021-08-12T13:03:44Z</time>
      </trkpt>
      <trkpt lat="47.85826" lon="-3.77371">
        <ele>51</ele>
        <time>2021-08-12T13:03:45Z</time>
      </trkpt>
      <trkpt lat="47.85827" lon="-3.77361">
        <ele>50.2</ele>
        <time>2021-08-12T13:03:46Z</time>
      </trkpt>
      <trkpt lat="47.85829" lon="-3.77352">
        <ele>49.6</ele>
        <time>2021-08-12T13:03:47Z</time>
      </trkpt>
      <trkpt lat="47.85831" lon="-3.77342">
        <ele>49</ele>
        <time>2021-08-12T13:03:48Z</time>
      </trkpt>
      <trkpt lat="47.85833" lon="-3.77333">
        <ele>48.4</ele>
        <time>2021-08-12T13:03:49Z</time>
      </trkpt>
      <trkpt lat="47.85837" lon="-3.77316">
        <ele>47.6</ele>
        <time>2021-08-12T13:03:51Z</time>
      </trkpt>
      <trkpt lat="47.85839" lon="-3.77307">
        <ele>47.6</ele>
        <time>2021-08-12T13:03:52Z</time>
      </trkpt>
      <trkpt lat="47.85842" lon="-3.77299">
        <ele>47.4</ele>
        <time>2021-08-12T13:03:53Z</time>
      </trkpt>
      <trkpt lat="47.85844" lon="-3.77292">
        <ele>47.4</ele>
        <time>2021-08-12T13:03:54Z</time>
      </trkpt>
      <trkpt lat="47.85847" lon="-3.77285">
        <ele>47.4</ele>
        <time>2021-08-12T13:03:55Z</time>
      </trkpt>
      <trkpt lat="47.8585" lon="-3.77278">
        <ele>47.4</ele>
        <time>2021-08-12T13:03:56Z</time>
      </trkpt>
      <trkpt lat="47.85852" lon="-3.77272">
        <ele>47.4</ele>
        <time>2021-08-12T13:03:57Z</time>
      </trkpt>
      <trkpt lat="47.85854" lon="-3.77265">
        <ele>47.4</ele>
        <time>2021-08-12T13:03:58Z</time>
      </trkpt>
      <trkpt lat="47.85855" lon="-3.77258">
        <ele>47.4</ele>
        <time>2021-08-12T13:03:59Z</time>
      </trkpt>
      <trkpt lat="47.85856" lon="-3.7725">
        <ele>47.4</ele>
        <time>2021-08-12T13:04:00Z</time>
      </trkpt>
      <trkpt lat="47.85857" lon="-3.77243">
        <ele>47.4</ele>
        <time>2021-08-12T13:04:01Z</time>
      </trkpt>
      <trkpt lat="47.85858" lon="-3.77236">
        <ele>47.6</ele>
        <time>2021-08-12T13:04:02Z</time>
      </trkpt>
      <trkpt lat="47.85859" lon="-3.77228">
        <ele>48.4</ele>
        <time>2021-08-12T13:04:03Z</time>
      </trkpt>
      <trkpt lat="47.8586" lon="-3.77221">
        <ele>48.6</ele>
        <time>2021-08-12T13:04:04Z</time>
      </trkpt>
      <trkpt lat="47.85861" lon="-3.77213">
        <ele>48.8</ele>
        <time>2021-08-12T13:04:05Z</time>
      </trkpt>
      <trkpt lat="47.85862" lon="-3.77206">
        <ele>49</ele>
        <time>2021-08-12T13:04:06Z</time>
      </trkpt>
      <trkpt lat="47.85864" lon="-3.77199">
        <ele>49</ele>
        <time>2021-08-12T13:04:07Z</time>
      </trkpt>
      <trkpt lat="47.85866" lon="-3.77192">
        <ele>49.2</ele>
        <time>2021-08-12T13:04:08Z</time>
      </trkpt>
      <trkpt lat="47.85868" lon="-3.77186">
        <ele>49.2</ele>
        <time>2021-08-12T13:04:09Z</time>
      </trkpt>
      <trkpt lat="47.8587" lon="-3.77179">
        <ele>49.2</ele>
        <time>2021-08-12T13:04:10Z</time>
      </trkpt>
      <trkpt lat="47.85873" lon="-3.77172">
        <ele>49.2</ele>
        <time>2021-08-12T13:04:11Z</time>
      </trkpt>
      <trkpt lat="47.85877" lon="-3.7716">
        <ele>49.2</ele>
        <time>2021-08-12T13:04:13Z</time>
      </trkpt>
      <trkpt lat="47.85879" lon="-3.77154">
        <ele>49.2</ele>
        <time>2021-08-12T13:04:14Z</time>
      </trkpt>
      <trkpt lat="47.85881" lon="-3.77149">
        <ele>49.2</ele>
        <time>2021-08-12T13:04:15Z</time>
      </trkpt>
      <trkpt lat="47.85883" lon="-3.77144">
        <ele>49.2</ele>
        <time>2021-08-12T13:04:16Z</time>
      </trkpt>
      <trkpt lat="47.85886" lon="-3.77139">
        <ele>49.2</ele>
        <time>2021-08-12T13:04:17Z</time>
      </trkpt>
      <trkpt lat="47.85889" lon="-3.77133">
        <ele>49</ele>
        <time>2021-08-12T13:04:18Z</time>
      </trkpt>
      <trkpt lat="47.85891" lon="-3.77128">
        <ele>48.6</ele>
        <time>2021-08-12T13:04:19Z</time>
      </trkpt>
      <trkpt lat="47.85893" lon="-3.77122">
        <ele>48.2</ele>
        <time>2021-08-12T13:04:20Z</time>
      </trkpt>
      <trkpt lat="47.85896" lon="-3.77117">
        <ele>48</ele>
        <time>2021-08-12T13:04:21Z</time>
      </trkpt>
      <trkpt lat="47.85898" lon="-3.77111">
        <ele>47.8</ele>
        <time>2021-08-12T13:04:22Z</time>
      </trkpt>
      <trkpt lat="47.85902" lon="-3.77099">
        <ele>47.6</ele>
        <time>2021-08-12T13:04:24Z</time>
      </trkpt>
      <trkpt lat="47.85904" lon="-3.77093">
        <ele>47.6</ele>
        <time>2021-08-12T13:04:25Z</time>
      </trkpt>
      <trkpt lat="47.85905" lon="-3.77087">
        <ele>47.6</ele>
        <time>2021-08-12T13:04:26Z</time>
      </trkpt>
      <trkpt lat="47.85906" lon="-3.7708">
        <ele>47.4</ele>
        <time>2021-08-12T13:04:27Z</time>
      </trkpt>
      <trkpt lat="47.85906" lon="-3.77074">
        <ele>47.2</ele>
        <time>2021-08-12T13:04:28Z</time>
      </trkpt>
      <trkpt lat="47.85905" lon="-3.77068">
        <ele>46.8</ele>
        <time>2021-08-12T13:04:29Z</time>
      </trkpt>
      <trkpt lat="47.85904" lon="-3.77062">
        <ele>46.6</ele>
        <time>2021-08-12T13:04:30Z</time>
      </trkpt>
      <trkpt lat="47.85903" lon="-3.77057">
        <ele>46.4</ele>
        <time>2021-08-12T13:04:31Z</time>
      </trkpt>
      <trkpt lat="47.85903" lon="-3.77053">
        <ele>46.2</ele>
        <time>2021-08-12T13:04:32Z</time>
      </trkpt>
      <trkpt lat="47.85902" lon="-3.77049">
        <ele>46.2</ele>
        <time>2021-08-12T13:04:33Z</time>
      </trkpt>
      <trkpt lat="47.859" lon="-3.77042">
        <ele>46.2</ele>
        <time>2021-08-12T13:04:35Z</time>
      </trkpt>
      <trkpt lat="47.85899" lon="-3.77039">
        <ele>46.2</ele>
        <time>2021-08-12T13:04:36Z</time>
      </trkpt>
      <trkpt lat="47.85899" lon="-3.77037">
        <ele>46.2</ele>
        <time>2021-08-12T13:04:37Z</time>
      </trkpt>
      <trkpt lat="47.85898" lon="-3.77035">
        <ele>46.2</ele>
        <time>2021-08-12T13:04:38Z</time>
      </trkpt>
      <trkpt lat="47.85897" lon="-3.77034">
        <ele>46.2</ele>
        <time>2021-08-12T13:04:39Z</time>
      </trkpt>
      <trkpt lat="47.85896" lon="-3.77033">
        <ele>46.2</ele>
        <time>2021-08-12T13:04:40Z</time>
      </trkpt>
      <trkpt lat="47.85895" lon="-3.77032">
        <ele>46.4</ele>
        <time>2021-08-12T13:04:41Z</time>
      </trkpt>
      <trkpt lat="47.85894" lon="-3.77032">
        <ele>46.4</ele>
        <time>2021-08-12T13:04:42Z</time>
      </trkpt>
      <trkpt lat="47.85893" lon="-3.77031">
        <ele>46.6</ele>
        <time>2021-08-12T13:04:43Z</time>
      </trkpt>
      <trkpt lat="47.85892" lon="-3.77029">
        <ele>46.8</ele>
        <time>2021-08-12T13:04:44Z</time>
      </trkpt>
      <trkpt lat="47.85891" lon="-3.77026">
        <ele>47</ele>
        <time>2021-08-12T13:04:46Z</time>
      </trkpt>
      <trkpt lat="47.85891" lon="-3.77024">
        <ele>47</ele>
        <time>2021-08-12T13:04:47Z</time>
      </trkpt>
      <trkpt lat="47.8589" lon="-3.77023">
        <ele>47.2</ele>
        <time>2021-08-12T13:04:48Z</time>
      </trkpt>
      <trkpt lat="47.8589" lon="-3.77021">
        <ele>47.2</ele>
        <time>2021-08-12T13:04:49Z</time>
      </trkpt>
      <trkpt lat="47.85889" lon="-3.77019">
        <ele>47.2</ele>
        <time>2021-08-12T13:04:50Z</time>
      </trkpt>
      <trkpt lat="47.85889" lon="-3.77017">
        <ele>47.2</ele>
        <time>2021-08-12T13:04:51Z</time>
      </trkpt>
      <trkpt lat="47.85888" lon="-3.77015">
        <ele>47.4</ele>
        <time>2021-08-12T13:04:52Z</time>
      </trkpt>
      <trkpt lat="47.85888" lon="-3.77013">
        <ele>47.4</ele>
        <time>2021-08-12T13:04:53Z</time>
      </trkpt>
      <trkpt lat="47.85888" lon="-3.7701">
        <ele>47.6</ele>
        <time>2021-08-12T13:04:54Z</time>
      </trkpt>
      <trkpt lat="47.85888" lon="-3.77007">
        <ele>47.6</ele>
        <time>2021-08-12T13:04:55Z</time>
      </trkpt>
      <trkpt lat="47.85887" lon="-3.77001">
        <ele>48</ele>
        <time>2021-08-12T13:04:57Z</time>
      </trkpt>
      <trkpt lat="47.85887" lon="-3.76997">
        <ele>48.2</ele>
        <time>2021-08-12T13:04:58Z</time>
      </trkpt>
      <trkpt lat="47.85886" lon="-3.76995">
        <ele>48.4</ele>
        <time>2021-08-12T13:04:59Z</time>
      </trkpt>
      <trkpt lat="47.85886" lon="-3.76992">
        <ele>48.4</ele>
        <time>2021-08-12T13:05:00Z</time>
      </trkpt>
      <trkpt lat="47.85887" lon="-3.7699">
        <ele>48.6</ele>
        <time>2021-08-12T13:05:01Z</time>
      </trkpt>
      <trkpt lat="47.85887" lon="-3.76987">
        <ele>48.6</ele>
        <time>2021-08-12T13:05:02Z</time>
      </trkpt>
      <trkpt lat="47.85887" lon="-3.76984">
        <ele>48.6</ele>
        <time>2021-08-12T13:05:03Z</time>
      </trkpt>
      <trkpt lat="47.85887" lon="-3.76981">
        <ele>48.6</ele>
        <time>2021-08-12T13:05:04Z</time>
      </trkpt>
      <trkpt lat="47.85887" lon="-3.76978">
        <ele>48.6</ele>
        <time>2021-08-12T13:05:05Z</time>
      </trkpt>
      <trkpt lat="47.85887" lon="-3.76975">
        <ele>48.6</ele>
        <time>2021-08-12T13:05:06Z</time>
      </trkpt>
      <trkpt lat="47.85886" lon="-3.76968">
        <ele>48.6</ele>
        <time>2021-08-12T13:05:08Z</time>
      </trkpt>
      <trkpt lat="47.85886" lon="-3.76964">
        <ele>48.8</ele>
        <time>2021-08-12T13:05:09Z</time>
      </trkpt>
      <trkpt lat="47.85886" lon="-3.76961">
        <ele>48.8</ele>
        <time>2021-08-12T13:05:10Z</time>
      </trkpt>
      <trkpt lat="47.85886" lon="-3.76957">
        <ele>48.8</ele>
        <time>2021-08-12T13:05:11Z</time>
      </trkpt>
      <trkpt lat="47.85887" lon="-3.76954">
        <ele>48.8</ele>
        <time>2021-08-12T13:05:12Z</time>
      </trkpt>
      <trkpt lat="47.85888" lon="-3.76951">
        <ele>48.8</ele>
        <time>2021-08-12T13:05:13Z</time>
      </trkpt>
      <trkpt lat="47.85888" lon="-3.76948">
        <ele>48.8</ele>
        <time>2021-08-12T13:05:14Z</time>
      </trkpt>
      <trkpt lat="47.85888" lon="-3.76945">
        <ele>48.8</ele>
        <time>2021-08-12T13:05:15Z</time>
      </trkpt>
      <trkpt lat="47.85888" lon="-3.76943">
        <ele>48.8</ele>
        <time>2021-08-12T13:05:16Z</time>
      </trkpt>
      <trkpt lat="47.85888" lon="-3.76939">
        <ele>48.8</ele>
        <time>2021-08-12T13:05:17Z</time>
      </trkpt>
      <trkpt lat="47.85888" lon="-3.76934">
        <ele>48.8</ele>
        <time>2021-08-12T13:05:19Z</time>
      </trkpt>
      <trkpt lat="47.85887" lon="-3.76931">
        <ele>48.8</ele>
        <time>2021-08-12T13:05:20Z</time>
      </trkpt>
      <trkpt lat="47.85887" lon="-3.76929">
        <ele>48.8</ele>
        <time>2021-08-12T13:05:21Z</time>
      </trkpt>
      <trkpt lat="47.85887" lon="-3.76928">
        <ele>48.8</ele>
        <time>2021-08-12T13:05:22Z</time>
      </trkpt>
      <trkpt lat="47.85888" lon="-3.76916">
        <ele>47.6</ele>
        <time>2021-08-12T13:06:27Z</time>
      </trkpt>
      <trkpt lat="47.85889" lon="-3.76915">
        <ele>47.6</ele>
        <time>2021-08-12T13:06:28Z</time>
      </trkpt>
      <trkpt lat="47.8589" lon="-3.76912">
        <ele>47.6</ele>
        <time>2021-08-12T13:06:29Z</time>
      </trkpt>
      <trkpt lat="47.8589" lon="-3.76909">
        <ele>47.6</ele>
        <time>2021-08-12T13:06:30Z</time>
      </trkpt>
      <trkpt lat="47.85892" lon="-3.76904">
        <ele>47.4</ele>
        <time>2021-08-12T13:06:32Z</time>
      </trkpt>
      <trkpt lat="47.85893" lon="-3.76901">
        <ele>47.4</ele>
        <time>2021-08-12T13:06:33Z</time>
      </trkpt>
      <trkpt lat="47.85893" lon="-3.76898">
        <ele>47.2</ele>
        <time>2021-08-12T13:06:34Z</time>
      </trkpt>
      <trkpt lat="47.85894" lon="-3.76896">
        <ele>47.2</ele>
        <time>2021-08-12T13:06:35Z</time>
      </trkpt>
      <trkpt lat="47.85894" lon="-3.76893">
        <ele>47</ele>
        <time>2021-08-12T13:06:36Z</time>
      </trkpt>
      <trkpt lat="47.85894" lon="-3.76892">
        <ele>46.6</ele>
        <time>2021-08-12T13:06:37Z</time>
      </trkpt>
      <trkpt lat="47.85895" lon="-3.76889">
        <ele>45.8</ele>
        <time>2021-08-12T13:06:39Z</time>
      </trkpt>
      <trkpt lat="47.85895" lon="-3.76888">
        <ele>45.4</ele>
        <time>2021-08-12T13:06:40Z</time>
      </trkpt>
      <trkpt lat="47.85897" lon="-3.76883">
        <ele>45</ele>
        <time>2021-08-12T13:06:42Z</time>
      </trkpt>
      <trkpt lat="47.85895" lon="-3.76876">
        <ele>44.8</ele>
        <time>2021-08-12T13:06:44Z</time>
      </trkpt>
      <trkpt lat="47.85896" lon="-3.76872">
        <ele>44.8</ele>
        <time>2021-08-12T13:06:45Z</time>
      </trkpt>
      <trkpt lat="47.85897" lon="-3.76869">
        <ele>44.8</ele>
        <time>2021-08-12T13:06:46Z</time>
      </trkpt>
      <trkpt lat="47.85897" lon="-3.76864">
        <ele>44.8</ele>
        <time>2021-08-12T13:06:47Z</time>
      </trkpt>
      <trkpt lat="47.85898" lon="-3.76859">
        <ele>44.8</ele>
        <time>2021-08-12T13:06:48Z</time>
      </trkpt>
      <trkpt lat="47.85898" lon="-3.76852">
        <ele>44.6</ele>
        <time>2021-08-12T13:06:49Z</time>
      </trkpt>
      <trkpt lat="47.85898" lon="-3.76847">
        <ele>44.6</ele>
        <time>2021-08-12T13:06:50Z</time>
      </trkpt>
      <trkpt lat="47.85899" lon="-3.76841">
        <ele>44.4</ele>
        <time>2021-08-12T13:06:51Z</time>
      </trkpt>
      <trkpt lat="47.85901" lon="-3.76836">
        <ele>44.2</ele>
        <time>2021-08-12T13:06:52Z</time>
      </trkpt>
      <trkpt lat="47.85903" lon="-3.7683">
        <ele>43.8</ele>
        <time>2021-08-12T13:06:53Z</time>
      </trkpt>
      <trkpt lat="47.85904" lon="-3.76823">
        <ele>43.6</ele>
        <time>2021-08-12T13:06:54Z</time>
      </trkpt>
      <trkpt lat="47.85905" lon="-3.76816">
        <ele>43.4</ele>
        <time>2021-08-12T13:06:55Z</time>
      </trkpt>
      <trkpt lat="47.85905" lon="-3.76809">
        <ele>43.4</ele>
        <time>2021-08-12T13:06:56Z</time>
      </trkpt>
      <trkpt lat="47.85906" lon="-3.76803">
        <ele>43.2</ele>
        <time>2021-08-12T13:06:57Z</time>
      </trkpt>
      <trkpt lat="47.85907" lon="-3.76796">
        <ele>43.2</ele>
        <time>2021-08-12T13:06:58Z</time>
      </trkpt>
      <trkpt lat="47.85908" lon="-3.7679">
        <ele>43.2</ele>
        <time>2021-08-12T13:06:59Z</time>
      </trkpt>
      <trkpt lat="47.85909" lon="-3.76779">
        <ele>43.2</ele>
        <time>2021-08-12T13:07:01Z</time>
      </trkpt>
      <trkpt lat="47.85909" lon="-3.76774">
        <ele>43.2</ele>
        <time>2021-08-12T13:07:02Z</time>
      </trkpt>
      <trkpt lat="47.8591" lon="-3.76769">
        <ele>43.2</ele>
        <time>2021-08-12T13:07:03Z</time>
      </trkpt>
      <trkpt lat="47.8591" lon="-3.76764">
        <ele>43.2</ele>
        <time>2021-08-12T13:07:04Z</time>
      </trkpt>
      <trkpt lat="47.85911" lon="-3.76759">
        <ele>43.2</ele>
        <time>2021-08-12T13:07:05Z</time>
      </trkpt>
      <trkpt lat="47.85912" lon="-3.76754">
        <ele>43.2</ele>
        <time>2021-08-12T13:07:06Z</time>
      </trkpt>
      <trkpt lat="47.85912" lon="-3.7675">
        <ele>43.2</ele>
        <time>2021-08-12T13:07:07Z</time>
      </trkpt>
      <trkpt lat="47.85912" lon="-3.76747">
        <ele>43.2</ele>
        <time>2021-08-12T13:07:08Z</time>
      </trkpt>
      <trkpt lat="47.85912" lon="-3.76743">
        <ele>43.4</ele>
        <time>2021-08-12T13:07:09Z</time>
      </trkpt>
      <trkpt lat="47.85912" lon="-3.76739">
        <ele>43.4</ele>
        <time>2021-08-12T13:07:10Z</time>
      </trkpt>
      <trkpt lat="47.85912" lon="-3.76733">
        <ele>43.8</ele>
        <time>2021-08-12T13:07:12Z</time>
      </trkpt>
      <trkpt lat="47.85912" lon="-3.7673">
        <ele>44</ele>
        <time>2021-08-12T13:07:13Z</time>
      </trkpt>
      <trkpt lat="47.85912" lon="-3.76726">
        <ele>44.2</ele>
        <time>2021-08-12T13:07:14Z</time>
      </trkpt>
      <trkpt lat="47.85912" lon="-3.76722">
        <ele>44.4</ele>
        <time>2021-08-12T13:07:15Z</time>
      </trkpt>
      <trkpt lat="47.85912" lon="-3.76719">
        <ele>44.6</ele>
        <time>2021-08-12T13:07:16Z</time>
      </trkpt>
      <trkpt lat="47.85912" lon="-3.76715">
        <ele>44.8</ele>
        <time>2021-08-12T13:07:17Z</time>
      </trkpt>
      <trkpt lat="47.85911" lon="-3.76712">
        <ele>45.2</ele>
        <time>2021-08-12T13:07:18Z</time>
      </trkpt>
      <trkpt lat="47.85911" lon="-3.76709">
        <ele>45.4</ele>
        <time>2021-08-12T13:07:19Z</time>
      </trkpt>
      <trkpt lat="47.85912" lon="-3.76706">
        <ele>45.6</ele>
        <time>2021-08-12T13:07:20Z</time>
      </trkpt>
      <trkpt lat="47.85913" lon="-3.76703">
        <ele>45.6</ele>
        <time>2021-08-12T13:07:21Z</time>
      </trkpt>
      <trkpt lat="47.85913" lon="-3.767">
        <ele>45.8</ele>
        <time>2021-08-12T13:07:22Z</time>
      </trkpt>
      <trkpt lat="47.85913" lon="-3.76697">
        <ele>46</ele>
        <time>2021-08-12T13:07:23Z</time>
      </trkpt>
      <trkpt lat="47.85913" lon="-3.76694">
        <ele>46</ele>
        <time>2021-08-12T13:07:24Z</time>
      </trkpt>
      <trkpt lat="47.85913" lon="-3.76689">
        <ele>46.2</ele>
        <time>2021-08-12T13:07:25Z</time>
      </trkpt>
      <trkpt lat="47.85913" lon="-3.76685">
        <ele>46.2</ele>
        <time>2021-08-12T13:07:26Z</time>
      </trkpt>
      <trkpt lat="47.85913" lon="-3.7668">
        <ele>46.2</ele>
        <time>2021-08-12T13:07:27Z</time>
      </trkpt>
      <trkpt lat="47.85912" lon="-3.76676">
        <ele>46.4</ele>
        <time>2021-08-12T13:07:28Z</time>
      </trkpt>
      <trkpt lat="47.85912" lon="-3.76671">
        <ele>46.4</ele>
        <time>2021-08-12T13:07:29Z</time>
      </trkpt>
      <trkpt lat="47.85912" lon="-3.76668">
        <ele>46.4</ele>
        <time>2021-08-12T13:07:30Z</time>
      </trkpt>
      <trkpt lat="47.85912" lon="-3.76664">
        <ele>46.4</ele>
        <time>2021-08-12T13:07:31Z</time>
      </trkpt>
      <trkpt lat="47.85912" lon="-3.76656">
        <ele>46.4</ele>
        <time>2021-08-12T13:07:33Z</time>
      </trkpt>
      <trkpt lat="47.85912" lon="-3.76651">
        <ele>46.2</ele>
        <time>2021-08-12T13:07:34Z</time>
      </trkpt>
      <trkpt lat="47.85912" lon="-3.76638">
        <ele>46</ele>
        <time>2021-08-12T13:07:36Z</time>
      </trkpt>
      <trkpt lat="47.85912" lon="-3.76628">
        <ele>46</ele>
        <time>2021-08-12T13:07:37Z</time>
      </trkpt>
      <trkpt lat="47.8591" lon="-3.76607">
        <ele>45.2</ele>
        <time>2021-08-12T13:07:39Z</time>
      </trkpt>
      <trkpt lat="47.85905" lon="-3.76584">
        <ele>44.6</ele>
        <time>2021-08-12T13:07:41Z</time>
      </trkpt>
      <trkpt lat="47.85903" lon="-3.76572">
        <ele>44.2</ele>
        <time>2021-08-12T13:07:42Z</time>
      </trkpt>
      <trkpt lat="47.85898" lon="-3.7655">
        <ele>43.6</ele>
        <time>2021-08-12T13:07:44Z</time>
      </trkpt>
      <trkpt lat="47.85895" lon="-3.76539">
        <ele>42.6</ele>
        <time>2021-08-12T13:07:45Z</time>
      </trkpt>
      <trkpt lat="47.8589" lon="-3.76518">
        <ele>41</ele>
        <time>2021-08-12T13:07:47Z</time>
      </trkpt>
      <trkpt lat="47.85887" lon="-3.76508">
        <ele>40.6</ele>
        <time>2021-08-12T13:07:48Z</time>
      </trkpt>
      <trkpt lat="47.85884" lon="-3.76499">
        <ele>40.2</ele>
        <time>2021-08-12T13:07:49Z</time>
      </trkpt>
      <trkpt lat="47.85882" lon="-3.76492">
        <ele>39.8</ele>
        <time>2021-08-12T13:07:50Z</time>
      </trkpt>
      <trkpt lat="47.85879" lon="-3.76478">
        <ele>39.6</ele>
        <time>2021-08-12T13:07:52Z</time>
      </trkpt>
      <trkpt lat="47.85878" lon="-3.7647">
        <ele>39.6</ele>
        <time>2021-08-12T13:07:53Z</time>
      </trkpt>
      <trkpt lat="47.85877" lon="-3.76464">
        <ele>39.4</ele>
        <time>2021-08-12T13:07:54Z</time>
      </trkpt>
      <trkpt lat="47.85875" lon="-3.76455">
        <ele>39.4</ele>
        <time>2021-08-12T13:07:56Z</time>
      </trkpt>
      <trkpt lat="47.85875" lon="-3.76452">
        <ele>39.4</ele>
        <time>2021-08-12T13:07:57Z</time>
      </trkpt>
      <trkpt lat="47.85875" lon="-3.76444">
        <ele>39.6</ele>
        <time>2021-08-12T13:07:59Z</time>
      </trkpt>
      <trkpt lat="47.85877" lon="-3.76439">
        <ele>39.8</ele>
        <time>2021-08-12T13:08:01Z</time>
      </trkpt>
      <trkpt lat="47.85879" lon="-3.76436">
        <ele>39.8</ele>
        <time>2021-08-12T13:08:02Z</time>
      </trkpt>
      <trkpt lat="47.85883" lon="-3.76431">
        <ele>39.8</ele>
        <time>2021-08-12T13:08:04Z</time>
      </trkpt>
      <trkpt lat="47.85886" lon="-3.76429">
        <ele>39.8</ele>
        <time>2021-08-12T13:08:05Z</time>
      </trkpt>
      <trkpt lat="47.8589" lon="-3.76424">
        <ele>39.6</ele>
        <time>2021-08-12T13:08:07Z</time>
      </trkpt>
      <trkpt lat="47.85893" lon="-3.76422">
        <ele>39.8</ele>
        <time>2021-08-12T13:08:08Z</time>
      </trkpt>
      <trkpt lat="47.85895" lon="-3.7642">
        <ele>39.8</ele>
        <time>2021-08-12T13:08:09Z</time>
      </trkpt>
      <trkpt lat="47.859" lon="-3.76414">
        <ele>39.8</ele>
        <time>2021-08-12T13:08:11Z</time>
      </trkpt>
      <trkpt lat="47.85902" lon="-3.76412">
        <ele>39.8</ele>
        <time>2021-08-12T13:08:12Z</time>
      </trkpt>
      <trkpt lat="47.85905" lon="-3.76409">
        <ele>39.6</ele>
        <time>2021-08-12T13:08:13Z</time>
      </trkpt>
      <trkpt lat="47.85908" lon="-3.76407">
        <ele>39.6</ele>
        <time>2021-08-12T13:08:14Z</time>
      </trkpt>
      <trkpt lat="47.85911" lon="-3.76404">
        <ele>39.4</ele>
        <time>2021-08-12T13:08:15Z</time>
      </trkpt>
      <trkpt lat="47.85914" lon="-3.76402">
        <ele>39.2</ele>
        <time>2021-08-12T13:08:16Z</time>
      </trkpt>
      <trkpt lat="47.85917" lon="-3.76399">
        <ele>39</ele>
        <time>2021-08-12T13:08:17Z</time>
      </trkpt>
      <trkpt lat="47.8592" lon="-3.76396">
        <ele>39</ele>
        <time>2021-08-12T13:08:18Z</time>
      </trkpt>
      <trkpt lat="47.85923" lon="-3.76394">
        <ele>39</ele>
        <time>2021-08-12T13:08:19Z</time>
      </trkpt>
      <trkpt lat="47.85925" lon="-3.76391">
        <ele>38.8</ele>
        <time>2021-08-12T13:08:20Z</time>
      </trkpt>
      <trkpt lat="47.85931" lon="-3.76386">
        <ele>38.8</ele>
        <time>2021-08-12T13:08:22Z</time>
      </trkpt>
      <trkpt lat="47.85935" lon="-3.76382">
        <ele>38.6</ele>
        <time>2021-08-12T13:08:23Z</time>
      </trkpt>
      <trkpt lat="47.85939" lon="-3.76379">
        <ele>38.4</ele>
        <time>2021-08-12T13:08:24Z</time>
      </trkpt>
      <trkpt lat="47.85943" lon="-3.76375">
        <ele>38.4</ele>
        <time>2021-08-12T13:08:25Z</time>
      </trkpt>
      <trkpt lat="47.85948" lon="-3.76371">
        <ele>38.2</ele>
        <time>2021-08-12T13:08:26Z</time>
      </trkpt>
      <trkpt lat="47.85952" lon="-3.76366">
        <ele>38.2</ele>
        <time>2021-08-12T13:08:27Z</time>
      </trkpt>
      <trkpt lat="47.85958" lon="-3.76361">
        <ele>38</ele>
        <time>2021-08-12T13:08:28Z</time>
      </trkpt>
      <trkpt lat="47.85962" lon="-3.76356">
        <ele>38</ele>
        <time>2021-08-12T13:08:29Z</time>
      </trkpt>
      <trkpt lat="47.85965" lon="-3.76351">
        <ele>38</ele>
        <time>2021-08-12T13:08:30Z</time>
      </trkpt>
      <trkpt lat="47.85967" lon="-3.76345">
        <ele>37.8</ele>
        <time>2021-08-12T13:08:31Z</time>
      </trkpt>
      <trkpt lat="47.85975" lon="-3.76331">
        <ele>37.6</ele>
        <time>2021-08-12T13:08:33Z</time>
      </trkpt>
      <trkpt lat="47.85979" lon="-3.76324">
        <ele>37.4</ele>
        <time>2021-08-12T13:08:34Z</time>
      </trkpt>
      <trkpt lat="47.85983" lon="-3.76317">
        <ele>37.2</ele>
        <time>2021-08-12T13:08:35Z</time>
      </trkpt>
      <trkpt lat="47.85987" lon="-3.76309">
        <ele>36.8</ele>
        <time>2021-08-12T13:08:36Z</time>
      </trkpt>
      <trkpt lat="47.85991" lon="-3.76301">
        <ele>36.4</ele>
        <time>2021-08-12T13:08:37Z</time>
      </trkpt>
      <trkpt lat="47.85994" lon="-3.76292">
        <ele>36</ele>
        <time>2021-08-12T13:08:38Z</time>
      </trkpt>
      <trkpt lat="47.85997" lon="-3.76282">
        <ele>35.8</ele>
        <time>2021-08-12T13:08:39Z</time>
      </trkpt>
      <trkpt lat="47.86001" lon="-3.76271">
        <ele>35.4</ele>
        <time>2021-08-12T13:08:40Z</time>
      </trkpt>
      <trkpt lat="47.86003" lon="-3.76261">
        <ele>35.2</ele>
        <time>2021-08-12T13:08:41Z</time>
      </trkpt>
      <trkpt lat="47.86005" lon="-3.76251">
        <ele>35</ele>
        <time>2021-08-12T13:08:42Z</time>
      </trkpt>
      <trkpt lat="47.86007" lon="-3.76241">
        <ele>34.6</ele>
        <time>2021-08-12T13:08:43Z</time>
      </trkpt>
      <trkpt lat="47.86011" lon="-3.76228">
        <ele>34.4</ele>
        <time>2021-08-12T13:08:44Z</time>
      </trkpt>
      <trkpt lat="47.86016" lon="-3.76215">
        <ele>34.2</ele>
        <time>2021-08-12T13:08:45Z</time>
      </trkpt>
      <trkpt lat="47.8602" lon="-3.76203">
        <ele>34</ele>
        <time>2021-08-12T13:08:46Z</time>
      </trkpt>
      <trkpt lat="47.86023" lon="-3.76191">
        <ele>34</ele>
        <time>2021-08-12T13:08:47Z</time>
      </trkpt>
      <trkpt lat="47.86024" lon="-3.76181">
        <ele>33.8</ele>
        <time>2021-08-12T13:08:48Z</time>
      </trkpt>
      <trkpt lat="47.86026" lon="-3.7617">
        <ele>33.6</ele>
        <time>2021-08-12T13:08:49Z</time>
      </trkpt>
      <trkpt lat="47.86025" lon="-3.7616">
        <ele>33.4</ele>
        <time>2021-08-12T13:08:50Z</time>
      </trkpt>
      <trkpt lat="47.86025" lon="-3.7615">
        <ele>33.2</ele>
        <time>2021-08-12T13:08:51Z</time>
      </trkpt>
      <trkpt lat="47.86025" lon="-3.7614">
        <ele>33.2</ele>
        <time>2021-08-12T13:08:52Z</time>
      </trkpt>
      <trkpt lat="47.86024" lon="-3.76131">
        <ele>33.2</ele>
        <time>2021-08-12T13:08:53Z</time>
      </trkpt>
      <trkpt lat="47.86022" lon="-3.76112">
        <ele>33.2</ele>
        <time>2021-08-12T13:08:55Z</time>
      </trkpt>
      <trkpt lat="47.86021" lon="-3.76103">
        <ele>33</ele>
        <time>2021-08-12T13:08:56Z</time>
      </trkpt>
      <trkpt lat="47.8602" lon="-3.76094">
        <ele>33</ele>
        <time>2021-08-12T13:08:57Z</time>
      </trkpt>
      <trkpt lat="47.86018" lon="-3.76086">
        <ele>33</ele>
        <time>2021-08-12T13:08:58Z</time>
      </trkpt>
      <trkpt lat="47.86017" lon="-3.76079">
        <ele>33.2</ele>
        <time>2021-08-12T13:08:59Z</time>
      </trkpt>
      <trkpt lat="47.86015" lon="-3.76071">
        <ele>33.2</ele>
        <time>2021-08-12T13:09:00Z</time>
      </trkpt>
      <trkpt lat="47.86014" lon="-3.76063">
        <ele>33.2</ele>
        <time>2021-08-12T13:09:01Z</time>
      </trkpt>
      <trkpt lat="47.86013" lon="-3.76055">
        <ele>33.2</ele>
        <time>2021-08-12T13:09:02Z</time>
      </trkpt>
      <trkpt lat="47.86011" lon="-3.76046">
        <ele>33.2</ele>
        <time>2021-08-12T13:09:03Z</time>
      </trkpt>
      <trkpt lat="47.8601" lon="-3.76038">
        <ele>33.2</ele>
        <time>2021-08-12T13:09:04Z</time>
      </trkpt>
      <trkpt lat="47.86007" lon="-3.7602">
        <ele>33.4</ele>
        <time>2021-08-12T13:09:06Z</time>
      </trkpt>
      <trkpt lat="47.86006" lon="-3.76012">
        <ele>33.4</ele>
        <time>2021-08-12T13:09:07Z</time>
      </trkpt>
      <trkpt lat="47.86005" lon="-3.76003">
        <ele>33.4</ele>
        <time>2021-08-12T13:09:08Z</time>
      </trkpt>
      <trkpt lat="47.86003" lon="-3.75995">
        <ele>33.4</ele>
        <time>2021-08-12T13:09:09Z</time>
      </trkpt>
      <trkpt lat="47.86002" lon="-3.75987">
        <ele>33.4</ele>
        <time>2021-08-12T13:09:10Z</time>
      </trkpt>
      <trkpt lat="47.86" lon="-3.75979">
        <ele>33.4</ele>
        <time>2021-08-12T13:09:11Z</time>
      </trkpt>
      <trkpt lat="47.85999" lon="-3.75971">
        <ele>33.4</ele>
        <time>2021-08-12T13:09:12Z</time>
      </trkpt>
      <trkpt lat="47.85998" lon="-3.75963">
        <ele>33.4</ele>
        <time>2021-08-12T13:09:13Z</time>
      </trkpt>
      <trkpt lat="47.85998" lon="-3.75955">
        <ele>33.4</ele>
        <time>2021-08-12T13:09:14Z</time>
      </trkpt>
      <trkpt lat="47.85997" lon="-3.75948">
        <ele>33.4</ele>
        <time>2021-08-12T13:09:15Z</time>
      </trkpt>
      <trkpt lat="47.85995" lon="-3.75934">
        <ele>33.6</ele>
        <time>2021-08-12T13:09:17Z</time>
      </trkpt>
      <trkpt lat="47.85994" lon="-3.75927">
        <ele>33.6</ele>
        <time>2021-08-12T13:09:18Z</time>
      </trkpt>
      <trkpt lat="47.85993" lon="-3.75921">
        <ele>33.6</ele>
        <time>2021-08-12T13:09:19Z</time>
      </trkpt>
      <trkpt lat="47.85991" lon="-3.75913">
        <ele>33.6</ele>
        <time>2021-08-12T13:09:20Z</time>
      </trkpt>
      <trkpt lat="47.8599" lon="-3.75905">
        <ele>33.6</ele>
        <time>2021-08-12T13:09:21Z</time>
      </trkpt>
      <trkpt lat="47.85989" lon="-3.75897">
        <ele>33.4</ele>
        <time>2021-08-12T13:09:22Z</time>
      </trkpt>
      <trkpt lat="47.85988" lon="-3.75889">
        <ele>33.2</ele>
        <time>2021-08-12T13:09:23Z</time>
      </trkpt>
      <trkpt lat="47.85987" lon="-3.75881">
        <ele>33.2</ele>
        <time>2021-08-12T13:09:24Z</time>
      </trkpt>
      <trkpt lat="47.85987" lon="-3.75874">
        <ele>33.2</ele>
        <time>2021-08-12T13:09:25Z</time>
      </trkpt>
      <trkpt lat="47.85986" lon="-3.75866">
        <ele>33.2</ele>
        <time>2021-08-12T13:09:26Z</time>
      </trkpt>
      <trkpt lat="47.85984" lon="-3.7585">
        <ele>33.2</ele>
        <time>2021-08-12T13:09:28Z</time>
      </trkpt>
      <trkpt lat="47.85983" lon="-3.75841">
        <ele>33.2</ele>
        <time>2021-08-12T13:09:29Z</time>
      </trkpt>
      <trkpt lat="47.85982" lon="-3.75833">
        <ele>33.2</ele>
        <time>2021-08-12T13:09:30Z</time>
      </trkpt>
      <trkpt lat="47.85981" lon="-3.75824">
        <ele>33.2</ele>
        <time>2021-08-12T13:09:31Z</time>
      </trkpt>
      <trkpt lat="47.8598" lon="-3.75815">
        <ele>33.2</ele>
        <time>2021-08-12T13:09:32Z</time>
      </trkpt>
      <trkpt lat="47.8598" lon="-3.75806">
        <ele>33.2</ele>
        <time>2021-08-12T13:09:33Z</time>
      </trkpt>
      <trkpt lat="47.85979" lon="-3.75797">
        <ele>33</ele>
        <time>2021-08-12T13:09:34Z</time>
      </trkpt>
      <trkpt lat="47.85978" lon="-3.75787">
        <ele>32.6</ele>
        <time>2021-08-12T13:09:35Z</time>
      </trkpt>
      <trkpt lat="47.85977" lon="-3.75778">
        <ele>32.6</ele>
        <time>2021-08-12T13:09:36Z</time>
      </trkpt>
      <trkpt lat="47.85975" lon="-3.75769">
        <ele>32.4</ele>
        <time>2021-08-12T13:09:37Z</time>
      </trkpt>
      <trkpt lat="47.85972" lon="-3.75752">
        <ele>32</ele>
        <time>2021-08-12T13:09:39Z</time>
      </trkpt>
      <trkpt lat="47.8597" lon="-3.75743">
        <ele>31.8</ele>
        <time>2021-08-12T13:09:40Z</time>
      </trkpt>
      <trkpt lat="47.85968" lon="-3.75734">
        <ele>31.6</ele>
        <time>2021-08-12T13:09:41Z</time>
      </trkpt>
      <trkpt lat="47.85965" lon="-3.75725">
        <ele>31.4</ele>
        <time>2021-08-12T13:09:42Z</time>
      </trkpt>
      <trkpt lat="47.85962" lon="-3.75717">
        <ele>31.4</ele>
        <time>2021-08-12T13:09:43Z</time>
      </trkpt>
      <trkpt lat="47.85959" lon="-3.75709">
        <ele>31.2</ele>
        <time>2021-08-12T13:09:44Z</time>
      </trkpt>
      <trkpt lat="47.85955" lon="-3.75701">
        <ele>31</ele>
        <time>2021-08-12T13:09:45Z</time>
      </trkpt>
      <trkpt lat="47.85952" lon="-3.75694">
        <ele>31</ele>
        <time>2021-08-12T13:09:46Z</time>
      </trkpt>
      <trkpt lat="47.85948" lon="-3.75686">
        <ele>30.8</ele>
        <time>2021-08-12T13:09:47Z</time>
      </trkpt>
      <trkpt lat="47.85944" lon="-3.75679">
        <ele>30.6</ele>
        <time>2021-08-12T13:09:48Z</time>
      </trkpt>
      <trkpt lat="47.85935" lon="-3.75664">
        <ele>30.2</ele>
        <time>2021-08-12T13:09:50Z</time>
      </trkpt>
      <trkpt lat="47.85931" lon="-3.75657">
        <ele>30</ele>
        <time>2021-08-12T13:09:51Z</time>
      </trkpt>
      <trkpt lat="47.85927" lon="-3.75651">
        <ele>29.8</ele>
        <time>2021-08-12T13:09:52Z</time>
      </trkpt>
      <trkpt lat="47.85924" lon="-3.75645">
        <ele>29.8</ele>
        <time>2021-08-12T13:09:53Z</time>
      </trkpt>
      <trkpt lat="47.8592" lon="-3.75639">
        <ele>29.6</ele>
        <time>2021-08-12T13:09:54Z</time>
      </trkpt>
      <trkpt lat="47.85916" lon="-3.75634">
        <ele>29.6</ele>
        <time>2021-08-12T13:09:55Z</time>
      </trkpt>
      <trkpt lat="47.85913" lon="-3.75629">
        <ele>29.6</ele>
        <time>2021-08-12T13:09:56Z</time>
      </trkpt>
      <trkpt lat="47.85909" lon="-3.75623">
        <ele>29.6</ele>
        <time>2021-08-12T13:09:57Z</time>
      </trkpt>
      <trkpt lat="47.85906" lon="-3.75617">
        <ele>29.6</ele>
        <time>2021-08-12T13:09:58Z</time>
      </trkpt>
      <trkpt lat="47.85903" lon="-3.75611">
        <ele>29.6</ele>
        <time>2021-08-12T13:09:59Z</time>
      </trkpt>
      <trkpt lat="47.85897" lon="-3.75599">
        <ele>29.6</ele>
        <time>2021-08-12T13:10:01Z</time>
      </trkpt>
      <trkpt lat="47.85894" lon="-3.75593">
        <ele>29.6</ele>
        <time>2021-08-12T13:10:02Z</time>
      </trkpt>
      <trkpt lat="47.85892" lon="-3.75587">
        <ele>29.4</ele>
        <time>2021-08-12T13:10:03Z</time>
      </trkpt>
      <trkpt lat="47.85889" lon="-3.7558">
        <ele>29.4</ele>
        <time>2021-08-12T13:10:04Z</time>
      </trkpt>
      <trkpt lat="47.85887" lon="-3.75573">
        <ele>29.4</ele>
        <time>2021-08-12T13:10:05Z</time>
      </trkpt>
      <trkpt lat="47.85884" lon="-3.75566">
        <ele>29.4</ele>
        <time>2021-08-12T13:10:06Z</time>
      </trkpt>
      <trkpt lat="47.85881" lon="-3.75559">
        <ele>29.4</ele>
        <time>2021-08-12T13:10:07Z</time>
      </trkpt>
      <trkpt lat="47.85879" lon="-3.75551">
        <ele>29.4</ele>
        <time>2021-08-12T13:10:08Z</time>
      </trkpt>
      <trkpt lat="47.85876" lon="-3.75543">
        <ele>29.4</ele>
        <time>2021-08-12T13:10:09Z</time>
      </trkpt>
      <trkpt lat="47.85874" lon="-3.75535">
        <ele>29.4</ele>
        <time>2021-08-12T13:10:10Z</time>
      </trkpt>
      <trkpt lat="47.85869" lon="-3.7552">
        <ele>29.4</ele>
        <time>2021-08-12T13:10:12Z</time>
      </trkpt>
      <trkpt lat="47.85867" lon="-3.75512">
        <ele>29.4</ele>
        <time>2021-08-12T13:10:13Z</time>
      </trkpt>
      <trkpt lat="47.85866" lon="-3.75503">
        <ele>29.2</ele>
        <time>2021-08-12T13:10:14Z</time>
      </trkpt>
      <trkpt lat="47.85865" lon="-3.75495">
        <ele>29.2</ele>
        <time>2021-08-12T13:10:15Z</time>
      </trkpt>
      <trkpt lat="47.85864" lon="-3.75486">
        <ele>29.2</ele>
        <time>2021-08-12T13:10:16Z</time>
      </trkpt>
      <trkpt lat="47.85864" lon="-3.75476">
        <ele>29</ele>
        <time>2021-08-12T13:10:17Z</time>
      </trkpt>
      <trkpt lat="47.85863" lon="-3.75467">
        <ele>29</ele>
        <time>2021-08-12T13:10:18Z</time>
      </trkpt>
      <trkpt lat="47.85864" lon="-3.75457">
        <ele>28.8</ele>
        <time>2021-08-12T13:10:19Z</time>
      </trkpt>
      <trkpt lat="47.85864" lon="-3.75447">
        <ele>28.8</ele>
        <time>2021-08-12T13:10:20Z</time>
      </trkpt>
      <trkpt lat="47.85865" lon="-3.75437">
        <ele>28.6</ele>
        <time>2021-08-12T13:10:21Z</time>
      </trkpt>
      <trkpt lat="47.85868" lon="-3.75417">
        <ele>28.2</ele>
        <time>2021-08-12T13:10:23Z</time>
      </trkpt>
      <trkpt lat="47.85869" lon="-3.75406">
        <ele>27.8</ele>
        <time>2021-08-12T13:10:24Z</time>
      </trkpt>
      <trkpt lat="47.85871" lon="-3.75395">
        <ele>27.2</ele>
        <time>2021-08-12T13:10:25Z</time>
      </trkpt>
      <trkpt lat="47.85873" lon="-3.75385">
        <ele>27</ele>
        <time>2021-08-12T13:10:26Z</time>
      </trkpt>
      <trkpt lat="47.85875" lon="-3.75375">
        <ele>26.8</ele>
        <time>2021-08-12T13:10:27Z</time>
      </trkpt>
      <trkpt lat="47.85877" lon="-3.75365">
        <ele>26.6</ele>
        <time>2021-08-12T13:10:28Z</time>
      </trkpt>
      <trkpt lat="47.85879" lon="-3.75355">
        <ele>26.4</ele>
        <time>2021-08-12T13:10:29Z</time>
      </trkpt>
      <trkpt lat="47.85881" lon="-3.75345">
        <ele>26.2</ele>
        <time>2021-08-12T13:10:30Z</time>
      </trkpt>
      <trkpt lat="47.85883" lon="-3.75336">
        <ele>26</ele>
        <time>2021-08-12T13:10:31Z</time>
      </trkpt>
      <trkpt lat="47.85885" lon="-3.75326">
        <ele>26</ele>
        <time>2021-08-12T13:10:32Z</time>
      </trkpt>
      <trkpt lat="47.85888" lon="-3.75307">
        <ele>26</ele>
        <time>2021-08-12T13:10:34Z</time>
      </trkpt>
      <trkpt lat="47.85889" lon="-3.75296">
        <ele>25.8</ele>
        <time>2021-08-12T13:10:35Z</time>
      </trkpt>
      <trkpt lat="47.8589" lon="-3.75286">
        <ele>25.6</ele>
        <time>2021-08-12T13:10:36Z</time>
      </trkpt>
      <trkpt lat="47.8589" lon="-3.75276">
        <ele>25.4</ele>
        <time>2021-08-12T13:10:37Z</time>
      </trkpt>
      <trkpt lat="47.85891" lon="-3.75266">
        <ele>25.2</ele>
        <time>2021-08-12T13:10:38Z</time>
      </trkpt>
      <trkpt lat="47.85891" lon="-3.75255">
        <ele>25</ele>
        <time>2021-08-12T13:10:39Z</time>
      </trkpt>
      <trkpt lat="47.85891" lon="-3.75245">
        <ele>25</ele>
        <time>2021-08-12T13:10:40Z</time>
      </trkpt>
      <trkpt lat="47.85891" lon="-3.75235">
        <ele>25</ele>
        <time>2021-08-12T13:10:41Z</time>
      </trkpt>
      <trkpt lat="47.8589" lon="-3.75225">
        <ele>24.8</ele>
        <time>2021-08-12T13:10:42Z</time>
      </trkpt>
      <trkpt lat="47.8589" lon="-3.75215">
        <ele>24.8</ele>
        <time>2021-08-12T13:10:43Z</time>
      </trkpt>
      <trkpt lat="47.85888" lon="-3.75196">
        <ele>24.6</ele>
        <time>2021-08-12T13:10:45Z</time>
      </trkpt>
      <trkpt lat="47.85886" lon="-3.75186">
        <ele>24.6</ele>
        <time>2021-08-12T13:10:46Z</time>
      </trkpt>
      <trkpt lat="47.85885" lon="-3.75176">
        <ele>24.6</ele>
        <time>2021-08-12T13:10:47Z</time>
      </trkpt>
      <trkpt lat="47.85883" lon="-3.75166">
        <ele>24.4</ele>
        <time>2021-08-12T13:10:48Z</time>
      </trkpt>
      <trkpt lat="47.8588" lon="-3.75156">
        <ele>24.4</ele>
        <time>2021-08-12T13:10:49Z</time>
      </trkpt>
      <trkpt lat="47.85878" lon="-3.75147">
        <ele>24.4</ele>
        <time>2021-08-12T13:10:50Z</time>
      </trkpt>
      <trkpt lat="47.85875" lon="-3.75138">
        <ele>24.4</ele>
        <time>2021-08-12T13:10:51Z</time>
      </trkpt>
      <trkpt lat="47.85872" lon="-3.75128">
        <ele>24.2</ele>
        <time>2021-08-12T13:10:52Z</time>
      </trkpt>
      <trkpt lat="47.85869" lon="-3.75119">
        <ele>24.2</ele>
        <time>2021-08-12T13:10:53Z</time>
      </trkpt>
      <trkpt lat="47.85866" lon="-3.7511">
        <ele>23.8</ele>
        <time>2021-08-12T13:10:54Z</time>
      </trkpt>
      <trkpt lat="47.8586" lon="-3.75091">
        <ele>23.2</ele>
        <time>2021-08-12T13:10:56Z</time>
      </trkpt>
      <trkpt lat="47.85857" lon="-3.75081">
        <ele>23</ele>
        <time>2021-08-12T13:10:57Z</time>
      </trkpt>
      <trkpt lat="47.85854" lon="-3.75071">
        <ele>23</ele>
        <time>2021-08-12T13:10:58Z</time>
      </trkpt>
      <trkpt lat="47.85851" lon="-3.75061">
        <ele>23</ele>
        <time>2021-08-12T13:10:59Z</time>
      </trkpt>
      <trkpt lat="47.85848" lon="-3.75051">
        <ele>22.8</ele>
        <time>2021-08-12T13:11:00Z</time>
      </trkpt>
      <trkpt lat="47.85845" lon="-3.7504">
        <ele>22.8</ele>
        <time>2021-08-12T13:11:01Z</time>
      </trkpt>
      <trkpt lat="47.85843" lon="-3.75029">
        <ele>22.6</ele>
        <time>2021-08-12T13:11:02Z</time>
      </trkpt>
      <trkpt lat="47.85841" lon="-3.75018">
        <ele>22.6</ele>
        <time>2021-08-12T13:11:03Z</time>
      </trkpt>
      <trkpt lat="47.85839" lon="-3.75008">
        <ele>22.4</ele>
        <time>2021-08-12T13:11:04Z</time>
      </trkpt>
      <trkpt lat="47.85838" lon="-3.74999">
        <ele>22.2</ele>
        <time>2021-08-12T13:11:05Z</time>
      </trkpt>
      <trkpt lat="47.85838" lon="-3.74991">
        <ele>22.2</ele>
        <time>2021-08-12T13:11:06Z</time>
      </trkpt>
      <trkpt lat="47.85838" lon="-3.74984">
        <ele>22.2</ele>
        <time>2021-08-12T13:11:07Z</time>
      </trkpt>
      <trkpt lat="47.85837" lon="-3.74977">
        <ele>22.2</ele>
        <time>2021-08-12T13:11:08Z</time>
      </trkpt>
      <trkpt lat="47.85836" lon="-3.74969">
        <ele>22</ele>
        <time>2021-08-12T13:11:09Z</time>
      </trkpt>
      <trkpt lat="47.85835" lon="-3.74961">
        <ele>21.8</ele>
        <time>2021-08-12T13:11:10Z</time>
      </trkpt>
      <trkpt lat="47.85834" lon="-3.74952">
        <ele>21.6</ele>
        <time>2021-08-12T13:11:11Z</time>
      </trkpt>
      <trkpt lat="47.85832" lon="-3.74944">
        <ele>21.4</ele>
        <time>2021-08-12T13:11:12Z</time>
      </trkpt>
      <trkpt lat="47.85831" lon="-3.74936">
        <ele>21.4</ele>
        <time>2021-08-12T13:11:13Z</time>
      </trkpt>
      <trkpt lat="47.85829" lon="-3.74928">
        <ele>21.2</ele>
        <time>2021-08-12T13:11:14Z</time>
      </trkpt>
      <trkpt lat="47.85828" lon="-3.7492">
        <ele>21.2</ele>
        <time>2021-08-12T13:11:15Z</time>
      </trkpt>
      <trkpt lat="47.85826" lon="-3.74912">
        <ele>21.4</ele>
        <time>2021-08-12T13:11:16Z</time>
      </trkpt>
      <trkpt lat="47.85824" lon="-3.74896">
        <ele>21.6</ele>
        <time>2021-08-12T13:11:18Z</time>
      </trkpt>
      <trkpt lat="47.85823" lon="-3.74888">
        <ele>21.6</ele>
        <time>2021-08-12T13:11:19Z</time>
      </trkpt>
      <trkpt lat="47.85822" lon="-3.74881">
        <ele>21.6</ele>
        <time>2021-08-12T13:11:20Z</time>
      </trkpt>
      <trkpt lat="47.8582" lon="-3.74873">
        <ele>21.6</ele>
        <time>2021-08-12T13:11:21Z</time>
      </trkpt>
      <trkpt lat="47.85819" lon="-3.74865">
        <ele>21.6</ele>
        <time>2021-08-12T13:11:22Z</time>
      </trkpt>
      <trkpt lat="47.85818" lon="-3.74857">
        <ele>21.6</ele>
        <time>2021-08-12T13:11:23Z</time>
      </trkpt>
      <trkpt lat="47.85817" lon="-3.7485">
        <ele>21.6</ele>
        <time>2021-08-12T13:11:24Z</time>
      </trkpt>
      <trkpt lat="47.85816" lon="-3.74842">
        <ele>21.4</ele>
        <time>2021-08-12T13:11:25Z</time>
      </trkpt>
      <trkpt lat="47.85816" lon="-3.74834">
        <ele>21.2</ele>
        <time>2021-08-12T13:11:26Z</time>
      </trkpt>
      <trkpt lat="47.85815" lon="-3.74826">
        <ele>21.2</ele>
        <time>2021-08-12T13:11:27Z</time>
      </trkpt>
      <trkpt lat="47.85814" lon="-3.74819">
        <ele>21.2</ele>
        <time>2021-08-12T13:11:28Z</time>
      </trkpt>
      <trkpt lat="47.85812" lon="-3.74812">
        <ele>21.2</ele>
        <time>2021-08-12T13:11:29Z</time>
      </trkpt>
      <trkpt lat="47.8581" lon="-3.74805">
        <ele>21.2</ele>
        <time>2021-08-12T13:11:30Z</time>
      </trkpt>
      <trkpt lat="47.85808" lon="-3.74798">
        <ele>21.2</ele>
        <time>2021-08-12T13:11:31Z</time>
      </trkpt>
      <trkpt lat="47.85806" lon="-3.7479">
        <ele>21.2</ele>
        <time>2021-08-12T13:11:32Z</time>
      </trkpt>
      <trkpt lat="47.85804" lon="-3.74784">
        <ele>21.2</ele>
        <time>2021-08-12T13:11:33Z</time>
      </trkpt>
      <trkpt lat="47.85801" lon="-3.74777">
        <ele>21.2</ele>
        <time>2021-08-12T13:11:34Z</time>
      </trkpt>
      <trkpt lat="47.85799" lon="-3.74772">
        <ele>21.2</ele>
        <time>2021-08-12T13:11:35Z</time>
      </trkpt>
      <trkpt lat="47.85796" lon="-3.74768">
        <ele>21.2</ele>
        <time>2021-08-12T13:11:36Z</time>
      </trkpt>
      <trkpt lat="47.85793" lon="-3.74764">
        <ele>21</ele>
        <time>2021-08-12T13:11:37Z</time>
      </trkpt>
      <trkpt lat="47.85791" lon="-3.74759">
        <ele>21</ele>
        <time>2021-08-12T13:11:38Z</time>
      </trkpt>
      <trkpt lat="47.85786" lon="-3.7475">
        <ele>21</ele>
        <time>2021-08-12T13:11:40Z</time>
      </trkpt>
      <trkpt lat="47.85784" lon="-3.74744">
        <ele>21</ele>
        <time>2021-08-12T13:11:41Z</time>
      </trkpt>
      <trkpt lat="47.85782" lon="-3.74738">
        <ele>21</ele>
        <time>2021-08-12T13:11:42Z</time>
      </trkpt>
      <trkpt lat="47.85779" lon="-3.74732">
        <ele>21</ele>
        <time>2021-08-12T13:11:43Z</time>
      </trkpt>
      <trkpt lat="47.85777" lon="-3.74727">
        <ele>21</ele>
        <time>2021-08-12T13:11:44Z</time>
      </trkpt>
      <trkpt lat="47.85775" lon="-3.74722">
        <ele>21</ele>
        <time>2021-08-12T13:11:45Z</time>
      </trkpt>
      <trkpt lat="47.85773" lon="-3.74716">
        <ele>21</ele>
        <time>2021-08-12T13:11:46Z</time>
      </trkpt>
      <trkpt lat="47.85771" lon="-3.7471">
        <ele>21</ele>
        <time>2021-08-12T13:11:47Z</time>
      </trkpt>
      <trkpt lat="47.85768" lon="-3.74703">
        <ele>21</ele>
        <time>2021-08-12T13:11:48Z</time>
      </trkpt>
      <trkpt lat="47.85766" lon="-3.74697">
        <ele>21</ele>
        <time>2021-08-12T13:11:49Z</time>
      </trkpt>
      <trkpt lat="47.85763" lon="-3.74684">
        <ele>21.2</ele>
        <time>2021-08-12T13:11:51Z</time>
      </trkpt>
      <trkpt lat="47.85761" lon="-3.74678">
        <ele>21.2</ele>
        <time>2021-08-12T13:11:52Z</time>
      </trkpt>
      <trkpt lat="47.85759" lon="-3.74671">
        <ele>21.2</ele>
        <time>2021-08-12T13:11:53Z</time>
      </trkpt>
      <trkpt lat="47.85757" lon="-3.74665">
        <ele>21.2</ele>
        <time>2021-08-12T13:11:54Z</time>
      </trkpt>
      <trkpt lat="47.85756" lon="-3.74659">
        <ele>21.2</ele>
        <time>2021-08-12T13:11:55Z</time>
      </trkpt>
      <trkpt lat="47.85754" lon="-3.74653">
        <ele>21.2</ele>
        <time>2021-08-12T13:11:56Z</time>
      </trkpt>
      <trkpt lat="47.85754" lon="-3.74647">
        <ele>21.2</ele>
        <time>2021-08-12T13:11:57Z</time>
      </trkpt>
      <trkpt lat="47.85753" lon="-3.7464">
        <ele>21.2</ele>
        <time>2021-08-12T13:11:58Z</time>
      </trkpt>
      <trkpt lat="47.85753" lon="-3.74633">
        <ele>21.2</ele>
        <time>2021-08-12T13:11:59Z</time>
      </trkpt>
      <trkpt lat="47.85753" lon="-3.74626">
        <ele>21.2</ele>
        <time>2021-08-12T13:12:00Z</time>
      </trkpt>
      <trkpt lat="47.85751" lon="-3.74618">
        <ele>21.2</ele>
        <time>2021-08-12T13:12:01Z</time>
      </trkpt>
      <trkpt lat="47.85751" lon="-3.7461">
        <ele>21</ele>
        <time>2021-08-12T13:12:02Z</time>
      </trkpt>
      <trkpt lat="47.8575" lon="-3.74602">
        <ele>21</ele>
        <time>2021-08-12T13:12:03Z</time>
      </trkpt>
      <trkpt lat="47.85749" lon="-3.74594">
        <ele>20.8</ele>
        <time>2021-08-12T13:12:04Z</time>
      </trkpt>
      <trkpt lat="47.85748" lon="-3.74586">
        <ele>20.8</ele>
        <time>2021-08-12T13:12:05Z</time>
      </trkpt>
      <trkpt lat="47.85747" lon="-3.74577">
        <ele>20.6</ele>
        <time>2021-08-12T13:12:06Z</time>
      </trkpt>
      <trkpt lat="47.85746" lon="-3.74569">
        <ele>20.4</ele>
        <time>2021-08-12T13:12:07Z</time>
      </trkpt>
      <trkpt lat="47.85745" lon="-3.7456">
        <ele>20.2</ele>
        <time>2021-08-12T13:12:08Z</time>
      </trkpt>
      <trkpt lat="47.85745" lon="-3.74551">
        <ele>20.2</ele>
        <time>2021-08-12T13:12:09Z</time>
      </trkpt>
      <trkpt lat="47.85744" lon="-3.74543">
        <ele>20.2</ele>
        <time>2021-08-12T13:12:10Z</time>
      </trkpt>
      <trkpt lat="47.85743" lon="-3.74534">
        <ele>20</ele>
        <time>2021-08-12T13:12:11Z</time>
      </trkpt>
      <trkpt lat="47.85741" lon="-3.74517">
        <ele>19.8</ele>
        <time>2021-08-12T13:12:13Z</time>
      </trkpt>
      <trkpt lat="47.85741" lon="-3.74508">
        <ele>19.6</ele>
        <time>2021-08-12T13:12:14Z</time>
      </trkpt>
      <trkpt lat="47.8574" lon="-3.74499">
        <ele>19</ele>
        <time>2021-08-12T13:12:15Z</time>
      </trkpt>
      <trkpt lat="47.85739" lon="-3.74491">
        <ele>18.6</ele>
        <time>2021-08-12T13:12:16Z</time>
      </trkpt>
      <trkpt lat="47.85739" lon="-3.74482">
        <ele>18.6</ele>
        <time>2021-08-12T13:12:17Z</time>
      </trkpt>
      <trkpt lat="47.85738" lon="-3.74473">
        <ele>18.4</ele>
        <time>2021-08-12T13:12:18Z</time>
      </trkpt>
      <trkpt lat="47.85737" lon="-3.74464">
        <ele>18.2</ele>
        <time>2021-08-12T13:12:19Z</time>
      </trkpt>
      <trkpt lat="47.85737" lon="-3.74456">
        <ele>18.2</ele>
        <time>2021-08-12T13:12:20Z</time>
      </trkpt>
      <trkpt lat="47.85736" lon="-3.74447">
        <ele>18</ele>
        <time>2021-08-12T13:12:21Z</time>
      </trkpt>
      <trkpt lat="47.85735" lon="-3.74438">
        <ele>18</ele>
        <time>2021-08-12T13:12:22Z</time>
      </trkpt>
      <trkpt lat="47.85733" lon="-3.7442">
        <ele>17.6</ele>
        <time>2021-08-12T13:12:24Z</time>
      </trkpt>
      <trkpt lat="47.85732" lon="-3.74409">
        <ele>17.4</ele>
        <time>2021-08-12T13:12:25Z</time>
      </trkpt>
      <trkpt lat="47.85731" lon="-3.74399">
        <ele>17.4</ele>
        <time>2021-08-12T13:12:26Z</time>
      </trkpt>
      <trkpt lat="47.8573" lon="-3.74389">
        <ele>17.2</ele>
        <time>2021-08-12T13:12:27Z</time>
      </trkpt>
      <trkpt lat="47.85729" lon="-3.7438">
        <ele>17</ele>
        <time>2021-08-12T13:12:28Z</time>
      </trkpt>
      <trkpt lat="47.85729" lon="-3.74371">
        <ele>17</ele>
        <time>2021-08-12T13:12:29Z</time>
      </trkpt>
      <trkpt lat="47.85729" lon="-3.74364">
        <ele>16.8</ele>
        <time>2021-08-12T13:12:30Z</time>
      </trkpt>
      <trkpt lat="47.85729" lon="-3.74357">
        <ele>16.8</ele>
        <time>2021-08-12T13:12:31Z</time>
      </trkpt>
      <trkpt lat="47.85729" lon="-3.74351">
        <ele>16.8</ele>
        <time>2021-08-12T13:12:32Z</time>
      </trkpt>
      <trkpt lat="47.85729" lon="-3.74346">
        <ele>16.8</ele>
        <time>2021-08-12T13:12:33Z</time>
      </trkpt>
      <trkpt lat="47.85729" lon="-3.74335">
        <ele>16.8</ele>
        <time>2021-08-12T13:12:35Z</time>
      </trkpt>
      <trkpt lat="47.85729" lon="-3.74331">
        <ele>16.8</ele>
        <time>2021-08-12T13:12:36Z</time>
      </trkpt>
      <trkpt lat="47.85728" lon="-3.74328">
        <ele>16.8</ele>
        <time>2021-08-12T13:12:37Z</time>
      </trkpt>
      <trkpt lat="47.85728" lon="-3.74326">
        <ele>16.8</ele>
        <time>2021-08-12T13:12:38Z</time>
      </trkpt>
      <trkpt lat="47.85727" lon="-3.74325">
        <ele>16.8</ele>
        <time>2021-08-12T13:12:39Z</time>
      </trkpt>
      <trkpt lat="47.85726" lon="-3.74323">
        <ele>17</ele>
        <time>2021-08-12T13:12:40Z</time>
      </trkpt>
      <trkpt lat="47.85726" lon="-3.7432">
        <ele>17.2</ele>
        <time>2021-08-12T13:12:41Z</time>
      </trkpt>
      <trkpt lat="47.85726" lon="-3.74318">
        <ele>17.4</ele>
        <time>2021-08-12T13:12:42Z</time>
      </trkpt>
      <trkpt lat="47.85726" lon="-3.74315">
        <ele>17.4</ele>
        <time>2021-08-12T13:12:43Z</time>
      </trkpt>
      <trkpt lat="47.85727" lon="-3.74312">
        <ele>17.6</ele>
        <time>2021-08-12T13:12:44Z</time>
      </trkpt>
      <trkpt lat="47.85727" lon="-3.74304">
        <ele>17.8</ele>
        <time>2021-08-12T13:12:46Z</time>
      </trkpt>
      <trkpt lat="47.85727" lon="-3.74301">
        <ele>18</ele>
        <time>2021-08-12T13:12:47Z</time>
      </trkpt>
      <trkpt lat="47.85727" lon="-3.74297">
        <ele>18</ele>
        <time>2021-08-12T13:12:48Z</time>
      </trkpt>
      <trkpt lat="47.85726" lon="-3.74293">
        <ele>18</ele>
        <time>2021-08-12T13:12:49Z</time>
      </trkpt>
      <trkpt lat="47.85724" lon="-3.74289">
        <ele>18</ele>
        <time>2021-08-12T13:12:50Z</time>
      </trkpt>
      <trkpt lat="47.85723" lon="-3.74284">
        <ele>18</ele>
        <time>2021-08-12T13:12:51Z</time>
      </trkpt>
      <trkpt lat="47.85721" lon="-3.7428">
        <ele>18</ele>
        <time>2021-08-12T13:12:52Z</time>
      </trkpt>
      <trkpt lat="47.8572" lon="-3.74276">
        <ele>18</ele>
        <time>2021-08-12T13:12:53Z</time>
      </trkpt>
      <trkpt lat="47.85719" lon="-3.74272">
        <ele>18.2</ele>
        <time>2021-08-12T13:12:54Z</time>
      </trkpt>
      <trkpt lat="47.85717" lon="-3.74268">
        <ele>18.2</ele>
        <time>2021-08-12T13:12:55Z</time>
      </trkpt>
      <trkpt lat="47.85714" lon="-3.74259">
        <ele>17.8</ele>
        <time>2021-08-12T13:12:57Z</time>
      </trkpt>
      <trkpt lat="47.85712" lon="-3.74255">
        <ele>17.8</ele>
        <time>2021-08-12T13:12:58Z</time>
      </trkpt>
      <trkpt lat="47.85709" lon="-3.7425">
        <ele>18</ele>
        <time>2021-08-12T13:12:59Z</time>
      </trkpt>
      <trkpt lat="47.85706" lon="-3.74246">
        <ele>18</ele>
        <time>2021-08-12T13:13:00Z</time>
      </trkpt>
      <trkpt lat="47.85704" lon="-3.74241">
        <ele>18</ele>
        <time>2021-08-12T13:13:01Z</time>
      </trkpt>
      <trkpt lat="47.85701" lon="-3.74237">
        <ele>17.8</ele>
        <time>2021-08-12T13:13:02Z</time>
      </trkpt>
      <trkpt lat="47.85699" lon="-3.74232">
        <ele>17.8</ele>
        <time>2021-08-12T13:13:03Z</time>
      </trkpt>
      <trkpt lat="47.85696" lon="-3.74227">
        <ele>17.8</ele>
        <time>2021-08-12T13:13:04Z</time>
      </trkpt>
      <trkpt lat="47.85694" lon="-3.74223">
        <ele>17.8</ele>
        <time>2021-08-12T13:13:05Z</time>
      </trkpt>
      <trkpt lat="47.85692" lon="-3.74218">
        <ele>17.8</ele>
        <time>2021-08-12T13:13:06Z</time>
      </trkpt>
      <trkpt lat="47.85687" lon="-3.74207">
        <ele>17.6</ele>
        <time>2021-08-12T13:13:08Z</time>
      </trkpt>
      <trkpt lat="47.85685" lon="-3.74202">
        <ele>17.6</ele>
        <time>2021-08-12T13:13:09Z</time>
      </trkpt>
      <trkpt lat="47.85684" lon="-3.74196">
        <ele>17.6</ele>
        <time>2021-08-12T13:13:10Z</time>
      </trkpt>
      <trkpt lat="47.85682" lon="-3.74191">
        <ele>17.6</ele>
        <time>2021-08-12T13:13:11Z</time>
      </trkpt>
      <trkpt lat="47.85681" lon="-3.74185">
        <ele>17.6</ele>
        <time>2021-08-12T13:13:12Z</time>
      </trkpt>
      <trkpt lat="47.85679" lon="-3.7418">
        <ele>17.6</ele>
        <time>2021-08-12T13:13:13Z</time>
      </trkpt>
      <trkpt lat="47.85679" lon="-3.74175">
        <ele>17.6</ele>
        <time>2021-08-12T13:13:14Z</time>
      </trkpt>
      <trkpt lat="47.85677" lon="-3.7417">
        <ele>17.6</ele>
        <time>2021-08-12T13:13:15Z</time>
      </trkpt>
      <trkpt lat="47.85676" lon="-3.74165">
        <ele>17.6</ele>
        <time>2021-08-12T13:13:16Z</time>
      </trkpt>
      <trkpt lat="47.85675" lon="-3.7416">
        <ele>17.6</ele>
        <time>2021-08-12T13:13:17Z</time>
      </trkpt>
      <trkpt lat="47.85673" lon="-3.74149">
        <ele>17.8</ele>
        <time>2021-08-12T13:13:19Z</time>
      </trkpt>
      <trkpt lat="47.85671" lon="-3.74143">
        <ele>18</ele>
        <time>2021-08-12T13:13:20Z</time>
      </trkpt>
      <trkpt lat="47.8567" lon="-3.74138">
        <ele>18.2</ele>
        <time>2021-08-12T13:13:21Z</time>
      </trkpt>
      <trkpt lat="47.85669" lon="-3.74133">
        <ele>18.2</ele>
        <time>2021-08-12T13:13:22Z</time>
      </trkpt>
      <trkpt lat="47.85668" lon="-3.74128">
        <ele>18.2</ele>
        <time>2021-08-12T13:13:23Z</time>
      </trkpt>
      <trkpt lat="47.85667" lon="-3.74123">
        <ele>18.4</ele>
        <time>2021-08-12T13:13:24Z</time>
      </trkpt>
      <trkpt lat="47.85666" lon="-3.74118">
        <ele>18.4</ele>
        <time>2021-08-12T13:13:25Z</time>
      </trkpt>
      <trkpt lat="47.85665" lon="-3.74113">
        <ele>18.4</ele>
        <time>2021-08-12T13:13:26Z</time>
      </trkpt>
      <trkpt lat="47.85664" lon="-3.74108">
        <ele>18.6</ele>
        <time>2021-08-12T13:13:27Z</time>
      </trkpt>
      <trkpt lat="47.85663" lon="-3.74103">
        <ele>18.8</ele>
        <time>2021-08-12T13:13:28Z</time>
      </trkpt>
      <trkpt lat="47.85661" lon="-3.74094">
        <ele>19.2</ele>
        <time>2021-08-12T13:13:30Z</time>
      </trkpt>
      <trkpt lat="47.85659" lon="-3.74089">
        <ele>19.2</ele>
        <time>2021-08-12T13:13:31Z</time>
      </trkpt>
      <trkpt lat="47.85658" lon="-3.74084">
        <ele>19.2</ele>
        <time>2021-08-12T13:13:32Z</time>
      </trkpt>
      <trkpt lat="47.85657" lon="-3.74078">
        <ele>19.4</ele>
        <time>2021-08-12T13:13:33Z</time>
      </trkpt>
      <trkpt lat="47.85656" lon="-3.74073">
        <ele>19.4</ele>
        <time>2021-08-12T13:13:34Z</time>
      </trkpt>
      <trkpt lat="47.85654" lon="-3.74068">
        <ele>19.6</ele>
        <time>2021-08-12T13:13:35Z</time>
      </trkpt>
      <trkpt lat="47.85653" lon="-3.74063">
        <ele>19.6</ele>
        <time>2021-08-12T13:13:36Z</time>
      </trkpt>
      <trkpt lat="47.85652" lon="-3.74057">
        <ele>19.6</ele>
        <time>2021-08-12T13:13:37Z</time>
      </trkpt>
      <trkpt lat="47.85651" lon="-3.74052">
        <ele>19.8</ele>
        <time>2021-08-12T13:13:38Z</time>
      </trkpt>
      <trkpt lat="47.8565" lon="-3.74047">
        <ele>19.8</ele>
        <time>2021-08-12T13:13:39Z</time>
      </trkpt>
      <trkpt lat="47.85647" lon="-3.74036">
        <ele>20</ele>
        <time>2021-08-12T13:13:41Z</time>
      </trkpt>
      <trkpt lat="47.85646" lon="-3.74031">
        <ele>20.2</ele>
        <time>2021-08-12T13:13:42Z</time>
      </trkpt>
      <trkpt lat="47.85645" lon="-3.74026">
        <ele>20.4</ele>
        <time>2021-08-12T13:13:43Z</time>
      </trkpt>
      <trkpt lat="47.85644" lon="-3.74021">
        <ele>20.4</ele>
        <time>2021-08-12T13:13:44Z</time>
      </trkpt>
      <trkpt lat="47.85643" lon="-3.74016">
        <ele>20.6</ele>
        <time>2021-08-12T13:13:45Z</time>
      </trkpt>
      <trkpt lat="47.85642" lon="-3.7401">
        <ele>20.6</ele>
        <time>2021-08-12T13:13:46Z</time>
      </trkpt>
      <trkpt lat="47.85641" lon="-3.74005">
        <ele>20.6</ele>
        <time>2021-08-12T13:13:47Z</time>
      </trkpt>
      <trkpt lat="47.8564" lon="-3.74">
        <ele>20.8</ele>
        <time>2021-08-12T13:13:48Z</time>
      </trkpt>
      <trkpt lat="47.85639" lon="-3.73994">
        <ele>20.8</ele>
        <time>2021-08-12T13:13:49Z</time>
      </trkpt>
      <trkpt lat="47.85638" lon="-3.73989">
        <ele>21</ele>
        <time>2021-08-12T13:13:50Z</time>
      </trkpt>
      <trkpt lat="47.85637" lon="-3.73984">
        <ele>21</ele>
        <time>2021-08-12T13:13:51Z</time>
      </trkpt>
      <trkpt lat="47.85635" lon="-3.73978">
        <ele>21.2</ele>
        <time>2021-08-12T13:13:52Z</time>
      </trkpt>
      <trkpt lat="47.85634" lon="-3.73973">
        <ele>21.2</ele>
        <time>2021-08-12T13:13:53Z</time>
      </trkpt>
      <trkpt lat="47.85632" lon="-3.73968">
        <ele>21.4</ele>
        <time>2021-08-12T13:13:54Z</time>
      </trkpt>
      <trkpt lat="47.85631" lon="-3.73963">
        <ele>21.4</ele>
        <time>2021-08-12T13:13:55Z</time>
      </trkpt>
      <trkpt lat="47.8563" lon="-3.73958">
        <ele>21.4</ele>
        <time>2021-08-12T13:13:56Z</time>
      </trkpt>
      <trkpt lat="47.85629" lon="-3.73952">
        <ele>21.6</ele>
        <time>2021-08-12T13:13:57Z</time>
      </trkpt>
      <trkpt lat="47.85628" lon="-3.73946">
        <ele>21.6</ele>
        <time>2021-08-12T13:13:58Z</time>
      </trkpt>
      <trkpt lat="47.85627" lon="-3.73941">
        <ele>21.8</ele>
        <time>2021-08-12T13:13:59Z</time>
      </trkpt>
      <trkpt lat="47.85625" lon="-3.73935">
        <ele>21.8</ele>
        <time>2021-08-12T13:14:00Z</time>
      </trkpt>
      <trkpt lat="47.85623" lon="-3.7393">
        <ele>21.8</ele>
        <time>2021-08-12T13:14:01Z</time>
      </trkpt>
      <trkpt lat="47.85621" lon="-3.73924">
        <ele>22</ele>
        <time>2021-08-12T13:14:02Z</time>
      </trkpt>
      <trkpt lat="47.8562" lon="-3.73918">
        <ele>22</ele>
        <time>2021-08-12T13:14:03Z</time>
      </trkpt>
      <trkpt lat="47.85619" lon="-3.73913">
        <ele>22</ele>
        <time>2021-08-12T13:14:04Z</time>
      </trkpt>
      <trkpt lat="47.85618" lon="-3.73907">
        <ele>22.2</ele>
        <time>2021-08-12T13:14:05Z</time>
      </trkpt>
      <trkpt lat="47.85617" lon="-3.73901">
        <ele>22.2</ele>
        <time>2021-08-12T13:14:06Z</time>
      </trkpt>
      <trkpt lat="47.85616" lon="-3.73896">
        <ele>22.2</ele>
        <time>2021-08-12T13:14:07Z</time>
      </trkpt>
      <trkpt lat="47.85614" lon="-3.73891">
        <ele>22.2</ele>
        <time>2021-08-12T13:14:08Z</time>
      </trkpt>
      <trkpt lat="47.85613" lon="-3.73885">
        <ele>22.4</ele>
        <time>2021-08-12T13:14:09Z</time>
      </trkpt>
      <trkpt lat="47.85611" lon="-3.7388">
        <ele>22.4</ele>
        <time>2021-08-12T13:14:10Z</time>
      </trkpt>
      <trkpt lat="47.8561" lon="-3.73874">
        <ele>22.6</ele>
        <time>2021-08-12T13:14:11Z</time>
      </trkpt>
      <trkpt lat="47.85608" lon="-3.73869">
        <ele>22.8</ele>
        <time>2021-08-12T13:14:12Z</time>
      </trkpt>
      <trkpt lat="47.85605" lon="-3.73858">
        <ele>22.8</ele>
        <time>2021-08-12T13:14:14Z</time>
      </trkpt>
      <trkpt lat="47.85604" lon="-3.73853">
        <ele>22.8</ele>
        <time>2021-08-12T13:14:15Z</time>
      </trkpt>
      <trkpt lat="47.85603" lon="-3.73848">
        <ele>23</ele>
        <time>2021-08-12T13:14:16Z</time>
      </trkpt>
      <trkpt lat="47.85601" lon="-3.73842">
        <ele>23.2</ele>
        <time>2021-08-12T13:14:17Z</time>
      </trkpt>
      <trkpt lat="47.856" lon="-3.73837">
        <ele>23.4</ele>
        <time>2021-08-12T13:14:18Z</time>
      </trkpt>
      <trkpt lat="47.85599" lon="-3.73832">
        <ele>23.6</ele>
        <time>2021-08-12T13:14:19Z</time>
      </trkpt>
      <trkpt lat="47.85598" lon="-3.73827">
        <ele>23.8</ele>
        <time>2021-08-12T13:14:20Z</time>
      </trkpt>
      <trkpt lat="47.85596" lon="-3.73822">
        <ele>24</ele>
        <time>2021-08-12T13:14:21Z</time>
      </trkpt>
      <trkpt lat="47.85595" lon="-3.73818">
        <ele>24.2</ele>
        <time>2021-08-12T13:14:22Z</time>
      </trkpt>
      <trkpt lat="47.85594" lon="-3.73813">
        <ele>24.4</ele>
        <time>2021-08-12T13:14:23Z</time>
      </trkpt>
      <trkpt lat="47.85592" lon="-3.73808">
        <ele>24.8</ele>
        <time>2021-08-12T13:14:24Z</time>
      </trkpt>
      <trkpt lat="47.8559" lon="-3.73803">
        <ele>25</ele>
        <time>2021-08-12T13:14:25Z</time>
      </trkpt>
      <trkpt lat="47.85589" lon="-3.73798">
        <ele>25</ele>
        <time>2021-08-12T13:14:26Z</time>
      </trkpt>
      <trkpt lat="47.85588" lon="-3.73794">
        <ele>25.2</ele>
        <time>2021-08-12T13:14:27Z</time>
      </trkpt>
      <trkpt lat="47.85586" lon="-3.73789">
        <ele>25.2</ele>
        <time>2021-08-12T13:14:28Z</time>
      </trkpt>
      <trkpt lat="47.85585" lon="-3.73785">
        <ele>25.4</ele>
        <time>2021-08-12T13:14:29Z</time>
      </trkpt>
      <trkpt lat="47.85584" lon="-3.7378">
        <ele>25.4</ele>
        <time>2021-08-12T13:14:30Z</time>
      </trkpt>
      <trkpt lat="47.85583" lon="-3.73776">
        <ele>25.4</ele>
        <time>2021-08-12T13:14:31Z</time>
      </trkpt>
      <trkpt lat="47.85582" lon="-3.73772">
        <ele>25.4</ele>
        <time>2021-08-12T13:14:32Z</time>
      </trkpt>
      <trkpt lat="47.85582" lon="-3.73768">
        <ele>25.4</ele>
        <time>2021-08-12T13:14:33Z</time>
      </trkpt>
      <trkpt lat="47.85581" lon="-3.73763">
        <ele>25.4</ele>
        <time>2021-08-12T13:14:34Z</time>
      </trkpt>
      <trkpt lat="47.85578" lon="-3.73754">
        <ele>25.6</ele>
        <time>2021-08-12T13:14:36Z</time>
      </trkpt>
      <trkpt lat="47.85577" lon="-3.7375">
        <ele>25.8</ele>
        <time>2021-08-12T13:14:37Z</time>
      </trkpt>
      <trkpt lat="47.85576" lon="-3.73745">
        <ele>25.8</ele>
        <time>2021-08-12T13:14:38Z</time>
      </trkpt>
      <trkpt lat="47.85576" lon="-3.73741">
        <ele>25.8</ele>
        <time>2021-08-12T13:14:39Z</time>
      </trkpt>
      <trkpt lat="47.85575" lon="-3.73737">
        <ele>26.2</ele>
        <time>2021-08-12T13:14:40Z</time>
      </trkpt>
      <trkpt lat="47.85575" lon="-3.73733">
        <ele>26.2</ele>
        <time>2021-08-12T13:14:41Z</time>
      </trkpt>
      <trkpt lat="47.85574" lon="-3.73729">
        <ele>26.4</ele>
        <time>2021-08-12T13:14:42Z</time>
      </trkpt>
      <trkpt lat="47.85574" lon="-3.73724">
        <ele>26.4</ele>
        <time>2021-08-12T13:14:43Z</time>
      </trkpt>
      <trkpt lat="47.85573" lon="-3.7372">
        <ele>26.6</ele>
        <time>2021-08-12T13:14:44Z</time>
      </trkpt>
      <trkpt lat="47.85573" lon="-3.73716">
        <ele>26.8</ele>
        <time>2021-08-12T13:14:45Z</time>
      </trkpt>
      <trkpt lat="47.85573" lon="-3.73712">
        <ele>27</ele>
        <time>2021-08-12T13:14:46Z</time>
      </trkpt>
      <trkpt lat="47.8557" lon="-3.73706">
        <ele>27.2</ele>
        <time>2021-08-12T13:14:47Z</time>
      </trkpt>
      <trkpt lat="47.8557" lon="-3.73701">
        <ele>27.4</ele>
        <time>2021-08-12T13:14:48Z</time>
      </trkpt>
      <trkpt lat="47.8557" lon="-3.73696">
        <ele>27.6</ele>
        <time>2021-08-12T13:14:49Z</time>
      </trkpt>
      <trkpt lat="47.85569" lon="-3.7369">
        <ele>27.8</ele>
        <time>2021-08-12T13:14:50Z</time>
      </trkpt>
      <trkpt lat="47.85568" lon="-3.73684">
        <ele>28</ele>
        <time>2021-08-12T13:14:51Z</time>
      </trkpt>
      <trkpt lat="47.85568" lon="-3.73679">
        <ele>28</ele>
        <time>2021-08-12T13:14:52Z</time>
      </trkpt>
      <trkpt lat="47.85567" lon="-3.73674">
        <ele>28</ele>
        <time>2021-08-12T13:14:53Z</time>
      </trkpt>
      <trkpt lat="47.85567" lon="-3.73668">
        <ele>28</ele>
        <time>2021-08-12T13:14:54Z</time>
      </trkpt>
      <trkpt lat="47.85567" lon="-3.73663">
        <ele>28.2</ele>
        <time>2021-08-12T13:14:55Z</time>
      </trkpt>
      <trkpt lat="47.85567" lon="-3.73657">
        <ele>28.2</ele>
        <time>2021-08-12T13:14:56Z</time>
      </trkpt>
      <trkpt lat="47.85568" lon="-3.73647">
        <ele>28.4</ele>
        <time>2021-08-12T13:14:58Z</time>
      </trkpt>
      <trkpt lat="47.85567" lon="-3.73642">
        <ele>28.4</ele>
        <time>2021-08-12T13:14:59Z</time>
      </trkpt>
      <trkpt lat="47.85567" lon="-3.73637">
        <ele>28.4</ele>
        <time>2021-08-12T13:15:00Z</time>
      </trkpt>
      <trkpt lat="47.85568" lon="-3.73632">
        <ele>28.4</ele>
        <time>2021-08-12T13:15:01Z</time>
      </trkpt>
      <trkpt lat="47.85569" lon="-3.73628">
        <ele>28.4</ele>
        <time>2021-08-12T13:15:02Z</time>
      </trkpt>
      <trkpt lat="47.85569" lon="-3.73623">
        <ele>28.6</ele>
        <time>2021-08-12T13:15:03Z</time>
      </trkpt>
      <trkpt lat="47.85569" lon="-3.73618">
        <ele>28.6</ele>
        <time>2021-08-12T13:15:04Z</time>
      </trkpt>
      <trkpt lat="47.85569" lon="-3.73613">
        <ele>28.6</ele>
        <time>2021-08-12T13:15:05Z</time>
      </trkpt>
      <trkpt lat="47.8557" lon="-3.73608">
        <ele>28.6</ele>
        <time>2021-08-12T13:15:06Z</time>
      </trkpt>
      <trkpt lat="47.85571" lon="-3.73603">
        <ele>28.6</ele>
        <time>2021-08-12T13:15:07Z</time>
      </trkpt>
      <trkpt lat="47.85571" lon="-3.73598">
        <ele>28.8</ele>
        <time>2021-08-12T13:15:08Z</time>
      </trkpt>
      <trkpt lat="47.85572" lon="-3.73593">
        <ele>28.8</ele>
        <time>2021-08-12T13:15:09Z</time>
      </trkpt>
      <trkpt lat="47.85573" lon="-3.73588">
        <ele>28.8</ele>
        <time>2021-08-12T13:15:10Z</time>
      </trkpt>
      <trkpt lat="47.85574" lon="-3.73582">
        <ele>28.8</ele>
        <time>2021-08-12T13:15:11Z</time>
      </trkpt>
      <trkpt lat="47.85574" lon="-3.73577">
        <ele>29</ele>
        <time>2021-08-12T13:15:12Z</time>
      </trkpt>
      <trkpt lat="47.85575" lon="-3.73571">
        <ele>29</ele>
        <time>2021-08-12T13:15:13Z</time>
      </trkpt>
      <trkpt lat="47.85575" lon="-3.73566">
        <ele>29.2</ele>
        <time>2021-08-12T13:15:14Z</time>
      </trkpt>
      <trkpt lat="47.85576" lon="-3.7356">
        <ele>29.4</ele>
        <time>2021-08-12T13:15:15Z</time>
      </trkpt>
      <trkpt lat="47.85577" lon="-3.73555">
        <ele>29.6</ele>
        <time>2021-08-12T13:15:16Z</time>
      </trkpt>
      <trkpt lat="47.85577" lon="-3.7355">
        <ele>29.8</ele>
        <time>2021-08-12T13:15:17Z</time>
      </trkpt>
      <trkpt lat="47.85578" lon="-3.73545">
        <ele>30</ele>
        <time>2021-08-12T13:15:18Z</time>
      </trkpt>
      <trkpt lat="47.8558" lon="-3.73536">
        <ele>30.2</ele>
        <time>2021-08-12T13:15:20Z</time>
      </trkpt>
      <trkpt lat="47.85581" lon="-3.73531">
        <ele>30.2</ele>
        <time>2021-08-12T13:15:21Z</time>
      </trkpt>
      <trkpt lat="47.85581" lon="-3.73527">
        <ele>30.4</ele>
        <time>2021-08-12T13:15:22Z</time>
      </trkpt>
      <trkpt lat="47.85581" lon="-3.73522">
        <ele>30.4</ele>
        <time>2021-08-12T13:15:23Z</time>
      </trkpt>
      <trkpt lat="47.85581" lon="-3.73517">
        <ele>30.6</ele>
        <time>2021-08-12T13:15:24Z</time>
      </trkpt>
      <trkpt lat="47.85582" lon="-3.73512">
        <ele>30.6</ele>
        <time>2021-08-12T13:15:25Z</time>
      </trkpt>
      <trkpt lat="47.85582" lon="-3.73507">
        <ele>30.8</ele>
        <time>2021-08-12T13:15:26Z</time>
      </trkpt>
      <trkpt lat="47.85582" lon="-3.73503">
        <ele>30.8</ele>
        <time>2021-08-12T13:15:27Z</time>
      </trkpt>
      <trkpt lat="47.85583" lon="-3.73498">
        <ele>31</ele>
        <time>2021-08-12T13:15:28Z</time>
      </trkpt>
      <trkpt lat="47.85583" lon="-3.73493">
        <ele>31</ele>
        <time>2021-08-12T13:15:29Z</time>
      </trkpt>
      <trkpt lat="47.85585" lon="-3.73484">
        <ele>31.2</ele>
        <time>2021-08-12T13:15:31Z</time>
      </trkpt>
      <trkpt lat="47.85585" lon="-3.7348">
        <ele>31.4</ele>
        <time>2021-08-12T13:15:32Z</time>
      </trkpt>
      <trkpt lat="47.85587" lon="-3.73475">
        <ele>31.4</ele>
        <time>2021-08-12T13:15:33Z</time>
      </trkpt>
      <trkpt lat="47.85588" lon="-3.73471">
        <ele>31.6</ele>
        <time>2021-08-12T13:15:34Z</time>
      </trkpt>
      <trkpt lat="47.85588" lon="-3.73467">
        <ele>31.6</ele>
        <time>2021-08-12T13:15:35Z</time>
      </trkpt>
      <trkpt lat="47.85588" lon="-3.73462">
        <ele>31.8</ele>
        <time>2021-08-12T13:15:36Z</time>
      </trkpt>
      <trkpt lat="47.85589" lon="-3.73457">
        <ele>31.8</ele>
        <time>2021-08-12T13:15:37Z</time>
      </trkpt>
      <trkpt lat="47.85589" lon="-3.73452">
        <ele>32</ele>
        <time>2021-08-12T13:15:38Z</time>
      </trkpt>
      <trkpt lat="47.8559" lon="-3.73447">
        <ele>32</ele>
        <time>2021-08-12T13:15:39Z</time>
      </trkpt>
      <trkpt lat="47.85591" lon="-3.73442">
        <ele>32.2</ele>
        <time>2021-08-12T13:15:40Z</time>
      </trkpt>
      <trkpt lat="47.85592" lon="-3.73432">
        <ele>32.2</ele>
        <time>2021-08-12T13:15:42Z</time>
      </trkpt>
      <trkpt lat="47.85593" lon="-3.73427">
        <ele>32.4</ele>
        <time>2021-08-12T13:15:43Z</time>
      </trkpt>
      <trkpt lat="47.85593" lon="-3.73422">
        <ele>32.4</ele>
        <time>2021-08-12T13:15:44Z</time>
      </trkpt>
      <trkpt lat="47.85594" lon="-3.73417">
        <ele>32.6</ele>
        <time>2021-08-12T13:15:45Z</time>
      </trkpt>
      <trkpt lat="47.85595" lon="-3.73412">
        <ele>32.8</ele>
        <time>2021-08-12T13:15:46Z</time>
      </trkpt>
      <trkpt lat="47.85595" lon="-3.73407">
        <ele>33</ele>
        <time>2021-08-12T13:15:47Z</time>
      </trkpt>
      <trkpt lat="47.85596" lon="-3.73402">
        <ele>33</ele>
        <time>2021-08-12T13:15:48Z</time>
      </trkpt>
      <trkpt lat="47.85596" lon="-3.73397">
        <ele>33.2</ele>
        <time>2021-08-12T13:15:49Z</time>
      </trkpt>
      <trkpt lat="47.85597" lon="-3.73393">
        <ele>33.2</ele>
        <time>2021-08-12T13:15:50Z</time>
      </trkpt>
      <trkpt lat="47.85598" lon="-3.73388">
        <ele>33.2</ele>
        <time>2021-08-12T13:15:51Z</time>
      </trkpt>
      <trkpt lat="47.85599" lon="-3.73381">
        <ele>33.4</ele>
        <time>2021-08-12T13:15:53Z</time>
      </trkpt>
      <trkpt lat="47.85599" lon="-3.73377">
        <ele>33.6</ele>
        <time>2021-08-12T13:15:54Z</time>
      </trkpt>
      <trkpt lat="47.85599" lon="-3.73373">
        <ele>33.6</ele>
        <time>2021-08-12T13:15:55Z</time>
      </trkpt>
      <trkpt lat="47.856" lon="-3.73369">
        <ele>33.6</ele>
        <time>2021-08-12T13:15:56Z</time>
      </trkpt>
      <trkpt lat="47.85601" lon="-3.73365">
        <ele>33.6</ele>
        <time>2021-08-12T13:15:57Z</time>
      </trkpt>
      <trkpt lat="47.85602" lon="-3.73361">
        <ele>33.6</ele>
        <time>2021-08-12T13:15:58Z</time>
      </trkpt>
      <trkpt lat="47.85602" lon="-3.73358">
        <ele>33.6</ele>
        <time>2021-08-12T13:15:59Z</time>
      </trkpt>
      <trkpt lat="47.85604" lon="-3.73354">
        <ele>33.8</ele>
        <time>2021-08-12T13:16:00Z</time>
      </trkpt>
      <trkpt lat="47.85606" lon="-3.73347">
        <ele>33.8</ele>
        <time>2021-08-12T13:16:02Z</time>
      </trkpt>
      <trkpt lat="47.85607" lon="-3.73342">
        <ele>33.8</ele>
        <time>2021-08-12T13:16:03Z</time>
      </trkpt>
      <trkpt lat="47.85608" lon="-3.73337">
        <ele>33.8</ele>
        <time>2021-08-12T13:16:04Z</time>
      </trkpt>
      <trkpt lat="47.85608" lon="-3.73331">
        <ele>33.8</ele>
        <time>2021-08-12T13:16:05Z</time>
      </trkpt>
      <trkpt lat="47.85607" lon="-3.73325">
        <ele>34</ele>
        <time>2021-08-12T13:16:06Z</time>
      </trkpt>
      <trkpt lat="47.85605" lon="-3.73313">
        <ele>34</ele>
        <time>2021-08-12T13:16:08Z</time>
      </trkpt>
      <trkpt lat="47.85603" lon="-3.73303">
        <ele>34.2</ele>
        <time>2021-08-12T13:16:10Z</time>
      </trkpt>
      <trkpt lat="47.85603" lon="-3.73299">
        <ele>34.4</ele>
        <time>2021-08-12T13:16:11Z</time>
      </trkpt>
      <trkpt lat="47.85602" lon="-3.73291">
        <ele>34.4</ele>
        <time>2021-08-12T13:16:13Z</time>
      </trkpt>
      <trkpt lat="47.85602" lon="-3.73287">
        <ele>34.4</ele>
        <time>2021-08-12T13:16:14Z</time>
      </trkpt>
      <trkpt lat="47.85603" lon="-3.7328">
        <ele>34.6</ele>
        <time>2021-08-12T13:16:16Z</time>
      </trkpt>
      <trkpt lat="47.85605" lon="-3.73271">
        <ele>35</ele>
        <time>2021-08-12T13:16:18Z</time>
      </trkpt>
      <trkpt lat="47.85606" lon="-3.73267">
        <ele>35</ele>
        <time>2021-08-12T13:16:19Z</time>
      </trkpt>
      <trkpt lat="47.85605" lon="-3.73262">
        <ele>35</ele>
        <time>2021-08-12T13:16:20Z</time>
      </trkpt>
      <trkpt lat="47.85605" lon="-3.73258">
        <ele>35.2</ele>
        <time>2021-08-12T13:16:21Z</time>
      </trkpt>
      <trkpt lat="47.85604" lon="-3.73253">
        <ele>35.4</ele>
        <time>2021-08-12T13:16:22Z</time>
      </trkpt>
      <trkpt lat="47.85603" lon="-3.73249">
        <ele>35.6</ele>
        <time>2021-08-12T13:16:23Z</time>
      </trkpt>
      <trkpt lat="47.85603" lon="-3.73246">
        <ele>35.8</ele>
        <time>2021-08-12T13:16:24Z</time>
      </trkpt>
      <trkpt lat="47.85603" lon="-3.73241">
        <ele>36</ele>
        <time>2021-08-12T13:16:25Z</time>
      </trkpt>
      <trkpt lat="47.856" lon="-3.73231">
        <ele>36.4</ele>
        <time>2021-08-12T13:16:27Z</time>
      </trkpt>
      <trkpt lat="47.856" lon="-3.73225">
        <ele>36.6</ele>
        <time>2021-08-12T13:16:28Z</time>
      </trkpt>
      <trkpt lat="47.856" lon="-3.7322">
        <ele>36.6</ele>
        <time>2021-08-12T13:16:29Z</time>
      </trkpt>
      <trkpt lat="47.85601" lon="-3.73217">
        <ele>36.8</ele>
        <time>2021-08-12T13:16:30Z</time>
      </trkpt>
      <trkpt lat="47.85601" lon="-3.73212">
        <ele>36.8</ele>
        <time>2021-08-12T13:16:31Z</time>
      </trkpt>
      <trkpt lat="47.85601" lon="-3.73207">
        <ele>37</ele>
        <time>2021-08-12T13:16:32Z</time>
      </trkpt>
      <trkpt lat="47.85601" lon="-3.73203">
        <ele>37</ele>
        <time>2021-08-12T13:16:33Z</time>
      </trkpt>
      <trkpt lat="47.85601" lon="-3.73198">
        <ele>37.2</ele>
        <time>2021-08-12T13:16:34Z</time>
      </trkpt>
      <trkpt lat="47.85602" lon="-3.73194">
        <ele>37.2</ele>
        <time>2021-08-12T13:16:35Z</time>
      </trkpt>
      <trkpt lat="47.85602" lon="-3.7319">
        <ele>37.2</ele>
        <time>2021-08-12T13:16:36Z</time>
      </trkpt>
      <trkpt lat="47.85602" lon="-3.73182">
        <ele>37.6</ele>
        <time>2021-08-12T13:16:38Z</time>
      </trkpt>
      <trkpt lat="47.85603" lon="-3.73178">
        <ele>37.6</ele>
        <time>2021-08-12T13:16:39Z</time>
      </trkpt>
      <trkpt lat="47.85603" lon="-3.73173">
        <ele>37.8</ele>
        <time>2021-08-12T13:16:40Z</time>
      </trkpt>
      <trkpt lat="47.85603" lon="-3.73168">
        <ele>37.6</ele>
        <time>2021-08-12T13:16:41Z</time>
      </trkpt>
      <trkpt lat="47.85602" lon="-3.73164">
        <ele>38</ele>
        <time>2021-08-12T13:16:42Z</time>
      </trkpt>
      <trkpt lat="47.85599" lon="-3.73156">
        <ele>38</ele>
        <time>2021-08-12T13:16:43Z</time>
      </trkpt>
      <trkpt lat="47.85597" lon="-3.7315">
        <ele>38</ele>
        <time>2021-08-12T13:16:44Z</time>
      </trkpt>
      <trkpt lat="47.85595" lon="-3.73145">
        <ele>37.8</ele>
        <time>2021-08-12T13:16:45Z</time>
      </trkpt>
      <trkpt lat="47.85594" lon="-3.7314">
        <ele>38</ele>
        <time>2021-08-12T13:16:46Z</time>
      </trkpt>
      <trkpt lat="47.85593" lon="-3.73134">
        <ele>38</ele>
        <time>2021-08-12T13:16:47Z</time>
      </trkpt>
      <trkpt lat="47.85591" lon="-3.73125">
        <ele>38.2</ele>
        <time>2021-08-12T13:16:49Z</time>
      </trkpt>
      <trkpt lat="47.8559" lon="-3.7312">
        <ele>38.4</ele>
        <time>2021-08-12T13:16:50Z</time>
      </trkpt>
      <trkpt lat="47.8559" lon="-3.73116">
        <ele>38.4</ele>
        <time>2021-08-12T13:16:51Z</time>
      </trkpt>
      <trkpt lat="47.85589" lon="-3.73111">
        <ele>38.4</ele>
        <time>2021-08-12T13:16:52Z</time>
      </trkpt>
      <trkpt lat="47.85587" lon="-3.73106">
        <ele>38.4</ele>
        <time>2021-08-12T13:16:53Z</time>
      </trkpt>
      <trkpt lat="47.85586" lon="-3.73102">
        <ele>38.4</ele>
        <time>2021-08-12T13:16:54Z</time>
      </trkpt>
      <trkpt lat="47.85587" lon="-3.73099">
        <ele>38.6</ele>
        <time>2021-08-12T13:16:55Z</time>
      </trkpt>
      <trkpt lat="47.85587" lon="-3.73095">
        <ele>38.6</ele>
        <time>2021-08-12T13:16:56Z</time>
      </trkpt>
      <trkpt lat="47.85587" lon="-3.73091">
        <ele>38.8</ele>
        <time>2021-08-12T13:16:57Z</time>
      </trkpt>
      <trkpt lat="47.85588" lon="-3.73087">
        <ele>39</ele>
        <time>2021-08-12T13:16:58Z</time>
      </trkpt>
      <trkpt lat="47.85587" lon="-3.7308">
        <ele>39.2</ele>
        <time>2021-08-12T13:17:00Z</time>
      </trkpt>
      <trkpt lat="47.85587" lon="-3.73075">
        <ele>39.4</ele>
        <time>2021-08-12T13:17:01Z</time>
      </trkpt>
      <trkpt lat="47.85587" lon="-3.73071">
        <ele>39.4</ele>
        <time>2021-08-12T13:17:02Z</time>
      </trkpt>
      <trkpt lat="47.85588" lon="-3.73067">
        <ele>39.6</ele>
        <time>2021-08-12T13:17:03Z</time>
      </trkpt>
      <trkpt lat="47.85588" lon="-3.73064">
        <ele>39.8</ele>
        <time>2021-08-12T13:17:04Z</time>
      </trkpt>
      <trkpt lat="47.85588" lon="-3.7306">
        <ele>39.8</ele>
        <time>2021-08-12T13:17:05Z</time>
      </trkpt>
      <trkpt lat="47.85588" lon="-3.73053">
        <ele>40</ele>
        <time>2021-08-12T13:17:06Z</time>
      </trkpt>
      <trkpt lat="47.85587" lon="-3.73048">
        <ele>40.2</ele>
        <time>2021-08-12T13:17:07Z</time>
      </trkpt>
      <trkpt lat="47.85588" lon="-3.73041">
        <ele>40.2</ele>
        <time>2021-08-12T13:17:08Z</time>
      </trkpt>
      <trkpt lat="47.85588" lon="-3.73036">
        <ele>40.4</ele>
        <time>2021-08-12T13:17:09Z</time>
      </trkpt>
      <trkpt lat="47.8559" lon="-3.73026">
        <ele>40.6</ele>
        <time>2021-08-12T13:17:11Z</time>
      </trkpt>
      <trkpt lat="47.8559" lon="-3.7302">
        <ele>40.6</ele>
        <time>2021-08-12T13:17:12Z</time>
      </trkpt>
      <trkpt lat="47.8559" lon="-3.73015">
        <ele>40.8</ele>
        <time>2021-08-12T13:17:13Z</time>
      </trkpt>
      <trkpt lat="47.85589" lon="-3.73009">
        <ele>41</ele>
        <time>2021-08-12T13:17:14Z</time>
      </trkpt>
      <trkpt lat="47.85589" lon="-3.73005">
        <ele>41</ele>
        <time>2021-08-12T13:17:15Z</time>
      </trkpt>
      <trkpt lat="47.85588" lon="-3.73">
        <ele>41.2</ele>
        <time>2021-08-12T13:17:16Z</time>
      </trkpt>
      <trkpt lat="47.85587" lon="-3.72995">
        <ele>41.2</ele>
        <time>2021-08-12T13:17:17Z</time>
      </trkpt>
      <trkpt lat="47.85587" lon="-3.72991">
        <ele>41.2</ele>
        <time>2021-08-12T13:17:18Z</time>
      </trkpt>
      <trkpt lat="47.85588" lon="-3.72987">
        <ele>41.2</ele>
        <time>2021-08-12T13:17:19Z</time>
      </trkpt>
      <trkpt lat="47.85588" lon="-3.72981">
        <ele>41.4</ele>
        <time>2021-08-12T13:17:20Z</time>
      </trkpt>
      <trkpt lat="47.85588" lon="-3.72969">
        <ele>41.6</ele>
        <time>2021-08-12T13:17:22Z</time>
      </trkpt>
      <trkpt lat="47.85589" lon="-3.72962">
        <ele>41.6</ele>
        <time>2021-08-12T13:17:23Z</time>
      </trkpt>
      <trkpt lat="47.85589" lon="-3.72956">
        <ele>41.8</ele>
        <time>2021-08-12T13:17:24Z</time>
      </trkpt>
      <trkpt lat="47.8559" lon="-3.72951">
        <ele>41.8</ele>
        <time>2021-08-12T13:17:25Z</time>
      </trkpt>
      <trkpt lat="47.8559" lon="-3.72946">
        <ele>41.8</ele>
        <time>2021-08-12T13:17:26Z</time>
      </trkpt>
      <trkpt lat="47.85591" lon="-3.7294">
        <ele>42</ele>
        <time>2021-08-12T13:17:27Z</time>
      </trkpt>
      <trkpt lat="47.85591" lon="-3.72936">
        <ele>42</ele>
        <time>2021-08-12T13:17:28Z</time>
      </trkpt>
      <trkpt lat="47.85592" lon="-3.72932">
        <ele>42</ele>
        <time>2021-08-12T13:17:29Z</time>
      </trkpt>
      <trkpt lat="47.85593" lon="-3.72928">
        <ele>42</ele>
        <time>2021-08-12T13:17:30Z</time>
      </trkpt>
      <trkpt lat="47.85594" lon="-3.72923">
        <ele>42</ele>
        <time>2021-08-12T13:17:31Z</time>
      </trkpt>
      <trkpt lat="47.85596" lon="-3.72913">
        <ele>42.4</ele>
        <time>2021-08-12T13:17:33Z</time>
      </trkpt>
      <trkpt lat="47.85597" lon="-3.72907">
        <ele>42.4</ele>
        <time>2021-08-12T13:17:34Z</time>
      </trkpt>
      <trkpt lat="47.85598" lon="-3.72901">
        <ele>42.4</ele>
        <time>2021-08-12T13:17:35Z</time>
      </trkpt>
      <trkpt lat="47.85599" lon="-3.72894">
        <ele>42.4</ele>
        <time>2021-08-12T13:17:36Z</time>
      </trkpt>
      <trkpt lat="47.856" lon="-3.72888">
        <ele>42.4</ele>
        <time>2021-08-12T13:17:37Z</time>
      </trkpt>
      <trkpt lat="47.85601" lon="-3.72883">
        <ele>42.6</ele>
        <time>2021-08-12T13:17:38Z</time>
      </trkpt>
      <trkpt lat="47.85601" lon="-3.72876">
        <ele>42.6</ele>
        <time>2021-08-12T13:17:39Z</time>
      </trkpt>
      <trkpt lat="47.85601" lon="-3.72871">
        <ele>42.6</ele>
        <time>2021-08-12T13:17:40Z</time>
      </trkpt>
      <trkpt lat="47.85601" lon="-3.72865">
        <ele>42.6</ele>
        <time>2021-08-12T13:17:41Z</time>
      </trkpt>
      <trkpt lat="47.85602" lon="-3.72854">
        <ele>42.8</ele>
        <time>2021-08-12T13:17:43Z</time>
      </trkpt>
      <trkpt lat="47.85602" lon="-3.72847">
        <ele>42.8</ele>
        <time>2021-08-12T13:17:44Z</time>
      </trkpt>
      <trkpt lat="47.85602" lon="-3.72842">
        <ele>42.8</ele>
        <time>2021-08-12T13:17:45Z</time>
      </trkpt>
      <trkpt lat="47.85602" lon="-3.72837">
        <ele>42.8</ele>
        <time>2021-08-12T13:17:46Z</time>
      </trkpt>
      <trkpt lat="47.85601" lon="-3.72831">
        <ele>42.8</ele>
        <time>2021-08-12T13:17:47Z</time>
      </trkpt>
      <trkpt lat="47.856" lon="-3.72825">
        <ele>42.8</ele>
        <time>2021-08-12T13:17:48Z</time>
      </trkpt>
      <trkpt lat="47.856" lon="-3.72819">
        <ele>42.8</ele>
        <time>2021-08-12T13:17:49Z</time>
      </trkpt>
      <trkpt lat="47.85601" lon="-3.72814">
        <ele>42.8</ele>
        <time>2021-08-12T13:17:50Z</time>
      </trkpt>
      <trkpt lat="47.85602" lon="-3.72809">
        <ele>43</ele>
        <time>2021-08-12T13:17:51Z</time>
      </trkpt>
      <trkpt lat="47.85602" lon="-3.72804">
        <ele>43</ele>
        <time>2021-08-12T13:17:52Z</time>
      </trkpt>
      <trkpt lat="47.85604" lon="-3.72791">
        <ele>43.2</ele>
        <time>2021-08-12T13:17:54Z</time>
      </trkpt>
      <trkpt lat="47.85604" lon="-3.72783">
        <ele>43.4</ele>
        <time>2021-08-12T13:17:55Z</time>
      </trkpt>
      <trkpt lat="47.85605" lon="-3.72776">
        <ele>43.6</ele>
        <time>2021-08-12T13:17:56Z</time>
      </trkpt>
      <trkpt lat="47.85605" lon="-3.72769">
        <ele>43.6</ele>
        <time>2021-08-12T13:17:57Z</time>
      </trkpt>
      <trkpt lat="47.85605" lon="-3.72763">
        <ele>43.8</ele>
        <time>2021-08-12T13:17:58Z</time>
      </trkpt>
      <trkpt lat="47.85605" lon="-3.72756">
        <ele>44</ele>
        <time>2021-08-12T13:17:59Z</time>
      </trkpt>
      <trkpt lat="47.85605" lon="-3.7275">
        <ele>44</ele>
        <time>2021-08-12T13:18:00Z</time>
      </trkpt>
      <trkpt lat="47.85605" lon="-3.72743">
        <ele>44.2</ele>
        <time>2021-08-12T13:18:01Z</time>
      </trkpt>
      <trkpt lat="47.85604" lon="-3.72736">
        <ele>44.4</ele>
        <time>2021-08-12T13:18:02Z</time>
      </trkpt>
      <trkpt lat="47.85604" lon="-3.7273">
        <ele>44.4</ele>
        <time>2021-08-12T13:18:03Z</time>
      </trkpt>
      <trkpt lat="47.85603" lon="-3.72723">
        <ele>44.6</ele>
        <time>2021-08-12T13:18:04Z</time>
      </trkpt>
      <trkpt lat="47.85602" lon="-3.72716">
        <ele>44.6</ele>
        <time>2021-08-12T13:18:05Z</time>
      </trkpt>
      <trkpt lat="47.85602" lon="-3.7271">
        <ele>44.8</ele>
        <time>2021-08-12T13:18:06Z</time>
      </trkpt>
      <trkpt lat="47.85602" lon="-3.72704">
        <ele>45</ele>
        <time>2021-08-12T13:18:07Z</time>
      </trkpt>
      <trkpt lat="47.85602" lon="-3.72697">
        <ele>45.2</ele>
        <time>2021-08-12T13:18:08Z</time>
      </trkpt>
      <trkpt lat="47.85601" lon="-3.72691">
        <ele>45.2</ele>
        <time>2021-08-12T13:18:09Z</time>
      </trkpt>
      <trkpt lat="47.85601" lon="-3.72684">
        <ele>45.2</ele>
        <time>2021-08-12T13:18:10Z</time>
      </trkpt>
      <trkpt lat="47.85601" lon="-3.72677">
        <ele>45.4</ele>
        <time>2021-08-12T13:18:11Z</time>
      </trkpt>
      <trkpt lat="47.856" lon="-3.72669">
        <ele>45.6</ele>
        <time>2021-08-12T13:18:12Z</time>
      </trkpt>
      <trkpt lat="47.856" lon="-3.72663">
        <ele>45.8</ele>
        <time>2021-08-12T13:18:13Z</time>
      </trkpt>
      <trkpt lat="47.85599" lon="-3.72656">
        <ele>45.8</ele>
        <time>2021-08-12T13:18:14Z</time>
      </trkpt>
      <trkpt lat="47.85598" lon="-3.72648">
        <ele>46.2</ele>
        <time>2021-08-12T13:18:15Z</time>
      </trkpt>
      <trkpt lat="47.85597" lon="-3.72641">
        <ele>46.4</ele>
        <time>2021-08-12T13:18:16Z</time>
      </trkpt>
      <trkpt lat="47.85596" lon="-3.72633">
        <ele>46.4</ele>
        <time>2021-08-12T13:18:17Z</time>
      </trkpt>
      <trkpt lat="47.85595" lon="-3.72626">
        <ele>46.4</ele>
        <time>2021-08-12T13:18:18Z</time>
      </trkpt>
      <trkpt lat="47.85594" lon="-3.72619">
        <ele>46.6</ele>
        <time>2021-08-12T13:18:19Z</time>
      </trkpt>
      <trkpt lat="47.85593" lon="-3.72611">
        <ele>46.6</ele>
        <time>2021-08-12T13:18:20Z</time>
      </trkpt>
      <trkpt lat="47.85592" lon="-3.72603">
        <ele>46.8</ele>
        <time>2021-08-12T13:18:21Z</time>
      </trkpt>
      <trkpt lat="47.8559" lon="-3.72595">
        <ele>46.8</ele>
        <time>2021-08-12T13:18:22Z</time>
      </trkpt>
      <trkpt lat="47.85588" lon="-3.72588">
        <ele>47</ele>
        <time>2021-08-12T13:18:23Z</time>
      </trkpt>
      <trkpt lat="47.85587" lon="-3.72581">
        <ele>47.2</ele>
        <time>2021-08-12T13:18:24Z</time>
      </trkpt>
      <trkpt lat="47.85587" lon="-3.72576">
        <ele>47.2</ele>
        <time>2021-08-12T13:18:25Z</time>
      </trkpt>
      <trkpt lat="47.85586" lon="-3.7257">
        <ele>47.4</ele>
        <time>2021-08-12T13:18:26Z</time>
      </trkpt>
      <trkpt lat="47.85585" lon="-3.72564">
        <ele>47.4</ele>
        <time>2021-08-12T13:18:27Z</time>
      </trkpt>
      <trkpt lat="47.85584" lon="-3.72558">
        <ele>47.4</ele>
        <time>2021-08-12T13:18:28Z</time>
      </trkpt>
      <trkpt lat="47.85583" lon="-3.72551">
        <ele>47.4</ele>
        <time>2021-08-12T13:18:29Z</time>
      </trkpt>
      <trkpt lat="47.85582" lon="-3.72545">
        <ele>47.6</ele>
        <time>2021-08-12T13:18:30Z</time>
      </trkpt>
      <trkpt lat="47.85582" lon="-3.72539">
        <ele>47.8</ele>
        <time>2021-08-12T13:18:31Z</time>
      </trkpt>
      <trkpt lat="47.85582" lon="-3.72532">
        <ele>47.8</ele>
        <time>2021-08-12T13:18:32Z</time>
      </trkpt>
      <trkpt lat="47.85582" lon="-3.72527">
        <ele>48</ele>
        <time>2021-08-12T13:18:33Z</time>
      </trkpt>
      <trkpt lat="47.85582" lon="-3.72521">
        <ele>48.2</ele>
        <time>2021-08-12T13:18:34Z</time>
      </trkpt>
      <trkpt lat="47.85581" lon="-3.72516">
        <ele>48.4</ele>
        <time>2021-08-12T13:18:35Z</time>
      </trkpt>
      <trkpt lat="47.85579" lon="-3.72511">
        <ele>48.6</ele>
        <time>2021-08-12T13:18:36Z</time>
      </trkpt>
      <trkpt lat="47.85578" lon="-3.725">
        <ele>48.8</ele>
        <time>2021-08-12T13:18:38Z</time>
      </trkpt>
      <trkpt lat="47.85577" lon="-3.72494">
        <ele>48.8</ele>
        <time>2021-08-12T13:18:39Z</time>
      </trkpt>
      <trkpt lat="47.85577" lon="-3.72489">
        <ele>49</ele>
        <time>2021-08-12T13:18:40Z</time>
      </trkpt>
      <trkpt lat="47.85577" lon="-3.72484">
        <ele>49.2</ele>
        <time>2021-08-12T13:18:41Z</time>
      </trkpt>
      <trkpt lat="47.85576" lon="-3.72479">
        <ele>49.4</ele>
        <time>2021-08-12T13:18:42Z</time>
      </trkpt>
      <trkpt lat="47.85576" lon="-3.72475">
        <ele>49.4</ele>
        <time>2021-08-12T13:18:43Z</time>
      </trkpt>
      <trkpt lat="47.85575" lon="-3.7247">
        <ele>49.6</ele>
        <time>2021-08-12T13:18:44Z</time>
      </trkpt>
      <trkpt lat="47.85575" lon="-3.72465">
        <ele>49.6</ele>
        <time>2021-08-12T13:18:45Z</time>
      </trkpt>
      <trkpt lat="47.85574" lon="-3.7246">
        <ele>49.6</ele>
        <time>2021-08-12T13:18:46Z</time>
      </trkpt>
      <trkpt lat="47.85574" lon="-3.72456">
        <ele>49.8</ele>
        <time>2021-08-12T13:18:47Z</time>
      </trkpt>
      <trkpt lat="47.85573" lon="-3.72446">
        <ele>49.8</ele>
        <time>2021-08-12T13:18:49Z</time>
      </trkpt>
      <trkpt lat="47.85572" lon="-3.72442">
        <ele>49.8</ele>
        <time>2021-08-12T13:18:50Z</time>
      </trkpt>
      <trkpt lat="47.85571" lon="-3.72438">
        <ele>50</ele>
        <time>2021-08-12T13:18:51Z</time>
      </trkpt>
      <trkpt lat="47.85571" lon="-3.72435">
        <ele>50</ele>
        <time>2021-08-12T13:18:52Z</time>
      </trkpt>
      <trkpt lat="47.85571" lon="-3.72431">
        <ele>50</ele>
        <time>2021-08-12T13:18:53Z</time>
      </trkpt>
      <trkpt lat="47.8557" lon="-3.72428">
        <ele>50</ele>
        <time>2021-08-12T13:18:54Z</time>
      </trkpt>
      <trkpt lat="47.8557" lon="-3.72425">
        <ele>50</ele>
        <time>2021-08-12T13:18:55Z</time>
      </trkpt>
      <trkpt lat="47.8557" lon="-3.72422">
        <ele>50</ele>
        <time>2021-08-12T13:18:56Z</time>
      </trkpt>
      <trkpt lat="47.8557" lon="-3.72419">
        <ele>50.2</ele>
        <time>2021-08-12T13:18:57Z</time>
      </trkpt>
      <trkpt lat="47.8557" lon="-3.72415">
        <ele>50.2</ele>
        <time>2021-08-12T13:18:58Z</time>
      </trkpt>
      <trkpt lat="47.8557" lon="-3.72407">
        <ele>50.2</ele>
        <time>2021-08-12T13:19:00Z</time>
      </trkpt>
      <trkpt lat="47.8557" lon="-3.72403">
        <ele>50.2</ele>
        <time>2021-08-12T13:19:01Z</time>
      </trkpt>
      <trkpt lat="47.85569" lon="-3.72398">
        <ele>50.2</ele>
        <time>2021-08-12T13:19:02Z</time>
      </trkpt>
      <trkpt lat="47.85569" lon="-3.72393">
        <ele>50.4</ele>
        <time>2021-08-12T13:19:03Z</time>
      </trkpt>
      <trkpt lat="47.85569" lon="-3.72389">
        <ele>50.4</ele>
        <time>2021-08-12T13:19:04Z</time>
      </trkpt>
      <trkpt lat="47.85569" lon="-3.72386">
        <ele>50.4</ele>
        <time>2021-08-12T13:19:05Z</time>
      </trkpt>
      <trkpt lat="47.85569" lon="-3.72382">
        <ele>50.4</ele>
        <time>2021-08-12T13:19:06Z</time>
      </trkpt>
      <trkpt lat="47.85569" lon="-3.72378">
        <ele>50.6</ele>
        <time>2021-08-12T13:19:07Z</time>
      </trkpt>
      <trkpt lat="47.8557" lon="-3.72374">
        <ele>50.6</ele>
        <time>2021-08-12T13:19:08Z</time>
      </trkpt>
      <trkpt lat="47.8557" lon="-3.72369">
        <ele>50.6</ele>
        <time>2021-08-12T13:19:09Z</time>
      </trkpt>
      <trkpt lat="47.85571" lon="-3.72362">
        <ele>50.6</ele>
        <time>2021-08-12T13:19:11Z</time>
      </trkpt>
      <trkpt lat="47.85572" lon="-3.72359">
        <ele>50.8</ele>
        <time>2021-08-12T13:19:12Z</time>
      </trkpt>
      <trkpt lat="47.85572" lon="-3.72355">
        <ele>50.8</ele>
        <time>2021-08-12T13:19:13Z</time>
      </trkpt>
      <trkpt lat="47.85573" lon="-3.72353">
        <ele>50.8</ele>
        <time>2021-08-12T13:19:14Z</time>
      </trkpt>
      <trkpt lat="47.85573" lon="-3.72351">
        <ele>50.8</ele>
        <time>2021-08-12T13:19:15Z</time>
      </trkpt>
      <trkpt lat="47.85572" lon="-3.72349">
        <ele>51</ele>
        <time>2021-08-12T13:19:16Z</time>
      </trkpt>
      <trkpt lat="47.85572" lon="-3.72347">
        <ele>51</ele>
        <time>2021-08-12T13:19:17Z</time>
      </trkpt>
      <trkpt lat="47.85572" lon="-3.72345">
        <ele>51</ele>
        <time>2021-08-12T13:19:18Z</time>
      </trkpt>
      <trkpt lat="47.85571" lon="-3.72342">
        <ele>51.2</ele>
        <time>2021-08-12T13:19:19Z</time>
      </trkpt>
      <trkpt lat="47.85571" lon="-3.72338">
        <ele>51.2</ele>
        <time>2021-08-12T13:19:20Z</time>
      </trkpt>
      <trkpt lat="47.85569" lon="-3.72332">
        <ele>51.4</ele>
        <time>2021-08-12T13:19:22Z</time>
      </trkpt>
      <trkpt lat="47.85569" lon="-3.7233">
        <ele>51.6</ele>
        <time>2021-08-12T13:19:23Z</time>
      </trkpt>
      <trkpt lat="47.85567" lon="-3.72323">
        <ele>52.2</ele>
        <time>2021-08-12T13:20:16Z</time>
      </trkpt>
      <trkpt lat="47.85567" lon="-3.72323">
        <ele>52.2</ele>
        <time>2021-08-12T13:20:17Z</time>
      </trkpt>
      <trkpt lat="47.85567" lon="-3.72323">
        <ele>52.2</ele>
        <time>2021-08-12T13:20:18Z</time>
      </trkpt>
      <trkpt lat="47.85567" lon="-3.72322">
        <ele>52.4</ele>
        <time>2021-08-12T13:20:19Z</time>
      </trkpt>
      <trkpt lat="47.85566" lon="-3.72319">
        <ele>52.2</ele>
        <time>2021-08-12T13:22:00Z</time>
      </trkpt>
      <trkpt lat="47.85566" lon="-3.72318">
        <ele>52.2</ele>
        <time>2021-08-12T13:22:01Z</time>
      </trkpt>
      <trkpt lat="47.85567" lon="-3.72317">
        <ele>52.2</ele>
        <time>2021-08-12T13:22:02Z</time>
      </trkpt>
      <trkpt lat="47.85567" lon="-3.72314">
        <ele>52.2</ele>
        <time>2021-08-12T13:22:03Z</time>
      </trkpt>
      <trkpt lat="47.85569" lon="-3.72308">
        <ele>52.2</ele>
        <time>2021-08-12T13:22:05Z</time>
      </trkpt>
      <trkpt lat="47.85569" lon="-3.72304">
        <ele>52.2</ele>
        <time>2021-08-12T13:22:06Z</time>
      </trkpt>
      <trkpt lat="47.8557" lon="-3.723">
        <ele>52.2</ele>
        <time>2021-08-12T13:22:07Z</time>
      </trkpt>
      <trkpt lat="47.8557" lon="-3.72296">
        <ele>52.2</ele>
        <time>2021-08-12T13:22:08Z</time>
      </trkpt>
      <trkpt lat="47.85571" lon="-3.72292">
        <ele>52.2</ele>
        <time>2021-08-12T13:22:09Z</time>
      </trkpt>
      <trkpt lat="47.85572" lon="-3.72287">
        <ele>52.2</ele>
        <time>2021-08-12T13:22:10Z</time>
      </trkpt>
      <trkpt lat="47.85572" lon="-3.72283">
        <ele>52.4</ele>
        <time>2021-08-12T13:22:11Z</time>
      </trkpt>
      <trkpt lat="47.85573" lon="-3.72279">
        <ele>52.4</ele>
        <time>2021-08-12T13:22:12Z</time>
      </trkpt>
      <trkpt lat="47.85574" lon="-3.72275">
        <ele>52.4</ele>
        <time>2021-08-12T13:22:13Z</time>
      </trkpt>
      <trkpt lat="47.85574" lon="-3.7227">
        <ele>52.4</ele>
        <time>2021-08-12T13:22:14Z</time>
      </trkpt>
      <trkpt lat="47.85575" lon="-3.72267">
        <ele>52.4</ele>
        <time>2021-08-12T13:22:15Z</time>
      </trkpt>
      <trkpt lat="47.85577" lon="-3.72262">
        <ele>52.4</ele>
        <time>2021-08-12T13:22:16Z</time>
      </trkpt>
      <trkpt lat="47.85579" lon="-3.72253">
        <ele>52.6</ele>
        <time>2021-08-12T13:22:18Z</time>
      </trkpt>
      <trkpt lat="47.85581" lon="-3.72249">
        <ele>52.6</ele>
        <time>2021-08-12T13:22:19Z</time>
      </trkpt>
      <trkpt lat="47.85581" lon="-3.72244">
        <ele>52.6</ele>
        <time>2021-08-12T13:22:20Z</time>
      </trkpt>
      <trkpt lat="47.85582" lon="-3.7224">
        <ele>52.8</ele>
        <time>2021-08-12T13:22:21Z</time>
      </trkpt>
      <trkpt lat="47.85583" lon="-3.72234">
        <ele>52.8</ele>
        <time>2021-08-12T13:22:22Z</time>
      </trkpt>
      <trkpt lat="47.85584" lon="-3.72229">
        <ele>52.8</ele>
        <time>2021-08-12T13:22:23Z</time>
      </trkpt>
      <trkpt lat="47.85586" lon="-3.72224">
        <ele>53</ele>
        <time>2021-08-12T13:22:24Z</time>
      </trkpt>
      <trkpt lat="47.85587" lon="-3.7222">
        <ele>53.2</ele>
        <time>2021-08-12T13:22:25Z</time>
      </trkpt>
      <trkpt lat="47.85588" lon="-3.72215">
        <ele>53.2</ele>
        <time>2021-08-12T13:22:26Z</time>
      </trkpt>
      <trkpt lat="47.85588" lon="-3.72209">
        <ele>53.4</ele>
        <time>2021-08-12T13:22:27Z</time>
      </trkpt>
      <trkpt lat="47.8559" lon="-3.72199">
        <ele>53.6</ele>
        <time>2021-08-12T13:22:29Z</time>
      </trkpt>
      <trkpt lat="47.85591" lon="-3.72195">
        <ele>53.6</ele>
        <time>2021-08-12T13:22:30Z</time>
      </trkpt>
      <trkpt lat="47.85592" lon="-3.72191">
        <ele>53.8</ele>
        <time>2021-08-12T13:22:31Z</time>
      </trkpt>
      <trkpt lat="47.85593" lon="-3.72186">
        <ele>53.8</ele>
        <time>2021-08-12T13:22:32Z</time>
      </trkpt>
      <trkpt lat="47.85594" lon="-3.72181">
        <ele>53.8</ele>
        <time>2021-08-12T13:22:33Z</time>
      </trkpt>
      <trkpt lat="47.85594" lon="-3.72176">
        <ele>54</ele>
        <time>2021-08-12T13:22:34Z</time>
      </trkpt>
      <trkpt lat="47.85594" lon="-3.72172">
        <ele>54</ele>
        <time>2021-08-12T13:22:35Z</time>
      </trkpt>
      <trkpt lat="47.85594" lon="-3.72168">
        <ele>54.2</ele>
        <time>2021-08-12T13:22:36Z</time>
      </trkpt>
      <trkpt lat="47.85595" lon="-3.72163">
        <ele>54.2</ele>
        <time>2021-08-12T13:22:37Z</time>
      </trkpt>
      <trkpt lat="47.85596" lon="-3.72159">
        <ele>54.4</ele>
        <time>2021-08-12T13:22:38Z</time>
      </trkpt>
      <trkpt lat="47.85599" lon="-3.72151">
        <ele>54.6</ele>
        <time>2021-08-12T13:22:40Z</time>
      </trkpt>
      <trkpt lat="47.856" lon="-3.72148">
        <ele>54.6</ele>
        <time>2021-08-12T13:22:41Z</time>
      </trkpt>
      <trkpt lat="47.856" lon="-3.72144">
        <ele>54.8</ele>
        <time>2021-08-12T13:22:42Z</time>
      </trkpt>
      <trkpt lat="47.85599" lon="-3.72139">
        <ele>54.8</ele>
        <time>2021-08-12T13:22:43Z</time>
      </trkpt>
      <trkpt lat="47.85599" lon="-3.72134">
        <ele>54.8</ele>
        <time>2021-08-12T13:22:44Z</time>
      </trkpt>
      <trkpt lat="47.85599" lon="-3.72129">
        <ele>55</ele>
        <time>2021-08-12T13:22:45Z</time>
      </trkpt>
      <trkpt lat="47.856" lon="-3.72125">
        <ele>55</ele>
        <time>2021-08-12T13:22:46Z</time>
      </trkpt>
      <trkpt lat="47.85601" lon="-3.72121">
        <ele>55</ele>
        <time>2021-08-12T13:22:47Z</time>
      </trkpt>
      <trkpt lat="47.85602" lon="-3.72117">
        <ele>55</ele>
        <time>2021-08-12T13:22:48Z</time>
      </trkpt>
      <trkpt lat="47.85603" lon="-3.72113">
        <ele>55</ele>
        <time>2021-08-12T13:22:49Z</time>
      </trkpt>
      <trkpt lat="47.85603" lon="-3.72105">
        <ele>55.2</ele>
        <time>2021-08-12T13:22:51Z</time>
      </trkpt>
      <trkpt lat="47.85604" lon="-3.72101">
        <ele>55.4</ele>
        <time>2021-08-12T13:22:52Z</time>
      </trkpt>
      <trkpt lat="47.85605" lon="-3.72094">
        <ele>55.6</ele>
        <time>2021-08-12T13:22:53Z</time>
      </trkpt>
      <trkpt lat="47.85606" lon="-3.72088">
        <ele>55.6</ele>
        <time>2021-08-12T13:22:54Z</time>
      </trkpt>
      <trkpt lat="47.85606" lon="-3.72083">
        <ele>55.6</ele>
        <time>2021-08-12T13:22:55Z</time>
      </trkpt>
      <trkpt lat="47.85606" lon="-3.72077">
        <ele>55.8</ele>
        <time>2021-08-12T13:22:56Z</time>
      </trkpt>
      <trkpt lat="47.85607" lon="-3.72074">
        <ele>55.8</ele>
        <time>2021-08-12T13:22:57Z</time>
      </trkpt>
      <trkpt lat="47.85608" lon="-3.72069">
        <ele>55.8</ele>
        <time>2021-08-12T13:22:58Z</time>
      </trkpt>
      <trkpt lat="47.8561" lon="-3.72064">
        <ele>55.8</ele>
        <time>2021-08-12T13:22:59Z</time>
      </trkpt>
      <trkpt lat="47.85612" lon="-3.72059">
        <ele>55.8</ele>
        <time>2021-08-12T13:23:00Z</time>
      </trkpt>
      <trkpt lat="47.85614" lon="-3.72047">
        <ele>56</ele>
        <time>2021-08-12T13:23:02Z</time>
      </trkpt>
      <trkpt lat="47.85616" lon="-3.7204">
        <ele>56</ele>
        <time>2021-08-12T13:23:03Z</time>
      </trkpt>
      <trkpt lat="47.85617" lon="-3.72034">
        <ele>56</ele>
        <time>2021-08-12T13:23:04Z</time>
      </trkpt>
      <trkpt lat="47.85617" lon="-3.72029">
        <ele>56</ele>
        <time>2021-08-12T13:23:05Z</time>
      </trkpt>
      <trkpt lat="47.85618" lon="-3.72023">
        <ele>56</ele>
        <time>2021-08-12T13:23:06Z</time>
      </trkpt>
      <trkpt lat="47.85619" lon="-3.72018">
        <ele>56</ele>
        <time>2021-08-12T13:23:07Z</time>
      </trkpt>
      <trkpt lat="47.8562" lon="-3.72012">
        <ele>56</ele>
        <time>2021-08-12T13:23:08Z</time>
      </trkpt>
      <trkpt lat="47.85621" lon="-3.72006">
        <ele>56.2</ele>
        <time>2021-08-12T13:23:09Z</time>
      </trkpt>
      <trkpt lat="47.85622" lon="-3.72001">
        <ele>56.2</ele>
        <time>2021-08-12T13:23:10Z</time>
      </trkpt>
      <trkpt lat="47.85622" lon="-3.71996">
        <ele>56.2</ele>
        <time>2021-08-12T13:23:11Z</time>
      </trkpt>
      <trkpt lat="47.85623" lon="-3.71985">
        <ele>56.4</ele>
        <time>2021-08-12T13:23:13Z</time>
      </trkpt>
      <trkpt lat="47.85623" lon="-3.7198">
        <ele>56.4</ele>
        <time>2021-08-12T13:23:14Z</time>
      </trkpt>
      <trkpt lat="47.85624" lon="-3.71975">
        <ele>56.6</ele>
        <time>2021-08-12T13:23:15Z</time>
      </trkpt>
      <trkpt lat="47.85624" lon="-3.7197">
        <ele>56.6</ele>
        <time>2021-08-12T13:23:16Z</time>
      </trkpt>
      <trkpt lat="47.85624" lon="-3.71965">
        <ele>56.8</ele>
        <time>2021-08-12T13:23:17Z</time>
      </trkpt>
      <trkpt lat="47.85625" lon="-3.7196">
        <ele>56.8</ele>
        <time>2021-08-12T13:23:18Z</time>
      </trkpt>
      <trkpt lat="47.85625" lon="-3.71955">
        <ele>56.8</ele>
        <time>2021-08-12T13:23:19Z</time>
      </trkpt>
      <trkpt lat="47.85625" lon="-3.7195">
        <ele>56.8</ele>
        <time>2021-08-12T13:23:20Z</time>
      </trkpt>
      <trkpt lat="47.85625" lon="-3.71945">
        <ele>57</ele>
        <time>2021-08-12T13:23:21Z</time>
      </trkpt>
      <trkpt lat="47.85626" lon="-3.71939">
        <ele>57.2</ele>
        <time>2021-08-12T13:23:22Z</time>
      </trkpt>
      <trkpt lat="47.85626" lon="-3.71928">
        <ele>57.4</ele>
        <time>2021-08-12T13:23:24Z</time>
      </trkpt>
      <trkpt lat="47.85626" lon="-3.71923">
        <ele>57.6</ele>
        <time>2021-08-12T13:23:25Z</time>
      </trkpt>
      <trkpt lat="47.85625" lon="-3.71917">
        <ele>57.6</ele>
        <time>2021-08-12T13:23:26Z</time>
      </trkpt>
      <trkpt lat="47.85625" lon="-3.71912">
        <ele>57.6</ele>
        <time>2021-08-12T13:23:27Z</time>
      </trkpt>
      <trkpt lat="47.85625" lon="-3.71906">
        <ele>57.6</ele>
        <time>2021-08-12T13:23:28Z</time>
      </trkpt>
      <trkpt lat="47.85624" lon="-3.71901">
        <ele>57.6</ele>
        <time>2021-08-12T13:23:29Z</time>
      </trkpt>
      <trkpt lat="47.85624" lon="-3.71896">
        <ele>57.8</ele>
        <time>2021-08-12T13:23:30Z</time>
      </trkpt>
      <trkpt lat="47.85624" lon="-3.7189">
        <ele>57.8</ele>
        <time>2021-08-12T13:23:31Z</time>
      </trkpt>
      <trkpt lat="47.85624" lon="-3.71885">
        <ele>57.8</ele>
        <time>2021-08-12T13:23:32Z</time>
      </trkpt>
      <trkpt lat="47.85623" lon="-3.7188">
        <ele>58</ele>
        <time>2021-08-12T13:23:33Z</time>
      </trkpt>
      <trkpt lat="47.85622" lon="-3.7187">
        <ele>58.2</ele>
        <time>2021-08-12T13:23:35Z</time>
      </trkpt>
      <trkpt lat="47.85621" lon="-3.71866">
        <ele>58.2</ele>
        <time>2021-08-12T13:23:36Z</time>
      </trkpt>
      <trkpt lat="47.85621" lon="-3.71861">
        <ele>58.2</ele>
        <time>2021-08-12T13:23:37Z</time>
      </trkpt>
      <trkpt lat="47.85621" lon="-3.71857">
        <ele>58.4</ele>
        <time>2021-08-12T13:23:38Z</time>
      </trkpt>
      <trkpt lat="47.8562" lon="-3.71852">
        <ele>58.4</ele>
        <time>2021-08-12T13:23:39Z</time>
      </trkpt>
      <trkpt lat="47.85619" lon="-3.71848">
        <ele>58.6</ele>
        <time>2021-08-12T13:23:40Z</time>
      </trkpt>
      <trkpt lat="47.85619" lon="-3.71845">
        <ele>58.6</ele>
        <time>2021-08-12T13:23:41Z</time>
      </trkpt>
      <trkpt lat="47.85618" lon="-3.71841">
        <ele>58.8</ele>
        <time>2021-08-12T13:23:42Z</time>
      </trkpt>
      <trkpt lat="47.85618" lon="-3.71837">
        <ele>58.8</ele>
        <time>2021-08-12T13:23:43Z</time>
      </trkpt>
      <trkpt lat="47.85617" lon="-3.71833">
        <ele>58.8</ele>
        <time>2021-08-12T13:23:44Z</time>
      </trkpt>
      <trkpt lat="47.85615" lon="-3.71825">
        <ele>59</ele>
        <time>2021-08-12T13:23:46Z</time>
      </trkpt>
      <trkpt lat="47.85614" lon="-3.71821">
        <ele>59</ele>
        <time>2021-08-12T13:23:47Z</time>
      </trkpt>
      <trkpt lat="47.85613" lon="-3.71817">
        <ele>59</ele>
        <time>2021-08-12T13:23:48Z</time>
      </trkpt>
      <trkpt lat="47.85612" lon="-3.71812">
        <ele>59</ele>
        <time>2021-08-12T13:23:49Z</time>
      </trkpt>
      <trkpt lat="47.85611" lon="-3.71808">
        <ele>59</ele>
        <time>2021-08-12T13:23:50Z</time>
      </trkpt>
      <trkpt lat="47.8561" lon="-3.71805">
        <ele>59.2</ele>
        <time>2021-08-12T13:23:51Z</time>
      </trkpt>
      <trkpt lat="47.85609" lon="-3.718">
        <ele>59.2</ele>
        <time>2021-08-12T13:23:52Z</time>
      </trkpt>
      <trkpt lat="47.85608" lon="-3.71796">
        <ele>59.2</ele>
        <time>2021-08-12T13:23:53Z</time>
      </trkpt>
      <trkpt lat="47.85607" lon="-3.71792">
        <ele>59.2</ele>
        <time>2021-08-12T13:23:54Z</time>
      </trkpt>
      <trkpt lat="47.85606" lon="-3.71788">
        <ele>59.2</ele>
        <time>2021-08-12T13:23:55Z</time>
      </trkpt>
      <trkpt lat="47.85604" lon="-3.7178">
        <ele>59.4</ele>
        <time>2021-08-12T13:23:57Z</time>
      </trkpt>
      <trkpt lat="47.85602" lon="-3.71776">
        <ele>59.6</ele>
        <time>2021-08-12T13:23:58Z</time>
      </trkpt>
      <trkpt lat="47.85601" lon="-3.71772">
        <ele>59.6</ele>
        <time>2021-08-12T13:23:59Z</time>
      </trkpt>
      <trkpt lat="47.85599" lon="-3.71768">
        <ele>59.8</ele>
        <time>2021-08-12T13:24:00Z</time>
      </trkpt>
      <trkpt lat="47.85598" lon="-3.71764">
        <ele>60</ele>
        <time>2021-08-12T13:24:01Z</time>
      </trkpt>
      <trkpt lat="47.85596" lon="-3.7176">
        <ele>60</ele>
        <time>2021-08-12T13:24:02Z</time>
      </trkpt>
      <trkpt lat="47.85595" lon="-3.71756">
        <ele>60</ele>
        <time>2021-08-12T13:24:03Z</time>
      </trkpt>
      <trkpt lat="47.85593" lon="-3.71752">
        <ele>60.2</ele>
        <time>2021-08-12T13:24:04Z</time>
      </trkpt>
      <trkpt lat="47.85592" lon="-3.71748">
        <ele>60.2</ele>
        <time>2021-08-12T13:24:05Z</time>
      </trkpt>
      <trkpt lat="47.85591" lon="-3.71744">
        <ele>60.2</ele>
        <time>2021-08-12T13:24:06Z</time>
      </trkpt>
      <trkpt lat="47.85588" lon="-3.71738">
        <ele>60.4</ele>
        <time>2021-08-12T13:24:08Z</time>
      </trkpt>
      <trkpt lat="47.85586" lon="-3.71735">
        <ele>60.4</ele>
        <time>2021-08-12T13:24:09Z</time>
      </trkpt>
      <trkpt lat="47.85585" lon="-3.71732">
        <ele>60.4</ele>
        <time>2021-08-12T13:24:10Z</time>
      </trkpt>
      <trkpt lat="47.85583" lon="-3.71729">
        <ele>60.4</ele>
        <time>2021-08-12T13:24:11Z</time>
      </trkpt>
      <trkpt lat="47.85581" lon="-3.71725">
        <ele>60.4</ele>
        <time>2021-08-12T13:24:12Z</time>
      </trkpt>
      <trkpt lat="47.8558" lon="-3.71722">
        <ele>60.4</ele>
        <time>2021-08-12T13:24:13Z</time>
      </trkpt>
      <trkpt lat="47.85578" lon="-3.71718">
        <ele>60.4</ele>
        <time>2021-08-12T13:24:14Z</time>
      </trkpt>
      <trkpt lat="47.85576" lon="-3.71714">
        <ele>60.4</ele>
        <time>2021-08-12T13:24:15Z</time>
      </trkpt>
      <trkpt lat="47.85575" lon="-3.71711">
        <ele>60.4</ele>
        <time>2021-08-12T13:24:16Z</time>
      </trkpt>
      <trkpt lat="47.85573" lon="-3.71708">
        <ele>60.4</ele>
        <time>2021-08-12T13:24:17Z</time>
      </trkpt>
      <trkpt lat="47.85569" lon="-3.717">
        <ele>60.4</ele>
        <time>2021-08-12T13:24:19Z</time>
      </trkpt>
      <trkpt lat="47.85566" lon="-3.71696">
        <ele>60.4</ele>
        <time>2021-08-12T13:24:20Z</time>
      </trkpt>
      <trkpt lat="47.85564" lon="-3.71692">
        <ele>60.4</ele>
        <time>2021-08-12T13:24:21Z</time>
      </trkpt>
      <trkpt lat="47.85562" lon="-3.71688">
        <ele>60.4</ele>
        <time>2021-08-12T13:24:22Z</time>
      </trkpt>
      <trkpt lat="47.85559" lon="-3.71683">
        <ele>60.4</ele>
        <time>2021-08-12T13:24:23Z</time>
      </trkpt>
      <trkpt lat="47.85557" lon="-3.71679">
        <ele>60.4</ele>
        <time>2021-08-12T13:24:24Z</time>
      </trkpt>
      <trkpt lat="47.85555" lon="-3.71674">
        <ele>60.4</ele>
        <time>2021-08-12T13:24:25Z</time>
      </trkpt>
      <trkpt lat="47.85552" lon="-3.7167">
        <ele>60.4</ele>
        <time>2021-08-12T13:24:26Z</time>
      </trkpt>
      <trkpt lat="47.85549" lon="-3.71666">
        <ele>60.2</ele>
        <time>2021-08-12T13:24:27Z</time>
      </trkpt>
      <trkpt lat="47.85546" lon="-3.71662">
        <ele>60.2</ele>
        <time>2021-08-12T13:24:28Z</time>
      </trkpt>
      <trkpt lat="47.85541" lon="-3.71654">
        <ele>60.2</ele>
        <time>2021-08-12T13:24:30Z</time>
      </trkpt>
      <trkpt lat="47.85538" lon="-3.71649">
        <ele>60.2</ele>
        <time>2021-08-12T13:24:31Z</time>
      </trkpt>
      <trkpt lat="47.85535" lon="-3.71644">
        <ele>60.2</ele>
        <time>2021-08-12T13:24:32Z</time>
      </trkpt>
      <trkpt lat="47.85533" lon="-3.7164">
        <ele>60</ele>
        <time>2021-08-12T13:24:33Z</time>
      </trkpt>
      <trkpt lat="47.8553" lon="-3.71635">
        <ele>60</ele>
        <time>2021-08-12T13:24:34Z</time>
      </trkpt>
      <trkpt lat="47.85527" lon="-3.7163">
        <ele>60</ele>
        <time>2021-08-12T13:24:35Z</time>
      </trkpt>
      <trkpt lat="47.85525" lon="-3.71624">
        <ele>60</ele>
        <time>2021-08-12T13:24:36Z</time>
      </trkpt>
      <trkpt lat="47.85522" lon="-3.71619">
        <ele>60</ele>
        <time>2021-08-12T13:24:37Z</time>
      </trkpt>
      <trkpt lat="47.8552" lon="-3.71613">
        <ele>59.8</ele>
        <time>2021-08-12T13:24:38Z</time>
      </trkpt>
      <trkpt lat="47.85517" lon="-3.71607">
        <ele>59.8</ele>
        <time>2021-08-12T13:24:39Z</time>
      </trkpt>
      <trkpt lat="47.85512" lon="-3.71595">
        <ele>59.8</ele>
        <time>2021-08-12T13:24:41Z</time>
      </trkpt>
      <trkpt lat="47.85509" lon="-3.71589">
        <ele>59.6</ele>
        <time>2021-08-12T13:24:42Z</time>
      </trkpt>
      <trkpt lat="47.85507" lon="-3.71582">
        <ele>59.6</ele>
        <time>2021-08-12T13:24:43Z</time>
      </trkpt>
      <trkpt lat="47.85504" lon="-3.71575">
        <ele>59.6</ele>
        <time>2021-08-12T13:24:44Z</time>
      </trkpt>
      <trkpt lat="47.85502" lon="-3.71568">
        <ele>59.4</ele>
        <time>2021-08-12T13:24:45Z</time>
      </trkpt>
      <trkpt lat="47.855" lon="-3.71561">
        <ele>59.2</ele>
        <time>2021-08-12T13:24:46Z</time>
      </trkpt>
      <trkpt lat="47.85497" lon="-3.71554">
        <ele>59.2</ele>
        <time>2021-08-12T13:24:47Z</time>
      </trkpt>
      <trkpt lat="47.85496" lon="-3.71547">
        <ele>59</ele>
        <time>2021-08-12T13:24:48Z</time>
      </trkpt>
      <trkpt lat="47.85495" lon="-3.71541">
        <ele>58.8</ele>
        <time>2021-08-12T13:24:49Z</time>
      </trkpt>
      <trkpt lat="47.85493" lon="-3.71534">
        <ele>58.2</ele>
        <time>2021-08-12T13:24:50Z</time>
      </trkpt>
      <trkpt lat="47.85492" lon="-3.71528">
        <ele>58</ele>
        <time>2021-08-12T13:24:51Z</time>
      </trkpt>
      <trkpt lat="47.85491" lon="-3.71522">
        <ele>57.8</ele>
        <time>2021-08-12T13:24:52Z</time>
      </trkpt>
      <trkpt lat="47.8549" lon="-3.71516">
        <ele>57.8</ele>
        <time>2021-08-12T13:24:53Z</time>
      </trkpt>
      <trkpt lat="47.85489" lon="-3.7151">
        <ele>57.8</ele>
        <time>2021-08-12T13:24:54Z</time>
      </trkpt>
      <trkpt lat="47.85487" lon="-3.71504">
        <ele>57.6</ele>
        <time>2021-08-12T13:24:55Z</time>
      </trkpt>
      <trkpt lat="47.85487" lon="-3.71497">
        <ele>57.6</ele>
        <time>2021-08-12T13:24:56Z</time>
      </trkpt>
      <trkpt lat="47.85486" lon="-3.71489">
        <ele>57.6</ele>
        <time>2021-08-12T13:24:57Z</time>
      </trkpt>
      <trkpt lat="47.85485" lon="-3.71481">
        <ele>57.4</ele>
        <time>2021-08-12T13:24:58Z</time>
      </trkpt>
      <trkpt lat="47.85484" lon="-3.71474">
        <ele>57.2</ele>
        <time>2021-08-12T13:24:59Z</time>
      </trkpt>
      <trkpt lat="47.85484" lon="-3.71468">
        <ele>57</ele>
        <time>2021-08-12T13:25:00Z</time>
      </trkpt>
      <trkpt lat="47.85483" lon="-3.71462">
        <ele>56.8</ele>
        <time>2021-08-12T13:25:01Z</time>
      </trkpt>
      <trkpt lat="47.85482" lon="-3.7145">
        <ele>56.6</ele>
        <time>2021-08-12T13:25:03Z</time>
      </trkpt>
      <trkpt lat="47.85483" lon="-3.71442">
        <ele>56.4</ele>
        <time>2021-08-12T13:25:04Z</time>
      </trkpt>
      <trkpt lat="47.85484" lon="-3.71435">
        <ele>56.2</ele>
        <time>2021-08-12T13:25:05Z</time>
      </trkpt>
      <trkpt lat="47.85484" lon="-3.71429">
        <ele>56</ele>
        <time>2021-08-12T13:25:06Z</time>
      </trkpt>
      <trkpt lat="47.85485" lon="-3.71422">
        <ele>56</ele>
        <time>2021-08-12T13:25:07Z</time>
      </trkpt>
      <trkpt lat="47.85484" lon="-3.71416">
        <ele>55.8</ele>
        <time>2021-08-12T13:25:08Z</time>
      </trkpt>
      <trkpt lat="47.85484" lon="-3.7141">
        <ele>55.8</ele>
        <time>2021-08-12T13:25:09Z</time>
      </trkpt>
      <trkpt lat="47.85484" lon="-3.71407">
        <ele>55.6</ele>
        <time>2021-08-12T13:25:10Z</time>
      </trkpt>
      <trkpt lat="47.85483" lon="-3.71404">
        <ele>55.4</ele>
        <time>2021-08-12T13:25:11Z</time>
      </trkpt>
      <trkpt lat="47.85483" lon="-3.71401">
        <ele>55.4</ele>
        <time>2021-08-12T13:25:12Z</time>
      </trkpt>
      <trkpt lat="47.85483" lon="-3.71394">
        <ele>55.2</ele>
        <time>2021-08-12T13:25:14Z</time>
      </trkpt>
      <trkpt lat="47.85483" lon="-3.71392">
        <ele>55.2</ele>
        <time>2021-08-12T13:25:15Z</time>
      </trkpt>
      <trkpt lat="47.85484" lon="-3.71386">
        <ele>55.2</ele>
        <time>2021-08-12T13:25:16Z</time>
      </trkpt>
      <trkpt lat="47.85485" lon="-3.71378">
        <ele>55</ele>
        <time>2021-08-12T13:25:17Z</time>
      </trkpt>
      <trkpt lat="47.85485" lon="-3.71369">
        <ele>55</ele>
        <time>2021-08-12T13:25:18Z</time>
      </trkpt>
      <trkpt lat="47.85486" lon="-3.71361">
        <ele>55</ele>
        <time>2021-08-12T13:25:19Z</time>
      </trkpt>
      <trkpt lat="47.85486" lon="-3.71352">
        <ele>55</ele>
        <time>2021-08-12T13:25:20Z</time>
      </trkpt>
      <trkpt lat="47.85487" lon="-3.71344">
        <ele>55</ele>
        <time>2021-08-12T13:25:21Z</time>
      </trkpt>
      <trkpt lat="47.85487" lon="-3.71336">
        <ele>55</ele>
        <time>2021-08-12T13:25:22Z</time>
      </trkpt>
      <trkpt lat="47.85488" lon="-3.71328">
        <ele>54.8</ele>
        <time>2021-08-12T13:25:23Z</time>
      </trkpt>
      <trkpt lat="47.85489" lon="-3.71312">
        <ele>54.6</ele>
        <time>2021-08-12T13:25:25Z</time>
      </trkpt>
      <trkpt lat="47.8549" lon="-3.71304">
        <ele>54.4</ele>
        <time>2021-08-12T13:25:26Z</time>
      </trkpt>
      <trkpt lat="47.85491" lon="-3.71295">
        <ele>54</ele>
        <time>2021-08-12T13:25:27Z</time>
      </trkpt>
      <trkpt lat="47.85492" lon="-3.71287">
        <ele>53.8</ele>
        <time>2021-08-12T13:25:28Z</time>
      </trkpt>
      <trkpt lat="47.85493" lon="-3.71278">
        <ele>53.4</ele>
        <time>2021-08-12T13:25:29Z</time>
      </trkpt>
      <trkpt lat="47.85493" lon="-3.71269">
        <ele>53.2</ele>
        <time>2021-08-12T13:25:30Z</time>
      </trkpt>
      <trkpt lat="47.85495" lon="-3.7126">
        <ele>53</ele>
        <time>2021-08-12T13:25:31Z</time>
      </trkpt>
      <trkpt lat="47.85496" lon="-3.71251">
        <ele>52.8</ele>
        <time>2021-08-12T13:25:32Z</time>
      </trkpt>
      <trkpt lat="47.85496" lon="-3.71241">
        <ele>52.8</ele>
        <time>2021-08-12T13:25:33Z</time>
      </trkpt>
      <trkpt lat="47.85497" lon="-3.71232">
        <ele>52.6</ele>
        <time>2021-08-12T13:25:34Z</time>
      </trkpt>
      <trkpt lat="47.85498" lon="-3.71223">
        <ele>52.2</ele>
        <time>2021-08-12T13:25:35Z</time>
      </trkpt>
      <trkpt lat="47.85499" lon="-3.71213">
        <ele>52</ele>
        <time>2021-08-12T13:25:36Z</time>
      </trkpt>
      <trkpt lat="47.855" lon="-3.71204">
        <ele>51.8</ele>
        <time>2021-08-12T13:25:37Z</time>
      </trkpt>
      <trkpt lat="47.85501" lon="-3.71194">
        <ele>51.4</ele>
        <time>2021-08-12T13:25:38Z</time>
      </trkpt>
      <trkpt lat="47.85501" lon="-3.71185">
        <ele>51.2</ele>
        <time>2021-08-12T13:25:39Z</time>
      </trkpt>
      <trkpt lat="47.85502" lon="-3.71175">
        <ele>51</ele>
        <time>2021-08-12T13:25:40Z</time>
      </trkpt>
      <trkpt lat="47.85502" lon="-3.71165">
        <ele>50.8</ele>
        <time>2021-08-12T13:25:41Z</time>
      </trkpt>
      <trkpt lat="47.85502" lon="-3.71155">
        <ele>50.6</ele>
        <time>2021-08-12T13:25:42Z</time>
      </trkpt>
      <trkpt lat="47.85503" lon="-3.71146">
        <ele>50.6</ele>
        <time>2021-08-12T13:25:43Z</time>
      </trkpt>
      <trkpt lat="47.85503" lon="-3.71135">
        <ele>50.4</ele>
        <time>2021-08-12T13:25:44Z</time>
      </trkpt>
      <trkpt lat="47.85505" lon="-3.71126">
        <ele>50.4</ele>
        <time>2021-08-12T13:25:45Z</time>
      </trkpt>
      <trkpt lat="47.85507" lon="-3.71107">
        <ele>50</ele>
        <time>2021-08-12T13:25:47Z</time>
      </trkpt>
      <trkpt lat="47.85508" lon="-3.71098">
        <ele>49.8</ele>
        <time>2021-08-12T13:25:48Z</time>
      </trkpt>
      <trkpt lat="47.85509" lon="-3.7109">
        <ele>49.4</ele>
        <time>2021-08-12T13:25:49Z</time>
      </trkpt>
      <trkpt lat="47.8551" lon="-3.71081">
        <ele>49.2</ele>
        <time>2021-08-12T13:25:50Z</time>
      </trkpt>
      <trkpt lat="47.8551" lon="-3.71072">
        <ele>49</ele>
        <time>2021-08-12T13:25:51Z</time>
      </trkpt>
      <trkpt lat="47.85511" lon="-3.71064">
        <ele>49</ele>
        <time>2021-08-12T13:25:52Z</time>
      </trkpt>
      <trkpt lat="47.85512" lon="-3.71055">
        <ele>48.8</ele>
        <time>2021-08-12T13:25:53Z</time>
      </trkpt>
      <trkpt lat="47.85513" lon="-3.71047">
        <ele>48.8</ele>
        <time>2021-08-12T13:25:54Z</time>
      </trkpt>
      <trkpt lat="47.85514" lon="-3.71038">
        <ele>48.6</ele>
        <time>2021-08-12T13:25:55Z</time>
      </trkpt>
      <trkpt lat="47.85515" lon="-3.71029">
        <ele>48.6</ele>
        <time>2021-08-12T13:25:56Z</time>
      </trkpt>
      <trkpt lat="47.85517" lon="-3.71012">
        <ele>48.4</ele>
        <time>2021-08-12T13:25:58Z</time>
      </trkpt>
      <trkpt lat="47.85518" lon="-3.71004">
        <ele>48.4</ele>
        <time>2021-08-12T13:25:59Z</time>
      </trkpt>
      <trkpt lat="47.85518" lon="-3.70995">
        <ele>48.2</ele>
        <time>2021-08-12T13:26:00Z</time>
      </trkpt>
      <trkpt lat="47.85519" lon="-3.70987">
        <ele>48</ele>
        <time>2021-08-12T13:26:01Z</time>
      </trkpt>
      <trkpt lat="47.8552" lon="-3.70978">
        <ele>47.8</ele>
        <time>2021-08-12T13:26:02Z</time>
      </trkpt>
      <trkpt lat="47.85521" lon="-3.70969">
        <ele>47.6</ele>
        <time>2021-08-12T13:26:03Z</time>
      </trkpt>
      <trkpt lat="47.85521" lon="-3.70961">
        <ele>47.4</ele>
        <time>2021-08-12T13:26:04Z</time>
      </trkpt>
      <trkpt lat="47.85522" lon="-3.70952">
        <ele>47.2</ele>
        <time>2021-08-12T13:26:05Z</time>
      </trkpt>
      <trkpt lat="47.85522" lon="-3.70943">
        <ele>47</ele>
        <time>2021-08-12T13:26:06Z</time>
      </trkpt>
      <trkpt lat="47.85523" lon="-3.70934">
        <ele>47</ele>
        <time>2021-08-12T13:26:07Z</time>
      </trkpt>
      <trkpt lat="47.85523" lon="-3.70915">
        <ele>46.8</ele>
        <time>2021-08-12T13:26:09Z</time>
      </trkpt>
      <trkpt lat="47.85523" lon="-3.70906">
        <ele>46.6</ele>
        <time>2021-08-12T13:26:10Z</time>
      </trkpt>
      <trkpt lat="47.85523" lon="-3.70896">
        <ele>46.4</ele>
        <time>2021-08-12T13:26:11Z</time>
      </trkpt>
      <trkpt lat="47.85524" lon="-3.70887">
        <ele>46.4</ele>
        <time>2021-08-12T13:26:12Z</time>
      </trkpt>
      <trkpt lat="47.85524" lon="-3.70878">
        <ele>46.2</ele>
        <time>2021-08-12T13:26:13Z</time>
      </trkpt>
      <trkpt lat="47.85524" lon="-3.70869">
        <ele>46.2</ele>
        <time>2021-08-12T13:26:14Z</time>
      </trkpt>
      <trkpt lat="47.85524" lon="-3.7086">
        <ele>46</ele>
        <time>2021-08-12T13:26:15Z</time>
      </trkpt>
      <trkpt lat="47.85524" lon="-3.70851">
        <ele>46</ele>
        <time>2021-08-12T13:26:16Z</time>
      </trkpt>
      <trkpt lat="47.85524" lon="-3.70842">
        <ele>45.4</ele>
        <time>2021-08-12T13:26:17Z</time>
      </trkpt>
      <trkpt lat="47.85524" lon="-3.70833">
        <ele>45.4</ele>
        <time>2021-08-12T13:26:18Z</time>
      </trkpt>
      <trkpt lat="47.85524" lon="-3.70815">
        <ele>45</ele>
        <time>2021-08-12T13:26:20Z</time>
      </trkpt>
      <trkpt lat="47.85524" lon="-3.70806">
        <ele>45</ele>
        <time>2021-08-12T13:26:21Z</time>
      </trkpt>
      <trkpt lat="47.85524" lon="-3.70796">
        <ele>44.8</ele>
        <time>2021-08-12T13:26:22Z</time>
      </trkpt>
      <trkpt lat="47.85524" lon="-3.70786">
        <ele>44.6</ele>
        <time>2021-08-12T13:26:23Z</time>
      </trkpt>
      <trkpt lat="47.85524" lon="-3.70777">
        <ele>44.4</ele>
        <time>2021-08-12T13:26:24Z</time>
      </trkpt>
      <trkpt lat="47.85524" lon="-3.70767">
        <ele>44.2</ele>
        <time>2021-08-12T13:26:25Z</time>
      </trkpt>
      <trkpt lat="47.85524" lon="-3.70757">
        <ele>44</ele>
        <time>2021-08-12T13:26:26Z</time>
      </trkpt>
      <trkpt lat="47.85524" lon="-3.70747">
        <ele>43.6</ele>
        <time>2021-08-12T13:26:27Z</time>
      </trkpt>
      <trkpt lat="47.85524" lon="-3.70737">
        <ele>43.2</ele>
        <time>2021-08-12T13:26:28Z</time>
      </trkpt>
      <trkpt lat="47.85524" lon="-3.70726">
        <ele>42.6</ele>
        <time>2021-08-12T13:26:29Z</time>
      </trkpt>
      <trkpt lat="47.85524" lon="-3.70716">
        <ele>42.4</ele>
        <time>2021-08-12T13:26:30Z</time>
      </trkpt>
      <trkpt lat="47.85524" lon="-3.70706">
        <ele>42.2</ele>
        <time>2021-08-12T13:26:31Z</time>
      </trkpt>
      <trkpt lat="47.85524" lon="-3.70695">
        <ele>42</ele>
        <time>2021-08-12T13:26:32Z</time>
      </trkpt>
      <trkpt lat="47.85524" lon="-3.70686">
        <ele>41.8</ele>
        <time>2021-08-12T13:26:33Z</time>
      </trkpt>
      <trkpt lat="47.85524" lon="-3.70676">
        <ele>41.6</ele>
        <time>2021-08-12T13:26:34Z</time>
      </trkpt>
      <trkpt lat="47.85524" lon="-3.70667">
        <ele>41.6</ele>
        <time>2021-08-12T13:26:35Z</time>
      </trkpt>
      <trkpt lat="47.85524" lon="-3.70658">
        <ele>41.4</ele>
        <time>2021-08-12T13:26:36Z</time>
      </trkpt>
      <trkpt lat="47.85524" lon="-3.70649">
        <ele>41.2</ele>
        <time>2021-08-12T13:26:37Z</time>
      </trkpt>
      <trkpt lat="47.85524" lon="-3.7064">
        <ele>41</ele>
        <time>2021-08-12T13:26:38Z</time>
      </trkpt>
      <trkpt lat="47.85524" lon="-3.70631">
        <ele>40.8</ele>
        <time>2021-08-12T13:26:39Z</time>
      </trkpt>
      <trkpt lat="47.85524" lon="-3.70621">
        <ele>40.6</ele>
        <time>2021-08-12T13:26:40Z</time>
      </trkpt>
      <trkpt lat="47.85525" lon="-3.70603">
        <ele>40.4</ele>
        <time>2021-08-12T13:26:42Z</time>
      </trkpt>
      <trkpt lat="47.85525" lon="-3.70595">
        <ele>40.4</ele>
        <time>2021-08-12T13:26:43Z</time>
      </trkpt>
      <trkpt lat="47.85525" lon="-3.70586">
        <ele>40.4</ele>
        <time>2021-08-12T13:26:44Z</time>
      </trkpt>
      <trkpt lat="47.85524" lon="-3.70577">
        <ele>40</ele>
        <time>2021-08-12T13:26:45Z</time>
      </trkpt>
      <trkpt lat="47.85522" lon="-3.70568">
        <ele>40</ele>
        <time>2021-08-12T13:26:46Z</time>
      </trkpt>
      <trkpt lat="47.85522" lon="-3.7056">
        <ele>39.8</ele>
        <time>2021-08-12T13:26:47Z</time>
      </trkpt>
      <trkpt lat="47.85521" lon="-3.70551">
        <ele>39.6</ele>
        <time>2021-08-12T13:26:48Z</time>
      </trkpt>
      <trkpt lat="47.8552" lon="-3.70542">
        <ele>39.6</ele>
        <time>2021-08-12T13:26:49Z</time>
      </trkpt>
      <trkpt lat="47.85518" lon="-3.70533">
        <ele>39.4</ele>
        <time>2021-08-12T13:26:50Z</time>
      </trkpt>
      <trkpt lat="47.85517" lon="-3.70525">
        <ele>39.4</ele>
        <time>2021-08-12T13:26:51Z</time>
      </trkpt>
      <trkpt lat="47.85515" lon="-3.70508">
        <ele>39.2</ele>
        <time>2021-08-12T13:26:53Z</time>
      </trkpt>
      <trkpt lat="47.85515" lon="-3.705">
        <ele>39.2</ele>
        <time>2021-08-12T13:26:54Z</time>
      </trkpt>
      <trkpt lat="47.85514" lon="-3.70492">
        <ele>39.2</ele>
        <time>2021-08-12T13:26:55Z</time>
      </trkpt>
      <trkpt lat="47.85513" lon="-3.70484">
        <ele>39.2</ele>
        <time>2021-08-12T13:26:56Z</time>
      </trkpt>
      <trkpt lat="47.85511" lon="-3.70475">
        <ele>39.2</ele>
        <time>2021-08-12T13:26:57Z</time>
      </trkpt>
      <trkpt lat="47.8551" lon="-3.70467">
        <ele>39.2</ele>
        <time>2021-08-12T13:26:58Z</time>
      </trkpt>
      <trkpt lat="47.85508" lon="-3.70459">
        <ele>39.2</ele>
        <time>2021-08-12T13:26:59Z</time>
      </trkpt>
      <trkpt lat="47.85507" lon="-3.70452">
        <ele>39.2</ele>
        <time>2021-08-12T13:27:00Z</time>
      </trkpt>
      <trkpt lat="47.85506" lon="-3.70444">
        <ele>39.2</ele>
        <time>2021-08-12T13:27:01Z</time>
      </trkpt>
      <trkpt lat="47.85504" lon="-3.70437">
        <ele>39.2</ele>
        <time>2021-08-12T13:27:02Z</time>
      </trkpt>
      <trkpt lat="47.85503" lon="-3.70429">
        <ele>39.2</ele>
        <time>2021-08-12T13:27:03Z</time>
      </trkpt>
      <trkpt lat="47.85501" lon="-3.70422">
        <ele>39.2</ele>
        <time>2021-08-12T13:27:04Z</time>
      </trkpt>
      <trkpt lat="47.85499" lon="-3.70415">
        <ele>39</ele>
        <time>2021-08-12T13:27:05Z</time>
      </trkpt>
      <trkpt lat="47.85497" lon="-3.70409">
        <ele>39</ele>
        <time>2021-08-12T13:27:06Z</time>
      </trkpt>
      <trkpt lat="47.85495" lon="-3.70403">
        <ele>39</ele>
        <time>2021-08-12T13:27:07Z</time>
      </trkpt>
      <trkpt lat="47.85493" lon="-3.70397">
        <ele>39</ele>
        <time>2021-08-12T13:27:08Z</time>
      </trkpt>
      <trkpt lat="47.85492" lon="-3.7039">
        <ele>39</ele>
        <time>2021-08-12T13:27:09Z</time>
      </trkpt>
      <trkpt lat="47.8549" lon="-3.70383">
        <ele>39</ele>
        <time>2021-08-12T13:27:10Z</time>
      </trkpt>
      <trkpt lat="47.85487" lon="-3.70376">
        <ele>39</ele>
        <time>2021-08-12T13:27:11Z</time>
      </trkpt>
      <trkpt lat="47.85485" lon="-3.70369">
        <ele>39</ele>
        <time>2021-08-12T13:27:12Z</time>
      </trkpt>
      <trkpt lat="47.85483" lon="-3.70362">
        <ele>39</ele>
        <time>2021-08-12T13:27:13Z</time>
      </trkpt>
      <trkpt lat="47.85477" lon="-3.70347">
        <ele>38.8</ele>
        <time>2021-08-12T13:27:15Z</time>
      </trkpt>
      <trkpt lat="47.85475" lon="-3.70339">
        <ele>38.8</ele>
        <time>2021-08-12T13:27:16Z</time>
      </trkpt>
      <trkpt lat="47.85472" lon="-3.7033">
        <ele>38.6</ele>
        <time>2021-08-12T13:27:17Z</time>
      </trkpt>
      <trkpt lat="47.8547" lon="-3.70322">
        <ele>38.4</ele>
        <time>2021-08-12T13:27:18Z</time>
      </trkpt>
      <trkpt lat="47.85467" lon="-3.70314">
        <ele>38.2</ele>
        <time>2021-08-12T13:27:19Z</time>
      </trkpt>
      <trkpt lat="47.85464" lon="-3.70307">
        <ele>38</ele>
        <time>2021-08-12T13:27:20Z</time>
      </trkpt>
      <trkpt lat="47.85461" lon="-3.70299">
        <ele>38</ele>
        <time>2021-08-12T13:27:21Z</time>
      </trkpt>
      <trkpt lat="47.85458" lon="-3.7029">
        <ele>37.8</ele>
        <time>2021-08-12T13:27:22Z</time>
      </trkpt>
      <trkpt lat="47.85455" lon="-3.70281">
        <ele>37.8</ele>
        <time>2021-08-12T13:27:23Z</time>
      </trkpt>
      <trkpt lat="47.85452" lon="-3.70272">
        <ele>37.8</ele>
        <time>2021-08-12T13:27:24Z</time>
      </trkpt>
      <trkpt lat="47.85447" lon="-3.70255">
        <ele>37.6</ele>
        <time>2021-08-12T13:27:26Z</time>
      </trkpt>
      <trkpt lat="47.85444" lon="-3.70246">
        <ele>37.4</ele>
        <time>2021-08-12T13:27:27Z</time>
      </trkpt>
      <trkpt lat="47.85441" lon="-3.70237">
        <ele>37</ele>
        <time>2021-08-12T13:27:28Z</time>
      </trkpt>
      <trkpt lat="47.85438" lon="-3.70228">
        <ele>36.8</ele>
        <time>2021-08-12T13:27:29Z</time>
      </trkpt>
      <trkpt lat="47.85435" lon="-3.7022">
        <ele>36.6</ele>
        <time>2021-08-12T13:27:30Z</time>
      </trkpt>
      <trkpt lat="47.85432" lon="-3.70211">
        <ele>36.4</ele>
        <time>2021-08-12T13:27:31Z</time>
      </trkpt>
      <trkpt lat="47.85429" lon="-3.70202">
        <ele>36</ele>
        <time>2021-08-12T13:27:32Z</time>
      </trkpt>
      <trkpt lat="47.85426" lon="-3.70193">
        <ele>35.6</ele>
        <time>2021-08-12T13:27:33Z</time>
      </trkpt>
      <trkpt lat="47.85423" lon="-3.70184">
        <ele>35.2</ele>
        <time>2021-08-12T13:27:34Z</time>
      </trkpt>
      <trkpt lat="47.8542" lon="-3.70175">
        <ele>34.8</ele>
        <time>2021-08-12T13:27:35Z</time>
      </trkpt>
      <trkpt lat="47.85414" lon="-3.70157">
        <ele>34.4</ele>
        <time>2021-08-12T13:27:37Z</time>
      </trkpt>
      <trkpt lat="47.85411" lon="-3.70147">
        <ele>34.2</ele>
        <time>2021-08-12T13:27:38Z</time>
      </trkpt>
      <trkpt lat="47.85408" lon="-3.70138">
        <ele>34.2</ele>
        <time>2021-08-12T13:27:39Z</time>
      </trkpt>
      <trkpt lat="47.85405" lon="-3.70128">
        <ele>34</ele>
        <time>2021-08-12T13:27:40Z</time>
      </trkpt>
      <trkpt lat="47.85402" lon="-3.70119">
        <ele>34</ele>
        <time>2021-08-12T13:27:41Z</time>
      </trkpt>
      <trkpt lat="47.85399" lon="-3.70109">
        <ele>34</ele>
        <time>2021-08-12T13:27:42Z</time>
      </trkpt>
      <trkpt lat="47.85396" lon="-3.70099">
        <ele>33.8</ele>
        <time>2021-08-12T13:27:43Z</time>
      </trkpt>
      <trkpt lat="47.85392" lon="-3.7009">
        <ele>33.4</ele>
        <time>2021-08-12T13:27:44Z</time>
      </trkpt>
      <trkpt lat="47.85389" lon="-3.7008">
        <ele>33.4</ele>
        <time>2021-08-12T13:27:45Z</time>
      </trkpt>
      <trkpt lat="47.85386" lon="-3.7007">
        <ele>33.2</ele>
        <time>2021-08-12T13:27:46Z</time>
      </trkpt>
      <trkpt lat="47.8538" lon="-3.7005">
        <ele>32.6</ele>
        <time>2021-08-12T13:27:48Z</time>
      </trkpt>
      <trkpt lat="47.85377" lon="-3.7004">
        <ele>32.6</ele>
        <time>2021-08-12T13:27:49Z</time>
      </trkpt>
      <trkpt lat="47.85374" lon="-3.70031">
        <ele>32.4</ele>
        <time>2021-08-12T13:27:50Z</time>
      </trkpt>
      <trkpt lat="47.85371" lon="-3.70021">
        <ele>32.2</ele>
        <time>2021-08-12T13:27:51Z</time>
      </trkpt>
      <trkpt lat="47.85368" lon="-3.70012">
        <ele>32.2</ele>
        <time>2021-08-12T13:27:52Z</time>
      </trkpt>
      <trkpt lat="47.85365" lon="-3.70003">
        <ele>32</ele>
        <time>2021-08-12T13:27:53Z</time>
      </trkpt>
      <trkpt lat="47.85362" lon="-3.69994">
        <ele>32</ele>
        <time>2021-08-12T13:27:54Z</time>
      </trkpt>
      <trkpt lat="47.85359" lon="-3.69985">
        <ele>31.6</ele>
        <time>2021-08-12T13:27:55Z</time>
      </trkpt>
      <trkpt lat="47.85356" lon="-3.69976">
        <ele>31.4</ele>
        <time>2021-08-12T13:27:56Z</time>
      </trkpt>
      <trkpt lat="47.85353" lon="-3.69968">
        <ele>31.2</ele>
        <time>2021-08-12T13:27:57Z</time>
      </trkpt>
      <trkpt lat="47.85346" lon="-3.69951">
        <ele>31</ele>
        <time>2021-08-12T13:27:59Z</time>
      </trkpt>
      <trkpt lat="47.85343" lon="-3.69942">
        <ele>31</ele>
        <time>2021-08-12T13:28:00Z</time>
      </trkpt>
      <trkpt lat="47.8534" lon="-3.69934">
        <ele>31</ele>
        <time>2021-08-12T13:28:01Z</time>
      </trkpt>
      <trkpt lat="47.85337" lon="-3.69925">
        <ele>31</ele>
        <time>2021-08-12T13:28:02Z</time>
      </trkpt>
      <trkpt lat="47.85334" lon="-3.69917">
        <ele>31</ele>
        <time>2021-08-12T13:28:03Z</time>
      </trkpt>
      <trkpt lat="47.85332" lon="-3.69908">
        <ele>31</ele>
        <time>2021-08-12T13:28:04Z</time>
      </trkpt>
      <trkpt lat="47.85329" lon="-3.69899">
        <ele>31</ele>
        <time>2021-08-12T13:28:05Z</time>
      </trkpt>
      <trkpt lat="47.85326" lon="-3.69891">
        <ele>31</ele>
        <time>2021-08-12T13:28:06Z</time>
      </trkpt>
      <trkpt lat="47.85323" lon="-3.69883">
        <ele>31</ele>
        <time>2021-08-12T13:28:07Z</time>
      </trkpt>
      <trkpt lat="47.85321" lon="-3.69875">
        <ele>31.2</ele>
        <time>2021-08-12T13:28:08Z</time>
      </trkpt>
      <trkpt lat="47.85316" lon="-3.6986">
        <ele>31.4</ele>
        <time>2021-08-12T13:28:10Z</time>
      </trkpt>
      <trkpt lat="47.85313" lon="-3.69852">
        <ele>31.4</ele>
        <time>2021-08-12T13:28:11Z</time>
      </trkpt>
      <trkpt lat="47.85311" lon="-3.69845">
        <ele>31.4</ele>
        <time>2021-08-12T13:28:12Z</time>
      </trkpt>
      <trkpt lat="47.85309" lon="-3.69838">
        <ele>31.6</ele>
        <time>2021-08-12T13:28:13Z</time>
      </trkpt>
      <trkpt lat="47.85307" lon="-3.69831">
        <ele>31.8</ele>
        <time>2021-08-12T13:28:14Z</time>
      </trkpt>
      <trkpt lat="47.85305" lon="-3.69824">
        <ele>32</ele>
        <time>2021-08-12T13:28:15Z</time>
      </trkpt>
      <trkpt lat="47.85303" lon="-3.69818">
        <ele>32</ele>
        <time>2021-08-12T13:28:16Z</time>
      </trkpt>
      <trkpt lat="47.853" lon="-3.69811">
        <ele>32.4</ele>
        <time>2021-08-12T13:28:17Z</time>
      </trkpt>
      <trkpt lat="47.85298" lon="-3.69805">
        <ele>32.6</ele>
        <time>2021-08-12T13:28:18Z</time>
      </trkpt>
      <trkpt lat="47.85296" lon="-3.69799">
        <ele>33</ele>
        <time>2021-08-12T13:28:19Z</time>
      </trkpt>
      <trkpt lat="47.85292" lon="-3.69786">
        <ele>33.2</ele>
        <time>2021-08-12T13:28:21Z</time>
      </trkpt>
      <trkpt lat="47.8529" lon="-3.69781">
        <ele>33.4</ele>
        <time>2021-08-12T13:28:22Z</time>
      </trkpt>
      <trkpt lat="47.85289" lon="-3.69775">
        <ele>33.4</ele>
        <time>2021-08-12T13:28:23Z</time>
      </trkpt>
      <trkpt lat="47.85287" lon="-3.69769">
        <ele>33.6</ele>
        <time>2021-08-12T13:28:24Z</time>
      </trkpt>
      <trkpt lat="47.85285" lon="-3.69763">
        <ele>33.8</ele>
        <time>2021-08-12T13:28:25Z</time>
      </trkpt>
      <trkpt lat="47.85283" lon="-3.69757">
        <ele>33.8</ele>
        <time>2021-08-12T13:28:26Z</time>
      </trkpt>
      <trkpt lat="47.85281" lon="-3.69751">
        <ele>34</ele>
        <time>2021-08-12T13:28:27Z</time>
      </trkpt>
      <trkpt lat="47.85279" lon="-3.69745">
        <ele>34.2</ele>
        <time>2021-08-12T13:28:28Z</time>
      </trkpt>
      <trkpt lat="47.85277" lon="-3.69739">
        <ele>34.2</ele>
        <time>2021-08-12T13:28:29Z</time>
      </trkpt>
      <trkpt lat="47.85275" lon="-3.69733">
        <ele>34.4</ele>
        <time>2021-08-12T13:28:30Z</time>
      </trkpt>
      <trkpt lat="47.85273" lon="-3.69727">
        <ele>34.6</ele>
        <time>2021-08-12T13:28:31Z</time>
      </trkpt>
      <trkpt lat="47.85271" lon="-3.69721">
        <ele>34.8</ele>
        <time>2021-08-12T13:28:32Z</time>
      </trkpt>
      <trkpt lat="47.85269" lon="-3.69715">
        <ele>35</ele>
        <time>2021-08-12T13:28:33Z</time>
      </trkpt>
      <trkpt lat="47.85268" lon="-3.69709">
        <ele>35.2</ele>
        <time>2021-08-12T13:28:34Z</time>
      </trkpt>
      <trkpt lat="47.85266" lon="-3.69704">
        <ele>35.4</ele>
        <time>2021-08-12T13:28:35Z</time>
      </trkpt>
      <trkpt lat="47.85263" lon="-3.69698">
        <ele>35.4</ele>
        <time>2021-08-12T13:28:36Z</time>
      </trkpt>
      <trkpt lat="47.85261" lon="-3.69693">
        <ele>35.6</ele>
        <time>2021-08-12T13:28:37Z</time>
      </trkpt>
      <trkpt lat="47.85259" lon="-3.69688">
        <ele>35.8</ele>
        <time>2021-08-12T13:28:38Z</time>
      </trkpt>
      <trkpt lat="47.85257" lon="-3.69683">
        <ele>35.8</ele>
        <time>2021-08-12T13:28:39Z</time>
      </trkpt>
      <trkpt lat="47.85256" lon="-3.69678">
        <ele>36</ele>
        <time>2021-08-12T13:28:40Z</time>
      </trkpt>
      <trkpt lat="47.85254" lon="-3.69673">
        <ele>36</ele>
        <time>2021-08-12T13:28:41Z</time>
      </trkpt>
      <trkpt lat="47.85251" lon="-3.69663">
        <ele>36.2</ele>
        <time>2021-08-12T13:28:43Z</time>
      </trkpt>
      <trkpt lat="47.8525" lon="-3.69658">
        <ele>36.4</ele>
        <time>2021-08-12T13:28:44Z</time>
      </trkpt>
      <trkpt lat="47.85248" lon="-3.69653">
        <ele>36.4</ele>
        <time>2021-08-12T13:28:45Z</time>
      </trkpt>
      <trkpt lat="47.85247" lon="-3.69648">
        <ele>36.4</ele>
        <time>2021-08-12T13:28:46Z</time>
      </trkpt>
      <trkpt lat="47.85245" lon="-3.69644">
        <ele>36.4</ele>
        <time>2021-08-12T13:28:47Z</time>
      </trkpt>
      <trkpt lat="47.85243" lon="-3.6964">
        <ele>36.6</ele>
        <time>2021-08-12T13:28:48Z</time>
      </trkpt>
      <trkpt lat="47.85242" lon="-3.69635">
        <ele>36.6</ele>
        <time>2021-08-12T13:28:49Z</time>
      </trkpt>
      <trkpt lat="47.8524" lon="-3.69631">
        <ele>36.8</ele>
        <time>2021-08-12T13:28:50Z</time>
      </trkpt>
      <trkpt lat="47.85239" lon="-3.69627">
        <ele>36.8</ele>
        <time>2021-08-12T13:28:51Z</time>
      </trkpt>
      <trkpt lat="47.85238" lon="-3.69623">
        <ele>36.8</ele>
        <time>2021-08-12T13:28:52Z</time>
      </trkpt>
      <trkpt lat="47.85236" lon="-3.69617">
        <ele>37.2</ele>
        <time>2021-08-12T13:28:54Z</time>
      </trkpt>
      <trkpt lat="47.85235" lon="-3.69614">
        <ele>37.2</ele>
        <time>2021-08-12T13:28:55Z</time>
      </trkpt>
      <trkpt lat="47.85234" lon="-3.69611">
        <ele>37.4</ele>
        <time>2021-08-12T13:28:56Z</time>
      </trkpt>
      <trkpt lat="47.85232" lon="-3.69608">
        <ele>37.4</ele>
        <time>2021-08-12T13:28:57Z</time>
      </trkpt>
      <trkpt lat="47.85231" lon="-3.69606">
        <ele>37.6</ele>
        <time>2021-08-12T13:28:58Z</time>
      </trkpt>
      <trkpt lat="47.8523" lon="-3.69604">
        <ele>37.6</ele>
        <time>2021-08-12T13:28:59Z</time>
      </trkpt>
      <trkpt lat="47.85229" lon="-3.69603">
        <ele>38</ele>
        <time>2021-08-12T13:29:00Z</time>
      </trkpt>
      <trkpt lat="47.85227" lon="-3.69602">
        <ele>38</ele>
        <time>2021-08-12T13:29:01Z</time>
      </trkpt>
      <trkpt lat="47.85226" lon="-3.69602">
        <ele>38.2</ele>
        <time>2021-08-12T13:29:02Z</time>
      </trkpt>
      <trkpt lat="47.85225" lon="-3.69602">
        <ele>38.2</ele>
        <time>2021-08-12T13:29:03Z</time>
      </trkpt>
      <trkpt lat="47.85224" lon="-3.69602">
        <ele>38.2</ele>
        <time>2021-08-12T13:29:04Z</time>
      </trkpt>
      <trkpt lat="47.85222" lon="-3.69598">
        <ele>38.8</ele>
        <time>2021-08-12T13:31:34Z</time>
      </trkpt>
      <trkpt lat="47.85222" lon="-3.69596">
        <ele>38.8</ele>
        <time>2021-08-12T13:31:35Z</time>
      </trkpt>
      <trkpt lat="47.85222" lon="-3.69594">
        <ele>38.8</ele>
        <time>2021-08-12T13:31:36Z</time>
      </trkpt>
      <trkpt lat="47.85223" lon="-3.69591">
        <ele>38.6</ele>
        <time>2021-08-12T13:31:37Z</time>
      </trkpt>
      <trkpt lat="47.85223" lon="-3.69581">
        <ele>38.6</ele>
        <time>2021-08-12T13:31:39Z</time>
      </trkpt>
      <trkpt lat="47.85223" lon="-3.69575">
        <ele>38.6</ele>
        <time>2021-08-12T13:31:40Z</time>
      </trkpt>
      <trkpt lat="47.85222" lon="-3.6957">
        <ele>38.6</ele>
        <time>2021-08-12T13:31:41Z</time>
      </trkpt>
      <trkpt lat="47.8522" lon="-3.69565">
        <ele>38.6</ele>
        <time>2021-08-12T13:31:42Z</time>
      </trkpt>
      <trkpt lat="47.85219" lon="-3.6956">
        <ele>38.6</ele>
        <time>2021-08-12T13:31:43Z</time>
      </trkpt>
      <trkpt lat="47.85217" lon="-3.69556">
        <ele>38.4</ele>
        <time>2021-08-12T13:31:44Z</time>
      </trkpt>
      <trkpt lat="47.85216" lon="-3.69551">
        <ele>38.4</ele>
        <time>2021-08-12T13:31:45Z</time>
      </trkpt>
      <trkpt lat="47.85213" lon="-3.69543">
        <ele>38</ele>
        <time>2021-08-12T13:31:47Z</time>
      </trkpt>
      <trkpt lat="47.85211" lon="-3.69538">
        <ele>38</ele>
        <time>2021-08-12T13:31:48Z</time>
      </trkpt>
      <trkpt lat="47.8521" lon="-3.69534">
        <ele>38</ele>
        <time>2021-08-12T13:31:49Z</time>
      </trkpt>
      <trkpt lat="47.85209" lon="-3.6953">
        <ele>37.8</ele>
        <time>2021-08-12T13:31:50Z</time>
      </trkpt>
      <trkpt lat="47.85207" lon="-3.69526">
        <ele>37.8</ele>
        <time>2021-08-12T13:31:51Z</time>
      </trkpt>
      <trkpt lat="47.85206" lon="-3.69521">
        <ele>37.8</ele>
        <time>2021-08-12T13:31:52Z</time>
      </trkpt>
      <trkpt lat="47.85204" lon="-3.69517">
        <ele>37.8</ele>
        <time>2021-08-12T13:31:53Z</time>
      </trkpt>
      <trkpt lat="47.85202" lon="-3.69512">
        <ele>37.8</ele>
        <time>2021-08-12T13:31:54Z</time>
      </trkpt>
      <trkpt lat="47.852" lon="-3.69508">
        <ele>37.8</ele>
        <time>2021-08-12T13:31:55Z</time>
      </trkpt>
      <trkpt lat="47.85198" lon="-3.69504">
        <ele>37.8</ele>
        <time>2021-08-12T13:31:56Z</time>
      </trkpt>
      <trkpt lat="47.85194" lon="-3.69495">
        <ele>38</ele>
        <time>2021-08-12T13:31:58Z</time>
      </trkpt>
      <trkpt lat="47.85192" lon="-3.69491">
        <ele>38</ele>
        <time>2021-08-12T13:31:59Z</time>
      </trkpt>
      <trkpt lat="47.8519" lon="-3.69486">
        <ele>38.2</ele>
        <time>2021-08-12T13:32:00Z</time>
      </trkpt>
      <trkpt lat="47.85188" lon="-3.69482">
        <ele>38.2</ele>
        <time>2021-08-12T13:32:01Z</time>
      </trkpt>
      <trkpt lat="47.85186" lon="-3.69477">
        <ele>38.4</ele>
        <time>2021-08-12T13:32:02Z</time>
      </trkpt>
      <trkpt lat="47.85184" lon="-3.69473">
        <ele>38.4</ele>
        <time>2021-08-12T13:32:03Z</time>
      </trkpt>
      <trkpt lat="47.85182" lon="-3.69468">
        <ele>38.6</ele>
        <time>2021-08-12T13:32:04Z</time>
      </trkpt>
      <trkpt lat="47.8518" lon="-3.69464">
        <ele>38.8</ele>
        <time>2021-08-12T13:32:05Z</time>
      </trkpt>
      <trkpt lat="47.85177" lon="-3.6946">
        <ele>39</ele>
        <time>2021-08-12T13:32:06Z</time>
      </trkpt>
      <trkpt lat="47.85175" lon="-3.69456">
        <ele>39.2</ele>
        <time>2021-08-12T13:32:07Z</time>
      </trkpt>
      <trkpt lat="47.85171" lon="-3.69449">
        <ele>39.4</ele>
        <time>2021-08-12T13:32:09Z</time>
      </trkpt>
      <trkpt lat="47.85168" lon="-3.69445">
        <ele>39.6</ele>
        <time>2021-08-12T13:32:10Z</time>
      </trkpt>
      <trkpt lat="47.85166" lon="-3.69442">
        <ele>39.6</ele>
        <time>2021-08-12T13:32:11Z</time>
      </trkpt>
      <trkpt lat="47.85164" lon="-3.69438">
        <ele>39.8</ele>
        <time>2021-08-12T13:32:12Z</time>
      </trkpt>
      <trkpt lat="47.85162" lon="-3.69433">
        <ele>39.8</ele>
        <time>2021-08-12T13:32:13Z</time>
      </trkpt>
      <trkpt lat="47.85159" lon="-3.69429">
        <ele>39.8</ele>
        <time>2021-08-12T13:32:14Z</time>
      </trkpt>
      <trkpt lat="47.85157" lon="-3.69426">
        <ele>40</ele>
        <time>2021-08-12T13:32:15Z</time>
      </trkpt>
      <trkpt lat="47.85154" lon="-3.69422">
        <ele>40.2</ele>
        <time>2021-08-12T13:32:16Z</time>
      </trkpt>
      <trkpt lat="47.85152" lon="-3.69418">
        <ele>40.4</ele>
        <time>2021-08-12T13:32:17Z</time>
      </trkpt>
      <trkpt lat="47.8515" lon="-3.69414">
        <ele>40.4</ele>
        <time>2021-08-12T13:32:18Z</time>
      </trkpt>
      <trkpt lat="47.85146" lon="-3.69408">
        <ele>40.6</ele>
        <time>2021-08-12T13:32:20Z</time>
      </trkpt>
      <trkpt lat="47.85144" lon="-3.69404">
        <ele>40.6</ele>
        <time>2021-08-12T13:32:21Z</time>
      </trkpt>
      <trkpt lat="47.85141" lon="-3.69401">
        <ele>40.6</ele>
        <time>2021-08-12T13:32:22Z</time>
      </trkpt>
      <trkpt lat="47.85139" lon="-3.69397">
        <ele>40.6</ele>
        <time>2021-08-12T13:32:23Z</time>
      </trkpt>
      <trkpt lat="47.85136" lon="-3.69393">
        <ele>40.6</ele>
        <time>2021-08-12T13:32:24Z</time>
      </trkpt>
      <trkpt lat="47.85134" lon="-3.6939">
        <ele>40.8</ele>
        <time>2021-08-12T13:32:25Z</time>
      </trkpt>
      <trkpt lat="47.85131" lon="-3.69386">
        <ele>40.8</ele>
        <time>2021-08-12T13:32:26Z</time>
      </trkpt>
      <trkpt lat="47.85128" lon="-3.69382">
        <ele>41</ele>
        <time>2021-08-12T13:32:27Z</time>
      </trkpt>
      <trkpt lat="47.85126" lon="-3.69379">
        <ele>41</ele>
        <time>2021-08-12T13:32:28Z</time>
      </trkpt>
      <trkpt lat="47.85123" lon="-3.69376">
        <ele>41</ele>
        <time>2021-08-12T13:32:29Z</time>
      </trkpt>
      <trkpt lat="47.85119" lon="-3.69371">
        <ele>41</ele>
        <time>2021-08-12T13:32:31Z</time>
      </trkpt>
      <trkpt lat="47.85117" lon="-3.69368">
        <ele>41.2</ele>
        <time>2021-08-12T13:32:32Z</time>
      </trkpt>
      <trkpt lat="47.85114" lon="-3.69365">
        <ele>41.4</ele>
        <time>2021-08-12T13:32:33Z</time>
      </trkpt>
      <trkpt lat="47.85112" lon="-3.69361">
        <ele>41.2</ele>
        <time>2021-08-12T13:32:34Z</time>
      </trkpt>
      <trkpt lat="47.85109" lon="-3.69358">
        <ele>41.8</ele>
        <time>2021-08-12T13:32:35Z</time>
      </trkpt>
      <trkpt lat="47.85107" lon="-3.69355">
        <ele>41.8</ele>
        <time>2021-08-12T13:32:36Z</time>
      </trkpt>
      <trkpt lat="47.85104" lon="-3.69352">
        <ele>42</ele>
        <time>2021-08-12T13:32:37Z</time>
      </trkpt>
      <trkpt lat="47.85101" lon="-3.69349">
        <ele>42.2</ele>
        <time>2021-08-12T13:32:38Z</time>
      </trkpt>
      <trkpt lat="47.85098" lon="-3.69345">
        <ele>42.4</ele>
        <time>2021-08-12T13:32:39Z</time>
      </trkpt>
      <trkpt lat="47.85095" lon="-3.69343">
        <ele>42.6</ele>
        <time>2021-08-12T13:32:40Z</time>
      </trkpt>
      <trkpt lat="47.8509" lon="-3.69337">
        <ele>42.8</ele>
        <time>2021-08-12T13:32:42Z</time>
      </trkpt>
      <trkpt lat="47.85087" lon="-3.69334">
        <ele>42.8</ele>
        <time>2021-08-12T13:32:43Z</time>
      </trkpt>
      <trkpt lat="47.85084" lon="-3.69332">
        <ele>42.8</ele>
        <time>2021-08-12T13:32:44Z</time>
      </trkpt>
      <trkpt lat="47.85081" lon="-3.69329">
        <ele>43</ele>
        <time>2021-08-12T13:32:45Z</time>
      </trkpt>
      <trkpt lat="47.85078" lon="-3.69326">
        <ele>43.2</ele>
        <time>2021-08-12T13:32:46Z</time>
      </trkpt>
      <trkpt lat="47.85076" lon="-3.69324">
        <ele>43.4</ele>
        <time>2021-08-12T13:32:47Z</time>
      </trkpt>
      <trkpt lat="47.85073" lon="-3.69321">
        <ele>43.6</ele>
        <time>2021-08-12T13:32:48Z</time>
      </trkpt>
      <trkpt lat="47.8507" lon="-3.69318">
        <ele>43.8</ele>
        <time>2021-08-12T13:32:49Z</time>
      </trkpt>
      <trkpt lat="47.85068" lon="-3.69315">
        <ele>43.8</ele>
        <time>2021-08-12T13:32:50Z</time>
      </trkpt>
      <trkpt lat="47.85065" lon="-3.69312">
        <ele>44</ele>
        <time>2021-08-12T13:32:51Z</time>
      </trkpt>
      <trkpt lat="47.85059" lon="-3.69308">
        <ele>44</ele>
        <time>2021-08-12T13:32:53Z</time>
      </trkpt>
      <trkpt lat="47.85056" lon="-3.69306">
        <ele>44.2</ele>
        <time>2021-08-12T13:32:54Z</time>
      </trkpt>
      <trkpt lat="47.85053" lon="-3.69304">
        <ele>44.2</ele>
        <time>2021-08-12T13:32:55Z</time>
      </trkpt>
      <trkpt lat="47.8505" lon="-3.69302">
        <ele>44.4</ele>
        <time>2021-08-12T13:32:56Z</time>
      </trkpt>
      <trkpt lat="47.85047" lon="-3.69299">
        <ele>44.4</ele>
        <time>2021-08-12T13:32:57Z</time>
      </trkpt>
      <trkpt lat="47.85044" lon="-3.69298">
        <ele>44.6</ele>
        <time>2021-08-12T13:32:58Z</time>
      </trkpt>
      <trkpt lat="47.85041" lon="-3.69296">
        <ele>44.6</ele>
        <time>2021-08-12T13:32:59Z</time>
      </trkpt>
      <trkpt lat="47.85038" lon="-3.69295">
        <ele>44.6</ele>
        <time>2021-08-12T13:33:00Z</time>
      </trkpt>
      <trkpt lat="47.85035" lon="-3.69293">
        <ele>44.8</ele>
        <time>2021-08-12T13:33:01Z</time>
      </trkpt>
      <trkpt lat="47.85032" lon="-3.69291">
        <ele>44.8</ele>
        <time>2021-08-12T13:33:02Z</time>
      </trkpt>
      <trkpt lat="47.8503" lon="-3.69289">
        <ele>45</ele>
        <time>2021-08-12T13:33:03Z</time>
      </trkpt>
      <trkpt lat="47.85027" lon="-3.69287">
        <ele>45.2</ele>
        <time>2021-08-12T13:33:04Z</time>
      </trkpt>
      <trkpt lat="47.85024" lon="-3.69285">
        <ele>45.2</ele>
        <time>2021-08-12T13:33:05Z</time>
      </trkpt>
      <trkpt lat="47.85021" lon="-3.69284">
        <ele>45.4</ele>
        <time>2021-08-12T13:33:06Z</time>
      </trkpt>
      <trkpt lat="47.85018" lon="-3.69282">
        <ele>45.4</ele>
        <time>2021-08-12T13:33:07Z</time>
      </trkpt>
      <trkpt lat="47.85015" lon="-3.6928">
        <ele>45.4</ele>
        <time>2021-08-12T13:33:08Z</time>
      </trkpt>
      <trkpt lat="47.85012" lon="-3.69278">
        <ele>45.4</ele>
        <time>2021-08-12T13:33:09Z</time>
      </trkpt>
      <trkpt lat="47.85009" lon="-3.69277">
        <ele>45.6</ele>
        <time>2021-08-12T13:33:10Z</time>
      </trkpt>
      <trkpt lat="47.85006" lon="-3.69275">
        <ele>45.6</ele>
        <time>2021-08-12T13:33:11Z</time>
      </trkpt>
      <trkpt lat="47.85003" lon="-3.69274">
        <ele>45.6</ele>
        <time>2021-08-12T13:33:12Z</time>
      </trkpt>
      <trkpt lat="47.85" lon="-3.69272">
        <ele>45.6</ele>
        <time>2021-08-12T13:33:13Z</time>
      </trkpt>
      <trkpt lat="47.84997" lon="-3.6927">
        <ele>45.6</ele>
        <time>2021-08-12T13:33:14Z</time>
      </trkpt>
      <trkpt lat="47.84994" lon="-3.69269">
        <ele>45.6</ele>
        <time>2021-08-12T13:33:15Z</time>
      </trkpt>
      <trkpt lat="47.84991" lon="-3.69267">
        <ele>45.6</ele>
        <time>2021-08-12T13:33:16Z</time>
      </trkpt>
      <trkpt lat="47.84988" lon="-3.69264">
        <ele>45.8</ele>
        <time>2021-08-12T13:33:17Z</time>
      </trkpt>
      <trkpt lat="47.84985" lon="-3.69263">
        <ele>45.8</ele>
        <time>2021-08-12T13:33:18Z</time>
      </trkpt>
      <trkpt lat="47.84982" lon="-3.69261">
        <ele>45.8</ele>
        <time>2021-08-12T13:33:19Z</time>
      </trkpt>
      <trkpt lat="47.84979" lon="-3.6926">
        <ele>45.8</ele>
        <time>2021-08-12T13:33:20Z</time>
      </trkpt>
      <trkpt lat="47.84976" lon="-3.69259">
        <ele>45.8</ele>
        <time>2021-08-12T13:33:21Z</time>
      </trkpt>
      <trkpt lat="47.84973" lon="-3.69258">
        <ele>46</ele>
        <time>2021-08-12T13:33:22Z</time>
      </trkpt>
      <trkpt lat="47.8497" lon="-3.69257">
        <ele>46</ele>
        <time>2021-08-12T13:33:23Z</time>
      </trkpt>
      <trkpt lat="47.84967" lon="-3.69255">
        <ele>46</ele>
        <time>2021-08-12T13:33:24Z</time>
      </trkpt>
      <trkpt lat="47.84961" lon="-3.69252">
        <ele>46.2</ele>
        <time>2021-08-12T13:33:26Z</time>
      </trkpt>
      <trkpt lat="47.84958" lon="-3.69251">
        <ele>46.2</ele>
        <time>2021-08-12T13:33:27Z</time>
      </trkpt>
      <trkpt lat="47.84955" lon="-3.69249">
        <ele>46.4</ele>
        <time>2021-08-12T13:33:28Z</time>
      </trkpt>
      <trkpt lat="47.84952" lon="-3.69247">
        <ele>46.4</ele>
        <time>2021-08-12T13:33:29Z</time>
      </trkpt>
      <trkpt lat="47.84949" lon="-3.69246">
        <ele>46.6</ele>
        <time>2021-08-12T13:33:30Z</time>
      </trkpt>
      <trkpt lat="47.84946" lon="-3.69245">
        <ele>46.6</ele>
        <time>2021-08-12T13:33:31Z</time>
      </trkpt>
      <trkpt lat="47.84942" lon="-3.69243">
        <ele>46.6</ele>
        <time>2021-08-12T13:33:32Z</time>
      </trkpt>
      <trkpt lat="47.84939" lon="-3.69241">
        <ele>46.8</ele>
        <time>2021-08-12T13:33:33Z</time>
      </trkpt>
      <trkpt lat="47.84937" lon="-3.69239">
        <ele>47</ele>
        <time>2021-08-12T13:33:34Z</time>
      </trkpt>
      <trkpt lat="47.84934" lon="-3.69237">
        <ele>47</ele>
        <time>2021-08-12T13:33:35Z</time>
      </trkpt>
      <trkpt lat="47.84928" lon="-3.69234">
        <ele>47.2</ele>
        <time>2021-08-12T13:33:37Z</time>
      </trkpt>
      <trkpt lat="47.84925" lon="-3.69233">
        <ele>47.2</ele>
        <time>2021-08-12T13:33:38Z</time>
      </trkpt>
      <trkpt lat="47.84923" lon="-3.69231">
        <ele>47.4</ele>
        <time>2021-08-12T13:33:39Z</time>
      </trkpt>
      <trkpt lat="47.8492" lon="-3.6923">
        <ele>47.4</ele>
        <time>2021-08-12T13:33:40Z</time>
      </trkpt>
      <trkpt lat="47.84917" lon="-3.69228">
        <ele>47.6</ele>
        <time>2021-08-12T13:33:41Z</time>
      </trkpt>
      <trkpt lat="47.84914" lon="-3.69226">
        <ele>47.8</ele>
        <time>2021-08-12T13:33:42Z</time>
      </trkpt>
      <trkpt lat="47.84911" lon="-3.69225">
        <ele>48</ele>
        <time>2021-08-12T13:33:43Z</time>
      </trkpt>
      <trkpt lat="47.84908" lon="-3.69223">
        <ele>48</ele>
        <time>2021-08-12T13:33:44Z</time>
      </trkpt>
      <trkpt lat="47.84905" lon="-3.69221">
        <ele>48.2</ele>
        <time>2021-08-12T13:33:45Z</time>
      </trkpt>
      <trkpt lat="47.84902" lon="-3.69219">
        <ele>48.4</ele>
        <time>2021-08-12T13:33:46Z</time>
      </trkpt>
      <trkpt lat="47.84895" lon="-3.69216">
        <ele>48.6</ele>
        <time>2021-08-12T13:33:48Z</time>
      </trkpt>
      <trkpt lat="47.84892" lon="-3.69214">
        <ele>48.6</ele>
        <time>2021-08-12T13:33:49Z</time>
      </trkpt>
      <trkpt lat="47.84889" lon="-3.69211">
        <ele>48.6</ele>
        <time>2021-08-12T13:33:50Z</time>
      </trkpt>
      <trkpt lat="47.84885" lon="-3.69209">
        <ele>48.8</ele>
        <time>2021-08-12T13:33:51Z</time>
      </trkpt>
      <trkpt lat="47.84881" lon="-3.69208">
        <ele>48.8</ele>
        <time>2021-08-12T13:33:52Z</time>
      </trkpt>
      <trkpt lat="47.84878" lon="-3.69206">
        <ele>48.8</ele>
        <time>2021-08-12T13:33:53Z</time>
      </trkpt>
      <trkpt lat="47.84874" lon="-3.69204">
        <ele>49</ele>
        <time>2021-08-12T13:33:54Z</time>
      </trkpt>
      <trkpt lat="47.8487" lon="-3.69202">
        <ele>49</ele>
        <time>2021-08-12T13:33:55Z</time>
      </trkpt>
      <trkpt lat="47.84867" lon="-3.692">
        <ele>49</ele>
        <time>2021-08-12T13:33:56Z</time>
      </trkpt>
      <trkpt lat="47.84864" lon="-3.69198">
        <ele>49.2</ele>
        <time>2021-08-12T13:33:57Z</time>
      </trkpt>
      <trkpt lat="47.84857" lon="-3.69194">
        <ele>49.2</ele>
        <time>2021-08-12T13:33:59Z</time>
      </trkpt>
      <trkpt lat="47.84855" lon="-3.69193">
        <ele>49.4</ele>
        <time>2021-08-12T13:34:00Z</time>
      </trkpt>
      <trkpt lat="47.84852" lon="-3.69191">
        <ele>49.4</ele>
        <time>2021-08-12T13:34:01Z</time>
      </trkpt>
      <trkpt lat="47.84849" lon="-3.69189">
        <ele>49.4</ele>
        <time>2021-08-12T13:34:02Z</time>
      </trkpt>
      <trkpt lat="47.84846" lon="-3.69186">
        <ele>49.6</ele>
        <time>2021-08-12T13:34:03Z</time>
      </trkpt>
      <trkpt lat="47.84844" lon="-3.69185">
        <ele>49.6</ele>
        <time>2021-08-12T13:34:04Z</time>
      </trkpt>
      <trkpt lat="47.84841" lon="-3.69183">
        <ele>49.8</ele>
        <time>2021-08-12T13:34:05Z</time>
      </trkpt>
      <trkpt lat="47.84838" lon="-3.69182">
        <ele>49.8</ele>
        <time>2021-08-12T13:34:06Z</time>
      </trkpt>
      <trkpt lat="47.84834" lon="-3.69181">
        <ele>50</ele>
        <time>2021-08-12T13:34:07Z</time>
      </trkpt>
      <trkpt lat="47.84831" lon="-3.69179">
        <ele>50</ele>
        <time>2021-08-12T13:34:08Z</time>
      </trkpt>
      <trkpt lat="47.84827" lon="-3.69178">
        <ele>50.2</ele>
        <time>2021-08-12T13:34:09Z</time>
      </trkpt>
      <trkpt lat="47.84824" lon="-3.69176">
        <ele>50.2</ele>
        <time>2021-08-12T13:34:10Z</time>
      </trkpt>
      <trkpt lat="47.8482" lon="-3.69173">
        <ele>50.2</ele>
        <time>2021-08-12T13:34:11Z</time>
      </trkpt>
      <trkpt lat="47.84816" lon="-3.69171">
        <ele>50.4</ele>
        <time>2021-08-12T13:34:12Z</time>
      </trkpt>
      <trkpt lat="47.84812" lon="-3.6917">
        <ele>50.4</ele>
        <time>2021-08-12T13:34:13Z</time>
      </trkpt>
      <trkpt lat="47.84809" lon="-3.69168">
        <ele>50.4</ele>
        <time>2021-08-12T13:34:14Z</time>
      </trkpt>
      <trkpt lat="47.84805" lon="-3.69166">
        <ele>50.4</ele>
        <time>2021-08-12T13:34:15Z</time>
      </trkpt>
      <trkpt lat="47.84801" lon="-3.69164">
        <ele>50.4</ele>
        <time>2021-08-12T13:34:16Z</time>
      </trkpt>
      <trkpt lat="47.84798" lon="-3.69162">
        <ele>50.4</ele>
        <time>2021-08-12T13:34:17Z</time>
      </trkpt>
      <trkpt lat="47.84795" lon="-3.6916">
        <ele>50.6</ele>
        <time>2021-08-12T13:34:18Z</time>
      </trkpt>
      <trkpt lat="47.84792" lon="-3.69159">
        <ele>50.6</ele>
        <time>2021-08-12T13:34:19Z</time>
      </trkpt>
      <trkpt lat="47.84789" lon="-3.69158">
        <ele>50.8</ele>
        <time>2021-08-12T13:34:20Z</time>
      </trkpt>
      <trkpt lat="47.84786" lon="-3.69156">
        <ele>50.8</ele>
        <time>2021-08-12T13:34:21Z</time>
      </trkpt>
      <trkpt lat="47.84783" lon="-3.69155">
        <ele>51</ele>
        <time>2021-08-12T13:34:22Z</time>
      </trkpt>
      <trkpt lat="47.8478" lon="-3.69154">
        <ele>51.2</ele>
        <time>2021-08-12T13:34:23Z</time>
      </trkpt>
      <trkpt lat="47.84777" lon="-3.69152">
        <ele>51.2</ele>
        <time>2021-08-12T13:34:24Z</time>
      </trkpt>
      <trkpt lat="47.84773" lon="-3.6915">
        <ele>51.4</ele>
        <time>2021-08-12T13:34:25Z</time>
      </trkpt>
      <trkpt lat="47.8477" lon="-3.69148">
        <ele>51.4</ele>
        <time>2021-08-12T13:34:26Z</time>
      </trkpt>
      <trkpt lat="47.84767" lon="-3.69146">
        <ele>51.4</ele>
        <time>2021-08-12T13:34:27Z</time>
      </trkpt>
      <trkpt lat="47.84763" lon="-3.69145">
        <ele>51.6</ele>
        <time>2021-08-12T13:34:28Z</time>
      </trkpt>
      <trkpt lat="47.8476" lon="-3.69143">
        <ele>51.6</ele>
        <time>2021-08-12T13:34:29Z</time>
      </trkpt>
      <trkpt lat="47.84757" lon="-3.69142">
        <ele>51.8</ele>
        <time>2021-08-12T13:34:30Z</time>
      </trkpt>
      <trkpt lat="47.8475" lon="-3.69139">
        <ele>52.2</ele>
        <time>2021-08-12T13:34:32Z</time>
      </trkpt>
      <trkpt lat="47.84747" lon="-3.69137">
        <ele>52.2</ele>
        <time>2021-08-12T13:34:33Z</time>
      </trkpt>
      <trkpt lat="47.84744" lon="-3.69136">
        <ele>52.2</ele>
        <time>2021-08-12T13:34:34Z</time>
      </trkpt>
      <trkpt lat="47.84741" lon="-3.69134">
        <ele>52.4</ele>
        <time>2021-08-12T13:34:35Z</time>
      </trkpt>
      <trkpt lat="47.84738" lon="-3.69132">
        <ele>52.6</ele>
        <time>2021-08-12T13:34:36Z</time>
      </trkpt>
      <trkpt lat="47.84734" lon="-3.6913">
        <ele>52.6</ele>
        <time>2021-08-12T13:34:37Z</time>
      </trkpt>
      <trkpt lat="47.84731" lon="-3.69128">
        <ele>52.8</ele>
        <time>2021-08-12T13:34:38Z</time>
      </trkpt>
      <trkpt lat="47.84729" lon="-3.69128">
        <ele>52.8</ele>
        <time>2021-08-12T13:34:39Z</time>
      </trkpt>
      <trkpt lat="47.84727" lon="-3.69127">
        <ele>53</ele>
        <time>2021-08-12T13:34:40Z</time>
      </trkpt>
      <trkpt lat="47.84724" lon="-3.69125">
        <ele>53</ele>
        <time>2021-08-12T13:34:41Z</time>
      </trkpt>
      <trkpt lat="47.84718" lon="-3.69122">
        <ele>53.2</ele>
        <time>2021-08-12T13:34:43Z</time>
      </trkpt>
      <trkpt lat="47.84716" lon="-3.69121">
        <ele>53.2</ele>
        <time>2021-08-12T13:34:44Z</time>
      </trkpt>
      <trkpt lat="47.84713" lon="-3.69119">
        <ele>53.4</ele>
        <time>2021-08-12T13:34:45Z</time>
      </trkpt>
      <trkpt lat="47.8471" lon="-3.69117">
        <ele>53.6</ele>
        <time>2021-08-12T13:34:46Z</time>
      </trkpt>
      <trkpt lat="47.84708" lon="-3.69114">
        <ele>53.6</ele>
        <time>2021-08-12T13:34:47Z</time>
      </trkpt>
      <trkpt lat="47.84705" lon="-3.69112">
        <ele>53.6</ele>
        <time>2021-08-12T13:34:48Z</time>
      </trkpt>
      <trkpt lat="47.84702" lon="-3.69108">
        <ele>53.6</ele>
        <time>2021-08-12T13:34:49Z</time>
      </trkpt>
      <trkpt lat="47.84699" lon="-3.69106">
        <ele>53.8</ele>
        <time>2021-08-12T13:34:50Z</time>
      </trkpt>
      <trkpt lat="47.84696" lon="-3.69104">
        <ele>53.8</ele>
        <time>2021-08-12T13:34:51Z</time>
      </trkpt>
      <trkpt lat="47.84693" lon="-3.69101">
        <ele>53.8</ele>
        <time>2021-08-12T13:34:52Z</time>
      </trkpt>
      <trkpt lat="47.84687" lon="-3.69095">
        <ele>53.8</ele>
        <time>2021-08-12T13:34:54Z</time>
      </trkpt>
      <trkpt lat="47.84684" lon="-3.69093">
        <ele>53.8</ele>
        <time>2021-08-12T13:34:55Z</time>
      </trkpt>
      <trkpt lat="47.84682" lon="-3.69091">
        <ele>53.8</ele>
        <time>2021-08-12T13:34:56Z</time>
      </trkpt>
      <trkpt lat="47.84679" lon="-3.69087">
        <ele>54</ele>
        <time>2021-08-12T13:34:57Z</time>
      </trkpt>
      <trkpt lat="47.84677" lon="-3.69084">
        <ele>54</ele>
        <time>2021-08-12T13:34:58Z</time>
      </trkpt>
      <trkpt lat="47.84675" lon="-3.69082">
        <ele>54.2</ele>
        <time>2021-08-12T13:34:59Z</time>
      </trkpt>
      <trkpt lat="47.84672" lon="-3.69079">
        <ele>54.4</ele>
        <time>2021-08-12T13:35:00Z</time>
      </trkpt>
      <trkpt lat="47.8467" lon="-3.69076">
        <ele>54.4</ele>
        <time>2021-08-12T13:35:01Z</time>
      </trkpt>
      <trkpt lat="47.84668" lon="-3.69074">
        <ele>54.6</ele>
        <time>2021-08-12T13:35:02Z</time>
      </trkpt>
      <trkpt lat="47.84666" lon="-3.69071">
        <ele>54.6</ele>
        <time>2021-08-12T13:35:03Z</time>
      </trkpt>
      <trkpt lat="47.84661" lon="-3.69064">
        <ele>54.8</ele>
        <time>2021-08-12T13:35:05Z</time>
      </trkpt>
      <trkpt lat="47.84658" lon="-3.6906">
        <ele>55</ele>
        <time>2021-08-12T13:35:06Z</time>
      </trkpt>
      <trkpt lat="47.84656" lon="-3.69055">
        <ele>55</ele>
        <time>2021-08-12T13:35:07Z</time>
      </trkpt>
      <trkpt lat="47.84653" lon="-3.69052">
        <ele>55.2</ele>
        <time>2021-08-12T13:35:08Z</time>
      </trkpt>
      <trkpt lat="47.84651" lon="-3.69048">
        <ele>55.2</ele>
        <time>2021-08-12T13:35:09Z</time>
      </trkpt>
      <trkpt lat="47.84649" lon="-3.69043">
        <ele>55.2</ele>
        <time>2021-08-12T13:35:10Z</time>
      </trkpt>
      <trkpt lat="47.84646" lon="-3.69039">
        <ele>55.2</ele>
        <time>2021-08-12T13:35:11Z</time>
      </trkpt>
      <trkpt lat="47.84643" lon="-3.69033">
        <ele>55.2</ele>
        <time>2021-08-12T13:35:12Z</time>
      </trkpt>
      <trkpt lat="47.84642" lon="-3.69029">
        <ele>55.4</ele>
        <time>2021-08-12T13:35:13Z</time>
      </trkpt>
      <trkpt lat="47.8464" lon="-3.69025">
        <ele>55.4</ele>
        <time>2021-08-12T13:35:14Z</time>
      </trkpt>
      <trkpt lat="47.84637" lon="-3.69019">
        <ele>55.4</ele>
        <time>2021-08-12T13:35:15Z</time>
      </trkpt>
      <trkpt lat="47.84635" lon="-3.69014">
        <ele>55.4</ele>
        <time>2021-08-12T13:35:16Z</time>
      </trkpt>
      <trkpt lat="47.84632" lon="-3.69008">
        <ele>55.4</ele>
        <time>2021-08-12T13:35:17Z</time>
      </trkpt>
      <trkpt lat="47.84629" lon="-3.69002">
        <ele>55.6</ele>
        <time>2021-08-12T13:35:18Z</time>
      </trkpt>
      <trkpt lat="47.84627" lon="-3.68995">
        <ele>55.8</ele>
        <time>2021-08-12T13:35:19Z</time>
      </trkpt>
      <trkpt lat="47.84624" lon="-3.68988">
        <ele>55.8</ele>
        <time>2021-08-12T13:35:20Z</time>
      </trkpt>
      <trkpt lat="47.84622" lon="-3.68982">
        <ele>55.8</ele>
        <time>2021-08-12T13:35:21Z</time>
      </trkpt>
      <trkpt lat="47.8462" lon="-3.68975">
        <ele>55.8</ele>
        <time>2021-08-12T13:35:22Z</time>
      </trkpt>
      <trkpt lat="47.84618" lon="-3.68969">
        <ele>55.8</ele>
        <time>2021-08-12T13:35:23Z</time>
      </trkpt>
      <trkpt lat="47.84616" lon="-3.68962">
        <ele>55.8</ele>
        <time>2021-08-12T13:35:24Z</time>
      </trkpt>
      <trkpt lat="47.84614" lon="-3.68956">
        <ele>56</ele>
        <time>2021-08-12T13:35:25Z</time>
      </trkpt>
      <trkpt lat="47.8461" lon="-3.68944">
        <ele>56</ele>
        <time>2021-08-12T13:35:27Z</time>
      </trkpt>
      <trkpt lat="47.84608" lon="-3.68938">
        <ele>56</ele>
        <time>2021-08-12T13:35:28Z</time>
      </trkpt>
      <trkpt lat="47.84607" lon="-3.68932">
        <ele>56</ele>
        <time>2021-08-12T13:35:29Z</time>
      </trkpt>
      <trkpt lat="47.84606" lon="-3.68926">
        <ele>56.2</ele>
        <time>2021-08-12T13:35:30Z</time>
      </trkpt>
      <trkpt lat="47.84605" lon="-3.6892">
        <ele>56.2</ele>
        <time>2021-08-12T13:35:31Z</time>
      </trkpt>
      <trkpt lat="47.84604" lon="-3.68915">
        <ele>56.2</ele>
        <time>2021-08-12T13:35:32Z</time>
      </trkpt>
      <trkpt lat="47.84602" lon="-3.68909">
        <ele>56.4</ele>
        <time>2021-08-12T13:35:33Z</time>
      </trkpt>
      <trkpt lat="47.84601" lon="-3.68903">
        <ele>56.4</ele>
        <time>2021-08-12T13:35:34Z</time>
      </trkpt>
      <trkpt lat="47.84599" lon="-3.68897">
        <ele>56.6</ele>
        <time>2021-08-12T13:35:35Z</time>
      </trkpt>
      <trkpt lat="47.84597" lon="-3.68891">
        <ele>56.6</ele>
        <time>2021-08-12T13:35:36Z</time>
      </trkpt>
      <trkpt lat="47.84594" lon="-3.6888">
        <ele>56.8</ele>
        <time>2021-08-12T13:35:38Z</time>
      </trkpt>
      <trkpt lat="47.84592" lon="-3.68874">
        <ele>56.8</ele>
        <time>2021-08-12T13:35:39Z</time>
      </trkpt>
      <trkpt lat="47.84591" lon="-3.68868">
        <ele>56.8</ele>
        <time>2021-08-12T13:35:40Z</time>
      </trkpt>
      <trkpt lat="47.8459" lon="-3.68862">
        <ele>57</ele>
        <time>2021-08-12T13:35:41Z</time>
      </trkpt>
      <trkpt lat="47.84588" lon="-3.68856">
        <ele>57</ele>
        <time>2021-08-12T13:35:42Z</time>
      </trkpt>
      <trkpt lat="47.84587" lon="-3.6885">
        <ele>57</ele>
        <time>2021-08-12T13:35:43Z</time>
      </trkpt>
      <trkpt lat="47.84586" lon="-3.68845">
        <ele>57</ele>
        <time>2021-08-12T13:35:44Z</time>
      </trkpt>
      <trkpt lat="47.84584" lon="-3.68839">
        <ele>57.2</ele>
        <time>2021-08-12T13:35:45Z</time>
      </trkpt>
      <trkpt lat="47.84583" lon="-3.68834">
        <ele>57.2</ele>
        <time>2021-08-12T13:35:46Z</time>
      </trkpt>
      <trkpt lat="47.84581" lon="-3.68829">
        <ele>57.2</ele>
        <time>2021-08-12T13:35:47Z</time>
      </trkpt>
      <trkpt lat="47.84579" lon="-3.68819">
        <ele>57.2</ele>
        <time>2021-08-12T13:35:49Z</time>
      </trkpt>
      <trkpt lat="47.84578" lon="-3.68814">
        <ele>57.2</ele>
        <time>2021-08-12T13:35:50Z</time>
      </trkpt>
      <trkpt lat="47.84576" lon="-3.68809">
        <ele>57.2</ele>
        <time>2021-08-12T13:35:51Z</time>
      </trkpt>
      <trkpt lat="47.84575" lon="-3.68805">
        <ele>57.2</ele>
        <time>2021-08-12T13:35:52Z</time>
      </trkpt>
      <trkpt lat="47.84574" lon="-3.688">
        <ele>57.4</ele>
        <time>2021-08-12T13:35:53Z</time>
      </trkpt>
      <trkpt lat="47.84573" lon="-3.68796">
        <ele>57.4</ele>
        <time>2021-08-12T13:35:54Z</time>
      </trkpt>
      <trkpt lat="47.84572" lon="-3.68793">
        <ele>57.4</ele>
        <time>2021-08-12T13:35:55Z</time>
      </trkpt>
      <trkpt lat="47.84572" lon="-3.68789">
        <ele>57.4</ele>
        <time>2021-08-12T13:35:56Z</time>
      </trkpt>
      <trkpt lat="47.84572" lon="-3.68786">
        <ele>57.4</ele>
        <time>2021-08-12T13:35:57Z</time>
      </trkpt>
      <trkpt lat="47.84574" lon="-3.68783">
        <ele>57.4</ele>
        <time>2021-08-12T13:35:58Z</time>
      </trkpt>
      <trkpt lat="47.84576" lon="-3.68779">
        <ele>57.4</ele>
        <time>2021-08-12T13:36:00Z</time>
      </trkpt>
      <trkpt lat="47.84578" lon="-3.68777">
        <ele>57.4</ele>
        <time>2021-08-12T13:36:01Z</time>
      </trkpt>
      <trkpt lat="47.84579" lon="-3.68776">
        <ele>57.4</ele>
        <time>2021-08-12T13:36:02Z</time>
      </trkpt>
      <trkpt lat="47.84581" lon="-3.68775">
        <ele>57.6</ele>
        <time>2021-08-12T13:36:03Z</time>
      </trkpt>
      <trkpt lat="47.84583" lon="-3.68774">
        <ele>57.6</ele>
        <time>2021-08-12T13:36:04Z</time>
      </trkpt>
      <trkpt lat="47.84585" lon="-3.68772">
        <ele>57.6</ele>
        <time>2021-08-12T13:36:05Z</time>
      </trkpt>
      <trkpt lat="47.84587" lon="-3.6877">
        <ele>57.6</ele>
        <time>2021-08-12T13:36:06Z</time>
      </trkpt>
      <trkpt lat="47.8459" lon="-3.68769">
        <ele>57.4</ele>
        <time>2021-08-12T13:36:07Z</time>
      </trkpt>
      <trkpt lat="47.84593" lon="-3.68768">
        <ele>57.4</ele>
        <time>2021-08-12T13:36:08Z</time>
      </trkpt>
      <trkpt lat="47.84596" lon="-3.68767">
        <ele>57.4</ele>
        <time>2021-08-12T13:36:09Z</time>
      </trkpt>
      <trkpt lat="47.84601" lon="-3.6877">
        <ele>57.4</ele>
        <time>2021-08-12T13:36:11Z</time>
      </trkpt>
      <trkpt lat="47.84603" lon="-3.68774">
        <ele>57.4</ele>
        <time>2021-08-12T13:36:12Z</time>
      </trkpt>
      <trkpt lat="47.84604" lon="-3.68777">
        <ele>57.2</ele>
        <time>2021-08-12T13:36:13Z</time>
      </trkpt>
      <trkpt lat="47.84606" lon="-3.68779">
        <ele>57.2</ele>
        <time>2021-08-12T13:36:14Z</time>
      </trkpt>
      <trkpt lat="47.84609" lon="-3.68781">
        <ele>56.8</ele>
        <time>2021-08-12T13:36:15Z</time>
      </trkpt>
      <trkpt lat="47.84611" lon="-3.68782">
        <ele>56.6</ele>
        <time>2021-08-12T13:36:16Z</time>
      </trkpt>
      <trkpt lat="47.84613" lon="-3.68781">
        <ele>56.4</ele>
        <time>2021-08-12T13:36:17Z</time>
      </trkpt>
      <trkpt lat="47.84615" lon="-3.68779">
        <ele>56.2</ele>
        <time>2021-08-12T13:36:18Z</time>
      </trkpt>
      <trkpt lat="47.84616" lon="-3.68775">
        <ele>56.2</ele>
        <time>2021-08-12T13:36:19Z</time>
      </trkpt>
      <trkpt lat="47.84617" lon="-3.68771">
        <ele>56</ele>
        <time>2021-08-12T13:36:20Z</time>
      </trkpt>
      <trkpt lat="47.84613" lon="-3.68768">
        <ele>56</ele>
        <time>2021-08-12T13:36:22Z</time>
      </trkpt>
      <trkpt lat="47.84611" lon="-3.6877">
        <ele>55.8</ele>
        <time>2021-08-12T13:36:23Z</time>
      </trkpt>
      <trkpt lat="47.84609" lon="-3.68772">
        <ele>55.8</ele>
        <time>2021-08-12T13:36:24Z</time>
      </trkpt>
      <trkpt lat="47.84608" lon="-3.68775">
        <ele>55.8</ele>
        <time>2021-08-12T13:36:25Z</time>
      </trkpt>
      <trkpt lat="47.84607" lon="-3.68778">
        <ele>55.8</ele>
        <time>2021-08-12T13:36:26Z</time>
      </trkpt>
      <trkpt lat="47.84608" lon="-3.6878">
        <ele>55.8</ele>
        <time>2021-08-12T13:36:27Z</time>
      </trkpt>
      <trkpt lat="47.84608" lon="-3.68783">
        <ele>55.8</ele>
        <time>2021-08-12T13:36:28Z</time>
      </trkpt>
      <trkpt lat="47.84609" lon="-3.68785">
        <ele>55.8</ele>
        <time>2021-08-12T13:36:29Z</time>
      </trkpt>
      <trkpt lat="47.84609" lon="-3.68787">
        <ele>55.8</ele>
        <time>2021-08-12T13:36:30Z</time>
      </trkpt>
      <trkpt lat="47.8461" lon="-3.68789">
        <ele>55.8</ele>
        <time>2021-08-12T13:36:31Z</time>
      </trkpt>
      <trkpt lat="47.84611" lon="-3.6879">
        <ele>55.8</ele>
        <time>2021-08-12T13:36:32Z</time>
      </trkpt>
      <trkpt lat="47.84611" lon="-3.6879">
        <ele>55.8</ele>
        <time>2021-08-12T13:36:33Z</time>
      </trkpt>
      <trkpt lat="47.84611" lon="-3.68791">
        <ele>56</ele>
        <time>2021-08-12T13:36:34Z</time>
      </trkpt>
      <trkpt lat="47.84611" lon="-3.68791">
        <ele>56</ele>
        <time>2021-08-12T13:36:35Z</time>
      </trkpt>
      <trkpt lat="47.84606" lon="-3.68785">
        <ele>56.8</ele>
        <time>2021-08-12T13:53:10Z</time>
      </trkpt>
      <trkpt lat="47.84604" lon="-3.68783">
        <ele>56.8</ele>
        <time>2021-08-12T13:53:11Z</time>
      </trkpt>
      <trkpt lat="47.84603" lon="-3.68782">
        <ele>56.8</ele>
        <time>2021-08-12T13:53:12Z</time>
      </trkpt>
      <trkpt lat="47.846" lon="-3.68779">
        <ele>56.8</ele>
        <time>2021-08-12T13:53:14Z</time>
      </trkpt>
      <trkpt lat="47.84598" lon="-3.68778">
        <ele>56.8</ele>
        <time>2021-08-12T13:53:15Z</time>
      </trkpt>
      <trkpt lat="47.84597" lon="-3.68776">
        <ele>56.8</ele>
        <time>2021-08-12T13:53:16Z</time>
      </trkpt>
      <trkpt lat="47.84595" lon="-3.68774">
        <ele>56.8</ele>
        <time>2021-08-12T13:53:17Z</time>
      </trkpt>
      <trkpt lat="47.84593" lon="-3.68772">
        <ele>56.8</ele>
        <time>2021-08-12T13:53:18Z</time>
      </trkpt>
      <trkpt lat="47.84591" lon="-3.68769">
        <ele>56.8</ele>
        <time>2021-08-12T13:53:19Z</time>
      </trkpt>
      <trkpt lat="47.84589" lon="-3.68767">
        <ele>56.8</ele>
        <time>2021-08-12T13:53:20Z</time>
      </trkpt>
      <trkpt lat="47.84587" lon="-3.68767">
        <ele>56.8</ele>
        <time>2021-08-12T13:53:21Z</time>
      </trkpt>
      <trkpt lat="47.84582" lon="-3.68767">
        <ele>56.8</ele>
        <time>2021-08-12T13:53:23Z</time>
      </trkpt>
      <trkpt lat="47.8458" lon="-3.68767">
        <ele>56.8</ele>
        <time>2021-08-12T13:53:24Z</time>
      </trkpt>
      <trkpt lat="47.84578" lon="-3.68766">
        <ele>56.8</ele>
        <time>2021-08-12T13:53:25Z</time>
      </trkpt>
      <trkpt lat="47.84575" lon="-3.68766">
        <ele>57</ele>
        <time>2021-08-12T13:53:26Z</time>
      </trkpt>
      <trkpt lat="47.84572" lon="-3.68766">
        <ele>57</ele>
        <time>2021-08-12T13:53:27Z</time>
      </trkpt>
      <trkpt lat="47.8457" lon="-3.68767">
        <ele>57.2</ele>
        <time>2021-08-12T13:53:28Z</time>
      </trkpt>
      <trkpt lat="47.84568" lon="-3.68769">
        <ele>57.2</ele>
        <time>2021-08-12T13:53:29Z</time>
      </trkpt>
      <trkpt lat="47.84566" lon="-3.68771">
        <ele>57.2</ele>
        <time>2021-08-12T13:53:30Z</time>
      </trkpt>
      <trkpt lat="47.84565" lon="-3.68772">
        <ele>57.4</ele>
        <time>2021-08-12T13:53:31Z</time>
      </trkpt>
      <trkpt lat="47.84563" lon="-3.68774">
        <ele>57.4</ele>
        <time>2021-08-12T13:53:32Z</time>
      </trkpt>
      <trkpt lat="47.8456" lon="-3.68777">
        <ele>57.4</ele>
        <time>2021-08-12T13:53:34Z</time>
      </trkpt>
      <trkpt lat="47.8456" lon="-3.68778">
        <ele>57.4</ele>
        <time>2021-08-12T13:53:35Z</time>
      </trkpt>
      <trkpt lat="47.84559" lon="-3.68779">
        <ele>57.4</ele>
        <time>2021-08-12T13:53:36Z</time>
      </trkpt>
      <trkpt lat="47.84558" lon="-3.68779">
        <ele>57.4</ele>
        <time>2021-08-12T13:53:37Z</time>
      </trkpt>
      <trkpt lat="47.84557" lon="-3.68779">
        <ele>57.4</ele>
        <time>2021-08-12T13:53:38Z</time>
      </trkpt>
      <trkpt lat="47.84556" lon="-3.68778">
        <ele>57.4</ele>
        <time>2021-08-12T13:53:39Z</time>
      </trkpt>
      <trkpt lat="47.84554" lon="-3.68776">
        <ele>57.4</ele>
        <time>2021-08-12T13:53:40Z</time>
      </trkpt>
      <trkpt lat="47.84553" lon="-3.68773">
        <ele>57.4</ele>
        <time>2021-08-12T13:53:41Z</time>
      </trkpt>
      <trkpt lat="47.84552" lon="-3.68769">
        <ele>57.4</ele>
        <time>2021-08-12T13:53:42Z</time>
      </trkpt>
      <trkpt lat="47.84552" lon="-3.68764">
        <ele>57.4</ele>
        <time>2021-08-12T13:53:43Z</time>
      </trkpt>
      <trkpt lat="47.84553" lon="-3.68753">
        <ele>57.4</ele>
        <time>2021-08-12T13:53:45Z</time>
      </trkpt>
      <trkpt lat="47.84553" lon="-3.68747">
        <ele>57.4</ele>
        <time>2021-08-12T13:53:46Z</time>
      </trkpt>
      <trkpt lat="47.84553" lon="-3.6874">
        <ele>57.4</ele>
        <time>2021-08-12T13:53:47Z</time>
      </trkpt>
      <trkpt lat="47.84552" lon="-3.68733">
        <ele>57.4</ele>
        <time>2021-08-12T13:53:48Z</time>
      </trkpt>
      <trkpt lat="47.84551" lon="-3.68727">
        <ele>57.4</ele>
        <time>2021-08-12T13:53:49Z</time>
      </trkpt>
      <trkpt lat="47.8455" lon="-3.6872">
        <ele>57.4</ele>
        <time>2021-08-12T13:53:50Z</time>
      </trkpt>
      <trkpt lat="47.84548" lon="-3.68714">
        <ele>57.4</ele>
        <time>2021-08-12T13:53:51Z</time>
      </trkpt>
      <trkpt lat="47.84546" lon="-3.68707">
        <ele>57.4</ele>
        <time>2021-08-12T13:53:52Z</time>
      </trkpt>
      <trkpt lat="47.84544" lon="-3.68701">
        <ele>57.4</ele>
        <time>2021-08-12T13:53:53Z</time>
      </trkpt>
      <trkpt lat="47.84543" lon="-3.68695">
        <ele>57.4</ele>
        <time>2021-08-12T13:53:54Z</time>
      </trkpt>
      <trkpt lat="47.84539" lon="-3.68682">
        <ele>57.2</ele>
        <time>2021-08-12T13:53:56Z</time>
      </trkpt>
      <trkpt lat="47.84537" lon="-3.68676">
        <ele>57.2</ele>
        <time>2021-08-12T13:53:57Z</time>
      </trkpt>
      <trkpt lat="47.84536" lon="-3.6867">
        <ele>57.2</ele>
        <time>2021-08-12T13:53:58Z</time>
      </trkpt>
      <trkpt lat="47.84535" lon="-3.68664">
        <ele>57</ele>
        <time>2021-08-12T13:53:59Z</time>
      </trkpt>
      <trkpt lat="47.84535" lon="-3.68657">
        <ele>57</ele>
        <time>2021-08-12T13:54:00Z</time>
      </trkpt>
      <trkpt lat="47.84535" lon="-3.68652">
        <ele>56.8</ele>
        <time>2021-08-12T13:54:01Z</time>
      </trkpt>
      <trkpt lat="47.84536" lon="-3.68647">
        <ele>56.8</ele>
        <time>2021-08-12T13:54:02Z</time>
      </trkpt>
      <trkpt lat="47.84537" lon="-3.68644">
        <ele>56.8</ele>
        <time>2021-08-12T13:54:03Z</time>
      </trkpt>
      <trkpt lat="47.84539" lon="-3.68642">
        <ele>56.8</ele>
        <time>2021-08-12T13:54:04Z</time>
      </trkpt>
      <trkpt lat="47.84541" lon="-3.6864">
        <ele>56.8</ele>
        <time>2021-08-12T13:54:05Z</time>
      </trkpt>
      <trkpt lat="47.84544" lon="-3.68634">
        <ele>56.6</ele>
        <time>2021-08-12T13:54:07Z</time>
      </trkpt>
      <trkpt lat="47.84545" lon="-3.6863">
        <ele>56.6</ele>
        <time>2021-08-12T13:54:08Z</time>
      </trkpt>
      <trkpt lat="47.84546" lon="-3.68626">
        <ele>56.6</ele>
        <time>2021-08-12T13:54:09Z</time>
      </trkpt>
      <trkpt lat="47.84547" lon="-3.68621">
        <ele>56.6</ele>
        <time>2021-08-12T13:54:10Z</time>
      </trkpt>
      <trkpt lat="47.84548" lon="-3.68616">
        <ele>56.6</ele>
        <time>2021-08-12T13:54:11Z</time>
      </trkpt>
      <trkpt lat="47.8455" lon="-3.68611">
        <ele>56.4</ele>
        <time>2021-08-12T13:54:12Z</time>
      </trkpt>
      <trkpt lat="47.84551" lon="-3.68606">
        <ele>56.4</ele>
        <time>2021-08-12T13:54:13Z</time>
      </trkpt>
      <trkpt lat="47.84553" lon="-3.686">
        <ele>56.4</ele>
        <time>2021-08-12T13:54:14Z</time>
      </trkpt>
      <trkpt lat="47.84555" lon="-3.68594">
        <ele>56.4</ele>
        <time>2021-08-12T13:54:15Z</time>
      </trkpt>
      <trkpt lat="47.84557" lon="-3.68588">
        <ele>56.4</ele>
        <time>2021-08-12T13:54:16Z</time>
      </trkpt>
      <trkpt lat="47.84561" lon="-3.68575">
        <ele>56.4</ele>
        <time>2021-08-12T13:54:18Z</time>
      </trkpt>
      <trkpt lat="47.84563" lon="-3.68568">
        <ele>56.6</ele>
        <time>2021-08-12T13:54:19Z</time>
      </trkpt>
      <trkpt lat="47.84566" lon="-3.68562">
        <ele>56.4</ele>
        <time>2021-08-12T13:54:20Z</time>
      </trkpt>
      <trkpt lat="47.84568" lon="-3.68556">
        <ele>56.4</ele>
        <time>2021-08-12T13:54:21Z</time>
      </trkpt>
      <trkpt lat="47.84571" lon="-3.68549">
        <ele>56.4</ele>
        <time>2021-08-12T13:54:22Z</time>
      </trkpt>
      <trkpt lat="47.84574" lon="-3.68543">
        <ele>56.2</ele>
        <time>2021-08-12T13:54:23Z</time>
      </trkpt>
      <trkpt lat="47.84577" lon="-3.68536">
        <ele>56</ele>
        <time>2021-08-12T13:54:24Z</time>
      </trkpt>
      <trkpt lat="47.8458" lon="-3.68529">
        <ele>56</ele>
        <time>2021-08-12T13:54:25Z</time>
      </trkpt>
      <trkpt lat="47.84583" lon="-3.68522">
        <ele>55.6</ele>
        <time>2021-08-12T13:54:26Z</time>
      </trkpt>
      <trkpt lat="47.84586" lon="-3.68515">
        <ele>55.4</ele>
        <time>2021-08-12T13:54:27Z</time>
      </trkpt>
      <trkpt lat="47.84593" lon="-3.68501">
        <ele>54.6</ele>
        <time>2021-08-12T13:54:29Z</time>
      </trkpt>
      <trkpt lat="47.84596" lon="-3.68494">
        <ele>54.6</ele>
        <time>2021-08-12T13:54:30Z</time>
      </trkpt>
      <trkpt lat="47.84599" lon="-3.68486">
        <ele>54.4</ele>
        <time>2021-08-12T13:54:31Z</time>
      </trkpt>
      <trkpt lat="47.84601" lon="-3.68478">
        <ele>54.2</ele>
        <time>2021-08-12T13:54:32Z</time>
      </trkpt>
      <trkpt lat="47.84603" lon="-3.68469">
        <ele>54</ele>
        <time>2021-08-12T13:54:33Z</time>
      </trkpt>
      <trkpt lat="47.84605" lon="-3.6846">
        <ele>53.6</ele>
        <time>2021-08-12T13:54:34Z</time>
      </trkpt>
      <trkpt lat="47.84607" lon="-3.68451">
        <ele>53.4</ele>
        <time>2021-08-12T13:54:35Z</time>
      </trkpt>
      <trkpt lat="47.84608" lon="-3.68442">
        <ele>53.4</ele>
        <time>2021-08-12T13:54:36Z</time>
      </trkpt>
      <trkpt lat="47.8461" lon="-3.68433">
        <ele>53.2</ele>
        <time>2021-08-12T13:54:37Z</time>
      </trkpt>
      <trkpt lat="47.84611" lon="-3.68423">
        <ele>53</ele>
        <time>2021-08-12T13:54:38Z</time>
      </trkpt>
      <trkpt lat="47.84612" lon="-3.68414">
        <ele>52.6</ele>
        <time>2021-08-12T13:54:39Z</time>
      </trkpt>
      <trkpt lat="47.84613" lon="-3.68405">
        <ele>52.4</ele>
        <time>2021-08-12T13:54:40Z</time>
      </trkpt>
      <trkpt lat="47.84613" lon="-3.68395">
        <ele>52</ele>
        <time>2021-08-12T13:54:41Z</time>
      </trkpt>
      <trkpt lat="47.84613" lon="-3.68386">
        <ele>51.8</ele>
        <time>2021-08-12T13:54:42Z</time>
      </trkpt>
      <trkpt lat="47.84613" lon="-3.68377">
        <ele>51.6</ele>
        <time>2021-08-12T13:54:43Z</time>
      </trkpt>
      <trkpt lat="47.84612" lon="-3.68368">
        <ele>51.4</ele>
        <time>2021-08-12T13:54:44Z</time>
      </trkpt>
      <trkpt lat="47.84611" lon="-3.68359">
        <ele>51.4</ele>
        <time>2021-08-12T13:54:45Z</time>
      </trkpt>
      <trkpt lat="47.8461" lon="-3.6835">
        <ele>51.2</ele>
        <time>2021-08-12T13:54:46Z</time>
      </trkpt>
      <trkpt lat="47.84608" lon="-3.68341">
        <ele>51</ele>
        <time>2021-08-12T13:54:47Z</time>
      </trkpt>
      <trkpt lat="47.84607" lon="-3.68333">
        <ele>51.2</ele>
        <time>2021-08-12T13:54:48Z</time>
      </trkpt>
      <trkpt lat="47.84606" lon="-3.68324">
        <ele>51.2</ele>
        <time>2021-08-12T13:54:49Z</time>
      </trkpt>
      <trkpt lat="47.84602" lon="-3.68307">
        <ele>51</ele>
        <time>2021-08-12T13:54:51Z</time>
      </trkpt>
      <trkpt lat="47.846" lon="-3.68299">
        <ele>51</ele>
        <time>2021-08-12T13:54:52Z</time>
      </trkpt>
      <trkpt lat="47.84597" lon="-3.68292">
        <ele>51</ele>
        <time>2021-08-12T13:54:53Z</time>
      </trkpt>
      <trkpt lat="47.84594" lon="-3.68285">
        <ele>51</ele>
        <time>2021-08-12T13:54:54Z</time>
      </trkpt>
      <trkpt lat="47.84592" lon="-3.68279">
        <ele>51</ele>
        <time>2021-08-12T13:54:55Z</time>
      </trkpt>
      <trkpt lat="47.84589" lon="-3.68272">
        <ele>51</ele>
        <time>2021-08-12T13:54:56Z</time>
      </trkpt>
      <trkpt lat="47.84587" lon="-3.68266">
        <ele>51</ele>
        <time>2021-08-12T13:54:57Z</time>
      </trkpt>
      <trkpt lat="47.84584" lon="-3.6826">
        <ele>51</ele>
        <time>2021-08-12T13:54:58Z</time>
      </trkpt>
      <trkpt lat="47.84581" lon="-3.68253">
        <ele>51</ele>
        <time>2021-08-12T13:54:59Z</time>
      </trkpt>
      <trkpt lat="47.84579" lon="-3.68247">
        <ele>51</ele>
        <time>2021-08-12T13:55:00Z</time>
      </trkpt>
      <trkpt lat="47.84574" lon="-3.68234">
        <ele>51.2</ele>
        <time>2021-08-12T13:55:02Z</time>
      </trkpt>
      <trkpt lat="47.84572" lon="-3.68228">
        <ele>51.4</ele>
        <time>2021-08-12T13:55:03Z</time>
      </trkpt>
      <trkpt lat="47.84569" lon="-3.68222">
        <ele>51.6</ele>
        <time>2021-08-12T13:55:04Z</time>
      </trkpt>
      <trkpt lat="47.84567" lon="-3.68217">
        <ele>51.6</ele>
        <time>2021-08-12T13:55:05Z</time>
      </trkpt>
      <trkpt lat="47.84564" lon="-3.68212">
        <ele>51.6</ele>
        <time>2021-08-12T13:55:06Z</time>
      </trkpt>
      <trkpt lat="47.84562" lon="-3.68207">
        <ele>51.6</ele>
        <time>2021-08-12T13:55:07Z</time>
      </trkpt>
      <trkpt lat="47.84559" lon="-3.68202">
        <ele>51.4</ele>
        <time>2021-08-12T13:55:08Z</time>
      </trkpt>
      <trkpt lat="47.84557" lon="-3.68197">
        <ele>51.6</ele>
        <time>2021-08-12T13:55:09Z</time>
      </trkpt>
      <trkpt lat="47.84556" lon="-3.68192">
        <ele>51.8</ele>
        <time>2021-08-12T13:55:10Z</time>
      </trkpt>
      <trkpt lat="47.84554" lon="-3.68187">
        <ele>51.6</ele>
        <time>2021-08-12T13:55:11Z</time>
      </trkpt>
      <trkpt lat="47.8455" lon="-3.68176">
        <ele>51.6</ele>
        <time>2021-08-12T13:55:13Z</time>
      </trkpt>
      <trkpt lat="47.84549" lon="-3.68171">
        <ele>51.6</ele>
        <time>2021-08-12T13:55:14Z</time>
      </trkpt>
      <trkpt lat="47.84547" lon="-3.68164">
        <ele>51.6</ele>
        <time>2021-08-12T13:55:15Z</time>
      </trkpt>
      <trkpt lat="47.84546" lon="-3.68158">
        <ele>51.6</ele>
        <time>2021-08-12T13:55:16Z</time>
      </trkpt>
      <trkpt lat="47.84544" lon="-3.68152">
        <ele>51.8</ele>
        <time>2021-08-12T13:55:17Z</time>
      </trkpt>
      <trkpt lat="47.84542" lon="-3.68146">
        <ele>51.8</ele>
        <time>2021-08-12T13:55:18Z</time>
      </trkpt>
      <trkpt lat="47.84541" lon="-3.6814">
        <ele>51.8</ele>
        <time>2021-08-12T13:55:19Z</time>
      </trkpt>
      <trkpt lat="47.8454" lon="-3.68133">
        <ele>51.8</ele>
        <time>2021-08-12T13:55:20Z</time>
      </trkpt>
      <trkpt lat="47.84539" lon="-3.68127">
        <ele>51.8</ele>
        <time>2021-08-12T13:55:21Z</time>
      </trkpt>
      <trkpt lat="47.84539" lon="-3.6812">
        <ele>51.8</ele>
        <time>2021-08-12T13:55:22Z</time>
      </trkpt>
      <trkpt lat="47.84539" lon="-3.68112">
        <ele>51.6</ele>
        <time>2021-08-12T13:55:23Z</time>
      </trkpt>
      <trkpt lat="47.84539" lon="-3.68105">
        <ele>51.6</ele>
        <time>2021-08-12T13:55:24Z</time>
      </trkpt>
      <trkpt lat="47.84539" lon="-3.68097">
        <ele>51.6</ele>
        <time>2021-08-12T13:55:25Z</time>
      </trkpt>
      <trkpt lat="47.84539" lon="-3.68089">
        <ele>51</ele>
        <time>2021-08-12T13:55:26Z</time>
      </trkpt>
      <trkpt lat="47.84539" lon="-3.6808">
        <ele>50.6</ele>
        <time>2021-08-12T13:55:27Z</time>
      </trkpt>
      <trkpt lat="47.84539" lon="-3.68072">
        <ele>50.4</ele>
        <time>2021-08-12T13:55:28Z</time>
      </trkpt>
      <trkpt lat="47.8454" lon="-3.68063">
        <ele>50.2</ele>
        <time>2021-08-12T13:55:29Z</time>
      </trkpt>
      <trkpt lat="47.8454" lon="-3.68053">
        <ele>50.4</ele>
        <time>2021-08-12T13:55:30Z</time>
      </trkpt>
      <trkpt lat="47.84541" lon="-3.68044">
        <ele>50</ele>
        <time>2021-08-12T13:55:31Z</time>
      </trkpt>
      <trkpt lat="47.84541" lon="-3.68035">
        <ele>50</ele>
        <time>2021-08-12T13:55:32Z</time>
      </trkpt>
      <trkpt lat="47.84542" lon="-3.68025">
        <ele>49.8</ele>
        <time>2021-08-12T13:55:33Z</time>
      </trkpt>
      <trkpt lat="47.84543" lon="-3.68006">
        <ele>49.6</ele>
        <time>2021-08-12T13:55:35Z</time>
      </trkpt>
      <trkpt lat="47.84543" lon="-3.67996">
        <ele>49.4</ele>
        <time>2021-08-12T13:55:36Z</time>
      </trkpt>
      <trkpt lat="47.84544" lon="-3.67986">
        <ele>49</ele>
        <time>2021-08-12T13:55:37Z</time>
      </trkpt>
      <trkpt lat="47.84545" lon="-3.67976">
        <ele>48.8</ele>
        <time>2021-08-12T13:55:38Z</time>
      </trkpt>
      <trkpt lat="47.84545" lon="-3.67966">
        <ele>48.6</ele>
        <time>2021-08-12T13:55:39Z</time>
      </trkpt>
      <trkpt lat="47.84546" lon="-3.67956">
        <ele>48.4</ele>
        <time>2021-08-12T13:55:40Z</time>
      </trkpt>
      <trkpt lat="47.84547" lon="-3.67946">
        <ele>48.4</ele>
        <time>2021-08-12T13:55:41Z</time>
      </trkpt>
      <trkpt lat="47.84547" lon="-3.67936">
        <ele>48.2</ele>
        <time>2021-08-12T13:55:42Z</time>
      </trkpt>
      <trkpt lat="47.84548" lon="-3.67925">
        <ele>48</ele>
        <time>2021-08-12T13:55:43Z</time>
      </trkpt>
      <trkpt lat="47.84548" lon="-3.67915">
        <ele>48</ele>
        <time>2021-08-12T13:55:44Z</time>
      </trkpt>
      <trkpt lat="47.84549" lon="-3.67905">
        <ele>47.8</ele>
        <time>2021-08-12T13:55:45Z</time>
      </trkpt>
      <trkpt lat="47.8455" lon="-3.67895">
        <ele>47.6</ele>
        <time>2021-08-12T13:55:46Z</time>
      </trkpt>
      <trkpt lat="47.84551" lon="-3.67886">
        <ele>47.4</ele>
        <time>2021-08-12T13:55:47Z</time>
      </trkpt>
      <trkpt lat="47.84551" lon="-3.67876">
        <ele>47.4</ele>
        <time>2021-08-12T13:55:48Z</time>
      </trkpt>
      <trkpt lat="47.84551" lon="-3.67865">
        <ele>47.4</ele>
        <time>2021-08-12T13:55:49Z</time>
      </trkpt>
      <trkpt lat="47.84551" lon="-3.67855">
        <ele>47.2</ele>
        <time>2021-08-12T13:55:50Z</time>
      </trkpt>
      <trkpt lat="47.84551" lon="-3.67845">
        <ele>47.2</ele>
        <time>2021-08-12T13:55:51Z</time>
      </trkpt>
      <trkpt lat="47.84551" lon="-3.67834">
        <ele>46.6</ele>
        <time>2021-08-12T13:55:52Z</time>
      </trkpt>
      <trkpt lat="47.84551" lon="-3.67824">
        <ele>46</ele>
        <time>2021-08-12T13:55:53Z</time>
      </trkpt>
      <trkpt lat="47.8455" lon="-3.67813">
        <ele>45.6</ele>
        <time>2021-08-12T13:55:54Z</time>
      </trkpt>
      <trkpt lat="47.84549" lon="-3.67802">
        <ele>45</ele>
        <time>2021-08-12T13:55:55Z</time>
      </trkpt>
      <trkpt lat="47.84548" lon="-3.67792">
        <ele>45</ele>
        <time>2021-08-12T13:55:56Z</time>
      </trkpt>
      <trkpt lat="47.84546" lon="-3.67782">
        <ele>44.8</ele>
        <time>2021-08-12T13:55:57Z</time>
      </trkpt>
      <trkpt lat="47.84545" lon="-3.67772">
        <ele>44.8</ele>
        <time>2021-08-12T13:55:58Z</time>
      </trkpt>
      <trkpt lat="47.84543" lon="-3.67762">
        <ele>44.6</ele>
        <time>2021-08-12T13:55:59Z</time>
      </trkpt>
      <trkpt lat="47.8454" lon="-3.67753">
        <ele>44.4</ele>
        <time>2021-08-12T13:56:00Z</time>
      </trkpt>
      <trkpt lat="47.84538" lon="-3.67744">
        <ele>44.2</ele>
        <time>2021-08-12T13:56:01Z</time>
      </trkpt>
      <trkpt lat="47.84535" lon="-3.67735">
        <ele>44.2</ele>
        <time>2021-08-12T13:56:02Z</time>
      </trkpt>
      <trkpt lat="47.84533" lon="-3.67727">
        <ele>44</ele>
        <time>2021-08-12T13:56:03Z</time>
      </trkpt>
      <trkpt lat="47.8453" lon="-3.67719">
        <ele>44</ele>
        <time>2021-08-12T13:56:04Z</time>
      </trkpt>
      <trkpt lat="47.84527" lon="-3.67711">
        <ele>44</ele>
        <time>2021-08-12T13:56:05Z</time>
      </trkpt>
      <trkpt lat="47.84524" lon="-3.67704">
        <ele>44</ele>
        <time>2021-08-12T13:56:06Z</time>
      </trkpt>
      <trkpt lat="47.84518" lon="-3.67691">
        <ele>44</ele>
        <time>2021-08-12T13:56:08Z</time>
      </trkpt>
      <trkpt lat="47.84515" lon="-3.67684">
        <ele>44</ele>
        <time>2021-08-12T13:56:09Z</time>
      </trkpt>
      <trkpt lat="47.84512" lon="-3.67679">
        <ele>44</ele>
        <time>2021-08-12T13:56:10Z</time>
      </trkpt>
      <trkpt lat="47.84509" lon="-3.67673">
        <ele>44.2</ele>
        <time>2021-08-12T13:56:11Z</time>
      </trkpt>
      <trkpt lat="47.84506" lon="-3.67667">
        <ele>44.4</ele>
        <time>2021-08-12T13:56:12Z</time>
      </trkpt>
      <trkpt lat="47.84502" lon="-3.67661">
        <ele>44.4</ele>
        <time>2021-08-12T13:56:13Z</time>
      </trkpt>
      <trkpt lat="47.84498" lon="-3.67656">
        <ele>44.6</ele>
        <time>2021-08-12T13:56:14Z</time>
      </trkpt>
      <trkpt lat="47.84495" lon="-3.67651">
        <ele>45</ele>
        <time>2021-08-12T13:56:15Z</time>
      </trkpt>
      <trkpt lat="47.84491" lon="-3.67646">
        <ele>45.2</ele>
        <time>2021-08-12T13:56:16Z</time>
      </trkpt>
      <trkpt lat="47.84488" lon="-3.67642">
        <ele>45.4</ele>
        <time>2021-08-12T13:56:17Z</time>
      </trkpt>
      <trkpt lat="47.84484" lon="-3.67638">
        <ele>45.4</ele>
        <time>2021-08-12T13:56:18Z</time>
      </trkpt>
      <trkpt lat="47.8448" lon="-3.67634">
        <ele>45.4</ele>
        <time>2021-08-12T13:56:19Z</time>
      </trkpt>
      <trkpt lat="47.84476" lon="-3.67629">
        <ele>45.6</ele>
        <time>2021-08-12T13:56:20Z</time>
      </trkpt>
      <trkpt lat="47.84472" lon="-3.67625">
        <ele>45.6</ele>
        <time>2021-08-12T13:56:21Z</time>
      </trkpt>
      <trkpt lat="47.84468" lon="-3.67621">
        <ele>45.6</ele>
        <time>2021-08-12T13:56:22Z</time>
      </trkpt>
      <trkpt lat="47.84464" lon="-3.67617">
        <ele>45.6</ele>
        <time>2021-08-12T13:56:23Z</time>
      </trkpt>
      <trkpt lat="47.8446" lon="-3.67614">
        <ele>45.8</ele>
        <time>2021-08-12T13:56:24Z</time>
      </trkpt>
      <trkpt lat="47.84456" lon="-3.67611">
        <ele>45.8</ele>
        <time>2021-08-12T13:56:25Z</time>
      </trkpt>
      <trkpt lat="47.84451" lon="-3.67607">
        <ele>46</ele>
        <time>2021-08-12T13:56:26Z</time>
      </trkpt>
      <trkpt lat="47.84447" lon="-3.67604">
        <ele>46</ele>
        <time>2021-08-12T13:56:27Z</time>
      </trkpt>
      <trkpt lat="47.84443" lon="-3.67601">
        <ele>46.2</ele>
        <time>2021-08-12T13:56:28Z</time>
      </trkpt>
      <trkpt lat="47.84435" lon="-3.67595">
        <ele>46.4</ele>
        <time>2021-08-12T13:56:30Z</time>
      </trkpt>
      <trkpt lat="47.84431" lon="-3.67593">
        <ele>46.4</ele>
        <time>2021-08-12T13:56:31Z</time>
      </trkpt>
      <trkpt lat="47.84427" lon="-3.67591">
        <ele>46.4</ele>
        <time>2021-08-12T13:56:32Z</time>
      </trkpt>
      <trkpt lat="47.84423" lon="-3.6759">
        <ele>46.6</ele>
        <time>2021-08-12T13:56:33Z</time>
      </trkpt>
      <trkpt lat="47.84419" lon="-3.67588">
        <ele>46.6</ele>
        <time>2021-08-12T13:56:34Z</time>
      </trkpt>
      <trkpt lat="47.84415" lon="-3.67585">
        <ele>46.6</ele>
        <time>2021-08-12T13:56:35Z</time>
      </trkpt>
      <trkpt lat="47.8441" lon="-3.67583">
        <ele>46.8</ele>
        <time>2021-08-12T13:56:36Z</time>
      </trkpt>
      <trkpt lat="47.84406" lon="-3.67581">
        <ele>46.8</ele>
        <time>2021-08-12T13:56:37Z</time>
      </trkpt>
      <trkpt lat="47.84402" lon="-3.67578">
        <ele>46.8</ele>
        <time>2021-08-12T13:56:38Z</time>
      </trkpt>
      <trkpt lat="47.84398" lon="-3.67576">
        <ele>47</ele>
        <time>2021-08-12T13:56:39Z</time>
      </trkpt>
      <trkpt lat="47.84393" lon="-3.67574">
        <ele>47.2</ele>
        <time>2021-08-12T13:56:40Z</time>
      </trkpt>
      <trkpt lat="47.84389" lon="-3.67572">
        <ele>47.2</ele>
        <time>2021-08-12T13:56:41Z</time>
      </trkpt>
      <trkpt lat="47.84385" lon="-3.67571">
        <ele>47.4</ele>
        <time>2021-08-12T13:56:42Z</time>
      </trkpt>
      <trkpt lat="47.84382" lon="-3.67569">
        <ele>47.4</ele>
        <time>2021-08-12T13:56:43Z</time>
      </trkpt>
      <trkpt lat="47.84378" lon="-3.67567">
        <ele>47.4</ele>
        <time>2021-08-12T13:56:44Z</time>
      </trkpt>
      <trkpt lat="47.84374" lon="-3.67565">
        <ele>47.4</ele>
        <time>2021-08-12T13:56:45Z</time>
      </trkpt>
      <trkpt lat="47.84371" lon="-3.67563">
        <ele>47.4</ele>
        <time>2021-08-12T13:56:46Z</time>
      </trkpt>
      <trkpt lat="47.84367" lon="-3.67561">
        <ele>47.6</ele>
        <time>2021-08-12T13:56:47Z</time>
      </trkpt>
      <trkpt lat="47.84363" lon="-3.67559">
        <ele>47.6</ele>
        <time>2021-08-12T13:56:48Z</time>
      </trkpt>
      <trkpt lat="47.8436" lon="-3.67557">
        <ele>47.6</ele>
        <time>2021-08-12T13:56:49Z</time>
      </trkpt>
      <trkpt lat="47.84356" lon="-3.67555">
        <ele>47.6</ele>
        <time>2021-08-12T13:56:50Z</time>
      </trkpt>
      <trkpt lat="47.84349" lon="-3.67552">
        <ele>47.8</ele>
        <time>2021-08-12T13:56:52Z</time>
      </trkpt>
      <trkpt lat="47.84345" lon="-3.6755">
        <ele>48</ele>
        <time>2021-08-12T13:56:53Z</time>
      </trkpt>
      <trkpt lat="47.84341" lon="-3.67548">
        <ele>48.2</ele>
        <time>2021-08-12T13:56:54Z</time>
      </trkpt>
      <trkpt lat="47.84338" lon="-3.67546">
        <ele>48.4</ele>
        <time>2021-08-12T13:56:55Z</time>
      </trkpt>
      <trkpt lat="47.84334" lon="-3.67544">
        <ele>48.4</ele>
        <time>2021-08-12T13:56:56Z</time>
      </trkpt>
      <trkpt lat="47.84331" lon="-3.67542">
        <ele>48.6</ele>
        <time>2021-08-12T13:56:57Z</time>
      </trkpt>
      <trkpt lat="47.84328" lon="-3.6754">
        <ele>48.6</ele>
        <time>2021-08-12T13:56:58Z</time>
      </trkpt>
      <trkpt lat="47.84324" lon="-3.67538">
        <ele>48.8</ele>
        <time>2021-08-12T13:56:59Z</time>
      </trkpt>
      <trkpt lat="47.84321" lon="-3.67535">
        <ele>48.8</ele>
        <time>2021-08-12T13:57:00Z</time>
      </trkpt>
      <trkpt lat="47.84318" lon="-3.67532">
        <ele>49</ele>
        <time>2021-08-12T13:57:01Z</time>
      </trkpt>
      <trkpt lat="47.84311" lon="-3.67527">
        <ele>49.4</ele>
        <time>2021-08-12T13:57:03Z</time>
      </trkpt>
      <trkpt lat="47.84307" lon="-3.67524">
        <ele>49.4</ele>
        <time>2021-08-12T13:57:04Z</time>
      </trkpt>
      <trkpt lat="47.84304" lon="-3.67521">
        <ele>49.4</ele>
        <time>2021-08-12T13:57:05Z</time>
      </trkpt>
      <trkpt lat="47.84301" lon="-3.67518">
        <ele>49.6</ele>
        <time>2021-08-12T13:57:06Z</time>
      </trkpt>
      <trkpt lat="47.84298" lon="-3.67514">
        <ele>49.6</ele>
        <time>2021-08-12T13:57:07Z</time>
      </trkpt>
      <trkpt lat="47.84296" lon="-3.67511">
        <ele>49.8</ele>
        <time>2021-08-12T13:57:08Z</time>
      </trkpt>
      <trkpt lat="47.84293" lon="-3.67508">
        <ele>49.8</ele>
        <time>2021-08-12T13:57:09Z</time>
      </trkpt>
      <trkpt lat="47.8429" lon="-3.67505">
        <ele>49.8</ele>
        <time>2021-08-12T13:57:10Z</time>
      </trkpt>
      <trkpt lat="47.84287" lon="-3.67502">
        <ele>49.8</ele>
        <time>2021-08-12T13:57:11Z</time>
      </trkpt>
      <trkpt lat="47.84284" lon="-3.67498">
        <ele>49.8</ele>
        <time>2021-08-12T13:57:12Z</time>
      </trkpt>
      <trkpt lat="47.84278" lon="-3.67489">
        <ele>50</ele>
        <time>2021-08-12T13:57:14Z</time>
      </trkpt>
      <trkpt lat="47.84275" lon="-3.67485">
        <ele>50</ele>
        <time>2021-08-12T13:57:15Z</time>
      </trkpt>
      <trkpt lat="47.84272" lon="-3.67481">
        <ele>50</ele>
        <time>2021-08-12T13:57:16Z</time>
      </trkpt>
      <trkpt lat="47.84269" lon="-3.67477">
        <ele>50.2</ele>
        <time>2021-08-12T13:57:17Z</time>
      </trkpt>
      <trkpt lat="47.84266" lon="-3.67472">
        <ele>50</ele>
        <time>2021-08-12T13:57:18Z</time>
      </trkpt>
      <trkpt lat="47.84263" lon="-3.67468">
        <ele>50</ele>
        <time>2021-08-12T13:57:19Z</time>
      </trkpt>
      <trkpt lat="47.8426" lon="-3.67463">
        <ele>50.2</ele>
        <time>2021-08-12T13:57:20Z</time>
      </trkpt>
      <trkpt lat="47.84257" lon="-3.67459">
        <ele>50.2</ele>
        <time>2021-08-12T13:57:21Z</time>
      </trkpt>
      <trkpt lat="47.84255" lon="-3.67455">
        <ele>50.2</ele>
        <time>2021-08-12T13:57:22Z</time>
      </trkpt>
      <trkpt lat="47.84252" lon="-3.67451">
        <ele>50.4</ele>
        <time>2021-08-12T13:57:23Z</time>
      </trkpt>
      <trkpt lat="47.84246" lon="-3.67441">
        <ele>50.6</ele>
        <time>2021-08-12T13:57:25Z</time>
      </trkpt>
      <trkpt lat="47.84243" lon="-3.67437">
        <ele>50.6</ele>
        <time>2021-08-12T13:57:26Z</time>
      </trkpt>
      <trkpt lat="47.8424" lon="-3.67432">
        <ele>50.8</ele>
        <time>2021-08-12T13:57:27Z</time>
      </trkpt>
      <trkpt lat="47.84237" lon="-3.67427">
        <ele>51</ele>
        <time>2021-08-12T13:57:28Z</time>
      </trkpt>
      <trkpt lat="47.84234" lon="-3.67422">
        <ele>51.2</ele>
        <time>2021-08-12T13:57:29Z</time>
      </trkpt>
      <trkpt lat="47.84232" lon="-3.67417">
        <ele>51.2</ele>
        <time>2021-08-12T13:57:30Z</time>
      </trkpt>
      <trkpt lat="47.84229" lon="-3.67413">
        <ele>51.2</ele>
        <time>2021-08-12T13:57:31Z</time>
      </trkpt>
      <trkpt lat="47.84225" lon="-3.67408">
        <ele>51.4</ele>
        <time>2021-08-12T13:57:32Z</time>
      </trkpt>
      <trkpt lat="47.84222" lon="-3.67403">
        <ele>51.4</ele>
        <time>2021-08-12T13:57:33Z</time>
      </trkpt>
      <trkpt lat="47.84219" lon="-3.67398">
        <ele>51.4</ele>
        <time>2021-08-12T13:57:34Z</time>
      </trkpt>
      <trkpt lat="47.84212" lon="-3.67389">
        <ele>51.6</ele>
        <time>2021-08-12T13:57:36Z</time>
      </trkpt>
      <trkpt lat="47.84209" lon="-3.67384">
        <ele>51.6</ele>
        <time>2021-08-12T13:57:37Z</time>
      </trkpt>
      <trkpt lat="47.84205" lon="-3.67378">
        <ele>51.6</ele>
        <time>2021-08-12T13:57:38Z</time>
      </trkpt>
      <trkpt lat="47.84202" lon="-3.67374">
        <ele>51.4</ele>
        <time>2021-08-12T13:57:39Z</time>
      </trkpt>
      <trkpt lat="47.84199" lon="-3.67369">
        <ele>51.4</ele>
        <time>2021-08-12T13:57:40Z</time>
      </trkpt>
      <trkpt lat="47.84196" lon="-3.67364">
        <ele>51.4</ele>
        <time>2021-08-12T13:57:41Z</time>
      </trkpt>
      <trkpt lat="47.84193" lon="-3.67359">
        <ele>51.4</ele>
        <time>2021-08-12T13:57:42Z</time>
      </trkpt>
      <trkpt lat="47.8419" lon="-3.67353">
        <ele>51.4</ele>
        <time>2021-08-12T13:57:43Z</time>
      </trkpt>
      <trkpt lat="47.84187" lon="-3.67348">
        <ele>51.4</ele>
        <time>2021-08-12T13:57:44Z</time>
      </trkpt>
      <trkpt lat="47.84183" lon="-3.67343">
        <ele>51.4</ele>
        <time>2021-08-12T13:57:45Z</time>
      </trkpt>
      <trkpt lat="47.84177" lon="-3.67333">
        <ele>51.2</ele>
        <time>2021-08-12T13:57:47Z</time>
      </trkpt>
      <trkpt lat="47.84174" lon="-3.67328">
        <ele>51.2</ele>
        <time>2021-08-12T13:57:48Z</time>
      </trkpt>
      <trkpt lat="47.8417" lon="-3.67323">
        <ele>51.2</ele>
        <time>2021-08-12T13:57:49Z</time>
      </trkpt>
      <trkpt lat="47.84167" lon="-3.67318">
        <ele>51.2</ele>
        <time>2021-08-12T13:57:50Z</time>
      </trkpt>
      <trkpt lat="47.84164" lon="-3.67313">
        <ele>51.2</ele>
        <time>2021-08-12T13:57:51Z</time>
      </trkpt>
      <trkpt lat="47.84161" lon="-3.67308">
        <ele>51.2</ele>
        <time>2021-08-12T13:57:52Z</time>
      </trkpt>
      <trkpt lat="47.84158" lon="-3.67303">
        <ele>51.2</ele>
        <time>2021-08-12T13:57:53Z</time>
      </trkpt>
      <trkpt lat="47.84154" lon="-3.67299">
        <ele>51.2</ele>
        <time>2021-08-12T13:57:54Z</time>
      </trkpt>
      <trkpt lat="47.84151" lon="-3.67294">
        <ele>51.2</ele>
        <time>2021-08-12T13:57:55Z</time>
      </trkpt>
      <trkpt lat="47.84148" lon="-3.67288">
        <ele>51.2</ele>
        <time>2021-08-12T13:57:56Z</time>
      </trkpt>
      <trkpt lat="47.84141" lon="-3.67278">
        <ele>51.2</ele>
        <time>2021-08-12T13:57:58Z</time>
      </trkpt>
      <trkpt lat="47.84138" lon="-3.67272">
        <ele>51.2</ele>
        <time>2021-08-12T13:57:59Z</time>
      </trkpt>
      <trkpt lat="47.84134" lon="-3.67267">
        <ele>51.2</ele>
        <time>2021-08-12T13:58:00Z</time>
      </trkpt>
      <trkpt lat="47.84131" lon="-3.67261">
        <ele>51.2</ele>
        <time>2021-08-12T13:58:01Z</time>
      </trkpt>
      <trkpt lat="47.84128" lon="-3.67256">
        <ele>51.2</ele>
        <time>2021-08-12T13:58:02Z</time>
      </trkpt>
      <trkpt lat="47.84124" lon="-3.67251">
        <ele>51</ele>
        <time>2021-08-12T13:58:03Z</time>
      </trkpt>
      <trkpt lat="47.84121" lon="-3.67245">
        <ele>51</ele>
        <time>2021-08-12T13:58:04Z</time>
      </trkpt>
      <trkpt lat="47.84117" lon="-3.6724">
        <ele>50.8</ele>
        <time>2021-08-12T13:58:05Z</time>
      </trkpt>
      <trkpt lat="47.84113" lon="-3.67234">
        <ele>50.8</ele>
        <time>2021-08-12T13:58:06Z</time>
      </trkpt>
      <trkpt lat="47.8411" lon="-3.67229">
        <ele>50.6</ele>
        <time>2021-08-12T13:58:07Z</time>
      </trkpt>
      <trkpt lat="47.84104" lon="-3.6722">
        <ele>50.6</ele>
        <time>2021-08-12T13:58:09Z</time>
      </trkpt>
      <trkpt lat="47.841" lon="-3.67215">
        <ele>50.6</ele>
        <time>2021-08-12T13:58:10Z</time>
      </trkpt>
      <trkpt lat="47.84097" lon="-3.6721">
        <ele>50.6</ele>
        <time>2021-08-12T13:58:11Z</time>
      </trkpt>
      <trkpt lat="47.84093" lon="-3.67204">
        <ele>50.6</ele>
        <time>2021-08-12T13:58:12Z</time>
      </trkpt>
      <trkpt lat="47.8409" lon="-3.67198">
        <ele>50.6</ele>
        <time>2021-08-12T13:58:13Z</time>
      </trkpt>
      <trkpt lat="47.84087" lon="-3.67192">
        <ele>50.6</ele>
        <time>2021-08-12T13:58:14Z</time>
      </trkpt>
      <trkpt lat="47.84083" lon="-3.67187">
        <ele>50.6</ele>
        <time>2021-08-12T13:58:15Z</time>
      </trkpt>
      <trkpt lat="47.84079" lon="-3.67182">
        <ele>50.6</ele>
        <time>2021-08-12T13:58:16Z</time>
      </trkpt>
      <trkpt lat="47.84075" lon="-3.67176">
        <ele>50.6</ele>
        <time>2021-08-12T13:58:17Z</time>
      </trkpt>
      <trkpt lat="47.84072" lon="-3.6717">
        <ele>50.6</ele>
        <time>2021-08-12T13:58:18Z</time>
      </trkpt>
      <trkpt lat="47.84065" lon="-3.67159">
        <ele>50.6</ele>
        <time>2021-08-12T13:58:20Z</time>
      </trkpt>
      <trkpt lat="47.84061" lon="-3.67153">
        <ele>50.6</ele>
        <time>2021-08-12T13:58:21Z</time>
      </trkpt>
      <trkpt lat="47.84058" lon="-3.67148">
        <ele>50.6</ele>
        <time>2021-08-12T13:58:22Z</time>
      </trkpt>
      <trkpt lat="47.84054" lon="-3.67143">
        <ele>50.6</ele>
        <time>2021-08-12T13:58:23Z</time>
      </trkpt>
      <trkpt lat="47.84051" lon="-3.67137">
        <ele>50.6</ele>
        <time>2021-08-12T13:58:24Z</time>
      </trkpt>
      <trkpt lat="47.84048" lon="-3.67132">
        <ele>50.6</ele>
        <time>2021-08-12T13:58:25Z</time>
      </trkpt>
      <trkpt lat="47.84044" lon="-3.67127">
        <ele>50.8</ele>
        <time>2021-08-12T13:58:26Z</time>
      </trkpt>
      <trkpt lat="47.84041" lon="-3.67121">
        <ele>50.8</ele>
        <time>2021-08-12T13:58:27Z</time>
      </trkpt>
      <trkpt lat="47.84038" lon="-3.67116">
        <ele>50.8</ele>
        <time>2021-08-12T13:58:28Z</time>
      </trkpt>
      <trkpt lat="47.84034" lon="-3.67111">
        <ele>51</ele>
        <time>2021-08-12T13:58:29Z</time>
      </trkpt>
      <trkpt lat="47.84027" lon="-3.671">
        <ele>51</ele>
        <time>2021-08-12T13:58:31Z</time>
      </trkpt>
      <trkpt lat="47.84024" lon="-3.67095">
        <ele>51</ele>
        <time>2021-08-12T13:58:32Z</time>
      </trkpt>
      <trkpt lat="47.8402" lon="-3.6709">
        <ele>51</ele>
        <time>2021-08-12T13:58:33Z</time>
      </trkpt>
      <trkpt lat="47.84017" lon="-3.67084">
        <ele>51</ele>
        <time>2021-08-12T13:58:34Z</time>
      </trkpt>
      <trkpt lat="47.84014" lon="-3.67079">
        <ele>51</ele>
        <time>2021-08-12T13:58:35Z</time>
      </trkpt>
      <trkpt lat="47.8401" lon="-3.67073">
        <ele>51</ele>
        <time>2021-08-12T13:58:36Z</time>
      </trkpt>
      <trkpt lat="47.84007" lon="-3.67068">
        <ele>51</ele>
        <time>2021-08-12T13:58:37Z</time>
      </trkpt>
      <trkpt lat="47.84004" lon="-3.67063">
        <ele>51</ele>
        <time>2021-08-12T13:58:38Z</time>
      </trkpt>
      <trkpt lat="47.84" lon="-3.67058">
        <ele>51</ele>
        <time>2021-08-12T13:58:39Z</time>
      </trkpt>
      <trkpt lat="47.83997" lon="-3.67052">
        <ele>51</ele>
        <time>2021-08-12T13:58:40Z</time>
      </trkpt>
      <trkpt lat="47.8399" lon="-3.67042">
        <ele>51</ele>
        <time>2021-08-12T13:58:42Z</time>
      </trkpt>
      <trkpt lat="47.83986" lon="-3.67036">
        <ele>51</ele>
        <time>2021-08-12T13:58:43Z</time>
      </trkpt>
      <trkpt lat="47.83983" lon="-3.67031">
        <ele>51</ele>
        <time>2021-08-12T13:58:44Z</time>
      </trkpt>
      <trkpt lat="47.83979" lon="-3.67026">
        <ele>51</ele>
        <time>2021-08-12T13:58:45Z</time>
      </trkpt>
      <trkpt lat="47.83976" lon="-3.6702">
        <ele>51</ele>
        <time>2021-08-12T13:58:46Z</time>
      </trkpt>
      <trkpt lat="47.83972" lon="-3.67015">
        <ele>51</ele>
        <time>2021-08-12T13:58:47Z</time>
      </trkpt>
      <trkpt lat="47.83969" lon="-3.6701">
        <ele>50.8</ele>
        <time>2021-08-12T13:58:48Z</time>
      </trkpt>
      <trkpt lat="47.83966" lon="-3.67005">
        <ele>50.8</ele>
        <time>2021-08-12T13:58:49Z</time>
      </trkpt>
      <trkpt lat="47.83962" lon="-3.67">
        <ele>50.8</ele>
        <time>2021-08-12T13:58:50Z</time>
      </trkpt>
      <trkpt lat="47.83959" lon="-3.66994">
        <ele>50.6</ele>
        <time>2021-08-12T13:58:51Z</time>
      </trkpt>
      <trkpt lat="47.83952" lon="-3.66984">
        <ele>50.6</ele>
        <time>2021-08-12T13:58:53Z</time>
      </trkpt>
      <trkpt lat="47.83948" lon="-3.66979">
        <ele>50.6</ele>
        <time>2021-08-12T13:58:54Z</time>
      </trkpt>
      <trkpt lat="47.83945" lon="-3.66973">
        <ele>50.6</ele>
        <time>2021-08-12T13:58:55Z</time>
      </trkpt>
      <trkpt lat="47.83942" lon="-3.66968">
        <ele>50.6</ele>
        <time>2021-08-12T13:58:56Z</time>
      </trkpt>
      <trkpt lat="47.83938" lon="-3.66962">
        <ele>50.6</ele>
        <time>2021-08-12T13:58:57Z</time>
      </trkpt>
      <trkpt lat="47.83935" lon="-3.66957">
        <ele>50.6</ele>
        <time>2021-08-12T13:58:58Z</time>
      </trkpt>
      <trkpt lat="47.83931" lon="-3.66952">
        <ele>50.6</ele>
        <time>2021-08-12T13:58:59Z</time>
      </trkpt>
      <trkpt lat="47.83928" lon="-3.66947">
        <ele>50.6</ele>
        <time>2021-08-12T13:59:00Z</time>
      </trkpt>
      <trkpt lat="47.83925" lon="-3.66941">
        <ele>50.6</ele>
        <time>2021-08-12T13:59:01Z</time>
      </trkpt>
      <trkpt lat="47.83922" lon="-3.66936">
        <ele>50.6</ele>
        <time>2021-08-12T13:59:02Z</time>
      </trkpt>
      <trkpt lat="47.83919" lon="-3.6693">
        <ele>50.6</ele>
        <time>2021-08-12T13:59:03Z</time>
      </trkpt>
      <trkpt lat="47.83916" lon="-3.66925">
        <ele>50.6</ele>
        <time>2021-08-12T13:59:04Z</time>
      </trkpt>
      <trkpt lat="47.83913" lon="-3.6692">
        <ele>50.6</ele>
        <time>2021-08-12T13:59:05Z</time>
      </trkpt>
      <trkpt lat="47.83909" lon="-3.66915">
        <ele>50.6</ele>
        <time>2021-08-12T13:59:06Z</time>
      </trkpt>
      <trkpt lat="47.83907" lon="-3.66911">
        <ele>50.6</ele>
        <time>2021-08-12T13:59:07Z</time>
      </trkpt>
      <trkpt lat="47.83904" lon="-3.66906">
        <ele>50.6</ele>
        <time>2021-08-12T13:59:08Z</time>
      </trkpt>
      <trkpt lat="47.83901" lon="-3.66902">
        <ele>50.6</ele>
        <time>2021-08-12T13:59:09Z</time>
      </trkpt>
      <trkpt lat="47.83898" lon="-3.66897">
        <ele>50.6</ele>
        <time>2021-08-12T13:59:10Z</time>
      </trkpt>
      <trkpt lat="47.83895" lon="-3.66892">
        <ele>50.4</ele>
        <time>2021-08-12T13:59:11Z</time>
      </trkpt>
      <trkpt lat="47.83892" lon="-3.66888">
        <ele>50.4</ele>
        <time>2021-08-12T13:59:12Z</time>
      </trkpt>
      <trkpt lat="47.83889" lon="-3.66883">
        <ele>50.4</ele>
        <time>2021-08-12T13:59:13Z</time>
      </trkpt>
      <trkpt lat="47.83884" lon="-3.66874">
        <ele>50.4</ele>
        <time>2021-08-12T13:59:15Z</time>
      </trkpt>
      <trkpt lat="47.83881" lon="-3.66869">
        <ele>50.4</ele>
        <time>2021-08-12T13:59:16Z</time>
      </trkpt>
      <trkpt lat="47.83878" lon="-3.66865">
        <ele>50.2</ele>
        <time>2021-08-12T13:59:17Z</time>
      </trkpt>
      <trkpt lat="47.83875" lon="-3.6686">
        <ele>50.2</ele>
        <time>2021-08-12T13:59:18Z</time>
      </trkpt>
      <trkpt lat="47.83872" lon="-3.66856">
        <ele>50.2</ele>
        <time>2021-08-12T13:59:19Z</time>
      </trkpt>
      <trkpt lat="47.83869" lon="-3.66852">
        <ele>50</ele>
        <time>2021-08-12T13:59:20Z</time>
      </trkpt>
      <trkpt lat="47.83865" lon="-3.66847">
        <ele>50</ele>
        <time>2021-08-12T13:59:21Z</time>
      </trkpt>
      <trkpt lat="47.83862" lon="-3.66842">
        <ele>50</ele>
        <time>2021-08-12T13:59:22Z</time>
      </trkpt>
      <trkpt lat="47.83858" lon="-3.66837">
        <ele>50</ele>
        <time>2021-08-12T13:59:23Z</time>
      </trkpt>
      <trkpt lat="47.83855" lon="-3.66832">
        <ele>50</ele>
        <time>2021-08-12T13:59:24Z</time>
      </trkpt>
      <trkpt lat="47.83848" lon="-3.66821">
        <ele>49.8</ele>
        <time>2021-08-12T13:59:26Z</time>
      </trkpt>
      <trkpt lat="47.83844" lon="-3.66816">
        <ele>49.8</ele>
        <time>2021-08-12T13:59:27Z</time>
      </trkpt>
      <trkpt lat="47.83841" lon="-3.6681">
        <ele>49.8</ele>
        <time>2021-08-12T13:59:28Z</time>
      </trkpt>
      <trkpt lat="47.83837" lon="-3.66804">
        <ele>49.8</ele>
        <time>2021-08-12T13:59:29Z</time>
      </trkpt>
      <trkpt lat="47.83833" lon="-3.66799">
        <ele>49.4</ele>
        <time>2021-08-12T13:59:30Z</time>
      </trkpt>
      <trkpt lat="47.8383" lon="-3.66793">
        <ele>49.4</ele>
        <time>2021-08-12T13:59:31Z</time>
      </trkpt>
      <trkpt lat="47.83826" lon="-3.66788">
        <ele>49</ele>
        <time>2021-08-12T13:59:32Z</time>
      </trkpt>
      <trkpt lat="47.83822" lon="-3.66782">
        <ele>48.6</ele>
        <time>2021-08-12T13:59:33Z</time>
      </trkpt>
      <trkpt lat="47.83819" lon="-3.66776">
        <ele>48.4</ele>
        <time>2021-08-12T13:59:34Z</time>
      </trkpt>
      <trkpt lat="47.83815" lon="-3.6677">
        <ele>48.4</ele>
        <time>2021-08-12T13:59:35Z</time>
      </trkpt>
      <trkpt lat="47.83807" lon="-3.66758">
        <ele>48.2</ele>
        <time>2021-08-12T13:59:37Z</time>
      </trkpt>
      <trkpt lat="47.83803" lon="-3.66753">
        <ele>48</ele>
        <time>2021-08-12T13:59:38Z</time>
      </trkpt>
      <trkpt lat="47.83799" lon="-3.66747">
        <ele>47.8</ele>
        <time>2021-08-12T13:59:39Z</time>
      </trkpt>
      <trkpt lat="47.83795" lon="-3.6674">
        <ele>47.6</ele>
        <time>2021-08-12T13:59:40Z</time>
      </trkpt>
      <trkpt lat="47.83791" lon="-3.66734">
        <ele>47.4</ele>
        <time>2021-08-12T13:59:41Z</time>
      </trkpt>
      <trkpt lat="47.83788" lon="-3.66728">
        <ele>47.2</ele>
        <time>2021-08-12T13:59:42Z</time>
      </trkpt>
      <trkpt lat="47.83784" lon="-3.66721">
        <ele>47.2</ele>
        <time>2021-08-12T13:59:43Z</time>
      </trkpt>
      <trkpt lat="47.8378" lon="-3.66715">
        <ele>47</ele>
        <time>2021-08-12T13:59:44Z</time>
      </trkpt>
      <trkpt lat="47.83776" lon="-3.66709">
        <ele>47</ele>
        <time>2021-08-12T13:59:45Z</time>
      </trkpt>
      <trkpt lat="47.83772" lon="-3.66703">
        <ele>47</ele>
        <time>2021-08-12T13:59:46Z</time>
      </trkpt>
      <trkpt lat="47.83769" lon="-3.66698">
        <ele>46.8</ele>
        <time>2021-08-12T13:59:47Z</time>
      </trkpt>
      <trkpt lat="47.83765" lon="-3.66692">
        <ele>46.6</ele>
        <time>2021-08-12T13:59:48Z</time>
      </trkpt>
      <trkpt lat="47.83762" lon="-3.66687">
        <ele>46.6</ele>
        <time>2021-08-12T13:59:49Z</time>
      </trkpt>
      <trkpt lat="47.83758" lon="-3.66681">
        <ele>46.4</ele>
        <time>2021-08-12T13:59:50Z</time>
      </trkpt>
      <trkpt lat="47.83755" lon="-3.66675">
        <ele>46.2</ele>
        <time>2021-08-12T13:59:51Z</time>
      </trkpt>
      <trkpt lat="47.83752" lon="-3.6667">
        <ele>46</ele>
        <time>2021-08-12T13:59:52Z</time>
      </trkpt>
      <trkpt lat="47.83749" lon="-3.66666">
        <ele>46</ele>
        <time>2021-08-12T13:59:53Z</time>
      </trkpt>
      <trkpt lat="47.83746" lon="-3.66661">
        <ele>46</ele>
        <time>2021-08-12T13:59:54Z</time>
      </trkpt>
      <trkpt lat="47.83745" lon="-3.66658">
        <ele>46</ele>
        <time>2021-08-12T13:59:55Z</time>
      </trkpt>
      <trkpt lat="47.83745" lon="-3.66655">
        <ele>46</ele>
        <time>2021-08-12T13:59:56Z</time>
      </trkpt>
      <trkpt lat="47.83746" lon="-3.66653">
        <ele>46</ele>
        <time>2021-08-12T13:59:57Z</time>
      </trkpt>
      <trkpt lat="47.83747" lon="-3.66651">
        <ele>46</ele>
        <time>2021-08-12T13:59:58Z</time>
      </trkpt>
      <trkpt lat="47.83747" lon="-3.66649">
        <ele>46</ele>
        <time>2021-08-12T13:59:59Z</time>
      </trkpt>
      <trkpt lat="47.83748" lon="-3.66648">
        <ele>46</ele>
        <time>2021-08-12T14:00:00Z</time>
      </trkpt>
      <trkpt lat="47.83748" lon="-3.66646">
        <ele>46</ele>
        <time>2021-08-12T14:00:01Z</time>
      </trkpt>
      <trkpt lat="47.83749" lon="-3.66644">
        <ele>46</ele>
        <time>2021-08-12T14:00:02Z</time>
      </trkpt>
      <trkpt lat="47.83749" lon="-3.66642">
        <ele>46.4</ele>
        <time>2021-08-12T14:00:35Z</time>
      </trkpt>
      <trkpt lat="47.83749" lon="-3.66642">
        <ele>46.4</ele>
        <time>2021-08-12T14:00:36Z</time>
      </trkpt>
      <trkpt lat="47.8375" lon="-3.6664">
        <ele>46.4</ele>
        <time>2021-08-12T14:00:37Z</time>
      </trkpt>
      <trkpt lat="47.8375" lon="-3.66639">
        <ele>46.4</ele>
        <time>2021-08-12T14:00:38Z</time>
      </trkpt>
      <trkpt lat="47.83752" lon="-3.66635">
        <ele>46.4</ele>
        <time>2021-08-12T14:00:40Z</time>
      </trkpt>
      <trkpt lat="47.83753" lon="-3.66631">
        <ele>46.4</ele>
        <time>2021-08-12T14:00:41Z</time>
      </trkpt>
      <trkpt lat="47.83754" lon="-3.66626">
        <ele>46.4</ele>
        <time>2021-08-12T14:00:42Z</time>
      </trkpt>
      <trkpt lat="47.83755" lon="-3.66621">
        <ele>46.4</ele>
        <time>2021-08-12T14:00:43Z</time>
      </trkpt>
      <trkpt lat="47.83757" lon="-3.66616">
        <ele>46.4</ele>
        <time>2021-08-12T14:00:44Z</time>
      </trkpt>
      <trkpt lat="47.83759" lon="-3.66609">
        <ele>46.4</ele>
        <time>2021-08-12T14:00:45Z</time>
      </trkpt>
      <trkpt lat="47.83761" lon="-3.66603">
        <ele>46.4</ele>
        <time>2021-08-12T14:00:46Z</time>
      </trkpt>
      <trkpt lat="47.83763" lon="-3.66596">
        <ele>46.2</ele>
        <time>2021-08-12T14:00:47Z</time>
      </trkpt>
      <trkpt lat="47.83765" lon="-3.66588">
        <ele>46.2</ele>
        <time>2021-08-12T14:00:48Z</time>
      </trkpt>
      <trkpt lat="47.83769" lon="-3.66574">
        <ele>46.2</ele>
        <time>2021-08-12T14:00:50Z</time>
      </trkpt>
      <trkpt lat="47.83771" lon="-3.66567">
        <ele>46</ele>
        <time>2021-08-12T14:00:51Z</time>
      </trkpt>
      <trkpt lat="47.83773" lon="-3.66559">
        <ele>45.8</ele>
        <time>2021-08-12T14:00:52Z</time>
      </trkpt>
      <trkpt lat="47.83776" lon="-3.66553">
        <ele>45.8</ele>
        <time>2021-08-12T14:00:53Z</time>
      </trkpt>
      <trkpt lat="47.83778" lon="-3.66546">
        <ele>45.8</ele>
        <time>2021-08-12T14:00:54Z</time>
      </trkpt>
      <trkpt lat="47.8378" lon="-3.66539">
        <ele>45.6</ele>
        <time>2021-08-12T14:00:55Z</time>
      </trkpt>
      <trkpt lat="47.83781" lon="-3.66532">
        <ele>45.6</ele>
        <time>2021-08-12T14:00:56Z</time>
      </trkpt>
      <trkpt lat="47.83783" lon="-3.66525">
        <ele>45.6</ele>
        <time>2021-08-12T14:00:57Z</time>
      </trkpt>
      <trkpt lat="47.83785" lon="-3.66518">
        <ele>45.6</ele>
        <time>2021-08-12T14:00:58Z</time>
      </trkpt>
      <trkpt lat="47.83788" lon="-3.66511">
        <ele>45.6</ele>
        <time>2021-08-12T14:00:59Z</time>
      </trkpt>
      <trkpt lat="47.83792" lon="-3.66498">
        <ele>45.6</ele>
        <time>2021-08-12T14:01:01Z</time>
      </trkpt>
      <trkpt lat="47.83795" lon="-3.66491">
        <ele>45.6</ele>
        <time>2021-08-12T14:01:02Z</time>
      </trkpt>
      <trkpt lat="47.83797" lon="-3.66485">
        <ele>45.8</ele>
        <time>2021-08-12T14:01:03Z</time>
      </trkpt>
      <trkpt lat="47.83799" lon="-3.66478">
        <ele>46.2</ele>
        <time>2021-08-12T14:01:04Z</time>
      </trkpt>
      <trkpt lat="47.83802" lon="-3.66473">
        <ele>46.2</ele>
        <time>2021-08-12T14:01:05Z</time>
      </trkpt>
      <trkpt lat="47.83804" lon="-3.66467">
        <ele>46.4</ele>
        <time>2021-08-12T14:01:06Z</time>
      </trkpt>
      <trkpt lat="47.83806" lon="-3.66461">
        <ele>46.4</ele>
        <time>2021-08-12T14:01:07Z</time>
      </trkpt>
      <trkpt lat="47.83808" lon="-3.66454">
        <ele>46.6</ele>
        <time>2021-08-12T14:01:08Z</time>
      </trkpt>
      <trkpt lat="47.8381" lon="-3.66448">
        <ele>47</ele>
        <time>2021-08-12T14:01:09Z</time>
      </trkpt>
      <trkpt lat="47.83812" lon="-3.66441">
        <ele>47.2</ele>
        <time>2021-08-12T14:01:10Z</time>
      </trkpt>
      <trkpt lat="47.83814" lon="-3.66435">
        <ele>47.6</ele>
        <time>2021-08-12T14:01:11Z</time>
      </trkpt>
      <trkpt lat="47.83817" lon="-3.66429">
        <ele>48</ele>
        <time>2021-08-12T14:01:12Z</time>
      </trkpt>
      <trkpt lat="47.83819" lon="-3.66423">
        <ele>48.4</ele>
        <time>2021-08-12T14:01:13Z</time>
      </trkpt>
      <trkpt lat="47.83821" lon="-3.66416">
        <ele>48.8</ele>
        <time>2021-08-12T14:01:14Z</time>
      </trkpt>
      <trkpt lat="47.83823" lon="-3.6641">
        <ele>48.8</ele>
        <time>2021-08-12T14:01:15Z</time>
      </trkpt>
      <trkpt lat="47.83825" lon="-3.66403">
        <ele>49</ele>
        <time>2021-08-12T14:01:16Z</time>
      </trkpt>
      <trkpt lat="47.83827" lon="-3.66396">
        <ele>49.2</ele>
        <time>2021-08-12T14:01:17Z</time>
      </trkpt>
      <trkpt lat="47.83829" lon="-3.6639">
        <ele>49.2</ele>
        <time>2021-08-12T14:01:18Z</time>
      </trkpt>
      <trkpt lat="47.83831" lon="-3.66383">
        <ele>49.4</ele>
        <time>2021-08-12T14:01:19Z</time>
      </trkpt>
      <trkpt lat="47.83833" lon="-3.66377">
        <ele>49.6</ele>
        <time>2021-08-12T14:01:20Z</time>
      </trkpt>
      <trkpt lat="47.83835" lon="-3.6637">
        <ele>49.6</ele>
        <time>2021-08-12T14:01:21Z</time>
      </trkpt>
      <trkpt lat="47.83838" lon="-3.66357">
        <ele>49.8</ele>
        <time>2021-08-12T14:01:23Z</time>
      </trkpt>
      <trkpt lat="47.8384" lon="-3.6635">
        <ele>49.8</ele>
        <time>2021-08-12T14:01:24Z</time>
      </trkpt>
      <trkpt lat="47.83842" lon="-3.66343">
        <ele>49.8</ele>
        <time>2021-08-12T14:01:25Z</time>
      </trkpt>
      <trkpt lat="47.83844" lon="-3.66336">
        <ele>49.8</ele>
        <time>2021-08-12T14:01:26Z</time>
      </trkpt>
      <trkpt lat="47.83845" lon="-3.66328">
        <ele>49.8</ele>
        <time>2021-08-12T14:01:27Z</time>
      </trkpt>
      <trkpt lat="47.83846" lon="-3.66321">
        <ele>49.8</ele>
        <time>2021-08-12T14:01:28Z</time>
      </trkpt>
      <trkpt lat="47.83847" lon="-3.66314">
        <ele>49.8</ele>
        <time>2021-08-12T14:01:29Z</time>
      </trkpt>
      <trkpt lat="47.83848" lon="-3.66307">
        <ele>50</ele>
        <time>2021-08-12T14:01:30Z</time>
      </trkpt>
      <trkpt lat="47.83849" lon="-3.663">
        <ele>50</ele>
        <time>2021-08-12T14:01:31Z</time>
      </trkpt>
      <trkpt lat="47.8385" lon="-3.66293">
        <ele>50</ele>
        <time>2021-08-12T14:01:32Z</time>
      </trkpt>
      <trkpt lat="47.83852" lon="-3.66279">
        <ele>50</ele>
        <time>2021-08-12T14:01:34Z</time>
      </trkpt>
      <trkpt lat="47.83852" lon="-3.66272">
        <ele>50</ele>
        <time>2021-08-12T14:01:35Z</time>
      </trkpt>
      <trkpt lat="47.83853" lon="-3.66265">
        <ele>50</ele>
        <time>2021-08-12T14:01:36Z</time>
      </trkpt>
      <trkpt lat="47.83853" lon="-3.66258">
        <ele>50</ele>
        <time>2021-08-12T14:01:37Z</time>
      </trkpt>
      <trkpt lat="47.83853" lon="-3.66251">
        <ele>50</ele>
        <time>2021-08-12T14:01:38Z</time>
      </trkpt>
      <trkpt lat="47.83854" lon="-3.66243">
        <ele>50.2</ele>
        <time>2021-08-12T14:01:39Z</time>
      </trkpt>
      <trkpt lat="47.83854" lon="-3.66235">
        <ele>50.2</ele>
        <time>2021-08-12T14:01:40Z</time>
      </trkpt>
      <trkpt lat="47.83855" lon="-3.66228">
        <ele>50.2</ele>
        <time>2021-08-12T14:01:41Z</time>
      </trkpt>
      <trkpt lat="47.83856" lon="-3.66221">
        <ele>50.2</ele>
        <time>2021-08-12T14:01:42Z</time>
      </trkpt>
      <trkpt lat="47.83856" lon="-3.66214">
        <ele>50.2</ele>
        <time>2021-08-12T14:01:43Z</time>
      </trkpt>
      <trkpt lat="47.83856" lon="-3.66208">
        <ele>50.4</ele>
        <time>2021-08-12T14:01:44Z</time>
      </trkpt>
      <trkpt lat="47.83856" lon="-3.66201">
        <ele>50.4</ele>
        <time>2021-08-12T14:01:45Z</time>
      </trkpt>
      <trkpt lat="47.83855" lon="-3.66195">
        <ele>50.4</ele>
        <time>2021-08-12T14:01:46Z</time>
      </trkpt>
      <trkpt lat="47.83852" lon="-3.66189">
        <ele>50.4</ele>
        <time>2021-08-12T14:01:47Z</time>
      </trkpt>
      <trkpt lat="47.83849" lon="-3.66184">
        <ele>50.4</ele>
        <time>2021-08-12T14:01:48Z</time>
      </trkpt>
      <trkpt lat="47.83845" lon="-3.6618">
        <ele>50.4</ele>
        <time>2021-08-12T14:01:49Z</time>
      </trkpt>
      <trkpt lat="47.83841" lon="-3.66177">
        <ele>50.4</ele>
        <time>2021-08-12T14:01:50Z</time>
      </trkpt>
      <trkpt lat="47.83837" lon="-3.66174">
        <ele>50.4</ele>
        <time>2021-08-12T14:01:51Z</time>
      </trkpt>
      <trkpt lat="47.83832" lon="-3.66171">
        <ele>50.4</ele>
        <time>2021-08-12T14:01:52Z</time>
      </trkpt>
      <trkpt lat="47.83823" lon="-3.66165">
        <ele>50.4</ele>
        <time>2021-08-12T14:01:54Z</time>
      </trkpt>
      <trkpt lat="47.83819" lon="-3.66162">
        <ele>50.4</ele>
        <time>2021-08-12T14:01:55Z</time>
      </trkpt>
      <trkpt lat="47.83814" lon="-3.66158">
        <ele>50.4</ele>
        <time>2021-08-12T14:01:56Z</time>
      </trkpt>
      <trkpt lat="47.8381" lon="-3.66155">
        <ele>50.4</ele>
        <time>2021-08-12T14:01:57Z</time>
      </trkpt>
      <trkpt lat="47.83805" lon="-3.66151">
        <ele>50.4</ele>
        <time>2021-08-12T14:01:58Z</time>
      </trkpt>
      <trkpt lat="47.838" lon="-3.66146">
        <ele>50.4</ele>
        <time>2021-08-12T14:01:59Z</time>
      </trkpt>
      <trkpt lat="47.83796" lon="-3.66142">
        <ele>50.2</ele>
        <time>2021-08-12T14:02:00Z</time>
      </trkpt>
      <trkpt lat="47.83791" lon="-3.66137">
        <ele>50.2</ele>
        <time>2021-08-12T14:02:01Z</time>
      </trkpt>
      <trkpt lat="47.83785" lon="-3.66132">
        <ele>50.2</ele>
        <time>2021-08-12T14:02:02Z</time>
      </trkpt>
      <trkpt lat="47.8378" lon="-3.66127">
        <ele>50.2</ele>
        <time>2021-08-12T14:02:03Z</time>
      </trkpt>
      <trkpt lat="47.83774" lon="-3.66121">
        <ele>50.2</ele>
        <time>2021-08-12T14:02:04Z</time>
      </trkpt>
      <trkpt lat="47.83768" lon="-3.66116">
        <ele>50.2</ele>
        <time>2021-08-12T14:02:05Z</time>
      </trkpt>
      <trkpt lat="47.83762" lon="-3.66111">
        <ele>50.2</ele>
        <time>2021-08-12T14:02:06Z</time>
      </trkpt>
      <trkpt lat="47.83755" lon="-3.66106">
        <ele>50.2</ele>
        <time>2021-08-12T14:02:07Z</time>
      </trkpt>
      <trkpt lat="47.83748" lon="-3.66102">
        <ele>50</ele>
        <time>2021-08-12T14:02:08Z</time>
      </trkpt>
      <trkpt lat="47.83741" lon="-3.66098">
        <ele>49.8</ele>
        <time>2021-08-12T14:02:09Z</time>
      </trkpt>
      <trkpt lat="47.83734" lon="-3.66094">
        <ele>49.4</ele>
        <time>2021-08-12T14:02:10Z</time>
      </trkpt>
      <trkpt lat="47.83727" lon="-3.6609">
        <ele>49.4</ele>
        <time>2021-08-12T14:02:11Z</time>
      </trkpt>
      <trkpt lat="47.8372" lon="-3.66087">
        <ele>49</ele>
        <time>2021-08-12T14:02:12Z</time>
      </trkpt>
      <trkpt lat="47.83712" lon="-3.66083">
        <ele>48.2</ele>
        <time>2021-08-12T14:02:13Z</time>
      </trkpt>
      <trkpt lat="47.83705" lon="-3.66079">
        <ele>47.8</ele>
        <time>2021-08-12T14:02:14Z</time>
      </trkpt>
      <trkpt lat="47.8369" lon="-3.66072">
        <ele>47.4</ele>
        <time>2021-08-12T14:02:16Z</time>
      </trkpt>
      <trkpt lat="47.83683" lon="-3.66069">
        <ele>47</ele>
        <time>2021-08-12T14:02:17Z</time>
      </trkpt>
      <trkpt lat="47.83675" lon="-3.66065">
        <ele>46.6</ele>
        <time>2021-08-12T14:02:18Z</time>
      </trkpt>
      <trkpt lat="47.83667" lon="-3.66061">
        <ele>46.4</ele>
        <time>2021-08-12T14:02:19Z</time>
      </trkpt>
      <trkpt lat="47.8366" lon="-3.66057">
        <ele>46.2</ele>
        <time>2021-08-12T14:02:20Z</time>
      </trkpt>
      <trkpt lat="47.83652" lon="-3.66053">
        <ele>46</ele>
        <time>2021-08-12T14:02:21Z</time>
      </trkpt>
      <trkpt lat="47.83645" lon="-3.66049">
        <ele>46</ele>
        <time>2021-08-12T14:02:22Z</time>
      </trkpt>
      <trkpt lat="47.83637" lon="-3.66045">
        <ele>45.8</ele>
        <time>2021-08-12T14:02:23Z</time>
      </trkpt>
      <trkpt lat="47.8363" lon="-3.66041">
        <ele>45.8</ele>
        <time>2021-08-12T14:02:24Z</time>
      </trkpt>
      <trkpt lat="47.83622" lon="-3.66037">
        <ele>45.6</ele>
        <time>2021-08-12T14:02:25Z</time>
      </trkpt>
      <trkpt lat="47.83606" lon="-3.6603">
        <ele>45.4</ele>
        <time>2021-08-12T14:02:27Z</time>
      </trkpt>
      <trkpt lat="47.83598" lon="-3.66026">
        <ele>45.2</ele>
        <time>2021-08-12T14:02:28Z</time>
      </trkpt>
      <trkpt lat="47.83591" lon="-3.66023">
        <ele>45</ele>
        <time>2021-08-12T14:02:29Z</time>
      </trkpt>
      <trkpt lat="47.83583" lon="-3.66019">
        <ele>45</ele>
        <time>2021-08-12T14:02:30Z</time>
      </trkpt>
      <trkpt lat="47.83576" lon="-3.66016">
        <ele>44.8</ele>
        <time>2021-08-12T14:02:31Z</time>
      </trkpt>
      <trkpt lat="47.83569" lon="-3.66013">
        <ele>44.6</ele>
        <time>2021-08-12T14:02:32Z</time>
      </trkpt>
      <trkpt lat="47.83562" lon="-3.6601">
        <ele>44.6</ele>
        <time>2021-08-12T14:02:33Z</time>
      </trkpt>
      <trkpt lat="47.83555" lon="-3.66007">
        <ele>44.6</ele>
        <time>2021-08-12T14:02:34Z</time>
      </trkpt>
      <trkpt lat="47.83548" lon="-3.66003">
        <ele>44.4</ele>
        <time>2021-08-12T14:02:35Z</time>
      </trkpt>
      <trkpt lat="47.83534" lon="-3.65998">
        <ele>44</ele>
        <time>2021-08-12T14:02:37Z</time>
      </trkpt>
      <trkpt lat="47.83526" lon="-3.65995">
        <ele>44</ele>
        <time>2021-08-12T14:02:38Z</time>
      </trkpt>
      <trkpt lat="47.83519" lon="-3.65993">
        <ele>43.8</ele>
        <time>2021-08-12T14:02:39Z</time>
      </trkpt>
      <trkpt lat="47.83512" lon="-3.65991">
        <ele>43.8</ele>
        <time>2021-08-12T14:02:40Z</time>
      </trkpt>
      <trkpt lat="47.83505" lon="-3.6599">
        <ele>43.8</ele>
        <time>2021-08-12T14:02:41Z</time>
      </trkpt>
      <trkpt lat="47.83498" lon="-3.65989">
        <ele>43.8</ele>
        <time>2021-08-12T14:02:42Z</time>
      </trkpt>
      <trkpt lat="47.83491" lon="-3.65989">
        <ele>43.8</ele>
        <time>2021-08-12T14:02:43Z</time>
      </trkpt>
      <trkpt lat="47.83484" lon="-3.65988">
        <ele>43.8</ele>
        <time>2021-08-12T14:02:44Z</time>
      </trkpt>
      <trkpt lat="47.83477" lon="-3.65986">
        <ele>43.8</ele>
        <time>2021-08-12T14:02:45Z</time>
      </trkpt>
      <trkpt lat="47.83471" lon="-3.65985">
        <ele>43.8</ele>
        <time>2021-08-12T14:02:46Z</time>
      </trkpt>
      <trkpt lat="47.83457" lon="-3.6598">
        <ele>43.8</ele>
        <time>2021-08-12T14:02:48Z</time>
      </trkpt>
      <trkpt lat="47.83449" lon="-3.65977">
        <ele>43.8</ele>
        <time>2021-08-12T14:02:49Z</time>
      </trkpt>
      <trkpt lat="47.83442" lon="-3.65973">
        <ele>43.8</ele>
        <time>2021-08-12T14:02:50Z</time>
      </trkpt>
      <trkpt lat="47.83435" lon="-3.65968">
        <ele>43.8</ele>
        <time>2021-08-12T14:02:51Z</time>
      </trkpt>
      <trkpt lat="47.83427" lon="-3.65964">
        <ele>43.8</ele>
        <time>2021-08-12T14:02:52Z</time>
      </trkpt>
      <trkpt lat="47.8342" lon="-3.65959">
        <ele>43.8</ele>
        <time>2021-08-12T14:02:53Z</time>
      </trkpt>
      <trkpt lat="47.83411" lon="-3.65955">
        <ele>43.8</ele>
        <time>2021-08-12T14:02:54Z</time>
      </trkpt>
      <trkpt lat="47.83403" lon="-3.6595">
        <ele>43.8</ele>
        <time>2021-08-12T14:02:55Z</time>
      </trkpt>
      <trkpt lat="47.83395" lon="-3.65947">
        <ele>43.8</ele>
        <time>2021-08-12T14:02:56Z</time>
      </trkpt>
      <trkpt lat="47.83387" lon="-3.65943">
        <ele>43.8</ele>
        <time>2021-08-12T14:02:57Z</time>
      </trkpt>
      <trkpt lat="47.8337" lon="-3.65934">
        <ele>43.4</ele>
        <time>2021-08-12T14:02:59Z</time>
      </trkpt>
      <trkpt lat="47.83362" lon="-3.65929">
        <ele>43</ele>
        <time>2021-08-12T14:03:00Z</time>
      </trkpt>
      <trkpt lat="47.83353" lon="-3.65924">
        <ele>42.4</ele>
        <time>2021-08-12T14:03:01Z</time>
      </trkpt>
      <trkpt lat="47.83345" lon="-3.65919">
        <ele>41.8</ele>
        <time>2021-08-12T14:03:02Z</time>
      </trkpt>
      <trkpt lat="47.83336" lon="-3.65915">
        <ele>41</ele>
        <time>2021-08-12T14:03:03Z</time>
      </trkpt>
      <trkpt lat="47.83327" lon="-3.6591">
        <ele>40.8</ele>
        <time>2021-08-12T14:03:04Z</time>
      </trkpt>
      <trkpt lat="47.83317" lon="-3.65905">
        <ele>40.4</ele>
        <time>2021-08-12T14:03:05Z</time>
      </trkpt>
      <trkpt lat="47.83308" lon="-3.65901">
        <ele>40.2</ele>
        <time>2021-08-12T14:03:06Z</time>
      </trkpt>
      <trkpt lat="47.83299" lon="-3.65896">
        <ele>40</ele>
        <time>2021-08-12T14:03:07Z</time>
      </trkpt>
      <trkpt lat="47.8329" lon="-3.65893">
        <ele>39.6</ele>
        <time>2021-08-12T14:03:08Z</time>
      </trkpt>
      <trkpt lat="47.83273" lon="-3.65886">
        <ele>39</ele>
        <time>2021-08-12T14:03:10Z</time>
      </trkpt>
      <trkpt lat="47.83265" lon="-3.65884">
        <ele>37.2</ele>
        <time>2021-08-12T14:03:11Z</time>
      </trkpt>
      <trkpt lat="47.83257" lon="-3.65882">
        <ele>36.8</ele>
        <time>2021-08-12T14:03:12Z</time>
      </trkpt>
      <trkpt lat="47.8325" lon="-3.65881">
        <ele>36.6</ele>
        <time>2021-08-12T14:03:13Z</time>
      </trkpt>
      <trkpt lat="47.83243" lon="-3.6588">
        <ele>36.4</ele>
        <time>2021-08-12T14:03:14Z</time>
      </trkpt>
      <trkpt lat="47.83236" lon="-3.65881">
        <ele>36.4</ele>
        <time>2021-08-12T14:03:15Z</time>
      </trkpt>
      <trkpt lat="47.8323" lon="-3.65882">
        <ele>36.4</ele>
        <time>2021-08-12T14:03:16Z</time>
      </trkpt>
      <trkpt lat="47.83225" lon="-3.65883">
        <ele>36.2</ele>
        <time>2021-08-12T14:03:17Z</time>
      </trkpt>
      <trkpt lat="47.8322" lon="-3.65885">
        <ele>36.2</ele>
        <time>2021-08-12T14:03:18Z</time>
      </trkpt>
      <trkpt lat="47.83216" lon="-3.65886">
        <ele>36.2</ele>
        <time>2021-08-12T14:03:19Z</time>
      </trkpt>
      <trkpt lat="47.83208" lon="-3.65888">
        <ele>36.6</ele>
        <time>2021-08-12T14:03:21Z</time>
      </trkpt>
      <trkpt lat="47.83204" lon="-3.65889">
        <ele>37.4</ele>
        <time>2021-08-12T14:03:22Z</time>
      </trkpt>
      <trkpt lat="47.832" lon="-3.6589">
        <ele>38</ele>
        <time>2021-08-12T14:03:23Z</time>
      </trkpt>
      <trkpt lat="47.83196" lon="-3.6589">
        <ele>38.4</ele>
        <time>2021-08-12T14:03:24Z</time>
      </trkpt>
      <trkpt lat="47.83193" lon="-3.6589">
        <ele>38.6</ele>
        <time>2021-08-12T14:03:25Z</time>
      </trkpt>
      <trkpt lat="47.83189" lon="-3.65889">
        <ele>39</ele>
        <time>2021-08-12T14:03:26Z</time>
      </trkpt>
      <trkpt lat="47.83185" lon="-3.65889">
        <ele>39.2</ele>
        <time>2021-08-12T14:03:27Z</time>
      </trkpt>
      <trkpt lat="47.8318" lon="-3.65887">
        <ele>39.6</ele>
        <time>2021-08-12T14:03:28Z</time>
      </trkpt>
      <trkpt lat="47.83177" lon="-3.65886">
        <ele>39.8</ele>
        <time>2021-08-12T14:03:29Z</time>
      </trkpt>
      <trkpt lat="47.83173" lon="-3.65884">
        <ele>40</ele>
        <time>2021-08-12T14:03:30Z</time>
      </trkpt>
      <trkpt lat="47.83168" lon="-3.65882">
        <ele>40.2</ele>
        <time>2021-08-12T14:03:32Z</time>
      </trkpt>
      <trkpt lat="47.83166" lon="-3.65881">
        <ele>40.2</ele>
        <time>2021-08-12T14:03:33Z</time>
      </trkpt>
      <trkpt lat="47.83164" lon="-3.65881">
        <ele>40.2</ele>
        <time>2021-08-12T14:03:34Z</time>
      </trkpt>
      <trkpt lat="47.83163" lon="-3.65879">
        <ele>40.2</ele>
        <time>2021-08-12T14:03:35Z</time>
      </trkpt>
      <trkpt lat="47.83162" lon="-3.65878">
        <ele>40.2</ele>
        <time>2021-08-12T14:03:36Z</time>
      </trkpt>
      <trkpt lat="47.83162" lon="-3.65878">
        <ele>40.2</ele>
        <time>2021-08-12T14:03:37Z</time>
      </trkpt>
      <trkpt lat="47.83162" lon="-3.65877">
        <ele>40.2</ele>
        <time>2021-08-12T14:03:38Z</time>
      </trkpt>
      <trkpt lat="47.83163" lon="-3.65876">
        <ele>40.2</ele>
        <time>2021-08-12T14:03:39Z</time>
      </trkpt>
      <trkpt lat="47.83164" lon="-3.65876">
        <ele>40.2</ele>
        <time>2021-08-12T14:03:40Z</time>
      </trkpt>
      <trkpt lat="47.83165" lon="-3.65876">
        <ele>40.2</ele>
        <time>2021-08-12T14:03:41Z</time>
      </trkpt>
      <trkpt lat="47.83166" lon="-3.65876">
        <ele>40.2</ele>
        <time>2021-08-12T14:03:43Z</time>
      </trkpt>
      <trkpt lat="47.83167" lon="-3.65876">
        <ele>40.2</ele>
        <time>2021-08-12T14:03:44Z</time>
      </trkpt>
      <trkpt lat="47.83168" lon="-3.65877">
        <ele>40.2</ele>
        <time>2021-08-12T14:03:45Z</time>
      </trkpt>
      <trkpt lat="47.83169" lon="-3.65877">
        <ele>40.2</ele>
        <time>2021-08-12T14:03:46Z</time>
      </trkpt>
      <trkpt lat="47.8317" lon="-3.65878">
        <ele>40.2</ele>
        <time>2021-08-12T14:03:47Z</time>
      </trkpt>
      <trkpt lat="47.8317" lon="-3.65878">
        <ele>40.2</ele>
        <time>2021-08-12T14:03:48Z</time>
      </trkpt>
      <trkpt lat="47.83171" lon="-3.65878">
        <ele>40.4</ele>
        <time>2021-08-12T14:03:49Z</time>
      </trkpt>
      <trkpt lat="47.83172" lon="-3.65879">
        <ele>40.4</ele>
        <time>2021-08-12T14:03:50Z</time>
      </trkpt>
      <trkpt lat="47.83173" lon="-3.6588">
        <ele>40.6</ele>
        <time>2021-08-12T14:03:51Z</time>
      </trkpt>
      <trkpt lat="47.83175" lon="-3.65881">
        <ele>40.6</ele>
        <time>2021-08-12T14:03:52Z</time>
      </trkpt>
      <trkpt lat="47.83177" lon="-3.65882">
        <ele>40.6</ele>
        <time>2021-08-12T14:03:54Z</time>
      </trkpt>
      <trkpt lat="47.83178" lon="-3.65881">
        <ele>40.8</ele>
        <time>2021-08-12T14:03:55Z</time>
      </trkpt>
      <trkpt lat="47.83179" lon="-3.65882">
        <ele>40.6</ele>
        <time>2021-08-12T14:03:56Z</time>
      </trkpt>
      <trkpt lat="47.8318" lon="-3.65882">
        <ele>40.6</ele>
        <time>2021-08-12T14:03:57Z</time>
      </trkpt>
      <trkpt lat="47.83181" lon="-3.65882">
        <ele>40.8</ele>
        <time>2021-08-12T14:03:58Z</time>
      </trkpt>
      <trkpt lat="47.83182" lon="-3.65882">
        <ele>40.8</ele>
        <time>2021-08-12T14:03:59Z</time>
      </trkpt>
      <trkpt lat="47.83183" lon="-3.65882">
        <ele>40.8</ele>
        <time>2021-08-12T14:04:00Z</time>
      </trkpt>
      <trkpt lat="47.83183" lon="-3.65882">
        <ele>40.8</ele>
        <time>2021-08-12T14:04:01Z</time>
      </trkpt>
      <trkpt lat="47.83184" lon="-3.65883">
        <ele>40.8</ele>
        <time>2021-08-12T14:04:02Z</time>
      </trkpt>
      <trkpt lat="47.83186" lon="-3.65883">
        <ele>40.8</ele>
        <time>2021-08-12T14:04:03Z</time>
      </trkpt>
      <trkpt lat="47.83188" lon="-3.65883">
        <ele>41</ele>
        <time>2021-08-12T14:04:05Z</time>
      </trkpt>
      <trkpt lat="47.8319" lon="-3.65884">
        <ele>41</ele>
        <time>2021-08-12T14:04:06Z</time>
      </trkpt>
      <trkpt lat="47.83192" lon="-3.65884">
        <ele>41.2</ele>
        <time>2021-08-12T14:04:07Z</time>
      </trkpt>
      <trkpt lat="47.83194" lon="-3.65883">
        <ele>41.2</ele>
        <time>2021-08-12T14:04:08Z</time>
      </trkpt>
      <trkpt lat="47.83196" lon="-3.65882">
        <ele>41.4</ele>
        <time>2021-08-12T14:04:09Z</time>
      </trkpt>
      <trkpt lat="47.83198" lon="-3.65882">
        <ele>41.4</ele>
        <time>2021-08-12T14:04:10Z</time>
      </trkpt>
      <trkpt lat="47.83199" lon="-3.65881">
        <ele>41.4</ele>
        <time>2021-08-12T14:04:11Z</time>
      </trkpt>
      <trkpt lat="47.83202" lon="-3.6588">
        <ele>41.4</ele>
        <time>2021-08-12T14:04:12Z</time>
      </trkpt>
      <trkpt lat="47.83204" lon="-3.65879">
        <ele>41.4</ele>
        <time>2021-08-12T14:04:13Z</time>
      </trkpt>
      <trkpt lat="47.83206" lon="-3.65878">
        <ele>41.4</ele>
        <time>2021-08-12T14:04:14Z</time>
      </trkpt>
      <trkpt lat="47.83212" lon="-3.65876">
        <ele>41.4</ele>
        <time>2021-08-12T14:04:16Z</time>
      </trkpt>
      <trkpt lat="47.83216" lon="-3.65875">
        <ele>41.4</ele>
        <time>2021-08-12T14:04:17Z</time>
      </trkpt>
      <trkpt lat="47.8322" lon="-3.65874">
        <ele>41.4</ele>
        <time>2021-08-12T14:04:18Z</time>
      </trkpt>
      <trkpt lat="47.83223" lon="-3.65873">
        <ele>41.4</ele>
        <time>2021-08-12T14:04:19Z</time>
      </trkpt>
      <trkpt lat="47.83227" lon="-3.65873">
        <ele>41.4</ele>
        <time>2021-08-12T14:04:20Z</time>
      </trkpt>
      <trkpt lat="47.83232" lon="-3.65873">
        <ele>41.2</ele>
        <time>2021-08-12T14:04:21Z</time>
      </trkpt>
      <trkpt lat="47.83236" lon="-3.65874">
        <ele>41.2</ele>
        <time>2021-08-12T14:04:22Z</time>
      </trkpt>
      <trkpt lat="47.8324" lon="-3.65874">
        <ele>41</ele>
        <time>2021-08-12T14:04:23Z</time>
      </trkpt>
      <trkpt lat="47.83244" lon="-3.65875">
        <ele>40.8</ele>
        <time>2021-08-12T14:04:24Z</time>
      </trkpt>
      <trkpt lat="47.83249" lon="-3.65875">
        <ele>40.8</ele>
        <time>2021-08-12T14:04:25Z</time>
      </trkpt>
      <trkpt lat="47.83257" lon="-3.65877">
        <ele>40.2</ele>
        <time>2021-08-12T14:04:27Z</time>
      </trkpt>
      <trkpt lat="47.83262" lon="-3.65878">
        <ele>40</ele>
        <time>2021-08-12T14:04:28Z</time>
      </trkpt>
      <trkpt lat="47.83265" lon="-3.65879">
        <ele>39.8</ele>
        <time>2021-08-12T14:04:29Z</time>
      </trkpt>
      <trkpt lat="47.83269" lon="-3.65881">
        <ele>39.8</ele>
        <time>2021-08-12T14:04:30Z</time>
      </trkpt>
      <trkpt lat="47.83272" lon="-3.65882">
        <ele>39.8</ele>
        <time>2021-08-12T14:04:31Z</time>
      </trkpt>
      <trkpt lat="47.83274" lon="-3.65883">
        <ele>39.8</ele>
        <time>2021-08-12T14:04:32Z</time>
      </trkpt>
      <trkpt lat="47.83277" lon="-3.65885">
        <ele>39.8</ele>
        <time>2021-08-12T14:04:33Z</time>
      </trkpt>
      <trkpt lat="47.83279" lon="-3.65886">
        <ele>39.8</ele>
        <time>2021-08-12T14:04:34Z</time>
      </trkpt>
      <trkpt lat="47.83281" lon="-3.65887">
        <ele>39.8</ele>
        <time>2021-08-12T14:04:35Z</time>
      </trkpt>
      <trkpt lat="47.83283" lon="-3.65891">
        <ele>41.2</ele>
        <time>2021-08-12T14:11:21Z</time>
      </trkpt>
      <trkpt lat="47.83278" lon="-3.65889">
        <ele>41.2</ele>
        <time>2021-08-12T14:11:23Z</time>
      </trkpt>
      <trkpt lat="47.83276" lon="-3.65888">
        <ele>41.2</ele>
        <time>2021-08-12T14:11:24Z</time>
      </trkpt>
      <trkpt lat="47.83272" lon="-3.65887">
        <ele>40.8</ele>
        <time>2021-08-12T14:11:26Z</time>
      </trkpt>
      <trkpt lat="47.8327" lon="-3.65887">
        <ele>40.8</ele>
        <time>2021-08-12T14:11:27Z</time>
      </trkpt>
      <trkpt lat="47.83265" lon="-3.65886">
        <ele>40.6</ele>
        <time>2021-08-12T14:11:29Z</time>
      </trkpt>
      <trkpt lat="47.83262" lon="-3.65885">
        <ele>40.4</ele>
        <time>2021-08-12T14:11:30Z</time>
      </trkpt>
      <trkpt lat="47.83259" lon="-3.65884">
        <ele>40.2</ele>
        <time>2021-08-12T14:11:31Z</time>
      </trkpt>
      <trkpt lat="47.83256" lon="-3.65883">
        <ele>40.2</ele>
        <time>2021-08-12T14:11:32Z</time>
      </trkpt>
      <trkpt lat="47.83253" lon="-3.65882">
        <ele>40</ele>
        <time>2021-08-12T14:11:33Z</time>
      </trkpt>
      <trkpt lat="47.83249" lon="-3.65882">
        <ele>40</ele>
        <time>2021-08-12T14:11:34Z</time>
      </trkpt>
      <trkpt lat="47.83246" lon="-3.65882">
        <ele>40</ele>
        <time>2021-08-12T14:11:35Z</time>
      </trkpt>
      <trkpt lat="47.83243" lon="-3.65882">
        <ele>40</ele>
        <time>2021-08-12T14:11:36Z</time>
      </trkpt>
      <trkpt lat="47.8324" lon="-3.65882">
        <ele>40</ele>
        <time>2021-08-12T14:11:37Z</time>
      </trkpt>
      <trkpt lat="47.83237" lon="-3.65882">
        <ele>40</ele>
        <time>2021-08-12T14:11:38Z</time>
      </trkpt>
      <trkpt lat="47.83235" lon="-3.65883">
        <ele>40</ele>
        <time>2021-08-12T14:11:39Z</time>
      </trkpt>
      <trkpt lat="47.83232" lon="-3.65883">
        <ele>40</ele>
        <time>2021-08-12T14:11:40Z</time>
      </trkpt>
      <trkpt lat="47.8323" lon="-3.65884">
        <ele>40</ele>
        <time>2021-08-12T14:11:41Z</time>
      </trkpt>
      <trkpt lat="47.83227" lon="-3.65884">
        <ele>40.2</ele>
        <time>2021-08-12T14:11:42Z</time>
      </trkpt>
      <trkpt lat="47.83225" lon="-3.65885">
        <ele>40.2</ele>
        <time>2021-08-12T14:11:43Z</time>
      </trkpt>
      <trkpt lat="47.83222" lon="-3.65886">
        <ele>40.6</ele>
        <time>2021-08-12T14:11:44Z</time>
      </trkpt>
      <trkpt lat="47.8322" lon="-3.65886">
        <ele>40.8</ele>
        <time>2021-08-12T14:11:45Z</time>
      </trkpt>
      <trkpt lat="47.83218" lon="-3.65887">
        <ele>41</ele>
        <time>2021-08-12T14:11:46Z</time>
      </trkpt>
      <trkpt lat="47.83215" lon="-3.65888">
        <ele>41</ele>
        <time>2021-08-12T14:11:47Z</time>
      </trkpt>
      <trkpt lat="47.83213" lon="-3.65889">
        <ele>41</ele>
        <time>2021-08-12T14:11:48Z</time>
      </trkpt>
      <trkpt lat="47.83211" lon="-3.65889">
        <ele>41.2</ele>
        <time>2021-08-12T14:11:49Z</time>
      </trkpt>
      <trkpt lat="47.83208" lon="-3.6589">
        <ele>41.2</ele>
        <time>2021-08-12T14:11:51Z</time>
      </trkpt>
      <trkpt lat="47.83206" lon="-3.6589">
        <ele>41.2</ele>
        <time>2021-08-12T14:11:52Z</time>
      </trkpt>
      <trkpt lat="47.83204" lon="-3.65891">
        <ele>41.2</ele>
        <time>2021-08-12T14:11:53Z</time>
      </trkpt>
      <trkpt lat="47.83203" lon="-3.65891">
        <ele>41.4</ele>
        <time>2021-08-12T14:11:54Z</time>
      </trkpt>
      <trkpt lat="47.83201" lon="-3.65891">
        <ele>41.4</ele>
        <time>2021-08-12T14:11:55Z</time>
      </trkpt>
      <trkpt lat="47.83199" lon="-3.65891">
        <ele>41.6</ele>
        <time>2021-08-12T14:11:56Z</time>
      </trkpt>
      <trkpt lat="47.83197" lon="-3.65891">
        <ele>42</ele>
        <time>2021-08-12T14:11:57Z</time>
      </trkpt>
      <trkpt lat="47.83194" lon="-3.65891">
        <ele>42</ele>
        <time>2021-08-12T14:11:58Z</time>
      </trkpt>
      <trkpt lat="47.83191" lon="-3.65891">
        <ele>42</ele>
        <time>2021-08-12T14:11:59Z</time>
      </trkpt>
      <trkpt lat="47.83188" lon="-3.6589">
        <ele>42</ele>
        <time>2021-08-12T14:12:00Z</time>
      </trkpt>
      <trkpt lat="47.83181" lon="-3.65887">
        <ele>42</ele>
        <time>2021-08-12T14:12:02Z</time>
      </trkpt>
      <trkpt lat="47.83178" lon="-3.65885">
        <ele>42</ele>
        <time>2021-08-12T14:12:03Z</time>
      </trkpt>
      <trkpt lat="47.83174" lon="-3.65883">
        <ele>42</ele>
        <time>2021-08-12T14:12:04Z</time>
      </trkpt>
      <trkpt lat="47.83171" lon="-3.65881">
        <ele>42</ele>
        <time>2021-08-12T14:12:05Z</time>
      </trkpt>
      <trkpt lat="47.83167" lon="-3.65879">
        <ele>42</ele>
        <time>2021-08-12T14:12:06Z</time>
      </trkpt>
      <trkpt lat="47.83164" lon="-3.65878">
        <ele>42</ele>
        <time>2021-08-12T14:12:07Z</time>
      </trkpt>
      <trkpt lat="47.8316" lon="-3.65876">
        <ele>41.8</ele>
        <time>2021-08-12T14:12:08Z</time>
      </trkpt>
      <trkpt lat="47.83157" lon="-3.65874">
        <ele>41.6</ele>
        <time>2021-08-12T14:12:09Z</time>
      </trkpt>
      <trkpt lat="47.83153" lon="-3.65871">
        <ele>41.4</ele>
        <time>2021-08-12T14:12:10Z</time>
      </trkpt>
      <trkpt lat="47.83149" lon="-3.65868">
        <ele>41.2</ele>
        <time>2021-08-12T14:12:11Z</time>
      </trkpt>
      <trkpt lat="47.83145" lon="-3.65865">
        <ele>41.2</ele>
        <time>2021-08-12T14:12:12Z</time>
      </trkpt>
      <trkpt lat="47.8314" lon="-3.65861">
        <ele>40.8</ele>
        <time>2021-08-12T14:12:13Z</time>
      </trkpt>
      <trkpt lat="47.83135" lon="-3.65858">
        <ele>40.4</ele>
        <time>2021-08-12T14:12:14Z</time>
      </trkpt>
      <trkpt lat="47.83131" lon="-3.65854">
        <ele>40.2</ele>
        <time>2021-08-12T14:12:15Z</time>
      </trkpt>
      <trkpt lat="47.83126" lon="-3.65851">
        <ele>40</ele>
        <time>2021-08-12T14:12:16Z</time>
      </trkpt>
      <trkpt lat="47.83121" lon="-3.65847">
        <ele>40</ele>
        <time>2021-08-12T14:12:17Z</time>
      </trkpt>
      <trkpt lat="47.83118" lon="-3.65841">
        <ele>39.8</ele>
        <time>2021-08-12T14:12:18Z</time>
      </trkpt>
      <trkpt lat="47.83115" lon="-3.65835">
        <ele>39.8</ele>
        <time>2021-08-12T14:12:19Z</time>
      </trkpt>
      <trkpt lat="47.83113" lon="-3.65828">
        <ele>39.8</ele>
        <time>2021-08-12T14:12:20Z</time>
      </trkpt>
      <trkpt lat="47.83111" lon="-3.65821">
        <ele>39.8</ele>
        <time>2021-08-12T14:12:21Z</time>
      </trkpt>
      <trkpt lat="47.83109" lon="-3.65813">
        <ele>39.6</ele>
        <time>2021-08-12T14:12:22Z</time>
      </trkpt>
      <trkpt lat="47.83108" lon="-3.65805">
        <ele>39.6</ele>
        <time>2021-08-12T14:12:23Z</time>
      </trkpt>
      <trkpt lat="47.83106" lon="-3.65798">
        <ele>39.4</ele>
        <time>2021-08-12T14:12:24Z</time>
      </trkpt>
      <trkpt lat="47.83105" lon="-3.6579">
        <ele>39</ele>
        <time>2021-08-12T14:12:25Z</time>
      </trkpt>
      <trkpt lat="47.83104" lon="-3.65782">
        <ele>39</ele>
        <time>2021-08-12T14:12:26Z</time>
      </trkpt>
      <trkpt lat="47.83103" lon="-3.65775">
        <ele>38.8</ele>
        <time>2021-08-12T14:12:27Z</time>
      </trkpt>
      <trkpt lat="47.83102" lon="-3.65769">
        <ele>38.8</ele>
        <time>2021-08-12T14:12:28Z</time>
      </trkpt>
      <trkpt lat="47.83102" lon="-3.65763">
        <ele>38.6</ele>
        <time>2021-08-12T14:12:29Z</time>
      </trkpt>
      <trkpt lat="47.83102" lon="-3.65759">
        <ele>38.6</ele>
        <time>2021-08-12T14:12:30Z</time>
      </trkpt>
      <trkpt lat="47.83101" lon="-3.65755">
        <ele>38.4</ele>
        <time>2021-08-12T14:12:31Z</time>
      </trkpt>
      <trkpt lat="47.831" lon="-3.65752">
        <ele>38.2</ele>
        <time>2021-08-12T14:12:32Z</time>
      </trkpt>
      <trkpt lat="47.83098" lon="-3.65748">
        <ele>38.2</ele>
        <time>2021-08-12T14:12:33Z</time>
      </trkpt>
      <trkpt lat="47.83096" lon="-3.65743">
        <ele>38.2</ele>
        <time>2021-08-12T14:12:34Z</time>
      </trkpt>
      <trkpt lat="47.83094" lon="-3.65739">
        <ele>38.2</ele>
        <time>2021-08-12T14:12:35Z</time>
      </trkpt>
      <trkpt lat="47.83092" lon="-3.65734">
        <ele>38</ele>
        <time>2021-08-12T14:12:36Z</time>
      </trkpt>
      <trkpt lat="47.83089" lon="-3.6573">
        <ele>38</ele>
        <time>2021-08-12T14:12:37Z</time>
      </trkpt>
      <trkpt lat="47.83087" lon="-3.65726">
        <ele>38</ele>
        <time>2021-08-12T14:12:38Z</time>
      </trkpt>
      <trkpt lat="47.83084" lon="-3.65721">
        <ele>38</ele>
        <time>2021-08-12T14:12:39Z</time>
      </trkpt>
      <trkpt lat="47.83082" lon="-3.65716">
        <ele>37.8</ele>
        <time>2021-08-12T14:12:40Z</time>
      </trkpt>
      <trkpt lat="47.8308" lon="-3.65711">
        <ele>37.8</ele>
        <time>2021-08-12T14:12:41Z</time>
      </trkpt>
      <trkpt lat="47.83078" lon="-3.65707">
        <ele>37.6</ele>
        <time>2021-08-12T14:12:42Z</time>
      </trkpt>
      <trkpt lat="47.83075" lon="-3.65702">
        <ele>37.4</ele>
        <time>2021-08-12T14:12:43Z</time>
      </trkpt>
      <trkpt lat="47.83072" lon="-3.65697">
        <ele>37.2</ele>
        <time>2021-08-12T14:12:44Z</time>
      </trkpt>
      <trkpt lat="47.83067" lon="-3.65686">
        <ele>36.8</ele>
        <time>2021-08-12T14:12:46Z</time>
      </trkpt>
      <trkpt lat="47.83065" lon="-3.65681">
        <ele>36.6</ele>
        <time>2021-08-12T14:12:47Z</time>
      </trkpt>
      <trkpt lat="47.83062" lon="-3.65675">
        <ele>36.6</ele>
        <time>2021-08-12T14:12:48Z</time>
      </trkpt>
      <trkpt lat="47.83059" lon="-3.65669">
        <ele>36.4</ele>
        <time>2021-08-12T14:12:49Z</time>
      </trkpt>
      <trkpt lat="47.83056" lon="-3.65663">
        <ele>36.4</ele>
        <time>2021-08-12T14:12:50Z</time>
      </trkpt>
      <trkpt lat="47.83054" lon="-3.65658">
        <ele>36.4</ele>
        <time>2021-08-12T14:12:51Z</time>
      </trkpt>
      <trkpt lat="47.83051" lon="-3.65652">
        <ele>36</ele>
        <time>2021-08-12T14:12:52Z</time>
      </trkpt>
      <trkpt lat="47.83049" lon="-3.65647">
        <ele>35.8</ele>
        <time>2021-08-12T14:12:53Z</time>
      </trkpt>
      <trkpt lat="47.83046" lon="-3.65642">
        <ele>35.6</ele>
        <time>2021-08-12T14:12:54Z</time>
      </trkpt>
      <trkpt lat="47.83044" lon="-3.65638">
        <ele>35.2</ele>
        <time>2021-08-12T14:12:55Z</time>
      </trkpt>
      <trkpt lat="47.83043" lon="-3.65634">
        <ele>34.8</ele>
        <time>2021-08-12T14:12:56Z</time>
      </trkpt>
      <trkpt lat="47.83042" lon="-3.65631">
        <ele>34.6</ele>
        <time>2021-08-12T14:12:57Z</time>
      </trkpt>
      <trkpt lat="47.8304" lon="-3.65627">
        <ele>34.4</ele>
        <time>2021-08-12T14:12:58Z</time>
      </trkpt>
      <trkpt lat="47.83039" lon="-3.65624">
        <ele>34.4</ele>
        <time>2021-08-12T14:12:59Z</time>
      </trkpt>
      <trkpt lat="47.83038" lon="-3.65622">
        <ele>34.2</ele>
        <time>2021-08-12T14:13:00Z</time>
      </trkpt>
      <trkpt lat="47.83036" lon="-3.6562">
        <ele>34.2</ele>
        <time>2021-08-12T14:13:01Z</time>
      </trkpt>
      <trkpt lat="47.83035" lon="-3.65617">
        <ele>34.2</ele>
        <time>2021-08-12T14:13:02Z</time>
      </trkpt>
      <trkpt lat="47.83033" lon="-3.65614">
        <ele>34</ele>
        <time>2021-08-12T14:13:03Z</time>
      </trkpt>
      <trkpt lat="47.83032" lon="-3.65611">
        <ele>34</ele>
        <time>2021-08-12T14:13:04Z</time>
      </trkpt>
      <trkpt lat="47.8303" lon="-3.65607">
        <ele>34</ele>
        <time>2021-08-12T14:13:05Z</time>
      </trkpt>
      <trkpt lat="47.83028" lon="-3.65603">
        <ele>33.8</ele>
        <time>2021-08-12T14:13:06Z</time>
      </trkpt>
      <trkpt lat="47.83026" lon="-3.65599">
        <ele>33.8</ele>
        <time>2021-08-12T14:13:07Z</time>
      </trkpt>
      <trkpt lat="47.83024" lon="-3.65595">
        <ele>33.8</ele>
        <time>2021-08-12T14:13:08Z</time>
      </trkpt>
      <trkpt lat="47.83021" lon="-3.6559">
        <ele>33.6</ele>
        <time>2021-08-12T14:13:09Z</time>
      </trkpt>
      <trkpt lat="47.83018" lon="-3.65585">
        <ele>33.6</ele>
        <time>2021-08-12T14:13:10Z</time>
      </trkpt>
      <trkpt lat="47.83015" lon="-3.6558">
        <ele>33.6</ele>
        <time>2021-08-12T14:13:11Z</time>
      </trkpt>
      <trkpt lat="47.83012" lon="-3.65574">
        <ele>33.6</ele>
        <time>2021-08-12T14:13:12Z</time>
      </trkpt>
      <trkpt lat="47.83008" lon="-3.65567">
        <ele>33.4</ele>
        <time>2021-08-12T14:13:13Z</time>
      </trkpt>
      <trkpt lat="47.83004" lon="-3.6556">
        <ele>33.2</ele>
        <time>2021-08-12T14:13:14Z</time>
      </trkpt>
      <trkpt lat="47.83" lon="-3.65554">
        <ele>33</ele>
        <time>2021-08-12T14:13:15Z</time>
      </trkpt>
      <trkpt lat="47.82994" lon="-3.65546">
        <ele>32.6</ele>
        <time>2021-08-12T14:13:16Z</time>
      </trkpt>
      <trkpt lat="47.82989" lon="-3.65539">
        <ele>32.4</ele>
        <time>2021-08-12T14:13:17Z</time>
      </trkpt>
      <trkpt lat="47.82983" lon="-3.65532">
        <ele>32</ele>
        <time>2021-08-12T14:13:18Z</time>
      </trkpt>
      <trkpt lat="47.82977" lon="-3.65526">
        <ele>31.8</ele>
        <time>2021-08-12T14:13:19Z</time>
      </trkpt>
      <trkpt lat="47.82971" lon="-3.6552">
        <ele>31.6</ele>
        <time>2021-08-12T14:13:20Z</time>
      </trkpt>
      <trkpt lat="47.82965" lon="-3.65515">
        <ele>31.2</ele>
        <time>2021-08-12T14:13:21Z</time>
      </trkpt>
      <trkpt lat="47.82958" lon="-3.6551">
        <ele>29.4</ele>
        <time>2021-08-12T14:13:22Z</time>
      </trkpt>
      <trkpt lat="47.82952" lon="-3.65506">
        <ele>28.4</ele>
        <time>2021-08-12T14:13:23Z</time>
      </trkpt>
      <trkpt lat="47.82946" lon="-3.65502">
        <ele>27.6</ele>
        <time>2021-08-12T14:13:24Z</time>
      </trkpt>
      <trkpt lat="47.8294" lon="-3.65498">
        <ele>26.8</ele>
        <time>2021-08-12T14:13:25Z</time>
      </trkpt>
      <trkpt lat="47.82934" lon="-3.65494">
        <ele>26.6</ele>
        <time>2021-08-12T14:13:26Z</time>
      </trkpt>
      <trkpt lat="47.82929" lon="-3.65491">
        <ele>26.4</ele>
        <time>2021-08-12T14:13:27Z</time>
      </trkpt>
      <trkpt lat="47.82924" lon="-3.65487">
        <ele>26.2</ele>
        <time>2021-08-12T14:13:28Z</time>
      </trkpt>
      <trkpt lat="47.82919" lon="-3.65484">
        <ele>26.2</ele>
        <time>2021-08-12T14:13:29Z</time>
      </trkpt>
      <trkpt lat="47.82914" lon="-3.6548">
        <ele>26.2</ele>
        <time>2021-08-12T14:13:30Z</time>
      </trkpt>
      <trkpt lat="47.8291" lon="-3.65476">
        <ele>26.2</ele>
        <time>2021-08-12T14:13:31Z</time>
      </trkpt>
      <trkpt lat="47.82906" lon="-3.65472">
        <ele>26.2</ele>
        <time>2021-08-12T14:13:32Z</time>
      </trkpt>
      <trkpt lat="47.82902" lon="-3.65469">
        <ele>26.2</ele>
        <time>2021-08-12T14:13:33Z</time>
      </trkpt>
      <trkpt lat="47.82898" lon="-3.65465">
        <ele>26.2</ele>
        <time>2021-08-12T14:13:34Z</time>
      </trkpt>
      <trkpt lat="47.82895" lon="-3.65461">
        <ele>26.2</ele>
        <time>2021-08-12T14:13:35Z</time>
      </trkpt>
      <trkpt lat="47.82891" lon="-3.65457">
        <ele>26.4</ele>
        <time>2021-08-12T14:13:36Z</time>
      </trkpt>
      <trkpt lat="47.82888" lon="-3.65453">
        <ele>26.4</ele>
        <time>2021-08-12T14:13:37Z</time>
      </trkpt>
      <trkpt lat="47.82884" lon="-3.6545">
        <ele>26.4</ele>
        <time>2021-08-12T14:13:38Z</time>
      </trkpt>
      <trkpt lat="47.82882" lon="-3.65447">
        <ele>26.6</ele>
        <time>2021-08-12T14:13:39Z</time>
      </trkpt>
      <trkpt lat="47.82876" lon="-3.65441">
        <ele>27.6</ele>
        <time>2021-08-12T14:13:41Z</time>
      </trkpt>
      <trkpt lat="47.82874" lon="-3.65438">
        <ele>27.8</ele>
        <time>2021-08-12T14:13:42Z</time>
      </trkpt>
      <trkpt lat="47.82871" lon="-3.65435">
        <ele>28.2</ele>
        <time>2021-08-12T14:13:43Z</time>
      </trkpt>
      <trkpt lat="47.82869" lon="-3.65433">
        <ele>28.4</ele>
        <time>2021-08-12T14:13:44Z</time>
      </trkpt>
      <trkpt lat="47.82867" lon="-3.6543">
        <ele>28.4</ele>
        <time>2021-08-12T14:13:45Z</time>
      </trkpt>
      <trkpt lat="47.82864" lon="-3.65427">
        <ele>28.6</ele>
        <time>2021-08-12T14:13:46Z</time>
      </trkpt>
      <trkpt lat="47.82862" lon="-3.65424">
        <ele>28.8</ele>
        <time>2021-08-12T14:13:47Z</time>
      </trkpt>
      <trkpt lat="47.8286" lon="-3.65421">
        <ele>29</ele>
        <time>2021-08-12T14:13:48Z</time>
      </trkpt>
      <trkpt lat="47.82858" lon="-3.65418">
        <ele>29.2</ele>
        <time>2021-08-12T14:13:49Z</time>
      </trkpt>
      <trkpt lat="47.82857" lon="-3.65416">
        <ele>29.2</ele>
        <time>2021-08-12T14:13:50Z</time>
      </trkpt>
      <trkpt lat="47.82854" lon="-3.65414">
        <ele>29.2</ele>
        <time>2021-08-12T14:13:52Z</time>
      </trkpt>
      <trkpt lat="47.82854" lon="-3.65414">
        <ele>29.2</ele>
        <time>2021-08-12T14:13:53Z</time>
      </trkpt>
      <trkpt lat="47.82854" lon="-3.65414">
        <ele>29.2</ele>
        <time>2021-08-12T14:13:54Z</time>
      </trkpt>
      <trkpt lat="47.82854" lon="-3.65414">
        <ele>29.2</ele>
        <time>2021-08-12T14:13:55Z</time>
      </trkpt>
      <trkpt lat="47.82684" lon="-3.6534">
        <ele>15.6</ele>
        <time>2021-08-14T08:56:43Z</time>
      </trkpt>
      <trkpt lat="47.82676" lon="-3.65337">
        <ele>15</ele>
        <time>2021-08-14T08:56:44Z</time>
      </trkpt>
      <trkpt lat="47.82668" lon="-3.65334">
        <ele>14.8</ele>
        <time>2021-08-14T08:56:45Z</time>
      </trkpt>
      <trkpt lat="47.8266" lon="-3.65331">
        <ele>14.6</ele>
        <time>2021-08-14T08:56:46Z</time>
      </trkpt>
      <trkpt lat="47.82653" lon="-3.65329">
        <ele>14.4</ele>
        <time>2021-08-14T08:56:47Z</time>
      </trkpt>
      <trkpt lat="47.82646" lon="-3.65327">
        <ele>14.4</ele>
        <time>2021-08-14T08:56:48Z</time>
      </trkpt>
      <trkpt lat="47.8264" lon="-3.65325">
        <ele>14.4</ele>
        <time>2021-08-14T08:56:49Z</time>
      </trkpt>
      <trkpt lat="47.82633" lon="-3.65323">
        <ele>14.4</ele>
        <time>2021-08-14T08:56:50Z</time>
      </trkpt>
      <trkpt lat="47.82628" lon="-3.65321">
        <ele>14.4</ele>
        <time>2021-08-14T08:56:51Z</time>
      </trkpt>
      <trkpt lat="47.82622" lon="-3.65319">
        <ele>14.4</ele>
        <time>2021-08-14T08:56:52Z</time>
      </trkpt>
      <trkpt lat="47.82616" lon="-3.65317">
        <ele>14.4</ele>
        <time>2021-08-14T08:56:53Z</time>
      </trkpt>
      <trkpt lat="47.8261" lon="-3.65315">
        <ele>14.4</ele>
        <time>2021-08-14T08:56:54Z</time>
      </trkpt>
      <trkpt lat="47.82606" lon="-3.65313">
        <ele>14.6</ele>
        <time>2021-08-14T08:56:55Z</time>
      </trkpt>
      <trkpt lat="47.82601" lon="-3.65311">
        <ele>14.8</ele>
        <time>2021-08-14T08:56:56Z</time>
      </trkpt>
      <trkpt lat="47.82596" lon="-3.65309">
        <ele>15</ele>
        <time>2021-08-14T08:56:57Z</time>
      </trkpt>
      <trkpt lat="47.82591" lon="-3.65307">
        <ele>15.6</ele>
        <time>2021-08-14T08:56:58Z</time>
      </trkpt>
      <trkpt lat="47.82586" lon="-3.65304">
        <ele>16</ele>
        <time>2021-08-14T08:56:59Z</time>
      </trkpt>
      <trkpt lat="47.82581" lon="-3.65302">
        <ele>16.2</ele>
        <time>2021-08-14T08:57:00Z</time>
      </trkpt>
      <trkpt lat="47.82576" lon="-3.65299">
        <ele>16.4</ele>
        <time>2021-08-14T08:57:01Z</time>
      </trkpt>
      <trkpt lat="47.82571" lon="-3.65295">
        <ele>16.4</ele>
        <time>2021-08-14T08:57:02Z</time>
      </trkpt>
      <trkpt lat="47.82566" lon="-3.65292">
        <ele>16.6</ele>
        <time>2021-08-14T08:57:03Z</time>
      </trkpt>
      <trkpt lat="47.82562" lon="-3.65289">
        <ele>16.8</ele>
        <time>2021-08-14T08:57:04Z</time>
      </trkpt>
      <trkpt lat="47.82557" lon="-3.65286">
        <ele>17</ele>
        <time>2021-08-14T08:57:05Z</time>
      </trkpt>
      <trkpt lat="47.82553" lon="-3.65283">
        <ele>17.2</ele>
        <time>2021-08-14T08:57:06Z</time>
      </trkpt>
      <trkpt lat="47.82549" lon="-3.6528">
        <ele>17.4</ele>
        <time>2021-08-14T08:57:07Z</time>
      </trkpt>
      <trkpt lat="47.82545" lon="-3.65277">
        <ele>17.4</ele>
        <time>2021-08-14T08:57:08Z</time>
      </trkpt>
      <trkpt lat="47.82541" lon="-3.65274">
        <ele>17.6</ele>
        <time>2021-08-14T08:57:09Z</time>
      </trkpt>
      <trkpt lat="47.82537" lon="-3.65271">
        <ele>17.8</ele>
        <time>2021-08-14T08:57:10Z</time>
      </trkpt>
      <trkpt lat="47.82534" lon="-3.65268">
        <ele>18</ele>
        <time>2021-08-14T08:57:11Z</time>
      </trkpt>
      <trkpt lat="47.8253" lon="-3.65266">
        <ele>18.2</ele>
        <time>2021-08-14T08:57:12Z</time>
      </trkpt>
      <trkpt lat="47.82527" lon="-3.65263">
        <ele>18.4</ele>
        <time>2021-08-14T08:57:13Z</time>
      </trkpt>
      <trkpt lat="47.82524" lon="-3.65261">
        <ele>18.8</ele>
        <time>2021-08-14T08:57:14Z</time>
      </trkpt>
      <trkpt lat="47.82521" lon="-3.65259">
        <ele>19</ele>
        <time>2021-08-14T08:57:15Z</time>
      </trkpt>
      <trkpt lat="47.82518" lon="-3.65257">
        <ele>19</ele>
        <time>2021-08-14T08:57:16Z</time>
      </trkpt>
      <trkpt lat="47.82516" lon="-3.65255">
        <ele>19</ele>
        <time>2021-08-14T08:57:17Z</time>
      </trkpt>
      <trkpt lat="47.82513" lon="-3.65254">
        <ele>19.2</ele>
        <time>2021-08-14T08:57:18Z</time>
      </trkpt>
      <trkpt lat="47.82511" lon="-3.65252">
        <ele>19.4</ele>
        <time>2021-08-14T08:57:19Z</time>
      </trkpt>
      <trkpt lat="47.82508" lon="-3.65251">
        <ele>19.6</ele>
        <time>2021-08-14T08:57:20Z</time>
      </trkpt>
      <trkpt lat="47.82506" lon="-3.65249">
        <ele>20</ele>
        <time>2021-08-14T08:57:21Z</time>
      </trkpt>
      <trkpt lat="47.82504" lon="-3.65247">
        <ele>20.2</ele>
        <time>2021-08-14T08:57:22Z</time>
      </trkpt>
      <trkpt lat="47.82502" lon="-3.65246">
        <ele>20.4</ele>
        <time>2021-08-14T08:57:23Z</time>
      </trkpt>
      <trkpt lat="47.82499" lon="-3.65244">
        <ele>20.8</ele>
        <time>2021-08-14T08:57:24Z</time>
      </trkpt>
      <trkpt lat="47.82497" lon="-3.65243">
        <ele>21</ele>
        <time>2021-08-14T08:57:25Z</time>
      </trkpt>
      <trkpt lat="47.82495" lon="-3.65242">
        <ele>21.2</ele>
        <time>2021-08-14T08:57:26Z</time>
      </trkpt>
      <trkpt lat="47.82493" lon="-3.65241">
        <ele>21.6</ele>
        <time>2021-08-14T08:57:27Z</time>
      </trkpt>
      <trkpt lat="47.82491" lon="-3.6524">
        <ele>21.8</ele>
        <time>2021-08-14T08:57:28Z</time>
      </trkpt>
      <trkpt lat="47.82489" lon="-3.65239">
        <ele>22</ele>
        <time>2021-08-14T08:57:29Z</time>
      </trkpt>
      <trkpt lat="47.82486" lon="-3.65239">
        <ele>22.4</ele>
        <time>2021-08-14T08:57:30Z</time>
      </trkpt>
      <trkpt lat="47.82484" lon="-3.65238">
        <ele>22.6</ele>
        <time>2021-08-14T08:57:31Z</time>
      </trkpt>
      <trkpt lat="47.82482" lon="-3.65237">
        <ele>22.6</ele>
        <time>2021-08-14T08:57:32Z</time>
      </trkpt>
      <trkpt lat="47.8248" lon="-3.65236">
        <ele>22.8</ele>
        <time>2021-08-14T08:57:33Z</time>
      </trkpt>
      <trkpt lat="47.82477" lon="-3.65235">
        <ele>23</ele>
        <time>2021-08-14T08:57:34Z</time>
      </trkpt>
      <trkpt lat="47.82475" lon="-3.65234">
        <ele>23.2</ele>
        <time>2021-08-14T08:57:35Z</time>
      </trkpt>
      <trkpt lat="47.82472" lon="-3.65233">
        <ele>23.4</ele>
        <time>2021-08-14T08:57:36Z</time>
      </trkpt>
      <trkpt lat="47.8247" lon="-3.65233">
        <ele>23.6</ele>
        <time>2021-08-14T08:57:37Z</time>
      </trkpt>
      <trkpt lat="47.82467" lon="-3.65232">
        <ele>23.8</ele>
        <time>2021-08-14T08:57:38Z</time>
      </trkpt>
      <trkpt lat="47.82464" lon="-3.65231">
        <ele>23.8</ele>
        <time>2021-08-14T08:57:39Z</time>
      </trkpt>
      <trkpt lat="47.82461" lon="-3.65231">
        <ele>24</ele>
        <time>2021-08-14T08:57:40Z</time>
      </trkpt>
      <trkpt lat="47.82458" lon="-3.65231">
        <ele>24</ele>
        <time>2021-08-14T08:57:41Z</time>
      </trkpt>
      <trkpt lat="47.82455" lon="-3.6523">
        <ele>24</ele>
        <time>2021-08-14T08:57:42Z</time>
      </trkpt>
      <trkpt lat="47.82452" lon="-3.65229">
        <ele>24</ele>
        <time>2021-08-14T08:57:43Z</time>
      </trkpt>
      <trkpt lat="47.82448" lon="-3.65228">
        <ele>24</ele>
        <time>2021-08-14T08:57:44Z</time>
      </trkpt>
      <trkpt lat="47.82445" lon="-3.65227">
        <ele>24</ele>
        <time>2021-08-14T08:57:45Z</time>
      </trkpt>
      <trkpt lat="47.82441" lon="-3.65226">
        <ele>24</ele>
        <time>2021-08-14T08:57:46Z</time>
      </trkpt>
      <trkpt lat="47.82438" lon="-3.65225">
        <ele>24</ele>
        <time>2021-08-14T08:57:47Z</time>
      </trkpt>
      <trkpt lat="47.82434" lon="-3.65224">
        <ele>24</ele>
        <time>2021-08-14T08:57:48Z</time>
      </trkpt>
      <trkpt lat="47.8243" lon="-3.65223">
        <ele>24</ele>
        <time>2021-08-14T08:57:49Z</time>
      </trkpt>
      <trkpt lat="47.82427" lon="-3.65221">
        <ele>23.8</ele>
        <time>2021-08-14T08:57:50Z</time>
      </trkpt>
      <trkpt lat="47.82424" lon="-3.65219">
        <ele>23.8</ele>
        <time>2021-08-14T08:57:51Z</time>
      </trkpt>
      <trkpt lat="47.8242" lon="-3.65218">
        <ele>23.6</ele>
        <time>2021-08-14T08:57:52Z</time>
      </trkpt>
      <trkpt lat="47.82417" lon="-3.65217">
        <ele>23.6</ele>
        <time>2021-08-14T08:57:53Z</time>
      </trkpt>
      <trkpt lat="47.82413" lon="-3.65215">
        <ele>23.4</ele>
        <time>2021-08-14T08:57:54Z</time>
      </trkpt>
      <trkpt lat="47.82408" lon="-3.65214">
        <ele>23.4</ele>
        <time>2021-08-14T08:57:55Z</time>
      </trkpt>
      <trkpt lat="47.82404" lon="-3.65213">
        <ele>23.2</ele>
        <time>2021-08-14T08:57:56Z</time>
      </trkpt>
      <trkpt lat="47.824" lon="-3.65211">
        <ele>23</ele>
        <time>2021-08-14T08:57:57Z</time>
      </trkpt>
      <trkpt lat="47.82395" lon="-3.65209">
        <ele>22.8</ele>
        <time>2021-08-14T08:57:58Z</time>
      </trkpt>
      <trkpt lat="47.82391" lon="-3.65208">
        <ele>22.6</ele>
        <time>2021-08-14T08:57:59Z</time>
      </trkpt>
      <trkpt lat="47.82386" lon="-3.65206">
        <ele>22.2</ele>
        <time>2021-08-14T08:58:00Z</time>
      </trkpt>
      <trkpt lat="47.82381" lon="-3.65204">
        <ele>22</ele>
        <time>2021-08-14T08:58:01Z</time>
      </trkpt>
      <trkpt lat="47.82376" lon="-3.65203">
        <ele>21.6</ele>
        <time>2021-08-14T08:58:02Z</time>
      </trkpt>
      <trkpt lat="47.8237" lon="-3.65201">
        <ele>21.2</ele>
        <time>2021-08-14T08:58:03Z</time>
      </trkpt>
      <trkpt lat="47.82365" lon="-3.652">
        <ele>20.8</ele>
        <time>2021-08-14T08:58:04Z</time>
      </trkpt>
      <trkpt lat="47.82358" lon="-3.65198">
        <ele>20.2</ele>
        <time>2021-08-14T08:58:05Z</time>
      </trkpt>
      <trkpt lat="47.82351" lon="-3.65197">
        <ele>19.6</ele>
        <time>2021-08-14T08:58:06Z</time>
      </trkpt>
      <trkpt lat="47.82344" lon="-3.65195">
        <ele>19.2</ele>
        <time>2021-08-14T08:58:07Z</time>
      </trkpt>
      <trkpt lat="47.82336" lon="-3.65194">
        <ele>18.6</ele>
        <time>2021-08-14T08:58:08Z</time>
      </trkpt>
      <trkpt lat="47.82328" lon="-3.65195">
        <ele>18.2</ele>
        <time>2021-08-14T08:58:09Z</time>
      </trkpt>
      <trkpt lat="47.8232" lon="-3.65196">
        <ele>17.6</ele>
        <time>2021-08-14T08:58:10Z</time>
      </trkpt>
      <trkpt lat="47.82312" lon="-3.65199">
        <ele>16.8</ele>
        <time>2021-08-14T08:58:11Z</time>
      </trkpt>
      <trkpt lat="47.82305" lon="-3.65202">
        <ele>16.2</ele>
        <time>2021-08-14T08:58:12Z</time>
      </trkpt>
      <trkpt lat="47.82298" lon="-3.65206">
        <ele>15.4</ele>
        <time>2021-08-14T08:58:13Z</time>
      </trkpt>
      <trkpt lat="47.82291" lon="-3.6521">
        <ele>14.4</ele>
        <time>2021-08-14T08:58:14Z</time>
      </trkpt>
      <trkpt lat="47.82284" lon="-3.65215">
        <ele>13.2</ele>
        <time>2021-08-14T08:58:15Z</time>
      </trkpt>
      <trkpt lat="47.82279" lon="-3.65221">
        <ele>12</ele>
        <time>2021-08-14T08:58:16Z</time>
      </trkpt>
      <trkpt lat="47.82274" lon="-3.65227">
        <ele>11</ele>
        <time>2021-08-14T08:58:17Z</time>
      </trkpt>
      <trkpt lat="47.8227" lon="-3.65232">
        <ele>10</ele>
        <time>2021-08-14T08:58:18Z</time>
      </trkpt>
      <trkpt lat="47.82266" lon="-3.65237">
        <ele>8.4</ele>
        <time>2021-08-14T08:58:19Z</time>
      </trkpt>
      <trkpt lat="47.82263" lon="-3.65241">
        <ele>7.6</ele>
        <time>2021-08-14T08:58:20Z</time>
      </trkpt>
      <trkpt lat="47.82261" lon="-3.65244">
        <ele>7</ele>
        <time>2021-08-14T08:58:21Z</time>
      </trkpt>
      <trkpt lat="47.82259" lon="-3.65245">
        <ele>6.4</ele>
        <time>2021-08-14T08:58:22Z</time>
      </trkpt>
      <trkpt lat="47.82258" lon="-3.65246">
        <ele>5.6</ele>
        <time>2021-08-14T08:58:23Z</time>
      </trkpt>
      <trkpt lat="47.82257" lon="-3.65246">
        <ele>5.2</ele>
        <time>2021-08-14T08:58:24Z</time>
      </trkpt>
      <trkpt lat="47.82252" lon="-3.65248">
        <ele>3.8</ele>
        <time>2021-08-14T08:59:28Z</time>
      </trkpt>
      <trkpt lat="47.8225" lon="-3.65248">
        <ele>3.8</ele>
        <time>2021-08-14T08:59:29Z</time>
      </trkpt>
      <trkpt lat="47.82248" lon="-3.65246">
        <ele>3.8</ele>
        <time>2021-08-14T08:59:30Z</time>
      </trkpt>
      <trkpt lat="47.82245" lon="-3.65243">
        <ele>3.8</ele>
        <time>2021-08-14T08:59:31Z</time>
      </trkpt>
      <trkpt lat="47.82243" lon="-3.65239">
        <ele>3.8</ele>
        <time>2021-08-14T08:59:32Z</time>
      </trkpt>
      <trkpt lat="47.82241" lon="-3.65234">
        <ele>3.8</ele>
        <time>2021-08-14T08:59:33Z</time>
      </trkpt>
      <trkpt lat="47.82238" lon="-3.65229">
        <ele>3.8</ele>
        <time>2021-08-14T08:59:34Z</time>
      </trkpt>
      <trkpt lat="47.82235" lon="-3.65224">
        <ele>3.8</ele>
        <time>2021-08-14T08:59:35Z</time>
      </trkpt>
      <trkpt lat="47.82232" lon="-3.65219">
        <ele>3.8</ele>
        <time>2021-08-14T08:59:36Z</time>
      </trkpt>
      <trkpt lat="47.82229" lon="-3.65213">
        <ele>3.8</ele>
        <time>2021-08-14T08:59:37Z</time>
      </trkpt>
      <trkpt lat="47.82226" lon="-3.65208">
        <ele>3.6</ele>
        <time>2021-08-14T08:59:38Z</time>
      </trkpt>
      <trkpt lat="47.82223" lon="-3.65202">
        <ele>3.6</ele>
        <time>2021-08-14T08:59:39Z</time>
      </trkpt>
      <trkpt lat="47.8222" lon="-3.65196">
        <ele>3.6</ele>
        <time>2021-08-14T08:59:40Z</time>
      </trkpt>
      <trkpt lat="47.82217" lon="-3.65191">
        <ele>3.6</ele>
        <time>2021-08-14T08:59:41Z</time>
      </trkpt>
      <trkpt lat="47.82214" lon="-3.65185">
        <ele>3.6</ele>
        <time>2021-08-14T08:59:42Z</time>
      </trkpt>
      <trkpt lat="47.82211" lon="-3.65179">
        <ele>3.6</ele>
        <time>2021-08-14T08:59:43Z</time>
      </trkpt>
      <trkpt lat="47.82208" lon="-3.65174">
        <ele>3.4</ele>
        <time>2021-08-14T08:59:44Z</time>
      </trkpt>
      <trkpt lat="47.82205" lon="-3.65168">
        <ele>3.2</ele>
        <time>2021-08-14T08:59:45Z</time>
      </trkpt>
      <trkpt lat="47.82202" lon="-3.65162">
        <ele>3.2</ele>
        <time>2021-08-14T08:59:46Z</time>
      </trkpt>
      <trkpt lat="47.82199" lon="-3.65157">
        <ele>3</ele>
        <time>2021-08-14T08:59:47Z</time>
      </trkpt>
      <trkpt lat="47.82196" lon="-3.65151">
        <ele>2.8</ele>
        <time>2021-08-14T08:59:48Z</time>
      </trkpt>
      <trkpt lat="47.82193" lon="-3.65146">
        <ele>2.8</ele>
        <time>2021-08-14T08:59:49Z</time>
      </trkpt>
      <trkpt lat="47.82189" lon="-3.65141">
        <ele>2.8</ele>
        <time>2021-08-14T08:59:50Z</time>
      </trkpt>
      <trkpt lat="47.82185" lon="-3.65136">
        <ele>2.6</ele>
        <time>2021-08-14T08:59:51Z</time>
      </trkpt>
      <trkpt lat="47.82181" lon="-3.65131">
        <ele>2.6</ele>
        <time>2021-08-14T08:59:52Z</time>
      </trkpt>
      <trkpt lat="47.82177" lon="-3.65126">
        <ele>2.6</ele>
        <time>2021-08-14T08:59:53Z</time>
      </trkpt>
      <trkpt lat="47.82172" lon="-3.65122">
        <ele>2.6</ele>
        <time>2021-08-14T08:59:54Z</time>
      </trkpt>
      <trkpt lat="47.82168" lon="-3.65118">
        <ele>2.4</ele>
        <time>2021-08-14T08:59:55Z</time>
      </trkpt>
      <trkpt lat="47.82162" lon="-3.65115">
        <ele>2.4</ele>
        <time>2021-08-14T08:59:56Z</time>
      </trkpt>
      <trkpt lat="47.82157" lon="-3.65112">
        <ele>2.4</ele>
        <time>2021-08-14T08:59:57Z</time>
      </trkpt>
      <trkpt lat="47.82151" lon="-3.6511">
        <ele>2.2</ele>
        <time>2021-08-14T08:59:58Z</time>
      </trkpt>
      <trkpt lat="47.82146" lon="-3.65108">
        <ele>2.2</ele>
        <time>2021-08-14T08:59:59Z</time>
      </trkpt>
      <trkpt lat="47.8214" lon="-3.65106">
        <ele>2</ele>
        <time>2021-08-14T09:00:00Z</time>
      </trkpt>
      <trkpt lat="47.82134" lon="-3.65104">
        <ele>2</ele>
        <time>2021-08-14T09:00:01Z</time>
      </trkpt>
      <trkpt lat="47.82128" lon="-3.65103">
        <ele>1.8</ele>
        <time>2021-08-14T09:00:02Z</time>
      </trkpt>
      <trkpt lat="47.82123" lon="-3.65102">
        <ele>1.8</ele>
        <time>2021-08-14T09:00:03Z</time>
      </trkpt>
      <trkpt lat="47.82117" lon="-3.65101">
        <ele>1.8</ele>
        <time>2021-08-14T09:00:04Z</time>
      </trkpt>
      <trkpt lat="47.82111" lon="-3.651">
        <ele>1.6</ele>
        <time>2021-08-14T09:00:05Z</time>
      </trkpt>
      <trkpt lat="47.82106" lon="-3.65099">
        <ele>1.6</ele>
        <time>2021-08-14T09:00:06Z</time>
      </trkpt>
      <trkpt lat="47.821" lon="-3.65098">
        <ele>1.6</ele>
        <time>2021-08-14T09:00:07Z</time>
      </trkpt>
      <trkpt lat="47.82095" lon="-3.65097">
        <ele>1.6</ele>
        <time>2021-08-14T09:00:08Z</time>
      </trkpt>
      <trkpt lat="47.82089" lon="-3.65097">
        <ele>1.6</ele>
        <time>2021-08-14T09:00:09Z</time>
      </trkpt>
      <trkpt lat="47.82084" lon="-3.65096">
        <ele>1.6</ele>
        <time>2021-08-14T09:00:10Z</time>
      </trkpt>
      <trkpt lat="47.82079" lon="-3.65095">
        <ele>1.6</ele>
        <time>2021-08-14T09:00:11Z</time>
      </trkpt>
      <trkpt lat="47.82074" lon="-3.65095">
        <ele>1.6</ele>
        <time>2021-08-14T09:00:12Z</time>
      </trkpt>
      <trkpt lat="47.8207" lon="-3.65094">
        <ele>1.6</ele>
        <time>2021-08-14T09:00:13Z</time>
      </trkpt>
      <trkpt lat="47.82066" lon="-3.65094">
        <ele>1.6</ele>
        <time>2021-08-14T09:00:14Z</time>
      </trkpt>
      <trkpt lat="47.82062" lon="-3.65094">
        <ele>1.6</ele>
        <time>2021-08-14T09:00:15Z</time>
      </trkpt>
      <trkpt lat="47.82058" lon="-3.65094">
        <ele>1.8</ele>
        <time>2021-08-14T09:00:16Z</time>
      </trkpt>
      <trkpt lat="47.82054" lon="-3.65095">
        <ele>2.2</ele>
        <time>2021-08-14T09:00:17Z</time>
      </trkpt>
      <trkpt lat="47.8205" lon="-3.65095">
        <ele>2.4</ele>
        <time>2021-08-14T09:00:18Z</time>
      </trkpt>
      <trkpt lat="47.82046" lon="-3.65095">
        <ele>2.6</ele>
        <time>2021-08-14T09:00:19Z</time>
      </trkpt>
      <trkpt lat="47.82043" lon="-3.65096">
        <ele>2.8</ele>
        <time>2021-08-14T09:00:20Z</time>
      </trkpt>
      <trkpt lat="47.82039" lon="-3.65097">
        <ele>3.2</ele>
        <time>2021-08-14T09:00:21Z</time>
      </trkpt>
      <trkpt lat="47.82035" lon="-3.65098">
        <ele>3.2</ele>
        <time>2021-08-14T09:00:22Z</time>
      </trkpt>
      <trkpt lat="47.82032" lon="-3.65099">
        <ele>3.4</ele>
        <time>2021-08-14T09:00:23Z</time>
      </trkpt>
      <trkpt lat="47.82028" lon="-3.651">
        <ele>3.4</ele>
        <time>2021-08-14T09:00:24Z</time>
      </trkpt>
      <trkpt lat="47.82025" lon="-3.65102">
        <ele>3.6</ele>
        <time>2021-08-14T09:00:25Z</time>
      </trkpt>
      <trkpt lat="47.82022" lon="-3.65103">
        <ele>3.8</ele>
        <time>2021-08-14T09:00:26Z</time>
      </trkpt>
      <trkpt lat="47.82019" lon="-3.65105">
        <ele>4</ele>
        <time>2021-08-14T09:00:27Z</time>
      </trkpt>
      <trkpt lat="47.82017" lon="-3.65107">
        <ele>4.2</ele>
        <time>2021-08-14T09:00:28Z</time>
      </trkpt>
      <trkpt lat="47.82014" lon="-3.65108">
        <ele>4.4</ele>
        <time>2021-08-14T09:00:29Z</time>
      </trkpt>
      <trkpt lat="47.82012" lon="-3.65109">
        <ele>4.6</ele>
        <time>2021-08-14T09:00:30Z</time>
      </trkpt>
      <trkpt lat="47.8201" lon="-3.65111">
        <ele>4.6</ele>
        <time>2021-08-14T09:00:31Z</time>
      </trkpt>
      <trkpt lat="47.82008" lon="-3.65112">
        <ele>4.8</ele>
        <time>2021-08-14T09:00:32Z</time>
      </trkpt>
      <trkpt lat="47.82006" lon="-3.65114">
        <ele>5</ele>
        <time>2021-08-14T09:00:33Z</time>
      </trkpt>
      <trkpt lat="47.82004" lon="-3.65115">
        <ele>5.2</ele>
        <time>2021-08-14T09:00:34Z</time>
      </trkpt>
      <trkpt lat="47.82003" lon="-3.65117">
        <ele>5.6</ele>
        <time>2021-08-14T09:00:35Z</time>
      </trkpt>
      <trkpt lat="47.82001" lon="-3.65118">
        <ele>5.8</ele>
        <time>2021-08-14T09:00:36Z</time>
      </trkpt>
      <trkpt lat="47.81999" lon="-3.6512">
        <ele>5.8</ele>
        <time>2021-08-14T09:00:37Z</time>
      </trkpt>
      <trkpt lat="47.81998" lon="-3.65121">
        <ele>6</ele>
        <time>2021-08-14T09:00:38Z</time>
      </trkpt>
      <trkpt lat="47.81996" lon="-3.65123">
        <ele>6.2</ele>
        <time>2021-08-14T09:00:39Z</time>
      </trkpt>
      <trkpt lat="47.81995" lon="-3.65124">
        <ele>6.4</ele>
        <time>2021-08-14T09:00:40Z</time>
      </trkpt>
      <trkpt lat="47.81994" lon="-3.65126">
        <ele>6.4</ele>
        <time>2021-08-14T09:00:41Z</time>
      </trkpt>
      <trkpt lat="47.81992" lon="-3.65128">
        <ele>6.6</ele>
        <time>2021-08-14T09:00:42Z</time>
      </trkpt>
      <trkpt lat="47.81991" lon="-3.6513">
        <ele>6.8</ele>
        <time>2021-08-14T09:00:43Z</time>
      </trkpt>
      <trkpt lat="47.81989" lon="-3.65131">
        <ele>7</ele>
        <time>2021-08-14T09:00:44Z</time>
      </trkpt>
      <trkpt lat="47.81987" lon="-3.65133">
        <ele>7</ele>
        <time>2021-08-14T09:00:45Z</time>
      </trkpt>
      <trkpt lat="47.81986" lon="-3.65135">
        <ele>7.2</ele>
        <time>2021-08-14T09:00:46Z</time>
      </trkpt>
      <trkpt lat="47.81984" lon="-3.65137">
        <ele>7.2</ele>
        <time>2021-08-14T09:00:47Z</time>
      </trkpt>
      <trkpt lat="47.81983" lon="-3.65139">
        <ele>7.4</ele>
        <time>2021-08-14T09:00:48Z</time>
      </trkpt>
      <trkpt lat="47.81981" lon="-3.65142">
        <ele>7.4</ele>
        <time>2021-08-14T09:00:49Z</time>
      </trkpt>
      <trkpt lat="47.8198" lon="-3.65144">
        <ele>7.6</ele>
        <time>2021-08-14T09:00:50Z</time>
      </trkpt>
      <trkpt lat="47.81978" lon="-3.65146">
        <ele>7.6</ele>
        <time>2021-08-14T09:00:51Z</time>
      </trkpt>
      <trkpt lat="47.81976" lon="-3.65149">
        <ele>7.8</ele>
        <time>2021-08-14T09:00:52Z</time>
      </trkpt>
      <trkpt lat="47.81975" lon="-3.65151">
        <ele>7.8</ele>
        <time>2021-08-14T09:00:53Z</time>
      </trkpt>
      <trkpt lat="47.81973" lon="-3.65154">
        <ele>8</ele>
        <time>2021-08-14T09:00:54Z</time>
      </trkpt>
      <trkpt lat="47.81971" lon="-3.65156">
        <ele>8.2</ele>
        <time>2021-08-14T09:00:55Z</time>
      </trkpt>
      <trkpt lat="47.8197" lon="-3.65159">
        <ele>8.2</ele>
        <time>2021-08-14T09:00:56Z</time>
      </trkpt>
      <trkpt lat="47.81968" lon="-3.65162">
        <ele>8.4</ele>
        <time>2021-08-14T09:00:57Z</time>
      </trkpt>
      <trkpt lat="47.81967" lon="-3.65164">
        <ele>8.4</ele>
        <time>2021-08-14T09:00:58Z</time>
      </trkpt>
      <trkpt lat="47.81965" lon="-3.65167">
        <ele>8.6</ele>
        <time>2021-08-14T09:00:59Z</time>
      </trkpt>
      <trkpt lat="47.81964" lon="-3.65169">
        <ele>8.6</ele>
        <time>2021-08-14T09:01:00Z</time>
      </trkpt>
      <trkpt lat="47.81963" lon="-3.65172">
        <ele>8.8</ele>
        <time>2021-08-14T09:01:01Z</time>
      </trkpt>
      <trkpt lat="47.81963" lon="-3.65174">
        <ele>8.8</ele>
        <time>2021-08-14T09:01:02Z</time>
      </trkpt>
      <trkpt lat="47.81961" lon="-3.65177">
        <ele>9</ele>
        <time>2021-08-14T09:01:03Z</time>
      </trkpt>
      <trkpt lat="47.8196" lon="-3.65179">
        <ele>9.2</ele>
        <time>2021-08-14T09:01:04Z</time>
      </trkpt>
      <trkpt lat="47.81959" lon="-3.65181">
        <ele>9.2</ele>
        <time>2021-08-14T09:01:05Z</time>
      </trkpt>
      <trkpt lat="47.81958" lon="-3.65184">
        <ele>9.2</ele>
        <time>2021-08-14T09:01:06Z</time>
      </trkpt>
      <trkpt lat="47.81957" lon="-3.65186">
        <ele>9.4</ele>
        <time>2021-08-14T09:01:07Z</time>
      </trkpt>
      <trkpt lat="47.81956" lon="-3.65189">
        <ele>9.6</ele>
        <time>2021-08-14T09:01:08Z</time>
      </trkpt>
      <trkpt lat="47.81954" lon="-3.65192">
        <ele>9.6</ele>
        <time>2021-08-14T09:01:09Z</time>
      </trkpt>
      <trkpt lat="47.81953" lon="-3.65194">
        <ele>9.8</ele>
        <time>2021-08-14T09:01:10Z</time>
      </trkpt>
      <trkpt lat="47.81951" lon="-3.65198">
        <ele>10</ele>
        <time>2021-08-14T09:01:11Z</time>
      </trkpt>
      <trkpt lat="47.8195" lon="-3.65201">
        <ele>10.2</ele>
        <time>2021-08-14T09:01:12Z</time>
      </trkpt>
      <trkpt lat="47.81948" lon="-3.65203">
        <ele>10.6</ele>
        <time>2021-08-14T09:01:13Z</time>
      </trkpt>
      <trkpt lat="47.81947" lon="-3.65206">
        <ele>10.8</ele>
        <time>2021-08-14T09:01:14Z</time>
      </trkpt>
      <trkpt lat="47.81945" lon="-3.65209">
        <ele>10.8</ele>
        <time>2021-08-14T09:01:15Z</time>
      </trkpt>
      <trkpt lat="47.81944" lon="-3.65212">
        <ele>11</ele>
        <time>2021-08-14T09:01:16Z</time>
      </trkpt>
      <trkpt lat="47.81942" lon="-3.65215">
        <ele>11</ele>
        <time>2021-08-14T09:01:17Z</time>
      </trkpt>
      <trkpt lat="47.81941" lon="-3.65218">
        <ele>11.4</ele>
        <time>2021-08-14T09:01:18Z</time>
      </trkpt>
      <trkpt lat="47.81939" lon="-3.6522">
        <ele>11.4</ele>
        <time>2021-08-14T09:01:19Z</time>
      </trkpt>
      <trkpt lat="47.81938" lon="-3.65223">
        <ele>11.6</ele>
        <time>2021-08-14T09:01:20Z</time>
      </trkpt>
      <trkpt lat="47.81937" lon="-3.65226">
        <ele>11.8</ele>
        <time>2021-08-14T09:01:21Z</time>
      </trkpt>
      <trkpt lat="47.81935" lon="-3.65228">
        <ele>11.8</ele>
        <time>2021-08-14T09:01:22Z</time>
      </trkpt>
      <trkpt lat="47.81933" lon="-3.65231">
        <ele>11.8</ele>
        <time>2021-08-14T09:01:23Z</time>
      </trkpt>
      <trkpt lat="47.81932" lon="-3.65234">
        <ele>12</ele>
        <time>2021-08-14T09:01:24Z</time>
      </trkpt>
      <trkpt lat="47.8193" lon="-3.65236">
        <ele>12.2</ele>
        <time>2021-08-14T09:01:25Z</time>
      </trkpt>
      <trkpt lat="47.81929" lon="-3.65239">
        <ele>12.4</ele>
        <time>2021-08-14T09:01:26Z</time>
      </trkpt>
      <trkpt lat="47.81927" lon="-3.65241">
        <ele>12.4</ele>
        <time>2021-08-14T09:01:27Z</time>
      </trkpt>
      <trkpt lat="47.81925" lon="-3.65244">
        <ele>12.6</ele>
        <time>2021-08-14T09:01:28Z</time>
      </trkpt>
      <trkpt lat="47.81923" lon="-3.65247">
        <ele>12.6</ele>
        <time>2021-08-14T09:01:29Z</time>
      </trkpt>
      <trkpt lat="47.81921" lon="-3.6525">
        <ele>12.8</ele>
        <time>2021-08-14T09:01:30Z</time>
      </trkpt>
      <trkpt lat="47.8192" lon="-3.65252">
        <ele>13</ele>
        <time>2021-08-14T09:01:31Z</time>
      </trkpt>
      <trkpt lat="47.81918" lon="-3.65254">
        <ele>13.2</ele>
        <time>2021-08-14T09:01:32Z</time>
      </trkpt>
      <trkpt lat="47.81916" lon="-3.65256">
        <ele>13.4</ele>
        <time>2021-08-14T09:01:33Z</time>
      </trkpt>
      <trkpt lat="47.81915" lon="-3.65258">
        <ele>13.4</ele>
        <time>2021-08-14T09:01:34Z</time>
      </trkpt>
      <trkpt lat="47.81913" lon="-3.6526">
        <ele>13.6</ele>
        <time>2021-08-14T09:01:35Z</time>
      </trkpt>
      <trkpt lat="47.81912" lon="-3.65262">
        <ele>13.6</ele>
        <time>2021-08-14T09:01:36Z</time>
      </trkpt>
      <trkpt lat="47.8191" lon="-3.65264">
        <ele>13.8</ele>
        <time>2021-08-14T09:01:37Z</time>
      </trkpt>
      <trkpt lat="47.81909" lon="-3.65266">
        <ele>13.8</ele>
        <time>2021-08-14T09:01:38Z</time>
      </trkpt>
      <trkpt lat="47.81907" lon="-3.65268">
        <ele>14</ele>
        <time>2021-08-14T09:01:39Z</time>
      </trkpt>
      <trkpt lat="47.81905" lon="-3.6527">
        <ele>14</ele>
        <time>2021-08-14T09:01:40Z</time>
      </trkpt>
      <trkpt lat="47.81904" lon="-3.65271">
        <ele>14.2</ele>
        <time>2021-08-14T09:01:41Z</time>
      </trkpt>
      <trkpt lat="47.81902" lon="-3.65273">
        <ele>14.4</ele>
        <time>2021-08-14T09:01:42Z</time>
      </trkpt>
      <trkpt lat="47.819" lon="-3.65274">
        <ele>14.6</ele>
        <time>2021-08-14T09:01:43Z</time>
      </trkpt>
      <trkpt lat="47.81899" lon="-3.65277">
        <ele>14.6</ele>
        <time>2021-08-14T09:01:44Z</time>
      </trkpt>
      <trkpt lat="47.81897" lon="-3.65278">
        <ele>14.8</ele>
        <time>2021-08-14T09:01:45Z</time>
      </trkpt>
      <trkpt lat="47.81895" lon="-3.6528">
        <ele>14.8</ele>
        <time>2021-08-14T09:01:46Z</time>
      </trkpt>
      <trkpt lat="47.81893" lon="-3.65281">
        <ele>15</ele>
        <time>2021-08-14T09:01:47Z</time>
      </trkpt>
      <trkpt lat="47.81891" lon="-3.65283">
        <ele>15</ele>
        <time>2021-08-14T09:01:48Z</time>
      </trkpt>
      <trkpt lat="47.81888" lon="-3.65285">
        <ele>15.2</ele>
        <time>2021-08-14T09:01:49Z</time>
      </trkpt>
      <trkpt lat="47.81886" lon="-3.65286">
        <ele>15.2</ele>
        <time>2021-08-14T09:01:50Z</time>
      </trkpt>
      <trkpt lat="47.81884" lon="-3.65288">
        <ele>15.4</ele>
        <time>2021-08-14T09:01:51Z</time>
      </trkpt>
      <trkpt lat="47.81882" lon="-3.6529">
        <ele>15.6</ele>
        <time>2021-08-14T09:01:52Z</time>
      </trkpt>
      <trkpt lat="47.8188" lon="-3.65291">
        <ele>15.6</ele>
        <time>2021-08-14T09:01:53Z</time>
      </trkpt>
      <trkpt lat="47.81878" lon="-3.65292">
        <ele>15.8</ele>
        <time>2021-08-14T09:01:54Z</time>
      </trkpt>
      <trkpt lat="47.81876" lon="-3.65293">
        <ele>15.6</ele>
        <time>2021-08-14T09:01:55Z</time>
      </trkpt>
      <trkpt lat="47.81874" lon="-3.65294">
        <ele>15.8</ele>
        <time>2021-08-14T09:01:56Z</time>
      </trkpt>
      <trkpt lat="47.81872" lon="-3.65294">
        <ele>15.8</ele>
        <time>2021-08-14T09:01:57Z</time>
      </trkpt>
      <trkpt lat="47.81871" lon="-3.65295">
        <ele>16</ele>
        <time>2021-08-14T09:01:58Z</time>
      </trkpt>
      <trkpt lat="47.81869" lon="-3.65296">
        <ele>16.2</ele>
        <time>2021-08-14T09:01:59Z</time>
      </trkpt>
      <trkpt lat="47.81867" lon="-3.65297">
        <ele>16.2</ele>
        <time>2021-08-14T09:02:00Z</time>
      </trkpt>
      <trkpt lat="47.81866" lon="-3.65298">
        <ele>16.4</ele>
        <time>2021-08-14T09:02:01Z</time>
      </trkpt>
      <trkpt lat="47.81864" lon="-3.65299">
        <ele>16.6</ele>
        <time>2021-08-14T09:02:02Z</time>
      </trkpt>
      <trkpt lat="47.81862" lon="-3.65299">
        <ele>16.6</ele>
        <time>2021-08-14T09:02:03Z</time>
      </trkpt>
      <trkpt lat="47.8186" lon="-3.65299">
        <ele>16.8</ele>
        <time>2021-08-14T09:02:04Z</time>
      </trkpt>
      <trkpt lat="47.81858" lon="-3.653">
        <ele>17</ele>
        <time>2021-08-14T09:02:05Z</time>
      </trkpt>
      <trkpt lat="47.81856" lon="-3.653">
        <ele>17</ele>
        <time>2021-08-14T09:02:06Z</time>
      </trkpt>
      <trkpt lat="47.81854" lon="-3.65301">
        <ele>17.2</ele>
        <time>2021-08-14T09:02:07Z</time>
      </trkpt>
      <trkpt lat="47.81852" lon="-3.65302">
        <ele>17.4</ele>
        <time>2021-08-14T09:02:08Z</time>
      </trkpt>
      <trkpt lat="47.8185" lon="-3.65302">
        <ele>17.4</ele>
        <time>2021-08-14T09:02:09Z</time>
      </trkpt>
      <trkpt lat="47.81848" lon="-3.65302">
        <ele>17.4</ele>
        <time>2021-08-14T09:02:10Z</time>
      </trkpt>
      <trkpt lat="47.81845" lon="-3.65303">
        <ele>17.6</ele>
        <time>2021-08-14T09:02:11Z</time>
      </trkpt>
      <trkpt lat="47.81843" lon="-3.65303">
        <ele>17.8</ele>
        <time>2021-08-14T09:02:12Z</time>
      </trkpt>
      <trkpt lat="47.8184" lon="-3.65303">
        <ele>18</ele>
        <time>2021-08-14T09:02:13Z</time>
      </trkpt>
      <trkpt lat="47.81838" lon="-3.65303">
        <ele>18</ele>
        <time>2021-08-14T09:02:14Z</time>
      </trkpt>
      <trkpt lat="47.81836" lon="-3.65303">
        <ele>18.2</ele>
        <time>2021-08-14T09:02:15Z</time>
      </trkpt>
      <trkpt lat="47.81833" lon="-3.65303">
        <ele>18.4</ele>
        <time>2021-08-14T09:02:16Z</time>
      </trkpt>
      <trkpt lat="47.81832" lon="-3.65303">
        <ele>18.4</ele>
        <time>2021-08-14T09:02:17Z</time>
      </trkpt>
      <trkpt lat="47.8183" lon="-3.65303">
        <ele>18.6</ele>
        <time>2021-08-14T09:02:18Z</time>
      </trkpt>
      <trkpt lat="47.81828" lon="-3.65302">
        <ele>18.6</ele>
        <time>2021-08-14T09:02:19Z</time>
      </trkpt>
      <trkpt lat="47.81826" lon="-3.65302">
        <ele>18.6</ele>
        <time>2021-08-14T09:02:20Z</time>
      </trkpt>
      <trkpt lat="47.81824" lon="-3.65301">
        <ele>18.6</ele>
        <time>2021-08-14T09:02:21Z</time>
      </trkpt>
      <trkpt lat="47.81822" lon="-3.65301">
        <ele>18.8</ele>
        <time>2021-08-14T09:02:22Z</time>
      </trkpt>
      <trkpt lat="47.8182" lon="-3.653">
        <ele>19</ele>
        <time>2021-08-14T09:02:23Z</time>
      </trkpt>
      <trkpt lat="47.81818" lon="-3.653">
        <ele>19</ele>
        <time>2021-08-14T09:02:24Z</time>
      </trkpt>
      <trkpt lat="47.81816" lon="-3.65299">
        <ele>19.2</ele>
        <time>2021-08-14T09:02:25Z</time>
      </trkpt>
      <trkpt lat="47.81814" lon="-3.65299">
        <ele>19.2</ele>
        <time>2021-08-14T09:02:26Z</time>
      </trkpt>
      <trkpt lat="47.81812" lon="-3.65298">
        <ele>19.2</ele>
        <time>2021-08-14T09:02:27Z</time>
      </trkpt>
      <trkpt lat="47.8181" lon="-3.65297">
        <ele>19.4</ele>
        <time>2021-08-14T09:02:28Z</time>
      </trkpt>
      <trkpt lat="47.81808" lon="-3.65296">
        <ele>19.4</ele>
        <time>2021-08-14T09:02:29Z</time>
      </trkpt>
      <trkpt lat="47.81806" lon="-3.65295">
        <ele>19.4</ele>
        <time>2021-08-14T09:02:30Z</time>
      </trkpt>
      <trkpt lat="47.81804" lon="-3.65294">
        <ele>19.4</ele>
        <time>2021-08-14T09:02:31Z</time>
      </trkpt>
      <trkpt lat="47.81802" lon="-3.65293">
        <ele>19.6</ele>
        <time>2021-08-14T09:02:32Z</time>
      </trkpt>
      <trkpt lat="47.818" lon="-3.65291">
        <ele>19.8</ele>
        <time>2021-08-14T09:02:33Z</time>
      </trkpt>
      <trkpt lat="47.81798" lon="-3.6529">
        <ele>20</ele>
        <time>2021-08-14T09:02:34Z</time>
      </trkpt>
      <trkpt lat="47.81795" lon="-3.65288">
        <ele>20</ele>
        <time>2021-08-14T09:02:35Z</time>
      </trkpt>
      <trkpt lat="47.81793" lon="-3.65286">
        <ele>20.2</ele>
        <time>2021-08-14T09:02:36Z</time>
      </trkpt>
      <trkpt lat="47.81791" lon="-3.65285">
        <ele>20.2</ele>
        <time>2021-08-14T09:02:37Z</time>
      </trkpt>
      <trkpt lat="47.81788" lon="-3.65283">
        <ele>20.2</ele>
        <time>2021-08-14T09:02:38Z</time>
      </trkpt>
      <trkpt lat="47.81786" lon="-3.65282">
        <ele>20.4</ele>
        <time>2021-08-14T09:02:39Z</time>
      </trkpt>
      <trkpt lat="47.81784" lon="-3.6528">
        <ele>20.4</ele>
        <time>2021-08-14T09:02:40Z</time>
      </trkpt>
      <trkpt lat="47.81782" lon="-3.65278">
        <ele>20.6</ele>
        <time>2021-08-14T09:02:41Z</time>
      </trkpt>
      <trkpt lat="47.8178" lon="-3.65276">
        <ele>20.8</ele>
        <time>2021-08-14T09:02:42Z</time>
      </trkpt>
      <trkpt lat="47.81778" lon="-3.65274">
        <ele>20.8</ele>
        <time>2021-08-14T09:02:43Z</time>
      </trkpt>
      <trkpt lat="47.81776" lon="-3.65272">
        <ele>21</ele>
        <time>2021-08-14T09:02:44Z</time>
      </trkpt>
      <trkpt lat="47.81774" lon="-3.6527">
        <ele>21.2</ele>
        <time>2021-08-14T09:02:45Z</time>
      </trkpt>
      <trkpt lat="47.81772" lon="-3.65267">
        <ele>21.2</ele>
        <time>2021-08-14T09:02:46Z</time>
      </trkpt>
      <trkpt lat="47.8177" lon="-3.65265">
        <ele>21.4</ele>
        <time>2021-08-14T09:02:47Z</time>
      </trkpt>
      <trkpt lat="47.81767" lon="-3.65263">
        <ele>21.4</ele>
        <time>2021-08-14T09:02:48Z</time>
      </trkpt>
      <trkpt lat="47.81765" lon="-3.65261">
        <ele>21.4</ele>
        <time>2021-08-14T09:02:49Z</time>
      </trkpt>
      <trkpt lat="47.81763" lon="-3.65259">
        <ele>21.6</ele>
        <time>2021-08-14T09:02:50Z</time>
      </trkpt>
      <trkpt lat="47.81762" lon="-3.65256">
        <ele>21.6</ele>
        <time>2021-08-14T09:02:51Z</time>
      </trkpt>
      <trkpt lat="47.8176" lon="-3.65253">
        <ele>21.6</ele>
        <time>2021-08-14T09:02:52Z</time>
      </trkpt>
      <trkpt lat="47.81758" lon="-3.6525">
        <ele>21.6</ele>
        <time>2021-08-14T09:02:53Z</time>
      </trkpt>
      <trkpt lat="47.81757" lon="-3.65247">
        <ele>21.8</ele>
        <time>2021-08-14T09:02:54Z</time>
      </trkpt>
      <trkpt lat="47.81755" lon="-3.65244">
        <ele>21.8</ele>
        <time>2021-08-14T09:02:55Z</time>
      </trkpt>
      <trkpt lat="47.81753" lon="-3.65241">
        <ele>22</ele>
        <time>2021-08-14T09:02:56Z</time>
      </trkpt>
      <trkpt lat="47.81752" lon="-3.65237">
        <ele>22</ele>
        <time>2021-08-14T09:02:57Z</time>
      </trkpt>
      <trkpt lat="47.8175" lon="-3.65234">
        <ele>22</ele>
        <time>2021-08-14T09:02:58Z</time>
      </trkpt>
      <trkpt lat="47.81749" lon="-3.6523">
        <ele>22</ele>
        <time>2021-08-14T09:02:59Z</time>
      </trkpt>
      <trkpt lat="47.81747" lon="-3.65227">
        <ele>22.2</ele>
        <time>2021-08-14T09:03:00Z</time>
      </trkpt>
      <trkpt lat="47.81745" lon="-3.65223">
        <ele>22.2</ele>
        <time>2021-08-14T09:03:01Z</time>
      </trkpt>
      <trkpt lat="47.81744" lon="-3.6522">
        <ele>22.4</ele>
        <time>2021-08-14T09:03:02Z</time>
      </trkpt>
      <trkpt lat="47.81742" lon="-3.65216">
        <ele>22.4</ele>
        <time>2021-08-14T09:03:03Z</time>
      </trkpt>
      <trkpt lat="47.81741" lon="-3.65212">
        <ele>22.4</ele>
        <time>2021-08-14T09:03:04Z</time>
      </trkpt>
      <trkpt lat="47.81739" lon="-3.65208">
        <ele>22.4</ele>
        <time>2021-08-14T09:03:05Z</time>
      </trkpt>
      <trkpt lat="47.81737" lon="-3.65203">
        <ele>22.4</ele>
        <time>2021-08-14T09:03:06Z</time>
      </trkpt>
      <trkpt lat="47.81736" lon="-3.65199">
        <ele>22.6</ele>
        <time>2021-08-14T09:03:07Z</time>
      </trkpt>
      <trkpt lat="47.81734" lon="-3.65194">
        <ele>22.6</ele>
        <time>2021-08-14T09:03:08Z</time>
      </trkpt>
      <trkpt lat="47.81732" lon="-3.6519">
        <ele>22.6</ele>
        <time>2021-08-14T09:03:09Z</time>
      </trkpt>
      <trkpt lat="47.81731" lon="-3.65185">
        <ele>22.6</ele>
        <time>2021-08-14T09:03:10Z</time>
      </trkpt>
      <trkpt lat="47.81729" lon="-3.6518">
        <ele>22.8</ele>
        <time>2021-08-14T09:03:11Z</time>
      </trkpt>
      <trkpt lat="47.81727" lon="-3.65175">
        <ele>22.8</ele>
        <time>2021-08-14T09:03:12Z</time>
      </trkpt>
      <trkpt lat="47.81725" lon="-3.6517">
        <ele>22.8</ele>
        <time>2021-08-14T09:03:13Z</time>
      </trkpt>
      <trkpt lat="47.81724" lon="-3.65165">
        <ele>22.8</ele>
        <time>2021-08-14T09:03:14Z</time>
      </trkpt>
      <trkpt lat="47.81722" lon="-3.6516">
        <ele>23</ele>
        <time>2021-08-14T09:03:15Z</time>
      </trkpt>
      <trkpt lat="47.8172" lon="-3.65155">
        <ele>23</ele>
        <time>2021-08-14T09:03:16Z</time>
      </trkpt>
      <trkpt lat="47.81719" lon="-3.6515">
        <ele>23</ele>
        <time>2021-08-14T09:03:17Z</time>
      </trkpt>
      <trkpt lat="47.81717" lon="-3.65145">
        <ele>23.2</ele>
        <time>2021-08-14T09:03:18Z</time>
      </trkpt>
      <trkpt lat="47.81715" lon="-3.6514">
        <ele>23.2</ele>
        <time>2021-08-14T09:03:19Z</time>
      </trkpt>
      <trkpt lat="47.81713" lon="-3.65134">
        <ele>23.2</ele>
        <time>2021-08-14T09:03:20Z</time>
      </trkpt>
      <trkpt lat="47.81711" lon="-3.65129">
        <ele>23.2</ele>
        <time>2021-08-14T09:03:21Z</time>
      </trkpt>
      <trkpt lat="47.8171" lon="-3.65124">
        <ele>23.2</ele>
        <time>2021-08-14T09:03:22Z</time>
      </trkpt>
      <trkpt lat="47.81708" lon="-3.65119">
        <ele>23.2</ele>
        <time>2021-08-14T09:03:23Z</time>
      </trkpt>
      <trkpt lat="47.81706" lon="-3.65114">
        <ele>23.4</ele>
        <time>2021-08-14T09:03:24Z</time>
      </trkpt>
      <trkpt lat="47.81704" lon="-3.65109">
        <ele>23.4</ele>
        <time>2021-08-14T09:03:25Z</time>
      </trkpt>
      <trkpt lat="47.81703" lon="-3.65104">
        <ele>23.4</ele>
        <time>2021-08-14T09:03:26Z</time>
      </trkpt>
      <trkpt lat="47.81701" lon="-3.65098">
        <ele>23.4</ele>
        <time>2021-08-14T09:03:27Z</time>
      </trkpt>
      <trkpt lat="47.81699" lon="-3.65093">
        <ele>23.6</ele>
        <time>2021-08-14T09:03:28Z</time>
      </trkpt>
      <trkpt lat="47.81697" lon="-3.65088">
        <ele>23.6</ele>
        <time>2021-08-14T09:03:29Z</time>
      </trkpt>
      <trkpt lat="47.81696" lon="-3.65083">
        <ele>23.6</ele>
        <time>2021-08-14T09:03:30Z</time>
      </trkpt>
      <trkpt lat="47.81694" lon="-3.65078">
        <ele>23.8</ele>
        <time>2021-08-14T09:03:31Z</time>
      </trkpt>
      <trkpt lat="47.81692" lon="-3.65073">
        <ele>23.8</ele>
        <time>2021-08-14T09:03:32Z</time>
      </trkpt>
      <trkpt lat="47.8169" lon="-3.65068">
        <ele>24</ele>
        <time>2021-08-14T09:03:33Z</time>
      </trkpt>
      <trkpt lat="47.81688" lon="-3.65064">
        <ele>24</ele>
        <time>2021-08-14T09:03:34Z</time>
      </trkpt>
      <trkpt lat="47.81686" lon="-3.65059">
        <ele>24.2</ele>
        <time>2021-08-14T09:03:35Z</time>
      </trkpt>
      <trkpt lat="47.81684" lon="-3.65055">
        <ele>24.4</ele>
        <time>2021-08-14T09:03:36Z</time>
      </trkpt>
      <trkpt lat="47.81682" lon="-3.6505">
        <ele>24.6</ele>
        <time>2021-08-14T09:03:37Z</time>
      </trkpt>
      <trkpt lat="47.8168" lon="-3.65046">
        <ele>24.6</ele>
        <time>2021-08-14T09:03:38Z</time>
      </trkpt>
      <trkpt lat="47.81678" lon="-3.65041">
        <ele>24.8</ele>
        <time>2021-08-14T09:03:39Z</time>
      </trkpt>
      <trkpt lat="47.81676" lon="-3.65036">
        <ele>24.8</ele>
        <time>2021-08-14T09:03:40Z</time>
      </trkpt>
      <trkpt lat="47.81674" lon="-3.65032">
        <ele>25</ele>
        <time>2021-08-14T09:03:41Z</time>
      </trkpt>
      <trkpt lat="47.81671" lon="-3.65027">
        <ele>25</ele>
        <time>2021-08-14T09:03:42Z</time>
      </trkpt>
      <trkpt lat="47.81669" lon="-3.65022">
        <ele>25.2</ele>
        <time>2021-08-14T09:03:43Z</time>
      </trkpt>
      <trkpt lat="47.81667" lon="-3.65018">
        <ele>25.2</ele>
        <time>2021-08-14T09:03:44Z</time>
      </trkpt>
      <trkpt lat="47.81665" lon="-3.65013">
        <ele>25.2</ele>
        <time>2021-08-14T09:03:45Z</time>
      </trkpt>
      <trkpt lat="47.81664" lon="-3.65008">
        <ele>25.4</ele>
        <time>2021-08-14T09:03:46Z</time>
      </trkpt>
      <trkpt lat="47.81662" lon="-3.65004">
        <ele>25.4</ele>
        <time>2021-08-14T09:03:47Z</time>
      </trkpt>
      <trkpt lat="47.8166" lon="-3.65">
        <ele>25.4</ele>
        <time>2021-08-14T09:03:48Z</time>
      </trkpt>
      <trkpt lat="47.81658" lon="-3.64996">
        <ele>25.4</ele>
        <time>2021-08-14T09:03:49Z</time>
      </trkpt>
      <trkpt lat="47.81656" lon="-3.64991">
        <ele>25.4</ele>
        <time>2021-08-14T09:03:50Z</time>
      </trkpt>
      <trkpt lat="47.81654" lon="-3.64987">
        <ele>25.6</ele>
        <time>2021-08-14T09:03:51Z</time>
      </trkpt>
      <trkpt lat="47.81651" lon="-3.64983">
        <ele>25.6</ele>
        <time>2021-08-14T09:03:52Z</time>
      </trkpt>
      <trkpt lat="47.81649" lon="-3.64979">
        <ele>25.6</ele>
        <time>2021-08-14T09:03:53Z</time>
      </trkpt>
      <trkpt lat="47.81647" lon="-3.64975">
        <ele>25.6</ele>
        <time>2021-08-14T09:03:54Z</time>
      </trkpt>
      <trkpt lat="47.81645" lon="-3.6497">
        <ele>25.8</ele>
        <time>2021-08-14T09:03:55Z</time>
      </trkpt>
      <trkpt lat="47.81643" lon="-3.64966">
        <ele>25.8</ele>
        <time>2021-08-14T09:03:56Z</time>
      </trkpt>
      <trkpt lat="47.81641" lon="-3.64961">
        <ele>25.8</ele>
        <time>2021-08-14T09:03:57Z</time>
      </trkpt>
      <trkpt lat="47.81639" lon="-3.64957">
        <ele>25.8</ele>
        <time>2021-08-14T09:03:58Z</time>
      </trkpt>
      <trkpt lat="47.81637" lon="-3.64952">
        <ele>25.8</ele>
        <time>2021-08-14T09:03:59Z</time>
      </trkpt>
      <trkpt lat="47.81635" lon="-3.64948">
        <ele>26</ele>
        <time>2021-08-14T09:04:00Z</time>
      </trkpt>
      <trkpt lat="47.81633" lon="-3.64943">
        <ele>26</ele>
        <time>2021-08-14T09:04:01Z</time>
      </trkpt>
      <trkpt lat="47.81631" lon="-3.64939">
        <ele>26</ele>
        <time>2021-08-14T09:04:02Z</time>
      </trkpt>
      <trkpt lat="47.81628" lon="-3.64934">
        <ele>26.4</ele>
        <time>2021-08-14T09:04:03Z</time>
      </trkpt>
      <trkpt lat="47.81626" lon="-3.64929">
        <ele>26.2</ele>
        <time>2021-08-14T09:04:04Z</time>
      </trkpt>
      <trkpt lat="47.81624" lon="-3.64925">
        <ele>26.4</ele>
        <time>2021-08-14T09:04:05Z</time>
      </trkpt>
      <trkpt lat="47.81622" lon="-3.6492">
        <ele>26.4</ele>
        <time>2021-08-14T09:04:06Z</time>
      </trkpt>
      <trkpt lat="47.8162" lon="-3.64916">
        <ele>26.6</ele>
        <time>2021-08-14T09:04:07Z</time>
      </trkpt>
      <trkpt lat="47.81618" lon="-3.64911">
        <ele>26.6</ele>
        <time>2021-08-14T09:04:08Z</time>
      </trkpt>
      <trkpt lat="47.81616" lon="-3.64907">
        <ele>26.8</ele>
        <time>2021-08-14T09:04:09Z</time>
      </trkpt>
      <trkpt lat="47.81613" lon="-3.64903">
        <ele>26.8</ele>
        <time>2021-08-14T09:04:10Z</time>
      </trkpt>
      <trkpt lat="47.81611" lon="-3.64899">
        <ele>27</ele>
        <time>2021-08-14T09:04:11Z</time>
      </trkpt>
      <trkpt lat="47.81609" lon="-3.64894">
        <ele>27.2</ele>
        <time>2021-08-14T09:04:12Z</time>
      </trkpt>
      <trkpt lat="47.81607" lon="-3.64889">
        <ele>27.2</ele>
        <time>2021-08-14T09:04:13Z</time>
      </trkpt>
      <trkpt lat="47.81605" lon="-3.64885">
        <ele>27.4</ele>
        <time>2021-08-14T09:04:14Z</time>
      </trkpt>
      <trkpt lat="47.81603" lon="-3.6488">
        <ele>27.4</ele>
        <time>2021-08-14T09:04:15Z</time>
      </trkpt>
      <trkpt lat="47.81601" lon="-3.64875">
        <ele>27.4</ele>
        <time>2021-08-14T09:04:16Z</time>
      </trkpt>
      <trkpt lat="47.81598" lon="-3.64871">
        <ele>27.4</ele>
        <time>2021-08-14T09:04:17Z</time>
      </trkpt>
      <trkpt lat="47.81596" lon="-3.64866">
        <ele>27.6</ele>
        <time>2021-08-14T09:04:18Z</time>
      </trkpt>
      <trkpt lat="47.81594" lon="-3.64862">
        <ele>27.6</ele>
        <time>2021-08-14T09:04:19Z</time>
      </trkpt>
      <trkpt lat="47.81592" lon="-3.64857">
        <ele>27.8</ele>
        <time>2021-08-14T09:04:20Z</time>
      </trkpt>
      <trkpt lat="47.8159" lon="-3.64852">
        <ele>28</ele>
        <time>2021-08-14T09:04:21Z</time>
      </trkpt>
      <trkpt lat="47.81588" lon="-3.64847">
        <ele>28</ele>
        <time>2021-08-14T09:04:22Z</time>
      </trkpt>
      <trkpt lat="47.81585" lon="-3.64843">
        <ele>28.2</ele>
        <time>2021-08-14T09:04:23Z</time>
      </trkpt>
      <trkpt lat="47.81583" lon="-3.64838">
        <ele>28.4</ele>
        <time>2021-08-14T09:04:24Z</time>
      </trkpt>
      <trkpt lat="47.81581" lon="-3.64834">
        <ele>28.4</ele>
        <time>2021-08-14T09:04:25Z</time>
      </trkpt>
      <trkpt lat="47.81579" lon="-3.64829">
        <ele>28.6</ele>
        <time>2021-08-14T09:04:26Z</time>
      </trkpt>
      <trkpt lat="47.81578" lon="-3.64825">
        <ele>28.6</ele>
        <time>2021-08-14T09:04:27Z</time>
      </trkpt>
      <trkpt lat="47.81576" lon="-3.6482">
        <ele>28.6</ele>
        <time>2021-08-14T09:04:28Z</time>
      </trkpt>
      <trkpt lat="47.81574" lon="-3.64816">
        <ele>28.6</ele>
        <time>2021-08-14T09:04:29Z</time>
      </trkpt>
      <trkpt lat="47.81572" lon="-3.64811">
        <ele>28.8</ele>
        <time>2021-08-14T09:04:30Z</time>
      </trkpt>
      <trkpt lat="47.8157" lon="-3.64807">
        <ele>29</ele>
        <time>2021-08-14T09:04:31Z</time>
      </trkpt>
      <trkpt lat="47.81569" lon="-3.64802">
        <ele>29</ele>
        <time>2021-08-14T09:04:32Z</time>
      </trkpt>
      <trkpt lat="47.81566" lon="-3.64798">
        <ele>29.2</ele>
        <time>2021-08-14T09:04:33Z</time>
      </trkpt>
      <trkpt lat="47.81564" lon="-3.64793">
        <ele>29.2</ele>
        <time>2021-08-14T09:04:34Z</time>
      </trkpt>
      <trkpt lat="47.81562" lon="-3.64789">
        <ele>29.2</ele>
        <time>2021-08-14T09:04:35Z</time>
      </trkpt>
      <trkpt lat="47.8156" lon="-3.64784">
        <ele>29.4</ele>
        <time>2021-08-14T09:04:36Z</time>
      </trkpt>
      <trkpt lat="47.81557" lon="-3.6478">
        <ele>29.4</ele>
        <time>2021-08-14T09:04:37Z</time>
      </trkpt>
      <trkpt lat="47.81555" lon="-3.64775">
        <ele>29.4</ele>
        <time>2021-08-14T09:04:38Z</time>
      </trkpt>
      <trkpt lat="47.81553" lon="-3.64771">
        <ele>29.4</ele>
        <time>2021-08-14T09:04:39Z</time>
      </trkpt>
      <trkpt lat="47.81551" lon="-3.64766">
        <ele>29.6</ele>
        <time>2021-08-14T09:04:40Z</time>
      </trkpt>
      <trkpt lat="47.81549" lon="-3.64761">
        <ele>29.8</ele>
        <time>2021-08-14T09:04:41Z</time>
      </trkpt>
      <trkpt lat="47.81547" lon="-3.64757">
        <ele>29.8</ele>
        <time>2021-08-14T09:04:42Z</time>
      </trkpt>
      <trkpt lat="47.81545" lon="-3.64752">
        <ele>30</ele>
        <time>2021-08-14T09:04:43Z</time>
      </trkpt>
      <trkpt lat="47.81543" lon="-3.64747">
        <ele>30</ele>
        <time>2021-08-14T09:04:44Z</time>
      </trkpt>
      <trkpt lat="47.81541" lon="-3.64742">
        <ele>30.2</ele>
        <time>2021-08-14T09:04:45Z</time>
      </trkpt>
      <trkpt lat="47.81539" lon="-3.64738">
        <ele>30.2</ele>
        <time>2021-08-14T09:04:46Z</time>
      </trkpt>
      <trkpt lat="47.81536" lon="-3.64733">
        <ele>30.2</ele>
        <time>2021-08-14T09:04:47Z</time>
      </trkpt>
      <trkpt lat="47.81534" lon="-3.64729">
        <ele>30.2</ele>
        <time>2021-08-14T09:04:48Z</time>
      </trkpt>
      <trkpt lat="47.81532" lon="-3.64724">
        <ele>30.2</ele>
        <time>2021-08-14T09:04:49Z</time>
      </trkpt>
      <trkpt lat="47.8153" lon="-3.6472">
        <ele>30.4</ele>
        <time>2021-08-14T09:04:50Z</time>
      </trkpt>
      <trkpt lat="47.81528" lon="-3.64715">
        <ele>30.4</ele>
        <time>2021-08-14T09:04:51Z</time>
      </trkpt>
      <trkpt lat="47.81526" lon="-3.64711">
        <ele>30.4</ele>
        <time>2021-08-14T09:04:52Z</time>
      </trkpt>
      <trkpt lat="47.81524" lon="-3.64706">
        <ele>30.4</ele>
        <time>2021-08-14T09:04:53Z</time>
      </trkpt>
      <trkpt lat="47.81521" lon="-3.64702">
        <ele>30.6</ele>
        <time>2021-08-14T09:04:54Z</time>
      </trkpt>
      <trkpt lat="47.81519" lon="-3.64698">
        <ele>30.6</ele>
        <time>2021-08-14T09:04:55Z</time>
      </trkpt>
      <trkpt lat="47.81517" lon="-3.64693">
        <ele>30.6</ele>
        <time>2021-08-14T09:04:56Z</time>
      </trkpt>
      <trkpt lat="47.81515" lon="-3.64689">
        <ele>30.6</ele>
        <time>2021-08-14T09:04:57Z</time>
      </trkpt>
      <trkpt lat="47.81513" lon="-3.64685">
        <ele>30.8</ele>
        <time>2021-08-14T09:04:58Z</time>
      </trkpt>
      <trkpt lat="47.81511" lon="-3.6468">
        <ele>30.6</ele>
        <time>2021-08-14T09:04:59Z</time>
      </trkpt>
      <trkpt lat="47.8151" lon="-3.64676">
        <ele>30.6</ele>
        <time>2021-08-14T09:05:00Z</time>
      </trkpt>
      <trkpt lat="47.81508" lon="-3.64672">
        <ele>30.8</ele>
        <time>2021-08-14T09:05:01Z</time>
      </trkpt>
      <trkpt lat="47.81505" lon="-3.64667">
        <ele>30.8</ele>
        <time>2021-08-14T09:05:02Z</time>
      </trkpt>
      <trkpt lat="47.81504" lon="-3.64663">
        <ele>31</ele>
        <time>2021-08-14T09:05:03Z</time>
      </trkpt>
      <trkpt lat="47.81502" lon="-3.64659">
        <ele>31</ele>
        <time>2021-08-14T09:05:04Z</time>
      </trkpt>
      <trkpt lat="47.815" lon="-3.64654">
        <ele>31</ele>
        <time>2021-08-14T09:05:05Z</time>
      </trkpt>
      <trkpt lat="47.81498" lon="-3.6465">
        <ele>31.2</ele>
        <time>2021-08-14T09:05:06Z</time>
      </trkpt>
      <trkpt lat="47.81496" lon="-3.64646">
        <ele>31.4</ele>
        <time>2021-08-14T09:05:07Z</time>
      </trkpt>
      <trkpt lat="47.81494" lon="-3.64641">
        <ele>31.6</ele>
        <time>2021-08-14T09:05:08Z</time>
      </trkpt>
      <trkpt lat="47.81492" lon="-3.64637">
        <ele>31.8</ele>
        <time>2021-08-14T09:05:09Z</time>
      </trkpt>
      <trkpt lat="47.8149" lon="-3.64633">
        <ele>32</ele>
        <time>2021-08-14T09:05:10Z</time>
      </trkpt>
      <trkpt lat="47.81488" lon="-3.64628">
        <ele>32</ele>
        <time>2021-08-14T09:05:11Z</time>
      </trkpt>
      <trkpt lat="47.81486" lon="-3.64624">
        <ele>32</ele>
        <time>2021-08-14T09:05:12Z</time>
      </trkpt>
      <trkpt lat="47.81484" lon="-3.6462">
        <ele>32.2</ele>
        <time>2021-08-14T09:05:13Z</time>
      </trkpt>
      <trkpt lat="47.81482" lon="-3.64615">
        <ele>32.2</ele>
        <time>2021-08-14T09:05:14Z</time>
      </trkpt>
      <trkpt lat="47.8148" lon="-3.6461">
        <ele>32.2</ele>
        <time>2021-08-14T09:05:15Z</time>
      </trkpt>
      <trkpt lat="47.81477" lon="-3.64606">
        <ele>32.4</ele>
        <time>2021-08-14T09:05:16Z</time>
      </trkpt>
      <trkpt lat="47.81475" lon="-3.64601">
        <ele>32.4</ele>
        <time>2021-08-14T09:05:17Z</time>
      </trkpt>
      <trkpt lat="47.81473" lon="-3.64597">
        <ele>32.4</ele>
        <time>2021-08-14T09:05:18Z</time>
      </trkpt>
      <trkpt lat="47.81471" lon="-3.64592">
        <ele>32.6</ele>
        <time>2021-08-14T09:05:19Z</time>
      </trkpt>
      <trkpt lat="47.81469" lon="-3.64588">
        <ele>32.6</ele>
        <time>2021-08-14T09:05:20Z</time>
      </trkpt>
      <trkpt lat="47.81467" lon="-3.64583">
        <ele>32.8</ele>
        <time>2021-08-14T09:05:21Z</time>
      </trkpt>
      <trkpt lat="47.81465" lon="-3.64578">
        <ele>32.8</ele>
        <time>2021-08-14T09:05:22Z</time>
      </trkpt>
      <trkpt lat="47.81462" lon="-3.64574">
        <ele>33</ele>
        <time>2021-08-14T09:05:23Z</time>
      </trkpt>
      <trkpt lat="47.81461" lon="-3.64569">
        <ele>33</ele>
        <time>2021-08-14T09:05:24Z</time>
      </trkpt>
      <trkpt lat="47.81458" lon="-3.64565">
        <ele>33.2</ele>
        <time>2021-08-14T09:05:25Z</time>
      </trkpt>
      <trkpt lat="47.81457" lon="-3.6456">
        <ele>33.2</ele>
        <time>2021-08-14T09:05:26Z</time>
      </trkpt>
      <trkpt lat="47.81454" lon="-3.64556">
        <ele>33.4</ele>
        <time>2021-08-14T09:05:27Z</time>
      </trkpt>
      <trkpt lat="47.81452" lon="-3.64552">
        <ele>33.4</ele>
        <time>2021-08-14T09:05:28Z</time>
      </trkpt>
      <trkpt lat="47.8145" lon="-3.64547">
        <ele>33.6</ele>
        <time>2021-08-14T09:05:29Z</time>
      </trkpt>
      <trkpt lat="47.81448" lon="-3.64543">
        <ele>33.6</ele>
        <time>2021-08-14T09:05:30Z</time>
      </trkpt>
      <trkpt lat="47.81446" lon="-3.64538">
        <ele>33.8</ele>
        <time>2021-08-14T09:05:31Z</time>
      </trkpt>
      <trkpt lat="47.81444" lon="-3.64534">
        <ele>34</ele>
        <time>2021-08-14T09:05:32Z</time>
      </trkpt>
      <trkpt lat="47.81442" lon="-3.6453">
        <ele>34</ele>
        <time>2021-08-14T09:05:33Z</time>
      </trkpt>
      <trkpt lat="47.8144" lon="-3.64526">
        <ele>34.2</ele>
        <time>2021-08-14T09:05:34Z</time>
      </trkpt>
      <trkpt lat="47.81439" lon="-3.64522">
        <ele>34.4</ele>
        <time>2021-08-14T09:05:35Z</time>
      </trkpt>
      <trkpt lat="47.81437" lon="-3.64518">
        <ele>34.4</ele>
        <time>2021-08-14T09:05:36Z</time>
      </trkpt>
      <trkpt lat="47.81435" lon="-3.64515">
        <ele>34.6</ele>
        <time>2021-08-14T09:05:37Z</time>
      </trkpt>
      <trkpt lat="47.81433" lon="-3.64511">
        <ele>34.6</ele>
        <time>2021-08-14T09:05:38Z</time>
      </trkpt>
      <trkpt lat="47.81431" lon="-3.64507">
        <ele>34.6</ele>
        <time>2021-08-14T09:05:39Z</time>
      </trkpt>
      <trkpt lat="47.81429" lon="-3.64503">
        <ele>34.8</ele>
        <time>2021-08-14T09:05:40Z</time>
      </trkpt>
      <trkpt lat="47.81427" lon="-3.64498">
        <ele>34.8</ele>
        <time>2021-08-14T09:05:41Z</time>
      </trkpt>
      <trkpt lat="47.81425" lon="-3.64494">
        <ele>34.8</ele>
        <time>2021-08-14T09:05:42Z</time>
      </trkpt>
      <trkpt lat="47.81423" lon="-3.6449">
        <ele>34.8</ele>
        <time>2021-08-14T09:05:43Z</time>
      </trkpt>
      <trkpt lat="47.81421" lon="-3.64485">
        <ele>35</ele>
        <time>2021-08-14T09:05:44Z</time>
      </trkpt>
      <trkpt lat="47.81419" lon="-3.64481">
        <ele>35</ele>
        <time>2021-08-14T09:05:45Z</time>
      </trkpt>
      <trkpt lat="47.81417" lon="-3.64476">
        <ele>35</ele>
        <time>2021-08-14T09:05:46Z</time>
      </trkpt>
      <trkpt lat="47.81415" lon="-3.64472">
        <ele>35.2</ele>
        <time>2021-08-14T09:05:47Z</time>
      </trkpt>
      <trkpt lat="47.81413" lon="-3.64467">
        <ele>35.2</ele>
        <time>2021-08-14T09:05:48Z</time>
      </trkpt>
      <trkpt lat="47.81411" lon="-3.64462">
        <ele>35.2</ele>
        <time>2021-08-14T09:05:49Z</time>
      </trkpt>
      <trkpt lat="47.81409" lon="-3.64458">
        <ele>35.2</ele>
        <time>2021-08-14T09:05:50Z</time>
      </trkpt>
      <trkpt lat="47.81407" lon="-3.64453">
        <ele>35.2</ele>
        <time>2021-08-14T09:05:51Z</time>
      </trkpt>
      <trkpt lat="47.81404" lon="-3.64448">
        <ele>35.4</ele>
        <time>2021-08-14T09:05:52Z</time>
      </trkpt>
      <trkpt lat="47.81402" lon="-3.64443">
        <ele>35.4</ele>
        <time>2021-08-14T09:05:53Z</time>
      </trkpt>
      <trkpt lat="47.814" lon="-3.64438">
        <ele>35.4</ele>
        <time>2021-08-14T09:05:54Z</time>
      </trkpt>
      <trkpt lat="47.81398" lon="-3.64434">
        <ele>35.6</ele>
        <time>2021-08-14T09:05:55Z</time>
      </trkpt>
      <trkpt lat="47.81395" lon="-3.64429">
        <ele>35.6</ele>
        <time>2021-08-14T09:05:56Z</time>
      </trkpt>
      <trkpt lat="47.81393" lon="-3.64424">
        <ele>35.6</ele>
        <time>2021-08-14T09:05:57Z</time>
      </trkpt>
      <trkpt lat="47.81391" lon="-3.6442">
        <ele>35.6</ele>
        <time>2021-08-14T09:05:58Z</time>
      </trkpt>
      <trkpt lat="47.81389" lon="-3.64415">
        <ele>35.8</ele>
        <time>2021-08-14T09:05:59Z</time>
      </trkpt>
      <trkpt lat="47.81387" lon="-3.6441">
        <ele>36</ele>
        <time>2021-08-14T09:06:00Z</time>
      </trkpt>
      <trkpt lat="47.81385" lon="-3.64406">
        <ele>36</ele>
        <time>2021-08-14T09:06:01Z</time>
      </trkpt>
      <trkpt lat="47.81383" lon="-3.64401">
        <ele>36</ele>
        <time>2021-08-14T09:06:02Z</time>
      </trkpt>
      <trkpt lat="47.81381" lon="-3.64397">
        <ele>36.2</ele>
        <time>2021-08-14T09:06:03Z</time>
      </trkpt>
      <trkpt lat="47.81379" lon="-3.64393">
        <ele>36.2</ele>
        <time>2021-08-14T09:06:04Z</time>
      </trkpt>
      <trkpt lat="47.81377" lon="-3.64388">
        <ele>36.4</ele>
        <time>2021-08-14T09:06:05Z</time>
      </trkpt>
      <trkpt lat="47.81375" lon="-3.64384">
        <ele>36.4</ele>
        <time>2021-08-14T09:06:06Z</time>
      </trkpt>
      <trkpt lat="47.81373" lon="-3.64379">
        <ele>36.6</ele>
        <time>2021-08-14T09:06:07Z</time>
      </trkpt>
      <trkpt lat="47.81371" lon="-3.64375">
        <ele>36.8</ele>
        <time>2021-08-14T09:06:08Z</time>
      </trkpt>
      <trkpt lat="47.81369" lon="-3.64371">
        <ele>36.8</ele>
        <time>2021-08-14T09:06:09Z</time>
      </trkpt>
      <trkpt lat="47.81367" lon="-3.64366">
        <ele>36.8</ele>
        <time>2021-08-14T09:06:10Z</time>
      </trkpt>
      <trkpt lat="47.81366" lon="-3.64362">
        <ele>37</ele>
        <time>2021-08-14T09:06:11Z</time>
      </trkpt>
      <trkpt lat="47.81364" lon="-3.64358">
        <ele>37.2</ele>
        <time>2021-08-14T09:06:12Z</time>
      </trkpt>
      <trkpt lat="47.81362" lon="-3.64354">
        <ele>37.2</ele>
        <time>2021-08-14T09:06:13Z</time>
      </trkpt>
      <trkpt lat="47.8136" lon="-3.6435">
        <ele>37.2</ele>
        <time>2021-08-14T09:06:14Z</time>
      </trkpt>
      <trkpt lat="47.81358" lon="-3.64346">
        <ele>37.4</ele>
        <time>2021-08-14T09:06:15Z</time>
      </trkpt>
      <trkpt lat="47.81356" lon="-3.64342">
        <ele>37.4</ele>
        <time>2021-08-14T09:06:16Z</time>
      </trkpt>
      <trkpt lat="47.81354" lon="-3.64337">
        <ele>37.4</ele>
        <time>2021-08-14T09:06:17Z</time>
      </trkpt>
      <trkpt lat="47.81352" lon="-3.64333">
        <ele>37.6</ele>
        <time>2021-08-14T09:06:18Z</time>
      </trkpt>
      <trkpt lat="47.8135" lon="-3.64329">
        <ele>37.6</ele>
        <time>2021-08-14T09:06:19Z</time>
      </trkpt>
      <trkpt lat="47.81348" lon="-3.64324">
        <ele>37.6</ele>
        <time>2021-08-14T09:06:20Z</time>
      </trkpt>
      <trkpt lat="47.81346" lon="-3.6432">
        <ele>37.8</ele>
        <time>2021-08-14T09:06:21Z</time>
      </trkpt>
      <trkpt lat="47.81344" lon="-3.64316">
        <ele>38</ele>
        <time>2021-08-14T09:06:22Z</time>
      </trkpt>
      <trkpt lat="47.81342" lon="-3.64312">
        <ele>38</ele>
        <time>2021-08-14T09:06:23Z</time>
      </trkpt>
      <trkpt lat="47.8134" lon="-3.64308">
        <ele>38</ele>
        <time>2021-08-14T09:06:24Z</time>
      </trkpt>
      <trkpt lat="47.81339" lon="-3.64304">
        <ele>38.2</ele>
        <time>2021-08-14T09:06:25Z</time>
      </trkpt>
      <trkpt lat="47.81337" lon="-3.643">
        <ele>38.2</ele>
        <time>2021-08-14T09:06:26Z</time>
      </trkpt>
      <trkpt lat="47.81335" lon="-3.64296">
        <ele>38.2</ele>
        <time>2021-08-14T09:06:27Z</time>
      </trkpt>
      <trkpt lat="47.81333" lon="-3.64291">
        <ele>38.4</ele>
        <time>2021-08-14T09:06:28Z</time>
      </trkpt>
      <trkpt lat="47.81331" lon="-3.64287">
        <ele>38.4</ele>
        <time>2021-08-14T09:06:29Z</time>
      </trkpt>
      <trkpt lat="47.81329" lon="-3.64283">
        <ele>38.6</ele>
        <time>2021-08-14T09:06:30Z</time>
      </trkpt>
      <trkpt lat="47.81327" lon="-3.64279">
        <ele>38.6</ele>
        <time>2021-08-14T09:06:31Z</time>
      </trkpt>
      <trkpt lat="47.81325" lon="-3.64275">
        <ele>38.8</ele>
        <time>2021-08-14T09:06:32Z</time>
      </trkpt>
      <trkpt lat="47.81323" lon="-3.64271">
        <ele>38.8</ele>
        <time>2021-08-14T09:06:33Z</time>
      </trkpt>
      <trkpt lat="47.81322" lon="-3.64267">
        <ele>39</ele>
        <time>2021-08-14T09:06:34Z</time>
      </trkpt>
      <trkpt lat="47.8132" lon="-3.64263">
        <ele>39.2</ele>
        <time>2021-08-14T09:06:35Z</time>
      </trkpt>
      <trkpt lat="47.81318" lon="-3.64259">
        <ele>39.4</ele>
        <time>2021-08-14T09:06:36Z</time>
      </trkpt>
      <trkpt lat="47.81316" lon="-3.64255">
        <ele>39.4</ele>
        <time>2021-08-14T09:06:37Z</time>
      </trkpt>
      <trkpt lat="47.81314" lon="-3.64251">
        <ele>39.6</ele>
        <time>2021-08-14T09:06:38Z</time>
      </trkpt>
      <trkpt lat="47.81312" lon="-3.64247">
        <ele>39.6</ele>
        <time>2021-08-14T09:06:39Z</time>
      </trkpt>
      <trkpt lat="47.8131" lon="-3.64243">
        <ele>39.6</ele>
        <time>2021-08-14T09:06:40Z</time>
      </trkpt>
      <trkpt lat="47.81309" lon="-3.64239">
        <ele>39.8</ele>
        <time>2021-08-14T09:06:41Z</time>
      </trkpt>
      <trkpt lat="47.81307" lon="-3.64235">
        <ele>39.8</ele>
        <time>2021-08-14T09:06:42Z</time>
      </trkpt>
      <trkpt lat="47.81306" lon="-3.64231">
        <ele>39.8</ele>
        <time>2021-08-14T09:06:43Z</time>
      </trkpt>
      <trkpt lat="47.81305" lon="-3.64228">
        <ele>40</ele>
        <time>2021-08-14T09:06:44Z</time>
      </trkpt>
      <trkpt lat="47.81303" lon="-3.64224">
        <ele>40.2</ele>
        <time>2021-08-14T09:06:45Z</time>
      </trkpt>
      <trkpt lat="47.81302" lon="-3.6422">
        <ele>40.4</ele>
        <time>2021-08-14T09:06:46Z</time>
      </trkpt>
      <trkpt lat="47.813" lon="-3.64216">
        <ele>40.4</ele>
        <time>2021-08-14T09:06:47Z</time>
      </trkpt>
      <trkpt lat="47.81298" lon="-3.64212">
        <ele>40.6</ele>
        <time>2021-08-14T09:06:48Z</time>
      </trkpt>
      <trkpt lat="47.81297" lon="-3.64207">
        <ele>40.6</ele>
        <time>2021-08-14T09:06:49Z</time>
      </trkpt>
      <trkpt lat="47.81296" lon="-3.64203">
        <ele>40.8</ele>
        <time>2021-08-14T09:06:50Z</time>
      </trkpt>
      <trkpt lat="47.81294" lon="-3.64199">
        <ele>40.8</ele>
        <time>2021-08-14T09:06:51Z</time>
      </trkpt>
      <trkpt lat="47.81293" lon="-3.64194">
        <ele>40.8</ele>
        <time>2021-08-14T09:06:52Z</time>
      </trkpt>
      <trkpt lat="47.81291" lon="-3.64189">
        <ele>41</ele>
        <time>2021-08-14T09:06:53Z</time>
      </trkpt>
      <trkpt lat="47.8129" lon="-3.64185">
        <ele>41.2</ele>
        <time>2021-08-14T09:06:54Z</time>
      </trkpt>
      <trkpt lat="47.81288" lon="-3.6418">
        <ele>41.2</ele>
        <time>2021-08-14T09:06:55Z</time>
      </trkpt>
      <trkpt lat="47.81287" lon="-3.64175">
        <ele>41.4</ele>
        <time>2021-08-14T09:06:56Z</time>
      </trkpt>
      <trkpt lat="47.81286" lon="-3.64171">
        <ele>41.4</ele>
        <time>2021-08-14T09:06:57Z</time>
      </trkpt>
      <trkpt lat="47.81284" lon="-3.64166">
        <ele>41.6</ele>
        <time>2021-08-14T09:06:58Z</time>
      </trkpt>
      <trkpt lat="47.81283" lon="-3.64161">
        <ele>41.6</ele>
        <time>2021-08-14T09:06:59Z</time>
      </trkpt>
      <trkpt lat="47.81282" lon="-3.64156">
        <ele>41.8</ele>
        <time>2021-08-14T09:07:00Z</time>
      </trkpt>
      <trkpt lat="47.81281" lon="-3.64151">
        <ele>41.8</ele>
        <time>2021-08-14T09:07:01Z</time>
      </trkpt>
      <trkpt lat="47.8128" lon="-3.64147">
        <ele>41.8</ele>
        <time>2021-08-14T09:07:02Z</time>
      </trkpt>
      <trkpt lat="47.81279" lon="-3.64142">
        <ele>42</ele>
        <time>2021-08-14T09:07:03Z</time>
      </trkpt>
      <trkpt lat="47.81278" lon="-3.64137">
        <ele>42</ele>
        <time>2021-08-14T09:07:04Z</time>
      </trkpt>
      <trkpt lat="47.81277" lon="-3.64132">
        <ele>42</ele>
        <time>2021-08-14T09:07:05Z</time>
      </trkpt>
      <trkpt lat="47.81276" lon="-3.64127">
        <ele>42</ele>
        <time>2021-08-14T09:07:06Z</time>
      </trkpt>
      <trkpt lat="47.81275" lon="-3.64122">
        <ele>42.2</ele>
        <time>2021-08-14T09:07:07Z</time>
      </trkpt>
      <trkpt lat="47.81274" lon="-3.64117">
        <ele>42.2</ele>
        <time>2021-08-14T09:07:08Z</time>
      </trkpt>
      <trkpt lat="47.81273" lon="-3.64112">
        <ele>42.2</ele>
        <time>2021-08-14T09:07:09Z</time>
      </trkpt>
      <trkpt lat="47.81272" lon="-3.64107">
        <ele>42.2</ele>
        <time>2021-08-14T09:07:10Z</time>
      </trkpt>
      <trkpt lat="47.81271" lon="-3.64102">
        <ele>42.2</ele>
        <time>2021-08-14T09:07:11Z</time>
      </trkpt>
      <trkpt lat="47.8127" lon="-3.64098">
        <ele>42.4</ele>
        <time>2021-08-14T09:07:12Z</time>
      </trkpt>
      <trkpt lat="47.81269" lon="-3.64093">
        <ele>42.4</ele>
        <time>2021-08-14T09:07:13Z</time>
      </trkpt>
      <trkpt lat="47.81269" lon="-3.64088">
        <ele>42.4</ele>
        <time>2021-08-14T09:07:14Z</time>
      </trkpt>
      <trkpt lat="47.81268" lon="-3.64083">
        <ele>42.4</ele>
        <time>2021-08-14T09:07:15Z</time>
      </trkpt>
      <trkpt lat="47.81267" lon="-3.64078">
        <ele>42.4</ele>
        <time>2021-08-14T09:07:16Z</time>
      </trkpt>
      <trkpt lat="47.81266" lon="-3.64074">
        <ele>42.6</ele>
        <time>2021-08-14T09:07:17Z</time>
      </trkpt>
      <trkpt lat="47.81266" lon="-3.64069">
        <ele>42.6</ele>
        <time>2021-08-14T09:07:18Z</time>
      </trkpt>
      <trkpt lat="47.81266" lon="-3.64065">
        <ele>42.6</ele>
        <time>2021-08-14T09:07:19Z</time>
      </trkpt>
      <trkpt lat="47.81265" lon="-3.64061">
        <ele>42.6</ele>
        <time>2021-08-14T09:07:20Z</time>
      </trkpt>
      <trkpt lat="47.81265" lon="-3.64057">
        <ele>42.6</ele>
        <time>2021-08-14T09:07:21Z</time>
      </trkpt>
      <trkpt lat="47.81265" lon="-3.64053">
        <ele>42.8</ele>
        <time>2021-08-14T09:07:22Z</time>
      </trkpt>
      <trkpt lat="47.81264" lon="-3.64048">
        <ele>42.8</ele>
        <time>2021-08-14T09:07:23Z</time>
      </trkpt>
      <trkpt lat="47.81264" lon="-3.64044">
        <ele>42.8</ele>
        <time>2021-08-14T09:07:24Z</time>
      </trkpt>
      <trkpt lat="47.81264" lon="-3.6404">
        <ele>42.8</ele>
        <time>2021-08-14T09:07:25Z</time>
      </trkpt>
      <trkpt lat="47.81263" lon="-3.64035">
        <ele>43</ele>
        <time>2021-08-14T09:07:26Z</time>
      </trkpt>
      <trkpt lat="47.81263" lon="-3.64031">
        <ele>43</ele>
        <time>2021-08-14T09:07:27Z</time>
      </trkpt>
      <trkpt lat="47.81263" lon="-3.64027">
        <ele>43</ele>
        <time>2021-08-14T09:07:28Z</time>
      </trkpt>
      <trkpt lat="47.81263" lon="-3.64023">
        <ele>43</ele>
        <time>2021-08-14T09:07:29Z</time>
      </trkpt>
      <trkpt lat="47.81263" lon="-3.64019">
        <ele>43.2</ele>
        <time>2021-08-14T09:07:30Z</time>
      </trkpt>
      <trkpt lat="47.81263" lon="-3.64014">
        <ele>43.2</ele>
        <time>2021-08-14T09:07:31Z</time>
      </trkpt>
      <trkpt lat="47.81262" lon="-3.6401">
        <ele>43.2</ele>
        <time>2021-08-14T09:07:32Z</time>
      </trkpt>
      <trkpt lat="47.81263" lon="-3.64006">
        <ele>43.4</ele>
        <time>2021-08-14T09:07:33Z</time>
      </trkpt>
      <trkpt lat="47.81262" lon="-3.64001">
        <ele>43.4</ele>
        <time>2021-08-14T09:07:34Z</time>
      </trkpt>
      <trkpt lat="47.81263" lon="-3.63997">
        <ele>43.6</ele>
        <time>2021-08-14T09:07:35Z</time>
      </trkpt>
      <trkpt lat="47.81263" lon="-3.63992">
        <ele>43.6</ele>
        <time>2021-08-14T09:07:36Z</time>
      </trkpt>
      <trkpt lat="47.81263" lon="-3.63988">
        <ele>43.8</ele>
        <time>2021-08-14T09:07:37Z</time>
      </trkpt>
      <trkpt lat="47.81263" lon="-3.63983">
        <ele>43.8</ele>
        <time>2021-08-14T09:07:38Z</time>
      </trkpt>
      <trkpt lat="47.81263" lon="-3.63978">
        <ele>44</ele>
        <time>2021-08-14T09:07:39Z</time>
      </trkpt>
      <trkpt lat="47.81264" lon="-3.63974">
        <ele>44</ele>
        <time>2021-08-14T09:07:40Z</time>
      </trkpt>
      <trkpt lat="47.81264" lon="-3.63969">
        <ele>44.2</ele>
        <time>2021-08-14T09:07:41Z</time>
      </trkpt>
      <trkpt lat="47.81264" lon="-3.63964">
        <ele>44.4</ele>
        <time>2021-08-14T09:07:42Z</time>
      </trkpt>
      <trkpt lat="47.81264" lon="-3.63959">
        <ele>44.4</ele>
        <time>2021-08-14T09:07:43Z</time>
      </trkpt>
      <trkpt lat="47.81265" lon="-3.63955">
        <ele>44.6</ele>
        <time>2021-08-14T09:07:44Z</time>
      </trkpt>
      <trkpt lat="47.81265" lon="-3.6395">
        <ele>44.6</ele>
        <time>2021-08-14T09:07:45Z</time>
      </trkpt>
      <trkpt lat="47.81265" lon="-3.63945">
        <ele>44.8</ele>
        <time>2021-08-14T09:07:46Z</time>
      </trkpt>
      <trkpt lat="47.81265" lon="-3.63941">
        <ele>45</ele>
        <time>2021-08-14T09:07:47Z</time>
      </trkpt>
      <trkpt lat="47.81266" lon="-3.63936">
        <ele>45</ele>
        <time>2021-08-14T09:07:48Z</time>
      </trkpt>
      <trkpt lat="47.81265" lon="-3.63932">
        <ele>45.2</ele>
        <time>2021-08-14T09:07:49Z</time>
      </trkpt>
      <trkpt lat="47.81264" lon="-3.63928">
        <ele>45.2</ele>
        <time>2021-08-14T09:07:50Z</time>
      </trkpt>
      <trkpt lat="47.81262" lon="-3.63925">
        <ele>45.2</ele>
        <time>2021-08-14T09:07:51Z</time>
      </trkpt>
      <trkpt lat="47.8126" lon="-3.63922">
        <ele>45.4</ele>
        <time>2021-08-14T09:07:52Z</time>
      </trkpt>
      <trkpt lat="47.81258" lon="-3.63921">
        <ele>45.4</ele>
        <time>2021-08-14T09:07:53Z</time>
      </trkpt>
      <trkpt lat="47.81255" lon="-3.63919">
        <ele>45.6</ele>
        <time>2021-08-14T09:07:54Z</time>
      </trkpt>
      <trkpt lat="47.81252" lon="-3.63918">
        <ele>45.6</ele>
        <time>2021-08-14T09:07:55Z</time>
      </trkpt>
      <trkpt lat="47.81249" lon="-3.63917">
        <ele>45.6</ele>
        <time>2021-08-14T09:07:56Z</time>
      </trkpt>
      <trkpt lat="47.81246" lon="-3.63915">
        <ele>45.8</ele>
        <time>2021-08-14T09:07:57Z</time>
      </trkpt>
      <trkpt lat="47.81243" lon="-3.63913">
        <ele>46</ele>
        <time>2021-08-14T09:07:58Z</time>
      </trkpt>
      <trkpt lat="47.8124" lon="-3.63911">
        <ele>46</ele>
        <time>2021-08-14T09:07:59Z</time>
      </trkpt>
      <trkpt lat="47.81237" lon="-3.63909">
        <ele>46.2</ele>
        <time>2021-08-14T09:08:00Z</time>
      </trkpt>
      <trkpt lat="47.81233" lon="-3.63907">
        <ele>46.6</ele>
        <time>2021-08-14T09:08:01Z</time>
      </trkpt>
      <trkpt lat="47.8123" lon="-3.63906">
        <ele>46.6</ele>
        <time>2021-08-14T09:08:02Z</time>
      </trkpt>
      <trkpt lat="47.81227" lon="-3.63903">
        <ele>46.8</ele>
        <time>2021-08-14T09:08:03Z</time>
      </trkpt>
      <trkpt lat="47.81223" lon="-3.63901">
        <ele>46.8</ele>
        <time>2021-08-14T09:08:04Z</time>
      </trkpt>
      <trkpt lat="47.8122" lon="-3.63898">
        <ele>47</ele>
        <time>2021-08-14T09:08:05Z</time>
      </trkpt>
      <trkpt lat="47.81217" lon="-3.63896">
        <ele>47</ele>
        <time>2021-08-14T09:08:06Z</time>
      </trkpt>
      <trkpt lat="47.81213" lon="-3.63894">
        <ele>47</ele>
        <time>2021-08-14T09:08:07Z</time>
      </trkpt>
      <trkpt lat="47.8121" lon="-3.63892">
        <ele>47</ele>
        <time>2021-08-14T09:08:08Z</time>
      </trkpt>
      <trkpt lat="47.81206" lon="-3.6389">
        <ele>47.2</ele>
        <time>2021-08-14T09:08:09Z</time>
      </trkpt>
      <trkpt lat="47.81202" lon="-3.63888">
        <ele>47.2</ele>
        <time>2021-08-14T09:08:10Z</time>
      </trkpt>
      <trkpt lat="47.81198" lon="-3.63885">
        <ele>47.2</ele>
        <time>2021-08-14T09:08:11Z</time>
      </trkpt>
      <trkpt lat="47.81195" lon="-3.63883">
        <ele>47.2</ele>
        <time>2021-08-14T09:08:12Z</time>
      </trkpt>
      <trkpt lat="47.81191" lon="-3.63881">
        <ele>47.2</ele>
        <time>2021-08-14T09:08:13Z</time>
      </trkpt>
      <trkpt lat="47.81187" lon="-3.63879">
        <ele>47.2</ele>
        <time>2021-08-14T09:08:14Z</time>
      </trkpt>
      <trkpt lat="47.81183" lon="-3.63878">
        <ele>47.2</ele>
        <time>2021-08-14T09:08:15Z</time>
      </trkpt>
      <trkpt lat="47.81179" lon="-3.63876">
        <ele>47.2</ele>
        <time>2021-08-14T09:08:16Z</time>
      </trkpt>
      <trkpt lat="47.81175" lon="-3.63874">
        <ele>47.2</ele>
        <time>2021-08-14T09:08:17Z</time>
      </trkpt>
      <trkpt lat="47.8117" lon="-3.63872">
        <ele>47.2</ele>
        <time>2021-08-14T09:08:18Z</time>
      </trkpt>
      <trkpt lat="47.81166" lon="-3.63871">
        <ele>47.2</ele>
        <time>2021-08-14T09:08:19Z</time>
      </trkpt>
      <trkpt lat="47.81161" lon="-3.63869">
        <ele>47.2</ele>
        <time>2021-08-14T09:08:20Z</time>
      </trkpt>
      <trkpt lat="47.81157" lon="-3.63868">
        <ele>47.2</ele>
        <time>2021-08-14T09:08:21Z</time>
      </trkpt>
      <trkpt lat="47.81152" lon="-3.63867">
        <ele>47.2</ele>
        <time>2021-08-14T09:08:22Z</time>
      </trkpt>
      <trkpt lat="47.81148" lon="-3.63866">
        <ele>47.2</ele>
        <time>2021-08-14T09:08:23Z</time>
      </trkpt>
      <trkpt lat="47.81143" lon="-3.63865">
        <ele>47.2</ele>
        <time>2021-08-14T09:08:24Z</time>
      </trkpt>
      <trkpt lat="47.81139" lon="-3.63864">
        <ele>47</ele>
        <time>2021-08-14T09:08:25Z</time>
      </trkpt>
      <trkpt lat="47.81134" lon="-3.63863">
        <ele>47</ele>
        <time>2021-08-14T09:08:26Z</time>
      </trkpt>
      <trkpt lat="47.81129" lon="-3.63862">
        <ele>47</ele>
        <time>2021-08-14T09:08:27Z</time>
      </trkpt>
      <trkpt lat="47.81125" lon="-3.63861">
        <ele>46.8</ele>
        <time>2021-08-14T09:08:28Z</time>
      </trkpt>
      <trkpt lat="47.8112" lon="-3.63859">
        <ele>46.8</ele>
        <time>2021-08-14T09:08:29Z</time>
      </trkpt>
      <trkpt lat="47.81115" lon="-3.63858">
        <ele>46.8</ele>
        <time>2021-08-14T09:08:30Z</time>
      </trkpt>
      <trkpt lat="47.81111" lon="-3.63857">
        <ele>46.8</ele>
        <time>2021-08-14T09:08:31Z</time>
      </trkpt>
      <trkpt lat="47.81106" lon="-3.63856">
        <ele>46.8</ele>
        <time>2021-08-14T09:08:32Z</time>
      </trkpt>
      <trkpt lat="47.81102" lon="-3.63856">
        <ele>46.8</ele>
        <time>2021-08-14T09:08:33Z</time>
      </trkpt>
      <trkpt lat="47.81097" lon="-3.63855">
        <ele>46.6</ele>
        <time>2021-08-14T09:08:34Z</time>
      </trkpt>
      <trkpt lat="47.81092" lon="-3.63855">
        <ele>46.6</ele>
        <time>2021-08-14T09:08:35Z</time>
      </trkpt>
      <trkpt lat="47.81088" lon="-3.63854">
        <ele>46.6</ele>
        <time>2021-08-14T09:08:36Z</time>
      </trkpt>
      <trkpt lat="47.81083" lon="-3.63853">
        <ele>46.6</ele>
        <time>2021-08-14T09:08:37Z</time>
      </trkpt>
      <trkpt lat="47.81079" lon="-3.63852">
        <ele>46.6</ele>
        <time>2021-08-14T09:08:38Z</time>
      </trkpt>
      <trkpt lat="47.81074" lon="-3.6385">
        <ele>46.6</ele>
        <time>2021-08-14T09:08:39Z</time>
      </trkpt>
      <trkpt lat="47.81069" lon="-3.63849">
        <ele>46.6</ele>
        <time>2021-08-14T09:08:40Z</time>
      </trkpt>
      <trkpt lat="47.81065" lon="-3.63848">
        <ele>46.4</ele>
        <time>2021-08-14T09:08:41Z</time>
      </trkpt>
      <trkpt lat="47.8106" lon="-3.63847">
        <ele>46.2</ele>
        <time>2021-08-14T09:08:42Z</time>
      </trkpt>
      <trkpt lat="47.81055" lon="-3.63846">
        <ele>46.2</ele>
        <time>2021-08-14T09:08:43Z</time>
      </trkpt>
      <trkpt lat="47.8105" lon="-3.63845">
        <ele>46</ele>
        <time>2021-08-14T09:08:44Z</time>
      </trkpt>
      <trkpt lat="47.81045" lon="-3.63844">
        <ele>46</ele>
        <time>2021-08-14T09:08:45Z</time>
      </trkpt>
      <trkpt lat="47.8104" lon="-3.63843">
        <ele>46</ele>
        <time>2021-08-14T09:08:46Z</time>
      </trkpt>
      <trkpt lat="47.81035" lon="-3.63842">
        <ele>46</ele>
        <time>2021-08-14T09:08:47Z</time>
      </trkpt>
      <trkpt lat="47.8103" lon="-3.63841">
        <ele>45.8</ele>
        <time>2021-08-14T09:08:48Z</time>
      </trkpt>
      <trkpt lat="47.81025" lon="-3.6384">
        <ele>45.8</ele>
        <time>2021-08-14T09:08:49Z</time>
      </trkpt>
      <trkpt lat="47.8102" lon="-3.63839">
        <ele>45.8</ele>
        <time>2021-08-14T09:08:50Z</time>
      </trkpt>
      <trkpt lat="47.81015" lon="-3.63837">
        <ele>45.6</ele>
        <time>2021-08-14T09:08:51Z</time>
      </trkpt>
      <trkpt lat="47.8101" lon="-3.63836">
        <ele>45.6</ele>
        <time>2021-08-14T09:08:52Z</time>
      </trkpt>
      <trkpt lat="47.81004" lon="-3.63835">
        <ele>45.6</ele>
        <time>2021-08-14T09:08:53Z</time>
      </trkpt>
      <trkpt lat="47.80999" lon="-3.63834">
        <ele>45.6</ele>
        <time>2021-08-14T09:08:54Z</time>
      </trkpt>
      <trkpt lat="47.80993" lon="-3.63833">
        <ele>45.4</ele>
        <time>2021-08-14T09:08:55Z</time>
      </trkpt>
      <trkpt lat="47.80987" lon="-3.63832">
        <ele>45.4</ele>
        <time>2021-08-14T09:08:56Z</time>
      </trkpt>
      <trkpt lat="47.80981" lon="-3.6383">
        <ele>45.2</ele>
        <time>2021-08-14T09:08:57Z</time>
      </trkpt>
      <trkpt lat="47.80975" lon="-3.63829">
        <ele>45</ele>
        <time>2021-08-14T09:08:58Z</time>
      </trkpt>
      <trkpt lat="47.80969" lon="-3.63827">
        <ele>44.8</ele>
        <time>2021-08-14T09:08:59Z</time>
      </trkpt>
      <trkpt lat="47.80962" lon="-3.63826">
        <ele>44.6</ele>
        <time>2021-08-14T09:09:00Z</time>
      </trkpt>
      <trkpt lat="47.80956" lon="-3.63825">
        <ele>44.6</ele>
        <time>2021-08-14T09:09:01Z</time>
      </trkpt>
      <trkpt lat="47.80949" lon="-3.63823">
        <ele>44.4</ele>
        <time>2021-08-14T09:09:02Z</time>
      </trkpt>
      <trkpt lat="47.80943" lon="-3.63821">
        <ele>44.2</ele>
        <time>2021-08-14T09:09:03Z</time>
      </trkpt>
      <trkpt lat="47.80936" lon="-3.6382">
        <ele>44.2</ele>
        <time>2021-08-14T09:09:04Z</time>
      </trkpt>
      <trkpt lat="47.8093" lon="-3.63819">
        <ele>43.8</ele>
        <time>2021-08-14T09:09:05Z</time>
      </trkpt>
      <trkpt lat="47.80924" lon="-3.63817">
        <ele>43.4</ele>
        <time>2021-08-14T09:09:06Z</time>
      </trkpt>
      <trkpt lat="47.80919" lon="-3.63815">
        <ele>43.2</ele>
        <time>2021-08-14T09:09:07Z</time>
      </trkpt>
      <trkpt lat="47.80914" lon="-3.63813">
        <ele>43</ele>
        <time>2021-08-14T09:09:08Z</time>
      </trkpt>
      <trkpt lat="47.80909" lon="-3.6381">
        <ele>42.4</ele>
        <time>2021-08-14T09:09:09Z</time>
      </trkpt>
      <trkpt lat="47.80905" lon="-3.63808">
        <ele>42</ele>
        <time>2021-08-14T09:09:10Z</time>
      </trkpt>
      <trkpt lat="47.809" lon="-3.63806">
        <ele>41.8</ele>
        <time>2021-08-14T09:09:11Z</time>
      </trkpt>
      <trkpt lat="47.80896" lon="-3.63804">
        <ele>41.6</ele>
        <time>2021-08-14T09:09:12Z</time>
      </trkpt>
      <trkpt lat="47.80893" lon="-3.63802">
        <ele>41.6</ele>
        <time>2021-08-14T09:09:13Z</time>
      </trkpt>
      <trkpt lat="47.8089" lon="-3.638">
        <ele>41.2</ele>
        <time>2021-08-14T09:09:14Z</time>
      </trkpt>
      <trkpt lat="47.80887" lon="-3.63798">
        <ele>41.2</ele>
        <time>2021-08-14T09:09:15Z</time>
      </trkpt>
      <trkpt lat="47.80883" lon="-3.63797">
        <ele>41</ele>
        <time>2021-08-14T09:09:16Z</time>
      </trkpt>
      <trkpt lat="47.8088" lon="-3.63798">
        <ele>40.8</ele>
        <time>2021-08-14T09:09:17Z</time>
      </trkpt>
      <trkpt lat="47.80877" lon="-3.63801">
        <ele>40.4</ele>
        <time>2021-08-14T09:09:18Z</time>
      </trkpt>
      <trkpt lat="47.80874" lon="-3.63804">
        <ele>40.2</ele>
        <time>2021-08-14T09:09:19Z</time>
      </trkpt>
      <trkpt lat="47.80872" lon="-3.63809">
        <ele>39.8</ele>
        <time>2021-08-14T09:09:20Z</time>
      </trkpt>
      <trkpt lat="47.8087" lon="-3.63813">
        <ele>39.6</ele>
        <time>2021-08-14T09:09:21Z</time>
      </trkpt>
      <trkpt lat="47.80868" lon="-3.63817">
        <ele>39.2</ele>
        <time>2021-08-14T09:09:22Z</time>
      </trkpt>
      <trkpt lat="47.80865" lon="-3.63819">
        <ele>39</ele>
        <time>2021-08-14T09:09:23Z</time>
      </trkpt>
      <trkpt lat="47.80861" lon="-3.6382">
        <ele>38.8</ele>
        <time>2021-08-14T09:09:24Z</time>
      </trkpt>
      <trkpt lat="47.80858" lon="-3.63818">
        <ele>38.8</ele>
        <time>2021-08-14T09:09:25Z</time>
      </trkpt>
      <trkpt lat="47.80855" lon="-3.63813">
        <ele>38.6</ele>
        <time>2021-08-14T09:09:26Z</time>
      </trkpt>
      <trkpt lat="47.80854" lon="-3.63806">
        <ele>38.4</ele>
        <time>2021-08-14T09:09:27Z</time>
      </trkpt>
      <trkpt lat="47.80853" lon="-3.63799">
        <ele>38.4</ele>
        <time>2021-08-14T09:09:28Z</time>
      </trkpt>
      <trkpt lat="47.80852" lon="-3.63791">
        <ele>38.2</ele>
        <time>2021-08-14T09:09:29Z</time>
      </trkpt>
      <trkpt lat="47.8085" lon="-3.63783">
        <ele>38.2</ele>
        <time>2021-08-14T09:09:30Z</time>
      </trkpt>
      <trkpt lat="47.80847" lon="-3.63775">
        <ele>38.2</ele>
        <time>2021-08-14T09:09:31Z</time>
      </trkpt>
      <trkpt lat="47.80844" lon="-3.63767">
        <ele>38.2</ele>
        <time>2021-08-14T09:09:32Z</time>
      </trkpt>
      <trkpt lat="47.80842" lon="-3.6376">
        <ele>38</ele>
        <time>2021-08-14T09:09:33Z</time>
      </trkpt>
      <trkpt lat="47.80839" lon="-3.63752">
        <ele>38</ele>
        <time>2021-08-14T09:09:34Z</time>
      </trkpt>
      <trkpt lat="47.80837" lon="-3.63745">
        <ele>38</ele>
        <time>2021-08-14T09:09:35Z</time>
      </trkpt>
      <trkpt lat="47.80835" lon="-3.63739">
        <ele>38</ele>
        <time>2021-08-14T09:09:36Z</time>
      </trkpt>
      <trkpt lat="47.80833" lon="-3.63733">
        <ele>38</ele>
        <time>2021-08-14T09:09:37Z</time>
      </trkpt>
      <trkpt lat="47.80831" lon="-3.63727">
        <ele>38</ele>
        <time>2021-08-14T09:09:38Z</time>
      </trkpt>
      <trkpt lat="47.80829" lon="-3.63722">
        <ele>38</ele>
        <time>2021-08-14T09:09:39Z</time>
      </trkpt>
      <trkpt lat="47.80828" lon="-3.63718">
        <ele>38</ele>
        <time>2021-08-14T09:09:40Z</time>
      </trkpt>
      <trkpt lat="47.80827" lon="-3.63714">
        <ele>38</ele>
        <time>2021-08-14T09:09:41Z</time>
      </trkpt>
      <trkpt lat="47.80825" lon="-3.6371">
        <ele>38</ele>
        <time>2021-08-14T09:09:42Z</time>
      </trkpt>
      <trkpt lat="47.80824" lon="-3.63707">
        <ele>38</ele>
        <time>2021-08-14T09:09:43Z</time>
      </trkpt>
      <trkpt lat="47.80823" lon="-3.63703">
        <ele>38</ele>
        <time>2021-08-14T09:09:44Z</time>
      </trkpt>
      <trkpt lat="47.80822" lon="-3.637">
        <ele>38</ele>
        <time>2021-08-14T09:09:45Z</time>
      </trkpt>
      <trkpt lat="47.80821" lon="-3.63697">
        <ele>38.2</ele>
        <time>2021-08-14T09:09:46Z</time>
      </trkpt>
      <trkpt lat="47.8082" lon="-3.63694">
        <ele>38.4</ele>
        <time>2021-08-14T09:09:47Z</time>
      </trkpt>
      <trkpt lat="47.80819" lon="-3.6369">
        <ele>38.8</ele>
        <time>2021-08-14T09:09:48Z</time>
      </trkpt>
      <trkpt lat="47.80818" lon="-3.63687">
        <ele>39</ele>
        <time>2021-08-14T09:09:49Z</time>
      </trkpt>
      <trkpt lat="47.80818" lon="-3.63684">
        <ele>39.4</ele>
        <time>2021-08-14T09:09:50Z</time>
      </trkpt>
      <trkpt lat="47.80817" lon="-3.6368">
        <ele>39.4</ele>
        <time>2021-08-14T09:09:51Z</time>
      </trkpt>
      <trkpt lat="47.80816" lon="-3.63677">
        <ele>39.6</ele>
        <time>2021-08-14T09:09:52Z</time>
      </trkpt>
      <trkpt lat="47.80815" lon="-3.63674">
        <ele>39.8</ele>
        <time>2021-08-14T09:09:53Z</time>
      </trkpt>
      <trkpt lat="47.80814" lon="-3.63671">
        <ele>40</ele>
        <time>2021-08-14T09:09:54Z</time>
      </trkpt>
      <trkpt lat="47.80813" lon="-3.63667">
        <ele>40.2</ele>
        <time>2021-08-14T09:09:55Z</time>
      </trkpt>
      <trkpt lat="47.80812" lon="-3.63664">
        <ele>40.6</ele>
        <time>2021-08-14T09:09:56Z</time>
      </trkpt>
      <trkpt lat="47.80811" lon="-3.63661">
        <ele>40.8</ele>
        <time>2021-08-14T09:09:57Z</time>
      </trkpt>
      <trkpt lat="47.8081" lon="-3.63657">
        <ele>40.8</ele>
        <time>2021-08-14T09:09:58Z</time>
      </trkpt>
      <trkpt lat="47.80809" lon="-3.63654">
        <ele>41</ele>
        <time>2021-08-14T09:09:59Z</time>
      </trkpt>
      <trkpt lat="47.80808" lon="-3.6365">
        <ele>41.2</ele>
        <time>2021-08-14T09:10:00Z</time>
      </trkpt>
      <trkpt lat="47.80807" lon="-3.63647">
        <ele>41.4</ele>
        <time>2021-08-14T09:10:01Z</time>
      </trkpt>
      <trkpt lat="47.80806" lon="-3.63644">
        <ele>41.6</ele>
        <time>2021-08-14T09:10:02Z</time>
      </trkpt>
      <trkpt lat="47.80805" lon="-3.6364">
        <ele>41.8</ele>
        <time>2021-08-14T09:10:03Z</time>
      </trkpt>
      <trkpt lat="47.80805" lon="-3.63637">
        <ele>41.8</ele>
        <time>2021-08-14T09:10:04Z</time>
      </trkpt>
      <trkpt lat="47.80804" lon="-3.63633">
        <ele>42</ele>
        <time>2021-08-14T09:10:05Z</time>
      </trkpt>
      <trkpt lat="47.80803" lon="-3.6363">
        <ele>42.2</ele>
        <time>2021-08-14T09:10:06Z</time>
      </trkpt>
      <trkpt lat="47.80802" lon="-3.63626">
        <ele>42.4</ele>
        <time>2021-08-14T09:10:07Z</time>
      </trkpt>
      <trkpt lat="47.80801" lon="-3.63623">
        <ele>42.8</ele>
        <time>2021-08-14T09:10:08Z</time>
      </trkpt>
      <trkpt lat="47.808" lon="-3.63619">
        <ele>43</ele>
        <time>2021-08-14T09:10:09Z</time>
      </trkpt>
      <trkpt lat="47.80799" lon="-3.63616">
        <ele>43.2</ele>
        <time>2021-08-14T09:10:10Z</time>
      </trkpt>
      <trkpt lat="47.80798" lon="-3.63612">
        <ele>43.4</ele>
        <time>2021-08-14T09:10:11Z</time>
      </trkpt>
      <trkpt lat="47.80797" lon="-3.63609">
        <ele>43.6</ele>
        <time>2021-08-14T09:10:12Z</time>
      </trkpt>
      <trkpt lat="47.80796" lon="-3.63605">
        <ele>43.8</ele>
        <time>2021-08-14T09:10:13Z</time>
      </trkpt>
      <trkpt lat="47.80795" lon="-3.63602">
        <ele>44</ele>
        <time>2021-08-14T09:10:14Z</time>
      </trkpt>
      <trkpt lat="47.80794" lon="-3.63598">
        <ele>44</ele>
        <time>2021-08-14T09:10:15Z</time>
      </trkpt>
      <trkpt lat="47.80793" lon="-3.63595">
        <ele>44.2</ele>
        <time>2021-08-14T09:10:16Z</time>
      </trkpt>
      <trkpt lat="47.80792" lon="-3.63591">
        <ele>44.4</ele>
        <time>2021-08-14T09:10:17Z</time>
      </trkpt>
      <trkpt lat="47.80791" lon="-3.63587">
        <ele>44.4</ele>
        <time>2021-08-14T09:10:18Z</time>
      </trkpt>
      <trkpt lat="47.8079" lon="-3.63583">
        <ele>44.6</ele>
        <time>2021-08-14T09:10:19Z</time>
      </trkpt>
      <trkpt lat="47.80789" lon="-3.6358">
        <ele>44.6</ele>
        <time>2021-08-14T09:10:20Z</time>
      </trkpt>
      <trkpt lat="47.80788" lon="-3.63576">
        <ele>44.8</ele>
        <time>2021-08-14T09:10:21Z</time>
      </trkpt>
      <trkpt lat="47.80787" lon="-3.63572">
        <ele>45</ele>
        <time>2021-08-14T09:10:22Z</time>
      </trkpt>
      <trkpt lat="47.80786" lon="-3.63568">
        <ele>45.2</ele>
        <time>2021-08-14T09:10:23Z</time>
      </trkpt>
      <trkpt lat="47.80785" lon="-3.63563">
        <ele>45.6</ele>
        <time>2021-08-14T09:10:24Z</time>
      </trkpt>
      <trkpt lat="47.80784" lon="-3.63559">
        <ele>45.8</ele>
        <time>2021-08-14T09:10:25Z</time>
      </trkpt>
      <trkpt lat="47.80783" lon="-3.63555">
        <ele>45.8</ele>
        <time>2021-08-14T09:10:26Z</time>
      </trkpt>
      <trkpt lat="47.80782" lon="-3.63551">
        <ele>46</ele>
        <time>2021-08-14T09:10:27Z</time>
      </trkpt>
      <trkpt lat="47.8078" lon="-3.63547">
        <ele>46</ele>
        <time>2021-08-14T09:10:28Z</time>
      </trkpt>
      <trkpt lat="47.80779" lon="-3.63542">
        <ele>46</ele>
        <time>2021-08-14T09:10:29Z</time>
      </trkpt>
      <trkpt lat="47.80778" lon="-3.63538">
        <ele>46.2</ele>
        <time>2021-08-14T09:10:30Z</time>
      </trkpt>
      <trkpt lat="47.80777" lon="-3.63533">
        <ele>46.2</ele>
        <time>2021-08-14T09:10:31Z</time>
      </trkpt>
      <trkpt lat="47.80775" lon="-3.63529">
        <ele>46.2</ele>
        <time>2021-08-14T09:10:32Z</time>
      </trkpt>
      <trkpt lat="47.80774" lon="-3.63524">
        <ele>46.4</ele>
        <time>2021-08-14T09:10:33Z</time>
      </trkpt>
      <trkpt lat="47.80773" lon="-3.63519">
        <ele>46.4</ele>
        <time>2021-08-14T09:10:34Z</time>
      </trkpt>
      <trkpt lat="47.80772" lon="-3.63515">
        <ele>46.4</ele>
        <time>2021-08-14T09:10:35Z</time>
      </trkpt>
      <trkpt lat="47.8077" lon="-3.6351">
        <ele>46.4</ele>
        <time>2021-08-14T09:10:36Z</time>
      </trkpt>
      <trkpt lat="47.80769" lon="-3.63505">
        <ele>46.6</ele>
        <time>2021-08-14T09:10:37Z</time>
      </trkpt>
      <trkpt lat="47.80768" lon="-3.63499">
        <ele>46.6</ele>
        <time>2021-08-14T09:10:38Z</time>
      </trkpt>
      <trkpt lat="47.80767" lon="-3.63494">
        <ele>46.6</ele>
        <time>2021-08-14T09:10:39Z</time>
      </trkpt>
      <trkpt lat="47.80765" lon="-3.63489">
        <ele>46.6</ele>
        <time>2021-08-14T09:10:40Z</time>
      </trkpt>
      <trkpt lat="47.80764" lon="-3.63484">
        <ele>46.8</ele>
        <time>2021-08-14T09:10:41Z</time>
      </trkpt>
      <trkpt lat="47.80762" lon="-3.63479">
        <ele>46.8</ele>
        <time>2021-08-14T09:10:42Z</time>
      </trkpt>
      <trkpt lat="47.80761" lon="-3.63473">
        <ele>47</ele>
        <time>2021-08-14T09:10:43Z</time>
      </trkpt>
      <trkpt lat="47.80759" lon="-3.63468">
        <ele>47.2</ele>
        <time>2021-08-14T09:10:44Z</time>
      </trkpt>
      <trkpt lat="47.80758" lon="-3.63463">
        <ele>47.2</ele>
        <time>2021-08-14T09:10:45Z</time>
      </trkpt>
      <trkpt lat="47.80756" lon="-3.63458">
        <ele>47.2</ele>
        <time>2021-08-14T09:10:46Z</time>
      </trkpt>
      <trkpt lat="47.80755" lon="-3.63452">
        <ele>47.2</ele>
        <time>2021-08-14T09:10:47Z</time>
      </trkpt>
      <trkpt lat="47.80754" lon="-3.63447">
        <ele>47.2</ele>
        <time>2021-08-14T09:10:48Z</time>
      </trkpt>
      <trkpt lat="47.80753" lon="-3.63442">
        <ele>47.4</ele>
        <time>2021-08-14T09:10:49Z</time>
      </trkpt>
      <trkpt lat="47.80751" lon="-3.63437">
        <ele>47.4</ele>
        <time>2021-08-14T09:10:50Z</time>
      </trkpt>
      <trkpt lat="47.8075" lon="-3.63431">
        <ele>47.4</ele>
        <time>2021-08-14T09:10:51Z</time>
      </trkpt>
      <trkpt lat="47.80748" lon="-3.63426">
        <ele>47.4</ele>
        <time>2021-08-14T09:10:52Z</time>
      </trkpt>
      <trkpt lat="47.80747" lon="-3.63421">
        <ele>47.6</ele>
        <time>2021-08-14T09:10:53Z</time>
      </trkpt>
      <trkpt lat="47.80746" lon="-3.63416">
        <ele>47.6</ele>
        <time>2021-08-14T09:10:54Z</time>
      </trkpt>
      <trkpt lat="47.80744" lon="-3.63411">
        <ele>47.6</ele>
        <time>2021-08-14T09:10:55Z</time>
      </trkpt>
      <trkpt lat="47.80743" lon="-3.63406">
        <ele>47.6</ele>
        <time>2021-08-14T09:10:56Z</time>
      </trkpt>
      <trkpt lat="47.80741" lon="-3.63401">
        <ele>47.8</ele>
        <time>2021-08-14T09:10:57Z</time>
      </trkpt>
      <trkpt lat="47.8074" lon="-3.63396">
        <ele>48</ele>
        <time>2021-08-14T09:10:58Z</time>
      </trkpt>
      <trkpt lat="47.80738" lon="-3.6339">
        <ele>48</ele>
        <time>2021-08-14T09:10:59Z</time>
      </trkpt>
      <trkpt lat="47.80737" lon="-3.63385">
        <ele>48</ele>
        <time>2021-08-14T09:11:00Z</time>
      </trkpt>
      <trkpt lat="47.80736" lon="-3.6338">
        <ele>48.2</ele>
        <time>2021-08-14T09:11:01Z</time>
      </trkpt>
      <trkpt lat="47.80734" lon="-3.63375">
        <ele>48.2</ele>
        <time>2021-08-14T09:11:02Z</time>
      </trkpt>
      <trkpt lat="47.80733" lon="-3.6337">
        <ele>48.2</ele>
        <time>2021-08-14T09:11:03Z</time>
      </trkpt>
      <trkpt lat="47.80731" lon="-3.63365">
        <ele>48.4</ele>
        <time>2021-08-14T09:11:04Z</time>
      </trkpt>
      <trkpt lat="47.8073" lon="-3.6336">
        <ele>48.6</ele>
        <time>2021-08-14T09:11:05Z</time>
      </trkpt>
      <trkpt lat="47.80728" lon="-3.63355">
        <ele>48.6</ele>
        <time>2021-08-14T09:11:06Z</time>
      </trkpt>
      <trkpt lat="47.80727" lon="-3.6335">
        <ele>48.8</ele>
        <time>2021-08-14T09:11:07Z</time>
      </trkpt>
      <trkpt lat="47.80726" lon="-3.63345">
        <ele>49</ele>
        <time>2021-08-14T09:11:08Z</time>
      </trkpt>
      <trkpt lat="47.80724" lon="-3.63341">
        <ele>49</ele>
        <time>2021-08-14T09:11:09Z</time>
      </trkpt>
      <trkpt lat="47.80723" lon="-3.63336">
        <ele>49.2</ele>
        <time>2021-08-14T09:11:10Z</time>
      </trkpt>
      <trkpt lat="47.80722" lon="-3.63332">
        <ele>49.4</ele>
        <time>2021-08-14T09:11:11Z</time>
      </trkpt>
      <trkpt lat="47.80721" lon="-3.63327">
        <ele>49.6</ele>
        <time>2021-08-14T09:11:12Z</time>
      </trkpt>
      <trkpt lat="47.80719" lon="-3.63323">
        <ele>49.8</ele>
        <time>2021-08-14T09:11:13Z</time>
      </trkpt>
      <trkpt lat="47.80718" lon="-3.63318">
        <ele>49.8</ele>
        <time>2021-08-14T09:11:14Z</time>
      </trkpt>
      <trkpt lat="47.80717" lon="-3.63314">
        <ele>50</ele>
        <time>2021-08-14T09:11:15Z</time>
      </trkpt>
      <trkpt lat="47.80716" lon="-3.6331">
        <ele>50.2</ele>
        <time>2021-08-14T09:11:16Z</time>
      </trkpt>
      <trkpt lat="47.80714" lon="-3.63305">
        <ele>50.4</ele>
        <time>2021-08-14T09:11:17Z</time>
      </trkpt>
      <trkpt lat="47.80713" lon="-3.63301">
        <ele>50.6</ele>
        <time>2021-08-14T09:11:18Z</time>
      </trkpt>
      <trkpt lat="47.80712" lon="-3.63296">
        <ele>50.8</ele>
        <time>2021-08-14T09:11:19Z</time>
      </trkpt>
      <trkpt lat="47.8071" lon="-3.63292">
        <ele>51</ele>
        <time>2021-08-14T09:11:20Z</time>
      </trkpt>
      <trkpt lat="47.80709" lon="-3.63288">
        <ele>51.2</ele>
        <time>2021-08-14T09:11:21Z</time>
      </trkpt>
      <trkpt lat="47.80708" lon="-3.63284">
        <ele>51.4</ele>
        <time>2021-08-14T09:11:22Z</time>
      </trkpt>
      <trkpt lat="47.80706" lon="-3.63279">
        <ele>51.6</ele>
        <time>2021-08-14T09:11:23Z</time>
      </trkpt>
      <trkpt lat="47.80705" lon="-3.63275">
        <ele>51.6</ele>
        <time>2021-08-14T09:11:24Z</time>
      </trkpt>
      <trkpt lat="47.80704" lon="-3.63271">
        <ele>51.8</ele>
        <time>2021-08-14T09:11:25Z</time>
      </trkpt>
      <trkpt lat="47.80703" lon="-3.63267">
        <ele>52</ele>
        <time>2021-08-14T09:11:26Z</time>
      </trkpt>
      <trkpt lat="47.80701" lon="-3.63263">
        <ele>52</ele>
        <time>2021-08-14T09:11:27Z</time>
      </trkpt>
      <trkpt lat="47.807" lon="-3.63259">
        <ele>52</ele>
        <time>2021-08-14T09:11:28Z</time>
      </trkpt>
      <trkpt lat="47.80699" lon="-3.63254">
        <ele>52.2</ele>
        <time>2021-08-14T09:11:29Z</time>
      </trkpt>
      <trkpt lat="47.80698" lon="-3.63249">
        <ele>52.2</ele>
        <time>2021-08-14T09:11:30Z</time>
      </trkpt>
      <trkpt lat="47.80696" lon="-3.63244">
        <ele>52.2</ele>
        <time>2021-08-14T09:11:31Z</time>
      </trkpt>
      <trkpt lat="47.80695" lon="-3.63239">
        <ele>52.4</ele>
        <time>2021-08-14T09:11:32Z</time>
      </trkpt>
      <trkpt lat="47.80693" lon="-3.63234">
        <ele>52.4</ele>
        <time>2021-08-14T09:11:33Z</time>
      </trkpt>
      <trkpt lat="47.80691" lon="-3.63228">
        <ele>52.4</ele>
        <time>2021-08-14T09:11:34Z</time>
      </trkpt>
      <trkpt lat="47.80689" lon="-3.63223">
        <ele>52.4</ele>
        <time>2021-08-14T09:11:35Z</time>
      </trkpt>
      <trkpt lat="47.80687" lon="-3.63218">
        <ele>52.4</ele>
        <time>2021-08-14T09:11:36Z</time>
      </trkpt>
      <trkpt lat="47.80685" lon="-3.63212">
        <ele>52.4</ele>
        <time>2021-08-14T09:11:37Z</time>
      </trkpt>
      <trkpt lat="47.80683" lon="-3.63207">
        <ele>52.4</ele>
        <time>2021-08-14T09:11:38Z</time>
      </trkpt>
      <trkpt lat="47.80681" lon="-3.63202">
        <ele>52.6</ele>
        <time>2021-08-14T09:11:39Z</time>
      </trkpt>
      <trkpt lat="47.80679" lon="-3.63196">
        <ele>52.6</ele>
        <time>2021-08-14T09:11:40Z</time>
      </trkpt>
      <trkpt lat="47.80677" lon="-3.6319">
        <ele>52.6</ele>
        <time>2021-08-14T09:11:41Z</time>
      </trkpt>
      <trkpt lat="47.80676" lon="-3.63184">
        <ele>52.6</ele>
        <time>2021-08-14T09:11:42Z</time>
      </trkpt>
      <trkpt lat="47.80674" lon="-3.63177">
        <ele>52.6</ele>
        <time>2021-08-14T09:11:43Z</time>
      </trkpt>
      <trkpt lat="47.80673" lon="-3.63171">
        <ele>52.6</ele>
        <time>2021-08-14T09:11:44Z</time>
      </trkpt>
      <trkpt lat="47.80671" lon="-3.63165">
        <ele>52.6</ele>
        <time>2021-08-14T09:11:45Z</time>
      </trkpt>
      <trkpt lat="47.8067" lon="-3.63159">
        <ele>52.6</ele>
        <time>2021-08-14T09:11:46Z</time>
      </trkpt>
      <trkpt lat="47.80668" lon="-3.63154">
        <ele>52.6</ele>
        <time>2021-08-14T09:11:47Z</time>
      </trkpt>
      <trkpt lat="47.80666" lon="-3.63147">
        <ele>52.6</ele>
        <time>2021-08-14T09:11:48Z</time>
      </trkpt>
      <trkpt lat="47.80664" lon="-3.63141">
        <ele>52.6</ele>
        <time>2021-08-14T09:11:49Z</time>
      </trkpt>
      <trkpt lat="47.80662" lon="-3.63135">
        <ele>52.6</ele>
        <time>2021-08-14T09:11:50Z</time>
      </trkpt>
      <trkpt lat="47.8066" lon="-3.63129">
        <ele>52.6</ele>
        <time>2021-08-14T09:11:51Z</time>
      </trkpt>
      <trkpt lat="47.80658" lon="-3.63123">
        <ele>52.6</ele>
        <time>2021-08-14T09:11:52Z</time>
      </trkpt>
      <trkpt lat="47.80656" lon="-3.63116">
        <ele>52.6</ele>
        <time>2021-08-14T09:11:53Z</time>
      </trkpt>
      <trkpt lat="47.80654" lon="-3.6311">
        <ele>52.6</ele>
        <time>2021-08-14T09:11:54Z</time>
      </trkpt>
      <trkpt lat="47.80653" lon="-3.63103">
        <ele>52.6</ele>
        <time>2021-08-14T09:11:55Z</time>
      </trkpt>
      <trkpt lat="47.8065" lon="-3.63097">
        <ele>52.6</ele>
        <time>2021-08-14T09:11:56Z</time>
      </trkpt>
      <trkpt lat="47.80648" lon="-3.6309">
        <ele>52.6</ele>
        <time>2021-08-14T09:11:57Z</time>
      </trkpt>
      <trkpt lat="47.80646" lon="-3.63084">
        <ele>52.6</ele>
        <time>2021-08-14T09:11:58Z</time>
      </trkpt>
      <trkpt lat="47.80644" lon="-3.63077">
        <ele>52.6</ele>
        <time>2021-08-14T09:11:59Z</time>
      </trkpt>
      <trkpt lat="47.80642" lon="-3.6307">
        <ele>52.6</ele>
        <time>2021-08-14T09:12:00Z</time>
      </trkpt>
      <trkpt lat="47.8064" lon="-3.63064">
        <ele>52.6</ele>
        <time>2021-08-14T09:12:01Z</time>
      </trkpt>
      <trkpt lat="47.80638" lon="-3.63057">
        <ele>52.6</ele>
        <time>2021-08-14T09:12:02Z</time>
      </trkpt>
      <trkpt lat="47.80635" lon="-3.63051">
        <ele>52.6</ele>
        <time>2021-08-14T09:12:03Z</time>
      </trkpt>
      <trkpt lat="47.80633" lon="-3.63045">
        <ele>52.6</ele>
        <time>2021-08-14T09:12:04Z</time>
      </trkpt>
      <trkpt lat="47.80631" lon="-3.63038">
        <ele>52.6</ele>
        <time>2021-08-14T09:12:05Z</time>
      </trkpt>
      <trkpt lat="47.80629" lon="-3.63032">
        <ele>52.6</ele>
        <time>2021-08-14T09:12:06Z</time>
      </trkpt>
      <trkpt lat="47.80627" lon="-3.63026">
        <ele>52.6</ele>
        <time>2021-08-14T09:12:07Z</time>
      </trkpt>
      <trkpt lat="47.80625" lon="-3.6302">
        <ele>52.4</ele>
        <time>2021-08-14T09:12:08Z</time>
      </trkpt>
      <trkpt lat="47.80623" lon="-3.63014">
        <ele>52.4</ele>
        <time>2021-08-14T09:12:09Z</time>
      </trkpt>
      <trkpt lat="47.8062" lon="-3.63008">
        <ele>52.4</ele>
        <time>2021-08-14T09:12:10Z</time>
      </trkpt>
      <trkpt lat="47.80619" lon="-3.63002">
        <ele>52.6</ele>
        <time>2021-08-14T09:12:11Z</time>
      </trkpt>
      <trkpt lat="47.80616" lon="-3.62995">
        <ele>52.6</ele>
        <time>2021-08-14T09:12:12Z</time>
      </trkpt>
      <trkpt lat="47.80614" lon="-3.62989">
        <ele>52.4</ele>
        <time>2021-08-14T09:12:13Z</time>
      </trkpt>
      <trkpt lat="47.80612" lon="-3.62982">
        <ele>52.6</ele>
        <time>2021-08-14T09:12:14Z</time>
      </trkpt>
      <trkpt lat="47.8061" lon="-3.62976">
        <ele>52.6</ele>
        <time>2021-08-14T09:12:15Z</time>
      </trkpt>
      <trkpt lat="47.80608" lon="-3.6297">
        <ele>52.6</ele>
        <time>2021-08-14T09:12:16Z</time>
      </trkpt>
      <trkpt lat="47.80605" lon="-3.62963">
        <ele>52.6</ele>
        <time>2021-08-14T09:12:17Z</time>
      </trkpt>
      <trkpt lat="47.80603" lon="-3.62957">
        <ele>52.6</ele>
        <time>2021-08-14T09:12:18Z</time>
      </trkpt>
      <trkpt lat="47.80601" lon="-3.6295">
        <ele>52.6</ele>
        <time>2021-08-14T09:12:19Z</time>
      </trkpt>
      <trkpt lat="47.80599" lon="-3.62944">
        <ele>52.6</ele>
        <time>2021-08-14T09:12:20Z</time>
      </trkpt>
      <trkpt lat="47.80596" lon="-3.62938">
        <ele>52.6</ele>
        <time>2021-08-14T09:12:21Z</time>
      </trkpt>
      <trkpt lat="47.80594" lon="-3.62932">
        <ele>52.6</ele>
        <time>2021-08-14T09:12:22Z</time>
      </trkpt>
      <trkpt lat="47.80592" lon="-3.62926">
        <ele>52.6</ele>
        <time>2021-08-14T09:12:23Z</time>
      </trkpt>
      <trkpt lat="47.8059" lon="-3.6292">
        <ele>52.6</ele>
        <time>2021-08-14T09:12:24Z</time>
      </trkpt>
      <trkpt lat="47.80588" lon="-3.62914">
        <ele>52.6</ele>
        <time>2021-08-14T09:12:25Z</time>
      </trkpt>
      <trkpt lat="47.80585" lon="-3.62907">
        <ele>52.6</ele>
        <time>2021-08-14T09:12:26Z</time>
      </trkpt>
      <trkpt lat="47.80583" lon="-3.629">
        <ele>52.6</ele>
        <time>2021-08-14T09:12:27Z</time>
      </trkpt>
      <trkpt lat="47.8058" lon="-3.62893">
        <ele>52.6</ele>
        <time>2021-08-14T09:12:28Z</time>
      </trkpt>
      <trkpt lat="47.80578" lon="-3.62887">
        <ele>52.6</ele>
        <time>2021-08-14T09:12:29Z</time>
      </trkpt>
      <trkpt lat="47.80575" lon="-3.6288">
        <ele>52.4</ele>
        <time>2021-08-14T09:12:30Z</time>
      </trkpt>
      <trkpt lat="47.80572" lon="-3.62873">
        <ele>52.4</ele>
        <time>2021-08-14T09:12:31Z</time>
      </trkpt>
      <trkpt lat="47.8057" lon="-3.62867">
        <ele>52.4</ele>
        <time>2021-08-14T09:12:32Z</time>
      </trkpt>
      <trkpt lat="47.80568" lon="-3.6286">
        <ele>52.4</ele>
        <time>2021-08-14T09:12:33Z</time>
      </trkpt>
      <trkpt lat="47.80566" lon="-3.62854">
        <ele>52.4</ele>
        <time>2021-08-14T09:12:34Z</time>
      </trkpt>
      <trkpt lat="47.80564" lon="-3.62849">
        <ele>52.4</ele>
        <time>2021-08-14T09:12:35Z</time>
      </trkpt>
      <trkpt lat="47.80562" lon="-3.62843">
        <ele>52.2</ele>
        <time>2021-08-14T09:12:36Z</time>
      </trkpt>
      <trkpt lat="47.8056" lon="-3.62838">
        <ele>52.2</ele>
        <time>2021-08-14T09:12:37Z</time>
      </trkpt>
      <trkpt lat="47.80558" lon="-3.62832">
        <ele>52.2</ele>
        <time>2021-08-14T09:12:38Z</time>
      </trkpt>
      <trkpt lat="47.80556" lon="-3.62827">
        <ele>52.2</ele>
        <time>2021-08-14T09:12:39Z</time>
      </trkpt>
      <trkpt lat="47.80554" lon="-3.62821">
        <ele>52.2</ele>
        <time>2021-08-14T09:12:40Z</time>
      </trkpt>
      <trkpt lat="47.80552" lon="-3.62816">
        <ele>52.2</ele>
        <time>2021-08-14T09:12:41Z</time>
      </trkpt>
      <trkpt lat="47.80551" lon="-3.6281">
        <ele>52.2</ele>
        <time>2021-08-14T09:12:42Z</time>
      </trkpt>
      <trkpt lat="47.80549" lon="-3.62804">
        <ele>52.2</ele>
        <time>2021-08-14T09:12:43Z</time>
      </trkpt>
      <trkpt lat="47.80548" lon="-3.62799">
        <ele>52.2</ele>
        <time>2021-08-14T09:12:44Z</time>
      </trkpt>
      <trkpt lat="47.80546" lon="-3.62793">
        <ele>52.2</ele>
        <time>2021-08-14T09:12:45Z</time>
      </trkpt>
      <trkpt lat="47.80545" lon="-3.62788">
        <ele>52.2</ele>
        <time>2021-08-14T09:12:46Z</time>
      </trkpt>
      <trkpt lat="47.80543" lon="-3.62783">
        <ele>52.2</ele>
        <time>2021-08-14T09:12:47Z</time>
      </trkpt>
      <trkpt lat="47.8054" lon="-3.62779">
        <ele>52.2</ele>
        <time>2021-08-14T09:12:48Z</time>
      </trkpt>
      <trkpt lat="47.80536" lon="-3.62775">
        <ele>52.2</ele>
        <time>2021-08-14T09:12:49Z</time>
      </trkpt>
      <trkpt lat="47.80532" lon="-3.62772">
        <ele>52.2</ele>
        <time>2021-08-14T09:12:50Z</time>
      </trkpt>
      <trkpt lat="47.80528" lon="-3.62769">
        <ele>52.2</ele>
        <time>2021-08-14T09:12:51Z</time>
      </trkpt>
      <trkpt lat="47.80523" lon="-3.62767">
        <ele>52.2</ele>
        <time>2021-08-14T09:12:52Z</time>
      </trkpt>
      <trkpt lat="47.80519" lon="-3.62764">
        <ele>52.2</ele>
        <time>2021-08-14T09:12:53Z</time>
      </trkpt>
      <trkpt lat="47.80514" lon="-3.62762">
        <ele>52.2</ele>
        <time>2021-08-14T09:12:54Z</time>
      </trkpt>
      <trkpt lat="47.80509" lon="-3.62759">
        <ele>52.2</ele>
        <time>2021-08-14T09:12:55Z</time>
      </trkpt>
      <trkpt lat="47.80505" lon="-3.62757">
        <ele>52.2</ele>
        <time>2021-08-14T09:12:56Z</time>
      </trkpt>
      <trkpt lat="47.805" lon="-3.62755">
        <ele>52.2</ele>
        <time>2021-08-14T09:12:57Z</time>
      </trkpt>
      <trkpt lat="47.80495" lon="-3.62753">
        <ele>52.2</ele>
        <time>2021-08-14T09:12:58Z</time>
      </trkpt>
      <trkpt lat="47.8049" lon="-3.6275">
        <ele>52.2</ele>
        <time>2021-08-14T09:12:59Z</time>
      </trkpt>
      <trkpt lat="47.80485" lon="-3.62748">
        <ele>52.2</ele>
        <time>2021-08-14T09:13:00Z</time>
      </trkpt>
      <trkpt lat="47.80481" lon="-3.62745">
        <ele>52.2</ele>
        <time>2021-08-14T09:13:01Z</time>
      </trkpt>
      <trkpt lat="47.80476" lon="-3.62743">
        <ele>52</ele>
        <time>2021-08-14T09:13:02Z</time>
      </trkpt>
      <trkpt lat="47.80471" lon="-3.6274">
        <ele>52</ele>
        <time>2021-08-14T09:13:03Z</time>
      </trkpt>
      <trkpt lat="47.80466" lon="-3.62738">
        <ele>52</ele>
        <time>2021-08-14T09:13:04Z</time>
      </trkpt>
      <trkpt lat="47.80461" lon="-3.62735">
        <ele>51.8</ele>
        <time>2021-08-14T09:13:05Z</time>
      </trkpt>
      <trkpt lat="47.80456" lon="-3.62732">
        <ele>51.8</ele>
        <time>2021-08-14T09:13:06Z</time>
      </trkpt>
      <trkpt lat="47.80451" lon="-3.6273">
        <ele>51.6</ele>
        <time>2021-08-14T09:13:07Z</time>
      </trkpt>
      <trkpt lat="47.80447" lon="-3.62727">
        <ele>51.6</ele>
        <time>2021-08-14T09:13:08Z</time>
      </trkpt>
      <trkpt lat="47.80442" lon="-3.62725">
        <ele>51.6</ele>
        <time>2021-08-14T09:13:09Z</time>
      </trkpt>
      <trkpt lat="47.80437" lon="-3.62722">
        <ele>51.6</ele>
        <time>2021-08-14T09:13:10Z</time>
      </trkpt>
      <trkpt lat="47.80432" lon="-3.62719">
        <ele>51.4</ele>
        <time>2021-08-14T09:13:11Z</time>
      </trkpt>
      <trkpt lat="47.80427" lon="-3.62717">
        <ele>51.4</ele>
        <time>2021-08-14T09:13:12Z</time>
      </trkpt>
      <trkpt lat="47.80422" lon="-3.62714">
        <ele>51.4</ele>
        <time>2021-08-14T09:13:13Z</time>
      </trkpt>
      <trkpt lat="47.80418" lon="-3.62712">
        <ele>51.4</ele>
        <time>2021-08-14T09:13:14Z</time>
      </trkpt>
      <trkpt lat="47.80414" lon="-3.6271">
        <ele>51.2</ele>
        <time>2021-08-14T09:13:15Z</time>
      </trkpt>
      <trkpt lat="47.8041" lon="-3.62708">
        <ele>51.2</ele>
        <time>2021-08-14T09:13:16Z</time>
      </trkpt>
      <trkpt lat="47.80405" lon="-3.62706">
        <ele>51</ele>
        <time>2021-08-14T09:13:17Z</time>
      </trkpt>
      <trkpt lat="47.80401" lon="-3.62704">
        <ele>51</ele>
        <time>2021-08-14T09:13:18Z</time>
      </trkpt>
      <trkpt lat="47.80396" lon="-3.62702">
        <ele>50.8</ele>
        <time>2021-08-14T09:13:19Z</time>
      </trkpt>
      <trkpt lat="47.80391" lon="-3.627">
        <ele>50.8</ele>
        <time>2021-08-14T09:13:20Z</time>
      </trkpt>
      <trkpt lat="47.80387" lon="-3.62699">
        <ele>50.8</ele>
        <time>2021-08-14T09:13:21Z</time>
      </trkpt>
      <trkpt lat="47.80382" lon="-3.62697">
        <ele>50.8</ele>
        <time>2021-08-14T09:13:22Z</time>
      </trkpt>
      <trkpt lat="47.80377" lon="-3.62696">
        <ele>50.8</ele>
        <time>2021-08-14T09:13:23Z</time>
      </trkpt>
      <trkpt lat="47.80372" lon="-3.62694">
        <ele>50.6</ele>
        <time>2021-08-14T09:13:24Z</time>
      </trkpt>
      <trkpt lat="47.80367" lon="-3.62692">
        <ele>50.6</ele>
        <time>2021-08-14T09:13:25Z</time>
      </trkpt>
      <trkpt lat="47.80362" lon="-3.62689">
        <ele>50.6</ele>
        <time>2021-08-14T09:13:26Z</time>
      </trkpt>
      <trkpt lat="47.80358" lon="-3.62687">
        <ele>50.6</ele>
        <time>2021-08-14T09:13:27Z</time>
      </trkpt>
      <trkpt lat="47.80353" lon="-3.62685">
        <ele>50.6</ele>
        <time>2021-08-14T09:13:28Z</time>
      </trkpt>
      <trkpt lat="47.80348" lon="-3.62683">
        <ele>50.4</ele>
        <time>2021-08-14T09:13:29Z</time>
      </trkpt>
      <trkpt lat="47.80343" lon="-3.62681">
        <ele>50.4</ele>
        <time>2021-08-14T09:13:30Z</time>
      </trkpt>
      <trkpt lat="47.80338" lon="-3.62678">
        <ele>50.4</ele>
        <time>2021-08-14T09:13:31Z</time>
      </trkpt>
      <trkpt lat="47.80333" lon="-3.62677">
        <ele>50.4</ele>
        <time>2021-08-14T09:13:32Z</time>
      </trkpt>
      <trkpt lat="47.80329" lon="-3.62675">
        <ele>50.4</ele>
        <time>2021-08-14T09:13:33Z</time>
      </trkpt>
      <trkpt lat="47.80324" lon="-3.62674">
        <ele>50.2</ele>
        <time>2021-08-14T09:13:34Z</time>
      </trkpt>
      <trkpt lat="47.80318" lon="-3.62671">
        <ele>50.2</ele>
        <time>2021-08-14T09:13:35Z</time>
      </trkpt>
      <trkpt lat="47.80313" lon="-3.62669">
        <ele>50.2</ele>
        <time>2021-08-14T09:13:36Z</time>
      </trkpt>
      <trkpt lat="47.80307" lon="-3.62665">
        <ele>50</ele>
        <time>2021-08-14T09:13:37Z</time>
      </trkpt>
      <trkpt lat="47.80301" lon="-3.6266">
        <ele>49.8</ele>
        <time>2021-08-14T09:13:38Z</time>
      </trkpt>
      <trkpt lat="47.80294" lon="-3.62655">
        <ele>49.6</ele>
        <time>2021-08-14T09:13:39Z</time>
      </trkpt>
      <trkpt lat="47.80287" lon="-3.6265">
        <ele>49.4</ele>
        <time>2021-08-14T09:13:40Z</time>
      </trkpt>
      <trkpt lat="47.80281" lon="-3.62646">
        <ele>49.2</ele>
        <time>2021-08-14T09:13:41Z</time>
      </trkpt>
      <trkpt lat="47.80274" lon="-3.62641">
        <ele>48.8</ele>
        <time>2021-08-14T09:13:42Z</time>
      </trkpt>
      <trkpt lat="47.80266" lon="-3.62636">
        <ele>48.6</ele>
        <time>2021-08-14T09:13:43Z</time>
      </trkpt>
      <trkpt lat="47.80258" lon="-3.6263">
        <ele>48.4</ele>
        <time>2021-08-14T09:13:44Z</time>
      </trkpt>
      <trkpt lat="47.8025" lon="-3.62623">
        <ele>48</ele>
        <time>2021-08-14T09:13:45Z</time>
      </trkpt>
      <trkpt lat="47.80242" lon="-3.62617">
        <ele>47.6</ele>
        <time>2021-08-14T09:13:46Z</time>
      </trkpt>
      <trkpt lat="47.80234" lon="-3.62611">
        <ele>46.8</ele>
        <time>2021-08-14T09:13:47Z</time>
      </trkpt>
      <trkpt lat="47.80227" lon="-3.62605">
        <ele>46.4</ele>
        <time>2021-08-14T09:13:48Z</time>
      </trkpt>
      <trkpt lat="47.8022" lon="-3.626">
        <ele>46</ele>
        <time>2021-08-14T09:13:49Z</time>
      </trkpt>
      <trkpt lat="47.80213" lon="-3.62595">
        <ele>45.4</ele>
        <time>2021-08-14T09:13:50Z</time>
      </trkpt>
      <trkpt lat="47.80206" lon="-3.6259">
        <ele>45</ele>
        <time>2021-08-14T09:13:51Z</time>
      </trkpt>
      <trkpt lat="47.80199" lon="-3.62585">
        <ele>44.8</ele>
        <time>2021-08-14T09:13:52Z</time>
      </trkpt>
      <trkpt lat="47.80192" lon="-3.62581">
        <ele>44.4</ele>
        <time>2021-08-14T09:13:53Z</time>
      </trkpt>
      <trkpt lat="47.80185" lon="-3.62576">
        <ele>43.8</ele>
        <time>2021-08-14T09:13:54Z</time>
      </trkpt>
      <trkpt lat="47.80178" lon="-3.62571">
        <ele>43.8</ele>
        <time>2021-08-14T09:13:55Z</time>
      </trkpt>
      <trkpt lat="47.80171" lon="-3.62567">
        <ele>43.6</ele>
        <time>2021-08-14T09:13:56Z</time>
      </trkpt>
      <trkpt lat="47.80165" lon="-3.62563">
        <ele>43.6</ele>
        <time>2021-08-14T09:13:57Z</time>
      </trkpt>
      <trkpt lat="47.8016" lon="-3.62559">
        <ele>43.6</ele>
        <time>2021-08-14T09:13:58Z</time>
      </trkpt>
      <trkpt lat="47.80155" lon="-3.62556">
        <ele>43.6</ele>
        <time>2021-08-14T09:13:59Z</time>
      </trkpt>
      <trkpt lat="47.8015" lon="-3.62554">
        <ele>43.6</ele>
        <time>2021-08-14T09:14:00Z</time>
      </trkpt>
      <trkpt lat="47.80145" lon="-3.62552">
        <ele>43.6</ele>
        <time>2021-08-14T09:14:01Z</time>
      </trkpt>
      <trkpt lat="47.80141" lon="-3.62549">
        <ele>43.6</ele>
        <time>2021-08-14T09:14:02Z</time>
      </trkpt>
      <trkpt lat="47.80136" lon="-3.62547">
        <ele>43.6</ele>
        <time>2021-08-14T09:14:03Z</time>
      </trkpt>
      <trkpt lat="47.80132" lon="-3.62545">
        <ele>43.6</ele>
        <time>2021-08-14T09:14:04Z</time>
      </trkpt>
      <trkpt lat="47.80128" lon="-3.62543">
        <ele>43.6</ele>
        <time>2021-08-14T09:14:05Z</time>
      </trkpt>
      <trkpt lat="47.80123" lon="-3.62541">
        <ele>43.8</ele>
        <time>2021-08-14T09:14:06Z</time>
      </trkpt>
      <trkpt lat="47.80118" lon="-3.62539">
        <ele>44</ele>
        <time>2021-08-14T09:14:07Z</time>
      </trkpt>
      <trkpt lat="47.80113" lon="-3.62536">
        <ele>44.2</ele>
        <time>2021-08-14T09:14:08Z</time>
      </trkpt>
      <trkpt lat="47.80108" lon="-3.62534">
        <ele>44.4</ele>
        <time>2021-08-14T09:14:09Z</time>
      </trkpt>
      <trkpt lat="47.80103" lon="-3.62531">
        <ele>44.6</ele>
        <time>2021-08-14T09:14:10Z</time>
      </trkpt>
      <trkpt lat="47.80098" lon="-3.62529">
        <ele>44.8</ele>
        <time>2021-08-14T09:14:11Z</time>
      </trkpt>
      <trkpt lat="47.80093" lon="-3.62526">
        <ele>45</ele>
        <time>2021-08-14T09:14:12Z</time>
      </trkpt>
      <trkpt lat="47.80088" lon="-3.62524">
        <ele>45</ele>
        <time>2021-08-14T09:14:13Z</time>
      </trkpt>
      <trkpt lat="47.80083" lon="-3.62522">
        <ele>45</ele>
        <time>2021-08-14T09:14:14Z</time>
      </trkpt>
      <trkpt lat="47.80078" lon="-3.6252">
        <ele>45.2</ele>
        <time>2021-08-14T09:14:15Z</time>
      </trkpt>
      <trkpt lat="47.80073" lon="-3.62517">
        <ele>45.2</ele>
        <time>2021-08-14T09:14:16Z</time>
      </trkpt>
      <trkpt lat="47.80067" lon="-3.62514">
        <ele>45.2</ele>
        <time>2021-08-14T09:14:17Z</time>
      </trkpt>
      <trkpt lat="47.80061" lon="-3.6251">
        <ele>45.2</ele>
        <time>2021-08-14T09:14:18Z</time>
      </trkpt>
      <trkpt lat="47.80055" lon="-3.62507">
        <ele>45.2</ele>
        <time>2021-08-14T09:14:19Z</time>
      </trkpt>
      <trkpt lat="47.80049" lon="-3.62503">
        <ele>45.2</ele>
        <time>2021-08-14T09:14:20Z</time>
      </trkpt>
      <trkpt lat="47.80043" lon="-3.62499">
        <ele>45.2</ele>
        <time>2021-08-14T09:14:21Z</time>
      </trkpt>
      <trkpt lat="47.80036" lon="-3.62495">
        <ele>45.2</ele>
        <time>2021-08-14T09:14:22Z</time>
      </trkpt>
      <trkpt lat="47.8003" lon="-3.62492">
        <ele>45.2</ele>
        <time>2021-08-14T09:14:23Z</time>
      </trkpt>
      <trkpt lat="47.80024" lon="-3.62489">
        <ele>45.2</ele>
        <time>2021-08-14T09:14:24Z</time>
      </trkpt>
      <trkpt lat="47.80017" lon="-3.62487">
        <ele>45.2</ele>
        <time>2021-08-14T09:14:25Z</time>
      </trkpt>
      <trkpt lat="47.80011" lon="-3.62486">
        <ele>45</ele>
        <time>2021-08-14T09:14:26Z</time>
      </trkpt>
      <trkpt lat="47.80006" lon="-3.62485">
        <ele>44.8</ele>
        <time>2021-08-14T09:14:27Z</time>
      </trkpt>
      <trkpt lat="47.8" lon="-3.62484">
        <ele>44.6</ele>
        <time>2021-08-14T09:14:28Z</time>
      </trkpt>
      <trkpt lat="47.79994" lon="-3.62483">
        <ele>44.6</ele>
        <time>2021-08-14T09:14:29Z</time>
      </trkpt>
      <trkpt lat="47.79987" lon="-3.62482">
        <ele>44.4</ele>
        <time>2021-08-14T09:14:30Z</time>
      </trkpt>
      <trkpt lat="47.7998" lon="-3.62481">
        <ele>44.2</ele>
        <time>2021-08-14T09:14:31Z</time>
      </trkpt>
      <trkpt lat="47.79973" lon="-3.6248">
        <ele>44.2</ele>
        <time>2021-08-14T09:14:32Z</time>
      </trkpt>
      <trkpt lat="47.79965" lon="-3.62479">
        <ele>44.2</ele>
        <time>2021-08-14T09:14:33Z</time>
      </trkpt>
      <trkpt lat="47.79957" lon="-3.62479">
        <ele>44</ele>
        <time>2021-08-14T09:14:34Z</time>
      </trkpt>
      <trkpt lat="47.79949" lon="-3.62478">
        <ele>43.8</ele>
        <time>2021-08-14T09:14:35Z</time>
      </trkpt>
      <trkpt lat="47.79941" lon="-3.62477">
        <ele>43.6</ele>
        <time>2021-08-14T09:14:36Z</time>
      </trkpt>
      <trkpt lat="47.79933" lon="-3.62476">
        <ele>43.4</ele>
        <time>2021-08-14T09:14:37Z</time>
      </trkpt>
      <trkpt lat="47.79925" lon="-3.62475">
        <ele>43.2</ele>
        <time>2021-08-14T09:14:38Z</time>
      </trkpt>
      <trkpt lat="47.79917" lon="-3.62475">
        <ele>43</ele>
        <time>2021-08-14T09:14:39Z</time>
      </trkpt>
      <trkpt lat="47.7991" lon="-3.62474">
        <ele>42.6</ele>
        <time>2021-08-14T09:14:40Z</time>
      </trkpt>
      <trkpt lat="47.79902" lon="-3.62473">
        <ele>42.4</ele>
        <time>2021-08-14T09:14:41Z</time>
      </trkpt>
      <trkpt lat="47.79895" lon="-3.62472">
        <ele>42</ele>
        <time>2021-08-14T09:14:42Z</time>
      </trkpt>
      <trkpt lat="47.79888" lon="-3.62472">
        <ele>41.8</ele>
        <time>2021-08-14T09:14:43Z</time>
      </trkpt>
      <trkpt lat="47.79881" lon="-3.62471">
        <ele>41.4</ele>
        <time>2021-08-14T09:14:44Z</time>
      </trkpt>
      <trkpt lat="47.79874" lon="-3.62471">
        <ele>40.6</ele>
        <time>2021-08-14T09:14:45Z</time>
      </trkpt>
      <trkpt lat="47.79868" lon="-3.62471">
        <ele>40.4</ele>
        <time>2021-08-14T09:14:46Z</time>
      </trkpt>
      <trkpt lat="47.79861" lon="-3.62471">
        <ele>40.4</ele>
        <time>2021-08-14T09:14:47Z</time>
      </trkpt>
      <trkpt lat="47.79855" lon="-3.62471">
        <ele>40.4</ele>
        <time>2021-08-14T09:14:48Z</time>
      </trkpt>
      <trkpt lat="47.7985" lon="-3.6247">
        <ele>40.4</ele>
        <time>2021-08-14T09:14:49Z</time>
      </trkpt>
      <trkpt lat="47.79844" lon="-3.6247">
        <ele>40.4</ele>
        <time>2021-08-14T09:14:50Z</time>
      </trkpt>
      <trkpt lat="47.79838" lon="-3.6247">
        <ele>40.4</ele>
        <time>2021-08-14T09:14:51Z</time>
      </trkpt>
      <trkpt lat="47.79833" lon="-3.62469">
        <ele>40.4</ele>
        <time>2021-08-14T09:14:52Z</time>
      </trkpt>
      <trkpt lat="47.79828" lon="-3.62468">
        <ele>40.4</ele>
        <time>2021-08-14T09:14:53Z</time>
      </trkpt>
      <trkpt lat="47.79822" lon="-3.62467">
        <ele>40.4</ele>
        <time>2021-08-14T09:14:54Z</time>
      </trkpt>
      <trkpt lat="47.79817" lon="-3.62465">
        <ele>40.4</ele>
        <time>2021-08-14T09:14:55Z</time>
      </trkpt>
      <trkpt lat="47.79811" lon="-3.62463">
        <ele>40.4</ele>
        <time>2021-08-14T09:14:56Z</time>
      </trkpt>
      <trkpt lat="47.79805" lon="-3.62461">
        <ele>40.4</ele>
        <time>2021-08-14T09:14:57Z</time>
      </trkpt>
      <trkpt lat="47.798" lon="-3.62458">
        <ele>40.4</ele>
        <time>2021-08-14T09:14:58Z</time>
      </trkpt>
      <trkpt lat="47.79795" lon="-3.62455">
        <ele>40.2</ele>
        <time>2021-08-14T09:14:59Z</time>
      </trkpt>
      <trkpt lat="47.7979" lon="-3.62452">
        <ele>40.2</ele>
        <time>2021-08-14T09:15:00Z</time>
      </trkpt>
      <trkpt lat="47.79785" lon="-3.62449">
        <ele>40.2</ele>
        <time>2021-08-14T09:15:01Z</time>
      </trkpt>
      <trkpt lat="47.7978" lon="-3.62446">
        <ele>40.2</ele>
        <time>2021-08-14T09:15:02Z</time>
      </trkpt>
      <trkpt lat="47.79776" lon="-3.62442">
        <ele>40.2</ele>
        <time>2021-08-14T09:15:03Z</time>
      </trkpt>
      <trkpt lat="47.79771" lon="-3.62439">
        <ele>40.4</ele>
        <time>2021-08-14T09:15:04Z</time>
      </trkpt>
      <trkpt lat="47.79767" lon="-3.62436">
        <ele>40.4</ele>
        <time>2021-08-14T09:15:05Z</time>
      </trkpt>
      <trkpt lat="47.79763" lon="-3.62432">
        <ele>40.4</ele>
        <time>2021-08-14T09:15:06Z</time>
      </trkpt>
      <trkpt lat="47.79758" lon="-3.62429">
        <ele>40.6</ele>
        <time>2021-08-14T09:15:07Z</time>
      </trkpt>
      <trkpt lat="47.79754" lon="-3.62426">
        <ele>40.6</ele>
        <time>2021-08-14T09:15:08Z</time>
      </trkpt>
      <trkpt lat="47.7975" lon="-3.62423">
        <ele>40.8</ele>
        <time>2021-08-14T09:15:09Z</time>
      </trkpt>
      <trkpt lat="47.79746" lon="-3.6242">
        <ele>40.8</ele>
        <time>2021-08-14T09:15:10Z</time>
      </trkpt>
      <trkpt lat="47.79741" lon="-3.62417">
        <ele>40.8</ele>
        <time>2021-08-14T09:15:11Z</time>
      </trkpt>
      <trkpt lat="47.79737" lon="-3.62414">
        <ele>40.8</ele>
        <time>2021-08-14T09:15:12Z</time>
      </trkpt>
      <trkpt lat="47.79733" lon="-3.62411">
        <ele>41</ele>
        <time>2021-08-14T09:15:13Z</time>
      </trkpt>
      <trkpt lat="47.79729" lon="-3.62408">
        <ele>41.2</ele>
        <time>2021-08-14T09:15:14Z</time>
      </trkpt>
      <trkpt lat="47.79726" lon="-3.62405">
        <ele>41.2</ele>
        <time>2021-08-14T09:15:15Z</time>
      </trkpt>
      <trkpt lat="47.79722" lon="-3.62403">
        <ele>41.6</ele>
        <time>2021-08-14T09:15:16Z</time>
      </trkpt>
      <trkpt lat="47.79719" lon="-3.624">
        <ele>41.8</ele>
        <time>2021-08-14T09:15:17Z</time>
      </trkpt>
      <trkpt lat="47.79715" lon="-3.62398">
        <ele>42</ele>
        <time>2021-08-14T09:15:18Z</time>
      </trkpt>
      <trkpt lat="47.79712" lon="-3.62395">
        <ele>42.2</ele>
        <time>2021-08-14T09:15:19Z</time>
      </trkpt>
      <trkpt lat="47.79708" lon="-3.62393">
        <ele>42.2</ele>
        <time>2021-08-14T09:15:20Z</time>
      </trkpt>
      <trkpt lat="47.79705" lon="-3.6239">
        <ele>42.4</ele>
        <time>2021-08-14T09:15:21Z</time>
      </trkpt>
      <trkpt lat="47.79702" lon="-3.62388">
        <ele>42.6</ele>
        <time>2021-08-14T09:15:22Z</time>
      </trkpt>
      <trkpt lat="47.79698" lon="-3.62385">
        <ele>42.8</ele>
        <time>2021-08-14T09:15:23Z</time>
      </trkpt>
      <trkpt lat="47.79695" lon="-3.62382">
        <ele>43</ele>
        <time>2021-08-14T09:15:24Z</time>
      </trkpt>
      <trkpt lat="47.79691" lon="-3.62379">
        <ele>43</ele>
        <time>2021-08-14T09:15:25Z</time>
      </trkpt>
      <trkpt lat="47.79688" lon="-3.62377">
        <ele>43.2</ele>
        <time>2021-08-14T09:15:26Z</time>
      </trkpt>
      <trkpt lat="47.79684" lon="-3.62374">
        <ele>43.2</ele>
        <time>2021-08-14T09:15:27Z</time>
      </trkpt>
      <trkpt lat="47.7968" lon="-3.62371">
        <ele>43.4</ele>
        <time>2021-08-14T09:15:28Z</time>
      </trkpt>
      <trkpt lat="47.79676" lon="-3.62368">
        <ele>43.4</ele>
        <time>2021-08-14T09:15:29Z</time>
      </trkpt>
      <trkpt lat="47.79672" lon="-3.62366">
        <ele>43.6</ele>
        <time>2021-08-14T09:15:30Z</time>
      </trkpt>
      <trkpt lat="47.79668" lon="-3.62364">
        <ele>43.6</ele>
        <time>2021-08-14T09:15:31Z</time>
      </trkpt>
      <trkpt lat="47.79664" lon="-3.62362">
        <ele>43.6</ele>
        <time>2021-08-14T09:15:32Z</time>
      </trkpt>
      <trkpt lat="47.7966" lon="-3.6236">
        <ele>43.6</ele>
        <time>2021-08-14T09:15:33Z</time>
      </trkpt>
      <trkpt lat="47.79656" lon="-3.62358">
        <ele>43.8</ele>
        <time>2021-08-14T09:15:34Z</time>
      </trkpt>
      <trkpt lat="47.79652" lon="-3.62357">
        <ele>43.8</ele>
        <time>2021-08-14T09:15:35Z</time>
      </trkpt>
      <trkpt lat="47.79648" lon="-3.62355">
        <ele>43.8</ele>
        <time>2021-08-14T09:15:36Z</time>
      </trkpt>
      <trkpt lat="47.79643" lon="-3.62353">
        <ele>43.8</ele>
        <time>2021-08-14T09:15:37Z</time>
      </trkpt>
      <trkpt lat="47.79639" lon="-3.62352">
        <ele>44</ele>
        <time>2021-08-14T09:15:38Z</time>
      </trkpt>
      <trkpt lat="47.79634" lon="-3.62352">
        <ele>44</ele>
        <time>2021-08-14T09:15:39Z</time>
      </trkpt>
      <trkpt lat="47.7963" lon="-3.62352">
        <ele>44.2</ele>
        <time>2021-08-14T09:15:40Z</time>
      </trkpt>
      <trkpt lat="47.79625" lon="-3.62353">
        <ele>44.2</ele>
        <time>2021-08-14T09:15:41Z</time>
      </trkpt>
      <trkpt lat="47.7962" lon="-3.62354">
        <ele>44.4</ele>
        <time>2021-08-14T09:15:42Z</time>
      </trkpt>
      <trkpt lat="47.79615" lon="-3.62355">
        <ele>44.4</ele>
        <time>2021-08-14T09:15:43Z</time>
      </trkpt>
      <trkpt lat="47.79611" lon="-3.62357">
        <ele>44.4</ele>
        <time>2021-08-14T09:15:44Z</time>
      </trkpt>
      <trkpt lat="47.79606" lon="-3.62359">
        <ele>44.4</ele>
        <time>2021-08-14T09:15:45Z</time>
      </trkpt>
      <trkpt lat="47.79601" lon="-3.62362">
        <ele>44.4</ele>
        <time>2021-08-14T09:15:46Z</time>
      </trkpt>
      <trkpt lat="47.79596" lon="-3.62365">
        <ele>44.4</ele>
        <time>2021-08-14T09:15:47Z</time>
      </trkpt>
      <trkpt lat="47.79591" lon="-3.62368">
        <ele>44.4</ele>
        <time>2021-08-14T09:15:48Z</time>
      </trkpt>
      <trkpt lat="47.79586" lon="-3.62371">
        <ele>44.4</ele>
        <time>2021-08-14T09:15:49Z</time>
      </trkpt>
      <trkpt lat="47.79581" lon="-3.62374">
        <ele>44.4</ele>
        <time>2021-08-14T09:15:50Z</time>
      </trkpt>
      <trkpt lat="47.79576" lon="-3.62377">
        <ele>44.4</ele>
        <time>2021-08-14T09:15:51Z</time>
      </trkpt>
      <trkpt lat="47.79571" lon="-3.62379">
        <ele>44.4</ele>
        <time>2021-08-14T09:15:52Z</time>
      </trkpt>
      <trkpt lat="47.79566" lon="-3.62382">
        <ele>44.4</ele>
        <time>2021-08-14T09:15:53Z</time>
      </trkpt>
      <trkpt lat="47.79561" lon="-3.62384">
        <ele>44.4</ele>
        <time>2021-08-14T09:15:54Z</time>
      </trkpt>
      <trkpt lat="47.79556" lon="-3.62387">
        <ele>44.2</ele>
        <time>2021-08-14T09:15:55Z</time>
      </trkpt>
      <trkpt lat="47.7955" lon="-3.62389">
        <ele>44.2</ele>
        <time>2021-08-14T09:15:56Z</time>
      </trkpt>
      <trkpt lat="47.79545" lon="-3.62392">
        <ele>44</ele>
        <time>2021-08-14T09:15:57Z</time>
      </trkpt>
      <trkpt lat="47.79539" lon="-3.62395">
        <ele>43.8</ele>
        <time>2021-08-14T09:15:58Z</time>
      </trkpt>
      <trkpt lat="47.79533" lon="-3.62397">
        <ele>43.8</ele>
        <time>2021-08-14T09:15:59Z</time>
      </trkpt>
      <trkpt lat="47.79528" lon="-3.624">
        <ele>43.6</ele>
        <time>2021-08-14T09:16:00Z</time>
      </trkpt>
      <trkpt lat="47.79522" lon="-3.62403">
        <ele>43.4</ele>
        <time>2021-08-14T09:16:01Z</time>
      </trkpt>
      <trkpt lat="47.79516" lon="-3.62406">
        <ele>43.4</ele>
        <time>2021-08-14T09:16:02Z</time>
      </trkpt>
      <trkpt lat="47.79511" lon="-3.62409">
        <ele>43.2</ele>
        <time>2021-08-14T09:16:03Z</time>
      </trkpt>
      <trkpt lat="47.79505" lon="-3.62412">
        <ele>43.2</ele>
        <time>2021-08-14T09:16:04Z</time>
      </trkpt>
      <trkpt lat="47.795" lon="-3.62415">
        <ele>43</ele>
        <time>2021-08-14T09:16:05Z</time>
      </trkpt>
      <trkpt lat="47.79494" lon="-3.62418">
        <ele>43</ele>
        <time>2021-08-14T09:16:06Z</time>
      </trkpt>
      <trkpt lat="47.79489" lon="-3.62421">
        <ele>43</ele>
        <time>2021-08-14T09:16:07Z</time>
      </trkpt>
      <trkpt lat="47.79484" lon="-3.62424">
        <ele>43</ele>
        <time>2021-08-14T09:16:08Z</time>
      </trkpt>
      <trkpt lat="47.79479" lon="-3.62427">
        <ele>43</ele>
        <time>2021-08-14T09:16:09Z</time>
      </trkpt>
      <trkpt lat="47.79474" lon="-3.6243">
        <ele>43</ele>
        <time>2021-08-14T09:16:10Z</time>
      </trkpt>
      <trkpt lat="47.79469" lon="-3.62432">
        <ele>43</ele>
        <time>2021-08-14T09:16:11Z</time>
      </trkpt>
      <trkpt lat="47.79463" lon="-3.62434">
        <ele>42.8</ele>
        <time>2021-08-14T09:16:12Z</time>
      </trkpt>
      <trkpt lat="47.79458" lon="-3.62435">
        <ele>42.8</ele>
        <time>2021-08-14T09:16:13Z</time>
      </trkpt>
      <trkpt lat="47.79453" lon="-3.62437">
        <ele>42.8</ele>
        <time>2021-08-14T09:16:14Z</time>
      </trkpt>
      <trkpt lat="47.79448" lon="-3.62438">
        <ele>42.8</ele>
        <time>2021-08-14T09:16:15Z</time>
      </trkpt>
      <trkpt lat="47.79443" lon="-3.6244">
        <ele>42.8</ele>
        <time>2021-08-14T09:16:16Z</time>
      </trkpt>
      <trkpt lat="47.79438" lon="-3.62441">
        <ele>42.8</ele>
        <time>2021-08-14T09:16:17Z</time>
      </trkpt>
      <trkpt lat="47.79433" lon="-3.62443">
        <ele>43</ele>
        <time>2021-08-14T09:16:18Z</time>
      </trkpt>
      <trkpt lat="47.79428" lon="-3.62444">
        <ele>43</ele>
        <time>2021-08-14T09:16:19Z</time>
      </trkpt>
      <trkpt lat="47.79423" lon="-3.62446">
        <ele>43</ele>
        <time>2021-08-14T09:16:20Z</time>
      </trkpt>
      <trkpt lat="47.79418" lon="-3.62447">
        <ele>43</ele>
        <time>2021-08-14T09:16:21Z</time>
      </trkpt>
      <trkpt lat="47.79413" lon="-3.62448">
        <ele>43</ele>
        <time>2021-08-14T09:16:22Z</time>
      </trkpt>
      <trkpt lat="47.79407" lon="-3.6245">
        <ele>43</ele>
        <time>2021-08-14T09:16:23Z</time>
      </trkpt>
      <trkpt lat="47.79402" lon="-3.62451">
        <ele>43</ele>
        <time>2021-08-14T09:16:24Z</time>
      </trkpt>
      <trkpt lat="47.79397" lon="-3.62452">
        <ele>43</ele>
        <time>2021-08-14T09:16:25Z</time>
      </trkpt>
      <trkpt lat="47.79392" lon="-3.62453">
        <ele>43</ele>
        <time>2021-08-14T09:16:26Z</time>
      </trkpt>
      <trkpt lat="47.79387" lon="-3.62454">
        <ele>43</ele>
        <time>2021-08-14T09:16:27Z</time>
      </trkpt>
      <trkpt lat="47.79381" lon="-3.62455">
        <ele>43.2</ele>
        <time>2021-08-14T09:16:28Z</time>
      </trkpt>
      <trkpt lat="47.79376" lon="-3.62456">
        <ele>43.2</ele>
        <time>2021-08-14T09:16:29Z</time>
      </trkpt>
      <trkpt lat="47.79371" lon="-3.62456">
        <ele>43.2</ele>
        <time>2021-08-14T09:16:30Z</time>
      </trkpt>
      <trkpt lat="47.79366" lon="-3.62456">
        <ele>43.2</ele>
        <time>2021-08-14T09:16:31Z</time>
      </trkpt>
      <trkpt lat="47.7936" lon="-3.62457">
        <ele>43.4</ele>
        <time>2021-08-14T09:16:32Z</time>
      </trkpt>
      <trkpt lat="47.79355" lon="-3.62458">
        <ele>43.4</ele>
        <time>2021-08-14T09:16:33Z</time>
      </trkpt>
      <trkpt lat="47.7935" lon="-3.62459">
        <ele>43.6</ele>
        <time>2021-08-14T09:16:34Z</time>
      </trkpt>
      <trkpt lat="47.79346" lon="-3.62459">
        <ele>43.6</ele>
        <time>2021-08-14T09:16:35Z</time>
      </trkpt>
      <trkpt lat="47.79341" lon="-3.6246">
        <ele>43.8</ele>
        <time>2021-08-14T09:16:36Z</time>
      </trkpt>
      <trkpt lat="47.79336" lon="-3.62461">
        <ele>43.8</ele>
        <time>2021-08-14T09:16:37Z</time>
      </trkpt>
      <trkpt lat="47.79331" lon="-3.62461">
        <ele>43.8</ele>
        <time>2021-08-14T09:16:38Z</time>
      </trkpt>
      <trkpt lat="47.79326" lon="-3.62462">
        <ele>43.8</ele>
        <time>2021-08-14T09:16:39Z</time>
      </trkpt>
      <trkpt lat="47.79321" lon="-3.62462">
        <ele>44</ele>
        <time>2021-08-14T09:16:40Z</time>
      </trkpt>
      <trkpt lat="47.79317" lon="-3.62463">
        <ele>44</ele>
        <time>2021-08-14T09:16:41Z</time>
      </trkpt>
      <trkpt lat="47.79312" lon="-3.62463">
        <ele>44</ele>
        <time>2021-08-14T09:16:42Z</time>
      </trkpt>
      <trkpt lat="47.79306" lon="-3.62464">
        <ele>44</ele>
        <time>2021-08-14T09:16:43Z</time>
      </trkpt>
      <trkpt lat="47.79301" lon="-3.62465">
        <ele>44</ele>
        <time>2021-08-14T09:16:44Z</time>
      </trkpt>
      <trkpt lat="47.79296" lon="-3.62467">
        <ele>44</ele>
        <time>2021-08-14T09:16:45Z</time>
      </trkpt>
      <trkpt lat="47.7929" lon="-3.62468">
        <ele>44</ele>
        <time>2021-08-14T09:16:46Z</time>
      </trkpt>
      <trkpt lat="47.79284" lon="-3.62469">
        <ele>44</ele>
        <time>2021-08-14T09:16:47Z</time>
      </trkpt>
      <trkpt lat="47.79278" lon="-3.6247">
        <ele>44</ele>
        <time>2021-08-14T09:16:48Z</time>
      </trkpt>
      <trkpt lat="47.79271" lon="-3.62472">
        <ele>44</ele>
        <time>2021-08-14T09:16:49Z</time>
      </trkpt>
      <trkpt lat="47.79265" lon="-3.62473">
        <ele>44</ele>
        <time>2021-08-14T09:16:50Z</time>
      </trkpt>
      <trkpt lat="47.79258" lon="-3.62475">
        <ele>44</ele>
        <time>2021-08-14T09:16:51Z</time>
      </trkpt>
      <trkpt lat="47.79251" lon="-3.62478">
        <ele>44</ele>
        <time>2021-08-14T09:16:52Z</time>
      </trkpt>
      <trkpt lat="47.79243" lon="-3.6248">
        <ele>43.6</ele>
        <time>2021-08-14T09:16:53Z</time>
      </trkpt>
      <trkpt lat="47.79235" lon="-3.62483">
        <ele>43.4</ele>
        <time>2021-08-14T09:16:54Z</time>
      </trkpt>
      <trkpt lat="47.79227" lon="-3.62485">
        <ele>43.2</ele>
        <time>2021-08-14T09:16:55Z</time>
      </trkpt>
      <trkpt lat="47.79218" lon="-3.62488">
        <ele>42.8</ele>
        <time>2021-08-14T09:16:56Z</time>
      </trkpt>
      <trkpt lat="47.7921" lon="-3.6249">
        <ele>42.6</ele>
        <time>2021-08-14T09:16:57Z</time>
      </trkpt>
      <trkpt lat="47.79202" lon="-3.62491">
        <ele>42.2</ele>
        <time>2021-08-14T09:16:58Z</time>
      </trkpt>
      <trkpt lat="47.79194" lon="-3.62493">
        <ele>41.6</ele>
        <time>2021-08-14T09:16:59Z</time>
      </trkpt>
      <trkpt lat="47.79187" lon="-3.62495">
        <ele>40.8</ele>
        <time>2021-08-14T09:17:00Z</time>
      </trkpt>
      <trkpt lat="47.79179" lon="-3.62496">
        <ele>40.4</ele>
        <time>2021-08-14T09:17:01Z</time>
      </trkpt>
      <trkpt lat="47.79172" lon="-3.62498">
        <ele>39.8</ele>
        <time>2021-08-14T09:17:02Z</time>
      </trkpt>
      <trkpt lat="47.79164" lon="-3.625">
        <ele>39</ele>
        <time>2021-08-14T09:17:03Z</time>
      </trkpt>
      <trkpt lat="47.79157" lon="-3.62501">
        <ele>38.4</ele>
        <time>2021-08-14T09:17:04Z</time>
      </trkpt>
      <trkpt lat="47.7915" lon="-3.62503">
        <ele>38</ele>
        <time>2021-08-14T09:17:05Z</time>
      </trkpt>
      <trkpt lat="47.79143" lon="-3.62504">
        <ele>37.8</ele>
        <time>2021-08-14T09:17:06Z</time>
      </trkpt>
      <trkpt lat="47.79136" lon="-3.62506">
        <ele>37.6</ele>
        <time>2021-08-14T09:17:07Z</time>
      </trkpt>
      <trkpt lat="47.79129" lon="-3.62508">
        <ele>37.6</ele>
        <time>2021-08-14T09:17:08Z</time>
      </trkpt>
      <trkpt lat="47.79122" lon="-3.62511">
        <ele>37.4</ele>
        <time>2021-08-14T09:17:09Z</time>
      </trkpt>
      <trkpt lat="47.79115" lon="-3.62514">
        <ele>37.2</ele>
        <time>2021-08-14T09:17:10Z</time>
      </trkpt>
      <trkpt lat="47.79108" lon="-3.62517">
        <ele>37.2</ele>
        <time>2021-08-14T09:17:11Z</time>
      </trkpt>
      <trkpt lat="47.79102" lon="-3.6252">
        <ele>37.2</ele>
        <time>2021-08-14T09:17:12Z</time>
      </trkpt>
      <trkpt lat="47.79096" lon="-3.62523">
        <ele>37</ele>
        <time>2021-08-14T09:17:13Z</time>
      </trkpt>
      <trkpt lat="47.7909" lon="-3.62526">
        <ele>37</ele>
        <time>2021-08-14T09:17:14Z</time>
      </trkpt>
      <trkpt lat="47.79084" lon="-3.62529">
        <ele>36.8</ele>
        <time>2021-08-14T09:17:15Z</time>
      </trkpt>
      <trkpt lat="47.79078" lon="-3.62532">
        <ele>36.6</ele>
        <time>2021-08-14T09:17:16Z</time>
      </trkpt>
      <trkpt lat="47.79072" lon="-3.62535">
        <ele>36.4</ele>
        <time>2021-08-14T09:17:17Z</time>
      </trkpt>
      <trkpt lat="47.79066" lon="-3.62538">
        <ele>36.2</ele>
        <time>2021-08-14T09:17:18Z</time>
      </trkpt>
      <trkpt lat="47.79061" lon="-3.62539">
        <ele>35.8</ele>
        <time>2021-08-14T09:17:19Z</time>
      </trkpt>
      <trkpt lat="47.79055" lon="-3.6254">
        <ele>35.6</ele>
        <time>2021-08-14T09:17:20Z</time>
      </trkpt>
      <trkpt lat="47.7905" lon="-3.6254">
        <ele>35.4</ele>
        <time>2021-08-14T09:17:21Z</time>
      </trkpt>
      <trkpt lat="47.79045" lon="-3.62539">
        <ele>35.2</ele>
        <time>2021-08-14T09:17:22Z</time>
      </trkpt>
      <trkpt lat="47.7904" lon="-3.62537">
        <ele>35</ele>
        <time>2021-08-14T09:17:23Z</time>
      </trkpt>
      <trkpt lat="47.79037" lon="-3.62532">
        <ele>35</ele>
        <time>2021-08-14T09:17:24Z</time>
      </trkpt>
      <trkpt lat="47.79035" lon="-3.62526">
        <ele>34.8</ele>
        <time>2021-08-14T09:17:25Z</time>
      </trkpt>
      <trkpt lat="47.79034" lon="-3.62519">
        <ele>34.8</ele>
        <time>2021-08-14T09:17:26Z</time>
      </trkpt>
      <trkpt lat="47.79034" lon="-3.62511">
        <ele>34.6</ele>
        <time>2021-08-14T09:17:27Z</time>
      </trkpt>
      <trkpt lat="47.79034" lon="-3.62503">
        <ele>34.6</ele>
        <time>2021-08-14T09:17:28Z</time>
      </trkpt>
      <trkpt lat="47.79034" lon="-3.62495">
        <ele>34.6</ele>
        <time>2021-08-14T09:17:29Z</time>
      </trkpt>
      <trkpt lat="47.79034" lon="-3.62487">
        <ele>34.4</ele>
        <time>2021-08-14T09:17:30Z</time>
      </trkpt>
      <trkpt lat="47.79035" lon="-3.62479">
        <ele>34.4</ele>
        <time>2021-08-14T09:17:31Z</time>
      </trkpt>
      <trkpt lat="47.79034" lon="-3.6247">
        <ele>34.4</ele>
        <time>2021-08-14T09:17:32Z</time>
      </trkpt>
      <trkpt lat="47.79035" lon="-3.62462">
        <ele>34.4</ele>
        <time>2021-08-14T09:17:33Z</time>
      </trkpt>
      <trkpt lat="47.79034" lon="-3.62453">
        <ele>34.4</ele>
        <time>2021-08-14T09:17:34Z</time>
      </trkpt>
      <trkpt lat="47.79034" lon="-3.62444">
        <ele>34.4</ele>
        <time>2021-08-14T09:17:35Z</time>
      </trkpt>
      <trkpt lat="47.79034" lon="-3.62434">
        <ele>34.4</ele>
        <time>2021-08-14T09:17:36Z</time>
      </trkpt>
      <trkpt lat="47.79034" lon="-3.62425">
        <ele>34.4</ele>
        <time>2021-08-14T09:17:37Z</time>
      </trkpt>
      <trkpt lat="47.79034" lon="-3.62416">
        <ele>34.4</ele>
        <time>2021-08-14T09:17:38Z</time>
      </trkpt>
      <trkpt lat="47.79035" lon="-3.62407">
        <ele>34.4</ele>
        <time>2021-08-14T09:17:39Z</time>
      </trkpt>
      <trkpt lat="47.79035" lon="-3.62397">
        <ele>34.4</ele>
        <time>2021-08-14T09:17:40Z</time>
      </trkpt>
      <trkpt lat="47.79035" lon="-3.62388">
        <ele>34.2</ele>
        <time>2021-08-14T09:17:41Z</time>
      </trkpt>
      <trkpt lat="47.79035" lon="-3.6238">
        <ele>34.4</ele>
        <time>2021-08-14T09:17:42Z</time>
      </trkpt>
      <trkpt lat="47.79035" lon="-3.62371">
        <ele>34.4</ele>
        <time>2021-08-14T09:17:43Z</time>
      </trkpt>
      <trkpt lat="47.79035" lon="-3.62363">
        <ele>34.4</ele>
        <time>2021-08-14T09:17:44Z</time>
      </trkpt>
      <trkpt lat="47.79036" lon="-3.62354">
        <ele>34.4</ele>
        <time>2021-08-14T09:17:45Z</time>
      </trkpt>
      <trkpt lat="47.79036" lon="-3.62346">
        <ele>34.4</ele>
        <time>2021-08-14T09:17:46Z</time>
      </trkpt>
      <trkpt lat="47.79036" lon="-3.62338">
        <ele>34.4</ele>
        <time>2021-08-14T09:17:47Z</time>
      </trkpt>
      <trkpt lat="47.79036" lon="-3.6233">
        <ele>34.4</ele>
        <time>2021-08-14T09:17:48Z</time>
      </trkpt>
      <trkpt lat="47.79036" lon="-3.62323">
        <ele>34.4</ele>
        <time>2021-08-14T09:17:49Z</time>
      </trkpt>
      <trkpt lat="47.79036" lon="-3.62315">
        <ele>34.4</ele>
        <time>2021-08-14T09:17:50Z</time>
      </trkpt>
      <trkpt lat="47.79036" lon="-3.62308">
        <ele>34.4</ele>
        <time>2021-08-14T09:17:51Z</time>
      </trkpt>
      <trkpt lat="47.79036" lon="-3.623">
        <ele>34.4</ele>
        <time>2021-08-14T09:17:52Z</time>
      </trkpt>
      <trkpt lat="47.79036" lon="-3.62292">
        <ele>34.4</ele>
        <time>2021-08-14T09:17:53Z</time>
      </trkpt>
      <trkpt lat="47.79035" lon="-3.62284">
        <ele>34.4</ele>
        <time>2021-08-14T09:17:54Z</time>
      </trkpt>
      <trkpt lat="47.79035" lon="-3.62275">
        <ele>34.4</ele>
        <time>2021-08-14T09:17:55Z</time>
      </trkpt>
      <trkpt lat="47.79034" lon="-3.62267">
        <ele>34.4</ele>
        <time>2021-08-14T09:17:56Z</time>
      </trkpt>
      <trkpt lat="47.79034" lon="-3.62258">
        <ele>34.4</ele>
        <time>2021-08-14T09:17:57Z</time>
      </trkpt>
      <trkpt lat="47.79033" lon="-3.6225">
        <ele>34.4</ele>
        <time>2021-08-14T09:17:58Z</time>
      </trkpt>
      <trkpt lat="47.79032" lon="-3.62242">
        <ele>34.4</ele>
        <time>2021-08-14T09:17:59Z</time>
      </trkpt>
      <trkpt lat="47.79031" lon="-3.62234">
        <ele>34.4</ele>
        <time>2021-08-14T09:18:00Z</time>
      </trkpt>
      <trkpt lat="47.79029" lon="-3.62226">
        <ele>34.4</ele>
        <time>2021-08-14T09:18:01Z</time>
      </trkpt>
      <trkpt lat="47.79028" lon="-3.62219">
        <ele>34.4</ele>
        <time>2021-08-14T09:18:02Z</time>
      </trkpt>
      <trkpt lat="47.79026" lon="-3.62211">
        <ele>34.4</ele>
        <time>2021-08-14T09:18:03Z</time>
      </trkpt>
      <trkpt lat="47.79025" lon="-3.62204">
        <ele>34.2</ele>
        <time>2021-08-14T09:18:04Z</time>
      </trkpt>
      <trkpt lat="47.79023" lon="-3.62197">
        <ele>34.2</ele>
        <time>2021-08-14T09:18:05Z</time>
      </trkpt>
      <trkpt lat="47.79021" lon="-3.6219">
        <ele>34.2</ele>
        <time>2021-08-14T09:18:06Z</time>
      </trkpt>
      <trkpt lat="47.79019" lon="-3.62183">
        <ele>34.2</ele>
        <time>2021-08-14T09:18:07Z</time>
      </trkpt>
      <trkpt lat="47.79017" lon="-3.62176">
        <ele>34.2</ele>
        <time>2021-08-14T09:18:08Z</time>
      </trkpt>
      <trkpt lat="47.79015" lon="-3.62169">
        <ele>34.2</ele>
        <time>2021-08-14T09:18:09Z</time>
      </trkpt>
      <trkpt lat="47.79013" lon="-3.62161">
        <ele>34</ele>
        <time>2021-08-14T09:18:10Z</time>
      </trkpt>
      <trkpt lat="47.79011" lon="-3.62153">
        <ele>34</ele>
        <time>2021-08-14T09:18:11Z</time>
      </trkpt>
      <trkpt lat="47.79009" lon="-3.62146">
        <ele>34</ele>
        <time>2021-08-14T09:18:12Z</time>
      </trkpt>
      <trkpt lat="47.79008" lon="-3.62138">
        <ele>34</ele>
        <time>2021-08-14T09:18:13Z</time>
      </trkpt>
      <trkpt lat="47.79007" lon="-3.6213">
        <ele>34</ele>
        <time>2021-08-14T09:18:14Z</time>
      </trkpt>
      <trkpt lat="47.79006" lon="-3.62121">
        <ele>34</ele>
        <time>2021-08-14T09:18:15Z</time>
      </trkpt>
      <trkpt lat="47.79004" lon="-3.62113">
        <ele>34</ele>
        <time>2021-08-14T09:18:16Z</time>
      </trkpt>
      <trkpt lat="47.79003" lon="-3.62105">
        <ele>33.8</ele>
        <time>2021-08-14T09:18:17Z</time>
      </trkpt>
      <trkpt lat="47.79002" lon="-3.62098">
        <ele>33.8</ele>
        <time>2021-08-14T09:18:18Z</time>
      </trkpt>
      <trkpt lat="47.79001" lon="-3.62091">
        <ele>33.8</ele>
        <time>2021-08-14T09:18:19Z</time>
      </trkpt>
      <trkpt lat="47.79" lon="-3.62084">
        <ele>33.8</ele>
        <time>2021-08-14T09:18:20Z</time>
      </trkpt>
      <trkpt lat="47.79" lon="-3.62077">
        <ele>33.8</ele>
        <time>2021-08-14T09:18:21Z</time>
      </trkpt>
      <trkpt lat="47.79" lon="-3.62071">
        <ele>33.8</ele>
        <time>2021-08-14T09:18:22Z</time>
      </trkpt>
      <trkpt lat="47.79" lon="-3.62064">
        <ele>33.8</ele>
        <time>2021-08-14T09:18:23Z</time>
      </trkpt>
      <trkpt lat="47.79001" lon="-3.62058">
        <ele>33.8</ele>
        <time>2021-08-14T09:18:24Z</time>
      </trkpt>
      <trkpt lat="47.79001" lon="-3.62051">
        <ele>33.8</ele>
        <time>2021-08-14T09:18:25Z</time>
      </trkpt>
      <trkpt lat="47.79001" lon="-3.62046">
        <ele>34</ele>
        <time>2021-08-14T09:18:26Z</time>
      </trkpt>
      <trkpt lat="47.79001" lon="-3.6204">
        <ele>34.2</ele>
        <time>2021-08-14T09:18:27Z</time>
      </trkpt>
      <trkpt lat="47.79001" lon="-3.62035">
        <ele>34.4</ele>
        <time>2021-08-14T09:18:28Z</time>
      </trkpt>
      <trkpt lat="47.79001" lon="-3.62029">
        <ele>34.6</ele>
        <time>2021-08-14T09:18:29Z</time>
      </trkpt>
      <trkpt lat="47.79001" lon="-3.62023">
        <ele>35</ele>
        <time>2021-08-14T09:18:30Z</time>
      </trkpt>
      <trkpt lat="47.79001" lon="-3.62017">
        <ele>35.2</ele>
        <time>2021-08-14T09:18:31Z</time>
      </trkpt>
      <trkpt lat="47.79002" lon="-3.62011">
        <ele>35.4</ele>
        <time>2021-08-14T09:18:32Z</time>
      </trkpt>
      <trkpt lat="47.79002" lon="-3.62005">
        <ele>35.6</ele>
        <time>2021-08-14T09:18:33Z</time>
      </trkpt>
      <trkpt lat="47.79001" lon="-3.62">
        <ele>36</ele>
        <time>2021-08-14T09:18:34Z</time>
      </trkpt>
      <trkpt lat="47.79002" lon="-3.61994">
        <ele>36</ele>
        <time>2021-08-14T09:18:35Z</time>
      </trkpt>
      <trkpt lat="47.79002" lon="-3.61988">
        <ele>36.2</ele>
        <time>2021-08-14T09:18:36Z</time>
      </trkpt>
      <trkpt lat="47.79002" lon="-3.61982">
        <ele>36.2</ele>
        <time>2021-08-14T09:18:37Z</time>
      </trkpt>
      <trkpt lat="47.79002" lon="-3.61976">
        <ele>36.4</ele>
        <time>2021-08-14T09:18:38Z</time>
      </trkpt>
      <trkpt lat="47.79003" lon="-3.6197">
        <ele>36.6</ele>
        <time>2021-08-14T09:18:39Z</time>
      </trkpt>
      <trkpt lat="47.79003" lon="-3.61963">
        <ele>36.8</ele>
        <time>2021-08-14T09:18:40Z</time>
      </trkpt>
      <trkpt lat="47.79003" lon="-3.61957">
        <ele>37</ele>
        <time>2021-08-14T09:18:41Z</time>
      </trkpt>
      <trkpt lat="47.79003" lon="-3.61951">
        <ele>37.2</ele>
        <time>2021-08-14T09:18:42Z</time>
      </trkpt>
      <trkpt lat="47.79002" lon="-3.61946">
        <ele>37.2</ele>
        <time>2021-08-14T09:18:43Z</time>
      </trkpt>
      <trkpt lat="47.79001" lon="-3.6194">
        <ele>37.4</ele>
        <time>2021-08-14T09:18:44Z</time>
      </trkpt>
      <trkpt lat="47.79" lon="-3.61935">
        <ele>37.4</ele>
        <time>2021-08-14T09:18:45Z</time>
      </trkpt>
      <trkpt lat="47.79" lon="-3.61931">
        <ele>37.6</ele>
        <time>2021-08-14T09:18:46Z</time>
      </trkpt>
      <trkpt lat="47.79" lon="-3.61926">
        <ele>37.6</ele>
        <time>2021-08-14T09:18:47Z</time>
      </trkpt>
      <trkpt lat="47.79002" lon="-3.61922">
        <ele>37.8</ele>
        <time>2021-08-14T09:18:48Z</time>
      </trkpt>
      <trkpt lat="47.79005" lon="-3.6192">
        <ele>37.8</ele>
        <time>2021-08-14T09:18:49Z</time>
      </trkpt>
      <trkpt lat="47.79009" lon="-3.61917">
        <ele>37.8</ele>
        <time>2021-08-14T09:18:50Z</time>
      </trkpt>
      <trkpt lat="47.79013" lon="-3.61915">
        <ele>37.8</ele>
        <time>2021-08-14T09:18:51Z</time>
      </trkpt>
      <trkpt lat="47.79017" lon="-3.61911">
        <ele>37.8</ele>
        <time>2021-08-14T09:18:52Z</time>
      </trkpt>
      <trkpt lat="47.79022" lon="-3.61907">
        <ele>37.8</ele>
        <time>2021-08-14T09:18:53Z</time>
      </trkpt>
      <trkpt lat="47.79027" lon="-3.61903">
        <ele>37.8</ele>
        <time>2021-08-14T09:18:54Z</time>
      </trkpt>
      <trkpt lat="47.79032" lon="-3.61899">
        <ele>37.8</ele>
        <time>2021-08-14T09:18:55Z</time>
      </trkpt>
      <trkpt lat="47.79036" lon="-3.61896">
        <ele>37.8</ele>
        <time>2021-08-14T09:18:56Z</time>
      </trkpt>
      <trkpt lat="47.79041" lon="-3.61891">
        <ele>37.8</ele>
        <time>2021-08-14T09:18:57Z</time>
      </trkpt>
      <trkpt lat="47.79046" lon="-3.61886">
        <ele>37.8</ele>
        <time>2021-08-14T09:18:58Z</time>
      </trkpt>
      <trkpt lat="47.7905" lon="-3.61881">
        <ele>37.6</ele>
        <time>2021-08-14T09:18:59Z</time>
      </trkpt>
      <trkpt lat="47.79053" lon="-3.61874">
        <ele>37.6</ele>
        <time>2021-08-14T09:19:00Z</time>
      </trkpt>
      <trkpt lat="47.79057" lon="-3.61867">
        <ele>37.6</ele>
        <time>2021-08-14T09:19:01Z</time>
      </trkpt>
      <trkpt lat="47.79059" lon="-3.61859">
        <ele>37.4</ele>
        <time>2021-08-14T09:19:02Z</time>
      </trkpt>
      <trkpt lat="47.79061" lon="-3.61851">
        <ele>37.2</ele>
        <time>2021-08-14T09:19:03Z</time>
      </trkpt>
      <trkpt lat="47.79062" lon="-3.61843">
        <ele>36.8</ele>
        <time>2021-08-14T09:19:04Z</time>
      </trkpt>
      <trkpt lat="47.79062" lon="-3.61835">
        <ele>36.6</ele>
        <time>2021-08-14T09:19:05Z</time>
      </trkpt>
      <trkpt lat="47.79061" lon="-3.61827">
        <ele>36.4</ele>
        <time>2021-08-14T09:19:06Z</time>
      </trkpt>
      <trkpt lat="47.79061" lon="-3.6182">
        <ele>36.2</ele>
        <time>2021-08-14T09:19:07Z</time>
      </trkpt>
      <trkpt lat="47.7906" lon="-3.61812">
        <ele>36.2</ele>
        <time>2021-08-14T09:19:08Z</time>
      </trkpt>
      <trkpt lat="47.79059" lon="-3.61805">
        <ele>36.2</ele>
        <time>2021-08-14T09:19:09Z</time>
      </trkpt>
      <trkpt lat="47.79057" lon="-3.61797">
        <ele>36.2</ele>
        <time>2021-08-14T09:19:10Z</time>
      </trkpt>
      <trkpt lat="47.79056" lon="-3.6179">
        <ele>36.2</ele>
        <time>2021-08-14T09:19:11Z</time>
      </trkpt>
      <trkpt lat="47.79055" lon="-3.61783">
        <ele>36.2</ele>
        <time>2021-08-14T09:19:12Z</time>
      </trkpt>
      <trkpt lat="47.79054" lon="-3.61776">
        <ele>36.2</ele>
        <time>2021-08-14T09:19:13Z</time>
      </trkpt>
      <trkpt lat="47.79052" lon="-3.61769">
        <ele>36.2</ele>
        <time>2021-08-14T09:19:14Z</time>
      </trkpt>
      <trkpt lat="47.79051" lon="-3.61762">
        <ele>36.2</ele>
        <time>2021-08-14T09:19:15Z</time>
      </trkpt>
      <trkpt lat="47.7905" lon="-3.61755">
        <ele>36.4</ele>
        <time>2021-08-14T09:19:16Z</time>
      </trkpt>
      <trkpt lat="47.79048" lon="-3.61748">
        <ele>36.2</ele>
        <time>2021-08-14T09:19:17Z</time>
      </trkpt>
      <trkpt lat="47.79047" lon="-3.61742">
        <ele>36.4</ele>
        <time>2021-08-14T09:19:18Z</time>
      </trkpt>
      <trkpt lat="47.79046" lon="-3.61735">
        <ele>36.6</ele>
        <time>2021-08-14T09:19:19Z</time>
      </trkpt>
      <trkpt lat="47.79045" lon="-3.61728">
        <ele>36.6</ele>
        <time>2021-08-14T09:19:20Z</time>
      </trkpt>
      <trkpt lat="47.79044" lon="-3.61721">
        <ele>36.8</ele>
        <time>2021-08-14T09:19:21Z</time>
      </trkpt>
      <trkpt lat="47.79043" lon="-3.61715">
        <ele>36.6</ele>
        <time>2021-08-14T09:19:22Z</time>
      </trkpt>
      <trkpt lat="47.79042" lon="-3.61708">
        <ele>36.6</ele>
        <time>2021-08-14T09:19:23Z</time>
      </trkpt>
      <trkpt lat="47.79042" lon="-3.61701">
        <ele>36.6</ele>
        <time>2021-08-14T09:19:24Z</time>
      </trkpt>
      <trkpt lat="47.79041" lon="-3.61694">
        <ele>37</ele>
        <time>2021-08-14T09:19:25Z</time>
      </trkpt>
      <trkpt lat="47.7904" lon="-3.61687">
        <ele>37</ele>
        <time>2021-08-14T09:19:26Z</time>
      </trkpt>
      <trkpt lat="47.79039" lon="-3.6168">
        <ele>37</ele>
        <time>2021-08-14T09:19:27Z</time>
      </trkpt>
      <trkpt lat="47.79038" lon="-3.61672">
        <ele>36.8</ele>
        <time>2021-08-14T09:19:28Z</time>
      </trkpt>
      <trkpt lat="47.79037" lon="-3.61665">
        <ele>36.8</ele>
        <time>2021-08-14T09:19:29Z</time>
      </trkpt>
      <trkpt lat="47.79036" lon="-3.61657">
        <ele>36.8</ele>
        <time>2021-08-14T09:19:30Z</time>
      </trkpt>
      <trkpt lat="47.79035" lon="-3.6165">
        <ele>36.8</ele>
        <time>2021-08-14T09:19:31Z</time>
      </trkpt>
      <trkpt lat="47.79034" lon="-3.61642">
        <ele>36.8</ele>
        <time>2021-08-14T09:19:32Z</time>
      </trkpt>
      <trkpt lat="47.79033" lon="-3.61635">
        <ele>36.8</ele>
        <time>2021-08-14T09:19:33Z</time>
      </trkpt>
      <trkpt lat="47.79033" lon="-3.61627">
        <ele>36.6</ele>
        <time>2021-08-14T09:19:34Z</time>
      </trkpt>
      <trkpt lat="47.79032" lon="-3.6162">
        <ele>36.6</ele>
        <time>2021-08-14T09:19:35Z</time>
      </trkpt>
      <trkpt lat="47.79031" lon="-3.61612">
        <ele>36.6</ele>
        <time>2021-08-14T09:19:36Z</time>
      </trkpt>
      <trkpt lat="47.7903" lon="-3.61605">
        <ele>36.4</ele>
        <time>2021-08-14T09:19:37Z</time>
      </trkpt>
      <trkpt lat="47.7903" lon="-3.61597">
        <ele>36.4</ele>
        <time>2021-08-14T09:19:38Z</time>
      </trkpt>
      <trkpt lat="47.79029" lon="-3.6159">
        <ele>36.2</ele>
        <time>2021-08-14T09:19:39Z</time>
      </trkpt>
      <trkpt lat="47.79029" lon="-3.61582">
        <ele>36.2</ele>
        <time>2021-08-14T09:19:40Z</time>
      </trkpt>
      <trkpt lat="47.79028" lon="-3.61575">
        <ele>36.2</ele>
        <time>2021-08-14T09:19:41Z</time>
      </trkpt>
      <trkpt lat="47.79028" lon="-3.61567">
        <ele>36.2</ele>
        <time>2021-08-14T09:19:42Z</time>
      </trkpt>
      <trkpt lat="47.79028" lon="-3.6156">
        <ele>36</ele>
        <time>2021-08-14T09:19:43Z</time>
      </trkpt>
      <trkpt lat="47.79028" lon="-3.61552">
        <ele>36</ele>
        <time>2021-08-14T09:19:44Z</time>
      </trkpt>
      <trkpt lat="47.79028" lon="-3.61545">
        <ele>36</ele>
        <time>2021-08-14T09:19:45Z</time>
      </trkpt>
      <trkpt lat="47.79028" lon="-3.61537">
        <ele>36</ele>
        <time>2021-08-14T09:19:46Z</time>
      </trkpt>
      <trkpt lat="47.79028" lon="-3.61529">
        <ele>36</ele>
        <time>2021-08-14T09:19:47Z</time>
      </trkpt>
      <trkpt lat="47.79027" lon="-3.61521">
        <ele>36</ele>
        <time>2021-08-14T09:19:48Z</time>
      </trkpt>
      <trkpt lat="47.79027" lon="-3.61513">
        <ele>36</ele>
        <time>2021-08-14T09:19:49Z</time>
      </trkpt>
      <trkpt lat="47.79026" lon="-3.61505">
        <ele>35.8</ele>
        <time>2021-08-14T09:19:50Z</time>
      </trkpt>
      <trkpt lat="47.79025" lon="-3.61497">
        <ele>35.8</ele>
        <time>2021-08-14T09:19:51Z</time>
      </trkpt>
      <trkpt lat="47.79023" lon="-3.61489">
        <ele>35.6</ele>
        <time>2021-08-14T09:19:52Z</time>
      </trkpt>
      <trkpt lat="47.79022" lon="-3.61481">
        <ele>35.6</ele>
        <time>2021-08-14T09:19:53Z</time>
      </trkpt>
      <trkpt lat="47.7902" lon="-3.61473">
        <ele>35.6</ele>
        <time>2021-08-14T09:19:54Z</time>
      </trkpt>
      <trkpt lat="47.79019" lon="-3.61465">
        <ele>35.4</ele>
        <time>2021-08-14T09:19:55Z</time>
      </trkpt>
      <trkpt lat="47.79018" lon="-3.61457">
        <ele>35.4</ele>
        <time>2021-08-14T09:19:56Z</time>
      </trkpt>
      <trkpt lat="47.79017" lon="-3.61449">
        <ele>35</ele>
        <time>2021-08-14T09:19:57Z</time>
      </trkpt>
      <trkpt lat="47.79015" lon="-3.61441">
        <ele>34.8</ele>
        <time>2021-08-14T09:19:58Z</time>
      </trkpt>
      <trkpt lat="47.79012" lon="-3.61432">
        <ele>34.6</ele>
        <time>2021-08-14T09:19:59Z</time>
      </trkpt>
      <trkpt lat="47.79011" lon="-3.61423">
        <ele>34.6</ele>
        <time>2021-08-14T09:20:00Z</time>
      </trkpt>
      <trkpt lat="47.79009" lon="-3.61414">
        <ele>34.4</ele>
        <time>2021-08-14T09:20:01Z</time>
      </trkpt>
      <trkpt lat="47.79007" lon="-3.61405">
        <ele>34.2</ele>
        <time>2021-08-14T09:20:02Z</time>
      </trkpt>
      <trkpt lat="47.79006" lon="-3.61396">
        <ele>33.8</ele>
        <time>2021-08-14T09:20:03Z</time>
      </trkpt>
      <trkpt lat="47.79006" lon="-3.61388">
        <ele>33.6</ele>
        <time>2021-08-14T09:20:04Z</time>
      </trkpt>
      <trkpt lat="47.79005" lon="-3.6138">
        <ele>33.6</ele>
        <time>2021-08-14T09:20:05Z</time>
      </trkpt>
      <trkpt lat="47.79005" lon="-3.61371">
        <ele>33.4</ele>
        <time>2021-08-14T09:20:06Z</time>
      </trkpt>
      <trkpt lat="47.79006" lon="-3.61363">
        <ele>33.4</ele>
        <time>2021-08-14T09:20:07Z</time>
      </trkpt>
      <trkpt lat="47.79006" lon="-3.61356">
        <ele>33.4</ele>
        <time>2021-08-14T09:20:08Z</time>
      </trkpt>
      <trkpt lat="47.79006" lon="-3.61349">
        <ele>33.4</ele>
        <time>2021-08-14T09:20:09Z</time>
      </trkpt>
      <trkpt lat="47.79007" lon="-3.61342">
        <ele>33.4</ele>
        <time>2021-08-14T09:20:10Z</time>
      </trkpt>
      <trkpt lat="47.79007" lon="-3.61336">
        <ele>33.4</ele>
        <time>2021-08-14T09:20:11Z</time>
      </trkpt>
      <trkpt lat="47.79007" lon="-3.6133">
        <ele>33.4</ele>
        <time>2021-08-14T09:20:12Z</time>
      </trkpt>
      <trkpt lat="47.79008" lon="-3.61324">
        <ele>33.4</ele>
        <time>2021-08-14T09:20:13Z</time>
      </trkpt>
      <trkpt lat="47.79008" lon="-3.61318">
        <ele>33.4</ele>
        <time>2021-08-14T09:20:14Z</time>
      </trkpt>
      <trkpt lat="47.79009" lon="-3.61313">
        <ele>33.6</ele>
        <time>2021-08-14T09:20:15Z</time>
      </trkpt>
      <trkpt lat="47.7901" lon="-3.61307">
        <ele>33.6</ele>
        <time>2021-08-14T09:20:16Z</time>
      </trkpt>
      <trkpt lat="47.7901" lon="-3.61302">
        <ele>33.8</ele>
        <time>2021-08-14T09:20:17Z</time>
      </trkpt>
      <trkpt lat="47.79011" lon="-3.61297">
        <ele>34</ele>
        <time>2021-08-14T09:20:18Z</time>
      </trkpt>
      <trkpt lat="47.79011" lon="-3.61292">
        <ele>34</ele>
        <time>2021-08-14T09:20:19Z</time>
      </trkpt>
      <trkpt lat="47.79012" lon="-3.61287">
        <ele>34.4</ele>
        <time>2021-08-14T09:20:20Z</time>
      </trkpt>
      <trkpt lat="47.79012" lon="-3.61282">
        <ele>34.8</ele>
        <time>2021-08-14T09:20:21Z</time>
      </trkpt>
      <trkpt lat="47.79012" lon="-3.61276">
        <ele>35.2</ele>
        <time>2021-08-14T09:20:22Z</time>
      </trkpt>
      <trkpt lat="47.79013" lon="-3.61271">
        <ele>35.4</ele>
        <time>2021-08-14T09:20:23Z</time>
      </trkpt>
      <trkpt lat="47.79013" lon="-3.61266">
        <ele>35.6</ele>
        <time>2021-08-14T09:20:24Z</time>
      </trkpt>
      <trkpt lat="47.79013" lon="-3.61261">
        <ele>36</ele>
        <time>2021-08-14T09:20:25Z</time>
      </trkpt>
      <trkpt lat="47.79013" lon="-3.61255">
        <ele>36.2</ele>
        <time>2021-08-14T09:20:26Z</time>
      </trkpt>
      <trkpt lat="47.79013" lon="-3.61249">
        <ele>36.4</ele>
        <time>2021-08-14T09:20:27Z</time>
      </trkpt>
      <trkpt lat="47.79013" lon="-3.61243">
        <ele>36.4</ele>
        <time>2021-08-14T09:20:28Z</time>
      </trkpt>
      <trkpt lat="47.79013" lon="-3.61237">
        <ele>36.6</ele>
        <time>2021-08-14T09:20:29Z</time>
      </trkpt>
      <trkpt lat="47.79013" lon="-3.61231">
        <ele>36.6</ele>
        <time>2021-08-14T09:20:30Z</time>
      </trkpt>
      <trkpt lat="47.79013" lon="-3.61225">
        <ele>36.6</ele>
        <time>2021-08-14T09:20:31Z</time>
      </trkpt>
      <trkpt lat="47.79014" lon="-3.61219">
        <ele>36.8</ele>
        <time>2021-08-14T09:20:32Z</time>
      </trkpt>
      <trkpt lat="47.79014" lon="-3.61213">
        <ele>36.8</ele>
        <time>2021-08-14T09:20:33Z</time>
      </trkpt>
      <trkpt lat="47.79014" lon="-3.61207">
        <ele>36.8</ele>
        <time>2021-08-14T09:20:34Z</time>
      </trkpt>
      <trkpt lat="47.79014" lon="-3.61201">
        <ele>36.8</ele>
        <time>2021-08-14T09:20:35Z</time>
      </trkpt>
      <trkpt lat="47.79014" lon="-3.61195">
        <ele>37</ele>
        <time>2021-08-14T09:20:36Z</time>
      </trkpt>
      <trkpt lat="47.79014" lon="-3.61189">
        <ele>37</ele>
        <time>2021-08-14T09:20:37Z</time>
      </trkpt>
      <trkpt lat="47.79015" lon="-3.61182">
        <ele>37.2</ele>
        <time>2021-08-14T09:20:38Z</time>
      </trkpt>
      <trkpt lat="47.79015" lon="-3.61176">
        <ele>37.4</ele>
        <time>2021-08-14T09:20:39Z</time>
      </trkpt>
      <trkpt lat="47.79015" lon="-3.6117">
        <ele>37.4</ele>
        <time>2021-08-14T09:20:40Z</time>
      </trkpt>
      <trkpt lat="47.79015" lon="-3.61163">
        <ele>37.6</ele>
        <time>2021-08-14T09:20:41Z</time>
      </trkpt>
      <trkpt lat="47.79015" lon="-3.61157">
        <ele>37.6</ele>
        <time>2021-08-14T09:20:42Z</time>
      </trkpt>
      <trkpt lat="47.79015" lon="-3.61151">
        <ele>37.8</ele>
        <time>2021-08-14T09:20:43Z</time>
      </trkpt>
      <trkpt lat="47.79015" lon="-3.61145">
        <ele>37.8</ele>
        <time>2021-08-14T09:20:44Z</time>
      </trkpt>
      <trkpt lat="47.79014" lon="-3.61139">
        <ele>37.8</ele>
        <time>2021-08-14T09:20:45Z</time>
      </trkpt>
      <trkpt lat="47.79014" lon="-3.61133">
        <ele>37.8</ele>
        <time>2021-08-14T09:20:46Z</time>
      </trkpt>
      <trkpt lat="47.79014" lon="-3.61127">
        <ele>38</ele>
        <time>2021-08-14T09:20:47Z</time>
      </trkpt>
      <trkpt lat="47.79014" lon="-3.61121">
        <ele>38</ele>
        <time>2021-08-14T09:20:48Z</time>
      </trkpt>
      <trkpt lat="47.79014" lon="-3.61116">
        <ele>38</ele>
        <time>2021-08-14T09:20:49Z</time>
      </trkpt>
      <trkpt lat="47.79013" lon="-3.6111">
        <ele>38</ele>
        <time>2021-08-14T09:20:50Z</time>
      </trkpt>
      <trkpt lat="47.79013" lon="-3.61105">
        <ele>38</ele>
        <time>2021-08-14T09:20:51Z</time>
      </trkpt>
      <trkpt lat="47.79013" lon="-3.61099">
        <ele>38</ele>
        <time>2021-08-14T09:20:52Z</time>
      </trkpt>
      <trkpt lat="47.79013" lon="-3.61093">
        <ele>38</ele>
        <time>2021-08-14T09:20:53Z</time>
      </trkpt>
      <trkpt lat="47.79012" lon="-3.61087">
        <ele>38.2</ele>
        <time>2021-08-14T09:20:54Z</time>
      </trkpt>
      <trkpt lat="47.79012" lon="-3.61081">
        <ele>38.2</ele>
        <time>2021-08-14T09:20:55Z</time>
      </trkpt>
      <trkpt lat="47.79012" lon="-3.61076">
        <ele>38.2</ele>
        <time>2021-08-14T09:20:56Z</time>
      </trkpt>
      <trkpt lat="47.79012" lon="-3.6107">
        <ele>38.2</ele>
        <time>2021-08-14T09:20:57Z</time>
      </trkpt>
      <trkpt lat="47.79012" lon="-3.61064">
        <ele>38.2</ele>
        <time>2021-08-14T09:20:58Z</time>
      </trkpt>
      <trkpt lat="47.79013" lon="-3.61058">
        <ele>38.4</ele>
        <time>2021-08-14T09:20:59Z</time>
      </trkpt>
      <trkpt lat="47.79013" lon="-3.61052">
        <ele>38.4</ele>
        <time>2021-08-14T09:21:00Z</time>
      </trkpt>
      <trkpt lat="47.79013" lon="-3.61046">
        <ele>38.4</ele>
        <time>2021-08-14T09:21:01Z</time>
      </trkpt>
      <trkpt lat="47.79013" lon="-3.6104">
        <ele>38.4</ele>
        <time>2021-08-14T09:21:02Z</time>
      </trkpt>
      <trkpt lat="47.79013" lon="-3.61033">
        <ele>38.6</ele>
        <time>2021-08-14T09:21:03Z</time>
      </trkpt>
      <trkpt lat="47.79013" lon="-3.61027">
        <ele>38.8</ele>
        <time>2021-08-14T09:21:04Z</time>
      </trkpt>
      <trkpt lat="47.79013" lon="-3.6102">
        <ele>38.8</ele>
        <time>2021-08-14T09:21:05Z</time>
      </trkpt>
      <trkpt lat="47.79013" lon="-3.61013">
        <ele>39</ele>
        <time>2021-08-14T09:21:06Z</time>
      </trkpt>
      <trkpt lat="47.79013" lon="-3.61007">
        <ele>39</ele>
        <time>2021-08-14T09:21:07Z</time>
      </trkpt>
      <trkpt lat="47.79014" lon="-3.61">
        <ele>39</ele>
        <time>2021-08-14T09:21:08Z</time>
      </trkpt>
      <trkpt lat="47.79014" lon="-3.60993">
        <ele>39</ele>
        <time>2021-08-14T09:21:09Z</time>
      </trkpt>
      <trkpt lat="47.79014" lon="-3.60987">
        <ele>39</ele>
        <time>2021-08-14T09:21:10Z</time>
      </trkpt>
      <trkpt lat="47.79014" lon="-3.6098">
        <ele>39</ele>
        <time>2021-08-14T09:21:11Z</time>
      </trkpt>
      <trkpt lat="47.79014" lon="-3.60974">
        <ele>39</ele>
        <time>2021-08-14T09:21:12Z</time>
      </trkpt>
      <trkpt lat="47.79014" lon="-3.60968">
        <ele>39.2</ele>
        <time>2021-08-14T09:21:13Z</time>
      </trkpt>
      <trkpt lat="47.79015" lon="-3.60963">
        <ele>39.2</ele>
        <time>2021-08-14T09:21:14Z</time>
      </trkpt>
      <trkpt lat="47.79015" lon="-3.60957">
        <ele>39.2</ele>
        <time>2021-08-14T09:21:15Z</time>
      </trkpt>
      <trkpt lat="47.79015" lon="-3.60951">
        <ele>39.2</ele>
        <time>2021-08-14T09:21:16Z</time>
      </trkpt>
      <trkpt lat="47.79016" lon="-3.60945">
        <ele>39.2</ele>
        <time>2021-08-14T09:21:17Z</time>
      </trkpt>
      <trkpt lat="47.79016" lon="-3.6094">
        <ele>39.4</ele>
        <time>2021-08-14T09:21:18Z</time>
      </trkpt>
      <trkpt lat="47.79016" lon="-3.60935">
        <ele>39.4</ele>
        <time>2021-08-14T09:21:19Z</time>
      </trkpt>
      <trkpt lat="47.79016" lon="-3.60929">
        <ele>39.4</ele>
        <time>2021-08-14T09:21:20Z</time>
      </trkpt>
      <trkpt lat="47.79017" lon="-3.60924">
        <ele>39.4</ele>
        <time>2021-08-14T09:21:21Z</time>
      </trkpt>
      <trkpt lat="47.79017" lon="-3.6092">
        <ele>39.4</ele>
        <time>2021-08-14T09:21:22Z</time>
      </trkpt>
      <trkpt lat="47.79017" lon="-3.60915">
        <ele>39.4</ele>
        <time>2021-08-14T09:21:23Z</time>
      </trkpt>
      <trkpt lat="47.79017" lon="-3.60912">
        <ele>39.4</ele>
        <time>2021-08-14T09:21:24Z</time>
      </trkpt>
      <trkpt lat="47.79017" lon="-3.60908">
        <ele>39.4</ele>
        <time>2021-08-14T09:21:25Z</time>
      </trkpt>
      <trkpt lat="47.79017" lon="-3.60905">
        <ele>39.6</ele>
        <time>2021-08-14T09:21:26Z</time>
      </trkpt>
      <trkpt lat="47.79017" lon="-3.60901">
        <ele>39.6</ele>
        <time>2021-08-14T09:21:27Z</time>
      </trkpt>
      <trkpt lat="47.79018" lon="-3.60898">
        <ele>39.8</ele>
        <time>2021-08-14T09:21:28Z</time>
      </trkpt>
      <trkpt lat="47.79019" lon="-3.60895">
        <ele>39.8</ele>
        <time>2021-08-14T09:21:29Z</time>
      </trkpt>
      <trkpt lat="47.7902" lon="-3.60891">
        <ele>40</ele>
        <time>2021-08-14T09:21:30Z</time>
      </trkpt>
      <trkpt lat="47.79022" lon="-3.60886">
        <ele>40</ele>
        <time>2021-08-14T09:21:31Z</time>
      </trkpt>
      <trkpt lat="47.79023" lon="-3.60881">
        <ele>40</ele>
        <time>2021-08-14T09:21:32Z</time>
      </trkpt>
      <trkpt lat="47.79024" lon="-3.60876">
        <ele>40</ele>
        <time>2021-08-14T09:21:33Z</time>
      </trkpt>
      <trkpt lat="47.79024" lon="-3.6087">
        <ele>40</ele>
        <time>2021-08-14T09:21:34Z</time>
      </trkpt>
      <trkpt lat="47.79025" lon="-3.60864">
        <ele>40</ele>
        <time>2021-08-14T09:21:35Z</time>
      </trkpt>
      <trkpt lat="47.79024" lon="-3.60857">
        <ele>40</ele>
        <time>2021-08-14T09:21:36Z</time>
      </trkpt>
      <trkpt lat="47.79024" lon="-3.6085">
        <ele>40</ele>
        <time>2021-08-14T09:21:37Z</time>
      </trkpt>
      <trkpt lat="47.79023" lon="-3.60843">
        <ele>40</ele>
        <time>2021-08-14T09:21:38Z</time>
      </trkpt>
      <trkpt lat="47.79023" lon="-3.60836">
        <ele>40</ele>
        <time>2021-08-14T09:21:39Z</time>
      </trkpt>
      <trkpt lat="47.79022" lon="-3.60829">
        <ele>40</ele>
        <time>2021-08-14T09:21:40Z</time>
      </trkpt>
      <trkpt lat="47.79021" lon="-3.60823">
        <ele>39.8</ele>
        <time>2021-08-14T09:21:41Z</time>
      </trkpt>
      <trkpt lat="47.7902" lon="-3.60816">
        <ele>39.8</ele>
        <time>2021-08-14T09:21:42Z</time>
      </trkpt>
      <trkpt lat="47.79019" lon="-3.60809">
        <ele>39.6</ele>
        <time>2021-08-14T09:21:43Z</time>
      </trkpt>
      <trkpt lat="47.79018" lon="-3.60802">
        <ele>39.6</ele>
        <time>2021-08-14T09:21:44Z</time>
      </trkpt>
      <trkpt lat="47.79017" lon="-3.60794">
        <ele>39.4</ele>
        <time>2021-08-14T09:21:45Z</time>
      </trkpt>
      <trkpt lat="47.79015" lon="-3.60787">
        <ele>39.2</ele>
        <time>2021-08-14T09:21:46Z</time>
      </trkpt>
      <trkpt lat="47.79014" lon="-3.6078">
        <ele>39</ele>
        <time>2021-08-14T09:21:47Z</time>
      </trkpt>
      <trkpt lat="47.79013" lon="-3.60772">
        <ele>38.8</ele>
        <time>2021-08-14T09:21:48Z</time>
      </trkpt>
      <trkpt lat="47.79012" lon="-3.60764">
        <ele>38.8</ele>
        <time>2021-08-14T09:21:49Z</time>
      </trkpt>
      <trkpt lat="47.79011" lon="-3.60757">
        <ele>38.8</ele>
        <time>2021-08-14T09:21:50Z</time>
      </trkpt>
      <trkpt lat="47.7901" lon="-3.60749">
        <ele>38.6</ele>
        <time>2021-08-14T09:21:51Z</time>
      </trkpt>
      <trkpt lat="47.79009" lon="-3.60741">
        <ele>38.6</ele>
        <time>2021-08-14T09:21:52Z</time>
      </trkpt>
      <trkpt lat="47.79008" lon="-3.60733">
        <ele>38.6</ele>
        <time>2021-08-14T09:21:53Z</time>
      </trkpt>
      <trkpt lat="47.79007" lon="-3.60725">
        <ele>38.6</ele>
        <time>2021-08-14T09:21:54Z</time>
      </trkpt>
      <trkpt lat="47.79006" lon="-3.60717">
        <ele>38.6</ele>
        <time>2021-08-14T09:21:55Z</time>
      </trkpt>
      <trkpt lat="47.79005" lon="-3.60709">
        <ele>38.6</ele>
        <time>2021-08-14T09:21:56Z</time>
      </trkpt>
      <trkpt lat="47.79004" lon="-3.60701">
        <ele>38.4</ele>
        <time>2021-08-14T09:21:57Z</time>
      </trkpt>
      <trkpt lat="47.79003" lon="-3.60692">
        <ele>38.4</ele>
        <time>2021-08-14T09:21:58Z</time>
      </trkpt>
      <trkpt lat="47.79002" lon="-3.60684">
        <ele>38.2</ele>
        <time>2021-08-14T09:21:59Z</time>
      </trkpt>
      <trkpt lat="47.79001" lon="-3.60675">
        <ele>38</ele>
        <time>2021-08-14T09:22:00Z</time>
      </trkpt>
      <trkpt lat="47.78999" lon="-3.60667">
        <ele>37.8</ele>
        <time>2021-08-14T09:22:01Z</time>
      </trkpt>
      <trkpt lat="47.78998" lon="-3.60658">
        <ele>37.6</ele>
        <time>2021-08-14T09:22:02Z</time>
      </trkpt>
      <trkpt lat="47.78997" lon="-3.60649">
        <ele>37.6</ele>
        <time>2021-08-14T09:22:03Z</time>
      </trkpt>
      <trkpt lat="47.78996" lon="-3.6064">
        <ele>37.4</ele>
        <time>2021-08-14T09:22:04Z</time>
      </trkpt>
      <trkpt lat="47.78994" lon="-3.60632">
        <ele>37.2</ele>
        <time>2021-08-14T09:22:05Z</time>
      </trkpt>
      <trkpt lat="47.78993" lon="-3.60623">
        <ele>37</ele>
        <time>2021-08-14T09:22:06Z</time>
      </trkpt>
      <trkpt lat="47.78992" lon="-3.60614">
        <ele>36.6</ele>
        <time>2021-08-14T09:22:07Z</time>
      </trkpt>
      <trkpt lat="47.78991" lon="-3.60605">
        <ele>36.2</ele>
        <time>2021-08-14T09:22:08Z</time>
      </trkpt>
      <trkpt lat="47.7899" lon="-3.60596">
        <ele>36</ele>
        <time>2021-08-14T09:22:09Z</time>
      </trkpt>
      <trkpt lat="47.78989" lon="-3.60588">
        <ele>36</ele>
        <time>2021-08-14T09:22:10Z</time>
      </trkpt>
      <trkpt lat="47.78988" lon="-3.60579">
        <ele>35.8</ele>
        <time>2021-08-14T09:22:11Z</time>
      </trkpt>
      <trkpt lat="47.78987" lon="-3.6057">
        <ele>35.8</ele>
        <time>2021-08-14T09:22:12Z</time>
      </trkpt>
      <trkpt lat="47.78986" lon="-3.60561">
        <ele>35.8</ele>
        <time>2021-08-14T09:22:13Z</time>
      </trkpt>
      <trkpt lat="47.78985" lon="-3.60553">
        <ele>35.8</ele>
        <time>2021-08-14T09:22:14Z</time>
      </trkpt>
      <trkpt lat="47.78985" lon="-3.60544">
        <ele>35.8</ele>
        <time>2021-08-14T09:22:15Z</time>
      </trkpt>
      <trkpt lat="47.78984" lon="-3.60535">
        <ele>35.6</ele>
        <time>2021-08-14T09:22:16Z</time>
      </trkpt>
      <trkpt lat="47.78984" lon="-3.60525">
        <ele>35.6</ele>
        <time>2021-08-14T09:22:17Z</time>
      </trkpt>
      <trkpt lat="47.78984" lon="-3.60517">
        <ele>35.6</ele>
        <time>2021-08-14T09:22:18Z</time>
      </trkpt>
      <trkpt lat="47.78983" lon="-3.60508">
        <ele>35.6</ele>
        <time>2021-08-14T09:22:19Z</time>
      </trkpt>
      <trkpt lat="47.78983" lon="-3.60499">
        <ele>35.6</ele>
        <time>2021-08-14T09:22:20Z</time>
      </trkpt>
      <trkpt lat="47.78982" lon="-3.6049">
        <ele>35.6</ele>
        <time>2021-08-14T09:22:21Z</time>
      </trkpt>
      <trkpt lat="47.78982" lon="-3.60482">
        <ele>35.6</ele>
        <time>2021-08-14T09:22:22Z</time>
      </trkpt>
      <trkpt lat="47.78982" lon="-3.60474">
        <ele>35.6</ele>
        <time>2021-08-14T09:22:23Z</time>
      </trkpt>
      <trkpt lat="47.78981" lon="-3.60466">
        <ele>35.8</ele>
        <time>2021-08-14T09:22:24Z</time>
      </trkpt>
      <trkpt lat="47.78981" lon="-3.60458">
        <ele>35.8</ele>
        <time>2021-08-14T09:22:25Z</time>
      </trkpt>
      <trkpt lat="47.78981" lon="-3.60451">
        <ele>35.8</ele>
        <time>2021-08-14T09:22:26Z</time>
      </trkpt>
      <trkpt lat="47.7898" lon="-3.60444">
        <ele>35.8</ele>
        <time>2021-08-14T09:22:27Z</time>
      </trkpt>
      <trkpt lat="47.7898" lon="-3.60437">
        <ele>35.8</ele>
        <time>2021-08-14T09:22:28Z</time>
      </trkpt>
      <trkpt lat="47.7898" lon="-3.60431">
        <ele>35.8</ele>
        <time>2021-08-14T09:22:29Z</time>
      </trkpt>
      <trkpt lat="47.78979" lon="-3.60425">
        <ele>36</ele>
        <time>2021-08-14T09:22:30Z</time>
      </trkpt>
      <trkpt lat="47.78979" lon="-3.60419">
        <ele>36.2</ele>
        <time>2021-08-14T09:22:31Z</time>
      </trkpt>
      <trkpt lat="47.78979" lon="-3.60413">
        <ele>36.4</ele>
        <time>2021-08-14T09:22:32Z</time>
      </trkpt>
      <trkpt lat="47.78979" lon="-3.60407">
        <ele>36.6</ele>
        <time>2021-08-14T09:22:33Z</time>
      </trkpt>
      <trkpt lat="47.78979" lon="-3.60402">
        <ele>36.8</ele>
        <time>2021-08-14T09:22:34Z</time>
      </trkpt>
      <trkpt lat="47.78979" lon="-3.60395">
        <ele>37</ele>
        <time>2021-08-14T09:22:35Z</time>
      </trkpt>
      <trkpt lat="47.78979" lon="-3.60389">
        <ele>37.2</ele>
        <time>2021-08-14T09:22:36Z</time>
      </trkpt>
      <trkpt lat="47.78979" lon="-3.60383">
        <ele>37.4</ele>
        <time>2021-08-14T09:22:37Z</time>
      </trkpt>
      <trkpt lat="47.78979" lon="-3.60376">
        <ele>37.6</ele>
        <time>2021-08-14T09:22:38Z</time>
      </trkpt>
      <trkpt lat="47.78979" lon="-3.6037">
        <ele>37.6</ele>
        <time>2021-08-14T09:22:39Z</time>
      </trkpt>
      <trkpt lat="47.78979" lon="-3.60363">
        <ele>37.8</ele>
        <time>2021-08-14T09:22:40Z</time>
      </trkpt>
      <trkpt lat="47.78979" lon="-3.60357">
        <ele>37.8</ele>
        <time>2021-08-14T09:22:41Z</time>
      </trkpt>
      <trkpt lat="47.7898" lon="-3.60351">
        <ele>38</ele>
        <time>2021-08-14T09:22:42Z</time>
      </trkpt>
      <trkpt lat="47.7898" lon="-3.60344">
        <ele>38</ele>
        <time>2021-08-14T09:22:43Z</time>
      </trkpt>
      <trkpt lat="47.7898" lon="-3.60338">
        <ele>38.2</ele>
        <time>2021-08-14T09:22:44Z</time>
      </trkpt>
      <trkpt lat="47.78981" lon="-3.60331">
        <ele>38.2</ele>
        <time>2021-08-14T09:22:45Z</time>
      </trkpt>
      <trkpt lat="47.78981" lon="-3.60325">
        <ele>38.4</ele>
        <time>2021-08-14T09:22:46Z</time>
      </trkpt>
      <trkpt lat="47.78981" lon="-3.60319">
        <ele>38.4</ele>
        <time>2021-08-14T09:22:47Z</time>
      </trkpt>
      <trkpt lat="47.78982" lon="-3.60313">
        <ele>38.6</ele>
        <time>2021-08-14T09:22:48Z</time>
      </trkpt>
      <trkpt lat="47.78982" lon="-3.60307">
        <ele>38.6</ele>
        <time>2021-08-14T09:22:49Z</time>
      </trkpt>
      <trkpt lat="47.78982" lon="-3.60302">
        <ele>38.8</ele>
        <time>2021-08-14T09:22:50Z</time>
      </trkpt>
      <trkpt lat="47.78981" lon="-3.60296">
        <ele>38.8</ele>
        <time>2021-08-14T09:22:51Z</time>
      </trkpt>
      <trkpt lat="47.78981" lon="-3.6029">
        <ele>38.8</ele>
        <time>2021-08-14T09:22:52Z</time>
      </trkpt>
      <trkpt lat="47.78981" lon="-3.60284">
        <ele>38.8</ele>
        <time>2021-08-14T09:22:53Z</time>
      </trkpt>
      <trkpt lat="47.7898" lon="-3.60278">
        <ele>38.8</ele>
        <time>2021-08-14T09:22:54Z</time>
      </trkpt>
      <trkpt lat="47.7898" lon="-3.60272">
        <ele>38.8</ele>
        <time>2021-08-14T09:22:55Z</time>
      </trkpt>
      <trkpt lat="47.7898" lon="-3.60265">
        <ele>39</ele>
        <time>2021-08-14T09:22:56Z</time>
      </trkpt>
      <trkpt lat="47.78981" lon="-3.60258">
        <ele>39</ele>
        <time>2021-08-14T09:22:57Z</time>
      </trkpt>
      <trkpt lat="47.7898" lon="-3.60251">
        <ele>39</ele>
        <time>2021-08-14T09:22:58Z</time>
      </trkpt>
      <trkpt lat="47.7898" lon="-3.60243">
        <ele>39</ele>
        <time>2021-08-14T09:22:59Z</time>
      </trkpt>
      <trkpt lat="47.78981" lon="-3.60236">
        <ele>39</ele>
        <time>2021-08-14T09:23:00Z</time>
      </trkpt>
      <trkpt lat="47.7898" lon="-3.60228">
        <ele>39</ele>
        <time>2021-08-14T09:23:01Z</time>
      </trkpt>
      <trkpt lat="47.7898" lon="-3.6022">
        <ele>39</ele>
        <time>2021-08-14T09:23:02Z</time>
      </trkpt>
      <trkpt lat="47.7898" lon="-3.60213">
        <ele>39</ele>
        <time>2021-08-14T09:23:03Z</time>
      </trkpt>
      <trkpt lat="47.78979" lon="-3.60205">
        <ele>39</ele>
        <time>2021-08-14T09:23:04Z</time>
      </trkpt>
      <trkpt lat="47.78979" lon="-3.60197">
        <ele>39</ele>
        <time>2021-08-14T09:23:05Z</time>
      </trkpt>
      <trkpt lat="47.78978" lon="-3.60189">
        <ele>39</ele>
        <time>2021-08-14T09:23:06Z</time>
      </trkpt>
      <trkpt lat="47.78978" lon="-3.60181">
        <ele>38.8</ele>
        <time>2021-08-14T09:23:07Z</time>
      </trkpt>
      <trkpt lat="47.78978" lon="-3.60173">
        <ele>38.6</ele>
        <time>2021-08-14T09:23:08Z</time>
      </trkpt>
      <trkpt lat="47.78978" lon="-3.60165">
        <ele>38.6</ele>
        <time>2021-08-14T09:23:09Z</time>
      </trkpt>
      <trkpt lat="47.78977" lon="-3.60158">
        <ele>38.6</ele>
        <time>2021-08-14T09:23:10Z</time>
      </trkpt>
      <trkpt lat="47.78977" lon="-3.6015">
        <ele>38.4</ele>
        <time>2021-08-14T09:23:11Z</time>
      </trkpt>
      <trkpt lat="47.78976" lon="-3.60142">
        <ele>38.4</ele>
        <time>2021-08-14T09:23:12Z</time>
      </trkpt>
      <trkpt lat="47.78976" lon="-3.60134">
        <ele>38.4</ele>
        <time>2021-08-14T09:23:13Z</time>
      </trkpt>
      <trkpt lat="47.78975" lon="-3.60126">
        <ele>38.2</ele>
        <time>2021-08-14T09:23:14Z</time>
      </trkpt>
      <trkpt lat="47.78974" lon="-3.60117">
        <ele>38.2</ele>
        <time>2021-08-14T09:23:15Z</time>
      </trkpt>
      <trkpt lat="47.78974" lon="-3.60108">
        <ele>38.2</ele>
        <time>2021-08-14T09:23:16Z</time>
      </trkpt>
      <trkpt lat="47.78973" lon="-3.60099">
        <ele>38.2</ele>
        <time>2021-08-14T09:23:17Z</time>
      </trkpt>
      <trkpt lat="47.78972" lon="-3.6009">
        <ele>38</ele>
        <time>2021-08-14T09:23:18Z</time>
      </trkpt>
      <trkpt lat="47.78972" lon="-3.60081">
        <ele>38</ele>
        <time>2021-08-14T09:23:19Z</time>
      </trkpt>
      <trkpt lat="47.78971" lon="-3.60072">
        <ele>38</ele>
        <time>2021-08-14T09:23:20Z</time>
      </trkpt>
      <trkpt lat="47.78971" lon="-3.60062">
        <ele>38</ele>
        <time>2021-08-14T09:23:21Z</time>
      </trkpt>
      <trkpt lat="47.78971" lon="-3.60052">
        <ele>38</ele>
        <time>2021-08-14T09:23:22Z</time>
      </trkpt>
      <trkpt lat="47.78971" lon="-3.60043">
        <ele>37.8</ele>
        <time>2021-08-14T09:23:23Z</time>
      </trkpt>
      <trkpt lat="47.7897" lon="-3.60033">
        <ele>37.4</ele>
        <time>2021-08-14T09:23:24Z</time>
      </trkpt>
      <trkpt lat="47.78971" lon="-3.60023">
        <ele>37.4</ele>
        <time>2021-08-14T09:23:25Z</time>
      </trkpt>
      <trkpt lat="47.78971" lon="-3.60013">
        <ele>37.2</ele>
        <time>2021-08-14T09:23:26Z</time>
      </trkpt>
      <trkpt lat="47.78971" lon="-3.60003">
        <ele>37.2</ele>
        <time>2021-08-14T09:23:27Z</time>
      </trkpt>
      <trkpt lat="47.78971" lon="-3.59993">
        <ele>36.8</ele>
        <time>2021-08-14T09:23:28Z</time>
      </trkpt>
      <trkpt lat="47.78971" lon="-3.59983">
        <ele>36.6</ele>
        <time>2021-08-14T09:23:29Z</time>
      </trkpt>
      <trkpt lat="47.78971" lon="-3.59973">
        <ele>36.4</ele>
        <time>2021-08-14T09:23:30Z</time>
      </trkpt>
      <trkpt lat="47.78971" lon="-3.59963">
        <ele>36.2</ele>
        <time>2021-08-14T09:23:31Z</time>
      </trkpt>
      <trkpt lat="47.78971" lon="-3.59953">
        <ele>36.2</ele>
        <time>2021-08-14T09:23:32Z</time>
      </trkpt>
      <trkpt lat="47.78971" lon="-3.59943">
        <ele>36.2</ele>
        <time>2021-08-14T09:23:33Z</time>
      </trkpt>
      <trkpt lat="47.78971" lon="-3.59933">
        <ele>36</ele>
        <time>2021-08-14T09:23:34Z</time>
      </trkpt>
      <trkpt lat="47.7897" lon="-3.59924">
        <ele>35.8</ele>
        <time>2021-08-14T09:23:35Z</time>
      </trkpt>
      <trkpt lat="47.7897" lon="-3.59914">
        <ele>35.6</ele>
        <time>2021-08-14T09:23:36Z</time>
      </trkpt>
      <trkpt lat="47.78969" lon="-3.59904">
        <ele>35.6</ele>
        <time>2021-08-14T09:23:37Z</time>
      </trkpt>
      <trkpt lat="47.78968" lon="-3.59895">
        <ele>35.4</ele>
        <time>2021-08-14T09:23:38Z</time>
      </trkpt>
      <trkpt lat="47.78968" lon="-3.59886">
        <ele>35.4</ele>
        <time>2021-08-14T09:23:39Z</time>
      </trkpt>
      <trkpt lat="47.78967" lon="-3.59876">
        <ele>35.2</ele>
        <time>2021-08-14T09:23:40Z</time>
      </trkpt>
      <trkpt lat="47.78966" lon="-3.59867">
        <ele>35.2</ele>
        <time>2021-08-14T09:23:41Z</time>
      </trkpt>
      <trkpt lat="47.78966" lon="-3.59858">
        <ele>34.8</ele>
        <time>2021-08-14T09:23:42Z</time>
      </trkpt>
      <trkpt lat="47.78965" lon="-3.59849">
        <ele>34.8</ele>
        <time>2021-08-14T09:23:43Z</time>
      </trkpt>
      <trkpt lat="47.78964" lon="-3.5984">
        <ele>34.6</ele>
        <time>2021-08-14T09:23:44Z</time>
      </trkpt>
      <trkpt lat="47.78963" lon="-3.59831">
        <ele>34.6</ele>
        <time>2021-08-14T09:23:45Z</time>
      </trkpt>
      <trkpt lat="47.78963" lon="-3.59821">
        <ele>34.4</ele>
        <time>2021-08-14T09:23:46Z</time>
      </trkpt>
      <trkpt lat="47.78962" lon="-3.59812">
        <ele>34.2</ele>
        <time>2021-08-14T09:23:47Z</time>
      </trkpt>
      <trkpt lat="47.78961" lon="-3.59802">
        <ele>34.2</ele>
        <time>2021-08-14T09:23:48Z</time>
      </trkpt>
      <trkpt lat="47.7896" lon="-3.59793">
        <ele>34.2</ele>
        <time>2021-08-14T09:23:49Z</time>
      </trkpt>
      <trkpt lat="47.78959" lon="-3.59783">
        <ele>34</ele>
        <time>2021-08-14T09:23:50Z</time>
      </trkpt>
      <trkpt lat="47.78958" lon="-3.59774">
        <ele>34</ele>
        <time>2021-08-14T09:23:51Z</time>
      </trkpt>
      <trkpt lat="47.78956" lon="-3.59765">
        <ele>34</ele>
        <time>2021-08-14T09:23:52Z</time>
      </trkpt>
      <trkpt lat="47.78954" lon="-3.59756">
        <ele>33.8</ele>
        <time>2021-08-14T09:23:53Z</time>
      </trkpt>
      <trkpt lat="47.78952" lon="-3.59747">
        <ele>33.8</ele>
        <time>2021-08-14T09:23:54Z</time>
      </trkpt>
      <trkpt lat="47.78949" lon="-3.59738">
        <ele>33.6</ele>
        <time>2021-08-14T09:23:55Z</time>
      </trkpt>
      <trkpt lat="47.78947" lon="-3.59731">
        <ele>33.4</ele>
        <time>2021-08-14T09:23:56Z</time>
      </trkpt>
      <trkpt lat="47.78944" lon="-3.59724">
        <ele>33.2</ele>
        <time>2021-08-14T09:23:57Z</time>
      </trkpt>
      <trkpt lat="47.78942" lon="-3.59718">
        <ele>33</ele>
        <time>2021-08-14T09:23:58Z</time>
      </trkpt>
      <trkpt lat="47.7894" lon="-3.59713">
        <ele>32.8</ele>
        <time>2021-08-14T09:23:59Z</time>
      </trkpt>
      <trkpt lat="47.78939" lon="-3.5971">
        <ele>32.4</ele>
        <time>2021-08-14T09:24:00Z</time>
      </trkpt>
      <trkpt lat="47.78938" lon="-3.59708">
        <ele>32.2</ele>
        <time>2021-08-14T09:24:01Z</time>
      </trkpt>
      <trkpt lat="47.78937" lon="-3.59705">
        <ele>32</ele>
        <time>2021-08-14T09:24:02Z</time>
      </trkpt>
      <trkpt lat="47.78937" lon="-3.59701">
        <ele>31.8</ele>
        <time>2021-08-14T09:24:03Z</time>
      </trkpt>
      <trkpt lat="47.78938" lon="-3.59697">
        <ele>31.8</ele>
        <time>2021-08-14T09:24:04Z</time>
      </trkpt>
      <trkpt lat="47.78939" lon="-3.59693">
        <ele>31.6</ele>
        <time>2021-08-14T09:24:05Z</time>
      </trkpt>
      <trkpt lat="47.78941" lon="-3.59689">
        <ele>31.6</ele>
        <time>2021-08-14T09:24:06Z</time>
      </trkpt>
      <trkpt lat="47.78943" lon="-3.59685">
        <ele>31.6</ele>
        <time>2021-08-14T09:24:07Z</time>
      </trkpt>
      <trkpt lat="47.78946" lon="-3.5968">
        <ele>31.4</ele>
        <time>2021-08-14T09:24:08Z</time>
      </trkpt>
      <trkpt lat="47.78949" lon="-3.59675">
        <ele>31.4</ele>
        <time>2021-08-14T09:24:09Z</time>
      </trkpt>
      <trkpt lat="47.7895" lon="-3.59671">
        <ele>31.2</ele>
        <time>2021-08-14T09:24:10Z</time>
      </trkpt>
      <trkpt lat="47.78953" lon="-3.59665">
        <ele>31.2</ele>
        <time>2021-08-14T09:24:11Z</time>
      </trkpt>
      <trkpt lat="47.78955" lon="-3.59659">
        <ele>31</ele>
        <time>2021-08-14T09:24:12Z</time>
      </trkpt>
      <trkpt lat="47.78957" lon="-3.59653">
        <ele>30.8</ele>
        <time>2021-08-14T09:24:13Z</time>
      </trkpt>
      <trkpt lat="47.78958" lon="-3.59648">
        <ele>30.6</ele>
        <time>2021-08-14T09:24:14Z</time>
      </trkpt>
      <trkpt lat="47.78959" lon="-3.59642">
        <ele>30.2</ele>
        <time>2021-08-14T09:24:15Z</time>
      </trkpt>
      <trkpt lat="47.7896" lon="-3.59637">
        <ele>29.8</ele>
        <time>2021-08-14T09:24:16Z</time>
      </trkpt>
      <trkpt lat="47.78961" lon="-3.59629">
        <ele>29.6</ele>
        <time>2021-08-14T09:24:17Z</time>
      </trkpt>
      <trkpt lat="47.78962" lon="-3.5962">
        <ele>29.4</ele>
        <time>2021-08-14T09:24:18Z</time>
      </trkpt>
      <trkpt lat="47.78965" lon="-3.59609">
        <ele>29</ele>
        <time>2021-08-14T09:24:19Z</time>
      </trkpt>
      <trkpt lat="47.78966" lon="-3.59596">
        <ele>28.8</ele>
        <time>2021-08-14T09:24:20Z</time>
      </trkpt>
      <trkpt lat="47.78967" lon="-3.59583">
        <ele>28.8</ele>
        <time>2021-08-14T09:24:21Z</time>
      </trkpt>
      <trkpt lat="47.78967" lon="-3.59571">
        <ele>28.6</ele>
        <time>2021-08-14T09:24:22Z</time>
      </trkpt>
      <trkpt lat="47.78967" lon="-3.59559">
        <ele>28.2</ele>
        <time>2021-08-14T09:24:23Z</time>
      </trkpt>
      <trkpt lat="47.78966" lon="-3.59549">
        <ele>27.6</ele>
        <time>2021-08-14T09:24:24Z</time>
      </trkpt>
      <trkpt lat="47.78968" lon="-3.59541">
        <ele>27</ele>
        <time>2021-08-14T09:24:25Z</time>
      </trkpt>
      <trkpt lat="47.78969" lon="-3.59533">
        <ele>26.8</ele>
        <time>2021-08-14T09:24:26Z</time>
      </trkpt>
      <trkpt lat="47.78969" lon="-3.59527">
        <ele>26.6</ele>
        <time>2021-08-14T09:24:27Z</time>
      </trkpt>
      <trkpt lat="47.78969" lon="-3.59524">
        <ele>26.6</ele>
        <time>2021-08-14T09:24:28Z</time>
      </trkpt>
      <trkpt lat="47.78969" lon="-3.5952">
        <ele>26.6</ele>
        <time>2021-08-14T09:24:29Z</time>
      </trkpt>
      <trkpt lat="47.78969" lon="-3.59516">
        <ele>26.6</ele>
        <time>2021-08-14T09:24:30Z</time>
      </trkpt>
      <trkpt lat="47.78968" lon="-3.59512">
        <ele>26.6</ele>
        <time>2021-08-14T09:24:31Z</time>
      </trkpt>
      <trkpt lat="47.78969" lon="-3.59509">
        <ele>26.6</ele>
        <time>2021-08-14T09:24:32Z</time>
      </trkpt>
      <trkpt lat="47.7897" lon="-3.59507">
        <ele>26.6</ele>
        <time>2021-08-14T09:24:33Z</time>
      </trkpt>
      <trkpt lat="47.7897" lon="-3.59503">
        <ele>26.6</ele>
        <time>2021-08-14T09:24:34Z</time>
      </trkpt>
      <trkpt lat="47.7897" lon="-3.595">
        <ele>27</ele>
        <time>2021-08-14T09:24:35Z</time>
      </trkpt>
      <trkpt lat="47.7897" lon="-3.59497">
        <ele>27.6</ele>
        <time>2021-08-14T09:24:36Z</time>
      </trkpt>
      <trkpt lat="47.7897" lon="-3.59493">
        <ele>28.2</ele>
        <time>2021-08-14T09:24:37Z</time>
      </trkpt>
      <trkpt lat="47.78969" lon="-3.5949">
        <ele>28.8</ele>
        <time>2021-08-14T09:24:38Z</time>
      </trkpt>
      <trkpt lat="47.78969" lon="-3.59487">
        <ele>29</ele>
        <time>2021-08-14T09:24:39Z</time>
      </trkpt>
      <trkpt lat="47.78969" lon="-3.59484">
        <ele>29.4</ele>
        <time>2021-08-14T09:24:40Z</time>
      </trkpt>
      <trkpt lat="47.78969" lon="-3.59482">
        <ele>29.6</ele>
        <time>2021-08-14T09:24:41Z</time>
      </trkpt>
      <trkpt lat="47.78969" lon="-3.5948">
        <ele>29.8</ele>
        <time>2021-08-14T09:24:42Z</time>
      </trkpt>
      <trkpt lat="47.78969" lon="-3.59477">
        <ele>30</ele>
        <time>2021-08-14T09:24:43Z</time>
      </trkpt>
      <trkpt lat="47.78969" lon="-3.59475">
        <ele>30</ele>
        <time>2021-08-14T09:24:44Z</time>
      </trkpt>
      <trkpt lat="47.78969" lon="-3.59473">
        <ele>30.2</ele>
        <time>2021-08-14T09:24:45Z</time>
      </trkpt>
      <trkpt lat="47.78969" lon="-3.59471">
        <ele>30.4</ele>
        <time>2021-08-14T09:24:46Z</time>
      </trkpt>
      <trkpt lat="47.78969" lon="-3.5947">
        <ele>30.4</ele>
        <time>2021-08-14T09:24:47Z</time>
      </trkpt>
      <trkpt lat="47.78969" lon="-3.59467">
        <ele>30.6</ele>
        <time>2021-08-14T09:24:48Z</time>
      </trkpt>
      <trkpt lat="47.78969" lon="-3.59465">
        <ele>30.6</ele>
        <time>2021-08-14T09:24:49Z</time>
      </trkpt>
      <trkpt lat="47.78969" lon="-3.59463">
        <ele>30.8</ele>
        <time>2021-08-14T09:24:50Z</time>
      </trkpt>
      <trkpt lat="47.78968" lon="-3.5946">
        <ele>30.8</ele>
        <time>2021-08-14T09:24:51Z</time>
      </trkpt>
      <trkpt lat="47.78968" lon="-3.59457">
        <ele>31</ele>
        <time>2021-08-14T09:24:52Z</time>
      </trkpt>
      <trkpt lat="47.78968" lon="-3.59455">
        <ele>31</ele>
        <time>2021-08-14T09:24:53Z</time>
      </trkpt>
      <trkpt lat="47.78968" lon="-3.59453">
        <ele>31.4</ele>
        <time>2021-08-14T09:24:54Z</time>
      </trkpt>
      <trkpt lat="47.78967" lon="-3.5945">
        <ele>31.4</ele>
        <time>2021-08-14T09:24:55Z</time>
      </trkpt>
      <trkpt lat="47.78967" lon="-3.59448">
        <ele>31.8</ele>
        <time>2021-08-14T09:24:56Z</time>
      </trkpt>
      <trkpt lat="47.78967" lon="-3.59447">
        <ele>31.8</ele>
        <time>2021-08-14T09:24:57Z</time>
      </trkpt>
      <trkpt lat="47.78966" lon="-3.59444">
        <ele>32</ele>
        <time>2021-08-14T09:24:58Z</time>
      </trkpt>
      <trkpt lat="47.78966" lon="-3.59443">
        <ele>32.2</ele>
        <time>2021-08-14T09:24:59Z</time>
      </trkpt>
      <trkpt lat="47.78965" lon="-3.59442">
        <ele>32.2</ele>
        <time>2021-08-14T09:25:00Z</time>
      </trkpt>
      <trkpt lat="47.78965" lon="-3.59442">
        <ele>32.6</ele>
        <time>2021-08-14T09:25:01Z</time>
      </trkpt>
      <trkpt lat="47.78965" lon="-3.59441">
        <ele>32.8</ele>
        <time>2021-08-14T09:25:02Z</time>
      </trkpt>
      <trkpt lat="47.78965" lon="-3.59438">
        <ele>33.4</ele>
        <time>2021-08-14T09:25:46Z</time>
      </trkpt>
      <trkpt lat="47.78965" lon="-3.59438">
        <ele>33.4</ele>
        <time>2021-08-14T09:25:47Z</time>
      </trkpt>
      <trkpt lat="47.78964" lon="-3.59438">
        <ele>33.4</ele>
        <time>2021-08-14T09:25:48Z</time>
      </trkpt>
      <trkpt lat="47.78961" lon="-3.59419">
        <ele>33.6</ele>
        <time>2021-08-14T09:26:06Z</time>
      </trkpt>
      <trkpt lat="47.7896" lon="-3.59416">
        <ele>33.6</ele>
        <time>2021-08-14T09:26:07Z</time>
      </trkpt>
      <trkpt lat="47.78959" lon="-3.59414">
        <ele>33.6</ele>
        <time>2021-08-14T09:26:08Z</time>
      </trkpt>
      <trkpt lat="47.78959" lon="-3.59411">
        <ele>33.8</ele>
        <time>2021-08-14T09:26:09Z</time>
      </trkpt>
      <trkpt lat="47.78958" lon="-3.59408">
        <ele>33.8</ele>
        <time>2021-08-14T09:26:10Z</time>
      </trkpt>
      <trkpt lat="47.78958" lon="-3.59405">
        <ele>33.8</ele>
        <time>2021-08-14T09:26:11Z</time>
      </trkpt>
      <trkpt lat="47.78957" lon="-3.59402">
        <ele>33.8</ele>
        <time>2021-08-14T09:26:12Z</time>
      </trkpt>
      <trkpt lat="47.78957" lon="-3.59399">
        <ele>33.8</ele>
        <time>2021-08-14T09:26:13Z</time>
      </trkpt>
      <trkpt lat="47.78956" lon="-3.59396">
        <ele>34</ele>
        <time>2021-08-14T09:26:14Z</time>
      </trkpt>
      <trkpt lat="47.78955" lon="-3.59394">
        <ele>34</ele>
        <time>2021-08-14T09:26:15Z</time>
      </trkpt>
      <trkpt lat="47.78955" lon="-3.59391">
        <ele>34</ele>
        <time>2021-08-14T09:26:16Z</time>
      </trkpt>
      <trkpt lat="47.78954" lon="-3.59388">
        <ele>34.2</ele>
        <time>2021-08-14T09:26:17Z</time>
      </trkpt>
      <trkpt lat="47.78953" lon="-3.59385">
        <ele>34.2</ele>
        <time>2021-08-14T09:26:18Z</time>
      </trkpt>
      <trkpt lat="47.78952" lon="-3.59382">
        <ele>34.2</ele>
        <time>2021-08-14T09:26:19Z</time>
      </trkpt>
      <trkpt lat="47.78952" lon="-3.59379">
        <ele>34.4</ele>
        <time>2021-08-14T09:26:20Z</time>
      </trkpt>
      <trkpt lat="47.78951" lon="-3.59376">
        <ele>34.6</ele>
        <time>2021-08-14T09:26:21Z</time>
      </trkpt>
      <trkpt lat="47.7895" lon="-3.59373">
        <ele>34.8</ele>
        <time>2021-08-14T09:26:22Z</time>
      </trkpt>
      <trkpt lat="47.7895" lon="-3.5937">
        <ele>34.8</ele>
        <time>2021-08-14T09:26:23Z</time>
      </trkpt>
      <trkpt lat="47.78949" lon="-3.59367">
        <ele>35</ele>
        <time>2021-08-14T09:26:24Z</time>
      </trkpt>
      <trkpt lat="47.78949" lon="-3.59364">
        <ele>35</ele>
        <time>2021-08-14T09:26:25Z</time>
      </trkpt>
      <trkpt lat="47.78948" lon="-3.59361">
        <ele>35.2</ele>
        <time>2021-08-14T09:26:26Z</time>
      </trkpt>
      <trkpt lat="47.78947" lon="-3.59358">
        <ele>35.4</ele>
        <time>2021-08-14T09:26:27Z</time>
      </trkpt>
      <trkpt lat="47.78947" lon="-3.59355">
        <ele>35.6</ele>
        <time>2021-08-14T09:26:28Z</time>
      </trkpt>
      <trkpt lat="47.78946" lon="-3.59352">
        <ele>35.8</ele>
        <time>2021-08-14T09:26:29Z</time>
      </trkpt>
      <trkpt lat="47.78946" lon="-3.59349">
        <ele>35.8</ele>
        <time>2021-08-14T09:26:30Z</time>
      </trkpt>
      <trkpt lat="47.78945" lon="-3.59346">
        <ele>36</ele>
        <time>2021-08-14T09:26:31Z</time>
      </trkpt>
      <trkpt lat="47.78944" lon="-3.59343">
        <ele>36.2</ele>
        <time>2021-08-14T09:26:32Z</time>
      </trkpt>
      <trkpt lat="47.78944" lon="-3.59339">
        <ele>36.4</ele>
        <time>2021-08-14T09:26:33Z</time>
      </trkpt>
      <trkpt lat="47.78943" lon="-3.59336">
        <ele>36.4</ele>
        <time>2021-08-14T09:26:34Z</time>
      </trkpt>
      <trkpt lat="47.78943" lon="-3.59333">
        <ele>36.6</ele>
        <time>2021-08-14T09:26:35Z</time>
      </trkpt>
      <trkpt lat="47.78942" lon="-3.5933">
        <ele>36.8</ele>
        <time>2021-08-14T09:26:36Z</time>
      </trkpt>
      <trkpt lat="47.78942" lon="-3.59326">
        <ele>37</ele>
        <time>2021-08-14T09:26:37Z</time>
      </trkpt>
      <trkpt lat="47.78941" lon="-3.59323">
        <ele>37.2</ele>
        <time>2021-08-14T09:26:38Z</time>
      </trkpt>
      <trkpt lat="47.78941" lon="-3.59319">
        <ele>37.2</ele>
        <time>2021-08-14T09:26:39Z</time>
      </trkpt>
      <trkpt lat="47.78941" lon="-3.59315">
        <ele>37.4</ele>
        <time>2021-08-14T09:26:40Z</time>
      </trkpt>
      <trkpt lat="47.78942" lon="-3.5931">
        <ele>37.6</ele>
        <time>2021-08-14T09:26:41Z</time>
      </trkpt>
      <trkpt lat="47.78942" lon="-3.59306">
        <ele>37.8</ele>
        <time>2021-08-14T09:26:42Z</time>
      </trkpt>
      <trkpt lat="47.78943" lon="-3.59301">
        <ele>37.8</ele>
        <time>2021-08-14T09:26:43Z</time>
      </trkpt>
      <trkpt lat="47.78944" lon="-3.59296">
        <ele>38</ele>
        <time>2021-08-14T09:26:44Z</time>
      </trkpt>
      <trkpt lat="47.78944" lon="-3.5929">
        <ele>38</ele>
        <time>2021-08-14T09:26:45Z</time>
      </trkpt>
      <trkpt lat="47.78945" lon="-3.59285">
        <ele>38</ele>
        <time>2021-08-14T09:26:46Z</time>
      </trkpt>
      <trkpt lat="47.78947" lon="-3.59279">
        <ele>38</ele>
        <time>2021-08-14T09:26:47Z</time>
      </trkpt>
      <trkpt lat="47.78948" lon="-3.59274">
        <ele>38</ele>
        <time>2021-08-14T09:26:48Z</time>
      </trkpt>
      <trkpt lat="47.78949" lon="-3.59268">
        <ele>38</ele>
        <time>2021-08-14T09:26:49Z</time>
      </trkpt>
      <trkpt lat="47.78951" lon="-3.59263">
        <ele>38</ele>
        <time>2021-08-14T09:26:50Z</time>
      </trkpt>
      <trkpt lat="47.78952" lon="-3.59257">
        <ele>38.2</ele>
        <time>2021-08-14T09:26:51Z</time>
      </trkpt>
      <trkpt lat="47.78954" lon="-3.59252">
        <ele>38.2</ele>
        <time>2021-08-14T09:26:52Z</time>
      </trkpt>
      <trkpt lat="47.78957" lon="-3.59247">
        <ele>38.2</ele>
        <time>2021-08-14T09:26:53Z</time>
      </trkpt>
      <trkpt lat="47.78959" lon="-3.59242">
        <ele>38.2</ele>
        <time>2021-08-14T09:26:54Z</time>
      </trkpt>
      <trkpt lat="47.78962" lon="-3.59237">
        <ele>38.2</ele>
        <time>2021-08-14T09:26:55Z</time>
      </trkpt>
      <trkpt lat="47.78964" lon="-3.59233">
        <ele>38.2</ele>
        <time>2021-08-14T09:26:56Z</time>
      </trkpt>
      <trkpt lat="47.78967" lon="-3.59228">
        <ele>38.2</ele>
        <time>2021-08-14T09:26:57Z</time>
      </trkpt>
      <trkpt lat="47.7897" lon="-3.59224">
        <ele>38.2</ele>
        <time>2021-08-14T09:26:58Z</time>
      </trkpt>
      <trkpt lat="47.78973" lon="-3.5922">
        <ele>38.2</ele>
        <time>2021-08-14T09:26:59Z</time>
      </trkpt>
      <trkpt lat="47.78976" lon="-3.59217">
        <ele>38.2</ele>
        <time>2021-08-14T09:27:00Z</time>
      </trkpt>
      <trkpt lat="47.78978" lon="-3.59213">
        <ele>38.2</ele>
        <time>2021-08-14T09:27:01Z</time>
      </trkpt>
      <trkpt lat="47.78982" lon="-3.59209">
        <ele>38.4</ele>
        <time>2021-08-14T09:27:02Z</time>
      </trkpt>
      <trkpt lat="47.78985" lon="-3.59206">
        <ele>38.4</ele>
        <time>2021-08-14T09:27:03Z</time>
      </trkpt>
      <trkpt lat="47.78988" lon="-3.59202">
        <ele>38.4</ele>
        <time>2021-08-14T09:27:04Z</time>
      </trkpt>
      <trkpt lat="47.78992" lon="-3.59198">
        <ele>38.4</ele>
        <time>2021-08-14T09:27:05Z</time>
      </trkpt>
      <trkpt lat="47.78996" lon="-3.59194">
        <ele>38.6</ele>
        <time>2021-08-14T09:27:06Z</time>
      </trkpt>
      <trkpt lat="47.78999" lon="-3.5919">
        <ele>38.6</ele>
        <time>2021-08-14T09:27:07Z</time>
      </trkpt>
      <trkpt lat="47.79002" lon="-3.59186">
        <ele>38.8</ele>
        <time>2021-08-14T09:27:08Z</time>
      </trkpt>
      <trkpt lat="47.79006" lon="-3.59182">
        <ele>38.8</ele>
        <time>2021-08-14T09:27:09Z</time>
      </trkpt>
      <trkpt lat="47.79009" lon="-3.59179">
        <ele>38.8</ele>
        <time>2021-08-14T09:27:10Z</time>
      </trkpt>
      <trkpt lat="47.79012" lon="-3.59175">
        <ele>38.8</ele>
        <time>2021-08-14T09:27:11Z</time>
      </trkpt>
      <trkpt lat="47.79015" lon="-3.59172">
        <ele>39</ele>
        <time>2021-08-14T09:27:12Z</time>
      </trkpt>
      <trkpt lat="47.79018" lon="-3.59168">
        <ele>39</ele>
        <time>2021-08-14T09:27:13Z</time>
      </trkpt>
      <trkpt lat="47.79022" lon="-3.59165">
        <ele>39</ele>
        <time>2021-08-14T09:27:14Z</time>
      </trkpt>
      <trkpt lat="47.79025" lon="-3.59161">
        <ele>39.2</ele>
        <time>2021-08-14T09:27:15Z</time>
      </trkpt>
      <trkpt lat="47.79028" lon="-3.59158">
        <ele>39.4</ele>
        <time>2021-08-14T09:27:16Z</time>
      </trkpt>
      <trkpt lat="47.79031" lon="-3.59155">
        <ele>39.8</ele>
        <time>2021-08-14T09:27:17Z</time>
      </trkpt>
      <trkpt lat="47.79034" lon="-3.59151">
        <ele>40</ele>
        <time>2021-08-14T09:27:18Z</time>
      </trkpt>
      <trkpt lat="47.79037" lon="-3.59148">
        <ele>40.4</ele>
        <time>2021-08-14T09:27:19Z</time>
      </trkpt>
      <trkpt lat="47.7904" lon="-3.59144">
        <ele>40.6</ele>
        <time>2021-08-14T09:27:20Z</time>
      </trkpt>
      <trkpt lat="47.79043" lon="-3.5914">
        <ele>40.8</ele>
        <time>2021-08-14T09:27:21Z</time>
      </trkpt>
      <trkpt lat="47.79046" lon="-3.59136">
        <ele>40.8</ele>
        <time>2021-08-14T09:27:22Z</time>
      </trkpt>
      <trkpt lat="47.79049" lon="-3.59132">
        <ele>41</ele>
        <time>2021-08-14T09:27:23Z</time>
      </trkpt>
      <trkpt lat="47.79053" lon="-3.59129">
        <ele>41</ele>
        <time>2021-08-14T09:27:24Z</time>
      </trkpt>
      <trkpt lat="47.79056" lon="-3.59125">
        <ele>41.2</ele>
        <time>2021-08-14T09:27:25Z</time>
      </trkpt>
      <trkpt lat="47.79059" lon="-3.59121">
        <ele>41.2</ele>
        <time>2021-08-14T09:27:26Z</time>
      </trkpt>
      <trkpt lat="47.79062" lon="-3.59118">
        <ele>41.4</ele>
        <time>2021-08-14T09:27:27Z</time>
      </trkpt>
      <trkpt lat="47.79066" lon="-3.59114">
        <ele>41.4</ele>
        <time>2021-08-14T09:27:28Z</time>
      </trkpt>
      <trkpt lat="47.79069" lon="-3.59111">
        <ele>41.6</ele>
        <time>2021-08-14T09:27:29Z</time>
      </trkpt>
      <trkpt lat="47.79072" lon="-3.59108">
        <ele>41.6</ele>
        <time>2021-08-14T09:27:30Z</time>
      </trkpt>
      <trkpt lat="47.79075" lon="-3.59104">
        <ele>41.8</ele>
        <time>2021-08-14T09:27:31Z</time>
      </trkpt>
      <trkpt lat="47.79078" lon="-3.59101">
        <ele>41.8</ele>
        <time>2021-08-14T09:27:32Z</time>
      </trkpt>
      <trkpt lat="47.79082" lon="-3.59098">
        <ele>42</ele>
        <time>2021-08-14T09:27:33Z</time>
      </trkpt>
      <trkpt lat="47.79085" lon="-3.59095">
        <ele>42</ele>
        <time>2021-08-14T09:27:34Z</time>
      </trkpt>
      <trkpt lat="47.79092" lon="-3.59089">
        <ele>42.2</ele>
        <time>2021-08-14T09:27:36Z</time>
      </trkpt>
      <trkpt lat="47.79095" lon="-3.59087">
        <ele>42.2</ele>
        <time>2021-08-14T09:27:37Z</time>
      </trkpt>
      <trkpt lat="47.79099" lon="-3.59084">
        <ele>42.4</ele>
        <time>2021-08-14T09:27:38Z</time>
      </trkpt>
      <trkpt lat="47.79102" lon="-3.59082">
        <ele>42.4</ele>
        <time>2021-08-14T09:27:39Z</time>
      </trkpt>
      <trkpt lat="47.79106" lon="-3.5908">
        <ele>42.6</ele>
        <time>2021-08-14T09:27:40Z</time>
      </trkpt>
      <trkpt lat="47.79109" lon="-3.59078">
        <ele>42.6</ele>
        <time>2021-08-14T09:27:41Z</time>
      </trkpt>
      <trkpt lat="47.79113" lon="-3.59076">
        <ele>42.8</ele>
        <time>2021-08-14T09:27:42Z</time>
      </trkpt>
      <trkpt lat="47.79117" lon="-3.59075">
        <ele>43</ele>
        <time>2021-08-14T09:27:43Z</time>
      </trkpt>
      <trkpt lat="47.7912" lon="-3.59073">
        <ele>43.2</ele>
        <time>2021-08-14T09:27:44Z</time>
      </trkpt>
      <trkpt lat="47.79124" lon="-3.59072">
        <ele>43.2</ele>
        <time>2021-08-14T09:27:45Z</time>
      </trkpt>
      <trkpt lat="47.79128" lon="-3.59071">
        <ele>43.4</ele>
        <time>2021-08-14T09:27:46Z</time>
      </trkpt>
      <trkpt lat="47.79131" lon="-3.5907">
        <ele>43.6</ele>
        <time>2021-08-14T09:27:47Z</time>
      </trkpt>
      <trkpt lat="47.79135" lon="-3.59068">
        <ele>44</ele>
        <time>2021-08-14T09:27:48Z</time>
      </trkpt>
      <trkpt lat="47.79139" lon="-3.59067">
        <ele>44</ele>
        <time>2021-08-14T09:27:49Z</time>
      </trkpt>
      <trkpt lat="47.79143" lon="-3.59066">
        <ele>44.2</ele>
        <time>2021-08-14T09:27:50Z</time>
      </trkpt>
      <trkpt lat="47.79147" lon="-3.59065">
        <ele>44.2</ele>
        <time>2021-08-14T09:27:51Z</time>
      </trkpt>
      <trkpt lat="47.79151" lon="-3.59064">
        <ele>44.4</ele>
        <time>2021-08-14T09:27:52Z</time>
      </trkpt>
      <trkpt lat="47.79155" lon="-3.59063">
        <ele>44.4</ele>
        <time>2021-08-14T09:27:53Z</time>
      </trkpt>
      <trkpt lat="47.79159" lon="-3.59062">
        <ele>44.6</ele>
        <time>2021-08-14T09:27:54Z</time>
      </trkpt>
      <trkpt lat="47.79163" lon="-3.5906">
        <ele>44.8</ele>
        <time>2021-08-14T09:27:55Z</time>
      </trkpt>
      <trkpt lat="47.79167" lon="-3.59059">
        <ele>44.8</ele>
        <time>2021-08-14T09:27:56Z</time>
      </trkpt>
      <trkpt lat="47.79171" lon="-3.59057">
        <ele>44.8</ele>
        <time>2021-08-14T09:27:57Z</time>
      </trkpt>
      <trkpt lat="47.79175" lon="-3.59056">
        <ele>45</ele>
        <time>2021-08-14T09:27:58Z</time>
      </trkpt>
      <trkpt lat="47.7918" lon="-3.59055">
        <ele>45</ele>
        <time>2021-08-14T09:27:59Z</time>
      </trkpt>
      <trkpt lat="47.79184" lon="-3.59054">
        <ele>45</ele>
        <time>2021-08-14T09:28:00Z</time>
      </trkpt>
      <trkpt lat="47.79189" lon="-3.59053">
        <ele>45</ele>
        <time>2021-08-14T09:28:01Z</time>
      </trkpt>
      <trkpt lat="47.79193" lon="-3.59052">
        <ele>45</ele>
        <time>2021-08-14T09:28:02Z</time>
      </trkpt>
      <trkpt lat="47.79198" lon="-3.59051">
        <ele>45</ele>
        <time>2021-08-14T09:28:03Z</time>
      </trkpt>
      <trkpt lat="47.79203" lon="-3.5905">
        <ele>45</ele>
        <time>2021-08-14T09:28:04Z</time>
      </trkpt>
      <trkpt lat="47.79208" lon="-3.59049">
        <ele>45</ele>
        <time>2021-08-14T09:28:05Z</time>
      </trkpt>
      <trkpt lat="47.79213" lon="-3.59048">
        <ele>45</ele>
        <time>2021-08-14T09:28:06Z</time>
      </trkpt>
      <trkpt lat="47.79218" lon="-3.59046">
        <ele>45</ele>
        <time>2021-08-14T09:28:07Z</time>
      </trkpt>
      <trkpt lat="47.79223" lon="-3.59045">
        <ele>45</ele>
        <time>2021-08-14T09:28:08Z</time>
      </trkpt>
      <trkpt lat="47.79227" lon="-3.59044">
        <ele>45</ele>
        <time>2021-08-14T09:28:09Z</time>
      </trkpt>
      <trkpt lat="47.79232" lon="-3.59042">
        <ele>45</ele>
        <time>2021-08-14T09:28:10Z</time>
      </trkpt>
      <trkpt lat="47.79237" lon="-3.59041">
        <ele>45</ele>
        <time>2021-08-14T09:28:11Z</time>
      </trkpt>
      <trkpt lat="47.79242" lon="-3.59039">
        <ele>45.2</ele>
        <time>2021-08-14T09:28:12Z</time>
      </trkpt>
      <trkpt lat="47.79248" lon="-3.59038">
        <ele>45.2</ele>
        <time>2021-08-14T09:28:13Z</time>
      </trkpt>
      <trkpt lat="47.79253" lon="-3.59036">
        <ele>45.2</ele>
        <time>2021-08-14T09:28:14Z</time>
      </trkpt>
      <trkpt lat="47.79258" lon="-3.59034">
        <ele>45.2</ele>
        <time>2021-08-14T09:28:15Z</time>
      </trkpt>
      <trkpt lat="47.79263" lon="-3.59032">
        <ele>45.4</ele>
        <time>2021-08-14T09:28:16Z</time>
      </trkpt>
      <trkpt lat="47.79268" lon="-3.59029">
        <ele>45.4</ele>
        <time>2021-08-14T09:28:17Z</time>
      </trkpt>
      <trkpt lat="47.79273" lon="-3.59026">
        <ele>45.6</ele>
        <time>2021-08-14T09:28:18Z</time>
      </trkpt>
      <trkpt lat="47.79278" lon="-3.59023">
        <ele>45.6</ele>
        <time>2021-08-14T09:28:19Z</time>
      </trkpt>
      <trkpt lat="47.79283" lon="-3.59019">
        <ele>45.6</ele>
        <time>2021-08-14T09:28:20Z</time>
      </trkpt>
      <trkpt lat="47.79287" lon="-3.59014">
        <ele>45.6</ele>
        <time>2021-08-14T09:28:21Z</time>
      </trkpt>
      <trkpt lat="47.79291" lon="-3.59009">
        <ele>45.6</ele>
        <time>2021-08-14T09:28:22Z</time>
      </trkpt>
      <trkpt lat="47.79295" lon="-3.59003">
        <ele>45.6</ele>
        <time>2021-08-14T09:28:23Z</time>
      </trkpt>
      <trkpt lat="47.79299" lon="-3.58997">
        <ele>45.8</ele>
        <time>2021-08-14T09:28:24Z</time>
      </trkpt>
      <trkpt lat="47.79302" lon="-3.5899">
        <ele>45.8</ele>
        <time>2021-08-14T09:28:25Z</time>
      </trkpt>
      <trkpt lat="47.79305" lon="-3.58983">
        <ele>45.8</ele>
        <time>2021-08-14T09:28:26Z</time>
      </trkpt>
      <trkpt lat="47.79308" lon="-3.58975">
        <ele>45.8</ele>
        <time>2021-08-14T09:28:27Z</time>
      </trkpt>
      <trkpt lat="47.7931" lon="-3.58967">
        <ele>45.8</ele>
        <time>2021-08-14T09:28:28Z</time>
      </trkpt>
      <trkpt lat="47.79312" lon="-3.58958">
        <ele>45.8</ele>
        <time>2021-08-14T09:28:29Z</time>
      </trkpt>
      <trkpt lat="47.79314" lon="-3.58949">
        <ele>45.8</ele>
        <time>2021-08-14T09:28:30Z</time>
      </trkpt>
      <trkpt lat="47.79316" lon="-3.58939">
        <ele>45.8</ele>
        <time>2021-08-14T09:28:31Z</time>
      </trkpt>
      <trkpt lat="47.79318" lon="-3.58929">
        <ele>45.8</ele>
        <time>2021-08-14T09:28:32Z</time>
      </trkpt>
      <trkpt lat="47.79319" lon="-3.58918">
        <ele>45.8</ele>
        <time>2021-08-14T09:28:33Z</time>
      </trkpt>
      <trkpt lat="47.79321" lon="-3.58908">
        <ele>45.8</ele>
        <time>2021-08-14T09:28:34Z</time>
      </trkpt>
      <trkpt lat="47.79322" lon="-3.58896">
        <ele>45.8</ele>
        <time>2021-08-14T09:28:35Z</time>
      </trkpt>
      <trkpt lat="47.79324" lon="-3.58885">
        <ele>45.8</ele>
        <time>2021-08-14T09:28:36Z</time>
      </trkpt>
      <trkpt lat="47.79327" lon="-3.58874">
        <ele>45.8</ele>
        <time>2021-08-14T09:28:37Z</time>
      </trkpt>
      <trkpt lat="47.79329" lon="-3.58863">
        <ele>45.8</ele>
        <time>2021-08-14T09:28:38Z</time>
      </trkpt>
      <trkpt lat="47.79332" lon="-3.58852">
        <ele>45.6</ele>
        <time>2021-08-14T09:28:39Z</time>
      </trkpt>
      <trkpt lat="47.79336" lon="-3.58842">
        <ele>45.4</ele>
        <time>2021-08-14T09:28:40Z</time>
      </trkpt>
      <trkpt lat="47.79341" lon="-3.58832">
        <ele>45</ele>
        <time>2021-08-14T09:28:41Z</time>
      </trkpt>
      <trkpt lat="47.79345" lon="-3.58823">
        <ele>44.8</ele>
        <time>2021-08-14T09:28:42Z</time>
      </trkpt>
      <trkpt lat="47.79351" lon="-3.58816">
        <ele>44.4</ele>
        <time>2021-08-14T09:28:43Z</time>
      </trkpt>
      <trkpt lat="47.79357" lon="-3.5881">
        <ele>44.2</ele>
        <time>2021-08-14T09:28:44Z</time>
      </trkpt>
      <trkpt lat="47.79364" lon="-3.58804">
        <ele>44</ele>
        <time>2021-08-14T09:28:45Z</time>
      </trkpt>
      <trkpt lat="47.7937" lon="-3.58799">
        <ele>43.8</ele>
        <time>2021-08-14T09:28:46Z</time>
      </trkpt>
      <trkpt lat="47.79376" lon="-3.58795">
        <ele>43.8</ele>
        <time>2021-08-14T09:28:47Z</time>
      </trkpt>
      <trkpt lat="47.79382" lon="-3.58791">
        <ele>43.8</ele>
        <time>2021-08-14T09:28:48Z</time>
      </trkpt>
      <trkpt lat="47.79388" lon="-3.58787">
        <ele>43.8</ele>
        <time>2021-08-14T09:28:49Z</time>
      </trkpt>
      <trkpt lat="47.79394" lon="-3.58784">
        <ele>43.8</ele>
        <time>2021-08-14T09:28:50Z</time>
      </trkpt>
      <trkpt lat="47.79399" lon="-3.5878">
        <ele>43.8</ele>
        <time>2021-08-14T09:28:51Z</time>
      </trkpt>
      <trkpt lat="47.79405" lon="-3.58777">
        <ele>43.8</ele>
        <time>2021-08-14T09:28:52Z</time>
      </trkpt>
      <trkpt lat="47.79409" lon="-3.58774">
        <ele>43.8</ele>
        <time>2021-08-14T09:28:53Z</time>
      </trkpt>
      <trkpt lat="47.79414" lon="-3.58771">
        <ele>44</ele>
        <time>2021-08-14T09:28:54Z</time>
      </trkpt>
      <trkpt lat="47.79419" lon="-3.58768">
        <ele>44</ele>
        <time>2021-08-14T09:28:55Z</time>
      </trkpt>
      <trkpt lat="47.79423" lon="-3.58765">
        <ele>44.4</ele>
        <time>2021-08-14T09:28:56Z</time>
      </trkpt>
      <trkpt lat="47.79427" lon="-3.58763">
        <ele>44.8</ele>
        <time>2021-08-14T09:28:57Z</time>
      </trkpt>
      <trkpt lat="47.79431" lon="-3.5876">
        <ele>45</ele>
        <time>2021-08-14T09:28:58Z</time>
      </trkpt>
      <trkpt lat="47.79434" lon="-3.58758">
        <ele>45.4</ele>
        <time>2021-08-14T09:28:59Z</time>
      </trkpt>
      <trkpt lat="47.79438" lon="-3.58757">
        <ele>46</ele>
        <time>2021-08-14T09:29:00Z</time>
      </trkpt>
      <trkpt lat="47.79441" lon="-3.58755">
        <ele>46.6</ele>
        <time>2021-08-14T09:29:01Z</time>
      </trkpt>
      <trkpt lat="47.79444" lon="-3.58753">
        <ele>47</ele>
        <time>2021-08-14T09:29:02Z</time>
      </trkpt>
      <trkpt lat="47.79447" lon="-3.5875">
        <ele>47.4</ele>
        <time>2021-08-14T09:29:03Z</time>
      </trkpt>
      <trkpt lat="47.79449" lon="-3.58747">
        <ele>47.6</ele>
        <time>2021-08-14T09:29:04Z</time>
      </trkpt>
      <trkpt lat="47.79452" lon="-3.58745">
        <ele>48</ele>
        <time>2021-08-14T09:29:05Z</time>
      </trkpt>
      <trkpt lat="47.79455" lon="-3.58744">
        <ele>48.2</ele>
        <time>2021-08-14T09:29:06Z</time>
      </trkpt>
      <trkpt lat="47.79457" lon="-3.58742">
        <ele>48.6</ele>
        <time>2021-08-14T09:29:07Z</time>
      </trkpt>
      <trkpt lat="47.7946" lon="-3.5874">
        <ele>48.8</ele>
        <time>2021-08-14T09:29:08Z</time>
      </trkpt>
      <trkpt lat="47.79462" lon="-3.58738">
        <ele>49.2</ele>
        <time>2021-08-14T09:29:09Z</time>
      </trkpt>
      <trkpt lat="47.79464" lon="-3.58737">
        <ele>49.6</ele>
        <time>2021-08-14T09:29:10Z</time>
      </trkpt>
      <trkpt lat="47.79467" lon="-3.58736">
        <ele>50</ele>
        <time>2021-08-14T09:29:11Z</time>
      </trkpt>
      <trkpt lat="47.79469" lon="-3.58734">
        <ele>50</ele>
        <time>2021-08-14T09:29:12Z</time>
      </trkpt>
      <trkpt lat="47.79471" lon="-3.58733">
        <ele>50.2</ele>
        <time>2021-08-14T09:29:13Z</time>
      </trkpt>
      <trkpt lat="47.79473" lon="-3.58731">
        <ele>50.4</ele>
        <time>2021-08-14T09:29:14Z</time>
      </trkpt>
      <trkpt lat="47.79476" lon="-3.5873">
        <ele>50.6</ele>
        <time>2021-08-14T09:29:15Z</time>
      </trkpt>
      <trkpt lat="47.79478" lon="-3.58729">
        <ele>51</ele>
        <time>2021-08-14T09:29:16Z</time>
      </trkpt>
      <trkpt lat="47.7948" lon="-3.58727">
        <ele>51.2</ele>
        <time>2021-08-14T09:29:17Z</time>
      </trkpt>
      <trkpt lat="47.79482" lon="-3.58726">
        <ele>51.2</ele>
        <time>2021-08-14T09:29:18Z</time>
      </trkpt>
      <trkpt lat="47.79485" lon="-3.58724">
        <ele>51.4</ele>
        <time>2021-08-14T09:29:19Z</time>
      </trkpt>
      <trkpt lat="47.79487" lon="-3.58722">
        <ele>51.6</ele>
        <time>2021-08-14T09:29:20Z</time>
      </trkpt>
      <trkpt lat="47.7949" lon="-3.58721">
        <ele>51.8</ele>
        <time>2021-08-14T09:29:21Z</time>
      </trkpt>
      <trkpt lat="47.79492" lon="-3.58719">
        <ele>52</ele>
        <time>2021-08-14T09:29:22Z</time>
      </trkpt>
      <trkpt lat="47.79494" lon="-3.58717">
        <ele>52</ele>
        <time>2021-08-14T09:29:23Z</time>
      </trkpt>
      <trkpt lat="47.79497" lon="-3.58716">
        <ele>52.2</ele>
        <time>2021-08-14T09:29:24Z</time>
      </trkpt>
      <trkpt lat="47.79499" lon="-3.58714">
        <ele>52.4</ele>
        <time>2021-08-14T09:29:25Z</time>
      </trkpt>
      <trkpt lat="47.79501" lon="-3.58712">
        <ele>52.6</ele>
        <time>2021-08-14T09:29:26Z</time>
      </trkpt>
      <trkpt lat="47.79504" lon="-3.58711">
        <ele>52.8</ele>
        <time>2021-08-14T09:29:27Z</time>
      </trkpt>
      <trkpt lat="47.79506" lon="-3.58709">
        <ele>53</ele>
        <time>2021-08-14T09:29:28Z</time>
      </trkpt>
      <trkpt lat="47.79509" lon="-3.58708">
        <ele>53</ele>
        <time>2021-08-14T09:29:29Z</time>
      </trkpt>
      <trkpt lat="47.79511" lon="-3.58706">
        <ele>53</ele>
        <time>2021-08-14T09:29:30Z</time>
      </trkpt>
      <trkpt lat="47.79514" lon="-3.58704">
        <ele>53.2</ele>
        <time>2021-08-14T09:29:31Z</time>
      </trkpt>
      <trkpt lat="47.79517" lon="-3.58702">
        <ele>53.4</ele>
        <time>2021-08-14T09:29:32Z</time>
      </trkpt>
      <trkpt lat="47.79519" lon="-3.587">
        <ele>53.6</ele>
        <time>2021-08-14T09:29:33Z</time>
      </trkpt>
      <trkpt lat="47.79522" lon="-3.58698">
        <ele>53.6</ele>
        <time>2021-08-14T09:29:34Z</time>
      </trkpt>
      <trkpt lat="47.79525" lon="-3.58696">
        <ele>53.8</ele>
        <time>2021-08-14T09:29:35Z</time>
      </trkpt>
      <trkpt lat="47.79528" lon="-3.58694">
        <ele>53.8</ele>
        <time>2021-08-14T09:29:36Z</time>
      </trkpt>
      <trkpt lat="47.79531" lon="-3.58692">
        <ele>53.8</ele>
        <time>2021-08-14T09:29:37Z</time>
      </trkpt>
      <trkpt lat="47.79533" lon="-3.58689">
        <ele>54</ele>
        <time>2021-08-14T09:29:38Z</time>
      </trkpt>
      <trkpt lat="47.79536" lon="-3.58687">
        <ele>54</ele>
        <time>2021-08-14T09:29:39Z</time>
      </trkpt>
      <trkpt lat="47.79539" lon="-3.58684">
        <ele>54</ele>
        <time>2021-08-14T09:29:40Z</time>
      </trkpt>
      <trkpt lat="47.79542" lon="-3.58682">
        <ele>54</ele>
        <time>2021-08-14T09:29:41Z</time>
      </trkpt>
      <trkpt lat="47.79545" lon="-3.58679">
        <ele>54</ele>
        <time>2021-08-14T09:29:42Z</time>
      </trkpt>
      <trkpt lat="47.79548" lon="-3.58677">
        <ele>54</ele>
        <time>2021-08-14T09:29:43Z</time>
      </trkpt>
      <trkpt lat="47.79551" lon="-3.58674">
        <ele>54</ele>
        <time>2021-08-14T09:29:44Z</time>
      </trkpt>
      <trkpt lat="47.79553" lon="-3.58672">
        <ele>54</ele>
        <time>2021-08-14T09:29:45Z</time>
      </trkpt>
      <trkpt lat="47.79556" lon="-3.5867">
        <ele>54.2</ele>
        <time>2021-08-14T09:29:46Z</time>
      </trkpt>
      <trkpt lat="47.79558" lon="-3.58668">
        <ele>54.2</ele>
        <time>2021-08-14T09:29:47Z</time>
      </trkpt>
      <trkpt lat="47.7956" lon="-3.58666">
        <ele>54.2</ele>
        <time>2021-08-14T09:29:48Z</time>
      </trkpt>
      <trkpt lat="47.79562" lon="-3.58664">
        <ele>54.2</ele>
        <time>2021-08-14T09:29:49Z</time>
      </trkpt>
      <trkpt lat="47.79564" lon="-3.58662">
        <ele>54.4</ele>
        <time>2021-08-14T09:29:50Z</time>
      </trkpt>
      <trkpt lat="47.79565" lon="-3.5866">
        <ele>54.2</ele>
        <time>2021-08-14T09:29:51Z</time>
      </trkpt>
      <trkpt lat="47.79567" lon="-3.58659">
        <ele>54.4</ele>
        <time>2021-08-14T09:29:52Z</time>
      </trkpt>
      <trkpt lat="47.79568" lon="-3.58657">
        <ele>54.2</ele>
        <time>2021-08-14T09:29:53Z</time>
      </trkpt>
      <trkpt lat="47.7957" lon="-3.58656">
        <ele>54.4</ele>
        <time>2021-08-14T09:29:54Z</time>
      </trkpt>
      <trkpt lat="47.79571" lon="-3.58655">
        <ele>54.2</ele>
        <time>2021-08-14T09:29:55Z</time>
      </trkpt>
      <trkpt lat="47.79573" lon="-3.58653">
        <ele>54.2</ele>
        <time>2021-08-14T09:29:56Z</time>
      </trkpt>
      <trkpt lat="47.79574" lon="-3.58651">
        <ele>54.4</ele>
        <time>2021-08-14T09:29:57Z</time>
      </trkpt>
      <trkpt lat="47.79575" lon="-3.58648">
        <ele>54.4</ele>
        <time>2021-08-14T09:29:58Z</time>
      </trkpt>
      <trkpt lat="47.79575" lon="-3.58645">
        <ele>54.4</ele>
        <time>2021-08-14T09:29:59Z</time>
      </trkpt>
      <trkpt lat="47.79575" lon="-3.58642">
        <ele>54.6</ele>
        <time>2021-08-14T09:30:00Z</time>
      </trkpt>
      <trkpt lat="47.79573" lon="-3.5864">
        <ele>54.6</ele>
        <time>2021-08-14T09:30:01Z</time>
      </trkpt>
      <trkpt lat="47.79572" lon="-3.58639">
        <ele>54.6</ele>
        <time>2021-08-14T09:30:02Z</time>
      </trkpt>
      <trkpt lat="47.7957" lon="-3.5864">
        <ele>54.6</ele>
        <time>2021-08-14T09:30:03Z</time>
      </trkpt>
      <trkpt lat="47.79569" lon="-3.5864">
        <ele>54.6</ele>
        <time>2021-08-14T09:30:04Z</time>
      </trkpt>
      <trkpt lat="47.79567" lon="-3.58639">
        <ele>54.8</ele>
        <time>2021-08-14T09:30:05Z</time>
      </trkpt>
      <trkpt lat="47.79565" lon="-3.58638">
        <ele>54.8</ele>
        <time>2021-08-14T09:30:06Z</time>
      </trkpt>
      <trkpt lat="47.79563" lon="-3.58637">
        <ele>54.8</ele>
        <time>2021-08-14T09:30:07Z</time>
      </trkpt>
      <trkpt lat="47.79561" lon="-3.58635">
        <ele>54.8</ele>
        <time>2021-08-14T09:30:08Z</time>
      </trkpt>
      <trkpt lat="47.7956" lon="-3.58633">
        <ele>55</ele>
        <time>2021-08-14T09:30:09Z</time>
      </trkpt>
      <trkpt lat="47.79559" lon="-3.5863">
        <ele>55</ele>
        <time>2021-08-14T09:30:10Z</time>
      </trkpt>
      <trkpt lat="47.79559" lon="-3.58626">
        <ele>55</ele>
        <time>2021-08-14T09:30:11Z</time>
      </trkpt>
      <trkpt lat="47.79559" lon="-3.58621">
        <ele>55</ele>
        <time>2021-08-14T09:30:12Z</time>
      </trkpt>
      <trkpt lat="47.79559" lon="-3.58617">
        <ele>55.2</ele>
        <time>2021-08-14T09:30:13Z</time>
      </trkpt>
      <trkpt lat="47.79559" lon="-3.58613">
        <ele>55.2</ele>
        <time>2021-08-14T09:30:14Z</time>
      </trkpt>
      <trkpt lat="47.7956" lon="-3.58608">
        <ele>55.2</ele>
        <time>2021-08-14T09:30:15Z</time>
      </trkpt>
      <trkpt lat="47.7956" lon="-3.58604">
        <ele>55.2</ele>
        <time>2021-08-14T09:30:16Z</time>
      </trkpt>
      <trkpt lat="47.7956" lon="-3.58599">
        <ele>55.2</ele>
        <time>2021-08-14T09:30:17Z</time>
      </trkpt>
      <trkpt lat="47.79559" lon="-3.58595">
        <ele>55.2</ele>
        <time>2021-08-14T09:30:18Z</time>
      </trkpt>
      <trkpt lat="47.79559" lon="-3.58591">
        <ele>55.2</ele>
        <time>2021-08-14T09:30:19Z</time>
      </trkpt>
      <trkpt lat="47.79559" lon="-3.58587">
        <ele>55.2</ele>
        <time>2021-08-14T09:30:20Z</time>
      </trkpt>
      <trkpt lat="47.7956" lon="-3.58584">
        <ele>55.2</ele>
        <time>2021-08-14T09:30:21Z</time>
      </trkpt>
      <trkpt lat="47.79559" lon="-3.58582">
        <ele>55.2</ele>
        <time>2021-08-14T09:30:22Z</time>
      </trkpt>
      <trkpt lat="47.79558" lon="-3.5858">
        <ele>55.2</ele>
        <time>2021-08-14T09:30:23Z</time>
      </trkpt>
      <trkpt lat="47.79557" lon="-3.58579">
        <ele>55.4</ele>
        <time>2021-08-14T09:30:24Z</time>
      </trkpt>
      <trkpt lat="47.79556" lon="-3.58578">
        <ele>55.4</ele>
        <time>2021-08-14T09:30:25Z</time>
      </trkpt>
      <trkpt lat="47.79554" lon="-3.58577">
        <ele>55.4</ele>
        <time>2021-08-14T09:30:26Z</time>
      </trkpt>
      <trkpt lat="47.79552" lon="-3.58575">
        <ele>55.4</ele>
        <time>2021-08-14T09:30:27Z</time>
      </trkpt>
      <trkpt lat="47.7955" lon="-3.58575">
        <ele>55.4</ele>
        <time>2021-08-14T09:30:28Z</time>
      </trkpt>
      <trkpt lat="47.79547" lon="-3.58574">
        <ele>55.4</ele>
        <time>2021-08-14T09:30:29Z</time>
      </trkpt>
      <trkpt lat="47.79544" lon="-3.58573">
        <ele>55.4</ele>
        <time>2021-08-14T09:30:30Z</time>
      </trkpt>
      <trkpt lat="47.79542" lon="-3.58572">
        <ele>55.4</ele>
        <time>2021-08-14T09:30:31Z</time>
      </trkpt>
      <trkpt lat="47.7954" lon="-3.5857">
        <ele>55.4</ele>
        <time>2021-08-14T09:30:32Z</time>
      </trkpt>
      <trkpt lat="47.79539" lon="-3.58566">
        <ele>55.4</ele>
        <time>2021-08-14T09:30:33Z</time>
      </trkpt>
      <trkpt lat="47.79538" lon="-3.58562">
        <ele>55.4</ele>
        <time>2021-08-14T09:30:34Z</time>
      </trkpt>
      <trkpt lat="47.79538" lon="-3.58559">
        <ele>55.4</ele>
        <time>2021-08-14T09:30:35Z</time>
      </trkpt>
      <trkpt lat="47.79538" lon="-3.58557">
        <ele>55.2</ele>
        <time>2021-08-14T09:30:36Z</time>
      </trkpt>
      <trkpt lat="47.79538" lon="-3.58556">
        <ele>55.2</ele>
        <time>2021-08-14T09:30:37Z</time>
      </trkpt>
      <trkpt lat="47.79538" lon="-3.58555">
        <ele>55.2</ele>
        <time>2021-08-14T09:30:38Z</time>
      </trkpt>
      <trkpt lat="47.79539" lon="-3.58554">
        <ele>55</ele>
        <time>2021-08-14T09:30:39Z</time>
      </trkpt>
      <trkpt lat="47.79541" lon="-3.58554">
        <ele>55</ele>
        <time>2021-08-14T09:30:40Z</time>
      </trkpt>
      <trkpt lat="47.79544" lon="-3.58554">
        <ele>55</ele>
        <time>2021-08-14T09:30:41Z</time>
      </trkpt>
      <trkpt lat="47.79546" lon="-3.58554">
        <ele>55</ele>
        <time>2021-08-14T09:30:42Z</time>
      </trkpt>
      <trkpt lat="47.79549" lon="-3.58555">
        <ele>55</ele>
        <time>2021-08-14T09:30:43Z</time>
      </trkpt>
      <trkpt lat="47.79552" lon="-3.58555">
        <ele>55</ele>
        <time>2021-08-14T09:30:44Z</time>
      </trkpt>
      <trkpt lat="47.79554" lon="-3.58556">
        <ele>54.8</ele>
        <time>2021-08-14T09:30:45Z</time>
      </trkpt>
      <trkpt lat="47.79556" lon="-3.58556">
        <ele>54.8</ele>
        <time>2021-08-14T09:30:46Z</time>
      </trkpt>
      <trkpt lat="47.79558" lon="-3.58556">
        <ele>54.8</ele>
        <time>2021-08-14T09:30:47Z</time>
      </trkpt>
      <trkpt lat="47.7956" lon="-3.58557">
        <ele>54.8</ele>
        <time>2021-08-14T09:30:48Z</time>
      </trkpt>
      <trkpt lat="47.79561" lon="-3.58557">
        <ele>54.8</ele>
        <time>2021-08-14T09:30:49Z</time>
      </trkpt>
      <trkpt lat="47.79563" lon="-3.58558">
        <ele>54.8</ele>
        <time>2021-08-14T09:30:50Z</time>
      </trkpt>
      <trkpt lat="47.79564" lon="-3.58558">
        <ele>54.8</ele>
        <time>2021-08-14T09:30:51Z</time>
      </trkpt>
      <trkpt lat="47.79565" lon="-3.58557">
        <ele>54.8</ele>
        <time>2021-08-14T09:30:52Z</time>
      </trkpt>
      <trkpt lat="47.79566" lon="-3.58557">
        <ele>54.8</ele>
        <time>2021-08-14T09:30:53Z</time>
      </trkpt>
      <trkpt lat="47.79567" lon="-3.58555">
        <ele>54.8</ele>
        <time>2021-08-14T09:30:54Z</time>
      </trkpt>
      <trkpt lat="47.79568" lon="-3.58554">
        <ele>54.8</ele>
        <time>2021-08-14T09:30:55Z</time>
      </trkpt>
      <trkpt lat="47.79569" lon="-3.58551">
        <ele>54.8</ele>
        <time>2021-08-14T09:30:56Z</time>
      </trkpt>
      <trkpt lat="47.79569" lon="-3.58549">
        <ele>55</ele>
        <time>2021-08-14T09:30:57Z</time>
      </trkpt>
      <trkpt lat="47.79569" lon="-3.58548">
        <ele>55</ele>
        <time>2021-08-14T09:30:58Z</time>
      </trkpt>
      <trkpt lat="47.79569" lon="-3.58547">
        <ele>55</ele>
        <time>2021-08-14T09:30:59Z</time>
      </trkpt>
      <trkpt lat="47.79568" lon="-3.58545">
        <ele>55</ele>
        <time>2021-08-14T09:31:00Z</time>
      </trkpt>
      <trkpt lat="47.79568" lon="-3.58544">
        <ele>55.2</ele>
        <time>2021-08-14T09:31:01Z</time>
      </trkpt>
      <trkpt lat="47.79568" lon="-3.58542">
        <ele>55.4</ele>
        <time>2021-08-14T09:31:02Z</time>
      </trkpt>
      <trkpt lat="47.79568" lon="-3.58541">
        <ele>55.4</ele>
        <time>2021-08-14T09:31:03Z</time>
      </trkpt>
      <trkpt lat="47.79568" lon="-3.5854">
        <ele>55.4</ele>
        <time>2021-08-14T09:31:04Z</time>
      </trkpt>
      <trkpt lat="47.79568" lon="-3.5854">
        <ele>55.4</ele>
        <time>2021-08-14T09:31:05Z</time>
      </trkpt>
      <trkpt lat="47.79569" lon="-3.58539">
        <ele>55.6</ele>
        <time>2021-08-14T09:31:06Z</time>
      </trkpt>
      <trkpt lat="47.79569" lon="-3.58539">
        <ele>55.8</ele>
        <time>2021-08-14T09:31:07Z</time>
      </trkpt>
      <trkpt lat="47.79572" lon="-3.58542">
        <ele>55.6</ele>
        <time>2021-08-14T09:32:06Z</time>
      </trkpt>
      <trkpt lat="47.79571" lon="-3.58545">
        <ele>55.8</ele>
        <time>2021-08-14T09:32:07Z</time>
      </trkpt>
      <trkpt lat="47.79569" lon="-3.58547">
        <ele>55.8</ele>
        <time>2021-08-14T09:32:08Z</time>
      </trkpt>
      <trkpt lat="47.79568" lon="-3.5855">
        <ele>55.8</ele>
        <time>2021-08-14T09:32:09Z</time>
      </trkpt>
      <trkpt lat="47.79567" lon="-3.58553">
        <ele>55.8</ele>
        <time>2021-08-14T09:32:10Z</time>
      </trkpt>
      <trkpt lat="47.79565" lon="-3.58554">
        <ele>55.8</ele>
        <time>2021-08-14T09:32:11Z</time>
      </trkpt>
      <trkpt lat="47.79562" lon="-3.58554">
        <ele>55.8</ele>
        <time>2021-08-14T09:32:12Z</time>
      </trkpt>
      <trkpt lat="47.79559" lon="-3.58554">
        <ele>55.8</ele>
        <time>2021-08-14T09:32:13Z</time>
      </trkpt>
      <trkpt lat="47.79555" lon="-3.58554">
        <ele>55.8</ele>
        <time>2021-08-14T09:32:14Z</time>
      </trkpt>
      <trkpt lat="47.7955" lon="-3.58553">
        <ele>55.8</ele>
        <time>2021-08-14T09:32:15Z</time>
      </trkpt>
      <trkpt lat="47.79546" lon="-3.58552">
        <ele>55.8</ele>
        <time>2021-08-14T09:32:16Z</time>
      </trkpt>
      <trkpt lat="47.79542" lon="-3.58551">
        <ele>55.8</ele>
        <time>2021-08-14T09:32:17Z</time>
      </trkpt>
      <trkpt lat="47.79537" lon="-3.5855">
        <ele>55.8</ele>
        <time>2021-08-14T09:32:18Z</time>
      </trkpt>
      <trkpt lat="47.79532" lon="-3.58549">
        <ele>55.8</ele>
        <time>2021-08-14T09:32:19Z</time>
      </trkpt>
      <trkpt lat="47.79527" lon="-3.58548">
        <ele>55.6</ele>
        <time>2021-08-14T09:32:20Z</time>
      </trkpt>
      <trkpt lat="47.79522" lon="-3.58547">
        <ele>55.4</ele>
        <time>2021-08-14T09:32:21Z</time>
      </trkpt>
      <trkpt lat="47.79518" lon="-3.58546">
        <ele>55.2</ele>
        <time>2021-08-14T09:32:22Z</time>
      </trkpt>
      <trkpt lat="47.79513" lon="-3.58545">
        <ele>55</ele>
        <time>2021-08-14T09:32:23Z</time>
      </trkpt>
      <trkpt lat="47.7951" lon="-3.58543">
        <ele>54.8</ele>
        <time>2021-08-14T09:32:24Z</time>
      </trkpt>
      <trkpt lat="47.79505" lon="-3.58541">
        <ele>54.4</ele>
        <time>2021-08-14T09:32:25Z</time>
      </trkpt>
      <trkpt lat="47.79501" lon="-3.5854">
        <ele>54</ele>
        <time>2021-08-14T09:32:26Z</time>
      </trkpt>
      <trkpt lat="47.79498" lon="-3.58538">
        <ele>53.8</ele>
        <time>2021-08-14T09:32:27Z</time>
      </trkpt>
      <trkpt lat="47.79495" lon="-3.58537">
        <ele>53.8</ele>
        <time>2021-08-14T09:32:28Z</time>
      </trkpt>
      <trkpt lat="47.79493" lon="-3.58537">
        <ele>53.6</ele>
        <time>2021-08-14T09:32:29Z</time>
      </trkpt>
      <trkpt lat="47.79492" lon="-3.58537">
        <ele>53.4</ele>
        <time>2021-08-14T09:32:30Z</time>
      </trkpt>
      <trkpt lat="47.7949" lon="-3.58536">
        <ele>53.6</ele>
        <time>2021-08-14T09:32:31Z</time>
      </trkpt>
      <trkpt lat="47.79487" lon="-3.58535">
        <ele>53.2</ele>
        <time>2021-08-14T09:32:32Z</time>
      </trkpt>
      <trkpt lat="47.79485" lon="-3.58534">
        <ele>53.2</ele>
        <time>2021-08-14T09:32:33Z</time>
      </trkpt>
      <trkpt lat="47.79482" lon="-3.58532">
        <ele>53.2</ele>
        <time>2021-08-14T09:32:34Z</time>
      </trkpt>
      <trkpt lat="47.79478" lon="-3.5853">
        <ele>53.2</ele>
        <time>2021-08-14T09:32:35Z</time>
      </trkpt>
      <trkpt lat="47.79474" lon="-3.58528">
        <ele>53.2</ele>
        <time>2021-08-14T09:32:36Z</time>
      </trkpt>
      <trkpt lat="47.7947" lon="-3.58525">
        <ele>53</ele>
        <time>2021-08-14T09:32:37Z</time>
      </trkpt>
      <trkpt lat="47.79465" lon="-3.58522">
        <ele>53</ele>
        <time>2021-08-14T09:32:38Z</time>
      </trkpt>
      <trkpt lat="47.79461" lon="-3.5852">
        <ele>53</ele>
        <time>2021-08-14T09:32:39Z</time>
      </trkpt>
      <trkpt lat="47.79456" lon="-3.58517">
        <ele>53</ele>
        <time>2021-08-14T09:32:40Z</time>
      </trkpt>
      <trkpt lat="47.79451" lon="-3.58514">
        <ele>52.8</ele>
        <time>2021-08-14T09:32:41Z</time>
      </trkpt>
      <trkpt lat="47.79446" lon="-3.58512">
        <ele>52.6</ele>
        <time>2021-08-14T09:32:42Z</time>
      </trkpt>
      <trkpt lat="47.79442" lon="-3.58509">
        <ele>52.4</ele>
        <time>2021-08-14T09:32:43Z</time>
      </trkpt>
      <trkpt lat="47.79438" lon="-3.58507">
        <ele>52</ele>
        <time>2021-08-14T09:32:44Z</time>
      </trkpt>
      <trkpt lat="47.79436" lon="-3.58505">
        <ele>51.8</ele>
        <time>2021-08-14T09:32:45Z</time>
      </trkpt>
      <trkpt lat="47.79433" lon="-3.58502">
        <ele>51.6</ele>
        <time>2021-08-14T09:32:46Z</time>
      </trkpt>
      <trkpt lat="47.7943" lon="-3.58499">
        <ele>51.2</ele>
        <time>2021-08-14T09:32:47Z</time>
      </trkpt>
      <trkpt lat="47.79426" lon="-3.58497">
        <ele>50.8</ele>
        <time>2021-08-14T09:32:48Z</time>
      </trkpt>
      <trkpt lat="47.79422" lon="-3.58494">
        <ele>50.4</ele>
        <time>2021-08-14T09:32:49Z</time>
      </trkpt>
      <trkpt lat="47.79418" lon="-3.58491">
        <ele>50</ele>
        <time>2021-08-14T09:32:50Z</time>
      </trkpt>
      <trkpt lat="47.79414" lon="-3.58488">
        <ele>50</ele>
        <time>2021-08-14T09:32:51Z</time>
      </trkpt>
      <trkpt lat="47.79409" lon="-3.58485">
        <ele>49.8</ele>
        <time>2021-08-14T09:32:52Z</time>
      </trkpt>
      <trkpt lat="47.79405" lon="-3.58481">
        <ele>49.6</ele>
        <time>2021-08-14T09:32:53Z</time>
      </trkpt>
      <trkpt lat="47.79399" lon="-3.58476">
        <ele>49.6</ele>
        <time>2021-08-14T09:32:54Z</time>
      </trkpt>
      <trkpt lat="47.79394" lon="-3.5847">
        <ele>49.6</ele>
        <time>2021-08-14T09:32:55Z</time>
      </trkpt>
      <trkpt lat="47.79387" lon="-3.58464">
        <ele>49.6</ele>
        <time>2021-08-14T09:32:56Z</time>
      </trkpt>
      <trkpt lat="47.79381" lon="-3.5846">
        <ele>49.2</ele>
        <time>2021-08-14T09:32:57Z</time>
      </trkpt>
      <trkpt lat="47.79375" lon="-3.58458">
        <ele>48.8</ele>
        <time>2021-08-14T09:32:58Z</time>
      </trkpt>
      <trkpt lat="47.79369" lon="-3.58457">
        <ele>48.6</ele>
        <time>2021-08-14T09:32:59Z</time>
      </trkpt>
      <trkpt lat="47.79364" lon="-3.58455">
        <ele>48</ele>
        <time>2021-08-14T09:33:00Z</time>
      </trkpt>
      <trkpt lat="47.79359" lon="-3.58453">
        <ele>47.6</ele>
        <time>2021-08-14T09:33:01Z</time>
      </trkpt>
      <trkpt lat="47.79355" lon="-3.5845">
        <ele>47</ele>
        <time>2021-08-14T09:33:02Z</time>
      </trkpt>
      <trkpt lat="47.79352" lon="-3.58446">
        <ele>46.6</ele>
        <time>2021-08-14T09:33:03Z</time>
      </trkpt>
      <trkpt lat="47.79351" lon="-3.58441">
        <ele>46.4</ele>
        <time>2021-08-14T09:33:04Z</time>
      </trkpt>
      <trkpt lat="47.79351" lon="-3.58437">
        <ele>46.4</ele>
        <time>2021-08-14T09:33:05Z</time>
      </trkpt>
      <trkpt lat="47.79351" lon="-3.58434">
        <ele>46.4</ele>
        <time>2021-08-14T09:33:06Z</time>
      </trkpt>
      <trkpt lat="47.79352" lon="-3.58433">
        <ele>46.4</ele>
        <time>2021-08-14T09:33:07Z</time>
      </trkpt>
      <trkpt lat="47.79353" lon="-3.58432">
        <ele>46.4</ele>
        <time>2021-08-14T09:33:08Z</time>
      </trkpt>
      <trkpt lat="47.79354" lon="-3.58433">
        <ele>46.4</ele>
        <time>2021-08-14T09:33:09Z</time>
      </trkpt>
      <trkpt lat="47.79354" lon="-3.58434">
        <ele>46.4</ele>
        <time>2021-08-14T09:33:10Z</time>
      </trkpt>
      <trkpt lat="47.79354" lon="-3.58436">
        <ele>46.4</ele>
        <time>2021-08-14T09:33:11Z</time>
      </trkpt>
      <trkpt lat="47.79354" lon="-3.58439">
        <ele>46.6</ele>
        <time>2021-08-14T09:33:12Z</time>
      </trkpt>
      <trkpt lat="47.79354" lon="-3.5844">
        <ele>47</ele>
        <time>2021-08-14T09:33:13Z</time>
      </trkpt>
      <trkpt lat="47.79354" lon="-3.5844">
        <ele>47.2</ele>
        <time>2021-08-14T09:33:14Z</time>
      </trkpt>
      <trkpt lat="47.79353" lon="-3.5844">
        <ele>47.4</ele>
        <time>2021-08-14T09:33:15Z</time>
      </trkpt>
      <trkpt lat="47.79353" lon="-3.5844">
        <ele>47.4</ele>
        <time>2021-08-14T09:33:16Z</time>
      </trkpt>
      <trkpt lat="47.79353" lon="-3.5844">
        <ele>47.2</ele>
        <time>2021-08-14T09:34:12Z</time>
      </trkpt>
      <trkpt lat="47.79353" lon="-3.58442">
        <ele>47.2</ele>
        <time>2021-08-14T09:34:13Z</time>
      </trkpt>
      <trkpt lat="47.79352" lon="-3.58444">
        <ele>47.2</ele>
        <time>2021-08-14T09:34:14Z</time>
      </trkpt>
      <trkpt lat="47.7935" lon="-3.58448">
        <ele>47.2</ele>
        <time>2021-08-14T09:34:15Z</time>
      </trkpt>
      <trkpt lat="47.79348" lon="-3.58453">
        <ele>47.2</ele>
        <time>2021-08-14T09:34:16Z</time>
      </trkpt>
      <trkpt lat="47.79345" lon="-3.58458">
        <ele>47.2</ele>
        <time>2021-08-14T09:34:17Z</time>
      </trkpt>
      <trkpt lat="47.79341" lon="-3.58463">
        <ele>47.2</ele>
        <time>2021-08-14T09:34:18Z</time>
      </trkpt>
      <trkpt lat="47.79337" lon="-3.58468">
        <ele>47</ele>
        <time>2021-08-14T09:34:19Z</time>
      </trkpt>
      <trkpt lat="47.79332" lon="-3.58474">
        <ele>47</ele>
        <time>2021-08-14T09:34:20Z</time>
      </trkpt>
      <trkpt lat="47.79327" lon="-3.58479">
        <ele>47</ele>
        <time>2021-08-14T09:34:21Z</time>
      </trkpt>
      <trkpt lat="47.79322" lon="-3.58486">
        <ele>47</ele>
        <time>2021-08-14T09:34:22Z</time>
      </trkpt>
      <trkpt lat="47.79317" lon="-3.58493">
        <ele>46.8</ele>
        <time>2021-08-14T09:34:23Z</time>
      </trkpt>
      <trkpt lat="47.79312" lon="-3.58501">
        <ele>46.4</ele>
        <time>2021-08-14T09:34:24Z</time>
      </trkpt>
      <trkpt lat="47.79307" lon="-3.5851">
        <ele>46</ele>
        <time>2021-08-14T09:34:25Z</time>
      </trkpt>
      <trkpt lat="47.79301" lon="-3.58518">
        <ele>45.6</ele>
        <time>2021-08-14T09:34:26Z</time>
      </trkpt>
      <trkpt lat="47.79295" lon="-3.58527">
        <ele>45.2</ele>
        <time>2021-08-14T09:34:27Z</time>
      </trkpt>
      <trkpt lat="47.79289" lon="-3.58535">
        <ele>44.8</ele>
        <time>2021-08-14T09:34:28Z</time>
      </trkpt>
      <trkpt lat="47.79284" lon="-3.58544">
        <ele>44.2</ele>
        <time>2021-08-14T09:34:29Z</time>
      </trkpt>
      <trkpt lat="47.79278" lon="-3.58554">
        <ele>44</ele>
        <time>2021-08-14T09:34:30Z</time>
      </trkpt>
      <trkpt lat="47.79273" lon="-3.58563">
        <ele>43.6</ele>
        <time>2021-08-14T09:34:31Z</time>
      </trkpt>
      <trkpt lat="47.79267" lon="-3.58572">
        <ele>43</ele>
        <time>2021-08-14T09:34:32Z</time>
      </trkpt>
      <trkpt lat="47.7926" lon="-3.58581">
        <ele>42.4</ele>
        <time>2021-08-14T09:34:33Z</time>
      </trkpt>
      <trkpt lat="47.79254" lon="-3.58589">
        <ele>41.8</ele>
        <time>2021-08-14T09:34:34Z</time>
      </trkpt>
      <trkpt lat="47.79248" lon="-3.58598">
        <ele>41.4</ele>
        <time>2021-08-14T09:34:35Z</time>
      </trkpt>
      <trkpt lat="47.79242" lon="-3.58606">
        <ele>41.2</ele>
        <time>2021-08-14T09:34:36Z</time>
      </trkpt>
      <trkpt lat="47.79235" lon="-3.58613">
        <ele>40.8</ele>
        <time>2021-08-14T09:34:37Z</time>
      </trkpt>
      <trkpt lat="47.79228" lon="-3.58621">
        <ele>40.6</ele>
        <time>2021-08-14T09:34:38Z</time>
      </trkpt>
      <trkpt lat="47.79222" lon="-3.5863">
        <ele>40.2</ele>
        <time>2021-08-14T09:34:39Z</time>
      </trkpt>
      <trkpt lat="47.79216" lon="-3.58639">
        <ele>39.6</ele>
        <time>2021-08-14T09:34:40Z</time>
      </trkpt>
      <trkpt lat="47.7921" lon="-3.58648">
        <ele>39.2</ele>
        <time>2021-08-14T09:34:41Z</time>
      </trkpt>
      <trkpt lat="47.79205" lon="-3.58658">
        <ele>38.8</ele>
        <time>2021-08-14T09:34:42Z</time>
      </trkpt>
      <trkpt lat="47.79198" lon="-3.58666">
        <ele>38.6</ele>
        <time>2021-08-14T09:34:43Z</time>
      </trkpt>
      <trkpt lat="47.79191" lon="-3.58673">
        <ele>38.4</ele>
        <time>2021-08-14T09:34:44Z</time>
      </trkpt>
      <trkpt lat="47.79183" lon="-3.58678">
        <ele>38.2</ele>
        <time>2021-08-14T09:34:45Z</time>
      </trkpt>
      <trkpt lat="47.79175" lon="-3.58682">
        <ele>38.2</ele>
        <time>2021-08-14T09:34:46Z</time>
      </trkpt>
      <trkpt lat="47.79167" lon="-3.58686">
        <ele>38</ele>
        <time>2021-08-14T09:34:47Z</time>
      </trkpt>
      <trkpt lat="47.79159" lon="-3.58688">
        <ele>38</ele>
        <time>2021-08-14T09:34:48Z</time>
      </trkpt>
      <trkpt lat="47.7915" lon="-3.5869">
        <ele>38</ele>
        <time>2021-08-14T09:34:49Z</time>
      </trkpt>
      <trkpt lat="47.79142" lon="-3.58692">
        <ele>37.8</ele>
        <time>2021-08-14T09:34:50Z</time>
      </trkpt>
      <trkpt lat="47.79134" lon="-3.58695">
        <ele>37.8</ele>
        <time>2021-08-14T09:34:51Z</time>
      </trkpt>
      <trkpt lat="47.79125" lon="-3.58698">
        <ele>37.8</ele>
        <time>2021-08-14T09:34:52Z</time>
      </trkpt>
      <trkpt lat="47.79117" lon="-3.58701">
        <ele>37.6</ele>
        <time>2021-08-14T09:34:53Z</time>
      </trkpt>
      <trkpt lat="47.79109" lon="-3.58704">
        <ele>37.6</ele>
        <time>2021-08-14T09:34:54Z</time>
      </trkpt>
      <trkpt lat="47.79101" lon="-3.58708">
        <ele>37.6</ele>
        <time>2021-08-14T09:34:55Z</time>
      </trkpt>
      <trkpt lat="47.79092" lon="-3.58711">
        <ele>37.6</ele>
        <time>2021-08-14T09:34:56Z</time>
      </trkpt>
      <trkpt lat="47.79084" lon="-3.58713">
        <ele>37.4</ele>
        <time>2021-08-14T09:34:57Z</time>
      </trkpt>
      <trkpt lat="47.79076" lon="-3.58716">
        <ele>37.4</ele>
        <time>2021-08-14T09:34:58Z</time>
      </trkpt>
      <trkpt lat="47.79067" lon="-3.58719">
        <ele>37.4</ele>
        <time>2021-08-14T09:34:59Z</time>
      </trkpt>
      <trkpt lat="47.79059" lon="-3.58721">
        <ele>37.2</ele>
        <time>2021-08-14T09:35:00Z</time>
      </trkpt>
      <trkpt lat="47.79051" lon="-3.58724">
        <ele>37.2</ele>
        <time>2021-08-14T09:35:01Z</time>
      </trkpt>
      <trkpt lat="47.79043" lon="-3.58727">
        <ele>37.4</ele>
        <time>2021-08-14T09:35:02Z</time>
      </trkpt>
      <trkpt lat="47.79035" lon="-3.5873">
        <ele>37</ele>
        <time>2021-08-14T09:35:03Z</time>
      </trkpt>
      <trkpt lat="47.79026" lon="-3.58733">
        <ele>37</ele>
        <time>2021-08-14T09:35:04Z</time>
      </trkpt>
      <trkpt lat="47.79018" lon="-3.58736">
        <ele>37</ele>
        <time>2021-08-14T09:35:05Z</time>
      </trkpt>
      <trkpt lat="47.7901" lon="-3.58738">
        <ele>36.8</ele>
        <time>2021-08-14T09:35:06Z</time>
      </trkpt>
      <trkpt lat="47.79003" lon="-3.58741">
        <ele>36.6</ele>
        <time>2021-08-14T09:35:07Z</time>
      </trkpt>
      <trkpt lat="47.78995" lon="-3.58743">
        <ele>36.6</ele>
        <time>2021-08-14T09:35:08Z</time>
      </trkpt>
      <trkpt lat="47.78987" lon="-3.58745">
        <ele>36.6</ele>
        <time>2021-08-14T09:35:09Z</time>
      </trkpt>
      <trkpt lat="47.78979" lon="-3.58746">
        <ele>36.6</ele>
        <time>2021-08-14T09:35:10Z</time>
      </trkpt>
      <trkpt lat="47.78971" lon="-3.58745">
        <ele>36.4</ele>
        <time>2021-08-14T09:35:11Z</time>
      </trkpt>
      <trkpt lat="47.78963" lon="-3.58743">
        <ele>36.4</ele>
        <time>2021-08-14T09:35:12Z</time>
      </trkpt>
      <trkpt lat="47.78954" lon="-3.58742">
        <ele>36.4</ele>
        <time>2021-08-14T09:35:13Z</time>
      </trkpt>
      <trkpt lat="47.78946" lon="-3.58741">
        <ele>36.4</ele>
        <time>2021-08-14T09:35:14Z</time>
      </trkpt>
      <trkpt lat="47.78937" lon="-3.5874">
        <ele>36.2</ele>
        <time>2021-08-14T09:35:15Z</time>
      </trkpt>
      <trkpt lat="47.78928" lon="-3.58738">
        <ele>36.2</ele>
        <time>2021-08-14T09:35:16Z</time>
      </trkpt>
      <trkpt lat="47.78919" lon="-3.58739">
        <ele>36.2</ele>
        <time>2021-08-14T09:35:17Z</time>
      </trkpt>
      <trkpt lat="47.78911" lon="-3.58743">
        <ele>36</ele>
        <time>2021-08-14T09:35:18Z</time>
      </trkpt>
      <trkpt lat="47.78904" lon="-3.58749">
        <ele>36</ele>
        <time>2021-08-14T09:35:19Z</time>
      </trkpt>
      <trkpt lat="47.78898" lon="-3.58756">
        <ele>35.6</ele>
        <time>2021-08-14T09:35:20Z</time>
      </trkpt>
      <trkpt lat="47.78893" lon="-3.58763">
        <ele>35.2</ele>
        <time>2021-08-14T09:35:21Z</time>
      </trkpt>
      <trkpt lat="47.78888" lon="-3.58768">
        <ele>35.2</ele>
        <time>2021-08-14T09:35:22Z</time>
      </trkpt>
      <trkpt lat="47.78883" lon="-3.58772">
        <ele>34.8</ele>
        <time>2021-08-14T09:35:23Z</time>
      </trkpt>
      <trkpt lat="47.78878" lon="-3.58774">
        <ele>34.8</ele>
        <time>2021-08-14T09:35:24Z</time>
      </trkpt>
      <trkpt lat="47.78874" lon="-3.58776">
        <ele>34.4</ele>
        <time>2021-08-14T09:35:25Z</time>
      </trkpt>
      <trkpt lat="47.78869" lon="-3.58777">
        <ele>34.2</ele>
        <time>2021-08-14T09:35:26Z</time>
      </trkpt>
      <trkpt lat="47.78864" lon="-3.58777">
        <ele>34</ele>
        <time>2021-08-14T09:35:27Z</time>
      </trkpt>
      <trkpt lat="47.78859" lon="-3.58776">
        <ele>34</ele>
        <time>2021-08-14T09:35:28Z</time>
      </trkpt>
      <trkpt lat="47.78854" lon="-3.58775">
        <ele>34</ele>
        <time>2021-08-14T09:35:29Z</time>
      </trkpt>
      <trkpt lat="47.78849" lon="-3.58774">
        <ele>34</ele>
        <time>2021-08-14T09:35:30Z</time>
      </trkpt>
      <trkpt lat="47.78844" lon="-3.58774">
        <ele>33.8</ele>
        <time>2021-08-14T09:35:31Z</time>
      </trkpt>
      <trkpt lat="47.78839" lon="-3.58773">
        <ele>33.8</ele>
        <time>2021-08-14T09:35:32Z</time>
      </trkpt>
      <trkpt lat="47.78833" lon="-3.58772">
        <ele>33.8</ele>
        <time>2021-08-14T09:35:33Z</time>
      </trkpt>
      <trkpt lat="47.78828" lon="-3.58771">
        <ele>33.8</ele>
        <time>2021-08-14T09:35:34Z</time>
      </trkpt>
      <trkpt lat="47.78823" lon="-3.5877">
        <ele>33.8</ele>
        <time>2021-08-14T09:35:35Z</time>
      </trkpt>
      <trkpt lat="47.78818" lon="-3.58768">
        <ele>33.8</ele>
        <time>2021-08-14T09:35:36Z</time>
      </trkpt>
      <trkpt lat="47.78814" lon="-3.58766">
        <ele>33.8</ele>
        <time>2021-08-14T09:35:37Z</time>
      </trkpt>
      <trkpt lat="47.7881" lon="-3.58764">
        <ele>33.8</ele>
        <time>2021-08-14T09:35:38Z</time>
      </trkpt>
      <trkpt lat="47.78806" lon="-3.5876">
        <ele>33.8</ele>
        <time>2021-08-14T09:35:39Z</time>
      </trkpt>
      <trkpt lat="47.78803" lon="-3.58755">
        <ele>34</ele>
        <time>2021-08-14T09:35:40Z</time>
      </trkpt>
      <trkpt lat="47.78801" lon="-3.58749">
        <ele>34</ele>
        <time>2021-08-14T09:35:41Z</time>
      </trkpt>
      <trkpt lat="47.788" lon="-3.58742">
        <ele>34</ele>
        <time>2021-08-14T09:35:42Z</time>
      </trkpt>
      <trkpt lat="47.78798" lon="-3.58735">
        <ele>34.2</ele>
        <time>2021-08-14T09:35:43Z</time>
      </trkpt>
      <trkpt lat="47.78797" lon="-3.58727">
        <ele>34.6</ele>
        <time>2021-08-14T09:35:44Z</time>
      </trkpt>
      <trkpt lat="47.78795" lon="-3.5872">
        <ele>35</ele>
        <time>2021-08-14T09:35:45Z</time>
      </trkpt>
      <trkpt lat="47.78794" lon="-3.58712">
        <ele>35.2</ele>
        <time>2021-08-14T09:35:46Z</time>
      </trkpt>
      <trkpt lat="47.78793" lon="-3.58705">
        <ele>35.4</ele>
        <time>2021-08-14T09:35:47Z</time>
      </trkpt>
      <trkpt lat="47.78792" lon="-3.58697">
        <ele>35.6</ele>
        <time>2021-08-14T09:35:48Z</time>
      </trkpt>
      <trkpt lat="47.78791" lon="-3.58689">
        <ele>35.6</ele>
        <time>2021-08-14T09:35:49Z</time>
      </trkpt>
      <trkpt lat="47.78789" lon="-3.58682">
        <ele>35.6</ele>
        <time>2021-08-14T09:35:50Z</time>
      </trkpt>
      <trkpt lat="47.78788" lon="-3.58674">
        <ele>35.6</ele>
        <time>2021-08-14T09:35:51Z</time>
      </trkpt>
      <trkpt lat="47.78787" lon="-3.58666">
        <ele>35.6</ele>
        <time>2021-08-14T09:35:52Z</time>
      </trkpt>
      <trkpt lat="47.78786" lon="-3.58658">
        <ele>35.8</ele>
        <time>2021-08-14T09:35:53Z</time>
      </trkpt>
      <trkpt lat="47.78785" lon="-3.5865">
        <ele>35.8</ele>
        <time>2021-08-14T09:35:54Z</time>
      </trkpt>
      <trkpt lat="47.78783" lon="-3.58642">
        <ele>36</ele>
        <time>2021-08-14T09:35:55Z</time>
      </trkpt>
      <trkpt lat="47.78782" lon="-3.58634">
        <ele>36.2</ele>
        <time>2021-08-14T09:35:56Z</time>
      </trkpt>
      <trkpt lat="47.78781" lon="-3.58626">
        <ele>36.2</ele>
        <time>2021-08-14T09:35:57Z</time>
      </trkpt>
      <trkpt lat="47.7878" lon="-3.58619">
        <ele>36.4</ele>
        <time>2021-08-14T09:35:58Z</time>
      </trkpt>
      <trkpt lat="47.78779" lon="-3.58611">
        <ele>36.4</ele>
        <time>2021-08-14T09:35:59Z</time>
      </trkpt>
      <trkpt lat="47.78777" lon="-3.58603">
        <ele>36.6</ele>
        <time>2021-08-14T09:36:00Z</time>
      </trkpt>
      <trkpt lat="47.78776" lon="-3.58596">
        <ele>36.6</ele>
        <time>2021-08-14T09:36:01Z</time>
      </trkpt>
      <trkpt lat="47.78775" lon="-3.58588">
        <ele>36.8</ele>
        <time>2021-08-14T09:36:02Z</time>
      </trkpt>
      <trkpt lat="47.78774" lon="-3.58581">
        <ele>36.8</ele>
        <time>2021-08-14T09:36:03Z</time>
      </trkpt>
      <trkpt lat="47.78773" lon="-3.58574">
        <ele>36.8</ele>
        <time>2021-08-14T09:36:04Z</time>
      </trkpt>
      <trkpt lat="47.78772" lon="-3.58566">
        <ele>36.8</ele>
        <time>2021-08-14T09:36:05Z</time>
      </trkpt>
      <trkpt lat="47.7877" lon="-3.58559">
        <ele>37</ele>
        <time>2021-08-14T09:36:06Z</time>
      </trkpt>
      <trkpt lat="47.78768" lon="-3.58553">
        <ele>37.2</ele>
        <time>2021-08-14T09:36:07Z</time>
      </trkpt>
      <trkpt lat="47.78766" lon="-3.58546">
        <ele>37.2</ele>
        <time>2021-08-14T09:36:08Z</time>
      </trkpt>
      <trkpt lat="47.78764" lon="-3.5854">
        <ele>37.4</ele>
        <time>2021-08-14T09:36:09Z</time>
      </trkpt>
      <trkpt lat="47.78762" lon="-3.58533">
        <ele>37.6</ele>
        <time>2021-08-14T09:36:10Z</time>
      </trkpt>
      <trkpt lat="47.7876" lon="-3.58527">
        <ele>37.8</ele>
        <time>2021-08-14T09:36:11Z</time>
      </trkpt>
      <trkpt lat="47.78757" lon="-3.5852">
        <ele>38</ele>
        <time>2021-08-14T09:36:12Z</time>
      </trkpt>
      <trkpt lat="47.78755" lon="-3.58515">
        <ele>38.2</ele>
        <time>2021-08-14T09:36:13Z</time>
      </trkpt>
      <trkpt lat="47.78752" lon="-3.58509">
        <ele>38.4</ele>
        <time>2021-08-14T09:36:14Z</time>
      </trkpt>
      <trkpt lat="47.78749" lon="-3.58503">
        <ele>38.8</ele>
        <time>2021-08-14T09:36:15Z</time>
      </trkpt>
      <trkpt lat="47.78746" lon="-3.58496">
        <ele>39</ele>
        <time>2021-08-14T09:36:16Z</time>
      </trkpt>
      <trkpt lat="47.78744" lon="-3.58491">
        <ele>39.2</ele>
        <time>2021-08-14T09:36:17Z</time>
      </trkpt>
      <trkpt lat="47.78741" lon="-3.58485">
        <ele>39.6</ele>
        <time>2021-08-14T09:36:18Z</time>
      </trkpt>
      <trkpt lat="47.78738" lon="-3.58479">
        <ele>39.8</ele>
        <time>2021-08-14T09:36:19Z</time>
      </trkpt>
      <trkpt lat="47.78736" lon="-3.58473">
        <ele>39.8</ele>
        <time>2021-08-14T09:36:20Z</time>
      </trkpt>
      <trkpt lat="47.78733" lon="-3.58467">
        <ele>40</ele>
        <time>2021-08-14T09:36:21Z</time>
      </trkpt>
      <trkpt lat="47.7873" lon="-3.58462">
        <ele>40</ele>
        <time>2021-08-14T09:36:22Z</time>
      </trkpt>
      <trkpt lat="47.78728" lon="-3.58456">
        <ele>40.2</ele>
        <time>2021-08-14T09:36:23Z</time>
      </trkpt>
      <trkpt lat="47.78725" lon="-3.58451">
        <ele>40.4</ele>
        <time>2021-08-14T09:36:24Z</time>
      </trkpt>
      <trkpt lat="47.78723" lon="-3.58445">
        <ele>40.6</ele>
        <time>2021-08-14T09:36:25Z</time>
      </trkpt>
      <trkpt lat="47.7872" lon="-3.58439">
        <ele>40.8</ele>
        <time>2021-08-14T09:36:26Z</time>
      </trkpt>
      <trkpt lat="47.78718" lon="-3.58434">
        <ele>41</ele>
        <time>2021-08-14T09:36:27Z</time>
      </trkpt>
      <trkpt lat="47.78716" lon="-3.58428">
        <ele>41</ele>
        <time>2021-08-14T09:36:28Z</time>
      </trkpt>
      <trkpt lat="47.78714" lon="-3.58422">
        <ele>41.2</ele>
        <time>2021-08-14T09:36:29Z</time>
      </trkpt>
      <trkpt lat="47.78712" lon="-3.58416">
        <ele>41.4</ele>
        <time>2021-08-14T09:36:30Z</time>
      </trkpt>
      <trkpt lat="47.7871" lon="-3.5841">
        <ele>41.6</ele>
        <time>2021-08-14T09:36:31Z</time>
      </trkpt>
      <trkpt lat="47.78708" lon="-3.58404">
        <ele>41.6</ele>
        <time>2021-08-14T09:36:32Z</time>
      </trkpt>
      <trkpt lat="47.78706" lon="-3.58399">
        <ele>41.8</ele>
        <time>2021-08-14T09:36:33Z</time>
      </trkpt>
      <trkpt lat="47.78704" lon="-3.58393">
        <ele>41.8</ele>
        <time>2021-08-14T09:36:34Z</time>
      </trkpt>
      <trkpt lat="47.78702" lon="-3.58387">
        <ele>42</ele>
        <time>2021-08-14T09:36:35Z</time>
      </trkpt>
      <trkpt lat="47.78701" lon="-3.58381">
        <ele>42</ele>
        <time>2021-08-14T09:36:36Z</time>
      </trkpt>
      <trkpt lat="47.78699" lon="-3.58375">
        <ele>42.4</ele>
        <time>2021-08-14T09:36:37Z</time>
      </trkpt>
      <trkpt lat="47.78697" lon="-3.58369">
        <ele>42.6</ele>
        <time>2021-08-14T09:36:38Z</time>
      </trkpt>
      <trkpt lat="47.78695" lon="-3.58363">
        <ele>43</ele>
        <time>2021-08-14T09:36:39Z</time>
      </trkpt>
      <trkpt lat="47.78693" lon="-3.58357">
        <ele>43</ele>
        <time>2021-08-14T09:36:40Z</time>
      </trkpt>
      <trkpt lat="47.78691" lon="-3.58352">
        <ele>43.2</ele>
        <time>2021-08-14T09:36:41Z</time>
      </trkpt>
      <trkpt lat="47.78689" lon="-3.58346">
        <ele>43.4</ele>
        <time>2021-08-14T09:36:42Z</time>
      </trkpt>
      <trkpt lat="47.78687" lon="-3.5834">
        <ele>43.4</ele>
        <time>2021-08-14T09:36:43Z</time>
      </trkpt>
      <trkpt lat="47.78685" lon="-3.58335">
        <ele>43.6</ele>
        <time>2021-08-14T09:36:44Z</time>
      </trkpt>
      <trkpt lat="47.78682" lon="-3.5833">
        <ele>43.6</ele>
        <time>2021-08-14T09:36:45Z</time>
      </trkpt>
      <trkpt lat="47.7868" lon="-3.58324">
        <ele>43.8</ele>
        <time>2021-08-14T09:36:46Z</time>
      </trkpt>
      <trkpt lat="47.78678" lon="-3.58319">
        <ele>44</ele>
        <time>2021-08-14T09:36:47Z</time>
      </trkpt>
      <trkpt lat="47.78675" lon="-3.58314">
        <ele>44.2</ele>
        <time>2021-08-14T09:36:48Z</time>
      </trkpt>
      <trkpt lat="47.78672" lon="-3.58308">
        <ele>44.4</ele>
        <time>2021-08-14T09:36:49Z</time>
      </trkpt>
      <trkpt lat="47.7867" lon="-3.58303">
        <ele>44.4</ele>
        <time>2021-08-14T09:36:50Z</time>
      </trkpt>
      <trkpt lat="47.78667" lon="-3.58298">
        <ele>44.6</ele>
        <time>2021-08-14T09:36:51Z</time>
      </trkpt>
      <trkpt lat="47.78666" lon="-3.58293">
        <ele>44.4</ele>
        <time>2021-08-14T09:36:52Z</time>
      </trkpt>
      <trkpt lat="47.78665" lon="-3.58289">
        <ele>44.6</ele>
        <time>2021-08-14T09:36:53Z</time>
      </trkpt>
      <trkpt lat="47.78663" lon="-3.58284">
        <ele>44.8</ele>
        <time>2021-08-14T09:36:54Z</time>
      </trkpt>
      <trkpt lat="47.7866" lon="-3.58278">
        <ele>44.8</ele>
        <time>2021-08-14T09:36:55Z</time>
      </trkpt>
      <trkpt lat="47.78658" lon="-3.58273">
        <ele>45</ele>
        <time>2021-08-14T09:36:56Z</time>
      </trkpt>
      <trkpt lat="47.78655" lon="-3.58267">
        <ele>45</ele>
        <time>2021-08-14T09:36:57Z</time>
      </trkpt>
      <trkpt lat="47.78653" lon="-3.58262">
        <ele>45</ele>
        <time>2021-08-14T09:36:58Z</time>
      </trkpt>
      <trkpt lat="47.7865" lon="-3.58257">
        <ele>45</ele>
        <time>2021-08-14T09:36:59Z</time>
      </trkpt>
      <trkpt lat="47.78648" lon="-3.58251">
        <ele>45.2</ele>
        <time>2021-08-14T09:37:00Z</time>
      </trkpt>
      <trkpt lat="47.78645" lon="-3.58246">
        <ele>45.2</ele>
        <time>2021-08-14T09:37:01Z</time>
      </trkpt>
      <trkpt lat="47.78643" lon="-3.58241">
        <ele>45.2</ele>
        <time>2021-08-14T09:37:02Z</time>
      </trkpt>
      <trkpt lat="47.7864" lon="-3.58236">
        <ele>45.2</ele>
        <time>2021-08-14T09:37:03Z</time>
      </trkpt>
      <trkpt lat="47.78638" lon="-3.58231">
        <ele>45.4</ele>
        <time>2021-08-14T09:37:04Z</time>
      </trkpt>
      <trkpt lat="47.78636" lon="-3.58227">
        <ele>45.4</ele>
        <time>2021-08-14T09:37:05Z</time>
      </trkpt>
      <trkpt lat="47.78633" lon="-3.58222">
        <ele>45.6</ele>
        <time>2021-08-14T09:37:06Z</time>
      </trkpt>
      <trkpt lat="47.78631" lon="-3.58218">
        <ele>45.6</ele>
        <time>2021-08-14T09:37:07Z</time>
      </trkpt>
      <trkpt lat="47.78629" lon="-3.58214">
        <ele>45.6</ele>
        <time>2021-08-14T09:37:08Z</time>
      </trkpt>
      <trkpt lat="47.78628" lon="-3.58211">
        <ele>45.6</ele>
        <time>2021-08-14T09:37:09Z</time>
      </trkpt>
      <trkpt lat="47.78626" lon="-3.58209">
        <ele>46</ele>
        <time>2021-08-14T09:37:10Z</time>
      </trkpt>
      <trkpt lat="47.78625" lon="-3.58208">
        <ele>46</ele>
        <time>2021-08-14T09:37:11Z</time>
      </trkpt>
      <trkpt lat="47.78625" lon="-3.58208">
        <ele>46.2</ele>
        <time>2021-08-14T09:37:12Z</time>
      </trkpt>
      <trkpt lat="47.78625" lon="-3.58206">
        <ele>47.6</ele>
        <time>2021-08-14T09:37:28Z</time>
      </trkpt>
      <trkpt lat="47.78625" lon="-3.58204">
        <ele>47.6</ele>
        <time>2021-08-14T09:37:29Z</time>
      </trkpt>
      <trkpt lat="47.78624" lon="-3.58202">
        <ele>47.6</ele>
        <time>2021-08-14T09:37:30Z</time>
      </trkpt>
      <trkpt lat="47.78624" lon="-3.582">
        <ele>47.6</ele>
        <time>2021-08-14T09:37:31Z</time>
      </trkpt>
      <trkpt lat="47.78624" lon="-3.58197">
        <ele>47.6</ele>
        <time>2021-08-14T09:37:32Z</time>
      </trkpt>
      <trkpt lat="47.78624" lon="-3.58195">
        <ele>47.6</ele>
        <time>2021-08-14T09:37:33Z</time>
      </trkpt>
      <trkpt lat="47.78624" lon="-3.58192">
        <ele>47.6</ele>
        <time>2021-08-14T09:37:34Z</time>
      </trkpt>
      <trkpt lat="47.78623" lon="-3.5819">
        <ele>47.6</ele>
        <time>2021-08-14T09:37:35Z</time>
      </trkpt>
      <trkpt lat="47.78621" lon="-3.58186">
        <ele>47.6</ele>
        <time>2021-08-14T09:37:36Z</time>
      </trkpt>
      <trkpt lat="47.7862" lon="-3.58183">
        <ele>47.6</ele>
        <time>2021-08-14T09:37:37Z</time>
      </trkpt>
      <trkpt lat="47.78618" lon="-3.58179">
        <ele>47.6</ele>
        <time>2021-08-14T09:37:38Z</time>
      </trkpt>
      <trkpt lat="47.78618" lon="-3.58175">
        <ele>47.6</ele>
        <time>2021-08-14T09:37:39Z</time>
      </trkpt>
      <trkpt lat="47.78618" lon="-3.58169">
        <ele>47.6</ele>
        <time>2021-08-14T09:37:40Z</time>
      </trkpt>
      <trkpt lat="47.78617" lon="-3.58163">
        <ele>47.6</ele>
        <time>2021-08-14T09:37:41Z</time>
      </trkpt>
      <trkpt lat="47.78615" lon="-3.58158">
        <ele>47.6</ele>
        <time>2021-08-14T09:37:42Z</time>
      </trkpt>
      <trkpt lat="47.78612" lon="-3.58152">
        <ele>47.4</ele>
        <time>2021-08-14T09:37:43Z</time>
      </trkpt>
      <trkpt lat="47.78609" lon="-3.58146">
        <ele>47.4</ele>
        <time>2021-08-14T09:37:44Z</time>
      </trkpt>
      <trkpt lat="47.78607" lon="-3.5814">
        <ele>47.4</ele>
        <time>2021-08-14T09:37:45Z</time>
      </trkpt>
      <trkpt lat="47.78604" lon="-3.58133">
        <ele>47.4</ele>
        <time>2021-08-14T09:37:46Z</time>
      </trkpt>
      <trkpt lat="47.78602" lon="-3.58126">
        <ele>47.4</ele>
        <time>2021-08-14T09:37:47Z</time>
      </trkpt>
      <trkpt lat="47.78599" lon="-3.58119">
        <ele>47.2</ele>
        <time>2021-08-14T09:37:48Z</time>
      </trkpt>
      <trkpt lat="47.78597" lon="-3.58112">
        <ele>47.2</ele>
        <time>2021-08-14T09:37:49Z</time>
      </trkpt>
      <trkpt lat="47.78594" lon="-3.58105">
        <ele>47.2</ele>
        <time>2021-08-14T09:37:50Z</time>
      </trkpt>
      <trkpt lat="47.78591" lon="-3.58098">
        <ele>47.2</ele>
        <time>2021-08-14T09:37:51Z</time>
      </trkpt>
      <trkpt lat="47.78589" lon="-3.5809">
        <ele>47</ele>
        <time>2021-08-14T09:37:52Z</time>
      </trkpt>
      <trkpt lat="47.78587" lon="-3.58083">
        <ele>46.8</ele>
        <time>2021-08-14T09:37:53Z</time>
      </trkpt>
      <trkpt lat="47.78584" lon="-3.58076">
        <ele>46.6</ele>
        <time>2021-08-14T09:37:54Z</time>
      </trkpt>
      <trkpt lat="47.78582" lon="-3.58069">
        <ele>46.4</ele>
        <time>2021-08-14T09:37:55Z</time>
      </trkpt>
      <trkpt lat="47.78579" lon="-3.58062">
        <ele>46.4</ele>
        <time>2021-08-14T09:37:56Z</time>
      </trkpt>
      <trkpt lat="47.78576" lon="-3.58055">
        <ele>46.4</ele>
        <time>2021-08-14T09:37:57Z</time>
      </trkpt>
      <trkpt lat="47.78574" lon="-3.58048">
        <ele>46.2</ele>
        <time>2021-08-14T09:37:58Z</time>
      </trkpt>
      <trkpt lat="47.78571" lon="-3.58041">
        <ele>46.2</ele>
        <time>2021-08-14T09:37:59Z</time>
      </trkpt>
      <trkpt lat="47.78568" lon="-3.58035">
        <ele>46.2</ele>
        <time>2021-08-14T09:38:00Z</time>
      </trkpt>
      <trkpt lat="47.78566" lon="-3.58028">
        <ele>46.2</ele>
        <time>2021-08-14T09:38:01Z</time>
      </trkpt>
      <trkpt lat="47.78563" lon="-3.58022">
        <ele>46.2</ele>
        <time>2021-08-14T09:38:02Z</time>
      </trkpt>
      <trkpt lat="47.78561" lon="-3.58015">
        <ele>46.2</ele>
        <time>2021-08-14T09:38:03Z</time>
      </trkpt>
      <trkpt lat="47.78559" lon="-3.58009">
        <ele>46.2</ele>
        <time>2021-08-14T09:38:04Z</time>
      </trkpt>
      <trkpt lat="47.78557" lon="-3.58004">
        <ele>46.2</ele>
        <time>2021-08-14T09:38:05Z</time>
      </trkpt>
      <trkpt lat="47.78555" lon="-3.58">
        <ele>46.2</ele>
        <time>2021-08-14T09:38:06Z</time>
      </trkpt>
      <trkpt lat="47.78554" lon="-3.57996">
        <ele>46.2</ele>
        <time>2021-08-14T09:38:07Z</time>
      </trkpt>
      <trkpt lat="47.78552" lon="-3.57994">
        <ele>46.2</ele>
        <time>2021-08-14T09:38:08Z</time>
      </trkpt>
      <trkpt lat="47.78552" lon="-3.57992">
        <ele>46.4</ele>
        <time>2021-08-14T09:38:09Z</time>
      </trkpt>
      <trkpt lat="47.78551" lon="-3.5799">
        <ele>46.4</ele>
        <time>2021-08-14T09:38:10Z</time>
      </trkpt>
      <trkpt lat="47.78551" lon="-3.57989">
        <ele>46.4</ele>
        <time>2021-08-14T09:38:11Z</time>
      </trkpt>
      <trkpt lat="47.7855" lon="-3.57988">
        <ele>46.6</ele>
        <time>2021-08-14T09:38:12Z</time>
      </trkpt>
      <trkpt lat="47.78549" lon="-3.57986">
        <ele>46.8</ele>
        <time>2021-08-14T09:38:13Z</time>
      </trkpt>
      <trkpt lat="47.78548" lon="-3.57985">
        <ele>46.8</ele>
        <time>2021-08-14T09:38:14Z</time>
      </trkpt>
      <trkpt lat="47.78547" lon="-3.57983">
        <ele>47</ele>
        <time>2021-08-14T09:38:15Z</time>
      </trkpt>
      <trkpt lat="47.78546" lon="-3.5798">
        <ele>47.2</ele>
        <time>2021-08-14T09:38:16Z</time>
      </trkpt>
      <trkpt lat="47.78546" lon="-3.57977">
        <ele>47.4</ele>
        <time>2021-08-14T09:38:17Z</time>
      </trkpt>
      <trkpt lat="47.78544" lon="-3.57975">
        <ele>47.6</ele>
        <time>2021-08-14T09:38:18Z</time>
      </trkpt>
      <trkpt lat="47.78543" lon="-3.57972">
        <ele>47.6</ele>
        <time>2021-08-14T09:38:19Z</time>
      </trkpt>
      <trkpt lat="47.78542" lon="-3.57968">
        <ele>47.6</ele>
        <time>2021-08-14T09:38:20Z</time>
      </trkpt>
      <trkpt lat="47.78541" lon="-3.57965">
        <ele>47.6</ele>
        <time>2021-08-14T09:38:21Z</time>
      </trkpt>
      <trkpt lat="47.78539" lon="-3.57961">
        <ele>47.6</ele>
        <time>2021-08-14T09:38:22Z</time>
      </trkpt>
      <trkpt lat="47.78537" lon="-3.57957">
        <ele>47.6</ele>
        <time>2021-08-14T09:38:23Z</time>
      </trkpt>
      <trkpt lat="47.78536" lon="-3.57953">
        <ele>47.6</ele>
        <time>2021-08-14T09:38:24Z</time>
      </trkpt>
      <trkpt lat="47.78534" lon="-3.5795">
        <ele>47.6</ele>
        <time>2021-08-14T09:38:25Z</time>
      </trkpt>
      <trkpt lat="47.78532" lon="-3.57946">
        <ele>47.6</ele>
        <time>2021-08-14T09:38:26Z</time>
      </trkpt>
      <trkpt lat="47.7853" lon="-3.57942">
        <ele>47.6</ele>
        <time>2021-08-14T09:38:27Z</time>
      </trkpt>
      <trkpt lat="47.78528" lon="-3.57938">
        <ele>47.6</ele>
        <time>2021-08-14T09:38:28Z</time>
      </trkpt>
      <trkpt lat="47.78526" lon="-3.57935">
        <ele>47.4</ele>
        <time>2021-08-14T09:38:29Z</time>
      </trkpt>
      <trkpt lat="47.78524" lon="-3.57931">
        <ele>47.4</ele>
        <time>2021-08-14T09:38:30Z</time>
      </trkpt>
      <trkpt lat="47.78522" lon="-3.57926">
        <ele>47.4</ele>
        <time>2021-08-14T09:38:31Z</time>
      </trkpt>
      <trkpt lat="47.7852" lon="-3.57922">
        <ele>47.2</ele>
        <time>2021-08-14T09:38:32Z</time>
      </trkpt>
      <trkpt lat="47.78518" lon="-3.57917">
        <ele>47.2</ele>
        <time>2021-08-14T09:38:33Z</time>
      </trkpt>
      <trkpt lat="47.78516" lon="-3.57912">
        <ele>47</ele>
        <time>2021-08-14T09:38:34Z</time>
      </trkpt>
      <trkpt lat="47.78513" lon="-3.57907">
        <ele>47</ele>
        <time>2021-08-14T09:38:35Z</time>
      </trkpt>
      <trkpt lat="47.78511" lon="-3.57901">
        <ele>47</ele>
        <time>2021-08-14T09:38:36Z</time>
      </trkpt>
      <trkpt lat="47.78508" lon="-3.57896">
        <ele>47</ele>
        <time>2021-08-14T09:38:37Z</time>
      </trkpt>
      <trkpt lat="47.78506" lon="-3.5789">
        <ele>46.8</ele>
        <time>2021-08-14T09:38:38Z</time>
      </trkpt>
      <trkpt lat="47.78503" lon="-3.57885">
        <ele>46.8</ele>
        <time>2021-08-14T09:38:39Z</time>
      </trkpt>
      <trkpt lat="47.78501" lon="-3.5788">
        <ele>46.8</ele>
        <time>2021-08-14T09:38:40Z</time>
      </trkpt>
      <trkpt lat="47.78498" lon="-3.57874">
        <ele>46.8</ele>
        <time>2021-08-14T09:38:41Z</time>
      </trkpt>
      <trkpt lat="47.78496" lon="-3.57869">
        <ele>46.8</ele>
        <time>2021-08-14T09:38:42Z</time>
      </trkpt>
      <trkpt lat="47.78494" lon="-3.57864">
        <ele>46.8</ele>
        <time>2021-08-14T09:38:43Z</time>
      </trkpt>
      <trkpt lat="47.78492" lon="-3.5786">
        <ele>46.8</ele>
        <time>2021-08-14T09:38:44Z</time>
      </trkpt>
      <trkpt lat="47.7849" lon="-3.57855">
        <ele>46.8</ele>
        <time>2021-08-14T09:38:45Z</time>
      </trkpt>
      <trkpt lat="47.78487" lon="-3.57849">
        <ele>46.8</ele>
        <time>2021-08-14T09:38:46Z</time>
      </trkpt>
      <trkpt lat="47.78485" lon="-3.57844">
        <ele>46.8</ele>
        <time>2021-08-14T09:38:47Z</time>
      </trkpt>
      <trkpt lat="47.78483" lon="-3.57838">
        <ele>46.8</ele>
        <time>2021-08-14T09:38:48Z</time>
      </trkpt>
      <trkpt lat="47.7848" lon="-3.57832">
        <ele>46.8</ele>
        <time>2021-08-14T09:38:49Z</time>
      </trkpt>
      <trkpt lat="47.78478" lon="-3.57826">
        <ele>46.8</ele>
        <time>2021-08-14T09:38:50Z</time>
      </trkpt>
      <trkpt lat="47.78476" lon="-3.57819">
        <ele>46.8</ele>
        <time>2021-08-14T09:38:51Z</time>
      </trkpt>
      <trkpt lat="47.78473" lon="-3.57813">
        <ele>46.8</ele>
        <time>2021-08-14T09:38:52Z</time>
      </trkpt>
      <trkpt lat="47.78471" lon="-3.57806">
        <ele>46.8</ele>
        <time>2021-08-14T09:38:53Z</time>
      </trkpt>
      <trkpt lat="47.78469" lon="-3.578">
        <ele>46.8</ele>
        <time>2021-08-14T09:38:54Z</time>
      </trkpt>
      <trkpt lat="47.78467" lon="-3.57793">
        <ele>46.8</ele>
        <time>2021-08-14T09:38:55Z</time>
      </trkpt>
      <trkpt lat="47.78465" lon="-3.57787">
        <ele>46.8</ele>
        <time>2021-08-14T09:38:56Z</time>
      </trkpt>
      <trkpt lat="47.78463" lon="-3.5778">
        <ele>46.8</ele>
        <time>2021-08-14T09:38:57Z</time>
      </trkpt>
      <trkpt lat="47.7846" lon="-3.57774">
        <ele>46.8</ele>
        <time>2021-08-14T09:38:58Z</time>
      </trkpt>
      <trkpt lat="47.78459" lon="-3.57767">
        <ele>46.8</ele>
        <time>2021-08-14T09:38:59Z</time>
      </trkpt>
      <trkpt lat="47.78457" lon="-3.57761">
        <ele>46.8</ele>
        <time>2021-08-14T09:39:00Z</time>
      </trkpt>
      <trkpt lat="47.78455" lon="-3.57755">
        <ele>46.8</ele>
        <time>2021-08-14T09:39:01Z</time>
      </trkpt>
      <trkpt lat="47.78453" lon="-3.57749">
        <ele>47</ele>
        <time>2021-08-14T09:39:02Z</time>
      </trkpt>
      <trkpt lat="47.78451" lon="-3.57743">
        <ele>47</ele>
        <time>2021-08-14T09:39:03Z</time>
      </trkpt>
      <trkpt lat="47.78449" lon="-3.57738">
        <ele>47</ele>
        <time>2021-08-14T09:39:04Z</time>
      </trkpt>
      <trkpt lat="47.78448" lon="-3.57732">
        <ele>47</ele>
        <time>2021-08-14T09:39:05Z</time>
      </trkpt>
      <trkpt lat="47.78446" lon="-3.57726">
        <ele>47</ele>
        <time>2021-08-14T09:39:06Z</time>
      </trkpt>
      <trkpt lat="47.78444" lon="-3.5772">
        <ele>47</ele>
        <time>2021-08-14T09:39:07Z</time>
      </trkpt>
      <trkpt lat="47.78442" lon="-3.57714">
        <ele>47</ele>
        <time>2021-08-14T09:39:08Z</time>
      </trkpt>
      <trkpt lat="47.7844" lon="-3.57708">
        <ele>47.2</ele>
        <time>2021-08-14T09:39:09Z</time>
      </trkpt>
      <trkpt lat="47.78438" lon="-3.57702">
        <ele>47.2</ele>
        <time>2021-08-14T09:39:10Z</time>
      </trkpt>
      <trkpt lat="47.78437" lon="-3.57697">
        <ele>47.2</ele>
        <time>2021-08-14T09:39:11Z</time>
      </trkpt>
      <trkpt lat="47.78435" lon="-3.57691">
        <ele>47.4</ele>
        <time>2021-08-14T09:39:12Z</time>
      </trkpt>
      <trkpt lat="47.78433" lon="-3.57685">
        <ele>47.4</ele>
        <time>2021-08-14T09:39:13Z</time>
      </trkpt>
      <trkpt lat="47.78431" lon="-3.5768">
        <ele>47.4</ele>
        <time>2021-08-14T09:39:14Z</time>
      </trkpt>
      <trkpt lat="47.7843" lon="-3.57674">
        <ele>47.6</ele>
        <time>2021-08-14T09:39:15Z</time>
      </trkpt>
      <trkpt lat="47.78428" lon="-3.57669">
        <ele>47.6</ele>
        <time>2021-08-14T09:39:16Z</time>
      </trkpt>
      <trkpt lat="47.78427" lon="-3.57665">
        <ele>47.6</ele>
        <time>2021-08-14T09:39:17Z</time>
      </trkpt>
      <trkpt lat="47.78425" lon="-3.5766">
        <ele>47.6</ele>
        <time>2021-08-14T09:39:18Z</time>
      </trkpt>
      <trkpt lat="47.78424" lon="-3.57656">
        <ele>47.6</ele>
        <time>2021-08-14T09:39:19Z</time>
      </trkpt>
      <trkpt lat="47.78422" lon="-3.57651">
        <ele>47.8</ele>
        <time>2021-08-14T09:39:20Z</time>
      </trkpt>
      <trkpt lat="47.78421" lon="-3.57647">
        <ele>48</ele>
        <time>2021-08-14T09:39:21Z</time>
      </trkpt>
      <trkpt lat="47.78419" lon="-3.57642">
        <ele>48</ele>
        <time>2021-08-14T09:39:22Z</time>
      </trkpt>
      <trkpt lat="47.78418" lon="-3.57637">
        <ele>48.2</ele>
        <time>2021-08-14T09:39:23Z</time>
      </trkpt>
      <trkpt lat="47.78416" lon="-3.57633">
        <ele>48.2</ele>
        <time>2021-08-14T09:39:24Z</time>
      </trkpt>
      <trkpt lat="47.78415" lon="-3.57628">
        <ele>48.4</ele>
        <time>2021-08-14T09:39:25Z</time>
      </trkpt>
      <trkpt lat="47.78413" lon="-3.57623">
        <ele>48.4</ele>
        <time>2021-08-14T09:39:26Z</time>
      </trkpt>
      <trkpt lat="47.78412" lon="-3.57618">
        <ele>48.6</ele>
        <time>2021-08-14T09:39:27Z</time>
      </trkpt>
      <trkpt lat="47.7841" lon="-3.57614">
        <ele>48.6</ele>
        <time>2021-08-14T09:39:28Z</time>
      </trkpt>
      <trkpt lat="47.78409" lon="-3.57609">
        <ele>48.8</ele>
        <time>2021-08-14T09:39:29Z</time>
      </trkpt>
      <trkpt lat="47.78407" lon="-3.57604">
        <ele>49</ele>
        <time>2021-08-14T09:39:30Z</time>
      </trkpt>
      <trkpt lat="47.78406" lon="-3.57599">
        <ele>49.2</ele>
        <time>2021-08-14T09:39:31Z</time>
      </trkpt>
      <trkpt lat="47.78404" lon="-3.57594">
        <ele>49.2</ele>
        <time>2021-08-14T09:39:32Z</time>
      </trkpt>
      <trkpt lat="47.78402" lon="-3.57588">
        <ele>49.4</ele>
        <time>2021-08-14T09:39:33Z</time>
      </trkpt>
      <trkpt lat="47.784" lon="-3.57582">
        <ele>49.4</ele>
        <time>2021-08-14T09:39:34Z</time>
      </trkpt>
      <trkpt lat="47.78399" lon="-3.57576">
        <ele>49.4</ele>
        <time>2021-08-14T09:39:35Z</time>
      </trkpt>
      <trkpt lat="47.78397" lon="-3.57569">
        <ele>49.4</ele>
        <time>2021-08-14T09:39:36Z</time>
      </trkpt>
      <trkpt lat="47.78395" lon="-3.57564">
        <ele>49.6</ele>
        <time>2021-08-14T09:39:37Z</time>
      </trkpt>
      <trkpt lat="47.78393" lon="-3.57558">
        <ele>49.6</ele>
        <time>2021-08-14T09:39:38Z</time>
      </trkpt>
      <trkpt lat="47.78391" lon="-3.57552">
        <ele>49.6</ele>
        <time>2021-08-14T09:39:39Z</time>
      </trkpt>
      <trkpt lat="47.7839" lon="-3.57546">
        <ele>49.6</ele>
        <time>2021-08-14T09:39:40Z</time>
      </trkpt>
      <trkpt lat="47.78388" lon="-3.57541">
        <ele>49.6</ele>
        <time>2021-08-14T09:39:41Z</time>
      </trkpt>
      <trkpt lat="47.78386" lon="-3.57535">
        <ele>49.6</ele>
        <time>2021-08-14T09:39:42Z</time>
      </trkpt>
      <trkpt lat="47.78384" lon="-3.5753">
        <ele>49.6</ele>
        <time>2021-08-14T09:39:43Z</time>
      </trkpt>
      <trkpt lat="47.78382" lon="-3.57524">
        <ele>49.8</ele>
        <time>2021-08-14T09:39:44Z</time>
      </trkpt>
      <trkpt lat="47.78381" lon="-3.57518">
        <ele>49.8</ele>
        <time>2021-08-14T09:39:45Z</time>
      </trkpt>
      <trkpt lat="47.78379" lon="-3.57513">
        <ele>49.8</ele>
        <time>2021-08-14T09:39:46Z</time>
      </trkpt>
      <trkpt lat="47.78377" lon="-3.57507">
        <ele>49.8</ele>
        <time>2021-08-14T09:39:47Z</time>
      </trkpt>
      <trkpt lat="47.78375" lon="-3.57501">
        <ele>49.8</ele>
        <time>2021-08-14T09:39:48Z</time>
      </trkpt>
      <trkpt lat="47.78373" lon="-3.57496">
        <ele>50</ele>
        <time>2021-08-14T09:39:49Z</time>
      </trkpt>
      <trkpt lat="47.78372" lon="-3.5749">
        <ele>50</ele>
        <time>2021-08-14T09:39:50Z</time>
      </trkpt>
      <trkpt lat="47.7837" lon="-3.57485">
        <ele>50</ele>
        <time>2021-08-14T09:39:51Z</time>
      </trkpt>
      <trkpt lat="47.78368" lon="-3.57479">
        <ele>50</ele>
        <time>2021-08-14T09:39:52Z</time>
      </trkpt>
      <trkpt lat="47.78367" lon="-3.57474">
        <ele>50</ele>
        <time>2021-08-14T09:39:53Z</time>
      </trkpt>
      <trkpt lat="47.78365" lon="-3.57469">
        <ele>50</ele>
        <time>2021-08-14T09:39:54Z</time>
      </trkpt>
      <trkpt lat="47.78364" lon="-3.57464">
        <ele>50</ele>
        <time>2021-08-14T09:39:55Z</time>
      </trkpt>
      <trkpt lat="47.78362" lon="-3.57459">
        <ele>50.2</ele>
        <time>2021-08-14T09:39:56Z</time>
      </trkpt>
      <trkpt lat="47.7836" lon="-3.57453">
        <ele>50.2</ele>
        <time>2021-08-14T09:39:57Z</time>
      </trkpt>
      <trkpt lat="47.78359" lon="-3.57447">
        <ele>50.2</ele>
        <time>2021-08-14T09:39:58Z</time>
      </trkpt>
      <trkpt lat="47.78357" lon="-3.57441">
        <ele>50.2</ele>
        <time>2021-08-14T09:39:59Z</time>
      </trkpt>
      <trkpt lat="47.78355" lon="-3.57435">
        <ele>50.2</ele>
        <time>2021-08-14T09:40:00Z</time>
      </trkpt>
      <trkpt lat="47.78353" lon="-3.57429">
        <ele>50.2</ele>
        <time>2021-08-14T09:40:01Z</time>
      </trkpt>
      <trkpt lat="47.78352" lon="-3.57423">
        <ele>50.4</ele>
        <time>2021-08-14T09:40:02Z</time>
      </trkpt>
      <trkpt lat="47.7835" lon="-3.57417">
        <ele>50.4</ele>
        <time>2021-08-14T09:40:03Z</time>
      </trkpt>
      <trkpt lat="47.78348" lon="-3.57411">
        <ele>50.4</ele>
        <time>2021-08-14T09:40:04Z</time>
      </trkpt>
      <trkpt lat="47.78346" lon="-3.57405">
        <ele>50.4</ele>
        <time>2021-08-14T09:40:05Z</time>
      </trkpt>
      <trkpt lat="47.78345" lon="-3.57398">
        <ele>50.4</ele>
        <time>2021-08-14T09:40:06Z</time>
      </trkpt>
      <trkpt lat="47.78343" lon="-3.57392">
        <ele>50.4</ele>
        <time>2021-08-14T09:40:07Z</time>
      </trkpt>
      <trkpt lat="47.78342" lon="-3.57386">
        <ele>50.4</ele>
        <time>2021-08-14T09:40:08Z</time>
      </trkpt>
      <trkpt lat="47.7834" lon="-3.5738">
        <ele>50.4</ele>
        <time>2021-08-14T09:40:09Z</time>
      </trkpt>
      <trkpt lat="47.78339" lon="-3.57374">
        <ele>50.4</ele>
        <time>2021-08-14T09:40:10Z</time>
      </trkpt>
      <trkpt lat="47.78337" lon="-3.57368">
        <ele>50.4</ele>
        <time>2021-08-14T09:40:11Z</time>
      </trkpt>
      <trkpt lat="47.78336" lon="-3.57361">
        <ele>50.4</ele>
        <time>2021-08-14T09:40:12Z</time>
      </trkpt>
      <trkpt lat="47.78334" lon="-3.57354">
        <ele>50.4</ele>
        <time>2021-08-14T09:40:13Z</time>
      </trkpt>
      <trkpt lat="47.78333" lon="-3.57347">
        <ele>50.4</ele>
        <time>2021-08-14T09:40:14Z</time>
      </trkpt>
      <trkpt lat="47.78331" lon="-3.5734">
        <ele>50.4</ele>
        <time>2021-08-14T09:40:15Z</time>
      </trkpt>
      <trkpt lat="47.7833" lon="-3.57333">
        <ele>50.4</ele>
        <time>2021-08-14T09:40:16Z</time>
      </trkpt>
      <trkpt lat="47.78328" lon="-3.57326">
        <ele>50.4</ele>
        <time>2021-08-14T09:40:17Z</time>
      </trkpt>
      <trkpt lat="47.78327" lon="-3.57319">
        <ele>50.4</ele>
        <time>2021-08-14T09:40:18Z</time>
      </trkpt>
      <trkpt lat="47.78326" lon="-3.57311">
        <ele>50.2</ele>
        <time>2021-08-14T09:40:19Z</time>
      </trkpt>
      <trkpt lat="47.78324" lon="-3.57304">
        <ele>50.2</ele>
        <time>2021-08-14T09:40:20Z</time>
      </trkpt>
      <trkpt lat="47.78323" lon="-3.57297">
        <ele>50.2</ele>
        <time>2021-08-14T09:40:21Z</time>
      </trkpt>
      <trkpt lat="47.78322" lon="-3.57289">
        <ele>50.2</ele>
        <time>2021-08-14T09:40:22Z</time>
      </trkpt>
      <trkpt lat="47.7832" lon="-3.57282">
        <ele>50.2</ele>
        <time>2021-08-14T09:40:23Z</time>
      </trkpt>
      <trkpt lat="47.78319" lon="-3.57274">
        <ele>50.2</ele>
        <time>2021-08-14T09:40:24Z</time>
      </trkpt>
      <trkpt lat="47.78318" lon="-3.57267">
        <ele>50.2</ele>
        <time>2021-08-14T09:40:25Z</time>
      </trkpt>
      <trkpt lat="47.78316" lon="-3.57259">
        <ele>50.2</ele>
        <time>2021-08-14T09:40:26Z</time>
      </trkpt>
      <trkpt lat="47.78315" lon="-3.57252">
        <ele>50.2</ele>
        <time>2021-08-14T09:40:27Z</time>
      </trkpt>
      <trkpt lat="47.78313" lon="-3.57244">
        <ele>50.2</ele>
        <time>2021-08-14T09:40:28Z</time>
      </trkpt>
      <trkpt lat="47.78312" lon="-3.57237">
        <ele>50.2</ele>
        <time>2021-08-14T09:40:29Z</time>
      </trkpt>
      <trkpt lat="47.78312" lon="-3.57229">
        <ele>50.4</ele>
        <time>2021-08-14T09:40:30Z</time>
      </trkpt>
      <trkpt lat="47.78311" lon="-3.57222">
        <ele>50.4</ele>
        <time>2021-08-14T09:40:31Z</time>
      </trkpt>
      <trkpt lat="47.7831" lon="-3.57214">
        <ele>50.4</ele>
        <time>2021-08-14T09:40:32Z</time>
      </trkpt>
      <trkpt lat="47.78308" lon="-3.57206">
        <ele>50.4</ele>
        <time>2021-08-14T09:40:33Z</time>
      </trkpt>
      <trkpt lat="47.78307" lon="-3.57199">
        <ele>50.4</ele>
        <time>2021-08-14T09:40:34Z</time>
      </trkpt>
      <trkpt lat="47.78306" lon="-3.57191">
        <ele>50.4</ele>
        <time>2021-08-14T09:40:35Z</time>
      </trkpt>
      <trkpt lat="47.78305" lon="-3.57184">
        <ele>50.4</ele>
        <time>2021-08-14T09:40:36Z</time>
      </trkpt>
      <trkpt lat="47.78304" lon="-3.57177">
        <ele>50.4</ele>
        <time>2021-08-14T09:40:37Z</time>
      </trkpt>
      <trkpt lat="47.78303" lon="-3.5717">
        <ele>50.6</ele>
        <time>2021-08-14T09:40:38Z</time>
      </trkpt>
      <trkpt lat="47.78302" lon="-3.57163">
        <ele>50.6</ele>
        <time>2021-08-14T09:40:39Z</time>
      </trkpt>
      <trkpt lat="47.78301" lon="-3.57156">
        <ele>50.6</ele>
        <time>2021-08-14T09:40:40Z</time>
      </trkpt>
      <trkpt lat="47.783" lon="-3.5715">
        <ele>50.6</ele>
        <time>2021-08-14T09:40:41Z</time>
      </trkpt>
      <trkpt lat="47.78299" lon="-3.57144">
        <ele>50.6</ele>
        <time>2021-08-14T09:40:42Z</time>
      </trkpt>
      <trkpt lat="47.78298" lon="-3.57139">
        <ele>50.6</ele>
        <time>2021-08-14T09:40:43Z</time>
      </trkpt>
      <trkpt lat="47.78297" lon="-3.57133">
        <ele>50.6</ele>
        <time>2021-08-14T09:40:44Z</time>
      </trkpt>
      <trkpt lat="47.78295" lon="-3.57128">
        <ele>50.6</ele>
        <time>2021-08-14T09:40:45Z</time>
      </trkpt>
      <trkpt lat="47.78293" lon="-3.57124">
        <ele>50.6</ele>
        <time>2021-08-14T09:40:46Z</time>
      </trkpt>
      <trkpt lat="47.78291" lon="-3.57119">
        <ele>50.6</ele>
        <time>2021-08-14T09:40:47Z</time>
      </trkpt>
      <trkpt lat="47.78289" lon="-3.57114">
        <ele>50.6</ele>
        <time>2021-08-14T09:40:48Z</time>
      </trkpt>
      <trkpt lat="47.78287" lon="-3.57108">
        <ele>50.6</ele>
        <time>2021-08-14T09:40:49Z</time>
      </trkpt>
      <trkpt lat="47.78285" lon="-3.57104">
        <ele>50.6</ele>
        <time>2021-08-14T09:40:50Z</time>
      </trkpt>
      <trkpt lat="47.78282" lon="-3.571">
        <ele>50.6</ele>
        <time>2021-08-14T09:40:51Z</time>
      </trkpt>
      <trkpt lat="47.78278" lon="-3.57096">
        <ele>50.6</ele>
        <time>2021-08-14T09:40:52Z</time>
      </trkpt>
      <trkpt lat="47.78274" lon="-3.57093">
        <ele>50.6</ele>
        <time>2021-08-14T09:40:53Z</time>
      </trkpt>
      <trkpt lat="47.78269" lon="-3.5709">
        <ele>50.6</ele>
        <time>2021-08-14T09:40:54Z</time>
      </trkpt>
      <trkpt lat="47.78265" lon="-3.57087">
        <ele>50.4</ele>
        <time>2021-08-14T09:40:55Z</time>
      </trkpt>
      <trkpt lat="47.7826" lon="-3.57084">
        <ele>50.4</ele>
        <time>2021-08-14T09:40:56Z</time>
      </trkpt>
      <trkpt lat="47.78256" lon="-3.57082">
        <ele>50.2</ele>
        <time>2021-08-14T09:40:57Z</time>
      </trkpt>
      <trkpt lat="47.78252" lon="-3.5708">
        <ele>50.2</ele>
        <time>2021-08-14T09:40:58Z</time>
      </trkpt>
      <trkpt lat="47.78247" lon="-3.57078">
        <ele>50.2</ele>
        <time>2021-08-14T09:40:59Z</time>
      </trkpt>
      <trkpt lat="47.78243" lon="-3.57076">
        <ele>50.2</ele>
        <time>2021-08-14T09:41:00Z</time>
      </trkpt>
      <trkpt lat="47.7824" lon="-3.57074">
        <ele>50</ele>
        <time>2021-08-14T09:41:01Z</time>
      </trkpt>
      <trkpt lat="47.78236" lon="-3.57072">
        <ele>50</ele>
        <time>2021-08-14T09:41:02Z</time>
      </trkpt>
      <trkpt lat="47.78232" lon="-3.5707">
        <ele>49.8</ele>
        <time>2021-08-14T09:41:03Z</time>
      </trkpt>
      <trkpt lat="47.78229" lon="-3.57066">
        <ele>49.6</ele>
        <time>2021-08-14T09:41:04Z</time>
      </trkpt>
      <trkpt lat="47.78227" lon="-3.57061">
        <ele>49.6</ele>
        <time>2021-08-14T09:41:05Z</time>
      </trkpt>
      <trkpt lat="47.78223" lon="-3.57057">
        <ele>49.6</ele>
        <time>2021-08-14T09:41:06Z</time>
      </trkpt>
      <trkpt lat="47.78219" lon="-3.57054">
        <ele>49.4</ele>
        <time>2021-08-14T09:41:07Z</time>
      </trkpt>
      <trkpt lat="47.78215" lon="-3.57051">
        <ele>49.4</ele>
        <time>2021-08-14T09:41:08Z</time>
      </trkpt>
      <trkpt lat="47.78211" lon="-3.57048">
        <ele>49.4</ele>
        <time>2021-08-14T09:41:09Z</time>
      </trkpt>
      <trkpt lat="47.78207" lon="-3.57045">
        <ele>49.4</ele>
        <time>2021-08-14T09:41:10Z</time>
      </trkpt>
      <trkpt lat="47.78203" lon="-3.57042">
        <ele>49.4</ele>
        <time>2021-08-14T09:41:11Z</time>
      </trkpt>
      <trkpt lat="47.78198" lon="-3.57039">
        <ele>49.4</ele>
        <time>2021-08-14T09:41:12Z</time>
      </trkpt>
      <trkpt lat="47.78193" lon="-3.57035">
        <ele>49.4</ele>
        <time>2021-08-14T09:41:13Z</time>
      </trkpt>
      <trkpt lat="47.78188" lon="-3.57031">
        <ele>49.4</ele>
        <time>2021-08-14T09:41:14Z</time>
      </trkpt>
      <trkpt lat="47.78183" lon="-3.57028">
        <ele>49.4</ele>
        <time>2021-08-14T09:41:15Z</time>
      </trkpt>
      <trkpt lat="47.78178" lon="-3.57023">
        <ele>49.2</ele>
        <time>2021-08-14T09:41:16Z</time>
      </trkpt>
      <trkpt lat="47.78172" lon="-3.57019">
        <ele>49.2</ele>
        <time>2021-08-14T09:41:17Z</time>
      </trkpt>
      <trkpt lat="47.78166" lon="-3.57014">
        <ele>49.2</ele>
        <time>2021-08-14T09:41:18Z</time>
      </trkpt>
      <trkpt lat="47.7816" lon="-3.5701">
        <ele>49.2</ele>
        <time>2021-08-14T09:41:19Z</time>
      </trkpt>
      <trkpt lat="47.78153" lon="-3.57005">
        <ele>49.2</ele>
        <time>2021-08-14T09:41:20Z</time>
      </trkpt>
      <trkpt lat="47.78146" lon="-3.57">
        <ele>49.2</ele>
        <time>2021-08-14T09:41:21Z</time>
      </trkpt>
      <trkpt lat="47.78139" lon="-3.56995">
        <ele>49</ele>
        <time>2021-08-14T09:41:22Z</time>
      </trkpt>
      <trkpt lat="47.78132" lon="-3.5699">
        <ele>49</ele>
        <time>2021-08-14T09:41:23Z</time>
      </trkpt>
      <trkpt lat="47.78126" lon="-3.56985">
        <ele>48.8</ele>
        <time>2021-08-14T09:41:24Z</time>
      </trkpt>
      <trkpt lat="47.78119" lon="-3.5698">
        <ele>48.6</ele>
        <time>2021-08-14T09:41:25Z</time>
      </trkpt>
      <trkpt lat="47.78112" lon="-3.56975">
        <ele>48.2</ele>
        <time>2021-08-14T09:41:26Z</time>
      </trkpt>
      <trkpt lat="47.78106" lon="-3.56971">
        <ele>47.6</ele>
        <time>2021-08-14T09:41:27Z</time>
      </trkpt>
      <trkpt lat="47.781" lon="-3.56967">
        <ele>47.4</ele>
        <time>2021-08-14T09:41:28Z</time>
      </trkpt>
      <trkpt lat="47.78094" lon="-3.56963">
        <ele>47</ele>
        <time>2021-08-14T09:41:29Z</time>
      </trkpt>
      <trkpt lat="47.78088" lon="-3.56959">
        <ele>46.4</ele>
        <time>2021-08-14T09:41:30Z</time>
      </trkpt>
      <trkpt lat="47.78083" lon="-3.56955">
        <ele>45.8</ele>
        <time>2021-08-14T09:41:31Z</time>
      </trkpt>
      <trkpt lat="47.78077" lon="-3.56951">
        <ele>45.6</ele>
        <time>2021-08-14T09:41:32Z</time>
      </trkpt>
      <trkpt lat="47.78071" lon="-3.56947">
        <ele>45.6</ele>
        <time>2021-08-14T09:41:33Z</time>
      </trkpt>
      <trkpt lat="47.78065" lon="-3.56943">
        <ele>45.4</ele>
        <time>2021-08-14T09:41:34Z</time>
      </trkpt>
      <trkpt lat="47.78059" lon="-3.56939">
        <ele>45.4</ele>
        <time>2021-08-14T09:41:35Z</time>
      </trkpt>
      <trkpt lat="47.78053" lon="-3.56934">
        <ele>45.4</ele>
        <time>2021-08-14T09:41:36Z</time>
      </trkpt>
      <trkpt lat="47.78048" lon="-3.5693">
        <ele>45.4</ele>
        <time>2021-08-14T09:41:37Z</time>
      </trkpt>
      <trkpt lat="47.78042" lon="-3.56926">
        <ele>45.4</ele>
        <time>2021-08-14T09:41:38Z</time>
      </trkpt>
      <trkpt lat="47.78036" lon="-3.56922">
        <ele>45.4</ele>
        <time>2021-08-14T09:41:39Z</time>
      </trkpt>
      <trkpt lat="47.78031" lon="-3.56917">
        <ele>45.4</ele>
        <time>2021-08-14T09:41:40Z</time>
      </trkpt>
      <trkpt lat="47.78025" lon="-3.56913">
        <ele>45.4</ele>
        <time>2021-08-14T09:41:41Z</time>
      </trkpt>
      <trkpt lat="47.78019" lon="-3.56909">
        <ele>45.4</ele>
        <time>2021-08-14T09:41:42Z</time>
      </trkpt>
      <trkpt lat="47.78014" lon="-3.56905">
        <ele>45.4</ele>
        <time>2021-08-14T09:41:43Z</time>
      </trkpt>
      <trkpt lat="47.78008" lon="-3.56901">
        <ele>45.4</ele>
        <time>2021-08-14T09:41:44Z</time>
      </trkpt>
      <trkpt lat="47.78003" lon="-3.56897">
        <ele>45.4</ele>
        <time>2021-08-14T09:41:45Z</time>
      </trkpt>
      <trkpt lat="47.77998" lon="-3.56893">
        <ele>45.4</ele>
        <time>2021-08-14T09:41:46Z</time>
      </trkpt>
      <trkpt lat="47.77992" lon="-3.56889">
        <ele>45.4</ele>
        <time>2021-08-14T09:41:47Z</time>
      </trkpt>
      <trkpt lat="47.77987" lon="-3.56884">
        <ele>45.4</ele>
        <time>2021-08-14T09:41:48Z</time>
      </trkpt>
      <trkpt lat="47.77981" lon="-3.5688">
        <ele>45.4</ele>
        <time>2021-08-14T09:41:49Z</time>
      </trkpt>
      <trkpt lat="47.77976" lon="-3.56875">
        <ele>45.4</ele>
        <time>2021-08-14T09:41:50Z</time>
      </trkpt>
      <trkpt lat="47.7797" lon="-3.5687">
        <ele>45.2</ele>
        <time>2021-08-14T09:41:51Z</time>
      </trkpt>
      <trkpt lat="47.77965" lon="-3.56865">
        <ele>45.2</ele>
        <time>2021-08-14T09:41:52Z</time>
      </trkpt>
      <trkpt lat="47.77959" lon="-3.56859">
        <ele>45.2</ele>
        <time>2021-08-14T09:41:53Z</time>
      </trkpt>
      <trkpt lat="47.77954" lon="-3.56854">
        <ele>45</ele>
        <time>2021-08-14T09:41:54Z</time>
      </trkpt>
      <trkpt lat="47.77948" lon="-3.56847">
        <ele>45</ele>
        <time>2021-08-14T09:41:55Z</time>
      </trkpt>
      <trkpt lat="47.77943" lon="-3.56841">
        <ele>45</ele>
        <time>2021-08-14T09:41:56Z</time>
      </trkpt>
      <trkpt lat="47.77938" lon="-3.56835">
        <ele>44.8</ele>
        <time>2021-08-14T09:41:57Z</time>
      </trkpt>
      <trkpt lat="47.77932" lon="-3.56829">
        <ele>44.8</ele>
        <time>2021-08-14T09:41:58Z</time>
      </trkpt>
      <trkpt lat="47.77927" lon="-3.56823">
        <ele>44.4</ele>
        <time>2021-08-14T09:41:59Z</time>
      </trkpt>
      <trkpt lat="47.77922" lon="-3.56817">
        <ele>44.2</ele>
        <time>2021-08-14T09:42:00Z</time>
      </trkpt>
      <trkpt lat="47.77917" lon="-3.56811">
        <ele>44.2</ele>
        <time>2021-08-14T09:42:01Z</time>
      </trkpt>
      <trkpt lat="47.77913" lon="-3.56804">
        <ele>44</ele>
        <time>2021-08-14T09:42:02Z</time>
      </trkpt>
      <trkpt lat="47.77908" lon="-3.56798">
        <ele>44</ele>
        <time>2021-08-14T09:42:03Z</time>
      </trkpt>
      <trkpt lat="47.77903" lon="-3.56792">
        <ele>44</ele>
        <time>2021-08-14T09:42:04Z</time>
      </trkpt>
      <trkpt lat="47.77898" lon="-3.56786">
        <ele>43.8</ele>
        <time>2021-08-14T09:42:05Z</time>
      </trkpt>
      <trkpt lat="47.77893" lon="-3.5678">
        <ele>43.8</ele>
        <time>2021-08-14T09:42:06Z</time>
      </trkpt>
      <trkpt lat="47.77888" lon="-3.56774">
        <ele>43.6</ele>
        <time>2021-08-14T09:42:07Z</time>
      </trkpt>
      <trkpt lat="47.77883" lon="-3.56768">
        <ele>43.4</ele>
        <time>2021-08-14T09:42:08Z</time>
      </trkpt>
      <trkpt lat="47.77878" lon="-3.56762">
        <ele>43.4</ele>
        <time>2021-08-14T09:42:09Z</time>
      </trkpt>
      <trkpt lat="47.77873" lon="-3.56756">
        <ele>43.2</ele>
        <time>2021-08-14T09:42:10Z</time>
      </trkpt>
      <trkpt lat="47.77868" lon="-3.5675">
        <ele>43.2</ele>
        <time>2021-08-14T09:42:11Z</time>
      </trkpt>
      <trkpt lat="47.77864" lon="-3.56744">
        <ele>43.2</ele>
        <time>2021-08-14T09:42:12Z</time>
      </trkpt>
      <trkpt lat="47.77859" lon="-3.56738">
        <ele>43.2</ele>
        <time>2021-08-14T09:42:13Z</time>
      </trkpt>
      <trkpt lat="47.77854" lon="-3.56732">
        <ele>43</ele>
        <time>2021-08-14T09:42:14Z</time>
      </trkpt>
      <trkpt lat="47.77849" lon="-3.56726">
        <ele>43</ele>
        <time>2021-08-14T09:42:15Z</time>
      </trkpt>
      <trkpt lat="47.77845" lon="-3.5672">
        <ele>43</ele>
        <time>2021-08-14T09:42:16Z</time>
      </trkpt>
      <trkpt lat="47.7784" lon="-3.56714">
        <ele>42.8</ele>
        <time>2021-08-14T09:42:17Z</time>
      </trkpt>
      <trkpt lat="47.77835" lon="-3.56708">
        <ele>42.8</ele>
        <time>2021-08-14T09:42:18Z</time>
      </trkpt>
      <trkpt lat="47.7783" lon="-3.56703">
        <ele>42.8</ele>
        <time>2021-08-14T09:42:19Z</time>
      </trkpt>
      <trkpt lat="47.77826" lon="-3.56698">
        <ele>42.8</ele>
        <time>2021-08-14T09:42:20Z</time>
      </trkpt>
      <trkpt lat="47.77821" lon="-3.56694">
        <ele>42.6</ele>
        <time>2021-08-14T09:42:21Z</time>
      </trkpt>
      <trkpt lat="47.77815" lon="-3.56689">
        <ele>42.6</ele>
        <time>2021-08-14T09:42:22Z</time>
      </trkpt>
      <trkpt lat="47.7781" lon="-3.56684">
        <ele>42.6</ele>
        <time>2021-08-14T09:42:23Z</time>
      </trkpt>
      <trkpt lat="47.77805" lon="-3.5668">
        <ele>42.6</ele>
        <time>2021-08-14T09:42:24Z</time>
      </trkpt>
      <trkpt lat="47.77799" lon="-3.56676">
        <ele>42.6</ele>
        <time>2021-08-14T09:42:25Z</time>
      </trkpt>
      <trkpt lat="47.77794" lon="-3.56672">
        <ele>42.4</ele>
        <time>2021-08-14T09:42:26Z</time>
      </trkpt>
      <trkpt lat="47.77788" lon="-3.56669">
        <ele>42.2</ele>
        <time>2021-08-14T09:42:27Z</time>
      </trkpt>
      <trkpt lat="47.77783" lon="-3.56666">
        <ele>42.2</ele>
        <time>2021-08-14T09:42:28Z</time>
      </trkpt>
      <trkpt lat="47.77777" lon="-3.56663">
        <ele>42</ele>
        <time>2021-08-14T09:42:29Z</time>
      </trkpt>
      <trkpt lat="47.77771" lon="-3.5666">
        <ele>41.8</ele>
        <time>2021-08-14T09:42:30Z</time>
      </trkpt>
      <trkpt lat="47.77766" lon="-3.56657">
        <ele>41.6</ele>
        <time>2021-08-14T09:42:31Z</time>
      </trkpt>
      <trkpt lat="47.77761" lon="-3.56655">
        <ele>41.4</ele>
        <time>2021-08-14T09:42:32Z</time>
      </trkpt>
      <trkpt lat="47.77756" lon="-3.56654">
        <ele>41</ele>
        <time>2021-08-14T09:42:33Z</time>
      </trkpt>
      <trkpt lat="47.77752" lon="-3.56653">
        <ele>40.8</ele>
        <time>2021-08-14T09:42:34Z</time>
      </trkpt>
      <trkpt lat="47.77747" lon="-3.56652">
        <ele>40.4</ele>
        <time>2021-08-14T09:42:35Z</time>
      </trkpt>
      <trkpt lat="47.77743" lon="-3.56652">
        <ele>40.2</ele>
        <time>2021-08-14T09:42:36Z</time>
      </trkpt>
      <trkpt lat="47.77739" lon="-3.56651">
        <ele>40</ele>
        <time>2021-08-14T09:42:37Z</time>
      </trkpt>
      <trkpt lat="47.77735" lon="-3.56651">
        <ele>39.8</ele>
        <time>2021-08-14T09:42:38Z</time>
      </trkpt>
      <trkpt lat="47.77731" lon="-3.56651">
        <ele>39.6</ele>
        <time>2021-08-14T09:42:39Z</time>
      </trkpt>
      <trkpt lat="47.77727" lon="-3.56651">
        <ele>39.6</ele>
        <time>2021-08-14T09:42:40Z</time>
      </trkpt>
      <trkpt lat="47.77724" lon="-3.56651">
        <ele>39.6</ele>
        <time>2021-08-14T09:42:41Z</time>
      </trkpt>
      <trkpt lat="47.7772" lon="-3.56652">
        <ele>39.6</ele>
        <time>2021-08-14T09:42:42Z</time>
      </trkpt>
      <trkpt lat="47.77717" lon="-3.56653">
        <ele>39.6</ele>
        <time>2021-08-14T09:42:43Z</time>
      </trkpt>
      <trkpt lat="47.77713" lon="-3.56654">
        <ele>39.6</ele>
        <time>2021-08-14T09:42:44Z</time>
      </trkpt>
      <trkpt lat="47.77709" lon="-3.56655">
        <ele>39.6</ele>
        <time>2021-08-14T09:42:45Z</time>
      </trkpt>
      <trkpt lat="47.77704" lon="-3.56656">
        <ele>39.6</ele>
        <time>2021-08-14T09:42:46Z</time>
      </trkpt>
      <trkpt lat="47.77699" lon="-3.56656">
        <ele>39.6</ele>
        <time>2021-08-14T09:42:47Z</time>
      </trkpt>
      <trkpt lat="47.77695" lon="-3.56657">
        <ele>39.6</ele>
        <time>2021-08-14T09:42:48Z</time>
      </trkpt>
      <trkpt lat="47.7769" lon="-3.56658">
        <ele>39.8</ele>
        <time>2021-08-14T09:42:49Z</time>
      </trkpt>
      <trkpt lat="47.77685" lon="-3.56658">
        <ele>39.8</ele>
        <time>2021-08-14T09:42:50Z</time>
      </trkpt>
      <trkpt lat="47.7768" lon="-3.56659">
        <ele>39.8</ele>
        <time>2021-08-14T09:42:51Z</time>
      </trkpt>
      <trkpt lat="47.77675" lon="-3.5666">
        <ele>39.8</ele>
        <time>2021-08-14T09:42:52Z</time>
      </trkpt>
      <trkpt lat="47.7767" lon="-3.56661">
        <ele>39.8</ele>
        <time>2021-08-14T09:42:53Z</time>
      </trkpt>
      <trkpt lat="47.77665" lon="-3.56662">
        <ele>39.8</ele>
        <time>2021-08-14T09:42:54Z</time>
      </trkpt>
      <trkpt lat="47.7766" lon="-3.56662">
        <ele>39.8</ele>
        <time>2021-08-14T09:42:55Z</time>
      </trkpt>
      <trkpt lat="47.77655" lon="-3.56663">
        <ele>39.8</ele>
        <time>2021-08-14T09:42:56Z</time>
      </trkpt>
      <trkpt lat="47.7765" lon="-3.56664">
        <ele>39.8</ele>
        <time>2021-08-14T09:42:57Z</time>
      </trkpt>
      <trkpt lat="47.77645" lon="-3.56665">
        <ele>39.8</ele>
        <time>2021-08-14T09:42:58Z</time>
      </trkpt>
      <trkpt lat="47.77641" lon="-3.56666">
        <ele>39.8</ele>
        <time>2021-08-14T09:42:59Z</time>
      </trkpt>
      <trkpt lat="47.77636" lon="-3.56666">
        <ele>39.8</ele>
        <time>2021-08-14T09:43:00Z</time>
      </trkpt>
      <trkpt lat="47.77631" lon="-3.56665">
        <ele>39.8</ele>
        <time>2021-08-14T09:43:01Z</time>
      </trkpt>
      <trkpt lat="47.77626" lon="-3.56665">
        <ele>39.8</ele>
        <time>2021-08-14T09:43:02Z</time>
      </trkpt>
      <trkpt lat="47.77622" lon="-3.56664">
        <ele>39.8</ele>
        <time>2021-08-14T09:43:03Z</time>
      </trkpt>
      <trkpt lat="47.77617" lon="-3.56663">
        <ele>40</ele>
        <time>2021-08-14T09:43:04Z</time>
      </trkpt>
      <trkpt lat="47.77612" lon="-3.56662">
        <ele>40</ele>
        <time>2021-08-14T09:43:05Z</time>
      </trkpt>
      <trkpt lat="47.77608" lon="-3.5666">
        <ele>40.2</ele>
        <time>2021-08-14T09:43:06Z</time>
      </trkpt>
      <trkpt lat="47.77603" lon="-3.56658">
        <ele>40.2</ele>
        <time>2021-08-14T09:43:07Z</time>
      </trkpt>
      <trkpt lat="47.77598" lon="-3.56656">
        <ele>40.2</ele>
        <time>2021-08-14T09:43:08Z</time>
      </trkpt>
      <trkpt lat="47.77593" lon="-3.56653">
        <ele>40.4</ele>
        <time>2021-08-14T09:43:09Z</time>
      </trkpt>
      <trkpt lat="47.77588" lon="-3.5665">
        <ele>40.4</ele>
        <time>2021-08-14T09:43:10Z</time>
      </trkpt>
      <trkpt lat="47.77583" lon="-3.56647">
        <ele>40.4</ele>
        <time>2021-08-14T09:43:11Z</time>
      </trkpt>
      <trkpt lat="47.77579" lon="-3.56643">
        <ele>40.4</ele>
        <time>2021-08-14T09:43:12Z</time>
      </trkpt>
      <trkpt lat="47.77574" lon="-3.5664">
        <ele>40.4</ele>
        <time>2021-08-14T09:43:13Z</time>
      </trkpt>
      <trkpt lat="47.77569" lon="-3.56636">
        <ele>40.4</ele>
        <time>2021-08-14T09:43:14Z</time>
      </trkpt>
      <trkpt lat="47.77564" lon="-3.56633">
        <ele>40.4</ele>
        <time>2021-08-14T09:43:15Z</time>
      </trkpt>
      <trkpt lat="47.77559" lon="-3.56629">
        <ele>40.4</ele>
        <time>2021-08-14T09:43:16Z</time>
      </trkpt>
      <trkpt lat="47.77554" lon="-3.56625">
        <ele>40.4</ele>
        <time>2021-08-14T09:43:17Z</time>
      </trkpt>
      <trkpt lat="47.77549" lon="-3.56622">
        <ele>40.4</ele>
        <time>2021-08-14T09:43:18Z</time>
      </trkpt>
      <trkpt lat="47.77544" lon="-3.56618">
        <ele>40.4</ele>
        <time>2021-08-14T09:43:19Z</time>
      </trkpt>
      <trkpt lat="47.77539" lon="-3.56615">
        <ele>40.4</ele>
        <time>2021-08-14T09:43:20Z</time>
      </trkpt>
      <trkpt lat="47.77533" lon="-3.56611">
        <ele>40.4</ele>
        <time>2021-08-14T09:43:21Z</time>
      </trkpt>
      <trkpt lat="47.77527" lon="-3.56606">
        <ele>40</ele>
        <time>2021-08-14T09:43:22Z</time>
      </trkpt>
      <trkpt lat="47.77522" lon="-3.56602">
        <ele>39.8</ele>
        <time>2021-08-14T09:43:23Z</time>
      </trkpt>
      <trkpt lat="47.77516" lon="-3.56598">
        <ele>39.8</ele>
        <time>2021-08-14T09:43:24Z</time>
      </trkpt>
      <trkpt lat="47.7751" lon="-3.56593">
        <ele>39.6</ele>
        <time>2021-08-14T09:43:25Z</time>
      </trkpt>
      <trkpt lat="47.77504" lon="-3.56589">
        <ele>39.4</ele>
        <time>2021-08-14T09:43:26Z</time>
      </trkpt>
      <trkpt lat="47.77497" lon="-3.56585">
        <ele>39.2</ele>
        <time>2021-08-14T09:43:27Z</time>
      </trkpt>
      <trkpt lat="47.77491" lon="-3.5658">
        <ele>39</ele>
        <time>2021-08-14T09:43:28Z</time>
      </trkpt>
      <trkpt lat="47.77485" lon="-3.56576">
        <ele>38.8</ele>
        <time>2021-08-14T09:43:29Z</time>
      </trkpt>
      <trkpt lat="47.77479" lon="-3.56572">
        <ele>38.6</ele>
        <time>2021-08-14T09:43:30Z</time>
      </trkpt>
      <trkpt lat="47.77473" lon="-3.56567">
        <ele>38.4</ele>
        <time>2021-08-14T09:43:31Z</time>
      </trkpt>
      <trkpt lat="47.77467" lon="-3.56563">
        <ele>38.4</ele>
        <time>2021-08-14T09:43:32Z</time>
      </trkpt>
      <trkpt lat="47.77461" lon="-3.56559">
        <ele>38</ele>
        <time>2021-08-14T09:43:33Z</time>
      </trkpt>
      <trkpt lat="47.77455" lon="-3.56555">
        <ele>37.8</ele>
        <time>2021-08-14T09:43:34Z</time>
      </trkpt>
      <trkpt lat="47.77449" lon="-3.56551">
        <ele>37.4</ele>
        <time>2021-08-14T09:43:35Z</time>
      </trkpt>
      <trkpt lat="47.77443" lon="-3.56547">
        <ele>37.4</ele>
        <time>2021-08-14T09:43:36Z</time>
      </trkpt>
      <trkpt lat="47.77437" lon="-3.56542">
        <ele>37.2</ele>
        <time>2021-08-14T09:43:37Z</time>
      </trkpt>
      <trkpt lat="47.77432" lon="-3.56538">
        <ele>37</ele>
        <time>2021-08-14T09:43:38Z</time>
      </trkpt>
      <trkpt lat="47.77426" lon="-3.56534">
        <ele>37</ele>
        <time>2021-08-14T09:43:39Z</time>
      </trkpt>
      <trkpt lat="47.77421" lon="-3.56531">
        <ele>36.8</ele>
        <time>2021-08-14T09:43:40Z</time>
      </trkpt>
      <trkpt lat="47.77416" lon="-3.56527">
        <ele>36.8</ele>
        <time>2021-08-14T09:43:41Z</time>
      </trkpt>
      <trkpt lat="47.77411" lon="-3.56524">
        <ele>36.6</ele>
        <time>2021-08-14T09:43:42Z</time>
      </trkpt>
      <trkpt lat="47.77406" lon="-3.5652">
        <ele>36.6</ele>
        <time>2021-08-14T09:43:43Z</time>
      </trkpt>
      <trkpt lat="47.774" lon="-3.56516">
        <ele>36.6</ele>
        <time>2021-08-14T09:43:44Z</time>
      </trkpt>
      <trkpt lat="47.77395" lon="-3.56512">
        <ele>36.6</ele>
        <time>2021-08-14T09:43:45Z</time>
      </trkpt>
      <trkpt lat="47.7739" lon="-3.56509">
        <ele>36.4</ele>
        <time>2021-08-14T09:43:46Z</time>
      </trkpt>
      <trkpt lat="47.77385" lon="-3.56505">
        <ele>36.4</ele>
        <time>2021-08-14T09:43:47Z</time>
      </trkpt>
      <trkpt lat="47.7738" lon="-3.56502">
        <ele>36.2</ele>
        <time>2021-08-14T09:43:48Z</time>
      </trkpt>
      <trkpt lat="47.77375" lon="-3.56498">
        <ele>36.2</ele>
        <time>2021-08-14T09:43:49Z</time>
      </trkpt>
      <trkpt lat="47.7737" lon="-3.56495">
        <ele>36</ele>
        <time>2021-08-14T09:43:50Z</time>
      </trkpt>
      <trkpt lat="47.77365" lon="-3.56491">
        <ele>36</ele>
        <time>2021-08-14T09:43:51Z</time>
      </trkpt>
      <trkpt lat="47.7736" lon="-3.56488">
        <ele>36</ele>
        <time>2021-08-14T09:43:52Z</time>
      </trkpt>
      <trkpt lat="47.77355" lon="-3.56484">
        <ele>36</ele>
        <time>2021-08-14T09:43:53Z</time>
      </trkpt>
      <trkpt lat="47.7735" lon="-3.56481">
        <ele>36</ele>
        <time>2021-08-14T09:43:54Z</time>
      </trkpt>
      <trkpt lat="47.77345" lon="-3.56477">
        <ele>36</ele>
        <time>2021-08-14T09:43:55Z</time>
      </trkpt>
      <trkpt lat="47.7734" lon="-3.56474">
        <ele>35.8</ele>
        <time>2021-08-14T09:43:56Z</time>
      </trkpt>
      <trkpt lat="47.77335" lon="-3.5647">
        <ele>35.8</ele>
        <time>2021-08-14T09:43:57Z</time>
      </trkpt>
      <trkpt lat="47.7733" lon="-3.56467">
        <ele>35.6</ele>
        <time>2021-08-14T09:43:58Z</time>
      </trkpt>
      <trkpt lat="47.77325" lon="-3.56463">
        <ele>35.6</ele>
        <time>2021-08-14T09:43:59Z</time>
      </trkpt>
      <trkpt lat="47.7732" lon="-3.56459">
        <ele>35.6</ele>
        <time>2021-08-14T09:44:00Z</time>
      </trkpt>
      <trkpt lat="47.77315" lon="-3.56456">
        <ele>35.4</ele>
        <time>2021-08-14T09:44:01Z</time>
      </trkpt>
      <trkpt lat="47.7731" lon="-3.56452">
        <ele>35.4</ele>
        <time>2021-08-14T09:44:02Z</time>
      </trkpt>
      <trkpt lat="47.77305" lon="-3.56449">
        <ele>35.2</ele>
        <time>2021-08-14T09:44:03Z</time>
      </trkpt>
      <trkpt lat="47.77299" lon="-3.56445">
        <ele>35.2</ele>
        <time>2021-08-14T09:44:04Z</time>
      </trkpt>
      <trkpt lat="47.77294" lon="-3.56441">
        <ele>35.2</ele>
        <time>2021-08-14T09:44:05Z</time>
      </trkpt>
      <trkpt lat="47.77289" lon="-3.56438">
        <ele>35.2</ele>
        <time>2021-08-14T09:44:06Z</time>
      </trkpt>
      <trkpt lat="47.77284" lon="-3.56434">
        <ele>35.2</ele>
        <time>2021-08-14T09:44:07Z</time>
      </trkpt>
      <trkpt lat="47.77278" lon="-3.5643">
        <ele>35</ele>
        <time>2021-08-14T09:44:08Z</time>
      </trkpt>
      <trkpt lat="47.77273" lon="-3.56427">
        <ele>35</ele>
        <time>2021-08-14T09:44:09Z</time>
      </trkpt>
      <trkpt lat="47.77268" lon="-3.56423">
        <ele>35</ele>
        <time>2021-08-14T09:44:10Z</time>
      </trkpt>
      <trkpt lat="47.77262" lon="-3.56418">
        <ele>35</ele>
        <time>2021-08-14T09:44:11Z</time>
      </trkpt>
      <trkpt lat="47.77257" lon="-3.56414">
        <ele>35</ele>
        <time>2021-08-14T09:44:12Z</time>
      </trkpt>
      <trkpt lat="47.77251" lon="-3.5641">
        <ele>34.8</ele>
        <time>2021-08-14T09:44:13Z</time>
      </trkpt>
      <trkpt lat="47.77246" lon="-3.56406">
        <ele>34.8</ele>
        <time>2021-08-14T09:44:14Z</time>
      </trkpt>
      <trkpt lat="47.7724" lon="-3.56402">
        <ele>34.6</ele>
        <time>2021-08-14T09:44:15Z</time>
      </trkpt>
      <trkpt lat="47.77235" lon="-3.56398">
        <ele>34.6</ele>
        <time>2021-08-14T09:44:16Z</time>
      </trkpt>
      <trkpt lat="47.77229" lon="-3.56393">
        <ele>34.4</ele>
        <time>2021-08-14T09:44:17Z</time>
      </trkpt>
      <trkpt lat="47.77223" lon="-3.56388">
        <ele>34.2</ele>
        <time>2021-08-14T09:44:18Z</time>
      </trkpt>
      <trkpt lat="47.77218" lon="-3.56383">
        <ele>34</ele>
        <time>2021-08-14T09:44:19Z</time>
      </trkpt>
      <trkpt lat="47.77212" lon="-3.56379">
        <ele>33.4</ele>
        <time>2021-08-14T09:44:20Z</time>
      </trkpt>
      <trkpt lat="47.77207" lon="-3.56374">
        <ele>33</ele>
        <time>2021-08-14T09:44:21Z</time>
      </trkpt>
      <trkpt lat="47.77201" lon="-3.56369">
        <ele>32.8</ele>
        <time>2021-08-14T09:44:22Z</time>
      </trkpt>
      <trkpt lat="47.77195" lon="-3.56364">
        <ele>32.6</ele>
        <time>2021-08-14T09:44:23Z</time>
      </trkpt>
      <trkpt lat="47.7719" lon="-3.56358">
        <ele>32.6</ele>
        <time>2021-08-14T09:44:24Z</time>
      </trkpt>
      <trkpt lat="47.77184" lon="-3.56353">
        <ele>32.6</ele>
        <time>2021-08-14T09:44:25Z</time>
      </trkpt>
      <trkpt lat="47.77178" lon="-3.56348">
        <ele>32.4</ele>
        <time>2021-08-14T09:44:26Z</time>
      </trkpt>
      <trkpt lat="47.77172" lon="-3.56342">
        <ele>32.2</ele>
        <time>2021-08-14T09:44:27Z</time>
      </trkpt>
      <trkpt lat="47.77166" lon="-3.56337">
        <ele>31.8</ele>
        <time>2021-08-14T09:44:28Z</time>
      </trkpt>
      <trkpt lat="47.7716" lon="-3.56331">
        <ele>31.6</ele>
        <time>2021-08-14T09:44:29Z</time>
      </trkpt>
      <trkpt lat="47.77154" lon="-3.56325">
        <ele>31.4</ele>
        <time>2021-08-14T09:44:30Z</time>
      </trkpt>
      <trkpt lat="47.77149" lon="-3.56319">
        <ele>31</ele>
        <time>2021-08-14T09:44:31Z</time>
      </trkpt>
      <trkpt lat="47.77144" lon="-3.56313">
        <ele>30.6</ele>
        <time>2021-08-14T09:44:32Z</time>
      </trkpt>
      <trkpt lat="47.77138" lon="-3.56307">
        <ele>30</ele>
        <time>2021-08-14T09:44:33Z</time>
      </trkpt>
      <trkpt lat="47.77133" lon="-3.56301">
        <ele>29.6</ele>
        <time>2021-08-14T09:44:34Z</time>
      </trkpt>
      <trkpt lat="47.77128" lon="-3.56296">
        <ele>29.2</ele>
        <time>2021-08-14T09:44:35Z</time>
      </trkpt>
      <trkpt lat="47.77122" lon="-3.56291">
        <ele>29</ele>
        <time>2021-08-14T09:44:36Z</time>
      </trkpt>
      <trkpt lat="47.77116" lon="-3.56287">
        <ele>29</ele>
        <time>2021-08-14T09:44:37Z</time>
      </trkpt>
      <trkpt lat="47.77111" lon="-3.56283">
        <ele>28.8</ele>
        <time>2021-08-14T09:44:38Z</time>
      </trkpt>
      <trkpt lat="47.77106" lon="-3.56277">
        <ele>28.8</ele>
        <time>2021-08-14T09:44:39Z</time>
      </trkpt>
      <trkpt lat="47.77102" lon="-3.56268">
        <ele>28.6</ele>
        <time>2021-08-14T09:44:40Z</time>
      </trkpt>
      <trkpt lat="47.77098" lon="-3.56259">
        <ele>28.4</ele>
        <time>2021-08-14T09:44:41Z</time>
      </trkpt>
      <trkpt lat="47.77094" lon="-3.5625">
        <ele>27.8</ele>
        <time>2021-08-14T09:44:42Z</time>
      </trkpt>
      <trkpt lat="47.7709" lon="-3.56241">
        <ele>27.4</ele>
        <time>2021-08-14T09:44:43Z</time>
      </trkpt>
      <trkpt lat="47.77085" lon="-3.56234">
        <ele>27.2</ele>
        <time>2021-08-14T09:44:44Z</time>
      </trkpt>
      <trkpt lat="47.77079" lon="-3.56227">
        <ele>27</ele>
        <time>2021-08-14T09:44:45Z</time>
      </trkpt>
      <trkpt lat="47.77073" lon="-3.56219">
        <ele>27</ele>
        <time>2021-08-14T09:44:46Z</time>
      </trkpt>
      <trkpt lat="47.77068" lon="-3.56212">
        <ele>27</ele>
        <time>2021-08-14T09:44:47Z</time>
      </trkpt>
      <trkpt lat="47.77062" lon="-3.56204">
        <ele>26.8</ele>
        <time>2021-08-14T09:44:48Z</time>
      </trkpt>
      <trkpt lat="47.77056" lon="-3.56197">
        <ele>26.8</ele>
        <time>2021-08-14T09:44:49Z</time>
      </trkpt>
      <trkpt lat="47.77051" lon="-3.56189">
        <ele>26.6</ele>
        <time>2021-08-14T09:44:50Z</time>
      </trkpt>
      <trkpt lat="47.77045" lon="-3.56181">
        <ele>26</ele>
        <time>2021-08-14T09:44:51Z</time>
      </trkpt>
      <trkpt lat="47.77039" lon="-3.56173">
        <ele>25.6</ele>
        <time>2021-08-14T09:44:52Z</time>
      </trkpt>
      <trkpt lat="47.77033" lon="-3.56164">
        <ele>25.2</ele>
        <time>2021-08-14T09:44:53Z</time>
      </trkpt>
      <trkpt lat="47.77027" lon="-3.56156">
        <ele>25</ele>
        <time>2021-08-14T09:44:54Z</time>
      </trkpt>
      <trkpt lat="47.77021" lon="-3.56148">
        <ele>24.8</ele>
        <time>2021-08-14T09:44:55Z</time>
      </trkpt>
      <trkpt lat="47.77015" lon="-3.56139">
        <ele>24.4</ele>
        <time>2021-08-14T09:44:56Z</time>
      </trkpt>
      <trkpt lat="47.77009" lon="-3.56131">
        <ele>24.2</ele>
        <time>2021-08-14T09:44:57Z</time>
      </trkpt>
      <trkpt lat="47.77003" lon="-3.56123">
        <ele>24</ele>
        <time>2021-08-14T09:44:58Z</time>
      </trkpt>
      <trkpt lat="47.76997" lon="-3.56114">
        <ele>23.8</ele>
        <time>2021-08-14T09:44:59Z</time>
      </trkpt>
      <trkpt lat="47.76992" lon="-3.56106">
        <ele>23.4</ele>
        <time>2021-08-14T09:45:00Z</time>
      </trkpt>
      <trkpt lat="47.76986" lon="-3.56098">
        <ele>22.6</ele>
        <time>2021-08-14T09:45:01Z</time>
      </trkpt>
      <trkpt lat="47.76979" lon="-3.56089">
        <ele>22.2</ele>
        <time>2021-08-14T09:45:02Z</time>
      </trkpt>
      <trkpt lat="47.76974" lon="-3.56081">
        <ele>21.8</ele>
        <time>2021-08-14T09:45:03Z</time>
      </trkpt>
      <trkpt lat="47.76968" lon="-3.56073">
        <ele>21.6</ele>
        <time>2021-08-14T09:45:04Z</time>
      </trkpt>
      <trkpt lat="47.76962" lon="-3.56064">
        <ele>21.4</ele>
        <time>2021-08-14T09:45:05Z</time>
      </trkpt>
      <trkpt lat="47.76957" lon="-3.56056">
        <ele>21</ele>
        <time>2021-08-14T09:45:06Z</time>
      </trkpt>
      <trkpt lat="47.76952" lon="-3.56047">
        <ele>20.8</ele>
        <time>2021-08-14T09:45:07Z</time>
      </trkpt>
      <trkpt lat="47.76946" lon="-3.56039">
        <ele>20</ele>
        <time>2021-08-14T09:45:08Z</time>
      </trkpt>
      <trkpt lat="47.7694" lon="-3.56031">
        <ele>18.8</ele>
        <time>2021-08-14T09:45:09Z</time>
      </trkpt>
      <trkpt lat="47.76934" lon="-3.56023">
        <ele>17.8</ele>
        <time>2021-08-14T09:45:10Z</time>
      </trkpt>
      <trkpt lat="47.76929" lon="-3.56016">
        <ele>17.6</ele>
        <time>2021-08-14T09:45:11Z</time>
      </trkpt>
      <trkpt lat="47.76923" lon="-3.56009">
        <ele>17.2</ele>
        <time>2021-08-14T09:45:12Z</time>
      </trkpt>
      <trkpt lat="47.76917" lon="-3.56003">
        <ele>16.8</ele>
        <time>2021-08-14T09:45:13Z</time>
      </trkpt>
      <trkpt lat="47.76911" lon="-3.55996">
        <ele>16.4</ele>
        <time>2021-08-14T09:45:14Z</time>
      </trkpt>
      <trkpt lat="47.76906" lon="-3.5599">
        <ele>16.4</ele>
        <time>2021-08-14T09:45:15Z</time>
      </trkpt>
      <trkpt lat="47.769" lon="-3.55983">
        <ele>16</ele>
        <time>2021-08-14T09:45:16Z</time>
      </trkpt>
      <trkpt lat="47.76894" lon="-3.55976">
        <ele>15.6</ele>
        <time>2021-08-14T09:45:17Z</time>
      </trkpt>
      <trkpt lat="47.76888" lon="-3.55968">
        <ele>15.2</ele>
        <time>2021-08-14T09:45:18Z</time>
      </trkpt>
      <trkpt lat="47.76882" lon="-3.55961">
        <ele>15</ele>
        <time>2021-08-14T09:45:19Z</time>
      </trkpt>
      <trkpt lat="47.76877" lon="-3.55954">
        <ele>15</ele>
        <time>2021-08-14T09:45:20Z</time>
      </trkpt>
      <trkpt lat="47.76871" lon="-3.55946">
        <ele>14.8</ele>
        <time>2021-08-14T09:45:21Z</time>
      </trkpt>
      <trkpt lat="47.76865" lon="-3.55939">
        <ele>14.8</ele>
        <time>2021-08-14T09:45:22Z</time>
      </trkpt>
      <trkpt lat="47.7686" lon="-3.55931">
        <ele>14.6</ele>
        <time>2021-08-14T09:45:23Z</time>
      </trkpt>
      <trkpt lat="47.76854" lon="-3.55924">
        <ele>14.4</ele>
        <time>2021-08-14T09:45:24Z</time>
      </trkpt>
      <trkpt lat="47.76848" lon="-3.55917">
        <ele>14.2</ele>
        <time>2021-08-14T09:45:25Z</time>
      </trkpt>
      <trkpt lat="47.76842" lon="-3.55909">
        <ele>14.2</ele>
        <time>2021-08-14T09:45:26Z</time>
      </trkpt>
      <trkpt lat="47.76837" lon="-3.55902">
        <ele>14</ele>
        <time>2021-08-14T09:45:27Z</time>
      </trkpt>
      <trkpt lat="47.76831" lon="-3.55896">
        <ele>14</ele>
        <time>2021-08-14T09:45:28Z</time>
      </trkpt>
      <trkpt lat="47.76826" lon="-3.55889">
        <ele>13.6</ele>
        <time>2021-08-14T09:45:29Z</time>
      </trkpt>
      <trkpt lat="47.76821" lon="-3.55882">
        <ele>13.4</ele>
        <time>2021-08-14T09:45:30Z</time>
      </trkpt>
      <trkpt lat="47.76817" lon="-3.55874">
        <ele>13</ele>
        <time>2021-08-14T09:45:31Z</time>
      </trkpt>
      <trkpt lat="47.76813" lon="-3.55866">
        <ele>12.6</ele>
        <time>2021-08-14T09:45:32Z</time>
      </trkpt>
      <trkpt lat="47.76809" lon="-3.55859">
        <ele>12.2</ele>
        <time>2021-08-14T09:45:33Z</time>
      </trkpt>
      <trkpt lat="47.76806" lon="-3.55851">
        <ele>12.2</ele>
        <time>2021-08-14T09:45:34Z</time>
      </trkpt>
      <trkpt lat="47.76802" lon="-3.55842">
        <ele>12</ele>
        <time>2021-08-14T09:45:35Z</time>
      </trkpt>
      <trkpt lat="47.76799" lon="-3.55834">
        <ele>11.4</ele>
        <time>2021-08-14T09:45:36Z</time>
      </trkpt>
      <trkpt lat="47.76796" lon="-3.55825">
        <ele>11.6</ele>
        <time>2021-08-14T09:45:37Z</time>
      </trkpt>
      <trkpt lat="47.76793" lon="-3.55817">
        <ele>11.4</ele>
        <time>2021-08-14T09:45:38Z</time>
      </trkpt>
      <trkpt lat="47.7679" lon="-3.55809">
        <ele>11.4</ele>
        <time>2021-08-14T09:45:39Z</time>
      </trkpt>
      <trkpt lat="47.76787" lon="-3.55802">
        <ele>11.2</ele>
        <time>2021-08-14T09:45:40Z</time>
      </trkpt>
      <trkpt lat="47.76784" lon="-3.55794">
        <ele>11.2</ele>
        <time>2021-08-14T09:45:41Z</time>
      </trkpt>
      <trkpt lat="47.7678" lon="-3.55786">
        <ele>11.2</ele>
        <time>2021-08-14T09:45:42Z</time>
      </trkpt>
      <trkpt lat="47.76778" lon="-3.55778">
        <ele>11.2</ele>
        <time>2021-08-14T09:45:43Z</time>
      </trkpt>
      <trkpt lat="47.76775" lon="-3.55769">
        <ele>11.2</ele>
        <time>2021-08-14T09:45:44Z</time>
      </trkpt>
      <trkpt lat="47.76772" lon="-3.55761">
        <ele>11.2</ele>
        <time>2021-08-14T09:45:45Z</time>
      </trkpt>
      <trkpt lat="47.76769" lon="-3.55752">
        <ele>11.2</ele>
        <time>2021-08-14T09:45:46Z</time>
      </trkpt>
      <trkpt lat="47.76766" lon="-3.55744">
        <ele>11.2</ele>
        <time>2021-08-14T09:45:47Z</time>
      </trkpt>
      <trkpt lat="47.76763" lon="-3.55736">
        <ele>11.2</ele>
        <time>2021-08-14T09:45:48Z</time>
      </trkpt>
      <trkpt lat="47.76759" lon="-3.55727">
        <ele>11.2</ele>
        <time>2021-08-14T09:45:49Z</time>
      </trkpt>
      <trkpt lat="47.76756" lon="-3.55718">
        <ele>10.6</ele>
        <time>2021-08-14T09:45:50Z</time>
      </trkpt>
      <trkpt lat="47.76752" lon="-3.55709">
        <ele>10.4</ele>
        <time>2021-08-14T09:45:51Z</time>
      </trkpt>
      <trkpt lat="47.76748" lon="-3.55699">
        <ele>10.2</ele>
        <time>2021-08-14T09:45:52Z</time>
      </trkpt>
      <trkpt lat="47.76744" lon="-3.5569">
        <ele>10</ele>
        <time>2021-08-14T09:45:53Z</time>
      </trkpt>
      <trkpt lat="47.7674" lon="-3.5568">
        <ele>10</ele>
        <time>2021-08-14T09:45:54Z</time>
      </trkpt>
      <trkpt lat="47.76735" lon="-3.5567">
        <ele>9.8</ele>
        <time>2021-08-14T09:45:55Z</time>
      </trkpt>
      <trkpt lat="47.76731" lon="-3.5566">
        <ele>9.6</ele>
        <time>2021-08-14T09:45:56Z</time>
      </trkpt>
      <trkpt lat="47.76726" lon="-3.5565">
        <ele>9.4</ele>
        <time>2021-08-14T09:45:57Z</time>
      </trkpt>
      <trkpt lat="47.76721" lon="-3.55641">
        <ele>9.4</ele>
        <time>2021-08-14T09:45:58Z</time>
      </trkpt>
      <trkpt lat="47.76717" lon="-3.5563">
        <ele>8.8</ele>
        <time>2021-08-14T09:45:59Z</time>
      </trkpt>
      <trkpt lat="47.76713" lon="-3.55619">
        <ele>8.6</ele>
        <time>2021-08-14T09:46:00Z</time>
      </trkpt>
      <trkpt lat="47.7671" lon="-3.55608">
        <ele>7.8</ele>
        <time>2021-08-14T09:46:01Z</time>
      </trkpt>
      <trkpt lat="47.76707" lon="-3.55597">
        <ele>7</ele>
        <time>2021-08-14T09:46:02Z</time>
      </trkpt>
      <trkpt lat="47.76703" lon="-3.55587">
        <ele>6</ele>
        <time>2021-08-14T09:46:03Z</time>
      </trkpt>
      <trkpt lat="47.767" lon="-3.55577">
        <ele>5.2</ele>
        <time>2021-08-14T09:46:04Z</time>
      </trkpt>
      <trkpt lat="47.76696" lon="-3.55567">
        <ele>3.8</ele>
        <time>2021-08-14T09:46:05Z</time>
      </trkpt>
      <trkpt lat="47.76693" lon="-3.55558">
        <ele>3.4</ele>
        <time>2021-08-14T09:46:06Z</time>
      </trkpt>
      <trkpt lat="47.76689" lon="-3.55548">
        <ele>3</ele>
        <time>2021-08-14T09:46:07Z</time>
      </trkpt>
      <trkpt lat="47.76685" lon="-3.55539">
        <ele>2.6</ele>
        <time>2021-08-14T09:46:08Z</time>
      </trkpt>
      <trkpt lat="47.76682" lon="-3.55531">
        <ele>2.2</ele>
        <time>2021-08-14T09:46:09Z</time>
      </trkpt>
      <trkpt lat="47.76679" lon="-3.55522">
        <ele>2</ele>
        <time>2021-08-14T09:46:10Z</time>
      </trkpt>
      <trkpt lat="47.76677" lon="-3.55514">
        <ele>2</ele>
        <time>2021-08-14T09:46:11Z</time>
      </trkpt>
      <trkpt lat="47.76674" lon="-3.55506">
        <ele>1.8</ele>
        <time>2021-08-14T09:46:12Z</time>
      </trkpt>
      <trkpt lat="47.76671" lon="-3.55498">
        <ele>1.8</ele>
        <time>2021-08-14T09:46:13Z</time>
      </trkpt>
      <trkpt lat="47.76669" lon="-3.55491">
        <ele>1.8</ele>
        <time>2021-08-14T09:46:14Z</time>
      </trkpt>
      <trkpt lat="47.76666" lon="-3.55483">
        <ele>1.8</ele>
        <time>2021-08-14T09:46:15Z</time>
      </trkpt>
      <trkpt lat="47.76664" lon="-3.55476">
        <ele>1.8</ele>
        <time>2021-08-14T09:46:16Z</time>
      </trkpt>
      <trkpt lat="47.76662" lon="-3.55469">
        <ele>1.8</ele>
        <time>2021-08-14T09:46:17Z</time>
      </trkpt>
      <trkpt lat="47.76661" lon="-3.55461">
        <ele>2</ele>
        <time>2021-08-14T09:46:18Z</time>
      </trkpt>
      <trkpt lat="47.7666" lon="-3.55454">
        <ele>2.2</ele>
        <time>2021-08-14T09:46:19Z</time>
      </trkpt>
      <trkpt lat="47.76659" lon="-3.55446">
        <ele>2.2</ele>
        <time>2021-08-14T09:46:20Z</time>
      </trkpt>
      <trkpt lat="47.76658" lon="-3.55439">
        <ele>2.4</ele>
        <time>2021-08-14T09:46:21Z</time>
      </trkpt>
      <trkpt lat="47.76658" lon="-3.55432">
        <ele>2.4</ele>
        <time>2021-08-14T09:46:22Z</time>
      </trkpt>
      <trkpt lat="47.76658" lon="-3.55424">
        <ele>2.6</ele>
        <time>2021-08-14T09:46:23Z</time>
      </trkpt>
      <trkpt lat="47.76657" lon="-3.55417">
        <ele>2.6</ele>
        <time>2021-08-14T09:46:24Z</time>
      </trkpt>
      <trkpt lat="47.76657" lon="-3.5541">
        <ele>2.8</ele>
        <time>2021-08-14T09:46:25Z</time>
      </trkpt>
      <trkpt lat="47.76657" lon="-3.55403">
        <ele>2.8</ele>
        <time>2021-08-14T09:46:26Z</time>
      </trkpt>
      <trkpt lat="47.76656" lon="-3.55396">
        <ele>3</ele>
        <time>2021-08-14T09:46:27Z</time>
      </trkpt>
      <trkpt lat="47.76656" lon="-3.55389">
        <ele>3.2</ele>
        <time>2021-08-14T09:46:28Z</time>
      </trkpt>
      <trkpt lat="47.76656" lon="-3.55383">
        <ele>3.2</ele>
        <time>2021-08-14T09:46:29Z</time>
      </trkpt>
      <trkpt lat="47.76655" lon="-3.55376">
        <ele>3.2</ele>
        <time>2021-08-14T09:46:30Z</time>
      </trkpt>
      <trkpt lat="47.76655" lon="-3.5537">
        <ele>3.4</ele>
        <time>2021-08-14T09:46:31Z</time>
      </trkpt>
      <trkpt lat="47.76655" lon="-3.55364">
        <ele>3.6</ele>
        <time>2021-08-14T09:46:32Z</time>
      </trkpt>
      <trkpt lat="47.76655" lon="-3.55357">
        <ele>3.8</ele>
        <time>2021-08-14T09:46:33Z</time>
      </trkpt>
      <trkpt lat="47.76654" lon="-3.55351">
        <ele>4</ele>
        <time>2021-08-14T09:46:34Z</time>
      </trkpt>
      <trkpt lat="47.76654" lon="-3.55345">
        <ele>4.2</ele>
        <time>2021-08-14T09:46:35Z</time>
      </trkpt>
      <trkpt lat="47.76654" lon="-3.55339">
        <ele>4.4</ele>
        <time>2021-08-14T09:46:36Z</time>
      </trkpt>
      <trkpt lat="47.76654" lon="-3.55333">
        <ele>4.8</ele>
        <time>2021-08-14T09:46:37Z</time>
      </trkpt>
      <trkpt lat="47.76654" lon="-3.55327">
        <ele>4.8</ele>
        <time>2021-08-14T09:46:38Z</time>
      </trkpt>
      <trkpt lat="47.76654" lon="-3.55321">
        <ele>5</ele>
        <time>2021-08-14T09:46:39Z</time>
      </trkpt>
      <trkpt lat="47.76654" lon="-3.55315">
        <ele>5.2</ele>
        <time>2021-08-14T09:46:40Z</time>
      </trkpt>
      <trkpt lat="47.76653" lon="-3.55308">
        <ele>5.2</ele>
        <time>2021-08-14T09:46:41Z</time>
      </trkpt>
      <trkpt lat="47.76653" lon="-3.55302">
        <ele>5.4</ele>
        <time>2021-08-14T09:46:42Z</time>
      </trkpt>
      <trkpt lat="47.76653" lon="-3.55296">
        <ele>5.4</ele>
        <time>2021-08-14T09:46:43Z</time>
      </trkpt>
      <trkpt lat="47.76653" lon="-3.55289">
        <ele>5.6</ele>
        <time>2021-08-14T09:46:44Z</time>
      </trkpt>
      <trkpt lat="47.76653" lon="-3.55283">
        <ele>5.6</ele>
        <time>2021-08-14T09:46:45Z</time>
      </trkpt>
      <trkpt lat="47.76652" lon="-3.55277">
        <ele>5.8</ele>
        <time>2021-08-14T09:46:46Z</time>
      </trkpt>
      <trkpt lat="47.76652" lon="-3.5527">
        <ele>5.8</ele>
        <time>2021-08-14T09:46:47Z</time>
      </trkpt>
      <trkpt lat="47.76652" lon="-3.55264">
        <ele>6</ele>
        <time>2021-08-14T09:46:48Z</time>
      </trkpt>
      <trkpt lat="47.76652" lon="-3.55258">
        <ele>6</ele>
        <time>2021-08-14T09:46:49Z</time>
      </trkpt>
      <trkpt lat="47.76652" lon="-3.55251">
        <ele>6</ele>
        <time>2021-08-14T09:46:50Z</time>
      </trkpt>
      <trkpt lat="47.76651" lon="-3.55245">
        <ele>6.2</ele>
        <time>2021-08-14T09:46:51Z</time>
      </trkpt>
      <trkpt lat="47.76651" lon="-3.55239">
        <ele>6.2</ele>
        <time>2021-08-14T09:46:52Z</time>
      </trkpt>
      <trkpt lat="47.76651" lon="-3.55232">
        <ele>6.4</ele>
        <time>2021-08-14T09:46:53Z</time>
      </trkpt>
      <trkpt lat="47.76651" lon="-3.55226">
        <ele>6.4</ele>
        <time>2021-08-14T09:46:54Z</time>
      </trkpt>
      <trkpt lat="47.76651" lon="-3.5522">
        <ele>6.6</ele>
        <time>2021-08-14T09:46:55Z</time>
      </trkpt>
      <trkpt lat="47.76651" lon="-3.55214">
        <ele>6.6</ele>
        <time>2021-08-14T09:46:56Z</time>
      </trkpt>
      <trkpt lat="47.76651" lon="-3.55208">
        <ele>6.6</ele>
        <time>2021-08-14T09:46:57Z</time>
      </trkpt>
      <trkpt lat="47.76651" lon="-3.55202">
        <ele>6.6</ele>
        <time>2021-08-14T09:46:58Z</time>
      </trkpt>
      <trkpt lat="47.7665" lon="-3.55196">
        <ele>6.8</ele>
        <time>2021-08-14T09:46:59Z</time>
      </trkpt>
      <trkpt lat="47.76651" lon="-3.5519">
        <ele>6.8</ele>
        <time>2021-08-14T09:47:00Z</time>
      </trkpt>
      <trkpt lat="47.76651" lon="-3.55183">
        <ele>7</ele>
        <time>2021-08-14T09:47:01Z</time>
      </trkpt>
      <trkpt lat="47.76651" lon="-3.55177">
        <ele>7</ele>
        <time>2021-08-14T09:47:02Z</time>
      </trkpt>
      <trkpt lat="47.7665" lon="-3.55171">
        <ele>7.2</ele>
        <time>2021-08-14T09:47:03Z</time>
      </trkpt>
      <trkpt lat="47.7665" lon="-3.55165">
        <ele>7.2</ele>
        <time>2021-08-14T09:47:04Z</time>
      </trkpt>
      <trkpt lat="47.7665" lon="-3.55159">
        <ele>7.2</ele>
        <time>2021-08-14T09:47:05Z</time>
      </trkpt>
      <trkpt lat="47.76649" lon="-3.55153">
        <ele>7.4</ele>
        <time>2021-08-14T09:47:06Z</time>
      </trkpt>
      <trkpt lat="47.76649" lon="-3.55147">
        <ele>7.4</ele>
        <time>2021-08-14T09:47:07Z</time>
      </trkpt>
      <trkpt lat="47.76649" lon="-3.55142">
        <ele>7.4</ele>
        <time>2021-08-14T09:47:08Z</time>
      </trkpt>
      <trkpt lat="47.76649" lon="-3.55136">
        <ele>7.6</ele>
        <time>2021-08-14T09:47:09Z</time>
      </trkpt>
      <trkpt lat="47.76649" lon="-3.55131">
        <ele>7.6</ele>
        <time>2021-08-14T09:47:10Z</time>
      </trkpt>
      <trkpt lat="47.76649" lon="-3.55126">
        <ele>7.8</ele>
        <time>2021-08-14T09:47:11Z</time>
      </trkpt>
      <trkpt lat="47.76649" lon="-3.55122">
        <ele>7.8</ele>
        <time>2021-08-14T09:47:12Z</time>
      </trkpt>
      <trkpt lat="47.76649" lon="-3.55117">
        <ele>8</ele>
        <time>2021-08-14T09:47:13Z</time>
      </trkpt>
      <trkpt lat="47.76649" lon="-3.55112">
        <ele>8.2</ele>
        <time>2021-08-14T09:47:14Z</time>
      </trkpt>
      <trkpt lat="47.76649" lon="-3.55107">
        <ele>8.4</ele>
        <time>2021-08-14T09:47:15Z</time>
      </trkpt>
      <trkpt lat="47.7665" lon="-3.55103">
        <ele>8.4</ele>
        <time>2021-08-14T09:47:16Z</time>
      </trkpt>
      <trkpt lat="47.7665" lon="-3.55098">
        <ele>8.6</ele>
        <time>2021-08-14T09:47:17Z</time>
      </trkpt>
      <trkpt lat="47.76649" lon="-3.55093">
        <ele>8.8</ele>
        <time>2021-08-14T09:47:18Z</time>
      </trkpt>
      <trkpt lat="47.76649" lon="-3.55088">
        <ele>8.8</ele>
        <time>2021-08-14T09:47:19Z</time>
      </trkpt>
      <trkpt lat="47.76649" lon="-3.55084">
        <ele>9</ele>
        <time>2021-08-14T09:47:20Z</time>
      </trkpt>
      <trkpt lat="47.76649" lon="-3.55079">
        <ele>9.2</ele>
        <time>2021-08-14T09:47:21Z</time>
      </trkpt>
      <trkpt lat="47.7665" lon="-3.55074">
        <ele>9.2</ele>
        <time>2021-08-14T09:47:22Z</time>
      </trkpt>
      <trkpt lat="47.7665" lon="-3.55069">
        <ele>9.4</ele>
        <time>2021-08-14T09:47:23Z</time>
      </trkpt>
      <trkpt lat="47.76651" lon="-3.55064">
        <ele>9.4</ele>
        <time>2021-08-14T09:47:24Z</time>
      </trkpt>
      <trkpt lat="47.76651" lon="-3.55059">
        <ele>9.6</ele>
        <time>2021-08-14T09:47:25Z</time>
      </trkpt>
      <trkpt lat="47.76651" lon="-3.55055">
        <ele>9.8</ele>
        <time>2021-08-14T09:47:26Z</time>
      </trkpt>
      <trkpt lat="47.76651" lon="-3.5505">
        <ele>10</ele>
        <time>2021-08-14T09:47:27Z</time>
      </trkpt>
      <trkpt lat="47.76651" lon="-3.55045">
        <ele>10</ele>
        <time>2021-08-14T09:47:28Z</time>
      </trkpt>
      <trkpt lat="47.76652" lon="-3.55041">
        <ele>10.2</ele>
        <time>2021-08-14T09:47:29Z</time>
      </trkpt>
      <trkpt lat="47.76652" lon="-3.55036">
        <ele>10.2</ele>
        <time>2021-08-14T09:47:30Z</time>
      </trkpt>
      <trkpt lat="47.76652" lon="-3.55032">
        <ele>10.2</ele>
        <time>2021-08-14T09:47:31Z</time>
      </trkpt>
      <trkpt lat="47.76652" lon="-3.55028">
        <ele>10.4</ele>
        <time>2021-08-14T09:47:32Z</time>
      </trkpt>
      <trkpt lat="47.76652" lon="-3.55023">
        <ele>10.4</ele>
        <time>2021-08-14T09:47:33Z</time>
      </trkpt>
      <trkpt lat="47.76652" lon="-3.55019">
        <ele>10.6</ele>
        <time>2021-08-14T09:47:34Z</time>
      </trkpt>
      <trkpt lat="47.76652" lon="-3.55015">
        <ele>11</ele>
        <time>2021-08-14T09:47:35Z</time>
      </trkpt>
      <trkpt lat="47.76652" lon="-3.5501">
        <ele>11</ele>
        <time>2021-08-14T09:47:36Z</time>
      </trkpt>
      <trkpt lat="47.76652" lon="-3.55006">
        <ele>11.2</ele>
        <time>2021-08-14T09:47:37Z</time>
      </trkpt>
      <trkpt lat="47.76653" lon="-3.55002">
        <ele>11.4</ele>
        <time>2021-08-14T09:47:38Z</time>
      </trkpt>
      <trkpt lat="47.76653" lon="-3.54997">
        <ele>11.4</ele>
        <time>2021-08-14T09:47:39Z</time>
      </trkpt>
      <trkpt lat="47.76653" lon="-3.54993">
        <ele>11.4</ele>
        <time>2021-08-14T09:47:40Z</time>
      </trkpt>
      <trkpt lat="47.76653" lon="-3.54989">
        <ele>11.6</ele>
        <time>2021-08-14T09:47:41Z</time>
      </trkpt>
      <trkpt lat="47.76653" lon="-3.54984">
        <ele>11.6</ele>
        <time>2021-08-14T09:47:42Z</time>
      </trkpt>
      <trkpt lat="47.76654" lon="-3.54979">
        <ele>11.6</ele>
        <time>2021-08-14T09:47:43Z</time>
      </trkpt>
      <trkpt lat="47.76655" lon="-3.54974">
        <ele>11.8</ele>
        <time>2021-08-14T09:47:44Z</time>
      </trkpt>
      <trkpt lat="47.76655" lon="-3.54969">
        <ele>11.8</ele>
        <time>2021-08-14T09:47:45Z</time>
      </trkpt>
      <trkpt lat="47.76655" lon="-3.54963">
        <ele>11.8</ele>
        <time>2021-08-14T09:47:46Z</time>
      </trkpt>
      <trkpt lat="47.76656" lon="-3.54958">
        <ele>11.8</ele>
        <time>2021-08-14T09:47:47Z</time>
      </trkpt>
      <trkpt lat="47.76656" lon="-3.54953">
        <ele>11.8</ele>
        <time>2021-08-14T09:47:48Z</time>
      </trkpt>
      <trkpt lat="47.76656" lon="-3.54947">
        <ele>11.8</ele>
        <time>2021-08-14T09:47:49Z</time>
      </trkpt>
      <trkpt lat="47.76656" lon="-3.54941">
        <ele>11.8</ele>
        <time>2021-08-14T09:47:50Z</time>
      </trkpt>
      <trkpt lat="47.76657" lon="-3.54935">
        <ele>11.8</ele>
        <time>2021-08-14T09:47:51Z</time>
      </trkpt>
      <trkpt lat="47.76657" lon="-3.54929">
        <ele>11.8</ele>
        <time>2021-08-14T09:47:52Z</time>
      </trkpt>
      <trkpt lat="47.76657" lon="-3.54922">
        <ele>11.8</ele>
        <time>2021-08-14T09:47:53Z</time>
      </trkpt>
      <trkpt lat="47.76657" lon="-3.54915">
        <ele>11.8</ele>
        <time>2021-08-14T09:47:54Z</time>
      </trkpt>
      <trkpt lat="47.76657" lon="-3.54908">
        <ele>11.8</ele>
        <time>2021-08-14T09:47:55Z</time>
      </trkpt>
      <trkpt lat="47.76657" lon="-3.54901">
        <ele>11.8</ele>
        <time>2021-08-14T09:47:56Z</time>
      </trkpt>
      <trkpt lat="47.76658" lon="-3.54894">
        <ele>11.8</ele>
        <time>2021-08-14T09:47:57Z</time>
      </trkpt>
      <trkpt lat="47.76658" lon="-3.54887">
        <ele>11.8</ele>
        <time>2021-08-14T09:47:58Z</time>
      </trkpt>
      <trkpt lat="47.76659" lon="-3.5488">
        <ele>11.6</ele>
        <time>2021-08-14T09:47:59Z</time>
      </trkpt>
      <trkpt lat="47.7666" lon="-3.54873">
        <ele>11.2</ele>
        <time>2021-08-14T09:48:00Z</time>
      </trkpt>
      <trkpt lat="47.7666" lon="-3.54866">
        <ele>11</ele>
        <time>2021-08-14T09:48:01Z</time>
      </trkpt>
      <trkpt lat="47.76661" lon="-3.54859">
        <ele>10.8</ele>
        <time>2021-08-14T09:48:02Z</time>
      </trkpt>
      <trkpt lat="47.76661" lon="-3.54852">
        <ele>10.8</ele>
        <time>2021-08-14T09:48:03Z</time>
      </trkpt>
      <trkpt lat="47.76661" lon="-3.54845">
        <ele>10.6</ele>
        <time>2021-08-14T09:48:04Z</time>
      </trkpt>
      <trkpt lat="47.76661" lon="-3.54838">
        <ele>10.6</ele>
        <time>2021-08-14T09:48:05Z</time>
      </trkpt>
      <trkpt lat="47.7666" lon="-3.54831">
        <ele>10.6</ele>
        <time>2021-08-14T09:48:06Z</time>
      </trkpt>
      <trkpt lat="47.7666" lon="-3.54824">
        <ele>10.6</ele>
        <time>2021-08-14T09:48:07Z</time>
      </trkpt>
      <trkpt lat="47.76659" lon="-3.54817">
        <ele>10.6</ele>
        <time>2021-08-14T09:48:08Z</time>
      </trkpt>
      <trkpt lat="47.76659" lon="-3.5481">
        <ele>10.6</ele>
        <time>2021-08-14T09:48:09Z</time>
      </trkpt>
      <trkpt lat="47.76658" lon="-3.54804">
        <ele>10.6</ele>
        <time>2021-08-14T09:48:10Z</time>
      </trkpt>
      <trkpt lat="47.76658" lon="-3.54798">
        <ele>10.6</ele>
        <time>2021-08-14T09:48:11Z</time>
      </trkpt>
      <trkpt lat="47.76657" lon="-3.54791">
        <ele>10.4</ele>
        <time>2021-08-14T09:48:12Z</time>
      </trkpt>
      <trkpt lat="47.76657" lon="-3.54786">
        <ele>10.4</ele>
        <time>2021-08-14T09:48:13Z</time>
      </trkpt>
      <trkpt lat="47.76656" lon="-3.5478">
        <ele>10.4</ele>
        <time>2021-08-14T09:48:14Z</time>
      </trkpt>
      <trkpt lat="47.76655" lon="-3.54774">
        <ele>10.4</ele>
        <time>2021-08-14T09:48:15Z</time>
      </trkpt>
      <trkpt lat="47.76655" lon="-3.54769">
        <ele>10.6</ele>
        <time>2021-08-14T09:48:16Z</time>
      </trkpt>
      <trkpt lat="47.76654" lon="-3.54763">
        <ele>10.6</ele>
        <time>2021-08-14T09:48:17Z</time>
      </trkpt>
      <trkpt lat="47.76654" lon="-3.54758">
        <ele>10.6</ele>
        <time>2021-08-14T09:48:18Z</time>
      </trkpt>
      <trkpt lat="47.76654" lon="-3.54753">
        <ele>10.6</ele>
        <time>2021-08-14T09:48:19Z</time>
      </trkpt>
      <trkpt lat="47.76655" lon="-3.54748">
        <ele>10.6</ele>
        <time>2021-08-14T09:48:20Z</time>
      </trkpt>
      <trkpt lat="47.76655" lon="-3.54743">
        <ele>10.6</ele>
        <time>2021-08-14T09:48:21Z</time>
      </trkpt>
      <trkpt lat="47.76656" lon="-3.54739">
        <ele>10.6</ele>
        <time>2021-08-14T09:48:22Z</time>
      </trkpt>
      <trkpt lat="47.76658" lon="-3.54734">
        <ele>10.8</ele>
        <time>2021-08-14T09:48:23Z</time>
      </trkpt>
      <trkpt lat="47.7666" lon="-3.5473">
        <ele>10.8</ele>
        <time>2021-08-14T09:48:24Z</time>
      </trkpt>
      <trkpt lat="47.76661" lon="-3.54725">
        <ele>11</ele>
        <time>2021-08-14T09:48:25Z</time>
      </trkpt>
      <trkpt lat="47.76663" lon="-3.54721">
        <ele>11.4</ele>
        <time>2021-08-14T09:48:26Z</time>
      </trkpt>
      <trkpt lat="47.76664" lon="-3.54716">
        <ele>11.6</ele>
        <time>2021-08-14T09:48:27Z</time>
      </trkpt>
      <trkpt lat="47.76666" lon="-3.54712">
        <ele>11.6</ele>
        <time>2021-08-14T09:48:28Z</time>
      </trkpt>
      <trkpt lat="47.76668" lon="-3.54708">
        <ele>12</ele>
        <time>2021-08-14T09:48:29Z</time>
      </trkpt>
      <trkpt lat="47.7667" lon="-3.54704">
        <ele>12.4</ele>
        <time>2021-08-14T09:48:30Z</time>
      </trkpt>
      <trkpt lat="47.76672" lon="-3.54699">
        <ele>12.6</ele>
        <time>2021-08-14T09:48:31Z</time>
      </trkpt>
      <trkpt lat="47.76673" lon="-3.54695">
        <ele>12.8</ele>
        <time>2021-08-14T09:48:32Z</time>
      </trkpt>
      <trkpt lat="47.76673" lon="-3.5469">
        <ele>13</ele>
        <time>2021-08-14T09:48:33Z</time>
      </trkpt>
      <trkpt lat="47.76671" lon="-3.54685">
        <ele>13</ele>
        <time>2021-08-14T09:48:34Z</time>
      </trkpt>
      <trkpt lat="47.76669" lon="-3.54681">
        <ele>13.2</ele>
        <time>2021-08-14T09:48:35Z</time>
      </trkpt>
      <trkpt lat="47.76667" lon="-3.54677">
        <ele>13.4</ele>
        <time>2021-08-14T09:48:36Z</time>
      </trkpt>
      <trkpt lat="47.76666" lon="-3.54674">
        <ele>13.4</ele>
        <time>2021-08-14T09:48:37Z</time>
      </trkpt>
      <trkpt lat="47.76664" lon="-3.5467">
        <ele>13.6</ele>
        <time>2021-08-14T09:48:38Z</time>
      </trkpt>
      <trkpt lat="47.76663" lon="-3.54667">
        <ele>13.6</ele>
        <time>2021-08-14T09:48:39Z</time>
      </trkpt>
      <trkpt lat="47.76662" lon="-3.54664">
        <ele>13.8</ele>
        <time>2021-08-14T09:48:40Z</time>
      </trkpt>
      <trkpt lat="47.76661" lon="-3.54662">
        <ele>13.8</ele>
        <time>2021-08-14T09:48:41Z</time>
      </trkpt>
      <trkpt lat="47.7666" lon="-3.54659">
        <ele>14</ele>
        <time>2021-08-14T09:48:42Z</time>
      </trkpt>
      <trkpt lat="47.76658" lon="-3.54656">
        <ele>14</ele>
        <time>2021-08-14T09:48:43Z</time>
      </trkpt>
      <trkpt lat="47.76657" lon="-3.54653">
        <ele>14</ele>
        <time>2021-08-14T09:48:44Z</time>
      </trkpt>
      <trkpt lat="47.76656" lon="-3.5465">
        <ele>14.2</ele>
        <time>2021-08-14T09:48:45Z</time>
      </trkpt>
      <trkpt lat="47.76655" lon="-3.54647">
        <ele>14.2</ele>
        <time>2021-08-14T09:48:46Z</time>
      </trkpt>
      <trkpt lat="47.76653" lon="-3.54645">
        <ele>14.2</ele>
        <time>2021-08-14T09:48:47Z</time>
      </trkpt>
      <trkpt lat="47.76652" lon="-3.54642">
        <ele>14.4</ele>
        <time>2021-08-14T09:48:48Z</time>
      </trkpt>
      <trkpt lat="47.7665" lon="-3.54639">
        <ele>14.6</ele>
        <time>2021-08-14T09:48:49Z</time>
      </trkpt>
      <trkpt lat="47.76649" lon="-3.54635">
        <ele>14.6</ele>
        <time>2021-08-14T09:48:50Z</time>
      </trkpt>
      <trkpt lat="47.76647" lon="-3.54631">
        <ele>14.8</ele>
        <time>2021-08-14T09:48:51Z</time>
      </trkpt>
      <trkpt lat="47.76645" lon="-3.54627">
        <ele>14.8</ele>
        <time>2021-08-14T09:48:52Z</time>
      </trkpt>
      <trkpt lat="47.76643" lon="-3.54623">
        <ele>14.8</ele>
        <time>2021-08-14T09:48:53Z</time>
      </trkpt>
      <trkpt lat="47.76641" lon="-3.54619">
        <ele>15</ele>
        <time>2021-08-14T09:48:54Z</time>
      </trkpt>
      <trkpt lat="47.76639" lon="-3.54614">
        <ele>15.2</ele>
        <time>2021-08-14T09:48:55Z</time>
      </trkpt>
      <trkpt lat="47.76636" lon="-3.54609">
        <ele>15.2</ele>
        <time>2021-08-14T09:48:56Z</time>
      </trkpt>
      <trkpt lat="47.76635" lon="-3.54605">
        <ele>15.2</ele>
        <time>2021-08-14T09:48:57Z</time>
      </trkpt>
      <trkpt lat="47.76633" lon="-3.546">
        <ele>15.2</ele>
        <time>2021-08-14T09:48:58Z</time>
      </trkpt>
      <trkpt lat="47.76631" lon="-3.54595">
        <ele>15.2</ele>
        <time>2021-08-14T09:48:59Z</time>
      </trkpt>
      <trkpt lat="47.76629" lon="-3.5459">
        <ele>15.2</ele>
        <time>2021-08-14T09:49:00Z</time>
      </trkpt>
      <trkpt lat="47.76627" lon="-3.54585">
        <ele>15.2</ele>
        <time>2021-08-14T09:49:01Z</time>
      </trkpt>
      <trkpt lat="47.76626" lon="-3.5458">
        <ele>15.2</ele>
        <time>2021-08-14T09:49:02Z</time>
      </trkpt>
      <trkpt lat="47.76624" lon="-3.54576">
        <ele>15.2</ele>
        <time>2021-08-14T09:49:03Z</time>
      </trkpt>
      <trkpt lat="47.76622" lon="-3.54571">
        <ele>15.2</ele>
        <time>2021-08-14T09:49:04Z</time>
      </trkpt>
      <trkpt lat="47.7662" lon="-3.54567">
        <ele>15.2</ele>
        <time>2021-08-14T09:49:05Z</time>
      </trkpt>
      <trkpt lat="47.76618" lon="-3.54562">
        <ele>15</ele>
        <time>2021-08-14T09:49:06Z</time>
      </trkpt>
      <trkpt lat="47.76616" lon="-3.54557">
        <ele>15</ele>
        <time>2021-08-14T09:49:07Z</time>
      </trkpt>
      <trkpt lat="47.76615" lon="-3.54552">
        <ele>14.8</ele>
        <time>2021-08-14T09:49:08Z</time>
      </trkpt>
      <trkpt lat="47.76612" lon="-3.54547">
        <ele>14.8</ele>
        <time>2021-08-14T09:49:09Z</time>
      </trkpt>
      <trkpt lat="47.76609" lon="-3.54542">
        <ele>14.8</ele>
        <time>2021-08-14T09:49:10Z</time>
      </trkpt>
      <trkpt lat="47.76606" lon="-3.54537">
        <ele>14.8</ele>
        <time>2021-08-14T09:49:11Z</time>
      </trkpt>
      <trkpt lat="47.76602" lon="-3.54532">
        <ele>14.8</ele>
        <time>2021-08-14T09:49:12Z</time>
      </trkpt>
      <trkpt lat="47.76598" lon="-3.54528">
        <ele>14.6</ele>
        <time>2021-08-14T09:49:13Z</time>
      </trkpt>
      <trkpt lat="47.76593" lon="-3.54522">
        <ele>14.6</ele>
        <time>2021-08-14T09:49:14Z</time>
      </trkpt>
      <trkpt lat="47.76589" lon="-3.54517">
        <ele>14.6</ele>
        <time>2021-08-14T09:49:15Z</time>
      </trkpt>
      <trkpt lat="47.76584" lon="-3.54512">
        <ele>14.6</ele>
        <time>2021-08-14T09:49:16Z</time>
      </trkpt>
      <trkpt lat="47.76579" lon="-3.54507">
        <ele>14.4</ele>
        <time>2021-08-14T09:49:17Z</time>
      </trkpt>
      <trkpt lat="47.76574" lon="-3.54502">
        <ele>14.2</ele>
        <time>2021-08-14T09:49:18Z</time>
      </trkpt>
      <trkpt lat="47.76569" lon="-3.54496">
        <ele>14</ele>
        <time>2021-08-14T09:49:19Z</time>
      </trkpt>
      <trkpt lat="47.76564" lon="-3.54491">
        <ele>13.6</ele>
        <time>2021-08-14T09:49:20Z</time>
      </trkpt>
      <trkpt lat="47.7656" lon="-3.54485">
        <ele>13</ele>
        <time>2021-08-14T09:49:21Z</time>
      </trkpt>
      <trkpt lat="47.76556" lon="-3.54481">
        <ele>12.4</ele>
        <time>2021-08-14T09:49:22Z</time>
      </trkpt>
      <trkpt lat="47.76552" lon="-3.54476">
        <ele>11.8</ele>
        <time>2021-08-14T09:49:23Z</time>
      </trkpt>
      <trkpt lat="47.76551" lon="-3.54472">
        <ele>11.4</ele>
        <time>2021-08-14T09:49:24Z</time>
      </trkpt>
      <trkpt lat="47.76551" lon="-3.54467">
        <ele>11</ele>
        <time>2021-08-14T09:49:25Z</time>
      </trkpt>
      <trkpt lat="47.76552" lon="-3.54462">
        <ele>10.6</ele>
        <time>2021-08-14T09:49:26Z</time>
      </trkpt>
      <trkpt lat="47.76554" lon="-3.54458">
        <ele>10</ele>
        <time>2021-08-14T09:49:27Z</time>
      </trkpt>
      <trkpt lat="47.76557" lon="-3.54454">
        <ele>9.6</ele>
        <time>2021-08-14T09:49:28Z</time>
      </trkpt>
      <trkpt lat="47.76559" lon="-3.5445">
        <ele>9.4</ele>
        <time>2021-08-14T09:49:29Z</time>
      </trkpt>
      <trkpt lat="47.76562" lon="-3.54446">
        <ele>9.4</ele>
        <time>2021-08-14T09:49:30Z</time>
      </trkpt>
      <trkpt lat="47.76564" lon="-3.54442">
        <ele>9.4</ele>
        <time>2021-08-14T09:49:31Z</time>
      </trkpt>
      <trkpt lat="47.76567" lon="-3.54438">
        <ele>9.4</ele>
        <time>2021-08-14T09:49:32Z</time>
      </trkpt>
      <trkpt lat="47.76569" lon="-3.54434">
        <ele>9.4</ele>
        <time>2021-08-14T09:49:33Z</time>
      </trkpt>
      <trkpt lat="47.76572" lon="-3.54431">
        <ele>9.4</ele>
        <time>2021-08-14T09:49:34Z</time>
      </trkpt>
      <trkpt lat="47.76574" lon="-3.54428">
        <ele>9.4</ele>
        <time>2021-08-14T09:49:35Z</time>
      </trkpt>
      <trkpt lat="47.76576" lon="-3.54425">
        <ele>9.4</ele>
        <time>2021-08-14T09:49:36Z</time>
      </trkpt>
      <trkpt lat="47.76578" lon="-3.54422">
        <ele>9.4</ele>
        <time>2021-08-14T09:49:37Z</time>
      </trkpt>
      <trkpt lat="47.7658" lon="-3.54419">
        <ele>9.4</ele>
        <time>2021-08-14T09:49:38Z</time>
      </trkpt>
      <trkpt lat="47.76582" lon="-3.54415">
        <ele>9.6</ele>
        <time>2021-08-14T09:49:39Z</time>
      </trkpt>
      <trkpt lat="47.76583" lon="-3.54412">
        <ele>9.6</ele>
        <time>2021-08-14T09:49:40Z</time>
      </trkpt>
      <trkpt lat="47.76585" lon="-3.54408">
        <ele>9.8</ele>
        <time>2021-08-14T09:49:41Z</time>
      </trkpt>
      <trkpt lat="47.76587" lon="-3.54405">
        <ele>10</ele>
        <time>2021-08-14T09:49:42Z</time>
      </trkpt>
      <trkpt lat="47.76589" lon="-3.54401">
        <ele>10</ele>
        <time>2021-08-14T09:49:43Z</time>
      </trkpt>
      <trkpt lat="47.76591" lon="-3.54398">
        <ele>10.4</ele>
        <time>2021-08-14T09:49:44Z</time>
      </trkpt>
      <trkpt lat="47.76593" lon="-3.54395">
        <ele>10.4</ele>
        <time>2021-08-14T09:49:45Z</time>
      </trkpt>
      <trkpt lat="47.76595" lon="-3.54391">
        <ele>10.6</ele>
        <time>2021-08-14T09:49:46Z</time>
      </trkpt>
      <trkpt lat="47.76597" lon="-3.54389">
        <ele>10.6</ele>
        <time>2021-08-14T09:49:47Z</time>
      </trkpt>
      <trkpt lat="47.766" lon="-3.54386">
        <ele>10.8</ele>
        <time>2021-08-14T09:49:48Z</time>
      </trkpt>
      <trkpt lat="47.76602" lon="-3.54383">
        <ele>10.8</ele>
        <time>2021-08-14T09:49:49Z</time>
      </trkpt>
      <trkpt lat="47.76604" lon="-3.5438">
        <ele>11</ele>
        <time>2021-08-14T09:49:50Z</time>
      </trkpt>
      <trkpt lat="47.76607" lon="-3.54377">
        <ele>11</ele>
        <time>2021-08-14T09:49:51Z</time>
      </trkpt>
      <trkpt lat="47.76609" lon="-3.54375">
        <ele>11.2</ele>
        <time>2021-08-14T09:49:52Z</time>
      </trkpt>
      <trkpt lat="47.76612" lon="-3.54372">
        <ele>11.2</ele>
        <time>2021-08-14T09:49:53Z</time>
      </trkpt>
      <trkpt lat="47.76614" lon="-3.5437">
        <ele>11.4</ele>
        <time>2021-08-14T09:49:54Z</time>
      </trkpt>
      <trkpt lat="47.76616" lon="-3.54368">
        <ele>11.6</ele>
        <time>2021-08-14T09:49:55Z</time>
      </trkpt>
      <trkpt lat="47.76617" lon="-3.54366">
        <ele>11.8</ele>
        <time>2021-08-14T09:49:56Z</time>
      </trkpt>
      <trkpt lat="47.76619" lon="-3.54364">
        <ele>12.2</ele>
        <time>2021-08-14T09:49:57Z</time>
      </trkpt>
      <trkpt lat="47.7662" lon="-3.54362">
        <ele>12.4</ele>
        <time>2021-08-14T09:49:58Z</time>
      </trkpt>
      <trkpt lat="47.76622" lon="-3.5436">
        <ele>12.4</ele>
        <time>2021-08-14T09:49:59Z</time>
      </trkpt>
      <trkpt lat="47.76623" lon="-3.54358">
        <ele>12.8</ele>
        <time>2021-08-14T09:50:00Z</time>
      </trkpt>
      <trkpt lat="47.76624" lon="-3.54356">
        <ele>13</ele>
        <time>2021-08-14T09:50:01Z</time>
      </trkpt>
      <trkpt lat="47.76625" lon="-3.54353">
        <ele>13.2</ele>
        <time>2021-08-14T09:50:02Z</time>
      </trkpt>
      <trkpt lat="47.76626" lon="-3.54351">
        <ele>13.4</ele>
        <time>2021-08-14T09:50:03Z</time>
      </trkpt>
      <trkpt lat="47.76626" lon="-3.54349">
        <ele>13.8</ele>
        <time>2021-08-14T09:50:04Z</time>
      </trkpt>
      <trkpt lat="47.76627" lon="-3.54347">
        <ele>14</ele>
        <time>2021-08-14T09:50:05Z</time>
      </trkpt>
      <trkpt lat="47.76628" lon="-3.54344">
        <ele>14.2</ele>
        <time>2021-08-14T09:50:06Z</time>
      </trkpt>
      <trkpt lat="47.7663" lon="-3.54341">
        <ele>14.2</ele>
        <time>2021-08-14T09:50:07Z</time>
      </trkpt>
      <trkpt lat="47.76631" lon="-3.54338">
        <ele>14.4</ele>
        <time>2021-08-14T09:50:08Z</time>
      </trkpt>
      <trkpt lat="47.76633" lon="-3.54334">
        <ele>14.4</ele>
        <time>2021-08-14T09:50:09Z</time>
      </trkpt>
      <trkpt lat="47.76635" lon="-3.5433">
        <ele>14.6</ele>
        <time>2021-08-14T09:50:10Z</time>
      </trkpt>
      <trkpt lat="47.76637" lon="-3.54326">
        <ele>14.6</ele>
        <time>2021-08-14T09:50:11Z</time>
      </trkpt>
      <trkpt lat="47.76639" lon="-3.54322">
        <ele>14.8</ele>
        <time>2021-08-14T09:50:12Z</time>
      </trkpt>
      <trkpt lat="47.76641" lon="-3.54317">
        <ele>15</ele>
        <time>2021-08-14T09:50:13Z</time>
      </trkpt>
      <trkpt lat="47.76643" lon="-3.54314">
        <ele>15.2</ele>
        <time>2021-08-14T09:50:14Z</time>
      </trkpt>
      <trkpt lat="47.76644" lon="-3.5431">
        <ele>15.2</ele>
        <time>2021-08-14T09:50:15Z</time>
      </trkpt>
      <trkpt lat="47.76645" lon="-3.54306">
        <ele>15.4</ele>
        <time>2021-08-14T09:50:16Z</time>
      </trkpt>
      <trkpt lat="47.76646" lon="-3.54302">
        <ele>15.4</ele>
        <time>2021-08-14T09:50:17Z</time>
      </trkpt>
      <trkpt lat="47.76647" lon="-3.54299">
        <ele>15.6</ele>
        <time>2021-08-14T09:50:18Z</time>
      </trkpt>
      <trkpt lat="47.76648" lon="-3.54296">
        <ele>15.6</ele>
        <time>2021-08-14T09:50:19Z</time>
      </trkpt>
      <trkpt lat="47.7665" lon="-3.54293">
        <ele>15.6</ele>
        <time>2021-08-14T09:50:20Z</time>
      </trkpt>
      <trkpt lat="47.76651" lon="-3.5429">
        <ele>15.8</ele>
        <time>2021-08-14T09:50:21Z</time>
      </trkpt>
      <trkpt lat="47.76652" lon="-3.54287">
        <ele>16</ele>
        <time>2021-08-14T09:50:22Z</time>
      </trkpt>
      <trkpt lat="47.76653" lon="-3.54284">
        <ele>16.4</ele>
        <time>2021-08-14T09:50:23Z</time>
      </trkpt>
      <trkpt lat="47.76655" lon="-3.54281">
        <ele>16.6</ele>
        <time>2021-08-14T09:50:24Z</time>
      </trkpt>
      <trkpt lat="47.76656" lon="-3.54278">
        <ele>16.8</ele>
        <time>2021-08-14T09:50:25Z</time>
      </trkpt>
      <trkpt lat="47.76657" lon="-3.54275">
        <ele>17.2</ele>
        <time>2021-08-14T09:50:26Z</time>
      </trkpt>
      <trkpt lat="47.76658" lon="-3.54272">
        <ele>17.4</ele>
        <time>2021-08-14T09:50:27Z</time>
      </trkpt>
      <trkpt lat="47.76659" lon="-3.54269">
        <ele>17.4</ele>
        <time>2021-08-14T09:50:28Z</time>
      </trkpt>
      <trkpt lat="47.7666" lon="-3.54266">
        <ele>17.6</ele>
        <time>2021-08-14T09:50:29Z</time>
      </trkpt>
      <trkpt lat="47.76661" lon="-3.54263">
        <ele>18</ele>
        <time>2021-08-14T09:50:30Z</time>
      </trkpt>
      <trkpt lat="47.76662" lon="-3.54259">
        <ele>18.2</ele>
        <time>2021-08-14T09:50:31Z</time>
      </trkpt>
      <trkpt lat="47.76662" lon="-3.54255">
        <ele>18.4</ele>
        <time>2021-08-14T09:50:32Z</time>
      </trkpt>
      <trkpt lat="47.76663" lon="-3.54251">
        <ele>18.6</ele>
        <time>2021-08-14T09:50:33Z</time>
      </trkpt>
      <trkpt lat="47.76664" lon="-3.54247">
        <ele>18.8</ele>
        <time>2021-08-14T09:50:34Z</time>
      </trkpt>
      <trkpt lat="47.76666" lon="-3.54244">
        <ele>19</ele>
        <time>2021-08-14T09:50:35Z</time>
      </trkpt>
      <trkpt lat="47.76667" lon="-3.54241">
        <ele>19.2</ele>
        <time>2021-08-14T09:50:36Z</time>
      </trkpt>
      <trkpt lat="47.76668" lon="-3.54238">
        <ele>19.2</ele>
        <time>2021-08-14T09:50:37Z</time>
      </trkpt>
      <trkpt lat="47.76669" lon="-3.54235">
        <ele>19.4</ele>
        <time>2021-08-14T09:50:38Z</time>
      </trkpt>
      <trkpt lat="47.7667" lon="-3.54232">
        <ele>19.4</ele>
        <time>2021-08-14T09:50:39Z</time>
      </trkpt>
      <trkpt lat="47.76671" lon="-3.54229">
        <ele>19.6</ele>
        <time>2021-08-14T09:50:40Z</time>
      </trkpt>
      <trkpt lat="47.76672" lon="-3.54227">
        <ele>19.6</ele>
        <time>2021-08-14T09:50:41Z</time>
      </trkpt>
      <trkpt lat="47.76674" lon="-3.54225">
        <ele>19.8</ele>
        <time>2021-08-14T09:50:42Z</time>
      </trkpt>
      <trkpt lat="47.76675" lon="-3.54222">
        <ele>20</ele>
        <time>2021-08-14T09:50:43Z</time>
      </trkpt>
      <trkpt lat="47.76676" lon="-3.5422">
        <ele>20</ele>
        <time>2021-08-14T09:50:44Z</time>
      </trkpt>
      <trkpt lat="47.76676" lon="-3.54217">
        <ele>20.2</ele>
        <time>2021-08-14T09:50:45Z</time>
      </trkpt>
      <trkpt lat="47.76677" lon="-3.54215">
        <ele>20.4</ele>
        <time>2021-08-14T09:50:46Z</time>
      </trkpt>
      <trkpt lat="47.76678" lon="-3.54212">
        <ele>20.6</ele>
        <time>2021-08-14T09:50:47Z</time>
      </trkpt>
      <trkpt lat="47.76679" lon="-3.5421">
        <ele>20.8</ele>
        <time>2021-08-14T09:50:48Z</time>
      </trkpt>
      <trkpt lat="47.7668" lon="-3.54207">
        <ele>21</ele>
        <time>2021-08-14T09:50:49Z</time>
      </trkpt>
      <trkpt lat="47.76681" lon="-3.54205">
        <ele>21.2</ele>
        <time>2021-08-14T09:50:50Z</time>
      </trkpt>
      <trkpt lat="47.76682" lon="-3.54203">
        <ele>21.4</ele>
        <time>2021-08-14T09:50:51Z</time>
      </trkpt>
      <trkpt lat="47.76683" lon="-3.54202">
        <ele>21.6</ele>
        <time>2021-08-14T09:50:52Z</time>
      </trkpt>
      <trkpt lat="47.76684" lon="-3.542">
        <ele>21.6</ele>
        <time>2021-08-14T09:50:53Z</time>
      </trkpt>
      <trkpt lat="47.76685" lon="-3.54198">
        <ele>21.8</ele>
        <time>2021-08-14T09:50:54Z</time>
      </trkpt>
      <trkpt lat="47.76685" lon="-3.54196">
        <ele>21.8</ele>
        <time>2021-08-14T09:50:55Z</time>
      </trkpt>
      <trkpt lat="47.76686" lon="-3.54193">
        <ele>22</ele>
        <time>2021-08-14T09:50:56Z</time>
      </trkpt>
      <trkpt lat="47.76687" lon="-3.54191">
        <ele>22</ele>
        <time>2021-08-14T09:50:57Z</time>
      </trkpt>
      <trkpt lat="47.76688" lon="-3.54189">
        <ele>22</ele>
        <time>2021-08-14T09:50:58Z</time>
      </trkpt>
      <trkpt lat="47.76689" lon="-3.54186">
        <ele>22.2</ele>
        <time>2021-08-14T09:50:59Z</time>
      </trkpt>
      <trkpt lat="47.7669" lon="-3.54184">
        <ele>22.4</ele>
        <time>2021-08-14T09:51:00Z</time>
      </trkpt>
      <trkpt lat="47.76691" lon="-3.54182">
        <ele>22.4</ele>
        <time>2021-08-14T09:51:01Z</time>
      </trkpt>
      <trkpt lat="47.76692" lon="-3.54179">
        <ele>22.6</ele>
        <time>2021-08-14T09:51:02Z</time>
      </trkpt>
      <trkpt lat="47.76693" lon="-3.54177">
        <ele>22.8</ele>
        <time>2021-08-14T09:51:03Z</time>
      </trkpt>
      <trkpt lat="47.76694" lon="-3.54175">
        <ele>22.8</ele>
        <time>2021-08-14T09:51:04Z</time>
      </trkpt>
      <trkpt lat="47.76695" lon="-3.54173">
        <ele>22.8</ele>
        <time>2021-08-14T09:51:05Z</time>
      </trkpt>
      <trkpt lat="47.76696" lon="-3.54171">
        <ele>23</ele>
        <time>2021-08-14T09:51:06Z</time>
      </trkpt>
      <trkpt lat="47.76697" lon="-3.54169">
        <ele>23</ele>
        <time>2021-08-14T09:51:07Z</time>
      </trkpt>
      <trkpt lat="47.76698" lon="-3.54166">
        <ele>23</ele>
        <time>2021-08-14T09:51:08Z</time>
      </trkpt>
      <trkpt lat="47.76698" lon="-3.54164">
        <ele>23.2</ele>
        <time>2021-08-14T09:51:09Z</time>
      </trkpt>
      <trkpt lat="47.76699" lon="-3.54162">
        <ele>23.2</ele>
        <time>2021-08-14T09:51:10Z</time>
      </trkpt>
      <trkpt lat="47.767" lon="-3.5416">
        <ele>23.2</ele>
        <time>2021-08-14T09:51:11Z</time>
      </trkpt>
      <trkpt lat="47.76701" lon="-3.54158">
        <ele>23.2</ele>
        <time>2021-08-14T09:51:12Z</time>
      </trkpt>
      <trkpt lat="47.76702" lon="-3.54156">
        <ele>23.4</ele>
        <time>2021-08-14T09:51:13Z</time>
      </trkpt>
      <trkpt lat="47.76703" lon="-3.54154">
        <ele>23.4</ele>
        <time>2021-08-14T09:51:14Z</time>
      </trkpt>
      <trkpt lat="47.76704" lon="-3.54152">
        <ele>23.4</ele>
        <time>2021-08-14T09:51:15Z</time>
      </trkpt>
      <trkpt lat="47.76706" lon="-3.5415">
        <ele>23.4</ele>
        <time>2021-08-14T09:51:16Z</time>
      </trkpt>
      <trkpt lat="47.76707" lon="-3.54148">
        <ele>23.6</ele>
        <time>2021-08-14T09:51:17Z</time>
      </trkpt>
      <trkpt lat="47.76708" lon="-3.54145">
        <ele>23.6</ele>
        <time>2021-08-14T09:51:18Z</time>
      </trkpt>
      <trkpt lat="47.7671" lon="-3.54143">
        <ele>23.6</ele>
        <time>2021-08-14T09:51:19Z</time>
      </trkpt>
      <trkpt lat="47.76711" lon="-3.5414">
        <ele>23.8</ele>
        <time>2021-08-14T09:51:20Z</time>
      </trkpt>
      <trkpt lat="47.76713" lon="-3.54137">
        <ele>23.8</ele>
        <time>2021-08-14T09:51:21Z</time>
      </trkpt>
      <trkpt lat="47.76715" lon="-3.54134">
        <ele>24</ele>
        <time>2021-08-14T09:51:22Z</time>
      </trkpt>
      <trkpt lat="47.76717" lon="-3.54131">
        <ele>24</ele>
        <time>2021-08-14T09:51:23Z</time>
      </trkpt>
      <trkpt lat="47.76719" lon="-3.54128">
        <ele>24</ele>
        <time>2021-08-14T09:51:24Z</time>
      </trkpt>
      <trkpt lat="47.76722" lon="-3.54125">
        <ele>24</ele>
        <time>2021-08-14T09:51:25Z</time>
      </trkpt>
      <trkpt lat="47.76724" lon="-3.54122">
        <ele>24</ele>
        <time>2021-08-14T09:51:26Z</time>
      </trkpt>
      <trkpt lat="47.76727" lon="-3.54119">
        <ele>24</ele>
        <time>2021-08-14T09:51:27Z</time>
      </trkpt>
      <trkpt lat="47.7673" lon="-3.54116">
        <ele>24.2</ele>
        <time>2021-08-14T09:51:28Z</time>
      </trkpt>
      <trkpt lat="47.76732" lon="-3.54113">
        <ele>24.2</ele>
        <time>2021-08-14T09:51:29Z</time>
      </trkpt>
      <trkpt lat="47.76734" lon="-3.54109">
        <ele>24.2</ele>
        <time>2021-08-14T09:51:30Z</time>
      </trkpt>
      <trkpt lat="47.76736" lon="-3.54106">
        <ele>24.2</ele>
        <time>2021-08-14T09:51:31Z</time>
      </trkpt>
      <trkpt lat="47.76738" lon="-3.54102">
        <ele>24.2</ele>
        <time>2021-08-14T09:51:32Z</time>
      </trkpt>
      <trkpt lat="47.7674" lon="-3.54098">
        <ele>24.4</ele>
        <time>2021-08-14T09:51:33Z</time>
      </trkpt>
      <trkpt lat="47.76741" lon="-3.54093">
        <ele>24.4</ele>
        <time>2021-08-14T09:51:34Z</time>
      </trkpt>
      <trkpt lat="47.76743" lon="-3.54089">
        <ele>24.4</ele>
        <time>2021-08-14T09:51:35Z</time>
      </trkpt>
      <trkpt lat="47.76744" lon="-3.54084">
        <ele>24.4</ele>
        <time>2021-08-14T09:51:36Z</time>
      </trkpt>
      <trkpt lat="47.76745" lon="-3.54079">
        <ele>24.4</ele>
        <time>2021-08-14T09:51:37Z</time>
      </trkpt>
      <trkpt lat="47.76746" lon="-3.54074">
        <ele>24.4</ele>
        <time>2021-08-14T09:51:38Z</time>
      </trkpt>
      <trkpt lat="47.76747" lon="-3.5407">
        <ele>24.6</ele>
        <time>2021-08-14T09:51:39Z</time>
      </trkpt>
      <trkpt lat="47.76748" lon="-3.54065">
        <ele>24.6</ele>
        <time>2021-08-14T09:51:40Z</time>
      </trkpt>
      <trkpt lat="47.76749" lon="-3.54059">
        <ele>24.6</ele>
        <time>2021-08-14T09:51:41Z</time>
      </trkpt>
      <trkpt lat="47.7675" lon="-3.54054">
        <ele>24.6</ele>
        <time>2021-08-14T09:51:42Z</time>
      </trkpt>
      <trkpt lat="47.76751" lon="-3.54048">
        <ele>24.6</ele>
        <time>2021-08-14T09:51:43Z</time>
      </trkpt>
      <trkpt lat="47.76751" lon="-3.54042">
        <ele>24.6</ele>
        <time>2021-08-14T09:51:44Z</time>
      </trkpt>
      <trkpt lat="47.76752" lon="-3.54036">
        <ele>24.6</ele>
        <time>2021-08-14T09:51:45Z</time>
      </trkpt>
      <trkpt lat="47.76753" lon="-3.54029">
        <ele>24.6</ele>
        <time>2021-08-14T09:51:46Z</time>
      </trkpt>
      <trkpt lat="47.76754" lon="-3.54022">
        <ele>24.6</ele>
        <time>2021-08-14T09:51:47Z</time>
      </trkpt>
      <trkpt lat="47.76755" lon="-3.54014">
        <ele>24.6</ele>
        <time>2021-08-14T09:51:48Z</time>
      </trkpt>
      <trkpt lat="47.76756" lon="-3.54008">
        <ele>24.6</ele>
        <time>2021-08-14T09:51:49Z</time>
      </trkpt>
      <trkpt lat="47.76757" lon="-3.54001">
        <ele>24.6</ele>
        <time>2021-08-14T09:51:50Z</time>
      </trkpt>
      <trkpt lat="47.76757" lon="-3.53993">
        <ele>24.4</ele>
        <time>2021-08-14T09:51:51Z</time>
      </trkpt>
      <trkpt lat="47.76756" lon="-3.53985">
        <ele>24.4</ele>
        <time>2021-08-14T09:51:52Z</time>
      </trkpt>
      <trkpt lat="47.76755" lon="-3.53976">
        <ele>24.2</ele>
        <time>2021-08-14T09:51:53Z</time>
      </trkpt>
      <trkpt lat="47.76755" lon="-3.53968">
        <ele>24</ele>
        <time>2021-08-14T09:51:54Z</time>
      </trkpt>
      <trkpt lat="47.76755" lon="-3.53959">
        <ele>23.8</ele>
        <time>2021-08-14T09:51:55Z</time>
      </trkpt>
      <trkpt lat="47.76754" lon="-3.53951">
        <ele>23.6</ele>
        <time>2021-08-14T09:51:56Z</time>
      </trkpt>
      <trkpt lat="47.76753" lon="-3.53943">
        <ele>23.2</ele>
        <time>2021-08-14T09:51:57Z</time>
      </trkpt>
      <trkpt lat="47.76752" lon="-3.53935">
        <ele>22.8</ele>
        <time>2021-08-14T09:51:58Z</time>
      </trkpt>
      <trkpt lat="47.76754" lon="-3.53927">
        <ele>22.4</ele>
        <time>2021-08-14T09:51:59Z</time>
      </trkpt>
      <trkpt lat="47.76755" lon="-3.53919">
        <ele>22</ele>
        <time>2021-08-14T09:52:00Z</time>
      </trkpt>
      <trkpt lat="47.76758" lon="-3.53911">
        <ele>21.8</ele>
        <time>2021-08-14T09:52:01Z</time>
      </trkpt>
      <trkpt lat="47.7676" lon="-3.53904">
        <ele>21.6</ele>
        <time>2021-08-14T09:52:02Z</time>
      </trkpt>
      <trkpt lat="47.76763" lon="-3.53896">
        <ele>21.6</ele>
        <time>2021-08-14T09:52:03Z</time>
      </trkpt>
      <trkpt lat="47.76766" lon="-3.53888">
        <ele>21.6</ele>
        <time>2021-08-14T09:52:04Z</time>
      </trkpt>
      <trkpt lat="47.76769" lon="-3.5388">
        <ele>21.6</ele>
        <time>2021-08-14T09:52:05Z</time>
      </trkpt>
      <trkpt lat="47.76771" lon="-3.53873">
        <ele>21.6</ele>
        <time>2021-08-14T09:52:06Z</time>
      </trkpt>
      <trkpt lat="47.76773" lon="-3.53864">
        <ele>21.4</ele>
        <time>2021-08-14T09:52:07Z</time>
      </trkpt>
      <trkpt lat="47.76775" lon="-3.53856">
        <ele>21.2</ele>
        <time>2021-08-14T09:52:08Z</time>
      </trkpt>
      <trkpt lat="47.76777" lon="-3.53848">
        <ele>21</ele>
        <time>2021-08-14T09:52:09Z</time>
      </trkpt>
      <trkpt lat="47.76778" lon="-3.5384">
        <ele>21</ele>
        <time>2021-08-14T09:52:10Z</time>
      </trkpt>
      <trkpt lat="47.7678" lon="-3.53833">
        <ele>20.8</ele>
        <time>2021-08-14T09:52:11Z</time>
      </trkpt>
      <trkpt lat="47.76782" lon="-3.53826">
        <ele>20.6</ele>
        <time>2021-08-14T09:52:12Z</time>
      </trkpt>
      <trkpt lat="47.76784" lon="-3.53819">
        <ele>20.6</ele>
        <time>2021-08-14T09:52:13Z</time>
      </trkpt>
      <trkpt lat="47.76786" lon="-3.53812">
        <ele>20.6</ele>
        <time>2021-08-14T09:52:14Z</time>
      </trkpt>
      <trkpt lat="47.76788" lon="-3.53805">
        <ele>20.4</ele>
        <time>2021-08-14T09:52:15Z</time>
      </trkpt>
      <trkpt lat="47.76789" lon="-3.53798">
        <ele>20.4</ele>
        <time>2021-08-14T09:52:16Z</time>
      </trkpt>
      <trkpt lat="47.7679" lon="-3.53791">
        <ele>20.4</ele>
        <time>2021-08-14T09:52:17Z</time>
      </trkpt>
      <trkpt lat="47.76791" lon="-3.53785">
        <ele>20.4</ele>
        <time>2021-08-14T09:52:18Z</time>
      </trkpt>
      <trkpt lat="47.76791" lon="-3.53779">
        <ele>20.4</ele>
        <time>2021-08-14T09:52:19Z</time>
      </trkpt>
      <trkpt lat="47.76792" lon="-3.53773">
        <ele>20.4</ele>
        <time>2021-08-14T09:52:20Z</time>
      </trkpt>
      <trkpt lat="47.76793" lon="-3.53765">
        <ele>20.4</ele>
        <time>2021-08-14T09:52:21Z</time>
      </trkpt>
      <trkpt lat="47.76794" lon="-3.53759">
        <ele>20.4</ele>
        <time>2021-08-14T09:52:22Z</time>
      </trkpt>
      <trkpt lat="47.76794" lon="-3.53751">
        <ele>20.6</ele>
        <time>2021-08-14T09:52:23Z</time>
      </trkpt>
      <trkpt lat="47.76795" lon="-3.53744">
        <ele>20.6</ele>
        <time>2021-08-14T09:52:24Z</time>
      </trkpt>
      <trkpt lat="47.76795" lon="-3.53735">
        <ele>20.8</ele>
        <time>2021-08-14T09:52:25Z</time>
      </trkpt>
      <trkpt lat="47.76795" lon="-3.53726">
        <ele>20.8</ele>
        <time>2021-08-14T09:52:26Z</time>
      </trkpt>
      <trkpt lat="47.76796" lon="-3.53718">
        <ele>21</ele>
        <time>2021-08-14T09:52:27Z</time>
      </trkpt>
      <trkpt lat="47.76796" lon="-3.5371">
        <ele>21.2</ele>
        <time>2021-08-14T09:52:28Z</time>
      </trkpt>
      <trkpt lat="47.76796" lon="-3.53703">
        <ele>21.2</ele>
        <time>2021-08-14T09:52:29Z</time>
      </trkpt>
      <trkpt lat="47.76796" lon="-3.53695">
        <ele>21.4</ele>
        <time>2021-08-14T09:52:30Z</time>
      </trkpt>
      <trkpt lat="47.76796" lon="-3.53687">
        <ele>21.4</ele>
        <time>2021-08-14T09:52:31Z</time>
      </trkpt>
      <trkpt lat="47.76797" lon="-3.5368">
        <ele>21.6</ele>
        <time>2021-08-14T09:52:32Z</time>
      </trkpt>
      <trkpt lat="47.76797" lon="-3.53673">
        <ele>21.6</ele>
        <time>2021-08-14T09:52:33Z</time>
      </trkpt>
      <trkpt lat="47.76798" lon="-3.53665">
        <ele>21.6</ele>
        <time>2021-08-14T09:52:34Z</time>
      </trkpt>
      <trkpt lat="47.76799" lon="-3.53658">
        <ele>21.6</ele>
        <time>2021-08-14T09:52:35Z</time>
      </trkpt>
      <trkpt lat="47.76799" lon="-3.5365">
        <ele>21.8</ele>
        <time>2021-08-14T09:52:36Z</time>
      </trkpt>
      <trkpt lat="47.76798" lon="-3.53642">
        <ele>21.8</ele>
        <time>2021-08-14T09:52:37Z</time>
      </trkpt>
      <trkpt lat="47.76798" lon="-3.53635">
        <ele>21.8</ele>
        <time>2021-08-14T09:52:38Z</time>
      </trkpt>
      <trkpt lat="47.76798" lon="-3.53628">
        <ele>21.8</ele>
        <time>2021-08-14T09:52:39Z</time>
      </trkpt>
      <trkpt lat="47.76798" lon="-3.5362">
        <ele>21.8</ele>
        <time>2021-08-14T09:52:40Z</time>
      </trkpt>
      <trkpt lat="47.76798" lon="-3.53613">
        <ele>21.8</ele>
        <time>2021-08-14T09:52:41Z</time>
      </trkpt>
      <trkpt lat="47.76797" lon="-3.53607">
        <ele>21.8</ele>
        <time>2021-08-14T09:52:42Z</time>
      </trkpt>
      <trkpt lat="47.76797" lon="-3.536">
        <ele>21.8</ele>
        <time>2021-08-14T09:52:43Z</time>
      </trkpt>
      <trkpt lat="47.76796" lon="-3.53594">
        <ele>21.8</ele>
        <time>2021-08-14T09:52:44Z</time>
      </trkpt>
      <trkpt lat="47.76796" lon="-3.53587">
        <ele>21.6</ele>
        <time>2021-08-14T09:52:45Z</time>
      </trkpt>
      <trkpt lat="47.76796" lon="-3.5358">
        <ele>21.4</ele>
        <time>2021-08-14T09:52:46Z</time>
      </trkpt>
      <trkpt lat="47.76796" lon="-3.53574">
        <ele>21.4</ele>
        <time>2021-08-14T09:52:47Z</time>
      </trkpt>
      <trkpt lat="47.76796" lon="-3.53566">
        <ele>21.2</ele>
        <time>2021-08-14T09:52:48Z</time>
      </trkpt>
      <trkpt lat="47.76796" lon="-3.53559">
        <ele>21.2</ele>
        <time>2021-08-14T09:52:49Z</time>
      </trkpt>
      <trkpt lat="47.76797" lon="-3.53551">
        <ele>21.2</ele>
        <time>2021-08-14T09:52:50Z</time>
      </trkpt>
      <trkpt lat="47.76799" lon="-3.53542">
        <ele>21.2</ele>
        <time>2021-08-14T09:52:51Z</time>
      </trkpt>
      <trkpt lat="47.768" lon="-3.53533">
        <ele>21.2</ele>
        <time>2021-08-14T09:52:52Z</time>
      </trkpt>
      <trkpt lat="47.76801" lon="-3.53524">
        <ele>21</ele>
        <time>2021-08-14T09:52:53Z</time>
      </trkpt>
      <trkpt lat="47.76802" lon="-3.53516">
        <ele>21</ele>
        <time>2021-08-14T09:52:54Z</time>
      </trkpt>
      <trkpt lat="47.76804" lon="-3.53506">
        <ele>20.8</ele>
        <time>2021-08-14T09:52:55Z</time>
      </trkpt>
      <trkpt lat="47.76806" lon="-3.53497">
        <ele>20.6</ele>
        <time>2021-08-14T09:52:56Z</time>
      </trkpt>
      <trkpt lat="47.76807" lon="-3.53488">
        <ele>20.2</ele>
        <time>2021-08-14T09:52:57Z</time>
      </trkpt>
      <trkpt lat="47.76809" lon="-3.53478">
        <ele>19.6</ele>
        <time>2021-08-14T09:52:58Z</time>
      </trkpt>
      <trkpt lat="47.7681" lon="-3.53468">
        <ele>19.2</ele>
        <time>2021-08-14T09:52:59Z</time>
      </trkpt>
      <trkpt lat="47.76811" lon="-3.53458">
        <ele>18.6</ele>
        <time>2021-08-14T09:53:00Z</time>
      </trkpt>
      <trkpt lat="47.76812" lon="-3.53447">
        <ele>18.4</ele>
        <time>2021-08-14T09:53:01Z</time>
      </trkpt>
      <trkpt lat="47.76812" lon="-3.53436">
        <ele>18.2</ele>
        <time>2021-08-14T09:53:02Z</time>
      </trkpt>
      <trkpt lat="47.76812" lon="-3.53425">
        <ele>18.2</ele>
        <time>2021-08-14T09:53:03Z</time>
      </trkpt>
      <trkpt lat="47.76812" lon="-3.53414">
        <ele>17.8</ele>
        <time>2021-08-14T09:53:04Z</time>
      </trkpt>
      <trkpt lat="47.76813" lon="-3.53403">
        <ele>17.4</ele>
        <time>2021-08-14T09:53:05Z</time>
      </trkpt>
      <trkpt lat="47.76814" lon="-3.53392">
        <ele>17.2</ele>
        <time>2021-08-14T09:53:06Z</time>
      </trkpt>
      <trkpt lat="47.76816" lon="-3.5338">
        <ele>17</ele>
        <time>2021-08-14T09:53:07Z</time>
      </trkpt>
      <trkpt lat="47.76818" lon="-3.53368">
        <ele>16.4</ele>
        <time>2021-08-14T09:53:08Z</time>
      </trkpt>
      <trkpt lat="47.7682" lon="-3.53356">
        <ele>15.8</ele>
        <time>2021-08-14T09:53:09Z</time>
      </trkpt>
      <trkpt lat="47.76822" lon="-3.53344">
        <ele>15</ele>
        <time>2021-08-14T09:53:10Z</time>
      </trkpt>
      <trkpt lat="47.76825" lon="-3.53333">
        <ele>14.4</ele>
        <time>2021-08-14T09:53:11Z</time>
      </trkpt>
      <trkpt lat="47.76828" lon="-3.53324">
        <ele>13.6</ele>
        <time>2021-08-14T09:53:12Z</time>
      </trkpt>
      <trkpt lat="47.76831" lon="-3.53315">
        <ele>12.4</ele>
        <time>2021-08-14T09:53:13Z</time>
      </trkpt>
      <trkpt lat="47.76834" lon="-3.53306">
        <ele>11.2</ele>
        <time>2021-08-14T09:53:14Z</time>
      </trkpt>
      <trkpt lat="47.76836" lon="-3.53298">
        <ele>10.4</ele>
        <time>2021-08-14T09:53:15Z</time>
      </trkpt>
      <trkpt lat="47.76839" lon="-3.53291">
        <ele>10</ele>
        <time>2021-08-14T09:53:16Z</time>
      </trkpt>
      <trkpt lat="47.76842" lon="-3.53283">
        <ele>9.6</ele>
        <time>2021-08-14T09:53:17Z</time>
      </trkpt>
      <trkpt lat="47.76845" lon="-3.53276">
        <ele>8.6</ele>
        <time>2021-08-14T09:53:18Z</time>
      </trkpt>
      <trkpt lat="47.7685" lon="-3.5327">
        <ele>7.8</ele>
        <time>2021-08-14T09:53:19Z</time>
      </trkpt>
      <trkpt lat="47.76855" lon="-3.53263">
        <ele>6.8</ele>
        <time>2021-08-14T09:53:20Z</time>
      </trkpt>
      <trkpt lat="47.76861" lon="-3.53256">
        <ele>5.8</ele>
        <time>2021-08-14T09:53:21Z</time>
      </trkpt>
      <trkpt lat="47.76868" lon="-3.5325">
        <ele>5.4</ele>
        <time>2021-08-14T09:53:22Z</time>
      </trkpt>
      <trkpt lat="47.76875" lon="-3.53244">
        <ele>5.2</ele>
        <time>2021-08-14T09:53:23Z</time>
      </trkpt>
      <trkpt lat="47.76882" lon="-3.53239">
        <ele>5</ele>
        <time>2021-08-14T09:53:24Z</time>
      </trkpt>
      <trkpt lat="47.76889" lon="-3.53234">
        <ele>5</ele>
        <time>2021-08-14T09:53:25Z</time>
      </trkpt>
      <trkpt lat="47.76895" lon="-3.53231">
        <ele>4.6</ele>
        <time>2021-08-14T09:53:26Z</time>
      </trkpt>
      <trkpt lat="47.76902" lon="-3.53229">
        <ele>3.8</ele>
        <time>2021-08-14T09:53:27Z</time>
      </trkpt>
      <trkpt lat="47.76907" lon="-3.53228">
        <ele>3.2</ele>
        <time>2021-08-14T09:53:28Z</time>
      </trkpt>
      <trkpt lat="47.76913" lon="-3.53226">
        <ele>2.2</ele>
        <time>2021-08-14T09:53:29Z</time>
      </trkpt>
      <trkpt lat="47.76919" lon="-3.53225">
        <ele>1.4</ele>
        <time>2021-08-14T09:53:30Z</time>
      </trkpt>
      <trkpt lat="47.76925" lon="-3.53224">
        <ele>1</ele>
        <time>2021-08-14T09:53:31Z</time>
      </trkpt>
      <trkpt lat="47.7693" lon="-3.53224">
        <ele>0.8</ele>
        <time>2021-08-14T09:53:32Z</time>
      </trkpt>
      <trkpt lat="47.76935" lon="-3.53224">
        <ele>0.6</ele>
        <time>2021-08-14T09:53:33Z</time>
      </trkpt>
      <trkpt lat="47.76941" lon="-3.53223">
        <ele>0.4</ele>
        <time>2021-08-14T09:53:34Z</time>
      </trkpt>
      <trkpt lat="47.76946" lon="-3.53222">
        <ele>0.4</ele>
        <time>2021-08-14T09:53:35Z</time>
      </trkpt>
      <trkpt lat="47.76951" lon="-3.53222">
        <ele>0.4</ele>
        <time>2021-08-14T09:53:36Z</time>
      </trkpt>
      <trkpt lat="47.76956" lon="-3.53222">
        <ele>0.4</ele>
        <time>2021-08-14T09:53:37Z</time>
      </trkpt>
      <trkpt lat="47.7696" lon="-3.53222">
        <ele>0.4</ele>
        <time>2021-08-14T09:53:38Z</time>
      </trkpt>
      <trkpt lat="47.76965" lon="-3.53221">
        <ele>0.4</ele>
        <time>2021-08-14T09:53:39Z</time>
      </trkpt>
      <trkpt lat="47.76969" lon="-3.53221">
        <ele>0.4</ele>
        <time>2021-08-14T09:53:40Z</time>
      </trkpt>
      <trkpt lat="47.76973" lon="-3.53221">
        <ele>0.4</ele>
        <time>2021-08-14T09:53:41Z</time>
      </trkpt>
      <trkpt lat="47.76976" lon="-3.53221">
        <ele>0.6</ele>
        <time>2021-08-14T09:53:42Z</time>
      </trkpt>
      <trkpt lat="47.76979" lon="-3.53222">
        <ele>0.6</ele>
        <time>2021-08-14T09:53:43Z</time>
      </trkpt>
      <trkpt lat="47.76982" lon="-3.53223">
        <ele>0.6</ele>
        <time>2021-08-14T09:53:44Z</time>
      </trkpt>
      <trkpt lat="47.76985" lon="-3.53224">
        <ele>0.6</ele>
        <time>2021-08-14T09:53:45Z</time>
      </trkpt>
      <trkpt lat="47.76987" lon="-3.53225">
        <ele>0.8</ele>
        <time>2021-08-14T09:53:46Z</time>
      </trkpt>
      <trkpt lat="47.7699" lon="-3.53226">
        <ele>1</ele>
        <time>2021-08-14T09:53:47Z</time>
      </trkpt>
      <trkpt lat="47.76992" lon="-3.53228">
        <ele>1</ele>
        <time>2021-08-14T09:53:48Z</time>
      </trkpt>
      <trkpt lat="47.76994" lon="-3.53229">
        <ele>1.4</ele>
        <time>2021-08-14T09:53:49Z</time>
      </trkpt>
      <trkpt lat="47.76996" lon="-3.53229">
        <ele>1.8</ele>
        <time>2021-08-14T09:53:50Z</time>
      </trkpt>
      <trkpt lat="47.76999" lon="-3.53228">
        <ele>2.2</ele>
        <time>2021-08-14T09:53:51Z</time>
      </trkpt>
      <trkpt lat="47.77002" lon="-3.53227">
        <ele>2.4</ele>
        <time>2021-08-14T09:53:52Z</time>
      </trkpt>
      <trkpt lat="47.77005" lon="-3.53226">
        <ele>2.6</ele>
        <time>2021-08-14T09:53:53Z</time>
      </trkpt>
      <trkpt lat="47.77008" lon="-3.53224">
        <ele>3</ele>
        <time>2021-08-14T09:53:54Z</time>
      </trkpt>
      <trkpt lat="47.77012" lon="-3.53222">
        <ele>2.8</ele>
        <time>2021-08-14T09:53:55Z</time>
      </trkpt>
      <trkpt lat="47.77016" lon="-3.5322">
        <ele>3.2</ele>
        <time>2021-08-14T09:53:56Z</time>
      </trkpt>
      <trkpt lat="47.7702" lon="-3.53218">
        <ele>3.2</ele>
        <time>2021-08-14T09:53:57Z</time>
      </trkpt>
      <trkpt lat="47.77025" lon="-3.53216">
        <ele>3.2</ele>
        <time>2021-08-14T09:53:58Z</time>
      </trkpt>
      <trkpt lat="47.77029" lon="-3.53213">
        <ele>3.2</ele>
        <time>2021-08-14T09:53:59Z</time>
      </trkpt>
      <trkpt lat="47.77034" lon="-3.53209">
        <ele>3.2</ele>
        <time>2021-08-14T09:54:00Z</time>
      </trkpt>
      <trkpt lat="47.7704" lon="-3.53206">
        <ele>3.2</ele>
        <time>2021-08-14T09:54:01Z</time>
      </trkpt>
      <trkpt lat="47.77045" lon="-3.53203">
        <ele>3.2</ele>
        <time>2021-08-14T09:54:02Z</time>
      </trkpt>
      <trkpt lat="47.77051" lon="-3.53201">
        <ele>3.2</ele>
        <time>2021-08-14T09:54:03Z</time>
      </trkpt>
      <trkpt lat="47.77057" lon="-3.53199">
        <ele>3</ele>
        <time>2021-08-14T09:54:04Z</time>
      </trkpt>
      <trkpt lat="47.77062" lon="-3.53196">
        <ele>2.6</ele>
        <time>2021-08-14T09:54:05Z</time>
      </trkpt>
      <trkpt lat="47.77067" lon="-3.53193">
        <ele>2.2</ele>
        <time>2021-08-14T09:54:06Z</time>
      </trkpt>
      <trkpt lat="47.77072" lon="-3.53189">
        <ele>1.8</ele>
        <time>2021-08-14T09:54:07Z</time>
      </trkpt>
      <trkpt lat="47.77076" lon="-3.53185">
        <ele>1.4</ele>
        <time>2021-08-14T09:54:08Z</time>
      </trkpt>
      <trkpt lat="47.77079" lon="-3.53181">
        <ele>1</ele>
        <time>2021-08-14T09:54:09Z</time>
      </trkpt>
      <trkpt lat="47.77081" lon="-3.53178">
        <ele>0.8</ele>
        <time>2021-08-14T09:54:10Z</time>
      </trkpt>
      <trkpt lat="47.77082" lon="-3.53176">
        <ele>0.8</ele>
        <time>2021-08-14T09:54:11Z</time>
      </trkpt>
      <trkpt lat="47.77083" lon="-3.53174">
        <ele>0.8</ele>
        <time>2021-08-14T09:54:12Z</time>
      </trkpt>
      <trkpt lat="47.77084" lon="-3.53172">
        <ele>0.6</ele>
        <time>2021-08-14T09:54:13Z</time>
      </trkpt>
      <trkpt lat="47.77085" lon="-3.53171">
        <ele>0.6</ele>
        <time>2021-08-14T09:54:14Z</time>
      </trkpt>
      <trkpt lat="47.77087" lon="-3.5317">
        <ele>0.6</ele>
        <time>2021-08-14T09:54:15Z</time>
      </trkpt>
      <trkpt lat="47.77088" lon="-3.53168">
        <ele>0.6</ele>
        <time>2021-08-14T09:54:16Z</time>
      </trkpt>
      <trkpt lat="47.7709" lon="-3.53167">
        <ele>0.6</ele>
        <time>2021-08-14T09:54:17Z</time>
      </trkpt>
      <trkpt lat="47.77092" lon="-3.53165">
        <ele>0.6</ele>
        <time>2021-08-14T09:54:18Z</time>
      </trkpt>
      <trkpt lat="47.77093" lon="-3.53164">
        <ele>0.6</ele>
        <time>2021-08-14T09:54:19Z</time>
      </trkpt>
      <trkpt lat="47.77094" lon="-3.53162">
        <ele>0.6</ele>
        <time>2021-08-14T09:54:20Z</time>
      </trkpt>
      <trkpt lat="47.77094" lon="-3.53162">
        <ele>0.6</ele>
        <time>2021-08-14T09:54:21Z</time>
      </trkpt>
      <trkpt lat="47.77095" lon="-3.53161">
        <ele>0.6</ele>
        <time>2021-08-14T09:54:23Z</time>
      </trkpt>
      <trkpt lat="47.77096" lon="-3.5316">
        <ele>0.6</ele>
        <time>2021-08-14T09:54:24Z</time>
      </trkpt>
      <trkpt lat="47.77097" lon="-3.5316">
        <ele>0.6</ele>
        <time>2021-08-14T09:54:25Z</time>
      </trkpt>
      <trkpt lat="47.77099" lon="-3.53158">
        <ele>0.6</ele>
        <time>2021-08-14T09:54:26Z</time>
      </trkpt>
      <trkpt lat="47.771" lon="-3.53157">
        <ele>0.6</ele>
        <time>2021-08-14T09:54:27Z</time>
      </trkpt>
      <trkpt lat="47.77101" lon="-3.53155">
        <ele>0.6</ele>
        <time>2021-08-14T09:54:28Z</time>
      </trkpt>
      <trkpt lat="47.77102" lon="-3.53153">
        <ele>0.4</ele>
        <time>2021-08-14T09:54:29Z</time>
      </trkpt>
      <trkpt lat="47.77103" lon="-3.53151">
        <ele>0.4</ele>
        <time>2021-08-14T09:54:30Z</time>
      </trkpt>
      <trkpt lat="47.77105" lon="-3.5315">
        <ele>0.4</ele>
        <time>2021-08-14T09:54:31Z</time>
      </trkpt>
      <trkpt lat="47.77107" lon="-3.53149">
        <ele>0.4</ele>
        <time>2021-08-14T09:54:32Z</time>
      </trkpt>
      <trkpt lat="47.77108" lon="-3.5315">
        <ele>0.4</ele>
        <time>2021-08-14T09:54:33Z</time>
      </trkpt>
      <trkpt lat="47.77109" lon="-3.53151">
        <ele>0.4</ele>
        <time>2021-08-14T09:54:34Z</time>
      </trkpt>
      <trkpt lat="47.77109" lon="-3.53153">
        <ele>0.4</ele>
        <time>2021-08-14T09:54:35Z</time>
      </trkpt>
      <trkpt lat="47.77109" lon="-3.53155">
        <ele>0.4</ele>
        <time>2021-08-14T09:54:36Z</time>
      </trkpt>
      <trkpt lat="47.77108" lon="-3.53156">
        <ele>0.4</ele>
        <time>2021-08-14T09:54:37Z</time>
      </trkpt>
      <trkpt lat="47.77107" lon="-3.53157">
        <ele>0.4</ele>
        <time>2021-08-14T09:54:38Z</time>
      </trkpt>
      <trkpt lat="47.77105" lon="-3.53157">
        <ele>0.4</ele>
        <time>2021-08-14T09:54:39Z</time>
      </trkpt>
      <trkpt lat="47.77104" lon="-3.53157">
        <ele>0.4</ele>
        <time>2021-08-14T09:54:40Z</time>
      </trkpt>
      <trkpt lat="47.77103" lon="-3.53157">
        <ele>0.2</ele>
        <time>2021-08-14T09:54:41Z</time>
      </trkpt>
      <trkpt lat="47.77102" lon="-3.53156">
        <ele>0.2</ele>
        <time>2021-08-14T09:54:42Z</time>
      </trkpt>
      <trkpt lat="47.77101" lon="-3.53156">
        <ele>0.2</ele>
        <time>2021-08-14T09:54:43Z</time>
      </trkpt>
      <trkpt lat="47.771" lon="-3.53157">
        <ele>0.2</ele>
        <time>2021-08-14T09:54:44Z</time>
      </trkpt>
      <trkpt lat="47.77099" lon="-3.53158">
        <ele>0.2</ele>
        <time>2021-08-14T09:54:45Z</time>
      </trkpt>
      <trkpt lat="47.77098" lon="-3.53159">
        <ele>0.2</ele>
        <time>2021-08-14T09:54:46Z</time>
      </trkpt>
      <trkpt lat="47.77096" lon="-3.5316">
        <ele>0.2</ele>
        <time>2021-08-14T09:54:47Z</time>
      </trkpt>
      <trkpt lat="47.77095" lon="-3.53159">
        <ele>0.2</ele>
        <time>2021-08-14T09:54:48Z</time>
      </trkpt>
      <trkpt lat="47.77094" lon="-3.53159">
        <ele>0.2</ele>
        <time>2021-08-14T09:54:49Z</time>
      </trkpt>
      <trkpt lat="47.77093" lon="-3.53158">
        <ele>0.2</ele>
        <time>2021-08-14T09:54:50Z</time>
      </trkpt>
      <trkpt lat="47.77093" lon="-3.53157">
        <ele>0.4</ele>
        <time>2021-08-14T09:54:51Z</time>
      </trkpt>
      <trkpt lat="47.77093" lon="-3.53155">
        <ele>0.4</ele>
        <time>2021-08-14T09:54:52Z</time>
      </trkpt>
      <trkpt lat="47.77093" lon="-3.53153">
        <ele>0.4</ele>
        <time>2021-08-14T09:54:53Z</time>
      </trkpt>
      <trkpt lat="47.77093" lon="-3.53152">
        <ele>0.4</ele>
        <time>2021-08-14T09:54:54Z</time>
      </trkpt>
      <trkpt lat="47.77093" lon="-3.53152">
        <ele>0.4</ele>
        <time>2021-08-14T09:54:55Z</time>
      </trkpt>
      <trkpt lat="47.77093" lon="-3.53152">
        <ele>0.2</ele>
        <time>2021-08-14T09:55:22Z</time>
      </trkpt>
      <trkpt lat="47.77093" lon="-3.53152">
        <ele>0.2</ele>
        <time>2021-08-14T09:55:23Z</time>
      </trkpt>
      <trkpt lat="47.77093" lon="-3.53152">
        <ele>0.2</ele>
        <time>2021-08-14T09:55:24Z</time>
      </trkpt>
      <trkpt lat="47.77093" lon="-3.53152">
        <ele>0.2</ele>
        <time>2021-08-14T09:55:25Z</time>
      </trkpt>
      <trkpt lat="47.77099" lon="-3.53156">
        <ele>0.4</ele>
        <time>2021-08-14T09:56:26Z</time>
      </trkpt>
      <trkpt lat="47.77101" lon="-3.53157">
        <ele>0.6</ele>
        <time>2021-08-14T09:56:27Z</time>
      </trkpt>
      <trkpt lat="47.77103" lon="-3.5316">
        <ele>0.6</ele>
        <time>2021-08-14T09:56:28Z</time>
      </trkpt>
      <trkpt lat="47.77106" lon="-3.53163">
        <ele>0.6</ele>
        <time>2021-08-14T09:56:29Z</time>
      </trkpt>
      <trkpt lat="47.77108" lon="-3.53167">
        <ele>0.6</ele>
        <time>2021-08-14T09:56:30Z</time>
      </trkpt>
      <trkpt lat="47.77111" lon="-3.53171">
        <ele>0.6</ele>
        <time>2021-08-14T09:56:31Z</time>
      </trkpt>
      <trkpt lat="47.77112" lon="-3.53173">
        <ele>0.6</ele>
        <time>2021-08-14T09:56:32Z</time>
      </trkpt>
      <trkpt lat="47.77114" lon="-3.53175">
        <ele>0.8</ele>
        <time>2021-08-14T09:56:33Z</time>
      </trkpt>
      <trkpt lat="47.77115" lon="-3.53176">
        <ele>0.8</ele>
        <time>2021-08-14T09:56:34Z</time>
      </trkpt>
      <trkpt lat="47.77116" lon="-3.53176">
        <ele>0.8</ele>
        <time>2021-08-14T09:56:35Z</time>
      </trkpt>
      <trkpt lat="47.77118" lon="-3.53175">
        <ele>0.8</ele>
        <time>2021-08-14T09:56:36Z</time>
      </trkpt>
      <trkpt lat="47.7712" lon="-3.53174">
        <ele>0.8</ele>
        <time>2021-08-14T09:56:37Z</time>
      </trkpt>
      <trkpt lat="47.77122" lon="-3.53175">
        <ele>0.8</ele>
        <time>2021-08-14T09:56:38Z</time>
      </trkpt>
      <trkpt lat="47.77123" lon="-3.53178">
        <ele>0.8</ele>
        <time>2021-08-14T09:56:39Z</time>
      </trkpt>
      <trkpt lat="47.77124" lon="-3.53181">
        <ele>0.8</ele>
        <time>2021-08-14T09:56:40Z</time>
      </trkpt>
      <trkpt lat="47.77124" lon="-3.53185">
        <ele>0.8</ele>
        <time>2021-08-14T09:56:41Z</time>
      </trkpt>
      <trkpt lat="47.77124" lon="-3.53189">
        <ele>0.8</ele>
        <time>2021-08-14T09:56:42Z</time>
      </trkpt>
      <trkpt lat="47.77126" lon="-3.5319">
        <ele>0.6</ele>
        <time>2021-08-14T09:56:43Z</time>
      </trkpt>
      <trkpt lat="47.77127" lon="-3.5319">
        <ele>0.6</ele>
        <time>2021-08-14T09:56:44Z</time>
      </trkpt>
      <trkpt lat="47.77127" lon="-3.5319">
        <ele>0.6</ele>
        <time>2021-08-14T09:56:45Z</time>
      </trkpt>
      <trkpt lat="47.77128" lon="-3.5319">
        <ele>0.8</ele>
        <time>2021-08-14T09:56:48Z</time>
      </trkpt>
      <trkpt lat="47.77128" lon="-3.5319">
        <ele>0.8</ele>
        <time>2021-08-14T09:56:49Z</time>
      </trkpt>
      <trkpt lat="47.77128" lon="-3.5319">
        <ele>0.8</ele>
        <time>2021-08-14T09:56:50Z</time>
      </trkpt>
      <trkpt lat="47.7713" lon="-3.53189">
        <ele>0.8</ele>
        <time>2021-08-14T09:57:04Z</time>
      </trkpt>
      <trkpt lat="47.7713" lon="-3.53189">
        <ele>0.8</ele>
        <time>2021-08-14T09:57:05Z</time>
      </trkpt>
      <trkpt lat="47.7713" lon="-3.53189">
        <ele>0.8</ele>
        <time>2021-08-14T09:57:06Z</time>
      </trkpt>
      <trkpt lat="47.77182" lon="-3.52912">
        <ele>0.2</ele>
        <time>2021-08-14T10:15:15Z</time>
      </trkpt>
      <trkpt lat="47.77182" lon="-3.5291">
        <ele>0.2</ele>
        <time>2021-08-14T10:15:16Z</time>
      </trkpt>
      <trkpt lat="47.77183" lon="-3.52908">
        <ele>0.2</ele>
        <time>2021-08-14T10:15:17Z</time>
      </trkpt>
      <trkpt lat="47.77184" lon="-3.52905">
        <ele>0.2</ele>
        <time>2021-08-14T10:15:18Z</time>
      </trkpt>
      <trkpt lat="47.77185" lon="-3.52902">
        <ele>0.2</ele>
        <time>2021-08-14T10:15:19Z</time>
      </trkpt>
      <trkpt lat="47.77186" lon="-3.52898">
        <ele>-0.2</ele>
        <time>2021-08-14T10:15:20Z</time>
      </trkpt>
      <trkpt lat="47.77187" lon="-3.52895">
        <ele>-0.2</ele>
        <time>2021-08-14T10:15:21Z</time>
      </trkpt>
      <trkpt lat="47.77188" lon="-3.52891">
        <ele>-0.2</ele>
        <time>2021-08-14T10:15:22Z</time>
      </trkpt>
      <trkpt lat="47.77189" lon="-3.52888">
        <ele>-0.2</ele>
        <time>2021-08-14T10:15:23Z</time>
      </trkpt>
      <trkpt lat="47.7719" lon="-3.52884">
        <ele>-0.2</ele>
        <time>2021-08-14T10:15:24Z</time>
      </trkpt>
      <trkpt lat="47.77191" lon="-3.52881">
        <ele>-0.2</ele>
        <time>2021-08-14T10:15:25Z</time>
      </trkpt>
      <trkpt lat="47.77192" lon="-3.52878">
        <ele>-0.2</ele>
        <time>2021-08-14T10:15:26Z</time>
      </trkpt>
      <trkpt lat="47.77193" lon="-3.52874">
        <ele>-0.2</ele>
        <time>2021-08-14T10:15:27Z</time>
      </trkpt>
      <trkpt lat="47.77194" lon="-3.52872">
        <ele>-0.2</ele>
        <time>2021-08-14T10:15:28Z</time>
      </trkpt>
      <trkpt lat="47.77196" lon="-3.52869">
        <ele>-0.2</ele>
        <time>2021-08-14T10:15:29Z</time>
      </trkpt>
      <trkpt lat="47.77197" lon="-3.52866">
        <ele>-0.2</ele>
        <time>2021-08-14T10:15:30Z</time>
      </trkpt>
      <trkpt lat="47.77199" lon="-3.52864">
        <ele>-0.2</ele>
        <time>2021-08-14T10:15:31Z</time>
      </trkpt>
      <trkpt lat="47.772" lon="-3.52862">
        <ele>-0.2</ele>
        <time>2021-08-14T10:15:32Z</time>
      </trkpt>
      <trkpt lat="47.77201" lon="-3.5286">
        <ele>-0.2</ele>
        <time>2021-08-14T10:15:33Z</time>
      </trkpt>
      <trkpt lat="47.77201" lon="-3.52856">
        <ele>-0.2</ele>
        <time>2021-08-14T10:15:34Z</time>
      </trkpt>
      <trkpt lat="47.77202" lon="-3.52853">
        <ele>-0.2</ele>
        <time>2021-08-14T10:15:35Z</time>
      </trkpt>
      <trkpt lat="47.77203" lon="-3.5285">
        <ele>-0.2</ele>
        <time>2021-08-14T10:15:36Z</time>
      </trkpt>
      <trkpt lat="47.77205" lon="-3.52848">
        <ele>-0.2</ele>
        <time>2021-08-14T10:15:37Z</time>
      </trkpt>
      <trkpt lat="47.77207" lon="-3.52847">
        <ele>-0.2</ele>
        <time>2021-08-14T10:15:38Z</time>
      </trkpt>
      <trkpt lat="47.7721" lon="-3.52847">
        <ele>-0.2</ele>
        <time>2021-08-14T10:15:39Z</time>
      </trkpt>
      <trkpt lat="47.77212" lon="-3.52848">
        <ele>-0.2</ele>
        <time>2021-08-14T10:15:40Z</time>
      </trkpt>
      <trkpt lat="47.77214" lon="-3.52849">
        <ele>-0.2</ele>
        <time>2021-08-14T10:15:41Z</time>
      </trkpt>
      <trkpt lat="47.77216" lon="-3.52849">
        <ele>-0.2</ele>
        <time>2021-08-14T10:15:42Z</time>
      </trkpt>
      <trkpt lat="47.77218" lon="-3.52849">
        <ele>-0.2</ele>
        <time>2021-08-14T10:15:43Z</time>
      </trkpt>
      <trkpt lat="47.7722" lon="-3.5285">
        <ele>-0.2</ele>
        <time>2021-08-14T10:15:44Z</time>
      </trkpt>
      <trkpt lat="47.77221" lon="-3.5285">
        <ele>-0.2</ele>
        <time>2021-08-14T10:15:45Z</time>
      </trkpt>
      <trkpt lat="47.77222" lon="-3.52849">
        <ele>-0.2</ele>
        <time>2021-08-14T10:15:46Z</time>
      </trkpt>
      <trkpt lat="47.77223" lon="-3.52849">
        <ele>0.2</ele>
        <time>2021-08-14T10:15:47Z</time>
      </trkpt>
      <trkpt lat="47.77223" lon="-3.52849">
        <ele>0.2</ele>
        <time>2021-08-14T10:15:48Z</time>
      </trkpt>
      <trkpt lat="47.77223" lon="-3.52849">
        <ele>0.2</ele>
        <time>2021-08-14T10:15:49Z</time>
      </trkpt>
      <trkpt lat="47.77225" lon="-3.52848">
        <ele>0.6</ele>
        <time>2021-08-14T10:15:53Z</time>
      </trkpt>
      <trkpt lat="47.77225" lon="-3.52847">
        <ele>0.6</ele>
        <time>2021-08-14T10:15:54Z</time>
      </trkpt>
      <trkpt lat="47.77225" lon="-3.52847">
        <ele>0.6</ele>
        <time>2021-08-14T10:15:55Z</time>
      </trkpt>
      <trkpt lat="47.77211" lon="-3.5283">
        <ele>0.4</ele>
        <time>2021-08-14T10:21:39Z</time>
      </trkpt>
      <trkpt lat="47.7721" lon="-3.52828">
        <ele>0.4</ele>
        <time>2021-08-14T10:21:40Z</time>
      </trkpt>
      <trkpt lat="47.77209" lon="-3.52826">
        <ele>0.4</ele>
        <time>2021-08-14T10:21:41Z</time>
      </trkpt>
      <trkpt lat="47.77208" lon="-3.52823">
        <ele>0.4</ele>
        <time>2021-08-14T10:21:42Z</time>
      </trkpt>
      <trkpt lat="47.77208" lon="-3.52821">
        <ele>0.4</ele>
        <time>2021-08-14T10:21:43Z</time>
      </trkpt>
      <trkpt lat="47.77207" lon="-3.52818">
        <ele>0.4</ele>
        <time>2021-08-14T10:21:44Z</time>
      </trkpt>
      <trkpt lat="47.77206" lon="-3.52816">
        <ele>0.4</ele>
        <time>2021-08-14T10:21:45Z</time>
      </trkpt>
      <trkpt lat="47.77204" lon="-3.52814">
        <ele>0.4</ele>
        <time>2021-08-14T10:21:46Z</time>
      </trkpt>
      <trkpt lat="47.77203" lon="-3.52811">
        <ele>0.4</ele>
        <time>2021-08-14T10:21:47Z</time>
      </trkpt>
      <trkpt lat="47.77202" lon="-3.52809">
        <ele>0.4</ele>
        <time>2021-08-14T10:21:48Z</time>
      </trkpt>
      <trkpt lat="47.77201" lon="-3.52806">
        <ele>0.4</ele>
        <time>2021-08-14T10:21:49Z</time>
      </trkpt>
      <trkpt lat="47.77199" lon="-3.52804">
        <ele>0.4</ele>
        <time>2021-08-14T10:21:50Z</time>
      </trkpt>
      <trkpt lat="47.77198" lon="-3.52801">
        <ele>0.4</ele>
        <time>2021-08-14T10:21:51Z</time>
      </trkpt>
      <trkpt lat="47.77197" lon="-3.52798">
        <ele>0.4</ele>
        <time>2021-08-14T10:21:52Z</time>
      </trkpt>
      <trkpt lat="47.77196" lon="-3.52796">
        <ele>0.4</ele>
        <time>2021-08-14T10:21:53Z</time>
      </trkpt>
      <trkpt lat="47.77195" lon="-3.52793">
        <ele>0.6</ele>
        <time>2021-08-14T10:21:54Z</time>
      </trkpt>
      <trkpt lat="47.77194" lon="-3.52791">
        <ele>0.6</ele>
        <time>2021-08-14T10:21:55Z</time>
      </trkpt>
      <trkpt lat="47.77192" lon="-3.52788">
        <ele>0.6</ele>
        <time>2021-08-14T10:21:56Z</time>
      </trkpt>
      <trkpt lat="47.77191" lon="-3.52785">
        <ele>0.6</ele>
        <time>2021-08-14T10:21:57Z</time>
      </trkpt>
      <trkpt lat="47.7719" lon="-3.52782">
        <ele>0.6</ele>
        <time>2021-08-14T10:21:58Z</time>
      </trkpt>
      <trkpt lat="47.77189" lon="-3.5278">
        <ele>1</ele>
        <time>2021-08-14T10:21:59Z</time>
      </trkpt>
      <trkpt lat="47.77188" lon="-3.52777">
        <ele>1.2</ele>
        <time>2021-08-14T10:22:00Z</time>
      </trkpt>
      <trkpt lat="47.77187" lon="-3.52774">
        <ele>1.4</ele>
        <time>2021-08-14T10:22:01Z</time>
      </trkpt>
      <trkpt lat="47.77185" lon="-3.52772">
        <ele>1.4</ele>
        <time>2021-08-14T10:22:02Z</time>
      </trkpt>
      <trkpt lat="47.77184" lon="-3.52769">
        <ele>1.6</ele>
        <time>2021-08-14T10:22:03Z</time>
      </trkpt>
      <trkpt lat="47.77183" lon="-3.52767">
        <ele>1.6</ele>
        <time>2021-08-14T10:22:04Z</time>
      </trkpt>
      <trkpt lat="47.77182" lon="-3.52765">
        <ele>1.6</ele>
        <time>2021-08-14T10:22:05Z</time>
      </trkpt>
      <trkpt lat="47.77181" lon="-3.52762">
        <ele>1.8</ele>
        <time>2021-08-14T10:22:06Z</time>
      </trkpt>
      <trkpt lat="47.7718" lon="-3.5276">
        <ele>2</ele>
        <time>2021-08-14T10:22:07Z</time>
      </trkpt>
      <trkpt lat="47.77179" lon="-3.52757">
        <ele>2</ele>
        <time>2021-08-14T10:22:08Z</time>
      </trkpt>
      <trkpt lat="47.77178" lon="-3.52755">
        <ele>2.2</ele>
        <time>2021-08-14T10:22:09Z</time>
      </trkpt>
      <trkpt lat="47.77176" lon="-3.52752">
        <ele>2.4</ele>
        <time>2021-08-14T10:22:10Z</time>
      </trkpt>
      <trkpt lat="47.77175" lon="-3.52749">
        <ele>2.4</ele>
        <time>2021-08-14T10:22:11Z</time>
      </trkpt>
      <trkpt lat="47.77174" lon="-3.52746">
        <ele>2.4</ele>
        <time>2021-08-14T10:22:12Z</time>
      </trkpt>
      <trkpt lat="47.77173" lon="-3.52743">
        <ele>2.6</ele>
        <time>2021-08-14T10:22:13Z</time>
      </trkpt>
      <trkpt lat="47.77172" lon="-3.5274">
        <ele>2.6</ele>
        <time>2021-08-14T10:22:14Z</time>
      </trkpt>
      <trkpt lat="47.7717" lon="-3.52737">
        <ele>2.6</ele>
        <time>2021-08-14T10:22:15Z</time>
      </trkpt>
      <trkpt lat="47.77168" lon="-3.52734">
        <ele>2.6</ele>
        <time>2021-08-14T10:22:16Z</time>
      </trkpt>
      <trkpt lat="47.77165" lon="-3.5273">
        <ele>2.6</ele>
        <time>2021-08-14T10:22:17Z</time>
      </trkpt>
      <trkpt lat="47.77163" lon="-3.52727">
        <ele>2.6</ele>
        <time>2021-08-14T10:22:18Z</time>
      </trkpt>
      <trkpt lat="47.77161" lon="-3.52723">
        <ele>2.6</ele>
        <time>2021-08-14T10:22:19Z</time>
      </trkpt>
      <trkpt lat="47.77159" lon="-3.52719">
        <ele>2.6</ele>
        <time>2021-08-14T10:22:20Z</time>
      </trkpt>
      <trkpt lat="47.77158" lon="-3.52715">
        <ele>2.6</ele>
        <time>2021-08-14T10:22:21Z</time>
      </trkpt>
      <trkpt lat="47.77156" lon="-3.52711">
        <ele>2.6</ele>
        <time>2021-08-14T10:22:22Z</time>
      </trkpt>
      <trkpt lat="47.77154" lon="-3.52706">
        <ele>2.6</ele>
        <time>2021-08-14T10:22:23Z</time>
      </trkpt>
      <trkpt lat="47.77153" lon="-3.52702">
        <ele>2.6</ele>
        <time>2021-08-14T10:22:24Z</time>
      </trkpt>
      <trkpt lat="47.77151" lon="-3.52698">
        <ele>2.4</ele>
        <time>2021-08-14T10:22:25Z</time>
      </trkpt>
      <trkpt lat="47.7715" lon="-3.52694">
        <ele>2.2</ele>
        <time>2021-08-14T10:22:26Z</time>
      </trkpt>
      <trkpt lat="47.77148" lon="-3.5269">
        <ele>2.2</ele>
        <time>2021-08-14T10:22:27Z</time>
      </trkpt>
      <trkpt lat="47.77145" lon="-3.52686">
        <ele>2</ele>
        <time>2021-08-14T10:22:28Z</time>
      </trkpt>
      <trkpt lat="47.77143" lon="-3.52682">
        <ele>2</ele>
        <time>2021-08-14T10:22:29Z</time>
      </trkpt>
      <trkpt lat="47.77141" lon="-3.52678">
        <ele>2</ele>
        <time>2021-08-14T10:22:30Z</time>
      </trkpt>
      <trkpt lat="47.77138" lon="-3.52674">
        <ele>1.8</ele>
        <time>2021-08-14T10:22:31Z</time>
      </trkpt>
      <trkpt lat="47.77136" lon="-3.52669">
        <ele>1.8</ele>
        <time>2021-08-14T10:22:32Z</time>
      </trkpt>
      <trkpt lat="47.77133" lon="-3.52665">
        <ele>1.8</ele>
        <time>2021-08-14T10:22:33Z</time>
      </trkpt>
      <trkpt lat="47.7713" lon="-3.52661">
        <ele>1.8</ele>
        <time>2021-08-14T10:22:34Z</time>
      </trkpt>
      <trkpt lat="47.77127" lon="-3.52658">
        <ele>1.6</ele>
        <time>2021-08-14T10:22:35Z</time>
      </trkpt>
      <trkpt lat="47.77124" lon="-3.52654">
        <ele>1.6</ele>
        <time>2021-08-14T10:22:36Z</time>
      </trkpt>
      <trkpt lat="47.77122" lon="-3.52649">
        <ele>1.6</ele>
        <time>2021-08-14T10:22:37Z</time>
      </trkpt>
      <trkpt lat="47.7712" lon="-3.52645">
        <ele>1.6</ele>
        <time>2021-08-14T10:22:38Z</time>
      </trkpt>
      <trkpt lat="47.77117" lon="-3.5264">
        <ele>1.6</ele>
        <time>2021-08-14T10:22:39Z</time>
      </trkpt>
      <trkpt lat="47.77115" lon="-3.52636">
        <ele>1.6</ele>
        <time>2021-08-14T10:22:40Z</time>
      </trkpt>
      <trkpt lat="47.77113" lon="-3.52632">
        <ele>1.6</ele>
        <time>2021-08-14T10:22:41Z</time>
      </trkpt>
      <trkpt lat="47.7711" lon="-3.52628">
        <ele>1.6</ele>
        <time>2021-08-14T10:22:42Z</time>
      </trkpt>
      <trkpt lat="47.77107" lon="-3.52624">
        <ele>1.6</ele>
        <time>2021-08-14T10:22:43Z</time>
      </trkpt>
      <trkpt lat="47.77105" lon="-3.5262">
        <ele>1.6</ele>
        <time>2021-08-14T10:22:44Z</time>
      </trkpt>
      <trkpt lat="47.77103" lon="-3.52616">
        <ele>1.6</ele>
        <time>2021-08-14T10:22:45Z</time>
      </trkpt>
      <trkpt lat="47.77101" lon="-3.52611">
        <ele>1.6</ele>
        <time>2021-08-14T10:22:46Z</time>
      </trkpt>
      <trkpt lat="47.77099" lon="-3.52607">
        <ele>1.8</ele>
        <time>2021-08-14T10:22:47Z</time>
      </trkpt>
      <trkpt lat="47.77097" lon="-3.52603">
        <ele>1.8</ele>
        <time>2021-08-14T10:22:48Z</time>
      </trkpt>
      <trkpt lat="47.77094" lon="-3.52599">
        <ele>2</ele>
        <time>2021-08-14T10:22:49Z</time>
      </trkpt>
      <trkpt lat="47.77092" lon="-3.52595">
        <ele>2</ele>
        <time>2021-08-14T10:22:50Z</time>
      </trkpt>
      <trkpt lat="47.7709" lon="-3.52591">
        <ele>2.2</ele>
        <time>2021-08-14T10:22:51Z</time>
      </trkpt>
      <trkpt lat="47.77088" lon="-3.52587">
        <ele>2.4</ele>
        <time>2021-08-14T10:22:52Z</time>
      </trkpt>
      <trkpt lat="47.77085" lon="-3.52583">
        <ele>2.6</ele>
        <time>2021-08-14T10:22:53Z</time>
      </trkpt>
      <trkpt lat="47.77083" lon="-3.52579">
        <ele>2.6</ele>
        <time>2021-08-14T10:22:54Z</time>
      </trkpt>
      <trkpt lat="47.7708" lon="-3.52574">
        <ele>2.8</ele>
        <time>2021-08-14T10:22:55Z</time>
      </trkpt>
      <trkpt lat="47.77078" lon="-3.5257">
        <ele>2.8</ele>
        <time>2021-08-14T10:22:56Z</time>
      </trkpt>
      <trkpt lat="47.77075" lon="-3.52567">
        <ele>2.8</ele>
        <time>2021-08-14T10:22:57Z</time>
      </trkpt>
      <trkpt lat="47.77072" lon="-3.52563">
        <ele>2.8</ele>
        <time>2021-08-14T10:22:58Z</time>
      </trkpt>
      <trkpt lat="47.77069" lon="-3.52559">
        <ele>2.8</ele>
        <time>2021-08-14T10:22:59Z</time>
      </trkpt>
      <trkpt lat="47.77066" lon="-3.52555">
        <ele>2.8</ele>
        <time>2021-08-14T10:23:00Z</time>
      </trkpt>
      <trkpt lat="47.77064" lon="-3.52552">
        <ele>3</ele>
        <time>2021-08-14T10:23:01Z</time>
      </trkpt>
      <trkpt lat="47.7706" lon="-3.52548">
        <ele>3</ele>
        <time>2021-08-14T10:23:02Z</time>
      </trkpt>
      <trkpt lat="47.77057" lon="-3.52545">
        <ele>3</ele>
        <time>2021-08-14T10:23:03Z</time>
      </trkpt>
      <trkpt lat="47.77054" lon="-3.52541">
        <ele>3</ele>
        <time>2021-08-14T10:23:04Z</time>
      </trkpt>
      <trkpt lat="47.77051" lon="-3.52537">
        <ele>3</ele>
        <time>2021-08-14T10:23:05Z</time>
      </trkpt>
      <trkpt lat="47.77047" lon="-3.52534">
        <ele>3</ele>
        <time>2021-08-14T10:23:06Z</time>
      </trkpt>
      <trkpt lat="47.77044" lon="-3.5253">
        <ele>3</ele>
        <time>2021-08-14T10:23:07Z</time>
      </trkpt>
      <trkpt lat="47.7704" lon="-3.52527">
        <ele>3</ele>
        <time>2021-08-14T10:23:08Z</time>
      </trkpt>
      <trkpt lat="47.77036" lon="-3.52524">
        <ele>2.8</ele>
        <time>2021-08-14T10:23:09Z</time>
      </trkpt>
      <trkpt lat="47.77032" lon="-3.52521">
        <ele>2.8</ele>
        <time>2021-08-14T10:23:10Z</time>
      </trkpt>
      <trkpt lat="47.77028" lon="-3.52518">
        <ele>2.8</ele>
        <time>2021-08-14T10:23:11Z</time>
      </trkpt>
      <trkpt lat="47.77024" lon="-3.52516">
        <ele>2.8</ele>
        <time>2021-08-14T10:23:12Z</time>
      </trkpt>
      <trkpt lat="47.77019" lon="-3.52513">
        <ele>2.8</ele>
        <time>2021-08-14T10:23:13Z</time>
      </trkpt>
      <trkpt lat="47.77015" lon="-3.52511">
        <ele>2.8</ele>
        <time>2021-08-14T10:23:14Z</time>
      </trkpt>
      <trkpt lat="47.7701" lon="-3.52509">
        <ele>2.8</ele>
        <time>2021-08-14T10:23:15Z</time>
      </trkpt>
      <trkpt lat="47.77006" lon="-3.52508">
        <ele>2.8</ele>
        <time>2021-08-14T10:23:16Z</time>
      </trkpt>
      <trkpt lat="47.77001" lon="-3.52506">
        <ele>2.6</ele>
        <time>2021-08-14T10:23:17Z</time>
      </trkpt>
      <trkpt lat="47.76997" lon="-3.52504">
        <ele>2.6</ele>
        <time>2021-08-14T10:23:18Z</time>
      </trkpt>
      <trkpt lat="47.76993" lon="-3.52504">
        <ele>2.6</ele>
        <time>2021-08-14T10:23:19Z</time>
      </trkpt>
      <trkpt lat="47.76989" lon="-3.52503">
        <ele>2.6</ele>
        <time>2021-08-14T10:23:20Z</time>
      </trkpt>
      <trkpt lat="47.76986" lon="-3.52502">
        <ele>2.6</ele>
        <time>2021-08-14T10:23:21Z</time>
      </trkpt>
      <trkpt lat="47.76982" lon="-3.52501">
        <ele>2.6</ele>
        <time>2021-08-14T10:23:22Z</time>
      </trkpt>
      <trkpt lat="47.76978" lon="-3.525">
        <ele>2.6</ele>
        <time>2021-08-14T10:23:23Z</time>
      </trkpt>
      <trkpt lat="47.76974" lon="-3.52498">
        <ele>2.6</ele>
        <time>2021-08-14T10:23:24Z</time>
      </trkpt>
      <trkpt lat="47.7697" lon="-3.52498">
        <ele>2.6</ele>
        <time>2021-08-14T10:23:25Z</time>
      </trkpt>
      <trkpt lat="47.76966" lon="-3.52497">
        <ele>2.6</ele>
        <time>2021-08-14T10:23:26Z</time>
      </trkpt>
      <trkpt lat="47.76962" lon="-3.52497">
        <ele>2.6</ele>
        <time>2021-08-14T10:23:27Z</time>
      </trkpt>
      <trkpt lat="47.76959" lon="-3.52497">
        <ele>2.6</ele>
        <time>2021-08-14T10:23:28Z</time>
      </trkpt>
      <trkpt lat="47.76955" lon="-3.52496">
        <ele>2.6</ele>
        <time>2021-08-14T10:23:29Z</time>
      </trkpt>
      <trkpt lat="47.76952" lon="-3.52494">
        <ele>2.8</ele>
        <time>2021-08-14T10:23:30Z</time>
      </trkpt>
      <trkpt lat="47.76948" lon="-3.52493">
        <ele>3</ele>
        <time>2021-08-14T10:23:31Z</time>
      </trkpt>
      <trkpt lat="47.76944" lon="-3.52492">
        <ele>3</ele>
        <time>2021-08-14T10:23:32Z</time>
      </trkpt>
      <trkpt lat="47.7694" lon="-3.52491">
        <ele>3.2</ele>
        <time>2021-08-14T10:23:33Z</time>
      </trkpt>
      <trkpt lat="47.76936" lon="-3.5249">
        <ele>3.4</ele>
        <time>2021-08-14T10:23:34Z</time>
      </trkpt>
      <trkpt lat="47.76932" lon="-3.52489">
        <ele>3.4</ele>
        <time>2021-08-14T10:23:35Z</time>
      </trkpt>
      <trkpt lat="47.76929" lon="-3.52488">
        <ele>3.4</ele>
        <time>2021-08-14T10:23:36Z</time>
      </trkpt>
      <trkpt lat="47.76925" lon="-3.52487">
        <ele>3.6</ele>
        <time>2021-08-14T10:23:37Z</time>
      </trkpt>
      <trkpt lat="47.76923" lon="-3.52486">
        <ele>3.6</ele>
        <time>2021-08-14T10:23:38Z</time>
      </trkpt>
      <trkpt lat="47.7692" lon="-3.52483">
        <ele>3.6</ele>
        <time>2021-08-14T10:23:39Z</time>
      </trkpt>
      <trkpt lat="47.76918" lon="-3.52481">
        <ele>3.6</ele>
        <time>2021-08-14T10:23:40Z</time>
      </trkpt>
      <trkpt lat="47.76915" lon="-3.5248">
        <ele>3.6</ele>
        <time>2021-08-14T10:23:41Z</time>
      </trkpt>
      <trkpt lat="47.76911" lon="-3.52479">
        <ele>3.6</ele>
        <time>2021-08-14T10:23:42Z</time>
      </trkpt>
      <trkpt lat="47.76908" lon="-3.52478">
        <ele>3.6</ele>
        <time>2021-08-14T10:23:43Z</time>
      </trkpt>
      <trkpt lat="47.76904" lon="-3.52477">
        <ele>3.6</ele>
        <time>2021-08-14T10:23:44Z</time>
      </trkpt>
      <trkpt lat="47.769" lon="-3.52476">
        <ele>3.6</ele>
        <time>2021-08-14T10:23:45Z</time>
      </trkpt>
      <trkpt lat="47.76896" lon="-3.52475">
        <ele>3.6</ele>
        <time>2021-08-14T10:23:46Z</time>
      </trkpt>
      <trkpt lat="47.76892" lon="-3.52474">
        <ele>3.6</ele>
        <time>2021-08-14T10:23:47Z</time>
      </trkpt>
      <trkpt lat="47.76888" lon="-3.52473">
        <ele>3.6</ele>
        <time>2021-08-14T10:23:48Z</time>
      </trkpt>
      <trkpt lat="47.76883" lon="-3.52472">
        <ele>3.6</ele>
        <time>2021-08-14T10:23:49Z</time>
      </trkpt>
      <trkpt lat="47.76879" lon="-3.52472">
        <ele>3.6</ele>
        <time>2021-08-14T10:23:50Z</time>
      </trkpt>
      <trkpt lat="47.76875" lon="-3.52471">
        <ele>3.6</ele>
        <time>2021-08-14T10:23:51Z</time>
      </trkpt>
      <trkpt lat="47.7687" lon="-3.5247">
        <ele>3.4</ele>
        <time>2021-08-14T10:23:52Z</time>
      </trkpt>
      <trkpt lat="47.76866" lon="-3.52468">
        <ele>3.4</ele>
        <time>2021-08-14T10:23:53Z</time>
      </trkpt>
      <trkpt lat="47.76861" lon="-3.52468">
        <ele>3.2</ele>
        <time>2021-08-14T10:23:54Z</time>
      </trkpt>
      <trkpt lat="47.76857" lon="-3.52467">
        <ele>3.2</ele>
        <time>2021-08-14T10:23:55Z</time>
      </trkpt>
      <trkpt lat="47.76852" lon="-3.52466">
        <ele>3.2</ele>
        <time>2021-08-14T10:23:56Z</time>
      </trkpt>
      <trkpt lat="47.76848" lon="-3.52464">
        <ele>3</ele>
        <time>2021-08-14T10:23:57Z</time>
      </trkpt>
      <trkpt lat="47.76843" lon="-3.52463">
        <ele>3</ele>
        <time>2021-08-14T10:23:58Z</time>
      </trkpt>
      <trkpt lat="47.76839" lon="-3.52462">
        <ele>3</ele>
        <time>2021-08-14T10:23:59Z</time>
      </trkpt>
      <trkpt lat="47.76834" lon="-3.52461">
        <ele>3</ele>
        <time>2021-08-14T10:24:00Z</time>
      </trkpt>
      <trkpt lat="47.76829" lon="-3.5246">
        <ele>3</ele>
        <time>2021-08-14T10:24:01Z</time>
      </trkpt>
      <trkpt lat="47.76825" lon="-3.52459">
        <ele>3</ele>
        <time>2021-08-14T10:24:02Z</time>
      </trkpt>
      <trkpt lat="47.7682" lon="-3.52458">
        <ele>3.2</ele>
        <time>2021-08-14T10:24:03Z</time>
      </trkpt>
      <trkpt lat="47.76816" lon="-3.52457">
        <ele>3.2</ele>
        <time>2021-08-14T10:24:04Z</time>
      </trkpt>
      <trkpt lat="47.76811" lon="-3.52456">
        <ele>3.2</ele>
        <time>2021-08-14T10:24:05Z</time>
      </trkpt>
      <trkpt lat="47.76807" lon="-3.52455">
        <ele>3.2</ele>
        <time>2021-08-14T10:24:06Z</time>
      </trkpt>
      <trkpt lat="47.76802" lon="-3.52454">
        <ele>3.4</ele>
        <time>2021-08-14T10:24:07Z</time>
      </trkpt>
      <trkpt lat="47.76798" lon="-3.52453">
        <ele>3.4</ele>
        <time>2021-08-14T10:24:08Z</time>
      </trkpt>
      <trkpt lat="47.76794" lon="-3.52452">
        <ele>3.4</ele>
        <time>2021-08-14T10:24:09Z</time>
      </trkpt>
      <trkpt lat="47.7679" lon="-3.52451">
        <ele>3.4</ele>
        <time>2021-08-14T10:24:10Z</time>
      </trkpt>
      <trkpt lat="47.76786" lon="-3.5245">
        <ele>3.4</ele>
        <time>2021-08-14T10:24:11Z</time>
      </trkpt>
      <trkpt lat="47.76782" lon="-3.52449">
        <ele>3.4</ele>
        <time>2021-08-14T10:24:12Z</time>
      </trkpt>
      <trkpt lat="47.76777" lon="-3.52448">
        <ele>3.6</ele>
        <time>2021-08-14T10:24:13Z</time>
      </trkpt>
      <trkpt lat="47.76773" lon="-3.52447">
        <ele>3.6</ele>
        <time>2021-08-14T10:24:14Z</time>
      </trkpt>
      <trkpt lat="47.76769" lon="-3.52446">
        <ele>3.6</ele>
        <time>2021-08-14T10:24:15Z</time>
      </trkpt>
      <trkpt lat="47.76764" lon="-3.52445">
        <ele>4</ele>
        <time>2021-08-14T10:24:16Z</time>
      </trkpt>
      <trkpt lat="47.76759" lon="-3.52444">
        <ele>4</ele>
        <time>2021-08-14T10:24:17Z</time>
      </trkpt>
      <trkpt lat="47.76755" lon="-3.52443">
        <ele>4.2</ele>
        <time>2021-08-14T10:24:18Z</time>
      </trkpt>
      <trkpt lat="47.7675" lon="-3.52442">
        <ele>4.2</ele>
        <time>2021-08-14T10:24:19Z</time>
      </trkpt>
      <trkpt lat="47.76745" lon="-3.52441">
        <ele>4.4</ele>
        <time>2021-08-14T10:24:20Z</time>
      </trkpt>
      <trkpt lat="47.7674" lon="-3.5244">
        <ele>4.6</ele>
        <time>2021-08-14T10:24:21Z</time>
      </trkpt>
      <trkpt lat="47.76736" lon="-3.52439">
        <ele>4.6</ele>
        <time>2021-08-14T10:24:22Z</time>
      </trkpt>
      <trkpt lat="47.76731" lon="-3.52438">
        <ele>4.6</ele>
        <time>2021-08-14T10:24:23Z</time>
      </trkpt>
      <trkpt lat="47.76726" lon="-3.52437">
        <ele>4.6</ele>
        <time>2021-08-14T10:24:24Z</time>
      </trkpt>
      <trkpt lat="47.76722" lon="-3.52435">
        <ele>4.8</ele>
        <time>2021-08-14T10:24:25Z</time>
      </trkpt>
      <trkpt lat="47.76717" lon="-3.52434">
        <ele>4.8</ele>
        <time>2021-08-14T10:24:26Z</time>
      </trkpt>
      <trkpt lat="47.76712" lon="-3.52433">
        <ele>4.8</ele>
        <time>2021-08-14T10:24:27Z</time>
      </trkpt>
      <trkpt lat="47.76707" lon="-3.52432">
        <ele>4.8</ele>
        <time>2021-08-14T10:24:28Z</time>
      </trkpt>
      <trkpt lat="47.76703" lon="-3.52431">
        <ele>4.8</ele>
        <time>2021-08-14T10:24:29Z</time>
      </trkpt>
      <trkpt lat="47.76698" lon="-3.5243">
        <ele>4.8</ele>
        <time>2021-08-14T10:24:30Z</time>
      </trkpt>
      <trkpt lat="47.76693" lon="-3.52429">
        <ele>4.8</ele>
        <time>2021-08-14T10:24:31Z</time>
      </trkpt>
      <trkpt lat="47.76688" lon="-3.52428">
        <ele>4.8</ele>
        <time>2021-08-14T10:24:32Z</time>
      </trkpt>
      <trkpt lat="47.76683" lon="-3.52426">
        <ele>4.8</ele>
        <time>2021-08-14T10:24:33Z</time>
      </trkpt>
      <trkpt lat="47.76678" lon="-3.52425">
        <ele>4.8</ele>
        <time>2021-08-14T10:24:34Z</time>
      </trkpt>
      <trkpt lat="47.76673" lon="-3.52424">
        <ele>4.8</ele>
        <time>2021-08-14T10:24:35Z</time>
      </trkpt>
      <trkpt lat="47.76668" lon="-3.52423">
        <ele>4.6</ele>
        <time>2021-08-14T10:24:36Z</time>
      </trkpt>
      <trkpt lat="47.76663" lon="-3.52422">
        <ele>4.6</ele>
        <time>2021-08-14T10:24:37Z</time>
      </trkpt>
      <trkpt lat="47.76657" lon="-3.52421">
        <ele>4.6</ele>
        <time>2021-08-14T10:24:38Z</time>
      </trkpt>
      <trkpt lat="47.76652" lon="-3.52419">
        <ele>4.6</ele>
        <time>2021-08-14T10:24:39Z</time>
      </trkpt>
      <trkpt lat="47.76647" lon="-3.52418">
        <ele>4.6</ele>
        <time>2021-08-14T10:24:40Z</time>
      </trkpt>
      <trkpt lat="47.76642" lon="-3.52417">
        <ele>4.6</ele>
        <time>2021-08-14T10:24:41Z</time>
      </trkpt>
      <trkpt lat="47.76636" lon="-3.52416">
        <ele>4.6</ele>
        <time>2021-08-14T10:24:42Z</time>
      </trkpt>
      <trkpt lat="47.76631" lon="-3.52415">
        <ele>4.6</ele>
        <time>2021-08-14T10:24:43Z</time>
      </trkpt>
      <trkpt lat="47.76626" lon="-3.52414">
        <ele>4.6</ele>
        <time>2021-08-14T10:24:44Z</time>
      </trkpt>
      <trkpt lat="47.76621" lon="-3.52412">
        <ele>4.6</ele>
        <time>2021-08-14T10:24:45Z</time>
      </trkpt>
      <trkpt lat="47.76616" lon="-3.52411">
        <ele>4.6</ele>
        <time>2021-08-14T10:24:46Z</time>
      </trkpt>
      <trkpt lat="47.76611" lon="-3.5241">
        <ele>4.6</ele>
        <time>2021-08-14T10:24:47Z</time>
      </trkpt>
      <trkpt lat="47.76606" lon="-3.52409">
        <ele>4.6</ele>
        <time>2021-08-14T10:24:48Z</time>
      </trkpt>
      <trkpt lat="47.76601" lon="-3.52407">
        <ele>4.6</ele>
        <time>2021-08-14T10:24:49Z</time>
      </trkpt>
      <trkpt lat="47.76596" lon="-3.52406">
        <ele>4.6</ele>
        <time>2021-08-14T10:24:50Z</time>
      </trkpt>
      <trkpt lat="47.76591" lon="-3.52405">
        <ele>4.8</ele>
        <time>2021-08-14T10:24:51Z</time>
      </trkpt>
      <trkpt lat="47.76586" lon="-3.52404">
        <ele>5</ele>
        <time>2021-08-14T10:24:52Z</time>
      </trkpt>
      <trkpt lat="47.76581" lon="-3.52403">
        <ele>5.2</ele>
        <time>2021-08-14T10:24:53Z</time>
      </trkpt>
      <trkpt lat="47.76576" lon="-3.52402">
        <ele>5.2</ele>
        <time>2021-08-14T10:24:54Z</time>
      </trkpt>
      <trkpt lat="47.76572" lon="-3.52401">
        <ele>5.4</ele>
        <time>2021-08-14T10:24:55Z</time>
      </trkpt>
      <trkpt lat="47.76567" lon="-3.52399">
        <ele>5.4</ele>
        <time>2021-08-14T10:24:56Z</time>
      </trkpt>
      <trkpt lat="47.76562" lon="-3.52398">
        <ele>5.6</ele>
        <time>2021-08-14T10:24:57Z</time>
      </trkpt>
      <trkpt lat="47.76557" lon="-3.52397">
        <ele>5.6</ele>
        <time>2021-08-14T10:24:58Z</time>
      </trkpt>
      <trkpt lat="47.76552" lon="-3.52396">
        <ele>5.6</ele>
        <time>2021-08-14T10:24:59Z</time>
      </trkpt>
      <trkpt lat="47.76548" lon="-3.52394">
        <ele>5.6</ele>
        <time>2021-08-14T10:25:00Z</time>
      </trkpt>
      <trkpt lat="47.76543" lon="-3.52393">
        <ele>5.8</ele>
        <time>2021-08-14T10:25:01Z</time>
      </trkpt>
      <trkpt lat="47.76538" lon="-3.52391">
        <ele>5.8</ele>
        <time>2021-08-14T10:25:02Z</time>
      </trkpt>
      <trkpt lat="47.76534" lon="-3.5239">
        <ele>5.8</ele>
        <time>2021-08-14T10:25:03Z</time>
      </trkpt>
      <trkpt lat="47.7653" lon="-3.52388">
        <ele>5.8</ele>
        <time>2021-08-14T10:25:04Z</time>
      </trkpt>
      <trkpt lat="47.76526" lon="-3.52387">
        <ele>6</ele>
        <time>2021-08-14T10:25:05Z</time>
      </trkpt>
      <trkpt lat="47.76521" lon="-3.52385">
        <ele>6</ele>
        <time>2021-08-14T10:25:06Z</time>
      </trkpt>
      <trkpt lat="47.76517" lon="-3.52384">
        <ele>6</ele>
        <time>2021-08-14T10:25:07Z</time>
      </trkpt>
      <trkpt lat="47.76512" lon="-3.52382">
        <ele>6</ele>
        <time>2021-08-14T10:25:08Z</time>
      </trkpt>
      <trkpt lat="47.76508" lon="-3.5238">
        <ele>6</ele>
        <time>2021-08-14T10:25:09Z</time>
      </trkpt>
      <trkpt lat="47.76503" lon="-3.52378">
        <ele>6</ele>
        <time>2021-08-14T10:25:10Z</time>
      </trkpt>
      <trkpt lat="47.76499" lon="-3.52376">
        <ele>6</ele>
        <time>2021-08-14T10:25:11Z</time>
      </trkpt>
      <trkpt lat="47.76494" lon="-3.52374">
        <ele>6</ele>
        <time>2021-08-14T10:25:12Z</time>
      </trkpt>
      <trkpt lat="47.76489" lon="-3.52371">
        <ele>6</ele>
        <time>2021-08-14T10:25:13Z</time>
      </trkpt>
      <trkpt lat="47.76484" lon="-3.52369">
        <ele>6</ele>
        <time>2021-08-14T10:25:14Z</time>
      </trkpt>
      <trkpt lat="47.76479" lon="-3.52367">
        <ele>6</ele>
        <time>2021-08-14T10:25:15Z</time>
      </trkpt>
      <trkpt lat="47.76474" lon="-3.52365">
        <ele>6</ele>
        <time>2021-08-14T10:25:16Z</time>
      </trkpt>
      <trkpt lat="47.76469" lon="-3.52362">
        <ele>6</ele>
        <time>2021-08-14T10:25:17Z</time>
      </trkpt>
      <trkpt lat="47.76463" lon="-3.52359">
        <ele>6</ele>
        <time>2021-08-14T10:25:18Z</time>
      </trkpt>
      <trkpt lat="47.76458" lon="-3.52357">
        <ele>6</ele>
        <time>2021-08-14T10:25:19Z</time>
      </trkpt>
      <trkpt lat="47.76452" lon="-3.52355">
        <ele>6</ele>
        <time>2021-08-14T10:25:20Z</time>
      </trkpt>
      <trkpt lat="47.76447" lon="-3.52352">
        <ele>5.8</ele>
        <time>2021-08-14T10:25:21Z</time>
      </trkpt>
      <trkpt lat="47.76441" lon="-3.52349">
        <ele>5.8</ele>
        <time>2021-08-14T10:25:22Z</time>
      </trkpt>
      <trkpt lat="47.76435" lon="-3.52347">
        <ele>5.8</ele>
        <time>2021-08-14T10:25:23Z</time>
      </trkpt>
      <trkpt lat="47.7643" lon="-3.52344">
        <ele>5.6</ele>
        <time>2021-08-14T10:25:24Z</time>
      </trkpt>
      <trkpt lat="47.76424" lon="-3.52341">
        <ele>5.4</ele>
        <time>2021-08-14T10:25:25Z</time>
      </trkpt>
      <trkpt lat="47.76418" lon="-3.52339">
        <ele>5</ele>
        <time>2021-08-14T10:25:26Z</time>
      </trkpt>
      <trkpt lat="47.76413" lon="-3.52336">
        <ele>4.8</ele>
        <time>2021-08-14T10:25:27Z</time>
      </trkpt>
      <trkpt lat="47.76407" lon="-3.52333">
        <ele>4.4</ele>
        <time>2021-08-14T10:25:28Z</time>
      </trkpt>
      <trkpt lat="47.76401" lon="-3.52331">
        <ele>4.2</ele>
        <time>2021-08-14T10:25:29Z</time>
      </trkpt>
      <trkpt lat="47.76395" lon="-3.52328">
        <ele>4.2</ele>
        <time>2021-08-14T10:25:30Z</time>
      </trkpt>
      <trkpt lat="47.76389" lon="-3.52325">
        <ele>4</ele>
        <time>2021-08-14T10:25:31Z</time>
      </trkpt>
      <trkpt lat="47.76383" lon="-3.52322">
        <ele>3.8</ele>
        <time>2021-08-14T10:25:32Z</time>
      </trkpt>
      <trkpt lat="47.76378" lon="-3.52319">
        <ele>3.6</ele>
        <time>2021-08-14T10:25:33Z</time>
      </trkpt>
      <trkpt lat="47.76372" lon="-3.52316">
        <ele>3.4</ele>
        <time>2021-08-14T10:25:34Z</time>
      </trkpt>
      <trkpt lat="47.76367" lon="-3.52313">
        <ele>3.2</ele>
        <time>2021-08-14T10:25:35Z</time>
      </trkpt>
      <trkpt lat="47.76361" lon="-3.5231">
        <ele>3.2</ele>
        <time>2021-08-14T10:25:36Z</time>
      </trkpt>
      <trkpt lat="47.76356" lon="-3.52308">
        <ele>3.2</ele>
        <time>2021-08-14T10:25:37Z</time>
      </trkpt>
      <trkpt lat="47.7635" lon="-3.52305">
        <ele>3.2</ele>
        <time>2021-08-14T10:25:38Z</time>
      </trkpt>
      <trkpt lat="47.76345" lon="-3.52303">
        <ele>3.2</ele>
        <time>2021-08-14T10:25:39Z</time>
      </trkpt>
      <trkpt lat="47.7634" lon="-3.523">
        <ele>3.2</ele>
        <time>2021-08-14T10:25:40Z</time>
      </trkpt>
      <trkpt lat="47.76334" lon="-3.52297">
        <ele>3.2</ele>
        <time>2021-08-14T10:25:41Z</time>
      </trkpt>
      <trkpt lat="47.76329" lon="-3.52295">
        <ele>3.2</ele>
        <time>2021-08-14T10:25:42Z</time>
      </trkpt>
      <trkpt lat="47.76324" lon="-3.52293">
        <ele>3.2</ele>
        <time>2021-08-14T10:25:43Z</time>
      </trkpt>
      <trkpt lat="47.76319" lon="-3.52291">
        <ele>3.2</ele>
        <time>2021-08-14T10:25:44Z</time>
      </trkpt>
      <trkpt lat="47.76314" lon="-3.52289">
        <ele>3.2</ele>
        <time>2021-08-14T10:25:45Z</time>
      </trkpt>
      <trkpt lat="47.7631" lon="-3.52286">
        <ele>3.4</ele>
        <time>2021-08-14T10:25:46Z</time>
      </trkpt>
      <trkpt lat="47.76305" lon="-3.52284">
        <ele>3.4</ele>
        <time>2021-08-14T10:25:47Z</time>
      </trkpt>
      <trkpt lat="47.763" lon="-3.52282">
        <ele>3.4</ele>
        <time>2021-08-14T10:25:48Z</time>
      </trkpt>
      <trkpt lat="47.76295" lon="-3.52279">
        <ele>3.6</ele>
        <time>2021-08-14T10:25:49Z</time>
      </trkpt>
      <trkpt lat="47.7629" lon="-3.52277">
        <ele>3.8</ele>
        <time>2021-08-14T10:25:50Z</time>
      </trkpt>
      <trkpt lat="47.76286" lon="-3.52275">
        <ele>3.8</ele>
        <time>2021-08-14T10:25:51Z</time>
      </trkpt>
      <trkpt lat="47.76281" lon="-3.52273">
        <ele>3.8</ele>
        <time>2021-08-14T10:25:52Z</time>
      </trkpt>
      <trkpt lat="47.76277" lon="-3.52271">
        <ele>3.8</ele>
        <time>2021-08-14T10:25:53Z</time>
      </trkpt>
      <trkpt lat="47.76272" lon="-3.52269">
        <ele>4</ele>
        <time>2021-08-14T10:25:54Z</time>
      </trkpt>
      <trkpt lat="47.76268" lon="-3.52267">
        <ele>4</ele>
        <time>2021-08-14T10:25:55Z</time>
      </trkpt>
      <trkpt lat="47.76264" lon="-3.52265">
        <ele>4</ele>
        <time>2021-08-14T10:25:56Z</time>
      </trkpt>
      <trkpt lat="47.76259" lon="-3.52263">
        <ele>4.2</ele>
        <time>2021-08-14T10:25:57Z</time>
      </trkpt>
      <trkpt lat="47.76255" lon="-3.52261">
        <ele>4.4</ele>
        <time>2021-08-14T10:25:58Z</time>
      </trkpt>
      <trkpt lat="47.76251" lon="-3.52259">
        <ele>4.6</ele>
        <time>2021-08-14T10:25:59Z</time>
      </trkpt>
      <trkpt lat="47.76247" lon="-3.52257">
        <ele>4.6</ele>
        <time>2021-08-14T10:26:00Z</time>
      </trkpt>
      <trkpt lat="47.76243" lon="-3.52256">
        <ele>4.8</ele>
        <time>2021-08-14T10:26:01Z</time>
      </trkpt>
      <trkpt lat="47.7624" lon="-3.52254">
        <ele>4.8</ele>
        <time>2021-08-14T10:26:02Z</time>
      </trkpt>
      <trkpt lat="47.76236" lon="-3.52253">
        <ele>4.8</ele>
        <time>2021-08-14T10:26:03Z</time>
      </trkpt>
      <trkpt lat="47.76232" lon="-3.52251">
        <ele>5</ele>
        <time>2021-08-14T10:26:04Z</time>
      </trkpt>
      <trkpt lat="47.76228" lon="-3.5225">
        <ele>5</ele>
        <time>2021-08-14T10:26:05Z</time>
      </trkpt>
      <trkpt lat="47.76224" lon="-3.52249">
        <ele>5</ele>
        <time>2021-08-14T10:26:06Z</time>
      </trkpt>
      <trkpt lat="47.7622" lon="-3.52247">
        <ele>5.4</ele>
        <time>2021-08-14T10:26:07Z</time>
      </trkpt>
      <trkpt lat="47.76216" lon="-3.52245">
        <ele>5.4</ele>
        <time>2021-08-14T10:26:08Z</time>
      </trkpt>
      <trkpt lat="47.76212" lon="-3.52243">
        <ele>5.6</ele>
        <time>2021-08-14T10:26:09Z</time>
      </trkpt>
      <trkpt lat="47.76208" lon="-3.52241">
        <ele>5.6</ele>
        <time>2021-08-14T10:26:10Z</time>
      </trkpt>
      <trkpt lat="47.76204" lon="-3.52239">
        <ele>5.6</ele>
        <time>2021-08-14T10:26:11Z</time>
      </trkpt>
      <trkpt lat="47.76199" lon="-3.52238">
        <ele>5.8</ele>
        <time>2021-08-14T10:26:12Z</time>
      </trkpt>
      <trkpt lat="47.76195" lon="-3.52236">
        <ele>5.8</ele>
        <time>2021-08-14T10:26:13Z</time>
      </trkpt>
      <trkpt lat="47.76191" lon="-3.52234">
        <ele>5.8</ele>
        <time>2021-08-14T10:26:14Z</time>
      </trkpt>
      <trkpt lat="47.76187" lon="-3.52232">
        <ele>5.8</ele>
        <time>2021-08-14T10:26:15Z</time>
      </trkpt>
      <trkpt lat="47.76183" lon="-3.52229">
        <ele>5.8</ele>
        <time>2021-08-14T10:26:16Z</time>
      </trkpt>
      <trkpt lat="47.76178" lon="-3.52227">
        <ele>6</ele>
        <time>2021-08-14T10:26:17Z</time>
      </trkpt>
      <trkpt lat="47.76174" lon="-3.52225">
        <ele>6</ele>
        <time>2021-08-14T10:26:18Z</time>
      </trkpt>
      <trkpt lat="47.7617" lon="-3.52223">
        <ele>6</ele>
        <time>2021-08-14T10:26:19Z</time>
      </trkpt>
      <trkpt lat="47.76165" lon="-3.52222">
        <ele>6.2</ele>
        <time>2021-08-14T10:26:20Z</time>
      </trkpt>
      <trkpt lat="47.76161" lon="-3.5222">
        <ele>6.2</ele>
        <time>2021-08-14T10:26:21Z</time>
      </trkpt>
      <trkpt lat="47.76157" lon="-3.52218">
        <ele>6.2</ele>
        <time>2021-08-14T10:26:22Z</time>
      </trkpt>
      <trkpt lat="47.76152" lon="-3.52216">
        <ele>6.2</ele>
        <time>2021-08-14T10:26:23Z</time>
      </trkpt>
      <trkpt lat="47.76148" lon="-3.52214">
        <ele>6.4</ele>
        <time>2021-08-14T10:26:24Z</time>
      </trkpt>
      <trkpt lat="47.76144" lon="-3.52212">
        <ele>6.6</ele>
        <time>2021-08-14T10:26:25Z</time>
      </trkpt>
      <trkpt lat="47.7614" lon="-3.5221">
        <ele>6.8</ele>
        <time>2021-08-14T10:26:26Z</time>
      </trkpt>
      <trkpt lat="47.76137" lon="-3.52208">
        <ele>7</ele>
        <time>2021-08-14T10:26:27Z</time>
      </trkpt>
      <trkpt lat="47.76133" lon="-3.52207">
        <ele>7</ele>
        <time>2021-08-14T10:26:28Z</time>
      </trkpt>
      <trkpt lat="47.7613" lon="-3.52205">
        <ele>7.2</ele>
        <time>2021-08-14T10:26:29Z</time>
      </trkpt>
      <trkpt lat="47.76126" lon="-3.52204">
        <ele>7.2</ele>
        <time>2021-08-14T10:26:30Z</time>
      </trkpt>
      <trkpt lat="47.76122" lon="-3.52202">
        <ele>7.4</ele>
        <time>2021-08-14T10:26:31Z</time>
      </trkpt>
      <trkpt lat="47.76118" lon="-3.522">
        <ele>7.6</ele>
        <time>2021-08-14T10:26:32Z</time>
      </trkpt>
      <trkpt lat="47.76115" lon="-3.52198">
        <ele>7.6</ele>
        <time>2021-08-14T10:26:33Z</time>
      </trkpt>
      <trkpt lat="47.76111" lon="-3.52196">
        <ele>7.8</ele>
        <time>2021-08-14T10:26:34Z</time>
      </trkpt>
      <trkpt lat="47.76106" lon="-3.52195">
        <ele>7.8</ele>
        <time>2021-08-14T10:26:35Z</time>
      </trkpt>
      <trkpt lat="47.76102" lon="-3.52193">
        <ele>7.8</ele>
        <time>2021-08-14T10:26:36Z</time>
      </trkpt>
      <trkpt lat="47.76098" lon="-3.5219">
        <ele>8</ele>
        <time>2021-08-14T10:26:37Z</time>
      </trkpt>
      <trkpt lat="47.76094" lon="-3.52189">
        <ele>8</ele>
        <time>2021-08-14T10:26:38Z</time>
      </trkpt>
      <trkpt lat="47.7609" lon="-3.52187">
        <ele>8.2</ele>
        <time>2021-08-14T10:26:39Z</time>
      </trkpt>
      <trkpt lat="47.76087" lon="-3.52185">
        <ele>8.2</ele>
        <time>2021-08-14T10:26:40Z</time>
      </trkpt>
      <trkpt lat="47.76083" lon="-3.52183">
        <ele>8.4</ele>
        <time>2021-08-14T10:26:41Z</time>
      </trkpt>
      <trkpt lat="47.76079" lon="-3.52181">
        <ele>8.4</ele>
        <time>2021-08-14T10:26:42Z</time>
      </trkpt>
      <trkpt lat="47.76075" lon="-3.5218">
        <ele>8.4</ele>
        <time>2021-08-14T10:26:43Z</time>
      </trkpt>
      <trkpt lat="47.76071" lon="-3.52178">
        <ele>8.4</ele>
        <time>2021-08-14T10:26:44Z</time>
      </trkpt>
      <trkpt lat="47.76067" lon="-3.52176">
        <ele>8.4</ele>
        <time>2021-08-14T10:26:45Z</time>
      </trkpt>
      <trkpt lat="47.76063" lon="-3.52175">
        <ele>8.8</ele>
        <time>2021-08-14T10:26:46Z</time>
      </trkpt>
      <trkpt lat="47.76059" lon="-3.52173">
        <ele>8.8</ele>
        <time>2021-08-14T10:26:47Z</time>
      </trkpt>
      <trkpt lat="47.76055" lon="-3.52171">
        <ele>9</ele>
        <time>2021-08-14T10:26:48Z</time>
      </trkpt>
      <trkpt lat="47.76051" lon="-3.52169">
        <ele>9</ele>
        <time>2021-08-14T10:26:49Z</time>
      </trkpt>
      <trkpt lat="47.76047" lon="-3.52167">
        <ele>9</ele>
        <time>2021-08-14T10:26:50Z</time>
      </trkpt>
      <trkpt lat="47.76043" lon="-3.52165">
        <ele>9</ele>
        <time>2021-08-14T10:26:51Z</time>
      </trkpt>
      <trkpt lat="47.76039" lon="-3.52163">
        <ele>9</ele>
        <time>2021-08-14T10:26:52Z</time>
      </trkpt>
      <trkpt lat="47.76035" lon="-3.52161">
        <ele>9.2</ele>
        <time>2021-08-14T10:26:53Z</time>
      </trkpt>
      <trkpt lat="47.76031" lon="-3.5216">
        <ele>9.2</ele>
        <time>2021-08-14T10:26:54Z</time>
      </trkpt>
      <trkpt lat="47.76027" lon="-3.52158">
        <ele>9.2</ele>
        <time>2021-08-14T10:26:55Z</time>
      </trkpt>
      <trkpt lat="47.76022" lon="-3.52156">
        <ele>9.2</ele>
        <time>2021-08-14T10:26:56Z</time>
      </trkpt>
      <trkpt lat="47.76019" lon="-3.52154">
        <ele>9.2</ele>
        <time>2021-08-14T10:26:57Z</time>
      </trkpt>
      <trkpt lat="47.76015" lon="-3.52152">
        <ele>9.2</ele>
        <time>2021-08-14T10:26:58Z</time>
      </trkpt>
      <trkpt lat="47.76013" lon="-3.52151">
        <ele>9.2</ele>
        <time>2021-08-14T10:26:59Z</time>
      </trkpt>
      <trkpt lat="47.76011" lon="-3.52149">
        <ele>9.2</ele>
        <time>2021-08-14T10:27:00Z</time>
      </trkpt>
      <trkpt lat="47.76008" lon="-3.52148">
        <ele>9.2</ele>
        <time>2021-08-14T10:27:01Z</time>
      </trkpt>
      <trkpt lat="47.76006" lon="-3.52147">
        <ele>9.4</ele>
        <time>2021-08-14T10:27:02Z</time>
      </trkpt>
      <trkpt lat="47.76003" lon="-3.52146">
        <ele>9.4</ele>
        <time>2021-08-14T10:27:03Z</time>
      </trkpt>
      <trkpt lat="47.76" lon="-3.52145">
        <ele>9.4</ele>
        <time>2021-08-14T10:27:04Z</time>
      </trkpt>
      <trkpt lat="47.75997" lon="-3.52144">
        <ele>9.4</ele>
        <time>2021-08-14T10:27:05Z</time>
      </trkpt>
      <trkpt lat="47.75994" lon="-3.52143">
        <ele>9.4</ele>
        <time>2021-08-14T10:27:06Z</time>
      </trkpt>
      <trkpt lat="47.7599" lon="-3.52141">
        <ele>9.4</ele>
        <time>2021-08-14T10:27:07Z</time>
      </trkpt>
      <trkpt lat="47.75987" lon="-3.52139">
        <ele>9.6</ele>
        <time>2021-08-14T10:27:08Z</time>
      </trkpt>
      <trkpt lat="47.75983" lon="-3.52138">
        <ele>9.6</ele>
        <time>2021-08-14T10:27:09Z</time>
      </trkpt>
      <trkpt lat="47.7598" lon="-3.52136">
        <ele>9.6</ele>
        <time>2021-08-14T10:27:10Z</time>
      </trkpt>
      <trkpt lat="47.75976" lon="-3.52135">
        <ele>9.6</ele>
        <time>2021-08-14T10:27:11Z</time>
      </trkpt>
      <trkpt lat="47.75973" lon="-3.52133">
        <ele>9.6</ele>
        <time>2021-08-14T10:27:12Z</time>
      </trkpt>
      <trkpt lat="47.7597" lon="-3.52132">
        <ele>9.6</ele>
        <time>2021-08-14T10:27:13Z</time>
      </trkpt>
      <trkpt lat="47.75966" lon="-3.5213">
        <ele>9.8</ele>
        <time>2021-08-14T10:27:14Z</time>
      </trkpt>
      <trkpt lat="47.75964" lon="-3.52129">
        <ele>9.8</ele>
        <time>2021-08-14T10:27:15Z</time>
      </trkpt>
      <trkpt lat="47.75961" lon="-3.52127">
        <ele>9.8</ele>
        <time>2021-08-14T10:27:16Z</time>
      </trkpt>
      <trkpt lat="47.75959" lon="-3.52126">
        <ele>9.8</ele>
        <time>2021-08-14T10:27:17Z</time>
      </trkpt>
      <trkpt lat="47.75957" lon="-3.52126">
        <ele>9.8</ele>
        <time>2021-08-14T10:27:18Z</time>
      </trkpt>
      <trkpt lat="47.75955" lon="-3.52127">
        <ele>9.8</ele>
        <time>2021-08-14T10:27:19Z</time>
      </trkpt>
      <trkpt lat="47.75954" lon="-3.52128">
        <ele>9.8</ele>
        <time>2021-08-14T10:27:20Z</time>
      </trkpt>
      <trkpt lat="47.75952" lon="-3.52128">
        <ele>9.8</ele>
        <time>2021-08-14T10:27:21Z</time>
      </trkpt>
      <trkpt lat="47.75949" lon="-3.52127">
        <ele>10</ele>
        <time>2021-08-14T10:27:22Z</time>
      </trkpt>
      <trkpt lat="47.75947" lon="-3.52126">
        <ele>10</ele>
        <time>2021-08-14T10:27:23Z</time>
      </trkpt>
      <trkpt lat="47.75944" lon="-3.52124">
        <ele>10</ele>
        <time>2021-08-14T10:27:24Z</time>
      </trkpt>
      <trkpt lat="47.75941" lon="-3.52123">
        <ele>10</ele>
        <time>2021-08-14T10:27:25Z</time>
      </trkpt>
      <trkpt lat="47.75938" lon="-3.52121">
        <ele>10</ele>
        <time>2021-08-14T10:27:26Z</time>
      </trkpt>
      <trkpt lat="47.75935" lon="-3.5212">
        <ele>10</ele>
        <time>2021-08-14T10:27:27Z</time>
      </trkpt>
      <trkpt lat="47.75932" lon="-3.52118">
        <ele>10.2</ele>
        <time>2021-08-14T10:27:28Z</time>
      </trkpt>
      <trkpt lat="47.75929" lon="-3.52117">
        <ele>10.2</ele>
        <time>2021-08-14T10:27:29Z</time>
      </trkpt>
      <trkpt lat="47.75925" lon="-3.52116">
        <ele>10.2</ele>
        <time>2021-08-14T10:27:30Z</time>
      </trkpt>
      <trkpt lat="47.75922" lon="-3.52114">
        <ele>10.2</ele>
        <time>2021-08-14T10:27:31Z</time>
      </trkpt>
      <trkpt lat="47.75919" lon="-3.52113">
        <ele>10.2</ele>
        <time>2021-08-14T10:27:32Z</time>
      </trkpt>
      <trkpt lat="47.75915" lon="-3.52111">
        <ele>10.2</ele>
        <time>2021-08-14T10:27:33Z</time>
      </trkpt>
      <trkpt lat="47.75911" lon="-3.52109">
        <ele>10.2</ele>
        <time>2021-08-14T10:27:34Z</time>
      </trkpt>
      <trkpt lat="47.75908" lon="-3.52107">
        <ele>10.4</ele>
        <time>2021-08-14T10:27:35Z</time>
      </trkpt>
      <trkpt lat="47.75904" lon="-3.52105">
        <ele>10.4</ele>
        <time>2021-08-14T10:27:36Z</time>
      </trkpt>
      <trkpt lat="47.759" lon="-3.52103">
        <ele>10.4</ele>
        <time>2021-08-14T10:27:37Z</time>
      </trkpt>
      <trkpt lat="47.75896" lon="-3.52101">
        <ele>10.4</ele>
        <time>2021-08-14T10:27:38Z</time>
      </trkpt>
      <trkpt lat="47.75893" lon="-3.52098">
        <ele>10.4</ele>
        <time>2021-08-14T10:27:39Z</time>
      </trkpt>
      <trkpt lat="47.75889" lon="-3.52095">
        <ele>10.4</ele>
        <time>2021-08-14T10:27:40Z</time>
      </trkpt>
      <trkpt lat="47.75886" lon="-3.52093">
        <ele>10.4</ele>
        <time>2021-08-14T10:27:41Z</time>
      </trkpt>
      <trkpt lat="47.75882" lon="-3.5209">
        <ele>10.4</ele>
        <time>2021-08-14T10:27:42Z</time>
      </trkpt>
      <trkpt lat="47.75878" lon="-3.52087">
        <ele>10.4</ele>
        <time>2021-08-14T10:27:43Z</time>
      </trkpt>
      <trkpt lat="47.75874" lon="-3.52084">
        <ele>10.4</ele>
        <time>2021-08-14T10:27:44Z</time>
      </trkpt>
      <trkpt lat="47.7587" lon="-3.52081">
        <ele>10.6</ele>
        <time>2021-08-14T10:27:45Z</time>
      </trkpt>
      <trkpt lat="47.75866" lon="-3.52077">
        <ele>10.6</ele>
        <time>2021-08-14T10:27:46Z</time>
      </trkpt>
      <trkpt lat="47.75862" lon="-3.52073">
        <ele>10.6</ele>
        <time>2021-08-14T10:27:47Z</time>
      </trkpt>
      <trkpt lat="47.75858" lon="-3.5207">
        <ele>10.6</ele>
        <time>2021-08-14T10:27:48Z</time>
      </trkpt>
      <trkpt lat="47.75854" lon="-3.52066">
        <ele>10.6</ele>
        <time>2021-08-14T10:27:49Z</time>
      </trkpt>
      <trkpt lat="47.7585" lon="-3.52063">
        <ele>10.6</ele>
        <time>2021-08-14T10:27:50Z</time>
      </trkpt>
      <trkpt lat="47.75845" lon="-3.52059">
        <ele>10.6</ele>
        <time>2021-08-14T10:27:51Z</time>
      </trkpt>
      <trkpt lat="47.75841" lon="-3.52055">
        <ele>10.6</ele>
        <time>2021-08-14T10:27:52Z</time>
      </trkpt>
      <trkpt lat="47.75837" lon="-3.5205">
        <ele>10.6</ele>
        <time>2021-08-14T10:27:53Z</time>
      </trkpt>
      <trkpt lat="47.75833" lon="-3.52046">
        <ele>10.6</ele>
        <time>2021-08-14T10:27:54Z</time>
      </trkpt>
      <trkpt lat="47.75829" lon="-3.52041">
        <ele>10.6</ele>
        <time>2021-08-14T10:27:55Z</time>
      </trkpt>
      <trkpt lat="47.75825" lon="-3.52036">
        <ele>10.6</ele>
        <time>2021-08-14T10:27:56Z</time>
      </trkpt>
      <trkpt lat="47.7582" lon="-3.52031">
        <ele>10.6</ele>
        <time>2021-08-14T10:27:57Z</time>
      </trkpt>
      <trkpt lat="47.75816" lon="-3.52025">
        <ele>10.6</ele>
        <time>2021-08-14T10:27:58Z</time>
      </trkpt>
      <trkpt lat="47.75811" lon="-3.5202">
        <ele>10.6</ele>
        <time>2021-08-14T10:27:59Z</time>
      </trkpt>
      <trkpt lat="47.75808" lon="-3.52014">
        <ele>10.6</ele>
        <time>2021-08-14T10:28:00Z</time>
      </trkpt>
      <trkpt lat="47.75804" lon="-3.52009">
        <ele>10.6</ele>
        <time>2021-08-14T10:28:01Z</time>
      </trkpt>
      <trkpt lat="47.758" lon="-3.52004">
        <ele>10.6</ele>
        <time>2021-08-14T10:28:02Z</time>
      </trkpt>
      <trkpt lat="47.75797" lon="-3.51999">
        <ele>10.8</ele>
        <time>2021-08-14T10:28:03Z</time>
      </trkpt>
      <trkpt lat="47.75793" lon="-3.51993">
        <ele>10.8</ele>
        <time>2021-08-14T10:28:04Z</time>
      </trkpt>
      <trkpt lat="47.7579" lon="-3.51988">
        <ele>10.8</ele>
        <time>2021-08-14T10:28:05Z</time>
      </trkpt>
      <trkpt lat="47.75786" lon="-3.51984">
        <ele>10.8</ele>
        <time>2021-08-14T10:28:06Z</time>
      </trkpt>
      <trkpt lat="47.75783" lon="-3.51979">
        <ele>10.8</ele>
        <time>2021-08-14T10:28:07Z</time>
      </trkpt>
      <trkpt lat="47.7578" lon="-3.51975">
        <ele>10.8</ele>
        <time>2021-08-14T10:28:08Z</time>
      </trkpt>
      <trkpt lat="47.75777" lon="-3.5197">
        <ele>10.8</ele>
        <time>2021-08-14T10:28:09Z</time>
      </trkpt>
      <trkpt lat="47.75774" lon="-3.51966">
        <ele>10.8</ele>
        <time>2021-08-14T10:28:10Z</time>
      </trkpt>
      <trkpt lat="47.75771" lon="-3.51962">
        <ele>10.8</ele>
        <time>2021-08-14T10:28:11Z</time>
      </trkpt>
      <trkpt lat="47.75768" lon="-3.51958">
        <ele>10.8</ele>
        <time>2021-08-14T10:28:12Z</time>
      </trkpt>
      <trkpt lat="47.75765" lon="-3.51954">
        <ele>10.8</ele>
        <time>2021-08-14T10:28:13Z</time>
      </trkpt>
      <trkpt lat="47.75762" lon="-3.51949">
        <ele>11</ele>
        <time>2021-08-14T10:28:14Z</time>
      </trkpt>
      <trkpt lat="47.7576" lon="-3.51945">
        <ele>11</ele>
        <time>2021-08-14T10:28:15Z</time>
      </trkpt>
      <trkpt lat="47.75757" lon="-3.51941">
        <ele>11</ele>
        <time>2021-08-14T10:28:16Z</time>
      </trkpt>
      <trkpt lat="47.75754" lon="-3.51937">
        <ele>11</ele>
        <time>2021-08-14T10:28:17Z</time>
      </trkpt>
      <trkpt lat="47.75751" lon="-3.51933">
        <ele>11</ele>
        <time>2021-08-14T10:28:18Z</time>
      </trkpt>
      <trkpt lat="47.75749" lon="-3.51929">
        <ele>11</ele>
        <time>2021-08-14T10:28:19Z</time>
      </trkpt>
      <trkpt lat="47.75746" lon="-3.51925">
        <ele>11.2</ele>
        <time>2021-08-14T10:28:20Z</time>
      </trkpt>
      <trkpt lat="47.75743" lon="-3.51921">
        <ele>11.2</ele>
        <time>2021-08-14T10:28:21Z</time>
      </trkpt>
      <trkpt lat="47.7574" lon="-3.51917">
        <ele>11.2</ele>
        <time>2021-08-14T10:28:22Z</time>
      </trkpt>
      <trkpt lat="47.75737" lon="-3.51912">
        <ele>11.2</ele>
        <time>2021-08-14T10:28:23Z</time>
      </trkpt>
      <trkpt lat="47.75735" lon="-3.51906">
        <ele>11.2</ele>
        <time>2021-08-14T10:28:24Z</time>
      </trkpt>
      <trkpt lat="47.75733" lon="-3.51901">
        <ele>11.4</ele>
        <time>2021-08-14T10:28:25Z</time>
      </trkpt>
      <trkpt lat="47.7573" lon="-3.51896">
        <ele>11.4</ele>
        <time>2021-08-14T10:28:26Z</time>
      </trkpt>
      <trkpt lat="47.75728" lon="-3.51891">
        <ele>11.4</ele>
        <time>2021-08-14T10:28:27Z</time>
      </trkpt>
      <trkpt lat="47.75725" lon="-3.51886">
        <ele>11.4</ele>
        <time>2021-08-14T10:28:28Z</time>
      </trkpt>
      <trkpt lat="47.75723" lon="-3.51881">
        <ele>11.6</ele>
        <time>2021-08-14T10:28:29Z</time>
      </trkpt>
      <trkpt lat="47.75721" lon="-3.51876">
        <ele>11.6</ele>
        <time>2021-08-14T10:28:30Z</time>
      </trkpt>
      <trkpt lat="47.75719" lon="-3.51872">
        <ele>11.6</ele>
        <time>2021-08-14T10:28:31Z</time>
      </trkpt>
      <trkpt lat="47.75717" lon="-3.51867">
        <ele>11.6</ele>
        <time>2021-08-14T10:28:32Z</time>
      </trkpt>
      <trkpt lat="47.75715" lon="-3.51862">
        <ele>11.6</ele>
        <time>2021-08-14T10:28:33Z</time>
      </trkpt>
      <trkpt lat="47.75713" lon="-3.51857">
        <ele>11.6</ele>
        <time>2021-08-14T10:28:34Z</time>
      </trkpt>
      <trkpt lat="47.75712" lon="-3.51853">
        <ele>11.6</ele>
        <time>2021-08-14T10:28:35Z</time>
      </trkpt>
      <trkpt lat="47.75709" lon="-3.51848">
        <ele>11.6</ele>
        <time>2021-08-14T10:28:36Z</time>
      </trkpt>
      <trkpt lat="47.75707" lon="-3.51843">
        <ele>11.6</ele>
        <time>2021-08-14T10:28:37Z</time>
      </trkpt>
      <trkpt lat="47.75705" lon="-3.51838">
        <ele>11.6</ele>
        <time>2021-08-14T10:28:38Z</time>
      </trkpt>
      <trkpt lat="47.75703" lon="-3.51832">
        <ele>11.6</ele>
        <time>2021-08-14T10:28:39Z</time>
      </trkpt>
      <trkpt lat="47.75701" lon="-3.51826">
        <ele>11.6</ele>
        <time>2021-08-14T10:28:40Z</time>
      </trkpt>
      <trkpt lat="47.75699" lon="-3.51821">
        <ele>11.6</ele>
        <time>2021-08-14T10:28:41Z</time>
      </trkpt>
      <trkpt lat="47.75697" lon="-3.51815">
        <ele>11.4</ele>
        <time>2021-08-14T10:28:42Z</time>
      </trkpt>
      <trkpt lat="47.75696" lon="-3.51809">
        <ele>11.4</ele>
        <time>2021-08-14T10:28:43Z</time>
      </trkpt>
      <trkpt lat="47.75694" lon="-3.51803">
        <ele>11.4</ele>
        <time>2021-08-14T10:28:44Z</time>
      </trkpt>
      <trkpt lat="47.75693" lon="-3.51796">
        <ele>11.4</ele>
        <time>2021-08-14T10:28:45Z</time>
      </trkpt>
      <trkpt lat="47.75691" lon="-3.5179">
        <ele>11.4</ele>
        <time>2021-08-14T10:28:46Z</time>
      </trkpt>
      <trkpt lat="47.75689" lon="-3.51784">
        <ele>11.4</ele>
        <time>2021-08-14T10:28:47Z</time>
      </trkpt>
      <trkpt lat="47.75688" lon="-3.51778">
        <ele>11.2</ele>
        <time>2021-08-14T10:28:48Z</time>
      </trkpt>
      <trkpt lat="47.75685" lon="-3.51772">
        <ele>11</ele>
        <time>2021-08-14T10:28:49Z</time>
      </trkpt>
      <trkpt lat="47.75683" lon="-3.51765">
        <ele>11</ele>
        <time>2021-08-14T10:28:50Z</time>
      </trkpt>
      <trkpt lat="47.75681" lon="-3.51758">
        <ele>11</ele>
        <time>2021-08-14T10:28:51Z</time>
      </trkpt>
      <trkpt lat="47.75679" lon="-3.51751">
        <ele>10.8</ele>
        <time>2021-08-14T10:28:52Z</time>
      </trkpt>
      <trkpt lat="47.75677" lon="-3.51744">
        <ele>10.8</ele>
        <time>2021-08-14T10:28:53Z</time>
      </trkpt>
      <trkpt lat="47.75676" lon="-3.51737">
        <ele>10.6</ele>
        <time>2021-08-14T10:28:54Z</time>
      </trkpt>
      <trkpt lat="47.75673" lon="-3.51729">
        <ele>10.6</ele>
        <time>2021-08-14T10:28:55Z</time>
      </trkpt>
      <trkpt lat="47.75671" lon="-3.51722">
        <ele>10.4</ele>
        <time>2021-08-14T10:28:56Z</time>
      </trkpt>
      <trkpt lat="47.75669" lon="-3.51714">
        <ele>10.2</ele>
        <time>2021-08-14T10:28:57Z</time>
      </trkpt>
      <trkpt lat="47.75666" lon="-3.51706">
        <ele>10.2</ele>
        <time>2021-08-14T10:28:58Z</time>
      </trkpt>
      <trkpt lat="47.75664" lon="-3.51698">
        <ele>10</ele>
        <time>2021-08-14T10:28:59Z</time>
      </trkpt>
      <trkpt lat="47.75662" lon="-3.5169">
        <ele>9.8</ele>
        <time>2021-08-14T10:29:00Z</time>
      </trkpt>
      <trkpt lat="47.7566" lon="-3.51683">
        <ele>9.6</ele>
        <time>2021-08-14T10:29:01Z</time>
      </trkpt>
      <trkpt lat="47.75658" lon="-3.51676">
        <ele>9.4</ele>
        <time>2021-08-14T10:29:02Z</time>
      </trkpt>
      <trkpt lat="47.75655" lon="-3.51669">
        <ele>9.2</ele>
        <time>2021-08-14T10:29:03Z</time>
      </trkpt>
      <trkpt lat="47.75653" lon="-3.51662">
        <ele>9.2</ele>
        <time>2021-08-14T10:29:04Z</time>
      </trkpt>
      <trkpt lat="47.7565" lon="-3.51655">
        <ele>8.8</ele>
        <time>2021-08-14T10:29:05Z</time>
      </trkpt>
      <trkpt lat="47.75647" lon="-3.51648">
        <ele>8.6</ele>
        <time>2021-08-14T10:29:06Z</time>
      </trkpt>
      <trkpt lat="47.75644" lon="-3.51641">
        <ele>8.6</ele>
        <time>2021-08-14T10:29:07Z</time>
      </trkpt>
      <trkpt lat="47.75641" lon="-3.51634">
        <ele>8.2</ele>
        <time>2021-08-14T10:29:08Z</time>
      </trkpt>
      <trkpt lat="47.75637" lon="-3.51627">
        <ele>8</ele>
        <time>2021-08-14T10:29:09Z</time>
      </trkpt>
      <trkpt lat="47.75634" lon="-3.5162">
        <ele>7.6</ele>
        <time>2021-08-14T10:29:10Z</time>
      </trkpt>
      <trkpt lat="47.7563" lon="-3.51612">
        <ele>7.2</ele>
        <time>2021-08-14T10:29:11Z</time>
      </trkpt>
      <trkpt lat="47.75626" lon="-3.51605">
        <ele>7</ele>
        <time>2021-08-14T10:29:12Z</time>
      </trkpt>
      <trkpt lat="47.75623" lon="-3.51597">
        <ele>6.8</ele>
        <time>2021-08-14T10:29:13Z</time>
      </trkpt>
      <trkpt lat="47.75619" lon="-3.5159">
        <ele>6.6</ele>
        <time>2021-08-14T10:29:14Z</time>
      </trkpt>
      <trkpt lat="47.75615" lon="-3.51583">
        <ele>6.6</ele>
        <time>2021-08-14T10:29:15Z</time>
      </trkpt>
      <trkpt lat="47.75611" lon="-3.51576">
        <ele>6.4</ele>
        <time>2021-08-14T10:29:16Z</time>
      </trkpt>
      <trkpt lat="47.75607" lon="-3.5157">
        <ele>6.2</ele>
        <time>2021-08-14T10:29:17Z</time>
      </trkpt>
      <trkpt lat="47.75603" lon="-3.51563">
        <ele>6</ele>
        <time>2021-08-14T10:29:18Z</time>
      </trkpt>
      <trkpt lat="47.75598" lon="-3.51557">
        <ele>5.8</ele>
        <time>2021-08-14T10:29:19Z</time>
      </trkpt>
      <trkpt lat="47.75594" lon="-3.5155">
        <ele>5.8</ele>
        <time>2021-08-14T10:29:20Z</time>
      </trkpt>
      <trkpt lat="47.75589" lon="-3.51544">
        <ele>5.6</ele>
        <time>2021-08-14T10:29:21Z</time>
      </trkpt>
      <trkpt lat="47.75585" lon="-3.51538">
        <ele>5.6</ele>
        <time>2021-08-14T10:29:22Z</time>
      </trkpt>
      <trkpt lat="47.75581" lon="-3.51531">
        <ele>5.6</ele>
        <time>2021-08-14T10:29:23Z</time>
      </trkpt>
      <trkpt lat="47.75577" lon="-3.51525">
        <ele>5.4</ele>
        <time>2021-08-14T10:29:24Z</time>
      </trkpt>
      <trkpt lat="47.75573" lon="-3.5152">
        <ele>5.4</ele>
        <time>2021-08-14T10:29:25Z</time>
      </trkpt>
      <trkpt lat="47.75568" lon="-3.51514">
        <ele>5.4</ele>
        <time>2021-08-14T10:29:26Z</time>
      </trkpt>
      <trkpt lat="47.75564" lon="-3.51509">
        <ele>5.2</ele>
        <time>2021-08-14T10:29:27Z</time>
      </trkpt>
      <trkpt lat="47.7556" lon="-3.51504">
        <ele>5.2</ele>
        <time>2021-08-14T10:29:28Z</time>
      </trkpt>
      <trkpt lat="47.75555" lon="-3.51499">
        <ele>5.2</ele>
        <time>2021-08-14T10:29:29Z</time>
      </trkpt>
      <trkpt lat="47.75551" lon="-3.51494">
        <ele>5</ele>
        <time>2021-08-14T10:29:30Z</time>
      </trkpt>
      <trkpt lat="47.75548" lon="-3.51489">
        <ele>5</ele>
        <time>2021-08-14T10:29:31Z</time>
      </trkpt>
      <trkpt lat="47.75544" lon="-3.51484">
        <ele>5</ele>
        <time>2021-08-14T10:29:32Z</time>
      </trkpt>
      <trkpt lat="47.7554" lon="-3.51479">
        <ele>5</ele>
        <time>2021-08-14T10:29:33Z</time>
      </trkpt>
      <trkpt lat="47.75536" lon="-3.51474">
        <ele>5</ele>
        <time>2021-08-14T10:29:34Z</time>
      </trkpt>
      <trkpt lat="47.75533" lon="-3.51469">
        <ele>4.8</ele>
        <time>2021-08-14T10:29:35Z</time>
      </trkpt>
      <trkpt lat="47.7553" lon="-3.51464">
        <ele>4.8</ele>
        <time>2021-08-14T10:29:36Z</time>
      </trkpt>
      <trkpt lat="47.75527" lon="-3.51459">
        <ele>4.8</ele>
        <time>2021-08-14T10:29:37Z</time>
      </trkpt>
      <trkpt lat="47.75524" lon="-3.51454">
        <ele>4.8</ele>
        <time>2021-08-14T10:29:38Z</time>
      </trkpt>
      <trkpt lat="47.75521" lon="-3.51449">
        <ele>4.8</ele>
        <time>2021-08-14T10:29:39Z</time>
      </trkpt>
      <trkpt lat="47.75519" lon="-3.51444">
        <ele>4.8</ele>
        <time>2021-08-14T10:29:40Z</time>
      </trkpt>
      <trkpt lat="47.75516" lon="-3.5144">
        <ele>4.8</ele>
        <time>2021-08-14T10:29:41Z</time>
      </trkpt>
      <trkpt lat="47.75514" lon="-3.51436">
        <ele>4.8</ele>
        <time>2021-08-14T10:29:42Z</time>
      </trkpt>
      <trkpt lat="47.75511" lon="-3.51431">
        <ele>5</ele>
        <time>2021-08-14T10:29:43Z</time>
      </trkpt>
      <trkpt lat="47.75509" lon="-3.51427">
        <ele>5</ele>
        <time>2021-08-14T10:29:44Z</time>
      </trkpt>
      <trkpt lat="47.75506" lon="-3.51422">
        <ele>5</ele>
        <time>2021-08-14T10:29:45Z</time>
      </trkpt>
      <trkpt lat="47.75503" lon="-3.51417">
        <ele>5</ele>
        <time>2021-08-14T10:29:46Z</time>
      </trkpt>
      <trkpt lat="47.755" lon="-3.51412">
        <ele>5</ele>
        <time>2021-08-14T10:29:47Z</time>
      </trkpt>
      <trkpt lat="47.75496" lon="-3.51407">
        <ele>5</ele>
        <time>2021-08-14T10:29:48Z</time>
      </trkpt>
      <trkpt lat="47.75493" lon="-3.51402">
        <ele>5</ele>
        <time>2021-08-14T10:29:49Z</time>
      </trkpt>
      <trkpt lat="47.75489" lon="-3.51397">
        <ele>5</ele>
        <time>2021-08-14T10:29:50Z</time>
      </trkpt>
      <trkpt lat="47.75486" lon="-3.51392">
        <ele>5</ele>
        <time>2021-08-14T10:29:51Z</time>
      </trkpt>
      <trkpt lat="47.75482" lon="-3.51387">
        <ele>5.2</ele>
        <time>2021-08-14T10:29:52Z</time>
      </trkpt>
      <trkpt lat="47.75479" lon="-3.51382">
        <ele>5.2</ele>
        <time>2021-08-14T10:29:53Z</time>
      </trkpt>
      <trkpt lat="47.75475" lon="-3.51377">
        <ele>5.2</ele>
        <time>2021-08-14T10:29:54Z</time>
      </trkpt>
      <trkpt lat="47.75471" lon="-3.51372">
        <ele>5.2</ele>
        <time>2021-08-14T10:29:55Z</time>
      </trkpt>
      <trkpt lat="47.75468" lon="-3.51366">
        <ele>5.2</ele>
        <time>2021-08-14T10:29:56Z</time>
      </trkpt>
      <trkpt lat="47.75464" lon="-3.51361">
        <ele>5.2</ele>
        <time>2021-08-14T10:29:57Z</time>
      </trkpt>
      <trkpt lat="47.75461" lon="-3.51356">
        <ele>5.2</ele>
        <time>2021-08-14T10:29:58Z</time>
      </trkpt>
      <trkpt lat="47.75457" lon="-3.51351">
        <ele>5.2</ele>
        <time>2021-08-14T10:29:59Z</time>
      </trkpt>
      <trkpt lat="47.75454" lon="-3.51346">
        <ele>5.2</ele>
        <time>2021-08-14T10:30:00Z</time>
      </trkpt>
      <trkpt lat="47.75451" lon="-3.51341">
        <ele>5.2</ele>
        <time>2021-08-14T10:30:01Z</time>
      </trkpt>
      <trkpt lat="47.75447" lon="-3.51336">
        <ele>5.2</ele>
        <time>2021-08-14T10:30:02Z</time>
      </trkpt>
      <trkpt lat="47.75444" lon="-3.51331">
        <ele>5.2</ele>
        <time>2021-08-14T10:30:03Z</time>
      </trkpt>
      <trkpt lat="47.75441" lon="-3.51326">
        <ele>5.2</ele>
        <time>2021-08-14T10:30:04Z</time>
      </trkpt>
      <trkpt lat="47.75437" lon="-3.51321">
        <ele>5.2</ele>
        <time>2021-08-14T10:30:05Z</time>
      </trkpt>
      <trkpt lat="47.75434" lon="-3.51316">
        <ele>5.2</ele>
        <time>2021-08-14T10:30:06Z</time>
      </trkpt>
      <trkpt lat="47.75431" lon="-3.51312">
        <ele>5.2</ele>
        <time>2021-08-14T10:30:07Z</time>
      </trkpt>
      <trkpt lat="47.75428" lon="-3.51307">
        <ele>5.4</ele>
        <time>2021-08-14T10:30:08Z</time>
      </trkpt>
      <trkpt lat="47.75424" lon="-3.51303">
        <ele>5.4</ele>
        <time>2021-08-14T10:30:09Z</time>
      </trkpt>
      <trkpt lat="47.75421" lon="-3.51299">
        <ele>5.4</ele>
        <time>2021-08-14T10:30:10Z</time>
      </trkpt>
      <trkpt lat="47.75418" lon="-3.51294">
        <ele>5.4</ele>
        <time>2021-08-14T10:30:11Z</time>
      </trkpt>
      <trkpt lat="47.75414" lon="-3.5129">
        <ele>5.6</ele>
        <time>2021-08-14T10:30:12Z</time>
      </trkpt>
      <trkpt lat="47.75411" lon="-3.51286">
        <ele>5.6</ele>
        <time>2021-08-14T10:30:13Z</time>
      </trkpt>
      <trkpt lat="47.75407" lon="-3.51282">
        <ele>5.6</ele>
        <time>2021-08-14T10:30:14Z</time>
      </trkpt>
      <trkpt lat="47.75404" lon="-3.51278">
        <ele>5.6</ele>
        <time>2021-08-14T10:30:15Z</time>
      </trkpt>
      <trkpt lat="47.754" lon="-3.51274">
        <ele>5.6</ele>
        <time>2021-08-14T10:30:16Z</time>
      </trkpt>
      <trkpt lat="47.75396" lon="-3.5127">
        <ele>5.6</ele>
        <time>2021-08-14T10:30:17Z</time>
      </trkpt>
      <trkpt lat="47.75393" lon="-3.51266">
        <ele>5.6</ele>
        <time>2021-08-14T10:30:18Z</time>
      </trkpt>
      <trkpt lat="47.75389" lon="-3.51263">
        <ele>5.6</ele>
        <time>2021-08-14T10:30:19Z</time>
      </trkpt>
      <trkpt lat="47.75385" lon="-3.51259">
        <ele>5.4</ele>
        <time>2021-08-14T10:30:20Z</time>
      </trkpt>
      <trkpt lat="47.75381" lon="-3.51256">
        <ele>5.2</ele>
        <time>2021-08-14T10:30:21Z</time>
      </trkpt>
      <trkpt lat="47.75378" lon="-3.51253">
        <ele>5.2</ele>
        <time>2021-08-14T10:30:22Z</time>
      </trkpt>
      <trkpt lat="47.75374" lon="-3.51249">
        <ele>5.2</ele>
        <time>2021-08-14T10:30:23Z</time>
      </trkpt>
      <trkpt lat="47.7537" lon="-3.51246">
        <ele>5</ele>
        <time>2021-08-14T10:30:24Z</time>
      </trkpt>
      <trkpt lat="47.75367" lon="-3.51244">
        <ele>5</ele>
        <time>2021-08-14T10:30:25Z</time>
      </trkpt>
      <trkpt lat="47.75363" lon="-3.51241">
        <ele>4.8</ele>
        <time>2021-08-14T10:30:26Z</time>
      </trkpt>
      <trkpt lat="47.7536" lon="-3.51238">
        <ele>4.8</ele>
        <time>2021-08-14T10:30:27Z</time>
      </trkpt>
      <trkpt lat="47.75356" lon="-3.51236">
        <ele>4.8</ele>
        <time>2021-08-14T10:30:28Z</time>
      </trkpt>
      <trkpt lat="47.75353" lon="-3.51234">
        <ele>4.8</ele>
        <time>2021-08-14T10:30:29Z</time>
      </trkpt>
      <trkpt lat="47.7535" lon="-3.51232">
        <ele>4.8</ele>
        <time>2021-08-14T10:30:30Z</time>
      </trkpt>
      <trkpt lat="47.75347" lon="-3.5123">
        <ele>4.8</ele>
        <time>2021-08-14T10:30:31Z</time>
      </trkpt>
      <trkpt lat="47.75344" lon="-3.51228">
        <ele>4.8</ele>
        <time>2021-08-14T10:30:32Z</time>
      </trkpt>
      <trkpt lat="47.75341" lon="-3.51226">
        <ele>4.8</ele>
        <time>2021-08-14T10:30:33Z</time>
      </trkpt>
      <trkpt lat="47.75338" lon="-3.51224">
        <ele>4.8</ele>
        <time>2021-08-14T10:30:34Z</time>
      </trkpt>
      <trkpt lat="47.75335" lon="-3.51222">
        <ele>4.8</ele>
        <time>2021-08-14T10:30:35Z</time>
      </trkpt>
      <trkpt lat="47.75332" lon="-3.51221">
        <ele>4.8</ele>
        <time>2021-08-14T10:30:36Z</time>
      </trkpt>
      <trkpt lat="47.7533" lon="-3.51219">
        <ele>4.8</ele>
        <time>2021-08-14T10:30:37Z</time>
      </trkpt>
      <trkpt lat="47.75327" lon="-3.51218">
        <ele>4.8</ele>
        <time>2021-08-14T10:30:38Z</time>
      </trkpt>
      <trkpt lat="47.75325" lon="-3.51216">
        <ele>4.8</ele>
        <time>2021-08-14T10:30:39Z</time>
      </trkpt>
      <trkpt lat="47.75322" lon="-3.51214">
        <ele>4.8</ele>
        <time>2021-08-14T10:30:40Z</time>
      </trkpt>
      <trkpt lat="47.7532" lon="-3.51212">
        <ele>4.8</ele>
        <time>2021-08-14T10:30:41Z</time>
      </trkpt>
      <trkpt lat="47.75317" lon="-3.51211">
        <ele>4.8</ele>
        <time>2021-08-14T10:30:42Z</time>
      </trkpt>
      <trkpt lat="47.75315" lon="-3.5121">
        <ele>4.8</ele>
        <time>2021-08-14T10:30:43Z</time>
      </trkpt>
      <trkpt lat="47.75312" lon="-3.51209">
        <ele>5</ele>
        <time>2021-08-14T10:30:44Z</time>
      </trkpt>
      <trkpt lat="47.7531" lon="-3.51207">
        <ele>5</ele>
        <time>2021-08-14T10:30:45Z</time>
      </trkpt>
      <trkpt lat="47.75308" lon="-3.51206">
        <ele>5</ele>
        <time>2021-08-14T10:30:46Z</time>
      </trkpt>
      <trkpt lat="47.75306" lon="-3.51205">
        <ele>5.2</ele>
        <time>2021-08-14T10:30:47Z</time>
      </trkpt>
      <trkpt lat="47.75304" lon="-3.51203">
        <ele>5.2</ele>
        <time>2021-08-14T10:30:48Z</time>
      </trkpt>
      <trkpt lat="47.75301" lon="-3.51202">
        <ele>5.2</ele>
        <time>2021-08-14T10:30:49Z</time>
      </trkpt>
      <trkpt lat="47.75299" lon="-3.512">
        <ele>5.2</ele>
        <time>2021-08-14T10:30:50Z</time>
      </trkpt>
      <trkpt lat="47.75296" lon="-3.51198">
        <ele>5.4</ele>
        <time>2021-08-14T10:30:51Z</time>
      </trkpt>
      <trkpt lat="47.75294" lon="-3.51197">
        <ele>5.4</ele>
        <time>2021-08-14T10:30:52Z</time>
      </trkpt>
      <trkpt lat="47.75291" lon="-3.51195">
        <ele>5.4</ele>
        <time>2021-08-14T10:30:53Z</time>
      </trkpt>
      <trkpt lat="47.75289" lon="-3.51194">
        <ele>5.6</ele>
        <time>2021-08-14T10:30:54Z</time>
      </trkpt>
      <trkpt lat="47.75286" lon="-3.51192">
        <ele>5.8</ele>
        <time>2021-08-14T10:30:55Z</time>
      </trkpt>
      <trkpt lat="47.75284" lon="-3.51191">
        <ele>5.8</ele>
        <time>2021-08-14T10:30:56Z</time>
      </trkpt>
      <trkpt lat="47.75281" lon="-3.5119">
        <ele>5.8</ele>
        <time>2021-08-14T10:30:57Z</time>
      </trkpt>
      <trkpt lat="47.7528" lon="-3.51189">
        <ele>6</ele>
        <time>2021-08-14T10:30:58Z</time>
      </trkpt>
      <trkpt lat="47.75279" lon="-3.51186">
        <ele>6</ele>
        <time>2021-08-14T10:30:59Z</time>
      </trkpt>
      <trkpt lat="47.75278" lon="-3.51185">
        <ele>6</ele>
        <time>2021-08-14T10:31:00Z</time>
      </trkpt>
      <trkpt lat="47.75276" lon="-3.51184">
        <ele>6</ele>
        <time>2021-08-14T10:31:01Z</time>
      </trkpt>
      <trkpt lat="47.75274" lon="-3.51183">
        <ele>6.2</ele>
        <time>2021-08-14T10:31:02Z</time>
      </trkpt>
      <trkpt lat="47.75272" lon="-3.51181">
        <ele>6.2</ele>
        <time>2021-08-14T10:31:03Z</time>
      </trkpt>
      <trkpt lat="47.75269" lon="-3.5118">
        <ele>6.2</ele>
        <time>2021-08-14T10:31:04Z</time>
      </trkpt>
      <trkpt lat="47.75267" lon="-3.51178">
        <ele>6.4</ele>
        <time>2021-08-14T10:31:05Z</time>
      </trkpt>
      <trkpt lat="47.75264" lon="-3.51176">
        <ele>6.4</ele>
        <time>2021-08-14T10:31:06Z</time>
      </trkpt>
      <trkpt lat="47.75261" lon="-3.51174">
        <ele>6.8</ele>
        <time>2021-08-14T10:31:07Z</time>
      </trkpt>
      <trkpt lat="47.75258" lon="-3.51172">
        <ele>6.8</ele>
        <time>2021-08-14T10:31:08Z</time>
      </trkpt>
      <trkpt lat="47.75255" lon="-3.5117">
        <ele>6.8</ele>
        <time>2021-08-14T10:31:09Z</time>
      </trkpt>
      <trkpt lat="47.75252" lon="-3.51169">
        <ele>7</ele>
        <time>2021-08-14T10:31:10Z</time>
      </trkpt>
      <trkpt lat="47.75249" lon="-3.51167">
        <ele>7</ele>
        <time>2021-08-14T10:31:11Z</time>
      </trkpt>
      <trkpt lat="47.75246" lon="-3.51165">
        <ele>7</ele>
        <time>2021-08-14T10:31:12Z</time>
      </trkpt>
      <trkpt lat="47.75243" lon="-3.51163">
        <ele>7</ele>
        <time>2021-08-14T10:31:13Z</time>
      </trkpt>
      <trkpt lat="47.7524" lon="-3.51161">
        <ele>7</ele>
        <time>2021-08-14T10:31:14Z</time>
      </trkpt>
      <trkpt lat="47.75237" lon="-3.51159">
        <ele>7</ele>
        <time>2021-08-14T10:31:15Z</time>
      </trkpt>
      <trkpt lat="47.75234" lon="-3.51157">
        <ele>7.2</ele>
        <time>2021-08-14T10:31:16Z</time>
      </trkpt>
      <trkpt lat="47.75231" lon="-3.51155">
        <ele>7.2</ele>
        <time>2021-08-14T10:31:17Z</time>
      </trkpt>
      <trkpt lat="47.75228" lon="-3.51153">
        <ele>7.2</ele>
        <time>2021-08-14T10:31:18Z</time>
      </trkpt>
      <trkpt lat="47.75225" lon="-3.51152">
        <ele>7.4</ele>
        <time>2021-08-14T10:31:19Z</time>
      </trkpt>
      <trkpt lat="47.75222" lon="-3.5115">
        <ele>7.4</ele>
        <time>2021-08-14T10:31:20Z</time>
      </trkpt>
      <trkpt lat="47.75219" lon="-3.51148">
        <ele>7.6</ele>
        <time>2021-08-14T10:31:21Z</time>
      </trkpt>
      <trkpt lat="47.75216" lon="-3.51146">
        <ele>7.8</ele>
        <time>2021-08-14T10:31:22Z</time>
      </trkpt>
      <trkpt lat="47.75213" lon="-3.51144">
        <ele>8</ele>
        <time>2021-08-14T10:31:23Z</time>
      </trkpt>
      <trkpt lat="47.7521" lon="-3.51142">
        <ele>8.2</ele>
        <time>2021-08-14T10:31:24Z</time>
      </trkpt>
      <trkpt lat="47.75207" lon="-3.5114">
        <ele>8.2</ele>
        <time>2021-08-14T10:31:25Z</time>
      </trkpt>
      <trkpt lat="47.75204" lon="-3.51138">
        <ele>8.2</ele>
        <time>2021-08-14T10:31:26Z</time>
      </trkpt>
      <trkpt lat="47.75201" lon="-3.51136">
        <ele>8.4</ele>
        <time>2021-08-14T10:31:27Z</time>
      </trkpt>
      <trkpt lat="47.75198" lon="-3.51134">
        <ele>8.4</ele>
        <time>2021-08-14T10:31:28Z</time>
      </trkpt>
      <trkpt lat="47.75195" lon="-3.51132">
        <ele>8.4</ele>
        <time>2021-08-14T10:31:29Z</time>
      </trkpt>
      <trkpt lat="47.75192" lon="-3.5113">
        <ele>8.4</ele>
        <time>2021-08-14T10:31:30Z</time>
      </trkpt>
      <trkpt lat="47.75188" lon="-3.51128">
        <ele>8.6</ele>
        <time>2021-08-14T10:31:31Z</time>
      </trkpt>
      <trkpt lat="47.75185" lon="-3.51126">
        <ele>8.8</ele>
        <time>2021-08-14T10:31:32Z</time>
      </trkpt>
      <trkpt lat="47.75182" lon="-3.51124">
        <ele>9.2</ele>
        <time>2021-08-14T10:31:33Z</time>
      </trkpt>
      <trkpt lat="47.75179" lon="-3.51122">
        <ele>9.4</ele>
        <time>2021-08-14T10:31:34Z</time>
      </trkpt>
      <trkpt lat="47.75176" lon="-3.5112">
        <ele>9.4</ele>
        <time>2021-08-14T10:31:35Z</time>
      </trkpt>
      <trkpt lat="47.75173" lon="-3.51118">
        <ele>9.6</ele>
        <time>2021-08-14T10:31:36Z</time>
      </trkpt>
      <trkpt lat="47.75171" lon="-3.51116">
        <ele>9.8</ele>
        <time>2021-08-14T10:31:37Z</time>
      </trkpt>
      <trkpt lat="47.75169" lon="-3.51116">
        <ele>10</ele>
        <time>2021-08-14T10:31:38Z</time>
      </trkpt>
      <trkpt lat="47.75167" lon="-3.51118">
        <ele>10.2</ele>
        <time>2021-08-14T10:31:39Z</time>
      </trkpt>
      <trkpt lat="47.75164" lon="-3.51118">
        <ele>10.4</ele>
        <time>2021-08-14T10:31:40Z</time>
      </trkpt>
      <trkpt lat="47.75161" lon="-3.51117">
        <ele>10.4</ele>
        <time>2021-08-14T10:31:41Z</time>
      </trkpt>
      <trkpt lat="47.75158" lon="-3.51114">
        <ele>10.4</ele>
        <time>2021-08-14T10:31:42Z</time>
      </trkpt>
      <trkpt lat="47.75155" lon="-3.51112">
        <ele>10.6</ele>
        <time>2021-08-14T10:31:43Z</time>
      </trkpt>
      <trkpt lat="47.75151" lon="-3.51109">
        <ele>10.6</ele>
        <time>2021-08-14T10:31:44Z</time>
      </trkpt>
      <trkpt lat="47.75148" lon="-3.51107">
        <ele>10.6</ele>
        <time>2021-08-14T10:31:45Z</time>
      </trkpt>
      <trkpt lat="47.75145" lon="-3.51105">
        <ele>10.8</ele>
        <time>2021-08-14T10:31:46Z</time>
      </trkpt>
      <trkpt lat="47.75142" lon="-3.51103">
        <ele>10.8</ele>
        <time>2021-08-14T10:31:47Z</time>
      </trkpt>
      <trkpt lat="47.75139" lon="-3.51101">
        <ele>10.8</ele>
        <time>2021-08-14T10:31:48Z</time>
      </trkpt>
      <trkpt lat="47.75135" lon="-3.51099">
        <ele>10.8</ele>
        <time>2021-08-14T10:31:49Z</time>
      </trkpt>
      <trkpt lat="47.75132" lon="-3.51097">
        <ele>11</ele>
        <time>2021-08-14T10:31:50Z</time>
      </trkpt>
      <trkpt lat="47.75129" lon="-3.51095">
        <ele>11</ele>
        <time>2021-08-14T10:31:51Z</time>
      </trkpt>
      <trkpt lat="47.75126" lon="-3.51093">
        <ele>11</ele>
        <time>2021-08-14T10:31:52Z</time>
      </trkpt>
      <trkpt lat="47.75123" lon="-3.51091">
        <ele>11</ele>
        <time>2021-08-14T10:31:53Z</time>
      </trkpt>
      <trkpt lat="47.7512" lon="-3.51089">
        <ele>11</ele>
        <time>2021-08-14T10:31:54Z</time>
      </trkpt>
      <trkpt lat="47.75117" lon="-3.51087">
        <ele>11.2</ele>
        <time>2021-08-14T10:31:55Z</time>
      </trkpt>
      <trkpt lat="47.75113" lon="-3.51085">
        <ele>11.2</ele>
        <time>2021-08-14T10:31:56Z</time>
      </trkpt>
      <trkpt lat="47.7511" lon="-3.51083">
        <ele>11.2</ele>
        <time>2021-08-14T10:31:57Z</time>
      </trkpt>
      <trkpt lat="47.75107" lon="-3.51081">
        <ele>11.2</ele>
        <time>2021-08-14T10:31:58Z</time>
      </trkpt>
      <trkpt lat="47.75103" lon="-3.51078">
        <ele>11.4</ele>
        <time>2021-08-14T10:31:59Z</time>
      </trkpt>
      <trkpt lat="47.75099" lon="-3.51076">
        <ele>11.4</ele>
        <time>2021-08-14T10:32:00Z</time>
      </trkpt>
      <trkpt lat="47.75096" lon="-3.51074">
        <ele>11.4</ele>
        <time>2021-08-14T10:32:01Z</time>
      </trkpt>
      <trkpt lat="47.75092" lon="-3.51071">
        <ele>11.4</ele>
        <time>2021-08-14T10:32:02Z</time>
      </trkpt>
      <trkpt lat="47.75088" lon="-3.51069">
        <ele>11.4</ele>
        <time>2021-08-14T10:32:03Z</time>
      </trkpt>
      <trkpt lat="47.75084" lon="-3.51066">
        <ele>11.4</ele>
        <time>2021-08-14T10:32:04Z</time>
      </trkpt>
      <trkpt lat="47.7508" lon="-3.51063">
        <ele>11.4</ele>
        <time>2021-08-14T10:32:05Z</time>
      </trkpt>
      <trkpt lat="47.75076" lon="-3.5106">
        <ele>11.4</ele>
        <time>2021-08-14T10:32:06Z</time>
      </trkpt>
      <trkpt lat="47.75072" lon="-3.51057">
        <ele>11.4</ele>
        <time>2021-08-14T10:32:07Z</time>
      </trkpt>
      <trkpt lat="47.75067" lon="-3.51054">
        <ele>11.4</ele>
        <time>2021-08-14T10:32:08Z</time>
      </trkpt>
      <trkpt lat="47.75062" lon="-3.5105">
        <ele>11.2</ele>
        <time>2021-08-14T10:32:09Z</time>
      </trkpt>
      <trkpt lat="47.75058" lon="-3.51046">
        <ele>11.2</ele>
        <time>2021-08-14T10:32:10Z</time>
      </trkpt>
      <trkpt lat="47.75053" lon="-3.51042">
        <ele>11.2</ele>
        <time>2021-08-14T10:32:11Z</time>
      </trkpt>
      <trkpt lat="47.75047" lon="-3.51037">
        <ele>11.2</ele>
        <time>2021-08-14T10:32:12Z</time>
      </trkpt>
      <trkpt lat="47.75042" lon="-3.51032">
        <ele>11.2</ele>
        <time>2021-08-14T10:32:13Z</time>
      </trkpt>
      <trkpt lat="47.75037" lon="-3.51027">
        <ele>11</ele>
        <time>2021-08-14T10:32:14Z</time>
      </trkpt>
      <trkpt lat="47.75032" lon="-3.51022">
        <ele>11</ele>
        <time>2021-08-14T10:32:15Z</time>
      </trkpt>
      <trkpt lat="47.75027" lon="-3.51017">
        <ele>10.6</ele>
        <time>2021-08-14T10:32:16Z</time>
      </trkpt>
      <trkpt lat="47.75022" lon="-3.51012">
        <ele>10.2</ele>
        <time>2021-08-14T10:32:17Z</time>
      </trkpt>
      <trkpt lat="47.75017" lon="-3.51006">
        <ele>10</ele>
        <time>2021-08-14T10:32:18Z</time>
      </trkpt>
      <trkpt lat="47.75013" lon="-3.51002">
        <ele>9.8</ele>
        <time>2021-08-14T10:32:19Z</time>
      </trkpt>
      <trkpt lat="47.75008" lon="-3.50997">
        <ele>9.6</ele>
        <time>2021-08-14T10:32:20Z</time>
      </trkpt>
      <trkpt lat="47.75003" lon="-3.50992">
        <ele>9.4</ele>
        <time>2021-08-14T10:32:21Z</time>
      </trkpt>
      <trkpt lat="47.74999" lon="-3.50987">
        <ele>9</ele>
        <time>2021-08-14T10:32:22Z</time>
      </trkpt>
      <trkpt lat="47.74995" lon="-3.50982">
        <ele>9.2</ele>
        <time>2021-08-14T10:32:23Z</time>
      </trkpt>
      <trkpt lat="47.74991" lon="-3.50977">
        <ele>9</ele>
        <time>2021-08-14T10:32:24Z</time>
      </trkpt>
      <trkpt lat="47.74987" lon="-3.50972">
        <ele>9</ele>
        <time>2021-08-14T10:32:25Z</time>
      </trkpt>
      <trkpt lat="47.74983" lon="-3.50966">
        <ele>9</ele>
        <time>2021-08-14T10:32:26Z</time>
      </trkpt>
      <trkpt lat="47.7498" lon="-3.50961">
        <ele>8.6</ele>
        <time>2021-08-14T10:32:27Z</time>
      </trkpt>
      <trkpt lat="47.74976" lon="-3.50956">
        <ele>8.6</ele>
        <time>2021-08-14T10:32:28Z</time>
      </trkpt>
      <trkpt lat="47.74973" lon="-3.50951">
        <ele>8.6</ele>
        <time>2021-08-14T10:32:29Z</time>
      </trkpt>
      <trkpt lat="47.7497" lon="-3.50947">
        <ele>8.6</ele>
        <time>2021-08-14T10:32:30Z</time>
      </trkpt>
      <trkpt lat="47.74967" lon="-3.50942">
        <ele>8.6</ele>
        <time>2021-08-14T10:32:31Z</time>
      </trkpt>
      <trkpt lat="47.74964" lon="-3.50939">
        <ele>8.6</ele>
        <time>2021-08-14T10:32:32Z</time>
      </trkpt>
      <trkpt lat="47.7496" lon="-3.50937">
        <ele>8.8</ele>
        <time>2021-08-14T10:32:33Z</time>
      </trkpt>
      <trkpt lat="47.74956" lon="-3.50936">
        <ele>8.8</ele>
        <time>2021-08-14T10:32:34Z</time>
      </trkpt>
      <trkpt lat="47.74952" lon="-3.50936">
        <ele>9</ele>
        <time>2021-08-14T10:32:35Z</time>
      </trkpt>
      <trkpt lat="47.74948" lon="-3.50937">
        <ele>9</ele>
        <time>2021-08-14T10:32:36Z</time>
      </trkpt>
      <trkpt lat="47.74943" lon="-3.50937">
        <ele>9.2</ele>
        <time>2021-08-14T10:32:37Z</time>
      </trkpt>
      <trkpt lat="47.74939" lon="-3.50935">
        <ele>9.4</ele>
        <time>2021-08-14T10:32:38Z</time>
      </trkpt>
      <trkpt lat="47.74934" lon="-3.50932">
        <ele>9.4</ele>
        <time>2021-08-14T10:32:39Z</time>
      </trkpt>
      <trkpt lat="47.7493" lon="-3.50929">
        <ele>9.4</ele>
        <time>2021-08-14T10:32:40Z</time>
      </trkpt>
      <trkpt lat="47.74927" lon="-3.50924">
        <ele>9.4</ele>
        <time>2021-08-14T10:32:41Z</time>
      </trkpt>
      <trkpt lat="47.74924" lon="-3.50918">
        <ele>9.4</ele>
        <time>2021-08-14T10:32:42Z</time>
      </trkpt>
      <trkpt lat="47.74922" lon="-3.50912">
        <ele>9.4</ele>
        <time>2021-08-14T10:32:43Z</time>
      </trkpt>
      <trkpt lat="47.74921" lon="-3.50906">
        <ele>9.4</ele>
        <time>2021-08-14T10:32:44Z</time>
      </trkpt>
      <trkpt lat="47.7492" lon="-3.509">
        <ele>9.4</ele>
        <time>2021-08-14T10:32:45Z</time>
      </trkpt>
      <trkpt lat="47.7492" lon="-3.50894">
        <ele>9.6</ele>
        <time>2021-08-14T10:32:46Z</time>
      </trkpt>
      <trkpt lat="47.74919" lon="-3.5089">
        <ele>9.6</ele>
        <time>2021-08-14T10:32:47Z</time>
      </trkpt>
      <trkpt lat="47.74919" lon="-3.50885">
        <ele>9.6</ele>
        <time>2021-08-14T10:32:48Z</time>
      </trkpt>
      <trkpt lat="47.74919" lon="-3.50881">
        <ele>9.8</ele>
        <time>2021-08-14T10:32:49Z</time>
      </trkpt>
      <trkpt lat="47.74917" lon="-3.50878">
        <ele>9.8</ele>
        <time>2021-08-14T10:32:50Z</time>
      </trkpt>
      <trkpt lat="47.74916" lon="-3.50875">
        <ele>10</ele>
        <time>2021-08-14T10:32:51Z</time>
      </trkpt>
      <trkpt lat="47.74915" lon="-3.50872">
        <ele>10.2</ele>
        <time>2021-08-14T10:32:52Z</time>
      </trkpt>
      <trkpt lat="47.74913" lon="-3.50869">
        <ele>10.2</ele>
        <time>2021-08-14T10:32:53Z</time>
      </trkpt>
      <trkpt lat="47.74912" lon="-3.50866">
        <ele>10.2</ele>
        <time>2021-08-14T10:32:54Z</time>
      </trkpt>
      <trkpt lat="47.7491" lon="-3.50863">
        <ele>10.6</ele>
        <time>2021-08-14T10:32:55Z</time>
      </trkpt>
      <trkpt lat="47.74908" lon="-3.50859">
        <ele>10.8</ele>
        <time>2021-08-14T10:32:56Z</time>
      </trkpt>
      <trkpt lat="47.74905" lon="-3.50855">
        <ele>11</ele>
        <time>2021-08-14T10:32:57Z</time>
      </trkpt>
      <trkpt lat="47.74903" lon="-3.50851">
        <ele>11.2</ele>
        <time>2021-08-14T10:32:58Z</time>
      </trkpt>
      <trkpt lat="47.749" lon="-3.50847">
        <ele>11.4</ele>
        <time>2021-08-14T10:32:59Z</time>
      </trkpt>
      <trkpt lat="47.74897" lon="-3.50843">
        <ele>11.4</ele>
        <time>2021-08-14T10:33:00Z</time>
      </trkpt>
      <trkpt lat="47.74893" lon="-3.50839">
        <ele>11.4</ele>
        <time>2021-08-14T10:33:01Z</time>
      </trkpt>
      <trkpt lat="47.7489" lon="-3.50835">
        <ele>11.4</ele>
        <time>2021-08-14T10:33:02Z</time>
      </trkpt>
      <trkpt lat="47.74887" lon="-3.50831">
        <ele>11.4</ele>
        <time>2021-08-14T10:33:03Z</time>
      </trkpt>
      <trkpt lat="47.74884" lon="-3.50826">
        <ele>11.4</ele>
        <time>2021-08-14T10:33:04Z</time>
      </trkpt>
      <trkpt lat="47.74881" lon="-3.50822">
        <ele>11.4</ele>
        <time>2021-08-14T10:33:05Z</time>
      </trkpt>
      <trkpt lat="47.74879" lon="-3.50817">
        <ele>11.4</ele>
        <time>2021-08-14T10:33:06Z</time>
      </trkpt>
      <trkpt lat="47.74876" lon="-3.50812">
        <ele>11.4</ele>
        <time>2021-08-14T10:33:07Z</time>
      </trkpt>
      <trkpt lat="47.74873" lon="-3.50807">
        <ele>11.2</ele>
        <time>2021-08-14T10:33:08Z</time>
      </trkpt>
      <trkpt lat="47.74869" lon="-3.50803">
        <ele>11.2</ele>
        <time>2021-08-14T10:33:09Z</time>
      </trkpt>
      <trkpt lat="47.74866" lon="-3.50799">
        <ele>11</ele>
        <time>2021-08-14T10:33:10Z</time>
      </trkpt>
      <trkpt lat="47.74863" lon="-3.50795">
        <ele>11</ele>
        <time>2021-08-14T10:33:11Z</time>
      </trkpt>
      <trkpt lat="47.74859" lon="-3.5079">
        <ele>10.8</ele>
        <time>2021-08-14T10:33:12Z</time>
      </trkpt>
      <trkpt lat="47.74856" lon="-3.50785">
        <ele>10.8</ele>
        <time>2021-08-14T10:33:13Z</time>
      </trkpt>
      <trkpt lat="47.74853" lon="-3.50781">
        <ele>10.8</ele>
        <time>2021-08-14T10:33:14Z</time>
      </trkpt>
      <trkpt lat="47.7485" lon="-3.50776">
        <ele>10.8</ele>
        <time>2021-08-14T10:33:15Z</time>
      </trkpt>
      <trkpt lat="47.74846" lon="-3.50771">
        <ele>10.8</ele>
        <time>2021-08-14T10:33:16Z</time>
      </trkpt>
      <trkpt lat="47.74842" lon="-3.50766">
        <ele>10.6</ele>
        <time>2021-08-14T10:33:17Z</time>
      </trkpt>
      <trkpt lat="47.74839" lon="-3.50761">
        <ele>10.6</ele>
        <time>2021-08-14T10:33:18Z</time>
      </trkpt>
      <trkpt lat="47.74835" lon="-3.50756">
        <ele>10.4</ele>
        <time>2021-08-14T10:33:19Z</time>
      </trkpt>
      <trkpt lat="47.74831" lon="-3.5075">
        <ele>10.4</ele>
        <time>2021-08-14T10:33:20Z</time>
      </trkpt>
      <trkpt lat="47.74827" lon="-3.50745">
        <ele>10.2</ele>
        <time>2021-08-14T10:33:21Z</time>
      </trkpt>
      <trkpt lat="47.74824" lon="-3.5074">
        <ele>10</ele>
        <time>2021-08-14T10:33:22Z</time>
      </trkpt>
      <trkpt lat="47.7482" lon="-3.50735">
        <ele>10</ele>
        <time>2021-08-14T10:33:23Z</time>
      </trkpt>
      <trkpt lat="47.74816" lon="-3.5073">
        <ele>10</ele>
        <time>2021-08-14T10:33:24Z</time>
      </trkpt>
      <trkpt lat="47.74813" lon="-3.50725">
        <ele>9.8</ele>
        <time>2021-08-14T10:33:25Z</time>
      </trkpt>
      <trkpt lat="47.74809" lon="-3.5072">
        <ele>9.8</ele>
        <time>2021-08-14T10:33:26Z</time>
      </trkpt>
      <trkpt lat="47.74805" lon="-3.50715">
        <ele>9.6</ele>
        <time>2021-08-14T10:33:27Z</time>
      </trkpt>
      <trkpt lat="47.74801" lon="-3.5071">
        <ele>9.6</ele>
        <time>2021-08-14T10:33:28Z</time>
      </trkpt>
      <trkpt lat="47.74798" lon="-3.50705">
        <ele>9.4</ele>
        <time>2021-08-14T10:33:29Z</time>
      </trkpt>
      <trkpt lat="47.74794" lon="-3.50699">
        <ele>9.4</ele>
        <time>2021-08-14T10:33:30Z</time>
      </trkpt>
      <trkpt lat="47.7479" lon="-3.50694">
        <ele>9.4</ele>
        <time>2021-08-14T10:33:31Z</time>
      </trkpt>
      <trkpt lat="47.74786" lon="-3.50689">
        <ele>9</ele>
        <time>2021-08-14T10:33:32Z</time>
      </trkpt>
      <trkpt lat="47.74782" lon="-3.50684">
        <ele>9</ele>
        <time>2021-08-14T10:33:33Z</time>
      </trkpt>
      <trkpt lat="47.74779" lon="-3.50679">
        <ele>9</ele>
        <time>2021-08-14T10:33:34Z</time>
      </trkpt>
      <trkpt lat="47.74775" lon="-3.50674">
        <ele>9</ele>
        <time>2021-08-14T10:33:35Z</time>
      </trkpt>
      <trkpt lat="47.74772" lon="-3.50669">
        <ele>9</ele>
        <time>2021-08-14T10:33:36Z</time>
      </trkpt>
      <trkpt lat="47.74769" lon="-3.50664">
        <ele>9</ele>
        <time>2021-08-14T10:33:37Z</time>
      </trkpt>
      <trkpt lat="47.74766" lon="-3.50659">
        <ele>9</ele>
        <time>2021-08-14T10:33:38Z</time>
      </trkpt>
      <trkpt lat="47.74763" lon="-3.50655">
        <ele>8.8</ele>
        <time>2021-08-14T10:33:39Z</time>
      </trkpt>
      <trkpt lat="47.7476" lon="-3.50651">
        <ele>8.8</ele>
        <time>2021-08-14T10:33:40Z</time>
      </trkpt>
      <trkpt lat="47.74756" lon="-3.50646">
        <ele>9</ele>
        <time>2021-08-14T10:33:41Z</time>
      </trkpt>
      <trkpt lat="47.74753" lon="-3.50642">
        <ele>9</ele>
        <time>2021-08-14T10:33:42Z</time>
      </trkpt>
      <trkpt lat="47.7475" lon="-3.50638">
        <ele>9</ele>
        <time>2021-08-14T10:33:43Z</time>
      </trkpt>
      <trkpt lat="47.74747" lon="-3.50634">
        <ele>9</ele>
        <time>2021-08-14T10:33:44Z</time>
      </trkpt>
      <trkpt lat="47.74744" lon="-3.50629">
        <ele>9</ele>
        <time>2021-08-14T10:33:45Z</time>
      </trkpt>
      <trkpt lat="47.74741" lon="-3.50625">
        <ele>9.2</ele>
        <time>2021-08-14T10:33:46Z</time>
      </trkpt>
      <trkpt lat="47.74738" lon="-3.50621">
        <ele>9.2</ele>
        <time>2021-08-14T10:33:47Z</time>
      </trkpt>
      <trkpt lat="47.74735" lon="-3.50617">
        <ele>9.4</ele>
        <time>2021-08-14T10:33:48Z</time>
      </trkpt>
      <trkpt lat="47.74732" lon="-3.50613">
        <ele>9.4</ele>
        <time>2021-08-14T10:33:49Z</time>
      </trkpt>
      <trkpt lat="47.74729" lon="-3.5061">
        <ele>9.4</ele>
        <time>2021-08-14T10:33:50Z</time>
      </trkpt>
      <trkpt lat="47.74726" lon="-3.50607">
        <ele>9.6</ele>
        <time>2021-08-14T10:33:51Z</time>
      </trkpt>
      <trkpt lat="47.74723" lon="-3.50603">
        <ele>9.6</ele>
        <time>2021-08-14T10:33:52Z</time>
      </trkpt>
      <trkpt lat="47.7472" lon="-3.506">
        <ele>9.6</ele>
        <time>2021-08-14T10:33:53Z</time>
      </trkpt>
      <trkpt lat="47.74717" lon="-3.50597">
        <ele>9.6</ele>
        <time>2021-08-14T10:33:54Z</time>
      </trkpt>
      <trkpt lat="47.74714" lon="-3.50593">
        <ele>9.8</ele>
        <time>2021-08-14T10:33:55Z</time>
      </trkpt>
      <trkpt lat="47.74711" lon="-3.50589">
        <ele>9.8</ele>
        <time>2021-08-14T10:33:56Z</time>
      </trkpt>
      <trkpt lat="47.74707" lon="-3.50586">
        <ele>9.8</ele>
        <time>2021-08-14T10:33:57Z</time>
      </trkpt>
      <trkpt lat="47.74704" lon="-3.50583">
        <ele>9.8</ele>
        <time>2021-08-14T10:33:58Z</time>
      </trkpt>
      <trkpt lat="47.74701" lon="-3.50579">
        <ele>9.8</ele>
        <time>2021-08-14T10:33:59Z</time>
      </trkpt>
      <trkpt lat="47.74697" lon="-3.50576">
        <ele>9.8</ele>
        <time>2021-08-14T10:34:00Z</time>
      </trkpt>
      <trkpt lat="47.74694" lon="-3.50573">
        <ele>9.8</ele>
        <time>2021-08-14T10:34:01Z</time>
      </trkpt>
      <trkpt lat="47.74691" lon="-3.5057">
        <ele>9.8</ele>
        <time>2021-08-14T10:34:02Z</time>
      </trkpt>
      <trkpt lat="47.74687" lon="-3.50567">
        <ele>9.8</ele>
        <time>2021-08-14T10:34:03Z</time>
      </trkpt>
      <trkpt lat="47.74684" lon="-3.50563">
        <ele>9.8</ele>
        <time>2021-08-14T10:34:04Z</time>
      </trkpt>
      <trkpt lat="47.74681" lon="-3.5056">
        <ele>9.6</ele>
        <time>2021-08-14T10:34:05Z</time>
      </trkpt>
      <trkpt lat="47.74677" lon="-3.50556">
        <ele>9.6</ele>
        <time>2021-08-14T10:34:06Z</time>
      </trkpt>
      <trkpt lat="47.74674" lon="-3.50553">
        <ele>9.6</ele>
        <time>2021-08-14T10:34:07Z</time>
      </trkpt>
      <trkpt lat="47.7467" lon="-3.50549">
        <ele>9.6</ele>
        <time>2021-08-14T10:34:08Z</time>
      </trkpt>
      <trkpt lat="47.74666" lon="-3.50546">
        <ele>9.4</ele>
        <time>2021-08-14T10:34:09Z</time>
      </trkpt>
      <trkpt lat="47.74663" lon="-3.50543">
        <ele>9.2</ele>
        <time>2021-08-14T10:34:10Z</time>
      </trkpt>
      <trkpt lat="47.74659" lon="-3.50539">
        <ele>9.2</ele>
        <time>2021-08-14T10:34:11Z</time>
      </trkpt>
      <trkpt lat="47.74655" lon="-3.50536">
        <ele>9.2</ele>
        <time>2021-08-14T10:34:12Z</time>
      </trkpt>
      <trkpt lat="47.74651" lon="-3.50532">
        <ele>9</ele>
        <time>2021-08-14T10:34:13Z</time>
      </trkpt>
      <trkpt lat="47.74647" lon="-3.50529">
        <ele>9</ele>
        <time>2021-08-14T10:34:14Z</time>
      </trkpt>
      <trkpt lat="47.74643" lon="-3.50526">
        <ele>8.8</ele>
        <time>2021-08-14T10:34:15Z</time>
      </trkpt>
      <trkpt lat="47.74639" lon="-3.50524">
        <ele>8.8</ele>
        <time>2021-08-14T10:34:16Z</time>
      </trkpt>
      <trkpt lat="47.74634" lon="-3.50522">
        <ele>8.6</ele>
        <time>2021-08-14T10:34:17Z</time>
      </trkpt>
      <trkpt lat="47.7463" lon="-3.50519">
        <ele>8.6</ele>
        <time>2021-08-14T10:34:18Z</time>
      </trkpt>
      <trkpt lat="47.74626" lon="-3.50517">
        <ele>8.4</ele>
        <time>2021-08-14T10:34:19Z</time>
      </trkpt>
      <trkpt lat="47.74622" lon="-3.50514">
        <ele>8.2</ele>
        <time>2021-08-14T10:34:20Z</time>
      </trkpt>
      <trkpt lat="47.74618" lon="-3.50512">
        <ele>8.2</ele>
        <time>2021-08-14T10:34:21Z</time>
      </trkpt>
      <trkpt lat="47.74614" lon="-3.5051">
        <ele>8.2</ele>
        <time>2021-08-14T10:34:22Z</time>
      </trkpt>
      <trkpt lat="47.74609" lon="-3.50508">
        <ele>8</ele>
        <time>2021-08-14T10:34:23Z</time>
      </trkpt>
      <trkpt lat="47.74605" lon="-3.50505">
        <ele>8</ele>
        <time>2021-08-14T10:34:24Z</time>
      </trkpt>
      <trkpt lat="47.74601" lon="-3.50503">
        <ele>8</ele>
        <time>2021-08-14T10:34:25Z</time>
      </trkpt>
      <trkpt lat="47.74597" lon="-3.50501">
        <ele>7.8</ele>
        <time>2021-08-14T10:34:26Z</time>
      </trkpt>
      <trkpt lat="47.74593" lon="-3.505">
        <ele>7.8</ele>
        <time>2021-08-14T10:34:27Z</time>
      </trkpt>
      <trkpt lat="47.74589" lon="-3.50498">
        <ele>7.8</ele>
        <time>2021-08-14T10:34:28Z</time>
      </trkpt>
      <trkpt lat="47.74585" lon="-3.50496">
        <ele>7.6</ele>
        <time>2021-08-14T10:34:29Z</time>
      </trkpt>
      <trkpt lat="47.74581" lon="-3.50495">
        <ele>7.6</ele>
        <time>2021-08-14T10:34:30Z</time>
      </trkpt>
      <trkpt lat="47.74577" lon="-3.50494">
        <ele>7.6</ele>
        <time>2021-08-14T10:34:31Z</time>
      </trkpt>
      <trkpt lat="47.74574" lon="-3.50492">
        <ele>7.6</ele>
        <time>2021-08-14T10:34:32Z</time>
      </trkpt>
      <trkpt lat="47.7457" lon="-3.5049">
        <ele>7.6</ele>
        <time>2021-08-14T10:34:33Z</time>
      </trkpt>
      <trkpt lat="47.74566" lon="-3.50489">
        <ele>7.4</ele>
        <time>2021-08-14T10:34:34Z</time>
      </trkpt>
      <trkpt lat="47.74562" lon="-3.50486">
        <ele>7.4</ele>
        <time>2021-08-14T10:34:35Z</time>
      </trkpt>
      <trkpt lat="47.74558" lon="-3.50484">
        <ele>7.4</ele>
        <time>2021-08-14T10:34:36Z</time>
      </trkpt>
      <trkpt lat="47.74554" lon="-3.50482">
        <ele>7.4</ele>
        <time>2021-08-14T10:34:37Z</time>
      </trkpt>
      <trkpt lat="47.74549" lon="-3.5048">
        <ele>7.2</ele>
        <time>2021-08-14T10:34:38Z</time>
      </trkpt>
      <trkpt lat="47.74545" lon="-3.50478">
        <ele>7.2</ele>
        <time>2021-08-14T10:34:39Z</time>
      </trkpt>
      <trkpt lat="47.74541" lon="-3.50476">
        <ele>7.2</ele>
        <time>2021-08-14T10:34:40Z</time>
      </trkpt>
      <trkpt lat="47.74537" lon="-3.50473">
        <ele>7.2</ele>
        <time>2021-08-14T10:34:41Z</time>
      </trkpt>
      <trkpt lat="47.74532" lon="-3.50471">
        <ele>7</ele>
        <time>2021-08-14T10:34:42Z</time>
      </trkpt>
      <trkpt lat="47.74528" lon="-3.50469">
        <ele>6.8</ele>
        <time>2021-08-14T10:34:43Z</time>
      </trkpt>
      <trkpt lat="47.74524" lon="-3.50468">
        <ele>6.8</ele>
        <time>2021-08-14T10:34:44Z</time>
      </trkpt>
      <trkpt lat="47.7452" lon="-3.50466">
        <ele>6.6</ele>
        <time>2021-08-14T10:34:45Z</time>
      </trkpt>
      <trkpt lat="47.74515" lon="-3.50464">
        <ele>6.4</ele>
        <time>2021-08-14T10:34:46Z</time>
      </trkpt>
      <trkpt lat="47.74512" lon="-3.50462">
        <ele>6.4</ele>
        <time>2021-08-14T10:34:47Z</time>
      </trkpt>
      <trkpt lat="47.74508" lon="-3.5046">
        <ele>6.2</ele>
        <time>2021-08-14T10:34:48Z</time>
      </trkpt>
      <trkpt lat="47.74504" lon="-3.50457">
        <ele>6.2</ele>
        <time>2021-08-14T10:34:49Z</time>
      </trkpt>
      <trkpt lat="47.745" lon="-3.50456">
        <ele>6.2</ele>
        <time>2021-08-14T10:34:50Z</time>
      </trkpt>
      <trkpt lat="47.74497" lon="-3.50454">
        <ele>6.2</ele>
        <time>2021-08-14T10:34:51Z</time>
      </trkpt>
      <trkpt lat="47.74493" lon="-3.50452">
        <ele>6.2</ele>
        <time>2021-08-14T10:34:52Z</time>
      </trkpt>
      <trkpt lat="47.7449" lon="-3.50451">
        <ele>6</ele>
        <time>2021-08-14T10:34:53Z</time>
      </trkpt>
      <trkpt lat="47.74486" lon="-3.50449">
        <ele>6</ele>
        <time>2021-08-14T10:34:54Z</time>
      </trkpt>
      <trkpt lat="47.74482" lon="-3.50448">
        <ele>6</ele>
        <time>2021-08-14T10:34:55Z</time>
      </trkpt>
      <trkpt lat="47.74478" lon="-3.50446">
        <ele>6</ele>
        <time>2021-08-14T10:34:56Z</time>
      </trkpt>
      <trkpt lat="47.74474" lon="-3.50444">
        <ele>6</ele>
        <time>2021-08-14T10:34:57Z</time>
      </trkpt>
      <trkpt lat="47.7447" lon="-3.50443">
        <ele>5.8</ele>
        <time>2021-08-14T10:34:58Z</time>
      </trkpt>
      <trkpt lat="47.74466" lon="-3.50441">
        <ele>5.8</ele>
        <time>2021-08-14T10:34:59Z</time>
      </trkpt>
      <trkpt lat="47.74461" lon="-3.50439">
        <ele>5.8</ele>
        <time>2021-08-14T10:35:00Z</time>
      </trkpt>
      <trkpt lat="47.74456" lon="-3.50437">
        <ele>5.8</ele>
        <time>2021-08-14T10:35:01Z</time>
      </trkpt>
      <trkpt lat="47.74451" lon="-3.50434">
        <ele>5.6</ele>
        <time>2021-08-14T10:35:02Z</time>
      </trkpt>
      <trkpt lat="47.74446" lon="-3.50432">
        <ele>5.6</ele>
        <time>2021-08-14T10:35:03Z</time>
      </trkpt>
      <trkpt lat="47.7444" lon="-3.5043">
        <ele>5.6</ele>
        <time>2021-08-14T10:35:04Z</time>
      </trkpt>
      <trkpt lat="47.74435" lon="-3.50428">
        <ele>5.6</ele>
        <time>2021-08-14T10:35:05Z</time>
      </trkpt>
      <trkpt lat="47.7443" lon="-3.50426">
        <ele>5.6</ele>
        <time>2021-08-14T10:35:06Z</time>
      </trkpt>
      <trkpt lat="47.74424" lon="-3.50423">
        <ele>5.6</ele>
        <time>2021-08-14T10:35:07Z</time>
      </trkpt>
      <trkpt lat="47.74419" lon="-3.5042">
        <ele>5.6</ele>
        <time>2021-08-14T10:35:08Z</time>
      </trkpt>
      <trkpt lat="47.74413" lon="-3.50417">
        <ele>5.6</ele>
        <time>2021-08-14T10:35:09Z</time>
      </trkpt>
      <trkpt lat="47.74407" lon="-3.50415">
        <ele>5.4</ele>
        <time>2021-08-14T10:35:10Z</time>
      </trkpt>
      <trkpt lat="47.74401" lon="-3.50413">
        <ele>5.2</ele>
        <time>2021-08-14T10:35:11Z</time>
      </trkpt>
      <trkpt lat="47.74396" lon="-3.50411">
        <ele>5.2</ele>
        <time>2021-08-14T10:35:12Z</time>
      </trkpt>
      <trkpt lat="47.7439" lon="-3.50409">
        <ele>5.2</ele>
        <time>2021-08-14T10:35:13Z</time>
      </trkpt>
      <trkpt lat="47.74385" lon="-3.50407">
        <ele>5.2</ele>
        <time>2021-08-14T10:35:14Z</time>
      </trkpt>
      <trkpt lat="47.7438" lon="-3.50405">
        <ele>5.2</ele>
        <time>2021-08-14T10:35:15Z</time>
      </trkpt>
      <trkpt lat="47.74375" lon="-3.50403">
        <ele>5</ele>
        <time>2021-08-14T10:35:16Z</time>
      </trkpt>
      <trkpt lat="47.7437" lon="-3.504">
        <ele>5</ele>
        <time>2021-08-14T10:35:17Z</time>
      </trkpt>
      <trkpt lat="47.74365" lon="-3.50398">
        <ele>5</ele>
        <time>2021-08-14T10:35:18Z</time>
      </trkpt>
      <trkpt lat="47.74361" lon="-3.50396">
        <ele>5</ele>
        <time>2021-08-14T10:35:19Z</time>
      </trkpt>
      <trkpt lat="47.74357" lon="-3.50394">
        <ele>5</ele>
        <time>2021-08-14T10:35:20Z</time>
      </trkpt>
      <trkpt lat="47.74353" lon="-3.50392">
        <ele>5</ele>
        <time>2021-08-14T10:35:21Z</time>
      </trkpt>
      <trkpt lat="47.74349" lon="-3.50389">
        <ele>5</ele>
        <time>2021-08-14T10:35:22Z</time>
      </trkpt>
      <trkpt lat="47.74345" lon="-3.50387">
        <ele>5</ele>
        <time>2021-08-14T10:35:23Z</time>
      </trkpt>
      <trkpt lat="47.74341" lon="-3.50385">
        <ele>5</ele>
        <time>2021-08-14T10:35:24Z</time>
      </trkpt>
      <trkpt lat="47.74337" lon="-3.50384">
        <ele>5</ele>
        <time>2021-08-14T10:35:25Z</time>
      </trkpt>
      <trkpt lat="47.74332" lon="-3.50382">
        <ele>5</ele>
        <time>2021-08-14T10:35:26Z</time>
      </trkpt>
      <trkpt lat="47.74328" lon="-3.5038">
        <ele>5</ele>
        <time>2021-08-14T10:35:27Z</time>
      </trkpt>
      <trkpt lat="47.74324" lon="-3.50378">
        <ele>5</ele>
        <time>2021-08-14T10:35:28Z</time>
      </trkpt>
      <trkpt lat="47.74319" lon="-3.50376">
        <ele>5</ele>
        <time>2021-08-14T10:35:29Z</time>
      </trkpt>
      <trkpt lat="47.74315" lon="-3.50374">
        <ele>5</ele>
        <time>2021-08-14T10:35:30Z</time>
      </trkpt>
      <trkpt lat="47.74311" lon="-3.50372">
        <ele>5</ele>
        <time>2021-08-14T10:35:31Z</time>
      </trkpt>
      <trkpt lat="47.74307" lon="-3.5037">
        <ele>5</ele>
        <time>2021-08-14T10:35:32Z</time>
      </trkpt>
      <trkpt lat="47.74303" lon="-3.50369">
        <ele>5</ele>
        <time>2021-08-14T10:35:33Z</time>
      </trkpt>
      <trkpt lat="47.743" lon="-3.50367">
        <ele>5</ele>
        <time>2021-08-14T10:35:34Z</time>
      </trkpt>
      <trkpt lat="47.74296" lon="-3.50365">
        <ele>5</ele>
        <time>2021-08-14T10:35:35Z</time>
      </trkpt>
      <trkpt lat="47.74292" lon="-3.50363">
        <ele>5.2</ele>
        <time>2021-08-14T10:35:36Z</time>
      </trkpt>
      <trkpt lat="47.74288" lon="-3.50362">
        <ele>5.2</ele>
        <time>2021-08-14T10:35:37Z</time>
      </trkpt>
      <trkpt lat="47.74284" lon="-3.5036">
        <ele>5.2</ele>
        <time>2021-08-14T10:35:38Z</time>
      </trkpt>
      <trkpt lat="47.7428" lon="-3.50359">
        <ele>5.2</ele>
        <time>2021-08-14T10:35:39Z</time>
      </trkpt>
      <trkpt lat="47.74276" lon="-3.50357">
        <ele>5</ele>
        <time>2021-08-14T10:35:40Z</time>
      </trkpt>
      <trkpt lat="47.74272" lon="-3.50355">
        <ele>5</ele>
        <time>2021-08-14T10:35:41Z</time>
      </trkpt>
      <trkpt lat="47.74268" lon="-3.50353">
        <ele>5</ele>
        <time>2021-08-14T10:35:42Z</time>
      </trkpt>
      <trkpt lat="47.74264" lon="-3.50352">
        <ele>5</ele>
        <time>2021-08-14T10:35:43Z</time>
      </trkpt>
      <trkpt lat="47.7426" lon="-3.5035">
        <ele>5</ele>
        <time>2021-08-14T10:35:44Z</time>
      </trkpt>
      <trkpt lat="47.74255" lon="-3.50348">
        <ele>5</ele>
        <time>2021-08-14T10:35:45Z</time>
      </trkpt>
      <trkpt lat="47.74251" lon="-3.50346">
        <ele>5</ele>
        <time>2021-08-14T10:35:46Z</time>
      </trkpt>
      <trkpt lat="47.74247" lon="-3.50344">
        <ele>5</ele>
        <time>2021-08-14T10:35:47Z</time>
      </trkpt>
      <trkpt lat="47.74242" lon="-3.50342">
        <ele>5</ele>
        <time>2021-08-14T10:35:48Z</time>
      </trkpt>
      <trkpt lat="47.74238" lon="-3.5034">
        <ele>5</ele>
        <time>2021-08-14T10:35:49Z</time>
      </trkpt>
      <trkpt lat="47.74234" lon="-3.50338">
        <ele>4.8</ele>
        <time>2021-08-14T10:35:50Z</time>
      </trkpt>
      <trkpt lat="47.7423" lon="-3.50336">
        <ele>4.8</ele>
        <time>2021-08-14T10:35:51Z</time>
      </trkpt>
      <trkpt lat="47.74226" lon="-3.50335">
        <ele>4.8</ele>
        <time>2021-08-14T10:35:52Z</time>
      </trkpt>
      <trkpt lat="47.74222" lon="-3.50333">
        <ele>4.8</ele>
        <time>2021-08-14T10:35:53Z</time>
      </trkpt>
      <trkpt lat="47.74217" lon="-3.50331">
        <ele>4.8</ele>
        <time>2021-08-14T10:35:54Z</time>
      </trkpt>
      <trkpt lat="47.74213" lon="-3.50329">
        <ele>4.6</ele>
        <time>2021-08-14T10:35:55Z</time>
      </trkpt>
      <trkpt lat="47.74209" lon="-3.50327">
        <ele>4.6</ele>
        <time>2021-08-14T10:35:56Z</time>
      </trkpt>
      <trkpt lat="47.74206" lon="-3.50325">
        <ele>4.4</ele>
        <time>2021-08-14T10:35:57Z</time>
      </trkpt>
      <trkpt lat="47.74202" lon="-3.50324">
        <ele>4.4</ele>
        <time>2021-08-14T10:35:58Z</time>
      </trkpt>
      <trkpt lat="47.74198" lon="-3.50322">
        <ele>4.4</ele>
        <time>2021-08-14T10:35:59Z</time>
      </trkpt>
      <trkpt lat="47.74194" lon="-3.50321">
        <ele>4.4</ele>
        <time>2021-08-14T10:36:00Z</time>
      </trkpt>
      <trkpt lat="47.74191" lon="-3.50319">
        <ele>4.4</ele>
        <time>2021-08-14T10:36:01Z</time>
      </trkpt>
      <trkpt lat="47.74188" lon="-3.50318">
        <ele>4.4</ele>
        <time>2021-08-14T10:36:02Z</time>
      </trkpt>
      <trkpt lat="47.74184" lon="-3.50316">
        <ele>4.2</ele>
        <time>2021-08-14T10:36:03Z</time>
      </trkpt>
      <trkpt lat="47.74181" lon="-3.50314">
        <ele>4.2</ele>
        <time>2021-08-14T10:36:04Z</time>
      </trkpt>
      <trkpt lat="47.74177" lon="-3.50313">
        <ele>4.2</ele>
        <time>2021-08-14T10:36:05Z</time>
      </trkpt>
      <trkpt lat="47.74173" lon="-3.50311">
        <ele>4.2</ele>
        <time>2021-08-14T10:36:06Z</time>
      </trkpt>
      <trkpt lat="47.74169" lon="-3.5031">
        <ele>4.2</ele>
        <time>2021-08-14T10:36:07Z</time>
      </trkpt>
      <trkpt lat="47.74165" lon="-3.50308">
        <ele>4.2</ele>
        <time>2021-08-14T10:36:08Z</time>
      </trkpt>
      <trkpt lat="47.7416" lon="-3.50306">
        <ele>4.2</ele>
        <time>2021-08-14T10:36:09Z</time>
      </trkpt>
      <trkpt lat="47.74156" lon="-3.50304">
        <ele>4</ele>
        <time>2021-08-14T10:36:10Z</time>
      </trkpt>
      <trkpt lat="47.74152" lon="-3.50302">
        <ele>4</ele>
        <time>2021-08-14T10:36:11Z</time>
      </trkpt>
      <trkpt lat="47.74147" lon="-3.503">
        <ele>4</ele>
        <time>2021-08-14T10:36:12Z</time>
      </trkpt>
      <trkpt lat="47.74143" lon="-3.50298">
        <ele>4</ele>
        <time>2021-08-14T10:36:13Z</time>
      </trkpt>
      <trkpt lat="47.74139" lon="-3.50297">
        <ele>4</ele>
        <time>2021-08-14T10:36:14Z</time>
      </trkpt>
      <trkpt lat="47.74135" lon="-3.50295">
        <ele>4</ele>
        <time>2021-08-14T10:36:15Z</time>
      </trkpt>
      <trkpt lat="47.74131" lon="-3.50294">
        <ele>4</ele>
        <time>2021-08-14T10:36:16Z</time>
      </trkpt>
      <trkpt lat="47.74126" lon="-3.50292">
        <ele>4</ele>
        <time>2021-08-14T10:36:17Z</time>
      </trkpt>
      <trkpt lat="47.74122" lon="-3.5029">
        <ele>4</ele>
        <time>2021-08-14T10:36:18Z</time>
      </trkpt>
      <trkpt lat="47.74118" lon="-3.50289">
        <ele>4</ele>
        <time>2021-08-14T10:36:19Z</time>
      </trkpt>
      <trkpt lat="47.74113" lon="-3.50287">
        <ele>3.8</ele>
        <time>2021-08-14T10:36:20Z</time>
      </trkpt>
      <trkpt lat="47.74109" lon="-3.50285">
        <ele>3.8</ele>
        <time>2021-08-14T10:36:21Z</time>
      </trkpt>
      <trkpt lat="47.74105" lon="-3.50283">
        <ele>3.6</ele>
        <time>2021-08-14T10:36:22Z</time>
      </trkpt>
      <trkpt lat="47.741" lon="-3.50281">
        <ele>3.6</ele>
        <time>2021-08-14T10:36:23Z</time>
      </trkpt>
      <trkpt lat="47.74096" lon="-3.50279">
        <ele>3.6</ele>
        <time>2021-08-14T10:36:24Z</time>
      </trkpt>
      <trkpt lat="47.74092" lon="-3.50277">
        <ele>3.4</ele>
        <time>2021-08-14T10:36:25Z</time>
      </trkpt>
      <trkpt lat="47.74087" lon="-3.50275">
        <ele>3.2</ele>
        <time>2021-08-14T10:36:26Z</time>
      </trkpt>
      <trkpt lat="47.74083" lon="-3.50274">
        <ele>3.2</ele>
        <time>2021-08-14T10:36:27Z</time>
      </trkpt>
      <trkpt lat="47.74079" lon="-3.50272">
        <ele>3.2</ele>
        <time>2021-08-14T10:36:28Z</time>
      </trkpt>
      <trkpt lat="47.74074" lon="-3.5027">
        <ele>3</ele>
        <time>2021-08-14T10:36:29Z</time>
      </trkpt>
      <trkpt lat="47.7407" lon="-3.50268">
        <ele>3</ele>
        <time>2021-08-14T10:36:30Z</time>
      </trkpt>
      <trkpt lat="47.74066" lon="-3.50266">
        <ele>3</ele>
        <time>2021-08-14T10:36:31Z</time>
      </trkpt>
      <trkpt lat="47.74062" lon="-3.50264">
        <ele>3</ele>
        <time>2021-08-14T10:36:32Z</time>
      </trkpt>
      <trkpt lat="47.74057" lon="-3.50262">
        <ele>2.8</ele>
        <time>2021-08-14T10:36:33Z</time>
      </trkpt>
      <trkpt lat="47.74053" lon="-3.50261">
        <ele>2.8</ele>
        <time>2021-08-14T10:36:34Z</time>
      </trkpt>
      <trkpt lat="47.74049" lon="-3.50259">
        <ele>2.8</ele>
        <time>2021-08-14T10:36:35Z</time>
      </trkpt>
      <trkpt lat="47.74044" lon="-3.50257">
        <ele>2.8</ele>
        <time>2021-08-14T10:36:36Z</time>
      </trkpt>
      <trkpt lat="47.7404" lon="-3.50255">
        <ele>2.8</ele>
        <time>2021-08-14T10:36:37Z</time>
      </trkpt>
      <trkpt lat="47.74036" lon="-3.50253">
        <ele>2.8</ele>
        <time>2021-08-14T10:36:38Z</time>
      </trkpt>
      <trkpt lat="47.74032" lon="-3.50252">
        <ele>2.8</ele>
        <time>2021-08-14T10:36:39Z</time>
      </trkpt>
      <trkpt lat="47.74028" lon="-3.5025">
        <ele>2.8</ele>
        <time>2021-08-14T10:36:40Z</time>
      </trkpt>
      <trkpt lat="47.74024" lon="-3.50248">
        <ele>2.8</ele>
        <time>2021-08-14T10:36:41Z</time>
      </trkpt>
      <trkpt lat="47.7402" lon="-3.50246">
        <ele>2.8</ele>
        <time>2021-08-14T10:36:42Z</time>
      </trkpt>
      <trkpt lat="47.74017" lon="-3.50245">
        <ele>2.8</ele>
        <time>2021-08-14T10:36:43Z</time>
      </trkpt>
      <trkpt lat="47.74013" lon="-3.50243">
        <ele>2.8</ele>
        <time>2021-08-14T10:36:44Z</time>
      </trkpt>
      <trkpt lat="47.74009" lon="-3.50242">
        <ele>2.8</ele>
        <time>2021-08-14T10:36:45Z</time>
      </trkpt>
      <trkpt lat="47.74006" lon="-3.5024">
        <ele>2.8</ele>
        <time>2021-08-14T10:36:46Z</time>
      </trkpt>
      <trkpt lat="47.74002" lon="-3.50238">
        <ele>2.8</ele>
        <time>2021-08-14T10:36:47Z</time>
      </trkpt>
      <trkpt lat="47.73998" lon="-3.50236">
        <ele>3</ele>
        <time>2021-08-14T10:36:48Z</time>
      </trkpt>
      <trkpt lat="47.73995" lon="-3.50234">
        <ele>3</ele>
        <time>2021-08-14T10:36:49Z</time>
      </trkpt>
      <trkpt lat="47.73991" lon="-3.50233">
        <ele>3</ele>
        <time>2021-08-14T10:36:50Z</time>
      </trkpt>
      <trkpt lat="47.73987" lon="-3.50231">
        <ele>3</ele>
        <time>2021-08-14T10:36:51Z</time>
      </trkpt>
      <trkpt lat="47.73983" lon="-3.50229">
        <ele>3</ele>
        <time>2021-08-14T10:36:52Z</time>
      </trkpt>
      <trkpt lat="47.73979" lon="-3.50227">
        <ele>3.2</ele>
        <time>2021-08-14T10:36:53Z</time>
      </trkpt>
      <trkpt lat="47.73975" lon="-3.50225">
        <ele>3.2</ele>
        <time>2021-08-14T10:36:54Z</time>
      </trkpt>
      <trkpt lat="47.73971" lon="-3.50223">
        <ele>3.2</ele>
        <time>2021-08-14T10:36:55Z</time>
      </trkpt>
      <trkpt lat="47.73967" lon="-3.50222">
        <ele>3.2</ele>
        <time>2021-08-14T10:36:56Z</time>
      </trkpt>
      <trkpt lat="47.73964" lon="-3.5022">
        <ele>3.2</ele>
        <time>2021-08-14T10:36:57Z</time>
      </trkpt>
      <trkpt lat="47.7396" lon="-3.50218">
        <ele>3.2</ele>
        <time>2021-08-14T10:36:58Z</time>
      </trkpt>
      <trkpt lat="47.73956" lon="-3.50216">
        <ele>3.2</ele>
        <time>2021-08-14T10:36:59Z</time>
      </trkpt>
      <trkpt lat="47.73952" lon="-3.50215">
        <ele>3.2</ele>
        <time>2021-08-14T10:37:00Z</time>
      </trkpt>
      <trkpt lat="47.73948" lon="-3.50213">
        <ele>3.2</ele>
        <time>2021-08-14T10:37:01Z</time>
      </trkpt>
      <trkpt lat="47.73944" lon="-3.50212">
        <ele>3.2</ele>
        <time>2021-08-14T10:37:02Z</time>
      </trkpt>
      <trkpt lat="47.7394" lon="-3.5021">
        <ele>3.2</ele>
        <time>2021-08-14T10:37:03Z</time>
      </trkpt>
      <trkpt lat="47.73936" lon="-3.50209">
        <ele>3.2</ele>
        <time>2021-08-14T10:37:04Z</time>
      </trkpt>
      <trkpt lat="47.73932" lon="-3.50207">
        <ele>3.2</ele>
        <time>2021-08-14T10:37:05Z</time>
      </trkpt>
      <trkpt lat="47.73927" lon="-3.50205">
        <ele>3.2</ele>
        <time>2021-08-14T10:37:06Z</time>
      </trkpt>
      <trkpt lat="47.73923" lon="-3.50204">
        <ele>3.2</ele>
        <time>2021-08-14T10:37:07Z</time>
      </trkpt>
      <trkpt lat="47.73919" lon="-3.50202">
        <ele>3.2</ele>
        <time>2021-08-14T10:37:08Z</time>
      </trkpt>
      <trkpt lat="47.73915" lon="-3.50201">
        <ele>3.2</ele>
        <time>2021-08-14T10:37:09Z</time>
      </trkpt>
      <trkpt lat="47.73911" lon="-3.50199">
        <ele>3.2</ele>
        <time>2021-08-14T10:37:10Z</time>
      </trkpt>
      <trkpt lat="47.73907" lon="-3.50198">
        <ele>3.2</ele>
        <time>2021-08-14T10:37:11Z</time>
      </trkpt>
      <trkpt lat="47.73902" lon="-3.50196">
        <ele>3</ele>
        <time>2021-08-14T10:37:12Z</time>
      </trkpt>
      <trkpt lat="47.73898" lon="-3.50193">
        <ele>3</ele>
        <time>2021-08-14T10:37:13Z</time>
      </trkpt>
      <trkpt lat="47.73894" lon="-3.50191">
        <ele>3</ele>
        <time>2021-08-14T10:37:14Z</time>
      </trkpt>
      <trkpt lat="47.7389" lon="-3.50189">
        <ele>3</ele>
        <time>2021-08-14T10:37:15Z</time>
      </trkpt>
      <trkpt lat="47.73885" lon="-3.50188">
        <ele>3</ele>
        <time>2021-08-14T10:37:16Z</time>
      </trkpt>
      <trkpt lat="47.73881" lon="-3.50186">
        <ele>3</ele>
        <time>2021-08-14T10:37:17Z</time>
      </trkpt>
      <trkpt lat="47.73877" lon="-3.50184">
        <ele>2.8</ele>
        <time>2021-08-14T10:37:18Z</time>
      </trkpt>
      <trkpt lat="47.73873" lon="-3.50182">
        <ele>2.8</ele>
        <time>2021-08-14T10:37:19Z</time>
      </trkpt>
      <trkpt lat="47.73869" lon="-3.5018">
        <ele>2.8</ele>
        <time>2021-08-14T10:37:20Z</time>
      </trkpt>
      <trkpt lat="47.73865" lon="-3.50178">
        <ele>2.8</ele>
        <time>2021-08-14T10:37:21Z</time>
      </trkpt>
      <trkpt lat="47.73861" lon="-3.50177">
        <ele>2.8</ele>
        <time>2021-08-14T10:37:22Z</time>
      </trkpt>
      <trkpt lat="47.73857" lon="-3.50175">
        <ele>2.6</ele>
        <time>2021-08-14T10:37:23Z</time>
      </trkpt>
      <trkpt lat="47.73853" lon="-3.50173">
        <ele>2.4</ele>
        <time>2021-08-14T10:37:24Z</time>
      </trkpt>
      <trkpt lat="47.73849" lon="-3.50171">
        <ele>2.4</ele>
        <time>2021-08-14T10:37:25Z</time>
      </trkpt>
      <trkpt lat="47.73845" lon="-3.50169">
        <ele>2.4</ele>
        <time>2021-08-14T10:37:26Z</time>
      </trkpt>
      <trkpt lat="47.73841" lon="-3.50167">
        <ele>2.4</ele>
        <time>2021-08-14T10:37:27Z</time>
      </trkpt>
      <trkpt lat="47.73837" lon="-3.50166">
        <ele>2.4</ele>
        <time>2021-08-14T10:37:28Z</time>
      </trkpt>
      <trkpt lat="47.73833" lon="-3.50164">
        <ele>2.4</ele>
        <time>2021-08-14T10:37:29Z</time>
      </trkpt>
      <trkpt lat="47.7383" lon="-3.50162">
        <ele>2.4</ele>
        <time>2021-08-14T10:37:30Z</time>
      </trkpt>
      <trkpt lat="47.73826" lon="-3.50161">
        <ele>2.4</ele>
        <time>2021-08-14T10:37:31Z</time>
      </trkpt>
      <trkpt lat="47.73822" lon="-3.50159">
        <ele>2.4</ele>
        <time>2021-08-14T10:37:32Z</time>
      </trkpt>
      <trkpt lat="47.73819" lon="-3.50157">
        <ele>2.4</ele>
        <time>2021-08-14T10:37:33Z</time>
      </trkpt>
      <trkpt lat="47.73816" lon="-3.50156">
        <ele>2.4</ele>
        <time>2021-08-14T10:37:34Z</time>
      </trkpt>
      <trkpt lat="47.73812" lon="-3.50154">
        <ele>2.6</ele>
        <time>2021-08-14T10:37:35Z</time>
      </trkpt>
      <trkpt lat="47.73809" lon="-3.50153">
        <ele>2.4</ele>
        <time>2021-08-14T10:37:36Z</time>
      </trkpt>
      <trkpt lat="47.73806" lon="-3.50152">
        <ele>2.6</ele>
        <time>2021-08-14T10:37:37Z</time>
      </trkpt>
      <trkpt lat="47.73803" lon="-3.50151">
        <ele>2.6</ele>
        <time>2021-08-14T10:37:38Z</time>
      </trkpt>
      <trkpt lat="47.738" lon="-3.5015">
        <ele>2.8</ele>
        <time>2021-08-14T10:37:39Z</time>
      </trkpt>
      <trkpt lat="47.73797" lon="-3.5015">
        <ele>3</ele>
        <time>2021-08-14T10:37:40Z</time>
      </trkpt>
      <trkpt lat="47.73794" lon="-3.50149">
        <ele>3</ele>
        <time>2021-08-14T10:37:41Z</time>
      </trkpt>
      <trkpt lat="47.73791" lon="-3.50148">
        <ele>3</ele>
        <time>2021-08-14T10:37:42Z</time>
      </trkpt>
      <trkpt lat="47.73788" lon="-3.50147">
        <ele>3.2</ele>
        <time>2021-08-14T10:37:43Z</time>
      </trkpt>
      <trkpt lat="47.73785" lon="-3.50146">
        <ele>3</ele>
        <time>2021-08-14T10:37:44Z</time>
      </trkpt>
      <trkpt lat="47.73781" lon="-3.50145">
        <ele>3.2</ele>
        <time>2021-08-14T10:37:45Z</time>
      </trkpt>
      <trkpt lat="47.73778" lon="-3.50144">
        <ele>3.2</ele>
        <time>2021-08-14T10:37:46Z</time>
      </trkpt>
      <trkpt lat="47.73775" lon="-3.50142">
        <ele>3.4</ele>
        <time>2021-08-14T10:37:47Z</time>
      </trkpt>
      <trkpt lat="47.73772" lon="-3.50141">
        <ele>3.4</ele>
        <time>2021-08-14T10:37:48Z</time>
      </trkpt>
      <trkpt lat="47.73769" lon="-3.50139">
        <ele>3.4</ele>
        <time>2021-08-14T10:37:49Z</time>
      </trkpt>
      <trkpt lat="47.73766" lon="-3.50138">
        <ele>3.4</ele>
        <time>2021-08-14T10:37:50Z</time>
      </trkpt>
      <trkpt lat="47.73764" lon="-3.50137">
        <ele>3.4</ele>
        <time>2021-08-14T10:37:51Z</time>
      </trkpt>
      <trkpt lat="47.73761" lon="-3.50136">
        <ele>3.4</ele>
        <time>2021-08-14T10:37:52Z</time>
      </trkpt>
      <trkpt lat="47.73757" lon="-3.50135">
        <ele>3.4</ele>
        <time>2021-08-14T10:37:53Z</time>
      </trkpt>
      <trkpt lat="47.73754" lon="-3.50134">
        <ele>3.4</ele>
        <time>2021-08-14T10:37:54Z</time>
      </trkpt>
      <trkpt lat="47.73751" lon="-3.50133">
        <ele>3.4</ele>
        <time>2021-08-14T10:37:55Z</time>
      </trkpt>
      <trkpt lat="47.73747" lon="-3.50133">
        <ele>3.4</ele>
        <time>2021-08-14T10:37:56Z</time>
      </trkpt>
      <trkpt lat="47.73744" lon="-3.50133">
        <ele>3.4</ele>
        <time>2021-08-14T10:37:57Z</time>
      </trkpt>
      <trkpt lat="47.73741" lon="-3.50133">
        <ele>3.4</ele>
        <time>2021-08-14T10:37:58Z</time>
      </trkpt>
      <trkpt lat="47.73737" lon="-3.50134">
        <ele>3.6</ele>
        <time>2021-08-14T10:37:59Z</time>
      </trkpt>
      <trkpt lat="47.73734" lon="-3.50135">
        <ele>3.6</ele>
        <time>2021-08-14T10:38:00Z</time>
      </trkpt>
      <trkpt lat="47.73731" lon="-3.50136">
        <ele>3.6</ele>
        <time>2021-08-14T10:38:01Z</time>
      </trkpt>
      <trkpt lat="47.73728" lon="-3.50136">
        <ele>3.6</ele>
        <time>2021-08-14T10:38:02Z</time>
      </trkpt>
      <trkpt lat="47.73724" lon="-3.50137">
        <ele>3.8</ele>
        <time>2021-08-14T10:38:03Z</time>
      </trkpt>
      <trkpt lat="47.73721" lon="-3.50138">
        <ele>3.8</ele>
        <time>2021-08-14T10:38:04Z</time>
      </trkpt>
      <trkpt lat="47.73718" lon="-3.50138">
        <ele>3.8</ele>
        <time>2021-08-14T10:38:05Z</time>
      </trkpt>
      <trkpt lat="47.73714" lon="-3.50138">
        <ele>3.8</ele>
        <time>2021-08-14T10:38:06Z</time>
      </trkpt>
      <trkpt lat="47.73711" lon="-3.50138">
        <ele>4</ele>
        <time>2021-08-14T10:38:07Z</time>
      </trkpt>
      <trkpt lat="47.73707" lon="-3.50137">
        <ele>4</ele>
        <time>2021-08-14T10:38:08Z</time>
      </trkpt>
      <trkpt lat="47.73704" lon="-3.50136">
        <ele>4</ele>
        <time>2021-08-14T10:38:09Z</time>
      </trkpt>
      <trkpt lat="47.73701" lon="-3.50135">
        <ele>4.2</ele>
        <time>2021-08-14T10:38:10Z</time>
      </trkpt>
      <trkpt lat="47.73697" lon="-3.50134">
        <ele>4.2</ele>
        <time>2021-08-14T10:38:11Z</time>
      </trkpt>
      <trkpt lat="47.73694" lon="-3.50133">
        <ele>4.2</ele>
        <time>2021-08-14T10:38:12Z</time>
      </trkpt>
      <trkpt lat="47.73691" lon="-3.50133">
        <ele>4.2</ele>
        <time>2021-08-14T10:38:13Z</time>
      </trkpt>
      <trkpt lat="47.73688" lon="-3.50133">
        <ele>4.4</ele>
        <time>2021-08-14T10:38:14Z</time>
      </trkpt>
      <trkpt lat="47.73685" lon="-3.50132">
        <ele>4.6</ele>
        <time>2021-08-14T10:38:15Z</time>
      </trkpt>
      <trkpt lat="47.73683" lon="-3.50131">
        <ele>4.6</ele>
        <time>2021-08-14T10:38:16Z</time>
      </trkpt>
      <trkpt lat="47.7368" lon="-3.5013">
        <ele>4.8</ele>
        <time>2021-08-14T10:38:17Z</time>
      </trkpt>
      <trkpt lat="47.73677" lon="-3.50128">
        <ele>5</ele>
        <time>2021-08-14T10:38:18Z</time>
      </trkpt>
      <trkpt lat="47.73674" lon="-3.50127">
        <ele>5</ele>
        <time>2021-08-14T10:38:19Z</time>
      </trkpt>
      <trkpt lat="47.73672" lon="-3.50127">
        <ele>5.2</ele>
        <time>2021-08-14T10:38:20Z</time>
      </trkpt>
      <trkpt lat="47.73669" lon="-3.50126">
        <ele>5.2</ele>
        <time>2021-08-14T10:38:21Z</time>
      </trkpt>
      <trkpt lat="47.73667" lon="-3.50125">
        <ele>5.4</ele>
        <time>2021-08-14T10:38:22Z</time>
      </trkpt>
      <trkpt lat="47.73664" lon="-3.50124">
        <ele>5.4</ele>
        <time>2021-08-14T10:38:23Z</time>
      </trkpt>
      <trkpt lat="47.73661" lon="-3.50123">
        <ele>5.4</ele>
        <time>2021-08-14T10:38:24Z</time>
      </trkpt>
      <trkpt lat="47.73658" lon="-3.50122">
        <ele>5.4</ele>
        <time>2021-08-14T10:38:25Z</time>
      </trkpt>
      <trkpt lat="47.73655" lon="-3.50121">
        <ele>5.6</ele>
        <time>2021-08-14T10:38:26Z</time>
      </trkpt>
      <trkpt lat="47.73651" lon="-3.5012">
        <ele>5.6</ele>
        <time>2021-08-14T10:38:27Z</time>
      </trkpt>
      <trkpt lat="47.73648" lon="-3.5012">
        <ele>5.6</ele>
        <time>2021-08-14T10:38:28Z</time>
      </trkpt>
      <trkpt lat="47.73644" lon="-3.50119">
        <ele>5.6</ele>
        <time>2021-08-14T10:38:29Z</time>
      </trkpt>
      <trkpt lat="47.7364" lon="-3.50117">
        <ele>5.6</ele>
        <time>2021-08-14T10:38:30Z</time>
      </trkpt>
      <trkpt lat="47.73636" lon="-3.50116">
        <ele>5.6</ele>
        <time>2021-08-14T10:38:31Z</time>
      </trkpt>
      <trkpt lat="47.73631" lon="-3.50113">
        <ele>5.6</ele>
        <time>2021-08-14T10:38:32Z</time>
      </trkpt>
      <trkpt lat="47.73627" lon="-3.50111">
        <ele>5.6</ele>
        <time>2021-08-14T10:38:33Z</time>
      </trkpt>
      <trkpt lat="47.73622" lon="-3.50109">
        <ele>5.6</ele>
        <time>2021-08-14T10:38:34Z</time>
      </trkpt>
      <trkpt lat="47.73618" lon="-3.50107">
        <ele>5.6</ele>
        <time>2021-08-14T10:38:35Z</time>
      </trkpt>
      <trkpt lat="47.73613" lon="-3.50106">
        <ele>5.6</ele>
        <time>2021-08-14T10:38:36Z</time>
      </trkpt>
      <trkpt lat="47.7361" lon="-3.50104">
        <ele>5.6</ele>
        <time>2021-08-14T10:38:37Z</time>
      </trkpt>
      <trkpt lat="47.73606" lon="-3.50102">
        <ele>5.6</ele>
        <time>2021-08-14T10:38:38Z</time>
      </trkpt>
      <trkpt lat="47.73603" lon="-3.501">
        <ele>5.6</ele>
        <time>2021-08-14T10:38:39Z</time>
      </trkpt>
      <trkpt lat="47.73599" lon="-3.50098">
        <ele>5.6</ele>
        <time>2021-08-14T10:38:40Z</time>
      </trkpt>
      <trkpt lat="47.73596" lon="-3.50095">
        <ele>5.6</ele>
        <time>2021-08-14T10:38:41Z</time>
      </trkpt>
      <trkpt lat="47.73592" lon="-3.50094">
        <ele>5.6</ele>
        <time>2021-08-14T10:38:42Z</time>
      </trkpt>
      <trkpt lat="47.73588" lon="-3.50091">
        <ele>5.6</ele>
        <time>2021-08-14T10:38:43Z</time>
      </trkpt>
      <trkpt lat="47.73585" lon="-3.50089">
        <ele>5.6</ele>
        <time>2021-08-14T10:38:44Z</time>
      </trkpt>
      <trkpt lat="47.73581" lon="-3.50086">
        <ele>5.6</ele>
        <time>2021-08-14T10:38:45Z</time>
      </trkpt>
      <trkpt lat="47.73578" lon="-3.50083">
        <ele>5.6</ele>
        <time>2021-08-14T10:38:46Z</time>
      </trkpt>
      <trkpt lat="47.73574" lon="-3.5008">
        <ele>5.6</ele>
        <time>2021-08-14T10:38:47Z</time>
      </trkpt>
      <trkpt lat="47.7357" lon="-3.50077">
        <ele>5.8</ele>
        <time>2021-08-14T10:38:48Z</time>
      </trkpt>
      <trkpt lat="47.73567" lon="-3.50074">
        <ele>5.8</ele>
        <time>2021-08-14T10:38:49Z</time>
      </trkpt>
      <trkpt lat="47.73563" lon="-3.5007">
        <ele>5.8</ele>
        <time>2021-08-14T10:38:50Z</time>
      </trkpt>
      <trkpt lat="47.73559" lon="-3.50067">
        <ele>5.8</ele>
        <time>2021-08-14T10:38:51Z</time>
      </trkpt>
      <trkpt lat="47.73556" lon="-3.50063">
        <ele>5.8</ele>
        <time>2021-08-14T10:38:52Z</time>
      </trkpt>
      <trkpt lat="47.73552" lon="-3.5006">
        <ele>5.8</ele>
        <time>2021-08-14T10:38:53Z</time>
      </trkpt>
      <trkpt lat="47.73548" lon="-3.50057">
        <ele>5.8</ele>
        <time>2021-08-14T10:38:54Z</time>
      </trkpt>
      <trkpt lat="47.73544" lon="-3.50054">
        <ele>5.8</ele>
        <time>2021-08-14T10:38:55Z</time>
      </trkpt>
      <trkpt lat="47.73541" lon="-3.50051">
        <ele>6</ele>
        <time>2021-08-14T10:38:56Z</time>
      </trkpt>
      <trkpt lat="47.73537" lon="-3.50048">
        <ele>6</ele>
        <time>2021-08-14T10:38:57Z</time>
      </trkpt>
      <trkpt lat="47.73533" lon="-3.50045">
        <ele>6</ele>
        <time>2021-08-14T10:38:58Z</time>
      </trkpt>
      <trkpt lat="47.73529" lon="-3.50042">
        <ele>6</ele>
        <time>2021-08-14T10:38:59Z</time>
      </trkpt>
      <trkpt lat="47.73525" lon="-3.50038">
        <ele>6</ele>
        <time>2021-08-14T10:39:00Z</time>
      </trkpt>
      <trkpt lat="47.73521" lon="-3.50035">
        <ele>6</ele>
        <time>2021-08-14T10:39:01Z</time>
      </trkpt>
      <trkpt lat="47.73517" lon="-3.50031">
        <ele>6</ele>
        <time>2021-08-14T10:39:02Z</time>
      </trkpt>
      <trkpt lat="47.73513" lon="-3.50028">
        <ele>6</ele>
        <time>2021-08-14T10:39:03Z</time>
      </trkpt>
      <trkpt lat="47.73509" lon="-3.50024">
        <ele>5.8</ele>
        <time>2021-08-14T10:39:04Z</time>
      </trkpt>
      <trkpt lat="47.73506" lon="-3.50021">
        <ele>5.8</ele>
        <time>2021-08-14T10:39:05Z</time>
      </trkpt>
      <trkpt lat="47.73502" lon="-3.50018">
        <ele>5.8</ele>
        <time>2021-08-14T10:39:06Z</time>
      </trkpt>
      <trkpt lat="47.73499" lon="-3.50015">
        <ele>5.8</ele>
        <time>2021-08-14T10:39:07Z</time>
      </trkpt>
      <trkpt lat="47.73495" lon="-3.50011">
        <ele>5.8</ele>
        <time>2021-08-14T10:39:08Z</time>
      </trkpt>
      <trkpt lat="47.73493" lon="-3.50007">
        <ele>5.8</ele>
        <time>2021-08-14T10:39:09Z</time>
      </trkpt>
      <trkpt lat="47.7349" lon="-3.50004">
        <ele>6</ele>
        <time>2021-08-14T10:39:10Z</time>
      </trkpt>
      <trkpt lat="47.73488" lon="-3.5">
        <ele>6</ele>
        <time>2021-08-14T10:39:11Z</time>
      </trkpt>
      <trkpt lat="47.73485" lon="-3.49997">
        <ele>6</ele>
        <time>2021-08-14T10:39:12Z</time>
      </trkpt>
      <trkpt lat="47.73482" lon="-3.49994">
        <ele>6</ele>
        <time>2021-08-14T10:39:13Z</time>
      </trkpt>
      <trkpt lat="47.7348" lon="-3.49992">
        <ele>6</ele>
        <time>2021-08-14T10:39:14Z</time>
      </trkpt>
      <trkpt lat="47.73477" lon="-3.49988">
        <ele>5.8</ele>
        <time>2021-08-14T10:39:15Z</time>
      </trkpt>
      <trkpt lat="47.73473" lon="-3.49985">
        <ele>5.8</ele>
        <time>2021-08-14T10:39:16Z</time>
      </trkpt>
      <trkpt lat="47.7347" lon="-3.49981">
        <ele>5.8</ele>
        <time>2021-08-14T10:39:17Z</time>
      </trkpt>
      <trkpt lat="47.73467" lon="-3.49978">
        <ele>5.8</ele>
        <time>2021-08-14T10:39:18Z</time>
      </trkpt>
      <trkpt lat="47.73464" lon="-3.49974">
        <ele>5.8</ele>
        <time>2021-08-14T10:39:19Z</time>
      </trkpt>
      <trkpt lat="47.7346" lon="-3.4997">
        <ele>5.8</ele>
        <time>2021-08-14T10:39:20Z</time>
      </trkpt>
      <trkpt lat="47.73457" lon="-3.49967">
        <ele>5.8</ele>
        <time>2021-08-14T10:39:21Z</time>
      </trkpt>
      <trkpt lat="47.73454" lon="-3.49963">
        <ele>5.8</ele>
        <time>2021-08-14T10:39:22Z</time>
      </trkpt>
      <trkpt lat="47.73451" lon="-3.49959">
        <ele>5.8</ele>
        <time>2021-08-14T10:39:23Z</time>
      </trkpt>
      <trkpt lat="47.73447" lon="-3.49955">
        <ele>5.8</ele>
        <time>2021-08-14T10:39:24Z</time>
      </trkpt>
      <trkpt lat="47.73444" lon="-3.49951">
        <ele>5.6</ele>
        <time>2021-08-14T10:39:25Z</time>
      </trkpt>
      <trkpt lat="47.7344" lon="-3.49947">
        <ele>5.6</ele>
        <time>2021-08-14T10:39:26Z</time>
      </trkpt>
      <trkpt lat="47.73437" lon="-3.49944">
        <ele>5.6</ele>
        <time>2021-08-14T10:39:27Z</time>
      </trkpt>
      <trkpt lat="47.73433" lon="-3.4994">
        <ele>5.6</ele>
        <time>2021-08-14T10:39:28Z</time>
      </trkpt>
      <trkpt lat="47.7343" lon="-3.49936">
        <ele>5.6</ele>
        <time>2021-08-14T10:39:29Z</time>
      </trkpt>
      <trkpt lat="47.73426" lon="-3.49932">
        <ele>5.6</ele>
        <time>2021-08-14T10:39:30Z</time>
      </trkpt>
      <trkpt lat="47.73422" lon="-3.49929">
        <ele>5.4</ele>
        <time>2021-08-14T10:39:31Z</time>
      </trkpt>
      <trkpt lat="47.73419" lon="-3.49926">
        <ele>5.4</ele>
        <time>2021-08-14T10:39:32Z</time>
      </trkpt>
      <trkpt lat="47.73415" lon="-3.49922">
        <ele>5.4</ele>
        <time>2021-08-14T10:39:33Z</time>
      </trkpt>
      <trkpt lat="47.73412" lon="-3.49919">
        <ele>5.2</ele>
        <time>2021-08-14T10:39:34Z</time>
      </trkpt>
      <trkpt lat="47.73408" lon="-3.49915">
        <ele>5.2</ele>
        <time>2021-08-14T10:39:35Z</time>
      </trkpt>
      <trkpt lat="47.73405" lon="-3.49911">
        <ele>5.2</ele>
        <time>2021-08-14T10:39:36Z</time>
      </trkpt>
      <trkpt lat="47.73401" lon="-3.49908">
        <ele>5.2</ele>
        <time>2021-08-14T10:39:37Z</time>
      </trkpt>
      <trkpt lat="47.73397" lon="-3.49905">
        <ele>5</ele>
        <time>2021-08-14T10:39:38Z</time>
      </trkpt>
      <trkpt lat="47.73393" lon="-3.49902">
        <ele>5</ele>
        <time>2021-08-14T10:39:39Z</time>
      </trkpt>
      <trkpt lat="47.7339" lon="-3.49899">
        <ele>5</ele>
        <time>2021-08-14T10:39:40Z</time>
      </trkpt>
      <trkpt lat="47.73386" lon="-3.49896">
        <ele>5</ele>
        <time>2021-08-14T10:39:41Z</time>
      </trkpt>
      <trkpt lat="47.73383" lon="-3.49893">
        <ele>5</ele>
        <time>2021-08-14T10:39:42Z</time>
      </trkpt>
      <trkpt lat="47.73379" lon="-3.49891">
        <ele>4.8</ele>
        <time>2021-08-14T10:39:43Z</time>
      </trkpt>
      <trkpt lat="47.73375" lon="-3.49888">
        <ele>4.6</ele>
        <time>2021-08-14T10:39:44Z</time>
      </trkpt>
      <trkpt lat="47.73372" lon="-3.49885">
        <ele>4.6</ele>
        <time>2021-08-14T10:39:45Z</time>
      </trkpt>
      <trkpt lat="47.73368" lon="-3.49882">
        <ele>4.6</ele>
        <time>2021-08-14T10:39:46Z</time>
      </trkpt>
      <trkpt lat="47.73364" lon="-3.4988">
        <ele>4.6</ele>
        <time>2021-08-14T10:39:47Z</time>
      </trkpt>
      <trkpt lat="47.73361" lon="-3.49877">
        <ele>4.4</ele>
        <time>2021-08-14T10:39:48Z</time>
      </trkpt>
      <trkpt lat="47.73357" lon="-3.49874">
        <ele>4.4</ele>
        <time>2021-08-14T10:39:49Z</time>
      </trkpt>
      <trkpt lat="47.73354" lon="-3.49871">
        <ele>4.4</ele>
        <time>2021-08-14T10:39:50Z</time>
      </trkpt>
      <trkpt lat="47.7335" lon="-3.49868">
        <ele>4.4</ele>
        <time>2021-08-14T10:39:51Z</time>
      </trkpt>
      <trkpt lat="47.73347" lon="-3.49865">
        <ele>4.4</ele>
        <time>2021-08-14T10:39:52Z</time>
      </trkpt>
      <trkpt lat="47.73343" lon="-3.49862">
        <ele>4.4</ele>
        <time>2021-08-14T10:39:53Z</time>
      </trkpt>
      <trkpt lat="47.7334" lon="-3.4986">
        <ele>4.4</ele>
        <time>2021-08-14T10:39:54Z</time>
      </trkpt>
      <trkpt lat="47.73337" lon="-3.49857">
        <ele>4.4</ele>
        <time>2021-08-14T10:39:55Z</time>
      </trkpt>
      <trkpt lat="47.73333" lon="-3.49854">
        <ele>4.4</ele>
        <time>2021-08-14T10:39:56Z</time>
      </trkpt>
      <trkpt lat="47.73331" lon="-3.49852">
        <ele>4.4</ele>
        <time>2021-08-14T10:39:57Z</time>
      </trkpt>
      <trkpt lat="47.73328" lon="-3.4985">
        <ele>4.4</ele>
        <time>2021-08-14T10:39:58Z</time>
      </trkpt>
      <trkpt lat="47.73326" lon="-3.49848">
        <ele>4.4</ele>
        <time>2021-08-14T10:39:59Z</time>
      </trkpt>
      <trkpt lat="47.73324" lon="-3.49846">
        <ele>4.4</ele>
        <time>2021-08-14T10:40:00Z</time>
      </trkpt>
      <trkpt lat="47.73321" lon="-3.49844">
        <ele>4.6</ele>
        <time>2021-08-14T10:40:01Z</time>
      </trkpt>
      <trkpt lat="47.73318" lon="-3.49843">
        <ele>4.6</ele>
        <time>2021-08-14T10:40:02Z</time>
      </trkpt>
      <trkpt lat="47.73315" lon="-3.49841">
        <ele>4.6</ele>
        <time>2021-08-14T10:40:03Z</time>
      </trkpt>
      <trkpt lat="47.73313" lon="-3.49838">
        <ele>4.6</ele>
        <time>2021-08-14T10:40:04Z</time>
      </trkpt>
      <trkpt lat="47.7331" lon="-3.49836">
        <ele>4.6</ele>
        <time>2021-08-14T10:40:05Z</time>
      </trkpt>
      <trkpt lat="47.73307" lon="-3.49834">
        <ele>4.8</ele>
        <time>2021-08-14T10:40:06Z</time>
      </trkpt>
      <trkpt lat="47.73304" lon="-3.49832">
        <ele>4.8</ele>
        <time>2021-08-14T10:40:07Z</time>
      </trkpt>
      <trkpt lat="47.73301" lon="-3.49829">
        <ele>4.8</ele>
        <time>2021-08-14T10:40:08Z</time>
      </trkpt>
      <trkpt lat="47.73298" lon="-3.49827">
        <ele>4.8</ele>
        <time>2021-08-14T10:40:09Z</time>
      </trkpt>
      <trkpt lat="47.73295" lon="-3.49825">
        <ele>4.8</ele>
        <time>2021-08-14T10:40:10Z</time>
      </trkpt>
      <trkpt lat="47.73292" lon="-3.49823">
        <ele>4.8</ele>
        <time>2021-08-14T10:40:11Z</time>
      </trkpt>
      <trkpt lat="47.73289" lon="-3.4982">
        <ele>4.8</ele>
        <time>2021-08-14T10:40:12Z</time>
      </trkpt>
      <trkpt lat="47.73286" lon="-3.49817">
        <ele>4.8</ele>
        <time>2021-08-14T10:40:13Z</time>
      </trkpt>
      <trkpt lat="47.73282" lon="-3.49814">
        <ele>4.8</ele>
        <time>2021-08-14T10:40:14Z</time>
      </trkpt>
      <trkpt lat="47.73279" lon="-3.49811">
        <ele>4.8</ele>
        <time>2021-08-14T10:40:15Z</time>
      </trkpt>
      <trkpt lat="47.73276" lon="-3.49808">
        <ele>4.8</ele>
        <time>2021-08-14T10:40:16Z</time>
      </trkpt>
      <trkpt lat="47.73273" lon="-3.49806">
        <ele>4.8</ele>
        <time>2021-08-14T10:40:17Z</time>
      </trkpt>
      <trkpt lat="47.7327" lon="-3.49803">
        <ele>4.8</ele>
        <time>2021-08-14T10:40:18Z</time>
      </trkpt>
      <trkpt lat="47.73266" lon="-3.498">
        <ele>4.8</ele>
        <time>2021-08-14T10:40:19Z</time>
      </trkpt>
      <trkpt lat="47.73262" lon="-3.49797">
        <ele>4.8</ele>
        <time>2021-08-14T10:40:20Z</time>
      </trkpt>
      <trkpt lat="47.73258" lon="-3.49794">
        <ele>4.8</ele>
        <time>2021-08-14T10:40:21Z</time>
      </trkpt>
      <trkpt lat="47.73254" lon="-3.49791">
        <ele>4.8</ele>
        <time>2021-08-14T10:40:22Z</time>
      </trkpt>
      <trkpt lat="47.7325" lon="-3.49787">
        <ele>4.8</ele>
        <time>2021-08-14T10:40:23Z</time>
      </trkpt>
      <trkpt lat="47.73246" lon="-3.49784">
        <ele>4.8</ele>
        <time>2021-08-14T10:40:24Z</time>
      </trkpt>
      <trkpt lat="47.73242" lon="-3.49781">
        <ele>4.8</ele>
        <time>2021-08-14T10:40:25Z</time>
      </trkpt>
      <trkpt lat="47.73238" lon="-3.49778">
        <ele>4.8</ele>
        <time>2021-08-14T10:40:26Z</time>
      </trkpt>
      <trkpt lat="47.73234" lon="-3.49775">
        <ele>4.8</ele>
        <time>2021-08-14T10:40:27Z</time>
      </trkpt>
      <trkpt lat="47.73231" lon="-3.49772">
        <ele>4.8</ele>
        <time>2021-08-14T10:40:28Z</time>
      </trkpt>
      <trkpt lat="47.73228" lon="-3.4977">
        <ele>4.8</ele>
        <time>2021-08-14T10:40:29Z</time>
      </trkpt>
      <trkpt lat="47.73224" lon="-3.49768">
        <ele>4.8</ele>
        <time>2021-08-14T10:40:30Z</time>
      </trkpt>
      <trkpt lat="47.73221" lon="-3.49766">
        <ele>4.8</ele>
        <time>2021-08-14T10:40:31Z</time>
      </trkpt>
      <trkpt lat="47.73218" lon="-3.49764">
        <ele>4.8</ele>
        <time>2021-08-14T10:40:32Z</time>
      </trkpt>
      <trkpt lat="47.73215" lon="-3.49761">
        <ele>4.8</ele>
        <time>2021-08-14T10:40:33Z</time>
      </trkpt>
      <trkpt lat="47.73212" lon="-3.49759">
        <ele>4.8</ele>
        <time>2021-08-14T10:40:34Z</time>
      </trkpt>
      <trkpt lat="47.73209" lon="-3.49756">
        <ele>4.8</ele>
        <time>2021-08-14T10:40:35Z</time>
      </trkpt>
      <trkpt lat="47.73206" lon="-3.49754">
        <ele>4.8</ele>
        <time>2021-08-14T10:40:36Z</time>
      </trkpt>
      <trkpt lat="47.73203" lon="-3.49752">
        <ele>4.8</ele>
        <time>2021-08-14T10:40:37Z</time>
      </trkpt>
      <trkpt lat="47.73199" lon="-3.49749">
        <ele>5</ele>
        <time>2021-08-14T10:40:38Z</time>
      </trkpt>
      <trkpt lat="47.73196" lon="-3.49747">
        <ele>5</ele>
        <time>2021-08-14T10:40:39Z</time>
      </trkpt>
      <trkpt lat="47.73193" lon="-3.49744">
        <ele>5</ele>
        <time>2021-08-14T10:40:40Z</time>
      </trkpt>
      <trkpt lat="47.73189" lon="-3.49742">
        <ele>5</ele>
        <time>2021-08-14T10:40:41Z</time>
      </trkpt>
      <trkpt lat="47.73186" lon="-3.4974">
        <ele>5</ele>
        <time>2021-08-14T10:40:42Z</time>
      </trkpt>
      <trkpt lat="47.73183" lon="-3.49737">
        <ele>5</ele>
        <time>2021-08-14T10:40:43Z</time>
      </trkpt>
      <trkpt lat="47.7318" lon="-3.49734">
        <ele>5.2</ele>
        <time>2021-08-14T10:40:44Z</time>
      </trkpt>
      <trkpt lat="47.73177" lon="-3.49732">
        <ele>5.4</ele>
        <time>2021-08-14T10:40:45Z</time>
      </trkpt>
      <trkpt lat="47.73173" lon="-3.4973">
        <ele>5.6</ele>
        <time>2021-08-14T10:40:46Z</time>
      </trkpt>
      <trkpt lat="47.7317" lon="-3.49728">
        <ele>5.6</ele>
        <time>2021-08-14T10:40:47Z</time>
      </trkpt>
      <trkpt lat="47.73166" lon="-3.49727">
        <ele>5.6</ele>
        <time>2021-08-14T10:40:48Z</time>
      </trkpt>
      <trkpt lat="47.73162" lon="-3.49726">
        <ele>5.8</ele>
        <time>2021-08-14T10:40:49Z</time>
      </trkpt>
      <trkpt lat="47.73159" lon="-3.49725">
        <ele>5.8</ele>
        <time>2021-08-14T10:40:50Z</time>
      </trkpt>
      <trkpt lat="47.73155" lon="-3.49723">
        <ele>5.8</ele>
        <time>2021-08-14T10:40:51Z</time>
      </trkpt>
      <trkpt lat="47.73151" lon="-3.49721">
        <ele>6</ele>
        <time>2021-08-14T10:40:52Z</time>
      </trkpt>
      <trkpt lat="47.73148" lon="-3.49718">
        <ele>5.8</ele>
        <time>2021-08-14T10:40:53Z</time>
      </trkpt>
      <trkpt lat="47.73145" lon="-3.49716">
        <ele>5.8</ele>
        <time>2021-08-14T10:40:54Z</time>
      </trkpt>
      <trkpt lat="47.73141" lon="-3.49713">
        <ele>6</ele>
        <time>2021-08-14T10:40:55Z</time>
      </trkpt>
      <trkpt lat="47.73138" lon="-3.4971">
        <ele>6</ele>
        <time>2021-08-14T10:40:56Z</time>
      </trkpt>
      <trkpt lat="47.73134" lon="-3.49707">
        <ele>6.2</ele>
        <time>2021-08-14T10:40:57Z</time>
      </trkpt>
      <trkpt lat="47.73131" lon="-3.49705">
        <ele>6.2</ele>
        <time>2021-08-14T10:40:58Z</time>
      </trkpt>
      <trkpt lat="47.73127" lon="-3.49702">
        <ele>6.2</ele>
        <time>2021-08-14T10:40:59Z</time>
      </trkpt>
      <trkpt lat="47.73124" lon="-3.497">
        <ele>6.2</ele>
        <time>2021-08-14T10:41:00Z</time>
      </trkpt>
      <trkpt lat="47.7312" lon="-3.49697">
        <ele>6</ele>
        <time>2021-08-14T10:41:01Z</time>
      </trkpt>
      <trkpt lat="47.73117" lon="-3.49694">
        <ele>6</ele>
        <time>2021-08-14T10:41:02Z</time>
      </trkpt>
      <trkpt lat="47.73113" lon="-3.49692">
        <ele>6</ele>
        <time>2021-08-14T10:41:03Z</time>
      </trkpt>
      <trkpt lat="47.7311" lon="-3.49689">
        <ele>6</ele>
        <time>2021-08-14T10:41:04Z</time>
      </trkpt>
      <trkpt lat="47.73106" lon="-3.49687">
        <ele>6</ele>
        <time>2021-08-14T10:41:05Z</time>
      </trkpt>
      <trkpt lat="47.73103" lon="-3.49684">
        <ele>6</ele>
        <time>2021-08-14T10:41:06Z</time>
      </trkpt>
      <trkpt lat="47.73099" lon="-3.49681">
        <ele>6</ele>
        <time>2021-08-14T10:41:07Z</time>
      </trkpt>
      <trkpt lat="47.73096" lon="-3.49678">
        <ele>6</ele>
        <time>2021-08-14T10:41:08Z</time>
      </trkpt>
      <trkpt lat="47.73092" lon="-3.49676">
        <ele>6.2</ele>
        <time>2021-08-14T10:41:09Z</time>
      </trkpt>
      <trkpt lat="47.73089" lon="-3.49673">
        <ele>6.2</ele>
        <time>2021-08-14T10:41:10Z</time>
      </trkpt>
      <trkpt lat="47.73085" lon="-3.4967">
        <ele>6.4</ele>
        <time>2021-08-14T10:41:11Z</time>
      </trkpt>
      <trkpt lat="47.73082" lon="-3.49667">
        <ele>6.4</ele>
        <time>2021-08-14T10:41:12Z</time>
      </trkpt>
      <trkpt lat="47.73078" lon="-3.49664">
        <ele>6.6</ele>
        <time>2021-08-14T10:41:13Z</time>
      </trkpt>
      <trkpt lat="47.73074" lon="-3.49662">
        <ele>6.8</ele>
        <time>2021-08-14T10:41:14Z</time>
      </trkpt>
      <trkpt lat="47.73071" lon="-3.4966">
        <ele>7</ele>
        <time>2021-08-14T10:41:15Z</time>
      </trkpt>
      <trkpt lat="47.73067" lon="-3.49656">
        <ele>7</ele>
        <time>2021-08-14T10:41:16Z</time>
      </trkpt>
      <trkpt lat="47.73064" lon="-3.49654">
        <ele>7.2</ele>
        <time>2021-08-14T10:41:17Z</time>
      </trkpt>
      <trkpt lat="47.73061" lon="-3.49651">
        <ele>7.2</ele>
        <time>2021-08-14T10:41:18Z</time>
      </trkpt>
      <trkpt lat="47.73057" lon="-3.49649">
        <ele>7.2</ele>
        <time>2021-08-14T10:41:19Z</time>
      </trkpt>
      <trkpt lat="47.73054" lon="-3.49646">
        <ele>7.2</ele>
        <time>2021-08-14T10:41:20Z</time>
      </trkpt>
      <trkpt lat="47.7305" lon="-3.49644">
        <ele>7.2</ele>
        <time>2021-08-14T10:41:21Z</time>
      </trkpt>
      <trkpt lat="47.73047" lon="-3.49642">
        <ele>7.2</ele>
        <time>2021-08-14T10:41:22Z</time>
      </trkpt>
      <trkpt lat="47.73043" lon="-3.49639">
        <ele>7.2</ele>
        <time>2021-08-14T10:41:23Z</time>
      </trkpt>
      <trkpt lat="47.7304" lon="-3.49636">
        <ele>7.2</ele>
        <time>2021-08-14T10:41:24Z</time>
      </trkpt>
      <trkpt lat="47.73036" lon="-3.49634">
        <ele>7.4</ele>
        <time>2021-08-14T10:41:25Z</time>
      </trkpt>
      <trkpt lat="47.73032" lon="-3.49631">
        <ele>7.4</ele>
        <time>2021-08-14T10:41:26Z</time>
      </trkpt>
      <trkpt lat="47.73029" lon="-3.49627">
        <ele>7.4</ele>
        <time>2021-08-14T10:41:27Z</time>
      </trkpt>
      <trkpt lat="47.73027" lon="-3.49623">
        <ele>7.6</ele>
        <time>2021-08-14T10:41:28Z</time>
      </trkpt>
      <trkpt lat="47.73024" lon="-3.49618">
        <ele>7.6</ele>
        <time>2021-08-14T10:41:29Z</time>
      </trkpt>
      <trkpt lat="47.73022" lon="-3.49614">
        <ele>7.6</ele>
        <time>2021-08-14T10:41:30Z</time>
      </trkpt>
      <trkpt lat="47.73018" lon="-3.49611">
        <ele>7.8</ele>
        <time>2021-08-14T10:41:31Z</time>
      </trkpt>
      <trkpt lat="47.73015" lon="-3.49608">
        <ele>8</ele>
        <time>2021-08-14T10:41:32Z</time>
      </trkpt>
      <trkpt lat="47.73012" lon="-3.49605">
        <ele>8.2</ele>
        <time>2021-08-14T10:41:33Z</time>
      </trkpt>
      <trkpt lat="47.73008" lon="-3.49602">
        <ele>8.2</ele>
        <time>2021-08-14T10:41:34Z</time>
      </trkpt>
      <trkpt lat="47.73005" lon="-3.49599">
        <ele>8.2</ele>
        <time>2021-08-14T10:41:35Z</time>
      </trkpt>
      <trkpt lat="47.73001" lon="-3.49596">
        <ele>8.4</ele>
        <time>2021-08-14T10:41:36Z</time>
      </trkpt>
      <trkpt lat="47.72997" lon="-3.49593">
        <ele>8.4</ele>
        <time>2021-08-14T10:41:37Z</time>
      </trkpt>
      <trkpt lat="47.72994" lon="-3.4959">
        <ele>8.4</ele>
        <time>2021-08-14T10:41:38Z</time>
      </trkpt>
      <trkpt lat="47.7299" lon="-3.49587">
        <ele>8.4</ele>
        <time>2021-08-14T10:41:39Z</time>
      </trkpt>
      <trkpt lat="47.72986" lon="-3.49584">
        <ele>8.4</ele>
        <time>2021-08-14T10:41:40Z</time>
      </trkpt>
      <trkpt lat="47.72982" lon="-3.49581">
        <ele>8.4</ele>
        <time>2021-08-14T10:41:41Z</time>
      </trkpt>
      <trkpt lat="47.72978" lon="-3.49577">
        <ele>8.4</ele>
        <time>2021-08-14T10:41:42Z</time>
      </trkpt>
      <trkpt lat="47.72974" lon="-3.49574">
        <ele>8.6</ele>
        <time>2021-08-14T10:41:43Z</time>
      </trkpt>
      <trkpt lat="47.7297" lon="-3.4957">
        <ele>8.6</ele>
        <time>2021-08-14T10:41:44Z</time>
      </trkpt>
      <trkpt lat="47.72966" lon="-3.49566">
        <ele>8.6</ele>
        <time>2021-08-14T10:41:45Z</time>
      </trkpt>
      <trkpt lat="47.72961" lon="-3.49562">
        <ele>8.6</ele>
        <time>2021-08-14T10:41:46Z</time>
      </trkpt>
      <trkpt lat="47.72956" lon="-3.49558">
        <ele>8.6</ele>
        <time>2021-08-14T10:41:47Z</time>
      </trkpt>
      <trkpt lat="47.72952" lon="-3.49554">
        <ele>8.6</ele>
        <time>2021-08-14T10:41:48Z</time>
      </trkpt>
      <trkpt lat="47.72948" lon="-3.4955">
        <ele>8.4</ele>
        <time>2021-08-14T10:41:49Z</time>
      </trkpt>
      <trkpt lat="47.72944" lon="-3.49546">
        <ele>8.4</ele>
        <time>2021-08-14T10:41:50Z</time>
      </trkpt>
      <trkpt lat="47.7294" lon="-3.49542">
        <ele>8.4</ele>
        <time>2021-08-14T10:41:51Z</time>
      </trkpt>
      <trkpt lat="47.72936" lon="-3.49538">
        <ele>8.2</ele>
        <time>2021-08-14T10:41:52Z</time>
      </trkpt>
      <trkpt lat="47.72932" lon="-3.49534">
        <ele>8</ele>
        <time>2021-08-14T10:41:53Z</time>
      </trkpt>
      <trkpt lat="47.72927" lon="-3.4953">
        <ele>7.8</ele>
        <time>2021-08-14T10:41:54Z</time>
      </trkpt>
      <trkpt lat="47.72923" lon="-3.49526">
        <ele>7.6</ele>
        <time>2021-08-14T10:41:55Z</time>
      </trkpt>
      <trkpt lat="47.72918" lon="-3.49522">
        <ele>7.4</ele>
        <time>2021-08-14T10:41:56Z</time>
      </trkpt>
      <trkpt lat="47.72914" lon="-3.49517">
        <ele>7.4</ele>
        <time>2021-08-14T10:41:57Z</time>
      </trkpt>
      <trkpt lat="47.72909" lon="-3.49513">
        <ele>7.2</ele>
        <time>2021-08-14T10:41:58Z</time>
      </trkpt>
      <trkpt lat="47.72904" lon="-3.49509">
        <ele>7.2</ele>
        <time>2021-08-14T10:41:59Z</time>
      </trkpt>
      <trkpt lat="47.72899" lon="-3.49505">
        <ele>7</ele>
        <time>2021-08-14T10:42:00Z</time>
      </trkpt>
      <trkpt lat="47.72894" lon="-3.495">
        <ele>6.8</ele>
        <time>2021-08-14T10:42:01Z</time>
      </trkpt>
      <trkpt lat="47.72889" lon="-3.49496">
        <ele>6.8</ele>
        <time>2021-08-14T10:42:02Z</time>
      </trkpt>
      <trkpt lat="47.72884" lon="-3.49491">
        <ele>6.6</ele>
        <time>2021-08-14T10:42:03Z</time>
      </trkpt>
      <trkpt lat="47.72879" lon="-3.49486">
        <ele>6.6</ele>
        <time>2021-08-14T10:42:04Z</time>
      </trkpt>
      <trkpt lat="47.72874" lon="-3.49481">
        <ele>6.2</ele>
        <time>2021-08-14T10:42:05Z</time>
      </trkpt>
      <trkpt lat="47.72869" lon="-3.49476">
        <ele>6</ele>
        <time>2021-08-14T10:42:06Z</time>
      </trkpt>
      <trkpt lat="47.72864" lon="-3.49471">
        <ele>5.6</ele>
        <time>2021-08-14T10:42:07Z</time>
      </trkpt>
      <trkpt lat="47.72858" lon="-3.49466">
        <ele>5.4</ele>
        <time>2021-08-14T10:42:08Z</time>
      </trkpt>
      <trkpt lat="47.72853" lon="-3.49461">
        <ele>5.4</ele>
        <time>2021-08-14T10:42:09Z</time>
      </trkpt>
      <trkpt lat="47.72848" lon="-3.49457">
        <ele>4.6</ele>
        <time>2021-08-14T10:42:10Z</time>
      </trkpt>
      <trkpt lat="47.72844" lon="-3.49452">
        <ele>4</ele>
        <time>2021-08-14T10:42:11Z</time>
      </trkpt>
      <trkpt lat="47.72839" lon="-3.49448">
        <ele>3.2</ele>
        <time>2021-08-14T10:42:12Z</time>
      </trkpt>
      <trkpt lat="47.72835" lon="-3.49444">
        <ele>3.2</ele>
        <time>2021-08-14T10:42:13Z</time>
      </trkpt>
      <trkpt lat="47.7283" lon="-3.4944">
        <ele>3</ele>
        <time>2021-08-14T10:42:14Z</time>
      </trkpt>
      <trkpt lat="47.72826" lon="-3.49437">
        <ele>2.8</ele>
        <time>2021-08-14T10:42:15Z</time>
      </trkpt>
      <trkpt lat="47.72821" lon="-3.49433">
        <ele>2.8</ele>
        <time>2021-08-14T10:42:16Z</time>
      </trkpt>
      <trkpt lat="47.72817" lon="-3.49428">
        <ele>2.8</ele>
        <time>2021-08-14T10:42:17Z</time>
      </trkpt>
      <trkpt lat="47.72813" lon="-3.49424">
        <ele>2.8</ele>
        <time>2021-08-14T10:42:18Z</time>
      </trkpt>
      <trkpt lat="47.72808" lon="-3.4942">
        <ele>2.8</ele>
        <time>2021-08-14T10:42:19Z</time>
      </trkpt>
      <trkpt lat="47.72804" lon="-3.49416">
        <ele>2.8</ele>
        <time>2021-08-14T10:42:20Z</time>
      </trkpt>
      <trkpt lat="47.728" lon="-3.49412">
        <ele>2.8</ele>
        <time>2021-08-14T10:42:21Z</time>
      </trkpt>
      <trkpt lat="47.72796" lon="-3.49408">
        <ele>2.8</ele>
        <time>2021-08-14T10:42:22Z</time>
      </trkpt>
      <trkpt lat="47.72792" lon="-3.49405">
        <ele>2.8</ele>
        <time>2021-08-14T10:42:23Z</time>
      </trkpt>
      <trkpt lat="47.72788" lon="-3.49401">
        <ele>2.8</ele>
        <time>2021-08-14T10:42:24Z</time>
      </trkpt>
      <trkpt lat="47.72784" lon="-3.49398">
        <ele>2.8</ele>
        <time>2021-08-14T10:42:25Z</time>
      </trkpt>
      <trkpt lat="47.7278" lon="-3.49394">
        <ele>2.8</ele>
        <time>2021-08-14T10:42:26Z</time>
      </trkpt>
      <trkpt lat="47.72776" lon="-3.49391">
        <ele>2.8</ele>
        <time>2021-08-14T10:42:27Z</time>
      </trkpt>
      <trkpt lat="47.72772" lon="-3.49387">
        <ele>2.8</ele>
        <time>2021-08-14T10:42:28Z</time>
      </trkpt>
      <trkpt lat="47.72768" lon="-3.49384">
        <ele>3</ele>
        <time>2021-08-14T10:42:29Z</time>
      </trkpt>
      <trkpt lat="47.72764" lon="-3.49381">
        <ele>3</ele>
        <time>2021-08-14T10:42:30Z</time>
      </trkpt>
      <trkpt lat="47.7276" lon="-3.4938">
        <ele>3</ele>
        <time>2021-08-14T10:42:31Z</time>
      </trkpt>
      <trkpt lat="47.72755" lon="-3.49379">
        <ele>3</ele>
        <time>2021-08-14T10:42:32Z</time>
      </trkpt>
      <trkpt lat="47.7275" lon="-3.49378">
        <ele>3</ele>
        <time>2021-08-14T10:42:33Z</time>
      </trkpt>
      <trkpt lat="47.72746" lon="-3.49376">
        <ele>3</ele>
        <time>2021-08-14T10:42:34Z</time>
      </trkpt>
      <trkpt lat="47.72741" lon="-3.49373">
        <ele>3</ele>
        <time>2021-08-14T10:42:35Z</time>
      </trkpt>
      <trkpt lat="47.72738" lon="-3.49369">
        <ele>3</ele>
        <time>2021-08-14T10:42:36Z</time>
      </trkpt>
      <trkpt lat="47.72735" lon="-3.49365">
        <ele>3</ele>
        <time>2021-08-14T10:42:37Z</time>
      </trkpt>
      <trkpt lat="47.72732" lon="-3.4936">
        <ele>3.2</ele>
        <time>2021-08-14T10:42:38Z</time>
      </trkpt>
      <trkpt lat="47.72729" lon="-3.49356">
        <ele>3.2</ele>
        <time>2021-08-14T10:42:39Z</time>
      </trkpt>
      <trkpt lat="47.72727" lon="-3.49351">
        <ele>3.2</ele>
        <time>2021-08-14T10:42:40Z</time>
      </trkpt>
      <trkpt lat="47.72724" lon="-3.49347">
        <ele>3.2</ele>
        <time>2021-08-14T10:42:41Z</time>
      </trkpt>
      <trkpt lat="47.72721" lon="-3.49343">
        <ele>3.2</ele>
        <time>2021-08-14T10:42:42Z</time>
      </trkpt>
      <trkpt lat="47.72718" lon="-3.49339">
        <ele>3.4</ele>
        <time>2021-08-14T10:42:43Z</time>
      </trkpt>
      <trkpt lat="47.72715" lon="-3.49336">
        <ele>3.4</ele>
        <time>2021-08-14T10:42:44Z</time>
      </trkpt>
      <trkpt lat="47.72712" lon="-3.49332">
        <ele>3.6</ele>
        <time>2021-08-14T10:42:45Z</time>
      </trkpt>
      <trkpt lat="47.72709" lon="-3.49329">
        <ele>3.8</ele>
        <time>2021-08-14T10:42:46Z</time>
      </trkpt>
      <trkpt lat="47.72706" lon="-3.49325">
        <ele>4</ele>
        <time>2021-08-14T10:42:47Z</time>
      </trkpt>
      <trkpt lat="47.72703" lon="-3.49322">
        <ele>4.2</ele>
        <time>2021-08-14T10:42:48Z</time>
      </trkpt>
      <trkpt lat="47.727" lon="-3.49319">
        <ele>4.6</ele>
        <time>2021-08-14T10:42:49Z</time>
      </trkpt>
      <trkpt lat="47.72697" lon="-3.49315">
        <ele>5</ele>
        <time>2021-08-14T10:42:50Z</time>
      </trkpt>
      <trkpt lat="47.72694" lon="-3.49312">
        <ele>5.2</ele>
        <time>2021-08-14T10:42:51Z</time>
      </trkpt>
      <trkpt lat="47.72691" lon="-3.49308">
        <ele>5.6</ele>
        <time>2021-08-14T10:42:52Z</time>
      </trkpt>
      <trkpt lat="47.72689" lon="-3.49305">
        <ele>5.6</ele>
        <time>2021-08-14T10:42:53Z</time>
      </trkpt>
      <trkpt lat="47.72686" lon="-3.49301">
        <ele>5.6</ele>
        <time>2021-08-14T10:42:54Z</time>
      </trkpt>
      <trkpt lat="47.72684" lon="-3.49297">
        <ele>5.8</ele>
        <time>2021-08-14T10:42:55Z</time>
      </trkpt>
      <trkpt lat="47.72681" lon="-3.49293">
        <ele>5.8</ele>
        <time>2021-08-14T10:42:56Z</time>
      </trkpt>
      <trkpt lat="47.72678" lon="-3.49289">
        <ele>6</ele>
        <time>2021-08-14T10:42:57Z</time>
      </trkpt>
      <trkpt lat="47.72676" lon="-3.49285">
        <ele>6</ele>
        <time>2021-08-14T10:42:58Z</time>
      </trkpt>
      <trkpt lat="47.72673" lon="-3.49281">
        <ele>6.2</ele>
        <time>2021-08-14T10:42:59Z</time>
      </trkpt>
      <trkpt lat="47.7267" lon="-3.49277">
        <ele>6.2</ele>
        <time>2021-08-14T10:43:00Z</time>
      </trkpt>
      <trkpt lat="47.72668" lon="-3.49273">
        <ele>6.4</ele>
        <time>2021-08-14T10:43:01Z</time>
      </trkpt>
      <trkpt lat="47.72665" lon="-3.49269">
        <ele>6.6</ele>
        <time>2021-08-14T10:43:02Z</time>
      </trkpt>
      <trkpt lat="47.72662" lon="-3.49265">
        <ele>6.8</ele>
        <time>2021-08-14T10:43:03Z</time>
      </trkpt>
      <trkpt lat="47.72659" lon="-3.49261">
        <ele>6.8</ele>
        <time>2021-08-14T10:43:04Z</time>
      </trkpt>
      <trkpt lat="47.72657" lon="-3.49257">
        <ele>7</ele>
        <time>2021-08-14T10:43:05Z</time>
      </trkpt>
      <trkpt lat="47.72654" lon="-3.49252">
        <ele>7</ele>
        <time>2021-08-14T10:43:06Z</time>
      </trkpt>
      <trkpt lat="47.72652" lon="-3.49248">
        <ele>7.2</ele>
        <time>2021-08-14T10:43:07Z</time>
      </trkpt>
      <trkpt lat="47.72649" lon="-3.49243">
        <ele>7.4</ele>
        <time>2021-08-14T10:43:08Z</time>
      </trkpt>
      <trkpt lat="47.72646" lon="-3.49239">
        <ele>7.6</ele>
        <time>2021-08-14T10:43:09Z</time>
      </trkpt>
      <trkpt lat="47.72644" lon="-3.49234">
        <ele>7.6</ele>
        <time>2021-08-14T10:43:10Z</time>
      </trkpt>
      <trkpt lat="47.72642" lon="-3.49229">
        <ele>7.6</ele>
        <time>2021-08-14T10:43:11Z</time>
      </trkpt>
      <trkpt lat="47.72639" lon="-3.49224">
        <ele>7.8</ele>
        <time>2021-08-14T10:43:12Z</time>
      </trkpt>
      <trkpt lat="47.72637" lon="-3.4922">
        <ele>8</ele>
        <time>2021-08-14T10:43:13Z</time>
      </trkpt>
      <trkpt lat="47.72634" lon="-3.49215">
        <ele>8</ele>
        <time>2021-08-14T10:43:14Z</time>
      </trkpt>
      <trkpt lat="47.72632" lon="-3.4921">
        <ele>8.2</ele>
        <time>2021-08-14T10:43:15Z</time>
      </trkpt>
      <trkpt lat="47.7263" lon="-3.49205">
        <ele>8.2</ele>
        <time>2021-08-14T10:43:16Z</time>
      </trkpt>
      <trkpt lat="47.72628" lon="-3.492">
        <ele>8.2</ele>
        <time>2021-08-14T10:43:17Z</time>
      </trkpt>
      <trkpt lat="47.72625" lon="-3.49196">
        <ele>8.2</ele>
        <time>2021-08-14T10:43:18Z</time>
      </trkpt>
      <trkpt lat="47.72623" lon="-3.4919">
        <ele>8.2</ele>
        <time>2021-08-14T10:43:19Z</time>
      </trkpt>
      <trkpt lat="47.72622" lon="-3.49185">
        <ele>8.2</ele>
        <time>2021-08-14T10:43:20Z</time>
      </trkpt>
      <trkpt lat="47.7262" lon="-3.4918">
        <ele>8.2</ele>
        <time>2021-08-14T10:43:21Z</time>
      </trkpt>
      <trkpt lat="47.72617" lon="-3.49175">
        <ele>8.2</ele>
        <time>2021-08-14T10:43:22Z</time>
      </trkpt>
      <trkpt lat="47.72615" lon="-3.4917">
        <ele>8.2</ele>
        <time>2021-08-14T10:43:23Z</time>
      </trkpt>
      <trkpt lat="47.72613" lon="-3.49166">
        <ele>8.2</ele>
        <time>2021-08-14T10:43:24Z</time>
      </trkpt>
      <trkpt lat="47.72611" lon="-3.49161">
        <ele>8.2</ele>
        <time>2021-08-14T10:43:25Z</time>
      </trkpt>
      <trkpt lat="47.72609" lon="-3.49157">
        <ele>8.2</ele>
        <time>2021-08-14T10:43:26Z</time>
      </trkpt>
      <trkpt lat="47.72607" lon="-3.49152">
        <ele>8.2</ele>
        <time>2021-08-14T10:43:27Z</time>
      </trkpt>
      <trkpt lat="47.72605" lon="-3.49148">
        <ele>8.4</ele>
        <time>2021-08-14T10:43:28Z</time>
      </trkpt>
      <trkpt lat="47.72603" lon="-3.49143">
        <ele>8.4</ele>
        <time>2021-08-14T10:43:29Z</time>
      </trkpt>
      <trkpt lat="47.72601" lon="-3.49138">
        <ele>8.4</ele>
        <time>2021-08-14T10:43:30Z</time>
      </trkpt>
      <trkpt lat="47.72599" lon="-3.49132">
        <ele>8.4</ele>
        <time>2021-08-14T10:43:31Z</time>
      </trkpt>
      <trkpt lat="47.72597" lon="-3.49127">
        <ele>8.4</ele>
        <time>2021-08-14T10:43:32Z</time>
      </trkpt>
      <trkpt lat="47.72595" lon="-3.49122">
        <ele>8.4</ele>
        <time>2021-08-14T10:43:33Z</time>
      </trkpt>
      <trkpt lat="47.72593" lon="-3.49117">
        <ele>8.4</ele>
        <time>2021-08-14T10:43:34Z</time>
      </trkpt>
      <trkpt lat="47.72591" lon="-3.49112">
        <ele>8.4</ele>
        <time>2021-08-14T10:43:35Z</time>
      </trkpt>
      <trkpt lat="47.7259" lon="-3.49108">
        <ele>8.4</ele>
        <time>2021-08-14T10:43:36Z</time>
      </trkpt>
      <trkpt lat="47.72588" lon="-3.49103">
        <ele>8.4</ele>
        <time>2021-08-14T10:43:37Z</time>
      </trkpt>
      <trkpt lat="47.72586" lon="-3.49098">
        <ele>8.6</ele>
        <time>2021-08-14T10:43:38Z</time>
      </trkpt>
      <trkpt lat="47.72584" lon="-3.49093">
        <ele>8.8</ele>
        <time>2021-08-14T10:43:39Z</time>
      </trkpt>
      <trkpt lat="47.72582" lon="-3.49088">
        <ele>8.8</ele>
        <time>2021-08-14T10:43:40Z</time>
      </trkpt>
      <trkpt lat="47.7258" lon="-3.49083">
        <ele>8.8</ele>
        <time>2021-08-14T10:43:41Z</time>
      </trkpt>
      <trkpt lat="47.72578" lon="-3.49078">
        <ele>9</ele>
        <time>2021-08-14T10:43:42Z</time>
      </trkpt>
      <trkpt lat="47.72576" lon="-3.49074">
        <ele>9</ele>
        <time>2021-08-14T10:43:43Z</time>
      </trkpt>
      <trkpt lat="47.72574" lon="-3.49069">
        <ele>9</ele>
        <time>2021-08-14T10:43:44Z</time>
      </trkpt>
      <trkpt lat="47.72572" lon="-3.49065">
        <ele>9.2</ele>
        <time>2021-08-14T10:43:45Z</time>
      </trkpt>
      <trkpt lat="47.7257" lon="-3.4906">
        <ele>9.2</ele>
        <time>2021-08-14T10:43:46Z</time>
      </trkpt>
      <trkpt lat="47.72568" lon="-3.49055">
        <ele>9.2</ele>
        <time>2021-08-14T10:43:47Z</time>
      </trkpt>
      <trkpt lat="47.72567" lon="-3.49051">
        <ele>9.2</ele>
        <time>2021-08-14T10:43:48Z</time>
      </trkpt>
      <trkpt lat="47.72565" lon="-3.49046">
        <ele>9.2</ele>
        <time>2021-08-14T10:43:49Z</time>
      </trkpt>
      <trkpt lat="47.72563" lon="-3.49041">
        <ele>9.4</ele>
        <time>2021-08-14T10:43:50Z</time>
      </trkpt>
      <trkpt lat="47.72561" lon="-3.49037">
        <ele>9.4</ele>
        <time>2021-08-14T10:43:51Z</time>
      </trkpt>
      <trkpt lat="47.72559" lon="-3.49032">
        <ele>9.4</ele>
        <time>2021-08-14T10:43:52Z</time>
      </trkpt>
      <trkpt lat="47.72557" lon="-3.49028">
        <ele>9.6</ele>
        <time>2021-08-14T10:43:53Z</time>
      </trkpt>
      <trkpt lat="47.72555" lon="-3.49023">
        <ele>9.8</ele>
        <time>2021-08-14T10:43:54Z</time>
      </trkpt>
      <trkpt lat="47.72553" lon="-3.49018">
        <ele>9.8</ele>
        <time>2021-08-14T10:43:55Z</time>
      </trkpt>
      <trkpt lat="47.72552" lon="-3.49014">
        <ele>9.8</ele>
        <time>2021-08-14T10:43:56Z</time>
      </trkpt>
      <trkpt lat="47.7255" lon="-3.49009">
        <ele>10</ele>
        <time>2021-08-14T10:43:57Z</time>
      </trkpt>
      <trkpt lat="47.72548" lon="-3.49004">
        <ele>10</ele>
        <time>2021-08-14T10:43:58Z</time>
      </trkpt>
      <trkpt lat="47.72546" lon="-3.49">
        <ele>10</ele>
        <time>2021-08-14T10:43:59Z</time>
      </trkpt>
      <trkpt lat="47.72545" lon="-3.48996">
        <ele>10</ele>
        <time>2021-08-14T10:44:00Z</time>
      </trkpt>
      <trkpt lat="47.72543" lon="-3.48992">
        <ele>10.2</ele>
        <time>2021-08-14T10:44:01Z</time>
      </trkpt>
      <trkpt lat="47.72541" lon="-3.48987">
        <ele>10.2</ele>
        <time>2021-08-14T10:44:02Z</time>
      </trkpt>
      <trkpt lat="47.72539" lon="-3.48983">
        <ele>10.4</ele>
        <time>2021-08-14T10:44:03Z</time>
      </trkpt>
      <trkpt lat="47.72538" lon="-3.48979">
        <ele>10.4</ele>
        <time>2021-08-14T10:44:04Z</time>
      </trkpt>
      <trkpt lat="47.72536" lon="-3.48975">
        <ele>10.6</ele>
        <time>2021-08-14T10:44:05Z</time>
      </trkpt>
      <trkpt lat="47.72534" lon="-3.4897">
        <ele>10.6</ele>
        <time>2021-08-14T10:44:06Z</time>
      </trkpt>
      <trkpt lat="47.72533" lon="-3.48966">
        <ele>10.8</ele>
        <time>2021-08-14T10:44:07Z</time>
      </trkpt>
      <trkpt lat="47.72531" lon="-3.48962">
        <ele>10.8</ele>
        <time>2021-08-14T10:44:08Z</time>
      </trkpt>
      <trkpt lat="47.7253" lon="-3.48958">
        <ele>11</ele>
        <time>2021-08-14T10:44:09Z</time>
      </trkpt>
      <trkpt lat="47.72528" lon="-3.48954">
        <ele>11.2</ele>
        <time>2021-08-14T10:44:10Z</time>
      </trkpt>
      <trkpt lat="47.72526" lon="-3.4895">
        <ele>11.2</ele>
        <time>2021-08-14T10:44:11Z</time>
      </trkpt>
      <trkpt lat="47.72525" lon="-3.48946">
        <ele>11.2</ele>
        <time>2021-08-14T10:44:12Z</time>
      </trkpt>
      <trkpt lat="47.72523" lon="-3.48942">
        <ele>11.2</ele>
        <time>2021-08-14T10:44:13Z</time>
      </trkpt>
      <trkpt lat="47.72521" lon="-3.48937">
        <ele>11.2</ele>
        <time>2021-08-14T10:44:14Z</time>
      </trkpt>
      <trkpt lat="47.7252" lon="-3.48933">
        <ele>11.4</ele>
        <time>2021-08-14T10:44:15Z</time>
      </trkpt>
      <trkpt lat="47.72518" lon="-3.48928">
        <ele>11.4</ele>
        <time>2021-08-14T10:44:16Z</time>
      </trkpt>
      <trkpt lat="47.72516" lon="-3.48923">
        <ele>11.4</ele>
        <time>2021-08-14T10:44:17Z</time>
      </trkpt>
      <trkpt lat="47.72514" lon="-3.48919">
        <ele>11.4</ele>
        <time>2021-08-14T10:44:18Z</time>
      </trkpt>
      <trkpt lat="47.72511" lon="-3.48913">
        <ele>11.4</ele>
        <time>2021-08-14T10:44:19Z</time>
      </trkpt>
      <trkpt lat="47.72509" lon="-3.48908">
        <ele>11.4</ele>
        <time>2021-08-14T10:44:20Z</time>
      </trkpt>
      <trkpt lat="47.72507" lon="-3.48902">
        <ele>11.2</ele>
        <time>2021-08-14T10:44:21Z</time>
      </trkpt>
      <trkpt lat="47.72505" lon="-3.48896">
        <ele>11</ele>
        <time>2021-08-14T10:44:22Z</time>
      </trkpt>
      <trkpt lat="47.72503" lon="-3.48891">
        <ele>10.8</ele>
        <time>2021-08-14T10:44:23Z</time>
      </trkpt>
      <trkpt lat="47.725" lon="-3.48885">
        <ele>10.6</ele>
        <time>2021-08-14T10:44:24Z</time>
      </trkpt>
      <trkpt lat="47.72498" lon="-3.48879">
        <ele>10.6</ele>
        <time>2021-08-14T10:44:25Z</time>
      </trkpt>
      <trkpt lat="47.72495" lon="-3.48872">
        <ele>10.4</ele>
        <time>2021-08-14T10:44:26Z</time>
      </trkpt>
      <trkpt lat="47.72493" lon="-3.48866">
        <ele>10.2</ele>
        <time>2021-08-14T10:44:27Z</time>
      </trkpt>
      <trkpt lat="47.7249" lon="-3.48859">
        <ele>10</ele>
        <time>2021-08-14T10:44:28Z</time>
      </trkpt>
      <trkpt lat="47.72487" lon="-3.48852">
        <ele>9.8</ele>
        <time>2021-08-14T10:44:29Z</time>
      </trkpt>
      <trkpt lat="47.72485" lon="-3.48845">
        <ele>9.6</ele>
        <time>2021-08-14T10:44:30Z</time>
      </trkpt>
      <trkpt lat="47.72482" lon="-3.48838">
        <ele>9.4</ele>
        <time>2021-08-14T10:44:31Z</time>
      </trkpt>
      <trkpt lat="47.72479" lon="-3.4883">
        <ele>9.2</ele>
        <time>2021-08-14T10:44:32Z</time>
      </trkpt>
      <trkpt lat="47.72476" lon="-3.48823">
        <ele>9</ele>
        <time>2021-08-14T10:44:33Z</time>
      </trkpt>
      <trkpt lat="47.72472" lon="-3.48815">
        <ele>8.8</ele>
        <time>2021-08-14T10:44:34Z</time>
      </trkpt>
      <trkpt lat="47.72469" lon="-3.48808">
        <ele>8.8</ele>
        <time>2021-08-14T10:44:35Z</time>
      </trkpt>
      <trkpt lat="47.72466" lon="-3.488">
        <ele>8.6</ele>
        <time>2021-08-14T10:44:36Z</time>
      </trkpt>
      <trkpt lat="47.72463" lon="-3.48792">
        <ele>8.4</ele>
        <time>2021-08-14T10:44:37Z</time>
      </trkpt>
      <trkpt lat="47.7246" lon="-3.48785">
        <ele>8.2</ele>
        <time>2021-08-14T10:44:38Z</time>
      </trkpt>
      <trkpt lat="47.72457" lon="-3.48777">
        <ele>7.8</ele>
        <time>2021-08-14T10:44:39Z</time>
      </trkpt>
      <trkpt lat="47.72455" lon="-3.4877">
        <ele>7.6</ele>
        <time>2021-08-14T10:44:40Z</time>
      </trkpt>
      <trkpt lat="47.72452" lon="-3.48763">
        <ele>7.2</ele>
        <time>2021-08-14T10:44:41Z</time>
      </trkpt>
      <trkpt lat="47.72449" lon="-3.48756">
        <ele>7</ele>
        <time>2021-08-14T10:44:42Z</time>
      </trkpt>
      <trkpt lat="47.72446" lon="-3.48749">
        <ele>6.8</ele>
        <time>2021-08-14T10:44:43Z</time>
      </trkpt>
      <trkpt lat="47.72444" lon="-3.48742">
        <ele>6.6</ele>
        <time>2021-08-14T10:44:44Z</time>
      </trkpt>
      <trkpt lat="47.72441" lon="-3.48734">
        <ele>6.4</ele>
        <time>2021-08-14T10:44:45Z</time>
      </trkpt>
      <trkpt lat="47.72438" lon="-3.48727">
        <ele>6.2</ele>
        <time>2021-08-14T10:44:46Z</time>
      </trkpt>
      <trkpt lat="47.72435" lon="-3.4872">
        <ele>6.2</ele>
        <time>2021-08-14T10:44:47Z</time>
      </trkpt>
      <trkpt lat="47.72432" lon="-3.48712">
        <ele>6</ele>
        <time>2021-08-14T10:44:48Z</time>
      </trkpt>
      <trkpt lat="47.72429" lon="-3.48705">
        <ele>6</ele>
        <time>2021-08-14T10:44:49Z</time>
      </trkpt>
      <trkpt lat="47.72426" lon="-3.48698">
        <ele>6</ele>
        <time>2021-08-14T10:44:50Z</time>
      </trkpt>
      <trkpt lat="47.72423" lon="-3.48691">
        <ele>5.8</ele>
        <time>2021-08-14T10:44:51Z</time>
      </trkpt>
      <trkpt lat="47.72421" lon="-3.48684">
        <ele>5.6</ele>
        <time>2021-08-14T10:44:52Z</time>
      </trkpt>
      <trkpt lat="47.72418" lon="-3.48677">
        <ele>5.6</ele>
        <time>2021-08-14T10:44:53Z</time>
      </trkpt>
      <trkpt lat="47.72415" lon="-3.4867">
        <ele>5.4</ele>
        <time>2021-08-14T10:44:54Z</time>
      </trkpt>
      <trkpt lat="47.72412" lon="-3.48663">
        <ele>5.2</ele>
        <time>2021-08-14T10:44:55Z</time>
      </trkpt>
      <trkpt lat="47.72409" lon="-3.48657">
        <ele>5</ele>
        <time>2021-08-14T10:44:56Z</time>
      </trkpt>
      <trkpt lat="47.72407" lon="-3.4865">
        <ele>5</ele>
        <time>2021-08-14T10:44:57Z</time>
      </trkpt>
      <trkpt lat="47.72404" lon="-3.48644">
        <ele>5</ele>
        <time>2021-08-14T10:44:58Z</time>
      </trkpt>
      <trkpt lat="47.72402" lon="-3.48638">
        <ele>5</ele>
        <time>2021-08-14T10:44:59Z</time>
      </trkpt>
      <trkpt lat="47.72399" lon="-3.48631">
        <ele>4.8</ele>
        <time>2021-08-14T10:45:00Z</time>
      </trkpt>
      <trkpt lat="47.72396" lon="-3.48625">
        <ele>4.8</ele>
        <time>2021-08-14T10:45:01Z</time>
      </trkpt>
      <trkpt lat="47.72394" lon="-3.48619">
        <ele>4.8</ele>
        <time>2021-08-14T10:45:02Z</time>
      </trkpt>
      <trkpt lat="47.72391" lon="-3.48613">
        <ele>4.8</ele>
        <time>2021-08-14T10:45:03Z</time>
      </trkpt>
      <trkpt lat="47.72388" lon="-3.48606">
        <ele>4.8</ele>
        <time>2021-08-14T10:45:04Z</time>
      </trkpt>
      <trkpt lat="47.72386" lon="-3.48599">
        <ele>4.8</ele>
        <time>2021-08-14T10:45:05Z</time>
      </trkpt>
      <trkpt lat="47.72383" lon="-3.48593">
        <ele>4.8</ele>
        <time>2021-08-14T10:45:06Z</time>
      </trkpt>
      <trkpt lat="47.72381" lon="-3.48586">
        <ele>5</ele>
        <time>2021-08-14T10:45:07Z</time>
      </trkpt>
      <trkpt lat="47.72378" lon="-3.48579">
        <ele>5</ele>
        <time>2021-08-14T10:45:08Z</time>
      </trkpt>
      <trkpt lat="47.72375" lon="-3.48572">
        <ele>5</ele>
        <time>2021-08-14T10:45:09Z</time>
      </trkpt>
      <trkpt lat="47.72372" lon="-3.48565">
        <ele>5</ele>
        <time>2021-08-14T10:45:10Z</time>
      </trkpt>
      <trkpt lat="47.72369" lon="-3.48558">
        <ele>5</ele>
        <time>2021-08-14T10:45:11Z</time>
      </trkpt>
      <trkpt lat="47.72367" lon="-3.48551">
        <ele>5.2</ele>
        <time>2021-08-14T10:45:12Z</time>
      </trkpt>
      <trkpt lat="47.72364" lon="-3.48544">
        <ele>5.2</ele>
        <time>2021-08-14T10:45:13Z</time>
      </trkpt>
      <trkpt lat="47.72361" lon="-3.48537">
        <ele>5.2</ele>
        <time>2021-08-14T10:45:14Z</time>
      </trkpt>
      <trkpt lat="47.72358" lon="-3.4853">
        <ele>5.2</ele>
        <time>2021-08-14T10:45:15Z</time>
      </trkpt>
      <trkpt lat="47.72356" lon="-3.48523">
        <ele>5.4</ele>
        <time>2021-08-14T10:45:16Z</time>
      </trkpt>
      <trkpt lat="47.72353" lon="-3.48517">
        <ele>5.4</ele>
        <time>2021-08-14T10:45:17Z</time>
      </trkpt>
      <trkpt lat="47.7235" lon="-3.4851">
        <ele>5.4</ele>
        <time>2021-08-14T10:45:18Z</time>
      </trkpt>
      <trkpt lat="47.72346" lon="-3.48503">
        <ele>5.4</ele>
        <time>2021-08-14T10:45:19Z</time>
      </trkpt>
      <trkpt lat="47.72343" lon="-3.48497">
        <ele>5.4</ele>
        <time>2021-08-14T10:45:20Z</time>
      </trkpt>
      <trkpt lat="47.72339" lon="-3.48491">
        <ele>5.4</ele>
        <time>2021-08-14T10:45:21Z</time>
      </trkpt>
      <trkpt lat="47.72335" lon="-3.48484">
        <ele>5.4</ele>
        <time>2021-08-14T10:45:22Z</time>
      </trkpt>
      <trkpt lat="47.72331" lon="-3.48478">
        <ele>5.4</ele>
        <time>2021-08-14T10:45:23Z</time>
      </trkpt>
      <trkpt lat="47.72327" lon="-3.48471">
        <ele>5.4</ele>
        <time>2021-08-14T10:45:24Z</time>
      </trkpt>
      <trkpt lat="47.72323" lon="-3.48465">
        <ele>5.4</ele>
        <time>2021-08-14T10:45:25Z</time>
      </trkpt>
      <trkpt lat="47.72319" lon="-3.48459">
        <ele>5.4</ele>
        <time>2021-08-14T10:45:26Z</time>
      </trkpt>
      <trkpt lat="47.72314" lon="-3.48453">
        <ele>5.2</ele>
        <time>2021-08-14T10:45:27Z</time>
      </trkpt>
      <trkpt lat="47.7231" lon="-3.48448">
        <ele>5.2</ele>
        <time>2021-08-14T10:45:28Z</time>
      </trkpt>
      <trkpt lat="47.72306" lon="-3.48443">
        <ele>5</ele>
        <time>2021-08-14T10:45:29Z</time>
      </trkpt>
      <trkpt lat="47.72302" lon="-3.48439">
        <ele>5</ele>
        <time>2021-08-14T10:45:30Z</time>
      </trkpt>
      <trkpt lat="47.72299" lon="-3.48434">
        <ele>5</ele>
        <time>2021-08-14T10:45:31Z</time>
      </trkpt>
      <trkpt lat="47.72295" lon="-3.4843">
        <ele>5</ele>
        <time>2021-08-14T10:45:32Z</time>
      </trkpt>
      <trkpt lat="47.72292" lon="-3.48426">
        <ele>5</ele>
        <time>2021-08-14T10:45:33Z</time>
      </trkpt>
      <trkpt lat="47.72289" lon="-3.48422">
        <ele>5</ele>
        <time>2021-08-14T10:45:34Z</time>
      </trkpt>
      <trkpt lat="47.72286" lon="-3.48418">
        <ele>4.8</ele>
        <time>2021-08-14T10:45:35Z</time>
      </trkpt>
      <trkpt lat="47.72282" lon="-3.48414">
        <ele>4.8</ele>
        <time>2021-08-14T10:45:36Z</time>
      </trkpt>
      <trkpt lat="47.72279" lon="-3.48411">
        <ele>5</ele>
        <time>2021-08-14T10:45:37Z</time>
      </trkpt>
      <trkpt lat="47.72276" lon="-3.48407">
        <ele>5</ele>
        <time>2021-08-14T10:45:38Z</time>
      </trkpt>
      <trkpt lat="47.72273" lon="-3.48403">
        <ele>5</ele>
        <time>2021-08-14T10:45:39Z</time>
      </trkpt>
      <trkpt lat="47.7227" lon="-3.48399">
        <ele>5</ele>
        <time>2021-08-14T10:45:40Z</time>
      </trkpt>
      <trkpt lat="47.72266" lon="-3.48395">
        <ele>5</ele>
        <time>2021-08-14T10:45:41Z</time>
      </trkpt>
      <trkpt lat="47.72263" lon="-3.48392">
        <ele>5</ele>
        <time>2021-08-14T10:45:42Z</time>
      </trkpt>
      <trkpt lat="47.7226" lon="-3.48389">
        <ele>5</ele>
        <time>2021-08-14T10:45:43Z</time>
      </trkpt>
      <trkpt lat="47.72257" lon="-3.48385">
        <ele>5</ele>
        <time>2021-08-14T10:45:44Z</time>
      </trkpt>
      <trkpt lat="47.72253" lon="-3.4838">
        <ele>5</ele>
        <time>2021-08-14T10:45:45Z</time>
      </trkpt>
      <trkpt lat="47.7225" lon="-3.48376">
        <ele>5</ele>
        <time>2021-08-14T10:45:46Z</time>
      </trkpt>
      <trkpt lat="47.72246" lon="-3.48371">
        <ele>5</ele>
        <time>2021-08-14T10:45:47Z</time>
      </trkpt>
      <trkpt lat="47.72243" lon="-3.48367">
        <ele>5</ele>
        <time>2021-08-14T10:45:48Z</time>
      </trkpt>
      <trkpt lat="47.72239" lon="-3.48362">
        <ele>5</ele>
        <time>2021-08-14T10:45:49Z</time>
      </trkpt>
      <trkpt lat="47.72235" lon="-3.48357">
        <ele>5</ele>
        <time>2021-08-14T10:45:50Z</time>
      </trkpt>
      <trkpt lat="47.72232" lon="-3.48353">
        <ele>5.2</ele>
        <time>2021-08-14T10:45:51Z</time>
      </trkpt>
      <trkpt lat="47.72228" lon="-3.48348">
        <ele>5.2</ele>
        <time>2021-08-14T10:45:52Z</time>
      </trkpt>
      <trkpt lat="47.72225" lon="-3.48344">
        <ele>5.2</ele>
        <time>2021-08-14T10:45:53Z</time>
      </trkpt>
      <trkpt lat="47.72221" lon="-3.48339">
        <ele>5.2</ele>
        <time>2021-08-14T10:45:54Z</time>
      </trkpt>
      <trkpt lat="47.72218" lon="-3.48336">
        <ele>5.2</ele>
        <time>2021-08-14T10:45:55Z</time>
      </trkpt>
      <trkpt lat="47.72215" lon="-3.48332">
        <ele>5.2</ele>
        <time>2021-08-14T10:45:56Z</time>
      </trkpt>
      <trkpt lat="47.72212" lon="-3.48328">
        <ele>5.2</ele>
        <time>2021-08-14T10:45:57Z</time>
      </trkpt>
      <trkpt lat="47.72209" lon="-3.48324">
        <ele>5.2</ele>
        <time>2021-08-14T10:45:58Z</time>
      </trkpt>
      <trkpt lat="47.72206" lon="-3.4832">
        <ele>5.2</ele>
        <time>2021-08-14T10:45:59Z</time>
      </trkpt>
      <trkpt lat="47.72203" lon="-3.48317">
        <ele>5.4</ele>
        <time>2021-08-14T10:46:00Z</time>
      </trkpt>
      <trkpt lat="47.72201" lon="-3.48314">
        <ele>5.4</ele>
        <time>2021-08-14T10:46:01Z</time>
      </trkpt>
      <trkpt lat="47.72198" lon="-3.4831">
        <ele>5.4</ele>
        <time>2021-08-14T10:46:02Z</time>
      </trkpt>
      <trkpt lat="47.72195" lon="-3.48307">
        <ele>5.4</ele>
        <time>2021-08-14T10:46:03Z</time>
      </trkpt>
      <trkpt lat="47.72193" lon="-3.48303">
        <ele>5.6</ele>
        <time>2021-08-14T10:46:04Z</time>
      </trkpt>
      <trkpt lat="47.7219" lon="-3.483">
        <ele>5.6</ele>
        <time>2021-08-14T10:46:05Z</time>
      </trkpt>
      <trkpt lat="47.72187" lon="-3.48296">
        <ele>5.8</ele>
        <time>2021-08-14T10:46:06Z</time>
      </trkpt>
      <trkpt lat="47.72185" lon="-3.48293">
        <ele>6</ele>
        <time>2021-08-14T10:46:07Z</time>
      </trkpt>
      <trkpt lat="47.72182" lon="-3.48289">
        <ele>6.2</ele>
        <time>2021-08-14T10:46:08Z</time>
      </trkpt>
      <trkpt lat="47.72179" lon="-3.48286">
        <ele>6.4</ele>
        <time>2021-08-14T10:46:09Z</time>
      </trkpt>
      <trkpt lat="47.72176" lon="-3.48283">
        <ele>6.4</ele>
        <time>2021-08-14T10:46:10Z</time>
      </trkpt>
      <trkpt lat="47.72173" lon="-3.48279">
        <ele>6.6</ele>
        <time>2021-08-14T10:46:11Z</time>
      </trkpt>
      <trkpt lat="47.7217" lon="-3.48276">
        <ele>6.8</ele>
        <time>2021-08-14T10:46:12Z</time>
      </trkpt>
      <trkpt lat="47.72167" lon="-3.48272">
        <ele>7</ele>
        <time>2021-08-14T10:46:13Z</time>
      </trkpt>
      <trkpt lat="47.72164" lon="-3.48269">
        <ele>7.4</ele>
        <time>2021-08-14T10:46:14Z</time>
      </trkpt>
      <trkpt lat="47.72161" lon="-3.48265">
        <ele>7.4</ele>
        <time>2021-08-14T10:46:15Z</time>
      </trkpt>
      <trkpt lat="47.72158" lon="-3.48261">
        <ele>7.6</ele>
        <time>2021-08-14T10:46:16Z</time>
      </trkpt>
      <trkpt lat="47.72155" lon="-3.48257">
        <ele>7.6</ele>
        <time>2021-08-14T10:46:17Z</time>
      </trkpt>
      <trkpt lat="47.72152" lon="-3.48254">
        <ele>7.6</ele>
        <time>2021-08-14T10:46:18Z</time>
      </trkpt>
      <trkpt lat="47.72149" lon="-3.4825">
        <ele>7.6</ele>
        <time>2021-08-14T10:46:19Z</time>
      </trkpt>
      <trkpt lat="47.72146" lon="-3.48246">
        <ele>7.6</ele>
        <time>2021-08-14T10:46:20Z</time>
      </trkpt>
      <trkpt lat="47.72143" lon="-3.48242">
        <ele>7.8</ele>
        <time>2021-08-14T10:46:21Z</time>
      </trkpt>
      <trkpt lat="47.7214" lon="-3.48238">
        <ele>7.8</ele>
        <time>2021-08-14T10:46:22Z</time>
      </trkpt>
      <trkpt lat="47.72137" lon="-3.48234">
        <ele>7.8</ele>
        <time>2021-08-14T10:46:23Z</time>
      </trkpt>
      <trkpt lat="47.72133" lon="-3.4823">
        <ele>7.8</ele>
        <time>2021-08-14T10:46:24Z</time>
      </trkpt>
      <trkpt lat="47.7213" lon="-3.48226">
        <ele>8</ele>
        <time>2021-08-14T10:46:25Z</time>
      </trkpt>
      <trkpt lat="47.72127" lon="-3.48222">
        <ele>8</ele>
        <time>2021-08-14T10:46:26Z</time>
      </trkpt>
      <trkpt lat="47.72124" lon="-3.48218">
        <ele>8</ele>
        <time>2021-08-14T10:46:27Z</time>
      </trkpt>
      <trkpt lat="47.72121" lon="-3.48215">
        <ele>8</ele>
        <time>2021-08-14T10:46:28Z</time>
      </trkpt>
      <trkpt lat="47.72118" lon="-3.48211">
        <ele>8</ele>
        <time>2021-08-14T10:46:29Z</time>
      </trkpt>
      <trkpt lat="47.72115" lon="-3.48207">
        <ele>8.2</ele>
        <time>2021-08-14T10:46:30Z</time>
      </trkpt>
      <trkpt lat="47.72112" lon="-3.48203">
        <ele>8.2</ele>
        <time>2021-08-14T10:46:31Z</time>
      </trkpt>
      <trkpt lat="47.72109" lon="-3.48199">
        <ele>8.2</ele>
        <time>2021-08-14T10:46:32Z</time>
      </trkpt>
      <trkpt lat="47.72106" lon="-3.48195">
        <ele>8.2</ele>
        <time>2021-08-14T10:46:33Z</time>
      </trkpt>
      <trkpt lat="47.72103" lon="-3.48191">
        <ele>8.2</ele>
        <time>2021-08-14T10:46:34Z</time>
      </trkpt>
      <trkpt lat="47.721" lon="-3.48188">
        <ele>8.2</ele>
        <time>2021-08-14T10:46:35Z</time>
      </trkpt>
      <trkpt lat="47.72097" lon="-3.48184">
        <ele>8.4</ele>
        <time>2021-08-14T10:46:36Z</time>
      </trkpt>
      <trkpt lat="47.72094" lon="-3.4818">
        <ele>8.6</ele>
        <time>2021-08-14T10:46:37Z</time>
      </trkpt>
      <trkpt lat="47.72091" lon="-3.48176">
        <ele>8.6</ele>
        <time>2021-08-14T10:46:38Z</time>
      </trkpt>
      <trkpt lat="47.72088" lon="-3.48173">
        <ele>8.8</ele>
        <time>2021-08-14T10:46:39Z</time>
      </trkpt>
      <trkpt lat="47.72085" lon="-3.48169">
        <ele>8.8</ele>
        <time>2021-08-14T10:46:40Z</time>
      </trkpt>
      <trkpt lat="47.72082" lon="-3.48166">
        <ele>8.8</ele>
        <time>2021-08-14T10:46:41Z</time>
      </trkpt>
      <trkpt lat="47.72079" lon="-3.48163">
        <ele>8.8</ele>
        <time>2021-08-14T10:46:42Z</time>
      </trkpt>
      <trkpt lat="47.72077" lon="-3.48159">
        <ele>8.8</ele>
        <time>2021-08-14T10:46:43Z</time>
      </trkpt>
      <trkpt lat="47.72074" lon="-3.48155">
        <ele>9</ele>
        <time>2021-08-14T10:46:44Z</time>
      </trkpt>
      <trkpt lat="47.72071" lon="-3.48152">
        <ele>9</ele>
        <time>2021-08-14T10:46:45Z</time>
      </trkpt>
      <trkpt lat="47.72068" lon="-3.48148">
        <ele>9</ele>
        <time>2021-08-14T10:46:46Z</time>
      </trkpt>
      <trkpt lat="47.72065" lon="-3.48145">
        <ele>9.2</ele>
        <time>2021-08-14T10:46:47Z</time>
      </trkpt>
      <trkpt lat="47.72063" lon="-3.48141">
        <ele>9.2</ele>
        <time>2021-08-14T10:46:48Z</time>
      </trkpt>
      <trkpt lat="47.7206" lon="-3.48138">
        <ele>9.2</ele>
        <time>2021-08-14T10:46:49Z</time>
      </trkpt>
      <trkpt lat="47.72057" lon="-3.48135">
        <ele>9.4</ele>
        <time>2021-08-14T10:46:50Z</time>
      </trkpt>
      <trkpt lat="47.72054" lon="-3.48131">
        <ele>9.8</ele>
        <time>2021-08-14T10:46:51Z</time>
      </trkpt>
      <trkpt lat="47.72051" lon="-3.48128">
        <ele>10</ele>
        <time>2021-08-14T10:46:52Z</time>
      </trkpt>
      <trkpt lat="47.72049" lon="-3.48125">
        <ele>10.2</ele>
        <time>2021-08-14T10:46:53Z</time>
      </trkpt>
      <trkpt lat="47.72046" lon="-3.48122">
        <ele>10.2</ele>
        <time>2021-08-14T10:46:54Z</time>
      </trkpt>
      <trkpt lat="47.72043" lon="-3.48119">
        <ele>10.4</ele>
        <time>2021-08-14T10:46:55Z</time>
      </trkpt>
      <trkpt lat="47.72041" lon="-3.48116">
        <ele>10.6</ele>
        <time>2021-08-14T10:46:56Z</time>
      </trkpt>
      <trkpt lat="47.72038" lon="-3.48113">
        <ele>10.6</ele>
        <time>2021-08-14T10:46:57Z</time>
      </trkpt>
      <trkpt lat="47.72036" lon="-3.4811">
        <ele>10.6</ele>
        <time>2021-08-14T10:46:58Z</time>
      </trkpt>
      <trkpt lat="47.72034" lon="-3.48107">
        <ele>10.8</ele>
        <time>2021-08-14T10:46:59Z</time>
      </trkpt>
      <trkpt lat="47.72031" lon="-3.48104">
        <ele>11</ele>
        <time>2021-08-14T10:47:00Z</time>
      </trkpt>
      <trkpt lat="47.72029" lon="-3.48101">
        <ele>11</ele>
        <time>2021-08-14T10:47:01Z</time>
      </trkpt>
      <trkpt lat="47.72026" lon="-3.48099">
        <ele>11.2</ele>
        <time>2021-08-14T10:47:02Z</time>
      </trkpt>
      <trkpt lat="47.72024" lon="-3.48096">
        <ele>11.4</ele>
        <time>2021-08-14T10:47:03Z</time>
      </trkpt>
      <trkpt lat="47.72022" lon="-3.48094">
        <ele>11.6</ele>
        <time>2021-08-14T10:47:04Z</time>
      </trkpt>
      <trkpt lat="47.72019" lon="-3.48091">
        <ele>11.8</ele>
        <time>2021-08-14T10:47:05Z</time>
      </trkpt>
      <trkpt lat="47.72017" lon="-3.48089">
        <ele>12</ele>
        <time>2021-08-14T10:47:06Z</time>
      </trkpt>
      <trkpt lat="47.72014" lon="-3.48087">
        <ele>12.2</ele>
        <time>2021-08-14T10:47:07Z</time>
      </trkpt>
      <trkpt lat="47.72012" lon="-3.48084">
        <ele>12.6</ele>
        <time>2021-08-14T10:47:08Z</time>
      </trkpt>
      <trkpt lat="47.72009" lon="-3.48082">
        <ele>12.8</ele>
        <time>2021-08-14T10:47:09Z</time>
      </trkpt>
      <trkpt lat="47.72007" lon="-3.48079">
        <ele>13</ele>
        <time>2021-08-14T10:47:10Z</time>
      </trkpt>
      <trkpt lat="47.72004" lon="-3.48077">
        <ele>13</ele>
        <time>2021-08-14T10:47:11Z</time>
      </trkpt>
      <trkpt lat="47.72002" lon="-3.48074">
        <ele>13.2</ele>
        <time>2021-08-14T10:47:12Z</time>
      </trkpt>
      <trkpt lat="47.71999" lon="-3.48072">
        <ele>13.2</ele>
        <time>2021-08-14T10:47:13Z</time>
      </trkpt>
      <trkpt lat="47.71996" lon="-3.4807">
        <ele>13.4</ele>
        <time>2021-08-14T10:47:14Z</time>
      </trkpt>
      <trkpt lat="47.71993" lon="-3.48067">
        <ele>13.6</ele>
        <time>2021-08-14T10:47:15Z</time>
      </trkpt>
      <trkpt lat="47.7199" lon="-3.48065">
        <ele>13.8</ele>
        <time>2021-08-14T10:47:16Z</time>
      </trkpt>
      <trkpt lat="47.71986" lon="-3.48063">
        <ele>14</ele>
        <time>2021-08-14T10:47:17Z</time>
      </trkpt>
      <trkpt lat="47.71983" lon="-3.48062">
        <ele>14.2</ele>
        <time>2021-08-14T10:47:18Z</time>
      </trkpt>
      <trkpt lat="47.71979" lon="-3.4806">
        <ele>14.2</ele>
        <time>2021-08-14T10:47:19Z</time>
      </trkpt>
      <trkpt lat="47.71976" lon="-3.48059">
        <ele>14.4</ele>
        <time>2021-08-14T10:47:20Z</time>
      </trkpt>
      <trkpt lat="47.71972" lon="-3.48057">
        <ele>14.4</ele>
        <time>2021-08-14T10:47:21Z</time>
      </trkpt>
      <trkpt lat="47.71969" lon="-3.48055">
        <ele>14.4</ele>
        <time>2021-08-14T10:47:22Z</time>
      </trkpt>
      <trkpt lat="47.71966" lon="-3.48053">
        <ele>14.4</ele>
        <time>2021-08-14T10:47:23Z</time>
      </trkpt>
      <trkpt lat="47.71962" lon="-3.48051">
        <ele>14.6</ele>
        <time>2021-08-14T10:47:24Z</time>
      </trkpt>
      <trkpt lat="47.71959" lon="-3.48049">
        <ele>14.6</ele>
        <time>2021-08-14T10:47:25Z</time>
      </trkpt>
      <trkpt lat="47.71956" lon="-3.48047">
        <ele>14.6</ele>
        <time>2021-08-14T10:47:26Z</time>
      </trkpt>
      <trkpt lat="47.71952" lon="-3.48045">
        <ele>14.6</ele>
        <time>2021-08-14T10:47:27Z</time>
      </trkpt>
      <trkpt lat="47.71949" lon="-3.48043">
        <ele>14.8</ele>
        <time>2021-08-14T10:47:28Z</time>
      </trkpt>
      <trkpt lat="47.71945" lon="-3.48041">
        <ele>14.8</ele>
        <time>2021-08-14T10:47:29Z</time>
      </trkpt>
      <trkpt lat="47.71942" lon="-3.48039">
        <ele>15</ele>
        <time>2021-08-14T10:47:30Z</time>
      </trkpt>
      <trkpt lat="47.71938" lon="-3.48037">
        <ele>15</ele>
        <time>2021-08-14T10:47:31Z</time>
      </trkpt>
      <trkpt lat="47.71935" lon="-3.48035">
        <ele>15</ele>
        <time>2021-08-14T10:47:32Z</time>
      </trkpt>
      <trkpt lat="47.71931" lon="-3.48033">
        <ele>15</ele>
        <time>2021-08-14T10:47:33Z</time>
      </trkpt>
      <trkpt lat="47.71928" lon="-3.48032">
        <ele>15</ele>
        <time>2021-08-14T10:47:34Z</time>
      </trkpt>
      <trkpt lat="47.71924" lon="-3.4803">
        <ele>15</ele>
        <time>2021-08-14T10:47:35Z</time>
      </trkpt>
      <trkpt lat="47.71921" lon="-3.48028">
        <ele>15.2</ele>
        <time>2021-08-14T10:47:36Z</time>
      </trkpt>
      <trkpt lat="47.71917" lon="-3.48026">
        <ele>15.2</ele>
        <time>2021-08-14T10:47:37Z</time>
      </trkpt>
      <trkpt lat="47.71914" lon="-3.48025">
        <ele>15.2</ele>
        <time>2021-08-14T10:47:38Z</time>
      </trkpt>
      <trkpt lat="47.7191" lon="-3.48023">
        <ele>15.2</ele>
        <time>2021-08-14T10:47:39Z</time>
      </trkpt>
      <trkpt lat="47.71907" lon="-3.48022">
        <ele>15.2</ele>
        <time>2021-08-14T10:47:40Z</time>
      </trkpt>
      <trkpt lat="47.71903" lon="-3.48021">
        <ele>15.2</ele>
        <time>2021-08-14T10:47:41Z</time>
      </trkpt>
      <trkpt lat="47.71899" lon="-3.4802">
        <ele>15.2</ele>
        <time>2021-08-14T10:47:42Z</time>
      </trkpt>
      <trkpt lat="47.71895" lon="-3.48019">
        <ele>15.2</ele>
        <time>2021-08-14T10:47:43Z</time>
      </trkpt>
      <trkpt lat="47.71892" lon="-3.48018">
        <ele>15.2</ele>
        <time>2021-08-14T10:47:44Z</time>
      </trkpt>
      <trkpt lat="47.71888" lon="-3.48016">
        <ele>15.2</ele>
        <time>2021-08-14T10:47:45Z</time>
      </trkpt>
      <trkpt lat="47.71884" lon="-3.48015">
        <ele>15.2</ele>
        <time>2021-08-14T10:47:46Z</time>
      </trkpt>
      <trkpt lat="47.71881" lon="-3.48013">
        <ele>15.2</ele>
        <time>2021-08-14T10:47:47Z</time>
      </trkpt>
      <trkpt lat="47.71877" lon="-3.48012">
        <ele>15.2</ele>
        <time>2021-08-14T10:47:48Z</time>
      </trkpt>
      <trkpt lat="47.71874" lon="-3.4801">
        <ele>15.2</ele>
        <time>2021-08-14T10:47:49Z</time>
      </trkpt>
      <trkpt lat="47.7187" lon="-3.48007">
        <ele>15.2</ele>
        <time>2021-08-14T10:47:50Z</time>
      </trkpt>
      <trkpt lat="47.71867" lon="-3.48005">
        <ele>15.2</ele>
        <time>2021-08-14T10:47:51Z</time>
      </trkpt>
      <trkpt lat="47.71864" lon="-3.48002">
        <ele>15.2</ele>
        <time>2021-08-14T10:47:52Z</time>
      </trkpt>
      <trkpt lat="47.71861" lon="-3.48">
        <ele>15.2</ele>
        <time>2021-08-14T10:47:53Z</time>
      </trkpt>
      <trkpt lat="47.71857" lon="-3.47998">
        <ele>15.2</ele>
        <time>2021-08-14T10:47:54Z</time>
      </trkpt>
      <trkpt lat="47.71854" lon="-3.47995">
        <ele>15.4</ele>
        <time>2021-08-14T10:47:55Z</time>
      </trkpt>
      <trkpt lat="47.7185" lon="-3.47993">
        <ele>15.4</ele>
        <time>2021-08-14T10:47:56Z</time>
      </trkpt>
      <trkpt lat="47.71847" lon="-3.47991">
        <ele>15.4</ele>
        <time>2021-08-14T10:47:57Z</time>
      </trkpt>
      <trkpt lat="47.71843" lon="-3.4799">
        <ele>15.6</ele>
        <time>2021-08-14T10:47:58Z</time>
      </trkpt>
      <trkpt lat="47.71839" lon="-3.47988">
        <ele>15.8</ele>
        <time>2021-08-14T10:47:59Z</time>
      </trkpt>
      <trkpt lat="47.71836" lon="-3.47986">
        <ele>15.8</ele>
        <time>2021-08-14T10:48:00Z</time>
      </trkpt>
      <trkpt lat="47.71832" lon="-3.47984">
        <ele>16</ele>
        <time>2021-08-14T10:48:01Z</time>
      </trkpt>
      <trkpt lat="47.71829" lon="-3.47982">
        <ele>16.2</ele>
        <time>2021-08-14T10:48:02Z</time>
      </trkpt>
      <trkpt lat="47.71825" lon="-3.47981">
        <ele>16.2</ele>
        <time>2021-08-14T10:48:03Z</time>
      </trkpt>
      <trkpt lat="47.71822" lon="-3.47979">
        <ele>16.2</ele>
        <time>2021-08-14T10:48:04Z</time>
      </trkpt>
      <trkpt lat="47.71818" lon="-3.47977">
        <ele>16.4</ele>
        <time>2021-08-14T10:48:05Z</time>
      </trkpt>
      <trkpt lat="47.71815" lon="-3.47975">
        <ele>16.4</ele>
        <time>2021-08-14T10:48:06Z</time>
      </trkpt>
      <trkpt lat="47.71811" lon="-3.47973">
        <ele>16.4</ele>
        <time>2021-08-14T10:48:07Z</time>
      </trkpt>
      <trkpt lat="47.71808" lon="-3.47971">
        <ele>16.4</ele>
        <time>2021-08-14T10:48:08Z</time>
      </trkpt>
      <trkpt lat="47.71805" lon="-3.47969">
        <ele>16.4</ele>
        <time>2021-08-14T10:48:09Z</time>
      </trkpt>
      <trkpt lat="47.71801" lon="-3.47967">
        <ele>16.4</ele>
        <time>2021-08-14T10:48:10Z</time>
      </trkpt>
      <trkpt lat="47.71798" lon="-3.47965">
        <ele>16.6</ele>
        <time>2021-08-14T10:48:11Z</time>
      </trkpt>
      <trkpt lat="47.71795" lon="-3.47963">
        <ele>16.6</ele>
        <time>2021-08-14T10:48:12Z</time>
      </trkpt>
      <trkpt lat="47.71791" lon="-3.4796">
        <ele>16.6</ele>
        <time>2021-08-14T10:48:13Z</time>
      </trkpt>
      <trkpt lat="47.71788" lon="-3.47958">
        <ele>16.8</ele>
        <time>2021-08-14T10:48:14Z</time>
      </trkpt>
      <trkpt lat="47.71785" lon="-3.47956">
        <ele>17</ele>
        <time>2021-08-14T10:48:15Z</time>
      </trkpt>
      <trkpt lat="47.71782" lon="-3.47953">
        <ele>17</ele>
        <time>2021-08-14T10:48:16Z</time>
      </trkpt>
      <trkpt lat="47.71779" lon="-3.4795">
        <ele>17</ele>
        <time>2021-08-14T10:48:17Z</time>
      </trkpt>
      <trkpt lat="47.71775" lon="-3.47947">
        <ele>17.2</ele>
        <time>2021-08-14T10:48:18Z</time>
      </trkpt>
      <trkpt lat="47.71772" lon="-3.47945">
        <ele>17.2</ele>
        <time>2021-08-14T10:48:19Z</time>
      </trkpt>
      <trkpt lat="47.71769" lon="-3.47942">
        <ele>17.2</ele>
        <time>2021-08-14T10:48:20Z</time>
      </trkpt>
      <trkpt lat="47.71766" lon="-3.47939">
        <ele>17.4</ele>
        <time>2021-08-14T10:48:21Z</time>
      </trkpt>
      <trkpt lat="47.71762" lon="-3.47935">
        <ele>17.4</ele>
        <time>2021-08-14T10:48:22Z</time>
      </trkpt>
      <trkpt lat="47.71759" lon="-3.47932">
        <ele>17.4</ele>
        <time>2021-08-14T10:48:23Z</time>
      </trkpt>
      <trkpt lat="47.71755" lon="-3.47928">
        <ele>17.4</ele>
        <time>2021-08-14T10:48:24Z</time>
      </trkpt>
      <trkpt lat="47.71752" lon="-3.47924">
        <ele>17.4</ele>
        <time>2021-08-14T10:48:25Z</time>
      </trkpt>
      <trkpt lat="47.71749" lon="-3.4792">
        <ele>17.4</ele>
        <time>2021-08-14T10:48:26Z</time>
      </trkpt>
      <trkpt lat="47.71746" lon="-3.47915">
        <ele>17.4</ele>
        <time>2021-08-14T10:48:27Z</time>
      </trkpt>
      <trkpt lat="47.71742" lon="-3.47911">
        <ele>17.4</ele>
        <time>2021-08-14T10:48:28Z</time>
      </trkpt>
      <trkpt lat="47.71739" lon="-3.47907">
        <ele>17.4</ele>
        <time>2021-08-14T10:48:29Z</time>
      </trkpt>
      <trkpt lat="47.71736" lon="-3.47902">
        <ele>17.6</ele>
        <time>2021-08-14T10:48:30Z</time>
      </trkpt>
      <trkpt lat="47.71733" lon="-3.47897">
        <ele>17.6</ele>
        <time>2021-08-14T10:48:31Z</time>
      </trkpt>
      <trkpt lat="47.7173" lon="-3.47893">
        <ele>17.6</ele>
        <time>2021-08-14T10:48:32Z</time>
      </trkpt>
      <trkpt lat="47.71726" lon="-3.47888">
        <ele>17.6</ele>
        <time>2021-08-14T10:48:33Z</time>
      </trkpt>
      <trkpt lat="47.71723" lon="-3.47883">
        <ele>17.4</ele>
        <time>2021-08-14T10:48:34Z</time>
      </trkpt>
      <trkpt lat="47.7172" lon="-3.47878">
        <ele>17.4</ele>
        <time>2021-08-14T10:48:35Z</time>
      </trkpt>
      <trkpt lat="47.71716" lon="-3.47874">
        <ele>17.4</ele>
        <time>2021-08-14T10:48:36Z</time>
      </trkpt>
      <trkpt lat="47.71713" lon="-3.47868">
        <ele>17.4</ele>
        <time>2021-08-14T10:48:37Z</time>
      </trkpt>
      <trkpt lat="47.7171" lon="-3.47863">
        <ele>17.4</ele>
        <time>2021-08-14T10:48:38Z</time>
      </trkpt>
      <trkpt lat="47.71707" lon="-3.47858">
        <ele>17.2</ele>
        <time>2021-08-14T10:48:39Z</time>
      </trkpt>
      <trkpt lat="47.71704" lon="-3.47853">
        <ele>17.2</ele>
        <time>2021-08-14T10:48:40Z</time>
      </trkpt>
      <trkpt lat="47.717" lon="-3.47848">
        <ele>17.2</ele>
        <time>2021-08-14T10:48:41Z</time>
      </trkpt>
      <trkpt lat="47.71697" lon="-3.47843">
        <ele>17</ele>
        <time>2021-08-14T10:48:42Z</time>
      </trkpt>
      <trkpt lat="47.71694" lon="-3.47838">
        <ele>17</ele>
        <time>2021-08-14T10:48:43Z</time>
      </trkpt>
      <trkpt lat="47.71691" lon="-3.47833">
        <ele>17</ele>
        <time>2021-08-14T10:48:44Z</time>
      </trkpt>
      <trkpt lat="47.71688" lon="-3.47828">
        <ele>17.2</ele>
        <time>2021-08-14T10:48:45Z</time>
      </trkpt>
      <trkpt lat="47.71685" lon="-3.47823">
        <ele>17</ele>
        <time>2021-08-14T10:48:46Z</time>
      </trkpt>
      <trkpt lat="47.71681" lon="-3.47819">
        <ele>16.8</ele>
        <time>2021-08-14T10:48:47Z</time>
      </trkpt>
      <trkpt lat="47.71678" lon="-3.47813">
        <ele>17</ele>
        <time>2021-08-14T10:48:48Z</time>
      </trkpt>
      <trkpt lat="47.71675" lon="-3.47808">
        <ele>17</ele>
        <time>2021-08-14T10:48:49Z</time>
      </trkpt>
      <trkpt lat="47.71672" lon="-3.47803">
        <ele>16.8</ele>
        <time>2021-08-14T10:48:50Z</time>
      </trkpt>
      <trkpt lat="47.71669" lon="-3.47797">
        <ele>16.6</ele>
        <time>2021-08-14T10:48:51Z</time>
      </trkpt>
      <trkpt lat="47.71665" lon="-3.47792">
        <ele>16.6</ele>
        <time>2021-08-14T10:48:52Z</time>
      </trkpt>
      <trkpt lat="47.71662" lon="-3.47786">
        <ele>16.4</ele>
        <time>2021-08-14T10:48:53Z</time>
      </trkpt>
      <trkpt lat="47.71658" lon="-3.4778">
        <ele>16.2</ele>
        <time>2021-08-14T10:48:54Z</time>
      </trkpt>
      <trkpt lat="47.71654" lon="-3.47774">
        <ele>16.2</ele>
        <time>2021-08-14T10:48:55Z</time>
      </trkpt>
      <trkpt lat="47.7165" lon="-3.47767">
        <ele>15.8</ele>
        <time>2021-08-14T10:48:56Z</time>
      </trkpt>
      <trkpt lat="47.71646" lon="-3.47761">
        <ele>15.8</ele>
        <time>2021-08-14T10:48:57Z</time>
      </trkpt>
      <trkpt lat="47.71642" lon="-3.47754">
        <ele>15.6</ele>
        <time>2021-08-14T10:48:58Z</time>
      </trkpt>
      <trkpt lat="47.71638" lon="-3.47748">
        <ele>15.2</ele>
        <time>2021-08-14T10:48:59Z</time>
      </trkpt>
      <trkpt lat="47.71634" lon="-3.47741">
        <ele>15</ele>
        <time>2021-08-14T10:49:00Z</time>
      </trkpt>
      <trkpt lat="47.7163" lon="-3.47735">
        <ele>14.6</ele>
        <time>2021-08-14T10:49:01Z</time>
      </trkpt>
      <trkpt lat="47.71626" lon="-3.47729">
        <ele>14.2</ele>
        <time>2021-08-14T10:49:02Z</time>
      </trkpt>
      <trkpt lat="47.71621" lon="-3.47722">
        <ele>14</ele>
        <time>2021-08-14T10:49:03Z</time>
      </trkpt>
      <trkpt lat="47.71617" lon="-3.47715">
        <ele>13.4</ele>
        <time>2021-08-14T10:49:04Z</time>
      </trkpt>
      <trkpt lat="47.71613" lon="-3.47709">
        <ele>13</ele>
        <time>2021-08-14T10:49:05Z</time>
      </trkpt>
      <trkpt lat="47.71609" lon="-3.47702">
        <ele>13</ele>
        <time>2021-08-14T10:49:06Z</time>
      </trkpt>
      <trkpt lat="47.71605" lon="-3.47695">
        <ele>12.8</ele>
        <time>2021-08-14T10:49:07Z</time>
      </trkpt>
      <trkpt lat="47.71601" lon="-3.47688">
        <ele>12.6</ele>
        <time>2021-08-14T10:49:08Z</time>
      </trkpt>
      <trkpt lat="47.71596" lon="-3.47681">
        <ele>11.6</ele>
        <time>2021-08-14T10:49:09Z</time>
      </trkpt>
      <trkpt lat="47.71592" lon="-3.47674">
        <ele>10.8</ele>
        <time>2021-08-14T10:49:10Z</time>
      </trkpt>
      <trkpt lat="47.71588" lon="-3.47667">
        <ele>10.8</ele>
        <time>2021-08-14T10:49:11Z</time>
      </trkpt>
      <trkpt lat="47.71584" lon="-3.47661">
        <ele>10.4</ele>
        <time>2021-08-14T10:49:12Z</time>
      </trkpt>
      <trkpt lat="47.7158" lon="-3.47654">
        <ele>10.2</ele>
        <time>2021-08-14T10:49:13Z</time>
      </trkpt>
      <trkpt lat="47.71575" lon="-3.47647">
        <ele>10</ele>
        <time>2021-08-14T10:49:14Z</time>
      </trkpt>
      <trkpt lat="47.71571" lon="-3.47641">
        <ele>9.8</ele>
        <time>2021-08-14T10:49:15Z</time>
      </trkpt>
      <trkpt lat="47.71566" lon="-3.47635">
        <ele>9.6</ele>
        <time>2021-08-14T10:49:16Z</time>
      </trkpt>
      <trkpt lat="47.71562" lon="-3.47628">
        <ele>9.2</ele>
        <time>2021-08-14T10:49:17Z</time>
      </trkpt>
      <trkpt lat="47.71558" lon="-3.47621">
        <ele>9</ele>
        <time>2021-08-14T10:49:18Z</time>
      </trkpt>
      <trkpt lat="47.71554" lon="-3.47615">
        <ele>8.8</ele>
        <time>2021-08-14T10:49:19Z</time>
      </trkpt>
      <trkpt lat="47.71549" lon="-3.47609">
        <ele>8.6</ele>
        <time>2021-08-14T10:49:20Z</time>
      </trkpt>
      <trkpt lat="47.71544" lon="-3.47603">
        <ele>8.4</ele>
        <time>2021-08-14T10:49:21Z</time>
      </trkpt>
      <trkpt lat="47.71539" lon="-3.47597">
        <ele>8.4</ele>
        <time>2021-08-14T10:49:22Z</time>
      </trkpt>
      <trkpt lat="47.71534" lon="-3.47591">
        <ele>8.2</ele>
        <time>2021-08-14T10:49:23Z</time>
      </trkpt>
      <trkpt lat="47.71529" lon="-3.47585">
        <ele>8.2</ele>
        <time>2021-08-14T10:49:24Z</time>
      </trkpt>
      <trkpt lat="47.71523" lon="-3.47579">
        <ele>7.8</ele>
        <time>2021-08-14T10:49:25Z</time>
      </trkpt>
      <trkpt lat="47.71518" lon="-3.47572">
        <ele>7.6</ele>
        <time>2021-08-14T10:49:26Z</time>
      </trkpt>
      <trkpt lat="47.71512" lon="-3.47566">
        <ele>7.6</ele>
        <time>2021-08-14T10:49:27Z</time>
      </trkpt>
      <trkpt lat="47.71506" lon="-3.47559">
        <ele>7.4</ele>
        <time>2021-08-14T10:49:28Z</time>
      </trkpt>
      <trkpt lat="47.71499" lon="-3.47553">
        <ele>7.4</ele>
        <time>2021-08-14T10:49:29Z</time>
      </trkpt>
      <trkpt lat="47.71493" lon="-3.47547">
        <ele>7.2</ele>
        <time>2021-08-14T10:49:30Z</time>
      </trkpt>
      <trkpt lat="47.71487" lon="-3.4754">
        <ele>6.6</ele>
        <time>2021-08-14T10:49:31Z</time>
      </trkpt>
      <trkpt lat="47.7148" lon="-3.47533">
        <ele>6.2</ele>
        <time>2021-08-14T10:49:32Z</time>
      </trkpt>
      <trkpt lat="47.71474" lon="-3.47527">
        <ele>5.8</ele>
        <time>2021-08-14T10:49:33Z</time>
      </trkpt>
      <trkpt lat="47.71467" lon="-3.47519">
        <ele>5.4</ele>
        <time>2021-08-14T10:49:34Z</time>
      </trkpt>
      <trkpt lat="47.71461" lon="-3.47512">
        <ele>4.8</ele>
        <time>2021-08-14T10:49:35Z</time>
      </trkpt>
      <trkpt lat="47.71455" lon="-3.47504">
        <ele>4.4</ele>
        <time>2021-08-14T10:49:36Z</time>
      </trkpt>
      <trkpt lat="47.71448" lon="-3.47497">
        <ele>3.4</ele>
        <time>2021-08-14T10:49:37Z</time>
      </trkpt>
      <trkpt lat="47.71442" lon="-3.47491">
        <ele>3</ele>
        <time>2021-08-14T10:49:38Z</time>
      </trkpt>
      <trkpt lat="47.71436" lon="-3.47484">
        <ele>2.6</ele>
        <time>2021-08-14T10:49:39Z</time>
      </trkpt>
      <trkpt lat="47.71431" lon="-3.47478">
        <ele>2.2</ele>
        <time>2021-08-14T10:49:40Z</time>
      </trkpt>
      <trkpt lat="47.71425" lon="-3.47472">
        <ele>2</ele>
        <time>2021-08-14T10:49:41Z</time>
      </trkpt>
      <trkpt lat="47.7142" lon="-3.47466">
        <ele>1.8</ele>
        <time>2021-08-14T10:49:42Z</time>
      </trkpt>
      <trkpt lat="47.71414" lon="-3.4746">
        <ele>1.8</ele>
        <time>2021-08-14T10:49:43Z</time>
      </trkpt>
      <trkpt lat="47.71409" lon="-3.47455">
        <ele>1.8</ele>
        <time>2021-08-14T10:49:44Z</time>
      </trkpt>
      <trkpt lat="47.71404" lon="-3.4745">
        <ele>1.6</ele>
        <time>2021-08-14T10:49:45Z</time>
      </trkpt>
      <trkpt lat="47.714" lon="-3.47445">
        <ele>1.6</ele>
        <time>2021-08-14T10:49:46Z</time>
      </trkpt>
      <trkpt lat="47.71395" lon="-3.4744">
        <ele>1.8</ele>
        <time>2021-08-14T10:49:47Z</time>
      </trkpt>
      <trkpt lat="47.7139" lon="-3.47436">
        <ele>1.6</ele>
        <time>2021-08-14T10:49:48Z</time>
      </trkpt>
      <trkpt lat="47.71386" lon="-3.47431">
        <ele>1.6</ele>
        <time>2021-08-14T10:49:49Z</time>
      </trkpt>
      <trkpt lat="47.71382" lon="-3.47427">
        <ele>1.6</ele>
        <time>2021-08-14T10:49:50Z</time>
      </trkpt>
      <trkpt lat="47.71377" lon="-3.47422">
        <ele>1.6</ele>
        <time>2021-08-14T10:49:51Z</time>
      </trkpt>
      <trkpt lat="47.71373" lon="-3.47419">
        <ele>1.8</ele>
        <time>2021-08-14T10:49:52Z</time>
      </trkpt>
      <trkpt lat="47.71368" lon="-3.47417">
        <ele>2</ele>
        <time>2021-08-14T10:49:53Z</time>
      </trkpt>
      <trkpt lat="47.71363" lon="-3.47416">
        <ele>1.8</ele>
        <time>2021-08-14T10:49:54Z</time>
      </trkpt>
      <trkpt lat="47.71358" lon="-3.47415">
        <ele>2.2</ele>
        <time>2021-08-14T10:49:55Z</time>
      </trkpt>
      <trkpt lat="47.71353" lon="-3.47412">
        <ele>2.4</ele>
        <time>2021-08-14T10:49:56Z</time>
      </trkpt>
      <trkpt lat="47.71349" lon="-3.47409">
        <ele>2.6</ele>
        <time>2021-08-14T10:49:57Z</time>
      </trkpt>
      <trkpt lat="47.71345" lon="-3.47405">
        <ele>2.6</ele>
        <time>2021-08-14T10:49:58Z</time>
      </trkpt>
      <trkpt lat="47.71342" lon="-3.47401">
        <ele>2.6</ele>
        <time>2021-08-14T10:49:59Z</time>
      </trkpt>
      <trkpt lat="47.71339" lon="-3.47397">
        <ele>2.6</ele>
        <time>2021-08-14T10:50:00Z</time>
      </trkpt>
      <trkpt lat="47.71335" lon="-3.47393">
        <ele>2.8</ele>
        <time>2021-08-14T10:50:01Z</time>
      </trkpt>
      <trkpt lat="47.71332" lon="-3.47389">
        <ele>2.8</ele>
        <time>2021-08-14T10:50:02Z</time>
      </trkpt>
      <trkpt lat="47.71329" lon="-3.47385">
        <ele>3</ele>
        <time>2021-08-14T10:50:03Z</time>
      </trkpt>
      <trkpt lat="47.71327" lon="-3.47381">
        <ele>3.2</ele>
        <time>2021-08-14T10:50:04Z</time>
      </trkpt>
      <trkpt lat="47.71324" lon="-3.47377">
        <ele>3.2</ele>
        <time>2021-08-14T10:50:05Z</time>
      </trkpt>
      <trkpt lat="47.71321" lon="-3.47375">
        <ele>3.4</ele>
        <time>2021-08-14T10:50:06Z</time>
      </trkpt>
      <trkpt lat="47.71318" lon="-3.47372">
        <ele>3.8</ele>
        <time>2021-08-14T10:50:07Z</time>
      </trkpt>
      <trkpt lat="47.71315" lon="-3.47368">
        <ele>3.8</ele>
        <time>2021-08-14T10:50:08Z</time>
      </trkpt>
      <trkpt lat="47.71312" lon="-3.47365">
        <ele>4</ele>
        <time>2021-08-14T10:50:09Z</time>
      </trkpt>
      <trkpt lat="47.71309" lon="-3.47362">
        <ele>4.2</ele>
        <time>2021-08-14T10:50:10Z</time>
      </trkpt>
      <trkpt lat="47.71306" lon="-3.47359">
        <ele>4.4</ele>
        <time>2021-08-14T10:50:11Z</time>
      </trkpt>
      <trkpt lat="47.71303" lon="-3.47355">
        <ele>4.8</ele>
        <time>2021-08-14T10:50:12Z</time>
      </trkpt>
      <trkpt lat="47.713" lon="-3.47352">
        <ele>4.8</ele>
        <time>2021-08-14T10:50:13Z</time>
      </trkpt>
      <trkpt lat="47.71297" lon="-3.47349">
        <ele>5</ele>
        <time>2021-08-14T10:50:14Z</time>
      </trkpt>
      <trkpt lat="47.71294" lon="-3.47346">
        <ele>5.2</ele>
        <time>2021-08-14T10:50:15Z</time>
      </trkpt>
      <trkpt lat="47.71291" lon="-3.47343">
        <ele>5.4</ele>
        <time>2021-08-14T10:50:16Z</time>
      </trkpt>
      <trkpt lat="47.71288" lon="-3.4734">
        <ele>5.6</ele>
        <time>2021-08-14T10:50:17Z</time>
      </trkpt>
      <trkpt lat="47.71285" lon="-3.47337">
        <ele>5.4</ele>
        <time>2021-08-14T10:50:18Z</time>
      </trkpt>
      <trkpt lat="47.71282" lon="-3.47335">
        <ele>5.6</ele>
        <time>2021-08-14T10:50:19Z</time>
      </trkpt>
      <trkpt lat="47.71279" lon="-3.47332">
        <ele>5.8</ele>
        <time>2021-08-14T10:50:20Z</time>
      </trkpt>
      <trkpt lat="47.71276" lon="-3.47328">
        <ele>6</ele>
        <time>2021-08-14T10:50:21Z</time>
      </trkpt>
      <trkpt lat="47.71273" lon="-3.47325">
        <ele>6</ele>
        <time>2021-08-14T10:50:22Z</time>
      </trkpt>
      <trkpt lat="47.7127" lon="-3.47322">
        <ele>6</ele>
        <time>2021-08-14T10:50:23Z</time>
      </trkpt>
      <trkpt lat="47.71266" lon="-3.47319">
        <ele>6.2</ele>
        <time>2021-08-14T10:50:24Z</time>
      </trkpt>
      <trkpt lat="47.71263" lon="-3.47316">
        <ele>6.2</ele>
        <time>2021-08-14T10:50:25Z</time>
      </trkpt>
      <trkpt lat="47.7126" lon="-3.47312">
        <ele>6.4</ele>
        <time>2021-08-14T10:50:26Z</time>
      </trkpt>
      <trkpt lat="47.71257" lon="-3.47309">
        <ele>6.4</ele>
        <time>2021-08-14T10:50:27Z</time>
      </trkpt>
      <trkpt lat="47.71253" lon="-3.47305">
        <ele>6.4</ele>
        <time>2021-08-14T10:50:28Z</time>
      </trkpt>
      <trkpt lat="47.7125" lon="-3.47302">
        <ele>6.6</ele>
        <time>2021-08-14T10:50:29Z</time>
      </trkpt>
      <trkpt lat="47.71247" lon="-3.47299">
        <ele>6.6</ele>
        <time>2021-08-14T10:50:30Z</time>
      </trkpt>
      <trkpt lat="47.71244" lon="-3.47296">
        <ele>6.6</ele>
        <time>2021-08-14T10:50:31Z</time>
      </trkpt>
      <trkpt lat="47.71241" lon="-3.47293">
        <ele>6.6</ele>
        <time>2021-08-14T10:50:32Z</time>
      </trkpt>
      <trkpt lat="47.71238" lon="-3.4729">
        <ele>6.6</ele>
        <time>2021-08-14T10:50:33Z</time>
      </trkpt>
      <trkpt lat="47.71235" lon="-3.47287">
        <ele>6.6</ele>
        <time>2021-08-14T10:50:34Z</time>
      </trkpt>
      <trkpt lat="47.71231" lon="-3.47284">
        <ele>6.6</ele>
        <time>2021-08-14T10:50:35Z</time>
      </trkpt>
      <trkpt lat="47.71228" lon="-3.4728">
        <ele>6.6</ele>
        <time>2021-08-14T10:50:36Z</time>
      </trkpt>
      <trkpt lat="47.71224" lon="-3.47276">
        <ele>6.6</ele>
        <time>2021-08-14T10:50:37Z</time>
      </trkpt>
      <trkpt lat="47.71221" lon="-3.47273">
        <ele>6.6</ele>
        <time>2021-08-14T10:50:38Z</time>
      </trkpt>
      <trkpt lat="47.71218" lon="-3.4727">
        <ele>6.4</ele>
        <time>2021-08-14T10:50:39Z</time>
      </trkpt>
      <trkpt lat="47.71214" lon="-3.47266">
        <ele>6.4</ele>
        <time>2021-08-14T10:50:40Z</time>
      </trkpt>
      <trkpt lat="47.71211" lon="-3.47262">
        <ele>6</ele>
        <time>2021-08-14T10:50:41Z</time>
      </trkpt>
      <trkpt lat="47.71207" lon="-3.47258">
        <ele>6</ele>
        <time>2021-08-14T10:50:42Z</time>
      </trkpt>
      <trkpt lat="47.71203" lon="-3.47254">
        <ele>5.8</ele>
        <time>2021-08-14T10:50:43Z</time>
      </trkpt>
      <trkpt lat="47.71199" lon="-3.47249">
        <ele>5.8</ele>
        <time>2021-08-14T10:50:44Z</time>
      </trkpt>
      <trkpt lat="47.71196" lon="-3.47245">
        <ele>5.6</ele>
        <time>2021-08-14T10:50:45Z</time>
      </trkpt>
      <trkpt lat="47.71192" lon="-3.47241">
        <ele>5.6</ele>
        <time>2021-08-14T10:50:46Z</time>
      </trkpt>
      <trkpt lat="47.71188" lon="-3.47237">
        <ele>5.6</ele>
        <time>2021-08-14T10:50:47Z</time>
      </trkpt>
      <trkpt lat="47.71184" lon="-3.47233">
        <ele>5.6</ele>
        <time>2021-08-14T10:50:48Z</time>
      </trkpt>
      <trkpt lat="47.71181" lon="-3.47228">
        <ele>5.4</ele>
        <time>2021-08-14T10:50:49Z</time>
      </trkpt>
      <trkpt lat="47.71177" lon="-3.47224">
        <ele>5.4</ele>
        <time>2021-08-14T10:50:50Z</time>
      </trkpt>
      <trkpt lat="47.71173" lon="-3.47219">
        <ele>5.2</ele>
        <time>2021-08-14T10:50:51Z</time>
      </trkpt>
      <trkpt lat="47.71168" lon="-3.47214">
        <ele>5.2</ele>
        <time>2021-08-14T10:50:52Z</time>
      </trkpt>
      <trkpt lat="47.71164" lon="-3.4721">
        <ele>5.2</ele>
        <time>2021-08-14T10:50:53Z</time>
      </trkpt>
      <trkpt lat="47.7116" lon="-3.47205">
        <ele>5</ele>
        <time>2021-08-14T10:50:54Z</time>
      </trkpt>
      <trkpt lat="47.71157" lon="-3.47201">
        <ele>4.8</ele>
        <time>2021-08-14T10:50:55Z</time>
      </trkpt>
      <trkpt lat="47.71153" lon="-3.47196">
        <ele>4.8</ele>
        <time>2021-08-14T10:50:56Z</time>
      </trkpt>
      <trkpt lat="47.7115" lon="-3.47191">
        <ele>4.6</ele>
        <time>2021-08-14T10:50:57Z</time>
      </trkpt>
      <trkpt lat="47.71146" lon="-3.47187">
        <ele>4.4</ele>
        <time>2021-08-14T10:50:58Z</time>
      </trkpt>
      <trkpt lat="47.71144" lon="-3.47183">
        <ele>4.2</ele>
        <time>2021-08-14T10:50:59Z</time>
      </trkpt>
      <trkpt lat="47.71141" lon="-3.4718">
        <ele>4.2</ele>
        <time>2021-08-14T10:51:00Z</time>
      </trkpt>
      <trkpt lat="47.71139" lon="-3.47177">
        <ele>4.2</ele>
        <time>2021-08-14T10:51:01Z</time>
      </trkpt>
      <trkpt lat="47.71138" lon="-3.47174">
        <ele>4.2</ele>
        <time>2021-08-14T10:51:02Z</time>
      </trkpt>
      <trkpt lat="47.71136" lon="-3.47172">
        <ele>4.2</ele>
        <time>2021-08-14T10:51:03Z</time>
      </trkpt>
      <trkpt lat="47.71136" lon="-3.47169">
        <ele>4.2</ele>
        <time>2021-08-14T10:51:04Z</time>
      </trkpt>
      <trkpt lat="47.71135" lon="-3.47167">
        <ele>4.2</ele>
        <time>2021-08-14T10:51:05Z</time>
      </trkpt>
      <trkpt lat="47.71134" lon="-3.47166">
        <ele>4.2</ele>
        <time>2021-08-14T10:51:06Z</time>
      </trkpt>
      <trkpt lat="47.71133" lon="-3.47164">
        <ele>4.2</ele>
        <time>2021-08-14T10:51:07Z</time>
      </trkpt>
      <trkpt lat="47.71132" lon="-3.47162">
        <ele>4.2</ele>
        <time>2021-08-14T10:51:08Z</time>
      </trkpt>
      <trkpt lat="47.71131" lon="-3.47161">
        <ele>4.2</ele>
        <time>2021-08-14T10:51:09Z</time>
      </trkpt>
      <trkpt lat="47.7113" lon="-3.47159">
        <ele>4.2</ele>
        <time>2021-08-14T10:51:10Z</time>
      </trkpt>
      <trkpt lat="47.7113" lon="-3.47158">
        <ele>4.2</ele>
        <time>2021-08-14T10:51:11Z</time>
      </trkpt>
      <trkpt lat="47.7113" lon="-3.47155">
        <ele>4.2</ele>
        <time>2021-08-14T10:51:12Z</time>
      </trkpt>
      <trkpt lat="47.7113" lon="-3.47153">
        <ele>4.2</ele>
        <time>2021-08-14T10:51:13Z</time>
      </trkpt>
      <trkpt lat="47.7113" lon="-3.4715">
        <ele>4.4</ele>
        <time>2021-08-14T10:51:14Z</time>
      </trkpt>
      <trkpt lat="47.71131" lon="-3.47147">
        <ele>4.4</ele>
        <time>2021-08-14T10:51:15Z</time>
      </trkpt>
      <trkpt lat="47.71131" lon="-3.47144">
        <ele>4.4</ele>
        <time>2021-08-14T10:51:16Z</time>
      </trkpt>
      <trkpt lat="47.7113" lon="-3.4714">
        <ele>4.4</ele>
        <time>2021-08-14T10:51:17Z</time>
      </trkpt>
      <trkpt lat="47.71128" lon="-3.47135">
        <ele>4.4</ele>
        <time>2021-08-14T10:51:18Z</time>
      </trkpt>
      <trkpt lat="47.71126" lon="-3.4713">
        <ele>4.4</ele>
        <time>2021-08-14T10:51:19Z</time>
      </trkpt>
      <trkpt lat="47.71124" lon="-3.47125">
        <ele>4.4</ele>
        <time>2021-08-14T10:51:20Z</time>
      </trkpt>
      <trkpt lat="47.71121" lon="-3.4712">
        <ele>4.4</ele>
        <time>2021-08-14T10:51:21Z</time>
      </trkpt>
      <trkpt lat="47.71118" lon="-3.47115">
        <ele>4.4</ele>
        <time>2021-08-14T10:51:22Z</time>
      </trkpt>
      <trkpt lat="47.71115" lon="-3.47109">
        <ele>4.2</ele>
        <time>2021-08-14T10:51:23Z</time>
      </trkpt>
      <trkpt lat="47.71112" lon="-3.47104">
        <ele>4.2</ele>
        <time>2021-08-14T10:51:24Z</time>
      </trkpt>
      <trkpt lat="47.71109" lon="-3.47098">
        <ele>4.2</ele>
        <time>2021-08-14T10:51:25Z</time>
      </trkpt>
      <trkpt lat="47.71106" lon="-3.47093">
        <ele>3.8</ele>
        <time>2021-08-14T10:51:26Z</time>
      </trkpt>
      <trkpt lat="47.71103" lon="-3.47088">
        <ele>3.6</ele>
        <time>2021-08-14T10:51:27Z</time>
      </trkpt>
      <trkpt lat="47.711" lon="-3.47082">
        <ele>3.4</ele>
        <time>2021-08-14T10:51:28Z</time>
      </trkpt>
      <trkpt lat="47.71097" lon="-3.47077">
        <ele>3.2</ele>
        <time>2021-08-14T10:51:29Z</time>
      </trkpt>
      <trkpt lat="47.71095" lon="-3.47071">
        <ele>3</ele>
        <time>2021-08-14T10:51:30Z</time>
      </trkpt>
      <trkpt lat="47.71093" lon="-3.47066">
        <ele>2.8</ele>
        <time>2021-08-14T10:51:31Z</time>
      </trkpt>
      <trkpt lat="47.7109" lon="-3.47061">
        <ele>2.6</ele>
        <time>2021-08-14T10:51:32Z</time>
      </trkpt>
      <trkpt lat="47.71087" lon="-3.47055">
        <ele>2.6</ele>
        <time>2021-08-14T10:51:33Z</time>
      </trkpt>
      <trkpt lat="47.71084" lon="-3.4705">
        <ele>2.6</ele>
        <time>2021-08-14T10:51:34Z</time>
      </trkpt>
      <trkpt lat="47.71081" lon="-3.47044">
        <ele>2.6</ele>
        <time>2021-08-14T10:51:35Z</time>
      </trkpt>
      <trkpt lat="47.71078" lon="-3.47039">
        <ele>2.6</ele>
        <time>2021-08-14T10:51:36Z</time>
      </trkpt>
      <trkpt lat="47.71075" lon="-3.47033">
        <ele>2.6</ele>
        <time>2021-08-14T10:51:37Z</time>
      </trkpt>
      <trkpt lat="47.71072" lon="-3.47027">
        <ele>2.6</ele>
        <time>2021-08-14T10:51:38Z</time>
      </trkpt>
      <trkpt lat="47.71069" lon="-3.47022">
        <ele>2.4</ele>
        <time>2021-08-14T10:51:39Z</time>
      </trkpt>
      <trkpt lat="47.71066" lon="-3.47016">
        <ele>2.4</ele>
        <time>2021-08-14T10:51:40Z</time>
      </trkpt>
      <trkpt lat="47.71064" lon="-3.47011">
        <ele>2.4</ele>
        <time>2021-08-14T10:51:41Z</time>
      </trkpt>
      <trkpt lat="47.71061" lon="-3.47006">
        <ele>2.4</ele>
        <time>2021-08-14T10:51:42Z</time>
      </trkpt>
      <trkpt lat="47.71058" lon="-3.47002">
        <ele>2.4</ele>
        <time>2021-08-14T10:51:43Z</time>
      </trkpt>
      <trkpt lat="47.71055" lon="-3.46997">
        <ele>2.4</ele>
        <time>2021-08-14T10:51:44Z</time>
      </trkpt>
      <trkpt lat="47.71052" lon="-3.46991">
        <ele>2.4</ele>
        <time>2021-08-14T10:51:45Z</time>
      </trkpt>
      <trkpt lat="47.71049" lon="-3.46986">
        <ele>2.6</ele>
        <time>2021-08-14T10:51:46Z</time>
      </trkpt>
      <trkpt lat="47.71047" lon="-3.46982">
        <ele>2.6</ele>
        <time>2021-08-14T10:51:47Z</time>
      </trkpt>
      <trkpt lat="47.71044" lon="-3.46977">
        <ele>2.6</ele>
        <time>2021-08-14T10:51:48Z</time>
      </trkpt>
      <trkpt lat="47.71041" lon="-3.46972">
        <ele>2.6</ele>
        <time>2021-08-14T10:51:49Z</time>
      </trkpt>
      <trkpt lat="47.71038" lon="-3.46967">
        <ele>2.8</ele>
        <time>2021-08-14T10:51:50Z</time>
      </trkpt>
      <trkpt lat="47.71035" lon="-3.46962">
        <ele>2.8</ele>
        <time>2021-08-14T10:51:51Z</time>
      </trkpt>
      <trkpt lat="47.71033" lon="-3.46957">
        <ele>3</ele>
        <time>2021-08-14T10:51:52Z</time>
      </trkpt>
      <trkpt lat="47.7103" lon="-3.46952">
        <ele>3</ele>
        <time>2021-08-14T10:51:53Z</time>
      </trkpt>
      <trkpt lat="47.71027" lon="-3.46947">
        <ele>3.2</ele>
        <time>2021-08-14T10:51:54Z</time>
      </trkpt>
      <trkpt lat="47.71024" lon="-3.46943">
        <ele>3.2</ele>
        <time>2021-08-14T10:51:55Z</time>
      </trkpt>
      <trkpt lat="47.71022" lon="-3.46938">
        <ele>3.4</ele>
        <time>2021-08-14T10:51:56Z</time>
      </trkpt>
      <trkpt lat="47.71019" lon="-3.46933">
        <ele>3.6</ele>
        <time>2021-08-14T10:51:57Z</time>
      </trkpt>
      <trkpt lat="47.71016" lon="-3.46928">
        <ele>3.8</ele>
        <time>2021-08-14T10:51:58Z</time>
      </trkpt>
      <trkpt lat="47.71013" lon="-3.46924">
        <ele>3.8</ele>
        <time>2021-08-14T10:51:59Z</time>
      </trkpt>
      <trkpt lat="47.71011" lon="-3.46919">
        <ele>4</ele>
        <time>2021-08-14T10:52:00Z</time>
      </trkpt>
      <trkpt lat="47.71008" lon="-3.46915">
        <ele>4.2</ele>
        <time>2021-08-14T10:52:01Z</time>
      </trkpt>
      <trkpt lat="47.71005" lon="-3.46911">
        <ele>4.2</ele>
        <time>2021-08-14T10:52:02Z</time>
      </trkpt>
      <trkpt lat="47.71003" lon="-3.46907">
        <ele>4.2</ele>
        <time>2021-08-14T10:52:03Z</time>
      </trkpt>
      <trkpt lat="47.71" lon="-3.46903">
        <ele>4.4</ele>
        <time>2021-08-14T10:52:04Z</time>
      </trkpt>
      <trkpt lat="47.70998" lon="-3.46898">
        <ele>4.4</ele>
        <time>2021-08-14T10:52:05Z</time>
      </trkpt>
      <trkpt lat="47.70996" lon="-3.46894">
        <ele>4.6</ele>
        <time>2021-08-14T10:52:06Z</time>
      </trkpt>
      <trkpt lat="47.70994" lon="-3.4689">
        <ele>4.6</ele>
        <time>2021-08-14T10:52:07Z</time>
      </trkpt>
      <trkpt lat="47.70992" lon="-3.46886">
        <ele>4.8</ele>
        <time>2021-08-14T10:52:08Z</time>
      </trkpt>
      <trkpt lat="47.7099" lon="-3.46882">
        <ele>4.8</ele>
        <time>2021-08-14T10:52:09Z</time>
      </trkpt>
      <trkpt lat="47.70987" lon="-3.46878">
        <ele>5</ele>
        <time>2021-08-14T10:52:10Z</time>
      </trkpt>
      <trkpt lat="47.70985" lon="-3.46874">
        <ele>5.2</ele>
        <time>2021-08-14T10:52:11Z</time>
      </trkpt>
      <trkpt lat="47.70983" lon="-3.4687">
        <ele>5.2</ele>
        <time>2021-08-14T10:52:12Z</time>
      </trkpt>
      <trkpt lat="47.70981" lon="-3.46866">
        <ele>5.6</ele>
        <time>2021-08-14T10:52:13Z</time>
      </trkpt>
      <trkpt lat="47.70978" lon="-3.46862">
        <ele>5.8</ele>
        <time>2021-08-14T10:52:14Z</time>
      </trkpt>
      <trkpt lat="47.70976" lon="-3.46858">
        <ele>6</ele>
        <time>2021-08-14T10:52:15Z</time>
      </trkpt>
      <trkpt lat="47.70974" lon="-3.46853">
        <ele>6.2</ele>
        <time>2021-08-14T10:52:16Z</time>
      </trkpt>
      <trkpt lat="47.70972" lon="-3.46849">
        <ele>6.2</ele>
        <time>2021-08-14T10:52:17Z</time>
      </trkpt>
      <trkpt lat="47.70969" lon="-3.46845">
        <ele>6.4</ele>
        <time>2021-08-14T10:52:18Z</time>
      </trkpt>
      <trkpt lat="47.70967" lon="-3.46841">
        <ele>6.6</ele>
        <time>2021-08-14T10:52:19Z</time>
      </trkpt>
      <trkpt lat="47.70964" lon="-3.46837">
        <ele>6.8</ele>
        <time>2021-08-14T10:52:20Z</time>
      </trkpt>
      <trkpt lat="47.70962" lon="-3.46833">
        <ele>7</ele>
        <time>2021-08-14T10:52:21Z</time>
      </trkpt>
      <trkpt lat="47.7096" lon="-3.46829">
        <ele>7.2</ele>
        <time>2021-08-14T10:52:22Z</time>
      </trkpt>
      <trkpt lat="47.70958" lon="-3.46825">
        <ele>7.2</ele>
        <time>2021-08-14T10:52:23Z</time>
      </trkpt>
      <trkpt lat="47.70955" lon="-3.46821">
        <ele>7.4</ele>
        <time>2021-08-14T10:52:24Z</time>
      </trkpt>
      <trkpt lat="47.70953" lon="-3.46816">
        <ele>7.6</ele>
        <time>2021-08-14T10:52:25Z</time>
      </trkpt>
      <trkpt lat="47.7095" lon="-3.46812">
        <ele>7.8</ele>
        <time>2021-08-14T10:52:26Z</time>
      </trkpt>
      <trkpt lat="47.70948" lon="-3.46808">
        <ele>7.8</ele>
        <time>2021-08-14T10:52:27Z</time>
      </trkpt>
      <trkpt lat="47.70946" lon="-3.46803">
        <ele>8</ele>
        <time>2021-08-14T10:52:28Z</time>
      </trkpt>
      <trkpt lat="47.70943" lon="-3.46799">
        <ele>8</ele>
        <time>2021-08-14T10:52:29Z</time>
      </trkpt>
      <trkpt lat="47.70941" lon="-3.46794">
        <ele>8</ele>
        <time>2021-08-14T10:52:30Z</time>
      </trkpt>
      <trkpt lat="47.70939" lon="-3.4679">
        <ele>8.2</ele>
        <time>2021-08-14T10:52:31Z</time>
      </trkpt>
      <trkpt lat="47.70936" lon="-3.46785">
        <ele>8.2</ele>
        <time>2021-08-14T10:52:32Z</time>
      </trkpt>
      <trkpt lat="47.70934" lon="-3.46781">
        <ele>8.4</ele>
        <time>2021-08-14T10:52:33Z</time>
      </trkpt>
      <trkpt lat="47.70931" lon="-3.46776">
        <ele>8.4</ele>
        <time>2021-08-14T10:52:34Z</time>
      </trkpt>
      <trkpt lat="47.70929" lon="-3.46772">
        <ele>8.4</ele>
        <time>2021-08-14T10:52:35Z</time>
      </trkpt>
      <trkpt lat="47.70927" lon="-3.46767">
        <ele>8.6</ele>
        <time>2021-08-14T10:52:36Z</time>
      </trkpt>
      <trkpt lat="47.70924" lon="-3.46763">
        <ele>8.6</ele>
        <time>2021-08-14T10:52:37Z</time>
      </trkpt>
      <trkpt lat="47.70922" lon="-3.46758">
        <ele>8.6</ele>
        <time>2021-08-14T10:52:38Z</time>
      </trkpt>
      <trkpt lat="47.70919" lon="-3.46753">
        <ele>8.8</ele>
        <time>2021-08-14T10:52:39Z</time>
      </trkpt>
      <trkpt lat="47.70917" lon="-3.46748">
        <ele>8.8</ele>
        <time>2021-08-14T10:52:40Z</time>
      </trkpt>
      <trkpt lat="47.70914" lon="-3.46744">
        <ele>8.8</ele>
        <time>2021-08-14T10:52:41Z</time>
      </trkpt>
      <trkpt lat="47.70912" lon="-3.46739">
        <ele>8.8</ele>
        <time>2021-08-14T10:52:42Z</time>
      </trkpt>
      <trkpt lat="47.7091" lon="-3.46734">
        <ele>8.8</ele>
        <time>2021-08-14T10:52:43Z</time>
      </trkpt>
      <trkpt lat="47.70907" lon="-3.46729">
        <ele>9</ele>
        <time>2021-08-14T10:52:44Z</time>
      </trkpt>
      <trkpt lat="47.70905" lon="-3.46724">
        <ele>9</ele>
        <time>2021-08-14T10:52:45Z</time>
      </trkpt>
      <trkpt lat="47.70902" lon="-3.46719">
        <ele>9.2</ele>
        <time>2021-08-14T10:52:46Z</time>
      </trkpt>
      <trkpt lat="47.709" lon="-3.46714">
        <ele>9.2</ele>
        <time>2021-08-14T10:52:47Z</time>
      </trkpt>
      <trkpt lat="47.70898" lon="-3.46709">
        <ele>9.2</ele>
        <time>2021-08-14T10:52:48Z</time>
      </trkpt>
      <trkpt lat="47.70895" lon="-3.46704">
        <ele>9.4</ele>
        <time>2021-08-14T10:52:49Z</time>
      </trkpt>
      <trkpt lat="47.70892" lon="-3.467">
        <ele>9.4</ele>
        <time>2021-08-14T10:52:50Z</time>
      </trkpt>
      <trkpt lat="47.7089" lon="-3.46695">
        <ele>9.6</ele>
        <time>2021-08-14T10:52:51Z</time>
      </trkpt>
      <trkpt lat="47.70887" lon="-3.46689">
        <ele>9.6</ele>
        <time>2021-08-14T10:52:52Z</time>
      </trkpt>
      <trkpt lat="47.70885" lon="-3.46684">
        <ele>9.6</ele>
        <time>2021-08-14T10:52:53Z</time>
      </trkpt>
      <trkpt lat="47.70882" lon="-3.46678">
        <ele>9.6</ele>
        <time>2021-08-14T10:52:54Z</time>
      </trkpt>
      <trkpt lat="47.7088" lon="-3.46673">
        <ele>9.8</ele>
        <time>2021-08-14T10:52:55Z</time>
      </trkpt>
      <trkpt lat="47.70878" lon="-3.46667">
        <ele>9.8</ele>
        <time>2021-08-14T10:52:56Z</time>
      </trkpt>
      <trkpt lat="47.70875" lon="-3.46662">
        <ele>9.8</ele>
        <time>2021-08-14T10:52:57Z</time>
      </trkpt>
      <trkpt lat="47.70873" lon="-3.46656">
        <ele>9.8</ele>
        <time>2021-08-14T10:52:58Z</time>
      </trkpt>
      <trkpt lat="47.7087" lon="-3.46651">
        <ele>9.8</ele>
        <time>2021-08-14T10:52:59Z</time>
      </trkpt>
      <trkpt lat="47.70868" lon="-3.46646">
        <ele>10</ele>
        <time>2021-08-14T10:53:00Z</time>
      </trkpt>
      <trkpt lat="47.70866" lon="-3.46641">
        <ele>10</ele>
        <time>2021-08-14T10:53:01Z</time>
      </trkpt>
      <trkpt lat="47.70863" lon="-3.46637">
        <ele>10</ele>
        <time>2021-08-14T10:53:02Z</time>
      </trkpt>
      <trkpt lat="47.70861" lon="-3.46632">
        <ele>10.2</ele>
        <time>2021-08-14T10:53:03Z</time>
      </trkpt>
      <trkpt lat="47.70859" lon="-3.46628">
        <ele>10.2</ele>
        <time>2021-08-14T10:53:04Z</time>
      </trkpt>
      <trkpt lat="47.70857" lon="-3.46624">
        <ele>10.2</ele>
        <time>2021-08-14T10:53:05Z</time>
      </trkpt>
      <trkpt lat="47.70855" lon="-3.46619">
        <ele>10.2</ele>
        <time>2021-08-14T10:53:06Z</time>
      </trkpt>
      <trkpt lat="47.70853" lon="-3.46615">
        <ele>10.2</ele>
        <time>2021-08-14T10:53:07Z</time>
      </trkpt>
      <trkpt lat="47.70852" lon="-3.46611">
        <ele>10.4</ele>
        <time>2021-08-14T10:53:08Z</time>
      </trkpt>
      <trkpt lat="47.7085" lon="-3.46606">
        <ele>10.4</ele>
        <time>2021-08-14T10:53:09Z</time>
      </trkpt>
      <trkpt lat="47.70848" lon="-3.46602">
        <ele>10.4</ele>
        <time>2021-08-14T10:53:10Z</time>
      </trkpt>
      <trkpt lat="47.70847" lon="-3.46597">
        <ele>10.6</ele>
        <time>2021-08-14T10:53:11Z</time>
      </trkpt>
      <trkpt lat="47.70845" lon="-3.46593">
        <ele>10.6</ele>
        <time>2021-08-14T10:53:12Z</time>
      </trkpt>
      <trkpt lat="47.70844" lon="-3.46587">
        <ele>10.8</ele>
        <time>2021-08-14T10:53:13Z</time>
      </trkpt>
      <trkpt lat="47.70843" lon="-3.46582">
        <ele>10.8</ele>
        <time>2021-08-14T10:53:14Z</time>
      </trkpt>
      <trkpt lat="47.70841" lon="-3.46577">
        <ele>10.8</ele>
        <time>2021-08-14T10:53:15Z</time>
      </trkpt>
      <trkpt lat="47.70839" lon="-3.46571">
        <ele>10.8</ele>
        <time>2021-08-14T10:53:16Z</time>
      </trkpt>
      <trkpt lat="47.70837" lon="-3.46566">
        <ele>10.8</ele>
        <time>2021-08-14T10:53:17Z</time>
      </trkpt>
      <trkpt lat="47.70835" lon="-3.4656">
        <ele>10.8</ele>
        <time>2021-08-14T10:53:18Z</time>
      </trkpt>
      <trkpt lat="47.70833" lon="-3.46554">
        <ele>10.8</ele>
        <time>2021-08-14T10:53:19Z</time>
      </trkpt>
      <trkpt lat="47.70831" lon="-3.46549">
        <ele>10.8</ele>
        <time>2021-08-14T10:53:20Z</time>
      </trkpt>
      <trkpt lat="47.70829" lon="-3.46543">
        <ele>10.8</ele>
        <time>2021-08-14T10:53:21Z</time>
      </trkpt>
      <trkpt lat="47.70827" lon="-3.46537">
        <ele>10.8</ele>
        <time>2021-08-14T10:53:22Z</time>
      </trkpt>
      <trkpt lat="47.70825" lon="-3.46531">
        <ele>10.8</ele>
        <time>2021-08-14T10:53:23Z</time>
      </trkpt>
      <trkpt lat="47.70823" lon="-3.46526">
        <ele>10.6</ele>
        <time>2021-08-14T10:53:24Z</time>
      </trkpt>
      <trkpt lat="47.70821" lon="-3.4652">
        <ele>10.6</ele>
        <time>2021-08-14T10:53:25Z</time>
      </trkpt>
      <trkpt lat="47.70819" lon="-3.46514">
        <ele>10.6</ele>
        <time>2021-08-14T10:53:26Z</time>
      </trkpt>
      <trkpt lat="47.70817" lon="-3.46508">
        <ele>10.6</ele>
        <time>2021-08-14T10:53:27Z</time>
      </trkpt>
      <trkpt lat="47.70815" lon="-3.46502">
        <ele>10.6</ele>
        <time>2021-08-14T10:53:28Z</time>
      </trkpt>
      <trkpt lat="47.70814" lon="-3.46496">
        <ele>10.6</ele>
        <time>2021-08-14T10:53:29Z</time>
      </trkpt>
      <trkpt lat="47.70812" lon="-3.4649">
        <ele>10.6</ele>
        <time>2021-08-14T10:53:30Z</time>
      </trkpt>
      <trkpt lat="47.7081" lon="-3.46484">
        <ele>10.6</ele>
        <time>2021-08-14T10:53:31Z</time>
      </trkpt>
      <trkpt lat="47.70808" lon="-3.46478">
        <ele>10.4</ele>
        <time>2021-08-14T10:53:32Z</time>
      </trkpt>
      <trkpt lat="47.70807" lon="-3.46472">
        <ele>10.4</ele>
        <time>2021-08-14T10:53:33Z</time>
      </trkpt>
      <trkpt lat="47.70805" lon="-3.46466">
        <ele>10.4</ele>
        <time>2021-08-14T10:53:34Z</time>
      </trkpt>
      <trkpt lat="47.70803" lon="-3.4646">
        <ele>10.4</ele>
        <time>2021-08-14T10:53:35Z</time>
      </trkpt>
      <trkpt lat="47.70802" lon="-3.46454">
        <ele>10.4</ele>
        <time>2021-08-14T10:53:36Z</time>
      </trkpt>
      <trkpt lat="47.708" lon="-3.46448">
        <ele>10.4</ele>
        <time>2021-08-14T10:53:37Z</time>
      </trkpt>
      <trkpt lat="47.70798" lon="-3.46442">
        <ele>10.4</ele>
        <time>2021-08-14T10:53:38Z</time>
      </trkpt>
      <trkpt lat="47.70797" lon="-3.46435">
        <ele>10.4</ele>
        <time>2021-08-14T10:53:39Z</time>
      </trkpt>
      <trkpt lat="47.70795" lon="-3.46428">
        <ele>10.4</ele>
        <time>2021-08-14T10:53:40Z</time>
      </trkpt>
      <trkpt lat="47.70793" lon="-3.46422">
        <ele>10.4</ele>
        <time>2021-08-14T10:53:41Z</time>
      </trkpt>
      <trkpt lat="47.70791" lon="-3.46415">
        <ele>10.4</ele>
        <time>2021-08-14T10:53:42Z</time>
      </trkpt>
      <trkpt lat="47.70789" lon="-3.46408">
        <ele>10.4</ele>
        <time>2021-08-14T10:53:43Z</time>
      </trkpt>
      <trkpt lat="47.70788" lon="-3.46401">
        <ele>10.4</ele>
        <time>2021-08-14T10:53:44Z</time>
      </trkpt>
      <trkpt lat="47.70786" lon="-3.46394">
        <ele>10.4</ele>
        <time>2021-08-14T10:53:45Z</time>
      </trkpt>
      <trkpt lat="47.70785" lon="-3.46387">
        <ele>10.4</ele>
        <time>2021-08-14T10:53:46Z</time>
      </trkpt>
      <trkpt lat="47.70781" lon="-3.46373">
        <ele>10.2</ele>
        <time>2021-08-14T10:53:48Z</time>
      </trkpt>
      <trkpt lat="47.7078" lon="-3.46365">
        <ele>10.2</ele>
        <time>2021-08-14T10:53:49Z</time>
      </trkpt>
      <trkpt lat="47.70778" lon="-3.46358">
        <ele>10.2</ele>
        <time>2021-08-14T10:53:50Z</time>
      </trkpt>
      <trkpt lat="47.70776" lon="-3.46351">
        <ele>10.2</ele>
        <time>2021-08-14T10:53:51Z</time>
      </trkpt>
      <trkpt lat="47.70775" lon="-3.46343">
        <ele>10.2</ele>
        <time>2021-08-14T10:53:52Z</time>
      </trkpt>
      <trkpt lat="47.70773" lon="-3.46335">
        <ele>10.2</ele>
        <time>2021-08-14T10:53:53Z</time>
      </trkpt>
      <trkpt lat="47.70771" lon="-3.46327">
        <ele>10.2</ele>
        <time>2021-08-14T10:53:54Z</time>
      </trkpt>
      <trkpt lat="47.7077" lon="-3.46319">
        <ele>10</ele>
        <time>2021-08-14T10:53:55Z</time>
      </trkpt>
      <trkpt lat="47.70768" lon="-3.46311">
        <ele>10</ele>
        <time>2021-08-14T10:53:56Z</time>
      </trkpt>
      <trkpt lat="47.70766" lon="-3.46303">
        <ele>10</ele>
        <time>2021-08-14T10:53:57Z</time>
      </trkpt>
      <trkpt lat="47.70765" lon="-3.46295">
        <ele>10</ele>
        <time>2021-08-14T10:53:58Z</time>
      </trkpt>
      <trkpt lat="47.70763" lon="-3.46287">
        <ele>9.8</ele>
        <time>2021-08-14T10:53:59Z</time>
      </trkpt>
      <trkpt lat="47.70762" lon="-3.46278">
        <ele>9.8</ele>
        <time>2021-08-14T10:54:00Z</time>
      </trkpt>
      <trkpt lat="47.7076" lon="-3.4627">
        <ele>9.8</ele>
        <time>2021-08-14T10:54:01Z</time>
      </trkpt>
      <trkpt lat="47.70759" lon="-3.46261">
        <ele>9.6</ele>
        <time>2021-08-14T10:54:02Z</time>
      </trkpt>
      <trkpt lat="47.70758" lon="-3.46253">
        <ele>9.4</ele>
        <time>2021-08-14T10:54:03Z</time>
      </trkpt>
      <trkpt lat="47.70756" lon="-3.46244">
        <ele>9.4</ele>
        <time>2021-08-14T10:54:04Z</time>
      </trkpt>
      <trkpt lat="47.70755" lon="-3.46236">
        <ele>9.4</ele>
        <time>2021-08-14T10:54:05Z</time>
      </trkpt>
      <trkpt lat="47.70753" lon="-3.46227">
        <ele>9.4</ele>
        <time>2021-08-14T10:54:06Z</time>
      </trkpt>
      <trkpt lat="47.70752" lon="-3.46218">
        <ele>9.2</ele>
        <time>2021-08-14T10:54:07Z</time>
      </trkpt>
      <trkpt lat="47.70751" lon="-3.4621">
        <ele>9.2</ele>
        <time>2021-08-14T10:54:08Z</time>
      </trkpt>
      <trkpt lat="47.7075" lon="-3.46201">
        <ele>9</ele>
        <time>2021-08-14T10:54:09Z</time>
      </trkpt>
      <trkpt lat="47.70749" lon="-3.46192">
        <ele>9</ele>
        <time>2021-08-14T10:54:10Z</time>
      </trkpt>
      <trkpt lat="47.70748" lon="-3.46183">
        <ele>9</ele>
        <time>2021-08-14T10:54:11Z</time>
      </trkpt>
      <trkpt lat="47.70747" lon="-3.46174">
        <ele>8.8</ele>
        <time>2021-08-14T10:54:12Z</time>
      </trkpt>
      <trkpt lat="47.70746" lon="-3.46165">
        <ele>8.8</ele>
        <time>2021-08-14T10:54:13Z</time>
      </trkpt>
      <trkpt lat="47.70745" lon="-3.46156">
        <ele>8.6</ele>
        <time>2021-08-14T10:54:14Z</time>
      </trkpt>
      <trkpt lat="47.70744" lon="-3.46147">
        <ele>8.6</ele>
        <time>2021-08-14T10:54:15Z</time>
      </trkpt>
      <trkpt lat="47.70743" lon="-3.46137">
        <ele>8.6</ele>
        <time>2021-08-14T10:54:16Z</time>
      </trkpt>
      <trkpt lat="47.70742" lon="-3.46128">
        <ele>8.6</ele>
        <time>2021-08-14T10:54:17Z</time>
      </trkpt>
      <trkpt lat="47.70741" lon="-3.46119">
        <ele>8.4</ele>
        <time>2021-08-14T10:54:18Z</time>
      </trkpt>
      <trkpt lat="47.7074" lon="-3.4611">
        <ele>8.4</ele>
        <time>2021-08-14T10:54:19Z</time>
      </trkpt>
      <trkpt lat="47.70739" lon="-3.46101">
        <ele>8.2</ele>
        <time>2021-08-14T10:54:20Z</time>
      </trkpt>
      <trkpt lat="47.70739" lon="-3.46091">
        <ele>8</ele>
        <time>2021-08-14T10:54:21Z</time>
      </trkpt>
      <trkpt lat="47.70738" lon="-3.46082">
        <ele>7.8</ele>
        <time>2021-08-14T10:54:22Z</time>
      </trkpt>
      <trkpt lat="47.70737" lon="-3.46073">
        <ele>7.8</ele>
        <time>2021-08-14T10:54:23Z</time>
      </trkpt>
      <trkpt lat="47.70737" lon="-3.46063">
        <ele>7.6</ele>
        <time>2021-08-14T10:54:24Z</time>
      </trkpt>
      <trkpt lat="47.70736" lon="-3.46054">
        <ele>7.6</ele>
        <time>2021-08-14T10:54:25Z</time>
      </trkpt>
      <trkpt lat="47.70736" lon="-3.46045">
        <ele>7.4</ele>
        <time>2021-08-14T10:54:26Z</time>
      </trkpt>
      <trkpt lat="47.70735" lon="-3.46035">
        <ele>7.4</ele>
        <time>2021-08-14T10:54:27Z</time>
      </trkpt>
      <trkpt lat="47.70735" lon="-3.46026">
        <ele>7.4</ele>
        <time>2021-08-14T10:54:28Z</time>
      </trkpt>
      <trkpt lat="47.70735" lon="-3.46017">
        <ele>7.4</ele>
        <time>2021-08-14T10:54:29Z</time>
      </trkpt>
      <trkpt lat="47.70734" lon="-3.46008">
        <ele>7.4</ele>
        <time>2021-08-14T10:54:30Z</time>
      </trkpt>
      <trkpt lat="47.70734" lon="-3.45999">
        <ele>7.2</ele>
        <time>2021-08-14T10:54:31Z</time>
      </trkpt>
      <trkpt lat="47.70734" lon="-3.4599">
        <ele>7.2</ele>
        <time>2021-08-14T10:54:32Z</time>
      </trkpt>
      <trkpt lat="47.70733" lon="-3.45981">
        <ele>7.2</ele>
        <time>2021-08-14T10:54:33Z</time>
      </trkpt>
      <trkpt lat="47.70733" lon="-3.45972">
        <ele>7.2</ele>
        <time>2021-08-14T10:54:34Z</time>
      </trkpt>
      <trkpt lat="47.70733" lon="-3.45963">
        <ele>7.2</ele>
        <time>2021-08-14T10:54:35Z</time>
      </trkpt>
      <trkpt lat="47.70733" lon="-3.45954">
        <ele>7.2</ele>
        <time>2021-08-14T10:54:36Z</time>
      </trkpt>
      <trkpt lat="47.70733" lon="-3.45946">
        <ele>7.2</ele>
        <time>2021-08-14T10:54:37Z</time>
      </trkpt>
      <trkpt lat="47.70733" lon="-3.45937">
        <ele>7.2</ele>
        <time>2021-08-14T10:54:38Z</time>
      </trkpt>
      <trkpt lat="47.70733" lon="-3.45928">
        <ele>7.2</ele>
        <time>2021-08-14T10:54:39Z</time>
      </trkpt>
      <trkpt lat="47.70733" lon="-3.45919">
        <ele>7.2</ele>
        <time>2021-08-14T10:54:40Z</time>
      </trkpt>
      <trkpt lat="47.70733" lon="-3.4591">
        <ele>7.2</ele>
        <time>2021-08-14T10:54:41Z</time>
      </trkpt>
      <trkpt lat="47.70733" lon="-3.45901">
        <ele>7.2</ele>
        <time>2021-08-14T10:54:42Z</time>
      </trkpt>
      <trkpt lat="47.70733" lon="-3.45893">
        <ele>7.2</ele>
        <time>2021-08-14T10:54:43Z</time>
      </trkpt>
      <trkpt lat="47.70734" lon="-3.45884">
        <ele>7.2</ele>
        <time>2021-08-14T10:54:44Z</time>
      </trkpt>
      <trkpt lat="47.70734" lon="-3.45875">
        <ele>7.2</ele>
        <time>2021-08-14T10:54:45Z</time>
      </trkpt>
      <trkpt lat="47.70734" lon="-3.45866">
        <ele>7.2</ele>
        <time>2021-08-14T10:54:46Z</time>
      </trkpt>
      <trkpt lat="47.70735" lon="-3.45857">
        <ele>7.2</ele>
        <time>2021-08-14T10:54:47Z</time>
      </trkpt>
      <trkpt lat="47.70735" lon="-3.45849">
        <ele>7.2</ele>
        <time>2021-08-14T10:54:48Z</time>
      </trkpt>
      <trkpt lat="47.70735" lon="-3.4584">
        <ele>7.2</ele>
        <time>2021-08-14T10:54:49Z</time>
      </trkpt>
      <trkpt lat="47.70736" lon="-3.45832">
        <ele>7.2</ele>
        <time>2021-08-14T10:54:50Z</time>
      </trkpt>
      <trkpt lat="47.70736" lon="-3.45823">
        <ele>7.2</ele>
        <time>2021-08-14T10:54:51Z</time>
      </trkpt>
      <trkpt lat="47.70737" lon="-3.45814">
        <ele>7.2</ele>
        <time>2021-08-14T10:54:52Z</time>
      </trkpt>
      <trkpt lat="47.70738" lon="-3.45805">
        <ele>7.2</ele>
        <time>2021-08-14T10:54:53Z</time>
      </trkpt>
      <trkpt lat="47.70738" lon="-3.45796">
        <ele>7.2</ele>
        <time>2021-08-14T10:54:54Z</time>
      </trkpt>
      <trkpt lat="47.70739" lon="-3.45788">
        <ele>7.2</ele>
        <time>2021-08-14T10:54:55Z</time>
      </trkpt>
      <trkpt lat="47.7074" lon="-3.45779">
        <ele>7.4</ele>
        <time>2021-08-14T10:54:56Z</time>
      </trkpt>
      <trkpt lat="47.7074" lon="-3.4577">
        <ele>7.4</ele>
        <time>2021-08-14T10:54:57Z</time>
      </trkpt>
      <trkpt lat="47.70741" lon="-3.45761">
        <ele>7.4</ele>
        <time>2021-08-14T10:54:58Z</time>
      </trkpt>
      <trkpt lat="47.70742" lon="-3.45752">
        <ele>7.4</ele>
        <time>2021-08-14T10:54:59Z</time>
      </trkpt>
      <trkpt lat="47.70742" lon="-3.45743">
        <ele>7.4</ele>
        <time>2021-08-14T10:55:00Z</time>
      </trkpt>
      <trkpt lat="47.70743" lon="-3.45734">
        <ele>7.6</ele>
        <time>2021-08-14T10:55:01Z</time>
      </trkpt>
      <trkpt lat="47.70744" lon="-3.45724">
        <ele>7.6</ele>
        <time>2021-08-14T10:55:02Z</time>
      </trkpt>
      <trkpt lat="47.70746" lon="-3.45715">
        <ele>7.6</ele>
        <time>2021-08-14T10:55:03Z</time>
      </trkpt>
      <trkpt lat="47.70747" lon="-3.45706">
        <ele>7.8</ele>
        <time>2021-08-14T10:55:04Z</time>
      </trkpt>
      <trkpt lat="47.70747" lon="-3.45697">
        <ele>7.8</ele>
        <time>2021-08-14T10:55:05Z</time>
      </trkpt>
      <trkpt lat="47.70748" lon="-3.45689">
        <ele>8</ele>
        <time>2021-08-14T10:55:06Z</time>
      </trkpt>
      <trkpt lat="47.7075" lon="-3.4568">
        <ele>8.2</ele>
        <time>2021-08-14T10:55:07Z</time>
      </trkpt>
      <trkpt lat="47.70751" lon="-3.45672">
        <ele>8.2</ele>
        <time>2021-08-14T10:55:08Z</time>
      </trkpt>
      <trkpt lat="47.70751" lon="-3.45663">
        <ele>8.2</ele>
        <time>2021-08-14T10:55:09Z</time>
      </trkpt>
      <trkpt lat="47.70752" lon="-3.45655">
        <ele>8.2</ele>
        <time>2021-08-14T10:55:10Z</time>
      </trkpt>
      <trkpt lat="47.70753" lon="-3.45646">
        <ele>8.4</ele>
        <time>2021-08-14T10:55:11Z</time>
      </trkpt>
      <trkpt lat="47.70754" lon="-3.45638">
        <ele>8.4</ele>
        <time>2021-08-14T10:55:12Z</time>
      </trkpt>
      <trkpt lat="47.70755" lon="-3.4563">
        <ele>8.4</ele>
        <time>2021-08-14T10:55:13Z</time>
      </trkpt>
      <trkpt lat="47.70756" lon="-3.45621">
        <ele>8.4</ele>
        <time>2021-08-14T10:55:14Z</time>
      </trkpt>
      <trkpt lat="47.70757" lon="-3.45613">
        <ele>8.4</ele>
        <time>2021-08-14T10:55:15Z</time>
      </trkpt>
      <trkpt lat="47.70759" lon="-3.45605">
        <ele>8.4</ele>
        <time>2021-08-14T10:55:16Z</time>
      </trkpt>
      <trkpt lat="47.7076" lon="-3.45597">
        <ele>8.4</ele>
        <time>2021-08-14T10:55:17Z</time>
      </trkpt>
      <trkpt lat="47.7076" lon="-3.45589">
        <ele>8.4</ele>
        <time>2021-08-14T10:55:18Z</time>
      </trkpt>
      <trkpt lat="47.70761" lon="-3.45581">
        <ele>8.4</ele>
        <time>2021-08-14T10:55:19Z</time>
      </trkpt>
      <trkpt lat="47.70762" lon="-3.45573">
        <ele>8.4</ele>
        <time>2021-08-14T10:55:20Z</time>
      </trkpt>
      <trkpt lat="47.70763" lon="-3.45565">
        <ele>8.4</ele>
        <time>2021-08-14T10:55:21Z</time>
      </trkpt>
      <trkpt lat="47.70764" lon="-3.45557">
        <ele>8.4</ele>
        <time>2021-08-14T10:55:22Z</time>
      </trkpt>
      <trkpt lat="47.70765" lon="-3.45549">
        <ele>8.4</ele>
        <time>2021-08-14T10:55:23Z</time>
      </trkpt>
      <trkpt lat="47.70766" lon="-3.45541">
        <ele>8.4</ele>
        <time>2021-08-14T10:55:24Z</time>
      </trkpt>
      <trkpt lat="47.70767" lon="-3.45533">
        <ele>8.6</ele>
        <time>2021-08-14T10:55:25Z</time>
      </trkpt>
      <trkpt lat="47.70768" lon="-3.45526">
        <ele>8.6</ele>
        <time>2021-08-14T10:55:26Z</time>
      </trkpt>
      <trkpt lat="47.70769" lon="-3.45518">
        <ele>8.6</ele>
        <time>2021-08-14T10:55:27Z</time>
      </trkpt>
      <trkpt lat="47.7077" lon="-3.4551">
        <ele>8.6</ele>
        <time>2021-08-14T10:55:28Z</time>
      </trkpt>
      <trkpt lat="47.70771" lon="-3.45503">
        <ele>8.6</ele>
        <time>2021-08-14T10:55:29Z</time>
      </trkpt>
      <trkpt lat="47.70772" lon="-3.45495">
        <ele>8.6</ele>
        <time>2021-08-14T10:55:30Z</time>
      </trkpt>
      <trkpt lat="47.70773" lon="-3.45487">
        <ele>8.6</ele>
        <time>2021-08-14T10:55:31Z</time>
      </trkpt>
      <trkpt lat="47.70774" lon="-3.4548">
        <ele>8.6</ele>
        <time>2021-08-14T10:55:32Z</time>
      </trkpt>
      <trkpt lat="47.70775" lon="-3.45472">
        <ele>8.6</ele>
        <time>2021-08-14T10:55:33Z</time>
      </trkpt>
      <trkpt lat="47.70776" lon="-3.45464">
        <ele>8.6</ele>
        <time>2021-08-14T10:55:34Z</time>
      </trkpt>
      <trkpt lat="47.70777" lon="-3.45456">
        <ele>8.8</ele>
        <time>2021-08-14T10:55:35Z</time>
      </trkpt>
      <trkpt lat="47.70778" lon="-3.45449">
        <ele>8.8</ele>
        <time>2021-08-14T10:55:36Z</time>
      </trkpt>
      <trkpt lat="47.70779" lon="-3.45441">
        <ele>8.8</ele>
        <time>2021-08-14T10:55:37Z</time>
      </trkpt>
      <trkpt lat="47.7078" lon="-3.45433">
        <ele>9</ele>
        <time>2021-08-14T10:55:38Z</time>
      </trkpt>
      <trkpt lat="47.70781" lon="-3.45425">
        <ele>9.2</ele>
        <time>2021-08-14T10:55:39Z</time>
      </trkpt>
      <trkpt lat="47.70782" lon="-3.45417">
        <ele>9.4</ele>
        <time>2021-08-14T10:55:40Z</time>
      </trkpt>
      <trkpt lat="47.70783" lon="-3.4541">
        <ele>9.4</ele>
        <time>2021-08-14T10:55:41Z</time>
      </trkpt>
      <trkpt lat="47.70784" lon="-3.45402">
        <ele>9.6</ele>
        <time>2021-08-14T10:55:42Z</time>
      </trkpt>
      <trkpt lat="47.70785" lon="-3.45395">
        <ele>9.6</ele>
        <time>2021-08-14T10:55:43Z</time>
      </trkpt>
      <trkpt lat="47.70786" lon="-3.45387">
        <ele>9.6</ele>
        <time>2021-08-14T10:55:44Z</time>
      </trkpt>
      <trkpt lat="47.70786" lon="-3.45379">
        <ele>9.8</ele>
        <time>2021-08-14T10:55:45Z</time>
      </trkpt>
      <trkpt lat="47.70787" lon="-3.45372">
        <ele>9.8</ele>
        <time>2021-08-14T10:55:46Z</time>
      </trkpt>
      <trkpt lat="47.70788" lon="-3.45364">
        <ele>9.8</ele>
        <time>2021-08-14T10:55:47Z</time>
      </trkpt>
      <trkpt lat="47.70789" lon="-3.45356">
        <ele>9.8</ele>
        <time>2021-08-14T10:55:48Z</time>
      </trkpt>
      <trkpt lat="47.7079" lon="-3.45349">
        <ele>9.8</ele>
        <time>2021-08-14T10:55:49Z</time>
      </trkpt>
      <trkpt lat="47.70791" lon="-3.45341">
        <ele>10</ele>
        <time>2021-08-14T10:55:50Z</time>
      </trkpt>
      <trkpt lat="47.70792" lon="-3.45333">
        <ele>10</ele>
        <time>2021-08-14T10:55:51Z</time>
      </trkpt>
      <trkpt lat="47.70793" lon="-3.45325">
        <ele>10.2</ele>
        <time>2021-08-14T10:55:52Z</time>
      </trkpt>
      <trkpt lat="47.70794" lon="-3.45318">
        <ele>10.2</ele>
        <time>2021-08-14T10:55:53Z</time>
      </trkpt>
      <trkpt lat="47.70795" lon="-3.4531">
        <ele>10.4</ele>
        <time>2021-08-14T10:55:54Z</time>
      </trkpt>
      <trkpt lat="47.70796" lon="-3.45302">
        <ele>10.4</ele>
        <time>2021-08-14T10:55:55Z</time>
      </trkpt>
      <trkpt lat="47.70797" lon="-3.45294">
        <ele>10.4</ele>
        <time>2021-08-14T10:55:56Z</time>
      </trkpt>
      <trkpt lat="47.70798" lon="-3.45287">
        <ele>10.4</ele>
        <time>2021-08-14T10:55:57Z</time>
      </trkpt>
      <trkpt lat="47.70799" lon="-3.45279">
        <ele>10.6</ele>
        <time>2021-08-14T10:55:58Z</time>
      </trkpt>
      <trkpt lat="47.708" lon="-3.45271">
        <ele>10.6</ele>
        <time>2021-08-14T10:55:59Z</time>
      </trkpt>
      <trkpt lat="47.70801" lon="-3.45264">
        <ele>10.6</ele>
        <time>2021-08-14T10:56:00Z</time>
      </trkpt>
      <trkpt lat="47.70802" lon="-3.45256">
        <ele>10.6</ele>
        <time>2021-08-14T10:56:01Z</time>
      </trkpt>
      <trkpt lat="47.70803" lon="-3.45249">
        <ele>10.6</ele>
        <time>2021-08-14T10:56:02Z</time>
      </trkpt>
      <trkpt lat="47.70804" lon="-3.45241">
        <ele>10.6</ele>
        <time>2021-08-14T10:56:03Z</time>
      </trkpt>
      <trkpt lat="47.70805" lon="-3.45233">
        <ele>10.6</ele>
        <time>2021-08-14T10:56:04Z</time>
      </trkpt>
      <trkpt lat="47.70805" lon="-3.45226">
        <ele>10.6</ele>
        <time>2021-08-14T10:56:05Z</time>
      </trkpt>
      <trkpt lat="47.70806" lon="-3.45218">
        <ele>10.8</ele>
        <time>2021-08-14T10:56:06Z</time>
      </trkpt>
      <trkpt lat="47.70807" lon="-3.45211">
        <ele>10.8</ele>
        <time>2021-08-14T10:56:07Z</time>
      </trkpt>
      <trkpt lat="47.70808" lon="-3.45203">
        <ele>10.8</ele>
        <time>2021-08-14T10:56:08Z</time>
      </trkpt>
      <trkpt lat="47.70809" lon="-3.45195">
        <ele>10.8</ele>
        <time>2021-08-14T10:56:09Z</time>
      </trkpt>
      <trkpt lat="47.7081" lon="-3.45188">
        <ele>10.8</ele>
        <time>2021-08-14T10:56:10Z</time>
      </trkpt>
      <trkpt lat="47.70811" lon="-3.4518">
        <ele>10.8</ele>
        <time>2021-08-14T10:56:11Z</time>
      </trkpt>
      <trkpt lat="47.70812" lon="-3.45172">
        <ele>10.8</ele>
        <time>2021-08-14T10:56:12Z</time>
      </trkpt>
      <trkpt lat="47.70813" lon="-3.45165">
        <ele>11</ele>
        <time>2021-08-14T10:56:13Z</time>
      </trkpt>
      <trkpt lat="47.70814" lon="-3.45157">
        <ele>11</ele>
        <time>2021-08-14T10:56:14Z</time>
      </trkpt>
      <trkpt lat="47.70815" lon="-3.45149">
        <ele>11</ele>
        <time>2021-08-14T10:56:15Z</time>
      </trkpt>
      <trkpt lat="47.70816" lon="-3.45141">
        <ele>11.2</ele>
        <time>2021-08-14T10:56:16Z</time>
      </trkpt>
      <trkpt lat="47.70817" lon="-3.45134">
        <ele>11.4</ele>
        <time>2021-08-14T10:56:17Z</time>
      </trkpt>
      <trkpt lat="47.70818" lon="-3.45126">
        <ele>11.4</ele>
        <time>2021-08-14T10:56:18Z</time>
      </trkpt>
      <trkpt lat="47.70819" lon="-3.45118">
        <ele>11.4</ele>
        <time>2021-08-14T10:56:19Z</time>
      </trkpt>
      <trkpt lat="47.7082" lon="-3.4511">
        <ele>11.6</ele>
        <time>2021-08-14T10:56:20Z</time>
      </trkpt>
      <trkpt lat="47.70821" lon="-3.45103">
        <ele>11.6</ele>
        <time>2021-08-14T10:56:21Z</time>
      </trkpt>
      <trkpt lat="47.70822" lon="-3.45095">
        <ele>11.6</ele>
        <time>2021-08-14T10:56:22Z</time>
      </trkpt>
      <trkpt lat="47.70823" lon="-3.45087">
        <ele>11.8</ele>
        <time>2021-08-14T10:56:23Z</time>
      </trkpt>
      <trkpt lat="47.70824" lon="-3.4508">
        <ele>11.8</ele>
        <time>2021-08-14T10:56:24Z</time>
      </trkpt>
      <trkpt lat="47.70825" lon="-3.45072">
        <ele>12</ele>
        <time>2021-08-14T10:56:25Z</time>
      </trkpt>
      <trkpt lat="47.70825" lon="-3.45064">
        <ele>12</ele>
        <time>2021-08-14T10:56:26Z</time>
      </trkpt>
      <trkpt lat="47.70826" lon="-3.45057">
        <ele>12.2</ele>
        <time>2021-08-14T10:56:27Z</time>
      </trkpt>
      <trkpt lat="47.70827" lon="-3.45049">
        <ele>12.2</ele>
        <time>2021-08-14T10:56:28Z</time>
      </trkpt>
      <trkpt lat="47.70828" lon="-3.45041">
        <ele>12.4</ele>
        <time>2021-08-14T10:56:29Z</time>
      </trkpt>
      <trkpt lat="47.70829" lon="-3.45034">
        <ele>12.4</ele>
        <time>2021-08-14T10:56:30Z</time>
      </trkpt>
      <trkpt lat="47.7083" lon="-3.45026">
        <ele>12.4</ele>
        <time>2021-08-14T10:56:31Z</time>
      </trkpt>
      <trkpt lat="47.70831" lon="-3.45019">
        <ele>12.4</ele>
        <time>2021-08-14T10:56:32Z</time>
      </trkpt>
      <trkpt lat="47.70831" lon="-3.45011">
        <ele>12.4</ele>
        <time>2021-08-14T10:56:33Z</time>
      </trkpt>
      <trkpt lat="47.70831" lon="-3.45004">
        <ele>12.4</ele>
        <time>2021-08-14T10:56:34Z</time>
      </trkpt>
      <trkpt lat="47.70832" lon="-3.44996">
        <ele>12.4</ele>
        <time>2021-08-14T10:56:35Z</time>
      </trkpt>
      <trkpt lat="47.70833" lon="-3.44988">
        <ele>12.8</ele>
        <time>2021-08-14T10:56:36Z</time>
      </trkpt>
      <trkpt lat="47.70834" lon="-3.44981">
        <ele>12.8</ele>
        <time>2021-08-14T10:56:37Z</time>
      </trkpt>
      <trkpt lat="47.70835" lon="-3.44974">
        <ele>13</ele>
        <time>2021-08-14T10:56:38Z</time>
      </trkpt>
      <trkpt lat="47.70835" lon="-3.44966">
        <ele>13</ele>
        <time>2021-08-14T10:56:39Z</time>
      </trkpt>
      <trkpt lat="47.70836" lon="-3.44958">
        <ele>13.2</ele>
        <time>2021-08-14T10:56:40Z</time>
      </trkpt>
      <trkpt lat="47.70837" lon="-3.44951">
        <ele>13.2</ele>
        <time>2021-08-14T10:56:41Z</time>
      </trkpt>
      <trkpt lat="47.70838" lon="-3.44943">
        <ele>13.2</ele>
        <time>2021-08-14T10:56:42Z</time>
      </trkpt>
      <trkpt lat="47.70839" lon="-3.44936">
        <ele>13.2</ele>
        <time>2021-08-14T10:56:43Z</time>
      </trkpt>
      <trkpt lat="47.7084" lon="-3.44928">
        <ele>13.2</ele>
        <time>2021-08-14T10:56:44Z</time>
      </trkpt>
      <trkpt lat="47.7084" lon="-3.44921">
        <ele>13.2</ele>
        <time>2021-08-14T10:56:45Z</time>
      </trkpt>
      <trkpt lat="47.70841" lon="-3.44914">
        <ele>13.4</ele>
        <time>2021-08-14T10:56:46Z</time>
      </trkpt>
      <trkpt lat="47.70842" lon="-3.44907">
        <ele>13.6</ele>
        <time>2021-08-14T10:56:47Z</time>
      </trkpt>
      <trkpt lat="47.70844" lon="-3.449">
        <ele>13.6</ele>
        <time>2021-08-14T10:56:48Z</time>
      </trkpt>
      <trkpt lat="47.70844" lon="-3.44892">
        <ele>13.6</ele>
        <time>2021-08-14T10:56:49Z</time>
      </trkpt>
      <trkpt lat="47.70845" lon="-3.44885">
        <ele>13.8</ele>
        <time>2021-08-14T10:56:50Z</time>
      </trkpt>
      <trkpt lat="47.70846" lon="-3.44878">
        <ele>13.8</ele>
        <time>2021-08-14T10:56:51Z</time>
      </trkpt>
      <trkpt lat="47.70847" lon="-3.4487">
        <ele>13.8</ele>
        <time>2021-08-14T10:56:52Z</time>
      </trkpt>
      <trkpt lat="47.70848" lon="-3.44863">
        <ele>13.8</ele>
        <time>2021-08-14T10:56:53Z</time>
      </trkpt>
      <trkpt lat="47.70849" lon="-3.44856">
        <ele>13.8</ele>
        <time>2021-08-14T10:56:54Z</time>
      </trkpt>
      <trkpt lat="47.7085" lon="-3.44849">
        <ele>13.8</ele>
        <time>2021-08-14T10:56:55Z</time>
      </trkpt>
      <trkpt lat="47.70851" lon="-3.44842">
        <ele>13.8</ele>
        <time>2021-08-14T10:56:56Z</time>
      </trkpt>
      <trkpt lat="47.70852" lon="-3.44836">
        <ele>13.8</ele>
        <time>2021-08-14T10:56:57Z</time>
      </trkpt>
      <trkpt lat="47.70853" lon="-3.44829">
        <ele>13.8</ele>
        <time>2021-08-14T10:56:58Z</time>
      </trkpt>
      <trkpt lat="47.70854" lon="-3.44823">
        <ele>14</ele>
        <time>2021-08-14T10:56:59Z</time>
      </trkpt>
      <trkpt lat="47.70855" lon="-3.44817">
        <ele>14</ele>
        <time>2021-08-14T10:57:00Z</time>
      </trkpt>
      <trkpt lat="47.70856" lon="-3.44811">
        <ele>14.2</ele>
        <time>2021-08-14T10:57:01Z</time>
      </trkpt>
      <trkpt lat="47.70857" lon="-3.44805">
        <ele>14.2</ele>
        <time>2021-08-14T10:57:02Z</time>
      </trkpt>
      <trkpt lat="47.70858" lon="-3.44799">
        <ele>14.4</ele>
        <time>2021-08-14T10:57:03Z</time>
      </trkpt>
      <trkpt lat="47.70858" lon="-3.44793">
        <ele>14.4</ele>
        <time>2021-08-14T10:57:04Z</time>
      </trkpt>
      <trkpt lat="47.70859" lon="-3.44787">
        <ele>14.4</ele>
        <time>2021-08-14T10:57:05Z</time>
      </trkpt>
      <trkpt lat="47.7086" lon="-3.44781">
        <ele>14.6</ele>
        <time>2021-08-14T10:57:06Z</time>
      </trkpt>
      <trkpt lat="47.7086" lon="-3.44775">
        <ele>14.6</ele>
        <time>2021-08-14T10:57:07Z</time>
      </trkpt>
      <trkpt lat="47.70861" lon="-3.44769">
        <ele>14.6</ele>
        <time>2021-08-14T10:57:08Z</time>
      </trkpt>
      <trkpt lat="47.70862" lon="-3.44764">
        <ele>14.6</ele>
        <time>2021-08-14T10:57:09Z</time>
      </trkpt>
      <trkpt lat="47.70862" lon="-3.44758">
        <ele>14.6</ele>
        <time>2021-08-14T10:57:10Z</time>
      </trkpt>
      <trkpt lat="47.70863" lon="-3.44753">
        <ele>14.8</ele>
        <time>2021-08-14T10:57:11Z</time>
      </trkpt>
      <trkpt lat="47.70863" lon="-3.44747">
        <ele>14.8</ele>
        <time>2021-08-14T10:57:12Z</time>
      </trkpt>
      <trkpt lat="47.70863" lon="-3.44742">
        <ele>14.8</ele>
        <time>2021-08-14T10:57:13Z</time>
      </trkpt>
      <trkpt lat="47.70863" lon="-3.44737">
        <ele>14.8</ele>
        <time>2021-08-14T10:57:14Z</time>
      </trkpt>
      <trkpt lat="47.70863" lon="-3.44733">
        <ele>14.8</ele>
        <time>2021-08-14T10:57:15Z</time>
      </trkpt>
      <trkpt lat="47.70864" lon="-3.44729">
        <ele>14.8</ele>
        <time>2021-08-14T10:57:16Z</time>
      </trkpt>
      <trkpt lat="47.70864" lon="-3.44725">
        <ele>14.8</ele>
        <time>2021-08-14T10:57:17Z</time>
      </trkpt>
      <trkpt lat="47.70864" lon="-3.44722">
        <ele>14.8</ele>
        <time>2021-08-14T10:57:18Z</time>
      </trkpt>
      <trkpt lat="47.70864" lon="-3.44719">
        <ele>15</ele>
        <time>2021-08-14T10:57:19Z</time>
      </trkpt>
      <trkpt lat="47.70865" lon="-3.44716">
        <ele>15</ele>
        <time>2021-08-14T10:57:20Z</time>
      </trkpt>
      <trkpt lat="47.70865" lon="-3.44713">
        <ele>15.2</ele>
        <time>2021-08-14T10:57:21Z</time>
      </trkpt>
      <trkpt lat="47.70865" lon="-3.44712">
        <ele>15.4</ele>
        <time>2021-08-14T10:57:22Z</time>
      </trkpt>
      <trkpt lat="47.70865" lon="-3.44711">
        <ele>15.4</ele>
        <time>2021-08-14T10:57:23Z</time>
      </trkpt>
      <trkpt lat="47.70865" lon="-3.44711">
        <ele>15.4</ele>
        <time>2021-08-14T10:57:24Z</time>
      </trkpt>
      <trkpt lat="47.70869" lon="-3.44708">
        <ele>15.6</ele>
        <time>2021-08-14T11:01:39Z</time>
      </trkpt>
      <trkpt lat="47.70869" lon="-3.44705">
        <ele>15.6</ele>
        <time>2021-08-14T11:01:40Z</time>
      </trkpt>
      <trkpt lat="47.70869" lon="-3.44701">
        <ele>15.6</ele>
        <time>2021-08-14T11:01:41Z</time>
      </trkpt>
      <trkpt lat="47.7087" lon="-3.44695">
        <ele>15.6</ele>
        <time>2021-08-14T11:01:42Z</time>
      </trkpt>
      <trkpt lat="47.70871" lon="-3.4469">
        <ele>15.6</ele>
        <time>2021-08-14T11:01:43Z</time>
      </trkpt>
      <trkpt lat="47.70872" lon="-3.44683">
        <ele>15.6</ele>
        <time>2021-08-14T11:01:44Z</time>
      </trkpt>
      <trkpt lat="47.70873" lon="-3.44676">
        <ele>15.6</ele>
        <time>2021-08-14T11:01:45Z</time>
      </trkpt>
      <trkpt lat="47.70874" lon="-3.44669">
        <ele>15.6</ele>
        <time>2021-08-14T11:01:46Z</time>
      </trkpt>
      <trkpt lat="47.70875" lon="-3.44661">
        <ele>15.6</ele>
        <time>2021-08-14T11:01:47Z</time>
      </trkpt>
      <trkpt lat="47.70875" lon="-3.44654">
        <ele>15.6</ele>
        <time>2021-08-14T11:01:48Z</time>
      </trkpt>
      <trkpt lat="47.70876" lon="-3.44646">
        <ele>15.6</ele>
        <time>2021-08-14T11:01:49Z</time>
      </trkpt>
      <trkpt lat="47.70876" lon="-3.44639">
        <ele>15.6</ele>
        <time>2021-08-14T11:01:50Z</time>
      </trkpt>
      <trkpt lat="47.70877" lon="-3.44632">
        <ele>15.6</ele>
        <time>2021-08-14T11:01:51Z</time>
      </trkpt>
      <trkpt lat="47.70878" lon="-3.44625">
        <ele>15.6</ele>
        <time>2021-08-14T11:01:52Z</time>
      </trkpt>
      <trkpt lat="47.70879" lon="-3.44617">
        <ele>15.6</ele>
        <time>2021-08-14T11:01:53Z</time>
      </trkpt>
      <trkpt lat="47.7088" lon="-3.4461">
        <ele>15.6</ele>
        <time>2021-08-14T11:01:54Z</time>
      </trkpt>
      <trkpt lat="47.70881" lon="-3.44602">
        <ele>15.6</ele>
        <time>2021-08-14T11:01:55Z</time>
      </trkpt>
      <trkpt lat="47.70882" lon="-3.44595">
        <ele>15.6</ele>
        <time>2021-08-14T11:01:56Z</time>
      </trkpt>
      <trkpt lat="47.70883" lon="-3.44587">
        <ele>15.6</ele>
        <time>2021-08-14T11:01:57Z</time>
      </trkpt>
      <trkpt lat="47.70884" lon="-3.4458">
        <ele>15.6</ele>
        <time>2021-08-14T11:01:58Z</time>
      </trkpt>
      <trkpt lat="47.70885" lon="-3.44572">
        <ele>15.6</ele>
        <time>2021-08-14T11:01:59Z</time>
      </trkpt>
      <trkpt lat="47.70886" lon="-3.44565">
        <ele>15.6</ele>
        <time>2021-08-14T11:02:00Z</time>
      </trkpt>
      <trkpt lat="47.70887" lon="-3.44558">
        <ele>15.6</ele>
        <time>2021-08-14T11:02:01Z</time>
      </trkpt>
      <trkpt lat="47.70888" lon="-3.4455">
        <ele>15.8</ele>
        <time>2021-08-14T11:02:02Z</time>
      </trkpt>
      <trkpt lat="47.70888" lon="-3.44543">
        <ele>15.8</ele>
        <time>2021-08-14T11:02:03Z</time>
      </trkpt>
      <trkpt lat="47.70889" lon="-3.44535">
        <ele>15.8</ele>
        <time>2021-08-14T11:02:04Z</time>
      </trkpt>
      <trkpt lat="47.7089" lon="-3.44527">
        <ele>15.8</ele>
        <time>2021-08-14T11:02:05Z</time>
      </trkpt>
      <trkpt lat="47.70891" lon="-3.4452">
        <ele>15.8</ele>
        <time>2021-08-14T11:02:06Z</time>
      </trkpt>
      <trkpt lat="47.70892" lon="-3.44512">
        <ele>15.8</ele>
        <time>2021-08-14T11:02:07Z</time>
      </trkpt>
      <trkpt lat="47.70893" lon="-3.44504">
        <ele>15.8</ele>
        <time>2021-08-14T11:02:08Z</time>
      </trkpt>
      <trkpt lat="47.70894" lon="-3.44495">
        <ele>15.8</ele>
        <time>2021-08-14T11:02:09Z</time>
      </trkpt>
      <trkpt lat="47.70895" lon="-3.44487">
        <ele>15.8</ele>
        <time>2021-08-14T11:02:10Z</time>
      </trkpt>
      <trkpt lat="47.70896" lon="-3.44479">
        <ele>15.8</ele>
        <time>2021-08-14T11:02:11Z</time>
      </trkpt>
      <trkpt lat="47.70897" lon="-3.44471">
        <ele>16</ele>
        <time>2021-08-14T11:02:12Z</time>
      </trkpt>
      <trkpt lat="47.70898" lon="-3.44463">
        <ele>16</ele>
        <time>2021-08-14T11:02:13Z</time>
      </trkpt>
      <trkpt lat="47.70899" lon="-3.44455">
        <ele>16</ele>
        <time>2021-08-14T11:02:14Z</time>
      </trkpt>
      <trkpt lat="47.709" lon="-3.44447">
        <ele>16</ele>
        <time>2021-08-14T11:02:15Z</time>
      </trkpt>
      <trkpt lat="47.70901" lon="-3.44439">
        <ele>16</ele>
        <time>2021-08-14T11:02:16Z</time>
      </trkpt>
      <trkpt lat="47.70901" lon="-3.44432">
        <ele>16</ele>
        <time>2021-08-14T11:02:17Z</time>
      </trkpt>
      <trkpt lat="47.70902" lon="-3.44423">
        <ele>16.2</ele>
        <time>2021-08-14T11:02:18Z</time>
      </trkpt>
      <trkpt lat="47.70903" lon="-3.44415">
        <ele>16.2</ele>
        <time>2021-08-14T11:02:19Z</time>
      </trkpt>
      <trkpt lat="47.70904" lon="-3.44408">
        <ele>16.2</ele>
        <time>2021-08-14T11:02:20Z</time>
      </trkpt>
      <trkpt lat="47.70905" lon="-3.444">
        <ele>16.2</ele>
        <time>2021-08-14T11:02:21Z</time>
      </trkpt>
      <trkpt lat="47.70905" lon="-3.44392">
        <ele>16.2</ele>
        <time>2021-08-14T11:02:22Z</time>
      </trkpt>
      <trkpt lat="47.70907" lon="-3.44384">
        <ele>16.4</ele>
        <time>2021-08-14T11:02:23Z</time>
      </trkpt>
      <trkpt lat="47.70908" lon="-3.44377">
        <ele>16.4</ele>
        <time>2021-08-14T11:02:24Z</time>
      </trkpt>
      <trkpt lat="47.70909" lon="-3.44369">
        <ele>16.4</ele>
        <time>2021-08-14T11:02:25Z</time>
      </trkpt>
      <trkpt lat="47.7091" lon="-3.44362">
        <ele>16.4</ele>
        <time>2021-08-14T11:02:26Z</time>
      </trkpt>
      <trkpt lat="47.70911" lon="-3.44354">
        <ele>16.4</ele>
        <time>2021-08-14T11:02:27Z</time>
      </trkpt>
      <trkpt lat="47.70912" lon="-3.44347">
        <ele>16.4</ele>
        <time>2021-08-14T11:02:28Z</time>
      </trkpt>
      <trkpt lat="47.70913" lon="-3.44339">
        <ele>16.4</ele>
        <time>2021-08-14T11:02:29Z</time>
      </trkpt>
      <trkpt lat="47.70914" lon="-3.44332">
        <ele>16.4</ele>
        <time>2021-08-14T11:02:30Z</time>
      </trkpt>
      <trkpt lat="47.70915" lon="-3.44324">
        <ele>16.4</ele>
        <time>2021-08-14T11:02:31Z</time>
      </trkpt>
      <trkpt lat="47.70916" lon="-3.44316">
        <ele>16.2</ele>
        <time>2021-08-14T11:02:32Z</time>
      </trkpt>
      <trkpt lat="47.70917" lon="-3.44308">
        <ele>16.2</ele>
        <time>2021-08-14T11:02:33Z</time>
      </trkpt>
      <trkpt lat="47.70918" lon="-3.44301">
        <ele>16.2</ele>
        <time>2021-08-14T11:02:34Z</time>
      </trkpt>
      <trkpt lat="47.70919" lon="-3.44293">
        <ele>16.2</ele>
        <time>2021-08-14T11:02:35Z</time>
      </trkpt>
      <trkpt lat="47.7092" lon="-3.44285">
        <ele>16.2</ele>
        <time>2021-08-14T11:02:36Z</time>
      </trkpt>
      <trkpt lat="47.70921" lon="-3.44277">
        <ele>16.2</ele>
        <time>2021-08-14T11:02:37Z</time>
      </trkpt>
      <trkpt lat="47.70922" lon="-3.4427">
        <ele>16.2</ele>
        <time>2021-08-14T11:02:38Z</time>
      </trkpt>
      <trkpt lat="47.70923" lon="-3.44262">
        <ele>16.2</ele>
        <time>2021-08-14T11:02:39Z</time>
      </trkpt>
      <trkpt lat="47.70924" lon="-3.44254">
        <ele>16.2</ele>
        <time>2021-08-14T11:02:40Z</time>
      </trkpt>
      <trkpt lat="47.70925" lon="-3.44246">
        <ele>16.2</ele>
        <time>2021-08-14T11:02:41Z</time>
      </trkpt>
      <trkpt lat="47.70926" lon="-3.44238">
        <ele>16.2</ele>
        <time>2021-08-14T11:02:42Z</time>
      </trkpt>
      <trkpt lat="47.70927" lon="-3.4423">
        <ele>16.2</ele>
        <time>2021-08-14T11:02:43Z</time>
      </trkpt>
      <trkpt lat="47.70928" lon="-3.44222">
        <ele>16.2</ele>
        <time>2021-08-14T11:02:44Z</time>
      </trkpt>
      <trkpt lat="47.70929" lon="-3.44214">
        <ele>16.2</ele>
        <time>2021-08-14T11:02:45Z</time>
      </trkpt>
      <trkpt lat="47.7093" lon="-3.44206">
        <ele>16.2</ele>
        <time>2021-08-14T11:02:46Z</time>
      </trkpt>
      <trkpt lat="47.70931" lon="-3.44197">
        <ele>16.2</ele>
        <time>2021-08-14T11:02:47Z</time>
      </trkpt>
      <trkpt lat="47.70932" lon="-3.44189">
        <ele>16.2</ele>
        <time>2021-08-14T11:02:48Z</time>
      </trkpt>
      <trkpt lat="47.70933" lon="-3.44181">
        <ele>16.2</ele>
        <time>2021-08-14T11:02:49Z</time>
      </trkpt>
      <trkpt lat="47.70934" lon="-3.44173">
        <ele>16.2</ele>
        <time>2021-08-14T11:02:50Z</time>
      </trkpt>
      <trkpt lat="47.70935" lon="-3.44165">
        <ele>16.2</ele>
        <time>2021-08-14T11:02:51Z</time>
      </trkpt>
      <trkpt lat="47.70936" lon="-3.44157">
        <ele>16.2</ele>
        <time>2021-08-14T11:02:52Z</time>
      </trkpt>
      <trkpt lat="47.70937" lon="-3.44148">
        <ele>16.2</ele>
        <time>2021-08-14T11:02:53Z</time>
      </trkpt>
      <trkpt lat="47.70938" lon="-3.4414">
        <ele>16.2</ele>
        <time>2021-08-14T11:02:54Z</time>
      </trkpt>
      <trkpt lat="47.70939" lon="-3.44132">
        <ele>16.2</ele>
        <time>2021-08-14T11:02:55Z</time>
      </trkpt>
      <trkpt lat="47.7094" lon="-3.44123">
        <ele>16.2</ele>
        <time>2021-08-14T11:02:56Z</time>
      </trkpt>
      <trkpt lat="47.70941" lon="-3.44115">
        <ele>16.2</ele>
        <time>2021-08-14T11:02:57Z</time>
      </trkpt>
      <trkpt lat="47.70942" lon="-3.44107">
        <ele>16</ele>
        <time>2021-08-14T11:02:58Z</time>
      </trkpt>
      <trkpt lat="47.70943" lon="-3.44099">
        <ele>16</ele>
        <time>2021-08-14T11:02:59Z</time>
      </trkpt>
      <trkpt lat="47.70944" lon="-3.44091">
        <ele>16</ele>
        <time>2021-08-14T11:03:00Z</time>
      </trkpt>
      <trkpt lat="47.70945" lon="-3.44083">
        <ele>16</ele>
        <time>2021-08-14T11:03:01Z</time>
      </trkpt>
      <trkpt lat="47.70946" lon="-3.44074">
        <ele>15.8</ele>
        <time>2021-08-14T11:03:02Z</time>
      </trkpt>
      <trkpt lat="47.70947" lon="-3.44066">
        <ele>15.8</ele>
        <time>2021-08-14T11:03:03Z</time>
      </trkpt>
      <trkpt lat="47.70948" lon="-3.44057">
        <ele>15.8</ele>
        <time>2021-08-14T11:03:04Z</time>
      </trkpt>
      <trkpt lat="47.70949" lon="-3.44049">
        <ele>15.6</ele>
        <time>2021-08-14T11:03:05Z</time>
      </trkpt>
      <trkpt lat="47.7095" lon="-3.44041">
        <ele>15.6</ele>
        <time>2021-08-14T11:03:06Z</time>
      </trkpt>
      <trkpt lat="47.70951" lon="-3.44032">
        <ele>15.4</ele>
        <time>2021-08-14T11:03:07Z</time>
      </trkpt>
      <trkpt lat="47.70952" lon="-3.44024">
        <ele>15.2</ele>
        <time>2021-08-14T11:03:08Z</time>
      </trkpt>
      <trkpt lat="47.70953" lon="-3.44016">
        <ele>15.2</ele>
        <time>2021-08-14T11:03:09Z</time>
      </trkpt>
      <trkpt lat="47.70954" lon="-3.44008">
        <ele>15.2</ele>
        <time>2021-08-14T11:03:10Z</time>
      </trkpt>
      <trkpt lat="47.70955" lon="-3.43999">
        <ele>15</ele>
        <time>2021-08-14T11:03:11Z</time>
      </trkpt>
      <trkpt lat="47.70956" lon="-3.43991">
        <ele>15</ele>
        <time>2021-08-14T11:03:12Z</time>
      </trkpt>
      <trkpt lat="47.70957" lon="-3.43983">
        <ele>15</ele>
        <time>2021-08-14T11:03:13Z</time>
      </trkpt>
      <trkpt lat="47.70958" lon="-3.43975">
        <ele>14.8</ele>
        <time>2021-08-14T11:03:14Z</time>
      </trkpt>
      <trkpt lat="47.70959" lon="-3.43967">
        <ele>14.8</ele>
        <time>2021-08-14T11:03:15Z</time>
      </trkpt>
      <trkpt lat="47.7096" lon="-3.43959">
        <ele>14.8</ele>
        <time>2021-08-14T11:03:16Z</time>
      </trkpt>
      <trkpt lat="47.7096" lon="-3.43951">
        <ele>14.8</ele>
        <time>2021-08-14T11:03:17Z</time>
      </trkpt>
      <trkpt lat="47.70961" lon="-3.43942">
        <ele>14.8</ele>
        <time>2021-08-14T11:03:18Z</time>
      </trkpt>
      <trkpt lat="47.70962" lon="-3.43934">
        <ele>14.8</ele>
        <time>2021-08-14T11:03:19Z</time>
      </trkpt>
      <trkpt lat="47.70962" lon="-3.43926">
        <ele>14.8</ele>
        <time>2021-08-14T11:03:20Z</time>
      </trkpt>
      <trkpt lat="47.70963" lon="-3.43917">
        <ele>14.8</ele>
        <time>2021-08-14T11:03:21Z</time>
      </trkpt>
      <trkpt lat="47.70964" lon="-3.43909">
        <ele>14.8</ele>
        <time>2021-08-14T11:03:22Z</time>
      </trkpt>
      <trkpt lat="47.70964" lon="-3.43902">
        <ele>14.8</ele>
        <time>2021-08-14T11:03:23Z</time>
      </trkpt>
      <trkpt lat="47.70965" lon="-3.43896">
        <ele>14.8</ele>
        <time>2021-08-14T11:03:24Z</time>
      </trkpt>
      <trkpt lat="47.70964" lon="-3.4389">
        <ele>14.8</ele>
        <time>2021-08-14T11:03:25Z</time>
      </trkpt>
      <trkpt lat="47.70963" lon="-3.43887">
        <ele>14.8</ele>
        <time>2021-08-14T11:03:26Z</time>
      </trkpt>
      <trkpt lat="47.7096" lon="-3.43887">
        <ele>14.8</ele>
        <time>2021-08-14T11:03:27Z</time>
      </trkpt>
      <trkpt lat="47.70957" lon="-3.43889">
        <ele>14.6</ele>
        <time>2021-08-14T11:03:28Z</time>
      </trkpt>
      <trkpt lat="47.70954" lon="-3.43891">
        <ele>14.6</ele>
        <time>2021-08-14T11:03:29Z</time>
      </trkpt>
      <trkpt lat="47.70951" lon="-3.43894">
        <ele>14.6</ele>
        <time>2021-08-14T11:03:30Z</time>
      </trkpt>
      <trkpt lat="47.70948" lon="-3.43897">
        <ele>14.6</ele>
        <time>2021-08-14T11:03:31Z</time>
      </trkpt>
      <trkpt lat="47.70944" lon="-3.43899">
        <ele>14.6</ele>
        <time>2021-08-14T11:03:32Z</time>
      </trkpt>
      <trkpt lat="47.7094" lon="-3.43901">
        <ele>14.4</ele>
        <time>2021-08-14T11:03:33Z</time>
      </trkpt>
      <trkpt lat="47.70937" lon="-3.43901">
        <ele>14.4</ele>
        <time>2021-08-14T11:03:34Z</time>
      </trkpt>
      <trkpt lat="47.70933" lon="-3.43901">
        <ele>14.4</ele>
        <time>2021-08-14T11:03:35Z</time>
      </trkpt>
      <trkpt lat="47.70928" lon="-3.43901">
        <ele>14.2</ele>
        <time>2021-08-14T11:03:36Z</time>
      </trkpt>
      <trkpt lat="47.70923" lon="-3.43899">
        <ele>14.2</ele>
        <time>2021-08-14T11:03:37Z</time>
      </trkpt>
      <trkpt lat="47.70918" lon="-3.43897">
        <ele>14</ele>
        <time>2021-08-14T11:03:38Z</time>
      </trkpt>
      <trkpt lat="47.70914" lon="-3.43894">
        <ele>14</ele>
        <time>2021-08-14T11:03:39Z</time>
      </trkpt>
      <trkpt lat="47.70909" lon="-3.43891">
        <ele>14</ele>
        <time>2021-08-14T11:03:40Z</time>
      </trkpt>
      <trkpt lat="47.70904" lon="-3.43889">
        <ele>14</ele>
        <time>2021-08-14T11:03:41Z</time>
      </trkpt>
      <trkpt lat="47.70898" lon="-3.43886">
        <ele>13.6</ele>
        <time>2021-08-14T11:03:42Z</time>
      </trkpt>
      <trkpt lat="47.70893" lon="-3.43883">
        <ele>13.4</ele>
        <time>2021-08-14T11:03:43Z</time>
      </trkpt>
      <trkpt lat="47.70887" lon="-3.43879">
        <ele>13.2</ele>
        <time>2021-08-14T11:03:44Z</time>
      </trkpt>
      <trkpt lat="47.70882" lon="-3.43876">
        <ele>13</ele>
        <time>2021-08-14T11:03:45Z</time>
      </trkpt>
      <trkpt lat="47.70877" lon="-3.43874">
        <ele>12.8</ele>
        <time>2021-08-14T11:03:46Z</time>
      </trkpt>
      <trkpt lat="47.70872" lon="-3.43873">
        <ele>12.4</ele>
        <time>2021-08-14T11:03:47Z</time>
      </trkpt>
      <trkpt lat="47.70867" lon="-3.43872">
        <ele>12.2</ele>
        <time>2021-08-14T11:03:48Z</time>
      </trkpt>
      <trkpt lat="47.70862" lon="-3.4387">
        <ele>12.2</ele>
        <time>2021-08-14T11:03:49Z</time>
      </trkpt>
      <trkpt lat="47.70858" lon="-3.43867">
        <ele>12</ele>
        <time>2021-08-14T11:03:50Z</time>
      </trkpt>
      <trkpt lat="47.70855" lon="-3.43862">
        <ele>11.8</ele>
        <time>2021-08-14T11:03:51Z</time>
      </trkpt>
      <trkpt lat="47.70852" lon="-3.43857">
        <ele>11.6</ele>
        <time>2021-08-14T11:03:52Z</time>
      </trkpt>
      <trkpt lat="47.70848" lon="-3.43854">
        <ele>11.4</ele>
        <time>2021-08-14T11:03:53Z</time>
      </trkpt>
      <trkpt lat="47.70844" lon="-3.4385">
        <ele>11.4</ele>
        <time>2021-08-14T11:03:54Z</time>
      </trkpt>
      <trkpt lat="47.7084" lon="-3.43846">
        <ele>11</ele>
        <time>2021-08-14T11:03:55Z</time>
      </trkpt>
      <trkpt lat="47.70835" lon="-3.43842">
        <ele>11</ele>
        <time>2021-08-14T11:03:56Z</time>
      </trkpt>
      <trkpt lat="47.70831" lon="-3.43838">
        <ele>11.2</ele>
        <time>2021-08-14T11:03:57Z</time>
      </trkpt>
      <trkpt lat="47.70826" lon="-3.43833">
        <ele>11</ele>
        <time>2021-08-14T11:03:58Z</time>
      </trkpt>
      <trkpt lat="47.70822" lon="-3.43828">
        <ele>10.8</ele>
        <time>2021-08-14T11:03:59Z</time>
      </trkpt>
      <trkpt lat="47.70817" lon="-3.43823">
        <ele>10.8</ele>
        <time>2021-08-14T11:04:00Z</time>
      </trkpt>
      <trkpt lat="47.70812" lon="-3.43818">
        <ele>10.6</ele>
        <time>2021-08-14T11:04:01Z</time>
      </trkpt>
      <trkpt lat="47.70808" lon="-3.43813">
        <ele>10.4</ele>
        <time>2021-08-14T11:04:02Z</time>
      </trkpt>
      <trkpt lat="47.70803" lon="-3.43807">
        <ele>10.6</ele>
        <time>2021-08-14T11:04:03Z</time>
      </trkpt>
      <trkpt lat="47.70799" lon="-3.43801">
        <ele>10.4</ele>
        <time>2021-08-14T11:04:04Z</time>
      </trkpt>
      <trkpt lat="47.70794" lon="-3.43795">
        <ele>10.2</ele>
        <time>2021-08-14T11:04:05Z</time>
      </trkpt>
      <trkpt lat="47.7079" lon="-3.4379">
        <ele>9.8</ele>
        <time>2021-08-14T11:04:06Z</time>
      </trkpt>
      <trkpt lat="47.70785" lon="-3.43784">
        <ele>9.8</ele>
        <time>2021-08-14T11:04:07Z</time>
      </trkpt>
      <trkpt lat="47.7078" lon="-3.43778">
        <ele>9.8</ele>
        <time>2021-08-14T11:04:08Z</time>
      </trkpt>
      <trkpt lat="47.70775" lon="-3.43773">
        <ele>9.6</ele>
        <time>2021-08-14T11:04:09Z</time>
      </trkpt>
      <trkpt lat="47.70771" lon="-3.43767">
        <ele>9.6</ele>
        <time>2021-08-14T11:04:10Z</time>
      </trkpt>
      <trkpt lat="47.70766" lon="-3.4376">
        <ele>9.6</ele>
        <time>2021-08-14T11:04:11Z</time>
      </trkpt>
      <trkpt lat="47.70761" lon="-3.43754">
        <ele>9.6</ele>
        <time>2021-08-14T11:04:12Z</time>
      </trkpt>
      <trkpt lat="47.70756" lon="-3.43748">
        <ele>9.4</ele>
        <time>2021-08-14T11:04:13Z</time>
      </trkpt>
      <trkpt lat="47.70751" lon="-3.43741">
        <ele>9.4</ele>
        <time>2021-08-14T11:04:14Z</time>
      </trkpt>
      <trkpt lat="47.70746" lon="-3.43735">
        <ele>9.4</ele>
        <time>2021-08-14T11:04:15Z</time>
      </trkpt>
      <trkpt lat="47.70741" lon="-3.43729">
        <ele>9.2</ele>
        <time>2021-08-14T11:04:16Z</time>
      </trkpt>
      <trkpt lat="47.70736" lon="-3.43723">
        <ele>8.8</ele>
        <time>2021-08-14T11:04:17Z</time>
      </trkpt>
      <trkpt lat="47.70731" lon="-3.43717">
        <ele>8.4</ele>
        <time>2021-08-14T11:04:18Z</time>
      </trkpt>
      <trkpt lat="47.70726" lon="-3.43711">
        <ele>8.2</ele>
        <time>2021-08-14T11:04:19Z</time>
      </trkpt>
      <trkpt lat="47.70722" lon="-3.43704">
        <ele>7.8</ele>
        <time>2021-08-14T11:04:20Z</time>
      </trkpt>
      <trkpt lat="47.70717" lon="-3.43698">
        <ele>7.6</ele>
        <time>2021-08-14T11:04:21Z</time>
      </trkpt>
      <trkpt lat="47.70713" lon="-3.43691">
        <ele>6.8</ele>
        <time>2021-08-14T11:04:22Z</time>
      </trkpt>
      <trkpt lat="47.70708" lon="-3.43685">
        <ele>6.6</ele>
        <time>2021-08-14T11:04:23Z</time>
      </trkpt>
      <trkpt lat="47.70704" lon="-3.43679">
        <ele>6.4</ele>
        <time>2021-08-14T11:04:24Z</time>
      </trkpt>
      <trkpt lat="47.70699" lon="-3.43673">
        <ele>6.4</ele>
        <time>2021-08-14T11:04:25Z</time>
      </trkpt>
      <trkpt lat="47.70694" lon="-3.43667">
        <ele>6.4</ele>
        <time>2021-08-14T11:04:26Z</time>
      </trkpt>
      <trkpt lat="47.70689" lon="-3.4366">
        <ele>6.2</ele>
        <time>2021-08-14T11:04:27Z</time>
      </trkpt>
      <trkpt lat="47.70685" lon="-3.43653">
        <ele>6.2</ele>
        <time>2021-08-14T11:04:28Z</time>
      </trkpt>
      <trkpt lat="47.7068" lon="-3.43647">
        <ele>6</ele>
        <time>2021-08-14T11:04:29Z</time>
      </trkpt>
      <trkpt lat="47.70675" lon="-3.43641">
        <ele>5.6</ele>
        <time>2021-08-14T11:04:30Z</time>
      </trkpt>
      <trkpt lat="47.7067" lon="-3.43635">
        <ele>5.6</ele>
        <time>2021-08-14T11:04:31Z</time>
      </trkpt>
      <trkpt lat="47.70665" lon="-3.43628">
        <ele>5.4</ele>
        <time>2021-08-14T11:04:32Z</time>
      </trkpt>
      <trkpt lat="47.7066" lon="-3.43621">
        <ele>5.4</ele>
        <time>2021-08-14T11:04:33Z</time>
      </trkpt>
      <trkpt lat="47.70655" lon="-3.43614">
        <ele>5.2</ele>
        <time>2021-08-14T11:04:34Z</time>
      </trkpt>
      <trkpt lat="47.70651" lon="-3.43607">
        <ele>5.2</ele>
        <time>2021-08-14T11:04:35Z</time>
      </trkpt>
      <trkpt lat="47.70646" lon="-3.43599">
        <ele>5</ele>
        <time>2021-08-14T11:04:36Z</time>
      </trkpt>
      <trkpt lat="47.70641" lon="-3.43592">
        <ele>5</ele>
        <time>2021-08-14T11:04:37Z</time>
      </trkpt>
      <trkpt lat="47.70636" lon="-3.43584">
        <ele>4.8</ele>
        <time>2021-08-14T11:04:38Z</time>
      </trkpt>
      <trkpt lat="47.70631" lon="-3.43577">
        <ele>4.6</ele>
        <time>2021-08-14T11:04:39Z</time>
      </trkpt>
      <trkpt lat="47.70627" lon="-3.43569">
        <ele>4.4</ele>
        <time>2021-08-14T11:04:40Z</time>
      </trkpt>
      <trkpt lat="47.70622" lon="-3.43562">
        <ele>4.2</ele>
        <time>2021-08-14T11:04:41Z</time>
      </trkpt>
      <trkpt lat="47.70617" lon="-3.43555">
        <ele>4</ele>
        <time>2021-08-14T11:04:42Z</time>
      </trkpt>
      <trkpt lat="47.70613" lon="-3.43547">
        <ele>3.8</ele>
        <time>2021-08-14T11:04:43Z</time>
      </trkpt>
      <trkpt lat="47.70608" lon="-3.4354">
        <ele>3.4</ele>
        <time>2021-08-14T11:04:44Z</time>
      </trkpt>
      <trkpt lat="47.70604" lon="-3.43533">
        <ele>3.4</ele>
        <time>2021-08-14T11:04:45Z</time>
      </trkpt>
      <trkpt lat="47.70599" lon="-3.43526">
        <ele>3.2</ele>
        <time>2021-08-14T11:04:46Z</time>
      </trkpt>
      <trkpt lat="47.70595" lon="-3.43519">
        <ele>3.2</ele>
        <time>2021-08-14T11:04:47Z</time>
      </trkpt>
      <trkpt lat="47.70591" lon="-3.43513">
        <ele>3</ele>
        <time>2021-08-14T11:04:48Z</time>
      </trkpt>
      <trkpt lat="47.70587" lon="-3.43506">
        <ele>2.6</ele>
        <time>2021-08-14T11:04:49Z</time>
      </trkpt>
      <trkpt lat="47.70583" lon="-3.43499">
        <ele>2.4</ele>
        <time>2021-08-14T11:04:50Z</time>
      </trkpt>
      <trkpt lat="47.70579" lon="-3.43493">
        <ele>2.2</ele>
        <time>2021-08-14T11:04:51Z</time>
      </trkpt>
      <trkpt lat="47.70575" lon="-3.43487">
        <ele>2.2</ele>
        <time>2021-08-14T11:04:52Z</time>
      </trkpt>
      <trkpt lat="47.70571" lon="-3.43481">
        <ele>2.2</ele>
        <time>2021-08-14T11:04:53Z</time>
      </trkpt>
      <trkpt lat="47.70567" lon="-3.43475">
        <ele>2</ele>
        <time>2021-08-14T11:04:54Z</time>
      </trkpt>
      <trkpt lat="47.70564" lon="-3.43469">
        <ele>2</ele>
        <time>2021-08-14T11:04:55Z</time>
      </trkpt>
      <trkpt lat="47.7056" lon="-3.43463">
        <ele>2</ele>
        <time>2021-08-14T11:04:56Z</time>
      </trkpt>
      <trkpt lat="47.70557" lon="-3.43458">
        <ele>2</ele>
        <time>2021-08-14T11:04:57Z</time>
      </trkpt>
      <trkpt lat="47.70553" lon="-3.43452">
        <ele>2</ele>
        <time>2021-08-14T11:04:58Z</time>
      </trkpt>
      <trkpt lat="47.70549" lon="-3.43446">
        <ele>2.2</ele>
        <time>2021-08-14T11:04:59Z</time>
      </trkpt>
      <trkpt lat="47.70546" lon="-3.43441">
        <ele>2.4</ele>
        <time>2021-08-14T11:05:00Z</time>
      </trkpt>
      <trkpt lat="47.70542" lon="-3.43436">
        <ele>2.2</ele>
        <time>2021-08-14T11:05:01Z</time>
      </trkpt>
      <trkpt lat="47.70539" lon="-3.43431">
        <ele>2.2</ele>
        <time>2021-08-14T11:05:02Z</time>
      </trkpt>
      <trkpt lat="47.70536" lon="-3.43426">
        <ele>2.4</ele>
        <time>2021-08-14T11:05:03Z</time>
      </trkpt>
      <trkpt lat="47.70534" lon="-3.43422">
        <ele>2.6</ele>
        <time>2021-08-14T11:05:04Z</time>
      </trkpt>
      <trkpt lat="47.70531" lon="-3.43417">
        <ele>2.6</ele>
        <time>2021-08-14T11:05:05Z</time>
      </trkpt>
      <trkpt lat="47.70527" lon="-3.43414">
        <ele>2.6</ele>
        <time>2021-08-14T11:05:06Z</time>
      </trkpt>
      <trkpt lat="47.70523" lon="-3.43411">
        <ele>2.6</ele>
        <time>2021-08-14T11:05:07Z</time>
      </trkpt>
      <trkpt lat="47.7052" lon="-3.43408">
        <ele>2.6</ele>
        <time>2021-08-14T11:05:08Z</time>
      </trkpt>
      <trkpt lat="47.70518" lon="-3.43402">
        <ele>2.6</ele>
        <time>2021-08-14T11:05:09Z</time>
      </trkpt>
      <trkpt lat="47.70516" lon="-3.43396">
        <ele>2.8</ele>
        <time>2021-08-14T11:05:10Z</time>
      </trkpt>
      <trkpt lat="47.70514" lon="-3.4339">
        <ele>3</ele>
        <time>2021-08-14T11:05:11Z</time>
      </trkpt>
      <trkpt lat="47.70511" lon="-3.43385">
        <ele>3</ele>
        <time>2021-08-14T11:05:12Z</time>
      </trkpt>
      <trkpt lat="47.70509" lon="-3.43379">
        <ele>3</ele>
        <time>2021-08-14T11:05:13Z</time>
      </trkpt>
      <trkpt lat="47.70506" lon="-3.43373">
        <ele>3</ele>
        <time>2021-08-14T11:05:14Z</time>
      </trkpt>
      <trkpt lat="47.70503" lon="-3.43368">
        <ele>3</ele>
        <time>2021-08-14T11:05:15Z</time>
      </trkpt>
      <trkpt lat="47.70499" lon="-3.43363">
        <ele>3</ele>
        <time>2021-08-14T11:05:16Z</time>
      </trkpt>
      <trkpt lat="47.70496" lon="-3.43358">
        <ele>3</ele>
        <time>2021-08-14T11:05:17Z</time>
      </trkpt>
      <trkpt lat="47.70492" lon="-3.43352">
        <ele>3</ele>
        <time>2021-08-14T11:05:18Z</time>
      </trkpt>
      <trkpt lat="47.70489" lon="-3.43347">
        <ele>3</ele>
        <time>2021-08-14T11:05:19Z</time>
      </trkpt>
      <trkpt lat="47.70486" lon="-3.43342">
        <ele>3</ele>
        <time>2021-08-14T11:05:20Z</time>
      </trkpt>
      <trkpt lat="47.70483" lon="-3.43336">
        <ele>3</ele>
        <time>2021-08-14T11:05:21Z</time>
      </trkpt>
      <trkpt lat="47.70479" lon="-3.4333">
        <ele>3</ele>
        <time>2021-08-14T11:05:22Z</time>
      </trkpt>
      <trkpt lat="47.70476" lon="-3.43325">
        <ele>2.8</ele>
        <time>2021-08-14T11:05:23Z</time>
      </trkpt>
      <trkpt lat="47.70473" lon="-3.4332">
        <ele>2.8</ele>
        <time>2021-08-14T11:05:24Z</time>
      </trkpt>
      <trkpt lat="47.7047" lon="-3.43314">
        <ele>2.8</ele>
        <time>2021-08-14T11:05:25Z</time>
      </trkpt>
      <trkpt lat="47.70467" lon="-3.43308">
        <ele>2.8</ele>
        <time>2021-08-14T11:05:26Z</time>
      </trkpt>
      <trkpt lat="47.70463" lon="-3.43303">
        <ele>2.8</ele>
        <time>2021-08-14T11:05:27Z</time>
      </trkpt>
      <trkpt lat="47.7046" lon="-3.43298">
        <ele>2.8</ele>
        <time>2021-08-14T11:05:28Z</time>
      </trkpt>
      <trkpt lat="47.70458" lon="-3.43292">
        <ele>2.8</ele>
        <time>2021-08-14T11:05:29Z</time>
      </trkpt>
      <trkpt lat="47.70455" lon="-3.43286">
        <ele>2.8</ele>
        <time>2021-08-14T11:05:30Z</time>
      </trkpt>
      <trkpt lat="47.70454" lon="-3.4328">
        <ele>2.6</ele>
        <time>2021-08-14T11:05:31Z</time>
      </trkpt>
      <trkpt lat="47.70452" lon="-3.43274">
        <ele>2.6</ele>
        <time>2021-08-14T11:05:32Z</time>
      </trkpt>
      <trkpt lat="47.70449" lon="-3.43268">
        <ele>2.6</ele>
        <time>2021-08-14T11:05:33Z</time>
      </trkpt>
      <trkpt lat="47.70446" lon="-3.43264">
        <ele>2.6</ele>
        <time>2021-08-14T11:05:34Z</time>
      </trkpt>
      <trkpt lat="47.70442" lon="-3.4326">
        <ele>2.6</ele>
        <time>2021-08-14T11:05:35Z</time>
      </trkpt>
      <trkpt lat="47.70438" lon="-3.43257">
        <ele>2.6</ele>
        <time>2021-08-14T11:05:36Z</time>
      </trkpt>
      <trkpt lat="47.70434" lon="-3.43254">
        <ele>2.6</ele>
        <time>2021-08-14T11:05:37Z</time>
      </trkpt>
      <trkpt lat="47.70429" lon="-3.43253">
        <ele>2.6</ele>
        <time>2021-08-14T11:05:38Z</time>
      </trkpt>
      <trkpt lat="47.70425" lon="-3.43251">
        <ele>2.8</ele>
        <time>2021-08-14T11:05:39Z</time>
      </trkpt>
      <trkpt lat="47.70421" lon="-3.43249">
        <ele>2.8</ele>
        <time>2021-08-14T11:05:40Z</time>
      </trkpt>
      <trkpt lat="47.70418" lon="-3.43247">
        <ele>2.8</ele>
        <time>2021-08-14T11:05:41Z</time>
      </trkpt>
      <trkpt lat="47.70414" lon="-3.43245">
        <ele>2.8</ele>
        <time>2021-08-14T11:05:42Z</time>
      </trkpt>
      <trkpt lat="47.7041" lon="-3.43244">
        <ele>2.8</ele>
        <time>2021-08-14T11:05:43Z</time>
      </trkpt>
      <trkpt lat="47.70407" lon="-3.43242">
        <ele>3</ele>
        <time>2021-08-14T11:05:44Z</time>
      </trkpt>
      <trkpt lat="47.70403" lon="-3.43241">
        <ele>3.2</ele>
        <time>2021-08-14T11:05:45Z</time>
      </trkpt>
      <trkpt lat="47.704" lon="-3.43239">
        <ele>3.4</ele>
        <time>2021-08-14T11:05:46Z</time>
      </trkpt>
      <trkpt lat="47.70397" lon="-3.43237">
        <ele>3.8</ele>
        <time>2021-08-14T11:05:47Z</time>
      </trkpt>
      <trkpt lat="47.70394" lon="-3.43235">
        <ele>4</ele>
        <time>2021-08-14T11:05:48Z</time>
      </trkpt>
      <trkpt lat="47.7039" lon="-3.43233">
        <ele>4.4</ele>
        <time>2021-08-14T11:05:49Z</time>
      </trkpt>
      <trkpt lat="47.70387" lon="-3.43232">
        <ele>4.6</ele>
        <time>2021-08-14T11:05:50Z</time>
      </trkpt>
      <trkpt lat="47.70384" lon="-3.4323">
        <ele>4.6</ele>
        <time>2021-08-14T11:05:51Z</time>
      </trkpt>
      <trkpt lat="47.70381" lon="-3.43228">
        <ele>4.8</ele>
        <time>2021-08-14T11:05:52Z</time>
      </trkpt>
      <trkpt lat="47.70378" lon="-3.43227">
        <ele>4.8</ele>
        <time>2021-08-14T11:05:53Z</time>
      </trkpt>
      <trkpt lat="47.70376" lon="-3.43226">
        <ele>5</ele>
        <time>2021-08-14T11:05:54Z</time>
      </trkpt>
      <trkpt lat="47.70373" lon="-3.43225">
        <ele>5.4</ele>
        <time>2021-08-14T11:05:55Z</time>
      </trkpt>
      <trkpt lat="47.7037" lon="-3.43224">
        <ele>5.4</ele>
        <time>2021-08-14T11:05:56Z</time>
      </trkpt>
      <trkpt lat="47.70368" lon="-3.43223">
        <ele>5.6</ele>
        <time>2021-08-14T11:05:57Z</time>
      </trkpt>
      <trkpt lat="47.70366" lon="-3.43222">
        <ele>5.6</ele>
        <time>2021-08-14T11:05:58Z</time>
      </trkpt>
      <trkpt lat="47.70364" lon="-3.43221">
        <ele>5.8</ele>
        <time>2021-08-14T11:05:59Z</time>
      </trkpt>
      <trkpt lat="47.70363" lon="-3.43219">
        <ele>5.8</ele>
        <time>2021-08-14T11:06:00Z</time>
      </trkpt>
      <trkpt lat="47.70363" lon="-3.43218">
        <ele>6</ele>
        <time>2021-08-14T11:06:01Z</time>
      </trkpt>
      <trkpt lat="47.70363" lon="-3.43218">
        <ele>6</ele>
        <time>2021-08-14T11:06:02Z</time>
      </trkpt>
      <trkpt lat="47.70363" lon="-3.43217">
        <ele>7</ele>
        <time>2021-08-14T11:06:09Z</time>
      </trkpt>
      <trkpt lat="47.70363" lon="-3.43216">
        <ele>7.2</ele>
        <time>2021-08-14T11:06:10Z</time>
      </trkpt>
      <trkpt lat="47.70363" lon="-3.43216">
        <ele>7.4</ele>
        <time>2021-08-14T11:06:11Z</time>
      </trkpt>
      <trkpt lat="47.70372" lon="-3.43225">
        <ele>8.6</ele>
        <time>2021-08-14T11:18:17Z</time>
      </trkpt>
      <trkpt lat="47.70375" lon="-3.43226">
        <ele>8.6</ele>
        <time>2021-08-14T11:18:18Z</time>
      </trkpt>
      <trkpt lat="47.70378" lon="-3.43227">
        <ele>8.6</ele>
        <time>2021-08-14T11:18:19Z</time>
      </trkpt>
      <trkpt lat="47.70381" lon="-3.43227">
        <ele>8.6</ele>
        <time>2021-08-14T11:18:20Z</time>
      </trkpt>
      <trkpt lat="47.70384" lon="-3.43229">
        <ele>8.6</ele>
        <time>2021-08-14T11:18:21Z</time>
      </trkpt>
      <trkpt lat="47.70387" lon="-3.43231">
        <ele>8.8</ele>
        <time>2021-08-14T11:18:22Z</time>
      </trkpt>
      <trkpt lat="47.7039" lon="-3.43234">
        <ele>8.6</ele>
        <time>2021-08-14T11:18:23Z</time>
      </trkpt>
      <trkpt lat="47.70394" lon="-3.43235">
        <ele>8.6</ele>
        <time>2021-08-14T11:18:24Z</time>
      </trkpt>
      <trkpt lat="47.70398" lon="-3.43235">
        <ele>8.6</ele>
        <time>2021-08-14T11:18:25Z</time>
      </trkpt>
      <trkpt lat="47.70402" lon="-3.43237">
        <ele>8.6</ele>
        <time>2021-08-14T11:18:26Z</time>
      </trkpt>
      <trkpt lat="47.70406" lon="-3.43238">
        <ele>8.4</ele>
        <time>2021-08-14T11:18:27Z</time>
      </trkpt>
      <trkpt lat="47.7041" lon="-3.4324">
        <ele>8.4</ele>
        <time>2021-08-14T11:18:28Z</time>
      </trkpt>
      <trkpt lat="47.70414" lon="-3.43242">
        <ele>8.2</ele>
        <time>2021-08-14T11:18:29Z</time>
      </trkpt>
      <trkpt lat="47.70419" lon="-3.43245">
        <ele>8.2</ele>
        <time>2021-08-14T11:18:30Z</time>
      </trkpt>
      <trkpt lat="47.70423" lon="-3.43248">
        <ele>8</ele>
        <time>2021-08-14T11:18:31Z</time>
      </trkpt>
      <trkpt lat="47.70428" lon="-3.43251">
        <ele>8</ele>
        <time>2021-08-14T11:18:32Z</time>
      </trkpt>
      <trkpt lat="47.70433" lon="-3.43253">
        <ele>7.6</ele>
        <time>2021-08-14T11:18:33Z</time>
      </trkpt>
      <trkpt lat="47.70437" lon="-3.43255">
        <ele>7.4</ele>
        <time>2021-08-14T11:18:34Z</time>
      </trkpt>
      <trkpt lat="47.70442" lon="-3.43256">
        <ele>7.4</ele>
        <time>2021-08-14T11:18:35Z</time>
      </trkpt>
      <trkpt lat="47.70447" lon="-3.43255">
        <ele>7</ele>
        <time>2021-08-14T11:18:36Z</time>
      </trkpt>
      <trkpt lat="47.70452" lon="-3.43252">
        <ele>7</ele>
        <time>2021-08-14T11:18:37Z</time>
      </trkpt>
      <trkpt lat="47.70456" lon="-3.43247">
        <ele>6.8</ele>
        <time>2021-08-14T11:18:38Z</time>
      </trkpt>
      <trkpt lat="47.70459" lon="-3.4324">
        <ele>6.6</ele>
        <time>2021-08-14T11:18:39Z</time>
      </trkpt>
      <trkpt lat="47.70462" lon="-3.43233">
        <ele>6.4</ele>
        <time>2021-08-14T11:18:40Z</time>
      </trkpt>
      <trkpt lat="47.70464" lon="-3.43226">
        <ele>6.2</ele>
        <time>2021-08-14T11:18:41Z</time>
      </trkpt>
      <trkpt lat="47.70466" lon="-3.43219">
        <ele>6</ele>
        <time>2021-08-14T11:18:42Z</time>
      </trkpt>
      <trkpt lat="47.70467" lon="-3.43213">
        <ele>5.8</ele>
        <time>2021-08-14T11:18:43Z</time>
      </trkpt>
      <trkpt lat="47.70468" lon="-3.43206">
        <ele>5.4</ele>
        <time>2021-08-14T11:18:44Z</time>
      </trkpt>
      <trkpt lat="47.70469" lon="-3.43199">
        <ele>5.2</ele>
        <time>2021-08-14T11:18:45Z</time>
      </trkpt>
      <trkpt lat="47.70469" lon="-3.43193">
        <ele>4.8</ele>
        <time>2021-08-14T11:18:46Z</time>
      </trkpt>
      <trkpt lat="47.70469" lon="-3.43187">
        <ele>4.4</ele>
        <time>2021-08-14T11:18:47Z</time>
      </trkpt>
      <trkpt lat="47.7047" lon="-3.43181">
        <ele>4.2</ele>
        <time>2021-08-14T11:18:48Z</time>
      </trkpt>
      <trkpt lat="47.70471" lon="-3.43176">
        <ele>4</ele>
        <time>2021-08-14T11:18:49Z</time>
      </trkpt>
      <trkpt lat="47.70472" lon="-3.4317">
        <ele>4</ele>
        <time>2021-08-14T11:18:50Z</time>
      </trkpt>
      <trkpt lat="47.70472" lon="-3.43163">
        <ele>3.8</ele>
        <time>2021-08-14T11:18:51Z</time>
      </trkpt>
      <trkpt lat="47.70473" lon="-3.43157">
        <ele>3.8</ele>
        <time>2021-08-14T11:18:52Z</time>
      </trkpt>
      <trkpt lat="47.70474" lon="-3.43151">
        <ele>3.6</ele>
        <time>2021-08-14T11:18:53Z</time>
      </trkpt>
      <trkpt lat="47.70475" lon="-3.43144">
        <ele>3.6</ele>
        <time>2021-08-14T11:18:54Z</time>
      </trkpt>
      <trkpt lat="47.70476" lon="-3.43137">
        <ele>3.6</ele>
        <time>2021-08-14T11:18:55Z</time>
      </trkpt>
      <trkpt lat="47.70477" lon="-3.43131">
        <ele>3.4</ele>
        <time>2021-08-14T11:18:56Z</time>
      </trkpt>
      <trkpt lat="47.70478" lon="-3.43124">
        <ele>3.4</ele>
        <time>2021-08-14T11:18:57Z</time>
      </trkpt>
      <trkpt lat="47.70479" lon="-3.43117">
        <ele>3.4</ele>
        <time>2021-08-14T11:18:58Z</time>
      </trkpt>
      <trkpt lat="47.70479" lon="-3.4311">
        <ele>3.2</ele>
        <time>2021-08-14T11:18:59Z</time>
      </trkpt>
      <trkpt lat="47.7048" lon="-3.43102">
        <ele>3.2</ele>
        <time>2021-08-14T11:19:00Z</time>
      </trkpt>
      <trkpt lat="47.70481" lon="-3.43095">
        <ele>3.2</ele>
        <time>2021-08-14T11:19:01Z</time>
      </trkpt>
      <trkpt lat="47.70482" lon="-3.43088">
        <ele>3</ele>
        <time>2021-08-14T11:19:02Z</time>
      </trkpt>
      <trkpt lat="47.70483" lon="-3.43081">
        <ele>3</ele>
        <time>2021-08-14T11:19:03Z</time>
      </trkpt>
      <trkpt lat="47.70484" lon="-3.43073">
        <ele>3</ele>
        <time>2021-08-14T11:19:04Z</time>
      </trkpt>
      <trkpt lat="47.70485" lon="-3.43066">
        <ele>3</ele>
        <time>2021-08-14T11:19:05Z</time>
      </trkpt>
      <trkpt lat="47.70486" lon="-3.43059">
        <ele>3</ele>
        <time>2021-08-14T11:19:06Z</time>
      </trkpt>
      <trkpt lat="47.70487" lon="-3.43052">
        <ele>2.8</ele>
        <time>2021-08-14T11:19:07Z</time>
      </trkpt>
      <trkpt lat="47.70488" lon="-3.43045">
        <ele>2.8</ele>
        <time>2021-08-14T11:19:08Z</time>
      </trkpt>
      <trkpt lat="47.70489" lon="-3.43037">
        <ele>2.8</ele>
        <time>2021-08-14T11:19:09Z</time>
      </trkpt>
      <trkpt lat="47.7049" lon="-3.4303">
        <ele>2.8</ele>
        <time>2021-08-14T11:19:10Z</time>
      </trkpt>
      <trkpt lat="47.70491" lon="-3.43022">
        <ele>2.8</ele>
        <time>2021-08-14T11:19:11Z</time>
      </trkpt>
      <trkpt lat="47.70493" lon="-3.43015">
        <ele>2.8</ele>
        <time>2021-08-14T11:19:12Z</time>
      </trkpt>
      <trkpt lat="47.70494" lon="-3.43008">
        <ele>2.8</ele>
        <time>2021-08-14T11:19:13Z</time>
      </trkpt>
      <trkpt lat="47.70494" lon="-3.43">
        <ele>2.8</ele>
        <time>2021-08-14T11:19:14Z</time>
      </trkpt>
      <trkpt lat="47.70495" lon="-3.42993">
        <ele>2.8</ele>
        <time>2021-08-14T11:19:15Z</time>
      </trkpt>
      <trkpt lat="47.70496" lon="-3.42986">
        <ele>2.8</ele>
        <time>2021-08-14T11:19:16Z</time>
      </trkpt>
      <trkpt lat="47.70497" lon="-3.42978">
        <ele>3</ele>
        <time>2021-08-14T11:19:17Z</time>
      </trkpt>
      <trkpt lat="47.70498" lon="-3.42971">
        <ele>3</ele>
        <time>2021-08-14T11:19:18Z</time>
      </trkpt>
      <trkpt lat="47.705" lon="-3.42964">
        <ele>3</ele>
        <time>2021-08-14T11:19:19Z</time>
      </trkpt>
      <trkpt lat="47.70501" lon="-3.42956">
        <ele>3</ele>
        <time>2021-08-14T11:19:20Z</time>
      </trkpt>
      <trkpt lat="47.70502" lon="-3.42949">
        <ele>3</ele>
        <time>2021-08-14T11:19:21Z</time>
      </trkpt>
      <trkpt lat="47.70503" lon="-3.42941">
        <ele>3</ele>
        <time>2021-08-14T11:19:22Z</time>
      </trkpt>
      <trkpt lat="47.70503" lon="-3.42934">
        <ele>3</ele>
        <time>2021-08-14T11:19:23Z</time>
      </trkpt>
      <trkpt lat="47.70504" lon="-3.42926">
        <ele>3</ele>
        <time>2021-08-14T11:19:24Z</time>
      </trkpt>
      <trkpt lat="47.70505" lon="-3.42919">
        <ele>3</ele>
        <time>2021-08-14T11:19:25Z</time>
      </trkpt>
      <trkpt lat="47.70506" lon="-3.42911">
        <ele>3</ele>
        <time>2021-08-14T11:19:26Z</time>
      </trkpt>
      <trkpt lat="47.70507" lon="-3.42903">
        <ele>3</ele>
        <time>2021-08-14T11:19:27Z</time>
      </trkpt>
      <trkpt lat="47.70508" lon="-3.42896">
        <ele>3</ele>
        <time>2021-08-14T11:19:28Z</time>
      </trkpt>
      <trkpt lat="47.70509" lon="-3.42888">
        <ele>2.8</ele>
        <time>2021-08-14T11:19:29Z</time>
      </trkpt>
      <trkpt lat="47.7051" lon="-3.4288">
        <ele>2.8</ele>
        <time>2021-08-14T11:19:30Z</time>
      </trkpt>
      <trkpt lat="47.70511" lon="-3.42873">
        <ele>2.8</ele>
        <time>2021-08-14T11:19:31Z</time>
      </trkpt>
      <trkpt lat="47.70511" lon="-3.42865">
        <ele>2.8</ele>
        <time>2021-08-14T11:19:32Z</time>
      </trkpt>
      <trkpt lat="47.70512" lon="-3.42858">
        <ele>2.8</ele>
        <time>2021-08-14T11:19:33Z</time>
      </trkpt>
      <trkpt lat="47.70513" lon="-3.4285">
        <ele>2.8</ele>
        <time>2021-08-14T11:19:34Z</time>
      </trkpt>
      <trkpt lat="47.70514" lon="-3.42842">
        <ele>2.8</ele>
        <time>2021-08-14T11:19:35Z</time>
      </trkpt>
      <trkpt lat="47.70515" lon="-3.42834">
        <ele>2.8</ele>
        <time>2021-08-14T11:19:36Z</time>
      </trkpt>
      <trkpt lat="47.70516" lon="-3.42827">
        <ele>2.8</ele>
        <time>2021-08-14T11:19:37Z</time>
      </trkpt>
      <trkpt lat="47.70517" lon="-3.42819">
        <ele>2.8</ele>
        <time>2021-08-14T11:19:38Z</time>
      </trkpt>
      <trkpt lat="47.70518" lon="-3.42812">
        <ele>2.8</ele>
        <time>2021-08-14T11:19:39Z</time>
      </trkpt>
      <trkpt lat="47.7052" lon="-3.42804">
        <ele>2.8</ele>
        <time>2021-08-14T11:19:40Z</time>
      </trkpt>
      <trkpt lat="47.7052" lon="-3.42797">
        <ele>2.8</ele>
        <time>2021-08-14T11:19:41Z</time>
      </trkpt>
      <trkpt lat="47.70521" lon="-3.4279">
        <ele>2.8</ele>
        <time>2021-08-14T11:19:42Z</time>
      </trkpt>
      <trkpt lat="47.70522" lon="-3.42782">
        <ele>2.8</ele>
        <time>2021-08-14T11:19:43Z</time>
      </trkpt>
      <trkpt lat="47.70523" lon="-3.42775">
        <ele>2.8</ele>
        <time>2021-08-14T11:19:44Z</time>
      </trkpt>
      <trkpt lat="47.70525" lon="-3.42768">
        <ele>2.8</ele>
        <time>2021-08-14T11:19:45Z</time>
      </trkpt>
      <trkpt lat="47.70526" lon="-3.4276">
        <ele>2.8</ele>
        <time>2021-08-14T11:19:46Z</time>
      </trkpt>
      <trkpt lat="47.70527" lon="-3.42753">
        <ele>2.8</ele>
        <time>2021-08-14T11:19:47Z</time>
      </trkpt>
      <trkpt lat="47.70528" lon="-3.42745">
        <ele>2.8</ele>
        <time>2021-08-14T11:19:48Z</time>
      </trkpt>
      <trkpt lat="47.70529" lon="-3.42738">
        <ele>2.8</ele>
        <time>2021-08-14T11:19:49Z</time>
      </trkpt>
      <trkpt lat="47.7053" lon="-3.4273">
        <ele>3</ele>
        <time>2021-08-14T11:19:50Z</time>
      </trkpt>
      <trkpt lat="47.70531" lon="-3.42723">
        <ele>3</ele>
        <time>2021-08-14T11:19:51Z</time>
      </trkpt>
      <trkpt lat="47.70532" lon="-3.42715">
        <ele>3</ele>
        <time>2021-08-14T11:19:52Z</time>
      </trkpt>
      <trkpt lat="47.70533" lon="-3.42708">
        <ele>3</ele>
        <time>2021-08-14T11:19:53Z</time>
      </trkpt>
      <trkpt lat="47.70534" lon="-3.427">
        <ele>3</ele>
        <time>2021-08-14T11:19:54Z</time>
      </trkpt>
      <trkpt lat="47.70536" lon="-3.42693">
        <ele>3.2</ele>
        <time>2021-08-14T11:19:55Z</time>
      </trkpt>
      <trkpt lat="47.70537" lon="-3.42685">
        <ele>3.2</ele>
        <time>2021-08-14T11:19:56Z</time>
      </trkpt>
      <trkpt lat="47.70538" lon="-3.42677">
        <ele>3.2</ele>
        <time>2021-08-14T11:19:57Z</time>
      </trkpt>
      <trkpt lat="47.7054" lon="-3.4267">
        <ele>3.2</ele>
        <time>2021-08-14T11:19:58Z</time>
      </trkpt>
      <trkpt lat="47.70541" lon="-3.42662">
        <ele>3.2</ele>
        <time>2021-08-14T11:19:59Z</time>
      </trkpt>
      <trkpt lat="47.70543" lon="-3.42655">
        <ele>3.2</ele>
        <time>2021-08-14T11:20:00Z</time>
      </trkpt>
      <trkpt lat="47.70544" lon="-3.42647">
        <ele>3.2</ele>
        <time>2021-08-14T11:20:01Z</time>
      </trkpt>
      <trkpt lat="47.70546" lon="-3.4264">
        <ele>3.2</ele>
        <time>2021-08-14T11:20:02Z</time>
      </trkpt>
      <trkpt lat="47.70547" lon="-3.42632">
        <ele>3.2</ele>
        <time>2021-08-14T11:20:03Z</time>
      </trkpt>
      <trkpt lat="47.70549" lon="-3.42625">
        <ele>3.2</ele>
        <time>2021-08-14T11:20:04Z</time>
      </trkpt>
      <trkpt lat="47.70551" lon="-3.42619">
        <ele>3.2</ele>
        <time>2021-08-14T11:20:05Z</time>
      </trkpt>
      <trkpt lat="47.70553" lon="-3.42612">
        <ele>3.2</ele>
        <time>2021-08-14T11:20:06Z</time>
      </trkpt>
      <trkpt lat="47.70554" lon="-3.42605">
        <ele>3.2</ele>
        <time>2021-08-14T11:20:07Z</time>
      </trkpt>
      <trkpt lat="47.70555" lon="-3.42599">
        <ele>3.2</ele>
        <time>2021-08-14T11:20:08Z</time>
      </trkpt>
      <trkpt lat="47.70556" lon="-3.42592">
        <ele>3.2</ele>
        <time>2021-08-14T11:20:09Z</time>
      </trkpt>
      <trkpt lat="47.70557" lon="-3.42585">
        <ele>3.2</ele>
        <time>2021-08-14T11:20:10Z</time>
      </trkpt>
      <trkpt lat="47.70558" lon="-3.42579">
        <ele>3.6</ele>
        <time>2021-08-14T11:20:11Z</time>
      </trkpt>
      <trkpt lat="47.70559" lon="-3.42573">
        <ele>3.6</ele>
        <time>2021-08-14T11:20:12Z</time>
      </trkpt>
      <trkpt lat="47.70559" lon="-3.42566">
        <ele>3.6</ele>
        <time>2021-08-14T11:20:13Z</time>
      </trkpt>
      <trkpt lat="47.7056" lon="-3.4256">
        <ele>3.8</ele>
        <time>2021-08-14T11:20:14Z</time>
      </trkpt>
      <trkpt lat="47.70561" lon="-3.42554">
        <ele>3.8</ele>
        <time>2021-08-14T11:20:15Z</time>
      </trkpt>
      <trkpt lat="47.70562" lon="-3.42548">
        <ele>4</ele>
        <time>2021-08-14T11:20:16Z</time>
      </trkpt>
      <trkpt lat="47.70563" lon="-3.42541">
        <ele>4.2</ele>
        <time>2021-08-14T11:20:17Z</time>
      </trkpt>
      <trkpt lat="47.70564" lon="-3.42535">
        <ele>4.4</ele>
        <time>2021-08-14T11:20:18Z</time>
      </trkpt>
      <trkpt lat="47.70565" lon="-3.42529">
        <ele>4.8</ele>
        <time>2021-08-14T11:20:19Z</time>
      </trkpt>
      <trkpt lat="47.70567" lon="-3.42523">
        <ele>4.8</ele>
        <time>2021-08-14T11:20:20Z</time>
      </trkpt>
      <trkpt lat="47.70568" lon="-3.42516">
        <ele>4.8</ele>
        <time>2021-08-14T11:20:21Z</time>
      </trkpt>
      <trkpt lat="47.70569" lon="-3.4251">
        <ele>4.8</ele>
        <time>2021-08-14T11:20:22Z</time>
      </trkpt>
      <trkpt lat="47.70571" lon="-3.42504">
        <ele>4.8</ele>
        <time>2021-08-14T11:20:23Z</time>
      </trkpt>
      <trkpt lat="47.70572" lon="-3.42498">
        <ele>4.8</ele>
        <time>2021-08-14T11:20:24Z</time>
      </trkpt>
      <trkpt lat="47.70574" lon="-3.42492">
        <ele>5</ele>
        <time>2021-08-14T11:20:25Z</time>
      </trkpt>
      <trkpt lat="47.70576" lon="-3.42485">
        <ele>5</ele>
        <time>2021-08-14T11:20:26Z</time>
      </trkpt>
      <trkpt lat="47.70578" lon="-3.4248">
        <ele>5</ele>
        <time>2021-08-14T11:20:27Z</time>
      </trkpt>
      <trkpt lat="47.7058" lon="-3.42474">
        <ele>5</ele>
        <time>2021-08-14T11:20:28Z</time>
      </trkpt>
      <trkpt lat="47.70582" lon="-3.42469">
        <ele>5</ele>
        <time>2021-08-14T11:20:29Z</time>
      </trkpt>
      <trkpt lat="47.70584" lon="-3.42463">
        <ele>5</ele>
        <time>2021-08-14T11:20:30Z</time>
      </trkpt>
      <trkpt lat="47.70587" lon="-3.42458">
        <ele>5.2</ele>
        <time>2021-08-14T11:20:31Z</time>
      </trkpt>
      <trkpt lat="47.7059" lon="-3.42453">
        <ele>5.2</ele>
        <time>2021-08-14T11:20:32Z</time>
      </trkpt>
      <trkpt lat="47.70592" lon="-3.42448">
        <ele>5.2</ele>
        <time>2021-08-14T11:20:33Z</time>
      </trkpt>
      <trkpt lat="47.70595" lon="-3.42444">
        <ele>5.4</ele>
        <time>2021-08-14T11:20:34Z</time>
      </trkpt>
      <trkpt lat="47.70598" lon="-3.42439">
        <ele>5.6</ele>
        <time>2021-08-14T11:20:35Z</time>
      </trkpt>
      <trkpt lat="47.70602" lon="-3.42435">
        <ele>5.6</ele>
        <time>2021-08-14T11:20:36Z</time>
      </trkpt>
      <trkpt lat="47.70606" lon="-3.42431">
        <ele>5.6</ele>
        <time>2021-08-14T11:20:37Z</time>
      </trkpt>
      <trkpt lat="47.70609" lon="-3.42426">
        <ele>5.6</ele>
        <time>2021-08-14T11:20:38Z</time>
      </trkpt>
      <trkpt lat="47.70612" lon="-3.42421">
        <ele>5.8</ele>
        <time>2021-08-14T11:20:39Z</time>
      </trkpt>
      <trkpt lat="47.70614" lon="-3.42416">
        <ele>5.8</ele>
        <time>2021-08-14T11:20:40Z</time>
      </trkpt>
      <trkpt lat="47.70617" lon="-3.42411">
        <ele>5.8</ele>
        <time>2021-08-14T11:20:41Z</time>
      </trkpt>
      <trkpt lat="47.70619" lon="-3.42406">
        <ele>5.8</ele>
        <time>2021-08-14T11:20:42Z</time>
      </trkpt>
      <trkpt lat="47.70622" lon="-3.42402">
        <ele>6</ele>
        <time>2021-08-14T11:20:43Z</time>
      </trkpt>
      <trkpt lat="47.70624" lon="-3.42398">
        <ele>6</ele>
        <time>2021-08-14T11:20:44Z</time>
      </trkpt>
      <trkpt lat="47.70626" lon="-3.42393">
        <ele>6.2</ele>
        <time>2021-08-14T11:20:45Z</time>
      </trkpt>
      <trkpt lat="47.70628" lon="-3.42389">
        <ele>6.4</ele>
        <time>2021-08-14T11:20:46Z</time>
      </trkpt>
      <trkpt lat="47.7063" lon="-3.42385">
        <ele>6.4</ele>
        <time>2021-08-14T11:20:47Z</time>
      </trkpt>
      <trkpt lat="47.70632" lon="-3.42381">
        <ele>6.6</ele>
        <time>2021-08-14T11:20:48Z</time>
      </trkpt>
      <trkpt lat="47.70635" lon="-3.42379">
        <ele>6.6</ele>
        <time>2021-08-14T11:20:49Z</time>
      </trkpt>
      <trkpt lat="47.70638" lon="-3.42379">
        <ele>6.8</ele>
        <time>2021-08-14T11:20:50Z</time>
      </trkpt>
      <trkpt lat="47.70641" lon="-3.42381">
        <ele>7</ele>
        <time>2021-08-14T11:20:51Z</time>
      </trkpt>
      <trkpt lat="47.70643" lon="-3.42384">
        <ele>7</ele>
        <time>2021-08-14T11:20:52Z</time>
      </trkpt>
      <trkpt lat="47.70646" lon="-3.42388">
        <ele>7.2</ele>
        <time>2021-08-14T11:20:53Z</time>
      </trkpt>
      <trkpt lat="47.70648" lon="-3.42391">
        <ele>7.2</ele>
        <time>2021-08-14T11:20:54Z</time>
      </trkpt>
      <trkpt lat="47.70651" lon="-3.42393">
        <ele>7.2</ele>
        <time>2021-08-14T11:20:55Z</time>
      </trkpt>
      <trkpt lat="47.70655" lon="-3.42393">
        <ele>7.4</ele>
        <time>2021-08-14T11:20:56Z</time>
      </trkpt>
      <trkpt lat="47.70659" lon="-3.42392">
        <ele>7.4</ele>
        <time>2021-08-14T11:20:57Z</time>
      </trkpt>
      <trkpt lat="47.70662" lon="-3.4239">
        <ele>7.4</ele>
        <time>2021-08-14T11:20:58Z</time>
      </trkpt>
      <trkpt lat="47.70666" lon="-3.42387">
        <ele>7.4</ele>
        <time>2021-08-14T11:20:59Z</time>
      </trkpt>
      <trkpt lat="47.70668" lon="-3.42382">
        <ele>7.4</ele>
        <time>2021-08-14T11:21:00Z</time>
      </trkpt>
      <trkpt lat="47.70669" lon="-3.42376">
        <ele>7.4</ele>
        <time>2021-08-14T11:21:01Z</time>
      </trkpt>
      <trkpt lat="47.7067" lon="-3.4237">
        <ele>7.4</ele>
        <time>2021-08-14T11:21:02Z</time>
      </trkpt>
      <trkpt lat="47.70672" lon="-3.42365">
        <ele>7.4</ele>
        <time>2021-08-14T11:21:03Z</time>
      </trkpt>
      <trkpt lat="47.70675" lon="-3.4236">
        <ele>7.4</ele>
        <time>2021-08-14T11:21:04Z</time>
      </trkpt>
      <trkpt lat="47.70678" lon="-3.42357">
        <ele>7.4</ele>
        <time>2021-08-14T11:21:05Z</time>
      </trkpt>
      <trkpt lat="47.70681" lon="-3.42355">
        <ele>7.4</ele>
        <time>2021-08-14T11:21:06Z</time>
      </trkpt>
      <trkpt lat="47.70685" lon="-3.42355">
        <ele>7.4</ele>
        <time>2021-08-14T11:21:07Z</time>
      </trkpt>
      <trkpt lat="47.70689" lon="-3.42356">
        <ele>7.4</ele>
        <time>2021-08-14T11:21:08Z</time>
      </trkpt>
      <trkpt lat="47.70693" lon="-3.42359">
        <ele>7.4</ele>
        <time>2021-08-14T11:21:09Z</time>
      </trkpt>
      <trkpt lat="47.70696" lon="-3.42362">
        <ele>7.4</ele>
        <time>2021-08-14T11:21:10Z</time>
      </trkpt>
      <trkpt lat="47.707" lon="-3.42364">
        <ele>7.4</ele>
        <time>2021-08-14T11:21:11Z</time>
      </trkpt>
      <trkpt lat="47.70703" lon="-3.42365">
        <ele>7.4</ele>
        <time>2021-08-14T11:21:12Z</time>
      </trkpt>
      <trkpt lat="47.70707" lon="-3.42367">
        <ele>7.4</ele>
        <time>2021-08-14T11:21:13Z</time>
      </trkpt>
      <trkpt lat="47.70711" lon="-3.42368">
        <ele>7.6</ele>
        <time>2021-08-14T11:21:14Z</time>
      </trkpt>
      <trkpt lat="47.70715" lon="-3.42369">
        <ele>7.6</ele>
        <time>2021-08-14T11:21:15Z</time>
      </trkpt>
      <trkpt lat="47.7072" lon="-3.4237">
        <ele>7.8</ele>
        <time>2021-08-14T11:21:16Z</time>
      </trkpt>
      <trkpt lat="47.70724" lon="-3.42371">
        <ele>7.8</ele>
        <time>2021-08-14T11:21:17Z</time>
      </trkpt>
      <trkpt lat="47.70728" lon="-3.42372">
        <ele>8</ele>
        <time>2021-08-14T11:21:18Z</time>
      </trkpt>
      <trkpt lat="47.70732" lon="-3.42373">
        <ele>8</ele>
        <time>2021-08-14T11:21:19Z</time>
      </trkpt>
      <trkpt lat="47.70736" lon="-3.42373">
        <ele>8.2</ele>
        <time>2021-08-14T11:21:20Z</time>
      </trkpt>
      <trkpt lat="47.7074" lon="-3.42372">
        <ele>8.2</ele>
        <time>2021-08-14T11:21:21Z</time>
      </trkpt>
      <trkpt lat="47.70745" lon="-3.42372">
        <ele>8.2</ele>
        <time>2021-08-14T11:21:22Z</time>
      </trkpt>
      <trkpt lat="47.70749" lon="-3.42372">
        <ele>8.2</ele>
        <time>2021-08-14T11:21:23Z</time>
      </trkpt>
      <trkpt lat="47.70753" lon="-3.42373">
        <ele>8.2</ele>
        <time>2021-08-14T11:21:24Z</time>
      </trkpt>
      <trkpt lat="47.70757" lon="-3.42373">
        <ele>8.4</ele>
        <time>2021-08-14T11:21:25Z</time>
      </trkpt>
      <trkpt lat="47.70761" lon="-3.42374">
        <ele>8.4</ele>
        <time>2021-08-14T11:21:26Z</time>
      </trkpt>
      <trkpt lat="47.70764" lon="-3.42375">
        <ele>8.4</ele>
        <time>2021-08-14T11:21:27Z</time>
      </trkpt>
      <trkpt lat="47.70768" lon="-3.42376">
        <ele>8.4</ele>
        <time>2021-08-14T11:21:28Z</time>
      </trkpt>
      <trkpt lat="47.70772" lon="-3.42377">
        <ele>8.4</ele>
        <time>2021-08-14T11:21:29Z</time>
      </trkpt>
      <trkpt lat="47.70775" lon="-3.42377">
        <ele>8.4</ele>
        <time>2021-08-14T11:21:30Z</time>
      </trkpt>
      <trkpt lat="47.70779" lon="-3.42378">
        <ele>8.4</ele>
        <time>2021-08-14T11:21:31Z</time>
      </trkpt>
      <trkpt lat="47.70782" lon="-3.42378">
        <ele>8.6</ele>
        <time>2021-08-14T11:21:32Z</time>
      </trkpt>
      <trkpt lat="47.70786" lon="-3.42379">
        <ele>8.6</ele>
        <time>2021-08-14T11:21:33Z</time>
      </trkpt>
      <trkpt lat="47.70789" lon="-3.42379">
        <ele>8.8</ele>
        <time>2021-08-14T11:21:34Z</time>
      </trkpt>
      <trkpt lat="47.70793" lon="-3.4238">
        <ele>8.8</ele>
        <time>2021-08-14T11:21:35Z</time>
      </trkpt>
      <trkpt lat="47.70796" lon="-3.42381">
        <ele>9</ele>
        <time>2021-08-14T11:21:36Z</time>
      </trkpt>
      <trkpt lat="47.708" lon="-3.42382">
        <ele>9</ele>
        <time>2021-08-14T11:21:37Z</time>
      </trkpt>
      <trkpt lat="47.70803" lon="-3.42382">
        <ele>9</ele>
        <time>2021-08-14T11:21:38Z</time>
      </trkpt>
      <trkpt lat="47.70807" lon="-3.42382">
        <ele>9</ele>
        <time>2021-08-14T11:21:39Z</time>
      </trkpt>
      <trkpt lat="47.7081" lon="-3.42382">
        <ele>9</ele>
        <time>2021-08-14T11:21:40Z</time>
      </trkpt>
      <trkpt lat="47.70813" lon="-3.42382">
        <ele>9</ele>
        <time>2021-08-14T11:21:41Z</time>
      </trkpt>
      <trkpt lat="47.70817" lon="-3.42383">
        <ele>9</ele>
        <time>2021-08-14T11:21:42Z</time>
      </trkpt>
      <trkpt lat="47.7082" lon="-3.42384">
        <ele>9</ele>
        <time>2021-08-14T11:21:43Z</time>
      </trkpt>
      <trkpt lat="47.70823" lon="-3.42384">
        <ele>9</ele>
        <time>2021-08-14T11:21:44Z</time>
      </trkpt>
      <trkpt lat="47.70825" lon="-3.42384">
        <ele>9</ele>
        <time>2021-08-14T11:21:45Z</time>
      </trkpt>
      <trkpt lat="47.70828" lon="-3.42384">
        <ele>9</ele>
        <time>2021-08-14T11:21:46Z</time>
      </trkpt>
      <trkpt lat="47.7083" lon="-3.42384">
        <ele>9</ele>
        <time>2021-08-14T11:21:47Z</time>
      </trkpt>
      <trkpt lat="47.70832" lon="-3.42385">
        <ele>9</ele>
        <time>2021-08-14T11:21:48Z</time>
      </trkpt>
      <trkpt lat="47.70834" lon="-3.42385">
        <ele>9</ele>
        <time>2021-08-14T11:21:49Z</time>
      </trkpt>
      <trkpt lat="47.70835" lon="-3.42385">
        <ele>9</ele>
        <time>2021-08-14T11:21:50Z</time>
      </trkpt>
      <trkpt lat="47.70836" lon="-3.42385">
        <ele>9</ele>
        <time>2021-08-14T11:21:51Z</time>
      </trkpt>
      <trkpt lat="47.70837" lon="-3.42385">
        <ele>9</ele>
        <time>2021-08-14T11:21:52Z</time>
      </trkpt>
      <trkpt lat="47.70838" lon="-3.42385">
        <ele>9</ele>
        <time>2021-08-14T11:21:53Z</time>
      </trkpt>
      <trkpt lat="47.70839" lon="-3.42384">
        <ele>9</ele>
        <time>2021-08-14T11:21:54Z</time>
      </trkpt>
      <trkpt lat="47.7084" lon="-3.42384">
        <ele>9</ele>
        <time>2021-08-14T11:21:55Z</time>
      </trkpt>
      <trkpt lat="47.7084" lon="-3.42385">
        <ele>9</ele>
        <time>2021-08-14T11:21:56Z</time>
      </trkpt>
      <trkpt lat="47.70841" lon="-3.42385">
        <ele>9</ele>
        <time>2021-08-14T11:21:57Z</time>
      </trkpt>
      <trkpt lat="47.70841" lon="-3.42385">
        <ele>9</ele>
        <time>2021-08-14T11:21:58Z</time>
      </trkpt>
      <trkpt lat="47.70841" lon="-3.42385">
        <ele>9</ele>
        <time>2021-08-14T11:21:59Z</time>
      </trkpt>
      <trkpt lat="47.7084" lon="-3.42399">
        <ele>13.6</ele>
        <time>2021-08-14T12:41:17Z</time>
      </trkpt>
      <trkpt lat="47.7084" lon="-3.42398">
        <ele>13.6</ele>
        <time>2021-08-14T12:41:18Z</time>
      </trkpt>
      <trkpt lat="47.7084" lon="-3.42397">
        <ele>13.6</ele>
        <time>2021-08-14T12:41:19Z</time>
      </trkpt>
      <trkpt lat="47.7084" lon="-3.42396">
        <ele>13.6</ele>
        <time>2021-08-14T12:41:20Z</time>
      </trkpt>
      <trkpt lat="47.70841" lon="-3.42393">
        <ele>13.6</ele>
        <time>2021-08-14T12:41:28Z</time>
      </trkpt>
      <trkpt lat="47.70841" lon="-3.42393">
        <ele>13.6</ele>
        <time>2021-08-14T12:41:29Z</time>
      </trkpt>
      <trkpt lat="47.70841" lon="-3.42393">
        <ele>13.6</ele>
        <time>2021-08-14T12:41:30Z</time>
      </trkpt>
      <trkpt lat="47.70841" lon="-3.42392">
        <ele>13.6</ele>
        <time>2021-08-14T12:41:31Z</time>
      </trkpt>
      <trkpt lat="47.70841" lon="-3.42392">
        <ele>13.4</ele>
        <time>2021-08-14T12:41:40Z</time>
      </trkpt>
      <trkpt lat="47.70841" lon="-3.42391">
        <ele>13.4</ele>
        <time>2021-08-14T12:41:41Z</time>
      </trkpt>
      <trkpt lat="47.70841" lon="-3.4239">
        <ele>13.4</ele>
        <time>2021-08-14T12:41:42Z</time>
      </trkpt>
      <trkpt lat="47.70841" lon="-3.4239">
        <ele>13.4</ele>
        <time>2021-08-14T12:41:43Z</time>
      </trkpt>
      <trkpt lat="47.70828" lon="-3.42389">
        <ele>13.2</ele>
        <time>2021-08-14T12:42:09Z</time>
      </trkpt>
      <trkpt lat="47.70826" lon="-3.42388">
        <ele>13.2</ele>
        <time>2021-08-14T12:42:10Z</time>
      </trkpt>
      <trkpt lat="47.70823" lon="-3.42387">
        <ele>13.2</ele>
        <time>2021-08-14T12:42:11Z</time>
      </trkpt>
      <trkpt lat="47.70821" lon="-3.42386">
        <ele>13.2</ele>
        <time>2021-08-14T12:42:12Z</time>
      </trkpt>
      <trkpt lat="47.70817" lon="-3.42386">
        <ele>13.2</ele>
        <time>2021-08-14T12:42:13Z</time>
      </trkpt>
      <trkpt lat="47.70814" lon="-3.42385">
        <ele>13.2</ele>
        <time>2021-08-14T12:42:14Z</time>
      </trkpt>
      <trkpt lat="47.7081" lon="-3.42384">
        <ele>13</ele>
        <time>2021-08-14T12:42:15Z</time>
      </trkpt>
      <trkpt lat="47.70807" lon="-3.4238">
        <ele>13</ele>
        <time>2021-08-14T12:42:16Z</time>
      </trkpt>
      <trkpt lat="47.70804" lon="-3.42375">
        <ele>13</ele>
        <time>2021-08-14T12:42:17Z</time>
      </trkpt>
      <trkpt lat="47.70803" lon="-3.42369">
        <ele>13</ele>
        <time>2021-08-14T12:42:18Z</time>
      </trkpt>
      <trkpt lat="47.70803" lon="-3.42363">
        <ele>13</ele>
        <time>2021-08-14T12:42:19Z</time>
      </trkpt>
      <trkpt lat="47.70803" lon="-3.42357">
        <ele>13</ele>
        <time>2021-08-14T12:42:20Z</time>
      </trkpt>
      <trkpt lat="47.70803" lon="-3.42352">
        <ele>13</ele>
        <time>2021-08-14T12:42:21Z</time>
      </trkpt>
      <trkpt lat="47.70804" lon="-3.42347">
        <ele>13</ele>
        <time>2021-08-14T12:42:22Z</time>
      </trkpt>
      <trkpt lat="47.70806" lon="-3.42342">
        <ele>13</ele>
        <time>2021-08-14T12:42:23Z</time>
      </trkpt>
      <trkpt lat="47.70807" lon="-3.42338">
        <ele>13</ele>
        <time>2021-08-14T12:42:24Z</time>
      </trkpt>
      <trkpt lat="47.70809" lon="-3.42334">
        <ele>13</ele>
        <time>2021-08-14T12:42:25Z</time>
      </trkpt>
      <trkpt lat="47.70811" lon="-3.42329">
        <ele>13</ele>
        <time>2021-08-14T12:42:26Z</time>
      </trkpt>
      <trkpt lat="47.70814" lon="-3.42326">
        <ele>13.2</ele>
        <time>2021-08-14T12:42:27Z</time>
      </trkpt>
      <trkpt lat="47.70816" lon="-3.42322">
        <ele>13.2</ele>
        <time>2021-08-14T12:42:28Z</time>
      </trkpt>
      <trkpt lat="47.70818" lon="-3.42318">
        <ele>13.6</ele>
        <time>2021-08-14T12:42:29Z</time>
      </trkpt>
      <trkpt lat="47.70819" lon="-3.42314">
        <ele>13.6</ele>
        <time>2021-08-14T12:42:30Z</time>
      </trkpt>
      <trkpt lat="47.70821" lon="-3.4231">
        <ele>13.8</ele>
        <time>2021-08-14T12:42:31Z</time>
      </trkpt>
      <trkpt lat="47.70822" lon="-3.42305">
        <ele>13.8</ele>
        <time>2021-08-14T12:42:32Z</time>
      </trkpt>
      <trkpt lat="47.70822" lon="-3.42301">
        <ele>14</ele>
        <time>2021-08-14T12:42:33Z</time>
      </trkpt>
      <trkpt lat="47.70823" lon="-3.42296">
        <ele>14.2</ele>
        <time>2021-08-14T12:42:34Z</time>
      </trkpt>
      <trkpt lat="47.70822" lon="-3.42292">
        <ele>14.2</ele>
        <time>2021-08-14T12:42:35Z</time>
      </trkpt>
      <trkpt lat="47.70821" lon="-3.42288">
        <ele>14.6</ele>
        <time>2021-08-14T12:42:36Z</time>
      </trkpt>
      <trkpt lat="47.7082" lon="-3.42284">
        <ele>14.8</ele>
        <time>2021-08-14T12:42:37Z</time>
      </trkpt>
      <trkpt lat="47.70819" lon="-3.42281">
        <ele>15</ele>
        <time>2021-08-14T12:42:38Z</time>
      </trkpt>
      <trkpt lat="47.70818" lon="-3.42278">
        <ele>15.2</ele>
        <time>2021-08-14T12:42:39Z</time>
      </trkpt>
      <trkpt lat="47.70818" lon="-3.42275">
        <ele>15.4</ele>
        <time>2021-08-14T12:42:40Z</time>
      </trkpt>
      <trkpt lat="47.70818" lon="-3.42272">
        <ele>15.6</ele>
        <time>2021-08-14T12:42:41Z</time>
      </trkpt>
      <trkpt lat="47.70818" lon="-3.42268">
        <ele>15.6</ele>
        <time>2021-08-14T12:42:42Z</time>
      </trkpt>
      <trkpt lat="47.70817" lon="-3.42265">
        <ele>15.8</ele>
        <time>2021-08-14T12:42:43Z</time>
      </trkpt>
      <trkpt lat="47.70816" lon="-3.42262">
        <ele>15.8</ele>
        <time>2021-08-14T12:42:44Z</time>
      </trkpt>
      <trkpt lat="47.70815" lon="-3.42259">
        <ele>15.8</ele>
        <time>2021-08-14T12:42:45Z</time>
      </trkpt>
      <trkpt lat="47.70814" lon="-3.42255">
        <ele>16</ele>
        <time>2021-08-14T12:42:46Z</time>
      </trkpt>
      <trkpt lat="47.70813" lon="-3.42251">
        <ele>16</ele>
        <time>2021-08-14T12:42:47Z</time>
      </trkpt>
      <trkpt lat="47.70812" lon="-3.42248">
        <ele>16.2</ele>
        <time>2021-08-14T12:42:48Z</time>
      </trkpt>
      <trkpt lat="47.70811" lon="-3.42244">
        <ele>16.2</ele>
        <time>2021-08-14T12:42:49Z</time>
      </trkpt>
      <trkpt lat="47.7081" lon="-3.42241">
        <ele>16.4</ele>
        <time>2021-08-14T12:42:50Z</time>
      </trkpt>
      <trkpt lat="47.70808" lon="-3.42238">
        <ele>16.4</ele>
        <time>2021-08-14T12:42:51Z</time>
      </trkpt>
      <trkpt lat="47.70804" lon="-3.42235">
        <ele>16.6</ele>
        <time>2021-08-14T12:42:52Z</time>
      </trkpt>
      <trkpt lat="47.70801" lon="-3.42233">
        <ele>16.6</ele>
        <time>2021-08-14T12:42:53Z</time>
      </trkpt>
      <trkpt lat="47.70799" lon="-3.42231">
        <ele>16.6</ele>
        <time>2021-08-14T12:42:54Z</time>
      </trkpt>
      <trkpt lat="47.70796" lon="-3.42229">
        <ele>16.6</ele>
        <time>2021-08-14T12:42:55Z</time>
      </trkpt>
      <trkpt lat="47.70793" lon="-3.42227">
        <ele>16.6</ele>
        <time>2021-08-14T12:42:56Z</time>
      </trkpt>
      <trkpt lat="47.70791" lon="-3.42226">
        <ele>16.6</ele>
        <time>2021-08-14T12:42:57Z</time>
      </trkpt>
      <trkpt lat="47.70788" lon="-3.42225">
        <ele>16.6</ele>
        <time>2021-08-14T12:42:58Z</time>
      </trkpt>
      <trkpt lat="47.70785" lon="-3.42224">
        <ele>16.8</ele>
        <time>2021-08-14T12:42:59Z</time>
      </trkpt>
      <trkpt lat="47.70782" lon="-3.42223">
        <ele>16.8</ele>
        <time>2021-08-14T12:43:00Z</time>
      </trkpt>
      <trkpt lat="47.70779" lon="-3.42222">
        <ele>16.8</ele>
        <time>2021-08-14T12:43:01Z</time>
      </trkpt>
      <trkpt lat="47.70777" lon="-3.4222">
        <ele>16.8</ele>
        <time>2021-08-14T12:43:02Z</time>
      </trkpt>
      <trkpt lat="47.70774" lon="-3.42218">
        <ele>17</ele>
        <time>2021-08-14T12:43:03Z</time>
      </trkpt>
      <trkpt lat="47.70773" lon="-3.42214">
        <ele>17</ele>
        <time>2021-08-14T12:43:04Z</time>
      </trkpt>
      <trkpt lat="47.70772" lon="-3.42209">
        <ele>17</ele>
        <time>2021-08-14T12:43:05Z</time>
      </trkpt>
      <trkpt lat="47.70771" lon="-3.42204">
        <ele>17</ele>
        <time>2021-08-14T12:43:06Z</time>
      </trkpt>
      <trkpt lat="47.70771" lon="-3.42199">
        <ele>17</ele>
        <time>2021-08-14T12:43:07Z</time>
      </trkpt>
      <trkpt lat="47.70771" lon="-3.42195">
        <ele>17</ele>
        <time>2021-08-14T12:43:08Z</time>
      </trkpt>
      <trkpt lat="47.70771" lon="-3.4219">
        <ele>17</ele>
        <time>2021-08-14T12:43:09Z</time>
      </trkpt>
      <trkpt lat="47.70772" lon="-3.42186">
        <ele>17</ele>
        <time>2021-08-14T12:43:10Z</time>
      </trkpt>
      <trkpt lat="47.70773" lon="-3.42182">
        <ele>17</ele>
        <time>2021-08-14T12:43:11Z</time>
      </trkpt>
      <trkpt lat="47.70774" lon="-3.42178">
        <ele>17</ele>
        <time>2021-08-14T12:43:12Z</time>
      </trkpt>
      <trkpt lat="47.70775" lon="-3.42174">
        <ele>17.2</ele>
        <time>2021-08-14T12:43:13Z</time>
      </trkpt>
      <trkpt lat="47.70776" lon="-3.4217">
        <ele>17.2</ele>
        <time>2021-08-14T12:43:14Z</time>
      </trkpt>
      <trkpt lat="47.70777" lon="-3.42166">
        <ele>17.2</ele>
        <time>2021-08-14T12:43:15Z</time>
      </trkpt>
      <trkpt lat="47.70777" lon="-3.42162">
        <ele>17.4</ele>
        <time>2021-08-14T12:43:16Z</time>
      </trkpt>
      <trkpt lat="47.70778" lon="-3.42158">
        <ele>17.6</ele>
        <time>2021-08-14T12:43:17Z</time>
      </trkpt>
      <trkpt lat="47.70779" lon="-3.42154">
        <ele>17.6</ele>
        <time>2021-08-14T12:43:18Z</time>
      </trkpt>
      <trkpt lat="47.70779" lon="-3.4215">
        <ele>17.8</ele>
        <time>2021-08-14T12:43:19Z</time>
      </trkpt>
      <trkpt lat="47.70779" lon="-3.42146">
        <ele>17.8</ele>
        <time>2021-08-14T12:43:20Z</time>
      </trkpt>
      <trkpt lat="47.70779" lon="-3.42141">
        <ele>18</ele>
        <time>2021-08-14T12:43:21Z</time>
      </trkpt>
      <trkpt lat="47.7078" lon="-3.42137">
        <ele>18</ele>
        <time>2021-08-14T12:43:22Z</time>
      </trkpt>
      <trkpt lat="47.7078" lon="-3.42134">
        <ele>18.2</ele>
        <time>2021-08-14T12:43:23Z</time>
      </trkpt>
      <trkpt lat="47.7078" lon="-3.42131">
        <ele>18.2</ele>
        <time>2021-08-14T12:43:24Z</time>
      </trkpt>
      <trkpt lat="47.70781" lon="-3.42128">
        <ele>18.2</ele>
        <time>2021-08-14T12:43:25Z</time>
      </trkpt>
      <trkpt lat="47.70782" lon="-3.42125">
        <ele>18.4</ele>
        <time>2021-08-14T12:43:26Z</time>
      </trkpt>
      <trkpt lat="47.70782" lon="-3.42123">
        <ele>18.6</ele>
        <time>2021-08-14T12:43:27Z</time>
      </trkpt>
      <trkpt lat="47.70783" lon="-3.42121">
        <ele>18.6</ele>
        <time>2021-08-14T12:43:28Z</time>
      </trkpt>
      <trkpt lat="47.70782" lon="-3.42118">
        <ele>18.6</ele>
        <time>2021-08-14T12:43:29Z</time>
      </trkpt>
      <trkpt lat="47.70782" lon="-3.42116">
        <ele>18.6</ele>
        <time>2021-08-14T12:43:30Z</time>
      </trkpt>
      <trkpt lat="47.70782" lon="-3.42114">
        <ele>18.6</ele>
        <time>2021-08-14T12:43:31Z</time>
      </trkpt>
      <trkpt lat="47.70782" lon="-3.42111">
        <ele>18.6</ele>
        <time>2021-08-14T12:43:32Z</time>
      </trkpt>
      <trkpt lat="47.70782" lon="-3.42109">
        <ele>18.8</ele>
        <time>2021-08-14T12:43:33Z</time>
      </trkpt>
      <trkpt lat="47.70783" lon="-3.42107">
        <ele>18.8</ele>
        <time>2021-08-14T12:43:34Z</time>
      </trkpt>
      <trkpt lat="47.70785" lon="-3.42105">
        <ele>18.8</ele>
        <time>2021-08-14T12:43:35Z</time>
      </trkpt>
      <trkpt lat="47.70787" lon="-3.42104">
        <ele>19</ele>
        <time>2021-08-14T12:43:36Z</time>
      </trkpt>
      <trkpt lat="47.70789" lon="-3.42103">
        <ele>19</ele>
        <time>2021-08-14T12:43:37Z</time>
      </trkpt>
      <trkpt lat="47.70791" lon="-3.42102">
        <ele>19</ele>
        <time>2021-08-14T12:43:38Z</time>
      </trkpt>
      <trkpt lat="47.70794" lon="-3.42102">
        <ele>19</ele>
        <time>2021-08-14T12:43:39Z</time>
      </trkpt>
      <trkpt lat="47.70797" lon="-3.42102">
        <ele>19</ele>
        <time>2021-08-14T12:43:40Z</time>
      </trkpt>
      <trkpt lat="47.708" lon="-3.42101">
        <ele>19</ele>
        <time>2021-08-14T12:43:41Z</time>
      </trkpt>
      <trkpt lat="47.70804" lon="-3.421">
        <ele>19</ele>
        <time>2021-08-14T12:43:42Z</time>
      </trkpt>
      <trkpt lat="47.70807" lon="-3.42099">
        <ele>19</ele>
        <time>2021-08-14T12:43:43Z</time>
      </trkpt>
      <trkpt lat="47.7081" lon="-3.42098">
        <ele>19</ele>
        <time>2021-08-14T12:43:44Z</time>
      </trkpt>
      <trkpt lat="47.70812" lon="-3.42096">
        <ele>19</ele>
        <time>2021-08-14T12:43:45Z</time>
      </trkpt>
      <trkpt lat="47.70814" lon="-3.42092">
        <ele>19</ele>
        <time>2021-08-14T12:43:46Z</time>
      </trkpt>
      <trkpt lat="47.70815" lon="-3.42088">
        <ele>19</ele>
        <time>2021-08-14T12:43:47Z</time>
      </trkpt>
      <trkpt lat="47.70817" lon="-3.42085">
        <ele>19</ele>
        <time>2021-08-14T12:43:48Z</time>
      </trkpt>
      <trkpt lat="47.70819" lon="-3.42081">
        <ele>19</ele>
        <time>2021-08-14T12:43:49Z</time>
      </trkpt>
      <trkpt lat="47.70821" lon="-3.42078">
        <ele>18.8</ele>
        <time>2021-08-14T12:43:50Z</time>
      </trkpt>
      <trkpt lat="47.70823" lon="-3.42073">
        <ele>18.8</ele>
        <time>2021-08-14T12:43:51Z</time>
      </trkpt>
      <trkpt lat="47.70823" lon="-3.42068">
        <ele>18.8</ele>
        <time>2021-08-14T12:43:52Z</time>
      </trkpt>
      <trkpt lat="47.70823" lon="-3.42062">
        <ele>18.6</ele>
        <time>2021-08-14T12:43:53Z</time>
      </trkpt>
      <trkpt lat="47.70822" lon="-3.42056">
        <ele>18.6</ele>
        <time>2021-08-14T12:43:54Z</time>
      </trkpt>
      <trkpt lat="47.70821" lon="-3.4205">
        <ele>18.4</ele>
        <time>2021-08-14T12:43:55Z</time>
      </trkpt>
      <trkpt lat="47.7082" lon="-3.42043">
        <ele>18.4</ele>
        <time>2021-08-14T12:43:56Z</time>
      </trkpt>
      <trkpt lat="47.70819" lon="-3.42037">
        <ele>18.4</ele>
        <time>2021-08-14T12:43:57Z</time>
      </trkpt>
      <trkpt lat="47.70817" lon="-3.42031">
        <ele>18.4</ele>
        <time>2021-08-14T12:43:58Z</time>
      </trkpt>
      <trkpt lat="47.70816" lon="-3.42025">
        <ele>18.4</ele>
        <time>2021-08-14T12:43:59Z</time>
      </trkpt>
      <trkpt lat="47.70815" lon="-3.42019">
        <ele>18.2</ele>
        <time>2021-08-14T12:44:00Z</time>
      </trkpt>
      <trkpt lat="47.70814" lon="-3.42013">
        <ele>18.2</ele>
        <time>2021-08-14T12:44:01Z</time>
      </trkpt>
      <trkpt lat="47.70813" lon="-3.42007">
        <ele>18.2</ele>
        <time>2021-08-14T12:44:02Z</time>
      </trkpt>
      <trkpt lat="47.70812" lon="-3.42001">
        <ele>18.2</ele>
        <time>2021-08-14T12:44:03Z</time>
      </trkpt>
      <trkpt lat="47.70811" lon="-3.41994">
        <ele>18</ele>
        <time>2021-08-14T12:44:04Z</time>
      </trkpt>
      <trkpt lat="47.70809" lon="-3.41988">
        <ele>18</ele>
        <time>2021-08-14T12:44:05Z</time>
      </trkpt>
      <trkpt lat="47.70808" lon="-3.41981">
        <ele>18</ele>
        <time>2021-08-14T12:44:06Z</time>
      </trkpt>
      <trkpt lat="47.70807" lon="-3.41975">
        <ele>18</ele>
        <time>2021-08-14T12:44:07Z</time>
      </trkpt>
      <trkpt lat="47.70806" lon="-3.41968">
        <ele>18</ele>
        <time>2021-08-14T12:44:08Z</time>
      </trkpt>
      <trkpt lat="47.70804" lon="-3.41962">
        <ele>18</ele>
        <time>2021-08-14T12:44:09Z</time>
      </trkpt>
      <trkpt lat="47.70803" lon="-3.41956">
        <ele>18</ele>
        <time>2021-08-14T12:44:10Z</time>
      </trkpt>
      <trkpt lat="47.70802" lon="-3.41951">
        <ele>18</ele>
        <time>2021-08-14T12:44:11Z</time>
      </trkpt>
      <trkpt lat="47.70801" lon="-3.41945">
        <ele>18</ele>
        <time>2021-08-14T12:44:12Z</time>
      </trkpt>
      <trkpt lat="47.708" lon="-3.41938">
        <ele>18</ele>
        <time>2021-08-14T12:44:13Z</time>
      </trkpt>
      <trkpt lat="47.708" lon="-3.41932">
        <ele>18</ele>
        <time>2021-08-14T12:44:14Z</time>
      </trkpt>
      <trkpt lat="47.70799" lon="-3.41926">
        <ele>18</ele>
        <time>2021-08-14T12:44:15Z</time>
      </trkpt>
      <trkpt lat="47.70798" lon="-3.4192">
        <ele>18</ele>
        <time>2021-08-14T12:44:16Z</time>
      </trkpt>
      <trkpt lat="47.70796" lon="-3.41914">
        <ele>18</ele>
        <time>2021-08-14T12:44:17Z</time>
      </trkpt>
      <trkpt lat="47.70795" lon="-3.41907">
        <ele>18</ele>
        <time>2021-08-14T12:44:18Z</time>
      </trkpt>
      <trkpt lat="47.70795" lon="-3.41901">
        <ele>18.4</ele>
        <time>2021-08-14T12:44:19Z</time>
      </trkpt>
      <trkpt lat="47.70794" lon="-3.41895">
        <ele>18.4</ele>
        <time>2021-08-14T12:44:20Z</time>
      </trkpt>
      <trkpt lat="47.70793" lon="-3.41888">
        <ele>18.6</ele>
        <time>2021-08-14T12:44:21Z</time>
      </trkpt>
      <trkpt lat="47.70792" lon="-3.41881">
        <ele>18.4</ele>
        <time>2021-08-14T12:44:22Z</time>
      </trkpt>
      <trkpt lat="47.70792" lon="-3.41875">
        <ele>18.6</ele>
        <time>2021-08-14T12:44:23Z</time>
      </trkpt>
      <trkpt lat="47.70791" lon="-3.41869">
        <ele>18.8</ele>
        <time>2021-08-14T12:44:24Z</time>
      </trkpt>
      <trkpt lat="47.7079" lon="-3.41863">
        <ele>18.8</ele>
        <time>2021-08-14T12:44:25Z</time>
      </trkpt>
      <trkpt lat="47.70789" lon="-3.41857">
        <ele>18.8</ele>
        <time>2021-08-14T12:44:26Z</time>
      </trkpt>
      <trkpt lat="47.70788" lon="-3.41851">
        <ele>18.8</ele>
        <time>2021-08-14T12:44:27Z</time>
      </trkpt>
      <trkpt lat="47.70787" lon="-3.41845">
        <ele>19</ele>
        <time>2021-08-14T12:44:28Z</time>
      </trkpt>
      <trkpt lat="47.70786" lon="-3.41839">
        <ele>19</ele>
        <time>2021-08-14T12:44:29Z</time>
      </trkpt>
      <trkpt lat="47.70786" lon="-3.41833">
        <ele>19</ele>
        <time>2021-08-14T12:44:30Z</time>
      </trkpt>
      <trkpt lat="47.70785" lon="-3.41827">
        <ele>19</ele>
        <time>2021-08-14T12:44:31Z</time>
      </trkpt>
      <trkpt lat="47.70784" lon="-3.41821">
        <ele>19</ele>
        <time>2021-08-14T12:44:32Z</time>
      </trkpt>
      <trkpt lat="47.70783" lon="-3.41814">
        <ele>19</ele>
        <time>2021-08-14T12:44:33Z</time>
      </trkpt>
      <trkpt lat="47.70782" lon="-3.41808">
        <ele>19</ele>
        <time>2021-08-14T12:44:34Z</time>
      </trkpt>
      <trkpt lat="47.70782" lon="-3.41801">
        <ele>19</ele>
        <time>2021-08-14T12:44:35Z</time>
      </trkpt>
      <trkpt lat="47.70781" lon="-3.41795">
        <ele>19</ele>
        <time>2021-08-14T12:44:36Z</time>
      </trkpt>
      <trkpt lat="47.70781" lon="-3.41789">
        <ele>19</ele>
        <time>2021-08-14T12:44:37Z</time>
      </trkpt>
      <trkpt lat="47.7078" lon="-3.41784">
        <ele>19</ele>
        <time>2021-08-14T12:44:38Z</time>
      </trkpt>
      <trkpt lat="47.70779" lon="-3.41778">
        <ele>19</ele>
        <time>2021-08-14T12:44:39Z</time>
      </trkpt>
      <trkpt lat="47.70778" lon="-3.41772">
        <ele>19</ele>
        <time>2021-08-14T12:44:40Z</time>
      </trkpt>
      <trkpt lat="47.70778" lon="-3.41765">
        <ele>19</ele>
        <time>2021-08-14T12:44:41Z</time>
      </trkpt>
      <trkpt lat="47.70777" lon="-3.41759">
        <ele>19</ele>
        <time>2021-08-14T12:44:42Z</time>
      </trkpt>
      <trkpt lat="47.70777" lon="-3.41752">
        <ele>19</ele>
        <time>2021-08-14T12:44:43Z</time>
      </trkpt>
      <trkpt lat="47.70776" lon="-3.41745">
        <ele>19</ele>
        <time>2021-08-14T12:44:44Z</time>
      </trkpt>
      <trkpt lat="47.70775" lon="-3.41739">
        <ele>19</ele>
        <time>2021-08-14T12:44:45Z</time>
      </trkpt>
      <trkpt lat="47.70775" lon="-3.41732">
        <ele>19</ele>
        <time>2021-08-14T12:44:46Z</time>
      </trkpt>
      <trkpt lat="47.70774" lon="-3.41725">
        <ele>19</ele>
        <time>2021-08-14T12:44:47Z</time>
      </trkpt>
      <trkpt lat="47.70774" lon="-3.41718">
        <ele>19.2</ele>
        <time>2021-08-14T12:44:48Z</time>
      </trkpt>
      <trkpt lat="47.70773" lon="-3.41711">
        <ele>19.2</ele>
        <time>2021-08-14T12:44:49Z</time>
      </trkpt>
      <trkpt lat="47.70773" lon="-3.41705">
        <ele>19.2</ele>
        <time>2021-08-14T12:44:50Z</time>
      </trkpt>
      <trkpt lat="47.70773" lon="-3.41699">
        <ele>19.2</ele>
        <time>2021-08-14T12:44:51Z</time>
      </trkpt>
      <trkpt lat="47.70772" lon="-3.41693">
        <ele>19.2</ele>
        <time>2021-08-14T12:44:52Z</time>
      </trkpt>
      <trkpt lat="47.70772" lon="-3.41686">
        <ele>19.2</ele>
        <time>2021-08-14T12:44:53Z</time>
      </trkpt>
      <trkpt lat="47.70771" lon="-3.4168">
        <ele>19.4</ele>
        <time>2021-08-14T12:44:54Z</time>
      </trkpt>
      <trkpt lat="47.70771" lon="-3.41674">
        <ele>19.4</ele>
        <time>2021-08-14T12:44:55Z</time>
      </trkpt>
      <trkpt lat="47.70771" lon="-3.41667">
        <ele>19.4</ele>
        <time>2021-08-14T12:44:56Z</time>
      </trkpt>
      <trkpt lat="47.70771" lon="-3.41661">
        <ele>19.6</ele>
        <time>2021-08-14T12:44:57Z</time>
      </trkpt>
      <trkpt lat="47.7077" lon="-3.41654">
        <ele>19.6</ele>
        <time>2021-08-14T12:44:58Z</time>
      </trkpt>
      <trkpt lat="47.7077" lon="-3.41648">
        <ele>19.8</ele>
        <time>2021-08-14T12:44:59Z</time>
      </trkpt>
      <trkpt lat="47.7077" lon="-3.41642">
        <ele>19.8</ele>
        <time>2021-08-14T12:45:00Z</time>
      </trkpt>
      <trkpt lat="47.7077" lon="-3.41635">
        <ele>19.8</ele>
        <time>2021-08-14T12:45:01Z</time>
      </trkpt>
      <trkpt lat="47.7077" lon="-3.41629">
        <ele>20</ele>
        <time>2021-08-14T12:45:02Z</time>
      </trkpt>
      <trkpt lat="47.7077" lon="-3.41623">
        <ele>20.2</ele>
        <time>2021-08-14T12:45:03Z</time>
      </trkpt>
      <trkpt lat="47.7077" lon="-3.41616">
        <ele>20.2</ele>
        <time>2021-08-14T12:45:04Z</time>
      </trkpt>
      <trkpt lat="47.7077" lon="-3.4161">
        <ele>20.2</ele>
        <time>2021-08-14T12:45:05Z</time>
      </trkpt>
      <trkpt lat="47.7077" lon="-3.41604">
        <ele>20.2</ele>
        <time>2021-08-14T12:45:06Z</time>
      </trkpt>
      <trkpt lat="47.7077" lon="-3.41597">
        <ele>20.4</ele>
        <time>2021-08-14T12:45:07Z</time>
      </trkpt>
      <trkpt lat="47.7077" lon="-3.41591">
        <ele>20.4</ele>
        <time>2021-08-14T12:45:08Z</time>
      </trkpt>
      <trkpt lat="47.7077" lon="-3.41585">
        <ele>20.4</ele>
        <time>2021-08-14T12:45:09Z</time>
      </trkpt>
      <trkpt lat="47.7077" lon="-3.4158">
        <ele>20.4</ele>
        <time>2021-08-14T12:45:10Z</time>
      </trkpt>
      <trkpt lat="47.70769" lon="-3.41574">
        <ele>20.4</ele>
        <time>2021-08-14T12:45:11Z</time>
      </trkpt>
      <trkpt lat="47.70769" lon="-3.41568">
        <ele>20.4</ele>
        <time>2021-08-14T12:45:12Z</time>
      </trkpt>
      <trkpt lat="47.70769" lon="-3.41562">
        <ele>20.6</ele>
        <time>2021-08-14T12:45:13Z</time>
      </trkpt>
      <trkpt lat="47.70769" lon="-3.41556">
        <ele>20.6</ele>
        <time>2021-08-14T12:45:14Z</time>
      </trkpt>
      <trkpt lat="47.70769" lon="-3.4155">
        <ele>20.6</ele>
        <time>2021-08-14T12:45:15Z</time>
      </trkpt>
      <trkpt lat="47.70769" lon="-3.41545">
        <ele>20.6</ele>
        <time>2021-08-14T12:45:16Z</time>
      </trkpt>
      <trkpt lat="47.70769" lon="-3.41539">
        <ele>20.8</ele>
        <time>2021-08-14T12:45:17Z</time>
      </trkpt>
      <trkpt lat="47.70768" lon="-3.41533">
        <ele>21</ele>
        <time>2021-08-14T12:45:18Z</time>
      </trkpt>
      <trkpt lat="47.70769" lon="-3.41528">
        <ele>21</ele>
        <time>2021-08-14T12:45:19Z</time>
      </trkpt>
      <trkpt lat="47.70769" lon="-3.41523">
        <ele>21.2</ele>
        <time>2021-08-14T12:45:20Z</time>
      </trkpt>
      <trkpt lat="47.70769" lon="-3.41518">
        <ele>21.2</ele>
        <time>2021-08-14T12:45:21Z</time>
      </trkpt>
      <trkpt lat="47.70768" lon="-3.41513">
        <ele>21.4</ele>
        <time>2021-08-14T12:45:22Z</time>
      </trkpt>
      <trkpt lat="47.70767" lon="-3.41508">
        <ele>21.6</ele>
        <time>2021-08-14T12:45:23Z</time>
      </trkpt>
      <trkpt lat="47.70765" lon="-3.41502">
        <ele>21.6</ele>
        <time>2021-08-14T12:45:24Z</time>
      </trkpt>
      <trkpt lat="47.70763" lon="-3.41497">
        <ele>21.8</ele>
        <time>2021-08-14T12:45:25Z</time>
      </trkpt>
      <trkpt lat="47.70761" lon="-3.41492">
        <ele>21.8</ele>
        <time>2021-08-14T12:45:26Z</time>
      </trkpt>
      <trkpt lat="47.70759" lon="-3.41487">
        <ele>21.8</ele>
        <time>2021-08-14T12:45:27Z</time>
      </trkpt>
      <trkpt lat="47.70757" lon="-3.41481">
        <ele>21.8</ele>
        <time>2021-08-14T12:45:28Z</time>
      </trkpt>
      <trkpt lat="47.70755" lon="-3.41476">
        <ele>21.8</ele>
        <time>2021-08-14T12:45:29Z</time>
      </trkpt>
      <trkpt lat="47.70753" lon="-3.41471">
        <ele>21.8</ele>
        <time>2021-08-14T12:45:30Z</time>
      </trkpt>
      <trkpt lat="47.70752" lon="-3.41466">
        <ele>21.8</ele>
        <time>2021-08-14T12:45:31Z</time>
      </trkpt>
      <trkpt lat="47.7075" lon="-3.41461">
        <ele>21.8</ele>
        <time>2021-08-14T12:45:32Z</time>
      </trkpt>
      <trkpt lat="47.70749" lon="-3.41456">
        <ele>21.8</ele>
        <time>2021-08-14T12:45:33Z</time>
      </trkpt>
      <trkpt lat="47.70748" lon="-3.41452">
        <ele>21.8</ele>
        <time>2021-08-14T12:45:34Z</time>
      </trkpt>
      <trkpt lat="47.70747" lon="-3.41448">
        <ele>21.8</ele>
        <time>2021-08-14T12:45:35Z</time>
      </trkpt>
      <trkpt lat="47.70748" lon="-3.41445">
        <ele>21.6</ele>
        <time>2021-08-14T12:45:36Z</time>
      </trkpt>
      <trkpt lat="47.70749" lon="-3.41442">
        <ele>21.6</ele>
        <time>2021-08-14T12:45:37Z</time>
      </trkpt>
      <trkpt lat="47.7075" lon="-3.41441">
        <ele>21.6</ele>
        <time>2021-08-14T12:45:38Z</time>
      </trkpt>
      <trkpt lat="47.70751" lon="-3.41439">
        <ele>21.6</ele>
        <time>2021-08-14T12:45:39Z</time>
      </trkpt>
      <trkpt lat="47.70753" lon="-3.41436">
        <ele>21.6</ele>
        <time>2021-08-14T12:45:40Z</time>
      </trkpt>
      <trkpt lat="47.70754" lon="-3.41433">
        <ele>21.6</ele>
        <time>2021-08-14T12:45:41Z</time>
      </trkpt>
      <trkpt lat="47.70755" lon="-3.4143">
        <ele>21.6</ele>
        <time>2021-08-14T12:45:42Z</time>
      </trkpt>
      <trkpt lat="47.70757" lon="-3.41426">
        <ele>21.6</ele>
        <time>2021-08-14T12:45:43Z</time>
      </trkpt>
      <trkpt lat="47.70759" lon="-3.41424">
        <ele>21.6</ele>
        <time>2021-08-14T12:45:44Z</time>
      </trkpt>
      <trkpt lat="47.70761" lon="-3.41422">
        <ele>21.6</ele>
        <time>2021-08-14T12:45:45Z</time>
      </trkpt>
      <trkpt lat="47.70764" lon="-3.4142">
        <ele>21.8</ele>
        <time>2021-08-14T12:45:46Z</time>
      </trkpt>
      <trkpt lat="47.70767" lon="-3.41419">
        <ele>21.8</ele>
        <time>2021-08-14T12:45:47Z</time>
      </trkpt>
      <trkpt lat="47.70771" lon="-3.41417">
        <ele>22</ele>
        <time>2021-08-14T12:45:48Z</time>
      </trkpt>
      <trkpt lat="47.70774" lon="-3.41415">
        <ele>22</ele>
        <time>2021-08-14T12:45:49Z</time>
      </trkpt>
      <trkpt lat="47.70776" lon="-3.41412">
        <ele>22</ele>
        <time>2021-08-14T12:45:50Z</time>
      </trkpt>
      <trkpt lat="47.70778" lon="-3.41408">
        <ele>22</ele>
        <time>2021-08-14T12:45:51Z</time>
      </trkpt>
      <trkpt lat="47.7078" lon="-3.41404">
        <ele>22</ele>
        <time>2021-08-14T12:45:52Z</time>
      </trkpt>
      <trkpt lat="47.70781" lon="-3.41398">
        <ele>22</ele>
        <time>2021-08-14T12:45:53Z</time>
      </trkpt>
      <trkpt lat="47.70782" lon="-3.41393">
        <ele>22</ele>
        <time>2021-08-14T12:45:54Z</time>
      </trkpt>
      <trkpt lat="47.70783" lon="-3.41387">
        <ele>22</ele>
        <time>2021-08-14T12:45:55Z</time>
      </trkpt>
      <trkpt lat="47.70784" lon="-3.41381">
        <ele>22</ele>
        <time>2021-08-14T12:45:56Z</time>
      </trkpt>
      <trkpt lat="47.70785" lon="-3.41376">
        <ele>22</ele>
        <time>2021-08-14T12:45:57Z</time>
      </trkpt>
      <trkpt lat="47.70786" lon="-3.4137">
        <ele>22</ele>
        <time>2021-08-14T12:45:58Z</time>
      </trkpt>
      <trkpt lat="47.70786" lon="-3.41365">
        <ele>22</ele>
        <time>2021-08-14T12:45:59Z</time>
      </trkpt>
      <trkpt lat="47.70787" lon="-3.4136">
        <ele>22</ele>
        <time>2021-08-14T12:46:00Z</time>
      </trkpt>
      <trkpt lat="47.70787" lon="-3.41356">
        <ele>22</ele>
        <time>2021-08-14T12:46:01Z</time>
      </trkpt>
      <trkpt lat="47.70787" lon="-3.41352">
        <ele>22</ele>
        <time>2021-08-14T12:46:02Z</time>
      </trkpt>
      <trkpt lat="47.70788" lon="-3.4135">
        <ele>22</ele>
        <time>2021-08-14T12:46:03Z</time>
      </trkpt>
      <trkpt lat="47.70788" lon="-3.41348">
        <ele>22</ele>
        <time>2021-08-14T12:46:04Z</time>
      </trkpt>
      <trkpt lat="47.70788" lon="-3.41346">
        <ele>22</ele>
        <time>2021-08-14T12:46:05Z</time>
      </trkpt>
      <trkpt lat="47.70788" lon="-3.41346">
        <ele>22</ele>
        <time>2021-08-14T12:46:06Z</time>
      </trkpt>
      <trkpt lat="47.70788" lon="-3.41346">
        <ele>22</ele>
        <time>2021-08-14T12:46:07Z</time>
      </trkpt>
      <trkpt lat="47.70787" lon="-3.41356">
        <ele>22.2</ele>
        <time>2021-08-14T12:47:45Z</time>
      </trkpt>
      <trkpt lat="47.70787" lon="-3.41359">
        <ele>22.2</ele>
        <time>2021-08-14T12:47:46Z</time>
      </trkpt>
      <trkpt lat="47.70786" lon="-3.41362">
        <ele>22.2</ele>
        <time>2021-08-14T12:47:47Z</time>
      </trkpt>
      <trkpt lat="47.70786" lon="-3.41366">
        <ele>22.2</ele>
        <time>2021-08-14T12:47:48Z</time>
      </trkpt>
      <trkpt lat="47.70785" lon="-3.4137">
        <ele>22.2</ele>
        <time>2021-08-14T12:47:49Z</time>
      </trkpt>
      <trkpt lat="47.70784" lon="-3.41374">
        <ele>22.2</ele>
        <time>2021-08-14T12:47:50Z</time>
      </trkpt>
      <trkpt lat="47.70784" lon="-3.41379">
        <ele>22.2</ele>
        <time>2021-08-14T12:47:51Z</time>
      </trkpt>
      <trkpt lat="47.70783" lon="-3.41384">
        <ele>22.2</ele>
        <time>2021-08-14T12:47:52Z</time>
      </trkpt>
      <trkpt lat="47.70782" lon="-3.4139">
        <ele>22.2</ele>
        <time>2021-08-14T12:47:53Z</time>
      </trkpt>
      <trkpt lat="47.70781" lon="-3.41395">
        <ele>22</ele>
        <time>2021-08-14T12:47:54Z</time>
      </trkpt>
      <trkpt lat="47.7078" lon="-3.414">
        <ele>22</ele>
        <time>2021-08-14T12:47:55Z</time>
      </trkpt>
      <trkpt lat="47.7078" lon="-3.41405">
        <ele>21.8</ele>
        <time>2021-08-14T12:47:56Z</time>
      </trkpt>
      <trkpt lat="47.70778" lon="-3.4141">
        <ele>21.8</ele>
        <time>2021-08-14T12:47:57Z</time>
      </trkpt>
      <trkpt lat="47.70776" lon="-3.41414">
        <ele>21.6</ele>
        <time>2021-08-14T12:47:58Z</time>
      </trkpt>
      <trkpt lat="47.70773" lon="-3.41417">
        <ele>21.6</ele>
        <time>2021-08-14T12:47:59Z</time>
      </trkpt>
      <trkpt lat="47.70769" lon="-3.41418">
        <ele>21.6</ele>
        <time>2021-08-14T12:48:00Z</time>
      </trkpt>
      <trkpt lat="47.70766" lon="-3.4142">
        <ele>21.6</ele>
        <time>2021-08-14T12:48:01Z</time>
      </trkpt>
      <trkpt lat="47.70762" lon="-3.41422">
        <ele>21.6</ele>
        <time>2021-08-14T12:48:02Z</time>
      </trkpt>
      <trkpt lat="47.70759" lon="-3.41424">
        <ele>21.6</ele>
        <time>2021-08-14T12:48:03Z</time>
      </trkpt>
      <trkpt lat="47.70756" lon="-3.41427">
        <ele>21.4</ele>
        <time>2021-08-14T12:48:04Z</time>
      </trkpt>
      <trkpt lat="47.70753" lon="-3.41428">
        <ele>21.4</ele>
        <time>2021-08-14T12:48:05Z</time>
      </trkpt>
      <trkpt lat="47.70749" lon="-3.41427">
        <ele>21.4</ele>
        <time>2021-08-14T12:48:06Z</time>
      </trkpt>
      <trkpt lat="47.70746" lon="-3.41425">
        <ele>21.4</ele>
        <time>2021-08-14T12:48:07Z</time>
      </trkpt>
      <trkpt lat="47.70742" lon="-3.41421">
        <ele>21.4</ele>
        <time>2021-08-14T12:48:08Z</time>
      </trkpt>
      <trkpt lat="47.70739" lon="-3.41416">
        <ele>21.4</ele>
        <time>2021-08-14T12:48:09Z</time>
      </trkpt>
      <trkpt lat="47.70736" lon="-3.41411">
        <ele>21.4</ele>
        <time>2021-08-14T12:48:10Z</time>
      </trkpt>
      <trkpt lat="47.70733" lon="-3.41405">
        <ele>21.4</ele>
        <time>2021-08-14T12:48:11Z</time>
      </trkpt>
      <trkpt lat="47.7073" lon="-3.41399">
        <ele>21.2</ele>
        <time>2021-08-14T12:48:12Z</time>
      </trkpt>
      <trkpt lat="47.70727" lon="-3.41392">
        <ele>21.2</ele>
        <time>2021-08-14T12:48:13Z</time>
      </trkpt>
      <trkpt lat="47.70725" lon="-3.41384">
        <ele>21.2</ele>
        <time>2021-08-14T12:48:14Z</time>
      </trkpt>
      <trkpt lat="47.70724" lon="-3.41377">
        <ele>21.2</ele>
        <time>2021-08-14T12:48:15Z</time>
      </trkpt>
      <trkpt lat="47.70723" lon="-3.41369">
        <ele>21</ele>
        <time>2021-08-14T12:48:16Z</time>
      </trkpt>
      <trkpt lat="47.70722" lon="-3.41362">
        <ele>21</ele>
        <time>2021-08-14T12:48:17Z</time>
      </trkpt>
      <trkpt lat="47.70722" lon="-3.41354">
        <ele>20.8</ele>
        <time>2021-08-14T12:48:18Z</time>
      </trkpt>
      <trkpt lat="47.70721" lon="-3.41346">
        <ele>20.6</ele>
        <time>2021-08-14T12:48:19Z</time>
      </trkpt>
      <trkpt lat="47.70721" lon="-3.41339">
        <ele>20.6</ele>
        <time>2021-08-14T12:48:20Z</time>
      </trkpt>
      <trkpt lat="47.7072" lon="-3.41331">
        <ele>20.6</ele>
        <time>2021-08-14T12:48:21Z</time>
      </trkpt>
      <trkpt lat="47.7072" lon="-3.41323">
        <ele>20.6</ele>
        <time>2021-08-14T12:48:22Z</time>
      </trkpt>
      <trkpt lat="47.7072" lon="-3.41315">
        <ele>20.6</ele>
        <time>2021-08-14T12:48:23Z</time>
      </trkpt>
      <trkpt lat="47.7072" lon="-3.41308">
        <ele>20.6</ele>
        <time>2021-08-14T12:48:24Z</time>
      </trkpt>
      <trkpt lat="47.70719" lon="-3.413">
        <ele>20.6</ele>
        <time>2021-08-14T12:48:25Z</time>
      </trkpt>
      <trkpt lat="47.70719" lon="-3.41293">
        <ele>20.6</ele>
        <time>2021-08-14T12:48:26Z</time>
      </trkpt>
      <trkpt lat="47.70719" lon="-3.41285">
        <ele>20.6</ele>
        <time>2021-08-14T12:48:27Z</time>
      </trkpt>
      <trkpt lat="47.70718" lon="-3.41278">
        <ele>20.6</ele>
        <time>2021-08-14T12:48:28Z</time>
      </trkpt>
      <trkpt lat="47.70718" lon="-3.4127">
        <ele>20.6</ele>
        <time>2021-08-14T12:48:29Z</time>
      </trkpt>
      <trkpt lat="47.70718" lon="-3.41262">
        <ele>20.6</ele>
        <time>2021-08-14T12:48:30Z</time>
      </trkpt>
      <trkpt lat="47.70718" lon="-3.41254">
        <ele>20.8</ele>
        <time>2021-08-14T12:48:31Z</time>
      </trkpt>
      <trkpt lat="47.70717" lon="-3.41247">
        <ele>20.8</ele>
        <time>2021-08-14T12:48:32Z</time>
      </trkpt>
      <trkpt lat="47.70717" lon="-3.41239">
        <ele>21</ele>
        <time>2021-08-14T12:48:33Z</time>
      </trkpt>
      <trkpt lat="47.70716" lon="-3.41231">
        <ele>21.2</ele>
        <time>2021-08-14T12:48:34Z</time>
      </trkpt>
      <trkpt lat="47.70716" lon="-3.41224">
        <ele>21.2</ele>
        <time>2021-08-14T12:48:35Z</time>
      </trkpt>
      <trkpt lat="47.70715" lon="-3.41217">
        <ele>21.2</ele>
        <time>2021-08-14T12:48:36Z</time>
      </trkpt>
      <trkpt lat="47.70714" lon="-3.41211">
        <ele>21.4</ele>
        <time>2021-08-14T12:48:37Z</time>
      </trkpt>
      <trkpt lat="47.70714" lon="-3.41205">
        <ele>21.4</ele>
        <time>2021-08-14T12:48:38Z</time>
      </trkpt>
      <trkpt lat="47.70713" lon="-3.41198">
        <ele>21.4</ele>
        <time>2021-08-14T12:48:39Z</time>
      </trkpt>
      <trkpt lat="47.70712" lon="-3.41192">
        <ele>21.4</ele>
        <time>2021-08-14T12:48:40Z</time>
      </trkpt>
      <trkpt lat="47.70711" lon="-3.41186">
        <ele>21.6</ele>
        <time>2021-08-14T12:48:41Z</time>
      </trkpt>
      <trkpt lat="47.70709" lon="-3.4118">
        <ele>21.6</ele>
        <time>2021-08-14T12:48:42Z</time>
      </trkpt>
      <trkpt lat="47.70708" lon="-3.41173">
        <ele>21.8</ele>
        <time>2021-08-14T12:48:43Z</time>
      </trkpt>
      <trkpt lat="47.70707" lon="-3.41167">
        <ele>21.8</ele>
        <time>2021-08-14T12:48:44Z</time>
      </trkpt>
      <trkpt lat="47.70705" lon="-3.4116">
        <ele>21.8</ele>
        <time>2021-08-14T12:48:45Z</time>
      </trkpt>
      <trkpt lat="47.70704" lon="-3.41154">
        <ele>22</ele>
        <time>2021-08-14T12:48:46Z</time>
      </trkpt>
      <trkpt lat="47.70703" lon="-3.41149">
        <ele>22</ele>
        <time>2021-08-14T12:48:47Z</time>
      </trkpt>
      <trkpt lat="47.70702" lon="-3.41144">
        <ele>22</ele>
        <time>2021-08-14T12:48:48Z</time>
      </trkpt>
      <trkpt lat="47.70701" lon="-3.41138">
        <ele>22</ele>
        <time>2021-08-14T12:48:49Z</time>
      </trkpt>
      <trkpt lat="47.707" lon="-3.41132">
        <ele>22.2</ele>
        <time>2021-08-14T12:48:50Z</time>
      </trkpt>
      <trkpt lat="47.70698" lon="-3.41126">
        <ele>22.2</ele>
        <time>2021-08-14T12:48:51Z</time>
      </trkpt>
      <trkpt lat="47.70697" lon="-3.4112">
        <ele>22.2</ele>
        <time>2021-08-14T12:48:52Z</time>
      </trkpt>
      <trkpt lat="47.70696" lon="-3.41114">
        <ele>22.2</ele>
        <time>2021-08-14T12:48:53Z</time>
      </trkpt>
      <trkpt lat="47.70695" lon="-3.41108">
        <ele>22.2</ele>
        <time>2021-08-14T12:48:54Z</time>
      </trkpt>
      <trkpt lat="47.70694" lon="-3.41102">
        <ele>22.2</ele>
        <time>2021-08-14T12:48:55Z</time>
      </trkpt>
      <trkpt lat="47.70693" lon="-3.41096">
        <ele>22.2</ele>
        <time>2021-08-14T12:48:56Z</time>
      </trkpt>
      <trkpt lat="47.70692" lon="-3.4109">
        <ele>22.2</ele>
        <time>2021-08-14T12:48:57Z</time>
      </trkpt>
      <trkpt lat="47.70692" lon="-3.41084">
        <ele>22.2</ele>
        <time>2021-08-14T12:48:58Z</time>
      </trkpt>
      <trkpt lat="47.70692" lon="-3.41078">
        <ele>22.2</ele>
        <time>2021-08-14T12:48:59Z</time>
      </trkpt>
      <trkpt lat="47.70692" lon="-3.41071">
        <ele>22.4</ele>
        <time>2021-08-14T12:49:00Z</time>
      </trkpt>
      <trkpt lat="47.70692" lon="-3.41064">
        <ele>22.4</ele>
        <time>2021-08-14T12:49:01Z</time>
      </trkpt>
      <trkpt lat="47.70692" lon="-3.41057">
        <ele>22.4</ele>
        <time>2021-08-14T12:49:02Z</time>
      </trkpt>
      <trkpt lat="47.70692" lon="-3.4105">
        <ele>22.4</ele>
        <time>2021-08-14T12:49:03Z</time>
      </trkpt>
      <trkpt lat="47.70693" lon="-3.41043">
        <ele>22.4</ele>
        <time>2021-08-14T12:49:04Z</time>
      </trkpt>
      <trkpt lat="47.70694" lon="-3.41036">
        <ele>22.4</ele>
        <time>2021-08-14T12:49:05Z</time>
      </trkpt>
      <trkpt lat="47.70694" lon="-3.41029">
        <ele>22.2</ele>
        <time>2021-08-14T12:49:06Z</time>
      </trkpt>
      <trkpt lat="47.70695" lon="-3.41022">
        <ele>22.2</ele>
        <time>2021-08-14T12:49:07Z</time>
      </trkpt>
      <trkpt lat="47.70696" lon="-3.41014">
        <ele>22.2</ele>
        <time>2021-08-14T12:49:08Z</time>
      </trkpt>
      <trkpt lat="47.70697" lon="-3.41007">
        <ele>22.2</ele>
        <time>2021-08-14T12:49:09Z</time>
      </trkpt>
      <trkpt lat="47.70698" lon="-3.41001">
        <ele>22.2</ele>
        <time>2021-08-14T12:49:10Z</time>
      </trkpt>
      <trkpt lat="47.70699" lon="-3.40994">
        <ele>22.2</ele>
        <time>2021-08-14T12:49:11Z</time>
      </trkpt>
      <trkpt lat="47.707" lon="-3.40987">
        <ele>22.2</ele>
        <time>2021-08-14T12:49:12Z</time>
      </trkpt>
      <trkpt lat="47.70701" lon="-3.4098">
        <ele>22</ele>
        <time>2021-08-14T12:49:13Z</time>
      </trkpt>
      <trkpt lat="47.70701" lon="-3.40973">
        <ele>22</ele>
        <time>2021-08-14T12:49:14Z</time>
      </trkpt>
      <trkpt lat="47.70702" lon="-3.40965">
        <ele>22</ele>
        <time>2021-08-14T12:49:15Z</time>
      </trkpt>
      <trkpt lat="47.70703" lon="-3.40958">
        <ele>22</ele>
        <time>2021-08-14T12:49:16Z</time>
      </trkpt>
      <trkpt lat="47.70704" lon="-3.4095">
        <ele>22</ele>
        <time>2021-08-14T12:49:17Z</time>
      </trkpt>
      <trkpt lat="47.70706" lon="-3.40942">
        <ele>21.8</ele>
        <time>2021-08-14T12:49:18Z</time>
      </trkpt>
      <trkpt lat="47.70707" lon="-3.40933">
        <ele>21.8</ele>
        <time>2021-08-14T12:49:19Z</time>
      </trkpt>
      <trkpt lat="47.70708" lon="-3.40924">
        <ele>21.8</ele>
        <time>2021-08-14T12:49:20Z</time>
      </trkpt>
      <trkpt lat="47.70708" lon="-3.40914">
        <ele>21.8</ele>
        <time>2021-08-14T12:49:21Z</time>
      </trkpt>
      <trkpt lat="47.70709" lon="-3.40904">
        <ele>21.8</ele>
        <time>2021-08-14T12:49:22Z</time>
      </trkpt>
      <trkpt lat="47.70711" lon="-3.40894">
        <ele>21.6</ele>
        <time>2021-08-14T12:49:23Z</time>
      </trkpt>
      <trkpt lat="47.70712" lon="-3.40882">
        <ele>21.6</ele>
        <time>2021-08-14T12:49:24Z</time>
      </trkpt>
      <trkpt lat="47.70713" lon="-3.4087">
        <ele>21.4</ele>
        <time>2021-08-14T12:49:25Z</time>
      </trkpt>
      <trkpt lat="47.70714" lon="-3.40858">
        <ele>21.2</ele>
        <time>2021-08-14T12:49:26Z</time>
      </trkpt>
      <trkpt lat="47.70715" lon="-3.40845">
        <ele>21</ele>
        <time>2021-08-14T12:49:27Z</time>
      </trkpt>
      <trkpt lat="47.70716" lon="-3.40832">
        <ele>20.6</ele>
        <time>2021-08-14T12:49:28Z</time>
      </trkpt>
      <trkpt lat="47.70717" lon="-3.40818">
        <ele>20.2</ele>
        <time>2021-08-14T12:49:29Z</time>
      </trkpt>
      <trkpt lat="47.70718" lon="-3.40804">
        <ele>19.8</ele>
        <time>2021-08-14T12:49:30Z</time>
      </trkpt>
      <trkpt lat="47.7072" lon="-3.4079">
        <ele>19.4</ele>
        <time>2021-08-14T12:49:31Z</time>
      </trkpt>
      <trkpt lat="47.70721" lon="-3.40776">
        <ele>19</ele>
        <time>2021-08-14T12:49:32Z</time>
      </trkpt>
      <trkpt lat="47.70722" lon="-3.40762">
        <ele>18.2</ele>
        <time>2021-08-14T12:49:33Z</time>
      </trkpt>
      <trkpt lat="47.70723" lon="-3.40748">
        <ele>17.4</ele>
        <time>2021-08-14T12:49:34Z</time>
      </trkpt>
      <trkpt lat="47.70725" lon="-3.40734">
        <ele>16.4</ele>
        <time>2021-08-14T12:49:35Z</time>
      </trkpt>
      <trkpt lat="47.70726" lon="-3.4072">
        <ele>15.4</ele>
        <time>2021-08-14T12:49:36Z</time>
      </trkpt>
      <trkpt lat="47.70727" lon="-3.40706">
        <ele>14.4</ele>
        <time>2021-08-14T12:49:37Z</time>
      </trkpt>
      <trkpt lat="47.70729" lon="-3.40693">
        <ele>13.8</ele>
        <time>2021-08-14T12:49:38Z</time>
      </trkpt>
      <trkpt lat="47.7073" lon="-3.40679">
        <ele>12.4</ele>
        <time>2021-08-14T12:49:39Z</time>
      </trkpt>
      <trkpt lat="47.70731" lon="-3.40665">
        <ele>12</ele>
        <time>2021-08-14T12:49:40Z</time>
      </trkpt>
      <trkpt lat="47.70732" lon="-3.40651">
        <ele>11.6</ele>
        <time>2021-08-14T12:49:41Z</time>
      </trkpt>
      <trkpt lat="47.70733" lon="-3.40637">
        <ele>11.4</ele>
        <time>2021-08-14T12:49:42Z</time>
      </trkpt>
      <trkpt lat="47.70734" lon="-3.40623">
        <ele>11.2</ele>
        <time>2021-08-14T12:49:43Z</time>
      </trkpt>
      <trkpt lat="47.70735" lon="-3.40609">
        <ele>11</ele>
        <time>2021-08-14T12:49:44Z</time>
      </trkpt>
      <trkpt lat="47.70736" lon="-3.40595">
        <ele>11</ele>
        <time>2021-08-14T12:49:45Z</time>
      </trkpt>
      <trkpt lat="47.70737" lon="-3.40582">
        <ele>10.8</ele>
        <time>2021-08-14T12:49:46Z</time>
      </trkpt>
      <trkpt lat="47.70739" lon="-3.40568">
        <ele>10.4</ele>
        <time>2021-08-14T12:49:47Z</time>
      </trkpt>
      <trkpt lat="47.7074" lon="-3.40554">
        <ele>10.2</ele>
        <time>2021-08-14T12:49:48Z</time>
      </trkpt>
      <trkpt lat="47.7074" lon="-3.4054">
        <ele>10.2</ele>
        <time>2021-08-14T12:49:49Z</time>
      </trkpt>
      <trkpt lat="47.7074" lon="-3.40527">
        <ele>10</ele>
        <time>2021-08-14T12:49:50Z</time>
      </trkpt>
      <trkpt lat="47.70739" lon="-3.40515">
        <ele>9.8</ele>
        <time>2021-08-14T12:49:51Z</time>
      </trkpt>
      <trkpt lat="47.70738" lon="-3.40503">
        <ele>9.8</ele>
        <time>2021-08-14T12:49:52Z</time>
      </trkpt>
      <trkpt lat="47.70736" lon="-3.40491">
        <ele>9.8</ele>
        <time>2021-08-14T12:49:53Z</time>
      </trkpt>
      <trkpt lat="47.70733" lon="-3.40481">
        <ele>9.8</ele>
        <time>2021-08-14T12:49:54Z</time>
      </trkpt>
      <trkpt lat="47.7073" lon="-3.40472">
        <ele>9.8</ele>
        <time>2021-08-14T12:49:55Z</time>
      </trkpt>
      <trkpt lat="47.70726" lon="-3.40463">
        <ele>9.8</ele>
        <time>2021-08-14T12:49:56Z</time>
      </trkpt>
      <trkpt lat="47.70723" lon="-3.40454">
        <ele>9.8</ele>
        <time>2021-08-14T12:49:57Z</time>
      </trkpt>
      <trkpt lat="47.70719" lon="-3.40446">
        <ele>9.8</ele>
        <time>2021-08-14T12:49:58Z</time>
      </trkpt>
      <trkpt lat="47.70716" lon="-3.40438">
        <ele>9.8</ele>
        <time>2021-08-14T12:49:59Z</time>
      </trkpt>
      <trkpt lat="47.70712" lon="-3.4043">
        <ele>9.8</ele>
        <time>2021-08-14T12:50:00Z</time>
      </trkpt>
      <trkpt lat="47.70709" lon="-3.40423">
        <ele>9.8</ele>
        <time>2021-08-14T12:50:01Z</time>
      </trkpt>
      <trkpt lat="47.70705" lon="-3.40416">
        <ele>10</ele>
        <time>2021-08-14T12:50:02Z</time>
      </trkpt>
      <trkpt lat="47.70702" lon="-3.4041">
        <ele>10.2</ele>
        <time>2021-08-14T12:50:03Z</time>
      </trkpt>
      <trkpt lat="47.70699" lon="-3.40403">
        <ele>10.4</ele>
        <time>2021-08-14T12:50:04Z</time>
      </trkpt>
      <trkpt lat="47.70695" lon="-3.40397">
        <ele>10.6</ele>
        <time>2021-08-14T12:50:05Z</time>
      </trkpt>
      <trkpt lat="47.70692" lon="-3.40392">
        <ele>10.6</ele>
        <time>2021-08-14T12:50:06Z</time>
      </trkpt>
      <trkpt lat="47.7069" lon="-3.40387">
        <ele>10.8</ele>
        <time>2021-08-14T12:50:07Z</time>
      </trkpt>
      <trkpt lat="47.70687" lon="-3.40381">
        <ele>11</ele>
        <time>2021-08-14T12:50:08Z</time>
      </trkpt>
      <trkpt lat="47.70685" lon="-3.40377">
        <ele>11.2</ele>
        <time>2021-08-14T12:50:09Z</time>
      </trkpt>
      <trkpt lat="47.70683" lon="-3.40372">
        <ele>11.2</ele>
        <time>2021-08-14T12:50:10Z</time>
      </trkpt>
      <trkpt lat="47.70681" lon="-3.40368">
        <ele>11.4</ele>
        <time>2021-08-14T12:50:11Z</time>
      </trkpt>
      <trkpt lat="47.70679" lon="-3.40364">
        <ele>12</ele>
        <time>2021-08-14T12:50:12Z</time>
      </trkpt>
      <trkpt lat="47.70677" lon="-3.40361">
        <ele>12.2</ele>
        <time>2021-08-14T12:50:13Z</time>
      </trkpt>
      <trkpt lat="47.70675" lon="-3.40358">
        <ele>12.4</ele>
        <time>2021-08-14T12:50:14Z</time>
      </trkpt>
      <trkpt lat="47.70673" lon="-3.40355">
        <ele>12.6</ele>
        <time>2021-08-14T12:50:15Z</time>
      </trkpt>
      <trkpt lat="47.70672" lon="-3.40352">
        <ele>12.8</ele>
        <time>2021-08-14T12:50:16Z</time>
      </trkpt>
      <trkpt lat="47.7067" lon="-3.40347">
        <ele>13</ele>
        <time>2021-08-14T12:50:17Z</time>
      </trkpt>
      <trkpt lat="47.70668" lon="-3.40343">
        <ele>13</ele>
        <time>2021-08-14T12:50:18Z</time>
      </trkpt>
      <trkpt lat="47.70666" lon="-3.40338">
        <ele>13</ele>
        <time>2021-08-14T12:50:19Z</time>
      </trkpt>
      <trkpt lat="47.70663" lon="-3.40333">
        <ele>13</ele>
        <time>2021-08-14T12:50:20Z</time>
      </trkpt>
      <trkpt lat="47.70661" lon="-3.40328">
        <ele>13</ele>
        <time>2021-08-14T12:50:21Z</time>
      </trkpt>
      <trkpt lat="47.70658" lon="-3.40322">
        <ele>13</ele>
        <time>2021-08-14T12:50:22Z</time>
      </trkpt>
      <trkpt lat="47.70655" lon="-3.40316">
        <ele>13</ele>
        <time>2021-08-14T12:50:23Z</time>
      </trkpt>
      <trkpt lat="47.70652" lon="-3.40309">
        <ele>13</ele>
        <time>2021-08-14T12:50:24Z</time>
      </trkpt>
      <trkpt lat="47.70649" lon="-3.40303">
        <ele>13</ele>
        <time>2021-08-14T12:50:25Z</time>
      </trkpt>
      <trkpt lat="47.70646" lon="-3.40297">
        <ele>13</ele>
        <time>2021-08-14T12:50:26Z</time>
      </trkpt>
      <trkpt lat="47.70643" lon="-3.4029">
        <ele>13</ele>
        <time>2021-08-14T12:50:27Z</time>
      </trkpt>
      <trkpt lat="47.7064" lon="-3.40283">
        <ele>12.8</ele>
        <time>2021-08-14T12:50:28Z</time>
      </trkpt>
      <trkpt lat="47.70636" lon="-3.40276">
        <ele>12.6</ele>
        <time>2021-08-14T12:50:29Z</time>
      </trkpt>
      <trkpt lat="47.70633" lon="-3.40269">
        <ele>12.4</ele>
        <time>2021-08-14T12:50:30Z</time>
      </trkpt>
      <trkpt lat="47.70629" lon="-3.40262">
        <ele>12</ele>
        <time>2021-08-14T12:50:31Z</time>
      </trkpt>
      <trkpt lat="47.70626" lon="-3.40255">
        <ele>11.8</ele>
        <time>2021-08-14T12:50:32Z</time>
      </trkpt>
      <trkpt lat="47.70623" lon="-3.40248">
        <ele>11.6</ele>
        <time>2021-08-14T12:50:33Z</time>
      </trkpt>
      <trkpt lat="47.7062" lon="-3.40241">
        <ele>11.4</ele>
        <time>2021-08-14T12:50:34Z</time>
      </trkpt>
      <trkpt lat="47.70616" lon="-3.40234">
        <ele>11.2</ele>
        <time>2021-08-14T12:50:35Z</time>
      </trkpt>
      <trkpt lat="47.70612" lon="-3.40227">
        <ele>11</ele>
        <time>2021-08-14T12:50:36Z</time>
      </trkpt>
      <trkpt lat="47.70609" lon="-3.4022">
        <ele>10.8</ele>
        <time>2021-08-14T12:50:37Z</time>
      </trkpt>
      <trkpt lat="47.70607" lon="-3.40212">
        <ele>10.6</ele>
        <time>2021-08-14T12:50:38Z</time>
      </trkpt>
      <trkpt lat="47.70604" lon="-3.40205">
        <ele>10.6</ele>
        <time>2021-08-14T12:50:39Z</time>
      </trkpt>
      <trkpt lat="47.706" lon="-3.40198">
        <ele>10.6</ele>
        <time>2021-08-14T12:50:40Z</time>
      </trkpt>
      <trkpt lat="47.70596" lon="-3.40191">
        <ele>10.4</ele>
        <time>2021-08-14T12:50:41Z</time>
      </trkpt>
      <trkpt lat="47.70592" lon="-3.40184">
        <ele>10.2</ele>
        <time>2021-08-14T12:50:42Z</time>
      </trkpt>
      <trkpt lat="47.70589" lon="-3.40177">
        <ele>10.2</ele>
        <time>2021-08-14T12:50:43Z</time>
      </trkpt>
      <trkpt lat="47.70585" lon="-3.4017">
        <ele>10</ele>
        <time>2021-08-14T12:50:44Z</time>
      </trkpt>
      <trkpt lat="47.70582" lon="-3.40163">
        <ele>10</ele>
        <time>2021-08-14T12:50:45Z</time>
      </trkpt>
      <trkpt lat="47.70578" lon="-3.40156">
        <ele>10</ele>
        <time>2021-08-14T12:50:46Z</time>
      </trkpt>
      <trkpt lat="47.70575" lon="-3.40149">
        <ele>10</ele>
        <time>2021-08-14T12:50:47Z</time>
      </trkpt>
      <trkpt lat="47.70572" lon="-3.40143">
        <ele>10</ele>
        <time>2021-08-14T12:50:48Z</time>
      </trkpt>
      <trkpt lat="47.70569" lon="-3.40137">
        <ele>10</ele>
        <time>2021-08-14T12:50:49Z</time>
      </trkpt>
      <trkpt lat="47.70567" lon="-3.40131">
        <ele>10</ele>
        <time>2021-08-14T12:50:50Z</time>
      </trkpt>
      <trkpt lat="47.70564" lon="-3.40126">
        <ele>10</ele>
        <time>2021-08-14T12:50:51Z</time>
      </trkpt>
      <trkpt lat="47.70562" lon="-3.40121">
        <ele>10</ele>
        <time>2021-08-14T12:50:52Z</time>
      </trkpt>
      <trkpt lat="47.7056" lon="-3.40116">
        <ele>10.2</ele>
        <time>2021-08-14T12:50:53Z</time>
      </trkpt>
      <trkpt lat="47.70558" lon="-3.40112">
        <ele>10.2</ele>
        <time>2021-08-14T12:50:54Z</time>
      </trkpt>
      <trkpt lat="47.70556" lon="-3.40108">
        <ele>10.2</ele>
        <time>2021-08-14T12:50:55Z</time>
      </trkpt>
      <trkpt lat="47.70554" lon="-3.40104">
        <ele>10.4</ele>
        <time>2021-08-14T12:50:56Z</time>
      </trkpt>
      <trkpt lat="47.70553" lon="-3.401">
        <ele>10.6</ele>
        <time>2021-08-14T12:50:57Z</time>
      </trkpt>
      <trkpt lat="47.70551" lon="-3.40096">
        <ele>10.8</ele>
        <time>2021-08-14T12:50:58Z</time>
      </trkpt>
      <trkpt lat="47.7055" lon="-3.40091">
        <ele>11</ele>
        <time>2021-08-14T12:50:59Z</time>
      </trkpt>
      <trkpt lat="47.70548" lon="-3.40086">
        <ele>11.4</ele>
        <time>2021-08-14T12:51:00Z</time>
      </trkpt>
      <trkpt lat="47.70546" lon="-3.40081">
        <ele>11.6</ele>
        <time>2021-08-14T12:51:01Z</time>
      </trkpt>
      <trkpt lat="47.70544" lon="-3.40076">
        <ele>12</ele>
        <time>2021-08-14T12:51:02Z</time>
      </trkpt>
      <trkpt lat="47.70543" lon="-3.4007">
        <ele>12.2</ele>
        <time>2021-08-14T12:51:03Z</time>
      </trkpt>
      <trkpt lat="47.70541" lon="-3.40065">
        <ele>12.6</ele>
        <time>2021-08-14T12:51:04Z</time>
      </trkpt>
      <trkpt lat="47.70539" lon="-3.40059">
        <ele>12.8</ele>
        <time>2021-08-14T12:51:05Z</time>
      </trkpt>
      <trkpt lat="47.70537" lon="-3.40053">
        <ele>13</ele>
        <time>2021-08-14T12:51:06Z</time>
      </trkpt>
      <trkpt lat="47.70536" lon="-3.40047">
        <ele>13</ele>
        <time>2021-08-14T12:51:07Z</time>
      </trkpt>
      <trkpt lat="47.70534" lon="-3.40041">
        <ele>13</ele>
        <time>2021-08-14T12:51:08Z</time>
      </trkpt>
      <trkpt lat="47.70532" lon="-3.40035">
        <ele>13</ele>
        <time>2021-08-14T12:51:09Z</time>
      </trkpt>
      <trkpt lat="47.7053" lon="-3.40029">
        <ele>13</ele>
        <time>2021-08-14T12:51:10Z</time>
      </trkpt>
      <trkpt lat="47.70528" lon="-3.40023">
        <ele>13</ele>
        <time>2021-08-14T12:51:11Z</time>
      </trkpt>
      <trkpt lat="47.70526" lon="-3.40017">
        <ele>13</ele>
        <time>2021-08-14T12:51:12Z</time>
      </trkpt>
      <trkpt lat="47.70524" lon="-3.40011">
        <ele>13</ele>
        <time>2021-08-14T12:51:13Z</time>
      </trkpt>
      <trkpt lat="47.70522" lon="-3.40005">
        <ele>13</ele>
        <time>2021-08-14T12:51:14Z</time>
      </trkpt>
      <trkpt lat="47.7052" lon="-3.39999">
        <ele>13.2</ele>
        <time>2021-08-14T12:51:15Z</time>
      </trkpt>
      <trkpt lat="47.70519" lon="-3.39993">
        <ele>13.2</ele>
        <time>2021-08-14T12:51:16Z</time>
      </trkpt>
      <trkpt lat="47.70517" lon="-3.39987">
        <ele>13.2</ele>
        <time>2021-08-14T12:51:17Z</time>
      </trkpt>
      <trkpt lat="47.70515" lon="-3.39981">
        <ele>13.2</ele>
        <time>2021-08-14T12:51:18Z</time>
      </trkpt>
      <trkpt lat="47.70513" lon="-3.39975">
        <ele>13.2</ele>
        <time>2021-08-14T12:51:19Z</time>
      </trkpt>
      <trkpt lat="47.70511" lon="-3.39968">
        <ele>13.2</ele>
        <time>2021-08-14T12:51:20Z</time>
      </trkpt>
      <trkpt lat="47.70509" lon="-3.39962">
        <ele>13.2</ele>
        <time>2021-08-14T12:51:21Z</time>
      </trkpt>
      <trkpt lat="47.70507" lon="-3.39956">
        <ele>13.2</ele>
        <time>2021-08-14T12:51:22Z</time>
      </trkpt>
      <trkpt lat="47.70505" lon="-3.3995">
        <ele>13.2</ele>
        <time>2021-08-14T12:51:23Z</time>
      </trkpt>
      <trkpt lat="47.70503" lon="-3.39944">
        <ele>13.2</ele>
        <time>2021-08-14T12:51:24Z</time>
      </trkpt>
      <trkpt lat="47.70501" lon="-3.39937">
        <ele>13.2</ele>
        <time>2021-08-14T12:51:25Z</time>
      </trkpt>
      <trkpt lat="47.70499" lon="-3.39932">
        <ele>13.2</ele>
        <time>2021-08-14T12:51:26Z</time>
      </trkpt>
      <trkpt lat="47.70496" lon="-3.39926">
        <ele>13.2</ele>
        <time>2021-08-14T12:51:27Z</time>
      </trkpt>
      <trkpt lat="47.70495" lon="-3.39919">
        <ele>13.2</ele>
        <time>2021-08-14T12:51:28Z</time>
      </trkpt>
      <trkpt lat="47.70494" lon="-3.39913">
        <ele>13.4</ele>
        <time>2021-08-14T12:51:29Z</time>
      </trkpt>
      <trkpt lat="47.70493" lon="-3.39906">
        <ele>13.4</ele>
        <time>2021-08-14T12:51:30Z</time>
      </trkpt>
      <trkpt lat="47.70493" lon="-3.39899">
        <ele>13.4</ele>
        <time>2021-08-14T12:51:31Z</time>
      </trkpt>
      <trkpt lat="47.70494" lon="-3.39892">
        <ele>13.4</ele>
        <time>2021-08-14T12:51:32Z</time>
      </trkpt>
      <trkpt lat="47.70494" lon="-3.39885">
        <ele>13.4</ele>
        <time>2021-08-14T12:51:33Z</time>
      </trkpt>
      <trkpt lat="47.70494" lon="-3.39878">
        <ele>13.4</ele>
        <time>2021-08-14T12:51:34Z</time>
      </trkpt>
      <trkpt lat="47.70494" lon="-3.39871">
        <ele>13.6</ele>
        <time>2021-08-14T12:51:35Z</time>
      </trkpt>
      <trkpt lat="47.70494" lon="-3.39863">
        <ele>13.6</ele>
        <time>2021-08-14T12:51:36Z</time>
      </trkpt>
      <trkpt lat="47.70493" lon="-3.39855">
        <ele>13.6</ele>
        <time>2021-08-14T12:51:37Z</time>
      </trkpt>
      <trkpt lat="47.70493" lon="-3.39847">
        <ele>13.6</ele>
        <time>2021-08-14T12:51:38Z</time>
      </trkpt>
      <trkpt lat="47.70492" lon="-3.39839">
        <ele>13.6</ele>
        <time>2021-08-14T12:51:39Z</time>
      </trkpt>
      <trkpt lat="47.70491" lon="-3.39831">
        <ele>13.6</ele>
        <time>2021-08-14T12:51:40Z</time>
      </trkpt>
      <trkpt lat="47.7049" lon="-3.39823">
        <ele>13.6</ele>
        <time>2021-08-14T12:51:41Z</time>
      </trkpt>
      <trkpt lat="47.70489" lon="-3.39815">
        <ele>13.6</ele>
        <time>2021-08-14T12:51:42Z</time>
      </trkpt>
      <trkpt lat="47.70487" lon="-3.39808">
        <ele>13.6</ele>
        <time>2021-08-14T12:51:43Z</time>
      </trkpt>
      <trkpt lat="47.70486" lon="-3.398">
        <ele>13.6</ele>
        <time>2021-08-14T12:51:44Z</time>
      </trkpt>
      <trkpt lat="47.70484" lon="-3.39793">
        <ele>13.6</ele>
        <time>2021-08-14T12:51:45Z</time>
      </trkpt>
      <trkpt lat="47.70482" lon="-3.39785">
        <ele>13.4</ele>
        <time>2021-08-14T12:51:46Z</time>
      </trkpt>
      <trkpt lat="47.7048" lon="-3.39777">
        <ele>13.2</ele>
        <time>2021-08-14T12:51:47Z</time>
      </trkpt>
      <trkpt lat="47.70477" lon="-3.3977">
        <ele>13</ele>
        <time>2021-08-14T12:51:48Z</time>
      </trkpt>
      <trkpt lat="47.70475" lon="-3.39762">
        <ele>12.8</ele>
        <time>2021-08-14T12:51:49Z</time>
      </trkpt>
      <trkpt lat="47.70472" lon="-3.39755">
        <ele>12.6</ele>
        <time>2021-08-14T12:51:50Z</time>
      </trkpt>
      <trkpt lat="47.70469" lon="-3.39748">
        <ele>12.4</ele>
        <time>2021-08-14T12:51:51Z</time>
      </trkpt>
      <trkpt lat="47.70466" lon="-3.39741">
        <ele>12</ele>
        <time>2021-08-14T12:51:52Z</time>
      </trkpt>
      <trkpt lat="47.70463" lon="-3.39734">
        <ele>11.8</ele>
        <time>2021-08-14T12:51:53Z</time>
      </trkpt>
      <trkpt lat="47.70459" lon="-3.39728">
        <ele>11.8</ele>
        <time>2021-08-14T12:51:54Z</time>
      </trkpt>
      <trkpt lat="47.70456" lon="-3.39721">
        <ele>11.6</ele>
        <time>2021-08-14T12:51:55Z</time>
      </trkpt>
      <trkpt lat="47.70453" lon="-3.39714">
        <ele>11.6</ele>
        <time>2021-08-14T12:51:56Z</time>
      </trkpt>
      <trkpt lat="47.70449" lon="-3.39707">
        <ele>11.4</ele>
        <time>2021-08-14T12:51:57Z</time>
      </trkpt>
      <trkpt lat="47.70446" lon="-3.397">
        <ele>11.4</ele>
        <time>2021-08-14T12:51:58Z</time>
      </trkpt>
      <trkpt lat="47.70442" lon="-3.39693">
        <ele>11.2</ele>
        <time>2021-08-14T12:51:59Z</time>
      </trkpt>
      <trkpt lat="47.70439" lon="-3.39687">
        <ele>11</ele>
        <time>2021-08-14T12:52:00Z</time>
      </trkpt>
      <trkpt lat="47.70435" lon="-3.3968">
        <ele>11</ele>
        <time>2021-08-14T12:52:01Z</time>
      </trkpt>
      <trkpt lat="47.70432" lon="-3.39673">
        <ele>10.8</ele>
        <time>2021-08-14T12:52:02Z</time>
      </trkpt>
      <trkpt lat="47.70428" lon="-3.39666">
        <ele>10.8</ele>
        <time>2021-08-14T12:52:03Z</time>
      </trkpt>
      <trkpt lat="47.70425" lon="-3.39659">
        <ele>10.6</ele>
        <time>2021-08-14T12:52:04Z</time>
      </trkpt>
      <trkpt lat="47.70421" lon="-3.39652">
        <ele>10.6</ele>
        <time>2021-08-14T12:52:05Z</time>
      </trkpt>
      <trkpt lat="47.70418" lon="-3.39644">
        <ele>10.4</ele>
        <time>2021-08-14T12:52:06Z</time>
      </trkpt>
      <trkpt lat="47.70414" lon="-3.39637">
        <ele>10</ele>
        <time>2021-08-14T12:52:07Z</time>
      </trkpt>
      <trkpt lat="47.70411" lon="-3.39629">
        <ele>10</ele>
        <time>2021-08-14T12:52:08Z</time>
      </trkpt>
      <trkpt lat="47.70409" lon="-3.39621">
        <ele>9.8</ele>
        <time>2021-08-14T12:52:09Z</time>
      </trkpt>
      <trkpt lat="47.70406" lon="-3.39612">
        <ele>9.4</ele>
        <time>2021-08-14T12:52:10Z</time>
      </trkpt>
      <trkpt lat="47.70404" lon="-3.39604">
        <ele>9.4</ele>
        <time>2021-08-14T12:52:11Z</time>
      </trkpt>
      <trkpt lat="47.70403" lon="-3.39595">
        <ele>9.2</ele>
        <time>2021-08-14T12:52:12Z</time>
      </trkpt>
      <trkpt lat="47.70401" lon="-3.39586">
        <ele>9.2</ele>
        <time>2021-08-14T12:52:13Z</time>
      </trkpt>
      <trkpt lat="47.704" lon="-3.39577">
        <ele>9.2</ele>
        <time>2021-08-14T12:52:14Z</time>
      </trkpt>
      <trkpt lat="47.70399" lon="-3.39568">
        <ele>9.2</ele>
        <time>2021-08-14T12:52:15Z</time>
      </trkpt>
      <trkpt lat="47.70399" lon="-3.39559">
        <ele>9.2</ele>
        <time>2021-08-14T12:52:16Z</time>
      </trkpt>
      <trkpt lat="47.704" lon="-3.39551">
        <ele>9.2</ele>
        <time>2021-08-14T12:52:17Z</time>
      </trkpt>
      <trkpt lat="47.704" lon="-3.39542">
        <ele>9.2</ele>
        <time>2021-08-14T12:52:18Z</time>
      </trkpt>
      <trkpt lat="47.70401" lon="-3.39533">
        <ele>9.2</ele>
        <time>2021-08-14T12:52:19Z</time>
      </trkpt>
      <trkpt lat="47.70403" lon="-3.39525">
        <ele>9.2</ele>
        <time>2021-08-14T12:52:20Z</time>
      </trkpt>
      <trkpt lat="47.70404" lon="-3.39516">
        <ele>9.2</ele>
        <time>2021-08-14T12:52:21Z</time>
      </trkpt>
      <trkpt lat="47.70406" lon="-3.39507">
        <ele>9.2</ele>
        <time>2021-08-14T12:52:22Z</time>
      </trkpt>
      <trkpt lat="47.70409" lon="-3.39499">
        <ele>9.2</ele>
        <time>2021-08-14T12:52:23Z</time>
      </trkpt>
      <trkpt lat="47.70411" lon="-3.39491">
        <ele>9.2</ele>
        <time>2021-08-14T12:52:24Z</time>
      </trkpt>
      <trkpt lat="47.70414" lon="-3.39483">
        <ele>9</ele>
        <time>2021-08-14T12:52:25Z</time>
      </trkpt>
      <trkpt lat="47.70417" lon="-3.39475">
        <ele>9</ele>
        <time>2021-08-14T12:52:26Z</time>
      </trkpt>
      <trkpt lat="47.7042" lon="-3.39467">
        <ele>9</ele>
        <time>2021-08-14T12:52:27Z</time>
      </trkpt>
      <trkpt lat="47.70422" lon="-3.3946">
        <ele>9</ele>
        <time>2021-08-14T12:52:28Z</time>
      </trkpt>
      <trkpt lat="47.70424" lon="-3.39453">
        <ele>9</ele>
        <time>2021-08-14T12:52:29Z</time>
      </trkpt>
      <trkpt lat="47.70426" lon="-3.39446">
        <ele>8.8</ele>
        <time>2021-08-14T12:52:30Z</time>
      </trkpt>
      <trkpt lat="47.70429" lon="-3.39439">
        <ele>8.8</ele>
        <time>2021-08-14T12:52:31Z</time>
      </trkpt>
      <trkpt lat="47.70431" lon="-3.39432">
        <ele>8.8</ele>
        <time>2021-08-14T12:52:32Z</time>
      </trkpt>
      <trkpt lat="47.70433" lon="-3.39425">
        <ele>8.8</ele>
        <time>2021-08-14T12:52:33Z</time>
      </trkpt>
      <trkpt lat="47.70435" lon="-3.39418">
        <ele>8.8</ele>
        <time>2021-08-14T12:52:34Z</time>
      </trkpt>
      <trkpt lat="47.70438" lon="-3.39411">
        <ele>9</ele>
        <time>2021-08-14T12:52:35Z</time>
      </trkpt>
      <trkpt lat="47.7044" lon="-3.39405">
        <ele>9</ele>
        <time>2021-08-14T12:52:36Z</time>
      </trkpt>
      <trkpt lat="47.70442" lon="-3.39398">
        <ele>9</ele>
        <time>2021-08-14T12:52:37Z</time>
      </trkpt>
      <trkpt lat="47.70444" lon="-3.39392">
        <ele>9</ele>
        <time>2021-08-14T12:52:38Z</time>
      </trkpt>
      <trkpt lat="47.70447" lon="-3.39385">
        <ele>9</ele>
        <time>2021-08-14T12:52:39Z</time>
      </trkpt>
      <trkpt lat="47.7045" lon="-3.39379">
        <ele>9.2</ele>
        <time>2021-08-14T12:52:40Z</time>
      </trkpt>
      <trkpt lat="47.70453" lon="-3.39373">
        <ele>9.2</ele>
        <time>2021-08-14T12:52:41Z</time>
      </trkpt>
      <trkpt lat="47.70456" lon="-3.39367">
        <ele>9.4</ele>
        <time>2021-08-14T12:52:42Z</time>
      </trkpt>
      <trkpt lat="47.70459" lon="-3.3936">
        <ele>9.6</ele>
        <time>2021-08-14T12:52:43Z</time>
      </trkpt>
      <trkpt lat="47.70462" lon="-3.39354">
        <ele>9.6</ele>
        <time>2021-08-14T12:52:44Z</time>
      </trkpt>
      <trkpt lat="47.70465" lon="-3.39348">
        <ele>9.8</ele>
        <time>2021-08-14T12:52:45Z</time>
      </trkpt>
      <trkpt lat="47.70468" lon="-3.39342">
        <ele>9.8</ele>
        <time>2021-08-14T12:52:46Z</time>
      </trkpt>
      <trkpt lat="47.70471" lon="-3.39336">
        <ele>9.8</ele>
        <time>2021-08-14T12:52:47Z</time>
      </trkpt>
      <trkpt lat="47.70474" lon="-3.39331">
        <ele>9.8</ele>
        <time>2021-08-14T12:52:48Z</time>
      </trkpt>
      <trkpt lat="47.70477" lon="-3.39325">
        <ele>10</ele>
        <time>2021-08-14T12:52:49Z</time>
      </trkpt>
      <trkpt lat="47.7048" lon="-3.39319">
        <ele>10</ele>
        <time>2021-08-14T12:52:50Z</time>
      </trkpt>
      <trkpt lat="47.70482" lon="-3.39313">
        <ele>10</ele>
        <time>2021-08-14T12:52:51Z</time>
      </trkpt>
      <trkpt lat="47.70484" lon="-3.39308">
        <ele>10</ele>
        <time>2021-08-14T12:52:52Z</time>
      </trkpt>
      <trkpt lat="47.70487" lon="-3.39303">
        <ele>10.2</ele>
        <time>2021-08-14T12:52:53Z</time>
      </trkpt>
      <trkpt lat="47.70489" lon="-3.39297">
        <ele>10.2</ele>
        <time>2021-08-14T12:52:54Z</time>
      </trkpt>
      <trkpt lat="47.70492" lon="-3.39292">
        <ele>10.4</ele>
        <time>2021-08-14T12:52:55Z</time>
      </trkpt>
      <trkpt lat="47.70494" lon="-3.39288">
        <ele>10.4</ele>
        <time>2021-08-14T12:52:56Z</time>
      </trkpt>
      <trkpt lat="47.70496" lon="-3.39282">
        <ele>10.8</ele>
        <time>2021-08-14T12:52:57Z</time>
      </trkpt>
      <trkpt lat="47.70498" lon="-3.39277">
        <ele>11</ele>
        <time>2021-08-14T12:52:58Z</time>
      </trkpt>
      <trkpt lat="47.705" lon="-3.39272">
        <ele>11</ele>
        <time>2021-08-14T12:52:59Z</time>
      </trkpt>
      <trkpt lat="47.70501" lon="-3.39267">
        <ele>11.2</ele>
        <time>2021-08-14T12:53:00Z</time>
      </trkpt>
      <trkpt lat="47.70502" lon="-3.39263">
        <ele>11.4</ele>
        <time>2021-08-14T12:53:01Z</time>
      </trkpt>
      <trkpt lat="47.70504" lon="-3.39258">
        <ele>11.6</ele>
        <time>2021-08-14T12:53:02Z</time>
      </trkpt>
      <trkpt lat="47.70506" lon="-3.39254">
        <ele>11.8</ele>
        <time>2021-08-14T12:53:03Z</time>
      </trkpt>
      <trkpt lat="47.70507" lon="-3.3925">
        <ele>12</ele>
        <time>2021-08-14T12:53:04Z</time>
      </trkpt>
      <trkpt lat="47.70508" lon="-3.39245">
        <ele>12.2</ele>
        <time>2021-08-14T12:53:05Z</time>
      </trkpt>
      <trkpt lat="47.7051" lon="-3.39241">
        <ele>12.4</ele>
        <time>2021-08-14T12:53:06Z</time>
      </trkpt>
      <trkpt lat="47.70511" lon="-3.39237">
        <ele>12.4</ele>
        <time>2021-08-14T12:53:07Z</time>
      </trkpt>
      <trkpt lat="47.70513" lon="-3.39232">
        <ele>12.6</ele>
        <time>2021-08-14T12:53:08Z</time>
      </trkpt>
      <trkpt lat="47.70514" lon="-3.39228">
        <ele>12.8</ele>
        <time>2021-08-14T12:53:09Z</time>
      </trkpt>
      <trkpt lat="47.70515" lon="-3.39224">
        <ele>13</ele>
        <time>2021-08-14T12:53:10Z</time>
      </trkpt>
      <trkpt lat="47.70517" lon="-3.3922">
        <ele>13.2</ele>
        <time>2021-08-14T12:53:11Z</time>
      </trkpt>
      <trkpt lat="47.70518" lon="-3.39215">
        <ele>13.4</ele>
        <time>2021-08-14T12:53:12Z</time>
      </trkpt>
      <trkpt lat="47.7052" lon="-3.39211">
        <ele>13.6</ele>
        <time>2021-08-14T12:53:13Z</time>
      </trkpt>
      <trkpt lat="47.70521" lon="-3.39207">
        <ele>13.8</ele>
        <time>2021-08-14T12:53:14Z</time>
      </trkpt>
      <trkpt lat="47.70523" lon="-3.39204">
        <ele>14</ele>
        <time>2021-08-14T12:53:15Z</time>
      </trkpt>
      <trkpt lat="47.70524" lon="-3.392">
        <ele>14</ele>
        <time>2021-08-14T12:53:16Z</time>
      </trkpt>
      <trkpt lat="47.70525" lon="-3.39196">
        <ele>14.2</ele>
        <time>2021-08-14T12:53:17Z</time>
      </trkpt>
      <trkpt lat="47.70527" lon="-3.39193">
        <ele>14.4</ele>
        <time>2021-08-14T12:53:18Z</time>
      </trkpt>
      <trkpt lat="47.70528" lon="-3.39189">
        <ele>14.4</ele>
        <time>2021-08-14T12:53:19Z</time>
      </trkpt>
      <trkpt lat="47.70529" lon="-3.39185">
        <ele>14.8</ele>
        <time>2021-08-14T12:53:20Z</time>
      </trkpt>
      <trkpt lat="47.7053" lon="-3.39181">
        <ele>15</ele>
        <time>2021-08-14T12:53:21Z</time>
      </trkpt>
      <trkpt lat="47.70531" lon="-3.39177">
        <ele>15</ele>
        <time>2021-08-14T12:53:22Z</time>
      </trkpt>
      <trkpt lat="47.70533" lon="-3.39173">
        <ele>15.2</ele>
        <time>2021-08-14T12:53:23Z</time>
      </trkpt>
      <trkpt lat="47.70534" lon="-3.39169">
        <ele>15.4</ele>
        <time>2021-08-14T12:53:24Z</time>
      </trkpt>
      <trkpt lat="47.70535" lon="-3.39165">
        <ele>15.4</ele>
        <time>2021-08-14T12:53:25Z</time>
      </trkpt>
      <trkpt lat="47.70537" lon="-3.39161">
        <ele>15.6</ele>
        <time>2021-08-14T12:53:26Z</time>
      </trkpt>
      <trkpt lat="47.70538" lon="-3.39157">
        <ele>15.6</ele>
        <time>2021-08-14T12:53:27Z</time>
      </trkpt>
      <trkpt lat="47.7054" lon="-3.39152">
        <ele>15.8</ele>
        <time>2021-08-14T12:53:28Z</time>
      </trkpt>
      <trkpt lat="47.70541" lon="-3.39148">
        <ele>15.8</ele>
        <time>2021-08-14T12:53:29Z</time>
      </trkpt>
      <trkpt lat="47.70542" lon="-3.39144">
        <ele>16</ele>
        <time>2021-08-14T12:53:30Z</time>
      </trkpt>
      <trkpt lat="47.70544" lon="-3.3914">
        <ele>16</ele>
        <time>2021-08-14T12:53:31Z</time>
      </trkpt>
      <trkpt lat="47.70545" lon="-3.39136">
        <ele>16.2</ele>
        <time>2021-08-14T12:53:32Z</time>
      </trkpt>
      <trkpt lat="47.70546" lon="-3.39131">
        <ele>16.2</ele>
        <time>2021-08-14T12:53:33Z</time>
      </trkpt>
      <trkpt lat="47.70548" lon="-3.39127">
        <ele>16.4</ele>
        <time>2021-08-14T12:53:34Z</time>
      </trkpt>
      <trkpt lat="47.70549" lon="-3.39122">
        <ele>16.4</ele>
        <time>2021-08-14T12:53:35Z</time>
      </trkpt>
      <trkpt lat="47.70551" lon="-3.39118">
        <ele>16.6</ele>
        <time>2021-08-14T12:53:36Z</time>
      </trkpt>
      <trkpt lat="47.70553" lon="-3.39113">
        <ele>16.6</ele>
        <time>2021-08-14T12:53:37Z</time>
      </trkpt>
      <trkpt lat="47.70554" lon="-3.39108">
        <ele>16.6</ele>
        <time>2021-08-14T12:53:38Z</time>
      </trkpt>
      <trkpt lat="47.70556" lon="-3.39103">
        <ele>16.8</ele>
        <time>2021-08-14T12:53:39Z</time>
      </trkpt>
      <trkpt lat="47.70557" lon="-3.39098">
        <ele>16.8</ele>
        <time>2021-08-14T12:53:40Z</time>
      </trkpt>
      <trkpt lat="47.70559" lon="-3.39093">
        <ele>16.8</ele>
        <time>2021-08-14T12:53:41Z</time>
      </trkpt>
      <trkpt lat="47.70561" lon="-3.39088">
        <ele>16.8</ele>
        <time>2021-08-14T12:53:42Z</time>
      </trkpt>
      <trkpt lat="47.70563" lon="-3.39083">
        <ele>17</ele>
        <time>2021-08-14T12:53:43Z</time>
      </trkpt>
      <trkpt lat="47.70564" lon="-3.39077">
        <ele>17</ele>
        <time>2021-08-14T12:53:44Z</time>
      </trkpt>
      <trkpt lat="47.70566" lon="-3.39072">
        <ele>17</ele>
        <time>2021-08-14T12:53:45Z</time>
      </trkpt>
      <trkpt lat="47.70568" lon="-3.39066">
        <ele>17.2</ele>
        <time>2021-08-14T12:53:46Z</time>
      </trkpt>
      <trkpt lat="47.7057" lon="-3.3906">
        <ele>17.2</ele>
        <time>2021-08-14T12:53:47Z</time>
      </trkpt>
      <trkpt lat="47.70572" lon="-3.39055">
        <ele>17.2</ele>
        <time>2021-08-14T12:53:48Z</time>
      </trkpt>
      <trkpt lat="47.70574" lon="-3.39049">
        <ele>17.4</ele>
        <time>2021-08-14T12:53:49Z</time>
      </trkpt>
      <trkpt lat="47.70576" lon="-3.39043">
        <ele>17.4</ele>
        <time>2021-08-14T12:53:50Z</time>
      </trkpt>
      <trkpt lat="47.70578" lon="-3.39037">
        <ele>17.6</ele>
        <time>2021-08-14T12:53:51Z</time>
      </trkpt>
      <trkpt lat="47.7058" lon="-3.39032">
        <ele>17.6</ele>
        <time>2021-08-14T12:53:52Z</time>
      </trkpt>
      <trkpt lat="47.70581" lon="-3.39026">
        <ele>17.6</ele>
        <time>2021-08-14T12:53:53Z</time>
      </trkpt>
      <trkpt lat="47.70583" lon="-3.3902">
        <ele>17.6</ele>
        <time>2021-08-14T12:53:54Z</time>
      </trkpt>
      <trkpt lat="47.70584" lon="-3.39013">
        <ele>17.8</ele>
        <time>2021-08-14T12:53:55Z</time>
      </trkpt>
      <trkpt lat="47.70586" lon="-3.39007">
        <ele>17.8</ele>
        <time>2021-08-14T12:53:56Z</time>
      </trkpt>
      <trkpt lat="47.70587" lon="-3.39001">
        <ele>17.8</ele>
        <time>2021-08-14T12:53:57Z</time>
      </trkpt>
      <trkpt lat="47.70588" lon="-3.38995">
        <ele>18</ele>
        <time>2021-08-14T12:53:58Z</time>
      </trkpt>
      <trkpt lat="47.70589" lon="-3.38989">
        <ele>18</ele>
        <time>2021-08-14T12:53:59Z</time>
      </trkpt>
      <trkpt lat="47.7059" lon="-3.38982">
        <ele>18</ele>
        <time>2021-08-14T12:54:00Z</time>
      </trkpt>
      <trkpt lat="47.7059" lon="-3.38976">
        <ele>18.2</ele>
        <time>2021-08-14T12:54:01Z</time>
      </trkpt>
      <trkpt lat="47.70591" lon="-3.3897">
        <ele>18.2</ele>
        <time>2021-08-14T12:54:02Z</time>
      </trkpt>
      <trkpt lat="47.70591" lon="-3.38964">
        <ele>18.2</ele>
        <time>2021-08-14T12:54:03Z</time>
      </trkpt>
      <trkpt lat="47.70592" lon="-3.38958">
        <ele>18.2</ele>
        <time>2021-08-14T12:54:04Z</time>
      </trkpt>
      <trkpt lat="47.70592" lon="-3.38952">
        <ele>18.4</ele>
        <time>2021-08-14T12:54:05Z</time>
      </trkpt>
      <trkpt lat="47.70593" lon="-3.38946">
        <ele>18.4</ele>
        <time>2021-08-14T12:54:06Z</time>
      </trkpt>
      <trkpt lat="47.70593" lon="-3.38939">
        <ele>18.4</ele>
        <time>2021-08-14T12:54:07Z</time>
      </trkpt>
      <trkpt lat="47.70593" lon="-3.38933">
        <ele>18.4</ele>
        <time>2021-08-14T12:54:08Z</time>
      </trkpt>
      <trkpt lat="47.70593" lon="-3.38926">
        <ele>18.4</ele>
        <time>2021-08-14T12:54:09Z</time>
      </trkpt>
      <trkpt lat="47.70593" lon="-3.3892">
        <ele>18.6</ele>
        <time>2021-08-14T12:54:10Z</time>
      </trkpt>
      <trkpt lat="47.70594" lon="-3.38913">
        <ele>18.6</ele>
        <time>2021-08-14T12:54:11Z</time>
      </trkpt>
      <trkpt lat="47.70594" lon="-3.38907">
        <ele>18.6</ele>
        <time>2021-08-14T12:54:12Z</time>
      </trkpt>
      <trkpt lat="47.70595" lon="-3.38901">
        <ele>18.6</ele>
        <time>2021-08-14T12:54:13Z</time>
      </trkpt>
      <trkpt lat="47.70596" lon="-3.38895">
        <ele>18.6</ele>
        <time>2021-08-14T12:54:14Z</time>
      </trkpt>
      <trkpt lat="47.70596" lon="-3.3889">
        <ele>18.6</ele>
        <time>2021-08-14T12:54:15Z</time>
      </trkpt>
      <trkpt lat="47.70596" lon="-3.38885">
        <ele>18.6</ele>
        <time>2021-08-14T12:54:16Z</time>
      </trkpt>
      <trkpt lat="47.70596" lon="-3.38879">
        <ele>18.6</ele>
        <time>2021-08-14T12:54:17Z</time>
      </trkpt>
      <trkpt lat="47.70597" lon="-3.38874">
        <ele>18.6</ele>
        <time>2021-08-14T12:54:18Z</time>
      </trkpt>
      <trkpt lat="47.70598" lon="-3.38868">
        <ele>18.6</ele>
        <time>2021-08-14T12:54:19Z</time>
      </trkpt>
      <trkpt lat="47.70598" lon="-3.38862">
        <ele>18.6</ele>
        <time>2021-08-14T12:54:20Z</time>
      </trkpt>
      <trkpt lat="47.70599" lon="-3.38857">
        <ele>18.6</ele>
        <time>2021-08-14T12:54:21Z</time>
      </trkpt>
      <trkpt lat="47.706" lon="-3.38851">
        <ele>18.6</ele>
        <time>2021-08-14T12:54:22Z</time>
      </trkpt>
      <trkpt lat="47.70601" lon="-3.38845">
        <ele>18.6</ele>
        <time>2021-08-14T12:54:23Z</time>
      </trkpt>
      <trkpt lat="47.70602" lon="-3.38839">
        <ele>18.6</ele>
        <time>2021-08-14T12:54:24Z</time>
      </trkpt>
      <trkpt lat="47.70604" lon="-3.38833">
        <ele>18.6</ele>
        <time>2021-08-14T12:54:25Z</time>
      </trkpt>
      <trkpt lat="47.70605" lon="-3.38827">
        <ele>18.6</ele>
        <time>2021-08-14T12:54:26Z</time>
      </trkpt>
      <trkpt lat="47.70606" lon="-3.3882">
        <ele>18.6</ele>
        <time>2021-08-14T12:54:27Z</time>
      </trkpt>
      <trkpt lat="47.70607" lon="-3.38813">
        <ele>18.6</ele>
        <time>2021-08-14T12:54:28Z</time>
      </trkpt>
      <trkpt lat="47.70608" lon="-3.38806">
        <ele>18.6</ele>
        <time>2021-08-14T12:54:29Z</time>
      </trkpt>
      <trkpt lat="47.70609" lon="-3.38798">
        <ele>18.6</ele>
        <time>2021-08-14T12:54:30Z</time>
      </trkpt>
      <trkpt lat="47.70611" lon="-3.38791">
        <ele>18.6</ele>
        <time>2021-08-14T12:54:31Z</time>
      </trkpt>
      <trkpt lat="47.70612" lon="-3.38784">
        <ele>18.6</ele>
        <time>2021-08-14T12:54:32Z</time>
      </trkpt>
      <trkpt lat="47.70614" lon="-3.38776">
        <ele>18.6</ele>
        <time>2021-08-14T12:54:33Z</time>
      </trkpt>
      <trkpt lat="47.70616" lon="-3.38768">
        <ele>18.6</ele>
        <time>2021-08-14T12:54:34Z</time>
      </trkpt>
      <trkpt lat="47.70617" lon="-3.3876">
        <ele>18.6</ele>
        <time>2021-08-14T12:54:35Z</time>
      </trkpt>
      <trkpt lat="47.70618" lon="-3.38752">
        <ele>18.6</ele>
        <time>2021-08-14T12:54:36Z</time>
      </trkpt>
      <trkpt lat="47.7062" lon="-3.38744">
        <ele>18.6</ele>
        <time>2021-08-14T12:54:37Z</time>
      </trkpt>
      <trkpt lat="47.70621" lon="-3.38736">
        <ele>18.4</ele>
        <time>2021-08-14T12:54:38Z</time>
      </trkpt>
      <trkpt lat="47.70622" lon="-3.38728">
        <ele>18.4</ele>
        <time>2021-08-14T12:54:39Z</time>
      </trkpt>
      <trkpt lat="47.70623" lon="-3.3872">
        <ele>18.2</ele>
        <time>2021-08-14T12:54:40Z</time>
      </trkpt>
      <trkpt lat="47.70624" lon="-3.38712">
        <ele>18.2</ele>
        <time>2021-08-14T12:54:41Z</time>
      </trkpt>
      <trkpt lat="47.70624" lon="-3.38704">
        <ele>18</ele>
        <time>2021-08-14T12:54:42Z</time>
      </trkpt>
      <trkpt lat="47.70625" lon="-3.38695">
        <ele>18</ele>
        <time>2021-08-14T12:54:43Z</time>
      </trkpt>
      <trkpt lat="47.70626" lon="-3.38687">
        <ele>17.8</ele>
        <time>2021-08-14T12:54:44Z</time>
      </trkpt>
      <trkpt lat="47.70627" lon="-3.38678">
        <ele>17.8</ele>
        <time>2021-08-14T12:54:45Z</time>
      </trkpt>
      <trkpt lat="47.70629" lon="-3.3867">
        <ele>17.8</ele>
        <time>2021-08-14T12:54:46Z</time>
      </trkpt>
      <trkpt lat="47.7063" lon="-3.38661">
        <ele>17.8</ele>
        <time>2021-08-14T12:54:47Z</time>
      </trkpt>
      <trkpt lat="47.70631" lon="-3.38652">
        <ele>17.6</ele>
        <time>2021-08-14T12:54:48Z</time>
      </trkpt>
      <trkpt lat="47.70632" lon="-3.38643">
        <ele>17.6</ele>
        <time>2021-08-14T12:54:49Z</time>
      </trkpt>
      <trkpt lat="47.70632" lon="-3.38634">
        <ele>17.4</ele>
        <time>2021-08-14T12:54:50Z</time>
      </trkpt>
      <trkpt lat="47.70633" lon="-3.38624">
        <ele>17</ele>
        <time>2021-08-14T12:54:51Z</time>
      </trkpt>
      <trkpt lat="47.70633" lon="-3.38614">
        <ele>16.8</ele>
        <time>2021-08-14T12:54:52Z</time>
      </trkpt>
      <trkpt lat="47.70634" lon="-3.38604">
        <ele>16.8</ele>
        <time>2021-08-14T12:54:53Z</time>
      </trkpt>
      <trkpt lat="47.70634" lon="-3.38594">
        <ele>16.6</ele>
        <time>2021-08-14T12:54:54Z</time>
      </trkpt>
      <trkpt lat="47.70634" lon="-3.38584">
        <ele>16.6</ele>
        <time>2021-08-14T12:54:55Z</time>
      </trkpt>
      <trkpt lat="47.70634" lon="-3.38574">
        <ele>16.4</ele>
        <time>2021-08-14T12:54:56Z</time>
      </trkpt>
      <trkpt lat="47.70634" lon="-3.38564">
        <ele>16.2</ele>
        <time>2021-08-14T12:54:57Z</time>
      </trkpt>
      <trkpt lat="47.70634" lon="-3.38554">
        <ele>15.8</ele>
        <time>2021-08-14T12:54:58Z</time>
      </trkpt>
      <trkpt lat="47.70634" lon="-3.38544">
        <ele>15.4</ele>
        <time>2021-08-14T12:54:59Z</time>
      </trkpt>
      <trkpt lat="47.70634" lon="-3.38535">
        <ele>15.2</ele>
        <time>2021-08-14T12:55:00Z</time>
      </trkpt>
      <trkpt lat="47.70634" lon="-3.38526">
        <ele>14.8</ele>
        <time>2021-08-14T12:55:01Z</time>
      </trkpt>
      <trkpt lat="47.70634" lon="-3.38517">
        <ele>14.6</ele>
        <time>2021-08-14T12:55:02Z</time>
      </trkpt>
      <trkpt lat="47.70634" lon="-3.38509">
        <ele>14.4</ele>
        <time>2021-08-14T12:55:03Z</time>
      </trkpt>
      <trkpt lat="47.70634" lon="-3.38501">
        <ele>14.4</ele>
        <time>2021-08-14T12:55:04Z</time>
      </trkpt>
      <trkpt lat="47.70633" lon="-3.38495">
        <ele>14.4</ele>
        <time>2021-08-14T12:55:05Z</time>
      </trkpt>
      <trkpt lat="47.70632" lon="-3.38489">
        <ele>14.4</ele>
        <time>2021-08-14T12:55:06Z</time>
      </trkpt>
      <trkpt lat="47.70631" lon="-3.38483">
        <ele>14.4</ele>
        <time>2021-08-14T12:55:07Z</time>
      </trkpt>
      <trkpt lat="47.7063" lon="-3.38478">
        <ele>14.4</ele>
        <time>2021-08-14T12:55:08Z</time>
      </trkpt>
      <trkpt lat="47.70629" lon="-3.38473">
        <ele>14.4</ele>
        <time>2021-08-14T12:55:09Z</time>
      </trkpt>
      <trkpt lat="47.70629" lon="-3.38469">
        <ele>14.4</ele>
        <time>2021-08-14T12:55:10Z</time>
      </trkpt>
      <trkpt lat="47.70629" lon="-3.38465">
        <ele>14.4</ele>
        <time>2021-08-14T12:55:11Z</time>
      </trkpt>
      <trkpt lat="47.7063" lon="-3.38461">
        <ele>14.6</ele>
        <time>2021-08-14T12:55:12Z</time>
      </trkpt>
      <trkpt lat="47.70631" lon="-3.38458">
        <ele>14.8</ele>
        <time>2021-08-14T12:55:13Z</time>
      </trkpt>
      <trkpt lat="47.70633" lon="-3.38455">
        <ele>14.8</ele>
        <time>2021-08-14T12:55:14Z</time>
      </trkpt>
      <trkpt lat="47.70634" lon="-3.38451">
        <ele>15</ele>
        <time>2021-08-14T12:55:15Z</time>
      </trkpt>
      <trkpt lat="47.70636" lon="-3.38448">
        <ele>15</ele>
        <time>2021-08-14T12:55:16Z</time>
      </trkpt>
      <trkpt lat="47.70639" lon="-3.38445">
        <ele>15</ele>
        <time>2021-08-14T12:55:17Z</time>
      </trkpt>
      <trkpt lat="47.70641" lon="-3.38442">
        <ele>15.2</ele>
        <time>2021-08-14T12:55:18Z</time>
      </trkpt>
      <trkpt lat="47.70645" lon="-3.3844">
        <ele>15.4</ele>
        <time>2021-08-14T12:55:19Z</time>
      </trkpt>
      <trkpt lat="47.70648" lon="-3.38437">
        <ele>15.4</ele>
        <time>2021-08-14T12:55:20Z</time>
      </trkpt>
      <trkpt lat="47.70651" lon="-3.38435">
        <ele>15.4</ele>
        <time>2021-08-14T12:55:21Z</time>
      </trkpt>
      <trkpt lat="47.70654" lon="-3.38432">
        <ele>15.6</ele>
        <time>2021-08-14T12:55:22Z</time>
      </trkpt>
      <trkpt lat="47.70657" lon="-3.3843">
        <ele>15.6</ele>
        <time>2021-08-14T12:55:23Z</time>
      </trkpt>
      <trkpt lat="47.70661" lon="-3.38427">
        <ele>15.8</ele>
        <time>2021-08-14T12:55:24Z</time>
      </trkpt>
      <trkpt lat="47.70664" lon="-3.38425">
        <ele>15.8</ele>
        <time>2021-08-14T12:55:25Z</time>
      </trkpt>
      <trkpt lat="47.70667" lon="-3.38422">
        <ele>15.8</ele>
        <time>2021-08-14T12:55:26Z</time>
      </trkpt>
      <trkpt lat="47.70671" lon="-3.3842">
        <ele>16</ele>
        <time>2021-08-14T12:55:27Z</time>
      </trkpt>
      <trkpt lat="47.70674" lon="-3.38417">
        <ele>16</ele>
        <time>2021-08-14T12:55:28Z</time>
      </trkpt>
      <trkpt lat="47.70676" lon="-3.38414">
        <ele>16</ele>
        <time>2021-08-14T12:55:29Z</time>
      </trkpt>
      <trkpt lat="47.70678" lon="-3.3841">
        <ele>16.2</ele>
        <time>2021-08-14T12:55:30Z</time>
      </trkpt>
      <trkpt lat="47.7068" lon="-3.38406">
        <ele>16.2</ele>
        <time>2021-08-14T12:55:31Z</time>
      </trkpt>
      <trkpt lat="47.70681" lon="-3.38402">
        <ele>16.4</ele>
        <time>2021-08-14T12:55:32Z</time>
      </trkpt>
      <trkpt lat="47.70681" lon="-3.38398">
        <ele>16.4</ele>
        <time>2021-08-14T12:55:33Z</time>
      </trkpt>
      <trkpt lat="47.70681" lon="-3.38396">
        <ele>16.6</ele>
        <time>2021-08-14T12:55:34Z</time>
      </trkpt>
      <trkpt lat="47.70681" lon="-3.38394">
        <ele>16.6</ele>
        <time>2021-08-14T12:55:35Z</time>
      </trkpt>
      <trkpt lat="47.70681" lon="-3.38393">
        <ele>16.8</ele>
        <time>2021-08-14T12:55:36Z</time>
      </trkpt>
      <trkpt lat="47.70681" lon="-3.38392">
        <ele>16.8</ele>
        <time>2021-08-14T12:55:37Z</time>
      </trkpt>
      <trkpt lat="47.70682" lon="-3.38391">
        <ele>17</ele>
        <time>2021-08-14T12:55:42Z</time>
      </trkpt>
      <trkpt lat="47.70682" lon="-3.38389">
        <ele>17.2</ele>
        <time>2021-08-14T12:55:43Z</time>
      </trkpt>
      <trkpt lat="47.70683" lon="-3.38388">
        <ele>17.2</ele>
        <time>2021-08-14T12:55:44Z</time>
      </trkpt>
      <trkpt lat="47.70684" lon="-3.38387">
        <ele>17.2</ele>
        <time>2021-08-14T12:55:45Z</time>
      </trkpt>
      <trkpt lat="47.70686" lon="-3.38387">
        <ele>17.2</ele>
        <time>2021-08-14T12:55:46Z</time>
      </trkpt>
      <trkpt lat="47.70687" lon="-3.38385">
        <ele>17.2</ele>
        <time>2021-08-14T12:55:47Z</time>
      </trkpt>
      <trkpt lat="47.70688" lon="-3.38384">
        <ele>17.2</ele>
        <time>2021-08-14T12:55:48Z</time>
      </trkpt>
      <trkpt lat="47.70689" lon="-3.38382">
        <ele>17.2</ele>
        <time>2021-08-14T12:55:49Z</time>
      </trkpt>
      <trkpt lat="47.70691" lon="-3.38379">
        <ele>17.2</ele>
        <time>2021-08-14T12:55:50Z</time>
      </trkpt>
      <trkpt lat="47.70692" lon="-3.38376">
        <ele>17.2</ele>
        <time>2021-08-14T12:55:51Z</time>
      </trkpt>
      <trkpt lat="47.70693" lon="-3.38372">
        <ele>17.2</ele>
        <time>2021-08-14T12:55:52Z</time>
      </trkpt>
      <trkpt lat="47.70694" lon="-3.38367">
        <ele>17.2</ele>
        <time>2021-08-14T12:55:53Z</time>
      </trkpt>
      <trkpt lat="47.70694" lon="-3.38362">
        <ele>17.2</ele>
        <time>2021-08-14T12:55:54Z</time>
      </trkpt>
      <trkpt lat="47.70695" lon="-3.38357">
        <ele>17.2</ele>
        <time>2021-08-14T12:55:55Z</time>
      </trkpt>
      <trkpt lat="47.70695" lon="-3.38353">
        <ele>17.2</ele>
        <time>2021-08-14T12:55:56Z</time>
      </trkpt>
      <trkpt lat="47.70696" lon="-3.38348">
        <ele>17.2</ele>
        <time>2021-08-14T12:55:57Z</time>
      </trkpt>
      <trkpt lat="47.70696" lon="-3.38342">
        <ele>17</ele>
        <time>2021-08-14T12:55:58Z</time>
      </trkpt>
      <trkpt lat="47.70697" lon="-3.38337">
        <ele>17</ele>
        <time>2021-08-14T12:55:59Z</time>
      </trkpt>
      <trkpt lat="47.70698" lon="-3.3833">
        <ele>17</ele>
        <time>2021-08-14T12:56:00Z</time>
      </trkpt>
      <trkpt lat="47.70699" lon="-3.38324">
        <ele>17</ele>
        <time>2021-08-14T12:56:01Z</time>
      </trkpt>
      <trkpt lat="47.707" lon="-3.38318">
        <ele>16.8</ele>
        <time>2021-08-14T12:56:02Z</time>
      </trkpt>
      <trkpt lat="47.707" lon="-3.38311">
        <ele>16.8</ele>
        <time>2021-08-14T12:56:03Z</time>
      </trkpt>
      <trkpt lat="47.70701" lon="-3.38305">
        <ele>16.8</ele>
        <time>2021-08-14T12:56:04Z</time>
      </trkpt>
      <trkpt lat="47.70702" lon="-3.38298">
        <ele>16.6</ele>
        <time>2021-08-14T12:56:05Z</time>
      </trkpt>
      <trkpt lat="47.70703" lon="-3.38291">
        <ele>16.6</ele>
        <time>2021-08-14T12:56:06Z</time>
      </trkpt>
      <trkpt lat="47.70704" lon="-3.38284">
        <ele>16.6</ele>
        <time>2021-08-14T12:56:07Z</time>
      </trkpt>
      <trkpt lat="47.70704" lon="-3.38277">
        <ele>16.4</ele>
        <time>2021-08-14T12:56:08Z</time>
      </trkpt>
      <trkpt lat="47.70705" lon="-3.3827">
        <ele>16.4</ele>
        <time>2021-08-14T12:56:09Z</time>
      </trkpt>
      <trkpt lat="47.70706" lon="-3.38263">
        <ele>16.2</ele>
        <time>2021-08-14T12:56:10Z</time>
      </trkpt>
      <trkpt lat="47.70707" lon="-3.38256">
        <ele>16</ele>
        <time>2021-08-14T12:56:11Z</time>
      </trkpt>
      <trkpt lat="47.70707" lon="-3.38249">
        <ele>15.8</ele>
        <time>2021-08-14T12:56:12Z</time>
      </trkpt>
      <trkpt lat="47.70707" lon="-3.38242">
        <ele>15.6</ele>
        <time>2021-08-14T12:56:13Z</time>
      </trkpt>
      <trkpt lat="47.70707" lon="-3.38235">
        <ele>15.6</ele>
        <time>2021-08-14T12:56:14Z</time>
      </trkpt>
      <trkpt lat="47.70706" lon="-3.38229">
        <ele>15.4</ele>
        <time>2021-08-14T12:56:15Z</time>
      </trkpt>
      <trkpt lat="47.70705" lon="-3.38222">
        <ele>15</ele>
        <time>2021-08-14T12:56:16Z</time>
      </trkpt>
      <trkpt lat="47.70704" lon="-3.38216">
        <ele>15</ele>
        <time>2021-08-14T12:56:17Z</time>
      </trkpt>
      <trkpt lat="47.70703" lon="-3.3821">
        <ele>14.8</ele>
        <time>2021-08-14T12:56:18Z</time>
      </trkpt>
      <trkpt lat="47.70702" lon="-3.38205">
        <ele>14.8</ele>
        <time>2021-08-14T12:56:19Z</time>
      </trkpt>
      <trkpt lat="47.70702" lon="-3.38199">
        <ele>14.8</ele>
        <time>2021-08-14T12:56:20Z</time>
      </trkpt>
      <trkpt lat="47.70702" lon="-3.38194">
        <ele>14.6</ele>
        <time>2021-08-14T12:56:21Z</time>
      </trkpt>
      <trkpt lat="47.70703" lon="-3.38189">
        <ele>14.6</ele>
        <time>2021-08-14T12:56:22Z</time>
      </trkpt>
      <trkpt lat="47.70706" lon="-3.38185">
        <ele>14.6</ele>
        <time>2021-08-14T12:56:23Z</time>
      </trkpt>
      <trkpt lat="47.70709" lon="-3.38183">
        <ele>14.6</ele>
        <time>2021-08-14T12:56:24Z</time>
      </trkpt>
      <trkpt lat="47.70712" lon="-3.38181">
        <ele>14.4</ele>
        <time>2021-08-14T12:56:25Z</time>
      </trkpt>
      <trkpt lat="47.70716" lon="-3.38179">
        <ele>14.2</ele>
        <time>2021-08-14T12:56:26Z</time>
      </trkpt>
      <trkpt lat="47.7072" lon="-3.38177">
        <ele>14</ele>
        <time>2021-08-14T12:56:27Z</time>
      </trkpt>
      <trkpt lat="47.70725" lon="-3.38175">
        <ele>13.8</ele>
        <time>2021-08-14T12:56:28Z</time>
      </trkpt>
      <trkpt lat="47.70729" lon="-3.38173">
        <ele>13.8</ele>
        <time>2021-08-14T12:56:29Z</time>
      </trkpt>
      <trkpt lat="47.70733" lon="-3.38171">
        <ele>13.8</ele>
        <time>2021-08-14T12:56:30Z</time>
      </trkpt>
      <trkpt lat="47.70737" lon="-3.3817">
        <ele>13.6</ele>
        <time>2021-08-14T12:56:31Z</time>
      </trkpt>
      <trkpt lat="47.70741" lon="-3.38169">
        <ele>13.6</ele>
        <time>2021-08-14T12:56:32Z</time>
      </trkpt>
      <trkpt lat="47.70744" lon="-3.38166">
        <ele>13.6</ele>
        <time>2021-08-14T12:56:33Z</time>
      </trkpt>
      <trkpt lat="47.70748" lon="-3.38164">
        <ele>13.4</ele>
        <time>2021-08-14T12:56:34Z</time>
      </trkpt>
      <trkpt lat="47.70752" lon="-3.38161">
        <ele>13.2</ele>
        <time>2021-08-14T12:56:35Z</time>
      </trkpt>
      <trkpt lat="47.70755" lon="-3.38158">
        <ele>13.2</ele>
        <time>2021-08-14T12:56:36Z</time>
      </trkpt>
      <trkpt lat="47.70758" lon="-3.38154">
        <ele>13</ele>
        <time>2021-08-14T12:56:37Z</time>
      </trkpt>
      <trkpt lat="47.70761" lon="-3.38151">
        <ele>12.8</ele>
        <time>2021-08-14T12:56:38Z</time>
      </trkpt>
      <trkpt lat="47.70764" lon="-3.38147">
        <ele>12.6</ele>
        <time>2021-08-14T12:56:39Z</time>
      </trkpt>
      <trkpt lat="47.70767" lon="-3.38143">
        <ele>12.2</ele>
        <time>2021-08-14T12:56:40Z</time>
      </trkpt>
      <trkpt lat="47.7077" lon="-3.38139">
        <ele>12</ele>
        <time>2021-08-14T12:56:41Z</time>
      </trkpt>
      <trkpt lat="47.70772" lon="-3.38134">
        <ele>12</ele>
        <time>2021-08-14T12:56:42Z</time>
      </trkpt>
      <trkpt lat="47.70775" lon="-3.3813">
        <ele>11.8</ele>
        <time>2021-08-14T12:56:43Z</time>
      </trkpt>
      <trkpt lat="47.70778" lon="-3.38126">
        <ele>11.8</ele>
        <time>2021-08-14T12:56:44Z</time>
      </trkpt>
      <trkpt lat="47.7078" lon="-3.38121">
        <ele>11.8</ele>
        <time>2021-08-14T12:56:45Z</time>
      </trkpt>
      <trkpt lat="47.70783" lon="-3.38116">
        <ele>11.8</ele>
        <time>2021-08-14T12:56:46Z</time>
      </trkpt>
      <trkpt lat="47.70786" lon="-3.38112">
        <ele>11.8</ele>
        <time>2021-08-14T12:56:47Z</time>
      </trkpt>
      <trkpt lat="47.70789" lon="-3.38107">
        <ele>11.8</ele>
        <time>2021-08-14T12:56:48Z</time>
      </trkpt>
      <trkpt lat="47.70791" lon="-3.38103">
        <ele>11.8</ele>
        <time>2021-08-14T12:56:49Z</time>
      </trkpt>
      <trkpt lat="47.70794" lon="-3.38098">
        <ele>11.8</ele>
        <time>2021-08-14T12:56:50Z</time>
      </trkpt>
      <trkpt lat="47.70797" lon="-3.38093">
        <ele>11.6</ele>
        <time>2021-08-14T12:56:51Z</time>
      </trkpt>
      <trkpt lat="47.70799" lon="-3.38089">
        <ele>11.6</ele>
        <time>2021-08-14T12:56:52Z</time>
      </trkpt>
      <trkpt lat="47.70802" lon="-3.38085">
        <ele>11.6</ele>
        <time>2021-08-14T12:56:53Z</time>
      </trkpt>
      <trkpt lat="47.70804" lon="-3.38081">
        <ele>11.6</ele>
        <time>2021-08-14T12:56:54Z</time>
      </trkpt>
      <trkpt lat="47.70805" lon="-3.38078">
        <ele>11.6</ele>
        <time>2021-08-14T12:56:55Z</time>
      </trkpt>
      <trkpt lat="47.70807" lon="-3.38076">
        <ele>11.6</ele>
        <time>2021-08-14T12:56:56Z</time>
      </trkpt>
      <trkpt lat="47.70809" lon="-3.38073">
        <ele>11.6</ele>
        <time>2021-08-14T12:56:57Z</time>
      </trkpt>
      <trkpt lat="47.70811" lon="-3.3807">
        <ele>11.6</ele>
        <time>2021-08-14T12:56:58Z</time>
      </trkpt>
      <trkpt lat="47.70813" lon="-3.38066">
        <ele>11.6</ele>
        <time>2021-08-14T12:56:59Z</time>
      </trkpt>
      <trkpt lat="47.70814" lon="-3.38062">
        <ele>11.6</ele>
        <time>2021-08-14T12:57:00Z</time>
      </trkpt>
      <trkpt lat="47.70817" lon="-3.38059">
        <ele>11.6</ele>
        <time>2021-08-14T12:57:01Z</time>
      </trkpt>
      <trkpt lat="47.70819" lon="-3.38055">
        <ele>11.6</ele>
        <time>2021-08-14T12:57:02Z</time>
      </trkpt>
      <trkpt lat="47.70821" lon="-3.38051">
        <ele>11.6</ele>
        <time>2021-08-14T12:57:03Z</time>
      </trkpt>
      <trkpt lat="47.70823" lon="-3.38046">
        <ele>11.6</ele>
        <time>2021-08-14T12:57:04Z</time>
      </trkpt>
      <trkpt lat="47.70825" lon="-3.38042">
        <ele>11.6</ele>
        <time>2021-08-14T12:57:05Z</time>
      </trkpt>
      <trkpt lat="47.70827" lon="-3.38036">
        <ele>11.6</ele>
        <time>2021-08-14T12:57:06Z</time>
      </trkpt>
      <trkpt lat="47.70829" lon="-3.38031">
        <ele>11.6</ele>
        <time>2021-08-14T12:57:07Z</time>
      </trkpt>
      <trkpt lat="47.70831" lon="-3.38026">
        <ele>11.6</ele>
        <time>2021-08-14T12:57:08Z</time>
      </trkpt>
      <trkpt lat="47.70833" lon="-3.3802">
        <ele>11.6</ele>
        <time>2021-08-14T12:57:09Z</time>
      </trkpt>
      <trkpt lat="47.70835" lon="-3.38013">
        <ele>11.6</ele>
        <time>2021-08-14T12:57:10Z</time>
      </trkpt>
      <trkpt lat="47.70837" lon="-3.38007">
        <ele>11.6</ele>
        <time>2021-08-14T12:57:11Z</time>
      </trkpt>
      <trkpt lat="47.70839" lon="-3.38001">
        <ele>11.6</ele>
        <time>2021-08-14T12:57:12Z</time>
      </trkpt>
      <trkpt lat="47.7084" lon="-3.37994">
        <ele>11.6</ele>
        <time>2021-08-14T12:57:13Z</time>
      </trkpt>
      <trkpt lat="47.70842" lon="-3.37988">
        <ele>11.6</ele>
        <time>2021-08-14T12:57:14Z</time>
      </trkpt>
      <trkpt lat="47.70843" lon="-3.37982">
        <ele>11.6</ele>
        <time>2021-08-14T12:57:15Z</time>
      </trkpt>
      <trkpt lat="47.70845" lon="-3.37976">
        <ele>11.6</ele>
        <time>2021-08-14T12:57:16Z</time>
      </trkpt>
      <trkpt lat="47.70846" lon="-3.37969">
        <ele>11.6</ele>
        <time>2021-08-14T12:57:17Z</time>
      </trkpt>
      <trkpt lat="47.70848" lon="-3.37963">
        <ele>11.6</ele>
        <time>2021-08-14T12:57:18Z</time>
      </trkpt>
      <trkpt lat="47.70849" lon="-3.37957">
        <ele>11.6</ele>
        <time>2021-08-14T12:57:19Z</time>
      </trkpt>
      <trkpt lat="47.70851" lon="-3.37951">
        <ele>11.6</ele>
        <time>2021-08-14T12:57:20Z</time>
      </trkpt>
      <trkpt lat="47.70853" lon="-3.37945">
        <ele>11.6</ele>
        <time>2021-08-14T12:57:21Z</time>
      </trkpt>
      <trkpt lat="47.70854" lon="-3.37939">
        <ele>11.6</ele>
        <time>2021-08-14T12:57:22Z</time>
      </trkpt>
      <trkpt lat="47.70855" lon="-3.37934">
        <ele>11.6</ele>
        <time>2021-08-14T12:57:23Z</time>
      </trkpt>
      <trkpt lat="47.70857" lon="-3.37928">
        <ele>11.6</ele>
        <time>2021-08-14T12:57:24Z</time>
      </trkpt>
      <trkpt lat="47.70858" lon="-3.37924">
        <ele>11.6</ele>
        <time>2021-08-14T12:57:25Z</time>
      </trkpt>
      <trkpt lat="47.7086" lon="-3.3792">
        <ele>11.6</ele>
        <time>2021-08-14T12:57:26Z</time>
      </trkpt>
      <trkpt lat="47.70862" lon="-3.37918">
        <ele>11.6</ele>
        <time>2021-08-14T12:57:27Z</time>
      </trkpt>
      <trkpt lat="47.70863" lon="-3.37916">
        <ele>11.6</ele>
        <time>2021-08-14T12:57:28Z</time>
      </trkpt>
      <trkpt lat="47.70865" lon="-3.37914">
        <ele>11.6</ele>
        <time>2021-08-14T12:57:29Z</time>
      </trkpt>
      <trkpt lat="47.70866" lon="-3.37912">
        <ele>11.6</ele>
        <time>2021-08-14T12:57:30Z</time>
      </trkpt>
      <trkpt lat="47.70866" lon="-3.3791">
        <ele>11.6</ele>
        <time>2021-08-14T12:57:31Z</time>
      </trkpt>
      <trkpt lat="47.70868" lon="-3.37909">
        <ele>11.6</ele>
        <time>2021-08-14T12:57:32Z</time>
      </trkpt>
      <trkpt lat="47.7087" lon="-3.3791">
        <ele>11.6</ele>
        <time>2021-08-14T12:57:33Z</time>
      </trkpt>
      <trkpt lat="47.70872" lon="-3.37911">
        <ele>11.8</ele>
        <time>2021-08-14T12:57:34Z</time>
      </trkpt>
      <trkpt lat="47.70874" lon="-3.37912">
        <ele>11.8</ele>
        <time>2021-08-14T12:57:35Z</time>
      </trkpt>
      <trkpt lat="47.70877" lon="-3.37913">
        <ele>11.8</ele>
        <time>2021-08-14T12:57:36Z</time>
      </trkpt>
      <trkpt lat="47.7088" lon="-3.37913">
        <ele>11.8</ele>
        <time>2021-08-14T12:57:37Z</time>
      </trkpt>
      <trkpt lat="47.70883" lon="-3.37913">
        <ele>12</ele>
        <time>2021-08-14T12:57:38Z</time>
      </trkpt>
      <trkpt lat="47.70886" lon="-3.37913">
        <ele>12</ele>
        <time>2021-08-14T12:57:39Z</time>
      </trkpt>
      <trkpt lat="47.70889" lon="-3.37914">
        <ele>12</ele>
        <time>2021-08-14T12:57:40Z</time>
      </trkpt>
      <trkpt lat="47.70892" lon="-3.37915">
        <ele>12</ele>
        <time>2021-08-14T12:57:41Z</time>
      </trkpt>
      <trkpt lat="47.70895" lon="-3.37916">
        <ele>12</ele>
        <time>2021-08-14T12:57:42Z</time>
      </trkpt>
      <trkpt lat="47.70898" lon="-3.37917">
        <ele>12</ele>
        <time>2021-08-14T12:57:43Z</time>
      </trkpt>
      <trkpt lat="47.70901" lon="-3.37919">
        <ele>12</ele>
        <time>2021-08-14T12:57:44Z</time>
      </trkpt>
      <trkpt lat="47.70903" lon="-3.37923">
        <ele>12</ele>
        <time>2021-08-14T12:57:45Z</time>
      </trkpt>
      <trkpt lat="47.70905" lon="-3.37928">
        <ele>11.8</ele>
        <time>2021-08-14T12:57:46Z</time>
      </trkpt>
      <trkpt lat="47.70907" lon="-3.37932">
        <ele>11.8</ele>
        <time>2021-08-14T12:57:47Z</time>
      </trkpt>
      <trkpt lat="47.70909" lon="-3.37936">
        <ele>11.8</ele>
        <time>2021-08-14T12:57:48Z</time>
      </trkpt>
      <trkpt lat="47.70911" lon="-3.3794">
        <ele>11.8</ele>
        <time>2021-08-14T12:57:49Z</time>
      </trkpt>
      <trkpt lat="47.70913" lon="-3.37944">
        <ele>11.8</ele>
        <time>2021-08-14T12:57:50Z</time>
      </trkpt>
      <trkpt lat="47.70915" lon="-3.37947">
        <ele>11.8</ele>
        <time>2021-08-14T12:57:51Z</time>
      </trkpt>
      <trkpt lat="47.70918" lon="-3.37949">
        <ele>11.8</ele>
        <time>2021-08-14T12:57:52Z</time>
      </trkpt>
      <trkpt lat="47.70921" lon="-3.3795">
        <ele>11.6</ele>
        <time>2021-08-14T12:57:53Z</time>
      </trkpt>
      <trkpt lat="47.70924" lon="-3.3795">
        <ele>11.4</ele>
        <time>2021-08-14T12:57:54Z</time>
      </trkpt>
      <trkpt lat="47.70927" lon="-3.3795">
        <ele>11.4</ele>
        <time>2021-08-14T12:57:55Z</time>
      </trkpt>
      <trkpt lat="47.7093" lon="-3.37949">
        <ele>11.4</ele>
        <time>2021-08-14T12:57:56Z</time>
      </trkpt>
      <trkpt lat="47.70933" lon="-3.37948">
        <ele>11.4</ele>
        <time>2021-08-14T12:57:57Z</time>
      </trkpt>
      <trkpt lat="47.70937" lon="-3.37947">
        <ele>11.4</ele>
        <time>2021-08-14T12:57:58Z</time>
      </trkpt>
      <trkpt lat="47.7094" lon="-3.37944">
        <ele>11.4</ele>
        <time>2021-08-14T12:57:59Z</time>
      </trkpt>
      <trkpt lat="47.70943" lon="-3.3794">
        <ele>11.4</ele>
        <time>2021-08-14T12:58:00Z</time>
      </trkpt>
      <trkpt lat="47.70946" lon="-3.37936">
        <ele>11.2</ele>
        <time>2021-08-14T12:58:01Z</time>
      </trkpt>
      <trkpt lat="47.70949" lon="-3.37931">
        <ele>11.2</ele>
        <time>2021-08-14T12:58:02Z</time>
      </trkpt>
      <trkpt lat="47.70952" lon="-3.37927">
        <ele>11.2</ele>
        <time>2021-08-14T12:58:03Z</time>
      </trkpt>
      <trkpt lat="47.70957" lon="-3.37918">
        <ele>11</ele>
        <time>2021-08-14T12:58:05Z</time>
      </trkpt>
      <trkpt lat="47.7096" lon="-3.37913">
        <ele>11</ele>
        <time>2021-08-14T12:58:06Z</time>
      </trkpt>
      <trkpt lat="47.70962" lon="-3.37909">
        <ele>11</ele>
        <time>2021-08-14T12:58:07Z</time>
      </trkpt>
      <trkpt lat="47.70965" lon="-3.37904">
        <ele>11</ele>
        <time>2021-08-14T12:58:08Z</time>
      </trkpt>
      <trkpt lat="47.70967" lon="-3.37899">
        <ele>11</ele>
        <time>2021-08-14T12:58:09Z</time>
      </trkpt>
      <trkpt lat="47.70969" lon="-3.37895">
        <ele>11</ele>
        <time>2021-08-14T12:58:10Z</time>
      </trkpt>
      <trkpt lat="47.70971" lon="-3.37891">
        <ele>11</ele>
        <time>2021-08-14T12:58:11Z</time>
      </trkpt>
      <trkpt lat="47.70973" lon="-3.37887">
        <ele>11</ele>
        <time>2021-08-14T12:58:12Z</time>
      </trkpt>
      <trkpt lat="47.70975" lon="-3.37883">
        <ele>11</ele>
        <time>2021-08-14T12:58:13Z</time>
      </trkpt>
      <trkpt lat="47.70977" lon="-3.37879">
        <ele>11</ele>
        <time>2021-08-14T12:58:14Z</time>
      </trkpt>
      <trkpt lat="47.70978" lon="-3.37875">
        <ele>11</ele>
        <time>2021-08-14T12:58:15Z</time>
      </trkpt>
      <trkpt lat="47.70978" lon="-3.37871">
        <ele>11</ele>
        <time>2021-08-14T12:58:16Z</time>
      </trkpt>
      <trkpt lat="47.70977" lon="-3.37867">
        <ele>11</ele>
        <time>2021-08-14T12:58:17Z</time>
      </trkpt>
      <trkpt lat="47.70976" lon="-3.37863">
        <ele>11</ele>
        <time>2021-08-14T12:58:18Z</time>
      </trkpt>
      <trkpt lat="47.70974" lon="-3.3786">
        <ele>11</ele>
        <time>2021-08-14T12:58:19Z</time>
      </trkpt>
      <trkpt lat="47.70972" lon="-3.37857">
        <ele>11.2</ele>
        <time>2021-08-14T12:58:20Z</time>
      </trkpt>
      <trkpt lat="47.7097" lon="-3.37855">
        <ele>11.4</ele>
        <time>2021-08-14T12:58:21Z</time>
      </trkpt>
      <trkpt lat="47.70968" lon="-3.37852">
        <ele>11.6</ele>
        <time>2021-08-14T12:58:22Z</time>
      </trkpt>
      <trkpt lat="47.70966" lon="-3.37849">
        <ele>11.8</ele>
        <time>2021-08-14T12:58:23Z</time>
      </trkpt>
      <trkpt lat="47.70965" lon="-3.37846">
        <ele>11.8</ele>
        <time>2021-08-14T12:58:24Z</time>
      </trkpt>
      <trkpt lat="47.70963" lon="-3.37842">
        <ele>12</ele>
        <time>2021-08-14T12:58:25Z</time>
      </trkpt>
      <trkpt lat="47.70961" lon="-3.37838">
        <ele>12</ele>
        <time>2021-08-14T12:58:26Z</time>
      </trkpt>
      <trkpt lat="47.70959" lon="-3.37834">
        <ele>12</ele>
        <time>2021-08-14T12:58:27Z</time>
      </trkpt>
      <trkpt lat="47.70957" lon="-3.3783">
        <ele>12.2</ele>
        <time>2021-08-14T12:58:28Z</time>
      </trkpt>
      <trkpt lat="47.70955" lon="-3.37827">
        <ele>12.2</ele>
        <time>2021-08-14T12:58:29Z</time>
      </trkpt>
      <trkpt lat="47.70953" lon="-3.37823">
        <ele>12.2</ele>
        <time>2021-08-14T12:58:30Z</time>
      </trkpt>
      <trkpt lat="47.70952" lon="-3.3782">
        <ele>12.2</ele>
        <time>2021-08-14T12:58:31Z</time>
      </trkpt>
      <trkpt lat="47.7095" lon="-3.37816">
        <ele>12.2</ele>
        <time>2021-08-14T12:58:32Z</time>
      </trkpt>
      <trkpt lat="47.70949" lon="-3.37812">
        <ele>12.4</ele>
        <time>2021-08-14T12:58:33Z</time>
      </trkpt>
      <trkpt lat="47.70948" lon="-3.37807">
        <ele>12.4</ele>
        <time>2021-08-14T12:58:34Z</time>
      </trkpt>
      <trkpt lat="47.70947" lon="-3.37802">
        <ele>12.4</ele>
        <time>2021-08-14T12:58:35Z</time>
      </trkpt>
      <trkpt lat="47.70946" lon="-3.37798">
        <ele>12.4</ele>
        <time>2021-08-14T12:58:36Z</time>
      </trkpt>
      <trkpt lat="47.70945" lon="-3.37793">
        <ele>12.4</ele>
        <time>2021-08-14T12:58:37Z</time>
      </trkpt>
      <trkpt lat="47.70944" lon="-3.37788">
        <ele>12.4</ele>
        <time>2021-08-14T12:58:38Z</time>
      </trkpt>
      <trkpt lat="47.70942" lon="-3.37782">
        <ele>12.4</ele>
        <time>2021-08-14T12:58:39Z</time>
      </trkpt>
      <trkpt lat="47.70941" lon="-3.37777">
        <ele>12.4</ele>
        <time>2021-08-14T12:58:40Z</time>
      </trkpt>
      <trkpt lat="47.70939" lon="-3.37771">
        <ele>12.4</ele>
        <time>2021-08-14T12:58:41Z</time>
      </trkpt>
      <trkpt lat="47.70938" lon="-3.37765">
        <ele>12.4</ele>
        <time>2021-08-14T12:58:42Z</time>
      </trkpt>
      <trkpt lat="47.70936" lon="-3.37759">
        <ele>12.4</ele>
        <time>2021-08-14T12:58:43Z</time>
      </trkpt>
      <trkpt lat="47.70935" lon="-3.37754">
        <ele>12.2</ele>
        <time>2021-08-14T12:58:44Z</time>
      </trkpt>
      <trkpt lat="47.70934" lon="-3.37748">
        <ele>12.2</ele>
        <time>2021-08-14T12:58:45Z</time>
      </trkpt>
      <trkpt lat="47.70934" lon="-3.37742">
        <ele>12.2</ele>
        <time>2021-08-14T12:58:46Z</time>
      </trkpt>
      <trkpt lat="47.70934" lon="-3.37736">
        <ele>12.2</ele>
        <time>2021-08-14T12:58:47Z</time>
      </trkpt>
      <trkpt lat="47.70935" lon="-3.3773">
        <ele>12.2</ele>
        <time>2021-08-14T12:58:48Z</time>
      </trkpt>
      <trkpt lat="47.70937" lon="-3.37725">
        <ele>12.2</ele>
        <time>2021-08-14T12:58:49Z</time>
      </trkpt>
      <trkpt lat="47.70939" lon="-3.3772">
        <ele>12.2</ele>
        <time>2021-08-14T12:58:50Z</time>
      </trkpt>
      <trkpt lat="47.70941" lon="-3.37715">
        <ele>12.2</ele>
        <time>2021-08-14T12:58:51Z</time>
      </trkpt>
      <trkpt lat="47.70943" lon="-3.3771">
        <ele>12.2</ele>
        <time>2021-08-14T12:58:52Z</time>
      </trkpt>
      <trkpt lat="47.70945" lon="-3.37706">
        <ele>12.2</ele>
        <time>2021-08-14T12:58:53Z</time>
      </trkpt>
      <trkpt lat="47.70947" lon="-3.37701">
        <ele>12.2</ele>
        <time>2021-08-14T12:58:54Z</time>
      </trkpt>
      <trkpt lat="47.70949" lon="-3.37696">
        <ele>12.2</ele>
        <time>2021-08-14T12:58:55Z</time>
      </trkpt>
      <trkpt lat="47.70951" lon="-3.37691">
        <ele>12.2</ele>
        <time>2021-08-14T12:58:56Z</time>
      </trkpt>
      <trkpt lat="47.70953" lon="-3.37687">
        <ele>12.4</ele>
        <time>2021-08-14T12:58:57Z</time>
      </trkpt>
      <trkpt lat="47.70955" lon="-3.37682">
        <ele>12.6</ele>
        <time>2021-08-14T12:58:58Z</time>
      </trkpt>
      <trkpt lat="47.70957" lon="-3.37678">
        <ele>12.6</ele>
        <time>2021-08-14T12:58:59Z</time>
      </trkpt>
      <trkpt lat="47.70959" lon="-3.37673">
        <ele>12.8</ele>
        <time>2021-08-14T12:59:00Z</time>
      </trkpt>
      <trkpt lat="47.70961" lon="-3.37668">
        <ele>12.8</ele>
        <time>2021-08-14T12:59:01Z</time>
      </trkpt>
      <trkpt lat="47.70963" lon="-3.37664">
        <ele>13</ele>
        <time>2021-08-14T12:59:02Z</time>
      </trkpt>
      <trkpt lat="47.70965" lon="-3.37659">
        <ele>13</ele>
        <time>2021-08-14T12:59:03Z</time>
      </trkpt>
      <trkpt lat="47.70967" lon="-3.37654">
        <ele>13</ele>
        <time>2021-08-14T12:59:04Z</time>
      </trkpt>
      <trkpt lat="47.70972" lon="-3.37644">
        <ele>13</ele>
        <time>2021-08-14T12:59:06Z</time>
      </trkpt>
      <trkpt lat="47.70977" lon="-3.37634">
        <ele>13.2</ele>
        <time>2021-08-14T12:59:08Z</time>
      </trkpt>
      <trkpt lat="47.70983" lon="-3.37624">
        <ele>13.4</ele>
        <time>2021-08-14T12:59:10Z</time>
      </trkpt>
      <trkpt lat="47.70986" lon="-3.37618">
        <ele>13.4</ele>
        <time>2021-08-14T12:59:11Z</time>
      </trkpt>
      <trkpt lat="47.70989" lon="-3.37613">
        <ele>13.6</ele>
        <time>2021-08-14T12:59:12Z</time>
      </trkpt>
      <trkpt lat="47.70994" lon="-3.37603">
        <ele>13.6</ele>
        <time>2021-08-14T12:59:14Z</time>
      </trkpt>
      <trkpt lat="47.70999" lon="-3.37593">
        <ele>13.8</ele>
        <time>2021-08-14T12:59:16Z</time>
      </trkpt>
      <trkpt lat="47.71002" lon="-3.37588">
        <ele>13.8</ele>
        <time>2021-08-14T12:59:17Z</time>
      </trkpt>
      <trkpt lat="47.71005" lon="-3.37583">
        <ele>13.8</ele>
        <time>2021-08-14T12:59:18Z</time>
      </trkpt>
      <trkpt lat="47.71011" lon="-3.37574">
        <ele>13.8</ele>
        <time>2021-08-14T12:59:20Z</time>
      </trkpt>
      <trkpt lat="47.71015" lon="-3.3757">
        <ele>14</ele>
        <time>2021-08-14T12:59:21Z</time>
      </trkpt>
      <trkpt lat="47.71019" lon="-3.37567">
        <ele>14</ele>
        <time>2021-08-14T12:59:22Z</time>
      </trkpt>
      <trkpt lat="47.71023" lon="-3.37563">
        <ele>14</ele>
        <time>2021-08-14T12:59:23Z</time>
      </trkpt>
      <trkpt lat="47.71027" lon="-3.37561">
        <ele>14</ele>
        <time>2021-08-14T12:59:24Z</time>
      </trkpt>
      <trkpt lat="47.71031" lon="-3.3756">
        <ele>14</ele>
        <time>2021-08-14T12:59:25Z</time>
      </trkpt>
      <trkpt lat="47.71036" lon="-3.37558">
        <ele>14</ele>
        <time>2021-08-14T12:59:26Z</time>
      </trkpt>
      <trkpt lat="47.7104" lon="-3.37557">
        <ele>14</ele>
        <time>2021-08-14T12:59:27Z</time>
      </trkpt>
      <trkpt lat="47.71045" lon="-3.37557">
        <ele>14</ele>
        <time>2021-08-14T12:59:28Z</time>
      </trkpt>
      <trkpt lat="47.7105" lon="-3.37557">
        <ele>14</ele>
        <time>2021-08-14T12:59:29Z</time>
      </trkpt>
      <trkpt lat="47.71054" lon="-3.37558">
        <ele>14</ele>
        <time>2021-08-14T12:59:30Z</time>
      </trkpt>
      <trkpt lat="47.71059" lon="-3.37558">
        <ele>14</ele>
        <time>2021-08-14T12:59:31Z</time>
      </trkpt>
      <trkpt lat="47.71064" lon="-3.37558">
        <ele>14</ele>
        <time>2021-08-14T12:59:32Z</time>
      </trkpt>
      <trkpt lat="47.71068" lon="-3.37558">
        <ele>14</ele>
        <time>2021-08-14T12:59:33Z</time>
      </trkpt>
      <trkpt lat="47.71073" lon="-3.37558">
        <ele>14</ele>
        <time>2021-08-14T12:59:34Z</time>
      </trkpt>
      <trkpt lat="47.71078" lon="-3.37559">
        <ele>14</ele>
        <time>2021-08-14T12:59:35Z</time>
      </trkpt>
      <trkpt lat="47.71083" lon="-3.3756">
        <ele>13.8</ele>
        <time>2021-08-14T12:59:36Z</time>
      </trkpt>
      <trkpt lat="47.71088" lon="-3.37561">
        <ele>13.8</ele>
        <time>2021-08-14T12:59:37Z</time>
      </trkpt>
      <trkpt lat="47.71094" lon="-3.37563">
        <ele>13.8</ele>
        <time>2021-08-14T12:59:38Z</time>
      </trkpt>
      <trkpt lat="47.71099" lon="-3.37565">
        <ele>13.8</ele>
        <time>2021-08-14T12:59:39Z</time>
      </trkpt>
      <trkpt lat="47.71104" lon="-3.37568">
        <ele>13.6</ele>
        <time>2021-08-14T12:59:40Z</time>
      </trkpt>
      <trkpt lat="47.71108" lon="-3.37571">
        <ele>13.6</ele>
        <time>2021-08-14T12:59:41Z</time>
      </trkpt>
      <trkpt lat="47.71113" lon="-3.37575">
        <ele>13.6</ele>
        <time>2021-08-14T12:59:42Z</time>
      </trkpt>
      <trkpt lat="47.71118" lon="-3.37578">
        <ele>13.6</ele>
        <time>2021-08-14T12:59:43Z</time>
      </trkpt>
      <trkpt lat="47.71122" lon="-3.37582">
        <ele>13.6</ele>
        <time>2021-08-14T12:59:44Z</time>
      </trkpt>
      <trkpt lat="47.71126" lon="-3.37586">
        <ele>13.4</ele>
        <time>2021-08-14T12:59:45Z</time>
      </trkpt>
      <trkpt lat="47.7113" lon="-3.37589">
        <ele>13.4</ele>
        <time>2021-08-14T12:59:46Z</time>
      </trkpt>
      <trkpt lat="47.71133" lon="-3.37593">
        <ele>13.4</ele>
        <time>2021-08-14T12:59:47Z</time>
      </trkpt>
      <trkpt lat="47.71137" lon="-3.37596">
        <ele>13.4</ele>
        <time>2021-08-14T12:59:48Z</time>
      </trkpt>
      <trkpt lat="47.71141" lon="-3.37599">
        <ele>13.4</ele>
        <time>2021-08-14T12:59:49Z</time>
      </trkpt>
      <trkpt lat="47.71145" lon="-3.37602">
        <ele>13.4</ele>
        <time>2021-08-14T12:59:50Z</time>
      </trkpt>
      <trkpt lat="47.71149" lon="-3.37605">
        <ele>13.4</ele>
        <time>2021-08-14T12:59:51Z</time>
      </trkpt>
      <trkpt lat="47.71153" lon="-3.37607">
        <ele>13.4</ele>
        <time>2021-08-14T12:59:52Z</time>
      </trkpt>
      <trkpt lat="47.71157" lon="-3.37609">
        <ele>13.4</ele>
        <time>2021-08-14T12:59:53Z</time>
      </trkpt>
      <trkpt lat="47.71161" lon="-3.3761">
        <ele>13.4</ele>
        <time>2021-08-14T12:59:54Z</time>
      </trkpt>
      <trkpt lat="47.71166" lon="-3.3761">
        <ele>13.4</ele>
        <time>2021-08-14T12:59:55Z</time>
      </trkpt>
      <trkpt lat="47.71169" lon="-3.37609">
        <ele>13.4</ele>
        <time>2021-08-14T12:59:56Z</time>
      </trkpt>
      <trkpt lat="47.71172" lon="-3.37604">
        <ele>13.4</ele>
        <time>2021-08-14T12:59:57Z</time>
      </trkpt>
      <trkpt lat="47.71174" lon="-3.37599">
        <ele>13.4</ele>
        <time>2021-08-14T12:59:58Z</time>
      </trkpt>
      <trkpt lat="47.71176" lon="-3.37594">
        <ele>13.4</ele>
        <time>2021-08-14T12:59:59Z</time>
      </trkpt>
      <trkpt lat="47.7118" lon="-3.3759">
        <ele>13.4</ele>
        <time>2021-08-14T13:00:00Z</time>
      </trkpt>
      <trkpt lat="47.71183" lon="-3.37587">
        <ele>13.4</ele>
        <time>2021-08-14T13:00:01Z</time>
      </trkpt>
      <trkpt lat="47.71187" lon="-3.37583">
        <ele>13.6</ele>
        <time>2021-08-14T13:00:02Z</time>
      </trkpt>
      <trkpt lat="47.71191" lon="-3.3758">
        <ele>13.6</ele>
        <time>2021-08-14T13:00:03Z</time>
      </trkpt>
      <trkpt lat="47.71195" lon="-3.37576">
        <ele>13.6</ele>
        <time>2021-08-14T13:00:04Z</time>
      </trkpt>
      <trkpt lat="47.71199" lon="-3.37572">
        <ele>13.6</ele>
        <time>2021-08-14T13:00:05Z</time>
      </trkpt>
      <trkpt lat="47.71203" lon="-3.37569">
        <ele>13.6</ele>
        <time>2021-08-14T13:00:06Z</time>
      </trkpt>
      <trkpt lat="47.71207" lon="-3.37565">
        <ele>13.6</ele>
        <time>2021-08-14T13:00:07Z</time>
      </trkpt>
      <trkpt lat="47.71211" lon="-3.37562">
        <ele>13.6</ele>
        <time>2021-08-14T13:00:08Z</time>
      </trkpt>
      <trkpt lat="47.71215" lon="-3.37558">
        <ele>13.8</ele>
        <time>2021-08-14T13:00:09Z</time>
      </trkpt>
      <trkpt lat="47.71218" lon="-3.37554">
        <ele>13.8</ele>
        <time>2021-08-14T13:00:10Z</time>
      </trkpt>
      <trkpt lat="47.71221" lon="-3.37551">
        <ele>13.8</ele>
        <time>2021-08-14T13:00:11Z</time>
      </trkpt>
      <trkpt lat="47.71225" lon="-3.37547">
        <ele>13.8</ele>
        <time>2021-08-14T13:00:12Z</time>
      </trkpt>
      <trkpt lat="47.71228" lon="-3.37544">
        <ele>13.8</ele>
        <time>2021-08-14T13:00:13Z</time>
      </trkpt>
      <trkpt lat="47.71231" lon="-3.37541">
        <ele>14</ele>
        <time>2021-08-14T13:00:14Z</time>
      </trkpt>
      <trkpt lat="47.71234" lon="-3.37538">
        <ele>14</ele>
        <time>2021-08-14T13:00:15Z</time>
      </trkpt>
      <trkpt lat="47.71236" lon="-3.37534">
        <ele>14.2</ele>
        <time>2021-08-14T13:00:16Z</time>
      </trkpt>
      <trkpt lat="47.71238" lon="-3.3753">
        <ele>14.2</ele>
        <time>2021-08-14T13:00:17Z</time>
      </trkpt>
      <trkpt lat="47.71241" lon="-3.37526">
        <ele>14.2</ele>
        <time>2021-08-14T13:00:18Z</time>
      </trkpt>
      <trkpt lat="47.71243" lon="-3.37521">
        <ele>14.2</ele>
        <time>2021-08-14T13:00:19Z</time>
      </trkpt>
      <trkpt lat="47.71246" lon="-3.37517">
        <ele>14.2</ele>
        <time>2021-08-14T13:00:20Z</time>
      </trkpt>
      <trkpt lat="47.71249" lon="-3.37512">
        <ele>14.2</ele>
        <time>2021-08-14T13:00:21Z</time>
      </trkpt>
      <trkpt lat="47.71253" lon="-3.37508">
        <ele>14.2</ele>
        <time>2021-08-14T13:00:22Z</time>
      </trkpt>
      <trkpt lat="47.71257" lon="-3.37505">
        <ele>14.2</ele>
        <time>2021-08-14T13:00:23Z</time>
      </trkpt>
      <trkpt lat="47.7126" lon="-3.375">
        <ele>14.2</ele>
        <time>2021-08-14T13:00:24Z</time>
      </trkpt>
      <trkpt lat="47.71264" lon="-3.37495">
        <ele>14.2</ele>
        <time>2021-08-14T13:00:25Z</time>
      </trkpt>
      <trkpt lat="47.71267" lon="-3.37491">
        <ele>14.2</ele>
        <time>2021-08-14T13:00:26Z</time>
      </trkpt>
      <trkpt lat="47.7127" lon="-3.37487">
        <ele>14.2</ele>
        <time>2021-08-14T13:00:27Z</time>
      </trkpt>
      <trkpt lat="47.71274" lon="-3.37483">
        <ele>14.2</ele>
        <time>2021-08-14T13:00:28Z</time>
      </trkpt>
      <trkpt lat="47.71277" lon="-3.3748">
        <ele>14.2</ele>
        <time>2021-08-14T13:00:29Z</time>
      </trkpt>
      <trkpt lat="47.7128" lon="-3.37476">
        <ele>14.2</ele>
        <time>2021-08-14T13:00:30Z</time>
      </trkpt>
      <trkpt lat="47.71283" lon="-3.37472">
        <ele>14.2</ele>
        <time>2021-08-14T13:00:31Z</time>
      </trkpt>
      <trkpt lat="47.71286" lon="-3.37469">
        <ele>14.2</ele>
        <time>2021-08-14T13:00:32Z</time>
      </trkpt>
      <trkpt lat="47.71289" lon="-3.37465">
        <ele>14.2</ele>
        <time>2021-08-14T13:00:33Z</time>
      </trkpt>
      <trkpt lat="47.71293" lon="-3.37462">
        <ele>14.2</ele>
        <time>2021-08-14T13:00:34Z</time>
      </trkpt>
      <trkpt lat="47.71297" lon="-3.37459">
        <ele>14.2</ele>
        <time>2021-08-14T13:00:35Z</time>
      </trkpt>
      <trkpt lat="47.71301" lon="-3.37456">
        <ele>14.2</ele>
        <time>2021-08-14T13:00:36Z</time>
      </trkpt>
      <trkpt lat="47.71304" lon="-3.37453">
        <ele>14.2</ele>
        <time>2021-08-14T13:00:37Z</time>
      </trkpt>
      <trkpt lat="47.71307" lon="-3.37448">
        <ele>14.2</ele>
        <time>2021-08-14T13:00:38Z</time>
      </trkpt>
      <trkpt lat="47.71309" lon="-3.37443">
        <ele>14.2</ele>
        <time>2021-08-14T13:00:39Z</time>
      </trkpt>
      <trkpt lat="47.71311" lon="-3.37438">
        <ele>14.2</ele>
        <time>2021-08-14T13:00:40Z</time>
      </trkpt>
      <trkpt lat="47.71313" lon="-3.37434">
        <ele>14.2</ele>
        <time>2021-08-14T13:00:41Z</time>
      </trkpt>
      <trkpt lat="47.71315" lon="-3.37431">
        <ele>14.2</ele>
        <time>2021-08-14T13:00:42Z</time>
      </trkpt>
      <trkpt lat="47.71317" lon="-3.37427">
        <ele>14</ele>
        <time>2021-08-14T13:00:43Z</time>
      </trkpt>
      <trkpt lat="47.7132" lon="-3.37423">
        <ele>14</ele>
        <time>2021-08-14T13:00:44Z</time>
      </trkpt>
      <trkpt lat="47.71322" lon="-3.37419">
        <ele>14</ele>
        <time>2021-08-14T13:00:45Z</time>
      </trkpt>
      <trkpt lat="47.71325" lon="-3.37414">
        <ele>13.8</ele>
        <time>2021-08-14T13:00:46Z</time>
      </trkpt>
      <trkpt lat="47.71327" lon="-3.37409">
        <ele>13.8</ele>
        <time>2021-08-14T13:00:47Z</time>
      </trkpt>
      <trkpt lat="47.71329" lon="-3.37404">
        <ele>13.8</ele>
        <time>2021-08-14T13:00:48Z</time>
      </trkpt>
      <trkpt lat="47.71332" lon="-3.37398">
        <ele>13.8</ele>
        <time>2021-08-14T13:00:49Z</time>
      </trkpt>
      <trkpt lat="47.71334" lon="-3.37392">
        <ele>13.6</ele>
        <time>2021-08-14T13:00:50Z</time>
      </trkpt>
      <trkpt lat="47.71337" lon="-3.37387">
        <ele>13.4</ele>
        <time>2021-08-14T13:00:51Z</time>
      </trkpt>
      <trkpt lat="47.7134" lon="-3.37381">
        <ele>13.4</ele>
        <time>2021-08-14T13:00:52Z</time>
      </trkpt>
      <trkpt lat="47.71342" lon="-3.37376">
        <ele>13.2</ele>
        <time>2021-08-14T13:00:53Z</time>
      </trkpt>
      <trkpt lat="47.71345" lon="-3.3737">
        <ele>13.2</ele>
        <time>2021-08-14T13:00:54Z</time>
      </trkpt>
      <trkpt lat="47.71347" lon="-3.37364">
        <ele>12.8</ele>
        <time>2021-08-14T13:00:55Z</time>
      </trkpt>
      <trkpt lat="47.7135" lon="-3.37359">
        <ele>12.8</ele>
        <time>2021-08-14T13:00:56Z</time>
      </trkpt>
      <trkpt lat="47.71352" lon="-3.37353">
        <ele>12.6</ele>
        <time>2021-08-14T13:00:57Z</time>
      </trkpt>
      <trkpt lat="47.71355" lon="-3.37347">
        <ele>12.6</ele>
        <time>2021-08-14T13:00:58Z</time>
      </trkpt>
      <trkpt lat="47.71358" lon="-3.37342">
        <ele>12.6</ele>
        <time>2021-08-14T13:00:59Z</time>
      </trkpt>
      <trkpt lat="47.7136" lon="-3.37336">
        <ele>12.6</ele>
        <time>2021-08-14T13:01:00Z</time>
      </trkpt>
      <trkpt lat="47.71363" lon="-3.3733">
        <ele>12.6</ele>
        <time>2021-08-14T13:01:01Z</time>
      </trkpt>
      <trkpt lat="47.71365" lon="-3.37324">
        <ele>12.4</ele>
        <time>2021-08-14T13:01:02Z</time>
      </trkpt>
      <trkpt lat="47.71368" lon="-3.37319">
        <ele>12.4</ele>
        <time>2021-08-14T13:01:03Z</time>
      </trkpt>
      <trkpt lat="47.7137" lon="-3.37314">
        <ele>12.4</ele>
        <time>2021-08-14T13:01:04Z</time>
      </trkpt>
      <trkpt lat="47.71372" lon="-3.37309">
        <ele>12.2</ele>
        <time>2021-08-14T13:01:05Z</time>
      </trkpt>
      <trkpt lat="47.71375" lon="-3.37303">
        <ele>12.2</ele>
        <time>2021-08-14T13:01:06Z</time>
      </trkpt>
      <trkpt lat="47.71377" lon="-3.37298">
        <ele>12.2</ele>
        <time>2021-08-14T13:01:07Z</time>
      </trkpt>
      <trkpt lat="47.7138" lon="-3.37293">
        <ele>12</ele>
        <time>2021-08-14T13:01:08Z</time>
      </trkpt>
      <trkpt lat="47.71383" lon="-3.37288">
        <ele>12</ele>
        <time>2021-08-14T13:01:09Z</time>
      </trkpt>
      <trkpt lat="47.71385" lon="-3.37282">
        <ele>12</ele>
        <time>2021-08-14T13:01:10Z</time>
      </trkpt>
      <trkpt lat="47.71388" lon="-3.37277">
        <ele>12</ele>
        <time>2021-08-14T13:01:11Z</time>
      </trkpt>
      <trkpt lat="47.7139" lon="-3.37271">
        <ele>12</ele>
        <time>2021-08-14T13:01:12Z</time>
      </trkpt>
      <trkpt lat="47.71392" lon="-3.37265">
        <ele>12</ele>
        <time>2021-08-14T13:01:13Z</time>
      </trkpt>
      <trkpt lat="47.71395" lon="-3.37259">
        <ele>12</ele>
        <time>2021-08-14T13:01:14Z</time>
      </trkpt>
      <trkpt lat="47.71398" lon="-3.37254">
        <ele>12</ele>
        <time>2021-08-14T13:01:15Z</time>
      </trkpt>
      <trkpt lat="47.714" lon="-3.37248">
        <ele>12</ele>
        <time>2021-08-14T13:01:16Z</time>
      </trkpt>
      <trkpt lat="47.71403" lon="-3.37243">
        <ele>12</ele>
        <time>2021-08-14T13:01:17Z</time>
      </trkpt>
      <trkpt lat="47.71406" lon="-3.37239">
        <ele>12</ele>
        <time>2021-08-14T13:01:18Z</time>
      </trkpt>
      <trkpt lat="47.71408" lon="-3.37234">
        <ele>12</ele>
        <time>2021-08-14T13:01:19Z</time>
      </trkpt>
      <trkpt lat="47.7141" lon="-3.3723">
        <ele>12</ele>
        <time>2021-08-14T13:01:20Z</time>
      </trkpt>
      <trkpt lat="47.71412" lon="-3.37225">
        <ele>12</ele>
        <time>2021-08-14T13:01:21Z</time>
      </trkpt>
      <trkpt lat="47.71413" lon="-3.37221">
        <ele>12</ele>
        <time>2021-08-14T13:01:22Z</time>
      </trkpt>
      <trkpt lat="47.71414" lon="-3.37218">
        <ele>12</ele>
        <time>2021-08-14T13:01:23Z</time>
      </trkpt>
      <trkpt lat="47.71415" lon="-3.37215">
        <ele>12</ele>
        <time>2021-08-14T13:01:24Z</time>
      </trkpt>
      <trkpt lat="47.71416" lon="-3.37214">
        <ele>12.2</ele>
        <time>2021-08-14T13:01:25Z</time>
      </trkpt>
      <trkpt lat="47.71417" lon="-3.37213">
        <ele>12.2</ele>
        <time>2021-08-14T13:01:26Z</time>
      </trkpt>
      <trkpt lat="47.71418" lon="-3.37213">
        <ele>12.2</ele>
        <time>2021-08-14T13:01:27Z</time>
      </trkpt>
      <trkpt lat="47.71418" lon="-3.37213">
        <ele>12.4</ele>
        <time>2021-08-14T13:01:28Z</time>
      </trkpt>
      <trkpt lat="47.71419" lon="-3.37212">
        <ele>12.4</ele>
        <time>2021-08-14T13:01:29Z</time>
      </trkpt>
      <trkpt lat="47.7142" lon="-3.37213">
        <ele>12.6</ele>
        <time>2021-08-14T13:01:30Z</time>
      </trkpt>
      <trkpt lat="47.71421" lon="-3.37213">
        <ele>12.6</ele>
        <time>2021-08-14T13:01:31Z</time>
      </trkpt>
      <trkpt lat="47.71423" lon="-3.37215">
        <ele>12.6</ele>
        <time>2021-08-14T13:01:32Z</time>
      </trkpt>
      <trkpt lat="47.71425" lon="-3.37216">
        <ele>12.8</ele>
        <time>2021-08-14T13:01:33Z</time>
      </trkpt>
      <trkpt lat="47.71428" lon="-3.37217">
        <ele>12.8</ele>
        <time>2021-08-14T13:01:34Z</time>
      </trkpt>
      <trkpt lat="47.7143" lon="-3.37218">
        <ele>13</ele>
        <time>2021-08-14T13:01:35Z</time>
      </trkpt>
      <trkpt lat="47.71433" lon="-3.3722">
        <ele>13</ele>
        <time>2021-08-14T13:01:36Z</time>
      </trkpt>
      <trkpt lat="47.71435" lon="-3.37222">
        <ele>13</ele>
        <time>2021-08-14T13:01:37Z</time>
      </trkpt>
      <trkpt lat="47.71438" lon="-3.37225">
        <ele>13</ele>
        <time>2021-08-14T13:01:38Z</time>
      </trkpt>
      <trkpt lat="47.71441" lon="-3.37227">
        <ele>13</ele>
        <time>2021-08-14T13:01:39Z</time>
      </trkpt>
      <trkpt lat="47.71444" lon="-3.37229">
        <ele>13</ele>
        <time>2021-08-14T13:01:40Z</time>
      </trkpt>
      <trkpt lat="47.71447" lon="-3.37231">
        <ele>13</ele>
        <time>2021-08-14T13:01:41Z</time>
      </trkpt>
      <trkpt lat="47.7145" lon="-3.37234">
        <ele>13</ele>
        <time>2021-08-14T13:01:42Z</time>
      </trkpt>
      <trkpt lat="47.71453" lon="-3.37236">
        <ele>13</ele>
        <time>2021-08-14T13:01:43Z</time>
      </trkpt>
      <trkpt lat="47.71457" lon="-3.37238">
        <ele>13</ele>
        <time>2021-08-14T13:01:44Z</time>
      </trkpt>
      <trkpt lat="47.7146" lon="-3.37241">
        <ele>13</ele>
        <time>2021-08-14T13:01:45Z</time>
      </trkpt>
      <trkpt lat="47.71464" lon="-3.37243">
        <ele>13</ele>
        <time>2021-08-14T13:01:46Z</time>
      </trkpt>
      <trkpt lat="47.71467" lon="-3.37246">
        <ele>13</ele>
        <time>2021-08-14T13:01:47Z</time>
      </trkpt>
      <trkpt lat="47.7147" lon="-3.37248">
        <ele>13</ele>
        <time>2021-08-14T13:01:48Z</time>
      </trkpt>
      <trkpt lat="47.71475" lon="-3.37251">
        <ele>13</ele>
        <time>2021-08-14T13:01:49Z</time>
      </trkpt>
      <trkpt lat="47.71478" lon="-3.37253">
        <ele>13</ele>
        <time>2021-08-14T13:01:50Z</time>
      </trkpt>
      <trkpt lat="47.71482" lon="-3.37255">
        <ele>13</ele>
        <time>2021-08-14T13:01:51Z</time>
      </trkpt>
      <trkpt lat="47.71485" lon="-3.37258">
        <ele>13</ele>
        <time>2021-08-14T13:01:52Z</time>
      </trkpt>
      <trkpt lat="47.71489" lon="-3.3726">
        <ele>13</ele>
        <time>2021-08-14T13:01:53Z</time>
      </trkpt>
      <trkpt lat="47.71492" lon="-3.37261">
        <ele>13</ele>
        <time>2021-08-14T13:01:54Z</time>
      </trkpt>
      <trkpt lat="47.71494" lon="-3.37263">
        <ele>12.8</ele>
        <time>2021-08-14T13:01:55Z</time>
      </trkpt>
      <trkpt lat="47.71496" lon="-3.37262">
        <ele>12.8</ele>
        <time>2021-08-14T13:01:56Z</time>
      </trkpt>
      <trkpt lat="47.71499" lon="-3.37261">
        <ele>12.8</ele>
        <time>2021-08-14T13:01:57Z</time>
      </trkpt>
      <trkpt lat="47.71501" lon="-3.37257">
        <ele>12.8</ele>
        <time>2021-08-14T13:01:58Z</time>
      </trkpt>
      <trkpt lat="47.71503" lon="-3.37254">
        <ele>12.8</ele>
        <time>2021-08-14T13:01:59Z</time>
      </trkpt>
      <trkpt lat="47.71506" lon="-3.3725">
        <ele>12.8</ele>
        <time>2021-08-14T13:02:00Z</time>
      </trkpt>
      <trkpt lat="47.71513" lon="-3.37242">
        <ele>12.8</ele>
        <time>2021-08-14T13:02:02Z</time>
      </trkpt>
      <trkpt lat="47.71516" lon="-3.37238">
        <ele>12.8</ele>
        <time>2021-08-14T13:02:03Z</time>
      </trkpt>
      <trkpt lat="47.71519" lon="-3.37234">
        <ele>12.8</ele>
        <time>2021-08-14T13:02:04Z</time>
      </trkpt>
      <trkpt lat="47.71526" lon="-3.37226">
        <ele>12.8</ele>
        <time>2021-08-14T13:02:06Z</time>
      </trkpt>
      <trkpt lat="47.71529" lon="-3.37223">
        <ele>12.8</ele>
        <time>2021-08-14T13:02:07Z</time>
      </trkpt>
      <trkpt lat="47.71533" lon="-3.37219">
        <ele>12.6</ele>
        <time>2021-08-14T13:02:08Z</time>
      </trkpt>
      <trkpt lat="47.71536" lon="-3.37216">
        <ele>12.6</ele>
        <time>2021-08-14T13:02:09Z</time>
      </trkpt>
      <trkpt lat="47.71539" lon="-3.37212">
        <ele>12.4</ele>
        <time>2021-08-14T13:02:10Z</time>
      </trkpt>
      <trkpt lat="47.71543" lon="-3.37208">
        <ele>12.4</ele>
        <time>2021-08-14T13:02:11Z</time>
      </trkpt>
      <trkpt lat="47.71546" lon="-3.37204">
        <ele>12.2</ele>
        <time>2021-08-14T13:02:12Z</time>
      </trkpt>
      <trkpt lat="47.7155" lon="-3.372">
        <ele>12.2</ele>
        <time>2021-08-14T13:02:13Z</time>
      </trkpt>
      <trkpt lat="47.71553" lon="-3.37196">
        <ele>12.2</ele>
        <time>2021-08-14T13:02:14Z</time>
      </trkpt>
      <trkpt lat="47.7156" lon="-3.37187">
        <ele>12</ele>
        <time>2021-08-14T13:02:16Z</time>
      </trkpt>
      <trkpt lat="47.71564" lon="-3.37183">
        <ele>11.8</ele>
        <time>2021-08-14T13:02:17Z</time>
      </trkpt>
      <trkpt lat="47.71567" lon="-3.37178">
        <ele>11.8</ele>
        <time>2021-08-14T13:02:18Z</time>
      </trkpt>
      <trkpt lat="47.71571" lon="-3.37174">
        <ele>11.8</ele>
        <time>2021-08-14T13:02:19Z</time>
      </trkpt>
      <trkpt lat="47.71575" lon="-3.37169">
        <ele>11.8</ele>
        <time>2021-08-14T13:02:20Z</time>
      </trkpt>
      <trkpt lat="47.71578" lon="-3.37165">
        <ele>11.8</ele>
        <time>2021-08-14T13:02:21Z</time>
      </trkpt>
      <trkpt lat="47.71581" lon="-3.3716">
        <ele>11.8</ele>
        <time>2021-08-14T13:02:22Z</time>
      </trkpt>
      <trkpt lat="47.71584" lon="-3.37155">
        <ele>11.8</ele>
        <time>2021-08-14T13:02:23Z</time>
      </trkpt>
      <trkpt lat="47.71587" lon="-3.37149">
        <ele>11.8</ele>
        <time>2021-08-14T13:02:24Z</time>
      </trkpt>
      <trkpt lat="47.71589" lon="-3.37143">
        <ele>11.8</ele>
        <time>2021-08-14T13:02:25Z</time>
      </trkpt>
      <trkpt lat="47.71592" lon="-3.37137">
        <ele>11.8</ele>
        <time>2021-08-14T13:02:26Z</time>
      </trkpt>
      <trkpt lat="47.71594" lon="-3.37131">
        <ele>11.8</ele>
        <time>2021-08-14T13:02:27Z</time>
      </trkpt>
      <trkpt lat="47.71596" lon="-3.37125">
        <ele>11.8</ele>
        <time>2021-08-14T13:02:28Z</time>
      </trkpt>
      <trkpt lat="47.71598" lon="-3.37119">
        <ele>11.8</ele>
        <time>2021-08-14T13:02:29Z</time>
      </trkpt>
      <trkpt lat="47.716" lon="-3.37113">
        <ele>11.8</ele>
        <time>2021-08-14T13:02:30Z</time>
      </trkpt>
      <trkpt lat="47.71602" lon="-3.37107">
        <ele>11.8</ele>
        <time>2021-08-14T13:02:31Z</time>
      </trkpt>
      <trkpt lat="47.71604" lon="-3.37101">
        <ele>12</ele>
        <time>2021-08-14T13:02:32Z</time>
      </trkpt>
      <trkpt lat="47.71606" lon="-3.37095">
        <ele>12</ele>
        <time>2021-08-14T13:02:33Z</time>
      </trkpt>
      <trkpt lat="47.71608" lon="-3.37089">
        <ele>12</ele>
        <time>2021-08-14T13:02:34Z</time>
      </trkpt>
      <trkpt lat="47.71609" lon="-3.37083">
        <ele>12.2</ele>
        <time>2021-08-14T13:02:35Z</time>
      </trkpt>
      <trkpt lat="47.71611" lon="-3.37078">
        <ele>12.2</ele>
        <time>2021-08-14T13:02:36Z</time>
      </trkpt>
      <trkpt lat="47.71613" lon="-3.37072">
        <ele>12.4</ele>
        <time>2021-08-14T13:02:37Z</time>
      </trkpt>
      <trkpt lat="47.71615" lon="-3.37066">
        <ele>12.4</ele>
        <time>2021-08-14T13:02:38Z</time>
      </trkpt>
      <trkpt lat="47.71617" lon="-3.37061">
        <ele>12.4</ele>
        <time>2021-08-14T13:02:39Z</time>
      </trkpt>
      <trkpt lat="47.71619" lon="-3.37055">
        <ele>12.6</ele>
        <time>2021-08-14T13:02:40Z</time>
      </trkpt>
      <trkpt lat="47.71621" lon="-3.37049">
        <ele>12.8</ele>
        <time>2021-08-14T13:02:41Z</time>
      </trkpt>
      <trkpt lat="47.71622" lon="-3.37044">
        <ele>12.8</ele>
        <time>2021-08-14T13:02:42Z</time>
      </trkpt>
      <trkpt lat="47.71624" lon="-3.37038">
        <ele>12.8</ele>
        <time>2021-08-14T13:02:43Z</time>
      </trkpt>
      <trkpt lat="47.71626" lon="-3.37033">
        <ele>13</ele>
        <time>2021-08-14T13:02:44Z</time>
      </trkpt>
      <trkpt lat="47.71628" lon="-3.37027">
        <ele>13</ele>
        <time>2021-08-14T13:02:45Z</time>
      </trkpt>
      <trkpt lat="47.71629" lon="-3.37021">
        <ele>13</ele>
        <time>2021-08-14T13:02:46Z</time>
      </trkpt>
      <trkpt lat="47.71631" lon="-3.37015">
        <ele>13.2</ele>
        <time>2021-08-14T13:02:47Z</time>
      </trkpt>
      <trkpt lat="47.71632" lon="-3.37009">
        <ele>13.2</ele>
        <time>2021-08-14T13:02:48Z</time>
      </trkpt>
      <trkpt lat="47.71634" lon="-3.37003">
        <ele>13.4</ele>
        <time>2021-08-14T13:02:49Z</time>
      </trkpt>
      <trkpt lat="47.71635" lon="-3.36997">
        <ele>13.4</ele>
        <time>2021-08-14T13:02:50Z</time>
      </trkpt>
      <trkpt lat="47.71636" lon="-3.36991">
        <ele>13.6</ele>
        <time>2021-08-14T13:02:51Z</time>
      </trkpt>
      <trkpt lat="47.71637" lon="-3.36986">
        <ele>13.6</ele>
        <time>2021-08-14T13:02:52Z</time>
      </trkpt>
      <trkpt lat="47.71638" lon="-3.36979">
        <ele>13.6</ele>
        <time>2021-08-14T13:02:53Z</time>
      </trkpt>
      <trkpt lat="47.71639" lon="-3.36973">
        <ele>13.8</ele>
        <time>2021-08-14T13:02:54Z</time>
      </trkpt>
      <trkpt lat="47.7164" lon="-3.36967">
        <ele>13.8</ele>
        <time>2021-08-14T13:02:55Z</time>
      </trkpt>
      <trkpt lat="47.71641" lon="-3.36961">
        <ele>14</ele>
        <time>2021-08-14T13:02:56Z</time>
      </trkpt>
      <trkpt lat="47.71643" lon="-3.36954">
        <ele>14</ele>
        <time>2021-08-14T13:02:57Z</time>
      </trkpt>
      <trkpt lat="47.71644" lon="-3.36948">
        <ele>14</ele>
        <time>2021-08-14T13:02:58Z</time>
      </trkpt>
      <trkpt lat="47.71644" lon="-3.36943">
        <ele>14</ele>
        <time>2021-08-14T13:02:59Z</time>
      </trkpt>
      <trkpt lat="47.71643" lon="-3.36938">
        <ele>13.8</ele>
        <time>2021-08-14T13:03:00Z</time>
      </trkpt>
      <trkpt lat="47.71641" lon="-3.36934">
        <ele>13.8</ele>
        <time>2021-08-14T13:03:01Z</time>
      </trkpt>
      <trkpt lat="47.71638" lon="-3.36931">
        <ele>13.8</ele>
        <time>2021-08-14T13:03:02Z</time>
      </trkpt>
      <trkpt lat="47.71635" lon="-3.36929">
        <ele>13.8</ele>
        <time>2021-08-14T13:03:03Z</time>
      </trkpt>
      <trkpt lat="47.71631" lon="-3.36927">
        <ele>13.6</ele>
        <time>2021-08-14T13:03:04Z</time>
      </trkpt>
      <trkpt lat="47.71627" lon="-3.36925">
        <ele>13.6</ele>
        <time>2021-08-14T13:03:05Z</time>
      </trkpt>
      <trkpt lat="47.71624" lon="-3.36923">
        <ele>13.4</ele>
        <time>2021-08-14T13:03:06Z</time>
      </trkpt>
      <trkpt lat="47.7162" lon="-3.36922">
        <ele>13.4</ele>
        <time>2021-08-14T13:03:07Z</time>
      </trkpt>
      <trkpt lat="47.71617" lon="-3.36919">
        <ele>13.2</ele>
        <time>2021-08-14T13:03:08Z</time>
      </trkpt>
      <trkpt lat="47.71614" lon="-3.36916">
        <ele>13.2</ele>
        <time>2021-08-14T13:03:09Z</time>
      </trkpt>
      <trkpt lat="47.71612" lon="-3.36912">
        <ele>13</ele>
        <time>2021-08-14T13:03:10Z</time>
      </trkpt>
      <trkpt lat="47.71609" lon="-3.36909">
        <ele>13</ele>
        <time>2021-08-14T13:03:11Z</time>
      </trkpt>
      <trkpt lat="47.71607" lon="-3.36908">
        <ele>13</ele>
        <time>2021-08-14T13:03:12Z</time>
      </trkpt>
      <trkpt lat="47.71605" lon="-3.36906">
        <ele>13</ele>
        <time>2021-08-14T13:03:13Z</time>
      </trkpt>
      <trkpt lat="47.71604" lon="-3.36904">
        <ele>13</ele>
        <time>2021-08-14T13:03:14Z</time>
      </trkpt>
      <trkpt lat="47.71602" lon="-3.36903">
        <ele>13</ele>
        <time>2021-08-14T13:03:15Z</time>
      </trkpt>
      <trkpt lat="47.71601" lon="-3.36902">
        <ele>13</ele>
        <time>2021-08-14T13:03:16Z</time>
      </trkpt>
      <trkpt lat="47.716" lon="-3.36902">
        <ele>13</ele>
        <time>2021-08-14T13:03:17Z</time>
      </trkpt>
      <trkpt lat="47.71599" lon="-3.36902">
        <ele>13</ele>
        <time>2021-08-14T13:03:18Z</time>
      </trkpt>
      <trkpt lat="47.71598" lon="-3.369">
        <ele>13.2</ele>
        <time>2021-08-14T13:03:19Z</time>
      </trkpt>
      <trkpt lat="47.71598" lon="-3.369">
        <ele>13.2</ele>
        <time>2021-08-14T13:03:20Z</time>
      </trkpt>
      <trkpt lat="47.71598" lon="-3.369">
        <ele>13.2</ele>
        <time>2021-08-14T13:03:21Z</time>
      </trkpt>
      <trkpt lat="47.71598" lon="-3.369">
        <ele>13.4</ele>
        <time>2021-08-14T13:03:22Z</time>
      </trkpt>
      <trkpt lat="47.71598" lon="-3.369">
        <ele>13.6</ele>
        <time>2021-08-14T13:03:26Z</time>
      </trkpt>
      <trkpt lat="47.71599" lon="-3.36899">
        <ele>13.6</ele>
        <time>2021-08-14T13:03:27Z</time>
      </trkpt>
      <trkpt lat="47.71599" lon="-3.36899">
        <ele>13.6</ele>
        <time>2021-08-14T13:03:28Z</time>
      </trkpt>
      <trkpt lat="47.71599" lon="-3.36899">
        <ele>13.8</ele>
        <time>2021-08-14T13:03:29Z</time>
      </trkpt>
      <trkpt lat="47.7161" lon="-3.36886">
        <ele>13.4</ele>
        <time>2021-08-14T13:04:45Z</time>
      </trkpt>
      <trkpt lat="47.71612" lon="-3.36885">
        <ele>13.4</ele>
        <time>2021-08-14T13:04:46Z</time>
      </trkpt>
      <trkpt lat="47.71614" lon="-3.36883">
        <ele>13.4</ele>
        <time>2021-08-14T13:04:47Z</time>
      </trkpt>
      <trkpt lat="47.71615" lon="-3.3688">
        <ele>13.4</ele>
        <time>2021-08-14T13:04:48Z</time>
      </trkpt>
      <trkpt lat="47.71617" lon="-3.36878">
        <ele>13.4</ele>
        <time>2021-08-14T13:04:49Z</time>
      </trkpt>
      <trkpt lat="47.7162" lon="-3.36876">
        <ele>13.4</ele>
        <time>2021-08-14T13:04:50Z</time>
      </trkpt>
      <trkpt lat="47.71623" lon="-3.36873">
        <ele>13.4</ele>
        <time>2021-08-14T13:04:51Z</time>
      </trkpt>
      <trkpt lat="47.71625" lon="-3.36869">
        <ele>13.4</ele>
        <time>2021-08-14T13:04:52Z</time>
      </trkpt>
      <trkpt lat="47.71627" lon="-3.36863">
        <ele>13.4</ele>
        <time>2021-08-14T13:04:53Z</time>
      </trkpt>
      <trkpt lat="47.71628" lon="-3.36857">
        <ele>13.4</ele>
        <time>2021-08-14T13:04:54Z</time>
      </trkpt>
      <trkpt lat="47.71628" lon="-3.36852">
        <ele>13.4</ele>
        <time>2021-08-14T13:04:55Z</time>
      </trkpt>
      <trkpt lat="47.71629" lon="-3.36846">
        <ele>13.4</ele>
        <time>2021-08-14T13:04:56Z</time>
      </trkpt>
      <trkpt lat="47.7163" lon="-3.36841">
        <ele>13.2</ele>
        <time>2021-08-14T13:04:57Z</time>
      </trkpt>
      <trkpt lat="47.71632" lon="-3.36837">
        <ele>13</ele>
        <time>2021-08-14T13:04:58Z</time>
      </trkpt>
      <trkpt lat="47.71634" lon="-3.36833">
        <ele>12.8</ele>
        <time>2021-08-14T13:04:59Z</time>
      </trkpt>
      <trkpt lat="47.71635" lon="-3.36829">
        <ele>12.6</ele>
        <time>2021-08-14T13:05:00Z</time>
      </trkpt>
      <trkpt lat="47.71637" lon="-3.36825">
        <ele>12.4</ele>
        <time>2021-08-14T13:05:01Z</time>
      </trkpt>
      <trkpt lat="47.71637" lon="-3.3682">
        <ele>12.4</ele>
        <time>2021-08-14T13:05:02Z</time>
      </trkpt>
      <trkpt lat="47.71639" lon="-3.36816">
        <ele>12.2</ele>
        <time>2021-08-14T13:05:03Z</time>
      </trkpt>
      <trkpt lat="47.7164" lon="-3.36811">
        <ele>12.2</ele>
        <time>2021-08-14T13:05:04Z</time>
      </trkpt>
      <trkpt lat="47.71642" lon="-3.36807">
        <ele>12.2</ele>
        <time>2021-08-14T13:05:05Z</time>
      </trkpt>
      <trkpt lat="47.71644" lon="-3.36802">
        <ele>12</ele>
        <time>2021-08-14T13:05:06Z</time>
      </trkpt>
      <trkpt lat="47.71646" lon="-3.36796">
        <ele>11.8</ele>
        <time>2021-08-14T13:05:07Z</time>
      </trkpt>
      <trkpt lat="47.71648" lon="-3.36791">
        <ele>11.8</ele>
        <time>2021-08-14T13:05:08Z</time>
      </trkpt>
      <trkpt lat="47.7165" lon="-3.36785">
        <ele>11.8</ele>
        <time>2021-08-14T13:05:09Z</time>
      </trkpt>
      <trkpt lat="47.71653" lon="-3.3678">
        <ele>11.8</ele>
        <time>2021-08-14T13:05:10Z</time>
      </trkpt>
      <trkpt lat="47.71655" lon="-3.36775">
        <ele>11.6</ele>
        <time>2021-08-14T13:05:11Z</time>
      </trkpt>
      <trkpt lat="47.71658" lon="-3.36771">
        <ele>11.6</ele>
        <time>2021-08-14T13:05:12Z</time>
      </trkpt>
      <trkpt lat="47.71662" lon="-3.36768">
        <ele>11.6</ele>
        <time>2021-08-14T13:05:13Z</time>
      </trkpt>
      <trkpt lat="47.71665" lon="-3.36764">
        <ele>11.4</ele>
        <time>2021-08-14T13:05:14Z</time>
      </trkpt>
      <trkpt lat="47.71668" lon="-3.3676">
        <ele>11.2</ele>
        <time>2021-08-14T13:05:15Z</time>
      </trkpt>
      <trkpt lat="47.71671" lon="-3.36756">
        <ele>11.2</ele>
        <time>2021-08-14T13:05:16Z</time>
      </trkpt>
      <trkpt lat="47.71674" lon="-3.36753">
        <ele>11.2</ele>
        <time>2021-08-14T13:05:17Z</time>
      </trkpt>
      <trkpt lat="47.71678" lon="-3.36749">
        <ele>11.2</ele>
        <time>2021-08-14T13:05:18Z</time>
      </trkpt>
      <trkpt lat="47.71681" lon="-3.36746">
        <ele>11.2</ele>
        <time>2021-08-14T13:05:19Z</time>
      </trkpt>
      <trkpt lat="47.71685" lon="-3.36743">
        <ele>11.2</ele>
        <time>2021-08-14T13:05:20Z</time>
      </trkpt>
      <trkpt lat="47.71689" lon="-3.36741">
        <ele>11.2</ele>
        <time>2021-08-14T13:05:21Z</time>
      </trkpt>
      <trkpt lat="47.71693" lon="-3.36739">
        <ele>11.2</ele>
        <time>2021-08-14T13:05:22Z</time>
      </trkpt>
      <trkpt lat="47.71697" lon="-3.36739">
        <ele>11.2</ele>
        <time>2021-08-14T13:05:23Z</time>
      </trkpt>
      <trkpt lat="47.71701" lon="-3.36739">
        <ele>11.2</ele>
        <time>2021-08-14T13:05:24Z</time>
      </trkpt>
      <trkpt lat="47.71705" lon="-3.36739">
        <ele>11.2</ele>
        <time>2021-08-14T13:05:25Z</time>
      </trkpt>
      <trkpt lat="47.71709" lon="-3.36739">
        <ele>11.2</ele>
        <time>2021-08-14T13:05:26Z</time>
      </trkpt>
      <trkpt lat="47.71713" lon="-3.36739">
        <ele>11.2</ele>
        <time>2021-08-14T13:05:27Z</time>
      </trkpt>
      <trkpt lat="47.71717" lon="-3.3674">
        <ele>11.2</ele>
        <time>2021-08-14T13:05:28Z</time>
      </trkpt>
      <trkpt lat="47.71721" lon="-3.36741">
        <ele>11.2</ele>
        <time>2021-08-14T13:05:29Z</time>
      </trkpt>
      <trkpt lat="47.71725" lon="-3.36744">
        <ele>11.2</ele>
        <time>2021-08-14T13:05:30Z</time>
      </trkpt>
      <trkpt lat="47.71729" lon="-3.36746">
        <ele>11.4</ele>
        <time>2021-08-14T13:05:31Z</time>
      </trkpt>
      <trkpt lat="47.71733" lon="-3.36748">
        <ele>11.4</ele>
        <time>2021-08-14T13:05:32Z</time>
      </trkpt>
      <trkpt lat="47.71737" lon="-3.36751">
        <ele>11.4</ele>
        <time>2021-08-14T13:05:33Z</time>
      </trkpt>
      <trkpt lat="47.7174" lon="-3.36753">
        <ele>11.4</ele>
        <time>2021-08-14T13:05:34Z</time>
      </trkpt>
      <trkpt lat="47.71744" lon="-3.36755">
        <ele>11.4</ele>
        <time>2021-08-14T13:05:35Z</time>
      </trkpt>
      <trkpt lat="47.71748" lon="-3.36758">
        <ele>11.2</ele>
        <time>2021-08-14T13:05:36Z</time>
      </trkpt>
      <trkpt lat="47.71751" lon="-3.3676">
        <ele>11.2</ele>
        <time>2021-08-14T13:05:37Z</time>
      </trkpt>
      <trkpt lat="47.71755" lon="-3.36762">
        <ele>11</ele>
        <time>2021-08-14T13:05:38Z</time>
      </trkpt>
      <trkpt lat="47.71758" lon="-3.36765">
        <ele>11</ele>
        <time>2021-08-14T13:05:39Z</time>
      </trkpt>
      <trkpt lat="47.71761" lon="-3.36767">
        <ele>11</ele>
        <time>2021-08-14T13:05:40Z</time>
      </trkpt>
      <trkpt lat="47.71763" lon="-3.36769">
        <ele>11</ele>
        <time>2021-08-14T13:05:41Z</time>
      </trkpt>
      <trkpt lat="47.71766" lon="-3.36771">
        <ele>11</ele>
        <time>2021-08-14T13:05:42Z</time>
      </trkpt>
      <trkpt lat="47.71768" lon="-3.36773">
        <ele>11</ele>
        <time>2021-08-14T13:05:43Z</time>
      </trkpt>
      <trkpt lat="47.7177" lon="-3.36775">
        <ele>11</ele>
        <time>2021-08-14T13:05:44Z</time>
      </trkpt>
      <trkpt lat="47.71771" lon="-3.36777">
        <ele>11</ele>
        <time>2021-08-14T13:05:45Z</time>
      </trkpt>
      <trkpt lat="47.71772" lon="-3.3678">
        <ele>11</ele>
        <time>2021-08-14T13:05:46Z</time>
      </trkpt>
      <trkpt lat="47.71773" lon="-3.36783">
        <ele>11</ele>
        <time>2021-08-14T13:05:47Z</time>
      </trkpt>
      <trkpt lat="47.71772" lon="-3.36786">
        <ele>11</ele>
        <time>2021-08-14T13:05:48Z</time>
      </trkpt>
      <trkpt lat="47.71772" lon="-3.3679">
        <ele>11.2</ele>
        <time>2021-08-14T13:05:49Z</time>
      </trkpt>
      <trkpt lat="47.71772" lon="-3.36793">
        <ele>11.2</ele>
        <time>2021-08-14T13:05:50Z</time>
      </trkpt>
      <trkpt lat="47.71771" lon="-3.36796">
        <ele>11.2</ele>
        <time>2021-08-14T13:05:51Z</time>
      </trkpt>
      <trkpt lat="47.71771" lon="-3.36799">
        <ele>11.2</ele>
        <time>2021-08-14T13:05:52Z</time>
      </trkpt>
      <trkpt lat="47.71771" lon="-3.36802">
        <ele>11.2</ele>
        <time>2021-08-14T13:05:53Z</time>
      </trkpt>
      <trkpt lat="47.71773" lon="-3.36805">
        <ele>11.2</ele>
        <time>2021-08-14T13:05:54Z</time>
      </trkpt>
      <trkpt lat="47.71775" lon="-3.36808">
        <ele>11.2</ele>
        <time>2021-08-14T13:05:55Z</time>
      </trkpt>
      <trkpt lat="47.71777" lon="-3.36811">
        <ele>11.2</ele>
        <time>2021-08-14T13:05:56Z</time>
      </trkpt>
      <trkpt lat="47.71779" lon="-3.36815">
        <ele>11.2</ele>
        <time>2021-08-14T13:05:57Z</time>
      </trkpt>
      <trkpt lat="47.71782" lon="-3.36818">
        <ele>11.2</ele>
        <time>2021-08-14T13:05:58Z</time>
      </trkpt>
      <trkpt lat="47.71784" lon="-3.36821">
        <ele>11.2</ele>
        <time>2021-08-14T13:05:59Z</time>
      </trkpt>
      <trkpt lat="47.71787" lon="-3.36825">
        <ele>11.2</ele>
        <time>2021-08-14T13:06:00Z</time>
      </trkpt>
      <trkpt lat="47.71789" lon="-3.36828">
        <ele>11.2</ele>
        <time>2021-08-14T13:06:01Z</time>
      </trkpt>
      <trkpt lat="47.71792" lon="-3.36832">
        <ele>11.2</ele>
        <time>2021-08-14T13:06:02Z</time>
      </trkpt>
      <trkpt lat="47.71795" lon="-3.36834">
        <ele>11</ele>
        <time>2021-08-14T13:06:03Z</time>
      </trkpt>
      <trkpt lat="47.71798" lon="-3.36837">
        <ele>10.8</ele>
        <time>2021-08-14T13:06:04Z</time>
      </trkpt>
      <trkpt lat="47.718" lon="-3.36841">
        <ele>10.8</ele>
        <time>2021-08-14T13:06:05Z</time>
      </trkpt>
      <trkpt lat="47.71803" lon="-3.36845">
        <ele>10.6</ele>
        <time>2021-08-14T13:06:06Z</time>
      </trkpt>
      <trkpt lat="47.71805" lon="-3.36849">
        <ele>10.4</ele>
        <time>2021-08-14T13:06:07Z</time>
      </trkpt>
      <trkpt lat="47.71808" lon="-3.36853">
        <ele>10.4</ele>
        <time>2021-08-14T13:06:08Z</time>
      </trkpt>
      <trkpt lat="47.7181" lon="-3.36856">
        <ele>10.4</ele>
        <time>2021-08-14T13:06:09Z</time>
      </trkpt>
      <trkpt lat="47.71811" lon="-3.36859">
        <ele>10.4</ele>
        <time>2021-08-14T13:06:10Z</time>
      </trkpt>
      <trkpt lat="47.71813" lon="-3.36862">
        <ele>10.4</ele>
        <time>2021-08-14T13:06:11Z</time>
      </trkpt>
      <trkpt lat="47.71815" lon="-3.36864">
        <ele>10.4</ele>
        <time>2021-08-14T13:06:12Z</time>
      </trkpt>
      <trkpt lat="47.71817" lon="-3.36867">
        <ele>10.4</ele>
        <time>2021-08-14T13:06:13Z</time>
      </trkpt>
      <trkpt lat="47.71818" lon="-3.3687">
        <ele>10.4</ele>
        <time>2021-08-14T13:06:14Z</time>
      </trkpt>
      <trkpt lat="47.7182" lon="-3.36873">
        <ele>10.4</ele>
        <time>2021-08-14T13:06:15Z</time>
      </trkpt>
      <trkpt lat="47.71822" lon="-3.36876">
        <ele>10.4</ele>
        <time>2021-08-14T13:06:16Z</time>
      </trkpt>
      <trkpt lat="47.71824" lon="-3.36878">
        <ele>10.4</ele>
        <time>2021-08-14T13:06:17Z</time>
      </trkpt>
      <trkpt lat="47.71825" lon="-3.36881">
        <ele>10.4</ele>
        <time>2021-08-14T13:06:18Z</time>
      </trkpt>
      <trkpt lat="47.71826" lon="-3.36883">
        <ele>10.4</ele>
        <time>2021-08-14T13:06:19Z</time>
      </trkpt>
      <trkpt lat="47.71828" lon="-3.36885">
        <ele>10.4</ele>
        <time>2021-08-14T13:06:20Z</time>
      </trkpt>
      <trkpt lat="47.71829" lon="-3.36888">
        <ele>10.4</ele>
        <time>2021-08-14T13:06:21Z</time>
      </trkpt>
      <trkpt lat="47.71831" lon="-3.3689">
        <ele>10.4</ele>
        <time>2021-08-14T13:06:22Z</time>
      </trkpt>
      <trkpt lat="47.71832" lon="-3.36892">
        <ele>10.4</ele>
        <time>2021-08-14T13:06:23Z</time>
      </trkpt>
      <trkpt lat="47.71833" lon="-3.36894">
        <ele>10.4</ele>
        <time>2021-08-14T13:06:24Z</time>
      </trkpt>
      <trkpt lat="47.71834" lon="-3.36896">
        <ele>10.6</ele>
        <time>2021-08-14T13:06:25Z</time>
      </trkpt>
      <trkpt lat="47.71835" lon="-3.36898">
        <ele>10.6</ele>
        <time>2021-08-14T13:06:26Z</time>
      </trkpt>
      <trkpt lat="47.71837" lon="-3.36899">
        <ele>11</ele>
        <time>2021-08-14T13:06:27Z</time>
      </trkpt>
      <trkpt lat="47.71838" lon="-3.36901">
        <ele>11.2</ele>
        <time>2021-08-14T13:06:28Z</time>
      </trkpt>
      <trkpt lat="47.71838" lon="-3.36902">
        <ele>11.2</ele>
        <time>2021-08-14T13:06:29Z</time>
      </trkpt>
      <trkpt lat="47.71839" lon="-3.36904">
        <ele>11.2</ele>
        <time>2021-08-14T13:06:30Z</time>
      </trkpt>
      <trkpt lat="47.7184" lon="-3.36905">
        <ele>11.4</ele>
        <time>2021-08-14T13:06:31Z</time>
      </trkpt>
      <trkpt lat="47.71841" lon="-3.36906">
        <ele>11.4</ele>
        <time>2021-08-14T13:06:32Z</time>
      </trkpt>
      <trkpt lat="47.71842" lon="-3.36907">
        <ele>11.6</ele>
        <time>2021-08-14T13:06:33Z</time>
      </trkpt>
      <trkpt lat="47.71844" lon="-3.36908">
        <ele>11.8</ele>
        <time>2021-08-14T13:06:34Z</time>
      </trkpt>
      <trkpt lat="47.71848" lon="-3.36907">
        <ele>12</ele>
        <time>2021-08-14T13:06:36Z</time>
      </trkpt>
      <trkpt lat="47.7185" lon="-3.36904">
        <ele>12</ele>
        <time>2021-08-14T13:06:37Z</time>
      </trkpt>
      <trkpt lat="47.71852" lon="-3.36902">
        <ele>12</ele>
        <time>2021-08-14T13:06:38Z</time>
      </trkpt>
      <trkpt lat="47.71857" lon="-3.36897">
        <ele>12</ele>
        <time>2021-08-14T13:06:40Z</time>
      </trkpt>
      <trkpt lat="47.71863" lon="-3.36894">
        <ele>12</ele>
        <time>2021-08-14T13:06:42Z</time>
      </trkpt>
      <trkpt lat="47.71866" lon="-3.36892">
        <ele>12</ele>
        <time>2021-08-14T13:06:43Z</time>
      </trkpt>
      <trkpt lat="47.71869" lon="-3.3689">
        <ele>12</ele>
        <time>2021-08-14T13:06:44Z</time>
      </trkpt>
      <trkpt lat="47.71874" lon="-3.36887">
        <ele>12</ele>
        <time>2021-08-14T13:06:46Z</time>
      </trkpt>
      <trkpt lat="47.71877" lon="-3.36885">
        <ele>12.2</ele>
        <time>2021-08-14T13:06:47Z</time>
      </trkpt>
      <trkpt lat="47.71879" lon="-3.36884">
        <ele>12.2</ele>
        <time>2021-08-14T13:06:48Z</time>
      </trkpt>
      <trkpt lat="47.71882" lon="-3.36883">
        <ele>12</ele>
        <time>2021-08-14T13:06:49Z</time>
      </trkpt>
      <trkpt lat="47.71884" lon="-3.36883">
        <ele>12</ele>
        <time>2021-08-14T13:06:50Z</time>
      </trkpt>
      <trkpt lat="47.71885" lon="-3.36884">
        <ele>12</ele>
        <time>2021-08-14T13:06:51Z</time>
      </trkpt>
      <trkpt lat="47.71886" lon="-3.36886">
        <ele>12</ele>
        <time>2021-08-14T13:06:52Z</time>
      </trkpt>
      <trkpt lat="47.71887" lon="-3.36887">
        <ele>12</ele>
        <time>2021-08-14T13:06:53Z</time>
      </trkpt>
      <trkpt lat="47.71888" lon="-3.36887">
        <ele>12</ele>
        <time>2021-08-14T13:06:54Z</time>
      </trkpt>
      <trkpt lat="47.71889" lon="-3.36887">
        <ele>12.2</ele>
        <time>2021-08-14T13:06:55Z</time>
      </trkpt>
      <trkpt lat="47.7189" lon="-3.36887">
        <ele>12.4</ele>
        <time>2021-08-14T13:06:56Z</time>
      </trkpt>
      <trkpt lat="47.71891" lon="-3.36888">
        <ele>12.4</ele>
        <time>2021-08-14T13:06:57Z</time>
      </trkpt>
      <trkpt lat="47.71891" lon="-3.36888">
        <ele>12.4</ele>
        <time>2021-08-14T13:06:58Z</time>
      </trkpt>
      <trkpt lat="47.71892" lon="-3.36888">
        <ele>12.4</ele>
        <time>2021-08-14T13:06:59Z</time>
      </trkpt>
      <trkpt lat="47.71894" lon="-3.36889">
        <ele>12.6</ele>
        <time>2021-08-14T13:07:02Z</time>
      </trkpt>
      <trkpt lat="47.71894" lon="-3.3689">
        <ele>12.6</ele>
        <time>2021-08-14T13:07:03Z</time>
      </trkpt>
      <trkpt lat="47.71895" lon="-3.3689">
        <ele>12.6</ele>
        <time>2021-08-14T13:07:04Z</time>
      </trkpt>
      <trkpt lat="47.71895" lon="-3.3689">
        <ele>12.6</ele>
        <time>2021-08-14T13:07:05Z</time>
      </trkpt>
      <trkpt lat="47.71895" lon="-3.36902">
        <ele>12.2</ele>
        <time>2021-08-14T13:09:42Z</time>
      </trkpt>
      <trkpt lat="47.71895" lon="-3.36901">
        <ele>12.2</ele>
        <time>2021-08-14T13:09:43Z</time>
      </trkpt>
      <trkpt lat="47.71895" lon="-3.36901">
        <ele>12.4</ele>
        <time>2021-08-14T13:09:44Z</time>
      </trkpt>
      <trkpt lat="47.71895" lon="-3.36901">
        <ele>12.4</ele>
        <time>2021-08-14T13:09:45Z</time>
      </trkpt>
      <trkpt lat="47.71901" lon="-3.36908">
        <ele>12.4</ele>
        <time>2021-08-14T13:15:09Z</time>
      </trkpt>
      <trkpt lat="47.71901" lon="-3.3691">
        <ele>12.4</ele>
        <time>2021-08-14T13:15:10Z</time>
      </trkpt>
      <trkpt lat="47.71902" lon="-3.36913">
        <ele>12.4</ele>
        <time>2021-08-14T13:15:11Z</time>
      </trkpt>
      <trkpt lat="47.71903" lon="-3.36915">
        <ele>12.4</ele>
        <time>2021-08-14T13:15:12Z</time>
      </trkpt>
      <trkpt lat="47.71903" lon="-3.36918">
        <ele>12.4</ele>
        <time>2021-08-14T13:15:13Z</time>
      </trkpt>
      <trkpt lat="47.71902" lon="-3.36919">
        <ele>12.4</ele>
        <time>2021-08-14T13:15:14Z</time>
      </trkpt>
      <trkpt lat="47.71901" lon="-3.3692">
        <ele>12.4</ele>
        <time>2021-08-14T13:15:15Z</time>
      </trkpt>
      <trkpt lat="47.71899" lon="-3.36921">
        <ele>12.4</ele>
        <time>2021-08-14T13:15:16Z</time>
      </trkpt>
      <trkpt lat="47.71898" lon="-3.36922">
        <ele>12.2</ele>
        <time>2021-08-14T13:15:17Z</time>
      </trkpt>
      <trkpt lat="47.71896" lon="-3.36922">
        <ele>12.2</ele>
        <time>2021-08-14T13:15:18Z</time>
      </trkpt>
      <trkpt lat="47.71895" lon="-3.36923">
        <ele>12.2</ele>
        <time>2021-08-14T13:15:19Z</time>
      </trkpt>
      <trkpt lat="47.71894" lon="-3.36923">
        <ele>12.2</ele>
        <time>2021-08-14T13:15:20Z</time>
      </trkpt>
      <trkpt lat="47.71893" lon="-3.36924">
        <ele>12.2</ele>
        <time>2021-08-14T13:15:21Z</time>
      </trkpt>
      <trkpt lat="47.71891" lon="-3.36926">
        <ele>12.2</ele>
        <time>2021-08-14T13:15:22Z</time>
      </trkpt>
      <trkpt lat="47.7189" lon="-3.36927">
        <ele>12.2</ele>
        <time>2021-08-14T13:15:23Z</time>
      </trkpt>
      <trkpt lat="47.71888" lon="-3.36929">
        <ele>12.2</ele>
        <time>2021-08-14T13:15:24Z</time>
      </trkpt>
      <trkpt lat="47.71886" lon="-3.36931">
        <ele>12</ele>
        <time>2021-08-14T13:15:25Z</time>
      </trkpt>
      <trkpt lat="47.71884" lon="-3.36932">
        <ele>12</ele>
        <time>2021-08-14T13:15:26Z</time>
      </trkpt>
      <trkpt lat="47.71882" lon="-3.36934">
        <ele>12</ele>
        <time>2021-08-14T13:15:27Z</time>
      </trkpt>
      <trkpt lat="47.7188" lon="-3.36935">
        <ele>12</ele>
        <time>2021-08-14T13:15:28Z</time>
      </trkpt>
      <trkpt lat="47.71878" lon="-3.36937">
        <ele>12</ele>
        <time>2021-08-14T13:15:29Z</time>
      </trkpt>
      <trkpt lat="47.71877" lon="-3.36939">
        <ele>12</ele>
        <time>2021-08-14T13:15:30Z</time>
      </trkpt>
      <trkpt lat="47.71875" lon="-3.36941">
        <ele>12</ele>
        <time>2021-08-14T13:15:31Z</time>
      </trkpt>
      <trkpt lat="47.71873" lon="-3.36942">
        <ele>12</ele>
        <time>2021-08-14T13:15:32Z</time>
      </trkpt>
      <trkpt lat="47.71871" lon="-3.36943">
        <ele>12</ele>
        <time>2021-08-14T13:15:33Z</time>
      </trkpt>
      <trkpt lat="47.71868" lon="-3.36944">
        <ele>12</ele>
        <time>2021-08-14T13:15:34Z</time>
      </trkpt>
      <trkpt lat="47.71866" lon="-3.36946">
        <ele>12</ele>
        <time>2021-08-14T13:15:35Z</time>
      </trkpt>
      <trkpt lat="47.71863" lon="-3.36947">
        <ele>12</ele>
        <time>2021-08-14T13:15:36Z</time>
      </trkpt>
      <trkpt lat="47.7186" lon="-3.36949">
        <ele>12</ele>
        <time>2021-08-14T13:15:37Z</time>
      </trkpt>
      <trkpt lat="47.71858" lon="-3.36951">
        <ele>12</ele>
        <time>2021-08-14T13:15:38Z</time>
      </trkpt>
      <trkpt lat="47.71856" lon="-3.36953">
        <ele>12</ele>
        <time>2021-08-14T13:15:39Z</time>
      </trkpt>
      <trkpt lat="47.71853" lon="-3.36955">
        <ele>11.8</ele>
        <time>2021-08-14T13:15:40Z</time>
      </trkpt>
      <trkpt lat="47.7185" lon="-3.36956">
        <ele>11.8</ele>
        <time>2021-08-14T13:15:41Z</time>
      </trkpt>
      <trkpt lat="47.71848" lon="-3.36957">
        <ele>11.6</ele>
        <time>2021-08-14T13:15:42Z</time>
      </trkpt>
      <trkpt lat="47.71845" lon="-3.36958">
        <ele>11.6</ele>
        <time>2021-08-14T13:15:43Z</time>
      </trkpt>
      <trkpt lat="47.71842" lon="-3.36958">
        <ele>11.6</ele>
        <time>2021-08-14T13:15:44Z</time>
      </trkpt>
      <trkpt lat="47.71836" lon="-3.36957">
        <ele>11.4</ele>
        <time>2021-08-14T13:15:46Z</time>
      </trkpt>
      <trkpt lat="47.71833" lon="-3.36956">
        <ele>11.4</ele>
        <time>2021-08-14T13:15:47Z</time>
      </trkpt>
      <trkpt lat="47.7183" lon="-3.36956">
        <ele>11.4</ele>
        <time>2021-08-14T13:15:48Z</time>
      </trkpt>
      <trkpt lat="47.71828" lon="-3.36955">
        <ele>11.4</ele>
        <time>2021-08-14T13:15:49Z</time>
      </trkpt>
      <trkpt lat="47.71825" lon="-3.36955">
        <ele>11.4</ele>
        <time>2021-08-14T13:15:50Z</time>
      </trkpt>
      <trkpt lat="47.71823" lon="-3.36954">
        <ele>11.4</ele>
        <time>2021-08-14T13:15:51Z</time>
      </trkpt>
      <trkpt lat="47.7182" lon="-3.36954">
        <ele>11.4</ele>
        <time>2021-08-14T13:15:52Z</time>
      </trkpt>
      <trkpt lat="47.71818" lon="-3.36954">
        <ele>11.4</ele>
        <time>2021-08-14T13:15:53Z</time>
      </trkpt>
      <trkpt lat="47.71816" lon="-3.36954">
        <ele>11.6</ele>
        <time>2021-08-14T13:15:54Z</time>
      </trkpt>
      <trkpt lat="47.71814" lon="-3.36955">
        <ele>11.6</ele>
        <time>2021-08-14T13:15:55Z</time>
      </trkpt>
      <trkpt lat="47.71811" lon="-3.36955">
        <ele>11.8</ele>
        <time>2021-08-14T13:15:56Z</time>
      </trkpt>
      <trkpt lat="47.71809" lon="-3.36957">
        <ele>11.8</ele>
        <time>2021-08-14T13:15:57Z</time>
      </trkpt>
      <trkpt lat="47.71807" lon="-3.36959">
        <ele>11.8</ele>
        <time>2021-08-14T13:15:58Z</time>
      </trkpt>
      <trkpt lat="47.71804" lon="-3.36962">
        <ele>11.8</ele>
        <time>2021-08-14T13:15:59Z</time>
      </trkpt>
      <trkpt lat="47.71802" lon="-3.36965">
        <ele>11.8</ele>
        <time>2021-08-14T13:16:00Z</time>
      </trkpt>
      <trkpt lat="47.718" lon="-3.36968">
        <ele>11.8</ele>
        <time>2021-08-14T13:16:01Z</time>
      </trkpt>
      <trkpt lat="47.71797" lon="-3.36971">
        <ele>11.8</ele>
        <time>2021-08-14T13:16:02Z</time>
      </trkpt>
      <trkpt lat="47.71795" lon="-3.36974">
        <ele>11.8</ele>
        <time>2021-08-14T13:16:03Z</time>
      </trkpt>
      <trkpt lat="47.71793" lon="-3.36977">
        <ele>11.8</ele>
        <time>2021-08-14T13:16:04Z</time>
      </trkpt>
      <trkpt lat="47.7179" lon="-3.36981">
        <ele>11.8</ele>
        <time>2021-08-14T13:16:05Z</time>
      </trkpt>
      <trkpt lat="47.71789" lon="-3.36984">
        <ele>11.8</ele>
        <time>2021-08-14T13:16:06Z</time>
      </trkpt>
      <trkpt lat="47.71787" lon="-3.36988">
        <ele>11.8</ele>
        <time>2021-08-14T13:16:07Z</time>
      </trkpt>
      <trkpt lat="47.71785" lon="-3.36991">
        <ele>11.6</ele>
        <time>2021-08-14T13:16:08Z</time>
      </trkpt>
      <trkpt lat="47.71783" lon="-3.36995">
        <ele>11.6</ele>
        <time>2021-08-14T13:16:09Z</time>
      </trkpt>
      <trkpt lat="47.7178" lon="-3.36998">
        <ele>11.4</ele>
        <time>2021-08-14T13:16:10Z</time>
      </trkpt>
      <trkpt lat="47.71778" lon="-3.37001">
        <ele>11.4</ele>
        <time>2021-08-14T13:16:11Z</time>
      </trkpt>
      <trkpt lat="47.71777" lon="-3.37005">
        <ele>11.4</ele>
        <time>2021-08-14T13:16:12Z</time>
      </trkpt>
      <trkpt lat="47.71775" lon="-3.3701">
        <ele>11.4</ele>
        <time>2021-08-14T13:16:13Z</time>
      </trkpt>
      <trkpt lat="47.71773" lon="-3.37014">
        <ele>11.4</ele>
        <time>2021-08-14T13:16:14Z</time>
      </trkpt>
      <trkpt lat="47.71771" lon="-3.37018">
        <ele>11.2</ele>
        <time>2021-08-14T13:16:15Z</time>
      </trkpt>
      <trkpt lat="47.71768" lon="-3.37022">
        <ele>11.2</ele>
        <time>2021-08-14T13:16:16Z</time>
      </trkpt>
      <trkpt lat="47.71766" lon="-3.37027">
        <ele>11.2</ele>
        <time>2021-08-14T13:16:17Z</time>
      </trkpt>
      <trkpt lat="47.71764" lon="-3.37031">
        <ele>11.2</ele>
        <time>2021-08-14T13:16:18Z</time>
      </trkpt>
      <trkpt lat="47.71762" lon="-3.37036">
        <ele>11.2</ele>
        <time>2021-08-14T13:16:19Z</time>
      </trkpt>
      <trkpt lat="47.71759" lon="-3.37041">
        <ele>11.2</ele>
        <time>2021-08-14T13:16:20Z</time>
      </trkpt>
      <trkpt lat="47.71757" lon="-3.37046">
        <ele>11.2</ele>
        <time>2021-08-14T13:16:21Z</time>
      </trkpt>
      <trkpt lat="47.71755" lon="-3.37051">
        <ele>11</ele>
        <time>2021-08-14T13:16:22Z</time>
      </trkpt>
      <trkpt lat="47.71753" lon="-3.37056">
        <ele>11</ele>
        <time>2021-08-14T13:16:23Z</time>
      </trkpt>
      <trkpt lat="47.7175" lon="-3.37061">
        <ele>11</ele>
        <time>2021-08-14T13:16:24Z</time>
      </trkpt>
      <trkpt lat="47.71746" lon="-3.3707">
        <ele>11</ele>
        <time>2021-08-14T13:16:26Z</time>
      </trkpt>
      <trkpt lat="47.71741" lon="-3.3708">
        <ele>11</ele>
        <time>2021-08-14T13:16:28Z</time>
      </trkpt>
      <trkpt lat="47.71737" lon="-3.37089">
        <ele>11</ele>
        <time>2021-08-14T13:16:30Z</time>
      </trkpt>
      <trkpt lat="47.71733" lon="-3.37099">
        <ele>11</ele>
        <time>2021-08-14T13:16:32Z</time>
      </trkpt>
      <trkpt lat="47.71728" lon="-3.37109">
        <ele>11</ele>
        <time>2021-08-14T13:16:34Z</time>
      </trkpt>
      <trkpt lat="47.71726" lon="-3.37114">
        <ele>11</ele>
        <time>2021-08-14T13:16:35Z</time>
      </trkpt>
      <trkpt lat="47.71725" lon="-3.3712">
        <ele>11</ele>
        <time>2021-08-14T13:16:36Z</time>
      </trkpt>
      <trkpt lat="47.71722" lon="-3.37131">
        <ele>11.2</ele>
        <time>2021-08-14T13:16:38Z</time>
      </trkpt>
      <trkpt lat="47.7172" lon="-3.37141">
        <ele>11.2</ele>
        <time>2021-08-14T13:16:40Z</time>
      </trkpt>
      <trkpt lat="47.71719" lon="-3.37152">
        <ele>11.2</ele>
        <time>2021-08-14T13:16:42Z</time>
      </trkpt>
      <trkpt lat="47.71718" lon="-3.37163">
        <ele>11.2</ele>
        <time>2021-08-14T13:16:44Z</time>
      </trkpt>
      <trkpt lat="47.71716" lon="-3.37173">
        <ele>11.2</ele>
        <time>2021-08-14T13:16:46Z</time>
      </trkpt>
      <trkpt lat="47.71712" lon="-3.37181">
        <ele>11</ele>
        <time>2021-08-14T13:16:48Z</time>
      </trkpt>
      <trkpt lat="47.71708" lon="-3.37189">
        <ele>11</ele>
        <time>2021-08-14T13:16:50Z</time>
      </trkpt>
      <trkpt lat="47.71706" lon="-3.37199">
        <ele>11</ele>
        <time>2021-08-14T13:16:52Z</time>
      </trkpt>
      <trkpt lat="47.71705" lon="-3.37205">
        <ele>11</ele>
        <time>2021-08-14T13:16:53Z</time>
      </trkpt>
      <trkpt lat="47.71705" lon="-3.37211">
        <ele>11</ele>
        <time>2021-08-14T13:16:54Z</time>
      </trkpt>
      <trkpt lat="47.71705" lon="-3.37216">
        <ele>11</ele>
        <time>2021-08-14T13:16:55Z</time>
      </trkpt>
      <trkpt lat="47.71705" lon="-3.37222">
        <ele>10.8</ele>
        <time>2021-08-14T13:16:56Z</time>
      </trkpt>
      <trkpt lat="47.71704" lon="-3.37227">
        <ele>10.8</ele>
        <time>2021-08-14T13:16:57Z</time>
      </trkpt>
      <trkpt lat="47.71704" lon="-3.37232">
        <ele>10.8</ele>
        <time>2021-08-14T13:16:58Z</time>
      </trkpt>
      <trkpt lat="47.71704" lon="-3.37238">
        <ele>10.8</ele>
        <time>2021-08-14T13:16:59Z</time>
      </trkpt>
      <trkpt lat="47.71703" lon="-3.37243">
        <ele>10.8</ele>
        <time>2021-08-14T13:17:00Z</time>
      </trkpt>
      <trkpt lat="47.71703" lon="-3.37249">
        <ele>10.8</ele>
        <time>2021-08-14T13:17:01Z</time>
      </trkpt>
      <trkpt lat="47.71703" lon="-3.37256">
        <ele>10.8</ele>
        <time>2021-08-14T13:17:02Z</time>
      </trkpt>
      <trkpt lat="47.71702" lon="-3.37262">
        <ele>10.8</ele>
        <time>2021-08-14T13:17:03Z</time>
      </trkpt>
      <trkpt lat="47.71701" lon="-3.37268">
        <ele>10.8</ele>
        <time>2021-08-14T13:17:04Z</time>
      </trkpt>
      <trkpt lat="47.71701" lon="-3.37274">
        <ele>10.8</ele>
        <time>2021-08-14T13:17:05Z</time>
      </trkpt>
      <trkpt lat="47.71701" lon="-3.37279">
        <ele>10.8</ele>
        <time>2021-08-14T13:17:06Z</time>
      </trkpt>
      <trkpt lat="47.717" lon="-3.37285">
        <ele>10.8</ele>
        <time>2021-08-14T13:17:07Z</time>
      </trkpt>
      <trkpt lat="47.717" lon="-3.3729">
        <ele>10.8</ele>
        <time>2021-08-14T13:17:08Z</time>
      </trkpt>
      <trkpt lat="47.71701" lon="-3.37295">
        <ele>10.8</ele>
        <time>2021-08-14T13:17:09Z</time>
      </trkpt>
      <trkpt lat="47.71703" lon="-3.37299">
        <ele>10.8</ele>
        <time>2021-08-14T13:17:10Z</time>
      </trkpt>
      <trkpt lat="47.71706" lon="-3.37303">
        <ele>10.8</ele>
        <time>2021-08-14T13:17:11Z</time>
      </trkpt>
      <trkpt lat="47.71708" lon="-3.37306">
        <ele>10.8</ele>
        <time>2021-08-14T13:17:12Z</time>
      </trkpt>
      <trkpt lat="47.71711" lon="-3.37309">
        <ele>10.8</ele>
        <time>2021-08-14T13:17:13Z</time>
      </trkpt>
      <trkpt lat="47.71714" lon="-3.37311">
        <ele>11</ele>
        <time>2021-08-14T13:17:14Z</time>
      </trkpt>
      <trkpt lat="47.71718" lon="-3.37313">
        <ele>11</ele>
        <time>2021-08-14T13:17:15Z</time>
      </trkpt>
      <trkpt lat="47.71721" lon="-3.37315">
        <ele>11</ele>
        <time>2021-08-14T13:17:16Z</time>
      </trkpt>
      <trkpt lat="47.71724" lon="-3.37318">
        <ele>11</ele>
        <time>2021-08-14T13:17:17Z</time>
      </trkpt>
      <trkpt lat="47.71728" lon="-3.3732">
        <ele>11.2</ele>
        <time>2021-08-14T13:17:18Z</time>
      </trkpt>
      <trkpt lat="47.71732" lon="-3.37322">
        <ele>11.4</ele>
        <time>2021-08-14T13:17:19Z</time>
      </trkpt>
      <trkpt lat="47.71736" lon="-3.37324">
        <ele>11.6</ele>
        <time>2021-08-14T13:17:20Z</time>
      </trkpt>
      <trkpt lat="47.71739" lon="-3.37325">
        <ele>11.6</ele>
        <time>2021-08-14T13:17:21Z</time>
      </trkpt>
      <trkpt lat="47.71743" lon="-3.37327">
        <ele>11.6</ele>
        <time>2021-08-14T13:17:22Z</time>
      </trkpt>
      <trkpt lat="47.71746" lon="-3.37329">
        <ele>11.8</ele>
        <time>2021-08-14T13:17:23Z</time>
      </trkpt>
      <trkpt lat="47.7175" lon="-3.37331">
        <ele>11.8</ele>
        <time>2021-08-14T13:17:24Z</time>
      </trkpt>
      <trkpt lat="47.71753" lon="-3.37333">
        <ele>11.8</ele>
        <time>2021-08-14T13:17:25Z</time>
      </trkpt>
      <trkpt lat="47.71757" lon="-3.37334">
        <ele>11.8</ele>
        <time>2021-08-14T13:17:26Z</time>
      </trkpt>
      <trkpt lat="47.71761" lon="-3.37335">
        <ele>11.8</ele>
        <time>2021-08-14T13:17:27Z</time>
      </trkpt>
      <trkpt lat="47.71764" lon="-3.37336">
        <ele>11.8</ele>
        <time>2021-08-14T13:17:28Z</time>
      </trkpt>
      <trkpt lat="47.71768" lon="-3.37338">
        <ele>11.8</ele>
        <time>2021-08-14T13:17:29Z</time>
      </trkpt>
      <trkpt lat="47.71772" lon="-3.3734">
        <ele>11.8</ele>
        <time>2021-08-14T13:17:30Z</time>
      </trkpt>
      <trkpt lat="47.71776" lon="-3.37342">
        <ele>11.8</ele>
        <time>2021-08-14T13:17:31Z</time>
      </trkpt>
      <trkpt lat="47.7178" lon="-3.37344">
        <ele>11.8</ele>
        <time>2021-08-14T13:17:32Z</time>
      </trkpt>
      <trkpt lat="47.71784" lon="-3.37347">
        <ele>11.8</ele>
        <time>2021-08-14T13:17:33Z</time>
      </trkpt>
      <trkpt lat="47.71787" lon="-3.37349">
        <ele>11.8</ele>
        <time>2021-08-14T13:17:34Z</time>
      </trkpt>
      <trkpt lat="47.7179" lon="-3.3735">
        <ele>11.8</ele>
        <time>2021-08-14T13:17:35Z</time>
      </trkpt>
      <trkpt lat="47.71794" lon="-3.37352">
        <ele>11.8</ele>
        <time>2021-08-14T13:17:36Z</time>
      </trkpt>
      <trkpt lat="47.71797" lon="-3.37354">
        <ele>11.8</ele>
        <time>2021-08-14T13:17:37Z</time>
      </trkpt>
      <trkpt lat="47.71801" lon="-3.37356">
        <ele>11.8</ele>
        <time>2021-08-14T13:17:38Z</time>
      </trkpt>
      <trkpt lat="47.71805" lon="-3.37357">
        <ele>12</ele>
        <time>2021-08-14T13:17:39Z</time>
      </trkpt>
      <trkpt lat="47.71809" lon="-3.37359">
        <ele>12</ele>
        <time>2021-08-14T13:17:40Z</time>
      </trkpt>
      <trkpt lat="47.71813" lon="-3.37361">
        <ele>12</ele>
        <time>2021-08-14T13:17:41Z</time>
      </trkpt>
      <trkpt lat="47.71817" lon="-3.37364">
        <ele>12</ele>
        <time>2021-08-14T13:17:42Z</time>
      </trkpt>
      <trkpt lat="47.71821" lon="-3.37366">
        <ele>12</ele>
        <time>2021-08-14T13:17:43Z</time>
      </trkpt>
      <trkpt lat="47.71825" lon="-3.37369">
        <ele>12</ele>
        <time>2021-08-14T13:17:44Z</time>
      </trkpt>
      <trkpt lat="47.71829" lon="-3.37371">
        <ele>12</ele>
        <time>2021-08-14T13:17:45Z</time>
      </trkpt>
      <trkpt lat="47.71833" lon="-3.37374">
        <ele>12</ele>
        <time>2021-08-14T13:17:46Z</time>
      </trkpt>
      <trkpt lat="47.71836" lon="-3.37377">
        <ele>12</ele>
        <time>2021-08-14T13:17:47Z</time>
      </trkpt>
      <trkpt lat="47.7184" lon="-3.3738">
        <ele>12</ele>
        <time>2021-08-14T13:17:48Z</time>
      </trkpt>
      <trkpt lat="47.71844" lon="-3.37383">
        <ele>12</ele>
        <time>2021-08-14T13:17:49Z</time>
      </trkpt>
      <trkpt lat="47.71848" lon="-3.37386">
        <ele>12</ele>
        <time>2021-08-14T13:17:50Z</time>
      </trkpt>
      <trkpt lat="47.71851" lon="-3.37388">
        <ele>12</ele>
        <time>2021-08-14T13:17:51Z</time>
      </trkpt>
      <trkpt lat="47.71855" lon="-3.3739">
        <ele>12</ele>
        <time>2021-08-14T13:17:52Z</time>
      </trkpt>
      <trkpt lat="47.71859" lon="-3.37392">
        <ele>12</ele>
        <time>2021-08-14T13:17:53Z</time>
      </trkpt>
      <trkpt lat="47.71862" lon="-3.37394">
        <ele>12</ele>
        <time>2021-08-14T13:17:54Z</time>
      </trkpt>
      <trkpt lat="47.71864" lon="-3.37396">
        <ele>12.2</ele>
        <time>2021-08-14T13:17:55Z</time>
      </trkpt>
      <trkpt lat="47.71867" lon="-3.37398">
        <ele>12.2</ele>
        <time>2021-08-14T13:17:56Z</time>
      </trkpt>
      <trkpt lat="47.7187" lon="-3.37401">
        <ele>12.2</ele>
        <time>2021-08-14T13:17:57Z</time>
      </trkpt>
      <trkpt lat="47.71873" lon="-3.37404">
        <ele>12.2</ele>
        <time>2021-08-14T13:17:58Z</time>
      </trkpt>
      <trkpt lat="47.71877" lon="-3.37407">
        <ele>12.2</ele>
        <time>2021-08-14T13:17:59Z</time>
      </trkpt>
      <trkpt lat="47.71882" lon="-3.37411">
        <ele>12.2</ele>
        <time>2021-08-14T13:18:00Z</time>
      </trkpt>
      <trkpt lat="47.71886" lon="-3.37414">
        <ele>12.2</ele>
        <time>2021-08-14T13:18:01Z</time>
      </trkpt>
      <trkpt lat="47.7189" lon="-3.37417">
        <ele>12.2</ele>
        <time>2021-08-14T13:18:02Z</time>
      </trkpt>
      <trkpt lat="47.71894" lon="-3.3742">
        <ele>12.2</ele>
        <time>2021-08-14T13:18:03Z</time>
      </trkpt>
      <trkpt lat="47.71899" lon="-3.37423">
        <ele>12.4</ele>
        <time>2021-08-14T13:18:04Z</time>
      </trkpt>
      <trkpt lat="47.71903" lon="-3.37426">
        <ele>12.4</ele>
        <time>2021-08-14T13:18:05Z</time>
      </trkpt>
      <trkpt lat="47.71907" lon="-3.37429">
        <ele>12.6</ele>
        <time>2021-08-14T13:18:06Z</time>
      </trkpt>
      <trkpt lat="47.71911" lon="-3.37432">
        <ele>12.6</ele>
        <time>2021-08-14T13:18:07Z</time>
      </trkpt>
      <trkpt lat="47.71915" lon="-3.37435">
        <ele>12.6</ele>
        <time>2021-08-14T13:18:08Z</time>
      </trkpt>
      <trkpt lat="47.71919" lon="-3.37438">
        <ele>12.6</ele>
        <time>2021-08-14T13:18:09Z</time>
      </trkpt>
      <trkpt lat="47.71922" lon="-3.3744">
        <ele>12.6</ele>
        <time>2021-08-14T13:18:10Z</time>
      </trkpt>
      <trkpt lat="47.71926" lon="-3.37443">
        <ele>12.6</ele>
        <time>2021-08-14T13:18:11Z</time>
      </trkpt>
      <trkpt lat="47.7193" lon="-3.37445">
        <ele>12.6</ele>
        <time>2021-08-14T13:18:12Z</time>
      </trkpt>
      <trkpt lat="47.71934" lon="-3.37449">
        <ele>12.6</ele>
        <time>2021-08-14T13:18:13Z</time>
      </trkpt>
      <trkpt lat="47.71938" lon="-3.37451">
        <ele>12.6</ele>
        <time>2021-08-14T13:18:14Z</time>
      </trkpt>
      <trkpt lat="47.71942" lon="-3.37454">
        <ele>12.6</ele>
        <time>2021-08-14T13:18:15Z</time>
      </trkpt>
      <trkpt lat="47.71946" lon="-3.37458">
        <ele>12.6</ele>
        <time>2021-08-14T13:18:16Z</time>
      </trkpt>
      <trkpt lat="47.7195" lon="-3.3746">
        <ele>12.6</ele>
        <time>2021-08-14T13:18:17Z</time>
      </trkpt>
      <trkpt lat="47.71954" lon="-3.37463">
        <ele>12.6</ele>
        <time>2021-08-14T13:18:18Z</time>
      </trkpt>
      <trkpt lat="47.71958" lon="-3.37466">
        <ele>12.6</ele>
        <time>2021-08-14T13:18:19Z</time>
      </trkpt>
      <trkpt lat="47.71962" lon="-3.37469">
        <ele>12.6</ele>
        <time>2021-08-14T13:18:20Z</time>
      </trkpt>
      <trkpt lat="47.71965" lon="-3.37473">
        <ele>12.6</ele>
        <time>2021-08-14T13:18:21Z</time>
      </trkpt>
      <trkpt lat="47.71969" lon="-3.37476">
        <ele>12.6</ele>
        <time>2021-08-14T13:18:22Z</time>
      </trkpt>
      <trkpt lat="47.71973" lon="-3.3748">
        <ele>12.6</ele>
        <time>2021-08-14T13:18:23Z</time>
      </trkpt>
      <trkpt lat="47.71976" lon="-3.37483">
        <ele>12.6</ele>
        <time>2021-08-14T13:18:24Z</time>
      </trkpt>
      <trkpt lat="47.7198" lon="-3.37486">
        <ele>12.6</ele>
        <time>2021-08-14T13:18:25Z</time>
      </trkpt>
      <trkpt lat="47.71984" lon="-3.37488">
        <ele>12.8</ele>
        <time>2021-08-14T13:18:26Z</time>
      </trkpt>
      <trkpt lat="47.71988" lon="-3.3749">
        <ele>12.8</ele>
        <time>2021-08-14T13:18:27Z</time>
      </trkpt>
      <trkpt lat="47.71992" lon="-3.37493">
        <ele>12.8</ele>
        <time>2021-08-14T13:18:28Z</time>
      </trkpt>
      <trkpt lat="47.71996" lon="-3.37495">
        <ele>12.8</ele>
        <time>2021-08-14T13:18:29Z</time>
      </trkpt>
      <trkpt lat="47.72" lon="-3.37497">
        <ele>13</ele>
        <time>2021-08-14T13:18:30Z</time>
      </trkpt>
      <trkpt lat="47.72004" lon="-3.37499">
        <ele>13</ele>
        <time>2021-08-14T13:18:31Z</time>
      </trkpt>
      <trkpt lat="47.72007" lon="-3.37501">
        <ele>13</ele>
        <time>2021-08-14T13:18:32Z</time>
      </trkpt>
      <trkpt lat="47.7201" lon="-3.37503">
        <ele>13</ele>
        <time>2021-08-14T13:18:33Z</time>
      </trkpt>
      <trkpt lat="47.72013" lon="-3.37505">
        <ele>13</ele>
        <time>2021-08-14T13:18:34Z</time>
      </trkpt>
      <trkpt lat="47.72017" lon="-3.37508">
        <ele>13</ele>
        <time>2021-08-14T13:18:35Z</time>
      </trkpt>
      <trkpt lat="47.7202" lon="-3.3751">
        <ele>13.2</ele>
        <time>2021-08-14T13:18:36Z</time>
      </trkpt>
      <trkpt lat="47.72024" lon="-3.37513">
        <ele>13.2</ele>
        <time>2021-08-14T13:18:37Z</time>
      </trkpt>
      <trkpt lat="47.72028" lon="-3.37516">
        <ele>13.2</ele>
        <time>2021-08-14T13:18:38Z</time>
      </trkpt>
      <trkpt lat="47.72032" lon="-3.3752">
        <ele>13.2</ele>
        <time>2021-08-14T13:18:39Z</time>
      </trkpt>
      <trkpt lat="47.72036" lon="-3.37523">
        <ele>13.2</ele>
        <time>2021-08-14T13:18:40Z</time>
      </trkpt>
      <trkpt lat="47.7204" lon="-3.37527">
        <ele>13.2</ele>
        <time>2021-08-14T13:18:41Z</time>
      </trkpt>
      <trkpt lat="47.72045" lon="-3.37531">
        <ele>13.2</ele>
        <time>2021-08-14T13:18:42Z</time>
      </trkpt>
      <trkpt lat="47.72049" lon="-3.37534">
        <ele>13.2</ele>
        <time>2021-08-14T13:18:43Z</time>
      </trkpt>
      <trkpt lat="47.72053" lon="-3.37538">
        <ele>13.2</ele>
        <time>2021-08-14T13:18:44Z</time>
      </trkpt>
      <trkpt lat="47.72056" lon="-3.37541">
        <ele>13.2</ele>
        <time>2021-08-14T13:18:45Z</time>
      </trkpt>
      <trkpt lat="47.72061" lon="-3.37545">
        <ele>13.2</ele>
        <time>2021-08-14T13:18:46Z</time>
      </trkpt>
      <trkpt lat="47.72065" lon="-3.37548">
        <ele>13.2</ele>
        <time>2021-08-14T13:18:47Z</time>
      </trkpt>
      <trkpt lat="47.72069" lon="-3.37552">
        <ele>13.2</ele>
        <time>2021-08-14T13:18:48Z</time>
      </trkpt>
      <trkpt lat="47.72074" lon="-3.37556">
        <ele>13.2</ele>
        <time>2021-08-14T13:18:49Z</time>
      </trkpt>
      <trkpt lat="47.72078" lon="-3.3756">
        <ele>13.2</ele>
        <time>2021-08-14T13:18:50Z</time>
      </trkpt>
      <trkpt lat="47.72082" lon="-3.37563">
        <ele>13.2</ele>
        <time>2021-08-14T13:18:51Z</time>
      </trkpt>
      <trkpt lat="47.72087" lon="-3.37567">
        <ele>13.2</ele>
        <time>2021-08-14T13:18:52Z</time>
      </trkpt>
      <trkpt lat="47.72091" lon="-3.3757">
        <ele>13</ele>
        <time>2021-08-14T13:18:53Z</time>
      </trkpt>
      <trkpt lat="47.72095" lon="-3.37574">
        <ele>13</ele>
        <time>2021-08-14T13:18:54Z</time>
      </trkpt>
      <trkpt lat="47.72099" lon="-3.37578">
        <ele>13</ele>
        <time>2021-08-14T13:18:55Z</time>
      </trkpt>
      <trkpt lat="47.72103" lon="-3.37581">
        <ele>13</ele>
        <time>2021-08-14T13:18:56Z</time>
      </trkpt>
      <trkpt lat="47.72107" lon="-3.37584">
        <ele>13</ele>
        <time>2021-08-14T13:18:57Z</time>
      </trkpt>
      <trkpt lat="47.72112" lon="-3.37587">
        <ele>12.8</ele>
        <time>2021-08-14T13:18:58Z</time>
      </trkpt>
      <trkpt lat="47.72116" lon="-3.37591">
        <ele>12.8</ele>
        <time>2021-08-14T13:18:59Z</time>
      </trkpt>
      <trkpt lat="47.7212" lon="-3.37594">
        <ele>12.8</ele>
        <time>2021-08-14T13:19:00Z</time>
      </trkpt>
      <trkpt lat="47.72124" lon="-3.37596">
        <ele>12.8</ele>
        <time>2021-08-14T13:19:01Z</time>
      </trkpt>
      <trkpt lat="47.72129" lon="-3.37599">
        <ele>12.8</ele>
        <time>2021-08-14T13:19:02Z</time>
      </trkpt>
      <trkpt lat="47.72133" lon="-3.37602">
        <ele>12.8</ele>
        <time>2021-08-14T13:19:03Z</time>
      </trkpt>
      <trkpt lat="47.72137" lon="-3.37605">
        <ele>12.8</ele>
        <time>2021-08-14T13:19:04Z</time>
      </trkpt>
      <trkpt lat="47.72141" lon="-3.37608">
        <ele>12.8</ele>
        <time>2021-08-14T13:19:05Z</time>
      </trkpt>
      <trkpt lat="47.72145" lon="-3.37611">
        <ele>12.8</ele>
        <time>2021-08-14T13:19:06Z</time>
      </trkpt>
      <trkpt lat="47.72149" lon="-3.37615">
        <ele>12.8</ele>
        <time>2021-08-14T13:19:07Z</time>
      </trkpt>
      <trkpt lat="47.72154" lon="-3.37618">
        <ele>12.8</ele>
        <time>2021-08-14T13:19:08Z</time>
      </trkpt>
      <trkpt lat="47.72158" lon="-3.37621">
        <ele>12.6</ele>
        <time>2021-08-14T13:19:09Z</time>
      </trkpt>
      <trkpt lat="47.72162" lon="-3.37624">
        <ele>12.6</ele>
        <time>2021-08-14T13:19:10Z</time>
      </trkpt>
      <trkpt lat="47.72166" lon="-3.37626">
        <ele>12.6</ele>
        <time>2021-08-14T13:19:11Z</time>
      </trkpt>
      <trkpt lat="47.7217" lon="-3.37627">
        <ele>12.6</ele>
        <time>2021-08-14T13:19:12Z</time>
      </trkpt>
      <trkpt lat="47.72174" lon="-3.37628">
        <ele>12.6</ele>
        <time>2021-08-14T13:19:13Z</time>
      </trkpt>
      <trkpt lat="47.72177" lon="-3.37629">
        <ele>12.6</ele>
        <time>2021-08-14T13:19:14Z</time>
      </trkpt>
      <trkpt lat="47.72181" lon="-3.3763">
        <ele>12.6</ele>
        <time>2021-08-14T13:19:15Z</time>
      </trkpt>
      <trkpt lat="47.72184" lon="-3.37632">
        <ele>12.6</ele>
        <time>2021-08-14T13:19:16Z</time>
      </trkpt>
      <trkpt lat="47.72188" lon="-3.37633">
        <ele>12.6</ele>
        <time>2021-08-14T13:19:17Z</time>
      </trkpt>
      <trkpt lat="47.72192" lon="-3.37634">
        <ele>12.6</ele>
        <time>2021-08-14T13:19:18Z</time>
      </trkpt>
      <trkpt lat="47.72196" lon="-3.37636">
        <ele>12.6</ele>
        <time>2021-08-14T13:19:19Z</time>
      </trkpt>
      <trkpt lat="47.72199" lon="-3.37638">
        <ele>12.6</ele>
        <time>2021-08-14T13:19:20Z</time>
      </trkpt>
      <trkpt lat="47.72203" lon="-3.37642">
        <ele>12.6</ele>
        <time>2021-08-14T13:19:21Z</time>
      </trkpt>
      <trkpt lat="47.72206" lon="-3.37646">
        <ele>12.6</ele>
        <time>2021-08-14T13:19:22Z</time>
      </trkpt>
      <trkpt lat="47.72209" lon="-3.3765">
        <ele>12.4</ele>
        <time>2021-08-14T13:19:23Z</time>
      </trkpt>
      <trkpt lat="47.72212" lon="-3.37655">
        <ele>12.4</ele>
        <time>2021-08-14T13:19:24Z</time>
      </trkpt>
      <trkpt lat="47.72215" lon="-3.37659">
        <ele>12.2</ele>
        <time>2021-08-14T13:19:25Z</time>
      </trkpt>
      <trkpt lat="47.72219" lon="-3.37664">
        <ele>12.2</ele>
        <time>2021-08-14T13:19:26Z</time>
      </trkpt>
      <trkpt lat="47.72222" lon="-3.37668">
        <ele>12.2</ele>
        <time>2021-08-14T13:19:27Z</time>
      </trkpt>
      <trkpt lat="47.72226" lon="-3.37672">
        <ele>12.2</ele>
        <time>2021-08-14T13:19:28Z</time>
      </trkpt>
      <trkpt lat="47.7223" lon="-3.37675">
        <ele>12</ele>
        <time>2021-08-14T13:19:29Z</time>
      </trkpt>
      <trkpt lat="47.72234" lon="-3.37679">
        <ele>12</ele>
        <time>2021-08-14T13:19:30Z</time>
      </trkpt>
      <trkpt lat="47.72238" lon="-3.37682">
        <ele>12</ele>
        <time>2021-08-14T13:19:31Z</time>
      </trkpt>
      <trkpt lat="47.72242" lon="-3.37686">
        <ele>12</ele>
        <time>2021-08-14T13:19:32Z</time>
      </trkpt>
      <trkpt lat="47.72246" lon="-3.37689">
        <ele>12</ele>
        <time>2021-08-14T13:19:33Z</time>
      </trkpt>
      <trkpt lat="47.7225" lon="-3.37692">
        <ele>12</ele>
        <time>2021-08-14T13:19:34Z</time>
      </trkpt>
      <trkpt lat="47.72254" lon="-3.37695">
        <ele>11.8</ele>
        <time>2021-08-14T13:19:35Z</time>
      </trkpt>
      <trkpt lat="47.72258" lon="-3.37698">
        <ele>11.8</ele>
        <time>2021-08-14T13:19:36Z</time>
      </trkpt>
      <trkpt lat="47.72262" lon="-3.37701">
        <ele>11.8</ele>
        <time>2021-08-14T13:19:37Z</time>
      </trkpt>
      <trkpt lat="47.72266" lon="-3.37704">
        <ele>11.8</ele>
        <time>2021-08-14T13:19:38Z</time>
      </trkpt>
      <trkpt lat="47.7227" lon="-3.37707">
        <ele>11.8</ele>
        <time>2021-08-14T13:19:39Z</time>
      </trkpt>
      <trkpt lat="47.72274" lon="-3.3771">
        <ele>11.8</ele>
        <time>2021-08-14T13:19:40Z</time>
      </trkpt>
      <trkpt lat="47.72278" lon="-3.37713">
        <ele>11.8</ele>
        <time>2021-08-14T13:19:41Z</time>
      </trkpt>
      <trkpt lat="47.72282" lon="-3.37716">
        <ele>11.8</ele>
        <time>2021-08-14T13:19:42Z</time>
      </trkpt>
      <trkpt lat="47.72286" lon="-3.37719">
        <ele>11.8</ele>
        <time>2021-08-14T13:19:43Z</time>
      </trkpt>
      <trkpt lat="47.7229" lon="-3.37722">
        <ele>11.8</ele>
        <time>2021-08-14T13:19:44Z</time>
      </trkpt>
      <trkpt lat="47.72294" lon="-3.37725">
        <ele>11.8</ele>
        <time>2021-08-14T13:19:45Z</time>
      </trkpt>
      <trkpt lat="47.72298" lon="-3.37729">
        <ele>11.8</ele>
        <time>2021-08-14T13:19:46Z</time>
      </trkpt>
      <trkpt lat="47.72302" lon="-3.37731">
        <ele>11.8</ele>
        <time>2021-08-14T13:19:47Z</time>
      </trkpt>
      <trkpt lat="47.72307" lon="-3.37733">
        <ele>11.8</ele>
        <time>2021-08-14T13:19:48Z</time>
      </trkpt>
      <trkpt lat="47.72311" lon="-3.37736">
        <ele>11.6</ele>
        <time>2021-08-14T13:19:49Z</time>
      </trkpt>
      <trkpt lat="47.72316" lon="-3.37738">
        <ele>11.6</ele>
        <time>2021-08-14T13:19:50Z</time>
      </trkpt>
      <trkpt lat="47.7232" lon="-3.3774">
        <ele>11.6</ele>
        <time>2021-08-14T13:19:51Z</time>
      </trkpt>
      <trkpt lat="47.72325" lon="-3.37741">
        <ele>11.2</ele>
        <time>2021-08-14T13:19:52Z</time>
      </trkpt>
      <trkpt lat="47.72329" lon="-3.37742">
        <ele>11</ele>
        <time>2021-08-14T13:19:53Z</time>
      </trkpt>
      <trkpt lat="47.72333" lon="-3.37743">
        <ele>11</ele>
        <time>2021-08-14T13:19:54Z</time>
      </trkpt>
      <trkpt lat="47.72337" lon="-3.37744">
        <ele>10.8</ele>
        <time>2021-08-14T13:19:55Z</time>
      </trkpt>
      <trkpt lat="47.72341" lon="-3.37745">
        <ele>10.8</ele>
        <time>2021-08-14T13:19:56Z</time>
      </trkpt>
      <trkpt lat="47.72345" lon="-3.37745">
        <ele>10.8</ele>
        <time>2021-08-14T13:19:57Z</time>
      </trkpt>
      <trkpt lat="47.72349" lon="-3.37743">
        <ele>10.8</ele>
        <time>2021-08-14T13:19:58Z</time>
      </trkpt>
      <trkpt lat="47.72353" lon="-3.37741">
        <ele>10.8</ele>
        <time>2021-08-14T13:19:59Z</time>
      </trkpt>
      <trkpt lat="47.72357" lon="-3.37737">
        <ele>10.8</ele>
        <time>2021-08-14T13:20:00Z</time>
      </trkpt>
      <trkpt lat="47.72361" lon="-3.37733">
        <ele>10.8</ele>
        <time>2021-08-14T13:20:01Z</time>
      </trkpt>
      <trkpt lat="47.72365" lon="-3.3773">
        <ele>10.8</ele>
        <time>2021-08-14T13:20:02Z</time>
      </trkpt>
      <trkpt lat="47.7237" lon="-3.37728">
        <ele>10.8</ele>
        <time>2021-08-14T13:20:03Z</time>
      </trkpt>
      <trkpt lat="47.72374" lon="-3.37726">
        <ele>10.8</ele>
        <time>2021-08-14T13:20:04Z</time>
      </trkpt>
      <trkpt lat="47.72379" lon="-3.37724">
        <ele>10.8</ele>
        <time>2021-08-14T13:20:05Z</time>
      </trkpt>
      <trkpt lat="47.72383" lon="-3.37723">
        <ele>10.8</ele>
        <time>2021-08-14T13:20:06Z</time>
      </trkpt>
      <trkpt lat="47.72387" lon="-3.37721">
        <ele>10.8</ele>
        <time>2021-08-14T13:20:07Z</time>
      </trkpt>
      <trkpt lat="47.72392" lon="-3.37719">
        <ele>11</ele>
        <time>2021-08-14T13:20:08Z</time>
      </trkpt>
      <trkpt lat="47.72396" lon="-3.37718">
        <ele>11</ele>
        <time>2021-08-14T13:20:09Z</time>
      </trkpt>
      <trkpt lat="47.724" lon="-3.37716">
        <ele>11</ele>
        <time>2021-08-14T13:20:10Z</time>
      </trkpt>
      <trkpt lat="47.72404" lon="-3.37714">
        <ele>11</ele>
        <time>2021-08-14T13:20:11Z</time>
      </trkpt>
      <trkpt lat="47.72409" lon="-3.37712">
        <ele>11.2</ele>
        <time>2021-08-14T13:20:12Z</time>
      </trkpt>
      <trkpt lat="47.72413" lon="-3.37711">
        <ele>11.2</ele>
        <time>2021-08-14T13:20:13Z</time>
      </trkpt>
      <trkpt lat="47.72417" lon="-3.37709">
        <ele>11.2</ele>
        <time>2021-08-14T13:20:14Z</time>
      </trkpt>
      <trkpt lat="47.72421" lon="-3.37707">
        <ele>11.2</ele>
        <time>2021-08-14T13:20:15Z</time>
      </trkpt>
      <trkpt lat="47.72426" lon="-3.37705">
        <ele>11.4</ele>
        <time>2021-08-14T13:20:16Z</time>
      </trkpt>
      <trkpt lat="47.7243" lon="-3.37704">
        <ele>11.4</ele>
        <time>2021-08-14T13:20:17Z</time>
      </trkpt>
      <trkpt lat="47.72434" lon="-3.37702">
        <ele>11.6</ele>
        <time>2021-08-14T13:20:18Z</time>
      </trkpt>
      <trkpt lat="47.72438" lon="-3.377">
        <ele>11.8</ele>
        <time>2021-08-14T13:20:19Z</time>
      </trkpt>
      <trkpt lat="47.72442" lon="-3.37699">
        <ele>12</ele>
        <time>2021-08-14T13:20:20Z</time>
      </trkpt>
      <trkpt lat="47.72446" lon="-3.37697">
        <ele>12.2</ele>
        <time>2021-08-14T13:20:21Z</time>
      </trkpt>
      <trkpt lat="47.7245" lon="-3.37695">
        <ele>12.4</ele>
        <time>2021-08-14T13:20:22Z</time>
      </trkpt>
      <trkpt lat="47.72454" lon="-3.37692">
        <ele>12.4</ele>
        <time>2021-08-14T13:20:23Z</time>
      </trkpt>
      <trkpt lat="47.72458" lon="-3.3769">
        <ele>12.4</ele>
        <time>2021-08-14T13:20:24Z</time>
      </trkpt>
      <trkpt lat="47.72461" lon="-3.37687">
        <ele>12.6</ele>
        <time>2021-08-14T13:20:25Z</time>
      </trkpt>
      <trkpt lat="47.72465" lon="-3.37684">
        <ele>12.6</ele>
        <time>2021-08-14T13:20:26Z</time>
      </trkpt>
      <trkpt lat="47.72469" lon="-3.37682">
        <ele>12.8</ele>
        <time>2021-08-14T13:20:27Z</time>
      </trkpt>
      <trkpt lat="47.72472" lon="-3.37679">
        <ele>12.8</ele>
        <time>2021-08-14T13:20:28Z</time>
      </trkpt>
      <trkpt lat="47.72476" lon="-3.37676">
        <ele>12.8</ele>
        <time>2021-08-14T13:20:29Z</time>
      </trkpt>
      <trkpt lat="47.7248" lon="-3.37674">
        <ele>13</ele>
        <time>2021-08-14T13:20:30Z</time>
      </trkpt>
      <trkpt lat="47.72485" lon="-3.37672">
        <ele>13</ele>
        <time>2021-08-14T13:20:31Z</time>
      </trkpt>
      <trkpt lat="47.72489" lon="-3.37671">
        <ele>13.2</ele>
        <time>2021-08-14T13:20:32Z</time>
      </trkpt>
      <trkpt lat="47.72493" lon="-3.3767">
        <ele>13.2</ele>
        <time>2021-08-14T13:20:33Z</time>
      </trkpt>
      <trkpt lat="47.72498" lon="-3.37669">
        <ele>13.4</ele>
        <time>2021-08-14T13:20:34Z</time>
      </trkpt>
      <trkpt lat="47.72502" lon="-3.37667">
        <ele>13.4</ele>
        <time>2021-08-14T13:20:35Z</time>
      </trkpt>
      <trkpt lat="47.72507" lon="-3.37666">
        <ele>13.6</ele>
        <time>2021-08-14T13:20:36Z</time>
      </trkpt>
      <trkpt lat="47.72511" lon="-3.37664">
        <ele>13.6</ele>
        <time>2021-08-14T13:20:37Z</time>
      </trkpt>
      <trkpt lat="47.72516" lon="-3.37663">
        <ele>13.6</ele>
        <time>2021-08-14T13:20:38Z</time>
      </trkpt>
      <trkpt lat="47.72521" lon="-3.37662">
        <ele>13.6</ele>
        <time>2021-08-14T13:20:39Z</time>
      </trkpt>
      <trkpt lat="47.72526" lon="-3.37661">
        <ele>13.8</ele>
        <time>2021-08-14T13:20:40Z</time>
      </trkpt>
      <trkpt lat="47.7253" lon="-3.37661">
        <ele>13.8</ele>
        <time>2021-08-14T13:20:41Z</time>
      </trkpt>
      <trkpt lat="47.72535" lon="-3.37661">
        <ele>13.8</ele>
        <time>2021-08-14T13:20:42Z</time>
      </trkpt>
      <trkpt lat="47.72541" lon="-3.37661">
        <ele>13.8</ele>
        <time>2021-08-14T13:20:43Z</time>
      </trkpt>
      <trkpt lat="47.72546" lon="-3.37661">
        <ele>14</ele>
        <time>2021-08-14T13:20:44Z</time>
      </trkpt>
      <trkpt lat="47.72551" lon="-3.3766">
        <ele>14</ele>
        <time>2021-08-14T13:20:45Z</time>
      </trkpt>
      <trkpt lat="47.72555" lon="-3.37659">
        <ele>14</ele>
        <time>2021-08-14T13:20:46Z</time>
      </trkpt>
      <trkpt lat="47.7256" lon="-3.37658">
        <ele>14</ele>
        <time>2021-08-14T13:20:47Z</time>
      </trkpt>
      <trkpt lat="47.72565" lon="-3.37656">
        <ele>14</ele>
        <time>2021-08-14T13:20:48Z</time>
      </trkpt>
      <trkpt lat="47.7257" lon="-3.37654">
        <ele>14</ele>
        <time>2021-08-14T13:20:49Z</time>
      </trkpt>
      <trkpt lat="47.72574" lon="-3.37652">
        <ele>14</ele>
        <time>2021-08-14T13:20:50Z</time>
      </trkpt>
      <trkpt lat="47.72579" lon="-3.3765">
        <ele>14</ele>
        <time>2021-08-14T13:20:51Z</time>
      </trkpt>
      <trkpt lat="47.72583" lon="-3.37649">
        <ele>14</ele>
        <time>2021-08-14T13:20:52Z</time>
      </trkpt>
      <trkpt lat="47.72588" lon="-3.37648">
        <ele>14</ele>
        <time>2021-08-14T13:20:53Z</time>
      </trkpt>
      <trkpt lat="47.72593" lon="-3.37647">
        <ele>14</ele>
        <time>2021-08-14T13:20:54Z</time>
      </trkpt>
      <trkpt lat="47.72598" lon="-3.37646">
        <ele>14</ele>
        <time>2021-08-14T13:20:55Z</time>
      </trkpt>
      <trkpt lat="47.72603" lon="-3.37645">
        <ele>14</ele>
        <time>2021-08-14T13:20:56Z</time>
      </trkpt>
      <trkpt lat="47.72608" lon="-3.37645">
        <ele>14</ele>
        <time>2021-08-14T13:20:57Z</time>
      </trkpt>
      <trkpt lat="47.72613" lon="-3.37645">
        <ele>14</ele>
        <time>2021-08-14T13:20:58Z</time>
      </trkpt>
      <trkpt lat="47.72618" lon="-3.37645">
        <ele>14</ele>
        <time>2021-08-14T13:20:59Z</time>
      </trkpt>
      <trkpt lat="47.72623" lon="-3.37645">
        <ele>14</ele>
        <time>2021-08-14T13:21:00Z</time>
      </trkpt>
      <trkpt lat="47.72628" lon="-3.37646">
        <ele>14</ele>
        <time>2021-08-14T13:21:01Z</time>
      </trkpt>
      <trkpt lat="47.72633" lon="-3.37648">
        <ele>14</ele>
        <time>2021-08-14T13:21:02Z</time>
      </trkpt>
      <trkpt lat="47.72638" lon="-3.37651">
        <ele>14</ele>
        <time>2021-08-14T13:21:03Z</time>
      </trkpt>
      <trkpt lat="47.72643" lon="-3.37653">
        <ele>14</ele>
        <time>2021-08-14T13:21:04Z</time>
      </trkpt>
      <trkpt lat="47.72647" lon="-3.37656">
        <ele>13.8</ele>
        <time>2021-08-14T13:21:05Z</time>
      </trkpt>
      <trkpt lat="47.72652" lon="-3.37659">
        <ele>13.8</ele>
        <time>2021-08-14T13:21:06Z</time>
      </trkpt>
      <trkpt lat="47.72657" lon="-3.37662">
        <ele>13.8</ele>
        <time>2021-08-14T13:21:07Z</time>
      </trkpt>
      <trkpt lat="47.72662" lon="-3.37665">
        <ele>13.8</ele>
        <time>2021-08-14T13:21:08Z</time>
      </trkpt>
      <trkpt lat="47.72666" lon="-3.3767">
        <ele>13.6</ele>
        <time>2021-08-14T13:21:09Z</time>
      </trkpt>
      <trkpt lat="47.7267" lon="-3.37675">
        <ele>13.6</ele>
        <time>2021-08-14T13:21:10Z</time>
      </trkpt>
      <trkpt lat="47.72673" lon="-3.37681">
        <ele>13.4</ele>
        <time>2021-08-14T13:21:11Z</time>
      </trkpt>
      <trkpt lat="47.72675" lon="-3.37688">
        <ele>13.4</ele>
        <time>2021-08-14T13:21:12Z</time>
      </trkpt>
      <trkpt lat="47.72678" lon="-3.37694">
        <ele>13.4</ele>
        <time>2021-08-14T13:21:13Z</time>
      </trkpt>
      <trkpt lat="47.7268" lon="-3.377">
        <ele>13.4</ele>
        <time>2021-08-14T13:21:14Z</time>
      </trkpt>
      <trkpt lat="47.72682" lon="-3.37707">
        <ele>13.4</ele>
        <time>2021-08-14T13:21:15Z</time>
      </trkpt>
      <trkpt lat="47.72684" lon="-3.37713">
        <ele>13.2</ele>
        <time>2021-08-14T13:21:16Z</time>
      </trkpt>
      <trkpt lat="47.72686" lon="-3.37719">
        <ele>13</ele>
        <time>2021-08-14T13:21:17Z</time>
      </trkpt>
      <trkpt lat="47.72688" lon="-3.37726">
        <ele>13</ele>
        <time>2021-08-14T13:21:18Z</time>
      </trkpt>
      <trkpt lat="47.72691" lon="-3.37732">
        <ele>13</ele>
        <time>2021-08-14T13:21:19Z</time>
      </trkpt>
      <trkpt lat="47.72694" lon="-3.37739">
        <ele>13</ele>
        <time>2021-08-14T13:21:20Z</time>
      </trkpt>
      <trkpt lat="47.72696" lon="-3.37745">
        <ele>13</ele>
        <time>2021-08-14T13:21:21Z</time>
      </trkpt>
      <trkpt lat="47.72699" lon="-3.37752">
        <ele>13</ele>
        <time>2021-08-14T13:21:22Z</time>
      </trkpt>
      <trkpt lat="47.72702" lon="-3.37758">
        <ele>13</ele>
        <time>2021-08-14T13:21:23Z</time>
      </trkpt>
      <trkpt lat="47.72705" lon="-3.37765">
        <ele>13</ele>
        <time>2021-08-14T13:21:24Z</time>
      </trkpt>
      <trkpt lat="47.72708" lon="-3.37771">
        <ele>12.8</ele>
        <time>2021-08-14T13:21:25Z</time>
      </trkpt>
      <trkpt lat="47.7271" lon="-3.37778">
        <ele>12.8</ele>
        <time>2021-08-14T13:21:26Z</time>
      </trkpt>
      <trkpt lat="47.72713" lon="-3.37786">
        <ele>12.8</ele>
        <time>2021-08-14T13:21:27Z</time>
      </trkpt>
      <trkpt lat="47.72716" lon="-3.37793">
        <ele>12.8</ele>
        <time>2021-08-14T13:21:28Z</time>
      </trkpt>
      <trkpt lat="47.72719" lon="-3.378">
        <ele>12.8</ele>
        <time>2021-08-14T13:21:29Z</time>
      </trkpt>
      <trkpt lat="47.72722" lon="-3.37807">
        <ele>12.8</ele>
        <time>2021-08-14T13:21:30Z</time>
      </trkpt>
      <trkpt lat="47.72725" lon="-3.37814">
        <ele>13</ele>
        <time>2021-08-14T13:21:31Z</time>
      </trkpt>
      <trkpt lat="47.72728" lon="-3.37822">
        <ele>13</ele>
        <time>2021-08-14T13:21:32Z</time>
      </trkpt>
      <trkpt lat="47.72731" lon="-3.37829">
        <ele>12.8</ele>
        <time>2021-08-14T13:21:33Z</time>
      </trkpt>
      <trkpt lat="47.72734" lon="-3.37836">
        <ele>12.8</ele>
        <time>2021-08-14T13:21:34Z</time>
      </trkpt>
      <trkpt lat="47.72737" lon="-3.37843">
        <ele>12.8</ele>
        <time>2021-08-14T13:21:35Z</time>
      </trkpt>
      <trkpt lat="47.7274" lon="-3.3785">
        <ele>12.6</ele>
        <time>2021-08-14T13:21:36Z</time>
      </trkpt>
      <trkpt lat="47.72743" lon="-3.37857">
        <ele>12.6</ele>
        <time>2021-08-14T13:21:37Z</time>
      </trkpt>
      <trkpt lat="47.72746" lon="-3.37864">
        <ele>12.6</ele>
        <time>2021-08-14T13:21:38Z</time>
      </trkpt>
      <trkpt lat="47.72748" lon="-3.37872">
        <ele>12.6</ele>
        <time>2021-08-14T13:21:39Z</time>
      </trkpt>
      <trkpt lat="47.72751" lon="-3.37879">
        <ele>12.4</ele>
        <time>2021-08-14T13:21:40Z</time>
      </trkpt>
      <trkpt lat="47.72754" lon="-3.37887">
        <ele>12.4</ele>
        <time>2021-08-14T13:21:41Z</time>
      </trkpt>
      <trkpt lat="47.72757" lon="-3.37894">
        <ele>12.4</ele>
        <time>2021-08-14T13:21:42Z</time>
      </trkpt>
      <trkpt lat="47.7276" lon="-3.37902">
        <ele>12.6</ele>
        <time>2021-08-14T13:21:43Z</time>
      </trkpt>
      <trkpt lat="47.72762" lon="-3.37909">
        <ele>12.6</ele>
        <time>2021-08-14T13:21:44Z</time>
      </trkpt>
      <trkpt lat="47.72764" lon="-3.37917">
        <ele>12.6</ele>
        <time>2021-08-14T13:21:45Z</time>
      </trkpt>
      <trkpt lat="47.72766" lon="-3.37925">
        <ele>12.6</ele>
        <time>2021-08-14T13:21:46Z</time>
      </trkpt>
      <trkpt lat="47.72767" lon="-3.37933">
        <ele>12.6</ele>
        <time>2021-08-14T13:21:47Z</time>
      </trkpt>
      <trkpt lat="47.72768" lon="-3.37941">
        <ele>12.6</ele>
        <time>2021-08-14T13:21:48Z</time>
      </trkpt>
      <trkpt lat="47.72768" lon="-3.37949">
        <ele>12.6</ele>
        <time>2021-08-14T13:21:49Z</time>
      </trkpt>
      <trkpt lat="47.72768" lon="-3.37957">
        <ele>12.6</ele>
        <time>2021-08-14T13:21:50Z</time>
      </trkpt>
      <trkpt lat="47.72768" lon="-3.37964">
        <ele>12.6</ele>
        <time>2021-08-14T13:21:51Z</time>
      </trkpt>
      <trkpt lat="47.72767" lon="-3.37971">
        <ele>12.6</ele>
        <time>2021-08-14T13:21:52Z</time>
      </trkpt>
      <trkpt lat="47.72766" lon="-3.37978">
        <ele>12.6</ele>
        <time>2021-08-14T13:21:53Z</time>
      </trkpt>
      <trkpt lat="47.72766" lon="-3.37984">
        <ele>12.6</ele>
        <time>2021-08-14T13:21:54Z</time>
      </trkpt>
      <trkpt lat="47.72765" lon="-3.3799">
        <ele>12.6</ele>
        <time>2021-08-14T13:21:55Z</time>
      </trkpt>
      <trkpt lat="47.72765" lon="-3.37996">
        <ele>12.6</ele>
        <time>2021-08-14T13:21:56Z</time>
      </trkpt>
      <trkpt lat="47.72764" lon="-3.38002">
        <ele>12.8</ele>
        <time>2021-08-14T13:21:57Z</time>
      </trkpt>
      <trkpt lat="47.72764" lon="-3.38009">
        <ele>12.8</ele>
        <time>2021-08-14T13:21:58Z</time>
      </trkpt>
      <trkpt lat="47.72764" lon="-3.38015">
        <ele>13</ele>
        <time>2021-08-14T13:21:59Z</time>
      </trkpt>
      <trkpt lat="47.72765" lon="-3.38021">
        <ele>13.2</ele>
        <time>2021-08-14T13:22:00Z</time>
      </trkpt>
      <trkpt lat="47.72766" lon="-3.38028">
        <ele>13.2</ele>
        <time>2021-08-14T13:22:01Z</time>
      </trkpt>
      <trkpt lat="47.72766" lon="-3.38034">
        <ele>13.4</ele>
        <time>2021-08-14T13:22:02Z</time>
      </trkpt>
      <trkpt lat="47.72766" lon="-3.38041">
        <ele>13.6</ele>
        <time>2021-08-14T13:22:03Z</time>
      </trkpt>
      <trkpt lat="47.72766" lon="-3.38047">
        <ele>13.6</ele>
        <time>2021-08-14T13:22:04Z</time>
      </trkpt>
      <trkpt lat="47.72767" lon="-3.38054">
        <ele>13.6</ele>
        <time>2021-08-14T13:22:05Z</time>
      </trkpt>
      <trkpt lat="47.72767" lon="-3.38061">
        <ele>13.6</ele>
        <time>2021-08-14T13:22:06Z</time>
      </trkpt>
      <trkpt lat="47.72768" lon="-3.38068">
        <ele>13.6</ele>
        <time>2021-08-14T13:22:07Z</time>
      </trkpt>
      <trkpt lat="47.72769" lon="-3.38074">
        <ele>13.6</ele>
        <time>2021-08-14T13:22:08Z</time>
      </trkpt>
      <trkpt lat="47.72772" lon="-3.3808">
        <ele>13.6</ele>
        <time>2021-08-14T13:22:09Z</time>
      </trkpt>
      <trkpt lat="47.72776" lon="-3.38084">
        <ele>13.6</ele>
        <time>2021-08-14T13:22:10Z</time>
      </trkpt>
      <trkpt lat="47.7278" lon="-3.38087">
        <ele>13.6</ele>
        <time>2021-08-14T13:22:11Z</time>
      </trkpt>
      <trkpt lat="47.72784" lon="-3.38089">
        <ele>13.6</ele>
        <time>2021-08-14T13:22:12Z</time>
      </trkpt>
      <trkpt lat="47.72788" lon="-3.38091">
        <ele>13.6</ele>
        <time>2021-08-14T13:22:13Z</time>
      </trkpt>
      <trkpt lat="47.72793" lon="-3.38092">
        <ele>13.6</ele>
        <time>2021-08-14T13:22:14Z</time>
      </trkpt>
      <trkpt lat="47.72798" lon="-3.38092">
        <ele>13.4</ele>
        <time>2021-08-14T13:22:15Z</time>
      </trkpt>
      <trkpt lat="47.72802" lon="-3.38094">
        <ele>13.2</ele>
        <time>2021-08-14T13:22:16Z</time>
      </trkpt>
      <trkpt lat="47.72807" lon="-3.38096">
        <ele>13.2</ele>
        <time>2021-08-14T13:22:17Z</time>
      </trkpt>
      <trkpt lat="47.72812" lon="-3.38098">
        <ele>13.2</ele>
        <time>2021-08-14T13:22:18Z</time>
      </trkpt>
      <trkpt lat="47.72816" lon="-3.38102">
        <ele>13</ele>
        <time>2021-08-14T13:22:19Z</time>
      </trkpt>
      <trkpt lat="47.7282" lon="-3.38105">
        <ele>12.8</ele>
        <time>2021-08-14T13:22:20Z</time>
      </trkpt>
      <trkpt lat="47.72823" lon="-3.38109">
        <ele>12.6</ele>
        <time>2021-08-14T13:22:21Z</time>
      </trkpt>
      <trkpt lat="47.72826" lon="-3.38113">
        <ele>12.4</ele>
        <time>2021-08-14T13:22:22Z</time>
      </trkpt>
      <trkpt lat="47.72828" lon="-3.38117">
        <ele>12.4</ele>
        <time>2021-08-14T13:22:23Z</time>
      </trkpt>
      <trkpt lat="47.72831" lon="-3.3812">
        <ele>12.2</ele>
        <time>2021-08-14T13:22:24Z</time>
      </trkpt>
      <trkpt lat="47.72835" lon="-3.38121">
        <ele>12.2</ele>
        <time>2021-08-14T13:22:25Z</time>
      </trkpt>
      <trkpt lat="47.72838" lon="-3.38121">
        <ele>12.2</ele>
        <time>2021-08-14T13:22:26Z</time>
      </trkpt>
      <trkpt lat="47.72842" lon="-3.38121">
        <ele>12.2</ele>
        <time>2021-08-14T13:22:27Z</time>
      </trkpt>
      <trkpt lat="47.72845" lon="-3.38121">
        <ele>12.2</ele>
        <time>2021-08-14T13:22:28Z</time>
      </trkpt>
      <trkpt lat="47.72848" lon="-3.38121">
        <ele>12.2</ele>
        <time>2021-08-14T13:22:29Z</time>
      </trkpt>
      <trkpt lat="47.72852" lon="-3.38121">
        <ele>12.4</ele>
        <time>2021-08-14T13:22:30Z</time>
      </trkpt>
      <trkpt lat="47.72855" lon="-3.38122">
        <ele>12.4</ele>
        <time>2021-08-14T13:22:31Z</time>
      </trkpt>
      <trkpt lat="47.72859" lon="-3.38122">
        <ele>12.4</ele>
        <time>2021-08-14T13:22:32Z</time>
      </trkpt>
      <trkpt lat="47.72862" lon="-3.38123">
        <ele>12.8</ele>
        <time>2021-08-14T13:22:33Z</time>
      </trkpt>
      <trkpt lat="47.72866" lon="-3.38124">
        <ele>13.2</ele>
        <time>2021-08-14T13:22:34Z</time>
      </trkpt>
      <trkpt lat="47.72869" lon="-3.38125">
        <ele>13.4</ele>
        <time>2021-08-14T13:22:35Z</time>
      </trkpt>
      <trkpt lat="47.72872" lon="-3.38126">
        <ele>13.8</ele>
        <time>2021-08-14T13:22:36Z</time>
      </trkpt>
      <trkpt lat="47.72875" lon="-3.38128">
        <ele>14</ele>
        <time>2021-08-14T13:22:37Z</time>
      </trkpt>
      <trkpt lat="47.72878" lon="-3.38129">
        <ele>14.2</ele>
        <time>2021-08-14T13:22:38Z</time>
      </trkpt>
      <trkpt lat="47.72881" lon="-3.38131">
        <ele>14.4</ele>
        <time>2021-08-14T13:22:39Z</time>
      </trkpt>
      <trkpt lat="47.72883" lon="-3.38132">
        <ele>14.4</ele>
        <time>2021-08-14T13:22:40Z</time>
      </trkpt>
      <trkpt lat="47.72886" lon="-3.38134">
        <ele>14.6</ele>
        <time>2021-08-14T13:22:41Z</time>
      </trkpt>
      <trkpt lat="47.72889" lon="-3.38136">
        <ele>14.6</ele>
        <time>2021-08-14T13:22:42Z</time>
      </trkpt>
      <trkpt lat="47.72891" lon="-3.38139">
        <ele>14.8</ele>
        <time>2021-08-14T13:22:43Z</time>
      </trkpt>
      <trkpt lat="47.72894" lon="-3.38142">
        <ele>15</ele>
        <time>2021-08-14T13:22:44Z</time>
      </trkpt>
      <trkpt lat="47.72896" lon="-3.38145">
        <ele>15</ele>
        <time>2021-08-14T13:22:45Z</time>
      </trkpt>
      <trkpt lat="47.72898" lon="-3.38148">
        <ele>15.2</ele>
        <time>2021-08-14T13:22:46Z</time>
      </trkpt>
      <trkpt lat="47.72901" lon="-3.38151">
        <ele>15.2</ele>
        <time>2021-08-14T13:22:47Z</time>
      </trkpt>
      <trkpt lat="47.72903" lon="-3.38154">
        <ele>15.2</ele>
        <time>2021-08-14T13:22:48Z</time>
      </trkpt>
      <trkpt lat="47.72905" lon="-3.38158">
        <ele>15.4</ele>
        <time>2021-08-14T13:22:49Z</time>
      </trkpt>
      <trkpt lat="47.72907" lon="-3.38161">
        <ele>15.4</ele>
        <time>2021-08-14T13:22:50Z</time>
      </trkpt>
      <trkpt lat="47.72909" lon="-3.38164">
        <ele>15.4</ele>
        <time>2021-08-14T13:22:51Z</time>
      </trkpt>
      <trkpt lat="47.72911" lon="-3.38167">
        <ele>15.4</ele>
        <time>2021-08-14T13:22:52Z</time>
      </trkpt>
      <trkpt lat="47.72913" lon="-3.3817">
        <ele>15.4</ele>
        <time>2021-08-14T13:22:53Z</time>
      </trkpt>
      <trkpt lat="47.72915" lon="-3.38173">
        <ele>15.6</ele>
        <time>2021-08-14T13:22:54Z</time>
      </trkpt>
      <trkpt lat="47.72917" lon="-3.38176">
        <ele>15.6</ele>
        <time>2021-08-14T13:22:55Z</time>
      </trkpt>
      <trkpt lat="47.7292" lon="-3.38179">
        <ele>15.6</ele>
        <time>2021-08-14T13:22:56Z</time>
      </trkpt>
      <trkpt lat="47.72923" lon="-3.38182">
        <ele>15.8</ele>
        <time>2021-08-14T13:22:57Z</time>
      </trkpt>
      <trkpt lat="47.72926" lon="-3.38185">
        <ele>16</ele>
        <time>2021-08-14T13:22:58Z</time>
      </trkpt>
      <trkpt lat="47.72929" lon="-3.38187">
        <ele>16.2</ele>
        <time>2021-08-14T13:22:59Z</time>
      </trkpt>
      <trkpt lat="47.72932" lon="-3.3819">
        <ele>16.6</ele>
        <time>2021-08-14T13:23:00Z</time>
      </trkpt>
      <trkpt lat="47.72935" lon="-3.38192">
        <ele>16.6</ele>
        <time>2021-08-14T13:23:01Z</time>
      </trkpt>
      <trkpt lat="47.72939" lon="-3.38195">
        <ele>16.6</ele>
        <time>2021-08-14T13:23:02Z</time>
      </trkpt>
      <trkpt lat="47.72942" lon="-3.38197">
        <ele>16.8</ele>
        <time>2021-08-14T13:23:03Z</time>
      </trkpt>
      <trkpt lat="47.72946" lon="-3.382">
        <ele>16.8</ele>
        <time>2021-08-14T13:23:04Z</time>
      </trkpt>
      <trkpt lat="47.72949" lon="-3.38204">
        <ele>16.8</ele>
        <time>2021-08-14T13:23:05Z</time>
      </trkpt>
      <trkpt lat="47.72952" lon="-3.38208">
        <ele>16.8</ele>
        <time>2021-08-14T13:23:06Z</time>
      </trkpt>
      <trkpt lat="47.72955" lon="-3.38212">
        <ele>16.8</ele>
        <time>2021-08-14T13:23:07Z</time>
      </trkpt>
      <trkpt lat="47.72958" lon="-3.38217">
        <ele>16.8</ele>
        <time>2021-08-14T13:23:08Z</time>
      </trkpt>
      <trkpt lat="47.72961" lon="-3.38221">
        <ele>16.8</ele>
        <time>2021-08-14T13:23:09Z</time>
      </trkpt>
      <trkpt lat="47.72964" lon="-3.38225">
        <ele>16.8</ele>
        <time>2021-08-14T13:23:10Z</time>
      </trkpt>
      <trkpt lat="47.72967" lon="-3.3823">
        <ele>16.8</ele>
        <time>2021-08-14T13:23:11Z</time>
      </trkpt>
      <trkpt lat="47.7297" lon="-3.38235">
        <ele>16.8</ele>
        <time>2021-08-14T13:23:12Z</time>
      </trkpt>
      <trkpt lat="47.72973" lon="-3.38239">
        <ele>16.8</ele>
        <time>2021-08-14T13:23:13Z</time>
      </trkpt>
      <trkpt lat="47.72977" lon="-3.38244">
        <ele>16.8</ele>
        <time>2021-08-14T13:23:14Z</time>
      </trkpt>
      <trkpt lat="47.7298" lon="-3.38249">
        <ele>16.6</ele>
        <time>2021-08-14T13:23:15Z</time>
      </trkpt>
      <trkpt lat="47.72982" lon="-3.38255">
        <ele>16.4</ele>
        <time>2021-08-14T13:23:16Z</time>
      </trkpt>
      <trkpt lat="47.72985" lon="-3.3826">
        <ele>16.4</ele>
        <time>2021-08-14T13:23:17Z</time>
      </trkpt>
      <trkpt lat="47.72987" lon="-3.38266">
        <ele>16.2</ele>
        <time>2021-08-14T13:23:18Z</time>
      </trkpt>
      <trkpt lat="47.72988" lon="-3.38273">
        <ele>16.2</ele>
        <time>2021-08-14T13:23:19Z</time>
      </trkpt>
      <trkpt lat="47.72988" lon="-3.3828">
        <ele>16</ele>
        <time>2021-08-14T13:23:20Z</time>
      </trkpt>
      <trkpt lat="47.72988" lon="-3.38286">
        <ele>16</ele>
        <time>2021-08-14T13:23:21Z</time>
      </trkpt>
      <trkpt lat="47.72988" lon="-3.38292">
        <ele>15.8</ele>
        <time>2021-08-14T13:23:22Z</time>
      </trkpt>
      <trkpt lat="47.72987" lon="-3.38298">
        <ele>15.8</ele>
        <time>2021-08-14T13:23:23Z</time>
      </trkpt>
      <trkpt lat="47.72986" lon="-3.38304">
        <ele>15.8</ele>
        <time>2021-08-14T13:23:24Z</time>
      </trkpt>
      <trkpt lat="47.72985" lon="-3.3831">
        <ele>15.8</ele>
        <time>2021-08-14T13:23:25Z</time>
      </trkpt>
      <trkpt lat="47.72984" lon="-3.38315">
        <ele>15.8</ele>
        <time>2021-08-14T13:23:26Z</time>
      </trkpt>
      <trkpt lat="47.72983" lon="-3.3832">
        <ele>15.8</ele>
        <time>2021-08-14T13:23:27Z</time>
      </trkpt>
      <trkpt lat="47.72982" lon="-3.38325">
        <ele>15.8</ele>
        <time>2021-08-14T13:23:28Z</time>
      </trkpt>
      <trkpt lat="47.72981" lon="-3.38329">
        <ele>15.8</ele>
        <time>2021-08-14T13:23:29Z</time>
      </trkpt>
      <trkpt lat="47.72979" lon="-3.38334">
        <ele>15.8</ele>
        <time>2021-08-14T13:23:30Z</time>
      </trkpt>
      <trkpt lat="47.72978" lon="-3.38338">
        <ele>15.8</ele>
        <time>2021-08-14T13:23:31Z</time>
      </trkpt>
      <trkpt lat="47.72976" lon="-3.38343">
        <ele>16</ele>
        <time>2021-08-14T13:23:32Z</time>
      </trkpt>
      <trkpt lat="47.72975" lon="-3.38348">
        <ele>16.2</ele>
        <time>2021-08-14T13:23:33Z</time>
      </trkpt>
      <trkpt lat="47.72973" lon="-3.38353">
        <ele>16.2</ele>
        <time>2021-08-14T13:23:34Z</time>
      </trkpt>
      <trkpt lat="47.72971" lon="-3.38358">
        <ele>16.4</ele>
        <time>2021-08-14T13:23:35Z</time>
      </trkpt>
      <trkpt lat="47.7297" lon="-3.38362">
        <ele>16.6</ele>
        <time>2021-08-14T13:23:36Z</time>
      </trkpt>
      <trkpt lat="47.72968" lon="-3.38367">
        <ele>16.8</ele>
        <time>2021-08-14T13:23:37Z</time>
      </trkpt>
      <trkpt lat="47.72967" lon="-3.38371">
        <ele>17</ele>
        <time>2021-08-14T13:23:38Z</time>
      </trkpt>
      <trkpt lat="47.72966" lon="-3.38376">
        <ele>17.2</ele>
        <time>2021-08-14T13:23:39Z</time>
      </trkpt>
      <trkpt lat="47.72965" lon="-3.38381">
        <ele>17.4</ele>
        <time>2021-08-14T13:23:40Z</time>
      </trkpt>
      <trkpt lat="47.72964" lon="-3.38385">
        <ele>17.4</ele>
        <time>2021-08-14T13:23:41Z</time>
      </trkpt>
      <trkpt lat="47.72963" lon="-3.3839">
        <ele>17.6</ele>
        <time>2021-08-14T13:23:42Z</time>
      </trkpt>
      <trkpt lat="47.72962" lon="-3.38395">
        <ele>17.8</ele>
        <time>2021-08-14T13:23:43Z</time>
      </trkpt>
      <trkpt lat="47.72961" lon="-3.384">
        <ele>18</ele>
        <time>2021-08-14T13:23:44Z</time>
      </trkpt>
      <trkpt lat="47.7296" lon="-3.38404">
        <ele>18.2</ele>
        <time>2021-08-14T13:23:45Z</time>
      </trkpt>
      <trkpt lat="47.7296" lon="-3.38409">
        <ele>18.4</ele>
        <time>2021-08-14T13:23:46Z</time>
      </trkpt>
      <trkpt lat="47.7296" lon="-3.38413">
        <ele>18.4</ele>
        <time>2021-08-14T13:23:47Z</time>
      </trkpt>
      <trkpt lat="47.7296" lon="-3.38418">
        <ele>18.4</ele>
        <time>2021-08-14T13:23:48Z</time>
      </trkpt>
      <trkpt lat="47.72959" lon="-3.38423">
        <ele>18.6</ele>
        <time>2021-08-14T13:23:49Z</time>
      </trkpt>
      <trkpt lat="47.72959" lon="-3.38427">
        <ele>18.6</ele>
        <time>2021-08-14T13:23:50Z</time>
      </trkpt>
      <trkpt lat="47.72958" lon="-3.38432">
        <ele>18.6</ele>
        <time>2021-08-14T13:23:51Z</time>
      </trkpt>
      <trkpt lat="47.72958" lon="-3.38436">
        <ele>18.8</ele>
        <time>2021-08-14T13:23:52Z</time>
      </trkpt>
      <trkpt lat="47.72958" lon="-3.38441">
        <ele>18.8</ele>
        <time>2021-08-14T13:23:53Z</time>
      </trkpt>
      <trkpt lat="47.72957" lon="-3.38445">
        <ele>18.8</ele>
        <time>2021-08-14T13:23:54Z</time>
      </trkpt>
      <trkpt lat="47.72956" lon="-3.3845">
        <ele>19.4</ele>
        <time>2021-08-14T13:23:55Z</time>
      </trkpt>
      <trkpt lat="47.72955" lon="-3.38454">
        <ele>19.6</ele>
        <time>2021-08-14T13:23:56Z</time>
      </trkpt>
      <trkpt lat="47.72955" lon="-3.38458">
        <ele>19.8</ele>
        <time>2021-08-14T13:23:57Z</time>
      </trkpt>
      <trkpt lat="47.72954" lon="-3.38462">
        <ele>19.8</ele>
        <time>2021-08-14T13:23:58Z</time>
      </trkpt>
      <trkpt lat="47.72953" lon="-3.38467">
        <ele>19.8</ele>
        <time>2021-08-14T13:23:59Z</time>
      </trkpt>
      <trkpt lat="47.72953" lon="-3.38471">
        <ele>20</ele>
        <time>2021-08-14T13:24:00Z</time>
      </trkpt>
      <trkpt lat="47.72952" lon="-3.38476">
        <ele>20</ele>
        <time>2021-08-14T13:24:01Z</time>
      </trkpt>
      <trkpt lat="47.72953" lon="-3.3848">
        <ele>20</ele>
        <time>2021-08-14T13:24:02Z</time>
      </trkpt>
      <trkpt lat="47.72954" lon="-3.38484">
        <ele>20</ele>
        <time>2021-08-14T13:24:03Z</time>
      </trkpt>
      <trkpt lat="47.72956" lon="-3.38488">
        <ele>20.2</ele>
        <time>2021-08-14T13:24:04Z</time>
      </trkpt>
      <trkpt lat="47.72958" lon="-3.38492">
        <ele>20.2</ele>
        <time>2021-08-14T13:24:05Z</time>
      </trkpt>
      <trkpt lat="47.7296" lon="-3.38496">
        <ele>20.2</ele>
        <time>2021-08-14T13:24:06Z</time>
      </trkpt>
      <trkpt lat="47.72962" lon="-3.385">
        <ele>20.4</ele>
        <time>2021-08-14T13:24:07Z</time>
      </trkpt>
      <trkpt lat="47.72965" lon="-3.38504">
        <ele>20.6</ele>
        <time>2021-08-14T13:24:08Z</time>
      </trkpt>
      <trkpt lat="47.72967" lon="-3.38508">
        <ele>20.8</ele>
        <time>2021-08-14T13:24:09Z</time>
      </trkpt>
      <trkpt lat="47.7297" lon="-3.38512">
        <ele>21</ele>
        <time>2021-08-14T13:24:10Z</time>
      </trkpt>
      <trkpt lat="47.72974" lon="-3.38516">
        <ele>21.2</ele>
        <time>2021-08-14T13:24:11Z</time>
      </trkpt>
      <trkpt lat="47.72977" lon="-3.3852">
        <ele>21.2</ele>
        <time>2021-08-14T13:24:12Z</time>
      </trkpt>
      <trkpt lat="47.72981" lon="-3.38524">
        <ele>21.2</ele>
        <time>2021-08-14T13:24:13Z</time>
      </trkpt>
      <trkpt lat="47.72984" lon="-3.38529">
        <ele>21.2</ele>
        <time>2021-08-14T13:24:14Z</time>
      </trkpt>
      <trkpt lat="47.72989" lon="-3.38533">
        <ele>21.2</ele>
        <time>2021-08-14T13:24:15Z</time>
      </trkpt>
      <trkpt lat="47.72993" lon="-3.38536">
        <ele>21.2</ele>
        <time>2021-08-14T13:24:16Z</time>
      </trkpt>
      <trkpt lat="47.72998" lon="-3.38539">
        <ele>21.2</ele>
        <time>2021-08-14T13:24:17Z</time>
      </trkpt>
      <trkpt lat="47.73003" lon="-3.38542">
        <ele>21.2</ele>
        <time>2021-08-14T13:24:18Z</time>
      </trkpt>
      <trkpt lat="47.73008" lon="-3.38545">
        <ele>21.2</ele>
        <time>2021-08-14T13:24:19Z</time>
      </trkpt>
      <trkpt lat="47.73014" lon="-3.38548">
        <ele>21</ele>
        <time>2021-08-14T13:24:20Z</time>
      </trkpt>
      <trkpt lat="47.73019" lon="-3.38552">
        <ele>20.8</ele>
        <time>2021-08-14T13:24:21Z</time>
      </trkpt>
      <trkpt lat="47.73023" lon="-3.38557">
        <ele>20.6</ele>
        <time>2021-08-14T13:24:22Z</time>
      </trkpt>
      <trkpt lat="47.73027" lon="-3.38563">
        <ele>20.4</ele>
        <time>2021-08-14T13:24:23Z</time>
      </trkpt>
      <trkpt lat="47.73031" lon="-3.3857">
        <ele>20.2</ele>
        <time>2021-08-14T13:24:24Z</time>
      </trkpt>
      <trkpt lat="47.73034" lon="-3.38578">
        <ele>20</ele>
        <time>2021-08-14T13:24:25Z</time>
      </trkpt>
      <trkpt lat="47.73037" lon="-3.38585">
        <ele>19.8</ele>
        <time>2021-08-14T13:24:26Z</time>
      </trkpt>
      <trkpt lat="47.73041" lon="-3.38591">
        <ele>19.2</ele>
        <time>2021-08-14T13:24:27Z</time>
      </trkpt>
      <trkpt lat="47.73047" lon="-3.38596">
        <ele>19</ele>
        <time>2021-08-14T13:24:28Z</time>
      </trkpt>
      <trkpt lat="47.73053" lon="-3.38599">
        <ele>18.6</ele>
        <time>2021-08-14T13:24:29Z</time>
      </trkpt>
      <trkpt lat="47.7306" lon="-3.38601">
        <ele>18.2</ele>
        <time>2021-08-14T13:24:30Z</time>
      </trkpt>
      <trkpt lat="47.73066" lon="-3.38603">
        <ele>17.8</ele>
        <time>2021-08-14T13:24:31Z</time>
      </trkpt>
      <trkpt lat="47.73073" lon="-3.38605">
        <ele>17.4</ele>
        <time>2021-08-14T13:24:32Z</time>
      </trkpt>
      <trkpt lat="47.7308" lon="-3.38606">
        <ele>17</ele>
        <time>2021-08-14T13:24:33Z</time>
      </trkpt>
      <trkpt lat="47.73086" lon="-3.38607">
        <ele>16.6</ele>
        <time>2021-08-14T13:24:34Z</time>
      </trkpt>
      <trkpt lat="47.73093" lon="-3.38607">
        <ele>16.2</ele>
        <time>2021-08-14T13:24:35Z</time>
      </trkpt>
      <trkpt lat="47.731" lon="-3.38608">
        <ele>15.6</ele>
        <time>2021-08-14T13:24:36Z</time>
      </trkpt>
      <trkpt lat="47.73107" lon="-3.38608">
        <ele>14.8</ele>
        <time>2021-08-14T13:24:37Z</time>
      </trkpt>
      <trkpt lat="47.73114" lon="-3.38607">
        <ele>14.6</ele>
        <time>2021-08-14T13:24:38Z</time>
      </trkpt>
      <trkpt lat="47.7312" lon="-3.38607">
        <ele>14.2</ele>
        <time>2021-08-14T13:24:39Z</time>
      </trkpt>
      <trkpt lat="47.73127" lon="-3.38606">
        <ele>14</ele>
        <time>2021-08-14T13:24:40Z</time>
      </trkpt>
      <trkpt lat="47.73133" lon="-3.38605">
        <ele>13.8</ele>
        <time>2021-08-14T13:24:41Z</time>
      </trkpt>
      <trkpt lat="47.73138" lon="-3.38606">
        <ele>13.6</ele>
        <time>2021-08-14T13:24:42Z</time>
      </trkpt>
      <trkpt lat="47.73144" lon="-3.38605">
        <ele>13.6</ele>
        <time>2021-08-14T13:24:43Z</time>
      </trkpt>
      <trkpt lat="47.73149" lon="-3.38605">
        <ele>13.6</ele>
        <time>2021-08-14T13:24:44Z</time>
      </trkpt>
      <trkpt lat="47.73154" lon="-3.38605">
        <ele>13.6</ele>
        <time>2021-08-14T13:24:45Z</time>
      </trkpt>
      <trkpt lat="47.73159" lon="-3.38605">
        <ele>13.6</ele>
        <time>2021-08-14T13:24:46Z</time>
      </trkpt>
      <trkpt lat="47.73164" lon="-3.38604">
        <ele>13.6</ele>
        <time>2021-08-14T13:24:47Z</time>
      </trkpt>
      <trkpt lat="47.73169" lon="-3.38604">
        <ele>13.6</ele>
        <time>2021-08-14T13:24:48Z</time>
      </trkpt>
      <trkpt lat="47.73174" lon="-3.38603">
        <ele>13.6</ele>
        <time>2021-08-14T13:24:49Z</time>
      </trkpt>
      <trkpt lat="47.73179" lon="-3.38603">
        <ele>13.6</ele>
        <time>2021-08-14T13:24:50Z</time>
      </trkpt>
      <trkpt lat="47.73184" lon="-3.38603">
        <ele>13.8</ele>
        <time>2021-08-14T13:24:51Z</time>
      </trkpt>
      <trkpt lat="47.73189" lon="-3.38602">
        <ele>14</ele>
        <time>2021-08-14T13:24:52Z</time>
      </trkpt>
      <trkpt lat="47.73193" lon="-3.38601">
        <ele>14</ele>
        <time>2021-08-14T13:24:53Z</time>
      </trkpt>
      <trkpt lat="47.73197" lon="-3.386">
        <ele>14.2</ele>
        <time>2021-08-14T13:24:54Z</time>
      </trkpt>
      <trkpt lat="47.73201" lon="-3.38598">
        <ele>14.4</ele>
        <time>2021-08-14T13:24:55Z</time>
      </trkpt>
      <trkpt lat="47.73205" lon="-3.38597">
        <ele>14.4</ele>
        <time>2021-08-14T13:24:56Z</time>
      </trkpt>
      <trkpt lat="47.73208" lon="-3.38596">
        <ele>14.4</ele>
        <time>2021-08-14T13:24:57Z</time>
      </trkpt>
      <trkpt lat="47.73211" lon="-3.38595">
        <ele>14.6</ele>
        <time>2021-08-14T13:24:58Z</time>
      </trkpt>
      <trkpt lat="47.73214" lon="-3.38594">
        <ele>14.6</ele>
        <time>2021-08-14T13:24:59Z</time>
      </trkpt>
      <trkpt lat="47.73217" lon="-3.38592">
        <ele>14.8</ele>
        <time>2021-08-14T13:25:00Z</time>
      </trkpt>
      <trkpt lat="47.7322" lon="-3.38591">
        <ele>14.8</ele>
        <time>2021-08-14T13:25:01Z</time>
      </trkpt>
      <trkpt lat="47.73222" lon="-3.38591">
        <ele>14.8</ele>
        <time>2021-08-14T13:25:02Z</time>
      </trkpt>
      <trkpt lat="47.73225" lon="-3.3859">
        <ele>15</ele>
        <time>2021-08-14T13:25:03Z</time>
      </trkpt>
      <trkpt lat="47.73228" lon="-3.38589">
        <ele>15.2</ele>
        <time>2021-08-14T13:25:04Z</time>
      </trkpt>
      <trkpt lat="47.73231" lon="-3.38588">
        <ele>15.4</ele>
        <time>2021-08-14T13:25:05Z</time>
      </trkpt>
      <trkpt lat="47.73234" lon="-3.38586">
        <ele>15.4</ele>
        <time>2021-08-14T13:25:06Z</time>
      </trkpt>
      <trkpt lat="47.73236" lon="-3.38584">
        <ele>15.6</ele>
        <time>2021-08-14T13:25:07Z</time>
      </trkpt>
      <trkpt lat="47.73239" lon="-3.38582">
        <ele>15.8</ele>
        <time>2021-08-14T13:25:08Z</time>
      </trkpt>
      <trkpt lat="47.73242" lon="-3.3858">
        <ele>15.8</ele>
        <time>2021-08-14T13:25:09Z</time>
      </trkpt>
      <trkpt lat="47.73245" lon="-3.38578">
        <ele>15.8</ele>
        <time>2021-08-14T13:25:10Z</time>
      </trkpt>
      <trkpt lat="47.73248" lon="-3.38575">
        <ele>15.8</ele>
        <time>2021-08-14T13:25:11Z</time>
      </trkpt>
      <trkpt lat="47.73251" lon="-3.38572">
        <ele>15.8</ele>
        <time>2021-08-14T13:25:12Z</time>
      </trkpt>
      <trkpt lat="47.73254" lon="-3.38569">
        <ele>16</ele>
        <time>2021-08-14T13:25:13Z</time>
      </trkpt>
      <trkpt lat="47.73256" lon="-3.38567">
        <ele>16</ele>
        <time>2021-08-14T13:25:14Z</time>
      </trkpt>
      <trkpt lat="47.73259" lon="-3.38564">
        <ele>16.2</ele>
        <time>2021-08-14T13:25:15Z</time>
      </trkpt>
      <trkpt lat="47.73261" lon="-3.38562">
        <ele>16.2</ele>
        <time>2021-08-14T13:25:16Z</time>
      </trkpt>
      <trkpt lat="47.73263" lon="-3.3856">
        <ele>16.6</ele>
        <time>2021-08-14T13:25:17Z</time>
      </trkpt>
      <trkpt lat="47.73265" lon="-3.38557">
        <ele>16.6</ele>
        <time>2021-08-14T13:25:18Z</time>
      </trkpt>
      <trkpt lat="47.73267" lon="-3.38555">
        <ele>16.6</ele>
        <time>2021-08-14T13:25:19Z</time>
      </trkpt>
      <trkpt lat="47.73269" lon="-3.38552">
        <ele>16.8</ele>
        <time>2021-08-14T13:25:20Z</time>
      </trkpt>
      <trkpt lat="47.73272" lon="-3.3855">
        <ele>16.8</ele>
        <time>2021-08-14T13:25:21Z</time>
      </trkpt>
      <trkpt lat="47.73274" lon="-3.38547">
        <ele>16.8</ele>
        <time>2021-08-14T13:25:22Z</time>
      </trkpt>
      <trkpt lat="47.73276" lon="-3.38544">
        <ele>16.8</ele>
        <time>2021-08-14T13:25:23Z</time>
      </trkpt>
      <trkpt lat="47.73278" lon="-3.38541">
        <ele>17</ele>
        <time>2021-08-14T13:25:24Z</time>
      </trkpt>
      <trkpt lat="47.73281" lon="-3.38538">
        <ele>17</ele>
        <time>2021-08-14T13:25:25Z</time>
      </trkpt>
      <trkpt lat="47.73283" lon="-3.38535">
        <ele>17.2</ele>
        <time>2021-08-14T13:25:26Z</time>
      </trkpt>
      <trkpt lat="47.73285" lon="-3.38531">
        <ele>17.2</ele>
        <time>2021-08-14T13:25:27Z</time>
      </trkpt>
      <trkpt lat="47.73288" lon="-3.38528">
        <ele>17.4</ele>
        <time>2021-08-14T13:25:28Z</time>
      </trkpt>
      <trkpt lat="47.7329" lon="-3.38526">
        <ele>17.4</ele>
        <time>2021-08-14T13:25:29Z</time>
      </trkpt>
      <trkpt lat="47.73293" lon="-3.38523">
        <ele>17.4</ele>
        <time>2021-08-14T13:25:30Z</time>
      </trkpt>
      <trkpt lat="47.73295" lon="-3.3852">
        <ele>17.4</ele>
        <time>2021-08-14T13:25:31Z</time>
      </trkpt>
      <trkpt lat="47.73297" lon="-3.38518">
        <ele>17.4</ele>
        <time>2021-08-14T13:25:32Z</time>
      </trkpt>
      <trkpt lat="47.73299" lon="-3.38516">
        <ele>17.4</ele>
        <time>2021-08-14T13:25:33Z</time>
      </trkpt>
      <trkpt lat="47.73301" lon="-3.38513">
        <ele>17.4</ele>
        <time>2021-08-14T13:25:34Z</time>
      </trkpt>
      <trkpt lat="47.73303" lon="-3.38511">
        <ele>17.6</ele>
        <time>2021-08-14T13:25:35Z</time>
      </trkpt>
      <trkpt lat="47.73304" lon="-3.38508">
        <ele>17.6</ele>
        <time>2021-08-14T13:25:36Z</time>
      </trkpt>
      <trkpt lat="47.73306" lon="-3.38505">
        <ele>17.6</ele>
        <time>2021-08-14T13:25:37Z</time>
      </trkpt>
      <trkpt lat="47.73307" lon="-3.38501">
        <ele>17.6</ele>
        <time>2021-08-14T13:25:38Z</time>
      </trkpt>
      <trkpt lat="47.73309" lon="-3.38497">
        <ele>17.6</ele>
        <time>2021-08-14T13:25:39Z</time>
      </trkpt>
      <trkpt lat="47.7331" lon="-3.38492">
        <ele>17.6</ele>
        <time>2021-08-14T13:25:40Z</time>
      </trkpt>
      <trkpt lat="47.73312" lon="-3.38486">
        <ele>17.6</ele>
        <time>2021-08-14T13:25:41Z</time>
      </trkpt>
      <trkpt lat="47.73313" lon="-3.38481">
        <ele>17.6</ele>
        <time>2021-08-14T13:25:42Z</time>
      </trkpt>
      <trkpt lat="47.73313" lon="-3.38475">
        <ele>17.6</ele>
        <time>2021-08-14T13:25:43Z</time>
      </trkpt>
      <trkpt lat="47.73313" lon="-3.38469">
        <ele>17.8</ele>
        <time>2021-08-14T13:25:44Z</time>
      </trkpt>
      <trkpt lat="47.73313" lon="-3.38462">
        <ele>17.8</ele>
        <time>2021-08-14T13:25:45Z</time>
      </trkpt>
      <trkpt lat="47.73313" lon="-3.38455">
        <ele>17.8</ele>
        <time>2021-08-14T13:25:46Z</time>
      </trkpt>
      <trkpt lat="47.73312" lon="-3.38448">
        <ele>17.8</ele>
        <time>2021-08-14T13:25:47Z</time>
      </trkpt>
      <trkpt lat="47.73311" lon="-3.38441">
        <ele>17.6</ele>
        <time>2021-08-14T13:25:48Z</time>
      </trkpt>
      <trkpt lat="47.73309" lon="-3.38433">
        <ele>17.6</ele>
        <time>2021-08-14T13:25:49Z</time>
      </trkpt>
      <trkpt lat="47.73308" lon="-3.38426">
        <ele>17.6</ele>
        <time>2021-08-14T13:25:50Z</time>
      </trkpt>
      <trkpt lat="47.73307" lon="-3.38418">
        <ele>17.6</ele>
        <time>2021-08-14T13:25:51Z</time>
      </trkpt>
      <trkpt lat="47.73307" lon="-3.3841">
        <ele>17.4</ele>
        <time>2021-08-14T13:25:52Z</time>
      </trkpt>
      <trkpt lat="47.73308" lon="-3.38402">
        <ele>17.2</ele>
        <time>2021-08-14T13:25:53Z</time>
      </trkpt>
      <trkpt lat="47.73308" lon="-3.38394">
        <ele>17</ele>
        <time>2021-08-14T13:25:54Z</time>
      </trkpt>
      <trkpt lat="47.73308" lon="-3.38386">
        <ele>16.8</ele>
        <time>2021-08-14T13:25:55Z</time>
      </trkpt>
      <trkpt lat="47.73308" lon="-3.38378">
        <ele>16.4</ele>
        <time>2021-08-14T13:25:56Z</time>
      </trkpt>
      <trkpt lat="47.73307" lon="-3.3837">
        <ele>16.2</ele>
        <time>2021-08-14T13:25:57Z</time>
      </trkpt>
      <trkpt lat="47.73306" lon="-3.38363">
        <ele>16</ele>
        <time>2021-08-14T13:25:58Z</time>
      </trkpt>
      <trkpt lat="47.73306" lon="-3.38356">
        <ele>15.8</ele>
        <time>2021-08-14T13:25:59Z</time>
      </trkpt>
      <trkpt lat="47.73305" lon="-3.38348">
        <ele>15.6</ele>
        <time>2021-08-14T13:26:00Z</time>
      </trkpt>
      <trkpt lat="47.73305" lon="-3.38341">
        <ele>15.4</ele>
        <time>2021-08-14T13:26:01Z</time>
      </trkpt>
      <trkpt lat="47.73304" lon="-3.38333">
        <ele>15.2</ele>
        <time>2021-08-14T13:26:02Z</time>
      </trkpt>
      <trkpt lat="47.73303" lon="-3.38326">
        <ele>15.2</ele>
        <time>2021-08-14T13:26:03Z</time>
      </trkpt>
      <trkpt lat="47.73302" lon="-3.38318">
        <ele>15.2</ele>
        <time>2021-08-14T13:26:04Z</time>
      </trkpt>
      <trkpt lat="47.73301" lon="-3.3831">
        <ele>15.2</ele>
        <time>2021-08-14T13:26:05Z</time>
      </trkpt>
      <trkpt lat="47.733" lon="-3.38303">
        <ele>15.2</ele>
        <time>2021-08-14T13:26:06Z</time>
      </trkpt>
      <trkpt lat="47.73299" lon="-3.38296">
        <ele>15</ele>
        <time>2021-08-14T13:26:07Z</time>
      </trkpt>
      <trkpt lat="47.73297" lon="-3.38288">
        <ele>15</ele>
        <time>2021-08-14T13:26:08Z</time>
      </trkpt>
      <trkpt lat="47.73296" lon="-3.38281">
        <ele>15</ele>
        <time>2021-08-14T13:26:09Z</time>
      </trkpt>
      <trkpt lat="47.73295" lon="-3.38274">
        <ele>15</ele>
        <time>2021-08-14T13:26:10Z</time>
      </trkpt>
      <trkpt lat="47.73293" lon="-3.38266">
        <ele>14.8</ele>
        <time>2021-08-14T13:26:11Z</time>
      </trkpt>
      <trkpt lat="47.73292" lon="-3.38259">
        <ele>14.6</ele>
        <time>2021-08-14T13:26:12Z</time>
      </trkpt>
      <trkpt lat="47.73291" lon="-3.38251">
        <ele>14.4</ele>
        <time>2021-08-14T13:26:13Z</time>
      </trkpt>
      <trkpt lat="47.73289" lon="-3.38243">
        <ele>14.2</ele>
        <time>2021-08-14T13:26:14Z</time>
      </trkpt>
      <trkpt lat="47.73288" lon="-3.38236">
        <ele>14.2</ele>
        <time>2021-08-14T13:26:15Z</time>
      </trkpt>
      <trkpt lat="47.73286" lon="-3.38228">
        <ele>14</ele>
        <time>2021-08-14T13:26:16Z</time>
      </trkpt>
      <trkpt lat="47.73285" lon="-3.38221">
        <ele>14</ele>
        <time>2021-08-14T13:26:17Z</time>
      </trkpt>
      <trkpt lat="47.73284" lon="-3.38213">
        <ele>13.8</ele>
        <time>2021-08-14T13:26:18Z</time>
      </trkpt>
      <trkpt lat="47.73282" lon="-3.38206">
        <ele>13.8</ele>
        <time>2021-08-14T13:26:19Z</time>
      </trkpt>
      <trkpt lat="47.73281" lon="-3.38198">
        <ele>13.6</ele>
        <time>2021-08-14T13:26:20Z</time>
      </trkpt>
      <trkpt lat="47.73278" lon="-3.38184">
        <ele>13.4</ele>
        <time>2021-08-14T13:26:22Z</time>
      </trkpt>
      <trkpt lat="47.73277" lon="-3.38177">
        <ele>13.2</ele>
        <time>2021-08-14T13:26:23Z</time>
      </trkpt>
      <trkpt lat="47.73276" lon="-3.38169">
        <ele>13.2</ele>
        <time>2021-08-14T13:26:24Z</time>
      </trkpt>
      <trkpt lat="47.73274" lon="-3.38162">
        <ele>13</ele>
        <time>2021-08-14T13:26:25Z</time>
      </trkpt>
      <trkpt lat="47.73273" lon="-3.38154">
        <ele>13</ele>
        <time>2021-08-14T13:26:26Z</time>
      </trkpt>
      <trkpt lat="47.73271" lon="-3.3814">
        <ele>13</ele>
        <time>2021-08-14T13:26:28Z</time>
      </trkpt>
      <trkpt lat="47.73268" lon="-3.38125">
        <ele>13</ele>
        <time>2021-08-14T13:26:30Z</time>
      </trkpt>
      <trkpt lat="47.73265" lon="-3.3811">
        <ele>12.8</ele>
        <time>2021-08-14T13:26:32Z</time>
      </trkpt>
      <trkpt lat="47.73263" lon="-3.38095">
        <ele>12.8</ele>
        <time>2021-08-14T13:26:34Z</time>
      </trkpt>
      <trkpt lat="47.7326" lon="-3.38081">
        <ele>12.8</ele>
        <time>2021-08-14T13:26:36Z</time>
      </trkpt>
      <trkpt lat="47.73257" lon="-3.38066">
        <ele>12.8</ele>
        <time>2021-08-14T13:26:38Z</time>
      </trkpt>
      <trkpt lat="47.73255" lon="-3.38052">
        <ele>12.8</ele>
        <time>2021-08-14T13:26:40Z</time>
      </trkpt>
      <trkpt lat="47.73251" lon="-3.38031">
        <ele>12.8</ele>
        <time>2021-08-14T13:26:43Z</time>
      </trkpt>
      <trkpt lat="47.7325" lon="-3.38024">
        <ele>13</ele>
        <time>2021-08-14T13:26:44Z</time>
      </trkpt>
      <trkpt lat="47.73247" lon="-3.38004">
        <ele>13</ele>
        <time>2021-08-14T13:26:47Z</time>
      </trkpt>
      <trkpt lat="47.73243" lon="-3.37984">
        <ele>13.2</ele>
        <time>2021-08-14T13:26:50Z</time>
      </trkpt>
      <trkpt lat="47.73242" lon="-3.37977">
        <ele>13.2</ele>
        <time>2021-08-14T13:26:51Z</time>
      </trkpt>
      <trkpt lat="47.73241" lon="-3.37971">
        <ele>13.2</ele>
        <time>2021-08-14T13:26:52Z</time>
      </trkpt>
      <trkpt lat="47.7324" lon="-3.37964">
        <ele>13.2</ele>
        <time>2021-08-14T13:26:53Z</time>
      </trkpt>
      <trkpt lat="47.73238" lon="-3.37958">
        <ele>13.4</ele>
        <time>2021-08-14T13:26:54Z</time>
      </trkpt>
      <trkpt lat="47.73235" lon="-3.37939">
        <ele>13.6</ele>
        <time>2021-08-14T13:26:57Z</time>
      </trkpt>
      <trkpt lat="47.73234" lon="-3.37933">
        <ele>13.6</ele>
        <time>2021-08-14T13:26:58Z</time>
      </trkpt>
      <trkpt lat="47.73232" lon="-3.37921">
        <ele>13.8</ele>
        <time>2021-08-14T13:27:00Z</time>
      </trkpt>
      <trkpt lat="47.73232" lon="-3.37914">
        <ele>14</ele>
        <time>2021-08-14T13:27:01Z</time>
      </trkpt>
      <trkpt lat="47.73231" lon="-3.37908">
        <ele>14.2</ele>
        <time>2021-08-14T13:27:02Z</time>
      </trkpt>
      <trkpt lat="47.73231" lon="-3.37896">
        <ele>14.4</ele>
        <time>2021-08-14T13:27:04Z</time>
      </trkpt>
      <trkpt lat="47.7323" lon="-3.37883">
        <ele>14.6</ele>
        <time>2021-08-14T13:27:06Z</time>
      </trkpt>
      <trkpt lat="47.7323" lon="-3.37878">
        <ele>14.6</ele>
        <time>2021-08-14T13:27:07Z</time>
      </trkpt>
      <trkpt lat="47.7323" lon="-3.37872">
        <ele>14.6</ele>
        <time>2021-08-14T13:27:08Z</time>
      </trkpt>
      <trkpt lat="47.7323" lon="-3.37867">
        <ele>14.6</ele>
        <time>2021-08-14T13:27:09Z</time>
      </trkpt>
      <trkpt lat="47.7323" lon="-3.37862">
        <ele>14.8</ele>
        <time>2021-08-14T13:27:10Z</time>
      </trkpt>
      <trkpt lat="47.73231" lon="-3.37857">
        <ele>14.8</ele>
        <time>2021-08-14T13:27:11Z</time>
      </trkpt>
      <trkpt lat="47.7323" lon="-3.37843">
        <ele>15.2</ele>
        <time>2021-08-14T13:27:14Z</time>
      </trkpt>
      <trkpt lat="47.7323" lon="-3.37838">
        <ele>15.2</ele>
        <time>2021-08-14T13:27:15Z</time>
      </trkpt>
      <trkpt lat="47.73229" lon="-3.37833">
        <ele>15.4</ele>
        <time>2021-08-14T13:27:16Z</time>
      </trkpt>
      <trkpt lat="47.73228" lon="-3.37828">
        <ele>15.6</ele>
        <time>2021-08-14T13:27:17Z</time>
      </trkpt>
      <trkpt lat="47.73226" lon="-3.37823">
        <ele>15.6</ele>
        <time>2021-08-14T13:27:18Z</time>
      </trkpt>
      <trkpt lat="47.73225" lon="-3.37817">
        <ele>15.6</ele>
        <time>2021-08-14T13:27:19Z</time>
      </trkpt>
      <trkpt lat="47.73225" lon="-3.37811">
        <ele>15.6</ele>
        <time>2021-08-14T13:27:20Z</time>
      </trkpt>
      <trkpt lat="47.73224" lon="-3.37805">
        <ele>15.6</ele>
        <time>2021-08-14T13:27:21Z</time>
      </trkpt>
      <trkpt lat="47.73222" lon="-3.37799">
        <ele>15.6</ele>
        <time>2021-08-14T13:27:22Z</time>
      </trkpt>
      <trkpt lat="47.73218" lon="-3.37788">
        <ele>15.6</ele>
        <time>2021-08-14T13:27:24Z</time>
      </trkpt>
      <trkpt lat="47.73212" lon="-3.37776">
        <ele>15.6</ele>
        <time>2021-08-14T13:27:26Z</time>
      </trkpt>
      <trkpt lat="47.73209" lon="-3.37769">
        <ele>15.6</ele>
        <time>2021-08-14T13:27:27Z</time>
      </trkpt>
      <trkpt lat="47.73206" lon="-3.37763">
        <ele>15.6</ele>
        <time>2021-08-14T13:27:28Z</time>
      </trkpt>
      <trkpt lat="47.73196" lon="-3.37744">
        <ele>15</ele>
        <time>2021-08-14T13:27:31Z</time>
      </trkpt>
      <trkpt lat="47.7319" lon="-3.37731">
        <ele>14</ele>
        <time>2021-08-14T13:27:33Z</time>
      </trkpt>
      <trkpt lat="47.73187" lon="-3.37724">
        <ele>13.6</ele>
        <time>2021-08-14T13:27:34Z</time>
      </trkpt>
      <trkpt lat="47.73184" lon="-3.37718">
        <ele>13.2</ele>
        <time>2021-08-14T13:27:35Z</time>
      </trkpt>
      <trkpt lat="47.73181" lon="-3.37712">
        <ele>13</ele>
        <time>2021-08-14T13:27:36Z</time>
      </trkpt>
      <trkpt lat="47.73178" lon="-3.37706">
        <ele>12.8</ele>
        <time>2021-08-14T13:27:37Z</time>
      </trkpt>
      <trkpt lat="47.73175" lon="-3.377">
        <ele>12.6</ele>
        <time>2021-08-14T13:27:38Z</time>
      </trkpt>
      <trkpt lat="47.73174" lon="-3.37693">
        <ele>12.6</ele>
        <time>2021-08-14T13:27:39Z</time>
      </trkpt>
      <trkpt lat="47.73174" lon="-3.37679">
        <ele>12.4</ele>
        <time>2021-08-14T13:27:41Z</time>
      </trkpt>
      <trkpt lat="47.73177" lon="-3.37674">
        <ele>12.4</ele>
        <time>2021-08-14T13:27:42Z</time>
      </trkpt>
      <trkpt lat="47.73185" lon="-3.37667">
        <ele>12.4</ele>
        <time>2021-08-14T13:27:44Z</time>
      </trkpt>
      <trkpt lat="47.73189" lon="-3.37663">
        <ele>12.4</ele>
        <time>2021-08-14T13:27:45Z</time>
      </trkpt>
      <trkpt lat="47.73193" lon="-3.3766">
        <ele>12.4</ele>
        <time>2021-08-14T13:27:46Z</time>
      </trkpt>
      <trkpt lat="47.732" lon="-3.37652">
        <ele>12.4</ele>
        <time>2021-08-14T13:27:48Z</time>
      </trkpt>
      <trkpt lat="47.73203" lon="-3.37648">
        <ele>12.6</ele>
        <time>2021-08-14T13:27:49Z</time>
      </trkpt>
      <trkpt lat="47.73211" lon="-3.3764">
        <ele>12.8</ele>
        <time>2021-08-14T13:27:51Z</time>
      </trkpt>
      <trkpt lat="47.73215" lon="-3.37637">
        <ele>13</ele>
        <time>2021-08-14T13:27:52Z</time>
      </trkpt>
      <trkpt lat="47.73225" lon="-3.37625">
        <ele>13.2</ele>
        <time>2021-08-14T13:27:55Z</time>
      </trkpt>
      <trkpt lat="47.73229" lon="-3.37621">
        <ele>13.2</ele>
        <time>2021-08-14T13:27:56Z</time>
      </trkpt>
      <trkpt lat="47.73236" lon="-3.37613">
        <ele>13.4</ele>
        <time>2021-08-14T13:27:58Z</time>
      </trkpt>
      <trkpt lat="47.7324" lon="-3.37609">
        <ele>13.6</ele>
        <time>2021-08-14T13:27:59Z</time>
      </trkpt>
      <trkpt lat="47.73251" lon="-3.37598">
        <ele>13.8</ele>
        <time>2021-08-14T13:28:02Z</time>
      </trkpt>
      <trkpt lat="47.73255" lon="-3.37594">
        <ele>13.8</ele>
        <time>2021-08-14T13:28:03Z</time>
      </trkpt>
      <trkpt lat="47.73262" lon="-3.37586">
        <ele>14</ele>
        <time>2021-08-14T13:28:05Z</time>
      </trkpt>
      <trkpt lat="47.73266" lon="-3.37582">
        <ele>14</ele>
        <time>2021-08-14T13:28:06Z</time>
      </trkpt>
      <trkpt lat="47.7327" lon="-3.37578">
        <ele>14</ele>
        <time>2021-08-14T13:28:07Z</time>
      </trkpt>
      <trkpt lat="47.73277" lon="-3.3757">
        <ele>14</ele>
        <time>2021-08-14T13:28:09Z</time>
      </trkpt>
      <trkpt lat="47.73281" lon="-3.37565">
        <ele>14</ele>
        <time>2021-08-14T13:28:10Z</time>
      </trkpt>
      <trkpt lat="47.73285" lon="-3.37561">
        <ele>14</ele>
        <time>2021-08-14T13:28:11Z</time>
      </trkpt>
      <trkpt lat="47.73289" lon="-3.37558">
        <ele>14</ele>
        <time>2021-08-14T13:28:12Z</time>
      </trkpt>
      <trkpt lat="47.73293" lon="-3.37554">
        <ele>14</ele>
        <time>2021-08-14T13:28:13Z</time>
      </trkpt>
      <trkpt lat="47.73305" lon="-3.37541">
        <ele>13.8</ele>
        <time>2021-08-14T13:28:16Z</time>
      </trkpt>
      <trkpt lat="47.73309" lon="-3.37536">
        <ele>13.8</ele>
        <time>2021-08-14T13:28:17Z</time>
      </trkpt>
      <trkpt lat="47.73312" lon="-3.37531">
        <ele>13.8</ele>
        <time>2021-08-14T13:28:18Z</time>
      </trkpt>
      <trkpt lat="47.73315" lon="-3.37526">
        <ele>13.6</ele>
        <time>2021-08-14T13:28:19Z</time>
      </trkpt>
      <trkpt lat="47.73318" lon="-3.37521">
        <ele>13.6</ele>
        <time>2021-08-14T13:28:20Z</time>
      </trkpt>
      <trkpt lat="47.7332" lon="-3.37516">
        <ele>13.6</ele>
        <time>2021-08-14T13:28:21Z</time>
      </trkpt>
      <trkpt lat="47.73323" lon="-3.37511">
        <ele>13.6</ele>
        <time>2021-08-14T13:28:22Z</time>
      </trkpt>
      <trkpt lat="47.73325" lon="-3.37506">
        <ele>13.4</ele>
        <time>2021-08-14T13:28:23Z</time>
      </trkpt>
      <trkpt lat="47.73328" lon="-3.375">
        <ele>13.4</ele>
        <time>2021-08-14T13:28:24Z</time>
      </trkpt>
      <trkpt lat="47.7333" lon="-3.37494">
        <ele>13.4</ele>
        <time>2021-08-14T13:28:25Z</time>
      </trkpt>
      <trkpt lat="47.73332" lon="-3.37488">
        <ele>13.4</ele>
        <time>2021-08-14T13:28:26Z</time>
      </trkpt>
      <trkpt lat="47.73335" lon="-3.37482">
        <ele>13.4</ele>
        <time>2021-08-14T13:28:27Z</time>
      </trkpt>
      <trkpt lat="47.73337" lon="-3.37476">
        <ele>13.4</ele>
        <time>2021-08-14T13:28:28Z</time>
      </trkpt>
      <trkpt lat="47.73339" lon="-3.3747">
        <ele>13.4</ele>
        <time>2021-08-14T13:28:29Z</time>
      </trkpt>
      <trkpt lat="47.73341" lon="-3.37464">
        <ele>13.4</ele>
        <time>2021-08-14T13:28:30Z</time>
      </trkpt>
      <trkpt lat="47.73344" lon="-3.37458">
        <ele>13.4</ele>
        <time>2021-08-14T13:28:31Z</time>
      </trkpt>
      <trkpt lat="47.73346" lon="-3.37452">
        <ele>13.4</ele>
        <time>2021-08-14T13:28:32Z</time>
      </trkpt>
      <trkpt lat="47.73348" lon="-3.37446">
        <ele>13.4</ele>
        <time>2021-08-14T13:28:33Z</time>
      </trkpt>
      <trkpt lat="47.73351" lon="-3.3744">
        <ele>13.4</ele>
        <time>2021-08-14T13:28:34Z</time>
      </trkpt>
      <trkpt lat="47.73353" lon="-3.37433">
        <ele>13.4</ele>
        <time>2021-08-14T13:28:35Z</time>
      </trkpt>
      <trkpt lat="47.73358" lon="-3.37421">
        <ele>13.4</ele>
        <time>2021-08-14T13:28:37Z</time>
      </trkpt>
      <trkpt lat="47.73361" lon="-3.37415">
        <ele>13.6</ele>
        <time>2021-08-14T13:28:38Z</time>
      </trkpt>
      <trkpt lat="47.73363" lon="-3.37408">
        <ele>13.6</ele>
        <time>2021-08-14T13:28:39Z</time>
      </trkpt>
      <trkpt lat="47.73365" lon="-3.37402">
        <ele>13.6</ele>
        <time>2021-08-14T13:28:40Z</time>
      </trkpt>
      <trkpt lat="47.73368" lon="-3.37396">
        <ele>13.6</ele>
        <time>2021-08-14T13:28:41Z</time>
      </trkpt>
      <trkpt lat="47.7337" lon="-3.3739">
        <ele>13.6</ele>
        <time>2021-08-14T13:28:42Z</time>
      </trkpt>
      <trkpt lat="47.73372" lon="-3.37385">
        <ele>13.6</ele>
        <time>2021-08-14T13:28:43Z</time>
      </trkpt>
      <trkpt lat="47.73374" lon="-3.37379">
        <ele>13.6</ele>
        <time>2021-08-14T13:28:44Z</time>
      </trkpt>
      <trkpt lat="47.73376" lon="-3.37373">
        <ele>13.6</ele>
        <time>2021-08-14T13:28:45Z</time>
      </trkpt>
      <trkpt lat="47.73378" lon="-3.37367">
        <ele>13.6</ele>
        <time>2021-08-14T13:28:46Z</time>
      </trkpt>
      <trkpt lat="47.73381" lon="-3.37361">
        <ele>13.6</ele>
        <time>2021-08-14T13:28:47Z</time>
      </trkpt>
      <trkpt lat="47.73383" lon="-3.37356">
        <ele>13.6</ele>
        <time>2021-08-14T13:28:48Z</time>
      </trkpt>
      <trkpt lat="47.73385" lon="-3.3735">
        <ele>13.8</ele>
        <time>2021-08-14T13:28:49Z</time>
      </trkpt>
      <trkpt lat="47.73387" lon="-3.37344">
        <ele>13.8</ele>
        <time>2021-08-14T13:28:50Z</time>
      </trkpt>
      <trkpt lat="47.73389" lon="-3.37338">
        <ele>13.8</ele>
        <time>2021-08-14T13:28:51Z</time>
      </trkpt>
      <trkpt lat="47.7339" lon="-3.37331">
        <ele>13.8</ele>
        <time>2021-08-14T13:28:52Z</time>
      </trkpt>
      <trkpt lat="47.73391" lon="-3.37325">
        <ele>13.8</ele>
        <time>2021-08-14T13:28:53Z</time>
      </trkpt>
      <trkpt lat="47.73393" lon="-3.37318">
        <ele>13.8</ele>
        <time>2021-08-14T13:28:54Z</time>
      </trkpt>
      <trkpt lat="47.73394" lon="-3.37312">
        <ele>13.8</ele>
        <time>2021-08-14T13:28:55Z</time>
      </trkpt>
      <trkpt lat="47.73397" lon="-3.37307">
        <ele>13.8</ele>
        <time>2021-08-14T13:28:56Z</time>
      </trkpt>
      <trkpt lat="47.734" lon="-3.37302">
        <ele>13.8</ele>
        <time>2021-08-14T13:28:57Z</time>
      </trkpt>
      <trkpt lat="47.73403" lon="-3.373">
        <ele>13.8</ele>
        <time>2021-08-14T13:28:58Z</time>
      </trkpt>
      <trkpt lat="47.73407" lon="-3.373">
        <ele>13.8</ele>
        <time>2021-08-14T13:28:59Z</time>
      </trkpt>
      <trkpt lat="47.73411" lon="-3.37302">
        <ele>13.8</ele>
        <time>2021-08-14T13:29:00Z</time>
      </trkpt>
      <trkpt lat="47.73414" lon="-3.37307">
        <ele>13.8</ele>
        <time>2021-08-14T13:29:01Z</time>
      </trkpt>
      <trkpt lat="47.73418" lon="-3.3731">
        <ele>13.8</ele>
        <time>2021-08-14T13:29:02Z</time>
      </trkpt>
      <trkpt lat="47.73421" lon="-3.37314">
        <ele>13.8</ele>
        <time>2021-08-14T13:29:03Z</time>
      </trkpt>
      <trkpt lat="47.73425" lon="-3.37317">
        <ele>13.8</ele>
        <time>2021-08-14T13:29:04Z</time>
      </trkpt>
      <trkpt lat="47.73429" lon="-3.37321">
        <ele>14</ele>
        <time>2021-08-14T13:29:05Z</time>
      </trkpt>
      <trkpt lat="47.73433" lon="-3.37324">
        <ele>14</ele>
        <time>2021-08-14T13:29:06Z</time>
      </trkpt>
      <trkpt lat="47.73437" lon="-3.37327">
        <ele>14</ele>
        <time>2021-08-14T13:29:07Z</time>
      </trkpt>
      <trkpt lat="47.73441" lon="-3.37331">
        <ele>14</ele>
        <time>2021-08-14T13:29:08Z</time>
      </trkpt>
      <trkpt lat="47.73445" lon="-3.37334">
        <ele>14</ele>
        <time>2021-08-14T13:29:09Z</time>
      </trkpt>
      <trkpt lat="47.73449" lon="-3.37337">
        <ele>14</ele>
        <time>2021-08-14T13:29:10Z</time>
      </trkpt>
      <trkpt lat="47.73453" lon="-3.3734">
        <ele>14</ele>
        <time>2021-08-14T13:29:11Z</time>
      </trkpt>
      <trkpt lat="47.73457" lon="-3.37344">
        <ele>14</ele>
        <time>2021-08-14T13:29:12Z</time>
      </trkpt>
      <trkpt lat="47.73461" lon="-3.37347">
        <ele>14.2</ele>
        <time>2021-08-14T13:29:13Z</time>
      </trkpt>
      <trkpt lat="47.73465" lon="-3.37351">
        <ele>14.4</ele>
        <time>2021-08-14T13:29:14Z</time>
      </trkpt>
      <trkpt lat="47.73469" lon="-3.37354">
        <ele>14.4</ele>
        <time>2021-08-14T13:29:15Z</time>
      </trkpt>
      <trkpt lat="47.73472" lon="-3.37358">
        <ele>14.6</ele>
        <time>2021-08-14T13:29:16Z</time>
      </trkpt>
      <trkpt lat="47.73476" lon="-3.37361">
        <ele>14.6</ele>
        <time>2021-08-14T13:29:17Z</time>
      </trkpt>
      <trkpt lat="47.7348" lon="-3.37364">
        <ele>14.6</ele>
        <time>2021-08-14T13:29:18Z</time>
      </trkpt>
      <trkpt lat="47.73484" lon="-3.37367">
        <ele>14.6</ele>
        <time>2021-08-14T13:29:19Z</time>
      </trkpt>
      <trkpt lat="47.73488" lon="-3.37371">
        <ele>14.6</ele>
        <time>2021-08-14T13:29:20Z</time>
      </trkpt>
      <trkpt lat="47.73491" lon="-3.37375">
        <ele>14.6</ele>
        <time>2021-08-14T13:29:21Z</time>
      </trkpt>
      <trkpt lat="47.73495" lon="-3.37379">
        <ele>14.6</ele>
        <time>2021-08-14T13:29:22Z</time>
      </trkpt>
      <trkpt lat="47.73499" lon="-3.37381">
        <ele>14.8</ele>
        <time>2021-08-14T13:29:23Z</time>
      </trkpt>
      <trkpt lat="47.73503" lon="-3.37385">
        <ele>14.8</ele>
        <time>2021-08-14T13:29:24Z</time>
      </trkpt>
      <trkpt lat="47.73506" lon="-3.37388">
        <ele>14.8</ele>
        <time>2021-08-14T13:29:25Z</time>
      </trkpt>
      <trkpt lat="47.7351" lon="-3.37391">
        <ele>14.8</ele>
        <time>2021-08-14T13:29:26Z</time>
      </trkpt>
      <trkpt lat="47.73514" lon="-3.37394">
        <ele>15</ele>
        <time>2021-08-14T13:29:27Z</time>
      </trkpt>
      <trkpt lat="47.73517" lon="-3.37397">
        <ele>15</ele>
        <time>2021-08-14T13:29:28Z</time>
      </trkpt>
      <trkpt lat="47.73521" lon="-3.37398">
        <ele>15</ele>
        <time>2021-08-14T13:29:29Z</time>
      </trkpt>
      <trkpt lat="47.73525" lon="-3.37399">
        <ele>15.2</ele>
        <time>2021-08-14T13:29:30Z</time>
      </trkpt>
      <trkpt lat="47.73528" lon="-3.37399">
        <ele>15.2</ele>
        <time>2021-08-14T13:29:31Z</time>
      </trkpt>
      <trkpt lat="47.73531" lon="-3.37398">
        <ele>15.4</ele>
        <time>2021-08-14T13:29:32Z</time>
      </trkpt>
      <trkpt lat="47.73534" lon="-3.37397">
        <ele>15.6</ele>
        <time>2021-08-14T13:29:33Z</time>
      </trkpt>
      <trkpt lat="47.73537" lon="-3.37395">
        <ele>15.6</ele>
        <time>2021-08-14T13:29:34Z</time>
      </trkpt>
      <trkpt lat="47.73539" lon="-3.37392">
        <ele>15.6</ele>
        <time>2021-08-14T13:29:35Z</time>
      </trkpt>
      <trkpt lat="47.73542" lon="-3.37388">
        <ele>15.6</ele>
        <time>2021-08-14T13:29:36Z</time>
      </trkpt>
      <trkpt lat="47.73544" lon="-3.37384">
        <ele>15.8</ele>
        <time>2021-08-14T13:29:37Z</time>
      </trkpt>
      <trkpt lat="47.73545" lon="-3.37379">
        <ele>15.8</ele>
        <time>2021-08-14T13:29:38Z</time>
      </trkpt>
      <trkpt lat="47.73546" lon="-3.37373">
        <ele>15.8</ele>
        <time>2021-08-14T13:29:39Z</time>
      </trkpt>
      <trkpt lat="47.73547" lon="-3.37367">
        <ele>15.8</ele>
        <time>2021-08-14T13:29:40Z</time>
      </trkpt>
      <trkpt lat="47.73548" lon="-3.37361">
        <ele>16</ele>
        <time>2021-08-14T13:29:41Z</time>
      </trkpt>
      <trkpt lat="47.73548" lon="-3.37355">
        <ele>16.2</ele>
        <time>2021-08-14T13:29:42Z</time>
      </trkpt>
      <trkpt lat="47.73549" lon="-3.37349">
        <ele>16.2</ele>
        <time>2021-08-14T13:29:43Z</time>
      </trkpt>
      <trkpt lat="47.73549" lon="-3.37342">
        <ele>16.2</ele>
        <time>2021-08-14T13:29:44Z</time>
      </trkpt>
      <trkpt lat="47.7355" lon="-3.37336">
        <ele>16.2</ele>
        <time>2021-08-14T13:29:45Z</time>
      </trkpt>
      <trkpt lat="47.73551" lon="-3.37329">
        <ele>16.2</ele>
        <time>2021-08-14T13:29:46Z</time>
      </trkpt>
      <trkpt lat="47.73551" lon="-3.37323">
        <ele>16.2</ele>
        <time>2021-08-14T13:29:47Z</time>
      </trkpt>
      <trkpt lat="47.73551" lon="-3.37316">
        <ele>16.2</ele>
        <time>2021-08-14T13:29:48Z</time>
      </trkpt>
      <trkpt lat="47.73552" lon="-3.3731">
        <ele>16.2</ele>
        <time>2021-08-14T13:29:49Z</time>
      </trkpt>
      <trkpt lat="47.73552" lon="-3.37303">
        <ele>16.2</ele>
        <time>2021-08-14T13:29:50Z</time>
      </trkpt>
      <trkpt lat="47.73553" lon="-3.37297">
        <ele>16.2</ele>
        <time>2021-08-14T13:29:51Z</time>
      </trkpt>
      <trkpt lat="47.73553" lon="-3.3729">
        <ele>16.2</ele>
        <time>2021-08-14T13:29:52Z</time>
      </trkpt>
      <trkpt lat="47.73554" lon="-3.37283">
        <ele>16</ele>
        <time>2021-08-14T13:29:53Z</time>
      </trkpt>
      <trkpt lat="47.73554" lon="-3.37277">
        <ele>15.8</ele>
        <time>2021-08-14T13:29:54Z</time>
      </trkpt>
      <trkpt lat="47.73555" lon="-3.3727">
        <ele>15.8</ele>
        <time>2021-08-14T13:29:55Z</time>
      </trkpt>
      <trkpt lat="47.73555" lon="-3.37263">
        <ele>15.8</ele>
        <time>2021-08-14T13:29:56Z</time>
      </trkpt>
      <trkpt lat="47.73554" lon="-3.37257">
        <ele>15.8</ele>
        <time>2021-08-14T13:29:57Z</time>
      </trkpt>
      <trkpt lat="47.73553" lon="-3.3725">
        <ele>15.8</ele>
        <time>2021-08-14T13:29:58Z</time>
      </trkpt>
      <trkpt lat="47.73553" lon="-3.37244">
        <ele>15.8</ele>
        <time>2021-08-14T13:29:59Z</time>
      </trkpt>
      <trkpt lat="47.73553" lon="-3.37238">
        <ele>15.6</ele>
        <time>2021-08-14T13:30:00Z</time>
      </trkpt>
      <trkpt lat="47.73552" lon="-3.37232">
        <ele>15.6</ele>
        <time>2021-08-14T13:30:01Z</time>
      </trkpt>
      <trkpt lat="47.73551" lon="-3.37226">
        <ele>15.6</ele>
        <time>2021-08-14T13:30:02Z</time>
      </trkpt>
      <trkpt lat="47.73551" lon="-3.3722">
        <ele>15.6</ele>
        <time>2021-08-14T13:30:03Z</time>
      </trkpt>
      <trkpt lat="47.7355" lon="-3.37214">
        <ele>15.6</ele>
        <time>2021-08-14T13:30:04Z</time>
      </trkpt>
      <trkpt lat="47.7355" lon="-3.37208">
        <ele>15.4</ele>
        <time>2021-08-14T13:30:05Z</time>
      </trkpt>
      <trkpt lat="47.7355" lon="-3.37202">
        <ele>15.4</ele>
        <time>2021-08-14T13:30:06Z</time>
      </trkpt>
      <trkpt lat="47.7355" lon="-3.37196">
        <ele>15.4</ele>
        <time>2021-08-14T13:30:07Z</time>
      </trkpt>
      <trkpt lat="47.7355" lon="-3.3719">
        <ele>15.6</ele>
        <time>2021-08-14T13:30:08Z</time>
      </trkpt>
      <trkpt lat="47.7355" lon="-3.37184">
        <ele>15.6</ele>
        <time>2021-08-14T13:30:09Z</time>
      </trkpt>
      <trkpt lat="47.7355" lon="-3.37178">
        <ele>15.6</ele>
        <time>2021-08-14T13:30:10Z</time>
      </trkpt>
      <trkpt lat="47.73551" lon="-3.37172">
        <ele>15.6</ele>
        <time>2021-08-14T13:30:11Z</time>
      </trkpt>
      <trkpt lat="47.73551" lon="-3.37166">
        <ele>15.6</ele>
        <time>2021-08-14T13:30:12Z</time>
      </trkpt>
      <trkpt lat="47.73551" lon="-3.3716">
        <ele>15.6</ele>
        <time>2021-08-14T13:30:13Z</time>
      </trkpt>
      <trkpt lat="47.73552" lon="-3.37154">
        <ele>15.6</ele>
        <time>2021-08-14T13:30:14Z</time>
      </trkpt>
      <trkpt lat="47.73552" lon="-3.37147">
        <ele>15.6</ele>
        <time>2021-08-14T13:30:15Z</time>
      </trkpt>
      <trkpt lat="47.73553" lon="-3.37141">
        <ele>15.6</ele>
        <time>2021-08-14T13:30:16Z</time>
      </trkpt>
      <trkpt lat="47.73553" lon="-3.37134">
        <ele>15.6</ele>
        <time>2021-08-14T13:30:17Z</time>
      </trkpt>
      <trkpt lat="47.73554" lon="-3.37128">
        <ele>15.6</ele>
        <time>2021-08-14T13:30:18Z</time>
      </trkpt>
      <trkpt lat="47.73555" lon="-3.37121">
        <ele>15.6</ele>
        <time>2021-08-14T13:30:19Z</time>
      </trkpt>
      <trkpt lat="47.73555" lon="-3.37115">
        <ele>15.6</ele>
        <time>2021-08-14T13:30:20Z</time>
      </trkpt>
      <trkpt lat="47.73555" lon="-3.37109">
        <ele>15.6</ele>
        <time>2021-08-14T13:30:21Z</time>
      </trkpt>
      <trkpt lat="47.73556" lon="-3.37102">
        <ele>15.6</ele>
        <time>2021-08-14T13:30:22Z</time>
      </trkpt>
      <trkpt lat="47.73556" lon="-3.37095">
        <ele>15.6</ele>
        <time>2021-08-14T13:30:23Z</time>
      </trkpt>
      <trkpt lat="47.73556" lon="-3.37089">
        <ele>15.6</ele>
        <time>2021-08-14T13:30:24Z</time>
      </trkpt>
      <trkpt lat="47.73557" lon="-3.37082">
        <ele>15.6</ele>
        <time>2021-08-14T13:30:25Z</time>
      </trkpt>
      <trkpt lat="47.73557" lon="-3.37075">
        <ele>15.6</ele>
        <time>2021-08-14T13:30:26Z</time>
      </trkpt>
      <trkpt lat="47.73557" lon="-3.37069">
        <ele>15.4</ele>
        <time>2021-08-14T13:30:27Z</time>
      </trkpt>
      <trkpt lat="47.73558" lon="-3.37062">
        <ele>15.4</ele>
        <time>2021-08-14T13:30:28Z</time>
      </trkpt>
      <trkpt lat="47.73558" lon="-3.37055">
        <ele>15.2</ele>
        <time>2021-08-14T13:30:29Z</time>
      </trkpt>
      <trkpt lat="47.73559" lon="-3.37049">
        <ele>15.2</ele>
        <time>2021-08-14T13:30:30Z</time>
      </trkpt>
      <trkpt lat="47.73559" lon="-3.37042">
        <ele>15.2</ele>
        <time>2021-08-14T13:30:31Z</time>
      </trkpt>
      <trkpt lat="47.73559" lon="-3.37036">
        <ele>15</ele>
        <time>2021-08-14T13:30:32Z</time>
      </trkpt>
      <trkpt lat="47.73558" lon="-3.37029">
        <ele>15</ele>
        <time>2021-08-14T13:30:33Z</time>
      </trkpt>
      <trkpt lat="47.73557" lon="-3.37023">
        <ele>15</ele>
        <time>2021-08-14T13:30:34Z</time>
      </trkpt>
      <trkpt lat="47.73554" lon="-3.37017">
        <ele>15</ele>
        <time>2021-08-14T13:30:35Z</time>
      </trkpt>
      <trkpt lat="47.73551" lon="-3.37013">
        <ele>14.8</ele>
        <time>2021-08-14T13:30:36Z</time>
      </trkpt>
      <trkpt lat="47.73547" lon="-3.37008">
        <ele>14.8</ele>
        <time>2021-08-14T13:30:37Z</time>
      </trkpt>
      <trkpt lat="47.73544" lon="-3.37004">
        <ele>14.6</ele>
        <time>2021-08-14T13:30:38Z</time>
      </trkpt>
      <trkpt lat="47.7354" lon="-3.37">
        <ele>14.6</ele>
        <time>2021-08-14T13:30:39Z</time>
      </trkpt>
      <trkpt lat="47.73537" lon="-3.36996">
        <ele>14.6</ele>
        <time>2021-08-14T13:30:40Z</time>
      </trkpt>
      <trkpt lat="47.73534" lon="-3.36991">
        <ele>14.4</ele>
        <time>2021-08-14T13:30:41Z</time>
      </trkpt>
      <trkpt lat="47.7353" lon="-3.36987">
        <ele>14.4</ele>
        <time>2021-08-14T13:30:42Z</time>
      </trkpt>
      <trkpt lat="47.73527" lon="-3.36982">
        <ele>14.4</ele>
        <time>2021-08-14T13:30:43Z</time>
      </trkpt>
      <trkpt lat="47.73524" lon="-3.36977">
        <ele>14.4</ele>
        <time>2021-08-14T13:30:44Z</time>
      </trkpt>
      <trkpt lat="47.7352" lon="-3.36973">
        <ele>14.4</ele>
        <time>2021-08-14T13:30:45Z</time>
      </trkpt>
      <trkpt lat="47.73517" lon="-3.36968">
        <ele>14.2</ele>
        <time>2021-08-14T13:30:46Z</time>
      </trkpt>
      <trkpt lat="47.73514" lon="-3.36963">
        <ele>14.2</ele>
        <time>2021-08-14T13:30:47Z</time>
      </trkpt>
      <trkpt lat="47.7351" lon="-3.36958">
        <ele>14.2</ele>
        <time>2021-08-14T13:30:48Z</time>
      </trkpt>
      <trkpt lat="47.73507" lon="-3.36954">
        <ele>14</ele>
        <time>2021-08-14T13:30:49Z</time>
      </trkpt>
      <trkpt lat="47.73503" lon="-3.36949">
        <ele>14</ele>
        <time>2021-08-14T13:30:50Z</time>
      </trkpt>
      <trkpt lat="47.735" lon="-3.36944">
        <ele>13.8</ele>
        <time>2021-08-14T13:30:51Z</time>
      </trkpt>
      <trkpt lat="47.73496" lon="-3.36939">
        <ele>13.8</ele>
        <time>2021-08-14T13:30:52Z</time>
      </trkpt>
      <trkpt lat="47.73493" lon="-3.36935">
        <ele>13.8</ele>
        <time>2021-08-14T13:30:53Z</time>
      </trkpt>
      <trkpt lat="47.73489" lon="-3.3693">
        <ele>13.8</ele>
        <time>2021-08-14T13:30:54Z</time>
      </trkpt>
      <trkpt lat="47.73486" lon="-3.36925">
        <ele>13.6</ele>
        <time>2021-08-14T13:30:55Z</time>
      </trkpt>
      <trkpt lat="47.73482" lon="-3.3692">
        <ele>13.6</ele>
        <time>2021-08-14T13:30:56Z</time>
      </trkpt>
      <trkpt lat="47.73479" lon="-3.36916">
        <ele>13.4</ele>
        <time>2021-08-14T13:30:57Z</time>
      </trkpt>
      <trkpt lat="47.73476" lon="-3.3691">
        <ele>13.4</ele>
        <time>2021-08-14T13:30:58Z</time>
      </trkpt>
      <trkpt lat="47.73472" lon="-3.36905">
        <ele>13.4</ele>
        <time>2021-08-14T13:30:59Z</time>
      </trkpt>
      <trkpt lat="47.73469" lon="-3.369">
        <ele>13.2</ele>
        <time>2021-08-14T13:31:00Z</time>
      </trkpt>
      <trkpt lat="47.73465" lon="-3.36895">
        <ele>13.2</ele>
        <time>2021-08-14T13:31:01Z</time>
      </trkpt>
      <trkpt lat="47.73462" lon="-3.3689">
        <ele>13.2</ele>
        <time>2021-08-14T13:31:02Z</time>
      </trkpt>
      <trkpt lat="47.73459" lon="-3.36883">
        <ele>13.2</ele>
        <time>2021-08-14T13:31:03Z</time>
      </trkpt>
      <trkpt lat="47.73457" lon="-3.36877">
        <ele>13</ele>
        <time>2021-08-14T13:31:04Z</time>
      </trkpt>
      <trkpt lat="47.73455" lon="-3.36869">
        <ele>13</ele>
        <time>2021-08-14T13:31:05Z</time>
      </trkpt>
      <trkpt lat="47.73453" lon="-3.36855">
        <ele>13</ele>
        <time>2021-08-14T13:31:07Z</time>
      </trkpt>
      <trkpt lat="47.73453" lon="-3.36848">
        <ele>13</ele>
        <time>2021-08-14T13:31:08Z</time>
      </trkpt>
      <trkpt lat="47.73453" lon="-3.36841">
        <ele>12.8</ele>
        <time>2021-08-14T13:31:09Z</time>
      </trkpt>
      <trkpt lat="47.73452" lon="-3.36834">
        <ele>12.8</ele>
        <time>2021-08-14T13:31:10Z</time>
      </trkpt>
      <trkpt lat="47.73451" lon="-3.36827">
        <ele>12.6</ele>
        <time>2021-08-14T13:31:11Z</time>
      </trkpt>
      <trkpt lat="47.7345" lon="-3.36821">
        <ele>12.6</ele>
        <time>2021-08-14T13:31:12Z</time>
      </trkpt>
      <trkpt lat="47.73449" lon="-3.36815">
        <ele>12.6</ele>
        <time>2021-08-14T13:31:13Z</time>
      </trkpt>
      <trkpt lat="47.73447" lon="-3.36809">
        <ele>12.6</ele>
        <time>2021-08-14T13:31:14Z</time>
      </trkpt>
      <trkpt lat="47.73446" lon="-3.36804">
        <ele>12.4</ele>
        <time>2021-08-14T13:31:15Z</time>
      </trkpt>
      <trkpt lat="47.73444" lon="-3.36798">
        <ele>12.4</ele>
        <time>2021-08-14T13:31:16Z</time>
      </trkpt>
      <trkpt lat="47.73443" lon="-3.36793">
        <ele>12.4</ele>
        <time>2021-08-14T13:31:17Z</time>
      </trkpt>
      <trkpt lat="47.73441" lon="-3.36787">
        <ele>12.4</ele>
        <time>2021-08-14T13:31:18Z</time>
      </trkpt>
      <trkpt lat="47.7344" lon="-3.36782">
        <ele>12.4</ele>
        <time>2021-08-14T13:31:19Z</time>
      </trkpt>
      <trkpt lat="47.73439" lon="-3.36776">
        <ele>12.4</ele>
        <time>2021-08-14T13:31:20Z</time>
      </trkpt>
      <trkpt lat="47.73437" lon="-3.36771">
        <ele>12.4</ele>
        <time>2021-08-14T13:31:21Z</time>
      </trkpt>
      <trkpt lat="47.73436" lon="-3.36765">
        <ele>12.6</ele>
        <time>2021-08-14T13:31:22Z</time>
      </trkpt>
      <trkpt lat="47.73435" lon="-3.3676">
        <ele>12.6</ele>
        <time>2021-08-14T13:31:23Z</time>
      </trkpt>
      <trkpt lat="47.73433" lon="-3.36756">
        <ele>12.6</ele>
        <time>2021-08-14T13:31:24Z</time>
      </trkpt>
      <trkpt lat="47.73432" lon="-3.36751">
        <ele>12.8</ele>
        <time>2021-08-14T13:31:25Z</time>
      </trkpt>
      <trkpt lat="47.73431" lon="-3.36745">
        <ele>12.8</ele>
        <time>2021-08-14T13:31:26Z</time>
      </trkpt>
      <trkpt lat="47.7343" lon="-3.3674">
        <ele>13</ele>
        <time>2021-08-14T13:31:27Z</time>
      </trkpt>
      <trkpt lat="47.73431" lon="-3.36734">
        <ele>13.2</ele>
        <time>2021-08-14T13:31:28Z</time>
      </trkpt>
      <trkpt lat="47.73433" lon="-3.36729">
        <ele>13.2</ele>
        <time>2021-08-14T13:31:29Z</time>
      </trkpt>
      <trkpt lat="47.73435" lon="-3.36725">
        <ele>13.2</ele>
        <time>2021-08-14T13:31:30Z</time>
      </trkpt>
      <trkpt lat="47.73438" lon="-3.36721">
        <ele>13.2</ele>
        <time>2021-08-14T13:31:31Z</time>
      </trkpt>
      <trkpt lat="47.73443" lon="-3.36716">
        <ele>13.4</ele>
        <time>2021-08-14T13:31:33Z</time>
      </trkpt>
      <trkpt lat="47.73449" lon="-3.36712">
        <ele>13.4</ele>
        <time>2021-08-14T13:31:35Z</time>
      </trkpt>
      <trkpt lat="47.73452" lon="-3.3671">
        <ele>13.6</ele>
        <time>2021-08-14T13:31:36Z</time>
      </trkpt>
      <trkpt lat="47.73455" lon="-3.36708">
        <ele>13.6</ele>
        <time>2021-08-14T13:31:37Z</time>
      </trkpt>
      <trkpt lat="47.73458" lon="-3.36706">
        <ele>13.8</ele>
        <time>2021-08-14T13:31:38Z</time>
      </trkpt>
      <trkpt lat="47.73461" lon="-3.36704">
        <ele>13.8</ele>
        <time>2021-08-14T13:31:39Z</time>
      </trkpt>
      <trkpt lat="47.73464" lon="-3.36702">
        <ele>14.2</ele>
        <time>2021-08-14T13:31:40Z</time>
      </trkpt>
      <trkpt lat="47.73467" lon="-3.367">
        <ele>14.4</ele>
        <time>2021-08-14T13:31:41Z</time>
      </trkpt>
      <trkpt lat="47.73471" lon="-3.36699">
        <ele>14.4</ele>
        <time>2021-08-14T13:31:42Z</time>
      </trkpt>
      <trkpt lat="47.73474" lon="-3.36697">
        <ele>14.6</ele>
        <time>2021-08-14T13:31:43Z</time>
      </trkpt>
      <trkpt lat="47.73477" lon="-3.36694">
        <ele>14.6</ele>
        <time>2021-08-14T13:31:44Z</time>
      </trkpt>
      <trkpt lat="47.73481" lon="-3.36692">
        <ele>14.6</ele>
        <time>2021-08-14T13:31:45Z</time>
      </trkpt>
      <trkpt lat="47.73484" lon="-3.3669">
        <ele>14.6</ele>
        <time>2021-08-14T13:31:46Z</time>
      </trkpt>
      <trkpt lat="47.73491" lon="-3.36685">
        <ele>14.8</ele>
        <time>2021-08-14T13:31:48Z</time>
      </trkpt>
      <trkpt lat="47.73498" lon="-3.3668">
        <ele>15</ele>
        <time>2021-08-14T13:31:50Z</time>
      </trkpt>
      <trkpt lat="47.73504" lon="-3.36676">
        <ele>15</ele>
        <time>2021-08-14T13:31:52Z</time>
      </trkpt>
      <trkpt lat="47.73508" lon="-3.36673">
        <ele>15</ele>
        <time>2021-08-14T13:31:53Z</time>
      </trkpt>
      <trkpt lat="47.73511" lon="-3.36671">
        <ele>15.2</ele>
        <time>2021-08-14T13:31:54Z</time>
      </trkpt>
      <trkpt lat="47.73515" lon="-3.36669">
        <ele>15.4</ele>
        <time>2021-08-14T13:31:55Z</time>
      </trkpt>
      <trkpt lat="47.73518" lon="-3.36666">
        <ele>15.4</ele>
        <time>2021-08-14T13:31:56Z</time>
      </trkpt>
      <trkpt lat="47.73521" lon="-3.36664">
        <ele>15.4</ele>
        <time>2021-08-14T13:31:57Z</time>
      </trkpt>
      <trkpt lat="47.73524" lon="-3.36662">
        <ele>15.6</ele>
        <time>2021-08-14T13:31:58Z</time>
      </trkpt>
      <trkpt lat="47.73526" lon="-3.36661">
        <ele>15.8</ele>
        <time>2021-08-14T13:31:59Z</time>
      </trkpt>
      <trkpt lat="47.73529" lon="-3.36659">
        <ele>16</ele>
        <time>2021-08-14T13:32:00Z</time>
      </trkpt>
      <trkpt lat="47.73531" lon="-3.36657">
        <ele>16</ele>
        <time>2021-08-14T13:32:01Z</time>
      </trkpt>
      <trkpt lat="47.73532" lon="-3.36656">
        <ele>16.2</ele>
        <time>2021-08-14T13:32:02Z</time>
      </trkpt>
      <trkpt lat="47.73534" lon="-3.36655">
        <ele>16.2</ele>
        <time>2021-08-14T13:32:03Z</time>
      </trkpt>
      <trkpt lat="47.73535" lon="-3.36653">
        <ele>16.4</ele>
        <time>2021-08-14T13:32:04Z</time>
      </trkpt>
      <trkpt lat="47.73536" lon="-3.36652">
        <ele>16.6</ele>
        <time>2021-08-14T13:32:05Z</time>
      </trkpt>
      <trkpt lat="47.73537" lon="-3.36651">
        <ele>16.8</ele>
        <time>2021-08-14T13:32:07Z</time>
      </trkpt>
      <trkpt lat="47.73538" lon="-3.36649">
        <ele>17.6</ele>
        <time>2021-08-14T13:32:34Z</time>
      </trkpt>
      <trkpt lat="47.73539" lon="-3.36648">
        <ele>17.6</ele>
        <time>2021-08-14T13:32:35Z</time>
      </trkpt>
      <trkpt lat="47.73539" lon="-3.36646">
        <ele>17.4</ele>
        <time>2021-08-14T13:32:36Z</time>
      </trkpt>
      <trkpt lat="47.7354" lon="-3.36644">
        <ele>17.4</ele>
        <time>2021-08-14T13:32:37Z</time>
      </trkpt>
      <trkpt lat="47.73541" lon="-3.36642">
        <ele>17.4</ele>
        <time>2021-08-14T13:32:38Z</time>
      </trkpt>
      <trkpt lat="47.73542" lon="-3.36639">
        <ele>17.4</ele>
        <time>2021-08-14T13:32:39Z</time>
      </trkpt>
      <trkpt lat="47.73543" lon="-3.36636">
        <ele>17.4</ele>
        <time>2021-08-14T13:32:40Z</time>
      </trkpt>
      <trkpt lat="47.73544" lon="-3.36632">
        <ele>17.4</ele>
        <time>2021-08-14T13:32:41Z</time>
      </trkpt>
      <trkpt lat="47.73545" lon="-3.36628">
        <ele>17.4</ele>
        <time>2021-08-14T13:32:42Z</time>
      </trkpt>
      <trkpt lat="47.73547" lon="-3.36624">
        <ele>17.4</ele>
        <time>2021-08-14T13:32:43Z</time>
      </trkpt>
      <trkpt lat="47.73548" lon="-3.36621">
        <ele>17.4</ele>
        <time>2021-08-14T13:32:44Z</time>
      </trkpt>
      <trkpt lat="47.7355" lon="-3.36617">
        <ele>17.2</ele>
        <time>2021-08-14T13:32:45Z</time>
      </trkpt>
      <trkpt lat="47.73552" lon="-3.36613">
        <ele>17.2</ele>
        <time>2021-08-14T13:32:46Z</time>
      </trkpt>
      <trkpt lat="47.73553" lon="-3.36609">
        <ele>17.2</ele>
        <time>2021-08-14T13:32:47Z</time>
      </trkpt>
      <trkpt lat="47.73555" lon="-3.36605">
        <ele>17.2</ele>
        <time>2021-08-14T13:32:48Z</time>
      </trkpt>
      <trkpt lat="47.73556" lon="-3.366">
        <ele>17.2</ele>
        <time>2021-08-14T13:32:49Z</time>
      </trkpt>
      <trkpt lat="47.73558" lon="-3.36595">
        <ele>17.2</ele>
        <time>2021-08-14T13:32:50Z</time>
      </trkpt>
      <trkpt lat="47.7356" lon="-3.36589">
        <ele>17.2</ele>
        <time>2021-08-14T13:32:51Z</time>
      </trkpt>
      <trkpt lat="47.73562" lon="-3.36584">
        <ele>17.2</ele>
        <time>2021-08-14T13:32:52Z</time>
      </trkpt>
      <trkpt lat="47.73565" lon="-3.36578">
        <ele>17</ele>
        <time>2021-08-14T13:32:53Z</time>
      </trkpt>
      <trkpt lat="47.73567" lon="-3.36572">
        <ele>17</ele>
        <time>2021-08-14T13:32:54Z</time>
      </trkpt>
      <trkpt lat="47.73569" lon="-3.36566">
        <ele>17</ele>
        <time>2021-08-14T13:32:55Z</time>
      </trkpt>
      <trkpt lat="47.73572" lon="-3.36559">
        <ele>17</ele>
        <time>2021-08-14T13:32:56Z</time>
      </trkpt>
      <trkpt lat="47.73574" lon="-3.36552">
        <ele>17</ele>
        <time>2021-08-14T13:32:57Z</time>
      </trkpt>
      <trkpt lat="47.73576" lon="-3.36544">
        <ele>16.8</ele>
        <time>2021-08-14T13:32:58Z</time>
      </trkpt>
      <trkpt lat="47.73578" lon="-3.36536">
        <ele>16.4</ele>
        <time>2021-08-14T13:32:59Z</time>
      </trkpt>
      <trkpt lat="47.7358" lon="-3.36528">
        <ele>16.2</ele>
        <time>2021-08-14T13:33:00Z</time>
      </trkpt>
      <trkpt lat="47.73584" lon="-3.36521">
        <ele>15.8</ele>
        <time>2021-08-14T13:33:01Z</time>
      </trkpt>
      <trkpt lat="47.73588" lon="-3.36515">
        <ele>15.4</ele>
        <time>2021-08-14T13:33:02Z</time>
      </trkpt>
      <trkpt lat="47.73593" lon="-3.36511">
        <ele>15</ele>
        <time>2021-08-14T13:33:03Z</time>
      </trkpt>
      <trkpt lat="47.73599" lon="-3.36508">
        <ele>15</ele>
        <time>2021-08-14T13:33:04Z</time>
      </trkpt>
      <trkpt lat="47.73606" lon="-3.36508">
        <ele>14.6</ele>
        <time>2021-08-14T13:33:05Z</time>
      </trkpt>
      <trkpt lat="47.73612" lon="-3.36508">
        <ele>14.4</ele>
        <time>2021-08-14T13:33:06Z</time>
      </trkpt>
      <trkpt lat="47.73617" lon="-3.36507">
        <ele>14</ele>
        <time>2021-08-14T13:33:07Z</time>
      </trkpt>
      <trkpt lat="47.73623" lon="-3.36504">
        <ele>13.8</ele>
        <time>2021-08-14T13:33:08Z</time>
      </trkpt>
      <trkpt lat="47.73628" lon="-3.365">
        <ele>13.4</ele>
        <time>2021-08-14T13:33:09Z</time>
      </trkpt>
      <trkpt lat="47.73638" lon="-3.36489">
        <ele>13.2</ele>
        <time>2021-08-14T13:33:11Z</time>
      </trkpt>
      <trkpt lat="47.73642" lon="-3.36483">
        <ele>13</ele>
        <time>2021-08-14T13:33:12Z</time>
      </trkpt>
      <trkpt lat="47.73651" lon="-3.36471">
        <ele>12.8</ele>
        <time>2021-08-14T13:33:14Z</time>
      </trkpt>
      <trkpt lat="47.73655" lon="-3.36465">
        <ele>12.6</ele>
        <time>2021-08-14T13:33:15Z</time>
      </trkpt>
      <trkpt lat="47.7366" lon="-3.36459">
        <ele>12.6</ele>
        <time>2021-08-14T13:33:16Z</time>
      </trkpt>
      <trkpt lat="47.73664" lon="-3.36453">
        <ele>12.6</ele>
        <time>2021-08-14T13:33:17Z</time>
      </trkpt>
      <trkpt lat="47.73673" lon="-3.36442">
        <ele>12.6</ele>
        <time>2021-08-14T13:33:19Z</time>
      </trkpt>
      <trkpt lat="47.73678" lon="-3.36436">
        <ele>12.6</ele>
        <time>2021-08-14T13:33:20Z</time>
      </trkpt>
      <trkpt lat="47.73686" lon="-3.36425">
        <ele>12.6</ele>
        <time>2021-08-14T13:33:22Z</time>
      </trkpt>
      <trkpt lat="47.7369" lon="-3.3642">
        <ele>12.6</ele>
        <time>2021-08-14T13:33:23Z</time>
      </trkpt>
      <trkpt lat="47.73695" lon="-3.36414">
        <ele>12.6</ele>
        <time>2021-08-14T13:33:24Z</time>
      </trkpt>
      <trkpt lat="47.73699" lon="-3.36408">
        <ele>12.6</ele>
        <time>2021-08-14T13:33:25Z</time>
      </trkpt>
      <trkpt lat="47.73703" lon="-3.36402">
        <ele>12.6</ele>
        <time>2021-08-14T13:33:26Z</time>
      </trkpt>
      <trkpt lat="47.73712" lon="-3.3639">
        <ele>12.6</ele>
        <time>2021-08-14T13:33:28Z</time>
      </trkpt>
      <trkpt lat="47.73716" lon="-3.36384">
        <ele>12.6</ele>
        <time>2021-08-14T13:33:29Z</time>
      </trkpt>
      <trkpt lat="47.73725" lon="-3.36372">
        <ele>12.4</ele>
        <time>2021-08-14T13:33:31Z</time>
      </trkpt>
      <trkpt lat="47.73729" lon="-3.36366">
        <ele>12.4</ele>
        <time>2021-08-14T13:33:32Z</time>
      </trkpt>
      <trkpt lat="47.73737" lon="-3.36355">
        <ele>12.4</ele>
        <time>2021-08-14T13:33:34Z</time>
      </trkpt>
      <trkpt lat="47.73741" lon="-3.36349">
        <ele>12.4</ele>
        <time>2021-08-14T13:33:35Z</time>
      </trkpt>
      <trkpt lat="47.73746" lon="-3.36335">
        <ele>12.4</ele>
        <time>2021-08-14T13:33:37Z</time>
      </trkpt>
      <trkpt lat="47.73749" lon="-3.36329">
        <ele>12.4</ele>
        <time>2021-08-14T13:33:38Z</time>
      </trkpt>
      <trkpt lat="47.73751" lon="-3.36323">
        <ele>12.4</ele>
        <time>2021-08-14T13:33:39Z</time>
      </trkpt>
      <trkpt lat="47.73754" lon="-3.36316">
        <ele>12.4</ele>
        <time>2021-08-14T13:33:40Z</time>
      </trkpt>
      <trkpt lat="47.73755" lon="-3.3631">
        <ele>12.4</ele>
        <time>2021-08-14T13:33:41Z</time>
      </trkpt>
      <trkpt lat="47.73757" lon="-3.36303">
        <ele>12.4</ele>
        <time>2021-08-14T13:33:42Z</time>
      </trkpt>
      <trkpt lat="47.7376" lon="-3.36297">
        <ele>12.4</ele>
        <time>2021-08-14T13:33:43Z</time>
      </trkpt>
      <trkpt lat="47.73767" lon="-3.36287">
        <ele>12.6</ele>
        <time>2021-08-14T13:33:45Z</time>
      </trkpt>
      <trkpt lat="47.73772" lon="-3.36284">
        <ele>12.6</ele>
        <time>2021-08-14T13:33:46Z</time>
      </trkpt>
      <trkpt lat="47.73777" lon="-3.36284">
        <ele>12.8</ele>
        <time>2021-08-14T13:33:47Z</time>
      </trkpt>
      <trkpt lat="47.73782" lon="-3.36284">
        <ele>12.8</ele>
        <time>2021-08-14T13:33:48Z</time>
      </trkpt>
      <trkpt lat="47.73787" lon="-3.36283">
        <ele>12.8</ele>
        <time>2021-08-14T13:33:49Z</time>
      </trkpt>
      <trkpt lat="47.73792" lon="-3.36281">
        <ele>12.8</ele>
        <time>2021-08-14T13:33:50Z</time>
      </trkpt>
      <trkpt lat="47.73797" lon="-3.36278">
        <ele>12.8</ele>
        <time>2021-08-14T13:33:51Z</time>
      </trkpt>
      <trkpt lat="47.73802" lon="-3.36274">
        <ele>12.8</ele>
        <time>2021-08-14T13:33:52Z</time>
      </trkpt>
      <trkpt lat="47.73806" lon="-3.36269">
        <ele>12.8</ele>
        <time>2021-08-14T13:33:53Z</time>
      </trkpt>
      <trkpt lat="47.7381" lon="-3.36263">
        <ele>12.8</ele>
        <time>2021-08-14T13:33:54Z</time>
      </trkpt>
      <trkpt lat="47.73818" lon="-3.36253">
        <ele>12.8</ele>
        <time>2021-08-14T13:33:56Z</time>
      </trkpt>
      <trkpt lat="47.73826" lon="-3.36242">
        <ele>12.8</ele>
        <time>2021-08-14T13:33:58Z</time>
      </trkpt>
      <trkpt lat="47.7383" lon="-3.36237">
        <ele>12.6</ele>
        <time>2021-08-14T13:33:59Z</time>
      </trkpt>
      <trkpt lat="47.73834" lon="-3.36231">
        <ele>12.6</ele>
        <time>2021-08-14T13:34:00Z</time>
      </trkpt>
      <trkpt lat="47.73838" lon="-3.36226">
        <ele>12.4</ele>
        <time>2021-08-14T13:34:01Z</time>
      </trkpt>
      <trkpt lat="47.73842" lon="-3.36221">
        <ele>12.4</ele>
        <time>2021-08-14T13:34:02Z</time>
      </trkpt>
      <trkpt lat="47.73846" lon="-3.36216">
        <ele>12.2</ele>
        <time>2021-08-14T13:34:03Z</time>
      </trkpt>
      <trkpt lat="47.7385" lon="-3.3621">
        <ele>12.2</ele>
        <time>2021-08-14T13:34:04Z</time>
      </trkpt>
      <trkpt lat="47.73854" lon="-3.36205">
        <ele>12</ele>
        <time>2021-08-14T13:34:05Z</time>
      </trkpt>
      <trkpt lat="47.73859" lon="-3.36199">
        <ele>12</ele>
        <time>2021-08-14T13:34:06Z</time>
      </trkpt>
      <trkpt lat="47.73863" lon="-3.36194">
        <ele>12</ele>
        <time>2021-08-14T13:34:07Z</time>
      </trkpt>
      <trkpt lat="47.73867" lon="-3.36188">
        <ele>11.8</ele>
        <time>2021-08-14T13:34:08Z</time>
      </trkpt>
      <trkpt lat="47.73872" lon="-3.36182">
        <ele>11.8</ele>
        <time>2021-08-14T13:34:09Z</time>
      </trkpt>
      <trkpt lat="47.73876" lon="-3.36177">
        <ele>11.8</ele>
        <time>2021-08-14T13:34:10Z</time>
      </trkpt>
      <trkpt lat="47.7388" lon="-3.36171">
        <ele>11.8</ele>
        <time>2021-08-14T13:34:11Z</time>
      </trkpt>
      <trkpt lat="47.73885" lon="-3.36166">
        <ele>11.6</ele>
        <time>2021-08-14T13:34:12Z</time>
      </trkpt>
      <trkpt lat="47.73889" lon="-3.3616">
        <ele>11.6</ele>
        <time>2021-08-14T13:34:13Z</time>
      </trkpt>
      <trkpt lat="47.73896" lon="-3.36149">
        <ele>11.4</ele>
        <time>2021-08-14T13:34:15Z</time>
      </trkpt>
      <trkpt lat="47.739" lon="-3.36144">
        <ele>11</ele>
        <time>2021-08-14T13:34:16Z</time>
      </trkpt>
      <trkpt lat="47.73904" lon="-3.36138">
        <ele>11</ele>
        <time>2021-08-14T13:34:17Z</time>
      </trkpt>
      <trkpt lat="47.73913" lon="-3.36127">
        <ele>11</ele>
        <time>2021-08-14T13:34:19Z</time>
      </trkpt>
      <trkpt lat="47.73917" lon="-3.36122">
        <ele>10.8</ele>
        <time>2021-08-14T13:34:20Z</time>
      </trkpt>
      <trkpt lat="47.73922" lon="-3.36116">
        <ele>10.8</ele>
        <time>2021-08-14T13:34:21Z</time>
      </trkpt>
      <trkpt lat="47.73926" lon="-3.36111">
        <ele>10.6</ele>
        <time>2021-08-14T13:34:22Z</time>
      </trkpt>
      <trkpt lat="47.73931" lon="-3.36105">
        <ele>10.6</ele>
        <time>2021-08-14T13:34:23Z</time>
      </trkpt>
      <trkpt lat="47.73935" lon="-3.361">
        <ele>10.6</ele>
        <time>2021-08-14T13:34:24Z</time>
      </trkpt>
      <trkpt lat="47.7394" lon="-3.36095">
        <ele>10.8</ele>
        <time>2021-08-14T13:34:25Z</time>
      </trkpt>
      <trkpt lat="47.73945" lon="-3.36091">
        <ele>11</ele>
        <time>2021-08-14T13:34:26Z</time>
      </trkpt>
      <trkpt lat="47.7395" lon="-3.36087">
        <ele>11</ele>
        <time>2021-08-14T13:34:27Z</time>
      </trkpt>
      <trkpt lat="47.73955" lon="-3.36083">
        <ele>11</ele>
        <time>2021-08-14T13:34:28Z</time>
      </trkpt>
      <trkpt lat="47.7396" lon="-3.36079">
        <ele>11</ele>
        <time>2021-08-14T13:34:29Z</time>
      </trkpt>
      <trkpt lat="47.73965" lon="-3.36076">
        <ele>11.2</ele>
        <time>2021-08-14T13:34:30Z</time>
      </trkpt>
      <trkpt lat="47.7397" lon="-3.36073">
        <ele>11.2</ele>
        <time>2021-08-14T13:34:31Z</time>
      </trkpt>
      <trkpt lat="47.73975" lon="-3.36071">
        <ele>11.2</ele>
        <time>2021-08-14T13:34:32Z</time>
      </trkpt>
      <trkpt lat="47.73981" lon="-3.36068">
        <ele>11.4</ele>
        <time>2021-08-14T13:34:33Z</time>
      </trkpt>
      <trkpt lat="47.73986" lon="-3.36066">
        <ele>11.6</ele>
        <time>2021-08-14T13:34:34Z</time>
      </trkpt>
      <trkpt lat="47.73991" lon="-3.36064">
        <ele>11.8</ele>
        <time>2021-08-14T13:34:35Z</time>
      </trkpt>
      <trkpt lat="47.73996" lon="-3.36062">
        <ele>11.8</ele>
        <time>2021-08-14T13:34:36Z</time>
      </trkpt>
      <trkpt lat="47.74001" lon="-3.3606">
        <ele>11.8</ele>
        <time>2021-08-14T13:34:37Z</time>
      </trkpt>
      <trkpt lat="47.74007" lon="-3.36057">
        <ele>11.8</ele>
        <time>2021-08-14T13:34:38Z</time>
      </trkpt>
      <trkpt lat="47.74012" lon="-3.36054">
        <ele>12</ele>
        <time>2021-08-14T13:34:39Z</time>
      </trkpt>
      <trkpt lat="47.74018" lon="-3.36052">
        <ele>12</ele>
        <time>2021-08-14T13:34:40Z</time>
      </trkpt>
      <trkpt lat="47.74023" lon="-3.36048">
        <ele>12.2</ele>
        <time>2021-08-14T13:34:41Z</time>
      </trkpt>
      <trkpt lat="47.74028" lon="-3.36045">
        <ele>12.4</ele>
        <time>2021-08-14T13:34:42Z</time>
      </trkpt>
      <trkpt lat="47.74033" lon="-3.36041">
        <ele>12.6</ele>
        <time>2021-08-14T13:34:43Z</time>
      </trkpt>
      <trkpt lat="47.74038" lon="-3.36037">
        <ele>12.6</ele>
        <time>2021-08-14T13:34:44Z</time>
      </trkpt>
      <trkpt lat="47.74042" lon="-3.36032">
        <ele>12.8</ele>
        <time>2021-08-14T13:34:45Z</time>
      </trkpt>
      <trkpt lat="47.74047" lon="-3.36027">
        <ele>12.8</ele>
        <time>2021-08-14T13:34:46Z</time>
      </trkpt>
      <trkpt lat="47.74051" lon="-3.36022">
        <ele>12.8</ele>
        <time>2021-08-14T13:34:47Z</time>
      </trkpt>
      <trkpt lat="47.74055" lon="-3.36017">
        <ele>12.8</ele>
        <time>2021-08-14T13:34:48Z</time>
      </trkpt>
      <trkpt lat="47.74058" lon="-3.36011">
        <ele>12.8</ele>
        <time>2021-08-14T13:34:49Z</time>
      </trkpt>
      <trkpt lat="47.74062" lon="-3.36006">
        <ele>12.8</ele>
        <time>2021-08-14T13:34:50Z</time>
      </trkpt>
      <trkpt lat="47.74065" lon="-3.36">
        <ele>12.8</ele>
        <time>2021-08-14T13:34:51Z</time>
      </trkpt>
      <trkpt lat="47.74068" lon="-3.35994">
        <ele>12.8</ele>
        <time>2021-08-14T13:34:52Z</time>
      </trkpt>
      <trkpt lat="47.74071" lon="-3.35989">
        <ele>12.8</ele>
        <time>2021-08-14T13:34:53Z</time>
      </trkpt>
      <trkpt lat="47.74073" lon="-3.35983">
        <ele>12.8</ele>
        <time>2021-08-14T13:34:54Z</time>
      </trkpt>
      <trkpt lat="47.74074" lon="-3.35977">
        <ele>12.8</ele>
        <time>2021-08-14T13:34:55Z</time>
      </trkpt>
      <trkpt lat="47.74075" lon="-3.35972">
        <ele>12.6</ele>
        <time>2021-08-14T13:34:56Z</time>
      </trkpt>
      <trkpt lat="47.74076" lon="-3.35966">
        <ele>12.6</ele>
        <time>2021-08-14T13:34:57Z</time>
      </trkpt>
      <trkpt lat="47.74078" lon="-3.35961">
        <ele>12.6</ele>
        <time>2021-08-14T13:34:58Z</time>
      </trkpt>
      <trkpt lat="47.74079" lon="-3.35955">
        <ele>12.6</ele>
        <time>2021-08-14T13:34:59Z</time>
      </trkpt>
      <trkpt lat="47.74081" lon="-3.3595">
        <ele>12.6</ele>
        <time>2021-08-14T13:35:00Z</time>
      </trkpt>
      <trkpt lat="47.74082" lon="-3.35945">
        <ele>12.6</ele>
        <time>2021-08-14T13:35:01Z</time>
      </trkpt>
      <trkpt lat="47.74084" lon="-3.35939">
        <ele>12.6</ele>
        <time>2021-08-14T13:35:02Z</time>
      </trkpt>
      <trkpt lat="47.74085" lon="-3.35933">
        <ele>12.6</ele>
        <time>2021-08-14T13:35:03Z</time>
      </trkpt>
      <trkpt lat="47.74086" lon="-3.35928">
        <ele>12.6</ele>
        <time>2021-08-14T13:35:04Z</time>
      </trkpt>
      <trkpt lat="47.74088" lon="-3.35922">
        <ele>12.6</ele>
        <time>2021-08-14T13:35:05Z</time>
      </trkpt>
      <trkpt lat="47.7409" lon="-3.35916">
        <ele>12.6</ele>
        <time>2021-08-14T13:35:06Z</time>
      </trkpt>
      <trkpt lat="47.74092" lon="-3.3591">
        <ele>12.6</ele>
        <time>2021-08-14T13:35:07Z</time>
      </trkpt>
      <trkpt lat="47.74093" lon="-3.35905">
        <ele>12.6</ele>
        <time>2021-08-14T13:35:08Z</time>
      </trkpt>
      <trkpt lat="47.74095" lon="-3.35899">
        <ele>12.6</ele>
        <time>2021-08-14T13:35:09Z</time>
      </trkpt>
      <trkpt lat="47.74097" lon="-3.35893">
        <ele>12.6</ele>
        <time>2021-08-14T13:35:10Z</time>
      </trkpt>
      <trkpt lat="47.74099" lon="-3.35887">
        <ele>12.6</ele>
        <time>2021-08-14T13:35:11Z</time>
      </trkpt>
      <trkpt lat="47.74102" lon="-3.3588">
        <ele>12.6</ele>
        <time>2021-08-14T13:35:12Z</time>
      </trkpt>
      <trkpt lat="47.74104" lon="-3.35874">
        <ele>12.6</ele>
        <time>2021-08-14T13:35:13Z</time>
      </trkpt>
      <trkpt lat="47.74106" lon="-3.35868">
        <ele>12.6</ele>
        <time>2021-08-14T13:35:14Z</time>
      </trkpt>
      <trkpt lat="47.74109" lon="-3.35862">
        <ele>12.6</ele>
        <time>2021-08-14T13:35:15Z</time>
      </trkpt>
      <trkpt lat="47.74111" lon="-3.35856">
        <ele>12.6</ele>
        <time>2021-08-14T13:35:16Z</time>
      </trkpt>
      <trkpt lat="47.74114" lon="-3.35849">
        <ele>12.6</ele>
        <time>2021-08-14T13:35:17Z</time>
      </trkpt>
      <trkpt lat="47.74116" lon="-3.35843">
        <ele>12.2</ele>
        <time>2021-08-14T13:35:18Z</time>
      </trkpt>
      <trkpt lat="47.74118" lon="-3.35837">
        <ele>12.2</ele>
        <time>2021-08-14T13:35:19Z</time>
      </trkpt>
      <trkpt lat="47.74119" lon="-3.3583">
        <ele>12.2</ele>
        <time>2021-08-14T13:35:20Z</time>
      </trkpt>
      <trkpt lat="47.74119" lon="-3.35823">
        <ele>12</ele>
        <time>2021-08-14T13:35:21Z</time>
      </trkpt>
      <trkpt lat="47.74119" lon="-3.35817">
        <ele>12</ele>
        <time>2021-08-14T13:35:22Z</time>
      </trkpt>
      <trkpt lat="47.7412" lon="-3.3581">
        <ele>11.8</ele>
        <time>2021-08-14T13:35:23Z</time>
      </trkpt>
      <trkpt lat="47.74121" lon="-3.35803">
        <ele>11.8</ele>
        <time>2021-08-14T13:35:24Z</time>
      </trkpt>
      <trkpt lat="47.74122" lon="-3.35796">
        <ele>11.8</ele>
        <time>2021-08-14T13:35:25Z</time>
      </trkpt>
      <trkpt lat="47.74125" lon="-3.35789">
        <ele>11.8</ele>
        <time>2021-08-14T13:35:26Z</time>
      </trkpt>
      <trkpt lat="47.74128" lon="-3.35784">
        <ele>11.8</ele>
        <time>2021-08-14T13:35:27Z</time>
      </trkpt>
      <trkpt lat="47.74132" lon="-3.3578">
        <ele>11.8</ele>
        <time>2021-08-14T13:35:28Z</time>
      </trkpt>
      <trkpt lat="47.74136" lon="-3.35777">
        <ele>11.8</ele>
        <time>2021-08-14T13:35:29Z</time>
      </trkpt>
      <trkpt lat="47.74141" lon="-3.35775">
        <ele>11.8</ele>
        <time>2021-08-14T13:35:30Z</time>
      </trkpt>
      <trkpt lat="47.74145" lon="-3.35774">
        <ele>11.8</ele>
        <time>2021-08-14T13:35:31Z</time>
      </trkpt>
      <trkpt lat="47.7415" lon="-3.35775">
        <ele>11.6</ele>
        <time>2021-08-14T13:35:32Z</time>
      </trkpt>
      <trkpt lat="47.74155" lon="-3.35778">
        <ele>11.6</ele>
        <time>2021-08-14T13:35:33Z</time>
      </trkpt>
      <trkpt lat="47.74159" lon="-3.35782">
        <ele>11.6</ele>
        <time>2021-08-14T13:35:34Z</time>
      </trkpt>
      <trkpt lat="47.74163" lon="-3.35787">
        <ele>11.6</ele>
        <time>2021-08-14T13:35:35Z</time>
      </trkpt>
      <trkpt lat="47.74166" lon="-3.35793">
        <ele>11.6</ele>
        <time>2021-08-14T13:35:36Z</time>
      </trkpt>
      <trkpt lat="47.7417" lon="-3.35806">
        <ele>11.4</ele>
        <time>2021-08-14T13:35:38Z</time>
      </trkpt>
      <trkpt lat="47.74171" lon="-3.35813">
        <ele>11.4</ele>
        <time>2021-08-14T13:35:39Z</time>
      </trkpt>
      <trkpt lat="47.74173" lon="-3.35819">
        <ele>11.4</ele>
        <time>2021-08-14T13:35:40Z</time>
      </trkpt>
      <trkpt lat="47.74176" lon="-3.35824">
        <ele>11.4</ele>
        <time>2021-08-14T13:35:41Z</time>
      </trkpt>
      <trkpt lat="47.74179" lon="-3.35828">
        <ele>11.4</ele>
        <time>2021-08-14T13:35:42Z</time>
      </trkpt>
      <trkpt lat="47.74184" lon="-3.35831">
        <ele>11.4</ele>
        <time>2021-08-14T13:35:43Z</time>
      </trkpt>
      <trkpt lat="47.74188" lon="-3.35833">
        <ele>11.4</ele>
        <time>2021-08-14T13:35:44Z</time>
      </trkpt>
      <trkpt lat="47.74193" lon="-3.35834">
        <ele>11.4</ele>
        <time>2021-08-14T13:35:45Z</time>
      </trkpt>
      <trkpt lat="47.74198" lon="-3.35834">
        <ele>11.2</ele>
        <time>2021-08-14T13:35:46Z</time>
      </trkpt>
      <trkpt lat="47.74202" lon="-3.35833">
        <ele>11.2</ele>
        <time>2021-08-14T13:35:47Z</time>
      </trkpt>
      <trkpt lat="47.74207" lon="-3.35831">
        <ele>11.2</ele>
        <time>2021-08-14T13:35:48Z</time>
      </trkpt>
      <trkpt lat="47.74212" lon="-3.35828">
        <ele>11</ele>
        <time>2021-08-14T13:35:49Z</time>
      </trkpt>
      <trkpt lat="47.74216" lon="-3.35824">
        <ele>11</ele>
        <time>2021-08-14T13:35:50Z</time>
      </trkpt>
      <trkpt lat="47.7422" lon="-3.35821">
        <ele>11</ele>
        <time>2021-08-14T13:35:51Z</time>
      </trkpt>
      <trkpt lat="47.74225" lon="-3.35818">
        <ele>11</ele>
        <time>2021-08-14T13:35:52Z</time>
      </trkpt>
      <trkpt lat="47.7423" lon="-3.35814">
        <ele>11</ele>
        <time>2021-08-14T13:35:53Z</time>
      </trkpt>
      <trkpt lat="47.74234" lon="-3.35811">
        <ele>10.8</ele>
        <time>2021-08-14T13:35:54Z</time>
      </trkpt>
      <trkpt lat="47.74238" lon="-3.35808">
        <ele>10.8</ele>
        <time>2021-08-14T13:35:55Z</time>
      </trkpt>
      <trkpt lat="47.74242" lon="-3.35804">
        <ele>10.8</ele>
        <time>2021-08-14T13:35:56Z</time>
      </trkpt>
      <trkpt lat="47.74246" lon="-3.358">
        <ele>10.8</ele>
        <time>2021-08-14T13:35:57Z</time>
      </trkpt>
      <trkpt lat="47.7425" lon="-3.35796">
        <ele>10.8</ele>
        <time>2021-08-14T13:35:58Z</time>
      </trkpt>
      <trkpt lat="47.74255" lon="-3.35792">
        <ele>10.8</ele>
        <time>2021-08-14T13:35:59Z</time>
      </trkpt>
      <trkpt lat="47.74259" lon="-3.35789">
        <ele>10.8</ele>
        <time>2021-08-14T13:36:00Z</time>
      </trkpt>
      <trkpt lat="47.74263" lon="-3.35785">
        <ele>10.8</ele>
        <time>2021-08-14T13:36:01Z</time>
      </trkpt>
      <trkpt lat="47.74268" lon="-3.35781">
        <ele>10.8</ele>
        <time>2021-08-14T13:36:02Z</time>
      </trkpt>
      <trkpt lat="47.74273" lon="-3.35777">
        <ele>10.8</ele>
        <time>2021-08-14T13:36:03Z</time>
      </trkpt>
      <trkpt lat="47.74277" lon="-3.35773">
        <ele>10.8</ele>
        <time>2021-08-14T13:36:04Z</time>
      </trkpt>
      <trkpt lat="47.74282" lon="-3.3577">
        <ele>10.8</ele>
        <time>2021-08-14T13:36:05Z</time>
      </trkpt>
      <trkpt lat="47.74287" lon="-3.35766">
        <ele>10.8</ele>
        <time>2021-08-14T13:36:06Z</time>
      </trkpt>
      <trkpt lat="47.74292" lon="-3.35762">
        <ele>10.8</ele>
        <time>2021-08-14T13:36:07Z</time>
      </trkpt>
      <trkpt lat="47.74296" lon="-3.35758">
        <ele>10.8</ele>
        <time>2021-08-14T13:36:08Z</time>
      </trkpt>
      <trkpt lat="47.74301" lon="-3.35755">
        <ele>10.8</ele>
        <time>2021-08-14T13:36:09Z</time>
      </trkpt>
      <trkpt lat="47.74305" lon="-3.35751">
        <ele>10.8</ele>
        <time>2021-08-14T13:36:10Z</time>
      </trkpt>
      <trkpt lat="47.74309" lon="-3.35748">
        <ele>10.8</ele>
        <time>2021-08-14T13:36:11Z</time>
      </trkpt>
      <trkpt lat="47.74313" lon="-3.35744">
        <ele>10.8</ele>
        <time>2021-08-14T13:36:12Z</time>
      </trkpt>
      <trkpt lat="47.74317" lon="-3.35741">
        <ele>10.8</ele>
        <time>2021-08-14T13:36:13Z</time>
      </trkpt>
      <trkpt lat="47.74321" lon="-3.35737">
        <ele>10.8</ele>
        <time>2021-08-14T13:36:14Z</time>
      </trkpt>
      <trkpt lat="47.74325" lon="-3.35734">
        <ele>10.8</ele>
        <time>2021-08-14T13:36:15Z</time>
      </trkpt>
      <trkpt lat="47.74328" lon="-3.35731">
        <ele>10.8</ele>
        <time>2021-08-14T13:36:16Z</time>
      </trkpt>
      <trkpt lat="47.74332" lon="-3.35729">
        <ele>11</ele>
        <time>2021-08-14T13:36:17Z</time>
      </trkpt>
      <trkpt lat="47.74336" lon="-3.35728">
        <ele>11</ele>
        <time>2021-08-14T13:36:18Z</time>
      </trkpt>
      <trkpt lat="47.74339" lon="-3.3573">
        <ele>11</ele>
        <time>2021-08-14T13:36:19Z</time>
      </trkpt>
      <trkpt lat="47.74341" lon="-3.35732">
        <ele>11</ele>
        <time>2021-08-14T13:36:20Z</time>
      </trkpt>
      <trkpt lat="47.74344" lon="-3.35736">
        <ele>11</ele>
        <time>2021-08-14T13:36:21Z</time>
      </trkpt>
      <trkpt lat="47.74346" lon="-3.3574">
        <ele>11.2</ele>
        <time>2021-08-14T13:36:22Z</time>
      </trkpt>
      <trkpt lat="47.74348" lon="-3.35744">
        <ele>11.4</ele>
        <time>2021-08-14T13:36:23Z</time>
      </trkpt>
      <trkpt lat="47.7435" lon="-3.35748">
        <ele>11.4</ele>
        <time>2021-08-14T13:36:24Z</time>
      </trkpt>
      <trkpt lat="47.74351" lon="-3.35753">
        <ele>11.6</ele>
        <time>2021-08-14T13:36:25Z</time>
      </trkpt>
      <trkpt lat="47.74353" lon="-3.35757">
        <ele>11.6</ele>
        <time>2021-08-14T13:36:26Z</time>
      </trkpt>
      <trkpt lat="47.74353" lon="-3.35762">
        <ele>11.6</ele>
        <time>2021-08-14T13:36:27Z</time>
      </trkpt>
      <trkpt lat="47.74355" lon="-3.35766">
        <ele>11.6</ele>
        <time>2021-08-14T13:36:28Z</time>
      </trkpt>
      <trkpt lat="47.74356" lon="-3.35771">
        <ele>11.6</ele>
        <time>2021-08-14T13:36:29Z</time>
      </trkpt>
      <trkpt lat="47.74358" lon="-3.35775">
        <ele>11.6</ele>
        <time>2021-08-14T13:36:30Z</time>
      </trkpt>
      <trkpt lat="47.7436" lon="-3.35779">
        <ele>11.6</ele>
        <time>2021-08-14T13:36:31Z</time>
      </trkpt>
      <trkpt lat="47.74361" lon="-3.35784">
        <ele>11.6</ele>
        <time>2021-08-14T13:36:32Z</time>
      </trkpt>
      <trkpt lat="47.74363" lon="-3.35789">
        <ele>11.6</ele>
        <time>2021-08-14T13:36:33Z</time>
      </trkpt>
      <trkpt lat="47.74365" lon="-3.35793">
        <ele>11.4</ele>
        <time>2021-08-14T13:36:34Z</time>
      </trkpt>
      <trkpt lat="47.74368" lon="-3.35798">
        <ele>11.4</ele>
        <time>2021-08-14T13:36:35Z</time>
      </trkpt>
      <trkpt lat="47.74371" lon="-3.35802">
        <ele>11.4</ele>
        <time>2021-08-14T13:36:36Z</time>
      </trkpt>
      <trkpt lat="47.74374" lon="-3.35807">
        <ele>11.2</ele>
        <time>2021-08-14T13:36:37Z</time>
      </trkpt>
      <trkpt lat="47.74376" lon="-3.35811">
        <ele>11.2</ele>
        <time>2021-08-14T13:36:38Z</time>
      </trkpt>
      <trkpt lat="47.74377" lon="-3.35815">
        <ele>11.2</ele>
        <time>2021-08-14T13:36:39Z</time>
      </trkpt>
      <trkpt lat="47.74379" lon="-3.35819">
        <ele>11.2</ele>
        <time>2021-08-14T13:36:40Z</time>
      </trkpt>
      <trkpt lat="47.74381" lon="-3.35824">
        <ele>11.2</ele>
        <time>2021-08-14T13:36:41Z</time>
      </trkpt>
      <trkpt lat="47.74382" lon="-3.35827">
        <ele>11.2</ele>
        <time>2021-08-14T13:36:42Z</time>
      </trkpt>
      <trkpt lat="47.74384" lon="-3.35831">
        <ele>11.2</ele>
        <time>2021-08-14T13:36:43Z</time>
      </trkpt>
      <trkpt lat="47.74385" lon="-3.35835">
        <ele>11.2</ele>
        <time>2021-08-14T13:36:44Z</time>
      </trkpt>
      <trkpt lat="47.74386" lon="-3.3584">
        <ele>11.2</ele>
        <time>2021-08-14T13:36:45Z</time>
      </trkpt>
      <trkpt lat="47.74388" lon="-3.35843">
        <ele>11.2</ele>
        <time>2021-08-14T13:36:46Z</time>
      </trkpt>
      <trkpt lat="47.74389" lon="-3.35847">
        <ele>11.2</ele>
        <time>2021-08-14T13:36:47Z</time>
      </trkpt>
      <trkpt lat="47.7439" lon="-3.35851">
        <ele>11.2</ele>
        <time>2021-08-14T13:36:48Z</time>
      </trkpt>
      <trkpt lat="47.74391" lon="-3.35855">
        <ele>11.2</ele>
        <time>2021-08-14T13:36:49Z</time>
      </trkpt>
      <trkpt lat="47.74393" lon="-3.35858">
        <ele>11.4</ele>
        <time>2021-08-14T13:36:50Z</time>
      </trkpt>
      <trkpt lat="47.74395" lon="-3.35861">
        <ele>11.4</ele>
        <time>2021-08-14T13:36:51Z</time>
      </trkpt>
      <trkpt lat="47.74396" lon="-3.35865">
        <ele>11.4</ele>
        <time>2021-08-14T13:36:52Z</time>
      </trkpt>
      <trkpt lat="47.74397" lon="-3.35868">
        <ele>11.6</ele>
        <time>2021-08-14T13:36:53Z</time>
      </trkpt>
      <trkpt lat="47.74399" lon="-3.35873">
        <ele>11.6</ele>
        <time>2021-08-14T13:36:54Z</time>
      </trkpt>
      <trkpt lat="47.744" lon="-3.35877">
        <ele>11.6</ele>
        <time>2021-08-14T13:36:55Z</time>
      </trkpt>
      <trkpt lat="47.74402" lon="-3.35881">
        <ele>11.6</ele>
        <time>2021-08-14T13:36:56Z</time>
      </trkpt>
      <trkpt lat="47.74403" lon="-3.35886">
        <ele>11.6</ele>
        <time>2021-08-14T13:36:57Z</time>
      </trkpt>
      <trkpt lat="47.74405" lon="-3.35891">
        <ele>11.6</ele>
        <time>2021-08-14T13:36:58Z</time>
      </trkpt>
      <trkpt lat="47.74405" lon="-3.35895">
        <ele>11.6</ele>
        <time>2021-08-14T13:36:59Z</time>
      </trkpt>
      <trkpt lat="47.74405" lon="-3.35899">
        <ele>11.6</ele>
        <time>2021-08-14T13:37:00Z</time>
      </trkpt>
      <trkpt lat="47.74406" lon="-3.35904">
        <ele>11.6</ele>
        <time>2021-08-14T13:37:01Z</time>
      </trkpt>
      <trkpt lat="47.74407" lon="-3.35909">
        <ele>11.6</ele>
        <time>2021-08-14T13:37:02Z</time>
      </trkpt>
      <trkpt lat="47.74408" lon="-3.35913">
        <ele>11.4</ele>
        <time>2021-08-14T13:37:03Z</time>
      </trkpt>
      <trkpt lat="47.74409" lon="-3.35917">
        <ele>11.4</ele>
        <time>2021-08-14T13:37:04Z</time>
      </trkpt>
      <trkpt lat="47.74411" lon="-3.35921">
        <ele>11.4</ele>
        <time>2021-08-14T13:37:05Z</time>
      </trkpt>
      <trkpt lat="47.74413" lon="-3.35924">
        <ele>11.4</ele>
        <time>2021-08-14T13:37:06Z</time>
      </trkpt>
      <trkpt lat="47.74414" lon="-3.35926">
        <ele>11.4</ele>
        <time>2021-08-14T13:37:07Z</time>
      </trkpt>
      <trkpt lat="47.74416" lon="-3.35929">
        <ele>11.4</ele>
        <time>2021-08-14T13:37:08Z</time>
      </trkpt>
      <trkpt lat="47.74418" lon="-3.3593">
        <ele>11.4</ele>
        <time>2021-08-14T13:37:09Z</time>
      </trkpt>
      <trkpt lat="47.74421" lon="-3.35931">
        <ele>11.4</ele>
        <time>2021-08-14T13:37:10Z</time>
      </trkpt>
      <trkpt lat="47.74425" lon="-3.3593">
        <ele>11.4</ele>
        <time>2021-08-14T13:37:11Z</time>
      </trkpt>
      <trkpt lat="47.74428" lon="-3.35928">
        <ele>11.4</ele>
        <time>2021-08-14T13:37:12Z</time>
      </trkpt>
      <trkpt lat="47.74431" lon="-3.35926">
        <ele>11.4</ele>
        <time>2021-08-14T13:37:13Z</time>
      </trkpt>
      <trkpt lat="47.74434" lon="-3.35924">
        <ele>11.4</ele>
        <time>2021-08-14T13:37:14Z</time>
      </trkpt>
      <trkpt lat="47.74437" lon="-3.35922">
        <ele>11.4</ele>
        <time>2021-08-14T13:37:15Z</time>
      </trkpt>
      <trkpt lat="47.74439" lon="-3.35919">
        <ele>11.4</ele>
        <time>2021-08-14T13:37:16Z</time>
      </trkpt>
      <trkpt lat="47.74443" lon="-3.35917">
        <ele>11.4</ele>
        <time>2021-08-14T13:37:17Z</time>
      </trkpt>
      <trkpt lat="47.74446" lon="-3.35914">
        <ele>11.4</ele>
        <time>2021-08-14T13:37:18Z</time>
      </trkpt>
      <trkpt lat="47.74449" lon="-3.35911">
        <ele>11.4</ele>
        <time>2021-08-14T13:37:19Z</time>
      </trkpt>
      <trkpt lat="47.74453" lon="-3.35909">
        <ele>11.4</ele>
        <time>2021-08-14T13:37:20Z</time>
      </trkpt>
      <trkpt lat="47.74456" lon="-3.35907">
        <ele>11.6</ele>
        <time>2021-08-14T13:37:21Z</time>
      </trkpt>
      <trkpt lat="47.74459" lon="-3.35904">
        <ele>11.6</ele>
        <time>2021-08-14T13:37:22Z</time>
      </trkpt>
      <trkpt lat="47.74462" lon="-3.35902">
        <ele>11.6</ele>
        <time>2021-08-14T13:37:23Z</time>
      </trkpt>
      <trkpt lat="47.74465" lon="-3.35899">
        <ele>11.6</ele>
        <time>2021-08-14T13:37:24Z</time>
      </trkpt>
      <trkpt lat="47.74468" lon="-3.35897">
        <ele>11.6</ele>
        <time>2021-08-14T13:37:25Z</time>
      </trkpt>
      <trkpt lat="47.74471" lon="-3.35894">
        <ele>11.6</ele>
        <time>2021-08-14T13:37:26Z</time>
      </trkpt>
      <trkpt lat="47.74473" lon="-3.35891">
        <ele>11.6</ele>
        <time>2021-08-14T13:37:27Z</time>
      </trkpt>
      <trkpt lat="47.74477" lon="-3.35888">
        <ele>11.6</ele>
        <time>2021-08-14T13:37:28Z</time>
      </trkpt>
      <trkpt lat="47.7448" lon="-3.35886">
        <ele>11.8</ele>
        <time>2021-08-14T13:37:29Z</time>
      </trkpt>
      <trkpt lat="47.74484" lon="-3.35883">
        <ele>11.8</ele>
        <time>2021-08-14T13:37:30Z</time>
      </trkpt>
      <trkpt lat="47.74487" lon="-3.35879">
        <ele>11.8</ele>
        <time>2021-08-14T13:37:31Z</time>
      </trkpt>
      <trkpt lat="47.7449" lon="-3.35877">
        <ele>11.8</ele>
        <time>2021-08-14T13:37:32Z</time>
      </trkpt>
      <trkpt lat="47.74493" lon="-3.35874">
        <ele>11.8</ele>
        <time>2021-08-14T13:37:33Z</time>
      </trkpt>
      <trkpt lat="47.74494" lon="-3.35873">
        <ele>11.8</ele>
        <time>2021-08-14T13:37:34Z</time>
      </trkpt>
      <trkpt lat="47.74495" lon="-3.35871">
        <ele>11.8</ele>
        <time>2021-08-14T13:37:35Z</time>
      </trkpt>
      <trkpt lat="47.74496" lon="-3.3587">
        <ele>12</ele>
        <time>2021-08-14T13:37:36Z</time>
      </trkpt>
      <trkpt lat="47.74498" lon="-3.35869">
        <ele>12.2</ele>
        <time>2021-08-14T13:37:38Z</time>
      </trkpt>
      <trkpt lat="47.74499" lon="-3.35868">
        <ele>12</ele>
        <time>2021-08-14T13:37:39Z</time>
      </trkpt>
      <trkpt lat="47.745" lon="-3.35866">
        <ele>12</ele>
        <time>2021-08-14T13:37:40Z</time>
      </trkpt>
      <trkpt lat="47.745" lon="-3.3586">
        <ele>12</ele>
        <time>2021-08-14T13:37:42Z</time>
      </trkpt>
      <trkpt lat="47.74499" lon="-3.35858">
        <ele>12</ele>
        <time>2021-08-14T13:37:43Z</time>
      </trkpt>
      <trkpt lat="47.74499" lon="-3.35856">
        <ele>12</ele>
        <time>2021-08-14T13:37:44Z</time>
      </trkpt>
      <trkpt lat="47.74498" lon="-3.35853">
        <ele>12</ele>
        <time>2021-08-14T13:37:45Z</time>
      </trkpt>
      <trkpt lat="47.74498" lon="-3.35851">
        <ele>11.8</ele>
        <time>2021-08-14T13:37:46Z</time>
      </trkpt>
      <trkpt lat="47.74498" lon="-3.35849">
        <ele>11.8</ele>
        <time>2021-08-14T13:37:47Z</time>
      </trkpt>
      <trkpt lat="47.74498" lon="-3.35847">
        <ele>11.8</ele>
        <time>2021-08-14T13:37:48Z</time>
      </trkpt>
      <trkpt lat="47.74499" lon="-3.35846">
        <ele>11.8</ele>
        <time>2021-08-14T13:37:49Z</time>
      </trkpt>
      <trkpt lat="47.74499" lon="-3.35845">
        <ele>11.8</ele>
        <time>2021-08-14T13:37:50Z</time>
      </trkpt>
      <trkpt lat="47.745" lon="-3.35844">
        <ele>11.8</ele>
        <time>2021-08-14T13:37:51Z</time>
      </trkpt>
      <trkpt lat="47.74501" lon="-3.35842">
        <ele>11.8</ele>
        <time>2021-08-14T13:37:52Z</time>
      </trkpt>
      <trkpt lat="47.74502" lon="-3.35841">
        <ele>11.8</ele>
        <time>2021-08-14T13:37:53Z</time>
      </trkpt>
      <trkpt lat="47.74504" lon="-3.35839">
        <ele>11.8</ele>
        <time>2021-08-14T13:37:55Z</time>
      </trkpt>
      <trkpt lat="47.74504" lon="-3.35837">
        <ele>11.8</ele>
        <time>2021-08-14T13:37:56Z</time>
      </trkpt>
      <trkpt lat="47.74504" lon="-3.35835">
        <ele>11.8</ele>
        <time>2021-08-14T13:37:57Z</time>
      </trkpt>
      <trkpt lat="47.74499" lon="-3.35824">
        <ele>12</ele>
        <time>2021-08-14T13:38:03Z</time>
      </trkpt>
      <trkpt lat="47.74498" lon="-3.35822">
        <ele>12</ele>
        <time>2021-08-14T13:38:04Z</time>
      </trkpt>
      <trkpt lat="47.74495" lon="-3.35816">
        <ele>12</ele>
        <time>2021-08-14T13:38:06Z</time>
      </trkpt>
      <trkpt lat="47.74492" lon="-3.3581">
        <ele>12</ele>
        <time>2021-08-14T13:38:08Z</time>
      </trkpt>
      <trkpt lat="47.7449" lon="-3.35806">
        <ele>12</ele>
        <time>2021-08-14T13:38:09Z</time>
      </trkpt>
      <trkpt lat="47.74489" lon="-3.35802">
        <ele>12</ele>
        <time>2021-08-14T13:38:10Z</time>
      </trkpt>
      <trkpt lat="47.74487" lon="-3.35799">
        <ele>12</ele>
        <time>2021-08-14T13:38:11Z</time>
      </trkpt>
      <trkpt lat="47.74486" lon="-3.35795">
        <ele>12</ele>
        <time>2021-08-14T13:38:12Z</time>
      </trkpt>
      <trkpt lat="47.74484" lon="-3.3579">
        <ele>12</ele>
        <time>2021-08-14T13:38:13Z</time>
      </trkpt>
      <trkpt lat="47.74482" lon="-3.35786">
        <ele>12</ele>
        <time>2021-08-14T13:38:14Z</time>
      </trkpt>
      <trkpt lat="47.7448" lon="-3.35781">
        <ele>12</ele>
        <time>2021-08-14T13:38:15Z</time>
      </trkpt>
      <trkpt lat="47.74478" lon="-3.35776">
        <ele>12</ele>
        <time>2021-08-14T13:38:16Z</time>
      </trkpt>
      <trkpt lat="47.74476" lon="-3.35772">
        <ele>12</ele>
        <time>2021-08-14T13:38:17Z</time>
      </trkpt>
      <trkpt lat="47.74474" lon="-3.35767">
        <ele>12</ele>
        <time>2021-08-14T13:38:18Z</time>
      </trkpt>
      <trkpt lat="47.74472" lon="-3.35762">
        <ele>12</ele>
        <time>2021-08-14T13:38:19Z</time>
      </trkpt>
      <trkpt lat="47.7447" lon="-3.35758">
        <ele>11.8</ele>
        <time>2021-08-14T13:38:20Z</time>
      </trkpt>
      <trkpt lat="47.74468" lon="-3.35753">
        <ele>11.8</ele>
        <time>2021-08-14T13:38:21Z</time>
      </trkpt>
      <trkpt lat="47.74467" lon="-3.35747">
        <ele>11.6</ele>
        <time>2021-08-14T13:38:22Z</time>
      </trkpt>
      <trkpt lat="47.74465" lon="-3.35742">
        <ele>11.6</ele>
        <time>2021-08-14T13:38:23Z</time>
      </trkpt>
      <trkpt lat="47.74464" lon="-3.35737">
        <ele>11.6</ele>
        <time>2021-08-14T13:38:24Z</time>
      </trkpt>
      <trkpt lat="47.74462" lon="-3.35731">
        <ele>11.6</ele>
        <time>2021-08-14T13:38:25Z</time>
      </trkpt>
      <trkpt lat="47.74461" lon="-3.35725">
        <ele>11.6</ele>
        <time>2021-08-14T13:38:26Z</time>
      </trkpt>
      <trkpt lat="47.74461" lon="-3.35719">
        <ele>11.6</ele>
        <time>2021-08-14T13:38:27Z</time>
      </trkpt>
      <trkpt lat="47.74461" lon="-3.35713">
        <ele>11.6</ele>
        <time>2021-08-14T13:38:28Z</time>
      </trkpt>
      <trkpt lat="47.74461" lon="-3.35708">
        <ele>11.6</ele>
        <time>2021-08-14T13:38:29Z</time>
      </trkpt>
      <trkpt lat="47.7446" lon="-3.35702">
        <ele>11.6</ele>
        <time>2021-08-14T13:38:30Z</time>
      </trkpt>
      <trkpt lat="47.74458" lon="-3.35698">
        <ele>12</ele>
        <time>2021-08-14T13:38:31Z</time>
      </trkpt>
      <trkpt lat="47.74456" lon="-3.35694">
        <ele>12.2</ele>
        <time>2021-08-14T13:38:32Z</time>
      </trkpt>
      <trkpt lat="47.74455" lon="-3.3569">
        <ele>12.2</ele>
        <time>2021-08-14T13:38:33Z</time>
      </trkpt>
      <trkpt lat="47.74454" lon="-3.35688">
        <ele>12.4</ele>
        <time>2021-08-14T13:38:34Z</time>
      </trkpt>
      <trkpt lat="47.74454" lon="-3.35685">
        <ele>12.6</ele>
        <time>2021-08-14T13:38:35Z</time>
      </trkpt>
      <trkpt lat="47.74454" lon="-3.35683">
        <ele>12.6</ele>
        <time>2021-08-14T13:38:36Z</time>
      </trkpt>
      <trkpt lat="47.74453" lon="-3.3568">
        <ele>12.6</ele>
        <time>2021-08-14T13:38:37Z</time>
      </trkpt>
      <trkpt lat="47.74453" lon="-3.35678">
        <ele>12.6</ele>
        <time>2021-08-14T13:38:38Z</time>
      </trkpt>
      <trkpt lat="47.74453" lon="-3.35675">
        <ele>12.6</ele>
        <time>2021-08-14T13:38:39Z</time>
      </trkpt>
      <trkpt lat="47.74453" lon="-3.35673">
        <ele>12.6</ele>
        <time>2021-08-14T13:38:40Z</time>
      </trkpt>
      <trkpt lat="47.74453" lon="-3.3567">
        <ele>12.6</ele>
        <time>2021-08-14T13:38:41Z</time>
      </trkpt>
      <trkpt lat="47.74452" lon="-3.35666">
        <ele>12.6</ele>
        <time>2021-08-14T13:38:42Z</time>
      </trkpt>
      <trkpt lat="47.74451" lon="-3.35664">
        <ele>12.6</ele>
        <time>2021-08-14T13:38:43Z</time>
      </trkpt>
      <trkpt lat="47.74449" lon="-3.35661">
        <ele>12.6</ele>
        <time>2021-08-14T13:38:44Z</time>
      </trkpt>
      <trkpt lat="47.74448" lon="-3.35658">
        <ele>12.6</ele>
        <time>2021-08-14T13:38:45Z</time>
      </trkpt>
      <trkpt lat="47.74447" lon="-3.35657">
        <ele>12.6</ele>
        <time>2021-08-14T13:38:46Z</time>
      </trkpt>
      <trkpt lat="47.74446" lon="-3.35655">
        <ele>12.4</ele>
        <time>2021-08-14T13:38:47Z</time>
      </trkpt>
      <trkpt lat="47.74445" lon="-3.35654">
        <ele>12.4</ele>
        <time>2021-08-14T13:38:48Z</time>
      </trkpt>
      <trkpt lat="47.74442" lon="-3.35651">
        <ele>12.4</ele>
        <time>2021-08-14T13:38:53Z</time>
      </trkpt>
      <trkpt lat="47.7444" lon="-3.35652">
        <ele>12.4</ele>
        <time>2021-08-14T13:38:54Z</time>
      </trkpt>
      <trkpt lat="47.74439" lon="-3.35653">
        <ele>12.2</ele>
        <time>2021-08-14T13:38:55Z</time>
      </trkpt>
      <trkpt lat="47.74437" lon="-3.35654">
        <ele>12.2</ele>
        <time>2021-08-14T13:38:56Z</time>
      </trkpt>
      <trkpt lat="47.74436" lon="-3.35655">
        <ele>12.2</ele>
        <time>2021-08-14T13:38:57Z</time>
      </trkpt>
      <trkpt lat="47.74435" lon="-3.35656">
        <ele>12</ele>
        <time>2021-08-14T13:38:58Z</time>
      </trkpt>
      <trkpt lat="47.74434" lon="-3.35657">
        <ele>12</ele>
        <time>2021-08-14T13:38:59Z</time>
      </trkpt>
      <trkpt lat="47.74433" lon="-3.35658">
        <ele>12</ele>
        <time>2021-08-14T13:39:00Z</time>
      </trkpt>
      <trkpt lat="47.74432" lon="-3.3566">
        <ele>12</ele>
        <time>2021-08-14T13:39:01Z</time>
      </trkpt>
      <trkpt lat="47.74432" lon="-3.35662">
        <ele>12</ele>
        <time>2021-08-14T13:39:02Z</time>
      </trkpt>
      <trkpt lat="47.74432" lon="-3.35663">
        <ele>11.8</ele>
        <time>2021-08-14T13:39:03Z</time>
      </trkpt>
      <trkpt lat="47.74432" lon="-3.35664">
        <ele>11.8</ele>
        <time>2021-08-14T13:39:04Z</time>
      </trkpt>
      <trkpt lat="47.74432" lon="-3.35665">
        <ele>11.8</ele>
        <time>2021-08-14T13:39:05Z</time>
      </trkpt>
      <trkpt lat="47.74431" lon="-3.35668">
        <ele>11.8</ele>
        <time>2021-08-14T13:39:16Z</time>
      </trkpt>
      <trkpt lat="47.74431" lon="-3.35668">
        <ele>12</ele>
        <time>2021-08-14T13:39:17Z</time>
      </trkpt>
      <trkpt lat="47.74431" lon="-3.35668">
        <ele>12</ele>
        <time>2021-08-14T13:39:18Z</time>
      </trkpt>
      <trkpt lat="47.74431" lon="-3.35668">
        <ele>11.8</ele>
        <time>2021-08-14T13:39:19Z</time>
      </trkpt>
      <trkpt lat="47.735" lon="-3.34745">
        <ele>8.4</ele>
        <time>2021-08-14T14:00:57Z</time>
      </trkpt>
      <trkpt lat="47.73498" lon="-3.34744">
        <ele>8.4</ele>
        <time>2021-08-14T14:00:58Z</time>
      </trkpt>
      <trkpt lat="47.73496" lon="-3.34743">
        <ele>8.4</ele>
        <time>2021-08-14T14:00:59Z</time>
      </trkpt>
      <trkpt lat="47.73494" lon="-3.34742">
        <ele>8.4</ele>
        <time>2021-08-14T14:01:00Z</time>
      </trkpt>
      <trkpt lat="47.73492" lon="-3.34741">
        <ele>8.4</ele>
        <time>2021-08-14T14:01:01Z</time>
      </trkpt>
      <trkpt lat="47.73491" lon="-3.34741">
        <ele>8.4</ele>
        <time>2021-08-14T14:01:02Z</time>
      </trkpt>
      <trkpt lat="47.73489" lon="-3.34741">
        <ele>8.4</ele>
        <time>2021-08-14T14:01:03Z</time>
      </trkpt>
      <trkpt lat="47.73488" lon="-3.34741">
        <ele>8.4</ele>
        <time>2021-08-14T14:01:04Z</time>
      </trkpt>
      <trkpt lat="47.73486" lon="-3.34741">
        <ele>8.4</ele>
        <time>2021-08-14T14:01:05Z</time>
      </trkpt>
      <trkpt lat="47.73485" lon="-3.34741">
        <ele>8.4</ele>
        <time>2021-08-14T14:01:06Z</time>
      </trkpt>
      <trkpt lat="47.73484" lon="-3.34741">
        <ele>8.4</ele>
        <time>2021-08-14T14:01:07Z</time>
      </trkpt>
      <trkpt lat="47.73482" lon="-3.34741">
        <ele>8.4</ele>
        <time>2021-08-14T14:01:08Z</time>
      </trkpt>
      <trkpt lat="47.73481" lon="-3.34742">
        <ele>8.4</ele>
        <time>2021-08-14T14:01:09Z</time>
      </trkpt>
      <trkpt lat="47.73479" lon="-3.34742">
        <ele>8.4</ele>
        <time>2021-08-14T14:01:10Z</time>
      </trkpt>
      <trkpt lat="47.73478" lon="-3.34742">
        <ele>8.4</ele>
        <time>2021-08-14T14:01:11Z</time>
      </trkpt>
      <trkpt lat="47.73476" lon="-3.34742">
        <ele>8.6</ele>
        <time>2021-08-14T14:01:12Z</time>
      </trkpt>
      <trkpt lat="47.73475" lon="-3.34742">
        <ele>8.6</ele>
        <time>2021-08-14T14:01:13Z</time>
      </trkpt>
      <trkpt lat="47.73473" lon="-3.34742">
        <ele>8.6</ele>
        <time>2021-08-14T14:01:14Z</time>
      </trkpt>
      <trkpt lat="47.73472" lon="-3.34743">
        <ele>8.8</ele>
        <time>2021-08-14T14:01:15Z</time>
      </trkpt>
      <trkpt lat="47.7347" lon="-3.34743">
        <ele>9</ele>
        <time>2021-08-14T14:01:16Z</time>
      </trkpt>
      <trkpt lat="47.73469" lon="-3.34743">
        <ele>9.2</ele>
        <time>2021-08-14T14:01:17Z</time>
      </trkpt>
      <trkpt lat="47.73467" lon="-3.34743">
        <ele>9.4</ele>
        <time>2021-08-14T14:01:18Z</time>
      </trkpt>
      <trkpt lat="47.73466" lon="-3.34743">
        <ele>9.8</ele>
        <time>2021-08-14T14:01:19Z</time>
      </trkpt>
      <trkpt lat="47.73464" lon="-3.34744">
        <ele>10</ele>
        <time>2021-08-14T14:01:20Z</time>
      </trkpt>
      <trkpt lat="47.73463" lon="-3.34745">
        <ele>10.2</ele>
        <time>2021-08-14T14:01:21Z</time>
      </trkpt>
      <trkpt lat="47.73462" lon="-3.34746">
        <ele>10.6</ele>
        <time>2021-08-14T14:01:22Z</time>
      </trkpt>
      <trkpt lat="47.73461" lon="-3.34747">
        <ele>10.6</ele>
        <time>2021-08-14T14:01:23Z</time>
      </trkpt>
      <trkpt lat="47.7346" lon="-3.34748">
        <ele>10.8</ele>
        <time>2021-08-14T14:01:24Z</time>
      </trkpt>
      <trkpt lat="47.73459" lon="-3.34749">
        <ele>11</ele>
        <time>2021-08-14T14:01:25Z</time>
      </trkpt>
      <trkpt lat="47.73458" lon="-3.3475">
        <ele>11.2</ele>
        <time>2021-08-14T14:01:26Z</time>
      </trkpt>
      <trkpt lat="47.73457" lon="-3.3475">
        <ele>11.4</ele>
        <time>2021-08-14T14:01:27Z</time>
      </trkpt>
      <trkpt lat="47.73456" lon="-3.34749">
        <ele>11.6</ele>
        <time>2021-08-14T14:01:28Z</time>
      </trkpt>
      <trkpt lat="47.73454" lon="-3.34747">
        <ele>11.6</ele>
        <time>2021-08-14T14:01:29Z</time>
      </trkpt>
      <trkpt lat="47.73453" lon="-3.34748">
        <ele>11.6</ele>
        <time>2021-08-14T14:01:30Z</time>
      </trkpt>
      <trkpt lat="47.73451" lon="-3.34748">
        <ele>11.8</ele>
        <time>2021-08-14T14:01:31Z</time>
      </trkpt>
      <trkpt lat="47.73449" lon="-3.34749">
        <ele>11.8</ele>
        <time>2021-08-14T14:01:32Z</time>
      </trkpt>
      <trkpt lat="47.73447" lon="-3.3475">
        <ele>12</ele>
        <time>2021-08-14T14:01:33Z</time>
      </trkpt>
      <trkpt lat="47.73446" lon="-3.34752">
        <ele>12</ele>
        <time>2021-08-14T14:01:34Z</time>
      </trkpt>
      <trkpt lat="47.73445" lon="-3.34754">
        <ele>12</ele>
        <time>2021-08-14T14:01:35Z</time>
      </trkpt>
      <trkpt lat="47.73443" lon="-3.34756">
        <ele>12</ele>
        <time>2021-08-14T14:01:36Z</time>
      </trkpt>
      <trkpt lat="47.73442" lon="-3.34759">
        <ele>12.2</ele>
        <time>2021-08-14T14:01:37Z</time>
      </trkpt>
      <trkpt lat="47.73441" lon="-3.34761">
        <ele>12.2</ele>
        <time>2021-08-14T14:01:38Z</time>
      </trkpt>
      <trkpt lat="47.73439" lon="-3.34764">
        <ele>12.2</ele>
        <time>2021-08-14T14:01:39Z</time>
      </trkpt>
      <trkpt lat="47.73438" lon="-3.34766">
        <ele>12.2</ele>
        <time>2021-08-14T14:01:40Z</time>
      </trkpt>
      <trkpt lat="47.73436" lon="-3.34768">
        <ele>12.2</ele>
        <time>2021-08-14T14:01:41Z</time>
      </trkpt>
      <trkpt lat="47.73434" lon="-3.34769">
        <ele>12.2</ele>
        <time>2021-08-14T14:01:42Z</time>
      </trkpt>
      <trkpt lat="47.73432" lon="-3.3477">
        <ele>12.4</ele>
        <time>2021-08-14T14:01:43Z</time>
      </trkpt>
      <trkpt lat="47.7343" lon="-3.3477">
        <ele>12.4</ele>
        <time>2021-08-14T14:01:44Z</time>
      </trkpt>
      <trkpt lat="47.73428" lon="-3.34769">
        <ele>12.4</ele>
        <time>2021-08-14T14:01:45Z</time>
      </trkpt>
      <trkpt lat="47.73427" lon="-3.34767">
        <ele>12.4</ele>
        <time>2021-08-14T14:01:46Z</time>
      </trkpt>
      <trkpt lat="47.73425" lon="-3.34765">
        <ele>12.4</ele>
        <time>2021-08-14T14:01:47Z</time>
      </trkpt>
      <trkpt lat="47.73423" lon="-3.34764">
        <ele>12.4</ele>
        <time>2021-08-14T14:01:48Z</time>
      </trkpt>
      <trkpt lat="47.73421" lon="-3.34762">
        <ele>12.4</ele>
        <time>2021-08-14T14:01:49Z</time>
      </trkpt>
      <trkpt lat="47.73419" lon="-3.34762">
        <ele>12.4</ele>
        <time>2021-08-14T14:01:50Z</time>
      </trkpt>
      <trkpt lat="47.73418" lon="-3.34761">
        <ele>12.2</ele>
        <time>2021-08-14T14:01:51Z</time>
      </trkpt>
      <trkpt lat="47.73416" lon="-3.34761">
        <ele>12.2</ele>
        <time>2021-08-14T14:01:52Z</time>
      </trkpt>
      <trkpt lat="47.73414" lon="-3.3476">
        <ele>12.2</ele>
        <time>2021-08-14T14:01:53Z</time>
      </trkpt>
      <trkpt lat="47.73412" lon="-3.34759">
        <ele>12.4</ele>
        <time>2021-08-14T14:01:54Z</time>
      </trkpt>
      <trkpt lat="47.7341" lon="-3.34758">
        <ele>12.4</ele>
        <time>2021-08-14T14:01:55Z</time>
      </trkpt>
      <trkpt lat="47.73409" lon="-3.34757">
        <ele>12.4</ele>
        <time>2021-08-14T14:01:56Z</time>
      </trkpt>
      <trkpt lat="47.73408" lon="-3.34756">
        <ele>12.4</ele>
        <time>2021-08-14T14:01:57Z</time>
      </trkpt>
      <trkpt lat="47.73406" lon="-3.34756">
        <ele>12.4</ele>
        <time>2021-08-14T14:01:58Z</time>
      </trkpt>
      <trkpt lat="47.73405" lon="-3.34755">
        <ele>12.4</ele>
        <time>2021-08-14T14:01:59Z</time>
      </trkpt>
      <trkpt lat="47.73404" lon="-3.34756">
        <ele>12.4</ele>
        <time>2021-08-14T14:02:00Z</time>
      </trkpt>
      <trkpt lat="47.73403" lon="-3.34756">
        <ele>12.8</ele>
        <time>2021-08-14T14:02:01Z</time>
      </trkpt>
      <trkpt lat="47.73402" lon="-3.34756">
        <ele>12.8</ele>
        <time>2021-08-14T14:02:02Z</time>
      </trkpt>
      <trkpt lat="47.73401" lon="-3.34757">
        <ele>12.8</ele>
        <time>2021-08-14T14:02:03Z</time>
      </trkpt>
      <trkpt lat="47.73399" lon="-3.34757">
        <ele>12.8</ele>
        <time>2021-08-14T14:02:05Z</time>
      </trkpt>
      <trkpt lat="47.73398" lon="-3.34756">
        <ele>13</ele>
        <time>2021-08-14T14:02:06Z</time>
      </trkpt>
      <trkpt lat="47.73396" lon="-3.34755">
        <ele>13</ele>
        <time>2021-08-14T14:02:07Z</time>
      </trkpt>
      <trkpt lat="47.73395" lon="-3.34755">
        <ele>13</ele>
        <time>2021-08-14T14:02:08Z</time>
      </trkpt>
      <trkpt lat="47.73394" lon="-3.34754">
        <ele>13.2</ele>
        <time>2021-08-14T14:02:09Z</time>
      </trkpt>
      <trkpt lat="47.73392" lon="-3.34754">
        <ele>13.2</ele>
        <time>2021-08-14T14:02:10Z</time>
      </trkpt>
      <trkpt lat="47.73391" lon="-3.34754">
        <ele>13.4</ele>
        <time>2021-08-14T14:02:11Z</time>
      </trkpt>
      <trkpt lat="47.7339" lon="-3.34754">
        <ele>13.6</ele>
        <time>2021-08-14T14:02:12Z</time>
      </trkpt>
      <trkpt lat="47.7339" lon="-3.34753">
        <ele>13.6</ele>
        <time>2021-08-14T14:02:13Z</time>
      </trkpt>
      <trkpt lat="47.73388" lon="-3.34743">
        <ele>14</ele>
        <time>2021-08-14T14:02:36Z</time>
      </trkpt>
      <trkpt lat="47.73387" lon="-3.3474">
        <ele>13.8</ele>
        <time>2021-08-14T14:02:37Z</time>
      </trkpt>
      <trkpt lat="47.73386" lon="-3.34738">
        <ele>14</ele>
        <time>2021-08-14T14:02:38Z</time>
      </trkpt>
      <trkpt lat="47.73384" lon="-3.34737">
        <ele>14</ele>
        <time>2021-08-14T14:02:39Z</time>
      </trkpt>
      <trkpt lat="47.73382" lon="-3.34735">
        <ele>14</ele>
        <time>2021-08-14T14:02:40Z</time>
      </trkpt>
      <trkpt lat="47.73379" lon="-3.34734">
        <ele>14</ele>
        <time>2021-08-14T14:02:41Z</time>
      </trkpt>
      <trkpt lat="47.73377" lon="-3.34732">
        <ele>14</ele>
        <time>2021-08-14T14:02:42Z</time>
      </trkpt>
      <trkpt lat="47.73375" lon="-3.3473">
        <ele>13.8</ele>
        <time>2021-08-14T14:02:43Z</time>
      </trkpt>
      <trkpt lat="47.73373" lon="-3.34727">
        <ele>13.8</ele>
        <time>2021-08-14T14:02:44Z</time>
      </trkpt>
      <trkpt lat="47.73371" lon="-3.34725">
        <ele>13.8</ele>
        <time>2021-08-14T14:02:45Z</time>
      </trkpt>
      <trkpt lat="47.73369" lon="-3.34723">
        <ele>13.6</ele>
        <time>2021-08-14T14:02:46Z</time>
      </trkpt>
      <trkpt lat="47.73367" lon="-3.34721">
        <ele>13.6</ele>
        <time>2021-08-14T14:02:47Z</time>
      </trkpt>
      <trkpt lat="47.73365" lon="-3.34719">
        <ele>13.6</ele>
        <time>2021-08-14T14:02:48Z</time>
      </trkpt>
      <trkpt lat="47.73362" lon="-3.34718">
        <ele>13.8</ele>
        <time>2021-08-14T14:02:49Z</time>
      </trkpt>
      <trkpt lat="47.7336" lon="-3.34716">
        <ele>14</ele>
        <time>2021-08-14T14:02:50Z</time>
      </trkpt>
      <trkpt lat="47.73357" lon="-3.34714">
        <ele>14</ele>
        <time>2021-08-14T14:02:51Z</time>
      </trkpt>
      <trkpt lat="47.73355" lon="-3.34712">
        <ele>14.2</ele>
        <time>2021-08-14T14:02:52Z</time>
      </trkpt>
      <trkpt lat="47.73353" lon="-3.34709">
        <ele>14.2</ele>
        <time>2021-08-14T14:02:53Z</time>
      </trkpt>
      <trkpt lat="47.73351" lon="-3.34707">
        <ele>14.2</ele>
        <time>2021-08-14T14:02:54Z</time>
      </trkpt>
      <trkpt lat="47.73349" lon="-3.34704">
        <ele>14.2</ele>
        <time>2021-08-14T14:02:55Z</time>
      </trkpt>
      <trkpt lat="47.73347" lon="-3.34701">
        <ele>14.4</ele>
        <time>2021-08-14T14:02:56Z</time>
      </trkpt>
      <trkpt lat="47.73345" lon="-3.34698">
        <ele>14.4</ele>
        <time>2021-08-14T14:02:57Z</time>
      </trkpt>
      <trkpt lat="47.73343" lon="-3.34695">
        <ele>14.4</ele>
        <time>2021-08-14T14:02:58Z</time>
      </trkpt>
      <trkpt lat="47.73341" lon="-3.34692">
        <ele>14.6</ele>
        <time>2021-08-14T14:02:59Z</time>
      </trkpt>
      <trkpt lat="47.73339" lon="-3.34689">
        <ele>14.6</ele>
        <time>2021-08-14T14:03:00Z</time>
      </trkpt>
      <trkpt lat="47.73337" lon="-3.34685">
        <ele>14.6</ele>
        <time>2021-08-14T14:03:01Z</time>
      </trkpt>
      <trkpt lat="47.73335" lon="-3.34682">
        <ele>14.6</ele>
        <time>2021-08-14T14:03:02Z</time>
      </trkpt>
      <trkpt lat="47.73333" lon="-3.34678">
        <ele>14.8</ele>
        <time>2021-08-14T14:03:03Z</time>
      </trkpt>
      <trkpt lat="47.73331" lon="-3.34675">
        <ele>14.8</ele>
        <time>2021-08-14T14:03:04Z</time>
      </trkpt>
      <trkpt lat="47.73329" lon="-3.34671">
        <ele>14.8</ele>
        <time>2021-08-14T14:03:05Z</time>
      </trkpt>
      <trkpt lat="47.73327" lon="-3.34668">
        <ele>14.8</ele>
        <time>2021-08-14T14:03:06Z</time>
      </trkpt>
      <trkpt lat="47.73325" lon="-3.34664">
        <ele>14.8</ele>
        <time>2021-08-14T14:03:07Z</time>
      </trkpt>
      <trkpt lat="47.73323" lon="-3.34661">
        <ele>15</ele>
        <time>2021-08-14T14:03:08Z</time>
      </trkpt>
      <trkpt lat="47.73321" lon="-3.34658">
        <ele>15</ele>
        <time>2021-08-14T14:03:09Z</time>
      </trkpt>
      <trkpt lat="47.73319" lon="-3.34654">
        <ele>15</ele>
        <time>2021-08-14T14:03:10Z</time>
      </trkpt>
      <trkpt lat="47.73317" lon="-3.34651">
        <ele>15.2</ele>
        <time>2021-08-14T14:03:11Z</time>
      </trkpt>
      <trkpt lat="47.73315" lon="-3.34647">
        <ele>15.2</ele>
        <time>2021-08-14T14:03:12Z</time>
      </trkpt>
      <trkpt lat="47.73313" lon="-3.34644">
        <ele>15.4</ele>
        <time>2021-08-14T14:03:13Z</time>
      </trkpt>
      <trkpt lat="47.73311" lon="-3.34641">
        <ele>15.4</ele>
        <time>2021-08-14T14:03:14Z</time>
      </trkpt>
      <trkpt lat="47.73309" lon="-3.34638">
        <ele>15.4</ele>
        <time>2021-08-14T14:03:15Z</time>
      </trkpt>
      <trkpt lat="47.73308" lon="-3.34635">
        <ele>15.4</ele>
        <time>2021-08-14T14:03:16Z</time>
      </trkpt>
      <trkpt lat="47.73307" lon="-3.34632">
        <ele>15.4</ele>
        <time>2021-08-14T14:03:17Z</time>
      </trkpt>
      <trkpt lat="47.73305" lon="-3.3463">
        <ele>15.4</ele>
        <time>2021-08-14T14:03:18Z</time>
      </trkpt>
      <trkpt lat="47.73304" lon="-3.34629">
        <ele>15.6</ele>
        <time>2021-08-14T14:03:19Z</time>
      </trkpt>
      <trkpt lat="47.73302" lon="-3.34626">
        <ele>15.6</ele>
        <time>2021-08-14T14:03:20Z</time>
      </trkpt>
      <trkpt lat="47.733" lon="-3.34623">
        <ele>15.6</ele>
        <time>2021-08-14T14:03:21Z</time>
      </trkpt>
      <trkpt lat="47.73299" lon="-3.34621">
        <ele>15.8</ele>
        <time>2021-08-14T14:03:22Z</time>
      </trkpt>
      <trkpt lat="47.73298" lon="-3.34618">
        <ele>15.8</ele>
        <time>2021-08-14T14:03:23Z</time>
      </trkpt>
      <trkpt lat="47.73296" lon="-3.34616">
        <ele>15.8</ele>
        <time>2021-08-14T14:03:24Z</time>
      </trkpt>
      <trkpt lat="47.73295" lon="-3.34613">
        <ele>15.8</ele>
        <time>2021-08-14T14:03:25Z</time>
      </trkpt>
      <trkpt lat="47.73294" lon="-3.34612">
        <ele>15.8</ele>
        <time>2021-08-14T14:03:26Z</time>
      </trkpt>
      <trkpt lat="47.73293" lon="-3.3461">
        <ele>16</ele>
        <time>2021-08-14T14:03:27Z</time>
      </trkpt>
      <trkpt lat="47.73292" lon="-3.34609">
        <ele>16.2</ele>
        <time>2021-08-14T14:03:28Z</time>
      </trkpt>
      <trkpt lat="47.73291" lon="-3.34608">
        <ele>16.2</ele>
        <time>2021-08-14T14:03:29Z</time>
      </trkpt>
      <trkpt lat="47.7329" lon="-3.34607">
        <ele>16.4</ele>
        <time>2021-08-14T14:03:30Z</time>
      </trkpt>
      <trkpt lat="47.73289" lon="-3.34605">
        <ele>16.4</ele>
        <time>2021-08-14T14:03:31Z</time>
      </trkpt>
      <trkpt lat="47.73289" lon="-3.34604">
        <ele>16.4</ele>
        <time>2021-08-14T14:03:32Z</time>
      </trkpt>
      <trkpt lat="47.73288" lon="-3.34603">
        <ele>16.4</ele>
        <time>2021-08-14T14:03:33Z</time>
      </trkpt>
      <trkpt lat="47.73287" lon="-3.34602">
        <ele>16.4</ele>
        <time>2021-08-14T14:03:34Z</time>
      </trkpt>
      <trkpt lat="47.73286" lon="-3.346">
        <ele>16.4</ele>
        <time>2021-08-14T14:03:35Z</time>
      </trkpt>
      <trkpt lat="47.73285" lon="-3.34598">
        <ele>16.4</ele>
        <time>2021-08-14T14:03:36Z</time>
      </trkpt>
      <trkpt lat="47.73284" lon="-3.34596">
        <ele>16.4</ele>
        <time>2021-08-14T14:03:37Z</time>
      </trkpt>
      <trkpt lat="47.73282" lon="-3.34594">
        <ele>16.4</ele>
        <time>2021-08-14T14:03:38Z</time>
      </trkpt>
      <trkpt lat="47.73281" lon="-3.34591">
        <ele>16.4</ele>
        <time>2021-08-14T14:03:39Z</time>
      </trkpt>
      <trkpt lat="47.73279" lon="-3.34589">
        <ele>16.4</ele>
        <time>2021-08-14T14:03:40Z</time>
      </trkpt>
      <trkpt lat="47.73278" lon="-3.34586">
        <ele>16.4</ele>
        <time>2021-08-14T14:03:41Z</time>
      </trkpt>
      <trkpt lat="47.73276" lon="-3.34583">
        <ele>16.4</ele>
        <time>2021-08-14T14:03:42Z</time>
      </trkpt>
      <trkpt lat="47.73275" lon="-3.34581">
        <ele>16.4</ele>
        <time>2021-08-14T14:03:43Z</time>
      </trkpt>
      <trkpt lat="47.73274" lon="-3.34579">
        <ele>16.4</ele>
        <time>2021-08-14T14:03:44Z</time>
      </trkpt>
      <trkpt lat="47.73273" lon="-3.34578">
        <ele>16.4</ele>
        <time>2021-08-14T14:03:45Z</time>
      </trkpt>
      <trkpt lat="47.73273" lon="-3.34578">
        <ele>16.4</ele>
        <time>2021-08-14T14:03:46Z</time>
      </trkpt>
      <trkpt lat="47.73273" lon="-3.34576">
        <ele>16</ele>
        <time>2021-08-14T14:04:04Z</time>
      </trkpt>
      <trkpt lat="47.73272" lon="-3.34574">
        <ele>16</ele>
        <time>2021-08-14T14:04:05Z</time>
      </trkpt>
      <trkpt lat="47.73271" lon="-3.34573">
        <ele>16</ele>
        <time>2021-08-14T14:04:06Z</time>
      </trkpt>
      <trkpt lat="47.7327" lon="-3.34571">
        <ele>16</ele>
        <time>2021-08-14T14:04:07Z</time>
      </trkpt>
      <trkpt lat="47.73268" lon="-3.34568">
        <ele>16</ele>
        <time>2021-08-14T14:04:08Z</time>
      </trkpt>
      <trkpt lat="47.73267" lon="-3.34566">
        <ele>16</ele>
        <time>2021-08-14T14:04:09Z</time>
      </trkpt>
      <trkpt lat="47.73265" lon="-3.34562">
        <ele>16</ele>
        <time>2021-08-14T14:04:10Z</time>
      </trkpt>
      <trkpt lat="47.73263" lon="-3.34559">
        <ele>16</ele>
        <time>2021-08-14T14:04:11Z</time>
      </trkpt>
      <trkpt lat="47.73261" lon="-3.34554">
        <ele>16</ele>
        <time>2021-08-14T14:04:12Z</time>
      </trkpt>
      <trkpt lat="47.73258" lon="-3.3455">
        <ele>16</ele>
        <time>2021-08-14T14:04:13Z</time>
      </trkpt>
      <trkpt lat="47.73256" lon="-3.34545">
        <ele>15.8</ele>
        <time>2021-08-14T14:04:14Z</time>
      </trkpt>
      <trkpt lat="47.73252" lon="-3.34539">
        <ele>15.6</ele>
        <time>2021-08-14T14:04:15Z</time>
      </trkpt>
      <trkpt lat="47.73249" lon="-3.34534">
        <ele>15.6</ele>
        <time>2021-08-14T14:04:16Z</time>
      </trkpt>
      <trkpt lat="47.73246" lon="-3.34527">
        <ele>15.4</ele>
        <time>2021-08-14T14:04:17Z</time>
      </trkpt>
      <trkpt lat="47.73243" lon="-3.34521">
        <ele>15.4</ele>
        <time>2021-08-14T14:04:18Z</time>
      </trkpt>
      <trkpt lat="47.73239" lon="-3.34515">
        <ele>15.2</ele>
        <time>2021-08-14T14:04:19Z</time>
      </trkpt>
      <trkpt lat="47.73236" lon="-3.34509">
        <ele>15</ele>
        <time>2021-08-14T14:04:20Z</time>
      </trkpt>
      <trkpt lat="47.73232" lon="-3.34502">
        <ele>14.6</ele>
        <time>2021-08-14T14:04:21Z</time>
      </trkpt>
      <trkpt lat="47.73228" lon="-3.34495">
        <ele>14.2</ele>
        <time>2021-08-14T14:04:22Z</time>
      </trkpt>
      <trkpt lat="47.73225" lon="-3.34488">
        <ele>14</ele>
        <time>2021-08-14T14:04:23Z</time>
      </trkpt>
      <trkpt lat="47.73221" lon="-3.34481">
        <ele>13.6</ele>
        <time>2021-08-14T14:04:24Z</time>
      </trkpt>
      <trkpt lat="47.73217" lon="-3.34475">
        <ele>13.2</ele>
        <time>2021-08-14T14:04:25Z</time>
      </trkpt>
      <trkpt lat="47.73213" lon="-3.34468">
        <ele>12.8</ele>
        <time>2021-08-14T14:04:26Z</time>
      </trkpt>
      <trkpt lat="47.73208" lon="-3.34462">
        <ele>12.6</ele>
        <time>2021-08-14T14:04:27Z</time>
      </trkpt>
      <trkpt lat="47.73204" lon="-3.34456">
        <ele>12.4</ele>
        <time>2021-08-14T14:04:28Z</time>
      </trkpt>
      <trkpt lat="47.732" lon="-3.34449">
        <ele>12.4</ele>
        <time>2021-08-14T14:04:29Z</time>
      </trkpt>
      <trkpt lat="47.73197" lon="-3.34441">
        <ele>12.2</ele>
        <time>2021-08-14T14:04:30Z</time>
      </trkpt>
      <trkpt lat="47.73193" lon="-3.34434">
        <ele>11.8</ele>
        <time>2021-08-14T14:04:31Z</time>
      </trkpt>
      <trkpt lat="47.73189" lon="-3.34428">
        <ele>11.4</ele>
        <time>2021-08-14T14:04:32Z</time>
      </trkpt>
      <trkpt lat="47.73185" lon="-3.34421">
        <ele>11.2</ele>
        <time>2021-08-14T14:04:33Z</time>
      </trkpt>
      <trkpt lat="47.73181" lon="-3.34414">
        <ele>11</ele>
        <time>2021-08-14T14:04:34Z</time>
      </trkpt>
      <trkpt lat="47.73178" lon="-3.34407">
        <ele>11</ele>
        <time>2021-08-14T14:04:35Z</time>
      </trkpt>
      <trkpt lat="47.73176" lon="-3.34399">
        <ele>10.8</ele>
        <time>2021-08-14T14:04:36Z</time>
      </trkpt>
      <trkpt lat="47.73173" lon="-3.34391">
        <ele>10.8</ele>
        <time>2021-08-14T14:04:37Z</time>
      </trkpt>
      <trkpt lat="47.73171" lon="-3.34382">
        <ele>10.8</ele>
        <time>2021-08-14T14:04:38Z</time>
      </trkpt>
      <trkpt lat="47.73169" lon="-3.34374">
        <ele>10.8</ele>
        <time>2021-08-14T14:04:39Z</time>
      </trkpt>
      <trkpt lat="47.73167" lon="-3.34365">
        <ele>10.8</ele>
        <time>2021-08-14T14:04:40Z</time>
      </trkpt>
      <trkpt lat="47.73165" lon="-3.34357">
        <ele>10.8</ele>
        <time>2021-08-14T14:04:41Z</time>
      </trkpt>
      <trkpt lat="47.73163" lon="-3.34348">
        <ele>10.8</ele>
        <time>2021-08-14T14:04:42Z</time>
      </trkpt>
      <trkpt lat="47.7316" lon="-3.3434">
        <ele>11</ele>
        <time>2021-08-14T14:04:43Z</time>
      </trkpt>
      <trkpt lat="47.73158" lon="-3.34331">
        <ele>11</ele>
        <time>2021-08-14T14:04:44Z</time>
      </trkpt>
      <trkpt lat="47.73155" lon="-3.34323">
        <ele>11.2</ele>
        <time>2021-08-14T14:04:45Z</time>
      </trkpt>
      <trkpt lat="47.73151" lon="-3.34316">
        <ele>11.2</ele>
        <time>2021-08-14T14:04:46Z</time>
      </trkpt>
      <trkpt lat="47.73148" lon="-3.34309">
        <ele>11.2</ele>
        <time>2021-08-14T14:04:47Z</time>
      </trkpt>
      <trkpt lat="47.73145" lon="-3.34303">
        <ele>11.4</ele>
        <time>2021-08-14T14:04:48Z</time>
      </trkpt>
      <trkpt lat="47.73141" lon="-3.34297">
        <ele>11.4</ele>
        <time>2021-08-14T14:04:49Z</time>
      </trkpt>
      <trkpt lat="47.73138" lon="-3.34291">
        <ele>11.6</ele>
        <time>2021-08-14T14:04:50Z</time>
      </trkpt>
      <trkpt lat="47.73135" lon="-3.34285">
        <ele>11.6</ele>
        <time>2021-08-14T14:04:51Z</time>
      </trkpt>
      <trkpt lat="47.73132" lon="-3.3428">
        <ele>11.4</ele>
        <time>2021-08-14T14:04:52Z</time>
      </trkpt>
      <trkpt lat="47.73129" lon="-3.34274">
        <ele>11.4</ele>
        <time>2021-08-14T14:04:53Z</time>
      </trkpt>
      <trkpt lat="47.73126" lon="-3.34269">
        <ele>11.6</ele>
        <time>2021-08-14T14:04:54Z</time>
      </trkpt>
      <trkpt lat="47.73123" lon="-3.34264">
        <ele>11.6</ele>
        <time>2021-08-14T14:04:55Z</time>
      </trkpt>
      <trkpt lat="47.7312" lon="-3.34258">
        <ele>11.6</ele>
        <time>2021-08-14T14:04:56Z</time>
      </trkpt>
      <trkpt lat="47.73117" lon="-3.34253">
        <ele>11.6</ele>
        <time>2021-08-14T14:04:57Z</time>
      </trkpt>
      <trkpt lat="47.73114" lon="-3.34247">
        <ele>11.6</ele>
        <time>2021-08-14T14:04:58Z</time>
      </trkpt>
      <trkpt lat="47.7311" lon="-3.34241">
        <ele>12</ele>
        <time>2021-08-14T14:04:59Z</time>
      </trkpt>
      <trkpt lat="47.73107" lon="-3.34235">
        <ele>11.8</ele>
        <time>2021-08-14T14:05:00Z</time>
      </trkpt>
      <trkpt lat="47.73104" lon="-3.3423">
        <ele>11.8</ele>
        <time>2021-08-14T14:05:01Z</time>
      </trkpt>
      <trkpt lat="47.73101" lon="-3.34224">
        <ele>11.8</ele>
        <time>2021-08-14T14:05:02Z</time>
      </trkpt>
      <trkpt lat="47.73098" lon="-3.34217">
        <ele>11.8</ele>
        <time>2021-08-14T14:05:03Z</time>
      </trkpt>
      <trkpt lat="47.73094" lon="-3.34211">
        <ele>12</ele>
        <time>2021-08-14T14:05:04Z</time>
      </trkpt>
      <trkpt lat="47.73091" lon="-3.34205">
        <ele>12</ele>
        <time>2021-08-14T14:05:05Z</time>
      </trkpt>
      <trkpt lat="47.73088" lon="-3.34199">
        <ele>12</ele>
        <time>2021-08-14T14:05:06Z</time>
      </trkpt>
      <trkpt lat="47.73084" lon="-3.34193">
        <ele>12</ele>
        <time>2021-08-14T14:05:07Z</time>
      </trkpt>
      <trkpt lat="47.73081" lon="-3.34187">
        <ele>12</ele>
        <time>2021-08-14T14:05:08Z</time>
      </trkpt>
      <trkpt lat="47.73077" lon="-3.34181">
        <ele>12</ele>
        <time>2021-08-14T14:05:09Z</time>
      </trkpt>
      <trkpt lat="47.73074" lon="-3.34175">
        <ele>12</ele>
        <time>2021-08-14T14:05:10Z</time>
      </trkpt>
      <trkpt lat="47.73071" lon="-3.34169">
        <ele>12</ele>
        <time>2021-08-14T14:05:11Z</time>
      </trkpt>
      <trkpt lat="47.73067" lon="-3.34163">
        <ele>11.8</ele>
        <time>2021-08-14T14:05:12Z</time>
      </trkpt>
      <trkpt lat="47.73064" lon="-3.34157">
        <ele>11.8</ele>
        <time>2021-08-14T14:05:13Z</time>
      </trkpt>
      <trkpt lat="47.73061" lon="-3.34151">
        <ele>11.8</ele>
        <time>2021-08-14T14:05:14Z</time>
      </trkpt>
      <trkpt lat="47.73057" lon="-3.34145">
        <ele>11.8</ele>
        <time>2021-08-14T14:05:15Z</time>
      </trkpt>
      <trkpt lat="47.73054" lon="-3.34139">
        <ele>11.8</ele>
        <time>2021-08-14T14:05:16Z</time>
      </trkpt>
      <trkpt lat="47.73051" lon="-3.34133">
        <ele>11.6</ele>
        <time>2021-08-14T14:05:17Z</time>
      </trkpt>
      <trkpt lat="47.73047" lon="-3.34127">
        <ele>11.4</ele>
        <time>2021-08-14T14:05:18Z</time>
      </trkpt>
      <trkpt lat="47.73044" lon="-3.34122">
        <ele>11.4</ele>
        <time>2021-08-14T14:05:19Z</time>
      </trkpt>
      <trkpt lat="47.73041" lon="-3.34116">
        <ele>11.2</ele>
        <time>2021-08-14T14:05:20Z</time>
      </trkpt>
      <trkpt lat="47.73038" lon="-3.34111">
        <ele>11.2</ele>
        <time>2021-08-14T14:05:21Z</time>
      </trkpt>
      <trkpt lat="47.73035" lon="-3.34105">
        <ele>11.2</ele>
        <time>2021-08-14T14:05:22Z</time>
      </trkpt>
      <trkpt lat="47.73032" lon="-3.34099">
        <ele>11.2</ele>
        <time>2021-08-14T14:05:23Z</time>
      </trkpt>
      <trkpt lat="47.73028" lon="-3.34094">
        <ele>11.2</ele>
        <time>2021-08-14T14:05:24Z</time>
      </trkpt>
      <trkpt lat="47.73025" lon="-3.34088">
        <ele>11.2</ele>
        <time>2021-08-14T14:05:25Z</time>
      </trkpt>
      <trkpt lat="47.73022" lon="-3.34082">
        <ele>11.2</ele>
        <time>2021-08-14T14:05:26Z</time>
      </trkpt>
      <trkpt lat="47.73019" lon="-3.34077">
        <ele>11.2</ele>
        <time>2021-08-14T14:05:27Z</time>
      </trkpt>
      <trkpt lat="47.73016" lon="-3.34071">
        <ele>11.2</ele>
        <time>2021-08-14T14:05:28Z</time>
      </trkpt>
      <trkpt lat="47.73013" lon="-3.34064">
        <ele>11.2</ele>
        <time>2021-08-14T14:05:29Z</time>
      </trkpt>
      <trkpt lat="47.73011" lon="-3.34058">
        <ele>11.2</ele>
        <time>2021-08-14T14:05:30Z</time>
      </trkpt>
      <trkpt lat="47.73008" lon="-3.34052">
        <ele>11.2</ele>
        <time>2021-08-14T14:05:31Z</time>
      </trkpt>
      <trkpt lat="47.73005" lon="-3.34045">
        <ele>11.2</ele>
        <time>2021-08-14T14:05:32Z</time>
      </trkpt>
      <trkpt lat="47.73003" lon="-3.34039">
        <ele>11.2</ele>
        <time>2021-08-14T14:05:33Z</time>
      </trkpt>
      <trkpt lat="47.73" lon="-3.34032">
        <ele>11.2</ele>
        <time>2021-08-14T14:05:34Z</time>
      </trkpt>
      <trkpt lat="47.72998" lon="-3.34025">
        <ele>11.2</ele>
        <time>2021-08-14T14:05:35Z</time>
      </trkpt>
      <trkpt lat="47.72995" lon="-3.34018">
        <ele>11.2</ele>
        <time>2021-08-14T14:05:36Z</time>
      </trkpt>
      <trkpt lat="47.72993" lon="-3.34012">
        <ele>11.2</ele>
        <time>2021-08-14T14:05:37Z</time>
      </trkpt>
      <trkpt lat="47.7299" lon="-3.34005">
        <ele>11.2</ele>
        <time>2021-08-14T14:05:38Z</time>
      </trkpt>
      <trkpt lat="47.72988" lon="-3.33998">
        <ele>11.2</ele>
        <time>2021-08-14T14:05:39Z</time>
      </trkpt>
      <trkpt lat="47.72986" lon="-3.33991">
        <ele>11.2</ele>
        <time>2021-08-14T14:05:40Z</time>
      </trkpt>
      <trkpt lat="47.72984" lon="-3.33984">
        <ele>11.2</ele>
        <time>2021-08-14T14:05:41Z</time>
      </trkpt>
      <trkpt lat="47.72981" lon="-3.33977">
        <ele>11.2</ele>
        <time>2021-08-14T14:05:42Z</time>
      </trkpt>
      <trkpt lat="47.72979" lon="-3.33971">
        <ele>11.2</ele>
        <time>2021-08-14T14:05:43Z</time>
      </trkpt>
      <trkpt lat="47.72977" lon="-3.33964">
        <ele>11.2</ele>
        <time>2021-08-14T14:05:44Z</time>
      </trkpt>
      <trkpt lat="47.72974" lon="-3.33957">
        <ele>11.2</ele>
        <time>2021-08-14T14:05:45Z</time>
      </trkpt>
      <trkpt lat="47.72972" lon="-3.3395">
        <ele>11.2</ele>
        <time>2021-08-14T14:05:46Z</time>
      </trkpt>
      <trkpt lat="47.7297" lon="-3.33944">
        <ele>11.2</ele>
        <time>2021-08-14T14:05:47Z</time>
      </trkpt>
      <trkpt lat="47.72968" lon="-3.33937">
        <ele>11.2</ele>
        <time>2021-08-14T14:05:48Z</time>
      </trkpt>
      <trkpt lat="47.72966" lon="-3.3393">
        <ele>11.2</ele>
        <time>2021-08-14T14:05:49Z</time>
      </trkpt>
      <trkpt lat="47.72964" lon="-3.33923">
        <ele>11.2</ele>
        <time>2021-08-14T14:05:50Z</time>
      </trkpt>
      <trkpt lat="47.72961" lon="-3.33916">
        <ele>11.2</ele>
        <time>2021-08-14T14:05:51Z</time>
      </trkpt>
      <trkpt lat="47.72959" lon="-3.3391">
        <ele>11.2</ele>
        <time>2021-08-14T14:05:52Z</time>
      </trkpt>
      <trkpt lat="47.72957" lon="-3.33903">
        <ele>11</ele>
        <time>2021-08-14T14:05:53Z</time>
      </trkpt>
      <trkpt lat="47.72955" lon="-3.33896">
        <ele>11</ele>
        <time>2021-08-14T14:05:54Z</time>
      </trkpt>
      <trkpt lat="47.72953" lon="-3.3389">
        <ele>11</ele>
        <time>2021-08-14T14:05:55Z</time>
      </trkpt>
      <trkpt lat="47.72951" lon="-3.33883">
        <ele>11</ele>
        <time>2021-08-14T14:05:56Z</time>
      </trkpt>
      <trkpt lat="47.72948" lon="-3.33876">
        <ele>11</ele>
        <time>2021-08-14T14:05:57Z</time>
      </trkpt>
      <trkpt lat="47.72946" lon="-3.3387">
        <ele>11</ele>
        <time>2021-08-14T14:05:58Z</time>
      </trkpt>
      <trkpt lat="47.72944" lon="-3.33863">
        <ele>11</ele>
        <time>2021-08-14T14:05:59Z</time>
      </trkpt>
      <trkpt lat="47.72942" lon="-3.33855">
        <ele>11.2</ele>
        <time>2021-08-14T14:06:00Z</time>
      </trkpt>
      <trkpt lat="47.7294" lon="-3.33848">
        <ele>11.2</ele>
        <time>2021-08-14T14:06:01Z</time>
      </trkpt>
      <trkpt lat="47.72938" lon="-3.33841">
        <ele>11.2</ele>
        <time>2021-08-14T14:06:02Z</time>
      </trkpt>
      <trkpt lat="47.72935" lon="-3.33834">
        <ele>11.2</ele>
        <time>2021-08-14T14:06:03Z</time>
      </trkpt>
      <trkpt lat="47.72933" lon="-3.33827">
        <ele>11.4</ele>
        <time>2021-08-14T14:06:04Z</time>
      </trkpt>
      <trkpt lat="47.72931" lon="-3.3382">
        <ele>11.6</ele>
        <time>2021-08-14T14:06:05Z</time>
      </trkpt>
      <trkpt lat="47.72929" lon="-3.33813">
        <ele>11.6</ele>
        <time>2021-08-14T14:06:06Z</time>
      </trkpt>
      <trkpt lat="47.72927" lon="-3.33806">
        <ele>11.6</ele>
        <time>2021-08-14T14:06:07Z</time>
      </trkpt>
      <trkpt lat="47.72925" lon="-3.33799">
        <ele>11.6</ele>
        <time>2021-08-14T14:06:08Z</time>
      </trkpt>
      <trkpt lat="47.72923" lon="-3.33793">
        <ele>11.4</ele>
        <time>2021-08-14T14:06:09Z</time>
      </trkpt>
      <trkpt lat="47.72921" lon="-3.33786">
        <ele>11.6</ele>
        <time>2021-08-14T14:06:10Z</time>
      </trkpt>
      <trkpt lat="47.72919" lon="-3.3378">
        <ele>11.6</ele>
        <time>2021-08-14T14:06:11Z</time>
      </trkpt>
      <trkpt lat="47.72918" lon="-3.33773">
        <ele>11.8</ele>
        <time>2021-08-14T14:06:12Z</time>
      </trkpt>
      <trkpt lat="47.72916" lon="-3.33767">
        <ele>11.8</ele>
        <time>2021-08-14T14:06:13Z</time>
      </trkpt>
      <trkpt lat="47.72914" lon="-3.3376">
        <ele>11.6</ele>
        <time>2021-08-14T14:06:14Z</time>
      </trkpt>
      <trkpt lat="47.72911" lon="-3.33754">
        <ele>11.8</ele>
        <time>2021-08-14T14:06:15Z</time>
      </trkpt>
      <trkpt lat="47.72907" lon="-3.3374">
        <ele>11.8</ele>
        <time>2021-08-14T14:06:17Z</time>
      </trkpt>
      <trkpt lat="47.72904" lon="-3.33733">
        <ele>11.6</ele>
        <time>2021-08-14T14:06:18Z</time>
      </trkpt>
      <trkpt lat="47.72902" lon="-3.33726">
        <ele>11.6</ele>
        <time>2021-08-14T14:06:19Z</time>
      </trkpt>
      <trkpt lat="47.72899" lon="-3.3372">
        <ele>11.6</ele>
        <time>2021-08-14T14:06:20Z</time>
      </trkpt>
      <trkpt lat="47.72897" lon="-3.33713">
        <ele>11.6</ele>
        <time>2021-08-14T14:06:21Z</time>
      </trkpt>
      <trkpt lat="47.72895" lon="-3.33707">
        <ele>11.6</ele>
        <time>2021-08-14T14:06:22Z</time>
      </trkpt>
      <trkpt lat="47.72892" lon="-3.337">
        <ele>11.6</ele>
        <time>2021-08-14T14:06:23Z</time>
      </trkpt>
      <trkpt lat="47.7289" lon="-3.33694">
        <ele>11.6</ele>
        <time>2021-08-14T14:06:24Z</time>
      </trkpt>
      <trkpt lat="47.72887" lon="-3.33688">
        <ele>11.4</ele>
        <time>2021-08-14T14:06:25Z</time>
      </trkpt>
      <trkpt lat="47.72885" lon="-3.33681">
        <ele>11.4</ele>
        <time>2021-08-14T14:06:26Z</time>
      </trkpt>
      <trkpt lat="47.72883" lon="-3.33675">
        <ele>11.4</ele>
        <time>2021-08-14T14:06:27Z</time>
      </trkpt>
      <trkpt lat="47.72881" lon="-3.33668">
        <ele>11.4</ele>
        <time>2021-08-14T14:06:28Z</time>
      </trkpt>
      <trkpt lat="47.72879" lon="-3.33662">
        <ele>11.4</ele>
        <time>2021-08-14T14:06:29Z</time>
      </trkpt>
      <trkpt lat="47.72877" lon="-3.33655">
        <ele>11.4</ele>
        <time>2021-08-14T14:06:30Z</time>
      </trkpt>
      <trkpt lat="47.72876" lon="-3.33648">
        <ele>11.4</ele>
        <time>2021-08-14T14:06:31Z</time>
      </trkpt>
      <trkpt lat="47.72874" lon="-3.33641">
        <ele>11.4</ele>
        <time>2021-08-14T14:06:32Z</time>
      </trkpt>
      <trkpt lat="47.72873" lon="-3.33634">
        <ele>11.4</ele>
        <time>2021-08-14T14:06:33Z</time>
      </trkpt>
      <trkpt lat="47.72872" lon="-3.33627">
        <ele>11.4</ele>
        <time>2021-08-14T14:06:34Z</time>
      </trkpt>
      <trkpt lat="47.72871" lon="-3.33619">
        <ele>11.4</ele>
        <time>2021-08-14T14:06:35Z</time>
      </trkpt>
      <trkpt lat="47.72871" lon="-3.33612">
        <ele>11.4</ele>
        <time>2021-08-14T14:06:36Z</time>
      </trkpt>
      <trkpt lat="47.7287" lon="-3.33604">
        <ele>11.4</ele>
        <time>2021-08-14T14:06:37Z</time>
      </trkpt>
      <trkpt lat="47.72869" lon="-3.33597">
        <ele>11.6</ele>
        <time>2021-08-14T14:06:38Z</time>
      </trkpt>
      <trkpt lat="47.72868" lon="-3.3359">
        <ele>11.6</ele>
        <time>2021-08-14T14:06:39Z</time>
      </trkpt>
      <trkpt lat="47.72866" lon="-3.33583">
        <ele>11.6</ele>
        <time>2021-08-14T14:06:40Z</time>
      </trkpt>
      <trkpt lat="47.72864" lon="-3.33577">
        <ele>11.6</ele>
        <time>2021-08-14T14:06:41Z</time>
      </trkpt>
      <trkpt lat="47.72862" lon="-3.33571">
        <ele>11.8</ele>
        <time>2021-08-14T14:06:42Z</time>
      </trkpt>
      <trkpt lat="47.72858" lon="-3.33565">
        <ele>11.8</ele>
        <time>2021-08-14T14:06:43Z</time>
      </trkpt>
      <trkpt lat="47.72854" lon="-3.33562">
        <ele>11.8</ele>
        <time>2021-08-14T14:06:44Z</time>
      </trkpt>
      <trkpt lat="47.72849" lon="-3.3356">
        <ele>11.8</ele>
        <time>2021-08-14T14:06:45Z</time>
      </trkpt>
      <trkpt lat="47.72845" lon="-3.33556">
        <ele>11.8</ele>
        <time>2021-08-14T14:06:46Z</time>
      </trkpt>
      <trkpt lat="47.72841" lon="-3.33552">
        <ele>12</ele>
        <time>2021-08-14T14:06:47Z</time>
      </trkpt>
      <trkpt lat="47.72838" lon="-3.33546">
        <ele>12</ele>
        <time>2021-08-14T14:06:48Z</time>
      </trkpt>
      <trkpt lat="47.72835" lon="-3.3354">
        <ele>12</ele>
        <time>2021-08-14T14:06:49Z</time>
      </trkpt>
      <trkpt lat="47.72833" lon="-3.33533">
        <ele>12</ele>
        <time>2021-08-14T14:06:50Z</time>
      </trkpt>
      <trkpt lat="47.72832" lon="-3.33525">
        <ele>12</ele>
        <time>2021-08-14T14:06:51Z</time>
      </trkpt>
      <trkpt lat="47.7283" lon="-3.33518">
        <ele>12</ele>
        <time>2021-08-14T14:06:52Z</time>
      </trkpt>
      <trkpt lat="47.72827" lon="-3.33512">
        <ele>12</ele>
        <time>2021-08-14T14:06:53Z</time>
      </trkpt>
      <trkpt lat="47.72824" lon="-3.33505">
        <ele>12</ele>
        <time>2021-08-14T14:06:54Z</time>
      </trkpt>
      <trkpt lat="47.72822" lon="-3.33499">
        <ele>12</ele>
        <time>2021-08-14T14:06:55Z</time>
      </trkpt>
      <trkpt lat="47.72819" lon="-3.33493">
        <ele>11.8</ele>
        <time>2021-08-14T14:06:56Z</time>
      </trkpt>
      <trkpt lat="47.72817" lon="-3.33486">
        <ele>11.8</ele>
        <time>2021-08-14T14:06:57Z</time>
      </trkpt>
      <trkpt lat="47.72815" lon="-3.3348">
        <ele>11.6</ele>
        <time>2021-08-14T14:06:58Z</time>
      </trkpt>
      <trkpt lat="47.72813" lon="-3.33473">
        <ele>11.6</ele>
        <time>2021-08-14T14:06:59Z</time>
      </trkpt>
      <trkpt lat="47.72811" lon="-3.33466">
        <ele>11.6</ele>
        <time>2021-08-14T14:07:00Z</time>
      </trkpt>
      <trkpt lat="47.7281" lon="-3.33459">
        <ele>11.6</ele>
        <time>2021-08-14T14:07:01Z</time>
      </trkpt>
      <trkpt lat="47.72808" lon="-3.33451">
        <ele>11.6</ele>
        <time>2021-08-14T14:07:02Z</time>
      </trkpt>
      <trkpt lat="47.72807" lon="-3.33444">
        <ele>11.6</ele>
        <time>2021-08-14T14:07:03Z</time>
      </trkpt>
      <trkpt lat="47.72806" lon="-3.33437">
        <ele>11.6</ele>
        <time>2021-08-14T14:07:04Z</time>
      </trkpt>
      <trkpt lat="47.72803" lon="-3.33423">
        <ele>11.6</ele>
        <time>2021-08-14T14:07:06Z</time>
      </trkpt>
      <trkpt lat="47.72801" lon="-3.3341">
        <ele>11.6</ele>
        <time>2021-08-14T14:07:08Z</time>
      </trkpt>
      <trkpt lat="47.72799" lon="-3.33397">
        <ele>11.8</ele>
        <time>2021-08-14T14:07:10Z</time>
      </trkpt>
      <trkpt lat="47.72797" lon="-3.33385">
        <ele>11.8</ele>
        <time>2021-08-14T14:07:12Z</time>
      </trkpt>
      <trkpt lat="47.72796" lon="-3.3338">
        <ele>11.8</ele>
        <time>2021-08-14T14:07:13Z</time>
      </trkpt>
      <trkpt lat="47.72795" lon="-3.33375">
        <ele>11.8</ele>
        <time>2021-08-14T14:07:14Z</time>
      </trkpt>
      <trkpt lat="47.72794" lon="-3.3337">
        <ele>11.8</ele>
        <time>2021-08-14T14:07:15Z</time>
      </trkpt>
      <trkpt lat="47.72793" lon="-3.33366">
        <ele>12.2</ele>
        <time>2021-08-14T14:07:16Z</time>
      </trkpt>
      <trkpt lat="47.72792" lon="-3.33362">
        <ele>12.2</ele>
        <time>2021-08-14T14:07:17Z</time>
      </trkpt>
      <trkpt lat="47.72791" lon="-3.33357">
        <ele>12.4</ele>
        <time>2021-08-14T14:07:18Z</time>
      </trkpt>
      <trkpt lat="47.7279" lon="-3.33353">
        <ele>12.6</ele>
        <time>2021-08-14T14:07:19Z</time>
      </trkpt>
      <trkpt lat="47.7279" lon="-3.33348">
        <ele>12.6</ele>
        <time>2021-08-14T14:07:20Z</time>
      </trkpt>
      <trkpt lat="47.72789" lon="-3.33344">
        <ele>12.8</ele>
        <time>2021-08-14T14:07:21Z</time>
      </trkpt>
      <trkpt lat="47.72788" lon="-3.3334">
        <ele>12.8</ele>
        <time>2021-08-14T14:07:22Z</time>
      </trkpt>
      <trkpt lat="47.72788" lon="-3.33335">
        <ele>13.2</ele>
        <time>2021-08-14T14:07:23Z</time>
      </trkpt>
      <trkpt lat="47.72787" lon="-3.3333">
        <ele>13.4</ele>
        <time>2021-08-14T14:07:24Z</time>
      </trkpt>
      <trkpt lat="47.72787" lon="-3.33325">
        <ele>13.8</ele>
        <time>2021-08-14T14:07:25Z</time>
      </trkpt>
      <trkpt lat="47.72786" lon="-3.3332">
        <ele>14.4</ele>
        <time>2021-08-14T14:07:26Z</time>
      </trkpt>
      <trkpt lat="47.72785" lon="-3.33316">
        <ele>14.6</ele>
        <time>2021-08-14T14:07:27Z</time>
      </trkpt>
      <trkpt lat="47.72783" lon="-3.33311">
        <ele>14.8</ele>
        <time>2021-08-14T14:07:28Z</time>
      </trkpt>
      <trkpt lat="47.72782" lon="-3.33306">
        <ele>15</ele>
        <time>2021-08-14T14:07:29Z</time>
      </trkpt>
      <trkpt lat="47.72781" lon="-3.33302">
        <ele>15</ele>
        <time>2021-08-14T14:07:30Z</time>
      </trkpt>
      <trkpt lat="47.7278" lon="-3.33297">
        <ele>15</ele>
        <time>2021-08-14T14:07:31Z</time>
      </trkpt>
      <trkpt lat="47.72779" lon="-3.33292">
        <ele>15.2</ele>
        <time>2021-08-14T14:07:32Z</time>
      </trkpt>
      <trkpt lat="47.72778" lon="-3.33288">
        <ele>15.2</ele>
        <time>2021-08-14T14:07:33Z</time>
      </trkpt>
      <trkpt lat="47.72777" lon="-3.33283">
        <ele>15.4</ele>
        <time>2021-08-14T14:07:34Z</time>
      </trkpt>
      <trkpt lat="47.72776" lon="-3.33278">
        <ele>15.6</ele>
        <time>2021-08-14T14:07:35Z</time>
      </trkpt>
      <trkpt lat="47.72776" lon="-3.33274">
        <ele>15.8</ele>
        <time>2021-08-14T14:07:36Z</time>
      </trkpt>
      <trkpt lat="47.72775" lon="-3.33269">
        <ele>15.8</ele>
        <time>2021-08-14T14:07:37Z</time>
      </trkpt>
      <trkpt lat="47.72774" lon="-3.33265">
        <ele>16</ele>
        <time>2021-08-14T14:07:38Z</time>
      </trkpt>
      <trkpt lat="47.72773" lon="-3.33261">
        <ele>16</ele>
        <time>2021-08-14T14:07:39Z</time>
      </trkpt>
      <trkpt lat="47.72772" lon="-3.33256">
        <ele>16.2</ele>
        <time>2021-08-14T14:07:40Z</time>
      </trkpt>
      <trkpt lat="47.72771" lon="-3.33252">
        <ele>16.2</ele>
        <time>2021-08-14T14:07:41Z</time>
      </trkpt>
      <trkpt lat="47.7277" lon="-3.33247">
        <ele>16.2</ele>
        <time>2021-08-14T14:07:42Z</time>
      </trkpt>
      <trkpt lat="47.72769" lon="-3.33243">
        <ele>16.2</ele>
        <time>2021-08-14T14:07:43Z</time>
      </trkpt>
      <trkpt lat="47.72768" lon="-3.33238">
        <ele>16.2</ele>
        <time>2021-08-14T14:07:44Z</time>
      </trkpt>
      <trkpt lat="47.72768" lon="-3.33234">
        <ele>16.2</ele>
        <time>2021-08-14T14:07:45Z</time>
      </trkpt>
      <trkpt lat="47.72767" lon="-3.33229">
        <ele>16.2</ele>
        <time>2021-08-14T14:07:46Z</time>
      </trkpt>
      <trkpt lat="47.72767" lon="-3.33225">
        <ele>16.2</ele>
        <time>2021-08-14T14:07:47Z</time>
      </trkpt>
      <trkpt lat="47.72767" lon="-3.3322">
        <ele>16.4</ele>
        <time>2021-08-14T14:07:48Z</time>
      </trkpt>
      <trkpt lat="47.72766" lon="-3.33216">
        <ele>16.4</ele>
        <time>2021-08-14T14:07:49Z</time>
      </trkpt>
      <trkpt lat="47.72765" lon="-3.33211">
        <ele>16.6</ele>
        <time>2021-08-14T14:07:50Z</time>
      </trkpt>
      <trkpt lat="47.72765" lon="-3.33206">
        <ele>16.6</ele>
        <time>2021-08-14T14:07:51Z</time>
      </trkpt>
      <trkpt lat="47.72764" lon="-3.33201">
        <ele>16.8</ele>
        <time>2021-08-14T14:07:52Z</time>
      </trkpt>
      <trkpt lat="47.72762" lon="-3.33196">
        <ele>16.8</ele>
        <time>2021-08-14T14:07:53Z</time>
      </trkpt>
      <trkpt lat="47.72761" lon="-3.33191">
        <ele>17</ele>
        <time>2021-08-14T14:07:54Z</time>
      </trkpt>
      <trkpt lat="47.7276" lon="-3.33185">
        <ele>17</ele>
        <time>2021-08-14T14:07:55Z</time>
      </trkpt>
      <trkpt lat="47.7276" lon="-3.3318">
        <ele>17.2</ele>
        <time>2021-08-14T14:07:56Z</time>
      </trkpt>
      <trkpt lat="47.72759" lon="-3.33175">
        <ele>17.2</ele>
        <time>2021-08-14T14:07:57Z</time>
      </trkpt>
      <trkpt lat="47.72758" lon="-3.3317">
        <ele>17.2</ele>
        <time>2021-08-14T14:07:58Z</time>
      </trkpt>
      <trkpt lat="47.72757" lon="-3.33165">
        <ele>17.2</ele>
        <time>2021-08-14T14:07:59Z</time>
      </trkpt>
      <trkpt lat="47.72755" lon="-3.3316">
        <ele>17.4</ele>
        <time>2021-08-14T14:08:00Z</time>
      </trkpt>
      <trkpt lat="47.72754" lon="-3.33155">
        <ele>17.4</ele>
        <time>2021-08-14T14:08:01Z</time>
      </trkpt>
      <trkpt lat="47.72753" lon="-3.3315">
        <ele>17.4</ele>
        <time>2021-08-14T14:08:02Z</time>
      </trkpt>
      <trkpt lat="47.72753" lon="-3.33144">
        <ele>17.4</ele>
        <time>2021-08-14T14:08:03Z</time>
      </trkpt>
      <trkpt lat="47.72752" lon="-3.33139">
        <ele>17.4</ele>
        <time>2021-08-14T14:08:04Z</time>
      </trkpt>
      <trkpt lat="47.72751" lon="-3.33134">
        <ele>17.4</ele>
        <time>2021-08-14T14:08:05Z</time>
      </trkpt>
      <trkpt lat="47.7275" lon="-3.33128">
        <ele>17.4</ele>
        <time>2021-08-14T14:08:06Z</time>
      </trkpt>
      <trkpt lat="47.72748" lon="-3.33123">
        <ele>17.4</ele>
        <time>2021-08-14T14:08:07Z</time>
      </trkpt>
      <trkpt lat="47.72747" lon="-3.33117">
        <ele>17.4</ele>
        <time>2021-08-14T14:08:08Z</time>
      </trkpt>
      <trkpt lat="47.72746" lon="-3.33112">
        <ele>17.4</ele>
        <time>2021-08-14T14:08:09Z</time>
      </trkpt>
      <trkpt lat="47.72745" lon="-3.33106">
        <ele>17.4</ele>
        <time>2021-08-14T14:08:10Z</time>
      </trkpt>
      <trkpt lat="47.72744" lon="-3.331">
        <ele>17.4</ele>
        <time>2021-08-14T14:08:11Z</time>
      </trkpt>
      <trkpt lat="47.72743" lon="-3.33095">
        <ele>17.4</ele>
        <time>2021-08-14T14:08:12Z</time>
      </trkpt>
      <trkpt lat="47.72741" lon="-3.33084">
        <ele>17.4</ele>
        <time>2021-08-14T14:08:14Z</time>
      </trkpt>
      <trkpt lat="47.72741" lon="-3.33078">
        <ele>17.4</ele>
        <time>2021-08-14T14:08:15Z</time>
      </trkpt>
      <trkpt lat="47.72739" lon="-3.33072">
        <ele>17.4</ele>
        <time>2021-08-14T14:08:16Z</time>
      </trkpt>
      <trkpt lat="47.72738" lon="-3.33067">
        <ele>17.4</ele>
        <time>2021-08-14T14:08:17Z</time>
      </trkpt>
      <trkpt lat="47.72737" lon="-3.33061">
        <ele>17.4</ele>
        <time>2021-08-14T14:08:18Z</time>
      </trkpt>
      <trkpt lat="47.72736" lon="-3.33055">
        <ele>17.4</ele>
        <time>2021-08-14T14:08:19Z</time>
      </trkpt>
      <trkpt lat="47.72734" lon="-3.33049">
        <ele>17.4</ele>
        <time>2021-08-14T14:08:20Z</time>
      </trkpt>
      <trkpt lat="47.72733" lon="-3.33043">
        <ele>17.4</ele>
        <time>2021-08-14T14:08:21Z</time>
      </trkpt>
      <trkpt lat="47.72732" lon="-3.33037">
        <ele>17.4</ele>
        <time>2021-08-14T14:08:22Z</time>
      </trkpt>
      <trkpt lat="47.7273" lon="-3.33031">
        <ele>17.4</ele>
        <time>2021-08-14T14:08:23Z</time>
      </trkpt>
      <trkpt lat="47.72729" lon="-3.33026">
        <ele>17.4</ele>
        <time>2021-08-14T14:08:24Z</time>
      </trkpt>
      <trkpt lat="47.72727" lon="-3.33021">
        <ele>17.4</ele>
        <time>2021-08-14T14:08:25Z</time>
      </trkpt>
      <trkpt lat="47.72725" lon="-3.33016">
        <ele>17.4</ele>
        <time>2021-08-14T14:08:26Z</time>
      </trkpt>
      <trkpt lat="47.72723" lon="-3.33011">
        <ele>17.4</ele>
        <time>2021-08-14T14:08:27Z</time>
      </trkpt>
      <trkpt lat="47.72722" lon="-3.33006">
        <ele>17.4</ele>
        <time>2021-08-14T14:08:28Z</time>
      </trkpt>
      <trkpt lat="47.7272" lon="-3.33001">
        <ele>17.6</ele>
        <time>2021-08-14T14:08:29Z</time>
      </trkpt>
      <trkpt lat="47.72717" lon="-3.32996">
        <ele>17.6</ele>
        <time>2021-08-14T14:08:30Z</time>
      </trkpt>
      <trkpt lat="47.72715" lon="-3.32992">
        <ele>17.6</ele>
        <time>2021-08-14T14:08:31Z</time>
      </trkpt>
      <trkpt lat="47.72713" lon="-3.32988">
        <ele>17.8</ele>
        <time>2021-08-14T14:08:32Z</time>
      </trkpt>
      <trkpt lat="47.7271" lon="-3.32984">
        <ele>17.8</ele>
        <time>2021-08-14T14:08:33Z</time>
      </trkpt>
      <trkpt lat="47.72708" lon="-3.3298">
        <ele>17.8</ele>
        <time>2021-08-14T14:08:34Z</time>
      </trkpt>
      <trkpt lat="47.72705" lon="-3.32975">
        <ele>17.8</ele>
        <time>2021-08-14T14:08:35Z</time>
      </trkpt>
      <trkpt lat="47.72703" lon="-3.32971">
        <ele>17.8</ele>
        <time>2021-08-14T14:08:36Z</time>
      </trkpt>
      <trkpt lat="47.72701" lon="-3.32967">
        <ele>18</ele>
        <time>2021-08-14T14:08:37Z</time>
      </trkpt>
      <trkpt lat="47.72698" lon="-3.32963">
        <ele>18.4</ele>
        <time>2021-08-14T14:08:38Z</time>
      </trkpt>
      <trkpt lat="47.72696" lon="-3.32959">
        <ele>18.4</ele>
        <time>2021-08-14T14:08:39Z</time>
      </trkpt>
      <trkpt lat="47.72693" lon="-3.32955">
        <ele>18.6</ele>
        <time>2021-08-14T14:08:40Z</time>
      </trkpt>
      <trkpt lat="47.72691" lon="-3.32951">
        <ele>18.8</ele>
        <time>2021-08-14T14:08:41Z</time>
      </trkpt>
      <trkpt lat="47.72688" lon="-3.32947">
        <ele>19</ele>
        <time>2021-08-14T14:08:42Z</time>
      </trkpt>
      <trkpt lat="47.72685" lon="-3.32943">
        <ele>19.2</ele>
        <time>2021-08-14T14:08:43Z</time>
      </trkpt>
      <trkpt lat="47.72683" lon="-3.32939">
        <ele>19.2</ele>
        <time>2021-08-14T14:08:44Z</time>
      </trkpt>
      <trkpt lat="47.7268" lon="-3.32935">
        <ele>19.4</ele>
        <time>2021-08-14T14:08:45Z</time>
      </trkpt>
      <trkpt lat="47.72677" lon="-3.32931">
        <ele>19.6</ele>
        <time>2021-08-14T14:08:46Z</time>
      </trkpt>
      <trkpt lat="47.72675" lon="-3.32927">
        <ele>19.8</ele>
        <time>2021-08-14T14:08:47Z</time>
      </trkpt>
      <trkpt lat="47.72672" lon="-3.32923">
        <ele>19.8</ele>
        <time>2021-08-14T14:08:48Z</time>
      </trkpt>
      <trkpt lat="47.72669" lon="-3.32919">
        <ele>19.8</ele>
        <time>2021-08-14T14:08:49Z</time>
      </trkpt>
      <trkpt lat="47.72667" lon="-3.32915">
        <ele>20</ele>
        <time>2021-08-14T14:08:50Z</time>
      </trkpt>
      <trkpt lat="47.72664" lon="-3.32911">
        <ele>20</ele>
        <time>2021-08-14T14:08:51Z</time>
      </trkpt>
      <trkpt lat="47.72662" lon="-3.32907">
        <ele>20</ele>
        <time>2021-08-14T14:08:52Z</time>
      </trkpt>
      <trkpt lat="47.72659" lon="-3.32903">
        <ele>20</ele>
        <time>2021-08-14T14:08:53Z</time>
      </trkpt>
      <trkpt lat="47.72656" lon="-3.32899">
        <ele>20.2</ele>
        <time>2021-08-14T14:08:54Z</time>
      </trkpt>
      <trkpt lat="47.72654" lon="-3.32895">
        <ele>20.2</ele>
        <time>2021-08-14T14:08:55Z</time>
      </trkpt>
      <trkpt lat="47.72651" lon="-3.32892">
        <ele>20.2</ele>
        <time>2021-08-14T14:08:56Z</time>
      </trkpt>
      <trkpt lat="47.72648" lon="-3.32887">
        <ele>20.2</ele>
        <time>2021-08-14T14:08:57Z</time>
      </trkpt>
      <trkpt lat="47.72646" lon="-3.32883">
        <ele>20.4</ele>
        <time>2021-08-14T14:08:58Z</time>
      </trkpt>
      <trkpt lat="47.72643" lon="-3.32879">
        <ele>20.4</ele>
        <time>2021-08-14T14:08:59Z</time>
      </trkpt>
      <trkpt lat="47.7264" lon="-3.32875">
        <ele>20.4</ele>
        <time>2021-08-14T14:09:00Z</time>
      </trkpt>
      <trkpt lat="47.72637" lon="-3.32871">
        <ele>20.4</ele>
        <time>2021-08-14T14:09:01Z</time>
      </trkpt>
      <trkpt lat="47.72634" lon="-3.32867">
        <ele>20.6</ele>
        <time>2021-08-14T14:09:02Z</time>
      </trkpt>
      <trkpt lat="47.72631" lon="-3.32863">
        <ele>20.6</ele>
        <time>2021-08-14T14:09:03Z</time>
      </trkpt>
      <trkpt lat="47.72629" lon="-3.32859">
        <ele>20.6</ele>
        <time>2021-08-14T14:09:04Z</time>
      </trkpt>
      <trkpt lat="47.72626" lon="-3.32854">
        <ele>20.6</ele>
        <time>2021-08-14T14:09:05Z</time>
      </trkpt>
      <trkpt lat="47.72623" lon="-3.3285">
        <ele>20.6</ele>
        <time>2021-08-14T14:09:06Z</time>
      </trkpt>
      <trkpt lat="47.7262" lon="-3.32846">
        <ele>20.6</ele>
        <time>2021-08-14T14:09:07Z</time>
      </trkpt>
      <trkpt lat="47.72617" lon="-3.32841">
        <ele>20.6</ele>
        <time>2021-08-14T14:09:08Z</time>
      </trkpt>
      <trkpt lat="47.72615" lon="-3.32837">
        <ele>20.6</ele>
        <time>2021-08-14T14:09:09Z</time>
      </trkpt>
      <trkpt lat="47.72612" lon="-3.32833">
        <ele>20.6</ele>
        <time>2021-08-14T14:09:10Z</time>
      </trkpt>
      <trkpt lat="47.72609" lon="-3.32828">
        <ele>20.6</ele>
        <time>2021-08-14T14:09:11Z</time>
      </trkpt>
      <trkpt lat="47.72606" lon="-3.32824">
        <ele>20.6</ele>
        <time>2021-08-14T14:09:12Z</time>
      </trkpt>
      <trkpt lat="47.72603" lon="-3.3282">
        <ele>20.6</ele>
        <time>2021-08-14T14:09:13Z</time>
      </trkpt>
      <trkpt lat="47.726" lon="-3.32816">
        <ele>20.6</ele>
        <time>2021-08-14T14:09:14Z</time>
      </trkpt>
      <trkpt lat="47.72598" lon="-3.32811">
        <ele>20.6</ele>
        <time>2021-08-14T14:09:15Z</time>
      </trkpt>
      <trkpt lat="47.72595" lon="-3.32807">
        <ele>20.6</ele>
        <time>2021-08-14T14:09:16Z</time>
      </trkpt>
      <trkpt lat="47.72592" lon="-3.32803">
        <ele>20.6</ele>
        <time>2021-08-14T14:09:17Z</time>
      </trkpt>
      <trkpt lat="47.72589" lon="-3.32799">
        <ele>20.6</ele>
        <time>2021-08-14T14:09:18Z</time>
      </trkpt>
      <trkpt lat="47.72586" lon="-3.32795">
        <ele>20.6</ele>
        <time>2021-08-14T14:09:19Z</time>
      </trkpt>
      <trkpt lat="47.72583" lon="-3.32791">
        <ele>20.6</ele>
        <time>2021-08-14T14:09:20Z</time>
      </trkpt>
      <trkpt lat="47.7258" lon="-3.32787">
        <ele>20.6</ele>
        <time>2021-08-14T14:09:21Z</time>
      </trkpt>
      <trkpt lat="47.72578" lon="-3.32782">
        <ele>20.6</ele>
        <time>2021-08-14T14:09:22Z</time>
      </trkpt>
      <trkpt lat="47.72575" lon="-3.32778">
        <ele>20.6</ele>
        <time>2021-08-14T14:09:23Z</time>
      </trkpt>
      <trkpt lat="47.72572" lon="-3.32774">
        <ele>20.6</ele>
        <time>2021-08-14T14:09:24Z</time>
      </trkpt>
      <trkpt lat="47.72569" lon="-3.3277">
        <ele>20.6</ele>
        <time>2021-08-14T14:09:25Z</time>
      </trkpt>
      <trkpt lat="47.72566" lon="-3.32766">
        <ele>20.8</ele>
        <time>2021-08-14T14:09:26Z</time>
      </trkpt>
      <trkpt lat="47.72563" lon="-3.32761">
        <ele>20.8</ele>
        <time>2021-08-14T14:09:27Z</time>
      </trkpt>
      <trkpt lat="47.7256" lon="-3.32757">
        <ele>20.8</ele>
        <time>2021-08-14T14:09:28Z</time>
      </trkpt>
      <trkpt lat="47.72558" lon="-3.32753">
        <ele>20.8</ele>
        <time>2021-08-14T14:09:29Z</time>
      </trkpt>
      <trkpt lat="47.72555" lon="-3.32748">
        <ele>20.8</ele>
        <time>2021-08-14T14:09:30Z</time>
      </trkpt>
      <trkpt lat="47.72552" lon="-3.32744">
        <ele>20.8</ele>
        <time>2021-08-14T14:09:31Z</time>
      </trkpt>
      <trkpt lat="47.72548" lon="-3.32739">
        <ele>20.8</ele>
        <time>2021-08-14T14:09:32Z</time>
      </trkpt>
      <trkpt lat="47.72545" lon="-3.32734">
        <ele>20.8</ele>
        <time>2021-08-14T14:09:33Z</time>
      </trkpt>
      <trkpt lat="47.72542" lon="-3.32729">
        <ele>20.8</ele>
        <time>2021-08-14T14:09:34Z</time>
      </trkpt>
      <trkpt lat="47.72538" lon="-3.32724">
        <ele>20.8</ele>
        <time>2021-08-14T14:09:35Z</time>
      </trkpt>
      <trkpt lat="47.72535" lon="-3.32719">
        <ele>21</ele>
        <time>2021-08-14T14:09:36Z</time>
      </trkpt>
      <trkpt lat="47.72532" lon="-3.32714">
        <ele>21</ele>
        <time>2021-08-14T14:09:37Z</time>
      </trkpt>
      <trkpt lat="47.72529" lon="-3.32709">
        <ele>21</ele>
        <time>2021-08-14T14:09:38Z</time>
      </trkpt>
      <trkpt lat="47.72526" lon="-3.32704">
        <ele>21</ele>
        <time>2021-08-14T14:09:39Z</time>
      </trkpt>
      <trkpt lat="47.72523" lon="-3.32699">
        <ele>20.8</ele>
        <time>2021-08-14T14:09:40Z</time>
      </trkpt>
      <trkpt lat="47.7252" lon="-3.32695">
        <ele>20.8</ele>
        <time>2021-08-14T14:09:41Z</time>
      </trkpt>
      <trkpt lat="47.72517" lon="-3.3269">
        <ele>20.8</ele>
        <time>2021-08-14T14:09:42Z</time>
      </trkpt>
      <trkpt lat="47.72513" lon="-3.32686">
        <ele>20.8</ele>
        <time>2021-08-14T14:09:43Z</time>
      </trkpt>
      <trkpt lat="47.7251" lon="-3.32681">
        <ele>20.8</ele>
        <time>2021-08-14T14:09:44Z</time>
      </trkpt>
      <trkpt lat="47.72508" lon="-3.32676">
        <ele>20.6</ele>
        <time>2021-08-14T14:09:45Z</time>
      </trkpt>
      <trkpt lat="47.72505" lon="-3.32672">
        <ele>20.4</ele>
        <time>2021-08-14T14:09:46Z</time>
      </trkpt>
      <trkpt lat="47.72502" lon="-3.32667">
        <ele>20.4</ele>
        <time>2021-08-14T14:09:47Z</time>
      </trkpt>
      <trkpt lat="47.725" lon="-3.32663">
        <ele>20.4</ele>
        <time>2021-08-14T14:09:48Z</time>
      </trkpt>
      <trkpt lat="47.72497" lon="-3.32659">
        <ele>20.4</ele>
        <time>2021-08-14T14:09:49Z</time>
      </trkpt>
      <trkpt lat="47.72494" lon="-3.32655">
        <ele>20.4</ele>
        <time>2021-08-14T14:09:50Z</time>
      </trkpt>
      <trkpt lat="47.72491" lon="-3.32652">
        <ele>20.4</ele>
        <time>2021-08-14T14:09:51Z</time>
      </trkpt>
      <trkpt lat="47.72488" lon="-3.32649">
        <ele>20.4</ele>
        <time>2021-08-14T14:09:52Z</time>
      </trkpt>
      <trkpt lat="47.72485" lon="-3.32647">
        <ele>20.4</ele>
        <time>2021-08-14T14:09:53Z</time>
      </trkpt>
      <trkpt lat="47.72482" lon="-3.32645">
        <ele>20.4</ele>
        <time>2021-08-14T14:09:54Z</time>
      </trkpt>
      <trkpt lat="47.72479" lon="-3.32643">
        <ele>20.4</ele>
        <time>2021-08-14T14:09:55Z</time>
      </trkpt>
      <trkpt lat="47.72478" lon="-3.32641">
        <ele>20.8</ele>
        <time>2021-08-14T14:09:56Z</time>
      </trkpt>
      <trkpt lat="47.72477" lon="-3.32638">
        <ele>20.8</ele>
        <time>2021-08-14T14:09:57Z</time>
      </trkpt>
      <trkpt lat="47.72475" lon="-3.32634">
        <ele>21</ele>
        <time>2021-08-14T14:09:58Z</time>
      </trkpt>
      <trkpt lat="47.72475" lon="-3.3263">
        <ele>21.2</ele>
        <time>2021-08-14T14:09:59Z</time>
      </trkpt>
      <trkpt lat="47.72475" lon="-3.32626">
        <ele>21.4</ele>
        <time>2021-08-14T14:10:00Z</time>
      </trkpt>
      <trkpt lat="47.72475" lon="-3.32622">
        <ele>21.4</ele>
        <time>2021-08-14T14:10:01Z</time>
      </trkpt>
      <trkpt lat="47.72475" lon="-3.32618">
        <ele>21.6</ele>
        <time>2021-08-14T14:10:02Z</time>
      </trkpt>
      <trkpt lat="47.72473" lon="-3.32615">
        <ele>22</ele>
        <time>2021-08-14T14:10:03Z</time>
      </trkpt>
      <trkpt lat="47.72471" lon="-3.32614">
        <ele>22.2</ele>
        <time>2021-08-14T14:10:04Z</time>
      </trkpt>
      <trkpt lat="47.72469" lon="-3.32613">
        <ele>22.6</ele>
        <time>2021-08-14T14:10:05Z</time>
      </trkpt>
      <trkpt lat="47.72468" lon="-3.32612">
        <ele>22.8</ele>
        <time>2021-08-14T14:10:06Z</time>
      </trkpt>
      <trkpt lat="47.72467" lon="-3.3261">
        <ele>22.8</ele>
        <time>2021-08-14T14:10:07Z</time>
      </trkpt>
      <trkpt lat="47.72466" lon="-3.32607">
        <ele>22.8</ele>
        <time>2021-08-14T14:10:08Z</time>
      </trkpt>
      <trkpt lat="47.72465" lon="-3.32605">
        <ele>22.8</ele>
        <time>2021-08-14T14:10:09Z</time>
      </trkpt>
      <trkpt lat="47.72465" lon="-3.32602">
        <ele>23</ele>
        <time>2021-08-14T14:10:10Z</time>
      </trkpt>
      <trkpt lat="47.72464" lon="-3.326">
        <ele>23</ele>
        <time>2021-08-14T14:10:11Z</time>
      </trkpt>
      <trkpt lat="47.72464" lon="-3.32599">
        <ele>23</ele>
        <time>2021-08-14T14:10:12Z</time>
      </trkpt>
      <trkpt lat="47.72463" lon="-3.32597">
        <ele>23</ele>
        <time>2021-08-14T14:10:13Z</time>
      </trkpt>
      <trkpt lat="47.72463" lon="-3.32596">
        <ele>23</ele>
        <time>2021-08-14T14:10:14Z</time>
      </trkpt>
      <trkpt lat="47.72462" lon="-3.32594">
        <ele>23.2</ele>
        <time>2021-08-14T14:10:15Z</time>
      </trkpt>
      <trkpt lat="47.72461" lon="-3.32592">
        <ele>23.2</ele>
        <time>2021-08-14T14:10:16Z</time>
      </trkpt>
      <trkpt lat="47.7246" lon="-3.32591">
        <ele>23.2</ele>
        <time>2021-08-14T14:10:17Z</time>
      </trkpt>
      <trkpt lat="47.7246" lon="-3.32589">
        <ele>23.2</ele>
        <time>2021-08-14T14:10:18Z</time>
      </trkpt>
      <trkpt lat="47.72459" lon="-3.32586">
        <ele>23.4</ele>
        <time>2021-08-14T14:10:19Z</time>
      </trkpt>
      <trkpt lat="47.72459" lon="-3.32584">
        <ele>23.4</ele>
        <time>2021-08-14T14:10:20Z</time>
      </trkpt>
      <trkpt lat="47.72458" lon="-3.32582">
        <ele>23.4</ele>
        <time>2021-08-14T14:10:21Z</time>
      </trkpt>
      <trkpt lat="47.72457" lon="-3.3258">
        <ele>23.4</ele>
        <time>2021-08-14T14:10:22Z</time>
      </trkpt>
      <trkpt lat="47.72456" lon="-3.32578">
        <ele>23.4</ele>
        <time>2021-08-14T14:10:23Z</time>
      </trkpt>
      <trkpt lat="47.72455" lon="-3.32576">
        <ele>23.4</ele>
        <time>2021-08-14T14:10:24Z</time>
      </trkpt>
      <trkpt lat="47.72455" lon="-3.32573">
        <ele>23.4</ele>
        <time>2021-08-14T14:10:25Z</time>
      </trkpt>
      <trkpt lat="47.72454" lon="-3.32571">
        <ele>23.4</ele>
        <time>2021-08-14T14:10:26Z</time>
      </trkpt>
      <trkpt lat="47.72453" lon="-3.32568">
        <ele>23.4</ele>
        <time>2021-08-14T14:10:27Z</time>
      </trkpt>
      <trkpt lat="47.72452" lon="-3.32566">
        <ele>23.4</ele>
        <time>2021-08-14T14:10:28Z</time>
      </trkpt>
      <trkpt lat="47.72452" lon="-3.32563">
        <ele>23.6</ele>
        <time>2021-08-14T14:10:29Z</time>
      </trkpt>
      <trkpt lat="47.72452" lon="-3.3256">
        <ele>23.6</ele>
        <time>2021-08-14T14:10:30Z</time>
      </trkpt>
      <trkpt lat="47.72451" lon="-3.32557">
        <ele>23.6</ele>
        <time>2021-08-14T14:10:31Z</time>
      </trkpt>
      <trkpt lat="47.7245" lon="-3.32554">
        <ele>23.8</ele>
        <time>2021-08-14T14:10:32Z</time>
      </trkpt>
      <trkpt lat="47.72449" lon="-3.32551">
        <ele>23.8</ele>
        <time>2021-08-14T14:10:33Z</time>
      </trkpt>
      <trkpt lat="47.72449" lon="-3.32548">
        <ele>23.8</ele>
        <time>2021-08-14T14:10:34Z</time>
      </trkpt>
      <trkpt lat="47.72448" lon="-3.32544">
        <ele>24</ele>
        <time>2021-08-14T14:10:35Z</time>
      </trkpt>
      <trkpt lat="47.72447" lon="-3.32541">
        <ele>24</ele>
        <time>2021-08-14T14:10:36Z</time>
      </trkpt>
      <trkpt lat="47.72446" lon="-3.32538">
        <ele>23.8</ele>
        <time>2021-08-14T14:10:37Z</time>
      </trkpt>
      <trkpt lat="47.72445" lon="-3.32534">
        <ele>24.2</ele>
        <time>2021-08-14T14:10:38Z</time>
      </trkpt>
      <trkpt lat="47.72444" lon="-3.32531">
        <ele>24</ele>
        <time>2021-08-14T14:10:39Z</time>
      </trkpt>
      <trkpt lat="47.72443" lon="-3.32527">
        <ele>24.4</ele>
        <time>2021-08-14T14:10:40Z</time>
      </trkpt>
      <trkpt lat="47.72443" lon="-3.32524">
        <ele>24.2</ele>
        <time>2021-08-14T14:10:41Z</time>
      </trkpt>
      <trkpt lat="47.72442" lon="-3.3252">
        <ele>24.4</ele>
        <time>2021-08-14T14:10:42Z</time>
      </trkpt>
      <trkpt lat="47.7244" lon="-3.32516">
        <ele>24.6</ele>
        <time>2021-08-14T14:10:43Z</time>
      </trkpt>
      <trkpt lat="47.7244" lon="-3.32512">
        <ele>24.4</ele>
        <time>2021-08-14T14:10:44Z</time>
      </trkpt>
      <trkpt lat="47.72438" lon="-3.32508">
        <ele>24.4</ele>
        <time>2021-08-14T14:10:45Z</time>
      </trkpt>
      <trkpt lat="47.72437" lon="-3.32503">
        <ele>24.6</ele>
        <time>2021-08-14T14:10:46Z</time>
      </trkpt>
      <trkpt lat="47.72436" lon="-3.32499">
        <ele>24.6</ele>
        <time>2021-08-14T14:10:47Z</time>
      </trkpt>
      <trkpt lat="47.72435" lon="-3.32494">
        <ele>24.6</ele>
        <time>2021-08-14T14:10:48Z</time>
      </trkpt>
      <trkpt lat="47.72434" lon="-3.3249">
        <ele>24.6</ele>
        <time>2021-08-14T14:10:49Z</time>
      </trkpt>
      <trkpt lat="47.72433" lon="-3.32485">
        <ele>24.8</ele>
        <time>2021-08-14T14:10:50Z</time>
      </trkpt>
      <trkpt lat="47.72432" lon="-3.3248">
        <ele>24.6</ele>
        <time>2021-08-14T14:10:51Z</time>
      </trkpt>
      <trkpt lat="47.7243" lon="-3.32475">
        <ele>24.6</ele>
        <time>2021-08-14T14:10:52Z</time>
      </trkpt>
      <trkpt lat="47.72429" lon="-3.3247">
        <ele>24.6</ele>
        <time>2021-08-14T14:10:53Z</time>
      </trkpt>
      <trkpt lat="47.72428" lon="-3.32465">
        <ele>24.8</ele>
        <time>2021-08-14T14:10:54Z</time>
      </trkpt>
      <trkpt lat="47.72427" lon="-3.3246">
        <ele>24.8</ele>
        <time>2021-08-14T14:10:55Z</time>
      </trkpt>
      <trkpt lat="47.72426" lon="-3.32456">
        <ele>24.8</ele>
        <time>2021-08-14T14:10:56Z</time>
      </trkpt>
      <trkpt lat="47.72425" lon="-3.32451">
        <ele>24.8</ele>
        <time>2021-08-14T14:10:57Z</time>
      </trkpt>
      <trkpt lat="47.72423" lon="-3.32447">
        <ele>24.8</ele>
        <time>2021-08-14T14:10:58Z</time>
      </trkpt>
      <trkpt lat="47.72422" lon="-3.32442">
        <ele>24.8</ele>
        <time>2021-08-14T14:10:59Z</time>
      </trkpt>
      <trkpt lat="47.72421" lon="-3.32437">
        <ele>24.8</ele>
        <time>2021-08-14T14:11:00Z</time>
      </trkpt>
      <trkpt lat="47.72419" lon="-3.32432">
        <ele>25</ele>
        <time>2021-08-14T14:11:01Z</time>
      </trkpt>
      <trkpt lat="47.72418" lon="-3.32427">
        <ele>25</ele>
        <time>2021-08-14T14:11:02Z</time>
      </trkpt>
      <trkpt lat="47.72416" lon="-3.32423">
        <ele>25</ele>
        <time>2021-08-14T14:11:03Z</time>
      </trkpt>
      <trkpt lat="47.72415" lon="-3.32418">
        <ele>25.2</ele>
        <time>2021-08-14T14:11:04Z</time>
      </trkpt>
      <trkpt lat="47.72413" lon="-3.32413">
        <ele>25.2</ele>
        <time>2021-08-14T14:11:05Z</time>
      </trkpt>
      <trkpt lat="47.72412" lon="-3.32407">
        <ele>25.2</ele>
        <time>2021-08-14T14:11:06Z</time>
      </trkpt>
      <trkpt lat="47.72411" lon="-3.32402">
        <ele>25.4</ele>
        <time>2021-08-14T14:11:07Z</time>
      </trkpt>
      <trkpt lat="47.72409" lon="-3.32397">
        <ele>25.4</ele>
        <time>2021-08-14T14:11:08Z</time>
      </trkpt>
      <trkpt lat="47.72408" lon="-3.32392">
        <ele>25.6</ele>
        <time>2021-08-14T14:11:09Z</time>
      </trkpt>
      <trkpt lat="47.72407" lon="-3.32387">
        <ele>25.8</ele>
        <time>2021-08-14T14:11:10Z</time>
      </trkpt>
      <trkpt lat="47.72406" lon="-3.32382">
        <ele>26</ele>
        <time>2021-08-14T14:11:11Z</time>
      </trkpt>
      <trkpt lat="47.72404" lon="-3.32377">
        <ele>26</ele>
        <time>2021-08-14T14:11:12Z</time>
      </trkpt>
      <trkpt lat="47.72403" lon="-3.32372">
        <ele>26</ele>
        <time>2021-08-14T14:11:13Z</time>
      </trkpt>
      <trkpt lat="47.72402" lon="-3.32367">
        <ele>26.2</ele>
        <time>2021-08-14T14:11:14Z</time>
      </trkpt>
      <trkpt lat="47.72401" lon="-3.32361">
        <ele>26.2</ele>
        <time>2021-08-14T14:11:15Z</time>
      </trkpt>
      <trkpt lat="47.72399" lon="-3.32356">
        <ele>26.4</ele>
        <time>2021-08-14T14:11:16Z</time>
      </trkpt>
      <trkpt lat="47.72398" lon="-3.32351">
        <ele>26.4</ele>
        <time>2021-08-14T14:11:17Z</time>
      </trkpt>
      <trkpt lat="47.72397" lon="-3.32346">
        <ele>26.4</ele>
        <time>2021-08-14T14:11:18Z</time>
      </trkpt>
      <trkpt lat="47.72396" lon="-3.32341">
        <ele>26.4</ele>
        <time>2021-08-14T14:11:19Z</time>
      </trkpt>
      <trkpt lat="47.72395" lon="-3.32336">
        <ele>26.4</ele>
        <time>2021-08-14T14:11:20Z</time>
      </trkpt>
      <trkpt lat="47.72393" lon="-3.32332">
        <ele>26.6</ele>
        <time>2021-08-14T14:11:21Z</time>
      </trkpt>
      <trkpt lat="47.72392" lon="-3.32327">
        <ele>26.6</ele>
        <time>2021-08-14T14:11:22Z</time>
      </trkpt>
      <trkpt lat="47.72391" lon="-3.32323">
        <ele>26.6</ele>
        <time>2021-08-14T14:11:23Z</time>
      </trkpt>
      <trkpt lat="47.7239" lon="-3.32319">
        <ele>26.6</ele>
        <time>2021-08-14T14:11:24Z</time>
      </trkpt>
      <trkpt lat="47.72389" lon="-3.32315">
        <ele>26.6</ele>
        <time>2021-08-14T14:11:25Z</time>
      </trkpt>
      <trkpt lat="47.72387" lon="-3.32311">
        <ele>26.8</ele>
        <time>2021-08-14T14:11:26Z</time>
      </trkpt>
      <trkpt lat="47.72386" lon="-3.32306">
        <ele>26.8</ele>
        <time>2021-08-14T14:11:27Z</time>
      </trkpt>
      <trkpt lat="47.72385" lon="-3.323">
        <ele>26.8</ele>
        <time>2021-08-14T14:11:28Z</time>
      </trkpt>
      <trkpt lat="47.72383" lon="-3.32296">
        <ele>26.8</ele>
        <time>2021-08-14T14:11:29Z</time>
      </trkpt>
      <trkpt lat="47.72382" lon="-3.32291">
        <ele>26.8</ele>
        <time>2021-08-14T14:11:30Z</time>
      </trkpt>
      <trkpt lat="47.72381" lon="-3.32286">
        <ele>26.8</ele>
        <time>2021-08-14T14:11:31Z</time>
      </trkpt>
      <trkpt lat="47.72379" lon="-3.32282">
        <ele>26.8</ele>
        <time>2021-08-14T14:11:32Z</time>
      </trkpt>
      <trkpt lat="47.72378" lon="-3.32279">
        <ele>26.8</ele>
        <time>2021-08-14T14:11:33Z</time>
      </trkpt>
      <trkpt lat="47.72377" lon="-3.32276">
        <ele>26.8</ele>
        <time>2021-08-14T14:11:34Z</time>
      </trkpt>
      <trkpt lat="47.72376" lon="-3.32272">
        <ele>26.8</ele>
        <time>2021-08-14T14:11:35Z</time>
      </trkpt>
      <trkpt lat="47.72376" lon="-3.32269">
        <ele>26.8</ele>
        <time>2021-08-14T14:11:36Z</time>
      </trkpt>
      <trkpt lat="47.72375" lon="-3.32266">
        <ele>26.8</ele>
        <time>2021-08-14T14:11:37Z</time>
      </trkpt>
      <trkpt lat="47.72373" lon="-3.32262">
        <ele>26.8</ele>
        <time>2021-08-14T14:11:38Z</time>
      </trkpt>
      <trkpt lat="47.72372" lon="-3.32258">
        <ele>26.8</ele>
        <time>2021-08-14T14:11:39Z</time>
      </trkpt>
      <trkpt lat="47.72371" lon="-3.32254">
        <ele>26.8</ele>
        <time>2021-08-14T14:11:40Z</time>
      </trkpt>
      <trkpt lat="47.72369" lon="-3.3225">
        <ele>26.8</ele>
        <time>2021-08-14T14:11:41Z</time>
      </trkpt>
      <trkpt lat="47.72368" lon="-3.32246">
        <ele>26.6</ele>
        <time>2021-08-14T14:11:42Z</time>
      </trkpt>
      <trkpt lat="47.72367" lon="-3.3224">
        <ele>26.6</ele>
        <time>2021-08-14T14:11:43Z</time>
      </trkpt>
      <trkpt lat="47.72366" lon="-3.32234">
        <ele>26.6</ele>
        <time>2021-08-14T14:11:44Z</time>
      </trkpt>
      <trkpt lat="47.72365" lon="-3.3223">
        <ele>26.6</ele>
        <time>2021-08-14T14:11:45Z</time>
      </trkpt>
      <trkpt lat="47.72365" lon="-3.32226">
        <ele>26.6</ele>
        <time>2021-08-14T14:11:46Z</time>
      </trkpt>
      <trkpt lat="47.72365" lon="-3.32224">
        <ele>26.6</ele>
        <time>2021-08-14T14:11:47Z</time>
      </trkpt>
      <trkpt lat="47.72365" lon="-3.32222">
        <ele>26.6</ele>
        <time>2021-08-14T14:11:48Z</time>
      </trkpt>
      <trkpt lat="47.72364" lon="-3.32214">
        <ele>26.6</ele>
        <time>2021-08-14T14:11:54Z</time>
      </trkpt>
      <trkpt lat="47.72363" lon="-3.32214">
        <ele>26.6</ele>
        <time>2021-08-14T14:11:55Z</time>
      </trkpt>
      <trkpt lat="47.72363" lon="-3.32214">
        <ele>26.6</ele>
        <time>2021-08-14T14:11:56Z</time>
      </trkpt>
      <trkpt lat="47.72363" lon="-3.32211">
        <ele>26.6</ele>
        <time>2021-08-14T14:12:14Z</time>
      </trkpt>
      <trkpt lat="47.72363" lon="-3.32209">
        <ele>26.6</ele>
        <time>2021-08-14T14:12:15Z</time>
      </trkpt>
      <trkpt lat="47.72362" lon="-3.32208">
        <ele>26.6</ele>
        <time>2021-08-14T14:12:16Z</time>
      </trkpt>
      <trkpt lat="47.7236" lon="-3.32206">
        <ele>26.6</ele>
        <time>2021-08-14T14:12:17Z</time>
      </trkpt>
      <trkpt lat="47.72358" lon="-3.32203">
        <ele>26.6</ele>
        <time>2021-08-14T14:12:18Z</time>
      </trkpt>
      <trkpt lat="47.72356" lon="-3.322">
        <ele>26.6</ele>
        <time>2021-08-14T14:12:19Z</time>
      </trkpt>
      <trkpt lat="47.72353" lon="-3.32198">
        <ele>26.6</ele>
        <time>2021-08-14T14:12:20Z</time>
      </trkpt>
      <trkpt lat="47.7235" lon="-3.32194">
        <ele>26.6</ele>
        <time>2021-08-14T14:12:21Z</time>
      </trkpt>
      <trkpt lat="47.72347" lon="-3.3219">
        <ele>26.6</ele>
        <time>2021-08-14T14:12:22Z</time>
      </trkpt>
      <trkpt lat="47.72345" lon="-3.32185">
        <ele>26.6</ele>
        <time>2021-08-14T14:12:23Z</time>
      </trkpt>
      <trkpt lat="47.72343" lon="-3.3218">
        <ele>26.6</ele>
        <time>2021-08-14T14:12:24Z</time>
      </trkpt>
      <trkpt lat="47.72341" lon="-3.32175">
        <ele>26.6</ele>
        <time>2021-08-14T14:12:25Z</time>
      </trkpt>
      <trkpt lat="47.72338" lon="-3.3217">
        <ele>26.4</ele>
        <time>2021-08-14T14:12:26Z</time>
      </trkpt>
      <trkpt lat="47.72335" lon="-3.32167">
        <ele>26.4</ele>
        <time>2021-08-14T14:12:27Z</time>
      </trkpt>
      <trkpt lat="47.72331" lon="-3.32163">
        <ele>26.4</ele>
        <time>2021-08-14T14:12:28Z</time>
      </trkpt>
      <trkpt lat="47.72328" lon="-3.32158">
        <ele>26.2</ele>
        <time>2021-08-14T14:12:29Z</time>
      </trkpt>
      <trkpt lat="47.72325" lon="-3.32154">
        <ele>26</ele>
        <time>2021-08-14T14:12:30Z</time>
      </trkpt>
      <trkpt lat="47.72322" lon="-3.32149">
        <ele>26</ele>
        <time>2021-08-14T14:12:31Z</time>
      </trkpt>
      <trkpt lat="47.72319" lon="-3.32144">
        <ele>26</ele>
        <time>2021-08-14T14:12:32Z</time>
      </trkpt>
      <trkpt lat="47.72315" lon="-3.3214">
        <ele>25.8</ele>
        <time>2021-08-14T14:12:33Z</time>
      </trkpt>
      <trkpt lat="47.72312" lon="-3.32136">
        <ele>25.8</ele>
        <time>2021-08-14T14:12:34Z</time>
      </trkpt>
      <trkpt lat="47.72308" lon="-3.32131">
        <ele>25.8</ele>
        <time>2021-08-14T14:12:35Z</time>
      </trkpt>
      <trkpt lat="47.72304" lon="-3.32126">
        <ele>25.8</ele>
        <time>2021-08-14T14:12:36Z</time>
      </trkpt>
      <trkpt lat="47.723" lon="-3.32122">
        <ele>25.6</ele>
        <time>2021-08-14T14:12:37Z</time>
      </trkpt>
      <trkpt lat="47.72296" lon="-3.32117">
        <ele>25.4</ele>
        <time>2021-08-14T14:12:38Z</time>
      </trkpt>
      <trkpt lat="47.72293" lon="-3.32112">
        <ele>25.4</ele>
        <time>2021-08-14T14:12:39Z</time>
      </trkpt>
      <trkpt lat="47.72289" lon="-3.32108">
        <ele>25.4</ele>
        <time>2021-08-14T14:12:40Z</time>
      </trkpt>
      <trkpt lat="47.72285" lon="-3.32104">
        <ele>25.2</ele>
        <time>2021-08-14T14:12:41Z</time>
      </trkpt>
      <trkpt lat="47.72281" lon="-3.32101">
        <ele>25.2</ele>
        <time>2021-08-14T14:12:42Z</time>
      </trkpt>
      <trkpt lat="47.72278" lon="-3.32098">
        <ele>25.2</ele>
        <time>2021-08-14T14:12:43Z</time>
      </trkpt>
      <trkpt lat="47.72275" lon="-3.32094">
        <ele>25</ele>
        <time>2021-08-14T14:12:44Z</time>
      </trkpt>
      <trkpt lat="47.72273" lon="-3.32089">
        <ele>25</ele>
        <time>2021-08-14T14:12:45Z</time>
      </trkpt>
      <trkpt lat="47.72272" lon="-3.32084">
        <ele>25</ele>
        <time>2021-08-14T14:12:46Z</time>
      </trkpt>
      <trkpt lat="47.7227" lon="-3.32079">
        <ele>25</ele>
        <time>2021-08-14T14:12:47Z</time>
      </trkpt>
      <trkpt lat="47.72268" lon="-3.32076">
        <ele>25</ele>
        <time>2021-08-14T14:12:48Z</time>
      </trkpt>
      <trkpt lat="47.72264" lon="-3.32073">
        <ele>25</ele>
        <time>2021-08-14T14:12:49Z</time>
      </trkpt>
      <trkpt lat="47.72261" lon="-3.3207">
        <ele>25</ele>
        <time>2021-08-14T14:12:50Z</time>
      </trkpt>
      <trkpt lat="47.72258" lon="-3.32067">
        <ele>24.8</ele>
        <time>2021-08-14T14:12:51Z</time>
      </trkpt>
      <trkpt lat="47.72255" lon="-3.32064">
        <ele>24.8</ele>
        <time>2021-08-14T14:12:52Z</time>
      </trkpt>
      <trkpt lat="47.72252" lon="-3.32061">
        <ele>24.8</ele>
        <time>2021-08-14T14:12:53Z</time>
      </trkpt>
      <trkpt lat="47.72248" lon="-3.32058">
        <ele>24.8</ele>
        <time>2021-08-14T14:12:54Z</time>
      </trkpt>
      <trkpt lat="47.72244" lon="-3.32057">
        <ele>24.8</ele>
        <time>2021-08-14T14:12:55Z</time>
      </trkpt>
      <trkpt lat="47.7224" lon="-3.32055">
        <ele>24.8</ele>
        <time>2021-08-14T14:12:56Z</time>
      </trkpt>
      <trkpt lat="47.72236" lon="-3.32052">
        <ele>24.8</ele>
        <time>2021-08-14T14:12:57Z</time>
      </trkpt>
      <trkpt lat="47.72233" lon="-3.32049">
        <ele>25</ele>
        <time>2021-08-14T14:12:58Z</time>
      </trkpt>
      <trkpt lat="47.72229" lon="-3.32045">
        <ele>25</ele>
        <time>2021-08-14T14:12:59Z</time>
      </trkpt>
      <trkpt lat="47.72225" lon="-3.32041">
        <ele>25</ele>
        <time>2021-08-14T14:13:00Z</time>
      </trkpt>
      <trkpt lat="47.72222" lon="-3.32036">
        <ele>25</ele>
        <time>2021-08-14T14:13:01Z</time>
      </trkpt>
      <trkpt lat="47.72218" lon="-3.32032">
        <ele>25</ele>
        <time>2021-08-14T14:13:02Z</time>
      </trkpt>
      <trkpt lat="47.72215" lon="-3.32028">
        <ele>25</ele>
        <time>2021-08-14T14:13:03Z</time>
      </trkpt>
      <trkpt lat="47.72211" lon="-3.32025">
        <ele>25</ele>
        <time>2021-08-14T14:13:04Z</time>
      </trkpt>
      <trkpt lat="47.72207" lon="-3.32021">
        <ele>25</ele>
        <time>2021-08-14T14:13:05Z</time>
      </trkpt>
      <trkpt lat="47.72204" lon="-3.32017">
        <ele>25</ele>
        <time>2021-08-14T14:13:06Z</time>
      </trkpt>
      <trkpt lat="47.722" lon="-3.32013">
        <ele>25</ele>
        <time>2021-08-14T14:13:07Z</time>
      </trkpt>
      <trkpt lat="47.72196" lon="-3.32009">
        <ele>25</ele>
        <time>2021-08-14T14:13:08Z</time>
      </trkpt>
      <trkpt lat="47.72193" lon="-3.32005">
        <ele>25</ele>
        <time>2021-08-14T14:13:09Z</time>
      </trkpt>
      <trkpt lat="47.72189" lon="-3.32001">
        <ele>25</ele>
        <time>2021-08-14T14:13:10Z</time>
      </trkpt>
      <trkpt lat="47.72186" lon="-3.31998">
        <ele>25</ele>
        <time>2021-08-14T14:13:11Z</time>
      </trkpt>
      <trkpt lat="47.72182" lon="-3.31994">
        <ele>25</ele>
        <time>2021-08-14T14:13:12Z</time>
      </trkpt>
      <trkpt lat="47.72179" lon="-3.31991">
        <ele>25</ele>
        <time>2021-08-14T14:13:13Z</time>
      </trkpt>
      <trkpt lat="47.72175" lon="-3.31987">
        <ele>25</ele>
        <time>2021-08-14T14:13:14Z</time>
      </trkpt>
      <trkpt lat="47.72172" lon="-3.31983">
        <ele>25</ele>
        <time>2021-08-14T14:13:15Z</time>
      </trkpt>
      <trkpt lat="47.72168" lon="-3.31979">
        <ele>25.2</ele>
        <time>2021-08-14T14:13:16Z</time>
      </trkpt>
      <trkpt lat="47.72165" lon="-3.31975">
        <ele>25.6</ele>
        <time>2021-08-14T14:13:17Z</time>
      </trkpt>
      <trkpt lat="47.72162" lon="-3.31971">
        <ele>25.8</ele>
        <time>2021-08-14T14:13:18Z</time>
      </trkpt>
      <trkpt lat="47.72158" lon="-3.31967">
        <ele>26</ele>
        <time>2021-08-14T14:13:19Z</time>
      </trkpt>
      <trkpt lat="47.72155" lon="-3.31963">
        <ele>26</ele>
        <time>2021-08-14T14:13:20Z</time>
      </trkpt>
      <trkpt lat="47.72152" lon="-3.31959">
        <ele>26</ele>
        <time>2021-08-14T14:13:21Z</time>
      </trkpt>
      <trkpt lat="47.72148" lon="-3.31955">
        <ele>26.2</ele>
        <time>2021-08-14T14:13:22Z</time>
      </trkpt>
      <trkpt lat="47.72145" lon="-3.31952">
        <ele>26.2</ele>
        <time>2021-08-14T14:13:23Z</time>
      </trkpt>
      <trkpt lat="47.72142" lon="-3.31948">
        <ele>26.2</ele>
        <time>2021-08-14T14:13:24Z</time>
      </trkpt>
      <trkpt lat="47.72139" lon="-3.31945">
        <ele>26.4</ele>
        <time>2021-08-14T14:13:25Z</time>
      </trkpt>
      <trkpt lat="47.72137" lon="-3.31942">
        <ele>26.4</ele>
        <time>2021-08-14T14:13:26Z</time>
      </trkpt>
      <trkpt lat="47.72134" lon="-3.31939">
        <ele>26.4</ele>
        <time>2021-08-14T14:13:27Z</time>
      </trkpt>
      <trkpt lat="47.72131" lon="-3.31936">
        <ele>26.6</ele>
        <time>2021-08-14T14:13:28Z</time>
      </trkpt>
      <trkpt lat="47.72128" lon="-3.31933">
        <ele>26.6</ele>
        <time>2021-08-14T14:13:29Z</time>
      </trkpt>
      <trkpt lat="47.72125" lon="-3.31929">
        <ele>26.6</ele>
        <time>2021-08-14T14:13:30Z</time>
      </trkpt>
      <trkpt lat="47.72121" lon="-3.31926">
        <ele>26.6</ele>
        <time>2021-08-14T14:13:31Z</time>
      </trkpt>
      <trkpt lat="47.72118" lon="-3.31923">
        <ele>26.6</ele>
        <time>2021-08-14T14:13:32Z</time>
      </trkpt>
      <trkpt lat="47.72115" lon="-3.31919">
        <ele>26.6</ele>
        <time>2021-08-14T14:13:33Z</time>
      </trkpt>
      <trkpt lat="47.72112" lon="-3.31915">
        <ele>26.6</ele>
        <time>2021-08-14T14:13:34Z</time>
      </trkpt>
      <trkpt lat="47.72109" lon="-3.31911">
        <ele>26.6</ele>
        <time>2021-08-14T14:13:35Z</time>
      </trkpt>
      <trkpt lat="47.72106" lon="-3.31908">
        <ele>26.6</ele>
        <time>2021-08-14T14:13:36Z</time>
      </trkpt>
      <trkpt lat="47.72103" lon="-3.31904">
        <ele>26.6</ele>
        <time>2021-08-14T14:13:37Z</time>
      </trkpt>
      <trkpt lat="47.72099" lon="-3.319">
        <ele>26.6</ele>
        <time>2021-08-14T14:13:38Z</time>
      </trkpt>
      <trkpt lat="47.72096" lon="-3.31897">
        <ele>26.6</ele>
        <time>2021-08-14T14:13:39Z</time>
      </trkpt>
      <trkpt lat="47.72093" lon="-3.31893">
        <ele>26.6</ele>
        <time>2021-08-14T14:13:40Z</time>
      </trkpt>
      <trkpt lat="47.7209" lon="-3.31889">
        <ele>26.6</ele>
        <time>2021-08-14T14:13:41Z</time>
      </trkpt>
      <trkpt lat="47.72086" lon="-3.31886">
        <ele>26.6</ele>
        <time>2021-08-14T14:13:42Z</time>
      </trkpt>
      <trkpt lat="47.72083" lon="-3.31884">
        <ele>26.6</ele>
        <time>2021-08-14T14:13:43Z</time>
      </trkpt>
      <trkpt lat="47.72079" lon="-3.31884">
        <ele>26.6</ele>
        <time>2021-08-14T14:13:44Z</time>
      </trkpt>
      <trkpt lat="47.72076" lon="-3.31886">
        <ele>26.4</ele>
        <time>2021-08-14T14:13:45Z</time>
      </trkpt>
      <trkpt lat="47.72074" lon="-3.31888">
        <ele>26.2</ele>
        <time>2021-08-14T14:13:46Z</time>
      </trkpt>
      <trkpt lat="47.72071" lon="-3.3189">
        <ele>26</ele>
        <time>2021-08-14T14:13:47Z</time>
      </trkpt>
      <trkpt lat="47.72068" lon="-3.31891">
        <ele>25.6</ele>
        <time>2021-08-14T14:13:48Z</time>
      </trkpt>
      <trkpt lat="47.72065" lon="-3.31893">
        <ele>25.6</ele>
        <time>2021-08-14T14:13:49Z</time>
      </trkpt>
      <trkpt lat="47.72062" lon="-3.31893">
        <ele>25.4</ele>
        <time>2021-08-14T14:13:50Z</time>
      </trkpt>
      <trkpt lat="47.72059" lon="-3.3189">
        <ele>25.4</ele>
        <time>2021-08-14T14:13:51Z</time>
      </trkpt>
      <trkpt lat="47.72056" lon="-3.31885">
        <ele>25.4</ele>
        <time>2021-08-14T14:13:52Z</time>
      </trkpt>
      <trkpt lat="47.72054" lon="-3.31878">
        <ele>25.4</ele>
        <time>2021-08-14T14:13:53Z</time>
      </trkpt>
      <trkpt lat="47.72052" lon="-3.31871">
        <ele>25.2</ele>
        <time>2021-08-14T14:13:54Z</time>
      </trkpt>
      <trkpt lat="47.72048" lon="-3.31865">
        <ele>25.2</ele>
        <time>2021-08-14T14:13:55Z</time>
      </trkpt>
      <trkpt lat="47.72043" lon="-3.31861">
        <ele>25</ele>
        <time>2021-08-14T14:13:56Z</time>
      </trkpt>
      <trkpt lat="47.72037" lon="-3.31856">
        <ele>24.8</ele>
        <time>2021-08-14T14:13:57Z</time>
      </trkpt>
      <trkpt lat="47.72032" lon="-3.31851">
        <ele>24.8</ele>
        <time>2021-08-14T14:13:58Z</time>
      </trkpt>
      <trkpt lat="47.72027" lon="-3.31844">
        <ele>24.8</ele>
        <time>2021-08-14T14:13:59Z</time>
      </trkpt>
      <trkpt lat="47.72021" lon="-3.31838">
        <ele>24.6</ele>
        <time>2021-08-14T14:14:00Z</time>
      </trkpt>
      <trkpt lat="47.72016" lon="-3.31831">
        <ele>24.4</ele>
        <time>2021-08-14T14:14:01Z</time>
      </trkpt>
      <trkpt lat="47.7201" lon="-3.31824">
        <ele>24.2</ele>
        <time>2021-08-14T14:14:02Z</time>
      </trkpt>
      <trkpt lat="47.72004" lon="-3.31817">
        <ele>23.8</ele>
        <time>2021-08-14T14:14:03Z</time>
      </trkpt>
      <trkpt lat="47.71998" lon="-3.3181">
        <ele>23.2</ele>
        <time>2021-08-14T14:14:04Z</time>
      </trkpt>
      <trkpt lat="47.71991" lon="-3.31803">
        <ele>22.8</ele>
        <time>2021-08-14T14:14:05Z</time>
      </trkpt>
      <trkpt lat="47.71985" lon="-3.31796">
        <ele>22.4</ele>
        <time>2021-08-14T14:14:06Z</time>
      </trkpt>
      <trkpt lat="47.71978" lon="-3.31789">
        <ele>22</ele>
        <time>2021-08-14T14:14:07Z</time>
      </trkpt>
      <trkpt lat="47.71972" lon="-3.31783">
        <ele>21.8</ele>
        <time>2021-08-14T14:14:08Z</time>
      </trkpt>
      <trkpt lat="47.71965" lon="-3.31777">
        <ele>21.4</ele>
        <time>2021-08-14T14:14:09Z</time>
      </trkpt>
      <trkpt lat="47.71959" lon="-3.3177">
        <ele>21</ele>
        <time>2021-08-14T14:14:10Z</time>
      </trkpt>
      <trkpt lat="47.71952" lon="-3.31763">
        <ele>20.8</ele>
        <time>2021-08-14T14:14:11Z</time>
      </trkpt>
      <trkpt lat="47.71946" lon="-3.31756">
        <ele>20.4</ele>
        <time>2021-08-14T14:14:12Z</time>
      </trkpt>
      <trkpt lat="47.7194" lon="-3.3175">
        <ele>19.8</ele>
        <time>2021-08-14T14:14:13Z</time>
      </trkpt>
      <trkpt lat="47.71933" lon="-3.31743">
        <ele>19.4</ele>
        <time>2021-08-14T14:14:14Z</time>
      </trkpt>
      <trkpt lat="47.71927" lon="-3.31736">
        <ele>18.4</ele>
        <time>2021-08-14T14:14:15Z</time>
      </trkpt>
      <trkpt lat="47.71921" lon="-3.3173">
        <ele>18</ele>
        <time>2021-08-14T14:14:16Z</time>
      </trkpt>
      <trkpt lat="47.71915" lon="-3.31723">
        <ele>17.6</ele>
        <time>2021-08-14T14:14:17Z</time>
      </trkpt>
      <trkpt lat="47.71909" lon="-3.31717">
        <ele>17.4</ele>
        <time>2021-08-14T14:14:18Z</time>
      </trkpt>
      <trkpt lat="47.71903" lon="-3.31711">
        <ele>17</ele>
        <time>2021-08-14T14:14:19Z</time>
      </trkpt>
      <trkpt lat="47.71897" lon="-3.31704">
        <ele>16.8</ele>
        <time>2021-08-14T14:14:20Z</time>
      </trkpt>
      <trkpt lat="47.71892" lon="-3.31698">
        <ele>16.6</ele>
        <time>2021-08-14T14:14:21Z</time>
      </trkpt>
      <trkpt lat="47.71886" lon="-3.31692">
        <ele>16.6</ele>
        <time>2021-08-14T14:14:22Z</time>
      </trkpt>
      <trkpt lat="47.7188" lon="-3.31686">
        <ele>16.4</ele>
        <time>2021-08-14T14:14:23Z</time>
      </trkpt>
      <trkpt lat="47.71874" lon="-3.31681">
        <ele>16.4</ele>
        <time>2021-08-14T14:14:24Z</time>
      </trkpt>
      <trkpt lat="47.71869" lon="-3.31675">
        <ele>16.2</ele>
        <time>2021-08-14T14:14:25Z</time>
      </trkpt>
      <trkpt lat="47.71864" lon="-3.31669">
        <ele>16.2</ele>
        <time>2021-08-14T14:14:26Z</time>
      </trkpt>
      <trkpt lat="47.71858" lon="-3.31665">
        <ele>16.2</ele>
        <time>2021-08-14T14:14:27Z</time>
      </trkpt>
      <trkpt lat="47.71853" lon="-3.31662">
        <ele>16.2</ele>
        <time>2021-08-14T14:14:28Z</time>
      </trkpt>
      <trkpt lat="47.71847" lon="-3.31661">
        <ele>16.2</ele>
        <time>2021-08-14T14:14:29Z</time>
      </trkpt>
      <trkpt lat="47.71842" lon="-3.31661">
        <ele>16.2</ele>
        <time>2021-08-14T14:14:30Z</time>
      </trkpt>
      <trkpt lat="47.71837" lon="-3.31663">
        <ele>16.2</ele>
        <time>2021-08-14T14:14:31Z</time>
      </trkpt>
      <trkpt lat="47.71834" lon="-3.31666">
        <ele>16.2</ele>
        <time>2021-08-14T14:14:32Z</time>
      </trkpt>
      <trkpt lat="47.7183" lon="-3.31667">
        <ele>16.2</ele>
        <time>2021-08-14T14:14:33Z</time>
      </trkpt>
      <trkpt lat="47.71828" lon="-3.31666">
        <ele>16.4</ele>
        <time>2021-08-14T14:14:34Z</time>
      </trkpt>
      <trkpt lat="47.71826" lon="-3.31664">
        <ele>16.4</ele>
        <time>2021-08-14T14:14:35Z</time>
      </trkpt>
      <trkpt lat="47.71825" lon="-3.31661">
        <ele>16.6</ele>
        <time>2021-08-14T14:14:36Z</time>
      </trkpt>
      <trkpt lat="47.71825" lon="-3.31658">
        <ele>16.6</ele>
        <time>2021-08-14T14:14:37Z</time>
      </trkpt>
      <trkpt lat="47.71826" lon="-3.31656">
        <ele>16.8</ele>
        <time>2021-08-14T14:14:38Z</time>
      </trkpt>
      <trkpt lat="47.71828" lon="-3.31654">
        <ele>17</ele>
        <time>2021-08-14T14:14:39Z</time>
      </trkpt>
      <trkpt lat="47.71829" lon="-3.31652">
        <ele>17.2</ele>
        <time>2021-08-14T14:14:40Z</time>
      </trkpt>
      <trkpt lat="47.7183" lon="-3.3165">
        <ele>17.6</ele>
        <time>2021-08-14T14:14:41Z</time>
      </trkpt>
      <trkpt lat="47.71832" lon="-3.31648">
        <ele>18</ele>
        <time>2021-08-14T14:14:42Z</time>
      </trkpt>
      <trkpt lat="47.71834" lon="-3.31645">
        <ele>18.2</ele>
        <time>2021-08-14T14:14:43Z</time>
      </trkpt>
      <trkpt lat="47.71835" lon="-3.31643">
        <ele>18.4</ele>
        <time>2021-08-14T14:14:44Z</time>
      </trkpt>
      <trkpt lat="47.71836" lon="-3.31641">
        <ele>18.8</ele>
        <time>2021-08-14T14:14:45Z</time>
      </trkpt>
      <trkpt lat="47.71836" lon="-3.31638">
        <ele>19</ele>
        <time>2021-08-14T14:14:46Z</time>
      </trkpt>
      <trkpt lat="47.71835" lon="-3.31636">
        <ele>19.2</ele>
        <time>2021-08-14T14:14:47Z</time>
      </trkpt>
      <trkpt lat="47.71834" lon="-3.31633">
        <ele>19.2</ele>
        <time>2021-08-14T14:14:48Z</time>
      </trkpt>
      <trkpt lat="47.71833" lon="-3.31631">
        <ele>19.2</ele>
        <time>2021-08-14T14:14:49Z</time>
      </trkpt>
      <trkpt lat="47.71831" lon="-3.31628">
        <ele>19.2</ele>
        <time>2021-08-14T14:14:50Z</time>
      </trkpt>
      <trkpt lat="47.71829" lon="-3.31625">
        <ele>19.2</ele>
        <time>2021-08-14T14:14:51Z</time>
      </trkpt>
      <trkpt lat="47.71827" lon="-3.31622">
        <ele>19.2</ele>
        <time>2021-08-14T14:14:52Z</time>
      </trkpt>
      <trkpt lat="47.71825" lon="-3.3162">
        <ele>19.2</ele>
        <time>2021-08-14T14:14:53Z</time>
      </trkpt>
      <trkpt lat="47.71823" lon="-3.31617">
        <ele>19.2</ele>
        <time>2021-08-14T14:14:54Z</time>
      </trkpt>
      <trkpt lat="47.71822" lon="-3.31614">
        <ele>19.2</ele>
        <time>2021-08-14T14:14:55Z</time>
      </trkpt>
      <trkpt lat="47.7182" lon="-3.31612">
        <ele>19.2</ele>
        <time>2021-08-14T14:14:56Z</time>
      </trkpt>
      <trkpt lat="47.71818" lon="-3.31609">
        <ele>19.2</ele>
        <time>2021-08-14T14:14:57Z</time>
      </trkpt>
      <trkpt lat="47.71816" lon="-3.31606">
        <ele>19.2</ele>
        <time>2021-08-14T14:14:58Z</time>
      </trkpt>
      <trkpt lat="47.71814" lon="-3.31603">
        <ele>19.2</ele>
        <time>2021-08-14T14:14:59Z</time>
      </trkpt>
      <trkpt lat="47.71812" lon="-3.316">
        <ele>19.2</ele>
        <time>2021-08-14T14:15:00Z</time>
      </trkpt>
      <trkpt lat="47.7181" lon="-3.31597">
        <ele>19</ele>
        <time>2021-08-14T14:15:01Z</time>
      </trkpt>
      <trkpt lat="47.71808" lon="-3.31593">
        <ele>19</ele>
        <time>2021-08-14T14:15:02Z</time>
      </trkpt>
      <trkpt lat="47.71806" lon="-3.3159">
        <ele>19</ele>
        <time>2021-08-14T14:15:03Z</time>
      </trkpt>
      <trkpt lat="47.71805" lon="-3.31587">
        <ele>19</ele>
        <time>2021-08-14T14:15:04Z</time>
      </trkpt>
      <trkpt lat="47.71803" lon="-3.31584">
        <ele>19</ele>
        <time>2021-08-14T14:15:05Z</time>
      </trkpt>
      <trkpt lat="47.718" lon="-3.31581">
        <ele>19</ele>
        <time>2021-08-14T14:15:06Z</time>
      </trkpt>
      <trkpt lat="47.71798" lon="-3.31578">
        <ele>19</ele>
        <time>2021-08-14T14:15:07Z</time>
      </trkpt>
      <trkpt lat="47.71796" lon="-3.31574">
        <ele>19</ele>
        <time>2021-08-14T14:15:08Z</time>
      </trkpt>
      <trkpt lat="47.71794" lon="-3.3157">
        <ele>19.2</ele>
        <time>2021-08-14T14:15:09Z</time>
      </trkpt>
      <trkpt lat="47.71792" lon="-3.31567">
        <ele>19.2</ele>
        <time>2021-08-14T14:15:10Z</time>
      </trkpt>
      <trkpt lat="47.7179" lon="-3.31563">
        <ele>19.2</ele>
        <time>2021-08-14T14:15:11Z</time>
      </trkpt>
      <trkpt lat="47.71788" lon="-3.31559">
        <ele>19.2</ele>
        <time>2021-08-14T14:15:12Z</time>
      </trkpt>
      <trkpt lat="47.71785" lon="-3.31554">
        <ele>19.2</ele>
        <time>2021-08-14T14:15:13Z</time>
      </trkpt>
      <trkpt lat="47.71783" lon="-3.31549">
        <ele>19.2</ele>
        <time>2021-08-14T14:15:14Z</time>
      </trkpt>
      <trkpt lat="47.7178" lon="-3.31544">
        <ele>19.2</ele>
        <time>2021-08-14T14:15:15Z</time>
      </trkpt>
      <trkpt lat="47.71778" lon="-3.31539">
        <ele>19.2</ele>
        <time>2021-08-14T14:15:16Z</time>
      </trkpt>
      <trkpt lat="47.71775" lon="-3.31534">
        <ele>19.2</ele>
        <time>2021-08-14T14:15:17Z</time>
      </trkpt>
      <trkpt lat="47.71772" lon="-3.31529">
        <ele>19.2</ele>
        <time>2021-08-14T14:15:18Z</time>
      </trkpt>
      <trkpt lat="47.7177" lon="-3.31525">
        <ele>19.2</ele>
        <time>2021-08-14T14:15:19Z</time>
      </trkpt>
      <trkpt lat="47.71767" lon="-3.3152">
        <ele>19.2</ele>
        <time>2021-08-14T14:15:20Z</time>
      </trkpt>
      <trkpt lat="47.71764" lon="-3.31515">
        <ele>19.2</ele>
        <time>2021-08-14T14:15:21Z</time>
      </trkpt>
      <trkpt lat="47.71762" lon="-3.3151">
        <ele>19.4</ele>
        <time>2021-08-14T14:15:22Z</time>
      </trkpt>
      <trkpt lat="47.71759" lon="-3.31505">
        <ele>19.4</ele>
        <time>2021-08-14T14:15:23Z</time>
      </trkpt>
      <trkpt lat="47.71757" lon="-3.315">
        <ele>19.4</ele>
        <time>2021-08-14T14:15:24Z</time>
      </trkpt>
      <trkpt lat="47.71754" lon="-3.31496">
        <ele>19.6</ele>
        <time>2021-08-14T14:15:25Z</time>
      </trkpt>
      <trkpt lat="47.71752" lon="-3.31491">
        <ele>19.6</ele>
        <time>2021-08-14T14:15:26Z</time>
      </trkpt>
      <trkpt lat="47.71749" lon="-3.31486">
        <ele>19.6</ele>
        <time>2021-08-14T14:15:27Z</time>
      </trkpt>
      <trkpt lat="47.71746" lon="-3.31481">
        <ele>19.6</ele>
        <time>2021-08-14T14:15:28Z</time>
      </trkpt>
      <trkpt lat="47.71743" lon="-3.31476">
        <ele>19.8</ele>
        <time>2021-08-14T14:15:29Z</time>
      </trkpt>
      <trkpt lat="47.71741" lon="-3.31471">
        <ele>20</ele>
        <time>2021-08-14T14:15:30Z</time>
      </trkpt>
      <trkpt lat="47.71738" lon="-3.31465">
        <ele>20.2</ele>
        <time>2021-08-14T14:15:31Z</time>
      </trkpt>
      <trkpt lat="47.71735" lon="-3.3146">
        <ele>20.2</ele>
        <time>2021-08-14T14:15:32Z</time>
      </trkpt>
      <trkpt lat="47.71732" lon="-3.31454">
        <ele>20.2</ele>
        <time>2021-08-14T14:15:33Z</time>
      </trkpt>
      <trkpt lat="47.71729" lon="-3.31448">
        <ele>20.2</ele>
        <time>2021-08-14T14:15:34Z</time>
      </trkpt>
      <trkpt lat="47.71726" lon="-3.31443">
        <ele>20.2</ele>
        <time>2021-08-14T14:15:35Z</time>
      </trkpt>
      <trkpt lat="47.71722" lon="-3.31438">
        <ele>20.2</ele>
        <time>2021-08-14T14:15:36Z</time>
      </trkpt>
      <trkpt lat="47.71719" lon="-3.31433">
        <ele>20.2</ele>
        <time>2021-08-14T14:15:37Z</time>
      </trkpt>
      <trkpt lat="47.71716" lon="-3.31427">
        <ele>20.2</ele>
        <time>2021-08-14T14:15:38Z</time>
      </trkpt>
      <trkpt lat="47.71714" lon="-3.31421">
        <ele>20.2</ele>
        <time>2021-08-14T14:15:39Z</time>
      </trkpt>
      <trkpt lat="47.71711" lon="-3.31416">
        <ele>20.2</ele>
        <time>2021-08-14T14:15:40Z</time>
      </trkpt>
      <trkpt lat="47.71707" lon="-3.3141">
        <ele>20</ele>
        <time>2021-08-14T14:15:41Z</time>
      </trkpt>
      <trkpt lat="47.71704" lon="-3.31405">
        <ele>20</ele>
        <time>2021-08-14T14:15:42Z</time>
      </trkpt>
      <trkpt lat="47.71701" lon="-3.314">
        <ele>19.8</ele>
        <time>2021-08-14T14:15:43Z</time>
      </trkpt>
      <trkpt lat="47.71698" lon="-3.31396">
        <ele>19.8</ele>
        <time>2021-08-14T14:15:44Z</time>
      </trkpt>
      <trkpt lat="47.71695" lon="-3.31391">
        <ele>19.8</ele>
        <time>2021-08-14T14:15:45Z</time>
      </trkpt>
      <trkpt lat="47.71692" lon="-3.31386">
        <ele>19.6</ele>
        <time>2021-08-14T14:15:46Z</time>
      </trkpt>
      <trkpt lat="47.71689" lon="-3.31381">
        <ele>19.6</ele>
        <time>2021-08-14T14:15:47Z</time>
      </trkpt>
      <trkpt lat="47.71686" lon="-3.31376">
        <ele>19.6</ele>
        <time>2021-08-14T14:15:48Z</time>
      </trkpt>
      <trkpt lat="47.71683" lon="-3.3137">
        <ele>19.6</ele>
        <time>2021-08-14T14:15:49Z</time>
      </trkpt>
      <trkpt lat="47.71679" lon="-3.31365">
        <ele>19.6</ele>
        <time>2021-08-14T14:15:50Z</time>
      </trkpt>
      <trkpt lat="47.71676" lon="-3.3136">
        <ele>19.4</ele>
        <time>2021-08-14T14:15:51Z</time>
      </trkpt>
      <trkpt lat="47.71672" lon="-3.31355">
        <ele>19.4</ele>
        <time>2021-08-14T14:15:52Z</time>
      </trkpt>
      <trkpt lat="47.71668" lon="-3.3135">
        <ele>19.4</ele>
        <time>2021-08-14T14:15:53Z</time>
      </trkpt>
      <trkpt lat="47.71664" lon="-3.31345">
        <ele>19.4</ele>
        <time>2021-08-14T14:15:54Z</time>
      </trkpt>
      <trkpt lat="47.71659" lon="-3.31341">
        <ele>19.4</ele>
        <time>2021-08-14T14:15:55Z</time>
      </trkpt>
      <trkpt lat="47.71655" lon="-3.31336">
        <ele>19.2</ele>
        <time>2021-08-14T14:15:56Z</time>
      </trkpt>
      <trkpt lat="47.7165" lon="-3.31332">
        <ele>19</ele>
        <time>2021-08-14T14:15:57Z</time>
      </trkpt>
      <trkpt lat="47.71646" lon="-3.31327">
        <ele>19</ele>
        <time>2021-08-14T14:15:58Z</time>
      </trkpt>
      <trkpt lat="47.71641" lon="-3.31323">
        <ele>18.8</ele>
        <time>2021-08-14T14:15:59Z</time>
      </trkpt>
      <trkpt lat="47.71637" lon="-3.31318">
        <ele>18.6</ele>
        <time>2021-08-14T14:16:00Z</time>
      </trkpt>
      <trkpt lat="47.71633" lon="-3.31314">
        <ele>18.6</ele>
        <time>2021-08-14T14:16:01Z</time>
      </trkpt>
      <trkpt lat="47.71628" lon="-3.3131">
        <ele>18.4</ele>
        <time>2021-08-14T14:16:02Z</time>
      </trkpt>
      <trkpt lat="47.71624" lon="-3.31306">
        <ele>18.4</ele>
        <time>2021-08-14T14:16:03Z</time>
      </trkpt>
      <trkpt lat="47.7162" lon="-3.31303">
        <ele>18.2</ele>
        <time>2021-08-14T14:16:04Z</time>
      </trkpt>
      <trkpt lat="47.71615" lon="-3.31299">
        <ele>18.2</ele>
        <time>2021-08-14T14:16:05Z</time>
      </trkpt>
      <trkpt lat="47.71611" lon="-3.31296">
        <ele>18</ele>
        <time>2021-08-14T14:16:06Z</time>
      </trkpt>
      <trkpt lat="47.71607" lon="-3.31292">
        <ele>17.6</ele>
        <time>2021-08-14T14:16:07Z</time>
      </trkpt>
      <trkpt lat="47.71602" lon="-3.3129">
        <ele>17.6</ele>
        <time>2021-08-14T14:16:08Z</time>
      </trkpt>
      <trkpt lat="47.71598" lon="-3.31287">
        <ele>17.4</ele>
        <time>2021-08-14T14:16:09Z</time>
      </trkpt>
      <trkpt lat="47.71594" lon="-3.31284">
        <ele>17.4</ele>
        <time>2021-08-14T14:16:10Z</time>
      </trkpt>
      <trkpt lat="47.7159" lon="-3.31281">
        <ele>17.2</ele>
        <time>2021-08-14T14:16:11Z</time>
      </trkpt>
      <trkpt lat="47.71586" lon="-3.31278">
        <ele>17.2</ele>
        <time>2021-08-14T14:16:12Z</time>
      </trkpt>
      <trkpt lat="47.71581" lon="-3.31274">
        <ele>17.2</ele>
        <time>2021-08-14T14:16:13Z</time>
      </trkpt>
      <trkpt lat="47.71577" lon="-3.31271">
        <ele>17.2</ele>
        <time>2021-08-14T14:16:14Z</time>
      </trkpt>
      <trkpt lat="47.71573" lon="-3.31268">
        <ele>17.2</ele>
        <time>2021-08-14T14:16:15Z</time>
      </trkpt>
      <trkpt lat="47.71569" lon="-3.31265">
        <ele>17.2</ele>
        <time>2021-08-14T14:16:16Z</time>
      </trkpt>
      <trkpt lat="47.71565" lon="-3.31262">
        <ele>17.2</ele>
        <time>2021-08-14T14:16:17Z</time>
      </trkpt>
      <trkpt lat="47.7156" lon="-3.31258">
        <ele>17.2</ele>
        <time>2021-08-14T14:16:18Z</time>
      </trkpt>
      <trkpt lat="47.71556" lon="-3.31255">
        <ele>17.2</ele>
        <time>2021-08-14T14:16:19Z</time>
      </trkpt>
      <trkpt lat="47.71551" lon="-3.31252">
        <ele>17.2</ele>
        <time>2021-08-14T14:16:20Z</time>
      </trkpt>
      <trkpt lat="47.71547" lon="-3.31249">
        <ele>17.2</ele>
        <time>2021-08-14T14:16:21Z</time>
      </trkpt>
      <trkpt lat="47.71543" lon="-3.31246">
        <ele>17</ele>
        <time>2021-08-14T14:16:22Z</time>
      </trkpt>
      <trkpt lat="47.71539" lon="-3.31242">
        <ele>17</ele>
        <time>2021-08-14T14:16:23Z</time>
      </trkpt>
      <trkpt lat="47.71534" lon="-3.31239">
        <ele>16.8</ele>
        <time>2021-08-14T14:16:24Z</time>
      </trkpt>
      <trkpt lat="47.7153" lon="-3.31236">
        <ele>16.8</ele>
        <time>2021-08-14T14:16:25Z</time>
      </trkpt>
      <trkpt lat="47.71526" lon="-3.31233">
        <ele>16.6</ele>
        <time>2021-08-14T14:16:26Z</time>
      </trkpt>
      <trkpt lat="47.71522" lon="-3.3123">
        <ele>16.6</ele>
        <time>2021-08-14T14:16:27Z</time>
      </trkpt>
      <trkpt lat="47.71518" lon="-3.31227">
        <ele>16.6</ele>
        <time>2021-08-14T14:16:28Z</time>
      </trkpt>
      <trkpt lat="47.71515" lon="-3.31224">
        <ele>16.4</ele>
        <time>2021-08-14T14:16:29Z</time>
      </trkpt>
      <trkpt lat="47.71511" lon="-3.31221">
        <ele>16.4</ele>
        <time>2021-08-14T14:16:30Z</time>
      </trkpt>
      <trkpt lat="47.71507" lon="-3.31218">
        <ele>16.4</ele>
        <time>2021-08-14T14:16:31Z</time>
      </trkpt>
      <trkpt lat="47.71503" lon="-3.31216">
        <ele>16.4</ele>
        <time>2021-08-14T14:16:32Z</time>
      </trkpt>
      <trkpt lat="47.71499" lon="-3.31214">
        <ele>16.4</ele>
        <time>2021-08-14T14:16:33Z</time>
      </trkpt>
      <trkpt lat="47.71495" lon="-3.31211">
        <ele>16.4</ele>
        <time>2021-08-14T14:16:34Z</time>
      </trkpt>
      <trkpt lat="47.71491" lon="-3.31209">
        <ele>16.4</ele>
        <time>2021-08-14T14:16:35Z</time>
      </trkpt>
      <trkpt lat="47.71487" lon="-3.31206">
        <ele>16.2</ele>
        <time>2021-08-14T14:16:36Z</time>
      </trkpt>
      <trkpt lat="47.71484" lon="-3.31204">
        <ele>16.2</ele>
        <time>2021-08-14T14:16:37Z</time>
      </trkpt>
      <trkpt lat="47.7148" lon="-3.31201">
        <ele>16.4</ele>
        <time>2021-08-14T14:16:38Z</time>
      </trkpt>
      <trkpt lat="47.71478" lon="-3.31198">
        <ele>16.4</ele>
        <time>2021-08-14T14:16:39Z</time>
      </trkpt>
      <trkpt lat="47.71476" lon="-3.31193">
        <ele>16.4</ele>
        <time>2021-08-14T14:16:40Z</time>
      </trkpt>
      <trkpt lat="47.71474" lon="-3.31188">
        <ele>16.4</ele>
        <time>2021-08-14T14:16:41Z</time>
      </trkpt>
      <trkpt lat="47.71474" lon="-3.31183">
        <ele>16.6</ele>
        <time>2021-08-14T14:16:42Z</time>
      </trkpt>
      <trkpt lat="47.71474" lon="-3.31178">
        <ele>16.6</ele>
        <time>2021-08-14T14:16:43Z</time>
      </trkpt>
      <trkpt lat="47.71474" lon="-3.31172">
        <ele>16.8</ele>
        <time>2021-08-14T14:16:44Z</time>
      </trkpt>
      <trkpt lat="47.71475" lon="-3.31167">
        <ele>16.8</ele>
        <time>2021-08-14T14:16:45Z</time>
      </trkpt>
      <trkpt lat="47.71475" lon="-3.31161">
        <ele>17</ele>
        <time>2021-08-14T14:16:46Z</time>
      </trkpt>
      <trkpt lat="47.71476" lon="-3.31155">
        <ele>17</ele>
        <time>2021-08-14T14:16:47Z</time>
      </trkpt>
      <trkpt lat="47.71476" lon="-3.31149">
        <ele>17</ele>
        <time>2021-08-14T14:16:48Z</time>
      </trkpt>
      <trkpt lat="47.71476" lon="-3.31143">
        <ele>17.2</ele>
        <time>2021-08-14T14:16:49Z</time>
      </trkpt>
      <trkpt lat="47.71476" lon="-3.31137">
        <ele>17.4</ele>
        <time>2021-08-14T14:16:50Z</time>
      </trkpt>
      <trkpt lat="47.71475" lon="-3.31131">
        <ele>17.4</ele>
        <time>2021-08-14T14:16:51Z</time>
      </trkpt>
      <trkpt lat="47.71473" lon="-3.31126">
        <ele>17.4</ele>
        <time>2021-08-14T14:16:52Z</time>
      </trkpt>
      <trkpt lat="47.71472" lon="-3.31121">
        <ele>17.6</ele>
        <time>2021-08-14T14:16:53Z</time>
      </trkpt>
      <trkpt lat="47.7147" lon="-3.31115">
        <ele>17.6</ele>
        <time>2021-08-14T14:16:54Z</time>
      </trkpt>
      <trkpt lat="47.71468" lon="-3.31109">
        <ele>17.6</ele>
        <time>2021-08-14T14:16:55Z</time>
      </trkpt>
      <trkpt lat="47.71467" lon="-3.31102">
        <ele>17.6</ele>
        <time>2021-08-14T14:16:56Z</time>
      </trkpt>
      <trkpt lat="47.71465" lon="-3.31096">
        <ele>17.6</ele>
        <time>2021-08-14T14:16:57Z</time>
      </trkpt>
      <trkpt lat="47.71463" lon="-3.31089">
        <ele>17.6</ele>
        <time>2021-08-14T14:16:58Z</time>
      </trkpt>
      <trkpt lat="47.71461" lon="-3.31082">
        <ele>17.6</ele>
        <time>2021-08-14T14:16:59Z</time>
      </trkpt>
      <trkpt lat="47.71459" lon="-3.31075">
        <ele>17.6</ele>
        <time>2021-08-14T14:17:00Z</time>
      </trkpt>
      <trkpt lat="47.71456" lon="-3.31067">
        <ele>17.6</ele>
        <time>2021-08-14T14:17:01Z</time>
      </trkpt>
      <trkpt lat="47.71454" lon="-3.3106">
        <ele>17.2</ele>
        <time>2021-08-14T14:17:02Z</time>
      </trkpt>
      <trkpt lat="47.71452" lon="-3.31053">
        <ele>17</ele>
        <time>2021-08-14T14:17:03Z</time>
      </trkpt>
      <trkpt lat="47.7145" lon="-3.31045">
        <ele>16.8</ele>
        <time>2021-08-14T14:17:04Z</time>
      </trkpt>
      <trkpt lat="47.71447" lon="-3.31037">
        <ele>16.6</ele>
        <time>2021-08-14T14:17:05Z</time>
      </trkpt>
      <trkpt lat="47.71445" lon="-3.31029">
        <ele>16.4</ele>
        <time>2021-08-14T14:17:06Z</time>
      </trkpt>
      <trkpt lat="47.71443" lon="-3.31021">
        <ele>16.2</ele>
        <time>2021-08-14T14:17:07Z</time>
      </trkpt>
      <trkpt lat="47.71441" lon="-3.31013">
        <ele>16</ele>
        <time>2021-08-14T14:17:08Z</time>
      </trkpt>
      <trkpt lat="47.71439" lon="-3.31005">
        <ele>15.6</ele>
        <time>2021-08-14T14:17:09Z</time>
      </trkpt>
      <trkpt lat="47.71437" lon="-3.30996">
        <ele>15.4</ele>
        <time>2021-08-14T14:17:10Z</time>
      </trkpt>
      <trkpt lat="47.71435" lon="-3.30988">
        <ele>15.2</ele>
        <time>2021-08-14T14:17:11Z</time>
      </trkpt>
      <trkpt lat="47.71433" lon="-3.3098">
        <ele>15</ele>
        <time>2021-08-14T14:17:12Z</time>
      </trkpt>
      <trkpt lat="47.71431" lon="-3.30972">
        <ele>15</ele>
        <time>2021-08-14T14:17:13Z</time>
      </trkpt>
      <trkpt lat="47.71429" lon="-3.30963">
        <ele>15</ele>
        <time>2021-08-14T14:17:14Z</time>
      </trkpt>
      <trkpt lat="47.71426" lon="-3.30955">
        <ele>14.8</ele>
        <time>2021-08-14T14:17:15Z</time>
      </trkpt>
      <trkpt lat="47.71424" lon="-3.30947">
        <ele>14.8</ele>
        <time>2021-08-14T14:17:16Z</time>
      </trkpt>
      <trkpt lat="47.71422" lon="-3.30938">
        <ele>14.6</ele>
        <time>2021-08-14T14:17:17Z</time>
      </trkpt>
      <trkpt lat="47.71419" lon="-3.3093">
        <ele>14.4</ele>
        <time>2021-08-14T14:17:18Z</time>
      </trkpt>
      <trkpt lat="47.71416" lon="-3.30922">
        <ele>14.2</ele>
        <time>2021-08-14T14:17:19Z</time>
      </trkpt>
      <trkpt lat="47.71414" lon="-3.30913">
        <ele>14.2</ele>
        <time>2021-08-14T14:17:20Z</time>
      </trkpt>
      <trkpt lat="47.71412" lon="-3.30905">
        <ele>14</ele>
        <time>2021-08-14T14:17:21Z</time>
      </trkpt>
      <trkpt lat="47.71409" lon="-3.30897">
        <ele>13.8</ele>
        <time>2021-08-14T14:17:22Z</time>
      </trkpt>
      <trkpt lat="47.71406" lon="-3.30889">
        <ele>13.8</ele>
        <time>2021-08-14T14:17:23Z</time>
      </trkpt>
      <trkpt lat="47.71403" lon="-3.30881">
        <ele>13.8</ele>
        <time>2021-08-14T14:17:24Z</time>
      </trkpt>
      <trkpt lat="47.714" lon="-3.30873">
        <ele>13.6</ele>
        <time>2021-08-14T14:17:25Z</time>
      </trkpt>
      <trkpt lat="47.71398" lon="-3.30865">
        <ele>13.4</ele>
        <time>2021-08-14T14:17:26Z</time>
      </trkpt>
      <trkpt lat="47.71396" lon="-3.30857">
        <ele>13.2</ele>
        <time>2021-08-14T14:17:27Z</time>
      </trkpt>
      <trkpt lat="47.71394" lon="-3.30849">
        <ele>13</ele>
        <time>2021-08-14T14:17:28Z</time>
      </trkpt>
      <trkpt lat="47.71391" lon="-3.3084">
        <ele>13</ele>
        <time>2021-08-14T14:17:29Z</time>
      </trkpt>
      <trkpt lat="47.71388" lon="-3.30832">
        <ele>13</ele>
        <time>2021-08-14T14:17:30Z</time>
      </trkpt>
      <trkpt lat="47.71386" lon="-3.30824">
        <ele>12.8</ele>
        <time>2021-08-14T14:17:31Z</time>
      </trkpt>
      <trkpt lat="47.71383" lon="-3.30816">
        <ele>12.8</ele>
        <time>2021-08-14T14:17:32Z</time>
      </trkpt>
      <trkpt lat="47.71381" lon="-3.30808">
        <ele>12.8</ele>
        <time>2021-08-14T14:17:33Z</time>
      </trkpt>
      <trkpt lat="47.71379" lon="-3.30799">
        <ele>12.6</ele>
        <time>2021-08-14T14:17:34Z</time>
      </trkpt>
      <trkpt lat="47.71376" lon="-3.3079">
        <ele>12.6</ele>
        <time>2021-08-14T14:17:35Z</time>
      </trkpt>
      <trkpt lat="47.71374" lon="-3.30782">
        <ele>12.6</ele>
        <time>2021-08-14T14:17:36Z</time>
      </trkpt>
      <trkpt lat="47.71372" lon="-3.30774">
        <ele>12.6</ele>
        <time>2021-08-14T14:17:37Z</time>
      </trkpt>
      <trkpt lat="47.7137" lon="-3.30766">
        <ele>12.6</ele>
        <time>2021-08-14T14:17:38Z</time>
      </trkpt>
      <trkpt lat="47.71367" lon="-3.30758">
        <ele>12.4</ele>
        <time>2021-08-14T14:17:39Z</time>
      </trkpt>
      <trkpt lat="47.71365" lon="-3.30751">
        <ele>12.4</ele>
        <time>2021-08-14T14:17:40Z</time>
      </trkpt>
      <trkpt lat="47.71363" lon="-3.30743">
        <ele>12.4</ele>
        <time>2021-08-14T14:17:41Z</time>
      </trkpt>
      <trkpt lat="47.71361" lon="-3.30735">
        <ele>12.2</ele>
        <time>2021-08-14T14:17:42Z</time>
      </trkpt>
      <trkpt lat="47.71359" lon="-3.30727">
        <ele>12.2</ele>
        <time>2021-08-14T14:17:43Z</time>
      </trkpt>
      <trkpt lat="47.71356" lon="-3.3072">
        <ele>12.2</ele>
        <time>2021-08-14T14:17:44Z</time>
      </trkpt>
      <trkpt lat="47.71354" lon="-3.30713">
        <ele>12</ele>
        <time>2021-08-14T14:17:45Z</time>
      </trkpt>
      <trkpt lat="47.71352" lon="-3.30706">
        <ele>12</ele>
        <time>2021-08-14T14:17:46Z</time>
      </trkpt>
      <trkpt lat="47.71351" lon="-3.30699">
        <ele>12</ele>
        <time>2021-08-14T14:17:47Z</time>
      </trkpt>
      <trkpt lat="47.71349" lon="-3.30692">
        <ele>12</ele>
        <time>2021-08-14T14:17:48Z</time>
      </trkpt>
      <trkpt lat="47.71347" lon="-3.30685">
        <ele>12</ele>
        <time>2021-08-14T14:17:49Z</time>
      </trkpt>
      <trkpt lat="47.71345" lon="-3.30678">
        <ele>12</ele>
        <time>2021-08-14T14:17:50Z</time>
      </trkpt>
      <trkpt lat="47.71343" lon="-3.30671">
        <ele>12</ele>
        <time>2021-08-14T14:17:51Z</time>
      </trkpt>
      <trkpt lat="47.71341" lon="-3.30663">
        <ele>12</ele>
        <time>2021-08-14T14:17:52Z</time>
      </trkpt>
      <trkpt lat="47.71339" lon="-3.30655">
        <ele>12</ele>
        <time>2021-08-14T14:17:53Z</time>
      </trkpt>
      <trkpt lat="47.71337" lon="-3.30648">
        <ele>12</ele>
        <time>2021-08-14T14:17:54Z</time>
      </trkpt>
      <trkpt lat="47.71335" lon="-3.3064">
        <ele>12</ele>
        <time>2021-08-14T14:17:55Z</time>
      </trkpt>
      <trkpt lat="47.71333" lon="-3.30633">
        <ele>12</ele>
        <time>2021-08-14T14:17:56Z</time>
      </trkpt>
      <trkpt lat="47.71331" lon="-3.30625">
        <ele>12</ele>
        <time>2021-08-14T14:17:57Z</time>
      </trkpt>
      <trkpt lat="47.71328" lon="-3.30618">
        <ele>12</ele>
        <time>2021-08-14T14:17:58Z</time>
      </trkpt>
      <trkpt lat="47.71326" lon="-3.3061">
        <ele>12</ele>
        <time>2021-08-14T14:17:59Z</time>
      </trkpt>
      <trkpt lat="47.71324" lon="-3.30603">
        <ele>12</ele>
        <time>2021-08-14T14:18:00Z</time>
      </trkpt>
      <trkpt lat="47.71322" lon="-3.30596">
        <ele>12.2</ele>
        <time>2021-08-14T14:18:01Z</time>
      </trkpt>
      <trkpt lat="47.7132" lon="-3.30589">
        <ele>12.2</ele>
        <time>2021-08-14T14:18:02Z</time>
      </trkpt>
      <trkpt lat="47.71318" lon="-3.30581">
        <ele>12.2</ele>
        <time>2021-08-14T14:18:03Z</time>
      </trkpt>
      <trkpt lat="47.71316" lon="-3.30574">
        <ele>12.2</ele>
        <time>2021-08-14T14:18:04Z</time>
      </trkpt>
      <trkpt lat="47.71314" lon="-3.30567">
        <ele>12.2</ele>
        <time>2021-08-14T14:18:05Z</time>
      </trkpt>
      <trkpt lat="47.71312" lon="-3.3056">
        <ele>12.2</ele>
        <time>2021-08-14T14:18:06Z</time>
      </trkpt>
      <trkpt lat="47.7131" lon="-3.30554">
        <ele>12.4</ele>
        <time>2021-08-14T14:18:07Z</time>
      </trkpt>
      <trkpt lat="47.71308" lon="-3.30547">
        <ele>12.4</ele>
        <time>2021-08-14T14:18:08Z</time>
      </trkpt>
      <trkpt lat="47.71306" lon="-3.3054">
        <ele>12.4</ele>
        <time>2021-08-14T14:18:09Z</time>
      </trkpt>
      <trkpt lat="47.71304" lon="-3.30533">
        <ele>12.4</ele>
        <time>2021-08-14T14:18:10Z</time>
      </trkpt>
      <trkpt lat="47.71302" lon="-3.30526">
        <ele>12.4</ele>
        <time>2021-08-14T14:18:11Z</time>
      </trkpt>
      <trkpt lat="47.713" lon="-3.3052">
        <ele>12.4</ele>
        <time>2021-08-14T14:18:12Z</time>
      </trkpt>
      <trkpt lat="47.71298" lon="-3.30513">
        <ele>12.4</ele>
        <time>2021-08-14T14:18:13Z</time>
      </trkpt>
      <trkpt lat="47.71296" lon="-3.30507">
        <ele>12.4</ele>
        <time>2021-08-14T14:18:14Z</time>
      </trkpt>
      <trkpt lat="47.71294" lon="-3.305">
        <ele>12.4</ele>
        <time>2021-08-14T14:18:15Z</time>
      </trkpt>
      <trkpt lat="47.71292" lon="-3.30493">
        <ele>12.6</ele>
        <time>2021-08-14T14:18:16Z</time>
      </trkpt>
      <trkpt lat="47.7129" lon="-3.30486">
        <ele>12.6</ele>
        <time>2021-08-14T14:18:17Z</time>
      </trkpt>
      <trkpt lat="47.71288" lon="-3.3048">
        <ele>12.6</ele>
        <time>2021-08-14T14:18:18Z</time>
      </trkpt>
      <trkpt lat="47.71287" lon="-3.30473">
        <ele>12.6</ele>
        <time>2021-08-14T14:18:19Z</time>
      </trkpt>
      <trkpt lat="47.71285" lon="-3.30466">
        <ele>12.6</ele>
        <time>2021-08-14T14:18:20Z</time>
      </trkpt>
      <trkpt lat="47.71283" lon="-3.30459">
        <ele>12.6</ele>
        <time>2021-08-14T14:18:21Z</time>
      </trkpt>
      <trkpt lat="47.71281" lon="-3.30453">
        <ele>12.6</ele>
        <time>2021-08-14T14:18:22Z</time>
      </trkpt>
      <trkpt lat="47.71279" lon="-3.30446">
        <ele>12.6</ele>
        <time>2021-08-14T14:18:23Z</time>
      </trkpt>
      <trkpt lat="47.71277" lon="-3.30439">
        <ele>12.6</ele>
        <time>2021-08-14T14:18:24Z</time>
      </trkpt>
      <trkpt lat="47.71275" lon="-3.30433">
        <ele>12.8</ele>
        <time>2021-08-14T14:18:25Z</time>
      </trkpt>
      <trkpt lat="47.71273" lon="-3.30426">
        <ele>12.8</ele>
        <time>2021-08-14T14:18:26Z</time>
      </trkpt>
      <trkpt lat="47.71271" lon="-3.30419">
        <ele>12.8</ele>
        <time>2021-08-14T14:18:27Z</time>
      </trkpt>
      <trkpt lat="47.71269" lon="-3.30412">
        <ele>13</ele>
        <time>2021-08-14T14:18:28Z</time>
      </trkpt>
      <trkpt lat="47.71267" lon="-3.30405">
        <ele>13.2</ele>
        <time>2021-08-14T14:18:29Z</time>
      </trkpt>
      <trkpt lat="47.71265" lon="-3.30399">
        <ele>13.2</ele>
        <time>2021-08-14T14:18:30Z</time>
      </trkpt>
      <trkpt lat="47.71263" lon="-3.30392">
        <ele>13.4</ele>
        <time>2021-08-14T14:18:31Z</time>
      </trkpt>
      <trkpt lat="47.71261" lon="-3.30385">
        <ele>13.6</ele>
        <time>2021-08-14T14:18:32Z</time>
      </trkpt>
      <trkpt lat="47.71259" lon="-3.30378">
        <ele>13.8</ele>
        <time>2021-08-14T14:18:33Z</time>
      </trkpt>
      <trkpt lat="47.71257" lon="-3.3037">
        <ele>14</ele>
        <time>2021-08-14T14:18:34Z</time>
      </trkpt>
      <trkpt lat="47.71255" lon="-3.30363">
        <ele>14</ele>
        <time>2021-08-14T14:18:35Z</time>
      </trkpt>
      <trkpt lat="47.71253" lon="-3.30356">
        <ele>14</ele>
        <time>2021-08-14T14:18:36Z</time>
      </trkpt>
      <trkpt lat="47.71251" lon="-3.30348">
        <ele>14</ele>
        <time>2021-08-14T14:18:37Z</time>
      </trkpt>
      <trkpt lat="47.71249" lon="-3.30341">
        <ele>14</ele>
        <time>2021-08-14T14:18:38Z</time>
      </trkpt>
      <trkpt lat="47.71247" lon="-3.30333">
        <ele>14.2</ele>
        <time>2021-08-14T14:18:39Z</time>
      </trkpt>
      <trkpt lat="47.71245" lon="-3.30326">
        <ele>14.2</ele>
        <time>2021-08-14T14:18:40Z</time>
      </trkpt>
      <trkpt lat="47.71242" lon="-3.30318">
        <ele>14.2</ele>
        <time>2021-08-14T14:18:41Z</time>
      </trkpt>
      <trkpt lat="47.7124" lon="-3.3031">
        <ele>14.2</ele>
        <time>2021-08-14T14:18:42Z</time>
      </trkpt>
      <trkpt lat="47.71237" lon="-3.30302">
        <ele>14.2</ele>
        <time>2021-08-14T14:18:43Z</time>
      </trkpt>
      <trkpt lat="47.71235" lon="-3.30294">
        <ele>14.2</ele>
        <time>2021-08-14T14:18:44Z</time>
      </trkpt>
      <trkpt lat="47.71232" lon="-3.30285">
        <ele>14.2</ele>
        <time>2021-08-14T14:18:45Z</time>
      </trkpt>
      <trkpt lat="47.7123" lon="-3.30277">
        <ele>14.2</ele>
        <time>2021-08-14T14:18:46Z</time>
      </trkpt>
      <trkpt lat="47.71228" lon="-3.30269">
        <ele>14.2</ele>
        <time>2021-08-14T14:18:47Z</time>
      </trkpt>
      <trkpt lat="47.71226" lon="-3.30261">
        <ele>14.2</ele>
        <time>2021-08-14T14:18:48Z</time>
      </trkpt>
      <trkpt lat="47.71224" lon="-3.30253">
        <ele>14</ele>
        <time>2021-08-14T14:18:49Z</time>
      </trkpt>
      <trkpt lat="47.71221" lon="-3.30244">
        <ele>13.8</ele>
        <time>2021-08-14T14:18:50Z</time>
      </trkpt>
      <trkpt lat="47.71219" lon="-3.30236">
        <ele>13.8</ele>
        <time>2021-08-14T14:18:51Z</time>
      </trkpt>
      <trkpt lat="47.71217" lon="-3.30228">
        <ele>13.8</ele>
        <time>2021-08-14T14:18:52Z</time>
      </trkpt>
      <trkpt lat="47.71215" lon="-3.3022">
        <ele>13.6</ele>
        <time>2021-08-14T14:18:53Z</time>
      </trkpt>
      <trkpt lat="47.71212" lon="-3.30212">
        <ele>13.4</ele>
        <time>2021-08-14T14:18:54Z</time>
      </trkpt>
      <trkpt lat="47.71209" lon="-3.30204">
        <ele>13.2</ele>
        <time>2021-08-14T14:18:55Z</time>
      </trkpt>
      <trkpt lat="47.71207" lon="-3.30196">
        <ele>13.2</ele>
        <time>2021-08-14T14:18:56Z</time>
      </trkpt>
      <trkpt lat="47.71204" lon="-3.30188">
        <ele>13</ele>
        <time>2021-08-14T14:18:57Z</time>
      </trkpt>
      <trkpt lat="47.71202" lon="-3.3018">
        <ele>13</ele>
        <time>2021-08-14T14:18:58Z</time>
      </trkpt>
      <trkpt lat="47.712" lon="-3.30171">
        <ele>13</ele>
        <time>2021-08-14T14:18:59Z</time>
      </trkpt>
      <trkpt lat="47.71197" lon="-3.30163">
        <ele>12.8</ele>
        <time>2021-08-14T14:19:00Z</time>
      </trkpt>
      <trkpt lat="47.71195" lon="-3.30155">
        <ele>12.8</ele>
        <time>2021-08-14T14:19:01Z</time>
      </trkpt>
      <trkpt lat="47.71193" lon="-3.30147">
        <ele>12.6</ele>
        <time>2021-08-14T14:19:02Z</time>
      </trkpt>
      <trkpt lat="47.7119" lon="-3.30139">
        <ele>12.4</ele>
        <time>2021-08-14T14:19:03Z</time>
      </trkpt>
      <trkpt lat="47.71188" lon="-3.3013">
        <ele>12.4</ele>
        <time>2021-08-14T14:19:04Z</time>
      </trkpt>
      <trkpt lat="47.71186" lon="-3.30122">
        <ele>12.2</ele>
        <time>2021-08-14T14:19:05Z</time>
      </trkpt>
      <trkpt lat="47.71183" lon="-3.30114">
        <ele>12.2</ele>
        <time>2021-08-14T14:19:06Z</time>
      </trkpt>
      <trkpt lat="47.71181" lon="-3.30106">
        <ele>12.2</ele>
        <time>2021-08-14T14:19:07Z</time>
      </trkpt>
      <trkpt lat="47.71179" lon="-3.30098">
        <ele>12</ele>
        <time>2021-08-14T14:19:08Z</time>
      </trkpt>
      <trkpt lat="47.71176" lon="-3.3009">
        <ele>12</ele>
        <time>2021-08-14T14:19:09Z</time>
      </trkpt>
      <trkpt lat="47.71174" lon="-3.30082">
        <ele>11.8</ele>
        <time>2021-08-14T14:19:10Z</time>
      </trkpt>
      <trkpt lat="47.71172" lon="-3.30073">
        <ele>11.8</ele>
        <time>2021-08-14T14:19:11Z</time>
      </trkpt>
      <trkpt lat="47.71169" lon="-3.30065">
        <ele>11.6</ele>
        <time>2021-08-14T14:19:12Z</time>
      </trkpt>
      <trkpt lat="47.71167" lon="-3.30057">
        <ele>11.6</ele>
        <time>2021-08-14T14:19:13Z</time>
      </trkpt>
      <trkpt lat="47.71165" lon="-3.30049">
        <ele>11.6</ele>
        <time>2021-08-14T14:19:14Z</time>
      </trkpt>
      <trkpt lat="47.71162" lon="-3.30041">
        <ele>11.6</ele>
        <time>2021-08-14T14:19:15Z</time>
      </trkpt>
      <trkpt lat="47.7116" lon="-3.30033">
        <ele>11.6</ele>
        <time>2021-08-14T14:19:16Z</time>
      </trkpt>
      <trkpt lat="47.71158" lon="-3.30025">
        <ele>11.4</ele>
        <time>2021-08-14T14:19:17Z</time>
      </trkpt>
      <trkpt lat="47.71156" lon="-3.30018">
        <ele>11.4</ele>
        <time>2021-08-14T14:19:18Z</time>
      </trkpt>
      <trkpt lat="47.71154" lon="-3.3001">
        <ele>11.4</ele>
        <time>2021-08-14T14:19:19Z</time>
      </trkpt>
      <trkpt lat="47.71152" lon="-3.30002">
        <ele>11.4</ele>
        <time>2021-08-14T14:19:20Z</time>
      </trkpt>
      <trkpt lat="47.7115" lon="-3.29995">
        <ele>11.4</ele>
        <time>2021-08-14T14:19:21Z</time>
      </trkpt>
      <trkpt lat="47.71148" lon="-3.29988">
        <ele>11.6</ele>
        <time>2021-08-14T14:19:22Z</time>
      </trkpt>
      <trkpt lat="47.71145" lon="-3.29981">
        <ele>11.6</ele>
        <time>2021-08-14T14:19:23Z</time>
      </trkpt>
      <trkpt lat="47.71141" lon="-3.29975">
        <ele>11.6</ele>
        <time>2021-08-14T14:19:24Z</time>
      </trkpt>
      <trkpt lat="47.71137" lon="-3.29971">
        <ele>11.6</ele>
        <time>2021-08-14T14:19:25Z</time>
      </trkpt>
      <trkpt lat="47.71132" lon="-3.29967">
        <ele>11.6</ele>
        <time>2021-08-14T14:19:26Z</time>
      </trkpt>
      <trkpt lat="47.71128" lon="-3.29963">
        <ele>11.6</ele>
        <time>2021-08-14T14:19:27Z</time>
      </trkpt>
      <trkpt lat="47.71125" lon="-3.29956">
        <ele>11.6</ele>
        <time>2021-08-14T14:19:28Z</time>
      </trkpt>
      <trkpt lat="47.71123" lon="-3.29949">
        <ele>11.6</ele>
        <time>2021-08-14T14:19:29Z</time>
      </trkpt>
      <trkpt lat="47.71123" lon="-3.29941">
        <ele>11.6</ele>
        <time>2021-08-14T14:19:30Z</time>
      </trkpt>
      <trkpt lat="47.71122" lon="-3.29933">
        <ele>11.6</ele>
        <time>2021-08-14T14:19:31Z</time>
      </trkpt>
      <trkpt lat="47.71121" lon="-3.29924">
        <ele>11.6</ele>
        <time>2021-08-14T14:19:32Z</time>
      </trkpt>
      <trkpt lat="47.71119" lon="-3.29917">
        <ele>11.6</ele>
        <time>2021-08-14T14:19:33Z</time>
      </trkpt>
      <trkpt lat="47.71117" lon="-3.29909">
        <ele>11.6</ele>
        <time>2021-08-14T14:19:34Z</time>
      </trkpt>
      <trkpt lat="47.71115" lon="-3.29902">
        <ele>11.6</ele>
        <time>2021-08-14T14:19:35Z</time>
      </trkpt>
      <trkpt lat="47.71113" lon="-3.29894">
        <ele>11.6</ele>
        <time>2021-08-14T14:19:36Z</time>
      </trkpt>
      <trkpt lat="47.71112" lon="-3.29887">
        <ele>11.6</ele>
        <time>2021-08-14T14:19:37Z</time>
      </trkpt>
      <trkpt lat="47.7111" lon="-3.2988">
        <ele>11.6</ele>
        <time>2021-08-14T14:19:38Z</time>
      </trkpt>
      <trkpt lat="47.71108" lon="-3.29873">
        <ele>11.4</ele>
        <time>2021-08-14T14:19:39Z</time>
      </trkpt>
      <trkpt lat="47.71106" lon="-3.29866">
        <ele>11.4</ele>
        <time>2021-08-14T14:19:40Z</time>
      </trkpt>
      <trkpt lat="47.71104" lon="-3.29859">
        <ele>11.4</ele>
        <time>2021-08-14T14:19:41Z</time>
      </trkpt>
      <trkpt lat="47.71102" lon="-3.29852">
        <ele>11.4</ele>
        <time>2021-08-14T14:19:42Z</time>
      </trkpt>
      <trkpt lat="47.71101" lon="-3.29845">
        <ele>11.4</ele>
        <time>2021-08-14T14:19:43Z</time>
      </trkpt>
      <trkpt lat="47.71101" lon="-3.29839">
        <ele>11.4</ele>
        <time>2021-08-14T14:19:44Z</time>
      </trkpt>
      <trkpt lat="47.711" lon="-3.29832">
        <ele>11.2</ele>
        <time>2021-08-14T14:19:45Z</time>
      </trkpt>
      <trkpt lat="47.711" lon="-3.29825">
        <ele>11.2</ele>
        <time>2021-08-14T14:19:46Z</time>
      </trkpt>
      <trkpt lat="47.711" lon="-3.29818">
        <ele>11.2</ele>
        <time>2021-08-14T14:19:47Z</time>
      </trkpt>
      <trkpt lat="47.71099" lon="-3.29812">
        <ele>11.2</ele>
        <time>2021-08-14T14:19:48Z</time>
      </trkpt>
      <trkpt lat="47.71098" lon="-3.29805">
        <ele>11.2</ele>
        <time>2021-08-14T14:19:49Z</time>
      </trkpt>
      <trkpt lat="47.71097" lon="-3.29799">
        <ele>11.2</ele>
        <time>2021-08-14T14:19:50Z</time>
      </trkpt>
      <trkpt lat="47.71096" lon="-3.29793">
        <ele>11.2</ele>
        <time>2021-08-14T14:19:51Z</time>
      </trkpt>
      <trkpt lat="47.71095" lon="-3.29788">
        <ele>11.4</ele>
        <time>2021-08-14T14:19:52Z</time>
      </trkpt>
      <trkpt lat="47.71094" lon="-3.29783">
        <ele>11.4</ele>
        <time>2021-08-14T14:19:53Z</time>
      </trkpt>
      <trkpt lat="47.71093" lon="-3.29778">
        <ele>11.4</ele>
        <time>2021-08-14T14:19:54Z</time>
      </trkpt>
      <trkpt lat="47.71092" lon="-3.29772">
        <ele>11.4</ele>
        <time>2021-08-14T14:19:55Z</time>
      </trkpt>
      <trkpt lat="47.71091" lon="-3.29767">
        <ele>11.4</ele>
        <time>2021-08-14T14:19:56Z</time>
      </trkpt>
      <trkpt lat="47.71089" lon="-3.29761">
        <ele>11.4</ele>
        <time>2021-08-14T14:19:57Z</time>
      </trkpt>
      <trkpt lat="47.71088" lon="-3.29756">
        <ele>11.6</ele>
        <time>2021-08-14T14:19:58Z</time>
      </trkpt>
      <trkpt lat="47.71087" lon="-3.2975">
        <ele>11.8</ele>
        <time>2021-08-14T14:19:59Z</time>
      </trkpt>
      <trkpt lat="47.71085" lon="-3.29745">
        <ele>12</ele>
        <time>2021-08-14T14:20:00Z</time>
      </trkpt>
      <trkpt lat="47.71084" lon="-3.2974">
        <ele>12.2</ele>
        <time>2021-08-14T14:20:01Z</time>
      </trkpt>
      <trkpt lat="47.71083" lon="-3.29735">
        <ele>12.4</ele>
        <time>2021-08-14T14:20:02Z</time>
      </trkpt>
      <trkpt lat="47.71082" lon="-3.29731">
        <ele>12.4</ele>
        <time>2021-08-14T14:20:03Z</time>
      </trkpt>
      <trkpt lat="47.71081" lon="-3.29727">
        <ele>12.4</ele>
        <time>2021-08-14T14:20:04Z</time>
      </trkpt>
      <trkpt lat="47.7108" lon="-3.29723">
        <ele>12.4</ele>
        <time>2021-08-14T14:20:05Z</time>
      </trkpt>
      <trkpt lat="47.71079" lon="-3.29719">
        <ele>12.4</ele>
        <time>2021-08-14T14:20:06Z</time>
      </trkpt>
      <trkpt lat="47.71078" lon="-3.29717">
        <ele>12.6</ele>
        <time>2021-08-14T14:20:07Z</time>
      </trkpt>
      <trkpt lat="47.71078" lon="-3.29715">
        <ele>12.6</ele>
        <time>2021-08-14T14:20:08Z</time>
      </trkpt>
      <trkpt lat="47.71077" lon="-3.29714">
        <ele>12.6</ele>
        <time>2021-08-14T14:20:09Z</time>
      </trkpt>
      <trkpt lat="47.71077" lon="-3.29714">
        <ele>12.8</ele>
        <time>2021-08-14T14:20:10Z</time>
      </trkpt>
      <trkpt lat="47.71077" lon="-3.29714">
        <ele>13.6</ele>
        <time>2021-08-14T14:20:39Z</time>
      </trkpt>
      <trkpt lat="47.71077" lon="-3.29713">
        <ele>13.6</ele>
        <time>2021-08-14T14:20:40Z</time>
      </trkpt>
      <trkpt lat="47.71077" lon="-3.29711">
        <ele>13.6</ele>
        <time>2021-08-14T14:20:41Z</time>
      </trkpt>
      <trkpt lat="47.71077" lon="-3.29709">
        <ele>13.6</ele>
        <time>2021-08-14T14:20:42Z</time>
      </trkpt>
      <trkpt lat="47.71077" lon="-3.29706">
        <ele>13.6</ele>
        <time>2021-08-14T14:20:43Z</time>
      </trkpt>
      <trkpt lat="47.71076" lon="-3.29704">
        <ele>13.6</ele>
        <time>2021-08-14T14:20:44Z</time>
      </trkpt>
      <trkpt lat="47.71076" lon="-3.29701">
        <ele>13.6</ele>
        <time>2021-08-14T14:20:45Z</time>
      </trkpt>
      <trkpt lat="47.71075" lon="-3.29698">
        <ele>13.6</ele>
        <time>2021-08-14T14:20:46Z</time>
      </trkpt>
      <trkpt lat="47.71075" lon="-3.29695">
        <ele>13.6</ele>
        <time>2021-08-14T14:20:47Z</time>
      </trkpt>
      <trkpt lat="47.71074" lon="-3.29692">
        <ele>13.6</ele>
        <time>2021-08-14T14:20:48Z</time>
      </trkpt>
      <trkpt lat="47.71073" lon="-3.29688">
        <ele>13.6</ele>
        <time>2021-08-14T14:20:49Z</time>
      </trkpt>
      <trkpt lat="47.71072" lon="-3.29685">
        <ele>13.6</ele>
        <time>2021-08-14T14:20:50Z</time>
      </trkpt>
      <trkpt lat="47.71071" lon="-3.29681">
        <ele>13.6</ele>
        <time>2021-08-14T14:20:51Z</time>
      </trkpt>
      <trkpt lat="47.7107" lon="-3.29677">
        <ele>13.6</ele>
        <time>2021-08-14T14:20:52Z</time>
      </trkpt>
      <trkpt lat="47.71069" lon="-3.29673">
        <ele>13.8</ele>
        <time>2021-08-14T14:20:53Z</time>
      </trkpt>
      <trkpt lat="47.71068" lon="-3.29668">
        <ele>13.8</ele>
        <time>2021-08-14T14:20:54Z</time>
      </trkpt>
      <trkpt lat="47.71067" lon="-3.29664">
        <ele>13.8</ele>
        <time>2021-08-14T14:20:55Z</time>
      </trkpt>
      <trkpt lat="47.71066" lon="-3.29659">
        <ele>13.8</ele>
        <time>2021-08-14T14:20:56Z</time>
      </trkpt>
      <trkpt lat="47.71065" lon="-3.29654">
        <ele>13.8</ele>
        <time>2021-08-14T14:20:57Z</time>
      </trkpt>
      <trkpt lat="47.71063" lon="-3.29648">
        <ele>13.8</ele>
        <time>2021-08-14T14:20:58Z</time>
      </trkpt>
      <trkpt lat="47.71062" lon="-3.29642">
        <ele>14</ele>
        <time>2021-08-14T14:20:59Z</time>
      </trkpt>
      <trkpt lat="47.71061" lon="-3.29636">
        <ele>14</ele>
        <time>2021-08-14T14:21:00Z</time>
      </trkpt>
      <trkpt lat="47.71059" lon="-3.2963">
        <ele>14</ele>
        <time>2021-08-14T14:21:01Z</time>
      </trkpt>
      <trkpt lat="47.71057" lon="-3.29624">
        <ele>14</ele>
        <time>2021-08-14T14:21:02Z</time>
      </trkpt>
      <trkpt lat="47.71056" lon="-3.29617">
        <ele>14</ele>
        <time>2021-08-14T14:21:03Z</time>
      </trkpt>
      <trkpt lat="47.71054" lon="-3.29611">
        <ele>14.2</ele>
        <time>2021-08-14T14:21:04Z</time>
      </trkpt>
      <trkpt lat="47.71053" lon="-3.29605">
        <ele>14.2</ele>
        <time>2021-08-14T14:21:05Z</time>
      </trkpt>
      <trkpt lat="47.71051" lon="-3.29599">
        <ele>14.2</ele>
        <time>2021-08-14T14:21:06Z</time>
      </trkpt>
      <trkpt lat="47.7105" lon="-3.29592">
        <ele>14.2</ele>
        <time>2021-08-14T14:21:07Z</time>
      </trkpt>
      <trkpt lat="47.71048" lon="-3.29586">
        <ele>14.2</ele>
        <time>2021-08-14T14:21:08Z</time>
      </trkpt>
      <trkpt lat="47.71047" lon="-3.29579">
        <ele>14.2</ele>
        <time>2021-08-14T14:21:09Z</time>
      </trkpt>
      <trkpt lat="47.71045" lon="-3.29573">
        <ele>14.2</ele>
        <time>2021-08-14T14:21:10Z</time>
      </trkpt>
      <trkpt lat="47.71044" lon="-3.29567">
        <ele>14.4</ele>
        <time>2021-08-14T14:21:11Z</time>
      </trkpt>
      <trkpt lat="47.71042" lon="-3.2956">
        <ele>14.4</ele>
        <time>2021-08-14T14:21:12Z</time>
      </trkpt>
      <trkpt lat="47.71041" lon="-3.29554">
        <ele>14.4</ele>
        <time>2021-08-14T14:21:13Z</time>
      </trkpt>
      <trkpt lat="47.71039" lon="-3.29547">
        <ele>14.4</ele>
        <time>2021-08-14T14:21:14Z</time>
      </trkpt>
      <trkpt lat="47.71037" lon="-3.2954">
        <ele>14.4</ele>
        <time>2021-08-14T14:21:15Z</time>
      </trkpt>
      <trkpt lat="47.71036" lon="-3.29533">
        <ele>14.4</ele>
        <time>2021-08-14T14:21:16Z</time>
      </trkpt>
      <trkpt lat="47.71034" lon="-3.29526">
        <ele>14.4</ele>
        <time>2021-08-14T14:21:17Z</time>
      </trkpt>
      <trkpt lat="47.71032" lon="-3.29519">
        <ele>14.4</ele>
        <time>2021-08-14T14:21:18Z</time>
      </trkpt>
      <trkpt lat="47.71031" lon="-3.29511">
        <ele>14.4</ele>
        <time>2021-08-14T14:21:19Z</time>
      </trkpt>
      <trkpt lat="47.71029" lon="-3.29504">
        <ele>14.4</ele>
        <time>2021-08-14T14:21:20Z</time>
      </trkpt>
      <trkpt lat="47.71027" lon="-3.29496">
        <ele>14.4</ele>
        <time>2021-08-14T14:21:21Z</time>
      </trkpt>
      <trkpt lat="47.71025" lon="-3.29488">
        <ele>14.4</ele>
        <time>2021-08-14T14:21:22Z</time>
      </trkpt>
      <trkpt lat="47.71023" lon="-3.2948">
        <ele>14.4</ele>
        <time>2021-08-14T14:21:23Z</time>
      </trkpt>
      <trkpt lat="47.71021" lon="-3.29472">
        <ele>14.4</ele>
        <time>2021-08-14T14:21:24Z</time>
      </trkpt>
      <trkpt lat="47.71019" lon="-3.29464">
        <ele>14.4</ele>
        <time>2021-08-14T14:21:25Z</time>
      </trkpt>
      <trkpt lat="47.71017" lon="-3.29455">
        <ele>14.4</ele>
        <time>2021-08-14T14:21:26Z</time>
      </trkpt>
      <trkpt lat="47.71015" lon="-3.29447">
        <ele>14.4</ele>
        <time>2021-08-14T14:21:27Z</time>
      </trkpt>
      <trkpt lat="47.71013" lon="-3.2944">
        <ele>14.4</ele>
        <time>2021-08-14T14:21:28Z</time>
      </trkpt>
      <trkpt lat="47.71011" lon="-3.29432">
        <ele>14.4</ele>
        <time>2021-08-14T14:21:29Z</time>
      </trkpt>
      <trkpt lat="47.71009" lon="-3.29424">
        <ele>14.4</ele>
        <time>2021-08-14T14:21:30Z</time>
      </trkpt>
      <trkpt lat="47.71008" lon="-3.29417">
        <ele>14.4</ele>
        <time>2021-08-14T14:21:31Z</time>
      </trkpt>
      <trkpt lat="47.71006" lon="-3.29409">
        <ele>14.4</ele>
        <time>2021-08-14T14:21:32Z</time>
      </trkpt>
      <trkpt lat="47.71004" lon="-3.29402">
        <ele>14.4</ele>
        <time>2021-08-14T14:21:33Z</time>
      </trkpt>
      <trkpt lat="47.71002" lon="-3.29395">
        <ele>14.4</ele>
        <time>2021-08-14T14:21:34Z</time>
      </trkpt>
      <trkpt lat="47.71001" lon="-3.29387">
        <ele>14.4</ele>
        <time>2021-08-14T14:21:35Z</time>
      </trkpt>
      <trkpt lat="47.71" lon="-3.2938">
        <ele>14.4</ele>
        <time>2021-08-14T14:21:36Z</time>
      </trkpt>
      <trkpt lat="47.70998" lon="-3.29374">
        <ele>14.4</ele>
        <time>2021-08-14T14:21:37Z</time>
      </trkpt>
      <trkpt lat="47.70997" lon="-3.29367">
        <ele>14.4</ele>
        <time>2021-08-14T14:21:38Z</time>
      </trkpt>
      <trkpt lat="47.70996" lon="-3.29361">
        <ele>14.6</ele>
        <time>2021-08-14T14:21:39Z</time>
      </trkpt>
      <trkpt lat="47.70995" lon="-3.29354">
        <ele>14.6</ele>
        <time>2021-08-14T14:21:40Z</time>
      </trkpt>
      <trkpt lat="47.70994" lon="-3.29347">
        <ele>14.6</ele>
        <time>2021-08-14T14:21:41Z</time>
      </trkpt>
      <trkpt lat="47.70993" lon="-3.2934">
        <ele>14.6</ele>
        <time>2021-08-14T14:21:42Z</time>
      </trkpt>
      <trkpt lat="47.70992" lon="-3.29333">
        <ele>14.6</ele>
        <time>2021-08-14T14:21:43Z</time>
      </trkpt>
      <trkpt lat="47.70991" lon="-3.29326">
        <ele>14.6</ele>
        <time>2021-08-14T14:21:44Z</time>
      </trkpt>
      <trkpt lat="47.7099" lon="-3.29319">
        <ele>14.6</ele>
        <time>2021-08-14T14:21:45Z</time>
      </trkpt>
      <trkpt lat="47.70989" lon="-3.29311">
        <ele>14.6</ele>
        <time>2021-08-14T14:21:46Z</time>
      </trkpt>
      <trkpt lat="47.70988" lon="-3.29303">
        <ele>14.6</ele>
        <time>2021-08-14T14:21:47Z</time>
      </trkpt>
      <trkpt lat="47.70987" lon="-3.29295">
        <ele>14.4</ele>
        <time>2021-08-14T14:21:48Z</time>
      </trkpt>
      <trkpt lat="47.70987" lon="-3.29287">
        <ele>14.4</ele>
        <time>2021-08-14T14:21:49Z</time>
      </trkpt>
      <trkpt lat="47.70986" lon="-3.2928">
        <ele>14.4</ele>
        <time>2021-08-14T14:21:50Z</time>
      </trkpt>
      <trkpt lat="47.70986" lon="-3.29272">
        <ele>14.2</ele>
        <time>2021-08-14T14:21:51Z</time>
      </trkpt>
      <trkpt lat="47.70985" lon="-3.29264">
        <ele>14.2</ele>
        <time>2021-08-14T14:21:52Z</time>
      </trkpt>
      <trkpt lat="47.70985" lon="-3.29256">
        <ele>14</ele>
        <time>2021-08-14T14:21:53Z</time>
      </trkpt>
      <trkpt lat="47.70984" lon="-3.29248">
        <ele>14</ele>
        <time>2021-08-14T14:21:54Z</time>
      </trkpt>
      <trkpt lat="47.70984" lon="-3.2924">
        <ele>14</ele>
        <time>2021-08-14T14:21:55Z</time>
      </trkpt>
      <trkpt lat="47.70984" lon="-3.29233">
        <ele>13.8</ele>
        <time>2021-08-14T14:21:56Z</time>
      </trkpt>
      <trkpt lat="47.70984" lon="-3.29226">
        <ele>13.8</ele>
        <time>2021-08-14T14:21:57Z</time>
      </trkpt>
      <trkpt lat="47.70984" lon="-3.2922">
        <ele>13.8</ele>
        <time>2021-08-14T14:21:58Z</time>
      </trkpt>
      <trkpt lat="47.70984" lon="-3.29214">
        <ele>13.8</ele>
        <time>2021-08-14T14:21:59Z</time>
      </trkpt>
      <trkpt lat="47.70984" lon="-3.29208">
        <ele>13.8</ele>
        <time>2021-08-14T14:22:00Z</time>
      </trkpt>
      <trkpt lat="47.70984" lon="-3.29202">
        <ele>13.8</ele>
        <time>2021-08-14T14:22:01Z</time>
      </trkpt>
      <trkpt lat="47.70984" lon="-3.29196">
        <ele>13.8</ele>
        <time>2021-08-14T14:22:02Z</time>
      </trkpt>
      <trkpt lat="47.70984" lon="-3.2919">
        <ele>13.8</ele>
        <time>2021-08-14T14:22:03Z</time>
      </trkpt>
      <trkpt lat="47.70984" lon="-3.29184">
        <ele>13.8</ele>
        <time>2021-08-14T14:22:04Z</time>
      </trkpt>
      <trkpt lat="47.70984" lon="-3.29178">
        <ele>13.8</ele>
        <time>2021-08-14T14:22:05Z</time>
      </trkpt>
      <trkpt lat="47.70985" lon="-3.29171">
        <ele>13.8</ele>
        <time>2021-08-14T14:22:06Z</time>
      </trkpt>
      <trkpt lat="47.70985" lon="-3.29165">
        <ele>13.8</ele>
        <time>2021-08-14T14:22:07Z</time>
      </trkpt>
      <trkpt lat="47.70985" lon="-3.29159">
        <ele>13.8</ele>
        <time>2021-08-14T14:22:08Z</time>
      </trkpt>
      <trkpt lat="47.70985" lon="-3.29153">
        <ele>13.8</ele>
        <time>2021-08-14T14:22:09Z</time>
      </trkpt>
      <trkpt lat="47.70985" lon="-3.29146">
        <ele>13.8</ele>
        <time>2021-08-14T14:22:10Z</time>
      </trkpt>
      <trkpt lat="47.70986" lon="-3.2914">
        <ele>13.8</ele>
        <time>2021-08-14T14:22:11Z</time>
      </trkpt>
      <trkpt lat="47.70986" lon="-3.29135">
        <ele>13.8</ele>
        <time>2021-08-14T14:22:12Z</time>
      </trkpt>
      <trkpt lat="47.70986" lon="-3.29129">
        <ele>14</ele>
        <time>2021-08-14T14:22:13Z</time>
      </trkpt>
      <trkpt lat="47.70986" lon="-3.29124">
        <ele>14</ele>
        <time>2021-08-14T14:22:14Z</time>
      </trkpt>
      <trkpt lat="47.70986" lon="-3.29119">
        <ele>14</ele>
        <time>2021-08-14T14:22:15Z</time>
      </trkpt>
      <trkpt lat="47.70986" lon="-3.29114">
        <ele>14</ele>
        <time>2021-08-14T14:22:16Z</time>
      </trkpt>
      <trkpt lat="47.70987" lon="-3.29109">
        <ele>14</ele>
        <time>2021-08-14T14:22:17Z</time>
      </trkpt>
      <trkpt lat="47.70987" lon="-3.29104">
        <ele>14.2</ele>
        <time>2021-08-14T14:22:18Z</time>
      </trkpt>
      <trkpt lat="47.70987" lon="-3.291">
        <ele>14.2</ele>
        <time>2021-08-14T14:22:19Z</time>
      </trkpt>
      <trkpt lat="47.70987" lon="-3.29096">
        <ele>14.2</ele>
        <time>2021-08-14T14:22:20Z</time>
      </trkpt>
      <trkpt lat="47.70987" lon="-3.29092">
        <ele>14.4</ele>
        <time>2021-08-14T14:22:21Z</time>
      </trkpt>
      <trkpt lat="47.70987" lon="-3.29088">
        <ele>14.4</ele>
        <time>2021-08-14T14:22:22Z</time>
      </trkpt>
      <trkpt lat="47.70987" lon="-3.29084">
        <ele>14.4</ele>
        <time>2021-08-14T14:22:23Z</time>
      </trkpt>
      <trkpt lat="47.70987" lon="-3.2908">
        <ele>14.6</ele>
        <time>2021-08-14T14:22:24Z</time>
      </trkpt>
      <trkpt lat="47.70987" lon="-3.29075">
        <ele>14.8</ele>
        <time>2021-08-14T14:22:25Z</time>
      </trkpt>
      <trkpt lat="47.70987" lon="-3.29071">
        <ele>14.8</ele>
        <time>2021-08-14T14:22:26Z</time>
      </trkpt>
      <trkpt lat="47.70987" lon="-3.29066">
        <ele>14.8</ele>
        <time>2021-08-14T14:22:27Z</time>
      </trkpt>
      <trkpt lat="47.70988" lon="-3.29061">
        <ele>15</ele>
        <time>2021-08-14T14:22:28Z</time>
      </trkpt>
      <trkpt lat="47.70988" lon="-3.29056">
        <ele>15</ele>
        <time>2021-08-14T14:22:29Z</time>
      </trkpt>
      <trkpt lat="47.70988" lon="-3.29051">
        <ele>15</ele>
        <time>2021-08-14T14:22:30Z</time>
      </trkpt>
      <trkpt lat="47.70989" lon="-3.29046">
        <ele>15</ele>
        <time>2021-08-14T14:22:31Z</time>
      </trkpt>
      <trkpt lat="47.70989" lon="-3.29041">
        <ele>15</ele>
        <time>2021-08-14T14:22:32Z</time>
      </trkpt>
      <trkpt lat="47.70989" lon="-3.29036">
        <ele>15</ele>
        <time>2021-08-14T14:22:33Z</time>
      </trkpt>
      <trkpt lat="47.7099" lon="-3.29031">
        <ele>15</ele>
        <time>2021-08-14T14:22:34Z</time>
      </trkpt>
      <trkpt lat="47.7099" lon="-3.29026">
        <ele>15.2</ele>
        <time>2021-08-14T14:22:35Z</time>
      </trkpt>
      <trkpt lat="47.7099" lon="-3.29021">
        <ele>15.2</ele>
        <time>2021-08-14T14:22:36Z</time>
      </trkpt>
      <trkpt lat="47.7099" lon="-3.29016">
        <ele>15.4</ele>
        <time>2021-08-14T14:22:37Z</time>
      </trkpt>
      <trkpt lat="47.70991" lon="-3.29011">
        <ele>15.6</ele>
        <time>2021-08-14T14:22:38Z</time>
      </trkpt>
      <trkpt lat="47.70991" lon="-3.29006">
        <ele>15.6</ele>
        <time>2021-08-14T14:22:39Z</time>
      </trkpt>
      <trkpt lat="47.70991" lon="-3.29001">
        <ele>15.8</ele>
        <time>2021-08-14T14:22:40Z</time>
      </trkpt>
      <trkpt lat="47.70992" lon="-3.28995">
        <ele>16</ele>
        <time>2021-08-14T14:22:41Z</time>
      </trkpt>
      <trkpt lat="47.70992" lon="-3.2899">
        <ele>16</ele>
        <time>2021-08-14T14:22:42Z</time>
      </trkpt>
      <trkpt lat="47.70993" lon="-3.28985">
        <ele>16.2</ele>
        <time>2021-08-14T14:22:43Z</time>
      </trkpt>
      <trkpt lat="47.70993" lon="-3.2898">
        <ele>16.2</ele>
        <time>2021-08-14T14:22:44Z</time>
      </trkpt>
      <trkpt lat="47.70994" lon="-3.28975">
        <ele>16.4</ele>
        <time>2021-08-14T14:22:45Z</time>
      </trkpt>
      <trkpt lat="47.70994" lon="-3.2897">
        <ele>16.4</ele>
        <time>2021-08-14T14:22:46Z</time>
      </trkpt>
      <trkpt lat="47.70995" lon="-3.28965">
        <ele>16.6</ele>
        <time>2021-08-14T14:22:47Z</time>
      </trkpt>
      <trkpt lat="47.70995" lon="-3.28959">
        <ele>16.6</ele>
        <time>2021-08-14T14:22:48Z</time>
      </trkpt>
      <trkpt lat="47.70995" lon="-3.28954">
        <ele>16.6</ele>
        <time>2021-08-14T14:22:49Z</time>
      </trkpt>
      <trkpt lat="47.70996" lon="-3.28948">
        <ele>16.6</ele>
        <time>2021-08-14T14:22:50Z</time>
      </trkpt>
      <trkpt lat="47.70997" lon="-3.28943">
        <ele>16.8</ele>
        <time>2021-08-14T14:22:51Z</time>
      </trkpt>
      <trkpt lat="47.70997" lon="-3.28937">
        <ele>17</ele>
        <time>2021-08-14T14:22:52Z</time>
      </trkpt>
      <trkpt lat="47.70998" lon="-3.28931">
        <ele>17.2</ele>
        <time>2021-08-14T14:22:53Z</time>
      </trkpt>
      <trkpt lat="47.70998" lon="-3.28926">
        <ele>17.4</ele>
        <time>2021-08-14T14:22:54Z</time>
      </trkpt>
      <trkpt lat="47.70999" lon="-3.2892">
        <ele>17.6</ele>
        <time>2021-08-14T14:22:55Z</time>
      </trkpt>
      <trkpt lat="47.71" lon="-3.28914">
        <ele>17.8</ele>
        <time>2021-08-14T14:22:56Z</time>
      </trkpt>
      <trkpt lat="47.71001" lon="-3.28908">
        <ele>17.8</ele>
        <time>2021-08-14T14:22:57Z</time>
      </trkpt>
      <trkpt lat="47.71002" lon="-3.28902">
        <ele>17.8</ele>
        <time>2021-08-14T14:22:58Z</time>
      </trkpt>
      <trkpt lat="47.71003" lon="-3.28895">
        <ele>18</ele>
        <time>2021-08-14T14:22:59Z</time>
      </trkpt>
      <trkpt lat="47.71004" lon="-3.28889">
        <ele>18</ele>
        <time>2021-08-14T14:23:00Z</time>
      </trkpt>
      <trkpt lat="47.71005" lon="-3.28882">
        <ele>18</ele>
        <time>2021-08-14T14:23:01Z</time>
      </trkpt>
      <trkpt lat="47.71005" lon="-3.28875">
        <ele>18.2</ele>
        <time>2021-08-14T14:23:02Z</time>
      </trkpt>
      <trkpt lat="47.71006" lon="-3.28868">
        <ele>18.2</ele>
        <time>2021-08-14T14:23:03Z</time>
      </trkpt>
      <trkpt lat="47.71007" lon="-3.28862">
        <ele>18.2</ele>
        <time>2021-08-14T14:23:04Z</time>
      </trkpt>
      <trkpt lat="47.71008" lon="-3.28855">
        <ele>18.2</ele>
        <time>2021-08-14T14:23:05Z</time>
      </trkpt>
      <trkpt lat="47.71009" lon="-3.28849">
        <ele>18.2</ele>
        <time>2021-08-14T14:23:06Z</time>
      </trkpt>
      <trkpt lat="47.7101" lon="-3.28843">
        <ele>18.4</ele>
        <time>2021-08-14T14:23:07Z</time>
      </trkpt>
      <trkpt lat="47.7101" lon="-3.28836">
        <ele>18.4</ele>
        <time>2021-08-14T14:23:08Z</time>
      </trkpt>
      <trkpt lat="47.71011" lon="-3.28829">
        <ele>18.4</ele>
        <time>2021-08-14T14:23:09Z</time>
      </trkpt>
      <trkpt lat="47.71011" lon="-3.28822">
        <ele>18.4</ele>
        <time>2021-08-14T14:23:10Z</time>
      </trkpt>
      <trkpt lat="47.71012" lon="-3.28816">
        <ele>18.4</ele>
        <time>2021-08-14T14:23:11Z</time>
      </trkpt>
      <trkpt lat="47.71012" lon="-3.28809">
        <ele>18.4</ele>
        <time>2021-08-14T14:23:12Z</time>
      </trkpt>
      <trkpt lat="47.71012" lon="-3.28803">
        <ele>18.4</ele>
        <time>2021-08-14T14:23:13Z</time>
      </trkpt>
      <trkpt lat="47.71012" lon="-3.28796">
        <ele>18.4</ele>
        <time>2021-08-14T14:23:14Z</time>
      </trkpt>
      <trkpt lat="47.71012" lon="-3.28789">
        <ele>18.6</ele>
        <time>2021-08-14T14:23:15Z</time>
      </trkpt>
      <trkpt lat="47.71012" lon="-3.28782">
        <ele>18.4</ele>
        <time>2021-08-14T14:23:16Z</time>
      </trkpt>
      <trkpt lat="47.71011" lon="-3.28775">
        <ele>18.4</ele>
        <time>2021-08-14T14:23:17Z</time>
      </trkpt>
      <trkpt lat="47.71011" lon="-3.28769">
        <ele>18.4</ele>
        <time>2021-08-14T14:23:18Z</time>
      </trkpt>
      <trkpt lat="47.7101" lon="-3.28762">
        <ele>18.4</ele>
        <time>2021-08-14T14:23:19Z</time>
      </trkpt>
      <trkpt lat="47.7101" lon="-3.28755">
        <ele>18.4</ele>
        <time>2021-08-14T14:23:20Z</time>
      </trkpt>
      <trkpt lat="47.7101" lon="-3.28748">
        <ele>18.4</ele>
        <time>2021-08-14T14:23:21Z</time>
      </trkpt>
      <trkpt lat="47.71009" lon="-3.28741">
        <ele>18.4</ele>
        <time>2021-08-14T14:23:22Z</time>
      </trkpt>
      <trkpt lat="47.71009" lon="-3.28734">
        <ele>18.4</ele>
        <time>2021-08-14T14:23:23Z</time>
      </trkpt>
      <trkpt lat="47.71009" lon="-3.28727">
        <ele>18.4</ele>
        <time>2021-08-14T14:23:24Z</time>
      </trkpt>
      <trkpt lat="47.71009" lon="-3.28721">
        <ele>18.4</ele>
        <time>2021-08-14T14:23:25Z</time>
      </trkpt>
      <trkpt lat="47.71009" lon="-3.28714">
        <ele>18.4</ele>
        <time>2021-08-14T14:23:26Z</time>
      </trkpt>
      <trkpt lat="47.71008" lon="-3.28707">
        <ele>18.4</ele>
        <time>2021-08-14T14:23:27Z</time>
      </trkpt>
      <trkpt lat="47.71008" lon="-3.28701">
        <ele>18.4</ele>
        <time>2021-08-14T14:23:28Z</time>
      </trkpt>
      <trkpt lat="47.71008" lon="-3.28695">
        <ele>18.4</ele>
        <time>2021-08-14T14:23:29Z</time>
      </trkpt>
      <trkpt lat="47.71008" lon="-3.28688">
        <ele>18.4</ele>
        <time>2021-08-14T14:23:30Z</time>
      </trkpt>
      <trkpt lat="47.71008" lon="-3.28682">
        <ele>18.4</ele>
        <time>2021-08-14T14:23:31Z</time>
      </trkpt>
      <trkpt lat="47.71008" lon="-3.28676">
        <ele>18.4</ele>
        <time>2021-08-14T14:23:32Z</time>
      </trkpt>
      <trkpt lat="47.71008" lon="-3.28669">
        <ele>18.4</ele>
        <time>2021-08-14T14:23:33Z</time>
      </trkpt>
      <trkpt lat="47.71008" lon="-3.28663">
        <ele>18.8</ele>
        <time>2021-08-14T14:23:34Z</time>
      </trkpt>
      <trkpt lat="47.71008" lon="-3.28657">
        <ele>18.6</ele>
        <time>2021-08-14T14:23:35Z</time>
      </trkpt>
      <trkpt lat="47.71008" lon="-3.2865">
        <ele>18.8</ele>
        <time>2021-08-14T14:23:36Z</time>
      </trkpt>
      <trkpt lat="47.71007" lon="-3.28644">
        <ele>18.8</ele>
        <time>2021-08-14T14:23:37Z</time>
      </trkpt>
      <trkpt lat="47.71007" lon="-3.28637">
        <ele>18.8</ele>
        <time>2021-08-14T14:23:38Z</time>
      </trkpt>
      <trkpt lat="47.71007" lon="-3.28631">
        <ele>19</ele>
        <time>2021-08-14T14:23:39Z</time>
      </trkpt>
      <trkpt lat="47.71007" lon="-3.28624">
        <ele>19</ele>
        <time>2021-08-14T14:23:40Z</time>
      </trkpt>
      <trkpt lat="47.71007" lon="-3.28618">
        <ele>19</ele>
        <time>2021-08-14T14:23:41Z</time>
      </trkpt>
      <trkpt lat="47.71007" lon="-3.28611">
        <ele>19</ele>
        <time>2021-08-14T14:23:42Z</time>
      </trkpt>
      <trkpt lat="47.71007" lon="-3.28605">
        <ele>19.2</ele>
        <time>2021-08-14T14:23:43Z</time>
      </trkpt>
      <trkpt lat="47.71007" lon="-3.28599">
        <ele>19.2</ele>
        <time>2021-08-14T14:23:44Z</time>
      </trkpt>
      <trkpt lat="47.71007" lon="-3.28593">
        <ele>19.2</ele>
        <time>2021-08-14T14:23:45Z</time>
      </trkpt>
      <trkpt lat="47.71007" lon="-3.28588">
        <ele>19.4</ele>
        <time>2021-08-14T14:23:46Z</time>
      </trkpt>
      <trkpt lat="47.71007" lon="-3.28582">
        <ele>19.6</ele>
        <time>2021-08-14T14:23:47Z</time>
      </trkpt>
      <trkpt lat="47.71007" lon="-3.28577">
        <ele>19.8</ele>
        <time>2021-08-14T14:23:48Z</time>
      </trkpt>
      <trkpt lat="47.71007" lon="-3.28572">
        <ele>20.2</ele>
        <time>2021-08-14T14:23:49Z</time>
      </trkpt>
      <trkpt lat="47.71007" lon="-3.28566">
        <ele>20.4</ele>
        <time>2021-08-14T14:23:50Z</time>
      </trkpt>
      <trkpt lat="47.71007" lon="-3.28561">
        <ele>20.6</ele>
        <time>2021-08-14T14:23:51Z</time>
      </trkpt>
      <trkpt lat="47.71007" lon="-3.28556">
        <ele>20.8</ele>
        <time>2021-08-14T14:23:52Z</time>
      </trkpt>
      <trkpt lat="47.71007" lon="-3.28551">
        <ele>21</ele>
        <time>2021-08-14T14:23:53Z</time>
      </trkpt>
      <trkpt lat="47.71007" lon="-3.28546">
        <ele>21.2</ele>
        <time>2021-08-14T14:23:54Z</time>
      </trkpt>
      <trkpt lat="47.71007" lon="-3.28542">
        <ele>21.2</ele>
        <time>2021-08-14T14:23:55Z</time>
      </trkpt>
      <trkpt lat="47.71007" lon="-3.28537">
        <ele>21.4</ele>
        <time>2021-08-14T14:23:56Z</time>
      </trkpt>
      <trkpt lat="47.71007" lon="-3.28532">
        <ele>21.6</ele>
        <time>2021-08-14T14:23:57Z</time>
      </trkpt>
      <trkpt lat="47.71007" lon="-3.28527">
        <ele>21.8</ele>
        <time>2021-08-14T14:23:58Z</time>
      </trkpt>
      <trkpt lat="47.71007" lon="-3.28523">
        <ele>22</ele>
        <time>2021-08-14T14:23:59Z</time>
      </trkpt>
      <trkpt lat="47.71007" lon="-3.28518">
        <ele>22</ele>
        <time>2021-08-14T14:24:00Z</time>
      </trkpt>
      <trkpt lat="47.71007" lon="-3.28513">
        <ele>22.2</ele>
        <time>2021-08-14T14:24:01Z</time>
      </trkpt>
      <trkpt lat="47.71007" lon="-3.28509">
        <ele>22.4</ele>
        <time>2021-08-14T14:24:02Z</time>
      </trkpt>
      <trkpt lat="47.71007" lon="-3.28504">
        <ele>22.6</ele>
        <time>2021-08-14T14:24:03Z</time>
      </trkpt>
      <trkpt lat="47.71007" lon="-3.28499">
        <ele>22.8</ele>
        <time>2021-08-14T14:24:04Z</time>
      </trkpt>
      <trkpt lat="47.71007" lon="-3.28494">
        <ele>22.8</ele>
        <time>2021-08-14T14:24:05Z</time>
      </trkpt>
      <trkpt lat="47.71007" lon="-3.2849">
        <ele>23.2</ele>
        <time>2021-08-14T14:24:06Z</time>
      </trkpt>
      <trkpt lat="47.71008" lon="-3.28485">
        <ele>23.4</ele>
        <time>2021-08-14T14:24:07Z</time>
      </trkpt>
      <trkpt lat="47.71008" lon="-3.2848">
        <ele>23.4</ele>
        <time>2021-08-14T14:24:08Z</time>
      </trkpt>
      <trkpt lat="47.71008" lon="-3.28475">
        <ele>23.4</ele>
        <time>2021-08-14T14:24:09Z</time>
      </trkpt>
      <trkpt lat="47.71008" lon="-3.2847">
        <ele>23.6</ele>
        <time>2021-08-14T14:24:10Z</time>
      </trkpt>
      <trkpt lat="47.71008" lon="-3.28466">
        <ele>23.6</ele>
        <time>2021-08-14T14:24:11Z</time>
      </trkpt>
      <trkpt lat="47.71007" lon="-3.28461">
        <ele>23.8</ele>
        <time>2021-08-14T14:24:12Z</time>
      </trkpt>
      <trkpt lat="47.71007" lon="-3.28456">
        <ele>24</ele>
        <time>2021-08-14T14:24:13Z</time>
      </trkpt>
      <trkpt lat="47.71008" lon="-3.28451">
        <ele>24</ele>
        <time>2021-08-14T14:24:14Z</time>
      </trkpt>
      <trkpt lat="47.71008" lon="-3.28446">
        <ele>24.2</ele>
        <time>2021-08-14T14:24:15Z</time>
      </trkpt>
      <trkpt lat="47.71008" lon="-3.28441">
        <ele>24.4</ele>
        <time>2021-08-14T14:24:16Z</time>
      </trkpt>
      <trkpt lat="47.71008" lon="-3.28436">
        <ele>24.6</ele>
        <time>2021-08-14T14:24:17Z</time>
      </trkpt>
      <trkpt lat="47.71008" lon="-3.2843">
        <ele>24.8</ele>
        <time>2021-08-14T14:24:18Z</time>
      </trkpt>
      <trkpt lat="47.71008" lon="-3.28425">
        <ele>24.8</ele>
        <time>2021-08-14T14:24:19Z</time>
      </trkpt>
      <trkpt lat="47.71007" lon="-3.2842">
        <ele>25</ele>
        <time>2021-08-14T14:24:20Z</time>
      </trkpt>
      <trkpt lat="47.71007" lon="-3.28415">
        <ele>25</ele>
        <time>2021-08-14T14:24:21Z</time>
      </trkpt>
      <trkpt lat="47.71007" lon="-3.2841">
        <ele>25.2</ele>
        <time>2021-08-14T14:24:22Z</time>
      </trkpt>
      <trkpt lat="47.71006" lon="-3.28405">
        <ele>25.4</ele>
        <time>2021-08-14T14:24:23Z</time>
      </trkpt>
      <trkpt lat="47.71006" lon="-3.284">
        <ele>25.4</ele>
        <time>2021-08-14T14:24:24Z</time>
      </trkpt>
      <trkpt lat="47.71006" lon="-3.28394">
        <ele>25.6</ele>
        <time>2021-08-14T14:24:25Z</time>
      </trkpt>
      <trkpt lat="47.71005" lon="-3.28389">
        <ele>25.6</ele>
        <time>2021-08-14T14:24:26Z</time>
      </trkpt>
      <trkpt lat="47.71005" lon="-3.28384">
        <ele>25.8</ele>
        <time>2021-08-14T14:24:27Z</time>
      </trkpt>
      <trkpt lat="47.71004" lon="-3.28378">
        <ele>25.8</ele>
        <time>2021-08-14T14:24:28Z</time>
      </trkpt>
      <trkpt lat="47.71003" lon="-3.28373">
        <ele>26</ele>
        <time>2021-08-14T14:24:29Z</time>
      </trkpt>
      <trkpt lat="47.71003" lon="-3.28368">
        <ele>26</ele>
        <time>2021-08-14T14:24:30Z</time>
      </trkpt>
      <trkpt lat="47.71002" lon="-3.28362">
        <ele>26.2</ele>
        <time>2021-08-14T14:24:31Z</time>
      </trkpt>
      <trkpt lat="47.71001" lon="-3.28357">
        <ele>26.2</ele>
        <time>2021-08-14T14:24:32Z</time>
      </trkpt>
      <trkpt lat="47.71" lon="-3.28351">
        <ele>26.4</ele>
        <time>2021-08-14T14:24:33Z</time>
      </trkpt>
      <trkpt lat="47.70999" lon="-3.28345">
        <ele>26.6</ele>
        <time>2021-08-14T14:24:34Z</time>
      </trkpt>
      <trkpt lat="47.70999" lon="-3.28339">
        <ele>27</ele>
        <time>2021-08-14T14:24:35Z</time>
      </trkpt>
      <trkpt lat="47.70998" lon="-3.28333">
        <ele>26.8</ele>
        <time>2021-08-14T14:24:36Z</time>
      </trkpt>
      <trkpt lat="47.70997" lon="-3.28327">
        <ele>27</ele>
        <time>2021-08-14T14:24:37Z</time>
      </trkpt>
      <trkpt lat="47.70996" lon="-3.28321">
        <ele>27</ele>
        <time>2021-08-14T14:24:38Z</time>
      </trkpt>
      <trkpt lat="47.70995" lon="-3.28315">
        <ele>27.2</ele>
        <time>2021-08-14T14:24:39Z</time>
      </trkpt>
      <trkpt lat="47.70995" lon="-3.28309">
        <ele>27</ele>
        <time>2021-08-14T14:24:40Z</time>
      </trkpt>
      <trkpt lat="47.70994" lon="-3.28303">
        <ele>27.2</ele>
        <time>2021-08-14T14:24:41Z</time>
      </trkpt>
      <trkpt lat="47.70993" lon="-3.28297">
        <ele>27.2</ele>
        <time>2021-08-14T14:24:42Z</time>
      </trkpt>
      <trkpt lat="47.70992" lon="-3.2829">
        <ele>27.2</ele>
        <time>2021-08-14T14:24:43Z</time>
      </trkpt>
      <trkpt lat="47.70991" lon="-3.28284">
        <ele>27.2</ele>
        <time>2021-08-14T14:24:44Z</time>
      </trkpt>
      <trkpt lat="47.7099" lon="-3.28278">
        <ele>27.2</ele>
        <time>2021-08-14T14:24:45Z</time>
      </trkpt>
      <trkpt lat="47.70989" lon="-3.28272">
        <ele>27.4</ele>
        <time>2021-08-14T14:24:46Z</time>
      </trkpt>
      <trkpt lat="47.70989" lon="-3.28266">
        <ele>27.4</ele>
        <time>2021-08-14T14:24:47Z</time>
      </trkpt>
      <trkpt lat="47.70988" lon="-3.2826">
        <ele>27.6</ele>
        <time>2021-08-14T14:24:48Z</time>
      </trkpt>
      <trkpt lat="47.70987" lon="-3.28254">
        <ele>27.8</ele>
        <time>2021-08-14T14:24:49Z</time>
      </trkpt>
      <trkpt lat="47.70986" lon="-3.28247">
        <ele>27.8</ele>
        <time>2021-08-14T14:24:50Z</time>
      </trkpt>
      <trkpt lat="47.70985" lon="-3.28241">
        <ele>27.8</ele>
        <time>2021-08-14T14:24:51Z</time>
      </trkpt>
      <trkpt lat="47.70984" lon="-3.28235">
        <ele>28</ele>
        <time>2021-08-14T14:24:52Z</time>
      </trkpt>
      <trkpt lat="47.70984" lon="-3.28228">
        <ele>28</ele>
        <time>2021-08-14T14:24:53Z</time>
      </trkpt>
      <trkpt lat="47.70983" lon="-3.28222">
        <ele>28</ele>
        <time>2021-08-14T14:24:54Z</time>
      </trkpt>
      <trkpt lat="47.70982" lon="-3.28215">
        <ele>28.2</ele>
        <time>2021-08-14T14:24:55Z</time>
      </trkpt>
      <trkpt lat="47.70981" lon="-3.28208">
        <ele>28.2</ele>
        <time>2021-08-14T14:24:56Z</time>
      </trkpt>
      <trkpt lat="47.7098" lon="-3.28202">
        <ele>28.2</ele>
        <time>2021-08-14T14:24:57Z</time>
      </trkpt>
      <trkpt lat="47.70979" lon="-3.28195">
        <ele>28.4</ele>
        <time>2021-08-14T14:24:58Z</time>
      </trkpt>
      <trkpt lat="47.70978" lon="-3.28188">
        <ele>28.4</ele>
        <time>2021-08-14T14:24:59Z</time>
      </trkpt>
      <trkpt lat="47.70977" lon="-3.28181">
        <ele>28.6</ele>
        <time>2021-08-14T14:25:00Z</time>
      </trkpt>
      <trkpt lat="47.70976" lon="-3.28174">
        <ele>28.6</ele>
        <time>2021-08-14T14:25:01Z</time>
      </trkpt>
      <trkpt lat="47.70975" lon="-3.28167">
        <ele>28.6</ele>
        <time>2021-08-14T14:25:02Z</time>
      </trkpt>
      <trkpt lat="47.70974" lon="-3.28161">
        <ele>28.6</ele>
        <time>2021-08-14T14:25:03Z</time>
      </trkpt>
      <trkpt lat="47.70973" lon="-3.28155">
        <ele>28.6</ele>
        <time>2021-08-14T14:25:04Z</time>
      </trkpt>
      <trkpt lat="47.70972" lon="-3.2815">
        <ele>28.6</ele>
        <time>2021-08-14T14:25:05Z</time>
      </trkpt>
      <trkpt lat="47.70971" lon="-3.28144">
        <ele>28.6</ele>
        <time>2021-08-14T14:25:06Z</time>
      </trkpt>
      <trkpt lat="47.7097" lon="-3.28139">
        <ele>28.8</ele>
        <time>2021-08-14T14:25:07Z</time>
      </trkpt>
      <trkpt lat="47.7097" lon="-3.28134">
        <ele>28.8</ele>
        <time>2021-08-14T14:25:08Z</time>
      </trkpt>
      <trkpt lat="47.70969" lon="-3.28129">
        <ele>28.8</ele>
        <time>2021-08-14T14:25:09Z</time>
      </trkpt>
      <trkpt lat="47.70968" lon="-3.28123">
        <ele>29</ele>
        <time>2021-08-14T14:25:10Z</time>
      </trkpt>
      <trkpt lat="47.70967" lon="-3.28118">
        <ele>29.2</ele>
        <time>2021-08-14T14:25:11Z</time>
      </trkpt>
      <trkpt lat="47.70966" lon="-3.28113">
        <ele>29.4</ele>
        <time>2021-08-14T14:25:12Z</time>
      </trkpt>
      <trkpt lat="47.70965" lon="-3.28108">
        <ele>29.4</ele>
        <time>2021-08-14T14:25:13Z</time>
      </trkpt>
      <trkpt lat="47.70964" lon="-3.28103">
        <ele>29.4</ele>
        <time>2021-08-14T14:25:14Z</time>
      </trkpt>
      <trkpt lat="47.70963" lon="-3.28098">
        <ele>29.6</ele>
        <time>2021-08-14T14:25:15Z</time>
      </trkpt>
      <trkpt lat="47.70961" lon="-3.28093">
        <ele>29.6</ele>
        <time>2021-08-14T14:25:16Z</time>
      </trkpt>
      <trkpt lat="47.7096" lon="-3.28087">
        <ele>29.6</ele>
        <time>2021-08-14T14:25:17Z</time>
      </trkpt>
      <trkpt lat="47.70959" lon="-3.28082">
        <ele>29.6</ele>
        <time>2021-08-14T14:25:18Z</time>
      </trkpt>
      <trkpt lat="47.70958" lon="-3.28075">
        <ele>29.6</ele>
        <time>2021-08-14T14:25:19Z</time>
      </trkpt>
      <trkpt lat="47.70956" lon="-3.28069">
        <ele>29.6</ele>
        <time>2021-08-14T14:25:20Z</time>
      </trkpt>
      <trkpt lat="47.70955" lon="-3.28063">
        <ele>29.6</ele>
        <time>2021-08-14T14:25:21Z</time>
      </trkpt>
      <trkpt lat="47.70954" lon="-3.28057">
        <ele>29.6</ele>
        <time>2021-08-14T14:25:22Z</time>
      </trkpt>
      <trkpt lat="47.70952" lon="-3.28051">
        <ele>29.6</ele>
        <time>2021-08-14T14:25:23Z</time>
      </trkpt>
      <trkpt lat="47.70951" lon="-3.28045">
        <ele>29.4</ele>
        <time>2021-08-14T14:25:24Z</time>
      </trkpt>
      <trkpt lat="47.70949" lon="-3.28039">
        <ele>29.4</ele>
        <time>2021-08-14T14:25:25Z</time>
      </trkpt>
      <trkpt lat="47.70947" lon="-3.28033">
        <ele>29.4</ele>
        <time>2021-08-14T14:25:26Z</time>
      </trkpt>
      <trkpt lat="47.70945" lon="-3.28026">
        <ele>29.4</ele>
        <time>2021-08-14T14:25:27Z</time>
      </trkpt>
      <trkpt lat="47.70943" lon="-3.28019">
        <ele>29.4</ele>
        <time>2021-08-14T14:25:28Z</time>
      </trkpt>
      <trkpt lat="47.70942" lon="-3.28012">
        <ele>29.2</ele>
        <time>2021-08-14T14:25:29Z</time>
      </trkpt>
      <trkpt lat="47.70941" lon="-3.28005">
        <ele>29.2</ele>
        <time>2021-08-14T14:25:30Z</time>
      </trkpt>
      <trkpt lat="47.7094" lon="-3.27998">
        <ele>29</ele>
        <time>2021-08-14T14:25:31Z</time>
      </trkpt>
      <trkpt lat="47.70939" lon="-3.27991">
        <ele>29</ele>
        <time>2021-08-14T14:25:32Z</time>
      </trkpt>
      <trkpt lat="47.70937" lon="-3.27984">
        <ele>29</ele>
        <time>2021-08-14T14:25:33Z</time>
      </trkpt>
      <trkpt lat="47.70936" lon="-3.27977">
        <ele>28.8</ele>
        <time>2021-08-14T14:25:34Z</time>
      </trkpt>
      <trkpt lat="47.70934" lon="-3.2797">
        <ele>28.8</ele>
        <time>2021-08-14T14:25:35Z</time>
      </trkpt>
      <trkpt lat="47.70933" lon="-3.27963">
        <ele>28.8</ele>
        <time>2021-08-14T14:25:36Z</time>
      </trkpt>
      <trkpt lat="47.70931" lon="-3.27956">
        <ele>28.8</ele>
        <time>2021-08-14T14:25:37Z</time>
      </trkpt>
      <trkpt lat="47.70929" lon="-3.27949">
        <ele>28.8</ele>
        <time>2021-08-14T14:25:38Z</time>
      </trkpt>
      <trkpt lat="47.70928" lon="-3.27942">
        <ele>28.8</ele>
        <time>2021-08-14T14:25:39Z</time>
      </trkpt>
      <trkpt lat="47.70926" lon="-3.27935">
        <ele>28.6</ele>
        <time>2021-08-14T14:25:40Z</time>
      </trkpt>
      <trkpt lat="47.70925" lon="-3.27928">
        <ele>28.6</ele>
        <time>2021-08-14T14:25:41Z</time>
      </trkpt>
      <trkpt lat="47.70924" lon="-3.27921">
        <ele>28.4</ele>
        <time>2021-08-14T14:25:42Z</time>
      </trkpt>
      <trkpt lat="47.70922" lon="-3.27915">
        <ele>28.4</ele>
        <time>2021-08-14T14:25:43Z</time>
      </trkpt>
      <trkpt lat="47.70921" lon="-3.27908">
        <ele>28.4</ele>
        <time>2021-08-14T14:25:44Z</time>
      </trkpt>
      <trkpt lat="47.70919" lon="-3.279">
        <ele>28.4</ele>
        <time>2021-08-14T14:25:45Z</time>
      </trkpt>
      <trkpt lat="47.70917" lon="-3.27893">
        <ele>28.2</ele>
        <time>2021-08-14T14:25:46Z</time>
      </trkpt>
      <trkpt lat="47.70916" lon="-3.27886">
        <ele>28.2</ele>
        <time>2021-08-14T14:25:47Z</time>
      </trkpt>
      <trkpt lat="47.70914" lon="-3.27879">
        <ele>28.2</ele>
        <time>2021-08-14T14:25:48Z</time>
      </trkpt>
      <trkpt lat="47.70913" lon="-3.27871">
        <ele>28.2</ele>
        <time>2021-08-14T14:25:49Z</time>
      </trkpt>
      <trkpt lat="47.70911" lon="-3.27864">
        <ele>28.2</ele>
        <time>2021-08-14T14:25:50Z</time>
      </trkpt>
      <trkpt lat="47.7091" lon="-3.27857">
        <ele>28.2</ele>
        <time>2021-08-14T14:25:51Z</time>
      </trkpt>
      <trkpt lat="47.70908" lon="-3.2785">
        <ele>28.2</ele>
        <time>2021-08-14T14:25:52Z</time>
      </trkpt>
      <trkpt lat="47.70907" lon="-3.27843">
        <ele>28.2</ele>
        <time>2021-08-14T14:25:53Z</time>
      </trkpt>
      <trkpt lat="47.70905" lon="-3.27836">
        <ele>28.2</ele>
        <time>2021-08-14T14:25:54Z</time>
      </trkpt>
      <trkpt lat="47.70904" lon="-3.27829">
        <ele>28.2</ele>
        <time>2021-08-14T14:25:55Z</time>
      </trkpt>
      <trkpt lat="47.70902" lon="-3.27822">
        <ele>28.2</ele>
        <time>2021-08-14T14:25:56Z</time>
      </trkpt>
      <trkpt lat="47.70901" lon="-3.27815">
        <ele>28.2</ele>
        <time>2021-08-14T14:25:57Z</time>
      </trkpt>
      <trkpt lat="47.709" lon="-3.27808">
        <ele>28.2</ele>
        <time>2021-08-14T14:25:58Z</time>
      </trkpt>
      <trkpt lat="47.70899" lon="-3.27801">
        <ele>28.2</ele>
        <time>2021-08-14T14:25:59Z</time>
      </trkpt>
      <trkpt lat="47.70898" lon="-3.27794">
        <ele>28.2</ele>
        <time>2021-08-14T14:26:00Z</time>
      </trkpt>
      <trkpt lat="47.70898" lon="-3.27786">
        <ele>28.2</ele>
        <time>2021-08-14T14:26:01Z</time>
      </trkpt>
      <trkpt lat="47.70898" lon="-3.27778">
        <ele>28.2</ele>
        <time>2021-08-14T14:26:02Z</time>
      </trkpt>
      <trkpt lat="47.70899" lon="-3.2777">
        <ele>28.2</ele>
        <time>2021-08-14T14:26:03Z</time>
      </trkpt>
      <trkpt lat="47.70899" lon="-3.27762">
        <ele>28.2</ele>
        <time>2021-08-14T14:26:04Z</time>
      </trkpt>
      <trkpt lat="47.709" lon="-3.27753">
        <ele>28.2</ele>
        <time>2021-08-14T14:26:05Z</time>
      </trkpt>
      <trkpt lat="47.709" lon="-3.27744">
        <ele>28</ele>
        <time>2021-08-14T14:26:06Z</time>
      </trkpt>
      <trkpt lat="47.709" lon="-3.27735">
        <ele>28</ele>
        <time>2021-08-14T14:26:07Z</time>
      </trkpt>
      <trkpt lat="47.70901" lon="-3.27726">
        <ele>28</ele>
        <time>2021-08-14T14:26:08Z</time>
      </trkpt>
      <trkpt lat="47.70901" lon="-3.27717">
        <ele>27.8</ele>
        <time>2021-08-14T14:26:09Z</time>
      </trkpt>
      <trkpt lat="47.70901" lon="-3.27708">
        <ele>27.6</ele>
        <time>2021-08-14T14:26:10Z</time>
      </trkpt>
      <trkpt lat="47.70901" lon="-3.27699">
        <ele>27.6</ele>
        <time>2021-08-14T14:26:11Z</time>
      </trkpt>
      <trkpt lat="47.70901" lon="-3.2769">
        <ele>27.4</ele>
        <time>2021-08-14T14:26:12Z</time>
      </trkpt>
      <trkpt lat="47.70901" lon="-3.27681">
        <ele>27.4</ele>
        <time>2021-08-14T14:26:13Z</time>
      </trkpt>
      <trkpt lat="47.70902" lon="-3.27673">
        <ele>27.2</ele>
        <time>2021-08-14T14:26:14Z</time>
      </trkpt>
      <trkpt lat="47.70902" lon="-3.27664">
        <ele>27.2</ele>
        <time>2021-08-14T14:26:15Z</time>
      </trkpt>
      <trkpt lat="47.70902" lon="-3.27655">
        <ele>27</ele>
        <time>2021-08-14T14:26:16Z</time>
      </trkpt>
      <trkpt lat="47.70902" lon="-3.27647">
        <ele>27</ele>
        <time>2021-08-14T14:26:17Z</time>
      </trkpt>
      <trkpt lat="47.70902" lon="-3.27638">
        <ele>26.8</ele>
        <time>2021-08-14T14:26:18Z</time>
      </trkpt>
      <trkpt lat="47.70901" lon="-3.27629">
        <ele>26.6</ele>
        <time>2021-08-14T14:26:19Z</time>
      </trkpt>
      <trkpt lat="47.70901" lon="-3.2762">
        <ele>26.6</ele>
        <time>2021-08-14T14:26:20Z</time>
      </trkpt>
      <trkpt lat="47.709" lon="-3.27611">
        <ele>26.6</ele>
        <time>2021-08-14T14:26:21Z</time>
      </trkpt>
      <trkpt lat="47.70899" lon="-3.27602">
        <ele>26.4</ele>
        <time>2021-08-14T14:26:22Z</time>
      </trkpt>
      <trkpt lat="47.70898" lon="-3.27593">
        <ele>26.4</ele>
        <time>2021-08-14T14:26:23Z</time>
      </trkpt>
      <trkpt lat="47.70897" lon="-3.27583">
        <ele>26.2</ele>
        <time>2021-08-14T14:26:24Z</time>
      </trkpt>
      <trkpt lat="47.70896" lon="-3.27574">
        <ele>26.2</ele>
        <time>2021-08-14T14:26:25Z</time>
      </trkpt>
      <trkpt lat="47.70895" lon="-3.27566">
        <ele>26</ele>
        <time>2021-08-14T14:26:26Z</time>
      </trkpt>
      <trkpt lat="47.70894" lon="-3.27557">
        <ele>26</ele>
        <time>2021-08-14T14:26:27Z</time>
      </trkpt>
      <trkpt lat="47.70893" lon="-3.27549">
        <ele>26</ele>
        <time>2021-08-14T14:26:28Z</time>
      </trkpt>
      <trkpt lat="47.70892" lon="-3.27541">
        <ele>26</ele>
        <time>2021-08-14T14:26:29Z</time>
      </trkpt>
      <trkpt lat="47.7089" lon="-3.27533">
        <ele>26</ele>
        <time>2021-08-14T14:26:30Z</time>
      </trkpt>
      <trkpt lat="47.70889" lon="-3.27526">
        <ele>26</ele>
        <time>2021-08-14T14:26:31Z</time>
      </trkpt>
      <trkpt lat="47.70887" lon="-3.27518">
        <ele>26</ele>
        <time>2021-08-14T14:26:32Z</time>
      </trkpt>
      <trkpt lat="47.70885" lon="-3.27511">
        <ele>26</ele>
        <time>2021-08-14T14:26:33Z</time>
      </trkpt>
      <trkpt lat="47.70883" lon="-3.27503">
        <ele>25.8</ele>
        <time>2021-08-14T14:26:34Z</time>
      </trkpt>
      <trkpt lat="47.70882" lon="-3.27495">
        <ele>25.8</ele>
        <time>2021-08-14T14:26:35Z</time>
      </trkpt>
      <trkpt lat="47.7088" lon="-3.27487">
        <ele>25.8</ele>
        <time>2021-08-14T14:26:36Z</time>
      </trkpt>
      <trkpt lat="47.70878" lon="-3.2748">
        <ele>25.8</ele>
        <time>2021-08-14T14:26:37Z</time>
      </trkpt>
      <trkpt lat="47.70876" lon="-3.27472">
        <ele>25.8</ele>
        <time>2021-08-14T14:26:38Z</time>
      </trkpt>
      <trkpt lat="47.70875" lon="-3.27465">
        <ele>25.8</ele>
        <time>2021-08-14T14:26:39Z</time>
      </trkpt>
      <trkpt lat="47.70873" lon="-3.27457">
        <ele>25.8</ele>
        <time>2021-08-14T14:26:40Z</time>
      </trkpt>
      <trkpt lat="47.70871" lon="-3.27449">
        <ele>25.8</ele>
        <time>2021-08-14T14:26:41Z</time>
      </trkpt>
      <trkpt lat="47.70869" lon="-3.2744">
        <ele>25.8</ele>
        <time>2021-08-14T14:26:42Z</time>
      </trkpt>
      <trkpt lat="47.70867" lon="-3.27432">
        <ele>25.8</ele>
        <time>2021-08-14T14:26:43Z</time>
      </trkpt>
      <trkpt lat="47.70865" lon="-3.27423">
        <ele>25.8</ele>
        <time>2021-08-14T14:26:44Z</time>
      </trkpt>
      <trkpt lat="47.70863" lon="-3.27414">
        <ele>25.8</ele>
        <time>2021-08-14T14:26:45Z</time>
      </trkpt>
      <trkpt lat="47.70861" lon="-3.27405">
        <ele>25.8</ele>
        <time>2021-08-14T14:26:46Z</time>
      </trkpt>
      <trkpt lat="47.7086" lon="-3.27396">
        <ele>25.6</ele>
        <time>2021-08-14T14:26:47Z</time>
      </trkpt>
      <trkpt lat="47.70858" lon="-3.27386">
        <ele>25.6</ele>
        <time>2021-08-14T14:26:48Z</time>
      </trkpt>
      <trkpt lat="47.70856" lon="-3.27377">
        <ele>25.4</ele>
        <time>2021-08-14T14:26:49Z</time>
      </trkpt>
      <trkpt lat="47.70854" lon="-3.27368">
        <ele>25.2</ele>
        <time>2021-08-14T14:26:50Z</time>
      </trkpt>
      <trkpt lat="47.70852" lon="-3.27359">
        <ele>25</ele>
        <time>2021-08-14T14:26:51Z</time>
      </trkpt>
      <trkpt lat="47.7085" lon="-3.2735">
        <ele>24.8</ele>
        <time>2021-08-14T14:26:52Z</time>
      </trkpt>
      <trkpt lat="47.70848" lon="-3.27341">
        <ele>24.6</ele>
        <time>2021-08-14T14:26:53Z</time>
      </trkpt>
      <trkpt lat="47.70846" lon="-3.27332">
        <ele>24.4</ele>
        <time>2021-08-14T14:26:54Z</time>
      </trkpt>
      <trkpt lat="47.70844" lon="-3.27324">
        <ele>24.2</ele>
        <time>2021-08-14T14:26:55Z</time>
      </trkpt>
      <trkpt lat="47.70842" lon="-3.27315">
        <ele>24</ele>
        <time>2021-08-14T14:26:56Z</time>
      </trkpt>
      <trkpt lat="47.70841" lon="-3.27307">
        <ele>23.8</ele>
        <time>2021-08-14T14:26:57Z</time>
      </trkpt>
      <trkpt lat="47.70839" lon="-3.27299">
        <ele>23.8</ele>
        <time>2021-08-14T14:26:58Z</time>
      </trkpt>
      <trkpt lat="47.70837" lon="-3.27291">
        <ele>23.8</ele>
        <time>2021-08-14T14:26:59Z</time>
      </trkpt>
      <trkpt lat="47.70835" lon="-3.27283">
        <ele>23.8</ele>
        <time>2021-08-14T14:27:00Z</time>
      </trkpt>
      <trkpt lat="47.70833" lon="-3.27275">
        <ele>23.8</ele>
        <time>2021-08-14T14:27:01Z</time>
      </trkpt>
      <trkpt lat="47.70832" lon="-3.27267">
        <ele>23.6</ele>
        <time>2021-08-14T14:27:02Z</time>
      </trkpt>
      <trkpt lat="47.7083" lon="-3.2726">
        <ele>23.6</ele>
        <time>2021-08-14T14:27:03Z</time>
      </trkpt>
      <trkpt lat="47.70828" lon="-3.27253">
        <ele>23.6</ele>
        <time>2021-08-14T14:27:04Z</time>
      </trkpt>
      <trkpt lat="47.70827" lon="-3.27246">
        <ele>23.6</ele>
        <time>2021-08-14T14:27:05Z</time>
      </trkpt>
      <trkpt lat="47.70825" lon="-3.27238">
        <ele>23.4</ele>
        <time>2021-08-14T14:27:06Z</time>
      </trkpt>
      <trkpt lat="47.70823" lon="-3.27231">
        <ele>23.4</ele>
        <time>2021-08-14T14:27:07Z</time>
      </trkpt>
      <trkpt lat="47.70822" lon="-3.27224">
        <ele>23.4</ele>
        <time>2021-08-14T14:27:08Z</time>
      </trkpt>
      <trkpt lat="47.7082" lon="-3.27218">
        <ele>23.4</ele>
        <time>2021-08-14T14:27:09Z</time>
      </trkpt>
      <trkpt lat="47.70819" lon="-3.27211">
        <ele>23.4</ele>
        <time>2021-08-14T14:27:10Z</time>
      </trkpt>
      <trkpt lat="47.70817" lon="-3.27205">
        <ele>23.4</ele>
        <time>2021-08-14T14:27:11Z</time>
      </trkpt>
      <trkpt lat="47.70816" lon="-3.27198">
        <ele>23.4</ele>
        <time>2021-08-14T14:27:12Z</time>
      </trkpt>
      <trkpt lat="47.70814" lon="-3.27192">
        <ele>23.4</ele>
        <time>2021-08-14T14:27:13Z</time>
      </trkpt>
      <trkpt lat="47.70813" lon="-3.27186">
        <ele>23.4</ele>
        <time>2021-08-14T14:27:14Z</time>
      </trkpt>
      <trkpt lat="47.70812" lon="-3.27181">
        <ele>23.4</ele>
        <time>2021-08-14T14:27:15Z</time>
      </trkpt>
      <trkpt lat="47.7081" lon="-3.27175">
        <ele>23.4</ele>
        <time>2021-08-14T14:27:16Z</time>
      </trkpt>
      <trkpt lat="47.70809" lon="-3.2717">
        <ele>23.4</ele>
        <time>2021-08-14T14:27:17Z</time>
      </trkpt>
      <trkpt lat="47.70808" lon="-3.27165">
        <ele>23.4</ele>
        <time>2021-08-14T14:27:18Z</time>
      </trkpt>
      <trkpt lat="47.70807" lon="-3.2716">
        <ele>23.6</ele>
        <time>2021-08-14T14:27:19Z</time>
      </trkpt>
      <trkpt lat="47.70806" lon="-3.27156">
        <ele>23.8</ele>
        <time>2021-08-14T14:27:20Z</time>
      </trkpt>
      <trkpt lat="47.70804" lon="-3.27151">
        <ele>24.2</ele>
        <time>2021-08-14T14:27:21Z</time>
      </trkpt>
      <trkpt lat="47.70803" lon="-3.27146">
        <ele>24.4</ele>
        <time>2021-08-14T14:27:22Z</time>
      </trkpt>
      <trkpt lat="47.70802" lon="-3.27141">
        <ele>24.6</ele>
        <time>2021-08-14T14:27:23Z</time>
      </trkpt>
      <trkpt lat="47.708" lon="-3.27135">
        <ele>24.8</ele>
        <time>2021-08-14T14:27:24Z</time>
      </trkpt>
      <trkpt lat="47.70799" lon="-3.2713">
        <ele>25</ele>
        <time>2021-08-14T14:27:25Z</time>
      </trkpt>
      <trkpt lat="47.70797" lon="-3.27125">
        <ele>25</ele>
        <time>2021-08-14T14:27:26Z</time>
      </trkpt>
      <trkpt lat="47.70796" lon="-3.27119">
        <ele>25.2</ele>
        <time>2021-08-14T14:27:27Z</time>
      </trkpt>
      <trkpt lat="47.70794" lon="-3.27114">
        <ele>25.4</ele>
        <time>2021-08-14T14:27:28Z</time>
      </trkpt>
      <trkpt lat="47.70793" lon="-3.27109">
        <ele>25.6</ele>
        <time>2021-08-14T14:27:29Z</time>
      </trkpt>
      <trkpt lat="47.70791" lon="-3.27104">
        <ele>25.6</ele>
        <time>2021-08-14T14:27:30Z</time>
      </trkpt>
      <trkpt lat="47.7079" lon="-3.27099">
        <ele>25.8</ele>
        <time>2021-08-14T14:27:31Z</time>
      </trkpt>
      <trkpt lat="47.70789" lon="-3.27094">
        <ele>26</ele>
        <time>2021-08-14T14:27:32Z</time>
      </trkpt>
      <trkpt lat="47.70787" lon="-3.27089">
        <ele>26.4</ele>
        <time>2021-08-14T14:27:33Z</time>
      </trkpt>
      <trkpt lat="47.70786" lon="-3.27084">
        <ele>26.6</ele>
        <time>2021-08-14T14:27:34Z</time>
      </trkpt>
      <trkpt lat="47.70785" lon="-3.2708">
        <ele>26.8</ele>
        <time>2021-08-14T14:27:35Z</time>
      </trkpt>
      <trkpt lat="47.70784" lon="-3.27076">
        <ele>26.8</ele>
        <time>2021-08-14T14:27:36Z</time>
      </trkpt>
      <trkpt lat="47.70783" lon="-3.27072">
        <ele>27</ele>
        <time>2021-08-14T14:27:37Z</time>
      </trkpt>
      <trkpt lat="47.70781" lon="-3.27069">
        <ele>27</ele>
        <time>2021-08-14T14:27:38Z</time>
      </trkpt>
      <trkpt lat="47.7078" lon="-3.27066">
        <ele>27.2</ele>
        <time>2021-08-14T14:27:39Z</time>
      </trkpt>
      <trkpt lat="47.70779" lon="-3.27063">
        <ele>27.4</ele>
        <time>2021-08-14T14:27:40Z</time>
      </trkpt>
      <trkpt lat="47.70778" lon="-3.2706">
        <ele>27.4</ele>
        <time>2021-08-14T14:27:41Z</time>
      </trkpt>
      <trkpt lat="47.70777" lon="-3.27056">
        <ele>27.6</ele>
        <time>2021-08-14T14:27:42Z</time>
      </trkpt>
      <trkpt lat="47.70776" lon="-3.27053">
        <ele>27.8</ele>
        <time>2021-08-14T14:27:43Z</time>
      </trkpt>
      <trkpt lat="47.70775" lon="-3.27049">
        <ele>28</ele>
        <time>2021-08-14T14:27:44Z</time>
      </trkpt>
      <trkpt lat="47.70774" lon="-3.27046">
        <ele>28.2</ele>
        <time>2021-08-14T14:27:45Z</time>
      </trkpt>
      <trkpt lat="47.70773" lon="-3.27043">
        <ele>28.2</ele>
        <time>2021-08-14T14:27:46Z</time>
      </trkpt>
      <trkpt lat="47.70772" lon="-3.2704">
        <ele>28.4</ele>
        <time>2021-08-14T14:27:47Z</time>
      </trkpt>
      <trkpt lat="47.70771" lon="-3.27037">
        <ele>28.4</ele>
        <time>2021-08-14T14:27:48Z</time>
      </trkpt>
      <trkpt lat="47.7077" lon="-3.27034">
        <ele>28.6</ele>
        <time>2021-08-14T14:27:49Z</time>
      </trkpt>
      <trkpt lat="47.70768" lon="-3.2703">
        <ele>28.6</ele>
        <time>2021-08-14T14:27:50Z</time>
      </trkpt>
      <trkpt lat="47.70767" lon="-3.27027">
        <ele>28.8</ele>
        <time>2021-08-14T14:27:51Z</time>
      </trkpt>
      <trkpt lat="47.70766" lon="-3.27023">
        <ele>28.8</ele>
        <time>2021-08-14T14:27:52Z</time>
      </trkpt>
      <trkpt lat="47.70764" lon="-3.2702">
        <ele>28.8</ele>
        <time>2021-08-14T14:27:53Z</time>
      </trkpt>
      <trkpt lat="47.70763" lon="-3.27016">
        <ele>28.8</ele>
        <time>2021-08-14T14:27:54Z</time>
      </trkpt>
      <trkpt lat="47.70762" lon="-3.27012">
        <ele>29</ele>
        <time>2021-08-14T14:27:55Z</time>
      </trkpt>
      <trkpt lat="47.7076" lon="-3.27008">
        <ele>29</ele>
        <time>2021-08-14T14:27:56Z</time>
      </trkpt>
      <trkpt lat="47.70758" lon="-3.27004">
        <ele>29</ele>
        <time>2021-08-14T14:27:57Z</time>
      </trkpt>
      <trkpt lat="47.70757" lon="-3.27">
        <ele>29.2</ele>
        <time>2021-08-14T14:27:58Z</time>
      </trkpt>
      <trkpt lat="47.70755" lon="-3.26996">
        <ele>29.2</ele>
        <time>2021-08-14T14:27:59Z</time>
      </trkpt>
      <trkpt lat="47.70754" lon="-3.26993">
        <ele>29.2</ele>
        <time>2021-08-14T14:28:00Z</time>
      </trkpt>
      <trkpt lat="47.70752" lon="-3.26989">
        <ele>29.2</ele>
        <time>2021-08-14T14:28:01Z</time>
      </trkpt>
      <trkpt lat="47.70751" lon="-3.26985">
        <ele>29.4</ele>
        <time>2021-08-14T14:28:02Z</time>
      </trkpt>
      <trkpt lat="47.70749" lon="-3.2698">
        <ele>29.4</ele>
        <time>2021-08-14T14:28:03Z</time>
      </trkpt>
      <trkpt lat="47.70748" lon="-3.26976">
        <ele>29.4</ele>
        <time>2021-08-14T14:28:04Z</time>
      </trkpt>
      <trkpt lat="47.70746" lon="-3.26971">
        <ele>29.4</ele>
        <time>2021-08-14T14:28:05Z</time>
      </trkpt>
      <trkpt lat="47.70744" lon="-3.26967">
        <ele>29.4</ele>
        <time>2021-08-14T14:28:06Z</time>
      </trkpt>
      <trkpt lat="47.70742" lon="-3.26962">
        <ele>29.6</ele>
        <time>2021-08-14T14:28:07Z</time>
      </trkpt>
      <trkpt lat="47.7074" lon="-3.26957">
        <ele>29.6</ele>
        <time>2021-08-14T14:28:08Z</time>
      </trkpt>
      <trkpt lat="47.70739" lon="-3.26952">
        <ele>29.6</ele>
        <time>2021-08-14T14:28:09Z</time>
      </trkpt>
      <trkpt lat="47.70737" lon="-3.26947">
        <ele>29.6</ele>
        <time>2021-08-14T14:28:10Z</time>
      </trkpt>
      <trkpt lat="47.70735" lon="-3.26942">
        <ele>29.6</ele>
        <time>2021-08-14T14:28:11Z</time>
      </trkpt>
      <trkpt lat="47.70733" lon="-3.26937">
        <ele>29.6</ele>
        <time>2021-08-14T14:28:12Z</time>
      </trkpt>
      <trkpt lat="47.70731" lon="-3.26932">
        <ele>29.8</ele>
        <time>2021-08-14T14:28:13Z</time>
      </trkpt>
      <trkpt lat="47.70729" lon="-3.26928">
        <ele>29.8</ele>
        <time>2021-08-14T14:28:14Z</time>
      </trkpt>
      <trkpt lat="47.70727" lon="-3.26923">
        <ele>29.8</ele>
        <time>2021-08-14T14:28:15Z</time>
      </trkpt>
      <trkpt lat="47.70725" lon="-3.26919">
        <ele>29.8</ele>
        <time>2021-08-14T14:28:16Z</time>
      </trkpt>
      <trkpt lat="47.70724" lon="-3.26914">
        <ele>29.8</ele>
        <time>2021-08-14T14:28:17Z</time>
      </trkpt>
      <trkpt lat="47.70722" lon="-3.2691">
        <ele>30</ele>
        <time>2021-08-14T14:28:18Z</time>
      </trkpt>
      <trkpt lat="47.7072" lon="-3.26906">
        <ele>30</ele>
        <time>2021-08-14T14:28:19Z</time>
      </trkpt>
      <trkpt lat="47.70719" lon="-3.26901">
        <ele>30</ele>
        <time>2021-08-14T14:28:20Z</time>
      </trkpt>
      <trkpt lat="47.70717" lon="-3.26896">
        <ele>30</ele>
        <time>2021-08-14T14:28:21Z</time>
      </trkpt>
      <trkpt lat="47.70715" lon="-3.26892">
        <ele>30</ele>
        <time>2021-08-14T14:28:22Z</time>
      </trkpt>
      <trkpt lat="47.70713" lon="-3.26887">
        <ele>30</ele>
        <time>2021-08-14T14:28:23Z</time>
      </trkpt>
      <trkpt lat="47.70712" lon="-3.26882">
        <ele>30</ele>
        <time>2021-08-14T14:28:24Z</time>
      </trkpt>
      <trkpt lat="47.7071" lon="-3.26878">
        <ele>30</ele>
        <time>2021-08-14T14:28:25Z</time>
      </trkpt>
      <trkpt lat="47.70708" lon="-3.26874">
        <ele>30</ele>
        <time>2021-08-14T14:28:26Z</time>
      </trkpt>
      <trkpt lat="47.70706" lon="-3.2687">
        <ele>30</ele>
        <time>2021-08-14T14:28:27Z</time>
      </trkpt>
      <trkpt lat="47.70705" lon="-3.26866">
        <ele>30</ele>
        <time>2021-08-14T14:28:28Z</time>
      </trkpt>
      <trkpt lat="47.70704" lon="-3.26863">
        <ele>30</ele>
        <time>2021-08-14T14:28:29Z</time>
      </trkpt>
      <trkpt lat="47.70703" lon="-3.26861">
        <ele>30</ele>
        <time>2021-08-14T14:28:30Z</time>
      </trkpt>
      <trkpt lat="47.70702" lon="-3.26858">
        <ele>30</ele>
        <time>2021-08-14T14:28:31Z</time>
      </trkpt>
      <trkpt lat="47.707" lon="-3.26855">
        <ele>30</ele>
        <time>2021-08-14T14:28:32Z</time>
      </trkpt>
      <trkpt lat="47.70699" lon="-3.26853">
        <ele>30</ele>
        <time>2021-08-14T14:28:33Z</time>
      </trkpt>
      <trkpt lat="47.70698" lon="-3.26853">
        <ele>30</ele>
        <time>2021-08-14T14:28:34Z</time>
      </trkpt>
      <trkpt lat="47.70696" lon="-3.26851">
        <ele>30</ele>
        <time>2021-08-14T14:28:35Z</time>
      </trkpt>
      <trkpt lat="47.70695" lon="-3.26851">
        <ele>30</ele>
        <time>2021-08-14T14:28:36Z</time>
      </trkpt>
      <trkpt lat="47.70694" lon="-3.26851">
        <ele>30</ele>
        <time>2021-08-14T14:28:37Z</time>
      </trkpt>
      <trkpt lat="47.70693" lon="-3.26851">
        <ele>30</ele>
        <time>2021-08-14T14:28:38Z</time>
      </trkpt>
      <trkpt lat="47.70693" lon="-3.26852">
        <ele>30</ele>
        <time>2021-08-14T14:28:39Z</time>
      </trkpt>
      <trkpt lat="47.70693" lon="-3.26853">
        <ele>30</ele>
        <time>2021-08-14T14:28:40Z</time>
      </trkpt>
      <trkpt lat="47.70693" lon="-3.26854">
        <ele>30</ele>
        <time>2021-08-14T14:28:41Z</time>
      </trkpt>
      <trkpt lat="47.70692" lon="-3.26853">
        <ele>30</ele>
        <time>2021-08-14T14:28:42Z</time>
      </trkpt>
      <trkpt lat="47.7069" lon="-3.26838">
        <ele>30</ele>
        <time>2021-08-14T14:39:32Z</time>
      </trkpt>
      <trkpt lat="47.7069" lon="-3.26835">
        <ele>30</ele>
        <time>2021-08-14T14:39:33Z</time>
      </trkpt>
      <trkpt lat="47.70689" lon="-3.26831">
        <ele>30</ele>
        <time>2021-08-14T14:39:34Z</time>
      </trkpt>
      <trkpt lat="47.70687" lon="-3.26827">
        <ele>30</ele>
        <time>2021-08-14T14:39:35Z</time>
      </trkpt>
      <trkpt lat="47.70685" lon="-3.26823">
        <ele>30</ele>
        <time>2021-08-14T14:39:36Z</time>
      </trkpt>
      <trkpt lat="47.70684" lon="-3.2682">
        <ele>30</ele>
        <time>2021-08-14T14:39:37Z</time>
      </trkpt>
      <trkpt lat="47.70683" lon="-3.26817">
        <ele>30</ele>
        <time>2021-08-14T14:39:38Z</time>
      </trkpt>
      <trkpt lat="47.70682" lon="-3.26814">
        <ele>29.8</ele>
        <time>2021-08-14T14:39:39Z</time>
      </trkpt>
      <trkpt lat="47.7068" lon="-3.2681">
        <ele>29.8</ele>
        <time>2021-08-14T14:39:40Z</time>
      </trkpt>
      <trkpt lat="47.70678" lon="-3.26805">
        <ele>29.8</ele>
        <time>2021-08-14T14:39:41Z</time>
      </trkpt>
      <trkpt lat="47.70676" lon="-3.268">
        <ele>29.8</ele>
        <time>2021-08-14T14:39:42Z</time>
      </trkpt>
      <trkpt lat="47.70674" lon="-3.26795">
        <ele>29.8</ele>
        <time>2021-08-14T14:39:43Z</time>
      </trkpt>
      <trkpt lat="47.70671" lon="-3.2679">
        <ele>29.8</ele>
        <time>2021-08-14T14:39:44Z</time>
      </trkpt>
      <trkpt lat="47.70669" lon="-3.26785">
        <ele>29.8</ele>
        <time>2021-08-14T14:39:45Z</time>
      </trkpt>
      <trkpt lat="47.70667" lon="-3.2678">
        <ele>29.8</ele>
        <time>2021-08-14T14:39:46Z</time>
      </trkpt>
      <trkpt lat="47.70665" lon="-3.26774">
        <ele>29.6</ele>
        <time>2021-08-14T14:39:47Z</time>
      </trkpt>
      <trkpt lat="47.70663" lon="-3.26768">
        <ele>29.6</ele>
        <time>2021-08-14T14:39:48Z</time>
      </trkpt>
      <trkpt lat="47.70661" lon="-3.26762">
        <ele>29.6</ele>
        <time>2021-08-14T14:39:49Z</time>
      </trkpt>
      <trkpt lat="47.70658" lon="-3.26756">
        <ele>29.6</ele>
        <time>2021-08-14T14:39:50Z</time>
      </trkpt>
      <trkpt lat="47.70656" lon="-3.26751">
        <ele>29.6</ele>
        <time>2021-08-14T14:39:51Z</time>
      </trkpt>
      <trkpt lat="47.70654" lon="-3.26745">
        <ele>29.8</ele>
        <time>2021-08-14T14:39:52Z</time>
      </trkpt>
      <trkpt lat="47.70652" lon="-3.2674">
        <ele>29.8</ele>
        <time>2021-08-14T14:39:53Z</time>
      </trkpt>
      <trkpt lat="47.7065" lon="-3.26735">
        <ele>29.8</ele>
        <time>2021-08-14T14:39:54Z</time>
      </trkpt>
      <trkpt lat="47.70648" lon="-3.26729">
        <ele>29.8</ele>
        <time>2021-08-14T14:39:55Z</time>
      </trkpt>
      <trkpt lat="47.70646" lon="-3.26724">
        <ele>30</ele>
        <time>2021-08-14T14:39:56Z</time>
      </trkpt>
      <trkpt lat="47.70645" lon="-3.26719">
        <ele>30</ele>
        <time>2021-08-14T14:39:57Z</time>
      </trkpt>
      <trkpt lat="47.70643" lon="-3.26714">
        <ele>29.8</ele>
        <time>2021-08-14T14:39:58Z</time>
      </trkpt>
      <trkpt lat="47.70642" lon="-3.26709">
        <ele>29.8</ele>
        <time>2021-08-14T14:39:59Z</time>
      </trkpt>
      <trkpt lat="47.70641" lon="-3.26705">
        <ele>29.8</ele>
        <time>2021-08-14T14:40:00Z</time>
      </trkpt>
      <trkpt lat="47.7064" lon="-3.26701">
        <ele>29.8</ele>
        <time>2021-08-14T14:40:01Z</time>
      </trkpt>
      <trkpt lat="47.70638" lon="-3.26697">
        <ele>29.8</ele>
        <time>2021-08-14T14:40:02Z</time>
      </trkpt>
      <trkpt lat="47.70637" lon="-3.26693">
        <ele>30</ele>
        <time>2021-08-14T14:40:03Z</time>
      </trkpt>
      <trkpt lat="47.70634" lon="-3.26688">
        <ele>30</ele>
        <time>2021-08-14T14:40:04Z</time>
      </trkpt>
      <trkpt lat="47.70633" lon="-3.26683">
        <ele>30</ele>
        <time>2021-08-14T14:40:05Z</time>
      </trkpt>
      <trkpt lat="47.70631" lon="-3.26679">
        <ele>30</ele>
        <time>2021-08-14T14:40:06Z</time>
      </trkpt>
      <trkpt lat="47.70629" lon="-3.26673">
        <ele>30</ele>
        <time>2021-08-14T14:40:07Z</time>
      </trkpt>
      <trkpt lat="47.70628" lon="-3.26668">
        <ele>30</ele>
        <time>2021-08-14T14:40:08Z</time>
      </trkpt>
      <trkpt lat="47.70626" lon="-3.26663">
        <ele>30</ele>
        <time>2021-08-14T14:40:09Z</time>
      </trkpt>
      <trkpt lat="47.70624" lon="-3.26658">
        <ele>29.8</ele>
        <time>2021-08-14T14:40:10Z</time>
      </trkpt>
      <trkpt lat="47.70621" lon="-3.26652">
        <ele>29.8</ele>
        <time>2021-08-14T14:40:11Z</time>
      </trkpt>
      <trkpt lat="47.70618" lon="-3.26645">
        <ele>29.8</ele>
        <time>2021-08-14T14:40:12Z</time>
      </trkpt>
      <trkpt lat="47.70615" lon="-3.26638">
        <ele>29.8</ele>
        <time>2021-08-14T14:40:13Z</time>
      </trkpt>
      <trkpt lat="47.70612" lon="-3.26632">
        <ele>29.8</ele>
        <time>2021-08-14T14:40:14Z</time>
      </trkpt>
      <trkpt lat="47.70609" lon="-3.26627">
        <ele>29.8</ele>
        <time>2021-08-14T14:40:15Z</time>
      </trkpt>
      <trkpt lat="47.70606" lon="-3.26621">
        <ele>29.6</ele>
        <time>2021-08-14T14:40:16Z</time>
      </trkpt>
      <trkpt lat="47.70602" lon="-3.26616">
        <ele>29.6</ele>
        <time>2021-08-14T14:40:17Z</time>
      </trkpt>
      <trkpt lat="47.70599" lon="-3.26609">
        <ele>29.6</ele>
        <time>2021-08-14T14:40:18Z</time>
      </trkpt>
      <trkpt lat="47.70595" lon="-3.26603">
        <ele>29.6</ele>
        <time>2021-08-14T14:40:19Z</time>
      </trkpt>
      <trkpt lat="47.70592" lon="-3.26597">
        <ele>29.6</ele>
        <time>2021-08-14T14:40:20Z</time>
      </trkpt>
      <trkpt lat="47.70589" lon="-3.26592">
        <ele>29.4</ele>
        <time>2021-08-14T14:40:21Z</time>
      </trkpt>
      <trkpt lat="47.70586" lon="-3.26587">
        <ele>29.4</ele>
        <time>2021-08-14T14:40:22Z</time>
      </trkpt>
      <trkpt lat="47.70583" lon="-3.26582">
        <ele>29.4</ele>
        <time>2021-08-14T14:40:23Z</time>
      </trkpt>
      <trkpt lat="47.7058" lon="-3.26576">
        <ele>29.4</ele>
        <time>2021-08-14T14:40:24Z</time>
      </trkpt>
      <trkpt lat="47.70578" lon="-3.26571">
        <ele>29.4</ele>
        <time>2021-08-14T14:40:25Z</time>
      </trkpt>
      <trkpt lat="47.70575" lon="-3.26566">
        <ele>29.4</ele>
        <time>2021-08-14T14:40:26Z</time>
      </trkpt>
      <trkpt lat="47.70573" lon="-3.26561">
        <ele>29.4</ele>
        <time>2021-08-14T14:40:27Z</time>
      </trkpt>
      <trkpt lat="47.7057" lon="-3.26555">
        <ele>29.4</ele>
        <time>2021-08-14T14:40:28Z</time>
      </trkpt>
      <trkpt lat="47.70567" lon="-3.2655">
        <ele>29.6</ele>
        <time>2021-08-14T14:40:29Z</time>
      </trkpt>
      <trkpt lat="47.70564" lon="-3.26545">
        <ele>29.6</ele>
        <time>2021-08-14T14:40:30Z</time>
      </trkpt>
      <trkpt lat="47.70561" lon="-3.26541">
        <ele>29.6</ele>
        <time>2021-08-14T14:40:31Z</time>
      </trkpt>
      <trkpt lat="47.70558" lon="-3.26536">
        <ele>29.6</ele>
        <time>2021-08-14T14:40:32Z</time>
      </trkpt>
      <trkpt lat="47.70556" lon="-3.26532">
        <ele>29.4</ele>
        <time>2021-08-14T14:40:33Z</time>
      </trkpt>
      <trkpt lat="47.70553" lon="-3.26527">
        <ele>29.4</ele>
        <time>2021-08-14T14:40:34Z</time>
      </trkpt>
      <trkpt lat="47.70549" lon="-3.26521">
        <ele>29.4</ele>
        <time>2021-08-14T14:40:35Z</time>
      </trkpt>
      <trkpt lat="47.70546" lon="-3.26517">
        <ele>29.4</ele>
        <time>2021-08-14T14:40:36Z</time>
      </trkpt>
      <trkpt lat="47.70543" lon="-3.26512">
        <ele>29.4</ele>
        <time>2021-08-14T14:40:37Z</time>
      </trkpt>
      <trkpt lat="47.7054" lon="-3.26507">
        <ele>29.4</ele>
        <time>2021-08-14T14:40:38Z</time>
      </trkpt>
      <trkpt lat="47.70537" lon="-3.26501">
        <ele>29.4</ele>
        <time>2021-08-14T14:40:39Z</time>
      </trkpt>
      <trkpt lat="47.70533" lon="-3.26496">
        <ele>29.4</ele>
        <time>2021-08-14T14:40:40Z</time>
      </trkpt>
      <trkpt lat="47.70529" lon="-3.26489">
        <ele>29.2</ele>
        <time>2021-08-14T14:40:41Z</time>
      </trkpt>
      <trkpt lat="47.70525" lon="-3.26483">
        <ele>29.2</ele>
        <time>2021-08-14T14:40:42Z</time>
      </trkpt>
      <trkpt lat="47.70521" lon="-3.26474">
        <ele>29.2</ele>
        <time>2021-08-14T14:40:43Z</time>
      </trkpt>
      <trkpt lat="47.70518" lon="-3.26468">
        <ele>29</ele>
        <time>2021-08-14T14:40:44Z</time>
      </trkpt>
      <trkpt lat="47.70514" lon="-3.26461">
        <ele>29</ele>
        <time>2021-08-14T14:40:45Z</time>
      </trkpt>
      <trkpt lat="47.70511" lon="-3.26454">
        <ele>29</ele>
        <time>2021-08-14T14:40:46Z</time>
      </trkpt>
      <trkpt lat="47.70507" lon="-3.26447">
        <ele>29</ele>
        <time>2021-08-14T14:40:47Z</time>
      </trkpt>
      <trkpt lat="47.70503" lon="-3.2644">
        <ele>28.8</ele>
        <time>2021-08-14T14:40:48Z</time>
      </trkpt>
      <trkpt lat="47.705" lon="-3.26434">
        <ele>28.8</ele>
        <time>2021-08-14T14:40:49Z</time>
      </trkpt>
      <trkpt lat="47.70496" lon="-3.26427">
        <ele>28.6</ele>
        <time>2021-08-14T14:40:50Z</time>
      </trkpt>
      <trkpt lat="47.70493" lon="-3.26421">
        <ele>28.6</ele>
        <time>2021-08-14T14:40:51Z</time>
      </trkpt>
      <trkpt lat="47.70489" lon="-3.26415">
        <ele>28.4</ele>
        <time>2021-08-14T14:40:52Z</time>
      </trkpt>
      <trkpt lat="47.70486" lon="-3.26409">
        <ele>28.2</ele>
        <time>2021-08-14T14:40:53Z</time>
      </trkpt>
      <trkpt lat="47.70482" lon="-3.26403">
        <ele>28.2</ele>
        <time>2021-08-14T14:40:54Z</time>
      </trkpt>
      <trkpt lat="47.70479" lon="-3.26397">
        <ele>28</ele>
        <time>2021-08-14T14:40:55Z</time>
      </trkpt>
      <trkpt lat="47.70469" lon="-3.2638">
        <ele>27.8</ele>
        <time>2021-08-14T14:40:58Z</time>
      </trkpt>
      <trkpt lat="47.70466" lon="-3.26374">
        <ele>27.8</ele>
        <time>2021-08-14T14:40:59Z</time>
      </trkpt>
      <trkpt lat="47.70462" lon="-3.26368">
        <ele>27.8</ele>
        <time>2021-08-14T14:41:00Z</time>
      </trkpt>
      <trkpt lat="47.70458" lon="-3.26362">
        <ele>27.6</ele>
        <time>2021-08-14T14:41:01Z</time>
      </trkpt>
      <trkpt lat="47.70455" lon="-3.26355">
        <ele>27.6</ele>
        <time>2021-08-14T14:41:02Z</time>
      </trkpt>
      <trkpt lat="47.70451" lon="-3.26349">
        <ele>27.6</ele>
        <time>2021-08-14T14:41:03Z</time>
      </trkpt>
      <trkpt lat="47.70447" lon="-3.26343">
        <ele>27.4</ele>
        <time>2021-08-14T14:41:04Z</time>
      </trkpt>
      <trkpt lat="47.70444" lon="-3.26338">
        <ele>27.4</ele>
        <time>2021-08-14T14:41:05Z</time>
      </trkpt>
      <trkpt lat="47.7044" lon="-3.26332">
        <ele>27.4</ele>
        <time>2021-08-14T14:41:06Z</time>
      </trkpt>
      <trkpt lat="47.70436" lon="-3.26326">
        <ele>27.4</ele>
        <time>2021-08-14T14:41:07Z</time>
      </trkpt>
      <trkpt lat="47.70433" lon="-3.2632">
        <ele>27.4</ele>
        <time>2021-08-14T14:41:08Z</time>
      </trkpt>
      <trkpt lat="47.70429" lon="-3.26314">
        <ele>27.4</ele>
        <time>2021-08-14T14:41:09Z</time>
      </trkpt>
      <trkpt lat="47.70425" lon="-3.26308">
        <ele>27.4</ele>
        <time>2021-08-14T14:41:10Z</time>
      </trkpt>
      <trkpt lat="47.70422" lon="-3.26302">
        <ele>27.4</ele>
        <time>2021-08-14T14:41:11Z</time>
      </trkpt>
      <trkpt lat="47.70418" lon="-3.26296">
        <ele>27.4</ele>
        <time>2021-08-14T14:41:12Z</time>
      </trkpt>
      <trkpt lat="47.70416" lon="-3.26291">
        <ele>27.4</ele>
        <time>2021-08-14T14:41:13Z</time>
      </trkpt>
      <trkpt lat="47.70413" lon="-3.26286">
        <ele>27.4</ele>
        <time>2021-08-14T14:41:14Z</time>
      </trkpt>
      <trkpt lat="47.7041" lon="-3.26281">
        <ele>27.6</ele>
        <time>2021-08-14T14:41:15Z</time>
      </trkpt>
      <trkpt lat="47.70407" lon="-3.26276">
        <ele>27.6</ele>
        <time>2021-08-14T14:41:16Z</time>
      </trkpt>
      <trkpt lat="47.70403" lon="-3.2627">
        <ele>27.6</ele>
        <time>2021-08-14T14:41:17Z</time>
      </trkpt>
      <trkpt lat="47.704" lon="-3.26265">
        <ele>27.6</ele>
        <time>2021-08-14T14:41:18Z</time>
      </trkpt>
      <trkpt lat="47.70397" lon="-3.2626">
        <ele>27.6</ele>
        <time>2021-08-14T14:41:19Z</time>
      </trkpt>
      <trkpt lat="47.70394" lon="-3.26255">
        <ele>27.6</ele>
        <time>2021-08-14T14:41:20Z</time>
      </trkpt>
      <trkpt lat="47.70391" lon="-3.26249">
        <ele>27.6</ele>
        <time>2021-08-14T14:41:21Z</time>
      </trkpt>
      <trkpt lat="47.70387" lon="-3.26243">
        <ele>27.6</ele>
        <time>2021-08-14T14:41:22Z</time>
      </trkpt>
      <trkpt lat="47.70384" lon="-3.26237">
        <ele>27.6</ele>
        <time>2021-08-14T14:41:23Z</time>
      </trkpt>
      <trkpt lat="47.70381" lon="-3.26231">
        <ele>27.8</ele>
        <time>2021-08-14T14:41:24Z</time>
      </trkpt>
      <trkpt lat="47.70378" lon="-3.26225">
        <ele>27.8</ele>
        <time>2021-08-14T14:41:25Z</time>
      </trkpt>
      <trkpt lat="47.70375" lon="-3.26218">
        <ele>27.8</ele>
        <time>2021-08-14T14:41:26Z</time>
      </trkpt>
      <trkpt lat="47.70371" lon="-3.26211">
        <ele>27.8</ele>
        <time>2021-08-14T14:41:27Z</time>
      </trkpt>
      <trkpt lat="47.70368" lon="-3.26205">
        <ele>27.8</ele>
        <time>2021-08-14T14:41:28Z</time>
      </trkpt>
      <trkpt lat="47.70365" lon="-3.26198">
        <ele>27.8</ele>
        <time>2021-08-14T14:41:29Z</time>
      </trkpt>
      <trkpt lat="47.70361" lon="-3.26192">
        <ele>27.8</ele>
        <time>2021-08-14T14:41:30Z</time>
      </trkpt>
      <trkpt lat="47.70357" lon="-3.26186">
        <ele>27.8</ele>
        <time>2021-08-14T14:41:31Z</time>
      </trkpt>
      <trkpt lat="47.70354" lon="-3.26179">
        <ele>27.8</ele>
        <time>2021-08-14T14:41:32Z</time>
      </trkpt>
      <trkpt lat="47.7035" lon="-3.26173">
        <ele>27.8</ele>
        <time>2021-08-14T14:41:33Z</time>
      </trkpt>
      <trkpt lat="47.70347" lon="-3.26166">
        <ele>27.8</ele>
        <time>2021-08-14T14:41:34Z</time>
      </trkpt>
      <trkpt lat="47.70343" lon="-3.2616">
        <ele>27.8</ele>
        <time>2021-08-14T14:41:35Z</time>
      </trkpt>
      <trkpt lat="47.70339" lon="-3.26154">
        <ele>27.6</ele>
        <time>2021-08-14T14:41:36Z</time>
      </trkpt>
      <trkpt lat="47.70335" lon="-3.26147">
        <ele>27.6</ele>
        <time>2021-08-14T14:41:37Z</time>
      </trkpt>
      <trkpt lat="47.70332" lon="-3.26141">
        <ele>27.4</ele>
        <time>2021-08-14T14:41:38Z</time>
      </trkpt>
      <trkpt lat="47.70328" lon="-3.26135">
        <ele>27.2</ele>
        <time>2021-08-14T14:41:39Z</time>
      </trkpt>
      <trkpt lat="47.70324" lon="-3.26129">
        <ele>27</ele>
        <time>2021-08-14T14:41:40Z</time>
      </trkpt>
      <trkpt lat="47.70321" lon="-3.26122">
        <ele>27</ele>
        <time>2021-08-14T14:41:41Z</time>
      </trkpt>
      <trkpt lat="47.70317" lon="-3.26116">
        <ele>26.8</ele>
        <time>2021-08-14T14:41:42Z</time>
      </trkpt>
      <trkpt lat="47.70313" lon="-3.2611">
        <ele>26.8</ele>
        <time>2021-08-14T14:41:43Z</time>
      </trkpt>
      <trkpt lat="47.7031" lon="-3.26104">
        <ele>26.8</ele>
        <time>2021-08-14T14:41:44Z</time>
      </trkpt>
      <trkpt lat="47.70306" lon="-3.26098">
        <ele>26.8</ele>
        <time>2021-08-14T14:41:45Z</time>
      </trkpt>
      <trkpt lat="47.70302" lon="-3.26092">
        <ele>26.8</ele>
        <time>2021-08-14T14:41:46Z</time>
      </trkpt>
      <trkpt lat="47.70297" lon="-3.26086">
        <ele>26.8</ele>
        <time>2021-08-14T14:41:47Z</time>
      </trkpt>
      <trkpt lat="47.70293" lon="-3.26079">
        <ele>26.8</ele>
        <time>2021-08-14T14:41:48Z</time>
      </trkpt>
      <trkpt lat="47.70289" lon="-3.26073">
        <ele>26.6</ele>
        <time>2021-08-14T14:41:49Z</time>
      </trkpt>
      <trkpt lat="47.70286" lon="-3.26067">
        <ele>26.6</ele>
        <time>2021-08-14T14:41:50Z</time>
      </trkpt>
      <trkpt lat="47.70282" lon="-3.2606">
        <ele>26.6</ele>
        <time>2021-08-14T14:41:51Z</time>
      </trkpt>
      <trkpt lat="47.70278" lon="-3.26055">
        <ele>26.4</ele>
        <time>2021-08-14T14:41:52Z</time>
      </trkpt>
      <trkpt lat="47.70274" lon="-3.26049">
        <ele>26.4</ele>
        <time>2021-08-14T14:41:53Z</time>
      </trkpt>
      <trkpt lat="47.7027" lon="-3.26043">
        <ele>26.2</ele>
        <time>2021-08-14T14:41:54Z</time>
      </trkpt>
      <trkpt lat="47.70266" lon="-3.26037">
        <ele>26</ele>
        <time>2021-08-14T14:41:55Z</time>
      </trkpt>
      <trkpt lat="47.70262" lon="-3.26032">
        <ele>25.8</ele>
        <time>2021-08-14T14:41:56Z</time>
      </trkpt>
      <trkpt lat="47.70258" lon="-3.26026">
        <ele>25.8</ele>
        <time>2021-08-14T14:41:57Z</time>
      </trkpt>
      <trkpt lat="47.70254" lon="-3.2602">
        <ele>25.8</ele>
        <time>2021-08-14T14:41:58Z</time>
      </trkpt>
      <trkpt lat="47.7025" lon="-3.26015">
        <ele>25.8</ele>
        <time>2021-08-14T14:41:59Z</time>
      </trkpt>
      <trkpt lat="47.70246" lon="-3.26009">
        <ele>25.8</ele>
        <time>2021-08-14T14:42:00Z</time>
      </trkpt>
      <trkpt lat="47.70242" lon="-3.26003">
        <ele>25.8</ele>
        <time>2021-08-14T14:42:01Z</time>
      </trkpt>
      <trkpt lat="47.70238" lon="-3.25998">
        <ele>25.8</ele>
        <time>2021-08-14T14:42:02Z</time>
      </trkpt>
      <trkpt lat="47.70234" lon="-3.25992">
        <ele>25.8</ele>
        <time>2021-08-14T14:42:03Z</time>
      </trkpt>
      <trkpt lat="47.70231" lon="-3.25986">
        <ele>25.8</ele>
        <time>2021-08-14T14:42:04Z</time>
      </trkpt>
      <trkpt lat="47.70227" lon="-3.25981">
        <ele>25.8</ele>
        <time>2021-08-14T14:42:05Z</time>
      </trkpt>
      <trkpt lat="47.70223" lon="-3.25975">
        <ele>25.8</ele>
        <time>2021-08-14T14:42:06Z</time>
      </trkpt>
      <trkpt lat="47.7022" lon="-3.2597">
        <ele>26</ele>
        <time>2021-08-14T14:42:07Z</time>
      </trkpt>
      <trkpt lat="47.70217" lon="-3.25965">
        <ele>26</ele>
        <time>2021-08-14T14:42:08Z</time>
      </trkpt>
      <trkpt lat="47.70214" lon="-3.2596">
        <ele>26</ele>
        <time>2021-08-14T14:42:09Z</time>
      </trkpt>
      <trkpt lat="47.70211" lon="-3.25956">
        <ele>26.2</ele>
        <time>2021-08-14T14:42:10Z</time>
      </trkpt>
      <trkpt lat="47.70209" lon="-3.25952">
        <ele>26.2</ele>
        <time>2021-08-14T14:42:11Z</time>
      </trkpt>
      <trkpt lat="47.70207" lon="-3.25948">
        <ele>26.2</ele>
        <time>2021-08-14T14:42:12Z</time>
      </trkpt>
      <trkpt lat="47.70204" lon="-3.25944">
        <ele>26.4</ele>
        <time>2021-08-14T14:42:13Z</time>
      </trkpt>
      <trkpt lat="47.70202" lon="-3.25941">
        <ele>26.6</ele>
        <time>2021-08-14T14:42:14Z</time>
      </trkpt>
      <trkpt lat="47.702" lon="-3.25937">
        <ele>26.8</ele>
        <time>2021-08-14T14:42:15Z</time>
      </trkpt>
      <trkpt lat="47.70197" lon="-3.25933">
        <ele>27</ele>
        <time>2021-08-14T14:42:16Z</time>
      </trkpt>
      <trkpt lat="47.70195" lon="-3.25929">
        <ele>27</ele>
        <time>2021-08-14T14:42:17Z</time>
      </trkpt>
      <trkpt lat="47.70193" lon="-3.25924">
        <ele>27.2</ele>
        <time>2021-08-14T14:42:18Z</time>
      </trkpt>
      <trkpt lat="47.7019" lon="-3.2592">
        <ele>27.2</ele>
        <time>2021-08-14T14:42:19Z</time>
      </trkpt>
      <trkpt lat="47.70188" lon="-3.25915">
        <ele>27.2</ele>
        <time>2021-08-14T14:42:20Z</time>
      </trkpt>
      <trkpt lat="47.70185" lon="-3.2591">
        <ele>27.2</ele>
        <time>2021-08-14T14:42:21Z</time>
      </trkpt>
      <trkpt lat="47.70183" lon="-3.25905">
        <ele>27.6</ele>
        <time>2021-08-14T14:42:22Z</time>
      </trkpt>
      <trkpt lat="47.7018" lon="-3.259">
        <ele>27.8</ele>
        <time>2021-08-14T14:42:23Z</time>
      </trkpt>
      <trkpt lat="47.70178" lon="-3.25895">
        <ele>28</ele>
        <time>2021-08-14T14:42:24Z</time>
      </trkpt>
      <trkpt lat="47.70175" lon="-3.2589">
        <ele>28.2</ele>
        <time>2021-08-14T14:42:25Z</time>
      </trkpt>
      <trkpt lat="47.70172" lon="-3.25885">
        <ele>28.2</ele>
        <time>2021-08-14T14:42:26Z</time>
      </trkpt>
      <trkpt lat="47.7017" lon="-3.25879">
        <ele>28.4</ele>
        <time>2021-08-14T14:42:27Z</time>
      </trkpt>
      <trkpt lat="47.70167" lon="-3.25874">
        <ele>28.4</ele>
        <time>2021-08-14T14:42:28Z</time>
      </trkpt>
      <trkpt lat="47.70164" lon="-3.25868">
        <ele>28.6</ele>
        <time>2021-08-14T14:42:29Z</time>
      </trkpt>
      <trkpt lat="47.70161" lon="-3.25863">
        <ele>28.6</ele>
        <time>2021-08-14T14:42:30Z</time>
      </trkpt>
      <trkpt lat="47.70158" lon="-3.25858">
        <ele>28.6</ele>
        <time>2021-08-14T14:42:31Z</time>
      </trkpt>
      <trkpt lat="47.70156" lon="-3.25852">
        <ele>28.6</ele>
        <time>2021-08-14T14:42:32Z</time>
      </trkpt>
      <trkpt lat="47.70153" lon="-3.25847">
        <ele>28.6</ele>
        <time>2021-08-14T14:42:33Z</time>
      </trkpt>
      <trkpt lat="47.7015" lon="-3.25841">
        <ele>28.8</ele>
        <time>2021-08-14T14:42:34Z</time>
      </trkpt>
      <trkpt lat="47.70147" lon="-3.25836">
        <ele>28.8</ele>
        <time>2021-08-14T14:42:35Z</time>
      </trkpt>
      <trkpt lat="47.70144" lon="-3.2583">
        <ele>28.8</ele>
        <time>2021-08-14T14:42:36Z</time>
      </trkpt>
      <trkpt lat="47.70141" lon="-3.25825">
        <ele>28.8</ele>
        <time>2021-08-14T14:42:37Z</time>
      </trkpt>
      <trkpt lat="47.70138" lon="-3.25819">
        <ele>28.8</ele>
        <time>2021-08-14T14:42:38Z</time>
      </trkpt>
      <trkpt lat="47.70136" lon="-3.25814">
        <ele>28.8</ele>
        <time>2021-08-14T14:42:39Z</time>
      </trkpt>
      <trkpt lat="47.70133" lon="-3.25809">
        <ele>28.8</ele>
        <time>2021-08-14T14:42:40Z</time>
      </trkpt>
      <trkpt lat="47.7013" lon="-3.25804">
        <ele>28.8</ele>
        <time>2021-08-14T14:42:41Z</time>
      </trkpt>
      <trkpt lat="47.70127" lon="-3.25799">
        <ele>28.8</ele>
        <time>2021-08-14T14:42:42Z</time>
      </trkpt>
      <trkpt lat="47.70124" lon="-3.25795">
        <ele>28.8</ele>
        <time>2021-08-14T14:42:43Z</time>
      </trkpt>
      <trkpt lat="47.7012" lon="-3.25789">
        <ele>29</ele>
        <time>2021-08-14T14:42:44Z</time>
      </trkpt>
      <trkpt lat="47.70117" lon="-3.25785">
        <ele>29</ele>
        <time>2021-08-14T14:42:45Z</time>
      </trkpt>
      <trkpt lat="47.70113" lon="-3.25781">
        <ele>29</ele>
        <time>2021-08-14T14:42:46Z</time>
      </trkpt>
      <trkpt lat="47.7011" lon="-3.25777">
        <ele>29</ele>
        <time>2021-08-14T14:42:47Z</time>
      </trkpt>
      <trkpt lat="47.70106" lon="-3.25773">
        <ele>29</ele>
        <time>2021-08-14T14:42:48Z</time>
      </trkpt>
      <trkpt lat="47.70102" lon="-3.25769">
        <ele>29</ele>
        <time>2021-08-14T14:42:49Z</time>
      </trkpt>
      <trkpt lat="47.70098" lon="-3.25765">
        <ele>29</ele>
        <time>2021-08-14T14:42:50Z</time>
      </trkpt>
      <trkpt lat="47.70094" lon="-3.25762">
        <ele>29</ele>
        <time>2021-08-14T14:42:51Z</time>
      </trkpt>
      <trkpt lat="47.7009" lon="-3.25759">
        <ele>29.2</ele>
        <time>2021-08-14T14:42:52Z</time>
      </trkpt>
      <trkpt lat="47.70085" lon="-3.25756">
        <ele>29.2</ele>
        <time>2021-08-14T14:42:53Z</time>
      </trkpt>
      <trkpt lat="47.70081" lon="-3.25752">
        <ele>29.2</ele>
        <time>2021-08-14T14:42:54Z</time>
      </trkpt>
      <trkpt lat="47.70077" lon="-3.25746">
        <ele>29.2</ele>
        <time>2021-08-14T14:42:55Z</time>
      </trkpt>
      <trkpt lat="47.70074" lon="-3.2574">
        <ele>29.2</ele>
        <time>2021-08-14T14:42:56Z</time>
      </trkpt>
      <trkpt lat="47.70072" lon="-3.25732">
        <ele>29.2</ele>
        <time>2021-08-14T14:42:57Z</time>
      </trkpt>
      <trkpt lat="47.7007" lon="-3.25725">
        <ele>29.2</ele>
        <time>2021-08-14T14:42:58Z</time>
      </trkpt>
      <trkpt lat="47.70066" lon="-3.2571">
        <ele>29.2</ele>
        <time>2021-08-14T14:43:00Z</time>
      </trkpt>
      <trkpt lat="47.70063" lon="-3.25704">
        <ele>29</ele>
        <time>2021-08-14T14:43:01Z</time>
      </trkpt>
      <trkpt lat="47.70059" lon="-3.25698">
        <ele>29</ele>
        <time>2021-08-14T14:43:02Z</time>
      </trkpt>
      <trkpt lat="47.70056" lon="-3.25692">
        <ele>29</ele>
        <time>2021-08-14T14:43:03Z</time>
      </trkpt>
      <trkpt lat="47.70053" lon="-3.25687">
        <ele>29</ele>
        <time>2021-08-14T14:43:04Z</time>
      </trkpt>
      <trkpt lat="47.70049" lon="-3.25681">
        <ele>29</ele>
        <time>2021-08-14T14:43:05Z</time>
      </trkpt>
      <trkpt lat="47.70045" lon="-3.25676">
        <ele>29</ele>
        <time>2021-08-14T14:43:06Z</time>
      </trkpt>
      <trkpt lat="47.70041" lon="-3.2567">
        <ele>29</ele>
        <time>2021-08-14T14:43:07Z</time>
      </trkpt>
      <trkpt lat="47.70037" lon="-3.25665">
        <ele>29</ele>
        <time>2021-08-14T14:43:08Z</time>
      </trkpt>
      <trkpt lat="47.70034" lon="-3.25659">
        <ele>29</ele>
        <time>2021-08-14T14:43:09Z</time>
      </trkpt>
      <trkpt lat="47.70026" lon="-3.25648">
        <ele>29</ele>
        <time>2021-08-14T14:43:11Z</time>
      </trkpt>
      <trkpt lat="47.70022" lon="-3.25642">
        <ele>29</ele>
        <time>2021-08-14T14:43:12Z</time>
      </trkpt>
      <trkpt lat="47.70018" lon="-3.25636">
        <ele>29</ele>
        <time>2021-08-14T14:43:13Z</time>
      </trkpt>
      <trkpt lat="47.70015" lon="-3.2563">
        <ele>29</ele>
        <time>2021-08-14T14:43:14Z</time>
      </trkpt>
      <trkpt lat="47.70011" lon="-3.25624">
        <ele>29</ele>
        <time>2021-08-14T14:43:15Z</time>
      </trkpt>
      <trkpt lat="47.70007" lon="-3.25619">
        <ele>29</ele>
        <time>2021-08-14T14:43:16Z</time>
      </trkpt>
      <trkpt lat="47.70003" lon="-3.25613">
        <ele>29</ele>
        <time>2021-08-14T14:43:17Z</time>
      </trkpt>
      <trkpt lat="47.69999" lon="-3.25607">
        <ele>29</ele>
        <time>2021-08-14T14:43:18Z</time>
      </trkpt>
      <trkpt lat="47.69995" lon="-3.25601">
        <ele>29</ele>
        <time>2021-08-14T14:43:19Z</time>
      </trkpt>
      <trkpt lat="47.69992" lon="-3.25596">
        <ele>29</ele>
        <time>2021-08-14T14:43:20Z</time>
      </trkpt>
      <trkpt lat="47.69984" lon="-3.25584">
        <ele>29</ele>
        <time>2021-08-14T14:43:22Z</time>
      </trkpt>
      <trkpt lat="47.6998" lon="-3.25578">
        <ele>28.8</ele>
        <time>2021-08-14T14:43:23Z</time>
      </trkpt>
      <trkpt lat="47.69976" lon="-3.25572">
        <ele>28.8</ele>
        <time>2021-08-14T14:43:24Z</time>
      </trkpt>
      <trkpt lat="47.69972" lon="-3.25567">
        <ele>28.8</ele>
        <time>2021-08-14T14:43:25Z</time>
      </trkpt>
      <trkpt lat="47.69968" lon="-3.25561">
        <ele>28.8</ele>
        <time>2021-08-14T14:43:26Z</time>
      </trkpt>
      <trkpt lat="47.69965" lon="-3.25555">
        <ele>28.8</ele>
        <time>2021-08-14T14:43:27Z</time>
      </trkpt>
      <trkpt lat="47.69961" lon="-3.25549">
        <ele>28.8</ele>
        <time>2021-08-14T14:43:28Z</time>
      </trkpt>
      <trkpt lat="47.69957" lon="-3.25544">
        <ele>28.8</ele>
        <time>2021-08-14T14:43:29Z</time>
      </trkpt>
      <trkpt lat="47.69953" lon="-3.25538">
        <ele>28.6</ele>
        <time>2021-08-14T14:43:30Z</time>
      </trkpt>
      <trkpt lat="47.69948" lon="-3.25532">
        <ele>28.6</ele>
        <time>2021-08-14T14:43:31Z</time>
      </trkpt>
      <trkpt lat="47.69944" lon="-3.25525">
        <ele>28.6</ele>
        <time>2021-08-14T14:43:32Z</time>
      </trkpt>
      <trkpt lat="47.6994" lon="-3.25519">
        <ele>28.6</ele>
        <time>2021-08-14T14:43:33Z</time>
      </trkpt>
      <trkpt lat="47.69936" lon="-3.25513">
        <ele>28.6</ele>
        <time>2021-08-14T14:43:34Z</time>
      </trkpt>
      <trkpt lat="47.69932" lon="-3.25508">
        <ele>28.6</ele>
        <time>2021-08-14T14:43:35Z</time>
      </trkpt>
      <trkpt lat="47.69928" lon="-3.25502">
        <ele>28.6</ele>
        <time>2021-08-14T14:43:36Z</time>
      </trkpt>
      <trkpt lat="47.69925" lon="-3.25496">
        <ele>28.6</ele>
        <time>2021-08-14T14:43:37Z</time>
      </trkpt>
      <trkpt lat="47.69921" lon="-3.25491">
        <ele>28.6</ele>
        <time>2021-08-14T14:43:38Z</time>
      </trkpt>
      <trkpt lat="47.69918" lon="-3.25486">
        <ele>28.6</ele>
        <time>2021-08-14T14:43:39Z</time>
      </trkpt>
      <trkpt lat="47.69914" lon="-3.25481">
        <ele>28.6</ele>
        <time>2021-08-14T14:43:40Z</time>
      </trkpt>
      <trkpt lat="47.69911" lon="-3.25476">
        <ele>28.6</ele>
        <time>2021-08-14T14:43:41Z</time>
      </trkpt>
      <trkpt lat="47.69908" lon="-3.25471">
        <ele>28.6</ele>
        <time>2021-08-14T14:43:42Z</time>
      </trkpt>
      <trkpt lat="47.69905" lon="-3.25467">
        <ele>28.6</ele>
        <time>2021-08-14T14:43:43Z</time>
      </trkpt>
      <trkpt lat="47.69902" lon="-3.25462">
        <ele>28.6</ele>
        <time>2021-08-14T14:43:44Z</time>
      </trkpt>
      <trkpt lat="47.69899" lon="-3.25457">
        <ele>28.6</ele>
        <time>2021-08-14T14:43:45Z</time>
      </trkpt>
      <trkpt lat="47.69896" lon="-3.25452">
        <ele>28.6</ele>
        <time>2021-08-14T14:43:46Z</time>
      </trkpt>
      <trkpt lat="47.69893" lon="-3.25448">
        <ele>28.6</ele>
        <time>2021-08-14T14:43:47Z</time>
      </trkpt>
      <trkpt lat="47.6989" lon="-3.25443">
        <ele>28.6</ele>
        <time>2021-08-14T14:43:48Z</time>
      </trkpt>
      <trkpt lat="47.69887" lon="-3.25439">
        <ele>28.6</ele>
        <time>2021-08-14T14:43:49Z</time>
      </trkpt>
      <trkpt lat="47.69884" lon="-3.25435">
        <ele>28.8</ele>
        <time>2021-08-14T14:43:50Z</time>
      </trkpt>
      <trkpt lat="47.69881" lon="-3.2543">
        <ele>28.6</ele>
        <time>2021-08-14T14:43:51Z</time>
      </trkpt>
      <trkpt lat="47.69878" lon="-3.25425">
        <ele>28.8</ele>
        <time>2021-08-14T14:43:52Z</time>
      </trkpt>
      <trkpt lat="47.69874" lon="-3.2542">
        <ele>28.8</ele>
        <time>2021-08-14T14:43:53Z</time>
      </trkpt>
      <trkpt lat="47.69871" lon="-3.25415">
        <ele>28.8</ele>
        <time>2021-08-14T14:43:54Z</time>
      </trkpt>
      <trkpt lat="47.69867" lon="-3.2541">
        <ele>28.8</ele>
        <time>2021-08-14T14:43:55Z</time>
      </trkpt>
      <trkpt lat="47.69863" lon="-3.25405">
        <ele>28.8</ele>
        <time>2021-08-14T14:43:56Z</time>
      </trkpt>
      <trkpt lat="47.69859" lon="-3.254">
        <ele>28.6</ele>
        <time>2021-08-14T14:43:57Z</time>
      </trkpt>
      <trkpt lat="47.69856" lon="-3.25395">
        <ele>28.8</ele>
        <time>2021-08-14T14:43:58Z</time>
      </trkpt>
      <trkpt lat="47.69852" lon="-3.2539">
        <ele>28.4</ele>
        <time>2021-08-14T14:43:59Z</time>
      </trkpt>
      <trkpt lat="47.69848" lon="-3.25385">
        <ele>28.4</ele>
        <time>2021-08-14T14:44:00Z</time>
      </trkpt>
      <trkpt lat="47.69844" lon="-3.2538">
        <ele>28.4</ele>
        <time>2021-08-14T14:44:01Z</time>
      </trkpt>
      <trkpt lat="47.6984" lon="-3.25374">
        <ele>28.4</ele>
        <time>2021-08-14T14:44:02Z</time>
      </trkpt>
      <trkpt lat="47.69836" lon="-3.25369">
        <ele>28.2</ele>
        <time>2021-08-14T14:44:03Z</time>
      </trkpt>
      <trkpt lat="47.69833" lon="-3.25364">
        <ele>28.2</ele>
        <time>2021-08-14T14:44:04Z</time>
      </trkpt>
      <trkpt lat="47.69829" lon="-3.25359">
        <ele>28.2</ele>
        <time>2021-08-14T14:44:05Z</time>
      </trkpt>
      <trkpt lat="47.69826" lon="-3.25354">
        <ele>28</ele>
        <time>2021-08-14T14:44:06Z</time>
      </trkpt>
      <trkpt lat="47.69822" lon="-3.25349">
        <ele>28</ele>
        <time>2021-08-14T14:44:07Z</time>
      </trkpt>
      <trkpt lat="47.69819" lon="-3.25344">
        <ele>28</ele>
        <time>2021-08-14T14:44:08Z</time>
      </trkpt>
      <trkpt lat="47.69816" lon="-3.25339">
        <ele>28</ele>
        <time>2021-08-14T14:44:09Z</time>
      </trkpt>
      <trkpt lat="47.69813" lon="-3.25334">
        <ele>28</ele>
        <time>2021-08-14T14:44:10Z</time>
      </trkpt>
      <trkpt lat="47.6981" lon="-3.25328">
        <ele>28</ele>
        <time>2021-08-14T14:44:11Z</time>
      </trkpt>
      <trkpt lat="47.69807" lon="-3.25323">
        <ele>28</ele>
        <time>2021-08-14T14:44:12Z</time>
      </trkpt>
      <trkpt lat="47.69805" lon="-3.25318">
        <ele>28.2</ele>
        <time>2021-08-14T14:44:13Z</time>
      </trkpt>
      <trkpt lat="47.69802" lon="-3.25312">
        <ele>28.4</ele>
        <time>2021-08-14T14:44:14Z</time>
      </trkpt>
      <trkpt lat="47.698" lon="-3.25306">
        <ele>28.6</ele>
        <time>2021-08-14T14:44:15Z</time>
      </trkpt>
      <trkpt lat="47.69798" lon="-3.253">
        <ele>28.6</ele>
        <time>2021-08-14T14:44:16Z</time>
      </trkpt>
      <trkpt lat="47.69795" lon="-3.25295">
        <ele>28.6</ele>
        <time>2021-08-14T14:44:17Z</time>
      </trkpt>
      <trkpt lat="47.69793" lon="-3.25289">
        <ele>28.6</ele>
        <time>2021-08-14T14:44:18Z</time>
      </trkpt>
      <trkpt lat="47.69791" lon="-3.25283">
        <ele>28.8</ele>
        <time>2021-08-14T14:44:19Z</time>
      </trkpt>
      <trkpt lat="47.69789" lon="-3.25278">
        <ele>28.8</ele>
        <time>2021-08-14T14:44:20Z</time>
      </trkpt>
      <trkpt lat="47.69787" lon="-3.25272">
        <ele>28.8</ele>
        <time>2021-08-14T14:44:21Z</time>
      </trkpt>
      <trkpt lat="47.69785" lon="-3.25266">
        <ele>28.8</ele>
        <time>2021-08-14T14:44:22Z</time>
      </trkpt>
      <trkpt lat="47.69783" lon="-3.2526">
        <ele>28.8</ele>
        <time>2021-08-14T14:44:23Z</time>
      </trkpt>
      <trkpt lat="47.69781" lon="-3.25254">
        <ele>28.8</ele>
        <time>2021-08-14T14:44:24Z</time>
      </trkpt>
      <trkpt lat="47.69779" lon="-3.25247">
        <ele>28.6</ele>
        <time>2021-08-14T14:44:25Z</time>
      </trkpt>
      <trkpt lat="47.69777" lon="-3.25241">
        <ele>28.6</ele>
        <time>2021-08-14T14:44:26Z</time>
      </trkpt>
      <trkpt lat="47.69775" lon="-3.25235">
        <ele>28.6</ele>
        <time>2021-08-14T14:44:27Z</time>
      </trkpt>
      <trkpt lat="47.69772" lon="-3.25229">
        <ele>28.4</ele>
        <time>2021-08-14T14:44:28Z</time>
      </trkpt>
      <trkpt lat="47.6977" lon="-3.25223">
        <ele>28.2</ele>
        <time>2021-08-14T14:44:29Z</time>
      </trkpt>
      <trkpt lat="47.69768" lon="-3.25217">
        <ele>28.2</ele>
        <time>2021-08-14T14:44:30Z</time>
      </trkpt>
      <trkpt lat="47.69766" lon="-3.25212">
        <ele>28.2</ele>
        <time>2021-08-14T14:44:31Z</time>
      </trkpt>
      <trkpt lat="47.69764" lon="-3.25207">
        <ele>28.2</ele>
        <time>2021-08-14T14:44:32Z</time>
      </trkpt>
      <trkpt lat="47.69762" lon="-3.25202">
        <ele>28.2</ele>
        <time>2021-08-14T14:44:33Z</time>
      </trkpt>
      <trkpt lat="47.69761" lon="-3.25198">
        <ele>28.2</ele>
        <time>2021-08-14T14:44:34Z</time>
      </trkpt>
      <trkpt lat="47.69759" lon="-3.25194">
        <ele>28</ele>
        <time>2021-08-14T14:44:35Z</time>
      </trkpt>
      <trkpt lat="47.69758" lon="-3.25191">
        <ele>28</ele>
        <time>2021-08-14T14:44:36Z</time>
      </trkpt>
      <trkpt lat="47.69756" lon="-3.25188">
        <ele>28</ele>
        <time>2021-08-14T14:44:37Z</time>
      </trkpt>
      <trkpt lat="47.69755" lon="-3.25184">
        <ele>28.2</ele>
        <time>2021-08-14T14:44:38Z</time>
      </trkpt>
      <trkpt lat="47.69753" lon="-3.25181">
        <ele>28.2</ele>
        <time>2021-08-14T14:44:39Z</time>
      </trkpt>
      <trkpt lat="47.69751" lon="-3.25177">
        <ele>28.2</ele>
        <time>2021-08-14T14:44:40Z</time>
      </trkpt>
      <trkpt lat="47.6975" lon="-3.25173">
        <ele>28.2</ele>
        <time>2021-08-14T14:44:41Z</time>
      </trkpt>
      <trkpt lat="47.69747" lon="-3.2517">
        <ele>28.4</ele>
        <time>2021-08-14T14:44:42Z</time>
      </trkpt>
      <trkpt lat="47.69745" lon="-3.25167">
        <ele>28.4</ele>
        <time>2021-08-14T14:44:43Z</time>
      </trkpt>
      <trkpt lat="47.69742" lon="-3.25164">
        <ele>28.4</ele>
        <time>2021-08-14T14:44:44Z</time>
      </trkpt>
      <trkpt lat="47.69738" lon="-3.25161">
        <ele>28.4</ele>
        <time>2021-08-14T14:44:45Z</time>
      </trkpt>
      <trkpt lat="47.69734" lon="-3.25159">
        <ele>28.4</ele>
        <time>2021-08-14T14:44:46Z</time>
      </trkpt>
      <trkpt lat="47.6973" lon="-3.25157">
        <ele>28.4</ele>
        <time>2021-08-14T14:44:47Z</time>
      </trkpt>
      <trkpt lat="47.69726" lon="-3.25157">
        <ele>28.4</ele>
        <time>2021-08-14T14:44:48Z</time>
      </trkpt>
      <trkpt lat="47.69722" lon="-3.25156">
        <ele>28.4</ele>
        <time>2021-08-14T14:44:49Z</time>
      </trkpt>
      <trkpt lat="47.69717" lon="-3.25154">
        <ele>28.4</ele>
        <time>2021-08-14T14:44:50Z</time>
      </trkpt>
      <trkpt lat="47.69713" lon="-3.25151">
        <ele>28.4</ele>
        <time>2021-08-14T14:44:51Z</time>
      </trkpt>
      <trkpt lat="47.69709" lon="-3.25147">
        <ele>28.4</ele>
        <time>2021-08-14T14:44:52Z</time>
      </trkpt>
      <trkpt lat="47.69706" lon="-3.25141">
        <ele>28.2</ele>
        <time>2021-08-14T14:44:53Z</time>
      </trkpt>
      <trkpt lat="47.69704" lon="-3.25134">
        <ele>28.2</ele>
        <time>2021-08-14T14:44:54Z</time>
      </trkpt>
      <trkpt lat="47.69703" lon="-3.25126">
        <ele>28</ele>
        <time>2021-08-14T14:44:55Z</time>
      </trkpt>
      <trkpt lat="47.69703" lon="-3.25118">
        <ele>27.6</ele>
        <time>2021-08-14T14:44:56Z</time>
      </trkpt>
      <trkpt lat="47.69702" lon="-3.25111">
        <ele>27.6</ele>
        <time>2021-08-14T14:44:57Z</time>
      </trkpt>
      <trkpt lat="47.69702" lon="-3.25104">
        <ele>27.6</ele>
        <time>2021-08-14T14:44:58Z</time>
      </trkpt>
      <trkpt lat="47.697" lon="-3.25097">
        <ele>27.4</ele>
        <time>2021-08-14T14:44:59Z</time>
      </trkpt>
      <trkpt lat="47.69698" lon="-3.2509">
        <ele>27.4</ele>
        <time>2021-08-14T14:45:00Z</time>
      </trkpt>
      <trkpt lat="47.69696" lon="-3.25084">
        <ele>27.4</ele>
        <time>2021-08-14T14:45:01Z</time>
      </trkpt>
      <trkpt lat="47.69694" lon="-3.25077">
        <ele>27.4</ele>
        <time>2021-08-14T14:45:02Z</time>
      </trkpt>
      <trkpt lat="47.69691" lon="-3.2507">
        <ele>27.2</ele>
        <time>2021-08-14T14:45:03Z</time>
      </trkpt>
      <trkpt lat="47.69689" lon="-3.25064">
        <ele>27.2</ele>
        <time>2021-08-14T14:45:04Z</time>
      </trkpt>
      <trkpt lat="47.69687" lon="-3.25056">
        <ele>27.2</ele>
        <time>2021-08-14T14:45:05Z</time>
      </trkpt>
      <trkpt lat="47.69685" lon="-3.25049">
        <ele>27</ele>
        <time>2021-08-14T14:45:06Z</time>
      </trkpt>
      <trkpt lat="47.69683" lon="-3.25042">
        <ele>27.2</ele>
        <time>2021-08-14T14:45:07Z</time>
      </trkpt>
      <trkpt lat="47.69681" lon="-3.25035">
        <ele>27</ele>
        <time>2021-08-14T14:45:08Z</time>
      </trkpt>
      <trkpt lat="47.69679" lon="-3.25027">
        <ele>27</ele>
        <time>2021-08-14T14:45:09Z</time>
      </trkpt>
      <trkpt lat="47.69678" lon="-3.25019">
        <ele>27</ele>
        <time>2021-08-14T14:45:10Z</time>
      </trkpt>
      <trkpt lat="47.69676" lon="-3.25012">
        <ele>26.4</ele>
        <time>2021-08-14T14:45:11Z</time>
      </trkpt>
      <trkpt lat="47.69675" lon="-3.25004">
        <ele>26</ele>
        <time>2021-08-14T14:45:12Z</time>
      </trkpt>
      <trkpt lat="47.69674" lon="-3.24996">
        <ele>25.8</ele>
        <time>2021-08-14T14:45:13Z</time>
      </trkpt>
      <trkpt lat="47.69674" lon="-3.24988">
        <ele>25.6</ele>
        <time>2021-08-14T14:45:14Z</time>
      </trkpt>
      <trkpt lat="47.69673" lon="-3.2498">
        <ele>25.6</ele>
        <time>2021-08-14T14:45:15Z</time>
      </trkpt>
      <trkpt lat="47.69672" lon="-3.24972">
        <ele>25.4</ele>
        <time>2021-08-14T14:45:16Z</time>
      </trkpt>
      <trkpt lat="47.69671" lon="-3.24964">
        <ele>25.4</ele>
        <time>2021-08-14T14:45:17Z</time>
      </trkpt>
      <trkpt lat="47.6967" lon="-3.24955">
        <ele>25.4</ele>
        <time>2021-08-14T14:45:18Z</time>
      </trkpt>
      <trkpt lat="47.6967" lon="-3.24947">
        <ele>25.4</ele>
        <time>2021-08-14T14:45:19Z</time>
      </trkpt>
      <trkpt lat="47.69669" lon="-3.24939">
        <ele>25.4</ele>
        <time>2021-08-14T14:45:20Z</time>
      </trkpt>
      <trkpt lat="47.69668" lon="-3.24931">
        <ele>25.4</ele>
        <time>2021-08-14T14:45:21Z</time>
      </trkpt>
      <trkpt lat="47.69667" lon="-3.24923">
        <ele>25.2</ele>
        <time>2021-08-14T14:45:22Z</time>
      </trkpt>
      <trkpt lat="47.69665" lon="-3.24915">
        <ele>25.2</ele>
        <time>2021-08-14T14:45:23Z</time>
      </trkpt>
      <trkpt lat="47.69663" lon="-3.24907">
        <ele>25.2</ele>
        <time>2021-08-14T14:45:24Z</time>
      </trkpt>
      <trkpt lat="47.69662" lon="-3.24899">
        <ele>25</ele>
        <time>2021-08-14T14:45:25Z</time>
      </trkpt>
      <trkpt lat="47.6966" lon="-3.2489">
        <ele>25</ele>
        <time>2021-08-14T14:45:26Z</time>
      </trkpt>
      <trkpt lat="47.69659" lon="-3.24882">
        <ele>25</ele>
        <time>2021-08-14T14:45:27Z</time>
      </trkpt>
      <trkpt lat="47.69657" lon="-3.24873">
        <ele>24.8</ele>
        <time>2021-08-14T14:45:28Z</time>
      </trkpt>
      <trkpt lat="47.69655" lon="-3.24865">
        <ele>24.6</ele>
        <time>2021-08-14T14:45:29Z</time>
      </trkpt>
      <trkpt lat="47.69652" lon="-3.24856">
        <ele>24.6</ele>
        <time>2021-08-14T14:45:30Z</time>
      </trkpt>
      <trkpt lat="47.69649" lon="-3.24848">
        <ele>24.4</ele>
        <time>2021-08-14T14:45:31Z</time>
      </trkpt>
      <trkpt lat="47.69646" lon="-3.2484">
        <ele>24.4</ele>
        <time>2021-08-14T14:45:32Z</time>
      </trkpt>
      <trkpt lat="47.69643" lon="-3.24833">
        <ele>24.2</ele>
        <time>2021-08-14T14:45:33Z</time>
      </trkpt>
      <trkpt lat="47.6964" lon="-3.24825">
        <ele>24.2</ele>
        <time>2021-08-14T14:45:34Z</time>
      </trkpt>
      <trkpt lat="47.69637" lon="-3.24818">
        <ele>24</ele>
        <time>2021-08-14T14:45:35Z</time>
      </trkpt>
      <trkpt lat="47.69634" lon="-3.24811">
        <ele>24</ele>
        <time>2021-08-14T14:45:36Z</time>
      </trkpt>
      <trkpt lat="47.69631" lon="-3.24804">
        <ele>23.8</ele>
        <time>2021-08-14T14:45:37Z</time>
      </trkpt>
      <trkpt lat="47.69628" lon="-3.24796">
        <ele>23.6</ele>
        <time>2021-08-14T14:45:38Z</time>
      </trkpt>
      <trkpt lat="47.69625" lon="-3.24789">
        <ele>23.4</ele>
        <time>2021-08-14T14:45:39Z</time>
      </trkpt>
      <trkpt lat="47.69622" lon="-3.24781">
        <ele>23.4</ele>
        <time>2021-08-14T14:45:40Z</time>
      </trkpt>
      <trkpt lat="47.69619" lon="-3.24774">
        <ele>23.2</ele>
        <time>2021-08-14T14:45:41Z</time>
      </trkpt>
      <trkpt lat="47.69616" lon="-3.24766">
        <ele>23</ele>
        <time>2021-08-14T14:45:42Z</time>
      </trkpt>
      <trkpt lat="47.69614" lon="-3.24759">
        <ele>23</ele>
        <time>2021-08-14T14:45:43Z</time>
      </trkpt>
      <trkpt lat="47.69611" lon="-3.24751">
        <ele>23</ele>
        <time>2021-08-14T14:45:44Z</time>
      </trkpt>
      <trkpt lat="47.69608" lon="-3.24744">
        <ele>23</ele>
        <time>2021-08-14T14:45:45Z</time>
      </trkpt>
      <trkpt lat="47.69606" lon="-3.24737">
        <ele>22.8</ele>
        <time>2021-08-14T14:45:46Z</time>
      </trkpt>
      <trkpt lat="47.69603" lon="-3.24729">
        <ele>22.8</ele>
        <time>2021-08-14T14:45:47Z</time>
      </trkpt>
      <trkpt lat="47.69601" lon="-3.24721">
        <ele>22.8</ele>
        <time>2021-08-14T14:45:48Z</time>
      </trkpt>
      <trkpt lat="47.69598" lon="-3.24713">
        <ele>22.6</ele>
        <time>2021-08-14T14:45:49Z</time>
      </trkpt>
      <trkpt lat="47.69595" lon="-3.24706">
        <ele>22.6</ele>
        <time>2021-08-14T14:45:50Z</time>
      </trkpt>
      <trkpt lat="47.69592" lon="-3.24698">
        <ele>22.6</ele>
        <time>2021-08-14T14:45:51Z</time>
      </trkpt>
      <trkpt lat="47.6959" lon="-3.24691">
        <ele>22.6</ele>
        <time>2021-08-14T14:45:52Z</time>
      </trkpt>
      <trkpt lat="47.69587" lon="-3.24683">
        <ele>22.6</ele>
        <time>2021-08-14T14:45:53Z</time>
      </trkpt>
      <trkpt lat="47.69585" lon="-3.24676">
        <ele>22.6</ele>
        <time>2021-08-14T14:45:54Z</time>
      </trkpt>
      <trkpt lat="47.69583" lon="-3.24669">
        <ele>22.6</ele>
        <time>2021-08-14T14:45:55Z</time>
      </trkpt>
      <trkpt lat="47.6958" lon="-3.24661">
        <ele>22.6</ele>
        <time>2021-08-14T14:45:56Z</time>
      </trkpt>
      <trkpt lat="47.69578" lon="-3.24654">
        <ele>22.6</ele>
        <time>2021-08-14T14:45:57Z</time>
      </trkpt>
      <trkpt lat="47.69576" lon="-3.24646">
        <ele>22.6</ele>
        <time>2021-08-14T14:45:58Z</time>
      </trkpt>
      <trkpt lat="47.69573" lon="-3.2464">
        <ele>22.6</ele>
        <time>2021-08-14T14:45:59Z</time>
      </trkpt>
      <trkpt lat="47.69571" lon="-3.24633">
        <ele>22.6</ele>
        <time>2021-08-14T14:46:00Z</time>
      </trkpt>
      <trkpt lat="47.69568" lon="-3.24627">
        <ele>22.6</ele>
        <time>2021-08-14T14:46:01Z</time>
      </trkpt>
      <trkpt lat="47.69566" lon="-3.2462">
        <ele>22.6</ele>
        <time>2021-08-14T14:46:02Z</time>
      </trkpt>
      <trkpt lat="47.69563" lon="-3.24613">
        <ele>22.6</ele>
        <time>2021-08-14T14:46:03Z</time>
      </trkpt>
      <trkpt lat="47.69561" lon="-3.24606">
        <ele>22.6</ele>
        <time>2021-08-14T14:46:04Z</time>
      </trkpt>
      <trkpt lat="47.69558" lon="-3.24599">
        <ele>22.6</ele>
        <time>2021-08-14T14:46:05Z</time>
      </trkpt>
      <trkpt lat="47.69556" lon="-3.24592">
        <ele>22.8</ele>
        <time>2021-08-14T14:46:06Z</time>
      </trkpt>
      <trkpt lat="47.69553" lon="-3.24586">
        <ele>22.8</ele>
        <time>2021-08-14T14:46:07Z</time>
      </trkpt>
      <trkpt lat="47.69551" lon="-3.24579">
        <ele>22.8</ele>
        <time>2021-08-14T14:46:08Z</time>
      </trkpt>
      <trkpt lat="47.69549" lon="-3.24572">
        <ele>23</ele>
        <time>2021-08-14T14:46:09Z</time>
      </trkpt>
      <trkpt lat="47.69546" lon="-3.24566">
        <ele>23</ele>
        <time>2021-08-14T14:46:10Z</time>
      </trkpt>
      <trkpt lat="47.69543" lon="-3.24559">
        <ele>23</ele>
        <time>2021-08-14T14:46:11Z</time>
      </trkpt>
      <trkpt lat="47.69541" lon="-3.24552">
        <ele>23</ele>
        <time>2021-08-14T14:46:12Z</time>
      </trkpt>
      <trkpt lat="47.69538" lon="-3.24545">
        <ele>23</ele>
        <time>2021-08-14T14:46:13Z</time>
      </trkpt>
      <trkpt lat="47.69536" lon="-3.24538">
        <ele>23</ele>
        <time>2021-08-14T14:46:14Z</time>
      </trkpt>
      <trkpt lat="47.69534" lon="-3.24532">
        <ele>23</ele>
        <time>2021-08-14T14:46:15Z</time>
      </trkpt>
      <trkpt lat="47.69531" lon="-3.24525">
        <ele>23</ele>
        <time>2021-08-14T14:46:16Z</time>
      </trkpt>
      <trkpt lat="47.69529" lon="-3.24519">
        <ele>23</ele>
        <time>2021-08-14T14:46:17Z</time>
      </trkpt>
      <trkpt lat="47.69526" lon="-3.24512">
        <ele>23</ele>
        <time>2021-08-14T14:46:18Z</time>
      </trkpt>
      <trkpt lat="47.69523" lon="-3.24505">
        <ele>23</ele>
        <time>2021-08-14T14:46:19Z</time>
      </trkpt>
      <trkpt lat="47.69521" lon="-3.24497">
        <ele>23</ele>
        <time>2021-08-14T14:46:20Z</time>
      </trkpt>
      <trkpt lat="47.69518" lon="-3.2449">
        <ele>23</ele>
        <time>2021-08-14T14:46:21Z</time>
      </trkpt>
      <trkpt lat="47.69516" lon="-3.24483">
        <ele>23</ele>
        <time>2021-08-14T14:46:22Z</time>
      </trkpt>
      <trkpt lat="47.69514" lon="-3.24477">
        <ele>23</ele>
        <time>2021-08-14T14:46:23Z</time>
      </trkpt>
      <trkpt lat="47.69511" lon="-3.2447">
        <ele>23</ele>
        <time>2021-08-14T14:46:24Z</time>
      </trkpt>
      <trkpt lat="47.69509" lon="-3.24464">
        <ele>23</ele>
        <time>2021-08-14T14:46:25Z</time>
      </trkpt>
      <trkpt lat="47.69507" lon="-3.24458">
        <ele>23</ele>
        <time>2021-08-14T14:46:26Z</time>
      </trkpt>
      <trkpt lat="47.69504" lon="-3.24452">
        <ele>23</ele>
        <time>2021-08-14T14:46:27Z</time>
      </trkpt>
      <trkpt lat="47.69502" lon="-3.24446">
        <ele>23</ele>
        <time>2021-08-14T14:46:28Z</time>
      </trkpt>
      <trkpt lat="47.695" lon="-3.2444">
        <ele>23</ele>
        <time>2021-08-14T14:46:29Z</time>
      </trkpt>
      <trkpt lat="47.69497" lon="-3.24433">
        <ele>23</ele>
        <time>2021-08-14T14:46:30Z</time>
      </trkpt>
      <trkpt lat="47.69495" lon="-3.24427">
        <ele>23.2</ele>
        <time>2021-08-14T14:46:31Z</time>
      </trkpt>
      <trkpt lat="47.69493" lon="-3.2442">
        <ele>23.2</ele>
        <time>2021-08-14T14:46:32Z</time>
      </trkpt>
      <trkpt lat="47.6949" lon="-3.24414">
        <ele>23.2</ele>
        <time>2021-08-14T14:46:33Z</time>
      </trkpt>
      <trkpt lat="47.69488" lon="-3.24408">
        <ele>23.2</ele>
        <time>2021-08-14T14:46:34Z</time>
      </trkpt>
      <trkpt lat="47.69486" lon="-3.24401">
        <ele>23.2</ele>
        <time>2021-08-14T14:46:35Z</time>
      </trkpt>
      <trkpt lat="47.69484" lon="-3.24395">
        <ele>23.2</ele>
        <time>2021-08-14T14:46:36Z</time>
      </trkpt>
      <trkpt lat="47.69481" lon="-3.2439">
        <ele>23.2</ele>
        <time>2021-08-14T14:46:37Z</time>
      </trkpt>
      <trkpt lat="47.69479" lon="-3.24383">
        <ele>23.2</ele>
        <time>2021-08-14T14:46:38Z</time>
      </trkpt>
      <trkpt lat="47.69476" lon="-3.24377">
        <ele>23.2</ele>
        <time>2021-08-14T14:46:39Z</time>
      </trkpt>
      <trkpt lat="47.69474" lon="-3.2437">
        <ele>23.2</ele>
        <time>2021-08-14T14:46:40Z</time>
      </trkpt>
      <trkpt lat="47.69471" lon="-3.24363">
        <ele>23.2</ele>
        <time>2021-08-14T14:46:41Z</time>
      </trkpt>
      <trkpt lat="47.69469" lon="-3.24357">
        <ele>23</ele>
        <time>2021-08-14T14:46:42Z</time>
      </trkpt>
      <trkpt lat="47.69467" lon="-3.2435">
        <ele>23</ele>
        <time>2021-08-14T14:46:43Z</time>
      </trkpt>
      <trkpt lat="47.69464" lon="-3.24344">
        <ele>23</ele>
        <time>2021-08-14T14:46:44Z</time>
      </trkpt>
      <trkpt lat="47.69462" lon="-3.24338">
        <ele>23</ele>
        <time>2021-08-14T14:46:45Z</time>
      </trkpt>
      <trkpt lat="47.6946" lon="-3.24331">
        <ele>23</ele>
        <time>2021-08-14T14:46:46Z</time>
      </trkpt>
      <trkpt lat="47.69457" lon="-3.24325">
        <ele>23</ele>
        <time>2021-08-14T14:46:47Z</time>
      </trkpt>
      <trkpt lat="47.69455" lon="-3.24319">
        <ele>23</ele>
        <time>2021-08-14T14:46:48Z</time>
      </trkpt>
      <trkpt lat="47.69452" lon="-3.24312">
        <ele>23</ele>
        <time>2021-08-14T14:46:49Z</time>
      </trkpt>
      <trkpt lat="47.6945" lon="-3.24305">
        <ele>23</ele>
        <time>2021-08-14T14:46:50Z</time>
      </trkpt>
      <trkpt lat="47.69448" lon="-3.24299">
        <ele>23</ele>
        <time>2021-08-14T14:46:51Z</time>
      </trkpt>
      <trkpt lat="47.69445" lon="-3.24292">
        <ele>22.8</ele>
        <time>2021-08-14T14:46:52Z</time>
      </trkpt>
      <trkpt lat="47.69443" lon="-3.24285">
        <ele>22.8</ele>
        <time>2021-08-14T14:46:53Z</time>
      </trkpt>
      <trkpt lat="47.6944" lon="-3.24279">
        <ele>22.8</ele>
        <time>2021-08-14T14:46:54Z</time>
      </trkpt>
      <trkpt lat="47.69438" lon="-3.24272">
        <ele>22.8</ele>
        <time>2021-08-14T14:46:55Z</time>
      </trkpt>
      <trkpt lat="47.69435" lon="-3.24265">
        <ele>22.8</ele>
        <time>2021-08-14T14:46:56Z</time>
      </trkpt>
      <trkpt lat="47.69433" lon="-3.24258">
        <ele>22.8</ele>
        <time>2021-08-14T14:46:57Z</time>
      </trkpt>
      <trkpt lat="47.6943" lon="-3.2425">
        <ele>22.8</ele>
        <time>2021-08-14T14:46:58Z</time>
      </trkpt>
      <trkpt lat="47.69427" lon="-3.24243">
        <ele>22.8</ele>
        <time>2021-08-14T14:46:59Z</time>
      </trkpt>
      <trkpt lat="47.69425" lon="-3.24236">
        <ele>22.6</ele>
        <time>2021-08-14T14:47:00Z</time>
      </trkpt>
      <trkpt lat="47.69422" lon="-3.24229">
        <ele>22.6</ele>
        <time>2021-08-14T14:47:01Z</time>
      </trkpt>
      <trkpt lat="47.69419" lon="-3.24221">
        <ele>22.6</ele>
        <time>2021-08-14T14:47:02Z</time>
      </trkpt>
      <trkpt lat="47.69417" lon="-3.24214">
        <ele>22.6</ele>
        <time>2021-08-14T14:47:03Z</time>
      </trkpt>
      <trkpt lat="47.69414" lon="-3.24207">
        <ele>22.6</ele>
        <time>2021-08-14T14:47:04Z</time>
      </trkpt>
      <trkpt lat="47.69411" lon="-3.24199">
        <ele>22.6</ele>
        <time>2021-08-14T14:47:05Z</time>
      </trkpt>
      <trkpt lat="47.69408" lon="-3.24192">
        <ele>22.6</ele>
        <time>2021-08-14T14:47:06Z</time>
      </trkpt>
      <trkpt lat="47.69406" lon="-3.24184">
        <ele>22.4</ele>
        <time>2021-08-14T14:47:07Z</time>
      </trkpt>
      <trkpt lat="47.69403" lon="-3.24176">
        <ele>22.4</ele>
        <time>2021-08-14T14:47:08Z</time>
      </trkpt>
      <trkpt lat="47.694" lon="-3.24169">
        <ele>22.4</ele>
        <time>2021-08-14T14:47:09Z</time>
      </trkpt>
      <trkpt lat="47.69397" lon="-3.24162">
        <ele>22.4</ele>
        <time>2021-08-14T14:47:10Z</time>
      </trkpt>
      <trkpt lat="47.69395" lon="-3.24154">
        <ele>22.4</ele>
        <time>2021-08-14T14:47:11Z</time>
      </trkpt>
      <trkpt lat="47.69392" lon="-3.24147">
        <ele>22.4</ele>
        <time>2021-08-14T14:47:12Z</time>
      </trkpt>
      <trkpt lat="47.69389" lon="-3.24139">
        <ele>22.4</ele>
        <time>2021-08-14T14:47:13Z</time>
      </trkpt>
      <trkpt lat="47.69386" lon="-3.24131">
        <ele>22.2</ele>
        <time>2021-08-14T14:47:14Z</time>
      </trkpt>
      <trkpt lat="47.69383" lon="-3.24124">
        <ele>22</ele>
        <time>2021-08-14T14:47:15Z</time>
      </trkpt>
      <trkpt lat="47.69381" lon="-3.24115">
        <ele>21.8</ele>
        <time>2021-08-14T14:47:16Z</time>
      </trkpt>
      <trkpt lat="47.69378" lon="-3.24107">
        <ele>21.6</ele>
        <time>2021-08-14T14:47:17Z</time>
      </trkpt>
      <trkpt lat="47.69375" lon="-3.24099">
        <ele>21.4</ele>
        <time>2021-08-14T14:47:18Z</time>
      </trkpt>
      <trkpt lat="47.69372" lon="-3.24091">
        <ele>21.2</ele>
        <time>2021-08-14T14:47:19Z</time>
      </trkpt>
      <trkpt lat="47.69368" lon="-3.24082">
        <ele>21.2</ele>
        <time>2021-08-14T14:47:20Z</time>
      </trkpt>
      <trkpt lat="47.69365" lon="-3.24074">
        <ele>21.2</ele>
        <time>2021-08-14T14:47:21Z</time>
      </trkpt>
      <trkpt lat="47.69362" lon="-3.24065">
        <ele>21</ele>
        <time>2021-08-14T14:47:22Z</time>
      </trkpt>
      <trkpt lat="47.69359" lon="-3.24056">
        <ele>21</ele>
        <time>2021-08-14T14:47:23Z</time>
      </trkpt>
      <trkpt lat="47.69356" lon="-3.24047">
        <ele>20.8</ele>
        <time>2021-08-14T14:47:24Z</time>
      </trkpt>
      <trkpt lat="47.69353" lon="-3.24038">
        <ele>20.8</ele>
        <time>2021-08-14T14:47:25Z</time>
      </trkpt>
      <trkpt lat="47.69349" lon="-3.24029">
        <ele>20.2</ele>
        <time>2021-08-14T14:47:26Z</time>
      </trkpt>
      <trkpt lat="47.69346" lon="-3.24021">
        <ele>20</ele>
        <time>2021-08-14T14:47:27Z</time>
      </trkpt>
      <trkpt lat="47.69342" lon="-3.24012">
        <ele>19.8</ele>
        <time>2021-08-14T14:47:28Z</time>
      </trkpt>
      <trkpt lat="47.69339" lon="-3.24002">
        <ele>19.6</ele>
        <time>2021-08-14T14:47:29Z</time>
      </trkpt>
      <trkpt lat="47.69335" lon="-3.23993">
        <ele>19.6</ele>
        <time>2021-08-14T14:47:30Z</time>
      </trkpt>
      <trkpt lat="47.69332" lon="-3.23983">
        <ele>19.4</ele>
        <time>2021-08-14T14:47:31Z</time>
      </trkpt>
      <trkpt lat="47.69328" lon="-3.23974">
        <ele>19</ele>
        <time>2021-08-14T14:47:32Z</time>
      </trkpt>
      <trkpt lat="47.69325" lon="-3.23964">
        <ele>18.6</ele>
        <time>2021-08-14T14:47:33Z</time>
      </trkpt>
      <trkpt lat="47.69321" lon="-3.23955">
        <ele>18.4</ele>
        <time>2021-08-14T14:47:34Z</time>
      </trkpt>
      <trkpt lat="47.69318" lon="-3.23946">
        <ele>18.2</ele>
        <time>2021-08-14T14:47:35Z</time>
      </trkpt>
      <trkpt lat="47.69314" lon="-3.23936">
        <ele>18.2</ele>
        <time>2021-08-14T14:47:36Z</time>
      </trkpt>
      <trkpt lat="47.69311" lon="-3.23927">
        <ele>17.8</ele>
        <time>2021-08-14T14:47:37Z</time>
      </trkpt>
      <trkpt lat="47.69307" lon="-3.23917">
        <ele>17.4</ele>
        <time>2021-08-14T14:47:38Z</time>
      </trkpt>
      <trkpt lat="47.69303" lon="-3.23908">
        <ele>17.2</ele>
        <time>2021-08-14T14:47:39Z</time>
      </trkpt>
      <trkpt lat="47.693" lon="-3.23899">
        <ele>17</ele>
        <time>2021-08-14T14:47:40Z</time>
      </trkpt>
      <trkpt lat="47.69296" lon="-3.2389">
        <ele>16.8</ele>
        <time>2021-08-14T14:47:41Z</time>
      </trkpt>
      <trkpt lat="47.69293" lon="-3.23881">
        <ele>16.8</ele>
        <time>2021-08-14T14:47:42Z</time>
      </trkpt>
      <trkpt lat="47.6929" lon="-3.23871">
        <ele>16.8</ele>
        <time>2021-08-14T14:47:43Z</time>
      </trkpt>
      <trkpt lat="47.69287" lon="-3.23862">
        <ele>16.6</ele>
        <time>2021-08-14T14:47:44Z</time>
      </trkpt>
      <trkpt lat="47.69283" lon="-3.23853">
        <ele>16.6</ele>
        <time>2021-08-14T14:47:45Z</time>
      </trkpt>
      <trkpt lat="47.6928" lon="-3.23845">
        <ele>16.4</ele>
        <time>2021-08-14T14:47:46Z</time>
      </trkpt>
      <trkpt lat="47.69277" lon="-3.23835">
        <ele>16.2</ele>
        <time>2021-08-14T14:47:47Z</time>
      </trkpt>
      <trkpt lat="47.69274" lon="-3.23826">
        <ele>16</ele>
        <time>2021-08-14T14:47:48Z</time>
      </trkpt>
      <trkpt lat="47.69271" lon="-3.23817">
        <ele>16</ele>
        <time>2021-08-14T14:47:49Z</time>
      </trkpt>
      <trkpt lat="47.69267" lon="-3.23809">
        <ele>16</ele>
        <time>2021-08-14T14:47:50Z</time>
      </trkpt>
      <trkpt lat="47.69264" lon="-3.238">
        <ele>15.8</ele>
        <time>2021-08-14T14:47:51Z</time>
      </trkpt>
      <trkpt lat="47.69261" lon="-3.23791">
        <ele>15.8</ele>
        <time>2021-08-14T14:47:52Z</time>
      </trkpt>
      <trkpt lat="47.69258" lon="-3.23782">
        <ele>15.8</ele>
        <time>2021-08-14T14:47:53Z</time>
      </trkpt>
      <trkpt lat="47.69255" lon="-3.23773">
        <ele>15.6</ele>
        <time>2021-08-14T14:47:54Z</time>
      </trkpt>
      <trkpt lat="47.69252" lon="-3.23765">
        <ele>15.6</ele>
        <time>2021-08-14T14:47:55Z</time>
      </trkpt>
      <trkpt lat="47.69248" lon="-3.23756">
        <ele>15.6</ele>
        <time>2021-08-14T14:47:56Z</time>
      </trkpt>
      <trkpt lat="47.69245" lon="-3.23748">
        <ele>15.6</ele>
        <time>2021-08-14T14:47:57Z</time>
      </trkpt>
      <trkpt lat="47.69242" lon="-3.2374">
        <ele>15.4</ele>
        <time>2021-08-14T14:47:58Z</time>
      </trkpt>
      <trkpt lat="47.6924" lon="-3.23732">
        <ele>15.4</ele>
        <time>2021-08-14T14:47:59Z</time>
      </trkpt>
      <trkpt lat="47.69237" lon="-3.23724">
        <ele>15.4</ele>
        <time>2021-08-14T14:48:00Z</time>
      </trkpt>
      <trkpt lat="47.69234" lon="-3.23715">
        <ele>15.4</ele>
        <time>2021-08-14T14:48:01Z</time>
      </trkpt>
      <trkpt lat="47.69231" lon="-3.23707">
        <ele>15.4</ele>
        <time>2021-08-14T14:48:02Z</time>
      </trkpt>
      <trkpt lat="47.69228" lon="-3.23699">
        <ele>15.2</ele>
        <time>2021-08-14T14:48:03Z</time>
      </trkpt>
      <trkpt lat="47.69225" lon="-3.23691">
        <ele>15.2</ele>
        <time>2021-08-14T14:48:04Z</time>
      </trkpt>
      <trkpt lat="47.69222" lon="-3.23683">
        <ele>15</ele>
        <time>2021-08-14T14:48:05Z</time>
      </trkpt>
      <trkpt lat="47.69218" lon="-3.23675">
        <ele>15</ele>
        <time>2021-08-14T14:48:06Z</time>
      </trkpt>
      <trkpt lat="47.69215" lon="-3.23666">
        <ele>15</ele>
        <time>2021-08-14T14:48:07Z</time>
      </trkpt>
      <trkpt lat="47.69213" lon="-3.23658">
        <ele>15</ele>
        <time>2021-08-14T14:48:08Z</time>
      </trkpt>
      <trkpt lat="47.6921" lon="-3.23649">
        <ele>15</ele>
        <time>2021-08-14T14:48:09Z</time>
      </trkpt>
      <trkpt lat="47.69207" lon="-3.23641">
        <ele>15</ele>
        <time>2021-08-14T14:48:10Z</time>
      </trkpt>
      <trkpt lat="47.69204" lon="-3.23633">
        <ele>14.8</ele>
        <time>2021-08-14T14:48:11Z</time>
      </trkpt>
      <trkpt lat="47.69201" lon="-3.23624">
        <ele>14.6</ele>
        <time>2021-08-14T14:48:12Z</time>
      </trkpt>
      <trkpt lat="47.69197" lon="-3.23615">
        <ele>14.6</ele>
        <time>2021-08-14T14:48:13Z</time>
      </trkpt>
      <trkpt lat="47.69194" lon="-3.23607">
        <ele>14.6</ele>
        <time>2021-08-14T14:48:14Z</time>
      </trkpt>
      <trkpt lat="47.69191" lon="-3.23598">
        <ele>14.6</ele>
        <time>2021-08-14T14:48:15Z</time>
      </trkpt>
      <trkpt lat="47.69188" lon="-3.23589">
        <ele>14.6</ele>
        <time>2021-08-14T14:48:16Z</time>
      </trkpt>
      <trkpt lat="47.69185" lon="-3.2358">
        <ele>14.6</ele>
        <time>2021-08-14T14:48:17Z</time>
      </trkpt>
      <trkpt lat="47.69182" lon="-3.23572">
        <ele>14.6</ele>
        <time>2021-08-14T14:48:18Z</time>
      </trkpt>
      <trkpt lat="47.69179" lon="-3.23563">
        <ele>14.6</ele>
        <time>2021-08-14T14:48:19Z</time>
      </trkpt>
      <trkpt lat="47.69175" lon="-3.23555">
        <ele>14.4</ele>
        <time>2021-08-14T14:48:20Z</time>
      </trkpt>
      <trkpt lat="47.69173" lon="-3.23547">
        <ele>14.4</ele>
        <time>2021-08-14T14:48:21Z</time>
      </trkpt>
      <trkpt lat="47.6917" lon="-3.23539">
        <ele>14.4</ele>
        <time>2021-08-14T14:48:22Z</time>
      </trkpt>
      <trkpt lat="47.69167" lon="-3.23531">
        <ele>14.4</ele>
        <time>2021-08-14T14:48:23Z</time>
      </trkpt>
      <trkpt lat="47.69164" lon="-3.23523">
        <ele>14.4</ele>
        <time>2021-08-14T14:48:24Z</time>
      </trkpt>
      <trkpt lat="47.69161" lon="-3.23515">
        <ele>14.2</ele>
        <time>2021-08-14T14:48:25Z</time>
      </trkpt>
      <trkpt lat="47.69158" lon="-3.23507">
        <ele>14.2</ele>
        <time>2021-08-14T14:48:26Z</time>
      </trkpt>
      <trkpt lat="47.69155" lon="-3.235">
        <ele>14.2</ele>
        <time>2021-08-14T14:48:27Z</time>
      </trkpt>
      <trkpt lat="47.69153" lon="-3.23493">
        <ele>14.2</ele>
        <time>2021-08-14T14:48:28Z</time>
      </trkpt>
      <trkpt lat="47.6915" lon="-3.23486">
        <ele>14.2</ele>
        <time>2021-08-14T14:48:29Z</time>
      </trkpt>
      <trkpt lat="47.69148" lon="-3.23479">
        <ele>14.2</ele>
        <time>2021-08-14T14:48:30Z</time>
      </trkpt>
      <trkpt lat="47.69145" lon="-3.23473">
        <ele>14.2</ele>
        <time>2021-08-14T14:48:31Z</time>
      </trkpt>
      <trkpt lat="47.69143" lon="-3.23467">
        <ele>14.2</ele>
        <time>2021-08-14T14:48:32Z</time>
      </trkpt>
      <trkpt lat="47.69141" lon="-3.23461">
        <ele>14.2</ele>
        <time>2021-08-14T14:48:33Z</time>
      </trkpt>
      <trkpt lat="47.69139" lon="-3.23456">
        <ele>14.2</ele>
        <time>2021-08-14T14:48:34Z</time>
      </trkpt>
      <trkpt lat="47.69137" lon="-3.2345">
        <ele>14.2</ele>
        <time>2021-08-14T14:48:35Z</time>
      </trkpt>
      <trkpt lat="47.69134" lon="-3.23444">
        <ele>14.2</ele>
        <time>2021-08-14T14:48:36Z</time>
      </trkpt>
      <trkpt lat="47.69132" lon="-3.23438">
        <ele>14.2</ele>
        <time>2021-08-14T14:48:37Z</time>
      </trkpt>
      <trkpt lat="47.6913" lon="-3.23432">
        <ele>14.2</ele>
        <time>2021-08-14T14:48:38Z</time>
      </trkpt>
      <trkpt lat="47.69127" lon="-3.23425">
        <ele>14.2</ele>
        <time>2021-08-14T14:48:39Z</time>
      </trkpt>
      <trkpt lat="47.69124" lon="-3.23418">
        <ele>14.2</ele>
        <time>2021-08-14T14:48:40Z</time>
      </trkpt>
      <trkpt lat="47.69122" lon="-3.23411">
        <ele>14.2</ele>
        <time>2021-08-14T14:48:41Z</time>
      </trkpt>
      <trkpt lat="47.69119" lon="-3.23404">
        <ele>14.2</ele>
        <time>2021-08-14T14:48:42Z</time>
      </trkpt>
      <trkpt lat="47.69116" lon="-3.23397">
        <ele>14.2</ele>
        <time>2021-08-14T14:48:43Z</time>
      </trkpt>
      <trkpt lat="47.69114" lon="-3.23389">
        <ele>14.2</ele>
        <time>2021-08-14T14:48:44Z</time>
      </trkpt>
      <trkpt lat="47.69111" lon="-3.23382">
        <ele>14.2</ele>
        <time>2021-08-14T14:48:45Z</time>
      </trkpt>
      <trkpt lat="47.69108" lon="-3.23374">
        <ele>14.2</ele>
        <time>2021-08-14T14:48:46Z</time>
      </trkpt>
      <trkpt lat="47.69105" lon="-3.23366">
        <ele>14</ele>
        <time>2021-08-14T14:48:47Z</time>
      </trkpt>
      <trkpt lat="47.69102" lon="-3.23359">
        <ele>14</ele>
        <time>2021-08-14T14:48:48Z</time>
      </trkpt>
      <trkpt lat="47.69099" lon="-3.23351">
        <ele>14</ele>
        <time>2021-08-14T14:48:49Z</time>
      </trkpt>
      <trkpt lat="47.69096" lon="-3.23343">
        <ele>14</ele>
        <time>2021-08-14T14:48:50Z</time>
      </trkpt>
      <trkpt lat="47.69093" lon="-3.23335">
        <ele>14</ele>
        <time>2021-08-14T14:48:51Z</time>
      </trkpt>
      <trkpt lat="47.6909" lon="-3.23327">
        <ele>13.8</ele>
        <time>2021-08-14T14:48:52Z</time>
      </trkpt>
      <trkpt lat="47.69087" lon="-3.23319">
        <ele>13.8</ele>
        <time>2021-08-14T14:48:53Z</time>
      </trkpt>
      <trkpt lat="47.69085" lon="-3.23311">
        <ele>13.8</ele>
        <time>2021-08-14T14:48:54Z</time>
      </trkpt>
      <trkpt lat="47.69082" lon="-3.23303">
        <ele>13.8</ele>
        <time>2021-08-14T14:48:55Z</time>
      </trkpt>
      <trkpt lat="47.69079" lon="-3.23295">
        <ele>13.6</ele>
        <time>2021-08-14T14:48:56Z</time>
      </trkpt>
      <trkpt lat="47.69076" lon="-3.23286">
        <ele>13.6</ele>
        <time>2021-08-14T14:48:57Z</time>
      </trkpt>
      <trkpt lat="47.69073" lon="-3.23278">
        <ele>13.6</ele>
        <time>2021-08-14T14:48:58Z</time>
      </trkpt>
      <trkpt lat="47.6907" lon="-3.2327">
        <ele>13.6</ele>
        <time>2021-08-14T14:48:59Z</time>
      </trkpt>
      <trkpt lat="47.69067" lon="-3.23262">
        <ele>13.6</ele>
        <time>2021-08-14T14:49:00Z</time>
      </trkpt>
      <trkpt lat="47.69064" lon="-3.23254">
        <ele>13.6</ele>
        <time>2021-08-14T14:49:01Z</time>
      </trkpt>
      <trkpt lat="47.69062" lon="-3.23246">
        <ele>13.6</ele>
        <time>2021-08-14T14:49:02Z</time>
      </trkpt>
      <trkpt lat="47.69059" lon="-3.23239">
        <ele>13.4</ele>
        <time>2021-08-14T14:49:03Z</time>
      </trkpt>
      <trkpt lat="47.69056" lon="-3.23231">
        <ele>13.4</ele>
        <time>2021-08-14T14:49:04Z</time>
      </trkpt>
      <trkpt lat="47.69053" lon="-3.23223">
        <ele>13.4</ele>
        <time>2021-08-14T14:49:05Z</time>
      </trkpt>
      <trkpt lat="47.6905" lon="-3.23214">
        <ele>13.4</ele>
        <time>2021-08-14T14:49:06Z</time>
      </trkpt>
      <trkpt lat="47.69047" lon="-3.23206">
        <ele>13.4</ele>
        <time>2021-08-14T14:49:07Z</time>
      </trkpt>
      <trkpt lat="47.69044" lon="-3.23198">
        <ele>13.4</ele>
        <time>2021-08-14T14:49:08Z</time>
      </trkpt>
      <trkpt lat="47.69041" lon="-3.2319">
        <ele>13.4</ele>
        <time>2021-08-14T14:49:09Z</time>
      </trkpt>
      <trkpt lat="47.69038" lon="-3.23182">
        <ele>13.4</ele>
        <time>2021-08-14T14:49:10Z</time>
      </trkpt>
      <trkpt lat="47.69035" lon="-3.23174">
        <ele>13.4</ele>
        <time>2021-08-14T14:49:11Z</time>
      </trkpt>
      <trkpt lat="47.69032" lon="-3.23167">
        <ele>13.4</ele>
        <time>2021-08-14T14:49:12Z</time>
      </trkpt>
      <trkpt lat="47.6903" lon="-3.23159">
        <ele>13.4</ele>
        <time>2021-08-14T14:49:13Z</time>
      </trkpt>
      <trkpt lat="47.69027" lon="-3.23151">
        <ele>13.4</ele>
        <time>2021-08-14T14:49:14Z</time>
      </trkpt>
      <trkpt lat="47.69024" lon="-3.23143">
        <ele>13.4</ele>
        <time>2021-08-14T14:49:15Z</time>
      </trkpt>
      <trkpt lat="47.69021" lon="-3.23136">
        <ele>13.4</ele>
        <time>2021-08-14T14:49:16Z</time>
      </trkpt>
      <trkpt lat="47.69018" lon="-3.23128">
        <ele>13.4</ele>
        <time>2021-08-14T14:49:17Z</time>
      </trkpt>
      <trkpt lat="47.69016" lon="-3.2312">
        <ele>13.4</ele>
        <time>2021-08-14T14:49:18Z</time>
      </trkpt>
      <trkpt lat="47.69013" lon="-3.23112">
        <ele>13.2</ele>
        <time>2021-08-14T14:49:19Z</time>
      </trkpt>
      <trkpt lat="47.6901" lon="-3.23104">
        <ele>13.2</ele>
        <time>2021-08-14T14:49:20Z</time>
      </trkpt>
      <trkpt lat="47.69007" lon="-3.23096">
        <ele>13.2</ele>
        <time>2021-08-14T14:49:21Z</time>
      </trkpt>
      <trkpt lat="47.69004" lon="-3.23087">
        <ele>13.2</ele>
        <time>2021-08-14T14:49:22Z</time>
      </trkpt>
      <trkpt lat="47.69001" lon="-3.23079">
        <ele>13.2</ele>
        <time>2021-08-14T14:49:23Z</time>
      </trkpt>
      <trkpt lat="47.68998" lon="-3.23071">
        <ele>13</ele>
        <time>2021-08-14T14:49:24Z</time>
      </trkpt>
      <trkpt lat="47.68995" lon="-3.23063">
        <ele>13</ele>
        <time>2021-08-14T14:49:25Z</time>
      </trkpt>
      <trkpt lat="47.68992" lon="-3.23055">
        <ele>13</ele>
        <time>2021-08-14T14:49:26Z</time>
      </trkpt>
      <trkpt lat="47.68989" lon="-3.23048">
        <ele>13</ele>
        <time>2021-08-14T14:49:27Z</time>
      </trkpt>
      <trkpt lat="47.68986" lon="-3.2304">
        <ele>12.8</ele>
        <time>2021-08-14T14:49:28Z</time>
      </trkpt>
      <trkpt lat="47.68984" lon="-3.23034">
        <ele>12.8</ele>
        <time>2021-08-14T14:49:29Z</time>
      </trkpt>
      <trkpt lat="47.68981" lon="-3.23027">
        <ele>12.8</ele>
        <time>2021-08-14T14:49:30Z</time>
      </trkpt>
      <trkpt lat="47.68979" lon="-3.2302">
        <ele>12.6</ele>
        <time>2021-08-14T14:49:31Z</time>
      </trkpt>
      <trkpt lat="47.68976" lon="-3.23013">
        <ele>12.6</ele>
        <time>2021-08-14T14:49:32Z</time>
      </trkpt>
      <trkpt lat="47.68973" lon="-3.23006">
        <ele>12.6</ele>
        <time>2021-08-14T14:49:33Z</time>
      </trkpt>
      <trkpt lat="47.6897" lon="-3.22999">
        <ele>12.6</ele>
        <time>2021-08-14T14:49:34Z</time>
      </trkpt>
      <trkpt lat="47.68967" lon="-3.22991">
        <ele>12.4</ele>
        <time>2021-08-14T14:49:35Z</time>
      </trkpt>
      <trkpt lat="47.68965" lon="-3.22984">
        <ele>12.4</ele>
        <time>2021-08-14T14:49:36Z</time>
      </trkpt>
      <trkpt lat="47.68962" lon="-3.22976">
        <ele>12.4</ele>
        <time>2021-08-14T14:49:37Z</time>
      </trkpt>
      <trkpt lat="47.68959" lon="-3.22969">
        <ele>12.4</ele>
        <time>2021-08-14T14:49:38Z</time>
      </trkpt>
      <trkpt lat="47.68957" lon="-3.22962">
        <ele>12.4</ele>
        <time>2021-08-14T14:49:39Z</time>
      </trkpt>
      <trkpt lat="47.68954" lon="-3.22955">
        <ele>12.4</ele>
        <time>2021-08-14T14:49:40Z</time>
      </trkpt>
      <trkpt lat="47.68952" lon="-3.22948">
        <ele>12.4</ele>
        <time>2021-08-14T14:49:41Z</time>
      </trkpt>
      <trkpt lat="47.68949" lon="-3.22941">
        <ele>12.4</ele>
        <time>2021-08-14T14:49:42Z</time>
      </trkpt>
      <trkpt lat="47.68947" lon="-3.22934">
        <ele>12.4</ele>
        <time>2021-08-14T14:49:43Z</time>
      </trkpt>
      <trkpt lat="47.68944" lon="-3.22927">
        <ele>12.4</ele>
        <time>2021-08-14T14:49:44Z</time>
      </trkpt>
      <trkpt lat="47.68942" lon="-3.22921">
        <ele>12.4</ele>
        <time>2021-08-14T14:49:45Z</time>
      </trkpt>
      <trkpt lat="47.68939" lon="-3.22914">
        <ele>12.4</ele>
        <time>2021-08-14T14:49:46Z</time>
      </trkpt>
      <trkpt lat="47.68937" lon="-3.22908">
        <ele>12.6</ele>
        <time>2021-08-14T14:49:47Z</time>
      </trkpt>
      <trkpt lat="47.68935" lon="-3.22901">
        <ele>12.6</ele>
        <time>2021-08-14T14:49:48Z</time>
      </trkpt>
      <trkpt lat="47.68933" lon="-3.22895">
        <ele>12.6</ele>
        <time>2021-08-14T14:49:49Z</time>
      </trkpt>
      <trkpt lat="47.68931" lon="-3.22889">
        <ele>12.6</ele>
        <time>2021-08-14T14:49:50Z</time>
      </trkpt>
      <trkpt lat="47.68929" lon="-3.22883">
        <ele>12.6</ele>
        <time>2021-08-14T14:49:51Z</time>
      </trkpt>
      <trkpt lat="47.68926" lon="-3.22877">
        <ele>12.6</ele>
        <time>2021-08-14T14:49:52Z</time>
      </trkpt>
      <trkpt lat="47.68924" lon="-3.22871">
        <ele>12.6</ele>
        <time>2021-08-14T14:49:53Z</time>
      </trkpt>
      <trkpt lat="47.68922" lon="-3.22865">
        <ele>12.6</ele>
        <time>2021-08-14T14:49:54Z</time>
      </trkpt>
      <trkpt lat="47.68919" lon="-3.22859">
        <ele>12.8</ele>
        <time>2021-08-14T14:49:55Z</time>
      </trkpt>
      <trkpt lat="47.68917" lon="-3.22852">
        <ele>12.8</ele>
        <time>2021-08-14T14:49:56Z</time>
      </trkpt>
      <trkpt lat="47.68914" lon="-3.22846">
        <ele>12.8</ele>
        <time>2021-08-14T14:49:57Z</time>
      </trkpt>
      <trkpt lat="47.68912" lon="-3.22839">
        <ele>12.8</ele>
        <time>2021-08-14T14:49:58Z</time>
      </trkpt>
      <trkpt lat="47.68909" lon="-3.22832">
        <ele>12.8</ele>
        <time>2021-08-14T14:49:59Z</time>
      </trkpt>
      <trkpt lat="47.68907" lon="-3.22825">
        <ele>12.8</ele>
        <time>2021-08-14T14:50:00Z</time>
      </trkpt>
      <trkpt lat="47.68904" lon="-3.22818">
        <ele>12.8</ele>
        <time>2021-08-14T14:50:01Z</time>
      </trkpt>
      <trkpt lat="47.68901" lon="-3.2281">
        <ele>12.8</ele>
        <time>2021-08-14T14:50:02Z</time>
      </trkpt>
      <trkpt lat="47.68899" lon="-3.22803">
        <ele>13</ele>
        <time>2021-08-14T14:50:03Z</time>
      </trkpt>
      <trkpt lat="47.68896" lon="-3.22797">
        <ele>13</ele>
        <time>2021-08-14T14:50:04Z</time>
      </trkpt>
      <trkpt lat="47.68894" lon="-3.22792">
        <ele>13</ele>
        <time>2021-08-14T14:50:05Z</time>
      </trkpt>
      <trkpt lat="47.68892" lon="-3.22786">
        <ele>13</ele>
        <time>2021-08-14T14:50:06Z</time>
      </trkpt>
      <trkpt lat="47.6889" lon="-3.22781">
        <ele>13</ele>
        <time>2021-08-14T14:50:07Z</time>
      </trkpt>
      <trkpt lat="47.68888" lon="-3.22775">
        <ele>13</ele>
        <time>2021-08-14T14:50:08Z</time>
      </trkpt>
      <trkpt lat="47.68886" lon="-3.22769">
        <ele>13</ele>
        <time>2021-08-14T14:50:09Z</time>
      </trkpt>
      <trkpt lat="47.68884" lon="-3.22764">
        <ele>13</ele>
        <time>2021-08-14T14:50:10Z</time>
      </trkpt>
      <trkpt lat="47.68882" lon="-3.22757">
        <ele>13.2</ele>
        <time>2021-08-14T14:50:11Z</time>
      </trkpt>
      <trkpt lat="47.6888" lon="-3.2275">
        <ele>13.4</ele>
        <time>2021-08-14T14:50:12Z</time>
      </trkpt>
      <trkpt lat="47.68878" lon="-3.22744">
        <ele>13.6</ele>
        <time>2021-08-14T14:50:13Z</time>
      </trkpt>
      <trkpt lat="47.68875" lon="-3.22737">
        <ele>13.6</ele>
        <time>2021-08-14T14:50:14Z</time>
      </trkpt>
      <trkpt lat="47.68873" lon="-3.2273">
        <ele>13.6</ele>
        <time>2021-08-14T14:50:15Z</time>
      </trkpt>
      <trkpt lat="47.6887" lon="-3.22723">
        <ele>13.8</ele>
        <time>2021-08-14T14:50:16Z</time>
      </trkpt>
      <trkpt lat="47.68868" lon="-3.22716">
        <ele>13.8</ele>
        <time>2021-08-14T14:50:17Z</time>
      </trkpt>
      <trkpt lat="47.68865" lon="-3.22709">
        <ele>13.8</ele>
        <time>2021-08-14T14:50:18Z</time>
      </trkpt>
      <trkpt lat="47.68862" lon="-3.22702">
        <ele>13.8</ele>
        <time>2021-08-14T14:50:19Z</time>
      </trkpt>
      <trkpt lat="47.68859" lon="-3.22696">
        <ele>13.8</ele>
        <time>2021-08-14T14:50:20Z</time>
      </trkpt>
      <trkpt lat="47.68856" lon="-3.2269">
        <ele>13.8</ele>
        <time>2021-08-14T14:50:21Z</time>
      </trkpt>
      <trkpt lat="47.68854" lon="-3.22683">
        <ele>13.8</ele>
        <time>2021-08-14T14:50:22Z</time>
      </trkpt>
      <trkpt lat="47.68852" lon="-3.22678">
        <ele>13.8</ele>
        <time>2021-08-14T14:50:23Z</time>
      </trkpt>
      <trkpt lat="47.6885" lon="-3.22671">
        <ele>13.8</ele>
        <time>2021-08-14T14:50:24Z</time>
      </trkpt>
      <trkpt lat="47.68847" lon="-3.22666">
        <ele>13.8</ele>
        <time>2021-08-14T14:50:25Z</time>
      </trkpt>
      <trkpt lat="47.68845" lon="-3.2266">
        <ele>13.8</ele>
        <time>2021-08-14T14:50:26Z</time>
      </trkpt>
      <trkpt lat="47.68843" lon="-3.22654">
        <ele>13.8</ele>
        <time>2021-08-14T14:50:27Z</time>
      </trkpt>
      <trkpt lat="47.6884" lon="-3.22648">
        <ele>13.8</ele>
        <time>2021-08-14T14:50:28Z</time>
      </trkpt>
      <trkpt lat="47.68838" lon="-3.22642">
        <ele>13.8</ele>
        <time>2021-08-14T14:50:29Z</time>
      </trkpt>
      <trkpt lat="47.68836" lon="-3.22636">
        <ele>13.8</ele>
        <time>2021-08-14T14:50:30Z</time>
      </trkpt>
      <trkpt lat="47.68833" lon="-3.2263">
        <ele>13.8</ele>
        <time>2021-08-14T14:50:31Z</time>
      </trkpt>
      <trkpt lat="47.68831" lon="-3.22624">
        <ele>14</ele>
        <time>2021-08-14T14:50:32Z</time>
      </trkpt>
      <trkpt lat="47.68829" lon="-3.22617">
        <ele>14</ele>
        <time>2021-08-14T14:50:33Z</time>
      </trkpt>
      <trkpt lat="47.68827" lon="-3.22609">
        <ele>14</ele>
        <time>2021-08-14T14:50:34Z</time>
      </trkpt>
      <trkpt lat="47.68825" lon="-3.22602">
        <ele>14</ele>
        <time>2021-08-14T14:50:35Z</time>
      </trkpt>
      <trkpt lat="47.68822" lon="-3.22594">
        <ele>14</ele>
        <time>2021-08-14T14:50:36Z</time>
      </trkpt>
      <trkpt lat="47.6882" lon="-3.22587">
        <ele>14</ele>
        <time>2021-08-14T14:50:37Z</time>
      </trkpt>
      <trkpt lat="47.68818" lon="-3.2258">
        <ele>14</ele>
        <time>2021-08-14T14:50:38Z</time>
      </trkpt>
      <trkpt lat="47.68815" lon="-3.22573">
        <ele>14</ele>
        <time>2021-08-14T14:50:39Z</time>
      </trkpt>
      <trkpt lat="47.68812" lon="-3.22565">
        <ele>14</ele>
        <time>2021-08-14T14:50:40Z</time>
      </trkpt>
      <trkpt lat="47.6881" lon="-3.22558">
        <ele>14</ele>
        <time>2021-08-14T14:50:41Z</time>
      </trkpt>
      <trkpt lat="47.68807" lon="-3.22552">
        <ele>14</ele>
        <time>2021-08-14T14:50:42Z</time>
      </trkpt>
      <trkpt lat="47.68805" lon="-3.22545">
        <ele>14</ele>
        <time>2021-08-14T14:50:43Z</time>
      </trkpt>
      <trkpt lat="47.68803" lon="-3.22539">
        <ele>14</ele>
        <time>2021-08-14T14:50:44Z</time>
      </trkpt>
      <trkpt lat="47.688" lon="-3.22534">
        <ele>14.2</ele>
        <time>2021-08-14T14:50:45Z</time>
      </trkpt>
      <trkpt lat="47.68798" lon="-3.22528">
        <ele>14.2</ele>
        <time>2021-08-14T14:50:46Z</time>
      </trkpt>
      <trkpt lat="47.68796" lon="-3.22523">
        <ele>14.2</ele>
        <time>2021-08-14T14:50:47Z</time>
      </trkpt>
      <trkpt lat="47.68794" lon="-3.22517">
        <ele>14.2</ele>
        <time>2021-08-14T14:50:48Z</time>
      </trkpt>
      <trkpt lat="47.68792" lon="-3.22511">
        <ele>14.2</ele>
        <time>2021-08-14T14:50:49Z</time>
      </trkpt>
      <trkpt lat="47.68789" lon="-3.22505">
        <ele>14.2</ele>
        <time>2021-08-14T14:50:50Z</time>
      </trkpt>
      <trkpt lat="47.68787" lon="-3.22499">
        <ele>14.2</ele>
        <time>2021-08-14T14:50:51Z</time>
      </trkpt>
      <trkpt lat="47.68785" lon="-3.22493">
        <ele>14.2</ele>
        <time>2021-08-14T14:50:52Z</time>
      </trkpt>
      <trkpt lat="47.68782" lon="-3.22487">
        <ele>14.2</ele>
        <time>2021-08-14T14:50:53Z</time>
      </trkpt>
      <trkpt lat="47.6878" lon="-3.22481">
        <ele>14.2</ele>
        <time>2021-08-14T14:50:54Z</time>
      </trkpt>
      <trkpt lat="47.68777" lon="-3.22474">
        <ele>14.2</ele>
        <time>2021-08-14T14:50:55Z</time>
      </trkpt>
      <trkpt lat="47.68774" lon="-3.22467">
        <ele>14.2</ele>
        <time>2021-08-14T14:50:56Z</time>
      </trkpt>
      <trkpt lat="47.68772" lon="-3.2246">
        <ele>14.2</ele>
        <time>2021-08-14T14:50:57Z</time>
      </trkpt>
      <trkpt lat="47.68769" lon="-3.22453">
        <ele>14.2</ele>
        <time>2021-08-14T14:50:58Z</time>
      </trkpt>
      <trkpt lat="47.68766" lon="-3.22445">
        <ele>14.2</ele>
        <time>2021-08-14T14:50:59Z</time>
      </trkpt>
      <trkpt lat="47.68763" lon="-3.22438">
        <ele>14.2</ele>
        <time>2021-08-14T14:51:00Z</time>
      </trkpt>
      <trkpt lat="47.6876" lon="-3.22431">
        <ele>14.2</ele>
        <time>2021-08-14T14:51:01Z</time>
      </trkpt>
      <trkpt lat="47.68757" lon="-3.22423">
        <ele>14.2</ele>
        <time>2021-08-14T14:51:02Z</time>
      </trkpt>
      <trkpt lat="47.68755" lon="-3.22416">
        <ele>14.2</ele>
        <time>2021-08-14T14:51:03Z</time>
      </trkpt>
      <trkpt lat="47.68752" lon="-3.22409">
        <ele>14.2</ele>
        <time>2021-08-14T14:51:04Z</time>
      </trkpt>
      <trkpt lat="47.6875" lon="-3.22401">
        <ele>14.2</ele>
        <time>2021-08-14T14:51:05Z</time>
      </trkpt>
      <trkpt lat="47.68747" lon="-3.22394">
        <ele>14.2</ele>
        <time>2021-08-14T14:51:06Z</time>
      </trkpt>
      <trkpt lat="47.68744" lon="-3.22386">
        <ele>14.2</ele>
        <time>2021-08-14T14:51:07Z</time>
      </trkpt>
      <trkpt lat="47.68742" lon="-3.22379">
        <ele>14.2</ele>
        <time>2021-08-14T14:51:08Z</time>
      </trkpt>
      <trkpt lat="47.6874" lon="-3.22372">
        <ele>14.2</ele>
        <time>2021-08-14T14:51:09Z</time>
      </trkpt>
      <trkpt lat="47.68738" lon="-3.22366">
        <ele>14.2</ele>
        <time>2021-08-14T14:51:10Z</time>
      </trkpt>
      <trkpt lat="47.68735" lon="-3.2236">
        <ele>14.2</ele>
        <time>2021-08-14T14:51:11Z</time>
      </trkpt>
      <trkpt lat="47.68733" lon="-3.22354">
        <ele>14.2</ele>
        <time>2021-08-14T14:51:12Z</time>
      </trkpt>
      <trkpt lat="47.6873" lon="-3.22348">
        <ele>14.2</ele>
        <time>2021-08-14T14:51:13Z</time>
      </trkpt>
      <trkpt lat="47.68728" lon="-3.22341">
        <ele>14.2</ele>
        <time>2021-08-14T14:51:14Z</time>
      </trkpt>
      <trkpt lat="47.68725" lon="-3.22335">
        <ele>14.2</ele>
        <time>2021-08-14T14:51:15Z</time>
      </trkpt>
      <trkpt lat="47.68723" lon="-3.22329">
        <ele>14.4</ele>
        <time>2021-08-14T14:51:16Z</time>
      </trkpt>
      <trkpt lat="47.6872" lon="-3.22323">
        <ele>14.4</ele>
        <time>2021-08-14T14:51:17Z</time>
      </trkpt>
      <trkpt lat="47.68718" lon="-3.22317">
        <ele>14.4</ele>
        <time>2021-08-14T14:51:18Z</time>
      </trkpt>
      <trkpt lat="47.68715" lon="-3.22311">
        <ele>14.6</ele>
        <time>2021-08-14T14:51:19Z</time>
      </trkpt>
      <trkpt lat="47.68713" lon="-3.22304">
        <ele>14.6</ele>
        <time>2021-08-14T14:51:20Z</time>
      </trkpt>
      <trkpt lat="47.68711" lon="-3.22298">
        <ele>14.6</ele>
        <time>2021-08-14T14:51:21Z</time>
      </trkpt>
      <trkpt lat="47.68709" lon="-3.22291">
        <ele>14.8</ele>
        <time>2021-08-14T14:51:22Z</time>
      </trkpt>
      <trkpt lat="47.68707" lon="-3.22284">
        <ele>14.8</ele>
        <time>2021-08-14T14:51:23Z</time>
      </trkpt>
      <trkpt lat="47.68704" lon="-3.22277">
        <ele>14.8</ele>
        <time>2021-08-14T14:51:24Z</time>
      </trkpt>
      <trkpt lat="47.68702" lon="-3.22269">
        <ele>15</ele>
        <time>2021-08-14T14:51:25Z</time>
      </trkpt>
      <trkpt lat="47.68699" lon="-3.22262">
        <ele>15</ele>
        <time>2021-08-14T14:51:26Z</time>
      </trkpt>
      <trkpt lat="47.68697" lon="-3.22255">
        <ele>15</ele>
        <time>2021-08-14T14:51:27Z</time>
      </trkpt>
      <trkpt lat="47.68695" lon="-3.22248">
        <ele>15</ele>
        <time>2021-08-14T14:51:28Z</time>
      </trkpt>
      <trkpt lat="47.68692" lon="-3.22242">
        <ele>15</ele>
        <time>2021-08-14T14:51:29Z</time>
      </trkpt>
      <trkpt lat="47.68689" lon="-3.22235">
        <ele>15.2</ele>
        <time>2021-08-14T14:51:30Z</time>
      </trkpt>
      <trkpt lat="47.68687" lon="-3.22228">
        <ele>15.2</ele>
        <time>2021-08-14T14:51:31Z</time>
      </trkpt>
      <trkpt lat="47.68684" lon="-3.22221">
        <ele>15.2</ele>
        <time>2021-08-14T14:51:32Z</time>
      </trkpt>
      <trkpt lat="47.68681" lon="-3.22215">
        <ele>15.2</ele>
        <time>2021-08-14T14:51:33Z</time>
      </trkpt>
      <trkpt lat="47.68678" lon="-3.22208">
        <ele>15.2</ele>
        <time>2021-08-14T14:51:34Z</time>
      </trkpt>
      <trkpt lat="47.68676" lon="-3.22201">
        <ele>15.2</ele>
        <time>2021-08-14T14:51:35Z</time>
      </trkpt>
      <trkpt lat="47.68673" lon="-3.22195">
        <ele>15.4</ele>
        <time>2021-08-14T14:51:36Z</time>
      </trkpt>
      <trkpt lat="47.68671" lon="-3.22188">
        <ele>15.4</ele>
        <time>2021-08-14T14:51:37Z</time>
      </trkpt>
      <trkpt lat="47.68669" lon="-3.22183">
        <ele>15.4</ele>
        <time>2021-08-14T14:51:38Z</time>
      </trkpt>
      <trkpt lat="47.68667" lon="-3.22177">
        <ele>15.4</ele>
        <time>2021-08-14T14:51:39Z</time>
      </trkpt>
      <trkpt lat="47.68664" lon="-3.22172">
        <ele>15.4</ele>
        <time>2021-08-14T14:51:40Z</time>
      </trkpt>
      <trkpt lat="47.68662" lon="-3.22166">
        <ele>15.6</ele>
        <time>2021-08-14T14:51:41Z</time>
      </trkpt>
      <trkpt lat="47.6866" lon="-3.2216">
        <ele>15.6</ele>
        <time>2021-08-14T14:51:42Z</time>
      </trkpt>
      <trkpt lat="47.68658" lon="-3.22153">
        <ele>15.6</ele>
        <time>2021-08-14T14:51:43Z</time>
      </trkpt>
      <trkpt lat="47.68655" lon="-3.22147">
        <ele>15.6</ele>
        <time>2021-08-14T14:51:44Z</time>
      </trkpt>
      <trkpt lat="47.68652" lon="-3.22141">
        <ele>15.6</ele>
        <time>2021-08-14T14:51:45Z</time>
      </trkpt>
      <trkpt lat="47.6865" lon="-3.22136">
        <ele>15.8</ele>
        <time>2021-08-14T14:51:46Z</time>
      </trkpt>
      <trkpt lat="47.68647" lon="-3.2213">
        <ele>15.8</ele>
        <time>2021-08-14T14:51:47Z</time>
      </trkpt>
      <trkpt lat="47.68645" lon="-3.22124">
        <ele>15.8</ele>
        <time>2021-08-14T14:51:48Z</time>
      </trkpt>
      <trkpt lat="47.68642" lon="-3.22119">
        <ele>15.8</ele>
        <time>2021-08-14T14:51:49Z</time>
      </trkpt>
      <trkpt lat="47.6864" lon="-3.22113">
        <ele>15.8</ele>
        <time>2021-08-14T14:51:50Z</time>
      </trkpt>
      <trkpt lat="47.68638" lon="-3.22107">
        <ele>15.8</ele>
        <time>2021-08-14T14:51:51Z</time>
      </trkpt>
      <trkpt lat="47.68636" lon="-3.22101">
        <ele>15.8</ele>
        <time>2021-08-14T14:51:52Z</time>
      </trkpt>
      <trkpt lat="47.68634" lon="-3.22095">
        <ele>16</ele>
        <time>2021-08-14T14:51:53Z</time>
      </trkpt>
      <trkpt lat="47.68632" lon="-3.22089">
        <ele>16</ele>
        <time>2021-08-14T14:51:54Z</time>
      </trkpt>
      <trkpt lat="47.6863" lon="-3.22084">
        <ele>16</ele>
        <time>2021-08-14T14:51:55Z</time>
      </trkpt>
      <trkpt lat="47.68628" lon="-3.22079">
        <ele>16</ele>
        <time>2021-08-14T14:51:56Z</time>
      </trkpt>
      <trkpt lat="47.68626" lon="-3.22074">
        <ele>16</ele>
        <time>2021-08-14T14:51:57Z</time>
      </trkpt>
      <trkpt lat="47.68623" lon="-3.22068">
        <ele>16</ele>
        <time>2021-08-14T14:51:58Z</time>
      </trkpt>
      <trkpt lat="47.68621" lon="-3.22062">
        <ele>16</ele>
        <time>2021-08-14T14:51:59Z</time>
      </trkpt>
      <trkpt lat="47.68619" lon="-3.22056">
        <ele>16</ele>
        <time>2021-08-14T14:52:00Z</time>
      </trkpt>
      <trkpt lat="47.68617" lon="-3.2205">
        <ele>16.2</ele>
        <time>2021-08-14T14:52:01Z</time>
      </trkpt>
      <trkpt lat="47.68615" lon="-3.22043">
        <ele>16.2</ele>
        <time>2021-08-14T14:52:02Z</time>
      </trkpt>
      <trkpt lat="47.68612" lon="-3.22036">
        <ele>16.2</ele>
        <time>2021-08-14T14:52:03Z</time>
      </trkpt>
      <trkpt lat="47.68609" lon="-3.22029">
        <ele>16.4</ele>
        <time>2021-08-14T14:52:04Z</time>
      </trkpt>
      <trkpt lat="47.68606" lon="-3.22022">
        <ele>16.4</ele>
        <time>2021-08-14T14:52:05Z</time>
      </trkpt>
      <trkpt lat="47.68604" lon="-3.22015">
        <ele>16.6</ele>
        <time>2021-08-14T14:52:06Z</time>
      </trkpt>
      <trkpt lat="47.68601" lon="-3.22008">
        <ele>16.6</ele>
        <time>2021-08-14T14:52:07Z</time>
      </trkpt>
      <trkpt lat="47.68599" lon="-3.22002">
        <ele>16.6</ele>
        <time>2021-08-14T14:52:08Z</time>
      </trkpt>
      <trkpt lat="47.68597" lon="-3.21995">
        <ele>16.6</ele>
        <time>2021-08-14T14:52:09Z</time>
      </trkpt>
      <trkpt lat="47.68595" lon="-3.21987">
        <ele>16.8</ele>
        <time>2021-08-14T14:52:10Z</time>
      </trkpt>
      <trkpt lat="47.68592" lon="-3.2198">
        <ele>16.8</ele>
        <time>2021-08-14T14:52:11Z</time>
      </trkpt>
      <trkpt lat="47.6859" lon="-3.21973">
        <ele>16.8</ele>
        <time>2021-08-14T14:52:12Z</time>
      </trkpt>
      <trkpt lat="47.68587" lon="-3.21965">
        <ele>16.8</ele>
        <time>2021-08-14T14:52:13Z</time>
      </trkpt>
      <trkpt lat="47.68584" lon="-3.21958">
        <ele>16.8</ele>
        <time>2021-08-14T14:52:14Z</time>
      </trkpt>
      <trkpt lat="47.68582" lon="-3.21951">
        <ele>16.8</ele>
        <time>2021-08-14T14:52:15Z</time>
      </trkpt>
      <trkpt lat="47.68579" lon="-3.21944">
        <ele>16.6</ele>
        <time>2021-08-14T14:52:16Z</time>
      </trkpt>
      <trkpt lat="47.68576" lon="-3.21937">
        <ele>16.6</ele>
        <time>2021-08-14T14:52:17Z</time>
      </trkpt>
      <trkpt lat="47.68574" lon="-3.2193">
        <ele>16.6</ele>
        <time>2021-08-14T14:52:18Z</time>
      </trkpt>
      <trkpt lat="47.68571" lon="-3.21923">
        <ele>16.6</ele>
        <time>2021-08-14T14:52:19Z</time>
      </trkpt>
      <trkpt lat="47.68569" lon="-3.21917">
        <ele>16.6</ele>
        <time>2021-08-14T14:52:20Z</time>
      </trkpt>
      <trkpt lat="47.68567" lon="-3.21911">
        <ele>16.6</ele>
        <time>2021-08-14T14:52:21Z</time>
      </trkpt>
      <trkpt lat="47.68565" lon="-3.21905">
        <ele>16.8</ele>
        <time>2021-08-14T14:52:22Z</time>
      </trkpt>
      <trkpt lat="47.68563" lon="-3.21899">
        <ele>16.8</ele>
        <time>2021-08-14T14:52:23Z</time>
      </trkpt>
      <trkpt lat="47.68561" lon="-3.21893">
        <ele>16.8</ele>
        <time>2021-08-14T14:52:24Z</time>
      </trkpt>
      <trkpt lat="47.68559" lon="-3.21887">
        <ele>16.8</ele>
        <time>2021-08-14T14:52:25Z</time>
      </trkpt>
      <trkpt lat="47.68557" lon="-3.21881">
        <ele>17</ele>
        <time>2021-08-14T14:52:26Z</time>
      </trkpt>
      <trkpt lat="47.68555" lon="-3.21875">
        <ele>17</ele>
        <time>2021-08-14T14:52:27Z</time>
      </trkpt>
      <trkpt lat="47.68553" lon="-3.21869">
        <ele>17</ele>
        <time>2021-08-14T14:52:28Z</time>
      </trkpt>
      <trkpt lat="47.6855" lon="-3.21863">
        <ele>17.2</ele>
        <time>2021-08-14T14:52:29Z</time>
      </trkpt>
      <trkpt lat="47.68548" lon="-3.21856">
        <ele>17.2</ele>
        <time>2021-08-14T14:52:30Z</time>
      </trkpt>
      <trkpt lat="47.68546" lon="-3.2185">
        <ele>17.2</ele>
        <time>2021-08-14T14:52:31Z</time>
      </trkpt>
      <trkpt lat="47.68544" lon="-3.21843">
        <ele>17.4</ele>
        <time>2021-08-14T14:52:32Z</time>
      </trkpt>
      <trkpt lat="47.68542" lon="-3.21837">
        <ele>17.4</ele>
        <time>2021-08-14T14:52:33Z</time>
      </trkpt>
      <trkpt lat="47.6854" lon="-3.2183">
        <ele>17.4</ele>
        <time>2021-08-14T14:52:34Z</time>
      </trkpt>
      <trkpt lat="47.68537" lon="-3.21824">
        <ele>17.4</ele>
        <time>2021-08-14T14:52:35Z</time>
      </trkpt>
      <trkpt lat="47.68535" lon="-3.21816">
        <ele>17.4</ele>
        <time>2021-08-14T14:52:36Z</time>
      </trkpt>
      <trkpt lat="47.68532" lon="-3.21809">
        <ele>17.4</ele>
        <time>2021-08-14T14:52:37Z</time>
      </trkpt>
      <trkpt lat="47.6853" lon="-3.21802">
        <ele>17.4</ele>
        <time>2021-08-14T14:52:38Z</time>
      </trkpt>
      <trkpt lat="47.68527" lon="-3.21795">
        <ele>17.4</ele>
        <time>2021-08-14T14:52:39Z</time>
      </trkpt>
      <trkpt lat="47.68524" lon="-3.21788">
        <ele>17.4</ele>
        <time>2021-08-14T14:52:40Z</time>
      </trkpt>
      <trkpt lat="47.68522" lon="-3.2178">
        <ele>17.4</ele>
        <time>2021-08-14T14:52:41Z</time>
      </trkpt>
      <trkpt lat="47.68519" lon="-3.21773">
        <ele>17.4</ele>
        <time>2021-08-14T14:52:42Z</time>
      </trkpt>
      <trkpt lat="47.68517" lon="-3.21766">
        <ele>17.4</ele>
        <time>2021-08-14T14:52:43Z</time>
      </trkpt>
      <trkpt lat="47.68514" lon="-3.21759">
        <ele>17.4</ele>
        <time>2021-08-14T14:52:44Z</time>
      </trkpt>
      <trkpt lat="47.68511" lon="-3.21753">
        <ele>17.4</ele>
        <time>2021-08-14T14:52:45Z</time>
      </trkpt>
      <trkpt lat="47.68508" lon="-3.21746">
        <ele>17.4</ele>
        <time>2021-08-14T14:52:46Z</time>
      </trkpt>
      <trkpt lat="47.68506" lon="-3.21739">
        <ele>17.4</ele>
        <time>2021-08-14T14:52:47Z</time>
      </trkpt>
      <trkpt lat="47.68503" lon="-3.21732">
        <ele>17.6</ele>
        <time>2021-08-14T14:52:48Z</time>
      </trkpt>
      <trkpt lat="47.68501" lon="-3.21726">
        <ele>17.6</ele>
        <time>2021-08-14T14:52:49Z</time>
      </trkpt>
      <trkpt lat="47.68498" lon="-3.21719">
        <ele>17.6</ele>
        <time>2021-08-14T14:52:50Z</time>
      </trkpt>
      <trkpt lat="47.68496" lon="-3.21713">
        <ele>17.6</ele>
        <time>2021-08-14T14:52:51Z</time>
      </trkpt>
      <trkpt lat="47.68493" lon="-3.21706">
        <ele>17.8</ele>
        <time>2021-08-14T14:52:52Z</time>
      </trkpt>
      <trkpt lat="47.68491" lon="-3.21699">
        <ele>17.8</ele>
        <time>2021-08-14T14:52:53Z</time>
      </trkpt>
      <trkpt lat="47.68488" lon="-3.21693">
        <ele>17.8</ele>
        <time>2021-08-14T14:52:54Z</time>
      </trkpt>
      <trkpt lat="47.68486" lon="-3.21686">
        <ele>17.8</ele>
        <time>2021-08-14T14:52:55Z</time>
      </trkpt>
      <trkpt lat="47.68483" lon="-3.21679">
        <ele>18.2</ele>
        <time>2021-08-14T14:52:56Z</time>
      </trkpt>
      <trkpt lat="47.68481" lon="-3.21673">
        <ele>18.4</ele>
        <time>2021-08-14T14:52:57Z</time>
      </trkpt>
      <trkpt lat="47.68479" lon="-3.21666">
        <ele>18.6</ele>
        <time>2021-08-14T14:52:58Z</time>
      </trkpt>
      <trkpt lat="47.68476" lon="-3.21659">
        <ele>18.6</ele>
        <time>2021-08-14T14:52:59Z</time>
      </trkpt>
      <trkpt lat="47.68474" lon="-3.21652">
        <ele>18.6</ele>
        <time>2021-08-14T14:53:00Z</time>
      </trkpt>
      <trkpt lat="47.68471" lon="-3.21645">
        <ele>18.8</ele>
        <time>2021-08-14T14:53:01Z</time>
      </trkpt>
      <trkpt lat="47.68469" lon="-3.21638">
        <ele>18.8</ele>
        <time>2021-08-14T14:53:02Z</time>
      </trkpt>
      <trkpt lat="47.68467" lon="-3.21631">
        <ele>18.8</ele>
        <time>2021-08-14T14:53:03Z</time>
      </trkpt>
      <trkpt lat="47.68464" lon="-3.21625">
        <ele>19</ele>
        <time>2021-08-14T14:53:04Z</time>
      </trkpt>
      <trkpt lat="47.68462" lon="-3.21618">
        <ele>19</ele>
        <time>2021-08-14T14:53:05Z</time>
      </trkpt>
      <trkpt lat="47.68459" lon="-3.21611">
        <ele>19</ele>
        <time>2021-08-14T14:53:06Z</time>
      </trkpt>
      <trkpt lat="47.68456" lon="-3.21604">
        <ele>19</ele>
        <time>2021-08-14T14:53:07Z</time>
      </trkpt>
      <trkpt lat="47.68454" lon="-3.21597">
        <ele>19</ele>
        <time>2021-08-14T14:53:08Z</time>
      </trkpt>
      <trkpt lat="47.68451" lon="-3.21591">
        <ele>19.2</ele>
        <time>2021-08-14T14:53:09Z</time>
      </trkpt>
      <trkpt lat="47.68449" lon="-3.21584">
        <ele>19.2</ele>
        <time>2021-08-14T14:53:10Z</time>
      </trkpt>
      <trkpt lat="47.68447" lon="-3.21578">
        <ele>19.2</ele>
        <time>2021-08-14T14:53:11Z</time>
      </trkpt>
      <trkpt lat="47.68445" lon="-3.21572">
        <ele>19.2</ele>
        <time>2021-08-14T14:53:12Z</time>
      </trkpt>
      <trkpt lat="47.68443" lon="-3.21565">
        <ele>19.4</ele>
        <time>2021-08-14T14:53:13Z</time>
      </trkpt>
      <trkpt lat="47.68441" lon="-3.21559">
        <ele>19.4</ele>
        <time>2021-08-14T14:53:14Z</time>
      </trkpt>
      <trkpt lat="47.68439" lon="-3.21552">
        <ele>19.4</ele>
        <time>2021-08-14T14:53:15Z</time>
      </trkpt>
      <trkpt lat="47.68438" lon="-3.21544">
        <ele>19.6</ele>
        <time>2021-08-14T14:53:16Z</time>
      </trkpt>
      <trkpt lat="47.68437" lon="-3.21536">
        <ele>19.8</ele>
        <time>2021-08-14T14:53:17Z</time>
      </trkpt>
      <trkpt lat="47.68436" lon="-3.21529">
        <ele>19.8</ele>
        <time>2021-08-14T14:53:18Z</time>
      </trkpt>
      <trkpt lat="47.68435" lon="-3.21521">
        <ele>19.8</ele>
        <time>2021-08-14T14:53:19Z</time>
      </trkpt>
      <trkpt lat="47.68435" lon="-3.21514">
        <ele>20</ele>
        <time>2021-08-14T14:53:20Z</time>
      </trkpt>
      <trkpt lat="47.68434" lon="-3.21506">
        <ele>20</ele>
        <time>2021-08-14T14:53:21Z</time>
      </trkpt>
      <trkpt lat="47.68434" lon="-3.21499">
        <ele>20</ele>
        <time>2021-08-14T14:53:22Z</time>
      </trkpt>
      <trkpt lat="47.68435" lon="-3.21491">
        <ele>20</ele>
        <time>2021-08-14T14:53:23Z</time>
      </trkpt>
      <trkpt lat="47.68434" lon="-3.21484">
        <ele>20</ele>
        <time>2021-08-14T14:53:24Z</time>
      </trkpt>
      <trkpt lat="47.68434" lon="-3.21476">
        <ele>20</ele>
        <time>2021-08-14T14:53:25Z</time>
      </trkpt>
      <trkpt lat="47.68433" lon="-3.21469">
        <ele>20</ele>
        <time>2021-08-14T14:53:26Z</time>
      </trkpt>
      <trkpt lat="47.68431" lon="-3.21463">
        <ele>20</ele>
        <time>2021-08-14T14:53:27Z</time>
      </trkpt>
      <trkpt lat="47.68428" lon="-3.21458">
        <ele>20</ele>
        <time>2021-08-14T14:53:28Z</time>
      </trkpt>
      <trkpt lat="47.68425" lon="-3.21452">
        <ele>20</ele>
        <time>2021-08-14T14:53:29Z</time>
      </trkpt>
      <trkpt lat="47.68423" lon="-3.21446">
        <ele>20</ele>
        <time>2021-08-14T14:53:30Z</time>
      </trkpt>
      <trkpt lat="47.68422" lon="-3.2144">
        <ele>20</ele>
        <time>2021-08-14T14:53:31Z</time>
      </trkpt>
      <trkpt lat="47.68421" lon="-3.21433">
        <ele>20</ele>
        <time>2021-08-14T14:53:32Z</time>
      </trkpt>
      <trkpt lat="47.68421" lon="-3.21425">
        <ele>20</ele>
        <time>2021-08-14T14:53:33Z</time>
      </trkpt>
      <trkpt lat="47.68421" lon="-3.21417">
        <ele>20</ele>
        <time>2021-08-14T14:53:34Z</time>
      </trkpt>
      <trkpt lat="47.6842" lon="-3.2141">
        <ele>20</ele>
        <time>2021-08-14T14:53:35Z</time>
      </trkpt>
      <trkpt lat="47.68419" lon="-3.21402">
        <ele>19.8</ele>
        <time>2021-08-14T14:53:36Z</time>
      </trkpt>
      <trkpt lat="47.68416" lon="-3.21395">
        <ele>19.8</ele>
        <time>2021-08-14T14:53:37Z</time>
      </trkpt>
      <trkpt lat="47.68412" lon="-3.21388">
        <ele>19.8</ele>
        <time>2021-08-14T14:53:38Z</time>
      </trkpt>
      <trkpt lat="47.68408" lon="-3.21382">
        <ele>19.8</ele>
        <time>2021-08-14T14:53:39Z</time>
      </trkpt>
      <trkpt lat="47.68404" lon="-3.21375">
        <ele>19.8</ele>
        <time>2021-08-14T14:53:40Z</time>
      </trkpt>
      <trkpt lat="47.68399" lon="-3.21369">
        <ele>19.8</ele>
        <time>2021-08-14T14:53:41Z</time>
      </trkpt>
      <trkpt lat="47.68395" lon="-3.21362">
        <ele>19.8</ele>
        <time>2021-08-14T14:53:42Z</time>
      </trkpt>
      <trkpt lat="47.6839" lon="-3.21355">
        <ele>19.6</ele>
        <time>2021-08-14T14:53:43Z</time>
      </trkpt>
      <trkpt lat="47.68385" lon="-3.21349">
        <ele>19.6</ele>
        <time>2021-08-14T14:53:44Z</time>
      </trkpt>
      <trkpt lat="47.6838" lon="-3.21342">
        <ele>19.4</ele>
        <time>2021-08-14T14:53:45Z</time>
      </trkpt>
      <trkpt lat="47.68375" lon="-3.21335">
        <ele>19.4</ele>
        <time>2021-08-14T14:53:46Z</time>
      </trkpt>
      <trkpt lat="47.6837" lon="-3.21328">
        <ele>19.4</ele>
        <time>2021-08-14T14:53:47Z</time>
      </trkpt>
      <trkpt lat="47.68365" lon="-3.21321">
        <ele>19.2</ele>
        <time>2021-08-14T14:53:48Z</time>
      </trkpt>
      <trkpt lat="47.6836" lon="-3.21314">
        <ele>19.2</ele>
        <time>2021-08-14T14:53:49Z</time>
      </trkpt>
      <trkpt lat="47.68356" lon="-3.21307">
        <ele>19</ele>
        <time>2021-08-14T14:53:50Z</time>
      </trkpt>
      <trkpt lat="47.68351" lon="-3.213">
        <ele>18.8</ele>
        <time>2021-08-14T14:53:51Z</time>
      </trkpt>
      <trkpt lat="47.68347" lon="-3.21293">
        <ele>18.6</ele>
        <time>2021-08-14T14:53:52Z</time>
      </trkpt>
      <trkpt lat="47.68343" lon="-3.21286">
        <ele>18.2</ele>
        <time>2021-08-14T14:53:53Z</time>
      </trkpt>
      <trkpt lat="47.68339" lon="-3.21279">
        <ele>18</ele>
        <time>2021-08-14T14:53:54Z</time>
      </trkpt>
      <trkpt lat="47.68336" lon="-3.21271">
        <ele>17.6</ele>
        <time>2021-08-14T14:53:55Z</time>
      </trkpt>
      <trkpt lat="47.68332" lon="-3.21263">
        <ele>17.4</ele>
        <time>2021-08-14T14:53:56Z</time>
      </trkpt>
      <trkpt lat="47.68329" lon="-3.21255">
        <ele>17.2</ele>
        <time>2021-08-14T14:53:57Z</time>
      </trkpt>
      <trkpt lat="47.68326" lon="-3.21247">
        <ele>17.2</ele>
        <time>2021-08-14T14:53:58Z</time>
      </trkpt>
      <trkpt lat="47.68323" lon="-3.21239">
        <ele>17</ele>
        <time>2021-08-14T14:53:59Z</time>
      </trkpt>
      <trkpt lat="47.6832" lon="-3.21231">
        <ele>17</ele>
        <time>2021-08-14T14:54:00Z</time>
      </trkpt>
      <trkpt lat="47.68317" lon="-3.21223">
        <ele>16.8</ele>
        <time>2021-08-14T14:54:01Z</time>
      </trkpt>
      <trkpt lat="47.68314" lon="-3.21215">
        <ele>16.8</ele>
        <time>2021-08-14T14:54:02Z</time>
      </trkpt>
      <trkpt lat="47.68311" lon="-3.21207">
        <ele>16.8</ele>
        <time>2021-08-14T14:54:03Z</time>
      </trkpt>
      <trkpt lat="47.68308" lon="-3.21199">
        <ele>16.8</ele>
        <time>2021-08-14T14:54:04Z</time>
      </trkpt>
      <trkpt lat="47.68304" lon="-3.21192">
        <ele>16.8</ele>
        <time>2021-08-14T14:54:05Z</time>
      </trkpt>
      <trkpt lat="47.683" lon="-3.21185">
        <ele>16.8</ele>
        <time>2021-08-14T14:54:06Z</time>
      </trkpt>
      <trkpt lat="47.68297" lon="-3.21178">
        <ele>16.8</ele>
        <time>2021-08-14T14:54:07Z</time>
      </trkpt>
      <trkpt lat="47.68293" lon="-3.21171">
        <ele>16.8</ele>
        <time>2021-08-14T14:54:08Z</time>
      </trkpt>
      <trkpt lat="47.68289" lon="-3.21164">
        <ele>16.8</ele>
        <time>2021-08-14T14:54:09Z</time>
      </trkpt>
      <trkpt lat="47.68285" lon="-3.21158">
        <ele>16.8</ele>
        <time>2021-08-14T14:54:10Z</time>
      </trkpt>
      <trkpt lat="47.68281" lon="-3.21152">
        <ele>16.8</ele>
        <time>2021-08-14T14:54:11Z</time>
      </trkpt>
      <trkpt lat="47.68277" lon="-3.21145">
        <ele>16.8</ele>
        <time>2021-08-14T14:54:12Z</time>
      </trkpt>
      <trkpt lat="47.68273" lon="-3.21139">
        <ele>16.8</ele>
        <time>2021-08-14T14:54:13Z</time>
      </trkpt>
      <trkpt lat="47.68268" lon="-3.21133">
        <ele>16.8</ele>
        <time>2021-08-14T14:54:14Z</time>
      </trkpt>
      <trkpt lat="47.68264" lon="-3.21127">
        <ele>16.8</ele>
        <time>2021-08-14T14:54:15Z</time>
      </trkpt>
      <trkpt lat="47.6826" lon="-3.21121">
        <ele>16.8</ele>
        <time>2021-08-14T14:54:16Z</time>
      </trkpt>
      <trkpt lat="47.68256" lon="-3.21115">
        <ele>16.6</ele>
        <time>2021-08-14T14:54:17Z</time>
      </trkpt>
      <trkpt lat="47.68251" lon="-3.21109">
        <ele>16.6</ele>
        <time>2021-08-14T14:54:18Z</time>
      </trkpt>
      <trkpt lat="47.68247" lon="-3.21104">
        <ele>16.6</ele>
        <time>2021-08-14T14:54:19Z</time>
      </trkpt>
      <trkpt lat="47.68243" lon="-3.21098">
        <ele>16.6</ele>
        <time>2021-08-14T14:54:20Z</time>
      </trkpt>
      <trkpt lat="47.68239" lon="-3.21092">
        <ele>16.4</ele>
        <time>2021-08-14T14:54:21Z</time>
      </trkpt>
      <trkpt lat="47.68235" lon="-3.21087">
        <ele>16.4</ele>
        <time>2021-08-14T14:54:22Z</time>
      </trkpt>
      <trkpt lat="47.6823" lon="-3.21082">
        <ele>16.2</ele>
        <time>2021-08-14T14:54:23Z</time>
      </trkpt>
      <trkpt lat="47.68226" lon="-3.21077">
        <ele>16</ele>
        <time>2021-08-14T14:54:24Z</time>
      </trkpt>
      <trkpt lat="47.68223" lon="-3.21071">
        <ele>16</ele>
        <time>2021-08-14T14:54:25Z</time>
      </trkpt>
      <trkpt lat="47.68219" lon="-3.21066">
        <ele>16</ele>
        <time>2021-08-14T14:54:26Z</time>
      </trkpt>
      <trkpt lat="47.68215" lon="-3.21062">
        <ele>16</ele>
        <time>2021-08-14T14:54:27Z</time>
      </trkpt>
      <trkpt lat="47.68211" lon="-3.21057">
        <ele>16</ele>
        <time>2021-08-14T14:54:28Z</time>
      </trkpt>
      <trkpt lat="47.68208" lon="-3.21052">
        <ele>16</ele>
        <time>2021-08-14T14:54:29Z</time>
      </trkpt>
      <trkpt lat="47.68204" lon="-3.21048">
        <ele>16</ele>
        <time>2021-08-14T14:54:30Z</time>
      </trkpt>
      <trkpt lat="47.682" lon="-3.21045">
        <ele>16</ele>
        <time>2021-08-14T14:54:31Z</time>
      </trkpt>
      <trkpt lat="47.68195" lon="-3.21044">
        <ele>16</ele>
        <time>2021-08-14T14:54:32Z</time>
      </trkpt>
      <trkpt lat="47.6819" lon="-3.21042">
        <ele>16</ele>
        <time>2021-08-14T14:54:33Z</time>
      </trkpt>
      <trkpt lat="47.68185" lon="-3.2104">
        <ele>16</ele>
        <time>2021-08-14T14:54:34Z</time>
      </trkpt>
      <trkpt lat="47.68181" lon="-3.21038">
        <ele>16</ele>
        <time>2021-08-14T14:54:35Z</time>
      </trkpt>
      <trkpt lat="47.68177" lon="-3.21034">
        <ele>16</ele>
        <time>2021-08-14T14:54:36Z</time>
      </trkpt>
      <trkpt lat="47.68174" lon="-3.21029">
        <ele>16</ele>
        <time>2021-08-14T14:54:37Z</time>
      </trkpt>
      <trkpt lat="47.68171" lon="-3.21023">
        <ele>16</ele>
        <time>2021-08-14T14:54:38Z</time>
      </trkpt>
      <trkpt lat="47.68169" lon="-3.21016">
        <ele>16</ele>
        <time>2021-08-14T14:54:39Z</time>
      </trkpt>
      <trkpt lat="47.68167" lon="-3.21009">
        <ele>16</ele>
        <time>2021-08-14T14:54:40Z</time>
      </trkpt>
      <trkpt lat="47.68164" lon="-3.21002">
        <ele>16</ele>
        <time>2021-08-14T14:54:41Z</time>
      </trkpt>
      <trkpt lat="47.68162" lon="-3.20995">
        <ele>16</ele>
        <time>2021-08-14T14:54:42Z</time>
      </trkpt>
      <trkpt lat="47.68159" lon="-3.20989">
        <ele>16</ele>
        <time>2021-08-14T14:54:43Z</time>
      </trkpt>
      <trkpt lat="47.68156" lon="-3.20983">
        <ele>16</ele>
        <time>2021-08-14T14:54:44Z</time>
      </trkpt>
      <trkpt lat="47.68152" lon="-3.20977">
        <ele>16.2</ele>
        <time>2021-08-14T14:54:45Z</time>
      </trkpt>
      <trkpt lat="47.68149" lon="-3.20971">
        <ele>16.2</ele>
        <time>2021-08-14T14:54:46Z</time>
      </trkpt>
      <trkpt lat="47.68145" lon="-3.20966">
        <ele>16.4</ele>
        <time>2021-08-14T14:54:47Z</time>
      </trkpt>
      <trkpt lat="47.68141" lon="-3.2096">
        <ele>16.6</ele>
        <time>2021-08-14T14:54:48Z</time>
      </trkpt>
      <trkpt lat="47.68137" lon="-3.20955">
        <ele>16.8</ele>
        <time>2021-08-14T14:54:49Z</time>
      </trkpt>
      <trkpt lat="47.68134" lon="-3.2095">
        <ele>16.8</ele>
        <time>2021-08-14T14:54:50Z</time>
      </trkpt>
      <trkpt lat="47.6813" lon="-3.20944">
        <ele>16.8</ele>
        <time>2021-08-14T14:54:51Z</time>
      </trkpt>
      <trkpt lat="47.68126" lon="-3.20939">
        <ele>17.2</ele>
        <time>2021-08-14T14:54:52Z</time>
      </trkpt>
      <trkpt lat="47.68122" lon="-3.20934">
        <ele>17.2</ele>
        <time>2021-08-14T14:54:53Z</time>
      </trkpt>
      <trkpt lat="47.68118" lon="-3.2093">
        <ele>17.4</ele>
        <time>2021-08-14T14:54:54Z</time>
      </trkpt>
      <trkpt lat="47.68115" lon="-3.20925">
        <ele>17.6</ele>
        <time>2021-08-14T14:54:55Z</time>
      </trkpt>
      <trkpt lat="47.68111" lon="-3.20921">
        <ele>17.6</ele>
        <time>2021-08-14T14:54:56Z</time>
      </trkpt>
      <trkpt lat="47.68108" lon="-3.20916">
        <ele>17.8</ele>
        <time>2021-08-14T14:54:57Z</time>
      </trkpt>
      <trkpt lat="47.68105" lon="-3.20912">
        <ele>17.8</ele>
        <time>2021-08-14T14:54:58Z</time>
      </trkpt>
      <trkpt lat="47.68101" lon="-3.20907">
        <ele>18</ele>
        <time>2021-08-14T14:54:59Z</time>
      </trkpt>
      <trkpt lat="47.68098" lon="-3.20903">
        <ele>18</ele>
        <time>2021-08-14T14:55:00Z</time>
      </trkpt>
      <trkpt lat="47.68095" lon="-3.20898">
        <ele>18</ele>
        <time>2021-08-14T14:55:01Z</time>
      </trkpt>
      <trkpt lat="47.68091" lon="-3.20894">
        <ele>18</ele>
        <time>2021-08-14T14:55:02Z</time>
      </trkpt>
      <trkpt lat="47.68087" lon="-3.20889">
        <ele>18</ele>
        <time>2021-08-14T14:55:03Z</time>
      </trkpt>
      <trkpt lat="47.68084" lon="-3.20884">
        <ele>18.2</ele>
        <time>2021-08-14T14:55:04Z</time>
      </trkpt>
      <trkpt lat="47.6808" lon="-3.20879">
        <ele>18.2</ele>
        <time>2021-08-14T14:55:05Z</time>
      </trkpt>
      <trkpt lat="47.68076" lon="-3.20875">
        <ele>18.6</ele>
        <time>2021-08-14T14:55:06Z</time>
      </trkpt>
      <trkpt lat="47.68073" lon="-3.2087">
        <ele>18.6</ele>
        <time>2021-08-14T14:55:07Z</time>
      </trkpt>
      <trkpt lat="47.68069" lon="-3.20865">
        <ele>18.8</ele>
        <time>2021-08-14T14:55:08Z</time>
      </trkpt>
      <trkpt lat="47.68065" lon="-3.2086">
        <ele>18.8</ele>
        <time>2021-08-14T14:55:09Z</time>
      </trkpt>
      <trkpt lat="47.68062" lon="-3.20856">
        <ele>19</ele>
        <time>2021-08-14T14:55:10Z</time>
      </trkpt>
      <trkpt lat="47.68058" lon="-3.20851">
        <ele>19</ele>
        <time>2021-08-14T14:55:11Z</time>
      </trkpt>
      <trkpt lat="47.68055" lon="-3.20847">
        <ele>19</ele>
        <time>2021-08-14T14:55:12Z</time>
      </trkpt>
      <trkpt lat="47.68051" lon="-3.20843">
        <ele>19.2</ele>
        <time>2021-08-14T14:55:13Z</time>
      </trkpt>
      <trkpt lat="47.68048" lon="-3.20838">
        <ele>19.2</ele>
        <time>2021-08-14T14:55:14Z</time>
      </trkpt>
      <trkpt lat="47.68045" lon="-3.20834">
        <ele>19.2</ele>
        <time>2021-08-14T14:55:15Z</time>
      </trkpt>
      <trkpt lat="47.68041" lon="-3.20828">
        <ele>19.4</ele>
        <time>2021-08-14T14:55:16Z</time>
      </trkpt>
      <trkpt lat="47.68037" lon="-3.20823">
        <ele>19.4</ele>
        <time>2021-08-14T14:55:17Z</time>
      </trkpt>
      <trkpt lat="47.68033" lon="-3.20819">
        <ele>19.6</ele>
        <time>2021-08-14T14:55:18Z</time>
      </trkpt>
      <trkpt lat="47.6803" lon="-3.20814">
        <ele>20</ele>
        <time>2021-08-14T14:55:19Z</time>
      </trkpt>
      <trkpt lat="47.68026" lon="-3.20809">
        <ele>20</ele>
        <time>2021-08-14T14:55:20Z</time>
      </trkpt>
      <trkpt lat="47.68022" lon="-3.20804">
        <ele>20.2</ele>
        <time>2021-08-14T14:55:21Z</time>
      </trkpt>
      <trkpt lat="47.68018" lon="-3.20799">
        <ele>20.2</ele>
        <time>2021-08-14T14:55:22Z</time>
      </trkpt>
      <trkpt lat="47.68015" lon="-3.20794">
        <ele>20.4</ele>
        <time>2021-08-14T14:55:23Z</time>
      </trkpt>
      <trkpt lat="47.68011" lon="-3.20789">
        <ele>20.4</ele>
        <time>2021-08-14T14:55:24Z</time>
      </trkpt>
      <trkpt lat="47.68007" lon="-3.20785">
        <ele>20.4</ele>
        <time>2021-08-14T14:55:25Z</time>
      </trkpt>
      <trkpt lat="47.68004" lon="-3.2078">
        <ele>20.4</ele>
        <time>2021-08-14T14:55:26Z</time>
      </trkpt>
      <trkpt lat="47.68" lon="-3.20775">
        <ele>20.6</ele>
        <time>2021-08-14T14:55:27Z</time>
      </trkpt>
      <trkpt lat="47.67996" lon="-3.2077">
        <ele>20.6</ele>
        <time>2021-08-14T14:55:28Z</time>
      </trkpt>
      <trkpt lat="47.67992" lon="-3.20765">
        <ele>20.6</ele>
        <time>2021-08-14T14:55:29Z</time>
      </trkpt>
      <trkpt lat="47.67989" lon="-3.2076">
        <ele>20.6</ele>
        <time>2021-08-14T14:55:30Z</time>
      </trkpt>
      <trkpt lat="47.67985" lon="-3.20755">
        <ele>20.6</ele>
        <time>2021-08-14T14:55:31Z</time>
      </trkpt>
      <trkpt lat="47.67981" lon="-3.2075">
        <ele>20.6</ele>
        <time>2021-08-14T14:55:32Z</time>
      </trkpt>
      <trkpt lat="47.67977" lon="-3.20745">
        <ele>20.6</ele>
        <time>2021-08-14T14:55:33Z</time>
      </trkpt>
      <trkpt lat="47.67974" lon="-3.2074">
        <ele>20.6</ele>
        <time>2021-08-14T14:55:34Z</time>
      </trkpt>
      <trkpt lat="47.6797" lon="-3.20735">
        <ele>20.6</ele>
        <time>2021-08-14T14:55:35Z</time>
      </trkpt>
      <trkpt lat="47.67966" lon="-3.2073">
        <ele>20.6</ele>
        <time>2021-08-14T14:55:36Z</time>
      </trkpt>
      <trkpt lat="47.67962" lon="-3.20725">
        <ele>20.6</ele>
        <time>2021-08-14T14:55:37Z</time>
      </trkpt>
      <trkpt lat="47.67958" lon="-3.2072">
        <ele>20.6</ele>
        <time>2021-08-14T14:55:38Z</time>
      </trkpt>
      <trkpt lat="47.67955" lon="-3.20715">
        <ele>20.6</ele>
        <time>2021-08-14T14:55:39Z</time>
      </trkpt>
      <trkpt lat="47.67951" lon="-3.2071">
        <ele>20.6</ele>
        <time>2021-08-14T14:55:40Z</time>
      </trkpt>
      <trkpt lat="47.67947" lon="-3.20705">
        <ele>20.4</ele>
        <time>2021-08-14T14:55:41Z</time>
      </trkpt>
      <trkpt lat="47.67944" lon="-3.207">
        <ele>20.4</ele>
        <time>2021-08-14T14:55:42Z</time>
      </trkpt>
      <trkpt lat="47.6794" lon="-3.20695">
        <ele>20.4</ele>
        <time>2021-08-14T14:55:43Z</time>
      </trkpt>
      <trkpt lat="47.67937" lon="-3.2069">
        <ele>20.4</ele>
        <time>2021-08-14T14:55:44Z</time>
      </trkpt>
      <trkpt lat="47.67933" lon="-3.20685">
        <ele>20.4</ele>
        <time>2021-08-14T14:55:45Z</time>
      </trkpt>
      <trkpt lat="47.6793" lon="-3.20681">
        <ele>20.4</ele>
        <time>2021-08-14T14:55:46Z</time>
      </trkpt>
      <trkpt lat="47.67926" lon="-3.20676">
        <ele>20.4</ele>
        <time>2021-08-14T14:55:47Z</time>
      </trkpt>
      <trkpt lat="47.67922" lon="-3.20671">
        <ele>20.4</ele>
        <time>2021-08-14T14:55:48Z</time>
      </trkpt>
      <trkpt lat="47.67918" lon="-3.20665">
        <ele>20.4</ele>
        <time>2021-08-14T14:55:49Z</time>
      </trkpt>
      <trkpt lat="47.67914" lon="-3.2066">
        <ele>20.4</ele>
        <time>2021-08-14T14:55:50Z</time>
      </trkpt>
      <trkpt lat="47.6791" lon="-3.20655">
        <ele>20.4</ele>
        <time>2021-08-14T14:55:51Z</time>
      </trkpt>
      <trkpt lat="47.67906" lon="-3.2065">
        <ele>20.4</ele>
        <time>2021-08-14T14:55:52Z</time>
      </trkpt>
      <trkpt lat="47.67902" lon="-3.20644">
        <ele>20.4</ele>
        <time>2021-08-14T14:55:53Z</time>
      </trkpt>
      <trkpt lat="47.67898" lon="-3.20639">
        <ele>20.2</ele>
        <time>2021-08-14T14:55:54Z</time>
      </trkpt>
      <trkpt lat="47.67895" lon="-3.20634">
        <ele>20.2</ele>
        <time>2021-08-14T14:55:55Z</time>
      </trkpt>
      <trkpt lat="47.67891" lon="-3.20629">
        <ele>20.2</ele>
        <time>2021-08-14T14:55:56Z</time>
      </trkpt>
      <trkpt lat="47.67887" lon="-3.20625">
        <ele>20.2</ele>
        <time>2021-08-14T14:55:57Z</time>
      </trkpt>
      <trkpt lat="47.67883" lon="-3.20619">
        <ele>20.4</ele>
        <time>2021-08-14T14:55:58Z</time>
      </trkpt>
      <trkpt lat="47.67879" lon="-3.20614">
        <ele>20.4</ele>
        <time>2021-08-14T14:55:59Z</time>
      </trkpt>
      <trkpt lat="47.67875" lon="-3.20609">
        <ele>20.4</ele>
        <time>2021-08-14T14:56:00Z</time>
      </trkpt>
      <trkpt lat="47.67871" lon="-3.20603">
        <ele>20.4</ele>
        <time>2021-08-14T14:56:01Z</time>
      </trkpt>
      <trkpt lat="47.67867" lon="-3.20598">
        <ele>20.4</ele>
        <time>2021-08-14T14:56:02Z</time>
      </trkpt>
      <trkpt lat="47.67863" lon="-3.20593">
        <ele>20.4</ele>
        <time>2021-08-14T14:56:03Z</time>
      </trkpt>
      <trkpt lat="47.67859" lon="-3.20588">
        <ele>20.4</ele>
        <time>2021-08-14T14:56:04Z</time>
      </trkpt>
      <trkpt lat="47.67855" lon="-3.20582">
        <ele>20.4</ele>
        <time>2021-08-14T14:56:05Z</time>
      </trkpt>
      <trkpt lat="47.67851" lon="-3.20577">
        <ele>20.6</ele>
        <time>2021-08-14T14:56:06Z</time>
      </trkpt>
      <trkpt lat="47.67847" lon="-3.20572">
        <ele>20.6</ele>
        <time>2021-08-14T14:56:07Z</time>
      </trkpt>
      <trkpt lat="47.67843" lon="-3.20566">
        <ele>20.6</ele>
        <time>2021-08-14T14:56:08Z</time>
      </trkpt>
      <trkpt lat="47.67839" lon="-3.20561">
        <ele>20.6</ele>
        <time>2021-08-14T14:56:09Z</time>
      </trkpt>
      <trkpt lat="47.67835" lon="-3.20555">
        <ele>20.6</ele>
        <time>2021-08-14T14:56:10Z</time>
      </trkpt>
      <trkpt lat="47.67831" lon="-3.2055">
        <ele>20.6</ele>
        <time>2021-08-14T14:56:11Z</time>
      </trkpt>
      <trkpt lat="47.67827" lon="-3.20544">
        <ele>20.6</ele>
        <time>2021-08-14T14:56:12Z</time>
      </trkpt>
      <trkpt lat="47.67822" lon="-3.20539">
        <ele>20.6</ele>
        <time>2021-08-14T14:56:13Z</time>
      </trkpt>
      <trkpt lat="47.67818" lon="-3.20533">
        <ele>20.4</ele>
        <time>2021-08-14T14:56:14Z</time>
      </trkpt>
      <trkpt lat="47.67813" lon="-3.20527">
        <ele>20.4</ele>
        <time>2021-08-14T14:56:15Z</time>
      </trkpt>
      <trkpt lat="47.67809" lon="-3.20521">
        <ele>20.4</ele>
        <time>2021-08-14T14:56:16Z</time>
      </trkpt>
      <trkpt lat="47.67805" lon="-3.20514">
        <ele>20.4</ele>
        <time>2021-08-14T14:56:17Z</time>
      </trkpt>
      <trkpt lat="47.678" lon="-3.20508">
        <ele>20.2</ele>
        <time>2021-08-14T14:56:18Z</time>
      </trkpt>
      <trkpt lat="47.67795" lon="-3.20502">
        <ele>20.2</ele>
        <time>2021-08-14T14:56:19Z</time>
      </trkpt>
      <trkpt lat="47.6779" lon="-3.20496">
        <ele>20</ele>
        <time>2021-08-14T14:56:20Z</time>
      </trkpt>
      <trkpt lat="47.67785" lon="-3.20489">
        <ele>19.8</ele>
        <time>2021-08-14T14:56:21Z</time>
      </trkpt>
      <trkpt lat="47.6778" lon="-3.20483">
        <ele>19.6</ele>
        <time>2021-08-14T14:56:22Z</time>
      </trkpt>
      <trkpt lat="47.67775" lon="-3.20476">
        <ele>19.6</ele>
        <time>2021-08-14T14:56:23Z</time>
      </trkpt>
      <trkpt lat="47.67769" lon="-3.20469">
        <ele>19.2</ele>
        <time>2021-08-14T14:56:24Z</time>
      </trkpt>
      <trkpt lat="47.67764" lon="-3.20461">
        <ele>18.4</ele>
        <time>2021-08-14T14:56:25Z</time>
      </trkpt>
      <trkpt lat="47.67759" lon="-3.20454">
        <ele>17.8</ele>
        <time>2021-08-14T14:56:26Z</time>
      </trkpt>
      <trkpt lat="47.67753" lon="-3.20447">
        <ele>17.4</ele>
        <time>2021-08-14T14:56:27Z</time>
      </trkpt>
      <trkpt lat="47.67748" lon="-3.20439">
        <ele>17.4</ele>
        <time>2021-08-14T14:56:28Z</time>
      </trkpt>
      <trkpt lat="47.67742" lon="-3.20431">
        <ele>17.2</ele>
        <time>2021-08-14T14:56:29Z</time>
      </trkpt>
      <trkpt lat="47.67736" lon="-3.20424">
        <ele>17</ele>
        <time>2021-08-14T14:56:30Z</time>
      </trkpt>
      <trkpt lat="47.67731" lon="-3.20416">
        <ele>17</ele>
        <time>2021-08-14T14:56:31Z</time>
      </trkpt>
      <trkpt lat="47.67725" lon="-3.20408">
        <ele>17</ele>
        <time>2021-08-14T14:56:32Z</time>
      </trkpt>
      <trkpt lat="47.67721" lon="-3.20402">
        <ele>16.8</ele>
        <time>2021-08-14T14:56:33Z</time>
      </trkpt>
      <trkpt lat="47.67716" lon="-3.20396">
        <ele>16.2</ele>
        <time>2021-08-14T14:56:34Z</time>
      </trkpt>
      <trkpt lat="47.67712" lon="-3.20391">
        <ele>15.8</ele>
        <time>2021-08-14T14:56:35Z</time>
      </trkpt>
      <trkpt lat="47.67707" lon="-3.20385">
        <ele>15.6</ele>
        <time>2021-08-14T14:56:36Z</time>
      </trkpt>
      <trkpt lat="47.67702" lon="-3.20379">
        <ele>15.2</ele>
        <time>2021-08-14T14:56:37Z</time>
      </trkpt>
      <trkpt lat="47.67697" lon="-3.20373">
        <ele>15</ele>
        <time>2021-08-14T14:56:38Z</time>
      </trkpt>
      <trkpt lat="47.67692" lon="-3.20367">
        <ele>14.8</ele>
        <time>2021-08-14T14:56:39Z</time>
      </trkpt>
      <trkpt lat="47.67687" lon="-3.2036">
        <ele>14.6</ele>
        <time>2021-08-14T14:56:40Z</time>
      </trkpt>
      <trkpt lat="47.67682" lon="-3.20354">
        <ele>14.6</ele>
        <time>2021-08-14T14:56:41Z</time>
      </trkpt>
      <trkpt lat="47.67677" lon="-3.20347">
        <ele>14.4</ele>
        <time>2021-08-14T14:56:42Z</time>
      </trkpt>
      <trkpt lat="47.67671" lon="-3.20339">
        <ele>14.4</ele>
        <time>2021-08-14T14:56:43Z</time>
      </trkpt>
      <trkpt lat="47.67665" lon="-3.20332">
        <ele>14.2</ele>
        <time>2021-08-14T14:56:44Z</time>
      </trkpt>
      <trkpt lat="47.67659" lon="-3.20324">
        <ele>14.2</ele>
        <time>2021-08-14T14:56:45Z</time>
      </trkpt>
      <trkpt lat="47.67653" lon="-3.20316">
        <ele>14</ele>
        <time>2021-08-14T14:56:46Z</time>
      </trkpt>
      <trkpt lat="47.67648" lon="-3.20308">
        <ele>13.8</ele>
        <time>2021-08-14T14:56:47Z</time>
      </trkpt>
      <trkpt lat="47.67642" lon="-3.20301">
        <ele>13.8</ele>
        <time>2021-08-14T14:56:48Z</time>
      </trkpt>
      <trkpt lat="47.67636" lon="-3.20293">
        <ele>13.8</ele>
        <time>2021-08-14T14:56:49Z</time>
      </trkpt>
      <trkpt lat="47.6763" lon="-3.20285">
        <ele>13.8</ele>
        <time>2021-08-14T14:56:50Z</time>
      </trkpt>
      <trkpt lat="47.67624" lon="-3.20278">
        <ele>14</ele>
        <time>2021-08-14T14:56:51Z</time>
      </trkpt>
      <trkpt lat="47.67618" lon="-3.2027">
        <ele>14</ele>
        <time>2021-08-14T14:56:52Z</time>
      </trkpt>
      <trkpt lat="47.67613" lon="-3.20263">
        <ele>14</ele>
        <time>2021-08-14T14:56:53Z</time>
      </trkpt>
      <trkpt lat="47.67608" lon="-3.20255">
        <ele>14</ele>
        <time>2021-08-14T14:56:54Z</time>
      </trkpt>
      <trkpt lat="47.67603" lon="-3.20246">
        <ele>14</ele>
        <time>2021-08-14T14:56:55Z</time>
      </trkpt>
      <trkpt lat="47.67598" lon="-3.20237">
        <ele>14.2</ele>
        <time>2021-08-14T14:56:56Z</time>
      </trkpt>
      <trkpt lat="47.67594" lon="-3.20228">
        <ele>14.4</ele>
        <time>2021-08-14T14:56:57Z</time>
      </trkpt>
      <trkpt lat="47.67591" lon="-3.20217">
        <ele>14.6</ele>
        <time>2021-08-14T14:56:58Z</time>
      </trkpt>
      <trkpt lat="47.67589" lon="-3.20207">
        <ele>15</ele>
        <time>2021-08-14T14:56:59Z</time>
      </trkpt>
      <trkpt lat="47.67588" lon="-3.20196">
        <ele>15.4</ele>
        <time>2021-08-14T14:57:00Z</time>
      </trkpt>
      <trkpt lat="47.67587" lon="-3.20185">
        <ele>15.8</ele>
        <time>2021-08-14T14:57:01Z</time>
      </trkpt>
      <trkpt lat="47.67587" lon="-3.20175">
        <ele>16</ele>
        <time>2021-08-14T14:57:02Z</time>
      </trkpt>
      <trkpt lat="47.67587" lon="-3.20164">
        <ele>16.2</ele>
        <time>2021-08-14T14:57:03Z</time>
      </trkpt>
      <trkpt lat="47.67587" lon="-3.20154">
        <ele>16.4</ele>
        <time>2021-08-14T14:57:04Z</time>
      </trkpt>
      <trkpt lat="47.67587" lon="-3.20144">
        <ele>16.6</ele>
        <time>2021-08-14T14:57:05Z</time>
      </trkpt>
      <trkpt lat="47.67587" lon="-3.20135">
        <ele>16.8</ele>
        <time>2021-08-14T14:57:06Z</time>
      </trkpt>
      <trkpt lat="47.67587" lon="-3.20126">
        <ele>16.8</ele>
        <time>2021-08-14T14:57:07Z</time>
      </trkpt>
      <trkpt lat="47.67587" lon="-3.20118">
        <ele>17</ele>
        <time>2021-08-14T14:57:08Z</time>
      </trkpt>
      <trkpt lat="47.67586" lon="-3.2011">
        <ele>17</ele>
        <time>2021-08-14T14:57:09Z</time>
      </trkpt>
      <trkpt lat="47.67586" lon="-3.20103">
        <ele>17</ele>
        <time>2021-08-14T14:57:10Z</time>
      </trkpt>
      <trkpt lat="47.67586" lon="-3.20097">
        <ele>17.2</ele>
        <time>2021-08-14T14:57:11Z</time>
      </trkpt>
      <trkpt lat="47.67586" lon="-3.20094">
        <ele>17.4</ele>
        <time>2021-08-14T14:57:12Z</time>
      </trkpt>
      <trkpt lat="47.67586" lon="-3.20093">
        <ele>17.8</ele>
        <time>2021-08-14T14:57:13Z</time>
      </trkpt>
      <trkpt lat="47.67586" lon="-3.20093">
        <ele>18.4</ele>
        <time>2021-08-14T14:57:14Z</time>
      </trkpt>
      <trkpt lat="47.67586" lon="-3.20091">
        <ele>20.2</ele>
        <time>2021-08-14T14:57:16Z</time>
      </trkpt>
      <trkpt lat="47.67586" lon="-3.20089">
        <ele>20.6</ele>
        <time>2021-08-14T14:57:17Z</time>
      </trkpt>
      <trkpt lat="47.67586" lon="-3.20087">
        <ele>21</ele>
        <time>2021-08-14T14:57:18Z</time>
      </trkpt>
      <trkpt lat="47.67586" lon="-3.20084">
        <ele>21.4</ele>
        <time>2021-08-14T14:57:19Z</time>
      </trkpt>
      <trkpt lat="47.67586" lon="-3.20081">
        <ele>22</ele>
        <time>2021-08-14T14:57:20Z</time>
      </trkpt>
      <trkpt lat="47.67586" lon="-3.20077">
        <ele>22.4</ele>
        <time>2021-08-14T14:57:21Z</time>
      </trkpt>
      <trkpt lat="47.67586" lon="-3.20073">
        <ele>22.8</ele>
        <time>2021-08-14T14:57:22Z</time>
      </trkpt>
      <trkpt lat="47.67586" lon="-3.20069">
        <ele>23</ele>
        <time>2021-08-14T14:57:23Z</time>
      </trkpt>
      <trkpt lat="47.67586" lon="-3.20064">
        <ele>23</ele>
        <time>2021-08-14T14:57:24Z</time>
      </trkpt>
      <trkpt lat="47.67586" lon="-3.20059">
        <ele>23</ele>
        <time>2021-08-14T14:57:25Z</time>
      </trkpt>
      <trkpt lat="47.67586" lon="-3.20053">
        <ele>23</ele>
        <time>2021-08-14T14:57:26Z</time>
      </trkpt>
      <trkpt lat="47.67586" lon="-3.20047">
        <ele>23</ele>
        <time>2021-08-14T14:57:27Z</time>
      </trkpt>
      <trkpt lat="47.67586" lon="-3.2004">
        <ele>23</ele>
        <time>2021-08-14T14:57:28Z</time>
      </trkpt>
      <trkpt lat="47.67586" lon="-3.20034">
        <ele>23</ele>
        <time>2021-08-14T14:57:29Z</time>
      </trkpt>
      <trkpt lat="47.67586" lon="-3.20029">
        <ele>23</ele>
        <time>2021-08-14T14:57:30Z</time>
      </trkpt>
      <trkpt lat="47.67586" lon="-3.20023">
        <ele>23</ele>
        <time>2021-08-14T14:57:31Z</time>
      </trkpt>
      <trkpt lat="47.67586" lon="-3.20017">
        <ele>23</ele>
        <time>2021-08-14T14:57:32Z</time>
      </trkpt>
      <trkpt lat="47.67586" lon="-3.20011">
        <ele>23</ele>
        <time>2021-08-14T14:57:33Z</time>
      </trkpt>
      <trkpt lat="47.67586" lon="-3.20006">
        <ele>23</ele>
        <time>2021-08-14T14:57:34Z</time>
      </trkpt>
      <trkpt lat="47.67586" lon="-3.2">
        <ele>23</ele>
        <time>2021-08-14T14:57:35Z</time>
      </trkpt>
      <trkpt lat="47.67586" lon="-3.19995">
        <ele>23</ele>
        <time>2021-08-14T14:57:36Z</time>
      </trkpt>
      <trkpt lat="47.67586" lon="-3.1999">
        <ele>23</ele>
        <time>2021-08-14T14:57:37Z</time>
      </trkpt>
      <trkpt lat="47.67586" lon="-3.19985">
        <ele>23</ele>
        <time>2021-08-14T14:57:38Z</time>
      </trkpt>
      <trkpt lat="47.67586" lon="-3.1998">
        <ele>23</ele>
        <time>2021-08-14T14:57:39Z</time>
      </trkpt>
      <trkpt lat="47.67586" lon="-3.19975">
        <ele>23</ele>
        <time>2021-08-14T14:57:40Z</time>
      </trkpt>
      <trkpt lat="47.67586" lon="-3.1997">
        <ele>23</ele>
        <time>2021-08-14T14:57:41Z</time>
      </trkpt>
      <trkpt lat="47.67586" lon="-3.19965">
        <ele>23</ele>
        <time>2021-08-14T14:57:42Z</time>
      </trkpt>
      <trkpt lat="47.67586" lon="-3.1996">
        <ele>23</ele>
        <time>2021-08-14T14:57:43Z</time>
      </trkpt>
      <trkpt lat="47.67586" lon="-3.19955">
        <ele>23</ele>
        <time>2021-08-14T14:57:44Z</time>
      </trkpt>
      <trkpt lat="47.67586" lon="-3.19951">
        <ele>23.2</ele>
        <time>2021-08-14T14:57:45Z</time>
      </trkpt>
      <trkpt lat="47.67586" lon="-3.19948">
        <ele>23.2</ele>
        <time>2021-08-14T14:57:46Z</time>
      </trkpt>
      <trkpt lat="47.67586" lon="-3.19946">
        <ele>23.2</ele>
        <time>2021-08-14T14:57:47Z</time>
      </trkpt>
      <trkpt lat="47.67586" lon="-3.19946">
        <ele>23.2</ele>
        <time>2021-08-14T14:57:48Z</time>
      </trkpt>
      <trkpt lat="47.67586" lon="-3.19946">
        <ele>23.2</ele>
        <time>2021-08-14T14:57:49Z</time>
      </trkpt>
      <trkpt lat="47.67586" lon="-3.19945">
        <ele>23.2</ele>
        <time>2021-08-14T14:57:50Z</time>
      </trkpt>
      <trkpt lat="47.67586" lon="-3.19944">
        <ele>23.2</ele>
        <time>2021-08-14T14:58:11Z</time>
      </trkpt>
      <trkpt lat="47.67586" lon="-3.19942">
        <ele>23.2</ele>
        <time>2021-08-14T14:58:12Z</time>
      </trkpt>
      <trkpt lat="47.67586" lon="-3.1994">
        <ele>23.2</ele>
        <time>2021-08-14T14:58:13Z</time>
      </trkpt>
      <trkpt lat="47.67586" lon="-3.19937">
        <ele>23.2</ele>
        <time>2021-08-14T14:58:14Z</time>
      </trkpt>
      <trkpt lat="47.67586" lon="-3.19933">
        <ele>23.2</ele>
        <time>2021-08-14T14:58:15Z</time>
      </trkpt>
      <trkpt lat="47.67586" lon="-3.19928">
        <ele>23.2</ele>
        <time>2021-08-14T14:58:16Z</time>
      </trkpt>
      <trkpt lat="47.67586" lon="-3.19924">
        <ele>23.2</ele>
        <time>2021-08-14T14:58:17Z</time>
      </trkpt>
      <trkpt lat="47.67586" lon="-3.19918">
        <ele>23.2</ele>
        <time>2021-08-14T14:58:18Z</time>
      </trkpt>
      <trkpt lat="47.67586" lon="-3.19912">
        <ele>23.2</ele>
        <time>2021-08-14T14:58:19Z</time>
      </trkpt>
      <trkpt lat="47.67585" lon="-3.19906">
        <ele>23.2</ele>
        <time>2021-08-14T14:58:20Z</time>
      </trkpt>
      <trkpt lat="47.67586" lon="-3.19899">
        <ele>23.2</ele>
        <time>2021-08-14T14:58:21Z</time>
      </trkpt>
      <trkpt lat="47.67586" lon="-3.19892">
        <ele>23.2</ele>
        <time>2021-08-14T14:58:22Z</time>
      </trkpt>
      <trkpt lat="47.67586" lon="-3.19884">
        <ele>23.2</ele>
        <time>2021-08-14T14:58:23Z</time>
      </trkpt>
      <trkpt lat="47.67585" lon="-3.19876">
        <ele>23.2</ele>
        <time>2021-08-14T14:58:24Z</time>
      </trkpt>
      <trkpt lat="47.67585" lon="-3.19868">
        <ele>23.2</ele>
        <time>2021-08-14T14:58:25Z</time>
      </trkpt>
      <trkpt lat="47.67585" lon="-3.19859">
        <ele>23.2</ele>
        <time>2021-08-14T14:58:26Z</time>
      </trkpt>
      <trkpt lat="47.67585" lon="-3.1985">
        <ele>22.8</ele>
        <time>2021-08-14T14:58:27Z</time>
      </trkpt>
      <trkpt lat="47.67585" lon="-3.1984">
        <ele>22.6</ele>
        <time>2021-08-14T14:58:28Z</time>
      </trkpt>
      <trkpt lat="47.67585" lon="-3.19831">
        <ele>22.2</ele>
        <time>2021-08-14T14:58:29Z</time>
      </trkpt>
      <trkpt lat="47.67585" lon="-3.19821">
        <ele>21.8</ele>
        <time>2021-08-14T14:58:30Z</time>
      </trkpt>
      <trkpt lat="47.67585" lon="-3.19811">
        <ele>21.4</ele>
        <time>2021-08-14T14:58:31Z</time>
      </trkpt>
      <trkpt lat="47.67585" lon="-3.19801">
        <ele>21</ele>
        <time>2021-08-14T14:58:32Z</time>
      </trkpt>
      <trkpt lat="47.67585" lon="-3.19791">
        <ele>20.6</ele>
        <time>2021-08-14T14:58:33Z</time>
      </trkpt>
      <trkpt lat="47.67585" lon="-3.19781">
        <ele>20.2</ele>
        <time>2021-08-14T14:58:34Z</time>
      </trkpt>
      <trkpt lat="47.67585" lon="-3.19772">
        <ele>20</ele>
        <time>2021-08-14T14:58:35Z</time>
      </trkpt>
      <trkpt lat="47.67585" lon="-3.19762">
        <ele>19.6</ele>
        <time>2021-08-14T14:58:36Z</time>
      </trkpt>
      <trkpt lat="47.67585" lon="-3.19753">
        <ele>19</ele>
        <time>2021-08-14T14:58:37Z</time>
      </trkpt>
      <trkpt lat="47.67584" lon="-3.19745">
        <ele>18.4</ele>
        <time>2021-08-14T14:58:38Z</time>
      </trkpt>
      <trkpt lat="47.67583" lon="-3.19739">
        <ele>18</ele>
        <time>2021-08-14T14:58:39Z</time>
      </trkpt>
      <trkpt lat="47.67583" lon="-3.19734">
        <ele>17.8</ele>
        <time>2021-08-14T14:58:40Z</time>
      </trkpt>
      <trkpt lat="47.67584" lon="-3.19728">
        <ele>17.6</ele>
        <time>2021-08-14T14:58:41Z</time>
      </trkpt>
      <trkpt lat="47.67584" lon="-3.19724">
        <ele>17.4</ele>
        <time>2021-08-14T14:58:42Z</time>
      </trkpt>
      <trkpt lat="47.67584" lon="-3.19719">
        <ele>17.2</ele>
        <time>2021-08-14T14:58:43Z</time>
      </trkpt>
      <trkpt lat="47.67584" lon="-3.19714">
        <ele>17</ele>
        <time>2021-08-14T14:58:44Z</time>
      </trkpt>
      <trkpt lat="47.67584" lon="-3.19709">
        <ele>17</ele>
        <time>2021-08-14T14:58:45Z</time>
      </trkpt>
      <trkpt lat="47.67584" lon="-3.19704">
        <ele>17</ele>
        <time>2021-08-14T14:58:46Z</time>
      </trkpt>
      <trkpt lat="47.67584" lon="-3.197">
        <ele>17</ele>
        <time>2021-08-14T14:58:47Z</time>
      </trkpt>
      <trkpt lat="47.67584" lon="-3.19696">
        <ele>17</ele>
        <time>2021-08-14T14:58:48Z</time>
      </trkpt>
      <trkpt lat="47.67584" lon="-3.19693">
        <ele>17</ele>
        <time>2021-08-14T14:58:49Z</time>
      </trkpt>
      <trkpt lat="47.67584" lon="-3.1969">
        <ele>17</ele>
        <time>2021-08-14T14:58:50Z</time>
      </trkpt>
      <trkpt lat="47.67584" lon="-3.19686">
        <ele>17</ele>
        <time>2021-08-14T14:58:51Z</time>
      </trkpt>
      <trkpt lat="47.67584" lon="-3.19682">
        <ele>17</ele>
        <time>2021-08-14T14:58:52Z</time>
      </trkpt>
      <trkpt lat="47.67584" lon="-3.19678">
        <ele>17</ele>
        <time>2021-08-14T14:58:53Z</time>
      </trkpt>
      <trkpt lat="47.67584" lon="-3.19675">
        <ele>17</ele>
        <time>2021-08-14T14:58:54Z</time>
      </trkpt>
      <trkpt lat="47.67584" lon="-3.19671">
        <ele>17</ele>
        <time>2021-08-14T14:58:55Z</time>
      </trkpt>
      <trkpt lat="47.67584" lon="-3.19667">
        <ele>17.2</ele>
        <time>2021-08-14T14:58:56Z</time>
      </trkpt>
      <trkpt lat="47.67584" lon="-3.19662">
        <ele>17.2</ele>
        <time>2021-08-14T14:58:57Z</time>
      </trkpt>
      <trkpt lat="47.67583" lon="-3.19658">
        <ele>17.2</ele>
        <time>2021-08-14T14:58:58Z</time>
      </trkpt>
      <trkpt lat="47.67583" lon="-3.19653">
        <ele>17.2</ele>
        <time>2021-08-14T14:58:59Z</time>
      </trkpt>
      <trkpt lat="47.67582" lon="-3.19648">
        <ele>17.2</ele>
        <time>2021-08-14T14:59:00Z</time>
      </trkpt>
      <trkpt lat="47.67582" lon="-3.19643">
        <ele>17.2</ele>
        <time>2021-08-14T14:59:01Z</time>
      </trkpt>
      <trkpt lat="47.67582" lon="-3.19638">
        <ele>17.2</ele>
        <time>2021-08-14T14:59:02Z</time>
      </trkpt>
      <trkpt lat="47.67581" lon="-3.19634">
        <ele>17.4</ele>
        <time>2021-08-14T14:59:03Z</time>
      </trkpt>
      <trkpt lat="47.67581" lon="-3.1963">
        <ele>17.4</ele>
        <time>2021-08-14T14:59:04Z</time>
      </trkpt>
      <trkpt lat="47.67581" lon="-3.19625">
        <ele>17.4</ele>
        <time>2021-08-14T14:59:05Z</time>
      </trkpt>
      <trkpt lat="47.6758" lon="-3.19621">
        <ele>17.4</ele>
        <time>2021-08-14T14:59:06Z</time>
      </trkpt>
      <trkpt lat="47.6758" lon="-3.19617">
        <ele>17.4</ele>
        <time>2021-08-14T14:59:07Z</time>
      </trkpt>
      <trkpt lat="47.6758" lon="-3.19612">
        <ele>17.4</ele>
        <time>2021-08-14T14:59:08Z</time>
      </trkpt>
      <trkpt lat="47.67579" lon="-3.19608">
        <ele>17.4</ele>
        <time>2021-08-14T14:59:09Z</time>
      </trkpt>
      <trkpt lat="47.67578" lon="-3.19603">
        <ele>17.4</ele>
        <time>2021-08-14T14:59:10Z</time>
      </trkpt>
      <trkpt lat="47.67576" lon="-3.19599">
        <ele>17.4</ele>
        <time>2021-08-14T14:59:11Z</time>
      </trkpt>
      <trkpt lat="47.67575" lon="-3.19594">
        <ele>17.2</ele>
        <time>2021-08-14T14:59:12Z</time>
      </trkpt>
      <trkpt lat="47.67573" lon="-3.1959">
        <ele>17.2</ele>
        <time>2021-08-14T14:59:13Z</time>
      </trkpt>
      <trkpt lat="47.67571" lon="-3.19586">
        <ele>17.2</ele>
        <time>2021-08-14T14:59:14Z</time>
      </trkpt>
      <trkpt lat="47.67569" lon="-3.19582">
        <ele>17.2</ele>
        <time>2021-08-14T14:59:15Z</time>
      </trkpt>
      <trkpt lat="47.67568" lon="-3.19578">
        <ele>17.2</ele>
        <time>2021-08-14T14:59:16Z</time>
      </trkpt>
      <trkpt lat="47.67566" lon="-3.19574">
        <ele>17.2</ele>
        <time>2021-08-14T14:59:17Z</time>
      </trkpt>
      <trkpt lat="47.67565" lon="-3.19571">
        <ele>17.2</ele>
        <time>2021-08-14T14:59:18Z</time>
      </trkpt>
      <trkpt lat="47.67563" lon="-3.19567">
        <ele>17.2</ele>
        <time>2021-08-14T14:59:19Z</time>
      </trkpt>
      <trkpt lat="47.67562" lon="-3.19564">
        <ele>17.2</ele>
        <time>2021-08-14T14:59:20Z</time>
      </trkpt>
      <trkpt lat="47.6756" lon="-3.19559">
        <ele>17.2</ele>
        <time>2021-08-14T14:59:21Z</time>
      </trkpt>
      <trkpt lat="47.67558" lon="-3.19555">
        <ele>17.4</ele>
        <time>2021-08-14T14:59:22Z</time>
      </trkpt>
      <trkpt lat="47.67557" lon="-3.1955">
        <ele>17.4</ele>
        <time>2021-08-14T14:59:23Z</time>
      </trkpt>
      <trkpt lat="47.67555" lon="-3.19544">
        <ele>17.8</ele>
        <time>2021-08-14T14:59:24Z</time>
      </trkpt>
      <trkpt lat="47.67554" lon="-3.19538">
        <ele>17.8</ele>
        <time>2021-08-14T14:59:25Z</time>
      </trkpt>
      <trkpt lat="47.67552" lon="-3.19532">
        <ele>18</ele>
        <time>2021-08-14T14:59:26Z</time>
      </trkpt>
      <trkpt lat="47.67549" lon="-3.19527">
        <ele>18</ele>
        <time>2021-08-14T14:59:27Z</time>
      </trkpt>
      <trkpt lat="47.67547" lon="-3.19522">
        <ele>18</ele>
        <time>2021-08-14T14:59:28Z</time>
      </trkpt>
      <trkpt lat="47.67545" lon="-3.19516">
        <ele>18</ele>
        <time>2021-08-14T14:59:29Z</time>
      </trkpt>
      <trkpt lat="47.67542" lon="-3.19511">
        <ele>18</ele>
        <time>2021-08-14T14:59:30Z</time>
      </trkpt>
      <trkpt lat="47.6754" lon="-3.19506">
        <ele>18</ele>
        <time>2021-08-14T14:59:31Z</time>
      </trkpt>
      <trkpt lat="47.67537" lon="-3.195">
        <ele>18</ele>
        <time>2021-08-14T14:59:32Z</time>
      </trkpt>
      <trkpt lat="47.67535" lon="-3.19495">
        <ele>18</ele>
        <time>2021-08-14T14:59:33Z</time>
      </trkpt>
      <trkpt lat="47.67533" lon="-3.19489">
        <ele>18</ele>
        <time>2021-08-14T14:59:34Z</time>
      </trkpt>
      <trkpt lat="47.6753" lon="-3.19483">
        <ele>18.2</ele>
        <time>2021-08-14T14:59:35Z</time>
      </trkpt>
      <trkpt lat="47.67528" lon="-3.19478">
        <ele>18.2</ele>
        <time>2021-08-14T14:59:36Z</time>
      </trkpt>
      <trkpt lat="47.67525" lon="-3.19472">
        <ele>18.2</ele>
        <time>2021-08-14T14:59:37Z</time>
      </trkpt>
      <trkpt lat="47.67522" lon="-3.19467">
        <ele>18.2</ele>
        <time>2021-08-14T14:59:38Z</time>
      </trkpt>
      <trkpt lat="47.6752" lon="-3.19461">
        <ele>18.2</ele>
        <time>2021-08-14T14:59:39Z</time>
      </trkpt>
      <trkpt lat="47.67517" lon="-3.19456">
        <ele>18.2</ele>
        <time>2021-08-14T14:59:40Z</time>
      </trkpt>
      <trkpt lat="47.67515" lon="-3.1945">
        <ele>18.2</ele>
        <time>2021-08-14T14:59:41Z</time>
      </trkpt>
      <trkpt lat="47.67512" lon="-3.19445">
        <ele>18.4</ele>
        <time>2021-08-14T14:59:42Z</time>
      </trkpt>
      <trkpt lat="47.6751" lon="-3.19439">
        <ele>18.4</ele>
        <time>2021-08-14T14:59:43Z</time>
      </trkpt>
      <trkpt lat="47.67507" lon="-3.19433">
        <ele>18.4</ele>
        <time>2021-08-14T14:59:44Z</time>
      </trkpt>
      <trkpt lat="47.67505" lon="-3.19428">
        <ele>18.6</ele>
        <time>2021-08-14T14:59:45Z</time>
      </trkpt>
      <trkpt lat="47.67502" lon="-3.19422">
        <ele>18.6</ele>
        <time>2021-08-14T14:59:46Z</time>
      </trkpt>
      <trkpt lat="47.675" lon="-3.19416">
        <ele>18.6</ele>
        <time>2021-08-14T14:59:47Z</time>
      </trkpt>
      <trkpt lat="47.67497" lon="-3.19411">
        <ele>18.6</ele>
        <time>2021-08-14T14:59:48Z</time>
      </trkpt>
      <trkpt lat="47.67495" lon="-3.19405">
        <ele>18.6</ele>
        <time>2021-08-14T14:59:49Z</time>
      </trkpt>
      <trkpt lat="47.67493" lon="-3.194">
        <ele>18.8</ele>
        <time>2021-08-14T14:59:50Z</time>
      </trkpt>
      <trkpt lat="47.6749" lon="-3.19395">
        <ele>18.8</ele>
        <time>2021-08-14T14:59:51Z</time>
      </trkpt>
      <trkpt lat="47.67488" lon="-3.1939">
        <ele>18.8</ele>
        <time>2021-08-14T14:59:52Z</time>
      </trkpt>
      <trkpt lat="47.67485" lon="-3.19385">
        <ele>19</ele>
        <time>2021-08-14T14:59:53Z</time>
      </trkpt>
      <trkpt lat="47.67483" lon="-3.1938">
        <ele>19</ele>
        <time>2021-08-14T14:59:54Z</time>
      </trkpt>
      <trkpt lat="47.67481" lon="-3.19375">
        <ele>19.2</ele>
        <time>2021-08-14T14:59:55Z</time>
      </trkpt>
      <trkpt lat="47.67479" lon="-3.19371">
        <ele>19.2</ele>
        <time>2021-08-14T14:59:56Z</time>
      </trkpt>
      <trkpt lat="47.67477" lon="-3.19367">
        <ele>19.4</ele>
        <time>2021-08-14T14:59:57Z</time>
      </trkpt>
      <trkpt lat="47.67475" lon="-3.19362">
        <ele>19.4</ele>
        <time>2021-08-14T14:59:58Z</time>
      </trkpt>
      <trkpt lat="47.67473" lon="-3.19358">
        <ele>19.6</ele>
        <time>2021-08-14T14:59:59Z</time>
      </trkpt>
      <trkpt lat="47.67471" lon="-3.19353">
        <ele>19.6</ele>
        <time>2021-08-14T15:00:00Z</time>
      </trkpt>
      <trkpt lat="47.67469" lon="-3.19349">
        <ele>19.8</ele>
        <time>2021-08-14T15:00:01Z</time>
      </trkpt>
      <trkpt lat="47.67467" lon="-3.19344">
        <ele>19.8</ele>
        <time>2021-08-14T15:00:02Z</time>
      </trkpt>
      <trkpt lat="47.67464" lon="-3.19339">
        <ele>20</ele>
        <time>2021-08-14T15:00:03Z</time>
      </trkpt>
      <trkpt lat="47.67462" lon="-3.19334">
        <ele>20</ele>
        <time>2021-08-14T15:00:04Z</time>
      </trkpt>
      <trkpt lat="47.6746" lon="-3.19329">
        <ele>20.2</ele>
        <time>2021-08-14T15:00:05Z</time>
      </trkpt>
      <trkpt lat="47.67458" lon="-3.19323">
        <ele>20.2</ele>
        <time>2021-08-14T15:00:06Z</time>
      </trkpt>
      <trkpt lat="47.67455" lon="-3.19318">
        <ele>20.4</ele>
        <time>2021-08-14T15:00:07Z</time>
      </trkpt>
      <trkpt lat="47.67453" lon="-3.19313">
        <ele>20.6</ele>
        <time>2021-08-14T15:00:08Z</time>
      </trkpt>
      <trkpt lat="47.6745" lon="-3.19308">
        <ele>20.8</ele>
        <time>2021-08-14T15:00:09Z</time>
      </trkpt>
      <trkpt lat="47.67448" lon="-3.19304">
        <ele>20.8</ele>
        <time>2021-08-14T15:00:10Z</time>
      </trkpt>
      <trkpt lat="47.67446" lon="-3.19299">
        <ele>21.2</ele>
        <time>2021-08-14T15:00:11Z</time>
      </trkpt>
      <trkpt lat="47.67443" lon="-3.19294">
        <ele>21.4</ele>
        <time>2021-08-14T15:00:12Z</time>
      </trkpt>
      <trkpt lat="47.67441" lon="-3.19289">
        <ele>21.6</ele>
        <time>2021-08-14T15:00:13Z</time>
      </trkpt>
      <trkpt lat="47.67438" lon="-3.19285">
        <ele>21.8</ele>
        <time>2021-08-14T15:00:14Z</time>
      </trkpt>
      <trkpt lat="47.67436" lon="-3.19281">
        <ele>22</ele>
        <time>2021-08-14T15:00:15Z</time>
      </trkpt>
      <trkpt lat="47.67433" lon="-3.19277">
        <ele>22.2</ele>
        <time>2021-08-14T15:00:16Z</time>
      </trkpt>
      <trkpt lat="47.67431" lon="-3.19273">
        <ele>22.2</ele>
        <time>2021-08-14T15:00:17Z</time>
      </trkpt>
      <trkpt lat="47.67429" lon="-3.19269">
        <ele>22.4</ele>
        <time>2021-08-14T15:00:18Z</time>
      </trkpt>
      <trkpt lat="47.67427" lon="-3.19266">
        <ele>22.4</ele>
        <time>2021-08-14T15:00:19Z</time>
      </trkpt>
      <trkpt lat="47.67425" lon="-3.19262">
        <ele>22.4</ele>
        <time>2021-08-14T15:00:20Z</time>
      </trkpt>
      <trkpt lat="47.67423" lon="-3.19258">
        <ele>22.4</ele>
        <time>2021-08-14T15:00:21Z</time>
      </trkpt>
      <trkpt lat="47.67422" lon="-3.19255">
        <ele>22.4</ele>
        <time>2021-08-14T15:00:22Z</time>
      </trkpt>
      <trkpt lat="47.6742" lon="-3.19252">
        <ele>22.4</ele>
        <time>2021-08-14T15:00:23Z</time>
      </trkpt>
      <trkpt lat="47.67419" lon="-3.1925">
        <ele>22.6</ele>
        <time>2021-08-14T15:00:24Z</time>
      </trkpt>
      <trkpt lat="47.67418" lon="-3.19249">
        <ele>22.6</ele>
        <time>2021-08-14T15:00:25Z</time>
      </trkpt>
      <trkpt lat="47.67418" lon="-3.19248">
        <ele>22.8</ele>
        <time>2021-08-14T15:00:26Z</time>
      </trkpt>
      <trkpt lat="47.67418" lon="-3.1923">
        <ele>24.2</ele>
        <time>2021-08-14T15:03:40Z</time>
      </trkpt>
      <trkpt lat="47.67418" lon="-3.19228">
        <ele>24.2</ele>
        <time>2021-08-14T15:03:41Z</time>
      </trkpt>
      <trkpt lat="47.67417" lon="-3.19225">
        <ele>24.2</ele>
        <time>2021-08-14T15:03:42Z</time>
      </trkpt>
      <trkpt lat="47.67416" lon="-3.19222">
        <ele>24.2</ele>
        <time>2021-08-14T15:03:43Z</time>
      </trkpt>
      <trkpt lat="47.67415" lon="-3.19219">
        <ele>24.2</ele>
        <time>2021-08-14T15:03:44Z</time>
      </trkpt>
      <trkpt lat="47.67414" lon="-3.19216">
        <ele>24.2</ele>
        <time>2021-08-14T15:03:45Z</time>
      </trkpt>
      <trkpt lat="47.67413" lon="-3.19212">
        <ele>24.2</ele>
        <time>2021-08-14T15:03:46Z</time>
      </trkpt>
      <trkpt lat="47.67411" lon="-3.19208">
        <ele>24</ele>
        <time>2021-08-14T15:03:47Z</time>
      </trkpt>
      <trkpt lat="47.67409" lon="-3.19204">
        <ele>24</ele>
        <time>2021-08-14T15:03:48Z</time>
      </trkpt>
      <trkpt lat="47.67407" lon="-3.192">
        <ele>24</ele>
        <time>2021-08-14T15:03:49Z</time>
      </trkpt>
      <trkpt lat="47.67405" lon="-3.19195">
        <ele>24</ele>
        <time>2021-08-14T15:03:50Z</time>
      </trkpt>
      <trkpt lat="47.67402" lon="-3.1919">
        <ele>24</ele>
        <time>2021-08-14T15:03:51Z</time>
      </trkpt>
      <trkpt lat="47.674" lon="-3.19184">
        <ele>24</ele>
        <time>2021-08-14T15:03:52Z</time>
      </trkpt>
      <trkpt lat="47.67397" lon="-3.19179">
        <ele>23.6</ele>
        <time>2021-08-14T15:03:53Z</time>
      </trkpt>
      <trkpt lat="47.67394" lon="-3.19174">
        <ele>23.6</ele>
        <time>2021-08-14T15:03:54Z</time>
      </trkpt>
      <trkpt lat="47.67391" lon="-3.19168">
        <ele>23.8</ele>
        <time>2021-08-14T15:03:55Z</time>
      </trkpt>
      <trkpt lat="47.67388" lon="-3.19163">
        <ele>23.6</ele>
        <time>2021-08-14T15:03:56Z</time>
      </trkpt>
      <trkpt lat="47.67385" lon="-3.19157">
        <ele>23.6</ele>
        <time>2021-08-14T15:03:57Z</time>
      </trkpt>
      <trkpt lat="47.67383" lon="-3.19151">
        <ele>23.4</ele>
        <time>2021-08-14T15:03:58Z</time>
      </trkpt>
      <trkpt lat="47.6738" lon="-3.19145">
        <ele>23.2</ele>
        <time>2021-08-14T15:03:59Z</time>
      </trkpt>
      <trkpt lat="47.67378" lon="-3.1914">
        <ele>23</ele>
        <time>2021-08-14T15:04:00Z</time>
      </trkpt>
      <trkpt lat="47.67375" lon="-3.19134">
        <ele>22.8</ele>
        <time>2021-08-14T15:04:01Z</time>
      </trkpt>
      <trkpt lat="47.67372" lon="-3.19129">
        <ele>22.8</ele>
        <time>2021-08-14T15:04:02Z</time>
      </trkpt>
      <trkpt lat="47.67369" lon="-3.19123">
        <ele>22.8</ele>
        <time>2021-08-14T15:04:03Z</time>
      </trkpt>
      <trkpt lat="47.67367" lon="-3.19117">
        <ele>22.8</ele>
        <time>2021-08-14T15:04:04Z</time>
      </trkpt>
      <trkpt lat="47.67364" lon="-3.19112">
        <ele>22.8</ele>
        <time>2021-08-14T15:04:05Z</time>
      </trkpt>
      <trkpt lat="47.67361" lon="-3.19106">
        <ele>22.8</ele>
        <time>2021-08-14T15:04:06Z</time>
      </trkpt>
      <trkpt lat="47.67359" lon="-3.191">
        <ele>22.8</ele>
        <time>2021-08-14T15:04:07Z</time>
      </trkpt>
      <trkpt lat="47.67356" lon="-3.19094">
        <ele>22.8</ele>
        <time>2021-08-14T15:04:08Z</time>
      </trkpt>
      <trkpt lat="47.67353" lon="-3.19089">
        <ele>22.8</ele>
        <time>2021-08-14T15:04:09Z</time>
      </trkpt>
      <trkpt lat="47.6735" lon="-3.19083">
        <ele>22.8</ele>
        <time>2021-08-14T15:04:10Z</time>
      </trkpt>
      <trkpt lat="47.67347" lon="-3.19077">
        <ele>22.8</ele>
        <time>2021-08-14T15:04:11Z</time>
      </trkpt>
      <trkpt lat="47.67345" lon="-3.19071">
        <ele>22.8</ele>
        <time>2021-08-14T15:04:12Z</time>
      </trkpt>
      <trkpt lat="47.67342" lon="-3.19066">
        <ele>22.8</ele>
        <time>2021-08-14T15:04:13Z</time>
      </trkpt>
      <trkpt lat="47.6734" lon="-3.1906">
        <ele>22.8</ele>
        <time>2021-08-14T15:04:14Z</time>
      </trkpt>
      <trkpt lat="47.67337" lon="-3.19055">
        <ele>22.8</ele>
        <time>2021-08-14T15:04:15Z</time>
      </trkpt>
      <trkpt lat="47.67335" lon="-3.19049">
        <ele>22.8</ele>
        <time>2021-08-14T15:04:16Z</time>
      </trkpt>
      <trkpt lat="47.67333" lon="-3.19044">
        <ele>23</ele>
        <time>2021-08-14T15:04:17Z</time>
      </trkpt>
      <trkpt lat="47.6733" lon="-3.19038">
        <ele>23</ele>
        <time>2021-08-14T15:04:18Z</time>
      </trkpt>
      <trkpt lat="47.67328" lon="-3.19033">
        <ele>23</ele>
        <time>2021-08-14T15:04:19Z</time>
      </trkpt>
      <trkpt lat="47.67325" lon="-3.19027">
        <ele>23</ele>
        <time>2021-08-14T15:04:20Z</time>
      </trkpt>
      <trkpt lat="47.67323" lon="-3.19022">
        <ele>23.2</ele>
        <time>2021-08-14T15:04:21Z</time>
      </trkpt>
      <trkpt lat="47.67321" lon="-3.19017">
        <ele>23.4</ele>
        <time>2021-08-14T15:04:22Z</time>
      </trkpt>
      <trkpt lat="47.67318" lon="-3.19012">
        <ele>23.6</ele>
        <time>2021-08-14T15:04:23Z</time>
      </trkpt>
      <trkpt lat="47.67316" lon="-3.19007">
        <ele>23.8</ele>
        <time>2021-08-14T15:04:24Z</time>
      </trkpt>
      <trkpt lat="47.67313" lon="-3.19002">
        <ele>23.8</ele>
        <time>2021-08-14T15:04:25Z</time>
      </trkpt>
      <trkpt lat="47.67311" lon="-3.18997">
        <ele>24</ele>
        <time>2021-08-14T15:04:26Z</time>
      </trkpt>
      <trkpt lat="47.67309" lon="-3.18992">
        <ele>24</ele>
        <time>2021-08-14T15:04:27Z</time>
      </trkpt>
      <trkpt lat="47.67306" lon="-3.18987">
        <ele>24.2</ele>
        <time>2021-08-14T15:04:28Z</time>
      </trkpt>
      <trkpt lat="47.67304" lon="-3.18981">
        <ele>24.2</ele>
        <time>2021-08-14T15:04:29Z</time>
      </trkpt>
      <trkpt lat="47.67302" lon="-3.18976">
        <ele>24.2</ele>
        <time>2021-08-14T15:04:30Z</time>
      </trkpt>
      <trkpt lat="47.67299" lon="-3.1897">
        <ele>24.4</ele>
        <time>2021-08-14T15:04:31Z</time>
      </trkpt>
      <trkpt lat="47.67297" lon="-3.18964">
        <ele>24.4</ele>
        <time>2021-08-14T15:04:32Z</time>
      </trkpt>
      <trkpt lat="47.67294" lon="-3.18957">
        <ele>24.4</ele>
        <time>2021-08-14T15:04:33Z</time>
      </trkpt>
      <trkpt lat="47.67291" lon="-3.1895">
        <ele>24.4</ele>
        <time>2021-08-14T15:04:34Z</time>
      </trkpt>
      <trkpt lat="47.67288" lon="-3.18943">
        <ele>24.4</ele>
        <time>2021-08-14T15:04:35Z</time>
      </trkpt>
      <trkpt lat="47.67285" lon="-3.18936">
        <ele>24.4</ele>
        <time>2021-08-14T15:04:36Z</time>
      </trkpt>
      <trkpt lat="47.67282" lon="-3.18929">
        <ele>24.4</ele>
        <time>2021-08-14T15:04:37Z</time>
      </trkpt>
      <trkpt lat="47.67279" lon="-3.18922">
        <ele>24.2</ele>
        <time>2021-08-14T15:04:38Z</time>
      </trkpt>
      <trkpt lat="47.67276" lon="-3.18914">
        <ele>24.2</ele>
        <time>2021-08-14T15:04:39Z</time>
      </trkpt>
      <trkpt lat="47.67272" lon="-3.18907">
        <ele>24</ele>
        <time>2021-08-14T15:04:40Z</time>
      </trkpt>
      <trkpt lat="47.67268" lon="-3.18899">
        <ele>23.6</ele>
        <time>2021-08-14T15:04:41Z</time>
      </trkpt>
      <trkpt lat="47.67264" lon="-3.18891">
        <ele>23.4</ele>
        <time>2021-08-14T15:04:42Z</time>
      </trkpt>
      <trkpt lat="47.6726" lon="-3.18883">
        <ele>23.2</ele>
        <time>2021-08-14T15:04:43Z</time>
      </trkpt>
      <trkpt lat="47.67256" lon="-3.18874">
        <ele>23</ele>
        <time>2021-08-14T15:04:44Z</time>
      </trkpt>
      <trkpt lat="47.67253" lon="-3.18866">
        <ele>22.8</ele>
        <time>2021-08-14T15:04:45Z</time>
      </trkpt>
      <trkpt lat="47.67249" lon="-3.18858">
        <ele>22.6</ele>
        <time>2021-08-14T15:04:46Z</time>
      </trkpt>
      <trkpt lat="47.67245" lon="-3.1885">
        <ele>22.2</ele>
        <time>2021-08-14T15:04:47Z</time>
      </trkpt>
      <trkpt lat="47.67242" lon="-3.18842">
        <ele>21.8</ele>
        <time>2021-08-14T15:04:48Z</time>
      </trkpt>
      <trkpt lat="47.67238" lon="-3.18833">
        <ele>21.6</ele>
        <time>2021-08-14T15:04:49Z</time>
      </trkpt>
      <trkpt lat="47.67234" lon="-3.18825">
        <ele>21.2</ele>
        <time>2021-08-14T15:04:50Z</time>
      </trkpt>
      <trkpt lat="47.6723" lon="-3.18817">
        <ele>20.4</ele>
        <time>2021-08-14T15:04:51Z</time>
      </trkpt>
      <trkpt lat="47.67227" lon="-3.18809">
        <ele>19.8</ele>
        <time>2021-08-14T15:04:52Z</time>
      </trkpt>
      <trkpt lat="47.67223" lon="-3.188">
        <ele>19.4</ele>
        <time>2021-08-14T15:04:53Z</time>
      </trkpt>
      <trkpt lat="47.67219" lon="-3.18792">
        <ele>19</ele>
        <time>2021-08-14T15:04:54Z</time>
      </trkpt>
      <trkpt lat="47.67215" lon="-3.18783">
        <ele>18.6</ele>
        <time>2021-08-14T15:04:55Z</time>
      </trkpt>
      <trkpt lat="47.67211" lon="-3.18775">
        <ele>18.2</ele>
        <time>2021-08-14T15:04:56Z</time>
      </trkpt>
      <trkpt lat="47.67207" lon="-3.18766">
        <ele>18.2</ele>
        <time>2021-08-14T15:04:57Z</time>
      </trkpt>
      <trkpt lat="47.67203" lon="-3.18757">
        <ele>18</ele>
        <time>2021-08-14T15:04:58Z</time>
      </trkpt>
      <trkpt lat="47.67199" lon="-3.18749">
        <ele>18</ele>
        <time>2021-08-14T15:04:59Z</time>
      </trkpt>
      <trkpt lat="47.67195" lon="-3.1874">
        <ele>17.8</ele>
        <time>2021-08-14T15:05:00Z</time>
      </trkpt>
      <trkpt lat="47.67192" lon="-3.18731">
        <ele>17.6</ele>
        <time>2021-08-14T15:05:01Z</time>
      </trkpt>
      <trkpt lat="47.67188" lon="-3.18723">
        <ele>17.6</ele>
        <time>2021-08-14T15:05:02Z</time>
      </trkpt>
      <trkpt lat="47.67184" lon="-3.18714">
        <ele>17.6</ele>
        <time>2021-08-14T15:05:03Z</time>
      </trkpt>
      <trkpt lat="47.6718" lon="-3.18706">
        <ele>17.4</ele>
        <time>2021-08-14T15:05:04Z</time>
      </trkpt>
      <trkpt lat="47.67177" lon="-3.18698">
        <ele>17.2</ele>
        <time>2021-08-14T15:05:05Z</time>
      </trkpt>
      <trkpt lat="47.67173" lon="-3.1869">
        <ele>17.2</ele>
        <time>2021-08-14T15:05:06Z</time>
      </trkpt>
      <trkpt lat="47.6717" lon="-3.18682">
        <ele>17</ele>
        <time>2021-08-14T15:05:07Z</time>
      </trkpt>
      <trkpt lat="47.67167" lon="-3.18674">
        <ele>17</ele>
        <time>2021-08-14T15:05:08Z</time>
      </trkpt>
      <trkpt lat="47.67163" lon="-3.18667">
        <ele>17</ele>
        <time>2021-08-14T15:05:09Z</time>
      </trkpt>
      <trkpt lat="47.6716" lon="-3.1866">
        <ele>17</ele>
        <time>2021-08-14T15:05:10Z</time>
      </trkpt>
      <trkpt lat="47.67157" lon="-3.18653">
        <ele>17</ele>
        <time>2021-08-14T15:05:11Z</time>
      </trkpt>
      <trkpt lat="47.67154" lon="-3.18646">
        <ele>17</ele>
        <time>2021-08-14T15:05:12Z</time>
      </trkpt>
      <trkpt lat="47.67151" lon="-3.1864">
        <ele>17</ele>
        <time>2021-08-14T15:05:13Z</time>
      </trkpt>
      <trkpt lat="47.67148" lon="-3.18633">
        <ele>17</ele>
        <time>2021-08-14T15:05:14Z</time>
      </trkpt>
      <trkpt lat="47.67145" lon="-3.18626">
        <ele>17</ele>
        <time>2021-08-14T15:05:15Z</time>
      </trkpt>
      <trkpt lat="47.67141" lon="-3.18619">
        <ele>17</ele>
        <time>2021-08-14T15:05:16Z</time>
      </trkpt>
      <trkpt lat="47.67138" lon="-3.18612">
        <ele>17</ele>
        <time>2021-08-14T15:05:17Z</time>
      </trkpt>
      <trkpt lat="47.67135" lon="-3.18605">
        <ele>17</ele>
        <time>2021-08-14T15:05:18Z</time>
      </trkpt>
      <trkpt lat="47.67132" lon="-3.18598">
        <ele>17</ele>
        <time>2021-08-14T15:05:19Z</time>
      </trkpt>
      <trkpt lat="47.67129" lon="-3.18591">
        <ele>17</ele>
        <time>2021-08-14T15:05:20Z</time>
      </trkpt>
      <trkpt lat="47.67126" lon="-3.18584">
        <ele>17</ele>
        <time>2021-08-14T15:05:21Z</time>
      </trkpt>
      <trkpt lat="47.67123" lon="-3.18577">
        <ele>17</ele>
        <time>2021-08-14T15:05:22Z</time>
      </trkpt>
      <trkpt lat="47.6712" lon="-3.1857">
        <ele>17</ele>
        <time>2021-08-14T15:05:23Z</time>
      </trkpt>
      <trkpt lat="47.67117" lon="-3.18563">
        <ele>17</ele>
        <time>2021-08-14T15:05:24Z</time>
      </trkpt>
      <trkpt lat="47.67114" lon="-3.18556">
        <ele>17</ele>
        <time>2021-08-14T15:05:25Z</time>
      </trkpt>
      <trkpt lat="47.67111" lon="-3.1855">
        <ele>17</ele>
        <time>2021-08-14T15:05:26Z</time>
      </trkpt>
      <trkpt lat="47.67108" lon="-3.18544">
        <ele>17</ele>
        <time>2021-08-14T15:05:27Z</time>
      </trkpt>
      <trkpt lat="47.67106" lon="-3.18538">
        <ele>17</ele>
        <time>2021-08-14T15:05:28Z</time>
      </trkpt>
      <trkpt lat="47.67103" lon="-3.18533">
        <ele>17</ele>
        <time>2021-08-14T15:05:29Z</time>
      </trkpt>
      <trkpt lat="47.671" lon="-3.18527">
        <ele>17</ele>
        <time>2021-08-14T15:05:30Z</time>
      </trkpt>
      <trkpt lat="47.67098" lon="-3.18521">
        <ele>17</ele>
        <time>2021-08-14T15:05:31Z</time>
      </trkpt>
      <trkpt lat="47.67095" lon="-3.18516">
        <ele>17</ele>
        <time>2021-08-14T15:05:32Z</time>
      </trkpt>
      <trkpt lat="47.67093" lon="-3.18511">
        <ele>17</ele>
        <time>2021-08-14T15:05:33Z</time>
      </trkpt>
      <trkpt lat="47.6709" lon="-3.18506">
        <ele>17.2</ele>
        <time>2021-08-14T15:05:34Z</time>
      </trkpt>
      <trkpt lat="47.67087" lon="-3.18501">
        <ele>17.2</ele>
        <time>2021-08-14T15:05:35Z</time>
      </trkpt>
      <trkpt lat="47.67084" lon="-3.18498">
        <ele>17.6</ele>
        <time>2021-08-14T15:05:36Z</time>
      </trkpt>
      <trkpt lat="47.67081" lon="-3.18497">
        <ele>17.8</ele>
        <time>2021-08-14T15:05:37Z</time>
      </trkpt>
      <trkpt lat="47.67077" lon="-3.18498">
        <ele>18</ele>
        <time>2021-08-14T15:05:38Z</time>
      </trkpt>
      <trkpt lat="47.67073" lon="-3.18498">
        <ele>18.2</ele>
        <time>2021-08-14T15:05:39Z</time>
      </trkpt>
      <trkpt lat="47.6707" lon="-3.18496">
        <ele>18.4</ele>
        <time>2021-08-14T15:05:40Z</time>
      </trkpt>
      <trkpt lat="47.67067" lon="-3.18494">
        <ele>18.4</ele>
        <time>2021-08-14T15:05:41Z</time>
      </trkpt>
      <trkpt lat="47.67064" lon="-3.18491">
        <ele>18.6</ele>
        <time>2021-08-14T15:05:42Z</time>
      </trkpt>
      <trkpt lat="47.67062" lon="-3.18487">
        <ele>18.6</ele>
        <time>2021-08-14T15:05:43Z</time>
      </trkpt>
      <trkpt lat="47.6706" lon="-3.18483">
        <ele>18.6</ele>
        <time>2021-08-14T15:05:44Z</time>
      </trkpt>
      <trkpt lat="47.67058" lon="-3.18479">
        <ele>19</ele>
        <time>2021-08-14T15:05:45Z</time>
      </trkpt>
      <trkpt lat="47.67058" lon="-3.18474">
        <ele>19</ele>
        <time>2021-08-14T15:05:46Z</time>
      </trkpt>
      <trkpt lat="47.67058" lon="-3.18469">
        <ele>19.2</ele>
        <time>2021-08-14T15:05:47Z</time>
      </trkpt>
      <trkpt lat="47.67058" lon="-3.18464">
        <ele>19.2</ele>
        <time>2021-08-14T15:05:48Z</time>
      </trkpt>
      <trkpt lat="47.67058" lon="-3.18459">
        <ele>19.4</ele>
        <time>2021-08-14T15:05:49Z</time>
      </trkpt>
      <trkpt lat="47.67057" lon="-3.18454">
        <ele>19.8</ele>
        <time>2021-08-14T15:05:50Z</time>
      </trkpt>
      <trkpt lat="47.67056" lon="-3.18449">
        <ele>20</ele>
        <time>2021-08-14T15:05:51Z</time>
      </trkpt>
      <trkpt lat="47.67054" lon="-3.18444">
        <ele>20.2</ele>
        <time>2021-08-14T15:05:52Z</time>
      </trkpt>
      <trkpt lat="47.67052" lon="-3.18439">
        <ele>20.6</ele>
        <time>2021-08-14T15:05:53Z</time>
      </trkpt>
      <trkpt lat="47.67051" lon="-3.18434">
        <ele>20.6</ele>
        <time>2021-08-14T15:05:54Z</time>
      </trkpt>
      <trkpt lat="47.67048" lon="-3.18429">
        <ele>21</ele>
        <time>2021-08-14T15:05:55Z</time>
      </trkpt>
      <trkpt lat="47.67046" lon="-3.18424">
        <ele>21.2</ele>
        <time>2021-08-14T15:05:56Z</time>
      </trkpt>
      <trkpt lat="47.67043" lon="-3.1842">
        <ele>21.4</ele>
        <time>2021-08-14T15:05:57Z</time>
      </trkpt>
      <trkpt lat="47.67041" lon="-3.18415">
        <ele>21.6</ele>
        <time>2021-08-14T15:05:58Z</time>
      </trkpt>
      <trkpt lat="47.67038" lon="-3.1841">
        <ele>21.6</ele>
        <time>2021-08-14T15:05:59Z</time>
      </trkpt>
      <trkpt lat="47.67036" lon="-3.18405">
        <ele>21.8</ele>
        <time>2021-08-14T15:06:00Z</time>
      </trkpt>
      <trkpt lat="47.67032" lon="-3.18401">
        <ele>21.8</ele>
        <time>2021-08-14T15:06:01Z</time>
      </trkpt>
      <trkpt lat="47.67029" lon="-3.18396">
        <ele>21.8</ele>
        <time>2021-08-14T15:06:02Z</time>
      </trkpt>
      <trkpt lat="47.67026" lon="-3.18392">
        <ele>22</ele>
        <time>2021-08-14T15:06:03Z</time>
      </trkpt>
      <trkpt lat="47.67023" lon="-3.18387">
        <ele>22</ele>
        <time>2021-08-14T15:06:04Z</time>
      </trkpt>
      <trkpt lat="47.6702" lon="-3.18383">
        <ele>22</ele>
        <time>2021-08-14T15:06:05Z</time>
      </trkpt>
      <trkpt lat="47.67016" lon="-3.18379">
        <ele>22</ele>
        <time>2021-08-14T15:06:06Z</time>
      </trkpt>
      <trkpt lat="47.67013" lon="-3.18375">
        <ele>22</ele>
        <time>2021-08-14T15:06:07Z</time>
      </trkpt>
      <trkpt lat="47.6701" lon="-3.18372">
        <ele>22</ele>
        <time>2021-08-14T15:06:08Z</time>
      </trkpt>
      <trkpt lat="47.67007" lon="-3.18368">
        <ele>22</ele>
        <time>2021-08-14T15:06:09Z</time>
      </trkpt>
      <trkpt lat="47.67004" lon="-3.18365">
        <ele>22</ele>
        <time>2021-08-14T15:06:10Z</time>
      </trkpt>
      <trkpt lat="47.67" lon="-3.18361">
        <ele>22</ele>
        <time>2021-08-14T15:06:11Z</time>
      </trkpt>
      <trkpt lat="47.66997" lon="-3.18357">
        <ele>22</ele>
        <time>2021-08-14T15:06:12Z</time>
      </trkpt>
      <trkpt lat="47.66993" lon="-3.18353">
        <ele>22</ele>
        <time>2021-08-14T15:06:13Z</time>
      </trkpt>
      <trkpt lat="47.66989" lon="-3.18349">
        <ele>22</ele>
        <time>2021-08-14T15:06:14Z</time>
      </trkpt>
      <trkpt lat="47.66985" lon="-3.18345">
        <ele>22</ele>
        <time>2021-08-14T15:06:15Z</time>
      </trkpt>
      <trkpt lat="47.66982" lon="-3.18341">
        <ele>22</ele>
        <time>2021-08-14T15:06:16Z</time>
      </trkpt>
      <trkpt lat="47.66978" lon="-3.18337">
        <ele>22</ele>
        <time>2021-08-14T15:06:17Z</time>
      </trkpt>
      <trkpt lat="47.66975" lon="-3.18334">
        <ele>22</ele>
        <time>2021-08-14T15:06:18Z</time>
      </trkpt>
      <trkpt lat="47.66971" lon="-3.1833">
        <ele>22</ele>
        <time>2021-08-14T15:06:19Z</time>
      </trkpt>
      <trkpt lat="47.66967" lon="-3.18326">
        <ele>21.8</ele>
        <time>2021-08-14T15:06:20Z</time>
      </trkpt>
      <trkpt lat="47.66963" lon="-3.18322">
        <ele>21.8</ele>
        <time>2021-08-14T15:06:21Z</time>
      </trkpt>
      <trkpt lat="47.6696" lon="-3.18319">
        <ele>21.8</ele>
        <time>2021-08-14T15:06:22Z</time>
      </trkpt>
      <trkpt lat="47.66956" lon="-3.18315">
        <ele>21.8</ele>
        <time>2021-08-14T15:06:23Z</time>
      </trkpt>
      <trkpt lat="47.66952" lon="-3.18312">
        <ele>21.8</ele>
        <time>2021-08-14T15:06:24Z</time>
      </trkpt>
      <trkpt lat="47.66949" lon="-3.18308">
        <ele>21.6</ele>
        <time>2021-08-14T15:06:25Z</time>
      </trkpt>
      <trkpt lat="47.66945" lon="-3.18304">
        <ele>21.6</ele>
        <time>2021-08-14T15:06:26Z</time>
      </trkpt>
      <trkpt lat="47.66942" lon="-3.18301">
        <ele>21.6</ele>
        <time>2021-08-14T15:06:27Z</time>
      </trkpt>
      <trkpt lat="47.66938" lon="-3.18297">
        <ele>21.6</ele>
        <time>2021-08-14T15:06:28Z</time>
      </trkpt>
      <trkpt lat="47.66935" lon="-3.18294">
        <ele>21.6</ele>
        <time>2021-08-14T15:06:29Z</time>
      </trkpt>
      <trkpt lat="47.66931" lon="-3.1829">
        <ele>21.6</ele>
        <time>2021-08-14T15:06:30Z</time>
      </trkpt>
      <trkpt lat="47.66928" lon="-3.18286">
        <ele>21.6</ele>
        <time>2021-08-14T15:06:31Z</time>
      </trkpt>
      <trkpt lat="47.66925" lon="-3.18283">
        <ele>21.6</ele>
        <time>2021-08-14T15:06:32Z</time>
      </trkpt>
      <trkpt lat="47.66921" lon="-3.18279">
        <ele>21.6</ele>
        <time>2021-08-14T15:06:33Z</time>
      </trkpt>
      <trkpt lat="47.66917" lon="-3.18277">
        <ele>21.6</ele>
        <time>2021-08-14T15:06:34Z</time>
      </trkpt>
      <trkpt lat="47.66913" lon="-3.18274">
        <ele>21.6</ele>
        <time>2021-08-14T15:06:35Z</time>
      </trkpt>
      <trkpt lat="47.6691" lon="-3.1827">
        <ele>21.8</ele>
        <time>2021-08-14T15:06:36Z</time>
      </trkpt>
      <trkpt lat="47.66906" lon="-3.18266">
        <ele>21.8</ele>
        <time>2021-08-14T15:06:37Z</time>
      </trkpt>
      <trkpt lat="47.66903" lon="-3.18262">
        <ele>21.8</ele>
        <time>2021-08-14T15:06:38Z</time>
      </trkpt>
      <trkpt lat="47.66899" lon="-3.18258">
        <ele>21.8</ele>
        <time>2021-08-14T15:06:39Z</time>
      </trkpt>
      <trkpt lat="47.66896" lon="-3.18254">
        <ele>22</ele>
        <time>2021-08-14T15:06:40Z</time>
      </trkpt>
      <trkpt lat="47.66893" lon="-3.1825">
        <ele>22</ele>
        <time>2021-08-14T15:06:41Z</time>
      </trkpt>
      <trkpt lat="47.6689" lon="-3.18246">
        <ele>22</ele>
        <time>2021-08-14T15:06:42Z</time>
      </trkpt>
      <trkpt lat="47.66887" lon="-3.18241">
        <ele>22</ele>
        <time>2021-08-14T15:06:43Z</time>
      </trkpt>
      <trkpt lat="47.66883" lon="-3.18237">
        <ele>22.2</ele>
        <time>2021-08-14T15:06:44Z</time>
      </trkpt>
      <trkpt lat="47.6688" lon="-3.18233">
        <ele>22.2</ele>
        <time>2021-08-14T15:06:45Z</time>
      </trkpt>
      <trkpt lat="47.66876" lon="-3.18229">
        <ele>22.2</ele>
        <time>2021-08-14T15:06:46Z</time>
      </trkpt>
      <trkpt lat="47.66872" lon="-3.18224">
        <ele>22.2</ele>
        <time>2021-08-14T15:06:47Z</time>
      </trkpt>
      <trkpt lat="47.66869" lon="-3.1822">
        <ele>22.4</ele>
        <time>2021-08-14T15:06:48Z</time>
      </trkpt>
      <trkpt lat="47.66865" lon="-3.18215">
        <ele>22.6</ele>
        <time>2021-08-14T15:06:49Z</time>
      </trkpt>
      <trkpt lat="47.66861" lon="-3.18211">
        <ele>22.6</ele>
        <time>2021-08-14T15:06:50Z</time>
      </trkpt>
      <trkpt lat="47.66857" lon="-3.18206">
        <ele>22.6</ele>
        <time>2021-08-14T15:06:51Z</time>
      </trkpt>
      <trkpt lat="47.66853" lon="-3.18201">
        <ele>22.8</ele>
        <time>2021-08-14T15:06:52Z</time>
      </trkpt>
      <trkpt lat="47.66849" lon="-3.18197">
        <ele>22.8</ele>
        <time>2021-08-14T15:06:53Z</time>
      </trkpt>
      <trkpt lat="47.66846" lon="-3.18192">
        <ele>22.8</ele>
        <time>2021-08-14T15:06:54Z</time>
      </trkpt>
      <trkpt lat="47.66842" lon="-3.18188">
        <ele>22.8</ele>
        <time>2021-08-14T15:06:55Z</time>
      </trkpt>
      <trkpt lat="47.66838" lon="-3.18183">
        <ele>23</ele>
        <time>2021-08-14T15:06:56Z</time>
      </trkpt>
      <trkpt lat="47.66835" lon="-3.18179">
        <ele>23</ele>
        <time>2021-08-14T15:06:57Z</time>
      </trkpt>
      <trkpt lat="47.66831" lon="-3.18175">
        <ele>23</ele>
        <time>2021-08-14T15:06:58Z</time>
      </trkpt>
      <trkpt lat="47.66828" lon="-3.18172">
        <ele>23</ele>
        <time>2021-08-14T15:06:59Z</time>
      </trkpt>
      <trkpt lat="47.66824" lon="-3.18168">
        <ele>23.2</ele>
        <time>2021-08-14T15:07:00Z</time>
      </trkpt>
      <trkpt lat="47.66821" lon="-3.18164">
        <ele>23.2</ele>
        <time>2021-08-14T15:07:01Z</time>
      </trkpt>
      <trkpt lat="47.66817" lon="-3.1816">
        <ele>23.2</ele>
        <time>2021-08-14T15:07:02Z</time>
      </trkpt>
      <trkpt lat="47.66814" lon="-3.18157">
        <ele>23.4</ele>
        <time>2021-08-14T15:07:03Z</time>
      </trkpt>
      <trkpt lat="47.6681" lon="-3.18152">
        <ele>23.4</ele>
        <time>2021-08-14T15:07:04Z</time>
      </trkpt>
      <trkpt lat="47.66807" lon="-3.18148">
        <ele>23.6</ele>
        <time>2021-08-14T15:07:05Z</time>
      </trkpt>
      <trkpt lat="47.66803" lon="-3.18144">
        <ele>23.6</ele>
        <time>2021-08-14T15:07:06Z</time>
      </trkpt>
      <trkpt lat="47.668" lon="-3.18141">
        <ele>23.6</ele>
        <time>2021-08-14T15:07:07Z</time>
      </trkpt>
      <trkpt lat="47.66796" lon="-3.18137">
        <ele>23.6</ele>
        <time>2021-08-14T15:07:08Z</time>
      </trkpt>
      <trkpt lat="47.66793" lon="-3.18133">
        <ele>23.6</ele>
        <time>2021-08-14T15:07:09Z</time>
      </trkpt>
      <trkpt lat="47.66789" lon="-3.18129">
        <ele>23.6</ele>
        <time>2021-08-14T15:07:10Z</time>
      </trkpt>
      <trkpt lat="47.66786" lon="-3.18126">
        <ele>23.6</ele>
        <time>2021-08-14T15:07:11Z</time>
      </trkpt>
      <trkpt lat="47.66782" lon="-3.18122">
        <ele>23.8</ele>
        <time>2021-08-14T15:07:12Z</time>
      </trkpt>
      <trkpt lat="47.66779" lon="-3.18118">
        <ele>23.8</ele>
        <time>2021-08-14T15:07:13Z</time>
      </trkpt>
      <trkpt lat="47.66775" lon="-3.18114">
        <ele>23.8</ele>
        <time>2021-08-14T15:07:14Z</time>
      </trkpt>
      <trkpt lat="47.66771" lon="-3.1811">
        <ele>23.8</ele>
        <time>2021-08-14T15:07:15Z</time>
      </trkpt>
      <trkpt lat="47.66767" lon="-3.18105">
        <ele>23.8</ele>
        <time>2021-08-14T15:07:16Z</time>
      </trkpt>
      <trkpt lat="47.66764" lon="-3.18101">
        <ele>23.8</ele>
        <time>2021-08-14T15:07:17Z</time>
      </trkpt>
      <trkpt lat="47.6676" lon="-3.18097">
        <ele>23.8</ele>
        <time>2021-08-14T15:07:18Z</time>
      </trkpt>
      <trkpt lat="47.66756" lon="-3.18093">
        <ele>23.6</ele>
        <time>2021-08-14T15:07:19Z</time>
      </trkpt>
      <trkpt lat="47.66752" lon="-3.18089">
        <ele>23.6</ele>
        <time>2021-08-14T15:07:20Z</time>
      </trkpt>
      <trkpt lat="47.66749" lon="-3.18085">
        <ele>23.6</ele>
        <time>2021-08-14T15:07:21Z</time>
      </trkpt>
      <trkpt lat="47.66745" lon="-3.1808">
        <ele>23.6</ele>
        <time>2021-08-14T15:07:22Z</time>
      </trkpt>
      <trkpt lat="47.66741" lon="-3.18076">
        <ele>23.6</ele>
        <time>2021-08-14T15:07:23Z</time>
      </trkpt>
      <trkpt lat="47.66737" lon="-3.18072">
        <ele>23.6</ele>
        <time>2021-08-14T15:07:24Z</time>
      </trkpt>
      <trkpt lat="47.66733" lon="-3.18068">
        <ele>23.8</ele>
        <time>2021-08-14T15:07:25Z</time>
      </trkpt>
      <trkpt lat="47.6673" lon="-3.18065">
        <ele>23.8</ele>
        <time>2021-08-14T15:07:26Z</time>
      </trkpt>
      <trkpt lat="47.66726" lon="-3.18061">
        <ele>23.8</ele>
        <time>2021-08-14T15:07:27Z</time>
      </trkpt>
      <trkpt lat="47.66722" lon="-3.18057">
        <ele>23.6</ele>
        <time>2021-08-14T15:07:28Z</time>
      </trkpt>
      <trkpt lat="47.66719" lon="-3.18053">
        <ele>23.6</ele>
        <time>2021-08-14T15:07:29Z</time>
      </trkpt>
      <trkpt lat="47.66715" lon="-3.18049">
        <ele>23.6</ele>
        <time>2021-08-14T15:07:30Z</time>
      </trkpt>
      <trkpt lat="47.66711" lon="-3.18045">
        <ele>23.6</ele>
        <time>2021-08-14T15:07:31Z</time>
      </trkpt>
      <trkpt lat="47.66708" lon="-3.18041">
        <ele>23.4</ele>
        <time>2021-08-14T15:07:32Z</time>
      </trkpt>
      <trkpt lat="47.66704" lon="-3.18037">
        <ele>23.4</ele>
        <time>2021-08-14T15:07:33Z</time>
      </trkpt>
      <trkpt lat="47.66701" lon="-3.18033">
        <ele>23.4</ele>
        <time>2021-08-14T15:07:34Z</time>
      </trkpt>
      <trkpt lat="47.66697" lon="-3.18029">
        <ele>23.4</ele>
        <time>2021-08-14T15:07:35Z</time>
      </trkpt>
      <trkpt lat="47.66694" lon="-3.18025">
        <ele>23.6</ele>
        <time>2021-08-14T15:07:36Z</time>
      </trkpt>
      <trkpt lat="47.66691" lon="-3.18022">
        <ele>23.6</ele>
        <time>2021-08-14T15:07:37Z</time>
      </trkpt>
      <trkpt lat="47.66687" lon="-3.18018">
        <ele>23.4</ele>
        <time>2021-08-14T15:07:38Z</time>
      </trkpt>
      <trkpt lat="47.66684" lon="-3.18014">
        <ele>23.4</ele>
        <time>2021-08-14T15:07:39Z</time>
      </trkpt>
      <trkpt lat="47.6668" lon="-3.1801">
        <ele>23.4</ele>
        <time>2021-08-14T15:07:40Z</time>
      </trkpt>
      <trkpt lat="47.66677" lon="-3.18006">
        <ele>23.2</ele>
        <time>2021-08-14T15:07:41Z</time>
      </trkpt>
      <trkpt lat="47.66674" lon="-3.18002">
        <ele>23.2</ele>
        <time>2021-08-14T15:07:42Z</time>
      </trkpt>
      <trkpt lat="47.6667" lon="-3.17998">
        <ele>23</ele>
        <time>2021-08-14T15:07:43Z</time>
      </trkpt>
      <trkpt lat="47.66667" lon="-3.17994">
        <ele>23</ele>
        <time>2021-08-14T15:07:44Z</time>
      </trkpt>
      <trkpt lat="47.66663" lon="-3.17991">
        <ele>23</ele>
        <time>2021-08-14T15:07:45Z</time>
      </trkpt>
      <trkpt lat="47.6666" lon="-3.17986">
        <ele>23</ele>
        <time>2021-08-14T15:07:46Z</time>
      </trkpt>
      <trkpt lat="47.66657" lon="-3.17982">
        <ele>23</ele>
        <time>2021-08-14T15:07:47Z</time>
      </trkpt>
      <trkpt lat="47.66653" lon="-3.17978">
        <ele>23</ele>
        <time>2021-08-14T15:07:48Z</time>
      </trkpt>
      <trkpt lat="47.6665" lon="-3.17973">
        <ele>22.8</ele>
        <time>2021-08-14T15:07:49Z</time>
      </trkpt>
      <trkpt lat="47.66647" lon="-3.1797">
        <ele>22.8</ele>
        <time>2021-08-14T15:07:50Z</time>
      </trkpt>
      <trkpt lat="47.66643" lon="-3.17966">
        <ele>22.8</ele>
        <time>2021-08-14T15:07:51Z</time>
      </trkpt>
      <trkpt lat="47.6664" lon="-3.17962">
        <ele>22.8</ele>
        <time>2021-08-14T15:07:52Z</time>
      </trkpt>
      <trkpt lat="47.66637" lon="-3.17959">
        <ele>22.6</ele>
        <time>2021-08-14T15:07:53Z</time>
      </trkpt>
      <trkpt lat="47.66634" lon="-3.17955">
        <ele>22.6</ele>
        <time>2021-08-14T15:07:54Z</time>
      </trkpt>
      <trkpt lat="47.66631" lon="-3.17952">
        <ele>22.6</ele>
        <time>2021-08-14T15:07:55Z</time>
      </trkpt>
      <trkpt lat="47.66627" lon="-3.17948">
        <ele>22.6</ele>
        <time>2021-08-14T15:07:56Z</time>
      </trkpt>
      <trkpt lat="47.66624" lon="-3.17947">
        <ele>22.4</ele>
        <time>2021-08-14T15:07:57Z</time>
      </trkpt>
      <trkpt lat="47.6662" lon="-3.17947">
        <ele>22.4</ele>
        <time>2021-08-14T15:07:58Z</time>
      </trkpt>
      <trkpt lat="47.66617" lon="-3.17948">
        <ele>22.4</ele>
        <time>2021-08-14T15:07:59Z</time>
      </trkpt>
      <trkpt lat="47.66615" lon="-3.17949">
        <ele>22.4</ele>
        <time>2021-08-14T15:08:00Z</time>
      </trkpt>
      <trkpt lat="47.66613" lon="-3.17948">
        <ele>22.4</ele>
        <time>2021-08-14T15:08:01Z</time>
      </trkpt>
      <trkpt lat="47.66612" lon="-3.17946">
        <ele>22.4</ele>
        <time>2021-08-14T15:08:02Z</time>
      </trkpt>
      <trkpt lat="47.6661" lon="-3.17945">
        <ele>22.4</ele>
        <time>2021-08-14T15:08:03Z</time>
      </trkpt>
      <trkpt lat="47.66608" lon="-3.17943">
        <ele>22.4</ele>
        <time>2021-08-14T15:08:04Z</time>
      </trkpt>
      <trkpt lat="47.66607" lon="-3.1794">
        <ele>22.4</ele>
        <time>2021-08-14T15:08:05Z</time>
      </trkpt>
      <trkpt lat="47.66605" lon="-3.17936">
        <ele>22.4</ele>
        <time>2021-08-14T15:08:06Z</time>
      </trkpt>
      <trkpt lat="47.66604" lon="-3.17931">
        <ele>22.4</ele>
        <time>2021-08-14T15:08:07Z</time>
      </trkpt>
      <trkpt lat="47.66602" lon="-3.17925">
        <ele>22.4</ele>
        <time>2021-08-14T15:08:08Z</time>
      </trkpt>
      <trkpt lat="47.666" lon="-3.1792">
        <ele>22.4</ele>
        <time>2021-08-14T15:08:09Z</time>
      </trkpt>
      <trkpt lat="47.66597" lon="-3.17915">
        <ele>22.4</ele>
        <time>2021-08-14T15:08:10Z</time>
      </trkpt>
      <trkpt lat="47.66593" lon="-3.1791">
        <ele>22.4</ele>
        <time>2021-08-14T15:08:11Z</time>
      </trkpt>
      <trkpt lat="47.6659" lon="-3.17906">
        <ele>22.4</ele>
        <time>2021-08-14T15:08:12Z</time>
      </trkpt>
      <trkpt lat="47.66586" lon="-3.17902">
        <ele>22.2</ele>
        <time>2021-08-14T15:08:13Z</time>
      </trkpt>
      <trkpt lat="47.66583" lon="-3.17898">
        <ele>22.2</ele>
        <time>2021-08-14T15:08:14Z</time>
      </trkpt>
      <trkpt lat="47.66579" lon="-3.17893">
        <ele>22.2</ele>
        <time>2021-08-14T15:08:15Z</time>
      </trkpt>
      <trkpt lat="47.66576" lon="-3.1789">
        <ele>22.2</ele>
        <time>2021-08-14T15:08:16Z</time>
      </trkpt>
      <trkpt lat="47.66572" lon="-3.17886">
        <ele>22.2</ele>
        <time>2021-08-14T15:08:17Z</time>
      </trkpt>
      <trkpt lat="47.66568" lon="-3.17882">
        <ele>22.2</ele>
        <time>2021-08-14T15:08:18Z</time>
      </trkpt>
      <trkpt lat="47.66565" lon="-3.17878">
        <ele>22.2</ele>
        <time>2021-08-14T15:08:19Z</time>
      </trkpt>
      <trkpt lat="47.66561" lon="-3.17874">
        <ele>22.2</ele>
        <time>2021-08-14T15:08:20Z</time>
      </trkpt>
      <trkpt lat="47.66558" lon="-3.17871">
        <ele>22.2</ele>
        <time>2021-08-14T15:08:21Z</time>
      </trkpt>
      <trkpt lat="47.66555" lon="-3.17868">
        <ele>22.4</ele>
        <time>2021-08-14T15:08:22Z</time>
      </trkpt>
      <trkpt lat="47.66552" lon="-3.17864">
        <ele>22.4</ele>
        <time>2021-08-14T15:08:23Z</time>
      </trkpt>
      <trkpt lat="47.66549" lon="-3.1786">
        <ele>22.4</ele>
        <time>2021-08-14T15:08:24Z</time>
      </trkpt>
      <trkpt lat="47.66546" lon="-3.17857">
        <ele>22.4</ele>
        <time>2021-08-14T15:08:25Z</time>
      </trkpt>
      <trkpt lat="47.66544" lon="-3.17854">
        <ele>22.4</ele>
        <time>2021-08-14T15:08:26Z</time>
      </trkpt>
      <trkpt lat="47.66541" lon="-3.17851">
        <ele>22.6</ele>
        <time>2021-08-14T15:08:27Z</time>
      </trkpt>
      <trkpt lat="47.66538" lon="-3.17848">
        <ele>22.6</ele>
        <time>2021-08-14T15:08:28Z</time>
      </trkpt>
      <trkpt lat="47.66535" lon="-3.17844">
        <ele>22.8</ele>
        <time>2021-08-14T15:08:29Z</time>
      </trkpt>
      <trkpt lat="47.66531" lon="-3.17839">
        <ele>22.8</ele>
        <time>2021-08-14T15:08:30Z</time>
      </trkpt>
      <trkpt lat="47.66527" lon="-3.17836">
        <ele>23</ele>
        <time>2021-08-14T15:08:31Z</time>
      </trkpt>
      <trkpt lat="47.66524" lon="-3.17832">
        <ele>23</ele>
        <time>2021-08-14T15:08:32Z</time>
      </trkpt>
      <trkpt lat="47.6652" lon="-3.17828">
        <ele>23</ele>
        <time>2021-08-14T15:08:33Z</time>
      </trkpt>
      <trkpt lat="47.66516" lon="-3.17823">
        <ele>23</ele>
        <time>2021-08-14T15:08:34Z</time>
      </trkpt>
      <trkpt lat="47.66512" lon="-3.17818">
        <ele>23</ele>
        <time>2021-08-14T15:08:35Z</time>
      </trkpt>
      <trkpt lat="47.66507" lon="-3.17814">
        <ele>23</ele>
        <time>2021-08-14T15:08:36Z</time>
      </trkpt>
      <trkpt lat="47.66503" lon="-3.17809">
        <ele>23</ele>
        <time>2021-08-14T15:08:37Z</time>
      </trkpt>
      <trkpt lat="47.66499" lon="-3.17804">
        <ele>23</ele>
        <time>2021-08-14T15:08:38Z</time>
      </trkpt>
      <trkpt lat="47.66494" lon="-3.17799">
        <ele>23</ele>
        <time>2021-08-14T15:08:39Z</time>
      </trkpt>
      <trkpt lat="47.6649" lon="-3.17795">
        <ele>23</ele>
        <time>2021-08-14T15:08:40Z</time>
      </trkpt>
      <trkpt lat="47.66486" lon="-3.1779">
        <ele>23</ele>
        <time>2021-08-14T15:08:41Z</time>
      </trkpt>
      <trkpt lat="47.66481" lon="-3.17786">
        <ele>23</ele>
        <time>2021-08-14T15:08:42Z</time>
      </trkpt>
      <trkpt lat="47.66477" lon="-3.17781">
        <ele>23</ele>
        <time>2021-08-14T15:08:43Z</time>
      </trkpt>
      <trkpt lat="47.66472" lon="-3.17776">
        <ele>23</ele>
        <time>2021-08-14T15:08:44Z</time>
      </trkpt>
      <trkpt lat="47.66468" lon="-3.17771">
        <ele>22.8</ele>
        <time>2021-08-14T15:08:45Z</time>
      </trkpt>
      <trkpt lat="47.66463" lon="-3.17765">
        <ele>22.8</ele>
        <time>2021-08-14T15:08:46Z</time>
      </trkpt>
      <trkpt lat="47.66458" lon="-3.1776">
        <ele>22.6</ele>
        <time>2021-08-14T15:08:47Z</time>
      </trkpt>
      <trkpt lat="47.66453" lon="-3.17754">
        <ele>22.4</ele>
        <time>2021-08-14T15:08:48Z</time>
      </trkpt>
      <trkpt lat="47.66449" lon="-3.17749">
        <ele>22.4</ele>
        <time>2021-08-14T15:08:49Z</time>
      </trkpt>
      <trkpt lat="47.66444" lon="-3.17744">
        <ele>22.4</ele>
        <time>2021-08-14T15:08:50Z</time>
      </trkpt>
      <trkpt lat="47.66439" lon="-3.17739">
        <ele>22.4</ele>
        <time>2021-08-14T15:08:51Z</time>
      </trkpt>
      <trkpt lat="47.66434" lon="-3.17733">
        <ele>22.2</ele>
        <time>2021-08-14T15:08:52Z</time>
      </trkpt>
      <trkpt lat="47.6643" lon="-3.17728">
        <ele>22</ele>
        <time>2021-08-14T15:08:53Z</time>
      </trkpt>
      <trkpt lat="47.66425" lon="-3.17723">
        <ele>22</ele>
        <time>2021-08-14T15:08:54Z</time>
      </trkpt>
      <trkpt lat="47.66421" lon="-3.17718">
        <ele>22</ele>
        <time>2021-08-14T15:08:55Z</time>
      </trkpt>
      <trkpt lat="47.66416" lon="-3.17713">
        <ele>22</ele>
        <time>2021-08-14T15:08:56Z</time>
      </trkpt>
      <trkpt lat="47.66412" lon="-3.17708">
        <ele>21.8</ele>
        <time>2021-08-14T15:08:57Z</time>
      </trkpt>
      <trkpt lat="47.66407" lon="-3.17703">
        <ele>21.8</ele>
        <time>2021-08-14T15:08:58Z</time>
      </trkpt>
      <trkpt lat="47.66403" lon="-3.17698">
        <ele>21.8</ele>
        <time>2021-08-14T15:08:59Z</time>
      </trkpt>
      <trkpt lat="47.66399" lon="-3.17693">
        <ele>21.8</ele>
        <time>2021-08-14T15:09:00Z</time>
      </trkpt>
      <trkpt lat="47.66394" lon="-3.17689">
        <ele>21.8</ele>
        <time>2021-08-14T15:09:01Z</time>
      </trkpt>
      <trkpt lat="47.6639" lon="-3.17685">
        <ele>21.6</ele>
        <time>2021-08-14T15:09:02Z</time>
      </trkpt>
      <trkpt lat="47.66386" lon="-3.1768">
        <ele>21.6</ele>
        <time>2021-08-14T15:09:03Z</time>
      </trkpt>
      <trkpt lat="47.66382" lon="-3.17676">
        <ele>21.8</ele>
        <time>2021-08-14T15:09:04Z</time>
      </trkpt>
      <trkpt lat="47.66378" lon="-3.17671">
        <ele>21.8</ele>
        <time>2021-08-14T15:09:05Z</time>
      </trkpt>
      <trkpt lat="47.66374" lon="-3.17666">
        <ele>21.8</ele>
        <time>2021-08-14T15:09:06Z</time>
      </trkpt>
      <trkpt lat="47.6637" lon="-3.17662">
        <ele>21.8</ele>
        <time>2021-08-14T15:09:07Z</time>
      </trkpt>
      <trkpt lat="47.66367" lon="-3.17658">
        <ele>21.8</ele>
        <time>2021-08-14T15:09:08Z</time>
      </trkpt>
      <trkpt lat="47.66363" lon="-3.17654">
        <ele>21.8</ele>
        <time>2021-08-14T15:09:09Z</time>
      </trkpt>
      <trkpt lat="47.66358" lon="-3.17649">
        <ele>21.8</ele>
        <time>2021-08-14T15:09:10Z</time>
      </trkpt>
      <trkpt lat="47.66354" lon="-3.17643">
        <ele>22</ele>
        <time>2021-08-14T15:09:11Z</time>
      </trkpt>
      <trkpt lat="47.6635" lon="-3.17639">
        <ele>21.8</ele>
        <time>2021-08-14T15:09:12Z</time>
      </trkpt>
      <trkpt lat="47.66345" lon="-3.17634">
        <ele>21.8</ele>
        <time>2021-08-14T15:09:13Z</time>
      </trkpt>
      <trkpt lat="47.66341" lon="-3.1763">
        <ele>21.8</ele>
        <time>2021-08-14T15:09:14Z</time>
      </trkpt>
      <trkpt lat="47.66337" lon="-3.17625">
        <ele>21.8</ele>
        <time>2021-08-14T15:09:15Z</time>
      </trkpt>
      <trkpt lat="47.66333" lon="-3.17621">
        <ele>21.8</ele>
        <time>2021-08-14T15:09:16Z</time>
      </trkpt>
      <trkpt lat="47.66329" lon="-3.17617">
        <ele>21.8</ele>
        <time>2021-08-14T15:09:17Z</time>
      </trkpt>
      <trkpt lat="47.66325" lon="-3.17612">
        <ele>21.8</ele>
        <time>2021-08-14T15:09:18Z</time>
      </trkpt>
      <trkpt lat="47.66321" lon="-3.17607">
        <ele>21.8</ele>
        <time>2021-08-14T15:09:19Z</time>
      </trkpt>
      <trkpt lat="47.66316" lon="-3.17603">
        <ele>21.8</ele>
        <time>2021-08-14T15:09:20Z</time>
      </trkpt>
      <trkpt lat="47.66312" lon="-3.17598">
        <ele>21.6</ele>
        <time>2021-08-14T15:09:21Z</time>
      </trkpt>
      <trkpt lat="47.66308" lon="-3.17593">
        <ele>21.6</ele>
        <time>2021-08-14T15:09:22Z</time>
      </trkpt>
      <trkpt lat="47.66303" lon="-3.17588">
        <ele>21.6</ele>
        <time>2021-08-14T15:09:23Z</time>
      </trkpt>
      <trkpt lat="47.66299" lon="-3.17583">
        <ele>21.6</ele>
        <time>2021-08-14T15:09:24Z</time>
      </trkpt>
      <trkpt lat="47.66295" lon="-3.17579">
        <ele>21.6</ele>
        <time>2021-08-14T15:09:25Z</time>
      </trkpt>
      <trkpt lat="47.6629" lon="-3.17574">
        <ele>21.6</ele>
        <time>2021-08-14T15:09:26Z</time>
      </trkpt>
      <trkpt lat="47.66286" lon="-3.17569">
        <ele>21.6</ele>
        <time>2021-08-14T15:09:27Z</time>
      </trkpt>
      <trkpt lat="47.66282" lon="-3.17565">
        <ele>21.4</ele>
        <time>2021-08-14T15:09:28Z</time>
      </trkpt>
      <trkpt lat="47.66278" lon="-3.1756">
        <ele>21.4</ele>
        <time>2021-08-14T15:09:29Z</time>
      </trkpt>
      <trkpt lat="47.66274" lon="-3.17556">
        <ele>21.4</ele>
        <time>2021-08-14T15:09:30Z</time>
      </trkpt>
      <trkpt lat="47.6627" lon="-3.17551">
        <ele>21.4</ele>
        <time>2021-08-14T15:09:31Z</time>
      </trkpt>
      <trkpt lat="47.66266" lon="-3.17547">
        <ele>21.4</ele>
        <time>2021-08-14T15:09:32Z</time>
      </trkpt>
      <trkpt lat="47.66262" lon="-3.17543">
        <ele>21.4</ele>
        <time>2021-08-14T15:09:33Z</time>
      </trkpt>
      <trkpt lat="47.66258" lon="-3.17538">
        <ele>21.4</ele>
        <time>2021-08-14T15:09:34Z</time>
      </trkpt>
      <trkpt lat="47.66254" lon="-3.17534">
        <ele>21.4</ele>
        <time>2021-08-14T15:09:35Z</time>
      </trkpt>
      <trkpt lat="47.6625" lon="-3.17529">
        <ele>21.4</ele>
        <time>2021-08-14T15:09:36Z</time>
      </trkpt>
      <trkpt lat="47.66245" lon="-3.17524">
        <ele>21.4</ele>
        <time>2021-08-14T15:09:37Z</time>
      </trkpt>
      <trkpt lat="47.66241" lon="-3.1752">
        <ele>21.6</ele>
        <time>2021-08-14T15:09:38Z</time>
      </trkpt>
      <trkpt lat="47.66236" lon="-3.17515">
        <ele>21.6</ele>
        <time>2021-08-14T15:09:39Z</time>
      </trkpt>
      <trkpt lat="47.66232" lon="-3.1751">
        <ele>21.6</ele>
        <time>2021-08-14T15:09:40Z</time>
      </trkpt>
      <trkpt lat="47.66228" lon="-3.17505">
        <ele>21.6</ele>
        <time>2021-08-14T15:09:41Z</time>
      </trkpt>
      <trkpt lat="47.66223" lon="-3.175">
        <ele>21.6</ele>
        <time>2021-08-14T15:09:42Z</time>
      </trkpt>
      <trkpt lat="47.66218" lon="-3.17495">
        <ele>21.6</ele>
        <time>2021-08-14T15:09:43Z</time>
      </trkpt>
      <trkpt lat="47.66214" lon="-3.17489">
        <ele>21.6</ele>
        <time>2021-08-14T15:09:44Z</time>
      </trkpt>
      <trkpt lat="47.6621" lon="-3.17484">
        <ele>21.8</ele>
        <time>2021-08-14T15:09:45Z</time>
      </trkpt>
      <trkpt lat="47.66205" lon="-3.1748">
        <ele>21.8</ele>
        <time>2021-08-14T15:09:46Z</time>
      </trkpt>
      <trkpt lat="47.66201" lon="-3.17475">
        <ele>21.8</ele>
        <time>2021-08-14T15:09:47Z</time>
      </trkpt>
      <trkpt lat="47.66197" lon="-3.17471">
        <ele>21.8</ele>
        <time>2021-08-14T15:09:48Z</time>
      </trkpt>
      <trkpt lat="47.66193" lon="-3.17467">
        <ele>21.8</ele>
        <time>2021-08-14T15:09:49Z</time>
      </trkpt>
      <trkpt lat="47.66189" lon="-3.17462">
        <ele>22</ele>
        <time>2021-08-14T15:09:50Z</time>
      </trkpt>
      <trkpt lat="47.66185" lon="-3.17458">
        <ele>22</ele>
        <time>2021-08-14T15:09:51Z</time>
      </trkpt>
      <trkpt lat="47.66181" lon="-3.17453">
        <ele>22</ele>
        <time>2021-08-14T15:09:52Z</time>
      </trkpt>
      <trkpt lat="47.66177" lon="-3.17449">
        <ele>22.2</ele>
        <time>2021-08-14T15:09:53Z</time>
      </trkpt>
      <trkpt lat="47.66172" lon="-3.17444">
        <ele>22.2</ele>
        <time>2021-08-14T15:09:54Z</time>
      </trkpt>
      <trkpt lat="47.66168" lon="-3.17439">
        <ele>22.2</ele>
        <time>2021-08-14T15:09:55Z</time>
      </trkpt>
      <trkpt lat="47.66164" lon="-3.17435">
        <ele>22.2</ele>
        <time>2021-08-14T15:09:56Z</time>
      </trkpt>
      <trkpt lat="47.6616" lon="-3.1743">
        <ele>22.2</ele>
        <time>2021-08-14T15:09:57Z</time>
      </trkpt>
      <trkpt lat="47.66156" lon="-3.17425">
        <ele>22.4</ele>
        <time>2021-08-14T15:09:58Z</time>
      </trkpt>
      <trkpt lat="47.66151" lon="-3.17421">
        <ele>22.4</ele>
        <time>2021-08-14T15:09:59Z</time>
      </trkpt>
      <trkpt lat="47.66147" lon="-3.17416">
        <ele>22.4</ele>
        <time>2021-08-14T15:10:00Z</time>
      </trkpt>
      <trkpt lat="47.66143" lon="-3.17411">
        <ele>22.4</ele>
        <time>2021-08-14T15:10:01Z</time>
      </trkpt>
      <trkpt lat="47.66138" lon="-3.17406">
        <ele>22.4</ele>
        <time>2021-08-14T15:10:02Z</time>
      </trkpt>
      <trkpt lat="47.66134" lon="-3.17401">
        <ele>22.4</ele>
        <time>2021-08-14T15:10:03Z</time>
      </trkpt>
      <trkpt lat="47.66129" lon="-3.17396">
        <ele>22.4</ele>
        <time>2021-08-14T15:10:04Z</time>
      </trkpt>
      <trkpt lat="47.66124" lon="-3.17391">
        <ele>22.2</ele>
        <time>2021-08-14T15:10:05Z</time>
      </trkpt>
      <trkpt lat="47.66119" lon="-3.17386">
        <ele>22.2</ele>
        <time>2021-08-14T15:10:06Z</time>
      </trkpt>
      <trkpt lat="47.66115" lon="-3.1738">
        <ele>22</ele>
        <time>2021-08-14T15:10:07Z</time>
      </trkpt>
      <trkpt lat="47.6611" lon="-3.17374">
        <ele>21.8</ele>
        <time>2021-08-14T15:10:08Z</time>
      </trkpt>
      <trkpt lat="47.66105" lon="-3.17369">
        <ele>21.8</ele>
        <time>2021-08-14T15:10:09Z</time>
      </trkpt>
      <trkpt lat="47.661" lon="-3.17363">
        <ele>21.6</ele>
        <time>2021-08-14T15:10:10Z</time>
      </trkpt>
      <trkpt lat="47.66095" lon="-3.17358">
        <ele>21.4</ele>
        <time>2021-08-14T15:10:11Z</time>
      </trkpt>
      <trkpt lat="47.6609" lon="-3.17352">
        <ele>21.2</ele>
        <time>2021-08-14T15:10:12Z</time>
      </trkpt>
      <trkpt lat="47.66084" lon="-3.17347">
        <ele>21.2</ele>
        <time>2021-08-14T15:10:13Z</time>
      </trkpt>
      <trkpt lat="47.66079" lon="-3.17341">
        <ele>21</ele>
        <time>2021-08-14T15:10:14Z</time>
      </trkpt>
      <trkpt lat="47.66074" lon="-3.17336">
        <ele>21</ele>
        <time>2021-08-14T15:10:15Z</time>
      </trkpt>
      <trkpt lat="47.66069" lon="-3.17331">
        <ele>20.8</ele>
        <time>2021-08-14T15:10:16Z</time>
      </trkpt>
      <trkpt lat="47.66064" lon="-3.17327">
        <ele>20.6</ele>
        <time>2021-08-14T15:10:17Z</time>
      </trkpt>
      <trkpt lat="47.66059" lon="-3.17322">
        <ele>20.4</ele>
        <time>2021-08-14T15:10:18Z</time>
      </trkpt>
      <trkpt lat="47.66054" lon="-3.17317">
        <ele>20.2</ele>
        <time>2021-08-14T15:10:19Z</time>
      </trkpt>
      <trkpt lat="47.66049" lon="-3.17312">
        <ele>20</ele>
        <time>2021-08-14T15:10:20Z</time>
      </trkpt>
      <trkpt lat="47.66044" lon="-3.17307">
        <ele>19.8</ele>
        <time>2021-08-14T15:10:21Z</time>
      </trkpt>
      <trkpt lat="47.66038" lon="-3.17302">
        <ele>19.6</ele>
        <time>2021-08-14T15:10:22Z</time>
      </trkpt>
      <trkpt lat="47.66032" lon="-3.17296">
        <ele>19.6</ele>
        <time>2021-08-14T15:10:23Z</time>
      </trkpt>
      <trkpt lat="47.66026" lon="-3.17291">
        <ele>19.4</ele>
        <time>2021-08-14T15:10:24Z</time>
      </trkpt>
      <trkpt lat="47.6602" lon="-3.17286">
        <ele>19.4</ele>
        <time>2021-08-14T15:10:25Z</time>
      </trkpt>
      <trkpt lat="47.66014" lon="-3.17281">
        <ele>19.2</ele>
        <time>2021-08-14T15:10:26Z</time>
      </trkpt>
      <trkpt lat="47.66008" lon="-3.17276">
        <ele>19</ele>
        <time>2021-08-14T15:10:27Z</time>
      </trkpt>
      <trkpt lat="47.66002" lon="-3.17272">
        <ele>19</ele>
        <time>2021-08-14T15:10:28Z</time>
      </trkpt>
      <trkpt lat="47.65996" lon="-3.17267">
        <ele>18.8</ele>
        <time>2021-08-14T15:10:29Z</time>
      </trkpt>
      <trkpt lat="47.65989" lon="-3.17261">
        <ele>18.8</ele>
        <time>2021-08-14T15:10:30Z</time>
      </trkpt>
      <trkpt lat="47.65983" lon="-3.17256">
        <ele>18.8</ele>
        <time>2021-08-14T15:10:31Z</time>
      </trkpt>
      <trkpt lat="47.65977" lon="-3.17252">
        <ele>18.8</ele>
        <time>2021-08-14T15:10:32Z</time>
      </trkpt>
      <trkpt lat="47.65971" lon="-3.17247">
        <ele>18.6</ele>
        <time>2021-08-14T15:10:33Z</time>
      </trkpt>
      <trkpt lat="47.65965" lon="-3.17243">
        <ele>18.6</ele>
        <time>2021-08-14T15:10:34Z</time>
      </trkpt>
      <trkpt lat="47.65959" lon="-3.17238">
        <ele>18.6</ele>
        <time>2021-08-14T15:10:35Z</time>
      </trkpt>
      <trkpt lat="47.65953" lon="-3.17234">
        <ele>18.4</ele>
        <time>2021-08-14T15:10:36Z</time>
      </trkpt>
      <trkpt lat="47.65948" lon="-3.17229">
        <ele>18.4</ele>
        <time>2021-08-14T15:10:37Z</time>
      </trkpt>
      <trkpt lat="47.65942" lon="-3.17224">
        <ele>18.2</ele>
        <time>2021-08-14T15:10:38Z</time>
      </trkpt>
      <trkpt lat="47.65936" lon="-3.1722">
        <ele>18</ele>
        <time>2021-08-14T15:10:39Z</time>
      </trkpt>
      <trkpt lat="47.6593" lon="-3.17216">
        <ele>17.8</ele>
        <time>2021-08-14T15:10:40Z</time>
      </trkpt>
      <trkpt lat="47.65924" lon="-3.17211">
        <ele>17.6</ele>
        <time>2021-08-14T15:10:41Z</time>
      </trkpt>
      <trkpt lat="47.65918" lon="-3.17207">
        <ele>17.4</ele>
        <time>2021-08-14T15:10:42Z</time>
      </trkpt>
      <trkpt lat="47.65912" lon="-3.17202">
        <ele>17.2</ele>
        <time>2021-08-14T15:10:43Z</time>
      </trkpt>
      <trkpt lat="47.65907" lon="-3.17198">
        <ele>17</ele>
        <time>2021-08-14T15:10:44Z</time>
      </trkpt>
      <trkpt lat="47.65901" lon="-3.17194">
        <ele>17</ele>
        <time>2021-08-14T15:10:45Z</time>
      </trkpt>
      <trkpt lat="47.65896" lon="-3.1719">
        <ele>16.8</ele>
        <time>2021-08-14T15:10:46Z</time>
      </trkpt>
      <trkpt lat="47.65891" lon="-3.17186">
        <ele>16.8</ele>
        <time>2021-08-14T15:10:47Z</time>
      </trkpt>
      <trkpt lat="47.65885" lon="-3.17181">
        <ele>16.6</ele>
        <time>2021-08-14T15:10:48Z</time>
      </trkpt>
      <trkpt lat="47.6588" lon="-3.17177">
        <ele>16.6</ele>
        <time>2021-08-14T15:10:49Z</time>
      </trkpt>
      <trkpt lat="47.65875" lon="-3.17173">
        <ele>16.6</ele>
        <time>2021-08-14T15:10:50Z</time>
      </trkpt>
      <trkpt lat="47.65869" lon="-3.17168">
        <ele>16.4</ele>
        <time>2021-08-14T15:10:51Z</time>
      </trkpt>
      <trkpt lat="47.65864" lon="-3.17164">
        <ele>16.4</ele>
        <time>2021-08-14T15:10:52Z</time>
      </trkpt>
      <trkpt lat="47.65858" lon="-3.1716">
        <ele>16.2</ele>
        <time>2021-08-14T15:10:53Z</time>
      </trkpt>
      <trkpt lat="47.65853" lon="-3.17155">
        <ele>16.2</ele>
        <time>2021-08-14T15:10:54Z</time>
      </trkpt>
      <trkpt lat="47.65847" lon="-3.17151">
        <ele>16.2</ele>
        <time>2021-08-14T15:10:55Z</time>
      </trkpt>
      <trkpt lat="47.65842" lon="-3.17147">
        <ele>16.2</ele>
        <time>2021-08-14T15:10:56Z</time>
      </trkpt>
      <trkpt lat="47.65836" lon="-3.17142">
        <ele>16.2</ele>
        <time>2021-08-14T15:10:57Z</time>
      </trkpt>
      <trkpt lat="47.6583" lon="-3.17138">
        <ele>16</ele>
        <time>2021-08-14T15:10:58Z</time>
      </trkpt>
      <trkpt lat="47.65825" lon="-3.17133">
        <ele>16</ele>
        <time>2021-08-14T15:10:59Z</time>
      </trkpt>
      <trkpt lat="47.6582" lon="-3.17129">
        <ele>16</ele>
        <time>2021-08-14T15:11:00Z</time>
      </trkpt>
      <trkpt lat="47.65814" lon="-3.17125">
        <ele>16</ele>
        <time>2021-08-14T15:11:01Z</time>
      </trkpt>
      <trkpt lat="47.65809" lon="-3.17121">
        <ele>16</ele>
        <time>2021-08-14T15:11:02Z</time>
      </trkpt>
      <trkpt lat="47.65804" lon="-3.17117">
        <ele>16</ele>
        <time>2021-08-14T15:11:03Z</time>
      </trkpt>
      <trkpt lat="47.65798" lon="-3.17112">
        <ele>16</ele>
        <time>2021-08-14T15:11:04Z</time>
      </trkpt>
      <trkpt lat="47.65793" lon="-3.17108">
        <ele>16</ele>
        <time>2021-08-14T15:11:05Z</time>
      </trkpt>
      <trkpt lat="47.65788" lon="-3.17104">
        <ele>16</ele>
        <time>2021-08-14T15:11:06Z</time>
      </trkpt>
      <trkpt lat="47.65783" lon="-3.171">
        <ele>16</ele>
        <time>2021-08-14T15:11:07Z</time>
      </trkpt>
      <trkpt lat="47.65778" lon="-3.17096">
        <ele>16</ele>
        <time>2021-08-14T15:11:08Z</time>
      </trkpt>
      <trkpt lat="47.65773" lon="-3.17092">
        <ele>16</ele>
        <time>2021-08-14T15:11:09Z</time>
      </trkpt>
      <trkpt lat="47.65768" lon="-3.17089">
        <ele>16</ele>
        <time>2021-08-14T15:11:10Z</time>
      </trkpt>
      <trkpt lat="47.65763" lon="-3.17085">
        <ele>16</ele>
        <time>2021-08-14T15:11:11Z</time>
      </trkpt>
      <trkpt lat="47.65758" lon="-3.17081">
        <ele>16</ele>
        <time>2021-08-14T15:11:12Z</time>
      </trkpt>
      <trkpt lat="47.65754" lon="-3.17078">
        <ele>16</ele>
        <time>2021-08-14T15:11:13Z</time>
      </trkpt>
      <trkpt lat="47.65749" lon="-3.17074">
        <ele>16</ele>
        <time>2021-08-14T15:11:14Z</time>
      </trkpt>
      <trkpt lat="47.65744" lon="-3.1707">
        <ele>16.2</ele>
        <time>2021-08-14T15:11:15Z</time>
      </trkpt>
      <trkpt lat="47.65739" lon="-3.17066">
        <ele>16.2</ele>
        <time>2021-08-14T15:11:16Z</time>
      </trkpt>
      <trkpt lat="47.65734" lon="-3.17062">
        <ele>16.2</ele>
        <time>2021-08-14T15:11:17Z</time>
      </trkpt>
      <trkpt lat="47.65729" lon="-3.17058">
        <ele>16.2</ele>
        <time>2021-08-14T15:11:18Z</time>
      </trkpt>
      <trkpt lat="47.65724" lon="-3.17054">
        <ele>16.2</ele>
        <time>2021-08-14T15:11:19Z</time>
      </trkpt>
      <trkpt lat="47.65719" lon="-3.1705">
        <ele>16.4</ele>
        <time>2021-08-14T15:11:20Z</time>
      </trkpt>
      <trkpt lat="47.65715" lon="-3.17047">
        <ele>16.4</ele>
        <time>2021-08-14T15:11:21Z</time>
      </trkpt>
      <trkpt lat="47.65711" lon="-3.17044">
        <ele>16.4</ele>
        <time>2021-08-14T15:11:22Z</time>
      </trkpt>
      <trkpt lat="47.65707" lon="-3.17041">
        <ele>16.6</ele>
        <time>2021-08-14T15:11:23Z</time>
      </trkpt>
      <trkpt lat="47.65703" lon="-3.17038">
        <ele>16.8</ele>
        <time>2021-08-14T15:11:24Z</time>
      </trkpt>
      <trkpt lat="47.65699" lon="-3.17034">
        <ele>16.8</ele>
        <time>2021-08-14T15:11:25Z</time>
      </trkpt>
      <trkpt lat="47.65695" lon="-3.17031">
        <ele>16.8</ele>
        <time>2021-08-14T15:11:26Z</time>
      </trkpt>
      <trkpt lat="47.6569" lon="-3.17027">
        <ele>17</ele>
        <time>2021-08-14T15:11:27Z</time>
      </trkpt>
      <trkpt lat="47.65685" lon="-3.17024">
        <ele>17</ele>
        <time>2021-08-14T15:11:28Z</time>
      </trkpt>
      <trkpt lat="47.65681" lon="-3.1702">
        <ele>17.2</ele>
        <time>2021-08-14T15:11:29Z</time>
      </trkpt>
      <trkpt lat="47.65676" lon="-3.17016">
        <ele>17.2</ele>
        <time>2021-08-14T15:11:30Z</time>
      </trkpt>
      <trkpt lat="47.65671" lon="-3.17012">
        <ele>17.2</ele>
        <time>2021-08-14T15:11:31Z</time>
      </trkpt>
      <trkpt lat="47.65666" lon="-3.17008">
        <ele>17.2</ele>
        <time>2021-08-14T15:11:32Z</time>
      </trkpt>
      <trkpt lat="47.65661" lon="-3.17005">
        <ele>17.4</ele>
        <time>2021-08-14T15:11:33Z</time>
      </trkpt>
      <trkpt lat="47.65657" lon="-3.17001">
        <ele>17.4</ele>
        <time>2021-08-14T15:11:34Z</time>
      </trkpt>
      <trkpt lat="47.65652" lon="-3.16997">
        <ele>17.4</ele>
        <time>2021-08-14T15:11:35Z</time>
      </trkpt>
      <trkpt lat="47.65647" lon="-3.16994">
        <ele>17.4</ele>
        <time>2021-08-14T15:11:36Z</time>
      </trkpt>
      <trkpt lat="47.65643" lon="-3.1699">
        <ele>17.4</ele>
        <time>2021-08-14T15:11:37Z</time>
      </trkpt>
      <trkpt lat="47.65638" lon="-3.16987">
        <ele>17.6</ele>
        <time>2021-08-14T15:11:38Z</time>
      </trkpt>
      <trkpt lat="47.65634" lon="-3.16983">
        <ele>17.6</ele>
        <time>2021-08-14T15:11:39Z</time>
      </trkpt>
      <trkpt lat="47.65629" lon="-3.1698">
        <ele>17.6</ele>
        <time>2021-08-14T15:11:40Z</time>
      </trkpt>
      <trkpt lat="47.65625" lon="-3.16976">
        <ele>17.6</ele>
        <time>2021-08-14T15:11:41Z</time>
      </trkpt>
      <trkpt lat="47.6562" lon="-3.16972">
        <ele>17.6</ele>
        <time>2021-08-14T15:11:42Z</time>
      </trkpt>
      <trkpt lat="47.65616" lon="-3.16969">
        <ele>17.6</ele>
        <time>2021-08-14T15:11:43Z</time>
      </trkpt>
      <trkpt lat="47.65611" lon="-3.16966">
        <ele>17.8</ele>
        <time>2021-08-14T15:11:44Z</time>
      </trkpt>
      <trkpt lat="47.65607" lon="-3.16962">
        <ele>17.8</ele>
        <time>2021-08-14T15:11:45Z</time>
      </trkpt>
      <trkpt lat="47.65603" lon="-3.16958">
        <ele>18</ele>
        <time>2021-08-14T15:11:46Z</time>
      </trkpt>
      <trkpt lat="47.65598" lon="-3.16955">
        <ele>18.2</ele>
        <time>2021-08-14T15:11:47Z</time>
      </trkpt>
      <trkpt lat="47.65594" lon="-3.16951">
        <ele>18.6</ele>
        <time>2021-08-14T15:11:48Z</time>
      </trkpt>
      <trkpt lat="47.6559" lon="-3.16948">
        <ele>18.6</ele>
        <time>2021-08-14T15:11:49Z</time>
      </trkpt>
      <trkpt lat="47.65586" lon="-3.16945">
        <ele>18.8</ele>
        <time>2021-08-14T15:11:50Z</time>
      </trkpt>
      <trkpt lat="47.65583" lon="-3.16942">
        <ele>18.8</ele>
        <time>2021-08-14T15:11:51Z</time>
      </trkpt>
      <trkpt lat="47.65579" lon="-3.16938">
        <ele>18.8</ele>
        <time>2021-08-14T15:11:52Z</time>
      </trkpt>
      <trkpt lat="47.65576" lon="-3.16935">
        <ele>19</ele>
        <time>2021-08-14T15:11:53Z</time>
      </trkpt>
      <trkpt lat="47.65573" lon="-3.16932">
        <ele>19</ele>
        <time>2021-08-14T15:11:54Z</time>
      </trkpt>
      <trkpt lat="47.6557" lon="-3.16929">
        <ele>19</ele>
        <time>2021-08-14T15:11:55Z</time>
      </trkpt>
      <trkpt lat="47.65567" lon="-3.16926">
        <ele>19.2</ele>
        <time>2021-08-14T15:11:56Z</time>
      </trkpt>
      <trkpt lat="47.65564" lon="-3.16923">
        <ele>19.4</ele>
        <time>2021-08-14T15:11:57Z</time>
      </trkpt>
      <trkpt lat="47.65561" lon="-3.1692">
        <ele>19.6</ele>
        <time>2021-08-14T15:11:58Z</time>
      </trkpt>
      <trkpt lat="47.65558" lon="-3.16917">
        <ele>19.8</ele>
        <time>2021-08-14T15:11:59Z</time>
      </trkpt>
      <trkpt lat="47.65554" lon="-3.16913">
        <ele>19.8</ele>
        <time>2021-08-14T15:12:00Z</time>
      </trkpt>
      <trkpt lat="47.65551" lon="-3.1691">
        <ele>20</ele>
        <time>2021-08-14T15:12:01Z</time>
      </trkpt>
      <trkpt lat="47.65548" lon="-3.16906">
        <ele>20</ele>
        <time>2021-08-14T15:12:02Z</time>
      </trkpt>
      <trkpt lat="47.65544" lon="-3.16903">
        <ele>20.2</ele>
        <time>2021-08-14T15:12:03Z</time>
      </trkpt>
      <trkpt lat="47.65541" lon="-3.16899">
        <ele>20.2</ele>
        <time>2021-08-14T15:12:04Z</time>
      </trkpt>
      <trkpt lat="47.65538" lon="-3.16896">
        <ele>20.2</ele>
        <time>2021-08-14T15:12:05Z</time>
      </trkpt>
      <trkpt lat="47.65534" lon="-3.16892">
        <ele>20.2</ele>
        <time>2021-08-14T15:12:06Z</time>
      </trkpt>
      <trkpt lat="47.6553" lon="-3.16888">
        <ele>20.2</ele>
        <time>2021-08-14T15:12:07Z</time>
      </trkpt>
      <trkpt lat="47.65526" lon="-3.16884">
        <ele>20.2</ele>
        <time>2021-08-14T15:12:08Z</time>
      </trkpt>
      <trkpt lat="47.65522" lon="-3.1688">
        <ele>20.2</ele>
        <time>2021-08-14T15:12:09Z</time>
      </trkpt>
      <trkpt lat="47.65518" lon="-3.16875">
        <ele>20.2</ele>
        <time>2021-08-14T15:12:10Z</time>
      </trkpt>
      <trkpt lat="47.65515" lon="-3.16871">
        <ele>20.2</ele>
        <time>2021-08-14T15:12:11Z</time>
      </trkpt>
      <trkpt lat="47.65511" lon="-3.16867">
        <ele>20.4</ele>
        <time>2021-08-14T15:12:12Z</time>
      </trkpt>
      <trkpt lat="47.65507" lon="-3.16863">
        <ele>20.4</ele>
        <time>2021-08-14T15:12:13Z</time>
      </trkpt>
      <trkpt lat="47.65503" lon="-3.16859">
        <ele>20.4</ele>
        <time>2021-08-14T15:12:14Z</time>
      </trkpt>
      <trkpt lat="47.65499" lon="-3.16855">
        <ele>20.4</ele>
        <time>2021-08-14T15:12:15Z</time>
      </trkpt>
      <trkpt lat="47.65495" lon="-3.16851">
        <ele>20.4</ele>
        <time>2021-08-14T15:12:16Z</time>
      </trkpt>
      <trkpt lat="47.65491" lon="-3.16846">
        <ele>20.4</ele>
        <time>2021-08-14T15:12:17Z</time>
      </trkpt>
      <trkpt lat="47.65486" lon="-3.16842">
        <ele>20.2</ele>
        <time>2021-08-14T15:12:18Z</time>
      </trkpt>
      <trkpt lat="47.65482" lon="-3.16837">
        <ele>20.2</ele>
        <time>2021-08-14T15:12:19Z</time>
      </trkpt>
      <trkpt lat="47.65477" lon="-3.16832">
        <ele>20.2</ele>
        <time>2021-08-14T15:12:20Z</time>
      </trkpt>
      <trkpt lat="47.65472" lon="-3.16827">
        <ele>20.2</ele>
        <time>2021-08-14T15:12:21Z</time>
      </trkpt>
      <trkpt lat="47.65468" lon="-3.16822">
        <ele>20.2</ele>
        <time>2021-08-14T15:12:22Z</time>
      </trkpt>
      <trkpt lat="47.65463" lon="-3.16817">
        <ele>20.2</ele>
        <time>2021-08-14T15:12:23Z</time>
      </trkpt>
      <trkpt lat="47.65458" lon="-3.16812">
        <ele>20.2</ele>
        <time>2021-08-14T15:12:24Z</time>
      </trkpt>
      <trkpt lat="47.65453" lon="-3.16807">
        <ele>20.2</ele>
        <time>2021-08-14T15:12:25Z</time>
      </trkpt>
      <trkpt lat="47.65449" lon="-3.16802">
        <ele>20.2</ele>
        <time>2021-08-14T15:12:26Z</time>
      </trkpt>
      <trkpt lat="47.65444" lon="-3.16797">
        <ele>20</ele>
        <time>2021-08-14T15:12:27Z</time>
      </trkpt>
      <trkpt lat="47.65439" lon="-3.16792">
        <ele>20</ele>
        <time>2021-08-14T15:12:28Z</time>
      </trkpt>
      <trkpt lat="47.65435" lon="-3.16787">
        <ele>20</ele>
        <time>2021-08-14T15:12:29Z</time>
      </trkpt>
      <trkpt lat="47.6543" lon="-3.16782">
        <ele>20</ele>
        <time>2021-08-14T15:12:30Z</time>
      </trkpt>
      <trkpt lat="47.65425" lon="-3.16777">
        <ele>19.8</ele>
        <time>2021-08-14T15:12:31Z</time>
      </trkpt>
      <trkpt lat="47.6542" lon="-3.16772">
        <ele>19.8</ele>
        <time>2021-08-14T15:12:32Z</time>
      </trkpt>
      <trkpt lat="47.65416" lon="-3.16767">
        <ele>19.6</ele>
        <time>2021-08-14T15:12:33Z</time>
      </trkpt>
      <trkpt lat="47.65411" lon="-3.16762">
        <ele>19.6</ele>
        <time>2021-08-14T15:12:34Z</time>
      </trkpt>
      <trkpt lat="47.65406" lon="-3.16757">
        <ele>19.6</ele>
        <time>2021-08-14T15:12:35Z</time>
      </trkpt>
      <trkpt lat="47.65402" lon="-3.16752">
        <ele>19.6</ele>
        <time>2021-08-14T15:12:36Z</time>
      </trkpt>
      <trkpt lat="47.65397" lon="-3.16748">
        <ele>19.6</ele>
        <time>2021-08-14T15:12:37Z</time>
      </trkpt>
      <trkpt lat="47.65393" lon="-3.16743">
        <ele>19.6</ele>
        <time>2021-08-14T15:12:38Z</time>
      </trkpt>
      <trkpt lat="47.65389" lon="-3.16739">
        <ele>19.6</ele>
        <time>2021-08-14T15:12:39Z</time>
      </trkpt>
      <trkpt lat="47.65385" lon="-3.16735">
        <ele>19.6</ele>
        <time>2021-08-14T15:12:40Z</time>
      </trkpt>
      <trkpt lat="47.6538" lon="-3.1673">
        <ele>19.6</ele>
        <time>2021-08-14T15:12:41Z</time>
      </trkpt>
      <trkpt lat="47.65376" lon="-3.16726">
        <ele>19.6</ele>
        <time>2021-08-14T15:12:42Z</time>
      </trkpt>
      <trkpt lat="47.65372" lon="-3.16722">
        <ele>19.6</ele>
        <time>2021-08-14T15:12:43Z</time>
      </trkpt>
      <trkpt lat="47.65368" lon="-3.16717">
        <ele>19.6</ele>
        <time>2021-08-14T15:12:44Z</time>
      </trkpt>
      <trkpt lat="47.65365" lon="-3.16713">
        <ele>19.6</ele>
        <time>2021-08-14T15:12:45Z</time>
      </trkpt>
      <trkpt lat="47.6536" lon="-3.16709">
        <ele>19.6</ele>
        <time>2021-08-14T15:12:46Z</time>
      </trkpt>
      <trkpt lat="47.65357" lon="-3.16705">
        <ele>19.8</ele>
        <time>2021-08-14T15:12:47Z</time>
      </trkpt>
      <trkpt lat="47.65353" lon="-3.16701">
        <ele>19.8</ele>
        <time>2021-08-14T15:12:48Z</time>
      </trkpt>
      <trkpt lat="47.65349" lon="-3.16697">
        <ele>19.8</ele>
        <time>2021-08-14T15:12:49Z</time>
      </trkpt>
      <trkpt lat="47.65345" lon="-3.16693">
        <ele>20</ele>
        <time>2021-08-14T15:12:50Z</time>
      </trkpt>
      <trkpt lat="47.65342" lon="-3.16689">
        <ele>20.2</ele>
        <time>2021-08-14T15:12:51Z</time>
      </trkpt>
      <trkpt lat="47.65338" lon="-3.16685">
        <ele>20.4</ele>
        <time>2021-08-14T15:12:52Z</time>
      </trkpt>
      <trkpt lat="47.65334" lon="-3.16682">
        <ele>20.6</ele>
        <time>2021-08-14T15:12:53Z</time>
      </trkpt>
      <trkpt lat="47.65331" lon="-3.16678">
        <ele>20.8</ele>
        <time>2021-08-14T15:12:54Z</time>
      </trkpt>
      <trkpt lat="47.65327" lon="-3.16674">
        <ele>20.8</ele>
        <time>2021-08-14T15:12:55Z</time>
      </trkpt>
      <trkpt lat="47.65324" lon="-3.16671">
        <ele>21</ele>
        <time>2021-08-14T15:12:56Z</time>
      </trkpt>
      <trkpt lat="47.65321" lon="-3.16667">
        <ele>21</ele>
        <time>2021-08-14T15:12:57Z</time>
      </trkpt>
      <trkpt lat="47.65317" lon="-3.16664">
        <ele>21.4</ele>
        <time>2021-08-14T15:12:58Z</time>
      </trkpt>
      <trkpt lat="47.65314" lon="-3.1666">
        <ele>21.8</ele>
        <time>2021-08-14T15:12:59Z</time>
      </trkpt>
      <trkpt lat="47.65311" lon="-3.16657">
        <ele>22</ele>
        <time>2021-08-14T15:13:00Z</time>
      </trkpt>
      <trkpt lat="47.65307" lon="-3.16653">
        <ele>22.2</ele>
        <time>2021-08-14T15:13:01Z</time>
      </trkpt>
      <trkpt lat="47.65304" lon="-3.16649">
        <ele>22.4</ele>
        <time>2021-08-14T15:13:02Z</time>
      </trkpt>
      <trkpt lat="47.653" lon="-3.16646">
        <ele>22.6</ele>
        <time>2021-08-14T15:13:03Z</time>
      </trkpt>
      <trkpt lat="47.65296" lon="-3.16642">
        <ele>22.8</ele>
        <time>2021-08-14T15:13:04Z</time>
      </trkpt>
      <trkpt lat="47.65292" lon="-3.16638">
        <ele>22.8</ele>
        <time>2021-08-14T15:13:05Z</time>
      </trkpt>
      <trkpt lat="47.65289" lon="-3.16634">
        <ele>22.8</ele>
        <time>2021-08-14T15:13:06Z</time>
      </trkpt>
      <trkpt lat="47.65285" lon="-3.1663">
        <ele>23</ele>
        <time>2021-08-14T15:13:07Z</time>
      </trkpt>
      <trkpt lat="47.65282" lon="-3.16626">
        <ele>23</ele>
        <time>2021-08-14T15:13:08Z</time>
      </trkpt>
      <trkpt lat="47.65278" lon="-3.16622">
        <ele>23</ele>
        <time>2021-08-14T15:13:09Z</time>
      </trkpt>
      <trkpt lat="47.65274" lon="-3.16618">
        <ele>23</ele>
        <time>2021-08-14T15:13:10Z</time>
      </trkpt>
      <trkpt lat="47.65271" lon="-3.16615">
        <ele>23</ele>
        <time>2021-08-14T15:13:11Z</time>
      </trkpt>
      <trkpt lat="47.65267" lon="-3.16611">
        <ele>23</ele>
        <time>2021-08-14T15:13:12Z</time>
      </trkpt>
      <trkpt lat="47.65264" lon="-3.16607">
        <ele>23</ele>
        <time>2021-08-14T15:13:13Z</time>
      </trkpt>
      <trkpt lat="47.6526" lon="-3.16603">
        <ele>23.2</ele>
        <time>2021-08-14T15:13:14Z</time>
      </trkpt>
      <trkpt lat="47.65256" lon="-3.16599">
        <ele>23.2</ele>
        <time>2021-08-14T15:13:15Z</time>
      </trkpt>
      <trkpt lat="47.65253" lon="-3.16596">
        <ele>23.4</ele>
        <time>2021-08-14T15:13:16Z</time>
      </trkpt>
      <trkpt lat="47.65249" lon="-3.16592">
        <ele>23.4</ele>
        <time>2021-08-14T15:13:17Z</time>
      </trkpt>
      <trkpt lat="47.65245" lon="-3.16588">
        <ele>23.4</ele>
        <time>2021-08-14T15:13:18Z</time>
      </trkpt>
      <trkpt lat="47.65242" lon="-3.16584">
        <ele>23.4</ele>
        <time>2021-08-14T15:13:19Z</time>
      </trkpt>
      <trkpt lat="47.65238" lon="-3.1658">
        <ele>23.6</ele>
        <time>2021-08-14T15:13:20Z</time>
      </trkpt>
      <trkpt lat="47.65235" lon="-3.16577">
        <ele>23.6</ele>
        <time>2021-08-14T15:13:21Z</time>
      </trkpt>
      <trkpt lat="47.65231" lon="-3.16573">
        <ele>23.8</ele>
        <time>2021-08-14T15:13:22Z</time>
      </trkpt>
      <trkpt lat="47.65228" lon="-3.1657">
        <ele>23.8</ele>
        <time>2021-08-14T15:13:23Z</time>
      </trkpt>
      <trkpt lat="47.65224" lon="-3.16566">
        <ele>23.8</ele>
        <time>2021-08-14T15:13:24Z</time>
      </trkpt>
      <trkpt lat="47.6522" lon="-3.16563">
        <ele>23.8</ele>
        <time>2021-08-14T15:13:25Z</time>
      </trkpt>
      <trkpt lat="47.65217" lon="-3.16559">
        <ele>23.8</ele>
        <time>2021-08-14T15:13:26Z</time>
      </trkpt>
      <trkpt lat="47.65214" lon="-3.16555">
        <ele>23.8</ele>
        <time>2021-08-14T15:13:27Z</time>
      </trkpt>
      <trkpt lat="47.6521" lon="-3.16552">
        <ele>23.8</ele>
        <time>2021-08-14T15:13:28Z</time>
      </trkpt>
      <trkpt lat="47.65207" lon="-3.16549">
        <ele>23.8</ele>
        <time>2021-08-14T15:13:29Z</time>
      </trkpt>
      <trkpt lat="47.65204" lon="-3.16546">
        <ele>23.8</ele>
        <time>2021-08-14T15:13:30Z</time>
      </trkpt>
      <trkpt lat="47.652" lon="-3.16543">
        <ele>23.8</ele>
        <time>2021-08-14T15:13:31Z</time>
      </trkpt>
      <trkpt lat="47.65197" lon="-3.16539">
        <ele>23.8</ele>
        <time>2021-08-14T15:13:32Z</time>
      </trkpt>
      <trkpt lat="47.65194" lon="-3.16535">
        <ele>23.8</ele>
        <time>2021-08-14T15:13:33Z</time>
      </trkpt>
      <trkpt lat="47.6519" lon="-3.16531">
        <ele>24</ele>
        <time>2021-08-14T15:13:34Z</time>
      </trkpt>
      <trkpt lat="47.65187" lon="-3.16527">
        <ele>24</ele>
        <time>2021-08-14T15:13:35Z</time>
      </trkpt>
      <trkpt lat="47.65183" lon="-3.16523">
        <ele>24</ele>
        <time>2021-08-14T15:13:36Z</time>
      </trkpt>
      <trkpt lat="47.65179" lon="-3.16519">
        <ele>24</ele>
        <time>2021-08-14T15:13:37Z</time>
      </trkpt>
      <trkpt lat="47.65175" lon="-3.16515">
        <ele>24</ele>
        <time>2021-08-14T15:13:38Z</time>
      </trkpt>
      <trkpt lat="47.6517" lon="-3.1651">
        <ele>24</ele>
        <time>2021-08-14T15:13:39Z</time>
      </trkpt>
      <trkpt lat="47.65166" lon="-3.16506">
        <ele>24</ele>
        <time>2021-08-14T15:13:40Z</time>
      </trkpt>
      <trkpt lat="47.65163" lon="-3.16502">
        <ele>24</ele>
        <time>2021-08-14T15:13:41Z</time>
      </trkpt>
      <trkpt lat="47.65159" lon="-3.16498">
        <ele>24</ele>
        <time>2021-08-14T15:13:42Z</time>
      </trkpt>
      <trkpt lat="47.65155" lon="-3.16494">
        <ele>24</ele>
        <time>2021-08-14T15:13:43Z</time>
      </trkpt>
      <trkpt lat="47.65151" lon="-3.16489">
        <ele>24</ele>
        <time>2021-08-14T15:13:44Z</time>
      </trkpt>
      <trkpt lat="47.65147" lon="-3.16485">
        <ele>24</ele>
        <time>2021-08-14T15:13:45Z</time>
      </trkpt>
      <trkpt lat="47.65144" lon="-3.16482">
        <ele>24</ele>
        <time>2021-08-14T15:13:46Z</time>
      </trkpt>
      <trkpt lat="47.6514" lon="-3.16478">
        <ele>24.2</ele>
        <time>2021-08-14T15:13:47Z</time>
      </trkpt>
      <trkpt lat="47.65137" lon="-3.16475">
        <ele>24.2</ele>
        <time>2021-08-14T15:13:48Z</time>
      </trkpt>
      <trkpt lat="47.65134" lon="-3.16471">
        <ele>24.2</ele>
        <time>2021-08-14T15:13:49Z</time>
      </trkpt>
      <trkpt lat="47.6513" lon="-3.16467">
        <ele>24.2</ele>
        <time>2021-08-14T15:13:50Z</time>
      </trkpt>
      <trkpt lat="47.65126" lon="-3.16463">
        <ele>24.2</ele>
        <time>2021-08-14T15:13:51Z</time>
      </trkpt>
      <trkpt lat="47.65122" lon="-3.16459">
        <ele>24.2</ele>
        <time>2021-08-14T15:13:52Z</time>
      </trkpt>
      <trkpt lat="47.65118" lon="-3.16454">
        <ele>24.2</ele>
        <time>2021-08-14T15:13:53Z</time>
      </trkpt>
      <trkpt lat="47.65114" lon="-3.1645">
        <ele>24.2</ele>
        <time>2021-08-14T15:13:54Z</time>
      </trkpt>
      <trkpt lat="47.6511" lon="-3.16446">
        <ele>24.2</ele>
        <time>2021-08-14T15:13:55Z</time>
      </trkpt>
      <trkpt lat="47.65105" lon="-3.16441">
        <ele>24</ele>
        <time>2021-08-14T15:13:56Z</time>
      </trkpt>
      <trkpt lat="47.65101" lon="-3.16437">
        <ele>24</ele>
        <time>2021-08-14T15:13:57Z</time>
      </trkpt>
      <trkpt lat="47.65097" lon="-3.16433">
        <ele>24</ele>
        <time>2021-08-14T15:13:58Z</time>
      </trkpt>
      <trkpt lat="47.65093" lon="-3.16428">
        <ele>24</ele>
        <time>2021-08-14T15:13:59Z</time>
      </trkpt>
      <trkpt lat="47.65089" lon="-3.16423">
        <ele>23.8</ele>
        <time>2021-08-14T15:14:00Z</time>
      </trkpt>
      <trkpt lat="47.65084" lon="-3.16419">
        <ele>23.8</ele>
        <time>2021-08-14T15:14:01Z</time>
      </trkpt>
      <trkpt lat="47.6508" lon="-3.16415">
        <ele>23.8</ele>
        <time>2021-08-14T15:14:02Z</time>
      </trkpt>
      <trkpt lat="47.65076" lon="-3.1641">
        <ele>23.8</ele>
        <time>2021-08-14T15:14:03Z</time>
      </trkpt>
      <trkpt lat="47.65072" lon="-3.16406">
        <ele>23.8</ele>
        <time>2021-08-14T15:14:04Z</time>
      </trkpt>
      <trkpt lat="47.65068" lon="-3.16401">
        <ele>23.8</ele>
        <time>2021-08-14T15:14:05Z</time>
      </trkpt>
      <trkpt lat="47.65064" lon="-3.16397">
        <ele>23.8</ele>
        <time>2021-08-14T15:14:06Z</time>
      </trkpt>
      <trkpt lat="47.6506" lon="-3.16393">
        <ele>23.8</ele>
        <time>2021-08-14T15:14:07Z</time>
      </trkpt>
      <trkpt lat="47.65056" lon="-3.16389">
        <ele>23.8</ele>
        <time>2021-08-14T15:14:08Z</time>
      </trkpt>
      <trkpt lat="47.65052" lon="-3.16385">
        <ele>23.8</ele>
        <time>2021-08-14T15:14:09Z</time>
      </trkpt>
      <trkpt lat="47.65048" lon="-3.16381">
        <ele>23.8</ele>
        <time>2021-08-14T15:14:10Z</time>
      </trkpt>
      <trkpt lat="47.65044" lon="-3.16377">
        <ele>23.8</ele>
        <time>2021-08-14T15:14:11Z</time>
      </trkpt>
      <trkpt lat="47.65041" lon="-3.16372">
        <ele>23.8</ele>
        <time>2021-08-14T15:14:12Z</time>
      </trkpt>
      <trkpt lat="47.65037" lon="-3.16368">
        <ele>23.8</ele>
        <time>2021-08-14T15:14:13Z</time>
      </trkpt>
      <trkpt lat="47.65033" lon="-3.16364">
        <ele>23.8</ele>
        <time>2021-08-14T15:14:14Z</time>
      </trkpt>
      <trkpt lat="47.65029" lon="-3.1636">
        <ele>23.8</ele>
        <time>2021-08-14T15:14:15Z</time>
      </trkpt>
      <trkpt lat="47.65025" lon="-3.16356">
        <ele>23.8</ele>
        <time>2021-08-14T15:14:16Z</time>
      </trkpt>
      <trkpt lat="47.65021" lon="-3.16351">
        <ele>23.8</ele>
        <time>2021-08-14T15:14:17Z</time>
      </trkpt>
      <trkpt lat="47.65017" lon="-3.16347">
        <ele>24</ele>
        <time>2021-08-14T15:14:18Z</time>
      </trkpt>
      <trkpt lat="47.65013" lon="-3.16343">
        <ele>24</ele>
        <time>2021-08-14T15:14:19Z</time>
      </trkpt>
      <trkpt lat="47.65008" lon="-3.16338">
        <ele>24</ele>
        <time>2021-08-14T15:14:20Z</time>
      </trkpt>
      <trkpt lat="47.65004" lon="-3.16334">
        <ele>24</ele>
        <time>2021-08-14T15:14:21Z</time>
      </trkpt>
      <trkpt lat="47.65" lon="-3.1633">
        <ele>24</ele>
        <time>2021-08-14T15:14:22Z</time>
      </trkpt>
      <trkpt lat="47.64996" lon="-3.16325">
        <ele>24</ele>
        <time>2021-08-14T15:14:23Z</time>
      </trkpt>
      <trkpt lat="47.64992" lon="-3.16321">
        <ele>24</ele>
        <time>2021-08-14T15:14:24Z</time>
      </trkpt>
      <trkpt lat="47.64988" lon="-3.16316">
        <ele>24.2</ele>
        <time>2021-08-14T15:14:25Z</time>
      </trkpt>
      <trkpt lat="47.64984" lon="-3.16312">
        <ele>24.2</ele>
        <time>2021-08-14T15:14:26Z</time>
      </trkpt>
      <trkpt lat="47.6498" lon="-3.16308">
        <ele>24.2</ele>
        <time>2021-08-14T15:14:27Z</time>
      </trkpt>
      <trkpt lat="47.64975" lon="-3.16303">
        <ele>24.2</ele>
        <time>2021-08-14T15:14:28Z</time>
      </trkpt>
      <trkpt lat="47.64971" lon="-3.16299">
        <ele>24.2</ele>
        <time>2021-08-14T15:14:29Z</time>
      </trkpt>
      <trkpt lat="47.64967" lon="-3.16295">
        <ele>24.2</ele>
        <time>2021-08-14T15:14:30Z</time>
      </trkpt>
      <trkpt lat="47.64963" lon="-3.1629">
        <ele>24.2</ele>
        <time>2021-08-14T15:14:31Z</time>
      </trkpt>
      <trkpt lat="47.64959" lon="-3.16286">
        <ele>24.4</ele>
        <time>2021-08-14T15:14:32Z</time>
      </trkpt>
      <trkpt lat="47.64955" lon="-3.16282">
        <ele>24.4</ele>
        <time>2021-08-14T15:14:33Z</time>
      </trkpt>
      <trkpt lat="47.64952" lon="-3.16278">
        <ele>24.4</ele>
        <time>2021-08-14T15:14:34Z</time>
      </trkpt>
      <trkpt lat="47.64948" lon="-3.16275">
        <ele>24.4</ele>
        <time>2021-08-14T15:14:35Z</time>
      </trkpt>
      <trkpt lat="47.64944" lon="-3.1627">
        <ele>24.4</ele>
        <time>2021-08-14T15:14:36Z</time>
      </trkpt>
      <trkpt lat="47.6494" lon="-3.16266">
        <ele>24.4</ele>
        <time>2021-08-14T15:14:37Z</time>
      </trkpt>
      <trkpt lat="47.64936" lon="-3.16263">
        <ele>24.4</ele>
        <time>2021-08-14T15:14:38Z</time>
      </trkpt>
      <trkpt lat="47.64933" lon="-3.16259">
        <ele>24.4</ele>
        <time>2021-08-14T15:14:39Z</time>
      </trkpt>
      <trkpt lat="47.64929" lon="-3.16255">
        <ele>24.4</ele>
        <time>2021-08-14T15:14:40Z</time>
      </trkpt>
      <trkpt lat="47.64926" lon="-3.16251">
        <ele>24.6</ele>
        <time>2021-08-14T15:14:41Z</time>
      </trkpt>
      <trkpt lat="47.64922" lon="-3.16247">
        <ele>24.6</ele>
        <time>2021-08-14T15:14:42Z</time>
      </trkpt>
      <trkpt lat="47.64919" lon="-3.16244">
        <ele>24.6</ele>
        <time>2021-08-14T15:14:43Z</time>
      </trkpt>
      <trkpt lat="47.64915" lon="-3.1624">
        <ele>24.6</ele>
        <time>2021-08-14T15:14:44Z</time>
      </trkpt>
      <trkpt lat="47.64912" lon="-3.16237">
        <ele>24.6</ele>
        <time>2021-08-14T15:14:45Z</time>
      </trkpt>
      <trkpt lat="47.64909" lon="-3.16233">
        <ele>24.8</ele>
        <time>2021-08-14T15:14:46Z</time>
      </trkpt>
      <trkpt lat="47.64906" lon="-3.1623">
        <ele>24.8</ele>
        <time>2021-08-14T15:14:47Z</time>
      </trkpt>
      <trkpt lat="47.64903" lon="-3.16227">
        <ele>24.8</ele>
        <time>2021-08-14T15:14:48Z</time>
      </trkpt>
      <trkpt lat="47.649" lon="-3.16224">
        <ele>25</ele>
        <time>2021-08-14T15:14:49Z</time>
      </trkpt>
      <trkpt lat="47.64897" lon="-3.1622">
        <ele>25</ele>
        <time>2021-08-14T15:14:50Z</time>
      </trkpt>
      <trkpt lat="47.64894" lon="-3.16217">
        <ele>25</ele>
        <time>2021-08-14T15:14:51Z</time>
      </trkpt>
      <trkpt lat="47.6489" lon="-3.16214">
        <ele>25.2</ele>
        <time>2021-08-14T15:14:52Z</time>
      </trkpt>
      <trkpt lat="47.64887" lon="-3.1621">
        <ele>25.2</ele>
        <time>2021-08-14T15:14:53Z</time>
      </trkpt>
      <trkpt lat="47.64884" lon="-3.16206">
        <ele>25.2</ele>
        <time>2021-08-14T15:14:54Z</time>
      </trkpt>
      <trkpt lat="47.6488" lon="-3.16203">
        <ele>25.4</ele>
        <time>2021-08-14T15:14:55Z</time>
      </trkpt>
      <trkpt lat="47.64877" lon="-3.16199">
        <ele>25.4</ele>
        <time>2021-08-14T15:14:56Z</time>
      </trkpt>
      <trkpt lat="47.64873" lon="-3.16195">
        <ele>25.4</ele>
        <time>2021-08-14T15:14:57Z</time>
      </trkpt>
      <trkpt lat="47.64869" lon="-3.16191">
        <ele>25.6</ele>
        <time>2021-08-14T15:14:58Z</time>
      </trkpt>
      <trkpt lat="47.64865" lon="-3.16187">
        <ele>25.6</ele>
        <time>2021-08-14T15:14:59Z</time>
      </trkpt>
      <trkpt lat="47.64861" lon="-3.16182">
        <ele>25.6</ele>
        <time>2021-08-14T15:15:00Z</time>
      </trkpt>
      <trkpt lat="47.64857" lon="-3.16178">
        <ele>25.8</ele>
        <time>2021-08-14T15:15:01Z</time>
      </trkpt>
      <trkpt lat="47.64853" lon="-3.16174">
        <ele>25.8</ele>
        <time>2021-08-14T15:15:02Z</time>
      </trkpt>
      <trkpt lat="47.64849" lon="-3.16169">
        <ele>25.8</ele>
        <time>2021-08-14T15:15:03Z</time>
      </trkpt>
      <trkpt lat="47.64845" lon="-3.16165">
        <ele>25.8</ele>
        <time>2021-08-14T15:15:04Z</time>
      </trkpt>
      <trkpt lat="47.6484" lon="-3.1616">
        <ele>25.8</ele>
        <time>2021-08-14T15:15:05Z</time>
      </trkpt>
      <trkpt lat="47.64836" lon="-3.16156">
        <ele>26</ele>
        <time>2021-08-14T15:15:06Z</time>
      </trkpt>
      <trkpt lat="47.64832" lon="-3.16151">
        <ele>26</ele>
        <time>2021-08-14T15:15:07Z</time>
      </trkpt>
      <trkpt lat="47.64827" lon="-3.16147">
        <ele>26</ele>
        <time>2021-08-14T15:15:08Z</time>
      </trkpt>
      <trkpt lat="47.64823" lon="-3.16142">
        <ele>26</ele>
        <time>2021-08-14T15:15:09Z</time>
      </trkpt>
      <trkpt lat="47.64818" lon="-3.16138">
        <ele>26</ele>
        <time>2021-08-14T15:15:10Z</time>
      </trkpt>
      <trkpt lat="47.64814" lon="-3.16134">
        <ele>26.2</ele>
        <time>2021-08-14T15:15:11Z</time>
      </trkpt>
      <trkpt lat="47.64809" lon="-3.16129">
        <ele>26.2</ele>
        <time>2021-08-14T15:15:12Z</time>
      </trkpt>
      <trkpt lat="47.64804" lon="-3.16125">
        <ele>26.2</ele>
        <time>2021-08-14T15:15:13Z</time>
      </trkpt>
      <trkpt lat="47.648" lon="-3.1612">
        <ele>26.2</ele>
        <time>2021-08-14T15:15:14Z</time>
      </trkpt>
      <trkpt lat="47.64796" lon="-3.16115">
        <ele>26.4</ele>
        <time>2021-08-14T15:15:15Z</time>
      </trkpt>
      <trkpt lat="47.64791" lon="-3.16111">
        <ele>26.4</ele>
        <time>2021-08-14T15:15:16Z</time>
      </trkpt>
      <trkpt lat="47.64787" lon="-3.16106">
        <ele>26.4</ele>
        <time>2021-08-14T15:15:17Z</time>
      </trkpt>
      <trkpt lat="47.64783" lon="-3.16102">
        <ele>26.4</ele>
        <time>2021-08-14T15:15:18Z</time>
      </trkpt>
      <trkpt lat="47.64779" lon="-3.16097">
        <ele>26.4</ele>
        <time>2021-08-14T15:15:19Z</time>
      </trkpt>
      <trkpt lat="47.64775" lon="-3.16093">
        <ele>26.4</ele>
        <time>2021-08-14T15:15:20Z</time>
      </trkpt>
      <trkpt lat="47.64771" lon="-3.16089">
        <ele>26.4</ele>
        <time>2021-08-14T15:15:21Z</time>
      </trkpt>
      <trkpt lat="47.64767" lon="-3.16085">
        <ele>26.4</ele>
        <time>2021-08-14T15:15:22Z</time>
      </trkpt>
      <trkpt lat="47.64763" lon="-3.16081">
        <ele>26.6</ele>
        <time>2021-08-14T15:15:23Z</time>
      </trkpt>
      <trkpt lat="47.6476" lon="-3.16077">
        <ele>26.6</ele>
        <time>2021-08-14T15:15:24Z</time>
      </trkpt>
      <trkpt lat="47.64756" lon="-3.16074">
        <ele>26.6</ele>
        <time>2021-08-14T15:15:25Z</time>
      </trkpt>
      <trkpt lat="47.64752" lon="-3.16071">
        <ele>26.6</ele>
        <time>2021-08-14T15:15:26Z</time>
      </trkpt>
      <trkpt lat="47.64749" lon="-3.16068">
        <ele>26.6</ele>
        <time>2021-08-14T15:15:27Z</time>
      </trkpt>
      <trkpt lat="47.64745" lon="-3.16065">
        <ele>26.6</ele>
        <time>2021-08-14T15:15:28Z</time>
      </trkpt>
      <trkpt lat="47.64742" lon="-3.16061">
        <ele>26.6</ele>
        <time>2021-08-14T15:15:29Z</time>
      </trkpt>
      <trkpt lat="47.64739" lon="-3.16058">
        <ele>26.6</ele>
        <time>2021-08-14T15:15:30Z</time>
      </trkpt>
      <trkpt lat="47.64736" lon="-3.16055">
        <ele>26.6</ele>
        <time>2021-08-14T15:15:31Z</time>
      </trkpt>
      <trkpt lat="47.64733" lon="-3.16051">
        <ele>26.6</ele>
        <time>2021-08-14T15:15:32Z</time>
      </trkpt>
      <trkpt lat="47.6473" lon="-3.16046">
        <ele>26.6</ele>
        <time>2021-08-14T15:15:33Z</time>
      </trkpt>
      <trkpt lat="47.64726" lon="-3.16043">
        <ele>26.6</ele>
        <time>2021-08-14T15:15:34Z</time>
      </trkpt>
      <trkpt lat="47.64723" lon="-3.16039">
        <ele>26.6</ele>
        <time>2021-08-14T15:15:35Z</time>
      </trkpt>
      <trkpt lat="47.6472" lon="-3.16035">
        <ele>26.8</ele>
        <time>2021-08-14T15:15:36Z</time>
      </trkpt>
      <trkpt lat="47.64717" lon="-3.16032">
        <ele>26.8</ele>
        <time>2021-08-14T15:15:37Z</time>
      </trkpt>
      <trkpt lat="47.64714" lon="-3.16028">
        <ele>26.8</ele>
        <time>2021-08-14T15:15:38Z</time>
      </trkpt>
      <trkpt lat="47.64711" lon="-3.16025">
        <ele>26.8</ele>
        <time>2021-08-14T15:15:39Z</time>
      </trkpt>
      <trkpt lat="47.64708" lon="-3.16021">
        <ele>26.8</ele>
        <time>2021-08-14T15:15:40Z</time>
      </trkpt>
      <trkpt lat="47.64705" lon="-3.16017">
        <ele>26.8</ele>
        <time>2021-08-14T15:15:41Z</time>
      </trkpt>
      <trkpt lat="47.64702" lon="-3.16014">
        <ele>26.8</ele>
        <time>2021-08-14T15:15:42Z</time>
      </trkpt>
      <trkpt lat="47.64698" lon="-3.1601">
        <ele>26.8</ele>
        <time>2021-08-14T15:15:43Z</time>
      </trkpt>
      <trkpt lat="47.64695" lon="-3.16006">
        <ele>26.8</ele>
        <time>2021-08-14T15:15:44Z</time>
      </trkpt>
      <trkpt lat="47.64692" lon="-3.16002">
        <ele>26.8</ele>
        <time>2021-08-14T15:15:45Z</time>
      </trkpt>
      <trkpt lat="47.64688" lon="-3.15998">
        <ele>26.8</ele>
        <time>2021-08-14T15:15:46Z</time>
      </trkpt>
      <trkpt lat="47.64685" lon="-3.15995">
        <ele>26.8</ele>
        <time>2021-08-14T15:15:47Z</time>
      </trkpt>
      <trkpt lat="47.64682" lon="-3.15992">
        <ele>27</ele>
        <time>2021-08-14T15:15:48Z</time>
      </trkpt>
      <trkpt lat="47.64678" lon="-3.15989">
        <ele>27</ele>
        <time>2021-08-14T15:15:49Z</time>
      </trkpt>
      <trkpt lat="47.64675" lon="-3.15986">
        <ele>27</ele>
        <time>2021-08-14T15:15:50Z</time>
      </trkpt>
      <trkpt lat="47.64672" lon="-3.15983">
        <ele>27</ele>
        <time>2021-08-14T15:15:51Z</time>
      </trkpt>
      <trkpt lat="47.64669" lon="-3.15982">
        <ele>27.2</ele>
        <time>2021-08-14T15:15:52Z</time>
      </trkpt>
      <trkpt lat="47.64666" lon="-3.1598">
        <ele>27.2</ele>
        <time>2021-08-14T15:15:53Z</time>
      </trkpt>
      <trkpt lat="47.64663" lon="-3.15979">
        <ele>27.2</ele>
        <time>2021-08-14T15:15:54Z</time>
      </trkpt>
      <trkpt lat="47.64659" lon="-3.15978">
        <ele>27.2</ele>
        <time>2021-08-14T15:15:55Z</time>
      </trkpt>
      <trkpt lat="47.64656" lon="-3.15977">
        <ele>27.4</ele>
        <time>2021-08-14T15:15:56Z</time>
      </trkpt>
      <trkpt lat="47.64653" lon="-3.15975">
        <ele>27.4</ele>
        <time>2021-08-14T15:15:57Z</time>
      </trkpt>
      <trkpt lat="47.64651" lon="-3.15971">
        <ele>27.4</ele>
        <time>2021-08-14T15:15:58Z</time>
      </trkpt>
      <trkpt lat="47.64648" lon="-3.15967">
        <ele>27.6</ele>
        <time>2021-08-14T15:15:59Z</time>
      </trkpt>
      <trkpt lat="47.64646" lon="-3.15962">
        <ele>27.6</ele>
        <time>2021-08-14T15:16:00Z</time>
      </trkpt>
      <trkpt lat="47.64644" lon="-3.15958">
        <ele>27.8</ele>
        <time>2021-08-14T15:16:01Z</time>
      </trkpt>
      <trkpt lat="47.64641" lon="-3.15954">
        <ele>27.8</ele>
        <time>2021-08-14T15:16:02Z</time>
      </trkpt>
      <trkpt lat="47.64638" lon="-3.1595">
        <ele>27.8</ele>
        <time>2021-08-14T15:16:03Z</time>
      </trkpt>
      <trkpt lat="47.64635" lon="-3.15947">
        <ele>28</ele>
        <time>2021-08-14T15:16:04Z</time>
      </trkpt>
      <trkpt lat="47.64632" lon="-3.15942">
        <ele>28</ele>
        <time>2021-08-14T15:16:05Z</time>
      </trkpt>
      <trkpt lat="47.64629" lon="-3.15939">
        <ele>28</ele>
        <time>2021-08-14T15:16:06Z</time>
      </trkpt>
      <trkpt lat="47.64626" lon="-3.15935">
        <ele>28</ele>
        <time>2021-08-14T15:16:07Z</time>
      </trkpt>
      <trkpt lat="47.64622" lon="-3.15931">
        <ele>28</ele>
        <time>2021-08-14T15:16:08Z</time>
      </trkpt>
      <trkpt lat="47.64619" lon="-3.15928">
        <ele>28</ele>
        <time>2021-08-14T15:16:09Z</time>
      </trkpt>
      <trkpt lat="47.64615" lon="-3.15924">
        <ele>28.2</ele>
        <time>2021-08-14T15:16:10Z</time>
      </trkpt>
      <trkpt lat="47.64612" lon="-3.1592">
        <ele>28.2</ele>
        <time>2021-08-14T15:16:11Z</time>
      </trkpt>
      <trkpt lat="47.64608" lon="-3.15917">
        <ele>28.2</ele>
        <time>2021-08-14T15:16:12Z</time>
      </trkpt>
      <trkpt lat="47.64605" lon="-3.15913">
        <ele>28.4</ele>
        <time>2021-08-14T15:16:13Z</time>
      </trkpt>
      <trkpt lat="47.64601" lon="-3.15909">
        <ele>28.4</ele>
        <time>2021-08-14T15:16:14Z</time>
      </trkpt>
      <trkpt lat="47.64597" lon="-3.15905">
        <ele>28.4</ele>
        <time>2021-08-14T15:16:15Z</time>
      </trkpt>
      <trkpt lat="47.64593" lon="-3.15901">
        <ele>28.4</ele>
        <time>2021-08-14T15:16:16Z</time>
      </trkpt>
      <trkpt lat="47.6459" lon="-3.15897">
        <ele>28.4</ele>
        <time>2021-08-14T15:16:17Z</time>
      </trkpt>
      <trkpt lat="47.64586" lon="-3.15893">
        <ele>28.4</ele>
        <time>2021-08-14T15:16:18Z</time>
      </trkpt>
      <trkpt lat="47.64583" lon="-3.1589">
        <ele>28.6</ele>
        <time>2021-08-14T15:16:19Z</time>
      </trkpt>
      <trkpt lat="47.6458" lon="-3.15885">
        <ele>28.6</ele>
        <time>2021-08-14T15:16:20Z</time>
      </trkpt>
      <trkpt lat="47.64577" lon="-3.15881">
        <ele>28.6</ele>
        <time>2021-08-14T15:16:21Z</time>
      </trkpt>
      <trkpt lat="47.64574" lon="-3.15877">
        <ele>28.6</ele>
        <time>2021-08-14T15:16:22Z</time>
      </trkpt>
      <trkpt lat="47.6457" lon="-3.15873">
        <ele>28.6</ele>
        <time>2021-08-14T15:16:23Z</time>
      </trkpt>
      <trkpt lat="47.64567" lon="-3.15869">
        <ele>28.6</ele>
        <time>2021-08-14T15:16:24Z</time>
      </trkpt>
      <trkpt lat="47.64563" lon="-3.15866">
        <ele>28.6</ele>
        <time>2021-08-14T15:16:25Z</time>
      </trkpt>
      <trkpt lat="47.64559" lon="-3.15862">
        <ele>28.6</ele>
        <time>2021-08-14T15:16:26Z</time>
      </trkpt>
      <trkpt lat="47.64555" lon="-3.15859">
        <ele>28.6</ele>
        <time>2021-08-14T15:16:27Z</time>
      </trkpt>
      <trkpt lat="47.64551" lon="-3.15855">
        <ele>28.6</ele>
        <time>2021-08-14T15:16:28Z</time>
      </trkpt>
      <trkpt lat="47.64547" lon="-3.15852">
        <ele>28.6</ele>
        <time>2021-08-14T15:16:29Z</time>
      </trkpt>
      <trkpt lat="47.64543" lon="-3.15849">
        <ele>28.6</ele>
        <time>2021-08-14T15:16:30Z</time>
      </trkpt>
      <trkpt lat="47.64539" lon="-3.15844">
        <ele>28.4</ele>
        <time>2021-08-14T15:16:31Z</time>
      </trkpt>
      <trkpt lat="47.64535" lon="-3.1584">
        <ele>28.4</ele>
        <time>2021-08-14T15:16:32Z</time>
      </trkpt>
      <trkpt lat="47.64531" lon="-3.15836">
        <ele>28.4</ele>
        <time>2021-08-14T15:16:33Z</time>
      </trkpt>
      <trkpt lat="47.64527" lon="-3.15832">
        <ele>28.4</ele>
        <time>2021-08-14T15:16:34Z</time>
      </trkpt>
      <trkpt lat="47.64524" lon="-3.15828">
        <ele>28.4</ele>
        <time>2021-08-14T15:16:35Z</time>
      </trkpt>
      <trkpt lat="47.6452" lon="-3.15824">
        <ele>28.6</ele>
        <time>2021-08-14T15:16:36Z</time>
      </trkpt>
      <trkpt lat="47.64516" lon="-3.1582">
        <ele>28.6</ele>
        <time>2021-08-14T15:16:37Z</time>
      </trkpt>
      <trkpt lat="47.64513" lon="-3.15816">
        <ele>28.6</ele>
        <time>2021-08-14T15:16:38Z</time>
      </trkpt>
      <trkpt lat="47.64509" lon="-3.15811">
        <ele>28.4</ele>
        <time>2021-08-14T15:16:39Z</time>
      </trkpt>
      <trkpt lat="47.64506" lon="-3.15806">
        <ele>28.4</ele>
        <time>2021-08-14T15:16:40Z</time>
      </trkpt>
      <trkpt lat="47.64502" lon="-3.15802">
        <ele>28.4</ele>
        <time>2021-08-14T15:16:41Z</time>
      </trkpt>
      <trkpt lat="47.64498" lon="-3.15798">
        <ele>28.4</ele>
        <time>2021-08-14T15:16:42Z</time>
      </trkpt>
      <trkpt lat="47.64494" lon="-3.15793">
        <ele>28.4</ele>
        <time>2021-08-14T15:16:43Z</time>
      </trkpt>
      <trkpt lat="47.6449" lon="-3.15789">
        <ele>28.4</ele>
        <time>2021-08-14T15:16:44Z</time>
      </trkpt>
      <trkpt lat="47.64486" lon="-3.15785">
        <ele>28.4</ele>
        <time>2021-08-14T15:16:45Z</time>
      </trkpt>
      <trkpt lat="47.64482" lon="-3.15781">
        <ele>28.4</ele>
        <time>2021-08-14T15:16:46Z</time>
      </trkpt>
      <trkpt lat="47.64479" lon="-3.15777">
        <ele>28.4</ele>
        <time>2021-08-14T15:16:47Z</time>
      </trkpt>
      <trkpt lat="47.64475" lon="-3.15773">
        <ele>28.4</ele>
        <time>2021-08-14T15:16:48Z</time>
      </trkpt>
      <trkpt lat="47.64471" lon="-3.15769">
        <ele>28.4</ele>
        <time>2021-08-14T15:16:49Z</time>
      </trkpt>
      <trkpt lat="47.64467" lon="-3.15765">
        <ele>28.2</ele>
        <time>2021-08-14T15:16:50Z</time>
      </trkpt>
      <trkpt lat="47.64463" lon="-3.15761">
        <ele>28.2</ele>
        <time>2021-08-14T15:16:51Z</time>
      </trkpt>
      <trkpt lat="47.64459" lon="-3.15757">
        <ele>28.2</ele>
        <time>2021-08-14T15:16:52Z</time>
      </trkpt>
      <trkpt lat="47.64456" lon="-3.15752">
        <ele>28.2</ele>
        <time>2021-08-14T15:16:53Z</time>
      </trkpt>
      <trkpt lat="47.64452" lon="-3.15748">
        <ele>28.2</ele>
        <time>2021-08-14T15:16:54Z</time>
      </trkpt>
      <trkpt lat="47.64448" lon="-3.15744">
        <ele>28.2</ele>
        <time>2021-08-14T15:16:55Z</time>
      </trkpt>
      <trkpt lat="47.64444" lon="-3.1574">
        <ele>28.2</ele>
        <time>2021-08-14T15:16:56Z</time>
      </trkpt>
      <trkpt lat="47.64439" lon="-3.15736">
        <ele>28</ele>
        <time>2021-08-14T15:16:57Z</time>
      </trkpt>
      <trkpt lat="47.64435" lon="-3.15732">
        <ele>28</ele>
        <time>2021-08-14T15:16:58Z</time>
      </trkpt>
      <trkpt lat="47.64431" lon="-3.15727">
        <ele>28</ele>
        <time>2021-08-14T15:16:59Z</time>
      </trkpt>
      <trkpt lat="47.64427" lon="-3.15722">
        <ele>28</ele>
        <time>2021-08-14T15:17:00Z</time>
      </trkpt>
      <trkpt lat="47.64423" lon="-3.15718">
        <ele>27.8</ele>
        <time>2021-08-14T15:17:01Z</time>
      </trkpt>
      <trkpt lat="47.64419" lon="-3.15713">
        <ele>27.8</ele>
        <time>2021-08-14T15:17:02Z</time>
      </trkpt>
      <trkpt lat="47.64414" lon="-3.15709">
        <ele>27.8</ele>
        <time>2021-08-14T15:17:03Z</time>
      </trkpt>
      <trkpt lat="47.6441" lon="-3.15704">
        <ele>27.8</ele>
        <time>2021-08-14T15:17:04Z</time>
      </trkpt>
      <trkpt lat="47.64406" lon="-3.157">
        <ele>27.8</ele>
        <time>2021-08-14T15:17:05Z</time>
      </trkpt>
      <trkpt lat="47.64401" lon="-3.15695">
        <ele>27.8</ele>
        <time>2021-08-14T15:17:06Z</time>
      </trkpt>
      <trkpt lat="47.64397" lon="-3.1569">
        <ele>27.8</ele>
        <time>2021-08-14T15:17:07Z</time>
      </trkpt>
      <trkpt lat="47.64393" lon="-3.15686">
        <ele>27.8</ele>
        <time>2021-08-14T15:17:08Z</time>
      </trkpt>
      <trkpt lat="47.64389" lon="-3.15682">
        <ele>27.8</ele>
        <time>2021-08-14T15:17:09Z</time>
      </trkpt>
      <trkpt lat="47.64385" lon="-3.15677">
        <ele>27.8</ele>
        <time>2021-08-14T15:17:10Z</time>
      </trkpt>
      <trkpt lat="47.64381" lon="-3.15673">
        <ele>27.8</ele>
        <time>2021-08-14T15:17:11Z</time>
      </trkpt>
      <trkpt lat="47.64377" lon="-3.15668">
        <ele>27.8</ele>
        <time>2021-08-14T15:17:12Z</time>
      </trkpt>
      <trkpt lat="47.64373" lon="-3.15664">
        <ele>27.8</ele>
        <time>2021-08-14T15:17:13Z</time>
      </trkpt>
      <trkpt lat="47.64368" lon="-3.15659">
        <ele>27.8</ele>
        <time>2021-08-14T15:17:14Z</time>
      </trkpt>
      <trkpt lat="47.64364" lon="-3.15655">
        <ele>27.8</ele>
        <time>2021-08-14T15:17:15Z</time>
      </trkpt>
      <trkpt lat="47.6436" lon="-3.1565">
        <ele>27.8</ele>
        <time>2021-08-14T15:17:16Z</time>
      </trkpt>
      <trkpt lat="47.64356" lon="-3.15646">
        <ele>27.8</ele>
        <time>2021-08-14T15:17:17Z</time>
      </trkpt>
      <trkpt lat="47.64351" lon="-3.15641">
        <ele>27.8</ele>
        <time>2021-08-14T15:17:18Z</time>
      </trkpt>
      <trkpt lat="47.64347" lon="-3.15637">
        <ele>27.8</ele>
        <time>2021-08-14T15:17:19Z</time>
      </trkpt>
      <trkpt lat="47.64343" lon="-3.15633">
        <ele>27.8</ele>
        <time>2021-08-14T15:17:20Z</time>
      </trkpt>
      <trkpt lat="47.6434" lon="-3.15629">
        <ele>27.8</ele>
        <time>2021-08-14T15:17:21Z</time>
      </trkpt>
      <trkpt lat="47.64336" lon="-3.15624">
        <ele>27.8</ele>
        <time>2021-08-14T15:17:22Z</time>
      </trkpt>
      <trkpt lat="47.64332" lon="-3.1562">
        <ele>27.6</ele>
        <time>2021-08-14T15:17:23Z</time>
      </trkpt>
      <trkpt lat="47.64327" lon="-3.15615">
        <ele>27.6</ele>
        <time>2021-08-14T15:17:24Z</time>
      </trkpt>
      <trkpt lat="47.64323" lon="-3.15611">
        <ele>27.6</ele>
        <time>2021-08-14T15:17:25Z</time>
      </trkpt>
      <trkpt lat="47.64319" lon="-3.15606">
        <ele>27.6</ele>
        <time>2021-08-14T15:17:26Z</time>
      </trkpt>
      <trkpt lat="47.64314" lon="-3.15601">
        <ele>27.6</ele>
        <time>2021-08-14T15:17:27Z</time>
      </trkpt>
      <trkpt lat="47.6431" lon="-3.15597">
        <ele>27.6</ele>
        <time>2021-08-14T15:17:28Z</time>
      </trkpt>
      <trkpt lat="47.64306" lon="-3.15593">
        <ele>27.6</ele>
        <time>2021-08-14T15:17:29Z</time>
      </trkpt>
      <trkpt lat="47.64302" lon="-3.15588">
        <ele>27.6</ele>
        <time>2021-08-14T15:17:30Z</time>
      </trkpt>
      <trkpt lat="47.64297" lon="-3.15584">
        <ele>27.6</ele>
        <time>2021-08-14T15:17:31Z</time>
      </trkpt>
      <trkpt lat="47.64293" lon="-3.15579">
        <ele>27.6</ele>
        <time>2021-08-14T15:17:32Z</time>
      </trkpt>
      <trkpt lat="47.64289" lon="-3.15575">
        <ele>27.6</ele>
        <time>2021-08-14T15:17:33Z</time>
      </trkpt>
      <trkpt lat="47.64285" lon="-3.15571">
        <ele>27.8</ele>
        <time>2021-08-14T15:17:34Z</time>
      </trkpt>
      <trkpt lat="47.6428" lon="-3.15566">
        <ele>27.8</ele>
        <time>2021-08-14T15:17:35Z</time>
      </trkpt>
      <trkpt lat="47.64276" lon="-3.15562">
        <ele>27.8</ele>
        <time>2021-08-14T15:17:36Z</time>
      </trkpt>
      <trkpt lat="47.64272" lon="-3.15558">
        <ele>28</ele>
        <time>2021-08-14T15:17:37Z</time>
      </trkpt>
      <trkpt lat="47.64269" lon="-3.15555">
        <ele>28</ele>
        <time>2021-08-14T15:17:38Z</time>
      </trkpt>
      <trkpt lat="47.64265" lon="-3.15552">
        <ele>28</ele>
        <time>2021-08-14T15:17:39Z</time>
      </trkpt>
      <trkpt lat="47.64261" lon="-3.15548">
        <ele>28.2</ele>
        <time>2021-08-14T15:17:40Z</time>
      </trkpt>
      <trkpt lat="47.64257" lon="-3.15546">
        <ele>28.2</ele>
        <time>2021-08-14T15:17:41Z</time>
      </trkpt>
      <trkpt lat="47.64253" lon="-3.15543">
        <ele>28.2</ele>
        <time>2021-08-14T15:17:42Z</time>
      </trkpt>
      <trkpt lat="47.64248" lon="-3.15541">
        <ele>28.2</ele>
        <time>2021-08-14T15:17:43Z</time>
      </trkpt>
      <trkpt lat="47.64244" lon="-3.15539">
        <ele>28.4</ele>
        <time>2021-08-14T15:17:44Z</time>
      </trkpt>
      <trkpt lat="47.6424" lon="-3.15537">
        <ele>28.4</ele>
        <time>2021-08-14T15:17:45Z</time>
      </trkpt>
      <trkpt lat="47.64236" lon="-3.15536">
        <ele>28.4</ele>
        <time>2021-08-14T15:17:46Z</time>
      </trkpt>
      <trkpt lat="47.64231" lon="-3.15534">
        <ele>28.6</ele>
        <time>2021-08-14T15:17:47Z</time>
      </trkpt>
      <trkpt lat="47.64226" lon="-3.15533">
        <ele>28.8</ele>
        <time>2021-08-14T15:17:48Z</time>
      </trkpt>
      <trkpt lat="47.64221" lon="-3.15533">
        <ele>29</ele>
        <time>2021-08-14T15:17:49Z</time>
      </trkpt>
      <trkpt lat="47.64217" lon="-3.15534">
        <ele>29</ele>
        <time>2021-08-14T15:17:50Z</time>
      </trkpt>
      <trkpt lat="47.64212" lon="-3.15534">
        <ele>29</ele>
        <time>2021-08-14T15:17:51Z</time>
      </trkpt>
      <trkpt lat="47.64207" lon="-3.15535">
        <ele>29.4</ele>
        <time>2021-08-14T15:17:52Z</time>
      </trkpt>
      <trkpt lat="47.64203" lon="-3.15535">
        <ele>29.4</ele>
        <time>2021-08-14T15:17:53Z</time>
      </trkpt>
      <trkpt lat="47.64198" lon="-3.15536">
        <ele>29.4</ele>
        <time>2021-08-14T15:17:54Z</time>
      </trkpt>
      <trkpt lat="47.64193" lon="-3.15536">
        <ele>29.2</ele>
        <time>2021-08-14T15:17:55Z</time>
      </trkpt>
      <trkpt lat="47.64188" lon="-3.15536">
        <ele>29.4</ele>
        <time>2021-08-14T15:17:56Z</time>
      </trkpt>
      <trkpt lat="47.64183" lon="-3.15537">
        <ele>29.4</ele>
        <time>2021-08-14T15:17:57Z</time>
      </trkpt>
      <trkpt lat="47.64178" lon="-3.15537">
        <ele>29.2</ele>
        <time>2021-08-14T15:17:58Z</time>
      </trkpt>
      <trkpt lat="47.64174" lon="-3.15538">
        <ele>29.4</ele>
        <time>2021-08-14T15:17:59Z</time>
      </trkpt>
      <trkpt lat="47.64169" lon="-3.15539">
        <ele>29.2</ele>
        <time>2021-08-14T15:18:00Z</time>
      </trkpt>
      <trkpt lat="47.64164" lon="-3.15539">
        <ele>29.2</ele>
        <time>2021-08-14T15:18:01Z</time>
      </trkpt>
      <trkpt lat="47.6416" lon="-3.15539">
        <ele>29.2</ele>
        <time>2021-08-14T15:18:02Z</time>
      </trkpt>
      <trkpt lat="47.64155" lon="-3.15539">
        <ele>29.2</ele>
        <time>2021-08-14T15:18:03Z</time>
      </trkpt>
      <trkpt lat="47.6415" lon="-3.15538">
        <ele>29.2</ele>
        <time>2021-08-14T15:18:04Z</time>
      </trkpt>
      <trkpt lat="47.64146" lon="-3.15537">
        <ele>29.2</ele>
        <time>2021-08-14T15:18:05Z</time>
      </trkpt>
      <trkpt lat="47.64141" lon="-3.15536">
        <ele>29.2</ele>
        <time>2021-08-14T15:18:06Z</time>
      </trkpt>
      <trkpt lat="47.64136" lon="-3.15536">
        <ele>29.4</ele>
        <time>2021-08-14T15:18:07Z</time>
      </trkpt>
      <trkpt lat="47.64132" lon="-3.15536">
        <ele>29.2</ele>
        <time>2021-08-14T15:18:08Z</time>
      </trkpt>
      <trkpt lat="47.64127" lon="-3.15535">
        <ele>29.2</ele>
        <time>2021-08-14T15:18:09Z</time>
      </trkpt>
      <trkpt lat="47.64122" lon="-3.15534">
        <ele>29.2</ele>
        <time>2021-08-14T15:18:10Z</time>
      </trkpt>
      <trkpt lat="47.64118" lon="-3.15532">
        <ele>29.2</ele>
        <time>2021-08-14T15:18:11Z</time>
      </trkpt>
      <trkpt lat="47.64113" lon="-3.1553">
        <ele>29.2</ele>
        <time>2021-08-14T15:18:12Z</time>
      </trkpt>
      <trkpt lat="47.64107" lon="-3.15528">
        <ele>29</ele>
        <time>2021-08-14T15:18:13Z</time>
      </trkpt>
      <trkpt lat="47.64102" lon="-3.15527">
        <ele>29</ele>
        <time>2021-08-14T15:18:14Z</time>
      </trkpt>
      <trkpt lat="47.64096" lon="-3.15525">
        <ele>28.8</ele>
        <time>2021-08-14T15:18:15Z</time>
      </trkpt>
      <trkpt lat="47.64091" lon="-3.15523">
        <ele>28.6</ele>
        <time>2021-08-14T15:18:16Z</time>
      </trkpt>
      <trkpt lat="47.64086" lon="-3.15521">
        <ele>28.4</ele>
        <time>2021-08-14T15:18:17Z</time>
      </trkpt>
      <trkpt lat="47.64081" lon="-3.15518">
        <ele>28.4</ele>
        <time>2021-08-14T15:18:18Z</time>
      </trkpt>
      <trkpt lat="47.64075" lon="-3.15514">
        <ele>28.4</ele>
        <time>2021-08-14T15:18:19Z</time>
      </trkpt>
      <trkpt lat="47.6407" lon="-3.15511">
        <ele>28.6</ele>
        <time>2021-08-14T15:18:20Z</time>
      </trkpt>
      <trkpt lat="47.64064" lon="-3.15507">
        <ele>28.2</ele>
        <time>2021-08-14T15:18:21Z</time>
      </trkpt>
      <trkpt lat="47.64059" lon="-3.15502">
        <ele>28</ele>
        <time>2021-08-14T15:18:22Z</time>
      </trkpt>
      <trkpt lat="47.64054" lon="-3.15499">
        <ele>27.6</ele>
        <time>2021-08-14T15:18:23Z</time>
      </trkpt>
      <trkpt lat="47.64049" lon="-3.15495">
        <ele>27.2</ele>
        <time>2021-08-14T15:18:24Z</time>
      </trkpt>
      <trkpt lat="47.64044" lon="-3.15492">
        <ele>27</ele>
        <time>2021-08-14T15:18:25Z</time>
      </trkpt>
      <trkpt lat="47.64039" lon="-3.15487">
        <ele>27</ele>
        <time>2021-08-14T15:18:26Z</time>
      </trkpt>
      <trkpt lat="47.64034" lon="-3.15484">
        <ele>27</ele>
        <time>2021-08-14T15:18:27Z</time>
      </trkpt>
      <trkpt lat="47.64029" lon="-3.1548">
        <ele>26.8</ele>
        <time>2021-08-14T15:18:28Z</time>
      </trkpt>
      <trkpt lat="47.64025" lon="-3.15476">
        <ele>26.8</ele>
        <time>2021-08-14T15:18:29Z</time>
      </trkpt>
      <trkpt lat="47.64021" lon="-3.15472">
        <ele>26.8</ele>
        <time>2021-08-14T15:18:30Z</time>
      </trkpt>
      <trkpt lat="47.64017" lon="-3.15468">
        <ele>26.8</ele>
        <time>2021-08-14T15:18:31Z</time>
      </trkpt>
      <trkpt lat="47.64013" lon="-3.15464">
        <ele>26.8</ele>
        <time>2021-08-14T15:18:32Z</time>
      </trkpt>
      <trkpt lat="47.64009" lon="-3.1546">
        <ele>26.8</ele>
        <time>2021-08-14T15:18:33Z</time>
      </trkpt>
      <trkpt lat="47.64005" lon="-3.15456">
        <ele>26.8</ele>
        <time>2021-08-14T15:18:34Z</time>
      </trkpt>
      <trkpt lat="47.64" lon="-3.15451">
        <ele>26.8</ele>
        <time>2021-08-14T15:18:35Z</time>
      </trkpt>
      <trkpt lat="47.63996" lon="-3.15447">
        <ele>26.8</ele>
        <time>2021-08-14T15:18:36Z</time>
      </trkpt>
      <trkpt lat="47.63992" lon="-3.15443">
        <ele>26.8</ele>
        <time>2021-08-14T15:18:37Z</time>
      </trkpt>
      <trkpt lat="47.63988" lon="-3.15439">
        <ele>26.8</ele>
        <time>2021-08-14T15:18:38Z</time>
      </trkpt>
      <trkpt lat="47.63983" lon="-3.15434">
        <ele>26.8</ele>
        <time>2021-08-14T15:18:39Z</time>
      </trkpt>
      <trkpt lat="47.63979" lon="-3.15429">
        <ele>27</ele>
        <time>2021-08-14T15:18:40Z</time>
      </trkpt>
      <trkpt lat="47.63975" lon="-3.15425">
        <ele>27</ele>
        <time>2021-08-14T15:18:41Z</time>
      </trkpt>
      <trkpt lat="47.6397" lon="-3.15422">
        <ele>27</ele>
        <time>2021-08-14T15:18:42Z</time>
      </trkpt>
      <trkpt lat="47.63966" lon="-3.15419">
        <ele>27</ele>
        <time>2021-08-14T15:18:43Z</time>
      </trkpt>
      <trkpt lat="47.63961" lon="-3.1542">
        <ele>27</ele>
        <time>2021-08-14T15:18:44Z</time>
      </trkpt>
      <trkpt lat="47.63957" lon="-3.15422">
        <ele>27.2</ele>
        <time>2021-08-14T15:18:45Z</time>
      </trkpt>
      <trkpt lat="47.63953" lon="-3.15426">
        <ele>27.2</ele>
        <time>2021-08-14T15:18:46Z</time>
      </trkpt>
      <trkpt lat="47.6395" lon="-3.15432">
        <ele>27.2</ele>
        <time>2021-08-14T15:18:47Z</time>
      </trkpt>
      <trkpt lat="47.63947" lon="-3.15438">
        <ele>27</ele>
        <time>2021-08-14T15:18:48Z</time>
      </trkpt>
      <trkpt lat="47.63944" lon="-3.15444">
        <ele>27</ele>
        <time>2021-08-14T15:18:49Z</time>
      </trkpt>
      <trkpt lat="47.63941" lon="-3.1545">
        <ele>26.8</ele>
        <time>2021-08-14T15:18:50Z</time>
      </trkpt>
      <trkpt lat="47.63939" lon="-3.15455">
        <ele>26.8</ele>
        <time>2021-08-14T15:18:51Z</time>
      </trkpt>
      <trkpt lat="47.63937" lon="-3.15459">
        <ele>26.8</ele>
        <time>2021-08-14T15:18:52Z</time>
      </trkpt>
      <trkpt lat="47.63936" lon="-3.15462">
        <ele>26.8</ele>
        <time>2021-08-14T15:18:53Z</time>
      </trkpt>
      <trkpt lat="47.63934" lon="-3.15465">
        <ele>26.8</ele>
        <time>2021-08-14T15:18:54Z</time>
      </trkpt>
      <trkpt lat="47.63932" lon="-3.15467">
        <ele>26.8</ele>
        <time>2021-08-14T15:18:55Z</time>
      </trkpt>
      <trkpt lat="47.63931" lon="-3.15467">
        <ele>26.8</ele>
        <time>2021-08-14T15:18:56Z</time>
      </trkpt>
      <trkpt lat="47.63929" lon="-3.15467">
        <ele>26.8</ele>
        <time>2021-08-14T15:18:57Z</time>
      </trkpt>
      <trkpt lat="47.63928" lon="-3.15466">
        <ele>27</ele>
        <time>2021-08-14T15:18:58Z</time>
      </trkpt>
      <trkpt lat="47.63927" lon="-3.15465">
        <ele>27</ele>
        <time>2021-08-14T15:18:59Z</time>
      </trkpt>
      <trkpt lat="47.63925" lon="-3.15466">
        <ele>27</ele>
        <time>2021-08-14T15:19:00Z</time>
      </trkpt>
      <trkpt lat="47.63923" lon="-3.15468">
        <ele>27</ele>
        <time>2021-08-14T15:19:01Z</time>
      </trkpt>
      <trkpt lat="47.63921" lon="-3.15471">
        <ele>27.2</ele>
        <time>2021-08-14T15:19:02Z</time>
      </trkpt>
      <trkpt lat="47.63919" lon="-3.15474">
        <ele>27.2</ele>
        <time>2021-08-14T15:19:03Z</time>
      </trkpt>
      <trkpt lat="47.63917" lon="-3.15479">
        <ele>27.2</ele>
        <time>2021-08-14T15:19:04Z</time>
      </trkpt>
      <trkpt lat="47.63915" lon="-3.15483">
        <ele>27.2</ele>
        <time>2021-08-14T15:19:05Z</time>
      </trkpt>
      <trkpt lat="47.63913" lon="-3.15487">
        <ele>27.2</ele>
        <time>2021-08-14T15:19:06Z</time>
      </trkpt>
      <trkpt lat="47.6391" lon="-3.15492">
        <ele>27.2</ele>
        <time>2021-08-14T15:19:07Z</time>
      </trkpt>
      <trkpt lat="47.63907" lon="-3.15496">
        <ele>27.2</ele>
        <time>2021-08-14T15:19:08Z</time>
      </trkpt>
      <trkpt lat="47.63905" lon="-3.15501">
        <ele>27.2</ele>
        <time>2021-08-14T15:19:09Z</time>
      </trkpt>
      <trkpt lat="47.63902" lon="-3.15506">
        <ele>27.2</ele>
        <time>2021-08-14T15:19:10Z</time>
      </trkpt>
      <trkpt lat="47.639" lon="-3.15511">
        <ele>27</ele>
        <time>2021-08-14T15:19:11Z</time>
      </trkpt>
      <trkpt lat="47.63897" lon="-3.15516">
        <ele>27</ele>
        <time>2021-08-14T15:19:12Z</time>
      </trkpt>
      <trkpt lat="47.63894" lon="-3.1552">
        <ele>27</ele>
        <time>2021-08-14T15:19:13Z</time>
      </trkpt>
      <trkpt lat="47.63891" lon="-3.15525">
        <ele>27</ele>
        <time>2021-08-14T15:19:14Z</time>
      </trkpt>
      <trkpt lat="47.63888" lon="-3.1553">
        <ele>27</ele>
        <time>2021-08-14T15:19:15Z</time>
      </trkpt>
      <trkpt lat="47.63885" lon="-3.15536">
        <ele>27</ele>
        <time>2021-08-14T15:19:16Z</time>
      </trkpt>
      <trkpt lat="47.63882" lon="-3.15541">
        <ele>26.8</ele>
        <time>2021-08-14T15:19:17Z</time>
      </trkpt>
      <trkpt lat="47.63879" lon="-3.15546">
        <ele>26.6</ele>
        <time>2021-08-14T15:19:18Z</time>
      </trkpt>
      <trkpt lat="47.63876" lon="-3.15551">
        <ele>26.6</ele>
        <time>2021-08-14T15:19:19Z</time>
      </trkpt>
      <trkpt lat="47.63872" lon="-3.15555">
        <ele>26.4</ele>
        <time>2021-08-14T15:19:20Z</time>
      </trkpt>
      <trkpt lat="47.63869" lon="-3.15559">
        <ele>26.4</ele>
        <time>2021-08-14T15:19:21Z</time>
      </trkpt>
      <trkpt lat="47.63866" lon="-3.15563">
        <ele>26.4</ele>
        <time>2021-08-14T15:19:22Z</time>
      </trkpt>
      <trkpt lat="47.63863" lon="-3.15567">
        <ele>26.2</ele>
        <time>2021-08-14T15:19:23Z</time>
      </trkpt>
      <trkpt lat="47.63859" lon="-3.15571">
        <ele>26.2</ele>
        <time>2021-08-14T15:19:24Z</time>
      </trkpt>
      <trkpt lat="47.63856" lon="-3.15574">
        <ele>26.2</ele>
        <time>2021-08-14T15:19:25Z</time>
      </trkpt>
      <trkpt lat="47.63853" lon="-3.15577">
        <ele>26.2</ele>
        <time>2021-08-14T15:19:26Z</time>
      </trkpt>
      <trkpt lat="47.63849" lon="-3.1558">
        <ele>26.2</ele>
        <time>2021-08-14T15:19:27Z</time>
      </trkpt>
      <trkpt lat="47.63845" lon="-3.15583">
        <ele>26.2</ele>
        <time>2021-08-14T15:19:28Z</time>
      </trkpt>
      <trkpt lat="47.63841" lon="-3.15586">
        <ele>26.2</ele>
        <time>2021-08-14T15:19:29Z</time>
      </trkpt>
      <trkpt lat="47.63837" lon="-3.15589">
        <ele>26.2</ele>
        <time>2021-08-14T15:19:30Z</time>
      </trkpt>
      <trkpt lat="47.63833" lon="-3.15591">
        <ele>26</ele>
        <time>2021-08-14T15:19:31Z</time>
      </trkpt>
      <trkpt lat="47.63828" lon="-3.15593">
        <ele>26</ele>
        <time>2021-08-14T15:19:32Z</time>
      </trkpt>
      <trkpt lat="47.63824" lon="-3.15595">
        <ele>26</ele>
        <time>2021-08-14T15:19:33Z</time>
      </trkpt>
      <trkpt lat="47.6382" lon="-3.15597">
        <ele>26</ele>
        <time>2021-08-14T15:19:34Z</time>
      </trkpt>
      <trkpt lat="47.63816" lon="-3.15598">
        <ele>26</ele>
        <time>2021-08-14T15:19:35Z</time>
      </trkpt>
      <trkpt lat="47.63812" lon="-3.156">
        <ele>26</ele>
        <time>2021-08-14T15:19:36Z</time>
      </trkpt>
      <trkpt lat="47.63808" lon="-3.15601">
        <ele>26</ele>
        <time>2021-08-14T15:19:37Z</time>
      </trkpt>
      <trkpt lat="47.63803" lon="-3.15602">
        <ele>26</ele>
        <time>2021-08-14T15:19:38Z</time>
      </trkpt>
      <trkpt lat="47.63798" lon="-3.15603">
        <ele>26</ele>
        <time>2021-08-14T15:19:39Z</time>
      </trkpt>
      <trkpt lat="47.63789" lon="-3.15604">
        <ele>26</ele>
        <time>2021-08-14T15:19:41Z</time>
      </trkpt>
      <trkpt lat="47.63784" lon="-3.15605">
        <ele>25.8</ele>
        <time>2021-08-14T15:19:42Z</time>
      </trkpt>
      <trkpt lat="47.63779" lon="-3.15606">
        <ele>25.8</ele>
        <time>2021-08-14T15:19:43Z</time>
      </trkpt>
      <trkpt lat="47.63774" lon="-3.15607">
        <ele>25.8</ele>
        <time>2021-08-14T15:19:44Z</time>
      </trkpt>
      <trkpt lat="47.63769" lon="-3.15608">
        <ele>25.8</ele>
        <time>2021-08-14T15:19:45Z</time>
      </trkpt>
      <trkpt lat="47.63763" lon="-3.15609">
        <ele>25.6</ele>
        <time>2021-08-14T15:19:46Z</time>
      </trkpt>
      <trkpt lat="47.63758" lon="-3.1561">
        <ele>25.6</ele>
        <time>2021-08-14T15:19:47Z</time>
      </trkpt>
      <trkpt lat="47.63753" lon="-3.15611">
        <ele>25.6</ele>
        <time>2021-08-14T15:19:48Z</time>
      </trkpt>
      <trkpt lat="47.63748" lon="-3.15612">
        <ele>25.6</ele>
        <time>2021-08-14T15:19:49Z</time>
      </trkpt>
      <trkpt lat="47.63743" lon="-3.15612">
        <ele>25.6</ele>
        <time>2021-08-14T15:19:50Z</time>
      </trkpt>
      <trkpt lat="47.63738" lon="-3.15613">
        <ele>25.4</ele>
        <time>2021-08-14T15:19:51Z</time>
      </trkpt>
      <trkpt lat="47.63733" lon="-3.15614">
        <ele>25.4</ele>
        <time>2021-08-14T15:19:52Z</time>
      </trkpt>
      <trkpt lat="47.63728" lon="-3.15615">
        <ele>25.4</ele>
        <time>2021-08-14T15:19:53Z</time>
      </trkpt>
      <trkpt lat="47.63723" lon="-3.15615">
        <ele>25.4</ele>
        <time>2021-08-14T15:19:54Z</time>
      </trkpt>
      <trkpt lat="47.63718" lon="-3.15616">
        <ele>25.2</ele>
        <time>2021-08-14T15:19:55Z</time>
      </trkpt>
      <trkpt lat="47.63713" lon="-3.15617">
        <ele>25.2</ele>
        <time>2021-08-14T15:19:56Z</time>
      </trkpt>
      <trkpt lat="47.63708" lon="-3.15617">
        <ele>25.2</ele>
        <time>2021-08-14T15:19:57Z</time>
      </trkpt>
      <trkpt lat="47.63703" lon="-3.15619">
        <ele>25.2</ele>
        <time>2021-08-14T15:19:58Z</time>
      </trkpt>
      <trkpt lat="47.63698" lon="-3.1562">
        <ele>25.2</ele>
        <time>2021-08-14T15:19:59Z</time>
      </trkpt>
      <trkpt lat="47.63694" lon="-3.15621">
        <ele>25.2</ele>
        <time>2021-08-14T15:20:00Z</time>
      </trkpt>
      <trkpt lat="47.63689" lon="-3.15622">
        <ele>25</ele>
        <time>2021-08-14T15:20:01Z</time>
      </trkpt>
      <trkpt lat="47.63683" lon="-3.15622">
        <ele>25</ele>
        <time>2021-08-14T15:20:02Z</time>
      </trkpt>
      <trkpt lat="47.63678" lon="-3.15623">
        <ele>25</ele>
        <time>2021-08-14T15:20:03Z</time>
      </trkpt>
      <trkpt lat="47.63673" lon="-3.15624">
        <ele>25</ele>
        <time>2021-08-14T15:20:04Z</time>
      </trkpt>
      <trkpt lat="47.63668" lon="-3.15625">
        <ele>25</ele>
        <time>2021-08-14T15:20:05Z</time>
      </trkpt>
      <trkpt lat="47.63663" lon="-3.15625">
        <ele>25</ele>
        <time>2021-08-14T15:20:06Z</time>
      </trkpt>
      <trkpt lat="47.63658" lon="-3.15626">
        <ele>25</ele>
        <time>2021-08-14T15:20:07Z</time>
      </trkpt>
      <trkpt lat="47.63653" lon="-3.15627">
        <ele>25</ele>
        <time>2021-08-14T15:20:08Z</time>
      </trkpt>
      <trkpt lat="47.63648" lon="-3.15628">
        <ele>25</ele>
        <time>2021-08-14T15:20:09Z</time>
      </trkpt>
      <trkpt lat="47.63643" lon="-3.15628">
        <ele>25</ele>
        <time>2021-08-14T15:20:10Z</time>
      </trkpt>
      <trkpt lat="47.63638" lon="-3.15629">
        <ele>25</ele>
        <time>2021-08-14T15:20:11Z</time>
      </trkpt>
      <trkpt lat="47.63633" lon="-3.1563">
        <ele>25</ele>
        <time>2021-08-14T15:20:12Z</time>
      </trkpt>
      <trkpt lat="47.63628" lon="-3.1563">
        <ele>25</ele>
        <time>2021-08-14T15:20:13Z</time>
      </trkpt>
      <trkpt lat="47.63623" lon="-3.15631">
        <ele>25</ele>
        <time>2021-08-14T15:20:14Z</time>
      </trkpt>
      <trkpt lat="47.63618" lon="-3.15633">
        <ele>25</ele>
        <time>2021-08-14T15:20:15Z</time>
      </trkpt>
      <trkpt lat="47.63612" lon="-3.15634">
        <ele>25</ele>
        <time>2021-08-14T15:20:16Z</time>
      </trkpt>
      <trkpt lat="47.63607" lon="-3.15635">
        <ele>25</ele>
        <time>2021-08-14T15:20:17Z</time>
      </trkpt>
      <trkpt lat="47.63602" lon="-3.15636">
        <ele>25</ele>
        <time>2021-08-14T15:20:18Z</time>
      </trkpt>
      <trkpt lat="47.63596" lon="-3.15637">
        <ele>25</ele>
        <time>2021-08-14T15:20:19Z</time>
      </trkpt>
      <trkpt lat="47.63591" lon="-3.15637">
        <ele>25</ele>
        <time>2021-08-14T15:20:20Z</time>
      </trkpt>
      <trkpt lat="47.63586" lon="-3.15638">
        <ele>25</ele>
        <time>2021-08-14T15:20:21Z</time>
      </trkpt>
      <trkpt lat="47.63581" lon="-3.15638">
        <ele>25</ele>
        <time>2021-08-14T15:20:22Z</time>
      </trkpt>
      <trkpt lat="47.63577" lon="-3.15639">
        <ele>25</ele>
        <time>2021-08-14T15:20:23Z</time>
      </trkpt>
      <trkpt lat="47.63572" lon="-3.15639">
        <ele>25</ele>
        <time>2021-08-14T15:20:24Z</time>
      </trkpt>
      <trkpt lat="47.63567" lon="-3.15639">
        <ele>25</ele>
        <time>2021-08-14T15:20:25Z</time>
      </trkpt>
      <trkpt lat="47.63562" lon="-3.15638">
        <ele>25</ele>
        <time>2021-08-14T15:20:26Z</time>
      </trkpt>
      <trkpt lat="47.63558" lon="-3.15638">
        <ele>25</ele>
        <time>2021-08-14T15:20:27Z</time>
      </trkpt>
      <trkpt lat="47.63553" lon="-3.15637">
        <ele>25</ele>
        <time>2021-08-14T15:20:28Z</time>
      </trkpt>
      <trkpt lat="47.63548" lon="-3.15636">
        <ele>25</ele>
        <time>2021-08-14T15:20:29Z</time>
      </trkpt>
      <trkpt lat="47.63544" lon="-3.15635">
        <ele>25</ele>
        <time>2021-08-14T15:20:30Z</time>
      </trkpt>
      <trkpt lat="47.6354" lon="-3.15634">
        <ele>25</ele>
        <time>2021-08-14T15:20:31Z</time>
      </trkpt>
      <trkpt lat="47.63535" lon="-3.15633">
        <ele>25</ele>
        <time>2021-08-14T15:20:32Z</time>
      </trkpt>
      <trkpt lat="47.63531" lon="-3.15631">
        <ele>25</ele>
        <time>2021-08-14T15:20:33Z</time>
      </trkpt>
      <trkpt lat="47.63526" lon="-3.15631">
        <ele>25</ele>
        <time>2021-08-14T15:20:34Z</time>
      </trkpt>
      <trkpt lat="47.63522" lon="-3.1563">
        <ele>25</ele>
        <time>2021-08-14T15:20:35Z</time>
      </trkpt>
      <trkpt lat="47.63518" lon="-3.15629">
        <ele>25</ele>
        <time>2021-08-14T15:20:36Z</time>
      </trkpt>
      <trkpt lat="47.63514" lon="-3.15628">
        <ele>25.2</ele>
        <time>2021-08-14T15:20:37Z</time>
      </trkpt>
      <trkpt lat="47.6351" lon="-3.15627">
        <ele>25.2</ele>
        <time>2021-08-14T15:20:38Z</time>
      </trkpt>
      <trkpt lat="47.63506" lon="-3.15626">
        <ele>25.2</ele>
        <time>2021-08-14T15:20:39Z</time>
      </trkpt>
      <trkpt lat="47.63503" lon="-3.15623">
        <ele>25.2</ele>
        <time>2021-08-14T15:20:40Z</time>
      </trkpt>
      <trkpt lat="47.63501" lon="-3.15619">
        <ele>25.4</ele>
        <time>2021-08-14T15:20:41Z</time>
      </trkpt>
      <trkpt lat="47.63499" lon="-3.15615">
        <ele>25.4</ele>
        <time>2021-08-14T15:20:42Z</time>
      </trkpt>
      <trkpt lat="47.63498" lon="-3.1561">
        <ele>25.4</ele>
        <time>2021-08-14T15:20:43Z</time>
      </trkpt>
      <trkpt lat="47.63497" lon="-3.15605">
        <ele>25.4</ele>
        <time>2021-08-14T15:20:44Z</time>
      </trkpt>
      <trkpt lat="47.63494" lon="-3.15602">
        <ele>25.4</ele>
        <time>2021-08-14T15:20:45Z</time>
      </trkpt>
      <trkpt lat="47.63491" lon="-3.15602">
        <ele>25.4</ele>
        <time>2021-08-14T15:20:46Z</time>
      </trkpt>
      <trkpt lat="47.63488" lon="-3.15604">
        <ele>25.4</ele>
        <time>2021-08-14T15:20:47Z</time>
      </trkpt>
      <trkpt lat="47.63486" lon="-3.15606">
        <ele>25.4</ele>
        <time>2021-08-14T15:20:48Z</time>
      </trkpt>
      <trkpt lat="47.63483" lon="-3.1561">
        <ele>25.2</ele>
        <time>2021-08-14T15:20:49Z</time>
      </trkpt>
      <trkpt lat="47.63481" lon="-3.15613">
        <ele>25.2</ele>
        <time>2021-08-14T15:20:50Z</time>
      </trkpt>
      <trkpt lat="47.63478" lon="-3.15616">
        <ele>25.2</ele>
        <time>2021-08-14T15:20:51Z</time>
      </trkpt>
      <trkpt lat="47.63475" lon="-3.15619">
        <ele>25</ele>
        <time>2021-08-14T15:20:52Z</time>
      </trkpt>
      <trkpt lat="47.63472" lon="-3.15622">
        <ele>25</ele>
        <time>2021-08-14T15:20:53Z</time>
      </trkpt>
      <trkpt lat="47.63468" lon="-3.15624">
        <ele>25</ele>
        <time>2021-08-14T15:20:54Z</time>
      </trkpt>
      <trkpt lat="47.63465" lon="-3.15625">
        <ele>25</ele>
        <time>2021-08-14T15:20:55Z</time>
      </trkpt>
      <trkpt lat="47.63461" lon="-3.15626">
        <ele>25</ele>
        <time>2021-08-14T15:20:56Z</time>
      </trkpt>
      <trkpt lat="47.63458" lon="-3.15626">
        <ele>25</ele>
        <time>2021-08-14T15:20:57Z</time>
      </trkpt>
      <trkpt lat="47.63456" lon="-3.15627">
        <ele>24.8</ele>
        <time>2021-08-14T15:20:58Z</time>
      </trkpt>
      <trkpt lat="47.63453" lon="-3.15627">
        <ele>24.8</ele>
        <time>2021-08-14T15:20:59Z</time>
      </trkpt>
      <trkpt lat="47.6345" lon="-3.15628">
        <ele>24.8</ele>
        <time>2021-08-14T15:21:00Z</time>
      </trkpt>
      <trkpt lat="47.63446" lon="-3.15629">
        <ele>24.8</ele>
        <time>2021-08-14T15:21:01Z</time>
      </trkpt>
      <trkpt lat="47.63442" lon="-3.1563">
        <ele>24.8</ele>
        <time>2021-08-14T15:21:02Z</time>
      </trkpt>
      <trkpt lat="47.63438" lon="-3.15631">
        <ele>24.8</ele>
        <time>2021-08-14T15:21:03Z</time>
      </trkpt>
      <trkpt lat="47.63434" lon="-3.15631">
        <ele>24.8</ele>
        <time>2021-08-14T15:21:04Z</time>
      </trkpt>
      <trkpt lat="47.63429" lon="-3.15632">
        <ele>24.8</ele>
        <time>2021-08-14T15:21:05Z</time>
      </trkpt>
      <trkpt lat="47.63424" lon="-3.15633">
        <ele>24.8</ele>
        <time>2021-08-14T15:21:06Z</time>
      </trkpt>
      <trkpt lat="47.6342" lon="-3.15634">
        <ele>24.8</ele>
        <time>2021-08-14T15:21:07Z</time>
      </trkpt>
      <trkpt lat="47.63415" lon="-3.15635">
        <ele>24.6</ele>
        <time>2021-08-14T15:21:08Z</time>
      </trkpt>
      <trkpt lat="47.6341" lon="-3.15636">
        <ele>24.6</ele>
        <time>2021-08-14T15:21:09Z</time>
      </trkpt>
      <trkpt lat="47.63406" lon="-3.15638">
        <ele>24.6</ele>
        <time>2021-08-14T15:21:10Z</time>
      </trkpt>
      <trkpt lat="47.63401" lon="-3.15639">
        <ele>24.2</ele>
        <time>2021-08-14T15:21:11Z</time>
      </trkpt>
      <trkpt lat="47.63396" lon="-3.1564">
        <ele>23.8</ele>
        <time>2021-08-14T15:21:12Z</time>
      </trkpt>
      <trkpt lat="47.63391" lon="-3.15641">
        <ele>23.6</ele>
        <time>2021-08-14T15:21:13Z</time>
      </trkpt>
      <trkpt lat="47.63386" lon="-3.15643">
        <ele>23.4</ele>
        <time>2021-08-14T15:21:14Z</time>
      </trkpt>
      <trkpt lat="47.63381" lon="-3.15645">
        <ele>23.4</ele>
        <time>2021-08-14T15:21:15Z</time>
      </trkpt>
      <trkpt lat="47.63376" lon="-3.15648">
        <ele>23.4</ele>
        <time>2021-08-14T15:21:16Z</time>
      </trkpt>
      <trkpt lat="47.63372" lon="-3.15651">
        <ele>23.4</ele>
        <time>2021-08-14T15:21:17Z</time>
      </trkpt>
      <trkpt lat="47.63367" lon="-3.15654">
        <ele>23.4</ele>
        <time>2021-08-14T15:21:18Z</time>
      </trkpt>
      <trkpt lat="47.63363" lon="-3.15657">
        <ele>23.4</ele>
        <time>2021-08-14T15:21:19Z</time>
      </trkpt>
      <trkpt lat="47.63358" lon="-3.1566">
        <ele>23.4</ele>
        <time>2021-08-14T15:21:20Z</time>
      </trkpt>
      <trkpt lat="47.63354" lon="-3.15663">
        <ele>23.4</ele>
        <time>2021-08-14T15:21:21Z</time>
      </trkpt>
      <trkpt lat="47.6335" lon="-3.15667">
        <ele>23.4</ele>
        <time>2021-08-14T15:21:22Z</time>
      </trkpt>
      <trkpt lat="47.63347" lon="-3.15671">
        <ele>23.4</ele>
        <time>2021-08-14T15:21:23Z</time>
      </trkpt>
      <trkpt lat="47.63343" lon="-3.15675">
        <ele>23.6</ele>
        <time>2021-08-14T15:21:24Z</time>
      </trkpt>
      <trkpt lat="47.6334" lon="-3.15679">
        <ele>23.8</ele>
        <time>2021-08-14T15:21:25Z</time>
      </trkpt>
      <trkpt lat="47.63337" lon="-3.15683">
        <ele>24</ele>
        <time>2021-08-14T15:21:26Z</time>
      </trkpt>
      <trkpt lat="47.63334" lon="-3.15688">
        <ele>24</ele>
        <time>2021-08-14T15:21:27Z</time>
      </trkpt>
      <trkpt lat="47.63332" lon="-3.15692">
        <ele>24.2</ele>
        <time>2021-08-14T15:21:28Z</time>
      </trkpt>
      <trkpt lat="47.63329" lon="-3.15697">
        <ele>24.2</ele>
        <time>2021-08-14T15:21:29Z</time>
      </trkpt>
      <trkpt lat="47.63327" lon="-3.15702">
        <ele>24.4</ele>
        <time>2021-08-14T15:21:30Z</time>
      </trkpt>
      <trkpt lat="47.63324" lon="-3.15707">
        <ele>24.4</ele>
        <time>2021-08-14T15:21:31Z</time>
      </trkpt>
      <trkpt lat="47.63322" lon="-3.15712">
        <ele>24.6</ele>
        <time>2021-08-14T15:21:32Z</time>
      </trkpt>
      <trkpt lat="47.63319" lon="-3.15718">
        <ele>24.8</ele>
        <time>2021-08-14T15:21:33Z</time>
      </trkpt>
      <trkpt lat="47.63316" lon="-3.15723">
        <ele>25</ele>
        <time>2021-08-14T15:21:34Z</time>
      </trkpt>
      <trkpt lat="47.63314" lon="-3.15728">
        <ele>25</ele>
        <time>2021-08-14T15:21:35Z</time>
      </trkpt>
      <trkpt lat="47.63311" lon="-3.15733">
        <ele>25.2</ele>
        <time>2021-08-14T15:21:36Z</time>
      </trkpt>
      <trkpt lat="47.63308" lon="-3.15739">
        <ele>25.4</ele>
        <time>2021-08-14T15:21:37Z</time>
      </trkpt>
      <trkpt lat="47.63306" lon="-3.15744">
        <ele>25.4</ele>
        <time>2021-08-14T15:21:38Z</time>
      </trkpt>
      <trkpt lat="47.63303" lon="-3.15749">
        <ele>25.4</ele>
        <time>2021-08-14T15:21:39Z</time>
      </trkpt>
      <trkpt lat="47.633" lon="-3.15754">
        <ele>25.6</ele>
        <time>2021-08-14T15:21:40Z</time>
      </trkpt>
      <trkpt lat="47.63297" lon="-3.15758">
        <ele>25.6</ele>
        <time>2021-08-14T15:21:41Z</time>
      </trkpt>
      <trkpt lat="47.63294" lon="-3.15763">
        <ele>25.6</ele>
        <time>2021-08-14T15:21:42Z</time>
      </trkpt>
      <trkpt lat="47.6329" lon="-3.15768">
        <ele>25.6</ele>
        <time>2021-08-14T15:21:43Z</time>
      </trkpt>
      <trkpt lat="47.63287" lon="-3.15772">
        <ele>25.6</ele>
        <time>2021-08-14T15:21:44Z</time>
      </trkpt>
      <trkpt lat="47.63283" lon="-3.15777">
        <ele>25.6</ele>
        <time>2021-08-14T15:21:45Z</time>
      </trkpt>
      <trkpt lat="47.63279" lon="-3.15782">
        <ele>25.8</ele>
        <time>2021-08-14T15:21:46Z</time>
      </trkpt>
      <trkpt lat="47.63275" lon="-3.15786">
        <ele>25.8</ele>
        <time>2021-08-14T15:21:47Z</time>
      </trkpt>
      <trkpt lat="47.63271" lon="-3.1579">
        <ele>25.8</ele>
        <time>2021-08-14T15:21:48Z</time>
      </trkpt>
      <trkpt lat="47.63267" lon="-3.15794">
        <ele>25.8</ele>
        <time>2021-08-14T15:21:49Z</time>
      </trkpt>
      <trkpt lat="47.63263" lon="-3.15798">
        <ele>25.8</ele>
        <time>2021-08-14T15:21:50Z</time>
      </trkpt>
      <trkpt lat="47.63259" lon="-3.15801">
        <ele>25.8</ele>
        <time>2021-08-14T15:21:51Z</time>
      </trkpt>
      <trkpt lat="47.63254" lon="-3.15803">
        <ele>25.8</ele>
        <time>2021-08-14T15:21:52Z</time>
      </trkpt>
      <trkpt lat="47.6325" lon="-3.15806">
        <ele>25.8</ele>
        <time>2021-08-14T15:21:53Z</time>
      </trkpt>
      <trkpt lat="47.63245" lon="-3.15808">
        <ele>25.8</ele>
        <time>2021-08-14T15:21:54Z</time>
      </trkpt>
      <trkpt lat="47.63241" lon="-3.15809">
        <ele>25.8</ele>
        <time>2021-08-14T15:21:55Z</time>
      </trkpt>
      <trkpt lat="47.63236" lon="-3.1581">
        <ele>25.8</ele>
        <time>2021-08-14T15:21:56Z</time>
      </trkpt>
      <trkpt lat="47.63232" lon="-3.15812">
        <ele>25.8</ele>
        <time>2021-08-14T15:21:57Z</time>
      </trkpt>
      <trkpt lat="47.63227" lon="-3.15813">
        <ele>25.8</ele>
        <time>2021-08-14T15:21:58Z</time>
      </trkpt>
      <trkpt lat="47.63222" lon="-3.15813">
        <ele>25.8</ele>
        <time>2021-08-14T15:21:59Z</time>
      </trkpt>
      <trkpt lat="47.63218" lon="-3.15813">
        <ele>26</ele>
        <time>2021-08-14T15:22:00Z</time>
      </trkpt>
      <trkpt lat="47.63213" lon="-3.15813">
        <ele>26</ele>
        <time>2021-08-14T15:22:01Z</time>
      </trkpt>
      <trkpt lat="47.63209" lon="-3.15813">
        <ele>26</ele>
        <time>2021-08-14T15:22:02Z</time>
      </trkpt>
      <trkpt lat="47.63204" lon="-3.15813">
        <ele>26</ele>
        <time>2021-08-14T15:22:03Z</time>
      </trkpt>
      <trkpt lat="47.632" lon="-3.15813">
        <ele>26</ele>
        <time>2021-08-14T15:22:04Z</time>
      </trkpt>
      <trkpt lat="47.63195" lon="-3.15813">
        <ele>26</ele>
        <time>2021-08-14T15:22:05Z</time>
      </trkpt>
      <trkpt lat="47.6319" lon="-3.15813">
        <ele>26</ele>
        <time>2021-08-14T15:22:06Z</time>
      </trkpt>
      <trkpt lat="47.63186" lon="-3.15812">
        <ele>25.8</ele>
        <time>2021-08-14T15:22:07Z</time>
      </trkpt>
      <trkpt lat="47.63181" lon="-3.15812">
        <ele>25.8</ele>
        <time>2021-08-14T15:22:08Z</time>
      </trkpt>
      <trkpt lat="47.63176" lon="-3.15812">
        <ele>25.8</ele>
        <time>2021-08-14T15:22:09Z</time>
      </trkpt>
      <trkpt lat="47.63171" lon="-3.15811">
        <ele>25.6</ele>
        <time>2021-08-14T15:22:10Z</time>
      </trkpt>
      <trkpt lat="47.63166" lon="-3.1581">
        <ele>25.6</ele>
        <time>2021-08-14T15:22:11Z</time>
      </trkpt>
      <trkpt lat="47.63161" lon="-3.1581">
        <ele>25.6</ele>
        <time>2021-08-14T15:22:12Z</time>
      </trkpt>
      <trkpt lat="47.63156" lon="-3.1581">
        <ele>25.6</ele>
        <time>2021-08-14T15:22:13Z</time>
      </trkpt>
      <trkpt lat="47.63151" lon="-3.15809">
        <ele>25.4</ele>
        <time>2021-08-14T15:22:14Z</time>
      </trkpt>
      <trkpt lat="47.63145" lon="-3.15809">
        <ele>25.2</ele>
        <time>2021-08-14T15:22:15Z</time>
      </trkpt>
      <trkpt lat="47.6314" lon="-3.15808">
        <ele>25</ele>
        <time>2021-08-14T15:22:16Z</time>
      </trkpt>
      <trkpt lat="47.63135" lon="-3.15808">
        <ele>24.8</ele>
        <time>2021-08-14T15:22:17Z</time>
      </trkpt>
      <trkpt lat="47.6313" lon="-3.15807">
        <ele>24.6</ele>
        <time>2021-08-14T15:22:18Z</time>
      </trkpt>
      <trkpt lat="47.63124" lon="-3.15807">
        <ele>24.6</ele>
        <time>2021-08-14T15:22:19Z</time>
      </trkpt>
      <trkpt lat="47.63119" lon="-3.15807">
        <ele>24.6</ele>
        <time>2021-08-14T15:22:20Z</time>
      </trkpt>
      <trkpt lat="47.63114" lon="-3.15806">
        <ele>24.4</ele>
        <time>2021-08-14T15:22:21Z</time>
      </trkpt>
      <trkpt lat="47.63109" lon="-3.15806">
        <ele>24.4</ele>
        <time>2021-08-14T15:22:22Z</time>
      </trkpt>
      <trkpt lat="47.63104" lon="-3.15805">
        <ele>24.4</ele>
        <time>2021-08-14T15:22:23Z</time>
      </trkpt>
      <trkpt lat="47.63099" lon="-3.15805">
        <ele>24.2</ele>
        <time>2021-08-14T15:22:24Z</time>
      </trkpt>
      <trkpt lat="47.63094" lon="-3.15805">
        <ele>24</ele>
        <time>2021-08-14T15:22:25Z</time>
      </trkpt>
      <trkpt lat="47.63089" lon="-3.15804">
        <ele>24</ele>
        <time>2021-08-14T15:22:26Z</time>
      </trkpt>
      <trkpt lat="47.63084" lon="-3.15804">
        <ele>23.8</ele>
        <time>2021-08-14T15:22:27Z</time>
      </trkpt>
      <trkpt lat="47.63078" lon="-3.15804">
        <ele>23.8</ele>
        <time>2021-08-14T15:22:28Z</time>
      </trkpt>
      <trkpt lat="47.63073" lon="-3.15803">
        <ele>23.8</ele>
        <time>2021-08-14T15:22:29Z</time>
      </trkpt>
      <trkpt lat="47.63068" lon="-3.15803">
        <ele>23.8</ele>
        <time>2021-08-14T15:22:30Z</time>
      </trkpt>
      <trkpt lat="47.63063" lon="-3.15803">
        <ele>23.8</ele>
        <time>2021-08-14T15:22:31Z</time>
      </trkpt>
      <trkpt lat="47.63058" lon="-3.15802">
        <ele>23.6</ele>
        <time>2021-08-14T15:22:32Z</time>
      </trkpt>
      <trkpt lat="47.63053" lon="-3.15801">
        <ele>23.6</ele>
        <time>2021-08-14T15:22:33Z</time>
      </trkpt>
      <trkpt lat="47.63048" lon="-3.15801">
        <ele>23.6</ele>
        <time>2021-08-14T15:22:34Z</time>
      </trkpt>
      <trkpt lat="47.63043" lon="-3.15801">
        <ele>23.6</ele>
        <time>2021-08-14T15:22:35Z</time>
      </trkpt>
      <trkpt lat="47.63038" lon="-3.15801">
        <ele>23.6</ele>
        <time>2021-08-14T15:22:36Z</time>
      </trkpt>
      <trkpt lat="47.63033" lon="-3.15801">
        <ele>23.6</ele>
        <time>2021-08-14T15:22:37Z</time>
      </trkpt>
      <trkpt lat="47.63027" lon="-3.15801">
        <ele>23.6</ele>
        <time>2021-08-14T15:22:38Z</time>
      </trkpt>
      <trkpt lat="47.63023" lon="-3.15802">
        <ele>23.4</ele>
        <time>2021-08-14T15:22:39Z</time>
      </trkpt>
      <trkpt lat="47.63018" lon="-3.15803">
        <ele>23.4</ele>
        <time>2021-08-14T15:22:40Z</time>
      </trkpt>
      <trkpt lat="47.63012" lon="-3.15804">
        <ele>23.4</ele>
        <time>2021-08-14T15:22:41Z</time>
      </trkpt>
      <trkpt lat="47.63007" lon="-3.15805">
        <ele>23.4</ele>
        <time>2021-08-14T15:22:42Z</time>
      </trkpt>
      <trkpt lat="47.63003" lon="-3.15807">
        <ele>23.4</ele>
        <time>2021-08-14T15:22:43Z</time>
      </trkpt>
      <trkpt lat="47.62999" lon="-3.15809">
        <ele>23.4</ele>
        <time>2021-08-14T15:22:44Z</time>
      </trkpt>
      <trkpt lat="47.62995" lon="-3.15811">
        <ele>23.4</ele>
        <time>2021-08-14T15:22:45Z</time>
      </trkpt>
      <trkpt lat="47.6299" lon="-3.15813">
        <ele>23.2</ele>
        <time>2021-08-14T15:22:46Z</time>
      </trkpt>
      <trkpt lat="47.62986" lon="-3.15816">
        <ele>23.2</ele>
        <time>2021-08-14T15:22:47Z</time>
      </trkpt>
      <trkpt lat="47.62982" lon="-3.15819">
        <ele>23.2</ele>
        <time>2021-08-14T15:22:48Z</time>
      </trkpt>
      <trkpt lat="47.62978" lon="-3.15822">
        <ele>23</ele>
        <time>2021-08-14T15:22:49Z</time>
      </trkpt>
      <trkpt lat="47.62973" lon="-3.15825">
        <ele>23</ele>
        <time>2021-08-14T15:22:50Z</time>
      </trkpt>
      <trkpt lat="47.62969" lon="-3.15828">
        <ele>23</ele>
        <time>2021-08-14T15:22:51Z</time>
      </trkpt>
      <trkpt lat="47.62964" lon="-3.15831">
        <ele>22.8</ele>
        <time>2021-08-14T15:22:52Z</time>
      </trkpt>
      <trkpt lat="47.62959" lon="-3.15834">
        <ele>22.8</ele>
        <time>2021-08-14T15:22:53Z</time>
      </trkpt>
      <trkpt lat="47.62955" lon="-3.15837">
        <ele>22.8</ele>
        <time>2021-08-14T15:22:54Z</time>
      </trkpt>
      <trkpt lat="47.6295" lon="-3.15839">
        <ele>22.6</ele>
        <time>2021-08-14T15:22:55Z</time>
      </trkpt>
      <trkpt lat="47.62945" lon="-3.15842">
        <ele>22.6</ele>
        <time>2021-08-14T15:22:56Z</time>
      </trkpt>
      <trkpt lat="47.6294" lon="-3.15845">
        <ele>22.6</ele>
        <time>2021-08-14T15:22:57Z</time>
      </trkpt>
      <trkpt lat="47.62935" lon="-3.15848">
        <ele>22.4</ele>
        <time>2021-08-14T15:22:58Z</time>
      </trkpt>
      <trkpt lat="47.6293" lon="-3.15851">
        <ele>22.4</ele>
        <time>2021-08-14T15:22:59Z</time>
      </trkpt>
      <trkpt lat="47.62925" lon="-3.15853">
        <ele>22.2</ele>
        <time>2021-08-14T15:23:00Z</time>
      </trkpt>
      <trkpt lat="47.6292" lon="-3.15856">
        <ele>22.2</ele>
        <time>2021-08-14T15:23:01Z</time>
      </trkpt>
      <trkpt lat="47.62915" lon="-3.15859">
        <ele>22.2</ele>
        <time>2021-08-14T15:23:02Z</time>
      </trkpt>
      <trkpt lat="47.6291" lon="-3.15862">
        <ele>22.2</ele>
        <time>2021-08-14T15:23:03Z</time>
      </trkpt>
      <trkpt lat="47.62906" lon="-3.15865">
        <ele>22.2</ele>
        <time>2021-08-14T15:23:04Z</time>
      </trkpt>
      <trkpt lat="47.62901" lon="-3.15867">
        <ele>22</ele>
        <time>2021-08-14T15:23:05Z</time>
      </trkpt>
      <trkpt lat="47.62897" lon="-3.1587">
        <ele>22</ele>
        <time>2021-08-14T15:23:06Z</time>
      </trkpt>
      <trkpt lat="47.62892" lon="-3.15873">
        <ele>21.8</ele>
        <time>2021-08-14T15:23:07Z</time>
      </trkpt>
      <trkpt lat="47.62887" lon="-3.15876">
        <ele>21.8</ele>
        <time>2021-08-14T15:23:08Z</time>
      </trkpt>
      <trkpt lat="47.62883" lon="-3.15879">
        <ele>21.8</ele>
        <time>2021-08-14T15:23:09Z</time>
      </trkpt>
      <trkpt lat="47.62878" lon="-3.15882">
        <ele>21.8</ele>
        <time>2021-08-14T15:23:10Z</time>
      </trkpt>
      <trkpt lat="47.62873" lon="-3.15885">
        <ele>21.8</ele>
        <time>2021-08-14T15:23:11Z</time>
      </trkpt>
      <trkpt lat="47.62869" lon="-3.15887">
        <ele>21.8</ele>
        <time>2021-08-14T15:23:12Z</time>
      </trkpt>
      <trkpt lat="47.62864" lon="-3.1589">
        <ele>21.8</ele>
        <time>2021-08-14T15:23:13Z</time>
      </trkpt>
      <trkpt lat="47.62859" lon="-3.15893">
        <ele>21.8</ele>
        <time>2021-08-14T15:23:14Z</time>
      </trkpt>
      <trkpt lat="47.62855" lon="-3.15896">
        <ele>21.8</ele>
        <time>2021-08-14T15:23:15Z</time>
      </trkpt>
      <trkpt lat="47.62851" lon="-3.15899">
        <ele>21.8</ele>
        <time>2021-08-14T15:23:16Z</time>
      </trkpt>
      <trkpt lat="47.62846" lon="-3.15902">
        <ele>21.8</ele>
        <time>2021-08-14T15:23:17Z</time>
      </trkpt>
      <trkpt lat="47.62842" lon="-3.15905">
        <ele>21.8</ele>
        <time>2021-08-14T15:23:18Z</time>
      </trkpt>
      <trkpt lat="47.62837" lon="-3.15907">
        <ele>21.8</ele>
        <time>2021-08-14T15:23:19Z</time>
      </trkpt>
      <trkpt lat="47.62833" lon="-3.1591">
        <ele>21.8</ele>
        <time>2021-08-14T15:23:20Z</time>
      </trkpt>
      <trkpt lat="47.62828" lon="-3.15913">
        <ele>21.8</ele>
        <time>2021-08-14T15:23:21Z</time>
      </trkpt>
      <trkpt lat="47.62824" lon="-3.15915">
        <ele>21.8</ele>
        <time>2021-08-14T15:23:22Z</time>
      </trkpt>
      <trkpt lat="47.62819" lon="-3.15918">
        <ele>22</ele>
        <time>2021-08-14T15:23:23Z</time>
      </trkpt>
      <trkpt lat="47.62815" lon="-3.1592">
        <ele>22</ele>
        <time>2021-08-14T15:23:24Z</time>
      </trkpt>
      <trkpt lat="47.62811" lon="-3.15923">
        <ele>22</ele>
        <time>2021-08-14T15:23:25Z</time>
      </trkpt>
      <trkpt lat="47.62807" lon="-3.15926">
        <ele>22</ele>
        <time>2021-08-14T15:23:26Z</time>
      </trkpt>
      <trkpt lat="47.62803" lon="-3.15928">
        <ele>22</ele>
        <time>2021-08-14T15:23:27Z</time>
      </trkpt>
      <trkpt lat="47.62798" lon="-3.1593">
        <ele>22</ele>
        <time>2021-08-14T15:23:28Z</time>
      </trkpt>
      <trkpt lat="47.62794" lon="-3.15932">
        <ele>22</ele>
        <time>2021-08-14T15:23:29Z</time>
      </trkpt>
      <trkpt lat="47.6279" lon="-3.15935">
        <ele>22</ele>
        <time>2021-08-14T15:23:30Z</time>
      </trkpt>
      <trkpt lat="47.62786" lon="-3.15937">
        <ele>22</ele>
        <time>2021-08-14T15:23:31Z</time>
      </trkpt>
      <trkpt lat="47.62782" lon="-3.15939">
        <ele>22</ele>
        <time>2021-08-14T15:23:32Z</time>
      </trkpt>
      <trkpt lat="47.62778" lon="-3.15941">
        <ele>21.8</ele>
        <time>2021-08-14T15:23:33Z</time>
      </trkpt>
      <trkpt lat="47.62773" lon="-3.15942">
        <ele>21.8</ele>
        <time>2021-08-14T15:23:34Z</time>
      </trkpt>
      <trkpt lat="47.62769" lon="-3.15944">
        <ele>21.8</ele>
        <time>2021-08-14T15:23:35Z</time>
      </trkpt>
      <trkpt lat="47.62764" lon="-3.15947">
        <ele>21.8</ele>
        <time>2021-08-14T15:23:36Z</time>
      </trkpt>
      <trkpt lat="47.62759" lon="-3.15949">
        <ele>21.6</ele>
        <time>2021-08-14T15:23:37Z</time>
      </trkpt>
      <trkpt lat="47.62755" lon="-3.15951">
        <ele>21.6</ele>
        <time>2021-08-14T15:23:38Z</time>
      </trkpt>
      <trkpt lat="47.6275" lon="-3.15953">
        <ele>21.6</ele>
        <time>2021-08-14T15:23:39Z</time>
      </trkpt>
      <trkpt lat="47.62745" lon="-3.15956">
        <ele>21.4</ele>
        <time>2021-08-14T15:23:40Z</time>
      </trkpt>
      <trkpt lat="47.62739" lon="-3.15958">
        <ele>21.4</ele>
        <time>2021-08-14T15:23:41Z</time>
      </trkpt>
      <trkpt lat="47.62734" lon="-3.1596">
        <ele>21.2</ele>
        <time>2021-08-14T15:23:42Z</time>
      </trkpt>
      <trkpt lat="47.62728" lon="-3.15962">
        <ele>21</ele>
        <time>2021-08-14T15:23:43Z</time>
      </trkpt>
      <trkpt lat="47.62722" lon="-3.15964">
        <ele>21</ele>
        <time>2021-08-14T15:23:44Z</time>
      </trkpt>
      <trkpt lat="47.62716" lon="-3.15966">
        <ele>20.8</ele>
        <time>2021-08-14T15:23:45Z</time>
      </trkpt>
      <trkpt lat="47.62709" lon="-3.15969">
        <ele>20.6</ele>
        <time>2021-08-14T15:23:46Z</time>
      </trkpt>
      <trkpt lat="47.62703" lon="-3.15971">
        <ele>20.6</ele>
        <time>2021-08-14T15:23:47Z</time>
      </trkpt>
      <trkpt lat="47.62696" lon="-3.15974">
        <ele>20.2</ele>
        <time>2021-08-14T15:23:48Z</time>
      </trkpt>
      <trkpt lat="47.6269" lon="-3.15977">
        <ele>19.6</ele>
        <time>2021-08-14T15:23:49Z</time>
      </trkpt>
      <trkpt lat="47.62683" lon="-3.15979">
        <ele>19.2</ele>
        <time>2021-08-14T15:23:50Z</time>
      </trkpt>
      <trkpt lat="47.62677" lon="-3.1598">
        <ele>18.8</ele>
        <time>2021-08-14T15:23:51Z</time>
      </trkpt>
      <trkpt lat="47.62672" lon="-3.15982">
        <ele>18.6</ele>
        <time>2021-08-14T15:23:52Z</time>
      </trkpt>
      <trkpt lat="47.62666" lon="-3.15983">
        <ele>18.2</ele>
        <time>2021-08-14T15:23:53Z</time>
      </trkpt>
      <trkpt lat="47.62662" lon="-3.15985">
        <ele>18</ele>
        <time>2021-08-14T15:23:54Z</time>
      </trkpt>
      <trkpt lat="47.62657" lon="-3.15987">
        <ele>17.8</ele>
        <time>2021-08-14T15:23:55Z</time>
      </trkpt>
      <trkpt lat="47.62652" lon="-3.15989">
        <ele>17.8</ele>
        <time>2021-08-14T15:23:56Z</time>
      </trkpt>
      <trkpt lat="47.62648" lon="-3.15991">
        <ele>17.4</ele>
        <time>2021-08-14T15:23:57Z</time>
      </trkpt>
      <trkpt lat="47.62643" lon="-3.15993">
        <ele>17.4</ele>
        <time>2021-08-14T15:23:58Z</time>
      </trkpt>
      <trkpt lat="47.62638" lon="-3.15995">
        <ele>17.2</ele>
        <time>2021-08-14T15:23:59Z</time>
      </trkpt>
      <trkpt lat="47.62634" lon="-3.15997">
        <ele>17.2</ele>
        <time>2021-08-14T15:24:00Z</time>
      </trkpt>
      <trkpt lat="47.62629" lon="-3.15998">
        <ele>17</ele>
        <time>2021-08-14T15:24:01Z</time>
      </trkpt>
      <trkpt lat="47.62624" lon="-3.16">
        <ele>16.8</ele>
        <time>2021-08-14T15:24:02Z</time>
      </trkpt>
      <trkpt lat="47.6262" lon="-3.16001">
        <ele>16.8</ele>
        <time>2021-08-14T15:24:03Z</time>
      </trkpt>
      <trkpt lat="47.62616" lon="-3.16003">
        <ele>16.6</ele>
        <time>2021-08-14T15:24:04Z</time>
      </trkpt>
      <trkpt lat="47.62612" lon="-3.16004">
        <ele>16.6</ele>
        <time>2021-08-14T15:24:05Z</time>
      </trkpt>
      <trkpt lat="47.62608" lon="-3.16006">
        <ele>16.6</ele>
        <time>2021-08-14T15:24:06Z</time>
      </trkpt>
      <trkpt lat="47.62604" lon="-3.16007">
        <ele>16.6</ele>
        <time>2021-08-14T15:24:07Z</time>
      </trkpt>
      <trkpt lat="47.62599" lon="-3.16007">
        <ele>16.6</ele>
        <time>2021-08-14T15:24:08Z</time>
      </trkpt>
      <trkpt lat="47.62595" lon="-3.16007">
        <ele>16.8</ele>
        <time>2021-08-14T15:24:09Z</time>
      </trkpt>
      <trkpt lat="47.62591" lon="-3.16006">
        <ele>16.8</ele>
        <time>2021-08-14T15:24:10Z</time>
      </trkpt>
      <trkpt lat="47.62586" lon="-3.16005">
        <ele>16.8</ele>
        <time>2021-08-14T15:24:11Z</time>
      </trkpt>
      <trkpt lat="47.62581" lon="-3.16004">
        <ele>16.8</ele>
        <time>2021-08-14T15:24:12Z</time>
      </trkpt>
      <trkpt lat="47.62577" lon="-3.16002">
        <ele>17</ele>
        <time>2021-08-14T15:24:13Z</time>
      </trkpt>
      <trkpt lat="47.62574" lon="-3.15999">
        <ele>17</ele>
        <time>2021-08-14T15:24:14Z</time>
      </trkpt>
      <trkpt lat="47.6257" lon="-3.15997">
        <ele>17</ele>
        <time>2021-08-14T15:24:15Z</time>
      </trkpt>
      <trkpt lat="47.62565" lon="-3.15994">
        <ele>17</ele>
        <time>2021-08-14T15:24:16Z</time>
      </trkpt>
      <trkpt lat="47.62561" lon="-3.15992">
        <ele>17</ele>
        <time>2021-08-14T15:24:17Z</time>
      </trkpt>
      <trkpt lat="47.62557" lon="-3.15989">
        <ele>17</ele>
        <time>2021-08-14T15:24:18Z</time>
      </trkpt>
      <trkpt lat="47.62552" lon="-3.15986">
        <ele>17</ele>
        <time>2021-08-14T15:24:19Z</time>
      </trkpt>
      <trkpt lat="47.62548" lon="-3.15984">
        <ele>17.2</ele>
        <time>2021-08-14T15:24:20Z</time>
      </trkpt>
      <trkpt lat="47.62544" lon="-3.15982">
        <ele>17.2</ele>
        <time>2021-08-14T15:24:21Z</time>
      </trkpt>
      <trkpt lat="47.6254" lon="-3.1598">
        <ele>17.2</ele>
        <time>2021-08-14T15:24:22Z</time>
      </trkpt>
      <trkpt lat="47.62535" lon="-3.15978">
        <ele>17.2</ele>
        <time>2021-08-14T15:24:23Z</time>
      </trkpt>
      <trkpt lat="47.62531" lon="-3.15975">
        <ele>17.4</ele>
        <time>2021-08-14T15:24:24Z</time>
      </trkpt>
      <trkpt lat="47.62527" lon="-3.15974">
        <ele>17.4</ele>
        <time>2021-08-14T15:24:25Z</time>
      </trkpt>
      <trkpt lat="47.62522" lon="-3.15972">
        <ele>17.6</ele>
        <time>2021-08-14T15:24:26Z</time>
      </trkpt>
      <trkpt lat="47.62518" lon="-3.15971">
        <ele>18</ele>
        <time>2021-08-14T15:24:27Z</time>
      </trkpt>
      <trkpt lat="47.62514" lon="-3.1597">
        <ele>18.2</ele>
        <time>2021-08-14T15:24:28Z</time>
      </trkpt>
      <trkpt lat="47.62509" lon="-3.15968">
        <ele>18.4</ele>
        <time>2021-08-14T15:24:29Z</time>
      </trkpt>
      <trkpt lat="47.62505" lon="-3.15967">
        <ele>18.6</ele>
        <time>2021-08-14T15:24:30Z</time>
      </trkpt>
      <trkpt lat="47.625" lon="-3.15965">
        <ele>18.8</ele>
        <time>2021-08-14T15:24:31Z</time>
      </trkpt>
      <trkpt lat="47.62496" lon="-3.15963">
        <ele>18.8</ele>
        <time>2021-08-14T15:24:32Z</time>
      </trkpt>
      <trkpt lat="47.62491" lon="-3.15962">
        <ele>18.8</ele>
        <time>2021-08-14T15:24:33Z</time>
      </trkpt>
      <trkpt lat="47.62487" lon="-3.15961">
        <ele>19</ele>
        <time>2021-08-14T15:24:34Z</time>
      </trkpt>
      <trkpt lat="47.62483" lon="-3.1596">
        <ele>19</ele>
        <time>2021-08-14T15:24:35Z</time>
      </trkpt>
      <trkpt lat="47.62478" lon="-3.15958">
        <ele>19</ele>
        <time>2021-08-14T15:24:36Z</time>
      </trkpt>
      <trkpt lat="47.62474" lon="-3.15957">
        <ele>19</ele>
        <time>2021-08-14T15:24:37Z</time>
      </trkpt>
      <trkpt lat="47.62469" lon="-3.15955">
        <ele>19.2</ele>
        <time>2021-08-14T15:24:38Z</time>
      </trkpt>
      <trkpt lat="47.62464" lon="-3.15954">
        <ele>19.2</ele>
        <time>2021-08-14T15:24:39Z</time>
      </trkpt>
      <trkpt lat="47.6246" lon="-3.15953">
        <ele>19.4</ele>
        <time>2021-08-14T15:24:40Z</time>
      </trkpt>
      <trkpt lat="47.62455" lon="-3.15953">
        <ele>19.4</ele>
        <time>2021-08-14T15:24:41Z</time>
      </trkpt>
      <trkpt lat="47.62451" lon="-3.15952">
        <ele>19.6</ele>
        <time>2021-08-14T15:24:42Z</time>
      </trkpt>
      <trkpt lat="47.62447" lon="-3.15952">
        <ele>19.8</ele>
        <time>2021-08-14T15:24:43Z</time>
      </trkpt>
      <trkpt lat="47.62443" lon="-3.15952">
        <ele>19.8</ele>
        <time>2021-08-14T15:24:44Z</time>
      </trkpt>
      <trkpt lat="47.62438" lon="-3.15953">
        <ele>20</ele>
        <time>2021-08-14T15:24:45Z</time>
      </trkpt>
      <trkpt lat="47.62434" lon="-3.15954">
        <ele>20</ele>
        <time>2021-08-14T15:24:46Z</time>
      </trkpt>
      <trkpt lat="47.6243" lon="-3.15955">
        <ele>20.2</ele>
        <time>2021-08-14T15:24:47Z</time>
      </trkpt>
      <trkpt lat="47.62426" lon="-3.15956">
        <ele>20.2</ele>
        <time>2021-08-14T15:24:48Z</time>
      </trkpt>
      <trkpt lat="47.62422" lon="-3.15958">
        <ele>20.2</ele>
        <time>2021-08-14T15:24:49Z</time>
      </trkpt>
      <trkpt lat="47.62417" lon="-3.1596">
        <ele>20.4</ele>
        <time>2021-08-14T15:24:50Z</time>
      </trkpt>
      <trkpt lat="47.62413" lon="-3.15962">
        <ele>20.4</ele>
        <time>2021-08-14T15:24:51Z</time>
      </trkpt>
      <trkpt lat="47.62409" lon="-3.15964">
        <ele>20.6</ele>
        <time>2021-08-14T15:24:52Z</time>
      </trkpt>
      <trkpt lat="47.62405" lon="-3.15966">
        <ele>20.6</ele>
        <time>2021-08-14T15:24:53Z</time>
      </trkpt>
      <trkpt lat="47.624" lon="-3.15968">
        <ele>20.8</ele>
        <time>2021-08-14T15:24:54Z</time>
      </trkpt>
      <trkpt lat="47.62396" lon="-3.1597">
        <ele>20.8</ele>
        <time>2021-08-14T15:24:55Z</time>
      </trkpt>
      <trkpt lat="47.62392" lon="-3.15972">
        <ele>20.8</ele>
        <time>2021-08-14T15:24:56Z</time>
      </trkpt>
      <trkpt lat="47.62387" lon="-3.15974">
        <ele>21</ele>
        <time>2021-08-14T15:24:57Z</time>
      </trkpt>
      <trkpt lat="47.62383" lon="-3.15977">
        <ele>21</ele>
        <time>2021-08-14T15:24:58Z</time>
      </trkpt>
      <trkpt lat="47.62378" lon="-3.15979">
        <ele>21</ele>
        <time>2021-08-14T15:24:59Z</time>
      </trkpt>
      <trkpt lat="47.62374" lon="-3.15981">
        <ele>21</ele>
        <time>2021-08-14T15:25:00Z</time>
      </trkpt>
      <trkpt lat="47.6237" lon="-3.15983">
        <ele>21</ele>
        <time>2021-08-14T15:25:01Z</time>
      </trkpt>
      <trkpt lat="47.62365" lon="-3.15985">
        <ele>21.2</ele>
        <time>2021-08-14T15:25:02Z</time>
      </trkpt>
      <trkpt lat="47.62361" lon="-3.15987">
        <ele>21.2</ele>
        <time>2021-08-14T15:25:03Z</time>
      </trkpt>
      <trkpt lat="47.62357" lon="-3.15989">
        <ele>21.2</ele>
        <time>2021-08-14T15:25:04Z</time>
      </trkpt>
      <trkpt lat="47.62352" lon="-3.15991">
        <ele>21.2</ele>
        <time>2021-08-14T15:25:05Z</time>
      </trkpt>
      <trkpt lat="47.62348" lon="-3.15993">
        <ele>21.2</ele>
        <time>2021-08-14T15:25:06Z</time>
      </trkpt>
      <trkpt lat="47.62343" lon="-3.15995">
        <ele>21.2</ele>
        <time>2021-08-14T15:25:07Z</time>
      </trkpt>
      <trkpt lat="47.62339" lon="-3.15995">
        <ele>21.2</ele>
        <time>2021-08-14T15:25:08Z</time>
      </trkpt>
      <trkpt lat="47.62334" lon="-3.15994">
        <ele>21.2</ele>
        <time>2021-08-14T15:25:09Z</time>
      </trkpt>
      <trkpt lat="47.6233" lon="-3.15992">
        <ele>21.2</ele>
        <time>2021-08-14T15:25:10Z</time>
      </trkpt>
      <trkpt lat="47.62325" lon="-3.15991">
        <ele>21.4</ele>
        <time>2021-08-14T15:25:11Z</time>
      </trkpt>
      <trkpt lat="47.6232" lon="-3.15989">
        <ele>21.4</ele>
        <time>2021-08-14T15:25:12Z</time>
      </trkpt>
      <trkpt lat="47.62316" lon="-3.15988">
        <ele>21.4</ele>
        <time>2021-08-14T15:25:13Z</time>
      </trkpt>
      <trkpt lat="47.62311" lon="-3.15987">
        <ele>21.4</ele>
        <time>2021-08-14T15:25:14Z</time>
      </trkpt>
      <trkpt lat="47.62307" lon="-3.15985">
        <ele>21.6</ele>
        <time>2021-08-14T15:25:15Z</time>
      </trkpt>
      <trkpt lat="47.62302" lon="-3.15984">
        <ele>21.6</ele>
        <time>2021-08-14T15:25:16Z</time>
      </trkpt>
      <trkpt lat="47.62298" lon="-3.15981">
        <ele>21.6</ele>
        <time>2021-08-14T15:25:17Z</time>
      </trkpt>
      <trkpt lat="47.62293" lon="-3.15979">
        <ele>21.6</ele>
        <time>2021-08-14T15:25:18Z</time>
      </trkpt>
      <trkpt lat="47.62289" lon="-3.15977">
        <ele>21.8</ele>
        <time>2021-08-14T15:25:19Z</time>
      </trkpt>
      <trkpt lat="47.62285" lon="-3.15975">
        <ele>21.8</ele>
        <time>2021-08-14T15:25:20Z</time>
      </trkpt>
      <trkpt lat="47.62281" lon="-3.15973">
        <ele>22</ele>
        <time>2021-08-14T15:25:21Z</time>
      </trkpt>
      <trkpt lat="47.62277" lon="-3.15971">
        <ele>22</ele>
        <time>2021-08-14T15:25:22Z</time>
      </trkpt>
      <trkpt lat="47.62273" lon="-3.15969">
        <ele>22</ele>
        <time>2021-08-14T15:25:23Z</time>
      </trkpt>
      <trkpt lat="47.62268" lon="-3.15967">
        <ele>22.2</ele>
        <time>2021-08-14T15:25:24Z</time>
      </trkpt>
      <trkpt lat="47.62264" lon="-3.15966">
        <ele>22.2</ele>
        <time>2021-08-14T15:25:25Z</time>
      </trkpt>
      <trkpt lat="47.6226" lon="-3.15964">
        <ele>22.2</ele>
        <time>2021-08-14T15:25:26Z</time>
      </trkpt>
      <trkpt lat="47.62255" lon="-3.15962">
        <ele>22.2</ele>
        <time>2021-08-14T15:25:27Z</time>
      </trkpt>
      <trkpt lat="47.62251" lon="-3.1596">
        <ele>22.4</ele>
        <time>2021-08-14T15:25:28Z</time>
      </trkpt>
      <trkpt lat="47.62247" lon="-3.15958">
        <ele>22.4</ele>
        <time>2021-08-14T15:25:29Z</time>
      </trkpt>
      <trkpt lat="47.62242" lon="-3.15957">
        <ele>22.4</ele>
        <time>2021-08-14T15:25:30Z</time>
      </trkpt>
      <trkpt lat="47.62238" lon="-3.15956">
        <ele>22.6</ele>
        <time>2021-08-14T15:25:31Z</time>
      </trkpt>
      <trkpt lat="47.62233" lon="-3.15955">
        <ele>22.8</ele>
        <time>2021-08-14T15:25:32Z</time>
      </trkpt>
      <trkpt lat="47.62229" lon="-3.15954">
        <ele>23</ele>
        <time>2021-08-14T15:25:33Z</time>
      </trkpt>
      <trkpt lat="47.62224" lon="-3.15953">
        <ele>23.2</ele>
        <time>2021-08-14T15:25:34Z</time>
      </trkpt>
      <trkpt lat="47.62219" lon="-3.15953">
        <ele>23.2</ele>
        <time>2021-08-14T15:25:35Z</time>
      </trkpt>
      <trkpt lat="47.62215" lon="-3.15953">
        <ele>23.4</ele>
        <time>2021-08-14T15:25:36Z</time>
      </trkpt>
      <trkpt lat="47.6221" lon="-3.15953">
        <ele>23.4</ele>
        <time>2021-08-14T15:25:37Z</time>
      </trkpt>
      <trkpt lat="47.62206" lon="-3.15952">
        <ele>23.4</ele>
        <time>2021-08-14T15:25:38Z</time>
      </trkpt>
      <trkpt lat="47.62201" lon="-3.15952">
        <ele>23.4</ele>
        <time>2021-08-14T15:25:39Z</time>
      </trkpt>
      <trkpt lat="47.62197" lon="-3.15951">
        <ele>23.4</ele>
        <time>2021-08-14T15:25:40Z</time>
      </trkpt>
      <trkpt lat="47.62192" lon="-3.1595">
        <ele>23.4</ele>
        <time>2021-08-14T15:25:41Z</time>
      </trkpt>
      <trkpt lat="47.62188" lon="-3.15949">
        <ele>23.4</ele>
        <time>2021-08-14T15:25:42Z</time>
      </trkpt>
      <trkpt lat="47.62184" lon="-3.15948">
        <ele>23.4</ele>
        <time>2021-08-14T15:25:43Z</time>
      </trkpt>
      <trkpt lat="47.6218" lon="-3.15948">
        <ele>23.4</ele>
        <time>2021-08-14T15:25:44Z</time>
      </trkpt>
      <trkpt lat="47.62176" lon="-3.15948">
        <ele>23.4</ele>
        <time>2021-08-14T15:25:45Z</time>
      </trkpt>
      <trkpt lat="47.62172" lon="-3.15947">
        <ele>23.4</ele>
        <time>2021-08-14T15:25:46Z</time>
      </trkpt>
      <trkpt lat="47.62168" lon="-3.15947">
        <ele>23.4</ele>
        <time>2021-08-14T15:25:47Z</time>
      </trkpt>
      <trkpt lat="47.62164" lon="-3.15946">
        <ele>23.6</ele>
        <time>2021-08-14T15:25:48Z</time>
      </trkpt>
      <trkpt lat="47.62159" lon="-3.15946">
        <ele>23.6</ele>
        <time>2021-08-14T15:25:49Z</time>
      </trkpt>
      <trkpt lat="47.62155" lon="-3.15945">
        <ele>23.6</ele>
        <time>2021-08-14T15:25:50Z</time>
      </trkpt>
      <trkpt lat="47.62151" lon="-3.15944">
        <ele>23.6</ele>
        <time>2021-08-14T15:25:51Z</time>
      </trkpt>
      <trkpt lat="47.62146" lon="-3.15943">
        <ele>23.6</ele>
        <time>2021-08-14T15:25:52Z</time>
      </trkpt>
      <trkpt lat="47.62142" lon="-3.15942">
        <ele>23.6</ele>
        <time>2021-08-14T15:25:53Z</time>
      </trkpt>
      <trkpt lat="47.62137" lon="-3.15941">
        <ele>23.6</ele>
        <time>2021-08-14T15:25:54Z</time>
      </trkpt>
      <trkpt lat="47.62133" lon="-3.1594">
        <ele>23.8</ele>
        <time>2021-08-14T15:25:55Z</time>
      </trkpt>
      <trkpt lat="47.62129" lon="-3.15939">
        <ele>23.8</ele>
        <time>2021-08-14T15:25:56Z</time>
      </trkpt>
      <trkpt lat="47.62125" lon="-3.15938">
        <ele>23.8</ele>
        <time>2021-08-14T15:25:57Z</time>
      </trkpt>
      <trkpt lat="47.6212" lon="-3.15937">
        <ele>24</ele>
        <time>2021-08-14T15:25:58Z</time>
      </trkpt>
      <trkpt lat="47.62116" lon="-3.15936">
        <ele>24.2</ele>
        <time>2021-08-14T15:25:59Z</time>
      </trkpt>
      <trkpt lat="47.62112" lon="-3.15934">
        <ele>24.2</ele>
        <time>2021-08-14T15:26:00Z</time>
      </trkpt>
      <trkpt lat="47.62107" lon="-3.15932">
        <ele>24.4</ele>
        <time>2021-08-14T15:26:01Z</time>
      </trkpt>
      <trkpt lat="47.62103" lon="-3.15931">
        <ele>24.4</ele>
        <time>2021-08-14T15:26:02Z</time>
      </trkpt>
      <trkpt lat="47.62098" lon="-3.15931">
        <ele>24.4</ele>
        <time>2021-08-14T15:26:03Z</time>
      </trkpt>
      <trkpt lat="47.62094" lon="-3.1593">
        <ele>24.6</ele>
        <time>2021-08-14T15:26:04Z</time>
      </trkpt>
      <trkpt lat="47.62089" lon="-3.15929">
        <ele>24.6</ele>
        <time>2021-08-14T15:26:05Z</time>
      </trkpt>
      <trkpt lat="47.62084" lon="-3.15927">
        <ele>24.6</ele>
        <time>2021-08-14T15:26:06Z</time>
      </trkpt>
      <trkpt lat="47.6208" lon="-3.15926">
        <ele>24.6</ele>
        <time>2021-08-14T15:26:07Z</time>
      </trkpt>
      <trkpt lat="47.62076" lon="-3.15925">
        <ele>24.6</ele>
        <time>2021-08-14T15:26:08Z</time>
      </trkpt>
      <trkpt lat="47.62071" lon="-3.15924">
        <ele>24.6</ele>
        <time>2021-08-14T15:26:09Z</time>
      </trkpt>
      <trkpt lat="47.62066" lon="-3.15923">
        <ele>24.6</ele>
        <time>2021-08-14T15:26:10Z</time>
      </trkpt>
      <trkpt lat="47.62062" lon="-3.15921">
        <ele>24.6</ele>
        <time>2021-08-14T15:26:11Z</time>
      </trkpt>
      <trkpt lat="47.62057" lon="-3.1592">
        <ele>24.6</ele>
        <time>2021-08-14T15:26:12Z</time>
      </trkpt>
      <trkpt lat="47.62052" lon="-3.15919">
        <ele>24.6</ele>
        <time>2021-08-14T15:26:13Z</time>
      </trkpt>
      <trkpt lat="47.62047" lon="-3.15919">
        <ele>24.6</ele>
        <time>2021-08-14T15:26:14Z</time>
      </trkpt>
      <trkpt lat="47.62042" lon="-3.15919">
        <ele>24.6</ele>
        <time>2021-08-14T15:26:15Z</time>
      </trkpt>
      <trkpt lat="47.62037" lon="-3.15919">
        <ele>24.6</ele>
        <time>2021-08-14T15:26:16Z</time>
      </trkpt>
      <trkpt lat="47.62032" lon="-3.1592">
        <ele>24.6</ele>
        <time>2021-08-14T15:26:17Z</time>
      </trkpt>
      <trkpt lat="47.62027" lon="-3.15921">
        <ele>24.6</ele>
        <time>2021-08-14T15:26:18Z</time>
      </trkpt>
      <trkpt lat="47.62022" lon="-3.15922">
        <ele>24.6</ele>
        <time>2021-08-14T15:26:19Z</time>
      </trkpt>
      <trkpt lat="47.62017" lon="-3.15923">
        <ele>24.6</ele>
        <time>2021-08-14T15:26:20Z</time>
      </trkpt>
      <trkpt lat="47.62012" lon="-3.15925">
        <ele>24.4</ele>
        <time>2021-08-14T15:26:21Z</time>
      </trkpt>
      <trkpt lat="47.62008" lon="-3.15927">
        <ele>24.4</ele>
        <time>2021-08-14T15:26:22Z</time>
      </trkpt>
      <trkpt lat="47.62003" lon="-3.15929">
        <ele>24.2</ele>
        <time>2021-08-14T15:26:23Z</time>
      </trkpt>
      <trkpt lat="47.61999" lon="-3.15931">
        <ele>24.2</ele>
        <time>2021-08-14T15:26:24Z</time>
      </trkpt>
      <trkpt lat="47.61994" lon="-3.15933">
        <ele>24.2</ele>
        <time>2021-08-14T15:26:25Z</time>
      </trkpt>
      <trkpt lat="47.6199" lon="-3.15935">
        <ele>24.2</ele>
        <time>2021-08-14T15:26:26Z</time>
      </trkpt>
      <trkpt lat="47.61985" lon="-3.15937">
        <ele>24</ele>
        <time>2021-08-14T15:26:27Z</time>
      </trkpt>
      <trkpt lat="47.6198" lon="-3.15938">
        <ele>24</ele>
        <time>2021-08-14T15:26:28Z</time>
      </trkpt>
      <trkpt lat="47.61974" lon="-3.15939">
        <ele>24</ele>
        <time>2021-08-14T15:26:29Z</time>
      </trkpt>
      <trkpt lat="47.61969" lon="-3.15939">
        <ele>24</ele>
        <time>2021-08-14T15:26:30Z</time>
      </trkpt>
      <trkpt lat="47.61964" lon="-3.15938">
        <ele>24</ele>
        <time>2021-08-14T15:26:31Z</time>
      </trkpt>
      <trkpt lat="47.61959" lon="-3.15937">
        <ele>24</ele>
        <time>2021-08-14T15:26:32Z</time>
      </trkpt>
      <trkpt lat="47.61954" lon="-3.15936">
        <ele>24</ele>
        <time>2021-08-14T15:26:33Z</time>
      </trkpt>
      <trkpt lat="47.61949" lon="-3.15934">
        <ele>24</ele>
        <time>2021-08-14T15:26:34Z</time>
      </trkpt>
      <trkpt lat="47.61945" lon="-3.15932">
        <ele>24</ele>
        <time>2021-08-14T15:26:35Z</time>
      </trkpt>
      <trkpt lat="47.6194" lon="-3.1593">
        <ele>24</ele>
        <time>2021-08-14T15:26:36Z</time>
      </trkpt>
      <trkpt lat="47.61935" lon="-3.15927">
        <ele>24</ele>
        <time>2021-08-14T15:26:37Z</time>
      </trkpt>
      <trkpt lat="47.61931" lon="-3.15924">
        <ele>24</ele>
        <time>2021-08-14T15:26:38Z</time>
      </trkpt>
      <trkpt lat="47.61927" lon="-3.1592">
        <ele>24</ele>
        <time>2021-08-14T15:26:39Z</time>
      </trkpt>
      <trkpt lat="47.61922" lon="-3.15917">
        <ele>24</ele>
        <time>2021-08-14T15:26:40Z</time>
      </trkpt>
      <trkpt lat="47.61918" lon="-3.15914">
        <ele>24</ele>
        <time>2021-08-14T15:26:41Z</time>
      </trkpt>
      <trkpt lat="47.61914" lon="-3.1591">
        <ele>24</ele>
        <time>2021-08-14T15:26:42Z</time>
      </trkpt>
      <trkpt lat="47.6191" lon="-3.15906">
        <ele>24</ele>
        <time>2021-08-14T15:26:43Z</time>
      </trkpt>
      <trkpt lat="47.61906" lon="-3.15903">
        <ele>24</ele>
        <time>2021-08-14T15:26:44Z</time>
      </trkpt>
      <trkpt lat="47.61902" lon="-3.15899">
        <ele>24</ele>
        <time>2021-08-14T15:26:45Z</time>
      </trkpt>
      <trkpt lat="47.61899" lon="-3.15895">
        <ele>24</ele>
        <time>2021-08-14T15:26:46Z</time>
      </trkpt>
      <trkpt lat="47.61895" lon="-3.15891">
        <ele>24</ele>
        <time>2021-08-14T15:26:47Z</time>
      </trkpt>
      <trkpt lat="47.61891" lon="-3.15886">
        <ele>24</ele>
        <time>2021-08-14T15:26:48Z</time>
      </trkpt>
      <trkpt lat="47.61886" lon="-3.15883">
        <ele>24</ele>
        <time>2021-08-14T15:26:49Z</time>
      </trkpt>
      <trkpt lat="47.61882" lon="-3.15881">
        <ele>24.2</ele>
        <time>2021-08-14T15:26:50Z</time>
      </trkpt>
      <trkpt lat="47.61877" lon="-3.1588">
        <ele>24.2</ele>
        <time>2021-08-14T15:26:51Z</time>
      </trkpt>
      <trkpt lat="47.61873" lon="-3.1588">
        <ele>24.2</ele>
        <time>2021-08-14T15:26:52Z</time>
      </trkpt>
      <trkpt lat="47.61868" lon="-3.1588">
        <ele>24.2</ele>
        <time>2021-08-14T15:26:53Z</time>
      </trkpt>
      <trkpt lat="47.61864" lon="-3.1588">
        <ele>24.2</ele>
        <time>2021-08-14T15:26:54Z</time>
      </trkpt>
      <trkpt lat="47.6186" lon="-3.1588">
        <ele>24.2</ele>
        <time>2021-08-14T15:26:55Z</time>
      </trkpt>
      <trkpt lat="47.61856" lon="-3.15882">
        <ele>24.2</ele>
        <time>2021-08-14T15:26:56Z</time>
      </trkpt>
      <trkpt lat="47.61852" lon="-3.15885">
        <ele>24.2</ele>
        <time>2021-08-14T15:26:57Z</time>
      </trkpt>
      <trkpt lat="47.61848" lon="-3.15888">
        <ele>24.2</ele>
        <time>2021-08-14T15:26:58Z</time>
      </trkpt>
      <trkpt lat="47.61845" lon="-3.15891">
        <ele>24.2</ele>
        <time>2021-08-14T15:26:59Z</time>
      </trkpt>
      <trkpt lat="47.61842" lon="-3.15896">
        <ele>24</ele>
        <time>2021-08-14T15:27:00Z</time>
      </trkpt>
      <trkpt lat="47.61839" lon="-3.159">
        <ele>24</ele>
        <time>2021-08-14T15:27:01Z</time>
      </trkpt>
      <trkpt lat="47.61836" lon="-3.15903">
        <ele>24</ele>
        <time>2021-08-14T15:27:02Z</time>
      </trkpt>
      <trkpt lat="47.61833" lon="-3.15905">
        <ele>24</ele>
        <time>2021-08-14T15:27:03Z</time>
      </trkpt>
      <trkpt lat="47.61829" lon="-3.15905">
        <ele>24</ele>
        <time>2021-08-14T15:27:04Z</time>
      </trkpt>
      <trkpt lat="47.61825" lon="-3.15905">
        <ele>24</ele>
        <time>2021-08-14T15:27:05Z</time>
      </trkpt>
      <trkpt lat="47.61822" lon="-3.15905">
        <ele>24</ele>
        <time>2021-08-14T15:27:06Z</time>
      </trkpt>
      <trkpt lat="47.61819" lon="-3.15905">
        <ele>24</ele>
        <time>2021-08-14T15:27:07Z</time>
      </trkpt>
      <trkpt lat="47.61816" lon="-3.15905">
        <ele>24</ele>
        <time>2021-08-14T15:27:08Z</time>
      </trkpt>
      <trkpt lat="47.61814" lon="-3.15905">
        <ele>24</ele>
        <time>2021-08-14T15:27:09Z</time>
      </trkpt>
      <trkpt lat="47.61812" lon="-3.15904">
        <ele>24</ele>
        <time>2021-08-14T15:27:10Z</time>
      </trkpt>
      <trkpt lat="47.61809" lon="-3.15904">
        <ele>24</ele>
        <time>2021-08-14T15:27:11Z</time>
      </trkpt>
      <trkpt lat="47.61806" lon="-3.15904">
        <ele>24.2</ele>
        <time>2021-08-14T15:27:12Z</time>
      </trkpt>
      <trkpt lat="47.61802" lon="-3.15904">
        <ele>24.2</ele>
        <time>2021-08-14T15:27:13Z</time>
      </trkpt>
      <trkpt lat="47.61798" lon="-3.15904">
        <ele>24.4</ele>
        <time>2021-08-14T15:27:14Z</time>
      </trkpt>
      <trkpt lat="47.61794" lon="-3.15904">
        <ele>24.4</ele>
        <time>2021-08-14T15:27:15Z</time>
      </trkpt>
      <trkpt lat="47.6179" lon="-3.15904">
        <ele>24.4</ele>
        <time>2021-08-14T15:27:16Z</time>
      </trkpt>
      <trkpt lat="47.61786" lon="-3.15904">
        <ele>24.4</ele>
        <time>2021-08-14T15:27:17Z</time>
      </trkpt>
      <trkpt lat="47.61782" lon="-3.15903">
        <ele>24.4</ele>
        <time>2021-08-14T15:27:18Z</time>
      </trkpt>
      <trkpt lat="47.61778" lon="-3.15902">
        <ele>24.4</ele>
        <time>2021-08-14T15:27:19Z</time>
      </trkpt>
      <trkpt lat="47.61773" lon="-3.15901">
        <ele>24.4</ele>
        <time>2021-08-14T15:27:20Z</time>
      </trkpt>
      <trkpt lat="47.61769" lon="-3.159">
        <ele>24.4</ele>
        <time>2021-08-14T15:27:21Z</time>
      </trkpt>
      <trkpt lat="47.61766" lon="-3.159">
        <ele>24.4</ele>
        <time>2021-08-14T15:27:22Z</time>
      </trkpt>
      <trkpt lat="47.61762" lon="-3.15899">
        <ele>24.4</ele>
        <time>2021-08-14T15:27:23Z</time>
      </trkpt>
      <trkpt lat="47.61758" lon="-3.15898">
        <ele>24.4</ele>
        <time>2021-08-14T15:27:24Z</time>
      </trkpt>
      <trkpt lat="47.61754" lon="-3.15897">
        <ele>24.4</ele>
        <time>2021-08-14T15:27:25Z</time>
      </trkpt>
      <trkpt lat="47.61751" lon="-3.15896">
        <ele>24.4</ele>
        <time>2021-08-14T15:27:26Z</time>
      </trkpt>
      <trkpt lat="47.61747" lon="-3.15895">
        <ele>24.2</ele>
        <time>2021-08-14T15:27:27Z</time>
      </trkpt>
      <trkpt lat="47.61744" lon="-3.15893">
        <ele>24.2</ele>
        <time>2021-08-14T15:27:28Z</time>
      </trkpt>
      <trkpt lat="47.61741" lon="-3.15892">
        <ele>24</ele>
        <time>2021-08-14T15:27:29Z</time>
      </trkpt>
      <trkpt lat="47.61738" lon="-3.1589">
        <ele>24</ele>
        <time>2021-08-14T15:27:30Z</time>
      </trkpt>
      <trkpt lat="47.61734" lon="-3.15889">
        <ele>23.8</ele>
        <time>2021-08-14T15:27:31Z</time>
      </trkpt>
      <trkpt lat="47.61731" lon="-3.15887">
        <ele>23.8</ele>
        <time>2021-08-14T15:27:32Z</time>
      </trkpt>
      <trkpt lat="47.61729" lon="-3.15883">
        <ele>23.8</ele>
        <time>2021-08-14T15:27:33Z</time>
      </trkpt>
      <trkpt lat="47.61728" lon="-3.15879">
        <ele>23.8</ele>
        <time>2021-08-14T15:27:34Z</time>
      </trkpt>
      <trkpt lat="47.61728" lon="-3.15875">
        <ele>23.8</ele>
        <time>2021-08-14T15:27:35Z</time>
      </trkpt>
      <trkpt lat="47.61729" lon="-3.1587">
        <ele>23.8</ele>
        <time>2021-08-14T15:27:36Z</time>
      </trkpt>
      <trkpt lat="47.6173" lon="-3.15864">
        <ele>23.8</ele>
        <time>2021-08-14T15:27:37Z</time>
      </trkpt>
      <trkpt lat="47.61729" lon="-3.15858">
        <ele>23.8</ele>
        <time>2021-08-14T15:27:38Z</time>
      </trkpt>
      <trkpt lat="47.61729" lon="-3.15853">
        <ele>23.8</ele>
        <time>2021-08-14T15:27:39Z</time>
      </trkpt>
      <trkpt lat="47.61728" lon="-3.15848">
        <ele>23.8</ele>
        <time>2021-08-14T15:27:40Z</time>
      </trkpt>
      <trkpt lat="47.61727" lon="-3.15845">
        <ele>23.8</ele>
        <time>2021-08-14T15:27:41Z</time>
      </trkpt>
      <trkpt lat="47.61727" lon="-3.15841">
        <ele>23.8</ele>
        <time>2021-08-14T15:27:42Z</time>
      </trkpt>
      <trkpt lat="47.61726" lon="-3.15838">
        <ele>23.8</ele>
        <time>2021-08-14T15:27:43Z</time>
      </trkpt>
      <trkpt lat="47.61725" lon="-3.15836">
        <ele>23.8</ele>
        <time>2021-08-14T15:27:44Z</time>
      </trkpt>
      <trkpt lat="47.61724" lon="-3.15833">
        <ele>23.8</ele>
        <time>2021-08-14T15:27:45Z</time>
      </trkpt>
      <trkpt lat="47.61723" lon="-3.15831">
        <ele>23.8</ele>
        <time>2021-08-14T15:27:46Z</time>
      </trkpt>
      <trkpt lat="47.61724" lon="-3.15829">
        <ele>23.8</ele>
        <time>2021-08-14T15:27:47Z</time>
      </trkpt>
      <trkpt lat="47.61725" lon="-3.15829">
        <ele>23.8</ele>
        <time>2021-08-14T15:27:48Z</time>
      </trkpt>
      <trkpt lat="47.61726" lon="-3.15831">
        <ele>23.8</ele>
        <time>2021-08-14T15:27:49Z</time>
      </trkpt>
      <trkpt lat="47.61727" lon="-3.15832">
        <ele>23.8</ele>
        <time>2021-08-14T15:27:50Z</time>
      </trkpt>
      <trkpt lat="47.61727" lon="-3.15833">
        <ele>23.8</ele>
        <time>2021-08-14T15:27:51Z</time>
      </trkpt>
      <trkpt lat="47.61728" lon="-3.15836">
        <ele>23.8</ele>
        <time>2021-08-14T15:27:52Z</time>
      </trkpt>
      <trkpt lat="47.61728" lon="-3.15839">
        <ele>23.8</ele>
        <time>2021-08-14T15:27:53Z</time>
      </trkpt>
      <trkpt lat="47.61729" lon="-3.15843">
        <ele>23.8</ele>
        <time>2021-08-14T15:27:54Z</time>
      </trkpt>
      <trkpt lat="47.61729" lon="-3.15847">
        <ele>23.8</ele>
        <time>2021-08-14T15:27:55Z</time>
      </trkpt>
      <trkpt lat="47.6173" lon="-3.15852">
        <ele>23.8</ele>
        <time>2021-08-14T15:27:56Z</time>
      </trkpt>
      <trkpt lat="47.6173" lon="-3.15857">
        <ele>23.8</ele>
        <time>2021-08-14T15:27:57Z</time>
      </trkpt>
      <trkpt lat="47.6173" lon="-3.15863">
        <ele>23.8</ele>
        <time>2021-08-14T15:27:58Z</time>
      </trkpt>
      <trkpt lat="47.6173" lon="-3.15868">
        <ele>23.8</ele>
        <time>2021-08-14T15:27:59Z</time>
      </trkpt>
      <trkpt lat="47.61728" lon="-3.15873">
        <ele>23.8</ele>
        <time>2021-08-14T15:28:00Z</time>
      </trkpt>
      <trkpt lat="47.61726" lon="-3.15878">
        <ele>23.8</ele>
        <time>2021-08-14T15:28:01Z</time>
      </trkpt>
      <trkpt lat="47.61722" lon="-3.15881">
        <ele>23.6</ele>
        <time>2021-08-14T15:28:02Z</time>
      </trkpt>
      <trkpt lat="47.61719" lon="-3.15884">
        <ele>23.6</ele>
        <time>2021-08-14T15:28:03Z</time>
      </trkpt>
      <trkpt lat="47.61715" lon="-3.15886">
        <ele>23.6</ele>
        <time>2021-08-14T15:28:04Z</time>
      </trkpt>
      <trkpt lat="47.61711" lon="-3.15888">
        <ele>23.6</ele>
        <time>2021-08-14T15:28:05Z</time>
      </trkpt>
      <trkpt lat="47.61708" lon="-3.1589">
        <ele>23.4</ele>
        <time>2021-08-14T15:28:06Z</time>
      </trkpt>
      <trkpt lat="47.61704" lon="-3.15892">
        <ele>23.4</ele>
        <time>2021-08-14T15:28:07Z</time>
      </trkpt>
      <trkpt lat="47.61701" lon="-3.15895">
        <ele>23.2</ele>
        <time>2021-08-14T15:28:08Z</time>
      </trkpt>
      <trkpt lat="47.61698" lon="-3.15897">
        <ele>23.2</ele>
        <time>2021-08-14T15:28:09Z</time>
      </trkpt>
      <trkpt lat="47.61695" lon="-3.15899">
        <ele>23.2</ele>
        <time>2021-08-14T15:28:10Z</time>
      </trkpt>
      <trkpt lat="47.61691" lon="-3.159">
        <ele>23.2</ele>
        <time>2021-08-14T15:28:11Z</time>
      </trkpt>
      <trkpt lat="47.61688" lon="-3.15902">
        <ele>23.2</ele>
        <time>2021-08-14T15:28:12Z</time>
      </trkpt>
      <trkpt lat="47.61684" lon="-3.15904">
        <ele>23.2</ele>
        <time>2021-08-14T15:28:13Z</time>
      </trkpt>
      <trkpt lat="47.6168" lon="-3.15905">
        <ele>23.2</ele>
        <time>2021-08-14T15:28:14Z</time>
      </trkpt>
      <trkpt lat="47.61677" lon="-3.15905">
        <ele>23.2</ele>
        <time>2021-08-14T15:28:15Z</time>
      </trkpt>
      <trkpt lat="47.61673" lon="-3.15905">
        <ele>23.2</ele>
        <time>2021-08-14T15:28:16Z</time>
      </trkpt>
      <trkpt lat="47.6167" lon="-3.15906">
        <ele>23.2</ele>
        <time>2021-08-14T15:28:17Z</time>
      </trkpt>
      <trkpt lat="47.61666" lon="-3.15907">
        <ele>23</ele>
        <time>2021-08-14T15:28:18Z</time>
      </trkpt>
      <trkpt lat="47.61663" lon="-3.15908">
        <ele>23</ele>
        <time>2021-08-14T15:28:19Z</time>
      </trkpt>
      <trkpt lat="47.61659" lon="-3.15909">
        <ele>23</ele>
        <time>2021-08-14T15:28:20Z</time>
      </trkpt>
      <trkpt lat="47.61655" lon="-3.1591">
        <ele>23</ele>
        <time>2021-08-14T15:28:21Z</time>
      </trkpt>
      <trkpt lat="47.61652" lon="-3.15911">
        <ele>23</ele>
        <time>2021-08-14T15:28:22Z</time>
      </trkpt>
      <trkpt lat="47.61649" lon="-3.15912">
        <ele>23</ele>
        <time>2021-08-14T15:28:23Z</time>
      </trkpt>
      <trkpt lat="47.61646" lon="-3.15913">
        <ele>23</ele>
        <time>2021-08-14T15:28:24Z</time>
      </trkpt>
      <trkpt lat="47.61644" lon="-3.15914">
        <ele>22.8</ele>
        <time>2021-08-14T15:28:25Z</time>
      </trkpt>
      <trkpt lat="47.61641" lon="-3.15915">
        <ele>22.8</ele>
        <time>2021-08-14T15:28:26Z</time>
      </trkpt>
      <trkpt lat="47.61638" lon="-3.15916">
        <ele>22.8</ele>
        <time>2021-08-14T15:28:27Z</time>
      </trkpt>
      <trkpt lat="47.61636" lon="-3.15917">
        <ele>22.8</ele>
        <time>2021-08-14T15:28:28Z</time>
      </trkpt>
      <trkpt lat="47.61635" lon="-3.15916">
        <ele>22.6</ele>
        <time>2021-08-14T15:28:29Z</time>
      </trkpt>
      <trkpt lat="47.61635" lon="-3.15917">
        <ele>22.4</ele>
        <time>2021-08-14T15:28:30Z</time>
      </trkpt>
      <trkpt lat="47.61635" lon="-3.15917">
        <ele>22.4</ele>
        <time>2021-08-14T15:28:31Z</time>
      </trkpt>
      <trkpt lat="47.61634" lon="-3.15917">
        <ele>21.8</ele>
        <time>2021-08-14T15:28:43Z</time>
      </trkpt>
      <trkpt lat="47.61632" lon="-3.15917">
        <ele>21.6</ele>
        <time>2021-08-14T15:28:44Z</time>
      </trkpt>
      <trkpt lat="47.61631" lon="-3.15917">
        <ele>21.6</ele>
        <time>2021-08-14T15:28:45Z</time>
      </trkpt>
      <trkpt lat="47.61631" lon="-3.15917">
        <ele>21.6</ele>
        <time>2021-08-14T15:28:46Z</time>
      </trkpt>
      <trkpt lat="47.61631" lon="-3.15917">
        <ele>21.6</ele>
        <time>2021-08-14T15:28:47Z</time>
      </trkpt>
      <trkpt lat="47.61631" lon="-3.15913">
        <ele>21.6</ele>
        <time>2021-08-14T15:28:54Z</time>
      </trkpt>
      <trkpt lat="47.61631" lon="-3.15912">
        <ele>21.8</ele>
        <time>2021-08-14T15:28:55Z</time>
      </trkpt>
      <trkpt lat="47.61631" lon="-3.15911">
        <ele>22</ele>
        <time>2021-08-14T15:28:56Z</time>
      </trkpt>
      <trkpt lat="47.6162" lon="-3.15893">
        <ele>22</ele>
        <time>2021-08-14T15:29:10Z</time>
      </trkpt>
      <trkpt lat="47.6162" lon="-3.15889">
        <ele>22</ele>
        <time>2021-08-14T15:29:11Z</time>
      </trkpt>
      <trkpt lat="47.61619" lon="-3.15885">
        <ele>22</ele>
        <time>2021-08-14T15:29:12Z</time>
      </trkpt>
      <trkpt lat="47.61619" lon="-3.1588">
        <ele>22</ele>
        <time>2021-08-14T15:29:13Z</time>
      </trkpt>
      <trkpt lat="47.61618" lon="-3.15874">
        <ele>22</ele>
        <time>2021-08-14T15:29:14Z</time>
      </trkpt>
      <trkpt lat="47.61618" lon="-3.15868">
        <ele>22</ele>
        <time>2021-08-14T15:29:15Z</time>
      </trkpt>
      <trkpt lat="47.61617" lon="-3.15862">
        <ele>22</ele>
        <time>2021-08-14T15:29:16Z</time>
      </trkpt>
      <trkpt lat="47.61616" lon="-3.15855">
        <ele>22</ele>
        <time>2021-08-14T15:29:17Z</time>
      </trkpt>
      <trkpt lat="47.61615" lon="-3.15848">
        <ele>22</ele>
        <time>2021-08-14T15:29:18Z</time>
      </trkpt>
      <trkpt lat="47.61614" lon="-3.15841">
        <ele>22</ele>
        <time>2021-08-14T15:29:19Z</time>
      </trkpt>
      <trkpt lat="47.61613" lon="-3.15834">
        <ele>22</ele>
        <time>2021-08-14T15:29:20Z</time>
      </trkpt>
      <trkpt lat="47.61612" lon="-3.15827">
        <ele>22</ele>
        <time>2021-08-14T15:29:21Z</time>
      </trkpt>
      <trkpt lat="47.61611" lon="-3.1582">
        <ele>22</ele>
        <time>2021-08-14T15:29:22Z</time>
      </trkpt>
      <trkpt lat="47.61609" lon="-3.15812">
        <ele>21.8</ele>
        <time>2021-08-14T15:29:23Z</time>
      </trkpt>
      <trkpt lat="47.61608" lon="-3.15805">
        <ele>21.8</ele>
        <time>2021-08-14T15:29:24Z</time>
      </trkpt>
      <trkpt lat="47.61606" lon="-3.15797">
        <ele>21.8</ele>
        <time>2021-08-14T15:29:25Z</time>
      </trkpt>
      <trkpt lat="47.61604" lon="-3.15789">
        <ele>21.8</ele>
        <time>2021-08-14T15:29:26Z</time>
      </trkpt>
      <trkpt lat="47.61603" lon="-3.15782">
        <ele>21.8</ele>
        <time>2021-08-14T15:29:27Z</time>
      </trkpt>
      <trkpt lat="47.61601" lon="-3.15774">
        <ele>21.6</ele>
        <time>2021-08-14T15:29:28Z</time>
      </trkpt>
      <trkpt lat="47.616" lon="-3.15766">
        <ele>21.6</ele>
        <time>2021-08-14T15:29:29Z</time>
      </trkpt>
      <trkpt lat="47.61599" lon="-3.15758">
        <ele>21.6</ele>
        <time>2021-08-14T15:29:30Z</time>
      </trkpt>
      <trkpt lat="47.61597" lon="-3.1575">
        <ele>21.4</ele>
        <time>2021-08-14T15:29:31Z</time>
      </trkpt>
      <trkpt lat="47.61596" lon="-3.15742">
        <ele>21.4</ele>
        <time>2021-08-14T15:29:32Z</time>
      </trkpt>
      <trkpt lat="47.61595" lon="-3.15733">
        <ele>21.4</ele>
        <time>2021-08-14T15:29:33Z</time>
      </trkpt>
      <trkpt lat="47.61593" lon="-3.15725">
        <ele>21.4</ele>
        <time>2021-08-14T15:29:34Z</time>
      </trkpt>
      <trkpt lat="47.61592" lon="-3.15716">
        <ele>21.4</ele>
        <time>2021-08-14T15:29:35Z</time>
      </trkpt>
      <trkpt lat="47.6159" lon="-3.15708">
        <ele>21.2</ele>
        <time>2021-08-14T15:29:36Z</time>
      </trkpt>
      <trkpt lat="47.61588" lon="-3.15699">
        <ele>21.2</ele>
        <time>2021-08-14T15:29:37Z</time>
      </trkpt>
      <trkpt lat="47.61586" lon="-3.1569">
        <ele>21</ele>
        <time>2021-08-14T15:29:38Z</time>
      </trkpt>
      <trkpt lat="47.61585" lon="-3.15681">
        <ele>21</ele>
        <time>2021-08-14T15:29:39Z</time>
      </trkpt>
      <trkpt lat="47.61583" lon="-3.15672">
        <ele>21</ele>
        <time>2021-08-14T15:29:40Z</time>
      </trkpt>
      <trkpt lat="47.61581" lon="-3.15662">
        <ele>21</ele>
        <time>2021-08-14T15:29:41Z</time>
      </trkpt>
      <trkpt lat="47.61579" lon="-3.15653">
        <ele>21</ele>
        <time>2021-08-14T15:29:42Z</time>
      </trkpt>
      <trkpt lat="47.61577" lon="-3.15644">
        <ele>20.8</ele>
        <time>2021-08-14T15:29:43Z</time>
      </trkpt>
      <trkpt lat="47.61575" lon="-3.15635">
        <ele>20.8</ele>
        <time>2021-08-14T15:29:44Z</time>
      </trkpt>
      <trkpt lat="47.61573" lon="-3.15626">
        <ele>20.8</ele>
        <time>2021-08-14T15:29:45Z</time>
      </trkpt>
      <trkpt lat="47.61571" lon="-3.15618">
        <ele>20.8</ele>
        <time>2021-08-14T15:29:46Z</time>
      </trkpt>
      <trkpt lat="47.6157" lon="-3.1561">
        <ele>20.8</ele>
        <time>2021-08-14T15:29:47Z</time>
      </trkpt>
      <trkpt lat="47.61568" lon="-3.15601">
        <ele>20.8</ele>
        <time>2021-08-14T15:29:48Z</time>
      </trkpt>
      <trkpt lat="47.61566" lon="-3.15593">
        <ele>20.8</ele>
        <time>2021-08-14T15:29:49Z</time>
      </trkpt>
      <trkpt lat="47.61565" lon="-3.15585">
        <ele>20.8</ele>
        <time>2021-08-14T15:29:50Z</time>
      </trkpt>
      <trkpt lat="47.61563" lon="-3.15577">
        <ele>20.8</ele>
        <time>2021-08-14T15:29:51Z</time>
      </trkpt>
      <trkpt lat="47.61562" lon="-3.15569">
        <ele>20.8</ele>
        <time>2021-08-14T15:29:52Z</time>
      </trkpt>
      <trkpt lat="47.6156" lon="-3.15561">
        <ele>21</ele>
        <time>2021-08-14T15:29:53Z</time>
      </trkpt>
      <trkpt lat="47.61559" lon="-3.15553">
        <ele>21</ele>
        <time>2021-08-14T15:29:54Z</time>
      </trkpt>
      <trkpt lat="47.61557" lon="-3.15546">
        <ele>21.2</ele>
        <time>2021-08-14T15:29:55Z</time>
      </trkpt>
      <trkpt lat="47.61556" lon="-3.15539">
        <ele>21.4</ele>
        <time>2021-08-14T15:29:56Z</time>
      </trkpt>
      <trkpt lat="47.61554" lon="-3.15532">
        <ele>21.4</ele>
        <time>2021-08-14T15:29:57Z</time>
      </trkpt>
      <trkpt lat="47.61553" lon="-3.15526">
        <ele>21.6</ele>
        <time>2021-08-14T15:29:58Z</time>
      </trkpt>
      <trkpt lat="47.61552" lon="-3.15519">
        <ele>21.6</ele>
        <time>2021-08-14T15:29:59Z</time>
      </trkpt>
      <trkpt lat="47.61551" lon="-3.15513">
        <ele>21.6</ele>
        <time>2021-08-14T15:30:00Z</time>
      </trkpt>
      <trkpt lat="47.6155" lon="-3.15507">
        <ele>21.8</ele>
        <time>2021-08-14T15:30:01Z</time>
      </trkpt>
      <trkpt lat="47.61549" lon="-3.155">
        <ele>21.8</ele>
        <time>2021-08-14T15:30:02Z</time>
      </trkpt>
      <trkpt lat="47.61547" lon="-3.15494">
        <ele>21.8</ele>
        <time>2021-08-14T15:30:03Z</time>
      </trkpt>
      <trkpt lat="47.61546" lon="-3.15487">
        <ele>21.8</ele>
        <time>2021-08-14T15:30:04Z</time>
      </trkpt>
      <trkpt lat="47.61545" lon="-3.15481">
        <ele>21.8</ele>
        <time>2021-08-14T15:30:05Z</time>
      </trkpt>
      <trkpt lat="47.61543" lon="-3.15474">
        <ele>21.8</ele>
        <time>2021-08-14T15:30:06Z</time>
      </trkpt>
      <trkpt lat="47.61542" lon="-3.15467">
        <ele>22</ele>
        <time>2021-08-14T15:30:07Z</time>
      </trkpt>
      <trkpt lat="47.61541" lon="-3.1546">
        <ele>22</ele>
        <time>2021-08-14T15:30:08Z</time>
      </trkpt>
      <trkpt lat="47.61539" lon="-3.15454">
        <ele>22</ele>
        <time>2021-08-14T15:30:09Z</time>
      </trkpt>
      <trkpt lat="47.61538" lon="-3.15447">
        <ele>22</ele>
        <time>2021-08-14T15:30:10Z</time>
      </trkpt>
      <trkpt lat="47.61537" lon="-3.1544">
        <ele>22</ele>
        <time>2021-08-14T15:30:11Z</time>
      </trkpt>
      <trkpt lat="47.61535" lon="-3.15433">
        <ele>22</ele>
        <time>2021-08-14T15:30:12Z</time>
      </trkpt>
      <trkpt lat="47.61534" lon="-3.15426">
        <ele>22</ele>
        <time>2021-08-14T15:30:13Z</time>
      </trkpt>
      <trkpt lat="47.61533" lon="-3.1542">
        <ele>22</ele>
        <time>2021-08-14T15:30:14Z</time>
      </trkpt>
      <trkpt lat="47.61531" lon="-3.15413">
        <ele>22</ele>
        <time>2021-08-14T15:30:15Z</time>
      </trkpt>
      <trkpt lat="47.6153" lon="-3.15406">
        <ele>22</ele>
        <time>2021-08-14T15:30:16Z</time>
      </trkpt>
      <trkpt lat="47.61528" lon="-3.15399">
        <ele>21.8</ele>
        <time>2021-08-14T15:30:17Z</time>
      </trkpt>
      <trkpt lat="47.61527" lon="-3.15392">
        <ele>21.8</ele>
        <time>2021-08-14T15:30:18Z</time>
      </trkpt>
      <trkpt lat="47.61526" lon="-3.15385">
        <ele>21.8</ele>
        <time>2021-08-14T15:30:19Z</time>
      </trkpt>
      <trkpt lat="47.61524" lon="-3.15379">
        <ele>21.8</ele>
        <time>2021-08-14T15:30:20Z</time>
      </trkpt>
      <trkpt lat="47.61523" lon="-3.15373">
        <ele>21.8</ele>
        <time>2021-08-14T15:30:21Z</time>
      </trkpt>
      <trkpt lat="47.61522" lon="-3.15367">
        <ele>21.8</ele>
        <time>2021-08-14T15:30:22Z</time>
      </trkpt>
      <trkpt lat="47.61521" lon="-3.15361">
        <ele>21.8</ele>
        <time>2021-08-14T15:30:23Z</time>
      </trkpt>
      <trkpt lat="47.6152" lon="-3.15355">
        <ele>21.8</ele>
        <time>2021-08-14T15:30:24Z</time>
      </trkpt>
      <trkpt lat="47.61519" lon="-3.15348">
        <ele>21.8</ele>
        <time>2021-08-14T15:30:25Z</time>
      </trkpt>
      <trkpt lat="47.61517" lon="-3.15342">
        <ele>22</ele>
        <time>2021-08-14T15:30:26Z</time>
      </trkpt>
      <trkpt lat="47.61516" lon="-3.15335">
        <ele>22</ele>
        <time>2021-08-14T15:30:27Z</time>
      </trkpt>
      <trkpt lat="47.61515" lon="-3.15329">
        <ele>22</ele>
        <time>2021-08-14T15:30:28Z</time>
      </trkpt>
      <trkpt lat="47.61514" lon="-3.15323">
        <ele>22</ele>
        <time>2021-08-14T15:30:29Z</time>
      </trkpt>
      <trkpt lat="47.61513" lon="-3.15318">
        <ele>22.2</ele>
        <time>2021-08-14T15:30:30Z</time>
      </trkpt>
      <trkpt lat="47.61512" lon="-3.15313">
        <ele>22.2</ele>
        <time>2021-08-14T15:30:31Z</time>
      </trkpt>
      <trkpt lat="47.61511" lon="-3.15307">
        <ele>22.2</ele>
        <time>2021-08-14T15:30:32Z</time>
      </trkpt>
      <trkpt lat="47.6151" lon="-3.15301">
        <ele>22.2</ele>
        <time>2021-08-14T15:30:33Z</time>
      </trkpt>
      <trkpt lat="47.61509" lon="-3.15296">
        <ele>22.2</ele>
        <time>2021-08-14T15:30:34Z</time>
      </trkpt>
      <trkpt lat="47.61508" lon="-3.1529">
        <ele>22.2</ele>
        <time>2021-08-14T15:30:35Z</time>
      </trkpt>
      <trkpt lat="47.61506" lon="-3.15284">
        <ele>22.2</ele>
        <time>2021-08-14T15:30:36Z</time>
      </trkpt>
      <trkpt lat="47.61505" lon="-3.15278">
        <ele>22.2</ele>
        <time>2021-08-14T15:30:37Z</time>
      </trkpt>
      <trkpt lat="47.61504" lon="-3.15272">
        <ele>22.2</ele>
        <time>2021-08-14T15:30:38Z</time>
      </trkpt>
      <trkpt lat="47.61502" lon="-3.15266">
        <ele>22.2</ele>
        <time>2021-08-14T15:30:39Z</time>
      </trkpt>
      <trkpt lat="47.61501" lon="-3.1526">
        <ele>22.2</ele>
        <time>2021-08-14T15:30:40Z</time>
      </trkpt>
      <trkpt lat="47.615" lon="-3.15253">
        <ele>22.2</ele>
        <time>2021-08-14T15:30:41Z</time>
      </trkpt>
      <trkpt lat="47.61499" lon="-3.15247">
        <ele>22.2</ele>
        <time>2021-08-14T15:30:42Z</time>
      </trkpt>
      <trkpt lat="47.61498" lon="-3.15241">
        <ele>22.2</ele>
        <time>2021-08-14T15:30:43Z</time>
      </trkpt>
      <trkpt lat="47.61496" lon="-3.15235">
        <ele>22.4</ele>
        <time>2021-08-14T15:30:44Z</time>
      </trkpt>
      <trkpt lat="47.61495" lon="-3.15229">
        <ele>22.4</ele>
        <time>2021-08-14T15:30:45Z</time>
      </trkpt>
      <trkpt lat="47.61494" lon="-3.15223">
        <ele>22.4</ele>
        <time>2021-08-14T15:30:46Z</time>
      </trkpt>
      <trkpt lat="47.61493" lon="-3.15217">
        <ele>22.4</ele>
        <time>2021-08-14T15:30:47Z</time>
      </trkpt>
      <trkpt lat="47.61492" lon="-3.15211">
        <ele>22.4</ele>
        <time>2021-08-14T15:30:48Z</time>
      </trkpt>
      <trkpt lat="47.61491" lon="-3.15206">
        <ele>22.6</ele>
        <time>2021-08-14T15:30:49Z</time>
      </trkpt>
      <trkpt lat="47.61489" lon="-3.15199">
        <ele>22.6</ele>
        <time>2021-08-14T15:30:50Z</time>
      </trkpt>
      <trkpt lat="47.61488" lon="-3.15193">
        <ele>22.8</ele>
        <time>2021-08-14T15:30:51Z</time>
      </trkpt>
      <trkpt lat="47.61487" lon="-3.15187">
        <ele>22.8</ele>
        <time>2021-08-14T15:30:52Z</time>
      </trkpt>
      <trkpt lat="47.61486" lon="-3.15181">
        <ele>23</ele>
        <time>2021-08-14T15:30:53Z</time>
      </trkpt>
      <trkpt lat="47.61485" lon="-3.15175">
        <ele>23</ele>
        <time>2021-08-14T15:30:54Z</time>
      </trkpt>
      <trkpt lat="47.61483" lon="-3.1517">
        <ele>23</ele>
        <time>2021-08-14T15:30:55Z</time>
      </trkpt>
      <trkpt lat="47.61482" lon="-3.15164">
        <ele>23</ele>
        <time>2021-08-14T15:30:56Z</time>
      </trkpt>
      <trkpt lat="47.61481" lon="-3.15158">
        <ele>23.2</ele>
        <time>2021-08-14T15:30:57Z</time>
      </trkpt>
      <trkpt lat="47.61479" lon="-3.15152">
        <ele>23.2</ele>
        <time>2021-08-14T15:30:58Z</time>
      </trkpt>
      <trkpt lat="47.61478" lon="-3.15145">
        <ele>23.2</ele>
        <time>2021-08-14T15:30:59Z</time>
      </trkpt>
      <trkpt lat="47.61477" lon="-3.15139">
        <ele>23.2</ele>
        <time>2021-08-14T15:31:00Z</time>
      </trkpt>
      <trkpt lat="47.61476" lon="-3.15133">
        <ele>23</ele>
        <time>2021-08-14T15:31:01Z</time>
      </trkpt>
      <trkpt lat="47.61474" lon="-3.15127">
        <ele>23.2</ele>
        <time>2021-08-14T15:31:02Z</time>
      </trkpt>
      <trkpt lat="47.61473" lon="-3.15121">
        <ele>23.4</ele>
        <time>2021-08-14T15:31:03Z</time>
      </trkpt>
      <trkpt lat="47.61472" lon="-3.15115">
        <ele>23.4</ele>
        <time>2021-08-14T15:31:04Z</time>
      </trkpt>
      <trkpt lat="47.61471" lon="-3.15109">
        <ele>23.4</ele>
        <time>2021-08-14T15:31:05Z</time>
      </trkpt>
      <trkpt lat="47.6147" lon="-3.15103">
        <ele>23.4</ele>
        <time>2021-08-14T15:31:06Z</time>
      </trkpt>
      <trkpt lat="47.61469" lon="-3.15097">
        <ele>23.4</ele>
        <time>2021-08-14T15:31:07Z</time>
      </trkpt>
      <trkpt lat="47.61468" lon="-3.1509">
        <ele>23.4</ele>
        <time>2021-08-14T15:31:08Z</time>
      </trkpt>
      <trkpt lat="47.61466" lon="-3.15084">
        <ele>23.4</ele>
        <time>2021-08-14T15:31:09Z</time>
      </trkpt>
      <trkpt lat="47.61465" lon="-3.15077">
        <ele>23.4</ele>
        <time>2021-08-14T15:31:10Z</time>
      </trkpt>
      <trkpt lat="47.61464" lon="-3.15071">
        <ele>23.6</ele>
        <time>2021-08-14T15:31:11Z</time>
      </trkpt>
      <trkpt lat="47.61463" lon="-3.15066">
        <ele>23.6</ele>
        <time>2021-08-14T15:31:12Z</time>
      </trkpt>
      <trkpt lat="47.61462" lon="-3.1506">
        <ele>23.6</ele>
        <time>2021-08-14T15:31:13Z</time>
      </trkpt>
      <trkpt lat="47.61461" lon="-3.15054">
        <ele>23.4</ele>
        <time>2021-08-14T15:31:14Z</time>
      </trkpt>
      <trkpt lat="47.61459" lon="-3.15049">
        <ele>23.4</ele>
        <time>2021-08-14T15:31:15Z</time>
      </trkpt>
      <trkpt lat="47.61458" lon="-3.15043">
        <ele>23.4</ele>
        <time>2021-08-14T15:31:16Z</time>
      </trkpt>
      <trkpt lat="47.61456" lon="-3.15036">
        <ele>23.4</ele>
        <time>2021-08-14T15:31:17Z</time>
      </trkpt>
      <trkpt lat="47.61455" lon="-3.1503">
        <ele>23.4</ele>
        <time>2021-08-14T15:31:18Z</time>
      </trkpt>
      <trkpt lat="47.61453" lon="-3.15024">
        <ele>23.4</ele>
        <time>2021-08-14T15:31:19Z</time>
      </trkpt>
      <trkpt lat="47.61452" lon="-3.15019">
        <ele>23.4</ele>
        <time>2021-08-14T15:31:20Z</time>
      </trkpt>
      <trkpt lat="47.6145" lon="-3.15013">
        <ele>23.4</ele>
        <time>2021-08-14T15:31:21Z</time>
      </trkpt>
      <trkpt lat="47.61449" lon="-3.15007">
        <ele>23.2</ele>
        <time>2021-08-14T15:31:22Z</time>
      </trkpt>
      <trkpt lat="47.61447" lon="-3.15001">
        <ele>23.2</ele>
        <time>2021-08-14T15:31:23Z</time>
      </trkpt>
      <trkpt lat="47.61445" lon="-3.14995">
        <ele>23.2</ele>
        <time>2021-08-14T15:31:24Z</time>
      </trkpt>
      <trkpt lat="47.61443" lon="-3.14988">
        <ele>23.2</ele>
        <time>2021-08-14T15:31:25Z</time>
      </trkpt>
      <trkpt lat="47.61442" lon="-3.14982">
        <ele>23.2</ele>
        <time>2021-08-14T15:31:26Z</time>
      </trkpt>
      <trkpt lat="47.61441" lon="-3.14976">
        <ele>23.2</ele>
        <time>2021-08-14T15:31:27Z</time>
      </trkpt>
      <trkpt lat="47.61439" lon="-3.1497">
        <ele>23.2</ele>
        <time>2021-08-14T15:31:28Z</time>
      </trkpt>
      <trkpt lat="47.61438" lon="-3.14964">
        <ele>23.2</ele>
        <time>2021-08-14T15:31:29Z</time>
      </trkpt>
      <trkpt lat="47.61436" lon="-3.14958">
        <ele>23</ele>
        <time>2021-08-14T15:31:30Z</time>
      </trkpt>
      <trkpt lat="47.61434" lon="-3.14952">
        <ele>23</ele>
        <time>2021-08-14T15:31:31Z</time>
      </trkpt>
      <trkpt lat="47.61433" lon="-3.14945">
        <ele>23</ele>
        <time>2021-08-14T15:31:32Z</time>
      </trkpt>
      <trkpt lat="47.61431" lon="-3.14939">
        <ele>23</ele>
        <time>2021-08-14T15:31:33Z</time>
      </trkpt>
      <trkpt lat="47.6143" lon="-3.14933">
        <ele>23</ele>
        <time>2021-08-14T15:31:34Z</time>
      </trkpt>
      <trkpt lat="47.61428" lon="-3.14927">
        <ele>23</ele>
        <time>2021-08-14T15:31:35Z</time>
      </trkpt>
      <trkpt lat="47.61427" lon="-3.14921">
        <ele>23</ele>
        <time>2021-08-14T15:31:36Z</time>
      </trkpt>
      <trkpt lat="47.61425" lon="-3.14915">
        <ele>23</ele>
        <time>2021-08-14T15:31:37Z</time>
      </trkpt>
      <trkpt lat="47.61424" lon="-3.14909">
        <ele>22.8</ele>
        <time>2021-08-14T15:31:38Z</time>
      </trkpt>
      <trkpt lat="47.61422" lon="-3.14903">
        <ele>22.8</ele>
        <time>2021-08-14T15:31:39Z</time>
      </trkpt>
      <trkpt lat="47.6142" lon="-3.14896">
        <ele>22.8</ele>
        <time>2021-08-14T15:31:40Z</time>
      </trkpt>
      <trkpt lat="47.61419" lon="-3.1489">
        <ele>22.8</ele>
        <time>2021-08-14T15:31:41Z</time>
      </trkpt>
      <trkpt lat="47.61417" lon="-3.14883">
        <ele>22.8</ele>
        <time>2021-08-14T15:31:42Z</time>
      </trkpt>
      <trkpt lat="47.61415" lon="-3.14876">
        <ele>22.8</ele>
        <time>2021-08-14T15:31:43Z</time>
      </trkpt>
      <trkpt lat="47.61414" lon="-3.14869">
        <ele>22.6</ele>
        <time>2021-08-14T15:31:44Z</time>
      </trkpt>
      <trkpt lat="47.61412" lon="-3.14862">
        <ele>22.6</ele>
        <time>2021-08-14T15:31:45Z</time>
      </trkpt>
      <trkpt lat="47.6141" lon="-3.14855">
        <ele>22.6</ele>
        <time>2021-08-14T15:31:46Z</time>
      </trkpt>
      <trkpt lat="47.61408" lon="-3.14847">
        <ele>22.6</ele>
        <time>2021-08-14T15:31:47Z</time>
      </trkpt>
      <trkpt lat="47.61407" lon="-3.1484">
        <ele>22.4</ele>
        <time>2021-08-14T15:31:48Z</time>
      </trkpt>
      <trkpt lat="47.61405" lon="-3.14833">
        <ele>22.4</ele>
        <time>2021-08-14T15:31:49Z</time>
      </trkpt>
      <trkpt lat="47.61403" lon="-3.14827">
        <ele>22.2</ele>
        <time>2021-08-14T15:31:50Z</time>
      </trkpt>
      <trkpt lat="47.61402" lon="-3.1482">
        <ele>22.2</ele>
        <time>2021-08-14T15:31:51Z</time>
      </trkpt>
      <trkpt lat="47.614" lon="-3.14814">
        <ele>22.2</ele>
        <time>2021-08-14T15:31:52Z</time>
      </trkpt>
      <trkpt lat="47.61399" lon="-3.14807">
        <ele>22.2</ele>
        <time>2021-08-14T15:31:53Z</time>
      </trkpt>
      <trkpt lat="47.61397" lon="-3.14801">
        <ele>22</ele>
        <time>2021-08-14T15:31:54Z</time>
      </trkpt>
      <trkpt lat="47.61395" lon="-3.14794">
        <ele>22</ele>
        <time>2021-08-14T15:31:55Z</time>
      </trkpt>
      <trkpt lat="47.61394" lon="-3.14788">
        <ele>22</ele>
        <time>2021-08-14T15:31:56Z</time>
      </trkpt>
      <trkpt lat="47.61392" lon="-3.14782">
        <ele>22</ele>
        <time>2021-08-14T15:31:57Z</time>
      </trkpt>
      <trkpt lat="47.61391" lon="-3.14775">
        <ele>22</ele>
        <time>2021-08-14T15:31:58Z</time>
      </trkpt>
      <trkpt lat="47.61389" lon="-3.14768">
        <ele>22</ele>
        <time>2021-08-14T15:31:59Z</time>
      </trkpt>
      <trkpt lat="47.61388" lon="-3.14762">
        <ele>22.2</ele>
        <time>2021-08-14T15:32:00Z</time>
      </trkpt>
      <trkpt lat="47.61386" lon="-3.14755">
        <ele>22.2</ele>
        <time>2021-08-14T15:32:01Z</time>
      </trkpt>
      <trkpt lat="47.61385" lon="-3.14749">
        <ele>22.2</ele>
        <time>2021-08-14T15:32:02Z</time>
      </trkpt>
      <trkpt lat="47.61384" lon="-3.14742">
        <ele>22.2</ele>
        <time>2021-08-14T15:32:03Z</time>
      </trkpt>
      <trkpt lat="47.61383" lon="-3.14735">
        <ele>22.2</ele>
        <time>2021-08-14T15:32:04Z</time>
      </trkpt>
      <trkpt lat="47.61383" lon="-3.14729">
        <ele>22.2</ele>
        <time>2021-08-14T15:32:05Z</time>
      </trkpt>
      <trkpt lat="47.61382" lon="-3.14722">
        <ele>22.4</ele>
        <time>2021-08-14T15:32:06Z</time>
      </trkpt>
      <trkpt lat="47.61382" lon="-3.14716">
        <ele>22.4</ele>
        <time>2021-08-14T15:32:07Z</time>
      </trkpt>
      <trkpt lat="47.61382" lon="-3.1471">
        <ele>22.4</ele>
        <time>2021-08-14T15:32:08Z</time>
      </trkpt>
      <trkpt lat="47.61382" lon="-3.14704">
        <ele>22.4</ele>
        <time>2021-08-14T15:32:09Z</time>
      </trkpt>
      <trkpt lat="47.61382" lon="-3.14698">
        <ele>22.4</ele>
        <time>2021-08-14T15:32:10Z</time>
      </trkpt>
      <trkpt lat="47.61382" lon="-3.14691">
        <ele>22.4</ele>
        <time>2021-08-14T15:32:11Z</time>
      </trkpt>
      <trkpt lat="47.61383" lon="-3.14685">
        <ele>22.4</ele>
        <time>2021-08-14T15:32:12Z</time>
      </trkpt>
      <trkpt lat="47.61383" lon="-3.14679">
        <ele>22.4</ele>
        <time>2021-08-14T15:32:13Z</time>
      </trkpt>
      <trkpt lat="47.61383" lon="-3.14673">
        <ele>22.4</ele>
        <time>2021-08-14T15:32:14Z</time>
      </trkpt>
      <trkpt lat="47.61384" lon="-3.14667">
        <ele>22.4</ele>
        <time>2021-08-14T15:32:15Z</time>
      </trkpt>
      <trkpt lat="47.61385" lon="-3.14662">
        <ele>22.6</ele>
        <time>2021-08-14T15:32:16Z</time>
      </trkpt>
      <trkpt lat="47.61385" lon="-3.14656">
        <ele>22.6</ele>
        <time>2021-08-14T15:32:17Z</time>
      </trkpt>
      <trkpt lat="47.61383" lon="-3.14652">
        <ele>22.6</ele>
        <time>2021-08-14T15:32:18Z</time>
      </trkpt>
      <trkpt lat="47.6138" lon="-3.1465">
        <ele>22.6</ele>
        <time>2021-08-14T15:32:19Z</time>
      </trkpt>
      <trkpt lat="47.61377" lon="-3.14651">
        <ele>22.6</ele>
        <time>2021-08-14T15:32:20Z</time>
      </trkpt>
      <trkpt lat="47.61374" lon="-3.14654">
        <ele>22.6</ele>
        <time>2021-08-14T15:32:21Z</time>
      </trkpt>
      <trkpt lat="47.61371" lon="-3.14656">
        <ele>22.6</ele>
        <time>2021-08-14T15:32:22Z</time>
      </trkpt>
      <trkpt lat="47.61367" lon="-3.14658">
        <ele>22.6</ele>
        <time>2021-08-14T15:32:23Z</time>
      </trkpt>
      <trkpt lat="47.61364" lon="-3.1466">
        <ele>22.6</ele>
        <time>2021-08-14T15:32:24Z</time>
      </trkpt>
      <trkpt lat="47.6136" lon="-3.14663">
        <ele>22.6</ele>
        <time>2021-08-14T15:32:25Z</time>
      </trkpt>
      <trkpt lat="47.61357" lon="-3.14666">
        <ele>22.6</ele>
        <time>2021-08-14T15:32:26Z</time>
      </trkpt>
      <trkpt lat="47.61353" lon="-3.14669">
        <ele>22.6</ele>
        <time>2021-08-14T15:32:27Z</time>
      </trkpt>
      <trkpt lat="47.6135" lon="-3.14673">
        <ele>22.6</ele>
        <time>2021-08-14T15:32:28Z</time>
      </trkpt>
      <trkpt lat="47.61346" lon="-3.14676">
        <ele>22.6</ele>
        <time>2021-08-14T15:32:29Z</time>
      </trkpt>
      <trkpt lat="47.61342" lon="-3.14679">
        <ele>22.6</ele>
        <time>2021-08-14T15:32:30Z</time>
      </trkpt>
      <trkpt lat="47.61338" lon="-3.14682">
        <ele>22.6</ele>
        <time>2021-08-14T15:32:31Z</time>
      </trkpt>
      <trkpt lat="47.61334" lon="-3.14686">
        <ele>22.6</ele>
        <time>2021-08-14T15:32:32Z</time>
      </trkpt>
      <trkpt lat="47.61329" lon="-3.14689">
        <ele>22.4</ele>
        <time>2021-08-14T15:32:33Z</time>
      </trkpt>
      <trkpt lat="47.61325" lon="-3.14692">
        <ele>22.4</ele>
        <time>2021-08-14T15:32:34Z</time>
      </trkpt>
      <trkpt lat="47.61321" lon="-3.14696">
        <ele>22.4</ele>
        <time>2021-08-14T15:32:35Z</time>
      </trkpt>
      <trkpt lat="47.61317" lon="-3.14699">
        <ele>22.4</ele>
        <time>2021-08-14T15:32:36Z</time>
      </trkpt>
      <trkpt lat="47.61313" lon="-3.14702">
        <ele>22.2</ele>
        <time>2021-08-14T15:32:37Z</time>
      </trkpt>
      <trkpt lat="47.61309" lon="-3.14706">
        <ele>22.2</ele>
        <time>2021-08-14T15:32:38Z</time>
      </trkpt>
      <trkpt lat="47.61305" lon="-3.14709">
        <ele>22.2</ele>
        <time>2021-08-14T15:32:39Z</time>
      </trkpt>
      <trkpt lat="47.61301" lon="-3.14713">
        <ele>22.2</ele>
        <time>2021-08-14T15:32:40Z</time>
      </trkpt>
      <trkpt lat="47.61297" lon="-3.14717">
        <ele>22.2</ele>
        <time>2021-08-14T15:32:41Z</time>
      </trkpt>
      <trkpt lat="47.61294" lon="-3.14721">
        <ele>22.2</ele>
        <time>2021-08-14T15:32:42Z</time>
      </trkpt>
      <trkpt lat="47.61291" lon="-3.14724">
        <ele>22.2</ele>
        <time>2021-08-14T15:32:43Z</time>
      </trkpt>
      <trkpt lat="47.61288" lon="-3.14727">
        <ele>22.2</ele>
        <time>2021-08-14T15:32:44Z</time>
      </trkpt>
      <trkpt lat="47.61285" lon="-3.14728">
        <ele>22.2</ele>
        <time>2021-08-14T15:32:45Z</time>
      </trkpt>
      <trkpt lat="47.61283" lon="-3.1473">
        <ele>22.2</ele>
        <time>2021-08-14T15:32:46Z</time>
      </trkpt>
      <trkpt lat="47.6128" lon="-3.14731">
        <ele>22.2</ele>
        <time>2021-08-14T15:32:47Z</time>
      </trkpt>
      <trkpt lat="47.61278" lon="-3.14731">
        <ele>22.4</ele>
        <time>2021-08-14T15:32:48Z</time>
      </trkpt>
      <trkpt lat="47.61277" lon="-3.1473">
        <ele>22.4</ele>
        <time>2021-08-14T15:32:49Z</time>
      </trkpt>
      <trkpt lat="47.61275" lon="-3.14729">
        <ele>22.4</ele>
        <time>2021-08-14T15:32:50Z</time>
      </trkpt>
      <trkpt lat="47.61274" lon="-3.14727">
        <ele>22.6</ele>
        <time>2021-08-14T15:32:51Z</time>
      </trkpt>
      <trkpt lat="47.61272" lon="-3.14725">
        <ele>22.6</ele>
        <time>2021-08-14T15:32:52Z</time>
      </trkpt>
      <trkpt lat="47.6127" lon="-3.14722">
        <ele>22.6</ele>
        <time>2021-08-14T15:32:53Z</time>
      </trkpt>
      <trkpt lat="47.61268" lon="-3.14718">
        <ele>22.8</ele>
        <time>2021-08-14T15:32:54Z</time>
      </trkpt>
      <trkpt lat="47.61266" lon="-3.14714">
        <ele>23.2</ele>
        <time>2021-08-14T15:32:55Z</time>
      </trkpt>
      <trkpt lat="47.61264" lon="-3.14711">
        <ele>23.6</ele>
        <time>2021-08-14T15:32:56Z</time>
      </trkpt>
      <trkpt lat="47.61261" lon="-3.14707">
        <ele>23.8</ele>
        <time>2021-08-14T15:32:57Z</time>
      </trkpt>
      <trkpt lat="47.61258" lon="-3.14703">
        <ele>24</ele>
        <time>2021-08-14T15:32:58Z</time>
      </trkpt>
      <trkpt lat="47.61256" lon="-3.14699">
        <ele>24</ele>
        <time>2021-08-14T15:32:59Z</time>
      </trkpt>
      <trkpt lat="47.61253" lon="-3.14695">
        <ele>24</ele>
        <time>2021-08-14T15:33:00Z</time>
      </trkpt>
      <trkpt lat="47.61251" lon="-3.14691">
        <ele>24.2</ele>
        <time>2021-08-14T15:33:01Z</time>
      </trkpt>
      <trkpt lat="47.61249" lon="-3.14688">
        <ele>24.2</ele>
        <time>2021-08-14T15:33:02Z</time>
      </trkpt>
      <trkpt lat="47.61247" lon="-3.14685">
        <ele>24.2</ele>
        <time>2021-08-14T15:33:03Z</time>
      </trkpt>
      <trkpt lat="47.61246" lon="-3.14683">
        <ele>24.2</ele>
        <time>2021-08-14T15:33:04Z</time>
      </trkpt>
      <trkpt lat="47.61245" lon="-3.14682">
        <ele>24.2</ele>
        <time>2021-08-14T15:33:05Z</time>
      </trkpt>
      <trkpt lat="47.61244" lon="-3.1468">
        <ele>24.2</ele>
        <time>2021-08-14T15:33:06Z</time>
      </trkpt>
      <trkpt lat="47.61243" lon="-3.14679">
        <ele>24.2</ele>
        <time>2021-08-14T15:33:07Z</time>
      </trkpt>
      <trkpt lat="47.61242" lon="-3.14676">
        <ele>24</ele>
        <time>2021-08-14T15:33:08Z</time>
      </trkpt>
      <trkpt lat="47.61239" lon="-3.14673">
        <ele>23.8</ele>
        <time>2021-08-14T15:33:09Z</time>
      </trkpt>
      <trkpt lat="47.61238" lon="-3.14669">
        <ele>23.6</ele>
        <time>2021-08-14T15:33:10Z</time>
      </trkpt>
      <trkpt lat="47.61237" lon="-3.14664">
        <ele>23.4</ele>
        <time>2021-08-14T15:33:11Z</time>
      </trkpt>
      <trkpt lat="47.61236" lon="-3.14659">
        <ele>23.2</ele>
        <time>2021-08-14T15:33:12Z</time>
      </trkpt>
      <trkpt lat="47.61234" lon="-3.14654">
        <ele>23.2</ele>
        <time>2021-08-14T15:33:13Z</time>
      </trkpt>
      <trkpt lat="47.61233" lon="-3.14649">
        <ele>23</ele>
        <time>2021-08-14T15:33:14Z</time>
      </trkpt>
      <trkpt lat="47.61232" lon="-3.14644">
        <ele>22.6</ele>
        <time>2021-08-14T15:33:15Z</time>
      </trkpt>
      <trkpt lat="47.61231" lon="-3.1464">
        <ele>22.2</ele>
        <time>2021-08-14T15:33:16Z</time>
      </trkpt>
      <trkpt lat="47.6123" lon="-3.14636">
        <ele>21.6</ele>
        <time>2021-08-14T15:33:17Z</time>
      </trkpt>
      <trkpt lat="47.61228" lon="-3.14631">
        <ele>21.4</ele>
        <time>2021-08-14T15:33:18Z</time>
      </trkpt>
      <trkpt lat="47.61227" lon="-3.14626">
        <ele>21.2</ele>
        <time>2021-08-14T15:33:19Z</time>
      </trkpt>
      <trkpt lat="47.61225" lon="-3.14619">
        <ele>21.2</ele>
        <time>2021-08-14T15:33:20Z</time>
      </trkpt>
      <trkpt lat="47.61222" lon="-3.14613">
        <ele>21.2</ele>
        <time>2021-08-14T15:33:21Z</time>
      </trkpt>
      <trkpt lat="47.6122" lon="-3.14607">
        <ele>21</ele>
        <time>2021-08-14T15:33:22Z</time>
      </trkpt>
      <trkpt lat="47.61218" lon="-3.14601">
        <ele>21</ele>
        <time>2021-08-14T15:33:23Z</time>
      </trkpt>
      <trkpt lat="47.61216" lon="-3.14595">
        <ele>21</ele>
        <time>2021-08-14T15:33:24Z</time>
      </trkpt>
      <trkpt lat="47.61214" lon="-3.14589">
        <ele>21</ele>
        <time>2021-08-14T15:33:25Z</time>
      </trkpt>
      <trkpt lat="47.61211" lon="-3.14582">
        <ele>21</ele>
        <time>2021-08-14T15:33:26Z</time>
      </trkpt>
      <trkpt lat="47.61208" lon="-3.14575">
        <ele>21</ele>
        <time>2021-08-14T15:33:27Z</time>
      </trkpt>
      <trkpt lat="47.61204" lon="-3.14569">
        <ele>21</ele>
        <time>2021-08-14T15:33:28Z</time>
      </trkpt>
      <trkpt lat="47.61201" lon="-3.14562">
        <ele>21</ele>
        <time>2021-08-14T15:33:29Z</time>
      </trkpt>
      <trkpt lat="47.61197" lon="-3.14556">
        <ele>21</ele>
        <time>2021-08-14T15:33:30Z</time>
      </trkpt>
      <trkpt lat="47.61194" lon="-3.14549">
        <ele>21</ele>
        <time>2021-08-14T15:33:31Z</time>
      </trkpt>
      <trkpt lat="47.6119" lon="-3.14543">
        <ele>21</ele>
        <time>2021-08-14T15:33:32Z</time>
      </trkpt>
      <trkpt lat="47.61187" lon="-3.14537">
        <ele>21</ele>
        <time>2021-08-14T15:33:33Z</time>
      </trkpt>
      <trkpt lat="47.61183" lon="-3.14532">
        <ele>21</ele>
        <time>2021-08-14T15:33:34Z</time>
      </trkpt>
      <trkpt lat="47.6118" lon="-3.14526">
        <ele>21</ele>
        <time>2021-08-14T15:33:35Z</time>
      </trkpt>
      <trkpt lat="47.61176" lon="-3.1452">
        <ele>21</ele>
        <time>2021-08-14T15:33:36Z</time>
      </trkpt>
      <trkpt lat="47.61173" lon="-3.14514">
        <ele>21</ele>
        <time>2021-08-14T15:33:37Z</time>
      </trkpt>
      <trkpt lat="47.61169" lon="-3.14508">
        <ele>21</ele>
        <time>2021-08-14T15:33:38Z</time>
      </trkpt>
      <trkpt lat="47.61166" lon="-3.14502">
        <ele>21</ele>
        <time>2021-08-14T15:33:39Z</time>
      </trkpt>
      <trkpt lat="47.61162" lon="-3.14495">
        <ele>21</ele>
        <time>2021-08-14T15:33:40Z</time>
      </trkpt>
      <trkpt lat="47.61159" lon="-3.14489">
        <ele>21</ele>
        <time>2021-08-14T15:33:41Z</time>
      </trkpt>
      <trkpt lat="47.61156" lon="-3.14483">
        <ele>21</ele>
        <time>2021-08-14T15:33:42Z</time>
      </trkpt>
      <trkpt lat="47.61152" lon="-3.14477">
        <ele>21</ele>
        <time>2021-08-14T15:33:43Z</time>
      </trkpt>
      <trkpt lat="47.61149" lon="-3.1447">
        <ele>21</ele>
        <time>2021-08-14T15:33:44Z</time>
      </trkpt>
      <trkpt lat="47.61146" lon="-3.14464">
        <ele>21</ele>
        <time>2021-08-14T15:33:45Z</time>
      </trkpt>
      <trkpt lat="47.61143" lon="-3.14457">
        <ele>21.2</ele>
        <time>2021-08-14T15:33:46Z</time>
      </trkpt>
      <trkpt lat="47.6114" lon="-3.1445">
        <ele>21.2</ele>
        <time>2021-08-14T15:33:47Z</time>
      </trkpt>
      <trkpt lat="47.61137" lon="-3.14443">
        <ele>21.2</ele>
        <time>2021-08-14T15:33:48Z</time>
      </trkpt>
      <trkpt lat="47.61134" lon="-3.14436">
        <ele>21.2</ele>
        <time>2021-08-14T15:33:49Z</time>
      </trkpt>
      <trkpt lat="47.61132" lon="-3.14429">
        <ele>21.2</ele>
        <time>2021-08-14T15:33:50Z</time>
      </trkpt>
      <trkpt lat="47.61129" lon="-3.14422">
        <ele>21.2</ele>
        <time>2021-08-14T15:33:51Z</time>
      </trkpt>
      <trkpt lat="47.61126" lon="-3.14415">
        <ele>21.2</ele>
        <time>2021-08-14T15:33:52Z</time>
      </trkpt>
      <trkpt lat="47.61123" lon="-3.14407">
        <ele>21.2</ele>
        <time>2021-08-14T15:33:53Z</time>
      </trkpt>
      <trkpt lat="47.6112" lon="-3.144">
        <ele>21.2</ele>
        <time>2021-08-14T15:33:54Z</time>
      </trkpt>
      <trkpt lat="47.61117" lon="-3.14393">
        <ele>21.2</ele>
        <time>2021-08-14T15:33:55Z</time>
      </trkpt>
      <trkpt lat="47.61114" lon="-3.14386">
        <ele>21.2</ele>
        <time>2021-08-14T15:33:56Z</time>
      </trkpt>
      <trkpt lat="47.61111" lon="-3.14379">
        <ele>21.2</ele>
        <time>2021-08-14T15:33:57Z</time>
      </trkpt>
      <trkpt lat="47.61108" lon="-3.14371">
        <ele>21.2</ele>
        <time>2021-08-14T15:33:58Z</time>
      </trkpt>
      <trkpt lat="47.61105" lon="-3.14364">
        <ele>21.4</ele>
        <time>2021-08-14T15:33:59Z</time>
      </trkpt>
      <trkpt lat="47.61103" lon="-3.14357">
        <ele>21.4</ele>
        <time>2021-08-14T15:34:00Z</time>
      </trkpt>
      <trkpt lat="47.611" lon="-3.1435">
        <ele>21.4</ele>
        <time>2021-08-14T15:34:01Z</time>
      </trkpt>
      <trkpt lat="47.61097" lon="-3.14343">
        <ele>21.4</ele>
        <time>2021-08-14T15:34:02Z</time>
      </trkpt>
      <trkpt lat="47.61095" lon="-3.14337">
        <ele>21.4</ele>
        <time>2021-08-14T15:34:03Z</time>
      </trkpt>
      <trkpt lat="47.61092" lon="-3.1433">
        <ele>21.4</ele>
        <time>2021-08-14T15:34:04Z</time>
      </trkpt>
      <trkpt lat="47.6109" lon="-3.14324">
        <ele>21.4</ele>
        <time>2021-08-14T15:34:05Z</time>
      </trkpt>
      <trkpt lat="47.61087" lon="-3.14317">
        <ele>21.4</ele>
        <time>2021-08-14T15:34:06Z</time>
      </trkpt>
      <trkpt lat="47.61085" lon="-3.14311">
        <ele>21.4</ele>
        <time>2021-08-14T15:34:07Z</time>
      </trkpt>
      <trkpt lat="47.61082" lon="-3.14305">
        <ele>21.4</ele>
        <time>2021-08-14T15:34:08Z</time>
      </trkpt>
      <trkpt lat="47.6108" lon="-3.14299">
        <ele>21.4</ele>
        <time>2021-08-14T15:34:09Z</time>
      </trkpt>
      <trkpt lat="47.61078" lon="-3.14293">
        <ele>21.4</ele>
        <time>2021-08-14T15:34:10Z</time>
      </trkpt>
      <trkpt lat="47.61075" lon="-3.14287">
        <ele>21.4</ele>
        <time>2021-08-14T15:34:11Z</time>
      </trkpt>
      <trkpt lat="47.61073" lon="-3.1428">
        <ele>21.4</ele>
        <time>2021-08-14T15:34:12Z</time>
      </trkpt>
      <trkpt lat="47.61071" lon="-3.14274">
        <ele>21.6</ele>
        <time>2021-08-14T15:34:13Z</time>
      </trkpt>
      <trkpt lat="47.61068" lon="-3.14268">
        <ele>21.6</ele>
        <time>2021-08-14T15:34:14Z</time>
      </trkpt>
      <trkpt lat="47.61066" lon="-3.14261">
        <ele>21.6</ele>
        <time>2021-08-14T15:34:15Z</time>
      </trkpt>
      <trkpt lat="47.61063" lon="-3.14255">
        <ele>21.8</ele>
        <time>2021-08-14T15:34:16Z</time>
      </trkpt>
      <trkpt lat="47.6106" lon="-3.14249">
        <ele>21.8</ele>
        <time>2021-08-14T15:34:17Z</time>
      </trkpt>
      <trkpt lat="47.61058" lon="-3.14243">
        <ele>21.8</ele>
        <time>2021-08-14T15:34:18Z</time>
      </trkpt>
      <trkpt lat="47.61055" lon="-3.14237">
        <ele>21.8</ele>
        <time>2021-08-14T15:34:19Z</time>
      </trkpt>
      <trkpt lat="47.61053" lon="-3.14231">
        <ele>22</ele>
        <time>2021-08-14T15:34:20Z</time>
      </trkpt>
      <trkpt lat="47.6105" lon="-3.14225">
        <ele>22</ele>
        <time>2021-08-14T15:34:21Z</time>
      </trkpt>
      <trkpt lat="47.61047" lon="-3.14219">
        <ele>22</ele>
        <time>2021-08-14T15:34:22Z</time>
      </trkpt>
      <trkpt lat="47.61045" lon="-3.14214">
        <ele>22</ele>
        <time>2021-08-14T15:34:23Z</time>
      </trkpt>
      <trkpt lat="47.61042" lon="-3.14208">
        <ele>22</ele>
        <time>2021-08-14T15:34:24Z</time>
      </trkpt>
      <trkpt lat="47.61039" lon="-3.14202">
        <ele>22</ele>
        <time>2021-08-14T15:34:25Z</time>
      </trkpt>
      <trkpt lat="47.61037" lon="-3.14196">
        <ele>22.2</ele>
        <time>2021-08-14T15:34:26Z</time>
      </trkpt>
      <trkpt lat="47.61034" lon="-3.14191">
        <ele>22.4</ele>
        <time>2021-08-14T15:34:27Z</time>
      </trkpt>
      <trkpt lat="47.61031" lon="-3.14185">
        <ele>22.4</ele>
        <time>2021-08-14T15:34:28Z</time>
      </trkpt>
      <trkpt lat="47.61028" lon="-3.14179">
        <ele>22.4</ele>
        <time>2021-08-14T15:34:29Z</time>
      </trkpt>
      <trkpt lat="47.61025" lon="-3.14174">
        <ele>22.4</ele>
        <time>2021-08-14T15:34:30Z</time>
      </trkpt>
      <trkpt lat="47.61023" lon="-3.14168">
        <ele>22.4</ele>
        <time>2021-08-14T15:34:31Z</time>
      </trkpt>
      <trkpt lat="47.6102" lon="-3.14162">
        <ele>22.4</ele>
        <time>2021-08-14T15:34:32Z</time>
      </trkpt>
      <trkpt lat="47.61018" lon="-3.14156">
        <ele>22.4</ele>
        <time>2021-08-14T15:34:33Z</time>
      </trkpt>
      <trkpt lat="47.61016" lon="-3.14151">
        <ele>22.6</ele>
        <time>2021-08-14T15:34:34Z</time>
      </trkpt>
      <trkpt lat="47.61014" lon="-3.14145">
        <ele>22.6</ele>
        <time>2021-08-14T15:34:35Z</time>
      </trkpt>
      <trkpt lat="47.61012" lon="-3.14139">
        <ele>22.6</ele>
        <time>2021-08-14T15:34:36Z</time>
      </trkpt>
      <trkpt lat="47.6101" lon="-3.14133">
        <ele>22.6</ele>
        <time>2021-08-14T15:34:37Z</time>
      </trkpt>
      <trkpt lat="47.61008" lon="-3.14127">
        <ele>22.6</ele>
        <time>2021-08-14T15:34:38Z</time>
      </trkpt>
      <trkpt lat="47.61006" lon="-3.14121">
        <ele>22.8</ele>
        <time>2021-08-14T15:34:39Z</time>
      </trkpt>
      <trkpt lat="47.61004" lon="-3.14114">
        <ele>22.8</ele>
        <time>2021-08-14T15:34:40Z</time>
      </trkpt>
      <trkpt lat="47.61002" lon="-3.14108">
        <ele>22.8</ele>
        <time>2021-08-14T15:34:41Z</time>
      </trkpt>
      <trkpt lat="47.61" lon="-3.14102">
        <ele>22.8</ele>
        <time>2021-08-14T15:34:42Z</time>
      </trkpt>
      <trkpt lat="47.60997" lon="-3.14097">
        <ele>22.8</ele>
        <time>2021-08-14T15:34:43Z</time>
      </trkpt>
      <trkpt lat="47.60994" lon="-3.14091">
        <ele>22.8</ele>
        <time>2021-08-14T15:34:44Z</time>
      </trkpt>
      <trkpt lat="47.60992" lon="-3.14086">
        <ele>22.8</ele>
        <time>2021-08-14T15:34:45Z</time>
      </trkpt>
      <trkpt lat="47.60989" lon="-3.1408">
        <ele>22.8</ele>
        <time>2021-08-14T15:34:46Z</time>
      </trkpt>
      <trkpt lat="47.60986" lon="-3.14074">
        <ele>22.8</ele>
        <time>2021-08-14T15:34:47Z</time>
      </trkpt>
      <trkpt lat="47.60983" lon="-3.14068">
        <ele>22.8</ele>
        <time>2021-08-14T15:34:48Z</time>
      </trkpt>
      <trkpt lat="47.60981" lon="-3.14062">
        <ele>22.8</ele>
        <time>2021-08-14T15:34:49Z</time>
      </trkpt>
      <trkpt lat="47.60978" lon="-3.14056">
        <ele>22.8</ele>
        <time>2021-08-14T15:34:50Z</time>
      </trkpt>
      <trkpt lat="47.60975" lon="-3.14051">
        <ele>22.8</ele>
        <time>2021-08-14T15:34:51Z</time>
      </trkpt>
      <trkpt lat="47.60973" lon="-3.14045">
        <ele>22.8</ele>
        <time>2021-08-14T15:34:52Z</time>
      </trkpt>
      <trkpt lat="47.60971" lon="-3.14039">
        <ele>22.8</ele>
        <time>2021-08-14T15:34:53Z</time>
      </trkpt>
      <trkpt lat="47.60968" lon="-3.14033">
        <ele>22.8</ele>
        <time>2021-08-14T15:34:54Z</time>
      </trkpt>
      <trkpt lat="47.60965" lon="-3.14028">
        <ele>22.8</ele>
        <time>2021-08-14T15:34:55Z</time>
      </trkpt>
      <trkpt lat="47.60962" lon="-3.14022">
        <ele>22.8</ele>
        <time>2021-08-14T15:34:56Z</time>
      </trkpt>
      <trkpt lat="47.60959" lon="-3.14015">
        <ele>23</ele>
        <time>2021-08-14T15:34:57Z</time>
      </trkpt>
      <trkpt lat="47.60956" lon="-3.14009">
        <ele>23</ele>
        <time>2021-08-14T15:34:58Z</time>
      </trkpt>
      <trkpt lat="47.60954" lon="-3.14003">
        <ele>23</ele>
        <time>2021-08-14T15:34:59Z</time>
      </trkpt>
      <trkpt lat="47.60951" lon="-3.13998">
        <ele>23</ele>
        <time>2021-08-14T15:35:00Z</time>
      </trkpt>
      <trkpt lat="47.60948" lon="-3.13992">
        <ele>23.2</ele>
        <time>2021-08-14T15:35:01Z</time>
      </trkpt>
      <trkpt lat="47.60946" lon="-3.13986">
        <ele>23.2</ele>
        <time>2021-08-14T15:35:02Z</time>
      </trkpt>
      <trkpt lat="47.60943" lon="-3.13981">
        <ele>23.2</ele>
        <time>2021-08-14T15:35:03Z</time>
      </trkpt>
      <trkpt lat="47.6094" lon="-3.13976">
        <ele>23.2</ele>
        <time>2021-08-14T15:35:04Z</time>
      </trkpt>
      <trkpt lat="47.60938" lon="-3.13971">
        <ele>23.2</ele>
        <time>2021-08-14T15:35:05Z</time>
      </trkpt>
      <trkpt lat="47.60935" lon="-3.13966">
        <ele>23.2</ele>
        <time>2021-08-14T15:35:06Z</time>
      </trkpt>
      <trkpt lat="47.60933" lon="-3.13961">
        <ele>23.2</ele>
        <time>2021-08-14T15:35:07Z</time>
      </trkpt>
      <trkpt lat="47.6093" lon="-3.13956">
        <ele>23.4</ele>
        <time>2021-08-14T15:35:08Z</time>
      </trkpt>
      <trkpt lat="47.60928" lon="-3.13952">
        <ele>23.4</ele>
        <time>2021-08-14T15:35:09Z</time>
      </trkpt>
      <trkpt lat="47.60926" lon="-3.13947">
        <ele>23.4</ele>
        <time>2021-08-14T15:35:10Z</time>
      </trkpt>
      <trkpt lat="47.60923" lon="-3.13942">
        <ele>23.4</ele>
        <time>2021-08-14T15:35:11Z</time>
      </trkpt>
      <trkpt lat="47.60922" lon="-3.13938">
        <ele>23.4</ele>
        <time>2021-08-14T15:35:12Z</time>
      </trkpt>
      <trkpt lat="47.6092" lon="-3.13933">
        <ele>23.4</ele>
        <time>2021-08-14T15:35:13Z</time>
      </trkpt>
      <trkpt lat="47.60918" lon="-3.13928">
        <ele>23.4</ele>
        <time>2021-08-14T15:35:14Z</time>
      </trkpt>
      <trkpt lat="47.60917" lon="-3.13923">
        <ele>23.4</ele>
        <time>2021-08-14T15:35:15Z</time>
      </trkpt>
      <trkpt lat="47.60915" lon="-3.13918">
        <ele>23.4</ele>
        <time>2021-08-14T15:35:16Z</time>
      </trkpt>
      <trkpt lat="47.60913" lon="-3.13913">
        <ele>23.4</ele>
        <time>2021-08-14T15:35:17Z</time>
      </trkpt>
      <trkpt lat="47.60911" lon="-3.13908">
        <ele>23.6</ele>
        <time>2021-08-14T15:35:18Z</time>
      </trkpt>
      <trkpt lat="47.60908" lon="-3.13904">
        <ele>23.4</ele>
        <time>2021-08-14T15:35:19Z</time>
      </trkpt>
      <trkpt lat="47.60906" lon="-3.13899">
        <ele>23.6</ele>
        <time>2021-08-14T15:35:20Z</time>
      </trkpt>
      <trkpt lat="47.60903" lon="-3.13893">
        <ele>23.6</ele>
        <time>2021-08-14T15:35:21Z</time>
      </trkpt>
      <trkpt lat="47.60901" lon="-3.13888">
        <ele>23.4</ele>
        <time>2021-08-14T15:35:22Z</time>
      </trkpt>
      <trkpt lat="47.60898" lon="-3.13882">
        <ele>23.4</ele>
        <time>2021-08-14T15:35:23Z</time>
      </trkpt>
      <trkpt lat="47.60896" lon="-3.13876">
        <ele>23.4</ele>
        <time>2021-08-14T15:35:24Z</time>
      </trkpt>
      <trkpt lat="47.60893" lon="-3.1387">
        <ele>23.4</ele>
        <time>2021-08-14T15:35:25Z</time>
      </trkpt>
      <trkpt lat="47.60891" lon="-3.13864">
        <ele>23.6</ele>
        <time>2021-08-14T15:35:26Z</time>
      </trkpt>
      <trkpt lat="47.60888" lon="-3.13858">
        <ele>23.6</ele>
        <time>2021-08-14T15:35:27Z</time>
      </trkpt>
      <trkpt lat="47.60886" lon="-3.13852">
        <ele>23.4</ele>
        <time>2021-08-14T15:35:28Z</time>
      </trkpt>
      <trkpt lat="47.60883" lon="-3.13846">
        <ele>23.4</ele>
        <time>2021-08-14T15:35:29Z</time>
      </trkpt>
      <trkpt lat="47.60881" lon="-3.1384">
        <ele>23.6</ele>
        <time>2021-08-14T15:35:30Z</time>
      </trkpt>
      <trkpt lat="47.60878" lon="-3.13833">
        <ele>23.6</ele>
        <time>2021-08-14T15:35:31Z</time>
      </trkpt>
      <trkpt lat="47.60875" lon="-3.13827">
        <ele>23.6</ele>
        <time>2021-08-14T15:35:32Z</time>
      </trkpt>
      <trkpt lat="47.60873" lon="-3.1382">
        <ele>23.6</ele>
        <time>2021-08-14T15:35:33Z</time>
      </trkpt>
      <trkpt lat="47.6087" lon="-3.13814">
        <ele>23.6</ele>
        <time>2021-08-14T15:35:34Z</time>
      </trkpt>
      <trkpt lat="47.60867" lon="-3.13808">
        <ele>23.6</ele>
        <time>2021-08-14T15:35:35Z</time>
      </trkpt>
      <trkpt lat="47.60864" lon="-3.13802">
        <ele>23.6</ele>
        <time>2021-08-14T15:35:36Z</time>
      </trkpt>
      <trkpt lat="47.60862" lon="-3.13796">
        <ele>23.6</ele>
        <time>2021-08-14T15:35:37Z</time>
      </trkpt>
      <trkpt lat="47.6086" lon="-3.1379">
        <ele>23.6</ele>
        <time>2021-08-14T15:35:38Z</time>
      </trkpt>
      <trkpt lat="47.60858" lon="-3.13784">
        <ele>23.6</ele>
        <time>2021-08-14T15:35:39Z</time>
      </trkpt>
      <trkpt lat="47.60856" lon="-3.13777">
        <ele>23.6</ele>
        <time>2021-08-14T15:35:40Z</time>
      </trkpt>
      <trkpt lat="47.60855" lon="-3.13771">
        <ele>23.6</ele>
        <time>2021-08-14T15:35:41Z</time>
      </trkpt>
      <trkpt lat="47.60853" lon="-3.13764">
        <ele>23.6</ele>
        <time>2021-08-14T15:35:42Z</time>
      </trkpt>
      <trkpt lat="47.60852" lon="-3.13757">
        <ele>23.6</ele>
        <time>2021-08-14T15:35:43Z</time>
      </trkpt>
      <trkpt lat="47.60851" lon="-3.1375">
        <ele>23.6</ele>
        <time>2021-08-14T15:35:44Z</time>
      </trkpt>
      <trkpt lat="47.6085" lon="-3.13744">
        <ele>23.4</ele>
        <time>2021-08-14T15:35:45Z</time>
      </trkpt>
      <trkpt lat="47.6085" lon="-3.13737">
        <ele>23.6</ele>
        <time>2021-08-14T15:35:46Z</time>
      </trkpt>
      <trkpt lat="47.60849" lon="-3.13731">
        <ele>23.6</ele>
        <time>2021-08-14T15:35:47Z</time>
      </trkpt>
      <trkpt lat="47.60849" lon="-3.13726">
        <ele>23.8</ele>
        <time>2021-08-14T15:35:48Z</time>
      </trkpt>
      <trkpt lat="47.60848" lon="-3.13721">
        <ele>23.8</ele>
        <time>2021-08-14T15:35:49Z</time>
      </trkpt>
      <trkpt lat="47.60848" lon="-3.13716">
        <ele>24</ele>
        <time>2021-08-14T15:35:50Z</time>
      </trkpt>
      <trkpt lat="47.60846" lon="-3.13712">
        <ele>24</ele>
        <time>2021-08-14T15:35:51Z</time>
      </trkpt>
      <trkpt lat="47.60844" lon="-3.13709">
        <ele>24</ele>
        <time>2021-08-14T15:35:52Z</time>
      </trkpt>
      <trkpt lat="47.60841" lon="-3.13708">
        <ele>24</ele>
        <time>2021-08-14T15:35:53Z</time>
      </trkpt>
      <trkpt lat="47.60837" lon="-3.13708">
        <ele>24.2</ele>
        <time>2021-08-14T15:35:54Z</time>
      </trkpt>
      <trkpt lat="47.60833" lon="-3.13708">
        <ele>24</ele>
        <time>2021-08-14T15:35:55Z</time>
      </trkpt>
      <trkpt lat="47.60829" lon="-3.13708">
        <ele>24.2</ele>
        <time>2021-08-14T15:35:56Z</time>
      </trkpt>
      <trkpt lat="47.60825" lon="-3.13708">
        <ele>24.6</ele>
        <time>2021-08-14T15:35:57Z</time>
      </trkpt>
      <trkpt lat="47.60821" lon="-3.13707">
        <ele>24.8</ele>
        <time>2021-08-14T15:35:58Z</time>
      </trkpt>
      <trkpt lat="47.60816" lon="-3.13706">
        <ele>24.8</ele>
        <time>2021-08-14T15:35:59Z</time>
      </trkpt>
      <trkpt lat="47.60811" lon="-3.13705">
        <ele>25</ele>
        <time>2021-08-14T15:36:00Z</time>
      </trkpt>
      <trkpt lat="47.60806" lon="-3.13704">
        <ele>25.2</ele>
        <time>2021-08-14T15:36:01Z</time>
      </trkpt>
      <trkpt lat="47.60801" lon="-3.13703">
        <ele>25.2</ele>
        <time>2021-08-14T15:36:02Z</time>
      </trkpt>
      <trkpt lat="47.60796" lon="-3.13701">
        <ele>25.2</ele>
        <time>2021-08-14T15:36:03Z</time>
      </trkpt>
      <trkpt lat="47.60793" lon="-3.13698">
        <ele>25.2</ele>
        <time>2021-08-14T15:36:04Z</time>
      </trkpt>
      <trkpt lat="47.6079" lon="-3.13695">
        <ele>25.4</ele>
        <time>2021-08-14T15:36:05Z</time>
      </trkpt>
      <trkpt lat="47.60787" lon="-3.13694">
        <ele>25.4</ele>
        <time>2021-08-14T15:36:06Z</time>
      </trkpt>
      <trkpt lat="47.60783" lon="-3.13695">
        <ele>25.4</ele>
        <time>2021-08-14T15:36:07Z</time>
      </trkpt>
      <trkpt lat="47.6078" lon="-3.13695">
        <ele>25.4</ele>
        <time>2021-08-14T15:36:08Z</time>
      </trkpt>
      <trkpt lat="47.60776" lon="-3.13696">
        <ele>25.4</ele>
        <time>2021-08-14T15:36:09Z</time>
      </trkpt>
      <trkpt lat="47.60772" lon="-3.13696">
        <ele>25.4</ele>
        <time>2021-08-14T15:36:10Z</time>
      </trkpt>
      <trkpt lat="47.60767" lon="-3.13696">
        <ele>25.4</ele>
        <time>2021-08-14T15:36:11Z</time>
      </trkpt>
      <trkpt lat="47.60763" lon="-3.13696">
        <ele>25.4</ele>
        <time>2021-08-14T15:36:12Z</time>
      </trkpt>
      <trkpt lat="47.60758" lon="-3.13695">
        <ele>25.4</ele>
        <time>2021-08-14T15:36:13Z</time>
      </trkpt>
      <trkpt lat="47.60753" lon="-3.13694">
        <ele>25.4</ele>
        <time>2021-08-14T15:36:14Z</time>
      </trkpt>
      <trkpt lat="47.60749" lon="-3.13691">
        <ele>25.4</ele>
        <time>2021-08-14T15:36:15Z</time>
      </trkpt>
      <trkpt lat="47.60746" lon="-3.13686">
        <ele>25.4</ele>
        <time>2021-08-14T15:36:16Z</time>
      </trkpt>
      <trkpt lat="47.60746" lon="-3.13681">
        <ele>25.2</ele>
        <time>2021-08-14T15:36:17Z</time>
      </trkpt>
      <trkpt lat="47.60746" lon="-3.13675">
        <ele>25.2</ele>
        <time>2021-08-14T15:36:18Z</time>
      </trkpt>
      <trkpt lat="47.60747" lon="-3.13669">
        <ele>25.2</ele>
        <time>2021-08-14T15:36:19Z</time>
      </trkpt>
      <trkpt lat="47.60747" lon="-3.13664">
        <ele>25.2</ele>
        <time>2021-08-14T15:36:20Z</time>
      </trkpt>
      <trkpt lat="47.60748" lon="-3.13659">
        <ele>25.2</ele>
        <time>2021-08-14T15:36:21Z</time>
      </trkpt>
      <trkpt lat="47.60747" lon="-3.13655">
        <ele>25.2</ele>
        <time>2021-08-14T15:36:22Z</time>
      </trkpt>
      <trkpt lat="47.60745" lon="-3.13651">
        <ele>25.2</ele>
        <time>2021-08-14T15:36:23Z</time>
      </trkpt>
      <trkpt lat="47.60743" lon="-3.13648">
        <ele>25.2</ele>
        <time>2021-08-14T15:36:24Z</time>
      </trkpt>
      <trkpt lat="47.6074" lon="-3.13646">
        <ele>25.2</ele>
        <time>2021-08-14T15:36:25Z</time>
      </trkpt>
      <trkpt lat="47.60737" lon="-3.13643">
        <ele>25.6</ele>
        <time>2021-08-14T15:36:26Z</time>
      </trkpt>
      <trkpt lat="47.60735" lon="-3.13641">
        <ele>25.6</ele>
        <time>2021-08-14T15:36:27Z</time>
      </trkpt>
      <trkpt lat="47.60732" lon="-3.1364">
        <ele>25.6</ele>
        <time>2021-08-14T15:36:28Z</time>
      </trkpt>
      <trkpt lat="47.60729" lon="-3.13638">
        <ele>26</ele>
        <time>2021-08-14T15:36:29Z</time>
      </trkpt>
      <trkpt lat="47.60727" lon="-3.13636">
        <ele>26</ele>
        <time>2021-08-14T15:36:30Z</time>
      </trkpt>
      <trkpt lat="47.60724" lon="-3.13633">
        <ele>26.2</ele>
        <time>2021-08-14T15:36:31Z</time>
      </trkpt>
      <trkpt lat="47.60721" lon="-3.1363">
        <ele>26.6</ele>
        <time>2021-08-14T15:36:32Z</time>
      </trkpt>
      <trkpt lat="47.6072" lon="-3.13625">
        <ele>26.4</ele>
        <time>2021-08-14T15:36:33Z</time>
      </trkpt>
      <trkpt lat="47.60719" lon="-3.1362">
        <ele>26.8</ele>
        <time>2021-08-14T15:36:34Z</time>
      </trkpt>
      <trkpt lat="47.60719" lon="-3.13615">
        <ele>26.8</ele>
        <time>2021-08-14T15:36:35Z</time>
      </trkpt>
      <trkpt lat="47.60719" lon="-3.1361">
        <ele>27</ele>
        <time>2021-08-14T15:36:36Z</time>
      </trkpt>
      <trkpt lat="47.6072" lon="-3.13606">
        <ele>27</ele>
        <time>2021-08-14T15:36:37Z</time>
      </trkpt>
      <trkpt lat="47.60721" lon="-3.13602">
        <ele>27.2</ele>
        <time>2021-08-14T15:36:38Z</time>
      </trkpt>
      <trkpt lat="47.60722" lon="-3.13598">
        <ele>27.2</ele>
        <time>2021-08-14T15:36:39Z</time>
      </trkpt>
      <trkpt lat="47.60723" lon="-3.13593">
        <ele>27.2</ele>
        <time>2021-08-14T15:36:40Z</time>
      </trkpt>
      <trkpt lat="47.60724" lon="-3.13589">
        <ele>27.2</ele>
        <time>2021-08-14T15:36:41Z</time>
      </trkpt>
      <trkpt lat="47.60724" lon="-3.13585">
        <ele>27.2</ele>
        <time>2021-08-14T15:36:42Z</time>
      </trkpt>
      <trkpt lat="47.60725" lon="-3.13579">
        <ele>27.4</ele>
        <time>2021-08-14T15:36:43Z</time>
      </trkpt>
      <trkpt lat="47.60726" lon="-3.13574">
        <ele>27.4</ele>
        <time>2021-08-14T15:36:44Z</time>
      </trkpt>
      <trkpt lat="47.60727" lon="-3.13569">
        <ele>27.6</ele>
        <time>2021-08-14T15:36:45Z</time>
      </trkpt>
      <trkpt lat="47.60729" lon="-3.13565">
        <ele>27.8</ele>
        <time>2021-08-14T15:36:46Z</time>
      </trkpt>
      <trkpt lat="47.6073" lon="-3.1356">
        <ele>27.8</ele>
        <time>2021-08-14T15:36:47Z</time>
      </trkpt>
      <trkpt lat="47.60731" lon="-3.13555">
        <ele>27.8</ele>
        <time>2021-08-14T15:36:48Z</time>
      </trkpt>
      <trkpt lat="47.60732" lon="-3.1355">
        <ele>28</ele>
        <time>2021-08-14T15:36:49Z</time>
      </trkpt>
      <trkpt lat="47.60732" lon="-3.13545">
        <ele>28</ele>
        <time>2021-08-14T15:36:50Z</time>
      </trkpt>
      <trkpt lat="47.60733" lon="-3.1354">
        <ele>28.2</ele>
        <time>2021-08-14T15:36:51Z</time>
      </trkpt>
      <trkpt lat="47.60734" lon="-3.13535">
        <ele>28.2</ele>
        <time>2021-08-14T15:36:52Z</time>
      </trkpt>
      <trkpt lat="47.60734" lon="-3.13529">
        <ele>28.2</ele>
        <time>2021-08-14T15:36:53Z</time>
      </trkpt>
      <trkpt lat="47.60735" lon="-3.13523">
        <ele>28.4</ele>
        <time>2021-08-14T15:36:54Z</time>
      </trkpt>
      <trkpt lat="47.60735" lon="-3.13517">
        <ele>28.6</ele>
        <time>2021-08-14T15:36:55Z</time>
      </trkpt>
      <trkpt lat="47.60735" lon="-3.13511">
        <ele>28.8</ele>
        <time>2021-08-14T15:36:56Z</time>
      </trkpt>
      <trkpt lat="47.60735" lon="-3.13505">
        <ele>29</ele>
        <time>2021-08-14T15:36:57Z</time>
      </trkpt>
      <trkpt lat="47.60736" lon="-3.13499">
        <ele>29.2</ele>
        <time>2021-08-14T15:36:58Z</time>
      </trkpt>
      <trkpt lat="47.60736" lon="-3.13494">
        <ele>29.4</ele>
        <time>2021-08-14T15:36:59Z</time>
      </trkpt>
      <trkpt lat="47.60736" lon="-3.13488">
        <ele>29.6</ele>
        <time>2021-08-14T15:37:00Z</time>
      </trkpt>
      <trkpt lat="47.60736" lon="-3.13482">
        <ele>29.6</ele>
        <time>2021-08-14T15:37:01Z</time>
      </trkpt>
      <trkpt lat="47.60736" lon="-3.13477">
        <ele>29.8</ele>
        <time>2021-08-14T15:37:02Z</time>
      </trkpt>
      <trkpt lat="47.60737" lon="-3.13471">
        <ele>29.8</ele>
        <time>2021-08-14T15:37:03Z</time>
      </trkpt>
      <trkpt lat="47.60737" lon="-3.13465">
        <ele>30</ele>
        <time>2021-08-14T15:37:04Z</time>
      </trkpt>
      <trkpt lat="47.60737" lon="-3.13459">
        <ele>30</ele>
        <time>2021-08-14T15:37:05Z</time>
      </trkpt>
      <trkpt lat="47.60737" lon="-3.13453">
        <ele>30.2</ele>
        <time>2021-08-14T15:37:06Z</time>
      </trkpt>
      <trkpt lat="47.60737" lon="-3.13447">
        <ele>30.4</ele>
        <time>2021-08-14T15:37:07Z</time>
      </trkpt>
      <trkpt lat="47.60736" lon="-3.13441">
        <ele>30.6</ele>
        <time>2021-08-14T15:37:08Z</time>
      </trkpt>
      <trkpt lat="47.60735" lon="-3.13435">
        <ele>30.8</ele>
        <time>2021-08-14T15:37:09Z</time>
      </trkpt>
      <trkpt lat="47.60734" lon="-3.13429">
        <ele>30.8</ele>
        <time>2021-08-14T15:37:10Z</time>
      </trkpt>
      <trkpt lat="47.60732" lon="-3.13423">
        <ele>30.8</ele>
        <time>2021-08-14T15:37:11Z</time>
      </trkpt>
      <trkpt lat="47.6073" lon="-3.13416">
        <ele>31</ele>
        <time>2021-08-14T15:37:12Z</time>
      </trkpt>
      <trkpt lat="47.60728" lon="-3.1341">
        <ele>31</ele>
        <time>2021-08-14T15:37:13Z</time>
      </trkpt>
      <trkpt lat="47.60725" lon="-3.13403">
        <ele>31</ele>
        <time>2021-08-14T15:37:14Z</time>
      </trkpt>
      <trkpt lat="47.60723" lon="-3.13397">
        <ele>31</ele>
        <time>2021-08-14T15:37:15Z</time>
      </trkpt>
      <trkpt lat="47.6072" lon="-3.1339">
        <ele>31</ele>
        <time>2021-08-14T15:37:16Z</time>
      </trkpt>
      <trkpt lat="47.60717" lon="-3.13384">
        <ele>31</ele>
        <time>2021-08-14T15:37:17Z</time>
      </trkpt>
      <trkpt lat="47.60713" lon="-3.13379">
        <ele>31</ele>
        <time>2021-08-14T15:37:18Z</time>
      </trkpt>
      <trkpt lat="47.60709" lon="-3.13373">
        <ele>31</ele>
        <time>2021-08-14T15:37:19Z</time>
      </trkpt>
      <trkpt lat="47.60705" lon="-3.13369">
        <ele>31</ele>
        <time>2021-08-14T15:37:20Z</time>
      </trkpt>
      <trkpt lat="47.607" lon="-3.13364">
        <ele>30.8</ele>
        <time>2021-08-14T15:37:21Z</time>
      </trkpt>
      <trkpt lat="47.60696" lon="-3.1336">
        <ele>30.6</ele>
        <time>2021-08-14T15:37:22Z</time>
      </trkpt>
      <trkpt lat="47.60691" lon="-3.13355">
        <ele>30.6</ele>
        <time>2021-08-14T15:37:23Z</time>
      </trkpt>
      <trkpt lat="47.60686" lon="-3.13351">
        <ele>30.4</ele>
        <time>2021-08-14T15:37:24Z</time>
      </trkpt>
      <trkpt lat="47.60682" lon="-3.13346">
        <ele>30.4</ele>
        <time>2021-08-14T15:37:25Z</time>
      </trkpt>
      <trkpt lat="47.60679" lon="-3.1334">
        <ele>30.2</ele>
        <time>2021-08-14T15:37:26Z</time>
      </trkpt>
      <trkpt lat="47.60676" lon="-3.13333">
        <ele>30</ele>
        <time>2021-08-14T15:37:27Z</time>
      </trkpt>
      <trkpt lat="47.60673" lon="-3.13326">
        <ele>29.8</ele>
        <time>2021-08-14T15:37:28Z</time>
      </trkpt>
      <trkpt lat="47.6067" lon="-3.13319">
        <ele>29.6</ele>
        <time>2021-08-14T15:37:29Z</time>
      </trkpt>
      <trkpt lat="47.60668" lon="-3.13312">
        <ele>29.6</ele>
        <time>2021-08-14T15:37:30Z</time>
      </trkpt>
      <trkpt lat="47.60665" lon="-3.13305">
        <ele>29.6</ele>
        <time>2021-08-14T15:37:31Z</time>
      </trkpt>
      <trkpt lat="47.60663" lon="-3.13298">
        <ele>29.4</ele>
        <time>2021-08-14T15:37:32Z</time>
      </trkpt>
      <trkpt lat="47.60661" lon="-3.13291">
        <ele>29.2</ele>
        <time>2021-08-14T15:37:33Z</time>
      </trkpt>
      <trkpt lat="47.60659" lon="-3.13284">
        <ele>29</ele>
        <time>2021-08-14T15:37:34Z</time>
      </trkpt>
      <trkpt lat="47.60656" lon="-3.13278">
        <ele>29</ele>
        <time>2021-08-14T15:37:35Z</time>
      </trkpt>
      <trkpt lat="47.60654" lon="-3.13271">
        <ele>28.8</ele>
        <time>2021-08-14T15:37:36Z</time>
      </trkpt>
      <trkpt lat="47.60652" lon="-3.13265">
        <ele>28.8</ele>
        <time>2021-08-14T15:37:37Z</time>
      </trkpt>
      <trkpt lat="47.6065" lon="-3.13259">
        <ele>28.6</ele>
        <time>2021-08-14T15:37:38Z</time>
      </trkpt>
      <trkpt lat="47.60647" lon="-3.13253">
        <ele>28.6</ele>
        <time>2021-08-14T15:37:39Z</time>
      </trkpt>
      <trkpt lat="47.60645" lon="-3.13246">
        <ele>28.6</ele>
        <time>2021-08-14T15:37:40Z</time>
      </trkpt>
      <trkpt lat="47.60643" lon="-3.13241">
        <ele>28.6</ele>
        <time>2021-08-14T15:37:41Z</time>
      </trkpt>
      <trkpt lat="47.60642" lon="-3.13235">
        <ele>28.6</ele>
        <time>2021-08-14T15:37:42Z</time>
      </trkpt>
      <trkpt lat="47.6064" lon="-3.1323">
        <ele>28.6</ele>
        <time>2021-08-14T15:37:43Z</time>
      </trkpt>
      <trkpt lat="47.60638" lon="-3.13224">
        <ele>28.6</ele>
        <time>2021-08-14T15:37:44Z</time>
      </trkpt>
      <trkpt lat="47.60636" lon="-3.13219">
        <ele>28.6</ele>
        <time>2021-08-14T15:37:45Z</time>
      </trkpt>
      <trkpt lat="47.60634" lon="-3.13214">
        <ele>28.6</ele>
        <time>2021-08-14T15:37:46Z</time>
      </trkpt>
      <trkpt lat="47.60633" lon="-3.13209">
        <ele>28.6</ele>
        <time>2021-08-14T15:37:47Z</time>
      </trkpt>
      <trkpt lat="47.60631" lon="-3.13204">
        <ele>28.8</ele>
        <time>2021-08-14T15:37:48Z</time>
      </trkpt>
      <trkpt lat="47.60629" lon="-3.13198">
        <ele>28.8</ele>
        <time>2021-08-14T15:37:49Z</time>
      </trkpt>
      <trkpt lat="47.60626" lon="-3.13194">
        <ele>28.8</ele>
        <time>2021-08-14T15:37:50Z</time>
      </trkpt>
      <trkpt lat="47.60624" lon="-3.13189">
        <ele>29</ele>
        <time>2021-08-14T15:37:51Z</time>
      </trkpt>
      <trkpt lat="47.60622" lon="-3.13185">
        <ele>29</ele>
        <time>2021-08-14T15:37:52Z</time>
      </trkpt>
      <trkpt lat="47.60619" lon="-3.13181">
        <ele>29</ele>
        <time>2021-08-14T15:37:53Z</time>
      </trkpt>
      <trkpt lat="47.60617" lon="-3.13177">
        <ele>29</ele>
        <time>2021-08-14T15:37:54Z</time>
      </trkpt>
      <trkpt lat="47.60615" lon="-3.13173">
        <ele>29</ele>
        <time>2021-08-14T15:37:55Z</time>
      </trkpt>
      <trkpt lat="47.60613" lon="-3.1317">
        <ele>29</ele>
        <time>2021-08-14T15:37:56Z</time>
      </trkpt>
      <trkpt lat="47.6061" lon="-3.13166">
        <ele>29</ele>
        <time>2021-08-14T15:37:57Z</time>
      </trkpt>
      <trkpt lat="47.60607" lon="-3.13162">
        <ele>29.2</ele>
        <time>2021-08-14T15:37:58Z</time>
      </trkpt>
      <trkpt lat="47.60604" lon="-3.13158">
        <ele>29.2</ele>
        <time>2021-08-14T15:37:59Z</time>
      </trkpt>
      <trkpt lat="47.60601" lon="-3.13154">
        <ele>29.2</ele>
        <time>2021-08-14T15:38:00Z</time>
      </trkpt>
      <trkpt lat="47.60598" lon="-3.1315">
        <ele>29.2</ele>
        <time>2021-08-14T15:38:01Z</time>
      </trkpt>
      <trkpt lat="47.60595" lon="-3.13146">
        <ele>29.2</ele>
        <time>2021-08-14T15:38:02Z</time>
      </trkpt>
      <trkpt lat="47.60592" lon="-3.13142">
        <ele>29.2</ele>
        <time>2021-08-14T15:38:03Z</time>
      </trkpt>
      <trkpt lat="47.60589" lon="-3.13138">
        <ele>29.2</ele>
        <time>2021-08-14T15:38:04Z</time>
      </trkpt>
      <trkpt lat="47.60586" lon="-3.13133">
        <ele>29.4</ele>
        <time>2021-08-14T15:38:05Z</time>
      </trkpt>
      <trkpt lat="47.60583" lon="-3.13128">
        <ele>29.4</ele>
        <time>2021-08-14T15:38:06Z</time>
      </trkpt>
      <trkpt lat="47.6058" lon="-3.13123">
        <ele>29.4</ele>
        <time>2021-08-14T15:38:07Z</time>
      </trkpt>
      <trkpt lat="47.60578" lon="-3.13117">
        <ele>29.4</ele>
        <time>2021-08-14T15:38:08Z</time>
      </trkpt>
      <trkpt lat="47.60575" lon="-3.13112">
        <ele>29.4</ele>
        <time>2021-08-14T15:38:09Z</time>
      </trkpt>
      <trkpt lat="47.60572" lon="-3.13107">
        <ele>29.4</ele>
        <time>2021-08-14T15:38:10Z</time>
      </trkpt>
      <trkpt lat="47.60569" lon="-3.13101">
        <ele>29.4</ele>
        <time>2021-08-14T15:38:11Z</time>
      </trkpt>
      <trkpt lat="47.60567" lon="-3.13095">
        <ele>29.6</ele>
        <time>2021-08-14T15:38:12Z</time>
      </trkpt>
      <trkpt lat="47.60565" lon="-3.13089">
        <ele>29.6</ele>
        <time>2021-08-14T15:38:13Z</time>
      </trkpt>
      <trkpt lat="47.60562" lon="-3.13084">
        <ele>29.6</ele>
        <time>2021-08-14T15:38:14Z</time>
      </trkpt>
      <trkpt lat="47.6056" lon="-3.13078">
        <ele>29.6</ele>
        <time>2021-08-14T15:38:15Z</time>
      </trkpt>
      <trkpt lat="47.60558" lon="-3.13073">
        <ele>29.6</ele>
        <time>2021-08-14T15:38:16Z</time>
      </trkpt>
      <trkpt lat="47.60556" lon="-3.13067">
        <ele>29.6</ele>
        <time>2021-08-14T15:38:17Z</time>
      </trkpt>
      <trkpt lat="47.60554" lon="-3.13061">
        <ele>29.8</ele>
        <time>2021-08-14T15:38:18Z</time>
      </trkpt>
      <trkpt lat="47.60551" lon="-3.13055">
        <ele>29.8</ele>
        <time>2021-08-14T15:38:19Z</time>
      </trkpt>
      <trkpt lat="47.60549" lon="-3.1305">
        <ele>29.8</ele>
        <time>2021-08-14T15:38:20Z</time>
      </trkpt>
      <trkpt lat="47.60547" lon="-3.13044">
        <ele>29.8</ele>
        <time>2021-08-14T15:38:21Z</time>
      </trkpt>
      <trkpt lat="47.60545" lon="-3.13038">
        <ele>29.8</ele>
        <time>2021-08-14T15:38:22Z</time>
      </trkpt>
      <trkpt lat="47.60543" lon="-3.13033">
        <ele>29.8</ele>
        <time>2021-08-14T15:38:23Z</time>
      </trkpt>
      <trkpt lat="47.6054" lon="-3.13027">
        <ele>29.8</ele>
        <time>2021-08-14T15:38:24Z</time>
      </trkpt>
      <trkpt lat="47.60538" lon="-3.13022">
        <ele>29.8</ele>
        <time>2021-08-14T15:38:25Z</time>
      </trkpt>
      <trkpt lat="47.60536" lon="-3.13017">
        <ele>29.8</ele>
        <time>2021-08-14T15:38:26Z</time>
      </trkpt>
      <trkpt lat="47.60534" lon="-3.13012">
        <ele>29.8</ele>
        <time>2021-08-14T15:38:27Z</time>
      </trkpt>
      <trkpt lat="47.60532" lon="-3.13007">
        <ele>29.8</ele>
        <time>2021-08-14T15:38:28Z</time>
      </trkpt>
      <trkpt lat="47.60529" lon="-3.13002">
        <ele>30</ele>
        <time>2021-08-14T15:38:29Z</time>
      </trkpt>
      <trkpt lat="47.60527" lon="-3.12997">
        <ele>30</ele>
        <time>2021-08-14T15:38:30Z</time>
      </trkpt>
      <trkpt lat="47.60525" lon="-3.12991">
        <ele>30</ele>
        <time>2021-08-14T15:38:31Z</time>
      </trkpt>
      <trkpt lat="47.60523" lon="-3.12987">
        <ele>30</ele>
        <time>2021-08-14T15:38:32Z</time>
      </trkpt>
      <trkpt lat="47.60521" lon="-3.12982">
        <ele>30</ele>
        <time>2021-08-14T15:38:33Z</time>
      </trkpt>
      <trkpt lat="47.60519" lon="-3.12977">
        <ele>30.2</ele>
        <time>2021-08-14T15:38:34Z</time>
      </trkpt>
      <trkpt lat="47.60517" lon="-3.12972">
        <ele>30.2</ele>
        <time>2021-08-14T15:38:35Z</time>
      </trkpt>
      <trkpt lat="47.60516" lon="-3.12967">
        <ele>30.4</ele>
        <time>2021-08-14T15:38:36Z</time>
      </trkpt>
      <trkpt lat="47.60514" lon="-3.12962">
        <ele>30.4</ele>
        <time>2021-08-14T15:38:37Z</time>
      </trkpt>
      <trkpt lat="47.60513" lon="-3.12957">
        <ele>30.6</ele>
        <time>2021-08-14T15:38:38Z</time>
      </trkpt>
      <trkpt lat="47.60512" lon="-3.12951">
        <ele>30.8</ele>
        <time>2021-08-14T15:38:39Z</time>
      </trkpt>
      <trkpt lat="47.6051" lon="-3.12946">
        <ele>31</ele>
        <time>2021-08-14T15:38:40Z</time>
      </trkpt>
      <trkpt lat="47.6051" lon="-3.12941">
        <ele>31</ele>
        <time>2021-08-14T15:38:41Z</time>
      </trkpt>
      <trkpt lat="47.60509" lon="-3.12935">
        <ele>31.2</ele>
        <time>2021-08-14T15:38:42Z</time>
      </trkpt>
      <trkpt lat="47.60508" lon="-3.1293">
        <ele>31.2</ele>
        <time>2021-08-14T15:38:43Z</time>
      </trkpt>
      <trkpt lat="47.60508" lon="-3.12925">
        <ele>31.6</ele>
        <time>2021-08-14T15:38:44Z</time>
      </trkpt>
      <trkpt lat="47.60507" lon="-3.12919">
        <ele>31.8</ele>
        <time>2021-08-14T15:38:45Z</time>
      </trkpt>
      <trkpt lat="47.60507" lon="-3.12914">
        <ele>32.2</ele>
        <time>2021-08-14T15:38:46Z</time>
      </trkpt>
      <trkpt lat="47.60507" lon="-3.12908">
        <ele>32.4</ele>
        <time>2021-08-14T15:38:47Z</time>
      </trkpt>
      <trkpt lat="47.60507" lon="-3.12903">
        <ele>32.6</ele>
        <time>2021-08-14T15:38:48Z</time>
      </trkpt>
      <trkpt lat="47.60507" lon="-3.12897">
        <ele>32.6</ele>
        <time>2021-08-14T15:38:49Z</time>
      </trkpt>
      <trkpt lat="47.60507" lon="-3.12891">
        <ele>32.8</ele>
        <time>2021-08-14T15:38:50Z</time>
      </trkpt>
      <trkpt lat="47.60507" lon="-3.12885">
        <ele>33</ele>
        <time>2021-08-14T15:38:51Z</time>
      </trkpt>
      <trkpt lat="47.60507" lon="-3.12878">
        <ele>33</ele>
        <time>2021-08-14T15:38:52Z</time>
      </trkpt>
      <trkpt lat="47.60507" lon="-3.12871">
        <ele>33.2</ele>
        <time>2021-08-14T15:38:53Z</time>
      </trkpt>
      <trkpt lat="47.60507" lon="-3.12865">
        <ele>33.4</ele>
        <time>2021-08-14T15:38:54Z</time>
      </trkpt>
      <trkpt lat="47.60507" lon="-3.12858">
        <ele>33.6</ele>
        <time>2021-08-14T15:38:55Z</time>
      </trkpt>
      <trkpt lat="47.60507" lon="-3.1285">
        <ele>33.6</ele>
        <time>2021-08-14T15:38:56Z</time>
      </trkpt>
      <trkpt lat="47.60506" lon="-3.12843">
        <ele>33.8</ele>
        <time>2021-08-14T15:38:57Z</time>
      </trkpt>
      <trkpt lat="47.60505" lon="-3.12836">
        <ele>33.8</ele>
        <time>2021-08-14T15:38:58Z</time>
      </trkpt>
      <trkpt lat="47.60504" lon="-3.12828">
        <ele>33.8</ele>
        <time>2021-08-14T15:38:59Z</time>
      </trkpt>
      <trkpt lat="47.60503" lon="-3.1282">
        <ele>33.8</ele>
        <time>2021-08-14T15:39:00Z</time>
      </trkpt>
      <trkpt lat="47.60502" lon="-3.12812">
        <ele>33.8</ele>
        <time>2021-08-14T15:39:01Z</time>
      </trkpt>
      <trkpt lat="47.60502" lon="-3.12804">
        <ele>33.8</ele>
        <time>2021-08-14T15:39:02Z</time>
      </trkpt>
      <trkpt lat="47.60501" lon="-3.12796">
        <ele>33.8</ele>
        <time>2021-08-14T15:39:03Z</time>
      </trkpt>
      <trkpt lat="47.605" lon="-3.12788">
        <ele>33.8</ele>
        <time>2021-08-14T15:39:04Z</time>
      </trkpt>
      <trkpt lat="47.60499" lon="-3.1278">
        <ele>33.8</ele>
        <time>2021-08-14T15:39:05Z</time>
      </trkpt>
      <trkpt lat="47.60498" lon="-3.12772">
        <ele>33.8</ele>
        <time>2021-08-14T15:39:06Z</time>
      </trkpt>
      <trkpt lat="47.60496" lon="-3.12764">
        <ele>33.8</ele>
        <time>2021-08-14T15:39:07Z</time>
      </trkpt>
      <trkpt lat="47.60495" lon="-3.12756">
        <ele>33.8</ele>
        <time>2021-08-14T15:39:08Z</time>
      </trkpt>
      <trkpt lat="47.60493" lon="-3.12748">
        <ele>33.6</ele>
        <time>2021-08-14T15:39:09Z</time>
      </trkpt>
      <trkpt lat="47.60492" lon="-3.1274">
        <ele>33.6</ele>
        <time>2021-08-14T15:39:10Z</time>
      </trkpt>
      <trkpt lat="47.6049" lon="-3.12732">
        <ele>33.4</ele>
        <time>2021-08-14T15:39:11Z</time>
      </trkpt>
      <trkpt lat="47.60488" lon="-3.12725">
        <ele>33.4</ele>
        <time>2021-08-14T15:39:12Z</time>
      </trkpt>
      <trkpt lat="47.60486" lon="-3.12717">
        <ele>33.2</ele>
        <time>2021-08-14T15:39:13Z</time>
      </trkpt>
      <trkpt lat="47.60485" lon="-3.1271">
        <ele>33.2</ele>
        <time>2021-08-14T15:39:14Z</time>
      </trkpt>
      <trkpt lat="47.60483" lon="-3.12702">
        <ele>33.2</ele>
        <time>2021-08-14T15:39:15Z</time>
      </trkpt>
      <trkpt lat="47.60482" lon="-3.12695">
        <ele>33</ele>
        <time>2021-08-14T15:39:16Z</time>
      </trkpt>
      <trkpt lat="47.60481" lon="-3.12687">
        <ele>33</ele>
        <time>2021-08-14T15:39:17Z</time>
      </trkpt>
      <trkpt lat="47.60479" lon="-3.1268">
        <ele>33</ele>
        <time>2021-08-14T15:39:18Z</time>
      </trkpt>
      <trkpt lat="47.60478" lon="-3.12672">
        <ele>33</ele>
        <time>2021-08-14T15:39:19Z</time>
      </trkpt>
      <trkpt lat="47.60477" lon="-3.12665">
        <ele>33</ele>
        <time>2021-08-14T15:39:20Z</time>
      </trkpt>
      <trkpt lat="47.60476" lon="-3.12658">
        <ele>33</ele>
        <time>2021-08-14T15:39:21Z</time>
      </trkpt>
      <trkpt lat="47.60475" lon="-3.1265">
        <ele>33</ele>
        <time>2021-08-14T15:39:22Z</time>
      </trkpt>
      <trkpt lat="47.60473" lon="-3.12643">
        <ele>33.4</ele>
        <time>2021-08-14T15:39:23Z</time>
      </trkpt>
      <trkpt lat="47.60472" lon="-3.12637">
        <ele>33.4</ele>
        <time>2021-08-14T15:39:24Z</time>
      </trkpt>
      <trkpt lat="47.6047" lon="-3.1263">
        <ele>33.6</ele>
        <time>2021-08-14T15:39:25Z</time>
      </trkpt>
      <trkpt lat="47.60468" lon="-3.12624">
        <ele>33.6</ele>
        <time>2021-08-14T15:39:26Z</time>
      </trkpt>
      <trkpt lat="47.60465" lon="-3.12619">
        <ele>33.8</ele>
        <time>2021-08-14T15:39:27Z</time>
      </trkpt>
      <trkpt lat="47.60462" lon="-3.12613">
        <ele>34</ele>
        <time>2021-08-14T15:39:28Z</time>
      </trkpt>
      <trkpt lat="47.60459" lon="-3.12608">
        <ele>34</ele>
        <time>2021-08-14T15:39:29Z</time>
      </trkpt>
      <trkpt lat="47.60456" lon="-3.12603">
        <ele>34.2</ele>
        <time>2021-08-14T15:39:30Z</time>
      </trkpt>
      <trkpt lat="47.60454" lon="-3.12598">
        <ele>34.2</ele>
        <time>2021-08-14T15:39:31Z</time>
      </trkpt>
      <trkpt lat="47.60451" lon="-3.12593">
        <ele>34.2</ele>
        <time>2021-08-14T15:39:32Z</time>
      </trkpt>
      <trkpt lat="47.60448" lon="-3.12588">
        <ele>34.4</ele>
        <time>2021-08-14T15:39:33Z</time>
      </trkpt>
      <trkpt lat="47.60445" lon="-3.12583">
        <ele>34.4</ele>
        <time>2021-08-14T15:39:34Z</time>
      </trkpt>
      <trkpt lat="47.60442" lon="-3.12578">
        <ele>34.4</ele>
        <time>2021-08-14T15:39:35Z</time>
      </trkpt>
      <trkpt lat="47.6044" lon="-3.12573">
        <ele>34.6</ele>
        <time>2021-08-14T15:39:36Z</time>
      </trkpt>
      <trkpt lat="47.60437" lon="-3.12569">
        <ele>34.8</ele>
        <time>2021-08-14T15:39:37Z</time>
      </trkpt>
      <trkpt lat="47.60434" lon="-3.12564">
        <ele>35</ele>
        <time>2021-08-14T15:39:38Z</time>
      </trkpt>
      <trkpt lat="47.60431" lon="-3.1256">
        <ele>35</ele>
        <time>2021-08-14T15:39:39Z</time>
      </trkpt>
      <trkpt lat="47.60428" lon="-3.12555">
        <ele>35.2</ele>
        <time>2021-08-14T15:39:40Z</time>
      </trkpt>
      <trkpt lat="47.60425" lon="-3.12551">
        <ele>35.2</ele>
        <time>2021-08-14T15:39:41Z</time>
      </trkpt>
      <trkpt lat="47.60422" lon="-3.12546">
        <ele>35.4</ele>
        <time>2021-08-14T15:39:42Z</time>
      </trkpt>
      <trkpt lat="47.60419" lon="-3.12542">
        <ele>35.6</ele>
        <time>2021-08-14T15:39:43Z</time>
      </trkpt>
      <trkpt lat="47.60416" lon="-3.12537">
        <ele>35.6</ele>
        <time>2021-08-14T15:39:44Z</time>
      </trkpt>
      <trkpt lat="47.60413" lon="-3.12532">
        <ele>35.6</ele>
        <time>2021-08-14T15:39:45Z</time>
      </trkpt>
      <trkpt lat="47.6041" lon="-3.12528">
        <ele>35.8</ele>
        <time>2021-08-14T15:39:46Z</time>
      </trkpt>
      <trkpt lat="47.60407" lon="-3.12523">
        <ele>36</ele>
        <time>2021-08-14T15:39:47Z</time>
      </trkpt>
      <trkpt lat="47.60403" lon="-3.12518">
        <ele>36.2</ele>
        <time>2021-08-14T15:39:48Z</time>
      </trkpt>
      <trkpt lat="47.604" lon="-3.12512">
        <ele>36.2</ele>
        <time>2021-08-14T15:39:49Z</time>
      </trkpt>
      <trkpt lat="47.60397" lon="-3.12506">
        <ele>36.4</ele>
        <time>2021-08-14T15:39:50Z</time>
      </trkpt>
      <trkpt lat="47.60393" lon="-3.125">
        <ele>36.4</ele>
        <time>2021-08-14T15:39:51Z</time>
      </trkpt>
      <trkpt lat="47.60389" lon="-3.12494">
        <ele>36.4</ele>
        <time>2021-08-14T15:39:52Z</time>
      </trkpt>
      <trkpt lat="47.60386" lon="-3.12487">
        <ele>36.4</ele>
        <time>2021-08-14T15:39:53Z</time>
      </trkpt>
      <trkpt lat="47.60382" lon="-3.1248">
        <ele>36.4</ele>
        <time>2021-08-14T15:39:54Z</time>
      </trkpt>
      <trkpt lat="47.60378" lon="-3.12473">
        <ele>36.4</ele>
        <time>2021-08-14T15:39:55Z</time>
      </trkpt>
      <trkpt lat="47.60374" lon="-3.12465">
        <ele>36.4</ele>
        <time>2021-08-14T15:39:56Z</time>
      </trkpt>
      <trkpt lat="47.6037" lon="-3.12458">
        <ele>36.4</ele>
        <time>2021-08-14T15:39:57Z</time>
      </trkpt>
      <trkpt lat="47.60366" lon="-3.12451">
        <ele>36.4</ele>
        <time>2021-08-14T15:39:58Z</time>
      </trkpt>
      <trkpt lat="47.60362" lon="-3.12445">
        <ele>36.2</ele>
        <time>2021-08-14T15:39:59Z</time>
      </trkpt>
      <trkpt lat="47.60357" lon="-3.12439">
        <ele>36.2</ele>
        <time>2021-08-14T15:40:00Z</time>
      </trkpt>
      <trkpt lat="47.60352" lon="-3.12433">
        <ele>35.8</ele>
        <time>2021-08-14T15:40:01Z</time>
      </trkpt>
      <trkpt lat="47.60347" lon="-3.12428">
        <ele>35.6</ele>
        <time>2021-08-14T15:40:02Z</time>
      </trkpt>
      <trkpt lat="47.60341" lon="-3.12423">
        <ele>35.4</ele>
        <time>2021-08-14T15:40:03Z</time>
      </trkpt>
      <trkpt lat="47.60336" lon="-3.12419">
        <ele>35.2</ele>
        <time>2021-08-14T15:40:04Z</time>
      </trkpt>
      <trkpt lat="47.60331" lon="-3.12414">
        <ele>35.2</ele>
        <time>2021-08-14T15:40:05Z</time>
      </trkpt>
      <trkpt lat="47.60326" lon="-3.1241">
        <ele>35</ele>
        <time>2021-08-14T15:40:06Z</time>
      </trkpt>
      <trkpt lat="47.6032" lon="-3.12406">
        <ele>35</ele>
        <time>2021-08-14T15:40:07Z</time>
      </trkpt>
      <trkpt lat="47.60316" lon="-3.12401">
        <ele>34.8</ele>
        <time>2021-08-14T15:40:08Z</time>
      </trkpt>
      <trkpt lat="47.60311" lon="-3.12395">
        <ele>34.6</ele>
        <time>2021-08-14T15:40:09Z</time>
      </trkpt>
      <trkpt lat="47.60307" lon="-3.12389">
        <ele>34.4</ele>
        <time>2021-08-14T15:40:10Z</time>
      </trkpt>
      <trkpt lat="47.60303" lon="-3.12383">
        <ele>34.2</ele>
        <time>2021-08-14T15:40:11Z</time>
      </trkpt>
      <trkpt lat="47.60299" lon="-3.12376">
        <ele>34</ele>
        <time>2021-08-14T15:40:12Z</time>
      </trkpt>
      <trkpt lat="47.60295" lon="-3.1237">
        <ele>34</ele>
        <time>2021-08-14T15:40:13Z</time>
      </trkpt>
      <trkpt lat="47.60291" lon="-3.12364">
        <ele>34</ele>
        <time>2021-08-14T15:40:14Z</time>
      </trkpt>
      <trkpt lat="47.60287" lon="-3.12358">
        <ele>34</ele>
        <time>2021-08-14T15:40:15Z</time>
      </trkpt>
      <trkpt lat="47.60282" lon="-3.12352">
        <ele>34</ele>
        <time>2021-08-14T15:40:16Z</time>
      </trkpt>
      <trkpt lat="47.60278" lon="-3.12347">
        <ele>33.8</ele>
        <time>2021-08-14T15:40:17Z</time>
      </trkpt>
      <trkpt lat="47.60273" lon="-3.12342">
        <ele>33.8</ele>
        <time>2021-08-14T15:40:18Z</time>
      </trkpt>
      <trkpt lat="47.60267" lon="-3.12339">
        <ele>33.8</ele>
        <time>2021-08-14T15:40:19Z</time>
      </trkpt>
      <trkpt lat="47.60261" lon="-3.12335">
        <ele>33.6</ele>
        <time>2021-08-14T15:40:20Z</time>
      </trkpt>
      <trkpt lat="47.60255" lon="-3.12333">
        <ele>33.6</ele>
        <time>2021-08-14T15:40:21Z</time>
      </trkpt>
      <trkpt lat="47.60249" lon="-3.1233">
        <ele>33.6</ele>
        <time>2021-08-14T15:40:22Z</time>
      </trkpt>
      <trkpt lat="47.60242" lon="-3.12326">
        <ele>33.6</ele>
        <time>2021-08-14T15:40:23Z</time>
      </trkpt>
      <trkpt lat="47.60236" lon="-3.12322">
        <ele>33.6</ele>
        <time>2021-08-14T15:40:24Z</time>
      </trkpt>
      <trkpt lat="47.60229" lon="-3.12317">
        <ele>33.4</ele>
        <time>2021-08-14T15:40:25Z</time>
      </trkpt>
      <trkpt lat="47.60222" lon="-3.12311">
        <ele>33.2</ele>
        <time>2021-08-14T15:40:26Z</time>
      </trkpt>
      <trkpt lat="47.60215" lon="-3.12305">
        <ele>33.2</ele>
        <time>2021-08-14T15:40:27Z</time>
      </trkpt>
      <trkpt lat="47.60208" lon="-3.12299">
        <ele>32.8</ele>
        <time>2021-08-14T15:40:28Z</time>
      </trkpt>
      <trkpt lat="47.60201" lon="-3.12292">
        <ele>32.4</ele>
        <time>2021-08-14T15:40:29Z</time>
      </trkpt>
      <trkpt lat="47.60194" lon="-3.12283">
        <ele>32</ele>
        <time>2021-08-14T15:40:30Z</time>
      </trkpt>
      <trkpt lat="47.60188" lon="-3.12274">
        <ele>31.6</ele>
        <time>2021-08-14T15:40:31Z</time>
      </trkpt>
      <trkpt lat="47.60183" lon="-3.12262">
        <ele>31.2</ele>
        <time>2021-08-14T15:40:32Z</time>
      </trkpt>
      <trkpt lat="47.60178" lon="-3.12251">
        <ele>30.8</ele>
        <time>2021-08-14T15:40:33Z</time>
      </trkpt>
      <trkpt lat="47.60173" lon="-3.1224">
        <ele>30</ele>
        <time>2021-08-14T15:40:34Z</time>
      </trkpt>
      <trkpt lat="47.60167" lon="-3.1223">
        <ele>29.2</ele>
        <time>2021-08-14T15:40:35Z</time>
      </trkpt>
      <trkpt lat="47.60162" lon="-3.1222">
        <ele>28.4</ele>
        <time>2021-08-14T15:40:36Z</time>
      </trkpt>
      <trkpt lat="47.60157" lon="-3.1221">
        <ele>27.8</ele>
        <time>2021-08-14T15:40:37Z</time>
      </trkpt>
      <trkpt lat="47.60153" lon="-3.12201">
        <ele>27.6</ele>
        <time>2021-08-14T15:40:38Z</time>
      </trkpt>
      <trkpt lat="47.60148" lon="-3.12192">
        <ele>27.4</ele>
        <time>2021-08-14T15:40:39Z</time>
      </trkpt>
      <trkpt lat="47.60145" lon="-3.12184">
        <ele>27.4</ele>
        <time>2021-08-14T15:40:40Z</time>
      </trkpt>
      <trkpt lat="47.60141" lon="-3.12176">
        <ele>27.4</ele>
        <time>2021-08-14T15:40:41Z</time>
      </trkpt>
      <trkpt lat="47.60137" lon="-3.12168">
        <ele>27.4</ele>
        <time>2021-08-14T15:40:42Z</time>
      </trkpt>
      <trkpt lat="47.60133" lon="-3.1216">
        <ele>27.2</ele>
        <time>2021-08-14T15:40:43Z</time>
      </trkpt>
      <trkpt lat="47.60129" lon="-3.12153">
        <ele>27.2</ele>
        <time>2021-08-14T15:40:44Z</time>
      </trkpt>
      <trkpt lat="47.60125" lon="-3.12146">
        <ele>27.2</ele>
        <time>2021-08-14T15:40:45Z</time>
      </trkpt>
      <trkpt lat="47.60121" lon="-3.1214">
        <ele>27.2</ele>
        <time>2021-08-14T15:40:46Z</time>
      </trkpt>
      <trkpt lat="47.60116" lon="-3.12134">
        <ele>27.8</ele>
        <time>2021-08-14T15:40:47Z</time>
      </trkpt>
      <trkpt lat="47.60112" lon="-3.12129">
        <ele>28.2</ele>
        <time>2021-08-14T15:40:48Z</time>
      </trkpt>
      <trkpt lat="47.60108" lon="-3.12124">
        <ele>28.4</ele>
        <time>2021-08-14T15:40:49Z</time>
      </trkpt>
      <trkpt lat="47.60103" lon="-3.12119">
        <ele>28.6</ele>
        <time>2021-08-14T15:40:50Z</time>
      </trkpt>
      <trkpt lat="47.60099" lon="-3.12114">
        <ele>28.8</ele>
        <time>2021-08-14T15:40:51Z</time>
      </trkpt>
      <trkpt lat="47.60095" lon="-3.1211">
        <ele>28.8</ele>
        <time>2021-08-14T15:40:52Z</time>
      </trkpt>
      <trkpt lat="47.60091" lon="-3.12105">
        <ele>29</ele>
        <time>2021-08-14T15:40:53Z</time>
      </trkpt>
      <trkpt lat="47.60087" lon="-3.121">
        <ele>29</ele>
        <time>2021-08-14T15:40:54Z</time>
      </trkpt>
      <trkpt lat="47.60083" lon="-3.12096">
        <ele>29.2</ele>
        <time>2021-08-14T15:40:55Z</time>
      </trkpt>
      <trkpt lat="47.60079" lon="-3.12091">
        <ele>29.2</ele>
        <time>2021-08-14T15:40:56Z</time>
      </trkpt>
      <trkpt lat="47.60075" lon="-3.12087">
        <ele>29.4</ele>
        <time>2021-08-14T15:40:57Z</time>
      </trkpt>
      <trkpt lat="47.60071" lon="-3.12083">
        <ele>29.4</ele>
        <time>2021-08-14T15:40:58Z</time>
      </trkpt>
      <trkpt lat="47.60068" lon="-3.12079">
        <ele>29.4</ele>
        <time>2021-08-14T15:40:59Z</time>
      </trkpt>
      <trkpt lat="47.60064" lon="-3.12075">
        <ele>29.4</ele>
        <time>2021-08-14T15:41:00Z</time>
      </trkpt>
      <trkpt lat="47.60061" lon="-3.12071">
        <ele>29.6</ele>
        <time>2021-08-14T15:41:01Z</time>
      </trkpt>
      <trkpt lat="47.60058" lon="-3.12067">
        <ele>29.6</ele>
        <time>2021-08-14T15:41:02Z</time>
      </trkpt>
      <trkpt lat="47.60055" lon="-3.12062">
        <ele>29.6</ele>
        <time>2021-08-14T15:41:03Z</time>
      </trkpt>
      <trkpt lat="47.60051" lon="-3.12058">
        <ele>29.6</ele>
        <time>2021-08-14T15:41:04Z</time>
      </trkpt>
      <trkpt lat="47.60048" lon="-3.12053">
        <ele>29.8</ele>
        <time>2021-08-14T15:41:05Z</time>
      </trkpt>
      <trkpt lat="47.60045" lon="-3.12049">
        <ele>30.2</ele>
        <time>2021-08-14T15:41:06Z</time>
      </trkpt>
      <trkpt lat="47.60042" lon="-3.12044">
        <ele>30.6</ele>
        <time>2021-08-14T15:41:07Z</time>
      </trkpt>
      <trkpt lat="47.60038" lon="-3.1204">
        <ele>30.6</ele>
        <time>2021-08-14T15:41:08Z</time>
      </trkpt>
      <trkpt lat="47.60035" lon="-3.12036">
        <ele>30.8</ele>
        <time>2021-08-14T15:41:09Z</time>
      </trkpt>
      <trkpt lat="47.60031" lon="-3.12032">
        <ele>30.8</ele>
        <time>2021-08-14T15:41:10Z</time>
      </trkpt>
      <trkpt lat="47.60028" lon="-3.12028">
        <ele>30.8</ele>
        <time>2021-08-14T15:41:11Z</time>
      </trkpt>
      <trkpt lat="47.60025" lon="-3.12025">
        <ele>30.8</ele>
        <time>2021-08-14T15:41:12Z</time>
      </trkpt>
      <trkpt lat="47.60022" lon="-3.12021">
        <ele>31</ele>
        <time>2021-08-14T15:41:13Z</time>
      </trkpt>
      <trkpt lat="47.6002" lon="-3.12018">
        <ele>31.2</ele>
        <time>2021-08-14T15:41:14Z</time>
      </trkpt>
      <trkpt lat="47.60017" lon="-3.12015">
        <ele>31.4</ele>
        <time>2021-08-14T15:41:15Z</time>
      </trkpt>
      <trkpt lat="47.60015" lon="-3.12012">
        <ele>31.6</ele>
        <time>2021-08-14T15:41:16Z</time>
      </trkpt>
      <trkpt lat="47.60012" lon="-3.12009">
        <ele>31.6</ele>
        <time>2021-08-14T15:41:17Z</time>
      </trkpt>
      <trkpt lat="47.60009" lon="-3.12007">
        <ele>31.8</ele>
        <time>2021-08-14T15:41:18Z</time>
      </trkpt>
      <trkpt lat="47.60007" lon="-3.12004">
        <ele>32</ele>
        <time>2021-08-14T15:41:19Z</time>
      </trkpt>
      <trkpt lat="47.60004" lon="-3.12001">
        <ele>32.2</ele>
        <time>2021-08-14T15:41:20Z</time>
      </trkpt>
      <trkpt lat="47.60002" lon="-3.11998">
        <ele>32.2</ele>
        <time>2021-08-14T15:41:21Z</time>
      </trkpt>
      <trkpt lat="47.6" lon="-3.11995">
        <ele>32.4</ele>
        <time>2021-08-14T15:41:22Z</time>
      </trkpt>
      <trkpt lat="47.59998" lon="-3.11992">
        <ele>32.4</ele>
        <time>2021-08-14T15:41:23Z</time>
      </trkpt>
      <trkpt lat="47.59995" lon="-3.11989">
        <ele>32.4</ele>
        <time>2021-08-14T15:41:24Z</time>
      </trkpt>
      <trkpt lat="47.59993" lon="-3.11986">
        <ele>32.4</ele>
        <time>2021-08-14T15:41:25Z</time>
      </trkpt>
      <trkpt lat="47.59991" lon="-3.11983">
        <ele>32.4</ele>
        <time>2021-08-14T15:41:26Z</time>
      </trkpt>
      <trkpt lat="47.59989" lon="-3.1198">
        <ele>32.4</ele>
        <time>2021-08-14T15:41:27Z</time>
      </trkpt>
      <trkpt lat="47.59986" lon="-3.11976">
        <ele>32.4</ele>
        <time>2021-08-14T15:41:28Z</time>
      </trkpt>
      <trkpt lat="47.59983" lon="-3.11973">
        <ele>32.4</ele>
        <time>2021-08-14T15:41:29Z</time>
      </trkpt>
      <trkpt lat="47.59979" lon="-3.11968">
        <ele>32.4</ele>
        <time>2021-08-14T15:41:30Z</time>
      </trkpt>
      <trkpt lat="47.59975" lon="-3.11963">
        <ele>32.4</ele>
        <time>2021-08-14T15:41:31Z</time>
      </trkpt>
      <trkpt lat="47.59972" lon="-3.11959">
        <ele>32.4</ele>
        <time>2021-08-14T15:41:32Z</time>
      </trkpt>
      <trkpt lat="47.59969" lon="-3.11955">
        <ele>32.4</ele>
        <time>2021-08-14T15:41:33Z</time>
      </trkpt>
      <trkpt lat="47.59967" lon="-3.11951">
        <ele>32.4</ele>
        <time>2021-08-14T15:41:34Z</time>
      </trkpt>
      <trkpt lat="47.59963" lon="-3.11947">
        <ele>32.2</ele>
        <time>2021-08-14T15:41:35Z</time>
      </trkpt>
      <trkpt lat="47.5996" lon="-3.11944">
        <ele>32.2</ele>
        <time>2021-08-14T15:41:36Z</time>
      </trkpt>
      <trkpt lat="47.59956" lon="-3.11941">
        <ele>32</ele>
        <time>2021-08-14T15:41:37Z</time>
      </trkpt>
      <trkpt lat="47.59953" lon="-3.11938">
        <ele>31.8</ele>
        <time>2021-08-14T15:41:38Z</time>
      </trkpt>
      <trkpt lat="47.5995" lon="-3.11934">
        <ele>31.8</ele>
        <time>2021-08-14T15:41:39Z</time>
      </trkpt>
      <trkpt lat="47.59948" lon="-3.11931">
        <ele>31.6</ele>
        <time>2021-08-14T15:41:40Z</time>
      </trkpt>
      <trkpt lat="47.59945" lon="-3.11927">
        <ele>31.6</ele>
        <time>2021-08-14T15:41:41Z</time>
      </trkpt>
      <trkpt lat="47.59942" lon="-3.11924">
        <ele>31.6</ele>
        <time>2021-08-14T15:41:42Z</time>
      </trkpt>
      <trkpt lat="47.59938" lon="-3.1192">
        <ele>31.6</ele>
        <time>2021-08-14T15:41:43Z</time>
      </trkpt>
      <trkpt lat="47.59935" lon="-3.11916">
        <ele>31.4</ele>
        <time>2021-08-14T15:41:44Z</time>
      </trkpt>
      <trkpt lat="47.59931" lon="-3.11911">
        <ele>31.4</ele>
        <time>2021-08-14T15:41:45Z</time>
      </trkpt>
      <trkpt lat="47.59928" lon="-3.11906">
        <ele>31.2</ele>
        <time>2021-08-14T15:41:46Z</time>
      </trkpt>
      <trkpt lat="47.59925" lon="-3.119">
        <ele>31.2</ele>
        <time>2021-08-14T15:41:47Z</time>
      </trkpt>
      <trkpt lat="47.59922" lon="-3.11894">
        <ele>30.8</ele>
        <time>2021-08-14T15:41:48Z</time>
      </trkpt>
      <trkpt lat="47.59919" lon="-3.11888">
        <ele>30.8</ele>
        <time>2021-08-14T15:41:49Z</time>
      </trkpt>
      <trkpt lat="47.59916" lon="-3.11882">
        <ele>30.6</ele>
        <time>2021-08-14T15:41:50Z</time>
      </trkpt>
      <trkpt lat="47.59914" lon="-3.11875">
        <ele>30.6</ele>
        <time>2021-08-14T15:41:51Z</time>
      </trkpt>
      <trkpt lat="47.59911" lon="-3.11868">
        <ele>30.4</ele>
        <time>2021-08-14T15:41:52Z</time>
      </trkpt>
      <trkpt lat="47.59909" lon="-3.11861">
        <ele>30.4</ele>
        <time>2021-08-14T15:41:53Z</time>
      </trkpt>
      <trkpt lat="47.59905" lon="-3.11853">
        <ele>30.4</ele>
        <time>2021-08-14T15:41:54Z</time>
      </trkpt>
      <trkpt lat="47.59903" lon="-3.11845">
        <ele>30.2</ele>
        <time>2021-08-14T15:41:55Z</time>
      </trkpt>
      <trkpt lat="47.599" lon="-3.11837">
        <ele>30.2</ele>
        <time>2021-08-14T15:41:56Z</time>
      </trkpt>
      <trkpt lat="47.59897" lon="-3.11829">
        <ele>30</ele>
        <time>2021-08-14T15:41:57Z</time>
      </trkpt>
      <trkpt lat="47.59894" lon="-3.11821">
        <ele>29.8</ele>
        <time>2021-08-14T15:41:58Z</time>
      </trkpt>
      <trkpt lat="47.59891" lon="-3.11813">
        <ele>29.6</ele>
        <time>2021-08-14T15:41:59Z</time>
      </trkpt>
      <trkpt lat="47.59888" lon="-3.11806">
        <ele>29.6</ele>
        <time>2021-08-14T15:42:00Z</time>
      </trkpt>
      <trkpt lat="47.59885" lon="-3.118">
        <ele>29.2</ele>
        <time>2021-08-14T15:42:01Z</time>
      </trkpt>
      <trkpt lat="47.59882" lon="-3.11794">
        <ele>28.6</ele>
        <time>2021-08-14T15:42:02Z</time>
      </trkpt>
      <trkpt lat="47.5988" lon="-3.11788">
        <ele>28.4</ele>
        <time>2021-08-14T15:42:03Z</time>
      </trkpt>
      <trkpt lat="47.59877" lon="-3.11782">
        <ele>28.2</ele>
        <time>2021-08-14T15:42:04Z</time>
      </trkpt>
      <trkpt lat="47.59874" lon="-3.11776">
        <ele>28.2</ele>
        <time>2021-08-14T15:42:05Z</time>
      </trkpt>
      <trkpt lat="47.59872" lon="-3.11771">
        <ele>28</ele>
        <time>2021-08-14T15:42:06Z</time>
      </trkpt>
      <trkpt lat="47.59871" lon="-3.11765">
        <ele>28</ele>
        <time>2021-08-14T15:42:07Z</time>
      </trkpt>
      <trkpt lat="47.5987" lon="-3.1176">
        <ele>27.8</ele>
        <time>2021-08-14T15:42:08Z</time>
      </trkpt>
      <trkpt lat="47.5987" lon="-3.11754">
        <ele>27.8</ele>
        <time>2021-08-14T15:42:09Z</time>
      </trkpt>
      <trkpt lat="47.59872" lon="-3.11749">
        <ele>27.8</ele>
        <time>2021-08-14T15:42:10Z</time>
      </trkpt>
      <trkpt lat="47.59873" lon="-3.11745">
        <ele>27.6</ele>
        <time>2021-08-14T15:42:11Z</time>
      </trkpt>
      <trkpt lat="47.59875" lon="-3.1174">
        <ele>27.6</ele>
        <time>2021-08-14T15:42:12Z</time>
      </trkpt>
      <trkpt lat="47.59877" lon="-3.11735">
        <ele>27.6</ele>
        <time>2021-08-14T15:42:13Z</time>
      </trkpt>
      <trkpt lat="47.59879" lon="-3.1173">
        <ele>27.6</ele>
        <time>2021-08-14T15:42:14Z</time>
      </trkpt>
      <trkpt lat="47.59881" lon="-3.11725">
        <ele>27.6</ele>
        <time>2021-08-14T15:42:15Z</time>
      </trkpt>
      <trkpt lat="47.59883" lon="-3.1172">
        <ele>27.6</ele>
        <time>2021-08-14T15:42:16Z</time>
      </trkpt>
      <trkpt lat="47.59884" lon="-3.11716">
        <ele>27.6</ele>
        <time>2021-08-14T15:42:17Z</time>
      </trkpt>
      <trkpt lat="47.59885" lon="-3.11712">
        <ele>27.6</ele>
        <time>2021-08-14T15:42:18Z</time>
      </trkpt>
      <trkpt lat="47.59886" lon="-3.11708">
        <ele>27.6</ele>
        <time>2021-08-14T15:42:19Z</time>
      </trkpt>
      <trkpt lat="47.59887" lon="-3.11705">
        <ele>27.8</ele>
        <time>2021-08-14T15:42:20Z</time>
      </trkpt>
      <trkpt lat="47.59888" lon="-3.11701">
        <ele>27.8</ele>
        <time>2021-08-14T15:42:21Z</time>
      </trkpt>
      <trkpt lat="47.59888" lon="-3.11698">
        <ele>28</ele>
        <time>2021-08-14T15:42:22Z</time>
      </trkpt>
      <trkpt lat="47.59888" lon="-3.11695">
        <ele>28</ele>
        <time>2021-08-14T15:42:23Z</time>
      </trkpt>
      <trkpt lat="47.59889" lon="-3.11692">
        <ele>28</ele>
        <time>2021-08-14T15:42:24Z</time>
      </trkpt>
      <trkpt lat="47.59889" lon="-3.1169">
        <ele>28.2</ele>
        <time>2021-08-14T15:42:25Z</time>
      </trkpt>
      <trkpt lat="47.5989" lon="-3.11688">
        <ele>28.2</ele>
        <time>2021-08-14T15:42:26Z</time>
      </trkpt>
      <trkpt lat="47.5989" lon="-3.11687">
        <ele>28.4</ele>
        <time>2021-08-14T15:42:27Z</time>
      </trkpt>
      <trkpt lat="47.5989" lon="-3.11686">
        <ele>28.4</ele>
        <time>2021-08-14T15:42:28Z</time>
      </trkpt>
      <trkpt lat="47.59892" lon="-3.11682">
        <ele>29</ele>
        <time>2021-08-14T15:42:59Z</time>
      </trkpt>
      <trkpt lat="47.59892" lon="-3.1168">
        <ele>29</ele>
        <time>2021-08-14T15:43:00Z</time>
      </trkpt>
      <trkpt lat="47.59893" lon="-3.11678">
        <ele>29</ele>
        <time>2021-08-14T15:43:01Z</time>
      </trkpt>
      <trkpt lat="47.59894" lon="-3.11676">
        <ele>29</ele>
        <time>2021-08-14T15:43:02Z</time>
      </trkpt>
      <trkpt lat="47.59895" lon="-3.11673">
        <ele>29.2</ele>
        <time>2021-08-14T15:43:03Z</time>
      </trkpt>
      <trkpt lat="47.59896" lon="-3.1167">
        <ele>29.2</ele>
        <time>2021-08-14T15:43:04Z</time>
      </trkpt>
      <trkpt lat="47.59897" lon="-3.11667">
        <ele>29.2</ele>
        <time>2021-08-14T15:43:05Z</time>
      </trkpt>
      <trkpt lat="47.59898" lon="-3.11663">
        <ele>29.2</ele>
        <time>2021-08-14T15:43:06Z</time>
      </trkpt>
      <trkpt lat="47.59899" lon="-3.11659">
        <ele>29.2</ele>
        <time>2021-08-14T15:43:07Z</time>
      </trkpt>
      <trkpt lat="47.599" lon="-3.11655">
        <ele>29.2</ele>
        <time>2021-08-14T15:43:08Z</time>
      </trkpt>
      <trkpt lat="47.59901" lon="-3.1165">
        <ele>29.2</ele>
        <time>2021-08-14T15:43:09Z</time>
      </trkpt>
      <trkpt lat="47.59902" lon="-3.11645">
        <ele>29.2</ele>
        <time>2021-08-14T15:43:10Z</time>
      </trkpt>
      <trkpt lat="47.59904" lon="-3.11639">
        <ele>29.2</ele>
        <time>2021-08-14T15:43:11Z</time>
      </trkpt>
      <trkpt lat="47.59905" lon="-3.11634">
        <ele>29.2</ele>
        <time>2021-08-14T15:43:12Z</time>
      </trkpt>
      <trkpt lat="47.59906" lon="-3.11629">
        <ele>29.2</ele>
        <time>2021-08-14T15:43:13Z</time>
      </trkpt>
      <trkpt lat="47.59907" lon="-3.11624">
        <ele>29.2</ele>
        <time>2021-08-14T15:43:14Z</time>
      </trkpt>
      <trkpt lat="47.59909" lon="-3.11618">
        <ele>29.2</ele>
        <time>2021-08-14T15:43:15Z</time>
      </trkpt>
      <trkpt lat="47.5991" lon="-3.11613">
        <ele>29.2</ele>
        <time>2021-08-14T15:43:16Z</time>
      </trkpt>
      <trkpt lat="47.59912" lon="-3.11609">
        <ele>29.2</ele>
        <time>2021-08-14T15:43:17Z</time>
      </trkpt>
      <trkpt lat="47.59913" lon="-3.11603">
        <ele>29.2</ele>
        <time>2021-08-14T15:43:18Z</time>
      </trkpt>
      <trkpt lat="47.59915" lon="-3.11598">
        <ele>29.4</ele>
        <time>2021-08-14T15:43:19Z</time>
      </trkpt>
      <trkpt lat="47.59916" lon="-3.11593">
        <ele>29.4</ele>
        <time>2021-08-14T15:43:20Z</time>
      </trkpt>
      <trkpt lat="47.59918" lon="-3.11588">
        <ele>29.4</ele>
        <time>2021-08-14T15:43:21Z</time>
      </trkpt>
      <trkpt lat="47.59919" lon="-3.11583">
        <ele>29.6</ele>
        <time>2021-08-14T15:43:22Z</time>
      </trkpt>
      <trkpt lat="47.5992" lon="-3.11579">
        <ele>29.6</ele>
        <time>2021-08-14T15:43:23Z</time>
      </trkpt>
      <trkpt lat="47.59921" lon="-3.11574">
        <ele>29.8</ele>
        <time>2021-08-14T15:43:24Z</time>
      </trkpt>
      <trkpt lat="47.59922" lon="-3.1157">
        <ele>29.8</ele>
        <time>2021-08-14T15:43:25Z</time>
      </trkpt>
      <trkpt lat="47.59923" lon="-3.11566">
        <ele>30</ele>
        <time>2021-08-14T15:43:26Z</time>
      </trkpt>
      <trkpt lat="47.59924" lon="-3.11561">
        <ele>30</ele>
        <time>2021-08-14T15:43:27Z</time>
      </trkpt>
      <trkpt lat="47.59926" lon="-3.11556">
        <ele>30</ele>
        <time>2021-08-14T15:43:28Z</time>
      </trkpt>
      <trkpt lat="47.59927" lon="-3.11551">
        <ele>30</ele>
        <time>2021-08-14T15:43:29Z</time>
      </trkpt>
      <trkpt lat="47.59928" lon="-3.11547">
        <ele>30</ele>
        <time>2021-08-14T15:43:30Z</time>
      </trkpt>
      <trkpt lat="47.5993" lon="-3.11542">
        <ele>30.2</ele>
        <time>2021-08-14T15:43:31Z</time>
      </trkpt>
      <trkpt lat="47.59931" lon="-3.11537">
        <ele>30.2</ele>
        <time>2021-08-14T15:43:32Z</time>
      </trkpt>
      <trkpt lat="47.59932" lon="-3.11532">
        <ele>30.4</ele>
        <time>2021-08-14T15:43:33Z</time>
      </trkpt>
      <trkpt lat="47.59933" lon="-3.11527">
        <ele>30.6</ele>
        <time>2021-08-14T15:43:34Z</time>
      </trkpt>
      <trkpt lat="47.59934" lon="-3.11522">
        <ele>30.8</ele>
        <time>2021-08-14T15:43:35Z</time>
      </trkpt>
      <trkpt lat="47.59934" lon="-3.11517">
        <ele>30.8</ele>
        <time>2021-08-14T15:43:36Z</time>
      </trkpt>
      <trkpt lat="47.59934" lon="-3.11512">
        <ele>31</ele>
        <time>2021-08-14T15:43:37Z</time>
      </trkpt>
      <trkpt lat="47.59933" lon="-3.11507">
        <ele>31.2</ele>
        <time>2021-08-14T15:43:38Z</time>
      </trkpt>
      <trkpt lat="47.59931" lon="-3.11502">
        <ele>31.4</ele>
        <time>2021-08-14T15:43:39Z</time>
      </trkpt>
      <trkpt lat="47.5993" lon="-3.11498">
        <ele>31.6</ele>
        <time>2021-08-14T15:43:40Z</time>
      </trkpt>
      <trkpt lat="47.59928" lon="-3.11493">
        <ele>31.8</ele>
        <time>2021-08-14T15:43:41Z</time>
      </trkpt>
      <trkpt lat="47.59927" lon="-3.11489">
        <ele>31.8</ele>
        <time>2021-08-14T15:43:42Z</time>
      </trkpt>
      <trkpt lat="47.59926" lon="-3.11484">
        <ele>31.8</ele>
        <time>2021-08-14T15:43:43Z</time>
      </trkpt>
      <trkpt lat="47.59926" lon="-3.11479">
        <ele>32</ele>
        <time>2021-08-14T15:43:44Z</time>
      </trkpt>
      <trkpt lat="47.59926" lon="-3.11474">
        <ele>32</ele>
        <time>2021-08-14T15:43:45Z</time>
      </trkpt>
      <trkpt lat="47.59928" lon="-3.1147">
        <ele>32</ele>
        <time>2021-08-14T15:43:46Z</time>
      </trkpt>
      <trkpt lat="47.59929" lon="-3.11466">
        <ele>32</ele>
        <time>2021-08-14T15:43:47Z</time>
      </trkpt>
      <trkpt lat="47.59929" lon="-3.11463">
        <ele>32</ele>
        <time>2021-08-14T15:43:48Z</time>
      </trkpt>
      <trkpt lat="47.5993" lon="-3.11461">
        <ele>32</ele>
        <time>2021-08-14T15:43:49Z</time>
      </trkpt>
      <trkpt lat="47.59931" lon="-3.11459">
        <ele>32.2</ele>
        <time>2021-08-14T15:43:50Z</time>
      </trkpt>
      <trkpt lat="47.59932" lon="-3.11457">
        <ele>32.2</ele>
        <time>2021-08-14T15:43:51Z</time>
      </trkpt>
      <trkpt lat="47.59933" lon="-3.11455">
        <ele>32.2</ele>
        <time>2021-08-14T15:43:52Z</time>
      </trkpt>
      <trkpt lat="47.59933" lon="-3.11454">
        <ele>32.4</ele>
        <time>2021-08-14T15:43:53Z</time>
      </trkpt>
      <trkpt lat="47.59934" lon="-3.11452">
        <ele>32.6</ele>
        <time>2021-08-14T15:43:54Z</time>
      </trkpt>
      <trkpt lat="47.59935" lon="-3.1145">
        <ele>32.6</ele>
        <time>2021-08-14T15:43:55Z</time>
      </trkpt>
      <trkpt lat="47.59936" lon="-3.11448">
        <ele>32.8</ele>
        <time>2021-08-14T15:43:56Z</time>
      </trkpt>
      <trkpt lat="47.59938" lon="-3.11445">
        <ele>32.8</ele>
        <time>2021-08-14T15:43:57Z</time>
      </trkpt>
      <trkpt lat="47.59939" lon="-3.11441">
        <ele>32.8</ele>
        <time>2021-08-14T15:43:58Z</time>
      </trkpt>
      <trkpt lat="47.5994" lon="-3.11437">
        <ele>32.8</ele>
        <time>2021-08-14T15:43:59Z</time>
      </trkpt>
      <trkpt lat="47.5994" lon="-3.11432">
        <ele>32.8</ele>
        <time>2021-08-14T15:44:00Z</time>
      </trkpt>
      <trkpt lat="47.59941" lon="-3.11427">
        <ele>32.8</ele>
        <time>2021-08-14T15:44:01Z</time>
      </trkpt>
      <trkpt lat="47.59941" lon="-3.11422">
        <ele>32.8</ele>
        <time>2021-08-14T15:44:02Z</time>
      </trkpt>
      <trkpt lat="47.59942" lon="-3.11417">
        <ele>32.8</ele>
        <time>2021-08-14T15:44:03Z</time>
      </trkpt>
      <trkpt lat="47.59942" lon="-3.11412">
        <ele>32.8</ele>
        <time>2021-08-14T15:44:04Z</time>
      </trkpt>
      <trkpt lat="47.59943" lon="-3.11407">
        <ele>32.6</ele>
        <time>2021-08-14T15:44:05Z</time>
      </trkpt>
      <trkpt lat="47.59944" lon="-3.11402">
        <ele>32.6</ele>
        <time>2021-08-14T15:44:06Z</time>
      </trkpt>
      <trkpt lat="47.59944" lon="-3.11397">
        <ele>32.6</ele>
        <time>2021-08-14T15:44:07Z</time>
      </trkpt>
      <trkpt lat="47.59943" lon="-3.11392">
        <ele>32.6</ele>
        <time>2021-08-14T15:44:08Z</time>
      </trkpt>
      <trkpt lat="47.59942" lon="-3.11386">
        <ele>32.4</ele>
        <time>2021-08-14T15:44:09Z</time>
      </trkpt>
      <trkpt lat="47.59941" lon="-3.1138">
        <ele>32.4</ele>
        <time>2021-08-14T15:44:10Z</time>
      </trkpt>
      <trkpt lat="47.5994" lon="-3.11374">
        <ele>32.4</ele>
        <time>2021-08-14T15:44:11Z</time>
      </trkpt>
      <trkpt lat="47.59938" lon="-3.11368">
        <ele>32.2</ele>
        <time>2021-08-14T15:44:12Z</time>
      </trkpt>
      <trkpt lat="47.59937" lon="-3.11361">
        <ele>32.2</ele>
        <time>2021-08-14T15:44:13Z</time>
      </trkpt>
      <trkpt lat="47.59936" lon="-3.11355">
        <ele>32.2</ele>
        <time>2021-08-14T15:44:14Z</time>
      </trkpt>
      <trkpt lat="47.59935" lon="-3.11349">
        <ele>32.2</ele>
        <time>2021-08-14T15:44:15Z</time>
      </trkpt>
      <trkpt lat="47.59933" lon="-3.11343">
        <ele>32.2</ele>
        <time>2021-08-14T15:44:16Z</time>
      </trkpt>
      <trkpt lat="47.59932" lon="-3.11337">
        <ele>32.2</ele>
        <time>2021-08-14T15:44:17Z</time>
      </trkpt>
      <trkpt lat="47.5993" lon="-3.11331">
        <ele>32.2</ele>
        <time>2021-08-14T15:44:18Z</time>
      </trkpt>
      <trkpt lat="47.59929" lon="-3.11326">
        <ele>32.2</ele>
        <time>2021-08-14T15:44:19Z</time>
      </trkpt>
      <trkpt lat="47.59927" lon="-3.1132">
        <ele>32.2</ele>
        <time>2021-08-14T15:44:20Z</time>
      </trkpt>
      <trkpt lat="47.59926" lon="-3.11314">
        <ele>32.2</ele>
        <time>2021-08-14T15:44:21Z</time>
      </trkpt>
      <trkpt lat="47.59924" lon="-3.11308">
        <ele>32.2</ele>
        <time>2021-08-14T15:44:22Z</time>
      </trkpt>
      <trkpt lat="47.59923" lon="-3.11303">
        <ele>32.2</ele>
        <time>2021-08-14T15:44:23Z</time>
      </trkpt>
      <trkpt lat="47.59921" lon="-3.11297">
        <ele>32.2</ele>
        <time>2021-08-14T15:44:24Z</time>
      </trkpt>
      <trkpt lat="47.59919" lon="-3.11291">
        <ele>32.2</ele>
        <time>2021-08-14T15:44:25Z</time>
      </trkpt>
      <trkpt lat="47.59918" lon="-3.11286">
        <ele>32.2</ele>
        <time>2021-08-14T15:44:26Z</time>
      </trkpt>
      <trkpt lat="47.59917" lon="-3.1128">
        <ele>32.4</ele>
        <time>2021-08-14T15:44:27Z</time>
      </trkpt>
      <trkpt lat="47.59917" lon="-3.11274">
        <ele>32.4</ele>
        <time>2021-08-14T15:44:28Z</time>
      </trkpt>
      <trkpt lat="47.59916" lon="-3.11268">
        <ele>32.6</ele>
        <time>2021-08-14T15:44:29Z</time>
      </trkpt>
      <trkpt lat="47.59915" lon="-3.11262">
        <ele>32.6</ele>
        <time>2021-08-14T15:44:30Z</time>
      </trkpt>
      <trkpt lat="47.59914" lon="-3.11256">
        <ele>32.6</ele>
        <time>2021-08-14T15:44:31Z</time>
      </trkpt>
      <trkpt lat="47.59914" lon="-3.1125">
        <ele>32.6</ele>
        <time>2021-08-14T15:44:32Z</time>
      </trkpt>
      <trkpt lat="47.59913" lon="-3.11244">
        <ele>32.8</ele>
        <time>2021-08-14T15:44:33Z</time>
      </trkpt>
      <trkpt lat="47.59912" lon="-3.11238">
        <ele>32.8</ele>
        <time>2021-08-14T15:44:34Z</time>
      </trkpt>
      <trkpt lat="47.59912" lon="-3.11233">
        <ele>32.8</ele>
        <time>2021-08-14T15:44:35Z</time>
      </trkpt>
      <trkpt lat="47.59911" lon="-3.11228">
        <ele>32.8</ele>
        <time>2021-08-14T15:44:36Z</time>
      </trkpt>
      <trkpt lat="47.5991" lon="-3.11223">
        <ele>32.8</ele>
        <time>2021-08-14T15:44:37Z</time>
      </trkpt>
      <trkpt lat="47.59908" lon="-3.11219">
        <ele>32.8</ele>
        <time>2021-08-14T15:44:38Z</time>
      </trkpt>
      <trkpt lat="47.59907" lon="-3.11216">
        <ele>32.8</ele>
        <time>2021-08-14T15:44:39Z</time>
      </trkpt>
      <trkpt lat="47.59906" lon="-3.11212">
        <ele>33</ele>
        <time>2021-08-14T15:44:40Z</time>
      </trkpt>
      <trkpt lat="47.59905" lon="-3.11209">
        <ele>33</ele>
        <time>2021-08-14T15:44:41Z</time>
      </trkpt>
      <trkpt lat="47.59903" lon="-3.11206">
        <ele>33.2</ele>
        <time>2021-08-14T15:44:42Z</time>
      </trkpt>
      <trkpt lat="47.59902" lon="-3.11204">
        <ele>33.4</ele>
        <time>2021-08-14T15:44:43Z</time>
      </trkpt>
      <trkpt lat="47.59901" lon="-3.11203">
        <ele>33.6</ele>
        <time>2021-08-14T15:44:44Z</time>
      </trkpt>
      <trkpt lat="47.599" lon="-3.11201">
        <ele>33.8</ele>
        <time>2021-08-14T15:44:45Z</time>
      </trkpt>
      <trkpt lat="47.59899" lon="-3.11201">
        <ele>33.8</ele>
        <time>2021-08-14T15:44:46Z</time>
      </trkpt>
      <trkpt lat="47.59898" lon="-3.112">
        <ele>33.8</ele>
        <time>2021-08-14T15:44:47Z</time>
      </trkpt>
      <trkpt lat="47.59898" lon="-3.112">
        <ele>33.8</ele>
        <time>2021-08-14T15:44:48Z</time>
      </trkpt>
      <trkpt lat="47.59897" lon="-3.112">
        <ele>34</ele>
        <time>2021-08-14T15:44:49Z</time>
      </trkpt>
      <trkpt lat="47.59896" lon="-3.11201">
        <ele>34</ele>
        <time>2021-08-14T15:44:50Z</time>
      </trkpt>
      <trkpt lat="47.59894" lon="-3.112">
        <ele>34</ele>
        <time>2021-08-14T15:44:51Z</time>
      </trkpt>
      <trkpt lat="47.59893" lon="-3.112">
        <ele>34.2</ele>
        <time>2021-08-14T15:44:52Z</time>
      </trkpt>
      <trkpt lat="47.59891" lon="-3.11198">
        <ele>34.4</ele>
        <time>2021-08-14T15:44:53Z</time>
      </trkpt>
      <trkpt lat="47.59889" lon="-3.11196">
        <ele>34.4</ele>
        <time>2021-08-14T15:44:54Z</time>
      </trkpt>
      <trkpt lat="47.59887" lon="-3.11193">
        <ele>34.4</ele>
        <time>2021-08-14T15:44:55Z</time>
      </trkpt>
      <trkpt lat="47.59885" lon="-3.1119">
        <ele>34.4</ele>
        <time>2021-08-14T15:44:56Z</time>
      </trkpt>
      <trkpt lat="47.59883" lon="-3.11186">
        <ele>34.4</ele>
        <time>2021-08-14T15:44:57Z</time>
      </trkpt>
      <trkpt lat="47.59881" lon="-3.11182">
        <ele>34.4</ele>
        <time>2021-08-14T15:44:58Z</time>
      </trkpt>
      <trkpt lat="47.59879" lon="-3.11176">
        <ele>34.4</ele>
        <time>2021-08-14T15:44:59Z</time>
      </trkpt>
      <trkpt lat="47.59877" lon="-3.11171">
        <ele>34.4</ele>
        <time>2021-08-14T15:45:00Z</time>
      </trkpt>
      <trkpt lat="47.59874" lon="-3.11168">
        <ele>34.4</ele>
        <time>2021-08-14T15:45:01Z</time>
      </trkpt>
      <trkpt lat="47.59869" lon="-3.11165">
        <ele>34.4</ele>
        <time>2021-08-14T15:45:02Z</time>
      </trkpt>
      <trkpt lat="47.59865" lon="-3.11164">
        <ele>34.4</ele>
        <time>2021-08-14T15:45:03Z</time>
      </trkpt>
      <trkpt lat="47.5986" lon="-3.11163">
        <ele>34.2</ele>
        <time>2021-08-14T15:45:04Z</time>
      </trkpt>
      <trkpt lat="47.59855" lon="-3.11162">
        <ele>34.2</ele>
        <time>2021-08-14T15:45:05Z</time>
      </trkpt>
      <trkpt lat="47.5985" lon="-3.1116">
        <ele>34.2</ele>
        <time>2021-08-14T15:45:06Z</time>
      </trkpt>
      <trkpt lat="47.59845" lon="-3.11159">
        <ele>34.2</ele>
        <time>2021-08-14T15:45:07Z</time>
      </trkpt>
      <trkpt lat="47.5984" lon="-3.11158">
        <ele>34.2</ele>
        <time>2021-08-14T15:45:08Z</time>
      </trkpt>
      <trkpt lat="47.59835" lon="-3.11156">
        <ele>34.2</ele>
        <time>2021-08-14T15:45:09Z</time>
      </trkpt>
      <trkpt lat="47.5983" lon="-3.11154">
        <ele>34</ele>
        <time>2021-08-14T15:45:10Z</time>
      </trkpt>
      <trkpt lat="47.59825" lon="-3.11151">
        <ele>34</ele>
        <time>2021-08-14T15:45:11Z</time>
      </trkpt>
      <trkpt lat="47.5982" lon="-3.11148">
        <ele>34</ele>
        <time>2021-08-14T15:45:12Z</time>
      </trkpt>
      <trkpt lat="47.59815" lon="-3.11143">
        <ele>34</ele>
        <time>2021-08-14T15:45:13Z</time>
      </trkpt>
      <trkpt lat="47.59811" lon="-3.11138">
        <ele>33.8</ele>
        <time>2021-08-14T15:45:14Z</time>
      </trkpt>
      <trkpt lat="47.59807" lon="-3.11132">
        <ele>33.6</ele>
        <time>2021-08-14T15:45:15Z</time>
      </trkpt>
      <trkpt lat="47.59804" lon="-3.11126">
        <ele>33.6</ele>
        <time>2021-08-14T15:45:16Z</time>
      </trkpt>
      <trkpt lat="47.59801" lon="-3.1112">
        <ele>33.4</ele>
        <time>2021-08-14T15:45:17Z</time>
      </trkpt>
      <trkpt lat="47.59798" lon="-3.11114">
        <ele>33.4</ele>
        <time>2021-08-14T15:45:18Z</time>
      </trkpt>
      <trkpt lat="47.59795" lon="-3.11107">
        <ele>33.2</ele>
        <time>2021-08-14T15:45:19Z</time>
      </trkpt>
      <trkpt lat="47.59792" lon="-3.11101">
        <ele>33.2</ele>
        <time>2021-08-14T15:45:20Z</time>
      </trkpt>
      <trkpt lat="47.59789" lon="-3.11095">
        <ele>33.2</ele>
        <time>2021-08-14T15:45:21Z</time>
      </trkpt>
      <trkpt lat="47.59786" lon="-3.11089">
        <ele>33.2</ele>
        <time>2021-08-14T15:45:22Z</time>
      </trkpt>
      <trkpt lat="47.59783" lon="-3.11083">
        <ele>33.2</ele>
        <time>2021-08-14T15:45:23Z</time>
      </trkpt>
      <trkpt lat="47.5978" lon="-3.11077">
        <ele>33.2</ele>
        <time>2021-08-14T15:45:24Z</time>
      </trkpt>
      <trkpt lat="47.59777" lon="-3.11071">
        <ele>33.2</ele>
        <time>2021-08-14T15:45:25Z</time>
      </trkpt>
      <trkpt lat="47.59774" lon="-3.11064">
        <ele>33.2</ele>
        <time>2021-08-14T15:45:26Z</time>
      </trkpt>
      <trkpt lat="47.59771" lon="-3.11058">
        <ele>33.2</ele>
        <time>2021-08-14T15:45:27Z</time>
      </trkpt>
      <trkpt lat="47.59768" lon="-3.11052">
        <ele>33.2</ele>
        <time>2021-08-14T15:45:28Z</time>
      </trkpt>
      <trkpt lat="47.59765" lon="-3.11046">
        <ele>33.2</ele>
        <time>2021-08-14T15:45:29Z</time>
      </trkpt>
      <trkpt lat="47.59762" lon="-3.1104">
        <ele>33.2</ele>
        <time>2021-08-14T15:45:30Z</time>
      </trkpt>
      <trkpt lat="47.59759" lon="-3.11034">
        <ele>33.2</ele>
        <time>2021-08-14T15:45:31Z</time>
      </trkpt>
      <trkpt lat="47.59756" lon="-3.11028">
        <ele>33.4</ele>
        <time>2021-08-14T15:45:32Z</time>
      </trkpt>
      <trkpt lat="47.59753" lon="-3.11022">
        <ele>33.4</ele>
        <time>2021-08-14T15:45:33Z</time>
      </trkpt>
      <trkpt lat="47.5975" lon="-3.11016">
        <ele>33.4</ele>
        <time>2021-08-14T15:45:34Z</time>
      </trkpt>
      <trkpt lat="47.59748" lon="-3.11012">
        <ele>33.4</ele>
        <time>2021-08-14T15:45:35Z</time>
      </trkpt>
      <trkpt lat="47.59744" lon="-3.11009">
        <ele>33.6</ele>
        <time>2021-08-14T15:45:36Z</time>
      </trkpt>
      <trkpt lat="47.59741" lon="-3.1101">
        <ele>33.6</ele>
        <time>2021-08-14T15:45:37Z</time>
      </trkpt>
      <trkpt lat="47.59739" lon="-3.11014">
        <ele>33.6</ele>
        <time>2021-08-14T15:45:38Z</time>
      </trkpt>
      <trkpt lat="47.59738" lon="-3.1102">
        <ele>33.6</ele>
        <time>2021-08-14T15:45:39Z</time>
      </trkpt>
      <trkpt lat="47.59738" lon="-3.11026">
        <ele>33.6</ele>
        <time>2021-08-14T15:45:40Z</time>
      </trkpt>
      <trkpt lat="47.59738" lon="-3.11031">
        <ele>33.6</ele>
        <time>2021-08-14T15:45:41Z</time>
      </trkpt>
      <trkpt lat="47.59737" lon="-3.11038">
        <ele>33.6</ele>
        <time>2021-08-14T15:45:42Z</time>
      </trkpt>
      <trkpt lat="47.59736" lon="-3.11044">
        <ele>33.6</ele>
        <time>2021-08-14T15:45:43Z</time>
      </trkpt>
      <trkpt lat="47.59734" lon="-3.1105">
        <ele>33.6</ele>
        <time>2021-08-14T15:45:44Z</time>
      </trkpt>
      <trkpt lat="47.59734" lon="-3.11057">
        <ele>33.6</ele>
        <time>2021-08-14T15:45:45Z</time>
      </trkpt>
      <trkpt lat="47.59733" lon="-3.11063">
        <ele>33.6</ele>
        <time>2021-08-14T15:45:46Z</time>
      </trkpt>
      <trkpt lat="47.59732" lon="-3.11069">
        <ele>33.6</ele>
        <time>2021-08-14T15:45:47Z</time>
      </trkpt>
      <trkpt lat="47.59731" lon="-3.11076">
        <ele>33.6</ele>
        <time>2021-08-14T15:45:48Z</time>
      </trkpt>
      <trkpt lat="47.59731" lon="-3.11082">
        <ele>33.4</ele>
        <time>2021-08-14T15:45:49Z</time>
      </trkpt>
      <trkpt lat="47.5973" lon="-3.11088">
        <ele>33.2</ele>
        <time>2021-08-14T15:45:50Z</time>
      </trkpt>
      <trkpt lat="47.59729" lon="-3.11094">
        <ele>33.2</ele>
        <time>2021-08-14T15:45:51Z</time>
      </trkpt>
      <trkpt lat="47.59728" lon="-3.111">
        <ele>33.2</ele>
        <time>2021-08-14T15:45:52Z</time>
      </trkpt>
      <trkpt lat="47.59726" lon="-3.11106">
        <ele>33</ele>
        <time>2021-08-14T15:45:53Z</time>
      </trkpt>
      <trkpt lat="47.59724" lon="-3.1111">
        <ele>33</ele>
        <time>2021-08-14T15:45:54Z</time>
      </trkpt>
      <trkpt lat="47.5972" lon="-3.11112">
        <ele>33</ele>
        <time>2021-08-14T15:45:55Z</time>
      </trkpt>
      <trkpt lat="47.59716" lon="-3.11112">
        <ele>33</ele>
        <time>2021-08-14T15:45:56Z</time>
      </trkpt>
      <trkpt lat="47.59713" lon="-3.1111">
        <ele>33</ele>
        <time>2021-08-14T15:45:57Z</time>
      </trkpt>
      <trkpt lat="47.59709" lon="-3.11109">
        <ele>33</ele>
        <time>2021-08-14T15:45:58Z</time>
      </trkpt>
      <trkpt lat="47.59705" lon="-3.11108">
        <ele>33</ele>
        <time>2021-08-14T15:45:59Z</time>
      </trkpt>
      <trkpt lat="47.597" lon="-3.11107">
        <ele>33</ele>
        <time>2021-08-14T15:46:00Z</time>
      </trkpt>
      <trkpt lat="47.59696" lon="-3.11106">
        <ele>33</ele>
        <time>2021-08-14T15:46:01Z</time>
      </trkpt>
      <trkpt lat="47.59691" lon="-3.11106">
        <ele>33</ele>
        <time>2021-08-14T15:46:02Z</time>
      </trkpt>
      <trkpt lat="47.59687" lon="-3.11105">
        <ele>33</ele>
        <time>2021-08-14T15:46:03Z</time>
      </trkpt>
      <trkpt lat="47.59682" lon="-3.11105">
        <ele>33</ele>
        <time>2021-08-14T15:46:04Z</time>
      </trkpt>
      <trkpt lat="47.59677" lon="-3.11106">
        <ele>33.2</ele>
        <time>2021-08-14T15:46:05Z</time>
      </trkpt>
      <trkpt lat="47.59673" lon="-3.11106">
        <ele>33.2</ele>
        <time>2021-08-14T15:46:06Z</time>
      </trkpt>
      <trkpt lat="47.59668" lon="-3.11107">
        <ele>33.2</ele>
        <time>2021-08-14T15:46:07Z</time>
      </trkpt>
      <trkpt lat="47.59663" lon="-3.11107">
        <ele>33.2</ele>
        <time>2021-08-14T15:46:08Z</time>
      </trkpt>
      <trkpt lat="47.59658" lon="-3.11108">
        <ele>33.4</ele>
        <time>2021-08-14T15:46:09Z</time>
      </trkpt>
      <trkpt lat="47.59653" lon="-3.11108">
        <ele>33.4</ele>
        <time>2021-08-14T15:46:10Z</time>
      </trkpt>
      <trkpt lat="47.59649" lon="-3.11109">
        <ele>33.4</ele>
        <time>2021-08-14T15:46:11Z</time>
      </trkpt>
      <trkpt lat="47.59644" lon="-3.1111">
        <ele>33.4</ele>
        <time>2021-08-14T15:46:12Z</time>
      </trkpt>
      <trkpt lat="47.59639" lon="-3.1111">
        <ele>33.4</ele>
        <time>2021-08-14T15:46:13Z</time>
      </trkpt>
      <trkpt lat="47.59634" lon="-3.11111">
        <ele>33.6</ele>
        <time>2021-08-14T15:46:14Z</time>
      </trkpt>
      <trkpt lat="47.59629" lon="-3.11111">
        <ele>33.6</ele>
        <time>2021-08-14T15:46:15Z</time>
      </trkpt>
      <trkpt lat="47.59624" lon="-3.11111">
        <ele>33.6</ele>
        <time>2021-08-14T15:46:16Z</time>
      </trkpt>
      <trkpt lat="47.59619" lon="-3.11111">
        <ele>33.6</ele>
        <time>2021-08-14T15:46:17Z</time>
      </trkpt>
      <trkpt lat="47.59614" lon="-3.1111">
        <ele>33.6</ele>
        <time>2021-08-14T15:46:18Z</time>
      </trkpt>
      <trkpt lat="47.59609" lon="-3.11108">
        <ele>33.6</ele>
        <time>2021-08-14T15:46:19Z</time>
      </trkpt>
      <trkpt lat="47.59604" lon="-3.11105">
        <ele>33.6</ele>
        <time>2021-08-14T15:46:20Z</time>
      </trkpt>
      <trkpt lat="47.59599" lon="-3.11101">
        <ele>33.6</ele>
        <time>2021-08-14T15:46:21Z</time>
      </trkpt>
      <trkpt lat="47.59594" lon="-3.11096">
        <ele>33.6</ele>
        <time>2021-08-14T15:46:22Z</time>
      </trkpt>
      <trkpt lat="47.5959" lon="-3.11092">
        <ele>33.6</ele>
        <time>2021-08-14T15:46:23Z</time>
      </trkpt>
      <trkpt lat="47.59585" lon="-3.11087">
        <ele>33.6</ele>
        <time>2021-08-14T15:46:24Z</time>
      </trkpt>
      <trkpt lat="47.59581" lon="-3.11081">
        <ele>33.6</ele>
        <time>2021-08-14T15:46:25Z</time>
      </trkpt>
      <trkpt lat="47.59576" lon="-3.11076">
        <ele>33.6</ele>
        <time>2021-08-14T15:46:26Z</time>
      </trkpt>
      <trkpt lat="47.59571" lon="-3.11071">
        <ele>33.6</ele>
        <time>2021-08-14T15:46:27Z</time>
      </trkpt>
      <trkpt lat="47.59566" lon="-3.11066">
        <ele>33.6</ele>
        <time>2021-08-14T15:46:28Z</time>
      </trkpt>
      <trkpt lat="47.59561" lon="-3.11061">
        <ele>33.6</ele>
        <time>2021-08-14T15:46:29Z</time>
      </trkpt>
      <trkpt lat="47.59556" lon="-3.11056">
        <ele>33.6</ele>
        <time>2021-08-14T15:46:30Z</time>
      </trkpt>
      <trkpt lat="47.5955" lon="-3.11051">
        <ele>33.6</ele>
        <time>2021-08-14T15:46:31Z</time>
      </trkpt>
      <trkpt lat="47.59545" lon="-3.11047">
        <ele>33.2</ele>
        <time>2021-08-14T15:46:32Z</time>
      </trkpt>
      <trkpt lat="47.59539" lon="-3.11042">
        <ele>32.8</ele>
        <time>2021-08-14T15:46:33Z</time>
      </trkpt>
      <trkpt lat="47.59534" lon="-3.11037">
        <ele>32.4</ele>
        <time>2021-08-14T15:46:34Z</time>
      </trkpt>
      <trkpt lat="47.59528" lon="-3.11033">
        <ele>32.2</ele>
        <time>2021-08-14T15:46:35Z</time>
      </trkpt>
      <trkpt lat="47.59522" lon="-3.11029">
        <ele>32</ele>
        <time>2021-08-14T15:46:36Z</time>
      </trkpt>
      <trkpt lat="47.59516" lon="-3.11025">
        <ele>32</ele>
        <time>2021-08-14T15:46:37Z</time>
      </trkpt>
      <trkpt lat="47.5951" lon="-3.11021">
        <ele>31.8</ele>
        <time>2021-08-14T15:46:38Z</time>
      </trkpt>
      <trkpt lat="47.59504" lon="-3.11016">
        <ele>31.4</ele>
        <time>2021-08-14T15:46:39Z</time>
      </trkpt>
      <trkpt lat="47.59498" lon="-3.11011">
        <ele>31.2</ele>
        <time>2021-08-14T15:46:40Z</time>
      </trkpt>
      <trkpt lat="47.59491" lon="-3.11007">
        <ele>31</ele>
        <time>2021-08-14T15:46:41Z</time>
      </trkpt>
      <trkpt lat="47.59485" lon="-3.11003">
        <ele>30.8</ele>
        <time>2021-08-14T15:46:42Z</time>
      </trkpt>
      <trkpt lat="47.59478" lon="-3.10999">
        <ele>30.6</ele>
        <time>2021-08-14T15:46:43Z</time>
      </trkpt>
      <trkpt lat="47.59472" lon="-3.10995">
        <ele>30.6</ele>
        <time>2021-08-14T15:46:44Z</time>
      </trkpt>
      <trkpt lat="47.59465" lon="-3.1099">
        <ele>30.2</ele>
        <time>2021-08-14T15:46:45Z</time>
      </trkpt>
      <trkpt lat="47.59459" lon="-3.10986">
        <ele>30</ele>
        <time>2021-08-14T15:46:46Z</time>
      </trkpt>
      <trkpt lat="47.59452" lon="-3.10982">
        <ele>29.6</ele>
        <time>2021-08-14T15:46:47Z</time>
      </trkpt>
      <trkpt lat="47.59445" lon="-3.10977">
        <ele>29.4</ele>
        <time>2021-08-14T15:46:48Z</time>
      </trkpt>
      <trkpt lat="47.59438" lon="-3.10972">
        <ele>29.2</ele>
        <time>2021-08-14T15:46:49Z</time>
      </trkpt>
      <trkpt lat="47.59432" lon="-3.10968">
        <ele>29</ele>
        <time>2021-08-14T15:46:50Z</time>
      </trkpt>
      <trkpt lat="47.59425" lon="-3.10963">
        <ele>28.8</ele>
        <time>2021-08-14T15:46:51Z</time>
      </trkpt>
      <trkpt lat="47.59419" lon="-3.10958">
        <ele>28.4</ele>
        <time>2021-08-14T15:46:52Z</time>
      </trkpt>
      <trkpt lat="47.59413" lon="-3.10954">
        <ele>28.2</ele>
        <time>2021-08-14T15:46:53Z</time>
      </trkpt>
      <trkpt lat="47.59407" lon="-3.1095">
        <ele>28</ele>
        <time>2021-08-14T15:46:54Z</time>
      </trkpt>
      <trkpt lat="47.59402" lon="-3.10945">
        <ele>27.8</ele>
        <time>2021-08-14T15:46:55Z</time>
      </trkpt>
      <trkpt lat="47.59396" lon="-3.10941">
        <ele>27.8</ele>
        <time>2021-08-14T15:46:56Z</time>
      </trkpt>
      <trkpt lat="47.59391" lon="-3.10937">
        <ele>27.8</ele>
        <time>2021-08-14T15:46:57Z</time>
      </trkpt>
      <trkpt lat="47.59386" lon="-3.10933">
        <ele>27.8</ele>
        <time>2021-08-14T15:46:58Z</time>
      </trkpt>
      <trkpt lat="47.59381" lon="-3.10929">
        <ele>27.8</ele>
        <time>2021-08-14T15:46:59Z</time>
      </trkpt>
      <trkpt lat="47.59376" lon="-3.10925">
        <ele>27.8</ele>
        <time>2021-08-14T15:47:00Z</time>
      </trkpt>
      <trkpt lat="47.59371" lon="-3.10921">
        <ele>27.8</ele>
        <time>2021-08-14T15:47:01Z</time>
      </trkpt>
      <trkpt lat="47.59365" lon="-3.10917">
        <ele>27.8</ele>
        <time>2021-08-14T15:47:02Z</time>
      </trkpt>
      <trkpt lat="47.5936" lon="-3.10914">
        <ele>27.8</ele>
        <time>2021-08-14T15:47:03Z</time>
      </trkpt>
      <trkpt lat="47.59355" lon="-3.1091">
        <ele>27.8</ele>
        <time>2021-08-14T15:47:04Z</time>
      </trkpt>
      <trkpt lat="47.5935" lon="-3.10906">
        <ele>28</ele>
        <time>2021-08-14T15:47:05Z</time>
      </trkpt>
      <trkpt lat="47.59344" lon="-3.10902">
        <ele>28.2</ele>
        <time>2021-08-14T15:47:06Z</time>
      </trkpt>
      <trkpt lat="47.59339" lon="-3.10897">
        <ele>28.2</ele>
        <time>2021-08-14T15:47:07Z</time>
      </trkpt>
      <trkpt lat="47.59334" lon="-3.10893">
        <ele>28.2</ele>
        <time>2021-08-14T15:47:08Z</time>
      </trkpt>
      <trkpt lat="47.59329" lon="-3.10889">
        <ele>28.2</ele>
        <time>2021-08-14T15:47:09Z</time>
      </trkpt>
      <trkpt lat="47.59324" lon="-3.10885">
        <ele>28.2</ele>
        <time>2021-08-14T15:47:10Z</time>
      </trkpt>
      <trkpt lat="47.59318" lon="-3.10881">
        <ele>28.2</ele>
        <time>2021-08-14T15:47:11Z</time>
      </trkpt>
      <trkpt lat="47.59313" lon="-3.10876">
        <ele>28.2</ele>
        <time>2021-08-14T15:47:12Z</time>
      </trkpt>
      <trkpt lat="47.59307" lon="-3.10872">
        <ele>28.2</ele>
        <time>2021-08-14T15:47:13Z</time>
      </trkpt>
      <trkpt lat="47.59302" lon="-3.10868">
        <ele>28.2</ele>
        <time>2021-08-14T15:47:14Z</time>
      </trkpt>
      <trkpt lat="47.59296" lon="-3.10864">
        <ele>28.2</ele>
        <time>2021-08-14T15:47:15Z</time>
      </trkpt>
      <trkpt lat="47.59291" lon="-3.10859">
        <ele>28.2</ele>
        <time>2021-08-14T15:47:16Z</time>
      </trkpt>
      <trkpt lat="47.59285" lon="-3.10855">
        <ele>28.2</ele>
        <time>2021-08-14T15:47:17Z</time>
      </trkpt>
      <trkpt lat="47.5928" lon="-3.10851">
        <ele>28.2</ele>
        <time>2021-08-14T15:47:18Z</time>
      </trkpt>
      <trkpt lat="47.59274" lon="-3.10847">
        <ele>28</ele>
        <time>2021-08-14T15:47:19Z</time>
      </trkpt>
      <trkpt lat="47.59269" lon="-3.10843">
        <ele>27.8</ele>
        <time>2021-08-14T15:47:20Z</time>
      </trkpt>
      <trkpt lat="47.59263" lon="-3.10839">
        <ele>27.6</ele>
        <time>2021-08-14T15:47:21Z</time>
      </trkpt>
      <trkpt lat="47.59258" lon="-3.10835">
        <ele>27.2</ele>
        <time>2021-08-14T15:47:22Z</time>
      </trkpt>
      <trkpt lat="47.59252" lon="-3.1083">
        <ele>27</ele>
        <time>2021-08-14T15:47:23Z</time>
      </trkpt>
      <trkpt lat="47.59247" lon="-3.10826">
        <ele>26.8</ele>
        <time>2021-08-14T15:47:24Z</time>
      </trkpt>
      <trkpt lat="47.59242" lon="-3.10822">
        <ele>26.8</ele>
        <time>2021-08-14T15:47:25Z</time>
      </trkpt>
      <trkpt lat="47.59237" lon="-3.10817">
        <ele>26.6</ele>
        <time>2021-08-14T15:47:26Z</time>
      </trkpt>
      <trkpt lat="47.59232" lon="-3.10813">
        <ele>26.6</ele>
        <time>2021-08-14T15:47:27Z</time>
      </trkpt>
      <trkpt lat="47.59227" lon="-3.10807">
        <ele>26.6</ele>
        <time>2021-08-14T15:47:28Z</time>
      </trkpt>
      <trkpt lat="47.59222" lon="-3.10802">
        <ele>26.4</ele>
        <time>2021-08-14T15:47:29Z</time>
      </trkpt>
      <trkpt lat="47.59217" lon="-3.10796">
        <ele>26.2</ele>
        <time>2021-08-14T15:47:30Z</time>
      </trkpt>
      <trkpt lat="47.59212" lon="-3.1079">
        <ele>26</ele>
        <time>2021-08-14T15:47:31Z</time>
      </trkpt>
      <trkpt lat="47.59207" lon="-3.10785">
        <ele>26</ele>
        <time>2021-08-14T15:47:32Z</time>
      </trkpt>
      <trkpt lat="47.59202" lon="-3.10779">
        <ele>25.8</ele>
        <time>2021-08-14T15:47:33Z</time>
      </trkpt>
      <trkpt lat="47.59198" lon="-3.10773">
        <ele>25.8</ele>
        <time>2021-08-14T15:47:34Z</time>
      </trkpt>
      <trkpt lat="47.59193" lon="-3.10768">
        <ele>25.8</ele>
        <time>2021-08-14T15:47:35Z</time>
      </trkpt>
      <trkpt lat="47.59189" lon="-3.10763">
        <ele>25.8</ele>
        <time>2021-08-14T15:47:36Z</time>
      </trkpt>
      <trkpt lat="47.59184" lon="-3.10757">
        <ele>25.8</ele>
        <time>2021-08-14T15:47:37Z</time>
      </trkpt>
      <trkpt lat="47.59179" lon="-3.10752">
        <ele>25.6</ele>
        <time>2021-08-14T15:47:38Z</time>
      </trkpt>
      <trkpt lat="47.59175" lon="-3.10746">
        <ele>25.6</ele>
        <time>2021-08-14T15:47:39Z</time>
      </trkpt>
      <trkpt lat="47.59171" lon="-3.10741">
        <ele>25.6</ele>
        <time>2021-08-14T15:47:40Z</time>
      </trkpt>
      <trkpt lat="47.59166" lon="-3.10735">
        <ele>25.6</ele>
        <time>2021-08-14T15:47:41Z</time>
      </trkpt>
      <trkpt lat="47.59162" lon="-3.1073">
        <ele>25.6</ele>
        <time>2021-08-14T15:47:42Z</time>
      </trkpt>
      <trkpt lat="47.59157" lon="-3.10725">
        <ele>25.6</ele>
        <time>2021-08-14T15:47:43Z</time>
      </trkpt>
      <trkpt lat="47.59153" lon="-3.1072">
        <ele>25.6</ele>
        <time>2021-08-14T15:47:44Z</time>
      </trkpt>
      <trkpt lat="47.59149" lon="-3.10715">
        <ele>25.6</ele>
        <time>2021-08-14T15:47:45Z</time>
      </trkpt>
      <trkpt lat="47.59144" lon="-3.10709">
        <ele>25.6</ele>
        <time>2021-08-14T15:47:46Z</time>
      </trkpt>
      <trkpt lat="47.5914" lon="-3.10704">
        <ele>25.6</ele>
        <time>2021-08-14T15:47:47Z</time>
      </trkpt>
      <trkpt lat="47.59136" lon="-3.10699">
        <ele>25.6</ele>
        <time>2021-08-14T15:47:48Z</time>
      </trkpt>
      <trkpt lat="47.59131" lon="-3.10694">
        <ele>25.6</ele>
        <time>2021-08-14T15:47:49Z</time>
      </trkpt>
      <trkpt lat="47.59127" lon="-3.10689">
        <ele>25.6</ele>
        <time>2021-08-14T15:47:50Z</time>
      </trkpt>
      <trkpt lat="47.59122" lon="-3.10683">
        <ele>25.8</ele>
        <time>2021-08-14T15:47:51Z</time>
      </trkpt>
      <trkpt lat="47.59118" lon="-3.10678">
        <ele>25.8</ele>
        <time>2021-08-14T15:47:52Z</time>
      </trkpt>
      <trkpt lat="47.59113" lon="-3.10673">
        <ele>25.8</ele>
        <time>2021-08-14T15:47:53Z</time>
      </trkpt>
      <trkpt lat="47.59109" lon="-3.10667">
        <ele>25.8</ele>
        <time>2021-08-14T15:47:54Z</time>
      </trkpt>
      <trkpt lat="47.59105" lon="-3.10661">
        <ele>25.8</ele>
        <time>2021-08-14T15:47:55Z</time>
      </trkpt>
      <trkpt lat="47.591" lon="-3.10656">
        <ele>25.8</ele>
        <time>2021-08-14T15:47:56Z</time>
      </trkpt>
      <trkpt lat="47.59096" lon="-3.1065">
        <ele>26</ele>
        <time>2021-08-14T15:47:57Z</time>
      </trkpt>
      <trkpt lat="47.59092" lon="-3.10644">
        <ele>26</ele>
        <time>2021-08-14T15:47:58Z</time>
      </trkpt>
      <trkpt lat="47.59088" lon="-3.10639">
        <ele>26</ele>
        <time>2021-08-14T15:47:59Z</time>
      </trkpt>
      <trkpt lat="47.59085" lon="-3.10633">
        <ele>26</ele>
        <time>2021-08-14T15:48:00Z</time>
      </trkpt>
      <trkpt lat="47.59081" lon="-3.10628">
        <ele>26.2</ele>
        <time>2021-08-14T15:48:01Z</time>
      </trkpt>
      <trkpt lat="47.59078" lon="-3.10623">
        <ele>26.2</ele>
        <time>2021-08-14T15:48:02Z</time>
      </trkpt>
      <trkpt lat="47.59074" lon="-3.10617">
        <ele>26.4</ele>
        <time>2021-08-14T15:48:03Z</time>
      </trkpt>
      <trkpt lat="47.59071" lon="-3.10612">
        <ele>26.4</ele>
        <time>2021-08-14T15:48:04Z</time>
      </trkpt>
      <trkpt lat="47.59068" lon="-3.10607">
        <ele>26.4</ele>
        <time>2021-08-14T15:48:05Z</time>
      </trkpt>
      <trkpt lat="47.59065" lon="-3.10602">
        <ele>26.6</ele>
        <time>2021-08-14T15:48:06Z</time>
      </trkpt>
      <trkpt lat="47.59063" lon="-3.10598">
        <ele>26.6</ele>
        <time>2021-08-14T15:48:07Z</time>
      </trkpt>
      <trkpt lat="47.5906" lon="-3.10593">
        <ele>26.6</ele>
        <time>2021-08-14T15:48:08Z</time>
      </trkpt>
      <trkpt lat="47.59057" lon="-3.10588">
        <ele>26.6</ele>
        <time>2021-08-14T15:48:09Z</time>
      </trkpt>
      <trkpt lat="47.59055" lon="-3.10583">
        <ele>26.8</ele>
        <time>2021-08-14T15:48:10Z</time>
      </trkpt>
      <trkpt lat="47.59052" lon="-3.10578">
        <ele>26.8</ele>
        <time>2021-08-14T15:48:11Z</time>
      </trkpt>
      <trkpt lat="47.5905" lon="-3.10573">
        <ele>27</ele>
        <time>2021-08-14T15:48:12Z</time>
      </trkpt>
      <trkpt lat="47.59047" lon="-3.10568">
        <ele>27.2</ele>
        <time>2021-08-14T15:48:13Z</time>
      </trkpt>
      <trkpt lat="47.59045" lon="-3.10563">
        <ele>27.4</ele>
        <time>2021-08-14T15:48:14Z</time>
      </trkpt>
      <trkpt lat="47.59042" lon="-3.10558">
        <ele>28</ele>
        <time>2021-08-14T15:48:15Z</time>
      </trkpt>
      <trkpt lat="47.5904" lon="-3.10552">
        <ele>28.2</ele>
        <time>2021-08-14T15:48:16Z</time>
      </trkpt>
      <trkpt lat="47.59037" lon="-3.10547">
        <ele>28.4</ele>
        <time>2021-08-14T15:48:17Z</time>
      </trkpt>
      <trkpt lat="47.59035" lon="-3.10541">
        <ele>28.6</ele>
        <time>2021-08-14T15:48:18Z</time>
      </trkpt>
      <trkpt lat="47.59032" lon="-3.10536">
        <ele>28.8</ele>
        <time>2021-08-14T15:48:19Z</time>
      </trkpt>
      <trkpt lat="47.59029" lon="-3.1053">
        <ele>28.8</ele>
        <time>2021-08-14T15:48:20Z</time>
      </trkpt>
      <trkpt lat="47.59027" lon="-3.10524">
        <ele>28.8</ele>
        <time>2021-08-14T15:48:21Z</time>
      </trkpt>
      <trkpt lat="47.59024" lon="-3.10518">
        <ele>29</ele>
        <time>2021-08-14T15:48:22Z</time>
      </trkpt>
      <trkpt lat="47.59021" lon="-3.10512">
        <ele>29</ele>
        <time>2021-08-14T15:48:23Z</time>
      </trkpt>
      <trkpt lat="47.59018" lon="-3.10507">
        <ele>29</ele>
        <time>2021-08-14T15:48:24Z</time>
      </trkpt>
      <trkpt lat="47.59015" lon="-3.10501">
        <ele>29</ele>
        <time>2021-08-14T15:48:25Z</time>
      </trkpt>
      <trkpt lat="47.59012" lon="-3.10496">
        <ele>29</ele>
        <time>2021-08-14T15:48:26Z</time>
      </trkpt>
      <trkpt lat="47.59008" lon="-3.1049">
        <ele>29</ele>
        <time>2021-08-14T15:48:27Z</time>
      </trkpt>
      <trkpt lat="47.59004" lon="-3.10485">
        <ele>29</ele>
        <time>2021-08-14T15:48:28Z</time>
      </trkpt>
      <trkpt lat="47.59" lon="-3.1048">
        <ele>29</ele>
        <time>2021-08-14T15:48:29Z</time>
      </trkpt>
      <trkpt lat="47.58996" lon="-3.10476">
        <ele>29</ele>
        <time>2021-08-14T15:48:30Z</time>
      </trkpt>
      <trkpt lat="47.58991" lon="-3.10472">
        <ele>29</ele>
        <time>2021-08-14T15:48:31Z</time>
      </trkpt>
      <trkpt lat="47.58986" lon="-3.10469">
        <ele>29</ele>
        <time>2021-08-14T15:48:32Z</time>
      </trkpt>
      <trkpt lat="47.58981" lon="-3.10467">
        <ele>29</ele>
        <time>2021-08-14T15:48:33Z</time>
      </trkpt>
      <trkpt lat="47.58976" lon="-3.10466">
        <ele>29</ele>
        <time>2021-08-14T15:48:34Z</time>
      </trkpt>
      <trkpt lat="47.5897" lon="-3.10466">
        <ele>29</ele>
        <time>2021-08-14T15:48:35Z</time>
      </trkpt>
      <trkpt lat="47.58965" lon="-3.10466">
        <ele>29</ele>
        <time>2021-08-14T15:48:36Z</time>
      </trkpt>
      <trkpt lat="47.5896" lon="-3.10466">
        <ele>28.8</ele>
        <time>2021-08-14T15:48:37Z</time>
      </trkpt>
      <trkpt lat="47.58954" lon="-3.10466">
        <ele>28.8</ele>
        <time>2021-08-14T15:48:38Z</time>
      </trkpt>
      <trkpt lat="47.58949" lon="-3.10465">
        <ele>28.8</ele>
        <time>2021-08-14T15:48:39Z</time>
      </trkpt>
      <trkpt lat="47.58944" lon="-3.10465">
        <ele>28.8</ele>
        <time>2021-08-14T15:48:40Z</time>
      </trkpt>
      <trkpt lat="47.58939" lon="-3.10465">
        <ele>28.6</ele>
        <time>2021-08-14T15:48:41Z</time>
      </trkpt>
      <trkpt lat="47.58933" lon="-3.10465">
        <ele>28.6</ele>
        <time>2021-08-14T15:48:42Z</time>
      </trkpt>
      <trkpt lat="47.58928" lon="-3.10465">
        <ele>28.4</ele>
        <time>2021-08-14T15:48:43Z</time>
      </trkpt>
      <trkpt lat="47.58923" lon="-3.10465">
        <ele>28.4</ele>
        <time>2021-08-14T15:48:44Z</time>
      </trkpt>
      <trkpt lat="47.58918" lon="-3.10465">
        <ele>28.2</ele>
        <time>2021-08-14T15:48:45Z</time>
      </trkpt>
      <trkpt lat="47.58912" lon="-3.10466">
        <ele>28.2</ele>
        <time>2021-08-14T15:48:46Z</time>
      </trkpt>
      <trkpt lat="47.58907" lon="-3.10467">
        <ele>28.2</ele>
        <time>2021-08-14T15:48:47Z</time>
      </trkpt>
      <trkpt lat="47.58902" lon="-3.10468">
        <ele>28.2</ele>
        <time>2021-08-14T15:48:48Z</time>
      </trkpt>
      <trkpt lat="47.58897" lon="-3.10469">
        <ele>28.2</ele>
        <time>2021-08-14T15:48:49Z</time>
      </trkpt>
      <trkpt lat="47.58892" lon="-3.10471">
        <ele>28.2</ele>
        <time>2021-08-14T15:48:50Z</time>
      </trkpt>
      <trkpt lat="47.58887" lon="-3.10474">
        <ele>28.2</ele>
        <time>2021-08-14T15:48:51Z</time>
      </trkpt>
      <trkpt lat="47.58882" lon="-3.10476">
        <ele>28.2</ele>
        <time>2021-08-14T15:48:52Z</time>
      </trkpt>
      <trkpt lat="47.58878" lon="-3.10479">
        <ele>28.2</ele>
        <time>2021-08-14T15:48:53Z</time>
      </trkpt>
      <trkpt lat="47.58873" lon="-3.10483">
        <ele>28.2</ele>
        <time>2021-08-14T15:48:54Z</time>
      </trkpt>
      <trkpt lat="47.58869" lon="-3.10487">
        <ele>28.2</ele>
        <time>2021-08-14T15:48:55Z</time>
      </trkpt>
      <trkpt lat="47.58864" lon="-3.10491">
        <ele>28.4</ele>
        <time>2021-08-14T15:48:56Z</time>
      </trkpt>
      <trkpt lat="47.5886" lon="-3.10496">
        <ele>28.4</ele>
        <time>2021-08-14T15:48:57Z</time>
      </trkpt>
      <trkpt lat="47.58856" lon="-3.10501">
        <ele>28.4</ele>
        <time>2021-08-14T15:48:58Z</time>
      </trkpt>
      <trkpt lat="47.58852" lon="-3.10505">
        <ele>28.4</ele>
        <time>2021-08-14T15:48:59Z</time>
      </trkpt>
      <trkpt lat="47.58848" lon="-3.1051">
        <ele>28.4</ele>
        <time>2021-08-14T15:49:00Z</time>
      </trkpt>
      <trkpt lat="47.58843" lon="-3.10514">
        <ele>28.4</ele>
        <time>2021-08-14T15:49:01Z</time>
      </trkpt>
      <trkpt lat="47.58839" lon="-3.10517">
        <ele>28.4</ele>
        <time>2021-08-14T15:49:02Z</time>
      </trkpt>
      <trkpt lat="47.58834" lon="-3.10519">
        <ele>28.4</ele>
        <time>2021-08-14T15:49:03Z</time>
      </trkpt>
      <trkpt lat="47.58829" lon="-3.10519">
        <ele>28.4</ele>
        <time>2021-08-14T15:49:04Z</time>
      </trkpt>
      <trkpt lat="47.58824" lon="-3.10519">
        <ele>28.4</ele>
        <time>2021-08-14T15:49:05Z</time>
      </trkpt>
      <trkpt lat="47.58819" lon="-3.10517">
        <ele>28.4</ele>
        <time>2021-08-14T15:49:06Z</time>
      </trkpt>
      <trkpt lat="47.58814" lon="-3.10515">
        <ele>28.4</ele>
        <time>2021-08-14T15:49:07Z</time>
      </trkpt>
      <trkpt lat="47.58808" lon="-3.10513">
        <ele>28.4</ele>
        <time>2021-08-14T15:49:08Z</time>
      </trkpt>
      <trkpt lat="47.58802" lon="-3.10511">
        <ele>28.4</ele>
        <time>2021-08-14T15:49:09Z</time>
      </trkpt>
      <trkpt lat="47.58795" lon="-3.10508">
        <ele>28.4</ele>
        <time>2021-08-14T15:49:10Z</time>
      </trkpt>
      <trkpt lat="47.58788" lon="-3.10505">
        <ele>28.4</ele>
        <time>2021-08-14T15:49:11Z</time>
      </trkpt>
      <trkpt lat="47.5878" lon="-3.10502">
        <ele>28.2</ele>
        <time>2021-08-14T15:49:12Z</time>
      </trkpt>
      <trkpt lat="47.58772" lon="-3.10499">
        <ele>28.2</ele>
        <time>2021-08-14T15:49:13Z</time>
      </trkpt>
      <trkpt lat="47.58763" lon="-3.10497">
        <ele>28</ele>
        <time>2021-08-14T15:49:14Z</time>
      </trkpt>
      <trkpt lat="47.58754" lon="-3.10496">
        <ele>28</ele>
        <time>2021-08-14T15:49:15Z</time>
      </trkpt>
      <trkpt lat="47.58745" lon="-3.10495">
        <ele>27.8</ele>
        <time>2021-08-14T15:49:16Z</time>
      </trkpt>
      <trkpt lat="47.58735" lon="-3.10496">
        <ele>27.8</ele>
        <time>2021-08-14T15:49:17Z</time>
      </trkpt>
      <trkpt lat="47.58725" lon="-3.10496">
        <ele>27.2</ele>
        <time>2021-08-14T15:49:18Z</time>
      </trkpt>
      <trkpt lat="47.58715" lon="-3.10497">
        <ele>26.4</ele>
        <time>2021-08-14T15:49:19Z</time>
      </trkpt>
      <trkpt lat="47.58705" lon="-3.10498">
        <ele>25.4</ele>
        <time>2021-08-14T15:49:20Z</time>
      </trkpt>
      <trkpt lat="47.58695" lon="-3.10498">
        <ele>24.6</ele>
        <time>2021-08-14T15:49:21Z</time>
      </trkpt>
      <trkpt lat="47.58685" lon="-3.10499">
        <ele>23.6</ele>
        <time>2021-08-14T15:49:22Z</time>
      </trkpt>
      <trkpt lat="47.58674" lon="-3.10499">
        <ele>22.6</ele>
        <time>2021-08-14T15:49:23Z</time>
      </trkpt>
      <trkpt lat="47.58664" lon="-3.10499">
        <ele>21.8</ele>
        <time>2021-08-14T15:49:24Z</time>
      </trkpt>
      <trkpt lat="47.58654" lon="-3.105">
        <ele>21.6</ele>
        <time>2021-08-14T15:49:25Z</time>
      </trkpt>
      <trkpt lat="47.58644" lon="-3.10499">
        <ele>21.2</ele>
        <time>2021-08-14T15:49:26Z</time>
      </trkpt>
      <trkpt lat="47.58634" lon="-3.10497">
        <ele>20.6</ele>
        <time>2021-08-14T15:49:27Z</time>
      </trkpt>
      <trkpt lat="47.58624" lon="-3.10496">
        <ele>20.4</ele>
        <time>2021-08-14T15:49:28Z</time>
      </trkpt>
      <trkpt lat="47.58613" lon="-3.10496">
        <ele>19.6</ele>
        <time>2021-08-14T15:49:29Z</time>
      </trkpt>
      <trkpt lat="47.58603" lon="-3.10495">
        <ele>18.8</ele>
        <time>2021-08-14T15:49:30Z</time>
      </trkpt>
      <trkpt lat="47.58592" lon="-3.10494">
        <ele>17.8</ele>
        <time>2021-08-14T15:49:31Z</time>
      </trkpt>
      <trkpt lat="47.58581" lon="-3.10494">
        <ele>17.4</ele>
        <time>2021-08-14T15:49:32Z</time>
      </trkpt>
      <trkpt lat="47.5857" lon="-3.10493">
        <ele>17.2</ele>
        <time>2021-08-14T15:49:33Z</time>
      </trkpt>
      <trkpt lat="47.58559" lon="-3.10491">
        <ele>17</ele>
        <time>2021-08-14T15:49:34Z</time>
      </trkpt>
      <trkpt lat="47.58549" lon="-3.10487">
        <ele>16.8</ele>
        <time>2021-08-14T15:49:35Z</time>
      </trkpt>
      <trkpt lat="47.5854" lon="-3.10479">
        <ele>16.4</ele>
        <time>2021-08-14T15:49:36Z</time>
      </trkpt>
      <trkpt lat="47.58533" lon="-3.10468">
        <ele>16.2</ele>
        <time>2021-08-14T15:49:37Z</time>
      </trkpt>
      <trkpt lat="47.58529" lon="-3.10455">
        <ele>15.8</ele>
        <time>2021-08-14T15:49:38Z</time>
      </trkpt>
      <trkpt lat="47.58526" lon="-3.10442">
        <ele>15</ele>
        <time>2021-08-14T15:49:39Z</time>
      </trkpt>
      <trkpt lat="47.58523" lon="-3.10429">
        <ele>14.4</ele>
        <time>2021-08-14T15:49:40Z</time>
      </trkpt>
      <trkpt lat="47.5852" lon="-3.10416">
        <ele>13.8</ele>
        <time>2021-08-14T15:49:41Z</time>
      </trkpt>
      <trkpt lat="47.58516" lon="-3.10405">
        <ele>13.6</ele>
        <time>2021-08-14T15:49:42Z</time>
      </trkpt>
      <trkpt lat="47.58511" lon="-3.10394">
        <ele>13.6</ele>
        <time>2021-08-14T15:49:43Z</time>
      </trkpt>
      <trkpt lat="47.58507" lon="-3.10384">
        <ele>13.6</ele>
        <time>2021-08-14T15:49:44Z</time>
      </trkpt>
      <trkpt lat="47.58501" lon="-3.10374">
        <ele>13.6</ele>
        <time>2021-08-14T15:49:45Z</time>
      </trkpt>
      <trkpt lat="47.58496" lon="-3.10365">
        <ele>13.6</ele>
        <time>2021-08-14T15:49:46Z</time>
      </trkpt>
      <trkpt lat="47.58491" lon="-3.10356">
        <ele>13.6</ele>
        <time>2021-08-14T15:49:47Z</time>
      </trkpt>
      <trkpt lat="47.58485" lon="-3.10348">
        <ele>13.6</ele>
        <time>2021-08-14T15:49:48Z</time>
      </trkpt>
      <trkpt lat="47.58479" lon="-3.10341">
        <ele>13.8</ele>
        <time>2021-08-14T15:49:49Z</time>
      </trkpt>
      <trkpt lat="47.58472" lon="-3.10335">
        <ele>14</ele>
        <time>2021-08-14T15:49:50Z</time>
      </trkpt>
      <trkpt lat="47.58466" lon="-3.1033">
        <ele>14.2</ele>
        <time>2021-08-14T15:49:51Z</time>
      </trkpt>
      <trkpt lat="47.58459" lon="-3.10326">
        <ele>14.4</ele>
        <time>2021-08-14T15:49:52Z</time>
      </trkpt>
      <trkpt lat="47.58452" lon="-3.10324">
        <ele>14.6</ele>
        <time>2021-08-14T15:49:53Z</time>
      </trkpt>
      <trkpt lat="47.58445" lon="-3.10322">
        <ele>14.8</ele>
        <time>2021-08-14T15:49:54Z</time>
      </trkpt>
      <trkpt lat="47.58438" lon="-3.1032">
        <ele>14.8</ele>
        <time>2021-08-14T15:49:55Z</time>
      </trkpt>
      <trkpt lat="47.58432" lon="-3.10319">
        <ele>14.8</ele>
        <time>2021-08-14T15:49:56Z</time>
      </trkpt>
      <trkpt lat="47.58426" lon="-3.10318">
        <ele>14.8</ele>
        <time>2021-08-14T15:49:57Z</time>
      </trkpt>
      <trkpt lat="47.58419" lon="-3.10316">
        <ele>15</ele>
        <time>2021-08-14T15:49:58Z</time>
      </trkpt>
      <trkpt lat="47.58413" lon="-3.10315">
        <ele>15</ele>
        <time>2021-08-14T15:49:59Z</time>
      </trkpt>
      <trkpt lat="47.58407" lon="-3.10313">
        <ele>15</ele>
        <time>2021-08-14T15:50:00Z</time>
      </trkpt>
      <trkpt lat="47.58402" lon="-3.10312">
        <ele>15</ele>
        <time>2021-08-14T15:50:01Z</time>
      </trkpt>
      <trkpt lat="47.58396" lon="-3.10311">
        <ele>15.2</ele>
        <time>2021-08-14T15:50:02Z</time>
      </trkpt>
      <trkpt lat="47.58391" lon="-3.1031">
        <ele>15.2</ele>
        <time>2021-08-14T15:50:03Z</time>
      </trkpt>
      <trkpt lat="47.58385" lon="-3.10308">
        <ele>15.2</ele>
        <time>2021-08-14T15:50:04Z</time>
      </trkpt>
      <trkpt lat="47.5838" lon="-3.10307">
        <ele>15.2</ele>
        <time>2021-08-14T15:50:05Z</time>
      </trkpt>
      <trkpt lat="47.58375" lon="-3.10307">
        <ele>15.2</ele>
        <time>2021-08-14T15:50:06Z</time>
      </trkpt>
      <trkpt lat="47.58369" lon="-3.10306">
        <ele>15.2</ele>
        <time>2021-08-14T15:50:07Z</time>
      </trkpt>
      <trkpt lat="47.58364" lon="-3.10306">
        <ele>15.4</ele>
        <time>2021-08-14T15:50:08Z</time>
      </trkpt>
      <trkpt lat="47.58359" lon="-3.10305">
        <ele>15.6</ele>
        <time>2021-08-14T15:50:09Z</time>
      </trkpt>
      <trkpt lat="47.58354" lon="-3.10305">
        <ele>15.4</ele>
        <time>2021-08-14T15:50:10Z</time>
      </trkpt>
      <trkpt lat="47.58349" lon="-3.10305">
        <ele>15.6</ele>
        <time>2021-08-14T15:50:11Z</time>
      </trkpt>
      <trkpt lat="47.58344" lon="-3.10304">
        <ele>15.6</ele>
        <time>2021-08-14T15:50:12Z</time>
      </trkpt>
      <trkpt lat="47.58339" lon="-3.10303">
        <ele>15.6</ele>
        <time>2021-08-14T15:50:13Z</time>
      </trkpt>
      <trkpt lat="47.58334" lon="-3.10302">
        <ele>15.6</ele>
        <time>2021-08-14T15:50:14Z</time>
      </trkpt>
      <trkpt lat="47.58329" lon="-3.10301">
        <ele>15.8</ele>
        <time>2021-08-14T15:50:15Z</time>
      </trkpt>
      <trkpt lat="47.58325" lon="-3.10299">
        <ele>15.6</ele>
        <time>2021-08-14T15:50:16Z</time>
      </trkpt>
      <trkpt lat="47.5832" lon="-3.10297">
        <ele>15.8</ele>
        <time>2021-08-14T15:50:17Z</time>
      </trkpt>
      <trkpt lat="47.58315" lon="-3.10295">
        <ele>15.8</ele>
        <time>2021-08-14T15:50:18Z</time>
      </trkpt>
      <trkpt lat="47.58311" lon="-3.10293">
        <ele>15.8</ele>
        <time>2021-08-14T15:50:19Z</time>
      </trkpt>
      <trkpt lat="47.58307" lon="-3.10291">
        <ele>15.8</ele>
        <time>2021-08-14T15:50:20Z</time>
      </trkpt>
      <trkpt lat="47.58303" lon="-3.10289">
        <ele>15.8</ele>
        <time>2021-08-14T15:50:21Z</time>
      </trkpt>
      <trkpt lat="47.58299" lon="-3.10286">
        <ele>15.8</ele>
        <time>2021-08-14T15:50:22Z</time>
      </trkpt>
      <trkpt lat="47.58295" lon="-3.10283">
        <ele>15.8</ele>
        <time>2021-08-14T15:50:23Z</time>
      </trkpt>
      <trkpt lat="47.58292" lon="-3.10281">
        <ele>16</ele>
        <time>2021-08-14T15:50:24Z</time>
      </trkpt>
      <trkpt lat="47.58288" lon="-3.10279">
        <ele>16</ele>
        <time>2021-08-14T15:50:25Z</time>
      </trkpt>
      <trkpt lat="47.58284" lon="-3.10278">
        <ele>16</ele>
        <time>2021-08-14T15:50:26Z</time>
      </trkpt>
      <trkpt lat="47.58281" lon="-3.10276">
        <ele>16</ele>
        <time>2021-08-14T15:50:27Z</time>
      </trkpt>
      <trkpt lat="47.58277" lon="-3.10274">
        <ele>16.2</ele>
        <time>2021-08-14T15:50:28Z</time>
      </trkpt>
      <trkpt lat="47.58274" lon="-3.10273">
        <ele>16.2</ele>
        <time>2021-08-14T15:50:29Z</time>
      </trkpt>
      <trkpt lat="47.58271" lon="-3.10271">
        <ele>16.4</ele>
        <time>2021-08-14T15:50:30Z</time>
      </trkpt>
      <trkpt lat="47.58268" lon="-3.1027">
        <ele>16.6</ele>
        <time>2021-08-14T15:50:31Z</time>
      </trkpt>
      <trkpt lat="47.58266" lon="-3.10269">
        <ele>16.6</ele>
        <time>2021-08-14T15:50:32Z</time>
      </trkpt>
      <trkpt lat="47.58263" lon="-3.10267">
        <ele>16.6</ele>
        <time>2021-08-14T15:50:33Z</time>
      </trkpt>
      <trkpt lat="47.58261" lon="-3.10266">
        <ele>16.6</ele>
        <time>2021-08-14T15:50:34Z</time>
      </trkpt>
      <trkpt lat="47.58259" lon="-3.10265">
        <ele>16.8</ele>
        <time>2021-08-14T15:50:35Z</time>
      </trkpt>
      <trkpt lat="47.58256" lon="-3.10264">
        <ele>17</ele>
        <time>2021-08-14T15:50:36Z</time>
      </trkpt>
      <trkpt lat="47.58253" lon="-3.10263">
        <ele>17.2</ele>
        <time>2021-08-14T15:50:37Z</time>
      </trkpt>
      <trkpt lat="47.5825" lon="-3.10262">
        <ele>17.2</ele>
        <time>2021-08-14T15:50:38Z</time>
      </trkpt>
      <trkpt lat="47.58247" lon="-3.10261">
        <ele>17.2</ele>
        <time>2021-08-14T15:50:39Z</time>
      </trkpt>
      <trkpt lat="47.58244" lon="-3.10259">
        <ele>17.2</ele>
        <time>2021-08-14T15:50:40Z</time>
      </trkpt>
      <trkpt lat="47.58241" lon="-3.10258">
        <ele>17.2</ele>
        <time>2021-08-14T15:50:41Z</time>
      </trkpt>
      <trkpt lat="47.58238" lon="-3.10257">
        <ele>17.2</ele>
        <time>2021-08-14T15:50:42Z</time>
      </trkpt>
      <trkpt lat="47.58235" lon="-3.10255">
        <ele>17.2</ele>
        <time>2021-08-14T15:50:43Z</time>
      </trkpt>
      <trkpt lat="47.58231" lon="-3.10254">
        <ele>17.2</ele>
        <time>2021-08-14T15:50:44Z</time>
      </trkpt>
      <trkpt lat="47.58228" lon="-3.10253">
        <ele>17.2</ele>
        <time>2021-08-14T15:50:45Z</time>
      </trkpt>
      <trkpt lat="47.58224" lon="-3.10253">
        <ele>17</ele>
        <time>2021-08-14T15:50:46Z</time>
      </trkpt>
      <trkpt lat="47.58221" lon="-3.10252">
        <ele>17</ele>
        <time>2021-08-14T15:50:47Z</time>
      </trkpt>
      <trkpt lat="47.58217" lon="-3.10252">
        <ele>17</ele>
        <time>2021-08-14T15:50:48Z</time>
      </trkpt>
      <trkpt lat="47.58213" lon="-3.10252">
        <ele>17</ele>
        <time>2021-08-14T15:50:49Z</time>
      </trkpt>
      <trkpt lat="47.5821" lon="-3.10254">
        <ele>17</ele>
        <time>2021-08-14T15:50:50Z</time>
      </trkpt>
      <trkpt lat="47.58206" lon="-3.10257">
        <ele>17</ele>
        <time>2021-08-14T15:50:51Z</time>
      </trkpt>
      <trkpt lat="47.58203" lon="-3.10261">
        <ele>17</ele>
        <time>2021-08-14T15:50:52Z</time>
      </trkpt>
      <trkpt lat="47.582" lon="-3.10264">
        <ele>17</ele>
        <time>2021-08-14T15:50:53Z</time>
      </trkpt>
      <trkpt lat="47.58197" lon="-3.10268">
        <ele>16.8</ele>
        <time>2021-08-14T15:50:54Z</time>
      </trkpt>
      <trkpt lat="47.58194" lon="-3.10272">
        <ele>16.8</ele>
        <time>2021-08-14T15:50:55Z</time>
      </trkpt>
      <trkpt lat="47.58191" lon="-3.10276">
        <ele>16.8</ele>
        <time>2021-08-14T15:50:56Z</time>
      </trkpt>
      <trkpt lat="47.58188" lon="-3.1028">
        <ele>16.4</ele>
        <time>2021-08-14T15:50:57Z</time>
      </trkpt>
      <trkpt lat="47.58185" lon="-3.10284">
        <ele>16.4</ele>
        <time>2021-08-14T15:50:58Z</time>
      </trkpt>
      <trkpt lat="47.58182" lon="-3.10289">
        <ele>16.2</ele>
        <time>2021-08-14T15:50:59Z</time>
      </trkpt>
      <trkpt lat="47.58179" lon="-3.10294">
        <ele>16.2</ele>
        <time>2021-08-14T15:51:00Z</time>
      </trkpt>
      <trkpt lat="47.58176" lon="-3.10298">
        <ele>16</ele>
        <time>2021-08-14T15:51:01Z</time>
      </trkpt>
      <trkpt lat="47.58173" lon="-3.10303">
        <ele>15.8</ele>
        <time>2021-08-14T15:51:02Z</time>
      </trkpt>
      <trkpt lat="47.5817" lon="-3.10309">
        <ele>15.8</ele>
        <time>2021-08-14T15:51:03Z</time>
      </trkpt>
      <trkpt lat="47.58167" lon="-3.10314">
        <ele>15.6</ele>
        <time>2021-08-14T15:51:04Z</time>
      </trkpt>
      <trkpt lat="47.58163" lon="-3.10319">
        <ele>15.4</ele>
        <time>2021-08-14T15:51:05Z</time>
      </trkpt>
      <trkpt lat="47.5816" lon="-3.10325">
        <ele>15.4</ele>
        <time>2021-08-14T15:51:06Z</time>
      </trkpt>
      <trkpt lat="47.58157" lon="-3.1033">
        <ele>15.2</ele>
        <time>2021-08-14T15:51:07Z</time>
      </trkpt>
      <trkpt lat="47.58153" lon="-3.10335">
        <ele>15.2</ele>
        <time>2021-08-14T15:51:08Z</time>
      </trkpt>
      <trkpt lat="47.5815" lon="-3.1034">
        <ele>15</ele>
        <time>2021-08-14T15:51:09Z</time>
      </trkpt>
      <trkpt lat="47.58146" lon="-3.10345">
        <ele>15</ele>
        <time>2021-08-14T15:51:10Z</time>
      </trkpt>
      <trkpt lat="47.58142" lon="-3.10349">
        <ele>14.8</ele>
        <time>2021-08-14T15:51:11Z</time>
      </trkpt>
      <trkpt lat="47.58138" lon="-3.10352">
        <ele>14.8</ele>
        <time>2021-08-14T15:51:12Z</time>
      </trkpt>
      <trkpt lat="47.58133" lon="-3.10354">
        <ele>14.8</ele>
        <time>2021-08-14T15:51:13Z</time>
      </trkpt>
      <trkpt lat="47.58128" lon="-3.10356">
        <ele>15</ele>
        <time>2021-08-14T15:51:14Z</time>
      </trkpt>
      <trkpt lat="47.58124" lon="-3.10356">
        <ele>15</ele>
        <time>2021-08-14T15:51:15Z</time>
      </trkpt>
      <trkpt lat="47.58119" lon="-3.10354">
        <ele>15</ele>
        <time>2021-08-14T15:51:16Z</time>
      </trkpt>
      <trkpt lat="47.58115" lon="-3.1035">
        <ele>15</ele>
        <time>2021-08-14T15:51:17Z</time>
      </trkpt>
      <trkpt lat="47.58113" lon="-3.10344">
        <ele>15</ele>
        <time>2021-08-14T15:51:18Z</time>
      </trkpt>
      <trkpt lat="47.58111" lon="-3.10338">
        <ele>15</ele>
        <time>2021-08-14T15:51:19Z</time>
      </trkpt>
      <trkpt lat="47.58109" lon="-3.10331">
        <ele>15</ele>
        <time>2021-08-14T15:51:20Z</time>
      </trkpt>
      <trkpt lat="47.58108" lon="-3.10325">
        <ele>15</ele>
        <time>2021-08-14T15:51:21Z</time>
      </trkpt>
      <trkpt lat="47.58107" lon="-3.10319">
        <ele>15</ele>
        <time>2021-08-14T15:51:22Z</time>
      </trkpt>
      <trkpt lat="47.58106" lon="-3.10313">
        <ele>15.4</ele>
        <time>2021-08-14T15:51:23Z</time>
      </trkpt>
      <trkpt lat="47.58106" lon="-3.10307">
        <ele>15.6</ele>
        <time>2021-08-14T15:51:24Z</time>
      </trkpt>
      <trkpt lat="47.58104" lon="-3.10301">
        <ele>15.8</ele>
        <time>2021-08-14T15:51:25Z</time>
      </trkpt>
      <trkpt lat="47.58102" lon="-3.10296">
        <ele>16</ele>
        <time>2021-08-14T15:51:26Z</time>
      </trkpt>
      <trkpt lat="47.58099" lon="-3.10294">
        <ele>16.2</ele>
        <time>2021-08-14T15:51:27Z</time>
      </trkpt>
      <trkpt lat="47.58095" lon="-3.10293">
        <ele>16.2</ele>
        <time>2021-08-14T15:51:28Z</time>
      </trkpt>
      <trkpt lat="47.58091" lon="-3.10293">
        <ele>16.2</ele>
        <time>2021-08-14T15:51:29Z</time>
      </trkpt>
      <trkpt lat="47.58086" lon="-3.10292">
        <ele>16.4</ele>
        <time>2021-08-14T15:51:30Z</time>
      </trkpt>
      <trkpt lat="47.58082" lon="-3.10291">
        <ele>16.4</ele>
        <time>2021-08-14T15:51:31Z</time>
      </trkpt>
      <trkpt lat="47.58079" lon="-3.10289">
        <ele>16.4</ele>
        <time>2021-08-14T15:51:32Z</time>
      </trkpt>
      <trkpt lat="47.58075" lon="-3.10286">
        <ele>16.4</ele>
        <time>2021-08-14T15:51:33Z</time>
      </trkpt>
      <trkpt lat="47.58071" lon="-3.10281">
        <ele>16.4</ele>
        <time>2021-08-14T15:51:34Z</time>
      </trkpt>
      <trkpt lat="47.58068" lon="-3.10276">
        <ele>16.4</ele>
        <time>2021-08-14T15:51:35Z</time>
      </trkpt>
      <trkpt lat="47.58065" lon="-3.1027">
        <ele>16.4</ele>
        <time>2021-08-14T15:51:36Z</time>
      </trkpt>
      <trkpt lat="47.58063" lon="-3.10264">
        <ele>16.4</ele>
        <time>2021-08-14T15:51:37Z</time>
      </trkpt>
      <trkpt lat="47.5806" lon="-3.10259">
        <ele>16.4</ele>
        <time>2021-08-14T15:51:38Z</time>
      </trkpt>
      <trkpt lat="47.58057" lon="-3.10253">
        <ele>16.4</ele>
        <time>2021-08-14T15:51:39Z</time>
      </trkpt>
      <trkpt lat="47.58055" lon="-3.10247">
        <ele>16.4</ele>
        <time>2021-08-14T15:51:40Z</time>
      </trkpt>
      <trkpt lat="47.58052" lon="-3.10241">
        <ele>16.4</ele>
        <time>2021-08-14T15:51:41Z</time>
      </trkpt>
      <trkpt lat="47.58049" lon="-3.10235">
        <ele>16.4</ele>
        <time>2021-08-14T15:51:42Z</time>
      </trkpt>
      <trkpt lat="47.58046" lon="-3.1023">
        <ele>16.4</ele>
        <time>2021-08-14T15:51:43Z</time>
      </trkpt>
      <trkpt lat="47.58043" lon="-3.10224">
        <ele>16.4</ele>
        <time>2021-08-14T15:51:44Z</time>
      </trkpt>
      <trkpt lat="47.5804" lon="-3.10219">
        <ele>16.4</ele>
        <time>2021-08-14T15:51:45Z</time>
      </trkpt>
      <trkpt lat="47.58037" lon="-3.10214">
        <ele>16.4</ele>
        <time>2021-08-14T15:51:46Z</time>
      </trkpt>
      <trkpt lat="47.58034" lon="-3.10209">
        <ele>16.4</ele>
        <time>2021-08-14T15:51:47Z</time>
      </trkpt>
      <trkpt lat="47.58031" lon="-3.10203">
        <ele>16.4</ele>
        <time>2021-08-14T15:51:48Z</time>
      </trkpt>
      <trkpt lat="47.58029" lon="-3.10197">
        <ele>16.4</ele>
        <time>2021-08-14T15:51:49Z</time>
      </trkpt>
      <trkpt lat="47.58026" lon="-3.10191">
        <ele>16.4</ele>
        <time>2021-08-14T15:51:50Z</time>
      </trkpt>
      <trkpt lat="47.58024" lon="-3.10185">
        <ele>16.4</ele>
        <time>2021-08-14T15:51:51Z</time>
      </trkpt>
      <trkpt lat="47.58023" lon="-3.10178">
        <ele>16.6</ele>
        <time>2021-08-14T15:51:52Z</time>
      </trkpt>
      <trkpt lat="47.58022" lon="-3.10171">
        <ele>16.6</ele>
        <time>2021-08-14T15:51:53Z</time>
      </trkpt>
      <trkpt lat="47.58021" lon="-3.10165">
        <ele>16.6</ele>
        <time>2021-08-14T15:51:54Z</time>
      </trkpt>
      <trkpt lat="47.58021" lon="-3.10158">
        <ele>16.6</ele>
        <time>2021-08-14T15:51:55Z</time>
      </trkpt>
      <trkpt lat="47.58021" lon="-3.10151">
        <ele>16.6</ele>
        <time>2021-08-14T15:51:56Z</time>
      </trkpt>
      <trkpt lat="47.58022" lon="-3.10144">
        <ele>16.6</ele>
        <time>2021-08-14T15:51:57Z</time>
      </trkpt>
      <trkpt lat="47.58023" lon="-3.10137">
        <ele>16.6</ele>
        <time>2021-08-14T15:51:58Z</time>
      </trkpt>
      <trkpt lat="47.58024" lon="-3.1013">
        <ele>16.6</ele>
        <time>2021-08-14T15:51:59Z</time>
      </trkpt>
      <trkpt lat="47.58024" lon="-3.10124">
        <ele>16.6</ele>
        <time>2021-08-14T15:52:00Z</time>
      </trkpt>
      <trkpt lat="47.58025" lon="-3.10118">
        <ele>16.6</ele>
        <time>2021-08-14T15:52:01Z</time>
      </trkpt>
      <trkpt lat="47.58026" lon="-3.10112">
        <ele>16.8</ele>
        <time>2021-08-14T15:52:02Z</time>
      </trkpt>
      <trkpt lat="47.58026" lon="-3.10107">
        <ele>16.8</ele>
        <time>2021-08-14T15:52:03Z</time>
      </trkpt>
      <trkpt lat="47.58027" lon="-3.10101">
        <ele>16.8</ele>
        <time>2021-08-14T15:52:04Z</time>
      </trkpt>
      <trkpt lat="47.58027" lon="-3.10095">
        <ele>16.8</ele>
        <time>2021-08-14T15:52:05Z</time>
      </trkpt>
      <trkpt lat="47.58028" lon="-3.10089">
        <ele>16.8</ele>
        <time>2021-08-14T15:52:06Z</time>
      </trkpt>
      <trkpt lat="47.58029" lon="-3.10083">
        <ele>16.8</ele>
        <time>2021-08-14T15:52:07Z</time>
      </trkpt>
      <trkpt lat="47.58029" lon="-3.10077">
        <ele>16.8</ele>
        <time>2021-08-14T15:52:08Z</time>
      </trkpt>
      <trkpt lat="47.58031" lon="-3.1007">
        <ele>17</ele>
        <time>2021-08-14T15:52:09Z</time>
      </trkpt>
      <trkpt lat="47.58032" lon="-3.10063">
        <ele>17</ele>
        <time>2021-08-14T15:52:10Z</time>
      </trkpt>
      <trkpt lat="47.58033" lon="-3.10056">
        <ele>17</ele>
        <time>2021-08-14T15:52:11Z</time>
      </trkpt>
      <trkpt lat="47.58035" lon="-3.10048">
        <ele>17</ele>
        <time>2021-08-14T15:52:12Z</time>
      </trkpt>
      <trkpt lat="47.58037" lon="-3.10041">
        <ele>17</ele>
        <time>2021-08-14T15:52:13Z</time>
      </trkpt>
      <trkpt lat="47.5804" lon="-3.10034">
        <ele>17</ele>
        <time>2021-08-14T15:52:14Z</time>
      </trkpt>
      <trkpt lat="47.58042" lon="-3.10027">
        <ele>17</ele>
        <time>2021-08-14T15:52:15Z</time>
      </trkpt>
      <trkpt lat="47.58045" lon="-3.10021">
        <ele>17</ele>
        <time>2021-08-14T15:52:16Z</time>
      </trkpt>
      <trkpt lat="47.58047" lon="-3.10014">
        <ele>17</ele>
        <time>2021-08-14T15:52:17Z</time>
      </trkpt>
      <trkpt lat="47.5805" lon="-3.10008">
        <ele>17</ele>
        <time>2021-08-14T15:52:18Z</time>
      </trkpt>
      <trkpt lat="47.58053" lon="-3.10001">
        <ele>17</ele>
        <time>2021-08-14T15:52:19Z</time>
      </trkpt>
      <trkpt lat="47.58056" lon="-3.09995">
        <ele>16.8</ele>
        <time>2021-08-14T15:52:20Z</time>
      </trkpt>
      <trkpt lat="47.58058" lon="-3.09989">
        <ele>16.6</ele>
        <time>2021-08-14T15:52:21Z</time>
      </trkpt>
      <trkpt lat="47.58061" lon="-3.09982">
        <ele>16.6</ele>
        <time>2021-08-14T15:52:22Z</time>
      </trkpt>
      <trkpt lat="47.58063" lon="-3.09976">
        <ele>16.6</ele>
        <time>2021-08-14T15:52:23Z</time>
      </trkpt>
      <trkpt lat="47.58066" lon="-3.0997">
        <ele>16.6</ele>
        <time>2021-08-14T15:52:24Z</time>
      </trkpt>
      <trkpt lat="47.58069" lon="-3.09964">
        <ele>16.6</ele>
        <time>2021-08-14T15:52:25Z</time>
      </trkpt>
      <trkpt lat="47.58072" lon="-3.09959">
        <ele>16.6</ele>
        <time>2021-08-14T15:52:26Z</time>
      </trkpt>
      <trkpt lat="47.58075" lon="-3.09954">
        <ele>16.6</ele>
        <time>2021-08-14T15:52:27Z</time>
      </trkpt>
      <trkpt lat="47.58078" lon="-3.09948">
        <ele>16.6</ele>
        <time>2021-08-14T15:52:28Z</time>
      </trkpt>
      <trkpt lat="47.58082" lon="-3.09943">
        <ele>16.6</ele>
        <time>2021-08-14T15:52:29Z</time>
      </trkpt>
      <trkpt lat="47.58085" lon="-3.09938">
        <ele>16.6</ele>
        <time>2021-08-14T15:52:30Z</time>
      </trkpt>
      <trkpt lat="47.58088" lon="-3.09934">
        <ele>16.6</ele>
        <time>2021-08-14T15:52:31Z</time>
      </trkpt>
      <trkpt lat="47.58091" lon="-3.09929">
        <ele>16.6</ele>
        <time>2021-08-14T15:52:32Z</time>
      </trkpt>
      <trkpt lat="47.58094" lon="-3.09924">
        <ele>16.6</ele>
        <time>2021-08-14T15:52:33Z</time>
      </trkpt>
      <trkpt lat="47.58097" lon="-3.09919">
        <ele>16.6</ele>
        <time>2021-08-14T15:52:34Z</time>
      </trkpt>
      <trkpt lat="47.581" lon="-3.09915">
        <ele>16.8</ele>
        <time>2021-08-14T15:52:35Z</time>
      </trkpt>
      <trkpt lat="47.58102" lon="-3.0991">
        <ele>16.8</ele>
        <time>2021-08-14T15:52:36Z</time>
      </trkpt>
      <trkpt lat="47.58104" lon="-3.09905">
        <ele>17</ele>
        <time>2021-08-14T15:52:37Z</time>
      </trkpt>
      <trkpt lat="47.58107" lon="-3.099">
        <ele>17</ele>
        <time>2021-08-14T15:52:38Z</time>
      </trkpt>
      <trkpt lat="47.58109" lon="-3.09895">
        <ele>17.2</ele>
        <time>2021-08-14T15:52:39Z</time>
      </trkpt>
      <trkpt lat="47.5811" lon="-3.0989">
        <ele>17.2</ele>
        <time>2021-08-14T15:52:40Z</time>
      </trkpt>
      <trkpt lat="47.58112" lon="-3.09886">
        <ele>17.2</ele>
        <time>2021-08-14T15:52:41Z</time>
      </trkpt>
      <trkpt lat="47.58114" lon="-3.09881">
        <ele>17.2</ele>
        <time>2021-08-14T15:52:42Z</time>
      </trkpt>
      <trkpt lat="47.58116" lon="-3.09877">
        <ele>17.4</ele>
        <time>2021-08-14T15:52:43Z</time>
      </trkpt>
      <trkpt lat="47.58118" lon="-3.09872">
        <ele>17.6</ele>
        <time>2021-08-14T15:52:44Z</time>
      </trkpt>
      <trkpt lat="47.58119" lon="-3.09868">
        <ele>17.6</ele>
        <time>2021-08-14T15:52:45Z</time>
      </trkpt>
      <trkpt lat="47.58121" lon="-3.09863">
        <ele>17.8</ele>
        <time>2021-08-14T15:52:46Z</time>
      </trkpt>
      <trkpt lat="47.58123" lon="-3.09858">
        <ele>18</ele>
        <time>2021-08-14T15:52:47Z</time>
      </trkpt>
      <trkpt lat="47.58125" lon="-3.09854">
        <ele>18</ele>
        <time>2021-08-14T15:52:48Z</time>
      </trkpt>
      <trkpt lat="47.58127" lon="-3.09849">
        <ele>18</ele>
        <time>2021-08-14T15:52:49Z</time>
      </trkpt>
      <trkpt lat="47.58129" lon="-3.09844">
        <ele>18.2</ele>
        <time>2021-08-14T15:52:50Z</time>
      </trkpt>
      <trkpt lat="47.58131" lon="-3.09839">
        <ele>18.4</ele>
        <time>2021-08-14T15:52:51Z</time>
      </trkpt>
      <trkpt lat="47.58133" lon="-3.09834">
        <ele>18.4</ele>
        <time>2021-08-14T15:52:52Z</time>
      </trkpt>
      <trkpt lat="47.58136" lon="-3.09829">
        <ele>18.4</ele>
        <time>2021-08-14T15:52:53Z</time>
      </trkpt>
      <trkpt lat="47.58138" lon="-3.09824">
        <ele>18.4</ele>
        <time>2021-08-14T15:52:54Z</time>
      </trkpt>
      <trkpt lat="47.5814" lon="-3.0982">
        <ele>18.6</ele>
        <time>2021-08-14T15:52:55Z</time>
      </trkpt>
      <trkpt lat="47.58142" lon="-3.09815">
        <ele>18.6</ele>
        <time>2021-08-14T15:52:56Z</time>
      </trkpt>
      <trkpt lat="47.58144" lon="-3.0981">
        <ele>18.6</ele>
        <time>2021-08-14T15:52:57Z</time>
      </trkpt>
      <trkpt lat="47.58145" lon="-3.09806">
        <ele>18.6</ele>
        <time>2021-08-14T15:52:58Z</time>
      </trkpt>
      <trkpt lat="47.58146" lon="-3.09802">
        <ele>18.6</ele>
        <time>2021-08-14T15:52:59Z</time>
      </trkpt>
      <trkpt lat="47.58148" lon="-3.09798">
        <ele>18.6</ele>
        <time>2021-08-14T15:53:00Z</time>
      </trkpt>
      <trkpt lat="47.58149" lon="-3.09793">
        <ele>18.8</ele>
        <time>2021-08-14T15:53:01Z</time>
      </trkpt>
      <trkpt lat="47.58151" lon="-3.09788">
        <ele>18.8</ele>
        <time>2021-08-14T15:53:02Z</time>
      </trkpt>
      <trkpt lat="47.58153" lon="-3.09783">
        <ele>18.8</ele>
        <time>2021-08-14T15:53:03Z</time>
      </trkpt>
      <trkpt lat="47.58155" lon="-3.09778">
        <ele>18.8</ele>
        <time>2021-08-14T15:53:04Z</time>
      </trkpt>
      <trkpt lat="47.58157" lon="-3.09773">
        <ele>19</ele>
        <time>2021-08-14T15:53:05Z</time>
      </trkpt>
      <trkpt lat="47.58159" lon="-3.09768">
        <ele>19</ele>
        <time>2021-08-14T15:53:06Z</time>
      </trkpt>
      <trkpt lat="47.58161" lon="-3.09763">
        <ele>19</ele>
        <time>2021-08-14T15:53:07Z</time>
      </trkpt>
      <trkpt lat="47.58163" lon="-3.09757">
        <ele>19.2</ele>
        <time>2021-08-14T15:53:08Z</time>
      </trkpt>
      <trkpt lat="47.58165" lon="-3.09752">
        <ele>19.2</ele>
        <time>2021-08-14T15:53:09Z</time>
      </trkpt>
      <trkpt lat="47.58167" lon="-3.09747">
        <ele>19.2</ele>
        <time>2021-08-14T15:53:10Z</time>
      </trkpt>
      <trkpt lat="47.58169" lon="-3.09742">
        <ele>19.2</ele>
        <time>2021-08-14T15:53:11Z</time>
      </trkpt>
      <trkpt lat="47.58171" lon="-3.09736">
        <ele>19.2</ele>
        <time>2021-08-14T15:53:12Z</time>
      </trkpt>
      <trkpt lat="47.58173" lon="-3.09731">
        <ele>19.4</ele>
        <time>2021-08-14T15:53:13Z</time>
      </trkpt>
      <trkpt lat="47.58174" lon="-3.09726">
        <ele>19.4</ele>
        <time>2021-08-14T15:53:14Z</time>
      </trkpt>
      <trkpt lat="47.58176" lon="-3.09721">
        <ele>19.4</ele>
        <time>2021-08-14T15:53:15Z</time>
      </trkpt>
      <trkpt lat="47.58177" lon="-3.09716">
        <ele>19.4</ele>
        <time>2021-08-14T15:53:16Z</time>
      </trkpt>
      <trkpt lat="47.58179" lon="-3.09711">
        <ele>19.4</ele>
        <time>2021-08-14T15:53:17Z</time>
      </trkpt>
      <trkpt lat="47.5818" lon="-3.09706">
        <ele>19.4</ele>
        <time>2021-08-14T15:53:18Z</time>
      </trkpt>
      <trkpt lat="47.58182" lon="-3.09701">
        <ele>19.4</ele>
        <time>2021-08-14T15:53:19Z</time>
      </trkpt>
      <trkpt lat="47.58184" lon="-3.09696">
        <ele>19.4</ele>
        <time>2021-08-14T15:53:20Z</time>
      </trkpt>
      <trkpt lat="47.58185" lon="-3.09691">
        <ele>19.4</ele>
        <time>2021-08-14T15:53:21Z</time>
      </trkpt>
      <trkpt lat="47.58187" lon="-3.09686">
        <ele>19.4</ele>
        <time>2021-08-14T15:53:22Z</time>
      </trkpt>
      <trkpt lat="47.58189" lon="-3.0968">
        <ele>19.6</ele>
        <time>2021-08-14T15:53:23Z</time>
      </trkpt>
      <trkpt lat="47.58191" lon="-3.09674">
        <ele>19.6</ele>
        <time>2021-08-14T15:53:24Z</time>
      </trkpt>
      <trkpt lat="47.58193" lon="-3.09668">
        <ele>19.6</ele>
        <time>2021-08-14T15:53:25Z</time>
      </trkpt>
      <trkpt lat="47.58196" lon="-3.09662">
        <ele>19.6</ele>
        <time>2021-08-14T15:53:26Z</time>
      </trkpt>
      <trkpt lat="47.58198" lon="-3.09655">
        <ele>19.6</ele>
        <time>2021-08-14T15:53:27Z</time>
      </trkpt>
      <trkpt lat="47.58201" lon="-3.09648">
        <ele>19.6</ele>
        <time>2021-08-14T15:53:28Z</time>
      </trkpt>
      <trkpt lat="47.58204" lon="-3.09641">
        <ele>19.6</ele>
        <time>2021-08-14T15:53:29Z</time>
      </trkpt>
      <trkpt lat="47.58207" lon="-3.09634">
        <ele>19.4</ele>
        <time>2021-08-14T15:53:30Z</time>
      </trkpt>
      <trkpt lat="47.5821" lon="-3.09627">
        <ele>19.4</ele>
        <time>2021-08-14T15:53:31Z</time>
      </trkpt>
      <trkpt lat="47.58214" lon="-3.09619">
        <ele>19.4</ele>
        <time>2021-08-14T15:53:32Z</time>
      </trkpt>
      <trkpt lat="47.58217" lon="-3.09612">
        <ele>19.4</ele>
        <time>2021-08-14T15:53:33Z</time>
      </trkpt>
      <trkpt lat="47.5822" lon="-3.09605">
        <ele>19.4</ele>
        <time>2021-08-14T15:53:34Z</time>
      </trkpt>
      <trkpt lat="47.58224" lon="-3.09598">
        <ele>19.4</ele>
        <time>2021-08-14T15:53:35Z</time>
      </trkpt>
      <trkpt lat="47.58227" lon="-3.09592">
        <ele>19.2</ele>
        <time>2021-08-14T15:53:36Z</time>
      </trkpt>
      <trkpt lat="47.58231" lon="-3.09585">
        <ele>19</ele>
        <time>2021-08-14T15:53:37Z</time>
      </trkpt>
      <trkpt lat="47.58235" lon="-3.09578">
        <ele>18.6</ele>
        <time>2021-08-14T15:53:38Z</time>
      </trkpt>
      <trkpt lat="47.58238" lon="-3.09572">
        <ele>18.4</ele>
        <time>2021-08-14T15:53:39Z</time>
      </trkpt>
      <trkpt lat="47.58242" lon="-3.09565">
        <ele>18.4</ele>
        <time>2021-08-14T15:53:40Z</time>
      </trkpt>
      <trkpt lat="47.58245" lon="-3.09559">
        <ele>18.2</ele>
        <time>2021-08-14T15:53:41Z</time>
      </trkpt>
      <trkpt lat="47.58248" lon="-3.09553">
        <ele>18</ele>
        <time>2021-08-14T15:53:42Z</time>
      </trkpt>
      <trkpt lat="47.58252" lon="-3.09547">
        <ele>18</ele>
        <time>2021-08-14T15:53:43Z</time>
      </trkpt>
      <trkpt lat="47.58255" lon="-3.09541">
        <ele>18</ele>
        <time>2021-08-14T15:53:44Z</time>
      </trkpt>
      <trkpt lat="47.58258" lon="-3.09535">
        <ele>18</ele>
        <time>2021-08-14T15:53:45Z</time>
      </trkpt>
      <trkpt lat="47.5826" lon="-3.09529">
        <ele>18</ele>
        <time>2021-08-14T15:53:46Z</time>
      </trkpt>
      <trkpt lat="47.58263" lon="-3.09522">
        <ele>18</ele>
        <time>2021-08-14T15:53:47Z</time>
      </trkpt>
      <trkpt lat="47.58265" lon="-3.09515">
        <ele>18</ele>
        <time>2021-08-14T15:53:48Z</time>
      </trkpt>
      <trkpt lat="47.58268" lon="-3.09509">
        <ele>18</ele>
        <time>2021-08-14T15:53:49Z</time>
      </trkpt>
      <trkpt lat="47.58271" lon="-3.09502">
        <ele>18</ele>
        <time>2021-08-14T15:53:50Z</time>
      </trkpt>
      <trkpt lat="47.58273" lon="-3.09496">
        <ele>18</ele>
        <time>2021-08-14T15:53:51Z</time>
      </trkpt>
      <trkpt lat="47.58276" lon="-3.0949">
        <ele>18</ele>
        <time>2021-08-14T15:53:52Z</time>
      </trkpt>
      <trkpt lat="47.58278" lon="-3.09483">
        <ele>18</ele>
        <time>2021-08-14T15:53:53Z</time>
      </trkpt>
      <trkpt lat="47.5828" lon="-3.09477">
        <ele>18.2</ele>
        <time>2021-08-14T15:53:54Z</time>
      </trkpt>
      <trkpt lat="47.58283" lon="-3.09471">
        <ele>18.2</ele>
        <time>2021-08-14T15:53:55Z</time>
      </trkpt>
      <trkpt lat="47.58285" lon="-3.09465">
        <ele>18.4</ele>
        <time>2021-08-14T15:53:56Z</time>
      </trkpt>
      <trkpt lat="47.58287" lon="-3.09459">
        <ele>18.4</ele>
        <time>2021-08-14T15:53:57Z</time>
      </trkpt>
      <trkpt lat="47.58289" lon="-3.09453">
        <ele>18.4</ele>
        <time>2021-08-14T15:53:58Z</time>
      </trkpt>
      <trkpt lat="47.58292" lon="-3.09447">
        <ele>18.4</ele>
        <time>2021-08-14T15:53:59Z</time>
      </trkpt>
      <trkpt lat="47.58294" lon="-3.09441">
        <ele>18.4</ele>
        <time>2021-08-14T15:54:00Z</time>
      </trkpt>
      <trkpt lat="47.58296" lon="-3.09436">
        <ele>18.6</ele>
        <time>2021-08-14T15:54:01Z</time>
      </trkpt>
      <trkpt lat="47.58299" lon="-3.09431">
        <ele>18.8</ele>
        <time>2021-08-14T15:54:02Z</time>
      </trkpt>
      <trkpt lat="47.58301" lon="-3.09426">
        <ele>19.4</ele>
        <time>2021-08-14T15:54:03Z</time>
      </trkpt>
      <trkpt lat="47.58303" lon="-3.09421">
        <ele>19.4</ele>
        <time>2021-08-14T15:54:04Z</time>
      </trkpt>
      <trkpt lat="47.58306" lon="-3.09417">
        <ele>19.6</ele>
        <time>2021-08-14T15:54:05Z</time>
      </trkpt>
      <trkpt lat="47.58308" lon="-3.09412">
        <ele>19.6</ele>
        <time>2021-08-14T15:54:06Z</time>
      </trkpt>
      <trkpt lat="47.5831" lon="-3.09408">
        <ele>19.8</ele>
        <time>2021-08-14T15:54:07Z</time>
      </trkpt>
      <trkpt lat="47.58312" lon="-3.09405">
        <ele>20</ele>
        <time>2021-08-14T15:54:08Z</time>
      </trkpt>
      <trkpt lat="47.58315" lon="-3.09401">
        <ele>20.2</ele>
        <time>2021-08-14T15:54:09Z</time>
      </trkpt>
      <trkpt lat="47.58317" lon="-3.09398">
        <ele>20.4</ele>
        <time>2021-08-14T15:54:10Z</time>
      </trkpt>
      <trkpt lat="47.5832" lon="-3.09396">
        <ele>20.6</ele>
        <time>2021-08-14T15:54:11Z</time>
      </trkpt>
      <trkpt lat="47.58323" lon="-3.09393">
        <ele>20.8</ele>
        <time>2021-08-14T15:54:12Z</time>
      </trkpt>
      <trkpt lat="47.58325" lon="-3.0939">
        <ele>21</ele>
        <time>2021-08-14T15:54:13Z</time>
      </trkpt>
      <trkpt lat="47.58328" lon="-3.09387">
        <ele>21.2</ele>
        <time>2021-08-14T15:54:14Z</time>
      </trkpt>
      <trkpt lat="47.5833" lon="-3.09384">
        <ele>21.4</ele>
        <time>2021-08-14T15:54:15Z</time>
      </trkpt>
      <trkpt lat="47.58333" lon="-3.09381">
        <ele>21.8</ele>
        <time>2021-08-14T15:54:16Z</time>
      </trkpt>
      <trkpt lat="47.58335" lon="-3.09379">
        <ele>22</ele>
        <time>2021-08-14T15:54:17Z</time>
      </trkpt>
      <trkpt lat="47.58338" lon="-3.09376">
        <ele>22.2</ele>
        <time>2021-08-14T15:54:18Z</time>
      </trkpt>
      <trkpt lat="47.5834" lon="-3.09373">
        <ele>22.4</ele>
        <time>2021-08-14T15:54:19Z</time>
      </trkpt>
      <trkpt lat="47.58342" lon="-3.09371">
        <ele>22.4</ele>
        <time>2021-08-14T15:54:20Z</time>
      </trkpt>
      <trkpt lat="47.58344" lon="-3.09368">
        <ele>22.6</ele>
        <time>2021-08-14T15:54:21Z</time>
      </trkpt>
      <trkpt lat="47.58346" lon="-3.09365">
        <ele>22.8</ele>
        <time>2021-08-14T15:54:22Z</time>
      </trkpt>
      <trkpt lat="47.58348" lon="-3.09361">
        <ele>23.2</ele>
        <time>2021-08-14T15:54:23Z</time>
      </trkpt>
      <trkpt lat="47.5835" lon="-3.09358">
        <ele>23.6</ele>
        <time>2021-08-14T15:54:24Z</time>
      </trkpt>
      <trkpt lat="47.58352" lon="-3.09354">
        <ele>23.8</ele>
        <time>2021-08-14T15:54:25Z</time>
      </trkpt>
      <trkpt lat="47.58354" lon="-3.09352">
        <ele>24.2</ele>
        <time>2021-08-14T15:54:26Z</time>
      </trkpt>
      <trkpt lat="47.58356" lon="-3.09349">
        <ele>24.4</ele>
        <time>2021-08-14T15:54:27Z</time>
      </trkpt>
      <trkpt lat="47.58358" lon="-3.09346">
        <ele>24.6</ele>
        <time>2021-08-14T15:54:28Z</time>
      </trkpt>
      <trkpt lat="47.5836" lon="-3.09344">
        <ele>24.8</ele>
        <time>2021-08-14T15:54:29Z</time>
      </trkpt>
      <trkpt lat="47.58362" lon="-3.09341">
        <ele>25.2</ele>
        <time>2021-08-14T15:54:30Z</time>
      </trkpt>
      <trkpt lat="47.58364" lon="-3.09338">
        <ele>25.4</ele>
        <time>2021-08-14T15:54:31Z</time>
      </trkpt>
      <trkpt lat="47.58366" lon="-3.09335">
        <ele>26</ele>
        <time>2021-08-14T15:54:32Z</time>
      </trkpt>
      <trkpt lat="47.58368" lon="-3.09332">
        <ele>26</ele>
        <time>2021-08-14T15:54:33Z</time>
      </trkpt>
      <trkpt lat="47.5837" lon="-3.09329">
        <ele>26.2</ele>
        <time>2021-08-14T15:54:34Z</time>
      </trkpt>
      <trkpt lat="47.58372" lon="-3.09325">
        <ele>26.4</ele>
        <time>2021-08-14T15:54:35Z</time>
      </trkpt>
      <trkpt lat="47.58372" lon="-3.09322">
        <ele>26.6</ele>
        <time>2021-08-14T15:54:36Z</time>
      </trkpt>
      <trkpt lat="47.58372" lon="-3.09318">
        <ele>26.8</ele>
        <time>2021-08-14T15:54:37Z</time>
      </trkpt>
      <trkpt lat="47.58372" lon="-3.09314">
        <ele>27</ele>
        <time>2021-08-14T15:54:38Z</time>
      </trkpt>
      <trkpt lat="47.58371" lon="-3.0931">
        <ele>27.2</ele>
        <time>2021-08-14T15:54:39Z</time>
      </trkpt>
      <trkpt lat="47.5837" lon="-3.09307">
        <ele>27.4</ele>
        <time>2021-08-14T15:54:40Z</time>
      </trkpt>
      <trkpt lat="47.58368" lon="-3.09303">
        <ele>27.6</ele>
        <time>2021-08-14T15:54:41Z</time>
      </trkpt>
      <trkpt lat="47.58367" lon="-3.093">
        <ele>27.8</ele>
        <time>2021-08-14T15:54:42Z</time>
      </trkpt>
      <trkpt lat="47.58365" lon="-3.09297">
        <ele>28</ele>
        <time>2021-08-14T15:54:43Z</time>
      </trkpt>
      <trkpt lat="47.58364" lon="-3.09294">
        <ele>28.2</ele>
        <time>2021-08-14T15:54:44Z</time>
      </trkpt>
      <trkpt lat="47.58362" lon="-3.0929">
        <ele>28.4</ele>
        <time>2021-08-14T15:54:45Z</time>
      </trkpt>
      <trkpt lat="47.58361" lon="-3.09288">
        <ele>28.6</ele>
        <time>2021-08-14T15:54:46Z</time>
      </trkpt>
      <trkpt lat="47.58359" lon="-3.09285">
        <ele>28.6</ele>
        <time>2021-08-14T15:54:47Z</time>
      </trkpt>
      <trkpt lat="47.58357" lon="-3.09283">
        <ele>28.6</ele>
        <time>2021-08-14T15:54:48Z</time>
      </trkpt>
      <trkpt lat="47.58356" lon="-3.0928">
        <ele>28.6</ele>
        <time>2021-08-14T15:54:49Z</time>
      </trkpt>
      <trkpt lat="47.58354" lon="-3.09277">
        <ele>28.6</ele>
        <time>2021-08-14T15:54:50Z</time>
      </trkpt>
      <trkpt lat="47.58353" lon="-3.09274">
        <ele>28.6</ele>
        <time>2021-08-14T15:54:51Z</time>
      </trkpt>
      <trkpt lat="47.58351" lon="-3.09272">
        <ele>28.6</ele>
        <time>2021-08-14T15:54:52Z</time>
      </trkpt>
      <trkpt lat="47.5835" lon="-3.09269">
        <ele>28.6</ele>
        <time>2021-08-14T15:54:53Z</time>
      </trkpt>
      <trkpt lat="47.58349" lon="-3.09267">
        <ele>28.6</ele>
        <time>2021-08-14T15:54:54Z</time>
      </trkpt>
      <trkpt lat="47.58348" lon="-3.09264">
        <ele>28.6</ele>
        <time>2021-08-14T15:54:55Z</time>
      </trkpt>
      <trkpt lat="47.58347" lon="-3.09261">
        <ele>28.6</ele>
        <time>2021-08-14T15:54:56Z</time>
      </trkpt>
      <trkpt lat="47.58346" lon="-3.09259">
        <ele>28.6</ele>
        <time>2021-08-14T15:54:57Z</time>
      </trkpt>
      <trkpt lat="47.58345" lon="-3.09257">
        <ele>28.6</ele>
        <time>2021-08-14T15:54:58Z</time>
      </trkpt>
      <trkpt lat="47.58344" lon="-3.09254">
        <ele>28.4</ele>
        <time>2021-08-14T15:54:59Z</time>
      </trkpt>
      <trkpt lat="47.58343" lon="-3.09252">
        <ele>28.4</ele>
        <time>2021-08-14T15:55:00Z</time>
      </trkpt>
      <trkpt lat="47.58342" lon="-3.0925">
        <ele>28.4</ele>
        <time>2021-08-14T15:55:01Z</time>
      </trkpt>
      <trkpt lat="47.58341" lon="-3.09248">
        <ele>28.4</ele>
        <time>2021-08-14T15:55:02Z</time>
      </trkpt>
      <trkpt lat="47.5834" lon="-3.09245">
        <ele>28.4</ele>
        <time>2021-08-14T15:55:03Z</time>
      </trkpt>
      <trkpt lat="47.5834" lon="-3.09243">
        <ele>28.4</ele>
        <time>2021-08-14T15:55:04Z</time>
      </trkpt>
      <trkpt lat="47.5834" lon="-3.09241">
        <ele>28.4</ele>
        <time>2021-08-14T15:55:05Z</time>
      </trkpt>
      <trkpt lat="47.5834" lon="-3.09239">
        <ele>28.4</ele>
        <time>2021-08-14T15:55:06Z</time>
      </trkpt>
      <trkpt lat="47.58339" lon="-3.09237">
        <ele>28.2</ele>
        <time>2021-08-14T15:55:07Z</time>
      </trkpt>
      <trkpt lat="47.58338" lon="-3.09236">
        <ele>28.2</ele>
        <time>2021-08-14T15:55:08Z</time>
      </trkpt>
      <trkpt lat="47.58337" lon="-3.09235">
        <ele>28.2</ele>
        <time>2021-08-14T15:55:09Z</time>
      </trkpt>
      <trkpt lat="47.58336" lon="-3.09234">
        <ele>28.2</ele>
        <time>2021-08-14T15:55:10Z</time>
      </trkpt>
      <trkpt lat="47.58335" lon="-3.09232">
        <ele>28.2</ele>
        <time>2021-08-14T15:55:11Z</time>
      </trkpt>
      <trkpt lat="47.58334" lon="-3.0923">
        <ele>28</ele>
        <time>2021-08-14T15:55:12Z</time>
      </trkpt>
      <trkpt lat="47.58334" lon="-3.09227">
        <ele>28</ele>
        <time>2021-08-14T15:55:13Z</time>
      </trkpt>
      <trkpt lat="47.58333" lon="-3.09224">
        <ele>28</ele>
        <time>2021-08-14T15:55:14Z</time>
      </trkpt>
      <trkpt lat="47.58333" lon="-3.09222">
        <ele>28</ele>
        <time>2021-08-14T15:55:15Z</time>
      </trkpt>
      <trkpt lat="47.58332" lon="-3.09219">
        <ele>28</ele>
        <time>2021-08-14T15:55:16Z</time>
      </trkpt>
      <trkpt lat="47.58331" lon="-3.09215">
        <ele>27.8</ele>
        <time>2021-08-14T15:55:17Z</time>
      </trkpt>
      <trkpt lat="47.5833" lon="-3.09212">
        <ele>27.8</ele>
        <time>2021-08-14T15:55:18Z</time>
      </trkpt>
      <trkpt lat="47.58328" lon="-3.0921">
        <ele>27.8</ele>
        <time>2021-08-14T15:55:19Z</time>
      </trkpt>
      <trkpt lat="47.58326" lon="-3.09206">
        <ele>27.8</ele>
        <time>2021-08-14T15:55:20Z</time>
      </trkpt>
      <trkpt lat="47.58325" lon="-3.09203">
        <ele>27.8</ele>
        <time>2021-08-14T15:55:21Z</time>
      </trkpt>
      <trkpt lat="47.58324" lon="-3.09199">
        <ele>27.8</ele>
        <time>2021-08-14T15:55:22Z</time>
      </trkpt>
      <trkpt lat="47.58323" lon="-3.09195">
        <ele>27.8</ele>
        <time>2021-08-14T15:55:23Z</time>
      </trkpt>
      <trkpt lat="47.58321" lon="-3.09191">
        <ele>27.8</ele>
        <time>2021-08-14T15:55:24Z</time>
      </trkpt>
      <trkpt lat="47.58319" lon="-3.09187">
        <ele>27.6</ele>
        <time>2021-08-14T15:55:25Z</time>
      </trkpt>
      <trkpt lat="47.58318" lon="-3.09183">
        <ele>27.6</ele>
        <time>2021-08-14T15:55:26Z</time>
      </trkpt>
      <trkpt lat="47.58316" lon="-3.09179">
        <ele>27.6</ele>
        <time>2021-08-14T15:55:27Z</time>
      </trkpt>
      <trkpt lat="47.58314" lon="-3.09176">
        <ele>27.6</ele>
        <time>2021-08-14T15:55:28Z</time>
      </trkpt>
      <trkpt lat="47.58311" lon="-3.09173">
        <ele>27.6</ele>
        <time>2021-08-14T15:55:29Z</time>
      </trkpt>
      <trkpt lat="47.58309" lon="-3.09172">
        <ele>27.2</ele>
        <time>2021-08-14T15:55:30Z</time>
      </trkpt>
      <trkpt lat="47.58306" lon="-3.09172">
        <ele>27.2</ele>
        <time>2021-08-14T15:55:31Z</time>
      </trkpt>
      <trkpt lat="47.58302" lon="-3.09172">
        <ele>27</ele>
        <time>2021-08-14T15:55:32Z</time>
      </trkpt>
      <trkpt lat="47.58299" lon="-3.09173">
        <ele>26.8</ele>
        <time>2021-08-14T15:55:33Z</time>
      </trkpt>
      <trkpt lat="47.58295" lon="-3.09174">
        <ele>26.6</ele>
        <time>2021-08-14T15:55:34Z</time>
      </trkpt>
      <trkpt lat="47.5829" lon="-3.09175">
        <ele>26.6</ele>
        <time>2021-08-14T15:55:35Z</time>
      </trkpt>
      <trkpt lat="47.58286" lon="-3.09176">
        <ele>26.6</ele>
        <time>2021-08-14T15:55:36Z</time>
      </trkpt>
      <trkpt lat="47.58281" lon="-3.09177">
        <ele>26.6</ele>
        <time>2021-08-14T15:55:37Z</time>
      </trkpt>
      <trkpt lat="47.58276" lon="-3.09177">
        <ele>26.4</ele>
        <time>2021-08-14T15:55:38Z</time>
      </trkpt>
      <trkpt lat="47.5827" lon="-3.09177">
        <ele>26.2</ele>
        <time>2021-08-14T15:55:39Z</time>
      </trkpt>
      <trkpt lat="47.58264" lon="-3.09177">
        <ele>26</ele>
        <time>2021-08-14T15:55:40Z</time>
      </trkpt>
      <trkpt lat="47.58258" lon="-3.09177">
        <ele>26</ele>
        <time>2021-08-14T15:55:41Z</time>
      </trkpt>
      <trkpt lat="47.58252" lon="-3.09178">
        <ele>25.6</ele>
        <time>2021-08-14T15:55:42Z</time>
      </trkpt>
      <trkpt lat="47.58246" lon="-3.09177">
        <ele>25.4</ele>
        <time>2021-08-14T15:55:43Z</time>
      </trkpt>
      <trkpt lat="47.5824" lon="-3.09176">
        <ele>25.2</ele>
        <time>2021-08-14T15:55:44Z</time>
      </trkpt>
      <trkpt lat="47.58234" lon="-3.09175">
        <ele>25</ele>
        <time>2021-08-14T15:55:45Z</time>
      </trkpt>
      <trkpt lat="47.58228" lon="-3.09173">
        <ele>24.6</ele>
        <time>2021-08-14T15:55:46Z</time>
      </trkpt>
      <trkpt lat="47.58222" lon="-3.0917">
        <ele>24.2</ele>
        <time>2021-08-14T15:55:47Z</time>
      </trkpt>
      <trkpt lat="47.58216" lon="-3.09166">
        <ele>23.6</ele>
        <time>2021-08-14T15:55:48Z</time>
      </trkpt>
      <trkpt lat="47.58212" lon="-3.09161">
        <ele>23.2</ele>
        <time>2021-08-14T15:55:49Z</time>
      </trkpt>
      <trkpt lat="47.58209" lon="-3.09156">
        <ele>23</ele>
        <time>2021-08-14T15:55:50Z</time>
      </trkpt>
      <trkpt lat="47.58207" lon="-3.09151">
        <ele>22.6</ele>
        <time>2021-08-14T15:55:51Z</time>
      </trkpt>
      <trkpt lat="47.58204" lon="-3.09147">
        <ele>22.6</ele>
        <time>2021-08-14T15:55:52Z</time>
      </trkpt>
      <trkpt lat="47.58201" lon="-3.09143">
        <ele>22.6</ele>
        <time>2021-08-14T15:55:53Z</time>
      </trkpt>
      <trkpt lat="47.58198" lon="-3.09139">
        <ele>22.4</ele>
        <time>2021-08-14T15:55:54Z</time>
      </trkpt>
      <trkpt lat="47.58196" lon="-3.09135">
        <ele>22.4</ele>
        <time>2021-08-14T15:55:55Z</time>
      </trkpt>
      <trkpt lat="47.58193" lon="-3.09131">
        <ele>22.4</ele>
        <time>2021-08-14T15:55:56Z</time>
      </trkpt>
      <trkpt lat="47.5819" lon="-3.09128">
        <ele>22.4</ele>
        <time>2021-08-14T15:55:57Z</time>
      </trkpt>
      <trkpt lat="47.58188" lon="-3.09126">
        <ele>22.4</ele>
        <time>2021-08-14T15:55:58Z</time>
      </trkpt>
      <trkpt lat="47.58186" lon="-3.09123">
        <ele>22.4</ele>
        <time>2021-08-14T15:55:59Z</time>
      </trkpt>
      <trkpt lat="47.58184" lon="-3.09122">
        <ele>22.6</ele>
        <time>2021-08-14T15:56:00Z</time>
      </trkpt>
      <trkpt lat="47.58181" lon="-3.09122">
        <ele>22.6</ele>
        <time>2021-08-14T15:56:01Z</time>
      </trkpt>
      <trkpt lat="47.58179" lon="-3.09122">
        <ele>22.6</ele>
        <time>2021-08-14T15:56:02Z</time>
      </trkpt>
      <trkpt lat="47.58176" lon="-3.09121">
        <ele>22.8</ele>
        <time>2021-08-14T15:56:03Z</time>
      </trkpt>
      <trkpt lat="47.58174" lon="-3.09121">
        <ele>22.8</ele>
        <time>2021-08-14T15:56:04Z</time>
      </trkpt>
      <trkpt lat="47.58171" lon="-3.09121">
        <ele>23</ele>
        <time>2021-08-14T15:56:05Z</time>
      </trkpt>
      <trkpt lat="47.58167" lon="-3.09121">
        <ele>23</ele>
        <time>2021-08-14T15:56:06Z</time>
      </trkpt>
      <trkpt lat="47.58163" lon="-3.09121">
        <ele>23</ele>
        <time>2021-08-14T15:56:07Z</time>
      </trkpt>
      <trkpt lat="47.58159" lon="-3.09121">
        <ele>23</ele>
        <time>2021-08-14T15:56:08Z</time>
      </trkpt>
      <trkpt lat="47.58154" lon="-3.09121">
        <ele>23</ele>
        <time>2021-08-14T15:56:09Z</time>
      </trkpt>
      <trkpt lat="47.58149" lon="-3.0912">
        <ele>23</ele>
        <time>2021-08-14T15:56:10Z</time>
      </trkpt>
      <trkpt lat="47.58145" lon="-3.0912">
        <ele>23</ele>
        <time>2021-08-14T15:56:11Z</time>
      </trkpt>
      <trkpt lat="47.58141" lon="-3.09119">
        <ele>23</ele>
        <time>2021-08-14T15:56:12Z</time>
      </trkpt>
      <trkpt lat="47.58137" lon="-3.09119">
        <ele>23.2</ele>
        <time>2021-08-14T15:56:13Z</time>
      </trkpt>
      <trkpt lat="47.58133" lon="-3.09118">
        <ele>23.2</ele>
        <time>2021-08-14T15:56:14Z</time>
      </trkpt>
      <trkpt lat="47.58128" lon="-3.09118">
        <ele>23.2</ele>
        <time>2021-08-14T15:56:15Z</time>
      </trkpt>
      <trkpt lat="47.58124" lon="-3.09118">
        <ele>23.2</ele>
        <time>2021-08-14T15:56:16Z</time>
      </trkpt>
      <trkpt lat="47.58121" lon="-3.09117">
        <ele>23.2</ele>
        <time>2021-08-14T15:56:17Z</time>
      </trkpt>
      <trkpt lat="47.58117" lon="-3.09117">
        <ele>23.2</ele>
        <time>2021-08-14T15:56:18Z</time>
      </trkpt>
      <trkpt lat="47.58113" lon="-3.09116">
        <ele>23.2</ele>
        <time>2021-08-14T15:56:19Z</time>
      </trkpt>
      <trkpt lat="47.58109" lon="-3.09115">
        <ele>23.2</ele>
        <time>2021-08-14T15:56:20Z</time>
      </trkpt>
      <trkpt lat="47.58106" lon="-3.09114">
        <ele>23.2</ele>
        <time>2021-08-14T15:56:21Z</time>
      </trkpt>
      <trkpt lat="47.58102" lon="-3.09113">
        <ele>23.2</ele>
        <time>2021-08-14T15:56:22Z</time>
      </trkpt>
      <trkpt lat="47.58098" lon="-3.09112">
        <ele>23.4</ele>
        <time>2021-08-14T15:56:23Z</time>
      </trkpt>
      <trkpt lat="47.58095" lon="-3.09111">
        <ele>23.4</ele>
        <time>2021-08-14T15:56:24Z</time>
      </trkpt>
      <trkpt lat="47.58091" lon="-3.0911">
        <ele>23.4</ele>
        <time>2021-08-14T15:56:25Z</time>
      </trkpt>
      <trkpt lat="47.58087" lon="-3.09108">
        <ele>23.4</ele>
        <time>2021-08-14T15:56:26Z</time>
      </trkpt>
      <trkpt lat="47.58083" lon="-3.09106">
        <ele>23.4</ele>
        <time>2021-08-14T15:56:27Z</time>
      </trkpt>
      <trkpt lat="47.58078" lon="-3.09104">
        <ele>23.4</ele>
        <time>2021-08-14T15:56:28Z</time>
      </trkpt>
      <trkpt lat="47.58073" lon="-3.09102">
        <ele>23.4</ele>
        <time>2021-08-14T15:56:29Z</time>
      </trkpt>
      <trkpt lat="47.58068" lon="-3.091">
        <ele>23.4</ele>
        <time>2021-08-14T15:56:30Z</time>
      </trkpt>
      <trkpt lat="47.58063" lon="-3.09097">
        <ele>23.4</ele>
        <time>2021-08-14T15:56:31Z</time>
      </trkpt>
      <trkpt lat="47.58058" lon="-3.09094">
        <ele>23.4</ele>
        <time>2021-08-14T15:56:32Z</time>
      </trkpt>
      <trkpt lat="47.58053" lon="-3.09091">
        <ele>23.4</ele>
        <time>2021-08-14T15:56:33Z</time>
      </trkpt>
      <trkpt lat="47.58047" lon="-3.09088">
        <ele>23.4</ele>
        <time>2021-08-14T15:56:34Z</time>
      </trkpt>
      <trkpt lat="47.58042" lon="-3.09085">
        <ele>23.4</ele>
        <time>2021-08-14T15:56:35Z</time>
      </trkpt>
      <trkpt lat="47.58036" lon="-3.09082">
        <ele>23.4</ele>
        <time>2021-08-14T15:56:36Z</time>
      </trkpt>
      <trkpt lat="47.5803" lon="-3.09079">
        <ele>23.4</ele>
        <time>2021-08-14T15:56:37Z</time>
      </trkpt>
      <trkpt lat="47.58024" lon="-3.09076">
        <ele>23.2</ele>
        <time>2021-08-14T15:56:38Z</time>
      </trkpt>
      <trkpt lat="47.58018" lon="-3.09072">
        <ele>22.8</ele>
        <time>2021-08-14T15:56:39Z</time>
      </trkpt>
      <trkpt lat="47.58012" lon="-3.09069">
        <ele>22.4</ele>
        <time>2021-08-14T15:56:40Z</time>
      </trkpt>
      <trkpt lat="47.58006" lon="-3.09065">
        <ele>22.2</ele>
        <time>2021-08-14T15:56:41Z</time>
      </trkpt>
      <trkpt lat="47.58" lon="-3.09062">
        <ele>22</ele>
        <time>2021-08-14T15:56:42Z</time>
      </trkpt>
      <trkpt lat="47.57994" lon="-3.09058">
        <ele>21.8</ele>
        <time>2021-08-14T15:56:43Z</time>
      </trkpt>
      <trkpt lat="47.57988" lon="-3.09055">
        <ele>21.4</ele>
        <time>2021-08-14T15:56:44Z</time>
      </trkpt>
      <trkpt lat="47.57981" lon="-3.09051">
        <ele>21</ele>
        <time>2021-08-14T15:56:45Z</time>
      </trkpt>
      <trkpt lat="47.57975" lon="-3.09048">
        <ele>20.6</ele>
        <time>2021-08-14T15:56:46Z</time>
      </trkpt>
      <trkpt lat="47.57969" lon="-3.09044">
        <ele>20.4</ele>
        <time>2021-08-14T15:56:47Z</time>
      </trkpt>
      <trkpt lat="47.57963" lon="-3.0904">
        <ele>20.2</ele>
        <time>2021-08-14T15:56:48Z</time>
      </trkpt>
      <trkpt lat="47.57957" lon="-3.09038">
        <ele>20</ele>
        <time>2021-08-14T15:56:49Z</time>
      </trkpt>
      <trkpt lat="47.57951" lon="-3.09035">
        <ele>19.6</ele>
        <time>2021-08-14T15:56:50Z</time>
      </trkpt>
      <trkpt lat="47.57946" lon="-3.09032">
        <ele>19.4</ele>
        <time>2021-08-14T15:56:51Z</time>
      </trkpt>
      <trkpt lat="47.57941" lon="-3.09029">
        <ele>19.4</ele>
        <time>2021-08-14T15:56:52Z</time>
      </trkpt>
      <trkpt lat="47.57936" lon="-3.09027">
        <ele>19.2</ele>
        <time>2021-08-14T15:56:53Z</time>
      </trkpt>
      <trkpt lat="47.57931" lon="-3.09025">
        <ele>19.2</ele>
        <time>2021-08-14T15:56:54Z</time>
      </trkpt>
      <trkpt lat="47.57927" lon="-3.09022">
        <ele>19.2</ele>
        <time>2021-08-14T15:56:55Z</time>
      </trkpt>
      <trkpt lat="47.57923" lon="-3.0902">
        <ele>19.2</ele>
        <time>2021-08-14T15:56:56Z</time>
      </trkpt>
      <trkpt lat="47.57918" lon="-3.09017">
        <ele>19.2</ele>
        <time>2021-08-14T15:56:57Z</time>
      </trkpt>
      <trkpt lat="47.57914" lon="-3.09015">
        <ele>19.2</ele>
        <time>2021-08-14T15:56:58Z</time>
      </trkpt>
      <trkpt lat="47.5791" lon="-3.09013">
        <ele>19.2</ele>
        <time>2021-08-14T15:56:59Z</time>
      </trkpt>
      <trkpt lat="47.57906" lon="-3.0901">
        <ele>19.2</ele>
        <time>2021-08-14T15:57:00Z</time>
      </trkpt>
      <trkpt lat="47.57902" lon="-3.09008">
        <ele>19.2</ele>
        <time>2021-08-14T15:57:01Z</time>
      </trkpt>
      <trkpt lat="47.57898" lon="-3.09006">
        <ele>19.2</ele>
        <time>2021-08-14T15:57:02Z</time>
      </trkpt>
      <trkpt lat="47.57894" lon="-3.09004">
        <ele>19.4</ele>
        <time>2021-08-14T15:57:03Z</time>
      </trkpt>
      <trkpt lat="47.5789" lon="-3.09002">
        <ele>19.6</ele>
        <time>2021-08-14T15:57:04Z</time>
      </trkpt>
      <trkpt lat="47.57886" lon="-3.09">
        <ele>19.6</ele>
        <time>2021-08-14T15:57:05Z</time>
      </trkpt>
      <trkpt lat="47.57882" lon="-3.08998">
        <ele>19.8</ele>
        <time>2021-08-14T15:57:06Z</time>
      </trkpt>
      <trkpt lat="47.57878" lon="-3.08995">
        <ele>20</ele>
        <time>2021-08-14T15:57:07Z</time>
      </trkpt>
      <trkpt lat="47.57874" lon="-3.08993">
        <ele>20</ele>
        <time>2021-08-14T15:57:08Z</time>
      </trkpt>
      <trkpt lat="47.5787" lon="-3.08991">
        <ele>20</ele>
        <time>2021-08-14T15:57:09Z</time>
      </trkpt>
      <trkpt lat="47.57866" lon="-3.08989">
        <ele>20.2</ele>
        <time>2021-08-14T15:57:10Z</time>
      </trkpt>
      <trkpt lat="47.57862" lon="-3.08987">
        <ele>20.2</ele>
        <time>2021-08-14T15:57:11Z</time>
      </trkpt>
      <trkpt lat="47.57857" lon="-3.08984">
        <ele>20.2</ele>
        <time>2021-08-14T15:57:12Z</time>
      </trkpt>
      <trkpt lat="47.57853" lon="-3.08982">
        <ele>20.2</ele>
        <time>2021-08-14T15:57:13Z</time>
      </trkpt>
      <trkpt lat="47.57849" lon="-3.08979">
        <ele>20.2</ele>
        <time>2021-08-14T15:57:14Z</time>
      </trkpt>
      <trkpt lat="47.57844" lon="-3.08977">
        <ele>20.2</ele>
        <time>2021-08-14T15:57:15Z</time>
      </trkpt>
      <trkpt lat="47.5784" lon="-3.08974">
        <ele>20.6</ele>
        <time>2021-08-14T15:57:16Z</time>
      </trkpt>
      <trkpt lat="47.57835" lon="-3.08972">
        <ele>20.4</ele>
        <time>2021-08-14T15:57:17Z</time>
      </trkpt>
      <trkpt lat="47.57831" lon="-3.0897">
        <ele>20.4</ele>
        <time>2021-08-14T15:57:18Z</time>
      </trkpt>
      <trkpt lat="47.57826" lon="-3.08967">
        <ele>20.6</ele>
        <time>2021-08-14T15:57:19Z</time>
      </trkpt>
      <trkpt lat="47.57821" lon="-3.08965">
        <ele>20.4</ele>
        <time>2021-08-14T15:57:20Z</time>
      </trkpt>
      <trkpt lat="47.57817" lon="-3.08962">
        <ele>20.6</ele>
        <time>2021-08-14T15:57:21Z</time>
      </trkpt>
      <trkpt lat="47.57812" lon="-3.0896">
        <ele>20.6</ele>
        <time>2021-08-14T15:57:22Z</time>
      </trkpt>
      <trkpt lat="47.57808" lon="-3.08957">
        <ele>20.6</ele>
        <time>2021-08-14T15:57:23Z</time>
      </trkpt>
      <trkpt lat="47.57804" lon="-3.08955">
        <ele>20.6</ele>
        <time>2021-08-14T15:57:24Z</time>
      </trkpt>
      <trkpt lat="47.57799" lon="-3.08953">
        <ele>20.6</ele>
        <time>2021-08-14T15:57:25Z</time>
      </trkpt>
      <trkpt lat="47.57795" lon="-3.0895">
        <ele>20.6</ele>
        <time>2021-08-14T15:57:26Z</time>
      </trkpt>
      <trkpt lat="47.5779" lon="-3.08948">
        <ele>20.6</ele>
        <time>2021-08-14T15:57:27Z</time>
      </trkpt>
      <trkpt lat="47.57786" lon="-3.08945">
        <ele>20.6</ele>
        <time>2021-08-14T15:57:28Z</time>
      </trkpt>
      <trkpt lat="47.57781" lon="-3.08943">
        <ele>20.4</ele>
        <time>2021-08-14T15:57:29Z</time>
      </trkpt>
      <trkpt lat="47.57776" lon="-3.08941">
        <ele>20.4</ele>
        <time>2021-08-14T15:57:30Z</time>
      </trkpt>
      <trkpt lat="47.57771" lon="-3.08938">
        <ele>20.4</ele>
        <time>2021-08-14T15:57:31Z</time>
      </trkpt>
      <trkpt lat="47.57766" lon="-3.08935">
        <ele>20.4</ele>
        <time>2021-08-14T15:57:32Z</time>
      </trkpt>
      <trkpt lat="47.57761" lon="-3.08932">
        <ele>20.6</ele>
        <time>2021-08-14T15:57:33Z</time>
      </trkpt>
      <trkpt lat="47.57756" lon="-3.08929">
        <ele>20.6</ele>
        <time>2021-08-14T15:57:34Z</time>
      </trkpt>
      <trkpt lat="47.5775" lon="-3.08927">
        <ele>20.6</ele>
        <time>2021-08-14T15:57:35Z</time>
      </trkpt>
      <trkpt lat="47.57745" lon="-3.08924">
        <ele>20.6</ele>
        <time>2021-08-14T15:57:36Z</time>
      </trkpt>
      <trkpt lat="47.5774" lon="-3.08921">
        <ele>20.6</ele>
        <time>2021-08-14T15:57:37Z</time>
      </trkpt>
      <trkpt lat="47.57735" lon="-3.08918">
        <ele>20.2</ele>
        <time>2021-08-14T15:57:38Z</time>
      </trkpt>
      <trkpt lat="47.5773" lon="-3.08916">
        <ele>20</ele>
        <time>2021-08-14T15:57:39Z</time>
      </trkpt>
      <trkpt lat="47.57725" lon="-3.08913">
        <ele>20</ele>
        <time>2021-08-14T15:57:40Z</time>
      </trkpt>
      <trkpt lat="47.5772" lon="-3.0891">
        <ele>19.6</ele>
        <time>2021-08-14T15:57:41Z</time>
      </trkpt>
      <trkpt lat="47.57715" lon="-3.08908">
        <ele>19.4</ele>
        <time>2021-08-14T15:57:42Z</time>
      </trkpt>
      <trkpt lat="47.5771" lon="-3.08905">
        <ele>19.4</ele>
        <time>2021-08-14T15:57:43Z</time>
      </trkpt>
      <trkpt lat="47.57705" lon="-3.08902">
        <ele>19.4</ele>
        <time>2021-08-14T15:57:44Z</time>
      </trkpt>
      <trkpt lat="47.577" lon="-3.08899">
        <ele>19.4</ele>
        <time>2021-08-14T15:57:45Z</time>
      </trkpt>
      <trkpt lat="47.57695" lon="-3.08896">
        <ele>19.4</ele>
        <time>2021-08-14T15:57:46Z</time>
      </trkpt>
      <trkpt lat="47.57689" lon="-3.08894">
        <ele>19.4</ele>
        <time>2021-08-14T15:57:47Z</time>
      </trkpt>
      <trkpt lat="47.57684" lon="-3.08891">
        <ele>19.4</ele>
        <time>2021-08-14T15:57:48Z</time>
      </trkpt>
      <trkpt lat="47.57679" lon="-3.08888">
        <ele>19.4</ele>
        <time>2021-08-14T15:57:49Z</time>
      </trkpt>
      <trkpt lat="47.57674" lon="-3.08885">
        <ele>19.4</ele>
        <time>2021-08-14T15:57:50Z</time>
      </trkpt>
      <trkpt lat="47.57668" lon="-3.08882">
        <ele>19.4</ele>
        <time>2021-08-14T15:57:51Z</time>
      </trkpt>
      <trkpt lat="47.57663" lon="-3.08879">
        <ele>19.2</ele>
        <time>2021-08-14T15:57:52Z</time>
      </trkpt>
      <trkpt lat="47.57658" lon="-3.08875">
        <ele>19.2</ele>
        <time>2021-08-14T15:57:53Z</time>
      </trkpt>
      <trkpt lat="47.57653" lon="-3.08872">
        <ele>19.2</ele>
        <time>2021-08-14T15:57:54Z</time>
      </trkpt>
      <trkpt lat="47.57649" lon="-3.08869">
        <ele>19.2</ele>
        <time>2021-08-14T15:57:55Z</time>
      </trkpt>
      <trkpt lat="47.57644" lon="-3.08865">
        <ele>19.2</ele>
        <time>2021-08-14T15:57:56Z</time>
      </trkpt>
      <trkpt lat="47.5764" lon="-3.08862">
        <ele>19.2</ele>
        <time>2021-08-14T15:57:57Z</time>
      </trkpt>
      <trkpt lat="47.57635" lon="-3.08858">
        <ele>19.2</ele>
        <time>2021-08-14T15:57:58Z</time>
      </trkpt>
      <trkpt lat="47.57631" lon="-3.08854">
        <ele>19.2</ele>
        <time>2021-08-14T15:57:59Z</time>
      </trkpt>
      <trkpt lat="47.57626" lon="-3.0885">
        <ele>19.2</ele>
        <time>2021-08-14T15:58:00Z</time>
      </trkpt>
      <trkpt lat="47.57622" lon="-3.08846">
        <ele>19.2</ele>
        <time>2021-08-14T15:58:01Z</time>
      </trkpt>
      <trkpt lat="47.57617" lon="-3.08842">
        <ele>19.2</ele>
        <time>2021-08-14T15:58:02Z</time>
      </trkpt>
      <trkpt lat="47.57613" lon="-3.08838">
        <ele>19.2</ele>
        <time>2021-08-14T15:58:03Z</time>
      </trkpt>
      <trkpt lat="47.57609" lon="-3.08834">
        <ele>19.4</ele>
        <time>2021-08-14T15:58:04Z</time>
      </trkpt>
      <trkpt lat="47.57605" lon="-3.0883">
        <ele>19.4</ele>
        <time>2021-08-14T15:58:05Z</time>
      </trkpt>
      <trkpt lat="47.57601" lon="-3.08826">
        <ele>19.4</ele>
        <time>2021-08-14T15:58:06Z</time>
      </trkpt>
      <trkpt lat="47.57596" lon="-3.08822">
        <ele>19.4</ele>
        <time>2021-08-14T15:58:07Z</time>
      </trkpt>
      <trkpt lat="47.57593" lon="-3.08819">
        <ele>19.4</ele>
        <time>2021-08-14T15:58:08Z</time>
      </trkpt>
      <trkpt lat="47.57589" lon="-3.08815">
        <ele>19.4</ele>
        <time>2021-08-14T15:58:09Z</time>
      </trkpt>
      <trkpt lat="47.57585" lon="-3.08812">
        <ele>19.4</ele>
        <time>2021-08-14T15:58:10Z</time>
      </trkpt>
      <trkpt lat="47.57581" lon="-3.08808">
        <ele>19.4</ele>
        <time>2021-08-14T15:58:11Z</time>
      </trkpt>
      <trkpt lat="47.57577" lon="-3.08804">
        <ele>19.4</ele>
        <time>2021-08-14T15:58:12Z</time>
      </trkpt>
      <trkpt lat="47.57573" lon="-3.08801">
        <ele>19.4</ele>
        <time>2021-08-14T15:58:13Z</time>
      </trkpt>
      <trkpt lat="47.5757" lon="-3.08797">
        <ele>19.4</ele>
        <time>2021-08-14T15:58:14Z</time>
      </trkpt>
      <trkpt lat="47.57566" lon="-3.08793">
        <ele>19.4</ele>
        <time>2021-08-14T15:58:15Z</time>
      </trkpt>
      <trkpt lat="47.57562" lon="-3.0879">
        <ele>19.4</ele>
        <time>2021-08-14T15:58:16Z</time>
      </trkpt>
      <trkpt lat="47.57558" lon="-3.08786">
        <ele>19.4</ele>
        <time>2021-08-14T15:58:17Z</time>
      </trkpt>
      <trkpt lat="47.57554" lon="-3.08782">
        <ele>19.4</ele>
        <time>2021-08-14T15:58:18Z</time>
      </trkpt>
      <trkpt lat="47.57551" lon="-3.08779">
        <ele>19.4</ele>
        <time>2021-08-14T15:58:19Z</time>
      </trkpt>
      <trkpt lat="47.57547" lon="-3.08775">
        <ele>19.4</ele>
        <time>2021-08-14T15:58:20Z</time>
      </trkpt>
      <trkpt lat="47.57544" lon="-3.08772">
        <ele>19.4</ele>
        <time>2021-08-14T15:58:21Z</time>
      </trkpt>
      <trkpt lat="47.5754" lon="-3.08768">
        <ele>19.4</ele>
        <time>2021-08-14T15:58:22Z</time>
      </trkpt>
      <trkpt lat="47.57537" lon="-3.08765">
        <ele>19.4</ele>
        <time>2021-08-14T15:58:23Z</time>
      </trkpt>
      <trkpt lat="47.57533" lon="-3.08762">
        <ele>19.4</ele>
        <time>2021-08-14T15:58:24Z</time>
      </trkpt>
      <trkpt lat="47.5753" lon="-3.08759">
        <ele>19.4</ele>
        <time>2021-08-14T15:58:25Z</time>
      </trkpt>
      <trkpt lat="47.57527" lon="-3.08756">
        <ele>19.4</ele>
        <time>2021-08-14T15:58:26Z</time>
      </trkpt>
      <trkpt lat="47.57524" lon="-3.08754">
        <ele>19.4</ele>
        <time>2021-08-14T15:58:27Z</time>
      </trkpt>
      <trkpt lat="47.57523" lon="-3.08752">
        <ele>19.4</ele>
        <time>2021-08-14T15:58:28Z</time>
      </trkpt>
      <trkpt lat="47.57522" lon="-3.08751">
        <ele>19.4</ele>
        <time>2021-08-14T15:58:29Z</time>
      </trkpt>
      <trkpt lat="47.57521" lon="-3.0875">
        <ele>19.4</ele>
        <time>2021-08-14T15:58:30Z</time>
      </trkpt>
      <trkpt lat="47.57519" lon="-3.08749">
        <ele>19.4</ele>
        <time>2021-08-14T15:58:31Z</time>
      </trkpt>
      <trkpt lat="47.57518" lon="-3.08748">
        <ele>19.4</ele>
        <time>2021-08-14T15:58:32Z</time>
      </trkpt>
      <trkpt lat="47.57517" lon="-3.08747">
        <ele>19.4</ele>
        <time>2021-08-14T15:58:33Z</time>
      </trkpt>
      <trkpt lat="47.57515" lon="-3.08747">
        <ele>19.4</ele>
        <time>2021-08-14T15:58:34Z</time>
      </trkpt>
      <trkpt lat="47.57513" lon="-3.08747">
        <ele>19.6</ele>
        <time>2021-08-14T15:58:35Z</time>
      </trkpt>
      <trkpt lat="47.57511" lon="-3.08746">
        <ele>19.6</ele>
        <time>2021-08-14T15:58:36Z</time>
      </trkpt>
      <trkpt lat="47.57508" lon="-3.08746">
        <ele>20</ele>
        <time>2021-08-14T15:58:37Z</time>
      </trkpt>
      <trkpt lat="47.57506" lon="-3.08747">
        <ele>20</ele>
        <time>2021-08-14T15:58:38Z</time>
      </trkpt>
      <trkpt lat="47.57503" lon="-3.08749">
        <ele>20</ele>
        <time>2021-08-14T15:58:39Z</time>
      </trkpt>
      <trkpt lat="47.575" lon="-3.08751">
        <ele>20</ele>
        <time>2021-08-14T15:58:40Z</time>
      </trkpt>
      <trkpt lat="47.57497" lon="-3.08753">
        <ele>20</ele>
        <time>2021-08-14T15:58:41Z</time>
      </trkpt>
      <trkpt lat="47.57494" lon="-3.08755">
        <ele>20</ele>
        <time>2021-08-14T15:58:42Z</time>
      </trkpt>
      <trkpt lat="47.57491" lon="-3.08757">
        <ele>20</ele>
        <time>2021-08-14T15:58:43Z</time>
      </trkpt>
      <trkpt lat="47.57489" lon="-3.0876">
        <ele>20</ele>
        <time>2021-08-14T15:58:44Z</time>
      </trkpt>
      <trkpt lat="47.57486" lon="-3.08762">
        <ele>20</ele>
        <time>2021-08-14T15:58:45Z</time>
      </trkpt>
      <trkpt lat="47.57483" lon="-3.08763">
        <ele>20</ele>
        <time>2021-08-14T15:58:46Z</time>
      </trkpt>
      <trkpt lat="47.5748" lon="-3.08764">
        <ele>20</ele>
        <time>2021-08-14T15:58:47Z</time>
      </trkpt>
      <trkpt lat="47.57477" lon="-3.08764">
        <ele>20</ele>
        <time>2021-08-14T15:58:48Z</time>
      </trkpt>
      <trkpt lat="47.57474" lon="-3.08762">
        <ele>20</ele>
        <time>2021-08-14T15:58:49Z</time>
      </trkpt>
      <trkpt lat="47.5747" lon="-3.0876">
        <ele>20</ele>
        <time>2021-08-14T15:58:50Z</time>
      </trkpt>
      <trkpt lat="47.57467" lon="-3.08758">
        <ele>20</ele>
        <time>2021-08-14T15:58:51Z</time>
      </trkpt>
      <trkpt lat="47.57463" lon="-3.08755">
        <ele>20</ele>
        <time>2021-08-14T15:58:52Z</time>
      </trkpt>
      <trkpt lat="47.5746" lon="-3.08753">
        <ele>20</ele>
        <time>2021-08-14T15:58:53Z</time>
      </trkpt>
      <trkpt lat="47.57456" lon="-3.0875">
        <ele>20</ele>
        <time>2021-08-14T15:58:54Z</time>
      </trkpt>
      <trkpt lat="47.57452" lon="-3.08747">
        <ele>20</ele>
        <time>2021-08-14T15:58:55Z</time>
      </trkpt>
      <trkpt lat="47.57447" lon="-3.08744">
        <ele>20.2</ele>
        <time>2021-08-14T15:58:56Z</time>
      </trkpt>
      <trkpt lat="47.57443" lon="-3.0874">
        <ele>20.2</ele>
        <time>2021-08-14T15:58:57Z</time>
      </trkpt>
      <trkpt lat="47.57439" lon="-3.08737">
        <ele>20.4</ele>
        <time>2021-08-14T15:58:58Z</time>
      </trkpt>
      <trkpt lat="47.57434" lon="-3.08734">
        <ele>20.2</ele>
        <time>2021-08-14T15:58:59Z</time>
      </trkpt>
      <trkpt lat="47.5743" lon="-3.08731">
        <ele>20.4</ele>
        <time>2021-08-14T15:59:00Z</time>
      </trkpt>
      <trkpt lat="47.57425" lon="-3.08729">
        <ele>20.4</ele>
        <time>2021-08-14T15:59:01Z</time>
      </trkpt>
      <trkpt lat="47.5742" lon="-3.08726">
        <ele>20.4</ele>
        <time>2021-08-14T15:59:02Z</time>
      </trkpt>
      <trkpt lat="47.57415" lon="-3.08724">
        <ele>20.4</ele>
        <time>2021-08-14T15:59:03Z</time>
      </trkpt>
      <trkpt lat="47.5741" lon="-3.08721">
        <ele>20.2</ele>
        <time>2021-08-14T15:59:04Z</time>
      </trkpt>
      <trkpt lat="47.57405" lon="-3.08719">
        <ele>20.2</ele>
        <time>2021-08-14T15:59:05Z</time>
      </trkpt>
      <trkpt lat="47.57401" lon="-3.08717">
        <ele>20</ele>
        <time>2021-08-14T15:59:06Z</time>
      </trkpt>
      <trkpt lat="47.57396" lon="-3.08715">
        <ele>20.2</ele>
        <time>2021-08-14T15:59:07Z</time>
      </trkpt>
      <trkpt lat="47.57391" lon="-3.08713">
        <ele>20</ele>
        <time>2021-08-14T15:59:08Z</time>
      </trkpt>
      <trkpt lat="47.57386" lon="-3.08711">
        <ele>20</ele>
        <time>2021-08-14T15:59:09Z</time>
      </trkpt>
      <trkpt lat="47.57381" lon="-3.08709">
        <ele>19.8</ele>
        <time>2021-08-14T15:59:10Z</time>
      </trkpt>
      <trkpt lat="47.57377" lon="-3.08708">
        <ele>19.8</ele>
        <time>2021-08-14T15:59:11Z</time>
      </trkpt>
      <trkpt lat="47.57373" lon="-3.08707">
        <ele>19.8</ele>
        <time>2021-08-14T15:59:12Z</time>
      </trkpt>
      <trkpt lat="47.57369" lon="-3.08705">
        <ele>19.8</ele>
        <time>2021-08-14T15:59:13Z</time>
      </trkpt>
      <trkpt lat="47.57365" lon="-3.08704">
        <ele>19.8</ele>
        <time>2021-08-14T15:59:14Z</time>
      </trkpt>
      <trkpt lat="47.57361" lon="-3.08703">
        <ele>19.6</ele>
        <time>2021-08-14T15:59:15Z</time>
      </trkpt>
      <trkpt lat="47.57356" lon="-3.08701">
        <ele>19.6</ele>
        <time>2021-08-14T15:59:16Z</time>
      </trkpt>
      <trkpt lat="47.57352" lon="-3.087">
        <ele>19.6</ele>
        <time>2021-08-14T15:59:17Z</time>
      </trkpt>
      <trkpt lat="47.57347" lon="-3.08698">
        <ele>19.6</ele>
        <time>2021-08-14T15:59:18Z</time>
      </trkpt>
      <trkpt lat="47.57343" lon="-3.08697">
        <ele>19.6</ele>
        <time>2021-08-14T15:59:19Z</time>
      </trkpt>
      <trkpt lat="47.57338" lon="-3.08695">
        <ele>19.4</ele>
        <time>2021-08-14T15:59:20Z</time>
      </trkpt>
      <trkpt lat="47.57334" lon="-3.08693">
        <ele>19.4</ele>
        <time>2021-08-14T15:59:21Z</time>
      </trkpt>
      <trkpt lat="47.57329" lon="-3.08691">
        <ele>19.4</ele>
        <time>2021-08-14T15:59:22Z</time>
      </trkpt>
      <trkpt lat="47.57325" lon="-3.0869">
        <ele>19.4</ele>
        <time>2021-08-14T15:59:23Z</time>
      </trkpt>
      <trkpt lat="47.5732" lon="-3.08688">
        <ele>19.2</ele>
        <time>2021-08-14T15:59:24Z</time>
      </trkpt>
      <trkpt lat="47.57316" lon="-3.08686">
        <ele>19.2</ele>
        <time>2021-08-14T15:59:25Z</time>
      </trkpt>
      <trkpt lat="47.57312" lon="-3.08685">
        <ele>19.2</ele>
        <time>2021-08-14T15:59:26Z</time>
      </trkpt>
      <trkpt lat="47.57307" lon="-3.08683">
        <ele>19.2</ele>
        <time>2021-08-14T15:59:27Z</time>
      </trkpt>
      <trkpt lat="47.57302" lon="-3.08681">
        <ele>19.2</ele>
        <time>2021-08-14T15:59:28Z</time>
      </trkpt>
      <trkpt lat="47.57297" lon="-3.08679">
        <ele>19.2</ele>
        <time>2021-08-14T15:59:29Z</time>
      </trkpt>
      <trkpt lat="47.57292" lon="-3.08676">
        <ele>19.2</ele>
        <time>2021-08-14T15:59:30Z</time>
      </trkpt>
      <trkpt lat="47.57287" lon="-3.08674">
        <ele>19.2</ele>
        <time>2021-08-14T15:59:31Z</time>
      </trkpt>
      <trkpt lat="47.57282" lon="-3.08671">
        <ele>19.2</ele>
        <time>2021-08-14T15:59:32Z</time>
      </trkpt>
      <trkpt lat="47.57277" lon="-3.08668">
        <ele>19.2</ele>
        <time>2021-08-14T15:59:33Z</time>
      </trkpt>
      <trkpt lat="47.57272" lon="-3.08666">
        <ele>19</ele>
        <time>2021-08-14T15:59:34Z</time>
      </trkpt>
      <trkpt lat="47.57266" lon="-3.08663">
        <ele>19</ele>
        <time>2021-08-14T15:59:35Z</time>
      </trkpt>
      <trkpt lat="47.57261" lon="-3.0866">
        <ele>19</ele>
        <time>2021-08-14T15:59:36Z</time>
      </trkpt>
      <trkpt lat="47.57256" lon="-3.08657">
        <ele>18.8</ele>
        <time>2021-08-14T15:59:37Z</time>
      </trkpt>
      <trkpt lat="47.5725" lon="-3.08654">
        <ele>18.6</ele>
        <time>2021-08-14T15:59:38Z</time>
      </trkpt>
      <trkpt lat="47.57245" lon="-3.08651">
        <ele>18.6</ele>
        <time>2021-08-14T15:59:39Z</time>
      </trkpt>
      <trkpt lat="47.5724" lon="-3.08648">
        <ele>18.4</ele>
        <time>2021-08-14T15:59:40Z</time>
      </trkpt>
      <trkpt lat="47.57235" lon="-3.08645">
        <ele>18</ele>
        <time>2021-08-14T15:59:41Z</time>
      </trkpt>
      <trkpt lat="47.5723" lon="-3.08642">
        <ele>17.8</ele>
        <time>2021-08-14T15:59:42Z</time>
      </trkpt>
      <trkpt lat="47.57225" lon="-3.0864">
        <ele>17.4</ele>
        <time>2021-08-14T15:59:43Z</time>
      </trkpt>
      <trkpt lat="47.57221" lon="-3.08637">
        <ele>17.2</ele>
        <time>2021-08-14T15:59:44Z</time>
      </trkpt>
      <trkpt lat="47.57216" lon="-3.08634">
        <ele>17</ele>
        <time>2021-08-14T15:59:45Z</time>
      </trkpt>
      <trkpt lat="47.57212" lon="-3.08631">
        <ele>17</ele>
        <time>2021-08-14T15:59:46Z</time>
      </trkpt>
      <trkpt lat="47.57208" lon="-3.08628">
        <ele>17</ele>
        <time>2021-08-14T15:59:47Z</time>
      </trkpt>
      <trkpt lat="47.57204" lon="-3.08625">
        <ele>16.8</ele>
        <time>2021-08-14T15:59:48Z</time>
      </trkpt>
      <trkpt lat="47.572" lon="-3.08622">
        <ele>16.8</ele>
        <time>2021-08-14T15:59:49Z</time>
      </trkpt>
      <trkpt lat="47.57196" lon="-3.08619">
        <ele>16.8</ele>
        <time>2021-08-14T15:59:50Z</time>
      </trkpt>
      <trkpt lat="47.57192" lon="-3.08616">
        <ele>16.8</ele>
        <time>2021-08-14T15:59:51Z</time>
      </trkpt>
      <trkpt lat="47.57188" lon="-3.08613">
        <ele>16.8</ele>
        <time>2021-08-14T15:59:52Z</time>
      </trkpt>
      <trkpt lat="47.57184" lon="-3.0861">
        <ele>16.8</ele>
        <time>2021-08-14T15:59:53Z</time>
      </trkpt>
      <trkpt lat="47.5718" lon="-3.08607">
        <ele>16.8</ele>
        <time>2021-08-14T15:59:54Z</time>
      </trkpt>
      <trkpt lat="47.57176" lon="-3.08604">
        <ele>16.8</ele>
        <time>2021-08-14T15:59:55Z</time>
      </trkpt>
      <trkpt lat="47.57172" lon="-3.08601">
        <ele>16.8</ele>
        <time>2021-08-14T15:59:56Z</time>
      </trkpt>
      <trkpt lat="47.57168" lon="-3.08598">
        <ele>16.8</ele>
        <time>2021-08-14T15:59:57Z</time>
      </trkpt>
      <trkpt lat="47.57164" lon="-3.08595">
        <ele>16.8</ele>
        <time>2021-08-14T15:59:58Z</time>
      </trkpt>
      <trkpt lat="47.57159" lon="-3.08592">
        <ele>16.8</ele>
        <time>2021-08-14T15:59:59Z</time>
      </trkpt>
      <trkpt lat="47.57155" lon="-3.08588">
        <ele>16.8</ele>
        <time>2021-08-14T16:00:00Z</time>
      </trkpt>
      <trkpt lat="47.5715" lon="-3.08585">
        <ele>16.8</ele>
        <time>2021-08-14T16:00:01Z</time>
      </trkpt>
      <trkpt lat="47.57146" lon="-3.08582">
        <ele>16.8</ele>
        <time>2021-08-14T16:00:02Z</time>
      </trkpt>
      <trkpt lat="47.57142" lon="-3.08579">
        <ele>16.8</ele>
        <time>2021-08-14T16:00:03Z</time>
      </trkpt>
      <trkpt lat="47.57138" lon="-3.08577">
        <ele>16.8</ele>
        <time>2021-08-14T16:00:04Z</time>
      </trkpt>
      <trkpt lat="47.57135" lon="-3.08574">
        <ele>16.8</ele>
        <time>2021-08-14T16:00:05Z</time>
      </trkpt>
      <trkpt lat="47.57131" lon="-3.08572">
        <ele>16.8</ele>
        <time>2021-08-14T16:00:06Z</time>
      </trkpt>
      <trkpt lat="47.57127" lon="-3.0857">
        <ele>16.8</ele>
        <time>2021-08-14T16:00:07Z</time>
      </trkpt>
      <trkpt lat="47.57123" lon="-3.08567">
        <ele>16.8</ele>
        <time>2021-08-14T16:00:08Z</time>
      </trkpt>
      <trkpt lat="47.5712" lon="-3.08565">
        <ele>16.8</ele>
        <time>2021-08-14T16:00:09Z</time>
      </trkpt>
      <trkpt lat="47.57116" lon="-3.08563">
        <ele>16.8</ele>
        <time>2021-08-14T16:00:10Z</time>
      </trkpt>
      <trkpt lat="47.57113" lon="-3.08561">
        <ele>16.8</ele>
        <time>2021-08-14T16:00:11Z</time>
      </trkpt>
      <trkpt lat="47.57109" lon="-3.08559">
        <ele>16.8</ele>
        <time>2021-08-14T16:00:12Z</time>
      </trkpt>
      <trkpt lat="47.57105" lon="-3.08557">
        <ele>16.8</ele>
        <time>2021-08-14T16:00:13Z</time>
      </trkpt>
      <trkpt lat="47.57102" lon="-3.08554">
        <ele>16.8</ele>
        <time>2021-08-14T16:00:14Z</time>
      </trkpt>
      <trkpt lat="47.57099" lon="-3.0855">
        <ele>16.8</ele>
        <time>2021-08-14T16:00:15Z</time>
      </trkpt>
      <trkpt lat="47.57098" lon="-3.08544">
        <ele>16.8</ele>
        <time>2021-08-14T16:00:16Z</time>
      </trkpt>
      <trkpt lat="47.57098" lon="-3.08537">
        <ele>16.8</ele>
        <time>2021-08-14T16:00:17Z</time>
      </trkpt>
      <trkpt lat="47.57098" lon="-3.08531">
        <ele>17</ele>
        <time>2021-08-14T16:00:18Z</time>
      </trkpt>
      <trkpt lat="47.57098" lon="-3.08524">
        <ele>17</ele>
        <time>2021-08-14T16:00:19Z</time>
      </trkpt>
      <trkpt lat="47.57097" lon="-3.08517">
        <ele>17</ele>
        <time>2021-08-14T16:00:20Z</time>
      </trkpt>
      <trkpt lat="47.57095" lon="-3.0851">
        <ele>17</ele>
        <time>2021-08-14T16:00:21Z</time>
      </trkpt>
      <trkpt lat="47.57092" lon="-3.08504">
        <ele>17</ele>
        <time>2021-08-14T16:00:22Z</time>
      </trkpt>
      <trkpt lat="47.57089" lon="-3.08497">
        <ele>17</ele>
        <time>2021-08-14T16:00:23Z</time>
      </trkpt>
      <trkpt lat="47.57086" lon="-3.08491">
        <ele>17</ele>
        <time>2021-08-14T16:00:24Z</time>
      </trkpt>
      <trkpt lat="47.57083" lon="-3.08484">
        <ele>17</ele>
        <time>2021-08-14T16:00:25Z</time>
      </trkpt>
      <trkpt lat="47.57079" lon="-3.08478">
        <ele>17</ele>
        <time>2021-08-14T16:00:26Z</time>
      </trkpt>
      <trkpt lat="47.57076" lon="-3.08471">
        <ele>17</ele>
        <time>2021-08-14T16:00:27Z</time>
      </trkpt>
      <trkpt lat="47.57072" lon="-3.08464">
        <ele>17</ele>
        <time>2021-08-14T16:00:28Z</time>
      </trkpt>
      <trkpt lat="47.57069" lon="-3.08457">
        <ele>16.8</ele>
        <time>2021-08-14T16:00:29Z</time>
      </trkpt>
      <trkpt lat="47.57066" lon="-3.0845">
        <ele>16.8</ele>
        <time>2021-08-14T16:00:30Z</time>
      </trkpt>
      <trkpt lat="47.57063" lon="-3.08443">
        <ele>16.8</ele>
        <time>2021-08-14T16:00:31Z</time>
      </trkpt>
      <trkpt lat="47.5706" lon="-3.08435">
        <ele>16.8</ele>
        <time>2021-08-14T16:00:32Z</time>
      </trkpt>
      <trkpt lat="47.57058" lon="-3.08428">
        <ele>16.6</ele>
        <time>2021-08-14T16:00:33Z</time>
      </trkpt>
      <trkpt lat="47.57055" lon="-3.0842">
        <ele>16.6</ele>
        <time>2021-08-14T16:00:34Z</time>
      </trkpt>
      <trkpt lat="47.57053" lon="-3.08413">
        <ele>16.4</ele>
        <time>2021-08-14T16:00:35Z</time>
      </trkpt>
      <trkpt lat="47.5705" lon="-3.08405">
        <ele>16.4</ele>
        <time>2021-08-14T16:00:36Z</time>
      </trkpt>
      <trkpt lat="47.57048" lon="-3.08398">
        <ele>16.4</ele>
        <time>2021-08-14T16:00:37Z</time>
      </trkpt>
      <trkpt lat="47.57046" lon="-3.0839">
        <ele>16.4</ele>
        <time>2021-08-14T16:00:38Z</time>
      </trkpt>
      <trkpt lat="47.57045" lon="-3.08383">
        <ele>16.4</ele>
        <time>2021-08-14T16:00:39Z</time>
      </trkpt>
      <trkpt lat="47.57043" lon="-3.08375">
        <ele>16.4</ele>
        <time>2021-08-14T16:00:40Z</time>
      </trkpt>
      <trkpt lat="47.57041" lon="-3.08368">
        <ele>16.4</ele>
        <time>2021-08-14T16:00:41Z</time>
      </trkpt>
      <trkpt lat="47.5704" lon="-3.0836">
        <ele>16.4</ele>
        <time>2021-08-14T16:00:42Z</time>
      </trkpt>
      <trkpt lat="47.57039" lon="-3.08353">
        <ele>16.4</ele>
        <time>2021-08-14T16:00:43Z</time>
      </trkpt>
      <trkpt lat="47.57037" lon="-3.08346">
        <ele>16.4</ele>
        <time>2021-08-14T16:00:44Z</time>
      </trkpt>
      <trkpt lat="47.57037" lon="-3.08339">
        <ele>16.4</ele>
        <time>2021-08-14T16:00:45Z</time>
      </trkpt>
      <trkpt lat="47.57036" lon="-3.08331">
        <ele>16.4</ele>
        <time>2021-08-14T16:00:46Z</time>
      </trkpt>
      <trkpt lat="47.57035" lon="-3.08324">
        <ele>16.4</ele>
        <time>2021-08-14T16:00:47Z</time>
      </trkpt>
      <trkpt lat="47.57034" lon="-3.08317">
        <ele>16.4</ele>
        <time>2021-08-14T16:00:48Z</time>
      </trkpt>
      <trkpt lat="47.57034" lon="-3.0831">
        <ele>16.8</ele>
        <time>2021-08-14T16:00:49Z</time>
      </trkpt>
      <trkpt lat="47.57033" lon="-3.08303">
        <ele>16.8</ele>
        <time>2021-08-14T16:00:50Z</time>
      </trkpt>
      <trkpt lat="47.57032" lon="-3.08295">
        <ele>16.8</ele>
        <time>2021-08-14T16:00:51Z</time>
      </trkpt>
      <trkpt lat="47.57032" lon="-3.08288">
        <ele>17</ele>
        <time>2021-08-14T16:00:52Z</time>
      </trkpt>
      <trkpt lat="47.57031" lon="-3.08281">
        <ele>17</ele>
        <time>2021-08-14T16:00:53Z</time>
      </trkpt>
      <trkpt lat="47.57031" lon="-3.08273">
        <ele>17</ele>
        <time>2021-08-14T16:00:54Z</time>
      </trkpt>
      <trkpt lat="47.5703" lon="-3.08266">
        <ele>17</ele>
        <time>2021-08-14T16:00:55Z</time>
      </trkpt>
      <trkpt lat="47.5703" lon="-3.08258">
        <ele>17</ele>
        <time>2021-08-14T16:00:56Z</time>
      </trkpt>
      <trkpt lat="47.57029" lon="-3.08251">
        <ele>17</ele>
        <time>2021-08-14T16:00:57Z</time>
      </trkpt>
      <trkpt lat="47.57028" lon="-3.08243">
        <ele>17</ele>
        <time>2021-08-14T16:00:58Z</time>
      </trkpt>
      <trkpt lat="47.57027" lon="-3.08235">
        <ele>17</ele>
        <time>2021-08-14T16:00:59Z</time>
      </trkpt>
      <trkpt lat="47.57026" lon="-3.08227">
        <ele>17</ele>
        <time>2021-08-14T16:01:00Z</time>
      </trkpt>
      <trkpt lat="47.57026" lon="-3.08219">
        <ele>17</ele>
        <time>2021-08-14T16:01:01Z</time>
      </trkpt>
      <trkpt lat="47.57025" lon="-3.08211">
        <ele>16.8</ele>
        <time>2021-08-14T16:01:02Z</time>
      </trkpt>
      <trkpt lat="47.57024" lon="-3.08203">
        <ele>16.8</ele>
        <time>2021-08-14T16:01:03Z</time>
      </trkpt>
      <trkpt lat="47.57024" lon="-3.08195">
        <ele>16.8</ele>
        <time>2021-08-14T16:01:04Z</time>
      </trkpt>
      <trkpt lat="47.57023" lon="-3.08187">
        <ele>16.8</ele>
        <time>2021-08-14T16:01:05Z</time>
      </trkpt>
      <trkpt lat="47.57022" lon="-3.08178">
        <ele>16.8</ele>
        <time>2021-08-14T16:01:06Z</time>
      </trkpt>
      <trkpt lat="47.57021" lon="-3.0817">
        <ele>16.8</ele>
        <time>2021-08-14T16:01:07Z</time>
      </trkpt>
      <trkpt lat="47.5702" lon="-3.08161">
        <ele>16.8</ele>
        <time>2021-08-14T16:01:08Z</time>
      </trkpt>
      <trkpt lat="47.57019" lon="-3.08152">
        <ele>16.8</ele>
        <time>2021-08-14T16:01:09Z</time>
      </trkpt>
      <trkpt lat="47.57019" lon="-3.08144">
        <ele>16.8</ele>
        <time>2021-08-14T16:01:10Z</time>
      </trkpt>
      <trkpt lat="47.57018" lon="-3.08136">
        <ele>16.8</ele>
        <time>2021-08-14T16:01:11Z</time>
      </trkpt>
      <trkpt lat="47.57017" lon="-3.08128">
        <ele>16.6</ele>
        <time>2021-08-14T16:01:12Z</time>
      </trkpt>
      <trkpt lat="47.57017" lon="-3.08119">
        <ele>16.6</ele>
        <time>2021-08-14T16:01:13Z</time>
      </trkpt>
      <trkpt lat="47.57016" lon="-3.08112">
        <ele>16.6</ele>
        <time>2021-08-14T16:01:14Z</time>
      </trkpt>
      <trkpt lat="47.57016" lon="-3.08104">
        <ele>16.6</ele>
        <time>2021-08-14T16:01:15Z</time>
      </trkpt>
      <trkpt lat="47.57015" lon="-3.08096">
        <ele>16.6</ele>
        <time>2021-08-14T16:01:16Z</time>
      </trkpt>
      <trkpt lat="47.57015" lon="-3.08088">
        <ele>16.4</ele>
        <time>2021-08-14T16:01:17Z</time>
      </trkpt>
      <trkpt lat="47.57014" lon="-3.0808">
        <ele>16.4</ele>
        <time>2021-08-14T16:01:18Z</time>
      </trkpt>
      <trkpt lat="47.57014" lon="-3.08072">
        <ele>16.4</ele>
        <time>2021-08-14T16:01:19Z</time>
      </trkpt>
      <trkpt lat="47.57013" lon="-3.08064">
        <ele>16.4</ele>
        <time>2021-08-14T16:01:20Z</time>
      </trkpt>
      <trkpt lat="47.57013" lon="-3.08056">
        <ele>16.4</ele>
        <time>2021-08-14T16:01:21Z</time>
      </trkpt>
      <trkpt lat="47.57012" lon="-3.08048">
        <ele>16.4</ele>
        <time>2021-08-14T16:01:22Z</time>
      </trkpt>
      <trkpt lat="47.57012" lon="-3.0804">
        <ele>16.4</ele>
        <time>2021-08-14T16:01:23Z</time>
      </trkpt>
      <trkpt lat="47.57011" lon="-3.08031">
        <ele>16.6</ele>
        <time>2021-08-14T16:01:24Z</time>
      </trkpt>
      <trkpt lat="47.57011" lon="-3.08023">
        <ele>16.6</ele>
        <time>2021-08-14T16:01:25Z</time>
      </trkpt>
      <trkpt lat="47.57011" lon="-3.08015">
        <ele>16.6</ele>
        <time>2021-08-14T16:01:26Z</time>
      </trkpt>
      <trkpt lat="47.57011" lon="-3.08007">
        <ele>16.8</ele>
        <time>2021-08-14T16:01:27Z</time>
      </trkpt>
      <trkpt lat="47.57012" lon="-3.07998">
        <ele>16.8</ele>
        <time>2021-08-14T16:01:28Z</time>
      </trkpt>
      <trkpt lat="47.57012" lon="-3.0799">
        <ele>16.8</ele>
        <time>2021-08-14T16:01:29Z</time>
      </trkpt>
      <trkpt lat="47.57013" lon="-3.07982">
        <ele>17</ele>
        <time>2021-08-14T16:01:30Z</time>
      </trkpt>
      <trkpt lat="47.57013" lon="-3.07974">
        <ele>17</ele>
        <time>2021-08-14T16:01:31Z</time>
      </trkpt>
      <trkpt lat="47.57014" lon="-3.07965">
        <ele>17</ele>
        <time>2021-08-14T16:01:32Z</time>
      </trkpt>
      <trkpt lat="47.57013" lon="-3.07957">
        <ele>17</ele>
        <time>2021-08-14T16:01:33Z</time>
      </trkpt>
      <trkpt lat="47.57013" lon="-3.07949">
        <ele>17</ele>
        <time>2021-08-14T16:01:34Z</time>
      </trkpt>
      <trkpt lat="47.57013" lon="-3.07941">
        <ele>17</ele>
        <time>2021-08-14T16:01:35Z</time>
      </trkpt>
      <trkpt lat="47.57013" lon="-3.07932">
        <ele>17</ele>
        <time>2021-08-14T16:01:36Z</time>
      </trkpt>
      <trkpt lat="47.57013" lon="-3.07924">
        <ele>17.2</ele>
        <time>2021-08-14T16:01:37Z</time>
      </trkpt>
      <trkpt lat="47.57013" lon="-3.07916">
        <ele>17.2</ele>
        <time>2021-08-14T16:01:38Z</time>
      </trkpt>
      <trkpt lat="47.57012" lon="-3.07908">
        <ele>17.2</ele>
        <time>2021-08-14T16:01:39Z</time>
      </trkpt>
      <trkpt lat="47.57012" lon="-3.07901">
        <ele>17.2</ele>
        <time>2021-08-14T16:01:40Z</time>
      </trkpt>
      <trkpt lat="47.57012" lon="-3.07894">
        <ele>17.2</ele>
        <time>2021-08-14T16:01:41Z</time>
      </trkpt>
      <trkpt lat="47.57012" lon="-3.07887">
        <ele>17.2</ele>
        <time>2021-08-14T16:01:42Z</time>
      </trkpt>
      <trkpt lat="47.57012" lon="-3.0788">
        <ele>17.2</ele>
        <time>2021-08-14T16:01:43Z</time>
      </trkpt>
      <trkpt lat="47.57011" lon="-3.07873">
        <ele>17.2</ele>
        <time>2021-08-14T16:01:44Z</time>
      </trkpt>
      <trkpt lat="47.57011" lon="-3.07867">
        <ele>17.2</ele>
        <time>2021-08-14T16:01:45Z</time>
      </trkpt>
      <trkpt lat="47.57009" lon="-3.07863">
        <ele>17.4</ele>
        <time>2021-08-14T16:01:46Z</time>
      </trkpt>
      <trkpt lat="47.57007" lon="-3.07859">
        <ele>17.4</ele>
        <time>2021-08-14T16:01:47Z</time>
      </trkpt>
      <trkpt lat="47.57005" lon="-3.07858">
        <ele>17.4</ele>
        <time>2021-08-14T16:01:48Z</time>
      </trkpt>
      <trkpt lat="47.57003" lon="-3.07857">
        <ele>17.6</ele>
        <time>2021-08-14T16:01:49Z</time>
      </trkpt>
      <trkpt lat="47.57001" lon="-3.07856">
        <ele>17.6</ele>
        <time>2021-08-14T16:01:50Z</time>
      </trkpt>
      <trkpt lat="47.57" lon="-3.07856">
        <ele>17.6</ele>
        <time>2021-08-14T16:01:51Z</time>
      </trkpt>
      <trkpt lat="47.56998" lon="-3.07855">
        <ele>17.8</ele>
        <time>2021-08-14T16:01:52Z</time>
      </trkpt>
      <trkpt lat="47.56997" lon="-3.07855">
        <ele>18</ele>
        <time>2021-08-14T16:01:53Z</time>
      </trkpt>
      <trkpt lat="47.56996" lon="-3.07854">
        <ele>18.2</ele>
        <time>2021-08-14T16:01:54Z</time>
      </trkpt>
      <trkpt lat="47.56995" lon="-3.07854">
        <ele>18.4</ele>
        <time>2021-08-14T16:01:55Z</time>
      </trkpt>
      <trkpt lat="47.56994" lon="-3.07853">
        <ele>18.4</ele>
        <time>2021-08-14T16:01:56Z</time>
      </trkpt>
      <trkpt lat="47.56993" lon="-3.07851">
        <ele>18.6</ele>
        <time>2021-08-14T16:01:57Z</time>
      </trkpt>
      <trkpt lat="47.56992" lon="-3.0785">
        <ele>18.8</ele>
        <time>2021-08-14T16:01:58Z</time>
      </trkpt>
      <trkpt lat="47.5699" lon="-3.07848">
        <ele>18.8</ele>
        <time>2021-08-14T16:01:59Z</time>
      </trkpt>
      <trkpt lat="47.56989" lon="-3.07845">
        <ele>19</ele>
        <time>2021-08-14T16:02:00Z</time>
      </trkpt>
      <trkpt lat="47.56989" lon="-3.07842">
        <ele>19</ele>
        <time>2021-08-14T16:02:01Z</time>
      </trkpt>
      <trkpt lat="47.56989" lon="-3.07838">
        <ele>19.2</ele>
        <time>2021-08-14T16:02:02Z</time>
      </trkpt>
      <trkpt lat="47.5699" lon="-3.07834">
        <ele>19.2</ele>
        <time>2021-08-14T16:02:03Z</time>
      </trkpt>
      <trkpt lat="47.5699" lon="-3.07829">
        <ele>19.2</ele>
        <time>2021-08-14T16:02:04Z</time>
      </trkpt>
      <trkpt lat="47.56992" lon="-3.07825">
        <ele>19.2</ele>
        <time>2021-08-14T16:02:05Z</time>
      </trkpt>
      <trkpt lat="47.56993" lon="-3.0782">
        <ele>19.2</ele>
        <time>2021-08-14T16:02:06Z</time>
      </trkpt>
      <trkpt lat="47.56994" lon="-3.07815">
        <ele>19.2</ele>
        <time>2021-08-14T16:02:07Z</time>
      </trkpt>
      <trkpt lat="47.56995" lon="-3.0781">
        <ele>19.2</ele>
        <time>2021-08-14T16:02:08Z</time>
      </trkpt>
      <trkpt lat="47.56996" lon="-3.07805">
        <ele>19.2</ele>
        <time>2021-08-14T16:02:09Z</time>
      </trkpt>
      <trkpt lat="47.56996" lon="-3.07799">
        <ele>19.2</ele>
        <time>2021-08-14T16:02:10Z</time>
      </trkpt>
      <trkpt lat="47.56997" lon="-3.07794">
        <ele>19.2</ele>
        <time>2021-08-14T16:02:11Z</time>
      </trkpt>
      <trkpt lat="47.56998" lon="-3.07789">
        <ele>19.2</ele>
        <time>2021-08-14T16:02:12Z</time>
      </trkpt>
      <trkpt lat="47.57001" lon="-3.07784">
        <ele>19</ele>
        <time>2021-08-14T16:02:13Z</time>
      </trkpt>
      <trkpt lat="47.57003" lon="-3.07781">
        <ele>19</ele>
        <time>2021-08-14T16:02:14Z</time>
      </trkpt>
      <trkpt lat="47.57005" lon="-3.07777">
        <ele>19</ele>
        <time>2021-08-14T16:02:15Z</time>
      </trkpt>
      <trkpt lat="47.57007" lon="-3.07775">
        <ele>19</ele>
        <time>2021-08-14T16:02:16Z</time>
      </trkpt>
      <trkpt lat="47.57008" lon="-3.07772">
        <ele>19</ele>
        <time>2021-08-14T16:02:17Z</time>
      </trkpt>
      <trkpt lat="47.5701" lon="-3.07769">
        <ele>19</ele>
        <time>2021-08-14T16:02:18Z</time>
      </trkpt>
      <trkpt lat="47.57012" lon="-3.07766">
        <ele>19</ele>
        <time>2021-08-14T16:02:19Z</time>
      </trkpt>
      <trkpt lat="47.57013" lon="-3.07764">
        <ele>19</ele>
        <time>2021-08-14T16:02:20Z</time>
      </trkpt>
      <trkpt lat="47.57015" lon="-3.07762">
        <ele>19</ele>
        <time>2021-08-14T16:02:21Z</time>
      </trkpt>
      <trkpt lat="47.57017" lon="-3.07759">
        <ele>19</ele>
        <time>2021-08-14T16:02:22Z</time>
      </trkpt>
      <trkpt lat="47.57018" lon="-3.07757">
        <ele>19</ele>
        <time>2021-08-14T16:02:23Z</time>
      </trkpt>
      <trkpt lat="47.5702" lon="-3.07754">
        <ele>19</ele>
        <time>2021-08-14T16:02:24Z</time>
      </trkpt>
      <trkpt lat="47.57021" lon="-3.07751">
        <ele>19</ele>
        <time>2021-08-14T16:02:25Z</time>
      </trkpt>
      <trkpt lat="47.57022" lon="-3.07747">
        <ele>19</ele>
        <time>2021-08-14T16:02:26Z</time>
      </trkpt>
      <trkpt lat="47.57023" lon="-3.07744">
        <ele>19</ele>
        <time>2021-08-14T16:02:27Z</time>
      </trkpt>
      <trkpt lat="47.57025" lon="-3.0774">
        <ele>19</ele>
        <time>2021-08-14T16:02:28Z</time>
      </trkpt>
      <trkpt lat="47.57026" lon="-3.07737">
        <ele>19</ele>
        <time>2021-08-14T16:02:29Z</time>
      </trkpt>
      <trkpt lat="47.57027" lon="-3.07734">
        <ele>19</ele>
        <time>2021-08-14T16:02:30Z</time>
      </trkpt>
      <trkpt lat="47.57028" lon="-3.07731">
        <ele>19</ele>
        <time>2021-08-14T16:02:31Z</time>
      </trkpt>
      <trkpt lat="47.57029" lon="-3.07728">
        <ele>19</ele>
        <time>2021-08-14T16:02:32Z</time>
      </trkpt>
      <trkpt lat="47.57031" lon="-3.07725">
        <ele>19</ele>
        <time>2021-08-14T16:02:33Z</time>
      </trkpt>
      <trkpt lat="47.57032" lon="-3.07722">
        <ele>19</ele>
        <time>2021-08-14T16:02:34Z</time>
      </trkpt>
      <trkpt lat="47.57033" lon="-3.07719">
        <ele>19.2</ele>
        <time>2021-08-14T16:02:35Z</time>
      </trkpt>
      <trkpt lat="47.57035" lon="-3.07717">
        <ele>19.2</ele>
        <time>2021-08-14T16:02:36Z</time>
      </trkpt>
      <trkpt lat="47.57036" lon="-3.07714">
        <ele>19.4</ele>
        <time>2021-08-14T16:02:37Z</time>
      </trkpt>
      <trkpt lat="47.57036" lon="-3.07711">
        <ele>19.2</ele>
        <time>2021-08-14T16:02:38Z</time>
      </trkpt>
      <trkpt lat="47.57037" lon="-3.07707">
        <ele>19.4</ele>
        <time>2021-08-14T16:02:39Z</time>
      </trkpt>
      <trkpt lat="47.57038" lon="-3.07704">
        <ele>19.4</ele>
        <time>2021-08-14T16:02:40Z</time>
      </trkpt>
      <trkpt lat="47.5704" lon="-3.07701">
        <ele>19.4</ele>
        <time>2021-08-14T16:02:41Z</time>
      </trkpt>
      <trkpt lat="47.57041" lon="-3.07698">
        <ele>19.4</ele>
        <time>2021-08-14T16:02:42Z</time>
      </trkpt>
      <trkpt lat="47.57042" lon="-3.07695">
        <ele>19.4</ele>
        <time>2021-08-14T16:02:43Z</time>
      </trkpt>
      <trkpt lat="47.57043" lon="-3.07692">
        <ele>19.4</ele>
        <time>2021-08-14T16:02:44Z</time>
      </trkpt>
      <trkpt lat="47.57044" lon="-3.07689">
        <ele>19.4</ele>
        <time>2021-08-14T16:02:45Z</time>
      </trkpt>
      <trkpt lat="47.57044" lon="-3.07687">
        <ele>19.4</ele>
        <time>2021-08-14T16:02:46Z</time>
      </trkpt>
      <trkpt lat="47.57045" lon="-3.07685">
        <ele>19.4</ele>
        <time>2021-08-14T16:02:47Z</time>
      </trkpt>
      <trkpt lat="47.57046" lon="-3.07684">
        <ele>19.4</ele>
        <time>2021-08-14T16:02:48Z</time>
      </trkpt>
      <trkpt lat="47.57046" lon="-3.07683">
        <ele>19.4</ele>
        <time>2021-08-14T16:02:49Z</time>
      </trkpt>
    </trkseg>
  </trk>
</gpx>